<?xml version="1.0" encoding="UTF-8"?>
<gpx version="1.1" creator="https://www.youtrack.es" xsi:schemaLocation="http://www.topografix.com/GPX/1/1 http://www.topografix.com/GPX/1/1/gpx.xsd http://www.garmin.com/xmlschemas/GpxExtensions/v3 http://www.garmin.com/xmlschemas/GpxExtensionsv3.xsd http://www.garmin.com/xmlschemas/TrackPointExtension/v1 http://www.garmin.com/xmlschemas/TrackPointExtensionv1.xsd" xmlns:gpxtpx="http://www.garmin.com/xmlschemas/TrackPointExtension/v1" xmlns:gpxx="http://www.garmin.com/xmlschemas/GpxExtensions/v3" xmlns:xsi="http://www.w3.org/2001/XMLSchema-instance">
  <metadata>
    <link href="https://www.youtrack.es">
      <text>YouTrack.es</text>
    </link>
    <time>2026-05-08T11:01:43Z</time>
  </metadata>
  <trk>
    <src>https://www.youtrack.es</src>
    <link href="https://www.youtrack.es/ruta/35776-tanda-1-camino-de-santiago">
      <text>YouTrack.es</text>
    </link>
    <trkseg>
      <trkpt lat="43.162496" lon="-1.237244">
        <ele>168.869</ele>
        <time>2022-08-24T06:15:10Z</time>
      </trkpt>
      <trkpt lat="43.162499999999994" lon="-1.23721">
        <ele>172.404</ele>
        <time>2022-08-24T06:15:39Z</time>
      </trkpt>
      <trkpt lat="43.16249199999999" lon="-1.2372159999999999">
        <ele>172.424</ele>
        <time>2022-08-24T06:15:41Z</time>
      </trkpt>
      <trkpt lat="43.16247499999999" lon="-1.2371819999999998">
        <ele>172.409</ele>
        <time>2022-08-24T06:23:29Z</time>
      </trkpt>
      <trkpt lat="43.16248199999999" lon="-1.2372099999999997">
        <ele>172.457</ele>
        <time>2022-08-24T06:23:33Z</time>
      </trkpt>
      <trkpt lat="43.16246899999999" lon="-1.2372169999999998">
        <ele>172.257</ele>
        <time>2022-08-24T06:23:34Z</time>
      </trkpt>
      <trkpt lat="43.162435999999985" lon="-1.2372249999999998">
        <ele>172.227</ele>
        <time>2022-08-24T06:23:35Z</time>
      </trkpt>
      <trkpt lat="43.16238999999999" lon="-1.2372359999999998">
        <ele>172.283</ele>
        <time>2022-08-24T06:23:36Z</time>
      </trkpt>
      <trkpt lat="43.162359999999985" lon="-1.2372449999999997">
        <ele>172.255</ele>
        <time>2022-08-24T06:23:37Z</time>
      </trkpt>
      <trkpt lat="43.16233299999998" lon="-1.2372509999999997">
        <ele>172.232</ele>
        <time>2022-08-24T06:23:38Z</time>
      </trkpt>
      <trkpt lat="43.16231299999998" lon="-1.2372599999999996">
        <ele>172.235</ele>
        <time>2022-08-24T06:23:39Z</time>
      </trkpt>
      <trkpt lat="43.162294999999986" lon="-1.2372709999999996">
        <ele>172.079</ele>
        <time>2022-08-24T06:23:40Z</time>
      </trkpt>
      <trkpt lat="43.16217099999999" lon="-1.2373279999999995">
        <ele>171.888</ele>
        <time>2022-08-24T06:23:45Z</time>
      </trkpt>
      <trkpt lat="43.162081999999984" lon="-1.2373809999999996">
        <ele>171.825</ele>
        <time>2022-08-24T06:23:48Z</time>
      </trkpt>
      <trkpt lat="43.16205799999998" lon="-1.2373899999999995">
        <ele>171.826</ele>
        <time>2022-08-24T06:23:49Z</time>
      </trkpt>
      <trkpt lat="43.16203399999998" lon="-1.2374019999999994">
        <ele>171.608</ele>
        <time>2022-08-24T06:23:50Z</time>
      </trkpt>
      <trkpt lat="43.16201299999998" lon="-1.2374159999999994">
        <ele>171.609</ele>
        <time>2022-08-24T06:23:51Z</time>
      </trkpt>
      <trkpt lat="43.16199299999998" lon="-1.2374249999999993">
        <ele>171.693</ele>
        <time>2022-08-24T06:23:52Z</time>
      </trkpt>
      <trkpt lat="43.16197899999998" lon="-1.2374319999999994">
        <ele>171.633</ele>
        <time>2022-08-24T06:23:53Z</time>
      </trkpt>
      <trkpt lat="43.16196999999998" lon="-1.2374369999999995">
        <ele>171.613</ele>
        <time>2022-08-24T06:23:54Z</time>
      </trkpt>
      <trkpt lat="43.161957999999984" lon="-1.2374469999999995">
        <ele>171.659</ele>
        <time>2022-08-24T06:23:55Z</time>
      </trkpt>
      <trkpt lat="43.161940999999985" lon="-1.2374609999999995">
        <ele>171.661</ele>
        <time>2022-08-24T06:23:56Z</time>
      </trkpt>
      <trkpt lat="43.16192199999998" lon="-1.2374709999999995">
        <ele>171.678</ele>
        <time>2022-08-24T06:23:57Z</time>
      </trkpt>
      <trkpt lat="43.16184899999998" lon="-1.2375069999999995">
        <ele>172.081</ele>
        <time>2022-08-24T06:24:01Z</time>
      </trkpt>
      <trkpt lat="43.161819999999985" lon="-1.2375149999999995">
        <ele>172.225</ele>
        <time>2022-08-24T06:24:02Z</time>
      </trkpt>
      <trkpt lat="43.161701999999984" lon="-1.2375849999999995">
        <ele>172.214</ele>
        <time>2022-08-24T06:24:07Z</time>
      </trkpt>
      <trkpt lat="43.161684999999984" lon="-1.2375959999999995">
        <ele>172.265</ele>
        <time>2022-08-24T06:24:08Z</time>
      </trkpt>
      <trkpt lat="43.16166999999999" lon="-1.2376089999999995">
        <ele>172.268</ele>
        <time>2022-08-24T06:24:09Z</time>
      </trkpt>
      <trkpt lat="43.16162699999999" lon="-1.2376459999999996">
        <ele>172.214</ele>
        <time>2022-08-24T06:24:11Z</time>
      </trkpt>
      <trkpt lat="43.161596999999986" lon="-1.2376629999999995">
        <ele>172.209</ele>
        <time>2022-08-24T06:24:12Z</time>
      </trkpt>
      <trkpt lat="43.16156999999998" lon="-1.2376759999999996">
        <ele>172.297</ele>
        <time>2022-08-24T06:24:13Z</time>
      </trkpt>
      <trkpt lat="43.16154299999998" lon="-1.2376919999999996">
        <ele>172.267</ele>
        <time>2022-08-24T06:24:14Z</time>
      </trkpt>
      <trkpt lat="43.16152399999998" lon="-1.2377039999999995">
        <ele>172.237</ele>
        <time>2022-08-24T06:24:15Z</time>
      </trkpt>
      <trkpt lat="43.16151799999998" lon="-1.2377199999999995">
        <ele>172.213</ele>
        <time>2022-08-24T06:24:16Z</time>
      </trkpt>
      <trkpt lat="43.16150699999998" lon="-1.2378059999999995">
        <ele>172.225</ele>
        <time>2022-08-24T06:24:18Z</time>
      </trkpt>
      <trkpt lat="43.16152099999998" lon="-1.2378439999999995">
        <ele>172.262</ele>
        <time>2022-08-24T06:24:19Z</time>
      </trkpt>
      <trkpt lat="43.16155399999998" lon="-1.2379569999999995">
        <ele>172.275</ele>
        <time>2022-08-24T06:24:22Z</time>
      </trkpt>
      <trkpt lat="43.16155699999998" lon="-1.2380089999999995">
        <ele>172.269</ele>
        <time>2022-08-24T06:24:23Z</time>
      </trkpt>
      <trkpt lat="43.16159299999998" lon="-1.2382429999999995">
        <ele>172.058</ele>
        <time>2022-08-24T06:24:28Z</time>
      </trkpt>
      <trkpt lat="43.16159299999998" lon="-1.2382959999999996">
        <ele>171.877</ele>
        <time>2022-08-24T06:24:29Z</time>
      </trkpt>
      <trkpt lat="43.161622999999985" lon="-1.2383929999999996">
        <ele>171.661</ele>
        <time>2022-08-24T06:24:31Z</time>
      </trkpt>
      <trkpt lat="43.161644999999986" lon="-1.2384409999999997">
        <ele>171.627</ele>
        <time>2022-08-24T06:24:32Z</time>
      </trkpt>
      <trkpt lat="43.16165499999999" lon="-1.2384789999999997">
        <ele>171.409</ele>
        <time>2022-08-24T06:24:33Z</time>
      </trkpt>
      <trkpt lat="43.161658999999986" lon="-1.2385049999999997">
        <ele>171.428</ele>
        <time>2022-08-24T06:24:34Z</time>
      </trkpt>
      <trkpt lat="43.161661999999986" lon="-1.2385339999999998">
        <ele>171.428</ele>
        <time>2022-08-24T06:24:35Z</time>
      </trkpt>
      <trkpt lat="43.16166899999998" lon="-1.2385619999999997">
        <ele>171.458</ele>
        <time>2022-08-24T06:24:36Z</time>
      </trkpt>
      <trkpt lat="43.161678999999985" lon="-1.2385909999999998">
        <ele>171.474</ele>
        <time>2022-08-24T06:24:37Z</time>
      </trkpt>
      <trkpt lat="43.161684999999984" lon="-1.2386209999999997">
        <ele>171.416</ele>
        <time>2022-08-24T06:24:38Z</time>
      </trkpt>
      <trkpt lat="43.16169499999999" lon="-1.2386469999999998">
        <ele>171.433</ele>
        <time>2022-08-24T06:24:39Z</time>
      </trkpt>
      <trkpt lat="43.161703999999986" lon="-1.2386759999999999">
        <ele>171.616</ele>
        <time>2022-08-24T06:24:40Z</time>
      </trkpt>
      <trkpt lat="43.161709999999985" lon="-1.2387089999999998">
        <ele>171.660</ele>
        <time>2022-08-24T06:24:41Z</time>
      </trkpt>
      <trkpt lat="43.16171699999998" lon="-1.238738">
        <ele>171.689</ele>
        <time>2022-08-24T06:24:42Z</time>
      </trkpt>
      <trkpt lat="43.16172299999998" lon="-1.2387629999999998">
        <ele>171.872</ele>
        <time>2022-08-24T06:24:43Z</time>
      </trkpt>
      <trkpt lat="43.16173199999998" lon="-1.2387799999999998">
        <ele>171.813</ele>
        <time>2022-08-24T06:24:44Z</time>
      </trkpt>
      <trkpt lat="43.16173999999998" lon="-1.2387959999999998">
        <ele>171.814</ele>
        <time>2022-08-24T06:24:45Z</time>
      </trkpt>
      <trkpt lat="43.16175599999998" lon="-1.2388389999999998">
        <ele>171.809</ele>
        <time>2022-08-24T06:24:47Z</time>
      </trkpt>
      <trkpt lat="43.16173699999998" lon="-1.2388849999999998">
        <ele>172.058</ele>
        <time>2022-08-24T06:24:49Z</time>
      </trkpt>
      <trkpt lat="43.16172199999998" lon="-1.2388979999999998">
        <ele>172.068</ele>
        <time>2022-08-24T06:24:50Z</time>
      </trkpt>
      <trkpt lat="43.16170099999999" lon="-1.2389059999999998">
        <ele>172.088</ele>
        <time>2022-08-24T06:24:51Z</time>
      </trkpt>
      <trkpt lat="43.16168099999999" lon="-1.2389089999999998">
        <ele>172.234</ele>
        <time>2022-08-24T06:24:52Z</time>
      </trkpt>
      <trkpt lat="43.16166699999999" lon="-1.2389109999999999">
        <ele>172.276</ele>
        <time>2022-08-24T06:24:53Z</time>
      </trkpt>
      <trkpt lat="43.161650999999985" lon="-1.2389149999999998">
        <ele>172.243</ele>
        <time>2022-08-24T06:24:54Z</time>
      </trkpt>
      <trkpt lat="43.16163299999999" lon="-1.2389179999999997">
        <ele>172.466</ele>
        <time>2022-08-24T06:24:55Z</time>
      </trkpt>
      <trkpt lat="43.16161599999999" lon="-1.2389219999999996">
        <ele>172.650</ele>
        <time>2022-08-24T06:24:56Z</time>
      </trkpt>
      <trkpt lat="43.16160099999999" lon="-1.2389259999999995">
        <ele>172.859</ele>
        <time>2022-08-24T06:24:57Z</time>
      </trkpt>
      <trkpt lat="43.16158799999999" lon="-1.2389279999999996">
        <ele>173.056</ele>
        <time>2022-08-24T06:24:58Z</time>
      </trkpt>
      <trkpt lat="43.16157599999999" lon="-1.2389319999999995">
        <ele>173.259</ele>
        <time>2022-08-24T06:24:59Z</time>
      </trkpt>
      <trkpt lat="43.16156299999999" lon="-1.2389339999999995">
        <ele>173.614</ele>
        <time>2022-08-24T06:25:00Z</time>
      </trkpt>
      <trkpt lat="43.16154799999999" lon="-1.2389389999999996">
        <ele>173.809</ele>
        <time>2022-08-24T06:25:01Z</time>
      </trkpt>
      <trkpt lat="43.161475999999986" lon="-1.2389619999999997">
        <ele>174.826</ele>
        <time>2022-08-24T06:25:06Z</time>
      </trkpt>
      <trkpt lat="43.161461999999986" lon="-1.2389709999999996">
        <ele>175.036</ele>
        <time>2022-08-24T06:25:07Z</time>
      </trkpt>
      <trkpt lat="43.16144699999999" lon="-1.2389769999999996">
        <ele>175.476</ele>
        <time>2022-08-24T06:25:08Z</time>
      </trkpt>
      <trkpt lat="43.16143499999999" lon="-1.2389859999999995">
        <ele>175.822</ele>
        <time>2022-08-24T06:25:09Z</time>
      </trkpt>
      <trkpt lat="43.16141899999999" lon="-1.2389939999999995">
        <ele>175.834</ele>
        <time>2022-08-24T06:25:10Z</time>
      </trkpt>
      <trkpt lat="43.16140499999999" lon="-1.2390019999999995">
        <ele>176.261</ele>
        <time>2022-08-24T06:25:11Z</time>
      </trkpt>
      <trkpt lat="43.16139399999999" lon="-1.2390059999999994">
        <ele>176.254</ele>
        <time>2022-08-24T06:25:12Z</time>
      </trkpt>
      <trkpt lat="43.161385999999986" lon="-1.2390109999999994">
        <ele>176.488</ele>
        <time>2022-08-24T06:25:13Z</time>
      </trkpt>
      <trkpt lat="43.16137699999999" lon="-1.2390179999999995">
        <ele>176.627</ele>
        <time>2022-08-24T06:25:14Z</time>
      </trkpt>
      <trkpt lat="43.161366999999984" lon="-1.2390269999999994">
        <ele>176.883</ele>
        <time>2022-08-24T06:25:15Z</time>
      </trkpt>
      <trkpt lat="43.16135399999998" lon="-1.2390379999999994">
        <ele>177.025</ele>
        <time>2022-08-24T06:25:16Z</time>
      </trkpt>
      <trkpt lat="43.161338999999984" lon="-1.2390489999999994">
        <ele>177.217</ele>
        <time>2022-08-24T06:25:17Z</time>
      </trkpt>
      <trkpt lat="43.161323999999986" lon="-1.2390629999999994">
        <ele>177.209</ele>
        <time>2022-08-24T06:25:18Z</time>
      </trkpt>
      <trkpt lat="43.16130899999999" lon="-1.2390749999999993">
        <ele>177.429</ele>
        <time>2022-08-24T06:25:19Z</time>
      </trkpt>
      <trkpt lat="43.16129499999999" lon="-1.2390849999999993">
        <ele>177.699</ele>
        <time>2022-08-24T06:25:20Z</time>
      </trkpt>
      <trkpt lat="43.16128099999999" lon="-1.2390939999999993">
        <ele>177.859</ele>
        <time>2022-08-24T06:25:21Z</time>
      </trkpt>
      <trkpt lat="43.16126899999999" lon="-1.2391049999999992">
        <ele>178.225</ele>
        <time>2022-08-24T06:25:22Z</time>
      </trkpt>
      <trkpt lat="43.16125699999999" lon="-1.2391159999999992">
        <ele>178.447</ele>
        <time>2022-08-24T06:25:23Z</time>
      </trkpt>
      <trkpt lat="43.16124399999999" lon="-1.2391279999999991">
        <ele>178.484</ele>
        <time>2022-08-24T06:25:24Z</time>
      </trkpt>
      <trkpt lat="43.16123099999999" lon="-1.239139999999999">
        <ele>178.657</ele>
        <time>2022-08-24T06:25:25Z</time>
      </trkpt>
      <trkpt lat="43.16121599999999" lon="-1.239151999999999">
        <ele>178.671</ele>
        <time>2022-08-24T06:25:26Z</time>
      </trkpt>
      <trkpt lat="43.16120199999999" lon="-1.239167999999999">
        <ele>179.040</ele>
        <time>2022-08-24T06:25:27Z</time>
      </trkpt>
      <trkpt lat="43.16118999999999" lon="-1.239180999999999">
        <ele>179.055</ele>
        <time>2022-08-24T06:25:28Z</time>
      </trkpt>
      <trkpt lat="43.16118099999999" lon="-1.2391929999999989">
        <ele>179.207</ele>
        <time>2022-08-24T06:25:29Z</time>
      </trkpt>
      <trkpt lat="43.16117199999999" lon="-1.2392069999999988">
        <ele>179.417</ele>
        <time>2022-08-24T06:25:30Z</time>
      </trkpt>
      <trkpt lat="43.161159999999995" lon="-1.2392189999999987">
        <ele>179.609</ele>
        <time>2022-08-24T06:25:31Z</time>
      </trkpt>
      <trkpt lat="43.16114699999999" lon="-1.2392339999999988">
        <ele>179.666</ele>
        <time>2022-08-24T06:25:32Z</time>
      </trkpt>
      <trkpt lat="43.16113299999999" lon="-1.2392459999999987">
        <ele>179.886</ele>
        <time>2022-08-24T06:25:33Z</time>
      </trkpt>
      <trkpt lat="43.16111599999999" lon="-1.2392559999999988">
        <ele>179.846</ele>
        <time>2022-08-24T06:25:34Z</time>
      </trkpt>
      <trkpt lat="43.16110299999999" lon="-1.2392689999999988">
        <ele>180.022</ele>
        <time>2022-08-24T06:25:35Z</time>
      </trkpt>
      <trkpt lat="43.16108999999999" lon="-1.2392859999999988">
        <ele>180.034</ele>
        <time>2022-08-24T06:25:36Z</time>
      </trkpt>
      <trkpt lat="43.16107499999999" lon="-1.2393039999999989">
        <ele>180.221</ele>
        <time>2022-08-24T06:25:37Z</time>
      </trkpt>
      <trkpt lat="43.16105699999999" lon="-1.2393199999999989">
        <ele>180.284</ele>
        <time>2022-08-24T06:25:38Z</time>
      </trkpt>
      <trkpt lat="43.16103699999999" lon="-1.2393359999999989">
        <ele>180.418</ele>
        <time>2022-08-24T06:25:39Z</time>
      </trkpt>
      <trkpt lat="43.16101799999999" lon="-1.239351999999999">
        <ele>180.447</ele>
        <time>2022-08-24T06:25:40Z</time>
      </trkpt>
      <trkpt lat="43.16099899999999" lon="-1.239361999999999">
        <ele>180.645</ele>
        <time>2022-08-24T06:25:41Z</time>
      </trkpt>
      <trkpt lat="43.16098499999999" lon="-1.239371999999999">
        <ele>180.647</ele>
        <time>2022-08-24T06:25:42Z</time>
      </trkpt>
      <trkpt lat="43.16096299999999" lon="-1.2393869999999991">
        <ele>180.811</ele>
        <time>2022-08-24T06:25:43Z</time>
      </trkpt>
      <trkpt lat="43.160943999999986" lon="-1.239400999999999">
        <ele>180.809</ele>
        <time>2022-08-24T06:25:44Z</time>
      </trkpt>
      <trkpt lat="43.16092299999999" lon="-1.2394109999999992">
        <ele>180.825</ele>
        <time>2022-08-24T06:25:45Z</time>
      </trkpt>
      <trkpt lat="43.16090199999999" lon="-1.239416999999999">
        <ele>180.875</ele>
        <time>2022-08-24T06:25:46Z</time>
      </trkpt>
      <trkpt lat="43.16087999999999" lon="-1.239420999999999">
        <ele>181.085</ele>
        <time>2022-08-24T06:25:47Z</time>
      </trkpt>
      <trkpt lat="43.16085999999999" lon="-1.239422999999999">
        <ele>181.071</ele>
        <time>2022-08-24T06:25:48Z</time>
      </trkpt>
      <trkpt lat="43.160833999999994" lon="-1.2394189999999992">
        <ele>181.043</ele>
        <time>2022-08-24T06:25:49Z</time>
      </trkpt>
      <trkpt lat="43.160813999999995" lon="-1.2394099999999992">
        <ele>181.070</ele>
        <time>2022-08-24T06:25:50Z</time>
      </trkpt>
      <trkpt lat="43.16079499999999" lon="-1.2393979999999993">
        <ele>181.283</ele>
        <time>2022-08-24T06:25:51Z</time>
      </trkpt>
      <trkpt lat="43.16077299999999" lon="-1.2393859999999994">
        <ele>181.227</ele>
        <time>2022-08-24T06:25:52Z</time>
      </trkpt>
      <trkpt lat="43.16075099999999" lon="-1.2393699999999994">
        <ele>181.426</ele>
        <time>2022-08-24T06:25:53Z</time>
      </trkpt>
      <trkpt lat="43.16073099999999" lon="-1.2393489999999994">
        <ele>181.486</ele>
        <time>2022-08-24T06:25:54Z</time>
      </trkpt>
      <trkpt lat="43.16071899999999" lon="-1.2393249999999993">
        <ele>181.860</ele>
        <time>2022-08-24T06:25:55Z</time>
      </trkpt>
      <trkpt lat="43.16070599999999" lon="-1.2392979999999993">
        <ele>181.826</ele>
        <time>2022-08-24T06:25:56Z</time>
      </trkpt>
      <trkpt lat="43.16069799999999" lon="-1.2392669999999995">
        <ele>181.809</ele>
        <time>2022-08-24T06:25:57Z</time>
      </trkpt>
      <trkpt lat="43.16069399999999" lon="-1.2392339999999995">
        <ele>181.869</ele>
        <time>2022-08-24T06:25:58Z</time>
      </trkpt>
      <trkpt lat="43.160684999999994" lon="-1.2391999999999994">
        <ele>182.069</ele>
        <time>2022-08-24T06:25:59Z</time>
      </trkpt>
      <trkpt lat="43.160624999999996" lon="-1.2389869999999994">
        <ele>182.099</ele>
        <time>2022-08-24T06:26:05Z</time>
      </trkpt>
      <trkpt lat="43.160605" lon="-1.2389189999999994">
        <ele>182.035</ele>
        <time>2022-08-24T06:26:07Z</time>
      </trkpt>
      <trkpt lat="43.160576999999996" lon="-1.2388569999999994">
        <ele>182.097</ele>
        <time>2022-08-24T06:26:09Z</time>
      </trkpt>
      <trkpt lat="43.160554999999995" lon="-1.2387969999999995">
        <ele>181.884</ele>
        <time>2022-08-24T06:26:11Z</time>
      </trkpt>
      <trkpt lat="43.16054499999999" lon="-1.2387719999999995">
        <ele>181.877</ele>
        <time>2022-08-24T06:26:12Z</time>
      </trkpt>
      <trkpt lat="43.16051799999999" lon="-1.2386679999999994">
        <ele>181.831</ele>
        <time>2022-08-24T06:26:15Z</time>
      </trkpt>
      <trkpt lat="43.160507999999986" lon="-1.2386319999999995">
        <ele>181.860</ele>
        <time>2022-08-24T06:26:16Z</time>
      </trkpt>
      <trkpt lat="43.160482999999985" lon="-1.2385659999999996">
        <ele>181.875</ele>
        <time>2022-08-24T06:26:18Z</time>
      </trkpt>
      <trkpt lat="43.160471999999984" lon="-1.2385419999999996">
        <ele>181.828</ele>
        <time>2022-08-24T06:26:19Z</time>
      </trkpt>
      <trkpt lat="43.16045899999998" lon="-1.2385039999999996">
        <ele>181.820</ele>
        <time>2022-08-24T06:26:20Z</time>
      </trkpt>
      <trkpt lat="43.16041999999998" lon="-1.2384529999999996">
        <ele>182.009</ele>
        <time>2022-08-24T06:26:22Z</time>
      </trkpt>
      <trkpt lat="43.16039999999998" lon="-1.2384419999999996">
        <ele>182.018</ele>
        <time>2022-08-24T06:26:23Z</time>
      </trkpt>
      <trkpt lat="43.160367999999984" lon="-1.2384289999999996">
        <ele>182.018</ele>
        <time>2022-08-24T06:26:24Z</time>
      </trkpt>
      <trkpt lat="43.16034399999998" lon="-1.2384259999999996">
        <ele>182.028</ele>
        <time>2022-08-24T06:26:25Z</time>
      </trkpt>
      <trkpt lat="43.16031999999998" lon="-1.2384259999999996">
        <ele>182.034</ele>
        <time>2022-08-24T06:26:26Z</time>
      </trkpt>
      <trkpt lat="43.160300999999976" lon="-1.2384329999999997">
        <ele>182.286</ele>
        <time>2022-08-24T06:26:27Z</time>
      </trkpt>
      <trkpt lat="43.160278999999974" lon="-1.2384459999999997">
        <ele>182.243</ele>
        <time>2022-08-24T06:26:28Z</time>
      </trkpt>
      <trkpt lat="43.160258999999975" lon="-1.2384599999999997">
        <ele>182.436</ele>
        <time>2022-08-24T06:26:29Z</time>
      </trkpt>
      <trkpt lat="43.16019499999997" lon="-1.2385079999999997">
        <ele>182.630</ele>
        <time>2022-08-24T06:26:32Z</time>
      </trkpt>
      <trkpt lat="43.16017799999997" lon="-1.2385179999999998">
        <ele>182.659</ele>
        <time>2022-08-24T06:26:33Z</time>
      </trkpt>
      <trkpt lat="43.16015299999997" lon="-1.2385349999999997">
        <ele>182.689</ele>
        <time>2022-08-24T06:26:34Z</time>
      </trkpt>
      <trkpt lat="43.16011499999997" lon="-1.2385659999999996">
        <ele>182.806</ele>
        <time>2022-08-24T06:26:36Z</time>
      </trkpt>
      <trkpt lat="43.16009799999997" lon="-1.2385779999999995">
        <ele>183.026</ele>
        <time>2022-08-24T06:26:37Z</time>
      </trkpt>
      <trkpt lat="43.16008099999997" lon="-1.2385869999999994">
        <ele>183.009</ele>
        <time>2022-08-24T06:26:38Z</time>
      </trkpt>
      <trkpt lat="43.16005599999997" lon="-1.2385999999999995">
        <ele>183.259</ele>
        <time>2022-08-24T06:26:39Z</time>
      </trkpt>
      <trkpt lat="43.16003699999997" lon="-1.2386139999999994">
        <ele>183.279</ele>
        <time>2022-08-24T06:26:40Z</time>
      </trkpt>
      <trkpt lat="43.16001699999997" lon="-1.2386259999999993">
        <ele>183.429</ele>
        <time>2022-08-24T06:26:41Z</time>
      </trkpt>
      <trkpt lat="43.159899999999965" lon="-1.2387049999999993">
        <ele>184.255</ele>
        <time>2022-08-24T06:26:47Z</time>
      </trkpt>
      <trkpt lat="43.15987899999997" lon="-1.2387239999999993">
        <ele>184.457</ele>
        <time>2022-08-24T06:26:48Z</time>
      </trkpt>
      <trkpt lat="43.159862999999966" lon="-1.2387369999999993">
        <ele>184.424</ele>
        <time>2022-08-24T06:26:49Z</time>
      </trkpt>
      <trkpt lat="43.15982299999997" lon="-1.2387699999999993">
        <ele>184.827</ele>
        <time>2022-08-24T06:26:51Z</time>
      </trkpt>
      <trkpt lat="43.15980299999997" lon="-1.2387859999999993">
        <ele>185.011</ele>
        <time>2022-08-24T06:26:52Z</time>
      </trkpt>
      <trkpt lat="43.15978499999997" lon="-1.2388049999999993">
        <ele>185.070</ele>
        <time>2022-08-24T06:26:53Z</time>
      </trkpt>
      <trkpt lat="43.15976799999997" lon="-1.2388199999999994">
        <ele>185.245</ele>
        <time>2022-08-24T06:26:54Z</time>
      </trkpt>
      <trkpt lat="43.15974799999997" lon="-1.2388319999999993">
        <ele>185.447</ele>
        <time>2022-08-24T06:26:55Z</time>
      </trkpt>
      <trkpt lat="43.15972499999997" lon="-1.2388449999999993">
        <ele>185.611</ele>
        <time>2022-08-24T06:26:56Z</time>
      </trkpt>
      <trkpt lat="43.159706999999976" lon="-1.2388589999999993">
        <ele>186.009</ele>
        <time>2022-08-24T06:26:57Z</time>
      </trkpt>
      <trkpt lat="43.159690999999974" lon="-1.2388729999999992">
        <ele>186.095</ele>
        <time>2022-08-24T06:26:58Z</time>
      </trkpt>
      <trkpt lat="43.15967199999997" lon="-1.2388859999999993">
        <ele>186.435</ele>
        <time>2022-08-24T06:26:59Z</time>
      </trkpt>
      <trkpt lat="43.159653999999975" lon="-1.2388959999999993">
        <ele>186.445</ele>
        <time>2022-08-24T06:27:00Z</time>
      </trkpt>
      <trkpt lat="43.15963499999997" lon="-1.2389049999999993">
        <ele>186.821</ele>
        <time>2022-08-24T06:27:01Z</time>
      </trkpt>
      <trkpt lat="43.159616999999976" lon="-1.2389129999999993">
        <ele>187.013</ele>
        <time>2022-08-24T06:27:02Z</time>
      </trkpt>
      <trkpt lat="43.159600999999974" lon="-1.2389189999999992">
        <ele>187.250</ele>
        <time>2022-08-24T06:27:03Z</time>
      </trkpt>
      <trkpt lat="43.159577999999975" lon="-1.2389259999999993">
        <ele>187.453</ele>
        <time>2022-08-24T06:27:04Z</time>
      </trkpt>
      <trkpt lat="43.15955399999997" lon="-1.2389289999999993">
        <ele>187.837</ele>
        <time>2022-08-24T06:27:05Z</time>
      </trkpt>
      <trkpt lat="43.15953199999997" lon="-1.2389289999999993">
        <ele>188.276</ele>
        <time>2022-08-24T06:27:06Z</time>
      </trkpt>
      <trkpt lat="43.15950299999997" lon="-1.2389279999999994">
        <ele>188.272</ele>
        <time>2022-08-24T06:27:07Z</time>
      </trkpt>
      <trkpt lat="43.15947899999997" lon="-1.2389239999999995">
        <ele>188.613</ele>
        <time>2022-08-24T06:27:08Z</time>
      </trkpt>
      <trkpt lat="43.15946199999997" lon="-1.2389219999999994">
        <ele>188.814</ele>
        <time>2022-08-24T06:27:09Z</time>
      </trkpt>
      <trkpt lat="43.15943699999997" lon="-1.2389179999999995">
        <ele>189.009</ele>
        <time>2022-08-24T06:27:10Z</time>
      </trkpt>
      <trkpt lat="43.159412999999965" lon="-1.2389149999999995">
        <ele>189.268</ele>
        <time>2022-08-24T06:27:11Z</time>
      </trkpt>
      <trkpt lat="43.159389999999966" lon="-1.2389149999999995">
        <ele>189.258</ele>
        <time>2022-08-24T06:27:12Z</time>
      </trkpt>
      <trkpt lat="43.159364999999966" lon="-1.2389119999999996">
        <ele>189.428</ele>
        <time>2022-08-24T06:27:13Z</time>
      </trkpt>
      <trkpt lat="43.159347999999966" lon="-1.2389039999999996">
        <ele>189.624</ele>
        <time>2022-08-24T06:27:14Z</time>
      </trkpt>
      <trkpt lat="43.15932799999997" lon="-1.2388969999999995">
        <ele>189.896</ele>
        <time>2022-08-24T06:27:15Z</time>
      </trkpt>
      <trkpt lat="43.159302999999966" lon="-1.2388919999999994">
        <ele>190.253</ele>
        <time>2022-08-24T06:27:16Z</time>
      </trkpt>
      <trkpt lat="43.15928299999997" lon="-1.2388879999999995">
        <ele>190.256</ele>
        <time>2022-08-24T06:27:17Z</time>
      </trkpt>
      <trkpt lat="43.159260999999965" lon="-1.2388849999999996">
        <ele>190.480</ele>
        <time>2022-08-24T06:27:18Z</time>
      </trkpt>
      <trkpt lat="43.159235999999964" lon="-1.2388839999999997">
        <ele>190.439</ele>
        <time>2022-08-24T06:27:19Z</time>
      </trkpt>
      <trkpt lat="43.159215999999965" lon="-1.2388859999999997">
        <ele>190.426</ele>
        <time>2022-08-24T06:27:20Z</time>
      </trkpt>
      <trkpt lat="43.15918899999996" lon="-1.2388859999999997">
        <ele>190.647</ele>
        <time>2022-08-24T06:27:21Z</time>
      </trkpt>
      <trkpt lat="43.15915899999996" lon="-1.2388859999999997">
        <ele>190.811</ele>
        <time>2022-08-24T06:27:22Z</time>
      </trkpt>
      <trkpt lat="43.15913499999996" lon="-1.2388879999999998">
        <ele>190.809</ele>
        <time>2022-08-24T06:27:23Z</time>
      </trkpt>
      <trkpt lat="43.159112999999955" lon="-1.2388929999999998">
        <ele>191.283</ele>
        <time>2022-08-24T06:27:24Z</time>
      </trkpt>
      <trkpt lat="43.15909499999996" lon="-1.2389">
        <ele>191.653</ele>
        <time>2022-08-24T06:27:25Z</time>
      </trkpt>
      <trkpt lat="43.15908299999996" lon="-1.2389039999999998">
        <ele>191.633</ele>
        <time>2022-08-24T06:27:26Z</time>
      </trkpt>
      <trkpt lat="43.15906299999996" lon="-1.2389119999999998">
        <ele>192.079</ele>
        <time>2022-08-24T06:27:27Z</time>
      </trkpt>
      <trkpt lat="43.15904699999996" lon="-1.2389219999999999">
        <ele>192.251</ele>
        <time>2022-08-24T06:27:28Z</time>
      </trkpt>
      <trkpt lat="43.15902799999996" lon="-1.2389339999999998">
        <ele>192.468</ele>
        <time>2022-08-24T06:27:29Z</time>
      </trkpt>
      <trkpt lat="43.159008999999955" lon="-1.2389469999999998">
        <ele>192.641</ele>
        <time>2022-08-24T06:27:30Z</time>
      </trkpt>
      <trkpt lat="43.15899099999996" lon="-1.2389579999999998">
        <ele>192.695</ele>
        <time>2022-08-24T06:27:31Z</time>
      </trkpt>
      <trkpt lat="43.158974999999955" lon="-1.2389709999999998">
        <ele>192.864</ele>
        <time>2022-08-24T06:27:32Z</time>
      </trkpt>
      <trkpt lat="43.158955999999954" lon="-1.238986">
        <ele>193.043</ele>
        <time>2022-08-24T06:27:33Z</time>
      </trkpt>
      <trkpt lat="43.15894199999995" lon="-1.2389979999999998">
        <ele>193.064</ele>
        <time>2022-08-24T06:27:34Z</time>
      </trkpt>
      <trkpt lat="43.158929999999955" lon="-1.2390109999999999">
        <ele>193.210</ele>
        <time>2022-08-24T06:27:35Z</time>
      </trkpt>
      <trkpt lat="43.158918999999955" lon="-1.2390219999999998">
        <ele>193.609</ele>
        <time>2022-08-24T06:27:36Z</time>
      </trkpt>
      <trkpt lat="43.158904999999955" lon="-1.2390389999999998">
        <ele>193.895</ele>
        <time>2022-08-24T06:27:37Z</time>
      </trkpt>
      <trkpt lat="43.15889199999995" lon="-1.2390509999999997">
        <ele>194.235</ele>
        <time>2022-08-24T06:27:38Z</time>
      </trkpt>
      <trkpt lat="43.15887499999995" lon="-1.2390639999999997">
        <ele>194.445</ele>
        <time>2022-08-24T06:27:39Z</time>
      </trkpt>
      <trkpt lat="43.15886499999995" lon="-1.2390749999999997">
        <ele>194.431</ele>
        <time>2022-08-24T06:27:40Z</time>
      </trkpt>
      <trkpt lat="43.15884999999995" lon="-1.2390849999999998">
        <ele>194.893</ele>
        <time>2022-08-24T06:27:41Z</time>
      </trkpt>
      <trkpt lat="43.15883299999995" lon="-1.2390939999999997">
        <ele>195.070</ele>
        <time>2022-08-24T06:27:42Z</time>
      </trkpt>
      <trkpt lat="43.15881599999995" lon="-1.2391079999999997">
        <ele>195.233</ele>
        <time>2022-08-24T06:27:43Z</time>
      </trkpt>
      <trkpt lat="43.158800999999954" lon="-1.2391219999999996">
        <ele>195.477</ele>
        <time>2022-08-24T06:27:44Z</time>
      </trkpt>
      <trkpt lat="43.158788999999956" lon="-1.2391339999999995">
        <ele>195.676</ele>
        <time>2022-08-24T06:27:45Z</time>
      </trkpt>
      <trkpt lat="43.158777999999955" lon="-1.2391439999999996">
        <ele>195.847</ele>
        <time>2022-08-24T06:27:46Z</time>
      </trkpt>
      <trkpt lat="43.15875999999996" lon="-1.2391599999999996">
        <ele>196.029</ele>
        <time>2022-08-24T06:27:47Z</time>
      </trkpt>
      <trkpt lat="43.15874299999996" lon="-1.2391709999999996">
        <ele>196.421</ele>
        <time>2022-08-24T06:27:48Z</time>
      </trkpt>
      <trkpt lat="43.15872499999996" lon="-1.2391839999999996">
        <ele>196.609</ele>
        <time>2022-08-24T06:27:49Z</time>
      </trkpt>
      <trkpt lat="43.15871199999996" lon="-1.2391909999999997">
        <ele>197.045</ele>
        <time>2022-08-24T06:27:50Z</time>
      </trkpt>
      <trkpt lat="43.158695999999956" lon="-1.2392049999999997">
        <ele>197.025</ele>
        <time>2022-08-24T06:27:51Z</time>
      </trkpt>
      <trkpt lat="43.158679999999954" lon="-1.2392149999999997">
        <ele>197.475</ele>
        <time>2022-08-24T06:27:52Z</time>
      </trkpt>
      <trkpt lat="43.15865899999996" lon="-1.2392269999999996">
        <ele>197.431</ele>
        <time>2022-08-24T06:27:53Z</time>
      </trkpt>
      <trkpt lat="43.158642999999955" lon="-1.2392419999999997">
        <ele>197.853</ele>
        <time>2022-08-24T06:27:54Z</time>
      </trkpt>
      <trkpt lat="43.158628999999955" lon="-1.2392549999999998">
        <ele>198.240</ele>
        <time>2022-08-24T06:27:55Z</time>
      </trkpt>
      <trkpt lat="43.15861699999996" lon="-1.2392659999999998">
        <ele>198.433</ele>
        <time>2022-08-24T06:27:56Z</time>
      </trkpt>
      <trkpt lat="43.15860199999996" lon="-1.2392759999999998">
        <ele>198.867</ele>
        <time>2022-08-24T06:27:57Z</time>
      </trkpt>
      <trkpt lat="43.15858699999996" lon="-1.2392899999999998">
        <ele>198.836</ele>
        <time>2022-08-24T06:27:58Z</time>
      </trkpt>
      <trkpt lat="43.15857499999996" lon="-1.2393029999999998">
        <ele>199.232</ele>
        <time>2022-08-24T06:27:59Z</time>
      </trkpt>
      <trkpt lat="43.158562999999965" lon="-1.239318">
        <ele>199.492</ele>
        <time>2022-08-24T06:28:00Z</time>
      </trkpt>
      <trkpt lat="43.15855099999997" lon="-1.2393299999999998">
        <ele>199.811</ele>
        <time>2022-08-24T06:28:01Z</time>
      </trkpt>
      <trkpt lat="43.158537999999965" lon="-1.2393409999999998">
        <ele>200.209</ele>
        <time>2022-08-24T06:28:02Z</time>
      </trkpt>
      <trkpt lat="43.158520999999965" lon="-1.2393569999999998">
        <ele>200.484</ele>
        <time>2022-08-24T06:28:03Z</time>
      </trkpt>
      <trkpt lat="43.15850899999997" lon="-1.2393729999999998">
        <ele>200.624</ele>
        <time>2022-08-24T06:28:04Z</time>
      </trkpt>
      <trkpt lat="43.158492999999964" lon="-1.2393859999999999">
        <ele>200.844</ele>
        <time>2022-08-24T06:28:05Z</time>
      </trkpt>
      <trkpt lat="43.15847699999996" lon="-1.2393949999999998">
        <ele>201.250</ele>
        <time>2022-08-24T06:28:06Z</time>
      </trkpt>
      <trkpt lat="43.15846399999996" lon="-1.2393989999999997">
        <ele>201.272</ele>
        <time>2022-08-24T06:28:07Z</time>
      </trkpt>
      <trkpt lat="43.15844499999996" lon="-1.2394079999999996">
        <ele>201.619</ele>
        <time>2022-08-24T06:28:08Z</time>
      </trkpt>
      <trkpt lat="43.15843099999996" lon="-1.2394179999999997">
        <ele>202.092</ele>
        <time>2022-08-24T06:28:09Z</time>
      </trkpt>
      <trkpt lat="43.158414999999955" lon="-1.2394289999999997">
        <ele>202.236</ele>
        <time>2022-08-24T06:28:10Z</time>
      </trkpt>
      <trkpt lat="43.15839899999995" lon="-1.2394349999999996">
        <ele>202.455</ele>
        <time>2022-08-24T06:28:11Z</time>
      </trkpt>
      <trkpt lat="43.158380999999956" lon="-1.2394399999999997">
        <ele>202.629</ele>
        <time>2022-08-24T06:28:12Z</time>
      </trkpt>
      <trkpt lat="43.15836599999996" lon="-1.2394399999999997">
        <ele>203.000</ele>
        <time>2022-08-24T06:28:13Z</time>
      </trkpt>
      <trkpt lat="43.15835199999996" lon="-1.2394459999999996">
        <ele>203.220</ele>
        <time>2022-08-24T06:28:14Z</time>
      </trkpt>
      <trkpt lat="43.158335999999956" lon="-1.2394549999999995">
        <ele>203.609</ele>
        <time>2022-08-24T06:28:15Z</time>
      </trkpt>
      <trkpt lat="43.158316999999954" lon="-1.2394609999999995">
        <ele>203.833</ele>
        <time>2022-08-24T06:28:16Z</time>
      </trkpt>
      <trkpt lat="43.158301999999956" lon="-1.2394659999999995">
        <ele>204.493</ele>
        <time>2022-08-24T06:28:17Z</time>
      </trkpt>
      <trkpt lat="43.15828499999996" lon="-1.2394699999999994">
        <ele>204.673</ele>
        <time>2022-08-24T06:28:18Z</time>
      </trkpt>
      <trkpt lat="43.158273999999956" lon="-1.2394749999999994">
        <ele>204.889</ele>
        <time>2022-08-24T06:28:19Z</time>
      </trkpt>
      <trkpt lat="43.158256999999956" lon="-1.2394779999999994">
        <ele>205.281</ele>
        <time>2022-08-24T06:28:20Z</time>
      </trkpt>
      <trkpt lat="43.15823999999996" lon="-1.2394779999999994">
        <ele>205.488</ele>
        <time>2022-08-24T06:28:21Z</time>
      </trkpt>
      <trkpt lat="43.15822799999996" lon="-1.2394769999999995">
        <ele>205.811</ele>
        <time>2022-08-24T06:28:22Z</time>
      </trkpt>
      <trkpt lat="43.15821399999996" lon="-1.2394739999999995">
        <ele>206.045</ele>
        <time>2022-08-24T06:28:23Z</time>
      </trkpt>
      <trkpt lat="43.15819999999996" lon="-1.2394729999999996">
        <ele>206.294</ele>
        <time>2022-08-24T06:28:24Z</time>
      </trkpt>
      <trkpt lat="43.158186999999955" lon="-1.2394789999999996">
        <ele>206.668</ele>
        <time>2022-08-24T06:28:25Z</time>
      </trkpt>
      <trkpt lat="43.158178999999954" lon="-1.2394839999999996">
        <ele>206.842</ele>
        <time>2022-08-24T06:28:26Z</time>
      </trkpt>
      <trkpt lat="43.158167999999954" lon="-1.2394899999999995">
        <ele>207.226</ele>
        <time>2022-08-24T06:28:27Z</time>
      </trkpt>
      <trkpt lat="43.15815799999995" lon="-1.2394919999999996">
        <ele>207.409</ele>
        <time>2022-08-24T06:28:28Z</time>
      </trkpt>
      <trkpt lat="43.15814299999995" lon="-1.2394919999999996">
        <ele>207.837</ele>
        <time>2022-08-24T06:28:29Z</time>
      </trkpt>
      <trkpt lat="43.158130999999955" lon="-1.2394899999999995">
        <ele>207.857</ele>
        <time>2022-08-24T06:28:30Z</time>
      </trkpt>
      <trkpt lat="43.15811599999996" lon="-1.2394839999999996">
        <ele>208.277</ele>
        <time>2022-08-24T06:28:31Z</time>
      </trkpt>
      <trkpt lat="43.158104999999956" lon="-1.2394839999999996">
        <ele>208.453</ele>
        <time>2022-08-24T06:28:32Z</time>
      </trkpt>
      <trkpt lat="43.15808999999996" lon="-1.2394859999999996">
        <ele>208.695</ele>
        <time>2022-08-24T06:28:33Z</time>
      </trkpt>
      <trkpt lat="43.15807799999996" lon="-1.2394869999999996">
        <ele>209.082</ele>
        <time>2022-08-24T06:28:34Z</time>
      </trkpt>
      <trkpt lat="43.15806699999996" lon="-1.2394879999999995">
        <ele>209.285</ele>
        <time>2022-08-24T06:28:35Z</time>
      </trkpt>
      <trkpt lat="43.15805599999996" lon="-1.2394889999999994">
        <ele>209.629</ele>
        <time>2022-08-24T06:28:36Z</time>
      </trkpt>
      <trkpt lat="43.15804899999996" lon="-1.2394909999999995">
        <ele>209.858</ele>
        <time>2022-08-24T06:28:37Z</time>
      </trkpt>
      <trkpt lat="43.15803799999996" lon="-1.2394949999999993">
        <ele>210.276</ele>
        <time>2022-08-24T06:28:38Z</time>
      </trkpt>
      <trkpt lat="43.158025999999964" lon="-1.2394979999999993">
        <ele>210.490</ele>
        <time>2022-08-24T06:28:39Z</time>
      </trkpt>
      <trkpt lat="43.15801499999996" lon="-1.2394989999999992">
        <ele>210.819</ele>
        <time>2022-08-24T06:28:40Z</time>
      </trkpt>
      <trkpt lat="43.15800499999996" lon="-1.2394979999999993">
        <ele>211.009</ele>
        <time>2022-08-24T06:28:41Z</time>
      </trkpt>
      <trkpt lat="43.15799699999996" lon="-1.2394969999999994">
        <ele>211.048</ele>
        <time>2022-08-24T06:28:42Z</time>
      </trkpt>
      <trkpt lat="43.15798499999996" lon="-1.2394959999999995">
        <ele>211.498</ele>
        <time>2022-08-24T06:28:43Z</time>
      </trkpt>
      <trkpt lat="43.15797699999996" lon="-1.2394909999999995">
        <ele>211.698</ele>
        <time>2022-08-24T06:28:44Z</time>
      </trkpt>
      <trkpt lat="43.15796899999996" lon="-1.2394869999999996">
        <ele>212.044</ele>
        <time>2022-08-24T06:28:45Z</time>
      </trkpt>
      <trkpt lat="43.15796099999996" lon="-1.2394879999999995">
        <ele>212.276</ele>
        <time>2022-08-24T06:28:46Z</time>
      </trkpt>
      <trkpt lat="43.157950999999954" lon="-1.2394919999999994">
        <ele>212.263</ele>
        <time>2022-08-24T06:28:47Z</time>
      </trkpt>
      <trkpt lat="43.157944999999955" lon="-1.2394959999999993">
        <ele>212.886</ele>
        <time>2022-08-24T06:28:48Z</time>
      </trkpt>
      <trkpt lat="43.15792999999996" lon="-1.2395019999999992">
        <ele>213.060</ele>
        <time>2022-08-24T06:28:49Z</time>
      </trkpt>
      <trkpt lat="43.157919999999955" lon="-1.2395049999999992">
        <ele>213.049</ele>
        <time>2022-08-24T06:28:50Z</time>
      </trkpt>
      <trkpt lat="43.157908999999954" lon="-1.2395109999999991">
        <ele>213.495</ele>
        <time>2022-08-24T06:28:51Z</time>
      </trkpt>
      <trkpt lat="43.15789799999995" lon="-1.2395159999999992">
        <ele>213.649</ele>
        <time>2022-08-24T06:28:52Z</time>
      </trkpt>
      <trkpt lat="43.157882999999956" lon="-1.2395239999999992">
        <ele>213.623</ele>
        <time>2022-08-24T06:28:53Z</time>
      </trkpt>
      <trkpt lat="43.15786799999996" lon="-1.2395309999999993">
        <ele>214.209</ele>
        <time>2022-08-24T06:28:54Z</time>
      </trkpt>
      <trkpt lat="43.157854999999955" lon="-1.2395389999999993">
        <ele>214.620</ele>
        <time>2022-08-24T06:28:55Z</time>
      </trkpt>
      <trkpt lat="43.157843999999955" lon="-1.2395419999999993">
        <ele>214.620</ele>
        <time>2022-08-24T06:28:56Z</time>
      </trkpt>
      <trkpt lat="43.15782899999996" lon="-1.2395419999999993">
        <ele>214.830</ele>
        <time>2022-08-24T06:28:57Z</time>
      </trkpt>
      <trkpt lat="43.15781499999996" lon="-1.2395399999999992">
        <ele>214.876</ele>
        <time>2022-08-24T06:28:58Z</time>
      </trkpt>
      <trkpt lat="43.15780099999996" lon="-1.2395449999999992">
        <ele>215.488</ele>
        <time>2022-08-24T06:28:59Z</time>
      </trkpt>
      <trkpt lat="43.157786999999956" lon="-1.2395449999999992">
        <ele>215.495</ele>
        <time>2022-08-24T06:29:00Z</time>
      </trkpt>
      <trkpt lat="43.157775999999956" lon="-1.2395459999999991">
        <ele>215.648</ele>
        <time>2022-08-24T06:29:01Z</time>
      </trkpt>
      <trkpt lat="43.15776399999996" lon="-1.2395429999999992">
        <ele>216.242</ele>
        <time>2022-08-24T06:29:02Z</time>
      </trkpt>
      <trkpt lat="43.157750999999955" lon="-1.2395479999999992">
        <ele>216.251</ele>
        <time>2022-08-24T06:29:03Z</time>
      </trkpt>
      <trkpt lat="43.157736999999955" lon="-1.239551999999999">
        <ele>216.653</ele>
        <time>2022-08-24T06:29:04Z</time>
      </trkpt>
      <trkpt lat="43.15772499999996" lon="-1.239555999999999">
        <ele>216.804</ele>
        <time>2022-08-24T06:29:05Z</time>
      </trkpt>
      <trkpt lat="43.157710999999956" lon="-1.239558999999999">
        <ele>216.814</ele>
        <time>2022-08-24T06:29:06Z</time>
      </trkpt>
      <trkpt lat="43.157694999999954" lon="-1.239561999999999">
        <ele>217.209</ele>
        <time>2022-08-24T06:29:07Z</time>
      </trkpt>
      <trkpt lat="43.15768499999995" lon="-1.2395629999999989">
        <ele>217.426</ele>
        <time>2022-08-24T06:29:08Z</time>
      </trkpt>
      <trkpt lat="43.15766999999995" lon="-1.2395669999999988">
        <ele>217.426</ele>
        <time>2022-08-24T06:29:09Z</time>
      </trkpt>
      <trkpt lat="43.157651999999956" lon="-1.2395699999999987">
        <ele>218.066</ele>
        <time>2022-08-24T06:29:10Z</time>
      </trkpt>
      <trkpt lat="43.15763899999995" lon="-1.2395709999999986">
        <ele>218.252</ele>
        <time>2022-08-24T06:29:11Z</time>
      </trkpt>
      <trkpt lat="43.15762499999995" lon="-1.2395689999999986">
        <ele>218.294</ele>
        <time>2022-08-24T06:29:12Z</time>
      </trkpt>
      <trkpt lat="43.15761199999995" lon="-1.2395689999999986">
        <ele>218.681</ele>
        <time>2022-08-24T06:29:13Z</time>
      </trkpt>
      <trkpt lat="43.15760199999995" lon="-1.2395729999999985">
        <ele>218.824</ele>
        <time>2022-08-24T06:29:14Z</time>
      </trkpt>
      <trkpt lat="43.15759099999995" lon="-1.2395809999999985">
        <ele>219.458</ele>
        <time>2022-08-24T06:29:15Z</time>
      </trkpt>
      <trkpt lat="43.15757899999995" lon="-1.2395889999999985">
        <ele>219.657</ele>
        <time>2022-08-24T06:29:16Z</time>
      </trkpt>
      <trkpt lat="43.157565999999946" lon="-1.2395959999999986">
        <ele>220.072</ele>
        <time>2022-08-24T06:29:17Z</time>
      </trkpt>
      <trkpt lat="43.15755599999994" lon="-1.2396039999999986">
        <ele>220.413</ele>
        <time>2022-08-24T06:29:18Z</time>
      </trkpt>
      <trkpt lat="43.15754599999994" lon="-1.2396119999999986">
        <ele>220.414</ele>
        <time>2022-08-24T06:29:19Z</time>
      </trkpt>
      <trkpt lat="43.15753499999994" lon="-1.2396149999999986">
        <ele>220.609</ele>
        <time>2022-08-24T06:29:20Z</time>
      </trkpt>
      <trkpt lat="43.15752399999994" lon="-1.2396189999999985">
        <ele>220.898</ele>
        <time>2022-08-24T06:29:21Z</time>
      </trkpt>
      <trkpt lat="43.15751599999994" lon="-1.2396239999999985">
        <ele>221.258</ele>
        <time>2022-08-24T06:29:22Z</time>
      </trkpt>
      <trkpt lat="43.15750899999994" lon="-1.2396359999999984">
        <ele>221.438</ele>
        <time>2022-08-24T06:29:23Z</time>
      </trkpt>
      <trkpt lat="43.15750399999994" lon="-1.2396469999999984">
        <ele>221.874</ele>
        <time>2022-08-24T06:29:24Z</time>
      </trkpt>
      <trkpt lat="43.15749499999994" lon="-1.2396619999999985">
        <ele>222.076</ele>
        <time>2022-08-24T06:29:25Z</time>
      </trkpt>
      <trkpt lat="43.157487999999944" lon="-1.2396719999999986">
        <ele>222.013</ele>
        <time>2022-08-24T06:29:26Z</time>
      </trkpt>
      <trkpt lat="43.157481999999945" lon="-1.2396809999999985">
        <ele>222.236</ele>
        <time>2022-08-24T06:29:27Z</time>
      </trkpt>
      <trkpt lat="43.15747799999995" lon="-1.2396879999999986">
        <ele>222.270</ele>
        <time>2022-08-24T06:29:28Z</time>
      </trkpt>
      <trkpt lat="43.15747099999995" lon="-1.2396949999999987">
        <ele>222.619</ele>
        <time>2022-08-24T06:29:29Z</time>
      </trkpt>
      <trkpt lat="43.15746099999995" lon="-1.2397049999999987">
        <ele>222.853</ele>
        <time>2022-08-24T06:29:30Z</time>
      </trkpt>
      <trkpt lat="43.15745199999995" lon="-1.2397139999999987">
        <ele>223.004</ele>
        <time>2022-08-24T06:29:31Z</time>
      </trkpt>
      <trkpt lat="43.15744299999995" lon="-1.2397219999999987">
        <ele>223.214</ele>
        <time>2022-08-24T06:29:32Z</time>
      </trkpt>
      <trkpt lat="43.157435999999954" lon="-1.2397299999999987">
        <ele>223.209</ele>
        <time>2022-08-24T06:29:33Z</time>
      </trkpt>
      <trkpt lat="43.157424999999954" lon="-1.2397409999999986">
        <ele>223.466</ele>
        <time>2022-08-24T06:29:34Z</time>
      </trkpt>
      <trkpt lat="43.15742099999996" lon="-1.2397489999999987">
        <ele>223.436</ele>
        <time>2022-08-24T06:29:35Z</time>
      </trkpt>
      <trkpt lat="43.15741699999996" lon="-1.2397589999999987">
        <ele>223.856</ele>
        <time>2022-08-24T06:29:36Z</time>
      </trkpt>
      <trkpt lat="43.15741199999996" lon="-1.2397579999999988">
        <ele>224.042</ele>
        <time>2022-08-24T06:29:38Z</time>
      </trkpt>
      <trkpt lat="43.15740899999996" lon="-1.2397609999999988">
        <ele>224.224</ele>
        <time>2022-08-24T06:29:39Z</time>
      </trkpt>
      <trkpt lat="43.15740199999996" lon="-1.2397649999999987">
        <ele>224.431</ele>
        <time>2022-08-24T06:29:40Z</time>
      </trkpt>
      <trkpt lat="43.15739099999996" lon="-1.2397679999999986">
        <ele>224.414</ele>
        <time>2022-08-24T06:29:41Z</time>
      </trkpt>
      <trkpt lat="43.15738199999996" lon="-1.2397689999999986">
        <ele>224.628</ele>
        <time>2022-08-24T06:29:42Z</time>
      </trkpt>
      <trkpt lat="43.157369999999965" lon="-1.2397709999999986">
        <ele>224.637</ele>
        <time>2022-08-24T06:29:43Z</time>
      </trkpt>
      <trkpt lat="43.157358999999964" lon="-1.2397749999999985">
        <ele>224.663</ele>
        <time>2022-08-24T06:29:44Z</time>
      </trkpt>
      <trkpt lat="43.157344999999964" lon="-1.2397779999999985">
        <ele>224.844</ele>
        <time>2022-08-24T06:29:45Z</time>
      </trkpt>
      <trkpt lat="43.157327999999964" lon="-1.2397809999999985">
        <ele>224.818</ele>
        <time>2022-08-24T06:29:46Z</time>
      </trkpt>
      <trkpt lat="43.157315999999966" lon="-1.2397859999999985">
        <ele>225.009</ele>
        <time>2022-08-24T06:29:47Z</time>
      </trkpt>
      <trkpt lat="43.15730399999997" lon="-1.2397929999999986">
        <ele>225.067</ele>
        <time>2022-08-24T06:29:48Z</time>
      </trkpt>
      <trkpt lat="43.15729199999997" lon="-1.2397959999999986">
        <ele>225.247</ele>
        <time>2022-08-24T06:29:49Z</time>
      </trkpt>
      <trkpt lat="43.15727899999997" lon="-1.2397979999999986">
        <ele>225.437</ele>
        <time>2022-08-24T06:29:50Z</time>
      </trkpt>
      <trkpt lat="43.157265999999964" lon="-1.2397969999999987">
        <ele>225.623</ele>
        <time>2022-08-24T06:29:51Z</time>
      </trkpt>
      <trkpt lat="43.157256999999966" lon="-1.2397969999999987">
        <ele>225.825</ele>
        <time>2022-08-24T06:29:52Z</time>
      </trkpt>
      <trkpt lat="43.157248999999965" lon="-1.2397969999999987">
        <ele>225.852</ele>
        <time>2022-08-24T06:29:53Z</time>
      </trkpt>
      <trkpt lat="43.157237999999964" lon="-1.2397979999999986">
        <ele>225.855</ele>
        <time>2022-08-24T06:29:54Z</time>
      </trkpt>
      <trkpt lat="43.15722799999996" lon="-1.2398029999999987">
        <ele>226.029</ele>
        <time>2022-08-24T06:29:55Z</time>
      </trkpt>
      <trkpt lat="43.15721699999996" lon="-1.2398129999999987">
        <ele>226.098</ele>
        <time>2022-08-24T06:29:56Z</time>
      </trkpt>
      <trkpt lat="43.15720599999996" lon="-1.2398159999999987">
        <ele>226.294</ele>
        <time>2022-08-24T06:29:57Z</time>
      </trkpt>
      <trkpt lat="43.15719899999996" lon="-1.2398189999999987">
        <ele>226.257</ele>
        <time>2022-08-24T06:29:58Z</time>
      </trkpt>
      <trkpt lat="43.157186999999965" lon="-1.2398279999999986">
        <ele>226.222</ele>
        <time>2022-08-24T06:29:59Z</time>
      </trkpt>
      <trkpt lat="43.157178999999964" lon="-1.2398349999999987">
        <ele>226.409</ele>
        <time>2022-08-24T06:30:00Z</time>
      </trkpt>
      <trkpt lat="43.15717099999996" lon="-1.2398379999999987">
        <ele>226.670</ele>
        <time>2022-08-24T06:30:01Z</time>
      </trkpt>
      <trkpt lat="43.15715999999996" lon="-1.2398409999999986">
        <ele>226.670</ele>
        <time>2022-08-24T06:30:02Z</time>
      </trkpt>
      <trkpt lat="43.157147999999964" lon="-1.2398479999999987">
        <ele>226.670</ele>
        <time>2022-08-24T06:30:03Z</time>
      </trkpt>
      <trkpt lat="43.15713699999996" lon="-1.2398529999999988">
        <ele>226.816</ele>
        <time>2022-08-24T06:30:04Z</time>
      </trkpt>
      <trkpt lat="43.15712599999996" lon="-1.2398539999999987">
        <ele>226.858</ele>
        <time>2022-08-24T06:30:05Z</time>
      </trkpt>
      <trkpt lat="43.15711599999996" lon="-1.2398539999999987">
        <ele>226.845</ele>
        <time>2022-08-24T06:30:06Z</time>
      </trkpt>
      <trkpt lat="43.157105999999956" lon="-1.2398549999999986">
        <ele>226.848</ele>
        <time>2022-08-24T06:30:07Z</time>
      </trkpt>
      <trkpt lat="43.15709599999995" lon="-1.2398539999999987">
        <ele>226.852</ele>
        <time>2022-08-24T06:30:08Z</time>
      </trkpt>
      <trkpt lat="43.157086999999954" lon="-1.2398579999999986">
        <ele>226.831</ele>
        <time>2022-08-24T06:30:09Z</time>
      </trkpt>
      <trkpt lat="43.157077999999956" lon="-1.2398649999999987">
        <ele>226.811</ele>
        <time>2022-08-24T06:30:10Z</time>
      </trkpt>
      <trkpt lat="43.157069999999955" lon="-1.2398749999999987">
        <ele>226.821</ele>
        <time>2022-08-24T06:30:11Z</time>
      </trkpt>
      <trkpt lat="43.15705399999995" lon="-1.2398829999999987">
        <ele>226.803</ele>
        <time>2022-08-24T06:30:12Z</time>
      </trkpt>
      <trkpt lat="43.157041999999954" lon="-1.2398849999999988">
        <ele>226.809</ele>
        <time>2022-08-24T06:30:13Z</time>
      </trkpt>
      <trkpt lat="43.15702599999995" lon="-1.2398829999999987">
        <ele>226.872</ele>
        <time>2022-08-24T06:30:14Z</time>
      </trkpt>
      <trkpt lat="43.157013999999954" lon="-1.2398819999999988">
        <ele>227.022</ele>
        <time>2022-08-24T06:30:15Z</time>
      </trkpt>
      <trkpt lat="43.156993999999955" lon="-1.2398819999999988">
        <ele>227.092</ele>
        <time>2022-08-24T06:30:16Z</time>
      </trkpt>
      <trkpt lat="43.156962999999955" lon="-1.2398919999999989">
        <ele>227.028</ele>
        <time>2022-08-24T06:30:18Z</time>
      </trkpt>
      <trkpt lat="43.156951999999954" lon="-1.239896999999999">
        <ele>227.040</ele>
        <time>2022-08-24T06:30:19Z</time>
      </trkpt>
      <trkpt lat="43.156942999999956" lon="-1.239903999999999">
        <ele>227.047</ele>
        <time>2022-08-24T06:30:20Z</time>
      </trkpt>
      <trkpt lat="43.15691099999996" lon="-1.239917999999999">
        <ele>227.070</ele>
        <time>2022-08-24T06:30:23Z</time>
      </trkpt>
      <trkpt lat="43.15684799999996" lon="-1.2399379999999989">
        <ele>227.214</ele>
        <time>2022-08-24T06:30:27Z</time>
      </trkpt>
      <trkpt lat="43.15681499999996" lon="-1.239961999999999">
        <ele>227.273</ele>
        <time>2022-08-24T06:30:30Z</time>
      </trkpt>
      <trkpt lat="43.15673999999996" lon="-1.2399899999999988">
        <ele>227.498</ele>
        <time>2022-08-24T06:30:34Z</time>
      </trkpt>
      <trkpt lat="43.15672499999996" lon="-1.239996999999999">
        <ele>227.415</ele>
        <time>2022-08-24T06:30:35Z</time>
      </trkpt>
      <trkpt lat="43.15670699999996" lon="-1.240004999999999">
        <ele>227.626</ele>
        <time>2022-08-24T06:30:36Z</time>
      </trkpt>
      <trkpt lat="43.15657999999996" lon="-1.240050999999999">
        <ele>227.809</ele>
        <time>2022-08-24T06:30:42Z</time>
      </trkpt>
      <trkpt lat="43.156519999999965" lon="-1.240077999999999">
        <ele>228.080</ele>
        <time>2022-08-24T06:30:45Z</time>
      </trkpt>
      <trkpt lat="43.15650499999997" lon="-1.240087999999999">
        <ele>228.060</ele>
        <time>2022-08-24T06:30:46Z</time>
      </trkpt>
      <trkpt lat="43.156437999999966" lon="-1.240120999999999">
        <ele>228.470</ele>
        <time>2022-08-24T06:30:49Z</time>
      </trkpt>
      <trkpt lat="43.156418999999964" lon="-1.2401269999999989">
        <ele>228.676</ele>
        <time>2022-08-24T06:30:50Z</time>
      </trkpt>
      <trkpt lat="43.15639399999996" lon="-1.240136999999999">
        <ele>228.848</ele>
        <time>2022-08-24T06:30:51Z</time>
      </trkpt>
      <trkpt lat="43.15635199999996" lon="-1.240152999999999">
        <ele>228.835</ele>
        <time>2022-08-24T06:30:53Z</time>
      </trkpt>
      <trkpt lat="43.15621699999996" lon="-1.240257999999999">
        <ele>229.458</ele>
        <time>2022-08-24T06:31:00Z</time>
      </trkpt>
      <trkpt lat="43.15618399999996" lon="-1.240282999999999">
        <ele>229.642</ele>
        <time>2022-08-24T06:31:02Z</time>
      </trkpt>
      <trkpt lat="43.15611899999996" lon="-1.240330999999999">
        <ele>229.821</ele>
        <time>2022-08-24T06:31:05Z</time>
      </trkpt>
      <trkpt lat="43.15609699999996" lon="-1.240347999999999">
        <ele>229.885</ele>
        <time>2022-08-24T06:31:06Z</time>
      </trkpt>
      <trkpt lat="43.15607799999996" lon="-1.2403649999999988">
        <ele>230.089</ele>
        <time>2022-08-24T06:31:07Z</time>
      </trkpt>
      <trkpt lat="43.156058999999956" lon="-1.240379999999999">
        <ele>230.017</ele>
        <time>2022-08-24T06:31:08Z</time>
      </trkpt>
      <trkpt lat="43.15604099999996" lon="-1.240392999999999">
        <ele>230.009</ele>
        <time>2022-08-24T06:31:09Z</time>
      </trkpt>
      <trkpt lat="43.15602499999996" lon="-1.240405999999999">
        <ele>230.299</ele>
        <time>2022-08-24T06:31:10Z</time>
      </trkpt>
      <trkpt lat="43.156008999999955" lon="-1.240418999999999">
        <ele>230.219</ele>
        <time>2022-08-24T06:31:11Z</time>
      </trkpt>
      <trkpt lat="43.15591699999995" lon="-1.240503999999999">
        <ele>230.669</ele>
        <time>2022-08-24T06:31:16Z</time>
      </trkpt>
      <trkpt lat="43.15588399999995" lon="-1.240524999999999">
        <ele>230.865</ele>
        <time>2022-08-24T06:31:18Z</time>
      </trkpt>
      <trkpt lat="43.15586599999995" lon="-1.240540999999999">
        <ele>230.867</ele>
        <time>2022-08-24T06:31:19Z</time>
      </trkpt>
      <trkpt lat="43.15585299999995" lon="-1.240554999999999">
        <ele>231.054</ele>
        <time>2022-08-24T06:31:20Z</time>
      </trkpt>
      <trkpt lat="43.15582399999995" lon="-1.240586999999999">
        <ele>231.487</ele>
        <time>2022-08-24T06:31:22Z</time>
      </trkpt>
      <trkpt lat="43.155771999999956" lon="-1.240632999999999">
        <ele>231.861</ele>
        <time>2022-08-24T06:31:25Z</time>
      </trkpt>
      <trkpt lat="43.15567799999996" lon="-1.240719999999999">
        <ele>232.610</ele>
        <time>2022-08-24T06:31:30Z</time>
      </trkpt>
      <trkpt lat="43.15565899999996" lon="-1.2407369999999989">
        <ele>232.882</ele>
        <time>2022-08-24T06:31:31Z</time>
      </trkpt>
      <trkpt lat="43.155639999999956" lon="-1.2407569999999988">
        <ele>233.043</ele>
        <time>2022-08-24T06:31:32Z</time>
      </trkpt>
      <trkpt lat="43.155622999999956" lon="-1.2407749999999989">
        <ele>233.217</ele>
        <time>2022-08-24T06:31:33Z</time>
      </trkpt>
      <trkpt lat="43.15560499999996" lon="-1.240792999999999">
        <ele>233.609</ele>
        <time>2022-08-24T06:31:34Z</time>
      </trkpt>
      <trkpt lat="43.15558999999996" lon="-1.240810999999999">
        <ele>233.829</ele>
        <time>2022-08-24T06:31:35Z</time>
      </trkpt>
      <trkpt lat="43.155571999999964" lon="-1.240827999999999">
        <ele>234.089</ele>
        <time>2022-08-24T06:31:36Z</time>
      </trkpt>
      <trkpt lat="43.15555299999996" lon="-1.2408449999999989">
        <ele>234.079</ele>
        <time>2022-08-24T06:31:37Z</time>
      </trkpt>
      <trkpt lat="43.15554499999996" lon="-1.2408639999999989">
        <ele>234.465</ele>
        <time>2022-08-24T06:31:38Z</time>
      </trkpt>
      <trkpt lat="43.15554299999996" lon="-1.2408829999999988">
        <ele>234.677</ele>
        <time>2022-08-24T06:31:39Z</time>
      </trkpt>
      <trkpt lat="43.15553799999996" lon="-1.2408989999999989">
        <ele>234.824</ele>
        <time>2022-08-24T06:31:40Z</time>
      </trkpt>
      <trkpt lat="43.155524999999955" lon="-1.240908999999999">
        <ele>235.467</ele>
        <time>2022-08-24T06:31:41Z</time>
      </trkpt>
      <trkpt lat="43.15550999999996" lon="-1.2409129999999988">
        <ele>235.411</ele>
        <time>2022-08-24T06:31:42Z</time>
      </trkpt>
      <trkpt lat="43.15550099999996" lon="-1.2409139999999987">
        <ele>235.640</ele>
        <time>2022-08-24T06:31:43Z</time>
      </trkpt>
      <trkpt lat="43.15551199999996" lon="-1.2409599999999987">
        <ele>236.649</ele>
        <time>2022-08-24T06:31:58Z</time>
      </trkpt>
      <trkpt lat="43.15551199999996" lon="-1.2409699999999988">
        <ele>236.602</ele>
        <time>2022-08-24T06:31:59Z</time>
      </trkpt>
      <trkpt lat="43.15550799999996" lon="-1.2409809999999988">
        <ele>236.622</ele>
        <time>2022-08-24T06:32:00Z</time>
      </trkpt>
      <trkpt lat="43.15550499999996" lon="-1.2409889999999988">
        <ele>236.609</ele>
        <time>2022-08-24T06:32:01Z</time>
      </trkpt>
      <trkpt lat="43.155503999999965" lon="-1.2409919999999988">
        <ele>236.825</ele>
        <time>2022-08-24T06:32:02Z</time>
      </trkpt>
      <trkpt lat="43.15549899999996" lon="-1.2409919999999988">
        <ele>236.835</ele>
        <time>2022-08-24T06:32:03Z</time>
      </trkpt>
      <trkpt lat="43.155497999999966" lon="-1.2409929999999987">
        <ele>237.095</ele>
        <time>2022-08-24T06:32:04Z</time>
      </trkpt>
      <trkpt lat="43.155492999999964" lon="-1.2409949999999987">
        <ele>237.041</ele>
        <time>2022-08-24T06:32:05Z</time>
      </trkpt>
      <trkpt lat="43.155486999999965" lon="-1.2409949999999987">
        <ele>237.223</ele>
        <time>2022-08-24T06:32:06Z</time>
      </trkpt>
      <trkpt lat="43.155481999999964" lon="-1.2409889999999988">
        <ele>237.210</ele>
        <time>2022-08-24T06:32:07Z</time>
      </trkpt>
      <trkpt lat="43.15547699999996" lon="-1.2409869999999987">
        <ele>237.423</ele>
        <time>2022-08-24T06:32:08Z</time>
      </trkpt>
      <trkpt lat="43.15547099999996" lon="-1.2409839999999988">
        <ele>237.437</ele>
        <time>2022-08-24T06:32:09Z</time>
      </trkpt>
      <trkpt lat="43.155481999999964" lon="-1.2409949999999987">
        <ele>237.656</ele>
        <time>2022-08-24T06:35:33Z</time>
      </trkpt>
      <trkpt lat="43.15548499999996" lon="-1.2410049999999988">
        <ele>237.686</ele>
        <time>2022-08-24T06:35:34Z</time>
      </trkpt>
      <trkpt lat="43.15549199999996" lon="-1.2410129999999988">
        <ele>237.660</ele>
        <time>2022-08-24T06:35:35Z</time>
      </trkpt>
      <trkpt lat="43.15554899999996" lon="-1.2410189999999988">
        <ele>237.626</ele>
        <time>2022-08-24T06:35:39Z</time>
      </trkpt>
      <trkpt lat="43.15556499999996" lon="-1.2410209999999988">
        <ele>237.609</ele>
        <time>2022-08-24T06:35:40Z</time>
      </trkpt>
      <trkpt lat="43.15558599999996" lon="-1.241027999999999">
        <ele>237.659</ele>
        <time>2022-08-24T06:35:41Z</time>
      </trkpt>
      <trkpt lat="43.15568399999996" lon="-1.241037999999999">
        <ele>237.469</ele>
        <time>2022-08-24T06:35:45Z</time>
      </trkpt>
      <trkpt lat="43.155749999999955" lon="-1.241056999999999">
        <ele>237.229</ele>
        <time>2022-08-24T06:35:47Z</time>
      </trkpt>
      <trkpt lat="43.155878999999956" lon="-1.241085999999999">
        <ele>237.085</ele>
        <time>2022-08-24T06:35:50Z</time>
      </trkpt>
      <trkpt lat="43.155957999999956" lon="-1.241094999999999">
        <ele>236.457</ele>
        <time>2022-08-24T06:35:52Z</time>
      </trkpt>
      <trkpt lat="43.155997999999954" lon="-1.241100999999999">
        <ele>236.474</ele>
        <time>2022-08-24T06:35:53Z</time>
      </trkpt>
      <trkpt lat="43.15608399999996" lon="-1.2411129999999988">
        <ele>236.047</ele>
        <time>2022-08-24T06:35:55Z</time>
      </trkpt>
      <trkpt lat="43.156126999999955" lon="-1.2411189999999988">
        <ele>235.621</ele>
        <time>2022-08-24T06:35:56Z</time>
      </trkpt>
      <trkpt lat="43.156166999999954" lon="-1.2411279999999987">
        <ele>235.440</ele>
        <time>2022-08-24T06:35:57Z</time>
      </trkpt>
      <trkpt lat="43.15620399999995" lon="-1.2411409999999987">
        <ele>235.083</ele>
        <time>2022-08-24T06:35:58Z</time>
      </trkpt>
      <trkpt lat="43.15623299999995" lon="-1.2411599999999987">
        <ele>234.825</ele>
        <time>2022-08-24T06:35:59Z</time>
      </trkpt>
      <trkpt lat="43.15624499999995" lon="-1.2411749999999988">
        <ele>234.617</ele>
        <time>2022-08-24T06:36:00Z</time>
      </trkpt>
      <trkpt lat="43.15624699999995" lon="-1.2411879999999988">
        <ele>234.009</ele>
        <time>2022-08-24T06:36:01Z</time>
      </trkpt>
      <trkpt lat="43.15624399999995" lon="-1.2411909999999988">
        <ele>234.089</ele>
        <time>2022-08-24T06:36:02Z</time>
      </trkpt>
      <trkpt lat="43.156239999999954" lon="-1.2411929999999989">
        <ele>233.899</ele>
        <time>2022-08-24T06:36:03Z</time>
      </trkpt>
      <trkpt lat="43.15623499999995" lon="-1.2411939999999988">
        <ele>233.669</ele>
        <time>2022-08-24T06:36:04Z</time>
      </trkpt>
      <trkpt lat="43.15622699999995" lon="-1.2411929999999989">
        <ele>233.655</ele>
        <time>2022-08-24T06:36:05Z</time>
      </trkpt>
      <trkpt lat="43.15621899999995" lon="-1.241188999999999">
        <ele>233.467</ele>
        <time>2022-08-24T06:36:06Z</time>
      </trkpt>
      <trkpt lat="43.15621499999995" lon="-1.241180999999999">
        <ele>233.434</ele>
        <time>2022-08-24T06:36:07Z</time>
      </trkpt>
      <trkpt lat="43.156210999999956" lon="-1.241177999999999">
        <ele>233.457</ele>
        <time>2022-08-24T06:36:08Z</time>
      </trkpt>
      <trkpt lat="43.15620399999996" lon="-1.241172999999999">
        <ele>233.461</ele>
        <time>2022-08-24T06:36:09Z</time>
      </trkpt>
      <trkpt lat="43.15615399999996" lon="-1.241174999999999">
        <ele>233.280</ele>
        <time>2022-08-24T06:36:13Z</time>
      </trkpt>
      <trkpt lat="43.15613299999996" lon="-1.241166999999999">
        <ele>233.456</ele>
        <time>2022-08-24T06:36:14Z</time>
      </trkpt>
      <trkpt lat="43.156114999999964" lon="-1.241157999999999">
        <ele>233.459</ele>
        <time>2022-08-24T06:36:15Z</time>
      </trkpt>
      <trkpt lat="43.15594399999996" lon="-1.241130999999999">
        <ele>233.614</ele>
        <time>2022-08-24T06:36:20Z</time>
      </trkpt>
      <trkpt lat="43.155908999999966" lon="-1.2411249999999991">
        <ele>233.809</ele>
        <time>2022-08-24T06:36:21Z</time>
      </trkpt>
      <trkpt lat="43.155877999999966" lon="-1.2411189999999992">
        <ele>234.256</ele>
        <time>2022-08-24T06:36:22Z</time>
      </trkpt>
      <trkpt lat="43.155846999999966" lon="-1.2411169999999991">
        <ele>234.446</ele>
        <time>2022-08-24T06:36:23Z</time>
      </trkpt>
      <trkpt lat="43.155815999999966" lon="-1.241109999999999">
        <ele>234.856</ele>
        <time>2022-08-24T06:36:24Z</time>
      </trkpt>
      <trkpt lat="43.15578899999996" lon="-1.241103999999999">
        <ele>235.012</ele>
        <time>2022-08-24T06:36:25Z</time>
      </trkpt>
      <trkpt lat="43.155765999999964" lon="-1.241098999999999">
        <ele>235.274</ele>
        <time>2022-08-24T06:36:26Z</time>
      </trkpt>
      <trkpt lat="43.15574399999996" lon="-1.241093999999999">
        <ele>235.441</ele>
        <time>2022-08-24T06:36:27Z</time>
      </trkpt>
      <trkpt lat="43.155720999999964" lon="-1.241087999999999">
        <ele>235.864</ele>
        <time>2022-08-24T06:36:28Z</time>
      </trkpt>
      <trkpt lat="43.15569899999996" lon="-1.241085999999999">
        <ele>236.048</ele>
        <time>2022-08-24T06:36:29Z</time>
      </trkpt>
      <trkpt lat="43.155680999999966" lon="-1.241079999999999">
        <ele>236.287</ele>
        <time>2022-08-24T06:36:30Z</time>
      </trkpt>
      <trkpt lat="43.155661999999964" lon="-1.241077999999999">
        <ele>236.496</ele>
        <time>2022-08-24T06:36:31Z</time>
      </trkpt>
      <trkpt lat="43.155638999999965" lon="-1.241072999999999">
        <ele>236.431</ele>
        <time>2022-08-24T06:36:32Z</time>
      </trkpt>
      <trkpt lat="43.15561799999997" lon="-1.241063999999999">
        <ele>236.624</ele>
        <time>2022-08-24T06:36:33Z</time>
      </trkpt>
      <trkpt lat="43.155525999999966" lon="-1.2410389999999991">
        <ele>237.209</ele>
        <time>2022-08-24T06:36:37Z</time>
      </trkpt>
      <trkpt lat="43.15549999999997" lon="-1.241033999999999">
        <ele>237.480</ele>
        <time>2022-08-24T06:36:38Z</time>
      </trkpt>
      <trkpt lat="43.15547399999997" lon="-1.2410299999999992">
        <ele>237.630</ele>
        <time>2022-08-24T06:36:39Z</time>
      </trkpt>
      <trkpt lat="43.15544699999997" lon="-1.2410289999999993">
        <ele>237.650</ele>
        <time>2022-08-24T06:36:40Z</time>
      </trkpt>
      <trkpt lat="43.15542399999997" lon="-1.2410239999999992">
        <ele>237.876</ele>
        <time>2022-08-24T06:36:41Z</time>
      </trkpt>
      <trkpt lat="43.15539599999997" lon="-1.2410189999999992">
        <ele>237.898</ele>
        <time>2022-08-24T06:36:42Z</time>
      </trkpt>
      <trkpt lat="43.155376999999966" lon="-1.2410159999999992">
        <ele>237.895</ele>
        <time>2022-08-24T06:36:43Z</time>
      </trkpt>
      <trkpt lat="43.155351999999965" lon="-1.2410169999999991">
        <ele>237.848</ele>
        <time>2022-08-24T06:36:44Z</time>
      </trkpt>
      <trkpt lat="43.15532799999996" lon="-1.2410199999999991">
        <ele>238.062</ele>
        <time>2022-08-24T06:36:45Z</time>
      </trkpt>
      <trkpt lat="43.15530499999996" lon="-1.241025999999999">
        <ele>238.061</ele>
        <time>2022-08-24T06:36:46Z</time>
      </trkpt>
      <trkpt lat="43.155278999999965" lon="-1.241031999999999">
        <ele>238.258</ele>
        <time>2022-08-24T06:36:47Z</time>
      </trkpt>
      <trkpt lat="43.15526399999997" lon="-1.241037999999999">
        <ele>238.252</ele>
        <time>2022-08-24T06:36:48Z</time>
      </trkpt>
      <trkpt lat="43.155244999999965" lon="-1.241044999999999">
        <ele>238.217</ele>
        <time>2022-08-24T06:36:49Z</time>
      </trkpt>
      <trkpt lat="43.15521899999997" lon="-1.2410519999999992">
        <ele>238.609</ele>
        <time>2022-08-24T06:36:50Z</time>
      </trkpt>
      <trkpt lat="43.155202999999965" lon="-1.241055999999999">
        <ele>238.616</ele>
        <time>2022-08-24T06:36:51Z</time>
      </trkpt>
      <trkpt lat="43.15518799999997" lon="-1.241063999999999">
        <ele>238.816</ele>
        <time>2022-08-24T06:36:52Z</time>
      </trkpt>
      <trkpt lat="43.15517099999997" lon="-1.2410709999999991">
        <ele>238.826</ele>
        <time>2022-08-24T06:36:53Z</time>
      </trkpt>
      <trkpt lat="43.15515399999997" lon="-1.241076999999999">
        <ele>239.062</ele>
        <time>2022-08-24T06:36:54Z</time>
      </trkpt>
      <trkpt lat="43.15513599999997" lon="-1.2410839999999992">
        <ele>239.024</ele>
        <time>2022-08-24T06:36:55Z</time>
      </trkpt>
      <trkpt lat="43.15511899999997" lon="-1.2410919999999992">
        <ele>239.481</ele>
        <time>2022-08-24T06:36:56Z</time>
      </trkpt>
      <trkpt lat="43.15510499999997" lon="-1.2410999999999992">
        <ele>239.854</ele>
        <time>2022-08-24T06:36:57Z</time>
      </trkpt>
      <trkpt lat="43.15508999999997" lon="-1.2411049999999992">
        <ele>240.088</ele>
        <time>2022-08-24T06:36:58Z</time>
      </trkpt>
      <trkpt lat="43.15507399999997" lon="-1.2411099999999993">
        <ele>240.247</ele>
        <time>2022-08-24T06:36:59Z</time>
      </trkpt>
      <trkpt lat="43.15505899999997" lon="-1.2411179999999993">
        <ele>240.468</ele>
        <time>2022-08-24T06:37:00Z</time>
      </trkpt>
      <trkpt lat="43.15504499999997" lon="-1.2411279999999993">
        <ele>240.842</ele>
        <time>2022-08-24T06:37:01Z</time>
      </trkpt>
      <trkpt lat="43.15503099999997" lon="-1.2411379999999994">
        <ele>240.826</ele>
        <time>2022-08-24T06:37:02Z</time>
      </trkpt>
      <trkpt lat="43.15501199999997" lon="-1.2411459999999994">
        <ele>241.209</ele>
        <time>2022-08-24T06:37:03Z</time>
      </trkpt>
      <trkpt lat="43.15499599999997" lon="-1.2411589999999995">
        <ele>241.267</ele>
        <time>2022-08-24T06:37:04Z</time>
      </trkpt>
      <trkpt lat="43.15497899999997" lon="-1.2411639999999995">
        <ele>241.447</ele>
        <time>2022-08-24T06:37:05Z</time>
      </trkpt>
      <trkpt lat="43.154965999999966" lon="-1.2411709999999996">
        <ele>241.867</ele>
        <time>2022-08-24T06:37:06Z</time>
      </trkpt>
      <trkpt lat="43.15495099999997" lon="-1.2411799999999995">
        <ele>242.083</ele>
        <time>2022-08-24T06:37:07Z</time>
      </trkpt>
      <trkpt lat="43.15493399999997" lon="-1.2411879999999995">
        <ele>242.255</ele>
        <time>2022-08-24T06:37:08Z</time>
      </trkpt>
      <trkpt lat="43.15491499999997" lon="-1.2411949999999996">
        <ele>242.432</ele>
        <time>2022-08-24T06:37:09Z</time>
      </trkpt>
      <trkpt lat="43.15489399999997" lon="-1.2412009999999996">
        <ele>242.885</ele>
        <time>2022-08-24T06:37:10Z</time>
      </trkpt>
      <trkpt lat="43.15488299999997" lon="-1.2412069999999995">
        <ele>243.079</ele>
        <time>2022-08-24T06:37:11Z</time>
      </trkpt>
      <trkpt lat="43.15486699999997" lon="-1.2412109999999994">
        <ele>243.278</ele>
        <time>2022-08-24T06:37:12Z</time>
      </trkpt>
      <trkpt lat="43.15485199999997" lon="-1.2412139999999994">
        <ele>243.432</ele>
        <time>2022-08-24T06:37:13Z</time>
      </trkpt>
      <trkpt lat="43.15483599999997" lon="-1.2412189999999994">
        <ele>243.892</ele>
        <time>2022-08-24T06:37:14Z</time>
      </trkpt>
      <trkpt lat="43.154819999999965" lon="-1.2412229999999993">
        <ele>244.011</ele>
        <time>2022-08-24T06:37:15Z</time>
      </trkpt>
      <trkpt lat="43.154802999999966" lon="-1.2412279999999993">
        <ele>244.209</ele>
        <time>2022-08-24T06:37:16Z</time>
      </trkpt>
      <trkpt lat="43.154785999999966" lon="-1.2412329999999994">
        <ele>244.444</ele>
        <time>2022-08-24T06:37:17Z</time>
      </trkpt>
      <trkpt lat="43.15477099999997" lon="-1.2412389999999993">
        <ele>244.484</ele>
        <time>2022-08-24T06:37:18Z</time>
      </trkpt>
      <trkpt lat="43.15475299999997" lon="-1.2412449999999993">
        <ele>244.644</ele>
        <time>2022-08-24T06:37:19Z</time>
      </trkpt>
      <trkpt lat="43.15473699999997" lon="-1.2412549999999993">
        <ele>244.830</ele>
        <time>2022-08-24T06:37:20Z</time>
      </trkpt>
      <trkpt lat="43.15472099999997" lon="-1.2412619999999994">
        <ele>245.022</ele>
        <time>2022-08-24T06:37:21Z</time>
      </trkpt>
      <trkpt lat="43.154706999999966" lon="-1.2412709999999993">
        <ele>245.429</ele>
        <time>2022-08-24T06:37:22Z</time>
      </trkpt>
      <trkpt lat="43.15468899999997" lon="-1.2412829999999992">
        <ele>245.652</ele>
        <time>2022-08-24T06:37:23Z</time>
      </trkpt>
      <trkpt lat="43.15467299999997" lon="-1.2412939999999992">
        <ele>245.836</ele>
        <time>2022-08-24T06:37:24Z</time>
      </trkpt>
      <trkpt lat="43.15465599999997" lon="-1.2413049999999992">
        <ele>246.035</ele>
        <time>2022-08-24T06:37:25Z</time>
      </trkpt>
      <trkpt lat="43.15464199999997" lon="-1.2413119999999993">
        <ele>246.462</ele>
        <time>2022-08-24T06:37:26Z</time>
      </trkpt>
      <trkpt lat="43.154622999999965" lon="-1.2413219999999994">
        <ele>246.883</ele>
        <time>2022-08-24T06:37:27Z</time>
      </trkpt>
      <trkpt lat="43.154605999999966" lon="-1.2413319999999994">
        <ele>246.811</ele>
        <time>2022-08-24T06:37:28Z</time>
      </trkpt>
      <trkpt lat="43.154591999999965" lon="-1.2413389999999995">
        <ele>247.209</ele>
        <time>2022-08-24T06:37:29Z</time>
      </trkpt>
      <trkpt lat="43.15457999999997" lon="-1.2413469999999995">
        <ele>247.457</ele>
        <time>2022-08-24T06:37:30Z</time>
      </trkpt>
      <trkpt lat="43.154566999999965" lon="-1.2413519999999996">
        <ele>247.667</ele>
        <time>2022-08-24T06:37:31Z</time>
      </trkpt>
      <trkpt lat="43.154552999999964" lon="-1.2413559999999995">
        <ele>247.887</ele>
        <time>2022-08-24T06:37:32Z</time>
      </trkpt>
      <trkpt lat="43.154538999999964" lon="-1.2413599999999994">
        <ele>248.253</ele>
        <time>2022-08-24T06:37:33Z</time>
      </trkpt>
      <trkpt lat="43.154524999999964" lon="-1.2413679999999994">
        <ele>248.665</ele>
        <time>2022-08-24T06:37:34Z</time>
      </trkpt>
      <trkpt lat="43.154509999999966" lon="-1.2413779999999994">
        <ele>248.872</ele>
        <time>2022-08-24T06:37:35Z</time>
      </trkpt>
      <trkpt lat="43.15449299999997" lon="-1.2413849999999995">
        <ele>249.045</ele>
        <time>2022-08-24T06:37:36Z</time>
      </trkpt>
      <trkpt lat="43.15447899999997" lon="-1.2413939999999994">
        <ele>249.089</ele>
        <time>2022-08-24T06:37:37Z</time>
      </trkpt>
      <trkpt lat="43.154465999999964" lon="-1.2414009999999995">
        <ele>249.488</ele>
        <time>2022-08-24T06:37:38Z</time>
      </trkpt>
      <trkpt lat="43.154445999999965" lon="-1.2414059999999996">
        <ele>249.682</ele>
        <time>2022-08-24T06:37:39Z</time>
      </trkpt>
      <trkpt lat="43.15442699999996" lon="-1.2414119999999995">
        <ele>250.043</ele>
        <time>2022-08-24T06:37:40Z</time>
      </trkpt>
      <trkpt lat="43.154408999999966" lon="-1.2414239999999994">
        <ele>250.017</ele>
        <time>2022-08-24T06:37:41Z</time>
      </trkpt>
      <trkpt lat="43.154383999999965" lon="-1.2414349999999994">
        <ele>250.209</ele>
        <time>2022-08-24T06:37:42Z</time>
      </trkpt>
      <trkpt lat="43.15436599999997" lon="-1.2414439999999993">
        <ele>250.479</ele>
        <time>2022-08-24T06:37:43Z</time>
      </trkpt>
      <trkpt lat="43.15434899999997" lon="-1.2414499999999993">
        <ele>250.669</ele>
        <time>2022-08-24T06:37:44Z</time>
      </trkpt>
      <trkpt lat="43.15432799999997" lon="-1.2414609999999993">
        <ele>250.859</ele>
        <time>2022-08-24T06:37:45Z</time>
      </trkpt>
      <trkpt lat="43.154306999999974" lon="-1.2414699999999992">
        <ele>251.055</ele>
        <time>2022-08-24T06:37:46Z</time>
      </trkpt>
      <trkpt lat="43.15428599999998" lon="-1.2414799999999993">
        <ele>251.287</ele>
        <time>2022-08-24T06:37:47Z</time>
      </trkpt>
      <trkpt lat="43.154266999999976" lon="-1.2414929999999993">
        <ele>251.294</ele>
        <time>2022-08-24T06:37:48Z</time>
      </trkpt>
      <trkpt lat="43.15424899999998" lon="-1.2415029999999994">
        <ele>251.647</ele>
        <time>2022-08-24T06:37:49Z</time>
      </trkpt>
      <trkpt lat="43.15423299999998" lon="-1.2415099999999994">
        <ele>252.051</ele>
        <time>2022-08-24T06:37:50Z</time>
      </trkpt>
      <trkpt lat="43.15421499999998" lon="-1.2415189999999994">
        <ele>252.020</ele>
        <time>2022-08-24T06:37:51Z</time>
      </trkpt>
      <trkpt lat="43.15419699999998" lon="-1.2415289999999994">
        <ele>252.685</ele>
        <time>2022-08-24T06:37:52Z</time>
      </trkpt>
      <trkpt lat="43.15418099999998" lon="-1.2415339999999995">
        <ele>252.689</ele>
        <time>2022-08-24T06:37:53Z</time>
      </trkpt>
      <trkpt lat="43.15416299999998" lon="-1.2415409999999996">
        <ele>252.817</ele>
        <time>2022-08-24T06:37:54Z</time>
      </trkpt>
      <trkpt lat="43.154144999999986" lon="-1.2415469999999995">
        <ele>253.009</ele>
        <time>2022-08-24T06:37:55Z</time>
      </trkpt>
      <trkpt lat="43.15412699999999" lon="-1.2415509999999994">
        <ele>253.249</ele>
        <time>2022-08-24T06:37:56Z</time>
      </trkpt>
      <trkpt lat="43.154110999999986" lon="-1.2415619999999994">
        <ele>253.429</ele>
        <time>2022-08-24T06:37:57Z</time>
      </trkpt>
      <trkpt lat="43.15409599999999" lon="-1.2415759999999993">
        <ele>253.429</ele>
        <time>2022-08-24T06:37:58Z</time>
      </trkpt>
      <trkpt lat="43.15407699999999" lon="-1.2415839999999994">
        <ele>253.845</ele>
        <time>2022-08-24T06:37:59Z</time>
      </trkpt>
      <trkpt lat="43.15405899999999" lon="-1.2415939999999994">
        <ele>254.037</ele>
        <time>2022-08-24T06:38:00Z</time>
      </trkpt>
      <trkpt lat="43.15404299999999" lon="-1.2416009999999995">
        <ele>254.274</ele>
        <time>2022-08-24T06:38:01Z</time>
      </trkpt>
      <trkpt lat="43.154023999999986" lon="-1.2416099999999994">
        <ele>254.447</ele>
        <time>2022-08-24T06:38:02Z</time>
      </trkpt>
      <trkpt lat="43.154004999999984" lon="-1.2416209999999994">
        <ele>254.631</ele>
        <time>2022-08-24T06:38:03Z</time>
      </trkpt>
      <trkpt lat="43.15398699999999" lon="-1.2416299999999993">
        <ele>254.810</ele>
        <time>2022-08-24T06:38:04Z</time>
      </trkpt>
      <trkpt lat="43.15396999999999" lon="-1.2416389999999993">
        <ele>254.827</ele>
        <time>2022-08-24T06:38:05Z</time>
      </trkpt>
      <trkpt lat="43.15395199999999" lon="-1.2416449999999992">
        <ele>255.468</ele>
        <time>2022-08-24T06:38:06Z</time>
      </trkpt>
      <trkpt lat="43.15393499999999" lon="-1.2416499999999993">
        <ele>255.414</ele>
        <time>2022-08-24T06:38:07Z</time>
      </trkpt>
      <trkpt lat="43.15391899999999" lon="-1.2416569999999993">
        <ele>256.009</ele>
        <time>2022-08-24T06:38:08Z</time>
      </trkpt>
      <trkpt lat="43.153902999999985" lon="-1.2416619999999994">
        <ele>256.093</ele>
        <time>2022-08-24T06:38:09Z</time>
      </trkpt>
      <trkpt lat="43.15388999999998" lon="-1.2416669999999994">
        <ele>256.443</ele>
        <time>2022-08-24T06:38:10Z</time>
      </trkpt>
      <trkpt lat="43.15386999999998" lon="-1.2416749999999994">
        <ele>256.643</ele>
        <time>2022-08-24T06:38:11Z</time>
      </trkpt>
      <trkpt lat="43.153851999999986" lon="-1.2416809999999994">
        <ele>256.829</ele>
        <time>2022-08-24T06:38:12Z</time>
      </trkpt>
      <trkpt lat="43.15383499999999" lon="-1.2416869999999993">
        <ele>257.251</ele>
        <time>2022-08-24T06:38:13Z</time>
      </trkpt>
      <trkpt lat="43.15381699999999" lon="-1.2416909999999992">
        <ele>257.458</ele>
        <time>2022-08-24T06:38:14Z</time>
      </trkpt>
      <trkpt lat="43.15380199999999" lon="-1.2416939999999992">
        <ele>257.821</ele>
        <time>2022-08-24T06:38:15Z</time>
      </trkpt>
      <trkpt lat="43.15378499999999" lon="-1.2416999999999991">
        <ele>258.085</ele>
        <time>2022-08-24T06:38:16Z</time>
      </trkpt>
      <trkpt lat="43.15376799999999" lon="-1.241705999999999">
        <ele>258.224</ele>
        <time>2022-08-24T06:38:17Z</time>
      </trkpt>
      <trkpt lat="43.15374899999999" lon="-1.241709999999999">
        <ele>258.462</ele>
        <time>2022-08-24T06:38:18Z</time>
      </trkpt>
      <trkpt lat="43.153727999999994" lon="-1.241710999999999">
        <ele>258.683</ele>
        <time>2022-08-24T06:38:19Z</time>
      </trkpt>
      <trkpt lat="43.153707999999995" lon="-1.241710999999999">
        <ele>259.011</ele>
        <time>2022-08-24T06:38:20Z</time>
      </trkpt>
      <trkpt lat="43.153687999999995" lon="-1.2417119999999988">
        <ele>259.009</ele>
        <time>2022-08-24T06:38:21Z</time>
      </trkpt>
      <trkpt lat="43.15367" lon="-1.2417179999999988">
        <ele>259.427</ele>
        <time>2022-08-24T06:38:22Z</time>
      </trkpt>
      <trkpt lat="43.153652" lon="-1.2417219999999987">
        <ele>259.447</ele>
        <time>2022-08-24T06:38:23Z</time>
      </trkpt>
      <trkpt lat="43.153634000000004" lon="-1.2417209999999987">
        <ele>259.867</ele>
        <time>2022-08-24T06:38:24Z</time>
      </trkpt>
      <trkpt lat="43.153612" lon="-1.2417199999999988">
        <ele>259.813</ele>
        <time>2022-08-24T06:38:25Z</time>
      </trkpt>
      <trkpt lat="43.153595" lon="-1.2417219999999989">
        <ele>260.025</ele>
        <time>2022-08-24T06:38:26Z</time>
      </trkpt>
      <trkpt lat="43.153579" lon="-1.2417219999999989">
        <ele>260.092</ele>
        <time>2022-08-24T06:38:27Z</time>
      </trkpt>
      <trkpt lat="43.153563" lon="-1.241720999999999">
        <ele>260.225</ele>
        <time>2022-08-24T06:38:28Z</time>
      </trkpt>
      <trkpt lat="43.153549999999996" lon="-1.241718999999999">
        <ele>260.269</ele>
        <time>2022-08-24T06:38:29Z</time>
      </trkpt>
      <trkpt lat="43.153529" lon="-1.241715999999999">
        <ele>260.458</ele>
        <time>2022-08-24T06:38:30Z</time>
      </trkpt>
      <trkpt lat="43.153511" lon="-1.2417169999999988">
        <ele>260.667</ele>
        <time>2022-08-24T06:38:31Z</time>
      </trkpt>
      <trkpt lat="43.153497" lon="-1.2417289999999988">
        <ele>260.681</ele>
        <time>2022-08-24T06:38:32Z</time>
      </trkpt>
      <trkpt lat="43.153482000000004" lon="-1.2417359999999988">
        <ele>261.019</ele>
        <time>2022-08-24T06:38:33Z</time>
      </trkpt>
      <trkpt lat="43.15346" lon="-1.241745999999999">
        <ele>261.209</ele>
        <time>2022-08-24T06:38:34Z</time>
      </trkpt>
      <trkpt lat="43.15344" lon="-1.2417579999999988">
        <ele>261.277</ele>
        <time>2022-08-24T06:38:35Z</time>
      </trkpt>
      <trkpt lat="43.153420000000004" lon="-1.241764999999999">
        <ele>261.457</ele>
        <time>2022-08-24T06:38:36Z</time>
      </trkpt>
      <trkpt lat="43.153400000000005" lon="-1.241774999999999">
        <ele>261.427</ele>
        <time>2022-08-24T06:38:37Z</time>
      </trkpt>
      <trkpt lat="43.15338200000001" lon="-1.241782999999999">
        <ele>261.823</ele>
        <time>2022-08-24T06:38:38Z</time>
      </trkpt>
      <trkpt lat="43.153363000000006" lon="-1.241795999999999">
        <ele>261.835</ele>
        <time>2022-08-24T06:38:39Z</time>
      </trkpt>
      <trkpt lat="43.15334300000001" lon="-1.241808999999999">
        <ele>262.022</ele>
        <time>2022-08-24T06:38:40Z</time>
      </trkpt>
      <trkpt lat="43.15332200000001" lon="-1.241819999999999">
        <ele>262.235</ele>
        <time>2022-08-24T06:38:41Z</time>
      </trkpt>
      <trkpt lat="43.15329800000001" lon="-1.241832999999999">
        <ele>262.239</ele>
        <time>2022-08-24T06:38:42Z</time>
      </trkpt>
      <trkpt lat="43.153276000000005" lon="-1.2418429999999991">
        <ele>262.448</ele>
        <time>2022-08-24T06:38:43Z</time>
      </trkpt>
      <trkpt lat="43.153257" lon="-1.241848999999999">
        <ele>262.662</ele>
        <time>2022-08-24T06:38:44Z</time>
      </trkpt>
      <trkpt lat="43.153237000000004" lon="-1.241856999999999">
        <ele>262.883</ele>
        <time>2022-08-24T06:38:45Z</time>
      </trkpt>
      <trkpt lat="43.153218" lon="-1.2418619999999991">
        <ele>263.011</ele>
        <time>2022-08-24T06:38:46Z</time>
      </trkpt>
      <trkpt lat="43.153203000000005" lon="-1.2418669999999992">
        <ele>263.209</ele>
        <time>2022-08-24T06:38:47Z</time>
      </trkpt>
      <trkpt lat="43.153186000000005" lon="-1.2418689999999992">
        <ele>263.447</ele>
        <time>2022-08-24T06:38:48Z</time>
      </trkpt>
      <trkpt lat="43.15317" lon="-1.2418739999999993">
        <ele>263.427</ele>
        <time>2022-08-24T06:38:49Z</time>
      </trkpt>
      <trkpt lat="43.153149000000006" lon="-1.2418799999999992">
        <ele>263.837</ele>
        <time>2022-08-24T06:38:50Z</time>
      </trkpt>
      <trkpt lat="43.15312900000001" lon="-1.2418859999999992">
        <ele>263.843</ele>
        <time>2022-08-24T06:38:51Z</time>
      </trkpt>
      <trkpt lat="43.15311200000001" lon="-1.241891999999999">
        <ele>264.055</ele>
        <time>2022-08-24T06:38:52Z</time>
      </trkpt>
      <trkpt lat="43.15309400000001" lon="-1.2418989999999992">
        <ele>264.052</ele>
        <time>2022-08-24T06:38:53Z</time>
      </trkpt>
      <trkpt lat="43.15307700000001" lon="-1.2419059999999993">
        <ele>264.225</ele>
        <time>2022-08-24T06:38:54Z</time>
      </trkpt>
      <trkpt lat="43.15306000000001" lon="-1.2419139999999993">
        <ele>264.459</ele>
        <time>2022-08-24T06:38:55Z</time>
      </trkpt>
      <trkpt lat="43.15304200000001" lon="-1.2419249999999993">
        <ele>264.688</ele>
        <time>2022-08-24T06:38:56Z</time>
      </trkpt>
      <trkpt lat="43.153027000000016" lon="-1.2419319999999994">
        <ele>264.878</ele>
        <time>2022-08-24T06:38:57Z</time>
      </trkpt>
      <trkpt lat="43.153010000000016" lon="-1.2419389999999995">
        <ele>264.833</ele>
        <time>2022-08-24T06:38:58Z</time>
      </trkpt>
      <trkpt lat="43.152993000000016" lon="-1.2419429999999994">
        <ele>265.026</ele>
        <time>2022-08-24T06:38:59Z</time>
      </trkpt>
      <trkpt lat="43.15297300000002" lon="-1.2419459999999993">
        <ele>265.209</ele>
        <time>2022-08-24T06:39:00Z</time>
      </trkpt>
      <trkpt lat="43.152957000000015" lon="-1.2419519999999993">
        <ele>265.228</ele>
        <time>2022-08-24T06:39:01Z</time>
      </trkpt>
      <trkpt lat="43.15294200000002" lon="-1.2419579999999992">
        <ele>265.458</ele>
        <time>2022-08-24T06:39:02Z</time>
      </trkpt>
      <trkpt lat="43.15292700000002" lon="-1.2419669999999992">
        <ele>265.428</ele>
        <time>2022-08-24T06:39:03Z</time>
      </trkpt>
      <trkpt lat="43.15291400000002" lon="-1.241975999999999">
        <ele>265.444</ele>
        <time>2022-08-24T06:39:04Z</time>
      </trkpt>
      <trkpt lat="43.15288600000002" lon="-1.2419859999999991">
        <ele>265.466</ele>
        <time>2022-08-24T06:39:38Z</time>
      </trkpt>
      <trkpt lat="43.152864000000015" lon="-1.241989999999999">
        <ele>265.473</ele>
        <time>2022-08-24T06:39:39Z</time>
      </trkpt>
      <trkpt lat="43.15270500000002" lon="-1.242025999999999">
        <ele>265.286</ele>
        <time>2022-08-24T06:39:44Z</time>
      </trkpt>
      <trkpt lat="43.15245500000002" lon="-1.2420999999999989">
        <ele>264.480</ele>
        <time>2022-08-24T06:39:49Z</time>
      </trkpt>
      <trkpt lat="43.15225800000002" lon="-1.242166999999999">
        <ele>264.069</ele>
        <time>2022-08-24T06:39:52Z</time>
      </trkpt>
      <trkpt lat="43.152115000000016" lon="-1.242227999999999">
        <ele>263.437</ele>
        <time>2022-08-24T06:39:54Z</time>
      </trkpt>
      <trkpt lat="43.15204100000002" lon="-1.242261999999999">
        <ele>262.849</ele>
        <time>2022-08-24T06:39:55Z</time>
      </trkpt>
      <trkpt lat="43.15173300000002" lon="-1.2424229999999992">
        <ele>261.413</ele>
        <time>2022-08-24T06:39:59Z</time>
      </trkpt>
      <trkpt lat="43.15164900000002" lon="-1.2424689999999992">
        <ele>261.209</ele>
        <time>2022-08-24T06:40:00Z</time>
      </trkpt>
      <trkpt lat="43.15148100000002" lon="-1.2425649999999993">
        <ele>260.074</ele>
        <time>2022-08-24T06:40:02Z</time>
      </trkpt>
      <trkpt lat="43.15123000000002" lon="-1.2427019999999993">
        <ele>258.824</ele>
        <time>2022-08-24T06:40:05Z</time>
      </trkpt>
      <trkpt lat="43.15114000000002" lon="-1.2427359999999994">
        <ele>258.494</ele>
        <time>2022-08-24T06:40:06Z</time>
      </trkpt>
      <trkpt lat="43.15105000000002" lon="-1.2427579999999994">
        <ele>258.040</ele>
        <time>2022-08-24T06:40:07Z</time>
      </trkpt>
      <trkpt lat="43.15096100000002" lon="-1.2427769999999994">
        <ele>257.862</ele>
        <time>2022-08-24T06:40:08Z</time>
      </trkpt>
      <trkpt lat="43.150880000000015" lon="-1.2427929999999994">
        <ele>257.089</ele>
        <time>2022-08-24T06:40:09Z</time>
      </trkpt>
      <trkpt lat="43.150801000000016" lon="-1.2428069999999993">
        <ele>256.892</ele>
        <time>2022-08-24T06:40:10Z</time>
      </trkpt>
      <trkpt lat="43.15072600000001" lon="-1.2428229999999993">
        <ele>256.296</ele>
        <time>2022-08-24T06:40:11Z</time>
      </trkpt>
      <trkpt lat="43.150655000000015" lon="-1.2428319999999993">
        <ele>256.035</ele>
        <time>2022-08-24T06:40:12Z</time>
      </trkpt>
      <trkpt lat="43.150587000000016" lon="-1.2428409999999992">
        <ele>255.642</ele>
        <time>2022-08-24T06:40:13Z</time>
      </trkpt>
      <trkpt lat="43.15052100000002" lon="-1.2428419999999991">
        <ele>255.422</ele>
        <time>2022-08-24T06:40:14Z</time>
      </trkpt>
      <trkpt lat="43.15045600000002" lon="-1.2428409999999992">
        <ele>255.214</ele>
        <time>2022-08-24T06:40:15Z</time>
      </trkpt>
      <trkpt lat="43.15039300000002" lon="-1.2428309999999991">
        <ele>255.209</ele>
        <time>2022-08-24T06:40:16Z</time>
      </trkpt>
      <trkpt lat="43.15033200000002" lon="-1.242812999999999">
        <ele>255.025</ele>
        <time>2022-08-24T06:40:17Z</time>
      </trkpt>
      <trkpt lat="43.15027200000002" lon="-1.242789999999999">
        <ele>255.025</ele>
        <time>2022-08-24T06:40:18Z</time>
      </trkpt>
      <trkpt lat="43.15021300000002" lon="-1.242765999999999">
        <ele>255.035</ele>
        <time>2022-08-24T06:40:19Z</time>
      </trkpt>
      <trkpt lat="43.15015500000002" lon="-1.2427429999999988">
        <ele>255.231</ele>
        <time>2022-08-24T06:40:20Z</time>
      </trkpt>
      <trkpt lat="43.15009800000002" lon="-1.242722999999999">
        <ele>255.283</ele>
        <time>2022-08-24T06:40:21Z</time>
      </trkpt>
      <trkpt lat="43.15004300000002" lon="-1.242703999999999">
        <ele>255.420</ele>
        <time>2022-08-24T06:40:22Z</time>
      </trkpt>
      <trkpt lat="43.14998900000002" lon="-1.242684999999999">
        <ele>255.473</ele>
        <time>2022-08-24T06:40:23Z</time>
      </trkpt>
      <trkpt lat="43.14993900000002" lon="-1.242664999999999">
        <ele>255.497</ele>
        <time>2022-08-24T06:40:24Z</time>
      </trkpt>
      <trkpt lat="43.14989100000002" lon="-1.242641999999999">
        <ele>255.446</ele>
        <time>2022-08-24T06:40:25Z</time>
      </trkpt>
      <trkpt lat="43.14984500000002" lon="-1.242622999999999">
        <ele>255.425</ele>
        <time>2022-08-24T06:40:26Z</time>
      </trkpt>
      <trkpt lat="43.14980100000002" lon="-1.242602999999999">
        <ele>255.426</ele>
        <time>2022-08-24T06:40:27Z</time>
      </trkpt>
      <trkpt lat="43.149760000000015" lon="-1.242586999999999">
        <ele>255.408</ele>
        <time>2022-08-24T06:40:28Z</time>
      </trkpt>
      <trkpt lat="43.14972200000001" lon="-1.242575999999999">
        <ele>255.609</ele>
        <time>2022-08-24T06:40:29Z</time>
      </trkpt>
      <trkpt lat="43.14968500000001" lon="-1.242568999999999">
        <ele>255.683</ele>
        <time>2022-08-24T06:40:30Z</time>
      </trkpt>
      <trkpt lat="43.14965100000001" lon="-1.242562999999999">
        <ele>255.693</ele>
        <time>2022-08-24T06:40:31Z</time>
      </trkpt>
      <trkpt lat="43.14961800000001" lon="-1.242557999999999">
        <ele>255.633</ele>
        <time>2022-08-24T06:40:32Z</time>
      </trkpt>
      <trkpt lat="43.14958500000001" lon="-1.242552999999999">
        <ele>255.879</ele>
        <time>2022-08-24T06:40:33Z</time>
      </trkpt>
      <trkpt lat="43.14955300000001" lon="-1.242546999999999">
        <ele>255.861</ele>
        <time>2022-08-24T06:40:34Z</time>
      </trkpt>
      <trkpt lat="43.14948900000001" lon="-1.242535999999999">
        <ele>255.858</ele>
        <time>2022-08-24T06:40:36Z</time>
      </trkpt>
      <trkpt lat="43.14932100000001" lon="-1.242541999999999">
        <ele>256.481</ele>
        <time>2022-08-24T06:40:41Z</time>
      </trkpt>
      <trkpt lat="43.14925300000001" lon="-1.242548999999999">
        <ele>256.675</ele>
        <time>2022-08-24T06:40:43Z</time>
      </trkpt>
      <trkpt lat="43.14922100000001" lon="-1.242553999999999">
        <ele>256.684</ele>
        <time>2022-08-24T06:40:44Z</time>
      </trkpt>
      <trkpt lat="43.14919000000001" lon="-1.242555999999999">
        <ele>256.622</ele>
        <time>2022-08-24T06:40:45Z</time>
      </trkpt>
      <trkpt lat="43.14916200000001" lon="-1.242553999999999">
        <ele>256.662</ele>
        <time>2022-08-24T06:40:46Z</time>
      </trkpt>
      <trkpt lat="43.14913300000001" lon="-1.242555999999999">
        <ele>256.808</ele>
        <time>2022-08-24T06:40:47Z</time>
      </trkpt>
      <trkpt lat="43.149039000000016" lon="-1.2425499999999992">
        <ele>256.809</ele>
        <time>2022-08-24T06:40:50Z</time>
      </trkpt>
      <trkpt lat="43.14890900000002" lon="-1.2425199999999992">
        <ele>256.863</ele>
        <time>2022-08-24T06:40:54Z</time>
      </trkpt>
      <trkpt lat="43.14887500000002" lon="-1.2425189999999993">
        <ele>256.853</ele>
        <time>2022-08-24T06:40:55Z</time>
      </trkpt>
      <trkpt lat="43.14884100000002" lon="-1.2425159999999993">
        <ele>256.823</ele>
        <time>2022-08-24T06:40:56Z</time>
      </trkpt>
      <trkpt lat="43.148811000000016" lon="-1.2425079999999993">
        <ele>256.839</ele>
        <time>2022-08-24T06:40:57Z</time>
      </trkpt>
      <trkpt lat="43.14877900000002" lon="-1.2424999999999993">
        <ele>256.861</ele>
        <time>2022-08-24T06:40:58Z</time>
      </trkpt>
      <trkpt lat="43.14868500000002" lon="-1.2424859999999993">
        <ele>256.878</ele>
        <time>2022-08-24T06:41:01Z</time>
      </trkpt>
      <trkpt lat="43.14862400000002" lon="-1.2424709999999992">
        <ele>257.041</ele>
        <time>2022-08-24T06:41:03Z</time>
      </trkpt>
      <trkpt lat="43.14859100000002" lon="-1.2424649999999993">
        <ele>257.075</ele>
        <time>2022-08-24T06:41:04Z</time>
      </trkpt>
      <trkpt lat="43.14855900000002" lon="-1.2424599999999992">
        <ele>257.034</ele>
        <time>2022-08-24T06:41:05Z</time>
      </trkpt>
      <trkpt lat="43.14850000000002" lon="-1.2424579999999992">
        <ele>257.268</ele>
        <time>2022-08-24T06:41:07Z</time>
      </trkpt>
      <trkpt lat="43.14847200000002" lon="-1.2424569999999993">
        <ele>257.242</ele>
        <time>2022-08-24T06:41:08Z</time>
      </trkpt>
      <trkpt lat="43.14844500000002" lon="-1.2424539999999993">
        <ele>257.426</ele>
        <time>2022-08-24T06:41:09Z</time>
      </trkpt>
      <trkpt lat="43.148418000000014" lon="-1.2424519999999992">
        <ele>257.409</ele>
        <time>2022-08-24T06:41:10Z</time>
      </trkpt>
      <trkpt lat="43.148367000000015" lon="-1.2424519999999992">
        <ele>257.667</ele>
        <time>2022-08-24T06:41:12Z</time>
      </trkpt>
      <trkpt lat="43.14834000000001" lon="-1.2424519999999992">
        <ele>257.827</ele>
        <time>2022-08-24T06:41:13Z</time>
      </trkpt>
      <trkpt lat="43.148311000000014" lon="-1.2424549999999992">
        <ele>257.847</ele>
        <time>2022-08-24T06:41:14Z</time>
      </trkpt>
      <trkpt lat="43.148285000000016" lon="-1.2424559999999991">
        <ele>258.033</ele>
        <time>2022-08-24T06:41:15Z</time>
      </trkpt>
      <trkpt lat="43.148263000000014" lon="-1.242456999999999">
        <ele>258.235</ele>
        <time>2022-08-24T06:41:16Z</time>
      </trkpt>
      <trkpt lat="43.14824100000001" lon="-1.242454999999999">
        <ele>258.482</ele>
        <time>2022-08-24T06:41:17Z</time>
      </trkpt>
      <trkpt lat="43.148220000000016" lon="-1.242455999999999">
        <ele>258.665</ele>
        <time>2022-08-24T06:41:18Z</time>
      </trkpt>
      <trkpt lat="43.148201000000014" lon="-1.2424589999999989">
        <ele>258.689</ele>
        <time>2022-08-24T06:41:19Z</time>
      </trkpt>
      <trkpt lat="43.14818300000002" lon="-1.2424589999999989">
        <ele>259.068</ele>
        <time>2022-08-24T06:41:20Z</time>
      </trkpt>
      <trkpt lat="43.14816200000002" lon="-1.2424589999999989">
        <ele>259.084</ele>
        <time>2022-08-24T06:41:21Z</time>
      </trkpt>
      <trkpt lat="43.14814900000002" lon="-1.2424669999999989">
        <ele>259.407</ele>
        <time>2022-08-24T06:41:22Z</time>
      </trkpt>
      <trkpt lat="43.148136000000015" lon="-1.2424759999999988">
        <ele>259.617</ele>
        <time>2022-08-24T06:41:23Z</time>
      </trkpt>
      <trkpt lat="43.14812100000002" lon="-1.2424819999999988">
        <ele>259.609</ele>
        <time>2022-08-24T06:41:24Z</time>
      </trkpt>
      <trkpt lat="43.14810700000002" lon="-1.2424859999999986">
        <ele>260.099</ele>
        <time>2022-08-24T06:41:25Z</time>
      </trkpt>
      <trkpt lat="43.14809300000002" lon="-1.2424909999999987">
        <ele>260.229</ele>
        <time>2022-08-24T06:41:26Z</time>
      </trkpt>
      <trkpt lat="43.14807900000002" lon="-1.2424989999999987">
        <ele>260.449</ele>
        <time>2022-08-24T06:41:27Z</time>
      </trkpt>
      <trkpt lat="43.14806500000002" lon="-1.2425049999999986">
        <ele>260.695</ele>
        <time>2022-08-24T06:41:28Z</time>
      </trkpt>
      <trkpt lat="43.14804800000002" lon="-1.2425109999999986">
        <ele>261.037</ele>
        <time>2022-08-24T06:41:29Z</time>
      </trkpt>
      <trkpt lat="43.14803000000002" lon="-1.2425179999999987">
        <ele>261.244</ele>
        <time>2022-08-24T06:41:30Z</time>
      </trkpt>
      <trkpt lat="43.14801500000002" lon="-1.2425249999999988">
        <ele>261.647</ele>
        <time>2022-08-24T06:41:31Z</time>
      </trkpt>
      <trkpt lat="43.14799600000002" lon="-1.2425309999999987">
        <ele>261.851</ele>
        <time>2022-08-24T06:41:32Z</time>
      </trkpt>
      <trkpt lat="43.14797800000002" lon="-1.2425359999999988">
        <ele>262.020</ele>
        <time>2022-08-24T06:41:33Z</time>
      </trkpt>
      <trkpt lat="43.14795900000002" lon="-1.2425409999999988">
        <ele>262.487</ele>
        <time>2022-08-24T06:41:34Z</time>
      </trkpt>
      <trkpt lat="43.14794200000002" lon="-1.2425439999999988">
        <ele>262.642</ele>
        <time>2022-08-24T06:41:35Z</time>
      </trkpt>
      <trkpt lat="43.14792300000002" lon="-1.2425459999999988">
        <ele>262.826</ele>
        <time>2022-08-24T06:41:36Z</time>
      </trkpt>
      <trkpt lat="43.14790500000002" lon="-1.2425479999999989">
        <ele>263.009</ele>
        <time>2022-08-24T06:41:37Z</time>
      </trkpt>
      <trkpt lat="43.147887000000026" lon="-1.242552999999999">
        <ele>263.279</ele>
        <time>2022-08-24T06:41:38Z</time>
      </trkpt>
      <trkpt lat="43.14786900000003" lon="-1.242554999999999">
        <ele>263.439</ele>
        <time>2022-08-24T06:41:39Z</time>
      </trkpt>
      <trkpt lat="43.14785000000003" lon="-1.242554999999999">
        <ele>263.439</ele>
        <time>2022-08-24T06:41:40Z</time>
      </trkpt>
      <trkpt lat="43.14783300000003" lon="-1.242560999999999">
        <ele>263.655</ele>
        <time>2022-08-24T06:41:41Z</time>
      </trkpt>
      <trkpt lat="43.147811000000026" lon="-1.242562999999999">
        <ele>263.897</ele>
        <time>2022-08-24T06:41:42Z</time>
      </trkpt>
      <trkpt lat="43.14779300000003" lon="-1.242565999999999">
        <ele>264.064</ele>
        <time>2022-08-24T06:41:43Z</time>
      </trkpt>
      <trkpt lat="43.14777500000003" lon="-1.242567999999999">
        <ele>264.257</ele>
        <time>2022-08-24T06:41:44Z</time>
      </trkpt>
      <trkpt lat="43.14775800000003" lon="-1.242568999999999">
        <ele>264.421</ele>
        <time>2022-08-24T06:41:45Z</time>
      </trkpt>
      <trkpt lat="43.14774200000003" lon="-1.2425669999999989">
        <ele>264.630</ele>
        <time>2022-08-24T06:41:46Z</time>
      </trkpt>
      <trkpt lat="43.14772500000003" lon="-1.2425699999999988">
        <ele>264.884</ele>
        <time>2022-08-24T06:41:47Z</time>
      </trkpt>
      <trkpt lat="43.14770500000003" lon="-1.242571999999999">
        <ele>265.207</ele>
        <time>2022-08-24T06:41:48Z</time>
      </trkpt>
      <trkpt lat="43.147684000000034" lon="-1.2425729999999988">
        <ele>265.217</ele>
        <time>2022-08-24T06:41:49Z</time>
      </trkpt>
      <trkpt lat="43.14767000000003" lon="-1.2425739999999987">
        <ele>265.409</ele>
        <time>2022-08-24T06:41:50Z</time>
      </trkpt>
      <trkpt lat="43.14765100000003" lon="-1.2425729999999988">
        <ele>265.649</ele>
        <time>2022-08-24T06:41:51Z</time>
      </trkpt>
      <trkpt lat="43.147633000000035" lon="-1.2425729999999988">
        <ele>265.829</ele>
        <time>2022-08-24T06:41:52Z</time>
      </trkpt>
      <trkpt lat="43.14761500000004" lon="-1.2425709999999988">
        <ele>266.289</ele>
        <time>2022-08-24T06:41:53Z</time>
      </trkpt>
      <trkpt lat="43.14759800000004" lon="-1.2425679999999988">
        <ele>266.465</ele>
        <time>2022-08-24T06:41:54Z</time>
      </trkpt>
      <trkpt lat="43.14758000000004" lon="-1.2425679999999988">
        <ele>266.657</ele>
        <time>2022-08-24T06:41:55Z</time>
      </trkpt>
      <trkpt lat="43.14756300000004" lon="-1.242563999999999">
        <ele>266.644</ele>
        <time>2022-08-24T06:41:56Z</time>
      </trkpt>
      <trkpt lat="43.14754000000004" lon="-1.2425619999999988">
        <ele>266.867</ele>
        <time>2022-08-24T06:41:57Z</time>
      </trkpt>
      <trkpt lat="43.147522000000045" lon="-1.242557999999999">
        <ele>266.871</ele>
        <time>2022-08-24T06:41:58Z</time>
      </trkpt>
      <trkpt lat="43.14750400000005" lon="-1.242556999999999">
        <ele>267.080</ele>
        <time>2022-08-24T06:41:59Z</time>
      </trkpt>
      <trkpt lat="43.14748600000005" lon="-1.242555999999999">
        <ele>267.064</ele>
        <time>2022-08-24T06:42:00Z</time>
      </trkpt>
      <trkpt lat="43.14747000000005" lon="-1.242555999999999">
        <ele>267.206</ele>
        <time>2022-08-24T06:42:01Z</time>
      </trkpt>
      <trkpt lat="43.147454000000046" lon="-1.242550999999999">
        <ele>267.416</ele>
        <time>2022-08-24T06:42:02Z</time>
      </trkpt>
      <trkpt lat="43.147437000000046" lon="-1.242547999999999">
        <ele>267.609</ele>
        <time>2022-08-24T06:42:03Z</time>
      </trkpt>
      <trkpt lat="43.147418000000044" lon="-1.2425469999999992">
        <ele>268.067</ele>
        <time>2022-08-24T06:42:04Z</time>
      </trkpt>
      <trkpt lat="43.14740000000005" lon="-1.2425449999999991">
        <ele>268.047</ele>
        <time>2022-08-24T06:42:05Z</time>
      </trkpt>
      <trkpt lat="43.147381000000046" lon="-1.2425439999999992">
        <ele>268.457</ele>
        <time>2022-08-24T06:42:06Z</time>
      </trkpt>
      <trkpt lat="43.147364000000046" lon="-1.2425399999999993">
        <ele>268.473</ele>
        <time>2022-08-24T06:42:07Z</time>
      </trkpt>
      <trkpt lat="43.14734900000005" lon="-1.2425369999999993">
        <ele>268.845</ele>
        <time>2022-08-24T06:42:08Z</time>
      </trkpt>
      <trkpt lat="43.147330000000046" lon="-1.2425329999999994">
        <ele>269.052</ele>
        <time>2022-08-24T06:42:09Z</time>
      </trkpt>
      <trkpt lat="43.147311000000045" lon="-1.2425229999999994">
        <ele>269.075</ele>
        <time>2022-08-24T06:42:10Z</time>
      </trkpt>
      <trkpt lat="43.147294000000045" lon="-1.2425159999999993">
        <ele>269.249</ele>
        <time>2022-08-24T06:42:11Z</time>
      </trkpt>
      <trkpt lat="43.14727800000004" lon="-1.2425139999999992">
        <ele>269.258</ele>
        <time>2022-08-24T06:42:12Z</time>
      </trkpt>
      <trkpt lat="43.14726200000004" lon="-1.2425109999999993">
        <ele>269.484</ele>
        <time>2022-08-24T06:42:13Z</time>
      </trkpt>
      <trkpt lat="43.14724600000004" lon="-1.2425089999999992">
        <ele>269.607</ele>
        <time>2022-08-24T06:42:14Z</time>
      </trkpt>
      <trkpt lat="43.14722800000004" lon="-1.2425009999999992">
        <ele>269.817</ele>
        <time>2022-08-24T06:42:15Z</time>
      </trkpt>
      <trkpt lat="43.14721300000004" lon="-1.2424949999999992">
        <ele>270.009</ele>
        <time>2022-08-24T06:42:16Z</time>
      </trkpt>
      <trkpt lat="43.14719900000004" lon="-1.2424879999999991">
        <ele>270.299</ele>
        <time>2022-08-24T06:42:17Z</time>
      </trkpt>
      <trkpt lat="43.14718200000004" lon="-1.242485999999999">
        <ele>270.479</ele>
        <time>2022-08-24T06:42:18Z</time>
      </trkpt>
      <trkpt lat="43.147167000000046" lon="-1.2424829999999991">
        <ele>270.459</ele>
        <time>2022-08-24T06:42:19Z</time>
      </trkpt>
      <trkpt lat="43.147150000000046" lon="-1.242474999999999">
        <ele>270.635</ele>
        <time>2022-08-24T06:42:20Z</time>
      </trkpt>
      <trkpt lat="43.14713500000005" lon="-1.2424689999999992">
        <ele>270.827</ele>
        <time>2022-08-24T06:42:21Z</time>
      </trkpt>
      <trkpt lat="43.14712000000005" lon="-1.2424599999999992">
        <ele>271.264</ele>
        <time>2022-08-24T06:42:22Z</time>
      </trkpt>
      <trkpt lat="43.14710400000005" lon="-1.2424519999999992">
        <ele>271.257</ele>
        <time>2022-08-24T06:42:23Z</time>
      </trkpt>
      <trkpt lat="43.14708900000005" lon="-1.2424439999999992">
        <ele>271.691</ele>
        <time>2022-08-24T06:42:24Z</time>
      </trkpt>
      <trkpt lat="43.14707300000005" lon="-1.2424369999999991">
        <ele>271.870</ele>
        <time>2022-08-24T06:42:25Z</time>
      </trkpt>
      <trkpt lat="43.14705600000005" lon="-1.242429999999999">
        <ele>272.074</ele>
        <time>2022-08-24T06:42:26Z</time>
      </trkpt>
      <trkpt lat="43.14704000000005" lon="-1.242423999999999">
        <ele>272.456</ele>
        <time>2022-08-24T06:42:27Z</time>
      </trkpt>
      <trkpt lat="43.147024000000044" lon="-1.2424179999999991">
        <ele>272.421</ele>
        <time>2022-08-24T06:42:28Z</time>
      </trkpt>
      <trkpt lat="43.14700800000004" lon="-1.242412999999999">
        <ele>272.609</ele>
        <time>2022-08-24T06:42:29Z</time>
      </trkpt>
      <trkpt lat="43.14699200000004" lon="-1.2424069999999992">
        <ele>272.858</ele>
        <time>2022-08-24T06:42:30Z</time>
      </trkpt>
      <trkpt lat="43.14697500000004" lon="-1.2423989999999991">
        <ele>273.048</ele>
        <time>2022-08-24T06:42:31Z</time>
      </trkpt>
      <trkpt lat="43.14696100000004" lon="-1.2423869999999992">
        <ele>273.488</ele>
        <time>2022-08-24T06:42:32Z</time>
      </trkpt>
      <trkpt lat="43.14694500000004" lon="-1.2423739999999992">
        <ele>273.464</ele>
        <time>2022-08-24T06:42:33Z</time>
      </trkpt>
      <trkpt lat="43.146929000000036" lon="-1.2423659999999992">
        <ele>273.686</ele>
        <time>2022-08-24T06:42:34Z</time>
      </trkpt>
      <trkpt lat="43.14691400000004" lon="-1.2423609999999992">
        <ele>274.053</ele>
        <time>2022-08-24T06:42:35Z</time>
      </trkpt>
      <trkpt lat="43.14690000000004" lon="-1.2423529999999992">
        <ele>274.226</ele>
        <time>2022-08-24T06:42:36Z</time>
      </trkpt>
      <trkpt lat="43.14688300000004" lon="-1.2423419999999992">
        <ele>274.240</ele>
        <time>2022-08-24T06:42:37Z</time>
      </trkpt>
      <trkpt lat="43.14686900000004" lon="-1.242331999999999">
        <ele>274.489</ele>
        <time>2022-08-24T06:42:38Z</time>
      </trkpt>
      <trkpt lat="43.14685500000004" lon="-1.242324999999999">
        <ele>274.631</ele>
        <time>2022-08-24T06:42:39Z</time>
      </trkpt>
      <trkpt lat="43.14684000000004" lon="-1.242316999999999">
        <ele>274.661</ele>
        <time>2022-08-24T06:42:40Z</time>
      </trkpt>
      <trkpt lat="43.14682500000004" lon="-1.242310999999999">
        <ele>274.807</ele>
        <time>2022-08-24T06:42:41Z</time>
      </trkpt>
      <trkpt lat="43.146810000000045" lon="-1.2422989999999992">
        <ele>274.809</ele>
        <time>2022-08-24T06:42:42Z</time>
      </trkpt>
      <trkpt lat="43.146796000000045" lon="-1.242288999999999">
        <ele>275.244</ele>
        <time>2022-08-24T06:42:43Z</time>
      </trkpt>
      <trkpt lat="43.146782000000044" lon="-1.2422829999999991">
        <ele>275.264</ele>
        <time>2022-08-24T06:42:44Z</time>
      </trkpt>
      <trkpt lat="43.146770000000046" lon="-1.2422739999999992">
        <ele>275.424</ele>
        <time>2022-08-24T06:42:45Z</time>
      </trkpt>
      <trkpt lat="43.14675700000004" lon="-1.2422669999999991">
        <ele>275.680</ele>
        <time>2022-08-24T06:42:46Z</time>
      </trkpt>
      <trkpt lat="43.14674300000004" lon="-1.242253999999999">
        <ele>275.652</ele>
        <time>2022-08-24T06:42:47Z</time>
      </trkpt>
      <trkpt lat="43.14672900000004" lon="-1.242242999999999">
        <ele>275.829</ele>
        <time>2022-08-24T06:42:48Z</time>
      </trkpt>
      <trkpt lat="43.14671500000004" lon="-1.2422339999999992">
        <ele>275.882</ele>
        <time>2022-08-24T06:42:49Z</time>
      </trkpt>
      <trkpt lat="43.146703000000045" lon="-1.242223999999999">
        <ele>276.046</ele>
        <time>2022-08-24T06:42:50Z</time>
      </trkpt>
      <trkpt lat="43.14668700000004" lon="-1.242210999999999">
        <ele>276.055</ele>
        <time>2022-08-24T06:42:51Z</time>
      </trkpt>
      <trkpt lat="43.146672000000045" lon="-1.2421989999999992">
        <ele>276.273</ele>
        <time>2022-08-24T06:42:52Z</time>
      </trkpt>
      <trkpt lat="43.14665600000004" lon="-1.2421859999999991">
        <ele>276.285</ele>
        <time>2022-08-24T06:42:53Z</time>
      </trkpt>
      <trkpt lat="43.14664000000004" lon="-1.2421769999999992">
        <ele>276.413</ele>
        <time>2022-08-24T06:42:54Z</time>
      </trkpt>
      <trkpt lat="43.14662100000004" lon="-1.2421709999999992">
        <ele>276.609</ele>
        <time>2022-08-24T06:42:55Z</time>
      </trkpt>
      <trkpt lat="43.14660000000004" lon="-1.2421659999999992">
        <ele>276.898</ele>
        <time>2022-08-24T06:42:56Z</time>
      </trkpt>
      <trkpt lat="43.14657800000004" lon="-1.2421589999999991">
        <ele>277.028</ele>
        <time>2022-08-24T06:42:57Z</time>
      </trkpt>
      <trkpt lat="43.14655900000004" lon="-1.2421499999999992">
        <ele>277.278</ele>
        <time>2022-08-24T06:42:58Z</time>
      </trkpt>
      <trkpt lat="43.14654100000004" lon="-1.242134999999999">
        <ele>277.464</ele>
        <time>2022-08-24T06:42:59Z</time>
      </trkpt>
      <trkpt lat="43.14652400000004" lon="-1.242115999999999">
        <ele>277.686</ele>
        <time>2022-08-24T06:43:00Z</time>
      </trkpt>
      <trkpt lat="43.146506000000045" lon="-1.2421039999999992">
        <ele>278.043</ele>
        <time>2022-08-24T06:43:01Z</time>
      </trkpt>
      <trkpt lat="43.14648800000005" lon="-1.2420989999999992">
        <ele>278.236</ele>
        <time>2022-08-24T06:43:02Z</time>
      </trkpt>
      <trkpt lat="43.14647000000005" lon="-1.2420849999999992">
        <ele>278.270</ele>
        <time>2022-08-24T06:43:03Z</time>
      </trkpt>
      <trkpt lat="43.14645200000005" lon="-1.2420619999999991">
        <ele>278.679</ele>
        <time>2022-08-24T06:43:04Z</time>
      </trkpt>
      <trkpt lat="43.146434000000056" lon="-1.242040999999999">
        <ele>278.676</ele>
        <time>2022-08-24T06:43:05Z</time>
      </trkpt>
      <trkpt lat="43.14641900000006" lon="-1.242018999999999">
        <ele>278.890</ele>
        <time>2022-08-24T06:43:06Z</time>
      </trkpt>
      <trkpt lat="43.146403000000056" lon="-1.241997999999999">
        <ele>278.819</ele>
        <time>2022-08-24T06:43:07Z</time>
      </trkpt>
      <trkpt lat="43.14638800000006" lon="-1.241976999999999">
        <ele>279.009</ele>
        <time>2022-08-24T06:43:08Z</time>
      </trkpt>
      <trkpt lat="43.14637000000006" lon="-1.241956999999999">
        <ele>279.238</ele>
        <time>2022-08-24T06:43:09Z</time>
      </trkpt>
      <trkpt lat="43.14635400000006" lon="-1.241938999999999">
        <ele>279.458</ele>
        <time>2022-08-24T06:43:10Z</time>
      </trkpt>
      <trkpt lat="43.14634000000006" lon="-1.241920999999999">
        <ele>279.618</ele>
        <time>2022-08-24T06:43:11Z</time>
      </trkpt>
      <trkpt lat="43.14632600000006" lon="-1.2419029999999989">
        <ele>279.664</ele>
        <time>2022-08-24T06:43:12Z</time>
      </trkpt>
      <trkpt lat="43.146313000000056" lon="-1.241882999999999">
        <ele>279.896</ele>
        <time>2022-08-24T06:43:13Z</time>
      </trkpt>
      <trkpt lat="43.14630000000005" lon="-1.241863999999999">
        <ele>279.843</ele>
        <time>2022-08-24T06:43:14Z</time>
      </trkpt>
      <trkpt lat="43.14628400000005" lon="-1.241847999999999">
        <ele>280.076</ele>
        <time>2022-08-24T06:43:15Z</time>
      </trkpt>
      <trkpt lat="43.14627000000005" lon="-1.2418299999999989">
        <ele>280.220</ele>
        <time>2022-08-24T06:43:16Z</time>
      </trkpt>
      <trkpt lat="43.14625500000005" lon="-1.241812999999999">
        <ele>280.439</ele>
        <time>2022-08-24T06:43:17Z</time>
      </trkpt>
      <trkpt lat="43.146240000000056" lon="-1.2417979999999988">
        <ele>280.437</ele>
        <time>2022-08-24T06:43:18Z</time>
      </trkpt>
      <trkpt lat="43.14622700000005" lon="-1.2417799999999988">
        <ele>280.649</ele>
        <time>2022-08-24T06:43:19Z</time>
      </trkpt>
      <trkpt lat="43.14621400000005" lon="-1.2417599999999989">
        <ele>280.613</ele>
        <time>2022-08-24T06:43:20Z</time>
      </trkpt>
      <trkpt lat="43.14620100000005" lon="-1.2417419999999988">
        <ele>280.809</ele>
        <time>2022-08-24T06:43:21Z</time>
      </trkpt>
      <trkpt lat="43.14618600000005" lon="-1.2417259999999988">
        <ele>281.034</ele>
        <time>2022-08-24T06:43:22Z</time>
      </trkpt>
      <trkpt lat="43.14617200000005" lon="-1.2417099999999988">
        <ele>281.064</ele>
        <time>2022-08-24T06:43:23Z</time>
      </trkpt>
      <trkpt lat="43.14615700000005" lon="-1.2416929999999988">
        <ele>281.254</ele>
        <time>2022-08-24T06:43:24Z</time>
      </trkpt>
      <trkpt lat="43.14614300000005" lon="-1.2416749999999988">
        <ele>281.280</ele>
        <time>2022-08-24T06:43:25Z</time>
      </trkpt>
      <trkpt lat="43.14612700000005" lon="-1.2416569999999987">
        <ele>281.492</ele>
        <time>2022-08-24T06:43:26Z</time>
      </trkpt>
      <trkpt lat="43.14611200000005" lon="-1.2416399999999987">
        <ele>281.479</ele>
        <time>2022-08-24T06:43:27Z</time>
      </trkpt>
      <trkpt lat="43.146097000000054" lon="-1.2416199999999988">
        <ele>281.432</ele>
        <time>2022-08-24T06:43:28Z</time>
      </trkpt>
      <trkpt lat="43.14608400000005" lon="-1.2416009999999988">
        <ele>281.676</ele>
        <time>2022-08-24T06:43:29Z</time>
      </trkpt>
      <trkpt lat="43.14606700000005" lon="-1.241580999999999">
        <ele>281.675</ele>
        <time>2022-08-24T06:43:30Z</time>
      </trkpt>
      <trkpt lat="43.146049000000055" lon="-1.241558999999999">
        <ele>281.651</ele>
        <time>2022-08-24T06:43:31Z</time>
      </trkpt>
      <trkpt lat="43.146032000000055" lon="-1.241534999999999">
        <ele>281.601</ele>
        <time>2022-08-24T06:43:32Z</time>
      </trkpt>
      <trkpt lat="43.146015000000055" lon="-1.2415119999999988">
        <ele>281.811</ele>
        <time>2022-08-24T06:43:33Z</time>
      </trkpt>
      <trkpt lat="43.145998000000056" lon="-1.241486999999999">
        <ele>281.809</ele>
        <time>2022-08-24T06:43:34Z</time>
      </trkpt>
      <trkpt lat="43.145979000000054" lon="-1.2414659999999988">
        <ele>281.866</ele>
        <time>2022-08-24T06:43:35Z</time>
      </trkpt>
      <trkpt lat="43.145962000000054" lon="-1.2414479999999988">
        <ele>281.696</ele>
        <time>2022-08-24T06:43:36Z</time>
      </trkpt>
      <trkpt lat="43.145948000000054" lon="-1.2414289999999988">
        <ele>281.896</ele>
        <time>2022-08-24T06:43:37Z</time>
      </trkpt>
      <trkpt lat="43.145934000000054" lon="-1.2414099999999988">
        <ele>282.052</ele>
        <time>2022-08-24T06:43:38Z</time>
      </trkpt>
      <trkpt lat="43.145917000000054" lon="-1.2413939999999988">
        <ele>282.064</ele>
        <time>2022-08-24T06:43:39Z</time>
      </trkpt>
      <trkpt lat="43.14590100000005" lon="-1.2413749999999988">
        <ele>282.251</ele>
        <time>2022-08-24T06:43:40Z</time>
      </trkpt>
      <trkpt lat="43.145886000000054" lon="-1.2413539999999987">
        <ele>283.084</ele>
        <time>2022-08-24T06:43:41Z</time>
      </trkpt>
      <trkpt lat="43.14587300000005" lon="-1.2413349999999987">
        <ele>283.448</ele>
        <time>2022-08-24T06:43:42Z</time>
      </trkpt>
      <trkpt lat="43.145844000000054" lon="-1.2412979999999987">
        <ele>283.887</ele>
        <time>2022-08-24T06:43:44Z</time>
      </trkpt>
      <trkpt lat="43.145827000000054" lon="-1.2412779999999988">
        <ele>283.872</ele>
        <time>2022-08-24T06:43:45Z</time>
      </trkpt>
      <trkpt lat="43.145812000000056" lon="-1.2412619999999988">
        <ele>283.813</ele>
        <time>2022-08-24T06:43:46Z</time>
      </trkpt>
      <trkpt lat="43.14579700000006" lon="-1.2412459999999987">
        <ele>283.814</ele>
        <time>2022-08-24T06:43:47Z</time>
      </trkpt>
      <trkpt lat="43.14578300000006" lon="-1.2412319999999988">
        <ele>284.009</ele>
        <time>2022-08-24T06:43:48Z</time>
      </trkpt>
      <trkpt lat="43.14576900000006" lon="-1.2412189999999987">
        <ele>284.078</ele>
        <time>2022-08-24T06:43:49Z</time>
      </trkpt>
      <trkpt lat="43.14575400000006" lon="-1.2412009999999987">
        <ele>284.028</ele>
        <time>2022-08-24T06:43:50Z</time>
      </trkpt>
      <trkpt lat="43.14573900000006" lon="-1.2411809999999988">
        <ele>284.058</ele>
        <time>2022-08-24T06:43:51Z</time>
      </trkpt>
      <trkpt lat="43.14572200000006" lon="-1.2411619999999988">
        <ele>284.064</ele>
        <time>2022-08-24T06:43:52Z</time>
      </trkpt>
      <trkpt lat="43.14570600000006" lon="-1.2411409999999987">
        <ele>284.066</ele>
        <time>2022-08-24T06:43:53Z</time>
      </trkpt>
      <trkpt lat="43.14569000000006" lon="-1.2411219999999987">
        <ele>284.213</ele>
        <time>2022-08-24T06:43:54Z</time>
      </trkpt>
      <trkpt lat="43.14567400000006" lon="-1.2411019999999988">
        <ele>284.226</ele>
        <time>2022-08-24T06:43:55Z</time>
      </trkpt>
      <trkpt lat="43.145658000000054" lon="-1.2410839999999987">
        <ele>284.220</ele>
        <time>2022-08-24T06:43:56Z</time>
      </trkpt>
      <trkpt lat="43.145644000000054" lon="-1.2410679999999987">
        <ele>284.419</ele>
        <time>2022-08-24T06:43:57Z</time>
      </trkpt>
      <trkpt lat="43.14562800000005" lon="-1.2410499999999987">
        <ele>284.454</ele>
        <time>2022-08-24T06:43:58Z</time>
      </trkpt>
      <trkpt lat="43.14561400000005" lon="-1.2410289999999986">
        <ele>284.656</ele>
        <time>2022-08-24T06:43:59Z</time>
      </trkpt>
      <trkpt lat="43.14560100000005" lon="-1.2410109999999985">
        <ele>284.611</ele>
        <time>2022-08-24T06:44:00Z</time>
      </trkpt>
      <trkpt lat="43.14558600000005" lon="-1.2409979999999985">
        <ele>284.609</ele>
        <time>2022-08-24T06:44:01Z</time>
      </trkpt>
      <trkpt lat="43.14557200000005" lon="-1.2409839999999985">
        <ele>284.856</ele>
        <time>2022-08-24T06:44:02Z</time>
      </trkpt>
      <trkpt lat="43.14555700000005" lon="-1.2409679999999985">
        <ele>284.876</ele>
        <time>2022-08-24T06:44:03Z</time>
      </trkpt>
      <trkpt lat="43.145520000000054" lon="-1.2409399999999986">
        <ele>285.026</ele>
        <time>2022-08-24T06:44:05Z</time>
      </trkpt>
      <trkpt lat="43.14550400000005" lon="-1.2409219999999985">
        <ele>285.052</ele>
        <time>2022-08-24T06:44:06Z</time>
      </trkpt>
      <trkpt lat="43.14548800000005" lon="-1.2409049999999986">
        <ele>285.054</ele>
        <time>2022-08-24T06:44:07Z</time>
      </trkpt>
      <trkpt lat="43.14544000000005" lon="-1.2408609999999987">
        <ele>285.261</ele>
        <time>2022-08-24T06:44:10Z</time>
      </trkpt>
      <trkpt lat="43.14542400000005" lon="-1.2408409999999988">
        <ele>285.454</ele>
        <time>2022-08-24T06:44:11Z</time>
      </trkpt>
      <trkpt lat="43.14538900000005" lon="-1.2408049999999988">
        <ele>285.488</ele>
        <time>2022-08-24T06:44:13Z</time>
      </trkpt>
      <trkpt lat="43.14537300000005" lon="-1.2407909999999989">
        <ele>285.667</ele>
        <time>2022-08-24T06:44:14Z</time>
      </trkpt>
      <trkpt lat="43.14532800000005" lon="-1.2407479999999989">
        <ele>285.897</ele>
        <time>2022-08-24T06:44:17Z</time>
      </trkpt>
      <trkpt lat="43.14527600000005" lon="-1.240703999999999">
        <ele>286.023</ele>
        <time>2022-08-24T06:44:20Z</time>
      </trkpt>
      <trkpt lat="43.14525900000005" lon="-1.2406889999999988">
        <ele>286.025</ele>
        <time>2022-08-24T06:44:21Z</time>
      </trkpt>
      <trkpt lat="43.14522500000005" lon="-1.240657999999999">
        <ele>286.209</ele>
        <time>2022-08-24T06:44:23Z</time>
      </trkpt>
      <trkpt lat="43.145207000000056" lon="-1.240641999999999">
        <ele>286.290</ele>
        <time>2022-08-24T06:44:24Z</time>
      </trkpt>
      <trkpt lat="43.145174000000054" lon="-1.2406179999999989">
        <ele>286.430</ele>
        <time>2022-08-24T06:44:26Z</time>
      </trkpt>
      <trkpt lat="43.145157000000054" lon="-1.240603999999999">
        <ele>286.620</ele>
        <time>2022-08-24T06:44:27Z</time>
      </trkpt>
      <trkpt lat="43.14514200000006" lon="-1.2405889999999988">
        <ele>286.676</ele>
        <time>2022-08-24T06:44:28Z</time>
      </trkpt>
      <trkpt lat="43.145123000000055" lon="-1.2405739999999987">
        <ele>286.688</ele>
        <time>2022-08-24T06:44:29Z</time>
      </trkpt>
      <trkpt lat="43.145089000000056" lon="-1.2405479999999987">
        <ele>286.885</ele>
        <time>2022-08-24T06:44:31Z</time>
      </trkpt>
      <trkpt lat="43.14499000000006" lon="-1.2404719999999987">
        <ele>287.238</ele>
        <time>2022-08-24T06:44:37Z</time>
      </trkpt>
      <trkpt lat="43.144974000000055" lon="-1.2404579999999987">
        <ele>287.442</ele>
        <time>2022-08-24T06:44:38Z</time>
      </trkpt>
      <trkpt lat="43.144870000000054" lon="-1.2403879999999987">
        <ele>287.821</ele>
        <time>2022-08-24T06:44:44Z</time>
      </trkpt>
      <trkpt lat="43.14485100000005" lon="-1.2403789999999988">
        <ele>288.088</ele>
        <time>2022-08-24T06:44:45Z</time>
      </trkpt>
      <trkpt lat="43.14483200000005" lon="-1.2403679999999988">
        <ele>288.024</ele>
        <time>2022-08-24T06:44:46Z</time>
      </trkpt>
      <trkpt lat="43.14479800000005" lon="-1.2403489999999988">
        <ele>288.226</ele>
        <time>2022-08-24T06:44:48Z</time>
      </trkpt>
      <trkpt lat="43.14478100000005" lon="-1.2403409999999988">
        <ele>288.409</ele>
        <time>2022-08-24T06:44:49Z</time>
      </trkpt>
      <trkpt lat="43.14474500000005" lon="-1.2403249999999988">
        <ele>288.439</ele>
        <time>2022-08-24T06:44:51Z</time>
      </trkpt>
      <trkpt lat="43.14467700000005" lon="-1.240285999999999">
        <ele>289.289</ele>
        <time>2022-08-24T06:44:55Z</time>
      </trkpt>
      <trkpt lat="43.14466000000005" lon="-1.2402759999999988">
        <ele>289.269</ele>
        <time>2022-08-24T06:44:56Z</time>
      </trkpt>
      <trkpt lat="43.14464400000005" lon="-1.2402689999999987">
        <ele>289.635</ele>
        <time>2022-08-24T06:44:57Z</time>
      </trkpt>
      <trkpt lat="43.14462800000005" lon="-1.2402609999999987">
        <ele>289.637</ele>
        <time>2022-08-24T06:44:58Z</time>
      </trkpt>
      <trkpt lat="43.14461300000005" lon="-1.2402579999999988">
        <ele>289.844</ele>
        <time>2022-08-24T06:44:59Z</time>
      </trkpt>
      <trkpt lat="43.14460000000005" lon="-1.2402529999999987">
        <ele>290.077</ele>
        <time>2022-08-24T06:45:00Z</time>
      </trkpt>
      <trkpt lat="43.14458600000005" lon="-1.2402439999999988">
        <ele>290.261</ele>
        <time>2022-08-24T06:45:01Z</time>
      </trkpt>
      <trkpt lat="43.14457100000005" lon="-1.2402349999999989">
        <ele>290.290</ele>
        <time>2022-08-24T06:45:02Z</time>
      </trkpt>
      <trkpt lat="43.14455400000005" lon="-1.240225999999999">
        <ele>290.423</ele>
        <time>2022-08-24T06:45:03Z</time>
      </trkpt>
      <trkpt lat="43.14452200000005" lon="-1.2402109999999988">
        <ele>290.683</ele>
        <time>2022-08-24T06:45:04Z</time>
      </trkpt>
      <trkpt lat="43.14452200000005" lon="-1.2402109999999988">
        <ele>290.611</ele>
        <time>2022-08-24T06:45:05Z</time>
      </trkpt>
      <trkpt lat="43.14448800000005" lon="-1.2401949999999988">
        <ele>291.009</ele>
        <time>2022-08-24T06:45:06Z</time>
      </trkpt>
      <trkpt lat="43.14448800000005" lon="-1.2401949999999988">
        <ele>291.063</ele>
        <time>2022-08-24T06:45:07Z</time>
      </trkpt>
      <trkpt lat="43.144453000000055" lon="-1.2401789999999988">
        <ele>291.483</ele>
        <time>2022-08-24T06:45:08Z</time>
      </trkpt>
      <trkpt lat="43.144434000000054" lon="-1.2401769999999988">
        <ele>291.473</ele>
        <time>2022-08-24T06:45:09Z</time>
      </trkpt>
      <trkpt lat="43.144434000000054" lon="-1.2401769999999988">
        <ele>291.689</ele>
        <time>2022-08-24T06:45:10Z</time>
      </trkpt>
      <trkpt lat="43.144397000000055" lon="-1.2401659999999988">
        <ele>291.691</ele>
        <time>2022-08-24T06:45:11Z</time>
      </trkpt>
      <trkpt lat="43.144397000000055" lon="-1.2401659999999988">
        <ele>291.838</ele>
        <time>2022-08-24T06:45:12Z</time>
      </trkpt>
      <trkpt lat="43.144360000000056" lon="-1.2401579999999988">
        <ele>292.061</ele>
        <time>2022-08-24T06:45:13Z</time>
      </trkpt>
      <trkpt lat="43.14433900000006" lon="-1.2401529999999987">
        <ele>292.025</ele>
        <time>2022-08-24T06:45:14Z</time>
      </trkpt>
      <trkpt lat="43.14432000000006" lon="-1.2401479999999987">
        <ele>292.274</ele>
        <time>2022-08-24T06:45:15Z</time>
      </trkpt>
      <trkpt lat="43.144298000000056" lon="-1.2401479999999987">
        <ele>292.218</ele>
        <time>2022-08-24T06:45:16Z</time>
      </trkpt>
      <trkpt lat="43.14427800000006" lon="-1.2401479999999987">
        <ele>292.498</ele>
        <time>2022-08-24T06:45:17Z</time>
      </trkpt>
      <trkpt lat="43.14426000000006" lon="-1.2401469999999988">
        <ele>292.617</ele>
        <time>2022-08-24T06:45:18Z</time>
      </trkpt>
      <trkpt lat="43.14423900000006" lon="-1.2401459999999989">
        <ele>292.609</ele>
        <time>2022-08-24T06:45:19Z</time>
      </trkpt>
      <trkpt lat="43.144218000000066" lon="-1.2401489999999988">
        <ele>292.832</ele>
        <time>2022-08-24T06:45:20Z</time>
      </trkpt>
      <trkpt lat="43.144199000000064" lon="-1.2401549999999988">
        <ele>292.832</ele>
        <time>2022-08-24T06:45:21Z</time>
      </trkpt>
      <trkpt lat="43.14418300000006" lon="-1.2401619999999989">
        <ele>293.032</ele>
        <time>2022-08-24T06:45:22Z</time>
      </trkpt>
      <trkpt lat="43.14418300000006" lon="-1.2401619999999989">
        <ele>293.058</ele>
        <time>2022-08-24T06:45:23Z</time>
      </trkpt>
      <trkpt lat="43.14416000000006" lon="-1.2401809999999989">
        <ele>293.060</ele>
        <time>2022-08-24T06:45:24Z</time>
      </trkpt>
      <trkpt lat="43.14414600000006" lon="-1.240190999999999">
        <ele>293.287</ele>
        <time>2022-08-24T06:45:25Z</time>
      </trkpt>
      <trkpt lat="43.14413200000006" lon="-1.240198999999999">
        <ele>293.270</ele>
        <time>2022-08-24T06:45:26Z</time>
      </trkpt>
      <trkpt lat="43.14412200000006" lon="-1.240204999999999">
        <ele>293.234</ele>
        <time>2022-08-24T06:45:27Z</time>
      </trkpt>
      <trkpt lat="43.14411000000006" lon="-1.240206999999999">
        <ele>293.223</ele>
        <time>2022-08-24T06:45:28Z</time>
      </trkpt>
      <trkpt lat="43.14409700000006" lon="-1.240209999999999">
        <ele>293.472</ele>
        <time>2022-08-24T06:45:29Z</time>
      </trkpt>
      <trkpt lat="43.14409700000006" lon="-1.240209999999999">
        <ele>293.413</ele>
        <time>2022-08-24T06:45:30Z</time>
      </trkpt>
      <trkpt lat="43.14408000000006" lon="-1.2402219999999988">
        <ele>293.614</ele>
        <time>2022-08-24T06:45:31Z</time>
      </trkpt>
      <trkpt lat="43.14405400000006" lon="-1.240247999999999">
        <ele>293.609</ele>
        <time>2022-08-24T06:45:32Z</time>
      </trkpt>
      <trkpt lat="43.14404000000006" lon="-1.240257999999999">
        <ele>293.668</ele>
        <time>2022-08-24T06:45:33Z</time>
      </trkpt>
      <trkpt lat="43.144022000000064" lon="-1.240267999999999">
        <ele>293.848</ele>
        <time>2022-08-24T06:45:34Z</time>
      </trkpt>
      <trkpt lat="43.144005000000064" lon="-1.240277999999999">
        <ele>293.828</ele>
        <time>2022-08-24T06:45:35Z</time>
      </trkpt>
      <trkpt lat="43.14398900000006" lon="-1.2402909999999991">
        <ele>293.884</ele>
        <time>2022-08-24T06:45:36Z</time>
      </trkpt>
      <trkpt lat="43.14397000000006" lon="-1.240304999999999">
        <ele>293.846</ele>
        <time>2022-08-24T06:45:37Z</time>
      </trkpt>
      <trkpt lat="43.14386200000006" lon="-1.2403849999999992">
        <ele>294.423</ele>
        <time>2022-08-24T06:45:43Z</time>
      </trkpt>
      <trkpt lat="43.14380900000006" lon="-1.2404389999999992">
        <ele>294.836</ele>
        <time>2022-08-24T06:45:46Z</time>
      </trkpt>
      <trkpt lat="43.14376200000006" lon="-1.2404929999999992">
        <ele>295.280</ele>
        <time>2022-08-24T06:45:49Z</time>
      </trkpt>
      <trkpt lat="43.14373300000006" lon="-1.2405299999999992">
        <ele>295.239</ele>
        <time>2022-08-24T06:45:51Z</time>
      </trkpt>
      <trkpt lat="43.14373300000006" lon="-1.2405299999999992">
        <ele>295.497</ele>
        <time>2022-08-24T06:45:52Z</time>
      </trkpt>
      <trkpt lat="43.143670000000064" lon="-1.2406009999999992">
        <ele>295.823</ele>
        <time>2022-08-24T06:45:55Z</time>
      </trkpt>
      <trkpt lat="43.143658000000066" lon="-1.2406109999999992">
        <ele>295.825</ele>
        <time>2022-08-24T06:45:56Z</time>
      </trkpt>
      <trkpt lat="43.14359500000007" lon="-1.2406759999999992">
        <ele>296.609</ele>
        <time>2022-08-24T06:46:01Z</time>
      </trkpt>
      <trkpt lat="43.14353000000007" lon="-1.2407559999999993">
        <ele>297.070</ele>
        <time>2022-08-24T06:46:04Z</time>
      </trkpt>
      <trkpt lat="43.14351500000007" lon="-1.2407719999999993">
        <ele>297.080</ele>
        <time>2022-08-24T06:46:05Z</time>
      </trkpt>
      <trkpt lat="43.14350200000007" lon="-1.2407909999999993">
        <ele>297.410</ele>
        <time>2022-08-24T06:46:06Z</time>
      </trkpt>
      <trkpt lat="43.143489000000066" lon="-1.2408099999999993">
        <ele>297.636</ele>
        <time>2022-08-24T06:46:07Z</time>
      </trkpt>
      <trkpt lat="43.14347200000007" lon="-1.2408309999999994">
        <ele>298.098</ele>
        <time>2022-08-24T06:46:08Z</time>
      </trkpt>
      <trkpt lat="43.14346000000007" lon="-1.2408439999999994">
        <ele>298.215</ele>
        <time>2022-08-24T06:46:09Z</time>
      </trkpt>
      <trkpt lat="43.14344500000007" lon="-1.2408589999999995">
        <ele>298.438</ele>
        <time>2022-08-24T06:46:10Z</time>
      </trkpt>
      <trkpt lat="43.14343200000007" lon="-1.2408719999999995">
        <ele>298.622</ele>
        <time>2022-08-24T06:46:11Z</time>
      </trkpt>
      <trkpt lat="43.14342000000007" lon="-1.2408859999999995">
        <ele>298.871</ele>
        <time>2022-08-24T06:46:12Z</time>
      </trkpt>
      <trkpt lat="43.14340400000007" lon="-1.2408999999999994">
        <ele>299.058</ele>
        <time>2022-08-24T06:46:13Z</time>
      </trkpt>
      <trkpt lat="43.14339200000007" lon="-1.2409099999999995">
        <ele>299.252</ele>
        <time>2022-08-24T06:46:14Z</time>
      </trkpt>
      <trkpt lat="43.14339200000007" lon="-1.2409099999999995">
        <ele>299.617</ele>
        <time>2022-08-24T06:46:15Z</time>
      </trkpt>
      <trkpt lat="43.14336500000007" lon="-1.2409319999999995">
        <ele>299.809</ele>
        <time>2022-08-24T06:46:16Z</time>
      </trkpt>
      <trkpt lat="43.14335000000007" lon="-1.2409409999999994">
        <ele>300.096</ele>
        <time>2022-08-24T06:46:17Z</time>
      </trkpt>
      <trkpt lat="43.14335000000007" lon="-1.2409409999999994">
        <ele>300.866</ele>
        <time>2022-08-24T06:46:18Z</time>
      </trkpt>
      <trkpt lat="43.143326000000066" lon="-1.2409649999999994">
        <ele>301.026</ele>
        <time>2022-08-24T06:46:19Z</time>
      </trkpt>
      <trkpt lat="43.14331400000007" lon="-1.2409759999999994">
        <ele>301.282</ele>
        <time>2022-08-24T06:46:20Z</time>
      </trkpt>
      <trkpt lat="43.14331400000007" lon="-1.2409759999999994">
        <ele>301.484</ele>
        <time>2022-08-24T06:46:21Z</time>
      </trkpt>
      <trkpt lat="43.14328500000007" lon="-1.2409959999999993">
        <ele>301.891</ele>
        <time>2022-08-24T06:46:22Z</time>
      </trkpt>
      <trkpt lat="43.14328500000007" lon="-1.2409959999999993">
        <ele>302.074</ele>
        <time>2022-08-24T06:46:23Z</time>
      </trkpt>
      <trkpt lat="43.14327000000007" lon="-1.2410079999999992">
        <ele>302.218</ele>
        <time>2022-08-24T06:46:24Z</time>
      </trkpt>
      <trkpt lat="43.143241000000074" lon="-1.2410379999999992">
        <ele>302.437</ele>
        <time>2022-08-24T06:46:25Z</time>
      </trkpt>
      <trkpt lat="43.143227000000074" lon="-1.2410519999999992">
        <ele>302.653</ele>
        <time>2022-08-24T06:46:26Z</time>
      </trkpt>
      <trkpt lat="43.143227000000074" lon="-1.2410519999999992">
        <ele>302.804</ele>
        <time>2022-08-24T06:46:27Z</time>
      </trkpt>
      <trkpt lat="43.14319700000007" lon="-1.2410789999999992">
        <ele>303.014</ele>
        <time>2022-08-24T06:46:28Z</time>
      </trkpt>
      <trkpt lat="43.14318400000007" lon="-1.241090999999999">
        <ele>303.209</ele>
        <time>2022-08-24T06:46:29Z</time>
      </trkpt>
      <trkpt lat="43.14318400000007" lon="-1.241090999999999">
        <ele>303.246</ele>
        <time>2022-08-24T06:46:30Z</time>
      </trkpt>
      <trkpt lat="43.14315900000007" lon="-1.241115999999999">
        <ele>303.426</ele>
        <time>2022-08-24T06:46:31Z</time>
      </trkpt>
      <trkpt lat="43.14314500000007" lon="-1.241129999999999">
        <ele>303.626</ele>
        <time>2022-08-24T06:46:32Z</time>
      </trkpt>
      <trkpt lat="43.14313100000007" lon="-1.2411419999999989">
        <ele>303.642</ele>
        <time>2022-08-24T06:46:33Z</time>
      </trkpt>
      <trkpt lat="43.14311300000007" lon="-1.241156999999999">
        <ele>303.824</ele>
        <time>2022-08-24T06:46:34Z</time>
      </trkpt>
      <trkpt lat="43.14310200000007" lon="-1.241164999999999">
        <ele>304.061</ele>
        <time>2022-08-24T06:46:35Z</time>
      </trkpt>
      <trkpt lat="43.14308800000007" lon="-1.241174999999999">
        <ele>304.264</ele>
        <time>2022-08-24T06:46:36Z</time>
      </trkpt>
      <trkpt lat="43.14307300000007" lon="-1.241182999999999">
        <ele>304.488</ele>
        <time>2022-08-24T06:46:37Z</time>
      </trkpt>
      <trkpt lat="43.14307300000007" lon="-1.241182999999999">
        <ele>304.667</ele>
        <time>2022-08-24T06:46:38Z</time>
      </trkpt>
      <trkpt lat="43.14304500000007" lon="-1.241209999999999">
        <ele>304.834</ele>
        <time>2022-08-24T06:46:39Z</time>
      </trkpt>
      <trkpt lat="43.143030000000074" lon="-1.241226999999999">
        <ele>305.055</ele>
        <time>2022-08-24T06:46:40Z</time>
      </trkpt>
      <trkpt lat="43.14301900000007" lon="-1.241237999999999">
        <ele>305.210</ele>
        <time>2022-08-24T06:46:41Z</time>
      </trkpt>
      <trkpt lat="43.143007000000075" lon="-1.2412499999999989">
        <ele>305.409</ele>
        <time>2022-08-24T06:46:42Z</time>
      </trkpt>
      <trkpt lat="43.142996000000075" lon="-1.2412619999999988">
        <ele>305.684</ele>
        <time>2022-08-24T06:46:43Z</time>
      </trkpt>
      <trkpt lat="43.142996000000075" lon="-1.2412619999999988">
        <ele>305.854</ele>
        <time>2022-08-24T06:46:44Z</time>
      </trkpt>
      <trkpt lat="43.14297400000007" lon="-1.2412799999999988">
        <ele>306.084</ele>
        <time>2022-08-24T06:46:45Z</time>
      </trkpt>
      <trkpt lat="43.14296100000007" lon="-1.2412879999999988">
        <ele>306.030</ele>
        <time>2022-08-24T06:46:46Z</time>
      </trkpt>
      <trkpt lat="43.14296100000007" lon="-1.2412879999999988">
        <ele>306.232</ele>
        <time>2022-08-24T06:46:47Z</time>
      </trkpt>
      <trkpt lat="43.14293800000007" lon="-1.2413149999999988">
        <ele>306.449</ele>
        <time>2022-08-24T06:46:48Z</time>
      </trkpt>
      <trkpt lat="43.142926000000074" lon="-1.2413289999999988">
        <ele>306.662</ele>
        <time>2022-08-24T06:46:49Z</time>
      </trkpt>
      <trkpt lat="43.142926000000074" lon="-1.2413289999999988">
        <ele>306.816</ele>
        <time>2022-08-24T06:46:50Z</time>
      </trkpt>
      <trkpt lat="43.14289600000007" lon="-1.2413539999999987">
        <ele>307.055</ele>
        <time>2022-08-24T06:46:51Z</time>
      </trkpt>
      <trkpt lat="43.142881000000074" lon="-1.2413669999999988">
        <ele>307.063</ele>
        <time>2022-08-24T06:46:52Z</time>
      </trkpt>
      <trkpt lat="43.14286800000007" lon="-1.2413779999999988">
        <ele>307.244</ele>
        <time>2022-08-24T06:46:53Z</time>
      </trkpt>
      <trkpt lat="43.14285300000007" lon="-1.2413909999999988">
        <ele>307.418</ele>
        <time>2022-08-24T06:46:54Z</time>
      </trkpt>
      <trkpt lat="43.14283700000007" lon="-1.2414009999999989">
        <ele>307.409</ele>
        <time>2022-08-24T06:46:55Z</time>
      </trkpt>
      <trkpt lat="43.14282200000007" lon="-1.2414099999999988">
        <ele>307.837</ele>
        <time>2022-08-24T06:46:56Z</time>
      </trkpt>
      <trkpt lat="43.142807000000076" lon="-1.2414189999999987">
        <ele>308.027</ele>
        <time>2022-08-24T06:46:57Z</time>
      </trkpt>
      <trkpt lat="43.142791000000074" lon="-1.2414289999999988">
        <ele>308.067</ele>
        <time>2022-08-24T06:46:58Z</time>
      </trkpt>
      <trkpt lat="43.142774000000074" lon="-1.2414339999999988">
        <ele>308.243</ele>
        <time>2022-08-24T06:46:59Z</time>
      </trkpt>
      <trkpt lat="43.14275600000008" lon="-1.2414389999999988">
        <ele>308.255</ele>
        <time>2022-08-24T06:47:00Z</time>
      </trkpt>
      <trkpt lat="43.14275600000008" lon="-1.2414389999999988">
        <ele>308.282</ele>
        <time>2022-08-24T06:47:01Z</time>
      </trkpt>
      <trkpt lat="43.142726000000074" lon="-1.241456999999999">
        <ele>308.465</ele>
        <time>2022-08-24T06:47:02Z</time>
      </trkpt>
      <trkpt lat="43.14271000000007" lon="-1.241464999999999">
        <ele>308.649</ele>
        <time>2022-08-24T06:47:03Z</time>
      </trkpt>
      <trkpt lat="43.14269300000007" lon="-1.241469999999999">
        <ele>308.848</ele>
        <time>2022-08-24T06:47:04Z</time>
      </trkpt>
      <trkpt lat="43.142678000000075" lon="-1.241475999999999">
        <ele>309.079</ele>
        <time>2022-08-24T06:47:05Z</time>
      </trkpt>
      <trkpt lat="43.142664000000075" lon="-1.241483999999999">
        <ele>309.205</ele>
        <time>2022-08-24T06:47:06Z</time>
      </trkpt>
      <trkpt lat="43.142664000000075" lon="-1.241483999999999">
        <ele>309.225</ele>
        <time>2022-08-24T06:47:07Z</time>
      </trkpt>
      <trkpt lat="43.142630000000075" lon="-1.2414959999999988">
        <ele>309.409</ele>
        <time>2022-08-24T06:47:08Z</time>
      </trkpt>
      <trkpt lat="43.14261400000007" lon="-1.2414979999999989">
        <ele>309.448</ele>
        <time>2022-08-24T06:47:09Z</time>
      </trkpt>
      <trkpt lat="43.14261400000007" lon="-1.2414979999999989">
        <ele>309.628</ele>
        <time>2022-08-24T06:47:10Z</time>
      </trkpt>
      <trkpt lat="43.14258100000007" lon="-1.241502999999999">
        <ele>309.658</ele>
        <time>2022-08-24T06:47:11Z</time>
      </trkpt>
      <trkpt lat="43.142563000000074" lon="-1.2415069999999988">
        <ele>310.074</ele>
        <time>2022-08-24T06:47:12Z</time>
      </trkpt>
      <trkpt lat="43.14254500000008" lon="-1.2415099999999988">
        <ele>310.236</ele>
        <time>2022-08-24T06:47:13Z</time>
      </trkpt>
      <trkpt lat="43.14252700000008" lon="-1.2415119999999988">
        <ele>310.233</ele>
        <time>2022-08-24T06:47:14Z</time>
      </trkpt>
      <trkpt lat="43.14252700000008" lon="-1.2415119999999988">
        <ele>310.436</ele>
        <time>2022-08-24T06:47:15Z</time>
      </trkpt>
      <trkpt lat="43.14249000000008" lon="-1.241518999999999">
        <ele>310.410</ele>
        <time>2022-08-24T06:47:16Z</time>
      </trkpt>
      <trkpt lat="43.14247100000008" lon="-1.241523999999999">
        <ele>310.659</ele>
        <time>2022-08-24T06:47:17Z</time>
      </trkpt>
      <trkpt lat="43.14245100000008" lon="-1.241526999999999">
        <ele>310.835</ele>
        <time>2022-08-24T06:47:18Z</time>
      </trkpt>
      <trkpt lat="43.14243100000008" lon="-1.2415279999999989">
        <ele>310.886</ele>
        <time>2022-08-24T06:47:19Z</time>
      </trkpt>
      <trkpt lat="43.14241200000008" lon="-1.2415289999999988">
        <ele>311.014</ele>
        <time>2022-08-24T06:47:20Z</time>
      </trkpt>
      <trkpt lat="43.14241200000008" lon="-1.2415289999999988">
        <ele>311.209</ele>
        <time>2022-08-24T06:47:21Z</time>
      </trkpt>
      <trkpt lat="43.14237600000008" lon="-1.2415339999999988">
        <ele>311.464</ele>
        <time>2022-08-24T06:47:22Z</time>
      </trkpt>
      <trkpt lat="43.14237600000008" lon="-1.2415339999999988">
        <ele>311.684</ele>
        <time>2022-08-24T06:47:23Z</time>
      </trkpt>
      <trkpt lat="43.142357000000075" lon="-1.2415359999999989">
        <ele>311.634</ele>
        <time>2022-08-24T06:47:24Z</time>
      </trkpt>
      <trkpt lat="43.14232200000008" lon="-1.241534999999999">
        <ele>311.830</ele>
        <time>2022-08-24T06:47:25Z</time>
      </trkpt>
      <trkpt lat="43.14230500000008" lon="-1.241533999999999">
        <ele>312.072</ele>
        <time>2022-08-24T06:47:26Z</time>
      </trkpt>
      <trkpt lat="43.14228800000008" lon="-1.241535999999999">
        <ele>312.269</ele>
        <time>2022-08-24T06:47:27Z</time>
      </trkpt>
      <trkpt lat="43.14227100000008" lon="-1.241533999999999">
        <ele>312.282</ele>
        <time>2022-08-24T06:47:28Z</time>
      </trkpt>
      <trkpt lat="43.14225300000008" lon="-1.241533999999999">
        <ele>312.226</ele>
        <time>2022-08-24T06:47:29Z</time>
      </trkpt>
      <trkpt lat="43.142235000000085" lon="-1.241533999999999">
        <ele>312.245</ele>
        <time>2022-08-24T06:47:30Z</time>
      </trkpt>
      <trkpt lat="43.14221600000008" lon="-1.241534999999999">
        <ele>312.427</ele>
        <time>2022-08-24T06:47:31Z</time>
      </trkpt>
      <trkpt lat="43.142198000000086" lon="-1.2415329999999989">
        <ele>312.468</ele>
        <time>2022-08-24T06:47:32Z</time>
      </trkpt>
      <trkpt lat="43.142179000000084" lon="-1.2415329999999989">
        <ele>312.614</ele>
        <time>2022-08-24T06:47:33Z</time>
      </trkpt>
      <trkpt lat="43.142162000000084" lon="-1.2415309999999988">
        <ele>312.609</ele>
        <time>2022-08-24T06:47:34Z</time>
      </trkpt>
      <trkpt lat="43.14214400000009" lon="-1.2415309999999988">
        <ele>312.883</ele>
        <time>2022-08-24T06:47:35Z</time>
      </trkpt>
      <trkpt lat="43.142125000000085" lon="-1.241529999999999">
        <ele>313.023</ele>
        <time>2022-08-24T06:47:36Z</time>
      </trkpt>
      <trkpt lat="43.14210700000009" lon="-1.241526999999999">
        <ele>313.043</ele>
        <time>2022-08-24T06:47:37Z</time>
      </trkpt>
      <trkpt lat="43.14210700000009" lon="-1.241526999999999">
        <ele>313.059</ele>
        <time>2022-08-24T06:47:38Z</time>
      </trkpt>
      <trkpt lat="43.14206700000009" lon="-1.241518999999999">
        <ele>313.051</ele>
        <time>2022-08-24T06:47:39Z</time>
      </trkpt>
      <trkpt lat="43.14204700000009" lon="-1.241514999999999">
        <ele>313.278</ele>
        <time>2022-08-24T06:47:40Z</time>
      </trkpt>
      <trkpt lat="43.14202700000009" lon="-1.2415109999999991">
        <ele>313.241</ele>
        <time>2022-08-24T06:47:41Z</time>
      </trkpt>
      <trkpt lat="43.14200500000009" lon="-1.241505999999999">
        <ele>313.435</ele>
        <time>2022-08-24T06:47:42Z</time>
      </trkpt>
      <trkpt lat="43.14198400000009" lon="-1.2415029999999991">
        <ele>313.444</ele>
        <time>2022-08-24T06:47:43Z</time>
      </trkpt>
      <trkpt lat="43.141964000000094" lon="-1.241500999999999">
        <ele>313.443</ele>
        <time>2022-08-24T06:47:44Z</time>
      </trkpt>
      <trkpt lat="43.141944000000095" lon="-1.241497999999999">
        <ele>313.664</ele>
        <time>2022-08-24T06:47:45Z</time>
      </trkpt>
      <trkpt lat="43.14192500000009" lon="-1.2414949999999991">
        <ele>313.610</ele>
        <time>2022-08-24T06:47:46Z</time>
      </trkpt>
      <trkpt lat="43.14190600000009" lon="-1.2414909999999992">
        <ele>313.609</ele>
        <time>2022-08-24T06:47:47Z</time>
      </trkpt>
      <trkpt lat="43.14189000000009" lon="-1.2414879999999993">
        <ele>313.665</ele>
        <time>2022-08-24T06:47:48Z</time>
      </trkpt>
      <trkpt lat="43.14187200000009" lon="-1.2414869999999993">
        <ele>313.655</ele>
        <time>2022-08-24T06:47:49Z</time>
      </trkpt>
      <trkpt lat="43.14183000000009" lon="-1.2414769999999993">
        <ele>313.855</ele>
        <time>2022-08-24T06:47:52Z</time>
      </trkpt>
      <trkpt lat="43.14181500000009" lon="-1.2414739999999993">
        <ele>314.021</ele>
        <time>2022-08-24T06:47:53Z</time>
      </trkpt>
      <trkpt lat="43.1417940000001" lon="-1.2414759999999994">
        <ele>314.033</ele>
        <time>2022-08-24T06:47:54Z</time>
      </trkpt>
      <trkpt lat="43.1417790000001" lon="-1.2414769999999993">
        <ele>314.040</ele>
        <time>2022-08-24T06:47:55Z</time>
      </trkpt>
      <trkpt lat="43.1417650000001" lon="-1.2414719999999992">
        <ele>314.293</ele>
        <time>2022-08-24T06:47:56Z</time>
      </trkpt>
      <trkpt lat="43.1417570000001" lon="-1.2414659999999993">
        <ele>314.277</ele>
        <time>2022-08-24T06:47:57Z</time>
      </trkpt>
      <trkpt lat="43.1417420000001" lon="-1.2414619999999994">
        <ele>314.466</ele>
        <time>2022-08-24T06:47:59Z</time>
      </trkpt>
      <trkpt lat="43.1417380000001" lon="-1.2414609999999995">
        <ele>314.843</ele>
        <time>2022-08-24T06:48:27Z</time>
      </trkpt>
      <trkpt lat="43.1416930000001" lon="-1.2414549999999995">
        <ele>315.064</ele>
        <time>2022-08-24T06:48:29Z</time>
      </trkpt>
      <trkpt lat="43.141557000000105" lon="-1.2414259999999995">
        <ele>315.210</ele>
        <time>2022-08-24T06:48:34Z</time>
      </trkpt>
      <trkpt lat="43.141366000000104" lon="-1.2413739999999995">
        <ele>315.809</ele>
        <time>2022-08-24T06:48:39Z</time>
      </trkpt>
      <trkpt lat="43.14133100000011" lon="-1.2413699999999996">
        <ele>316.285</ele>
        <time>2022-08-24T06:48:40Z</time>
      </trkpt>
      <trkpt lat="43.14130200000011" lon="-1.2413619999999996">
        <ele>316.425</ele>
        <time>2022-08-24T06:48:41Z</time>
      </trkpt>
      <trkpt lat="43.14127200000011" lon="-1.2413499999999997">
        <ele>316.835</ele>
        <time>2022-08-24T06:48:42Z</time>
      </trkpt>
      <trkpt lat="43.14123800000011" lon="-1.2413409999999998">
        <ele>317.041</ele>
        <time>2022-08-24T06:48:43Z</time>
      </trkpt>
      <trkpt lat="43.14120700000011" lon="-1.2413319999999999">
        <ele>317.233</ele>
        <time>2022-08-24T06:48:44Z</time>
      </trkpt>
      <trkpt lat="43.14117600000011" lon="-1.2413219999999998">
        <ele>317.480</ele>
        <time>2022-08-24T06:48:45Z</time>
      </trkpt>
      <trkpt lat="43.14105800000011" lon="-1.2412789999999998">
        <ele>318.023</ele>
        <time>2022-08-24T06:48:49Z</time>
      </trkpt>
      <trkpt lat="43.14102600000011" lon="-1.2412629999999998">
        <ele>318.247</ele>
        <time>2022-08-24T06:48:50Z</time>
      </trkpt>
      <trkpt lat="43.14099700000011" lon="-1.2412469999999998">
        <ele>318.466</ele>
        <time>2022-08-24T06:48:51Z</time>
      </trkpt>
      <trkpt lat="43.140962000000115" lon="-1.2412259999999997">
        <ele>318.694</ele>
        <time>2022-08-24T06:48:52Z</time>
      </trkpt>
      <trkpt lat="43.140962000000115" lon="-1.2412259999999997">
        <ele>318.657</ele>
        <time>2022-08-24T06:48:53Z</time>
      </trkpt>
      <trkpt lat="43.140912000000114" lon="-1.2411819999999998">
        <ele>318.822</ele>
        <time>2022-08-24T06:48:54Z</time>
      </trkpt>
      <trkpt lat="43.14089100000012" lon="-1.2411539999999999">
        <ele>319.009</ele>
        <time>2022-08-24T06:48:55Z</time>
      </trkpt>
      <trkpt lat="43.14086500000012" lon="-1.241137">
        <ele>319.060</ele>
        <time>2022-08-24T06:48:56Z</time>
      </trkpt>
      <trkpt lat="43.140838000000116" lon="-1.2411159999999999">
        <ele>319.240</ele>
        <time>2022-08-24T06:48:57Z</time>
      </trkpt>
      <trkpt lat="43.14080900000012" lon="-1.241096">
        <ele>319.210</ele>
        <time>2022-08-24T06:48:58Z</time>
      </trkpt>
      <trkpt lat="43.14078300000012" lon="-1.241078">
        <ele>319.646</ele>
        <time>2022-08-24T06:48:59Z</time>
      </trkpt>
      <trkpt lat="43.14075600000012" lon="-1.2410599999999998">
        <ele>319.648</ele>
        <time>2022-08-24T06:49:00Z</time>
      </trkpt>
      <trkpt lat="43.140726000000114" lon="-1.2410379999999999">
        <ele>319.875</ele>
        <time>2022-08-24T06:49:01Z</time>
      </trkpt>
      <trkpt lat="43.14070200000011" lon="-1.241013">
        <ele>319.898</ele>
        <time>2022-08-24T06:49:02Z</time>
      </trkpt>
      <trkpt lat="43.14067600000011" lon="-1.2409919999999999">
        <ele>319.842</ele>
        <time>2022-08-24T06:49:03Z</time>
      </trkpt>
      <trkpt lat="43.14064800000011" lon="-1.240978">
        <ele>320.051</ele>
        <time>2022-08-24T06:49:04Z</time>
      </trkpt>
      <trkpt lat="43.14062100000011" lon="-1.2409629999999998">
        <ele>320.257</ele>
        <time>2022-08-24T06:49:05Z</time>
      </trkpt>
      <trkpt lat="43.14059600000011" lon="-1.2409519999999998">
        <ele>320.600</ele>
        <time>2022-08-24T06:49:06Z</time>
      </trkpt>
      <trkpt lat="43.14059600000011" lon="-1.2409519999999998">
        <ele>320.620</ele>
        <time>2022-08-24T06:49:07Z</time>
      </trkpt>
      <trkpt lat="43.140541000000105" lon="-1.2409169999999998">
        <ele>320.809</ele>
        <time>2022-08-24T06:49:08Z</time>
      </trkpt>
      <trkpt lat="43.14051200000011" lon="-1.2408959999999998">
        <ele>320.816</ele>
        <time>2022-08-24T06:49:09Z</time>
      </trkpt>
      <trkpt lat="43.14051200000011" lon="-1.2408959999999998">
        <ele>321.096</ele>
        <time>2022-08-24T06:49:10Z</time>
      </trkpt>
      <trkpt lat="43.140451000000105" lon="-1.2408429999999997">
        <ele>321.076</ele>
        <time>2022-08-24T06:49:11Z</time>
      </trkpt>
      <trkpt lat="43.1404180000001" lon="-1.2408109999999997">
        <ele>321.082</ele>
        <time>2022-08-24T06:49:12Z</time>
      </trkpt>
      <trkpt lat="43.1404180000001" lon="-1.2408109999999997">
        <ele>321.034</ele>
        <time>2022-08-24T06:49:13Z</time>
      </trkpt>
      <trkpt lat="43.140344000000105" lon="-1.2407529999999998">
        <ele>321.041</ele>
        <time>2022-08-24T06:49:14Z</time>
      </trkpt>
      <trkpt lat="43.14030700000011" lon="-1.2407279999999998">
        <ele>321.064</ele>
        <time>2022-08-24T06:49:15Z</time>
      </trkpt>
      <trkpt lat="43.14030700000011" lon="-1.2407279999999998">
        <ele>321.098</ele>
        <time>2022-08-24T06:49:16Z</time>
      </trkpt>
      <trkpt lat="43.14022500000011" lon="-1.240665">
        <ele>321.027</ele>
        <time>2022-08-24T06:49:17Z</time>
      </trkpt>
      <trkpt lat="43.14018300000011" lon="-1.240629">
        <ele>321.023</ele>
        <time>2022-08-24T06:49:18Z</time>
      </trkpt>
      <trkpt lat="43.14014000000011" lon="-1.240588">
        <ele>321.083</ele>
        <time>2022-08-24T06:49:19Z</time>
      </trkpt>
      <trkpt lat="43.140099000000106" lon="-1.240545">
        <ele>321.011</ele>
        <time>2022-08-24T06:49:20Z</time>
      </trkpt>
      <trkpt lat="43.14005600000011" lon="-1.240502">
        <ele>321.009</ele>
        <time>2022-08-24T06:49:21Z</time>
      </trkpt>
      <trkpt lat="43.14001400000011" lon="-1.240462">
        <ele>321.063</ele>
        <time>2022-08-24T06:49:22Z</time>
      </trkpt>
      <trkpt lat="43.139973000000104" lon="-1.240424">
        <ele>320.883</ele>
        <time>2022-08-24T06:49:23Z</time>
      </trkpt>
      <trkpt lat="43.139610000000104" lon="-1.240043">
        <ele>320.073</ele>
        <time>2022-08-24T06:49:31Z</time>
      </trkpt>
      <trkpt lat="43.139404000000106" lon="-1.2398150000000001">
        <ele>319.489</ele>
        <time>2022-08-24T06:49:35Z</time>
      </trkpt>
      <trkpt lat="43.139294000000106" lon="-1.2397090000000002">
        <ele>318.871</ele>
        <time>2022-08-24T06:49:37Z</time>
      </trkpt>
      <trkpt lat="43.13924000000011" lon="-1.2396600000000002">
        <ele>318.678</ele>
        <time>2022-08-24T06:49:38Z</time>
      </trkpt>
      <trkpt lat="43.139187000000106" lon="-1.2396120000000002">
        <ele>318.421</ele>
        <time>2022-08-24T06:49:39Z</time>
      </trkpt>
      <trkpt lat="43.13913300000011" lon="-1.2395680000000002">
        <ele>318.485</ele>
        <time>2022-08-24T06:49:40Z</time>
      </trkpt>
      <trkpt lat="43.13908100000011" lon="-1.2395280000000002">
        <ele>318.254</ele>
        <time>2022-08-24T06:49:41Z</time>
      </trkpt>
      <trkpt lat="43.139029000000114" lon="-1.2394890000000003">
        <ele>318.244</ele>
        <time>2022-08-24T06:49:42Z</time>
      </trkpt>
      <trkpt lat="43.13898000000012" lon="-1.2394500000000004">
        <ele>318.005</ele>
        <time>2022-08-24T06:49:43Z</time>
      </trkpt>
      <trkpt lat="43.13898000000012" lon="-1.2394500000000004">
        <ele>318.015</ele>
        <time>2022-08-24T06:49:44Z</time>
      </trkpt>
      <trkpt lat="43.138885000000116" lon="-1.2393770000000004">
        <ele>317.809</ele>
        <time>2022-08-24T06:49:45Z</time>
      </trkpt>
      <trkpt lat="43.138750000000115" lon="-1.2392760000000005">
        <ele>317.685</ele>
        <time>2022-08-24T06:49:48Z</time>
      </trkpt>
      <trkpt lat="43.13872300000011" lon="-1.2392580000000004">
        <ele>317.655</ele>
        <time>2022-08-24T06:49:49Z</time>
      </trkpt>
      <trkpt lat="43.13869500000011" lon="-1.2392370000000004">
        <ele>317.675</ele>
        <time>2022-08-24T06:49:50Z</time>
      </trkpt>
      <trkpt lat="43.13854600000011" lon="-1.2391470000000004">
        <ele>317.461</ele>
        <time>2022-08-24T06:49:54Z</time>
      </trkpt>
      <trkpt lat="43.138503000000114" lon="-1.2391280000000005">
        <ele>317.483</ele>
        <time>2022-08-24T06:49:55Z</time>
      </trkpt>
      <trkpt lat="43.138232000000116" lon="-1.2390360000000005">
        <ele>316.840</ele>
        <time>2022-08-24T06:50:01Z</time>
      </trkpt>
      <trkpt lat="43.138190000000115" lon="-1.2390200000000005">
        <ele>316.823</ele>
        <time>2022-08-24T06:50:02Z</time>
      </trkpt>
      <trkpt lat="43.13814700000012" lon="-1.2390070000000004">
        <ele>316.827</ele>
        <time>2022-08-24T06:50:03Z</time>
      </trkpt>
      <trkpt lat="43.138103000000115" lon="-1.2389960000000004">
        <ele>316.866</ele>
        <time>2022-08-24T06:50:04Z</time>
      </trkpt>
      <trkpt lat="43.13796400000012" lon="-1.2389690000000004">
        <ele>316.873</ele>
        <time>2022-08-24T06:50:07Z</time>
      </trkpt>
      <trkpt lat="43.137669000000116" lon="-1.2389240000000004">
        <ele>316.885</ele>
        <time>2022-08-24T06:50:13Z</time>
      </trkpt>
      <trkpt lat="43.137622000000114" lon="-1.2389190000000003">
        <ele>316.613</ele>
        <time>2022-08-24T06:50:14Z</time>
      </trkpt>
      <trkpt lat="43.13757500000011" lon="-1.2389140000000003">
        <ele>316.609</ele>
        <time>2022-08-24T06:50:15Z</time>
      </trkpt>
      <trkpt lat="43.137529000000114" lon="-1.2389070000000002">
        <ele>316.678</ele>
        <time>2022-08-24T06:50:16Z</time>
      </trkpt>
      <trkpt lat="43.137529000000114" lon="-1.2389070000000002">
        <ele>316.488</ele>
        <time>2022-08-24T06:50:17Z</time>
      </trkpt>
      <trkpt lat="43.137444000000116" lon="-1.2388810000000001">
        <ele>316.448</ele>
        <time>2022-08-24T06:50:18Z</time>
      </trkpt>
      <trkpt lat="43.137402000000115" lon="-1.2388640000000002">
        <ele>316.274</ele>
        <time>2022-08-24T06:50:19Z</time>
      </trkpt>
      <trkpt lat="43.137363000000114" lon="-1.2388460000000001">
        <ele>316.216</ele>
        <time>2022-08-24T06:50:20Z</time>
      </trkpt>
      <trkpt lat="43.13732700000011" lon="-1.2388290000000002">
        <ele>316.283</ele>
        <time>2022-08-24T06:50:21Z</time>
      </trkpt>
      <trkpt lat="43.13729400000011" lon="-1.2388130000000002">
        <ele>316.216</ele>
        <time>2022-08-24T06:50:22Z</time>
      </trkpt>
      <trkpt lat="43.13729400000011" lon="-1.2388130000000002">
        <ele>316.280</ele>
        <time>2022-08-24T06:50:23Z</time>
      </trkpt>
      <trkpt lat="43.13722600000011" lon="-1.2387700000000001">
        <ele>316.269</ele>
        <time>2022-08-24T06:50:24Z</time>
      </trkpt>
      <trkpt lat="43.137200000000114" lon="-1.2387540000000001">
        <ele>316.285</ele>
        <time>2022-08-24T06:50:25Z</time>
      </trkpt>
      <trkpt lat="43.137200000000114" lon="-1.2387540000000001">
        <ele>316.489</ele>
        <time>2022-08-24T06:50:26Z</time>
      </trkpt>
      <trkpt lat="43.13715300000011" lon="-1.238733">
        <ele>316.617</ele>
        <time>2022-08-24T06:50:27Z</time>
      </trkpt>
      <trkpt lat="43.13712700000011" lon="-1.2387190000000001">
        <ele>316.809</ele>
        <time>2022-08-24T06:50:28Z</time>
      </trkpt>
      <trkpt lat="43.137098000000115" lon="-1.238703">
        <ele>317.039</ele>
        <time>2022-08-24T06:50:29Z</time>
      </trkpt>
      <trkpt lat="43.137042000000115" lon="-1.238666">
        <ele>317.489</ele>
        <time>2022-08-24T06:50:31Z</time>
      </trkpt>
      <trkpt lat="43.137014000000114" lon="-1.238644">
        <ele>317.689</ele>
        <time>2022-08-24T06:50:32Z</time>
      </trkpt>
      <trkpt lat="43.13698200000012" lon="-1.2386110000000001">
        <ele>317.895</ele>
        <time>2022-08-24T06:50:33Z</time>
      </trkpt>
      <trkpt lat="43.13696200000012" lon="-1.23859">
        <ele>318.047</ele>
        <time>2022-08-24T06:50:34Z</time>
      </trkpt>
      <trkpt lat="43.13693700000012" lon="-1.238566">
        <ele>318.224</ele>
        <time>2022-08-24T06:50:35Z</time>
      </trkpt>
      <trkpt lat="43.13691300000011" lon="-1.238542">
        <ele>318.467</ele>
        <time>2022-08-24T06:50:36Z</time>
      </trkpt>
      <trkpt lat="43.13688800000011" lon="-1.238515">
        <ele>318.611</ele>
        <time>2022-08-24T06:50:37Z</time>
      </trkpt>
      <trkpt lat="43.13681600000011" lon="-1.238415">
        <ele>319.420</ele>
        <time>2022-08-24T06:50:41Z</time>
      </trkpt>
      <trkpt lat="43.13678800000011" lon="-1.238397">
        <ele>319.687</ele>
        <time>2022-08-24T06:50:42Z</time>
      </trkpt>
      <trkpt lat="43.13675800000011" lon="-1.23838">
        <ele>319.642</ele>
        <time>2022-08-24T06:50:43Z</time>
      </trkpt>
      <trkpt lat="43.13673000000011" lon="-1.238362">
        <ele>320.026</ele>
        <time>2022-08-24T06:50:44Z</time>
      </trkpt>
      <trkpt lat="43.13669800000011" lon="-1.2383469999999999">
        <ele>320.209</ele>
        <time>2022-08-24T06:50:45Z</time>
      </trkpt>
      <trkpt lat="43.13665900000011" lon="-1.2383319999999998">
        <ele>320.289</ele>
        <time>2022-08-24T06:50:46Z</time>
      </trkpt>
      <trkpt lat="43.136612000000106" lon="-1.2383129999999998">
        <ele>320.489</ele>
        <time>2022-08-24T06:50:47Z</time>
      </trkpt>
      <trkpt lat="43.136556000000105" lon="-1.2382939999999998">
        <ele>320.429</ele>
        <time>2022-08-24T06:50:48Z</time>
      </trkpt>
      <trkpt lat="43.1364980000001" lon="-1.2382769999999999">
        <ele>320.475</ele>
        <time>2022-08-24T06:50:49Z</time>
      </trkpt>
      <trkpt lat="43.1364400000001" lon="-1.2382589999999998">
        <ele>320.277</ele>
        <time>2022-08-24T06:50:50Z</time>
      </trkpt>
      <trkpt lat="43.1363830000001" lon="-1.2382419999999998">
        <ele>320.254</ele>
        <time>2022-08-24T06:50:51Z</time>
      </trkpt>
      <trkpt lat="43.1363290000001" lon="-1.238225">
        <ele>320.247</ele>
        <time>2022-08-24T06:50:52Z</time>
      </trkpt>
      <trkpt lat="43.136280000000106" lon="-1.2382">
        <ele>319.821</ele>
        <time>2022-08-24T06:50:53Z</time>
      </trkpt>
      <trkpt lat="43.136280000000106" lon="-1.2382">
        <ele>319.640</ele>
        <time>2022-08-24T06:50:54Z</time>
      </trkpt>
      <trkpt lat="43.136193000000105" lon="-1.238163">
        <ele>319.427</ele>
        <time>2022-08-24T06:50:55Z</time>
      </trkpt>
      <trkpt lat="43.1361520000001" lon="-1.2381499999999999">
        <ele>319.468</ele>
        <time>2022-08-24T06:50:56Z</time>
      </trkpt>
      <trkpt lat="43.1361520000001" lon="-1.2381499999999999">
        <ele>319.414</ele>
        <time>2022-08-24T06:50:57Z</time>
      </trkpt>
      <trkpt lat="43.136072000000105" lon="-1.2381309999999999">
        <ele>319.209</ele>
        <time>2022-08-24T06:50:58Z</time>
      </trkpt>
      <trkpt lat="43.1360310000001" lon="-1.238127">
        <ele>319.253</ele>
        <time>2022-08-24T06:50:59Z</time>
      </trkpt>
      <trkpt lat="43.1360310000001" lon="-1.238127">
        <ele>319.263</ele>
        <time>2022-08-24T06:51:00Z</time>
      </trkpt>
      <trkpt lat="43.1359550000001" lon="-1.238118">
        <ele>319.213</ele>
        <time>2022-08-24T06:51:01Z</time>
      </trkpt>
      <trkpt lat="43.135920000000105" lon="-1.238116">
        <ele>319.259</ele>
        <time>2022-08-24T06:51:02Z</time>
      </trkpt>
      <trkpt lat="43.135920000000105" lon="-1.238116">
        <ele>319.221</ele>
        <time>2022-08-24T06:51:03Z</time>
      </trkpt>
      <trkpt lat="43.13584900000011" lon="-1.238108">
        <ele>319.288</ele>
        <time>2022-08-24T06:51:04Z</time>
      </trkpt>
      <trkpt lat="43.13581400000011" lon="-1.238101">
        <ele>319.831</ele>
        <time>2022-08-24T06:51:05Z</time>
      </trkpt>
      <trkpt lat="43.13577900000011" lon="-1.2381019999999998">
        <ele>320.095</ele>
        <time>2022-08-24T06:51:06Z</time>
      </trkpt>
      <trkpt lat="43.13570900000011" lon="-1.2381019999999998">
        <ele>320.434</ele>
        <time>2022-08-24T06:51:08Z</time>
      </trkpt>
      <trkpt lat="43.135677000000115" lon="-1.2381079999999998">
        <ele>320.633</ele>
        <time>2022-08-24T06:51:09Z</time>
      </trkpt>
      <trkpt lat="43.135638000000114" lon="-1.2381139999999997">
        <ele>320.823</ele>
        <time>2022-08-24T06:51:10Z</time>
      </trkpt>
      <trkpt lat="43.13561300000011" lon="-1.2381179999999996">
        <ele>321.015</ele>
        <time>2022-08-24T06:51:11Z</time>
      </trkpt>
      <trkpt lat="43.135584000000115" lon="-1.2381189999999995">
        <ele>321.209</ele>
        <time>2022-08-24T06:51:12Z</time>
      </trkpt>
      <trkpt lat="43.13555200000012" lon="-1.2381219999999995">
        <ele>321.424</ele>
        <time>2022-08-24T06:51:13Z</time>
      </trkpt>
      <trkpt lat="43.13552300000012" lon="-1.2381279999999995">
        <ele>321.874</ele>
        <time>2022-08-24T06:51:14Z</time>
      </trkpt>
      <trkpt lat="43.13549600000012" lon="-1.2381309999999994">
        <ele>322.064</ele>
        <time>2022-08-24T06:51:15Z</time>
      </trkpt>
      <trkpt lat="43.135469000000114" lon="-1.2381339999999994">
        <ele>322.250</ele>
        <time>2022-08-24T06:51:16Z</time>
      </trkpt>
      <trkpt lat="43.135469000000114" lon="-1.2381339999999994">
        <ele>322.442</ele>
        <time>2022-08-24T06:51:17Z</time>
      </trkpt>
      <trkpt lat="43.135421000000115" lon="-1.2381329999999995">
        <ele>322.649</ele>
        <time>2022-08-24T06:51:18Z</time>
      </trkpt>
      <trkpt lat="43.135395000000116" lon="-1.2381309999999994">
        <ele>322.882</ele>
        <time>2022-08-24T06:51:19Z</time>
      </trkpt>
      <trkpt lat="43.135370000000115" lon="-1.2381319999999993">
        <ele>323.066</ele>
        <time>2022-08-24T06:51:20Z</time>
      </trkpt>
      <trkpt lat="43.13534100000012" lon="-1.2381329999999993">
        <ele>323.065</ele>
        <time>2022-08-24T06:51:21Z</time>
      </trkpt>
      <trkpt lat="43.135311000000115" lon="-1.2381359999999992">
        <ele>323.046</ele>
        <time>2022-08-24T06:51:22Z</time>
      </trkpt>
      <trkpt lat="43.13528100000011" lon="-1.2381349999999993">
        <ele>323.288</ele>
        <time>2022-08-24T06:51:23Z</time>
      </trkpt>
      <trkpt lat="43.135249000000115" lon="-1.2381319999999993">
        <ele>323.416</ele>
        <time>2022-08-24T06:51:24Z</time>
      </trkpt>
      <trkpt lat="43.135218000000116" lon="-1.2381269999999993">
        <ele>323.609</ele>
        <time>2022-08-24T06:51:25Z</time>
      </trkpt>
      <trkpt lat="43.135218000000116" lon="-1.2381269999999993">
        <ele>323.645</ele>
        <time>2022-08-24T06:51:26Z</time>
      </trkpt>
      <trkpt lat="43.135154000000114" lon="-1.2381129999999994">
        <ele>323.615</ele>
        <time>2022-08-24T06:51:27Z</time>
      </trkpt>
      <trkpt lat="43.135154000000114" lon="-1.2381129999999994">
        <ele>323.895</ele>
        <time>2022-08-24T06:51:28Z</time>
      </trkpt>
      <trkpt lat="43.13508400000011" lon="-1.2380999999999993">
        <ele>323.831</ele>
        <time>2022-08-24T06:51:29Z</time>
      </trkpt>
      <trkpt lat="43.135049000000116" lon="-1.2380919999999993">
        <ele>323.873</ele>
        <time>2022-08-24T06:51:30Z</time>
      </trkpt>
      <trkpt lat="43.135049000000116" lon="-1.2380919999999993">
        <ele>323.870</ele>
        <time>2022-08-24T06:51:31Z</time>
      </trkpt>
      <trkpt lat="43.134982000000115" lon="-1.2380839999999993">
        <ele>323.883</ele>
        <time>2022-08-24T06:51:32Z</time>
      </trkpt>
      <trkpt lat="43.13495000000012" lon="-1.2380779999999993">
        <ele>323.827</ele>
        <time>2022-08-24T06:51:33Z</time>
      </trkpt>
      <trkpt lat="43.13491800000012" lon="-1.2380729999999993">
        <ele>323.846</ele>
        <time>2022-08-24T06:51:34Z</time>
      </trkpt>
      <trkpt lat="43.13488700000012" lon="-1.2380669999999994">
        <ele>323.883</ele>
        <time>2022-08-24T06:51:35Z</time>
      </trkpt>
      <trkpt lat="43.13488700000012" lon="-1.2380669999999994">
        <ele>323.825</ele>
        <time>2022-08-24T06:51:36Z</time>
      </trkpt>
      <trkpt lat="43.13482500000012" lon="-1.2380689999999994">
        <ele>323.817</ele>
        <time>2022-08-24T06:51:37Z</time>
      </trkpt>
      <trkpt lat="43.13479700000012" lon="-1.2380709999999995">
        <ele>323.809</ele>
        <time>2022-08-24T06:51:38Z</time>
      </trkpt>
      <trkpt lat="43.13479700000012" lon="-1.2380709999999995">
        <ele>323.829</ele>
        <time>2022-08-24T06:51:39Z</time>
      </trkpt>
      <trkpt lat="43.13475200000012" lon="-1.2380809999999995">
        <ele>324.299</ele>
        <time>2022-08-24T06:51:40Z</time>
      </trkpt>
      <trkpt lat="43.13473300000012" lon="-1.2380909999999996">
        <ele>324.289</ele>
        <time>2022-08-24T06:51:41Z</time>
      </trkpt>
      <trkpt lat="43.13471000000012" lon="-1.2381039999999996">
        <ele>324.455</ele>
        <time>2022-08-24T06:51:42Z</time>
      </trkpt>
      <trkpt lat="43.134686000000116" lon="-1.2381239999999996">
        <ele>324.667</ele>
        <time>2022-08-24T06:51:43Z</time>
      </trkpt>
      <trkpt lat="43.134548000000116" lon="-1.2382799999999996">
        <ele>324.844</ele>
        <time>2022-08-24T06:51:48Z</time>
      </trkpt>
      <trkpt lat="43.13451600000012" lon="-1.2383219999999997">
        <ele>324.857</ele>
        <time>2022-08-24T06:51:49Z</time>
      </trkpt>
      <trkpt lat="43.13435700000012" lon="-1.2385429999999997">
        <ele>324.671</ele>
        <time>2022-08-24T06:51:54Z</time>
      </trkpt>
      <trkpt lat="43.13432600000012" lon="-1.2385949999999997">
        <ele>324.640</ele>
        <time>2022-08-24T06:51:55Z</time>
      </trkpt>
      <trkpt lat="43.13425000000012" lon="-1.2387019999999997">
        <ele>324.443</ele>
        <time>2022-08-24T06:51:57Z</time>
      </trkpt>
      <trkpt lat="43.13416000000012" lon="-1.2387949999999996">
        <ele>324.464</ele>
        <time>2022-08-24T06:51:59Z</time>
      </trkpt>
      <trkpt lat="43.13411600000012" lon="-1.2388339999999995">
        <ele>324.210</ele>
        <time>2022-08-24T06:52:00Z</time>
      </trkpt>
      <trkpt lat="43.13407100000012" lon="-1.2388679999999996">
        <ele>323.809</ele>
        <time>2022-08-24T06:52:01Z</time>
      </trkpt>
      <trkpt lat="43.13402600000012" lon="-1.2388919999999997">
        <ele>323.855</ele>
        <time>2022-08-24T06:52:02Z</time>
      </trkpt>
      <trkpt lat="43.13397800000012" lon="-1.2389089999999996">
        <ele>323.645</ele>
        <time>2022-08-24T06:52:03Z</time>
      </trkpt>
      <trkpt lat="43.13393100000012" lon="-1.2389169999999996">
        <ele>323.675</ele>
        <time>2022-08-24T06:52:04Z</time>
      </trkpt>
      <trkpt lat="43.13393100000012" lon="-1.2389169999999996">
        <ele>323.671</ele>
        <time>2022-08-24T06:52:05Z</time>
      </trkpt>
      <trkpt lat="43.13384600000012" lon="-1.2389249999999996">
        <ele>323.453</ele>
        <time>2022-08-24T06:52:06Z</time>
      </trkpt>
      <trkpt lat="43.13380200000012" lon="-1.2389209999999997">
        <ele>323.450</ele>
        <time>2022-08-24T06:52:07Z</time>
      </trkpt>
      <trkpt lat="43.13375900000012" lon="-1.2389149999999998">
        <ele>323.473</ele>
        <time>2022-08-24T06:52:08Z</time>
      </trkpt>
      <trkpt lat="43.13375900000012" lon="-1.2389149999999998">
        <ele>323.457</ele>
        <time>2022-08-24T06:52:09Z</time>
      </trkpt>
      <trkpt lat="43.13371900000012" lon="-1.2389069999999998">
        <ele>323.456</ele>
        <time>2022-08-24T06:52:10Z</time>
      </trkpt>
      <trkpt lat="43.13364200000012" lon="-1.2388869999999998">
        <ele>323.474</ele>
        <time>2022-08-24T06:52:11Z</time>
      </trkpt>
      <trkpt lat="43.133602000000124" lon="-1.238878">
        <ele>323.456</ele>
        <time>2022-08-24T06:52:12Z</time>
      </trkpt>
      <trkpt lat="43.13356600000012" lon="-1.2388629999999998">
        <ele>323.421</ele>
        <time>2022-08-24T06:52:13Z</time>
      </trkpt>
      <trkpt lat="43.13353000000012" lon="-1.2388469999999998">
        <ele>323.409</ele>
        <time>2022-08-24T06:52:14Z</time>
      </trkpt>
      <trkpt lat="43.13349600000012" lon="-1.2388259999999998">
        <ele>323.448</ele>
        <time>2022-08-24T06:52:15Z</time>
      </trkpt>
      <trkpt lat="43.13346200000012" lon="-1.2388019999999997">
        <ele>323.698</ele>
        <time>2022-08-24T06:52:16Z</time>
      </trkpt>
      <trkpt lat="43.133427000000125" lon="-1.2387749999999997">
        <ele>323.488</ele>
        <time>2022-08-24T06:52:17Z</time>
      </trkpt>
      <trkpt lat="43.133363000000124" lon="-1.2387149999999998">
        <ele>323.474</ele>
        <time>2022-08-24T06:52:19Z</time>
      </trkpt>
      <trkpt lat="43.133363000000124" lon="-1.2387149999999998">
        <ele>323.446</ele>
        <time>2022-08-24T06:52:20Z</time>
      </trkpt>
      <trkpt lat="43.13331000000012" lon="-1.2386479999999997">
        <ele>323.653</ele>
        <time>2022-08-24T06:52:21Z</time>
      </trkpt>
      <trkpt lat="43.13328600000012" lon="-1.2386179999999998">
        <ele>323.686</ele>
        <time>2022-08-24T06:52:22Z</time>
      </trkpt>
      <trkpt lat="43.13326400000012" lon="-1.2385899999999999">
        <ele>323.830</ele>
        <time>2022-08-24T06:52:23Z</time>
      </trkpt>
      <trkpt lat="43.133245000000116" lon="-1.238565">
        <ele>324.069</ele>
        <time>2022-08-24T06:52:24Z</time>
      </trkpt>
      <trkpt lat="43.13322500000012" lon="-1.238535">
        <ele>324.292</ele>
        <time>2022-08-24T06:52:25Z</time>
      </trkpt>
      <trkpt lat="43.13322500000012" lon="-1.238535">
        <ele>324.473</ele>
        <time>2022-08-24T06:52:26Z</time>
      </trkpt>
      <trkpt lat="43.133186000000116" lon="-1.238483">
        <ele>324.420</ele>
        <time>2022-08-24T06:52:27Z</time>
      </trkpt>
      <trkpt lat="43.13316800000012" lon="-1.238455">
        <ele>324.609</ele>
        <time>2022-08-24T06:52:28Z</time>
      </trkpt>
      <trkpt lat="43.13316800000012" lon="-1.238455">
        <ele>324.640</ele>
        <time>2022-08-24T06:52:29Z</time>
      </trkpt>
      <trkpt lat="43.13312900000012" lon="-1.238407">
        <ele>324.840</ele>
        <time>2022-08-24T06:52:30Z</time>
      </trkpt>
      <trkpt lat="43.13310900000012" lon="-1.238382">
        <ele>324.820</ele>
        <time>2022-08-24T06:52:31Z</time>
      </trkpt>
      <trkpt lat="43.13309000000012" lon="-1.238361">
        <ele>325.276</ele>
        <time>2022-08-24T06:52:32Z</time>
      </trkpt>
      <trkpt lat="43.13307200000012" lon="-1.238342">
        <ele>325.288</ele>
        <time>2022-08-24T06:52:33Z</time>
      </trkpt>
      <trkpt lat="43.13307200000012" lon="-1.238342">
        <ele>325.445</ele>
        <time>2022-08-24T06:52:34Z</time>
      </trkpt>
      <trkpt lat="43.13303500000012" lon="-1.238324">
        <ele>325.668</ele>
        <time>2022-08-24T06:52:35Z</time>
      </trkpt>
      <trkpt lat="43.13301800000012" lon="-1.238316">
        <ele>325.882</ele>
        <time>2022-08-24T06:52:36Z</time>
      </trkpt>
      <trkpt lat="43.13300300000012" lon="-1.238311">
        <ele>326.061</ele>
        <time>2022-08-24T06:52:37Z</time>
      </trkpt>
      <trkpt lat="43.13298600000012" lon="-1.238306">
        <ele>326.215</ele>
        <time>2022-08-24T06:52:38Z</time>
      </trkpt>
      <trkpt lat="43.13298600000012" lon="-1.238306">
        <ele>326.465</ele>
        <time>2022-08-24T06:52:39Z</time>
      </trkpt>
      <trkpt lat="43.132938000000124" lon="-1.2382989999999998">
        <ele>327.011</ele>
        <time>2022-08-24T06:52:41Z</time>
      </trkpt>
      <trkpt lat="43.132921000000124" lon="-1.2383039999999998">
        <ele>327.209</ele>
        <time>2022-08-24T06:52:42Z</time>
      </trkpt>
      <trkpt lat="43.132904000000124" lon="-1.2383079999999997">
        <ele>327.452</ele>
        <time>2022-08-24T06:52:43Z</time>
      </trkpt>
      <trkpt lat="43.132890000000124" lon="-1.2383079999999997">
        <ele>327.822</ele>
        <time>2022-08-24T06:52:44Z</time>
      </trkpt>
      <trkpt lat="43.132873000000124" lon="-1.2383129999999998">
        <ele>328.022</ele>
        <time>2022-08-24T06:52:45Z</time>
      </trkpt>
      <trkpt lat="43.13285700000012" lon="-1.2383179999999998">
        <ele>328.438</ele>
        <time>2022-08-24T06:52:46Z</time>
      </trkpt>
      <trkpt lat="43.13284100000012" lon="-1.2383229999999998">
        <ele>328.860</ele>
        <time>2022-08-24T06:52:47Z</time>
      </trkpt>
      <trkpt lat="43.13282600000012" lon="-1.238325">
        <ele>328.827</ele>
        <time>2022-08-24T06:52:48Z</time>
      </trkpt>
      <trkpt lat="43.13281200000012" lon="-1.2383339999999998">
        <ele>329.040</ele>
        <time>2022-08-24T06:52:49Z</time>
      </trkpt>
      <trkpt lat="43.132797000000124" lon="-1.2383419999999998">
        <ele>329.274</ele>
        <time>2022-08-24T06:52:50Z</time>
      </trkpt>
      <trkpt lat="43.132783000000124" lon="-1.2383499999999998">
        <ele>329.493</ele>
        <time>2022-08-24T06:52:51Z</time>
      </trkpt>
      <trkpt lat="43.132769000000124" lon="-1.2383549999999999">
        <ele>329.621</ele>
        <time>2022-08-24T06:52:52Z</time>
      </trkpt>
      <trkpt lat="43.13275600000012" lon="-1.2383629999999999">
        <ele>330.041</ele>
        <time>2022-08-24T06:52:53Z</time>
      </trkpt>
      <trkpt lat="43.132741000000124" lon="-1.23837">
        <ele>330.205</ele>
        <time>2022-08-24T06:52:54Z</time>
      </trkpt>
      <trkpt lat="43.13272700000012" lon="-1.238375">
        <ele>330.409</ele>
        <time>2022-08-24T06:52:55Z</time>
      </trkpt>
      <trkpt lat="43.13271300000012" lon="-1.238381">
        <ele>330.813</ele>
        <time>2022-08-24T06:52:56Z</time>
      </trkpt>
      <trkpt lat="43.13269900000012" lon="-1.238386">
        <ele>331.043</ele>
        <time>2022-08-24T06:52:57Z</time>
      </trkpt>
      <trkpt lat="43.13268300000012" lon="-1.238392">
        <ele>331.263</ele>
        <time>2022-08-24T06:52:58Z</time>
      </trkpt>
      <trkpt lat="43.13266700000012" lon="-1.2384">
        <ele>331.479</ele>
        <time>2022-08-24T06:52:59Z</time>
      </trkpt>
      <trkpt lat="43.132651000000116" lon="-1.238405">
        <ele>331.831</ele>
        <time>2022-08-24T06:53:00Z</time>
      </trkpt>
      <trkpt lat="43.132635000000114" lon="-1.23841">
        <ele>331.848</ele>
        <time>2022-08-24T06:53:01Z</time>
      </trkpt>
      <trkpt lat="43.13261600000011" lon="-1.238417">
        <ele>332.281</ele>
        <time>2022-08-24T06:53:02Z</time>
      </trkpt>
      <trkpt lat="43.13261600000011" lon="-1.238417">
        <ele>332.485</ele>
        <time>2022-08-24T06:53:03Z</time>
      </trkpt>
      <trkpt lat="43.13258300000011" lon="-1.238425">
        <ele>332.454</ele>
        <time>2022-08-24T06:53:04Z</time>
      </trkpt>
      <trkpt lat="43.13256900000011" lon="-1.2384300000000001">
        <ele>332.871</ele>
        <time>2022-08-24T06:53:05Z</time>
      </trkpt>
      <trkpt lat="43.13255400000011" lon="-1.2384320000000002">
        <ele>332.841</ele>
        <time>2022-08-24T06:53:06Z</time>
      </trkpt>
      <trkpt lat="43.13254100000011" lon="-1.2384370000000002">
        <ele>333.015</ele>
        <time>2022-08-24T06:53:07Z</time>
      </trkpt>
      <trkpt lat="43.13252700000011" lon="-1.2384450000000002">
        <ele>333.209</ele>
        <time>2022-08-24T06:53:08Z</time>
      </trkpt>
      <trkpt lat="43.13251100000011" lon="-1.2384550000000003">
        <ele>333.458</ele>
        <time>2022-08-24T06:53:09Z</time>
      </trkpt>
      <trkpt lat="43.13251100000011" lon="-1.2384550000000003">
        <ele>333.878</ele>
        <time>2022-08-24T06:53:10Z</time>
      </trkpt>
      <trkpt lat="43.132495000000105" lon="-1.2384650000000004">
        <ele>334.058</ele>
        <time>2022-08-24T06:53:11Z</time>
      </trkpt>
      <trkpt lat="43.13246300000011" lon="-1.2384860000000004">
        <ele>334.254</ele>
        <time>2022-08-24T06:53:12Z</time>
      </trkpt>
      <trkpt lat="43.13244900000011" lon="-1.2384940000000004">
        <ele>334.296</ele>
        <time>2022-08-24T06:53:13Z</time>
      </trkpt>
      <trkpt lat="43.13243700000011" lon="-1.2385070000000005">
        <ele>334.623</ele>
        <time>2022-08-24T06:53:14Z</time>
      </trkpt>
      <trkpt lat="43.13242300000011" lon="-1.2385210000000004">
        <ele>334.876</ele>
        <time>2022-08-24T06:53:15Z</time>
      </trkpt>
      <trkpt lat="43.13241100000011" lon="-1.2385360000000005">
        <ele>335.250</ele>
        <time>2022-08-24T06:53:16Z</time>
      </trkpt>
      <trkpt lat="43.13239900000011" lon="-1.2385480000000004">
        <ele>335.669</ele>
        <time>2022-08-24T06:53:17Z</time>
      </trkpt>
      <trkpt lat="43.13238500000011" lon="-1.2385570000000004">
        <ele>335.628</ele>
        <time>2022-08-24T06:53:18Z</time>
      </trkpt>
      <trkpt lat="43.132370000000115" lon="-1.2385670000000004">
        <ele>335.889</ele>
        <time>2022-08-24T06:53:19Z</time>
      </trkpt>
      <trkpt lat="43.13235500000012" lon="-1.2385770000000005">
        <ele>336.017</ele>
        <time>2022-08-24T06:53:20Z</time>
      </trkpt>
      <trkpt lat="43.13234000000012" lon="-1.2385890000000004">
        <ele>336.209</ele>
        <time>2022-08-24T06:53:21Z</time>
      </trkpt>
      <trkpt lat="43.13234000000012" lon="-1.2385890000000004">
        <ele>336.453</ele>
        <time>2022-08-24T06:53:22Z</time>
      </trkpt>
      <trkpt lat="43.13230700000012" lon="-1.2386190000000004">
        <ele>336.873</ele>
        <time>2022-08-24T06:53:23Z</time>
      </trkpt>
      <trkpt lat="43.13229000000012" lon="-1.2386360000000003">
        <ele>336.883</ele>
        <time>2022-08-24T06:53:24Z</time>
      </trkpt>
      <trkpt lat="43.13229000000012" lon="-1.2386360000000003">
        <ele>337.069</ele>
        <time>2022-08-24T06:53:25Z</time>
      </trkpt>
      <trkpt lat="43.132260000000116" lon="-1.2386680000000003">
        <ele>337.261</ele>
        <time>2022-08-24T06:53:26Z</time>
      </trkpt>
      <trkpt lat="43.13224500000012" lon="-1.2386830000000004">
        <ele>337.248</ele>
        <time>2022-08-24T06:53:27Z</time>
      </trkpt>
      <trkpt lat="43.132229000000116" lon="-1.2386970000000004">
        <ele>337.441</ele>
        <time>2022-08-24T06:53:28Z</time>
      </trkpt>
      <trkpt lat="43.13221400000012" lon="-1.2387110000000003">
        <ele>337.625</ele>
        <time>2022-08-24T06:53:29Z</time>
      </trkpt>
      <trkpt lat="43.13220000000012" lon="-1.2387230000000002">
        <ele>337.694</ele>
        <time>2022-08-24T06:53:30Z</time>
      </trkpt>
      <trkpt lat="43.13217800000012" lon="-1.2387390000000003">
        <ele>337.854</ele>
        <time>2022-08-24T06:53:31Z</time>
      </trkpt>
      <trkpt lat="43.132162000000115" lon="-1.2387540000000004">
        <ele>337.856</ele>
        <time>2022-08-24T06:53:32Z</time>
      </trkpt>
      <trkpt lat="43.13214900000011" lon="-1.2387670000000004">
        <ele>338.011</ele>
        <time>2022-08-24T06:53:33Z</time>
      </trkpt>
      <trkpt lat="43.13213300000011" lon="-1.2387860000000004">
        <ele>338.209</ele>
        <time>2022-08-24T06:53:34Z</time>
      </trkpt>
      <trkpt lat="43.13212000000011" lon="-1.2387990000000004">
        <ele>338.436</ele>
        <time>2022-08-24T06:53:35Z</time>
      </trkpt>
      <trkpt lat="43.132109000000106" lon="-1.2388110000000003">
        <ele>338.436</ele>
        <time>2022-08-24T06:53:36Z</time>
      </trkpt>
      <trkpt lat="43.132098000000106" lon="-1.2388260000000004">
        <ele>338.466</ele>
        <time>2022-08-24T06:53:37Z</time>
      </trkpt>
      <trkpt lat="43.132084000000106" lon="-1.2388390000000005">
        <ele>338.642</ele>
        <time>2022-08-24T06:53:38Z</time>
      </trkpt>
      <trkpt lat="43.132070000000105" lon="-1.2388510000000004">
        <ele>338.684</ele>
        <time>2022-08-24T06:53:39Z</time>
      </trkpt>
      <trkpt lat="43.13205500000011" lon="-1.2388670000000004">
        <ele>338.851</ele>
        <time>2022-08-24T06:53:40Z</time>
      </trkpt>
      <trkpt lat="43.13204100000011" lon="-1.2388850000000005">
        <ele>338.874</ele>
        <time>2022-08-24T06:53:41Z</time>
      </trkpt>
      <trkpt lat="43.13203000000011" lon="-1.2389040000000004">
        <ele>339.028</ele>
        <time>2022-08-24T06:53:42Z</time>
      </trkpt>
      <trkpt lat="43.132020000000104" lon="-1.2389230000000004">
        <ele>339.047</ele>
        <time>2022-08-24T06:53:43Z</time>
      </trkpt>
      <trkpt lat="43.1320070000001" lon="-1.2389420000000004">
        <ele>339.028</ele>
        <time>2022-08-24T06:53:44Z</time>
      </trkpt>
      <trkpt lat="43.1320070000001" lon="-1.2389420000000004">
        <ele>339.289</ele>
        <time>2022-08-24T06:53:45Z</time>
      </trkpt>
      <trkpt lat="43.1319800000001" lon="-1.2389770000000004">
        <ele>339.217</ele>
        <time>2022-08-24T06:53:46Z</time>
      </trkpt>
      <trkpt lat="43.1319620000001" lon="-1.2389920000000005">
        <ele>339.209</ele>
        <time>2022-08-24T06:53:47Z</time>
      </trkpt>
      <trkpt lat="43.131944000000104" lon="-1.2390100000000006">
        <ele>339.443</ele>
        <time>2022-08-24T06:53:48Z</time>
      </trkpt>
      <trkpt lat="43.131927000000104" lon="-1.2390270000000005">
        <ele>339.463</ele>
        <time>2022-08-24T06:53:49Z</time>
      </trkpt>
      <trkpt lat="43.1319110000001" lon="-1.2390450000000006">
        <ele>339.683</ele>
        <time>2022-08-24T06:53:50Z</time>
      </trkpt>
      <trkpt lat="43.1318910000001" lon="-1.2390630000000007">
        <ele>339.669</ele>
        <time>2022-08-24T06:53:51Z</time>
      </trkpt>
      <trkpt lat="43.1318690000001" lon="-1.2390790000000007">
        <ele>339.681</ele>
        <time>2022-08-24T06:53:52Z</time>
      </trkpt>
      <trkpt lat="43.131848000000105" lon="-1.2390930000000007">
        <ele>339.868</ele>
        <time>2022-08-24T06:53:53Z</time>
      </trkpt>
      <trkpt lat="43.131825000000106" lon="-1.2391070000000006">
        <ele>339.871</ele>
        <time>2022-08-24T06:53:54Z</time>
      </trkpt>
      <trkpt lat="43.13180200000011" lon="-1.2391180000000006">
        <ele>339.875</ele>
        <time>2022-08-24T06:53:55Z</time>
      </trkpt>
      <trkpt lat="43.131780000000106" lon="-1.2391300000000005">
        <ele>339.814</ele>
        <time>2022-08-24T06:53:56Z</time>
      </trkpt>
      <trkpt lat="43.131758000000104" lon="-1.2391380000000005">
        <ele>339.827</ele>
        <time>2022-08-24T06:53:57Z</time>
      </trkpt>
      <trkpt lat="43.131758000000104" lon="-1.2391380000000005">
        <ele>339.868</ele>
        <time>2022-08-24T06:53:58Z</time>
      </trkpt>
      <trkpt lat="43.13157700000011" lon="-1.2392330000000005">
        <ele>340.014</ele>
        <time>2022-08-24T06:54:04Z</time>
      </trkpt>
      <trkpt lat="43.13157700000011" lon="-1.2392330000000005">
        <ele>340.009</ele>
        <time>2022-08-24T06:54:05Z</time>
      </trkpt>
      <trkpt lat="43.13152500000011" lon="-1.2392570000000005">
        <ele>340.033</ele>
        <time>2022-08-24T06:54:06Z</time>
      </trkpt>
      <trkpt lat="43.13150000000011" lon="-1.2392710000000005">
        <ele>340.063</ele>
        <time>2022-08-24T06:54:07Z</time>
      </trkpt>
      <trkpt lat="43.13147700000011" lon="-1.2392870000000005">
        <ele>340.063</ele>
        <time>2022-08-24T06:54:08Z</time>
      </trkpt>
      <trkpt lat="43.13145200000011" lon="-1.2393060000000005">
        <ele>340.239</ele>
        <time>2022-08-24T06:54:10Z</time>
      </trkpt>
      <trkpt lat="43.13136300000011" lon="-1.2393820000000004">
        <ele>340.281</ele>
        <time>2022-08-24T06:54:13Z</time>
      </trkpt>
      <trkpt lat="43.131341000000106" lon="-1.2394010000000004">
        <ele>340.228</ele>
        <time>2022-08-24T06:54:14Z</time>
      </trkpt>
      <trkpt lat="43.13132000000011" lon="-1.2394260000000004">
        <ele>340.241</ele>
        <time>2022-08-24T06:54:15Z</time>
      </trkpt>
      <trkpt lat="43.13121400000011" lon="-1.2395730000000003">
        <ele>340.665</ele>
        <time>2022-08-24T06:54:21Z</time>
      </trkpt>
      <trkpt lat="43.13117700000011" lon="-1.2396300000000002">
        <ele>340.634</ele>
        <time>2022-08-24T06:54:22Z</time>
      </trkpt>
      <trkpt lat="43.13111700000011" lon="-1.2397170000000002">
        <ele>340.823</ele>
        <time>2022-08-24T06:54:25Z</time>
      </trkpt>
      <trkpt lat="43.13109900000011" lon="-1.239745">
        <ele>341.083</ele>
        <time>2022-08-24T06:54:26Z</time>
      </trkpt>
      <trkpt lat="43.13108200000011" lon="-1.239776">
        <ele>341.211</ele>
        <time>2022-08-24T06:54:27Z</time>
      </trkpt>
      <trkpt lat="43.131064000000116" lon="-1.23981">
        <ele>341.209</ele>
        <time>2022-08-24T06:54:28Z</time>
      </trkpt>
      <trkpt lat="43.13105100000011" lon="-1.239829">
        <ele>341.473</ele>
        <time>2022-08-24T06:54:29Z</time>
      </trkpt>
      <trkpt lat="43.13103700000011" lon="-1.239853">
        <ele>341.453</ele>
        <time>2022-08-24T06:54:30Z</time>
      </trkpt>
      <trkpt lat="43.13102400000011" lon="-1.2398770000000001">
        <ele>341.453</ele>
        <time>2022-08-24T06:54:31Z</time>
      </trkpt>
      <trkpt lat="43.13101300000011" lon="-1.2399000000000002">
        <ele>341.659</ele>
        <time>2022-08-24T06:54:32Z</time>
      </trkpt>
      <trkpt lat="43.13099900000011" lon="-1.2399220000000002">
        <ele>341.821</ele>
        <time>2022-08-24T06:54:33Z</time>
      </trkpt>
      <trkpt lat="43.13098300000011" lon="-1.2399450000000003">
        <ele>341.858</ele>
        <time>2022-08-24T06:54:34Z</time>
      </trkpt>
      <trkpt lat="43.130956000000104" lon="-1.2399830000000003">
        <ele>342.211</ele>
        <time>2022-08-24T06:54:36Z</time>
      </trkpt>
      <trkpt lat="43.130944000000106" lon="-1.2400070000000003">
        <ele>342.485</ele>
        <time>2022-08-24T06:54:37Z</time>
      </trkpt>
      <trkpt lat="43.1309030000001" lon="-1.2400730000000002">
        <ele>342.824</ele>
        <time>2022-08-24T06:54:40Z</time>
      </trkpt>
      <trkpt lat="43.1308560000001" lon="-1.240139">
        <ele>343.082</ele>
        <time>2022-08-24T06:54:43Z</time>
      </trkpt>
      <trkpt lat="43.1308120000001" lon="-1.24021">
        <ele>343.243</ele>
        <time>2022-08-24T06:54:46Z</time>
      </trkpt>
      <trkpt lat="43.1307970000001" lon="-1.240234">
        <ele>343.217</ele>
        <time>2022-08-24T06:54:47Z</time>
      </trkpt>
      <trkpt lat="43.1307840000001" lon="-1.240261">
        <ele>343.409</ele>
        <time>2022-08-24T06:54:48Z</time>
      </trkpt>
      <trkpt lat="43.1307720000001" lon="-1.240288">
        <ele>343.449</ele>
        <time>2022-08-24T06:54:49Z</time>
      </trkpt>
      <trkpt lat="43.1307630000001" lon="-1.240316">
        <ele>343.669</ele>
        <time>2022-08-24T06:54:50Z</time>
      </trkpt>
      <trkpt lat="43.1307550000001" lon="-1.240342">
        <ele>343.679</ele>
        <time>2022-08-24T06:54:51Z</time>
      </trkpt>
      <trkpt lat="43.1307450000001" lon="-1.240369">
        <ele>343.665</ele>
        <time>2022-08-24T06:54:52Z</time>
      </trkpt>
      <trkpt lat="43.130737000000096" lon="-1.240397">
        <ele>343.647</ele>
        <time>2022-08-24T06:54:53Z</time>
      </trkpt>
      <trkpt lat="43.1307160000001" lon="-1.240484">
        <ele>343.874</ele>
        <time>2022-08-24T06:54:56Z</time>
      </trkpt>
      <trkpt lat="43.1307100000001" lon="-1.24051">
        <ele>343.817</ele>
        <time>2022-08-24T06:54:57Z</time>
      </trkpt>
      <trkpt lat="43.1307030000001" lon="-1.240537">
        <ele>343.861</ele>
        <time>2022-08-24T06:54:58Z</time>
      </trkpt>
      <trkpt lat="43.13069900000011" lon="-1.240562">
        <ele>343.860</ele>
        <time>2022-08-24T06:54:59Z</time>
      </trkpt>
      <trkpt lat="43.13069300000011" lon="-1.240588">
        <ele>343.893</ele>
        <time>2022-08-24T06:55:00Z</time>
      </trkpt>
      <trkpt lat="43.13068700000011" lon="-1.240613">
        <ele>344.065</ele>
        <time>2022-08-24T06:55:01Z</time>
      </trkpt>
      <trkpt lat="43.13068000000011" lon="-1.240639">
        <ele>344.021</ele>
        <time>2022-08-24T06:55:02Z</time>
      </trkpt>
      <trkpt lat="43.13067400000011" lon="-1.240663">
        <ele>344.209</ele>
        <time>2022-08-24T06:55:03Z</time>
      </trkpt>
      <trkpt lat="43.13067400000011" lon="-1.240663">
        <ele>344.240</ele>
        <time>2022-08-24T06:55:04Z</time>
      </trkpt>
      <trkpt lat="43.13065800000011" lon="-1.240712">
        <ele>344.470</ele>
        <time>2022-08-24T06:55:05Z</time>
      </trkpt>
      <trkpt lat="43.13064300000011" lon="-1.24076">
        <ele>344.470</ele>
        <time>2022-08-24T06:55:07Z</time>
      </trkpt>
      <trkpt lat="43.130637000000114" lon="-1.240779">
        <ele>344.696</ele>
        <time>2022-08-24T06:55:08Z</time>
      </trkpt>
      <trkpt lat="43.13063300000012" lon="-1.2407970000000001">
        <ele>344.868</ele>
        <time>2022-08-24T06:55:09Z</time>
      </trkpt>
      <trkpt lat="43.130628000000115" lon="-1.2408150000000002">
        <ele>345.075</ele>
        <time>2022-08-24T06:55:10Z</time>
      </trkpt>
      <trkpt lat="43.130623000000114" lon="-1.2408320000000002">
        <ele>345.028</ele>
        <time>2022-08-24T06:55:11Z</time>
      </trkpt>
      <trkpt lat="43.13061800000011" lon="-1.2408640000000002">
        <ele>345.412</ele>
        <time>2022-08-24T06:55:13Z</time>
      </trkpt>
      <trkpt lat="43.13061200000011" lon="-1.2408830000000002">
        <ele>345.661</ele>
        <time>2022-08-24T06:55:14Z</time>
      </trkpt>
      <trkpt lat="43.130606000000114" lon="-1.2409040000000002">
        <ele>345.885</ele>
        <time>2022-08-24T06:55:15Z</time>
      </trkpt>
      <trkpt lat="43.130591000000116" lon="-1.2409410000000003">
        <ele>346.689</ele>
        <time>2022-08-24T06:55:17Z</time>
      </trkpt>
      <trkpt lat="43.13058100000011" lon="-1.2409580000000002">
        <ele>347.017</ele>
        <time>2022-08-24T06:55:18Z</time>
      </trkpt>
      <trkpt lat="43.13057400000012" lon="-1.2409760000000003">
        <ele>347.409</ele>
        <time>2022-08-24T06:55:19Z</time>
      </trkpt>
      <trkpt lat="43.13056700000012" lon="-1.2409890000000003">
        <ele>347.629</ele>
        <time>2022-08-24T06:55:20Z</time>
      </trkpt>
      <trkpt lat="43.13055600000012" lon="-1.2410060000000003">
        <ele>348.059</ele>
        <time>2022-08-24T06:55:21Z</time>
      </trkpt>
      <trkpt lat="43.13054500000012" lon="-1.2410220000000003">
        <ele>348.049</ele>
        <time>2022-08-24T06:55:22Z</time>
      </trkpt>
      <trkpt lat="43.13053400000012" lon="-1.2410360000000003">
        <ele>348.415</ele>
        <time>2022-08-24T06:55:23Z</time>
      </trkpt>
      <trkpt lat="43.130524000000115" lon="-1.2410520000000003">
        <ele>348.637</ele>
        <time>2022-08-24T06:55:24Z</time>
      </trkpt>
      <trkpt lat="43.130515000000116" lon="-1.2410700000000003">
        <ele>349.094</ele>
        <time>2022-08-24T06:55:25Z</time>
      </trkpt>
      <trkpt lat="43.13050500000011" lon="-1.2410860000000004">
        <ele>349.457</ele>
        <time>2022-08-24T06:55:26Z</time>
      </trkpt>
      <trkpt lat="43.13050500000011" lon="-1.2410860000000004">
        <ele>349.621</ele>
        <time>2022-08-24T06:55:27Z</time>
      </trkpt>
      <trkpt lat="43.130484000000116" lon="-1.2411180000000004">
        <ele>349.830</ele>
        <time>2022-08-24T06:55:28Z</time>
      </trkpt>
      <trkpt lat="43.13047400000011" lon="-1.2411350000000003">
        <ele>350.072</ele>
        <time>2022-08-24T06:55:29Z</time>
      </trkpt>
      <trkpt lat="43.13046400000011" lon="-1.2411490000000003">
        <ele>350.413</ele>
        <time>2022-08-24T06:55:30Z</time>
      </trkpt>
      <trkpt lat="43.13045600000011" lon="-1.2411650000000003">
        <ele>350.414</ele>
        <time>2022-08-24T06:55:31Z</time>
      </trkpt>
      <trkpt lat="43.13044700000011" lon="-1.2411810000000003">
        <ele>350.809</ele>
        <time>2022-08-24T06:55:32Z</time>
      </trkpt>
      <trkpt lat="43.13043500000011" lon="-1.2411970000000003">
        <ele>351.288</ele>
        <time>2022-08-24T06:55:33Z</time>
      </trkpt>
      <trkpt lat="43.13042100000011" lon="-1.2412140000000003">
        <ele>351.488</ele>
        <time>2022-08-24T06:55:34Z</time>
      </trkpt>
      <trkpt lat="43.13040500000011" lon="-1.2412330000000003">
        <ele>351.628</ele>
        <time>2022-08-24T06:55:35Z</time>
      </trkpt>
      <trkpt lat="43.13038800000011" lon="-1.2412510000000003">
        <ele>351.864</ele>
        <time>2022-08-24T06:55:36Z</time>
      </trkpt>
      <trkpt lat="43.13036600000011" lon="-1.2412700000000003">
        <ele>351.886</ele>
        <time>2022-08-24T06:55:37Z</time>
      </trkpt>
      <trkpt lat="43.13034300000011" lon="-1.2412900000000002">
        <ele>351.893</ele>
        <time>2022-08-24T06:55:38Z</time>
      </trkpt>
      <trkpt lat="43.13031900000011" lon="-1.2413140000000003">
        <ele>352.036</ele>
        <time>2022-08-24T06:55:39Z</time>
      </trkpt>
      <trkpt lat="43.1302950000001" lon="-1.2413370000000004">
        <ele>352.250</ele>
        <time>2022-08-24T06:55:40Z</time>
      </trkpt>
      <trkpt lat="43.130269000000105" lon="-1.2413580000000004">
        <ele>352.289</ele>
        <time>2022-08-24T06:55:41Z</time>
      </trkpt>
      <trkpt lat="43.1302420000001" lon="-1.2413790000000005">
        <ele>352.247</ele>
        <time>2022-08-24T06:55:42Z</time>
      </trkpt>
      <trkpt lat="43.1302150000001" lon="-1.2414000000000005">
        <ele>352.229</ele>
        <time>2022-08-24T06:55:43Z</time>
      </trkpt>
      <trkpt lat="43.130188000000096" lon="-1.2414200000000004">
        <ele>352.021</ele>
        <time>2022-08-24T06:55:44Z</time>
      </trkpt>
      <trkpt lat="43.130160000000096" lon="-1.2414410000000005">
        <ele>351.809</ele>
        <time>2022-08-24T06:55:45Z</time>
      </trkpt>
      <trkpt lat="43.130135000000095" lon="-1.2414610000000004">
        <ele>351.835</ele>
        <time>2022-08-24T06:55:46Z</time>
      </trkpt>
      <trkpt lat="43.13011100000009" lon="-1.2414790000000004">
        <ele>351.865</ele>
        <time>2022-08-24T06:55:47Z</time>
      </trkpt>
      <trkpt lat="43.13008900000009" lon="-1.2415000000000005">
        <ele>351.865</ele>
        <time>2022-08-24T06:55:48Z</time>
      </trkpt>
      <trkpt lat="43.13006600000009" lon="-1.2415190000000005">
        <ele>351.831</ele>
        <time>2022-08-24T06:55:49Z</time>
      </trkpt>
      <trkpt lat="43.130045000000095" lon="-1.2415330000000004">
        <ele>351.833</ele>
        <time>2022-08-24T06:55:50Z</time>
      </trkpt>
      <trkpt lat="43.13002600000009" lon="-1.2415440000000004">
        <ele>351.820</ele>
        <time>2022-08-24T06:55:51Z</time>
      </trkpt>
      <trkpt lat="43.13000900000009" lon="-1.2415520000000004">
        <ele>351.853</ele>
        <time>2022-08-24T06:55:52Z</time>
      </trkpt>
      <trkpt lat="43.129992000000094" lon="-1.2415590000000005">
        <ele>351.847</ele>
        <time>2022-08-24T06:55:53Z</time>
      </trkpt>
      <trkpt lat="43.129975000000094" lon="-1.2415730000000005">
        <ele>351.856</ele>
        <time>2022-08-24T06:55:54Z</time>
      </trkpt>
      <trkpt lat="43.12996200000009" lon="-1.2415930000000004">
        <ele>351.855</ele>
        <time>2022-08-24T06:55:55Z</time>
      </trkpt>
      <trkpt lat="43.12990800000009" lon="-1.2416450000000003">
        <ele>351.807</ele>
        <time>2022-08-24T06:55:58Z</time>
      </trkpt>
      <trkpt lat="43.12989100000009" lon="-1.2416580000000004">
        <ele>351.817</ele>
        <time>2022-08-24T06:55:59Z</time>
      </trkpt>
      <trkpt lat="43.129876000000095" lon="-1.2416730000000005">
        <ele>351.809</ele>
        <time>2022-08-24T06:56:00Z</time>
      </trkpt>
      <trkpt lat="43.1298610000001" lon="-1.2416880000000006">
        <ele>351.886</ele>
        <time>2022-08-24T06:56:01Z</time>
      </trkpt>
      <trkpt lat="43.1298460000001" lon="-1.2417040000000006">
        <ele>351.886</ele>
        <time>2022-08-24T06:56:02Z</time>
      </trkpt>
      <trkpt lat="43.1298040000001" lon="-1.2417660000000006">
        <ele>352.086</ele>
        <time>2022-08-24T06:56:05Z</time>
      </trkpt>
      <trkpt lat="43.1297760000001" lon="-1.2418070000000005">
        <ele>352.052</ele>
        <time>2022-08-24T06:56:07Z</time>
      </trkpt>
      <trkpt lat="43.1297340000001" lon="-1.2419000000000004">
        <ele>352.074</ele>
        <time>2022-08-24T06:56:11Z</time>
      </trkpt>
      <trkpt lat="43.1297260000001" lon="-1.2419220000000004">
        <ele>352.061</ele>
        <time>2022-08-24T06:56:12Z</time>
      </trkpt>
      <trkpt lat="43.1297190000001" lon="-1.2419430000000005">
        <ele>352.074</ele>
        <time>2022-08-24T06:56:13Z</time>
      </trkpt>
      <trkpt lat="43.1297130000001" lon="-1.2419650000000004">
        <ele>352.088</ele>
        <time>2022-08-24T06:56:14Z</time>
      </trkpt>
      <trkpt lat="43.1297050000001" lon="-1.2419870000000004">
        <ele>352.057</ele>
        <time>2022-08-24T06:56:15Z</time>
      </trkpt>
      <trkpt lat="43.1296970000001" lon="-1.2420060000000004">
        <ele>352.245</ele>
        <time>2022-08-24T06:56:16Z</time>
      </trkpt>
      <trkpt lat="43.1296710000001" lon="-1.2420670000000005">
        <ele>352.247</ele>
        <time>2022-08-24T06:56:19Z</time>
      </trkpt>
      <trkpt lat="43.1296630000001" lon="-1.2420840000000004">
        <ele>352.211</ele>
        <time>2022-08-24T06:56:20Z</time>
      </trkpt>
      <trkpt lat="43.1296480000001" lon="-1.2421240000000004">
        <ele>352.409</ele>
        <time>2022-08-24T06:56:22Z</time>
      </trkpt>
      <trkpt lat="43.129641000000106" lon="-1.2421450000000005">
        <ele>352.425</ele>
        <time>2022-08-24T06:56:23Z</time>
      </trkpt>
      <trkpt lat="43.1296140000001" lon="-1.2422080000000004">
        <ele>352.885</ele>
        <time>2022-08-24T06:56:26Z</time>
      </trkpt>
      <trkpt lat="43.1295870000001" lon="-1.2423010000000003">
        <ele>353.215</ele>
        <time>2022-08-24T06:56:30Z</time>
      </trkpt>
      <trkpt lat="43.1295820000001" lon="-1.2423240000000004">
        <ele>353.421</ele>
        <time>2022-08-24T06:56:31Z</time>
      </trkpt>
      <trkpt lat="43.1295760000001" lon="-1.2423470000000005">
        <ele>353.673</ele>
        <time>2022-08-24T06:56:32Z</time>
      </trkpt>
      <trkpt lat="43.1295690000001" lon="-1.2423690000000005">
        <ele>354.010</ele>
        <time>2022-08-24T06:56:33Z</time>
      </trkpt>
      <trkpt lat="43.1295590000001" lon="-1.2424100000000005">
        <ele>354.453</ele>
        <time>2022-08-24T06:56:36Z</time>
      </trkpt>
      <trkpt lat="43.1295540000001" lon="-1.2424500000000005">
        <ele>354.827</ele>
        <time>2022-08-24T06:56:37Z</time>
      </trkpt>
      <trkpt lat="43.1295310000001" lon="-1.2425320000000004">
        <ele>356.036</ele>
        <time>2022-08-24T06:56:41Z</time>
      </trkpt>
      <trkpt lat="43.1295280000001" lon="-1.2425510000000004">
        <ele>356.442</ele>
        <time>2022-08-24T06:56:42Z</time>
      </trkpt>
      <trkpt lat="43.1295230000001" lon="-1.2425670000000004">
        <ele>356.422</ele>
        <time>2022-08-24T06:56:43Z</time>
      </trkpt>
      <trkpt lat="43.1295150000001" lon="-1.2425820000000005">
        <ele>356.814</ele>
        <time>2022-08-24T06:56:44Z</time>
      </trkpt>
      <trkpt lat="43.1295090000001" lon="-1.2425980000000005">
        <ele>357.009</ele>
        <time>2022-08-24T06:56:45Z</time>
      </trkpt>
      <trkpt lat="43.1295030000001" lon="-1.2426170000000005">
        <ele>357.275</ele>
        <time>2022-08-24T06:56:46Z</time>
      </trkpt>
      <trkpt lat="43.1294980000001" lon="-1.2426360000000005">
        <ele>357.685</ele>
        <time>2022-08-24T06:56:47Z</time>
      </trkpt>
      <trkpt lat="43.1294950000001" lon="-1.2426550000000005">
        <ele>357.825</ele>
        <time>2022-08-24T06:56:48Z</time>
      </trkpt>
      <trkpt lat="43.129493000000096" lon="-1.2426720000000004">
        <ele>358.221</ele>
        <time>2022-08-24T06:56:49Z</time>
      </trkpt>
      <trkpt lat="43.129493000000096" lon="-1.2426870000000005">
        <ele>358.453</ele>
        <time>2022-08-24T06:56:50Z</time>
      </trkpt>
      <trkpt lat="43.129493000000096" lon="-1.2427020000000006">
        <ele>358.840</ele>
        <time>2022-08-24T06:56:51Z</time>
      </trkpt>
      <trkpt lat="43.1294900000001" lon="-1.2427170000000007">
        <ele>358.823</ele>
        <time>2022-08-24T06:56:52Z</time>
      </trkpt>
      <trkpt lat="43.1294890000001" lon="-1.2427330000000008">
        <ele>359.487</ele>
        <time>2022-08-24T06:56:53Z</time>
      </trkpt>
      <trkpt lat="43.1294890000001" lon="-1.2427500000000007">
        <ele>359.866</ele>
        <time>2022-08-24T06:56:54Z</time>
      </trkpt>
      <trkpt lat="43.1294890000001" lon="-1.2427500000000007">
        <ele>360.049</ele>
        <time>2022-08-24T06:56:55Z</time>
      </trkpt>
      <trkpt lat="43.1294860000001" lon="-1.2427850000000007">
        <ele>360.202</ele>
        <time>2022-08-24T06:56:56Z</time>
      </trkpt>
      <trkpt lat="43.1294850000001" lon="-1.2428020000000006">
        <ele>360.422</ele>
        <time>2022-08-24T06:56:57Z</time>
      </trkpt>
      <trkpt lat="43.1294850000001" lon="-1.2428190000000006">
        <ele>360.809</ele>
        <time>2022-08-24T06:56:58Z</time>
      </trkpt>
      <trkpt lat="43.1294830000001" lon="-1.2428350000000006">
        <ele>361.035</ele>
        <time>2022-08-24T06:56:59Z</time>
      </trkpt>
      <trkpt lat="43.1294790000001" lon="-1.2428530000000007">
        <ele>361.265</ele>
        <time>2022-08-24T06:57:00Z</time>
      </trkpt>
      <trkpt lat="43.129478000000105" lon="-1.2428690000000007">
        <ele>361.255</ele>
        <time>2022-08-24T06:57:01Z</time>
      </trkpt>
      <trkpt lat="43.129478000000105" lon="-1.2428850000000007">
        <ele>361.611</ele>
        <time>2022-08-24T06:57:02Z</time>
      </trkpt>
      <trkpt lat="43.129478000000105" lon="-1.2429000000000008">
        <ele>362.083</ele>
        <time>2022-08-24T06:57:03Z</time>
      </trkpt>
      <trkpt lat="43.1294790000001" lon="-1.2429140000000007">
        <ele>362.250</ele>
        <time>2022-08-24T06:57:04Z</time>
      </trkpt>
      <trkpt lat="43.1294820000001" lon="-1.2429260000000006">
        <ele>362.493</ele>
        <time>2022-08-24T06:57:05Z</time>
      </trkpt>
      <trkpt lat="43.1294830000001" lon="-1.2429400000000006">
        <ele>362.617</ele>
        <time>2022-08-24T06:57:06Z</time>
      </trkpt>
      <trkpt lat="43.1294800000001" lon="-1.2429540000000006">
        <ele>363.096</ele>
        <time>2022-08-24T06:57:07Z</time>
      </trkpt>
      <trkpt lat="43.1294810000001" lon="-1.2429700000000006">
        <ele>363.098</ele>
        <time>2022-08-24T06:57:08Z</time>
      </trkpt>
      <trkpt lat="43.1294830000001" lon="-1.2429830000000006">
        <ele>363.415</ele>
        <time>2022-08-24T06:57:09Z</time>
      </trkpt>
      <trkpt lat="43.1294860000001" lon="-1.2429920000000005">
        <ele>363.626</ele>
        <time>2022-08-24T06:57:10Z</time>
      </trkpt>
      <trkpt lat="43.1294910000001" lon="-1.2430050000000006">
        <ele>363.809</ele>
        <time>2022-08-24T06:57:11Z</time>
      </trkpt>
      <trkpt lat="43.1294970000001" lon="-1.2430230000000007">
        <ele>364.080</ele>
        <time>2022-08-24T06:57:12Z</time>
      </trkpt>
      <trkpt lat="43.1295010000001" lon="-1.2430410000000007">
        <ele>364.240</ele>
        <time>2022-08-24T06:57:13Z</time>
      </trkpt>
      <trkpt lat="43.1295010000001" lon="-1.2430580000000007">
        <ele>364.420</ele>
        <time>2022-08-24T06:57:14Z</time>
      </trkpt>
      <trkpt lat="43.1295010000001" lon="-1.2430750000000006">
        <ele>364.616</ele>
        <time>2022-08-24T06:57:15Z</time>
      </trkpt>
      <trkpt lat="43.1295040000001" lon="-1.2430900000000007">
        <ele>364.858</ele>
        <time>2022-08-24T06:57:16Z</time>
      </trkpt>
      <trkpt lat="43.1295090000001" lon="-1.2431050000000008">
        <ele>365.025</ele>
        <time>2022-08-24T06:57:17Z</time>
      </trkpt>
      <trkpt lat="43.1295150000001" lon="-1.2431220000000007">
        <ele>365.088</ele>
        <time>2022-08-24T06:57:18Z</time>
      </trkpt>
      <trkpt lat="43.129519000000094" lon="-1.2431380000000007">
        <ele>365.432</ele>
        <time>2022-08-24T06:57:19Z</time>
      </trkpt>
      <trkpt lat="43.129521000000096" lon="-1.2431550000000007">
        <ele>365.641</ele>
        <time>2022-08-24T06:57:20Z</time>
      </trkpt>
      <trkpt lat="43.129524000000096" lon="-1.2431750000000006">
        <ele>366.055</ele>
        <time>2022-08-24T06:57:21Z</time>
      </trkpt>
      <trkpt lat="43.12952800000009" lon="-1.2431950000000005">
        <ele>366.207</ele>
        <time>2022-08-24T06:57:22Z</time>
      </trkpt>
      <trkpt lat="43.12953200000009" lon="-1.2432100000000006">
        <ele>366.417</ele>
        <time>2022-08-24T06:57:23Z</time>
      </trkpt>
      <trkpt lat="43.12953200000009" lon="-1.2432100000000006">
        <ele>366.809</ele>
        <time>2022-08-24T06:57:24Z</time>
      </trkpt>
      <trkpt lat="43.12954300000009" lon="-1.2432380000000005">
        <ele>367.076</ele>
        <time>2022-08-24T06:57:25Z</time>
      </trkpt>
      <trkpt lat="43.12955000000009" lon="-1.2432520000000005">
        <ele>367.426</ele>
        <time>2022-08-24T06:57:26Z</time>
      </trkpt>
      <trkpt lat="43.129557000000084" lon="-1.2432680000000005">
        <ele>367.696</ele>
        <time>2022-08-24T06:57:27Z</time>
      </trkpt>
      <trkpt lat="43.129562000000085" lon="-1.2432840000000005">
        <ele>367.892</ele>
        <time>2022-08-24T06:57:28Z</time>
      </trkpt>
      <trkpt lat="43.12956400000009" lon="-1.2433010000000004">
        <ele>368.034</ele>
        <time>2022-08-24T06:57:29Z</time>
      </trkpt>
      <trkpt lat="43.12956700000009" lon="-1.2433170000000004">
        <ele>368.241</ele>
        <time>2022-08-24T06:57:30Z</time>
      </trkpt>
      <trkpt lat="43.129571000000084" lon="-1.2433350000000005">
        <ele>368.624</ele>
        <time>2022-08-24T06:57:31Z</time>
      </trkpt>
      <trkpt lat="43.129576000000085" lon="-1.2433540000000005">
        <ele>368.868</ele>
        <time>2022-08-24T06:57:32Z</time>
      </trkpt>
      <trkpt lat="43.12958000000008" lon="-1.2433750000000006">
        <ele>369.247</ele>
        <time>2022-08-24T06:57:33Z</time>
      </trkpt>
      <trkpt lat="43.12958600000008" lon="-1.2433910000000006">
        <ele>369.222</ele>
        <time>2022-08-24T06:57:34Z</time>
      </trkpt>
      <trkpt lat="43.12959000000008" lon="-1.2434080000000005">
        <ele>369.662</ele>
        <time>2022-08-24T06:57:35Z</time>
      </trkpt>
      <trkpt lat="43.12959800000008" lon="-1.2434230000000006">
        <ele>369.608</ele>
        <time>2022-08-24T06:57:36Z</time>
      </trkpt>
      <trkpt lat="43.12960800000008" lon="-1.2434370000000006">
        <ele>370.009</ele>
        <time>2022-08-24T06:57:37Z</time>
      </trkpt>
      <trkpt lat="43.12961700000008" lon="-1.2434510000000005">
        <ele>370.243</ele>
        <time>2022-08-24T06:57:38Z</time>
      </trkpt>
      <trkpt lat="43.129627000000085" lon="-1.2434680000000005">
        <ele>370.643</ele>
        <time>2022-08-24T06:57:39Z</time>
      </trkpt>
      <trkpt lat="43.129632000000086" lon="-1.2434830000000006">
        <ele>371.013</ele>
        <time>2022-08-24T06:57:40Z</time>
      </trkpt>
      <trkpt lat="43.12963600000008" lon="-1.2434990000000006">
        <ele>371.229</ele>
        <time>2022-08-24T06:57:41Z</time>
      </trkpt>
      <trkpt lat="43.12964300000008" lon="-1.2435110000000005">
        <ele>371.481</ele>
        <time>2022-08-24T06:57:42Z</time>
      </trkpt>
      <trkpt lat="43.12964600000008" lon="-1.2435290000000006">
        <ele>371.698</ele>
        <time>2022-08-24T06:57:43Z</time>
      </trkpt>
      <trkpt lat="43.12965100000008" lon="-1.2435450000000006">
        <ele>371.691</ele>
        <time>2022-08-24T06:57:44Z</time>
      </trkpt>
      <trkpt lat="43.12965800000008" lon="-1.2435600000000007">
        <ele>371.875</ele>
        <time>2022-08-24T06:57:45Z</time>
      </trkpt>
      <trkpt lat="43.12966300000008" lon="-1.2435750000000008">
        <ele>371.844</ele>
        <time>2022-08-24T06:57:46Z</time>
      </trkpt>
      <trkpt lat="43.12967100000008" lon="-1.2435970000000007">
        <ele>372.244</ele>
        <time>2022-08-24T06:57:47Z</time>
      </trkpt>
      <trkpt lat="43.12967800000008" lon="-1.2436140000000007">
        <ele>372.205</ele>
        <time>2022-08-24T06:57:48Z</time>
      </trkpt>
      <trkpt lat="43.12967800000008" lon="-1.2436140000000007">
        <ele>372.615</ele>
        <time>2022-08-24T06:57:49Z</time>
      </trkpt>
      <trkpt lat="43.129690000000075" lon="-1.2436470000000006">
        <ele>372.809</ele>
        <time>2022-08-24T06:57:50Z</time>
      </trkpt>
      <trkpt lat="43.129693000000074" lon="-1.2436620000000007">
        <ele>373.045</ele>
        <time>2022-08-24T06:57:51Z</time>
      </trkpt>
      <trkpt lat="43.129695000000076" lon="-1.2436790000000006">
        <ele>373.035</ele>
        <time>2022-08-24T06:57:52Z</time>
      </trkpt>
      <trkpt lat="43.12970000000008" lon="-1.2436970000000007">
        <ele>373.465</ele>
        <time>2022-08-24T06:57:53Z</time>
      </trkpt>
      <trkpt lat="43.129707000000074" lon="-1.2437150000000008">
        <ele>373.621</ele>
        <time>2022-08-24T06:57:54Z</time>
      </trkpt>
      <trkpt lat="43.129715000000076" lon="-1.2437320000000007">
        <ele>373.893</ele>
        <time>2022-08-24T06:57:55Z</time>
      </trkpt>
      <trkpt lat="43.12972000000008" lon="-1.2437510000000007">
        <ele>374.080</ele>
        <time>2022-08-24T06:57:56Z</time>
      </trkpt>
      <trkpt lat="43.129724000000074" lon="-1.2437690000000008">
        <ele>374.023</ele>
        <time>2022-08-24T06:57:57Z</time>
      </trkpt>
      <trkpt lat="43.12973000000007" lon="-1.2437850000000008">
        <ele>374.287</ele>
        <time>2022-08-24T06:57:58Z</time>
      </trkpt>
      <trkpt lat="43.12973700000007" lon="-1.243800000000001">
        <ele>374.446</ele>
        <time>2022-08-24T06:57:59Z</time>
      </trkpt>
      <trkpt lat="43.12974600000007" lon="-1.2438120000000008">
        <ele>374.848</ele>
        <time>2022-08-24T06:58:00Z</time>
      </trkpt>
      <trkpt lat="43.12975600000007" lon="-1.2438250000000008">
        <ele>375.061</ele>
        <time>2022-08-24T06:58:01Z</time>
      </trkpt>
      <trkpt lat="43.12976400000007" lon="-1.243843000000001">
        <ele>375.217</ele>
        <time>2022-08-24T06:58:02Z</time>
      </trkpt>
      <trkpt lat="43.12976800000007" lon="-1.2438600000000009">
        <ele>375.409</ele>
        <time>2022-08-24T06:58:03Z</time>
      </trkpt>
      <trkpt lat="43.12977400000007" lon="-1.243878000000001">
        <ele>375.675</ele>
        <time>2022-08-24T06:58:04Z</time>
      </trkpt>
      <trkpt lat="43.12977600000007" lon="-1.2438980000000008">
        <ele>375.675</ele>
        <time>2022-08-24T06:58:05Z</time>
      </trkpt>
      <trkpt lat="43.12977600000007" lon="-1.2438980000000008">
        <ele>375.685</ele>
        <time>2022-08-24T06:58:06Z</time>
      </trkpt>
      <trkpt lat="43.12978400000007" lon="-1.243935000000001">
        <ele>375.841</ele>
        <time>2022-08-24T06:58:07Z</time>
      </trkpt>
      <trkpt lat="43.12979000000007" lon="-1.2439490000000009">
        <ele>376.023</ele>
        <time>2022-08-24T06:58:08Z</time>
      </trkpt>
      <trkpt lat="43.12979900000007" lon="-1.2439610000000008">
        <ele>376.270</ele>
        <time>2022-08-24T06:58:09Z</time>
      </trkpt>
      <trkpt lat="43.12980800000007" lon="-1.2439740000000008">
        <ele>376.263</ele>
        <time>2022-08-24T06:58:10Z</time>
      </trkpt>
      <trkpt lat="43.12981400000007" lon="-1.2439900000000008">
        <ele>376.257</ele>
        <time>2022-08-24T06:58:11Z</time>
      </trkpt>
      <trkpt lat="43.129820000000066" lon="-1.244005000000001">
        <ele>376.446</ele>
        <time>2022-08-24T06:58:12Z</time>
      </trkpt>
      <trkpt lat="43.129826000000065" lon="-1.2440220000000008">
        <ele>376.646</ele>
        <time>2022-08-24T06:58:13Z</time>
      </trkpt>
      <trkpt lat="43.12983300000006" lon="-1.2440380000000009">
        <ele>376.688</ele>
        <time>2022-08-24T06:58:14Z</time>
      </trkpt>
      <trkpt lat="43.12984100000006" lon="-1.244051000000001">
        <ele>376.816</ele>
        <time>2022-08-24T06:58:15Z</time>
      </trkpt>
      <trkpt lat="43.12985000000006" lon="-1.244066000000001">
        <ele>376.809</ele>
        <time>2022-08-24T06:58:16Z</time>
      </trkpt>
      <trkpt lat="43.12985500000006" lon="-1.244086000000001">
        <ele>376.835</ele>
        <time>2022-08-24T06:58:17Z</time>
      </trkpt>
      <trkpt lat="43.12986100000006" lon="-1.2441060000000008">
        <ele>376.875</ele>
        <time>2022-08-24T06:58:18Z</time>
      </trkpt>
      <trkpt lat="43.12986700000006" lon="-1.2441260000000007">
        <ele>377.035</ele>
        <time>2022-08-24T06:58:19Z</time>
      </trkpt>
      <trkpt lat="43.12987500000006" lon="-1.2441440000000008">
        <ele>377.261</ele>
        <time>2022-08-24T06:58:20Z</time>
      </trkpt>
      <trkpt lat="43.12988300000006" lon="-1.244159000000001">
        <ele>377.433</ele>
        <time>2022-08-24T06:58:21Z</time>
      </trkpt>
      <trkpt lat="43.129891000000065" lon="-1.244177000000001">
        <ele>377.430</ele>
        <time>2022-08-24T06:58:22Z</time>
      </trkpt>
      <trkpt lat="43.129897000000064" lon="-1.244195000000001">
        <ele>377.653</ele>
        <time>2022-08-24T06:58:23Z</time>
      </trkpt>
      <trkpt lat="43.12990300000006" lon="-1.2442130000000011">
        <ele>377.687</ele>
        <time>2022-08-24T06:58:24Z</time>
      </trkpt>
      <trkpt lat="43.12990700000006" lon="-1.2442310000000012">
        <ele>377.846</ele>
        <time>2022-08-24T06:58:25Z</time>
      </trkpt>
      <trkpt lat="43.129914000000056" lon="-1.2442460000000013">
        <ele>378.094</ele>
        <time>2022-08-24T06:58:26Z</time>
      </trkpt>
      <trkpt lat="43.12992100000005" lon="-1.2442630000000012">
        <ele>378.057</ele>
        <time>2022-08-24T06:58:27Z</time>
      </trkpt>
      <trkpt lat="43.12993000000005" lon="-1.2442760000000013">
        <ele>378.222</ele>
        <time>2022-08-24T06:58:28Z</time>
      </trkpt>
      <trkpt lat="43.129940000000055" lon="-1.2442900000000012">
        <ele>378.209</ele>
        <time>2022-08-24T06:58:29Z</time>
      </trkpt>
      <trkpt lat="43.12995200000005" lon="-1.2443050000000013">
        <ele>378.410</ele>
        <time>2022-08-24T06:58:30Z</time>
      </trkpt>
      <trkpt lat="43.12996300000005" lon="-1.2443240000000013">
        <ele>378.880</ele>
        <time>2022-08-24T06:58:31Z</time>
      </trkpt>
      <trkpt lat="43.12997200000005" lon="-1.2443470000000014">
        <ele>378.880</ele>
        <time>2022-08-24T06:58:32Z</time>
      </trkpt>
      <trkpt lat="43.12997900000005" lon="-1.2443710000000014">
        <ele>378.816</ele>
        <time>2022-08-24T06:58:33Z</time>
      </trkpt>
      <trkpt lat="43.12998500000005" lon="-1.2443960000000014">
        <ele>379.088</ele>
        <time>2022-08-24T06:58:34Z</time>
      </trkpt>
      <trkpt lat="43.12999300000005" lon="-1.2444170000000014">
        <ele>379.045</ele>
        <time>2022-08-24T06:58:35Z</time>
      </trkpt>
      <trkpt lat="43.13000400000005" lon="-1.2444380000000015">
        <ele>379.058</ele>
        <time>2022-08-24T06:58:36Z</time>
      </trkpt>
      <trkpt lat="43.13001600000005" lon="-1.2444550000000014">
        <ele>379.222</ele>
        <time>2022-08-24T06:58:37Z</time>
      </trkpt>
      <trkpt lat="43.13002700000005" lon="-1.2444730000000015">
        <ele>379.471</ele>
        <time>2022-08-24T06:58:38Z</time>
      </trkpt>
      <trkpt lat="43.13003700000005" lon="-1.2444920000000015">
        <ele>379.464</ele>
        <time>2022-08-24T06:58:39Z</time>
      </trkpt>
      <trkpt lat="43.13004600000005" lon="-1.2445100000000016">
        <ele>379.606</ele>
        <time>2022-08-24T06:58:40Z</time>
      </trkpt>
      <trkpt lat="43.130053000000046" lon="-1.2445290000000016">
        <ele>379.616</ele>
        <time>2022-08-24T06:58:41Z</time>
      </trkpt>
      <trkpt lat="43.13005700000004" lon="-1.2445480000000015">
        <ele>379.809</ele>
        <time>2022-08-24T06:58:42Z</time>
      </trkpt>
      <trkpt lat="43.13006400000004" lon="-1.2445650000000015">
        <ele>379.857</ele>
        <time>2022-08-24T06:58:43Z</time>
      </trkpt>
      <trkpt lat="43.13007100000004" lon="-1.2445810000000015">
        <ele>380.097</ele>
        <time>2022-08-24T06:58:44Z</time>
      </trkpt>
      <trkpt lat="43.13007800000003" lon="-1.2445940000000015">
        <ele>380.287</ele>
        <time>2022-08-24T06:58:45Z</time>
      </trkpt>
      <trkpt lat="43.13008500000003" lon="-1.2446070000000016">
        <ele>380.243</ele>
        <time>2022-08-24T06:58:46Z</time>
      </trkpt>
      <trkpt lat="43.13009300000003" lon="-1.2446230000000016">
        <ele>380.455</ele>
        <time>2022-08-24T06:58:47Z</time>
      </trkpt>
      <trkpt lat="43.13010000000003" lon="-1.2446350000000015">
        <ele>380.442</ele>
        <time>2022-08-24T06:58:48Z</time>
      </trkpt>
      <trkpt lat="43.130109000000026" lon="-1.2446480000000015">
        <ele>380.685</ele>
        <time>2022-08-24T06:58:49Z</time>
      </trkpt>
      <trkpt lat="43.13011600000002" lon="-1.2446660000000016">
        <ele>380.699</ele>
        <time>2022-08-24T06:58:50Z</time>
      </trkpt>
      <trkpt lat="43.13012300000002" lon="-1.2446830000000015">
        <ele>380.668</ele>
        <time>2022-08-24T06:58:51Z</time>
      </trkpt>
      <trkpt lat="43.13013300000002" lon="-1.2446970000000015">
        <ele>380.876</ele>
        <time>2022-08-24T06:58:52Z</time>
      </trkpt>
      <trkpt lat="43.130143000000025" lon="-1.2447110000000015">
        <ele>381.090</ele>
        <time>2022-08-24T06:58:53Z</time>
      </trkpt>
      <trkpt lat="43.130152000000024" lon="-1.2447240000000015">
        <ele>381.019</ele>
        <time>2022-08-24T06:58:54Z</time>
      </trkpt>
      <trkpt lat="43.13016200000003" lon="-1.2447380000000015">
        <ele>381.009</ele>
        <time>2022-08-24T06:58:55Z</time>
      </trkpt>
      <trkpt lat="43.13017000000003" lon="-1.2447520000000014">
        <ele>381.288</ele>
        <time>2022-08-24T06:58:56Z</time>
      </trkpt>
      <trkpt lat="43.13017900000003" lon="-1.2447650000000015">
        <ele>381.248</ele>
        <time>2022-08-24T06:58:57Z</time>
      </trkpt>
      <trkpt lat="43.13019000000003" lon="-1.2447770000000014">
        <ele>381.458</ele>
        <time>2022-08-24T06:58:58Z</time>
      </trkpt>
      <trkpt lat="43.13020000000003" lon="-1.2447930000000014">
        <ele>381.624</ele>
        <time>2022-08-24T06:58:59Z</time>
      </trkpt>
      <trkpt lat="43.13020800000003" lon="-1.2448090000000014">
        <ele>381.636</ele>
        <time>2022-08-24T06:59:00Z</time>
      </trkpt>
      <trkpt lat="43.13021700000003" lon="-1.2448250000000014">
        <ele>381.613</ele>
        <time>2022-08-24T06:59:01Z</time>
      </trkpt>
      <trkpt lat="43.13022600000003" lon="-1.2448370000000013">
        <ele>381.856</ele>
        <time>2022-08-24T06:59:02Z</time>
      </trkpt>
      <trkpt lat="43.13023500000003" lon="-1.2448520000000014">
        <ele>381.830</ele>
        <time>2022-08-24T06:59:03Z</time>
      </trkpt>
      <trkpt lat="43.130244000000026" lon="-1.2448640000000013">
        <ele>381.829</ele>
        <time>2022-08-24T06:59:04Z</time>
      </trkpt>
      <trkpt lat="43.130253000000025" lon="-1.2448760000000012">
        <ele>382.025</ele>
        <time>2022-08-24T06:59:05Z</time>
      </trkpt>
      <trkpt lat="43.130259000000024" lon="-1.2448890000000012">
        <ele>382.226</ele>
        <time>2022-08-24T06:59:06Z</time>
      </trkpt>
      <trkpt lat="43.130267000000025" lon="-1.2448990000000013">
        <ele>382.608</ele>
        <time>2022-08-24T06:59:07Z</time>
      </trkpt>
      <trkpt lat="43.13027600000002" lon="-1.2449100000000013">
        <ele>383.009</ele>
        <time>2022-08-24T06:59:08Z</time>
      </trkpt>
      <trkpt lat="43.130284000000024" lon="-1.2449220000000012">
        <ele>383.043</ele>
        <time>2022-08-24T06:59:09Z</time>
      </trkpt>
      <trkpt lat="43.130292000000026" lon="-1.2449360000000012">
        <ele>383.453</ele>
        <time>2022-08-24T06:59:10Z</time>
      </trkpt>
      <trkpt lat="43.13030200000003" lon="-1.2449510000000013">
        <ele>383.653</ele>
        <time>2022-08-24T06:59:11Z</time>
      </trkpt>
      <trkpt lat="43.13031200000003" lon="-1.2449660000000013">
        <ele>383.639</ele>
        <time>2022-08-24T06:59:12Z</time>
      </trkpt>
      <trkpt lat="43.13031900000003" lon="-1.2449760000000014">
        <ele>383.861</ele>
        <time>2022-08-24T06:59:13Z</time>
      </trkpt>
      <trkpt lat="43.13032900000003" lon="-1.2449850000000013">
        <ele>384.098</ele>
        <time>2022-08-24T06:59:14Z</time>
      </trkpt>
      <trkpt lat="43.13033600000003" lon="-1.2449990000000013">
        <ele>384.281</ele>
        <time>2022-08-24T06:59:15Z</time>
      </trkpt>
      <trkpt lat="43.13034400000003" lon="-1.2450110000000012">
        <ele>384.255</ele>
        <time>2022-08-24T06:59:16Z</time>
      </trkpt>
      <trkpt lat="43.13035200000003" lon="-1.245023000000001">
        <ele>384.634</ele>
        <time>2022-08-24T06:59:17Z</time>
      </trkpt>
      <trkpt lat="43.13036100000003" lon="-1.2450380000000012">
        <ele>384.645</ele>
        <time>2022-08-24T06:59:18Z</time>
      </trkpt>
      <trkpt lat="43.13036700000003" lon="-1.2450520000000012">
        <ele>385.047</ele>
        <time>2022-08-24T06:59:19Z</time>
      </trkpt>
      <trkpt lat="43.13037300000003" lon="-1.2450670000000013">
        <ele>385.211</ele>
        <time>2022-08-24T06:59:20Z</time>
      </trkpt>
      <trkpt lat="43.13037500000003" lon="-1.2450810000000012">
        <ele>385.209</ele>
        <time>2022-08-24T06:59:21Z</time>
      </trkpt>
      <trkpt lat="43.13037800000003" lon="-1.2450970000000012">
        <ele>385.675</ele>
        <time>2022-08-24T06:59:22Z</time>
      </trkpt>
      <trkpt lat="43.13038300000003" lon="-1.2451130000000012">
        <ele>385.685</ele>
        <time>2022-08-24T06:59:23Z</time>
      </trkpt>
      <trkpt lat="43.13038300000003" lon="-1.2451130000000012">
        <ele>386.025</ele>
        <time>2022-08-24T06:59:24Z</time>
      </trkpt>
      <trkpt lat="43.13039700000003" lon="-1.2451400000000012">
        <ele>386.251</ele>
        <time>2022-08-24T06:59:25Z</time>
      </trkpt>
      <trkpt lat="43.13040300000003" lon="-1.2451640000000013">
        <ele>386.473</ele>
        <time>2022-08-24T06:59:26Z</time>
      </trkpt>
      <trkpt lat="43.13040700000003" lon="-1.2451830000000013">
        <ele>386.610</ele>
        <time>2022-08-24T06:59:27Z</time>
      </trkpt>
      <trkpt lat="43.13041200000003" lon="-1.2452020000000013">
        <ele>386.843</ele>
        <time>2022-08-24T06:59:28Z</time>
      </trkpt>
      <trkpt lat="43.13041500000003" lon="-1.2452180000000013">
        <ele>387.297</ele>
        <time>2022-08-24T06:59:29Z</time>
      </trkpt>
      <trkpt lat="43.13041700000003" lon="-1.2452370000000013">
        <ele>387.226</ele>
        <time>2022-08-24T06:59:30Z</time>
      </trkpt>
      <trkpt lat="43.13041300000003" lon="-1.2452550000000013">
        <ele>387.488</ele>
        <time>2022-08-24T06:59:31Z</time>
      </trkpt>
      <trkpt lat="43.13040500000003" lon="-1.2452710000000013">
        <ele>387.424</ele>
        <time>2022-08-24T06:59:32Z</time>
      </trkpt>
      <trkpt lat="43.13039300000003" lon="-1.2452810000000014">
        <ele>387.826</ele>
        <time>2022-08-24T06:59:33Z</time>
      </trkpt>
      <trkpt lat="43.13038000000003" lon="-1.2452850000000013">
        <ele>388.009</ele>
        <time>2022-08-24T06:59:34Z</time>
      </trkpt>
      <trkpt lat="43.13037000000003" lon="-1.2452880000000013">
        <ele>388.479</ele>
        <time>2022-08-24T06:59:35Z</time>
      </trkpt>
      <trkpt lat="43.13036100000003" lon="-1.2452900000000013">
        <ele>388.679</ele>
        <time>2022-08-24T06:59:36Z</time>
      </trkpt>
      <trkpt lat="43.13034900000003" lon="-1.2452890000000014">
        <ele>388.639</ele>
        <time>2022-08-24T06:59:37Z</time>
      </trkpt>
      <trkpt lat="43.13033600000003" lon="-1.2452850000000015">
        <ele>388.875</ele>
        <time>2022-08-24T06:59:38Z</time>
      </trkpt>
      <trkpt lat="43.13032900000003" lon="-1.2452840000000016">
        <ele>389.037</ele>
        <time>2022-08-24T06:59:39Z</time>
      </trkpt>
      <trkpt lat="43.13032900000003" lon="-1.2452840000000016">
        <ele>389.284</ele>
        <time>2022-08-24T06:59:40Z</time>
      </trkpt>
      <trkpt lat="43.13031200000003" lon="-1.2452790000000016">
        <ele>389.237</ele>
        <time>2022-08-24T06:59:41Z</time>
      </trkpt>
      <trkpt lat="43.13029600000003" lon="-1.2452680000000016">
        <ele>389.471</ele>
        <time>2022-08-24T06:59:42Z</time>
      </trkpt>
      <trkpt lat="43.13029600000003" lon="-1.2452680000000016">
        <ele>389.650</ele>
        <time>2022-08-24T06:59:43Z</time>
      </trkpt>
      <trkpt lat="43.13027400000003" lon="-1.2452450000000015">
        <ele>389.812</ele>
        <time>2022-08-24T06:59:44Z</time>
      </trkpt>
      <trkpt lat="43.13026700000003" lon="-1.2452360000000016">
        <ele>390.032</ele>
        <time>2022-08-24T06:59:45Z</time>
      </trkpt>
      <trkpt lat="43.130255000000034" lon="-1.2452240000000017">
        <ele>390.205</ele>
        <time>2022-08-24T06:59:46Z</time>
      </trkpt>
      <trkpt lat="43.130241000000034" lon="-1.2452080000000016">
        <ele>390.409</ele>
        <time>2022-08-24T06:59:47Z</time>
      </trkpt>
      <trkpt lat="43.13022700000003" lon="-1.2451960000000017">
        <ele>390.462</ele>
        <time>2022-08-24T06:59:48Z</time>
      </trkpt>
      <trkpt lat="43.13021400000003" lon="-1.2451840000000018">
        <ele>390.682</ele>
        <time>2022-08-24T06:59:49Z</time>
      </trkpt>
      <trkpt lat="43.13020300000003" lon="-1.2451740000000018">
        <ele>390.812</ele>
        <time>2022-08-24T06:59:50Z</time>
      </trkpt>
      <trkpt lat="43.13019100000003" lon="-1.2451610000000017">
        <ele>391.068</ele>
        <time>2022-08-24T06:59:51Z</time>
      </trkpt>
      <trkpt lat="43.130179000000034" lon="-1.2451500000000018">
        <ele>391.260</ele>
        <time>2022-08-24T06:59:52Z</time>
      </trkpt>
      <trkpt lat="43.13016900000003" lon="-1.2451440000000018">
        <ele>391.267</ele>
        <time>2022-08-24T06:59:53Z</time>
      </trkpt>
      <trkpt lat="43.13016000000003" lon="-1.2451350000000019">
        <ele>391.420</ele>
        <time>2022-08-24T06:59:54Z</time>
      </trkpt>
      <trkpt lat="43.13014700000003" lon="-1.245126000000002">
        <ele>391.624</ele>
        <time>2022-08-24T06:59:55Z</time>
      </trkpt>
      <trkpt lat="43.13013200000003" lon="-1.245118000000002">
        <ele>391.843</ele>
        <time>2022-08-24T06:59:56Z</time>
      </trkpt>
      <trkpt lat="43.13012100000003" lon="-1.245110000000002">
        <ele>392.073</ele>
        <time>2022-08-24T06:59:57Z</time>
      </trkpt>
      <trkpt lat="43.13010500000003" lon="-1.245101000000002">
        <ele>392.285</ele>
        <time>2022-08-24T06:59:58Z</time>
      </trkpt>
      <trkpt lat="43.13008700000003" lon="-1.245088000000002">
        <ele>392.213</ele>
        <time>2022-08-24T06:59:59Z</time>
      </trkpt>
      <trkpt lat="43.13007300000003" lon="-1.245078000000002">
        <ele>392.209</ele>
        <time>2022-08-24T07:00:00Z</time>
      </trkpt>
      <trkpt lat="43.13005900000003" lon="-1.245070000000002">
        <ele>392.458</ele>
        <time>2022-08-24T07:00:01Z</time>
      </trkpt>
      <trkpt lat="43.13004600000003" lon="-1.2450650000000019">
        <ele>392.668</ele>
        <time>2022-08-24T07:00:02Z</time>
      </trkpt>
      <trkpt lat="43.13003400000003" lon="-1.2450580000000018">
        <ele>393.048</ele>
        <time>2022-08-24T07:00:03Z</time>
      </trkpt>
      <trkpt lat="43.13002300000003" lon="-1.2450520000000018">
        <ele>393.024</ele>
        <time>2022-08-24T07:00:04Z</time>
      </trkpt>
      <trkpt lat="43.13001300000003" lon="-1.2450470000000018">
        <ele>393.226</ele>
        <time>2022-08-24T07:00:05Z</time>
      </trkpt>
      <trkpt lat="43.13000300000002" lon="-1.2450390000000018">
        <ele>393.493</ele>
        <time>2022-08-24T07:00:06Z</time>
      </trkpt>
      <trkpt lat="43.12999300000002" lon="-1.2450320000000017">
        <ele>393.676</ele>
        <time>2022-08-24T07:00:07Z</time>
      </trkpt>
      <trkpt lat="43.12997900000002" lon="-1.2450240000000017">
        <ele>393.860</ele>
        <time>2022-08-24T07:00:08Z</time>
      </trkpt>
      <trkpt lat="43.12996600000002" lon="-1.2450180000000017">
        <ele>393.879</ele>
        <time>2022-08-24T07:00:09Z</time>
      </trkpt>
      <trkpt lat="43.12995200000002" lon="-1.2450140000000018">
        <ele>394.268</ele>
        <time>2022-08-24T07:00:10Z</time>
      </trkpt>
      <trkpt lat="43.129939000000014" lon="-1.2450110000000019">
        <ele>394.242</ele>
        <time>2022-08-24T07:00:11Z</time>
      </trkpt>
      <trkpt lat="43.12992900000001" lon="-1.245007000000002">
        <ele>394.426</ele>
        <time>2022-08-24T07:00:12Z</time>
      </trkpt>
      <trkpt lat="43.12992100000001" lon="-1.245006000000002">
        <ele>394.409</ele>
        <time>2022-08-24T07:00:13Z</time>
      </trkpt>
      <trkpt lat="43.12991300000001" lon="-1.245003000000002">
        <ele>394.677</ele>
        <time>2022-08-24T07:00:14Z</time>
      </trkpt>
      <trkpt lat="43.129900000000006" lon="-1.244998000000002">
        <ele>394.887</ele>
        <time>2022-08-24T07:00:15Z</time>
      </trkpt>
      <trkpt lat="43.12988300000001" lon="-1.244991000000002">
        <ele>394.897</ele>
        <time>2022-08-24T07:00:16Z</time>
      </trkpt>
      <trkpt lat="43.12986600000001" lon="-1.244983000000002">
        <ele>395.253</ele>
        <time>2022-08-24T07:00:17Z</time>
      </trkpt>
      <trkpt lat="43.12985200000001" lon="-1.244978000000002">
        <ele>395.415</ele>
        <time>2022-08-24T07:00:18Z</time>
      </trkpt>
      <trkpt lat="43.129841000000006" lon="-1.244972000000002">
        <ele>395.682</ele>
        <time>2022-08-24T07:00:19Z</time>
      </trkpt>
      <trkpt lat="43.129824000000006" lon="-1.244964000000002">
        <ele>396.045</ele>
        <time>2022-08-24T07:00:20Z</time>
      </trkpt>
      <trkpt lat="43.12980900000001" lon="-1.244954000000002">
        <ele>396.049</ele>
        <time>2022-08-24T07:00:21Z</time>
      </trkpt>
      <trkpt lat="43.12979000000001" lon="-1.244943000000002">
        <ele>396.468</ele>
        <time>2022-08-24T07:00:22Z</time>
      </trkpt>
      <trkpt lat="43.12976200000001" lon="-1.2449380000000019">
        <ele>396.436</ele>
        <time>2022-08-24T07:00:23Z</time>
      </trkpt>
      <trkpt lat="43.12973100000001" lon="-1.244926000000002">
        <ele>396.817</ele>
        <time>2022-08-24T07:00:24Z</time>
      </trkpt>
      <trkpt lat="43.12971400000001" lon="-1.244915000000002">
        <ele>396.818</ele>
        <time>2022-08-24T07:00:25Z</time>
      </trkpt>
      <trkpt lat="43.129701000000004" lon="-1.244905000000002">
        <ele>397.009</ele>
        <time>2022-08-24T07:00:26Z</time>
      </trkpt>
      <trkpt lat="43.12968600000001" lon="-1.244894000000002">
        <ele>397.234</ele>
        <time>2022-08-24T07:00:27Z</time>
      </trkpt>
      <trkpt lat="43.129673000000004" lon="-1.244885000000002">
        <ele>397.494</ele>
        <time>2022-08-24T07:00:28Z</time>
      </trkpt>
      <trkpt lat="43.12965500000001" lon="-1.244879000000002">
        <ele>397.614</ele>
        <time>2022-08-24T07:00:29Z</time>
      </trkpt>
      <trkpt lat="43.129636000000005" lon="-1.2448730000000021">
        <ele>397.820</ele>
        <time>2022-08-24T07:00:30Z</time>
      </trkpt>
      <trkpt lat="43.129636000000005" lon="-1.2448730000000021">
        <ele>398.092</ele>
        <time>2022-08-24T07:00:31Z</time>
      </trkpt>
      <trkpt lat="43.129611000000004" lon="-1.244857000000002">
        <ele>398.069</ele>
        <time>2022-08-24T07:00:32Z</time>
      </trkpt>
      <trkpt lat="43.12960400000001" lon="-1.2448460000000021">
        <ele>398.422</ele>
        <time>2022-08-24T07:00:33Z</time>
      </trkpt>
      <trkpt lat="43.129582000000006" lon="-1.2448320000000022">
        <ele>398.686</ele>
        <time>2022-08-24T07:00:34Z</time>
      </trkpt>
      <trkpt lat="43.12955900000001" lon="-1.2448210000000022">
        <ele>398.875</ele>
        <time>2022-08-24T07:00:35Z</time>
      </trkpt>
      <trkpt lat="43.12953800000001" lon="-1.2448100000000022">
        <ele>399.055</ele>
        <time>2022-08-24T07:00:36Z</time>
      </trkpt>
      <trkpt lat="43.12951200000001" lon="-1.2447890000000021">
        <ele>399.207</ele>
        <time>2022-08-24T07:00:37Z</time>
      </trkpt>
      <trkpt lat="43.12948500000001" lon="-1.2447780000000022">
        <ele>399.417</ele>
        <time>2022-08-24T07:00:38Z</time>
      </trkpt>
      <trkpt lat="43.12946500000001" lon="-1.244782000000002">
        <ele>399.609</ele>
        <time>2022-08-24T07:00:39Z</time>
      </trkpt>
      <trkpt lat="43.12945400000001" lon="-1.244777000000002">
        <ele>399.846</ele>
        <time>2022-08-24T07:00:40Z</time>
      </trkpt>
      <trkpt lat="43.12944500000001" lon="-1.244769000000002">
        <ele>400.246</ele>
        <time>2022-08-24T07:00:41Z</time>
      </trkpt>
      <trkpt lat="43.12943100000001" lon="-1.244759000000002">
        <ele>400.426</ele>
        <time>2022-08-24T07:00:42Z</time>
      </trkpt>
      <trkpt lat="43.12942300000001" lon="-1.244746000000002">
        <ele>400.642</ele>
        <time>2022-08-24T07:00:43Z</time>
      </trkpt>
      <trkpt lat="43.12941100000001" lon="-1.2447360000000018">
        <ele>400.864</ele>
        <time>2022-08-24T07:00:44Z</time>
      </trkpt>
      <trkpt lat="43.12939800000001" lon="-1.2447310000000018">
        <ele>401.071</ele>
        <time>2022-08-24T07:00:45Z</time>
      </trkpt>
      <trkpt lat="43.12938100000001" lon="-1.2447200000000018">
        <ele>401.054</ele>
        <time>2022-08-24T07:00:46Z</time>
      </trkpt>
      <trkpt lat="43.12936500000001" lon="-1.2447130000000017">
        <ele>401.458</ele>
        <time>2022-08-24T07:00:47Z</time>
      </trkpt>
      <trkpt lat="43.12935100000001" lon="-1.2447080000000017">
        <ele>401.447</ele>
        <time>2022-08-24T07:00:48Z</time>
      </trkpt>
      <trkpt lat="43.129340000000006" lon="-1.2447020000000018">
        <ele>401.662</ele>
        <time>2022-08-24T07:00:49Z</time>
      </trkpt>
      <trkpt lat="43.129329000000006" lon="-1.2446990000000018">
        <ele>401.883</ele>
        <time>2022-08-24T07:00:50Z</time>
      </trkpt>
      <trkpt lat="43.129319" lon="-1.2446950000000019">
        <ele>401.811</ele>
        <time>2022-08-24T07:00:51Z</time>
      </trkpt>
      <trkpt lat="43.129308" lon="-1.2446950000000019">
        <ele>401.809</ele>
        <time>2022-08-24T07:00:52Z</time>
      </trkpt>
      <trkpt lat="43.129298" lon="-1.244694000000002">
        <ele>402.037</ele>
        <time>2022-08-24T07:00:53Z</time>
      </trkpt>
      <trkpt lat="43.129284" lon="-1.244689000000002">
        <ele>402.227</ele>
        <time>2022-08-24T07:00:54Z</time>
      </trkpt>
      <trkpt lat="43.129273999999995" lon="-1.244685000000002">
        <ele>402.427</ele>
        <time>2022-08-24T07:00:55Z</time>
      </trkpt>
      <trkpt lat="43.129262999999995" lon="-1.244683000000002">
        <ele>402.853</ele>
        <time>2022-08-24T07:00:56Z</time>
      </trkpt>
      <trkpt lat="43.129262999999995" lon="-1.244683000000002">
        <ele>403.025</ele>
        <time>2022-08-24T07:00:57Z</time>
      </trkpt>
      <trkpt lat="43.12924399999999" lon="-1.244676000000002">
        <ele>403.292</ele>
        <time>2022-08-24T07:00:58Z</time>
      </trkpt>
      <trkpt lat="43.12923599999999" lon="-1.244675000000002">
        <ele>403.485</ele>
        <time>2022-08-24T07:00:59Z</time>
      </trkpt>
      <trkpt lat="43.12922499999999" lon="-1.244670000000002">
        <ele>403.459</ele>
        <time>2022-08-24T07:01:00Z</time>
      </trkpt>
      <trkpt lat="43.12921199999999" lon="-1.2446630000000019">
        <ele>403.688</ele>
        <time>2022-08-24T07:01:01Z</time>
      </trkpt>
      <trkpt lat="43.12919499999999" lon="-1.244654000000002">
        <ele>403.648</ele>
        <time>2022-08-24T07:01:02Z</time>
      </trkpt>
      <trkpt lat="43.12917999999999" lon="-1.244648000000002">
        <ele>403.861</ele>
        <time>2022-08-24T07:01:03Z</time>
      </trkpt>
      <trkpt lat="43.12916799999999" lon="-1.244646000000002">
        <ele>404.217</ele>
        <time>2022-08-24T07:01:04Z</time>
      </trkpt>
      <trkpt lat="43.12915399999999" lon="-1.244645000000002">
        <ele>404.209</ele>
        <time>2022-08-24T07:01:05Z</time>
      </trkpt>
      <trkpt lat="43.129138999999995" lon="-1.244643000000002">
        <ele>404.435</ele>
        <time>2022-08-24T07:01:06Z</time>
      </trkpt>
      <trkpt lat="43.12912599999999" lon="-1.2446410000000019">
        <ele>404.645</ele>
        <time>2022-08-24T07:01:07Z</time>
      </trkpt>
      <trkpt lat="43.129113999999994" lon="-1.2446390000000018">
        <ele>404.865</ele>
        <time>2022-08-24T07:01:08Z</time>
      </trkpt>
      <trkpt lat="43.129096999999994" lon="-1.2446340000000018">
        <ele>404.811</ele>
        <time>2022-08-24T07:01:09Z</time>
      </trkpt>
      <trkpt lat="43.129084999999996" lon="-1.2446270000000017">
        <ele>405.043</ele>
        <time>2022-08-24T07:01:10Z</time>
      </trkpt>
      <trkpt lat="43.129084999999996" lon="-1.2446270000000017">
        <ele>405.430</ele>
        <time>2022-08-24T07:01:11Z</time>
      </trkpt>
      <trkpt lat="43.129062" lon="-1.2446110000000017">
        <ele>405.623</ele>
        <time>2022-08-24T07:01:12Z</time>
      </trkpt>
      <trkpt lat="43.129051999999994" lon="-1.2446090000000016">
        <ele>405.887</ele>
        <time>2022-08-24T07:01:13Z</time>
      </trkpt>
      <trkpt lat="43.129037999999994" lon="-1.2446080000000017">
        <ele>405.836</ele>
        <time>2022-08-24T07:01:14Z</time>
      </trkpt>
      <trkpt lat="43.12902499999999" lon="-1.2446060000000017">
        <ele>406.012</ele>
        <time>2022-08-24T07:01:15Z</time>
      </trkpt>
      <trkpt lat="43.12901199999999" lon="-1.2446010000000016">
        <ele>406.032</ele>
        <time>2022-08-24T07:01:16Z</time>
      </trkpt>
      <trkpt lat="43.12899999999999" lon="-1.2445950000000017">
        <ele>406.205</ele>
        <time>2022-08-24T07:01:17Z</time>
      </trkpt>
      <trkpt lat="43.12898899999999" lon="-1.2445910000000018">
        <ele>406.409</ele>
        <time>2022-08-24T07:01:18Z</time>
      </trkpt>
      <trkpt lat="43.12897599999999" lon="-1.2445870000000019">
        <ele>406.482</ele>
        <time>2022-08-24T07:01:19Z</time>
      </trkpt>
      <trkpt lat="43.128962999999985" lon="-1.2445820000000019">
        <ele>406.632</ele>
        <time>2022-08-24T07:01:20Z</time>
      </trkpt>
      <trkpt lat="43.12895099999999" lon="-1.2445790000000019">
        <ele>406.832</ele>
        <time>2022-08-24T07:01:21Z</time>
      </trkpt>
      <trkpt lat="43.128939999999986" lon="-1.244573000000002">
        <ele>406.838</ele>
        <time>2022-08-24T07:01:22Z</time>
      </trkpt>
      <trkpt lat="43.128928999999985" lon="-1.2445710000000019">
        <ele>407.010</ele>
        <time>2022-08-24T07:01:23Z</time>
      </trkpt>
      <trkpt lat="43.128917999999985" lon="-1.244567000000002">
        <ele>407.027</ele>
        <time>2022-08-24T07:01:24Z</time>
      </trkpt>
      <trkpt lat="43.128905999999986" lon="-1.244563000000002">
        <ele>407.280</ele>
        <time>2022-08-24T07:01:25Z</time>
      </trkpt>
      <trkpt lat="43.12889399999999" lon="-1.2445620000000022">
        <ele>407.234</ele>
        <time>2022-08-24T07:01:26Z</time>
      </trkpt>
      <trkpt lat="43.128883999999985" lon="-1.2445590000000022">
        <ele>407.443</ele>
        <time>2022-08-24T07:01:27Z</time>
      </trkpt>
      <trkpt lat="43.128872999999984" lon="-1.2445580000000023">
        <ele>407.477</ele>
        <time>2022-08-24T07:01:28Z</time>
      </trkpt>
      <trkpt lat="43.12885999999998" lon="-1.2445550000000023">
        <ele>407.661</ele>
        <time>2022-08-24T07:01:29Z</time>
      </trkpt>
      <trkpt lat="43.12884699999998" lon="-1.2445480000000022">
        <ele>407.627</ele>
        <time>2022-08-24T07:01:30Z</time>
      </trkpt>
      <trkpt lat="43.12883299999998" lon="-1.2445340000000022">
        <ele>407.809</ele>
        <time>2022-08-24T07:01:31Z</time>
      </trkpt>
      <trkpt lat="43.12882199999998" lon="-1.2445180000000022">
        <ele>408.038</ele>
        <time>2022-08-24T07:01:32Z</time>
      </trkpt>
      <trkpt lat="43.12881099999998" lon="-1.2445060000000023">
        <ele>408.248</ele>
        <time>2022-08-24T07:01:33Z</time>
      </trkpt>
      <trkpt lat="43.128794999999975" lon="-1.2444990000000022">
        <ele>408.428</ele>
        <time>2022-08-24T07:01:34Z</time>
      </trkpt>
      <trkpt lat="43.12877999999998" lon="-1.2444970000000022">
        <ele>408.694</ele>
        <time>2022-08-24T07:01:35Z</time>
      </trkpt>
      <trkpt lat="43.12876799999998" lon="-1.2444990000000022">
        <ele>408.696</ele>
        <time>2022-08-24T07:01:36Z</time>
      </trkpt>
      <trkpt lat="43.12875499999998" lon="-1.2445050000000022">
        <ele>408.813</ele>
        <time>2022-08-24T07:01:37Z</time>
      </trkpt>
      <trkpt lat="43.128743999999976" lon="-1.2445050000000022">
        <ele>409.086</ele>
        <time>2022-08-24T07:01:38Z</time>
      </trkpt>
      <trkpt lat="43.12873199999998" lon="-1.2445020000000022">
        <ele>409.070</ele>
        <time>2022-08-24T07:01:39Z</time>
      </trkpt>
      <trkpt lat="43.12871799999998" lon="-1.2445000000000022">
        <ele>409.269</ele>
        <time>2022-08-24T07:01:40Z</time>
      </trkpt>
      <trkpt lat="43.12870699999998" lon="-1.244490000000002">
        <ele>409.457</ele>
        <time>2022-08-24T07:01:41Z</time>
      </trkpt>
      <trkpt lat="43.12869499999998" lon="-1.2444810000000022">
        <ele>409.400</ele>
        <time>2022-08-24T07:01:42Z</time>
      </trkpt>
      <trkpt lat="43.12868399999998" lon="-1.244471000000002">
        <ele>409.620</ele>
        <time>2022-08-24T07:01:43Z</time>
      </trkpt>
      <trkpt lat="43.128673999999975" lon="-1.2444600000000021">
        <ele>409.609</ele>
        <time>2022-08-24T07:01:44Z</time>
      </trkpt>
      <trkpt lat="43.128662999999975" lon="-1.2444510000000022">
        <ele>409.836</ele>
        <time>2022-08-24T07:01:45Z</time>
      </trkpt>
      <trkpt lat="43.12864999999997" lon="-1.2444510000000022">
        <ele>410.016</ele>
        <time>2022-08-24T07:01:46Z</time>
      </trkpt>
      <trkpt lat="43.12863899999997" lon="-1.2444530000000023">
        <ele>410.066</ele>
        <time>2022-08-24T07:01:47Z</time>
      </trkpt>
      <trkpt lat="43.12863099999997" lon="-1.2444530000000023">
        <ele>410.262</ele>
        <time>2022-08-24T07:01:48Z</time>
      </trkpt>
      <trkpt lat="43.12862199999997" lon="-1.2444520000000023">
        <ele>410.464</ele>
        <time>2022-08-24T07:01:49Z</time>
      </trkpt>
      <trkpt lat="43.12861099999997" lon="-1.2444470000000023">
        <ele>410.621</ele>
        <time>2022-08-24T07:01:50Z</time>
      </trkpt>
      <trkpt lat="43.12859699999997" lon="-1.2444450000000022">
        <ele>410.644</ele>
        <time>2022-08-24T07:01:51Z</time>
      </trkpt>
      <trkpt lat="43.12858199999997" lon="-1.2444380000000022">
        <ele>410.658</ele>
        <time>2022-08-24T07:01:52Z</time>
      </trkpt>
      <trkpt lat="43.12856899999997" lon="-1.2444300000000021">
        <ele>410.857</ele>
        <time>2022-08-24T07:01:53Z</time>
      </trkpt>
      <trkpt lat="43.12855799999997" lon="-1.2444160000000022">
        <ele>411.029</ele>
        <time>2022-08-24T07:01:54Z</time>
      </trkpt>
      <trkpt lat="43.12854899999997" lon="-1.2444060000000021">
        <ele>411.200</ele>
        <time>2022-08-24T07:01:55Z</time>
      </trkpt>
      <trkpt lat="43.12853799999997" lon="-1.2443950000000021">
        <ele>411.220</ele>
        <time>2022-08-24T07:01:56Z</time>
      </trkpt>
      <trkpt lat="43.12852699999997" lon="-1.244390000000002">
        <ele>411.409</ele>
        <time>2022-08-24T07:01:57Z</time>
      </trkpt>
      <trkpt lat="43.12851599999997" lon="-1.2443840000000022">
        <ele>411.633</ele>
        <time>2022-08-24T07:01:58Z</time>
      </trkpt>
      <trkpt lat="43.12850199999997" lon="-1.2443810000000022">
        <ele>411.823</ele>
        <time>2022-08-24T07:01:59Z</time>
      </trkpt>
      <trkpt lat="43.12849099999997" lon="-1.2443750000000022">
        <ele>412.263</ele>
        <time>2022-08-24T07:02:00Z</time>
      </trkpt>
      <trkpt lat="43.12847899999997" lon="-1.2443710000000023">
        <ele>412.419</ele>
        <time>2022-08-24T07:02:01Z</time>
      </trkpt>
      <trkpt lat="43.12846599999997" lon="-1.2443720000000023">
        <ele>412.661</ele>
        <time>2022-08-24T07:02:02Z</time>
      </trkpt>
      <trkpt lat="43.128452999999965" lon="-1.2443660000000023">
        <ele>412.488</ele>
        <time>2022-08-24T07:02:03Z</time>
      </trkpt>
      <trkpt lat="43.128441999999964" lon="-1.2443630000000023">
        <ele>412.851</ele>
        <time>2022-08-24T07:02:04Z</time>
      </trkpt>
      <trkpt lat="43.128429999999966" lon="-1.2443580000000023">
        <ele>412.865</ele>
        <time>2022-08-24T07:02:05Z</time>
      </trkpt>
      <trkpt lat="43.12841999999996" lon="-1.2443580000000023">
        <ele>413.054</ele>
        <time>2022-08-24T07:02:06Z</time>
      </trkpt>
      <trkpt lat="43.12840999999996" lon="-1.2443590000000022">
        <ele>413.256</ele>
        <time>2022-08-24T07:02:07Z</time>
      </trkpt>
      <trkpt lat="43.12839899999996" lon="-1.2443580000000023">
        <ele>413.659</ele>
        <time>2022-08-24T07:02:08Z</time>
      </trkpt>
      <trkpt lat="43.128385999999956" lon="-1.2443570000000024">
        <ele>413.814</ele>
        <time>2022-08-24T07:02:09Z</time>
      </trkpt>
      <trkpt lat="43.128371999999956" lon="-1.2443520000000023">
        <ele>414.009</ele>
        <time>2022-08-24T07:02:10Z</time>
      </trkpt>
      <trkpt lat="43.12835999999996" lon="-1.2443450000000023">
        <ele>414.466</ele>
        <time>2022-08-24T07:02:11Z</time>
      </trkpt>
      <trkpt lat="43.12834799999996" lon="-1.2443400000000022">
        <ele>414.696</ele>
        <time>2022-08-24T07:02:12Z</time>
      </trkpt>
      <trkpt lat="43.12833499999996" lon="-1.2443340000000023">
        <ele>414.876</ele>
        <time>2022-08-24T07:02:13Z</time>
      </trkpt>
      <trkpt lat="43.12832399999996" lon="-1.2443330000000024">
        <ele>415.022</ele>
        <time>2022-08-24T07:02:14Z</time>
      </trkpt>
      <trkpt lat="43.12831399999995" lon="-1.2443170000000023">
        <ele>415.484</ele>
        <time>2022-08-24T07:02:15Z</time>
      </trkpt>
      <trkpt lat="43.12830099999995" lon="-1.2443120000000023">
        <ele>415.661</ele>
        <time>2022-08-24T07:02:16Z</time>
      </trkpt>
      <trkpt lat="43.12828999999995" lon="-1.2443100000000022">
        <ele>415.664</ele>
        <time>2022-08-24T07:02:17Z</time>
      </trkpt>
      <trkpt lat="43.12827499999995" lon="-1.2443040000000023">
        <ele>416.028</ele>
        <time>2022-08-24T07:02:18Z</time>
      </trkpt>
      <trkpt lat="43.128259999999955" lon="-1.2443000000000024">
        <ele>416.297</ele>
        <time>2022-08-24T07:02:19Z</time>
      </trkpt>
      <trkpt lat="43.12824699999995" lon="-1.2442980000000023">
        <ele>416.451</ele>
        <time>2022-08-24T07:02:20Z</time>
      </trkpt>
      <trkpt lat="43.12824699999995" lon="-1.2442980000000023">
        <ele>416.601</ele>
        <time>2022-08-24T07:02:21Z</time>
      </trkpt>
      <trkpt lat="43.12821899999995" lon="-1.2442930000000023">
        <ele>416.811</ele>
        <time>2022-08-24T07:02:22Z</time>
      </trkpt>
      <trkpt lat="43.12820999999995" lon="-1.2442880000000023">
        <ele>417.009</ele>
        <time>2022-08-24T07:02:23Z</time>
      </trkpt>
      <trkpt lat="43.12819899999995" lon="-1.2442850000000023">
        <ele>417.286</ele>
        <time>2022-08-24T07:02:24Z</time>
      </trkpt>
      <trkpt lat="43.128183999999955" lon="-1.2442820000000023">
        <ele>417.436</ele>
        <time>2022-08-24T07:02:25Z</time>
      </trkpt>
      <trkpt lat="43.12816599999996" lon="-1.2442840000000024">
        <ele>417.436</ele>
        <time>2022-08-24T07:02:26Z</time>
      </trkpt>
      <trkpt lat="43.12815199999996" lon="-1.2442820000000023">
        <ele>417.662</ele>
        <time>2022-08-24T07:02:27Z</time>
      </trkpt>
      <trkpt lat="43.12813799999996" lon="-1.2442750000000022">
        <ele>417.884</ele>
        <time>2022-08-24T07:02:28Z</time>
      </trkpt>
      <trkpt lat="43.12812399999996" lon="-1.2442680000000022">
        <ele>418.231</ele>
        <time>2022-08-24T07:02:29Z</time>
      </trkpt>
      <trkpt lat="43.12810999999996" lon="-1.2442710000000021">
        <ele>418.484</ele>
        <time>2022-08-24T07:02:30Z</time>
      </trkpt>
      <trkpt lat="43.128098999999956" lon="-1.2442710000000021">
        <ele>418.688</ele>
        <time>2022-08-24T07:02:31Z</time>
      </trkpt>
      <trkpt lat="43.128082999999954" lon="-1.2442670000000022">
        <ele>418.827</ele>
        <time>2022-08-24T07:02:32Z</time>
      </trkpt>
      <trkpt lat="43.128070999999956" lon="-1.2442600000000021">
        <ele>419.027</ele>
        <time>2022-08-24T07:02:33Z</time>
      </trkpt>
      <trkpt lat="43.12805799999995" lon="-1.2442570000000022">
        <ele>419.468</ele>
        <time>2022-08-24T07:02:34Z</time>
      </trkpt>
      <trkpt lat="43.12805799999995" lon="-1.2442570000000022">
        <ele>419.414</ele>
        <time>2022-08-24T07:02:35Z</time>
      </trkpt>
      <trkpt lat="43.12803099999995" lon="-1.244250000000002">
        <ele>419.609</ele>
        <time>2022-08-24T07:02:36Z</time>
      </trkpt>
      <trkpt lat="43.12801899999995" lon="-1.244247000000002">
        <ele>420.083</ele>
        <time>2022-08-24T07:02:37Z</time>
      </trkpt>
      <trkpt lat="43.12800799999995" lon="-1.2442440000000021">
        <ele>420.093</ele>
        <time>2022-08-24T07:02:38Z</time>
      </trkpt>
      <trkpt lat="43.12799799999995" lon="-1.2442430000000022">
        <ele>420.483</ele>
        <time>2022-08-24T07:02:39Z</time>
      </trkpt>
      <trkpt lat="43.12798899999995" lon="-1.2442510000000022">
        <ele>420.679</ele>
        <time>2022-08-24T07:02:40Z</time>
      </trkpt>
      <trkpt lat="43.12797699999995" lon="-1.2442560000000022">
        <ele>420.881</ele>
        <time>2022-08-24T07:02:41Z</time>
      </trkpt>
      <trkpt lat="43.12796499999995" lon="-1.2442560000000022">
        <ele>420.888</ele>
        <time>2022-08-24T07:02:42Z</time>
      </trkpt>
      <trkpt lat="43.12795399999995" lon="-1.2442580000000023">
        <ele>421.281</ele>
        <time>2022-08-24T07:02:43Z</time>
      </trkpt>
      <trkpt lat="43.12794099999995" lon="-1.2442570000000024">
        <ele>421.425</ele>
        <time>2022-08-24T07:02:44Z</time>
      </trkpt>
      <trkpt lat="43.12792599999995" lon="-1.2442540000000024">
        <ele>421.444</ele>
        <time>2022-08-24T07:02:45Z</time>
      </trkpt>
      <trkpt lat="43.127910999999955" lon="-1.2442500000000025">
        <ele>421.834</ele>
        <time>2022-08-24T07:02:46Z</time>
      </trkpt>
      <trkpt lat="43.127896999999955" lon="-1.2442430000000024">
        <ele>422.055</ele>
        <time>2022-08-24T07:02:47Z</time>
      </trkpt>
      <trkpt lat="43.127896999999955" lon="-1.2442430000000024">
        <ele>422.410</ele>
        <time>2022-08-24T07:02:48Z</time>
      </trkpt>
      <trkpt lat="43.12786799999996" lon="-1.2442340000000025">
        <ele>422.409</ele>
        <time>2022-08-24T07:02:49Z</time>
      </trkpt>
      <trkpt lat="43.127856999999956" lon="-1.2442350000000024">
        <ele>422.884</ele>
        <time>2022-08-24T07:02:50Z</time>
      </trkpt>
      <trkpt lat="43.12784499999996" lon="-1.2442370000000025">
        <ele>423.294</ele>
        <time>2022-08-24T07:02:51Z</time>
      </trkpt>
      <trkpt lat="43.12783699999996" lon="-1.2442290000000025">
        <ele>423.274</ele>
        <time>2022-08-24T07:02:52Z</time>
      </trkpt>
      <trkpt lat="43.12782799999996" lon="-1.2442220000000024">
        <ele>423.660</ele>
        <time>2022-08-24T07:02:53Z</time>
      </trkpt>
      <trkpt lat="43.12782799999996" lon="-1.2442220000000024">
        <ele>423.862</ele>
        <time>2022-08-24T07:02:54Z</time>
      </trkpt>
      <trkpt lat="43.12780899999996" lon="-1.2442210000000025">
        <ele>424.079</ele>
        <time>2022-08-24T07:02:55Z</time>
      </trkpt>
      <trkpt lat="43.127797999999956" lon="-1.2442220000000024">
        <ele>424.262</ele>
        <time>2022-08-24T07:02:56Z</time>
      </trkpt>
      <trkpt lat="43.12778799999995" lon="-1.2442230000000023">
        <ele>424.426</ele>
        <time>2022-08-24T07:02:57Z</time>
      </trkpt>
      <trkpt lat="43.127772999999955" lon="-1.2442250000000024">
        <ele>424.835</ele>
        <time>2022-08-24T07:02:58Z</time>
      </trkpt>
      <trkpt lat="43.12776099999996" lon="-1.2442210000000025">
        <ele>425.078</ele>
        <time>2022-08-24T07:02:59Z</time>
      </trkpt>
      <trkpt lat="43.127755999999955" lon="-1.2442200000000025">
        <ele>425.233</ele>
        <time>2022-08-24T07:03:00Z</time>
      </trkpt>
      <trkpt lat="43.12775399999995" lon="-1.2442100000000025">
        <ele>425.426</ele>
        <time>2022-08-24T07:03:01Z</time>
      </trkpt>
      <trkpt lat="43.127744999999955" lon="-1.2442050000000024">
        <ele>425.609</ele>
        <time>2022-08-24T07:03:02Z</time>
      </trkpt>
      <trkpt lat="43.12773199999995" lon="-1.2442000000000024">
        <ele>425.678</ele>
        <time>2022-08-24T07:03:03Z</time>
      </trkpt>
      <trkpt lat="43.12771899999995" lon="-1.2442020000000025">
        <ele>425.878</ele>
        <time>2022-08-24T07:03:04Z</time>
      </trkpt>
      <trkpt lat="43.12771099999995" lon="-1.2442110000000024">
        <ele>426.238</ele>
        <time>2022-08-24T07:03:05Z</time>
      </trkpt>
      <trkpt lat="43.12770199999995" lon="-1.2442210000000025">
        <ele>426.284</ele>
        <time>2022-08-24T07:03:06Z</time>
      </trkpt>
      <trkpt lat="43.127691999999946" lon="-1.2442300000000024">
        <ele>426.686</ele>
        <time>2022-08-24T07:03:07Z</time>
      </trkpt>
      <trkpt lat="43.12768199999994" lon="-1.2442310000000023">
        <ele>426.813</ele>
        <time>2022-08-24T07:03:08Z</time>
      </trkpt>
      <trkpt lat="43.12767499999995" lon="-1.2442210000000022">
        <ele>427.076</ele>
        <time>2022-08-24T07:03:09Z</time>
      </trkpt>
      <trkpt lat="43.127663999999946" lon="-1.2442140000000022">
        <ele>427.220</ele>
        <time>2022-08-24T07:03:10Z</time>
      </trkpt>
      <trkpt lat="43.12764899999995" lon="-1.2442080000000022">
        <ele>427.419</ele>
        <time>2022-08-24T07:03:11Z</time>
      </trkpt>
      <trkpt lat="43.12763499999995" lon="-1.2442070000000023">
        <ele>427.887</ele>
        <time>2022-08-24T07:03:12Z</time>
      </trkpt>
      <trkpt lat="43.127621999999946" lon="-1.2442160000000022">
        <ele>428.042</ele>
        <time>2022-08-24T07:03:13Z</time>
      </trkpt>
      <trkpt lat="43.127610999999945" lon="-1.2442270000000022">
        <ele>428.226</ele>
        <time>2022-08-24T07:03:14Z</time>
      </trkpt>
      <trkpt lat="43.12760399999995" lon="-1.2442360000000021">
        <ele>428.409</ele>
        <time>2022-08-24T07:03:15Z</time>
      </trkpt>
      <trkpt lat="43.12760399999995" lon="-1.2442360000000021">
        <ele>428.629</ele>
        <time>2022-08-24T07:03:16Z</time>
      </trkpt>
      <trkpt lat="43.12757799999995" lon="-1.244231000000002">
        <ele>428.699</ele>
        <time>2022-08-24T07:03:17Z</time>
      </trkpt>
      <trkpt lat="43.12756299999995" lon="-1.2442220000000022">
        <ele>428.859</ele>
        <time>2022-08-24T07:03:18Z</time>
      </trkpt>
      <trkpt lat="43.127547999999955" lon="-1.2442140000000022">
        <ele>429.035</ele>
        <time>2022-08-24T07:03:19Z</time>
      </trkpt>
      <trkpt lat="43.12753299999996" lon="-1.2442080000000022">
        <ele>429.247</ele>
        <time>2022-08-24T07:03:20Z</time>
      </trkpt>
      <trkpt lat="43.127521999999956" lon="-1.2442110000000022">
        <ele>429.444</ele>
        <time>2022-08-24T07:03:21Z</time>
      </trkpt>
      <trkpt lat="43.12751499999996" lon="-1.2442180000000023">
        <ele>429.627</ele>
        <time>2022-08-24T07:03:22Z</time>
      </trkpt>
      <trkpt lat="43.12750899999996" lon="-1.2442270000000022">
        <ele>430.061</ele>
        <time>2022-08-24T07:03:23Z</time>
      </trkpt>
      <trkpt lat="43.12749599999996" lon="-1.2442300000000022">
        <ele>430.060</ele>
        <time>2022-08-24T07:03:24Z</time>
      </trkpt>
      <trkpt lat="43.127482999999955" lon="-1.2442300000000022">
        <ele>430.434</ele>
        <time>2022-08-24T07:03:25Z</time>
      </trkpt>
      <trkpt lat="43.127471999999955" lon="-1.244231000000002">
        <ele>430.655</ele>
        <time>2022-08-24T07:03:26Z</time>
      </trkpt>
      <trkpt lat="43.127460999999954" lon="-1.244235000000002">
        <ele>430.810</ele>
        <time>2022-08-24T07:03:27Z</time>
      </trkpt>
      <trkpt lat="43.127448999999956" lon="-1.244242000000002">
        <ele>431.009</ele>
        <time>2022-08-24T07:03:28Z</time>
      </trkpt>
      <trkpt lat="43.12743899999995" lon="-1.244248000000002">
        <ele>431.434</ele>
        <time>2022-08-24T07:03:29Z</time>
      </trkpt>
      <trkpt lat="43.12742799999995" lon="-1.244251000000002">
        <ele>431.664</ele>
        <time>2022-08-24T07:03:30Z</time>
      </trkpt>
      <trkpt lat="43.12741699999995" lon="-1.244252000000002">
        <ele>432.034</ele>
        <time>2022-08-24T07:03:31Z</time>
      </trkpt>
      <trkpt lat="43.12740399999995" lon="-1.2442500000000019">
        <ele>432.480</ele>
        <time>2022-08-24T07:03:32Z</time>
      </trkpt>
      <trkpt lat="43.12738899999995" lon="-1.244249000000002">
        <ele>432.672</ele>
        <time>2022-08-24T07:03:33Z</time>
      </trkpt>
      <trkpt lat="43.12737599999995" lon="-1.244248000000002">
        <ele>432.839</ele>
        <time>2022-08-24T07:03:34Z</time>
      </trkpt>
      <trkpt lat="43.12736699999995" lon="-1.244254000000002">
        <ele>433.252</ele>
        <time>2022-08-24T07:03:35Z</time>
      </trkpt>
      <trkpt lat="43.12735599999995" lon="-1.244259000000002">
        <ele>433.436</ele>
        <time>2022-08-24T07:03:36Z</time>
      </trkpt>
      <trkpt lat="43.12734799999995" lon="-1.244266000000002">
        <ele>433.625</ele>
        <time>2022-08-24T07:03:37Z</time>
      </trkpt>
      <trkpt lat="43.12734099999995" lon="-1.244269000000002">
        <ele>433.814</ele>
        <time>2022-08-24T07:03:38Z</time>
      </trkpt>
      <trkpt lat="43.12733099999995" lon="-1.244266000000002">
        <ele>434.054</ele>
        <time>2022-08-24T07:03:39Z</time>
      </trkpt>
      <trkpt lat="43.12731899999995" lon="-1.2442620000000022">
        <ele>434.209</ele>
        <time>2022-08-24T07:03:40Z</time>
      </trkpt>
      <trkpt lat="43.12730499999995" lon="-1.2442620000000022">
        <ele>434.209</ele>
        <time>2022-08-24T07:03:41Z</time>
      </trkpt>
      <trkpt lat="43.12729499999995" lon="-1.2442630000000021">
        <ele>434.662</ele>
        <time>2022-08-24T07:03:42Z</time>
      </trkpt>
      <trkpt lat="43.12728599999995" lon="-1.244267000000002">
        <ele>434.862</ele>
        <time>2022-08-24T07:03:43Z</time>
      </trkpt>
      <trkpt lat="43.12727499999995" lon="-1.244268000000002">
        <ele>434.882</ele>
        <time>2022-08-24T07:03:44Z</time>
      </trkpt>
      <trkpt lat="43.12726699999995" lon="-1.2442720000000018">
        <ele>435.028</ele>
        <time>2022-08-24T07:03:45Z</time>
      </trkpt>
      <trkpt lat="43.12725499999995" lon="-1.2442720000000018">
        <ele>435.220</ele>
        <time>2022-08-24T07:03:46Z</time>
      </trkpt>
      <trkpt lat="43.12724599999995" lon="-1.2442670000000018">
        <ele>435.447</ele>
        <time>2022-08-24T07:03:47Z</time>
      </trkpt>
      <trkpt lat="43.12723399999995" lon="-1.2442690000000018">
        <ele>435.640</ele>
        <time>2022-08-24T07:03:48Z</time>
      </trkpt>
      <trkpt lat="43.12722299999995" lon="-1.2442740000000019">
        <ele>435.844</ele>
        <time>2022-08-24T07:03:49Z</time>
      </trkpt>
      <trkpt lat="43.12721199999995" lon="-1.2442770000000019">
        <ele>436.043</ele>
        <time>2022-08-24T07:03:50Z</time>
      </trkpt>
      <trkpt lat="43.12720099999995" lon="-1.2442800000000018">
        <ele>436.273</ele>
        <time>2022-08-24T07:03:51Z</time>
      </trkpt>
      <trkpt lat="43.12718999999995" lon="-1.2442820000000019">
        <ele>436.485</ele>
        <time>2022-08-24T07:03:52Z</time>
      </trkpt>
      <trkpt lat="43.12717799999995" lon="-1.244279000000002">
        <ele>436.613</ele>
        <time>2022-08-24T07:03:53Z</time>
      </trkpt>
      <trkpt lat="43.12716399999995" lon="-1.244279000000002">
        <ele>436.809</ele>
        <time>2022-08-24T07:03:54Z</time>
      </trkpt>
      <trkpt lat="43.12715099999995" lon="-1.244278000000002">
        <ele>437.288</ele>
        <time>2022-08-24T07:03:55Z</time>
      </trkpt>
      <trkpt lat="43.12713999999995" lon="-1.244275000000002">
        <ele>437.488</ele>
        <time>2022-08-24T07:03:56Z</time>
      </trkpt>
      <trkpt lat="43.12713099999995" lon="-1.2442710000000021">
        <ele>437.488</ele>
        <time>2022-08-24T07:03:57Z</time>
      </trkpt>
      <trkpt lat="43.12711899999995" lon="-1.244269000000002">
        <ele>437.634</ele>
        <time>2022-08-24T07:03:58Z</time>
      </trkpt>
      <trkpt lat="43.12710699999995" lon="-1.244269000000002">
        <ele>437.816</ele>
        <time>2022-08-24T07:03:59Z</time>
      </trkpt>
      <trkpt lat="43.127094999999954" lon="-1.244267000000002">
        <ele>438.263</ele>
        <time>2022-08-24T07:04:00Z</time>
      </trkpt>
      <trkpt lat="43.127094999999954" lon="-1.244267000000002">
        <ele>438.286</ele>
        <time>2022-08-24T07:04:01Z</time>
      </trkpt>
      <trkpt lat="43.12706799999995" lon="-1.244268000000002">
        <ele>438.660</ele>
        <time>2022-08-24T07:04:02Z</time>
      </trkpt>
      <trkpt lat="43.12705799999995" lon="-1.244270000000002">
        <ele>439.039</ele>
        <time>2022-08-24T07:04:03Z</time>
      </trkpt>
      <trkpt lat="43.12704999999995" lon="-1.244272000000002">
        <ele>439.282</ele>
        <time>2022-08-24T07:04:04Z</time>
      </trkpt>
      <trkpt lat="43.127039999999944" lon="-1.244278000000002">
        <ele>439.643</ele>
        <time>2022-08-24T07:04:05Z</time>
      </trkpt>
      <trkpt lat="43.12702899999994" lon="-1.244280000000002">
        <ele>439.817</ele>
        <time>2022-08-24T07:04:06Z</time>
      </trkpt>
      <trkpt lat="43.127019999999945" lon="-1.2442790000000021">
        <ele>440.009</ele>
        <time>2022-08-24T07:04:07Z</time>
      </trkpt>
      <trkpt lat="43.127011999999944" lon="-1.244277000000002">
        <ele>440.089</ele>
        <time>2022-08-24T07:04:08Z</time>
      </trkpt>
      <trkpt lat="43.127005999999945" lon="-1.2442710000000021">
        <ele>440.279</ele>
        <time>2022-08-24T07:04:09Z</time>
      </trkpt>
      <trkpt lat="43.126996999999946" lon="-1.244264000000002">
        <ele>440.489</ele>
        <time>2022-08-24T07:04:10Z</time>
      </trkpt>
      <trkpt lat="43.126985999999945" lon="-1.244259000000002">
        <ele>440.485</ele>
        <time>2022-08-24T07:04:11Z</time>
      </trkpt>
      <trkpt lat="43.12697599999994" lon="-1.244261000000002">
        <ele>440.647</ele>
        <time>2022-08-24T07:04:12Z</time>
      </trkpt>
      <trkpt lat="43.126968999999946" lon="-1.2442680000000022">
        <ele>440.844</ele>
        <time>2022-08-24T07:04:13Z</time>
      </trkpt>
      <trkpt lat="43.12696199999995" lon="-1.2442760000000022">
        <ele>441.047</ele>
        <time>2022-08-24T07:04:14Z</time>
      </trkpt>
      <trkpt lat="43.12695499999995" lon="-1.2442840000000022">
        <ele>441.081</ele>
        <time>2022-08-24T07:04:15Z</time>
      </trkpt>
      <trkpt lat="43.12694699999995" lon="-1.244288000000002">
        <ele>441.430</ele>
        <time>2022-08-24T07:04:16Z</time>
      </trkpt>
      <trkpt lat="43.12693799999995" lon="-1.2442900000000021">
        <ele>441.422</ele>
        <time>2022-08-24T07:04:17Z</time>
      </trkpt>
      <trkpt lat="43.12692699999995" lon="-1.2442890000000022">
        <ele>441.662</ele>
        <time>2022-08-24T07:04:18Z</time>
      </trkpt>
      <trkpt lat="43.12691699999995" lon="-1.2442850000000023">
        <ele>441.608</ele>
        <time>2022-08-24T07:04:19Z</time>
      </trkpt>
      <trkpt lat="43.126906999999946" lon="-1.2442750000000022">
        <ele>441.609</ele>
        <time>2022-08-24T07:04:20Z</time>
      </trkpt>
      <trkpt lat="43.12689799999995" lon="-1.2442660000000023">
        <ele>441.883</ele>
        <time>2022-08-24T07:04:21Z</time>
      </trkpt>
      <trkpt lat="43.12688899999995" lon="-1.2442580000000023">
        <ele>441.843</ele>
        <time>2022-08-24T07:04:22Z</time>
      </trkpt>
      <trkpt lat="43.12688099999995" lon="-1.2442610000000023">
        <ele>442.063</ele>
        <time>2022-08-24T07:04:23Z</time>
      </trkpt>
      <trkpt lat="43.12687399999995" lon="-1.2442660000000023">
        <ele>442.489</ele>
        <time>2022-08-24T07:04:24Z</time>
      </trkpt>
      <trkpt lat="43.126869999999954" lon="-1.2442780000000022">
        <ele>442.651</ele>
        <time>2022-08-24T07:04:25Z</time>
      </trkpt>
      <trkpt lat="43.126863999999955" lon="-1.2442900000000021">
        <ele>442.868</ele>
        <time>2022-08-24T07:04:26Z</time>
      </trkpt>
      <trkpt lat="43.12685699999996" lon="-1.244301000000002">
        <ele>443.071</ele>
        <time>2022-08-24T07:04:27Z</time>
      </trkpt>
      <trkpt lat="43.126846999999955" lon="-1.244305000000002">
        <ele>443.075</ele>
        <time>2022-08-24T07:04:28Z</time>
      </trkpt>
      <trkpt lat="43.12683799999996" lon="-1.244300000000002">
        <ele>443.294</ele>
        <time>2022-08-24T07:04:29Z</time>
      </trkpt>
      <trkpt lat="43.12682599999996" lon="-1.2442930000000019">
        <ele>443.288</ele>
        <time>2022-08-24T07:04:30Z</time>
      </trkpt>
      <trkpt lat="43.12681499999996" lon="-1.244284000000002">
        <ele>443.424</ele>
        <time>2022-08-24T07:04:31Z</time>
      </trkpt>
      <trkpt lat="43.126801999999955" lon="-1.244279000000002">
        <ele>443.426</ele>
        <time>2022-08-24T07:04:32Z</time>
      </trkpt>
      <trkpt lat="43.12678999999996" lon="-1.2442800000000018">
        <ele>443.409</ele>
        <time>2022-08-24T07:04:33Z</time>
      </trkpt>
      <trkpt lat="43.12677899999996" lon="-1.2442880000000018">
        <ele>443.679</ele>
        <time>2022-08-24T07:04:34Z</time>
      </trkpt>
      <trkpt lat="43.12676699999996" lon="-1.2442920000000017">
        <ele>443.879</ele>
        <time>2022-08-24T07:04:35Z</time>
      </trkpt>
      <trkpt lat="43.12675799999996" lon="-1.2442990000000018">
        <ele>443.879</ele>
        <time>2022-08-24T07:04:36Z</time>
      </trkpt>
      <trkpt lat="43.12674499999996" lon="-1.2443050000000018">
        <ele>444.035</ele>
        <time>2022-08-24T07:04:37Z</time>
      </trkpt>
      <trkpt lat="43.126733999999956" lon="-1.2443080000000017">
        <ele>444.267</ele>
        <time>2022-08-24T07:04:38Z</time>
      </trkpt>
      <trkpt lat="43.126722999999956" lon="-1.2443100000000018">
        <ele>444.224</ele>
        <time>2022-08-24T07:04:39Z</time>
      </trkpt>
      <trkpt lat="43.12671399999996" lon="-1.2443130000000018">
        <ele>444.487</ele>
        <time>2022-08-24T07:04:40Z</time>
      </trkpt>
      <trkpt lat="43.126703999999954" lon="-1.2443130000000018">
        <ele>444.421</ele>
        <time>2022-08-24T07:04:41Z</time>
      </trkpt>
      <trkpt lat="43.126691999999956" lon="-1.2443170000000017">
        <ele>444.890</ele>
        <time>2022-08-24T07:04:42Z</time>
      </trkpt>
      <trkpt lat="43.12667999999996" lon="-1.2443240000000018">
        <ele>445.064</ele>
        <time>2022-08-24T07:04:43Z</time>
      </trkpt>
      <trkpt lat="43.12666799999996" lon="-1.2443310000000019">
        <ele>445.206</ele>
        <time>2022-08-24T07:04:44Z</time>
      </trkpt>
      <trkpt lat="43.12665599999996" lon="-1.2443340000000018">
        <ele>445.416</ele>
        <time>2022-08-24T07:04:45Z</time>
      </trkpt>
      <trkpt lat="43.12664199999996" lon="-1.2443350000000017">
        <ele>445.409</ele>
        <time>2022-08-24T07:04:46Z</time>
      </trkpt>
      <trkpt lat="43.12663099999996" lon="-1.2443370000000018">
        <ele>445.687</ele>
        <time>2022-08-24T07:04:47Z</time>
      </trkpt>
      <trkpt lat="43.12661999999996" lon="-1.2443390000000019">
        <ele>445.637</ele>
        <time>2022-08-24T07:04:48Z</time>
      </trkpt>
      <trkpt lat="43.12660899999996" lon="-1.244341000000002">
        <ele>445.857</ele>
        <time>2022-08-24T07:04:49Z</time>
      </trkpt>
      <trkpt lat="43.12659999999996" lon="-1.2443450000000018">
        <ele>446.013</ele>
        <time>2022-08-24T07:04:50Z</time>
      </trkpt>
      <trkpt lat="43.12659099999996" lon="-1.2443500000000018">
        <ele>446.235</ele>
        <time>2022-08-24T07:04:51Z</time>
      </trkpt>
      <trkpt lat="43.12658099999996" lon="-1.2443540000000017">
        <ele>446.422</ele>
        <time>2022-08-24T07:04:52Z</time>
      </trkpt>
      <trkpt lat="43.126570999999956" lon="-1.2443560000000018">
        <ele>446.665</ele>
        <time>2022-08-24T07:04:53Z</time>
      </trkpt>
      <trkpt lat="43.12656199999996" lon="-1.2443580000000019">
        <ele>446.639</ele>
        <time>2022-08-24T07:04:54Z</time>
      </trkpt>
      <trkpt lat="43.12655099999996" lon="-1.2443580000000019">
        <ele>446.818</ele>
        <time>2022-08-24T07:04:55Z</time>
      </trkpt>
      <trkpt lat="43.12654099999995" lon="-1.2443560000000018">
        <ele>447.066</ele>
        <time>2022-08-24T07:04:56Z</time>
      </trkpt>
      <trkpt lat="43.12653099999995" lon="-1.2443540000000017">
        <ele>447.229</ele>
        <time>2022-08-24T07:04:57Z</time>
      </trkpt>
      <trkpt lat="43.12651999999995" lon="-1.2443550000000017">
        <ele>447.421</ele>
        <time>2022-08-24T07:04:58Z</time>
      </trkpt>
      <trkpt lat="43.12650899999995" lon="-1.2443570000000017">
        <ele>447.609</ele>
        <time>2022-08-24T07:04:59Z</time>
      </trkpt>
      <trkpt lat="43.12649799999995" lon="-1.2443620000000017">
        <ele>447.897</ele>
        <time>2022-08-24T07:05:00Z</time>
      </trkpt>
      <trkpt lat="43.126487999999945" lon="-1.2443690000000018">
        <ele>448.047</ele>
        <time>2022-08-24T07:05:01Z</time>
      </trkpt>
      <trkpt lat="43.12647799999994" lon="-1.2443770000000018">
        <ele>448.087</ele>
        <time>2022-08-24T07:05:02Z</time>
      </trkpt>
      <trkpt lat="43.12646799999994" lon="-1.2443820000000019">
        <ele>448.243</ele>
        <time>2022-08-24T07:05:03Z</time>
      </trkpt>
      <trkpt lat="43.126457999999936" lon="-1.2443850000000019">
        <ele>448.265</ele>
        <time>2022-08-24T07:05:04Z</time>
      </trkpt>
      <trkpt lat="43.126449999999934" lon="-1.2443890000000017">
        <ele>448.652</ele>
        <time>2022-08-24T07:05:05Z</time>
      </trkpt>
      <trkpt lat="43.126438999999934" lon="-1.2443910000000018">
        <ele>448.815</ele>
        <time>2022-08-24T07:05:06Z</time>
      </trkpt>
      <trkpt lat="43.12642899999993" lon="-1.2443970000000018">
        <ele>448.839</ele>
        <time>2022-08-24T07:05:07Z</time>
      </trkpt>
      <trkpt lat="43.12641999999993" lon="-1.2444040000000018">
        <ele>448.848</ele>
        <time>2022-08-24T07:05:08Z</time>
      </trkpt>
      <trkpt lat="43.12640899999993" lon="-1.2444090000000019">
        <ele>449.074</ele>
        <time>2022-08-24T07:05:09Z</time>
      </trkpt>
      <trkpt lat="43.12639999999993" lon="-1.2444130000000018">
        <ele>449.256</ele>
        <time>2022-08-24T07:05:10Z</time>
      </trkpt>
      <trkpt lat="43.126392999999936" lon="-1.2444160000000017">
        <ele>449.421</ele>
        <time>2022-08-24T07:05:11Z</time>
      </trkpt>
      <trkpt lat="43.12638399999994" lon="-1.2444200000000016">
        <ele>449.609</ele>
        <time>2022-08-24T07:05:12Z</time>
      </trkpt>
      <trkpt lat="43.12637699999994" lon="-1.2444270000000017">
        <ele>450.068</ele>
        <time>2022-08-24T07:05:13Z</time>
      </trkpt>
      <trkpt lat="43.12636599999994" lon="-1.2444310000000016">
        <ele>450.288</ele>
        <time>2022-08-24T07:05:14Z</time>
      </trkpt>
      <trkpt lat="43.12635399999994" lon="-1.2444350000000015">
        <ele>450.248</ele>
        <time>2022-08-24T07:05:15Z</time>
      </trkpt>
      <trkpt lat="43.12634299999994" lon="-1.2444420000000016">
        <ele>450.464</ele>
        <time>2022-08-24T07:05:16Z</time>
      </trkpt>
      <trkpt lat="43.12633299999994" lon="-1.2444490000000017">
        <ele>450.626</ele>
        <time>2022-08-24T07:05:17Z</time>
      </trkpt>
      <trkpt lat="43.12632099999994" lon="-1.2444520000000017">
        <ele>450.663</ele>
        <time>2022-08-24T07:05:18Z</time>
      </trkpt>
      <trkpt lat="43.12630899999994" lon="-1.2444570000000017">
        <ele>450.866</ele>
        <time>2022-08-24T07:05:19Z</time>
      </trkpt>
      <trkpt lat="43.12630899999994" lon="-1.2444570000000017">
        <ele>451.070</ele>
        <time>2022-08-24T07:05:20Z</time>
      </trkpt>
      <trkpt lat="43.12628899999994" lon="-1.2444680000000017">
        <ele>451.239</ele>
        <time>2022-08-24T07:05:21Z</time>
      </trkpt>
      <trkpt lat="43.12627899999994" lon="-1.2444720000000016">
        <ele>451.638</ele>
        <time>2022-08-24T07:05:22Z</time>
      </trkpt>
      <trkpt lat="43.12626899999994" lon="-1.2444790000000017">
        <ele>451.670</ele>
        <time>2022-08-24T07:05:23Z</time>
      </trkpt>
      <trkpt lat="43.12625899999993" lon="-1.2444870000000017">
        <ele>451.817</ele>
        <time>2022-08-24T07:05:24Z</time>
      </trkpt>
      <trkpt lat="43.12624899999993" lon="-1.2444930000000016">
        <ele>451.809</ele>
        <time>2022-08-24T07:05:25Z</time>
      </trkpt>
      <trkpt lat="43.12623999999993" lon="-1.2444920000000017">
        <ele>452.274</ele>
        <time>2022-08-24T07:05:26Z</time>
      </trkpt>
      <trkpt lat="43.126227999999934" lon="-1.2444930000000016">
        <ele>452.244</ele>
        <time>2022-08-24T07:05:27Z</time>
      </trkpt>
      <trkpt lat="43.12621699999993" lon="-1.2444960000000016">
        <ele>452.664</ele>
        <time>2022-08-24T07:05:28Z</time>
      </trkpt>
      <trkpt lat="43.12620699999993" lon="-1.2444990000000016">
        <ele>452.870</ele>
        <time>2022-08-24T07:05:29Z</time>
      </trkpt>
      <trkpt lat="43.12619699999993" lon="-1.2445040000000016">
        <ele>452.852</ele>
        <time>2022-08-24T07:05:30Z</time>
      </trkpt>
      <trkpt lat="43.12618699999992" lon="-1.2445100000000016">
        <ele>453.069</ele>
        <time>2022-08-24T07:05:31Z</time>
      </trkpt>
      <trkpt lat="43.12617699999992" lon="-1.2445130000000015">
        <ele>453.272</ele>
        <time>2022-08-24T07:05:32Z</time>
      </trkpt>
      <trkpt lat="43.12616699999992" lon="-1.2445180000000016">
        <ele>453.286</ele>
        <time>2022-08-24T07:05:33Z</time>
      </trkpt>
      <trkpt lat="43.12615799999992" lon="-1.2445230000000016">
        <ele>453.445</ele>
        <time>2022-08-24T07:05:34Z</time>
      </trkpt>
      <trkpt lat="43.12614899999992" lon="-1.2445300000000017">
        <ele>453.445</ele>
        <time>2022-08-24T07:05:35Z</time>
      </trkpt>
      <trkpt lat="43.12613999999992" lon="-1.2445380000000017">
        <ele>453.847</ele>
        <time>2022-08-24T07:05:36Z</time>
      </trkpt>
      <trkpt lat="43.12613099999992" lon="-1.2445460000000017">
        <ele>453.811</ele>
        <time>2022-08-24T07:05:37Z</time>
      </trkpt>
      <trkpt lat="43.12612099999992" lon="-1.2445530000000018">
        <ele>454.009</ele>
        <time>2022-08-24T07:05:38Z</time>
      </trkpt>
      <trkpt lat="43.126110999999916" lon="-1.2445580000000018">
        <ele>454.275</ele>
        <time>2022-08-24T07:05:39Z</time>
      </trkpt>
      <trkpt lat="43.12610099999991" lon="-1.2445600000000019">
        <ele>454.485</ele>
        <time>2022-08-24T07:05:40Z</time>
      </trkpt>
      <trkpt lat="43.12608999999991" lon="-1.244562000000002">
        <ele>454.685</ele>
        <time>2022-08-24T07:05:41Z</time>
      </trkpt>
      <trkpt lat="43.12608399999991" lon="-1.2445710000000019">
        <ele>454.871</ele>
        <time>2022-08-24T07:05:42Z</time>
      </trkpt>
      <trkpt lat="43.12607299999991" lon="-1.2445830000000018">
        <ele>455.023</ele>
        <time>2022-08-24T07:05:43Z</time>
      </trkpt>
      <trkpt lat="43.12606299999991" lon="-1.2445910000000018">
        <ele>455.230</ele>
        <time>2022-08-24T07:05:44Z</time>
      </trkpt>
      <trkpt lat="43.12605299999991" lon="-1.2445970000000017">
        <ele>455.443</ele>
        <time>2022-08-24T07:05:45Z</time>
      </trkpt>
      <trkpt lat="43.126041999999906" lon="-1.2446000000000017">
        <ele>455.437</ele>
        <time>2022-08-24T07:05:46Z</time>
      </trkpt>
      <trkpt lat="43.1260319999999" lon="-1.2446030000000017">
        <ele>455.666</ele>
        <time>2022-08-24T07:05:47Z</time>
      </trkpt>
      <trkpt lat="43.126019999999905" lon="-1.2446020000000018">
        <ele>455.659</ele>
        <time>2022-08-24T07:05:48Z</time>
      </trkpt>
      <trkpt lat="43.1260099999999" lon="-1.2445990000000018">
        <ele>455.803</ele>
        <time>2022-08-24T07:05:49Z</time>
      </trkpt>
      <trkpt lat="43.1259989999999" lon="-1.2445970000000017">
        <ele>456.223</ele>
        <time>2022-08-24T07:05:50Z</time>
      </trkpt>
      <trkpt lat="43.1259879999999" lon="-1.2445950000000017">
        <ele>456.209</ele>
        <time>2022-08-24T07:05:51Z</time>
      </trkpt>
      <trkpt lat="43.1259779999999" lon="-1.2445950000000017">
        <ele>456.466</ele>
        <time>2022-08-24T07:05:52Z</time>
      </trkpt>
      <trkpt lat="43.125969999999896" lon="-1.2446040000000016">
        <ele>456.466</ele>
        <time>2022-08-24T07:05:53Z</time>
      </trkpt>
      <trkpt lat="43.12595999999989" lon="-1.2446090000000016">
        <ele>456.626</ele>
        <time>2022-08-24T07:05:54Z</time>
      </trkpt>
      <trkpt lat="43.12594999999989" lon="-1.2446140000000017">
        <ele>456.842</ele>
        <time>2022-08-24T07:05:55Z</time>
      </trkpt>
      <trkpt lat="43.12594099999989" lon="-1.2446190000000017">
        <ele>457.074</ele>
        <time>2022-08-24T07:05:56Z</time>
      </trkpt>
      <trkpt lat="43.125933999999894" lon="-1.2446250000000016">
        <ele>457.441</ele>
        <time>2022-08-24T07:05:57Z</time>
      </trkpt>
      <trkpt lat="43.12592599999989" lon="-1.2446260000000016">
        <ele>457.484</ele>
        <time>2022-08-24T07:05:58Z</time>
      </trkpt>
      <trkpt lat="43.1259189999999" lon="-1.2446270000000015">
        <ele>457.648</ele>
        <time>2022-08-24T07:05:59Z</time>
      </trkpt>
      <trkpt lat="43.125910999999896" lon="-1.2446250000000014">
        <ele>457.687</ele>
        <time>2022-08-24T07:06:00Z</time>
      </trkpt>
      <trkpt lat="43.12590099999989" lon="-1.2446200000000014">
        <ele>458.052</ele>
        <time>2022-08-24T07:06:01Z</time>
      </trkpt>
      <trkpt lat="43.125891999999894" lon="-1.2446150000000014">
        <ele>458.053</ele>
        <time>2022-08-24T07:06:02Z</time>
      </trkpt>
      <trkpt lat="43.125879999999896" lon="-1.2446090000000014">
        <ele>458.208</ele>
        <time>2022-08-24T07:06:03Z</time>
      </trkpt>
      <trkpt lat="43.12586999999989" lon="-1.2446030000000015">
        <ele>458.409</ele>
        <time>2022-08-24T07:06:04Z</time>
      </trkpt>
      <trkpt lat="43.12585899999989" lon="-1.2446000000000015">
        <ele>458.436</ele>
        <time>2022-08-24T07:06:05Z</time>
      </trkpt>
      <trkpt lat="43.125846999999894" lon="-1.2446010000000014">
        <ele>458.646</ele>
        <time>2022-08-24T07:06:06Z</time>
      </trkpt>
      <trkpt lat="43.12583699999989" lon="-1.2446040000000014">
        <ele>458.876</ele>
        <time>2022-08-24T07:06:07Z</time>
      </trkpt>
      <trkpt lat="43.125829999999894" lon="-1.2446120000000014">
        <ele>459.022</ele>
        <time>2022-08-24T07:06:08Z</time>
      </trkpt>
      <trkpt lat="43.1258229999999" lon="-1.2446200000000014">
        <ele>459.244</ele>
        <time>2022-08-24T07:06:09Z</time>
      </trkpt>
      <trkpt lat="43.1258139999999" lon="-1.2446250000000014">
        <ele>459.251</ele>
        <time>2022-08-24T07:06:10Z</time>
      </trkpt>
      <trkpt lat="43.1257999999999" lon="-1.2446290000000013">
        <ele>459.424</ele>
        <time>2022-08-24T07:06:11Z</time>
      </trkpt>
      <trkpt lat="43.1257889999999" lon="-1.2446250000000014">
        <ele>459.628</ele>
        <time>2022-08-24T07:06:12Z</time>
      </trkpt>
      <trkpt lat="43.125778999999895" lon="-1.2446220000000014">
        <ele>459.817</ele>
        <time>2022-08-24T07:06:13Z</time>
      </trkpt>
      <trkpt lat="43.1257669999999" lon="-1.2446150000000014">
        <ele>460.094</ele>
        <time>2022-08-24T07:06:14Z</time>
      </trkpt>
      <trkpt lat="43.12575699999989" lon="-1.2446160000000013">
        <ele>460.257</ele>
        <time>2022-08-24T07:06:15Z</time>
      </trkpt>
      <trkpt lat="43.125747999999895" lon="-1.2446250000000012">
        <ele>460.222</ele>
        <time>2022-08-24T07:06:16Z</time>
      </trkpt>
      <trkpt lat="43.125747999999895" lon="-1.2446250000000012">
        <ele>460.409</ele>
        <time>2022-08-24T07:06:17Z</time>
      </trkpt>
      <trkpt lat="43.1257269999999" lon="-1.2446410000000012">
        <ele>460.670</ele>
        <time>2022-08-24T07:06:18Z</time>
      </trkpt>
      <trkpt lat="43.1257159999999" lon="-1.2446420000000011">
        <ele>460.880</ele>
        <time>2022-08-24T07:06:19Z</time>
      </trkpt>
      <trkpt lat="43.1257019999999" lon="-1.244646000000001">
        <ele>461.030</ele>
        <time>2022-08-24T07:06:20Z</time>
      </trkpt>
      <trkpt lat="43.125688999999895" lon="-1.244644000000001">
        <ele>461.246</ele>
        <time>2022-08-24T07:06:21Z</time>
      </trkpt>
      <trkpt lat="43.1256739999999" lon="-1.244642000000001">
        <ele>461.438</ele>
        <time>2022-08-24T07:06:22Z</time>
      </trkpt>
      <trkpt lat="43.125657999999895" lon="-1.2446400000000009">
        <ele>461.655</ele>
        <time>2022-08-24T07:06:23Z</time>
      </trkpt>
      <trkpt lat="43.1256459999999" lon="-1.2446430000000008">
        <ele>462.068</ele>
        <time>2022-08-24T07:06:24Z</time>
      </trkpt>
      <trkpt lat="43.1256309999999" lon="-1.244645000000001">
        <ele>462.662</ele>
        <time>2022-08-24T07:06:25Z</time>
      </trkpt>
      <trkpt lat="43.1256199999999" lon="-1.244644000000001">
        <ele>462.861</ele>
        <time>2022-08-24T07:06:26Z</time>
      </trkpt>
      <trkpt lat="43.1256029999999" lon="-1.244638000000001">
        <ele>463.062</ele>
        <time>2022-08-24T07:06:27Z</time>
      </trkpt>
      <trkpt lat="43.1255909999999" lon="-1.244637000000001">
        <ele>463.283</ele>
        <time>2022-08-24T07:06:28Z</time>
      </trkpt>
      <trkpt lat="43.1255769999999" lon="-1.244640000000001">
        <ele>463.411</ele>
        <time>2022-08-24T07:06:29Z</time>
      </trkpt>
      <trkpt lat="43.1255619999999" lon="-1.244649000000001">
        <ele>463.609</ele>
        <time>2022-08-24T07:06:30Z</time>
      </trkpt>
      <trkpt lat="43.125546999999905" lon="-1.244657000000001">
        <ele>463.897</ele>
        <time>2022-08-24T07:06:31Z</time>
      </trkpt>
      <trkpt lat="43.125532999999905" lon="-1.244660000000001">
        <ele>464.257</ele>
        <time>2022-08-24T07:06:32Z</time>
      </trkpt>
      <trkpt lat="43.125515999999905" lon="-1.244663000000001">
        <ele>464.427</ele>
        <time>2022-08-24T07:06:33Z</time>
      </trkpt>
      <trkpt lat="43.125501999999905" lon="-1.244665000000001">
        <ele>464.633</ele>
        <time>2022-08-24T07:06:34Z</time>
      </trkpt>
      <trkpt lat="43.12548999999991" lon="-1.244664000000001">
        <ele>465.075</ele>
        <time>2022-08-24T07:06:35Z</time>
      </trkpt>
      <trkpt lat="43.12548999999991" lon="-1.244664000000001">
        <ele>465.432</ele>
        <time>2022-08-24T07:06:36Z</time>
      </trkpt>
      <trkpt lat="43.12546699999991" lon="-1.244670000000001">
        <ele>465.655</ele>
        <time>2022-08-24T07:06:37Z</time>
      </trkpt>
      <trkpt lat="43.12545499999991" lon="-1.2446660000000012">
        <ele>466.049</ele>
        <time>2022-08-24T07:06:38Z</time>
      </trkpt>
      <trkpt lat="43.12544299999991" lon="-1.2446610000000011">
        <ele>466.218</ele>
        <time>2022-08-24T07:06:39Z</time>
      </trkpt>
      <trkpt lat="43.12543299999991" lon="-1.244664000000001">
        <ele>466.443</ele>
        <time>2022-08-24T07:06:40Z</time>
      </trkpt>
      <trkpt lat="43.12542499999991" lon="-1.244668000000001">
        <ele>466.864</ele>
        <time>2022-08-24T07:06:41Z</time>
      </trkpt>
      <trkpt lat="43.12541599999991" lon="-1.244671000000001">
        <ele>466.810</ele>
        <time>2022-08-24T07:06:42Z</time>
      </trkpt>
      <trkpt lat="43.125405999999906" lon="-1.2446750000000009">
        <ele>467.209</ele>
        <time>2022-08-24T07:06:43Z</time>
      </trkpt>
      <trkpt lat="43.12539399999991" lon="-1.244674000000001">
        <ele>467.255</ele>
        <time>2022-08-24T07:06:44Z</time>
      </trkpt>
      <trkpt lat="43.12538499999991" lon="-1.244676000000001">
        <ele>467.455</ele>
        <time>2022-08-24T07:06:45Z</time>
      </trkpt>
      <trkpt lat="43.125374999999906" lon="-1.244676000000001">
        <ele>467.685</ele>
        <time>2022-08-24T07:06:46Z</time>
      </trkpt>
      <trkpt lat="43.125366999999905" lon="-1.244676000000001">
        <ele>467.851</ele>
        <time>2022-08-24T07:06:47Z</time>
      </trkpt>
      <trkpt lat="43.12535499999991" lon="-1.244680000000001">
        <ele>468.283</ele>
        <time>2022-08-24T07:06:48Z</time>
      </trkpt>
      <trkpt lat="43.12534299999991" lon="-1.2446860000000008">
        <ele>468.460</ele>
        <time>2022-08-24T07:06:49Z</time>
      </trkpt>
      <trkpt lat="43.12532899999991" lon="-1.2446950000000008">
        <ele>468.633</ele>
        <time>2022-08-24T07:06:50Z</time>
      </trkpt>
      <trkpt lat="43.12531699999991" lon="-1.2447040000000007">
        <ele>468.837</ele>
        <time>2022-08-24T07:06:51Z</time>
      </trkpt>
      <trkpt lat="43.12530699999991" lon="-1.2447090000000007">
        <ele>469.076</ele>
        <time>2022-08-24T07:06:52Z</time>
      </trkpt>
      <trkpt lat="43.125293999999904" lon="-1.2447100000000006">
        <ele>469.224</ele>
        <time>2022-08-24T07:06:53Z</time>
      </trkpt>
      <trkpt lat="43.125282999999904" lon="-1.2447120000000007">
        <ele>469.204</ele>
        <time>2022-08-24T07:06:54Z</time>
      </trkpt>
      <trkpt lat="43.1252729999999" lon="-1.2447140000000008">
        <ele>469.414</ele>
        <time>2022-08-24T07:06:55Z</time>
      </trkpt>
      <trkpt lat="43.1252619999999" lon="-1.2447160000000008">
        <ele>469.609</ele>
        <time>2022-08-24T07:06:56Z</time>
      </trkpt>
      <trkpt lat="43.1252509999999" lon="-1.244715000000001">
        <ele>469.643</ele>
        <time>2022-08-24T07:06:57Z</time>
      </trkpt>
      <trkpt lat="43.125240999999896" lon="-1.244711000000001">
        <ele>469.833</ele>
        <time>2022-08-24T07:06:58Z</time>
      </trkpt>
      <trkpt lat="43.12523099999989" lon="-1.244706000000001">
        <ele>470.073</ele>
        <time>2022-08-24T07:06:59Z</time>
      </trkpt>
      <trkpt lat="43.12522099999989" lon="-1.2446990000000009">
        <ele>470.239</ele>
        <time>2022-08-24T07:07:00Z</time>
      </trkpt>
      <trkpt lat="43.12521099999989" lon="-1.2446910000000009">
        <ele>470.471</ele>
        <time>2022-08-24T07:07:01Z</time>
      </trkpt>
      <trkpt lat="43.125199999999886" lon="-1.244688000000001">
        <ele>470.648</ele>
        <time>2022-08-24T07:07:02Z</time>
      </trkpt>
      <trkpt lat="43.125188999999885" lon="-1.244685000000001">
        <ele>470.631</ele>
        <time>2022-08-24T07:07:03Z</time>
      </trkpt>
      <trkpt lat="43.125177999999885" lon="-1.2446860000000008">
        <ele>470.875</ele>
        <time>2022-08-24T07:07:04Z</time>
      </trkpt>
      <trkpt lat="43.12517099999989" lon="-1.2446910000000009">
        <ele>471.084</ele>
        <time>2022-08-24T07:07:05Z</time>
      </trkpt>
      <trkpt lat="43.125165999999886" lon="-1.2446940000000009">
        <ele>471.434</ele>
        <time>2022-08-24T07:07:06Z</time>
      </trkpt>
      <trkpt lat="43.12515899999989" lon="-1.2446970000000008">
        <ele>471.655</ele>
        <time>2022-08-24T07:07:07Z</time>
      </trkpt>
      <trkpt lat="43.12514599999989" lon="-1.2446980000000007">
        <ele>471.610</ele>
        <time>2022-08-24T07:07:08Z</time>
      </trkpt>
      <trkpt lat="43.12513199999989" lon="-1.2447020000000006">
        <ele>471.809</ele>
        <time>2022-08-24T07:07:09Z</time>
      </trkpt>
      <trkpt lat="43.125121999999884" lon="-1.2447020000000006">
        <ele>472.044</ele>
        <time>2022-08-24T07:07:10Z</time>
      </trkpt>
      <trkpt lat="43.125112999999885" lon="-1.2447040000000007">
        <ele>472.434</ele>
        <time>2022-08-24T07:07:11Z</time>
      </trkpt>
      <trkpt lat="43.12510399999989" lon="-1.2447100000000006">
        <ele>472.464</ele>
        <time>2022-08-24T07:07:12Z</time>
      </trkpt>
      <trkpt lat="43.12509199999989" lon="-1.2447140000000005">
        <ele>472.890</ele>
        <time>2022-08-24T07:07:13Z</time>
      </trkpt>
      <trkpt lat="43.125081999999885" lon="-1.2447180000000004">
        <ele>473.022</ele>
        <time>2022-08-24T07:07:14Z</time>
      </trkpt>
      <trkpt lat="43.12506999999989" lon="-1.2447190000000004">
        <ele>473.229</ele>
        <time>2022-08-24T07:07:15Z</time>
      </trkpt>
      <trkpt lat="43.12505899999989" lon="-1.2447180000000004">
        <ele>473.282</ele>
        <time>2022-08-24T07:07:16Z</time>
      </trkpt>
      <trkpt lat="43.12504699999989" lon="-1.2447100000000004">
        <ele>473.466</ele>
        <time>2022-08-24T07:07:17Z</time>
      </trkpt>
      <trkpt lat="43.12503299999989" lon="-1.2447070000000005">
        <ele>473.685</ele>
        <time>2022-08-24T07:07:18Z</time>
      </trkpt>
      <trkpt lat="43.12501899999989" lon="-1.2447060000000005">
        <ele>473.839</ele>
        <time>2022-08-24T07:07:19Z</time>
      </trkpt>
      <trkpt lat="43.12500999999989" lon="-1.2447090000000005">
        <ele>473.801</ele>
        <time>2022-08-24T07:07:20Z</time>
      </trkpt>
      <trkpt lat="43.12500199999989" lon="-1.2447090000000005">
        <ele>474.221</ele>
        <time>2022-08-24T07:07:21Z</time>
      </trkpt>
      <trkpt lat="43.12499499999989" lon="-1.2447080000000006">
        <ele>474.409</ele>
        <time>2022-08-24T07:07:22Z</time>
      </trkpt>
      <trkpt lat="43.124987999999895" lon="-1.2447030000000006">
        <ele>474.684</ele>
        <time>2022-08-24T07:07:23Z</time>
      </trkpt>
      <trkpt lat="43.12497799999989" lon="-1.2446960000000005">
        <ele>474.654</ele>
        <time>2022-08-24T07:07:24Z</time>
      </trkpt>
      <trkpt lat="43.12496399999989" lon="-1.2446940000000004">
        <ele>475.034</ele>
        <time>2022-08-24T07:07:25Z</time>
      </trkpt>
      <trkpt lat="43.124951999999894" lon="-1.2446990000000004">
        <ele>475.070</ele>
        <time>2022-08-24T07:07:26Z</time>
      </trkpt>
      <trkpt lat="43.12494099999989" lon="-1.2447040000000005">
        <ele>475.442</ele>
        <time>2022-08-24T07:07:27Z</time>
      </trkpt>
      <trkpt lat="43.12494099999989" lon="-1.2447040000000005">
        <ele>475.889</ele>
        <time>2022-08-24T07:07:28Z</time>
      </trkpt>
      <trkpt lat="43.12491899999989" lon="-1.2447190000000006">
        <ele>476.012</ele>
        <time>2022-08-24T07:07:29Z</time>
      </trkpt>
      <trkpt lat="43.12490899999989" lon="-1.2447250000000005">
        <ele>476.296</ele>
        <time>2022-08-24T07:07:30Z</time>
      </trkpt>
      <trkpt lat="43.12489999999989" lon="-1.2447320000000006">
        <ele>476.475</ele>
        <time>2022-08-24T07:07:31Z</time>
      </trkpt>
      <trkpt lat="43.12489199999989" lon="-1.2447420000000007">
        <ele>476.843</ele>
        <time>2022-08-24T07:07:32Z</time>
      </trkpt>
      <trkpt lat="43.12488399999989" lon="-1.2447520000000007">
        <ele>476.864</ele>
        <time>2022-08-24T07:07:33Z</time>
      </trkpt>
      <trkpt lat="43.124873999999885" lon="-1.2447600000000008">
        <ele>477.010</ele>
        <time>2022-08-24T07:07:34Z</time>
      </trkpt>
      <trkpt lat="43.124864999999886" lon="-1.2447630000000007">
        <ele>477.009</ele>
        <time>2022-08-24T07:07:35Z</time>
      </trkpt>
      <trkpt lat="43.12485599999989" lon="-1.2447670000000006">
        <ele>477.245</ele>
        <time>2022-08-24T07:07:36Z</time>
      </trkpt>
      <trkpt lat="43.124845999999884" lon="-1.2447740000000007">
        <ele>477.475</ele>
        <time>2022-08-24T07:07:37Z</time>
      </trkpt>
      <trkpt lat="43.124836999999886" lon="-1.2447820000000007">
        <ele>477.425</ele>
        <time>2022-08-24T07:07:38Z</time>
      </trkpt>
      <trkpt lat="43.124828999999885" lon="-1.2447870000000008">
        <ele>477.831</ele>
        <time>2022-08-24T07:07:39Z</time>
      </trkpt>
      <trkpt lat="43.12481899999988" lon="-1.2447910000000006">
        <ele>478.023</ele>
        <time>2022-08-24T07:07:40Z</time>
      </trkpt>
      <trkpt lat="43.12480599999988" lon="-1.2447950000000005">
        <ele>478.250</ele>
        <time>2022-08-24T07:07:41Z</time>
      </trkpt>
      <trkpt lat="43.124795999999876" lon="-1.2448010000000005">
        <ele>478.433</ele>
        <time>2022-08-24T07:07:42Z</time>
      </trkpt>
      <trkpt lat="43.124784999999875" lon="-1.2448040000000005">
        <ele>478.427</ele>
        <time>2022-08-24T07:07:43Z</time>
      </trkpt>
      <trkpt lat="43.124773999999874" lon="-1.2448010000000005">
        <ele>478.496</ele>
        <time>2022-08-24T07:07:44Z</time>
      </trkpt>
      <trkpt lat="43.124764999999876" lon="-1.2447970000000006">
        <ele>478.613</ele>
        <time>2022-08-24T07:07:45Z</time>
      </trkpt>
      <trkpt lat="43.12475299999988" lon="-1.2448030000000005">
        <ele>479.043</ele>
        <time>2022-08-24T07:07:46Z</time>
      </trkpt>
      <trkpt lat="43.124739999999875" lon="-1.2448120000000005">
        <ele>479.007</ele>
        <time>2022-08-24T07:07:47Z</time>
      </trkpt>
      <trkpt lat="43.12472499999988" lon="-1.2448190000000006">
        <ele>479.209</ele>
        <time>2022-08-24T07:07:48Z</time>
      </trkpt>
      <trkpt lat="43.12471399999988" lon="-1.2448270000000006">
        <ele>479.482</ele>
        <time>2022-08-24T07:07:49Z</time>
      </trkpt>
      <trkpt lat="43.12470499999988" lon="-1.2448390000000005">
        <ele>479.412</ele>
        <time>2022-08-24T07:07:50Z</time>
      </trkpt>
      <trkpt lat="43.12469699999988" lon="-1.2448490000000005">
        <ele>479.872</ele>
        <time>2022-08-24T07:07:51Z</time>
      </trkpt>
      <trkpt lat="43.124688999999876" lon="-1.2448570000000005">
        <ele>479.898</ele>
        <time>2022-08-24T07:07:52Z</time>
      </trkpt>
      <trkpt lat="43.124680999999875" lon="-1.2448630000000005">
        <ele>480.010</ele>
        <time>2022-08-24T07:07:53Z</time>
      </trkpt>
      <trkpt lat="43.124671999999876" lon="-1.2448660000000005">
        <ele>480.257</ele>
        <time>2022-08-24T07:07:54Z</time>
      </trkpt>
      <trkpt lat="43.12466299999988" lon="-1.2448670000000004">
        <ele>480.230</ele>
        <time>2022-08-24T07:07:55Z</time>
      </trkpt>
      <trkpt lat="43.12465199999988" lon="-1.2448670000000004">
        <ele>480.254</ele>
        <time>2022-08-24T07:07:56Z</time>
      </trkpt>
      <trkpt lat="43.124641999999874" lon="-1.2448690000000004">
        <ele>480.453</ele>
        <time>2022-08-24T07:07:57Z</time>
      </trkpt>
      <trkpt lat="43.12463099999987" lon="-1.2448740000000005">
        <ele>480.472</ele>
        <time>2022-08-24T07:07:58Z</time>
      </trkpt>
      <trkpt lat="43.124624999999874" lon="-1.2448810000000006">
        <ele>480.613</ele>
        <time>2022-08-24T07:07:59Z</time>
      </trkpt>
      <trkpt lat="43.124615999999875" lon="-1.2448910000000006">
        <ele>480.614</ele>
        <time>2022-08-24T07:08:00Z</time>
      </trkpt>
      <trkpt lat="43.12460699999988" lon="-1.2449000000000006">
        <ele>480.809</ele>
        <time>2022-08-24T07:08:01Z</time>
      </trkpt>
      <trkpt lat="43.12459799999988" lon="-1.2449080000000006">
        <ele>480.868</ele>
        <time>2022-08-24T07:08:02Z</time>
      </trkpt>
      <trkpt lat="43.12458699999988" lon="-1.2449150000000007">
        <ele>481.028</ele>
        <time>2022-08-24T07:08:03Z</time>
      </trkpt>
      <trkpt lat="43.124576999999874" lon="-1.2449200000000007">
        <ele>481.028</ele>
        <time>2022-08-24T07:08:04Z</time>
      </trkpt>
      <trkpt lat="43.124567999999876" lon="-1.2449240000000006">
        <ele>481.264</ele>
        <time>2022-08-24T07:08:05Z</time>
      </trkpt>
      <trkpt lat="43.12455899999988" lon="-1.2449260000000006">
        <ele>481.256</ele>
        <time>2022-08-24T07:08:06Z</time>
      </trkpt>
      <trkpt lat="43.12454699999988" lon="-1.2449220000000008">
        <ele>481.413</ele>
        <time>2022-08-24T07:08:07Z</time>
      </trkpt>
      <trkpt lat="43.124533999999876" lon="-1.2449220000000008">
        <ele>481.656</ele>
        <time>2022-08-24T07:08:08Z</time>
      </trkpt>
      <trkpt lat="43.12452099999987" lon="-1.2449210000000008">
        <ele>481.620</ele>
        <time>2022-08-24T07:08:09Z</time>
      </trkpt>
      <trkpt lat="43.124508999999875" lon="-1.2449240000000008">
        <ele>482.079</ele>
        <time>2022-08-24T07:08:10Z</time>
      </trkpt>
      <trkpt lat="43.12449599999987" lon="-1.2449270000000008">
        <ele>482.027</ele>
        <time>2022-08-24T07:08:11Z</time>
      </trkpt>
      <trkpt lat="43.124486999999874" lon="-1.2449260000000009">
        <ele>482.268</ele>
        <time>2022-08-24T07:08:12Z</time>
      </trkpt>
      <trkpt lat="43.12447699999987" lon="-1.2449270000000008">
        <ele>482.414</ele>
        <time>2022-08-24T07:08:13Z</time>
      </trkpt>
      <trkpt lat="43.12446799999987" lon="-1.2449290000000008">
        <ele>482.609</ele>
        <time>2022-08-24T07:08:14Z</time>
      </trkpt>
      <trkpt lat="43.12445799999987" lon="-1.2449320000000008">
        <ele>482.893</ele>
        <time>2022-08-24T07:08:15Z</time>
      </trkpt>
      <trkpt lat="43.12444599999987" lon="-1.2449360000000007">
        <ele>483.093</ele>
        <time>2022-08-24T07:08:16Z</time>
      </trkpt>
      <trkpt lat="43.12443599999987" lon="-1.2449400000000006">
        <ele>483.223</ele>
        <time>2022-08-24T07:08:17Z</time>
      </trkpt>
      <trkpt lat="43.12442899999987" lon="-1.2449430000000006">
        <ele>483.429</ele>
        <time>2022-08-24T07:08:18Z</time>
      </trkpt>
      <trkpt lat="43.12441899999987" lon="-1.2449450000000006">
        <ele>483.841</ele>
        <time>2022-08-24T07:08:19Z</time>
      </trkpt>
      <trkpt lat="43.124408999999865" lon="-1.2449450000000006">
        <ele>483.858</ele>
        <time>2022-08-24T07:08:20Z</time>
      </trkpt>
      <trkpt lat="43.12439899999986" lon="-1.2449450000000006">
        <ele>484.051</ele>
        <time>2022-08-24T07:08:21Z</time>
      </trkpt>
      <trkpt lat="43.124386999999864" lon="-1.2449470000000007">
        <ele>484.255</ele>
        <time>2022-08-24T07:08:22Z</time>
      </trkpt>
      <trkpt lat="43.124371999999866" lon="-1.2449500000000007">
        <ele>484.224</ele>
        <time>2022-08-24T07:08:23Z</time>
      </trkpt>
      <trkpt lat="43.12435999999987" lon="-1.2449570000000008">
        <ele>484.623</ele>
        <time>2022-08-24T07:08:24Z</time>
      </trkpt>
      <trkpt lat="43.12434899999987" lon="-1.2449580000000007">
        <ele>484.683</ele>
        <time>2022-08-24T07:08:25Z</time>
      </trkpt>
      <trkpt lat="43.12433699999987" lon="-1.2449590000000006">
        <ele>485.011</ele>
        <time>2022-08-24T07:08:26Z</time>
      </trkpt>
      <trkpt lat="43.12432899999987" lon="-1.2449610000000007">
        <ele>485.009</ele>
        <time>2022-08-24T07:08:27Z</time>
      </trkpt>
      <trkpt lat="43.12432099999987" lon="-1.2449640000000006">
        <ele>485.483</ele>
        <time>2022-08-24T07:08:28Z</time>
      </trkpt>
      <trkpt lat="43.124312999999866" lon="-1.2449640000000006">
        <ele>485.843</ele>
        <time>2022-08-24T07:08:29Z</time>
      </trkpt>
      <trkpt lat="43.12430299999986" lon="-1.2449650000000005">
        <ele>485.883</ele>
        <time>2022-08-24T07:08:30Z</time>
      </trkpt>
      <trkpt lat="43.124290999999864" lon="-1.2449660000000005">
        <ele>486.069</ele>
        <time>2022-08-24T07:08:31Z</time>
      </trkpt>
      <trkpt lat="43.124281999999866" lon="-1.2449690000000004">
        <ele>486.241</ele>
        <time>2022-08-24T07:08:32Z</time>
      </trkpt>
      <trkpt lat="43.124273999999865" lon="-1.2449730000000003">
        <ele>486.698</ele>
        <time>2022-08-24T07:08:33Z</time>
      </trkpt>
      <trkpt lat="43.124265999999864" lon="-1.2449790000000003">
        <ele>487.051</ele>
        <time>2022-08-24T07:08:34Z</time>
      </trkpt>
      <trkpt lat="43.12425799999986" lon="-1.2449890000000003">
        <ele>487.475</ele>
        <time>2022-08-24T07:08:35Z</time>
      </trkpt>
      <trkpt lat="43.12424999999986" lon="-1.2450000000000003">
        <ele>487.694</ele>
        <time>2022-08-24T07:08:36Z</time>
      </trkpt>
      <trkpt lat="43.12424199999986" lon="-1.2450060000000003">
        <ele>487.685</ele>
        <time>2022-08-24T07:08:37Z</time>
      </trkpt>
      <trkpt lat="43.12423699999986" lon="-1.2450100000000002">
        <ele>487.889</ele>
        <time>2022-08-24T07:08:38Z</time>
      </trkpt>
      <trkpt lat="43.12422999999986" lon="-1.2450170000000003">
        <ele>488.017</ele>
        <time>2022-08-24T07:08:39Z</time>
      </trkpt>
      <trkpt lat="43.124220999999864" lon="-1.2450280000000002">
        <ele>488.009</ele>
        <time>2022-08-24T07:08:40Z</time>
      </trkpt>
      <trkpt lat="43.12421099999986" lon="-1.2450390000000002">
        <ele>488.269</ele>
        <time>2022-08-24T07:08:41Z</time>
      </trkpt>
      <trkpt lat="43.12419999999986" lon="-1.2450440000000003">
        <ele>488.669</ele>
        <time>2022-08-24T07:08:42Z</time>
      </trkpt>
      <trkpt lat="43.12418499999986" lon="-1.2450520000000003">
        <ele>488.879</ele>
        <time>2022-08-24T07:08:43Z</time>
      </trkpt>
      <trkpt lat="43.124169999999864" lon="-1.2450550000000002">
        <ele>489.025</ele>
        <time>2022-08-24T07:08:44Z</time>
      </trkpt>
      <trkpt lat="43.124155999999864" lon="-1.2450580000000002">
        <ele>489.687</ele>
        <time>2022-08-24T07:08:45Z</time>
      </trkpt>
      <trkpt lat="43.124146999999866" lon="-1.2450620000000001">
        <ele>489.824</ele>
        <time>2022-08-24T07:08:46Z</time>
      </trkpt>
      <trkpt lat="43.12413799999987" lon="-1.2450640000000002">
        <ele>490.097</ele>
        <time>2022-08-24T07:08:47Z</time>
      </trkpt>
      <trkpt lat="43.12412899999987" lon="-1.2450670000000001">
        <ele>490.211</ele>
        <time>2022-08-24T07:08:48Z</time>
      </trkpt>
      <trkpt lat="43.12411799999987" lon="-1.245071">
        <ele>490.230</ele>
        <time>2022-08-24T07:08:49Z</time>
      </trkpt>
      <trkpt lat="43.124104999999865" lon="-1.245068">
        <ele>490.624</ele>
        <time>2022-08-24T07:08:50Z</time>
      </trkpt>
      <trkpt lat="43.124090999999865" lon="-1.2450620000000001">
        <ele>490.604</ele>
        <time>2022-08-24T07:08:51Z</time>
      </trkpt>
      <trkpt lat="43.12407899999987" lon="-1.245055">
        <ele>490.814</ele>
        <time>2022-08-24T07:08:52Z</time>
      </trkpt>
      <trkpt lat="43.12406999999987" lon="-1.2450510000000001">
        <ele>490.809</ele>
        <time>2022-08-24T07:08:53Z</time>
      </trkpt>
      <trkpt lat="43.124059999999865" lon="-1.2450450000000002">
        <ele>491.033</ele>
        <time>2022-08-24T07:08:54Z</time>
      </trkpt>
      <trkpt lat="43.12404799999987" lon="-1.2450450000000002">
        <ele>491.223</ele>
        <time>2022-08-24T07:08:55Z</time>
      </trkpt>
      <trkpt lat="43.124036999999866" lon="-1.2450520000000003">
        <ele>491.683</ele>
        <time>2022-08-24T07:08:56Z</time>
      </trkpt>
      <trkpt lat="43.12402799999987" lon="-1.2450580000000002">
        <ele>491.819</ele>
        <time>2022-08-24T07:08:57Z</time>
      </trkpt>
      <trkpt lat="43.12402199999987" lon="-1.2450560000000002">
        <ele>492.081</ele>
        <time>2022-08-24T07:08:58Z</time>
      </trkpt>
      <trkpt lat="43.12401599999987" lon="-1.2450500000000002">
        <ele>492.438</ele>
        <time>2022-08-24T07:08:59Z</time>
      </trkpt>
      <trkpt lat="43.124005999999866" lon="-1.2450420000000002">
        <ele>492.431</ele>
        <time>2022-08-24T07:09:00Z</time>
      </trkpt>
      <trkpt lat="43.12399699999987" lon="-1.2450360000000003">
        <ele>492.845</ele>
        <time>2022-08-24T07:09:01Z</time>
      </trkpt>
      <trkpt lat="43.12398799999987" lon="-1.2450280000000002">
        <ele>493.074</ele>
        <time>2022-08-24T07:09:02Z</time>
      </trkpt>
      <trkpt lat="43.123977999999866" lon="-1.2450240000000004">
        <ele>493.243</ele>
        <time>2022-08-24T07:09:03Z</time>
      </trkpt>
      <trkpt lat="43.12396499999986" lon="-1.2450220000000003">
        <ele>493.464</ele>
        <time>2022-08-24T07:09:04Z</time>
      </trkpt>
      <trkpt lat="43.12395499999986" lon="-1.2450210000000004">
        <ele>493.610</ele>
        <time>2022-08-24T07:09:05Z</time>
      </trkpt>
      <trkpt lat="43.12394499999986" lon="-1.2450180000000004">
        <ele>493.809</ele>
        <time>2022-08-24T07:09:06Z</time>
      </trkpt>
      <trkpt lat="43.123931999999854" lon="-1.2450140000000005">
        <ele>494.255</ele>
        <time>2022-08-24T07:09:07Z</time>
      </trkpt>
      <trkpt lat="43.12391899999985" lon="-1.2450100000000006">
        <ele>494.445</ele>
        <time>2022-08-24T07:09:08Z</time>
      </trkpt>
      <trkpt lat="43.12390599999985" lon="-1.2450050000000006">
        <ele>494.685</ele>
        <time>2022-08-24T07:09:09Z</time>
      </trkpt>
      <trkpt lat="43.123895999999846" lon="-1.2450000000000006">
        <ele>494.861</ele>
        <time>2022-08-24T07:09:10Z</time>
      </trkpt>
      <trkpt lat="43.12388399999985" lon="-1.2449930000000005">
        <ele>495.063</ele>
        <time>2022-08-24T07:09:11Z</time>
      </trkpt>
      <trkpt lat="43.123873999999844" lon="-1.2449850000000005">
        <ele>495.050</ele>
        <time>2022-08-24T07:09:12Z</time>
      </trkpt>
      <trkpt lat="43.123864999999846" lon="-1.2449770000000004">
        <ele>495.213</ele>
        <time>2022-08-24T07:09:13Z</time>
      </trkpt>
      <trkpt lat="43.123859999999844" lon="-1.2449640000000004">
        <ele>495.687</ele>
        <time>2022-08-24T07:09:14Z</time>
      </trkpt>
      <trkpt lat="43.12385499999984" lon="-1.2449510000000004">
        <ele>495.816</ele>
        <time>2022-08-24T07:09:15Z</time>
      </trkpt>
      <trkpt lat="43.12384999999984" lon="-1.2449400000000004">
        <ele>496.024</ele>
        <time>2022-08-24T07:09:16Z</time>
      </trkpt>
      <trkpt lat="43.12384199999984" lon="-1.2449360000000005">
        <ele>496.404</ele>
        <time>2022-08-24T07:09:17Z</time>
      </trkpt>
      <trkpt lat="43.12383599999984" lon="-1.2449340000000004">
        <ele>496.614</ele>
        <time>2022-08-24T07:09:18Z</time>
      </trkpt>
      <trkpt lat="43.12382799999984" lon="-1.2449300000000005">
        <ele>496.809</ele>
        <time>2022-08-24T07:09:19Z</time>
      </trkpt>
      <trkpt lat="43.12381899999984" lon="-1.2449290000000006">
        <ele>497.063</ele>
        <time>2022-08-24T07:09:20Z</time>
      </trkpt>
      <trkpt lat="43.123811999999845" lon="-1.2449230000000007">
        <ele>497.273</ele>
        <time>2022-08-24T07:09:21Z</time>
      </trkpt>
      <trkpt lat="43.123802999999846" lon="-1.2449210000000006">
        <ele>497.423</ele>
        <time>2022-08-24T07:09:22Z</time>
      </trkpt>
      <trkpt lat="43.12379599999985" lon="-1.2449170000000007">
        <ele>497.689</ele>
        <time>2022-08-24T07:09:23Z</time>
      </trkpt>
      <trkpt lat="43.12378799999985" lon="-1.2449170000000007">
        <ele>497.861</ele>
        <time>2022-08-24T07:09:24Z</time>
      </trkpt>
      <trkpt lat="43.12378499999985" lon="-1.2449130000000008">
        <ele>498.278</ele>
        <time>2022-08-24T07:09:25Z</time>
      </trkpt>
      <trkpt lat="43.12377899999985" lon="-1.244909000000001">
        <ele>498.241</ele>
        <time>2022-08-24T07:09:26Z</time>
      </trkpt>
      <trkpt lat="43.12376999999985" lon="-1.244906000000001">
        <ele>498.435</ele>
        <time>2022-08-24T07:09:27Z</time>
      </trkpt>
      <trkpt lat="43.12376199999985" lon="-1.244901000000001">
        <ele>498.454</ele>
        <time>2022-08-24T07:09:28Z</time>
      </trkpt>
      <trkpt lat="43.12375399999985" lon="-1.244901000000001">
        <ele>498.678</ele>
        <time>2022-08-24T07:09:29Z</time>
      </trkpt>
      <trkpt lat="43.12374699999985" lon="-1.244896000000001">
        <ele>498.833</ele>
        <time>2022-08-24T07:09:30Z</time>
      </trkpt>
      <trkpt lat="43.123739999999856" lon="-1.2448880000000009">
        <ele>498.826</ele>
        <time>2022-08-24T07:09:31Z</time>
      </trkpt>
      <trkpt lat="43.12372999999985" lon="-1.244887000000001">
        <ele>499.009</ele>
        <time>2022-08-24T07:09:32Z</time>
      </trkpt>
      <trkpt lat="43.123720999999854" lon="-1.244884000000001">
        <ele>499.268</ele>
        <time>2022-08-24T07:09:33Z</time>
      </trkpt>
      <trkpt lat="43.123711999999855" lon="-1.244878000000001">
        <ele>499.448</ele>
        <time>2022-08-24T07:09:34Z</time>
      </trkpt>
      <trkpt lat="43.12369999999986" lon="-1.2448740000000011">
        <ele>499.638</ele>
        <time>2022-08-24T07:09:35Z</time>
      </trkpt>
      <trkpt lat="43.12368899999986" lon="-1.2448710000000012">
        <ele>499.874</ele>
        <time>2022-08-24T07:09:36Z</time>
      </trkpt>
      <trkpt lat="43.12367699999986" lon="-1.2448690000000011">
        <ele>499.876</ele>
        <time>2022-08-24T07:09:37Z</time>
      </trkpt>
      <trkpt lat="43.123666999999855" lon="-1.2448660000000011">
        <ele>500.213</ele>
        <time>2022-08-24T07:09:38Z</time>
      </trkpt>
      <trkpt lat="43.12365799999986" lon="-1.2448600000000012">
        <ele>500.446</ele>
        <time>2022-08-24T07:09:39Z</time>
      </trkpt>
      <trkpt lat="43.12364599999986" lon="-1.2448580000000011">
        <ele>500.420</ele>
        <time>2022-08-24T07:09:40Z</time>
      </trkpt>
      <trkpt lat="43.123635999999856" lon="-1.244856000000001">
        <ele>500.829</ele>
        <time>2022-08-24T07:09:41Z</time>
      </trkpt>
      <trkpt lat="43.12362599999985" lon="-1.244856000000001">
        <ele>501.075</ele>
        <time>2022-08-24T07:09:42Z</time>
      </trkpt>
      <trkpt lat="43.12361599999985" lon="-1.2448520000000012">
        <ele>501.228</ele>
        <time>2022-08-24T07:09:43Z</time>
      </trkpt>
      <trkpt lat="43.12360499999985" lon="-1.244845000000001">
        <ele>501.620</ele>
        <time>2022-08-24T07:09:44Z</time>
      </trkpt>
      <trkpt lat="43.12359799999985" lon="-1.244838000000001">
        <ele>501.809</ele>
        <time>2022-08-24T07:09:45Z</time>
      </trkpt>
      <trkpt lat="43.123590999999855" lon="-1.244827000000001">
        <ele>502.258</ele>
        <time>2022-08-24T07:09:46Z</time>
      </trkpt>
      <trkpt lat="43.12358099999985" lon="-1.244817000000001">
        <ele>502.458</ele>
        <time>2022-08-24T07:09:47Z</time>
      </trkpt>
      <trkpt lat="43.12356799999985" lon="-1.244809000000001">
        <ele>502.668</ele>
        <time>2022-08-24T07:09:48Z</time>
      </trkpt>
      <trkpt lat="43.12354999999985" lon="-1.244806000000001">
        <ele>502.664</ele>
        <time>2022-08-24T07:09:49Z</time>
      </trkpt>
      <trkpt lat="43.123531999999855" lon="-1.244808000000001">
        <ele>503.016</ele>
        <time>2022-08-24T07:09:50Z</time>
      </trkpt>
      <trkpt lat="43.123517999999855" lon="-1.244809000000001">
        <ele>503.243</ele>
        <time>2022-08-24T07:09:51Z</time>
      </trkpt>
      <trkpt lat="43.123506999999854" lon="-1.2448070000000009">
        <ele>503.416</ele>
        <time>2022-08-24T07:09:52Z</time>
      </trkpt>
      <trkpt lat="43.12349699999985" lon="-1.244803000000001">
        <ele>503.680</ele>
        <time>2022-08-24T07:09:53Z</time>
      </trkpt>
      <trkpt lat="43.12348499999985" lon="-1.244803000000001">
        <ele>503.619</ele>
        <time>2022-08-24T07:09:54Z</time>
      </trkpt>
      <trkpt lat="43.12347399999985" lon="-1.244803000000001">
        <ele>504.044</ele>
        <time>2022-08-24T07:09:55Z</time>
      </trkpt>
      <trkpt lat="43.123461999999854" lon="-1.244798000000001">
        <ele>504.005</ele>
        <time>2022-08-24T07:09:56Z</time>
      </trkpt>
      <trkpt lat="43.12345199999985" lon="-1.244797000000001">
        <ele>504.415</ele>
        <time>2022-08-24T07:09:57Z</time>
      </trkpt>
      <trkpt lat="43.12344199999985" lon="-1.244795000000001">
        <ele>504.609</ele>
        <time>2022-08-24T07:09:58Z</time>
      </trkpt>
      <trkpt lat="43.12343499999985" lon="-1.244788000000001">
        <ele>504.875</ele>
        <time>2022-08-24T07:09:59Z</time>
      </trkpt>
      <trkpt lat="43.12342599999985" lon="-1.244785000000001">
        <ele>505.085</ele>
        <time>2022-08-24T07:10:00Z</time>
      </trkpt>
      <trkpt lat="43.12341599999985" lon="-1.244782000000001">
        <ele>505.295</ele>
        <time>2022-08-24T07:10:01Z</time>
      </trkpt>
      <trkpt lat="43.12340599999985" lon="-1.244778000000001">
        <ele>505.451</ele>
        <time>2022-08-24T07:10:02Z</time>
      </trkpt>
      <trkpt lat="43.12339599999984" lon="-1.244771000000001">
        <ele>505.433</ele>
        <time>2022-08-24T07:10:03Z</time>
      </trkpt>
      <trkpt lat="43.123386999999845" lon="-1.244767000000001">
        <ele>505.850</ele>
        <time>2022-08-24T07:10:04Z</time>
      </trkpt>
      <trkpt lat="43.123378999999844" lon="-1.2447660000000011">
        <ele>506.043</ele>
        <time>2022-08-24T07:10:05Z</time>
      </trkpt>
      <trkpt lat="43.123369999999845" lon="-1.2447630000000012">
        <ele>506.287</ele>
        <time>2022-08-24T07:10:06Z</time>
      </trkpt>
      <trkpt lat="43.123369999999845" lon="-1.2447630000000012">
        <ele>506.456</ele>
        <time>2022-08-24T07:10:07Z</time>
      </trkpt>
      <trkpt lat="43.123349999999846" lon="-1.244753000000001">
        <ele>506.488</ele>
        <time>2022-08-24T07:10:08Z</time>
      </trkpt>
      <trkpt lat="43.123341999999845" lon="-1.244751000000001">
        <ele>506.824</ele>
        <time>2022-08-24T07:10:09Z</time>
      </trkpt>
      <trkpt lat="43.12333399999984" lon="-1.2447500000000011">
        <ele>506.826</ele>
        <time>2022-08-24T07:10:10Z</time>
      </trkpt>
      <trkpt lat="43.12332699999985" lon="-1.2447490000000012">
        <ele>507.009</ele>
        <time>2022-08-24T07:10:11Z</time>
      </trkpt>
      <trkpt lat="43.12331799999985" lon="-1.2447460000000012">
        <ele>507.489</ele>
        <time>2022-08-24T07:10:12Z</time>
      </trkpt>
      <trkpt lat="43.12330999999985" lon="-1.2447420000000013">
        <ele>507.479</ele>
        <time>2022-08-24T07:10:13Z</time>
      </trkpt>
      <trkpt lat="43.123299999999844" lon="-1.2447380000000015">
        <ele>507.699</ele>
        <time>2022-08-24T07:10:14Z</time>
      </trkpt>
      <trkpt lat="43.12328999999984" lon="-1.2447370000000015">
        <ele>507.825</ele>
        <time>2022-08-24T07:10:15Z</time>
      </trkpt>
      <trkpt lat="43.123282999999844" lon="-1.2447350000000015">
        <ele>508.297</ele>
        <time>2022-08-24T07:10:16Z</time>
      </trkpt>
      <trkpt lat="43.123271999999844" lon="-1.2447320000000015">
        <ele>508.474</ele>
        <time>2022-08-24T07:10:17Z</time>
      </trkpt>
      <trkpt lat="43.12326399999984" lon="-1.2447330000000014">
        <ele>508.617</ele>
        <time>2022-08-24T07:10:18Z</time>
      </trkpt>
      <trkpt lat="43.12325599999984" lon="-1.2447310000000014">
        <ele>508.881</ele>
        <time>2022-08-24T07:10:19Z</time>
      </trkpt>
      <trkpt lat="43.123248999999845" lon="-1.2447300000000014">
        <ele>508.830</ele>
        <time>2022-08-24T07:10:20Z</time>
      </trkpt>
      <trkpt lat="43.12324199999985" lon="-1.2447270000000015">
        <ele>509.049</ele>
        <time>2022-08-24T07:10:21Z</time>
      </trkpt>
      <trkpt lat="43.123231999999845" lon="-1.2447220000000014">
        <ele>509.202</ele>
        <time>2022-08-24T07:10:22Z</time>
      </trkpt>
      <trkpt lat="43.12322299999985" lon="-1.2447220000000014">
        <ele>509.422</ele>
        <time>2022-08-24T07:10:23Z</time>
      </trkpt>
      <trkpt lat="43.12321299999984" lon="-1.2447210000000015">
        <ele>509.609</ele>
        <time>2022-08-24T07:10:24Z</time>
      </trkpt>
      <trkpt lat="43.12320499999984" lon="-1.2447190000000015">
        <ele>509.685</ele>
        <time>2022-08-24T07:10:25Z</time>
      </trkpt>
      <trkpt lat="43.12319699999984" lon="-1.2447200000000014">
        <ele>509.885</ele>
        <time>2022-08-24T07:10:26Z</time>
      </trkpt>
      <trkpt lat="43.12318599999984" lon="-1.2447120000000014">
        <ele>510.035</ele>
        <time>2022-08-24T07:10:27Z</time>
      </trkpt>
      <trkpt lat="43.12317599999984" lon="-1.2447080000000015">
        <ele>510.271</ele>
        <time>2022-08-24T07:10:28Z</time>
      </trkpt>
      <trkpt lat="43.12316699999984" lon="-1.2447010000000014">
        <ele>510.253</ele>
        <time>2022-08-24T07:10:29Z</time>
      </trkpt>
      <trkpt lat="43.12315899999984" lon="-1.2446940000000013">
        <ele>510.430</ele>
        <time>2022-08-24T07:10:30Z</time>
      </trkpt>
      <trkpt lat="43.12315099999984" lon="-1.2446890000000013">
        <ele>510.433</ele>
        <time>2022-08-24T07:10:31Z</time>
      </trkpt>
      <trkpt lat="43.12314199999984" lon="-1.2446840000000012">
        <ele>510.687</ele>
        <time>2022-08-24T07:10:32Z</time>
      </trkpt>
      <trkpt lat="43.123131999999835" lon="-1.2446770000000011">
        <ele>510.836</ele>
        <time>2022-08-24T07:10:33Z</time>
      </trkpt>
      <trkpt lat="43.123120999999834" lon="-1.244670000000001">
        <ele>510.882</ele>
        <time>2022-08-24T07:10:34Z</time>
      </trkpt>
      <trkpt lat="43.12311299999983" lon="-1.244665000000001">
        <ele>511.043</ele>
        <time>2022-08-24T07:10:35Z</time>
      </trkpt>
      <trkpt lat="43.12310599999984" lon="-1.244656000000001">
        <ele>511.017</ele>
        <time>2022-08-24T07:10:36Z</time>
      </trkpt>
      <trkpt lat="43.123097999999835" lon="-1.2446500000000011">
        <ele>511.209</ele>
        <time>2022-08-24T07:10:37Z</time>
      </trkpt>
      <trkpt lat="43.123089999999834" lon="-1.2446450000000011">
        <ele>511.259</ele>
        <time>2022-08-24T07:10:38Z</time>
      </trkpt>
      <trkpt lat="43.123078999999834" lon="-1.244638000000001">
        <ele>511.489</ele>
        <time>2022-08-24T07:10:39Z</time>
      </trkpt>
      <trkpt lat="43.12307099999983" lon="-1.2446260000000011">
        <ele>511.669</ele>
        <time>2022-08-24T07:10:40Z</time>
      </trkpt>
      <trkpt lat="43.12306499999983" lon="-1.2446170000000012">
        <ele>511.665</ele>
        <time>2022-08-24T07:10:41Z</time>
      </trkpt>
      <trkpt lat="43.123055999999835" lon="-1.2446070000000011">
        <ele>511.847</ele>
        <time>2022-08-24T07:10:42Z</time>
      </trkpt>
      <trkpt lat="43.123052999999835" lon="-1.244602000000001">
        <ele>512.074</ele>
        <time>2022-08-24T07:10:43Z</time>
      </trkpt>
      <trkpt lat="43.123058999999834" lon="-1.244597000000001">
        <ele>512.417</ele>
        <time>2022-08-24T07:16:03Z</time>
      </trkpt>
      <trkpt lat="43.123058999999834" lon="-1.244597000000001">
        <ele>512.431</ele>
        <time>2022-08-24T07:16:04Z</time>
      </trkpt>
      <trkpt lat="43.12305699999983" lon="-1.2445930000000012">
        <ele>513.270</ele>
        <time>2022-08-24T07:16:13Z</time>
      </trkpt>
      <trkpt lat="43.12303299999983" lon="-1.244559000000001">
        <ele>513.263</ele>
        <time>2022-08-24T07:16:15Z</time>
      </trkpt>
      <trkpt lat="43.12302899999983" lon="-1.244544000000001">
        <ele>513.244</ele>
        <time>2022-08-24T07:16:16Z</time>
      </trkpt>
      <trkpt lat="43.123033999999834" lon="-1.244536000000001">
        <ele>513.218</ele>
        <time>2022-08-24T07:16:17Z</time>
      </trkpt>
      <trkpt lat="43.12304599999983" lon="-1.244552000000001">
        <ele>513.209</ele>
        <time>2022-08-24T07:16:20Z</time>
      </trkpt>
      <trkpt lat="43.12304999999983" lon="-1.244558000000001">
        <ele>513.277</ele>
        <time>2022-08-24T07:16:21Z</time>
      </trkpt>
      <trkpt lat="43.12305199999983" lon="-1.2445620000000008">
        <ele>513.297</ele>
        <time>2022-08-24T07:16:22Z</time>
      </trkpt>
      <trkpt lat="43.12305199999983" lon="-1.2445710000000008">
        <ele>513.217</ele>
        <time>2022-08-24T07:16:23Z</time>
      </trkpt>
      <trkpt lat="43.12305499999983" lon="-1.2445830000000007">
        <ele>513.273</ele>
        <time>2022-08-24T07:16:24Z</time>
      </trkpt>
      <trkpt lat="43.12305799999983" lon="-1.2445990000000007">
        <ele>513.265</ele>
        <time>2022-08-24T07:16:25Z</time>
      </trkpt>
      <trkpt lat="43.12305899999983" lon="-1.2446130000000006">
        <ele>513.262</ele>
        <time>2022-08-24T07:16:26Z</time>
      </trkpt>
      <trkpt lat="43.123056999999825" lon="-1.2446310000000007">
        <ele>513.255</ele>
        <time>2022-08-24T07:16:27Z</time>
      </trkpt>
      <trkpt lat="43.123050999999826" lon="-1.2446450000000007">
        <ele>513.249</ele>
        <time>2022-08-24T07:16:28Z</time>
      </trkpt>
      <trkpt lat="43.123042999999825" lon="-1.2446540000000006">
        <ele>513.228</ele>
        <time>2022-08-24T07:16:29Z</time>
      </trkpt>
      <trkpt lat="43.12303099999983" lon="-1.2446540000000006">
        <ele>513.247</ele>
        <time>2022-08-24T07:16:30Z</time>
      </trkpt>
      <trkpt lat="43.122997999999825" lon="-1.2446240000000006">
        <ele>513.429</ele>
        <time>2022-08-24T07:16:33Z</time>
      </trkpt>
      <trkpt lat="43.12295799999983" lon="-1.2445940000000006">
        <ele>513.621</ele>
        <time>2022-08-24T07:16:36Z</time>
      </trkpt>
      <trkpt lat="43.122946999999826" lon="-1.2445890000000006">
        <ele>513.609</ele>
        <time>2022-08-24T07:16:37Z</time>
      </trkpt>
      <trkpt lat="43.12293799999983" lon="-1.2445840000000006">
        <ele>514.035</ele>
        <time>2022-08-24T07:16:38Z</time>
      </trkpt>
      <trkpt lat="43.12292699999983" lon="-1.2445790000000005">
        <ele>514.075</ele>
        <time>2022-08-24T07:16:39Z</time>
      </trkpt>
      <trkpt lat="43.12291499999983" lon="-1.2445740000000005">
        <ele>514.485</ele>
        <time>2022-08-24T07:16:40Z</time>
      </trkpt>
      <trkpt lat="43.12290399999983" lon="-1.2445690000000005">
        <ele>514.631</ele>
        <time>2022-08-24T07:16:41Z</time>
      </trkpt>
      <trkpt lat="43.12288999999983" lon="-1.2445620000000004">
        <ele>515.073</ele>
        <time>2022-08-24T07:16:42Z</time>
      </trkpt>
      <trkpt lat="43.122876999999825" lon="-1.2445570000000004">
        <ele>515.250</ele>
        <time>2022-08-24T07:16:43Z</time>
      </trkpt>
      <trkpt lat="43.12286199999983" lon="-1.2445510000000004">
        <ele>515.473</ele>
        <time>2022-08-24T07:16:44Z</time>
      </trkpt>
      <trkpt lat="43.12282499999983" lon="-1.2445360000000003">
        <ele>516.487</ele>
        <time>2022-08-24T07:16:47Z</time>
      </trkpt>
      <trkpt lat="43.12281299999983" lon="-1.2445280000000003">
        <ele>516.696</ele>
        <time>2022-08-24T07:16:48Z</time>
      </trkpt>
      <trkpt lat="43.12279899999983" lon="-1.2445170000000003">
        <ele>516.852</ele>
        <time>2022-08-24T07:16:49Z</time>
      </trkpt>
      <trkpt lat="43.12278499999983" lon="-1.2445060000000003">
        <ele>517.253</ele>
        <time>2022-08-24T07:16:50Z</time>
      </trkpt>
      <trkpt lat="43.12277299999983" lon="-1.2444970000000004">
        <ele>517.408</ele>
        <time>2022-08-24T07:16:51Z</time>
      </trkpt>
      <trkpt lat="43.122760999999834" lon="-1.2444890000000004">
        <ele>517.409</ele>
        <time>2022-08-24T07:16:52Z</time>
      </trkpt>
      <trkpt lat="43.12274999999983" lon="-1.2444860000000004">
        <ele>517.616</ele>
        <time>2022-08-24T07:16:53Z</time>
      </trkpt>
      <trkpt lat="43.12274199999983" lon="-1.2444830000000004">
        <ele>518.026</ele>
        <time>2022-08-24T07:16:54Z</time>
      </trkpt>
      <trkpt lat="43.12273299999983" lon="-1.2444730000000004">
        <ele>518.236</ele>
        <time>2022-08-24T07:16:55Z</time>
      </trkpt>
      <trkpt lat="43.122723999999835" lon="-1.2444610000000005">
        <ele>518.482</ele>
        <time>2022-08-24T07:16:56Z</time>
      </trkpt>
      <trkpt lat="43.12271399999983" lon="-1.2444510000000004">
        <ele>518.624</ele>
        <time>2022-08-24T07:16:57Z</time>
      </trkpt>
      <trkpt lat="43.12270399999983" lon="-1.2444420000000005">
        <ele>518.661</ele>
        <time>2022-08-24T07:16:58Z</time>
      </trkpt>
      <trkpt lat="43.12269499999983" lon="-1.2444330000000006">
        <ele>519.024</ele>
        <time>2022-08-24T07:16:59Z</time>
      </trkpt>
      <trkpt lat="43.12268699999983" lon="-1.2444170000000006">
        <ele>519.228</ele>
        <time>2022-08-24T07:17:00Z</time>
      </trkpt>
      <trkpt lat="43.122676999999825" lon="-1.2444030000000006">
        <ele>519.627</ele>
        <time>2022-08-24T07:17:01Z</time>
      </trkpt>
      <trkpt lat="43.12266799999983" lon="-1.2443960000000005">
        <ele>519.824</ele>
        <time>2022-08-24T07:17:02Z</time>
      </trkpt>
      <trkpt lat="43.122656999999826" lon="-1.2443920000000006">
        <ele>520.204</ele>
        <time>2022-08-24T07:17:03Z</time>
      </trkpt>
      <trkpt lat="43.122645999999826" lon="-1.2443840000000006">
        <ele>520.614</ele>
        <time>2022-08-24T07:17:04Z</time>
      </trkpt>
      <trkpt lat="43.122639999999826" lon="-1.2443740000000005">
        <ele>520.609</ele>
        <time>2022-08-24T07:17:05Z</time>
      </trkpt>
      <trkpt lat="43.122631999999825" lon="-1.2443600000000006">
        <ele>520.863</ele>
        <time>2022-08-24T07:17:06Z</time>
      </trkpt>
      <trkpt lat="43.12262199999982" lon="-1.2443480000000007">
        <ele>521.043</ele>
        <time>2022-08-24T07:17:07Z</time>
      </trkpt>
      <trkpt lat="43.122612999999824" lon="-1.2443360000000008">
        <ele>521.033</ele>
        <time>2022-08-24T07:17:08Z</time>
      </trkpt>
      <trkpt lat="43.122606999999824" lon="-1.2443300000000008">
        <ele>521.259</ele>
        <time>2022-08-24T07:17:09Z</time>
      </trkpt>
      <trkpt lat="43.122597999999826" lon="-1.2443250000000008">
        <ele>521.491</ele>
        <time>2022-08-24T07:17:10Z</time>
      </trkpt>
      <trkpt lat="43.12258799999982" lon="-1.2443160000000009">
        <ele>521.838</ele>
        <time>2022-08-24T07:17:11Z</time>
      </trkpt>
      <trkpt lat="43.122575999999825" lon="-1.2443080000000009">
        <ele>522.061</ele>
        <time>2022-08-24T07:17:12Z</time>
      </trkpt>
      <trkpt lat="43.122564999999824" lon="-1.2442980000000008">
        <ele>522.445</ele>
        <time>2022-08-24T07:17:13Z</time>
      </trkpt>
      <trkpt lat="43.12255399999982" lon="-1.2442880000000007">
        <ele>522.444</ele>
        <time>2022-08-24T07:17:14Z</time>
      </trkpt>
      <trkpt lat="43.12254299999982" lon="-1.2442780000000007">
        <ele>522.663</ele>
        <time>2022-08-24T07:17:15Z</time>
      </trkpt>
      <trkpt lat="43.12253299999982" lon="-1.2442710000000006">
        <ele>523.044</ele>
        <time>2022-08-24T07:17:16Z</time>
      </trkpt>
      <trkpt lat="43.12252399999982" lon="-1.2442630000000006">
        <ele>523.218</ele>
        <time>2022-08-24T07:17:17Z</time>
      </trkpt>
      <trkpt lat="43.12251399999982" lon="-1.2442540000000006">
        <ele>523.409</ele>
        <time>2022-08-24T07:17:18Z</time>
      </trkpt>
      <trkpt lat="43.12250499999982" lon="-1.2442470000000005">
        <ele>523.677</ele>
        <time>2022-08-24T07:17:19Z</time>
      </trkpt>
      <trkpt lat="43.12249699999982" lon="-1.2442380000000006">
        <ele>523.857</ele>
        <time>2022-08-24T07:17:20Z</time>
      </trkpt>
      <trkpt lat="43.122491999999816" lon="-1.2442270000000006">
        <ele>524.057</ele>
        <time>2022-08-24T07:17:21Z</time>
      </trkpt>
      <trkpt lat="43.12248599999982" lon="-1.2442120000000005">
        <ele>524.223</ele>
        <time>2022-08-24T07:17:22Z</time>
      </trkpt>
      <trkpt lat="43.122477999999816" lon="-1.2442000000000006">
        <ele>524.485</ele>
        <time>2022-08-24T07:17:23Z</time>
      </trkpt>
      <trkpt lat="43.12246899999982" lon="-1.2441920000000006">
        <ele>524.652</ele>
        <time>2022-08-24T07:17:24Z</time>
      </trkpt>
      <trkpt lat="43.12245999999982" lon="-1.2441840000000006">
        <ele>525.035</ele>
        <time>2022-08-24T07:17:25Z</time>
      </trkpt>
      <trkpt lat="43.12245399999982" lon="-1.2441780000000007">
        <ele>525.019</ele>
        <time>2022-08-24T07:17:26Z</time>
      </trkpt>
      <trkpt lat="43.12244499999982" lon="-1.2441730000000006">
        <ele>525.268</ele>
        <time>2022-08-24T07:17:27Z</time>
      </trkpt>
      <trkpt lat="43.12243699999982" lon="-1.2441640000000007">
        <ele>525.471</ele>
        <time>2022-08-24T07:17:28Z</time>
      </trkpt>
      <trkpt lat="43.122429999999824" lon="-1.2441550000000008">
        <ele>525.641</ele>
        <time>2022-08-24T07:17:29Z</time>
      </trkpt>
      <trkpt lat="43.12241999999982" lon="-1.2441470000000008">
        <ele>525.815</ele>
        <time>2022-08-24T07:17:30Z</time>
      </trkpt>
      <trkpt lat="43.12240999999982" lon="-1.2441420000000007">
        <ele>525.809</ele>
        <time>2022-08-24T07:17:31Z</time>
      </trkpt>
      <trkpt lat="43.122396999999815" lon="-1.2441350000000007">
        <ele>526.048</ele>
        <time>2022-08-24T07:17:32Z</time>
      </trkpt>
      <trkpt lat="43.122387999999816" lon="-1.2441280000000006">
        <ele>526.228</ele>
        <time>2022-08-24T07:17:33Z</time>
      </trkpt>
      <trkpt lat="43.12238099999982" lon="-1.2441180000000005">
        <ele>526.428</ele>
        <time>2022-08-24T07:17:34Z</time>
      </trkpt>
      <trkpt lat="43.12237399999982" lon="-1.2441080000000004">
        <ele>526.464</ele>
        <time>2022-08-24T07:17:35Z</time>
      </trkpt>
      <trkpt lat="43.122364999999824" lon="-1.2441010000000003">
        <ele>526.636</ele>
        <time>2022-08-24T07:17:36Z</time>
      </trkpt>
      <trkpt lat="43.122355999999826" lon="-1.2440960000000003">
        <ele>527.063</ele>
        <time>2022-08-24T07:17:37Z</time>
      </trkpt>
      <trkpt lat="43.12234599999982" lon="-1.2440930000000003">
        <ele>527.076</ele>
        <time>2022-08-24T07:17:38Z</time>
      </trkpt>
      <trkpt lat="43.12233599999982" lon="-1.2440880000000003">
        <ele>527.270</ele>
        <time>2022-08-24T07:17:39Z</time>
      </trkpt>
      <trkpt lat="43.12232699999982" lon="-1.2440790000000004">
        <ele>527.439</ele>
        <time>2022-08-24T07:17:40Z</time>
      </trkpt>
      <trkpt lat="43.12231799999982" lon="-1.2440710000000004">
        <ele>527.627</ele>
        <time>2022-08-24T07:17:41Z</time>
      </trkpt>
      <trkpt lat="43.12230699999982" lon="-1.2440650000000004">
        <ele>527.868</ele>
        <time>2022-08-24T07:17:42Z</time>
      </trkpt>
      <trkpt lat="43.12229699999982" lon="-1.2440590000000005">
        <ele>528.014</ele>
        <time>2022-08-24T07:17:43Z</time>
      </trkpt>
      <trkpt lat="43.12228799999982" lon="-1.2440540000000004">
        <ele>528.209</ele>
        <time>2022-08-24T07:17:44Z</time>
      </trkpt>
      <trkpt lat="43.12227899999982" lon="-1.2440500000000005">
        <ele>528.233</ele>
        <time>2022-08-24T07:17:45Z</time>
      </trkpt>
      <trkpt lat="43.12226899999982" lon="-1.2440460000000007">
        <ele>528.693</ele>
        <time>2022-08-24T07:17:46Z</time>
      </trkpt>
      <trkpt lat="43.12226099999982" lon="-1.2440410000000006">
        <ele>528.673</ele>
        <time>2022-08-24T07:17:47Z</time>
      </trkpt>
      <trkpt lat="43.12225399999982" lon="-1.2440330000000006">
        <ele>528.829</ele>
        <time>2022-08-24T07:17:48Z</time>
      </trkpt>
      <trkpt lat="43.12224599999982" lon="-1.2440250000000006">
        <ele>529.021</ele>
        <time>2022-08-24T07:17:49Z</time>
      </trkpt>
      <trkpt lat="43.12223699999982" lon="-1.2440190000000007">
        <ele>529.288</ele>
        <time>2022-08-24T07:17:50Z</time>
      </trkpt>
      <trkpt lat="43.12222799999982" lon="-1.2440160000000007">
        <ele>529.471</ele>
        <time>2022-08-24T07:17:51Z</time>
      </trkpt>
      <trkpt lat="43.12221799999982" lon="-1.2440150000000008">
        <ele>529.665</ele>
        <time>2022-08-24T07:17:52Z</time>
      </trkpt>
      <trkpt lat="43.122207999999816" lon="-1.2440110000000009">
        <ele>529.654</ele>
        <time>2022-08-24T07:17:53Z</time>
      </trkpt>
      <trkpt lat="43.122196999999815" lon="-1.2440060000000008">
        <ele>529.862</ele>
        <time>2022-08-24T07:17:54Z</time>
      </trkpt>
      <trkpt lat="43.122185999999814" lon="-1.2440030000000009">
        <ele>529.883</ele>
        <time>2022-08-24T07:17:55Z</time>
      </trkpt>
      <trkpt lat="43.122176999999816" lon="-1.2439980000000008">
        <ele>530.011</ele>
        <time>2022-08-24T07:17:56Z</time>
      </trkpt>
      <trkpt lat="43.12216799999982" lon="-1.2439920000000009">
        <ele>530.009</ele>
        <time>2022-08-24T07:17:57Z</time>
      </trkpt>
      <trkpt lat="43.122157999999814" lon="-1.2439850000000008">
        <ele>530.427</ele>
        <time>2022-08-24T07:17:58Z</time>
      </trkpt>
      <trkpt lat="43.122148999999816" lon="-1.2439800000000008">
        <ele>530.687</ele>
        <time>2022-08-24T07:17:59Z</time>
      </trkpt>
      <trkpt lat="43.12213899999981" lon="-1.2439740000000008">
        <ele>531.067</ele>
        <time>2022-08-24T07:18:00Z</time>
      </trkpt>
      <trkpt lat="43.122126999999814" lon="-1.2439680000000009">
        <ele>531.033</ele>
        <time>2022-08-24T07:18:01Z</time>
      </trkpt>
      <trkpt lat="43.122115999999814" lon="-1.243964000000001">
        <ele>531.285</ele>
        <time>2022-08-24T07:18:02Z</time>
      </trkpt>
      <trkpt lat="43.12210799999981" lon="-1.243958000000001">
        <ele>531.282</ele>
        <time>2022-08-24T07:18:03Z</time>
      </trkpt>
      <trkpt lat="43.12210199999981" lon="-1.243951000000001">
        <ele>531.465</ele>
        <time>2022-08-24T07:18:04Z</time>
      </trkpt>
      <trkpt lat="43.12209399999981" lon="-1.2439440000000008">
        <ele>531.669</ele>
        <time>2022-08-24T07:18:05Z</time>
      </trkpt>
      <trkpt lat="43.12208399999981" lon="-1.2439380000000009">
        <ele>531.678</ele>
        <time>2022-08-24T07:18:06Z</time>
      </trkpt>
      <trkpt lat="43.12207299999981" lon="-1.2439310000000008">
        <ele>531.826</ele>
        <time>2022-08-24T07:18:07Z</time>
      </trkpt>
      <trkpt lat="43.12206199999981" lon="-1.2439230000000008">
        <ele>531.847</ele>
        <time>2022-08-24T07:18:08Z</time>
      </trkpt>
      <trkpt lat="43.12205399999981" lon="-1.2439230000000008">
        <ele>532.011</ele>
        <time>2022-08-24T07:18:09Z</time>
      </trkpt>
      <trkpt lat="43.122045999999806" lon="-1.2439230000000008">
        <ele>532.209</ele>
        <time>2022-08-24T07:18:10Z</time>
      </trkpt>
      <trkpt lat="43.122037999999804" lon="-1.2439190000000009">
        <ele>532.433</ele>
        <time>2022-08-24T07:18:11Z</time>
      </trkpt>
      <trkpt lat="43.1220279999998" lon="-1.2439120000000008">
        <ele>532.653</ele>
        <time>2022-08-24T07:18:12Z</time>
      </trkpt>
      <trkpt lat="43.1220149999998" lon="-1.2439060000000008">
        <ele>532.663</ele>
        <time>2022-08-24T07:18:13Z</time>
      </trkpt>
      <trkpt lat="43.1220039999998" lon="-1.2439010000000008">
        <ele>532.839</ele>
        <time>2022-08-24T07:18:14Z</time>
      </trkpt>
      <trkpt lat="43.1219929999998" lon="-1.2438940000000007">
        <ele>532.831</ele>
        <time>2022-08-24T07:18:15Z</time>
      </trkpt>
      <trkpt lat="43.1219819999998" lon="-1.2438850000000008">
        <ele>533.088</ele>
        <time>2022-08-24T07:18:16Z</time>
      </trkpt>
      <trkpt lat="43.1219729999998" lon="-1.243873000000001">
        <ele>533.281</ele>
        <time>2022-08-24T07:18:17Z</time>
      </trkpt>
      <trkpt lat="43.1219619999998" lon="-1.243861000000001">
        <ele>533.455</ele>
        <time>2022-08-24T07:18:18Z</time>
      </trkpt>
      <trkpt lat="43.1219509999998" lon="-1.243851000000001">
        <ele>533.474</ele>
        <time>2022-08-24T07:18:19Z</time>
      </trkpt>
      <trkpt lat="43.121937999999794" lon="-1.2438440000000008">
        <ele>533.614</ele>
        <time>2022-08-24T07:18:20Z</time>
      </trkpt>
      <trkpt lat="43.12192499999979" lon="-1.2438380000000009">
        <ele>534.054</ele>
        <time>2022-08-24T07:18:21Z</time>
      </trkpt>
      <trkpt lat="43.12191299999979" lon="-1.243835000000001">
        <ele>534.009</ele>
        <time>2022-08-24T07:18:22Z</time>
      </trkpt>
      <trkpt lat="43.121900999999795" lon="-1.2438300000000009">
        <ele>534.409</ele>
        <time>2022-08-24T07:18:23Z</time>
      </trkpt>
      <trkpt lat="43.1218919999998" lon="-1.2438250000000008">
        <ele>534.432</ele>
        <time>2022-08-24T07:18:24Z</time>
      </trkpt>
      <trkpt lat="43.1218799999998" lon="-1.2438180000000008">
        <ele>534.682</ele>
        <time>2022-08-24T07:18:25Z</time>
      </trkpt>
      <trkpt lat="43.1218649999998" lon="-1.2438130000000007">
        <ele>534.882</ele>
        <time>2022-08-24T07:18:26Z</time>
      </trkpt>
      <trkpt lat="43.1218569999998" lon="-1.2438090000000008">
        <ele>535.088</ele>
        <time>2022-08-24T07:18:27Z</time>
      </trkpt>
      <trkpt lat="43.1218479999998" lon="-1.2438010000000008">
        <ele>535.240</ele>
        <time>2022-08-24T07:18:28Z</time>
      </trkpt>
      <trkpt lat="43.1218389999998" lon="-1.2437930000000008">
        <ele>535.437</ele>
        <time>2022-08-24T07:18:29Z</time>
      </trkpt>
      <trkpt lat="43.1218289999998" lon="-1.2437870000000009">
        <ele>535.440</ele>
        <time>2022-08-24T07:18:30Z</time>
      </trkpt>
      <trkpt lat="43.1218149999998" lon="-1.2437800000000008">
        <ele>535.624</ele>
        <time>2022-08-24T07:18:31Z</time>
      </trkpt>
      <trkpt lat="43.1218039999998" lon="-1.2437760000000009">
        <ele>535.853</ele>
        <time>2022-08-24T07:18:32Z</time>
      </trkpt>
      <trkpt lat="43.1217919999998" lon="-1.243773000000001">
        <ele>536.023</ele>
        <time>2022-08-24T07:18:33Z</time>
      </trkpt>
      <trkpt lat="43.1217799999998" lon="-1.243770000000001">
        <ele>536.083</ele>
        <time>2022-08-24T07:18:34Z</time>
      </trkpt>
      <trkpt lat="43.1217659999998" lon="-1.2437680000000009">
        <ele>536.411</ele>
        <time>2022-08-24T07:18:35Z</time>
      </trkpt>
      <trkpt lat="43.1217529999998" lon="-1.243767000000001">
        <ele>536.409</ele>
        <time>2022-08-24T07:18:36Z</time>
      </trkpt>
      <trkpt lat="43.1217419999998" lon="-1.243762000000001">
        <ele>536.893</ele>
        <time>2022-08-24T07:18:37Z</time>
      </trkpt>
      <trkpt lat="43.1217309999998" lon="-1.243757000000001">
        <ele>536.853</ele>
        <time>2022-08-24T07:18:38Z</time>
      </trkpt>
      <trkpt lat="43.1217199999998" lon="-1.2437550000000008">
        <ele>537.093</ele>
        <time>2022-08-24T07:18:39Z</time>
      </trkpt>
      <trkpt lat="43.121709999999794" lon="-1.2437600000000009">
        <ele>537.439</ele>
        <time>2022-08-24T07:18:40Z</time>
      </trkpt>
      <trkpt lat="43.121697999999796" lon="-1.243767000000001">
        <ele>537.491</ele>
        <time>2022-08-24T07:18:41Z</time>
      </trkpt>
      <trkpt lat="43.121689999999795" lon="-1.243772000000001">
        <ele>537.828</ele>
        <time>2022-08-24T07:18:42Z</time>
      </trkpt>
      <trkpt lat="43.121678999999794" lon="-1.243777000000001">
        <ele>538.041</ele>
        <time>2022-08-24T07:18:43Z</time>
      </trkpt>
      <trkpt lat="43.121664999999794" lon="-1.243780000000001">
        <ele>538.265</ele>
        <time>2022-08-24T07:18:44Z</time>
      </trkpt>
      <trkpt lat="43.121655999999795" lon="-1.243785000000001">
        <ele>538.274</ele>
        <time>2022-08-24T07:18:45Z</time>
      </trkpt>
      <trkpt lat="43.12164599999979" lon="-1.243794000000001">
        <ele>538.479</ele>
        <time>2022-08-24T07:18:46Z</time>
      </trkpt>
      <trkpt lat="43.121638999999796" lon="-1.243802000000001">
        <ele>538.805</ele>
        <time>2022-08-24T07:18:47Z</time>
      </trkpt>
      <trkpt lat="43.12162899999979" lon="-1.2438110000000009">
        <ele>539.025</ele>
        <time>2022-08-24T07:18:48Z</time>
      </trkpt>
      <trkpt lat="43.12161499999979" lon="-1.243821000000001">
        <ele>539.209</ele>
        <time>2022-08-24T07:18:49Z</time>
      </trkpt>
      <trkpt lat="43.12160199999979" lon="-1.243832000000001">
        <ele>539.278</ele>
        <time>2022-08-24T07:18:50Z</time>
      </trkpt>
      <trkpt lat="43.12159299999979" lon="-1.243846000000001">
        <ele>539.658</ele>
        <time>2022-08-24T07:18:51Z</time>
      </trkpt>
      <trkpt lat="43.12158499999979" lon="-1.2438580000000008">
        <ele>539.688</ele>
        <time>2022-08-24T07:18:52Z</time>
      </trkpt>
      <trkpt lat="43.12157499999979" lon="-1.2438720000000008">
        <ele>540.014</ele>
        <time>2022-08-24T07:18:53Z</time>
      </trkpt>
      <trkpt lat="43.121564999999784" lon="-1.2438880000000008">
        <ele>540.266</ele>
        <time>2022-08-24T07:18:54Z</time>
      </trkpt>
      <trkpt lat="43.12155699999978" lon="-1.2439040000000008">
        <ele>540.293</ele>
        <time>2022-08-24T07:18:55Z</time>
      </trkpt>
      <trkpt lat="43.12154899999978" lon="-1.2439170000000008">
        <ele>540.476</ele>
        <time>2022-08-24T07:18:56Z</time>
      </trkpt>
      <trkpt lat="43.12153999999978" lon="-1.2439250000000008">
        <ele>540.440</ele>
        <time>2022-08-24T07:18:57Z</time>
      </trkpt>
      <trkpt lat="43.121530999999784" lon="-1.243935000000001">
        <ele>540.689</ele>
        <time>2022-08-24T07:18:58Z</time>
      </trkpt>
      <trkpt lat="43.121518999999786" lon="-1.243954000000001">
        <ele>540.879</ele>
        <time>2022-08-24T07:18:59Z</time>
      </trkpt>
      <trkpt lat="43.12151199999979" lon="-1.2439710000000008">
        <ele>541.005</ele>
        <time>2022-08-24T07:19:00Z</time>
      </trkpt>
      <trkpt lat="43.12150399999979" lon="-1.2439850000000008">
        <ele>541.225</ele>
        <time>2022-08-24T07:19:01Z</time>
      </trkpt>
      <trkpt lat="43.12149499999979" lon="-1.2439980000000008">
        <ele>541.609</ele>
        <time>2022-08-24T07:19:02Z</time>
      </trkpt>
      <trkpt lat="43.12148699999979" lon="-1.2440120000000008">
        <ele>541.858</ele>
        <time>2022-08-24T07:19:03Z</time>
      </trkpt>
      <trkpt lat="43.121476999999786" lon="-1.2440300000000009">
        <ele>542.058</ele>
        <time>2022-08-24T07:19:04Z</time>
      </trkpt>
      <trkpt lat="43.12146799999979" lon="-1.244048000000001">
        <ele>542.218</ele>
        <time>2022-08-24T07:19:05Z</time>
      </trkpt>
      <trkpt lat="43.121457999999784" lon="-1.2440680000000008">
        <ele>542.254</ele>
        <time>2022-08-24T07:19:06Z</time>
      </trkpt>
      <trkpt lat="43.12144499999978" lon="-1.2440840000000009">
        <ele>542.426</ele>
        <time>2022-08-24T07:19:07Z</time>
      </trkpt>
      <trkpt lat="43.12143099999978" lon="-1.2441000000000009">
        <ele>542.453</ele>
        <time>2022-08-24T07:19:08Z</time>
      </trkpt>
      <trkpt lat="43.12141999999978" lon="-1.2441200000000008">
        <ele>542.466</ele>
        <time>2022-08-24T07:19:09Z</time>
      </trkpt>
      <trkpt lat="43.12141099999978" lon="-1.2441360000000008">
        <ele>542.670</ele>
        <time>2022-08-24T07:19:10Z</time>
      </trkpt>
      <trkpt lat="43.12140299999978" lon="-1.2441500000000008">
        <ele>542.689</ele>
        <time>2022-08-24T07:19:11Z</time>
      </trkpt>
      <trkpt lat="43.121395999999784" lon="-1.2441620000000007">
        <ele>542.667</ele>
        <time>2022-08-24T07:19:12Z</time>
      </trkpt>
      <trkpt lat="43.12138799999978" lon="-1.2441680000000006">
        <ele>542.681</ele>
        <time>2022-08-24T07:19:13Z</time>
      </trkpt>
      <trkpt lat="43.121378999999784" lon="-1.2441730000000006">
        <ele>542.619</ele>
        <time>2022-08-24T07:19:14Z</time>
      </trkpt>
      <trkpt lat="43.121366999999786" lon="-1.2441810000000006">
        <ele>542.609</ele>
        <time>2022-08-24T07:19:15Z</time>
      </trkpt>
      <trkpt lat="43.12135399999978" lon="-1.2441920000000006">
        <ele>542.627</ele>
        <time>2022-08-24T07:19:16Z</time>
      </trkpt>
      <trkpt lat="43.12133999999978" lon="-1.2442010000000006">
        <ele>542.647</ele>
        <time>2022-08-24T07:19:17Z</time>
      </trkpt>
      <trkpt lat="43.121324999999786" lon="-1.2442110000000006">
        <ele>542.637</ele>
        <time>2022-08-24T07:19:18Z</time>
      </trkpt>
      <trkpt lat="43.12130999999979" lon="-1.2442220000000006">
        <ele>542.613</ele>
        <time>2022-08-24T07:19:19Z</time>
      </trkpt>
      <trkpt lat="43.12129599999979" lon="-1.2442330000000006">
        <ele>542.625</ele>
        <time>2022-08-24T07:19:20Z</time>
      </trkpt>
      <trkpt lat="43.12128399999979" lon="-1.2442400000000007">
        <ele>542.642</ele>
        <time>2022-08-24T07:19:21Z</time>
      </trkpt>
      <trkpt lat="43.12127299999979" lon="-1.2442500000000007">
        <ele>542.685</ele>
        <time>2022-08-24T07:19:22Z</time>
      </trkpt>
      <trkpt lat="43.12126399999979" lon="-1.2442600000000008">
        <ele>542.689</ele>
        <time>2022-08-24T07:19:23Z</time>
      </trkpt>
      <trkpt lat="43.121256999999794" lon="-1.2442700000000009">
        <ele>542.858</ele>
        <time>2022-08-24T07:19:24Z</time>
      </trkpt>
      <trkpt lat="43.1212529999998" lon="-1.244277000000001">
        <ele>542.814</ele>
        <time>2022-08-24T07:19:25Z</time>
      </trkpt>
      <trkpt lat="43.1212489999998" lon="-1.244283000000001">
        <ele>542.854</ele>
        <time>2022-08-24T07:19:26Z</time>
      </trkpt>
      <trkpt lat="43.1212429999998" lon="-1.244288000000001">
        <ele>542.809</ele>
        <time>2022-08-24T07:19:27Z</time>
      </trkpt>
      <trkpt lat="43.1212339999998" lon="-1.244288000000001">
        <ele>542.809</ele>
        <time>2022-08-24T07:19:28Z</time>
      </trkpt>
      <trkpt lat="43.121224999999804" lon="-1.244287000000001">
        <ele>542.832</ele>
        <time>2022-08-24T07:19:29Z</time>
      </trkpt>
      <trkpt lat="43.1212149999998" lon="-1.244287000000001">
        <ele>542.842</ele>
        <time>2022-08-24T07:19:30Z</time>
      </trkpt>
      <trkpt lat="43.1211999999998" lon="-1.244289000000001">
        <ele>542.852</ele>
        <time>2022-08-24T07:19:32Z</time>
      </trkpt>
      <trkpt lat="43.1211899999998" lon="-1.2442960000000012">
        <ele>542.858</ele>
        <time>2022-08-24T07:19:33Z</time>
      </trkpt>
      <trkpt lat="43.1211789999998" lon="-1.2443040000000012">
        <ele>542.880</ele>
        <time>2022-08-24T07:19:34Z</time>
      </trkpt>
      <trkpt lat="43.121165999999796" lon="-1.2443120000000012">
        <ele>542.827</ele>
        <time>2022-08-24T07:19:35Z</time>
      </trkpt>
      <trkpt lat="43.1211259999998" lon="-1.2443390000000012">
        <ele>543.070</ele>
        <time>2022-08-24T07:19:38Z</time>
      </trkpt>
      <trkpt lat="43.121115999999795" lon="-1.2443470000000012">
        <ele>543.024</ele>
        <time>2022-08-24T07:19:39Z</time>
      </trkpt>
      <trkpt lat="43.1211039999998" lon="-1.2443540000000013">
        <ele>543.043</ele>
        <time>2022-08-24T07:19:40Z</time>
      </trkpt>
      <trkpt lat="43.121090999999794" lon="-1.2443590000000013">
        <ele>543.082</ele>
        <time>2022-08-24T07:19:41Z</time>
      </trkpt>
      <trkpt lat="43.12105799999979" lon="-1.2443630000000012">
        <ele>543.043</ele>
        <time>2022-08-24T07:19:43Z</time>
      </trkpt>
      <trkpt lat="43.12103899999979" lon="-1.2443690000000012">
        <ele>543.217</ele>
        <time>2022-08-24T07:19:44Z</time>
      </trkpt>
      <trkpt lat="43.12101999999979" lon="-1.2443760000000013">
        <ele>543.409</ele>
        <time>2022-08-24T07:19:45Z</time>
      </trkpt>
      <trkpt lat="43.12096799999979" lon="-1.2443930000000012">
        <ele>543.629</ele>
        <time>2022-08-24T07:19:48Z</time>
      </trkpt>
      <trkpt lat="43.12093499999979" lon="-1.2444020000000011">
        <ele>543.699</ele>
        <time>2022-08-24T07:19:50Z</time>
      </trkpt>
      <trkpt lat="43.12091899999979" lon="-1.2444040000000012">
        <ele>543.849</ele>
        <time>2022-08-24T07:19:51Z</time>
      </trkpt>
      <trkpt lat="43.120902999999785" lon="-1.2444100000000011">
        <ele>543.865</ele>
        <time>2022-08-24T07:19:52Z</time>
      </trkpt>
      <trkpt lat="43.120832999999784" lon="-1.2444370000000011">
        <ele>544.277</ele>
        <time>2022-08-24T07:19:56Z</time>
      </trkpt>
      <trkpt lat="43.120812999999785" lon="-1.244440000000001">
        <ele>544.464</ele>
        <time>2022-08-24T07:19:57Z</time>
      </trkpt>
      <trkpt lat="43.12077499999978" lon="-1.2444450000000011">
        <ele>544.687</ele>
        <time>2022-08-24T07:19:59Z</time>
      </trkpt>
      <trkpt lat="43.12073799999978" lon="-1.244454000000001">
        <ele>544.841</ele>
        <time>2022-08-24T07:20:01Z</time>
      </trkpt>
      <trkpt lat="43.12068799999978" lon="-1.244474000000001">
        <ele>545.450</ele>
        <time>2022-08-24T07:20:04Z</time>
      </trkpt>
      <trkpt lat="43.12067199999978" lon="-1.244479000000001">
        <ele>545.422</ele>
        <time>2022-08-24T07:20:05Z</time>
      </trkpt>
      <trkpt lat="43.12065599999978" lon="-1.244482000000001">
        <ele>545.662</ele>
        <time>2022-08-24T07:20:06Z</time>
      </trkpt>
      <trkpt lat="43.120639999999774" lon="-1.244484000000001">
        <ele>545.608</ele>
        <time>2022-08-24T07:20:07Z</time>
      </trkpt>
      <trkpt lat="43.120622999999775" lon="-1.244490000000001">
        <ele>545.809</ele>
        <time>2022-08-24T07:20:08Z</time>
      </trkpt>
      <trkpt lat="43.12059099999978" lon="-1.244498000000001">
        <ele>546.043</ele>
        <time>2022-08-24T07:20:10Z</time>
      </trkpt>
      <trkpt lat="43.120560999999775" lon="-1.244505000000001">
        <ele>546.253</ele>
        <time>2022-08-24T07:20:12Z</time>
      </trkpt>
      <trkpt lat="43.120546999999775" lon="-1.244509000000001">
        <ele>546.423</ele>
        <time>2022-08-24T07:20:13Z</time>
      </trkpt>
      <trkpt lat="43.12053399999977" lon="-1.2445130000000009">
        <ele>546.479</ele>
        <time>2022-08-24T07:20:14Z</time>
      </trkpt>
      <trkpt lat="43.12051999999977" lon="-1.2445130000000009">
        <ele>546.481</ele>
        <time>2022-08-24T07:20:15Z</time>
      </trkpt>
      <trkpt lat="43.12050399999977" lon="-1.244512000000001">
        <ele>546.658</ele>
        <time>2022-08-24T07:20:16Z</time>
      </trkpt>
      <trkpt lat="43.12048999999977" lon="-1.244512000000001">
        <ele>546.871</ele>
        <time>2022-08-24T07:20:17Z</time>
      </trkpt>
      <trkpt lat="43.12047699999977" lon="-1.244514000000001">
        <ele>547.035</ele>
        <time>2022-08-24T07:20:18Z</time>
      </trkpt>
      <trkpt lat="43.120463999999764" lon="-1.244518000000001">
        <ele>547.024</ele>
        <time>2022-08-24T07:20:19Z</time>
      </trkpt>
      <trkpt lat="43.120449999999764" lon="-1.2445190000000008">
        <ele>547.217</ele>
        <time>2022-08-24T07:20:20Z</time>
      </trkpt>
      <trkpt lat="43.12043699999976" lon="-1.244518000000001">
        <ele>547.487</ele>
        <time>2022-08-24T07:20:21Z</time>
      </trkpt>
      <trkpt lat="43.12042199999976" lon="-1.244515000000001">
        <ele>547.415</ele>
        <time>2022-08-24T07:20:22Z</time>
      </trkpt>
      <trkpt lat="43.120406999999766" lon="-1.244512000000001">
        <ele>547.609</ele>
        <time>2022-08-24T07:20:23Z</time>
      </trkpt>
      <trkpt lat="43.12039099999976" lon="-1.244511000000001">
        <ele>547.852</ele>
        <time>2022-08-24T07:20:24Z</time>
      </trkpt>
      <trkpt lat="43.12037199999976" lon="-1.244512000000001">
        <ele>548.072</ele>
        <time>2022-08-24T07:20:25Z</time>
      </trkpt>
      <trkpt lat="43.12035199999976" lon="-1.244512000000001">
        <ele>548.212</ele>
        <time>2022-08-24T07:20:26Z</time>
      </trkpt>
      <trkpt lat="43.12033299999976" lon="-1.244510000000001">
        <ele>549.068</ele>
        <time>2022-08-24T07:20:27Z</time>
      </trkpt>
      <trkpt lat="43.12031499999976" lon="-1.2445080000000008">
        <ele>549.460</ele>
        <time>2022-08-24T07:20:28Z</time>
      </trkpt>
      <trkpt lat="43.120296999999766" lon="-1.2445060000000008">
        <ele>549.437</ele>
        <time>2022-08-24T07:20:29Z</time>
      </trkpt>
      <trkpt lat="43.12027899999977" lon="-1.2445040000000007">
        <ele>549.620</ele>
        <time>2022-08-24T07:20:30Z</time>
      </trkpt>
      <trkpt lat="43.12026099999977" lon="-1.2445020000000007">
        <ele>549.674</ele>
        <time>2022-08-24T07:20:31Z</time>
      </trkpt>
      <trkpt lat="43.12024399999977" lon="-1.2444970000000006">
        <ele>549.883</ele>
        <time>2022-08-24T07:20:32Z</time>
      </trkpt>
      <trkpt lat="43.12022999999977" lon="-1.2444900000000005">
        <ele>550.048</ele>
        <time>2022-08-24T07:20:33Z</time>
      </trkpt>
      <trkpt lat="43.120214999999774" lon="-1.2444860000000006">
        <ele>550.261</ele>
        <time>2022-08-24T07:20:34Z</time>
      </trkpt>
      <trkpt lat="43.12019999999978" lon="-1.2444810000000006">
        <ele>550.417</ele>
        <time>2022-08-24T07:20:35Z</time>
      </trkpt>
      <trkpt lat="43.12018499999978" lon="-1.2444750000000007">
        <ele>550.609</ele>
        <time>2022-08-24T07:20:36Z</time>
      </trkpt>
      <trkpt lat="43.12017099999978" lon="-1.2444680000000006">
        <ele>550.855</ele>
        <time>2022-08-24T07:20:37Z</time>
      </trkpt>
      <trkpt lat="43.12015699999978" lon="-1.2444640000000007">
        <ele>551.035</ele>
        <time>2022-08-24T07:20:38Z</time>
      </trkpt>
      <trkpt lat="43.12014299999978" lon="-1.2444590000000006">
        <ele>551.495</ele>
        <time>2022-08-24T07:20:39Z</time>
      </trkpt>
      <trkpt lat="43.120129999999776" lon="-1.2444560000000007">
        <ele>551.421</ele>
        <time>2022-08-24T07:20:40Z</time>
      </trkpt>
      <trkpt lat="43.120115999999776" lon="-1.2444520000000008">
        <ele>551.653</ele>
        <time>2022-08-24T07:20:41Z</time>
      </trkpt>
      <trkpt lat="43.12010099999978" lon="-1.2444440000000008">
        <ele>551.820</ele>
        <time>2022-08-24T07:20:42Z</time>
      </trkpt>
      <trkpt lat="43.12008699999978" lon="-1.2444360000000008">
        <ele>552.023</ele>
        <time>2022-08-24T07:20:43Z</time>
      </trkpt>
      <trkpt lat="43.120073999999775" lon="-1.2444250000000008">
        <ele>552.227</ele>
        <time>2022-08-24T07:20:44Z</time>
      </trkpt>
      <trkpt lat="43.12006199999978" lon="-1.2444180000000007">
        <ele>552.496</ele>
        <time>2022-08-24T07:20:45Z</time>
      </trkpt>
      <trkpt lat="43.12004799999978" lon="-1.2444130000000007">
        <ele>552.678</ele>
        <time>2022-08-24T07:20:46Z</time>
      </trkpt>
      <trkpt lat="43.12003399999978" lon="-1.2444070000000007">
        <ele>552.833</ele>
        <time>2022-08-24T07:20:47Z</time>
      </trkpt>
      <trkpt lat="43.120019999999776" lon="-1.2443980000000008">
        <ele>553.026</ele>
        <time>2022-08-24T07:20:48Z</time>
      </trkpt>
      <trkpt lat="43.12000799999978" lon="-1.2443930000000007">
        <ele>553.209</ele>
        <time>2022-08-24T07:20:49Z</time>
      </trkpt>
      <trkpt lat="43.11999299999978" lon="-1.2443900000000008">
        <ele>553.458</ele>
        <time>2022-08-24T07:20:50Z</time>
      </trkpt>
      <trkpt lat="43.11997999999978" lon="-1.2443830000000007">
        <ele>553.448</ele>
        <time>2022-08-24T07:20:51Z</time>
      </trkpt>
      <trkpt lat="43.11996599999978" lon="-1.2443750000000007">
        <ele>553.688</ele>
        <time>2022-08-24T07:20:52Z</time>
      </trkpt>
      <trkpt lat="43.11995099999978" lon="-1.2443660000000007">
        <ele>553.824</ele>
        <time>2022-08-24T07:20:53Z</time>
      </trkpt>
      <trkpt lat="43.11993999999978" lon="-1.2443570000000008">
        <ele>554.056</ele>
        <time>2022-08-24T07:20:54Z</time>
      </trkpt>
      <trkpt lat="43.11992699999978" lon="-1.244348000000001">
        <ele>554.073</ele>
        <time>2022-08-24T07:20:55Z</time>
      </trkpt>
      <trkpt lat="43.119913999999774" lon="-1.2443410000000008">
        <ele>554.256</ele>
        <time>2022-08-24T07:20:56Z</time>
      </trkpt>
      <trkpt lat="43.119899999999774" lon="-1.2443350000000009">
        <ele>554.440</ele>
        <time>2022-08-24T07:20:57Z</time>
      </trkpt>
      <trkpt lat="43.119885999999774" lon="-1.244329000000001">
        <ele>554.699</ele>
        <time>2022-08-24T07:20:58Z</time>
      </trkpt>
      <trkpt lat="43.11987499999977" lon="-1.244321000000001">
        <ele>554.654</ele>
        <time>2022-08-24T07:20:59Z</time>
      </trkpt>
      <trkpt lat="43.11985899999977" lon="-1.2443140000000008">
        <ele>555.056</ele>
        <time>2022-08-24T07:21:00Z</time>
      </trkpt>
      <trkpt lat="43.11984899999977" lon="-1.2443060000000008">
        <ele>555.011</ele>
        <time>2022-08-24T07:21:01Z</time>
      </trkpt>
      <trkpt lat="43.11983799999977" lon="-1.2442960000000007">
        <ele>555.409</ele>
        <time>2022-08-24T07:21:02Z</time>
      </trkpt>
      <trkpt lat="43.11982599999977" lon="-1.2442880000000007">
        <ele>555.486</ele>
        <time>2022-08-24T07:21:03Z</time>
      </trkpt>
      <trkpt lat="43.119815999999766" lon="-1.2442810000000006">
        <ele>555.426</ele>
        <time>2022-08-24T07:21:04Z</time>
      </trkpt>
      <trkpt lat="43.11980599999976" lon="-1.2442730000000006">
        <ele>555.836</ele>
        <time>2022-08-24T07:21:05Z</time>
      </trkpt>
      <trkpt lat="43.11979599999976" lon="-1.2442670000000007">
        <ele>555.882</ele>
        <time>2022-08-24T07:21:06Z</time>
      </trkpt>
      <trkpt lat="43.119785999999756" lon="-1.2442620000000006">
        <ele>556.234</ele>
        <time>2022-08-24T07:21:07Z</time>
      </trkpt>
      <trkpt lat="43.11977599999975" lon="-1.2442610000000007">
        <ele>556.291</ele>
        <time>2022-08-24T07:21:08Z</time>
      </trkpt>
      <trkpt lat="43.119763999999755" lon="-1.2442540000000006">
        <ele>556.444</ele>
        <time>2022-08-24T07:21:09Z</time>
      </trkpt>
      <trkpt lat="43.11975199999976" lon="-1.2442470000000005">
        <ele>556.628</ele>
        <time>2022-08-24T07:21:10Z</time>
      </trkpt>
      <trkpt lat="43.119740999999756" lon="-1.2442410000000006">
        <ele>556.877</ele>
        <time>2022-08-24T07:21:11Z</time>
      </trkpt>
      <trkpt lat="43.11973099999975" lon="-1.2442370000000007">
        <ele>556.887</ele>
        <time>2022-08-24T07:21:12Z</time>
      </trkpt>
      <trkpt lat="43.119721999999754" lon="-1.2442300000000006">
        <ele>557.042</ele>
        <time>2022-08-24T07:21:13Z</time>
      </trkpt>
      <trkpt lat="43.11971199999975" lon="-1.2442180000000007">
        <ele>557.226</ele>
        <time>2022-08-24T07:21:14Z</time>
      </trkpt>
      <trkpt lat="43.11970199999975" lon="-1.2442080000000006">
        <ele>557.409</ele>
        <time>2022-08-24T07:21:15Z</time>
      </trkpt>
      <trkpt lat="43.119691999999745" lon="-1.2442010000000006">
        <ele>557.439</ele>
        <time>2022-08-24T07:21:16Z</time>
      </trkpt>
      <trkpt lat="43.119680999999744" lon="-1.2441980000000006">
        <ele>557.659</ele>
        <time>2022-08-24T07:21:17Z</time>
      </trkpt>
      <trkpt lat="43.11966999999974" lon="-1.2441920000000006">
        <ele>557.839</ele>
        <time>2022-08-24T07:21:18Z</time>
      </trkpt>
      <trkpt lat="43.119657999999745" lon="-1.2441830000000007">
        <ele>558.085</ele>
        <time>2022-08-24T07:21:19Z</time>
      </trkpt>
      <trkpt lat="43.11964599999975" lon="-1.2441700000000007">
        <ele>558.057</ele>
        <time>2022-08-24T07:21:20Z</time>
      </trkpt>
      <trkpt lat="43.11963499999975" lon="-1.2441570000000006">
        <ele>558.264</ele>
        <time>2022-08-24T07:21:21Z</time>
      </trkpt>
      <trkpt lat="43.119623999999746" lon="-1.2441440000000006">
        <ele>558.267</ele>
        <time>2022-08-24T07:21:22Z</time>
      </trkpt>
      <trkpt lat="43.119612999999745" lon="-1.2441360000000006">
        <ele>558.471</ele>
        <time>2022-08-24T07:21:23Z</time>
      </trkpt>
      <trkpt lat="43.11959999999974" lon="-1.2441310000000005">
        <ele>558.670</ele>
        <time>2022-08-24T07:21:24Z</time>
      </trkpt>
      <trkpt lat="43.119584999999745" lon="-1.2441220000000006">
        <ele>558.676</ele>
        <time>2022-08-24T07:21:25Z</time>
      </trkpt>
      <trkpt lat="43.11957299999975" lon="-1.2441100000000007">
        <ele>558.890</ele>
        <time>2022-08-24T07:21:26Z</time>
      </trkpt>
      <trkpt lat="43.11956399999975" lon="-1.2440980000000008">
        <ele>558.819</ele>
        <time>2022-08-24T07:21:27Z</time>
      </trkpt>
      <trkpt lat="43.11955499999975" lon="-1.2440840000000009">
        <ele>559.009</ele>
        <time>2022-08-24T07:21:28Z</time>
      </trkpt>
      <trkpt lat="43.11954399999975" lon="-1.244070000000001">
        <ele>559.428</ele>
        <time>2022-08-24T07:21:29Z</time>
      </trkpt>
      <trkpt lat="43.11953699999975" lon="-1.244058000000001">
        <ele>559.858</ele>
        <time>2022-08-24T07:21:30Z</time>
      </trkpt>
      <trkpt lat="43.119527999999754" lon="-1.244050000000001">
        <ele>560.028</ele>
        <time>2022-08-24T07:21:31Z</time>
      </trkpt>
      <trkpt lat="43.11951699999975" lon="-1.244042000000001">
        <ele>560.064</ele>
        <time>2022-08-24T07:21:32Z</time>
      </trkpt>
      <trkpt lat="43.11950699999975" lon="-1.244034000000001">
        <ele>560.236</ele>
        <time>2022-08-24T07:21:33Z</time>
      </trkpt>
      <trkpt lat="43.11949599999975" lon="-1.244026000000001">
        <ele>560.463</ele>
        <time>2022-08-24T07:21:34Z</time>
      </trkpt>
      <trkpt lat="43.11948499999975" lon="-1.244022000000001">
        <ele>561.066</ele>
        <time>2022-08-24T07:21:35Z</time>
      </trkpt>
      <trkpt lat="43.11947599999975" lon="-1.244020000000001">
        <ele>561.210</ele>
        <time>2022-08-24T07:21:36Z</time>
      </trkpt>
      <trkpt lat="43.11946299999975" lon="-1.244013000000001">
        <ele>561.669</ele>
        <time>2022-08-24T07:21:37Z</time>
      </trkpt>
      <trkpt lat="43.119452999999744" lon="-1.244004000000001">
        <ele>561.815</ele>
        <time>2022-08-24T07:21:38Z</time>
      </trkpt>
      <trkpt lat="43.119446999999745" lon="-1.243996000000001">
        <ele>561.865</ele>
        <time>2022-08-24T07:21:39Z</time>
      </trkpt>
      <trkpt lat="43.11944299999975" lon="-1.243982000000001">
        <ele>561.811</ele>
        <time>2022-08-24T07:21:40Z</time>
      </trkpt>
      <trkpt lat="43.11943599999975" lon="-1.2439700000000011">
        <ele>562.009</ele>
        <time>2022-08-24T07:21:41Z</time>
      </trkpt>
      <trkpt lat="43.11942999999975" lon="-1.2439620000000011">
        <ele>562.272</ele>
        <time>2022-08-24T07:21:42Z</time>
      </trkpt>
      <trkpt lat="43.11941999999975" lon="-1.2439540000000011">
        <ele>562.852</ele>
        <time>2022-08-24T07:21:43Z</time>
      </trkpt>
      <trkpt lat="43.11941199999975" lon="-1.2439480000000012">
        <ele>562.872</ele>
        <time>2022-08-24T07:21:44Z</time>
      </trkpt>
      <trkpt lat="43.119401999999745" lon="-1.2439430000000011">
        <ele>563.258</ele>
        <time>2022-08-24T07:21:45Z</time>
      </trkpt>
      <trkpt lat="43.119393999999744" lon="-1.2439390000000012">
        <ele>563.220</ele>
        <time>2022-08-24T07:21:46Z</time>
      </trkpt>
      <trkpt lat="43.11938599999974" lon="-1.2439310000000012">
        <ele>563.477</ele>
        <time>2022-08-24T07:21:47Z</time>
      </trkpt>
      <trkpt lat="43.119378999999746" lon="-1.2439180000000012">
        <ele>563.670</ele>
        <time>2022-08-24T07:21:48Z</time>
      </trkpt>
      <trkpt lat="43.11937199999975" lon="-1.2439100000000012">
        <ele>563.894</ele>
        <time>2022-08-24T07:21:49Z</time>
      </trkpt>
      <trkpt lat="43.11936399999975" lon="-1.2439040000000012">
        <ele>564.043</ele>
        <time>2022-08-24T07:21:50Z</time>
      </trkpt>
      <trkpt lat="43.11935599999975" lon="-1.2438970000000011">
        <ele>564.243</ele>
        <time>2022-08-24T07:21:51Z</time>
      </trkpt>
      <trkpt lat="43.119350999999746" lon="-1.2438890000000011">
        <ele>564.464</ele>
        <time>2022-08-24T07:21:52Z</time>
      </trkpt>
      <trkpt lat="43.119342999999745" lon="-1.2438810000000011">
        <ele>564.410</ele>
        <time>2022-08-24T07:21:53Z</time>
      </trkpt>
      <trkpt lat="43.119333999999746" lon="-1.2438720000000012">
        <ele>564.609</ele>
        <time>2022-08-24T07:21:54Z</time>
      </trkpt>
      <trkpt lat="43.119325999999745" lon="-1.2438630000000013">
        <ele>564.835</ele>
        <time>2022-08-24T07:21:55Z</time>
      </trkpt>
      <trkpt lat="43.119319999999746" lon="-1.2438550000000013">
        <ele>565.035</ele>
        <time>2022-08-24T07:21:56Z</time>
      </trkpt>
      <trkpt lat="43.11931299999975" lon="-1.2438480000000012">
        <ele>565.285</ele>
        <time>2022-08-24T07:21:57Z</time>
      </trkpt>
      <trkpt lat="43.11930599999975" lon="-1.2438400000000012">
        <ele>565.251</ele>
        <time>2022-08-24T07:21:58Z</time>
      </trkpt>
      <trkpt lat="43.11930099999975" lon="-1.2438280000000013">
        <ele>565.423</ele>
        <time>2022-08-24T07:21:59Z</time>
      </trkpt>
      <trkpt lat="43.119296999999754" lon="-1.2438170000000013">
        <ele>565.420</ele>
        <time>2022-08-24T07:22:00Z</time>
      </trkpt>
      <trkpt lat="43.11928999999976" lon="-1.2438090000000013">
        <ele>565.673</ele>
        <time>2022-08-24T07:22:01Z</time>
      </trkpt>
      <trkpt lat="43.11928199999976" lon="-1.2438030000000013">
        <ele>565.877</ele>
        <time>2022-08-24T07:22:02Z</time>
      </trkpt>
      <trkpt lat="43.119273999999756" lon="-1.2437990000000014">
        <ele>566.026</ele>
        <time>2022-08-24T07:22:03Z</time>
      </trkpt>
      <trkpt lat="43.11926499999976" lon="-1.2437920000000013">
        <ele>566.266</ele>
        <time>2022-08-24T07:22:04Z</time>
      </trkpt>
      <trkpt lat="43.119256999999756" lon="-1.2437840000000013">
        <ele>566.229</ele>
        <time>2022-08-24T07:22:05Z</time>
      </trkpt>
      <trkpt lat="43.11925099999976" lon="-1.2437760000000013">
        <ele>566.621</ele>
        <time>2022-08-24T07:22:06Z</time>
      </trkpt>
      <trkpt lat="43.11924399999976" lon="-1.2437690000000012">
        <ele>566.809</ele>
        <time>2022-08-24T07:22:07Z</time>
      </trkpt>
      <trkpt lat="43.11923599999976" lon="-1.2437600000000013">
        <ele>567.057</ele>
        <time>2022-08-24T07:22:08Z</time>
      </trkpt>
      <trkpt lat="43.11922899999976" lon="-1.2437500000000012">
        <ele>567.017</ele>
        <time>2022-08-24T07:22:09Z</time>
      </trkpt>
      <trkpt lat="43.119222999999764" lon="-1.2437360000000013">
        <ele>567.267</ele>
        <time>2022-08-24T07:22:10Z</time>
      </trkpt>
      <trkpt lat="43.11921799999976" lon="-1.2437210000000012">
        <ele>567.463</ele>
        <time>2022-08-24T07:22:11Z</time>
      </trkpt>
      <trkpt lat="43.119210999999765" lon="-1.2437070000000012">
        <ele>567.845</ele>
        <time>2022-08-24T07:22:12Z</time>
      </trkpt>
      <trkpt lat="43.11920399999977" lon="-1.2436910000000012">
        <ele>568.052</ele>
        <time>2022-08-24T07:22:13Z</time>
      </trkpt>
      <trkpt lat="43.11919599999977" lon="-1.2436790000000013">
        <ele>568.095</ele>
        <time>2022-08-24T07:22:14Z</time>
      </trkpt>
      <trkpt lat="43.119185999999765" lon="-1.2436680000000013">
        <ele>568.039</ele>
        <time>2022-08-24T07:22:15Z</time>
      </trkpt>
      <trkpt lat="43.119176999999766" lon="-1.2436600000000013">
        <ele>568.268</ele>
        <time>2022-08-24T07:22:16Z</time>
      </trkpt>
      <trkpt lat="43.119168999999765" lon="-1.2436520000000013">
        <ele>568.449</ele>
        <time>2022-08-24T07:22:17Z</time>
      </trkpt>
      <trkpt lat="43.11916199999977" lon="-1.2436450000000012">
        <ele>568.602</ele>
        <time>2022-08-24T07:22:18Z</time>
      </trkpt>
      <trkpt lat="43.11915399999977" lon="-1.2436370000000012">
        <ele>568.622</ele>
        <time>2022-08-24T07:22:19Z</time>
      </trkpt>
      <trkpt lat="43.11914699999977" lon="-1.2436260000000012">
        <ele>569.009</ele>
        <time>2022-08-24T07:22:20Z</time>
      </trkpt>
      <trkpt lat="43.119139999999774" lon="-1.2436180000000012">
        <ele>569.015</ele>
        <time>2022-08-24T07:22:21Z</time>
      </trkpt>
      <trkpt lat="43.11913199999977" lon="-1.2436110000000011">
        <ele>569.225</ele>
        <time>2022-08-24T07:22:22Z</time>
      </trkpt>
      <trkpt lat="43.119122999999774" lon="-1.2436050000000012">
        <ele>569.495</ele>
        <time>2022-08-24T07:22:23Z</time>
      </trkpt>
      <trkpt lat="43.11911499999977" lon="-1.2435960000000013">
        <ele>569.641</ele>
        <time>2022-08-24T07:22:24Z</time>
      </trkpt>
      <trkpt lat="43.11910699999977" lon="-1.2435870000000013">
        <ele>569.823</ele>
        <time>2022-08-24T07:22:25Z</time>
      </trkpt>
      <trkpt lat="43.11909899999977" lon="-1.2435790000000013">
        <ele>570.090</ele>
        <time>2022-08-24T07:22:26Z</time>
      </trkpt>
      <trkpt lat="43.119091999999775" lon="-1.2435690000000013">
        <ele>570.073</ele>
        <time>2022-08-24T07:22:27Z</time>
      </trkpt>
      <trkpt lat="43.119085999999776" lon="-1.2435540000000012">
        <ele>570.287</ele>
        <time>2022-08-24T07:22:28Z</time>
      </trkpt>
      <trkpt lat="43.11907999999978" lon="-1.2435400000000012">
        <ele>570.276</ele>
        <time>2022-08-24T07:22:29Z</time>
      </trkpt>
      <trkpt lat="43.11907099999978" lon="-1.2435290000000012">
        <ele>570.464</ele>
        <time>2022-08-24T07:22:30Z</time>
      </trkpt>
      <trkpt lat="43.119060999999775" lon="-1.2435200000000013">
        <ele>570.606</ele>
        <time>2022-08-24T07:22:31Z</time>
      </trkpt>
      <trkpt lat="43.119051999999776" lon="-1.2435110000000014">
        <ele>570.816</ele>
        <time>2022-08-24T07:22:32Z</time>
      </trkpt>
      <trkpt lat="43.119040999999775" lon="-1.2435030000000014">
        <ele>571.009</ele>
        <time>2022-08-24T07:22:33Z</time>
      </trkpt>
      <trkpt lat="43.11903099999977" lon="-1.2434910000000015">
        <ele>571.297</ele>
        <time>2022-08-24T07:22:34Z</time>
      </trkpt>
      <trkpt lat="43.11902599999977" lon="-1.2434820000000015">
        <ele>571.247</ele>
        <time>2022-08-24T07:22:35Z</time>
      </trkpt>
      <trkpt lat="43.119018999999774" lon="-1.2434730000000016">
        <ele>571.687</ele>
        <time>2022-08-24T07:22:36Z</time>
      </trkpt>
      <trkpt lat="43.11901099999977" lon="-1.2434640000000017">
        <ele>571.683</ele>
        <time>2022-08-24T07:22:37Z</time>
      </trkpt>
      <trkpt lat="43.11900399999978" lon="-1.2434520000000018">
        <ele>571.885</ele>
        <time>2022-08-24T07:22:38Z</time>
      </trkpt>
      <trkpt lat="43.11899799999978" lon="-1.2434390000000017">
        <ele>572.022</ele>
        <time>2022-08-24T07:22:39Z</time>
      </trkpt>
      <trkpt lat="43.11899099999978" lon="-1.2434290000000017">
        <ele>572.275</ele>
        <time>2022-08-24T07:22:40Z</time>
      </trkpt>
      <trkpt lat="43.11898199999978" lon="-1.2434200000000017">
        <ele>572.449</ele>
        <time>2022-08-24T07:22:41Z</time>
      </trkpt>
      <trkpt lat="43.11897199999978" lon="-1.2434110000000018">
        <ele>572.418</ele>
        <time>2022-08-24T07:22:42Z</time>
      </trkpt>
      <trkpt lat="43.11896099999978" lon="-1.2434030000000018">
        <ele>572.694</ele>
        <time>2022-08-24T07:22:43Z</time>
      </trkpt>
      <trkpt lat="43.11894899999978" lon="-1.2433940000000019">
        <ele>572.657</ele>
        <time>2022-08-24T07:22:44Z</time>
      </trkpt>
      <trkpt lat="43.11893699999978" lon="-1.243380000000002">
        <ele>572.822</ele>
        <time>2022-08-24T07:22:45Z</time>
      </trkpt>
      <trkpt lat="43.11892899999978" lon="-1.243371000000002">
        <ele>573.009</ele>
        <time>2022-08-24T07:22:46Z</time>
      </trkpt>
      <trkpt lat="43.11892099999978" lon="-1.243363000000002">
        <ele>573.270</ele>
        <time>2022-08-24T07:22:47Z</time>
      </trkpt>
      <trkpt lat="43.11891099999978" lon="-1.243356000000002">
        <ele>573.640</ele>
        <time>2022-08-24T07:22:48Z</time>
      </trkpt>
      <trkpt lat="43.118902999999776" lon="-1.243347000000002">
        <ele>573.660</ele>
        <time>2022-08-24T07:22:49Z</time>
      </trkpt>
      <trkpt lat="43.11889599999978" lon="-1.243335000000002">
        <ele>573.836</ele>
        <time>2022-08-24T07:22:50Z</time>
      </trkpt>
      <trkpt lat="43.11888999999978" lon="-1.2433230000000022">
        <ele>573.878</ele>
        <time>2022-08-24T07:22:51Z</time>
      </trkpt>
      <trkpt lat="43.11888199999978" lon="-1.2433120000000022">
        <ele>574.045</ele>
        <time>2022-08-24T07:22:52Z</time>
      </trkpt>
      <trkpt lat="43.11887299999978" lon="-1.2433040000000022">
        <ele>574.498</ele>
        <time>2022-08-24T07:22:53Z</time>
      </trkpt>
      <trkpt lat="43.11886299999978" lon="-1.2432960000000022">
        <ele>574.432</ele>
        <time>2022-08-24T07:22:54Z</time>
      </trkpt>
      <trkpt lat="43.118852999999774" lon="-1.243289000000002">
        <ele>574.661</ele>
        <time>2022-08-24T07:22:55Z</time>
      </trkpt>
      <trkpt lat="43.118843999999775" lon="-1.243282000000002">
        <ele>574.834</ele>
        <time>2022-08-24T07:22:56Z</time>
      </trkpt>
      <trkpt lat="43.11883499999978" lon="-1.243273000000002">
        <ele>574.855</ele>
        <time>2022-08-24T07:22:57Z</time>
      </trkpt>
      <trkpt lat="43.11882799999978" lon="-1.243263000000002">
        <ele>575.010</ele>
        <time>2022-08-24T07:22:58Z</time>
      </trkpt>
      <trkpt lat="43.11882199999978" lon="-1.243254000000002">
        <ele>575.209</ele>
        <time>2022-08-24T07:22:59Z</time>
      </trkpt>
      <trkpt lat="43.11881399999978" lon="-1.243247000000002">
        <ele>575.224</ele>
        <time>2022-08-24T07:23:00Z</time>
      </trkpt>
      <trkpt lat="43.11880299999978" lon="-1.243240000000002">
        <ele>575.214</ele>
        <time>2022-08-24T07:23:01Z</time>
      </trkpt>
      <trkpt lat="43.11879399999978" lon="-1.2432300000000018">
        <ele>575.484</ele>
        <time>2022-08-24T07:23:02Z</time>
      </trkpt>
      <trkpt lat="43.118786999999784" lon="-1.2432220000000018">
        <ele>575.650</ele>
        <time>2022-08-24T07:23:03Z</time>
      </trkpt>
      <trkpt lat="43.11877699999978" lon="-1.2432150000000017">
        <ele>575.812</ele>
        <time>2022-08-24T07:23:04Z</time>
      </trkpt>
      <trkpt lat="43.11876899999978" lon="-1.2432040000000018">
        <ele>575.899</ele>
        <time>2022-08-24T07:23:05Z</time>
      </trkpt>
      <trkpt lat="43.11875899999978" lon="-1.2431900000000018">
        <ele>576.282</ele>
        <time>2022-08-24T07:23:06Z</time>
      </trkpt>
      <trkpt lat="43.118745999999774" lon="-1.2431730000000019">
        <ele>576.046</ele>
        <time>2022-08-24T07:23:07Z</time>
      </trkpt>
      <trkpt lat="43.11873299999977" lon="-1.2431570000000018">
        <ele>576.445</ele>
        <time>2022-08-24T07:23:08Z</time>
      </trkpt>
      <trkpt lat="43.118717999999774" lon="-1.2431440000000018">
        <ele>576.676</ele>
        <time>2022-08-24T07:23:09Z</time>
      </trkpt>
      <trkpt lat="43.11870499999977" lon="-1.2431270000000019">
        <ele>576.690</ele>
        <time>2022-08-24T07:23:10Z</time>
      </trkpt>
      <trkpt lat="43.11869399999977" lon="-1.2431090000000018">
        <ele>576.819</ele>
        <time>2022-08-24T07:23:11Z</time>
      </trkpt>
      <trkpt lat="43.11868399999977" lon="-1.2430960000000018">
        <ele>576.809</ele>
        <time>2022-08-24T07:23:12Z</time>
      </trkpt>
      <trkpt lat="43.118670999999765" lon="-1.2430850000000018">
        <ele>577.038</ele>
        <time>2022-08-24T07:23:13Z</time>
      </trkpt>
      <trkpt lat="43.11865899999977" lon="-1.2430740000000018">
        <ele>577.428</ele>
        <time>2022-08-24T07:23:14Z</time>
      </trkpt>
      <trkpt lat="43.11864699999977" lon="-1.2430650000000019">
        <ele>577.438</ele>
        <time>2022-08-24T07:23:15Z</time>
      </trkpt>
      <trkpt lat="43.11863499999977" lon="-1.2430540000000019">
        <ele>577.624</ele>
        <time>2022-08-24T07:23:16Z</time>
      </trkpt>
      <trkpt lat="43.11862599999977" lon="-1.243040000000002">
        <ele>577.836</ele>
        <time>2022-08-24T07:23:17Z</time>
      </trkpt>
      <trkpt lat="43.11861599999977" lon="-1.243028000000002">
        <ele>578.023</ele>
        <time>2022-08-24T07:23:18Z</time>
      </trkpt>
      <trkpt lat="43.11860499999977" lon="-1.243017000000002">
        <ele>578.286</ele>
        <time>2022-08-24T07:23:19Z</time>
      </trkpt>
      <trkpt lat="43.11859599999977" lon="-1.2430080000000021">
        <ele>578.450</ele>
        <time>2022-08-24T07:23:20Z</time>
      </trkpt>
      <trkpt lat="43.11858699999977" lon="-1.242998000000002">
        <ele>578.879</ele>
        <time>2022-08-24T07:23:21Z</time>
      </trkpt>
      <trkpt lat="43.118579999999774" lon="-1.242985000000002">
        <ele>579.033</ele>
        <time>2022-08-24T07:23:22Z</time>
      </trkpt>
      <trkpt lat="43.118570999999775" lon="-1.242972000000002">
        <ele>579.223</ele>
        <time>2022-08-24T07:23:23Z</time>
      </trkpt>
      <trkpt lat="43.118559999999775" lon="-1.242960000000002">
        <ele>579.415</ele>
        <time>2022-08-24T07:23:24Z</time>
      </trkpt>
      <trkpt lat="43.11854999999977" lon="-1.242953000000002">
        <ele>579.409</ele>
        <time>2022-08-24T07:23:25Z</time>
      </trkpt>
      <trkpt lat="43.11854199999977" lon="-1.242945000000002">
        <ele>579.614</ele>
        <time>2022-08-24T07:23:26Z</time>
      </trkpt>
      <trkpt lat="43.11853199999977" lon="-1.242933000000002">
        <ele>579.684</ele>
        <time>2022-08-24T07:23:27Z</time>
      </trkpt>
      <trkpt lat="43.11852299999977" lon="-1.242923000000002">
        <ele>579.874</ele>
        <time>2022-08-24T07:23:28Z</time>
      </trkpt>
      <trkpt lat="43.11851399999977" lon="-1.242914000000002">
        <ele>580.040</ele>
        <time>2022-08-24T07:23:29Z</time>
      </trkpt>
      <trkpt lat="43.11850499999977" lon="-1.242903000000002">
        <ele>580.082</ele>
        <time>2022-08-24T07:23:30Z</time>
      </trkpt>
      <trkpt lat="43.11849399999977" lon="-1.2428910000000022">
        <ele>580.279</ele>
        <time>2022-08-24T07:23:31Z</time>
      </trkpt>
      <trkpt lat="43.11848599999977" lon="-1.2428820000000023">
        <ele>580.412</ele>
        <time>2022-08-24T07:23:32Z</time>
      </trkpt>
      <trkpt lat="43.11847699999977" lon="-1.2428720000000022">
        <ele>580.426</ele>
        <time>2022-08-24T07:23:33Z</time>
      </trkpt>
      <trkpt lat="43.11846899999977" lon="-1.2428640000000022">
        <ele>580.625</ele>
        <time>2022-08-24T07:23:34Z</time>
      </trkpt>
      <trkpt lat="43.11846099999977" lon="-1.2428550000000023">
        <ele>580.896</ele>
        <time>2022-08-24T07:23:35Z</time>
      </trkpt>
      <trkpt lat="43.11845499999977" lon="-1.2428450000000022">
        <ele>581.031</ele>
        <time>2022-08-24T07:23:36Z</time>
      </trkpt>
      <trkpt lat="43.11844999999977" lon="-1.2428320000000022">
        <ele>581.024</ele>
        <time>2022-08-24T07:23:37Z</time>
      </trkpt>
      <trkpt lat="43.11844099999977" lon="-1.2428210000000022">
        <ele>581.209</ele>
        <time>2022-08-24T07:23:38Z</time>
      </trkpt>
      <trkpt lat="43.11843199999977" lon="-1.242811000000002">
        <ele>581.490</ele>
        <time>2022-08-24T07:23:39Z</time>
      </trkpt>
      <trkpt lat="43.118424999999775" lon="-1.242801000000002">
        <ele>581.660</ele>
        <time>2022-08-24T07:23:40Z</time>
      </trkpt>
      <trkpt lat="43.11841699999977" lon="-1.2427920000000021">
        <ele>581.880</ele>
        <time>2022-08-24T07:23:41Z</time>
      </trkpt>
      <trkpt lat="43.11840899999977" lon="-1.242782000000002">
        <ele>581.886</ele>
        <time>2022-08-24T07:23:42Z</time>
      </trkpt>
      <trkpt lat="43.11839899999977" lon="-1.242771000000002">
        <ele>582.098</ele>
        <time>2022-08-24T07:23:43Z</time>
      </trkpt>
      <trkpt lat="43.11838699999977" lon="-1.242758000000002">
        <ele>582.015</ele>
        <time>2022-08-24T07:23:44Z</time>
      </trkpt>
      <trkpt lat="43.11837499999977" lon="-1.2427460000000021">
        <ele>582.288</ele>
        <time>2022-08-24T07:23:45Z</time>
      </trkpt>
      <trkpt lat="43.11836499999977" lon="-1.242736000000002">
        <ele>582.282</ele>
        <time>2022-08-24T07:23:46Z</time>
      </trkpt>
      <trkpt lat="43.11835399999977" lon="-1.242726000000002">
        <ele>582.491</ele>
        <time>2022-08-24T07:23:47Z</time>
      </trkpt>
      <trkpt lat="43.118343999999766" lon="-1.242714000000002">
        <ele>582.655</ele>
        <time>2022-08-24T07:23:48Z</time>
      </trkpt>
      <trkpt lat="43.11833199999977" lon="-1.2427000000000021">
        <ele>582.607</ele>
        <time>2022-08-24T07:23:49Z</time>
      </trkpt>
      <trkpt lat="43.11831999999977" lon="-1.2426880000000022">
        <ele>582.817</ele>
        <time>2022-08-24T07:23:50Z</time>
      </trkpt>
      <trkpt lat="43.11830899999977" lon="-1.2426780000000022">
        <ele>582.809</ele>
        <time>2022-08-24T07:23:51Z</time>
      </trkpt>
      <trkpt lat="43.11829999999977" lon="-1.242671000000002">
        <ele>582.866</ele>
        <time>2022-08-24T07:23:52Z</time>
      </trkpt>
      <trkpt lat="43.118292999999774" lon="-1.242661000000002">
        <ele>583.236</ele>
        <time>2022-08-24T07:23:53Z</time>
      </trkpt>
      <trkpt lat="43.11828799999977" lon="-1.242647000000002">
        <ele>583.276</ele>
        <time>2022-08-24T07:23:54Z</time>
      </trkpt>
      <trkpt lat="43.11827999999977" lon="-1.242628000000002">
        <ele>583.622</ele>
        <time>2022-08-24T07:23:55Z</time>
      </trkpt>
      <trkpt lat="43.11827499999977" lon="-1.242613000000002">
        <ele>583.844</ele>
        <time>2022-08-24T07:23:56Z</time>
      </trkpt>
      <trkpt lat="43.11826899999977" lon="-1.242599000000002">
        <ele>584.071</ele>
        <time>2022-08-24T07:23:57Z</time>
      </trkpt>
      <trkpt lat="43.11825999999977" lon="-1.242588000000002">
        <ele>584.284</ele>
        <time>2022-08-24T07:23:58Z</time>
      </trkpt>
      <trkpt lat="43.11825199999977" lon="-1.242577000000002">
        <ele>584.298</ele>
        <time>2022-08-24T07:23:59Z</time>
      </trkpt>
      <trkpt lat="43.11824199999977" lon="-1.2425650000000021">
        <ele>584.487</ele>
        <time>2022-08-24T07:24:00Z</time>
      </trkpt>
      <trkpt lat="43.11823299999977" lon="-1.242555000000002">
        <ele>584.494</ele>
        <time>2022-08-24T07:24:01Z</time>
      </trkpt>
      <trkpt lat="43.118222999999766" lon="-1.242545000000002">
        <ele>584.657</ele>
        <time>2022-08-24T07:24:02Z</time>
      </trkpt>
      <trkpt lat="43.11821299999976" lon="-1.242536000000002">
        <ele>585.022</ele>
        <time>2022-08-24T07:24:03Z</time>
      </trkpt>
      <trkpt lat="43.11820499999976" lon="-1.242525000000002">
        <ele>585.009</ele>
        <time>2022-08-24T07:24:04Z</time>
      </trkpt>
      <trkpt lat="43.118197999999765" lon="-1.242512000000002">
        <ele>585.460</ele>
        <time>2022-08-24T07:24:05Z</time>
      </trkpt>
      <trkpt lat="43.118191999999766" lon="-1.242499000000002">
        <ele>585.440</ele>
        <time>2022-08-24T07:24:06Z</time>
      </trkpt>
      <trkpt lat="43.11818499999977" lon="-1.242485000000002">
        <ele>585.690</ele>
        <time>2022-08-24T07:24:07Z</time>
      </trkpt>
      <trkpt lat="43.11817599999977" lon="-1.2424730000000022">
        <ele>585.646</ele>
        <time>2022-08-24T07:24:08Z</time>
      </trkpt>
      <trkpt lat="43.11816799999977" lon="-1.2424620000000022">
        <ele>585.838</ele>
        <time>2022-08-24T07:24:09Z</time>
      </trkpt>
      <trkpt lat="43.11815899999977" lon="-1.2424530000000023">
        <ele>586.065</ele>
        <time>2022-08-24T07:24:10Z</time>
      </trkpt>
      <trkpt lat="43.11814899999977" lon="-1.2424420000000023">
        <ele>586.058</ele>
        <time>2022-08-24T07:24:11Z</time>
      </trkpt>
      <trkpt lat="43.118138999999765" lon="-1.2424300000000024">
        <ele>586.232</ele>
        <time>2022-08-24T07:24:12Z</time>
      </trkpt>
      <trkpt lat="43.11812899999976" lon="-1.2424200000000023">
        <ele>586.281</ele>
        <time>2022-08-24T07:24:13Z</time>
      </trkpt>
      <trkpt lat="43.11811699999976" lon="-1.2424080000000024">
        <ele>586.451</ele>
        <time>2022-08-24T07:24:14Z</time>
      </trkpt>
      <trkpt lat="43.11810699999976" lon="-1.2423950000000024">
        <ele>586.601</ele>
        <time>2022-08-24T07:24:15Z</time>
      </trkpt>
      <trkpt lat="43.118099999999764" lon="-1.2423820000000023">
        <ele>586.811</ele>
        <time>2022-08-24T07:24:16Z</time>
      </trkpt>
      <trkpt lat="43.11809299999977" lon="-1.2423660000000023">
        <ele>587.009</ele>
        <time>2022-08-24T07:24:17Z</time>
      </trkpt>
      <trkpt lat="43.118084999999766" lon="-1.2423500000000023">
        <ele>587.036</ele>
        <time>2022-08-24T07:24:18Z</time>
      </trkpt>
      <trkpt lat="43.11807299999977" lon="-1.2423370000000022">
        <ele>587.276</ele>
        <time>2022-08-24T07:24:19Z</time>
      </trkpt>
      <trkpt lat="43.118059999999765" lon="-1.2423310000000023">
        <ele>587.286</ele>
        <time>2022-08-24T07:24:20Z</time>
      </trkpt>
      <trkpt lat="43.118045999999765" lon="-1.2423250000000023">
        <ele>587.442</ele>
        <time>2022-08-24T07:24:21Z</time>
      </trkpt>
      <trkpt lat="43.11803299999976" lon="-1.2423140000000024">
        <ele>587.484</ele>
        <time>2022-08-24T07:24:22Z</time>
      </trkpt>
      <trkpt lat="43.11802299999976" lon="-1.2423020000000025">
        <ele>587.651</ele>
        <time>2022-08-24T07:24:23Z</time>
      </trkpt>
      <trkpt lat="43.11801399999976" lon="-1.2422880000000025">
        <ele>587.834</ele>
        <time>2022-08-24T07:24:24Z</time>
      </trkpt>
      <trkpt lat="43.11800499999976" lon="-1.2422740000000025">
        <ele>587.888</ele>
        <time>2022-08-24T07:24:25Z</time>
      </trkpt>
      <trkpt lat="43.11799699999976" lon="-1.2422600000000026">
        <ele>588.237</ele>
        <time>2022-08-24T07:24:26Z</time>
      </trkpt>
      <trkpt lat="43.11798799999976" lon="-1.2422440000000026">
        <ele>588.239</ele>
        <time>2022-08-24T07:24:27Z</time>
      </trkpt>
      <trkpt lat="43.11797799999976" lon="-1.2422330000000026">
        <ele>588.401</ele>
        <time>2022-08-24T07:24:28Z</time>
      </trkpt>
      <trkpt lat="43.11796399999976" lon="-1.2422240000000027">
        <ele>588.621</ele>
        <time>2022-08-24T07:24:29Z</time>
      </trkpt>
      <trkpt lat="43.117953999999756" lon="-1.2422130000000027">
        <ele>588.609</ele>
        <time>2022-08-24T07:24:30Z</time>
      </trkpt>
      <trkpt lat="43.11794499999976" lon="-1.2422000000000026">
        <ele>589.034</ele>
        <time>2022-08-24T07:24:31Z</time>
      </trkpt>
      <trkpt lat="43.117934999999754" lon="-1.2421860000000027">
        <ele>589.024</ele>
        <time>2022-08-24T07:24:32Z</time>
      </trkpt>
      <trkpt lat="43.117925999999756" lon="-1.2421730000000026">
        <ele>589.244</ele>
        <time>2022-08-24T07:24:33Z</time>
      </trkpt>
      <trkpt lat="43.117914999999755" lon="-1.2421610000000027">
        <ele>589.420</ele>
        <time>2022-08-24T07:24:34Z</time>
      </trkpt>
      <trkpt lat="43.11790299999976" lon="-1.2421500000000028">
        <ele>589.672</ele>
        <time>2022-08-24T07:24:35Z</time>
      </trkpt>
      <trkpt lat="43.117891999999756" lon="-1.2421380000000029">
        <ele>589.619</ele>
        <time>2022-08-24T07:24:36Z</time>
      </trkpt>
      <trkpt lat="43.117880999999755" lon="-1.2421250000000028">
        <ele>589.882</ele>
        <time>2022-08-24T07:24:37Z</time>
      </trkpt>
      <trkpt lat="43.11787099999975" lon="-1.242113000000003">
        <ele>589.866</ele>
        <time>2022-08-24T07:24:38Z</time>
      </trkpt>
      <trkpt lat="43.11786099999975" lon="-1.2421000000000029">
        <ele>590.015</ele>
        <time>2022-08-24T07:24:39Z</time>
      </trkpt>
      <trkpt lat="43.11784999999975" lon="-1.2420870000000028">
        <ele>590.274</ele>
        <time>2022-08-24T07:24:40Z</time>
      </trkpt>
      <trkpt lat="43.11783799999975" lon="-1.2420740000000028">
        <ele>590.256</ele>
        <time>2022-08-24T07:24:41Z</time>
      </trkpt>
      <trkpt lat="43.11782899999975" lon="-1.2420610000000027">
        <ele>590.421</ele>
        <time>2022-08-24T07:24:42Z</time>
      </trkpt>
      <trkpt lat="43.11781899999975" lon="-1.2420490000000028">
        <ele>590.609</ele>
        <time>2022-08-24T07:24:43Z</time>
      </trkpt>
      <trkpt lat="43.11781099999975" lon="-1.2420340000000027">
        <ele>590.818</ele>
        <time>2022-08-24T07:24:44Z</time>
      </trkpt>
      <trkpt lat="43.117802999999746" lon="-1.2420190000000026">
        <ele>591.048</ele>
        <time>2022-08-24T07:24:45Z</time>
      </trkpt>
      <trkpt lat="43.11779599999975" lon="-1.2420030000000026">
        <ele>591.238</ele>
        <time>2022-08-24T07:24:46Z</time>
      </trkpt>
      <trkpt lat="43.11778799999975" lon="-1.2419870000000026">
        <ele>591.264</ele>
        <time>2022-08-24T07:24:47Z</time>
      </trkpt>
      <trkpt lat="43.11777899999975" lon="-1.2419740000000026">
        <ele>591.476</ele>
        <time>2022-08-24T07:24:48Z</time>
      </trkpt>
      <trkpt lat="43.11776799999975" lon="-1.2419660000000026">
        <ele>591.653</ele>
        <time>2022-08-24T07:24:49Z</time>
      </trkpt>
      <trkpt lat="43.11775699999975" lon="-1.2419620000000027">
        <ele>591.686</ele>
        <time>2022-08-24T07:24:50Z</time>
      </trkpt>
      <trkpt lat="43.11774599999975" lon="-1.2419570000000026">
        <ele>591.840</ele>
        <time>2022-08-24T07:24:51Z</time>
      </trkpt>
      <trkpt lat="43.117735999999745" lon="-1.2419500000000026">
        <ele>592.029</ele>
        <time>2022-08-24T07:24:52Z</time>
      </trkpt>
      <trkpt lat="43.11772599999974" lon="-1.2419400000000025">
        <ele>592.056</ele>
        <time>2022-08-24T07:24:53Z</time>
      </trkpt>
      <trkpt lat="43.11771599999974" lon="-1.2419310000000026">
        <ele>592.259</ele>
        <time>2022-08-24T07:24:54Z</time>
      </trkpt>
      <trkpt lat="43.117705999999735" lon="-1.2419200000000026">
        <ele>592.414</ele>
        <time>2022-08-24T07:24:55Z</time>
      </trkpt>
      <trkpt lat="43.11769599999973" lon="-1.2419090000000026">
        <ele>592.409</ele>
        <time>2022-08-24T07:24:56Z</time>
      </trkpt>
      <trkpt lat="43.117683999999734" lon="-1.2418990000000025">
        <ele>592.676</ele>
        <time>2022-08-24T07:24:57Z</time>
      </trkpt>
      <trkpt lat="43.11766899999974" lon="-1.2418880000000025">
        <ele>592.856</ele>
        <time>2022-08-24T07:24:58Z</time>
      </trkpt>
      <trkpt lat="43.117654999999736" lon="-1.2418790000000026">
        <ele>593.026</ele>
        <time>2022-08-24T07:24:59Z</time>
      </trkpt>
      <trkpt lat="43.117641999999734" lon="-1.2418680000000026">
        <ele>593.092</ele>
        <time>2022-08-24T07:25:00Z</time>
      </trkpt>
      <trkpt lat="43.11763099999973" lon="-1.2418570000000027">
        <ele>593.264</ele>
        <time>2022-08-24T07:25:01Z</time>
      </trkpt>
      <trkpt lat="43.11761699999973" lon="-1.2418480000000027">
        <ele>593.261</ele>
        <time>2022-08-24T07:25:02Z</time>
      </trkpt>
      <trkpt lat="43.117601999999735" lon="-1.2418420000000028">
        <ele>593.234</ele>
        <time>2022-08-24T07:25:03Z</time>
      </trkpt>
      <trkpt lat="43.117590999999734" lon="-1.2418340000000028">
        <ele>593.498</ele>
        <time>2022-08-24T07:25:04Z</time>
      </trkpt>
      <trkpt lat="43.11758099999973" lon="-1.2418260000000028">
        <ele>593.627</ele>
        <time>2022-08-24T07:25:05Z</time>
      </trkpt>
      <trkpt lat="43.11757199999973" lon="-1.2418190000000027">
        <ele>593.642</ele>
        <time>2022-08-24T07:25:06Z</time>
      </trkpt>
      <trkpt lat="43.11756199999973" lon="-1.2418090000000026">
        <ele>593.822</ele>
        <time>2022-08-24T07:25:07Z</time>
      </trkpt>
      <trkpt lat="43.117551999999726" lon="-1.2418010000000026">
        <ele>594.214</ele>
        <time>2022-08-24T07:25:08Z</time>
      </trkpt>
      <trkpt lat="43.11754199999972" lon="-1.2417930000000026">
        <ele>594.209</ele>
        <time>2022-08-24T07:25:09Z</time>
      </trkpt>
      <trkpt lat="43.117532999999725" lon="-1.2417820000000026">
        <ele>594.495</ele>
        <time>2022-08-24T07:25:10Z</time>
      </trkpt>
      <trkpt lat="43.117523999999726" lon="-1.2417720000000025">
        <ele>594.665</ele>
        <time>2022-08-24T07:25:11Z</time>
      </trkpt>
      <trkpt lat="43.117512999999725" lon="-1.2417630000000026">
        <ele>594.865</ele>
        <time>2022-08-24T07:25:12Z</time>
      </trkpt>
      <trkpt lat="43.11750099999973" lon="-1.2417550000000026">
        <ele>594.881</ele>
        <time>2022-08-24T07:25:13Z</time>
      </trkpt>
      <trkpt lat="43.11748899999973" lon="-1.2417470000000026">
        <ele>595.023</ele>
        <time>2022-08-24T07:25:14Z</time>
      </trkpt>
      <trkpt lat="43.11747699999973" lon="-1.2417410000000026">
        <ele>595.260</ele>
        <time>2022-08-24T07:25:15Z</time>
      </trkpt>
      <trkpt lat="43.11746199999973" lon="-1.2417350000000027">
        <ele>595.213</ele>
        <time>2022-08-24T07:25:16Z</time>
      </trkpt>
      <trkpt lat="43.117446999999736" lon="-1.2417280000000026">
        <ele>595.447</ele>
        <time>2022-08-24T07:25:17Z</time>
      </trkpt>
      <trkpt lat="43.11743499999974" lon="-1.2417170000000026">
        <ele>595.626</ele>
        <time>2022-08-24T07:25:18Z</time>
      </trkpt>
      <trkpt lat="43.11742399999974" lon="-1.2417050000000027">
        <ele>595.665</ele>
        <time>2022-08-24T07:25:19Z</time>
      </trkpt>
      <trkpt lat="43.117413999999734" lon="-1.2416920000000027">
        <ele>595.868</ele>
        <time>2022-08-24T07:25:20Z</time>
      </trkpt>
      <trkpt lat="43.117401999999736" lon="-1.2416790000000026">
        <ele>596.014</ele>
        <time>2022-08-24T07:25:21Z</time>
      </trkpt>
      <trkpt lat="43.117387999999735" lon="-1.2416660000000026">
        <ele>596.209</ele>
        <time>2022-08-24T07:25:22Z</time>
      </trkpt>
      <trkpt lat="43.11737599999974" lon="-1.2416570000000027">
        <ele>596.227</ele>
        <time>2022-08-24T07:25:23Z</time>
      </trkpt>
      <trkpt lat="43.11736499999974" lon="-1.2416490000000027">
        <ele>596.697</ele>
        <time>2022-08-24T07:25:24Z</time>
      </trkpt>
      <trkpt lat="43.117353999999736" lon="-1.2416470000000026">
        <ele>596.837</ele>
        <time>2022-08-24T07:25:25Z</time>
      </trkpt>
      <trkpt lat="43.117339999999736" lon="-1.2416500000000026">
        <ele>597.293</ele>
        <time>2022-08-24T07:25:26Z</time>
      </trkpt>
      <trkpt lat="43.11732699999973" lon="-1.2416510000000025">
        <ele>597.425</ele>
        <time>2022-08-24T07:25:27Z</time>
      </trkpt>
      <trkpt lat="43.117314999999735" lon="-1.2416510000000025">
        <ele>597.432</ele>
        <time>2022-08-24T07:25:28Z</time>
      </trkpt>
      <trkpt lat="43.11730299999974" lon="-1.2416450000000026">
        <ele>597.845</ele>
        <time>2022-08-24T07:25:29Z</time>
      </trkpt>
      <trkpt lat="43.117291999999736" lon="-1.2416400000000025">
        <ele>597.879</ele>
        <time>2022-08-24T07:25:30Z</time>
      </trkpt>
      <trkpt lat="43.11727999999974" lon="-1.2416390000000026">
        <ele>598.258</ele>
        <time>2022-08-24T07:25:31Z</time>
      </trkpt>
      <trkpt lat="43.117266999999735" lon="-1.2416410000000027">
        <ele>598.484</ele>
        <time>2022-08-24T07:25:32Z</time>
      </trkpt>
      <trkpt lat="43.117255999999735" lon="-1.2416430000000027">
        <ele>598.607</ele>
        <time>2022-08-24T07:25:33Z</time>
      </trkpt>
      <trkpt lat="43.11724299999973" lon="-1.2416430000000027">
        <ele>598.817</ele>
        <time>2022-08-24T07:25:34Z</time>
      </trkpt>
      <trkpt lat="43.11723299999973" lon="-1.2416420000000028">
        <ele>599.009</ele>
        <time>2022-08-24T07:25:35Z</time>
      </trkpt>
      <trkpt lat="43.11722199999973" lon="-1.241638000000003">
        <ele>599.299</ele>
        <time>2022-08-24T07:25:36Z</time>
      </trkpt>
      <trkpt lat="43.11721299999973" lon="-1.241638000000003">
        <ele>599.249</ele>
        <time>2022-08-24T07:25:37Z</time>
      </trkpt>
      <trkpt lat="43.117202999999726" lon="-1.2416390000000028">
        <ele>599.449</ele>
        <time>2022-08-24T07:25:38Z</time>
      </trkpt>
      <trkpt lat="43.117191999999726" lon="-1.2416400000000027">
        <ele>599.635</ele>
        <time>2022-08-24T07:25:39Z</time>
      </trkpt>
      <trkpt lat="43.11718199999972" lon="-1.2416420000000028">
        <ele>599.827</ele>
        <time>2022-08-24T07:25:40Z</time>
      </trkpt>
      <trkpt lat="43.11717199999972" lon="-1.241649000000003">
        <ele>599.864</ele>
        <time>2022-08-24T07:25:41Z</time>
      </trkpt>
      <trkpt lat="43.117161999999716" lon="-1.241654000000003">
        <ele>600.057</ele>
        <time>2022-08-24T07:25:42Z</time>
      </trkpt>
      <trkpt lat="43.11715199999971" lon="-1.241657000000003">
        <ele>600.241</ele>
        <time>2022-08-24T07:25:43Z</time>
      </trkpt>
      <trkpt lat="43.117139999999715" lon="-1.2416600000000029">
        <ele>600.250</ele>
        <time>2022-08-24T07:25:44Z</time>
      </trkpt>
      <trkpt lat="43.117128999999714" lon="-1.2416640000000028">
        <ele>600.446</ele>
        <time>2022-08-24T07:25:45Z</time>
      </trkpt>
      <trkpt lat="43.117117999999714" lon="-1.2416660000000028">
        <ele>600.688</ele>
        <time>2022-08-24T07:25:46Z</time>
      </trkpt>
      <trkpt lat="43.117105999999715" lon="-1.2416690000000028">
        <ele>600.616</ele>
        <time>2022-08-24T07:25:47Z</time>
      </trkpt>
      <trkpt lat="43.117094999999715" lon="-1.2416730000000027">
        <ele>600.809</ele>
        <time>2022-08-24T07:25:48Z</time>
      </trkpt>
      <trkpt lat="43.11708299999972" lon="-1.2416760000000027">
        <ele>600.845</ele>
        <time>2022-08-24T07:25:49Z</time>
      </trkpt>
      <trkpt lat="43.11707099999972" lon="-1.2416810000000027">
        <ele>601.285</ele>
        <time>2022-08-24T07:25:50Z</time>
      </trkpt>
      <trkpt lat="43.11705899999972" lon="-1.2416830000000028">
        <ele>601.245</ele>
        <time>2022-08-24T07:25:51Z</time>
      </trkpt>
      <trkpt lat="43.11704499999972" lon="-1.2416810000000027">
        <ele>601.641</ele>
        <time>2022-08-24T07:25:52Z</time>
      </trkpt>
      <trkpt lat="43.11703399999972" lon="-1.2416820000000026">
        <ele>601.653</ele>
        <time>2022-08-24T07:25:53Z</time>
      </trkpt>
      <trkpt lat="43.11702199999972" lon="-1.2416840000000027">
        <ele>601.860</ele>
        <time>2022-08-24T07:25:54Z</time>
      </trkpt>
      <trkpt lat="43.11700999999972" lon="-1.2416890000000027">
        <ele>601.833</ele>
        <time>2022-08-24T07:25:55Z</time>
      </trkpt>
      <trkpt lat="43.11699899999972" lon="-1.2416950000000027">
        <ele>602.077</ele>
        <time>2022-08-24T07:25:56Z</time>
      </trkpt>
      <trkpt lat="43.11698799999972" lon="-1.2416990000000026">
        <ele>602.066</ele>
        <time>2022-08-24T07:25:57Z</time>
      </trkpt>
      <trkpt lat="43.11697799999972" lon="-1.2417040000000026">
        <ele>602.231</ele>
        <time>2022-08-24T07:25:58Z</time>
      </trkpt>
      <trkpt lat="43.11696699999972" lon="-1.2417080000000025">
        <ele>602.461</ele>
        <time>2022-08-24T07:25:59Z</time>
      </trkpt>
      <trkpt lat="43.11695299999972" lon="-1.2417090000000024">
        <ele>602.407</ele>
        <time>2022-08-24T07:26:00Z</time>
      </trkpt>
      <trkpt lat="43.116939999999715" lon="-1.2417090000000024">
        <ele>602.609</ele>
        <time>2022-08-24T07:26:01Z</time>
      </trkpt>
      <trkpt lat="43.11692999999971" lon="-1.2417120000000024">
        <ele>602.664</ele>
        <time>2022-08-24T07:26:02Z</time>
      </trkpt>
      <trkpt lat="43.11691999999971" lon="-1.2417140000000024">
        <ele>602.684</ele>
        <time>2022-08-24T07:26:03Z</time>
      </trkpt>
      <trkpt lat="43.11691099999971" lon="-1.2417180000000023">
        <ele>602.844</ele>
        <time>2022-08-24T07:26:04Z</time>
      </trkpt>
      <trkpt lat="43.11690099999971" lon="-1.2417230000000024">
        <ele>602.860</ele>
        <time>2022-08-24T07:26:05Z</time>
      </trkpt>
      <trkpt lat="43.11688899999971" lon="-1.2417310000000024">
        <ele>603.012</ele>
        <time>2022-08-24T07:26:06Z</time>
      </trkpt>
      <trkpt lat="43.11688099999971" lon="-1.2417330000000024">
        <ele>603.269</ele>
        <time>2022-08-24T07:26:07Z</time>
      </trkpt>
      <trkpt lat="43.116867999999705" lon="-1.2417350000000025">
        <ele>603.062</ele>
        <time>2022-08-24T07:26:08Z</time>
      </trkpt>
      <trkpt lat="43.1168579999997" lon="-1.2417380000000025">
        <ele>603.256</ele>
        <time>2022-08-24T07:26:09Z</time>
      </trkpt>
      <trkpt lat="43.1168469999997" lon="-1.2417380000000025">
        <ele>603.285</ele>
        <time>2022-08-24T07:26:10Z</time>
      </trkpt>
      <trkpt lat="43.1168329999997" lon="-1.2417370000000025">
        <ele>603.287</ele>
        <time>2022-08-24T07:26:11Z</time>
      </trkpt>
      <trkpt lat="43.116817999999704" lon="-1.2417400000000025">
        <ele>603.442</ele>
        <time>2022-08-24T07:26:12Z</time>
      </trkpt>
      <trkpt lat="43.1168049999997" lon="-1.2417470000000026">
        <ele>603.426</ele>
        <time>2022-08-24T07:26:13Z</time>
      </trkpt>
      <trkpt lat="43.1167929999997" lon="-1.2417510000000025">
        <ele>603.409</ele>
        <time>2022-08-24T07:26:14Z</time>
      </trkpt>
      <trkpt lat="43.1167819999997" lon="-1.2417560000000025">
        <ele>603.879</ele>
        <time>2022-08-24T07:26:15Z</time>
      </trkpt>
      <trkpt lat="43.116769999999704" lon="-1.2417600000000024">
        <ele>604.089</ele>
        <time>2022-08-24T07:26:16Z</time>
      </trkpt>
      <trkpt lat="43.1167589999997" lon="-1.2417620000000025">
        <ele>604.029</ele>
        <time>2022-08-24T07:26:17Z</time>
      </trkpt>
      <trkpt lat="43.11675199999971" lon="-1.2417570000000024">
        <ele>604.255</ele>
        <time>2022-08-24T07:26:18Z</time>
      </trkpt>
      <trkpt lat="43.11673799999971" lon="-1.2417540000000025">
        <ele>604.257</ele>
        <time>2022-08-24T07:26:19Z</time>
      </trkpt>
      <trkpt lat="43.1167279999997" lon="-1.2417550000000024">
        <ele>604.424</ele>
        <time>2022-08-24T07:26:20Z</time>
      </trkpt>
      <trkpt lat="43.1167199999997" lon="-1.2417600000000024">
        <ele>604.447</ele>
        <time>2022-08-24T07:26:21Z</time>
      </trkpt>
      <trkpt lat="43.116707999999704" lon="-1.2417650000000025">
        <ele>604.481</ele>
        <time>2022-08-24T07:26:22Z</time>
      </trkpt>
      <trkpt lat="43.116695999999706" lon="-1.2417660000000024">
        <ele>604.620</ele>
        <time>2022-08-24T07:26:23Z</time>
      </trkpt>
      <trkpt lat="43.116684999999705" lon="-1.2417640000000023">
        <ele>604.682</ele>
        <time>2022-08-24T07:26:24Z</time>
      </trkpt>
      <trkpt lat="43.1166719999997" lon="-1.2417610000000023">
        <ele>604.843</ele>
        <time>2022-08-24T07:26:25Z</time>
      </trkpt>
      <trkpt lat="43.1166619999997" lon="-1.2417620000000023">
        <ele>604.817</ele>
        <time>2022-08-24T07:26:26Z</time>
      </trkpt>
      <trkpt lat="43.1166529999997" lon="-1.2417650000000022">
        <ele>604.809</ele>
        <time>2022-08-24T07:26:27Z</time>
      </trkpt>
      <trkpt lat="43.1166419999997" lon="-1.2417650000000022">
        <ele>605.079</ele>
        <time>2022-08-24T07:26:28Z</time>
      </trkpt>
      <trkpt lat="43.1166289999997" lon="-1.2417620000000023">
        <ele>605.079</ele>
        <time>2022-08-24T07:26:29Z</time>
      </trkpt>
      <trkpt lat="43.1166199999997" lon="-1.2417630000000022">
        <ele>605.289</ele>
        <time>2022-08-24T07:26:30Z</time>
      </trkpt>
      <trkpt lat="43.1166049999997" lon="-1.2417630000000022">
        <ele>605.485</ele>
        <time>2022-08-24T07:26:31Z</time>
      </trkpt>
      <trkpt lat="43.1165949999997" lon="-1.2417630000000022">
        <ele>605.657</ele>
        <time>2022-08-24T07:26:32Z</time>
      </trkpt>
      <trkpt lat="43.1165839999997" lon="-1.2417580000000021">
        <ele>605.684</ele>
        <time>2022-08-24T07:26:33Z</time>
      </trkpt>
      <trkpt lat="43.1165729999997" lon="-1.2417540000000022">
        <ele>605.867</ele>
        <time>2022-08-24T07:26:34Z</time>
      </trkpt>
      <trkpt lat="43.116562999999694" lon="-1.2417540000000022">
        <ele>606.071</ele>
        <time>2022-08-24T07:26:35Z</time>
      </trkpt>
      <trkpt lat="43.11655299999969" lon="-1.2417550000000022">
        <ele>606.080</ele>
        <time>2022-08-24T07:26:36Z</time>
      </trkpt>
      <trkpt lat="43.11654399999969" lon="-1.241756000000002">
        <ele>606.485</ele>
        <time>2022-08-24T07:26:37Z</time>
      </trkpt>
      <trkpt lat="43.11653499999969" lon="-1.241754000000002">
        <ele>606.489</ele>
        <time>2022-08-24T07:26:38Z</time>
      </trkpt>
      <trkpt lat="43.1165279999997" lon="-1.241757000000002">
        <ele>606.617</ele>
        <time>2022-08-24T07:26:39Z</time>
      </trkpt>
      <trkpt lat="43.116519999999696" lon="-1.241759000000002">
        <ele>606.609</ele>
        <time>2022-08-24T07:26:40Z</time>
      </trkpt>
      <trkpt lat="43.116514999999694" lon="-1.241759000000002">
        <ele>606.879</ele>
        <time>2022-08-24T07:26:41Z</time>
      </trkpt>
      <trkpt lat="43.1165079999997" lon="-1.2417580000000021">
        <ele>606.849</ele>
        <time>2022-08-24T07:26:42Z</time>
      </trkpt>
      <trkpt lat="43.1164989999997" lon="-1.241759000000002">
        <ele>607.049</ele>
        <time>2022-08-24T07:26:43Z</time>
      </trkpt>
      <trkpt lat="43.1164899999997" lon="-1.241762000000002">
        <ele>607.425</ele>
        <time>2022-08-24T07:26:44Z</time>
      </trkpt>
      <trkpt lat="43.1164819999997" lon="-1.2417580000000021">
        <ele>607.497</ele>
        <time>2022-08-24T07:26:45Z</time>
      </trkpt>
      <trkpt lat="43.1164729999997" lon="-1.2417500000000021">
        <ele>607.664</ele>
        <time>2022-08-24T07:26:46Z</time>
      </trkpt>
      <trkpt lat="43.1164649999997" lon="-1.2417460000000022">
        <ele>607.667</ele>
        <time>2022-08-24T07:26:47Z</time>
      </trkpt>
      <trkpt lat="43.1164539999997" lon="-1.2417430000000023">
        <ele>607.811</ele>
        <time>2022-08-24T07:26:48Z</time>
      </trkpt>
      <trkpt lat="43.1164429999997" lon="-1.2417420000000023">
        <ele>607.820</ele>
        <time>2022-08-24T07:26:49Z</time>
      </trkpt>
      <trkpt lat="43.1164339999997" lon="-1.2417450000000023">
        <ele>608.028</ele>
        <time>2022-08-24T07:26:50Z</time>
      </trkpt>
      <trkpt lat="43.1164259999997" lon="-1.2417510000000023">
        <ele>608.089</ele>
        <time>2022-08-24T07:26:51Z</time>
      </trkpt>
      <trkpt lat="43.116415999999695" lon="-1.2417550000000022">
        <ele>608.217</ele>
        <time>2022-08-24T07:26:52Z</time>
      </trkpt>
      <trkpt lat="43.11640599999969" lon="-1.2417550000000022">
        <ele>608.409</ele>
        <time>2022-08-24T07:26:53Z</time>
      </trkpt>
      <trkpt lat="43.11639599999969" lon="-1.2417600000000022">
        <ele>608.633</ele>
        <time>2022-08-24T07:26:54Z</time>
      </trkpt>
      <trkpt lat="43.11638799999969" lon="-1.2417610000000021">
        <ele>608.683</ele>
        <time>2022-08-24T07:26:55Z</time>
      </trkpt>
      <trkpt lat="43.11637899999969" lon="-1.2417600000000022">
        <ele>608.633</ele>
        <time>2022-08-24T07:26:56Z</time>
      </trkpt>
      <trkpt lat="43.11636799999969" lon="-1.2417580000000021">
        <ele>608.889</ele>
        <time>2022-08-24T07:26:57Z</time>
      </trkpt>
      <trkpt lat="43.11635599999969" lon="-1.2417540000000022">
        <ele>608.851</ele>
        <time>2022-08-24T07:26:58Z</time>
      </trkpt>
      <trkpt lat="43.116348999999694" lon="-1.2417530000000023">
        <ele>609.028</ele>
        <time>2022-08-24T07:26:59Z</time>
      </trkpt>
      <trkpt lat="43.11633599999969" lon="-1.2417540000000022">
        <ele>609.441</ele>
        <time>2022-08-24T07:27:00Z</time>
      </trkpt>
      <trkpt lat="43.11632499999969" lon="-1.2417560000000023">
        <ele>609.415</ele>
        <time>2022-08-24T07:27:01Z</time>
      </trkpt>
      <trkpt lat="43.11631399999969" lon="-1.2417590000000023">
        <ele>609.624</ele>
        <time>2022-08-24T07:27:02Z</time>
      </trkpt>
      <trkpt lat="43.11630299999969" lon="-1.2417620000000023">
        <ele>609.872</ele>
        <time>2022-08-24T07:27:03Z</time>
      </trkpt>
      <trkpt lat="43.116292999999686" lon="-1.2417640000000023">
        <ele>610.013</ele>
        <time>2022-08-24T07:27:04Z</time>
      </trkpt>
      <trkpt lat="43.11628099999969" lon="-1.2417650000000022">
        <ele>610.014</ele>
        <time>2022-08-24T07:27:05Z</time>
      </trkpt>
      <trkpt lat="43.116270999999685" lon="-1.2417620000000023">
        <ele>610.209</ele>
        <time>2022-08-24T07:27:06Z</time>
      </trkpt>
      <trkpt lat="43.11626099999968" lon="-1.2417580000000024">
        <ele>610.498</ele>
        <time>2022-08-24T07:27:07Z</time>
      </trkpt>
      <trkpt lat="43.11625199999968" lon="-1.2417570000000024">
        <ele>610.648</ele>
        <time>2022-08-24T07:27:08Z</time>
      </trkpt>
      <trkpt lat="43.11624199999968" lon="-1.2417560000000025">
        <ele>610.868</ele>
        <time>2022-08-24T07:27:09Z</time>
      </trkpt>
      <trkpt lat="43.11623299999968" lon="-1.2417550000000026">
        <ele>610.824</ele>
        <time>2022-08-24T07:27:10Z</time>
      </trkpt>
      <trkpt lat="43.11622299999968" lon="-1.2417550000000026">
        <ele>611.046</ele>
        <time>2022-08-24T07:27:11Z</time>
      </trkpt>
      <trkpt lat="43.11621199999968" lon="-1.2417560000000025">
        <ele>611.073</ele>
        <time>2022-08-24T07:27:12Z</time>
      </trkpt>
      <trkpt lat="43.11620099999968" lon="-1.2417540000000025">
        <ele>611.226</ele>
        <time>2022-08-24T07:27:13Z</time>
      </trkpt>
      <trkpt lat="43.116190999999674" lon="-1.2417520000000024">
        <ele>611.440</ele>
        <time>2022-08-24T07:27:14Z</time>
      </trkpt>
      <trkpt lat="43.11617999999967" lon="-1.2417510000000025">
        <ele>611.449</ele>
        <time>2022-08-24T07:27:15Z</time>
      </trkpt>
      <trkpt lat="43.116167999999675" lon="-1.2417530000000025">
        <ele>611.642</ele>
        <time>2022-08-24T07:27:16Z</time>
      </trkpt>
      <trkpt lat="43.11615599999968" lon="-1.2417560000000025">
        <ele>611.822</ele>
        <time>2022-08-24T07:27:17Z</time>
      </trkpt>
      <trkpt lat="43.116144999999676" lon="-1.2417610000000026">
        <ele>611.814</ele>
        <time>2022-08-24T07:27:18Z</time>
      </trkpt>
      <trkpt lat="43.11613199999967" lon="-1.2417620000000025">
        <ele>612.009</ele>
        <time>2022-08-24T07:27:19Z</time>
      </trkpt>
      <trkpt lat="43.11612099999967" lon="-1.2417560000000025">
        <ele>612.265</ele>
        <time>2022-08-24T07:27:20Z</time>
      </trkpt>
      <trkpt lat="43.11610799999967" lon="-1.2417510000000025">
        <ele>612.455</ele>
        <time>2022-08-24T07:27:21Z</time>
      </trkpt>
      <trkpt lat="43.11609799999967" lon="-1.2417530000000025">
        <ele>612.615</ele>
        <time>2022-08-24T07:27:22Z</time>
      </trkpt>
      <trkpt lat="43.116087999999664" lon="-1.2417550000000026">
        <ele>612.861</ele>
        <time>2022-08-24T07:27:23Z</time>
      </trkpt>
      <trkpt lat="43.11607799999966" lon="-1.2417570000000027">
        <ele>612.823</ele>
        <time>2022-08-24T07:27:24Z</time>
      </trkpt>
      <trkpt lat="43.11606799999966" lon="-1.2417540000000027">
        <ele>613.080</ele>
        <time>2022-08-24T07:27:25Z</time>
      </trkpt>
      <trkpt lat="43.11605899999966" lon="-1.2417490000000027">
        <ele>613.043</ele>
        <time>2022-08-24T07:27:26Z</time>
      </trkpt>
      <trkpt lat="43.11604999999966" lon="-1.2417470000000026">
        <ele>613.247</ele>
        <time>2022-08-24T07:27:27Z</time>
      </trkpt>
      <trkpt lat="43.11604099999966" lon="-1.2417460000000027">
        <ele>613.286</ele>
        <time>2022-08-24T07:27:28Z</time>
      </trkpt>
      <trkpt lat="43.11603199999966" lon="-1.2417440000000026">
        <ele>613.484</ele>
        <time>2022-08-24T07:27:29Z</time>
      </trkpt>
      <trkpt lat="43.116022999999664" lon="-1.2417450000000025">
        <ele>613.607</ele>
        <time>2022-08-24T07:27:30Z</time>
      </trkpt>
      <trkpt lat="43.116013999999666" lon="-1.2417470000000026">
        <ele>613.817</ele>
        <time>2022-08-24T07:27:31Z</time>
      </trkpt>
      <trkpt lat="43.11600399999966" lon="-1.2417490000000027">
        <ele>614.009</ele>
        <time>2022-08-24T07:27:32Z</time>
      </trkpt>
      <trkpt lat="43.11600399999966" lon="-1.2417490000000027">
        <ele>614.029</ele>
        <time>2022-08-24T07:27:33Z</time>
      </trkpt>
      <trkpt lat="43.115985999999666" lon="-1.2417500000000026">
        <ele>614.279</ele>
        <time>2022-08-24T07:27:34Z</time>
      </trkpt>
      <trkpt lat="43.11597299999966" lon="-1.2417520000000026">
        <ele>614.229</ele>
        <time>2022-08-24T07:27:35Z</time>
      </trkpt>
      <trkpt lat="43.115965999999666" lon="-1.2417530000000025">
        <ele>614.435</ele>
        <time>2022-08-24T07:27:36Z</time>
      </trkpt>
      <trkpt lat="43.11595099999967" lon="-1.2417480000000025">
        <ele>614.627</ele>
        <time>2022-08-24T07:27:37Z</time>
      </trkpt>
      <trkpt lat="43.11593999999967" lon="-1.2417420000000026">
        <ele>614.614</ele>
        <time>2022-08-24T07:27:38Z</time>
      </trkpt>
      <trkpt lat="43.11593099999967" lon="-1.2417410000000026">
        <ele>614.827</ele>
        <time>2022-08-24T07:27:39Z</time>
      </trkpt>
      <trkpt lat="43.11591999999967" lon="-1.2417430000000027">
        <ele>614.871</ele>
        <time>2022-08-24T07:27:40Z</time>
      </trkpt>
      <trkpt lat="43.11591199999967" lon="-1.2417430000000027">
        <ele>615.040</ele>
        <time>2022-08-24T07:27:41Z</time>
      </trkpt>
      <trkpt lat="43.115898999999665" lon="-1.2417400000000027">
        <ele>615.226</ele>
        <time>2022-08-24T07:27:42Z</time>
      </trkpt>
      <trkpt lat="43.11588899999966" lon="-1.2417390000000028">
        <ele>615.247</ele>
        <time>2022-08-24T07:27:43Z</time>
      </trkpt>
      <trkpt lat="43.11587799999966" lon="-1.2417400000000027">
        <ele>615.411</ele>
        <time>2022-08-24T07:27:44Z</time>
      </trkpt>
      <trkpt lat="43.11586699999966" lon="-1.2417400000000027">
        <ele>615.409</ele>
        <time>2022-08-24T07:27:45Z</time>
      </trkpt>
      <trkpt lat="43.11585699999966" lon="-1.2417410000000026">
        <ele>615.683</ele>
        <time>2022-08-24T07:27:46Z</time>
      </trkpt>
      <trkpt lat="43.11584599999966" lon="-1.2417430000000027">
        <ele>615.663</ele>
        <time>2022-08-24T07:27:47Z</time>
      </trkpt>
      <trkpt lat="43.11583599999965" lon="-1.2417480000000027">
        <ele>616.063</ele>
        <time>2022-08-24T07:27:48Z</time>
      </trkpt>
      <trkpt lat="43.11582599999965" lon="-1.2417520000000026">
        <ele>616.049</ele>
        <time>2022-08-24T07:27:49Z</time>
      </trkpt>
      <trkpt lat="43.11581599999965" lon="-1.2417540000000027">
        <ele>616.251</ele>
        <time>2022-08-24T07:27:50Z</time>
      </trkpt>
      <trkpt lat="43.115804999999646" lon="-1.2417530000000028">
        <ele>616.428</ele>
        <time>2022-08-24T07:27:51Z</time>
      </trkpt>
      <trkpt lat="43.11579599999965" lon="-1.2417510000000027">
        <ele>616.411</ele>
        <time>2022-08-24T07:27:52Z</time>
      </trkpt>
      <trkpt lat="43.11578699999965" lon="-1.2417470000000028">
        <ele>616.685</ele>
        <time>2022-08-24T07:27:53Z</time>
      </trkpt>
      <trkpt lat="43.11577599999965" lon="-1.2417450000000028">
        <ele>616.894</ele>
        <time>2022-08-24T07:27:54Z</time>
      </trkpt>
      <trkpt lat="43.11576399999965" lon="-1.2417450000000028">
        <ele>616.823</ele>
        <time>2022-08-24T07:27:55Z</time>
      </trkpt>
      <trkpt lat="43.11575299999965" lon="-1.2417460000000027">
        <ele>617.083</ele>
        <time>2022-08-24T07:27:56Z</time>
      </trkpt>
      <trkpt lat="43.11574199999965" lon="-1.2417490000000027">
        <ele>617.211</ele>
        <time>2022-08-24T07:27:57Z</time>
      </trkpt>
      <trkpt lat="43.11572999999965" lon="-1.2417510000000027">
        <ele>617.409</ele>
        <time>2022-08-24T07:27:58Z</time>
      </trkpt>
      <trkpt lat="43.11571999999965" lon="-1.2417500000000028">
        <ele>617.493</ele>
        <time>2022-08-24T07:27:59Z</time>
      </trkpt>
      <trkpt lat="43.115709999999645" lon="-1.2417480000000027">
        <ele>617.633</ele>
        <time>2022-08-24T07:28:00Z</time>
      </trkpt>
      <trkpt lat="43.115700999999646" lon="-1.2417490000000027">
        <ele>617.883</ele>
        <time>2022-08-24T07:28:01Z</time>
      </trkpt>
      <trkpt lat="43.11569399999965" lon="-1.2417500000000026">
        <ele>617.869</ele>
        <time>2022-08-24T07:28:02Z</time>
      </trkpt>
      <trkpt lat="43.11568299999965" lon="-1.2417480000000025">
        <ele>618.091</ele>
        <time>2022-08-24T07:28:03Z</time>
      </trkpt>
      <trkpt lat="43.115672999999646" lon="-1.2417450000000025">
        <ele>618.238</ele>
        <time>2022-08-24T07:28:04Z</time>
      </trkpt>
      <trkpt lat="43.11566299999964" lon="-1.2417450000000025">
        <ele>618.251</ele>
        <time>2022-08-24T07:28:05Z</time>
      </trkpt>
      <trkpt lat="43.115653999999644" lon="-1.2417450000000025">
        <ele>618.475</ele>
        <time>2022-08-24T07:28:06Z</time>
      </trkpt>
      <trkpt lat="43.115644999999645" lon="-1.2417450000000025">
        <ele>618.634</ele>
        <time>2022-08-24T07:28:07Z</time>
      </trkpt>
      <trkpt lat="43.115636999999644" lon="-1.2417500000000026">
        <ele>618.683</ele>
        <time>2022-08-24T07:28:08Z</time>
      </trkpt>
      <trkpt lat="43.115627999999646" lon="-1.2417510000000025">
        <ele>618.825</ele>
        <time>2022-08-24T07:28:09Z</time>
      </trkpt>
      <trkpt lat="43.115613999999646" lon="-1.2417500000000026">
        <ele>618.817</ele>
        <time>2022-08-24T07:28:10Z</time>
      </trkpt>
      <trkpt lat="43.115602999999645" lon="-1.2417490000000027">
        <ele>618.809</ele>
        <time>2022-08-24T07:28:11Z</time>
      </trkpt>
      <trkpt lat="43.115593999999646" lon="-1.2417520000000026">
        <ele>619.079</ele>
        <time>2022-08-24T07:28:12Z</time>
      </trkpt>
      <trkpt lat="43.115579999999646" lon="-1.2417510000000027">
        <ele>619.059</ele>
        <time>2022-08-24T07:28:13Z</time>
      </trkpt>
      <trkpt lat="43.11556999999964" lon="-1.2417490000000027">
        <ele>619.469</ele>
        <time>2022-08-24T07:28:14Z</time>
      </trkpt>
      <trkpt lat="43.115557999999645" lon="-1.2417480000000027">
        <ele>619.415</ele>
        <time>2022-08-24T07:28:15Z</time>
      </trkpt>
      <trkpt lat="43.115546999999644" lon="-1.2417470000000028">
        <ele>619.667</ele>
        <time>2022-08-24T07:28:16Z</time>
      </trkpt>
      <trkpt lat="43.11553599999964" lon="-1.2417470000000028">
        <ele>619.814</ele>
        <time>2022-08-24T07:28:17Z</time>
      </trkpt>
      <trkpt lat="43.115526999999645" lon="-1.2417470000000028">
        <ele>619.877</ele>
        <time>2022-08-24T07:28:18Z</time>
      </trkpt>
      <trkpt lat="43.11551699999964" lon="-1.2417470000000028">
        <ele>620.071</ele>
        <time>2022-08-24T07:28:19Z</time>
      </trkpt>
      <trkpt lat="43.11550699999964" lon="-1.241746000000003">
        <ele>620.260</ele>
        <time>2022-08-24T07:28:20Z</time>
      </trkpt>
      <trkpt lat="43.11549799999964" lon="-1.2417440000000028">
        <ele>620.074</ele>
        <time>2022-08-24T07:28:21Z</time>
      </trkpt>
      <trkpt lat="43.11548899999964" lon="-1.241740000000003">
        <ele>620.056</ele>
        <time>2022-08-24T07:28:22Z</time>
      </trkpt>
      <trkpt lat="43.11547899999964" lon="-1.241738000000003">
        <ele>620.221</ele>
        <time>2022-08-24T07:28:23Z</time>
      </trkpt>
      <trkpt lat="43.11546799999964" lon="-1.2417410000000029">
        <ele>620.209</ele>
        <time>2022-08-24T07:28:24Z</time>
      </trkpt>
      <trkpt lat="43.11545699999964" lon="-1.2417420000000028">
        <ele>620.478</ele>
        <time>2022-08-24T07:28:25Z</time>
      </trkpt>
      <trkpt lat="43.115448999999636" lon="-1.2417430000000027">
        <ele>620.648</ele>
        <time>2022-08-24T07:28:26Z</time>
      </trkpt>
      <trkpt lat="43.11543999999964" lon="-1.2417420000000028">
        <ele>620.638</ele>
        <time>2022-08-24T07:28:27Z</time>
      </trkpt>
      <trkpt lat="43.11543099999964" lon="-1.2417400000000027">
        <ele>620.834</ele>
        <time>2022-08-24T07:28:28Z</time>
      </trkpt>
      <trkpt lat="43.11541999999964" lon="-1.2417370000000028">
        <ele>620.836</ele>
        <time>2022-08-24T07:28:29Z</time>
      </trkpt>
      <trkpt lat="43.11540899999964" lon="-1.2417360000000028">
        <ele>621.043</ele>
        <time>2022-08-24T07:28:30Z</time>
      </trkpt>
      <trkpt lat="43.115398999999634" lon="-1.2417370000000028">
        <ele>621.236</ele>
        <time>2022-08-24T07:28:31Z</time>
      </trkpt>
      <trkpt lat="43.115389999999636" lon="-1.2417380000000027">
        <ele>621.220</ele>
        <time>2022-08-24T07:28:32Z</time>
      </trkpt>
      <trkpt lat="43.11537999999963" lon="-1.2417390000000026">
        <ele>621.439</ele>
        <time>2022-08-24T07:28:33Z</time>
      </trkpt>
      <trkpt lat="43.11536899999963" lon="-1.2417410000000026">
        <ele>621.476</ele>
        <time>2022-08-24T07:28:34Z</time>
      </trkpt>
      <trkpt lat="43.115356999999634" lon="-1.2417420000000026">
        <ele>621.690</ele>
        <time>2022-08-24T07:28:35Z</time>
      </trkpt>
      <trkpt lat="43.11534399999963" lon="-1.2417410000000026">
        <ele>621.819</ele>
        <time>2022-08-24T07:28:36Z</time>
      </trkpt>
      <trkpt lat="43.11533199999963" lon="-1.2417410000000026">
        <ele>622.009</ele>
        <time>2022-08-24T07:28:37Z</time>
      </trkpt>
      <trkpt lat="43.115322999999634" lon="-1.2417440000000026">
        <ele>622.048</ele>
        <time>2022-08-24T07:28:38Z</time>
      </trkpt>
      <trkpt lat="43.11531299999963" lon="-1.2417440000000026">
        <ele>622.238</ele>
        <time>2022-08-24T07:28:39Z</time>
      </trkpt>
      <trkpt lat="43.11530199999963" lon="-1.2417450000000025">
        <ele>622.288</ele>
        <time>2022-08-24T07:28:40Z</time>
      </trkpt>
      <trkpt lat="43.11528899999963" lon="-1.2417470000000026">
        <ele>622.294</ele>
        <time>2022-08-24T07:28:41Z</time>
      </trkpt>
      <trkpt lat="43.115275999999625" lon="-1.2417510000000025">
        <ele>622.446</ele>
        <time>2022-08-24T07:28:42Z</time>
      </trkpt>
      <trkpt lat="43.11526599999962" lon="-1.2417550000000024">
        <ele>622.453</ele>
        <time>2022-08-24T07:28:43Z</time>
      </trkpt>
      <trkpt lat="43.11525599999962" lon="-1.2417560000000023">
        <ele>622.686</ele>
        <time>2022-08-24T07:28:44Z</time>
      </trkpt>
      <trkpt lat="43.11524099999962" lon="-1.2417540000000022">
        <ele>622.840</ele>
        <time>2022-08-24T07:28:45Z</time>
      </trkpt>
      <trkpt lat="43.11522799999962" lon="-1.2417530000000023">
        <ele>623.069</ele>
        <time>2022-08-24T07:28:46Z</time>
      </trkpt>
      <trkpt lat="43.11521599999962" lon="-1.2417520000000024">
        <ele>623.255</ele>
        <time>2022-08-24T07:28:47Z</time>
      </trkpt>
      <trkpt lat="43.11520599999962" lon="-1.2417510000000025">
        <ele>623.207</ele>
        <time>2022-08-24T07:28:48Z</time>
      </trkpt>
      <trkpt lat="43.115192999999614" lon="-1.2417490000000024">
        <ele>623.417</ele>
        <time>2022-08-24T07:28:49Z</time>
      </trkpt>
      <trkpt lat="43.115180999999616" lon="-1.2417440000000024">
        <ele>623.409</ele>
        <time>2022-08-24T07:28:50Z</time>
      </trkpt>
      <trkpt lat="43.115169999999615" lon="-1.2417410000000024">
        <ele>623.696</ele>
        <time>2022-08-24T07:28:51Z</time>
      </trkpt>
      <trkpt lat="43.115158999999615" lon="-1.2417410000000024">
        <ele>623.656</ele>
        <time>2022-08-24T07:28:52Z</time>
      </trkpt>
      <trkpt lat="43.115147999999614" lon="-1.2417420000000023">
        <ele>623.896</ele>
        <time>2022-08-24T07:28:53Z</time>
      </trkpt>
      <trkpt lat="43.11513699999961" lon="-1.2417410000000024">
        <ele>624.082</ele>
        <time>2022-08-24T07:28:54Z</time>
      </trkpt>
      <trkpt lat="43.11512699999961" lon="-1.2417440000000024">
        <ele>624.064</ele>
        <time>2022-08-24T07:28:55Z</time>
      </trkpt>
      <trkpt lat="43.11511599999961" lon="-1.2417490000000024">
        <ele>624.241</ele>
        <time>2022-08-24T07:28:56Z</time>
      </trkpt>
      <trkpt lat="43.11510299999961" lon="-1.2417550000000024">
        <ele>624.264</ele>
        <time>2022-08-24T07:28:57Z</time>
      </trkpt>
      <trkpt lat="43.11509099999961" lon="-1.2417590000000023">
        <ele>624.458</ele>
        <time>2022-08-24T07:28:58Z</time>
      </trkpt>
      <trkpt lat="43.11507699999961" lon="-1.2417630000000022">
        <ele>624.687</ele>
        <time>2022-08-24T07:28:59Z</time>
      </trkpt>
      <trkpt lat="43.11506199999961" lon="-1.241767000000002">
        <ele>624.678</ele>
        <time>2022-08-24T07:29:00Z</time>
      </trkpt>
      <trkpt lat="43.11504899999961" lon="-1.241768000000002">
        <ele>624.833</ele>
        <time>2022-08-24T07:29:01Z</time>
      </trkpt>
      <trkpt lat="43.115035999999606" lon="-1.241768000000002">
        <ele>625.026</ele>
        <time>2022-08-24T07:29:02Z</time>
      </trkpt>
      <trkpt lat="43.11502399999961" lon="-1.241769000000002">
        <ele>625.409</ele>
        <time>2022-08-24T07:29:03Z</time>
      </trkpt>
      <trkpt lat="43.11501199999961" lon="-1.241771000000002">
        <ele>625.238</ele>
        <time>2022-08-24T07:29:04Z</time>
      </trkpt>
      <trkpt lat="43.11499999999961" lon="-1.241774000000002">
        <ele>625.438</ele>
        <time>2022-08-24T07:29:05Z</time>
      </trkpt>
      <trkpt lat="43.11498799999961" lon="-1.241777000000002">
        <ele>625.428</ele>
        <time>2022-08-24T07:29:06Z</time>
      </trkpt>
      <trkpt lat="43.114975999999615" lon="-1.2417810000000018">
        <ele>625.674</ele>
        <time>2022-08-24T07:29:07Z</time>
      </trkpt>
      <trkpt lat="43.114964999999614" lon="-1.2417840000000018">
        <ele>625.846</ele>
        <time>2022-08-24T07:29:08Z</time>
      </trkpt>
      <trkpt lat="43.11495499999961" lon="-1.2417850000000017">
        <ele>626.023</ele>
        <time>2022-08-24T07:29:09Z</time>
      </trkpt>
      <trkpt lat="43.11494599999961" lon="-1.2417820000000017">
        <ele>626.416</ele>
        <time>2022-08-24T07:29:10Z</time>
      </trkpt>
      <trkpt lat="43.11493499999961" lon="-1.2417760000000018">
        <ele>626.460</ele>
        <time>2022-08-24T07:29:11Z</time>
      </trkpt>
      <trkpt lat="43.114919999999614" lon="-1.2417730000000018">
        <ele>626.639</ele>
        <time>2022-08-24T07:29:12Z</time>
      </trkpt>
      <trkpt lat="43.114905999999614" lon="-1.2417740000000017">
        <ele>626.618</ele>
        <time>2022-08-24T07:29:13Z</time>
      </trkpt>
      <trkpt lat="43.114893999999616" lon="-1.2417780000000016">
        <ele>626.898</ele>
        <time>2022-08-24T07:29:14Z</time>
      </trkpt>
      <trkpt lat="43.11488099999961" lon="-1.2417820000000015">
        <ele>627.217</ele>
        <time>2022-08-24T07:29:15Z</time>
      </trkpt>
      <trkpt lat="43.11486999999961" lon="-1.2417830000000014">
        <ele>627.409</ele>
        <time>2022-08-24T07:29:16Z</time>
      </trkpt>
      <trkpt lat="43.11485999999961" lon="-1.2417820000000015">
        <ele>627.672</ele>
        <time>2022-08-24T07:29:17Z</time>
      </trkpt>
      <trkpt lat="43.114849999999606" lon="-1.2417820000000015">
        <ele>627.882</ele>
        <time>2022-08-24T07:29:18Z</time>
      </trkpt>
      <trkpt lat="43.114835999999606" lon="-1.2417800000000014">
        <ele>628.052</ele>
        <time>2022-08-24T07:29:19Z</time>
      </trkpt>
      <trkpt lat="43.114819999999604" lon="-1.2417780000000014">
        <ele>628.098</ele>
        <time>2022-08-24T07:29:20Z</time>
      </trkpt>
      <trkpt lat="43.1148089999996" lon="-1.2417810000000014">
        <ele>628.240</ele>
        <time>2022-08-24T07:29:21Z</time>
      </trkpt>
      <trkpt lat="43.114796999999605" lon="-1.2417850000000012">
        <ele>628.447</ele>
        <time>2022-08-24T07:29:22Z</time>
      </trkpt>
      <trkpt lat="43.1147869999996" lon="-1.2417880000000012">
        <ele>628.660</ele>
        <time>2022-08-24T07:29:23Z</time>
      </trkpt>
      <trkpt lat="43.1147739999996" lon="-1.2417910000000012">
        <ele>628.894</ele>
        <time>2022-08-24T07:29:24Z</time>
      </trkpt>
      <trkpt lat="43.114760999999596" lon="-1.2417910000000012">
        <ele>628.823</ele>
        <time>2022-08-24T07:29:25Z</time>
      </trkpt>
      <trkpt lat="43.114749999999596" lon="-1.2417900000000013">
        <ele>629.082</ele>
        <time>2022-08-24T07:29:26Z</time>
      </trkpt>
      <trkpt lat="43.1147379999996" lon="-1.2417920000000013">
        <ele>629.043</ele>
        <time>2022-08-24T07:29:27Z</time>
      </trkpt>
      <trkpt lat="43.1147269999996" lon="-1.2417950000000013">
        <ele>629.217</ele>
        <time>2022-08-24T07:29:28Z</time>
      </trkpt>
      <trkpt lat="43.114713999999594" lon="-1.2417990000000012">
        <ele>629.409</ele>
        <time>2022-08-24T07:29:29Z</time>
      </trkpt>
      <trkpt lat="43.114702999999594" lon="-1.2418020000000012">
        <ele>629.429</ele>
        <time>2022-08-24T07:29:30Z</time>
      </trkpt>
      <trkpt lat="43.11469199999959" lon="-1.2418020000000012">
        <ele>629.699</ele>
        <time>2022-08-24T07:29:31Z</time>
      </trkpt>
      <trkpt lat="43.11468399999959" lon="-1.2417990000000012">
        <ele>629.819</ele>
        <time>2022-08-24T07:29:32Z</time>
      </trkpt>
      <trkpt lat="43.11467499999959" lon="-1.2417990000000012">
        <ele>630.035</ele>
        <time>2022-08-24T07:29:33Z</time>
      </trkpt>
      <trkpt lat="43.11466199999959" lon="-1.2418040000000012">
        <ele>630.277</ele>
        <time>2022-08-24T07:29:34Z</time>
      </trkpt>
      <trkpt lat="43.11464399999959" lon="-1.2418120000000012">
        <ele>630.424</ele>
        <time>2022-08-24T07:29:35Z</time>
      </trkpt>
      <trkpt lat="43.114628999999596" lon="-1.2418180000000012">
        <ele>630.657</ele>
        <time>2022-08-24T07:29:36Z</time>
      </trkpt>
      <trkpt lat="43.1146139999996" lon="-1.241822000000001">
        <ele>630.631</ele>
        <time>2022-08-24T07:29:37Z</time>
      </trkpt>
      <trkpt lat="43.1145999999996" lon="-1.241830000000001">
        <ele>630.880</ele>
        <time>2022-08-24T07:29:38Z</time>
      </trkpt>
      <trkpt lat="43.114586999999595" lon="-1.241836000000001">
        <ele>631.065</ele>
        <time>2022-08-24T07:29:39Z</time>
      </trkpt>
      <trkpt lat="43.11457699999959" lon="-1.241841000000001">
        <ele>631.468</ele>
        <time>2022-08-24T07:29:40Z</time>
      </trkpt>
      <trkpt lat="43.114561999999594" lon="-1.241841000000001">
        <ele>631.414</ele>
        <time>2022-08-24T07:29:41Z</time>
      </trkpt>
      <trkpt lat="43.114544999999595" lon="-1.2418400000000012">
        <ele>631.809</ele>
        <time>2022-08-24T07:29:42Z</time>
      </trkpt>
      <trkpt lat="43.1145299999996" lon="-1.2418390000000012">
        <ele>632.247</ele>
        <time>2022-08-24T07:29:43Z</time>
      </trkpt>
      <trkpt lat="43.1145149999996" lon="-1.2418390000000012">
        <ele>632.237</ele>
        <time>2022-08-24T07:29:44Z</time>
      </trkpt>
      <trkpt lat="43.1145029999996" lon="-1.2418420000000012">
        <ele>632.427</ele>
        <time>2022-08-24T07:29:45Z</time>
      </trkpt>
      <trkpt lat="43.1144919999996" lon="-1.2418470000000013">
        <ele>632.443</ele>
        <time>2022-08-24T07:29:46Z</time>
      </trkpt>
      <trkpt lat="43.1144789999996" lon="-1.2418520000000013">
        <ele>632.875</ele>
        <time>2022-08-24T07:29:47Z</time>
      </trkpt>
      <trkpt lat="43.114465999999595" lon="-1.2418540000000013">
        <ele>632.832</ele>
        <time>2022-08-24T07:29:48Z</time>
      </trkpt>
      <trkpt lat="43.114457999999594" lon="-1.2418560000000014">
        <ele>633.025</ele>
        <time>2022-08-24T07:29:49Z</time>
      </trkpt>
      <trkpt lat="43.114448999999595" lon="-1.2418570000000013">
        <ele>633.059</ele>
        <time>2022-08-24T07:29:50Z</time>
      </trkpt>
      <trkpt lat="43.1144399999996" lon="-1.2418580000000012">
        <ele>633.678</ele>
        <time>2022-08-24T07:29:51Z</time>
      </trkpt>
      <trkpt lat="43.1144279999996" lon="-1.2418570000000013">
        <ele>633.833</ele>
        <time>2022-08-24T07:29:52Z</time>
      </trkpt>
      <trkpt lat="43.1144159999996" lon="-1.2418540000000013">
        <ele>633.823</ele>
        <time>2022-08-24T07:29:53Z</time>
      </trkpt>
      <trkpt lat="43.1144039999996" lon="-1.2418460000000013">
        <ele>634.015</ele>
        <time>2022-08-24T07:29:54Z</time>
      </trkpt>
      <trkpt lat="43.1143939999996" lon="-1.2418400000000014">
        <ele>634.209</ele>
        <time>2022-08-24T07:29:55Z</time>
      </trkpt>
      <trkpt lat="43.114383999999596" lon="-1.2418360000000015">
        <ele>634.654</ele>
        <time>2022-08-24T07:29:56Z</time>
      </trkpt>
      <trkpt lat="43.11437399999959" lon="-1.2418320000000016">
        <ele>634.844</ele>
        <time>2022-08-24T07:29:57Z</time>
      </trkpt>
      <trkpt lat="43.11436599999959" lon="-1.2418330000000015">
        <ele>634.884</ele>
        <time>2022-08-24T07:29:58Z</time>
      </trkpt>
      <trkpt lat="43.114353999999594" lon="-1.2418310000000015">
        <ele>635.030</ele>
        <time>2022-08-24T07:29:59Z</time>
      </trkpt>
      <trkpt lat="43.1143469999996" lon="-1.2418280000000015">
        <ele>635.262</ele>
        <time>2022-08-24T07:30:00Z</time>
      </trkpt>
      <trkpt lat="43.114338999999596" lon="-1.2418210000000014">
        <ele>635.449</ele>
        <time>2022-08-24T07:30:01Z</time>
      </trkpt>
      <trkpt lat="43.1143299999996" lon="-1.2418170000000015">
        <ele>635.462</ele>
        <time>2022-08-24T07:30:02Z</time>
      </trkpt>
      <trkpt lat="43.1143209999996" lon="-1.2418170000000015">
        <ele>635.666</ele>
        <time>2022-08-24T07:30:03Z</time>
      </trkpt>
      <trkpt lat="43.1143149999996" lon="-1.2418110000000016">
        <ele>635.655</ele>
        <time>2022-08-24T07:30:04Z</time>
      </trkpt>
      <trkpt lat="43.1143049999996" lon="-1.2418090000000015">
        <ele>635.856</ele>
        <time>2022-08-24T07:30:05Z</time>
      </trkpt>
      <trkpt lat="43.114293999999596" lon="-1.2418070000000014">
        <ele>635.859</ele>
        <time>2022-08-24T07:30:06Z</time>
      </trkpt>
      <trkpt lat="43.1142849999996" lon="-1.2418070000000014">
        <ele>635.814</ele>
        <time>2022-08-24T07:30:07Z</time>
      </trkpt>
      <trkpt lat="43.1142739999996" lon="-1.2418120000000015">
        <ele>636.009</ele>
        <time>2022-08-24T07:30:08Z</time>
      </trkpt>
      <trkpt lat="43.114263999999594" lon="-1.2418170000000015">
        <ele>636.086</ele>
        <time>2022-08-24T07:30:09Z</time>
      </trkpt>
      <trkpt lat="43.11425899999959" lon="-1.2418190000000016">
        <ele>636.036</ele>
        <time>2022-08-24T07:30:10Z</time>
      </trkpt>
      <trkpt lat="43.11425299999959" lon="-1.2418160000000016">
        <ele>636.836</ele>
        <time>2022-08-24T07:31:22Z</time>
      </trkpt>
      <trkpt lat="43.11425299999959" lon="-1.2418160000000016">
        <ele>636.862</ele>
        <time>2022-08-24T07:31:26Z</time>
      </trkpt>
      <trkpt lat="43.114254999999595" lon="-1.2418130000000016">
        <ele>636.824</ele>
        <time>2022-08-24T07:31:27Z</time>
      </trkpt>
      <trkpt lat="43.11428699999959" lon="-1.2417760000000015">
        <ele>636.611</ele>
        <time>2022-08-24T07:31:45Z</time>
      </trkpt>
      <trkpt lat="43.11432099999959" lon="-1.2417490000000015">
        <ele>636.684</ele>
        <time>2022-08-24T07:31:47Z</time>
      </trkpt>
      <trkpt lat="43.114412999999594" lon="-1.2416810000000016">
        <ele>636.678</ele>
        <time>2022-08-24T07:31:53Z</time>
      </trkpt>
      <trkpt lat="43.11442799999959" lon="-1.2416680000000015">
        <ele>636.817</ele>
        <time>2022-08-24T07:31:54Z</time>
      </trkpt>
      <trkpt lat="43.11446199999959" lon="-1.2416600000000015">
        <ele>636.875</ele>
        <time>2022-08-24T07:31:56Z</time>
      </trkpt>
      <trkpt lat="43.11452199999959" lon="-1.2416340000000015">
        <ele>637.628</ele>
        <time>2022-08-24T07:32:00Z</time>
      </trkpt>
      <trkpt lat="43.11453599999959" lon="-1.2416300000000016">
        <ele>637.820</ele>
        <time>2022-08-24T07:32:01Z</time>
      </trkpt>
      <trkpt lat="43.11454999999959" lon="-1.2416270000000016">
        <ele>638.009</ele>
        <time>2022-08-24T07:32:02Z</time>
      </trkpt>
      <trkpt lat="43.11459299999959" lon="-1.2416060000000015">
        <ele>638.628</ele>
        <time>2022-08-24T07:32:05Z</time>
      </trkpt>
      <trkpt lat="43.11460599999959" lon="-1.2415970000000016">
        <ele>639.058</ele>
        <time>2022-08-24T07:32:06Z</time>
      </trkpt>
      <trkpt lat="43.11461999999959" lon="-1.2415900000000015">
        <ele>639.278</ele>
        <time>2022-08-24T07:32:07Z</time>
      </trkpt>
      <trkpt lat="43.11463499999959" lon="-1.2415830000000014">
        <ele>639.274</ele>
        <time>2022-08-24T07:32:08Z</time>
      </trkpt>
      <trkpt lat="43.11470399999959" lon="-1.2415590000000014">
        <ele>639.896</ele>
        <time>2022-08-24T07:32:12Z</time>
      </trkpt>
      <trkpt lat="43.11472199999959" lon="-1.2415500000000015">
        <ele>640.233</ele>
        <time>2022-08-24T07:32:13Z</time>
      </trkpt>
      <trkpt lat="43.11473799999959" lon="-1.2415360000000015">
        <ele>640.466</ele>
        <time>2022-08-24T07:32:14Z</time>
      </trkpt>
      <trkpt lat="43.11475399999959" lon="-1.2415220000000016">
        <ele>640.680</ele>
        <time>2022-08-24T07:32:15Z</time>
      </trkpt>
      <trkpt lat="43.11477199999959" lon="-1.2415120000000015">
        <ele>640.649</ele>
        <time>2022-08-24T07:32:16Z</time>
      </trkpt>
      <trkpt lat="43.11478999999959" lon="-1.2414990000000015">
        <ele>640.823</ele>
        <time>2022-08-24T07:32:17Z</time>
      </trkpt>
      <trkpt lat="43.114807999999584" lon="-1.2414870000000016">
        <ele>641.283</ele>
        <time>2022-08-24T07:32:18Z</time>
      </trkpt>
      <trkpt lat="43.11482599999958" lon="-1.2414780000000016">
        <ele>641.211</ele>
        <time>2022-08-24T07:32:19Z</time>
      </trkpt>
      <trkpt lat="43.11484699999958" lon="-1.2414700000000016">
        <ele>641.409</ele>
        <time>2022-08-24T07:32:20Z</time>
      </trkpt>
      <trkpt lat="43.11486699999958" lon="-1.2414610000000017">
        <ele>641.413</ele>
        <time>2022-08-24T07:32:21Z</time>
      </trkpt>
      <trkpt lat="43.11488699999958" lon="-1.2414520000000018">
        <ele>642.063</ele>
        <time>2022-08-24T07:32:22Z</time>
      </trkpt>
      <trkpt lat="43.11490599999958" lon="-1.2414420000000017">
        <ele>642.493</ele>
        <time>2022-08-24T07:32:23Z</time>
      </trkpt>
      <trkpt lat="43.114920999999576" lon="-1.2414280000000018">
        <ele>642.469</ele>
        <time>2022-08-24T07:32:24Z</time>
      </trkpt>
      <trkpt lat="43.114932999999574" lon="-1.2414210000000017">
        <ele>642.621</ele>
        <time>2022-08-24T07:32:25Z</time>
      </trkpt>
      <trkpt lat="43.114954999999576" lon="-1.2414130000000017">
        <ele>642.848</ele>
        <time>2022-08-24T07:32:26Z</time>
      </trkpt>
      <trkpt lat="43.114979999999576" lon="-1.2413950000000016">
        <ele>643.261</ele>
        <time>2022-08-24T07:32:27Z</time>
      </trkpt>
      <trkpt lat="43.11499899999958" lon="-1.2413790000000016">
        <ele>643.295</ele>
        <time>2022-08-24T07:32:28Z</time>
      </trkpt>
      <trkpt lat="43.115016999999575" lon="-1.2413650000000016">
        <ele>643.664</ele>
        <time>2022-08-24T07:32:29Z</time>
      </trkpt>
      <trkpt lat="43.115039999999574" lon="-1.2413500000000015">
        <ele>644.244</ele>
        <time>2022-08-24T07:32:30Z</time>
      </trkpt>
      <trkpt lat="43.115058999999576" lon="-1.2413380000000016">
        <ele>644.205</ele>
        <time>2022-08-24T07:32:31Z</time>
      </trkpt>
      <trkpt lat="43.11507699999957" lon="-1.2413290000000017">
        <ele>644.615</ele>
        <time>2022-08-24T07:32:32Z</time>
      </trkpt>
      <trkpt lat="43.115092999999575" lon="-1.2413220000000016">
        <ele>644.809</ele>
        <time>2022-08-24T07:32:33Z</time>
      </trkpt>
      <trkpt lat="43.115109999999575" lon="-1.2413170000000016">
        <ele>645.065</ele>
        <time>2022-08-24T07:32:34Z</time>
      </trkpt>
      <trkpt lat="43.115126999999575" lon="-1.2413100000000015">
        <ele>645.295</ele>
        <time>2022-08-24T07:32:35Z</time>
      </trkpt>
      <trkpt lat="43.115146999999574" lon="-1.2412980000000016">
        <ele>645.435</ele>
        <time>2022-08-24T07:32:36Z</time>
      </trkpt>
      <trkpt lat="43.115162999999576" lon="-1.2412930000000015">
        <ele>645.841</ele>
        <time>2022-08-24T07:32:37Z</time>
      </trkpt>
      <trkpt lat="43.115177999999574" lon="-1.2412860000000014">
        <ele>646.023</ele>
        <time>2022-08-24T07:32:38Z</time>
      </trkpt>
      <trkpt lat="43.115193999999576" lon="-1.2412780000000014">
        <ele>646.030</ele>
        <time>2022-08-24T07:32:39Z</time>
      </trkpt>
      <trkpt lat="43.115205999999574" lon="-1.2412730000000014">
        <ele>646.233</ele>
        <time>2022-08-24T07:32:40Z</time>
      </trkpt>
      <trkpt lat="43.115219999999574" lon="-1.2412650000000014">
        <ele>646.617</ele>
        <time>2022-08-24T07:32:41Z</time>
      </trkpt>
      <trkpt lat="43.11523499999957" lon="-1.2412550000000013">
        <ele>646.646</ele>
        <time>2022-08-24T07:32:42Z</time>
      </trkpt>
      <trkpt lat="43.115253999999574" lon="-1.2412480000000012">
        <ele>647.064</ele>
        <time>2022-08-24T07:32:43Z</time>
      </trkpt>
      <trkpt lat="43.115270999999574" lon="-1.2412440000000013">
        <ele>647.006</ele>
        <time>2022-08-24T07:32:44Z</time>
      </trkpt>
      <trkpt lat="43.11528899999957" lon="-1.2412430000000014">
        <ele>647.416</ele>
        <time>2022-08-24T07:32:45Z</time>
      </trkpt>
      <trkpt lat="43.11530599999957" lon="-1.2412420000000015">
        <ele>647.609</ele>
        <time>2022-08-24T07:32:46Z</time>
      </trkpt>
      <trkpt lat="43.11532099999957" lon="-1.2412390000000015">
        <ele>647.897</ele>
        <time>2022-08-24T07:32:47Z</time>
      </trkpt>
      <trkpt lat="43.11533399999957" lon="-1.2412320000000014">
        <ele>648.097</ele>
        <time>2022-08-24T07:32:48Z</time>
      </trkpt>
      <trkpt lat="43.11534799999957" lon="-1.2412280000000016">
        <ele>648.057</ele>
        <time>2022-08-24T07:32:49Z</time>
      </trkpt>
      <trkpt lat="43.11535999999957" lon="-1.2412230000000015">
        <ele>648.253</ele>
        <time>2022-08-24T07:32:50Z</time>
      </trkpt>
      <trkpt lat="43.11537199999957" lon="-1.2412190000000016">
        <ele>648.455</ele>
        <time>2022-08-24T07:32:51Z</time>
      </trkpt>
      <trkpt lat="43.11538599999957" lon="-1.2412150000000017">
        <ele>648.632</ele>
        <time>2022-08-24T07:32:52Z</time>
      </trkpt>
      <trkpt lat="43.115397999999566" lon="-1.2412130000000017">
        <ele>648.835</ele>
        <time>2022-08-24T07:32:53Z</time>
      </trkpt>
      <trkpt lat="43.115408999999566" lon="-1.2412060000000016">
        <ele>649.089</ele>
        <time>2022-08-24T07:32:54Z</time>
      </trkpt>
      <trkpt lat="43.115420999999564" lon="-1.2412000000000016">
        <ele>649.468</ele>
        <time>2022-08-24T07:32:55Z</time>
      </trkpt>
      <trkpt lat="43.11543399999957" lon="-1.2411980000000016">
        <ele>649.431</ele>
        <time>2022-08-24T07:32:56Z</time>
      </trkpt>
      <trkpt lat="43.11544699999957" lon="-1.2411960000000015">
        <ele>649.661</ele>
        <time>2022-08-24T07:32:57Z</time>
      </trkpt>
      <trkpt lat="43.11546099999957" lon="-1.2411870000000016">
        <ele>649.807</ele>
        <time>2022-08-24T07:32:58Z</time>
      </trkpt>
      <trkpt lat="43.11547399999957" lon="-1.2411750000000017">
        <ele>650.009</ele>
        <time>2022-08-24T07:32:59Z</time>
      </trkpt>
      <trkpt lat="43.115486999999575" lon="-1.2411670000000017">
        <ele>650.294</ele>
        <time>2022-08-24T07:33:00Z</time>
      </trkpt>
      <trkpt lat="43.115500999999576" lon="-1.2411620000000017">
        <ele>650.424</ele>
        <time>2022-08-24T07:33:01Z</time>
      </trkpt>
      <trkpt lat="43.11551399999958" lon="-1.2411590000000017">
        <ele>650.684</ele>
        <time>2022-08-24T07:33:02Z</time>
      </trkpt>
      <trkpt lat="43.115525999999576" lon="-1.2411530000000017">
        <ele>650.690</ele>
        <time>2022-08-24T07:33:03Z</time>
      </trkpt>
      <trkpt lat="43.115540999999574" lon="-1.2411480000000017">
        <ele>651.032</ele>
        <time>2022-08-24T07:33:04Z</time>
      </trkpt>
      <trkpt lat="43.11555299999957" lon="-1.2411430000000017">
        <ele>651.049</ele>
        <time>2022-08-24T07:33:05Z</time>
      </trkpt>
      <trkpt lat="43.11556399999957" lon="-1.2411390000000018">
        <ele>651.432</ele>
        <time>2022-08-24T07:33:06Z</time>
      </trkpt>
      <trkpt lat="43.11557499999957" lon="-1.2411330000000018">
        <ele>651.676</ele>
        <time>2022-08-24T07:33:07Z</time>
      </trkpt>
      <trkpt lat="43.115585999999574" lon="-1.2411250000000018">
        <ele>651.865</ele>
        <time>2022-08-24T07:33:08Z</time>
      </trkpt>
      <trkpt lat="43.115596999999575" lon="-1.2411190000000019">
        <ele>652.045</ele>
        <time>2022-08-24T07:33:09Z</time>
      </trkpt>
      <trkpt lat="43.11560699999958" lon="-1.2411120000000018">
        <ele>652.047</ele>
        <time>2022-08-24T07:33:10Z</time>
      </trkpt>
      <trkpt lat="43.11561999999958" lon="-1.2411010000000018">
        <ele>652.211</ele>
        <time>2022-08-24T07:33:11Z</time>
      </trkpt>
      <trkpt lat="43.11563499999958" lon="-1.2410900000000018">
        <ele>652.409</ele>
        <time>2022-08-24T07:33:12Z</time>
      </trkpt>
      <trkpt lat="43.11565099999958" lon="-1.2410820000000018">
        <ele>652.455</ele>
        <time>2022-08-24T07:33:13Z</time>
      </trkpt>
      <trkpt lat="43.11566499999958" lon="-1.2410790000000018">
        <ele>652.655</ele>
        <time>2022-08-24T07:33:14Z</time>
      </trkpt>
      <trkpt lat="43.11567799999958" lon="-1.2410770000000018">
        <ele>652.845</ele>
        <time>2022-08-24T07:33:15Z</time>
      </trkpt>
      <trkpt lat="43.115688999999584" lon="-1.2410740000000018">
        <ele>653.041</ele>
        <time>2022-08-24T07:33:16Z</time>
      </trkpt>
      <trkpt lat="43.115699999999585" lon="-1.2410750000000017">
        <ele>653.283</ele>
        <time>2022-08-24T07:33:17Z</time>
      </trkpt>
      <trkpt lat="43.11570899999958" lon="-1.2410750000000017">
        <ele>653.410</ele>
        <time>2022-08-24T07:33:18Z</time>
      </trkpt>
      <trkpt lat="43.115719999999584" lon="-1.2410700000000017">
        <ele>653.663</ele>
        <time>2022-08-24T07:33:19Z</time>
      </trkpt>
      <trkpt lat="43.115730999999585" lon="-1.2410630000000016">
        <ele>653.837</ele>
        <time>2022-08-24T07:33:20Z</time>
      </trkpt>
      <trkpt lat="43.11574299999958" lon="-1.2410570000000016">
        <ele>654.036</ele>
        <time>2022-08-24T07:33:21Z</time>
      </trkpt>
      <trkpt lat="43.115755999999585" lon="-1.2410530000000017">
        <ele>654.299</ele>
        <time>2022-08-24T07:33:22Z</time>
      </trkpt>
      <trkpt lat="43.115766999999586" lon="-1.2410490000000018">
        <ele>654.207</ele>
        <time>2022-08-24T07:33:23Z</time>
      </trkpt>
      <trkpt lat="43.11577699999959" lon="-1.241043000000002">
        <ele>654.427</ele>
        <time>2022-08-24T07:33:24Z</time>
      </trkpt>
      <trkpt lat="43.11578699999959" lon="-1.241037000000002">
        <ele>654.609</ele>
        <time>2022-08-24T07:33:25Z</time>
      </trkpt>
      <trkpt lat="43.11579799999959" lon="-1.241032000000002">
        <ele>654.640</ele>
        <time>2022-08-24T07:33:26Z</time>
      </trkpt>
      <trkpt lat="43.11581299999959" lon="-1.241029000000002">
        <ele>654.840</ele>
        <time>2022-08-24T07:33:27Z</time>
      </trkpt>
      <trkpt lat="43.11582399999959" lon="-1.241021000000002">
        <ele>655.050</ele>
        <time>2022-08-24T07:33:28Z</time>
      </trkpt>
      <trkpt lat="43.11583499999959" lon="-1.241016000000002">
        <ele>655.246</ele>
        <time>2022-08-24T07:33:29Z</time>
      </trkpt>
      <trkpt lat="43.11584699999959" lon="-1.241010000000002">
        <ele>655.428</ele>
        <time>2022-08-24T07:33:30Z</time>
      </trkpt>
      <trkpt lat="43.11585799999959" lon="-1.241005000000002">
        <ele>655.475</ele>
        <time>2022-08-24T07:33:31Z</time>
      </trkpt>
      <trkpt lat="43.115867999999594" lon="-1.241001000000002">
        <ele>655.828</ele>
        <time>2022-08-24T07:33:32Z</time>
      </trkpt>
      <trkpt lat="43.11587999999959" lon="-1.240996000000002">
        <ele>656.082</ele>
        <time>2022-08-24T07:33:33Z</time>
      </trkpt>
      <trkpt lat="43.11589399999959" lon="-1.240991000000002">
        <ele>656.231</ele>
        <time>2022-08-24T07:33:34Z</time>
      </trkpt>
      <trkpt lat="43.11590899999959" lon="-1.240987000000002">
        <ele>656.499</ele>
        <time>2022-08-24T07:33:35Z</time>
      </trkpt>
      <trkpt lat="43.11592099999959" lon="-1.240982000000002">
        <ele>656.607</ele>
        <time>2022-08-24T07:33:36Z</time>
      </trkpt>
      <trkpt lat="43.11593199999959" lon="-1.240975000000002">
        <ele>656.827</ele>
        <time>2022-08-24T07:33:37Z</time>
      </trkpt>
      <trkpt lat="43.11594499999959" lon="-1.240970000000002">
        <ele>657.009</ele>
        <time>2022-08-24T07:33:38Z</time>
      </trkpt>
      <trkpt lat="43.11595699999959" lon="-1.240964000000002">
        <ele>657.230</ele>
        <time>2022-08-24T07:33:39Z</time>
      </trkpt>
      <trkpt lat="43.11596899999959" lon="-1.240956000000002">
        <ele>657.290</ele>
        <time>2022-08-24T07:33:40Z</time>
      </trkpt>
      <trkpt lat="43.115983999999585" lon="-1.240947000000002">
        <ele>657.640</ele>
        <time>2022-08-24T07:33:41Z</time>
      </trkpt>
      <trkpt lat="43.11599999999959" lon="-1.240942000000002">
        <ele>657.676</ele>
        <time>2022-08-24T07:33:42Z</time>
      </trkpt>
      <trkpt lat="43.116011999999586" lon="-1.240934000000002">
        <ele>657.848</ele>
        <time>2022-08-24T07:33:43Z</time>
      </trkpt>
      <trkpt lat="43.11602699999958" lon="-1.240926000000002">
        <ele>658.055</ele>
        <time>2022-08-24T07:33:44Z</time>
      </trkpt>
      <trkpt lat="43.11604399999958" lon="-1.240918000000002">
        <ele>658.098</ele>
        <time>2022-08-24T07:33:45Z</time>
      </trkpt>
      <trkpt lat="43.116062999999585" lon="-1.240908000000002">
        <ele>658.432</ele>
        <time>2022-08-24T07:33:46Z</time>
      </trkpt>
      <trkpt lat="43.11608199999959" lon="-1.240899000000002">
        <ele>658.421</ele>
        <time>2022-08-24T07:33:47Z</time>
      </trkpt>
      <trkpt lat="43.11610099999959" lon="-1.240889000000002">
        <ele>658.678</ele>
        <time>2022-08-24T07:33:48Z</time>
      </trkpt>
      <trkpt lat="43.11611699999959" lon="-1.2408790000000018">
        <ele>658.633</ele>
        <time>2022-08-24T07:33:49Z</time>
      </trkpt>
      <trkpt lat="43.11613599999959" lon="-1.240867000000002">
        <ele>658.826</ele>
        <time>2022-08-24T07:33:50Z</time>
      </trkpt>
      <trkpt lat="43.116151999999595" lon="-1.240855000000002">
        <ele>659.209</ele>
        <time>2022-08-24T07:33:51Z</time>
      </trkpt>
      <trkpt lat="43.1161679999996" lon="-1.2408430000000021">
        <ele>659.278</ele>
        <time>2022-08-24T07:33:52Z</time>
      </trkpt>
      <trkpt lat="43.116182999999594" lon="-1.2408310000000022">
        <ele>659.638</ele>
        <time>2022-08-24T07:33:53Z</time>
      </trkpt>
      <trkpt lat="43.1161959999996" lon="-1.2408220000000023">
        <ele>659.638</ele>
        <time>2022-08-24T07:33:54Z</time>
      </trkpt>
      <trkpt lat="43.1162089999996" lon="-1.2408140000000023">
        <ele>660.084</ele>
        <time>2022-08-24T07:33:55Z</time>
      </trkpt>
      <trkpt lat="43.1162249999996" lon="-1.2408060000000023">
        <ele>660.286</ele>
        <time>2022-08-24T07:33:56Z</time>
      </trkpt>
      <trkpt lat="43.116237999999605" lon="-1.2408030000000023">
        <ele>660.683</ele>
        <time>2022-08-24T07:33:57Z</time>
      </trkpt>
      <trkpt lat="43.116248999999605" lon="-1.2408000000000023">
        <ele>660.876</ele>
        <time>2022-08-24T07:33:58Z</time>
      </trkpt>
      <trkpt lat="43.11625899999961" lon="-1.2407950000000023">
        <ele>661.280</ele>
        <time>2022-08-24T07:33:59Z</time>
      </trkpt>
      <trkpt lat="43.11627199999961" lon="-1.2407880000000022">
        <ele>661.439</ele>
        <time>2022-08-24T07:34:00Z</time>
      </trkpt>
      <trkpt lat="43.11628299999961" lon="-1.2407830000000022">
        <ele>661.429</ele>
        <time>2022-08-24T07:34:01Z</time>
      </trkpt>
      <trkpt lat="43.116295999999615" lon="-1.2407780000000022">
        <ele>661.600</ele>
        <time>2022-08-24T07:34:02Z</time>
      </trkpt>
      <trkpt lat="43.116309999999615" lon="-1.2407740000000023">
        <ele>661.820</ele>
        <time>2022-08-24T07:34:03Z</time>
      </trkpt>
      <trkpt lat="43.116323999999615" lon="-1.2407690000000022">
        <ele>662.009</ele>
        <time>2022-08-24T07:34:04Z</time>
      </trkpt>
      <trkpt lat="43.116334999999616" lon="-1.2407590000000022">
        <ele>662.063</ele>
        <time>2022-08-24T07:34:05Z</time>
      </trkpt>
      <trkpt lat="43.11634499999962" lon="-1.2407480000000022">
        <ele>662.223</ele>
        <time>2022-08-24T07:34:06Z</time>
      </trkpt>
      <trkpt lat="43.11635899999962" lon="-1.240741000000002">
        <ele>662.673</ele>
        <time>2022-08-24T07:34:07Z</time>
      </trkpt>
      <trkpt lat="43.11637499999962" lon="-1.240731000000002">
        <ele>662.689</ele>
        <time>2022-08-24T07:34:08Z</time>
      </trkpt>
      <trkpt lat="43.11638999999962" lon="-1.240722000000002">
        <ele>662.841</ele>
        <time>2022-08-24T07:34:09Z</time>
      </trkpt>
      <trkpt lat="43.11640499999962" lon="-1.2407130000000022">
        <ele>663.068</ele>
        <time>2022-08-24T07:34:10Z</time>
      </trkpt>
      <trkpt lat="43.116416999999615" lon="-1.2407010000000023">
        <ele>663.051</ele>
        <time>2022-08-24T07:34:11Z</time>
      </trkpt>
      <trkpt lat="43.11642899999961" lon="-1.2406940000000022">
        <ele>663.255</ele>
        <time>2022-08-24T07:34:12Z</time>
      </trkpt>
      <trkpt lat="43.11644099999961" lon="-1.2406860000000022">
        <ele>663.244</ele>
        <time>2022-08-24T07:34:13Z</time>
      </trkpt>
      <trkpt lat="43.116453999999614" lon="-1.2406800000000022">
        <ele>663.233</ele>
        <time>2022-08-24T07:34:14Z</time>
      </trkpt>
      <trkpt lat="43.116466999999616" lon="-1.2406720000000022">
        <ele>663.423</ele>
        <time>2022-08-24T07:34:15Z</time>
      </trkpt>
      <trkpt lat="43.11648099999962" lon="-1.2406630000000023">
        <ele>663.415</ele>
        <time>2022-08-24T07:34:16Z</time>
      </trkpt>
      <trkpt lat="43.11649499999962" lon="-1.2406560000000022">
        <ele>663.609</ele>
        <time>2022-08-24T07:34:17Z</time>
      </trkpt>
      <trkpt lat="43.11650799999962" lon="-1.2406460000000021">
        <ele>663.864</ele>
        <time>2022-08-24T07:34:18Z</time>
      </trkpt>
      <trkpt lat="43.11651999999962" lon="-1.2406350000000022">
        <ele>663.874</ele>
        <time>2022-08-24T07:34:19Z</time>
      </trkpt>
      <trkpt lat="43.11653099999962" lon="-1.2406300000000021">
        <ele>664.214</ele>
        <time>2022-08-24T07:34:20Z</time>
      </trkpt>
      <trkpt lat="43.11653999999962" lon="-1.240620000000002">
        <ele>664.460</ele>
        <time>2022-08-24T07:34:21Z</time>
      </trkpt>
      <trkpt lat="43.11654999999962" lon="-1.240609000000002">
        <ele>664.472</ele>
        <time>2022-08-24T07:34:22Z</time>
      </trkpt>
      <trkpt lat="43.11655899999962" lon="-1.240594000000002">
        <ele>664.619</ele>
        <time>2022-08-24T07:34:23Z</time>
      </trkpt>
      <trkpt lat="43.11656999999962" lon="-1.240581000000002">
        <ele>664.672</ele>
        <time>2022-08-24T07:34:24Z</time>
      </trkpt>
      <trkpt lat="43.11658199999962" lon="-1.240568000000002">
        <ele>664.826</ele>
        <time>2022-08-24T07:34:25Z</time>
      </trkpt>
      <trkpt lat="43.11659499999962" lon="-1.2405610000000018">
        <ele>664.845</ele>
        <time>2022-08-24T07:34:26Z</time>
      </trkpt>
      <trkpt lat="43.11660799999962" lon="-1.240557000000002">
        <ele>665.222</ele>
        <time>2022-08-24T07:34:27Z</time>
      </trkpt>
      <trkpt lat="43.11661999999962" lon="-1.240551000000002">
        <ele>665.262</ele>
        <time>2022-08-24T07:34:28Z</time>
      </trkpt>
      <trkpt lat="43.11663499999962" lon="-1.240546000000002">
        <ele>665.208</ele>
        <time>2022-08-24T07:34:29Z</time>
      </trkpt>
      <trkpt lat="43.11664599999962" lon="-1.2405390000000018">
        <ele>665.409</ele>
        <time>2022-08-24T07:34:30Z</time>
      </trkpt>
      <trkpt lat="43.11665699999962" lon="-1.240530000000002">
        <ele>665.443</ele>
        <time>2022-08-24T07:34:31Z</time>
      </trkpt>
      <trkpt lat="43.11666899999962" lon="-1.240522000000002">
        <ele>665.483</ele>
        <time>2022-08-24T07:34:32Z</time>
      </trkpt>
      <trkpt lat="43.11667999999962" lon="-1.240513000000002">
        <ele>665.843</ele>
        <time>2022-08-24T07:34:33Z</time>
      </trkpt>
      <trkpt lat="43.11668999999962" lon="-1.240505000000002">
        <ele>665.889</ele>
        <time>2022-08-24T07:34:34Z</time>
      </trkpt>
      <trkpt lat="43.11670099999962" lon="-1.240496000000002">
        <ele>666.031</ele>
        <time>2022-08-24T07:34:35Z</time>
      </trkpt>
      <trkpt lat="43.11671199999962" lon="-1.240486000000002">
        <ele>666.068</ele>
        <time>2022-08-24T07:34:36Z</time>
      </trkpt>
      <trkpt lat="43.116721999999626" lon="-1.240477000000002">
        <ele>666.021</ele>
        <time>2022-08-24T07:34:37Z</time>
      </trkpt>
      <trkpt lat="43.11673199999963" lon="-1.2404680000000021">
        <ele>666.265</ele>
        <time>2022-08-24T07:34:38Z</time>
      </trkpt>
      <trkpt lat="43.11674299999963" lon="-1.2404620000000022">
        <ele>666.484</ele>
        <time>2022-08-24T07:34:39Z</time>
      </trkpt>
      <trkpt lat="43.11675399999963" lon="-1.2404560000000022">
        <ele>666.479</ele>
        <time>2022-08-24T07:34:40Z</time>
      </trkpt>
      <trkpt lat="43.11676499999963" lon="-1.2404510000000022">
        <ele>666.605</ele>
        <time>2022-08-24T07:34:41Z</time>
      </trkpt>
      <trkpt lat="43.11677699999963" lon="-1.2404480000000022">
        <ele>666.825</ele>
        <time>2022-08-24T07:34:42Z</time>
      </trkpt>
      <trkpt lat="43.11678799999963" lon="-1.2404430000000022">
        <ele>667.009</ele>
        <time>2022-08-24T07:34:43Z</time>
      </trkpt>
      <trkpt lat="43.11679899999963" lon="-1.2404340000000023">
        <ele>667.298</ele>
        <time>2022-08-24T07:34:44Z</time>
      </trkpt>
      <trkpt lat="43.11680799999963" lon="-1.2404240000000022">
        <ele>667.288</ele>
        <time>2022-08-24T07:34:45Z</time>
      </trkpt>
      <trkpt lat="43.11681699999963" lon="-1.2404130000000022">
        <ele>667.668</ele>
        <time>2022-08-24T07:34:46Z</time>
      </trkpt>
      <trkpt lat="43.11682799999963" lon="-1.2404060000000021">
        <ele>667.644</ele>
        <time>2022-08-24T07:34:47Z</time>
      </trkpt>
      <trkpt lat="43.11683699999963" lon="-1.240396000000002">
        <ele>667.826</ele>
        <time>2022-08-24T07:34:48Z</time>
      </trkpt>
      <trkpt lat="43.116848999999625" lon="-1.240388000000002">
        <ele>668.043</ele>
        <time>2022-08-24T07:34:49Z</time>
      </trkpt>
      <trkpt lat="43.11685899999963" lon="-1.240381000000002">
        <ele>668.026</ele>
        <time>2022-08-24T07:34:50Z</time>
      </trkpt>
      <trkpt lat="43.11686999999963" lon="-1.240377000000002">
        <ele>668.420</ele>
        <time>2022-08-24T07:34:51Z</time>
      </trkpt>
      <trkpt lat="43.11688399999963" lon="-1.240369000000002">
        <ele>668.429</ele>
        <time>2022-08-24T07:34:52Z</time>
      </trkpt>
      <trkpt lat="43.11689799999963" lon="-1.2403600000000021">
        <ele>668.635</ele>
        <time>2022-08-24T07:34:53Z</time>
      </trkpt>
      <trkpt lat="43.11691099999963" lon="-1.240350000000002">
        <ele>668.686</ele>
        <time>2022-08-24T07:34:54Z</time>
      </trkpt>
      <trkpt lat="43.11692499999963" lon="-1.2403440000000021">
        <ele>668.814</ele>
        <time>2022-08-24T07:34:55Z</time>
      </trkpt>
      <trkpt lat="43.11693599999963" lon="-1.2403330000000021">
        <ele>669.209</ele>
        <time>2022-08-24T07:34:56Z</time>
      </trkpt>
      <trkpt lat="43.11693599999963" lon="-1.2403330000000021">
        <ele>669.224</ele>
        <time>2022-08-24T07:34:57Z</time>
      </trkpt>
      <trkpt lat="43.116960999999634" lon="-1.240318000000002">
        <ele>669.674</ele>
        <time>2022-08-24T07:34:58Z</time>
      </trkpt>
      <trkpt lat="43.11697899999963" lon="-1.2403060000000021">
        <ele>669.644</ele>
        <time>2022-08-24T07:34:59Z</time>
      </trkpt>
      <trkpt lat="43.11698999999963" lon="-1.2402940000000022">
        <ele>669.880</ele>
        <time>2022-08-24T07:35:00Z</time>
      </trkpt>
      <trkpt lat="43.11699899999963" lon="-1.2402830000000022">
        <ele>670.012</ele>
        <time>2022-08-24T07:35:01Z</time>
      </trkpt>
      <trkpt lat="43.11700399999963" lon="-1.2402770000000023">
        <ele>670.289</ele>
        <time>2022-08-24T07:35:02Z</time>
      </trkpt>
      <trkpt lat="43.117013999999635" lon="-1.2402680000000024">
        <ele>670.222</ele>
        <time>2022-08-24T07:35:03Z</time>
      </trkpt>
      <trkpt lat="43.11702699999964" lon="-1.2402590000000024">
        <ele>670.686</ele>
        <time>2022-08-24T07:35:04Z</time>
      </trkpt>
      <trkpt lat="43.11703999999964" lon="-1.2402500000000025">
        <ele>670.865</ele>
        <time>2022-08-24T07:35:05Z</time>
      </trkpt>
      <trkpt lat="43.11705399999964" lon="-1.2402400000000025">
        <ele>671.051</ele>
        <time>2022-08-24T07:35:06Z</time>
      </trkpt>
      <trkpt lat="43.11706599999964" lon="-1.2402330000000024">
        <ele>671.001</ele>
        <time>2022-08-24T07:35:07Z</time>
      </trkpt>
      <trkpt lat="43.11707899999964" lon="-1.2402230000000023">
        <ele>671.211</ele>
        <time>2022-08-24T07:35:08Z</time>
      </trkpt>
      <trkpt lat="43.11709299999964" lon="-1.2402160000000022">
        <ele>671.609</ele>
        <time>2022-08-24T07:35:09Z</time>
      </trkpt>
      <trkpt lat="43.117108999999644" lon="-1.2402110000000022">
        <ele>671.826</ele>
        <time>2022-08-24T07:35:10Z</time>
      </trkpt>
      <trkpt lat="43.11712199999965" lon="-1.2402030000000022">
        <ele>672.036</ele>
        <time>2022-08-24T07:35:11Z</time>
      </trkpt>
      <trkpt lat="43.11713499999965" lon="-1.2401890000000022">
        <ele>672.286</ele>
        <time>2022-08-24T07:35:12Z</time>
      </trkpt>
      <trkpt lat="43.11714399999965" lon="-1.2401810000000022">
        <ele>672.442</ele>
        <time>2022-08-24T07:35:13Z</time>
      </trkpt>
      <trkpt lat="43.117155999999646" lon="-1.2401760000000022">
        <ele>672.874</ele>
        <time>2022-08-24T07:35:14Z</time>
      </trkpt>
      <trkpt lat="43.11716699999965" lon="-1.2401680000000022">
        <ele>672.881</ele>
        <time>2022-08-24T07:35:15Z</time>
      </trkpt>
      <trkpt lat="43.11718099999965" lon="-1.2401590000000022">
        <ele>673.294</ele>
        <time>2022-08-24T07:35:16Z</time>
      </trkpt>
      <trkpt lat="43.117192999999645" lon="-1.2401520000000021">
        <ele>673.478</ele>
        <time>2022-08-24T07:35:17Z</time>
      </trkpt>
      <trkpt lat="43.11720599999965" lon="-1.2401460000000022">
        <ele>673.627</ele>
        <time>2022-08-24T07:35:18Z</time>
      </trkpt>
      <trkpt lat="43.117220999999645" lon="-1.2401410000000022">
        <ele>673.661</ele>
        <time>2022-08-24T07:35:19Z</time>
      </trkpt>
      <trkpt lat="43.117234999999646" lon="-1.2401350000000022">
        <ele>673.821</ele>
        <time>2022-08-24T07:35:20Z</time>
      </trkpt>
      <trkpt lat="43.11725299999964" lon="-1.2401270000000022">
        <ele>674.013</ele>
        <time>2022-08-24T07:35:21Z</time>
      </trkpt>
      <trkpt lat="43.11726499999964" lon="-1.2401190000000022">
        <ele>674.209</ele>
        <time>2022-08-24T07:35:22Z</time>
      </trkpt>
      <trkpt lat="43.11727599999964" lon="-1.2401110000000022">
        <ele>674.487</ele>
        <time>2022-08-24T07:35:23Z</time>
      </trkpt>
      <trkpt lat="43.11728799999964" lon="-1.2401060000000022">
        <ele>674.467</ele>
        <time>2022-08-24T07:35:24Z</time>
      </trkpt>
      <trkpt lat="43.11729999999964" lon="-1.2401010000000021">
        <ele>674.817</ele>
        <time>2022-08-24T07:35:25Z</time>
      </trkpt>
      <trkpt lat="43.117311999999636" lon="-1.2400970000000022">
        <ele>675.083</ele>
        <time>2022-08-24T07:35:26Z</time>
      </trkpt>
      <trkpt lat="43.11732199999964" lon="-1.2400910000000023">
        <ele>675.225</ele>
        <time>2022-08-24T07:35:27Z</time>
      </trkpt>
      <trkpt lat="43.11733699999964" lon="-1.2400870000000024">
        <ele>675.492</ele>
        <time>2022-08-24T07:35:28Z</time>
      </trkpt>
      <trkpt lat="43.117348999999635" lon="-1.2400810000000024">
        <ele>675.415</ele>
        <time>2022-08-24T07:35:29Z</time>
      </trkpt>
      <trkpt lat="43.11734799999964" lon="-1.2400690000000025">
        <ele>675.449</ele>
        <time>2022-08-24T07:35:30Z</time>
      </trkpt>
      <trkpt lat="43.11734699999964" lon="-1.2400600000000026">
        <ele>675.628</ele>
        <time>2022-08-24T07:35:31Z</time>
      </trkpt>
      <trkpt lat="43.11735799999964" lon="-1.2400570000000026">
        <ele>675.863</ele>
        <time>2022-08-24T07:35:32Z</time>
      </trkpt>
      <trkpt lat="43.11737199999964" lon="-1.2400550000000026">
        <ele>676.044</ele>
        <time>2022-08-24T07:35:33Z</time>
      </trkpt>
      <trkpt lat="43.11738599999964" lon="-1.2400510000000027">
        <ele>676.018</ele>
        <time>2022-08-24T07:35:34Z</time>
      </trkpt>
      <trkpt lat="43.11740099999964" lon="-1.2400410000000026">
        <ele>676.409</ele>
        <time>2022-08-24T07:35:35Z</time>
      </trkpt>
      <trkpt lat="43.11741499999964" lon="-1.2400360000000026">
        <ele>676.427</ele>
        <time>2022-08-24T07:35:36Z</time>
      </trkpt>
      <trkpt lat="43.11742799999964" lon="-1.2400330000000026">
        <ele>676.877</ele>
        <time>2022-08-24T07:35:37Z</time>
      </trkpt>
      <trkpt lat="43.11743899999964" lon="-1.2400310000000025">
        <ele>676.867</ele>
        <time>2022-08-24T07:35:38Z</time>
      </trkpt>
      <trkpt lat="43.117451999999645" lon="-1.2400260000000025">
        <ele>677.263</ele>
        <time>2022-08-24T07:35:39Z</time>
      </trkpt>
      <trkpt lat="43.11746399999964" lon="-1.2400180000000025">
        <ele>677.435</ele>
        <time>2022-08-24T07:35:40Z</time>
      </trkpt>
      <trkpt lat="43.117476999999646" lon="-1.2400130000000025">
        <ele>677.462</ele>
        <time>2022-08-24T07:35:41Z</time>
      </trkpt>
      <trkpt lat="43.117487999999646" lon="-1.2400060000000024">
        <ele>677.835</ele>
        <time>2022-08-24T07:35:42Z</time>
      </trkpt>
      <trkpt lat="43.11749899999965" lon="-1.2400020000000025">
        <ele>678.019</ele>
        <time>2022-08-24T07:35:43Z</time>
      </trkpt>
      <trkpt lat="43.11751199999965" lon="-1.2399990000000025">
        <ele>678.218</ele>
        <time>2022-08-24T07:35:44Z</time>
      </trkpt>
      <trkpt lat="43.11752299999965" lon="-1.2399940000000025">
        <ele>678.233</ele>
        <time>2022-08-24T07:35:45Z</time>
      </trkpt>
      <trkpt lat="43.11753499999965" lon="-1.2399920000000024">
        <ele>678.423</ele>
        <time>2022-08-24T07:35:46Z</time>
      </trkpt>
      <trkpt lat="43.11754799999965" lon="-1.2399910000000025">
        <ele>678.815</ele>
        <time>2022-08-24T07:35:47Z</time>
      </trkpt>
      <trkpt lat="43.11756199999965" lon="-1.2399890000000025">
        <ele>679.009</ele>
        <time>2022-08-24T07:35:48Z</time>
      </trkpt>
      <trkpt lat="43.11757399999965" lon="-1.2399840000000024">
        <ele>679.054</ele>
        <time>2022-08-24T07:35:49Z</time>
      </trkpt>
      <trkpt lat="43.11758499999965" lon="-1.2399820000000024">
        <ele>679.254</ele>
        <time>2022-08-24T07:35:50Z</time>
      </trkpt>
      <trkpt lat="43.11759799999965" lon="-1.2399850000000023">
        <ele>679.474</ele>
        <time>2022-08-24T07:35:51Z</time>
      </trkpt>
      <trkpt lat="43.117607999999656" lon="-1.2399800000000023">
        <ele>679.620</ele>
        <time>2022-08-24T07:35:52Z</time>
      </trkpt>
      <trkpt lat="43.11761899999966" lon="-1.2399720000000023">
        <ele>679.882</ele>
        <time>2022-08-24T07:35:53Z</time>
      </trkpt>
      <trkpt lat="43.11763299999966" lon="-1.2399660000000023">
        <ele>679.879</ele>
        <time>2022-08-24T07:35:54Z</time>
      </trkpt>
      <trkpt lat="43.11764899999966" lon="-1.2399630000000024">
        <ele>680.242</ele>
        <time>2022-08-24T07:35:55Z</time>
      </trkpt>
      <trkpt lat="43.11766199999966" lon="-1.2399570000000024">
        <ele>680.456</ele>
        <time>2022-08-24T07:35:56Z</time>
      </trkpt>
      <trkpt lat="43.11767399999966" lon="-1.2399490000000024">
        <ele>680.455</ele>
        <time>2022-08-24T07:35:57Z</time>
      </trkpt>
      <trkpt lat="43.11768799999966" lon="-1.2399460000000024">
        <ele>680.666</ele>
        <time>2022-08-24T07:35:58Z</time>
      </trkpt>
      <trkpt lat="43.11770199999966" lon="-1.2399400000000025">
        <ele>680.829</ele>
        <time>2022-08-24T07:35:59Z</time>
      </trkpt>
      <trkpt lat="43.11771599999966" lon="-1.2399340000000025">
        <ele>681.021</ele>
        <time>2022-08-24T07:36:00Z</time>
      </trkpt>
      <trkpt lat="43.11772999999966" lon="-1.2399310000000026">
        <ele>681.209</ele>
        <time>2022-08-24T07:36:01Z</time>
      </trkpt>
      <trkpt lat="43.11773699999966" lon="-1.2399260000000025">
        <ele>681.427</ele>
        <time>2022-08-24T07:36:02Z</time>
      </trkpt>
      <trkpt lat="43.117742999999656" lon="-1.2399160000000025">
        <ele>681.427</ele>
        <time>2022-08-24T07:36:03Z</time>
      </trkpt>
      <trkpt lat="43.117754999999654" lon="-1.2399080000000025">
        <ele>681.697</ele>
        <time>2022-08-24T07:36:04Z</time>
      </trkpt>
      <trkpt lat="43.11776699999965" lon="-1.2399010000000024">
        <ele>681.853</ele>
        <time>2022-08-24T07:36:05Z</time>
      </trkpt>
      <trkpt lat="43.11777899999965" lon="-1.2398970000000025">
        <ele>681.835</ele>
        <time>2022-08-24T07:36:06Z</time>
      </trkpt>
      <trkpt lat="43.11778999999965" lon="-1.2398910000000025">
        <ele>682.212</ele>
        <time>2022-08-24T07:36:07Z</time>
      </trkpt>
      <trkpt lat="43.117802999999654" lon="-1.2398840000000024">
        <ele>682.215</ele>
        <time>2022-08-24T07:36:08Z</time>
      </trkpt>
      <trkpt lat="43.11781299999966" lon="-1.2398760000000024">
        <ele>682.479</ele>
        <time>2022-08-24T07:36:09Z</time>
      </trkpt>
      <trkpt lat="43.11782299999966" lon="-1.2398660000000024">
        <ele>682.618</ele>
        <time>2022-08-24T07:36:10Z</time>
      </trkpt>
      <trkpt lat="43.11783299999966" lon="-1.2398580000000023">
        <ele>682.682</ele>
        <time>2022-08-24T07:36:11Z</time>
      </trkpt>
      <trkpt lat="43.11784199999966" lon="-1.2398480000000023">
        <ele>682.843</ele>
        <time>2022-08-24T07:36:12Z</time>
      </trkpt>
      <trkpt lat="43.11785099999966" lon="-1.2398390000000024">
        <ele>683.017</ele>
        <time>2022-08-24T07:36:13Z</time>
      </trkpt>
      <trkpt lat="43.11785999999966" lon="-1.2398290000000023">
        <ele>683.209</ele>
        <time>2022-08-24T07:36:14Z</time>
      </trkpt>
      <trkpt lat="43.11786899999966" lon="-1.2398180000000023">
        <ele>683.239</ele>
        <time>2022-08-24T07:36:15Z</time>
      </trkpt>
      <trkpt lat="43.11787699999966" lon="-1.2398070000000023">
        <ele>683.289</ele>
        <time>2022-08-24T07:36:16Z</time>
      </trkpt>
      <trkpt lat="43.11788199999966" lon="-1.2397990000000023">
        <ele>683.659</ele>
        <time>2022-08-24T07:36:17Z</time>
      </trkpt>
      <trkpt lat="43.11788999999966" lon="-1.2397910000000023">
        <ele>683.875</ele>
        <time>2022-08-24T07:36:18Z</time>
      </trkpt>
      <trkpt lat="43.11789599999966" lon="-1.2397800000000023">
        <ele>684.067</ele>
        <time>2022-08-24T07:36:19Z</time>
      </trkpt>
      <trkpt lat="43.11790299999966" lon="-1.2397680000000024">
        <ele>684.244</ele>
        <time>2022-08-24T07:36:20Z</time>
      </trkpt>
      <trkpt lat="43.117909999999654" lon="-1.2397540000000025">
        <ele>684.227</ele>
        <time>2022-08-24T07:36:21Z</time>
      </trkpt>
      <trkpt lat="43.11791599999965" lon="-1.2397410000000024">
        <ele>684.461</ele>
        <time>2022-08-24T07:36:22Z</time>
      </trkpt>
      <trkpt lat="43.11792499999965" lon="-1.2397300000000024">
        <ele>684.470</ele>
        <time>2022-08-24T07:36:23Z</time>
      </trkpt>
      <trkpt lat="43.11793599999965" lon="-1.2397200000000024">
        <ele>684.856</ele>
        <time>2022-08-24T07:36:24Z</time>
      </trkpt>
      <trkpt lat="43.117945999999655" lon="-1.2397060000000024">
        <ele>684.859</ele>
        <time>2022-08-24T07:36:25Z</time>
      </trkpt>
      <trkpt lat="43.11795599999966" lon="-1.2396910000000023">
        <ele>685.014</ele>
        <time>2022-08-24T07:36:26Z</time>
      </trkpt>
      <trkpt lat="43.117962999999655" lon="-1.2396750000000023">
        <ele>685.009</ele>
        <time>2022-08-24T07:36:27Z</time>
      </trkpt>
      <trkpt lat="43.117970999999656" lon="-1.2396590000000023">
        <ele>685.246</ele>
        <time>2022-08-24T07:36:28Z</time>
      </trkpt>
      <trkpt lat="43.11798099999966" lon="-1.2396380000000022">
        <ele>685.256</ele>
        <time>2022-08-24T07:36:29Z</time>
      </trkpt>
      <trkpt lat="43.11798899999966" lon="-1.2396180000000023">
        <ele>685.256</ele>
        <time>2022-08-24T07:36:30Z</time>
      </trkpt>
      <trkpt lat="43.11799799999966" lon="-1.2395950000000022">
        <ele>685.492</ele>
        <time>2022-08-24T07:36:31Z</time>
      </trkpt>
      <trkpt lat="43.118001999999656" lon="-1.2395780000000023">
        <ele>685.634</ele>
        <time>2022-08-24T07:36:32Z</time>
      </trkpt>
      <trkpt lat="43.118004999999656" lon="-1.2395610000000024">
        <ele>686.041</ele>
        <time>2022-08-24T07:36:33Z</time>
      </trkpt>
      <trkpt lat="43.118010999999655" lon="-1.2395460000000023">
        <ele>686.284</ele>
        <time>2022-08-24T07:36:34Z</time>
      </trkpt>
      <trkpt lat="43.11801499999965" lon="-1.2395330000000022">
        <ele>686.418</ele>
        <time>2022-08-24T07:36:35Z</time>
      </trkpt>
      <trkpt lat="43.11802199999965" lon="-1.2395160000000023">
        <ele>686.647</ele>
        <time>2022-08-24T07:36:36Z</time>
      </trkpt>
      <trkpt lat="43.11802699999965" lon="-1.2395010000000022">
        <ele>686.867</ele>
        <time>2022-08-24T07:36:37Z</time>
      </trkpt>
      <trkpt lat="43.11803299999965" lon="-1.2394890000000023">
        <ele>686.881</ele>
        <time>2022-08-24T07:36:38Z</time>
      </trkpt>
      <trkpt lat="43.11803799999965" lon="-1.2394720000000023">
        <ele>687.219</ele>
        <time>2022-08-24T07:36:39Z</time>
      </trkpt>
      <trkpt lat="43.11804099999965" lon="-1.2394570000000023">
        <ele>687.609</ele>
        <time>2022-08-24T07:36:40Z</time>
      </trkpt>
      <trkpt lat="43.11804399999965" lon="-1.2394440000000022">
        <ele>687.867</ele>
        <time>2022-08-24T07:36:41Z</time>
      </trkpt>
      <trkpt lat="43.11804399999965" lon="-1.2394440000000022">
        <ele>688.087</ele>
        <time>2022-08-24T07:36:42Z</time>
      </trkpt>
      <trkpt lat="43.11805399999965" lon="-1.2394130000000023">
        <ele>688.277</ele>
        <time>2022-08-24T07:36:43Z</time>
      </trkpt>
      <trkpt lat="43.11805799999965" lon="-1.2393980000000022">
        <ele>688.453</ele>
        <time>2022-08-24T07:36:44Z</time>
      </trkpt>
      <trkpt lat="43.11806199999965" lon="-1.2393820000000022">
        <ele>688.455</ele>
        <time>2022-08-24T07:36:45Z</time>
      </trkpt>
      <trkpt lat="43.11806699999965" lon="-1.239367000000002">
        <ele>688.662</ele>
        <time>2022-08-24T07:36:46Z</time>
      </trkpt>
      <trkpt lat="43.11807199999965" lon="-1.239349000000002">
        <ele>688.855</ele>
        <time>2022-08-24T07:36:47Z</time>
      </trkpt>
      <trkpt lat="43.11807699999965" lon="-1.239336000000002">
        <ele>688.899</ele>
        <time>2022-08-24T07:36:48Z</time>
      </trkpt>
      <trkpt lat="43.11807999999965" lon="-1.239316000000002">
        <ele>689.088</ele>
        <time>2022-08-24T07:36:49Z</time>
      </trkpt>
      <trkpt lat="43.11808199999965" lon="-1.2392940000000021">
        <ele>689.227</ele>
        <time>2022-08-24T07:36:50Z</time>
      </trkpt>
      <trkpt lat="43.11808299999965" lon="-1.239271000000002">
        <ele>689.468</ele>
        <time>2022-08-24T07:36:51Z</time>
      </trkpt>
      <trkpt lat="43.11808499999965" lon="-1.239259000000002">
        <ele>689.614</ele>
        <time>2022-08-24T07:36:52Z</time>
      </trkpt>
      <trkpt lat="43.11808799999965" lon="-1.239244000000002">
        <ele>689.809</ele>
        <time>2022-08-24T07:36:53Z</time>
      </trkpt>
      <trkpt lat="43.11808799999965" lon="-1.239244000000002">
        <ele>690.033</ele>
        <time>2022-08-24T07:36:54Z</time>
      </trkpt>
      <trkpt lat="43.11809399999965" lon="-1.239209000000002">
        <ele>690.253</ele>
        <time>2022-08-24T07:36:55Z</time>
      </trkpt>
      <trkpt lat="43.11809499999965" lon="-1.239190000000002">
        <ele>690.253</ele>
        <time>2022-08-24T07:36:56Z</time>
      </trkpt>
      <trkpt lat="43.11809499999965" lon="-1.239179000000002">
        <ele>690.499</ele>
        <time>2022-08-24T07:36:57Z</time>
      </trkpt>
      <trkpt lat="43.11809499999965" lon="-1.2391670000000021">
        <ele>690.611</ele>
        <time>2022-08-24T07:36:58Z</time>
      </trkpt>
      <trkpt lat="43.11809699999965" lon="-1.2391470000000022">
        <ele>690.818</ele>
        <time>2022-08-24T07:36:59Z</time>
      </trkpt>
      <trkpt lat="43.11809699999965" lon="-1.2391340000000022">
        <ele>691.021</ele>
        <time>2022-08-24T07:37:00Z</time>
      </trkpt>
      <trkpt lat="43.11809599999965" lon="-1.2391180000000022">
        <ele>691.425</ele>
        <time>2022-08-24T07:37:01Z</time>
      </trkpt>
      <trkpt lat="43.118094999999656" lon="-1.2391040000000022">
        <ele>691.624</ele>
        <time>2022-08-24T07:37:02Z</time>
      </trkpt>
      <trkpt lat="43.11809699999966" lon="-1.2390920000000023">
        <ele>691.884</ele>
        <time>2022-08-24T07:37:03Z</time>
      </trkpt>
      <trkpt lat="43.118100999999655" lon="-1.2390760000000023">
        <ele>692.007</ele>
        <time>2022-08-24T07:37:04Z</time>
      </trkpt>
      <trkpt lat="43.11810299999966" lon="-1.2390590000000024">
        <ele>692.217</ele>
        <time>2022-08-24T07:37:05Z</time>
      </trkpt>
      <trkpt lat="43.118103999999654" lon="-1.2390470000000025">
        <ele>692.409</ele>
        <time>2022-08-24T07:37:06Z</time>
      </trkpt>
      <trkpt lat="43.118103999999654" lon="-1.2390320000000024">
        <ele>692.649</ele>
        <time>2022-08-24T07:37:07Z</time>
      </trkpt>
      <trkpt lat="43.118105999999656" lon="-1.2390210000000024">
        <ele>693.039</ele>
        <time>2022-08-24T07:37:08Z</time>
      </trkpt>
      <trkpt lat="43.11810799999966" lon="-1.2390080000000023">
        <ele>693.289</ele>
        <time>2022-08-24T07:37:09Z</time>
      </trkpt>
      <trkpt lat="43.11810699999966" lon="-1.2389940000000024">
        <ele>693.225</ele>
        <time>2022-08-24T07:37:10Z</time>
      </trkpt>
      <trkpt lat="43.11810199999966" lon="-1.2389810000000023">
        <ele>693.447</ele>
        <time>2022-08-24T07:37:11Z</time>
      </trkpt>
      <trkpt lat="43.11809799999966" lon="-1.2389700000000023">
        <ele>693.454</ele>
        <time>2022-08-24T07:37:12Z</time>
      </trkpt>
      <trkpt lat="43.118096999999665" lon="-1.2389560000000024">
        <ele>693.657</ele>
        <time>2022-08-24T07:37:13Z</time>
      </trkpt>
      <trkpt lat="43.118096999999665" lon="-1.2389420000000024">
        <ele>693.831</ele>
        <time>2022-08-24T07:37:14Z</time>
      </trkpt>
      <trkpt lat="43.11809499999966" lon="-1.2389280000000025">
        <ele>694.070</ele>
        <time>2022-08-24T07:37:15Z</time>
      </trkpt>
      <trkpt lat="43.11808999999966" lon="-1.2389130000000024">
        <ele>694.069</ele>
        <time>2022-08-24T07:37:16Z</time>
      </trkpt>
      <trkpt lat="43.11808499999966" lon="-1.2389000000000023">
        <ele>694.404</ele>
        <time>2022-08-24T07:37:17Z</time>
      </trkpt>
      <trkpt lat="43.11808199999966" lon="-1.2388870000000023">
        <ele>694.424</ele>
        <time>2022-08-24T07:37:18Z</time>
      </trkpt>
      <trkpt lat="43.11807599999966" lon="-1.2388740000000023">
        <ele>694.609</ele>
        <time>2022-08-24T07:37:19Z</time>
      </trkpt>
      <trkpt lat="43.11806999999966" lon="-1.2388630000000023">
        <ele>694.877</ele>
        <time>2022-08-24T07:37:20Z</time>
      </trkpt>
      <trkpt lat="43.11806499999966" lon="-1.2388490000000023">
        <ele>695.037</ele>
        <time>2022-08-24T07:37:21Z</time>
      </trkpt>
      <trkpt lat="43.11805699999966" lon="-1.2388310000000022">
        <ele>695.467</ele>
        <time>2022-08-24T07:37:22Z</time>
      </trkpt>
      <trkpt lat="43.11804999999966" lon="-1.2388150000000022">
        <ele>695.623</ele>
        <time>2022-08-24T07:37:23Z</time>
      </trkpt>
      <trkpt lat="43.118042999999666" lon="-1.2388000000000021">
        <ele>696.025</ele>
        <time>2022-08-24T07:37:24Z</time>
      </trkpt>
      <trkpt lat="43.118037999999665" lon="-1.2387810000000021">
        <ele>696.252</ele>
        <time>2022-08-24T07:37:25Z</time>
      </trkpt>
      <trkpt lat="43.11803399999967" lon="-1.2387640000000022">
        <ele>696.445</ele>
        <time>2022-08-24T07:37:26Z</time>
      </trkpt>
      <trkpt lat="43.11803099999967" lon="-1.2387510000000022">
        <ele>696.419</ele>
        <time>2022-08-24T07:37:27Z</time>
      </trkpt>
      <trkpt lat="43.11802399999967" lon="-1.2387370000000022">
        <ele>696.678</ele>
        <time>2022-08-24T07:37:28Z</time>
      </trkpt>
      <trkpt lat="43.11801599999967" lon="-1.2387250000000023">
        <ele>697.091</ele>
        <time>2022-08-24T07:37:29Z</time>
      </trkpt>
      <trkpt lat="43.11800699999967" lon="-1.2387130000000024">
        <ele>697.081</ele>
        <time>2022-08-24T07:37:30Z</time>
      </trkpt>
      <trkpt lat="43.11799899999967" lon="-1.2387020000000024">
        <ele>697.419</ele>
        <time>2022-08-24T07:37:31Z</time>
      </trkpt>
      <trkpt lat="43.11798999999967" lon="-1.2386930000000025">
        <ele>697.609</ele>
        <time>2022-08-24T07:37:32Z</time>
      </trkpt>
      <trkpt lat="43.11798099999967" lon="-1.2386810000000026">
        <ele>698.060</ele>
        <time>2022-08-24T07:37:33Z</time>
      </trkpt>
      <trkpt lat="43.117971999999675" lon="-1.2386670000000026">
        <ele>698.060</ele>
        <time>2022-08-24T07:37:34Z</time>
      </trkpt>
      <trkpt lat="43.117965999999676" lon="-1.2386530000000027">
        <ele>698.260</ele>
        <time>2022-08-24T07:37:35Z</time>
      </trkpt>
      <trkpt lat="43.117963999999674" lon="-1.2386370000000027">
        <ele>698.486</ele>
        <time>2022-08-24T07:37:36Z</time>
      </trkpt>
      <trkpt lat="43.117960999999674" lon="-1.2386210000000026">
        <ele>698.858</ele>
        <time>2022-08-24T07:37:37Z</time>
      </trkpt>
      <trkpt lat="43.11795599999967" lon="-1.2386080000000026">
        <ele>699.085</ele>
        <time>2022-08-24T07:37:38Z</time>
      </trkpt>
      <trkpt lat="43.11794799999967" lon="-1.2386010000000025">
        <ele>699.258</ele>
        <time>2022-08-24T07:37:39Z</time>
      </trkpt>
      <trkpt lat="43.11794199999967" lon="-1.2385960000000025">
        <ele>699.672</ele>
        <time>2022-08-24T07:37:40Z</time>
      </trkpt>
      <trkpt lat="43.117932999999674" lon="-1.2385880000000025">
        <ele>699.671</ele>
        <time>2022-08-24T07:37:41Z</time>
      </trkpt>
      <trkpt lat="43.11792499999967" lon="-1.2385770000000025">
        <ele>700.052</ele>
        <time>2022-08-24T07:37:42Z</time>
      </trkpt>
      <trkpt lat="43.117917999999676" lon="-1.2385680000000026">
        <ele>700.053</ele>
        <time>2022-08-24T07:37:43Z</time>
      </trkpt>
      <trkpt lat="43.11791199999968" lon="-1.2385570000000026">
        <ele>700.208</ele>
        <time>2022-08-24T07:37:44Z</time>
      </trkpt>
      <trkpt lat="43.117903999999676" lon="-1.2385460000000026">
        <ele>700.609</ele>
        <time>2022-08-24T07:37:45Z</time>
      </trkpt>
      <trkpt lat="43.11789699999968" lon="-1.2385350000000026">
        <ele>700.686</ele>
        <time>2022-08-24T07:37:46Z</time>
      </trkpt>
      <trkpt lat="43.11789199999968" lon="-1.2385240000000026">
        <ele>700.826</ele>
        <time>2022-08-24T07:37:47Z</time>
      </trkpt>
      <trkpt lat="43.11788499999968" lon="-1.2385120000000027">
        <ele>701.036</ele>
        <time>2022-08-24T07:37:48Z</time>
      </trkpt>
      <trkpt lat="43.11787999999968" lon="-1.2385030000000028">
        <ele>701.232</ele>
        <time>2022-08-24T07:37:49Z</time>
      </trkpt>
      <trkpt lat="43.11787099999968" lon="-1.2384930000000027">
        <ele>701.274</ele>
        <time>2022-08-24T07:37:50Z</time>
      </trkpt>
      <trkpt lat="43.11787099999968" lon="-1.2384930000000027">
        <ele>701.641</ele>
        <time>2022-08-24T07:37:51Z</time>
      </trkpt>
      <trkpt lat="43.11785599999968" lon="-1.2384790000000028">
        <ele>701.844</ele>
        <time>2022-08-24T07:37:52Z</time>
      </trkpt>
      <trkpt lat="43.11784899999969" lon="-1.2384680000000028">
        <ele>702.068</ele>
        <time>2022-08-24T07:37:53Z</time>
      </trkpt>
      <trkpt lat="43.11784299999969" lon="-1.2384560000000029">
        <ele>702.247</ele>
        <time>2022-08-24T07:37:54Z</time>
      </trkpt>
      <trkpt lat="43.11783699999969" lon="-1.2384460000000028">
        <ele>702.247</ele>
        <time>2022-08-24T07:37:55Z</time>
      </trkpt>
      <trkpt lat="43.11782999999969" lon="-1.238434000000003">
        <ele>702.429</ele>
        <time>2022-08-24T07:37:56Z</time>
      </trkpt>
      <trkpt lat="43.11782399999969" lon="-1.238426000000003">
        <ele>702.621</ele>
        <time>2022-08-24T07:37:57Z</time>
      </trkpt>
      <trkpt lat="43.1178169999997" lon="-1.2384190000000028">
        <ele>702.809</ele>
        <time>2022-08-24T07:37:58Z</time>
      </trkpt>
      <trkpt lat="43.117808999999696" lon="-1.2384140000000028">
        <ele>703.055</ele>
        <time>2022-08-24T07:37:59Z</time>
      </trkpt>
      <trkpt lat="43.117797999999695" lon="-1.2384090000000028">
        <ele>703.255</ele>
        <time>2022-08-24T07:38:00Z</time>
      </trkpt>
      <trkpt lat="43.1177909999997" lon="-1.2384000000000028">
        <ele>703.445</ele>
        <time>2022-08-24T07:38:01Z</time>
      </trkpt>
      <trkpt lat="43.1177849999997" lon="-1.2383920000000028">
        <ele>703.671</ele>
        <time>2022-08-24T07:38:02Z</time>
      </trkpt>
      <trkpt lat="43.117774999999696" lon="-1.2383810000000028">
        <ele>703.843</ele>
        <time>2022-08-24T07:38:03Z</time>
      </trkpt>
      <trkpt lat="43.117774999999696" lon="-1.2383810000000028">
        <ele>704.010</ele>
        <time>2022-08-24T07:38:04Z</time>
      </trkpt>
      <trkpt lat="43.1177579999997" lon="-1.238356000000003">
        <ele>704.253</ele>
        <time>2022-08-24T07:38:05Z</time>
      </trkpt>
      <trkpt lat="43.1177489999997" lon="-1.238344000000003">
        <ele>704.427</ele>
        <time>2022-08-24T07:38:06Z</time>
      </trkpt>
      <trkpt lat="43.1177409999997" lon="-1.238335000000003">
        <ele>704.656</ele>
        <time>2022-08-24T07:38:07Z</time>
      </trkpt>
      <trkpt lat="43.1177409999997" lon="-1.238335000000003">
        <ele>704.846</ele>
        <time>2022-08-24T07:38:08Z</time>
      </trkpt>
      <trkpt lat="43.1177209999997" lon="-1.238319000000003">
        <ele>705.088</ele>
        <time>2022-08-24T07:38:09Z</time>
      </trkpt>
      <trkpt lat="43.117710999999694" lon="-1.238316000000003">
        <ele>705.216</ele>
        <time>2022-08-24T07:38:10Z</time>
      </trkpt>
      <trkpt lat="43.117699999999694" lon="-1.2383150000000032">
        <ele>705.409</ele>
        <time>2022-08-24T07:38:11Z</time>
      </trkpt>
      <trkpt lat="43.11768999999969" lon="-1.238313000000003">
        <ele>705.675</ele>
        <time>2022-08-24T07:38:12Z</time>
      </trkpt>
      <trkpt lat="43.11768099999969" lon="-1.238311000000003">
        <ele>705.895</ele>
        <time>2022-08-24T07:38:13Z</time>
      </trkpt>
      <trkpt lat="43.11767199999969" lon="-1.2383070000000032">
        <ele>705.835</ele>
        <time>2022-08-24T07:38:14Z</time>
      </trkpt>
      <trkpt lat="43.11766399999969" lon="-1.238305000000003">
        <ele>706.421</ele>
        <time>2022-08-24T07:38:15Z</time>
      </trkpt>
      <trkpt lat="43.117654999999694" lon="-1.2383010000000032">
        <ele>706.623</ele>
        <time>2022-08-24T07:38:16Z</time>
      </trkpt>
      <trkpt lat="43.1176479999997" lon="-1.2382960000000032">
        <ele>707.050</ele>
        <time>2022-08-24T07:38:17Z</time>
      </trkpt>
      <trkpt lat="43.1176419999997" lon="-1.2382930000000032">
        <ele>707.223</ele>
        <time>2022-08-24T07:38:18Z</time>
      </trkpt>
      <trkpt lat="43.1176309999997" lon="-1.2382930000000032">
        <ele>707.467</ele>
        <time>2022-08-24T07:38:19Z</time>
      </trkpt>
      <trkpt lat="43.1176219999997" lon="-1.2383030000000033">
        <ele>707.856</ele>
        <time>2022-08-24T07:38:20Z</time>
      </trkpt>
      <trkpt lat="43.1176179999997" lon="-1.2383200000000032">
        <ele>708.055</ele>
        <time>2022-08-24T07:38:21Z</time>
      </trkpt>
      <trkpt lat="43.1176179999997" lon="-1.238340000000003">
        <ele>708.007</ele>
        <time>2022-08-24T07:38:22Z</time>
      </trkpt>
      <trkpt lat="43.1176219999997" lon="-1.238360000000003">
        <ele>708.217</ele>
        <time>2022-08-24T07:38:23Z</time>
      </trkpt>
      <trkpt lat="43.1176309999997" lon="-1.238374000000003">
        <ele>708.209</ele>
        <time>2022-08-24T07:38:24Z</time>
      </trkpt>
      <trkpt lat="43.1176439999997" lon="-1.238384000000003">
        <ele>708.256</ele>
        <time>2022-08-24T07:38:25Z</time>
      </trkpt>
      <trkpt lat="43.1176509999997" lon="-1.238388000000003">
        <ele>708.296</ele>
        <time>2022-08-24T07:38:26Z</time>
      </trkpt>
      <trkpt lat="43.117654999999694" lon="-1.238384000000003">
        <ele>708.646</ele>
        <time>2022-08-24T07:38:42Z</time>
      </trkpt>
      <trkpt lat="43.117656999999696" lon="-1.238365000000003">
        <ele>708.662</ele>
        <time>2022-08-24T07:38:43Z</time>
      </trkpt>
      <trkpt lat="43.117659999999695" lon="-1.2383450000000031">
        <ele>708.674</ele>
        <time>2022-08-24T07:38:44Z</time>
      </trkpt>
      <trkpt lat="43.117653999999696" lon="-1.2382850000000032">
        <ele>708.421</ele>
        <time>2022-08-24T07:38:47Z</time>
      </trkpt>
      <trkpt lat="43.11764399999969" lon="-1.2382750000000031">
        <ele>708.494</ele>
        <time>2022-08-24T07:38:48Z</time>
      </trkpt>
      <trkpt lat="43.11762999999969" lon="-1.2382740000000032">
        <ele>708.438</ele>
        <time>2022-08-24T07:38:49Z</time>
      </trkpt>
      <trkpt lat="43.117614999999695" lon="-1.2382720000000031">
        <ele>708.427</ele>
        <time>2022-08-24T07:38:50Z</time>
      </trkpt>
      <trkpt lat="43.1175859999997" lon="-1.2382630000000032">
        <ele>708.296</ele>
        <time>2022-08-24T07:38:52Z</time>
      </trkpt>
      <trkpt lat="43.117572999999695" lon="-1.2382570000000033">
        <ele>708.431</ele>
        <time>2022-08-24T07:38:53Z</time>
      </trkpt>
      <trkpt lat="43.11755999999969" lon="-1.2382500000000032">
        <ele>708.424</ele>
        <time>2022-08-24T07:38:54Z</time>
      </trkpt>
      <trkpt lat="43.11754999999969" lon="-1.2382460000000033">
        <ele>708.409</ele>
        <time>2022-08-24T07:38:55Z</time>
      </trkpt>
      <trkpt lat="43.11753899999969" lon="-1.2382440000000032">
        <ele>708.650</ele>
        <time>2022-08-24T07:38:56Z</time>
      </trkpt>
      <trkpt lat="43.11751399999969" lon="-1.2382450000000031">
        <ele>709.060</ele>
        <time>2022-08-24T07:38:58Z</time>
      </trkpt>
      <trkpt lat="43.117477999999686" lon="-1.2382400000000031">
        <ele>710.010</ele>
        <time>2022-08-24T07:39:01Z</time>
      </trkpt>
      <trkpt lat="43.117463999999686" lon="-1.2382360000000032">
        <ele>710.226</ele>
        <time>2022-08-24T07:39:02Z</time>
      </trkpt>
      <trkpt lat="43.11745399999968" lon="-1.2382350000000033">
        <ele>710.438</ele>
        <time>2022-08-24T07:39:03Z</time>
      </trkpt>
      <trkpt lat="43.11744099999968" lon="-1.2382330000000032">
        <ele>710.895</ele>
        <time>2022-08-24T07:39:04Z</time>
      </trkpt>
      <trkpt lat="43.11743299999968" lon="-1.2382310000000032">
        <ele>711.068</ele>
        <time>2022-08-24T07:39:05Z</time>
      </trkpt>
      <trkpt lat="43.11742099999968" lon="-1.2382230000000032">
        <ele>711.252</ele>
        <time>2022-08-24T07:39:06Z</time>
      </trkpt>
      <trkpt lat="43.11739799999968" lon="-1.2382110000000033">
        <ele>711.831</ele>
        <time>2022-08-24T07:39:08Z</time>
      </trkpt>
      <trkpt lat="43.11738499999968" lon="-1.2382120000000032">
        <ele>712.098</ele>
        <time>2022-08-24T07:39:09Z</time>
      </trkpt>
      <trkpt lat="43.11737299999968" lon="-1.2382070000000032">
        <ele>712.415</ele>
        <time>2022-08-24T07:39:10Z</time>
      </trkpt>
      <trkpt lat="43.11736499999968" lon="-1.2381990000000032">
        <ele>712.626</ele>
        <time>2022-08-24T07:39:11Z</time>
      </trkpt>
      <trkpt lat="43.11735299999968" lon="-1.238189000000003">
        <ele>712.809</ele>
        <time>2022-08-24T07:39:12Z</time>
      </trkpt>
      <trkpt lat="43.11734199999968" lon="-1.2381860000000031">
        <ele>713.050</ele>
        <time>2022-08-24T07:39:13Z</time>
      </trkpt>
      <trkpt lat="43.11732999999968" lon="-1.238184000000003">
        <ele>713.070</ele>
        <time>2022-08-24T07:39:14Z</time>
      </trkpt>
      <trkpt lat="43.11731999999968" lon="-1.2381860000000031">
        <ele>713.450</ele>
        <time>2022-08-24T07:39:15Z</time>
      </trkpt>
      <trkpt lat="43.11730699999968" lon="-1.238187000000003">
        <ele>713.656</ele>
        <time>2022-08-24T07:39:16Z</time>
      </trkpt>
      <trkpt lat="43.11729299999968" lon="-1.238181000000003">
        <ele>714.238</ele>
        <time>2022-08-24T07:39:17Z</time>
      </trkpt>
      <trkpt lat="43.117281999999676" lon="-1.2381770000000032">
        <ele>714.495</ele>
        <time>2022-08-24T07:39:18Z</time>
      </trkpt>
      <trkpt lat="43.117270999999675" lon="-1.2381760000000033">
        <ele>714.618</ele>
        <time>2022-08-24T07:39:19Z</time>
      </trkpt>
      <trkpt lat="43.11726199999968" lon="-1.2381740000000032">
        <ele>715.072</ele>
        <time>2022-08-24T07:39:20Z</time>
      </trkpt>
      <trkpt lat="43.117248999999674" lon="-1.2381690000000032">
        <ele>715.091</ele>
        <time>2022-08-24T07:39:21Z</time>
      </trkpt>
      <trkpt lat="43.11724099999967" lon="-1.2381640000000032">
        <ele>715.298</ele>
        <time>2022-08-24T07:39:22Z</time>
      </trkpt>
      <trkpt lat="43.11723099999967" lon="-1.238157000000003">
        <ele>715.215</ele>
        <time>2022-08-24T07:39:23Z</time>
      </trkpt>
      <trkpt lat="43.11722299999967" lon="-1.2381530000000032">
        <ele>715.426</ele>
        <time>2022-08-24T07:39:24Z</time>
      </trkpt>
      <trkpt lat="43.11721799999967" lon="-1.2381500000000032">
        <ele>715.609</ele>
        <time>2022-08-24T07:39:25Z</time>
      </trkpt>
      <trkpt lat="43.117207999999664" lon="-1.2381470000000032">
        <ele>715.830</ele>
        <time>2022-08-24T07:39:26Z</time>
      </trkpt>
      <trkpt lat="43.117198999999665" lon="-1.2381450000000032">
        <ele>716.050</ele>
        <time>2022-08-24T07:39:27Z</time>
      </trkpt>
      <trkpt lat="43.117187999999665" lon="-1.238138000000003">
        <ele>716.210</ele>
        <time>2022-08-24T07:39:28Z</time>
      </trkpt>
      <trkpt lat="43.11717499999966" lon="-1.2381320000000031">
        <ele>716.226</ele>
        <time>2022-08-24T07:39:29Z</time>
      </trkpt>
      <trkpt lat="43.11716399999966" lon="-1.238125000000003">
        <ele>716.238</ele>
        <time>2022-08-24T07:39:30Z</time>
      </trkpt>
      <trkpt lat="43.11715799999966" lon="-1.238122000000003">
        <ele>716.415</ele>
        <time>2022-08-24T07:39:31Z</time>
      </trkpt>
      <trkpt lat="43.11714399999966" lon="-1.238117000000003">
        <ele>716.698</ele>
        <time>2022-08-24T07:39:32Z</time>
      </trkpt>
      <trkpt lat="43.11713299999966" lon="-1.2381130000000031">
        <ele>716.862</ele>
        <time>2022-08-24T07:39:33Z</time>
      </trkpt>
      <trkpt lat="43.11712499999966" lon="-1.2381090000000032">
        <ele>717.031</ele>
        <time>2022-08-24T07:39:34Z</time>
      </trkpt>
      <trkpt lat="43.11711899999966" lon="-1.2381060000000033">
        <ele>717.085</ele>
        <time>2022-08-24T07:39:35Z</time>
      </trkpt>
      <trkpt lat="43.117114999999664" lon="-1.2381030000000033">
        <ele>717.489</ele>
        <time>2022-08-24T07:39:36Z</time>
      </trkpt>
      <trkpt lat="43.11710799999967" lon="-1.2380980000000033">
        <ele>717.417</ele>
        <time>2022-08-24T07:39:37Z</time>
      </trkpt>
      <trkpt lat="43.117097999999665" lon="-1.2380940000000034">
        <ele>717.609</ele>
        <time>2022-08-24T07:39:38Z</time>
      </trkpt>
      <trkpt lat="43.117086999999664" lon="-1.2380880000000034">
        <ele>717.839</ele>
        <time>2022-08-24T07:39:39Z</time>
      </trkpt>
      <trkpt lat="43.11707399999966" lon="-1.2380830000000034">
        <ele>718.099</ele>
        <time>2022-08-24T07:39:40Z</time>
      </trkpt>
      <trkpt lat="43.117066999999665" lon="-1.2380800000000034">
        <ele>718.239</ele>
        <time>2022-08-24T07:39:41Z</time>
      </trkpt>
      <trkpt lat="43.11705399999966" lon="-1.2380770000000034">
        <ele>718.455</ele>
        <time>2022-08-24T07:39:42Z</time>
      </trkpt>
      <trkpt lat="43.11704099999966" lon="-1.2380750000000034">
        <ele>718.487</ele>
        <time>2022-08-24T07:39:43Z</time>
      </trkpt>
      <trkpt lat="43.11704099999966" lon="-1.2380750000000034">
        <ele>718.674</ele>
        <time>2022-08-24T07:39:44Z</time>
      </trkpt>
      <trkpt lat="43.11701599999966" lon="-1.2380650000000033">
        <ele>718.887</ele>
        <time>2022-08-24T07:39:45Z</time>
      </trkpt>
      <trkpt lat="43.11700399999966" lon="-1.2380600000000033">
        <ele>719.041</ele>
        <time>2022-08-24T07:39:46Z</time>
      </trkpt>
      <trkpt lat="43.11698699999966" lon="-1.2380500000000032">
        <ele>719.070</ele>
        <time>2022-08-24T07:39:47Z</time>
      </trkpt>
      <trkpt lat="43.11696899999966" lon="-1.2380410000000033">
        <ele>719.473</ele>
        <time>2022-08-24T07:39:48Z</time>
      </trkpt>
      <trkpt lat="43.11694999999966" lon="-1.2380340000000032">
        <ele>719.685</ele>
        <time>2022-08-24T07:39:49Z</time>
      </trkpt>
      <trkpt lat="43.116934999999664" lon="-1.2380300000000033">
        <ele>719.813</ele>
        <time>2022-08-24T07:39:50Z</time>
      </trkpt>
      <trkpt lat="43.116922999999666" lon="-1.2380240000000033">
        <ele>720.009</ele>
        <time>2022-08-24T07:39:51Z</time>
      </trkpt>
      <trkpt lat="43.11691099999967" lon="-1.2380170000000033">
        <ele>720.238</ele>
        <time>2022-08-24T07:39:52Z</time>
      </trkpt>
      <trkpt lat="43.11689899999967" lon="-1.2380070000000032">
        <ele>720.468</ele>
        <time>2022-08-24T07:39:53Z</time>
      </trkpt>
      <trkpt lat="43.11688999999967" lon="-1.2379970000000031">
        <ele>720.688</ele>
        <time>2022-08-24T07:39:54Z</time>
      </trkpt>
      <trkpt lat="43.11687699999967" lon="-1.2379890000000031">
        <ele>720.864</ele>
        <time>2022-08-24T07:39:55Z</time>
      </trkpt>
      <trkpt lat="43.11686899999967" lon="-1.237979000000003">
        <ele>721.056</ele>
        <time>2022-08-24T07:39:56Z</time>
      </trkpt>
      <trkpt lat="43.116860999999666" lon="-1.237971000000003">
        <ele>721.473</ele>
        <time>2022-08-24T07:39:57Z</time>
      </trkpt>
      <trkpt lat="43.11685099999966" lon="-1.237965000000003">
        <ele>721.686</ele>
        <time>2022-08-24T07:39:58Z</time>
      </trkpt>
      <trkpt lat="43.11683999999966" lon="-1.237965000000003">
        <ele>721.850</ele>
        <time>2022-08-24T07:39:59Z</time>
      </trkpt>
      <trkpt lat="43.11682899999966" lon="-1.237963000000003">
        <ele>722.269</ele>
        <time>2022-08-24T07:40:00Z</time>
      </trkpt>
      <trkpt lat="43.11681999999966" lon="-1.237958000000003">
        <ele>722.258</ele>
        <time>2022-08-24T07:40:01Z</time>
      </trkpt>
      <trkpt lat="43.11680999999966" lon="-1.237953000000003">
        <ele>722.452</ele>
        <time>2022-08-24T07:40:02Z</time>
      </trkpt>
      <trkpt lat="43.11679899999966" lon="-1.237950000000003">
        <ele>722.617</ele>
        <time>2022-08-24T07:40:03Z</time>
      </trkpt>
      <trkpt lat="43.11678999999966" lon="-1.237946000000003">
        <ele>722.809</ele>
        <time>2022-08-24T07:40:04Z</time>
      </trkpt>
      <trkpt lat="43.11678099999966" lon="-1.2379420000000032">
        <ele>722.846</ele>
        <time>2022-08-24T07:40:05Z</time>
      </trkpt>
      <trkpt lat="43.11677099999966" lon="-1.2379350000000031">
        <ele>723.266</ele>
        <time>2022-08-24T07:40:06Z</time>
      </trkpt>
      <trkpt lat="43.11675999999966" lon="-1.237927000000003">
        <ele>723.476</ele>
        <time>2022-08-24T07:40:07Z</time>
      </trkpt>
      <trkpt lat="43.11675099999966" lon="-1.2379240000000031">
        <ele>723.422</ele>
        <time>2022-08-24T07:40:08Z</time>
      </trkpt>
      <trkpt lat="43.11674399999966" lon="-1.2379230000000032">
        <ele>723.884</ele>
        <time>2022-08-24T07:40:09Z</time>
      </trkpt>
      <trkpt lat="43.11676399999966" lon="-1.2379210000000032">
        <ele>724.041</ele>
        <time>2022-08-24T07:40:10Z</time>
      </trkpt>
      <trkpt lat="43.116762999999665" lon="-1.2379170000000033">
        <ele>724.264</ele>
        <time>2022-08-24T07:40:11Z</time>
      </trkpt>
      <trkpt lat="43.116753999999666" lon="-1.2379140000000033">
        <ele>724.488</ele>
        <time>2022-08-24T07:40:12Z</time>
      </trkpt>
      <trkpt lat="43.116742999999666" lon="-1.2379070000000032">
        <ele>724.437</ele>
        <time>2022-08-24T07:40:13Z</time>
      </trkpt>
      <trkpt lat="43.11673399999967" lon="-1.237911000000003">
        <ele>724.675</ele>
        <time>2022-08-24T07:40:14Z</time>
      </trkpt>
      <trkpt lat="43.11672999999967" lon="-1.2379100000000032">
        <ele>724.828</ele>
        <time>2022-08-24T07:40:15Z</time>
      </trkpt>
      <trkpt lat="43.11672099999967" lon="-1.237911000000003">
        <ele>725.020</ele>
        <time>2022-08-24T07:40:16Z</time>
      </trkpt>
      <trkpt lat="43.11671099999967" lon="-1.2379100000000032">
        <ele>725.009</ele>
        <time>2022-08-24T07:40:17Z</time>
      </trkpt>
      <trkpt lat="43.116700999999665" lon="-1.2379060000000033">
        <ele>725.428</ele>
        <time>2022-08-24T07:40:18Z</time>
      </trkpt>
      <trkpt lat="43.116689999999664" lon="-1.2379040000000032">
        <ele>725.418</ele>
        <time>2022-08-24T07:40:19Z</time>
      </trkpt>
      <trkpt lat="43.11667999999966" lon="-1.2378990000000032">
        <ele>725.638</ele>
        <time>2022-08-24T07:40:20Z</time>
      </trkpt>
      <trkpt lat="43.11667199999966" lon="-1.2378940000000032">
        <ele>725.834</ele>
        <time>2022-08-24T07:40:21Z</time>
      </trkpt>
      <trkpt lat="43.11666099999966" lon="-1.2378860000000032">
        <ele>726.066</ele>
        <time>2022-08-24T07:40:22Z</time>
      </trkpt>
      <trkpt lat="43.11664099999966" lon="-1.2378780000000031">
        <ele>726.213</ele>
        <time>2022-08-24T07:40:23Z</time>
      </trkpt>
      <trkpt lat="43.11662599999966" lon="-1.237868000000003">
        <ele>726.466</ele>
        <time>2022-08-24T07:40:24Z</time>
      </trkpt>
      <trkpt lat="43.11661299999966" lon="-1.237860000000003">
        <ele>726.670</ele>
        <time>2022-08-24T07:40:25Z</time>
      </trkpt>
      <trkpt lat="43.11660099999966" lon="-1.2378540000000031">
        <ele>726.629</ele>
        <time>2022-08-24T07:40:26Z</time>
      </trkpt>
      <trkpt lat="43.116593999999665" lon="-1.2378450000000032">
        <ele>727.083</ele>
        <time>2022-08-24T07:40:27Z</time>
      </trkpt>
      <trkpt lat="43.11657899999967" lon="-1.2378410000000033">
        <ele>727.225</ele>
        <time>2022-08-24T07:40:28Z</time>
      </trkpt>
      <trkpt lat="43.11655899999967" lon="-1.2378380000000033">
        <ele>727.417</ele>
        <time>2022-08-24T07:40:29Z</time>
      </trkpt>
      <trkpt lat="43.11654499999967" lon="-1.2378330000000033">
        <ele>727.609</ele>
        <time>2022-08-24T07:40:30Z</time>
      </trkpt>
      <trkpt lat="43.11652799999967" lon="-1.2378270000000033">
        <ele>727.839</ele>
        <time>2022-08-24T07:40:31Z</time>
      </trkpt>
      <trkpt lat="43.116511999999666" lon="-1.2378260000000034">
        <ele>728.089</ele>
        <time>2022-08-24T07:40:32Z</time>
      </trkpt>
      <trkpt lat="43.11649199999967" lon="-1.2378210000000034">
        <ele>728.089</ele>
        <time>2022-08-24T07:40:33Z</time>
      </trkpt>
      <trkpt lat="43.11648299999967" lon="-1.2378130000000034">
        <ele>728.235</ele>
        <time>2022-08-24T07:40:34Z</time>
      </trkpt>
      <trkpt lat="43.11647399999967" lon="-1.2378110000000033">
        <ele>728.667</ele>
        <time>2022-08-24T07:40:35Z</time>
      </trkpt>
      <trkpt lat="43.11646499999967" lon="-1.2378110000000033">
        <ele>728.884</ele>
        <time>2022-08-24T07:40:36Z</time>
      </trkpt>
      <trkpt lat="43.11645499999967" lon="-1.2378080000000034">
        <ele>729.067</ele>
        <time>2022-08-24T07:40:37Z</time>
      </trkpt>
      <trkpt lat="43.11644399999967" lon="-1.2378040000000035">
        <ele>729.291</ele>
        <time>2022-08-24T07:40:38Z</time>
      </trkpt>
      <trkpt lat="43.11642299999967" lon="-1.2378060000000035">
        <ele>729.440</ele>
        <time>2022-08-24T07:40:39Z</time>
      </trkpt>
      <trkpt lat="43.11641199999967" lon="-1.2378030000000035">
        <ele>729.695</ele>
        <time>2022-08-24T07:40:40Z</time>
      </trkpt>
      <trkpt lat="43.11640499999967" lon="-1.2378000000000036">
        <ele>729.849</ele>
        <time>2022-08-24T07:40:41Z</time>
      </trkpt>
      <trkpt lat="43.116387999999674" lon="-1.2377940000000036">
        <ele>730.223</ele>
        <time>2022-08-24T07:40:42Z</time>
      </trkpt>
      <trkpt lat="43.116375999999676" lon="-1.2377900000000037">
        <ele>730.209</ele>
        <time>2022-08-24T07:40:43Z</time>
      </trkpt>
      <trkpt lat="43.116364999999675" lon="-1.2377860000000038">
        <ele>730.490</ele>
        <time>2022-08-24T07:40:44Z</time>
      </trkpt>
      <trkpt lat="43.116353999999674" lon="-1.2377780000000038">
        <ele>730.480</ele>
        <time>2022-08-24T07:40:45Z</time>
      </trkpt>
      <trkpt lat="43.116344999999676" lon="-1.2377720000000039">
        <ele>730.640</ele>
        <time>2022-08-24T07:40:46Z</time>
      </trkpt>
      <trkpt lat="43.116333999999675" lon="-1.2377670000000038">
        <ele>730.886</ele>
        <time>2022-08-24T07:40:47Z</time>
      </trkpt>
      <trkpt lat="43.116322999999674" lon="-1.2377610000000039">
        <ele>731.278</ele>
        <time>2022-08-24T07:40:48Z</time>
      </trkpt>
      <trkpt lat="43.116311999999674" lon="-1.237750000000004">
        <ele>731.655</ele>
        <time>2022-08-24T07:40:49Z</time>
      </trkpt>
      <trkpt lat="43.11630099999967" lon="-1.2377430000000038">
        <ele>731.818</ele>
        <time>2022-08-24T07:40:50Z</time>
      </trkpt>
      <trkpt lat="43.116294999999674" lon="-1.237742000000004">
        <ele>732.052</ele>
        <time>2022-08-24T07:40:51Z</time>
      </trkpt>
      <trkpt lat="43.116285999999675" lon="-1.2377400000000038">
        <ele>732.221</ele>
        <time>2022-08-24T07:40:52Z</time>
      </trkpt>
      <trkpt lat="43.116271999999675" lon="-1.2377370000000039">
        <ele>732.618</ele>
        <time>2022-08-24T07:40:53Z</time>
      </trkpt>
      <trkpt lat="43.116251999999676" lon="-1.2377340000000039">
        <ele>732.898</ele>
        <time>2022-08-24T07:40:54Z</time>
      </trkpt>
      <trkpt lat="43.11623699999968" lon="-1.2377290000000039">
        <ele>733.017</ele>
        <time>2022-08-24T07:40:55Z</time>
      </trkpt>
      <trkpt lat="43.11622599999968" lon="-1.2377190000000038">
        <ele>733.409</ele>
        <time>2022-08-24T07:40:56Z</time>
      </trkpt>
      <trkpt lat="43.116212999999675" lon="-1.2377160000000038">
        <ele>733.432</ele>
        <time>2022-08-24T07:40:57Z</time>
      </trkpt>
      <trkpt lat="43.116195999999675" lon="-1.2377100000000039">
        <ele>733.842</ele>
        <time>2022-08-24T07:40:58Z</time>
      </trkpt>
      <trkpt lat="43.116181999999675" lon="-1.2377080000000038">
        <ele>733.852</ele>
        <time>2022-08-24T07:40:59Z</time>
      </trkpt>
      <trkpt lat="43.11616999999968" lon="-1.2377030000000038">
        <ele>734.288</ele>
        <time>2022-08-24T07:41:00Z</time>
      </trkpt>
      <trkpt lat="43.11615799999968" lon="-1.2376940000000038">
        <ele>734.290</ele>
        <time>2022-08-24T07:41:01Z</time>
      </trkpt>
      <trkpt lat="43.11614699999968" lon="-1.237690000000004">
        <ele>734.297</ele>
        <time>2022-08-24T07:41:02Z</time>
      </trkpt>
      <trkpt lat="43.11613499999968" lon="-1.237679000000004">
        <ele>734.650</ele>
        <time>2022-08-24T07:41:03Z</time>
      </trkpt>
      <trkpt lat="43.11612599999968" lon="-1.237676000000004">
        <ele>734.654</ele>
        <time>2022-08-24T07:41:04Z</time>
      </trkpt>
      <trkpt lat="43.11611399999968" lon="-1.237671000000004">
        <ele>734.893</ele>
        <time>2022-08-24T07:41:05Z</time>
      </trkpt>
      <trkpt lat="43.11610299999968" lon="-1.237661000000004">
        <ele>735.092</ele>
        <time>2022-08-24T07:41:06Z</time>
      </trkpt>
      <trkpt lat="43.11609299999968" lon="-1.2376560000000039">
        <ele>735.273</ele>
        <time>2022-08-24T07:41:07Z</time>
      </trkpt>
      <trkpt lat="43.11607999999968" lon="-1.237652000000004">
        <ele>735.220</ele>
        <time>2022-08-24T07:41:08Z</time>
      </trkpt>
      <trkpt lat="43.116068999999676" lon="-1.237650000000004">
        <ele>735.409</ele>
        <time>2022-08-24T07:41:09Z</time>
      </trkpt>
      <trkpt lat="43.11606199999968" lon="-1.237652000000004">
        <ele>735.820</ele>
        <time>2022-08-24T07:41:10Z</time>
      </trkpt>
      <trkpt lat="43.11605399999968" lon="-1.237660000000004">
        <ele>736.060</ele>
        <time>2022-08-24T07:41:11Z</time>
      </trkpt>
      <trkpt lat="43.116043999999675" lon="-1.237662000000004">
        <ele>736.250</ele>
        <time>2022-08-24T07:41:12Z</time>
      </trkpt>
      <trkpt lat="43.11603499999968" lon="-1.237665000000004">
        <ele>736.256</ele>
        <time>2022-08-24T07:41:13Z</time>
      </trkpt>
      <trkpt lat="43.116024999999674" lon="-1.237670000000004">
        <ele>736.448</ele>
        <time>2022-08-24T07:41:14Z</time>
      </trkpt>
      <trkpt lat="43.11601499999967" lon="-1.237670000000004">
        <ele>736.665</ele>
        <time>2022-08-24T07:41:15Z</time>
      </trkpt>
      <trkpt lat="43.11600699999967" lon="-1.2376660000000042">
        <ele>736.888</ele>
        <time>2022-08-24T07:41:16Z</time>
      </trkpt>
      <trkpt lat="43.11599899999967" lon="-1.2376630000000042">
        <ele>737.072</ele>
        <time>2022-08-24T07:41:17Z</time>
      </trkpt>
      <trkpt lat="43.11599099999967" lon="-1.2376600000000042">
        <ele>737.021</ele>
        <time>2022-08-24T07:41:18Z</time>
      </trkpt>
      <trkpt lat="43.11597899999967" lon="-1.2376580000000041">
        <ele>737.258</ele>
        <time>2022-08-24T07:41:19Z</time>
      </trkpt>
      <trkpt lat="43.11596999999967" lon="-1.2376610000000041">
        <ele>737.252</ele>
        <time>2022-08-24T07:41:20Z</time>
      </trkpt>
      <trkpt lat="43.11596099999967" lon="-1.237664000000004">
        <ele>737.417</ele>
        <time>2022-08-24T07:41:21Z</time>
      </trkpt>
      <trkpt lat="43.11595199999967" lon="-1.237659000000004">
        <ele>737.409</ele>
        <time>2022-08-24T07:41:22Z</time>
      </trkpt>
      <trkpt lat="43.115939999999675" lon="-1.237653000000004">
        <ele>737.656</ele>
        <time>2022-08-24T07:41:23Z</time>
      </trkpt>
      <trkpt lat="43.11592999999967" lon="-1.237643000000004">
        <ele>737.826</ele>
        <time>2022-08-24T07:41:24Z</time>
      </trkpt>
      <trkpt lat="43.11591999999967" lon="-1.237635000000004">
        <ele>738.026</ele>
        <time>2022-08-24T07:41:25Z</time>
      </trkpt>
      <trkpt lat="43.11591199999967" lon="-1.237633000000004">
        <ele>738.072</ele>
        <time>2022-08-24T07:41:26Z</time>
      </trkpt>
      <trkpt lat="43.11590399999967" lon="-1.237630000000004">
        <ele>738.264</ele>
        <time>2022-08-24T07:41:27Z</time>
      </trkpt>
      <trkpt lat="43.115895999999665" lon="-1.237631000000004">
        <ele>738.461</ele>
        <time>2022-08-24T07:41:28Z</time>
      </trkpt>
      <trkpt lat="43.11588699999967" lon="-1.2376290000000039">
        <ele>738.434</ele>
        <time>2022-08-24T07:41:29Z</time>
      </trkpt>
      <trkpt lat="43.115876999999664" lon="-1.237628000000004">
        <ele>738.638</ele>
        <time>2022-08-24T07:41:30Z</time>
      </trkpt>
      <trkpt lat="43.11586699999966" lon="-1.237628000000004">
        <ele>738.827</ele>
        <time>2022-08-24T07:41:31Z</time>
      </trkpt>
      <trkpt lat="43.11585699999966" lon="-1.237631000000004">
        <ele>739.068</ele>
        <time>2022-08-24T07:41:32Z</time>
      </trkpt>
      <trkpt lat="43.115846999999654" lon="-1.2376290000000039">
        <ele>739.242</ele>
        <time>2022-08-24T07:41:33Z</time>
      </trkpt>
      <trkpt lat="43.11583599999965" lon="-1.237625000000004">
        <ele>739.426</ele>
        <time>2022-08-24T07:41:34Z</time>
      </trkpt>
      <trkpt lat="43.11582299999965" lon="-1.237615000000004">
        <ele>739.609</ele>
        <time>2022-08-24T07:41:35Z</time>
      </trkpt>
      <trkpt lat="43.11581099999965" lon="-1.237615000000004">
        <ele>739.637</ele>
        <time>2022-08-24T07:41:36Z</time>
      </trkpt>
      <trkpt lat="43.11579999999965" lon="-1.237615000000004">
        <ele>739.847</ele>
        <time>2022-08-24T07:41:37Z</time>
      </trkpt>
      <trkpt lat="43.11578899999965" lon="-1.2376190000000038">
        <ele>740.077</ele>
        <time>2022-08-24T07:41:38Z</time>
      </trkpt>
      <trkpt lat="43.11577599999965" lon="-1.2376220000000038">
        <ele>740.233</ele>
        <time>2022-08-24T07:41:39Z</time>
      </trkpt>
      <trkpt lat="43.11576399999965" lon="-1.2376240000000038">
        <ele>740.245</ele>
        <time>2022-08-24T07:41:40Z</time>
      </trkpt>
      <trkpt lat="43.11574999999965" lon="-1.2376240000000038">
        <ele>740.452</ele>
        <time>2022-08-24T07:41:41Z</time>
      </trkpt>
      <trkpt lat="43.11573799999965" lon="-1.2376220000000038">
        <ele>740.665</ele>
        <time>2022-08-24T07:41:42Z</time>
      </trkpt>
      <trkpt lat="43.11572499999965" lon="-1.2376180000000039">
        <ele>740.889</ele>
        <time>2022-08-24T07:41:43Z</time>
      </trkpt>
      <trkpt lat="43.11571199999965" lon="-1.237615000000004">
        <ele>740.868</ele>
        <time>2022-08-24T07:41:44Z</time>
      </trkpt>
      <trkpt lat="43.115698999999644" lon="-1.237612000000004">
        <ele>741.267</ele>
        <time>2022-08-24T07:41:45Z</time>
      </trkpt>
      <trkpt lat="43.11568799999964" lon="-1.237606000000004">
        <ele>741.481</ele>
        <time>2022-08-24T07:41:46Z</time>
      </trkpt>
      <trkpt lat="43.115675999999645" lon="-1.237601000000004">
        <ele>741.619</ele>
        <time>2022-08-24T07:41:47Z</time>
      </trkpt>
      <trkpt lat="43.11566299999964" lon="-1.237597000000004">
        <ele>741.809</ele>
        <time>2022-08-24T07:41:48Z</time>
      </trkpt>
      <trkpt lat="43.11564899999964" lon="-1.237595000000004">
        <ele>742.017</ele>
        <time>2022-08-24T07:41:49Z</time>
      </trkpt>
      <trkpt lat="43.115636999999644" lon="-1.237598000000004">
        <ele>742.217</ele>
        <time>2022-08-24T07:41:50Z</time>
      </trkpt>
      <trkpt lat="43.115624999999646" lon="-1.237601000000004">
        <ele>742.487</ele>
        <time>2022-08-24T07:41:51Z</time>
      </trkpt>
      <trkpt lat="43.115613999999646" lon="-1.237604000000004">
        <ele>742.893</ele>
        <time>2022-08-24T07:41:52Z</time>
      </trkpt>
      <trkpt lat="43.115599999999645" lon="-1.2376080000000038">
        <ele>743.045</ele>
        <time>2022-08-24T07:41:53Z</time>
      </trkpt>
      <trkpt lat="43.11558799999965" lon="-1.2376110000000038">
        <ele>743.432</ele>
        <time>2022-08-24T07:41:54Z</time>
      </trkpt>
      <trkpt lat="43.11557599999965" lon="-1.2376140000000038">
        <ele>743.485</ele>
        <time>2022-08-24T07:41:55Z</time>
      </trkpt>
      <trkpt lat="43.11556399999965" lon="-1.2376100000000039">
        <ele>743.679</ele>
        <time>2022-08-24T07:41:56Z</time>
      </trkpt>
      <trkpt lat="43.11554999999965" lon="-1.2376050000000038">
        <ele>743.638</ele>
        <time>2022-08-24T07:41:57Z</time>
      </trkpt>
      <trkpt lat="43.11553499999965" lon="-1.2376000000000038">
        <ele>743.847</ele>
        <time>2022-08-24T07:41:58Z</time>
      </trkpt>
      <trkpt lat="43.11552199999965" lon="-1.2375930000000037">
        <ele>743.829</ele>
        <time>2022-08-24T07:41:59Z</time>
      </trkpt>
      <trkpt lat="43.11550499999965" lon="-1.2375820000000037">
        <ele>744.021</ele>
        <time>2022-08-24T07:42:00Z</time>
      </trkpt>
      <trkpt lat="43.11549499999965" lon="-1.2375770000000037">
        <ele>744.209</ele>
        <time>2022-08-24T07:42:01Z</time>
      </trkpt>
      <trkpt lat="43.11548399999965" lon="-1.2375720000000037">
        <ele>744.685</ele>
        <time>2022-08-24T07:42:02Z</time>
      </trkpt>
      <trkpt lat="43.115473999999644" lon="-1.2375690000000037">
        <ele>744.865</ele>
        <time>2022-08-24T07:42:03Z</time>
      </trkpt>
      <trkpt lat="43.115464999999645" lon="-1.2375650000000038">
        <ele>744.835</ele>
        <time>2022-08-24T07:42:04Z</time>
      </trkpt>
      <trkpt lat="43.11544999999965" lon="-1.2375620000000038">
        <ele>745.271</ele>
        <time>2022-08-24T07:42:05Z</time>
      </trkpt>
      <trkpt lat="43.11543499999965" lon="-1.2375620000000038">
        <ele>745.463</ele>
        <time>2022-08-24T07:42:06Z</time>
      </trkpt>
      <trkpt lat="43.11542199999965" lon="-1.2375620000000038">
        <ele>745.670</ele>
        <time>2022-08-24T07:42:07Z</time>
      </trkpt>
      <trkpt lat="43.11540799999965" lon="-1.2375620000000038">
        <ele>745.823</ele>
        <time>2022-08-24T07:42:08Z</time>
      </trkpt>
      <trkpt lat="43.115397999999644" lon="-1.237561000000004">
        <ele>746.067</ele>
        <time>2022-08-24T07:42:09Z</time>
      </trkpt>
      <trkpt lat="43.11538499999964" lon="-1.2375590000000039">
        <ele>746.266</ele>
        <time>2022-08-24T07:42:10Z</time>
      </trkpt>
      <trkpt lat="43.11537499999964" lon="-1.237561000000004">
        <ele>746.238</ele>
        <time>2022-08-24T07:42:11Z</time>
      </trkpt>
      <trkpt lat="43.11536599999964" lon="-1.2375620000000038">
        <ele>746.470</ele>
        <time>2022-08-24T07:42:12Z</time>
      </trkpt>
      <trkpt lat="43.11535899999964" lon="-1.2375640000000039">
        <ele>746.817</ele>
        <time>2022-08-24T07:42:13Z</time>
      </trkpt>
      <trkpt lat="43.11534799999964" lon="-1.2375650000000038">
        <ele>747.009</ele>
        <time>2022-08-24T07:42:14Z</time>
      </trkpt>
      <trkpt lat="43.115335999999644" lon="-1.2375670000000039">
        <ele>747.274</ele>
        <time>2022-08-24T07:42:15Z</time>
      </trkpt>
      <trkpt lat="43.11532299999964" lon="-1.2375650000000038">
        <ele>747.454</ele>
        <time>2022-08-24T07:42:16Z</time>
      </trkpt>
      <trkpt lat="43.11531199999964" lon="-1.2375680000000038">
        <ele>747.644</ele>
        <time>2022-08-24T07:42:17Z</time>
      </trkpt>
      <trkpt lat="43.11531199999964" lon="-1.2375680000000038">
        <ele>747.860</ele>
        <time>2022-08-24T07:42:18Z</time>
      </trkpt>
      <trkpt lat="43.11528999999964" lon="-1.2375670000000039">
        <ele>747.872</ele>
        <time>2022-08-24T07:42:19Z</time>
      </trkpt>
      <trkpt lat="43.11527799999964" lon="-1.2375670000000039">
        <ele>747.839</ele>
        <time>2022-08-24T07:42:20Z</time>
      </trkpt>
      <trkpt lat="43.11526399999964" lon="-1.237566000000004">
        <ele>748.042</ele>
        <time>2022-08-24T07:42:21Z</time>
      </trkpt>
      <trkpt lat="43.11525199999964" lon="-1.2375640000000039">
        <ele>748.256</ele>
        <time>2022-08-24T07:42:22Z</time>
      </trkpt>
      <trkpt lat="43.115239999999645" lon="-1.237561000000004">
        <ele>748.415</ele>
        <time>2022-08-24T07:42:23Z</time>
      </trkpt>
      <trkpt lat="43.11522999999964" lon="-1.2375560000000039">
        <ele>748.657</ele>
        <time>2022-08-24T07:42:24Z</time>
      </trkpt>
      <trkpt lat="43.11521999999964" lon="-1.2375540000000038">
        <ele>748.800</ele>
        <time>2022-08-24T07:42:25Z</time>
      </trkpt>
      <trkpt lat="43.11521099999964" lon="-1.2375550000000037">
        <ele>749.220</ele>
        <time>2022-08-24T07:42:26Z</time>
      </trkpt>
      <trkpt lat="43.11519999999964" lon="-1.2375550000000037">
        <ele>749.409</ele>
        <time>2022-08-24T07:42:27Z</time>
      </trkpt>
      <trkpt lat="43.11519999999964" lon="-1.2375550000000037">
        <ele>749.616</ele>
        <time>2022-08-24T07:42:28Z</time>
      </trkpt>
      <trkpt lat="43.11518099999964" lon="-1.2375510000000038">
        <ele>749.836</ele>
        <time>2022-08-24T07:42:29Z</time>
      </trkpt>
      <trkpt lat="43.115170999999634" lon="-1.2375510000000038">
        <ele>750.026</ele>
        <time>2022-08-24T07:42:30Z</time>
      </trkpt>
      <trkpt lat="43.115156999999634" lon="-1.2375510000000038">
        <ele>750.242</ele>
        <time>2022-08-24T07:42:31Z</time>
      </trkpt>
      <trkpt lat="43.115156999999634" lon="-1.2375510000000038">
        <ele>750.444</ele>
        <time>2022-08-24T07:42:32Z</time>
      </trkpt>
      <trkpt lat="43.115133999999635" lon="-1.2375480000000039">
        <ele>750.461</ele>
        <time>2022-08-24T07:42:33Z</time>
      </trkpt>
      <trkpt lat="43.115122999999635" lon="-1.237550000000004">
        <ele>750.664</ele>
        <time>2022-08-24T07:42:34Z</time>
      </trkpt>
      <trkpt lat="43.115111999999634" lon="-1.2375540000000038">
        <ele>750.868</ele>
        <time>2022-08-24T07:42:35Z</time>
      </trkpt>
      <trkpt lat="43.115099999999636" lon="-1.2375560000000039">
        <ele>751.087</ele>
        <time>2022-08-24T07:42:36Z</time>
      </trkpt>
      <trkpt lat="43.11508799999964" lon="-1.237558000000004">
        <ele>751.056</ele>
        <time>2022-08-24T07:42:37Z</time>
      </trkpt>
      <trkpt lat="43.11508799999964" lon="-1.237558000000004">
        <ele>751.459</ele>
        <time>2022-08-24T07:42:38Z</time>
      </trkpt>
      <trkpt lat="43.11506799999964" lon="-1.2375640000000039">
        <ele>751.414</ele>
        <time>2022-08-24T07:42:39Z</time>
      </trkpt>
      <trkpt lat="43.11505399999964" lon="-1.2375680000000038">
        <ele>751.809</ele>
        <time>2022-08-24T07:42:40Z</time>
      </trkpt>
      <trkpt lat="43.115043999999635" lon="-1.2375710000000038">
        <ele>752.266</ele>
        <time>2022-08-24T07:42:41Z</time>
      </trkpt>
      <trkpt lat="43.115032999999634" lon="-1.2375760000000038">
        <ele>752.226</ele>
        <time>2022-08-24T07:42:42Z</time>
      </trkpt>
      <trkpt lat="43.115021999999634" lon="-1.2375760000000038">
        <ele>752.416</ele>
        <time>2022-08-24T07:42:43Z</time>
      </trkpt>
      <trkpt lat="43.115012999999635" lon="-1.2375740000000037">
        <ele>752.682</ele>
        <time>2022-08-24T07:42:44Z</time>
      </trkpt>
      <trkpt lat="43.115001999999635" lon="-1.2375730000000038">
        <ele>752.824</ele>
        <time>2022-08-24T07:42:45Z</time>
      </trkpt>
      <trkpt lat="43.11498599999963" lon="-1.237572000000004">
        <ele>753.071</ele>
        <time>2022-08-24T07:42:46Z</time>
      </trkpt>
      <trkpt lat="43.11497199999963" lon="-1.2375750000000039">
        <ele>753.264</ele>
        <time>2022-08-24T07:42:47Z</time>
      </trkpt>
      <trkpt lat="43.11495899999963" lon="-1.2375760000000038">
        <ele>753.448</ele>
        <time>2022-08-24T07:42:48Z</time>
      </trkpt>
      <trkpt lat="43.11495899999963" lon="-1.2375760000000038">
        <ele>753.657</ele>
        <time>2022-08-24T07:42:49Z</time>
      </trkpt>
      <trkpt lat="43.11493099999963" lon="-1.2375750000000039">
        <ele>754.034</ele>
        <time>2022-08-24T07:42:50Z</time>
      </trkpt>
      <trkpt lat="43.114920999999626" lon="-1.2375790000000038">
        <ele>754.055</ele>
        <time>2022-08-24T07:42:51Z</time>
      </trkpt>
      <trkpt lat="43.114906999999626" lon="-1.2375800000000037">
        <ele>754.010</ele>
        <time>2022-08-24T07:42:52Z</time>
      </trkpt>
      <trkpt lat="43.114892999999626" lon="-1.2375800000000037">
        <ele>754.409</ele>
        <time>2022-08-24T07:42:53Z</time>
      </trkpt>
      <trkpt lat="43.114878999999625" lon="-1.2375790000000038">
        <ele>754.834</ele>
        <time>2022-08-24T07:42:54Z</time>
      </trkpt>
      <trkpt lat="43.114864999999625" lon="-1.2375800000000037">
        <ele>755.074</ele>
        <time>2022-08-24T07:42:55Z</time>
      </trkpt>
      <trkpt lat="43.114864999999625" lon="-1.2375800000000037">
        <ele>755.244</ele>
        <time>2022-08-24T07:42:56Z</time>
      </trkpt>
      <trkpt lat="43.11483799999962" lon="-1.2375800000000037">
        <ele>755.450</ele>
        <time>2022-08-24T07:42:57Z</time>
      </trkpt>
      <trkpt lat="43.11482699999962" lon="-1.2375820000000037">
        <ele>755.412</ele>
        <time>2022-08-24T07:42:58Z</time>
      </trkpt>
      <trkpt lat="43.11481499999962" lon="-1.2375880000000037">
        <ele>755.829</ele>
        <time>2022-08-24T07:42:59Z</time>
      </trkpt>
      <trkpt lat="43.11480199999962" lon="-1.2375930000000037">
        <ele>756.082</ele>
        <time>2022-08-24T07:43:00Z</time>
      </trkpt>
      <trkpt lat="43.11479099999962" lon="-1.2375970000000036">
        <ele>756.066</ele>
        <time>2022-08-24T07:43:01Z</time>
      </trkpt>
      <trkpt lat="43.11477899999962" lon="-1.2376000000000036">
        <ele>756.285</ele>
        <time>2022-08-24T07:43:02Z</time>
      </trkpt>
      <trkpt lat="43.114766999999624" lon="-1.2376050000000036">
        <ele>756.433</ele>
        <time>2022-08-24T07:43:03Z</time>
      </trkpt>
      <trkpt lat="43.11475399999962" lon="-1.2376070000000037">
        <ele>756.423</ele>
        <time>2022-08-24T07:43:04Z</time>
      </trkpt>
      <trkpt lat="43.114738999999624" lon="-1.2376080000000036">
        <ele>756.615</ele>
        <time>2022-08-24T07:43:05Z</time>
      </trkpt>
      <trkpt lat="43.11472499999962" lon="-1.2376100000000037">
        <ele>756.809</ele>
        <time>2022-08-24T07:43:06Z</time>
      </trkpt>
      <trkpt lat="43.11471199999962" lon="-1.2376160000000036">
        <ele>757.044</ele>
        <time>2022-08-24T07:43:07Z</time>
      </trkpt>
      <trkpt lat="43.11469899999962" lon="-1.2376160000000036">
        <ele>757.264</ele>
        <time>2022-08-24T07:43:08Z</time>
      </trkpt>
      <trkpt lat="43.114682999999616" lon="-1.2376160000000036">
        <ele>757.284</ele>
        <time>2022-08-24T07:43:09Z</time>
      </trkpt>
      <trkpt lat="43.114668999999616" lon="-1.2376160000000036">
        <ele>757.430</ele>
        <time>2022-08-24T07:43:10Z</time>
      </trkpt>
      <trkpt lat="43.11465399999962" lon="-1.2376150000000037">
        <ele>757.462</ele>
        <time>2022-08-24T07:43:11Z</time>
      </trkpt>
      <trkpt lat="43.114640999999615" lon="-1.2376140000000038">
        <ele>757.639</ele>
        <time>2022-08-24T07:43:12Z</time>
      </trkpt>
      <trkpt lat="43.11462899999962" lon="-1.2376160000000038">
        <ele>757.862</ele>
        <time>2022-08-24T07:43:13Z</time>
      </trkpt>
      <trkpt lat="43.11461699999962" lon="-1.2376180000000039">
        <ele>757.866</ele>
        <time>2022-08-24T07:43:14Z</time>
      </trkpt>
      <trkpt lat="43.11460599999962" lon="-1.237620000000004">
        <ele>758.035</ele>
        <time>2022-08-24T07:43:15Z</time>
      </trkpt>
      <trkpt lat="43.114595999999615" lon="-1.237623000000004">
        <ele>758.267</ele>
        <time>2022-08-24T07:43:16Z</time>
      </trkpt>
      <trkpt lat="43.114460999999615" lon="-1.2376320000000038">
        <ele>761.481</ele>
        <time>2022-08-24T07:57:29Z</time>
      </trkpt>
      <trkpt lat="43.114429999999615" lon="-1.237655000000004">
        <ele>761.619</ele>
        <time>2022-08-24T07:57:31Z</time>
      </trkpt>
      <trkpt lat="43.114418999999614" lon="-1.2376670000000038">
        <ele>761.609</ele>
        <time>2022-08-24T07:57:32Z</time>
      </trkpt>
      <trkpt lat="43.114404999999614" lon="-1.2376730000000038">
        <ele>761.887</ele>
        <time>2022-08-24T07:57:33Z</time>
      </trkpt>
      <trkpt lat="43.114392999999616" lon="-1.2376800000000039">
        <ele>762.057</ele>
        <time>2022-08-24T07:57:34Z</time>
      </trkpt>
      <trkpt lat="43.11437499999962" lon="-1.2376800000000039">
        <ele>762.287</ele>
        <time>2022-08-24T07:57:35Z</time>
      </trkpt>
      <trkpt lat="43.11436099999962" lon="-1.237682000000004">
        <ele>762.693</ele>
        <time>2022-08-24T07:57:36Z</time>
      </trkpt>
      <trkpt lat="43.11434599999962" lon="-1.237681000000004">
        <ele>762.875</ele>
        <time>2022-08-24T07:57:37Z</time>
      </trkpt>
      <trkpt lat="43.11431199999962" lon="-1.237676000000004">
        <ele>763.492</ele>
        <time>2022-08-24T07:57:39Z</time>
      </trkpt>
      <trkpt lat="43.11428499999962" lon="-1.237677000000004">
        <ele>763.845</ele>
        <time>2022-08-24T07:57:41Z</time>
      </trkpt>
      <trkpt lat="43.11426799999962" lon="-1.237679000000004">
        <ele>764.079</ele>
        <time>2022-08-24T07:57:42Z</time>
      </trkpt>
      <trkpt lat="43.114254999999616" lon="-1.2376800000000039">
        <ele>764.258</ele>
        <time>2022-08-24T07:57:43Z</time>
      </trkpt>
      <trkpt lat="43.11423999999962" lon="-1.2376800000000039">
        <ele>764.443</ele>
        <time>2022-08-24T07:57:44Z</time>
      </trkpt>
      <trkpt lat="43.11422799999962" lon="-1.237676000000004">
        <ele>764.464</ele>
        <time>2022-08-24T07:57:45Z</time>
      </trkpt>
      <trkpt lat="43.11421899999962" lon="-1.237671000000004">
        <ele>764.610</ele>
        <time>2022-08-24T07:57:46Z</time>
      </trkpt>
      <trkpt lat="43.114206999999624" lon="-1.237666000000004">
        <ele>764.609</ele>
        <time>2022-08-24T07:57:47Z</time>
      </trkpt>
      <trkpt lat="43.114194999999626" lon="-1.237661000000004">
        <ele>764.815</ele>
        <time>2022-08-24T07:57:48Z</time>
      </trkpt>
      <trkpt lat="43.11418499999962" lon="-1.237657000000004">
        <ele>765.075</ele>
        <time>2022-08-24T07:57:49Z</time>
      </trkpt>
      <trkpt lat="43.114175999999624" lon="-1.237658000000004">
        <ele>765.265</ele>
        <time>2022-08-24T07:57:50Z</time>
      </trkpt>
      <trkpt lat="43.11416499999962" lon="-1.237661000000004">
        <ele>765.681</ele>
        <time>2022-08-24T07:57:51Z</time>
      </trkpt>
      <trkpt lat="43.11415399999962" lon="-1.2376620000000038">
        <ele>765.623</ele>
        <time>2022-08-24T07:57:52Z</time>
      </trkpt>
      <trkpt lat="43.11413999999962" lon="-1.2376600000000038">
        <ele>766.060</ele>
        <time>2022-08-24T07:57:53Z</time>
      </trkpt>
      <trkpt lat="43.11413199999962" lon="-1.2376580000000037">
        <ele>766.043</ele>
        <time>2022-08-24T07:57:54Z</time>
      </trkpt>
      <trkpt lat="43.11412199999962" lon="-1.2376550000000037">
        <ele>766.257</ele>
        <time>2022-08-24T07:57:55Z</time>
      </trkpt>
      <trkpt lat="43.114111999999615" lon="-1.2376510000000038">
        <ele>766.486</ele>
        <time>2022-08-24T07:57:56Z</time>
      </trkpt>
      <trkpt lat="43.114097999999615" lon="-1.2376440000000037">
        <ele>766.613</ele>
        <time>2022-08-24T07:57:57Z</time>
      </trkpt>
      <trkpt lat="43.11408499999961" lon="-1.2376400000000038">
        <ele>766.643</ele>
        <time>2022-08-24T07:57:58Z</time>
      </trkpt>
      <trkpt lat="43.11407199999961" lon="-1.2376370000000039">
        <ele>766.807</ele>
        <time>2022-08-24T07:57:59Z</time>
      </trkpt>
      <trkpt lat="43.11405999999961" lon="-1.2376300000000038">
        <ele>767.009</ele>
        <time>2022-08-24T07:58:00Z</time>
      </trkpt>
      <trkpt lat="43.11404799999961" lon="-1.2376230000000037">
        <ele>767.062</ele>
        <time>2022-08-24T07:58:01Z</time>
      </trkpt>
      <trkpt lat="43.11403699999961" lon="-1.2376200000000037">
        <ele>767.272</ele>
        <time>2022-08-24T07:58:02Z</time>
      </trkpt>
      <trkpt lat="43.11402399999961" lon="-1.2376190000000038">
        <ele>767.482</ele>
        <time>2022-08-24T07:58:03Z</time>
      </trkpt>
      <trkpt lat="43.11400999999961" lon="-1.2376180000000039">
        <ele>767.698</ele>
        <time>2022-08-24T07:58:04Z</time>
      </trkpt>
      <trkpt lat="43.11399699999961" lon="-1.2376160000000038">
        <ele>767.650</ele>
        <time>2022-08-24T07:58:05Z</time>
      </trkpt>
      <trkpt lat="43.11398299999961" lon="-1.2376130000000038">
        <ele>767.877</ele>
        <time>2022-08-24T07:58:06Z</time>
      </trkpt>
      <trkpt lat="43.113971999999606" lon="-1.2376100000000039">
        <ele>768.080</ele>
        <time>2022-08-24T07:58:07Z</time>
      </trkpt>
      <trkpt lat="43.113960999999605" lon="-1.2376050000000038">
        <ele>768.244</ele>
        <time>2022-08-24T07:58:08Z</time>
      </trkpt>
      <trkpt lat="43.11394899999961" lon="-1.237599000000004">
        <ele>768.463</ele>
        <time>2022-08-24T07:58:09Z</time>
      </trkpt>
      <trkpt lat="43.11393999999961" lon="-1.2375910000000039">
        <ele>768.631</ele>
        <time>2022-08-24T07:58:10Z</time>
      </trkpt>
      <trkpt lat="43.11392799999961" lon="-1.2375860000000038">
        <ele>768.861</ele>
        <time>2022-08-24T07:58:11Z</time>
      </trkpt>
      <trkpt lat="43.11391699999961" lon="-1.2375840000000038">
        <ele>769.007</ele>
        <time>2022-08-24T07:58:12Z</time>
      </trkpt>
      <trkpt lat="43.11390599999961" lon="-1.2375830000000039">
        <ele>769.209</ele>
        <time>2022-08-24T07:58:13Z</time>
      </trkpt>
      <trkpt lat="43.11389499999961" lon="-1.2375840000000038">
        <ele>769.264</ele>
        <time>2022-08-24T07:58:14Z</time>
      </trkpt>
      <trkpt lat="43.11388399999961" lon="-1.2375820000000037">
        <ele>769.474</ele>
        <time>2022-08-24T07:58:15Z</time>
      </trkpt>
      <trkpt lat="43.113870999999605" lon="-1.2375770000000037">
        <ele>769.644</ele>
        <time>2022-08-24T07:58:16Z</time>
      </trkpt>
      <trkpt lat="43.113856999999605" lon="-1.2375710000000038">
        <ele>770.070</ele>
        <time>2022-08-24T07:58:17Z</time>
      </trkpt>
      <trkpt lat="43.1138439999996" lon="-1.2375660000000037">
        <ele>770.062</ele>
        <time>2022-08-24T07:58:18Z</time>
      </trkpt>
      <trkpt lat="43.1138309999996" lon="-1.2375620000000038">
        <ele>770.279</ele>
        <time>2022-08-24T07:58:19Z</time>
      </trkpt>
      <trkpt lat="43.1138189999996" lon="-1.2375570000000038">
        <ele>770.442</ele>
        <time>2022-08-24T07:58:20Z</time>
      </trkpt>
      <trkpt lat="43.1138059999996" lon="-1.237553000000004">
        <ele>770.436</ele>
        <time>2022-08-24T07:58:21Z</time>
      </trkpt>
      <trkpt lat="43.1137949999996" lon="-1.237550000000004">
        <ele>770.675</ele>
        <time>2022-08-24T07:58:22Z</time>
      </trkpt>
      <trkpt lat="43.113784999999595" lon="-1.2375480000000039">
        <ele>770.873</ele>
        <time>2022-08-24T07:58:23Z</time>
      </trkpt>
      <trkpt lat="43.113770999999595" lon="-1.2375410000000038">
        <ele>770.885</ele>
        <time>2022-08-24T07:58:24Z</time>
      </trkpt>
      <trkpt lat="43.1137589999996" lon="-1.2375330000000038">
        <ele>771.013</ele>
        <time>2022-08-24T07:58:25Z</time>
      </trkpt>
      <trkpt lat="43.113747999999596" lon="-1.2375270000000038">
        <ele>771.009</ele>
        <time>2022-08-24T07:58:26Z</time>
      </trkpt>
      <trkpt lat="43.113733999999596" lon="-1.2375210000000039">
        <ele>771.278</ele>
        <time>2022-08-24T07:58:27Z</time>
      </trkpt>
      <trkpt lat="43.113717999999594" lon="-1.2375160000000038">
        <ele>771.288</ele>
        <time>2022-08-24T07:58:28Z</time>
      </trkpt>
      <trkpt lat="43.113702999999596" lon="-1.2375140000000038">
        <ele>771.268</ele>
        <time>2022-08-24T07:58:29Z</time>
      </trkpt>
      <trkpt lat="43.113686999999594" lon="-1.2375130000000039">
        <ele>771.414</ele>
        <time>2022-08-24T07:58:30Z</time>
      </trkpt>
      <trkpt lat="43.113677999999595" lon="-1.2375100000000039">
        <ele>771.666</ele>
        <time>2022-08-24T07:58:31Z</time>
      </trkpt>
      <trkpt lat="43.113666999999595" lon="-1.2375030000000038">
        <ele>771.823</ele>
        <time>2022-08-24T07:58:32Z</time>
      </trkpt>
      <trkpt lat="43.1136519999996" lon="-1.2374950000000038">
        <ele>772.036</ele>
        <time>2022-08-24T07:58:33Z</time>
      </trkpt>
      <trkpt lat="43.113640999999596" lon="-1.2374890000000038">
        <ele>772.410</ele>
        <time>2022-08-24T07:58:34Z</time>
      </trkpt>
      <trkpt lat="43.11363099999959" lon="-1.2374870000000038">
        <ele>772.489</ele>
        <time>2022-08-24T07:58:35Z</time>
      </trkpt>
      <trkpt lat="43.11362299999959" lon="-1.2374850000000037">
        <ele>772.841</ele>
        <time>2022-08-24T07:58:36Z</time>
      </trkpt>
      <trkpt lat="43.11361399999959" lon="-1.2374860000000036">
        <ele>773.081</ele>
        <time>2022-08-24T07:58:37Z</time>
      </trkpt>
      <trkpt lat="43.113601999999595" lon="-1.2374850000000037">
        <ele>773.009</ele>
        <time>2022-08-24T07:58:38Z</time>
      </trkpt>
      <trkpt lat="43.1135899999996" lon="-1.2374830000000037">
        <ele>773.209</ele>
        <time>2022-08-24T07:58:39Z</time>
      </trkpt>
      <trkpt lat="43.113578999999596" lon="-1.2374800000000037">
        <ele>773.455</ele>
        <time>2022-08-24T07:58:40Z</time>
      </trkpt>
      <trkpt lat="43.11356899999959" lon="-1.2374750000000037">
        <ele>773.625</ele>
        <time>2022-08-24T07:58:41Z</time>
      </trkpt>
      <trkpt lat="43.113556999999595" lon="-1.2374670000000036">
        <ele>773.835</ele>
        <time>2022-08-24T07:58:42Z</time>
      </trkpt>
      <trkpt lat="43.1135449999996" lon="-1.2374610000000037">
        <ele>773.831</ele>
        <time>2022-08-24T07:58:43Z</time>
      </trkpt>
      <trkpt lat="43.113533999999596" lon="-1.2374550000000037">
        <ele>774.233</ele>
        <time>2022-08-24T07:58:44Z</time>
      </trkpt>
      <trkpt lat="43.113522999999596" lon="-1.2374460000000038">
        <ele>774.270</ele>
        <time>2022-08-24T07:58:45Z</time>
      </trkpt>
      <trkpt lat="43.1135109999996" lon="-1.2374390000000037">
        <ele>774.433</ele>
        <time>2022-08-24T07:58:46Z</time>
      </trkpt>
      <trkpt lat="43.113497999999595" lon="-1.2374340000000037">
        <ele>774.677</ele>
        <time>2022-08-24T07:58:47Z</time>
      </trkpt>
      <trkpt lat="43.11348499999959" lon="-1.2374310000000037">
        <ele>774.876</ele>
        <time>2022-08-24T07:58:48Z</time>
      </trkpt>
      <trkpt lat="43.11348199999959" lon="-1.2374250000000038">
        <ele>775.066</ele>
        <time>2022-08-24T07:58:49Z</time>
      </trkpt>
      <trkpt lat="43.11346899999959" lon="-1.2374230000000037">
        <ele>775.229</ele>
        <time>2022-08-24T07:58:50Z</time>
      </trkpt>
      <trkpt lat="43.11345599999959" lon="-1.2374190000000038">
        <ele>775.421</ele>
        <time>2022-08-24T07:58:51Z</time>
      </trkpt>
      <trkpt lat="43.113439999999585" lon="-1.2374140000000038">
        <ele>775.409</ele>
        <time>2022-08-24T07:58:52Z</time>
      </trkpt>
      <trkpt lat="43.113422999999585" lon="-1.2374070000000037">
        <ele>775.677</ele>
        <time>2022-08-24T07:58:53Z</time>
      </trkpt>
      <trkpt lat="43.11340799999959" lon="-1.2374010000000037">
        <ele>775.897</ele>
        <time>2022-08-24T07:58:54Z</time>
      </trkpt>
      <trkpt lat="43.11339299999959" lon="-1.2373940000000037">
        <ele>776.047</ele>
        <time>2022-08-24T07:58:55Z</time>
      </trkpt>
      <trkpt lat="43.11337999999959" lon="-1.2373860000000036">
        <ele>776.273</ele>
        <time>2022-08-24T07:58:56Z</time>
      </trkpt>
      <trkpt lat="43.11336799999959" lon="-1.2373740000000037">
        <ele>776.435</ele>
        <time>2022-08-24T07:58:57Z</time>
      </trkpt>
      <trkpt lat="43.11335399999959" lon="-1.2373650000000038">
        <ele>776.662</ele>
        <time>2022-08-24T07:58:58Z</time>
      </trkpt>
      <trkpt lat="43.11333899999959" lon="-1.237356000000004">
        <ele>776.875</ele>
        <time>2022-08-24T07:58:59Z</time>
      </trkpt>
      <trkpt lat="43.113323999999594" lon="-1.237352000000004">
        <ele>777.059</ele>
        <time>2022-08-24T07:59:00Z</time>
      </trkpt>
      <trkpt lat="43.113311999999596" lon="-1.2373480000000041">
        <ele>777.018</ele>
        <time>2022-08-24T07:59:01Z</time>
      </trkpt>
      <trkpt lat="43.11329599999959" lon="-1.2373420000000042">
        <ele>777.238</ele>
        <time>2022-08-24T07:59:02Z</time>
      </trkpt>
      <trkpt lat="43.11327999999959" lon="-1.237332000000004">
        <ele>777.470</ele>
        <time>2022-08-24T07:59:03Z</time>
      </trkpt>
      <trkpt lat="43.11325999999959" lon="-1.237325000000004">
        <ele>777.417</ele>
        <time>2022-08-24T07:59:04Z</time>
      </trkpt>
      <trkpt lat="43.11324599999959" lon="-1.237320000000004">
        <ele>777.609</ele>
        <time>2022-08-24T07:59:05Z</time>
      </trkpt>
      <trkpt lat="43.11323199999959" lon="-1.237316000000004">
        <ele>778.234</ele>
        <time>2022-08-24T07:59:06Z</time>
      </trkpt>
      <trkpt lat="43.11321499999959" lon="-1.237311000000004">
        <ele>778.254</ele>
        <time>2022-08-24T07:59:07Z</time>
      </trkpt>
      <trkpt lat="43.113196999999595" lon="-1.237305000000004">
        <ele>778.424</ele>
        <time>2022-08-24T07:59:08Z</time>
      </trkpt>
      <trkpt lat="43.113179999999595" lon="-1.2372990000000041">
        <ele>778.630</ele>
        <time>2022-08-24T07:59:09Z</time>
      </trkpt>
      <trkpt lat="43.1131619999996" lon="-1.2372940000000041">
        <ele>778.852</ele>
        <time>2022-08-24T07:59:10Z</time>
      </trkpt>
      <trkpt lat="43.1131439999996" lon="-1.2372880000000042">
        <ele>779.039</ele>
        <time>2022-08-24T07:59:11Z</time>
      </trkpt>
      <trkpt lat="43.1131289999996" lon="-1.237286000000004">
        <ele>779.272</ele>
        <time>2022-08-24T07:59:12Z</time>
      </trkpt>
      <trkpt lat="43.1131119999996" lon="-1.237284000000004">
        <ele>779.496</ele>
        <time>2022-08-24T07:59:13Z</time>
      </trkpt>
      <trkpt lat="43.113093999999606" lon="-1.237279000000004">
        <ele>779.665</ele>
        <time>2022-08-24T07:59:14Z</time>
      </trkpt>
      <trkpt lat="43.1130809999996" lon="-1.2372750000000041">
        <ele>779.831</ele>
        <time>2022-08-24T07:59:15Z</time>
      </trkpt>
      <trkpt lat="43.113062999999606" lon="-1.237270000000004">
        <ele>780.061</ele>
        <time>2022-08-24T07:59:16Z</time>
      </trkpt>
      <trkpt lat="43.113051999999605" lon="-1.2372640000000041">
        <ele>780.207</ele>
        <time>2022-08-24T07:59:17Z</time>
      </trkpt>
      <trkpt lat="43.1130389999996" lon="-1.2372580000000042">
        <ele>780.409</ele>
        <time>2022-08-24T07:59:18Z</time>
      </trkpt>
      <trkpt lat="43.1130229999996" lon="-1.2372520000000042">
        <ele>780.634</ele>
        <time>2022-08-24T07:59:19Z</time>
      </trkpt>
      <trkpt lat="43.1130079999996" lon="-1.2372470000000042">
        <ele>780.814</ele>
        <time>2022-08-24T07:59:20Z</time>
      </trkpt>
      <trkpt lat="43.1129909999996" lon="-1.2372450000000041">
        <ele>781.074</ele>
        <time>2022-08-24T07:59:21Z</time>
      </trkpt>
      <trkpt lat="43.1129749999996" lon="-1.237243000000004">
        <ele>781.260</ele>
        <time>2022-08-24T07:59:22Z</time>
      </trkpt>
      <trkpt lat="43.1129629999996" lon="-1.2372420000000042">
        <ele>781.482</ele>
        <time>2022-08-24T07:59:23Z</time>
      </trkpt>
      <trkpt lat="43.112944999999605" lon="-1.2372450000000041">
        <ele>781.479</ele>
        <time>2022-08-24T07:59:24Z</time>
      </trkpt>
      <trkpt lat="43.11292999999961" lon="-1.2372470000000042">
        <ele>781.652</ele>
        <time>2022-08-24T07:59:25Z</time>
      </trkpt>
      <trkpt lat="43.112913999999606" lon="-1.2372430000000043">
        <ele>781.616</ele>
        <time>2022-08-24T07:59:26Z</time>
      </trkpt>
      <trkpt lat="43.112902999999605" lon="-1.2372370000000044">
        <ele>781.875</ele>
        <time>2022-08-24T07:59:27Z</time>
      </trkpt>
      <trkpt lat="43.11288799999961" lon="-1.2372290000000044">
        <ele>782.033</ele>
        <time>2022-08-24T07:59:28Z</time>
      </trkpt>
      <trkpt lat="43.112871999999605" lon="-1.2372230000000044">
        <ele>782.223</ele>
        <time>2022-08-24T07:59:29Z</time>
      </trkpt>
      <trkpt lat="43.11285699999961" lon="-1.2372210000000043">
        <ele>782.415</ele>
        <time>2022-08-24T07:59:30Z</time>
      </trkpt>
      <trkpt lat="43.11283899999961" lon="-1.2372200000000044">
        <ele>782.409</ele>
        <time>2022-08-24T07:59:31Z</time>
      </trkpt>
      <trkpt lat="43.11282299999961" lon="-1.2372210000000043">
        <ele>782.864</ele>
        <time>2022-08-24T07:59:32Z</time>
      </trkpt>
      <trkpt lat="43.112809999999605" lon="-1.2372190000000043">
        <ele>782.854</ele>
        <time>2022-08-24T07:59:33Z</time>
      </trkpt>
      <trkpt lat="43.1127939999996" lon="-1.2372140000000043">
        <ele>783.274</ele>
        <time>2022-08-24T07:59:34Z</time>
      </trkpt>
      <trkpt lat="43.1127749999996" lon="-1.2372110000000043">
        <ele>783.480</ele>
        <time>2022-08-24T07:59:35Z</time>
      </trkpt>
      <trkpt lat="43.1127529999996" lon="-1.2372080000000043">
        <ele>783.412</ele>
        <time>2022-08-24T07:59:36Z</time>
      </trkpt>
      <trkpt lat="43.1127349999996" lon="-1.2372070000000044">
        <ele>783.649</ele>
        <time>2022-08-24T07:59:37Z</time>
      </trkpt>
      <trkpt lat="43.1127209999996" lon="-1.2372090000000044">
        <ele>783.662</ele>
        <time>2022-08-24T07:59:38Z</time>
      </trkpt>
      <trkpt lat="43.1127049999996" lon="-1.2372110000000045">
        <ele>783.836</ele>
        <time>2022-08-24T07:59:39Z</time>
      </trkpt>
      <trkpt lat="43.1126869999996" lon="-1.2372150000000044">
        <ele>783.825</ele>
        <time>2022-08-24T07:59:40Z</time>
      </trkpt>
      <trkpt lat="43.112674999999605" lon="-1.2372170000000045">
        <ele>784.064</ele>
        <time>2022-08-24T07:59:41Z</time>
      </trkpt>
      <trkpt lat="43.112660999999605" lon="-1.2372170000000045">
        <ele>784.206</ele>
        <time>2022-08-24T07:59:42Z</time>
      </trkpt>
      <trkpt lat="43.1126449999996" lon="-1.2372170000000045">
        <ele>784.216</ele>
        <time>2022-08-24T07:59:43Z</time>
      </trkpt>
      <trkpt lat="43.1126279999996" lon="-1.2372170000000045">
        <ele>784.609</ele>
        <time>2022-08-24T07:59:44Z</time>
      </trkpt>
      <trkpt lat="43.1126109999996" lon="-1.2372170000000045">
        <ele>784.677</ele>
        <time>2022-08-24T07:59:45Z</time>
      </trkpt>
      <trkpt lat="43.1125939999996" lon="-1.2372170000000045">
        <ele>784.837</ele>
        <time>2022-08-24T07:59:46Z</time>
      </trkpt>
      <trkpt lat="43.112573999999604" lon="-1.2372150000000044">
        <ele>785.097</ele>
        <time>2022-08-24T07:59:47Z</time>
      </trkpt>
      <trkpt lat="43.1125609999996" lon="-1.2372160000000043">
        <ele>785.053</ele>
        <time>2022-08-24T07:59:48Z</time>
      </trkpt>
      <trkpt lat="43.112545999999604" lon="-1.2372160000000043">
        <ele>785.245</ele>
        <time>2022-08-24T07:59:49Z</time>
      </trkpt>
      <trkpt lat="43.112530999999606" lon="-1.2372180000000044">
        <ele>785.242</ele>
        <time>2022-08-24T07:59:50Z</time>
      </trkpt>
      <trkpt lat="43.11251399999961" lon="-1.2372170000000045">
        <ele>785.475</ele>
        <time>2022-08-24T07:59:51Z</time>
      </trkpt>
      <trkpt lat="43.11249699999961" lon="-1.2372200000000044">
        <ele>785.689</ele>
        <time>2022-08-24T07:59:52Z</time>
      </trkpt>
      <trkpt lat="43.112477999999605" lon="-1.2372210000000043">
        <ele>785.858</ele>
        <time>2022-08-24T07:59:53Z</time>
      </trkpt>
      <trkpt lat="43.1124619999996" lon="-1.2372200000000044">
        <ele>786.017</ele>
        <time>2022-08-24T07:59:54Z</time>
      </trkpt>
      <trkpt lat="43.1124449999996" lon="-1.2372200000000044">
        <ele>786.087</ele>
        <time>2022-08-24T07:59:55Z</time>
      </trkpt>
      <trkpt lat="43.1124259999996" lon="-1.2372240000000043">
        <ele>786.215</ele>
        <time>2022-08-24T07:59:56Z</time>
      </trkpt>
      <trkpt lat="43.1124089999996" lon="-1.2372290000000044">
        <ele>786.209</ele>
        <time>2022-08-24T07:59:57Z</time>
      </trkpt>
      <trkpt lat="43.1123919999996" lon="-1.2372330000000042">
        <ele>786.682</ele>
        <time>2022-08-24T07:59:58Z</time>
      </trkpt>
      <trkpt lat="43.1123759999996" lon="-1.2372390000000042">
        <ele>786.622</ele>
        <time>2022-08-24T07:59:59Z</time>
      </trkpt>
      <trkpt lat="43.1123569999996" lon="-1.2372460000000043">
        <ele>786.892</ele>
        <time>2022-08-24T08:00:00Z</time>
      </trkpt>
      <trkpt lat="43.1123389999996" lon="-1.2372540000000043">
        <ele>787.018</ele>
        <time>2022-08-24T08:00:01Z</time>
      </trkpt>
      <trkpt lat="43.1123219999996" lon="-1.2372650000000043">
        <ele>786.830</ele>
        <time>2022-08-24T08:00:02Z</time>
      </trkpt>
      <trkpt lat="43.112300999999604" lon="-1.2372770000000042">
        <ele>786.847</ele>
        <time>2022-08-24T08:00:03Z</time>
      </trkpt>
      <trkpt lat="43.11227999999961" lon="-1.237286000000004">
        <ele>787.010</ele>
        <time>2022-08-24T08:00:04Z</time>
      </trkpt>
      <trkpt lat="43.11225499999961" lon="-1.237298000000004">
        <ele>787.054</ele>
        <time>2022-08-24T08:00:05Z</time>
      </trkpt>
      <trkpt lat="43.112229999999606" lon="-1.237316000000004">
        <ele>787.033</ele>
        <time>2022-08-24T08:00:06Z</time>
      </trkpt>
      <trkpt lat="43.1122029999996" lon="-1.237336000000004">
        <ele>787.286</ele>
        <time>2022-08-24T08:00:07Z</time>
      </trkpt>
      <trkpt lat="43.112170999999606" lon="-1.237358000000004">
        <ele>787.260</ele>
        <time>2022-08-24T08:00:08Z</time>
      </trkpt>
      <trkpt lat="43.112134999999604" lon="-1.237381000000004">
        <ele>787.026</ele>
        <time>2022-08-24T08:00:09Z</time>
      </trkpt>
      <trkpt lat="43.1120939999996" lon="-1.237405000000004">
        <ele>787.009</ele>
        <time>2022-08-24T08:00:10Z</time>
      </trkpt>
      <trkpt lat="43.1120489999996" lon="-1.237433000000004">
        <ele>787.059</ele>
        <time>2022-08-24T08:00:11Z</time>
      </trkpt>
      <trkpt lat="43.1120019999996" lon="-1.237464000000004">
        <ele>787.049</ele>
        <time>2022-08-24T08:00:12Z</time>
      </trkpt>
      <trkpt lat="43.1119509999996" lon="-1.2374950000000038">
        <ele>787.099</ele>
        <time>2022-08-24T08:00:13Z</time>
      </trkpt>
      <trkpt lat="43.1118979999996" lon="-1.2375260000000037">
        <ele>787.025</ele>
        <time>2022-08-24T08:00:14Z</time>
      </trkpt>
      <trkpt lat="43.111842999999595" lon="-1.2375580000000037">
        <ele>786.837</ele>
        <time>2022-08-24T08:00:15Z</time>
      </trkpt>
      <trkpt lat="43.11178499999959" lon="-1.2375910000000037">
        <ele>786.884</ele>
        <time>2022-08-24T08:00:16Z</time>
      </trkpt>
      <trkpt lat="43.11165899999959" lon="-1.2376650000000036">
        <ele>786.297</ele>
        <time>2022-08-24T08:00:18Z</time>
      </trkpt>
      <trkpt lat="43.111305999999594" lon="-1.2378690000000037">
        <ele>785.251</ele>
        <time>2022-08-24T08:00:24Z</time>
      </trkpt>
      <trkpt lat="43.111305999999594" lon="-1.2378690000000037">
        <ele>785.080</ele>
        <time>2022-08-24T08:00:25Z</time>
      </trkpt>
      <trkpt lat="43.1109219999996" lon="-1.2380360000000037">
        <ele>784.294</ele>
        <time>2022-08-24T08:00:30Z</time>
      </trkpt>
      <trkpt lat="43.1107919999996" lon="-1.2380640000000036">
        <ele>783.657</ele>
        <time>2022-08-24T08:00:32Z</time>
      </trkpt>
      <trkpt lat="43.1106249999996" lon="-1.2380880000000036">
        <ele>783.222</ele>
        <time>2022-08-24T08:00:34Z</time>
      </trkpt>
      <trkpt lat="43.1102469999996" lon="-1.2381320000000036">
        <ele>781.809</ele>
        <time>2022-08-24T08:00:39Z</time>
      </trkpt>
      <trkpt lat="43.110167999999604" lon="-1.2381450000000036">
        <ele>781.230</ele>
        <time>2022-08-24T08:00:40Z</time>
      </trkpt>
      <trkpt lat="43.110091999999604" lon="-1.2381630000000037">
        <ele>781.020</ele>
        <time>2022-08-24T08:00:41Z</time>
      </trkpt>
      <trkpt lat="43.1100189999996" lon="-1.2381860000000038">
        <ele>780.880</ele>
        <time>2022-08-24T08:00:42Z</time>
      </trkpt>
      <trkpt lat="43.1099469999996" lon="-1.2382130000000038">
        <ele>780.646</ele>
        <time>2022-08-24T08:00:43Z</time>
      </trkpt>
      <trkpt lat="43.1098619999996" lon="-1.2382450000000038">
        <ele>780.038</ele>
        <time>2022-08-24T08:00:44Z</time>
      </trkpt>
      <trkpt lat="43.1097939999996" lon="-1.2382740000000039">
        <ele>779.665</ele>
        <time>2022-08-24T08:00:45Z</time>
      </trkpt>
      <trkpt lat="43.109728999999604" lon="-1.2383050000000038">
        <ele>779.678</ele>
        <time>2022-08-24T08:00:46Z</time>
      </trkpt>
      <trkpt lat="43.1096789999996" lon="-1.2383310000000038">
        <ele>779.432</ele>
        <time>2022-08-24T08:00:47Z</time>
      </trkpt>
      <trkpt lat="43.1096179999996" lon="-1.238368000000004">
        <ele>779.251</ele>
        <time>2022-08-24T08:00:48Z</time>
      </trkpt>
      <trkpt lat="43.1095469999996" lon="-1.2384150000000038">
        <ele>779.247</ele>
        <time>2022-08-24T08:00:49Z</time>
      </trkpt>
      <trkpt lat="43.1094909999996" lon="-1.2384530000000038">
        <ele>779.029</ele>
        <time>2022-08-24T08:00:50Z</time>
      </trkpt>
      <trkpt lat="43.1094379999996" lon="-1.2384910000000038">
        <ele>778.621</ele>
        <time>2022-08-24T08:00:51Z</time>
      </trkpt>
      <trkpt lat="43.1093959999996" lon="-1.2385220000000037">
        <ele>778.609</ele>
        <time>2022-08-24T08:00:52Z</time>
      </trkpt>
      <trkpt lat="43.1093479999996" lon="-1.2385620000000037">
        <ele>778.675</ele>
        <time>2022-08-24T08:00:53Z</time>
      </trkpt>
      <trkpt lat="43.109292999999596" lon="-1.2386130000000037">
        <ele>778.475</ele>
        <time>2022-08-24T08:00:54Z</time>
      </trkpt>
      <trkpt lat="43.1092499999996" lon="-1.2386610000000038">
        <ele>778.425</ele>
        <time>2022-08-24T08:00:55Z</time>
      </trkpt>
      <trkpt lat="43.1091669999996" lon="-1.2387620000000037">
        <ele>778.471</ele>
        <time>2022-08-24T08:00:57Z</time>
      </trkpt>
      <trkpt lat="43.1088999999996" lon="-1.2391150000000037">
        <ele>778.613</ele>
        <time>2022-08-24T08:01:02Z</time>
      </trkpt>
      <trkpt lat="43.1088619999996" lon="-1.2391630000000038">
        <ele>778.860</ele>
        <time>2022-08-24T08:01:03Z</time>
      </trkpt>
      <trkpt lat="43.1088339999996" lon="-1.2391920000000038">
        <ele>778.873</ele>
        <time>2022-08-24T08:01:04Z</time>
      </trkpt>
      <trkpt lat="43.108851999999594" lon="-1.2391850000000038">
        <ele>779.027</ele>
        <time>2022-08-24T08:01:19Z</time>
      </trkpt>
      <trkpt lat="43.108856999999595" lon="-1.2391900000000038">
        <ele>779.046</ele>
        <time>2022-08-24T08:01:20Z</time>
      </trkpt>
      <trkpt lat="43.1088139999996" lon="-1.2391870000000038">
        <ele>778.053</ele>
        <time>2022-08-24T08:17:03Z</time>
      </trkpt>
      <trkpt lat="43.108786999999595" lon="-1.239194000000004">
        <ele>778.004</ele>
        <time>2022-08-24T08:17:05Z</time>
      </trkpt>
      <trkpt lat="43.10866399999959" lon="-1.239204000000004">
        <ele>778.214</ele>
        <time>2022-08-24T08:17:10Z</time>
      </trkpt>
      <trkpt lat="43.10864399999959" lon="-1.239211000000004">
        <ele>778.609</ele>
        <time>2022-08-24T08:17:11Z</time>
      </trkpt>
      <trkpt lat="43.10862699999959" lon="-1.239217000000004">
        <ele>778.656</ele>
        <time>2022-08-24T08:17:12Z</time>
      </trkpt>
      <trkpt lat="43.10861399999959" lon="-1.239220000000004">
        <ele>778.896</ele>
        <time>2022-08-24T08:17:13Z</time>
      </trkpt>
      <trkpt lat="43.10860399999959" lon="-1.239219000000004">
        <ele>778.876</ele>
        <time>2022-08-24T08:17:14Z</time>
      </trkpt>
      <trkpt lat="43.10858899999959" lon="-1.239222000000004">
        <ele>779.272</ele>
        <time>2022-08-24T08:17:15Z</time>
      </trkpt>
      <trkpt lat="43.10857499999959" lon="-1.239224000000004">
        <ele>779.454</ele>
        <time>2022-08-24T08:17:16Z</time>
      </trkpt>
      <trkpt lat="43.10856099999959" lon="-1.239228000000004">
        <ele>779.461</ele>
        <time>2022-08-24T08:17:17Z</time>
      </trkpt>
      <trkpt lat="43.10854299999959" lon="-1.239235000000004">
        <ele>779.814</ele>
        <time>2022-08-24T08:17:18Z</time>
      </trkpt>
      <trkpt lat="43.10852599999959" lon="-1.2392420000000042">
        <ele>780.028</ele>
        <time>2022-08-24T08:17:19Z</time>
      </trkpt>
      <trkpt lat="43.10850899999959" lon="-1.2392480000000041">
        <ele>780.277</ele>
        <time>2022-08-24T08:17:20Z</time>
      </trkpt>
      <trkpt lat="43.10849599999959" lon="-1.2392530000000042">
        <ele>780.447</ele>
        <time>2022-08-24T08:17:21Z</time>
      </trkpt>
      <trkpt lat="43.10846499999959" lon="-1.2392580000000042">
        <ele>780.829</ele>
        <time>2022-08-24T08:17:23Z</time>
      </trkpt>
      <trkpt lat="43.10844899999959" lon="-1.2392560000000041">
        <ele>780.821</ele>
        <time>2022-08-24T08:17:24Z</time>
      </trkpt>
      <trkpt lat="43.10843199999959" lon="-1.239257000000004">
        <ele>780.809</ele>
        <time>2022-08-24T08:17:25Z</time>
      </trkpt>
      <trkpt lat="43.108415999999586" lon="-1.239258000000004">
        <ele>781.055</ele>
        <time>2022-08-24T08:17:26Z</time>
      </trkpt>
      <trkpt lat="43.10840099999959" lon="-1.239263000000004">
        <ele>781.275</ele>
        <time>2022-08-24T08:17:27Z</time>
      </trkpt>
      <trkpt lat="43.10838599999959" lon="-1.239269000000004">
        <ele>781.445</ele>
        <time>2022-08-24T08:17:28Z</time>
      </trkpt>
      <trkpt lat="43.10837099999959" lon="-1.239274000000004">
        <ele>781.651</ele>
        <time>2022-08-24T08:17:29Z</time>
      </trkpt>
      <trkpt lat="43.10835699999959" lon="-1.239280000000004">
        <ele>781.663</ele>
        <time>2022-08-24T08:17:30Z</time>
      </trkpt>
      <trkpt lat="43.108344999999595" lon="-1.239285000000004">
        <ele>781.880</ele>
        <time>2022-08-24T08:17:31Z</time>
      </trkpt>
      <trkpt lat="43.1083299999996" lon="-1.239293000000004">
        <ele>782.053</ele>
        <time>2022-08-24T08:17:32Z</time>
      </trkpt>
      <trkpt lat="43.1083149999996" lon="-1.239299000000004">
        <ele>782.087</ele>
        <time>2022-08-24T08:17:33Z</time>
      </trkpt>
      <trkpt lat="43.1083029999996" lon="-1.239306000000004">
        <ele>782.296</ele>
        <time>2022-08-24T08:17:34Z</time>
      </trkpt>
      <trkpt lat="43.1082899999996" lon="-1.239313000000004">
        <ele>782.444</ele>
        <time>2022-08-24T08:17:35Z</time>
      </trkpt>
      <trkpt lat="43.1082779999996" lon="-1.239319000000004">
        <ele>782.405</ele>
        <time>2022-08-24T08:17:36Z</time>
      </trkpt>
      <trkpt lat="43.1082649999996" lon="-1.239323000000004">
        <ele>782.415</ele>
        <time>2022-08-24T08:17:37Z</time>
      </trkpt>
      <trkpt lat="43.108251999999595" lon="-1.239326000000004">
        <ele>782.609</ele>
        <time>2022-08-24T08:17:38Z</time>
      </trkpt>
      <trkpt lat="43.10823899999959" lon="-1.2393300000000038">
        <ele>782.835</ele>
        <time>2022-08-24T08:17:39Z</time>
      </trkpt>
      <trkpt lat="43.10822599999959" lon="-1.2393350000000039">
        <ele>783.035</ele>
        <time>2022-08-24T08:17:40Z</time>
      </trkpt>
      <trkpt lat="43.10821199999959" lon="-1.2393400000000039">
        <ele>783.235</ele>
        <time>2022-08-24T08:17:41Z</time>
      </trkpt>
      <trkpt lat="43.10819999999959" lon="-1.2393490000000038">
        <ele>783.261</ele>
        <time>2022-08-24T08:17:42Z</time>
      </trkpt>
      <trkpt lat="43.10818699999959" lon="-1.2393600000000038">
        <ele>783.423</ele>
        <time>2022-08-24T08:17:43Z</time>
      </trkpt>
      <trkpt lat="43.10817599999959" lon="-1.2393660000000037">
        <ele>783.480</ele>
        <time>2022-08-24T08:17:44Z</time>
      </trkpt>
      <trkpt lat="43.10815899999959" lon="-1.2393730000000038">
        <ele>783.683</ele>
        <time>2022-08-24T08:17:45Z</time>
      </trkpt>
      <trkpt lat="43.108145999999586" lon="-1.239383000000004">
        <ele>783.847</ele>
        <time>2022-08-24T08:17:46Z</time>
      </trkpt>
      <trkpt lat="43.10813299999958" lon="-1.239391000000004">
        <ele>784.036</ele>
        <time>2022-08-24T08:17:47Z</time>
      </trkpt>
      <trkpt lat="43.10811899999958" lon="-1.239396000000004">
        <ele>784.023</ele>
        <time>2022-08-24T08:17:48Z</time>
      </trkpt>
      <trkpt lat="43.108103999999585" lon="-1.2394000000000038">
        <ele>784.283</ele>
        <time>2022-08-24T08:17:49Z</time>
      </trkpt>
      <trkpt lat="43.108086999999585" lon="-1.239402000000004">
        <ele>784.411</ele>
        <time>2022-08-24T08:17:50Z</time>
      </trkpt>
      <trkpt lat="43.108072999999585" lon="-1.239404000000004">
        <ele>784.409</ele>
        <time>2022-08-24T08:17:51Z</time>
      </trkpt>
      <trkpt lat="43.10806099999959" lon="-1.2394080000000038">
        <ele>784.683</ele>
        <time>2022-08-24T08:17:52Z</time>
      </trkpt>
      <trkpt lat="43.108047999999584" lon="-1.2394170000000038">
        <ele>784.643</ele>
        <time>2022-08-24T08:17:53Z</time>
      </trkpt>
      <trkpt lat="43.10803799999958" lon="-1.2394240000000039">
        <ele>784.873</ele>
        <time>2022-08-24T08:17:54Z</time>
      </trkpt>
      <trkpt lat="43.108022999999584" lon="-1.239431000000004">
        <ele>785.059</ele>
        <time>2022-08-24T08:17:55Z</time>
      </trkpt>
      <trkpt lat="43.10800699999958" lon="-1.239430000000004">
        <ele>785.291</ele>
        <time>2022-08-24T08:17:56Z</time>
      </trkpt>
      <trkpt lat="43.10799399999958" lon="-1.239427000000004">
        <ele>785.238</ele>
        <time>2022-08-24T08:17:57Z</time>
      </trkpt>
      <trkpt lat="43.10797899999958" lon="-1.239428000000004">
        <ele>785.431</ele>
        <time>2022-08-24T08:17:58Z</time>
      </trkpt>
      <trkpt lat="43.107960999999584" lon="-1.2394290000000039">
        <ele>785.675</ele>
        <time>2022-08-24T08:17:59Z</time>
      </trkpt>
      <trkpt lat="43.10794299999959" lon="-1.2394300000000038">
        <ele>785.654</ele>
        <time>2022-08-24T08:18:00Z</time>
      </trkpt>
      <trkpt lat="43.10792799999959" lon="-1.2394330000000038">
        <ele>785.867</ele>
        <time>2022-08-24T08:18:01Z</time>
      </trkpt>
      <trkpt lat="43.10791199999959" lon="-1.2394360000000038">
        <ele>786.081</ele>
        <time>2022-08-24T08:18:02Z</time>
      </trkpt>
      <trkpt lat="43.10789699999959" lon="-1.2394370000000037">
        <ele>786.219</ele>
        <time>2022-08-24T08:18:03Z</time>
      </trkpt>
      <trkpt lat="43.107883999999586" lon="-1.2394380000000036">
        <ele>786.409</ele>
        <time>2022-08-24T08:18:04Z</time>
      </trkpt>
      <trkpt lat="43.107869999999586" lon="-1.2394430000000036">
        <ele>786.457</ele>
        <time>2022-08-24T08:18:05Z</time>
      </trkpt>
      <trkpt lat="43.10785499999959" lon="-1.2394500000000037">
        <ele>786.687</ele>
        <time>2022-08-24T08:18:06Z</time>
      </trkpt>
      <trkpt lat="43.107841999999586" lon="-1.2394570000000038">
        <ele>786.897</ele>
        <time>2022-08-24T08:18:07Z</time>
      </trkpt>
      <trkpt lat="43.10782899999958" lon="-1.2394600000000038">
        <ele>787.093</ele>
        <time>2022-08-24T08:18:08Z</time>
      </trkpt>
      <trkpt lat="43.107813999999586" lon="-1.2394630000000038">
        <ele>787.025</ele>
        <time>2022-08-24T08:18:09Z</time>
      </trkpt>
      <trkpt lat="43.10780199999959" lon="-1.2394600000000038">
        <ele>787.282</ele>
        <time>2022-08-24T08:18:10Z</time>
      </trkpt>
      <trkpt lat="43.10778999999959" lon="-1.2394610000000037">
        <ele>787.485</ele>
        <time>2022-08-24T08:18:11Z</time>
      </trkpt>
      <trkpt lat="43.10777699999959" lon="-1.2394620000000036">
        <ele>787.649</ele>
        <time>2022-08-24T08:18:12Z</time>
      </trkpt>
      <trkpt lat="43.10776499999959" lon="-1.2394600000000036">
        <ele>787.448</ele>
        <time>2022-08-24T08:18:13Z</time>
      </trkpt>
      <trkpt lat="43.107751999999586" lon="-1.2394590000000036">
        <ele>787.629</ele>
        <time>2022-08-24T08:18:14Z</time>
      </trkpt>
      <trkpt lat="43.10773999999959" lon="-1.2394580000000037">
        <ele>787.800</ele>
        <time>2022-08-24T08:18:15Z</time>
      </trkpt>
      <trkpt lat="43.107726999999585" lon="-1.2394570000000038">
        <ele>788.020</ele>
        <time>2022-08-24T08:18:16Z</time>
      </trkpt>
      <trkpt lat="43.107712999999585" lon="-1.2394600000000038">
        <ele>788.209</ele>
        <time>2022-08-24T08:18:17Z</time>
      </trkpt>
      <trkpt lat="43.10770299999958" lon="-1.2394600000000038">
        <ele>788.493</ele>
        <time>2022-08-24T08:18:18Z</time>
      </trkpt>
      <trkpt lat="43.10768999999958" lon="-1.2394590000000039">
        <ele>788.693</ele>
        <time>2022-08-24T08:18:19Z</time>
      </trkpt>
      <trkpt lat="43.107676999999576" lon="-1.2394600000000038">
        <ele>788.853</ele>
        <time>2022-08-24T08:18:20Z</time>
      </trkpt>
      <trkpt lat="43.10766399999957" lon="-1.2394590000000039">
        <ele>789.089</ele>
        <time>2022-08-24T08:18:21Z</time>
      </trkpt>
      <trkpt lat="43.107651999999575" lon="-1.2394560000000039">
        <ele>789.221</ele>
        <time>2022-08-24T08:18:22Z</time>
      </trkpt>
      <trkpt lat="43.107637999999575" lon="-1.2394540000000038">
        <ele>789.488</ele>
        <time>2022-08-24T08:18:23Z</time>
      </trkpt>
      <trkpt lat="43.107623999999575" lon="-1.2394540000000038">
        <ele>789.891</ele>
        <time>2022-08-24T08:18:24Z</time>
      </trkpt>
      <trkpt lat="43.10761099999957" lon="-1.2394570000000038">
        <ele>789.875</ele>
        <time>2022-08-24T08:18:25Z</time>
      </trkpt>
      <trkpt lat="43.107598999999574" lon="-1.2394550000000037">
        <ele>790.214</ele>
        <time>2022-08-24T08:18:26Z</time>
      </trkpt>
      <trkpt lat="43.107586999999576" lon="-1.2394550000000037">
        <ele>790.288</ele>
        <time>2022-08-24T08:18:27Z</time>
      </trkpt>
      <trkpt lat="43.107575999999575" lon="-1.2394570000000038">
        <ele>790.624</ele>
        <time>2022-08-24T08:18:28Z</time>
      </trkpt>
      <trkpt lat="43.10756399999958" lon="-1.2394540000000038">
        <ele>790.826</ele>
        <time>2022-08-24T08:18:29Z</time>
      </trkpt>
      <trkpt lat="43.10754899999958" lon="-1.2394510000000039">
        <ele>790.809</ele>
        <time>2022-08-24T08:18:30Z</time>
      </trkpt>
      <trkpt lat="43.10753499999958" lon="-1.239447000000004">
        <ele>791.049</ele>
        <time>2022-08-24T08:18:31Z</time>
      </trkpt>
      <trkpt lat="43.10751999999958" lon="-1.239446000000004">
        <ele>791.079</ele>
        <time>2022-08-24T08:18:32Z</time>
      </trkpt>
      <trkpt lat="43.10750699999958" lon="-1.239443000000004">
        <ele>791.239</ele>
        <time>2022-08-24T08:18:33Z</time>
      </trkpt>
      <trkpt lat="43.10749599999958" lon="-1.2394420000000042">
        <ele>791.475</ele>
        <time>2022-08-24T08:18:34Z</time>
      </trkpt>
      <trkpt lat="43.10748499999958" lon="-1.2394450000000041">
        <ele>791.667</ele>
        <time>2022-08-24T08:18:35Z</time>
      </trkpt>
      <trkpt lat="43.10747099999958" lon="-1.2394470000000042">
        <ele>792.024</ele>
        <time>2022-08-24T08:18:36Z</time>
      </trkpt>
      <trkpt lat="43.10745699999958" lon="-1.2394440000000042">
        <ele>792.057</ele>
        <time>2022-08-24T08:18:37Z</time>
      </trkpt>
      <trkpt lat="43.10744199999958" lon="-1.2394410000000042">
        <ele>792.481</ele>
        <time>2022-08-24T08:18:38Z</time>
      </trkpt>
      <trkpt lat="43.10742699999958" lon="-1.2394370000000043">
        <ele>792.660</ele>
        <time>2022-08-24T08:18:39Z</time>
      </trkpt>
      <trkpt lat="43.107411999999584" lon="-1.2394330000000044">
        <ele>792.883</ele>
        <time>2022-08-24T08:18:40Z</time>
      </trkpt>
      <trkpt lat="43.10739899999958" lon="-1.2394310000000044">
        <ele>793.225</ele>
        <time>2022-08-24T08:18:41Z</time>
      </trkpt>
      <trkpt lat="43.10738599999958" lon="-1.2394300000000045">
        <ele>793.217</ele>
        <time>2022-08-24T08:18:42Z</time>
      </trkpt>
      <trkpt lat="43.10737099999958" lon="-1.2394280000000044">
        <ele>793.609</ele>
        <time>2022-08-24T08:18:43Z</time>
      </trkpt>
      <trkpt lat="43.107355999999584" lon="-1.2394310000000044">
        <ele>793.879</ele>
        <time>2022-08-24T08:18:44Z</time>
      </trkpt>
      <trkpt lat="43.107340999999586" lon="-1.2394300000000045">
        <ele>794.069</ele>
        <time>2022-08-24T08:18:45Z</time>
      </trkpt>
      <trkpt lat="43.10732599999959" lon="-1.2394310000000044">
        <ele>794.469</ele>
        <time>2022-08-24T08:18:46Z</time>
      </trkpt>
      <trkpt lat="43.10731399999959" lon="-1.2394310000000044">
        <ele>794.465</ele>
        <time>2022-08-24T08:18:47Z</time>
      </trkpt>
      <trkpt lat="43.10729999999959" lon="-1.2394320000000043">
        <ele>794.877</ele>
        <time>2022-08-24T08:18:48Z</time>
      </trkpt>
      <trkpt lat="43.10728599999959" lon="-1.2394280000000044">
        <ele>795.054</ele>
        <time>2022-08-24T08:18:49Z</time>
      </trkpt>
      <trkpt lat="43.10727399999959" lon="-1.2394210000000043">
        <ele>795.277</ele>
        <time>2022-08-24T08:18:50Z</time>
      </trkpt>
      <trkpt lat="43.10726399999959" lon="-1.2394160000000043">
        <ele>795.421</ele>
        <time>2022-08-24T08:18:51Z</time>
      </trkpt>
      <trkpt lat="43.107253999999585" lon="-1.2394140000000042">
        <ele>795.640</ele>
        <time>2022-08-24T08:18:52Z</time>
      </trkpt>
      <trkpt lat="43.107242999999585" lon="-1.2394090000000042">
        <ele>795.873</ele>
        <time>2022-08-24T08:18:53Z</time>
      </trkpt>
      <trkpt lat="43.10723299999958" lon="-1.2394030000000043">
        <ele>796.085</ele>
        <time>2022-08-24T08:18:54Z</time>
      </trkpt>
      <trkpt lat="43.10722099999958" lon="-1.2394020000000043">
        <ele>796.413</ele>
        <time>2022-08-24T08:18:55Z</time>
      </trkpt>
      <trkpt lat="43.107211999999585" lon="-1.2393990000000044">
        <ele>796.609</ele>
        <time>2022-08-24T08:18:56Z</time>
      </trkpt>
      <trkpt lat="43.107202999999586" lon="-1.2393990000000044">
        <ele>796.878</ele>
        <time>2022-08-24T08:18:57Z</time>
      </trkpt>
      <trkpt lat="43.10719099999959" lon="-1.2393990000000044">
        <ele>797.038</ele>
        <time>2022-08-24T08:18:58Z</time>
      </trkpt>
      <trkpt lat="43.107180999999585" lon="-1.2393970000000043">
        <ele>797.058</ele>
        <time>2022-08-24T08:18:59Z</time>
      </trkpt>
      <trkpt lat="43.10716899999959" lon="-1.2393930000000044">
        <ele>797.434</ele>
        <time>2022-08-24T08:19:00Z</time>
      </trkpt>
      <trkpt lat="43.107157999999586" lon="-1.2393910000000044">
        <ele>797.436</ele>
        <time>2022-08-24T08:19:01Z</time>
      </trkpt>
      <trkpt lat="43.10714899999959" lon="-1.2393910000000044">
        <ele>797.613</ele>
        <time>2022-08-24T08:19:02Z</time>
      </trkpt>
      <trkpt lat="43.10713699999959" lon="-1.2393910000000044">
        <ele>797.866</ele>
        <time>2022-08-24T08:19:03Z</time>
      </trkpt>
      <trkpt lat="43.10712299999959" lon="-1.2393890000000043">
        <ele>797.830</ele>
        <time>2022-08-24T08:19:04Z</time>
      </trkpt>
      <trkpt lat="43.10710899999959" lon="-1.2393830000000043">
        <ele>798.049</ele>
        <time>2022-08-24T08:19:05Z</time>
      </trkpt>
      <trkpt lat="43.107098999999586" lon="-1.2393850000000044">
        <ele>798.221</ele>
        <time>2022-08-24T08:19:06Z</time>
      </trkpt>
      <trkpt lat="43.10709199999959" lon="-1.2393830000000043">
        <ele>798.441</ele>
        <time>2022-08-24T08:19:07Z</time>
      </trkpt>
      <trkpt lat="43.10708099999959" lon="-1.2393860000000043">
        <ele>798.605</ele>
        <time>2022-08-24T08:19:08Z</time>
      </trkpt>
      <trkpt lat="43.10706899999959" lon="-1.2393870000000042">
        <ele>799.009</ele>
        <time>2022-08-24T08:19:09Z</time>
      </trkpt>
      <trkpt lat="43.10705499999959" lon="-1.2393880000000042">
        <ele>799.283</ele>
        <time>2022-08-24T08:19:10Z</time>
      </trkpt>
      <trkpt lat="43.10704299999959" lon="-1.2393880000000042">
        <ele>799.453</ele>
        <time>2022-08-24T08:19:11Z</time>
      </trkpt>
      <trkpt lat="43.107030999999594" lon="-1.239389000000004">
        <ele>799.613</ele>
        <time>2022-08-24T08:19:12Z</time>
      </trkpt>
      <trkpt lat="43.10702599999959" lon="-1.239386000000004">
        <ele>799.869</ele>
        <time>2022-08-24T08:19:13Z</time>
      </trkpt>
      <trkpt lat="43.10701199999959" lon="-1.2393850000000042">
        <ele>799.841</ele>
        <time>2022-08-24T08:19:14Z</time>
      </trkpt>
      <trkpt lat="43.10700099999959" lon="-1.2393850000000042">
        <ele>800.018</ele>
        <time>2022-08-24T08:19:15Z</time>
      </trkpt>
      <trkpt lat="43.10698999999959" lon="-1.2393850000000042">
        <ele>800.061</ele>
        <time>2022-08-24T08:19:16Z</time>
      </trkpt>
      <trkpt lat="43.10697999999959" lon="-1.2393840000000043">
        <ele>800.255</ele>
        <time>2022-08-24T08:19:17Z</time>
      </trkpt>
      <trkpt lat="43.10697399999959" lon="-1.2393850000000042">
        <ele>800.484</ele>
        <time>2022-08-24T08:19:18Z</time>
      </trkpt>
      <trkpt lat="43.10696699999959" lon="-1.2393900000000042">
        <ele>800.843</ele>
        <time>2022-08-24T08:19:19Z</time>
      </trkpt>
      <trkpt lat="43.10695699999959" lon="-1.239394000000004">
        <ele>800.864</ele>
        <time>2022-08-24T08:19:20Z</time>
      </trkpt>
      <trkpt lat="43.106946999999586" lon="-1.239395000000004">
        <ele>800.810</ele>
        <time>2022-08-24T08:19:21Z</time>
      </trkpt>
      <trkpt lat="43.10693399999958" lon="-1.239390000000004">
        <ele>801.009</ele>
        <time>2022-08-24T08:19:22Z</time>
      </trkpt>
      <trkpt lat="43.106921999999585" lon="-1.239387000000004">
        <ele>801.255</ele>
        <time>2022-08-24T08:19:23Z</time>
      </trkpt>
      <trkpt lat="43.10690999999959" lon="-1.239391000000004">
        <ele>801.465</ele>
        <time>2022-08-24T08:19:24Z</time>
      </trkpt>
      <trkpt lat="43.106896999999584" lon="-1.2393970000000039">
        <ele>801.485</ele>
        <time>2022-08-24T08:19:25Z</time>
      </trkpt>
      <trkpt lat="43.10688699999958" lon="-1.239402000000004">
        <ele>801.871</ele>
        <time>2022-08-24T08:19:26Z</time>
      </trkpt>
      <trkpt lat="43.10687699999958" lon="-1.239409000000004">
        <ele>801.853</ele>
        <time>2022-08-24T08:19:27Z</time>
      </trkpt>
      <trkpt lat="43.10686499999958" lon="-1.239415000000004">
        <ele>802.040</ele>
        <time>2022-08-24T08:19:28Z</time>
      </trkpt>
      <trkpt lat="43.10685099999958" lon="-1.239418000000004">
        <ele>802.433</ele>
        <time>2022-08-24T08:19:29Z</time>
      </trkpt>
      <trkpt lat="43.10683699999958" lon="-1.2394210000000039">
        <ele>802.667</ele>
        <time>2022-08-24T08:19:30Z</time>
      </trkpt>
      <trkpt lat="43.10682799999958" lon="-1.239423000000004">
        <ele>803.076</ele>
        <time>2022-08-24T08:19:31Z</time>
      </trkpt>
      <trkpt lat="43.10681799999958" lon="-1.239418000000004">
        <ele>803.235</ele>
        <time>2022-08-24T08:19:32Z</time>
      </trkpt>
      <trkpt lat="43.10680299999958" lon="-1.2394160000000038">
        <ele>803.286</ele>
        <time>2022-08-24T08:19:33Z</time>
      </trkpt>
      <trkpt lat="43.10679099999958" lon="-1.2394160000000038">
        <ele>803.414</ele>
        <time>2022-08-24T08:19:34Z</time>
      </trkpt>
      <trkpt lat="43.10677699999958" lon="-1.2394210000000039">
        <ele>803.609</ele>
        <time>2022-08-24T08:19:35Z</time>
      </trkpt>
      <trkpt lat="43.10676399999958" lon="-1.2394250000000038">
        <ele>803.864</ele>
        <time>2022-08-24T08:19:36Z</time>
      </trkpt>
      <trkpt lat="43.10675299999958" lon="-1.2394320000000039">
        <ele>804.254</ele>
        <time>2022-08-24T08:19:37Z</time>
      </trkpt>
      <trkpt lat="43.106742999999575" lon="-1.2394330000000038">
        <ele>804.264</ele>
        <time>2022-08-24T08:19:38Z</time>
      </trkpt>
      <trkpt lat="43.10673099999958" lon="-1.2394400000000039">
        <ele>804.490</ele>
        <time>2022-08-24T08:19:39Z</time>
      </trkpt>
      <trkpt lat="43.10671999999958" lon="-1.2394460000000038">
        <ele>804.672</ele>
        <time>2022-08-24T08:19:40Z</time>
      </trkpt>
      <trkpt lat="43.10670799999958" lon="-1.2394480000000039">
        <ele>804.629</ele>
        <time>2022-08-24T08:19:41Z</time>
      </trkpt>
      <trkpt lat="43.10669699999958" lon="-1.2394490000000038">
        <ele>804.892</ele>
        <time>2022-08-24T08:19:42Z</time>
      </trkpt>
      <trkpt lat="43.106683999999575" lon="-1.2394530000000037">
        <ele>805.066</ele>
        <time>2022-08-24T08:19:43Z</time>
      </trkpt>
      <trkpt lat="43.10667099999957" lon="-1.2394610000000037">
        <ele>805.445</ele>
        <time>2022-08-24T08:19:44Z</time>
      </trkpt>
      <trkpt lat="43.106658999999574" lon="-1.2394630000000038">
        <ele>805.285</ele>
        <time>2022-08-24T08:19:45Z</time>
      </trkpt>
      <trkpt lat="43.10664599999957" lon="-1.2394670000000036">
        <ele>805.489</ele>
        <time>2022-08-24T08:19:46Z</time>
      </trkpt>
      <trkpt lat="43.10663399999957" lon="-1.2394700000000036">
        <ele>805.617</ele>
        <time>2022-08-24T08:19:47Z</time>
      </trkpt>
      <trkpt lat="43.106624999999575" lon="-1.2394660000000037">
        <ele>805.609</ele>
        <time>2022-08-24T08:19:48Z</time>
      </trkpt>
      <trkpt lat="43.10661199999957" lon="-1.2394620000000038">
        <ele>805.689</ele>
        <time>2022-08-24T08:19:49Z</time>
      </trkpt>
      <trkpt lat="43.106599999999574" lon="-1.2394590000000039">
        <ele>805.859</ele>
        <time>2022-08-24T08:19:50Z</time>
      </trkpt>
      <trkpt lat="43.106587999999576" lon="-1.2394560000000039">
        <ele>806.029</ele>
        <time>2022-08-24T08:19:51Z</time>
      </trkpt>
      <trkpt lat="43.106576999999575" lon="-1.239455000000004">
        <ele>806.035</ele>
        <time>2022-08-24T08:19:52Z</time>
      </trkpt>
      <trkpt lat="43.10656699999957" lon="-1.239443000000004">
        <ele>806.247</ele>
        <time>2022-08-24T08:19:53Z</time>
      </trkpt>
      <trkpt lat="43.10655699999957" lon="-1.239427000000004">
        <ele>806.444</ele>
        <time>2022-08-24T08:19:54Z</time>
      </trkpt>
      <trkpt lat="43.106543999999566" lon="-1.2394150000000042">
        <ele>806.457</ele>
        <time>2022-08-24T08:19:55Z</time>
      </trkpt>
      <trkpt lat="43.10653199999957" lon="-1.2394060000000042">
        <ele>806.691</ele>
        <time>2022-08-24T08:19:56Z</time>
      </trkpt>
      <trkpt lat="43.10652399999957" lon="-1.2393970000000043">
        <ele>806.670</ele>
        <time>2022-08-24T08:19:57Z</time>
      </trkpt>
      <trkpt lat="43.106512999999566" lon="-1.2393870000000042">
        <ele>806.876</ele>
        <time>2022-08-24T08:19:58Z</time>
      </trkpt>
      <trkpt lat="43.10650099999957" lon="-1.2393740000000042">
        <ele>806.890</ele>
        <time>2022-08-24T08:19:59Z</time>
      </trkpt>
      <trkpt lat="43.10649299999957" lon="-1.239359000000004">
        <ele>806.819</ele>
        <time>2022-08-24T08:20:00Z</time>
      </trkpt>
      <trkpt lat="43.10648399999957" lon="-1.2393450000000041">
        <ele>807.009</ele>
        <time>2022-08-24T08:20:01Z</time>
      </trkpt>
      <trkpt lat="43.10647499999957" lon="-1.2393250000000042">
        <ele>807.228</ele>
        <time>2022-08-24T08:20:02Z</time>
      </trkpt>
      <trkpt lat="43.10647199999957" lon="-1.2393150000000042">
        <ele>807.228</ele>
        <time>2022-08-24T08:20:03Z</time>
      </trkpt>
      <trkpt lat="43.10647199999957" lon="-1.239308000000004">
        <ele>807.498</ele>
        <time>2022-08-24T08:20:04Z</time>
      </trkpt>
      <trkpt lat="43.10646999999957" lon="-1.2392910000000041">
        <ele>807.644</ele>
        <time>2022-08-24T08:20:05Z</time>
      </trkpt>
      <trkpt lat="43.10646899999957" lon="-1.239273000000004">
        <ele>808.026</ele>
        <time>2022-08-24T08:20:06Z</time>
      </trkpt>
      <trkpt lat="43.10646399999957" lon="-1.239257000000004">
        <ele>808.223</ele>
        <time>2022-08-24T08:20:07Z</time>
      </trkpt>
      <trkpt lat="43.10645699999957" lon="-1.239242000000004">
        <ele>808.426</ele>
        <time>2022-08-24T08:20:08Z</time>
      </trkpt>
      <trkpt lat="43.106449999999576" lon="-1.239225000000004">
        <ele>808.440</ele>
        <time>2022-08-24T08:20:09Z</time>
      </trkpt>
      <trkpt lat="43.10644399999958" lon="-1.239205000000004">
        <ele>808.639</ele>
        <time>2022-08-24T08:20:10Z</time>
      </trkpt>
      <trkpt lat="43.106435999999576" lon="-1.2391860000000041">
        <ele>808.824</ele>
        <time>2022-08-24T08:20:11Z</time>
      </trkpt>
      <trkpt lat="43.10643699999957" lon="-1.239163000000004">
        <ele>808.804</ele>
        <time>2022-08-24T08:20:12Z</time>
      </trkpt>
      <trkpt lat="43.106441999999575" lon="-1.239141000000004">
        <ele>809.014</ele>
        <time>2022-08-24T08:20:13Z</time>
      </trkpt>
      <trkpt lat="43.10644399999958" lon="-1.239119000000004">
        <ele>809.209</ele>
        <time>2022-08-24T08:20:14Z</time>
      </trkpt>
      <trkpt lat="43.10645099999957" lon="-1.239090000000004">
        <ele>809.243</ele>
        <time>2022-08-24T08:20:15Z</time>
      </trkpt>
      <trkpt lat="43.10645199999957" lon="-1.239065000000004">
        <ele>809.423</ele>
        <time>2022-08-24T08:20:16Z</time>
      </trkpt>
      <trkpt lat="43.10645299999957" lon="-1.239036000000004">
        <ele>809.653</ele>
        <time>2022-08-24T08:20:17Z</time>
      </trkpt>
      <trkpt lat="43.10645299999957" lon="-1.239013000000004">
        <ele>809.689</ele>
        <time>2022-08-24T08:20:18Z</time>
      </trkpt>
      <trkpt lat="43.10644899999957" lon="-1.2389950000000038">
        <ele>809.861</ele>
        <time>2022-08-24T08:20:19Z</time>
      </trkpt>
      <trkpt lat="43.106447999999574" lon="-1.2389730000000039">
        <ele>810.078</ele>
        <time>2022-08-24T08:20:20Z</time>
      </trkpt>
      <trkpt lat="43.10644599999957" lon="-1.238953000000004">
        <ele>810.221</ele>
        <time>2022-08-24T08:20:21Z</time>
      </trkpt>
      <trkpt lat="43.10644299999957" lon="-1.238928000000004">
        <ele>810.475</ele>
        <time>2022-08-24T08:20:22Z</time>
      </trkpt>
      <trkpt lat="43.10644299999957" lon="-1.2389080000000041">
        <ele>810.624</ele>
        <time>2022-08-24T08:20:23Z</time>
      </trkpt>
      <trkpt lat="43.106444999999574" lon="-1.238885000000004">
        <ele>810.842</ele>
        <time>2022-08-24T08:20:24Z</time>
      </trkpt>
      <trkpt lat="43.10644299999957" lon="-1.238866000000004">
        <ele>811.022</ele>
        <time>2022-08-24T08:20:25Z</time>
      </trkpt>
      <trkpt lat="43.106441999999575" lon="-1.238845000000004">
        <ele>811.014</ele>
        <time>2022-08-24T08:20:26Z</time>
      </trkpt>
      <trkpt lat="43.106438999999575" lon="-1.2388300000000039">
        <ele>811.209</ele>
        <time>2022-08-24T08:20:27Z</time>
      </trkpt>
      <trkpt lat="43.10643799999958" lon="-1.238805000000004">
        <ele>811.475</ele>
        <time>2022-08-24T08:20:28Z</time>
      </trkpt>
      <trkpt lat="43.10643999999958" lon="-1.238781000000004">
        <ele>811.625</ele>
        <time>2022-08-24T08:20:29Z</time>
      </trkpt>
      <trkpt lat="43.10644099999958" lon="-1.238756000000004">
        <ele>812.045</ele>
        <time>2022-08-24T08:20:30Z</time>
      </trkpt>
      <trkpt lat="43.10643799999958" lon="-1.238735000000004">
        <ele>812.051</ele>
        <time>2022-08-24T08:20:31Z</time>
      </trkpt>
      <trkpt lat="43.106435999999576" lon="-1.238715000000004">
        <ele>812.243</ele>
        <time>2022-08-24T08:20:32Z</time>
      </trkpt>
      <trkpt lat="43.106435999999576" lon="-1.238692000000004">
        <ele>812.280</ele>
        <time>2022-08-24T08:20:33Z</time>
      </trkpt>
      <trkpt lat="43.106432999999576" lon="-1.2386690000000038">
        <ele>812.453</ele>
        <time>2022-08-24T08:20:34Z</time>
      </trkpt>
      <trkpt lat="43.10642899999958" lon="-1.2386480000000037">
        <ele>812.647</ele>
        <time>2022-08-24T08:20:35Z</time>
      </trkpt>
      <trkpt lat="43.10642499999958" lon="-1.2386270000000037">
        <ele>812.876</ele>
        <time>2022-08-24T08:20:36Z</time>
      </trkpt>
      <trkpt lat="43.106420999999585" lon="-1.2386030000000037">
        <ele>812.859</ele>
        <time>2022-08-24T08:20:37Z</time>
      </trkpt>
      <trkpt lat="43.10641699999959" lon="-1.2385780000000037">
        <ele>813.003</ele>
        <time>2022-08-24T08:20:38Z</time>
      </trkpt>
      <trkpt lat="43.10641199999959" lon="-1.2385580000000038">
        <ele>813.023</ele>
        <time>2022-08-24T08:20:39Z</time>
      </trkpt>
      <trkpt lat="43.10641099999959" lon="-1.2385350000000037">
        <ele>813.009</ele>
        <time>2022-08-24T08:20:40Z</time>
      </trkpt>
      <trkpt lat="43.10640399999959" lon="-1.2385160000000037">
        <ele>813.216</ele>
        <time>2022-08-24T08:20:41Z</time>
      </trkpt>
      <trkpt lat="43.106402999999595" lon="-1.2384930000000036">
        <ele>813.446</ele>
        <time>2022-08-24T08:20:42Z</time>
      </trkpt>
      <trkpt lat="43.1064019999996" lon="-1.2384710000000037">
        <ele>813.446</ele>
        <time>2022-08-24T08:20:43Z</time>
      </trkpt>
      <trkpt lat="43.1064019999996" lon="-1.2384440000000037">
        <ele>813.842</ele>
        <time>2022-08-24T08:20:44Z</time>
      </trkpt>
      <trkpt lat="43.1063979999996" lon="-1.2384250000000037">
        <ele>814.284</ele>
        <time>2022-08-24T08:20:45Z</time>
      </trkpt>
      <trkpt lat="43.1063919999996" lon="-1.2384050000000038">
        <ele>814.461</ele>
        <time>2022-08-24T08:20:46Z</time>
      </trkpt>
      <trkpt lat="43.1063929999996" lon="-1.2383870000000037">
        <ele>814.674</ele>
        <time>2022-08-24T08:20:47Z</time>
      </trkpt>
      <trkpt lat="43.1063919999996" lon="-1.2383650000000037">
        <ele>814.648</ele>
        <time>2022-08-24T08:20:48Z</time>
      </trkpt>
      <trkpt lat="43.106390999999604" lon="-1.2383430000000037">
        <ele>814.867</ele>
        <time>2022-08-24T08:20:49Z</time>
      </trkpt>
      <trkpt lat="43.10638699999961" lon="-1.2383180000000038">
        <ele>814.891</ele>
        <time>2022-08-24T08:20:50Z</time>
      </trkpt>
      <trkpt lat="43.10638399999961" lon="-1.2382960000000038">
        <ele>815.081</ele>
        <time>2022-08-24T08:20:51Z</time>
      </trkpt>
      <trkpt lat="43.10638099999961" lon="-1.238279000000004">
        <ele>815.019</ele>
        <time>2022-08-24T08:20:52Z</time>
      </trkpt>
      <trkpt lat="43.10637799999961" lon="-1.238257000000004">
        <ele>815.209</ele>
        <time>2022-08-24T08:20:53Z</time>
      </trkpt>
      <trkpt lat="43.10637299999961" lon="-1.238236000000004">
        <ele>815.230</ele>
        <time>2022-08-24T08:20:54Z</time>
      </trkpt>
      <trkpt lat="43.10636899999961" lon="-1.238216000000004">
        <ele>815.460</ele>
        <time>2022-08-24T08:20:55Z</time>
      </trkpt>
      <trkpt lat="43.10636199999961" lon="-1.2381930000000039">
        <ele>815.430</ele>
        <time>2022-08-24T08:20:56Z</time>
      </trkpt>
      <trkpt lat="43.10636299999961" lon="-1.2381740000000039">
        <ele>815.656</ele>
        <time>2022-08-24T08:20:57Z</time>
      </trkpt>
      <trkpt lat="43.10635399999961" lon="-1.2381560000000038">
        <ele>815.828</ele>
        <time>2022-08-24T08:20:58Z</time>
      </trkpt>
      <trkpt lat="43.10634399999961" lon="-1.2381400000000038">
        <ele>816.095</ele>
        <time>2022-08-24T08:20:59Z</time>
      </trkpt>
      <trkpt lat="43.10633499999961" lon="-1.2381170000000037">
        <ele>816.298</ele>
        <time>2022-08-24T08:21:00Z</time>
      </trkpt>
      <trkpt lat="43.10632899999961" lon="-1.2380950000000037">
        <ele>816.482</ele>
        <time>2022-08-24T08:21:01Z</time>
      </trkpt>
      <trkpt lat="43.10632099999961" lon="-1.2380770000000036">
        <ele>816.461</ele>
        <time>2022-08-24T08:21:02Z</time>
      </trkpt>
      <trkpt lat="43.106313999999614" lon="-1.2380670000000036">
        <ele>816.452</ele>
        <time>2022-08-24T08:21:03Z</time>
      </trkpt>
      <trkpt lat="43.106301999999616" lon="-1.2380540000000035">
        <ele>816.653</ele>
        <time>2022-08-24T08:21:04Z</time>
      </trkpt>
      <trkpt lat="43.106287999999616" lon="-1.2380440000000035">
        <ele>816.608</ele>
        <time>2022-08-24T08:21:05Z</time>
      </trkpt>
      <trkpt lat="43.10627199999961" lon="-1.2380280000000035">
        <ele>817.009</ele>
        <time>2022-08-24T08:21:06Z</time>
      </trkpt>
      <trkpt lat="43.10625899999961" lon="-1.2380140000000035">
        <ele>817.026</ele>
        <time>2022-08-24T08:21:07Z</time>
      </trkpt>
      <trkpt lat="43.10624999999961" lon="-1.2380040000000034">
        <ele>817.446</ele>
        <time>2022-08-24T08:21:08Z</time>
      </trkpt>
      <trkpt lat="43.106234999999614" lon="-1.2379920000000035">
        <ele>817.676</ele>
        <time>2022-08-24T08:21:09Z</time>
      </trkpt>
      <trkpt lat="43.10621599999961" lon="-1.2379810000000036">
        <ele>817.662</ele>
        <time>2022-08-24T08:21:10Z</time>
      </trkpt>
      <trkpt lat="43.106200999999615" lon="-1.2379730000000035">
        <ele>817.824</ele>
        <time>2022-08-24T08:21:11Z</time>
      </trkpt>
      <trkpt lat="43.10618799999961" lon="-1.2379660000000035">
        <ele>817.851</ele>
        <time>2022-08-24T08:21:12Z</time>
      </trkpt>
      <trkpt lat="43.10617799999961" lon="-1.2379600000000035">
        <ele>818.064</ele>
        <time>2022-08-24T08:21:13Z</time>
      </trkpt>
      <trkpt lat="43.10616299999961" lon="-1.2379560000000036">
        <ele>818.218</ele>
        <time>2022-08-24T08:21:14Z</time>
      </trkpt>
      <trkpt lat="43.10614899999961" lon="-1.2379500000000037">
        <ele>818.417</ele>
        <time>2022-08-24T08:21:15Z</time>
      </trkpt>
      <trkpt lat="43.10613299999961" lon="-1.2379400000000036">
        <ele>818.875</ele>
        <time>2022-08-24T08:21:16Z</time>
      </trkpt>
      <trkpt lat="43.10612099999961" lon="-1.2379310000000037">
        <ele>818.828</ele>
        <time>2022-08-24T08:21:17Z</time>
      </trkpt>
      <trkpt lat="43.10610699999961" lon="-1.2379220000000037">
        <ele>819.020</ele>
        <time>2022-08-24T08:21:18Z</time>
      </trkpt>
      <trkpt lat="43.10608999999961" lon="-1.2379160000000038">
        <ele>819.209</ele>
        <time>2022-08-24T08:21:19Z</time>
      </trkpt>
      <trkpt lat="43.10607499999961" lon="-1.2379140000000037">
        <ele>819.438</ele>
        <time>2022-08-24T08:21:20Z</time>
      </trkpt>
      <trkpt lat="43.10606099999961" lon="-1.2379100000000038">
        <ele>819.668</ele>
        <time>2022-08-24T08:21:21Z</time>
      </trkpt>
      <trkpt lat="43.10604499999961" lon="-1.237906000000004">
        <ele>819.858</ele>
        <time>2022-08-24T08:21:22Z</time>
      </trkpt>
      <trkpt lat="43.10603499999961" lon="-1.237903000000004">
        <ele>820.084</ele>
        <time>2022-08-24T08:21:23Z</time>
      </trkpt>
      <trkpt lat="43.10602299999961" lon="-1.237899000000004">
        <ele>820.046</ele>
        <time>2022-08-24T08:21:24Z</time>
      </trkpt>
      <trkpt lat="43.10600899999961" lon="-1.237896000000004">
        <ele>820.483</ele>
        <time>2022-08-24T08:21:25Z</time>
      </trkpt>
      <trkpt lat="43.10599299999961" lon="-1.2378950000000042">
        <ele>820.696</ele>
        <time>2022-08-24T08:21:26Z</time>
      </trkpt>
      <trkpt lat="43.105979999999605" lon="-1.237896000000004">
        <ele>820.630</ele>
        <time>2022-08-24T08:21:27Z</time>
      </trkpt>
      <trkpt lat="43.1059699999996" lon="-1.2378920000000042">
        <ele>821.029</ele>
        <time>2022-08-24T08:21:28Z</time>
      </trkpt>
      <trkpt lat="43.1059569999996" lon="-1.2378900000000042">
        <ele>821.298</ele>
        <time>2022-08-24T08:21:29Z</time>
      </trkpt>
      <trkpt lat="43.105943999999596" lon="-1.237891000000004">
        <ele>821.215</ele>
        <time>2022-08-24T08:21:30Z</time>
      </trkpt>
      <trkpt lat="43.1059289999996" lon="-1.2378930000000041">
        <ele>821.626</ele>
        <time>2022-08-24T08:21:31Z</time>
      </trkpt>
      <trkpt lat="43.105915999999596" lon="-1.2378920000000042">
        <ele>821.809</ele>
        <time>2022-08-24T08:21:32Z</time>
      </trkpt>
      <trkpt lat="43.105901999999595" lon="-1.2378910000000043">
        <ele>822.050</ele>
        <time>2022-08-24T08:21:33Z</time>
      </trkpt>
      <trkpt lat="43.105890999999595" lon="-1.2378890000000042">
        <ele>822.050</ele>
        <time>2022-08-24T08:21:34Z</time>
      </trkpt>
      <trkpt lat="43.10587199999959" lon="-1.2378890000000042">
        <ele>822.280</ele>
        <time>2022-08-24T08:21:35Z</time>
      </trkpt>
      <trkpt lat="43.10586199999959" lon="-1.2378920000000042">
        <ele>822.236</ele>
        <time>2022-08-24T08:21:36Z</time>
      </trkpt>
      <trkpt lat="43.10584199999959" lon="-1.2378980000000042">
        <ele>822.428</ele>
        <time>2022-08-24T08:21:37Z</time>
      </trkpt>
      <trkpt lat="43.10582599999959" lon="-1.237899000000004">
        <ele>822.675</ele>
        <time>2022-08-24T08:21:38Z</time>
      </trkpt>
      <trkpt lat="43.10581399999959" lon="-1.237899000000004">
        <ele>822.688</ele>
        <time>2022-08-24T08:21:39Z</time>
      </trkpt>
      <trkpt lat="43.10580199999959" lon="-1.237899000000004">
        <ele>822.862</ele>
        <time>2022-08-24T08:21:40Z</time>
      </trkpt>
      <trkpt lat="43.10578899999959" lon="-1.237903000000004">
        <ele>823.031</ele>
        <time>2022-08-24T08:21:41Z</time>
      </trkpt>
      <trkpt lat="43.10577199999959" lon="-1.237906000000004">
        <ele>823.481</ele>
        <time>2022-08-24T08:21:42Z</time>
      </trkpt>
      <trkpt lat="43.10575899999959" lon="-1.237909000000004">
        <ele>823.661</ele>
        <time>2022-08-24T08:21:43Z</time>
      </trkpt>
      <trkpt lat="43.10574699999959" lon="-1.2379100000000038">
        <ele>823.817</ele>
        <time>2022-08-24T08:21:44Z</time>
      </trkpt>
      <trkpt lat="43.10573299999959" lon="-1.2379140000000037">
        <ele>824.009</ele>
        <time>2022-08-24T08:21:45Z</time>
      </trkpt>
      <trkpt lat="43.10571899999959" lon="-1.2379190000000038">
        <ele>824.029</ele>
        <time>2022-08-24T08:21:46Z</time>
      </trkpt>
      <trkpt lat="43.10569999999959" lon="-1.2379270000000038">
        <ele>824.269</ele>
        <time>2022-08-24T08:21:47Z</time>
      </trkpt>
      <trkpt lat="43.10568499999959" lon="-1.2379340000000039">
        <ele>824.619</ele>
        <time>2022-08-24T08:21:48Z</time>
      </trkpt>
      <trkpt lat="43.10567099999959" lon="-1.237939000000004">
        <ele>824.675</ele>
        <time>2022-08-24T08:21:49Z</time>
      </trkpt>
      <trkpt lat="43.10565899999959" lon="-1.2379450000000038">
        <ele>824.817</ele>
        <time>2022-08-24T08:21:50Z</time>
      </trkpt>
      <trkpt lat="43.10564899999959" lon="-1.2379500000000039">
        <ele>825.074</ele>
        <time>2022-08-24T08:21:51Z</time>
      </trkpt>
      <trkpt lat="43.10563499999959" lon="-1.2379560000000038">
        <ele>825.227</ele>
        <time>2022-08-24T08:21:52Z</time>
      </trkpt>
      <trkpt lat="43.10562099999959" lon="-1.2379620000000038">
        <ele>825.251</ele>
        <time>2022-08-24T08:21:53Z</time>
      </trkpt>
      <trkpt lat="43.105607999999584" lon="-1.2379700000000038">
        <ele>825.460</ele>
        <time>2022-08-24T08:21:54Z</time>
      </trkpt>
      <trkpt lat="43.105596999999584" lon="-1.2379760000000037">
        <ele>825.612</ele>
        <time>2022-08-24T08:21:55Z</time>
      </trkpt>
      <trkpt lat="43.10558399999958" lon="-1.2379820000000037">
        <ele>825.632</ele>
        <time>2022-08-24T08:21:56Z</time>
      </trkpt>
      <trkpt lat="43.10557199999958" lon="-1.2379910000000036">
        <ele>825.805</ele>
        <time>2022-08-24T08:21:57Z</time>
      </trkpt>
      <trkpt lat="43.10555799999958" lon="-1.2380060000000037">
        <ele>825.809</ele>
        <time>2022-08-24T08:21:58Z</time>
      </trkpt>
      <trkpt lat="43.10554699999958" lon="-1.2380170000000037">
        <ele>826.272</ele>
        <time>2022-08-24T08:21:59Z</time>
      </trkpt>
      <trkpt lat="43.10554099999958" lon="-1.2380240000000038">
        <ele>826.432</ele>
        <time>2022-08-24T08:22:00Z</time>
      </trkpt>
      <trkpt lat="43.10552799999958" lon="-1.2380350000000038">
        <ele>826.642</ele>
        <time>2022-08-24T08:22:01Z</time>
      </trkpt>
      <trkpt lat="43.10551699999958" lon="-1.2380430000000038">
        <ele>826.898</ele>
        <time>2022-08-24T08:22:02Z</time>
      </trkpt>
      <trkpt lat="43.10550399999958" lon="-1.2380550000000037">
        <ele>827.020</ele>
        <time>2022-08-24T08:22:03Z</time>
      </trkpt>
      <trkpt lat="43.105493999999574" lon="-1.2380650000000037">
        <ele>827.257</ele>
        <time>2022-08-24T08:22:04Z</time>
      </trkpt>
      <trkpt lat="43.105481999999576" lon="-1.2380750000000038">
        <ele>827.440</ele>
        <time>2022-08-24T08:22:05Z</time>
      </trkpt>
      <trkpt lat="43.10547199999957" lon="-1.2380840000000037">
        <ele>827.684</ele>
        <time>2022-08-24T08:22:06Z</time>
      </trkpt>
      <trkpt lat="43.10545899999957" lon="-1.2380950000000037">
        <ele>827.863</ele>
        <time>2022-08-24T08:22:07Z</time>
      </trkpt>
      <trkpt lat="43.10544699999957" lon="-1.2381100000000038">
        <ele>828.086</ele>
        <time>2022-08-24T08:22:08Z</time>
      </trkpt>
      <trkpt lat="43.10543599999957" lon="-1.2381200000000039">
        <ele>828.260</ele>
        <time>2022-08-24T08:22:09Z</time>
      </trkpt>
      <trkpt lat="43.10542599999957" lon="-1.2381310000000039">
        <ele>828.226</ele>
        <time>2022-08-24T08:22:10Z</time>
      </trkpt>
      <trkpt lat="43.10541499999957" lon="-1.238141000000004">
        <ele>828.409</ele>
        <time>2022-08-24T08:22:11Z</time>
      </trkpt>
      <trkpt lat="43.10540399999957" lon="-1.2381530000000038">
        <ele>828.459</ele>
        <time>2022-08-24T08:22:12Z</time>
      </trkpt>
      <trkpt lat="43.105392999999566" lon="-1.2381650000000037">
        <ele>828.489</ele>
        <time>2022-08-24T08:22:13Z</time>
      </trkpt>
      <trkpt lat="43.10537999999956" lon="-1.2381780000000038">
        <ele>828.699</ele>
        <time>2022-08-24T08:22:14Z</time>
      </trkpt>
      <trkpt lat="43.10537199999956" lon="-1.2381850000000039">
        <ele>828.885</ele>
        <time>2022-08-24T08:22:15Z</time>
      </trkpt>
      <trkpt lat="43.10536099999956" lon="-1.2381990000000038">
        <ele>828.847</ele>
        <time>2022-08-24T08:22:16Z</time>
      </trkpt>
      <trkpt lat="43.10534999999956" lon="-1.238214000000004">
        <ele>829.094</ele>
        <time>2022-08-24T08:22:17Z</time>
      </trkpt>
      <trkpt lat="43.10533699999956" lon="-1.238227000000004">
        <ele>829.057</ele>
        <time>2022-08-24T08:22:18Z</time>
      </trkpt>
      <trkpt lat="43.10532299999956" lon="-1.238242000000004">
        <ele>829.241</ele>
        <time>2022-08-24T08:22:19Z</time>
      </trkpt>
      <trkpt lat="43.10531099999956" lon="-1.238254000000004">
        <ele>829.280</ele>
        <time>2022-08-24T08:22:20Z</time>
      </trkpt>
      <trkpt lat="43.10530099999956" lon="-1.238268000000004">
        <ele>829.472</ele>
        <time>2022-08-24T08:22:21Z</time>
      </trkpt>
      <trkpt lat="43.10529399999956" lon="-1.238279000000004">
        <ele>829.613</ele>
        <time>2022-08-24T08:22:22Z</time>
      </trkpt>
      <trkpt lat="43.10528299999956" lon="-1.2382910000000038">
        <ele>829.814</ele>
        <time>2022-08-24T08:22:23Z</time>
      </trkpt>
      <trkpt lat="43.10526899999956" lon="-1.2383070000000038">
        <ele>829.809</ele>
        <time>2022-08-24T08:22:24Z</time>
      </trkpt>
      <trkpt lat="43.10525599999956" lon="-1.2383200000000039">
        <ele>829.828</ele>
        <time>2022-08-24T08:22:25Z</time>
      </trkpt>
      <trkpt lat="43.105244999999556" lon="-1.2383310000000038">
        <ele>830.228</ele>
        <time>2022-08-24T08:22:26Z</time>
      </trkpt>
      <trkpt lat="43.10523599999956" lon="-1.2383420000000038">
        <ele>830.228</ele>
        <time>2022-08-24T08:22:27Z</time>
      </trkpt>
      <trkpt lat="43.10522399999956" lon="-1.2383560000000038">
        <ele>830.494</ele>
        <time>2022-08-24T08:22:28Z</time>
      </trkpt>
      <trkpt lat="43.10520899999956" lon="-1.2383740000000039">
        <ele>830.636</ele>
        <time>2022-08-24T08:22:29Z</time>
      </trkpt>
      <trkpt lat="43.10519499999956" lon="-1.2383880000000038">
        <ele>830.883</ele>
        <time>2022-08-24T08:22:30Z</time>
      </trkpt>
      <trkpt lat="43.10518199999956" lon="-1.2384010000000039">
        <ele>830.826</ele>
        <time>2022-08-24T08:22:31Z</time>
      </trkpt>
      <trkpt lat="43.10517099999956" lon="-1.2384150000000038">
        <ele>830.820</ele>
        <time>2022-08-24T08:22:32Z</time>
      </trkpt>
      <trkpt lat="43.10516299999956" lon="-1.2384240000000037">
        <ele>830.869</ele>
        <time>2022-08-24T08:22:33Z</time>
      </trkpt>
      <trkpt lat="43.105152999999554" lon="-1.2384370000000038">
        <ele>831.055</ele>
        <time>2022-08-24T08:22:34Z</time>
      </trkpt>
      <trkpt lat="43.105140999999556" lon="-1.2384520000000039">
        <ele>831.007</ele>
        <time>2022-08-24T08:22:35Z</time>
      </trkpt>
      <trkpt lat="43.10513099999955" lon="-1.238465000000004">
        <ele>831.217</ele>
        <time>2022-08-24T08:22:36Z</time>
      </trkpt>
      <trkpt lat="43.10511999999955" lon="-1.238478000000004">
        <ele>831.409</ele>
        <time>2022-08-24T08:22:37Z</time>
      </trkpt>
      <trkpt lat="43.10510899999955" lon="-1.238488000000004">
        <ele>831.476</ele>
        <time>2022-08-24T08:22:38Z</time>
      </trkpt>
      <trkpt lat="43.10509599999955" lon="-1.238500000000004">
        <ele>831.426</ele>
        <time>2022-08-24T08:22:39Z</time>
      </trkpt>
      <trkpt lat="43.10508199999955" lon="-1.2385120000000038">
        <ele>831.626</ele>
        <time>2022-08-24T08:22:40Z</time>
      </trkpt>
      <trkpt lat="43.10506699999955" lon="-1.2385280000000038">
        <ele>831.822</ele>
        <time>2022-08-24T08:22:41Z</time>
      </trkpt>
      <trkpt lat="43.10505799999955" lon="-1.238538000000004">
        <ele>831.884</ele>
        <time>2022-08-24T08:22:42Z</time>
      </trkpt>
      <trkpt lat="43.105045999999554" lon="-1.238551000000004">
        <ele>832.011</ele>
        <time>2022-08-24T08:22:43Z</time>
      </trkpt>
      <trkpt lat="43.10503299999955" lon="-1.2385630000000039">
        <ele>832.074</ele>
        <time>2022-08-24T08:22:44Z</time>
      </trkpt>
      <trkpt lat="43.10502399999955" lon="-1.2385770000000038">
        <ele>832.498</ele>
        <time>2022-08-24T08:22:45Z</time>
      </trkpt>
      <trkpt lat="43.10501099999955" lon="-1.2385970000000037">
        <ele>832.657</ele>
        <time>2022-08-24T08:22:46Z</time>
      </trkpt>
      <trkpt lat="43.10500099999955" lon="-1.2386130000000037">
        <ele>832.634</ele>
        <time>2022-08-24T08:22:47Z</time>
      </trkpt>
      <trkpt lat="43.10498699999955" lon="-1.2386280000000038">
        <ele>832.655</ele>
        <time>2022-08-24T08:22:48Z</time>
      </trkpt>
      <trkpt lat="43.10497699999954" lon="-1.238638000000004">
        <ele>832.810</ele>
        <time>2022-08-24T08:22:49Z</time>
      </trkpt>
      <trkpt lat="43.104964999999545" lon="-1.238651000000004">
        <ele>832.809</ele>
        <time>2022-08-24T08:22:50Z</time>
      </trkpt>
      <trkpt lat="43.104947999999546" lon="-1.238669000000004">
        <ele>832.834</ele>
        <time>2022-08-24T08:22:51Z</time>
      </trkpt>
      <trkpt lat="43.10493799999954" lon="-1.238683000000004">
        <ele>833.244</ele>
        <time>2022-08-24T08:22:52Z</time>
      </trkpt>
      <trkpt lat="43.10492399999954" lon="-1.238700000000004">
        <ele>833.294</ele>
        <time>2022-08-24T08:22:53Z</time>
      </trkpt>
      <trkpt lat="43.10491099999954" lon="-1.2387120000000038">
        <ele>833.450</ele>
        <time>2022-08-24T08:22:54Z</time>
      </trkpt>
      <trkpt lat="43.10489699999954" lon="-1.2387280000000038">
        <ele>833.462</ele>
        <time>2022-08-24T08:22:55Z</time>
      </trkpt>
      <trkpt lat="43.10487899999954" lon="-1.238746000000004">
        <ele>833.649</ele>
        <time>2022-08-24T08:22:56Z</time>
      </trkpt>
      <trkpt lat="43.10486499999954" lon="-1.2387630000000038">
        <ele>833.642</ele>
        <time>2022-08-24T08:22:57Z</time>
      </trkpt>
      <trkpt lat="43.10485199999954" lon="-1.2387800000000038">
        <ele>833.856</ele>
        <time>2022-08-24T08:22:58Z</time>
      </trkpt>
      <trkpt lat="43.10483799999954" lon="-1.2387970000000037">
        <ele>834.075</ele>
        <time>2022-08-24T08:22:59Z</time>
      </trkpt>
      <trkpt lat="43.10482099999954" lon="-1.2388140000000036">
        <ele>834.234</ele>
        <time>2022-08-24T08:23:00Z</time>
      </trkpt>
      <trkpt lat="43.10480499999954" lon="-1.2388300000000037">
        <ele>834.255</ele>
        <time>2022-08-24T08:23:01Z</time>
      </trkpt>
      <trkpt lat="43.10479099999954" lon="-1.2388460000000037">
        <ele>834.410</ele>
        <time>2022-08-24T08:23:02Z</time>
      </trkpt>
      <trkpt lat="43.104777999999534" lon="-1.2388630000000036">
        <ele>834.609</ele>
        <time>2022-08-24T08:23:03Z</time>
      </trkpt>
      <trkpt lat="43.104763999999534" lon="-1.2388810000000037">
        <ele>834.614</ele>
        <time>2022-08-24T08:23:04Z</time>
      </trkpt>
      <trkpt lat="43.10474799999953" lon="-1.2388990000000037">
        <ele>834.684</ele>
        <time>2022-08-24T08:23:05Z</time>
      </trkpt>
      <trkpt lat="43.10473099999953" lon="-1.2389140000000038">
        <ele>834.844</ele>
        <time>2022-08-24T08:23:06Z</time>
      </trkpt>
      <trkpt lat="43.10471699999953" lon="-1.238929000000004">
        <ele>834.880</ele>
        <time>2022-08-24T08:23:07Z</time>
      </trkpt>
      <trkpt lat="43.104704999999534" lon="-1.238944000000004">
        <ele>834.892</ele>
        <time>2022-08-24T08:23:08Z</time>
      </trkpt>
      <trkpt lat="43.104689999999536" lon="-1.2389590000000041">
        <ele>835.089</ele>
        <time>2022-08-24T08:23:09Z</time>
      </trkpt>
      <trkpt lat="43.104678999999535" lon="-1.2389750000000042">
        <ele>835.052</ele>
        <time>2022-08-24T08:23:10Z</time>
      </trkpt>
      <trkpt lat="43.104664999999535" lon="-1.2389910000000042">
        <ele>835.076</ele>
        <time>2022-08-24T08:23:11Z</time>
      </trkpt>
      <trkpt lat="43.10464999999954" lon="-1.2390060000000043">
        <ele>835.485</ele>
        <time>2022-08-24T08:23:12Z</time>
      </trkpt>
      <trkpt lat="43.104633999999535" lon="-1.2390250000000043">
        <ele>835.436</ele>
        <time>2022-08-24T08:23:13Z</time>
      </trkpt>
      <trkpt lat="43.10462199999954" lon="-1.2390420000000042">
        <ele>835.617</ele>
        <time>2022-08-24T08:23:14Z</time>
      </trkpt>
      <trkpt lat="43.104608999999535" lon="-1.2390590000000041">
        <ele>835.618</ele>
        <time>2022-08-24T08:23:15Z</time>
      </trkpt>
      <trkpt lat="43.104597999999534" lon="-1.2390750000000041">
        <ele>835.609</ele>
        <time>2022-08-24T08:23:16Z</time>
      </trkpt>
      <trkpt lat="43.104582999999536" lon="-1.239092000000004">
        <ele>835.874</ele>
        <time>2022-08-24T08:23:17Z</time>
      </trkpt>
      <trkpt lat="43.104566999999534" lon="-1.239108000000004">
        <ele>835.814</ele>
        <time>2022-08-24T08:23:18Z</time>
      </trkpt>
      <trkpt lat="43.104551999999536" lon="-1.239122000000004">
        <ele>836.054</ele>
        <time>2022-08-24T08:23:19Z</time>
      </trkpt>
      <trkpt lat="43.104535999999534" lon="-1.239138000000004">
        <ele>836.040</ele>
        <time>2022-08-24T08:23:20Z</time>
      </trkpt>
      <trkpt lat="43.10452299999953" lon="-1.239157000000004">
        <ele>836.022</ele>
        <time>2022-08-24T08:23:21Z</time>
      </trkpt>
      <trkpt lat="43.10450999999953" lon="-1.239177000000004">
        <ele>836.279</ele>
        <time>2022-08-24T08:23:22Z</time>
      </trkpt>
      <trkpt lat="43.10449799999953" lon="-1.239195000000004">
        <ele>836.232</ele>
        <time>2022-08-24T08:23:23Z</time>
      </trkpt>
      <trkpt lat="43.10448399999953" lon="-1.239214000000004">
        <ele>836.486</ele>
        <time>2022-08-24T08:23:24Z</time>
      </trkpt>
      <trkpt lat="43.10446899999953" lon="-1.239233000000004">
        <ele>836.465</ele>
        <time>2022-08-24T08:23:25Z</time>
      </trkpt>
      <trkpt lat="43.10443599999953" lon="-1.239274000000004">
        <ele>836.677</ele>
        <time>2022-08-24T08:23:27Z</time>
      </trkpt>
      <trkpt lat="43.10434399999953" lon="-1.239374000000004">
        <ele>836.861</ele>
        <time>2022-08-24T08:23:32Z</time>
      </trkpt>
      <trkpt lat="43.10432499999953" lon="-1.239393000000004">
        <ele>836.827</ele>
        <time>2022-08-24T08:23:33Z</time>
      </trkpt>
      <trkpt lat="43.104201999999525" lon="-1.239508000000004">
        <ele>837.209</ele>
        <time>2022-08-24T08:23:39Z</time>
      </trkpt>
      <trkpt lat="43.10418099999953" lon="-1.239524000000004">
        <ele>837.278</ele>
        <time>2022-08-24T08:23:40Z</time>
      </trkpt>
      <trkpt lat="43.10415999999953" lon="-1.239537000000004">
        <ele>837.238</ele>
        <time>2022-08-24T08:23:41Z</time>
      </trkpt>
      <trkpt lat="43.104141999999534" lon="-1.2395500000000041">
        <ele>837.248</ele>
        <time>2022-08-24T08:23:42Z</time>
      </trkpt>
      <trkpt lat="43.104051999999534" lon="-1.2396200000000042">
        <ele>837.294</ele>
        <time>2022-08-24T08:23:46Z</time>
      </trkpt>
      <trkpt lat="43.104031999999535" lon="-1.2396390000000042">
        <ele>837.256</ele>
        <time>2022-08-24T08:23:47Z</time>
      </trkpt>
      <trkpt lat="43.104011999999535" lon="-1.2396540000000043">
        <ele>837.423</ele>
        <time>2022-08-24T08:23:48Z</time>
      </trkpt>
      <trkpt lat="43.10399099999954" lon="-1.2396680000000042">
        <ele>837.446</ele>
        <time>2022-08-24T08:23:49Z</time>
      </trkpt>
      <trkpt lat="43.10397099999954" lon="-1.2396830000000043">
        <ele>837.840</ele>
        <time>2022-08-24T08:23:50Z</time>
      </trkpt>
      <trkpt lat="43.10394999999954" lon="-1.2396940000000043">
        <ele>837.679</ele>
        <time>2022-08-24T08:23:51Z</time>
      </trkpt>
      <trkpt lat="43.10392799999954" lon="-1.2397060000000042">
        <ele>837.612</ele>
        <time>2022-08-24T08:23:52Z</time>
      </trkpt>
      <trkpt lat="43.103906999999545" lon="-1.2397210000000043">
        <ele>837.832</ele>
        <time>2022-08-24T08:23:53Z</time>
      </trkpt>
      <trkpt lat="43.10382899999954" lon="-1.2397690000000043">
        <ele>838.005</ele>
        <time>2022-08-24T08:23:57Z</time>
      </trkpt>
      <trkpt lat="43.10380899999954" lon="-1.2397800000000043">
        <ele>838.209</ele>
        <time>2022-08-24T08:23:58Z</time>
      </trkpt>
      <trkpt lat="43.10378799999955" lon="-1.2397900000000044">
        <ele>838.292</ele>
        <time>2022-08-24T08:23:59Z</time>
      </trkpt>
      <trkpt lat="43.10377099999955" lon="-1.2397990000000043">
        <ele>838.472</ele>
        <time>2022-08-24T08:24:00Z</time>
      </trkpt>
      <trkpt lat="43.10372599999955" lon="-1.2398200000000044">
        <ele>838.442</ele>
        <time>2022-08-24T08:24:02Z</time>
      </trkpt>
      <trkpt lat="43.10368599999955" lon="-1.2398370000000043">
        <ele>838.658</ele>
        <time>2022-08-24T08:24:04Z</time>
      </trkpt>
      <trkpt lat="43.10366399999955" lon="-1.2398460000000042">
        <ele>838.860</ele>
        <time>2022-08-24T08:24:05Z</time>
      </trkpt>
      <trkpt lat="43.10364299999955" lon="-1.2398530000000043">
        <ele>838.887</ele>
        <time>2022-08-24T08:24:06Z</time>
      </trkpt>
      <trkpt lat="43.10362099999955" lon="-1.2398610000000043">
        <ele>839.060</ele>
        <time>2022-08-24T08:24:07Z</time>
      </trkpt>
      <trkpt lat="43.10360099999955" lon="-1.2398680000000044">
        <ele>839.094</ele>
        <time>2022-08-24T08:24:08Z</time>
      </trkpt>
      <trkpt lat="43.10358199999955" lon="-1.2398740000000044">
        <ele>839.273</ele>
        <time>2022-08-24T08:24:09Z</time>
      </trkpt>
      <trkpt lat="43.103548999999546" lon="-1.2398790000000044">
        <ele>839.454</ele>
        <time>2022-08-24T08:24:10Z</time>
      </trkpt>
      <trkpt lat="43.10349799999955" lon="-1.2398820000000044">
        <ele>839.456</ele>
        <time>2022-08-24T08:24:12Z</time>
      </trkpt>
      <trkpt lat="43.10347999999955" lon="-1.2398870000000044">
        <ele>839.611</ele>
        <time>2022-08-24T08:24:13Z</time>
      </trkpt>
      <trkpt lat="43.10346599999955" lon="-1.2398920000000044">
        <ele>839.809</ele>
        <time>2022-08-24T08:24:14Z</time>
      </trkpt>
      <trkpt lat="43.10341799999955" lon="-1.2399160000000045">
        <ele>840.296</ele>
        <time>2022-08-24T08:24:17Z</time>
      </trkpt>
      <trkpt lat="43.10340199999955" lon="-1.2399220000000044">
        <ele>840.256</ele>
        <time>2022-08-24T08:24:18Z</time>
      </trkpt>
      <trkpt lat="43.103371999999545" lon="-1.2399330000000044">
        <ele>840.456</ele>
        <time>2022-08-24T08:24:20Z</time>
      </trkpt>
      <trkpt lat="43.10335699999955" lon="-1.2399350000000045">
        <ele>840.872</ele>
        <time>2022-08-24T08:24:21Z</time>
      </trkpt>
      <trkpt lat="43.10333999999955" lon="-1.2399380000000044">
        <ele>841.084</ele>
        <time>2022-08-24T08:24:22Z</time>
      </trkpt>
      <trkpt lat="43.103323999999546" lon="-1.2399370000000045">
        <ele>841.251</ele>
        <time>2022-08-24T08:24:23Z</time>
      </trkpt>
      <trkpt lat="43.103306999999546" lon="-1.2399350000000045">
        <ele>841.464</ele>
        <time>2022-08-24T08:24:24Z</time>
      </trkpt>
      <trkpt lat="43.10328899999955" lon="-1.2399390000000043">
        <ele>841.438</ele>
        <time>2022-08-24T08:24:25Z</time>
      </trkpt>
      <trkpt lat="43.10327399999955" lon="-1.2399440000000044">
        <ele>841.647</ele>
        <time>2022-08-24T08:24:26Z</time>
      </trkpt>
      <trkpt lat="43.103258999999554" lon="-1.2399510000000045">
        <ele>841.843</ele>
        <time>2022-08-24T08:24:27Z</time>
      </trkpt>
      <trkpt lat="43.103241999999554" lon="-1.2399550000000044">
        <ele>841.864</ele>
        <time>2022-08-24T08:24:28Z</time>
      </trkpt>
      <trkpt lat="43.103227999999554" lon="-1.2399610000000043">
        <ele>842.010</ele>
        <time>2022-08-24T08:24:29Z</time>
      </trkpt>
      <trkpt lat="43.103212999999556" lon="-1.2399660000000043">
        <ele>842.209</ele>
        <time>2022-08-24T08:24:30Z</time>
      </trkpt>
      <trkpt lat="43.10319999999955" lon="-1.2399710000000044">
        <ele>842.445</ele>
        <time>2022-08-24T08:24:31Z</time>
      </trkpt>
      <trkpt lat="43.103184999999556" lon="-1.2399730000000044">
        <ele>842.615</ele>
        <time>2022-08-24T08:24:32Z</time>
      </trkpt>
      <trkpt lat="43.103162999999554" lon="-1.2399750000000045">
        <ele>842.815</ele>
        <time>2022-08-24T08:24:33Z</time>
      </trkpt>
      <trkpt lat="43.10314399999955" lon="-1.2399770000000045">
        <ele>843.031</ele>
        <time>2022-08-24T08:24:34Z</time>
      </trkpt>
      <trkpt lat="43.103125999999556" lon="-1.2399770000000045">
        <ele>843.063</ele>
        <time>2022-08-24T08:24:35Z</time>
      </trkpt>
      <trkpt lat="43.10311599999955" lon="-1.2399770000000045">
        <ele>843.460</ele>
        <time>2022-08-24T08:24:36Z</time>
      </trkpt>
      <trkpt lat="43.103097999999555" lon="-1.2399750000000045">
        <ele>843.443</ele>
        <time>2022-08-24T08:24:37Z</time>
      </trkpt>
      <trkpt lat="43.10308899999956" lon="-1.2399740000000046">
        <ele>843.697</ele>
        <time>2022-08-24T08:24:38Z</time>
      </trkpt>
      <trkpt lat="43.103074999999556" lon="-1.2399720000000045">
        <ele>843.816</ele>
        <time>2022-08-24T08:24:39Z</time>
      </trkpt>
      <trkpt lat="43.10305799999956" lon="-1.2399720000000045">
        <ele>844.074</ele>
        <time>2022-08-24T08:24:40Z</time>
      </trkpt>
      <trkpt lat="43.103044999999554" lon="-1.2399740000000046">
        <ele>844.256</ele>
        <time>2022-08-24T08:24:41Z</time>
      </trkpt>
      <trkpt lat="43.103029999999556" lon="-1.2399760000000046">
        <ele>844.221</ele>
        <time>2022-08-24T08:24:42Z</time>
      </trkpt>
      <trkpt lat="43.103013999999554" lon="-1.2399740000000046">
        <ele>844.609</ele>
        <time>2022-08-24T08:24:43Z</time>
      </trkpt>
      <trkpt lat="43.102993999999555" lon="-1.2399670000000045">
        <ele>844.858</ele>
        <time>2022-08-24T08:24:44Z</time>
      </trkpt>
      <trkpt lat="43.10298199999956" lon="-1.2399550000000046">
        <ele>845.078</ele>
        <time>2022-08-24T08:24:45Z</time>
      </trkpt>
      <trkpt lat="43.10296699999956" lon="-1.2399470000000046">
        <ele>845.428</ele>
        <time>2022-08-24T08:24:46Z</time>
      </trkpt>
      <trkpt lat="43.10295499999956" lon="-1.2399490000000046">
        <ele>845.654</ele>
        <time>2022-08-24T08:24:47Z</time>
      </trkpt>
      <trkpt lat="43.10293999999956" lon="-1.2399510000000047">
        <ele>845.876</ele>
        <time>2022-08-24T08:24:48Z</time>
      </trkpt>
      <trkpt lat="43.102921999999566" lon="-1.2399480000000047">
        <ele>846.043</ele>
        <time>2022-08-24T08:24:49Z</time>
      </trkpt>
      <trkpt lat="43.102905999999564" lon="-1.2399390000000048">
        <ele>846.236</ele>
        <time>2022-08-24T08:24:50Z</time>
      </trkpt>
      <trkpt lat="43.102890999999566" lon="-1.2399300000000049">
        <ele>846.650</ele>
        <time>2022-08-24T08:24:51Z</time>
      </trkpt>
      <trkpt lat="43.10287899999957" lon="-1.2399250000000048">
        <ele>846.619</ele>
        <time>2022-08-24T08:24:52Z</time>
      </trkpt>
      <trkpt lat="43.10286699999957" lon="-1.2399180000000047">
        <ele>846.886</ele>
        <time>2022-08-24T08:24:53Z</time>
      </trkpt>
      <trkpt lat="43.10285499999957" lon="-1.2399110000000046">
        <ele>847.060</ele>
        <time>2022-08-24T08:24:54Z</time>
      </trkpt>
      <trkpt lat="43.10283799999957" lon="-1.2399060000000046">
        <ele>847.226</ele>
        <time>2022-08-24T08:24:55Z</time>
      </trkpt>
      <trkpt lat="43.102822999999574" lon="-1.2398990000000045">
        <ele>847.609</ele>
        <time>2022-08-24T08:24:56Z</time>
      </trkpt>
      <trkpt lat="43.102811999999574" lon="-1.2398960000000046">
        <ele>847.819</ele>
        <time>2022-08-24T08:24:57Z</time>
      </trkpt>
      <trkpt lat="43.10279899999957" lon="-1.2398910000000045">
        <ele>847.899</ele>
        <time>2022-08-24T08:24:58Z</time>
      </trkpt>
      <trkpt lat="43.10278599999957" lon="-1.2398880000000045">
        <ele>848.089</ele>
        <time>2022-08-24T08:24:59Z</time>
      </trkpt>
      <trkpt lat="43.102769999999566" lon="-1.2398830000000045">
        <ele>848.025</ele>
        <time>2022-08-24T08:25:00Z</time>
      </trkpt>
      <trkpt lat="43.102758999999566" lon="-1.2398770000000046">
        <ele>848.277</ele>
        <time>2022-08-24T08:25:01Z</time>
      </trkpt>
      <trkpt lat="43.102744999999565" lon="-1.2398740000000046">
        <ele>848.474</ele>
        <time>2022-08-24T08:25:02Z</time>
      </trkpt>
      <trkpt lat="43.10273199999956" lon="-1.2398700000000047">
        <ele>848.847</ele>
        <time>2022-08-24T08:25:03Z</time>
      </trkpt>
      <trkpt lat="43.102719999999564" lon="-1.2398660000000048">
        <ele>849.021</ele>
        <time>2022-08-24T08:25:04Z</time>
      </trkpt>
      <trkpt lat="43.10270199999957" lon="-1.2398590000000047">
        <ele>849.250</ele>
        <time>2022-08-24T08:25:05Z</time>
      </trkpt>
      <trkpt lat="43.10268699999957" lon="-1.2398550000000048">
        <ele>849.257</ele>
        <time>2022-08-24T08:25:06Z</time>
      </trkpt>
      <trkpt lat="43.10267199999957" lon="-1.239851000000005">
        <ele>849.400</ele>
        <time>2022-08-24T08:25:07Z</time>
      </trkpt>
      <trkpt lat="43.10265899999957" lon="-1.239848000000005">
        <ele>849.620</ele>
        <time>2022-08-24T08:25:08Z</time>
      </trkpt>
      <trkpt lat="43.10264299999957" lon="-1.239845000000005">
        <ele>849.809</ele>
        <time>2022-08-24T08:25:09Z</time>
      </trkpt>
      <trkpt lat="43.10262799999957" lon="-1.239842000000005">
        <ele>850.066</ele>
        <time>2022-08-24T08:25:10Z</time>
      </trkpt>
      <trkpt lat="43.10261599999957" lon="-1.239838000000005">
        <ele>850.236</ele>
        <time>2022-08-24T08:25:11Z</time>
      </trkpt>
      <trkpt lat="43.10259999999957" lon="-1.239838000000005">
        <ele>850.466</ele>
        <time>2022-08-24T08:25:12Z</time>
      </trkpt>
      <trkpt lat="43.10258799999957" lon="-1.2398370000000052">
        <ele>850.652</ele>
        <time>2022-08-24T08:25:13Z</time>
      </trkpt>
      <trkpt lat="43.10257899999957" lon="-1.2398330000000053">
        <ele>851.064</ele>
        <time>2022-08-24T08:25:14Z</time>
      </trkpt>
      <trkpt lat="43.10256599999957" lon="-1.2398260000000052">
        <ele>851.271</ele>
        <time>2022-08-24T08:25:15Z</time>
      </trkpt>
      <trkpt lat="43.10254999999957" lon="-1.2398180000000052">
        <ele>851.414</ele>
        <time>2022-08-24T08:25:16Z</time>
      </trkpt>
      <trkpt lat="43.102536999999565" lon="-1.2398170000000053">
        <ele>851.458</ele>
        <time>2022-08-24T08:25:17Z</time>
      </trkpt>
      <trkpt lat="43.10252199999957" lon="-1.2398160000000054">
        <ele>851.677</ele>
        <time>2022-08-24T08:25:18Z</time>
      </trkpt>
      <trkpt lat="43.102510999999566" lon="-1.2398150000000054">
        <ele>852.074</ele>
        <time>2022-08-24T08:25:19Z</time>
      </trkpt>
      <trkpt lat="43.102496999999566" lon="-1.2398120000000055">
        <ele>852.256</ele>
        <time>2022-08-24T08:25:20Z</time>
      </trkpt>
      <trkpt lat="43.10247899999957" lon="-1.2398100000000054">
        <ele>852.221</ele>
        <time>2022-08-24T08:25:21Z</time>
      </trkpt>
      <trkpt lat="43.10246499999957" lon="-1.2398090000000055">
        <ele>852.409</ele>
        <time>2022-08-24T08:25:22Z</time>
      </trkpt>
      <trkpt lat="43.102451999999566" lon="-1.2398100000000054">
        <ele>852.428</ele>
        <time>2022-08-24T08:25:23Z</time>
      </trkpt>
      <trkpt lat="43.102440999999565" lon="-1.2398100000000054">
        <ele>852.628</ele>
        <time>2022-08-24T08:25:24Z</time>
      </trkpt>
      <trkpt lat="43.102426999999565" lon="-1.2398090000000055">
        <ele>852.828</ele>
        <time>2022-08-24T08:25:25Z</time>
      </trkpt>
      <trkpt lat="43.102415999999565" lon="-1.2398060000000055">
        <ele>853.044</ele>
        <time>2022-08-24T08:25:26Z</time>
      </trkpt>
      <trkpt lat="43.10240299999956" lon="-1.2398040000000055">
        <ele>853.216</ele>
        <time>2022-08-24T08:25:27Z</time>
      </trkpt>
      <trkpt lat="43.102390999999564" lon="-1.2398040000000055">
        <ele>853.263</ele>
        <time>2022-08-24T08:25:28Z</time>
      </trkpt>
      <trkpt lat="43.102378999999566" lon="-1.2398030000000055">
        <ele>853.456</ele>
        <time>2022-08-24T08:25:29Z</time>
      </trkpt>
      <trkpt lat="43.102370999999565" lon="-1.2398030000000055">
        <ele>853.480</ele>
        <time>2022-08-24T08:25:30Z</time>
      </trkpt>
      <trkpt lat="43.102359999999564" lon="-1.2398030000000055">
        <ele>853.889</ele>
        <time>2022-08-24T08:25:31Z</time>
      </trkpt>
      <trkpt lat="43.10234899999956" lon="-1.2398000000000056">
        <ele>853.836</ele>
        <time>2022-08-24T08:25:32Z</time>
      </trkpt>
      <trkpt lat="43.10233899999956" lon="-1.2398020000000056">
        <ele>854.017</ele>
        <time>2022-08-24T08:25:33Z</time>
      </trkpt>
      <trkpt lat="43.10232699999956" lon="-1.2398030000000055">
        <ele>854.018</ele>
        <time>2022-08-24T08:25:34Z</time>
      </trkpt>
      <trkpt lat="43.10231599999956" lon="-1.2398040000000055">
        <ele>854.209</ele>
        <time>2022-08-24T08:25:35Z</time>
      </trkpt>
      <trkpt lat="43.10230299999956" lon="-1.2398050000000054">
        <ele>854.284</ele>
        <time>2022-08-24T08:25:36Z</time>
      </trkpt>
      <trkpt lat="43.102286999999556" lon="-1.2398080000000054">
        <ele>854.254</ele>
        <time>2022-08-24T08:25:37Z</time>
      </trkpt>
      <trkpt lat="43.102272999999556" lon="-1.2398150000000054">
        <ele>854.414</ele>
        <time>2022-08-24T08:25:38Z</time>
      </trkpt>
      <trkpt lat="43.102258999999556" lon="-1.2398230000000054">
        <ele>854.460</ele>
        <time>2022-08-24T08:25:39Z</time>
      </trkpt>
      <trkpt lat="43.10224699999956" lon="-1.2398280000000055">
        <ele>854.652</ele>
        <time>2022-08-24T08:25:40Z</time>
      </trkpt>
      <trkpt lat="43.10223299999956" lon="-1.2398350000000056">
        <ele>854.689</ele>
        <time>2022-08-24T08:25:41Z</time>
      </trkpt>
      <trkpt lat="43.102219999999555" lon="-1.2398430000000056">
        <ele>854.882</ele>
        <time>2022-08-24T08:25:42Z</time>
      </trkpt>
      <trkpt lat="43.10220499999956" lon="-1.2398530000000056">
        <ele>854.886</ele>
        <time>2022-08-24T08:25:43Z</time>
      </trkpt>
      <trkpt lat="43.10219099999956" lon="-1.2398580000000057">
        <ele>855.065</ele>
        <time>2022-08-24T08:25:44Z</time>
      </trkpt>
      <trkpt lat="43.10217699999956" lon="-1.2398610000000057">
        <ele>855.096</ele>
        <time>2022-08-24T08:25:45Z</time>
      </trkpt>
      <trkpt lat="43.10216299999956" lon="-1.2398640000000056">
        <ele>855.231</ele>
        <time>2022-08-24T08:25:46Z</time>
      </trkpt>
      <trkpt lat="43.102146999999555" lon="-1.2398650000000055">
        <ele>855.224</ele>
        <time>2022-08-24T08:25:47Z</time>
      </trkpt>
      <trkpt lat="43.102134999999556" lon="-1.2398680000000055">
        <ele>855.409</ele>
        <time>2022-08-24T08:25:48Z</time>
      </trkpt>
      <trkpt lat="43.10211999999956" lon="-1.2398740000000055">
        <ele>855.480</ele>
        <time>2022-08-24T08:25:49Z</time>
      </trkpt>
      <trkpt lat="43.10210499999956" lon="-1.2398790000000055">
        <ele>855.420</ele>
        <time>2022-08-24T08:25:50Z</time>
      </trkpt>
      <trkpt lat="43.10208999999956" lon="-1.2398800000000054">
        <ele>855.640</ele>
        <time>2022-08-24T08:25:51Z</time>
      </trkpt>
      <trkpt lat="43.10207399999956" lon="-1.2398810000000053">
        <ele>855.646</ele>
        <time>2022-08-24T08:25:52Z</time>
      </trkpt>
      <trkpt lat="43.10205499999956" lon="-1.2398840000000053">
        <ele>855.628</ele>
        <time>2022-08-24T08:25:53Z</time>
      </trkpt>
      <trkpt lat="43.10203999999956" lon="-1.2398880000000052">
        <ele>855.845</ele>
        <time>2022-08-24T08:25:54Z</time>
      </trkpt>
      <trkpt lat="43.10202399999956" lon="-1.239892000000005">
        <ele>855.888</ele>
        <time>2022-08-24T08:25:55Z</time>
      </trkpt>
      <trkpt lat="43.10200899999956" lon="-1.239896000000005">
        <ele>856.052</ele>
        <time>2022-08-24T08:25:56Z</time>
      </trkpt>
      <trkpt lat="43.101990999999565" lon="-1.239903000000005">
        <ele>856.061</ele>
        <time>2022-08-24T08:25:57Z</time>
      </trkpt>
      <trkpt lat="43.101976999999565" lon="-1.2399050000000051">
        <ele>856.272</ele>
        <time>2022-08-24T08:25:58Z</time>
      </trkpt>
      <trkpt lat="43.10196099999956" lon="-1.2399080000000051">
        <ele>856.213</ele>
        <time>2022-08-24T08:25:59Z</time>
      </trkpt>
      <trkpt lat="43.10194699999956" lon="-1.239912000000005">
        <ele>856.414</ele>
        <time>2022-08-24T08:26:00Z</time>
      </trkpt>
      <trkpt lat="43.10192999999956" lon="-1.239918000000005">
        <ele>856.609</ele>
        <time>2022-08-24T08:26:01Z</time>
      </trkpt>
      <trkpt lat="43.10180899999956" lon="-1.2399490000000049">
        <ele>857.238</ele>
        <time>2022-08-24T08:26:08Z</time>
      </trkpt>
      <trkpt lat="43.101790999999565" lon="-1.239948000000005">
        <ele>857.258</ele>
        <time>2022-08-24T08:26:09Z</time>
      </trkpt>
      <trkpt lat="43.10177299999957" lon="-1.239950000000005">
        <ele>857.428</ele>
        <time>2022-08-24T08:26:10Z</time>
      </trkpt>
      <trkpt lat="43.10175799999957" lon="-1.239951000000005">
        <ele>857.444</ele>
        <time>2022-08-24T08:26:11Z</time>
      </trkpt>
      <trkpt lat="43.10170999999957" lon="-1.239958000000005">
        <ele>857.836</ele>
        <time>2022-08-24T08:26:14Z</time>
      </trkpt>
      <trkpt lat="43.10169499999957" lon="-1.239963000000005">
        <ele>857.823</ele>
        <time>2022-08-24T08:26:15Z</time>
      </trkpt>
      <trkpt lat="43.101679999999575" lon="-1.239964000000005">
        <ele>857.846</ele>
        <time>2022-08-24T08:26:16Z</time>
      </trkpt>
      <trkpt lat="43.10166799999958" lon="-1.2399650000000049">
        <ele>858.060</ele>
        <time>2022-08-24T08:26:17Z</time>
      </trkpt>
      <trkpt lat="43.10163699999958" lon="-1.2399650000000049">
        <ele>858.289</ele>
        <time>2022-08-24T08:26:19Z</time>
      </trkpt>
      <trkpt lat="43.10161999999958" lon="-1.239964000000005">
        <ele>858.438</ele>
        <time>2022-08-24T08:26:20Z</time>
      </trkpt>
      <trkpt lat="43.10158499999958" lon="-1.239970000000005">
        <ele>858.470</ele>
        <time>2022-08-24T08:26:22Z</time>
      </trkpt>
      <trkpt lat="43.10155499999958" lon="-1.239978000000005">
        <ele>858.617</ele>
        <time>2022-08-24T08:26:24Z</time>
      </trkpt>
      <trkpt lat="43.10147399999958" lon="-1.240002000000005">
        <ele>859.009</ele>
        <time>2022-08-24T08:26:29Z</time>
      </trkpt>
      <trkpt lat="43.101440999999575" lon="-1.2400060000000048">
        <ele>859.294</ele>
        <time>2022-08-24T08:26:31Z</time>
      </trkpt>
      <trkpt lat="43.101389999999576" lon="-1.2400120000000048">
        <ele>859.454</ele>
        <time>2022-08-24T08:26:34Z</time>
      </trkpt>
      <trkpt lat="43.10137399999957" lon="-1.2400190000000049">
        <ele>859.664</ele>
        <time>2022-08-24T08:26:35Z</time>
      </trkpt>
      <trkpt lat="43.101358999999576" lon="-1.2400250000000048">
        <ele>859.610</ele>
        <time>2022-08-24T08:26:36Z</time>
      </trkpt>
      <trkpt lat="43.101271999999575" lon="-1.2400360000000048">
        <ele>860.482</ele>
        <time>2022-08-24T08:26:41Z</time>
      </trkpt>
      <trkpt lat="43.10125999999958" lon="-1.2400400000000047">
        <ele>860.699</ele>
        <time>2022-08-24T08:26:42Z</time>
      </trkpt>
      <trkpt lat="43.10121199999958" lon="-1.2400560000000047">
        <ele>861.092</ele>
        <time>2022-08-24T08:26:45Z</time>
      </trkpt>
      <trkpt lat="43.10119699999958" lon="-1.2400650000000046">
        <ele>861.216</ele>
        <time>2022-08-24T08:26:46Z</time>
      </trkpt>
      <trkpt lat="43.10118099999958" lon="-1.2400720000000047">
        <ele>861.275</ele>
        <time>2022-08-24T08:26:47Z</time>
      </trkpt>
      <trkpt lat="43.10116699999958" lon="-1.2400780000000047">
        <ele>861.263</ele>
        <time>2022-08-24T08:26:48Z</time>
      </trkpt>
      <trkpt lat="43.101150999999575" lon="-1.2400830000000047">
        <ele>861.244</ele>
        <time>2022-08-24T08:26:49Z</time>
      </trkpt>
      <trkpt lat="43.10113799999957" lon="-1.2400870000000046">
        <ele>861.418</ele>
        <time>2022-08-24T08:26:50Z</time>
      </trkpt>
      <trkpt lat="43.101122999999575" lon="-1.2400920000000046">
        <ele>861.409</ele>
        <time>2022-08-24T08:26:51Z</time>
      </trkpt>
      <trkpt lat="43.101105999999575" lon="-1.2401010000000046">
        <ele>861.497</ele>
        <time>2022-08-24T08:26:52Z</time>
      </trkpt>
      <trkpt lat="43.10109099999958" lon="-1.2401110000000046">
        <ele>861.647</ele>
        <time>2022-08-24T08:26:53Z</time>
      </trkpt>
      <trkpt lat="43.10107399999958" lon="-1.2401170000000046">
        <ele>861.687</ele>
        <time>2022-08-24T08:26:54Z</time>
      </trkpt>
      <trkpt lat="43.101057999999576" lon="-1.2401250000000046">
        <ele>861.643</ele>
        <time>2022-08-24T08:26:55Z</time>
      </trkpt>
      <trkpt lat="43.10103999999958" lon="-1.2401350000000047">
        <ele>861.815</ele>
        <time>2022-08-24T08:26:56Z</time>
      </trkpt>
      <trkpt lat="43.10102099999958" lon="-1.2401430000000047">
        <ele>861.862</ele>
        <time>2022-08-24T08:26:57Z</time>
      </trkpt>
      <trkpt lat="43.10100299999958" lon="-1.2401490000000046">
        <ele>861.845</ele>
        <time>2022-08-24T08:26:58Z</time>
      </trkpt>
      <trkpt lat="43.10098499999958" lon="-1.2401570000000046">
        <ele>861.819</ele>
        <time>2022-08-24T08:26:59Z</time>
      </trkpt>
      <trkpt lat="43.10091799999958" lon="-1.2401800000000047">
        <ele>862.428</ele>
        <time>2022-08-24T08:27:03Z</time>
      </trkpt>
      <trkpt lat="43.10090199999958" lon="-1.2401920000000046">
        <ele>862.669</ele>
        <time>2022-08-24T08:27:04Z</time>
      </trkpt>
      <trkpt lat="43.10088199999958" lon="-1.2402070000000047">
        <ele>862.804</ele>
        <time>2022-08-24T08:27:05Z</time>
      </trkpt>
      <trkpt lat="43.10083399999958" lon="-1.2402310000000047">
        <ele>863.024</ele>
        <time>2022-08-24T08:27:08Z</time>
      </trkpt>
      <trkpt lat="43.10081899999958" lon="-1.2402390000000048">
        <ele>863.009</ele>
        <time>2022-08-24T08:27:09Z</time>
      </trkpt>
      <trkpt lat="43.100803999999584" lon="-1.2402440000000048">
        <ele>863.257</ele>
        <time>2022-08-24T08:27:10Z</time>
      </trkpt>
      <trkpt lat="43.10078799999958" lon="-1.2402470000000048">
        <ele>863.277</ele>
        <time>2022-08-24T08:27:11Z</time>
      </trkpt>
      <trkpt lat="43.10077199999958" lon="-1.2402550000000048">
        <ele>863.217</ele>
        <time>2022-08-24T08:27:12Z</time>
      </trkpt>
      <trkpt lat="43.10075599999958" lon="-1.2402660000000048">
        <ele>863.423</ele>
        <time>2022-08-24T08:27:13Z</time>
      </trkpt>
      <trkpt lat="43.100739999999576" lon="-1.2402730000000048">
        <ele>863.475</ele>
        <time>2022-08-24T08:27:14Z</time>
      </trkpt>
      <trkpt lat="43.10069299999957" lon="-1.240294000000005">
        <ele>863.822</ele>
        <time>2022-08-24T08:27:17Z</time>
      </trkpt>
      <trkpt lat="43.100677999999576" lon="-1.2403030000000048">
        <ele>863.865</ele>
        <time>2022-08-24T08:27:18Z</time>
      </trkpt>
      <trkpt lat="43.10066299999958" lon="-1.240310000000005">
        <ele>863.899</ele>
        <time>2022-08-24T08:27:19Z</time>
      </trkpt>
      <trkpt lat="43.10056699999958" lon="-1.240345000000005">
        <ele>864.268</ele>
        <time>2022-08-24T08:27:25Z</time>
      </trkpt>
      <trkpt lat="43.10055199999958" lon="-1.240352000000005">
        <ele>864.472</ele>
        <time>2022-08-24T08:27:26Z</time>
      </trkpt>
      <trkpt lat="43.10053599999958" lon="-1.240359000000005">
        <ele>864.413</ele>
        <time>2022-08-24T08:27:27Z</time>
      </trkpt>
      <trkpt lat="43.10045799999958" lon="-1.240398000000005">
        <ele>864.814</ele>
        <time>2022-08-24T08:27:32Z</time>
      </trkpt>
      <trkpt lat="43.10044099999958" lon="-1.240405000000005">
        <ele>864.809</ele>
        <time>2022-08-24T08:27:33Z</time>
      </trkpt>
      <trkpt lat="43.10042299999958" lon="-1.2404120000000052">
        <ele>864.828</ele>
        <time>2022-08-24T08:27:34Z</time>
      </trkpt>
      <trkpt lat="43.10033899999958" lon="-1.2404460000000053">
        <ele>865.278</ele>
        <time>2022-08-24T08:27:39Z</time>
      </trkpt>
      <trkpt lat="43.10032299999958" lon="-1.2404530000000054">
        <ele>865.428</ele>
        <time>2022-08-24T08:27:40Z</time>
      </trkpt>
      <trkpt lat="43.10030899999958" lon="-1.2404580000000054">
        <ele>865.634</ele>
        <time>2022-08-24T08:27:41Z</time>
      </trkpt>
      <trkpt lat="43.10026799999957" lon="-1.2404820000000054">
        <ele>865.896</ele>
        <time>2022-08-24T08:27:44Z</time>
      </trkpt>
      <trkpt lat="43.100216999999574" lon="-1.2405110000000055">
        <ele>866.083</ele>
        <time>2022-08-24T08:27:47Z</time>
      </trkpt>
      <trkpt lat="43.10020199999958" lon="-1.2405150000000054">
        <ele>866.246</ele>
        <time>2022-08-24T08:27:48Z</time>
      </trkpt>
      <trkpt lat="43.100134999999575" lon="-1.2405440000000054">
        <ele>866.260</ele>
        <time>2022-08-24T08:27:52Z</time>
      </trkpt>
      <trkpt lat="43.10011999999958" lon="-1.2405470000000054">
        <ele>866.439</ele>
        <time>2022-08-24T08:27:53Z</time>
      </trkpt>
      <trkpt lat="43.10009699999958" lon="-1.2405550000000054">
        <ele>866.467</ele>
        <time>2022-08-24T08:27:54Z</time>
      </trkpt>
      <trkpt lat="43.10007899999958" lon="-1.2405660000000054">
        <ele>866.481</ele>
        <time>2022-08-24T08:27:55Z</time>
      </trkpt>
      <trkpt lat="43.100063999999584" lon="-1.2405750000000053">
        <ele>866.619</ele>
        <time>2022-08-24T08:27:56Z</time>
      </trkpt>
      <trkpt lat="43.100032999999584" lon="-1.2405910000000053">
        <ele>866.809</ele>
        <time>2022-08-24T08:27:58Z</time>
      </trkpt>
      <trkpt lat="43.099998999999585" lon="-1.2406060000000054">
        <ele>867.287</ele>
        <time>2022-08-24T08:28:00Z</time>
      </trkpt>
      <trkpt lat="43.09992399999958" lon="-1.2406290000000055">
        <ele>867.627</ele>
        <time>2022-08-24T08:28:05Z</time>
      </trkpt>
      <trkpt lat="43.099905999999585" lon="-1.2406350000000055">
        <ele>867.877</ele>
        <time>2022-08-24T08:28:06Z</time>
      </trkpt>
      <trkpt lat="43.099869999999584" lon="-1.2406410000000054">
        <ele>868.073</ele>
        <time>2022-08-24T08:28:08Z</time>
      </trkpt>
      <trkpt lat="43.099852999999584" lon="-1.2406470000000054">
        <ele>868.055</ele>
        <time>2022-08-24T08:28:09Z</time>
      </trkpt>
      <trkpt lat="43.09982099999959" lon="-1.2406590000000053">
        <ele>868.232</ele>
        <time>2022-08-24T08:28:11Z</time>
      </trkpt>
      <trkpt lat="43.09976899999959" lon="-1.2406800000000053">
        <ele>869.065</ele>
        <time>2022-08-24T08:28:14Z</time>
      </trkpt>
      <trkpt lat="43.09975299999959" lon="-1.2406870000000054">
        <ele>869.299</ele>
        <time>2022-08-24T08:28:15Z</time>
      </trkpt>
      <trkpt lat="43.09973799999959" lon="-1.2406950000000054">
        <ele>869.238</ele>
        <time>2022-08-24T08:28:16Z</time>
      </trkpt>
      <trkpt lat="43.09971799999959" lon="-1.2406980000000054">
        <ele>869.428</ele>
        <time>2022-08-24T08:28:17Z</time>
      </trkpt>
      <trkpt lat="43.099699999999594" lon="-1.2407010000000054">
        <ele>869.689</ele>
        <time>2022-08-24T08:28:18Z</time>
      </trkpt>
      <trkpt lat="43.099682999999594" lon="-1.2407040000000054">
        <ele>869.617</ele>
        <time>2022-08-24T08:28:19Z</time>
      </trkpt>
      <trkpt lat="43.09966099999959" lon="-1.2407110000000054">
        <ele>869.609</ele>
        <time>2022-08-24T08:28:20Z</time>
      </trkpt>
      <trkpt lat="43.09964699999959" lon="-1.2407160000000055">
        <ele>869.853</ele>
        <time>2022-08-24T08:28:21Z</time>
      </trkpt>
      <trkpt lat="43.09962799999959" lon="-1.2407180000000055">
        <ele>870.063</ele>
        <time>2022-08-24T08:28:22Z</time>
      </trkpt>
      <trkpt lat="43.09960999999959" lon="-1.2407210000000055">
        <ele>870.283</ele>
        <time>2022-08-24T08:28:23Z</time>
      </trkpt>
      <trkpt lat="43.09959099999959" lon="-1.2407270000000055">
        <ele>870.279</ele>
        <time>2022-08-24T08:28:24Z</time>
      </trkpt>
      <trkpt lat="43.09957399999959" lon="-1.2407350000000055">
        <ele>870.471</ele>
        <time>2022-08-24T08:28:25Z</time>
      </trkpt>
      <trkpt lat="43.09955699999959" lon="-1.2407390000000054">
        <ele>870.688</ele>
        <time>2022-08-24T08:28:26Z</time>
      </trkpt>
      <trkpt lat="43.099538999999595" lon="-1.2407410000000054">
        <ele>870.671</ele>
        <time>2022-08-24T08:28:27Z</time>
      </trkpt>
      <trkpt lat="43.099521999999595" lon="-1.2407430000000055">
        <ele>870.825</ele>
        <time>2022-08-24T08:28:28Z</time>
      </trkpt>
      <trkpt lat="43.09950599999959" lon="-1.2407490000000054">
        <ele>870.844</ele>
        <time>2022-08-24T08:28:29Z</time>
      </trkpt>
      <trkpt lat="43.09948899999959" lon="-1.2407510000000055">
        <ele>871.236</ele>
        <time>2022-08-24T08:28:30Z</time>
      </trkpt>
      <trkpt lat="43.099473999999596" lon="-1.2407550000000054">
        <ele>871.217</ele>
        <time>2022-08-24T08:28:31Z</time>
      </trkpt>
      <trkpt lat="43.09946099999959" lon="-1.2407560000000053">
        <ele>871.418</ele>
        <time>2022-08-24T08:28:32Z</time>
      </trkpt>
      <trkpt lat="43.099445999999595" lon="-1.2407560000000053">
        <ele>871.609</ele>
        <time>2022-08-24T08:28:33Z</time>
      </trkpt>
      <trkpt lat="43.09942999999959" lon="-1.2407540000000052">
        <ele>871.684</ele>
        <time>2022-08-24T08:28:34Z</time>
      </trkpt>
      <trkpt lat="43.099411999999596" lon="-1.2407520000000052">
        <ele>871.824</ele>
        <time>2022-08-24T08:28:35Z</time>
      </trkpt>
      <trkpt lat="43.099394999999596" lon="-1.2407550000000052">
        <ele>871.814</ele>
        <time>2022-08-24T08:28:36Z</time>
      </trkpt>
      <trkpt lat="43.099380999999596" lon="-1.240759000000005">
        <ele>872.250</ele>
        <time>2022-08-24T08:28:37Z</time>
      </trkpt>
      <trkpt lat="43.099366999999596" lon="-1.240762000000005">
        <ele>872.232</ele>
        <time>2022-08-24T08:28:38Z</time>
      </trkpt>
      <trkpt lat="43.0993519999996" lon="-1.240768000000005">
        <ele>872.499</ele>
        <time>2022-08-24T08:28:39Z</time>
      </trkpt>
      <trkpt lat="43.099338999999596" lon="-1.240768000000005">
        <ele>872.442</ele>
        <time>2022-08-24T08:28:40Z</time>
      </trkpt>
      <trkpt lat="43.0993239999996" lon="-1.240770000000005">
        <ele>872.636</ele>
        <time>2022-08-24T08:28:41Z</time>
      </trkpt>
      <trkpt lat="43.0993059999996" lon="-1.240775000000005">
        <ele>872.865</ele>
        <time>2022-08-24T08:28:42Z</time>
      </trkpt>
      <trkpt lat="43.0992939999996" lon="-1.240781000000005">
        <ele>872.866</ele>
        <time>2022-08-24T08:28:43Z</time>
      </trkpt>
      <trkpt lat="43.099278999999605" lon="-1.240789000000005">
        <ele>872.829</ele>
        <time>2022-08-24T08:28:44Z</time>
      </trkpt>
      <trkpt lat="43.09926399999961" lon="-1.240795000000005">
        <ele>873.021</ele>
        <time>2022-08-24T08:28:45Z</time>
      </trkpt>
      <trkpt lat="43.099247999999605" lon="-1.240797000000005">
        <ele>873.209</ele>
        <time>2022-08-24T08:28:46Z</time>
      </trkpt>
      <trkpt lat="43.099230999999605" lon="-1.240800000000005">
        <ele>873.627</ele>
        <time>2022-08-24T08:28:47Z</time>
      </trkpt>
      <trkpt lat="43.0992119999996" lon="-1.240805000000005">
        <ele>873.627</ele>
        <time>2022-08-24T08:28:48Z</time>
      </trkpt>
      <trkpt lat="43.0991959999996" lon="-1.240810000000005">
        <ele>873.837</ele>
        <time>2022-08-24T08:28:49Z</time>
      </trkpt>
      <trkpt lat="43.099180999999604" lon="-1.240815000000005">
        <ele>874.053</ele>
        <time>2022-08-24T08:28:50Z</time>
      </trkpt>
      <trkpt lat="43.099165999999606" lon="-1.240824000000005">
        <ele>874.225</ele>
        <time>2022-08-24T08:28:51Z</time>
      </trkpt>
      <trkpt lat="43.0991529999996" lon="-1.2408310000000051">
        <ele>874.222</ele>
        <time>2022-08-24T08:28:52Z</time>
      </trkpt>
      <trkpt lat="43.0991339999996" lon="-1.2408390000000051">
        <ele>874.235</ele>
        <time>2022-08-24T08:28:53Z</time>
      </trkpt>
      <trkpt lat="43.0991169999996" lon="-1.2408440000000052">
        <ele>874.479</ele>
        <time>2022-08-24T08:28:54Z</time>
      </trkpt>
      <trkpt lat="43.099098999999605" lon="-1.2408470000000051">
        <ele>874.468</ele>
        <time>2022-08-24T08:28:55Z</time>
      </trkpt>
      <trkpt lat="43.09908699999961" lon="-1.240853000000005">
        <ele>874.654</ele>
        <time>2022-08-24T08:28:56Z</time>
      </trkpt>
      <trkpt lat="43.09907199999961" lon="-1.240865000000005">
        <ele>874.656</ele>
        <time>2022-08-24T08:28:57Z</time>
      </trkpt>
      <trkpt lat="43.09905499999961" lon="-1.240873000000005">
        <ele>874.811</ele>
        <time>2022-08-24T08:28:58Z</time>
      </trkpt>
      <trkpt lat="43.09903999999961" lon="-1.240881000000005">
        <ele>875.009</ele>
        <time>2022-08-24T08:28:59Z</time>
      </trkpt>
      <trkpt lat="43.09903999999961" lon="-1.240881000000005">
        <ele>875.076</ele>
        <time>2022-08-24T08:29:00Z</time>
      </trkpt>
      <trkpt lat="43.09900399999961" lon="-1.240896000000005">
        <ele>875.226</ele>
        <time>2022-08-24T08:29:01Z</time>
      </trkpt>
      <trkpt lat="43.09898599999961" lon="-1.2409040000000051">
        <ele>875.226</ele>
        <time>2022-08-24T08:29:02Z</time>
      </trkpt>
      <trkpt lat="43.09896899999961" lon="-1.2409090000000051">
        <ele>875.432</ele>
        <time>2022-08-24T08:29:03Z</time>
      </trkpt>
      <trkpt lat="43.098950999999616" lon="-1.2409160000000052">
        <ele>875.624</ele>
        <time>2022-08-24T08:29:04Z</time>
      </trkpt>
      <trkpt lat="43.098933999999616" lon="-1.2409230000000053">
        <ele>875.841</ele>
        <time>2022-08-24T08:29:05Z</time>
      </trkpt>
      <trkpt lat="43.09891699999962" lon="-1.2409310000000053">
        <ele>876.064</ele>
        <time>2022-08-24T08:29:06Z</time>
      </trkpt>
      <trkpt lat="43.09889899999962" lon="-1.2409390000000053">
        <ele>876.088</ele>
        <time>2022-08-24T08:29:07Z</time>
      </trkpt>
      <trkpt lat="43.09888299999962" lon="-1.2409440000000054">
        <ele>876.247</ele>
        <time>2022-08-24T08:29:08Z</time>
      </trkpt>
      <trkpt lat="43.09886599999962" lon="-1.2409540000000054">
        <ele>876.492</ele>
        <time>2022-08-24T08:29:09Z</time>
      </trkpt>
      <trkpt lat="43.09884299999962" lon="-1.2409630000000054">
        <ele>876.673</ele>
        <time>2022-08-24T08:29:10Z</time>
      </trkpt>
      <trkpt lat="43.09882799999962" lon="-1.2409690000000053">
        <ele>876.820</ele>
        <time>2022-08-24T08:29:11Z</time>
      </trkpt>
      <trkpt lat="43.09881099999962" lon="-1.2409740000000054">
        <ele>877.009</ele>
        <time>2022-08-24T08:29:12Z</time>
      </trkpt>
      <trkpt lat="43.09879599999962" lon="-1.2409790000000054">
        <ele>877.270</ele>
        <time>2022-08-24T08:29:13Z</time>
      </trkpt>
      <trkpt lat="43.098778999999624" lon="-1.2409850000000053">
        <ele>877.270</ele>
        <time>2022-08-24T08:29:14Z</time>
      </trkpt>
      <trkpt lat="43.09875999999962" lon="-1.2409920000000054">
        <ele>877.660</ele>
        <time>2022-08-24T08:29:15Z</time>
      </trkpt>
      <trkpt lat="43.09874299999962" lon="-1.2409950000000054">
        <ele>877.616</ele>
        <time>2022-08-24T08:29:16Z</time>
      </trkpt>
      <trkpt lat="43.09872599999962" lon="-1.2409990000000053">
        <ele>877.838</ele>
        <time>2022-08-24T08:29:17Z</time>
      </trkpt>
      <trkpt lat="43.098713999999624" lon="-1.2410060000000054">
        <ele>878.075</ele>
        <time>2022-08-24T08:29:18Z</time>
      </trkpt>
      <trkpt lat="43.09869799999962" lon="-1.2410100000000053">
        <ele>878.218</ele>
        <time>2022-08-24T08:29:19Z</time>
      </trkpt>
      <trkpt lat="43.09868199999962" lon="-1.2410140000000052">
        <ele>878.622</ele>
        <time>2022-08-24T08:29:20Z</time>
      </trkpt>
      <trkpt lat="43.09866399999962" lon="-1.2410160000000052">
        <ele>878.851</ele>
        <time>2022-08-24T08:29:21Z</time>
      </trkpt>
      <trkpt lat="43.09864999999962" lon="-1.2410200000000051">
        <ele>879.088</ele>
        <time>2022-08-24T08:29:22Z</time>
      </trkpt>
      <trkpt lat="43.098637999999625" lon="-1.241026000000005">
        <ele>879.224</ele>
        <time>2022-08-24T08:29:23Z</time>
      </trkpt>
      <trkpt lat="43.098617999999625" lon="-1.2410410000000052">
        <ele>879.226</ele>
        <time>2022-08-24T08:29:24Z</time>
      </trkpt>
      <trkpt lat="43.098600999999626" lon="-1.2410460000000052">
        <ele>879.409</ele>
        <time>2022-08-24T08:29:25Z</time>
      </trkpt>
      <trkpt lat="43.098586999999625" lon="-1.241050000000005">
        <ele>879.669</ele>
        <time>2022-08-24T08:29:26Z</time>
      </trkpt>
      <trkpt lat="43.09857399999962" lon="-1.241051000000005">
        <ele>879.869</ele>
        <time>2022-08-24T08:29:27Z</time>
      </trkpt>
      <trkpt lat="43.09856399999962" lon="-1.241053000000005">
        <ele>880.069</ele>
        <time>2022-08-24T08:29:28Z</time>
      </trkpt>
      <trkpt lat="43.09854999999962" lon="-1.2410550000000051">
        <ele>880.235</ele>
        <time>2022-08-24T08:29:29Z</time>
      </trkpt>
      <trkpt lat="43.09852999999962" lon="-1.2410570000000052">
        <ele>880.437</ele>
        <time>2022-08-24T08:29:30Z</time>
      </trkpt>
      <trkpt lat="43.09851599999962" lon="-1.2410620000000052">
        <ele>880.474</ele>
        <time>2022-08-24T08:29:31Z</time>
      </trkpt>
      <trkpt lat="43.09850199999962" lon="-1.2410690000000053">
        <ele>880.857</ele>
        <time>2022-08-24T08:29:32Z</time>
      </trkpt>
      <trkpt lat="43.09849099999962" lon="-1.2410710000000054">
        <ele>881.041</ele>
        <time>2022-08-24T08:29:33Z</time>
      </trkpt>
      <trkpt lat="43.09847699999962" lon="-1.2410760000000054">
        <ele>881.270</ele>
        <time>2022-08-24T08:29:34Z</time>
      </trkpt>
      <trkpt lat="43.098463999999616" lon="-1.2410800000000053">
        <ele>881.435</ele>
        <time>2022-08-24T08:29:35Z</time>
      </trkpt>
      <trkpt lat="43.09845199999962" lon="-1.2410850000000053">
        <ele>881.686</ele>
        <time>2022-08-24T08:29:36Z</time>
      </trkpt>
      <trkpt lat="43.09843999999962" lon="-1.2410910000000053">
        <ele>881.814</ele>
        <time>2022-08-24T08:29:37Z</time>
      </trkpt>
      <trkpt lat="43.09842899999962" lon="-1.2410950000000052">
        <ele>881.809</ele>
        <time>2022-08-24T08:29:38Z</time>
      </trkpt>
      <trkpt lat="43.09841599999962" lon="-1.2411000000000052">
        <ele>882.064</ele>
        <time>2022-08-24T08:29:39Z</time>
      </trkpt>
      <trkpt lat="43.09839899999962" lon="-1.241104000000005">
        <ele>882.224</ele>
        <time>2022-08-24T08:29:40Z</time>
      </trkpt>
      <trkpt lat="43.09838099999962" lon="-1.241104000000005">
        <ele>882.484</ele>
        <time>2022-08-24T08:29:41Z</time>
      </trkpt>
      <trkpt lat="43.09836999999962" lon="-1.241107000000005">
        <ele>882.450</ele>
        <time>2022-08-24T08:29:42Z</time>
      </trkpt>
      <trkpt lat="43.09835599999962" lon="-1.241113000000005">
        <ele>882.622</ele>
        <time>2022-08-24T08:29:43Z</time>
      </trkpt>
      <trkpt lat="43.09834399999962" lon="-1.241119000000005">
        <ele>882.649</ele>
        <time>2022-08-24T08:29:44Z</time>
      </trkpt>
      <trkpt lat="43.09832999999962" lon="-1.241124000000005">
        <ele>882.632</ele>
        <time>2022-08-24T08:29:45Z</time>
      </trkpt>
      <trkpt lat="43.09831799999962" lon="-1.241130000000005">
        <ele>882.856</ele>
        <time>2022-08-24T08:29:46Z</time>
      </trkpt>
      <trkpt lat="43.09830699999962" lon="-1.241130000000005">
        <ele>883.065</ele>
        <time>2022-08-24T08:29:47Z</time>
      </trkpt>
      <trkpt lat="43.098291999999624" lon="-1.241135000000005">
        <ele>883.088</ele>
        <time>2022-08-24T08:29:48Z</time>
      </trkpt>
      <trkpt lat="43.09827399999963" lon="-1.2411390000000049">
        <ele>883.424</ele>
        <time>2022-08-24T08:29:49Z</time>
      </trkpt>
      <trkpt lat="43.098257999999625" lon="-1.2411470000000049">
        <ele>883.426</ele>
        <time>2022-08-24T08:29:50Z</time>
      </trkpt>
      <trkpt lat="43.09824299999963" lon="-1.2411560000000048">
        <ele>883.809</ele>
        <time>2022-08-24T08:29:51Z</time>
      </trkpt>
      <trkpt lat="43.09822499999963" lon="-1.2411640000000048">
        <ele>884.079</ele>
        <time>2022-08-24T08:29:52Z</time>
      </trkpt>
      <trkpt lat="43.09821599999963" lon="-1.2411700000000048">
        <ele>884.229</ele>
        <time>2022-08-24T08:29:53Z</time>
      </trkpt>
      <trkpt lat="43.09820199999963" lon="-1.2411800000000048">
        <ele>884.689</ele>
        <time>2022-08-24T08:29:54Z</time>
      </trkpt>
      <trkpt lat="43.09818999999963" lon="-1.241190000000005">
        <ele>884.885</ele>
        <time>2022-08-24T08:29:55Z</time>
      </trkpt>
      <trkpt lat="43.098174999999635" lon="-1.2411990000000048">
        <ele>885.297</ele>
        <time>2022-08-24T08:29:56Z</time>
      </trkpt>
      <trkpt lat="43.098160999999635" lon="-1.241209000000005">
        <ele>885.294</ele>
        <time>2022-08-24T08:29:57Z</time>
      </trkpt>
      <trkpt lat="43.098149999999634" lon="-1.241219000000005">
        <ele>885.627</ele>
        <time>2022-08-24T08:29:58Z</time>
      </trkpt>
      <trkpt lat="43.098149999999634" lon="-1.241219000000005">
        <ele>885.881</ele>
        <time>2022-08-24T08:29:59Z</time>
      </trkpt>
      <trkpt lat="43.098132999999635" lon="-1.241241000000005">
        <ele>886.060</ele>
        <time>2022-08-24T08:30:00Z</time>
      </trkpt>
      <trkpt lat="43.09812599999964" lon="-1.241248000000005">
        <ele>886.226</ele>
        <time>2022-08-24T08:30:01Z</time>
      </trkpt>
      <trkpt lat="43.09811399999964" lon="-1.241253000000005">
        <ele>886.247</ele>
        <time>2022-08-24T08:30:02Z</time>
      </trkpt>
      <trkpt lat="43.09810199999964" lon="-1.241255000000005">
        <ele>886.411</ele>
        <time>2022-08-24T08:30:03Z</time>
      </trkpt>
      <trkpt lat="43.098089999999644" lon="-1.2412510000000052">
        <ele>886.609</ele>
        <time>2022-08-24T08:30:04Z</time>
      </trkpt>
      <trkpt lat="43.09807099999964" lon="-1.2412460000000052">
        <ele>886.883</ele>
        <time>2022-08-24T08:30:05Z</time>
      </trkpt>
      <trkpt lat="43.098058999999644" lon="-1.2412510000000052">
        <ele>886.823</ele>
        <time>2022-08-24T08:30:06Z</time>
      </trkpt>
      <trkpt lat="43.09804899999964" lon="-1.2412630000000051">
        <ele>887.093</ele>
        <time>2022-08-24T08:30:07Z</time>
      </trkpt>
      <trkpt lat="43.09803999999964" lon="-1.241277000000005">
        <ele>887.249</ele>
        <time>2022-08-24T08:30:08Z</time>
      </trkpt>
      <trkpt lat="43.09802999999964" lon="-1.2412870000000051">
        <ele>887.441</ele>
        <time>2022-08-24T08:30:09Z</time>
      </trkpt>
      <trkpt lat="43.09802099999964" lon="-1.241293000000005">
        <ele>887.638</ele>
        <time>2022-08-24T08:30:10Z</time>
      </trkpt>
      <trkpt lat="43.09801199999964" lon="-1.241302000000005">
        <ele>888.061</ele>
        <time>2022-08-24T08:30:11Z</time>
      </trkpt>
      <trkpt lat="43.09800299999964" lon="-1.241309000000005">
        <ele>888.285</ele>
        <time>2022-08-24T08:30:12Z</time>
      </trkpt>
      <trkpt lat="43.09799199999964" lon="-1.2413140000000051">
        <ele>888.274</ele>
        <time>2022-08-24T08:30:13Z</time>
      </trkpt>
      <trkpt lat="43.09798099999964" lon="-1.241320000000005">
        <ele>888.434</ele>
        <time>2022-08-24T08:30:14Z</time>
      </trkpt>
      <trkpt lat="43.09796699999964" lon="-1.241328000000005">
        <ele>888.455</ele>
        <time>2022-08-24T08:30:15Z</time>
      </trkpt>
      <trkpt lat="43.097954999999644" lon="-1.241334000000005">
        <ele>888.610</ele>
        <time>2022-08-24T08:30:16Z</time>
      </trkpt>
      <trkpt lat="43.097942999999646" lon="-1.241339000000005">
        <ele>888.609</ele>
        <time>2022-08-24T08:30:17Z</time>
      </trkpt>
      <trkpt lat="43.09793299999964" lon="-1.241343000000005">
        <ele>888.824</ele>
        <time>2022-08-24T08:30:18Z</time>
      </trkpt>
      <trkpt lat="43.097923999999644" lon="-1.241348000000005">
        <ele>889.024</ele>
        <time>2022-08-24T08:30:19Z</time>
      </trkpt>
      <trkpt lat="43.09791599999964" lon="-1.241356000000005">
        <ele>889.274</ele>
        <time>2022-08-24T08:30:20Z</time>
      </trkpt>
      <trkpt lat="43.09790799999964" lon="-1.241369000000005">
        <ele>889.230</ele>
        <time>2022-08-24T08:30:21Z</time>
      </trkpt>
      <trkpt lat="43.09789799999964" lon="-1.2413760000000051">
        <ele>889.632</ele>
        <time>2022-08-24T08:30:22Z</time>
      </trkpt>
      <trkpt lat="43.09788099999964" lon="-1.241374000000005">
        <ele>889.879</ele>
        <time>2022-08-24T08:30:23Z</time>
      </trkpt>
      <trkpt lat="43.09786999999964" lon="-1.241377000000005">
        <ele>889.842</ele>
        <time>2022-08-24T08:30:24Z</time>
      </trkpt>
      <trkpt lat="43.09786199999964" lon="-1.2413790000000051">
        <ele>890.096</ele>
        <time>2022-08-24T08:30:25Z</time>
      </trkpt>
      <trkpt lat="43.09784999999964" lon="-1.241383000000005">
        <ele>890.265</ele>
        <time>2022-08-24T08:30:26Z</time>
      </trkpt>
      <trkpt lat="43.09783599999964" lon="-1.241390000000005">
        <ele>890.466</ele>
        <time>2022-08-24T08:30:27Z</time>
      </trkpt>
      <trkpt lat="43.09782499999964" lon="-1.2413950000000051">
        <ele>890.629</ele>
        <time>2022-08-24T08:30:28Z</time>
      </trkpt>
      <trkpt lat="43.09781299999964" lon="-1.241398000000005">
        <ele>890.621</ele>
        <time>2022-08-24T08:30:29Z</time>
      </trkpt>
      <trkpt lat="43.09780099999964" lon="-1.241402000000005">
        <ele>890.809</ele>
        <time>2022-08-24T08:30:30Z</time>
      </trkpt>
      <trkpt lat="43.09778899999964" lon="-1.241407000000005">
        <ele>890.857</ele>
        <time>2022-08-24T08:30:31Z</time>
      </trkpt>
      <trkpt lat="43.09777599999964" lon="-1.241409000000005">
        <ele>891.077</ele>
        <time>2022-08-24T08:30:32Z</time>
      </trkpt>
      <trkpt lat="43.09776699999964" lon="-1.2414110000000051">
        <ele>891.287</ele>
        <time>2022-08-24T08:30:33Z</time>
      </trkpt>
      <trkpt lat="43.09775399999964" lon="-1.2414140000000051">
        <ele>891.433</ele>
        <time>2022-08-24T08:30:34Z</time>
      </trkpt>
      <trkpt lat="43.09774299999964" lon="-1.241415000000005">
        <ele>891.645</ele>
        <time>2022-08-24T08:30:35Z</time>
      </trkpt>
      <trkpt lat="43.09773099999964" lon="-1.2414140000000051">
        <ele>891.612</ele>
        <time>2022-08-24T08:30:36Z</time>
      </trkpt>
      <trkpt lat="43.09771899999964" lon="-1.2414140000000051">
        <ele>892.065</ele>
        <time>2022-08-24T08:30:37Z</time>
      </trkpt>
      <trkpt lat="43.09770499999964" lon="-1.241417000000005">
        <ele>892.029</ele>
        <time>2022-08-24T08:30:38Z</time>
      </trkpt>
      <trkpt lat="43.09769199999964" lon="-1.241420000000005">
        <ele>892.488</ele>
        <time>2022-08-24T08:30:39Z</time>
      </trkpt>
      <trkpt lat="43.09768099999964" lon="-1.2414190000000052">
        <ele>892.643</ele>
        <time>2022-08-24T08:30:40Z</time>
      </trkpt>
      <trkpt lat="43.09766899999964" lon="-1.2414190000000052">
        <ele>892.664</ele>
        <time>2022-08-24T08:30:41Z</time>
      </trkpt>
      <trkpt lat="43.09765599999964" lon="-1.241420000000005">
        <ele>892.610</ele>
        <time>2022-08-24T08:30:42Z</time>
      </trkpt>
      <trkpt lat="43.09764699999964" lon="-1.241421000000005">
        <ele>892.609</ele>
        <time>2022-08-24T08:30:43Z</time>
      </trkpt>
      <trkpt lat="43.09763599999964" lon="-1.2414250000000049">
        <ele>892.875</ele>
        <time>2022-08-24T08:30:44Z</time>
      </trkpt>
      <trkpt lat="43.09762499999964" lon="-1.2414290000000048">
        <ele>893.035</ele>
        <time>2022-08-24T08:30:45Z</time>
      </trkpt>
      <trkpt lat="43.097614999999635" lon="-1.2414300000000047">
        <ele>893.415</ele>
        <time>2022-08-24T08:30:46Z</time>
      </trkpt>
      <trkpt lat="43.09760199999963" lon="-1.2414250000000047">
        <ele>893.671</ele>
        <time>2022-08-24T08:30:47Z</time>
      </trkpt>
      <trkpt lat="43.09759099999963" lon="-1.2414230000000046">
        <ele>893.843</ele>
        <time>2022-08-24T08:30:48Z</time>
      </trkpt>
      <trkpt lat="43.09757999999963" lon="-1.2414200000000046">
        <ele>894.070</ele>
        <time>2022-08-24T08:30:49Z</time>
      </trkpt>
      <trkpt lat="43.09757199999963" lon="-1.2414190000000047">
        <ele>894.053</ele>
        <time>2022-08-24T08:30:50Z</time>
      </trkpt>
      <trkpt lat="43.09755999999963" lon="-1.2414230000000046">
        <ele>894.287</ele>
        <time>2022-08-24T08:30:51Z</time>
      </trkpt>
      <trkpt lat="43.09755099999963" lon="-1.2414210000000045">
        <ele>894.466</ele>
        <time>2022-08-24T08:30:52Z</time>
      </trkpt>
      <trkpt lat="43.09754099999963" lon="-1.2414160000000045">
        <ele>894.641</ele>
        <time>2022-08-24T08:30:53Z</time>
      </trkpt>
      <trkpt lat="43.09752999999963" lon="-1.2414110000000045">
        <ele>894.881</ele>
        <time>2022-08-24T08:30:54Z</time>
      </trkpt>
      <trkpt lat="43.09751699999963" lon="-1.2414110000000045">
        <ele>894.809</ele>
        <time>2022-08-24T08:30:55Z</time>
      </trkpt>
      <trkpt lat="43.09750799999963" lon="-1.2414150000000044">
        <ele>895.009</ele>
        <time>2022-08-24T08:30:56Z</time>
      </trkpt>
      <trkpt lat="43.09749699999963" lon="-1.2414190000000043">
        <ele>895.215</ele>
        <time>2022-08-24T08:30:57Z</time>
      </trkpt>
      <trkpt lat="43.09748799999963" lon="-1.2414250000000042">
        <ele>895.485</ele>
        <time>2022-08-24T08:30:58Z</time>
      </trkpt>
      <trkpt lat="43.09747999999963" lon="-1.2414320000000043">
        <ele>895.685</ele>
        <time>2022-08-24T08:30:59Z</time>
      </trkpt>
      <trkpt lat="43.09747099999963" lon="-1.2414370000000043">
        <ele>895.641</ele>
        <time>2022-08-24T08:31:00Z</time>
      </trkpt>
      <trkpt lat="43.097460999999626" lon="-1.2414420000000044">
        <ele>895.853</ele>
        <time>2022-08-24T08:31:01Z</time>
      </trkpt>
      <trkpt lat="43.097449999999625" lon="-1.2414400000000043">
        <ele>895.830</ele>
        <time>2022-08-24T08:31:02Z</time>
      </trkpt>
      <trkpt lat="43.09743999999962" lon="-1.2414280000000044">
        <ele>896.033</ele>
        <time>2022-08-24T08:31:03Z</time>
      </trkpt>
      <trkpt lat="43.09742999999962" lon="-1.2414240000000045">
        <ele>896.287</ele>
        <time>2022-08-24T08:31:04Z</time>
      </trkpt>
      <trkpt lat="43.09741799999962" lon="-1.2414250000000044">
        <ele>896.476</ele>
        <time>2022-08-24T08:31:05Z</time>
      </trkpt>
      <trkpt lat="43.09741199999962" lon="-1.2414290000000043">
        <ele>896.675</ele>
        <time>2022-08-24T08:31:06Z</time>
      </trkpt>
      <trkpt lat="43.09740399999962" lon="-1.2414380000000043">
        <ele>896.628</ele>
        <time>2022-08-24T08:31:07Z</time>
      </trkpt>
      <trkpt lat="43.097399999999624" lon="-1.2414440000000042">
        <ele>897.020</ele>
        <time>2022-08-24T08:31:08Z</time>
      </trkpt>
      <trkpt lat="43.097399999999624" lon="-1.2414450000000041">
        <ele>897.209</ele>
        <time>2022-08-24T08:31:09Z</time>
      </trkpt>
      <trkpt lat="43.09739299999963" lon="-1.2414470000000042">
        <ele>897.488</ele>
        <time>2022-08-24T08:31:10Z</time>
      </trkpt>
      <trkpt lat="43.097384999999626" lon="-1.2414550000000042">
        <ele>897.658</ele>
        <time>2022-08-24T08:31:11Z</time>
      </trkpt>
      <trkpt lat="43.097376999999625" lon="-1.2414630000000042">
        <ele>897.628</ele>
        <time>2022-08-24T08:31:12Z</time>
      </trkpt>
      <trkpt lat="43.097368999999624" lon="-1.2414690000000042">
        <ele>897.864</ele>
        <time>2022-08-24T08:31:13Z</time>
      </trkpt>
      <trkpt lat="43.09736099999962" lon="-1.2414740000000042">
        <ele>897.836</ele>
        <time>2022-08-24T08:31:14Z</time>
      </trkpt>
      <trkpt lat="43.097351999999624" lon="-1.2414790000000042">
        <ele>898.023</ele>
        <time>2022-08-24T08:31:15Z</time>
      </trkpt>
      <trkpt lat="43.09734199999962" lon="-1.2414810000000043">
        <ele>897.886</ele>
        <time>2022-08-24T08:31:16Z</time>
      </trkpt>
      <trkpt lat="43.09733299999962" lon="-1.2414840000000043">
        <ele>898.030</ele>
        <time>2022-08-24T08:31:17Z</time>
      </trkpt>
      <trkpt lat="43.097323999999624" lon="-1.2414900000000042">
        <ele>898.059</ele>
        <time>2022-08-24T08:31:18Z</time>
      </trkpt>
      <trkpt lat="43.09731399999962" lon="-1.2414980000000042">
        <ele>898.268</ele>
        <time>2022-08-24T08:31:19Z</time>
      </trkpt>
      <trkpt lat="43.09730499999962" lon="-1.2415060000000042">
        <ele>898.242</ele>
        <time>2022-08-24T08:31:20Z</time>
      </trkpt>
      <trkpt lat="43.09729499999962" lon="-1.2415080000000043">
        <ele>898.226</ele>
        <time>2022-08-24T08:31:21Z</time>
      </trkpt>
      <trkpt lat="43.09728599999962" lon="-1.2415110000000043">
        <ele>898.609</ele>
        <time>2022-08-24T08:31:22Z</time>
      </trkpt>
      <trkpt lat="43.09727399999962" lon="-1.2415130000000043">
        <ele>898.677</ele>
        <time>2022-08-24T08:31:23Z</time>
      </trkpt>
      <trkpt lat="43.09727399999962" lon="-1.2415130000000043">
        <ele>898.677</ele>
        <time>2022-08-24T08:31:24Z</time>
      </trkpt>
      <trkpt lat="43.09724999999962" lon="-1.2415210000000043">
        <ele>899.077</ele>
        <time>2022-08-24T08:31:25Z</time>
      </trkpt>
      <trkpt lat="43.097239999999616" lon="-1.2415290000000043">
        <ele>899.083</ele>
        <time>2022-08-24T08:31:26Z</time>
      </trkpt>
      <trkpt lat="43.09723099999962" lon="-1.2415370000000043">
        <ele>899.255</ele>
        <time>2022-08-24T08:31:27Z</time>
      </trkpt>
      <trkpt lat="43.09722399999962" lon="-1.2415480000000043">
        <ele>899.472</ele>
        <time>2022-08-24T08:31:28Z</time>
      </trkpt>
      <trkpt lat="43.09721599999962" lon="-1.2415570000000042">
        <ele>899.685</ele>
        <time>2022-08-24T08:31:29Z</time>
      </trkpt>
      <trkpt lat="43.09720799999962" lon="-1.2415650000000042">
        <ele>899.839</ele>
        <time>2022-08-24T08:31:30Z</time>
      </trkpt>
      <trkpt lat="43.09719999999962" lon="-1.2415730000000043">
        <ele>900.058</ele>
        <time>2022-08-24T08:31:31Z</time>
      </trkpt>
      <trkpt lat="43.097189999999614" lon="-1.2415790000000042">
        <ele>900.067</ele>
        <time>2022-08-24T08:31:32Z</time>
      </trkpt>
      <trkpt lat="43.09717999999961" lon="-1.2415800000000041">
        <ele>900.281</ele>
        <time>2022-08-24T08:31:33Z</time>
      </trkpt>
      <trkpt lat="43.09716899999961" lon="-1.241578000000004">
        <ele>900.419</ele>
        <time>2022-08-24T08:31:34Z</time>
      </trkpt>
      <trkpt lat="43.09715699999961" lon="-1.241579000000004">
        <ele>900.609</ele>
        <time>2022-08-24T08:31:35Z</time>
      </trkpt>
      <trkpt lat="43.09714299999961" lon="-1.241582000000004">
        <ele>900.627</ele>
        <time>2022-08-24T08:31:36Z</time>
      </trkpt>
      <trkpt lat="43.09713299999961" lon="-1.241587000000004">
        <ele>900.827</ele>
        <time>2022-08-24T08:31:37Z</time>
      </trkpt>
      <trkpt lat="43.09712199999961" lon="-1.241597000000004">
        <ele>900.897</ele>
        <time>2022-08-24T08:31:38Z</time>
      </trkpt>
      <trkpt lat="43.09711399999961" lon="-1.2416070000000041">
        <ele>901.013</ele>
        <time>2022-08-24T08:31:39Z</time>
      </trkpt>
      <trkpt lat="43.09711399999961" lon="-1.2416070000000041">
        <ele>901.235</ele>
        <time>2022-08-24T08:31:40Z</time>
      </trkpt>
      <trkpt lat="43.097097999999605" lon="-1.241627000000004">
        <ele>901.242</ele>
        <time>2022-08-24T08:31:41Z</time>
      </trkpt>
      <trkpt lat="43.097086999999604" lon="-1.241636000000004">
        <ele>901.465</ele>
        <time>2022-08-24T08:31:42Z</time>
      </trkpt>
      <trkpt lat="43.0970759999996" lon="-1.2416400000000039">
        <ele>901.489</ele>
        <time>2022-08-24T08:31:43Z</time>
      </trkpt>
      <trkpt lat="43.0970659999996" lon="-1.2416450000000039">
        <ele>901.438</ele>
        <time>2022-08-24T08:31:44Z</time>
      </trkpt>
      <trkpt lat="43.0970559999996" lon="-1.241652000000004">
        <ele>901.671</ele>
        <time>2022-08-24T08:31:45Z</time>
      </trkpt>
      <trkpt lat="43.0970469999996" lon="-1.241662000000004">
        <ele>901.641</ele>
        <time>2022-08-24T08:31:46Z</time>
      </trkpt>
      <trkpt lat="43.0970389999996" lon="-1.241672000000004">
        <ele>901.815</ele>
        <time>2022-08-24T08:31:47Z</time>
      </trkpt>
      <trkpt lat="43.0970269999996" lon="-1.2416820000000042">
        <ele>902.009</ele>
        <time>2022-08-24T08:31:48Z</time>
      </trkpt>
      <trkpt lat="43.097016999999596" lon="-1.2416890000000043">
        <ele>902.238</ele>
        <time>2022-08-24T08:31:49Z</time>
      </trkpt>
      <trkpt lat="43.09700699999959" lon="-1.2416930000000042">
        <ele>902.238</ele>
        <time>2022-08-24T08:31:50Z</time>
      </trkpt>
      <trkpt lat="43.09699899999959" lon="-1.241697000000004">
        <ele>902.468</ele>
        <time>2022-08-24T08:31:51Z</time>
      </trkpt>
      <trkpt lat="43.09698899999959" lon="-1.241701000000004">
        <ele>902.484</ele>
        <time>2022-08-24T08:31:52Z</time>
      </trkpt>
      <trkpt lat="43.096975999999586" lon="-1.241708000000004">
        <ele>902.446</ele>
        <time>2022-08-24T08:31:53Z</time>
      </trkpt>
      <trkpt lat="43.09696299999958" lon="-1.2417150000000041">
        <ele>902.693</ele>
        <time>2022-08-24T08:31:54Z</time>
      </trkpt>
      <trkpt lat="43.09695199999958" lon="-1.241719000000004">
        <ele>902.856</ele>
        <time>2022-08-24T08:31:55Z</time>
      </trkpt>
      <trkpt lat="43.09694699999958" lon="-1.241721000000004">
        <ele>903.050</ele>
        <time>2022-08-24T08:31:56Z</time>
      </trkpt>
      <trkpt lat="43.09693599999958" lon="-1.241726000000004">
        <ele>903.249</ele>
        <time>2022-08-24T08:31:57Z</time>
      </trkpt>
      <trkpt lat="43.09692699999958" lon="-1.2417340000000041">
        <ele>903.672</ele>
        <time>2022-08-24T08:31:58Z</time>
      </trkpt>
      <trkpt lat="43.09691599999958" lon="-1.241745000000004">
        <ele>903.613</ele>
        <time>2022-08-24T08:31:59Z</time>
      </trkpt>
      <trkpt lat="43.09690699999958" lon="-1.241749000000004">
        <ele>903.814</ele>
        <time>2022-08-24T08:32:00Z</time>
      </trkpt>
      <trkpt lat="43.096891999999585" lon="-1.2417530000000039">
        <ele>904.009</ele>
        <time>2022-08-24T08:32:01Z</time>
      </trkpt>
      <trkpt lat="43.096882999999586" lon="-1.241752000000004">
        <ele>904.018</ele>
        <time>2022-08-24T08:32:02Z</time>
      </trkpt>
      <trkpt lat="43.09687099999959" lon="-1.241749000000004">
        <ele>904.288</ele>
        <time>2022-08-24T08:32:03Z</time>
      </trkpt>
      <trkpt lat="43.09685999999959" lon="-1.241752000000004">
        <ele>904.468</ele>
        <time>2022-08-24T08:32:04Z</time>
      </trkpt>
      <trkpt lat="43.09685099999959" lon="-1.241758000000004">
        <ele>904.644</ele>
        <time>2022-08-24T08:32:05Z</time>
      </trkpt>
      <trkpt lat="43.09684499999959" lon="-1.241765000000004">
        <ele>904.826</ele>
        <time>2022-08-24T08:32:06Z</time>
      </trkpt>
      <trkpt lat="43.09683499999959" lon="-1.241771000000004">
        <ele>904.853</ele>
        <time>2022-08-24T08:32:07Z</time>
      </trkpt>
      <trkpt lat="43.09682299999959" lon="-1.241777000000004">
        <ele>905.076</ele>
        <time>2022-08-24T08:32:08Z</time>
      </trkpt>
      <trkpt lat="43.09680799999959" lon="-1.2417800000000039">
        <ele>905.060</ele>
        <time>2022-08-24T08:32:09Z</time>
      </trkpt>
      <trkpt lat="43.09679799999959" lon="-1.2417810000000038">
        <ele>905.229</ele>
        <time>2022-08-24T08:32:10Z</time>
      </trkpt>
      <trkpt lat="43.096787999999584" lon="-1.2417860000000038">
        <ele>905.482</ele>
        <time>2022-08-24T08:32:11Z</time>
      </trkpt>
      <trkpt lat="43.09678099999959" lon="-1.2417870000000037">
        <ele>905.643</ele>
        <time>2022-08-24T08:32:12Z</time>
      </trkpt>
      <trkpt lat="43.096770999999585" lon="-1.2417900000000037">
        <ele>905.617</ele>
        <time>2022-08-24T08:32:13Z</time>
      </trkpt>
      <trkpt lat="43.09675899999959" lon="-1.2417920000000038">
        <ele>905.609</ele>
        <time>2022-08-24T08:32:14Z</time>
      </trkpt>
      <trkpt lat="43.096745999999584" lon="-1.2417950000000038">
        <ele>905.889</ele>
        <time>2022-08-24T08:32:15Z</time>
      </trkpt>
      <trkpt lat="43.09673599999958" lon="-1.2417990000000036">
        <ele>906.039</ele>
        <time>2022-08-24T08:32:16Z</time>
      </trkpt>
      <trkpt lat="43.09672799999958" lon="-1.2418030000000035">
        <ele>906.269</ele>
        <time>2022-08-24T08:32:17Z</time>
      </trkpt>
      <trkpt lat="43.09671699999958" lon="-1.2418080000000036">
        <ele>906.265</ele>
        <time>2022-08-24T08:32:18Z</time>
      </trkpt>
      <trkpt lat="43.09670299999958" lon="-1.2418160000000036">
        <ele>906.237</ele>
        <time>2022-08-24T08:32:19Z</time>
      </trkpt>
      <trkpt lat="43.09669199999958" lon="-1.2418210000000036">
        <ele>906.474</ele>
        <time>2022-08-24T08:32:20Z</time>
      </trkpt>
      <trkpt lat="43.09668499999958" lon="-1.2418230000000037">
        <ele>906.447</ele>
        <time>2022-08-24T08:32:21Z</time>
      </trkpt>
      <trkpt lat="43.09667299999958" lon="-1.2418270000000036">
        <ele>906.821</ele>
        <time>2022-08-24T08:32:22Z</time>
      </trkpt>
      <trkpt lat="43.09665899999958" lon="-1.2418310000000035">
        <ele>906.810</ele>
        <time>2022-08-24T08:32:23Z</time>
      </trkpt>
      <trkpt lat="43.09664799999958" lon="-1.2418360000000035">
        <ele>907.025</ele>
        <time>2022-08-24T08:32:24Z</time>
      </trkpt>
      <trkpt lat="43.09663199999958" lon="-1.2418420000000034">
        <ele>907.226</ele>
        <time>2022-08-24T08:32:25Z</time>
      </trkpt>
      <trkpt lat="43.09661799999958" lon="-1.2418500000000035">
        <ele>907.208</ele>
        <time>2022-08-24T08:32:26Z</time>
      </trkpt>
      <trkpt lat="43.09660899999958" lon="-1.2418530000000034">
        <ele>907.409</ele>
        <time>2022-08-24T08:32:27Z</time>
      </trkpt>
      <trkpt lat="43.09659599999958" lon="-1.2418540000000033">
        <ele>907.663</ele>
        <time>2022-08-24T08:32:28Z</time>
      </trkpt>
      <trkpt lat="43.09657599999958" lon="-1.2418560000000034">
        <ele>907.673</ele>
        <time>2022-08-24T08:32:29Z</time>
      </trkpt>
      <trkpt lat="43.09656199999958" lon="-1.2418640000000034">
        <ele>907.883</ele>
        <time>2022-08-24T08:32:30Z</time>
      </trkpt>
      <trkpt lat="43.096551999999576" lon="-1.2418690000000034">
        <ele>908.039</ele>
        <time>2022-08-24T08:32:31Z</time>
      </trkpt>
      <trkpt lat="43.096537999999576" lon="-1.2418710000000035">
        <ele>908.081</ele>
        <time>2022-08-24T08:32:32Z</time>
      </trkpt>
      <trkpt lat="43.096523999999576" lon="-1.2418750000000034">
        <ele>908.238</ele>
        <time>2022-08-24T08:32:33Z</time>
      </trkpt>
      <trkpt lat="43.096507999999574" lon="-1.2418820000000035">
        <ele>908.451</ele>
        <time>2022-08-24T08:32:34Z</time>
      </trkpt>
      <trkpt lat="43.09649399999957" lon="-1.2418850000000035">
        <ele>908.675</ele>
        <time>2022-08-24T08:32:35Z</time>
      </trkpt>
      <trkpt lat="43.096481999999575" lon="-1.2418890000000034">
        <ele>908.624</ele>
        <time>2022-08-24T08:32:36Z</time>
      </trkpt>
      <trkpt lat="43.09647199999957" lon="-1.2418950000000033">
        <ele>908.827</ele>
        <time>2022-08-24T08:32:37Z</time>
      </trkpt>
      <trkpt lat="43.09645799999957" lon="-1.2419030000000033">
        <ele>909.068</ele>
        <time>2022-08-24T08:32:38Z</time>
      </trkpt>
      <trkpt lat="43.09644199999957" lon="-1.2419090000000033">
        <ele>909.214</ele>
        <time>2022-08-24T08:32:39Z</time>
      </trkpt>
      <trkpt lat="43.09642899999957" lon="-1.2419110000000033">
        <ele>909.209</ele>
        <time>2022-08-24T08:32:40Z</time>
      </trkpt>
      <trkpt lat="43.096415999999564" lon="-1.2419130000000034">
        <ele>909.413</ele>
        <time>2022-08-24T08:32:41Z</time>
      </trkpt>
      <trkpt lat="43.09640599999956" lon="-1.2419160000000034">
        <ele>909.623</ele>
        <time>2022-08-24T08:32:42Z</time>
      </trkpt>
      <trkpt lat="43.09639299999956" lon="-1.2419200000000032">
        <ele>909.623</ele>
        <time>2022-08-24T08:32:43Z</time>
      </trkpt>
      <trkpt lat="43.09637799999956" lon="-1.2419250000000033">
        <ele>910.069</ele>
        <time>2022-08-24T08:32:44Z</time>
      </trkpt>
      <trkpt lat="43.09636699999956" lon="-1.2419310000000032">
        <ele>910.061</ele>
        <time>2022-08-24T08:32:45Z</time>
      </trkpt>
      <trkpt lat="43.09635399999956" lon="-1.2419350000000031">
        <ele>910.058</ele>
        <time>2022-08-24T08:32:46Z</time>
      </trkpt>
      <trkpt lat="43.096343999999554" lon="-1.2419370000000032">
        <ele>910.441</ele>
        <time>2022-08-24T08:32:47Z</time>
      </trkpt>
      <trkpt lat="43.09633099999955" lon="-1.2419400000000032">
        <ele>910.645</ele>
        <time>2022-08-24T08:32:48Z</time>
      </trkpt>
      <trkpt lat="43.09631399999955" lon="-1.2419480000000032">
        <ele>910.814</ele>
        <time>2022-08-24T08:32:49Z</time>
      </trkpt>
      <trkpt lat="43.09630099999955" lon="-1.2419560000000032">
        <ele>911.063</ele>
        <time>2022-08-24T08:32:50Z</time>
      </trkpt>
      <trkpt lat="43.09628899999955" lon="-1.2419640000000032">
        <ele>911.044</ele>
        <time>2022-08-24T08:32:51Z</time>
      </trkpt>
      <trkpt lat="43.09628099999955" lon="-1.2419670000000032">
        <ele>911.218</ele>
        <time>2022-08-24T08:32:52Z</time>
      </trkpt>
      <trkpt lat="43.09626799999955" lon="-1.2419720000000032">
        <ele>911.209</ele>
        <time>2022-08-24T08:32:53Z</time>
      </trkpt>
      <trkpt lat="43.096251999999545" lon="-1.2419790000000033">
        <ele>911.687</ele>
        <time>2022-08-24T08:32:54Z</time>
      </trkpt>
      <trkpt lat="43.09623999999955" lon="-1.2419810000000033">
        <ele>911.687</ele>
        <time>2022-08-24T08:32:55Z</time>
      </trkpt>
      <trkpt lat="43.09622599999955" lon="-1.2419820000000033">
        <ele>911.897</ele>
        <time>2022-08-24T08:32:56Z</time>
      </trkpt>
      <trkpt lat="43.096214999999546" lon="-1.2419840000000033">
        <ele>911.883</ele>
        <time>2022-08-24T08:32:57Z</time>
      </trkpt>
      <trkpt lat="43.09620299999955" lon="-1.2419900000000033">
        <ele>912.025</ele>
        <time>2022-08-24T08:32:58Z</time>
      </trkpt>
      <trkpt lat="43.096189999999545" lon="-1.2419980000000033">
        <ele>912.452</ele>
        <time>2022-08-24T08:32:59Z</time>
      </trkpt>
      <trkpt lat="43.09618099999955" lon="-1.2420070000000032">
        <ele>912.655</ele>
        <time>2022-08-24T08:33:00Z</time>
      </trkpt>
      <trkpt lat="43.09617099999954" lon="-1.2420130000000031">
        <ele>912.839</ele>
        <time>2022-08-24T08:33:01Z</time>
      </trkpt>
      <trkpt lat="43.09616299999954" lon="-1.242017000000003">
        <ele>912.878</ele>
        <time>2022-08-24T08:33:02Z</time>
      </trkpt>
      <trkpt lat="43.09614999999954" lon="-1.242020000000003">
        <ele>912.881</ele>
        <time>2022-08-24T08:33:03Z</time>
      </trkpt>
      <trkpt lat="43.09613399999954" lon="-1.242022000000003">
        <ele>913.061</ele>
        <time>2022-08-24T08:33:04Z</time>
      </trkpt>
      <trkpt lat="43.09612299999954" lon="-1.242028000000003">
        <ele>913.217</ele>
        <time>2022-08-24T08:33:05Z</time>
      </trkpt>
      <trkpt lat="43.096112999999534" lon="-1.242038000000003">
        <ele>913.209</ele>
        <time>2022-08-24T08:33:06Z</time>
      </trkpt>
      <trkpt lat="43.09610599999954" lon="-1.2420450000000032">
        <ele>913.239</ele>
        <time>2022-08-24T08:33:07Z</time>
      </trkpt>
      <trkpt lat="43.09609699999954" lon="-1.2420520000000033">
        <ele>913.489</ele>
        <time>2022-08-24T08:33:08Z</time>
      </trkpt>
      <trkpt lat="43.096083999999536" lon="-1.2420580000000032">
        <ele>913.639</ele>
        <time>2022-08-24T08:33:09Z</time>
      </trkpt>
      <trkpt lat="43.09607099999953" lon="-1.2420650000000033">
        <ele>914.035</ele>
        <time>2022-08-24T08:33:10Z</time>
      </trkpt>
      <trkpt lat="43.09605799999953" lon="-1.2420740000000032">
        <ele>914.477</ele>
        <time>2022-08-24T08:33:11Z</time>
      </trkpt>
      <trkpt lat="43.09605199999953" lon="-1.2420780000000031">
        <ele>914.664</ele>
        <time>2022-08-24T08:33:12Z</time>
      </trkpt>
      <trkpt lat="43.09604099999953" lon="-1.2420830000000032">
        <ele>914.837</ele>
        <time>2022-08-24T08:33:13Z</time>
      </trkpt>
      <trkpt lat="43.09602999999953" lon="-1.242087000000003">
        <ele>914.831</ele>
        <time>2022-08-24T08:33:14Z</time>
      </trkpt>
      <trkpt lat="43.09601999999953" lon="-1.242091000000003">
        <ele>915.050</ele>
        <time>2022-08-24T08:33:15Z</time>
      </trkpt>
      <trkpt lat="43.096006999999524" lon="-1.2420950000000028">
        <ele>915.214</ele>
        <time>2022-08-24T08:33:16Z</time>
      </trkpt>
      <trkpt lat="43.09599699999952" lon="-1.2420980000000028">
        <ele>915.654</ele>
        <time>2022-08-24T08:33:17Z</time>
      </trkpt>
      <trkpt lat="43.09598399999952" lon="-1.2421010000000028">
        <ele>916.009</ele>
        <time>2022-08-24T08:33:18Z</time>
      </trkpt>
      <trkpt lat="43.09596699999952" lon="-1.2421080000000029">
        <ele>916.009</ele>
        <time>2022-08-24T08:33:19Z</time>
      </trkpt>
      <trkpt lat="43.095953999999516" lon="-1.242115000000003">
        <ele>916.422</ele>
        <time>2022-08-24T08:33:20Z</time>
      </trkpt>
      <trkpt lat="43.09594399999951" lon="-1.242118000000003">
        <ele>916.482</ele>
        <time>2022-08-24T08:33:21Z</time>
      </trkpt>
      <trkpt lat="43.09593399999951" lon="-1.242125000000003">
        <ele>916.442</ele>
        <time>2022-08-24T08:33:22Z</time>
      </trkpt>
      <trkpt lat="43.09592299999951" lon="-1.242133000000003">
        <ele>916.848</ele>
        <time>2022-08-24T08:33:23Z</time>
      </trkpt>
      <trkpt lat="43.09591199999951" lon="-1.2421400000000031">
        <ele>917.010</ele>
        <time>2022-08-24T08:33:24Z</time>
      </trkpt>
      <trkpt lat="43.09590099999951" lon="-1.242144000000003">
        <ele>917.067</ele>
        <time>2022-08-24T08:33:25Z</time>
      </trkpt>
      <trkpt lat="43.09588999999951" lon="-1.242149000000003">
        <ele>917.280</ele>
        <time>2022-08-24T08:33:26Z</time>
      </trkpt>
      <trkpt lat="43.095879999999504" lon="-1.2421510000000031">
        <ele>917.444</ele>
        <time>2022-08-24T08:33:27Z</time>
      </trkpt>
      <trkpt lat="43.0958689999995" lon="-1.242155000000003">
        <ele>917.413</ele>
        <time>2022-08-24T08:33:28Z</time>
      </trkpt>
      <trkpt lat="43.0958559999995" lon="-1.242164000000003">
        <ele>917.613</ele>
        <time>2022-08-24T08:33:29Z</time>
      </trkpt>
      <trkpt lat="43.0958439999995" lon="-1.2421730000000029">
        <ele>918.043</ele>
        <time>2022-08-24T08:33:30Z</time>
      </trkpt>
      <trkpt lat="43.095836999999506" lon="-1.2421840000000028">
        <ele>918.007</ele>
        <time>2022-08-24T08:33:31Z</time>
      </trkpt>
      <trkpt lat="43.0958269999995" lon="-1.2421890000000029">
        <ele>918.209</ele>
        <time>2022-08-24T08:33:32Z</time>
      </trkpt>
      <trkpt lat="43.0958159999995" lon="-1.2421930000000028">
        <ele>918.492</ele>
        <time>2022-08-24T08:33:33Z</time>
      </trkpt>
      <trkpt lat="43.095803999999504" lon="-1.2421950000000028">
        <ele>918.622</ele>
        <time>2022-08-24T08:33:34Z</time>
      </trkpt>
      <trkpt lat="43.095791999999506" lon="-1.2421980000000028">
        <ele>918.842</ele>
        <time>2022-08-24T08:33:35Z</time>
      </trkpt>
      <trkpt lat="43.09578299999951" lon="-1.242205000000003">
        <ele>919.058</ele>
        <time>2022-08-24T08:33:36Z</time>
      </trkpt>
      <trkpt lat="43.09577399999951" lon="-1.242215000000003">
        <ele>919.230</ele>
        <time>2022-08-24T08:33:37Z</time>
      </trkpt>
      <trkpt lat="43.09576299999951" lon="-1.242223000000003">
        <ele>919.237</ele>
        <time>2022-08-24T08:33:38Z</time>
      </trkpt>
      <trkpt lat="43.09575099999951" lon="-1.242226000000003">
        <ele>919.470</ele>
        <time>2022-08-24T08:33:39Z</time>
      </trkpt>
      <trkpt lat="43.09574299999951" lon="-1.2422300000000028">
        <ele>919.464</ele>
        <time>2022-08-24T08:33:40Z</time>
      </trkpt>
      <trkpt lat="43.09573499999951" lon="-1.2422360000000028">
        <ele>919.473</ele>
        <time>2022-08-24T08:33:41Z</time>
      </trkpt>
      <trkpt lat="43.095726999999506" lon="-1.2422440000000028">
        <ele>919.692</ele>
        <time>2022-08-24T08:33:42Z</time>
      </trkpt>
      <trkpt lat="43.09571799999951" lon="-1.2422500000000027">
        <ele>919.673</ele>
        <time>2022-08-24T08:33:43Z</time>
      </trkpt>
      <trkpt lat="43.09570599999951" lon="-1.2422560000000027">
        <ele>919.820</ele>
        <time>2022-08-24T08:33:44Z</time>
      </trkpt>
      <trkpt lat="43.09569699999951" lon="-1.2422620000000026">
        <ele>920.009</ele>
        <time>2022-08-24T08:33:45Z</time>
      </trkpt>
      <trkpt lat="43.09568899999951" lon="-1.2422650000000026">
        <ele>920.210</ele>
        <time>2022-08-24T08:33:46Z</time>
      </trkpt>
      <trkpt lat="43.09567799999951" lon="-1.2422690000000025">
        <ele>920.420</ele>
        <time>2022-08-24T08:33:47Z</time>
      </trkpt>
      <trkpt lat="43.09566599999951" lon="-1.2422710000000026">
        <ele>920.430</ele>
        <time>2022-08-24T08:33:48Z</time>
      </trkpt>
      <trkpt lat="43.09565299999951" lon="-1.2422760000000026">
        <ele>920.886</ele>
        <time>2022-08-24T08:33:49Z</time>
      </trkpt>
      <trkpt lat="43.095642999999505" lon="-1.2422820000000026">
        <ele>920.898</ele>
        <time>2022-08-24T08:33:50Z</time>
      </trkpt>
      <trkpt lat="43.09563399999951" lon="-1.2422870000000026">
        <ele>921.275</ele>
        <time>2022-08-24T08:33:51Z</time>
      </trkpt>
      <trkpt lat="43.09562199999951" lon="-1.2422920000000026">
        <ele>921.258</ele>
        <time>2022-08-24T08:33:52Z</time>
      </trkpt>
      <trkpt lat="43.09560999999951" lon="-1.2422990000000027">
        <ele>921.422</ele>
        <time>2022-08-24T08:33:53Z</time>
      </trkpt>
      <trkpt lat="43.09559999999951" lon="-1.2423080000000026">
        <ele>921.481</ele>
        <time>2022-08-24T08:33:54Z</time>
      </trkpt>
      <trkpt lat="43.09558799999951" lon="-1.2423160000000026">
        <ele>921.657</ele>
        <time>2022-08-24T08:33:55Z</time>
      </trkpt>
      <trkpt lat="43.095577999999506" lon="-1.2423210000000027">
        <ele>921.800</ele>
        <time>2022-08-24T08:33:56Z</time>
      </trkpt>
      <trkpt lat="43.0955679999995" lon="-1.2423230000000027">
        <ele>921.820</ele>
        <time>2022-08-24T08:33:57Z</time>
      </trkpt>
      <trkpt lat="43.095552999999505" lon="-1.2423260000000027">
        <ele>922.009</ele>
        <time>2022-08-24T08:33:58Z</time>
      </trkpt>
      <trkpt lat="43.0955339999995" lon="-1.2423310000000027">
        <ele>922.236</ele>
        <time>2022-08-24T08:33:59Z</time>
      </trkpt>
      <trkpt lat="43.0955209999995" lon="-1.2423390000000027">
        <ele>922.466</ele>
        <time>2022-08-24T08:34:00Z</time>
      </trkpt>
      <trkpt lat="43.0955119999995" lon="-1.2423480000000027">
        <ele>922.646</ele>
        <time>2022-08-24T08:34:01Z</time>
      </trkpt>
      <trkpt lat="43.0955039999995" lon="-1.2423570000000026">
        <ele>922.632</ele>
        <time>2022-08-24T08:34:02Z</time>
      </trkpt>
      <trkpt lat="43.0954939999995" lon="-1.2423660000000025">
        <ele>923.034</ele>
        <time>2022-08-24T08:34:03Z</time>
      </trkpt>
      <trkpt lat="43.095480999999495" lon="-1.2423730000000026">
        <ele>923.071</ele>
        <time>2022-08-24T08:34:04Z</time>
      </trkpt>
      <trkpt lat="43.09546799999949" lon="-1.2423760000000026">
        <ele>923.224</ele>
        <time>2022-08-24T08:34:05Z</time>
      </trkpt>
      <trkpt lat="43.09545699999949" lon="-1.2423770000000025">
        <ele>923.448</ele>
        <time>2022-08-24T08:34:06Z</time>
      </trkpt>
      <trkpt lat="43.09544099999949" lon="-1.2423770000000025">
        <ele>923.687</ele>
        <time>2022-08-24T08:34:07Z</time>
      </trkpt>
      <trkpt lat="43.09542499999949" lon="-1.2423780000000024">
        <ele>923.866</ele>
        <time>2022-08-24T08:34:08Z</time>
      </trkpt>
      <trkpt lat="43.095405999999485" lon="-1.2423830000000025">
        <ele>924.029</ele>
        <time>2022-08-24T08:34:09Z</time>
      </trkpt>
      <trkpt lat="43.09538999999948" lon="-1.2423870000000024">
        <ele>924.221</ele>
        <time>2022-08-24T08:34:10Z</time>
      </trkpt>
      <trkpt lat="43.09537899999948" lon="-1.2423860000000024">
        <ele>924.409</ele>
        <time>2022-08-24T08:34:11Z</time>
      </trkpt>
      <trkpt lat="43.095366999999484" lon="-1.2423840000000024">
        <ele>924.447</ele>
        <time>2022-08-24T08:34:12Z</time>
      </trkpt>
      <trkpt lat="43.095355999999484" lon="-1.2423840000000024">
        <ele>924.827</ele>
        <time>2022-08-24T08:34:13Z</time>
      </trkpt>
      <trkpt lat="43.095341999999484" lon="-1.2423840000000024">
        <ele>925.027</ele>
        <time>2022-08-24T08:34:14Z</time>
      </trkpt>
      <trkpt lat="43.09532899999948" lon="-1.2423860000000024">
        <ele>925.223</ele>
        <time>2022-08-24T08:34:15Z</time>
      </trkpt>
      <trkpt lat="43.09531699999948" lon="-1.2423860000000024">
        <ele>925.235</ele>
        <time>2022-08-24T08:34:16Z</time>
      </trkpt>
      <trkpt lat="43.09530299999948" lon="-1.2423880000000025">
        <ele>925.482</ele>
        <time>2022-08-24T08:34:17Z</time>
      </trkpt>
      <trkpt lat="43.09529199999948" lon="-1.2423930000000025">
        <ele>925.835</ele>
        <time>2022-08-24T08:34:18Z</time>
      </trkpt>
      <trkpt lat="43.09527899999948" lon="-1.2423960000000025">
        <ele>926.089</ele>
        <time>2022-08-24T08:34:19Z</time>
      </trkpt>
      <trkpt lat="43.09526399999948" lon="-1.2423980000000026">
        <ele>926.258</ele>
        <time>2022-08-24T08:34:20Z</time>
      </trkpt>
      <trkpt lat="43.09525299999948" lon="-1.2423990000000025">
        <ele>926.296</ele>
        <time>2022-08-24T08:34:21Z</time>
      </trkpt>
      <trkpt lat="43.09523999999948" lon="-1.2423970000000024">
        <ele>926.631</ele>
        <time>2022-08-24T08:34:22Z</time>
      </trkpt>
      <trkpt lat="43.09522599999948" lon="-1.2423980000000023">
        <ele>926.824</ele>
        <time>2022-08-24T08:34:23Z</time>
      </trkpt>
      <trkpt lat="43.09521399999948" lon="-1.2423990000000023">
        <ele>926.809</ele>
        <time>2022-08-24T08:34:24Z</time>
      </trkpt>
      <trkpt lat="43.09520299999948" lon="-1.2423990000000023">
        <ele>927.070</ele>
        <time>2022-08-24T08:34:25Z</time>
      </trkpt>
      <trkpt lat="43.09519599999948" lon="-1.2424030000000021">
        <ele>927.070</ele>
        <time>2022-08-24T08:34:26Z</time>
      </trkpt>
      <trkpt lat="43.095180999999485" lon="-1.2424050000000022">
        <ele>927.230</ele>
        <time>2022-08-24T08:34:27Z</time>
      </trkpt>
      <trkpt lat="43.09516599999949" lon="-1.2424060000000021">
        <ele>927.436</ele>
        <time>2022-08-24T08:34:28Z</time>
      </trkpt>
      <trkpt lat="43.09515199999949" lon="-1.2424050000000022">
        <ele>927.678</ele>
        <time>2022-08-24T08:34:29Z</time>
      </trkpt>
      <trkpt lat="43.09513999999949" lon="-1.2424050000000022">
        <ele>927.865</ele>
        <time>2022-08-24T08:34:30Z</time>
      </trkpt>
      <trkpt lat="43.09512899999949" lon="-1.2424060000000021">
        <ele>927.888</ele>
        <time>2022-08-24T08:34:31Z</time>
      </trkpt>
      <trkpt lat="43.095115999999486" lon="-1.2424060000000021">
        <ele>928.032</ele>
        <time>2022-08-24T08:34:32Z</time>
      </trkpt>
      <trkpt lat="43.095104999999485" lon="-1.2424030000000021">
        <ele>928.241</ele>
        <time>2022-08-24T08:34:33Z</time>
      </trkpt>
      <trkpt lat="43.09509299999949" lon="-1.2423990000000023">
        <ele>928.429</ele>
        <time>2022-08-24T08:34:34Z</time>
      </trkpt>
      <trkpt lat="43.095081999999486" lon="-1.2423950000000024">
        <ele>928.600</ele>
        <time>2022-08-24T08:34:35Z</time>
      </trkpt>
      <trkpt lat="43.095076999999485" lon="-1.2423930000000023">
        <ele>928.620</ele>
        <time>2022-08-24T08:34:36Z</time>
      </trkpt>
      <trkpt lat="43.09506699999948" lon="-1.2423940000000022">
        <ele>928.809</ele>
        <time>2022-08-24T08:34:37Z</time>
      </trkpt>
      <trkpt lat="43.09505599999948" lon="-1.2423970000000022">
        <ele>929.033</ele>
        <time>2022-08-24T08:34:38Z</time>
      </trkpt>
      <trkpt lat="43.09504099999948" lon="-1.2423980000000021">
        <ele>929.223</ele>
        <time>2022-08-24T08:34:39Z</time>
      </trkpt>
      <trkpt lat="43.095028999999485" lon="-1.2424000000000022">
        <ele>929.213</ele>
        <time>2022-08-24T08:34:40Z</time>
      </trkpt>
      <trkpt lat="43.09502199999949" lon="-1.2424000000000022">
        <ele>929.499</ele>
        <time>2022-08-24T08:34:41Z</time>
      </trkpt>
      <trkpt lat="43.095011999999485" lon="-1.2423990000000023">
        <ele>929.651</ele>
        <time>2022-08-24T08:34:42Z</time>
      </trkpt>
      <trkpt lat="43.09500199999948" lon="-1.2423950000000024">
        <ele>929.668</ele>
        <time>2022-08-24T08:34:43Z</time>
      </trkpt>
      <trkpt lat="43.09498899999948" lon="-1.2423910000000025">
        <ele>929.631</ele>
        <time>2022-08-24T08:34:44Z</time>
      </trkpt>
      <trkpt lat="43.09497599999948" lon="-1.2423890000000024">
        <ele>929.865</ele>
        <time>2022-08-24T08:34:45Z</time>
      </trkpt>
      <trkpt lat="43.094967999999476" lon="-1.2423840000000024">
        <ele>930.044</ele>
        <time>2022-08-24T08:34:46Z</time>
      </trkpt>
      <trkpt lat="43.094956999999475" lon="-1.2423770000000023">
        <ele>930.211</ele>
        <time>2022-08-24T08:34:47Z</time>
      </trkpt>
      <trkpt lat="43.09494399999947" lon="-1.2423720000000023">
        <ele>930.421</ele>
        <time>2022-08-24T08:34:48Z</time>
      </trkpt>
      <trkpt lat="43.09493899999947" lon="-1.2423710000000023">
        <ele>930.803</ele>
        <time>2022-08-24T08:34:49Z</time>
      </trkpt>
      <trkpt lat="43.09492799999947" lon="-1.2423700000000024">
        <ele>930.809</ele>
        <time>2022-08-24T08:34:50Z</time>
      </trkpt>
      <trkpt lat="43.09491599999947" lon="-1.2423680000000024">
        <ele>931.022</ele>
        <time>2022-08-24T08:34:51Z</time>
      </trkpt>
      <trkpt lat="43.09490499999947" lon="-1.2423670000000024">
        <ele>931.242</ele>
        <time>2022-08-24T08:34:52Z</time>
      </trkpt>
      <trkpt lat="43.09489299999947" lon="-1.2423670000000024">
        <ele>931.222</ele>
        <time>2022-08-24T08:34:53Z</time>
      </trkpt>
      <trkpt lat="43.09488199999947" lon="-1.2423660000000025">
        <ele>931.428</ele>
        <time>2022-08-24T08:34:54Z</time>
      </trkpt>
      <trkpt lat="43.094869999999474" lon="-1.2423630000000025">
        <ele>931.660</ele>
        <time>2022-08-24T08:34:55Z</time>
      </trkpt>
      <trkpt lat="43.094860999999476" lon="-1.2423600000000026">
        <ele>931.877</ele>
        <time>2022-08-24T08:34:56Z</time>
      </trkpt>
      <trkpt lat="43.09484899999948" lon="-1.2423600000000026">
        <ele>932.020</ele>
        <time>2022-08-24T08:34:57Z</time>
      </trkpt>
      <trkpt lat="43.09483799999948" lon="-1.2423600000000026">
        <ele>932.254</ele>
        <time>2022-08-24T08:34:58Z</time>
      </trkpt>
      <trkpt lat="43.094827999999474" lon="-1.2423550000000025">
        <ele>932.283</ele>
        <time>2022-08-24T08:34:59Z</time>
      </trkpt>
      <trkpt lat="43.09481499999947" lon="-1.2423540000000026">
        <ele>932.486</ele>
        <time>2022-08-24T08:35:00Z</time>
      </trkpt>
      <trkpt lat="43.09480199999947" lon="-1.2423520000000026">
        <ele>932.460</ele>
        <time>2022-08-24T08:35:01Z</time>
      </trkpt>
      <trkpt lat="43.094791999999465" lon="-1.2423460000000026">
        <ele>932.626</ele>
        <time>2022-08-24T08:35:02Z</time>
      </trkpt>
      <trkpt lat="43.094777999999465" lon="-1.2423390000000025">
        <ele>932.609</ele>
        <time>2022-08-24T08:35:03Z</time>
      </trkpt>
      <trkpt lat="43.09476499999946" lon="-1.2423400000000024">
        <ele>932.699</ele>
        <time>2022-08-24T08:35:04Z</time>
      </trkpt>
      <trkpt lat="43.09475099999946" lon="-1.2423420000000025">
        <ele>932.839</ele>
        <time>2022-08-24T08:35:05Z</time>
      </trkpt>
      <trkpt lat="43.094738999999464" lon="-1.2423450000000025">
        <ele>933.069</ele>
        <time>2022-08-24T08:35:06Z</time>
      </trkpt>
      <trkpt lat="43.094726999999466" lon="-1.2423450000000025">
        <ele>933.295</ele>
        <time>2022-08-24T08:35:07Z</time>
      </trkpt>
      <trkpt lat="43.094715999999465" lon="-1.2423430000000024">
        <ele>933.487</ele>
        <time>2022-08-24T08:35:08Z</time>
      </trkpt>
      <trkpt lat="43.09470599999946" lon="-1.2423420000000025">
        <ele>933.484</ele>
        <time>2022-08-24T08:35:09Z</time>
      </trkpt>
      <trkpt lat="43.09469499999946" lon="-1.2423410000000026">
        <ele>933.647</ele>
        <time>2022-08-24T08:35:10Z</time>
      </trkpt>
      <trkpt lat="43.09468199999946" lon="-1.2423410000000026">
        <ele>933.851</ele>
        <time>2022-08-24T08:35:11Z</time>
      </trkpt>
      <trkpt lat="43.09467099999946" lon="-1.2423420000000025">
        <ele>933.820</ele>
        <time>2022-08-24T08:35:12Z</time>
      </trkpt>
      <trkpt lat="43.09465399999946" lon="-1.2423410000000026">
        <ele>934.089</ele>
        <time>2022-08-24T08:35:13Z</time>
      </trkpt>
      <trkpt lat="43.09464199999946" lon="-1.2423400000000027">
        <ele>934.006</ele>
        <time>2022-08-24T08:35:14Z</time>
      </trkpt>
      <trkpt lat="43.09462999999946" lon="-1.2423400000000027">
        <ele>934.226</ele>
        <time>2022-08-24T08:35:15Z</time>
      </trkpt>
      <trkpt lat="43.09461899999946" lon="-1.2423380000000026">
        <ele>934.409</ele>
        <time>2022-08-24T08:35:16Z</time>
      </trkpt>
      <trkpt lat="43.09460899999946" lon="-1.2423360000000025">
        <ele>934.629</ele>
        <time>2022-08-24T08:35:17Z</time>
      </trkpt>
      <trkpt lat="43.09459699999946" lon="-1.2423350000000026">
        <ele>934.619</ele>
        <time>2022-08-24T08:35:18Z</time>
      </trkpt>
      <trkpt lat="43.09458299999946" lon="-1.2423350000000026">
        <ele>934.879</ele>
        <time>2022-08-24T08:35:19Z</time>
      </trkpt>
      <trkpt lat="43.09457199999946" lon="-1.2423310000000027">
        <ele>935.045</ele>
        <time>2022-08-24T08:35:20Z</time>
      </trkpt>
      <trkpt lat="43.09455899999946" lon="-1.2423320000000027">
        <ele>935.237</ele>
        <time>2022-08-24T08:35:21Z</time>
      </trkpt>
      <trkpt lat="43.09454899999945" lon="-1.2423320000000027">
        <ele>935.214</ele>
        <time>2022-08-24T08:35:22Z</time>
      </trkpt>
      <trkpt lat="43.094536999999455" lon="-1.2423300000000026">
        <ele>935.497</ele>
        <time>2022-08-24T08:35:23Z</time>
      </trkpt>
      <trkpt lat="43.09452499999946" lon="-1.2423280000000025">
        <ele>935.671</ele>
        <time>2022-08-24T08:35:24Z</time>
      </trkpt>
      <trkpt lat="43.09451099999946" lon="-1.2423280000000025">
        <ele>935.860</ele>
        <time>2022-08-24T08:35:25Z</time>
      </trkpt>
      <trkpt lat="43.09450699999946" lon="-1.2423260000000025">
        <ele>935.865</ele>
        <time>2022-08-24T08:35:26Z</time>
      </trkpt>
      <trkpt lat="43.09449499999946" lon="-1.2423250000000026">
        <ele>936.068</ele>
        <time>2022-08-24T08:35:27Z</time>
      </trkpt>
      <trkpt lat="43.094482999999464" lon="-1.2423220000000026">
        <ele>936.214</ele>
        <time>2022-08-24T08:35:28Z</time>
      </trkpt>
      <trkpt lat="43.09447299999946" lon="-1.2423240000000026">
        <ele>936.409</ele>
        <time>2022-08-24T08:35:29Z</time>
      </trkpt>
      <trkpt lat="43.09445899999946" lon="-1.2423260000000027">
        <ele>936.887</ele>
        <time>2022-08-24T08:35:30Z</time>
      </trkpt>
      <trkpt lat="43.09444799999946" lon="-1.2423270000000026">
        <ele>936.837</ele>
        <time>2022-08-24T08:35:31Z</time>
      </trkpt>
      <trkpt lat="43.09443399999946" lon="-1.2423300000000026">
        <ele>937.027</ele>
        <time>2022-08-24T08:35:32Z</time>
      </trkpt>
      <trkpt lat="43.09442299999946" lon="-1.2423320000000027">
        <ele>937.443</ele>
        <time>2022-08-24T08:35:33Z</time>
      </trkpt>
      <trkpt lat="43.09440899999946" lon="-1.2423330000000026">
        <ele>937.615</ele>
        <time>2022-08-24T08:35:34Z</time>
      </trkpt>
      <trkpt lat="43.09439399999946" lon="-1.2423310000000025">
        <ele>937.692</ele>
        <time>2022-08-24T08:35:35Z</time>
      </trkpt>
      <trkpt lat="43.09438099999946" lon="-1.2423310000000025">
        <ele>937.815</ele>
        <time>2022-08-24T08:35:36Z</time>
      </trkpt>
      <trkpt lat="43.09436899999946" lon="-1.2423320000000024">
        <ele>937.899</ele>
        <time>2022-08-24T08:35:37Z</time>
      </trkpt>
      <trkpt lat="43.09435699999946" lon="-1.2423340000000025">
        <ele>938.048</ele>
        <time>2022-08-24T08:35:38Z</time>
      </trkpt>
      <trkpt lat="43.094341999999465" lon="-1.2423340000000025">
        <ele>938.417</ele>
        <time>2022-08-24T08:35:39Z</time>
      </trkpt>
      <trkpt lat="43.094327999999464" lon="-1.2423340000000025">
        <ele>938.487</ele>
        <time>2022-08-24T08:35:40Z</time>
      </trkpt>
      <trkpt lat="43.094315999999466" lon="-1.2423380000000024">
        <ele>938.815</ele>
        <time>2022-08-24T08:35:41Z</time>
      </trkpt>
      <trkpt lat="43.09430099999947" lon="-1.2423430000000024">
        <ele>939.209</ele>
        <time>2022-08-24T08:35:42Z</time>
      </trkpt>
      <trkpt lat="43.094290999999465" lon="-1.2423460000000024">
        <ele>939.442</ele>
        <time>2022-08-24T08:35:43Z</time>
      </trkpt>
      <trkpt lat="43.09428099999946" lon="-1.2423480000000025">
        <ele>939.832</ele>
        <time>2022-08-24T08:35:44Z</time>
      </trkpt>
      <trkpt lat="43.09426999999946" lon="-1.2423520000000023">
        <ele>940.072</ele>
        <time>2022-08-24T08:35:45Z</time>
      </trkpt>
      <trkpt lat="43.09425699999946" lon="-1.2423540000000024">
        <ele>940.058</ele>
        <time>2022-08-24T08:35:46Z</time>
      </trkpt>
      <trkpt lat="43.094243999999456" lon="-1.2423580000000023">
        <ele>940.040</ele>
        <time>2022-08-24T08:35:47Z</time>
      </trkpt>
      <trkpt lat="43.09423199999946" lon="-1.2423610000000023">
        <ele>940.267</ele>
        <time>2022-08-24T08:35:48Z</time>
      </trkpt>
      <trkpt lat="43.094221999999455" lon="-1.2423640000000022">
        <ele>940.460</ele>
        <time>2022-08-24T08:35:49Z</time>
      </trkpt>
      <trkpt lat="43.094212999999456" lon="-1.2423670000000022">
        <ele>940.644</ele>
        <time>2022-08-24T08:35:50Z</time>
      </trkpt>
      <trkpt lat="43.094201999999456" lon="-1.2423680000000021">
        <ele>940.683</ele>
        <time>2022-08-24T08:35:51Z</time>
      </trkpt>
      <trkpt lat="43.09419499999946" lon="-1.2423700000000022">
        <ele>940.879</ele>
        <time>2022-08-24T08:35:52Z</time>
      </trkpt>
      <trkpt lat="43.094181999999456" lon="-1.2423750000000022">
        <ele>940.805</ele>
        <time>2022-08-24T08:35:53Z</time>
      </trkpt>
      <trkpt lat="43.09416499999946" lon="-1.2423810000000022">
        <ele>941.225</ele>
        <time>2022-08-24T08:35:54Z</time>
      </trkpt>
      <trkpt lat="43.094151999999454" lon="-1.2423810000000022">
        <ele>941.209</ele>
        <time>2022-08-24T08:35:55Z</time>
      </trkpt>
      <trkpt lat="43.094139999999456" lon="-1.242382000000002">
        <ele>941.448</ele>
        <time>2022-08-24T08:35:56Z</time>
      </trkpt>
      <trkpt lat="43.09412699999945" lon="-1.2423870000000021">
        <ele>941.668</ele>
        <time>2022-08-24T08:35:57Z</time>
      </trkpt>
      <trkpt lat="43.094114999999455" lon="-1.242390000000002">
        <ele>941.688</ele>
        <time>2022-08-24T08:35:58Z</time>
      </trkpt>
      <trkpt lat="43.09410199999945" lon="-1.242391000000002">
        <ele>941.834</ele>
        <time>2022-08-24T08:35:59Z</time>
      </trkpt>
      <trkpt lat="43.09408899999945" lon="-1.242389000000002">
        <ele>942.046</ele>
        <time>2022-08-24T08:36:00Z</time>
      </trkpt>
      <trkpt lat="43.09407699999945" lon="-1.242386000000002">
        <ele>942.463</ele>
        <time>2022-08-24T08:36:01Z</time>
      </trkpt>
      <trkpt lat="43.09406299999945" lon="-1.242387000000002">
        <ele>942.476</ele>
        <time>2022-08-24T08:36:02Z</time>
      </trkpt>
      <trkpt lat="43.09405199999945" lon="-1.242392000000002">
        <ele>942.680</ele>
        <time>2022-08-24T08:36:03Z</time>
      </trkpt>
      <trkpt lat="43.09403999999945" lon="-1.242397000000002">
        <ele>942.629</ele>
        <time>2022-08-24T08:36:04Z</time>
      </trkpt>
      <trkpt lat="43.09402599999945" lon="-1.242403000000002">
        <ele>943.045</ele>
        <time>2022-08-24T08:36:05Z</time>
      </trkpt>
      <trkpt lat="43.09401599999945" lon="-1.2424070000000018">
        <ele>943.247</ele>
        <time>2022-08-24T08:36:06Z</time>
      </trkpt>
      <trkpt lat="43.09400499999945" lon="-1.2424100000000018">
        <ele>943.211</ele>
        <time>2022-08-24T08:36:07Z</time>
      </trkpt>
      <trkpt lat="43.093994999999445" lon="-1.2424120000000018">
        <ele>943.609</ele>
        <time>2022-08-24T08:36:08Z</time>
      </trkpt>
      <trkpt lat="43.093980999999445" lon="-1.2424130000000018">
        <ele>943.655</ele>
        <time>2022-08-24T08:36:09Z</time>
      </trkpt>
      <trkpt lat="43.09396499999944" lon="-1.2424190000000017">
        <ele>943.855</ele>
        <time>2022-08-24T08:36:10Z</time>
      </trkpt>
      <trkpt lat="43.09395399999944" lon="-1.2424260000000018">
        <ele>943.815</ele>
        <time>2022-08-24T08:36:11Z</time>
      </trkpt>
      <trkpt lat="43.09393999999944" lon="-1.2424300000000017">
        <ele>944.021</ele>
        <time>2022-08-24T08:36:12Z</time>
      </trkpt>
      <trkpt lat="43.09392699999944" lon="-1.2424380000000017">
        <ele>944.243</ele>
        <time>2022-08-24T08:36:13Z</time>
      </trkpt>
      <trkpt lat="43.093916999999436" lon="-1.2424410000000017">
        <ele>944.210</ele>
        <time>2022-08-24T08:36:14Z</time>
      </trkpt>
      <trkpt lat="43.09390499999944" lon="-1.2424460000000017">
        <ele>944.443</ele>
        <time>2022-08-24T08:36:15Z</time>
      </trkpt>
      <trkpt lat="43.09388999999944" lon="-1.2424540000000017">
        <ele>944.627</ele>
        <time>2022-08-24T08:36:16Z</time>
      </trkpt>
      <trkpt lat="43.09388199999944" lon="-1.2424600000000017">
        <ele>944.636</ele>
        <time>2022-08-24T08:36:17Z</time>
      </trkpt>
      <trkpt lat="43.09386899999944" lon="-1.2424640000000016">
        <ele>944.835</ele>
        <time>2022-08-24T08:36:18Z</time>
      </trkpt>
      <trkpt lat="43.093857999999436" lon="-1.2424640000000016">
        <ele>945.086</ele>
        <time>2022-08-24T08:36:19Z</time>
      </trkpt>
      <trkpt lat="43.093846999999435" lon="-1.2424640000000016">
        <ele>945.214</ele>
        <time>2022-08-24T08:36:20Z</time>
      </trkpt>
      <trkpt lat="43.09383499999944" lon="-1.2424680000000015">
        <ele>945.209</ele>
        <time>2022-08-24T08:36:21Z</time>
      </trkpt>
      <trkpt lat="43.09381999999944" lon="-1.2424770000000014">
        <ele>945.474</ele>
        <time>2022-08-24T08:36:22Z</time>
      </trkpt>
      <trkpt lat="43.09380699999944" lon="-1.2424840000000015">
        <ele>945.434</ele>
        <time>2022-08-24T08:36:23Z</time>
      </trkpt>
      <trkpt lat="43.09379199999944" lon="-1.2424900000000014">
        <ele>945.614</ele>
        <time>2022-08-24T08:36:24Z</time>
      </trkpt>
      <trkpt lat="43.09377499999944" lon="-1.2424950000000015">
        <ele>945.860</ele>
        <time>2022-08-24T08:36:25Z</time>
      </trkpt>
      <trkpt lat="43.09375899999944" lon="-1.2425060000000014">
        <ele>946.052</ele>
        <time>2022-08-24T08:36:26Z</time>
      </trkpt>
      <trkpt lat="43.093745999999435" lon="-1.2425120000000014">
        <ele>946.229</ele>
        <time>2022-08-24T08:36:27Z</time>
      </trkpt>
      <trkpt lat="43.093734999999434" lon="-1.2425140000000015">
        <ele>946.482</ele>
        <time>2022-08-24T08:36:28Z</time>
      </trkpt>
      <trkpt lat="43.09372999999943" lon="-1.2425150000000014">
        <ele>946.416</ele>
        <time>2022-08-24T08:36:29Z</time>
      </trkpt>
      <trkpt lat="43.09371599999943" lon="-1.2425200000000014">
        <ele>946.675</ele>
        <time>2022-08-24T08:36:30Z</time>
      </trkpt>
      <trkpt lat="43.09370299999943" lon="-1.2425250000000014">
        <ele>946.665</ele>
        <time>2022-08-24T08:36:31Z</time>
      </trkpt>
      <trkpt lat="43.09369099999943" lon="-1.2425290000000013">
        <ele>946.868</ele>
        <time>2022-08-24T08:36:32Z</time>
      </trkpt>
      <trkpt lat="43.09367799999943" lon="-1.2425350000000013">
        <ele>946.814</ele>
        <time>2022-08-24T08:36:33Z</time>
      </trkpt>
      <trkpt lat="43.09366599999943" lon="-1.2425400000000013">
        <ele>947.009</ele>
        <time>2022-08-24T08:36:34Z</time>
      </trkpt>
      <trkpt lat="43.09364899999943" lon="-1.2425460000000013">
        <ele>947.027</ele>
        <time>2022-08-24T08:36:35Z</time>
      </trkpt>
      <trkpt lat="43.09363599999943" lon="-1.2425520000000012">
        <ele>947.287</ele>
        <time>2022-08-24T08:36:36Z</time>
      </trkpt>
      <trkpt lat="43.09362099999943" lon="-1.2425590000000013">
        <ele>947.617</ele>
        <time>2022-08-24T08:36:37Z</time>
      </trkpt>
      <trkpt lat="43.09360799999943" lon="-1.2425640000000013">
        <ele>947.693</ele>
        <time>2022-08-24T08:36:38Z</time>
      </trkpt>
      <trkpt lat="43.09360799999943" lon="-1.2425640000000013">
        <ele>947.825</ele>
        <time>2022-08-24T08:36:39Z</time>
      </trkpt>
      <trkpt lat="43.09359699999943" lon="-1.2425690000000014">
        <ele>948.062</ele>
        <time>2022-08-24T08:36:40Z</time>
      </trkpt>
      <trkpt lat="43.093580999999425" lon="-1.2425740000000014">
        <ele>948.245</ele>
        <time>2022-08-24T08:36:41Z</time>
      </trkpt>
      <trkpt lat="43.09356899999943" lon="-1.2425810000000015">
        <ele>948.239</ele>
        <time>2022-08-24T08:36:42Z</time>
      </trkpt>
      <trkpt lat="43.09355499999943" lon="-1.2425870000000014">
        <ele>948.478</ele>
        <time>2022-08-24T08:36:43Z</time>
      </trkpt>
      <trkpt lat="43.093538999999424" lon="-1.2425900000000014">
        <ele>948.816</ele>
        <time>2022-08-24T08:36:44Z</time>
      </trkpt>
      <trkpt lat="43.093526999999426" lon="-1.2425940000000013">
        <ele>948.876</ele>
        <time>2022-08-24T08:36:45Z</time>
      </trkpt>
      <trkpt lat="43.093509999999426" lon="-1.2426070000000013">
        <ele>949.013</ele>
        <time>2022-08-24T08:36:46Z</time>
      </trkpt>
      <trkpt lat="43.09349799999943" lon="-1.2426170000000014">
        <ele>949.009</ele>
        <time>2022-08-24T08:36:47Z</time>
      </trkpt>
      <trkpt lat="43.09348299999943" lon="-1.2426300000000015">
        <ele>949.482</ele>
        <time>2022-08-24T08:36:48Z</time>
      </trkpt>
      <trkpt lat="43.09346699999943" lon="-1.2426470000000014">
        <ele>949.422</ele>
        <time>2022-08-24T08:36:49Z</time>
      </trkpt>
      <trkpt lat="43.093453999999426" lon="-1.2426580000000014">
        <ele>949.692</ele>
        <time>2022-08-24T08:36:50Z</time>
      </trkpt>
      <trkpt lat="43.09343599999943" lon="-1.2426690000000014">
        <ele>949.638</ele>
        <time>2022-08-24T08:36:51Z</time>
      </trkpt>
      <trkpt lat="43.09342199999943" lon="-1.2426760000000014">
        <ele>949.810</ele>
        <time>2022-08-24T08:36:52Z</time>
      </trkpt>
      <trkpt lat="43.09340699999943" lon="-1.2426830000000015">
        <ele>950.037</ele>
        <time>2022-08-24T08:36:53Z</time>
      </trkpt>
      <trkpt lat="43.09339599999943" lon="-1.2426900000000016">
        <ele>950.040</ele>
        <time>2022-08-24T08:36:54Z</time>
      </trkpt>
      <trkpt lat="43.09338099999943" lon="-1.2426970000000017">
        <ele>950.264</ele>
        <time>2022-08-24T08:36:55Z</time>
      </trkpt>
      <trkpt lat="43.093365999999435" lon="-1.2427060000000016">
        <ele>950.263</ele>
        <time>2022-08-24T08:36:56Z</time>
      </trkpt>
      <trkpt lat="43.093351999999435" lon="-1.2427160000000017">
        <ele>950.267</ele>
        <time>2022-08-24T08:36:57Z</time>
      </trkpt>
      <trkpt lat="43.093339999999436" lon="-1.2427210000000017">
        <ele>950.481</ele>
        <time>2022-08-24T08:36:58Z</time>
      </trkpt>
      <trkpt lat="43.093325999999436" lon="-1.2427250000000016">
        <ele>950.419</ele>
        <time>2022-08-24T08:36:59Z</time>
      </trkpt>
      <trkpt lat="43.093311999999436" lon="-1.2427310000000016">
        <ele>950.609</ele>
        <time>2022-08-24T08:37:00Z</time>
      </trkpt>
      <trkpt lat="43.09329899999943" lon="-1.2427420000000016">
        <ele>950.827</ele>
        <time>2022-08-24T08:37:01Z</time>
      </trkpt>
      <trkpt lat="43.093283999999436" lon="-1.2427490000000017">
        <ele>951.077</ele>
        <time>2022-08-24T08:37:02Z</time>
      </trkpt>
      <trkpt lat="43.09327099999943" lon="-1.2427560000000017">
        <ele>951.267</ele>
        <time>2022-08-24T08:37:03Z</time>
      </trkpt>
      <trkpt lat="43.09325799999943" lon="-1.2427650000000017">
        <ele>951.453</ele>
        <time>2022-08-24T08:37:04Z</time>
      </trkpt>
      <trkpt lat="43.09324799999943" lon="-1.2427720000000018">
        <ele>951.665</ele>
        <time>2022-08-24T08:37:05Z</time>
      </trkpt>
      <trkpt lat="43.09323399999943" lon="-1.2427790000000019">
        <ele>951.862</ele>
        <time>2022-08-24T08:37:06Z</time>
      </trkpt>
      <trkpt lat="43.093220999999424" lon="-1.2427880000000018">
        <ele>952.065</ele>
        <time>2022-08-24T08:37:07Z</time>
      </trkpt>
      <trkpt lat="43.093206999999424" lon="-1.2427970000000017">
        <ele>952.239</ele>
        <time>2022-08-24T08:37:08Z</time>
      </trkpt>
      <trkpt lat="43.09319399999942" lon="-1.2428050000000017">
        <ele>952.288</ele>
        <time>2022-08-24T08:37:09Z</time>
      </trkpt>
      <trkpt lat="43.093178999999424" lon="-1.2428130000000017">
        <ele>952.271</ele>
        <time>2022-08-24T08:37:10Z</time>
      </trkpt>
      <trkpt lat="43.09316599999942" lon="-1.2428210000000017">
        <ele>952.441</ele>
        <time>2022-08-24T08:37:11Z</time>
      </trkpt>
      <trkpt lat="43.09314999999942" lon="-1.2428290000000017">
        <ele>952.415</ele>
        <time>2022-08-24T08:37:12Z</time>
      </trkpt>
      <trkpt lat="43.09313199999942" lon="-1.2428390000000018">
        <ele>952.409</ele>
        <time>2022-08-24T08:37:13Z</time>
      </trkpt>
      <trkpt lat="43.09312099999942" lon="-1.2428450000000018">
        <ele>952.678</ele>
        <time>2022-08-24T08:37:14Z</time>
      </trkpt>
      <trkpt lat="43.09310599999942" lon="-1.2428540000000017">
        <ele>952.878</ele>
        <time>2022-08-24T08:37:15Z</time>
      </trkpt>
      <trkpt lat="43.09309299999942" lon="-1.2428630000000016">
        <ele>952.888</ele>
        <time>2022-08-24T08:37:16Z</time>
      </trkpt>
      <trkpt lat="43.09307799999942" lon="-1.2428730000000017">
        <ele>953.034</ele>
        <time>2022-08-24T08:37:17Z</time>
      </trkpt>
      <trkpt lat="43.09305899999942" lon="-1.2428830000000017">
        <ele>953.066</ele>
        <time>2022-08-24T08:37:18Z</time>
      </trkpt>
      <trkpt lat="43.093037999999424" lon="-1.2428910000000017">
        <ele>953.083</ele>
        <time>2022-08-24T08:37:19Z</time>
      </trkpt>
      <trkpt lat="43.09302199999942" lon="-1.2428940000000017">
        <ele>953.216</ele>
        <time>2022-08-24T08:37:20Z</time>
      </trkpt>
      <trkpt lat="43.093003999999425" lon="-1.2429030000000016">
        <ele>953.430</ele>
        <time>2022-08-24T08:37:21Z</time>
      </trkpt>
      <trkpt lat="43.09298899999943" lon="-1.2429070000000015">
        <ele>953.439</ele>
        <time>2022-08-24T08:37:22Z</time>
      </trkpt>
      <trkpt lat="43.092972999999425" lon="-1.2429140000000016">
        <ele>953.643</ele>
        <time>2022-08-24T08:37:23Z</time>
      </trkpt>
      <trkpt lat="43.092958999999425" lon="-1.2429190000000017">
        <ele>953.864</ele>
        <time>2022-08-24T08:37:24Z</time>
      </trkpt>
      <trkpt lat="43.09294099999943" lon="-1.2429270000000017">
        <ele>953.810</ele>
        <time>2022-08-24T08:37:25Z</time>
      </trkpt>
      <trkpt lat="43.09292599999943" lon="-1.2429370000000017">
        <ele>954.009</ele>
        <time>2022-08-24T08:37:26Z</time>
      </trkpt>
      <trkpt lat="43.09291199999943" lon="-1.2429450000000017">
        <ele>954.225</ele>
        <time>2022-08-24T08:37:27Z</time>
      </trkpt>
      <trkpt lat="43.09289799999943" lon="-1.2429560000000017">
        <ele>954.495</ele>
        <time>2022-08-24T08:37:28Z</time>
      </trkpt>
      <trkpt lat="43.09288199999943" lon="-1.2429700000000017">
        <ele>954.455</ele>
        <time>2022-08-24T08:37:29Z</time>
      </trkpt>
      <trkpt lat="43.09286999999943" lon="-1.2429800000000018">
        <ele>954.431</ele>
        <time>2022-08-24T08:37:30Z</time>
      </trkpt>
      <trkpt lat="43.09285599999943" lon="-1.2429910000000017">
        <ele>954.643</ele>
        <time>2022-08-24T08:37:31Z</time>
      </trkpt>
      <trkpt lat="43.09284199999943" lon="-1.2430020000000017">
        <ele>954.880</ele>
        <time>2022-08-24T08:37:32Z</time>
      </trkpt>
      <trkpt lat="43.09282799999943" lon="-1.2430130000000017">
        <ele>954.833</ele>
        <time>2022-08-24T08:37:33Z</time>
      </trkpt>
      <trkpt lat="43.09281199999943" lon="-1.2430250000000016">
        <ele>954.827</ele>
        <time>2022-08-24T08:37:34Z</time>
      </trkpt>
      <trkpt lat="43.09279699999943" lon="-1.2430360000000016">
        <ele>955.036</ele>
        <time>2022-08-24T08:37:35Z</time>
      </trkpt>
      <trkpt lat="43.09277999999943" lon="-1.2430430000000017">
        <ele>955.084</ele>
        <time>2022-08-24T08:37:36Z</time>
      </trkpt>
      <trkpt lat="43.09276399999943" lon="-1.2430490000000016">
        <ele>955.207</ele>
        <time>2022-08-24T08:37:37Z</time>
      </trkpt>
      <trkpt lat="43.092744999999425" lon="-1.2430600000000016">
        <ele>955.417</ele>
        <time>2022-08-24T08:37:38Z</time>
      </trkpt>
      <trkpt lat="43.09272599999942" lon="-1.2430740000000016">
        <ele>955.409</ele>
        <time>2022-08-24T08:37:39Z</time>
      </trkpt>
      <trkpt lat="43.092707999999426" lon="-1.2430870000000016">
        <ele>955.459</ele>
        <time>2022-08-24T08:37:40Z</time>
      </trkpt>
      <trkpt lat="43.09269299999943" lon="-1.2430980000000016">
        <ele>955.679</ele>
        <time>2022-08-24T08:37:41Z</time>
      </trkpt>
      <trkpt lat="43.09267899999943" lon="-1.2431100000000015">
        <ele>955.649</ele>
        <time>2022-08-24T08:37:42Z</time>
      </trkpt>
      <trkpt lat="43.092662999999426" lon="-1.2431240000000015">
        <ele>955.635</ele>
        <time>2022-08-24T08:37:43Z</time>
      </trkpt>
      <trkpt lat="43.09264799999943" lon="-1.2431340000000015">
        <ele>955.857</ele>
        <time>2022-08-24T08:37:44Z</time>
      </trkpt>
      <trkpt lat="43.09263299999943" lon="-1.2431410000000016">
        <ele>955.834</ele>
        <time>2022-08-24T08:37:45Z</time>
      </trkpt>
      <trkpt lat="43.09261999999943" lon="-1.2431520000000016">
        <ele>956.087</ele>
        <time>2022-08-24T08:37:46Z</time>
      </trkpt>
      <trkpt lat="43.09260499999943" lon="-1.2431610000000015">
        <ele>956.061</ele>
        <time>2022-08-24T08:37:47Z</time>
      </trkpt>
      <trkpt lat="43.09259199999943" lon="-1.2431750000000015">
        <ele>956.270</ele>
        <time>2022-08-24T08:37:48Z</time>
      </trkpt>
      <trkpt lat="43.09257799999943" lon="-1.2431870000000014">
        <ele>956.278</ele>
        <time>2022-08-24T08:37:49Z</time>
      </trkpt>
      <trkpt lat="43.09256299999943" lon="-1.2431980000000014">
        <ele>956.233</ele>
        <time>2022-08-24T08:37:50Z</time>
      </trkpt>
      <trkpt lat="43.09254699999943" lon="-1.2432070000000013">
        <ele>956.626</ele>
        <time>2022-08-24T08:37:51Z</time>
      </trkpt>
      <trkpt lat="43.09254299999943" lon="-1.2432130000000012">
        <ele>956.609</ele>
        <time>2022-08-24T08:37:52Z</time>
      </trkpt>
      <trkpt lat="43.09253099999943" lon="-1.2432220000000012">
        <ele>956.888</ele>
        <time>2022-08-24T08:37:53Z</time>
      </trkpt>
      <trkpt lat="43.09251699999943" lon="-1.2432350000000012">
        <ele>956.838</ele>
        <time>2022-08-24T08:37:54Z</time>
      </trkpt>
      <trkpt lat="43.09250399999943" lon="-1.243247000000001">
        <ele>957.068</ele>
        <time>2022-08-24T08:37:55Z</time>
      </trkpt>
      <trkpt lat="43.09249199999943" lon="-1.2432600000000011">
        <ele>957.014</ele>
        <time>2022-08-24T08:37:56Z</time>
      </trkpt>
      <trkpt lat="43.09247999999943" lon="-1.2432730000000012">
        <ele>957.216</ele>
        <time>2022-08-24T08:37:57Z</time>
      </trkpt>
      <trkpt lat="43.09246699999943" lon="-1.243285000000001">
        <ele>957.433</ele>
        <time>2022-08-24T08:37:58Z</time>
      </trkpt>
      <trkpt lat="43.09245499999943" lon="-1.243296000000001">
        <ele>957.426</ele>
        <time>2022-08-24T08:37:59Z</time>
      </trkpt>
      <trkpt lat="43.09244499999943" lon="-1.243305000000001">
        <ele>957.660</ele>
        <time>2022-08-24T08:38:00Z</time>
      </trkpt>
      <trkpt lat="43.09243599999943" lon="-1.243312000000001">
        <ele>957.829</ele>
        <time>2022-08-24T08:38:01Z</time>
      </trkpt>
      <trkpt lat="43.09242499999943" lon="-1.243320000000001">
        <ele>958.051</ele>
        <time>2022-08-24T08:38:02Z</time>
      </trkpt>
      <trkpt lat="43.09241399999943" lon="-1.243331000000001">
        <ele>958.201</ele>
        <time>2022-08-24T08:38:03Z</time>
      </trkpt>
      <trkpt lat="43.09240299999943" lon="-1.243340000000001">
        <ele>958.411</ele>
        <time>2022-08-24T08:38:04Z</time>
      </trkpt>
      <trkpt lat="43.09239099999943" lon="-1.243350000000001">
        <ele>958.409</ele>
        <time>2022-08-24T08:38:05Z</time>
      </trkpt>
      <trkpt lat="43.09237999999943" lon="-1.243359000000001">
        <ele>958.656</ele>
        <time>2022-08-24T08:38:06Z</time>
      </trkpt>
      <trkpt lat="43.09236799999943" lon="-1.243371000000001">
        <ele>958.666</ele>
        <time>2022-08-24T08:38:07Z</time>
      </trkpt>
      <trkpt lat="43.092355999999434" lon="-1.243381000000001">
        <ele>958.686</ele>
        <time>2022-08-24T08:38:08Z</time>
      </trkpt>
      <trkpt lat="43.09234299999943" lon="-1.243392000000001">
        <ele>958.672</ele>
        <time>2022-08-24T08:38:09Z</time>
      </trkpt>
      <trkpt lat="43.09233199999943" lon="-1.2434040000000008">
        <ele>958.834</ele>
        <time>2022-08-24T08:38:10Z</time>
      </trkpt>
      <trkpt lat="43.09232199999943" lon="-1.2434160000000007">
        <ele>958.841</ele>
        <time>2022-08-24T08:38:11Z</time>
      </trkpt>
      <trkpt lat="43.09231299999943" lon="-1.2434280000000006">
        <ele>959.064</ele>
        <time>2022-08-24T08:38:12Z</time>
      </trkpt>
      <trkpt lat="43.09230199999943" lon="-1.2434410000000007">
        <ele>959.258</ele>
        <time>2022-08-24T08:38:13Z</time>
      </trkpt>
      <trkpt lat="43.09228999999943" lon="-1.2434520000000007">
        <ele>959.237</ele>
        <time>2022-08-24T08:38:14Z</time>
      </trkpt>
      <trkpt lat="43.09227799999943" lon="-1.2434620000000007">
        <ele>959.466</ele>
        <time>2022-08-24T08:38:15Z</time>
      </trkpt>
      <trkpt lat="43.09226799999943" lon="-1.2434710000000007">
        <ele>959.429</ele>
        <time>2022-08-24T08:38:16Z</time>
      </trkpt>
      <trkpt lat="43.09225399999943" lon="-1.2434840000000007">
        <ele>959.621</ele>
        <time>2022-08-24T08:38:17Z</time>
      </trkpt>
      <trkpt lat="43.092243999999425" lon="-1.2434940000000008">
        <ele>959.609</ele>
        <time>2022-08-24T08:38:18Z</time>
      </trkpt>
      <trkpt lat="43.09223399999942" lon="-1.2435040000000008">
        <ele>959.887</ele>
        <time>2022-08-24T08:38:19Z</time>
      </trkpt>
      <trkpt lat="43.09222299999942" lon="-1.2435150000000008">
        <ele>959.827</ele>
        <time>2022-08-24T08:38:20Z</time>
      </trkpt>
      <trkpt lat="43.09221399999942" lon="-1.2435240000000007">
        <ele>960.267</ele>
        <time>2022-08-24T08:38:21Z</time>
      </trkpt>
      <trkpt lat="43.09220299999942" lon="-1.2435370000000008">
        <ele>960.273</ele>
        <time>2022-08-24T08:38:22Z</time>
      </trkpt>
      <trkpt lat="43.092187999999425" lon="-1.2435500000000008">
        <ele>960.485</ele>
        <time>2022-08-24T08:38:23Z</time>
      </trkpt>
      <trkpt lat="43.09217799999942" lon="-1.243557000000001">
        <ele>960.432</ele>
        <time>2022-08-24T08:38:24Z</time>
      </trkpt>
      <trkpt lat="43.09216199999942" lon="-1.243565000000001">
        <ele>960.635</ele>
        <time>2022-08-24T08:38:25Z</time>
      </trkpt>
      <trkpt lat="43.09214699999942" lon="-1.243575000000001">
        <ele>960.649</ele>
        <time>2022-08-24T08:38:26Z</time>
      </trkpt>
      <trkpt lat="43.09213299999942" lon="-1.243583000000001">
        <ele>960.838</ele>
        <time>2022-08-24T08:38:27Z</time>
      </trkpt>
      <trkpt lat="43.09211999999942" lon="-1.243589000000001">
        <ele>961.078</ele>
        <time>2022-08-24T08:38:28Z</time>
      </trkpt>
      <trkpt lat="43.092106999999416" lon="-1.243597000000001">
        <ele>961.233</ele>
        <time>2022-08-24T08:38:29Z</time>
      </trkpt>
      <trkpt lat="43.09209399999941" lon="-1.243610000000001">
        <ele>961.426</ele>
        <time>2022-08-24T08:38:30Z</time>
      </trkpt>
      <trkpt lat="43.09208099999941" lon="-1.243626000000001">
        <ele>961.609</ele>
        <time>2022-08-24T08:38:31Z</time>
      </trkpt>
      <trkpt lat="43.09206899999941" lon="-1.243641000000001">
        <ele>961.848</ele>
        <time>2022-08-24T08:38:32Z</time>
      </trkpt>
      <trkpt lat="43.092056999999414" lon="-1.243655000000001">
        <ele>962.238</ele>
        <time>2022-08-24T08:38:33Z</time>
      </trkpt>
      <trkpt lat="43.092044999999416" lon="-1.2436650000000011">
        <ele>962.428</ele>
        <time>2022-08-24T08:38:34Z</time>
      </trkpt>
      <trkpt lat="43.09203299999942" lon="-1.2436750000000012">
        <ele>962.684</ele>
        <time>2022-08-24T08:38:35Z</time>
      </trkpt>
      <trkpt lat="43.09202099999942" lon="-1.2436820000000013">
        <ele>963.046</ele>
        <time>2022-08-24T08:38:36Z</time>
      </trkpt>
      <trkpt lat="43.09201299999942" lon="-1.2436870000000013">
        <ele>963.273</ele>
        <time>2022-08-24T08:38:37Z</time>
      </trkpt>
      <trkpt lat="43.09200199999942" lon="-1.2436950000000013">
        <ele>963.886</ele>
        <time>2022-08-24T08:38:38Z</time>
      </trkpt>
      <trkpt lat="43.09199699999942" lon="-1.2437000000000014">
        <ele>963.870</ele>
        <time>2022-08-24T08:38:39Z</time>
      </trkpt>
      <trkpt lat="43.09198499999942" lon="-1.2437070000000015">
        <ele>964.269</ele>
        <time>2022-08-24T08:38:40Z</time>
      </trkpt>
      <trkpt lat="43.09197699999942" lon="-1.2437150000000015">
        <ele>964.224</ele>
        <time>2022-08-24T08:38:41Z</time>
      </trkpt>
      <trkpt lat="43.09196999999942" lon="-1.2437240000000014">
        <ele>964.404</ele>
        <time>2022-08-24T08:38:42Z</time>
      </trkpt>
      <trkpt lat="43.09195699999942" lon="-1.2437340000000014">
        <ele>964.414</ele>
        <time>2022-08-24T08:38:43Z</time>
      </trkpt>
      <trkpt lat="43.091943999999415" lon="-1.2437430000000014">
        <ele>964.409</ele>
        <time>2022-08-24T08:38:44Z</time>
      </trkpt>
      <trkpt lat="43.09193099999941" lon="-1.2437490000000013">
        <ele>964.623</ele>
        <time>2022-08-24T08:38:45Z</time>
      </trkpt>
      <trkpt lat="43.09191399999941" lon="-1.2437560000000014">
        <ele>964.693</ele>
        <time>2022-08-24T08:38:46Z</time>
      </trkpt>
      <trkpt lat="43.09189699999941" lon="-1.2437660000000015">
        <ele>964.633</ele>
        <time>2022-08-24T08:38:47Z</time>
      </trkpt>
      <trkpt lat="43.09188399999941" lon="-1.2437730000000016">
        <ele>964.629</ele>
        <time>2022-08-24T08:38:48Z</time>
      </trkpt>
      <trkpt lat="43.09187099999941" lon="-1.2437810000000016">
        <ele>964.651</ele>
        <time>2022-08-24T08:38:49Z</time>
      </trkpt>
      <trkpt lat="43.091857999999405" lon="-1.2437870000000015">
        <ele>964.878</ele>
        <time>2022-08-24T08:38:50Z</time>
      </trkpt>
      <trkpt lat="43.091846999999404" lon="-1.2437920000000016">
        <ele>964.861</ele>
        <time>2022-08-24T08:38:51Z</time>
      </trkpt>
      <trkpt lat="43.091835999999404" lon="-1.2437990000000017">
        <ele>965.085</ele>
        <time>2022-08-24T08:38:52Z</time>
      </trkpt>
      <trkpt lat="43.0918199999994" lon="-1.2438110000000016">
        <ele>965.054</ele>
        <time>2022-08-24T08:38:53Z</time>
      </trkpt>
      <trkpt lat="43.0918099999994" lon="-1.2438180000000016">
        <ele>965.032</ele>
        <time>2022-08-24T08:38:54Z</time>
      </trkpt>
      <trkpt lat="43.0917949999994" lon="-1.2438280000000017">
        <ele>965.292</ele>
        <time>2022-08-24T08:38:55Z</time>
      </trkpt>
      <trkpt lat="43.0917819999994" lon="-1.2438350000000018">
        <ele>965.211</ele>
        <time>2022-08-24T08:38:56Z</time>
      </trkpt>
      <trkpt lat="43.091768999999395" lon="-1.2438430000000018">
        <ele>965.409</ele>
        <time>2022-08-24T08:38:57Z</time>
      </trkpt>
      <trkpt lat="43.091754999999395" lon="-1.2438510000000018">
        <ele>965.454</ele>
        <time>2022-08-24T08:38:58Z</time>
      </trkpt>
      <trkpt lat="43.0917399999994" lon="-1.2438640000000019">
        <ele>965.654</ele>
        <time>2022-08-24T08:38:59Z</time>
      </trkpt>
      <trkpt lat="43.0917259999994" lon="-1.2438750000000018">
        <ele>965.884</ele>
        <time>2022-08-24T08:39:00Z</time>
      </trkpt>
      <trkpt lat="43.0917139999994" lon="-1.2438800000000019">
        <ele>965.830</ele>
        <time>2022-08-24T08:39:01Z</time>
      </trkpt>
      <trkpt lat="43.0916999999994" lon="-1.243885000000002">
        <ele>966.022</ele>
        <time>2022-08-24T08:39:02Z</time>
      </trkpt>
      <trkpt lat="43.0916859999994" lon="-1.2438910000000019">
        <ele>966.029</ele>
        <time>2022-08-24T08:39:03Z</time>
      </trkpt>
      <trkpt lat="43.0916719999994" lon="-1.2438970000000018">
        <ele>966.282</ele>
        <time>2022-08-24T08:39:04Z</time>
      </trkpt>
      <trkpt lat="43.0916599999994" lon="-1.2439020000000018">
        <ele>966.436</ele>
        <time>2022-08-24T08:39:05Z</time>
      </trkpt>
      <trkpt lat="43.0916479999994" lon="-1.2439060000000017">
        <ele>966.495</ele>
        <time>2022-08-24T08:39:06Z</time>
      </trkpt>
      <trkpt lat="43.0916349999994" lon="-1.2439150000000017">
        <ele>966.646</ele>
        <time>2022-08-24T08:39:07Z</time>
      </trkpt>
      <trkpt lat="43.0916199999994" lon="-1.2439250000000017">
        <ele>966.688</ele>
        <time>2022-08-24T08:39:08Z</time>
      </trkpt>
      <trkpt lat="43.0916069999994" lon="-1.2439340000000016">
        <ele>966.616</ele>
        <time>2022-08-24T08:39:09Z</time>
      </trkpt>
      <trkpt lat="43.0915919999994" lon="-1.2439480000000016">
        <ele>966.609</ele>
        <time>2022-08-24T08:39:10Z</time>
      </trkpt>
      <trkpt lat="43.091576999999404" lon="-1.2439560000000016">
        <ele>966.875</ele>
        <time>2022-08-24T08:39:11Z</time>
      </trkpt>
      <trkpt lat="43.0915639999994" lon="-1.2439620000000016">
        <ele>966.855</ele>
        <time>2022-08-24T08:39:12Z</time>
      </trkpt>
      <trkpt lat="43.0915519999994" lon="-1.2439680000000015">
        <ele>967.025</ele>
        <time>2022-08-24T08:39:13Z</time>
      </trkpt>
      <trkpt lat="43.0915379999994" lon="-1.2439720000000014">
        <ele>967.081</ele>
        <time>2022-08-24T08:39:14Z</time>
      </trkpt>
      <trkpt lat="43.0915249999994" lon="-1.2439740000000015">
        <ele>967.263</ele>
        <time>2022-08-24T08:39:15Z</time>
      </trkpt>
      <trkpt lat="43.0915079999994" lon="-1.2439770000000014">
        <ele>967.480</ele>
        <time>2022-08-24T08:39:16Z</time>
      </trkpt>
      <trkpt lat="43.0914929999994" lon="-1.2439800000000014">
        <ele>967.643</ele>
        <time>2022-08-24T08:39:17Z</time>
      </trkpt>
      <trkpt lat="43.091480999999405" lon="-1.2439870000000015">
        <ele>967.697</ele>
        <time>2022-08-24T08:39:18Z</time>
      </trkpt>
      <trkpt lat="43.091466999999405" lon="-1.2439920000000015">
        <ele>967.856</ele>
        <time>2022-08-24T08:39:19Z</time>
      </trkpt>
      <trkpt lat="43.09145199999941" lon="-1.2439980000000015">
        <ele>967.828</ele>
        <time>2022-08-24T08:39:20Z</time>
      </trkpt>
      <trkpt lat="43.09143699999941" lon="-1.2440050000000016">
        <ele>967.889</ele>
        <time>2022-08-24T08:39:21Z</time>
      </trkpt>
      <trkpt lat="43.09142299999941" lon="-1.2440090000000015">
        <ele>968.017</ele>
        <time>2022-08-24T08:39:22Z</time>
      </trkpt>
      <trkpt lat="43.09140999999941" lon="-1.2440140000000015">
        <ele>968.409</ele>
        <time>2022-08-24T08:39:23Z</time>
      </trkpt>
      <trkpt lat="43.09139499999941" lon="-1.2440200000000015">
        <ele>968.823</ele>
        <time>2022-08-24T08:39:24Z</time>
      </trkpt>
      <trkpt lat="43.091381999999406" lon="-1.2440240000000014">
        <ele>969.023</ele>
        <time>2022-08-24T08:39:25Z</time>
      </trkpt>
      <trkpt lat="43.09136699999941" lon="-1.2440290000000014">
        <ele>969.433</ele>
        <time>2022-08-24T08:39:26Z</time>
      </trkpt>
      <trkpt lat="43.09135199999941" lon="-1.2440360000000015">
        <ele>969.469</ele>
        <time>2022-08-24T08:39:27Z</time>
      </trkpt>
      <trkpt lat="43.09133799999941" lon="-1.2440450000000014">
        <ele>969.671</ele>
        <time>2022-08-24T08:39:28Z</time>
      </trkpt>
      <trkpt lat="43.09132299999941" lon="-1.2440530000000014">
        <ele>970.048</ele>
        <time>2022-08-24T08:39:29Z</time>
      </trkpt>
      <trkpt lat="43.09130999999941" lon="-1.2440580000000014">
        <ele>970.051</ele>
        <time>2022-08-24T08:39:30Z</time>
      </trkpt>
      <trkpt lat="43.09129899999941" lon="-1.2440560000000014">
        <ele>970.285</ele>
        <time>2022-08-24T08:39:31Z</time>
      </trkpt>
      <trkpt lat="43.09128499999941" lon="-1.2440590000000014">
        <ele>970.254</ele>
        <time>2022-08-24T08:39:32Z</time>
      </trkpt>
      <trkpt lat="43.09127099999941" lon="-1.2440650000000013">
        <ele>970.454</ele>
        <time>2022-08-24T08:39:33Z</time>
      </trkpt>
      <trkpt lat="43.09125599999941" lon="-1.2440740000000012">
        <ele>970.456</ele>
        <time>2022-08-24T08:39:34Z</time>
      </trkpt>
      <trkpt lat="43.091240999999414" lon="-1.2440810000000013">
        <ele>970.411</ele>
        <time>2022-08-24T08:39:35Z</time>
      </trkpt>
      <trkpt lat="43.091226999999414" lon="-1.2440810000000013">
        <ele>970.409</ele>
        <time>2022-08-24T08:39:36Z</time>
      </trkpt>
      <trkpt lat="43.091211999999416" lon="-1.2440880000000014">
        <ele>970.646</ele>
        <time>2022-08-24T08:39:37Z</time>
      </trkpt>
      <trkpt lat="43.09119699999942" lon="-1.2440950000000015">
        <ele>970.686</ele>
        <time>2022-08-24T08:39:38Z</time>
      </trkpt>
      <trkpt lat="43.09118299999942" lon="-1.2441010000000015">
        <ele>970.696</ele>
        <time>2022-08-24T08:39:39Z</time>
      </trkpt>
      <trkpt lat="43.091169999999416" lon="-1.2441080000000015">
        <ele>970.682</ele>
        <time>2022-08-24T08:39:40Z</time>
      </trkpt>
      <trkpt lat="43.091155999999415" lon="-1.2441140000000015">
        <ele>970.634</ele>
        <time>2022-08-24T08:39:41Z</time>
      </trkpt>
      <trkpt lat="43.09114099999942" lon="-1.2441180000000014">
        <ele>970.861</ele>
        <time>2022-08-24T08:39:42Z</time>
      </trkpt>
      <trkpt lat="43.09112699999942" lon="-1.2441220000000013">
        <ele>970.874</ele>
        <time>2022-08-24T08:39:43Z</time>
      </trkpt>
      <trkpt lat="43.09111299999942" lon="-1.2441230000000012">
        <ele>971.098</ele>
        <time>2022-08-24T08:39:44Z</time>
      </trkpt>
      <trkpt lat="43.09110099999942" lon="-1.2441250000000013">
        <ele>971.227</ele>
        <time>2022-08-24T08:39:45Z</time>
      </trkpt>
      <trkpt lat="43.09108699999942" lon="-1.2441270000000013">
        <ele>971.235</ele>
        <time>2022-08-24T08:39:46Z</time>
      </trkpt>
      <trkpt lat="43.09107199999942" lon="-1.2441320000000013">
        <ele>971.286</ele>
        <time>2022-08-24T08:39:47Z</time>
      </trkpt>
      <trkpt lat="43.09105799999942" lon="-1.2441360000000012">
        <ele>971.414</ele>
        <time>2022-08-24T08:39:48Z</time>
      </trkpt>
      <trkpt lat="43.09104799999942" lon="-1.2441400000000011">
        <ele>971.409</ele>
        <time>2022-08-24T08:39:49Z</time>
      </trkpt>
      <trkpt lat="43.09103099999942" lon="-1.2441480000000011">
        <ele>971.634</ele>
        <time>2022-08-24T08:39:50Z</time>
      </trkpt>
      <trkpt lat="43.09101699999942" lon="-1.2441500000000012">
        <ele>971.654</ele>
        <time>2022-08-24T08:39:51Z</time>
      </trkpt>
      <trkpt lat="43.09100199999942" lon="-1.2441560000000011">
        <ele>971.834</ele>
        <time>2022-08-24T08:39:52Z</time>
      </trkpt>
      <trkpt lat="43.09098699999942" lon="-1.2441630000000012">
        <ele>971.870</ele>
        <time>2022-08-24T08:39:53Z</time>
      </trkpt>
      <trkpt lat="43.090971999999425" lon="-1.2441740000000012">
        <ele>972.022</ele>
        <time>2022-08-24T08:39:54Z</time>
      </trkpt>
      <trkpt lat="43.09095399999943" lon="-1.2441830000000011">
        <ele>972.099</ele>
        <time>2022-08-24T08:39:55Z</time>
      </trkpt>
      <trkpt lat="43.090937999999426" lon="-1.244187000000001">
        <ele>972.082</ele>
        <time>2022-08-24T08:39:56Z</time>
      </trkpt>
      <trkpt lat="43.09092299999943" lon="-1.244193000000001">
        <ele>972.256</ele>
        <time>2022-08-24T08:39:57Z</time>
      </trkpt>
      <trkpt lat="43.09088099999943" lon="-1.244199000000001">
        <ele>972.825</ele>
        <time>2022-08-24T08:40:00Z</time>
      </trkpt>
      <trkpt lat="43.090858999999426" lon="-1.244199000000001">
        <ele>973.016</ele>
        <time>2022-08-24T08:40:02Z</time>
      </trkpt>
      <trkpt lat="43.090844999999426" lon="-1.244199000000001">
        <ele>973.276</ele>
        <time>2022-08-24T08:40:03Z</time>
      </trkpt>
      <trkpt lat="43.09082999999943" lon="-1.244201000000001">
        <ele>973.413</ele>
        <time>2022-08-24T08:40:04Z</time>
      </trkpt>
      <trkpt lat="43.09081599999943" lon="-1.244203000000001">
        <ele>973.409</ele>
        <time>2022-08-24T08:40:05Z</time>
      </trkpt>
      <trkpt lat="43.09080199999943" lon="-1.2442050000000011">
        <ele>973.682</ele>
        <time>2022-08-24T08:40:06Z</time>
      </trkpt>
      <trkpt lat="43.09078799999943" lon="-1.2442070000000012">
        <ele>973.852</ele>
        <time>2022-08-24T08:40:07Z</time>
      </trkpt>
      <trkpt lat="43.09077399999943" lon="-1.2442100000000011">
        <ele>974.062</ele>
        <time>2022-08-24T08:40:08Z</time>
      </trkpt>
      <trkpt lat="43.090760999999425" lon="-1.2442130000000011">
        <ele>974.218</ele>
        <time>2022-08-24T08:40:09Z</time>
      </trkpt>
      <trkpt lat="43.09074599999943" lon="-1.2442210000000011">
        <ele>974.490</ele>
        <time>2022-08-24T08:40:10Z</time>
      </trkpt>
      <trkpt lat="43.09073099999943" lon="-1.244224000000001">
        <ele>974.637</ele>
        <time>2022-08-24T08:40:11Z</time>
      </trkpt>
      <trkpt lat="43.09071499999943" lon="-1.244228000000001">
        <ele>974.610</ele>
        <time>2022-08-24T08:40:12Z</time>
      </trkpt>
      <trkpt lat="43.090698999999425" lon="-1.244233000000001">
        <ele>974.874</ele>
        <time>2022-08-24T08:40:13Z</time>
      </trkpt>
      <trkpt lat="43.090684999999425" lon="-1.244236000000001">
        <ele>974.833</ele>
        <time>2022-08-24T08:40:14Z</time>
      </trkpt>
      <trkpt lat="43.090670999999425" lon="-1.244239000000001">
        <ele>975.089</ele>
        <time>2022-08-24T08:40:15Z</time>
      </trkpt>
      <trkpt lat="43.09065299999943" lon="-1.244242000000001">
        <ele>975.006</ele>
        <time>2022-08-24T08:40:16Z</time>
      </trkpt>
      <trkpt lat="43.090636999999425" lon="-1.244244000000001">
        <ele>975.026</ele>
        <time>2022-08-24T08:40:17Z</time>
      </trkpt>
      <trkpt lat="43.090622999999425" lon="-1.244244000000001">
        <ele>975.209</ele>
        <time>2022-08-24T08:40:18Z</time>
      </trkpt>
      <trkpt lat="43.090608999999425" lon="-1.244246000000001">
        <ele>975.249</ele>
        <time>2022-08-24T08:40:19Z</time>
      </trkpt>
      <trkpt lat="43.090594999999425" lon="-1.244249000000001">
        <ele>975.239</ele>
        <time>2022-08-24T08:40:20Z</time>
      </trkpt>
      <trkpt lat="43.09057899999942" lon="-1.244254000000001">
        <ele>975.429</ele>
        <time>2022-08-24T08:40:21Z</time>
      </trkpt>
      <trkpt lat="43.090563999999425" lon="-1.2442590000000011">
        <ele>975.415</ele>
        <time>2022-08-24T08:40:22Z</time>
      </trkpt>
      <trkpt lat="43.09055099999942" lon="-1.2442610000000012">
        <ele>975.657</ele>
        <time>2022-08-24T08:40:23Z</time>
      </trkpt>
      <trkpt lat="43.090535999999425" lon="-1.2442630000000012">
        <ele>975.684</ele>
        <time>2022-08-24T08:40:24Z</time>
      </trkpt>
      <trkpt lat="43.09052099999943" lon="-1.2442640000000011">
        <ele>975.867</ele>
        <time>2022-08-24T08:40:25Z</time>
      </trkpt>
      <trkpt lat="43.090507999999424" lon="-1.2442630000000012">
        <ele>975.851</ele>
        <time>2022-08-24T08:40:26Z</time>
      </trkpt>
      <trkpt lat="43.09049299999943" lon="-1.2442640000000011">
        <ele>975.850</ele>
        <time>2022-08-24T08:40:27Z</time>
      </trkpt>
      <trkpt lat="43.09047799999943" lon="-1.244265000000001">
        <ele>976.055</ele>
        <time>2022-08-24T08:40:28Z</time>
      </trkpt>
      <trkpt lat="43.09046399999943" lon="-1.244265000000001">
        <ele>976.207</ele>
        <time>2022-08-24T08:40:29Z</time>
      </trkpt>
      <trkpt lat="43.09044699999943" lon="-1.244273000000001">
        <ele>976.417</ele>
        <time>2022-08-24T08:40:30Z</time>
      </trkpt>
      <trkpt lat="43.09042999999943" lon="-1.244278000000001">
        <ele>976.609</ele>
        <time>2022-08-24T08:40:31Z</time>
      </trkpt>
      <trkpt lat="43.09041299999943" lon="-1.244284000000001">
        <ele>976.836</ele>
        <time>2022-08-24T08:40:32Z</time>
      </trkpt>
      <trkpt lat="43.09039599999943" lon="-1.2442860000000011">
        <ele>977.086</ele>
        <time>2022-08-24T08:40:33Z</time>
      </trkpt>
      <trkpt lat="43.09037999999943" lon="-1.244287000000001">
        <ele>977.226</ele>
        <time>2022-08-24T08:40:34Z</time>
      </trkpt>
      <trkpt lat="43.09036599999943" lon="-1.244287000000001">
        <ele>977.442</ele>
        <time>2022-08-24T08:40:35Z</time>
      </trkpt>
      <trkpt lat="43.09034899999943" lon="-1.244288000000001">
        <ele>977.424</ele>
        <time>2022-08-24T08:40:36Z</time>
      </trkpt>
      <trkpt lat="43.090332999999426" lon="-1.244290000000001">
        <ele>977.681</ele>
        <time>2022-08-24T08:40:37Z</time>
      </trkpt>
      <trkpt lat="43.09031699999942" lon="-1.244291000000001">
        <ele>977.874</ele>
        <time>2022-08-24T08:40:38Z</time>
      </trkpt>
      <trkpt lat="43.090301999999426" lon="-1.2442920000000008">
        <ele>978.028</ele>
        <time>2022-08-24T08:40:39Z</time>
      </trkpt>
      <trkpt lat="43.090284999999426" lon="-1.2442920000000008">
        <ele>978.277</ele>
        <time>2022-08-24T08:40:40Z</time>
      </trkpt>
      <trkpt lat="43.09026399999943" lon="-1.2442980000000008">
        <ele>978.221</ele>
        <time>2022-08-24T08:40:41Z</time>
      </trkpt>
      <trkpt lat="43.09024699999943" lon="-1.2442990000000007">
        <ele>978.441</ele>
        <time>2022-08-24T08:40:42Z</time>
      </trkpt>
      <trkpt lat="43.09022999999943" lon="-1.2443020000000007">
        <ele>978.605</ele>
        <time>2022-08-24T08:40:43Z</time>
      </trkpt>
      <trkpt lat="43.09021499999943" lon="-1.2443040000000007">
        <ele>978.609</ele>
        <time>2022-08-24T08:40:44Z</time>
      </trkpt>
      <trkpt lat="43.09019899999943" lon="-1.2443030000000008">
        <ele>978.613</ele>
        <time>2022-08-24T08:40:45Z</time>
      </trkpt>
      <trkpt lat="43.09018299999943" lon="-1.2443030000000008">
        <ele>978.843</ele>
        <time>2022-08-24T08:40:46Z</time>
      </trkpt>
      <trkpt lat="43.09016499999943" lon="-1.2443010000000008">
        <ele>978.863</ele>
        <time>2022-08-24T08:40:47Z</time>
      </trkpt>
      <trkpt lat="43.09015099999943" lon="-1.2442980000000008">
        <ele>978.859</ele>
        <time>2022-08-24T08:40:48Z</time>
      </trkpt>
      <trkpt lat="43.09013399999943" lon="-1.2442960000000007">
        <ele>979.051</ele>
        <time>2022-08-24T08:40:49Z</time>
      </trkpt>
      <trkpt lat="43.09011799999943" lon="-1.2442940000000007">
        <ele>979.028</ele>
        <time>2022-08-24T08:40:50Z</time>
      </trkpt>
      <trkpt lat="43.090101999999426" lon="-1.2442930000000008">
        <ele>979.021</ele>
        <time>2022-08-24T08:40:51Z</time>
      </trkpt>
      <trkpt lat="43.090084999999426" lon="-1.2442950000000008">
        <ele>979.045</ele>
        <time>2022-08-24T08:40:52Z</time>
      </trkpt>
      <trkpt lat="43.09006799999943" lon="-1.2442970000000009">
        <ele>979.054</ele>
        <time>2022-08-24T08:40:53Z</time>
      </trkpt>
      <trkpt lat="43.090051999999424" lon="-1.244299000000001">
        <ele>979.038</ele>
        <time>2022-08-24T08:40:54Z</time>
      </trkpt>
      <trkpt lat="43.09003699999943" lon="-1.244301000000001">
        <ele>979.270</ele>
        <time>2022-08-24T08:40:55Z</time>
      </trkpt>
      <trkpt lat="43.09002299999943" lon="-1.244302000000001">
        <ele>979.417</ele>
        <time>2022-08-24T08:40:56Z</time>
      </trkpt>
      <trkpt lat="43.09000899999943" lon="-1.244304000000001">
        <ele>979.609</ele>
        <time>2022-08-24T08:40:57Z</time>
      </trkpt>
      <trkpt lat="43.08999199999943" lon="-1.244309000000001">
        <ele>979.694</ele>
        <time>2022-08-24T08:40:58Z</time>
      </trkpt>
      <trkpt lat="43.08997799999943" lon="-1.244313000000001">
        <ele>979.854</ele>
        <time>2022-08-24T08:40:59Z</time>
      </trkpt>
      <trkpt lat="43.08996299999943" lon="-1.2443140000000008">
        <ele>979.834</ele>
        <time>2022-08-24T08:41:00Z</time>
      </trkpt>
      <trkpt lat="43.08994699999943" lon="-1.2443160000000009">
        <ele>980.290</ele>
        <time>2022-08-24T08:41:01Z</time>
      </trkpt>
      <trkpt lat="43.08992999999943" lon="-1.2443160000000009">
        <ele>980.632</ele>
        <time>2022-08-24T08:41:02Z</time>
      </trkpt>
      <trkpt lat="43.08991299999943" lon="-1.2443170000000008">
        <ele>980.679</ele>
        <time>2022-08-24T08:41:03Z</time>
      </trkpt>
      <trkpt lat="43.08989799999943" lon="-1.2443170000000008">
        <ele>980.842</ele>
        <time>2022-08-24T08:41:04Z</time>
      </trkpt>
      <trkpt lat="43.08988199999943" lon="-1.2443180000000007">
        <ele>980.856</ele>
        <time>2022-08-24T08:41:05Z</time>
      </trkpt>
      <trkpt lat="43.08986499999943" lon="-1.2443230000000007">
        <ele>980.865</ele>
        <time>2022-08-24T08:41:06Z</time>
      </trkpt>
      <trkpt lat="43.08984999999943" lon="-1.2443250000000008">
        <ele>980.824</ele>
        <time>2022-08-24T08:41:07Z</time>
      </trkpt>
      <trkpt lat="43.08983299999943" lon="-1.2443280000000008">
        <ele>980.804</ele>
        <time>2022-08-24T08:41:08Z</time>
      </trkpt>
      <trkpt lat="43.08981499999943" lon="-1.2443340000000007">
        <ele>980.814</ele>
        <time>2022-08-24T08:41:09Z</time>
      </trkpt>
      <trkpt lat="43.089794999999434" lon="-1.2443380000000006">
        <ele>980.809</ele>
        <time>2022-08-24T08:41:10Z</time>
      </trkpt>
      <trkpt lat="43.08977699999944" lon="-1.2443410000000006">
        <ele>980.873</ele>
        <time>2022-08-24T08:41:11Z</time>
      </trkpt>
      <trkpt lat="43.08976199999944" lon="-1.2443430000000006">
        <ele>980.853</ele>
        <time>2022-08-24T08:41:12Z</time>
      </trkpt>
      <trkpt lat="43.08974499999944" lon="-1.2443460000000006">
        <ele>980.693</ele>
        <time>2022-08-24T08:41:13Z</time>
      </trkpt>
      <trkpt lat="43.08972999999944" lon="-1.2443510000000007">
        <ele>980.679</ele>
        <time>2022-08-24T08:41:14Z</time>
      </trkpt>
      <trkpt lat="43.089711999999444" lon="-1.2443590000000007">
        <ele>980.671</ele>
        <time>2022-08-24T08:41:15Z</time>
      </trkpt>
      <trkpt lat="43.08969599999944" lon="-1.2443670000000007">
        <ele>980.638</ele>
        <time>2022-08-24T08:41:16Z</time>
      </trkpt>
      <trkpt lat="43.08967899999944" lon="-1.2443720000000007">
        <ele>980.621</ele>
        <time>2022-08-24T08:41:17Z</time>
      </trkpt>
      <trkpt lat="43.08963099999944" lon="-1.2443930000000007">
        <ele>980.625</ele>
        <time>2022-08-24T08:41:20Z</time>
      </trkpt>
      <trkpt lat="43.089562999999444" lon="-1.2444390000000007">
        <ele>980.694</ele>
        <time>2022-08-24T08:41:24Z</time>
      </trkpt>
      <trkpt lat="43.089545999999444" lon="-1.2444500000000007">
        <ele>980.634</ele>
        <time>2022-08-24T08:41:25Z</time>
      </trkpt>
      <trkpt lat="43.089528999999445" lon="-1.2444590000000006">
        <ele>980.655</ele>
        <time>2022-08-24T08:41:26Z</time>
      </trkpt>
      <trkpt lat="43.089514999999444" lon="-1.2444680000000006">
        <ele>980.610</ele>
        <time>2022-08-24T08:41:27Z</time>
      </trkpt>
      <trkpt lat="43.08949599999944" lon="-1.2444780000000006">
        <ele>980.609</ele>
        <time>2022-08-24T08:41:28Z</time>
      </trkpt>
      <trkpt lat="43.08948199999944" lon="-1.2444850000000007">
        <ele>980.674</ele>
        <time>2022-08-24T08:41:29Z</time>
      </trkpt>
      <trkpt lat="43.08942299999944" lon="-1.2445130000000006">
        <ele>980.854</ele>
        <time>2022-08-24T08:41:32Z</time>
      </trkpt>
      <trkpt lat="43.08940699999944" lon="-1.2445210000000007">
        <ele>981.024</ele>
        <time>2022-08-24T08:41:33Z</time>
      </trkpt>
      <trkpt lat="43.08939099999944" lon="-1.2445250000000005">
        <ele>980.850</ele>
        <time>2022-08-24T08:41:34Z</time>
      </trkpt>
      <trkpt lat="43.08937399999944" lon="-1.2445310000000005">
        <ele>980.862</ele>
        <time>2022-08-24T08:41:35Z</time>
      </trkpt>
      <trkpt lat="43.08935699999944" lon="-1.2445370000000004">
        <ele>981.069</ele>
        <time>2022-08-24T08:41:36Z</time>
      </trkpt>
      <trkpt lat="43.089298999999436" lon="-1.2445690000000005">
        <ele>981.492</ele>
        <time>2022-08-24T08:41:40Z</time>
      </trkpt>
      <trkpt lat="43.089259999999435" lon="-1.2446100000000004">
        <ele>981.636</ele>
        <time>2022-08-24T08:41:43Z</time>
      </trkpt>
      <trkpt lat="43.08924499999944" lon="-1.2446260000000005">
        <ele>981.885</ele>
        <time>2022-08-24T08:41:44Z</time>
      </trkpt>
      <trkpt lat="43.08923099999944" lon="-1.2446400000000004">
        <ele>982.042</ele>
        <time>2022-08-24T08:41:45Z</time>
      </trkpt>
      <trkpt lat="43.08921599999944" lon="-1.2446560000000004">
        <ele>982.022</ele>
        <time>2022-08-24T08:41:46Z</time>
      </trkpt>
      <trkpt lat="43.089205999999436" lon="-1.2446690000000005">
        <ele>982.014</ele>
        <time>2022-08-24T08:41:47Z</time>
      </trkpt>
      <trkpt lat="43.08913699999943" lon="-1.2447390000000005">
        <ele>982.409</ele>
        <time>2022-08-24T08:41:53Z</time>
      </trkpt>
      <trkpt lat="43.08911699999943" lon="-1.2447640000000004">
        <ele>982.835</ele>
        <time>2022-08-24T08:41:55Z</time>
      </trkpt>
      <trkpt lat="43.089104999999435" lon="-1.2447740000000005">
        <ele>983.085</ele>
        <time>2022-08-24T08:41:56Z</time>
      </trkpt>
      <trkpt lat="43.089093999999434" lon="-1.2447880000000004">
        <ele>983.095</ele>
        <time>2022-08-24T08:41:57Z</time>
      </trkpt>
      <trkpt lat="43.089082999999434" lon="-1.2448020000000004">
        <ele>983.281</ele>
        <time>2022-08-24T08:41:58Z</time>
      </trkpt>
      <trkpt lat="43.08904999999943" lon="-1.2448380000000003">
        <ele>983.643</ele>
        <time>2022-08-24T08:42:01Z</time>
      </trkpt>
      <trkpt lat="43.08903699999943" lon="-1.2448480000000004">
        <ele>983.660</ele>
        <time>2022-08-24T08:42:02Z</time>
      </trkpt>
      <trkpt lat="43.08893899999943" lon="-1.2449280000000005">
        <ele>984.463</ele>
        <time>2022-08-24T08:42:09Z</time>
      </trkpt>
      <trkpt lat="43.08892699999943" lon="-1.2449410000000005">
        <ele>984.647</ele>
        <time>2022-08-24T08:42:10Z</time>
      </trkpt>
      <trkpt lat="43.08891499999943" lon="-1.2449550000000005">
        <ele>985.026</ele>
        <time>2022-08-24T08:42:11Z</time>
      </trkpt>
      <trkpt lat="43.08890299999943" lon="-1.2449690000000004">
        <ele>984.847</ele>
        <time>2022-08-24T08:42:12Z</time>
      </trkpt>
      <trkpt lat="43.088890999999435" lon="-1.2449810000000003">
        <ele>985.029</ele>
        <time>2022-08-24T08:42:13Z</time>
      </trkpt>
      <trkpt lat="43.08887799999943" lon="-1.2449930000000002">
        <ele>985.221</ele>
        <time>2022-08-24T08:42:14Z</time>
      </trkpt>
      <trkpt lat="43.08886799999943" lon="-1.2450020000000002">
        <ele>985.209</ele>
        <time>2022-08-24T08:42:15Z</time>
      </trkpt>
      <trkpt lat="43.08885299999943" lon="-1.245019">
        <ele>985.295</ele>
        <time>2022-08-24T08:42:16Z</time>
      </trkpt>
      <trkpt lat="43.08884399999943" lon="-1.2450290000000002">
        <ele>985.475</ele>
        <time>2022-08-24T08:42:17Z</time>
      </trkpt>
      <trkpt lat="43.088831999999435" lon="-1.245041">
        <ele>985.435</ele>
        <time>2022-08-24T08:42:18Z</time>
      </trkpt>
      <trkpt lat="43.08882299999944" lon="-1.245053">
        <ele>985.461</ele>
        <time>2022-08-24T08:42:19Z</time>
      </trkpt>
      <trkpt lat="43.088817999999435" lon="-1.245064">
        <ele>985.643</ele>
        <time>2022-08-24T08:42:20Z</time>
      </trkpt>
      <trkpt lat="43.08880599999944" lon="-1.245077">
        <ele>985.670</ele>
        <time>2022-08-24T08:42:21Z</time>
      </trkpt>
      <trkpt lat="43.08879099999944" lon="-1.245089">
        <ele>985.843</ele>
        <time>2022-08-24T08:42:22Z</time>
      </trkpt>
      <trkpt lat="43.08877799999944" lon="-1.245102">
        <ele>985.817</ele>
        <time>2022-08-24T08:42:23Z</time>
      </trkpt>
      <trkpt lat="43.08876599999944" lon="-1.245117">
        <ele>986.086</ele>
        <time>2022-08-24T08:42:24Z</time>
      </trkpt>
      <trkpt lat="43.08875399999944" lon="-1.24513">
        <ele>986.049</ele>
        <time>2022-08-24T08:42:25Z</time>
      </trkpt>
      <trkpt lat="43.08874199999944" lon="-1.245142">
        <ele>986.202</ele>
        <time>2022-08-24T08:42:26Z</time>
      </trkpt>
      <trkpt lat="43.08872599999944" lon="-1.245156">
        <ele>986.422</ele>
        <time>2022-08-24T08:42:27Z</time>
      </trkpt>
      <trkpt lat="43.08871399999944" lon="-1.245167">
        <ele>986.409</ele>
        <time>2022-08-24T08:42:28Z</time>
      </trkpt>
      <trkpt lat="43.08870099999944" lon="-1.245175">
        <ele>986.655</ele>
        <time>2022-08-24T08:42:29Z</time>
      </trkpt>
      <trkpt lat="43.08868899999944" lon="-1.2451869999999998">
        <ele>986.845</ele>
        <time>2022-08-24T08:42:30Z</time>
      </trkpt>
      <trkpt lat="43.08867699999944" lon="-1.2452009999999998">
        <ele>986.835</ele>
        <time>2022-08-24T08:42:31Z</time>
      </trkpt>
      <trkpt lat="43.088661999999445" lon="-1.2452149999999997">
        <ele>986.871</ele>
        <time>2022-08-24T08:42:32Z</time>
      </trkpt>
      <trkpt lat="43.08864999999945" lon="-1.2452279999999998">
        <ele>987.063</ele>
        <time>2022-08-24T08:42:33Z</time>
      </trkpt>
      <trkpt lat="43.088636999999444" lon="-1.2452399999999997">
        <ele>986.870</ele>
        <time>2022-08-24T08:42:34Z</time>
      </trkpt>
      <trkpt lat="43.08862399999944" lon="-1.2452529999999997">
        <ele>987.023</ele>
        <time>2022-08-24T08:42:35Z</time>
      </trkpt>
      <trkpt lat="43.08861399999944" lon="-1.2452679999999998">
        <ele>987.047</ele>
        <time>2022-08-24T08:42:36Z</time>
      </trkpt>
      <trkpt lat="43.088603999999435" lon="-1.2452849999999998">
        <ele>987.226</ele>
        <time>2022-08-24T08:42:37Z</time>
      </trkpt>
      <trkpt lat="43.08859399999943" lon="-1.2452999999999999">
        <ele>987.426</ele>
        <time>2022-08-24T08:42:38Z</time>
      </trkpt>
      <trkpt lat="43.088581999999434" lon="-1.245313">
        <ele>987.647</ele>
        <time>2022-08-24T08:42:39Z</time>
      </trkpt>
      <trkpt lat="43.08856899999943" lon="-1.2453269999999999">
        <ele>987.611</ele>
        <time>2022-08-24T08:42:40Z</time>
      </trkpt>
      <trkpt lat="43.08855899999943" lon="-1.2453409999999998">
        <ele>987.809</ele>
        <time>2022-08-24T08:42:41Z</time>
      </trkpt>
      <trkpt lat="43.08855199999943" lon="-1.2453569999999998">
        <ele>988.023</ele>
        <time>2022-08-24T08:42:42Z</time>
      </trkpt>
      <trkpt lat="43.08853899999943" lon="-1.2453789999999998">
        <ele>988.073</ele>
        <time>2022-08-24T08:42:43Z</time>
      </trkpt>
      <trkpt lat="43.08852999999943" lon="-1.2453979999999998">
        <ele>988.073</ele>
        <time>2022-08-24T08:42:44Z</time>
      </trkpt>
      <trkpt lat="43.08851899999943" lon="-1.2454179999999997">
        <ele>988.079</ele>
        <time>2022-08-24T08:42:45Z</time>
      </trkpt>
      <trkpt lat="43.088508999999426" lon="-1.2454379999999996">
        <ele>988.261</ele>
        <time>2022-08-24T08:42:46Z</time>
      </trkpt>
      <trkpt lat="43.088497999999426" lon="-1.2454589999999996">
        <ele>988.458</ele>
        <time>2022-08-24T08:42:47Z</time>
      </trkpt>
      <trkpt lat="43.08849199999943" lon="-1.2454799999999997">
        <ele>988.631</ele>
        <time>2022-08-24T08:42:48Z</time>
      </trkpt>
      <trkpt lat="43.08848799999943" lon="-1.2455009999999997">
        <ele>988.615</ele>
        <time>2022-08-24T08:42:49Z</time>
      </trkpt>
      <trkpt lat="43.08848899999943" lon="-1.2455219999999998">
        <ele>988.644</ele>
        <time>2022-08-24T08:42:50Z</time>
      </trkpt>
      <trkpt lat="43.088494999999426" lon="-1.2455429999999998">
        <ele>988.886</ele>
        <time>2022-08-24T08:42:51Z</time>
      </trkpt>
      <trkpt lat="43.08850499999943" lon="-1.245561">
        <ele>989.060</ele>
        <time>2022-08-24T08:42:52Z</time>
      </trkpt>
      <trkpt lat="43.08851299999943" lon="-1.2455779999999999">
        <ele>989.226</ele>
        <time>2022-08-24T08:42:53Z</time>
      </trkpt>
      <trkpt lat="43.08852599999943" lon="-1.245591">
        <ele>989.209</ele>
        <time>2022-08-24T08:42:54Z</time>
      </trkpt>
      <trkpt lat="43.088535999999436" lon="-1.245606">
        <ele>989.279</ele>
        <time>2022-08-24T08:42:55Z</time>
      </trkpt>
      <trkpt lat="43.088544999999435" lon="-1.245618">
        <ele>989.679</ele>
        <time>2022-08-24T08:42:56Z</time>
      </trkpt>
      <trkpt lat="43.08855799999944" lon="-1.245626">
        <ele>989.689</ele>
        <time>2022-08-24T08:42:57Z</time>
      </trkpt>
      <trkpt lat="43.08857399999944" lon="-1.2456319999999999">
        <ele>989.845</ele>
        <time>2022-08-24T08:42:58Z</time>
      </trkpt>
      <trkpt lat="43.08859099999944" lon="-1.245634">
        <ele>989.857</ele>
        <time>2022-08-24T08:42:59Z</time>
      </trkpt>
      <trkpt lat="43.08860599999944" lon="-1.245636">
        <ele>990.084</ele>
        <time>2022-08-24T08:43:00Z</time>
      </trkpt>
      <trkpt lat="43.088620999999435" lon="-1.2456399999999999">
        <ele>990.497</ele>
        <time>2022-08-24T08:43:01Z</time>
      </trkpt>
      <trkpt lat="43.088640999999434" lon="-1.2456429999999998">
        <ele>990.631</ele>
        <time>2022-08-24T08:43:02Z</time>
      </trkpt>
      <trkpt lat="43.088654999999434" lon="-1.2456469999999997">
        <ele>990.840</ele>
        <time>2022-08-24T08:43:03Z</time>
      </trkpt>
      <trkpt lat="43.08867099999944" lon="-1.2456509999999996">
        <ele>991.079</ele>
        <time>2022-08-24T08:43:04Z</time>
      </trkpt>
      <trkpt lat="43.08868499999944" lon="-1.2456569999999996">
        <ele>991.205</ele>
        <time>2022-08-24T08:43:05Z</time>
      </trkpt>
      <trkpt lat="43.08869899999944" lon="-1.2456619999999996">
        <ele>991.225</ele>
        <time>2022-08-24T08:43:06Z</time>
      </trkpt>
      <trkpt lat="43.08871199999944" lon="-1.2456689999999997">
        <ele>991.409</ele>
        <time>2022-08-24T08:43:07Z</time>
      </trkpt>
      <trkpt lat="43.08872599999944" lon="-1.2456749999999996">
        <ele>991.668</ele>
        <time>2022-08-24T08:43:08Z</time>
      </trkpt>
      <trkpt lat="43.08873999999944" lon="-1.2456809999999996">
        <ele>991.878</ele>
        <time>2022-08-24T08:43:09Z</time>
      </trkpt>
      <trkpt lat="43.08875399999944" lon="-1.2456879999999997">
        <ele>992.068</ele>
        <time>2022-08-24T08:43:10Z</time>
      </trkpt>
      <trkpt lat="43.08877099999944" lon="-1.2456949999999998">
        <ele>992.084</ele>
        <time>2022-08-24T08:43:11Z</time>
      </trkpt>
      <trkpt lat="43.08878699999944" lon="-1.2457009999999997">
        <ele>992.446</ele>
        <time>2022-08-24T08:43:12Z</time>
      </trkpt>
      <trkpt lat="43.088802999999444" lon="-1.2457069999999997">
        <ele>992.433</ele>
        <time>2022-08-24T08:43:13Z</time>
      </trkpt>
      <trkpt lat="43.088816999999445" lon="-1.2457149999999997">
        <ele>992.426</ele>
        <time>2022-08-24T08:43:14Z</time>
      </trkpt>
      <trkpt lat="43.08883199999944" lon="-1.2457219999999998">
        <ele>992.450</ele>
        <time>2022-08-24T08:43:15Z</time>
      </trkpt>
      <trkpt lat="43.08884699999944" lon="-1.2457269999999998">
        <ele>992.629</ele>
        <time>2022-08-24T08:43:16Z</time>
      </trkpt>
      <trkpt lat="43.08885899999944" lon="-1.2457319999999998">
        <ele>992.663</ele>
        <time>2022-08-24T08:43:17Z</time>
      </trkpt>
      <trkpt lat="43.08886999999944" lon="-1.2457429999999998">
        <ele>992.844</ele>
        <time>2022-08-24T08:43:18Z</time>
      </trkpt>
      <trkpt lat="43.08887899999944" lon="-1.2457549999999997">
        <ele>993.218</ele>
        <time>2022-08-24T08:43:19Z</time>
      </trkpt>
      <trkpt lat="43.08888999999944" lon="-1.2457639999999996">
        <ele>993.409</ele>
        <time>2022-08-24T08:43:20Z</time>
      </trkpt>
      <trkpt lat="43.08889899999944" lon="-1.2457729999999996">
        <ele>993.647</ele>
        <time>2022-08-24T08:43:21Z</time>
      </trkpt>
      <trkpt lat="43.08890699999944" lon="-1.2457879999999997">
        <ele>993.827</ele>
        <time>2022-08-24T08:43:22Z</time>
      </trkpt>
      <trkpt lat="43.088913999999434" lon="-1.2458039999999997">
        <ele>993.837</ele>
        <time>2022-08-24T08:43:23Z</time>
      </trkpt>
      <trkpt lat="43.08892299999943" lon="-1.2458159999999996">
        <ele>994.213</ele>
        <time>2022-08-24T08:43:24Z</time>
      </trkpt>
      <trkpt lat="43.088932999999436" lon="-1.2458279999999995">
        <ele>994.225</ele>
        <time>2022-08-24T08:43:25Z</time>
      </trkpt>
      <trkpt lat="43.088944999999434" lon="-1.2458389999999995">
        <ele>994.462</ele>
        <time>2022-08-24T08:43:26Z</time>
      </trkpt>
      <trkpt lat="43.088955999999435" lon="-1.2458539999999996">
        <ele>994.445</ele>
        <time>2022-08-24T08:43:27Z</time>
      </trkpt>
      <trkpt lat="43.088961999999434" lon="-1.2458689999999997">
        <ele>994.639</ele>
        <time>2022-08-24T08:43:28Z</time>
      </trkpt>
      <trkpt lat="43.088969999999435" lon="-1.2458819999999997">
        <ele>994.838</ele>
        <time>2022-08-24T08:43:29Z</time>
      </trkpt>
      <trkpt lat="43.088980999999436" lon="-1.2458909999999996">
        <ele>995.073</ele>
        <time>2022-08-24T08:43:30Z</time>
      </trkpt>
      <trkpt lat="43.088989999999434" lon="-1.2458999999999996">
        <ele>995.285</ele>
        <time>2022-08-24T08:43:31Z</time>
      </trkpt>
      <trkpt lat="43.08899899999943" lon="-1.2459099999999996">
        <ele>995.613</ele>
        <time>2022-08-24T08:43:32Z</time>
      </trkpt>
      <trkpt lat="43.08900999999943" lon="-1.2459229999999997">
        <ele>995.609</ele>
        <time>2022-08-24T08:43:33Z</time>
      </trkpt>
      <trkpt lat="43.08901899999943" lon="-1.2459349999999996">
        <ele>995.658</ele>
        <time>2022-08-24T08:43:34Z</time>
      </trkpt>
      <trkpt lat="43.08902999999943" lon="-1.2459519999999995">
        <ele>995.898</ele>
        <time>2022-08-24T08:43:35Z</time>
      </trkpt>
      <trkpt lat="43.089034999999434" lon="-1.2459649999999995">
        <ele>995.848</ele>
        <time>2022-08-24T08:43:36Z</time>
      </trkpt>
      <trkpt lat="43.089042999999435" lon="-1.2459799999999996">
        <ele>995.864</ele>
        <time>2022-08-24T08:43:37Z</time>
      </trkpt>
      <trkpt lat="43.089050999999436" lon="-1.2459959999999997">
        <ele>996.036</ele>
        <time>2022-08-24T08:43:38Z</time>
      </trkpt>
      <trkpt lat="43.08905899999944" lon="-1.2460139999999997">
        <ele>996.023</ele>
        <time>2022-08-24T08:43:39Z</time>
      </trkpt>
      <trkpt lat="43.08906499999944" lon="-1.2460289999999998">
        <ele>996.066</ele>
        <time>2022-08-24T08:43:40Z</time>
      </trkpt>
      <trkpt lat="43.089070999999436" lon="-1.2460449999999998">
        <ele>996.220</ele>
        <time>2022-08-24T08:43:41Z</time>
      </trkpt>
      <trkpt lat="43.08907899999944" lon="-1.24606">
        <ele>996.469</ele>
        <time>2022-08-24T08:43:42Z</time>
      </trkpt>
      <trkpt lat="43.08908399999944" lon="-1.2460719999999998">
        <ele>996.639</ele>
        <time>2022-08-24T08:43:43Z</time>
      </trkpt>
      <trkpt lat="43.089090999999435" lon="-1.246087">
        <ele>996.801</ele>
        <time>2022-08-24T08:43:44Z</time>
      </trkpt>
      <trkpt lat="43.08910099999944" lon="-1.246106">
        <ele>996.821</ele>
        <time>2022-08-24T08:43:45Z</time>
      </trkpt>
      <trkpt lat="43.089107999999435" lon="-1.246117">
        <ele>997.009</ele>
        <time>2022-08-24T08:43:46Z</time>
      </trkpt>
      <trkpt lat="43.08911799999944" lon="-1.246135">
        <ele>997.234</ele>
        <time>2022-08-24T08:43:47Z</time>
      </trkpt>
      <trkpt lat="43.089129999999436" lon="-1.246148">
        <ele>997.444</ele>
        <time>2022-08-24T08:43:48Z</time>
      </trkpt>
      <trkpt lat="43.08913199999944" lon="-1.246166">
        <ele>997.644</ele>
        <time>2022-08-24T08:43:49Z</time>
      </trkpt>
      <trkpt lat="43.08914099999944" lon="-1.2461810000000002">
        <ele>998.040</ele>
        <time>2022-08-24T08:43:50Z</time>
      </trkpt>
      <trkpt lat="43.08914799999943" lon="-1.2461950000000002">
        <ele>998.282</ele>
        <time>2022-08-24T08:43:51Z</time>
      </trkpt>
      <trkpt lat="43.08915199999943" lon="-1.2462100000000003">
        <ele>998.249</ele>
        <time>2022-08-24T08:43:52Z</time>
      </trkpt>
      <trkpt lat="43.08915699999943" lon="-1.2462230000000003">
        <ele>998.442</ele>
        <time>2022-08-24T08:43:53Z</time>
      </trkpt>
      <trkpt lat="43.08916599999943" lon="-1.2462380000000004">
        <ele>998.676</ele>
        <time>2022-08-24T08:43:54Z</time>
      </trkpt>
      <trkpt lat="43.08917899999943" lon="-1.2462500000000003">
        <ele>998.855</ele>
        <time>2022-08-24T08:43:55Z</time>
      </trkpt>
      <trkpt lat="43.089189999999434" lon="-1.2462570000000004">
        <ele>999.088</ele>
        <time>2022-08-24T08:43:56Z</time>
      </trkpt>
      <trkpt lat="43.089203999999434" lon="-1.2462640000000005">
        <ele>999.224</ele>
        <time>2022-08-24T08:43:57Z</time>
      </trkpt>
      <trkpt lat="43.08921399999944" lon="-1.2462720000000005">
        <ele>999.426</ele>
        <time>2022-08-24T08:43:58Z</time>
      </trkpt>
      <trkpt lat="43.08922799999944" lon="-1.2462810000000004">
        <ele>999.409</ele>
        <time>2022-08-24T08:43:59Z</time>
      </trkpt>
      <trkpt lat="43.089242999999435" lon="-1.2462910000000005">
        <ele>999.689</ele>
        <time>2022-08-24T08:44:00Z</time>
      </trkpt>
      <trkpt lat="43.08925299999944" lon="-1.2463020000000005">
        <ele>999.629</ele>
        <time>2022-08-24T08:44:01Z</time>
      </trkpt>
      <trkpt lat="43.08926599999944" lon="-1.2463090000000006">
        <ele>999.889</ele>
        <time>2022-08-24T08:44:02Z</time>
      </trkpt>
      <trkpt lat="43.08927699999944" lon="-1.2463140000000006">
        <ele>1000.225</ele>
        <time>2022-08-24T08:44:03Z</time>
      </trkpt>
      <trkpt lat="43.089289999999444" lon="-1.2463210000000007">
        <ele>1000.217</ele>
        <time>2022-08-24T08:44:04Z</time>
      </trkpt>
      <trkpt lat="43.08930299999945" lon="-1.2463300000000006">
        <ele>1000.214</ele>
        <time>2022-08-24T08:44:05Z</time>
      </trkpt>
      <trkpt lat="43.089314999999445" lon="-1.2463360000000006">
        <ele>1000.437</ele>
        <time>2022-08-24T08:44:06Z</time>
      </trkpt>
      <trkpt lat="43.089328999999445" lon="-1.2463460000000006">
        <ele>1000.621</ele>
        <time>2022-08-24T08:44:07Z</time>
      </trkpt>
      <trkpt lat="43.08934199999945" lon="-1.2463550000000005">
        <ele>1000.650</ele>
        <time>2022-08-24T08:44:08Z</time>
      </trkpt>
      <trkpt lat="43.08935899999945" lon="-1.2463650000000006">
        <ele>1000.867</ele>
        <time>2022-08-24T08:44:09Z</time>
      </trkpt>
      <trkpt lat="43.08937199999945" lon="-1.2463760000000006">
        <ele>1001.081</ele>
        <time>2022-08-24T08:44:10Z</time>
      </trkpt>
      <trkpt lat="43.08938499999945" lon="-1.2463860000000007">
        <ele>1001.219</ele>
        <time>2022-08-24T08:44:11Z</time>
      </trkpt>
      <trkpt lat="43.089397999999456" lon="-1.2463950000000006">
        <ele>1001.409</ele>
        <time>2022-08-24T08:44:12Z</time>
      </trkpt>
      <trkpt lat="43.089409999999454" lon="-1.2464060000000006">
        <ele>1001.427</ele>
        <time>2022-08-24T08:44:13Z</time>
      </trkpt>
      <trkpt lat="43.089420999999454" lon="-1.2464170000000006">
        <ele>1001.677</ele>
        <time>2022-08-24T08:44:14Z</time>
      </trkpt>
      <trkpt lat="43.08943399999946" lon="-1.2464260000000005">
        <ele>1001.817</ele>
        <time>2022-08-24T08:44:15Z</time>
      </trkpt>
      <trkpt lat="43.08944499999946" lon="-1.2464330000000006">
        <ele>1002.063</ele>
        <time>2022-08-24T08:44:16Z</time>
      </trkpt>
      <trkpt lat="43.08945599999946" lon="-1.2464420000000005">
        <ele>1002.285</ele>
        <time>2022-08-24T08:44:17Z</time>
      </trkpt>
      <trkpt lat="43.08946799999946" lon="-1.2464550000000005">
        <ele>1002.242</ele>
        <time>2022-08-24T08:44:18Z</time>
      </trkpt>
      <trkpt lat="43.089476999999455" lon="-1.2464650000000006">
        <ele>1002.425</ele>
        <time>2022-08-24T08:44:19Z</time>
      </trkpt>
      <trkpt lat="43.089485999999454" lon="-1.2464770000000005">
        <ele>1002.449</ele>
        <time>2022-08-24T08:44:20Z</time>
      </trkpt>
      <trkpt lat="43.089490999999455" lon="-1.2464890000000004">
        <ele>1002.638</ele>
        <time>2022-08-24T08:44:21Z</time>
      </trkpt>
      <trkpt lat="43.089501999999456" lon="-1.2465030000000004">
        <ele>1003.063</ele>
        <time>2022-08-24T08:44:22Z</time>
      </trkpt>
      <trkpt lat="43.08950999999946" lon="-1.2465170000000003">
        <ele>1003.044</ele>
        <time>2022-08-24T08:44:23Z</time>
      </trkpt>
      <trkpt lat="43.08951799999946" lon="-1.2465310000000003">
        <ele>1003.218</ele>
        <time>2022-08-24T08:44:24Z</time>
      </trkpt>
      <trkpt lat="43.08952599999946" lon="-1.2465470000000003">
        <ele>1003.209</ele>
        <time>2022-08-24T08:44:25Z</time>
      </trkpt>
      <trkpt lat="43.08953499999946" lon="-1.2465670000000002">
        <ele>1003.487</ele>
        <time>2022-08-24T08:44:26Z</time>
      </trkpt>
      <trkpt lat="43.089538999999455" lon="-1.2465840000000001">
        <ele>1003.867</ele>
        <time>2022-08-24T08:44:27Z</time>
      </trkpt>
      <trkpt lat="43.08954299999945" lon="-1.2465970000000002">
        <ele>1003.867</ele>
        <time>2022-08-24T08:44:28Z</time>
      </trkpt>
      <trkpt lat="43.08954599999945" lon="-1.2466120000000003">
        <ele>1004.233</ele>
        <time>2022-08-24T08:44:29Z</time>
      </trkpt>
      <trkpt lat="43.08954999999945" lon="-1.2466260000000002">
        <ele>1004.485</ele>
        <time>2022-08-24T08:44:30Z</time>
      </trkpt>
      <trkpt lat="43.08954899999945" lon="-1.2466430000000002">
        <ele>1004.842</ele>
        <time>2022-08-24T08:44:31Z</time>
      </trkpt>
      <trkpt lat="43.08954599999945" lon="-1.24666">
        <ele>1005.055</ele>
        <time>2022-08-24T08:44:32Z</time>
      </trkpt>
      <trkpt lat="43.08954399999945" lon="-1.2466730000000001">
        <ele>1005.429</ele>
        <time>2022-08-24T08:44:33Z</time>
      </trkpt>
      <trkpt lat="43.08954099999945" lon="-1.246687">
        <ele>1005.678</ele>
        <time>2022-08-24T08:44:34Z</time>
      </trkpt>
      <trkpt lat="43.08953799999945" lon="-1.246701">
        <ele>1005.642</ele>
        <time>2022-08-24T08:44:35Z</time>
      </trkpt>
      <trkpt lat="43.08953399999945" lon="-1.2467190000000001">
        <ele>1005.822</ele>
        <time>2022-08-24T08:44:36Z</time>
      </trkpt>
      <trkpt lat="43.089527999999454" lon="-1.2467350000000001">
        <ele>1006.014</ele>
        <time>2022-08-24T08:44:37Z</time>
      </trkpt>
      <trkpt lat="43.089524999999455" lon="-1.2467480000000002">
        <ele>1006.209</ele>
        <time>2022-08-24T08:44:38Z</time>
      </trkpt>
      <trkpt lat="43.08952299999945" lon="-1.2467650000000001">
        <ele>1006.485</ele>
        <time>2022-08-24T08:44:39Z</time>
      </trkpt>
      <trkpt lat="43.08952299999945" lon="-1.2467840000000001">
        <ele>1006.615</ele>
        <time>2022-08-24T08:44:40Z</time>
      </trkpt>
      <trkpt lat="43.08952299999945" lon="-1.246806">
        <ele>1006.865</ele>
        <time>2022-08-24T08:44:41Z</time>
      </trkpt>
      <trkpt lat="43.08952399999945" lon="-1.246822">
        <ele>1007.051</ele>
        <time>2022-08-24T08:44:42Z</time>
      </trkpt>
      <trkpt lat="43.08952299999945" lon="-1.246834">
        <ele>1007.253</ele>
        <time>2022-08-24T08:44:43Z</time>
      </trkpt>
      <trkpt lat="43.08952099999945" lon="-1.246846">
        <ele>1007.290</ele>
        <time>2022-08-24T08:44:44Z</time>
      </trkpt>
      <trkpt lat="43.089516999999454" lon="-1.2468629999999998">
        <ele>1007.413</ele>
        <time>2022-08-24T08:44:45Z</time>
      </trkpt>
      <trkpt lat="43.08951299999946" lon="-1.246881">
        <ele>1007.647</ele>
        <time>2022-08-24T08:44:46Z</time>
      </trkpt>
      <trkpt lat="43.08951299999946" lon="-1.2468979999999998">
        <ele>1007.656</ele>
        <time>2022-08-24T08:44:47Z</time>
      </trkpt>
      <trkpt lat="43.08951299999946" lon="-1.246916">
        <ele>1007.882</ele>
        <time>2022-08-24T08:44:48Z</time>
      </trkpt>
      <trkpt lat="43.089513999999454" lon="-1.2469329999999998">
        <ele>1007.843</ele>
        <time>2022-08-24T08:44:49Z</time>
      </trkpt>
      <trkpt lat="43.089513999999454" lon="-1.2469439999999998">
        <ele>1008.017</ele>
        <time>2022-08-24T08:44:50Z</time>
      </trkpt>
      <trkpt lat="43.089516999999454" lon="-1.2469609999999998">
        <ele>1008.009</ele>
        <time>2022-08-24T08:44:51Z</time>
      </trkpt>
      <trkpt lat="43.089521999999455" lon="-1.2469729999999997">
        <ele>1008.069</ele>
        <time>2022-08-24T08:44:52Z</time>
      </trkpt>
      <trkpt lat="43.089524999999455" lon="-1.2469829999999997">
        <ele>1008.279</ele>
        <time>2022-08-24T08:44:53Z</time>
      </trkpt>
      <trkpt lat="43.08952599999945" lon="-1.2469909999999997">
        <ele>1008.279</ele>
        <time>2022-08-24T08:44:54Z</time>
      </trkpt>
      <trkpt lat="43.08951799999945" lon="-1.2470049999999997">
        <ele>1009.015</ele>
        <time>2022-08-24T08:48:35Z</time>
      </trkpt>
      <trkpt lat="43.08944599999945" lon="-1.2470029999999996">
        <ele>1009.237</ele>
        <time>2022-08-24T08:48:40Z</time>
      </trkpt>
      <trkpt lat="43.089432999999445" lon="-1.2470029999999996">
        <ele>1009.214</ele>
        <time>2022-08-24T08:48:41Z</time>
      </trkpt>
      <trkpt lat="43.089418999999445" lon="-1.2470059999999996">
        <ele>1009.687</ele>
        <time>2022-08-24T08:48:42Z</time>
      </trkpt>
      <trkpt lat="43.089404999999445" lon="-1.2470049999999997">
        <ele>1009.871</ele>
        <time>2022-08-24T08:48:43Z</time>
      </trkpt>
      <trkpt lat="43.08938999999945" lon="-1.2470019999999997">
        <ele>1010.020</ele>
        <time>2022-08-24T08:48:44Z</time>
      </trkpt>
      <trkpt lat="43.08937599999945" lon="-1.2470019999999997">
        <ele>1010.242</ele>
        <time>2022-08-24T08:48:45Z</time>
      </trkpt>
      <trkpt lat="43.08933599999945" lon="-1.2470239999999997">
        <ele>1010.222</ele>
        <time>2022-08-24T08:48:48Z</time>
      </trkpt>
      <trkpt lat="43.08932199999945" lon="-1.2470329999999996">
        <ele>1010.214</ele>
        <time>2022-08-24T08:48:49Z</time>
      </trkpt>
      <trkpt lat="43.08929299999945" lon="-1.2470509999999997">
        <ele>1010.209</ele>
        <time>2022-08-24T08:48:51Z</time>
      </trkpt>
      <trkpt lat="43.08928099999945" lon="-1.2470659999999998">
        <ele>1010.245</ele>
        <time>2022-08-24T08:48:52Z</time>
      </trkpt>
      <trkpt lat="43.08925299999945" lon="-1.2470899999999998">
        <ele>1010.045</ele>
        <time>2022-08-24T08:48:54Z</time>
      </trkpt>
      <trkpt lat="43.08919399999945" lon="-1.2471469999999998">
        <ele>1010.075</ele>
        <time>2022-08-24T08:48:58Z</time>
      </trkpt>
      <trkpt lat="43.089178999999454" lon="-1.2471589999999997">
        <ele>1010.251</ele>
        <time>2022-08-24T08:48:59Z</time>
      </trkpt>
      <trkpt lat="43.08916399999946" lon="-1.2471679999999996">
        <ele>1010.253</ele>
        <time>2022-08-24T08:49:00Z</time>
      </trkpt>
      <trkpt lat="43.089150999999454" lon="-1.2471779999999997">
        <ele>1010.280</ele>
        <time>2022-08-24T08:49:01Z</time>
      </trkpt>
      <trkpt lat="43.08913999999945" lon="-1.2471899999999996">
        <ele>1010.653</ele>
        <time>2022-08-24T08:49:02Z</time>
      </trkpt>
      <trkpt lat="43.08912699999945" lon="-1.2472009999999996">
        <ele>1010.627</ele>
        <time>2022-08-24T08:49:03Z</time>
      </trkpt>
      <trkpt lat="43.08911499999945" lon="-1.2472129999999995">
        <ele>1010.836</ele>
        <time>2022-08-24T08:49:04Z</time>
      </trkpt>
      <trkpt lat="43.089102999999454" lon="-1.2472219999999994">
        <ele>1010.851</ele>
        <time>2022-08-24T08:49:05Z</time>
      </trkpt>
      <trkpt lat="43.08906199999945" lon="-1.2472659999999993">
        <ele>1011.201</ele>
        <time>2022-08-24T08:49:09Z</time>
      </trkpt>
      <trkpt lat="43.08905299999945" lon="-1.2472779999999992">
        <ele>1011.211</ele>
        <time>2022-08-24T08:49:10Z</time>
      </trkpt>
      <trkpt lat="43.089029999999454" lon="-1.2473009999999993">
        <ele>1011.409</ele>
        <time>2022-08-24T08:49:12Z</time>
      </trkpt>
      <trkpt lat="43.08895499999945" lon="-1.2473799999999993">
        <ele>1011.846</ele>
        <time>2022-08-24T08:49:18Z</time>
      </trkpt>
      <trkpt lat="43.088922999999454" lon="-1.2474169999999993">
        <ele>1012.296</ele>
        <time>2022-08-24T08:49:21Z</time>
      </trkpt>
      <trkpt lat="43.08891199999945" lon="-1.2474309999999993">
        <ele>1012.286</ele>
        <time>2022-08-24T08:49:22Z</time>
      </trkpt>
      <trkpt lat="43.08885899999945" lon="-1.2474879999999993">
        <ele>1012.652</ele>
        <time>2022-08-24T08:49:26Z</time>
      </trkpt>
      <trkpt lat="43.088837999999456" lon="-1.2475159999999992">
        <ele>1012.834</ele>
        <time>2022-08-24T08:49:28Z</time>
      </trkpt>
      <trkpt lat="43.08882799999945" lon="-1.2475319999999992">
        <ele>1012.841</ele>
        <time>2022-08-24T08:49:29Z</time>
      </trkpt>
      <trkpt lat="43.08881799999945" lon="-1.2475489999999991">
        <ele>1012.844</ele>
        <time>2022-08-24T08:49:30Z</time>
      </trkpt>
      <trkpt lat="43.088790999999446" lon="-1.2475989999999992">
        <ele>1013.068</ele>
        <time>2022-08-24T08:49:33Z</time>
      </trkpt>
      <trkpt lat="43.08877899999945" lon="-1.2476139999999993">
        <ele>1013.027</ele>
        <time>2022-08-24T08:49:34Z</time>
      </trkpt>
      <trkpt lat="43.088768999999445" lon="-1.2476279999999993">
        <ele>1013.259</ele>
        <time>2022-08-24T08:49:35Z</time>
      </trkpt>
      <trkpt lat="43.088746999999444" lon="-1.2476619999999994">
        <ele>1013.203</ele>
        <time>2022-08-24T08:49:37Z</time>
      </trkpt>
      <trkpt lat="43.088737999999445" lon="-1.2476779999999994">
        <ele>1013.423</ele>
        <time>2022-08-24T08:49:38Z</time>
      </trkpt>
      <trkpt lat="43.08871099999944" lon="-1.2477209999999994">
        <ele>1013.409</ele>
        <time>2022-08-24T08:49:41Z</time>
      </trkpt>
      <trkpt lat="43.08869999999944" lon="-1.2477339999999995">
        <ele>1013.436</ele>
        <time>2022-08-24T08:49:42Z</time>
      </trkpt>
      <trkpt lat="43.088667999999444" lon="-1.2477999999999994">
        <ele>1014.226</ele>
        <time>2022-08-24T08:49:46Z</time>
      </trkpt>
      <trkpt lat="43.08865799999944" lon="-1.2478149999999995">
        <ele>1014.666</ele>
        <time>2022-08-24T08:49:47Z</time>
      </trkpt>
      <trkpt lat="43.08861199999944" lon="-1.2478899999999995">
        <ele>1015.272</ele>
        <time>2022-08-24T08:49:52Z</time>
      </trkpt>
      <trkpt lat="43.088599999999445" lon="-1.2479099999999994">
        <ele>1015.254</ele>
        <time>2022-08-24T08:49:53Z</time>
      </trkpt>
      <trkpt lat="43.08859099999945" lon="-1.2479229999999994">
        <ele>1015.251</ele>
        <time>2022-08-24T08:49:54Z</time>
      </trkpt>
      <trkpt lat="43.088580999999444" lon="-1.2479379999999995">
        <ele>1015.254</ele>
        <time>2022-08-24T08:49:55Z</time>
      </trkpt>
      <trkpt lat="43.088571999999445" lon="-1.2479569999999995">
        <ele>1015.268</ele>
        <time>2022-08-24T08:49:56Z</time>
      </trkpt>
      <trkpt lat="43.088562999999446" lon="-1.2479729999999996">
        <ele>1015.287</ele>
        <time>2022-08-24T08:49:57Z</time>
      </trkpt>
      <trkpt lat="43.08855299999944" lon="-1.2479919999999995">
        <ele>1015.226</ele>
        <time>2022-08-24T08:49:58Z</time>
      </trkpt>
      <trkpt lat="43.088543999999445" lon="-1.2480109999999995">
        <ele>1015.247</ele>
        <time>2022-08-24T08:49:59Z</time>
      </trkpt>
      <trkpt lat="43.088532999999444" lon="-1.2480289999999996">
        <ele>1015.411</ele>
        <time>2022-08-24T08:50:00Z</time>
      </trkpt>
      <trkpt lat="43.088523999999445" lon="-1.2480449999999996">
        <ele>1015.609</ele>
        <time>2022-08-24T08:50:01Z</time>
      </trkpt>
      <trkpt lat="43.088512999999445" lon="-1.2480629999999997">
        <ele>1015.863</ele>
        <time>2022-08-24T08:50:02Z</time>
      </trkpt>
      <trkpt lat="43.088501999999444" lon="-1.2480779999999998">
        <ele>1016.283</ele>
        <time>2022-08-24T08:50:03Z</time>
      </trkpt>
      <trkpt lat="43.08849099999944" lon="-1.2480939999999998">
        <ele>1016.243</ele>
        <time>2022-08-24T08:50:04Z</time>
      </trkpt>
      <trkpt lat="43.08848299999944" lon="-1.248109">
        <ele>1016.679</ele>
        <time>2022-08-24T08:50:05Z</time>
      </trkpt>
      <trkpt lat="43.088475999999446" lon="-1.248124">
        <ele>1016.831</ele>
        <time>2022-08-24T08:50:06Z</time>
      </trkpt>
      <trkpt lat="43.088464999999445" lon="-1.24814">
        <ele>1017.038</ele>
        <time>2022-08-24T08:50:07Z</time>
      </trkpt>
      <trkpt lat="43.08845299999945" lon="-1.248156">
        <ele>1017.021</ele>
        <time>2022-08-24T08:50:08Z</time>
      </trkpt>
      <trkpt lat="43.08844099999945" lon="-1.248172">
        <ele>1017.245</ele>
        <time>2022-08-24T08:50:09Z</time>
      </trkpt>
      <trkpt lat="43.08842899999945" lon="-1.248188">
        <ele>1017.244</ele>
        <time>2022-08-24T08:50:10Z</time>
      </trkpt>
      <trkpt lat="43.08841899999945" lon="-1.248204">
        <ele>1017.287</ele>
        <time>2022-08-24T08:50:11Z</time>
      </trkpt>
      <trkpt lat="43.08841099999945" lon="-1.248218">
        <ele>1017.642</ele>
        <time>2022-08-24T08:50:12Z</time>
      </trkpt>
      <trkpt lat="43.08839899999945" lon="-1.2482330000000001">
        <ele>1017.826</ele>
        <time>2022-08-24T08:50:13Z</time>
      </trkpt>
      <trkpt lat="43.08838499999945" lon="-1.2482480000000002">
        <ele>1017.809</ele>
        <time>2022-08-24T08:50:14Z</time>
      </trkpt>
      <trkpt lat="43.088374999999445" lon="-1.2482620000000002">
        <ele>1018.039</ele>
        <time>2022-08-24T08:50:15Z</time>
      </trkpt>
      <trkpt lat="43.08836299999945" lon="-1.2482780000000002">
        <ele>1018.079</ele>
        <time>2022-08-24T08:50:16Z</time>
      </trkpt>
      <trkpt lat="43.08835099999945" lon="-1.2482910000000003">
        <ele>1018.299</ele>
        <time>2022-08-24T08:50:17Z</time>
      </trkpt>
      <trkpt lat="43.08833999999945" lon="-1.2483020000000002">
        <ele>1018.485</ele>
        <time>2022-08-24T08:50:18Z</time>
      </trkpt>
      <trkpt lat="43.08832899999945" lon="-1.2483150000000003">
        <ele>1018.647</ele>
        <time>2022-08-24T08:50:19Z</time>
      </trkpt>
      <trkpt lat="43.08831999999945" lon="-1.2483300000000004">
        <ele>1018.814</ele>
        <time>2022-08-24T08:50:20Z</time>
      </trkpt>
      <trkpt lat="43.088309999999446" lon="-1.2483420000000003">
        <ele>1018.837</ele>
        <time>2022-08-24T08:50:21Z</time>
      </trkpt>
      <trkpt lat="43.088298999999445" lon="-1.2483560000000002">
        <ele>1019.031</ele>
        <time>2022-08-24T08:50:22Z</time>
      </trkpt>
      <trkpt lat="43.08828699999945" lon="-1.2483720000000003">
        <ele>1019.030</ele>
        <time>2022-08-24T08:50:23Z</time>
      </trkpt>
      <trkpt lat="43.088276999999444" lon="-1.2483850000000003">
        <ele>1019.412</ele>
        <time>2022-08-24T08:50:24Z</time>
      </trkpt>
      <trkpt lat="43.088264999999446" lon="-1.2483980000000003">
        <ele>1019.432</ele>
        <time>2022-08-24T08:50:25Z</time>
      </trkpt>
      <trkpt lat="43.08825299999945" lon="-1.2484110000000004">
        <ele>1019.605</ele>
        <time>2022-08-24T08:50:26Z</time>
      </trkpt>
      <trkpt lat="43.088242999999444" lon="-1.2484230000000003">
        <ele>1019.809</ele>
        <time>2022-08-24T08:50:27Z</time>
      </trkpt>
      <trkpt lat="43.088233999999446" lon="-1.2484330000000003">
        <ele>1019.862</ele>
        <time>2022-08-24T08:50:28Z</time>
      </trkpt>
      <trkpt lat="43.08822499999945" lon="-1.2484460000000004">
        <ele>1019.852</ele>
        <time>2022-08-24T08:50:29Z</time>
      </trkpt>
      <trkpt lat="43.088216999999446" lon="-1.2484600000000003">
        <ele>1019.822</ele>
        <time>2022-08-24T08:50:30Z</time>
      </trkpt>
      <trkpt lat="43.08820799999945" lon="-1.2484750000000004">
        <ele>1020.098</ele>
        <time>2022-08-24T08:50:31Z</time>
      </trkpt>
      <trkpt lat="43.08819899999945" lon="-1.2484900000000005">
        <ele>1020.020</ele>
        <time>2022-08-24T08:50:32Z</time>
      </trkpt>
      <trkpt lat="43.08818699999945" lon="-1.2485040000000005">
        <ele>1020.297</ele>
        <time>2022-08-24T08:50:33Z</time>
      </trkpt>
      <trkpt lat="43.08817499999945" lon="-1.2485160000000004">
        <ele>1020.280</ele>
        <time>2022-08-24T08:50:34Z</time>
      </trkpt>
      <trkpt lat="43.08816099999945" lon="-1.2485310000000005">
        <ele>1020.234</ele>
        <time>2022-08-24T08:50:35Z</time>
      </trkpt>
      <trkpt lat="43.088153999999456" lon="-1.2485480000000004">
        <ele>1020.483</ele>
        <time>2022-08-24T08:50:36Z</time>
      </trkpt>
      <trkpt lat="43.08814699999946" lon="-1.2485630000000005">
        <ele>1020.473</ele>
        <time>2022-08-24T08:50:37Z</time>
      </trkpt>
      <trkpt lat="43.08813999999946" lon="-1.2485760000000006">
        <ele>1020.685</ele>
        <time>2022-08-24T08:50:38Z</time>
      </trkpt>
      <trkpt lat="43.08813199999946" lon="-1.2485910000000007">
        <ele>1020.613</ele>
        <time>2022-08-24T08:50:39Z</time>
      </trkpt>
      <trkpt lat="43.08812399999946" lon="-1.2486030000000006">
        <ele>1020.809</ele>
        <time>2022-08-24T08:50:40Z</time>
      </trkpt>
      <trkpt lat="43.08811399999946" lon="-1.2486160000000006">
        <ele>1020.878</ele>
        <time>2022-08-24T08:50:41Z</time>
      </trkpt>
      <trkpt lat="43.088105999999456" lon="-1.2486310000000007">
        <ele>1021.078</ele>
        <time>2022-08-24T08:50:42Z</time>
      </trkpt>
      <trkpt lat="43.08809899999946" lon="-1.2486470000000007">
        <ele>1021.018</ele>
        <time>2022-08-24T08:50:43Z</time>
      </trkpt>
      <trkpt lat="43.08809099999946" lon="-1.2486630000000007">
        <ele>1021.084</ele>
        <time>2022-08-24T08:50:44Z</time>
      </trkpt>
      <trkpt lat="43.088080999999455" lon="-1.2486770000000007">
        <ele>1021.266</ele>
        <time>2022-08-24T08:50:45Z</time>
      </trkpt>
      <trkpt lat="43.08807099999945" lon="-1.2486900000000007">
        <ele>1021.463</ele>
        <time>2022-08-24T08:50:46Z</time>
      </trkpt>
      <trkpt lat="43.088061999999454" lon="-1.2487030000000008">
        <ele>1021.486</ele>
        <time>2022-08-24T08:50:47Z</time>
      </trkpt>
      <trkpt lat="43.08805399999945" lon="-1.2487190000000008">
        <ele>1021.660</ele>
        <time>2022-08-24T08:50:48Z</time>
      </trkpt>
      <trkpt lat="43.088046999999456" lon="-1.2487310000000007">
        <ele>1021.659</ele>
        <time>2022-08-24T08:50:49Z</time>
      </trkpt>
      <trkpt lat="43.08803999999946" lon="-1.2487430000000006">
        <ele>1021.856</ele>
        <time>2022-08-24T08:50:50Z</time>
      </trkpt>
      <trkpt lat="43.08803299999946" lon="-1.2487560000000006">
        <ele>1021.859</ele>
        <time>2022-08-24T08:50:51Z</time>
      </trkpt>
      <trkpt lat="43.08802499999946" lon="-1.2487720000000007">
        <ele>1022.014</ele>
        <time>2022-08-24T08:50:52Z</time>
      </trkpt>
      <trkpt lat="43.08801999999946" lon="-1.2487880000000007">
        <ele>1022.209</ele>
        <time>2022-08-24T08:50:53Z</time>
      </trkpt>
      <trkpt lat="43.08801499999946" lon="-1.2488030000000008">
        <ele>1022.256</ele>
        <time>2022-08-24T08:50:54Z</time>
      </trkpt>
      <trkpt lat="43.08800799999946" lon="-1.2488200000000007">
        <ele>1022.436</ele>
        <time>2022-08-24T08:50:55Z</time>
      </trkpt>
      <trkpt lat="43.08799999999946" lon="-1.2488340000000007">
        <ele>1022.426</ele>
        <time>2022-08-24T08:50:56Z</time>
      </trkpt>
      <trkpt lat="43.08799399999946" lon="-1.2488500000000007">
        <ele>1022.472</ele>
        <time>2022-08-24T08:50:57Z</time>
      </trkpt>
      <trkpt lat="43.08798499999946" lon="-1.2488670000000006">
        <ele>1022.644</ele>
        <time>2022-08-24T08:50:58Z</time>
      </trkpt>
      <trkpt lat="43.087975999999465" lon="-1.2488870000000005">
        <ele>1022.641</ele>
        <time>2022-08-24T08:50:59Z</time>
      </trkpt>
      <trkpt lat="43.087969999999466" lon="-1.2489080000000006">
        <ele>1022.864</ele>
        <time>2022-08-24T08:51:00Z</time>
      </trkpt>
      <trkpt lat="43.087961999999465" lon="-1.2489300000000005">
        <ele>1022.898</ele>
        <time>2022-08-24T08:51:01Z</time>
      </trkpt>
      <trkpt lat="43.087952999999466" lon="-1.2489520000000005">
        <ele>1023.067</ele>
        <time>2022-08-24T08:51:02Z</time>
      </trkpt>
      <trkpt lat="43.087944999999465" lon="-1.2489740000000005">
        <ele>1023.253</ele>
        <time>2022-08-24T08:51:03Z</time>
      </trkpt>
      <trkpt lat="43.087935999999466" lon="-1.2489990000000004">
        <ele>1023.404</ele>
        <time>2022-08-24T08:51:04Z</time>
      </trkpt>
      <trkpt lat="43.08792599999946" lon="-1.2490220000000005">
        <ele>1023.614</ele>
        <time>2022-08-24T08:51:05Z</time>
      </trkpt>
      <trkpt lat="43.08791499999946" lon="-1.2490470000000005">
        <ele>1023.809</ele>
        <time>2022-08-24T08:51:06Z</time>
      </trkpt>
      <trkpt lat="43.08790699999946" lon="-1.2490700000000006">
        <ele>1024.276</ele>
        <time>2022-08-24T08:51:07Z</time>
      </trkpt>
      <trkpt lat="43.08789699999946" lon="-1.2490930000000007">
        <ele>1024.426</ele>
        <time>2022-08-24T08:51:08Z</time>
      </trkpt>
      <trkpt lat="43.08788599999946" lon="-1.2491170000000007">
        <ele>1024.446</ele>
        <time>2022-08-24T08:51:09Z</time>
      </trkpt>
      <trkpt lat="43.087877999999456" lon="-1.2491410000000007">
        <ele>1024.632</ele>
        <time>2022-08-24T08:51:10Z</time>
      </trkpt>
      <trkpt lat="43.087869999999455" lon="-1.2491600000000007">
        <ele>1024.894</ele>
        <time>2022-08-24T08:51:11Z</time>
      </trkpt>
      <trkpt lat="43.08786099999946" lon="-1.2491840000000007">
        <ele>1025.231</ele>
        <time>2022-08-24T08:51:12Z</time>
      </trkpt>
      <trkpt lat="43.087852999999456" lon="-1.2492080000000008">
        <ele>1025.494</ele>
        <time>2022-08-24T08:51:13Z</time>
      </trkpt>
      <trkpt lat="43.087844999999454" lon="-1.2492300000000007">
        <ele>1025.638</ele>
        <time>2022-08-24T08:51:14Z</time>
      </trkpt>
      <trkpt lat="43.087835999999456" lon="-1.2492530000000008">
        <ele>1025.837</ele>
        <time>2022-08-24T08:51:15Z</time>
      </trkpt>
      <trkpt lat="43.087832999999456" lon="-1.2492740000000009">
        <ele>1026.061</ele>
        <time>2022-08-24T08:51:16Z</time>
      </trkpt>
      <trkpt lat="43.087824999999455" lon="-1.2492960000000009">
        <ele>1026.021</ele>
        <time>2022-08-24T08:51:17Z</time>
      </trkpt>
      <trkpt lat="43.087813999999454" lon="-1.249317000000001">
        <ele>1026.213</ele>
        <time>2022-08-24T08:51:18Z</time>
      </trkpt>
      <trkpt lat="43.087807999999455" lon="-1.249338000000001">
        <ele>1026.409</ele>
        <time>2022-08-24T08:51:19Z</time>
      </trkpt>
      <trkpt lat="43.087802999999454" lon="-1.249360000000001">
        <ele>1026.447</ele>
        <time>2022-08-24T08:51:20Z</time>
      </trkpt>
      <trkpt lat="43.087796999999455" lon="-1.249383000000001">
        <ele>1026.627</ele>
        <time>2022-08-24T08:51:21Z</time>
      </trkpt>
      <trkpt lat="43.08778999999946" lon="-1.249403000000001">
        <ele>1026.627</ele>
        <time>2022-08-24T08:51:22Z</time>
      </trkpt>
      <trkpt lat="43.08778299999946" lon="-1.249424000000001">
        <ele>1026.863</ele>
        <time>2022-08-24T08:51:23Z</time>
      </trkpt>
      <trkpt lat="43.08777699999946" lon="-1.2494440000000009">
        <ele>1026.885</ele>
        <time>2022-08-24T08:51:24Z</time>
      </trkpt>
      <trkpt lat="43.087769999999466" lon="-1.249465000000001">
        <ele>1027.032</ele>
        <time>2022-08-24T08:51:25Z</time>
      </trkpt>
      <trkpt lat="43.08776299999947" lon="-1.249484000000001">
        <ele>1027.275</ele>
        <time>2022-08-24T08:51:26Z</time>
      </trkpt>
      <trkpt lat="43.08775499999947" lon="-1.249502000000001">
        <ele>1027.229</ele>
        <time>2022-08-24T08:51:27Z</time>
      </trkpt>
      <trkpt lat="43.08774599999947" lon="-1.249518000000001">
        <ele>1027.448</ele>
        <time>2022-08-24T08:51:28Z</time>
      </trkpt>
      <trkpt lat="43.08773799999947" lon="-1.249532000000001">
        <ele>1027.471</ele>
        <time>2022-08-24T08:51:29Z</time>
      </trkpt>
      <trkpt lat="43.08772699999947" lon="-1.249546000000001">
        <ele>1027.441</ele>
        <time>2022-08-24T08:51:30Z</time>
      </trkpt>
      <trkpt lat="43.087716999999465" lon="-1.249559000000001">
        <ele>1027.615</ele>
        <time>2022-08-24T08:51:31Z</time>
      </trkpt>
      <trkpt lat="43.087707999999466" lon="-1.249575000000001">
        <ele>1027.609</ele>
        <time>2022-08-24T08:51:32Z</time>
      </trkpt>
      <trkpt lat="43.08769899999947" lon="-1.249589000000001">
        <ele>1028.098</ele>
        <time>2022-08-24T08:51:33Z</time>
      </trkpt>
      <trkpt lat="43.08769099999947" lon="-1.249603000000001">
        <ele>1027.818</ele>
        <time>2022-08-24T08:51:34Z</time>
      </trkpt>
      <trkpt lat="43.08768399999947" lon="-1.249618000000001">
        <ele>1028.048</ele>
        <time>2022-08-24T08:51:35Z</time>
      </trkpt>
      <trkpt lat="43.08767899999947" lon="-1.249631000000001">
        <ele>1028.224</ele>
        <time>2022-08-24T08:51:36Z</time>
      </trkpt>
      <trkpt lat="43.08767099999947" lon="-1.249648000000001">
        <ele>1028.216</ele>
        <time>2022-08-24T08:51:37Z</time>
      </trkpt>
      <trkpt lat="43.087665999999466" lon="-1.249664000000001">
        <ele>1028.293</ele>
        <time>2022-08-24T08:51:38Z</time>
      </trkpt>
      <trkpt lat="43.08765999999947" lon="-1.249680000000001">
        <ele>1028.496</ele>
        <time>2022-08-24T08:51:39Z</time>
      </trkpt>
      <trkpt lat="43.087654999999465" lon="-1.249699000000001">
        <ele>1028.650</ele>
        <time>2022-08-24T08:51:40Z</time>
      </trkpt>
      <trkpt lat="43.08764799999947" lon="-1.249718000000001">
        <ele>1028.679</ele>
        <time>2022-08-24T08:51:41Z</time>
      </trkpt>
      <trkpt lat="43.08763899999947" lon="-1.249735000000001">
        <ele>1028.838</ele>
        <time>2022-08-24T08:51:42Z</time>
      </trkpt>
      <trkpt lat="43.08762599999947" lon="-1.249750000000001">
        <ele>1029.070</ele>
        <time>2022-08-24T08:51:43Z</time>
      </trkpt>
      <trkpt lat="43.087615999999464" lon="-1.249763000000001">
        <ele>1029.017</ele>
        <time>2022-08-24T08:51:44Z</time>
      </trkpt>
      <trkpt lat="43.08760299999946" lon="-1.249780000000001">
        <ele>1029.209</ele>
        <time>2022-08-24T08:51:45Z</time>
      </trkpt>
      <trkpt lat="43.08759199999946" lon="-1.249798000000001">
        <ele>1029.444</ele>
        <time>2022-08-24T08:51:46Z</time>
      </trkpt>
      <trkpt lat="43.08757999999946" lon="-1.2498130000000012">
        <ele>1029.614</ele>
        <time>2022-08-24T08:51:47Z</time>
      </trkpt>
      <trkpt lat="43.087567999999465" lon="-1.249825000000001">
        <ele>1029.634</ele>
        <time>2022-08-24T08:51:48Z</time>
      </trkpt>
      <trkpt lat="43.087553999999464" lon="-1.249839000000001">
        <ele>1029.630</ele>
        <time>2022-08-24T08:51:49Z</time>
      </trkpt>
      <trkpt lat="43.087541999999466" lon="-1.249852000000001">
        <ele>1029.882</ele>
        <time>2022-08-24T08:51:50Z</time>
      </trkpt>
      <trkpt lat="43.087530999999466" lon="-1.249866000000001">
        <ele>1030.059</ele>
        <time>2022-08-24T08:51:51Z</time>
      </trkpt>
      <trkpt lat="43.08752099999946" lon="-1.249880000000001">
        <ele>1030.232</ele>
        <time>2022-08-24T08:51:52Z</time>
      </trkpt>
      <trkpt lat="43.087508999999464" lon="-1.249895000000001">
        <ele>1030.266</ele>
        <time>2022-08-24T08:51:53Z</time>
      </trkpt>
      <trkpt lat="43.08749599999946" lon="-1.2499080000000011">
        <ele>1030.485</ele>
        <time>2022-08-24T08:51:54Z</time>
      </trkpt>
      <trkpt lat="43.08748399999946" lon="-1.2499160000000011">
        <ele>1030.473</ele>
        <time>2022-08-24T08:51:55Z</time>
      </trkpt>
      <trkpt lat="43.08747099999946" lon="-1.2499260000000012">
        <ele>1030.885</ele>
        <time>2022-08-24T08:51:56Z</time>
      </trkpt>
      <trkpt lat="43.08745699999946" lon="-1.2499370000000012">
        <ele>1031.013</ele>
        <time>2022-08-24T08:51:57Z</time>
      </trkpt>
      <trkpt lat="43.08744399999946" lon="-1.2499480000000012">
        <ele>1031.209</ele>
        <time>2022-08-24T08:51:58Z</time>
      </trkpt>
      <trkpt lat="43.08742999999946" lon="-1.249960000000001">
        <ele>1031.478</ele>
        <time>2022-08-24T08:51:59Z</time>
      </trkpt>
      <trkpt lat="43.08741599999946" lon="-1.249972000000001">
        <ele>1031.678</ele>
        <time>2022-08-24T08:52:00Z</time>
      </trkpt>
      <trkpt lat="43.08740099999946" lon="-1.249982000000001">
        <ele>1031.828</ele>
        <time>2022-08-24T08:52:01Z</time>
      </trkpt>
      <trkpt lat="43.08738599999946" lon="-1.249988000000001">
        <ele>1032.054</ele>
        <time>2022-08-24T08:52:02Z</time>
      </trkpt>
      <trkpt lat="43.08737299999946" lon="-1.249991000000001">
        <ele>1032.446</ele>
        <time>2022-08-24T08:52:03Z</time>
      </trkpt>
      <trkpt lat="43.08736199999946" lon="-1.249996000000001">
        <ele>1032.663</ele>
        <time>2022-08-24T08:52:04Z</time>
      </trkpt>
      <trkpt lat="43.08734799999946" lon="-1.2500000000000009">
        <ele>1032.626</ele>
        <time>2022-08-24T08:52:05Z</time>
      </trkpt>
      <trkpt lat="43.08733699999946" lon="-1.2500060000000008">
        <ele>1032.890</ele>
        <time>2022-08-24T08:52:06Z</time>
      </trkpt>
      <trkpt lat="43.087323999999455" lon="-1.250013000000001">
        <ele>1032.859</ele>
        <time>2022-08-24T08:52:07Z</time>
      </trkpt>
      <trkpt lat="43.087306999999456" lon="-1.250021000000001">
        <ele>1033.052</ele>
        <time>2022-08-24T08:52:08Z</time>
      </trkpt>
      <trkpt lat="43.087292999999455" lon="-1.250023000000001">
        <ele>1033.253</ele>
        <time>2022-08-24T08:52:09Z</time>
      </trkpt>
      <trkpt lat="43.08727999999945" lon="-1.250029000000001">
        <ele>1033.408</ele>
        <time>2022-08-24T08:52:10Z</time>
      </trkpt>
      <trkpt lat="43.08726899999945" lon="-1.250034000000001">
        <ele>1033.609</ele>
        <time>2022-08-24T08:52:11Z</time>
      </trkpt>
      <trkpt lat="43.08725799999945" lon="-1.250040000000001">
        <ele>1033.686</ele>
        <time>2022-08-24T08:52:12Z</time>
      </trkpt>
      <trkpt lat="43.087242999999454" lon="-1.250047000000001">
        <ele>1033.696</ele>
        <time>2022-08-24T08:52:13Z</time>
      </trkpt>
      <trkpt lat="43.08722899999945" lon="-1.250049000000001">
        <ele>1033.846</ele>
        <time>2022-08-24T08:52:14Z</time>
      </trkpt>
      <trkpt lat="43.08721299999945" lon="-1.250050000000001">
        <ele>1033.832</ele>
        <time>2022-08-24T08:52:15Z</time>
      </trkpt>
      <trkpt lat="43.08719599999945" lon="-1.250055000000001">
        <ele>1034.054</ele>
        <time>2022-08-24T08:52:16Z</time>
      </trkpt>
      <trkpt lat="43.087180999999454" lon="-1.250060000000001">
        <ele>1034.251</ele>
        <time>2022-08-24T08:52:17Z</time>
      </trkpt>
      <trkpt lat="43.087165999999456" lon="-1.250064000000001">
        <ele>1034.444</ele>
        <time>2022-08-24T08:52:18Z</time>
      </trkpt>
      <trkpt lat="43.087152999999454" lon="-1.250069000000001">
        <ele>1034.678</ele>
        <time>2022-08-24T08:52:19Z</time>
      </trkpt>
      <trkpt lat="43.087140999999455" lon="-1.2500730000000009">
        <ele>1034.637</ele>
        <time>2022-08-24T08:52:20Z</time>
      </trkpt>
      <trkpt lat="43.08712899999946" lon="-1.2500770000000008">
        <ele>1034.827</ele>
        <time>2022-08-24T08:52:21Z</time>
      </trkpt>
      <trkpt lat="43.08711399999946" lon="-1.2500780000000007">
        <ele>1035.068</ele>
        <time>2022-08-24T08:52:22Z</time>
      </trkpt>
      <trkpt lat="43.08709699999946" lon="-1.2500800000000007">
        <ele>1035.014</ele>
        <time>2022-08-24T08:52:23Z</time>
      </trkpt>
      <trkpt lat="43.08708199999946" lon="-1.2500820000000008">
        <ele>1035.009</ele>
        <time>2022-08-24T08:52:24Z</time>
      </trkpt>
      <trkpt lat="43.08706599999946" lon="-1.2500840000000009">
        <ele>1035.273</ele>
        <time>2022-08-24T08:52:25Z</time>
      </trkpt>
      <trkpt lat="43.08705399999946" lon="-1.2500870000000008">
        <ele>1035.213</ele>
        <time>2022-08-24T08:52:26Z</time>
      </trkpt>
      <trkpt lat="43.087038999999464" lon="-1.2500900000000008">
        <ele>1035.223</ele>
        <time>2022-08-24T08:52:27Z</time>
      </trkpt>
      <trkpt lat="43.087024999999464" lon="-1.2500960000000008">
        <ele>1035.259</ele>
        <time>2022-08-24T08:52:28Z</time>
      </trkpt>
      <trkpt lat="43.087010999999464" lon="-1.2501010000000008">
        <ele>1035.461</ele>
        <time>2022-08-24T08:52:29Z</time>
      </trkpt>
      <trkpt lat="43.08699499999946" lon="-1.2501060000000008">
        <ele>1035.488</ele>
        <time>2022-08-24T08:52:30Z</time>
      </trkpt>
      <trkpt lat="43.086979999999464" lon="-1.2501070000000007">
        <ele>1035.411</ele>
        <time>2022-08-24T08:52:31Z</time>
      </trkpt>
      <trkpt lat="43.08696199999947" lon="-1.2501110000000006">
        <ele>1035.615</ele>
        <time>2022-08-24T08:52:32Z</time>
      </trkpt>
      <trkpt lat="43.086945999999465" lon="-1.2501150000000005">
        <ele>1035.624</ele>
        <time>2022-08-24T08:52:33Z</time>
      </trkpt>
      <trkpt lat="43.086928999999465" lon="-1.2501180000000005">
        <ele>1035.857</ele>
        <time>2022-08-24T08:52:34Z</time>
      </trkpt>
      <trkpt lat="43.08691099999947" lon="-1.2501230000000005">
        <ele>1036.000</ele>
        <time>2022-08-24T08:52:35Z</time>
      </trkpt>
      <trkpt lat="43.08689399999947" lon="-1.2501250000000006">
        <ele>1036.220</ele>
        <time>2022-08-24T08:52:36Z</time>
      </trkpt>
      <trkpt lat="43.08687899999947" lon="-1.2501280000000006">
        <ele>1036.409</ele>
        <time>2022-08-24T08:52:37Z</time>
      </trkpt>
      <trkpt lat="43.08686399999947" lon="-1.2501330000000006">
        <ele>1036.616</ele>
        <time>2022-08-24T08:52:38Z</time>
      </trkpt>
      <trkpt lat="43.08684799999947" lon="-1.2501390000000006">
        <ele>1036.866</ele>
        <time>2022-08-24T08:52:39Z</time>
      </trkpt>
      <trkpt lat="43.08683399999947" lon="-1.2501400000000005">
        <ele>1037.026</ele>
        <time>2022-08-24T08:52:40Z</time>
      </trkpt>
      <trkpt lat="43.08681899999947" lon="-1.2501410000000004">
        <ele>1037.462</ele>
        <time>2022-08-24T08:52:41Z</time>
      </trkpt>
      <trkpt lat="43.086806999999474" lon="-1.2501410000000004">
        <ele>1037.624</ele>
        <time>2022-08-24T08:52:42Z</time>
      </trkpt>
      <trkpt lat="43.086786999999475" lon="-1.2501450000000003">
        <ele>1037.671</ele>
        <time>2022-08-24T08:52:43Z</time>
      </trkpt>
      <trkpt lat="43.086769999999476" lon="-1.2501510000000002">
        <ele>1037.824</ele>
        <time>2022-08-24T08:52:44Z</time>
      </trkpt>
      <trkpt lat="43.08675499999948" lon="-1.2501570000000002">
        <ele>1037.888</ele>
        <time>2022-08-24T08:52:45Z</time>
      </trkpt>
      <trkpt lat="43.086741999999475" lon="-1.2501650000000002">
        <ele>1038.017</ele>
        <time>2022-08-24T08:52:46Z</time>
      </trkpt>
      <trkpt lat="43.08672899999947" lon="-1.2501720000000003">
        <ele>1038.031</ele>
        <time>2022-08-24T08:52:47Z</time>
      </trkpt>
      <trkpt lat="43.08671499999947" lon="-1.2501780000000002">
        <ele>1038.061</ele>
        <time>2022-08-24T08:52:48Z</time>
      </trkpt>
      <trkpt lat="43.086699999999475" lon="-1.2501890000000002">
        <ele>1038.207</ele>
        <time>2022-08-24T08:52:49Z</time>
      </trkpt>
      <trkpt lat="43.08668399999947" lon="-1.2501960000000003">
        <ele>1038.209</ele>
        <time>2022-08-24T08:52:50Z</time>
      </trkpt>
      <trkpt lat="43.08666999999947" lon="-1.2502020000000003">
        <ele>1038.464</ele>
        <time>2022-08-24T08:52:51Z</time>
      </trkpt>
      <trkpt lat="43.08665399999947" lon="-1.2502080000000002">
        <ele>1038.674</ele>
        <time>2022-08-24T08:52:52Z</time>
      </trkpt>
      <trkpt lat="43.08663899999947" lon="-1.2502180000000003">
        <ele>1038.864</ele>
        <time>2022-08-24T08:52:53Z</time>
      </trkpt>
      <trkpt lat="43.08662599999947" lon="-1.2502280000000003">
        <ele>1039.050</ele>
        <time>2022-08-24T08:52:54Z</time>
      </trkpt>
      <trkpt lat="43.08661199999947" lon="-1.2502410000000004">
        <ele>1039.292</ele>
        <time>2022-08-24T08:52:55Z</time>
      </trkpt>
      <trkpt lat="43.08659999999947" lon="-1.2502540000000004">
        <ele>1039.469</ele>
        <time>2022-08-24T08:52:56Z</time>
      </trkpt>
      <trkpt lat="43.08658799999947" lon="-1.2502640000000005">
        <ele>1039.412</ele>
        <time>2022-08-24T08:52:57Z</time>
      </trkpt>
      <trkpt lat="43.086575999999475" lon="-1.2502720000000005">
        <ele>1039.646</ele>
        <time>2022-08-24T08:52:58Z</time>
      </trkpt>
      <trkpt lat="43.08656399999948" lon="-1.2502800000000005">
        <ele>1039.855</ele>
        <time>2022-08-24T08:52:59Z</time>
      </trkpt>
      <trkpt lat="43.086550999999474" lon="-1.2502880000000005">
        <ele>1040.044</ele>
        <time>2022-08-24T08:53:00Z</time>
      </trkpt>
      <trkpt lat="43.086536999999474" lon="-1.2503010000000006">
        <ele>1040.005</ele>
        <time>2022-08-24T08:53:01Z</time>
      </trkpt>
      <trkpt lat="43.08652399999947" lon="-1.2503140000000006">
        <ele>1040.215</ele>
        <time>2022-08-24T08:53:02Z</time>
      </trkpt>
      <trkpt lat="43.08650999999947" lon="-1.2503250000000006">
        <ele>1040.409</ele>
        <time>2022-08-24T08:53:03Z</time>
      </trkpt>
      <trkpt lat="43.08649899999947" lon="-1.2503370000000005">
        <ele>1040.455</ele>
        <time>2022-08-24T08:53:04Z</time>
      </trkpt>
      <trkpt lat="43.08648899999947" lon="-1.2503520000000006">
        <ele>1041.085</ele>
        <time>2022-08-24T08:53:05Z</time>
      </trkpt>
      <trkpt lat="43.08647799999947" lon="-1.2503670000000007">
        <ele>1041.235</ele>
        <time>2022-08-24T08:53:06Z</time>
      </trkpt>
      <trkpt lat="43.08646899999947" lon="-1.2503830000000007">
        <ele>1041.271</ele>
        <time>2022-08-24T08:53:07Z</time>
      </trkpt>
      <trkpt lat="43.086458999999465" lon="-1.2503980000000008">
        <ele>1041.633</ele>
        <time>2022-08-24T08:53:08Z</time>
      </trkpt>
      <trkpt lat="43.08644899999946" lon="-1.2504110000000008">
        <ele>1041.810</ele>
        <time>2022-08-24T08:53:09Z</time>
      </trkpt>
      <trkpt lat="43.08643799999946" lon="-1.2504280000000008">
        <ele>1042.073</ele>
        <time>2022-08-24T08:53:10Z</time>
      </trkpt>
      <trkpt lat="43.08642599999946" lon="-1.2504450000000007">
        <ele>1042.037</ele>
        <time>2022-08-24T08:53:11Z</time>
      </trkpt>
      <trkpt lat="43.086416999999464" lon="-1.2504590000000007">
        <ele>1042.236</ele>
        <time>2022-08-24T08:53:12Z</time>
      </trkpt>
      <trkpt lat="43.08640699999946" lon="-1.2504760000000006">
        <ele>1042.477</ele>
        <time>2022-08-24T08:53:13Z</time>
      </trkpt>
      <trkpt lat="43.08639699999946" lon="-1.2504920000000006">
        <ele>1042.861</ele>
        <time>2022-08-24T08:53:14Z</time>
      </trkpt>
      <trkpt lat="43.086386999999455" lon="-1.2505080000000006">
        <ele>1043.027</ele>
        <time>2022-08-24T08:53:15Z</time>
      </trkpt>
      <trkpt lat="43.08637499999946" lon="-1.2505240000000006">
        <ele>1043.209</ele>
        <time>2022-08-24T08:53:16Z</time>
      </trkpt>
      <trkpt lat="43.08636299999946" lon="-1.2505440000000005">
        <ele>1043.498</ele>
        <time>2022-08-24T08:53:17Z</time>
      </trkpt>
      <trkpt lat="43.08635399999946" lon="-1.2505640000000005">
        <ele>1043.648</ele>
        <time>2022-08-24T08:53:18Z</time>
      </trkpt>
      <trkpt lat="43.08634599999946" lon="-1.2505820000000005">
        <ele>1043.838</ele>
        <time>2022-08-24T08:53:19Z</time>
      </trkpt>
      <trkpt lat="43.08633499999946" lon="-1.2506010000000005">
        <ele>1044.234</ele>
        <time>2022-08-24T08:53:20Z</time>
      </trkpt>
      <trkpt lat="43.08632399999946" lon="-1.2506180000000005">
        <ele>1044.276</ele>
        <time>2022-08-24T08:53:21Z</time>
      </trkpt>
      <trkpt lat="43.08631599999946" lon="-1.2506350000000004">
        <ele>1044.433</ele>
        <time>2022-08-24T08:53:22Z</time>
      </trkpt>
      <trkpt lat="43.08630599999945" lon="-1.2506530000000005">
        <ele>1044.426</ele>
        <time>2022-08-24T08:53:23Z</time>
      </trkpt>
      <trkpt lat="43.08629799999945" lon="-1.2506690000000005">
        <ele>1044.630</ele>
        <time>2022-08-24T08:53:24Z</time>
      </trkpt>
      <trkpt lat="43.08628799999945" lon="-1.2506880000000005">
        <ele>1044.689</ele>
        <time>2022-08-24T08:53:25Z</time>
      </trkpt>
      <trkpt lat="43.08628299999945" lon="-1.2507040000000005">
        <ele>1044.666</ele>
        <time>2022-08-24T08:53:26Z</time>
      </trkpt>
      <trkpt lat="43.08627899999945" lon="-1.2507190000000006">
        <ele>1044.829</ele>
        <time>2022-08-24T08:53:27Z</time>
      </trkpt>
      <trkpt lat="43.08627099999945" lon="-1.2507340000000007">
        <ele>1044.821</ele>
        <time>2022-08-24T08:53:28Z</time>
      </trkpt>
      <trkpt lat="43.08625999999945" lon="-1.2507480000000006">
        <ele>1045.009</ele>
        <time>2022-08-24T08:53:29Z</time>
      </trkpt>
      <trkpt lat="43.08624899999945" lon="-1.2507650000000006">
        <ele>1045.057</ele>
        <time>2022-08-24T08:53:30Z</time>
      </trkpt>
      <trkpt lat="43.086238999999445" lon="-1.2507830000000006">
        <ele>1045.257</ele>
        <time>2022-08-24T08:53:31Z</time>
      </trkpt>
      <trkpt lat="43.086230999999444" lon="-1.2508030000000006">
        <ele>1045.277</ele>
        <time>2022-08-24T08:53:32Z</time>
      </trkpt>
      <trkpt lat="43.08622399999945" lon="-1.2508200000000005">
        <ele>1045.623</ele>
        <time>2022-08-24T08:53:33Z</time>
      </trkpt>
      <trkpt lat="43.08621499999945" lon="-1.2508400000000004">
        <ele>1045.865</ele>
        <time>2022-08-24T08:53:34Z</time>
      </trkpt>
      <trkpt lat="43.08620599999945" lon="-1.2508570000000003">
        <ele>1045.832</ele>
        <time>2022-08-24T08:53:35Z</time>
      </trkpt>
      <trkpt lat="43.08619599999945" lon="-1.2508690000000002">
        <ele>1046.085</ele>
        <time>2022-08-24T08:53:36Z</time>
      </trkpt>
      <trkpt lat="43.086185999999444" lon="-1.2508830000000002">
        <ele>1046.039</ele>
        <time>2022-08-24T08:53:37Z</time>
      </trkpt>
      <trkpt lat="43.08617599999944" lon="-1.2508990000000002">
        <ele>1046.228</ele>
        <time>2022-08-24T08:53:38Z</time>
      </trkpt>
      <trkpt lat="43.08616599999944" lon="-1.2509180000000002">
        <ele>1046.673</ele>
        <time>2022-08-24T08:53:39Z</time>
      </trkpt>
      <trkpt lat="43.08615999999944" lon="-1.2509360000000003">
        <ele>1046.685</ele>
        <time>2022-08-24T08:53:40Z</time>
      </trkpt>
      <trkpt lat="43.08615399999944" lon="-1.2509520000000003">
        <ele>1046.813</ele>
        <time>2022-08-24T08:53:41Z</time>
      </trkpt>
      <trkpt lat="43.086143999999436" lon="-1.2509690000000002">
        <ele>1046.609</ele>
        <time>2022-08-24T08:53:42Z</time>
      </trkpt>
      <trkpt lat="43.08613699999944" lon="-1.2509860000000002">
        <ele>1046.828</ele>
        <time>2022-08-24T08:53:43Z</time>
      </trkpt>
      <trkpt lat="43.08613099999944" lon="-1.2510040000000002">
        <ele>1047.078</ele>
        <time>2022-08-24T08:53:44Z</time>
      </trkpt>
      <trkpt lat="43.08612099999944" lon="-1.2510220000000003">
        <ele>1047.248</ele>
        <time>2022-08-24T08:53:45Z</time>
      </trkpt>
      <trkpt lat="43.08611199999944" lon="-1.2510380000000003">
        <ele>1047.484</ele>
        <time>2022-08-24T08:53:46Z</time>
      </trkpt>
      <trkpt lat="43.08610399999944" lon="-1.2510530000000004">
        <ele>1047.486</ele>
        <time>2022-08-24T08:53:47Z</time>
      </trkpt>
      <trkpt lat="43.086093999999434" lon="-1.2510690000000004">
        <ele>1047.633</ele>
        <time>2022-08-24T08:53:48Z</time>
      </trkpt>
      <trkpt lat="43.08608599999943" lon="-1.2510850000000004">
        <ele>1047.656</ele>
        <time>2022-08-24T08:53:49Z</time>
      </trkpt>
      <trkpt lat="43.08607899999944" lon="-1.2511030000000005">
        <ele>1047.860</ele>
        <time>2022-08-24T08:53:50Z</time>
      </trkpt>
      <trkpt lat="43.08607199999944" lon="-1.2511210000000006">
        <ele>1047.849</ele>
        <time>2022-08-24T08:53:51Z</time>
      </trkpt>
      <trkpt lat="43.08606299999944" lon="-1.2511390000000007">
        <ele>1048.284</ele>
        <time>2022-08-24T08:53:52Z</time>
      </trkpt>
      <trkpt lat="43.08605399999944" lon="-1.2511580000000007">
        <ele>1048.407</ele>
        <time>2022-08-24T08:53:53Z</time>
      </trkpt>
      <trkpt lat="43.086044999999444" lon="-1.2511760000000007">
        <ele>1048.617</ele>
        <time>2022-08-24T08:53:54Z</time>
      </trkpt>
      <trkpt lat="43.086033999999444" lon="-1.2511910000000008">
        <ele>1048.809</ele>
        <time>2022-08-24T08:53:55Z</time>
      </trkpt>
      <trkpt lat="43.08601999999944" lon="-1.2512070000000008">
        <ele>1049.059</ele>
        <time>2022-08-24T08:53:56Z</time>
      </trkpt>
      <trkpt lat="43.08600899999944" lon="-1.2512210000000008">
        <ele>1049.259</ele>
        <time>2022-08-24T08:53:57Z</time>
      </trkpt>
      <trkpt lat="43.085999999999444" lon="-1.251236000000001">
        <ele>1049.469</ele>
        <time>2022-08-24T08:53:58Z</time>
      </trkpt>
      <trkpt lat="43.085993999999445" lon="-1.251251000000001">
        <ele>1049.475</ele>
        <time>2022-08-24T08:53:59Z</time>
      </trkpt>
      <trkpt lat="43.08598699999945" lon="-1.251271000000001">
        <ele>1049.677</ele>
        <time>2022-08-24T08:54:00Z</time>
      </trkpt>
      <trkpt lat="43.08598199999945" lon="-1.251289000000001">
        <ele>1049.854</ele>
        <time>2022-08-24T08:54:01Z</time>
      </trkpt>
      <trkpt lat="43.08597599999945" lon="-1.251306000000001">
        <ele>1049.827</ele>
        <time>2022-08-24T08:54:02Z</time>
      </trkpt>
      <trkpt lat="43.08596999999945" lon="-1.2513230000000009">
        <ele>1050.031</ele>
        <time>2022-08-24T08:54:03Z</time>
      </trkpt>
      <trkpt lat="43.08596099999945" lon="-1.251336000000001">
        <ele>1050.440</ele>
        <time>2022-08-24T08:54:04Z</time>
      </trkpt>
      <trkpt lat="43.08595599999945" lon="-1.2513500000000009">
        <ele>1050.845</ele>
        <time>2022-08-24T08:54:05Z</time>
      </trkpt>
      <trkpt lat="43.08594999999945" lon="-1.2513720000000008">
        <ele>1050.847</ele>
        <time>2022-08-24T08:54:06Z</time>
      </trkpt>
      <trkpt lat="43.08594299999945" lon="-1.2513910000000008">
        <ele>1051.011</ele>
        <time>2022-08-24T08:54:07Z</time>
      </trkpt>
      <trkpt lat="43.085936999999454" lon="-1.2514110000000007">
        <ele>1051.209</ele>
        <time>2022-08-24T08:54:08Z</time>
      </trkpt>
      <trkpt lat="43.085930999999455" lon="-1.2514300000000007">
        <ele>1051.475</ele>
        <time>2022-08-24T08:54:09Z</time>
      </trkpt>
      <trkpt lat="43.08592399999946" lon="-1.2514500000000006">
        <ele>1051.885</ele>
        <time>2022-08-24T08:54:10Z</time>
      </trkpt>
      <trkpt lat="43.08591799999946" lon="-1.2514670000000006">
        <ele>1052.265</ele>
        <time>2022-08-24T08:54:11Z</time>
      </trkpt>
      <trkpt lat="43.08591199999946" lon="-1.2514820000000006">
        <ele>1052.671</ele>
        <time>2022-08-24T08:54:12Z</time>
      </trkpt>
      <trkpt lat="43.08590399999946" lon="-1.2515000000000007">
        <ele>1052.633</ele>
        <time>2022-08-24T08:54:13Z</time>
      </trkpt>
      <trkpt lat="43.08589799999946" lon="-1.2515180000000008">
        <ele>1053.030</ele>
        <time>2022-08-24T08:54:14Z</time>
      </trkpt>
      <trkpt lat="43.085890999999464" lon="-1.2515380000000007">
        <ele>1053.253</ele>
        <time>2022-08-24T08:54:15Z</time>
      </trkpt>
      <trkpt lat="43.085881999999465" lon="-1.2515550000000006">
        <ele>1053.277</ele>
        <time>2022-08-24T08:54:16Z</time>
      </trkpt>
      <trkpt lat="43.08587199999946" lon="-1.2515710000000007">
        <ele>1053.486</ele>
        <time>2022-08-24T08:54:17Z</time>
      </trkpt>
      <trkpt lat="43.08586299999946" lon="-1.2515850000000006">
        <ele>1053.686</ele>
        <time>2022-08-24T08:54:18Z</time>
      </trkpt>
      <trkpt lat="43.08584999999946" lon="-1.2516020000000005">
        <ele>1053.860</ele>
        <time>2022-08-24T08:54:19Z</time>
      </trkpt>
      <trkpt lat="43.08583999999946" lon="-1.2516180000000006">
        <ele>1053.826</ele>
        <time>2022-08-24T08:54:20Z</time>
      </trkpt>
      <trkpt lat="43.085831999999456" lon="-1.2516330000000007">
        <ele>1053.809</ele>
        <time>2022-08-24T08:54:21Z</time>
      </trkpt>
      <trkpt lat="43.085823999999455" lon="-1.2516470000000006">
        <ele>1054.039</ele>
        <time>2022-08-24T08:54:22Z</time>
      </trkpt>
      <trkpt lat="43.085815999999454" lon="-1.2516580000000006">
        <ele>1054.019</ele>
        <time>2022-08-24T08:54:23Z</time>
      </trkpt>
      <trkpt lat="43.08580499999945" lon="-1.2516700000000005">
        <ele>1054.299</ele>
        <time>2022-08-24T08:54:24Z</time>
      </trkpt>
      <trkpt lat="43.085792999999455" lon="-1.2516810000000005">
        <ele>1054.245</ele>
        <time>2022-08-24T08:54:25Z</time>
      </trkpt>
      <trkpt lat="43.08578299999945" lon="-1.2516920000000005">
        <ele>1054.637</ele>
        <time>2022-08-24T08:54:26Z</time>
      </trkpt>
      <trkpt lat="43.08577199999945" lon="-1.2517040000000004">
        <ele>1054.684</ele>
        <time>2022-08-24T08:54:27Z</time>
      </trkpt>
      <trkpt lat="43.085764999999455" lon="-1.2517110000000005">
        <ele>1054.897</ele>
        <time>2022-08-24T08:54:28Z</time>
      </trkpt>
      <trkpt lat="43.085753999999454" lon="-1.2517190000000005">
        <ele>1055.031</ele>
        <time>2022-08-24T08:54:29Z</time>
      </trkpt>
      <trkpt lat="43.085739999999454" lon="-1.2517260000000006">
        <ele>1055.020</ele>
        <time>2022-08-24T08:54:30Z</time>
      </trkpt>
      <trkpt lat="43.085727999999456" lon="-1.2517320000000005">
        <ele>1055.412</ele>
        <time>2022-08-24T08:54:31Z</time>
      </trkpt>
      <trkpt lat="43.085710999999456" lon="-1.2517360000000004">
        <ele>1055.432</ele>
        <time>2022-08-24T08:54:32Z</time>
      </trkpt>
      <trkpt lat="43.08570099999945" lon="-1.2517380000000005">
        <ele>1055.605</ele>
        <time>2022-08-24T08:54:33Z</time>
      </trkpt>
      <trkpt lat="43.08568699999945" lon="-1.2517400000000005">
        <ele>1055.809</ele>
        <time>2022-08-24T08:54:34Z</time>
      </trkpt>
      <trkpt lat="43.08566999999945" lon="-1.2517510000000005">
        <ele>1056.052</ele>
        <time>2022-08-24T08:54:35Z</time>
      </trkpt>
      <trkpt lat="43.08565699999945" lon="-1.2517590000000005">
        <ele>1056.242</ele>
        <time>2022-08-24T08:54:36Z</time>
      </trkpt>
      <trkpt lat="43.08564399999945" lon="-1.2517680000000004">
        <ele>1056.482</ele>
        <time>2022-08-24T08:54:37Z</time>
      </trkpt>
      <trkpt lat="43.08563699999945" lon="-1.2517750000000005">
        <ele>1056.678</ele>
        <time>2022-08-24T08:54:38Z</time>
      </trkpt>
      <trkpt lat="43.08562099999945" lon="-1.2517870000000004">
        <ele>1056.880</ele>
        <time>2022-08-24T08:54:39Z</time>
      </trkpt>
      <trkpt lat="43.08560399999945" lon="-1.2518000000000005">
        <ele>1057.087</ele>
        <time>2022-08-24T08:54:40Z</time>
      </trkpt>
      <trkpt lat="43.08558799999945" lon="-1.2518090000000004">
        <ele>1057.240</ele>
        <time>2022-08-24T08:54:41Z</time>
      </trkpt>
      <trkpt lat="43.085571999999445" lon="-1.2518130000000003">
        <ele>1057.464</ele>
        <time>2022-08-24T08:54:42Z</time>
      </trkpt>
      <trkpt lat="43.08555599999944" lon="-1.2518190000000002">
        <ele>1057.663</ele>
        <time>2022-08-24T08:54:43Z</time>
      </trkpt>
      <trkpt lat="43.08554199999944" lon="-1.2518270000000002">
        <ele>1057.873</ele>
        <time>2022-08-24T08:54:44Z</time>
      </trkpt>
      <trkpt lat="43.085526999999445" lon="-1.2518350000000003">
        <ele>1057.885</ele>
        <time>2022-08-24T08:54:45Z</time>
      </trkpt>
      <trkpt lat="43.08551099999944" lon="-1.2518400000000003">
        <ele>1057.813</ele>
        <time>2022-08-24T08:54:46Z</time>
      </trkpt>
      <trkpt lat="43.08549399999944" lon="-1.2518480000000003">
        <ele>1057.809</ele>
        <time>2022-08-24T08:54:47Z</time>
      </trkpt>
      <trkpt lat="43.085478999999445" lon="-1.2518580000000004">
        <ele>1058.088</ele>
        <time>2022-08-24T08:54:48Z</time>
      </trkpt>
      <trkpt lat="43.08546299999944" lon="-1.2518670000000003">
        <ele>1058.088</ele>
        <time>2022-08-24T08:54:49Z</time>
      </trkpt>
      <trkpt lat="43.08544999999944" lon="-1.2518720000000003">
        <ele>1058.088</ele>
        <time>2022-08-24T08:54:50Z</time>
      </trkpt>
      <trkpt lat="43.08543299999944" lon="-1.2518810000000002">
        <ele>1058.024</ele>
        <time>2022-08-24T08:54:51Z</time>
      </trkpt>
      <trkpt lat="43.08541999999944" lon="-1.2518910000000003">
        <ele>1058.226</ele>
        <time>2022-08-24T08:54:52Z</time>
      </trkpt>
      <trkpt lat="43.08540799999944" lon="-1.2518970000000003">
        <ele>1058.223</ele>
        <time>2022-08-24T08:54:53Z</time>
      </trkpt>
      <trkpt lat="43.08539499999944" lon="-1.2519010000000002">
        <ele>1058.626</ele>
        <time>2022-08-24T08:54:54Z</time>
      </trkpt>
      <trkpt lat="43.085381999999434" lon="-1.251907">
        <ele>1058.620</ele>
        <time>2022-08-24T08:54:55Z</time>
      </trkpt>
      <trkpt lat="43.085361999999435" lon="-1.251921">
        <ele>1058.829</ele>
        <time>2022-08-24T08:54:56Z</time>
      </trkpt>
      <trkpt lat="43.085347999999435" lon="-1.251934">
        <ele>1059.075</ele>
        <time>2022-08-24T08:54:57Z</time>
      </trkpt>
      <trkpt lat="43.08533299999944" lon="-1.2519440000000002">
        <ele>1059.028</ele>
        <time>2022-08-24T08:54:58Z</time>
      </trkpt>
      <trkpt lat="43.08531799999944" lon="-1.2519520000000002">
        <ele>1059.220</ele>
        <time>2022-08-24T08:54:59Z</time>
      </trkpt>
      <trkpt lat="43.08530699999944" lon="-1.2519580000000001">
        <ele>1059.209</ele>
        <time>2022-08-24T08:55:00Z</time>
      </trkpt>
      <trkpt lat="43.08528999999944" lon="-1.2519680000000002">
        <ele>1059.468</ele>
        <time>2022-08-24T08:55:01Z</time>
      </trkpt>
      <trkpt lat="43.08527399999944" lon="-1.2519770000000001">
        <ele>1059.688</ele>
        <time>2022-08-24T08:55:02Z</time>
      </trkpt>
      <trkpt lat="43.08525699999944" lon="-1.2519850000000001">
        <ele>1059.668</ele>
        <time>2022-08-24T08:55:03Z</time>
      </trkpt>
      <trkpt lat="43.08524199999944" lon="-1.251991">
        <ele>1059.854</ele>
        <time>2022-08-24T08:55:04Z</time>
      </trkpt>
      <trkpt lat="43.08522899999944" lon="-1.251997">
        <ele>1059.836</ele>
        <time>2022-08-24T08:55:05Z</time>
      </trkpt>
      <trkpt lat="43.08521099999944" lon="-1.252005">
        <ele>1059.853</ele>
        <time>2022-08-24T08:55:06Z</time>
      </trkpt>
      <trkpt lat="43.08519499999944" lon="-1.252013">
        <ele>1060.096</ele>
        <time>2022-08-24T08:55:07Z</time>
      </trkpt>
      <trkpt lat="43.08518099999944" lon="-1.252021">
        <ele>1060.460</ele>
        <time>2022-08-24T08:55:08Z</time>
      </trkpt>
      <trkpt lat="43.085167999999435" lon="-1.252027">
        <ele>1060.649</ele>
        <time>2022-08-24T08:55:09Z</time>
      </trkpt>
      <trkpt lat="43.08515199999943" lon="-1.252034">
        <ele>1060.858</ele>
        <time>2022-08-24T08:55:10Z</time>
      </trkpt>
      <trkpt lat="43.08513299999943" lon="-1.2520410000000002">
        <ele>1061.252</ele>
        <time>2022-08-24T08:55:11Z</time>
      </trkpt>
      <trkpt lat="43.08511699999943" lon="-1.2520490000000002">
        <ele>1061.217</ele>
        <time>2022-08-24T08:55:12Z</time>
      </trkpt>
      <trkpt lat="43.08509699999943" lon="-1.2520560000000003">
        <ele>1061.409</ele>
        <time>2022-08-24T08:55:13Z</time>
      </trkpt>
      <trkpt lat="43.08508099999943" lon="-1.2520610000000003">
        <ele>1061.876</ele>
        <time>2022-08-24T08:55:14Z</time>
      </trkpt>
      <trkpt lat="43.085061999999425" lon="-1.2520660000000003">
        <ele>1061.816</ele>
        <time>2022-08-24T08:55:15Z</time>
      </trkpt>
      <trkpt lat="43.08504099999943" lon="-1.2520730000000004">
        <ele>1062.036</ele>
        <time>2022-08-24T08:55:16Z</time>
      </trkpt>
      <trkpt lat="43.08502399999943" lon="-1.2520810000000004">
        <ele>1062.062</ele>
        <time>2022-08-24T08:55:17Z</time>
      </trkpt>
      <trkpt lat="43.08500499999943" lon="-1.2520890000000005">
        <ele>1062.264</ele>
        <time>2022-08-24T08:55:18Z</time>
      </trkpt>
      <trkpt lat="43.08498999999943" lon="-1.2520940000000005">
        <ele>1062.241</ele>
        <time>2022-08-24T08:55:19Z</time>
      </trkpt>
      <trkpt lat="43.08497099999943" lon="-1.2521010000000006">
        <ele>1062.254</ele>
        <time>2022-08-24T08:55:20Z</time>
      </trkpt>
      <trkpt lat="43.08495099999943" lon="-1.2521060000000006">
        <ele>1062.468</ele>
        <time>2022-08-24T08:55:21Z</time>
      </trkpt>
      <trkpt lat="43.08492499999943" lon="-1.2521130000000007">
        <ele>1062.447</ele>
        <time>2022-08-24T08:55:22Z</time>
      </trkpt>
      <trkpt lat="43.08490299999943" lon="-1.2521190000000006">
        <ele>1062.495</ele>
        <time>2022-08-24T08:55:23Z</time>
      </trkpt>
      <trkpt lat="43.08487999999943" lon="-1.2521240000000007">
        <ele>1062.449</ele>
        <time>2022-08-24T08:55:24Z</time>
      </trkpt>
      <trkpt lat="43.08486099999943" lon="-1.2521290000000007">
        <ele>1062.423</ele>
        <time>2022-08-24T08:55:25Z</time>
      </trkpt>
      <trkpt lat="43.08483799999943" lon="-1.2521350000000007">
        <ele>1062.409</ele>
        <time>2022-08-24T08:55:26Z</time>
      </trkpt>
      <trkpt lat="43.08480899999943" lon="-1.2521420000000008">
        <ele>1062.460</ele>
        <time>2022-08-24T08:55:27Z</time>
      </trkpt>
      <trkpt lat="43.08478699999943" lon="-1.2521480000000007">
        <ele>1062.680</ele>
        <time>2022-08-24T08:55:28Z</time>
      </trkpt>
      <trkpt lat="43.08476299999943" lon="-1.2521540000000007">
        <ele>1062.630</ele>
        <time>2022-08-24T08:55:29Z</time>
      </trkpt>
      <trkpt lat="43.08474299999943" lon="-1.2521590000000007">
        <ele>1062.666</ele>
        <time>2022-08-24T08:55:30Z</time>
      </trkpt>
      <trkpt lat="43.08471799999943" lon="-1.2521620000000007">
        <ele>1062.678</ele>
        <time>2022-08-24T08:55:31Z</time>
      </trkpt>
      <trkpt lat="43.084684999999425" lon="-1.2521640000000007">
        <ele>1062.855</ele>
        <time>2022-08-24T08:55:32Z</time>
      </trkpt>
      <trkpt lat="43.08465799999942" lon="-1.2521640000000007">
        <ele>1063.068</ele>
        <time>2022-08-24T08:55:33Z</time>
      </trkpt>
      <trkpt lat="43.08463299999942" lon="-1.2521650000000006">
        <ele>1063.022</ele>
        <time>2022-08-24T08:55:34Z</time>
      </trkpt>
      <trkpt lat="43.08461299999942" lon="-1.2521670000000007">
        <ele>1063.071</ele>
        <time>2022-08-24T08:55:35Z</time>
      </trkpt>
      <trkpt lat="43.08455499999942" lon="-1.2521640000000007">
        <ele>1063.266</ele>
        <time>2022-08-24T08:55:37Z</time>
      </trkpt>
      <trkpt lat="43.08450299999942" lon="-1.2521620000000007">
        <ele>1063.429</ele>
        <time>2022-08-24T08:55:39Z</time>
      </trkpt>
      <trkpt lat="43.084397999999425" lon="-1.2521490000000006">
        <ele>1063.621</ele>
        <time>2022-08-24T08:55:43Z</time>
      </trkpt>
      <trkpt lat="43.08437399999942" lon="-1.2521440000000006">
        <ele>1063.609</ele>
        <time>2022-08-24T08:55:44Z</time>
      </trkpt>
      <trkpt lat="43.08435199999942" lon="-1.2521420000000005">
        <ele>1063.657</ele>
        <time>2022-08-24T08:55:45Z</time>
      </trkpt>
      <trkpt lat="43.08410699999942" lon="-1.2521110000000006">
        <ele>1063.447</ele>
        <time>2022-08-24T08:55:53Z</time>
      </trkpt>
      <trkpt lat="43.08407699999942" lon="-1.2521020000000007">
        <ele>1063.257</ele>
        <time>2022-08-24T08:55:54Z</time>
      </trkpt>
      <trkpt lat="43.08401499999942" lon="-1.2520970000000007">
        <ele>1063.253</ele>
        <time>2022-08-24T08:55:56Z</time>
      </trkpt>
      <trkpt lat="43.083925999999416" lon="-1.2520750000000007">
        <ele>1063.065</ele>
        <time>2022-08-24T08:55:59Z</time>
      </trkpt>
      <trkpt lat="43.08389699999942" lon="-1.2520640000000007">
        <ele>1063.042</ele>
        <time>2022-08-24T08:56:00Z</time>
      </trkpt>
      <trkpt lat="43.08386799999942" lon="-1.2520550000000008">
        <ele>1062.825</ele>
        <time>2022-08-24T08:56:01Z</time>
      </trkpt>
      <trkpt lat="43.08383999999942" lon="-1.2520460000000009">
        <ele>1062.849</ele>
        <time>2022-08-24T08:56:02Z</time>
      </trkpt>
      <trkpt lat="43.08381299999942" lon="-1.252037000000001">
        <ele>1062.828</ele>
        <time>2022-08-24T08:56:03Z</time>
      </trkpt>
      <trkpt lat="43.083785999999414" lon="-1.252028000000001">
        <ele>1062.832</ele>
        <time>2022-08-24T08:56:04Z</time>
      </trkpt>
      <trkpt lat="43.08375899999941" lon="-1.252020000000001">
        <ele>1062.892</ele>
        <time>2022-08-24T08:56:05Z</time>
      </trkpt>
      <trkpt lat="43.08373099999941" lon="-1.252013000000001">
        <ele>1062.811</ele>
        <time>2022-08-24T08:56:06Z</time>
      </trkpt>
      <trkpt lat="43.08364899999941" lon="-1.251994000000001">
        <ele>1062.809</ele>
        <time>2022-08-24T08:56:09Z</time>
      </trkpt>
      <trkpt lat="43.08362299999941" lon="-1.251985000000001">
        <ele>1063.014</ele>
        <time>2022-08-24T08:56:10Z</time>
      </trkpt>
      <trkpt lat="43.08359599999941" lon="-1.251978000000001">
        <ele>1063.044</ele>
        <time>2022-08-24T08:56:11Z</time>
      </trkpt>
      <trkpt lat="43.08356799999941" lon="-1.251975000000001">
        <ele>1063.044</ele>
        <time>2022-08-24T08:56:12Z</time>
      </trkpt>
      <trkpt lat="43.08354099999941" lon="-1.251970000000001">
        <ele>1063.070</ele>
        <time>2022-08-24T08:56:13Z</time>
      </trkpt>
      <trkpt lat="43.08351499999941" lon="-1.2519650000000009">
        <ele>1063.052</ele>
        <time>2022-08-24T08:56:14Z</time>
      </trkpt>
      <trkpt lat="43.08340799999941" lon="-1.2519410000000009">
        <ele>1063.069</ele>
        <time>2022-08-24T08:56:18Z</time>
      </trkpt>
      <trkpt lat="43.08337999999941" lon="-1.251935000000001">
        <ele>1063.022</ele>
        <time>2022-08-24T08:56:19Z</time>
      </trkpt>
      <trkpt lat="43.083352999999406" lon="-1.2519330000000009">
        <ele>1063.066</ele>
        <time>2022-08-24T08:56:20Z</time>
      </trkpt>
      <trkpt lat="43.083217999999405" lon="-1.251927000000001">
        <ele>1063.265</ele>
        <time>2022-08-24T08:56:25Z</time>
      </trkpt>
      <trkpt lat="43.0831909999994" lon="-1.251929000000001">
        <ele>1063.424</ele>
        <time>2022-08-24T08:56:26Z</time>
      </trkpt>
      <trkpt lat="43.0830529999994" lon="-1.251942000000001">
        <ele>1063.604</ele>
        <time>2022-08-24T08:56:31Z</time>
      </trkpt>
      <trkpt lat="43.083026999999404" lon="-1.251942000000001">
        <ele>1063.614</ele>
        <time>2022-08-24T08:56:32Z</time>
      </trkpt>
      <trkpt lat="43.08300599999941" lon="-1.251943000000001">
        <ele>1063.609</ele>
        <time>2022-08-24T08:56:33Z</time>
      </trkpt>
      <trkpt lat="43.082975999999405" lon="-1.251945000000001">
        <ele>1063.873</ele>
        <time>2022-08-24T08:56:34Z</time>
      </trkpt>
      <trkpt lat="43.08294999999941" lon="-1.251946000000001">
        <ele>1063.833</ele>
        <time>2022-08-24T08:56:35Z</time>
      </trkpt>
      <trkpt lat="43.08289899999941" lon="-1.2519580000000008">
        <ele>1063.883</ele>
        <time>2022-08-24T08:56:37Z</time>
      </trkpt>
      <trkpt lat="43.08287299999941" lon="-1.2519620000000007">
        <ele>1064.019</ele>
        <time>2022-08-24T08:56:38Z</time>
      </trkpt>
      <trkpt lat="43.08282099999941" lon="-1.2519710000000006">
        <ele>1064.061</ele>
        <time>2022-08-24T08:56:40Z</time>
      </trkpt>
      <trkpt lat="43.08279699999941" lon="-1.2519740000000006">
        <ele>1064.258</ele>
        <time>2022-08-24T08:56:41Z</time>
      </trkpt>
      <trkpt lat="43.08272299999941" lon="-1.2519810000000007">
        <ele>1064.481</ele>
        <time>2022-08-24T08:56:44Z</time>
      </trkpt>
      <trkpt lat="43.08269699999941" lon="-1.2519850000000006">
        <ele>1064.475</ele>
        <time>2022-08-24T08:56:45Z</time>
      </trkpt>
      <trkpt lat="43.082673999999415" lon="-1.2519860000000005">
        <ele>1064.624</ele>
        <time>2022-08-24T08:56:46Z</time>
      </trkpt>
      <trkpt lat="43.08264999999941" lon="-1.2519870000000004">
        <ele>1064.687</ele>
        <time>2022-08-24T08:56:47Z</time>
      </trkpt>
      <trkpt lat="43.082600999999414" lon="-1.2519900000000004">
        <ele>1064.842</ele>
        <time>2022-08-24T08:56:49Z</time>
      </trkpt>
      <trkpt lat="43.08252299999941" lon="-1.2519940000000003">
        <ele>1065.026</ele>
        <time>2022-08-24T08:56:52Z</time>
      </trkpt>
      <trkpt lat="43.08231799999941" lon="-1.2519690000000003">
        <ele>1065.809</ele>
        <time>2022-08-24T08:57:00Z</time>
      </trkpt>
      <trkpt lat="43.08228999999941" lon="-1.2519680000000004">
        <ele>1065.669</ele>
        <time>2022-08-24T08:57:01Z</time>
      </trkpt>
      <trkpt lat="43.08226299999941" lon="-1.2519680000000004">
        <ele>1065.819</ele>
        <time>2022-08-24T08:57:02Z</time>
      </trkpt>
      <trkpt lat="43.08223699999941" lon="-1.2519680000000004">
        <ele>1065.829</ele>
        <time>2022-08-24T08:57:03Z</time>
      </trkpt>
      <trkpt lat="43.08221199999941" lon="-1.2519680000000004">
        <ele>1066.045</ele>
        <time>2022-08-24T08:57:04Z</time>
      </trkpt>
      <trkpt lat="43.08218599999941" lon="-1.2519650000000004">
        <ele>1066.027</ele>
        <time>2022-08-24T08:57:05Z</time>
      </trkpt>
      <trkpt lat="43.08213499999941" lon="-1.2519580000000003">
        <ele>1066.274</ele>
        <time>2022-08-24T08:57:07Z</time>
      </trkpt>
      <trkpt lat="43.08208099999941" lon="-1.2519590000000003">
        <ele>1066.227</ele>
        <time>2022-08-24T08:57:09Z</time>
      </trkpt>
      <trkpt lat="43.08199399999941" lon="-1.2519610000000003">
        <ele>1066.431</ele>
        <time>2022-08-24T08:57:12Z</time>
      </trkpt>
      <trkpt lat="43.08193899999941" lon="-1.2519540000000002">
        <ele>1066.450</ele>
        <time>2022-08-24T08:57:14Z</time>
      </trkpt>
      <trkpt lat="43.08185699999941" lon="-1.2519560000000003">
        <ele>1066.642</ele>
        <time>2022-08-24T08:57:17Z</time>
      </trkpt>
      <trkpt lat="43.081832999999406" lon="-1.2519560000000003">
        <ele>1066.622</ele>
        <time>2022-08-24T08:57:18Z</time>
      </trkpt>
      <trkpt lat="43.0818089999994" lon="-1.2519550000000004">
        <ele>1066.614</ele>
        <time>2022-08-24T08:57:19Z</time>
      </trkpt>
      <trkpt lat="43.081782999999405" lon="-1.2519550000000004">
        <ele>1066.809</ele>
        <time>2022-08-24T08:57:20Z</time>
      </trkpt>
      <trkpt lat="43.081756999999406" lon="-1.2519560000000003">
        <ele>1066.845</ele>
        <time>2022-08-24T08:57:21Z</time>
      </trkpt>
      <trkpt lat="43.081737999999405" lon="-1.2519550000000004">
        <ele>1067.035</ele>
        <time>2022-08-24T08:57:22Z</time>
      </trkpt>
      <trkpt lat="43.0816879999994" lon="-1.2519460000000004">
        <ele>1067.015</ele>
        <time>2022-08-24T08:57:24Z</time>
      </trkpt>
      <trkpt lat="43.0816379999994" lon="-1.2519440000000004">
        <ele>1067.011</ele>
        <time>2022-08-24T08:57:26Z</time>
      </trkpt>
      <trkpt lat="43.0816119999994" lon="-1.2519450000000003">
        <ele>1067.023</ele>
        <time>2022-08-24T08:57:27Z</time>
      </trkpt>
      <trkpt lat="43.0815949999994" lon="-1.2519480000000003">
        <ele>1067.050</ele>
        <time>2022-08-24T08:57:28Z</time>
      </trkpt>
      <trkpt lat="43.081574999999404" lon="-1.2519480000000003">
        <ele>1066.873</ele>
        <time>2022-08-24T08:57:29Z</time>
      </trkpt>
      <trkpt lat="43.081554999999405" lon="-1.2519450000000003">
        <ele>1066.667</ele>
        <time>2022-08-24T08:57:30Z</time>
      </trkpt>
      <trkpt lat="43.0815359999994" lon="-1.2519390000000004">
        <ele>1066.656</ele>
        <time>2022-08-24T08:57:31Z</time>
      </trkpt>
      <trkpt lat="43.081515999999404" lon="-1.2519300000000004">
        <ele>1066.442</ele>
        <time>2022-08-24T08:57:32Z</time>
      </trkpt>
      <trkpt lat="43.081498999999404" lon="-1.2519240000000005">
        <ele>1066.422</ele>
        <time>2022-08-24T08:57:33Z</time>
      </trkpt>
      <trkpt lat="43.08148099999941" lon="-1.2519210000000005">
        <ele>1066.414</ele>
        <time>2022-08-24T08:57:34Z</time>
      </trkpt>
      <trkpt lat="43.08141799999941" lon="-1.2519160000000005">
        <ele>1066.209</ele>
        <time>2022-08-24T08:57:37Z</time>
      </trkpt>
      <trkpt lat="43.08139899999941" lon="-1.2519250000000004">
        <ele>1066.275</ele>
        <time>2022-08-24T08:57:38Z</time>
      </trkpt>
      <trkpt lat="43.08138099999941" lon="-1.2519360000000004">
        <ele>1066.295</ele>
        <time>2022-08-24T08:57:39Z</time>
      </trkpt>
      <trkpt lat="43.08136799999941" lon="-1.2519360000000004">
        <ele>1066.275</ele>
        <time>2022-08-24T08:57:40Z</time>
      </trkpt>
      <trkpt lat="43.08130499999941" lon="-1.2519260000000003">
        <ele>1066.631</ele>
        <time>2022-08-24T08:57:43Z</time>
      </trkpt>
      <trkpt lat="43.08129299999941" lon="-1.2519210000000003">
        <ele>1066.663</ele>
        <time>2022-08-24T08:57:44Z</time>
      </trkpt>
      <trkpt lat="43.08127699999941" lon="-1.2519140000000002">
        <ele>1066.830</ele>
        <time>2022-08-24T08:57:45Z</time>
      </trkpt>
      <trkpt lat="43.08125899999941" lon="-1.2519080000000002">
        <ele>1067.053</ele>
        <time>2022-08-24T08:57:46Z</time>
      </trkpt>
      <trkpt lat="43.081246999999415" lon="-1.2519060000000002">
        <ele>1067.087</ele>
        <time>2022-08-24T08:57:47Z</time>
      </trkpt>
      <trkpt lat="43.081229999999415" lon="-1.251907">
        <ele>1067.096</ele>
        <time>2022-08-24T08:57:48Z</time>
      </trkpt>
      <trkpt lat="43.081173999999415" lon="-1.251902">
        <ele>1067.098</ele>
        <time>2022-08-24T08:57:51Z</time>
      </trkpt>
      <trkpt lat="43.08115599999942" lon="-1.251899">
        <ele>1067.215</ele>
        <time>2022-08-24T08:57:52Z</time>
      </trkpt>
      <trkpt lat="43.08113499999942" lon="-1.2518980000000002">
        <ele>1067.226</ele>
        <time>2022-08-24T08:57:53Z</time>
      </trkpt>
      <trkpt lat="43.08111499999942" lon="-1.2519030000000002">
        <ele>1067.409</ele>
        <time>2022-08-24T08:57:54Z</time>
      </trkpt>
      <trkpt lat="43.08110199999942" lon="-1.2519040000000001">
        <ele>1067.620</ele>
        <time>2022-08-24T08:57:55Z</time>
      </trkpt>
      <trkpt lat="43.08108699999942" lon="-1.251902">
        <ele>1067.670</ele>
        <time>2022-08-24T08:57:56Z</time>
      </trkpt>
      <trkpt lat="43.081051999999424" lon="-1.2518930000000001">
        <ele>1068.450</ele>
        <time>2022-08-24T08:57:58Z</time>
      </trkpt>
      <trkpt lat="43.081037999999424" lon="-1.251891">
        <ele>1068.676</ele>
        <time>2022-08-24T08:57:59Z</time>
      </trkpt>
      <trkpt lat="43.08099399999942" lon="-1.251878">
        <ele>1069.048</ele>
        <time>2022-08-24T08:58:02Z</time>
      </trkpt>
      <trkpt lat="43.080975999999424" lon="-1.2518770000000001">
        <ele>1069.015</ele>
        <time>2022-08-24T08:58:03Z</time>
      </trkpt>
      <trkpt lat="43.080949999999426" lon="-1.2518770000000001">
        <ele>1069.088</ele>
        <time>2022-08-24T08:58:05Z</time>
      </trkpt>
      <trkpt lat="43.08094099999943" lon="-1.2518760000000002">
        <ele>1069.052</ele>
        <time>2022-08-24T08:58:06Z</time>
      </trkpt>
      <trkpt lat="43.080930999999424" lon="-1.2518750000000003">
        <ele>1069.061</ele>
        <time>2022-08-24T08:58:07Z</time>
      </trkpt>
      <trkpt lat="43.08091999999942" lon="-1.2518730000000002">
        <ele>1069.031</ele>
        <time>2022-08-24T08:58:08Z</time>
      </trkpt>
      <trkpt lat="43.080901999999426" lon="-1.2518680000000002">
        <ele>1069.061</ele>
        <time>2022-08-24T08:58:09Z</time>
      </trkpt>
      <trkpt lat="43.080888999999424" lon="-1.2518680000000002">
        <ele>1069.007</ele>
        <time>2022-08-24T08:58:10Z</time>
      </trkpt>
      <trkpt lat="43.08087799999942" lon="-1.2518730000000002">
        <ele>1069.009</ele>
        <time>2022-08-24T08:58:11Z</time>
      </trkpt>
      <trkpt lat="43.08086499999942" lon="-1.2518770000000001">
        <ele>1069.044</ele>
        <time>2022-08-24T08:58:12Z</time>
      </trkpt>
      <trkpt lat="43.08085199999942" lon="-1.2518820000000002">
        <ele>1069.244</ele>
        <time>2022-08-24T08:58:13Z</time>
      </trkpt>
      <trkpt lat="43.08084299999942" lon="-1.251886">
        <ele>1069.424</ele>
        <time>2022-08-24T08:58:14Z</time>
      </trkpt>
      <trkpt lat="43.08097399999942" lon="-1.251946">
        <ele>1067.860</ele>
        <time>2022-08-24T09:08:07Z</time>
      </trkpt>
      <trkpt lat="43.08100299999942" lon="-1.251965">
        <ele>1067.882</ele>
        <time>2022-08-24T09:08:08Z</time>
      </trkpt>
      <trkpt lat="43.08100299999942" lon="-1.251965">
        <ele>1067.889</ele>
        <time>2022-08-24T09:08:09Z</time>
      </trkpt>
      <trkpt lat="43.08102899999942" lon="-1.251987">
        <ele>1067.662</ele>
        <time>2022-08-24T09:08:10Z</time>
      </trkpt>
      <trkpt lat="43.08107899999942" lon="-1.252025">
        <ele>1067.436</ele>
        <time>2022-08-24T09:08:11Z</time>
      </trkpt>
      <trkpt lat="43.08110199999942" lon="-1.2520419999999999">
        <ele>1067.275</ele>
        <time>2022-08-24T09:08:12Z</time>
      </trkpt>
      <trkpt lat="43.08112899999942" lon="-1.2520559999999998">
        <ele>1067.055</ele>
        <time>2022-08-24T09:08:13Z</time>
      </trkpt>
      <trkpt lat="43.08115999999942" lon="-1.2520759999999997">
        <ele>1066.807</ele>
        <time>2022-08-24T09:08:14Z</time>
      </trkpt>
      <trkpt lat="43.081259999999425" lon="-1.2521589999999998">
        <ele>1066.217</ele>
        <time>2022-08-24T09:08:17Z</time>
      </trkpt>
      <trkpt lat="43.081270999999425" lon="-1.2522029999999997">
        <ele>1066.209</ele>
        <time>2022-08-24T09:08:18Z</time>
      </trkpt>
      <trkpt lat="43.081270999999425" lon="-1.2522029999999997">
        <ele>1066.216</ele>
        <time>2022-08-24T09:08:19Z</time>
      </trkpt>
      <trkpt lat="43.08125499999942" lon="-1.2522839999999997">
        <ele>1066.226</ele>
        <time>2022-08-24T09:08:20Z</time>
      </trkpt>
      <trkpt lat="43.081250999999426" lon="-1.2523199999999997">
        <ele>1066.246</ele>
        <time>2022-08-24T09:08:21Z</time>
      </trkpt>
      <trkpt lat="43.08124799999943" lon="-1.2523529999999996">
        <ele>1066.252</ele>
        <time>2022-08-24T09:08:22Z</time>
      </trkpt>
      <trkpt lat="43.081242999999425" lon="-1.2523839999999995">
        <ele>1066.284</ele>
        <time>2022-08-24T09:08:23Z</time>
      </trkpt>
      <trkpt lat="43.08123799999942" lon="-1.2524169999999994">
        <ele>1066.221</ele>
        <time>2022-08-24T09:08:24Z</time>
      </trkpt>
      <trkpt lat="43.081225999999425" lon="-1.2525179999999994">
        <ele>1067.074</ele>
        <time>2022-08-24T09:08:27Z</time>
      </trkpt>
      <trkpt lat="43.081222999999426" lon="-1.2525499999999994">
        <ele>1067.278</ele>
        <time>2022-08-24T09:08:28Z</time>
      </trkpt>
      <trkpt lat="43.08121899999943" lon="-1.2525789999999994">
        <ele>1067.667</ele>
        <time>2022-08-24T09:08:29Z</time>
      </trkpt>
      <trkpt lat="43.08121399999943" lon="-1.2526089999999994">
        <ele>1068.064</ele>
        <time>2022-08-24T09:08:30Z</time>
      </trkpt>
      <trkpt lat="43.08120999999943" lon="-1.2526359999999994">
        <ele>1068.006</ele>
        <time>2022-08-24T09:08:31Z</time>
      </trkpt>
      <trkpt lat="43.08120599999943" lon="-1.2526619999999995">
        <ele>1068.416</ele>
        <time>2022-08-24T09:08:32Z</time>
      </trkpt>
      <trkpt lat="43.08120599999943" lon="-1.2526619999999995">
        <ele>1068.409</ele>
        <time>2022-08-24T09:08:33Z</time>
      </trkpt>
      <trkpt lat="43.08119799999943" lon="-1.2527109999999995">
        <ele>1068.817</ele>
        <time>2022-08-24T09:08:34Z</time>
      </trkpt>
      <trkpt lat="43.08119299999943" lon="-1.2527379999999995">
        <ele>1068.847</ele>
        <time>2022-08-24T09:08:35Z</time>
      </trkpt>
      <trkpt lat="43.08118799999943" lon="-1.2527649999999995">
        <ele>1069.047</ele>
        <time>2022-08-24T09:08:36Z</time>
      </trkpt>
      <trkpt lat="43.08118699999943" lon="-1.2527889999999995">
        <ele>1069.253</ele>
        <time>2022-08-24T09:08:37Z</time>
      </trkpt>
      <trkpt lat="43.08118499999943" lon="-1.2528139999999994">
        <ele>1069.415</ele>
        <time>2022-08-24T09:08:38Z</time>
      </trkpt>
      <trkpt lat="43.08117699999943" lon="-1.2528629999999994">
        <ele>1069.672</ele>
        <time>2022-08-24T09:08:40Z</time>
      </trkpt>
      <trkpt lat="43.081166999999425" lon="-1.2529179999999993">
        <ele>1069.665</ele>
        <time>2022-08-24T09:08:42Z</time>
      </trkpt>
      <trkpt lat="43.08115999999943" lon="-1.2529459999999992">
        <ele>1069.859</ele>
        <time>2022-08-24T09:08:43Z</time>
      </trkpt>
      <trkpt lat="43.08115499999943" lon="-1.2529709999999992">
        <ele>1070.248</ele>
        <time>2022-08-24T09:08:44Z</time>
      </trkpt>
      <trkpt lat="43.081149999999425" lon="-1.252995999999999">
        <ele>1070.261</ele>
        <time>2022-08-24T09:08:45Z</time>
      </trkpt>
      <trkpt lat="43.08114299999943" lon="-1.253020999999999">
        <ele>1070.421</ele>
        <time>2022-08-24T09:08:46Z</time>
      </trkpt>
      <trkpt lat="43.08114299999943" lon="-1.253020999999999">
        <ele>1070.613</ele>
        <time>2022-08-24T09:08:47Z</time>
      </trkpt>
      <trkpt lat="43.08112699999943" lon="-1.2530709999999992">
        <ele>1070.609</ele>
        <time>2022-08-24T09:08:48Z</time>
      </trkpt>
      <trkpt lat="43.08112099999943" lon="-1.2530939999999993">
        <ele>1070.877</ele>
        <time>2022-08-24T09:08:49Z</time>
      </trkpt>
      <trkpt lat="43.08111499999943" lon="-1.2531189999999992">
        <ele>1070.887</ele>
        <time>2022-08-24T09:08:50Z</time>
      </trkpt>
      <trkpt lat="43.08110999999943" lon="-1.2531429999999992">
        <ele>1071.037</ele>
        <time>2022-08-24T09:08:51Z</time>
      </trkpt>
      <trkpt lat="43.08110099999943" lon="-1.2531659999999993">
        <ele>1071.013</ele>
        <time>2022-08-24T09:08:52Z</time>
      </trkpt>
      <trkpt lat="43.08109299999943" lon="-1.2531879999999993">
        <ele>1071.235</ele>
        <time>2022-08-24T09:08:53Z</time>
      </trkpt>
      <trkpt lat="43.08108399999943" lon="-1.2532089999999994">
        <ele>1071.432</ele>
        <time>2022-08-24T09:08:54Z</time>
      </trkpt>
      <trkpt lat="43.081073999999425" lon="-1.2532309999999993">
        <ele>1071.865</ele>
        <time>2022-08-24T09:08:55Z</time>
      </trkpt>
      <trkpt lat="43.08106499999943" lon="-1.2532539999999994">
        <ele>1072.039</ele>
        <time>2022-08-24T09:08:56Z</time>
      </trkpt>
      <trkpt lat="43.081053999999426" lon="-1.2532749999999995">
        <ele>1072.278</ele>
        <time>2022-08-24T09:08:57Z</time>
      </trkpt>
      <trkpt lat="43.08104399999942" lon="-1.2532959999999995">
        <ele>1072.645</ele>
        <time>2022-08-24T09:08:58Z</time>
      </trkpt>
      <trkpt lat="43.08103699999943" lon="-1.2533169999999996">
        <ele>1073.047</ele>
        <time>2022-08-24T09:08:59Z</time>
      </trkpt>
      <trkpt lat="43.08102999999943" lon="-1.2533399999999997">
        <ele>1073.411</ele>
        <time>2022-08-24T09:09:00Z</time>
      </trkpt>
      <trkpt lat="43.08102999999943" lon="-1.2533399999999997">
        <ele>1073.409</ele>
        <time>2022-08-24T09:09:01Z</time>
      </trkpt>
      <trkpt lat="43.08101699999943" lon="-1.2533809999999996">
        <ele>1074.025</ele>
        <time>2022-08-24T09:09:02Z</time>
      </trkpt>
      <trkpt lat="43.08100599999943" lon="-1.2534039999999997">
        <ele>1074.495</ele>
        <time>2022-08-24T09:09:03Z</time>
      </trkpt>
      <trkpt lat="43.080997999999425" lon="-1.2534279999999998">
        <ele>1074.425</ele>
        <time>2022-08-24T09:09:04Z</time>
      </trkpt>
      <trkpt lat="43.080991999999426" lon="-1.2534509999999999">
        <ele>1074.661</ele>
        <time>2022-08-24T09:09:05Z</time>
      </trkpt>
      <trkpt lat="43.08098499999943" lon="-1.253474">
        <ele>1074.863</ele>
        <time>2022-08-24T09:09:06Z</time>
      </trkpt>
      <trkpt lat="43.08098499999943" lon="-1.253474">
        <ele>1074.830</ele>
        <time>2022-08-24T09:09:07Z</time>
      </trkpt>
      <trkpt lat="43.08097099999943" lon="-1.253517">
        <ele>1074.873</ele>
        <time>2022-08-24T09:09:08Z</time>
      </trkpt>
      <trkpt lat="43.08096299999943" lon="-1.25354">
        <ele>1075.067</ele>
        <time>2022-08-24T09:09:09Z</time>
      </trkpt>
      <trkpt lat="43.08096299999943" lon="-1.25354">
        <ele>1075.026</ele>
        <time>2022-08-24T09:09:10Z</time>
      </trkpt>
      <trkpt lat="43.08094599999943" lon="-1.253586">
        <ele>1075.023</ele>
        <time>2022-08-24T09:09:11Z</time>
      </trkpt>
      <trkpt lat="43.08093699999943" lon="-1.253608">
        <ele>1075.083</ele>
        <time>2022-08-24T09:09:12Z</time>
      </trkpt>
      <trkpt lat="43.08092799999943" lon="-1.253629">
        <ele>1075.011</ele>
        <time>2022-08-24T09:09:13Z</time>
      </trkpt>
      <trkpt lat="43.08091899999943" lon="-1.253651">
        <ele>1075.009</ele>
        <time>2022-08-24T09:09:14Z</time>
      </trkpt>
      <trkpt lat="43.08091899999943" lon="-1.253651">
        <ele>1075.293</ele>
        <time>2022-08-24T09:09:15Z</time>
      </trkpt>
      <trkpt lat="43.080900999999436" lon="-1.253689">
        <ele>1075.263</ele>
        <time>2022-08-24T09:09:16Z</time>
      </trkpt>
      <trkpt lat="43.08089099999943" lon="-1.25371">
        <ele>1075.663</ele>
        <time>2022-08-24T09:09:17Z</time>
      </trkpt>
      <trkpt lat="43.080881999999434" lon="-1.2537330000000002">
        <ele>1075.879</ele>
        <time>2022-08-24T09:09:18Z</time>
      </trkpt>
      <trkpt lat="43.08087399999943" lon="-1.2537570000000002">
        <ele>1076.051</ele>
        <time>2022-08-24T09:09:19Z</time>
      </trkpt>
      <trkpt lat="43.08086699999944" lon="-1.2537800000000003">
        <ele>1076.058</ele>
        <time>2022-08-24T09:09:20Z</time>
      </trkpt>
      <trkpt lat="43.080858999999435" lon="-1.2538030000000004">
        <ele>1076.451</ele>
        <time>2022-08-24T09:09:21Z</time>
      </trkpt>
      <trkpt lat="43.08084999999944" lon="-1.2538240000000005">
        <ele>1076.645</ele>
        <time>2022-08-24T09:09:22Z</time>
      </trkpt>
      <trkpt lat="43.080841999999436" lon="-1.2538460000000005">
        <ele>1076.894</ele>
        <time>2022-08-24T09:09:23Z</time>
      </trkpt>
      <trkpt lat="43.08083499999944" lon="-1.2538660000000004">
        <ele>1077.099</ele>
        <time>2022-08-24T09:09:24Z</time>
      </trkpt>
      <trkpt lat="43.08082999999944" lon="-1.2538860000000003">
        <ele>1077.207</ele>
        <time>2022-08-24T09:09:25Z</time>
      </trkpt>
      <trkpt lat="43.08082299999944" lon="-1.2539060000000002">
        <ele>1077.227</ele>
        <time>2022-08-24T09:09:26Z</time>
      </trkpt>
      <trkpt lat="43.08081299999944" lon="-1.253926">
        <ele>1077.409</ele>
        <time>2022-08-24T09:09:27Z</time>
      </trkpt>
      <trkpt lat="43.080802999999435" lon="-1.253946">
        <ele>1077.430</ele>
        <time>2022-08-24T09:09:28Z</time>
      </trkpt>
      <trkpt lat="43.080802999999435" lon="-1.253946">
        <ele>1077.810</ele>
        <time>2022-08-24T09:09:29Z</time>
      </trkpt>
      <trkpt lat="43.080788999999434" lon="-1.253985">
        <ele>1078.020</ele>
        <time>2022-08-24T09:09:30Z</time>
      </trkpt>
      <trkpt lat="43.08078399999943" lon="-1.2540049999999998">
        <ele>1078.646</ele>
        <time>2022-08-24T09:09:31Z</time>
      </trkpt>
      <trkpt lat="43.080779999999436" lon="-1.2540259999999999">
        <ele>1078.888</ele>
        <time>2022-08-24T09:09:32Z</time>
      </trkpt>
      <trkpt lat="43.08077299999944" lon="-1.254047">
        <ele>1079.035</ele>
        <time>2022-08-24T09:09:33Z</time>
      </trkpt>
      <trkpt lat="43.08076499999944" lon="-1.254068">
        <ele>1079.298</ele>
        <time>2022-08-24T09:09:34Z</time>
      </trkpt>
      <trkpt lat="43.08075799999944" lon="-1.254089">
        <ele>1079.432</ele>
        <time>2022-08-24T09:09:35Z</time>
      </trkpt>
      <trkpt lat="43.08074999999944" lon="-1.2541120000000001">
        <ele>1079.681</ele>
        <time>2022-08-24T09:09:36Z</time>
      </trkpt>
      <trkpt lat="43.080742999999444" lon="-1.2541330000000002">
        <ele>1079.678</ele>
        <time>2022-08-24T09:09:37Z</time>
      </trkpt>
      <trkpt lat="43.080742999999444" lon="-1.2541330000000002">
        <ele>1080.033</ele>
        <time>2022-08-24T09:09:38Z</time>
      </trkpt>
      <trkpt lat="43.08072699999944" lon="-1.2541750000000003">
        <ele>1080.026</ele>
        <time>2022-08-24T09:09:39Z</time>
      </trkpt>
      <trkpt lat="43.080719999999445" lon="-1.2541970000000002">
        <ele>1080.209</ele>
        <time>2022-08-24T09:09:40Z</time>
      </trkpt>
      <trkpt lat="43.08071299999945" lon="-1.2542180000000003">
        <ele>1080.418</ele>
        <time>2022-08-24T09:09:41Z</time>
      </trkpt>
      <trkpt lat="43.08070599999945" lon="-1.2542410000000004">
        <ele>1080.498</ele>
        <time>2022-08-24T09:09:42Z</time>
      </trkpt>
      <trkpt lat="43.08070099999945" lon="-1.2542630000000003">
        <ele>1080.638</ele>
        <time>2022-08-24T09:09:43Z</time>
      </trkpt>
      <trkpt lat="43.08069499999945" lon="-1.2542860000000005">
        <ele>1080.644</ele>
        <time>2022-08-24T09:09:44Z</time>
      </trkpt>
      <trkpt lat="43.08068699999945" lon="-1.2543060000000004">
        <ele>1080.616</ele>
        <time>2022-08-24T09:09:45Z</time>
      </trkpt>
      <trkpt lat="43.08067799999945" lon="-1.2543260000000003">
        <ele>1080.863</ele>
        <time>2022-08-24T09:09:46Z</time>
      </trkpt>
      <trkpt lat="43.080673999999455" lon="-1.2543460000000002">
        <ele>1080.816</ele>
        <time>2022-08-24T09:09:47Z</time>
      </trkpt>
      <trkpt lat="43.08066999999946" lon="-1.2543650000000002">
        <ele>1080.890</ele>
        <time>2022-08-24T09:09:48Z</time>
      </trkpt>
      <trkpt lat="43.08066399999946" lon="-1.254385">
        <ele>1080.829</ele>
        <time>2022-08-24T09:09:49Z</time>
      </trkpt>
      <trkpt lat="43.08065899999946" lon="-1.2544060000000001">
        <ele>1081.078</ele>
        <time>2022-08-24T09:09:50Z</time>
      </trkpt>
      <trkpt lat="43.080653999999456" lon="-1.254426">
        <ele>1081.033</ele>
        <time>2022-08-24T09:09:51Z</time>
      </trkpt>
      <trkpt lat="43.080653999999456" lon="-1.254426">
        <ele>1081.226</ele>
        <time>2022-08-24T09:09:52Z</time>
      </trkpt>
      <trkpt lat="43.08064399999945" lon="-1.254465">
        <ele>1081.409</ele>
        <time>2022-08-24T09:09:53Z</time>
      </trkpt>
      <trkpt lat="43.08064099999945" lon="-1.254487">
        <ele>1081.438</ele>
        <time>2022-08-24T09:09:54Z</time>
      </trkpt>
      <trkpt lat="43.08063799999945" lon="-1.254508">
        <ele>1081.448</ele>
        <time>2022-08-24T09:09:55Z</time>
      </trkpt>
      <trkpt lat="43.080631999999454" lon="-1.25453">
        <ele>1081.688</ele>
        <time>2022-08-24T09:09:56Z</time>
      </trkpt>
      <trkpt lat="43.080625999999455" lon="-1.254552">
        <ele>1081.674</ele>
        <time>2022-08-24T09:09:57Z</time>
      </trkpt>
      <trkpt lat="43.080619999999456" lon="-1.2545739999999999">
        <ele>1081.696</ele>
        <time>2022-08-24T09:09:58Z</time>
      </trkpt>
      <trkpt lat="43.08061299999946" lon="-1.254595">
        <ele>1081.823</ele>
        <time>2022-08-24T09:09:59Z</time>
      </trkpt>
      <trkpt lat="43.08060599999946" lon="-1.254616">
        <ele>1081.836</ele>
        <time>2022-08-24T09:10:00Z</time>
      </trkpt>
      <trkpt lat="43.08060099999946" lon="-1.254637">
        <ele>1082.090</ele>
        <time>2022-08-24T09:10:01Z</time>
      </trkpt>
      <trkpt lat="43.08059599999946" lon="-1.254658">
        <ele>1082.269</ele>
        <time>2022-08-24T09:10:02Z</time>
      </trkpt>
      <trkpt lat="43.08059599999946" lon="-1.254658">
        <ele>1082.284</ele>
        <time>2022-08-24T09:10:03Z</time>
      </trkpt>
      <trkpt lat="43.08058199999946" lon="-1.254697">
        <ele>1082.407</ele>
        <time>2022-08-24T09:10:04Z</time>
      </trkpt>
      <trkpt lat="43.08057399999946" lon="-1.2547169999999999">
        <ele>1082.417</ele>
        <time>2022-08-24T09:10:05Z</time>
      </trkpt>
      <trkpt lat="43.08057399999946" lon="-1.2547169999999999">
        <ele>1082.809</ele>
        <time>2022-08-24T09:10:06Z</time>
      </trkpt>
      <trkpt lat="43.080560999999456" lon="-1.254759">
        <ele>1083.029</ele>
        <time>2022-08-24T09:10:07Z</time>
      </trkpt>
      <trkpt lat="43.080555999999454" lon="-1.254778">
        <ele>1083.079</ele>
        <time>2022-08-24T09:10:08Z</time>
      </trkpt>
      <trkpt lat="43.080549999999455" lon="-1.254797">
        <ele>1083.279</ele>
        <time>2022-08-24T09:10:09Z</time>
      </trkpt>
      <trkpt lat="43.080541999999454" lon="-1.254818">
        <ele>1083.475</ele>
        <time>2022-08-24T09:10:10Z</time>
      </trkpt>
      <trkpt lat="43.08053499999946" lon="-1.254838">
        <ele>1083.627</ele>
        <time>2022-08-24T09:10:11Z</time>
      </trkpt>
      <trkpt lat="43.08052599999946" lon="-1.254859">
        <ele>1084.074</ele>
        <time>2022-08-24T09:10:12Z</time>
      </trkpt>
      <trkpt lat="43.08051699999946" lon="-1.254878">
        <ele>1084.047</ele>
        <time>2022-08-24T09:10:13Z</time>
      </trkpt>
      <trkpt lat="43.080509999999464" lon="-1.2548979999999998">
        <ele>1084.031</ele>
        <time>2022-08-24T09:10:14Z</time>
      </trkpt>
      <trkpt lat="43.080503999999465" lon="-1.254919">
        <ele>1084.240</ele>
        <time>2022-08-24T09:10:15Z</time>
      </trkpt>
      <trkpt lat="43.08049699999947" lon="-1.2549389999999998">
        <ele>1084.458</ele>
        <time>2022-08-24T09:10:16Z</time>
      </trkpt>
      <trkpt lat="43.08049099999947" lon="-1.2549589999999997">
        <ele>1084.452</ele>
        <time>2022-08-24T09:10:17Z</time>
      </trkpt>
      <trkpt lat="43.08048399999947" lon="-1.2549789999999996">
        <ele>1084.617</ele>
        <time>2022-08-24T09:10:18Z</time>
      </trkpt>
      <trkpt lat="43.080476999999476" lon="-1.2549969999999997">
        <ele>1084.809</ele>
        <time>2022-08-24T09:10:19Z</time>
      </trkpt>
      <trkpt lat="43.080476999999476" lon="-1.2549969999999997">
        <ele>1084.826</ele>
        <time>2022-08-24T09:10:20Z</time>
      </trkpt>
      <trkpt lat="43.080462999999476" lon="-1.2550329999999996">
        <ele>1084.886</ele>
        <time>2022-08-24T09:10:21Z</time>
      </trkpt>
      <trkpt lat="43.080454999999475" lon="-1.2550489999999996">
        <ele>1084.856</ele>
        <time>2022-08-24T09:10:22Z</time>
      </trkpt>
      <trkpt lat="43.080446999999474" lon="-1.2550669999999997">
        <ele>1085.052</ele>
        <time>2022-08-24T09:10:23Z</time>
      </trkpt>
      <trkpt lat="43.08043599999947" lon="-1.2550839999999996">
        <ele>1085.054</ele>
        <time>2022-08-24T09:10:24Z</time>
      </trkpt>
      <trkpt lat="43.08042599999947" lon="-1.2551029999999996">
        <ele>1085.071</ele>
        <time>2022-08-24T09:10:25Z</time>
      </trkpt>
      <trkpt lat="43.08041699999947" lon="-1.2551219999999996">
        <ele>1085.284</ele>
        <time>2022-08-24T09:10:26Z</time>
      </trkpt>
      <trkpt lat="43.080409999999475" lon="-1.2551389999999996">
        <ele>1085.248</ele>
        <time>2022-08-24T09:10:27Z</time>
      </trkpt>
      <trkpt lat="43.080400999999476" lon="-1.2551549999999996">
        <ele>1085.457</ele>
        <time>2022-08-24T09:10:28Z</time>
      </trkpt>
      <trkpt lat="43.080392999999475" lon="-1.2551699999999997">
        <ele>1085.482</ele>
        <time>2022-08-24T09:10:29Z</time>
      </trkpt>
      <trkpt lat="43.080381999999474" lon="-1.2551879999999997">
        <ele>1085.643</ele>
        <time>2022-08-24T09:10:30Z</time>
      </trkpt>
      <trkpt lat="43.08037399999947" lon="-1.2552039999999998">
        <ele>1086.017</ele>
        <time>2022-08-24T09:10:31Z</time>
      </trkpt>
      <trkpt lat="43.080364999999475" lon="-1.2552179999999997">
        <ele>1086.209</ele>
        <time>2022-08-24T09:10:32Z</time>
      </trkpt>
      <trkpt lat="43.080355999999476" lon="-1.2552299999999996">
        <ele>1086.289</ele>
        <time>2022-08-24T09:10:33Z</time>
      </trkpt>
      <trkpt lat="43.08034599999947" lon="-1.2552409999999996">
        <ele>1086.459</ele>
        <time>2022-08-24T09:10:34Z</time>
      </trkpt>
      <trkpt lat="43.08033599999947" lon="-1.2552539999999996">
        <ele>1086.829</ele>
        <time>2022-08-24T09:10:35Z</time>
      </trkpt>
      <trkpt lat="43.08032699999947" lon="-1.2552699999999997">
        <ele>1087.045</ele>
        <time>2022-08-24T09:10:36Z</time>
      </trkpt>
      <trkpt lat="43.08031699999947" lon="-1.2552859999999997">
        <ele>1087.257</ele>
        <time>2022-08-24T09:10:37Z</time>
      </trkpt>
      <trkpt lat="43.080306999999465" lon="-1.2553029999999996">
        <ele>1087.494</ele>
        <time>2022-08-24T09:10:38Z</time>
      </trkpt>
      <trkpt lat="43.080298999999464" lon="-1.2553189999999996">
        <ele>1087.687</ele>
        <time>2022-08-24T09:10:39Z</time>
      </trkpt>
      <trkpt lat="43.08029199999947" lon="-1.2553339999999997">
        <ele>1087.811</ele>
        <time>2022-08-24T09:10:40Z</time>
      </trkpt>
      <trkpt lat="43.080283999999466" lon="-1.2553489999999998">
        <ele>1087.870</ele>
        <time>2022-08-24T09:10:41Z</time>
      </trkpt>
      <trkpt lat="43.08027499999947" lon="-1.2553609999999997">
        <ele>1088.227</ele>
        <time>2022-08-24T09:10:42Z</time>
      </trkpt>
      <trkpt lat="43.08027499999947" lon="-1.2553609999999997">
        <ele>1088.468</ele>
        <time>2022-08-24T09:10:43Z</time>
      </trkpt>
      <trkpt lat="43.080250999999464" lon="-1.2553839999999998">
        <ele>1088.814</ele>
        <time>2022-08-24T09:10:44Z</time>
      </trkpt>
      <trkpt lat="43.08023799999946" lon="-1.255399">
        <ele>1088.809</ele>
        <time>2022-08-24T09:10:45Z</time>
      </trkpt>
      <trkpt lat="43.08022399999946" lon="-1.255413">
        <ele>1089.033</ele>
        <time>2022-08-24T09:10:46Z</time>
      </trkpt>
      <trkpt lat="43.08021099999946" lon="-1.255428">
        <ele>1089.273</ele>
        <time>2022-08-24T09:10:47Z</time>
      </trkpt>
      <trkpt lat="43.08021099999946" lon="-1.255428">
        <ele>1089.273</ele>
        <time>2022-08-24T09:10:48Z</time>
      </trkpt>
      <trkpt lat="43.08018999999946" lon="-1.255465">
        <ele>1089.659</ele>
        <time>2022-08-24T09:10:49Z</time>
      </trkpt>
      <trkpt lat="43.08017999999946" lon="-1.255484">
        <ele>1089.621</ele>
        <time>2022-08-24T09:10:50Z</time>
      </trkpt>
      <trkpt lat="43.080169999999455" lon="-1.2555020000000001">
        <ele>1090.018</ele>
        <time>2022-08-24T09:10:51Z</time>
      </trkpt>
      <trkpt lat="43.080161999999454" lon="-1.2555200000000002">
        <ele>1090.481</ele>
        <time>2022-08-24T09:10:52Z</time>
      </trkpt>
      <trkpt lat="43.08015199999945" lon="-1.2555390000000002">
        <ele>1090.445</ele>
        <time>2022-08-24T09:10:53Z</time>
      </trkpt>
      <trkpt lat="43.08014099999945" lon="-1.2555580000000002">
        <ele>1090.644</ele>
        <time>2022-08-24T09:10:54Z</time>
      </trkpt>
      <trkpt lat="43.08013099999945" lon="-1.2555730000000003">
        <ele>1090.845</ele>
        <time>2022-08-24T09:10:55Z</time>
      </trkpt>
      <trkpt lat="43.080120999999444" lon="-1.2555870000000002">
        <ele>1091.047</ele>
        <time>2022-08-24T09:10:56Z</time>
      </trkpt>
      <trkpt lat="43.08010999999944" lon="-1.2556040000000002">
        <ele>1091.011</ele>
        <time>2022-08-24T09:10:57Z</time>
      </trkpt>
      <trkpt lat="43.08009999999944" lon="-1.255621">
        <ele>1091.209</ele>
        <time>2022-08-24T09:10:58Z</time>
      </trkpt>
      <trkpt lat="43.08009099999944" lon="-1.255638">
        <ele>1091.285</ele>
        <time>2022-08-24T09:10:59Z</time>
      </trkpt>
      <trkpt lat="43.08008099999944" lon="-1.255656">
        <ele>1091.485</ele>
        <time>2022-08-24T09:11:00Z</time>
      </trkpt>
      <trkpt lat="43.08006999999944" lon="-1.25567">
        <ele>1091.635</ele>
        <time>2022-08-24T09:11:01Z</time>
      </trkpt>
      <trkpt lat="43.08006099999944" lon="-1.255684">
        <ele>1091.631</ele>
        <time>2022-08-24T09:11:02Z</time>
      </trkpt>
      <trkpt lat="43.080050999999436" lon="-1.255698">
        <ele>1091.893</ele>
        <time>2022-08-24T09:11:03Z</time>
      </trkpt>
      <trkpt lat="43.08004099999943" lon="-1.255712">
        <ele>1092.010</ele>
        <time>2022-08-24T09:11:04Z</time>
      </trkpt>
      <trkpt lat="43.08003099999943" lon="-1.255725">
        <ele>1092.253</ele>
        <time>2022-08-24T09:11:05Z</time>
      </trkpt>
      <trkpt lat="43.08002099999943" lon="-1.255743">
        <ele>1092.257</ele>
        <time>2022-08-24T09:11:06Z</time>
      </trkpt>
      <trkpt lat="43.08001199999943" lon="-1.2557610000000001">
        <ele>1092.476</ele>
        <time>2022-08-24T09:11:07Z</time>
      </trkpt>
      <trkpt lat="43.08001199999943" lon="-1.2557610000000001">
        <ele>1092.885</ele>
        <time>2022-08-24T09:11:08Z</time>
      </trkpt>
      <trkpt lat="43.07999499999943" lon="-1.255792">
        <ele>1093.089</ele>
        <time>2022-08-24T09:11:09Z</time>
      </trkpt>
      <trkpt lat="43.07998299999943" lon="-1.255808">
        <ele>1093.217</ele>
        <time>2022-08-24T09:11:10Z</time>
      </trkpt>
      <trkpt lat="43.07998299999943" lon="-1.255808">
        <ele>1093.409</ele>
        <time>2022-08-24T09:11:11Z</time>
      </trkpt>
      <trkpt lat="43.07996599999943" lon="-1.255841">
        <ele>1093.689</ele>
        <time>2022-08-24T09:11:12Z</time>
      </trkpt>
      <trkpt lat="43.079958999999434" lon="-1.255855">
        <ele>1094.029</ele>
        <time>2022-08-24T09:11:13Z</time>
      </trkpt>
      <trkpt lat="43.079958999999434" lon="-1.255855">
        <ele>1094.299</ele>
        <time>2022-08-24T09:11:14Z</time>
      </trkpt>
      <trkpt lat="43.079943999999436" lon="-1.255882">
        <ele>1094.635</ele>
        <time>2022-08-24T09:11:15Z</time>
      </trkpt>
      <trkpt lat="43.07993499999944" lon="-1.255898">
        <ele>1094.837</ele>
        <time>2022-08-24T09:11:16Z</time>
      </trkpt>
      <trkpt lat="43.07992699999944" lon="-1.255915">
        <ele>1095.024</ele>
        <time>2022-08-24T09:11:17Z</time>
      </trkpt>
      <trkpt lat="43.07991799999944" lon="-1.255931">
        <ele>1095.287</ele>
        <time>2022-08-24T09:11:18Z</time>
      </trkpt>
      <trkpt lat="43.07990899999944" lon="-1.255947">
        <ele>1095.441</ele>
        <time>2022-08-24T09:11:19Z</time>
      </trkpt>
      <trkpt lat="43.079898999999436" lon="-1.2559639999999999">
        <ele>1095.640</ele>
        <time>2022-08-24T09:11:20Z</time>
      </trkpt>
      <trkpt lat="43.07988999999944" lon="-1.255979">
        <ele>1095.824</ele>
        <time>2022-08-24T09:11:21Z</time>
      </trkpt>
      <trkpt lat="43.07987599999944" lon="-1.255995">
        <ele>1096.004</ele>
        <time>2022-08-24T09:11:22Z</time>
      </trkpt>
      <trkpt lat="43.07986399999944" lon="-1.256011">
        <ele>1096.014</ele>
        <time>2022-08-24T09:11:23Z</time>
      </trkpt>
      <trkpt lat="43.07985299999944" lon="-1.256029">
        <ele>1096.009</ele>
        <time>2022-08-24T09:11:24Z</time>
      </trkpt>
      <trkpt lat="43.07984599999944" lon="-1.2560470000000001">
        <ele>1096.273</ele>
        <time>2022-08-24T09:11:25Z</time>
      </trkpt>
      <trkpt lat="43.07983799999944" lon="-1.2560650000000002">
        <ele>1096.223</ele>
        <time>2022-08-24T09:11:26Z</time>
      </trkpt>
      <trkpt lat="43.07982899999944" lon="-1.2560800000000003">
        <ele>1096.473</ele>
        <time>2022-08-24T09:11:27Z</time>
      </trkpt>
      <trkpt lat="43.079819999999444" lon="-1.2560940000000003">
        <ele>1096.429</ele>
        <time>2022-08-24T09:11:28Z</time>
      </trkpt>
      <trkpt lat="43.07980999999944" lon="-1.2561090000000004">
        <ele>1096.461</ele>
        <time>2022-08-24T09:11:29Z</time>
      </trkpt>
      <trkpt lat="43.07979999999944" lon="-1.2561240000000005">
        <ele>1096.488</ele>
        <time>2022-08-24T09:11:30Z</time>
      </trkpt>
      <trkpt lat="43.07978899999944" lon="-1.2561350000000004">
        <ele>1096.411</ele>
        <time>2022-08-24T09:11:31Z</time>
      </trkpt>
      <trkpt lat="43.079777999999436" lon="-1.2561490000000004">
        <ele>1096.485</ele>
        <time>2022-08-24T09:11:32Z</time>
      </trkpt>
      <trkpt lat="43.07976899999944" lon="-1.2561670000000005">
        <ele>1096.454</ele>
        <time>2022-08-24T09:11:33Z</time>
      </trkpt>
      <trkpt lat="43.079758999999434" lon="-1.2561850000000006">
        <ele>1096.467</ele>
        <time>2022-08-24T09:11:34Z</time>
      </trkpt>
      <trkpt lat="43.07974899999943" lon="-1.2562020000000005">
        <ele>1096.481</ele>
        <time>2022-08-24T09:11:35Z</time>
      </trkpt>
      <trkpt lat="43.07973999999943" lon="-1.2562180000000005">
        <ele>1096.619</ele>
        <time>2022-08-24T09:11:36Z</time>
      </trkpt>
      <trkpt lat="43.07972999999943" lon="-1.2562350000000004">
        <ele>1096.809</ele>
        <time>2022-08-24T09:11:37Z</time>
      </trkpt>
      <trkpt lat="43.079719999999426" lon="-1.2562520000000004">
        <ele>1097.027</ele>
        <time>2022-08-24T09:11:38Z</time>
      </trkpt>
      <trkpt lat="43.07971299999943" lon="-1.2562670000000005">
        <ele>1097.677</ele>
        <time>2022-08-24T09:11:39Z</time>
      </trkpt>
      <trkpt lat="43.07970299999943" lon="-1.2562800000000005">
        <ele>1097.827</ele>
        <time>2022-08-24T09:11:40Z</time>
      </trkpt>
      <trkpt lat="43.07969299999942" lon="-1.2562930000000005">
        <ele>1098.033</ele>
        <time>2022-08-24T09:11:41Z</time>
      </trkpt>
      <trkpt lat="43.07968299999942" lon="-1.2563100000000005">
        <ele>1098.285</ele>
        <time>2022-08-24T09:11:42Z</time>
      </trkpt>
      <trkpt lat="43.07967299999942" lon="-1.2563240000000004">
        <ele>1098.652</ele>
        <time>2022-08-24T09:11:43Z</time>
      </trkpt>
      <trkpt lat="43.07966399999942" lon="-1.2563420000000005">
        <ele>1099.075</ele>
        <time>2022-08-24T09:11:44Z</time>
      </trkpt>
      <trkpt lat="43.07965799999942" lon="-1.2563620000000004">
        <ele>1099.019</ele>
        <time>2022-08-24T09:11:45Z</time>
      </trkpt>
      <trkpt lat="43.07964999999942" lon="-1.2563830000000005">
        <ele>1099.238</ele>
        <time>2022-08-24T09:11:46Z</time>
      </trkpt>
      <trkpt lat="43.07964599999942" lon="-1.2563990000000005">
        <ele>1099.436</ele>
        <time>2022-08-24T09:11:47Z</time>
      </trkpt>
      <trkpt lat="43.079641999999424" lon="-1.2564150000000005">
        <ele>1099.417</ele>
        <time>2022-08-24T09:11:48Z</time>
      </trkpt>
      <trkpt lat="43.07963499999943" lon="-1.2564310000000005">
        <ele>1099.618</ele>
        <time>2022-08-24T09:11:49Z</time>
      </trkpt>
      <trkpt lat="43.07963199999943" lon="-1.2564490000000006">
        <ele>1099.609</ele>
        <time>2022-08-24T09:11:50Z</time>
      </trkpt>
      <trkpt lat="43.079629999999426" lon="-1.2564670000000007">
        <ele>1099.674</ele>
        <time>2022-08-24T09:11:51Z</time>
      </trkpt>
      <trkpt lat="43.07962699999943" lon="-1.2564880000000007">
        <ele>1099.624</ele>
        <time>2022-08-24T09:11:52Z</time>
      </trkpt>
      <trkpt lat="43.07962099999943" lon="-1.2565080000000006">
        <ele>1099.624</ele>
        <time>2022-08-24T09:11:53Z</time>
      </trkpt>
      <trkpt lat="43.079615999999426" lon="-1.2565280000000005">
        <ele>1099.660</ele>
        <time>2022-08-24T09:11:54Z</time>
      </trkpt>
      <trkpt lat="43.07961199999943" lon="-1.2565490000000006">
        <ele>1099.442</ele>
        <time>2022-08-24T09:11:55Z</time>
      </trkpt>
      <trkpt lat="43.07960999999943" lon="-1.2565680000000006">
        <ele>1099.469</ele>
        <time>2022-08-24T09:11:56Z</time>
      </trkpt>
      <trkpt lat="43.07960599999943" lon="-1.2565900000000005">
        <ele>1099.432</ele>
        <time>2022-08-24T09:11:57Z</time>
      </trkpt>
      <trkpt lat="43.07960599999943" lon="-1.2566120000000005">
        <ele>1099.466</ele>
        <time>2022-08-24T09:11:58Z</time>
      </trkpt>
      <trkpt lat="43.07960699999943" lon="-1.2566320000000004">
        <ele>1099.475</ele>
        <time>2022-08-24T09:11:59Z</time>
      </trkpt>
      <trkpt lat="43.07960599999943" lon="-1.2566540000000004">
        <ele>1099.435</ele>
        <time>2022-08-24T09:12:00Z</time>
      </trkpt>
      <trkpt lat="43.07960699999943" lon="-1.2566780000000004">
        <ele>1099.486</ele>
        <time>2022-08-24T09:12:01Z</time>
      </trkpt>
      <trkpt lat="43.079607999999425" lon="-1.2567030000000003">
        <ele>1099.614</ele>
        <time>2022-08-24T09:12:02Z</time>
      </trkpt>
      <trkpt lat="43.079610999999424" lon="-1.2567270000000004">
        <ele>1099.409</ele>
        <time>2022-08-24T09:12:03Z</time>
      </trkpt>
      <trkpt lat="43.079635999999425" lon="-1.2567680000000003">
        <ele>1099.434</ele>
        <time>2022-08-24T09:12:05Z</time>
      </trkpt>
      <trkpt lat="43.07965099999942" lon="-1.2567880000000002">
        <ele>1099.464</ele>
        <time>2022-08-24T09:12:06Z</time>
      </trkpt>
      <trkpt lat="43.07966499999942" lon="-1.2568060000000003">
        <ele>1099.474</ele>
        <time>2022-08-24T09:12:07Z</time>
      </trkpt>
      <trkpt lat="43.079680999999425" lon="-1.2568230000000002">
        <ele>1099.420</ele>
        <time>2022-08-24T09:12:08Z</time>
      </trkpt>
      <trkpt lat="43.07969599999942" lon="-1.2568380000000003">
        <ele>1099.442</ele>
        <time>2022-08-24T09:12:09Z</time>
      </trkpt>
      <trkpt lat="43.079728999999425" lon="-1.2568600000000003">
        <ele>1099.669</ele>
        <time>2022-08-24T09:12:11Z</time>
      </trkpt>
      <trkpt lat="43.07974499999943" lon="-1.2568690000000002">
        <ele>1099.682</ele>
        <time>2022-08-24T09:12:12Z</time>
      </trkpt>
      <trkpt lat="43.079759999999425" lon="-1.2568780000000002">
        <ele>1099.686</ele>
        <time>2022-08-24T09:12:13Z</time>
      </trkpt>
      <trkpt lat="43.07978999999943" lon="-1.2569000000000001">
        <ele>1099.875</ele>
        <time>2022-08-24T09:12:15Z</time>
      </trkpt>
      <trkpt lat="43.079886999999424" lon="-1.256982">
        <ele>1100.259</ele>
        <time>2022-08-24T09:12:21Z</time>
      </trkpt>
      <trkpt lat="43.07990199999942" lon="-1.256994">
        <ele>1100.403</ele>
        <time>2022-08-24T09:12:22Z</time>
      </trkpt>
      <trkpt lat="43.07991399999942" lon="-1.25701">
        <ele>1100.423</ele>
        <time>2022-08-24T09:12:23Z</time>
      </trkpt>
      <trkpt lat="43.07995699999942" lon="-1.257063">
        <ele>1100.809</ele>
        <time>2022-08-24T09:12:26Z</time>
      </trkpt>
      <trkpt lat="43.079979999999416" lon="-1.2571">
        <ele>1101.046</ele>
        <time>2022-08-24T09:12:28Z</time>
      </trkpt>
      <trkpt lat="43.079991999999415" lon="-1.2571210000000002">
        <ele>1101.226</ele>
        <time>2022-08-24T09:12:29Z</time>
      </trkpt>
      <trkpt lat="43.08000199999942" lon="-1.257141">
        <ele>1101.276</ele>
        <time>2022-08-24T09:12:30Z</time>
      </trkpt>
      <trkpt lat="43.08002599999942" lon="-1.257181">
        <ele>1101.462</ele>
        <time>2022-08-24T09:12:32Z</time>
      </trkpt>
      <trkpt lat="43.080038999999424" lon="-1.2572040000000002">
        <ele>1101.674</ele>
        <time>2022-08-24T09:12:34Z</time>
      </trkpt>
      <trkpt lat="43.08006199999942" lon="-1.2572510000000001">
        <ele>1101.891</ele>
        <time>2022-08-24T09:12:35Z</time>
      </trkpt>
      <trkpt lat="43.080099999999426" lon="-1.2573280000000002">
        <ele>1102.864</ele>
        <time>2022-08-24T09:12:38Z</time>
      </trkpt>
      <trkpt lat="43.08011299999943" lon="-1.2573570000000003">
        <ele>1103.288</ele>
        <time>2022-08-24T09:12:40Z</time>
      </trkpt>
      <trkpt lat="43.08013699999943" lon="-1.2574170000000002">
        <ele>1103.467</ele>
        <time>2022-08-24T09:12:41Z</time>
      </trkpt>
      <trkpt lat="43.08014599999943" lon="-1.2574490000000003">
        <ele>1103.691</ele>
        <time>2022-08-24T09:12:42Z</time>
      </trkpt>
      <trkpt lat="43.08015399999943" lon="-1.2574780000000003">
        <ele>1103.881</ele>
        <time>2022-08-24T09:12:43Z</time>
      </trkpt>
      <trkpt lat="43.08015899999943" lon="-1.2575070000000004">
        <ele>1104.019</ele>
        <time>2022-08-24T09:12:44Z</time>
      </trkpt>
      <trkpt lat="43.08016499999943" lon="-1.2575360000000004">
        <ele>1104.209</ele>
        <time>2022-08-24T09:12:45Z</time>
      </trkpt>
      <trkpt lat="43.08016799999943" lon="-1.2575680000000005">
        <ele>1104.420</ele>
        <time>2022-08-24T09:12:46Z</time>
      </trkpt>
      <trkpt lat="43.080169999999434" lon="-1.2576020000000006">
        <ele>1104.690</ele>
        <time>2022-08-24T09:12:47Z</time>
      </trkpt>
      <trkpt lat="43.080169999999434" lon="-1.2576360000000006">
        <ele>1104.830</ele>
        <time>2022-08-24T09:12:48Z</time>
      </trkpt>
      <trkpt lat="43.08017099999943" lon="-1.2576700000000007">
        <ele>1104.816</ele>
        <time>2022-08-24T09:12:49Z</time>
      </trkpt>
      <trkpt lat="43.08017199999943" lon="-1.2577010000000006">
        <ele>1105.238</ele>
        <time>2022-08-24T09:12:50Z</time>
      </trkpt>
      <trkpt lat="43.08017299999943" lon="-1.2577290000000005">
        <ele>1105.235</ele>
        <time>2022-08-24T09:12:51Z</time>
      </trkpt>
      <trkpt lat="43.08017299999943" lon="-1.2577580000000006">
        <ele>1105.418</ele>
        <time>2022-08-24T09:12:52Z</time>
      </trkpt>
      <trkpt lat="43.08017499999943" lon="-1.2577850000000006">
        <ele>1105.662</ele>
        <time>2022-08-24T09:12:53Z</time>
      </trkpt>
      <trkpt lat="43.080175999999426" lon="-1.2578150000000006">
        <ele>1105.631</ele>
        <time>2022-08-24T09:12:54Z</time>
      </trkpt>
      <trkpt lat="43.080178999999426" lon="-1.2578450000000005">
        <ele>1105.896</ele>
        <time>2022-08-24T09:12:55Z</time>
      </trkpt>
      <trkpt lat="43.08017999999942" lon="-1.2578790000000006">
        <ele>1105.831</ele>
        <time>2022-08-24T09:12:56Z</time>
      </trkpt>
      <trkpt lat="43.08018099999942" lon="-1.2579160000000007">
        <ele>1105.824</ele>
        <time>2022-08-24T09:12:57Z</time>
      </trkpt>
      <trkpt lat="43.08018299999942" lon="-1.2579560000000007">
        <ele>1106.009</ele>
        <time>2022-08-24T09:12:58Z</time>
      </trkpt>
      <trkpt lat="43.08018699999942" lon="-1.2579970000000007">
        <ele>1106.060</ele>
        <time>2022-08-24T09:12:59Z</time>
      </trkpt>
      <trkpt lat="43.08018999999942" lon="-1.2580400000000007">
        <ele>1106.070</ele>
        <time>2022-08-24T09:13:00Z</time>
      </trkpt>
      <trkpt lat="43.08019199999942" lon="-1.2580850000000008">
        <ele>1106.060</ele>
        <time>2022-08-24T09:13:01Z</time>
      </trkpt>
      <trkpt lat="43.08019399999942" lon="-1.2581300000000009">
        <ele>1106.096</ele>
        <time>2022-08-24T09:13:02Z</time>
      </trkpt>
      <trkpt lat="43.080192999999426" lon="-1.258178000000001">
        <ele>1106.048</ele>
        <time>2022-08-24T09:13:03Z</time>
      </trkpt>
      <trkpt lat="43.08019199999943" lon="-1.258229000000001">
        <ele>1106.085</ele>
        <time>2022-08-24T09:13:04Z</time>
      </trkpt>
      <trkpt lat="43.08018799999943" lon="-1.258285000000001">
        <ele>1106.018</ele>
        <time>2022-08-24T09:13:05Z</time>
      </trkpt>
      <trkpt lat="43.08018199999943" lon="-1.258337000000001">
        <ele>1106.052</ele>
        <time>2022-08-24T09:13:06Z</time>
      </trkpt>
      <trkpt lat="43.080174999999436" lon="-1.2583840000000008">
        <ele>1105.841</ele>
        <time>2022-08-24T09:13:07Z</time>
      </trkpt>
      <trkpt lat="43.08016899999944" lon="-1.2584320000000009">
        <ele>1105.834</ele>
        <time>2022-08-24T09:13:08Z</time>
      </trkpt>
      <trkpt lat="43.080160999999435" lon="-1.258483000000001">
        <ele>1105.855</ele>
        <time>2022-08-24T09:13:09Z</time>
      </trkpt>
      <trkpt lat="43.080146999999435" lon="-1.2585400000000009">
        <ele>1105.810</ele>
        <time>2022-08-24T09:13:10Z</time>
      </trkpt>
      <trkpt lat="43.08012799999943" lon="-1.2585980000000008">
        <ele>1105.609</ele>
        <time>2022-08-24T09:13:11Z</time>
      </trkpt>
      <trkpt lat="43.08012799999943" lon="-1.2585980000000008">
        <ele>1105.694</ele>
        <time>2022-08-24T09:13:12Z</time>
      </trkpt>
      <trkpt lat="43.08005499999943" lon="-1.2587720000000007">
        <ele>1105.454</ele>
        <time>2022-08-24T09:13:14Z</time>
      </trkpt>
      <trkpt lat="43.08005499999943" lon="-1.2587720000000007">
        <ele>1105.274</ele>
        <time>2022-08-24T09:13:15Z</time>
      </trkpt>
      <trkpt lat="43.07997999999943" lon="-1.2589370000000006">
        <ele>1104.850</ele>
        <time>2022-08-24T09:13:18Z</time>
      </trkpt>
      <trkpt lat="43.07992999999943" lon="-1.2590560000000006">
        <ele>1104.452</ele>
        <time>2022-08-24T09:13:19Z</time>
      </trkpt>
      <trkpt lat="43.07990399999943" lon="-1.2591150000000007">
        <ele>1104.289</ele>
        <time>2022-08-24T09:13:20Z</time>
      </trkpt>
      <trkpt lat="43.07987799999943" lon="-1.2591750000000006">
        <ele>1103.472</ele>
        <time>2022-08-24T09:13:21Z</time>
      </trkpt>
      <trkpt lat="43.07981899999943" lon="-1.2593010000000007">
        <ele>1102.226</ele>
        <time>2022-08-24T09:13:23Z</time>
      </trkpt>
      <trkpt lat="43.07975099999943" lon="-1.2594280000000007">
        <ele>1100.865</ele>
        <time>2022-08-24T09:13:25Z</time>
      </trkpt>
      <trkpt lat="43.07962499999943" lon="-1.2596100000000006">
        <ele>1099.226</ele>
        <time>2022-08-24T09:13:28Z</time>
      </trkpt>
      <trkpt lat="43.07952699999943" lon="-1.2597340000000006">
        <ele>1098.247</ele>
        <time>2022-08-24T09:13:30Z</time>
      </trkpt>
      <trkpt lat="43.07947699999943" lon="-1.2597950000000007">
        <ele>1098.011</ele>
        <time>2022-08-24T09:13:31Z</time>
      </trkpt>
      <trkpt lat="43.079370999999426" lon="-1.2599160000000007">
        <ele>1096.809</ele>
        <time>2022-08-24T09:13:33Z</time>
      </trkpt>
      <trkpt lat="43.079171999999424" lon="-1.2601730000000007">
        <ele>1095.423</ele>
        <time>2022-08-24T09:13:37Z</time>
      </trkpt>
      <trkpt lat="43.07912799999942" lon="-1.2602420000000008">
        <ele>1094.683</ele>
        <time>2022-08-24T09:13:38Z</time>
      </trkpt>
      <trkpt lat="43.07907699999942" lon="-1.2603260000000007">
        <ele>1094.413</ele>
        <time>2022-08-24T09:13:39Z</time>
      </trkpt>
      <trkpt lat="43.07895599999942" lon="-1.2605310000000007">
        <ele>1093.239</ele>
        <time>2022-08-24T09:13:42Z</time>
      </trkpt>
      <trkpt lat="43.07880999999942" lon="-1.2607730000000008">
        <ele>1091.851</ele>
        <time>2022-08-24T09:13:45Z</time>
      </trkpt>
      <trkpt lat="43.07870099999942" lon="-1.260939000000001">
        <ele>1091.038</ele>
        <time>2022-08-24T09:13:47Z</time>
      </trkpt>
      <trkpt lat="43.07864299999942" lon="-1.2610240000000008">
        <ele>1090.691</ele>
        <time>2022-08-24T09:13:48Z</time>
      </trkpt>
      <trkpt lat="43.078524999999416" lon="-1.2611910000000008">
        <ele>1089.425</ele>
        <time>2022-08-24T09:13:50Z</time>
      </trkpt>
      <trkpt lat="43.07846499999942" lon="-1.2612760000000007">
        <ele>1088.224</ele>
        <time>2022-08-24T09:13:51Z</time>
      </trkpt>
      <trkpt lat="43.07833999999942" lon="-1.2614520000000007">
        <ele>1087.065</ele>
        <time>2022-08-24T09:13:53Z</time>
      </trkpt>
      <trkpt lat="43.07827899999942" lon="-1.2615420000000006">
        <ele>1086.468</ele>
        <time>2022-08-24T09:13:54Z</time>
      </trkpt>
      <trkpt lat="43.07822099999942" lon="-1.2616380000000007">
        <ele>1086.014</ele>
        <time>2022-08-24T09:13:55Z</time>
      </trkpt>
      <trkpt lat="43.07810999999942" lon="-1.2618330000000006">
        <ele>1084.809</ele>
        <time>2022-08-24T09:13:57Z</time>
      </trkpt>
      <trkpt lat="43.07805499999942" lon="-1.2619290000000007">
        <ele>1084.657</ele>
        <time>2022-08-24T09:13:58Z</time>
      </trkpt>
      <trkpt lat="43.07800299999942" lon="-1.2620210000000007">
        <ele>1084.227</ele>
        <time>2022-08-24T09:13:59Z</time>
      </trkpt>
      <trkpt lat="43.07795199999942" lon="-1.2621070000000008">
        <ele>1083.867</ele>
        <time>2022-08-24T09:14:00Z</time>
      </trkpt>
      <trkpt lat="43.077902999999424" lon="-1.2621860000000007">
        <ele>1083.233</ele>
        <time>2022-08-24T09:14:01Z</time>
      </trkpt>
      <trkpt lat="43.07785599999942" lon="-1.2622590000000007">
        <ele>1083.225</ele>
        <time>2022-08-24T09:14:02Z</time>
      </trkpt>
      <trkpt lat="43.07780899999942" lon="-1.2623270000000006">
        <ele>1083.022</ele>
        <time>2022-08-24T09:14:03Z</time>
      </trkpt>
      <trkpt lat="43.07776399999942" lon="-1.2623870000000006">
        <ele>1083.055</ele>
        <time>2022-08-24T09:14:04Z</time>
      </trkpt>
      <trkpt lat="43.07771999999942" lon="-1.2624390000000005">
        <ele>1083.059</ele>
        <time>2022-08-24T09:14:05Z</time>
      </trkpt>
      <trkpt lat="43.077677999999416" lon="-1.2624850000000005">
        <ele>1083.078</ele>
        <time>2022-08-24T09:14:06Z</time>
      </trkpt>
      <trkpt lat="43.077632999999416" lon="-1.2625320000000004">
        <ele>1083.071</ele>
        <time>2022-08-24T09:14:07Z</time>
      </trkpt>
      <trkpt lat="43.07760399999942" lon="-1.2625580000000005">
        <ele>1083.241</ele>
        <time>2022-08-24T09:14:08Z</time>
      </trkpt>
      <trkpt lat="43.07756899999942" lon="-1.2625900000000005">
        <ele>1083.415</ele>
        <time>2022-08-24T09:14:09Z</time>
      </trkpt>
      <trkpt lat="43.077536999999424" lon="-1.2626200000000005">
        <ele>1084.009</ele>
        <time>2022-08-24T09:14:10Z</time>
      </trkpt>
      <trkpt lat="43.07750499999943" lon="-1.2626480000000004">
        <ele>1084.278</ele>
        <time>2022-08-24T09:14:11Z</time>
      </trkpt>
      <trkpt lat="43.07747299999943" lon="-1.2626740000000005">
        <ele>1084.438</ele>
        <time>2022-08-24T09:14:12Z</time>
      </trkpt>
      <trkpt lat="43.07744099999943" lon="-1.2627020000000004">
        <ele>1084.838</ele>
        <time>2022-08-24T09:14:13Z</time>
      </trkpt>
      <trkpt lat="43.07740999999943" lon="-1.2627290000000004">
        <ele>1085.044</ele>
        <time>2022-08-24T09:14:14Z</time>
      </trkpt>
      <trkpt lat="43.077377999999435" lon="-1.2627520000000005">
        <ele>1085.486</ele>
        <time>2022-08-24T09:14:15Z</time>
      </trkpt>
      <trkpt lat="43.07734799999943" lon="-1.2627740000000005">
        <ele>1085.633</ele>
        <time>2022-08-24T09:14:16Z</time>
      </trkpt>
      <trkpt lat="43.07731499999943" lon="-1.2627960000000005">
        <ele>1085.866</ele>
        <time>2022-08-24T09:14:17Z</time>
      </trkpt>
      <trkpt lat="43.07728199999943" lon="-1.2628160000000004">
        <ele>1086.030</ele>
        <time>2022-08-24T09:14:18Z</time>
      </trkpt>
      <trkpt lat="43.07724699999943" lon="-1.2628320000000004">
        <ele>1086.259</ele>
        <time>2022-08-24T09:14:19Z</time>
      </trkpt>
      <trkpt lat="43.077214999999434" lon="-1.2628490000000003">
        <ele>1086.484</ele>
        <time>2022-08-24T09:14:20Z</time>
      </trkpt>
      <trkpt lat="43.07718299999944" lon="-1.2628640000000004">
        <ele>1086.407</ele>
        <time>2022-08-24T09:14:21Z</time>
      </trkpt>
      <trkpt lat="43.07714899999944" lon="-1.2628810000000004">
        <ele>1086.617</ele>
        <time>2022-08-24T09:14:22Z</time>
      </trkpt>
      <trkpt lat="43.07708299999944" lon="-1.2629170000000003">
        <ele>1086.809</ele>
        <time>2022-08-24T09:14:24Z</time>
      </trkpt>
      <trkpt lat="43.07700699999944" lon="-1.2629490000000003">
        <ele>1087.249</ele>
        <time>2022-08-24T09:14:26Z</time>
      </trkpt>
      <trkpt lat="43.07694199999944" lon="-1.2629740000000003">
        <ele>1087.099</ele>
        <time>2022-08-24T09:14:28Z</time>
      </trkpt>
      <trkpt lat="43.07687499999944" lon="-1.2630040000000002">
        <ele>1086.649</ele>
        <time>2022-08-24T09:14:30Z</time>
      </trkpt>
      <trkpt lat="43.07684199999944" lon="-1.2630160000000001">
        <ele>1086.485</ele>
        <time>2022-08-24T09:14:31Z</time>
      </trkpt>
      <trkpt lat="43.076808999999436" lon="-1.2630290000000002">
        <ele>1086.247</ele>
        <time>2022-08-24T09:14:32Z</time>
      </trkpt>
      <trkpt lat="43.076808999999436" lon="-1.2630290000000002">
        <ele>1086.224</ele>
        <time>2022-08-24T09:14:33Z</time>
      </trkpt>
      <trkpt lat="43.076749999999436" lon="-1.2630550000000003">
        <ele>1086.247</ele>
        <time>2022-08-24T09:14:34Z</time>
      </trkpt>
      <trkpt lat="43.07672299999943" lon="-1.2630690000000002">
        <ele>1086.061</ele>
        <time>2022-08-24T09:14:35Z</time>
      </trkpt>
      <trkpt lat="43.07669499999943" lon="-1.2630820000000003">
        <ele>1086.010</ele>
        <time>2022-08-24T09:14:36Z</time>
      </trkpt>
      <trkpt lat="43.076668999999434" lon="-1.2630920000000003">
        <ele>1085.618</ele>
        <time>2022-08-24T09:14:37Z</time>
      </trkpt>
      <trkpt lat="43.07664399999943" lon="-1.2630970000000004">
        <ele>1085.698</ele>
        <time>2022-08-24T09:14:38Z</time>
      </trkpt>
      <trkpt lat="43.07662299999944" lon="-1.2631060000000003">
        <ele>1085.217</ele>
        <time>2022-08-24T09:14:39Z</time>
      </trkpt>
      <trkpt lat="43.07659699999944" lon="-1.2631150000000002">
        <ele>1085.209</ele>
        <time>2022-08-24T09:14:40Z</time>
      </trkpt>
      <trkpt lat="43.07657099999944" lon="-1.2631240000000001">
        <ele>1085.212</ele>
        <time>2022-08-24T09:14:41Z</time>
      </trkpt>
      <trkpt lat="43.07654699999944" lon="-1.26313">
        <ele>1085.092</ele>
        <time>2022-08-24T09:14:42Z</time>
      </trkpt>
      <trkpt lat="43.07652599999944" lon="-1.2631320000000001">
        <ele>1085.032</ele>
        <time>2022-08-24T09:14:43Z</time>
      </trkpt>
      <trkpt lat="43.07650199999944" lon="-1.2631370000000002">
        <ele>1084.888</ele>
        <time>2022-08-24T09:14:44Z</time>
      </trkpt>
      <trkpt lat="43.07637799999944" lon="-1.263173">
        <ele>1084.280</ele>
        <time>2022-08-24T09:14:49Z</time>
      </trkpt>
      <trkpt lat="43.076352999999436" lon="-1.263174">
        <ele>1084.217</ele>
        <time>2022-08-24T09:14:50Z</time>
      </trkpt>
      <trkpt lat="43.07627599999944" lon="-1.263181">
        <ele>1084.260</ele>
        <time>2022-08-24T09:14:53Z</time>
      </trkpt>
      <trkpt lat="43.076251999999435" lon="-1.2631880000000002">
        <ele>1084.294</ele>
        <time>2022-08-24T09:14:54Z</time>
      </trkpt>
      <trkpt lat="43.07622899999944" lon="-1.2631960000000002">
        <ele>1084.273</ele>
        <time>2022-08-24T09:14:55Z</time>
      </trkpt>
      <trkpt lat="43.07620499999943" lon="-1.2632020000000002">
        <ele>1084.472</ele>
        <time>2022-08-24T09:14:56Z</time>
      </trkpt>
      <trkpt lat="43.07618099999943" lon="-1.2632050000000001">
        <ele>1084.413</ele>
        <time>2022-08-24T09:14:57Z</time>
      </trkpt>
      <trkpt lat="43.07615799999943" lon="-1.263209">
        <ele>1084.414</ele>
        <time>2022-08-24T09:14:58Z</time>
      </trkpt>
      <trkpt lat="43.07593599999943" lon="-1.263261">
        <ele>1084.609</ele>
        <time>2022-08-24T09:15:06Z</time>
      </trkpt>
      <trkpt lat="43.07590499999943" lon="-1.263271">
        <ele>1084.838</ele>
        <time>2022-08-24T09:15:07Z</time>
      </trkpt>
      <trkpt lat="43.07587599999943" lon="-1.263279">
        <ele>1084.888</ele>
        <time>2022-08-24T09:15:08Z</time>
      </trkpt>
      <trkpt lat="43.07579199999943" lon="-1.263319">
        <ele>1084.888</ele>
        <time>2022-08-24T09:15:11Z</time>
      </trkpt>
      <trkpt lat="43.07576799999943" lon="-1.2633340000000002">
        <ele>1085.224</ele>
        <time>2022-08-24T09:15:12Z</time>
      </trkpt>
      <trkpt lat="43.075743999999425" lon="-1.263354">
        <ele>1085.246</ele>
        <time>2022-08-24T09:15:13Z</time>
      </trkpt>
      <trkpt lat="43.075720999999426" lon="-1.2633770000000002">
        <ele>1085.663</ele>
        <time>2022-08-24T09:15:14Z</time>
      </trkpt>
      <trkpt lat="43.07569799999943" lon="-1.2634010000000002">
        <ele>1085.836</ele>
        <time>2022-08-24T09:15:15Z</time>
      </trkpt>
      <trkpt lat="43.07567699999943" lon="-1.2634260000000002">
        <ele>1086.220</ele>
        <time>2022-08-24T09:15:16Z</time>
      </trkpt>
      <trkpt lat="43.07565699999943" lon="-1.2634520000000002">
        <ele>1086.889</ele>
        <time>2022-08-24T09:15:17Z</time>
      </trkpt>
      <trkpt lat="43.07561699999943" lon="-1.2635040000000002">
        <ele>1087.463</ele>
        <time>2022-08-24T09:15:19Z</time>
      </trkpt>
      <trkpt lat="43.07555499999943" lon="-1.263586">
        <ele>1088.044</ele>
        <time>2022-08-24T09:15:22Z</time>
      </trkpt>
      <trkpt lat="43.075534999999434" lon="-1.263614">
        <ele>1088.218</ele>
        <time>2022-08-24T09:15:23Z</time>
      </trkpt>
      <trkpt lat="43.075534999999434" lon="-1.263614">
        <ele>1088.209</ele>
        <time>2022-08-24T09:15:24Z</time>
      </trkpt>
      <trkpt lat="43.07549699999943" lon="-1.263669">
        <ele>1088.297</ele>
        <time>2022-08-24T09:15:25Z</time>
      </trkpt>
      <trkpt lat="43.07547799999943" lon="-1.2636969999999998">
        <ele>1088.287</ele>
        <time>2022-08-24T09:15:26Z</time>
      </trkpt>
      <trkpt lat="43.07547799999943" lon="-1.2636969999999998">
        <ele>1088.277</ele>
        <time>2022-08-24T09:15:27Z</time>
      </trkpt>
      <trkpt lat="43.07544299999943" lon="-1.2637509999999998">
        <ele>1088.293</ele>
        <time>2022-08-24T09:15:28Z</time>
      </trkpt>
      <trkpt lat="43.07542599999943" lon="-1.2637749999999999">
        <ele>1088.225</ele>
        <time>2022-08-24T09:15:29Z</time>
      </trkpt>
      <trkpt lat="43.07542599999943" lon="-1.2637749999999999">
        <ele>1088.042</ele>
        <time>2022-08-24T09:15:30Z</time>
      </trkpt>
      <trkpt lat="43.075393999999434" lon="-1.2638219999999998">
        <ele>1087.855</ele>
        <time>2022-08-24T09:15:31Z</time>
      </trkpt>
      <trkpt lat="43.075381999999436" lon="-1.2638459999999998">
        <ele>1087.699</ele>
        <time>2022-08-24T09:15:32Z</time>
      </trkpt>
      <trkpt lat="43.075367999999436" lon="-1.263869">
        <ele>1087.418</ele>
        <time>2022-08-24T09:15:33Z</time>
      </trkpt>
      <trkpt lat="43.07535299999944" lon="-1.2638889999999998">
        <ele>1087.225</ele>
        <time>2022-08-24T09:15:34Z</time>
      </trkpt>
      <trkpt lat="43.075339999999436" lon="-1.263904">
        <ele>1087.026</ele>
        <time>2022-08-24T09:15:35Z</time>
      </trkpt>
      <trkpt lat="43.075334999999434" lon="-1.263911">
        <ele>1086.808</ele>
        <time>2022-08-24T09:15:36Z</time>
      </trkpt>
      <trkpt lat="43.07529899999943" lon="-1.263955">
        <ele>1084.409</ele>
        <time>2022-08-24T09:16:54Z</time>
      </trkpt>
      <trkpt lat="43.07522099999943" lon="-1.264077">
        <ele>1084.633</ele>
        <time>2022-08-24T09:16:59Z</time>
      </trkpt>
      <trkpt lat="43.07519899999943" lon="-1.264114">
        <ele>1084.883</ele>
        <time>2022-08-24T09:17:01Z</time>
      </trkpt>
      <trkpt lat="43.07518999999943" lon="-1.264131">
        <ele>1085.073</ele>
        <time>2022-08-24T09:17:02Z</time>
      </trkpt>
      <trkpt lat="43.07516799999943" lon="-1.2641689999999999">
        <ele>1085.299</ele>
        <time>2022-08-24T09:17:04Z</time>
      </trkpt>
      <trkpt lat="43.07515599999943" lon="-1.2641889999999998">
        <ele>1085.651</ele>
        <time>2022-08-24T09:17:05Z</time>
      </trkpt>
      <trkpt lat="43.07514499999943" lon="-1.2642069999999999">
        <ele>1086.038</ele>
        <time>2022-08-24T09:17:06Z</time>
      </trkpt>
      <trkpt lat="43.07513099999943" lon="-1.2642239999999998">
        <ele>1086.061</ele>
        <time>2022-08-24T09:17:07Z</time>
      </trkpt>
      <trkpt lat="43.07508099999943" lon="-1.2643059999999997">
        <ele>1086.425</ele>
        <time>2022-08-24T09:17:11Z</time>
      </trkpt>
      <trkpt lat="43.075070999999426" lon="-1.2643259999999996">
        <ele>1086.614</ele>
        <time>2022-08-24T09:17:12Z</time>
      </trkpt>
      <trkpt lat="43.075059999999425" lon="-1.2643429999999996">
        <ele>1086.643</ele>
        <time>2022-08-24T09:17:13Z</time>
      </trkpt>
      <trkpt lat="43.07504699999942" lon="-1.2643589999999996">
        <ele>1086.664</ele>
        <time>2022-08-24T09:17:14Z</time>
      </trkpt>
      <trkpt lat="43.07503699999942" lon="-1.2643759999999995">
        <ele>1086.610</ele>
        <time>2022-08-24T09:17:15Z</time>
      </trkpt>
      <trkpt lat="43.07502499999942" lon="-1.2643919999999995">
        <ele>1086.609</ele>
        <time>2022-08-24T09:17:16Z</time>
      </trkpt>
      <trkpt lat="43.07501099999942" lon="-1.2644059999999995">
        <ele>1086.665</ele>
        <time>2022-08-24T09:17:17Z</time>
      </trkpt>
      <trkpt lat="43.07499899999942" lon="-1.2644229999999994">
        <ele>1086.645</ele>
        <time>2022-08-24T09:17:18Z</time>
      </trkpt>
      <trkpt lat="43.074975999999424" lon="-1.2644629999999994">
        <ele>1086.895</ele>
        <time>2022-08-24T09:17:20Z</time>
      </trkpt>
      <trkpt lat="43.07488399999942" lon="-1.2646279999999994">
        <ele>1087.081</ele>
        <time>2022-08-24T09:17:28Z</time>
      </trkpt>
      <trkpt lat="43.07483899999942" lon="-1.2647099999999993">
        <ele>1087.023</ele>
        <time>2022-08-24T09:17:32Z</time>
      </trkpt>
      <trkpt lat="43.07482799999942" lon="-1.2647279999999994">
        <ele>1087.040</ele>
        <time>2022-08-24T09:17:33Z</time>
      </trkpt>
      <trkpt lat="43.07480599999942" lon="-1.2647699999999995">
        <ele>1087.063</ele>
        <time>2022-08-24T09:17:35Z</time>
      </trkpt>
      <trkpt lat="43.07479799999942" lon="-1.2647909999999996">
        <ele>1087.057</ele>
        <time>2022-08-24T09:17:36Z</time>
      </trkpt>
      <trkpt lat="43.07478699999942" lon="-1.2648129999999995">
        <ele>1087.046</ele>
        <time>2022-08-24T09:17:37Z</time>
      </trkpt>
      <trkpt lat="43.07477499999942" lon="-1.2648359999999996">
        <ele>1087.077</ele>
        <time>2022-08-24T09:17:38Z</time>
      </trkpt>
      <trkpt lat="43.07471799999942" lon="-1.2649409999999996">
        <ele>1087.261</ele>
        <time>2022-08-24T09:17:43Z</time>
      </trkpt>
      <trkpt lat="43.07470599999942" lon="-1.2649609999999996">
        <ele>1087.227</ele>
        <time>2022-08-24T09:17:44Z</time>
      </trkpt>
      <trkpt lat="43.07469499999942" lon="-1.2649809999999995">
        <ele>1087.209</ele>
        <time>2022-08-24T09:17:45Z</time>
      </trkpt>
      <trkpt lat="43.07468499999942" lon="-1.2650009999999994">
        <ele>1087.488</ele>
        <time>2022-08-24T09:17:46Z</time>
      </trkpt>
      <trkpt lat="43.07467499999942" lon="-1.2650229999999993">
        <ele>1087.448</ele>
        <time>2022-08-24T09:17:47Z</time>
      </trkpt>
      <trkpt lat="43.07466499999941" lon="-1.2650449999999993">
        <ele>1087.418</ele>
        <time>2022-08-24T09:17:48Z</time>
      </trkpt>
      <trkpt lat="43.074644999999414" lon="-1.2650919999999992">
        <ele>1087.674</ele>
        <time>2022-08-24T09:17:50Z</time>
      </trkpt>
      <trkpt lat="43.07463499999941" lon="-1.2651149999999993">
        <ele>1087.656</ele>
        <time>2022-08-24T09:17:51Z</time>
      </trkpt>
      <trkpt lat="43.074602999999414" lon="-1.2651759999999994">
        <ele>1088.093</ele>
        <time>2022-08-24T09:17:54Z</time>
      </trkpt>
      <trkpt lat="43.074570999999416" lon="-1.2652359999999994">
        <ele>1088.466</ele>
        <time>2022-08-24T09:17:57Z</time>
      </trkpt>
      <trkpt lat="43.074559999999416" lon="-1.2652569999999994">
        <ele>1088.640</ele>
        <time>2022-08-24T09:17:58Z</time>
      </trkpt>
      <trkpt lat="43.074525999999416" lon="-1.2653159999999994">
        <ele>1088.619</ele>
        <time>2022-08-24T09:18:01Z</time>
      </trkpt>
      <trkpt lat="43.074503999999415" lon="-1.2653579999999995">
        <ele>1088.856</ele>
        <time>2022-08-24T09:18:03Z</time>
      </trkpt>
      <trkpt lat="43.07449399999941" lon="-1.2653779999999994">
        <ele>1089.059</ele>
        <time>2022-08-24T09:18:04Z</time>
      </trkpt>
      <trkpt lat="43.07448099999941" lon="-1.2653989999999995">
        <ele>1089.214</ele>
        <time>2022-08-24T09:18:05Z</time>
      </trkpt>
      <trkpt lat="43.07447199999941" lon="-1.2654119999999995">
        <ele>1089.209</ele>
        <time>2022-08-24T09:18:06Z</time>
      </trkpt>
      <trkpt lat="43.07445899999941" lon="-1.2654299999999996">
        <ele>1089.226</ele>
        <time>2022-08-24T09:18:07Z</time>
      </trkpt>
      <trkpt lat="43.074436999999406" lon="-1.2654709999999996">
        <ele>1089.436</ele>
        <time>2022-08-24T09:18:09Z</time>
      </trkpt>
      <trkpt lat="43.07442799999941" lon="-1.2654899999999996">
        <ele>1089.626</ele>
        <time>2022-08-24T09:18:10Z</time>
      </trkpt>
      <trkpt lat="43.07441899999941" lon="-1.2655079999999996">
        <ele>1089.882</ele>
        <time>2022-08-24T09:18:11Z</time>
      </trkpt>
      <trkpt lat="43.07436999999941" lon="-1.2656069999999997">
        <ele>1090.484</ele>
        <time>2022-08-24T09:18:16Z</time>
      </trkpt>
      <trkpt lat="43.074357999999414" lon="-1.2656259999999997">
        <ele>1090.671</ele>
        <time>2022-08-24T09:18:17Z</time>
      </trkpt>
      <trkpt lat="43.074348999999415" lon="-1.2656449999999997">
        <ele>1090.654</ele>
        <time>2022-08-24T09:18:18Z</time>
      </trkpt>
      <trkpt lat="43.07433899999941" lon="-1.2656629999999998">
        <ele>1090.878</ele>
        <time>2022-08-24T09:18:19Z</time>
      </trkpt>
      <trkpt lat="43.074326999999414" lon="-1.2656839999999998">
        <ele>1090.847</ele>
        <time>2022-08-24T09:18:20Z</time>
      </trkpt>
      <trkpt lat="43.074317999999415" lon="-1.2657059999999998">
        <ele>1091.083</ele>
        <time>2022-08-24T09:18:21Z</time>
      </trkpt>
      <trkpt lat="43.07430899999942" lon="-1.2657279999999997">
        <ele>1091.425</ele>
        <time>2022-08-24T09:18:22Z</time>
      </trkpt>
      <trkpt lat="43.074298999999414" lon="-1.2657479999999997">
        <ele>1091.617</ele>
        <time>2022-08-24T09:18:23Z</time>
      </trkpt>
      <trkpt lat="43.074289999999415" lon="-1.2657669999999996">
        <ele>1091.809</ele>
        <time>2022-08-24T09:18:24Z</time>
      </trkpt>
      <trkpt lat="43.074278999999414" lon="-1.2657859999999996">
        <ele>1092.059</ele>
        <time>2022-08-24T09:18:25Z</time>
      </trkpt>
      <trkpt lat="43.074269999999416" lon="-1.2658059999999995">
        <ele>1092.029</ele>
        <time>2022-08-24T09:18:26Z</time>
      </trkpt>
      <trkpt lat="43.07425999999941" lon="-1.2658259999999995">
        <ele>1092.029</ele>
        <time>2022-08-24T09:18:27Z</time>
      </trkpt>
      <trkpt lat="43.07425199999941" lon="-1.2658479999999994">
        <ele>1092.215</ele>
        <time>2022-08-24T09:18:28Z</time>
      </trkpt>
      <trkpt lat="43.07424099999941" lon="-1.2658689999999995">
        <ele>1092.437</ele>
        <time>2022-08-24T09:18:29Z</time>
      </trkpt>
      <trkpt lat="43.07423099999941" lon="-1.2658889999999994">
        <ele>1092.484</ele>
        <time>2022-08-24T09:18:30Z</time>
      </trkpt>
      <trkpt lat="43.074220999999405" lon="-1.2659079999999994">
        <ele>1092.667</ele>
        <time>2022-08-24T09:18:31Z</time>
      </trkpt>
      <trkpt lat="43.0742129999994" lon="-1.2659279999999993">
        <ele>1092.861</ele>
        <time>2022-08-24T09:18:32Z</time>
      </trkpt>
      <trkpt lat="43.0742029999994" lon="-1.2659489999999993">
        <ele>1093.020</ele>
        <time>2022-08-24T09:18:33Z</time>
      </trkpt>
      <trkpt lat="43.0741949999994" lon="-1.2659689999999992">
        <ele>1093.057</ele>
        <time>2022-08-24T09:18:34Z</time>
      </trkpt>
      <trkpt lat="43.074184999999396" lon="-1.2659909999999992">
        <ele>1093.400</ele>
        <time>2022-08-24T09:18:35Z</time>
      </trkpt>
      <trkpt lat="43.074173999999395" lon="-1.2660129999999992">
        <ele>1093.620</ele>
        <time>2022-08-24T09:18:36Z</time>
      </trkpt>
      <trkpt lat="43.074162999999395" lon="-1.2660319999999992">
        <ele>1093.609</ele>
        <time>2022-08-24T09:18:37Z</time>
      </trkpt>
      <trkpt lat="43.07415299999939" lon="-1.2660509999999991">
        <ele>1093.836</ele>
        <time>2022-08-24T09:18:38Z</time>
      </trkpt>
      <trkpt lat="43.07414499999939" lon="-1.2660719999999992">
        <ele>1094.066</ele>
        <time>2022-08-24T09:18:39Z</time>
      </trkpt>
      <trkpt lat="43.074137999999394" lon="-1.2660899999999993">
        <ele>1094.066</ele>
        <time>2022-08-24T09:18:40Z</time>
      </trkpt>
      <trkpt lat="43.0741309999994" lon="-1.2661079999999993">
        <ele>1094.072</ele>
        <time>2022-08-24T09:18:41Z</time>
      </trkpt>
      <trkpt lat="43.0741249999994" lon="-1.2661259999999994">
        <ele>1094.294</ele>
        <time>2022-08-24T09:18:42Z</time>
      </trkpt>
      <trkpt lat="43.0741179999994" lon="-1.2661449999999994">
        <ele>1094.231</ele>
        <time>2022-08-24T09:18:43Z</time>
      </trkpt>
      <trkpt lat="43.0741089999994" lon="-1.2661649999999993">
        <ele>1094.294</ele>
        <time>2022-08-24T09:18:44Z</time>
      </trkpt>
      <trkpt lat="43.0740989999994" lon="-1.2661849999999992">
        <ele>1094.278</ele>
        <time>2022-08-24T09:18:45Z</time>
      </trkpt>
      <trkpt lat="43.0740879999994" lon="-1.2662029999999993">
        <ele>1094.487</ele>
        <time>2022-08-24T09:18:46Z</time>
      </trkpt>
      <trkpt lat="43.0740799999994" lon="-1.2662179999999994">
        <ele>1094.431</ele>
        <time>2022-08-24T09:18:47Z</time>
      </trkpt>
      <trkpt lat="43.074069999999395" lon="-1.2662329999999995">
        <ele>1094.661</ele>
        <time>2022-08-24T09:18:48Z</time>
      </trkpt>
      <trkpt lat="43.07405999999939" lon="-1.2662479999999996">
        <ele>1094.807</ele>
        <time>2022-08-24T09:18:49Z</time>
      </trkpt>
      <trkpt lat="43.07404599999939" lon="-1.2662659999999997">
        <ele>1095.009</ele>
        <time>2022-08-24T09:18:50Z</time>
      </trkpt>
      <trkpt lat="43.07403699999939" lon="-1.2662839999999997">
        <ele>1095.084</ele>
        <time>2022-08-24T09:18:51Z</time>
      </trkpt>
      <trkpt lat="43.07402699999939" lon="-1.2662969999999998">
        <ele>1095.244</ele>
        <time>2022-08-24T09:18:52Z</time>
      </trkpt>
      <trkpt lat="43.07401699999939" lon="-1.2663109999999997">
        <ele>1095.224</ele>
        <time>2022-08-24T09:18:53Z</time>
      </trkpt>
      <trkpt lat="43.074005999999386" lon="-1.2663239999999998">
        <ele>1095.450</ele>
        <time>2022-08-24T09:18:54Z</time>
      </trkpt>
      <trkpt lat="43.073991999999386" lon="-1.2663369999999998">
        <ele>1095.692</ele>
        <time>2022-08-24T09:18:55Z</time>
      </trkpt>
      <trkpt lat="43.07397999999939" lon="-1.2663479999999998">
        <ele>1095.849</ele>
        <time>2022-08-24T09:18:56Z</time>
      </trkpt>
      <trkpt lat="43.07397099999939" lon="-1.2663599999999997">
        <ele>1095.822</ele>
        <time>2022-08-24T09:18:57Z</time>
      </trkpt>
      <trkpt lat="43.073960999999386" lon="-1.2663729999999997">
        <ele>1096.076</ele>
        <time>2022-08-24T09:18:58Z</time>
      </trkpt>
      <trkpt lat="43.073949999999385" lon="-1.2663859999999998">
        <ele>1096.085</ele>
        <time>2022-08-24T09:18:59Z</time>
      </trkpt>
      <trkpt lat="43.07393499999939" lon="-1.2663989999999998">
        <ele>1096.062</ele>
        <time>2022-08-24T09:19:00Z</time>
      </trkpt>
      <trkpt lat="43.07392099999939" lon="-1.2664079999999998">
        <ele>1096.483</ele>
        <time>2022-08-24T09:19:01Z</time>
      </trkpt>
      <trkpt lat="43.07390699999939" lon="-1.2664169999999997">
        <ele>1096.811</ele>
        <time>2022-08-24T09:19:02Z</time>
      </trkpt>
      <trkpt lat="43.07389499999939" lon="-1.2664269999999997">
        <ele>1097.009</ele>
        <time>2022-08-24T09:19:03Z</time>
      </trkpt>
      <trkpt lat="43.07388399999939" lon="-1.2664369999999998">
        <ele>1097.487</ele>
        <time>2022-08-24T09:19:04Z</time>
      </trkpt>
      <trkpt lat="43.07387199999939" lon="-1.2664459999999997">
        <ele>1097.447</ele>
        <time>2022-08-24T09:19:05Z</time>
      </trkpt>
      <trkpt lat="43.07385999999939" lon="-1.2664539999999997">
        <ele>1097.667</ele>
        <time>2022-08-24T09:19:06Z</time>
      </trkpt>
      <trkpt lat="43.07384599999939" lon="-1.2664609999999998">
        <ele>1097.833</ele>
        <time>2022-08-24T09:19:07Z</time>
      </trkpt>
      <trkpt lat="43.07383199999939" lon="-1.266468">
        <ele>1097.865</ele>
        <time>2022-08-24T09:19:08Z</time>
      </trkpt>
      <trkpt lat="43.07383199999939" lon="-1.266468">
        <ele>1097.832</ele>
        <time>2022-08-24T09:19:09Z</time>
      </trkpt>
      <trkpt lat="43.07380099999939" lon="-1.266483">
        <ele>1098.035</ele>
        <time>2022-08-24T09:19:10Z</time>
      </trkpt>
      <trkpt lat="43.07378699999939" lon="-1.266488">
        <ele>1098.249</ele>
        <time>2022-08-24T09:19:11Z</time>
      </trkpt>
      <trkpt lat="43.07377399999939" lon="-1.266494">
        <ele>1098.448</ele>
        <time>2022-08-24T09:19:12Z</time>
      </trkpt>
      <trkpt lat="43.07376099999939" lon="-1.2665">
        <ele>1098.638</ele>
        <time>2022-08-24T09:19:13Z</time>
      </trkpt>
      <trkpt lat="43.07374599999939" lon="-1.266505">
        <ele>1099.070</ele>
        <time>2022-08-24T09:19:14Z</time>
      </trkpt>
      <trkpt lat="43.07372999999939" lon="-1.2665089999999999">
        <ele>1099.217</ele>
        <time>2022-08-24T09:19:15Z</time>
      </trkpt>
      <trkpt lat="43.073713999999384" lon="-1.2665149999999998">
        <ele>1099.409</ele>
        <time>2022-08-24T09:19:16Z</time>
      </trkpt>
      <trkpt lat="43.07369799999938" lon="-1.2665199999999999">
        <ele>1099.684</ele>
        <time>2022-08-24T09:19:17Z</time>
      </trkpt>
      <trkpt lat="43.073682999999384" lon="-1.266527">
        <ele>1099.644</ele>
        <time>2022-08-24T09:19:18Z</time>
      </trkpt>
      <trkpt lat="43.07366799999939" lon="-1.2665359999999999">
        <ele>1100.044</ele>
        <time>2022-08-24T09:19:19Z</time>
      </trkpt>
      <trkpt lat="43.07365599999939" lon="-1.266544">
        <ele>1100.440</ele>
        <time>2022-08-24T09:19:20Z</time>
      </trkpt>
      <trkpt lat="43.07364099999939" lon="-1.266551">
        <ele>1100.442</ele>
        <time>2022-08-24T09:19:21Z</time>
      </trkpt>
      <trkpt lat="43.07362499999939" lon="-1.266556">
        <ele>1100.889</ele>
        <time>2022-08-24T09:19:22Z</time>
      </trkpt>
      <trkpt lat="43.07360699999939" lon="-1.26656">
        <ele>1101.022</ele>
        <time>2022-08-24T09:19:23Z</time>
      </trkpt>
      <trkpt lat="43.07359099999939" lon="-1.266565">
        <ele>1101.086</ele>
        <time>2022-08-24T09:19:24Z</time>
      </trkpt>
      <trkpt lat="43.07357499999939" lon="-1.2665739999999999">
        <ele>1101.035</ele>
        <time>2022-08-24T09:19:25Z</time>
      </trkpt>
      <trkpt lat="43.073558999999385" lon="-1.2665819999999999">
        <ele>1101.475</ele>
        <time>2022-08-24T09:19:26Z</time>
      </trkpt>
      <trkpt lat="43.07354399999939" lon="-1.266587">
        <ele>1101.628</ele>
        <time>2022-08-24T09:19:27Z</time>
      </trkpt>
      <trkpt lat="43.07352599999939" lon="-1.266592">
        <ele>1101.820</ele>
        <time>2022-08-24T09:19:28Z</time>
      </trkpt>
      <trkpt lat="43.07351099999939" lon="-1.266597">
        <ele>1102.009</ele>
        <time>2022-08-24T09:19:29Z</time>
      </trkpt>
      <trkpt lat="43.07349399999939" lon="-1.266604">
        <ele>1102.238</ele>
        <time>2022-08-24T09:19:30Z</time>
      </trkpt>
      <trkpt lat="43.073478999999395" lon="-1.266609">
        <ele>1102.488</ele>
        <time>2022-08-24T09:19:31Z</time>
      </trkpt>
      <trkpt lat="43.073461999999395" lon="-1.266615">
        <ele>1102.628</ele>
        <time>2022-08-24T09:19:32Z</time>
      </trkpt>
      <trkpt lat="43.07344599999939" lon="-1.266619">
        <ele>1102.854</ele>
        <time>2022-08-24T09:19:33Z</time>
      </trkpt>
      <trkpt lat="43.07342999999939" lon="-1.266622">
        <ele>1103.056</ele>
        <time>2022-08-24T09:19:34Z</time>
      </trkpt>
      <trkpt lat="43.07341399999939" lon="-1.2666279999999999">
        <ele>1103.233</ele>
        <time>2022-08-24T09:19:35Z</time>
      </trkpt>
      <trkpt lat="43.073400999999386" lon="-1.2666319999999998">
        <ele>1103.446</ele>
        <time>2022-08-24T09:19:36Z</time>
      </trkpt>
      <trkpt lat="43.073384999999384" lon="-1.2666389999999998">
        <ele>1103.690</ele>
        <time>2022-08-24T09:19:37Z</time>
      </trkpt>
      <trkpt lat="43.07336899999938" lon="-1.2666429999999997">
        <ele>1103.849</ele>
        <time>2022-08-24T09:19:38Z</time>
      </trkpt>
      <trkpt lat="43.07335599999938" lon="-1.2666439999999997">
        <ele>1104.055</ele>
        <time>2022-08-24T09:19:39Z</time>
      </trkpt>
      <trkpt lat="43.07334199999938" lon="-1.2666459999999997">
        <ele>1104.207</ele>
        <time>2022-08-24T09:19:40Z</time>
      </trkpt>
      <trkpt lat="43.07332699999938" lon="-1.2666509999999997">
        <ele>1104.217</ele>
        <time>2022-08-24T09:19:41Z</time>
      </trkpt>
      <trkpt lat="43.07331099999938" lon="-1.2666569999999997">
        <ele>1104.409</ele>
        <time>2022-08-24T09:19:42Z</time>
      </trkpt>
      <trkpt lat="43.07329699999938" lon="-1.2666619999999997">
        <ele>1104.416</ele>
        <time>2022-08-24T09:19:43Z</time>
      </trkpt>
      <trkpt lat="43.073283999999376" lon="-1.2666649999999997">
        <ele>1104.686</ele>
        <time>2022-08-24T09:19:44Z</time>
      </trkpt>
      <trkpt lat="43.073269999999376" lon="-1.2666709999999997">
        <ele>1104.836</ele>
        <time>2022-08-24T09:19:45Z</time>
      </trkpt>
      <trkpt lat="43.07325399999937" lon="-1.2666779999999997">
        <ele>1104.852</ele>
        <time>2022-08-24T09:19:46Z</time>
      </trkpt>
      <trkpt lat="43.073236999999374" lon="-1.2666839999999997">
        <ele>1105.064</ele>
        <time>2022-08-24T09:19:47Z</time>
      </trkpt>
      <trkpt lat="43.073218999999376" lon="-1.2666879999999996">
        <ele>1105.291</ele>
        <time>2022-08-24T09:19:48Z</time>
      </trkpt>
      <trkpt lat="43.073218999999376" lon="-1.2666879999999996">
        <ele>1105.424</ele>
        <time>2022-08-24T09:19:49Z</time>
      </trkpt>
      <trkpt lat="43.07318799999938" lon="-1.2666959999999996">
        <ele>1105.458</ele>
        <time>2022-08-24T09:19:50Z</time>
      </trkpt>
      <trkpt lat="43.073171999999374" lon="-1.2666999999999995">
        <ele>1105.637</ele>
        <time>2022-08-24T09:19:51Z</time>
      </trkpt>
      <trkpt lat="43.07315599999937" lon="-1.2667059999999994">
        <ele>1105.839</ele>
        <time>2022-08-24T09:19:52Z</time>
      </trkpt>
      <trkpt lat="43.07313899999937" lon="-1.2667119999999994">
        <ele>1106.001</ele>
        <time>2022-08-24T09:19:53Z</time>
      </trkpt>
      <trkpt lat="43.07312299999937" lon="-1.2667169999999994">
        <ele>1106.021</ele>
        <time>2022-08-24T09:19:54Z</time>
      </trkpt>
      <trkpt lat="43.07310499999937" lon="-1.2667229999999994">
        <ele>1106.209</ele>
        <time>2022-08-24T09:19:55Z</time>
      </trkpt>
      <trkpt lat="43.073089999999375" lon="-1.2667279999999994">
        <ele>1106.484</ele>
        <time>2022-08-24T09:19:56Z</time>
      </trkpt>
      <trkpt lat="43.07307699999937" lon="-1.2667319999999993">
        <ele>1106.434</ele>
        <time>2022-08-24T09:19:57Z</time>
      </trkpt>
      <trkpt lat="43.073058999999375" lon="-1.2667359999999992">
        <ele>1106.624</ele>
        <time>2022-08-24T09:19:58Z</time>
      </trkpt>
      <trkpt lat="43.073041999999376" lon="-1.2667409999999992">
        <ele>1106.680</ele>
        <time>2022-08-24T09:19:59Z</time>
      </trkpt>
      <trkpt lat="43.07302699999938" lon="-1.2667479999999993">
        <ele>1106.832</ele>
        <time>2022-08-24T09:20:00Z</time>
      </trkpt>
      <trkpt lat="43.07301199999938" lon="-1.2667519999999992">
        <ele>1106.869</ele>
        <time>2022-08-24T09:20:01Z</time>
      </trkpt>
      <trkpt lat="43.07299399999938" lon="-1.2667519999999992">
        <ele>1107.052</ele>
        <time>2022-08-24T09:20:02Z</time>
      </trkpt>
      <trkpt lat="43.072975999999386" lon="-1.2667519999999992">
        <ele>1107.256</ele>
        <time>2022-08-24T09:20:03Z</time>
      </trkpt>
      <trkpt lat="43.072958999999386" lon="-1.2667539999999993">
        <ele>1107.255</ele>
        <time>2022-08-24T09:20:04Z</time>
      </trkpt>
      <trkpt lat="43.07294099999939" lon="-1.2667569999999992">
        <ele>1107.444</ele>
        <time>2022-08-24T09:20:05Z</time>
      </trkpt>
      <trkpt lat="43.07292199999939" lon="-1.2667599999999992">
        <ele>1107.605</ele>
        <time>2022-08-24T09:20:06Z</time>
      </trkpt>
      <trkpt lat="43.072902999999386" lon="-1.2667619999999993">
        <ele>1107.815</ele>
        <time>2022-08-24T09:20:07Z</time>
      </trkpt>
      <trkpt lat="43.07288699999938" lon="-1.2667649999999993">
        <ele>1108.009</ele>
        <time>2022-08-24T09:20:08Z</time>
      </trkpt>
      <trkpt lat="43.072871999999386" lon="-1.2667659999999992">
        <ele>1108.045</ele>
        <time>2022-08-24T09:20:09Z</time>
      </trkpt>
      <trkpt lat="43.072854999999386" lon="-1.2667639999999991">
        <ele>1108.255</ele>
        <time>2022-08-24T09:20:10Z</time>
      </trkpt>
      <trkpt lat="43.072840999999386" lon="-1.2667639999999991">
        <ele>1108.475</ele>
        <time>2022-08-24T09:20:11Z</time>
      </trkpt>
      <trkpt lat="43.072823999999386" lon="-1.2667639999999991">
        <ele>1108.481</ele>
        <time>2022-08-24T09:20:12Z</time>
      </trkpt>
      <trkpt lat="43.072807999999384" lon="-1.2667629999999992">
        <ele>1108.633</ele>
        <time>2022-08-24T09:20:13Z</time>
      </trkpt>
      <trkpt lat="43.07278999999939" lon="-1.2667639999999991">
        <ele>1108.610</ele>
        <time>2022-08-24T09:20:14Z</time>
      </trkpt>
      <trkpt lat="43.07277299999939" lon="-1.2667659999999992">
        <ele>1109.023</ele>
        <time>2022-08-24T09:20:15Z</time>
      </trkpt>
      <trkpt lat="43.07275499999939" lon="-1.2667639999999991">
        <ele>1109.077</ele>
        <time>2022-08-24T09:20:16Z</time>
      </trkpt>
      <trkpt lat="43.07273699999939" lon="-1.2667629999999992">
        <ele>1109.286</ele>
        <time>2022-08-24T09:20:17Z</time>
      </trkpt>
      <trkpt lat="43.072718999999395" lon="-1.2667629999999992">
        <ele>1109.242</ele>
        <time>2022-08-24T09:20:18Z</time>
      </trkpt>
      <trkpt lat="43.072701999999396" lon="-1.2667619999999993">
        <ele>1109.222</ele>
        <time>2022-08-24T09:20:19Z</time>
      </trkpt>
      <trkpt lat="43.0726839999994" lon="-1.2667589999999993">
        <ele>1109.414</ele>
        <time>2022-08-24T09:20:20Z</time>
      </trkpt>
      <trkpt lat="43.0726669999994" lon="-1.2667559999999993">
        <ele>1109.409</ele>
        <time>2022-08-24T09:20:21Z</time>
      </trkpt>
      <trkpt lat="43.0726469999994" lon="-1.2667549999999994">
        <ele>1109.635</ele>
        <time>2022-08-24T09:20:22Z</time>
      </trkpt>
      <trkpt lat="43.0726279999994" lon="-1.2667529999999994">
        <ele>1109.665</ele>
        <time>2022-08-24T09:20:23Z</time>
      </trkpt>
      <trkpt lat="43.072608999999396" lon="-1.2667489999999995">
        <ele>1109.835</ele>
        <time>2022-08-24T09:20:24Z</time>
      </trkpt>
      <trkpt lat="43.0725889999994" lon="-1.2667469999999994">
        <ele>1110.241</ele>
        <time>2022-08-24T09:20:25Z</time>
      </trkpt>
      <trkpt lat="43.0725719999994" lon="-1.2667439999999994">
        <ele>1110.053</ele>
        <time>2022-08-24T09:20:26Z</time>
      </trkpt>
      <trkpt lat="43.0725539999994" lon="-1.2667399999999995">
        <ele>1110.290</ele>
        <time>2022-08-24T09:20:27Z</time>
      </trkpt>
      <trkpt lat="43.0725379999994" lon="-1.2667379999999995">
        <ele>1110.023</ele>
        <time>2022-08-24T09:20:28Z</time>
      </trkpt>
      <trkpt lat="43.0725209999994" lon="-1.2667329999999994">
        <ele>1110.447</ele>
        <time>2022-08-24T09:20:29Z</time>
      </trkpt>
      <trkpt lat="43.0725059999994" lon="-1.2667259999999994">
        <ele>1110.466</ele>
        <time>2022-08-24T09:20:30Z</time>
      </trkpt>
      <trkpt lat="43.0724909999994" lon="-1.2667209999999993">
        <ele>1110.658</ele>
        <time>2022-08-24T09:20:31Z</time>
      </trkpt>
      <trkpt lat="43.0724749999994" lon="-1.2667159999999993">
        <ele>1110.852</ele>
        <time>2022-08-24T09:20:32Z</time>
      </trkpt>
      <trkpt lat="43.0724579999994" lon="-1.2667129999999993">
        <ele>1110.817</ele>
        <time>2022-08-24T09:20:33Z</time>
      </trkpt>
      <trkpt lat="43.0724419999994" lon="-1.2667109999999993">
        <ele>1111.009</ele>
        <time>2022-08-24T09:20:34Z</time>
      </trkpt>
      <trkpt lat="43.0724239999994" lon="-1.2667079999999993">
        <ele>1111.066</ele>
        <time>2022-08-24T09:20:35Z</time>
      </trkpt>
      <trkpt lat="43.072405999999404" lon="-1.2667039999999994">
        <ele>1111.276</ele>
        <time>2022-08-24T09:20:36Z</time>
      </trkpt>
      <trkpt lat="43.072388999999404" lon="-1.2666999999999995">
        <ele>1111.466</ele>
        <time>2022-08-24T09:20:37Z</time>
      </trkpt>
      <trkpt lat="43.0723729999994" lon="-1.2666919999999995">
        <ele>1111.662</ele>
        <time>2022-08-24T09:20:38Z</time>
      </trkpt>
      <trkpt lat="43.0723559999994" lon="-1.2666849999999994">
        <ele>1111.884</ele>
        <time>2022-08-24T09:20:39Z</time>
      </trkpt>
      <trkpt lat="43.0723389999994" lon="-1.2666819999999994">
        <ele>1111.821</ele>
        <time>2022-08-24T09:20:40Z</time>
      </trkpt>
      <trkpt lat="43.072320999999405" lon="-1.2666809999999995">
        <ele>1112.074</ele>
        <time>2022-08-24T09:20:41Z</time>
      </trkpt>
      <trkpt lat="43.07230299999941" lon="-1.2666769999999996">
        <ele>1112.028</ele>
        <time>2022-08-24T09:20:42Z</time>
      </trkpt>
      <trkpt lat="43.07228599999941" lon="-1.2666709999999997">
        <ele>1112.097</ele>
        <time>2022-08-24T09:20:43Z</time>
      </trkpt>
      <trkpt lat="43.07226899999941" lon="-1.2666649999999997">
        <ele>1112.257</ele>
        <time>2022-08-24T09:20:44Z</time>
      </trkpt>
      <trkpt lat="43.07225099999941" lon="-1.2666599999999997">
        <ele>1112.200</ele>
        <time>2022-08-24T09:20:45Z</time>
      </trkpt>
      <trkpt lat="43.07223399999941" lon="-1.2666569999999997">
        <ele>1112.220</ele>
        <time>2022-08-24T09:20:46Z</time>
      </trkpt>
      <trkpt lat="43.07221799999941" lon="-1.2666529999999998">
        <ele>1112.409</ele>
        <time>2022-08-24T09:20:47Z</time>
      </trkpt>
      <trkpt lat="43.07219999999941" lon="-1.2666479999999998">
        <ele>1112.486</ele>
        <time>2022-08-24T09:20:48Z</time>
      </trkpt>
      <trkpt lat="43.072184999999415" lon="-1.2666429999999997">
        <ele>1112.626</ele>
        <time>2022-08-24T09:20:49Z</time>
      </trkpt>
      <trkpt lat="43.07216899999941" lon="-1.2666389999999998">
        <ele>1112.696</ele>
        <time>2022-08-24T09:20:50Z</time>
      </trkpt>
      <trkpt lat="43.07215199999941" lon="-1.2666339999999998">
        <ele>1112.882</ele>
        <time>2022-08-24T09:20:51Z</time>
      </trkpt>
      <trkpt lat="43.07213299999941" lon="-1.2666309999999998">
        <ele>1113.044</ele>
        <time>2022-08-24T09:20:52Z</time>
      </trkpt>
      <trkpt lat="43.07211299999941" lon="-1.2666289999999998">
        <ele>1113.081</ele>
        <time>2022-08-24T09:20:53Z</time>
      </trkpt>
      <trkpt lat="43.07209599999941" lon="-1.2666269999999997">
        <ele>1113.284</ele>
        <time>2022-08-24T09:20:54Z</time>
      </trkpt>
      <trkpt lat="43.07207999999941" lon="-1.2666219999999997">
        <ele>1113.468</ele>
        <time>2022-08-24T09:20:55Z</time>
      </trkpt>
      <trkpt lat="43.07206299999941" lon="-1.2666169999999997">
        <ele>1113.627</ele>
        <time>2022-08-24T09:20:56Z</time>
      </trkpt>
      <trkpt lat="43.07204499999941" lon="-1.2666129999999998">
        <ele>1113.872</ele>
        <time>2022-08-24T09:20:57Z</time>
      </trkpt>
      <trkpt lat="43.072024999999414" lon="-1.2666079999999997">
        <ele>1113.813</ele>
        <time>2022-08-24T09:20:58Z</time>
      </trkpt>
      <trkpt lat="43.07200699999942" lon="-1.2666049999999998">
        <ele>1114.014</ele>
        <time>2022-08-24T09:20:59Z</time>
      </trkpt>
      <trkpt lat="43.07198899999942" lon="-1.2665989999999998">
        <ele>1114.009</ele>
        <time>2022-08-24T09:21:00Z</time>
      </trkpt>
      <trkpt lat="43.07197099999942" lon="-1.266595">
        <ele>1114.038</ele>
        <time>2022-08-24T09:21:01Z</time>
      </trkpt>
      <trkpt lat="43.07195399999942" lon="-1.2665899999999999">
        <ele>1114.268</ele>
        <time>2022-08-24T09:21:02Z</time>
      </trkpt>
      <trkpt lat="43.071935999999425" lon="-1.266587">
        <ele>1114.488</ele>
        <time>2022-08-24T09:21:03Z</time>
      </trkpt>
      <trkpt lat="43.07191799999943" lon="-1.2665849999999998">
        <ele>1114.464</ele>
        <time>2022-08-24T09:21:04Z</time>
      </trkpt>
      <trkpt lat="43.07190099999943" lon="-1.266587">
        <ele>1114.436</ele>
        <time>2022-08-24T09:21:05Z</time>
      </trkpt>
      <trkpt lat="43.07188299999943" lon="-1.266587">
        <ele>1114.683</ele>
        <time>2022-08-24T09:21:06Z</time>
      </trkpt>
      <trkpt lat="43.07186599999943" lon="-1.266584">
        <ele>1114.676</ele>
        <time>2022-08-24T09:21:07Z</time>
      </trkpt>
      <trkpt lat="43.071850999999434" lon="-1.2665819999999999">
        <ele>1114.830</ele>
        <time>2022-08-24T09:21:08Z</time>
      </trkpt>
      <trkpt lat="43.07183499999943" lon="-1.266584">
        <ele>1114.849</ele>
        <time>2022-08-24T09:21:09Z</time>
      </trkpt>
      <trkpt lat="43.07181799999943" lon="-1.266583">
        <ele>1115.046</ele>
        <time>2022-08-24T09:21:10Z</time>
      </trkpt>
      <trkpt lat="43.07180199999943" lon="-1.266582">
        <ele>1114.888</ele>
        <time>2022-08-24T09:21:11Z</time>
      </trkpt>
      <trkpt lat="43.07178499999943" lon="-1.26658">
        <ele>1115.016</ele>
        <time>2022-08-24T09:21:12Z</time>
      </trkpt>
      <trkpt lat="43.07176599999943" lon="-1.2665790000000001">
        <ele>1115.009</ele>
        <time>2022-08-24T09:21:13Z</time>
      </trkpt>
      <trkpt lat="43.07174799999943" lon="-1.26658">
        <ele>1115.455</ele>
        <time>2022-08-24T09:21:14Z</time>
      </trkpt>
      <trkpt lat="43.071729999999434" lon="-1.266583">
        <ele>1115.635</ele>
        <time>2022-08-24T09:21:15Z</time>
      </trkpt>
      <trkpt lat="43.071712999999434" lon="-1.266584">
        <ele>1115.875</ele>
        <time>2022-08-24T09:21:16Z</time>
      </trkpt>
      <trkpt lat="43.071695999999434" lon="-1.2665849999999998">
        <ele>1116.091</ele>
        <time>2022-08-24T09:21:17Z</time>
      </trkpt>
      <trkpt lat="43.07167799999944" lon="-1.266584">
        <ele>1116.033</ele>
        <time>2022-08-24T09:21:18Z</time>
      </trkpt>
      <trkpt lat="43.071658999999435" lon="-1.26658">
        <ele>1116.410</ele>
        <time>2022-08-24T09:21:19Z</time>
      </trkpt>
      <trkpt lat="43.07164299999943" lon="-1.266581">
        <ele>1116.473</ele>
        <time>2022-08-24T09:21:20Z</time>
      </trkpt>
      <trkpt lat="43.07162599999943" lon="-1.266584">
        <ele>1116.617</ele>
        <time>2022-08-24T09:21:21Z</time>
      </trkpt>
      <trkpt lat="43.071607999999436" lon="-1.2665849999999998">
        <ele>1116.696</ele>
        <time>2022-08-24T09:21:22Z</time>
      </trkpt>
      <trkpt lat="43.07159099999944" lon="-1.2665889999999997">
        <ele>1116.643</ele>
        <time>2022-08-24T09:21:23Z</time>
      </trkpt>
      <trkpt lat="43.071574999999434" lon="-1.2665949999999997">
        <ele>1116.664</ele>
        <time>2022-08-24T09:21:24Z</time>
      </trkpt>
      <trkpt lat="43.07155899999943" lon="-1.2665989999999996">
        <ele>1116.810</ele>
        <time>2022-08-24T09:21:25Z</time>
      </trkpt>
      <trkpt lat="43.07154199999943" lon="-1.2665999999999995">
        <ele>1116.809</ele>
        <time>2022-08-24T09:21:26Z</time>
      </trkpt>
      <trkpt lat="43.07152499999943" lon="-1.2666009999999994">
        <ele>1116.845</ele>
        <time>2022-08-24T09:21:27Z</time>
      </trkpt>
      <trkpt lat="43.07150799999943" lon="-1.2666029999999995">
        <ele>1116.855</ele>
        <time>2022-08-24T09:21:28Z</time>
      </trkpt>
      <trkpt lat="43.071489999999436" lon="-1.2666059999999995">
        <ele>1116.825</ele>
        <time>2022-08-24T09:21:29Z</time>
      </trkpt>
      <trkpt lat="43.071472999999436" lon="-1.2666109999999995">
        <ele>1117.031</ele>
        <time>2022-08-24T09:21:30Z</time>
      </trkpt>
      <trkpt lat="43.071455999999436" lon="-1.2666179999999996">
        <ele>1117.013</ele>
        <time>2022-08-24T09:21:31Z</time>
      </trkpt>
      <trkpt lat="43.071439999999434" lon="-1.2666239999999995">
        <ele>1117.070</ele>
        <time>2022-08-24T09:21:32Z</time>
      </trkpt>
      <trkpt lat="43.07142399999943" lon="-1.2666279999999994">
        <ele>1117.083</ele>
        <time>2022-08-24T09:21:33Z</time>
      </trkpt>
      <trkpt lat="43.07140799999943" lon="-1.2666329999999995">
        <ele>1117.277</ele>
        <time>2022-08-24T09:21:34Z</time>
      </trkpt>
      <trkpt lat="43.07139299999943" lon="-1.2666389999999994">
        <ele>1117.286</ele>
        <time>2022-08-24T09:21:35Z</time>
      </trkpt>
      <trkpt lat="43.07137699999943" lon="-1.2666469999999994">
        <ele>1117.467</ele>
        <time>2022-08-24T09:21:36Z</time>
      </trkpt>
      <trkpt lat="43.07136099999943" lon="-1.2666559999999993">
        <ele>1117.481</ele>
        <time>2022-08-24T09:21:37Z</time>
      </trkpt>
      <trkpt lat="43.07126499999943" lon="-1.2667049999999993">
        <ele>1118.419</ele>
        <time>2022-08-24T09:21:43Z</time>
      </trkpt>
      <trkpt lat="43.07124999999943" lon="-1.2667189999999993">
        <ele>1118.609</ele>
        <time>2022-08-24T09:21:44Z</time>
      </trkpt>
      <trkpt lat="43.07123799999943" lon="-1.2667349999999993">
        <ele>1118.837</ele>
        <time>2022-08-24T09:21:45Z</time>
      </trkpt>
      <trkpt lat="43.07122499999943" lon="-1.2667479999999993">
        <ele>1119.097</ele>
        <time>2022-08-24T09:21:46Z</time>
      </trkpt>
      <trkpt lat="43.07121099999943" lon="-1.2667579999999994">
        <ele>1119.447</ele>
        <time>2022-08-24T09:21:47Z</time>
      </trkpt>
      <trkpt lat="43.07119799999943" lon="-1.2667679999999995">
        <ele>1119.853</ele>
        <time>2022-08-24T09:21:48Z</time>
      </trkpt>
      <trkpt lat="43.07118599999943" lon="-1.2667779999999995">
        <ele>1120.075</ele>
        <time>2022-08-24T09:21:49Z</time>
      </trkpt>
      <trkpt lat="43.07117399999943" lon="-1.2667909999999996">
        <ele>1120.252</ele>
        <time>2022-08-24T09:21:50Z</time>
      </trkpt>
      <trkpt lat="43.07116399999943" lon="-1.2668059999999997">
        <ele>1120.245</ele>
        <time>2022-08-24T09:21:51Z</time>
      </trkpt>
      <trkpt lat="43.07115299999943" lon="-1.2668239999999997">
        <ele>1120.289</ele>
        <time>2022-08-24T09:21:52Z</time>
      </trkpt>
      <trkpt lat="43.07114399999943" lon="-1.2668409999999997">
        <ele>1120.428</ele>
        <time>2022-08-24T09:21:53Z</time>
      </trkpt>
      <trkpt lat="43.07113699999943" lon="-1.2668619999999997">
        <ele>1120.654</ele>
        <time>2022-08-24T09:21:54Z</time>
      </trkpt>
      <trkpt lat="43.07113099999943" lon="-1.2668819999999996">
        <ele>1120.856</ele>
        <time>2022-08-24T09:21:55Z</time>
      </trkpt>
      <trkpt lat="43.071124999999434" lon="-1.2669009999999996">
        <ele>1120.811</ele>
        <time>2022-08-24T09:21:56Z</time>
      </trkpt>
      <trkpt lat="43.071115999999435" lon="-1.2669199999999996">
        <ele>1121.009</ele>
        <time>2022-08-24T09:21:57Z</time>
      </trkpt>
      <trkpt lat="43.07110699999944" lon="-1.2669379999999997">
        <ele>1121.066</ele>
        <time>2022-08-24T09:21:58Z</time>
      </trkpt>
      <trkpt lat="43.07109999999944" lon="-1.2669569999999997">
        <ele>1121.296</ele>
        <time>2022-08-24T09:21:59Z</time>
      </trkpt>
      <trkpt lat="43.07109599999944" lon="-1.2669749999999997">
        <ele>1121.446</ele>
        <time>2022-08-24T09:22:00Z</time>
      </trkpt>
      <trkpt lat="43.071094999999445" lon="-1.2669929999999998">
        <ele>1121.422</ele>
        <time>2022-08-24T09:22:01Z</time>
      </trkpt>
      <trkpt lat="43.07109299999944" lon="-1.2670119999999998">
        <ele>1121.654</ele>
        <time>2022-08-24T09:22:02Z</time>
      </trkpt>
      <trkpt lat="43.071091999999446" lon="-1.2670319999999997">
        <ele>1121.861</ele>
        <time>2022-08-24T09:22:03Z</time>
      </trkpt>
      <trkpt lat="43.071088999999446" lon="-1.2670519999999996">
        <ele>1122.274</ele>
        <time>2022-08-24T09:22:04Z</time>
      </trkpt>
      <trkpt lat="43.071086999999444" lon="-1.2670719999999995">
        <ele>1122.278</ele>
        <time>2022-08-24T09:22:05Z</time>
      </trkpt>
      <trkpt lat="43.071083999999445" lon="-1.2670899999999996">
        <ele>1122.457</ele>
        <time>2022-08-24T09:22:06Z</time>
      </trkpt>
      <trkpt lat="43.07108199999944" lon="-1.2671089999999996">
        <ele>1122.696</ele>
        <time>2022-08-24T09:22:07Z</time>
      </trkpt>
      <trkpt lat="43.071083999999445" lon="-1.2671289999999995">
        <ele>1122.831</ele>
        <time>2022-08-24T09:22:08Z</time>
      </trkpt>
      <trkpt lat="43.07108799999944" lon="-1.2671479999999995">
        <ele>1123.024</ele>
        <time>2022-08-24T09:22:09Z</time>
      </trkpt>
      <trkpt lat="43.07109299999944" lon="-1.2671669999999995">
        <ele>1123.009</ele>
        <time>2022-08-24T09:22:10Z</time>
      </trkpt>
      <trkpt lat="43.071094999999445" lon="-1.2671889999999995">
        <ele>1123.270</ele>
        <time>2022-08-24T09:22:11Z</time>
      </trkpt>
      <trkpt lat="43.07109599999944" lon="-1.2672039999999996">
        <ele>1123.460</ele>
        <time>2022-08-24T09:22:12Z</time>
      </trkpt>
      <trkpt lat="43.071097999999445" lon="-1.2672259999999995">
        <ele>1123.670</ele>
        <time>2022-08-24T09:22:13Z</time>
      </trkpt>
      <trkpt lat="43.07109999999945" lon="-1.2672449999999995">
        <ele>1123.866</ele>
        <time>2022-08-24T09:22:14Z</time>
      </trkpt>
      <trkpt lat="43.071103999999444" lon="-1.2672649999999994">
        <ele>1123.858</ele>
        <time>2022-08-24T09:22:15Z</time>
      </trkpt>
      <trkpt lat="43.07110499999944" lon="-1.2672849999999993">
        <ele>1124.075</ele>
        <time>2022-08-24T09:22:16Z</time>
      </trkpt>
      <trkpt lat="43.07110899999944" lon="-1.2673069999999993">
        <ele>1124.278</ele>
        <time>2022-08-24T09:22:17Z</time>
      </trkpt>
      <trkpt lat="43.07111099999944" lon="-1.2673269999999992">
        <ele>1124.452</ele>
        <time>2022-08-24T09:22:18Z</time>
      </trkpt>
      <trkpt lat="43.07111399999944" lon="-1.2673449999999993">
        <ele>1124.441</ele>
        <time>2022-08-24T09:22:19Z</time>
      </trkpt>
      <trkpt lat="43.07111499999944" lon="-1.2673639999999993">
        <ele>1124.648</ele>
        <time>2022-08-24T09:22:20Z</time>
      </trkpt>
      <trkpt lat="43.071115999999435" lon="-1.2673829999999993">
        <ele>1124.861</ele>
        <time>2022-08-24T09:22:21Z</time>
      </trkpt>
      <trkpt lat="43.071115999999435" lon="-1.2674049999999992">
        <ele>1125.017</ele>
        <time>2022-08-24T09:22:22Z</time>
      </trkpt>
      <trkpt lat="43.07111699999943" lon="-1.2674239999999992">
        <ele>1125.009</ele>
        <time>2022-08-24T09:22:23Z</time>
      </trkpt>
      <trkpt lat="43.07112099999943" lon="-1.2674429999999992">
        <ele>1125.235</ele>
        <time>2022-08-24T09:22:24Z</time>
      </trkpt>
      <trkpt lat="43.07112699999943" lon="-1.2674599999999991">
        <ele>1125.265</ele>
        <time>2022-08-24T09:22:25Z</time>
      </trkpt>
      <trkpt lat="43.07112999999943" lon="-1.267479999999999">
        <ele>1125.435</ele>
        <time>2022-08-24T09:22:26Z</time>
      </trkpt>
      <trkpt lat="43.071133999999425" lon="-1.267498999999999">
        <ele>1125.451</ele>
        <time>2022-08-24T09:22:27Z</time>
      </trkpt>
      <trkpt lat="43.07113599999943" lon="-1.267519999999999">
        <ele>1125.673</ele>
        <time>2022-08-24T09:22:28Z</time>
      </trkpt>
      <trkpt lat="43.07113499999943" lon="-1.267541999999999">
        <ele>1125.830</ele>
        <time>2022-08-24T09:22:29Z</time>
      </trkpt>
      <trkpt lat="43.07113599999943" lon="-1.2675649999999992">
        <ele>1126.073</ele>
        <time>2022-08-24T09:22:30Z</time>
      </trkpt>
      <trkpt lat="43.07113799999943" lon="-1.2675869999999991">
        <ele>1126.017</ele>
        <time>2022-08-24T09:22:31Z</time>
      </trkpt>
      <trkpt lat="43.07114299999943" lon="-1.267608999999999">
        <ele>1126.256</ele>
        <time>2022-08-24T09:22:32Z</time>
      </trkpt>
      <trkpt lat="43.07114699999943" lon="-1.2676319999999992">
        <ele>1126.475</ele>
        <time>2022-08-24T09:22:33Z</time>
      </trkpt>
      <trkpt lat="43.07114699999943" lon="-1.2676549999999993">
        <ele>1126.428</ele>
        <time>2022-08-24T09:22:34Z</time>
      </trkpt>
      <trkpt lat="43.07114599999943" lon="-1.2676779999999994">
        <ele>1126.620</ele>
        <time>2022-08-24T09:22:35Z</time>
      </trkpt>
      <trkpt lat="43.07114899999943" lon="-1.2676999999999994">
        <ele>1126.809</ele>
        <time>2022-08-24T09:22:36Z</time>
      </trkpt>
      <trkpt lat="43.07115399999943" lon="-1.2677199999999993">
        <ele>1126.888</ele>
        <time>2022-08-24T09:22:37Z</time>
      </trkpt>
      <trkpt lat="43.07115799999943" lon="-1.2677409999999993">
        <ele>1127.018</ele>
        <time>2022-08-24T09:22:38Z</time>
      </trkpt>
      <trkpt lat="43.071158999999426" lon="-1.2677629999999993">
        <ele>1127.098</ele>
        <time>2022-08-24T09:22:39Z</time>
      </trkpt>
      <trkpt lat="43.07116299999942" lon="-1.2677839999999994">
        <ele>1127.464</ele>
        <time>2022-08-24T09:22:40Z</time>
      </trkpt>
      <trkpt lat="43.07116599999942" lon="-1.2678059999999993">
        <ele>1127.496</ele>
        <time>2022-08-24T09:22:41Z</time>
      </trkpt>
      <trkpt lat="43.07116999999942" lon="-1.2678289999999994">
        <ele>1127.683</ele>
        <time>2022-08-24T09:22:42Z</time>
      </trkpt>
      <trkpt lat="43.07117099999942" lon="-1.2678529999999995">
        <ele>1127.876</ele>
        <time>2022-08-24T09:22:43Z</time>
      </trkpt>
      <trkpt lat="43.07117299999942" lon="-1.2678749999999994">
        <ele>1127.820</ele>
        <time>2022-08-24T09:22:44Z</time>
      </trkpt>
      <trkpt lat="43.07117399999942" lon="-1.2678969999999994">
        <ele>1128.069</ele>
        <time>2022-08-24T09:22:45Z</time>
      </trkpt>
      <trkpt lat="43.07117399999942" lon="-1.2679159999999994">
        <ele>1128.065</ele>
        <time>2022-08-24T09:22:46Z</time>
      </trkpt>
      <trkpt lat="43.07117399999942" lon="-1.2679399999999994">
        <ele>1128.468</ele>
        <time>2022-08-24T09:22:47Z</time>
      </trkpt>
      <trkpt lat="43.07117099999942" lon="-1.2679639999999994">
        <ele>1128.614</ele>
        <time>2022-08-24T09:22:48Z</time>
      </trkpt>
      <trkpt lat="43.071171999999414" lon="-1.2679869999999995">
        <ele>1129.009</ele>
        <time>2022-08-24T09:22:49Z</time>
      </trkpt>
      <trkpt lat="43.07117299999941" lon="-1.2680089999999995">
        <ele>1129.257</ele>
        <time>2022-08-24T09:22:50Z</time>
      </trkpt>
      <trkpt lat="43.07116999999941" lon="-1.2680349999999996">
        <ele>1129.457</ele>
        <time>2022-08-24T09:22:51Z</time>
      </trkpt>
      <trkpt lat="43.07116999999941" lon="-1.2680629999999995">
        <ele>1129.897</ele>
        <time>2022-08-24T09:22:52Z</time>
      </trkpt>
      <trkpt lat="43.07116999999941" lon="-1.2680919999999996">
        <ele>1129.873</ele>
        <time>2022-08-24T09:22:53Z</time>
      </trkpt>
      <trkpt lat="43.071168999999415" lon="-1.2681199999999995">
        <ele>1130.095</ele>
        <time>2022-08-24T09:22:54Z</time>
      </trkpt>
      <trkpt lat="43.071168999999415" lon="-1.2681449999999994">
        <ele>1130.242</ele>
        <time>2022-08-24T09:22:55Z</time>
      </trkpt>
      <trkpt lat="43.071168999999415" lon="-1.2681689999999994">
        <ele>1130.625</ele>
        <time>2022-08-24T09:22:56Z</time>
      </trkpt>
      <trkpt lat="43.07116799999942" lon="-1.2681919999999995">
        <ele>1130.839</ele>
        <time>2022-08-24T09:22:57Z</time>
      </trkpt>
      <trkpt lat="43.07116699999942" lon="-1.2682129999999996">
        <ele>1131.028</ele>
        <time>2022-08-24T09:22:58Z</time>
      </trkpt>
      <trkpt lat="43.07116499999942" lon="-1.2682339999999996">
        <ele>1131.286</ele>
        <time>2022-08-24T09:22:59Z</time>
      </trkpt>
      <trkpt lat="43.07116099999942" lon="-1.2682549999999997">
        <ele>1131.460</ele>
        <time>2022-08-24T09:23:00Z</time>
      </trkpt>
      <trkpt lat="43.07116099999942" lon="-1.2682759999999997">
        <ele>1131.626</ele>
        <time>2022-08-24T09:23:01Z</time>
      </trkpt>
      <trkpt lat="43.07116099999942" lon="-1.2682969999999998">
        <ele>1131.809</ele>
        <time>2022-08-24T09:23:02Z</time>
      </trkpt>
      <trkpt lat="43.07115799999942" lon="-1.2683179999999998">
        <ele>1132.029</ele>
        <time>2022-08-24T09:23:03Z</time>
      </trkpt>
      <trkpt lat="43.07115299999942" lon="-1.268341">
        <ele>1132.269</ele>
        <time>2022-08-24T09:23:04Z</time>
      </trkpt>
      <trkpt lat="43.07114999999942" lon="-1.268362">
        <ele>1132.289</ele>
        <time>2022-08-24T09:23:05Z</time>
      </trkpt>
      <trkpt lat="43.07114899999942" lon="-1.268381">
        <ele>1132.425</ele>
        <time>2022-08-24T09:23:06Z</time>
      </trkpt>
      <trkpt lat="43.07114999999942" lon="-1.268401">
        <ele>1132.497</ele>
        <time>2022-08-24T09:23:07Z</time>
      </trkpt>
      <trkpt lat="43.07114599999942" lon="-1.2684199999999999">
        <ele>1132.624</ele>
        <time>2022-08-24T09:23:08Z</time>
      </trkpt>
      <trkpt lat="43.071142999999424" lon="-1.268438">
        <ele>1132.637</ele>
        <time>2022-08-24T09:23:09Z</time>
      </trkpt>
      <trkpt lat="43.07113899999943" lon="-1.2684549999999999">
        <ele>1132.811</ele>
        <time>2022-08-24T09:23:10Z</time>
      </trkpt>
      <trkpt lat="43.07113499999943" lon="-1.268473">
        <ele>1133.070</ele>
        <time>2022-08-24T09:23:11Z</time>
      </trkpt>
      <trkpt lat="43.07113199999943" lon="-1.268489">
        <ele>1133.041</ele>
        <time>2022-08-24T09:23:12Z</time>
      </trkpt>
      <trkpt lat="43.07112999999943" lon="-1.268505">
        <ele>1133.281</ele>
        <time>2022-08-24T09:23:13Z</time>
      </trkpt>
      <trkpt lat="43.07112999999943" lon="-1.26852">
        <ele>1133.409</ele>
        <time>2022-08-24T09:23:14Z</time>
      </trkpt>
      <trkpt lat="43.07112599999943" lon="-1.268536">
        <ele>1133.609</ele>
        <time>2022-08-24T09:23:15Z</time>
      </trkpt>
      <trkpt lat="43.07112299999943" lon="-1.2685510000000002">
        <ele>1133.635</ele>
        <time>2022-08-24T09:23:16Z</time>
      </trkpt>
      <trkpt lat="43.07111999999943" lon="-1.2685680000000001">
        <ele>1133.815</ele>
        <time>2022-08-24T09:23:17Z</time>
      </trkpt>
      <trkpt lat="43.07111699999943" lon="-1.268582">
        <ele>1134.065</ele>
        <time>2022-08-24T09:23:18Z</time>
      </trkpt>
      <trkpt lat="43.07111099999943" lon="-1.268596">
        <ele>1134.061</ele>
        <time>2022-08-24T09:23:19Z</time>
      </trkpt>
      <trkpt lat="43.07110699999944" lon="-1.268609">
        <ele>1134.213</ele>
        <time>2022-08-24T09:23:20Z</time>
      </trkpt>
      <trkpt lat="43.07110399999944" lon="-1.2686250000000001">
        <ele>1134.220</ele>
        <time>2022-08-24T09:23:21Z</time>
      </trkpt>
      <trkpt lat="43.07109999999944" lon="-1.2686400000000002">
        <ele>1134.643</ele>
        <time>2022-08-24T09:23:22Z</time>
      </trkpt>
      <trkpt lat="43.07109599999944" lon="-1.2686570000000001">
        <ele>1135.077</ele>
        <time>2022-08-24T09:23:23Z</time>
      </trkpt>
      <trkpt lat="43.07109399999944" lon="-1.2686700000000002">
        <ele>1135.256</ele>
        <time>2022-08-24T09:23:24Z</time>
      </trkpt>
      <trkpt lat="43.07108899999944" lon="-1.2686840000000001">
        <ele>1135.299</ele>
        <time>2022-08-24T09:23:25Z</time>
      </trkpt>
      <trkpt lat="43.07108399999944" lon="-1.2687020000000002">
        <ele>1135.407</ele>
        <time>2022-08-24T09:23:26Z</time>
      </trkpt>
      <trkpt lat="43.07107799999944" lon="-1.2687210000000002">
        <ele>1136.027</ele>
        <time>2022-08-24T09:23:27Z</time>
      </trkpt>
      <trkpt lat="43.07107099999944" lon="-1.2687380000000001">
        <ele>1136.209</ele>
        <time>2022-08-24T09:23:28Z</time>
      </trkpt>
      <trkpt lat="43.07106299999944" lon="-1.26876">
        <ele>1136.450</ele>
        <time>2022-08-24T09:23:29Z</time>
      </trkpt>
      <trkpt lat="43.07105799999944" lon="-1.2687810000000002">
        <ele>1136.660</ele>
        <time>2022-08-24T09:23:30Z</time>
      </trkpt>
      <trkpt lat="43.07105099999944" lon="-1.268801">
        <ele>1136.640</ele>
        <time>2022-08-24T09:23:31Z</time>
      </trkpt>
      <trkpt lat="43.071043999999446" lon="-1.26882">
        <ele>1137.026</ele>
        <time>2022-08-24T09:23:32Z</time>
      </trkpt>
      <trkpt lat="43.07103499999945" lon="-1.268841">
        <ele>1137.268</ele>
        <time>2022-08-24T09:23:33Z</time>
      </trkpt>
      <trkpt lat="43.07102799999945" lon="-1.26886">
        <ele>1137.435</ele>
        <time>2022-08-24T09:23:34Z</time>
      </trkpt>
      <trkpt lat="43.071020999999455" lon="-1.268877">
        <ele>1137.418</ele>
        <time>2022-08-24T09:23:35Z</time>
      </trkpt>
      <trkpt lat="43.07101099999945" lon="-1.268894">
        <ele>1137.662</ele>
        <time>2022-08-24T09:23:36Z</time>
      </trkpt>
      <trkpt lat="43.07100199999945" lon="-1.268911">
        <ele>1137.681</ele>
        <time>2022-08-24T09:23:37Z</time>
      </trkpt>
      <trkpt lat="43.070994999999456" lon="-1.268929">
        <ele>1137.862</ele>
        <time>2022-08-24T09:23:38Z</time>
      </trkpt>
      <trkpt lat="43.07098499999945" lon="-1.268948">
        <ele>1137.883</ele>
        <time>2022-08-24T09:23:39Z</time>
      </trkpt>
      <trkpt lat="43.07097399999945" lon="-1.268965">
        <ele>1137.811</ele>
        <time>2022-08-24T09:23:40Z</time>
      </trkpt>
      <trkpt lat="43.07096399999945" lon="-1.268981">
        <ele>1138.009</ele>
        <time>2022-08-24T09:23:41Z</time>
      </trkpt>
      <trkpt lat="43.070953999999446" lon="-1.2689979999999998">
        <ele>1138.247</ele>
        <time>2022-08-24T09:23:42Z</time>
      </trkpt>
      <trkpt lat="43.070942999999446" lon="-1.2690139999999999">
        <ele>1138.227</ele>
        <time>2022-08-24T09:23:43Z</time>
      </trkpt>
      <trkpt lat="43.07092999999944" lon="-1.269029">
        <ele>1138.427</ele>
        <time>2022-08-24T09:23:44Z</time>
      </trkpt>
      <trkpt lat="43.07091699999944" lon="-1.269044">
        <ele>1138.413</ele>
        <time>2022-08-24T09:23:45Z</time>
      </trkpt>
      <trkpt lat="43.07090299999944" lon="-1.269057">
        <ele>1138.655</ele>
        <time>2022-08-24T09:23:46Z</time>
      </trkpt>
      <trkpt lat="43.07088799999944" lon="-1.269069">
        <ele>1138.662</ele>
        <time>2022-08-24T09:23:47Z</time>
      </trkpt>
      <trkpt lat="43.070872999999445" lon="-1.269082">
        <ele>1138.835</ele>
        <time>2022-08-24T09:23:48Z</time>
      </trkpt>
      <trkpt lat="43.07085699999944" lon="-1.269092">
        <ele>1138.869</ele>
        <time>2022-08-24T09:23:49Z</time>
      </trkpt>
      <trkpt lat="43.070841999999445" lon="-1.269101">
        <ele>1139.068</ele>
        <time>2022-08-24T09:23:50Z</time>
      </trkpt>
      <trkpt lat="43.070824999999445" lon="-1.26911">
        <ele>1139.066</ele>
        <time>2022-08-24T09:23:51Z</time>
      </trkpt>
      <trkpt lat="43.070810999999445" lon="-1.269121">
        <ele>1139.029</ele>
        <time>2022-08-24T09:23:52Z</time>
      </trkpt>
      <trkpt lat="43.07079899999945" lon="-1.269134">
        <ele>1139.221</ele>
        <time>2022-08-24T09:23:53Z</time>
      </trkpt>
      <trkpt lat="43.07078499999945" lon="-1.2691459999999999">
        <ele>1139.409</ele>
        <time>2022-08-24T09:23:54Z</time>
      </trkpt>
      <trkpt lat="43.070770999999446" lon="-1.2691499999999998">
        <ele>1139.487</ele>
        <time>2022-08-24T09:23:55Z</time>
      </trkpt>
      <trkpt lat="43.070754999999444" lon="-1.2691549999999998">
        <ele>1139.457</ele>
        <time>2022-08-24T09:23:56Z</time>
      </trkpt>
      <trkpt lat="43.07073899999944" lon="-1.269162">
        <ele>1139.687</ele>
        <time>2022-08-24T09:23:57Z</time>
      </trkpt>
      <trkpt lat="43.07072499999944" lon="-1.269172">
        <ele>1139.643</ele>
        <time>2022-08-24T09:23:58Z</time>
      </trkpt>
      <trkpt lat="43.070709999999444" lon="-1.269181">
        <ele>1139.665</ele>
        <time>2022-08-24T09:23:59Z</time>
      </trkpt>
      <trkpt lat="43.070694999999446" lon="-1.269188">
        <ele>1139.642</ele>
        <time>2022-08-24T09:24:00Z</time>
      </trkpt>
      <trkpt lat="43.070680999999446" lon="-1.269194">
        <ele>1139.625</ele>
        <time>2022-08-24T09:24:01Z</time>
      </trkpt>
      <trkpt lat="43.070666999999446" lon="-1.269201">
        <ele>1139.859</ele>
        <time>2022-08-24T09:24:02Z</time>
      </trkpt>
      <trkpt lat="43.070652999999446" lon="-1.269207">
        <ele>1140.058</ele>
        <time>2022-08-24T09:24:03Z</time>
      </trkpt>
      <trkpt lat="43.07063999999944" lon="-1.269213">
        <ele>1140.014</ele>
        <time>2022-08-24T09:24:04Z</time>
      </trkpt>
      <trkpt lat="43.07062899999944" lon="-1.2692219999999999">
        <ele>1140.254</ele>
        <time>2022-08-24T09:24:05Z</time>
      </trkpt>
      <trkpt lat="43.07062099999944" lon="-1.269232">
        <ele>1140.409</ele>
        <time>2022-08-24T09:24:06Z</time>
      </trkpt>
      <trkpt lat="43.070605999999444" lon="-1.2692379999999999">
        <ele>1140.409</ele>
        <time>2022-08-24T09:24:07Z</time>
      </trkpt>
      <trkpt lat="43.07058999999944" lon="-1.2692419999999998">
        <ele>1140.692</ele>
        <time>2022-08-24T09:24:08Z</time>
      </trkpt>
      <trkpt lat="43.070574999999444" lon="-1.2692489999999998">
        <ele>1140.872</ele>
        <time>2022-08-24T09:24:09Z</time>
      </trkpt>
      <trkpt lat="43.070559999999446" lon="-1.2692549999999998">
        <ele>1140.832</ele>
        <time>2022-08-24T09:24:10Z</time>
      </trkpt>
      <trkpt lat="43.07054499999945" lon="-1.2692569999999999">
        <ele>1141.028</ele>
        <time>2022-08-24T09:24:11Z</time>
      </trkpt>
      <trkpt lat="43.070528999999446" lon="-1.2692649999999999">
        <ele>1141.090</ele>
        <time>2022-08-24T09:24:12Z</time>
      </trkpt>
      <trkpt lat="43.070509999999445" lon="-1.2692729999999999">
        <ele>1141.267</ele>
        <time>2022-08-24T09:24:13Z</time>
      </trkpt>
      <trkpt lat="43.070486999999446" lon="-1.26928">
        <ele>1141.670</ele>
        <time>2022-08-24T09:24:14Z</time>
      </trkpt>
      <trkpt lat="43.07046399999945" lon="-1.269289">
        <ele>1141.884</ele>
        <time>2022-08-24T09:24:15Z</time>
      </trkpt>
      <trkpt lat="43.07044099999945" lon="-1.2692979999999998">
        <ele>1141.853</ele>
        <time>2022-08-24T09:24:16Z</time>
      </trkpt>
      <trkpt lat="43.07041999999945" lon="-1.2693039999999998">
        <ele>1142.074</ele>
        <time>2022-08-24T09:24:17Z</time>
      </trkpt>
      <trkpt lat="43.070398999999455" lon="-1.2693099999999997">
        <ele>1142.256</ele>
        <time>2022-08-24T09:24:18Z</time>
      </trkpt>
      <trkpt lat="43.070381999999455" lon="-1.2693159999999997">
        <ele>1142.421</ele>
        <time>2022-08-24T09:24:19Z</time>
      </trkpt>
      <trkpt lat="43.07036599999945" lon="-1.2693179999999997">
        <ele>1142.609</ele>
        <time>2022-08-24T09:24:20Z</time>
      </trkpt>
      <trkpt lat="43.07034899999945" lon="-1.2693179999999997">
        <ele>1143.228</ele>
        <time>2022-08-24T09:24:21Z</time>
      </trkpt>
      <trkpt lat="43.07033199999945" lon="-1.2693199999999998">
        <ele>1143.628</ele>
        <time>2022-08-24T09:24:22Z</time>
      </trkpt>
      <trkpt lat="43.070313999999456" lon="-1.2693239999999997">
        <ele>1143.878</ele>
        <time>2022-08-24T09:24:23Z</time>
      </trkpt>
      <trkpt lat="43.070294999999454" lon="-1.2693259999999997">
        <ele>1144.244</ele>
        <time>2022-08-24T09:24:24Z</time>
      </trkpt>
      <trkpt lat="43.07027299999945" lon="-1.2693279999999998">
        <ele>1144.296</ele>
        <time>2022-08-24T09:24:25Z</time>
      </trkpt>
      <trkpt lat="43.070252999999454" lon="-1.2693309999999998">
        <ele>1144.453</ele>
        <time>2022-08-24T09:24:26Z</time>
      </trkpt>
      <trkpt lat="43.07023399999945" lon="-1.2693319999999997">
        <ele>1144.836</ele>
        <time>2022-08-24T09:24:27Z</time>
      </trkpt>
      <trkpt lat="43.07020999999945" lon="-1.2693349999999997">
        <ele>1144.840</ele>
        <time>2022-08-24T09:24:28Z</time>
      </trkpt>
      <trkpt lat="43.07018699999945" lon="-1.2693379999999996">
        <ele>1145.079</ele>
        <time>2022-08-24T09:24:29Z</time>
      </trkpt>
      <trkpt lat="43.07016599999945" lon="-1.2693409999999996">
        <ele>1145.258</ele>
        <time>2022-08-24T09:24:30Z</time>
      </trkpt>
      <trkpt lat="43.070150999999456" lon="-1.2693429999999997">
        <ele>1145.252</ele>
        <time>2022-08-24T09:24:31Z</time>
      </trkpt>
      <trkpt lat="43.07013799999945" lon="-1.2693459999999996">
        <ele>1145.417</ele>
        <time>2022-08-24T09:24:32Z</time>
      </trkpt>
      <trkpt lat="43.070125999999455" lon="-1.2693489999999996">
        <ele>1146.009</ele>
        <time>2022-08-24T09:24:33Z</time>
      </trkpt>
      <trkpt lat="43.070114999999454" lon="-1.2693509999999997">
        <ele>1146.416</ele>
        <time>2022-08-24T09:24:34Z</time>
      </trkpt>
      <trkpt lat="43.070102999999456" lon="-1.2693529999999997">
        <ele>1146.676</ele>
        <time>2022-08-24T09:24:35Z</time>
      </trkpt>
      <trkpt lat="43.07008799999946" lon="-1.2693569999999996">
        <ele>1146.666</ele>
        <time>2022-08-24T09:24:36Z</time>
      </trkpt>
      <trkpt lat="43.070074999999456" lon="-1.2693579999999995">
        <ele>1147.032</ele>
        <time>2022-08-24T09:24:37Z</time>
      </trkpt>
      <trkpt lat="43.07005999999946" lon="-1.2693609999999995">
        <ele>1147.474</ele>
        <time>2022-08-24T09:24:38Z</time>
      </trkpt>
      <trkpt lat="43.070046999999455" lon="-1.2693629999999996">
        <ele>1147.661</ele>
        <time>2022-08-24T09:24:39Z</time>
      </trkpt>
      <trkpt lat="43.070032999999455" lon="-1.2693629999999996">
        <ele>1147.884</ele>
        <time>2022-08-24T09:24:40Z</time>
      </trkpt>
      <trkpt lat="43.07001999999945" lon="-1.2693619999999997">
        <ele>1147.868</ele>
        <time>2022-08-24T09:24:41Z</time>
      </trkpt>
      <trkpt lat="43.07000699999945" lon="-1.2693629999999996">
        <ele>1147.847</ele>
        <time>2022-08-24T09:24:42Z</time>
      </trkpt>
      <trkpt lat="43.06999299999945" lon="-1.2693629999999996">
        <ele>1147.836</ele>
        <time>2022-08-24T09:24:43Z</time>
      </trkpt>
      <trkpt lat="43.06997999999945" lon="-1.2693619999999997">
        <ele>1148.017</ele>
        <time>2022-08-24T09:24:44Z</time>
      </trkpt>
      <trkpt lat="43.069966999999444" lon="-1.2693599999999996">
        <ele>1148.218</ele>
        <time>2022-08-24T09:24:45Z</time>
      </trkpt>
      <trkpt lat="43.06995099999944" lon="-1.2693589999999997">
        <ele>1148.209</ele>
        <time>2022-08-24T09:24:46Z</time>
      </trkpt>
      <trkpt lat="43.069935999999444" lon="-1.2693589999999997">
        <ele>1148.284</ele>
        <time>2022-08-24T09:24:47Z</time>
      </trkpt>
      <trkpt lat="43.069918999999445" lon="-1.2693559999999997">
        <ele>1148.474</ele>
        <time>2022-08-24T09:24:48Z</time>
      </trkpt>
      <trkpt lat="43.069904999999444" lon="-1.2693579999999998">
        <ele>1148.644</ele>
        <time>2022-08-24T09:24:49Z</time>
      </trkpt>
      <trkpt lat="43.069890999999444" lon="-1.2693619999999997">
        <ele>1148.860</ele>
        <time>2022-08-24T09:24:50Z</time>
      </trkpt>
      <trkpt lat="43.069876999999444" lon="-1.2693659999999996">
        <ele>1148.862</ele>
        <time>2022-08-24T09:24:51Z</time>
      </trkpt>
      <trkpt lat="43.069862999999444" lon="-1.2693679999999996">
        <ele>1149.069</ele>
        <time>2022-08-24T09:24:52Z</time>
      </trkpt>
      <trkpt lat="43.069847999999446" lon="-1.2693699999999997">
        <ele>1149.222</ele>
        <time>2022-08-24T09:24:53Z</time>
      </trkpt>
      <trkpt lat="43.069833999999446" lon="-1.2693689999999997">
        <ele>1149.226</ele>
        <time>2022-08-24T09:24:54Z</time>
      </trkpt>
      <trkpt lat="43.06981899999945" lon="-1.2693659999999998">
        <ele>1149.495</ele>
        <time>2022-08-24T09:24:55Z</time>
      </trkpt>
      <trkpt lat="43.06980399999945" lon="-1.2693619999999999">
        <ele>1149.422</ele>
        <time>2022-08-24T09:24:56Z</time>
      </trkpt>
      <trkpt lat="43.06978899999945" lon="-1.2693569999999998">
        <ele>1149.662</ele>
        <time>2022-08-24T09:24:57Z</time>
      </trkpt>
      <trkpt lat="43.06977599999945" lon="-1.269356">
        <ele>1149.808</ele>
        <time>2022-08-24T09:24:58Z</time>
      </trkpt>
      <trkpt lat="43.06976099999945" lon="-1.269356">
        <ele>1150.009</ele>
        <time>2022-08-24T09:24:59Z</time>
      </trkpt>
      <trkpt lat="43.069745999999455" lon="-1.269356">
        <ele>1150.243</ele>
        <time>2022-08-24T09:25:00Z</time>
      </trkpt>
      <trkpt lat="43.06972999999945" lon="-1.2693539999999999">
        <ele>1150.433</ele>
        <time>2022-08-24T09:25:01Z</time>
      </trkpt>
      <trkpt lat="43.06971299999945" lon="-1.269356">
        <ele>1150.673</ele>
        <time>2022-08-24T09:25:02Z</time>
      </trkpt>
      <trkpt lat="43.06969899999945" lon="-1.26935">
        <ele>1150.829</ele>
        <time>2022-08-24T09:25:03Z</time>
      </trkpt>
      <trkpt lat="43.06968599999945" lon="-1.269346">
        <ele>1151.031</ele>
        <time>2022-08-24T09:25:04Z</time>
      </trkpt>
      <trkpt lat="43.06967299999945" lon="-1.2693420000000002">
        <ele>1151.268</ele>
        <time>2022-08-24T09:25:05Z</time>
      </trkpt>
      <trkpt lat="43.06965799999945" lon="-1.2693390000000002">
        <ele>1151.261</ele>
        <time>2022-08-24T09:25:06Z</time>
      </trkpt>
      <trkpt lat="43.06964199999945" lon="-1.2693350000000003">
        <ele>1151.495</ele>
        <time>2022-08-24T09:25:07Z</time>
      </trkpt>
      <trkpt lat="43.06962699999945" lon="-1.2693330000000003">
        <ele>1151.664</ele>
        <time>2022-08-24T09:25:08Z</time>
      </trkpt>
      <trkpt lat="43.06961199999945" lon="-1.2693340000000002">
        <ele>1151.858</ele>
        <time>2022-08-24T09:25:09Z</time>
      </trkpt>
      <trkpt lat="43.069596999999455" lon="-1.2693310000000002">
        <ele>1151.852</ele>
        <time>2022-08-24T09:25:10Z</time>
      </trkpt>
      <trkpt lat="43.069582999999454" lon="-1.2693270000000003">
        <ele>1152.017</ele>
        <time>2022-08-24T09:25:11Z</time>
      </trkpt>
      <trkpt lat="43.06956799999946" lon="-1.2693230000000004">
        <ele>1152.209</ele>
        <time>2022-08-24T09:25:12Z</time>
      </trkpt>
      <trkpt lat="43.06955099999946" lon="-1.2693200000000004">
        <ele>1152.436</ele>
        <time>2022-08-24T09:25:13Z</time>
      </trkpt>
      <trkpt lat="43.06953399999946" lon="-1.2693180000000004">
        <ele>1152.686</ele>
        <time>2022-08-24T09:25:14Z</time>
      </trkpt>
      <trkpt lat="43.06951599999946" lon="-1.2693120000000004">
        <ele>1152.656</ele>
        <time>2022-08-24T09:25:15Z</time>
      </trkpt>
      <trkpt lat="43.06949599999946" lon="-1.2693070000000004">
        <ele>1152.832</ele>
        <time>2022-08-24T09:25:16Z</time>
      </trkpt>
      <trkpt lat="43.069477999999464" lon="-1.2692990000000004">
        <ele>1153.024</ele>
        <time>2022-08-24T09:25:17Z</time>
      </trkpt>
      <trkpt lat="43.069460999999464" lon="-1.2692910000000004">
        <ele>1153.421</ele>
        <time>2022-08-24T09:25:18Z</time>
      </trkpt>
      <trkpt lat="43.06944299999947" lon="-1.2692860000000004">
        <ele>1153.634</ele>
        <time>2022-08-24T09:25:19Z</time>
      </trkpt>
      <trkpt lat="43.06942299999947" lon="-1.2692840000000003">
        <ele>1153.688</ele>
        <time>2022-08-24T09:25:20Z</time>
      </trkpt>
      <trkpt lat="43.06940199999947" lon="-1.2692820000000002">
        <ele>1153.647</ele>
        <time>2022-08-24T09:25:21Z</time>
      </trkpt>
      <trkpt lat="43.069380999999474" lon="-1.2692790000000003">
        <ele>1153.683</ele>
        <time>2022-08-24T09:25:22Z</time>
      </trkpt>
      <trkpt lat="43.06936199999947" lon="-1.2692790000000003">
        <ele>1153.625</ele>
        <time>2022-08-24T09:25:23Z</time>
      </trkpt>
      <trkpt lat="43.06934299999947" lon="-1.2692770000000002">
        <ele>1153.617</ele>
        <time>2022-08-24T09:25:24Z</time>
      </trkpt>
      <trkpt lat="43.06932399999947" lon="-1.2692710000000003">
        <ele>1153.609</ele>
        <time>2022-08-24T09:25:25Z</time>
      </trkpt>
      <trkpt lat="43.06930499999947" lon="-1.2692660000000002">
        <ele>1153.839</ele>
        <time>2022-08-24T09:25:26Z</time>
      </trkpt>
      <trkpt lat="43.069285999999465" lon="-1.2692610000000002">
        <ele>1153.869</ele>
        <time>2022-08-24T09:25:27Z</time>
      </trkpt>
      <trkpt lat="43.069265999999466" lon="-1.2692550000000002">
        <ele>1154.039</ele>
        <time>2022-08-24T09:25:28Z</time>
      </trkpt>
      <trkpt lat="43.069246999999464" lon="-1.2692510000000004">
        <ele>1154.015</ele>
        <time>2022-08-24T09:25:29Z</time>
      </trkpt>
      <trkpt lat="43.069226999999465" lon="-1.2692480000000004">
        <ele>1154.257</ele>
        <time>2022-08-24T09:25:30Z</time>
      </trkpt>
      <trkpt lat="43.069206999999466" lon="-1.2692450000000004">
        <ele>1154.424</ele>
        <time>2022-08-24T09:25:31Z</time>
      </trkpt>
      <trkpt lat="43.06918599999947" lon="-1.2692410000000005">
        <ele>1154.867</ele>
        <time>2022-08-24T09:25:32Z</time>
      </trkpt>
      <trkpt lat="43.06916599999947" lon="-1.2692360000000005">
        <ele>1155.031</ele>
        <time>2022-08-24T09:25:33Z</time>
      </trkpt>
      <trkpt lat="43.06914499999947" lon="-1.2692300000000005">
        <ele>1155.040</ele>
        <time>2022-08-24T09:25:34Z</time>
      </trkpt>
      <trkpt lat="43.069123999999476" lon="-1.2692230000000004">
        <ele>1155.224</ele>
        <time>2022-08-24T09:25:35Z</time>
      </trkpt>
      <trkpt lat="43.06910299999948" lon="-1.2692170000000005">
        <ele>1155.404</ele>
        <time>2022-08-24T09:25:36Z</time>
      </trkpt>
      <trkpt lat="43.06908299999948" lon="-1.2692130000000006">
        <ele>1155.614</ele>
        <time>2022-08-24T09:25:37Z</time>
      </trkpt>
      <trkpt lat="43.069061999999484" lon="-1.2692110000000005">
        <ele>1155.809</ele>
        <time>2022-08-24T09:25:38Z</time>
      </trkpt>
      <trkpt lat="43.06903999999948" lon="-1.2692070000000006">
        <ele>1155.863</ele>
        <time>2022-08-24T09:25:39Z</time>
      </trkpt>
      <trkpt lat="43.069018999999486" lon="-1.2692040000000007">
        <ele>1156.033</ele>
        <time>2022-08-24T09:25:40Z</time>
      </trkpt>
      <trkpt lat="43.068998999999486" lon="-1.2692000000000008">
        <ele>1156.293</ele>
        <time>2022-08-24T09:25:41Z</time>
      </trkpt>
      <trkpt lat="43.068979999999485" lon="-1.2691990000000009">
        <ele>1156.279</ele>
        <time>2022-08-24T09:25:42Z</time>
      </trkpt>
      <trkpt lat="43.06896099999948" lon="-1.2691940000000008">
        <ele>1156.441</ele>
        <time>2022-08-24T09:25:43Z</time>
      </trkpt>
      <trkpt lat="43.068939999999486" lon="-1.2691890000000008">
        <ele>1156.438</ele>
        <time>2022-08-24T09:25:44Z</time>
      </trkpt>
      <trkpt lat="43.06891999999949" lon="-1.269185000000001">
        <ele>1156.681</ele>
        <time>2022-08-24T09:25:45Z</time>
      </trkpt>
      <trkpt lat="43.06889999999949" lon="-1.269181000000001">
        <ele>1156.825</ele>
        <time>2022-08-24T09:25:46Z</time>
      </trkpt>
      <trkpt lat="43.06887999999949" lon="-1.269178000000001">
        <ele>1157.014</ele>
        <time>2022-08-24T09:25:47Z</time>
      </trkpt>
      <trkpt lat="43.06885899999949" lon="-1.269178000000001">
        <ele>1157.074</ele>
        <time>2022-08-24T09:25:48Z</time>
      </trkpt>
      <trkpt lat="43.06883899999949" lon="-1.269172000000001">
        <ele>1157.456</ele>
        <time>2022-08-24T09:25:49Z</time>
      </trkpt>
      <trkpt lat="43.068815999999494" lon="-1.2691680000000012">
        <ele>1157.621</ele>
        <time>2022-08-24T09:25:50Z</time>
      </trkpt>
      <trkpt lat="43.068792999999495" lon="-1.2691660000000011">
        <ele>1157.809</ele>
        <time>2022-08-24T09:25:51Z</time>
      </trkpt>
      <trkpt lat="43.068770999999494" lon="-1.269161000000001">
        <ele>1158.088</ele>
        <time>2022-08-24T09:25:52Z</time>
      </trkpt>
      <trkpt lat="43.0687499999995" lon="-1.2691570000000012">
        <ele>1158.248</ele>
        <time>2022-08-24T09:25:53Z</time>
      </trkpt>
      <trkpt lat="43.0687289999995" lon="-1.2691510000000013">
        <ele>1158.228</ele>
        <time>2022-08-24T09:25:54Z</time>
      </trkpt>
      <trkpt lat="43.0687079999995" lon="-1.2691440000000012">
        <ele>1158.294</ele>
        <time>2022-08-24T09:25:55Z</time>
      </trkpt>
      <trkpt lat="43.06868699999951" lon="-1.2691380000000012">
        <ele>1158.236</ele>
        <time>2022-08-24T09:25:56Z</time>
      </trkpt>
      <trkpt lat="43.06866599999951" lon="-1.2691320000000013">
        <ele>1158.263</ele>
        <time>2022-08-24T09:25:57Z</time>
      </trkpt>
      <trkpt lat="43.06864699999951" lon="-1.2691270000000012">
        <ele>1158.236</ele>
        <time>2022-08-24T09:25:58Z</time>
      </trkpt>
      <trkpt lat="43.06862599999951" lon="-1.2691240000000013">
        <ele>1158.250</ele>
        <time>2022-08-24T09:25:59Z</time>
      </trkpt>
      <trkpt lat="43.068604999999515" lon="-1.2691190000000012">
        <ele>1158.229</ele>
        <time>2022-08-24T09:26:00Z</time>
      </trkpt>
      <trkpt lat="43.06858599999951" lon="-1.2691120000000011">
        <ele>1158.258</ele>
        <time>2022-08-24T09:26:01Z</time>
      </trkpt>
      <trkpt lat="43.068565999999514" lon="-1.2691060000000012">
        <ele>1158.052</ele>
        <time>2022-08-24T09:26:02Z</time>
      </trkpt>
      <trkpt lat="43.068545999999515" lon="-1.2691000000000012">
        <ele>1158.217</ele>
        <time>2022-08-24T09:26:03Z</time>
      </trkpt>
      <trkpt lat="43.068522999999516" lon="-1.2690930000000011">
        <ele>1158.209</ele>
        <time>2022-08-24T09:26:04Z</time>
      </trkpt>
      <trkpt lat="43.068494999999515" lon="-1.2690840000000012">
        <ele>1158.286</ele>
        <time>2022-08-24T09:26:05Z</time>
      </trkpt>
      <trkpt lat="43.068466999999515" lon="-1.2690790000000012">
        <ele>1158.286</ele>
        <time>2022-08-24T09:26:06Z</time>
      </trkpt>
      <trkpt lat="43.068438999999515" lon="-1.2690750000000013">
        <ele>1158.246</ele>
        <time>2022-08-24T09:26:07Z</time>
      </trkpt>
      <trkpt lat="43.06840999999952" lon="-1.2690690000000013">
        <ele>1158.472</ele>
        <time>2022-08-24T09:26:08Z</time>
      </trkpt>
      <trkpt lat="43.06835299999952" lon="-1.2690570000000014">
        <ele>1158.854</ele>
        <time>2022-08-24T09:26:10Z</time>
      </trkpt>
      <trkpt lat="43.06832499999952" lon="-1.2690470000000014">
        <ele>1159.031</ele>
        <time>2022-08-24T09:26:11Z</time>
      </trkpt>
      <trkpt lat="43.06829899999952" lon="-1.2690370000000013">
        <ele>1159.074</ele>
        <time>2022-08-24T09:26:12Z</time>
      </trkpt>
      <trkpt lat="43.06827499999952" lon="-1.2690270000000012">
        <ele>1159.268</ele>
        <time>2022-08-24T09:26:13Z</time>
      </trkpt>
      <trkpt lat="43.06825099999951" lon="-1.2690190000000012">
        <ele>1159.467</ele>
        <time>2022-08-24T09:26:14Z</time>
      </trkpt>
      <trkpt lat="43.06822699999951" lon="-1.2690080000000012">
        <ele>1159.863</ele>
        <time>2022-08-24T09:26:15Z</time>
      </trkpt>
      <trkpt lat="43.06820299999951" lon="-1.2689950000000012">
        <ele>1160.244</ele>
        <time>2022-08-24T09:26:16Z</time>
      </trkpt>
      <trkpt lat="43.06815499999951" lon="-1.2689710000000012">
        <ele>1160.818</ele>
        <time>2022-08-24T09:26:18Z</time>
      </trkpt>
      <trkpt lat="43.06813199999951" lon="-1.2689570000000012">
        <ele>1160.809</ele>
        <time>2022-08-24T09:26:19Z</time>
      </trkpt>
      <trkpt lat="43.06811099999951" lon="-1.2689420000000011">
        <ele>1161.047</ele>
        <time>2022-08-24T09:26:20Z</time>
      </trkpt>
      <trkpt lat="43.06809199999951" lon="-1.2689230000000011">
        <ele>1161.087</ele>
        <time>2022-08-24T09:26:21Z</time>
      </trkpt>
      <trkpt lat="43.06807299999951" lon="-1.268905000000001">
        <ele>1161.497</ele>
        <time>2022-08-24T09:26:22Z</time>
      </trkpt>
      <trkpt lat="43.068053999999506" lon="-1.2688880000000011">
        <ele>1161.433</ele>
        <time>2022-08-24T09:26:23Z</time>
      </trkpt>
      <trkpt lat="43.06803399999951" lon="-1.268872000000001">
        <ele>1161.845</ele>
        <time>2022-08-24T09:26:24Z</time>
      </trkpt>
      <trkpt lat="43.068014999999505" lon="-1.268856000000001">
        <ele>1162.252</ele>
        <time>2022-08-24T09:26:25Z</time>
      </trkpt>
      <trkpt lat="43.067997999999506" lon="-1.268840000000001">
        <ele>1162.495</ele>
        <time>2022-08-24T09:26:26Z</time>
      </trkpt>
      <trkpt lat="43.06798299999951" lon="-1.268824000000001">
        <ele>1162.869</ele>
        <time>2022-08-24T09:26:27Z</time>
      </trkpt>
      <trkpt lat="43.067966999999506" lon="-1.268808000000001">
        <ele>1163.258</ele>
        <time>2022-08-24T09:26:28Z</time>
      </trkpt>
      <trkpt lat="43.06795199999951" lon="-1.268793000000001">
        <ele>1163.459</ele>
        <time>2022-08-24T09:26:29Z</time>
      </trkpt>
      <trkpt lat="43.06793799999951" lon="-1.268773000000001">
        <ele>1163.603</ele>
        <time>2022-08-24T09:26:30Z</time>
      </trkpt>
      <trkpt lat="43.067924999999505" lon="-1.268751000000001">
        <ele>1164.023</ele>
        <time>2022-08-24T09:26:31Z</time>
      </trkpt>
      <trkpt lat="43.0679119999995" lon="-1.268730000000001">
        <ele>1164.209</ele>
        <time>2022-08-24T09:26:32Z</time>
      </trkpt>
      <trkpt lat="43.0678979999995" lon="-1.268706000000001">
        <ele>1164.476</ele>
        <time>2022-08-24T09:26:33Z</time>
      </trkpt>
      <trkpt lat="43.067882999999505" lon="-1.268679000000001">
        <ele>1164.636</ele>
        <time>2022-08-24T09:26:34Z</time>
      </trkpt>
      <trkpt lat="43.067868999999504" lon="-1.268652000000001">
        <ele>1164.856</ele>
        <time>2022-08-24T09:26:35Z</time>
      </trkpt>
      <trkpt lat="43.0678559999995" lon="-1.268625000000001">
        <ele>1165.232</ele>
        <time>2022-08-24T09:26:36Z</time>
      </trkpt>
      <trkpt lat="43.0678429999995" lon="-1.268598000000001">
        <ele>1165.454</ele>
        <time>2022-08-24T09:26:37Z</time>
      </trkpt>
      <trkpt lat="43.0678289999995" lon="-1.268570000000001">
        <ele>1165.891</ele>
        <time>2022-08-24T09:26:38Z</time>
      </trkpt>
      <trkpt lat="43.0678149999995" lon="-1.2685390000000012">
        <ele>1165.874</ele>
        <time>2022-08-24T09:26:39Z</time>
      </trkpt>
      <trkpt lat="43.067801999999496" lon="-1.2685070000000012">
        <ele>1165.828</ele>
        <time>2022-08-24T09:26:40Z</time>
      </trkpt>
      <trkpt lat="43.067785999999494" lon="-1.2684740000000012">
        <ele>1165.887</ele>
        <time>2022-08-24T09:26:41Z</time>
      </trkpt>
      <trkpt lat="43.06776999999949" lon="-1.2684410000000013">
        <ele>1165.868</ele>
        <time>2022-08-24T09:26:42Z</time>
      </trkpt>
      <trkpt lat="43.06775599999949" lon="-1.2684070000000012">
        <ele>1165.442</ele>
        <time>2022-08-24T09:26:43Z</time>
      </trkpt>
      <trkpt lat="43.06774299999949" lon="-1.268370000000001">
        <ele>1165.226</ele>
        <time>2022-08-24T09:26:44Z</time>
      </trkpt>
      <trkpt lat="43.067729999999486" lon="-1.2683310000000012">
        <ele>1165.009</ele>
        <time>2022-08-24T09:26:45Z</time>
      </trkpt>
      <trkpt lat="43.06771499999949" lon="-1.2682910000000012">
        <ele>1164.647</ele>
        <time>2022-08-24T09:26:46Z</time>
      </trkpt>
      <trkpt lat="43.06769999999949" lon="-1.268249000000001">
        <ele>1164.447</ele>
        <time>2022-08-24T09:26:47Z</time>
      </trkpt>
      <trkpt lat="43.06768099999949" lon="-1.268206000000001">
        <ele>1164.467</ele>
        <time>2022-08-24T09:26:48Z</time>
      </trkpt>
      <trkpt lat="43.06765799999949" lon="-1.268161000000001">
        <ele>1164.433</ele>
        <time>2022-08-24T09:26:49Z</time>
      </trkpt>
      <trkpt lat="43.06763299999949" lon="-1.268114000000001">
        <ele>1164.415</ele>
        <time>2022-08-24T09:26:50Z</time>
      </trkpt>
      <trkpt lat="43.06760299999949" lon="-1.268066000000001">
        <ele>1164.442</ele>
        <time>2022-08-24T09:26:51Z</time>
      </trkpt>
      <trkpt lat="43.06756899999949" lon="-1.268020000000001">
        <ele>1164.435</ele>
        <time>2022-08-24T09:26:52Z</time>
      </trkpt>
      <trkpt lat="43.067530999999484" lon="-1.267974000000001">
        <ele>1164.429</ele>
        <time>2022-08-24T09:26:53Z</time>
      </trkpt>
      <trkpt lat="43.06744699999948" lon="-1.267878000000001">
        <ele>1164.248</ele>
        <time>2022-08-24T09:26:55Z</time>
      </trkpt>
      <trkpt lat="43.06739899999948" lon="-1.267832000000001">
        <ele>1164.065</ele>
        <time>2022-08-24T09:26:56Z</time>
      </trkpt>
      <trkpt lat="43.067349999999486" lon="-1.267792000000001">
        <ele>1163.468</ele>
        <time>2022-08-24T09:26:57Z</time>
      </trkpt>
      <trkpt lat="43.06730099999949" lon="-1.2677580000000008">
        <ele>1162.414</ele>
        <time>2022-08-24T09:26:58Z</time>
      </trkpt>
      <trkpt lat="43.06719499999949" lon="-1.2677010000000009">
        <ele>1161.409</ele>
        <time>2022-08-24T09:27:00Z</time>
      </trkpt>
      <trkpt lat="43.06714399999949" lon="-1.2676740000000009">
        <ele>1160.847</ele>
        <time>2022-08-24T09:27:01Z</time>
      </trkpt>
      <trkpt lat="43.067093999999486" lon="-1.2676500000000008">
        <ele>1160.277</ele>
        <time>2022-08-24T09:27:02Z</time>
      </trkpt>
      <trkpt lat="43.067045999999486" lon="-1.2676310000000008">
        <ele>1159.427</ele>
        <time>2022-08-24T09:27:03Z</time>
      </trkpt>
      <trkpt lat="43.06700199999948" lon="-1.2676120000000008">
        <ele>1159.023</ele>
        <time>2022-08-24T09:27:04Z</time>
      </trkpt>
      <trkpt lat="43.06695999999948" lon="-1.2675960000000008">
        <ele>1158.275</ele>
        <time>2022-08-24T09:27:05Z</time>
      </trkpt>
      <trkpt lat="43.06692399999948" lon="-1.2675800000000008">
        <ele>1158.082</ele>
        <time>2022-08-24T09:27:06Z</time>
      </trkpt>
      <trkpt lat="43.06688999999948" lon="-1.2675650000000007">
        <ele>1157.635</ele>
        <time>2022-08-24T09:27:07Z</time>
      </trkpt>
      <trkpt lat="43.06685399999948" lon="-1.2675500000000006">
        <ele>1157.469</ele>
        <time>2022-08-24T09:27:08Z</time>
      </trkpt>
      <trkpt lat="43.06681999999948" lon="-1.2675400000000006">
        <ele>1157.228</ele>
        <time>2022-08-24T09:27:09Z</time>
      </trkpt>
      <trkpt lat="43.066784999999484" lon="-1.2675330000000005">
        <ele>1157.069</ele>
        <time>2022-08-24T09:27:10Z</time>
      </trkpt>
      <trkpt lat="43.06674899999948" lon="-1.2675270000000005">
        <ele>1156.804</ele>
        <time>2022-08-24T09:27:11Z</time>
      </trkpt>
      <trkpt lat="43.06671599999948" lon="-1.2675160000000005">
        <ele>1156.624</ele>
        <time>2022-08-24T09:27:12Z</time>
      </trkpt>
      <trkpt lat="43.06665099999948" lon="-1.2674930000000004">
        <ele>1156.409</ele>
        <time>2022-08-24T09:27:14Z</time>
      </trkpt>
      <trkpt lat="43.066618999999484" lon="-1.2674820000000004">
        <ele>1156.487</ele>
        <time>2022-08-24T09:27:15Z</time>
      </trkpt>
      <trkpt lat="43.066550999999485" lon="-1.2674540000000005">
        <ele>1156.247</ele>
        <time>2022-08-24T09:27:17Z</time>
      </trkpt>
      <trkpt lat="43.06651799999948" lon="-1.2674470000000004">
        <ele>1156.227</ele>
        <time>2022-08-24T09:27:18Z</time>
      </trkpt>
      <trkpt lat="43.066488999999486" lon="-1.2674410000000005">
        <ele>1156.453</ele>
        <time>2022-08-24T09:27:19Z</time>
      </trkpt>
      <trkpt lat="43.066460999999485" lon="-1.2674360000000005">
        <ele>1156.425</ele>
        <time>2022-08-24T09:27:20Z</time>
      </trkpt>
      <trkpt lat="43.066432999999485" lon="-1.2674330000000005">
        <ele>1156.642</ele>
        <time>2022-08-24T09:27:21Z</time>
      </trkpt>
      <trkpt lat="43.066404999999484" lon="-1.2674270000000005">
        <ele>1156.885</ele>
        <time>2022-08-24T09:27:22Z</time>
      </trkpt>
      <trkpt lat="43.06632099999948" lon="-1.2674030000000005">
        <ele>1156.879</ele>
        <time>2022-08-24T09:27:25Z</time>
      </trkpt>
      <trkpt lat="43.06629299999948" lon="-1.2673960000000004">
        <ele>1157.088</ele>
        <time>2022-08-24T09:27:26Z</time>
      </trkpt>
      <trkpt lat="43.06626599999948" lon="-1.2673940000000004">
        <ele>1157.056</ele>
        <time>2022-08-24T09:27:27Z</time>
      </trkpt>
      <trkpt lat="43.06624099999948" lon="-1.2673930000000004">
        <ele>1157.259</ele>
        <time>2022-08-24T09:27:28Z</time>
      </trkpt>
      <trkpt lat="43.06621499999948" lon="-1.2673860000000003">
        <ele>1157.414</ele>
        <time>2022-08-24T09:27:29Z</time>
      </trkpt>
      <trkpt lat="43.06618799999948" lon="-1.2673780000000003">
        <ele>1157.409</ele>
        <time>2022-08-24T09:27:30Z</time>
      </trkpt>
      <trkpt lat="43.06608299999948" lon="-1.2673460000000003">
        <ele>1157.426</ele>
        <time>2022-08-24T09:27:34Z</time>
      </trkpt>
      <trkpt lat="43.06585699999948" lon="-1.2672920000000003">
        <ele>1157.666</ele>
        <time>2022-08-24T09:27:42Z</time>
      </trkpt>
      <trkpt lat="43.06580199999948" lon="-1.2672780000000003">
        <ele>1157.676</ele>
        <time>2022-08-24T09:27:44Z</time>
      </trkpt>
      <trkpt lat="43.06556199999948" lon="-1.2671990000000004">
        <ele>1157.652</ele>
        <time>2022-08-24T09:27:52Z</time>
      </trkpt>
      <trkpt lat="43.06553099999948" lon="-1.2671890000000003">
        <ele>1157.644</ele>
        <time>2022-08-24T09:27:53Z</time>
      </trkpt>
      <trkpt lat="43.06550199999948" lon="-1.2671780000000004">
        <ele>1157.671</ele>
        <time>2022-08-24T09:27:54Z</time>
      </trkpt>
      <trkpt lat="43.06547199999948" lon="-1.2671670000000004">
        <ele>1157.664</ele>
        <time>2022-08-24T09:27:55Z</time>
      </trkpt>
      <trkpt lat="43.06538399999948" lon="-1.2671390000000005">
        <ele>1157.828</ele>
        <time>2022-08-24T09:27:58Z</time>
      </trkpt>
      <trkpt lat="43.06535699999948" lon="-1.2671310000000005">
        <ele>1157.837</ele>
        <time>2022-08-24T09:27:59Z</time>
      </trkpt>
      <trkpt lat="43.06533099999948" lon="-1.2671240000000004">
        <ele>1157.862</ele>
        <time>2022-08-24T09:28:00Z</time>
      </trkpt>
      <trkpt lat="43.06530599999948" lon="-1.2671140000000003">
        <ele>1157.883</ele>
        <time>2022-08-24T09:28:01Z</time>
      </trkpt>
      <trkpt lat="43.06527999999948" lon="-1.2671080000000003">
        <ele>1157.811</ele>
        <time>2022-08-24T09:28:02Z</time>
      </trkpt>
      <trkpt lat="43.06525499999948" lon="-1.2671030000000003">
        <ele>1157.809</ele>
        <time>2022-08-24T09:28:03Z</time>
      </trkpt>
      <trkpt lat="43.065205999999485" lon="-1.2670910000000004">
        <ele>1157.857</ele>
        <time>2022-08-24T09:28:05Z</time>
      </trkpt>
      <trkpt lat="43.065179999999486" lon="-1.2670840000000003">
        <ele>1158.057</ele>
        <time>2022-08-24T09:28:06Z</time>
      </trkpt>
      <trkpt lat="43.065076999999484" lon="-1.2670430000000004">
        <ele>1157.857</ele>
        <time>2022-08-24T09:28:10Z</time>
      </trkpt>
      <trkpt lat="43.06502499999949" lon="-1.2670230000000005">
        <ele>1157.873</ele>
        <time>2022-08-24T09:28:12Z</time>
      </trkpt>
      <trkpt lat="43.06500199999949" lon="-1.2670120000000005">
        <ele>1157.845</ele>
        <time>2022-08-24T09:28:13Z</time>
      </trkpt>
      <trkpt lat="43.06497899999949" lon="-1.2670030000000005">
        <ele>1157.862</ele>
        <time>2022-08-24T09:28:14Z</time>
      </trkpt>
      <trkpt lat="43.06495799999949" lon="-1.2669910000000006">
        <ele>1157.665</ele>
        <time>2022-08-24T09:28:15Z</time>
      </trkpt>
      <trkpt lat="43.06493899999949" lon="-1.2669780000000006">
        <ele>1157.699</ele>
        <time>2022-08-24T09:28:16Z</time>
      </trkpt>
      <trkpt lat="43.06491899999949" lon="-1.2669660000000007">
        <ele>1157.468</ele>
        <time>2022-08-24T09:28:17Z</time>
      </trkpt>
      <trkpt lat="43.06490299999949" lon="-1.2669590000000006">
        <ele>1157.433</ele>
        <time>2022-08-24T09:28:18Z</time>
      </trkpt>
      <trkpt lat="43.06488999999949" lon="-1.2669580000000007">
        <ele>1157.423</ele>
        <time>2022-08-24T09:28:19Z</time>
      </trkpt>
      <trkpt lat="43.06487599999949" lon="-1.2669570000000008">
        <ele>1157.215</ele>
        <time>2022-08-24T09:28:20Z</time>
      </trkpt>
      <trkpt lat="43.06486099999949" lon="-1.2669540000000008">
        <ele>1157.209</ele>
        <time>2022-08-24T09:28:21Z</time>
      </trkpt>
      <trkpt lat="43.06484399999949" lon="-1.2669480000000009">
        <ele>1157.254</ele>
        <time>2022-08-24T09:28:22Z</time>
      </trkpt>
      <trkpt lat="43.06481099999949" lon="-1.266936000000001">
        <ele>1157.024</ele>
        <time>2022-08-24T09:28:24Z</time>
      </trkpt>
      <trkpt lat="43.06474799999949" lon="-1.2669020000000009">
        <ele>1157.054</ele>
        <time>2022-08-24T09:28:28Z</time>
      </trkpt>
      <trkpt lat="43.06468999999949" lon="-1.266882000000001">
        <ele>1157.280</ele>
        <time>2022-08-24T09:28:31Z</time>
      </trkpt>
      <trkpt lat="43.06451699999949" lon="-1.266797000000001">
        <ele>1158.072</ele>
        <time>2022-08-24T09:28:39Z</time>
      </trkpt>
      <trkpt lat="43.064495999999494" lon="-1.266790000000001">
        <ele>1158.049</ele>
        <time>2022-08-24T09:28:40Z</time>
      </trkpt>
      <trkpt lat="43.06447699999949" lon="-1.266785000000001">
        <ele>1158.242</ele>
        <time>2022-08-24T09:28:41Z</time>
      </trkpt>
      <trkpt lat="43.06445799999949" lon="-1.266779000000001">
        <ele>1158.246</ele>
        <time>2022-08-24T09:28:42Z</time>
      </trkpt>
      <trkpt lat="43.064436999999494" lon="-1.266770000000001">
        <ele>1158.285</ele>
        <time>2022-08-24T09:28:43Z</time>
      </trkpt>
      <trkpt lat="43.06439899999949" lon="-1.2667530000000011">
        <ele>1158.492</ele>
        <time>2022-08-24T09:28:45Z</time>
      </trkpt>
      <trkpt lat="43.06438099999949" lon="-1.2667450000000011">
        <ele>1158.473</ele>
        <time>2022-08-24T09:28:46Z</time>
      </trkpt>
      <trkpt lat="43.06436499999949" lon="-1.2667370000000011">
        <ele>1158.420</ele>
        <time>2022-08-24T09:28:47Z</time>
      </trkpt>
      <trkpt lat="43.06434799999949" lon="-1.266727000000001">
        <ele>1158.609</ele>
        <time>2022-08-24T09:28:48Z</time>
      </trkpt>
      <trkpt lat="43.064329999999494" lon="-1.266720000000001">
        <ele>1158.610</ele>
        <time>2022-08-24T09:28:49Z</time>
      </trkpt>
      <trkpt lat="43.064312999999494" lon="-1.266711000000001">
        <ele>1158.610</ele>
        <time>2022-08-24T09:28:50Z</time>
      </trkpt>
      <trkpt lat="43.0642049999995" lon="-1.266669000000001">
        <ele>1158.820</ele>
        <time>2022-08-24T09:28:56Z</time>
      </trkpt>
      <trkpt lat="43.064188999999494" lon="-1.266661000000001">
        <ele>1158.846</ele>
        <time>2022-08-24T09:28:57Z</time>
      </trkpt>
      <trkpt lat="43.0641709999995" lon="-1.2666540000000008">
        <ele>1159.078</ele>
        <time>2022-08-24T09:28:58Z</time>
      </trkpt>
      <trkpt lat="43.0641529999995" lon="-1.2666460000000008">
        <ele>1159.015</ele>
        <time>2022-08-24T09:28:59Z</time>
      </trkpt>
      <trkpt lat="43.0641219999995" lon="-1.2666320000000009">
        <ele>1159.278</ele>
        <time>2022-08-24T09:29:01Z</time>
      </trkpt>
      <trkpt lat="43.0641059999995" lon="-1.266626000000001">
        <ele>1159.292</ele>
        <time>2022-08-24T09:29:02Z</time>
      </trkpt>
      <trkpt lat="43.0640909999995" lon="-1.266618000000001">
        <ele>1159.221</ele>
        <time>2022-08-24T09:29:03Z</time>
      </trkpt>
      <trkpt lat="43.0640159999995" lon="-1.2665940000000009">
        <ele>1159.457</ele>
        <time>2022-08-24T09:29:07Z</time>
      </trkpt>
      <trkpt lat="43.0638149999995" lon="-1.266531000000001">
        <ele>1159.400</ele>
        <time>2022-08-24T09:29:16Z</time>
      </trkpt>
      <trkpt lat="43.0637689999995" lon="-1.266515000000001">
        <ele>1159.620</ele>
        <time>2022-08-24T09:29:18Z</time>
      </trkpt>
      <trkpt lat="43.0637449999995" lon="-1.2665080000000009">
        <ele>1160.009</ele>
        <time>2022-08-24T09:29:19Z</time>
      </trkpt>
      <trkpt lat="43.0637249999995" lon="-1.2665010000000008">
        <ele>1160.286</ele>
        <time>2022-08-24T09:29:20Z</time>
      </trkpt>
      <trkpt lat="43.0637029999995" lon="-1.2664940000000007">
        <ele>1160.426</ele>
        <time>2022-08-24T09:29:21Z</time>
      </trkpt>
      <trkpt lat="43.0636769999995" lon="-1.2664900000000008">
        <ele>1160.446</ele>
        <time>2022-08-24T09:29:22Z</time>
      </trkpt>
      <trkpt lat="43.0635619999995" lon="-1.2664770000000007">
        <ele>1160.622</ele>
        <time>2022-08-24T09:29:26Z</time>
      </trkpt>
      <trkpt lat="43.0633479999995" lon="-1.2664700000000007">
        <ele>1160.434</ele>
        <time>2022-08-24T09:29:33Z</time>
      </trkpt>
      <trkpt lat="43.0632159999995" lon="-1.2664970000000007">
        <ele>1160.271</ele>
        <time>2022-08-24T09:29:37Z</time>
      </trkpt>
      <trkpt lat="43.0630459999995" lon="-1.2665490000000006">
        <ele>1159.844</ele>
        <time>2022-08-24T09:29:42Z</time>
      </trkpt>
      <trkpt lat="43.0629429999995" lon="-1.2665880000000005">
        <ele>1159.658</ele>
        <time>2022-08-24T09:29:45Z</time>
      </trkpt>
      <trkpt lat="43.0628339999995" lon="-1.2666300000000006">
        <ele>1159.287</ele>
        <time>2022-08-24T09:29:48Z</time>
      </trkpt>
      <trkpt lat="43.062727999999495" lon="-1.2666680000000006">
        <ele>1159.078</ele>
        <time>2022-08-24T09:29:51Z</time>
      </trkpt>
      <trkpt lat="43.06265899999949" lon="-1.2666880000000005">
        <ele>1158.833</ele>
        <time>2022-08-24T09:29:53Z</time>
      </trkpt>
      <trkpt lat="43.06262599999949" lon="-1.2667010000000005">
        <ele>1158.426</ele>
        <time>2022-08-24T09:29:54Z</time>
      </trkpt>
      <trkpt lat="43.06259199999949" lon="-1.2667110000000006">
        <ele>1158.409</ele>
        <time>2022-08-24T09:29:55Z</time>
      </trkpt>
      <trkpt lat="43.06255999999949" lon="-1.2667230000000005">
        <ele>1158.438</ele>
        <time>2022-08-24T09:29:56Z</time>
      </trkpt>
      <trkpt lat="43.062525999999494" lon="-1.2667350000000004">
        <ele>1158.058</ele>
        <time>2022-08-24T09:29:57Z</time>
      </trkpt>
      <trkpt lat="43.06249299999949" lon="-1.2667450000000005">
        <ele>1158.018</ele>
        <time>2022-08-24T09:29:58Z</time>
      </trkpt>
      <trkpt lat="43.062460999999495" lon="-1.2667540000000004">
        <ele>1158.044</ele>
        <time>2022-08-24T09:29:59Z</time>
      </trkpt>
      <trkpt lat="43.0624259999995" lon="-1.2667630000000003">
        <ele>1157.876</ele>
        <time>2022-08-24T09:30:00Z</time>
      </trkpt>
      <trkpt lat="43.0623939999995" lon="-1.2667710000000003">
        <ele>1157.883</ele>
        <time>2022-08-24T09:30:01Z</time>
      </trkpt>
      <trkpt lat="43.0623639999995" lon="-1.2667800000000002">
        <ele>1157.466</ele>
        <time>2022-08-24T09:30:02Z</time>
      </trkpt>
      <trkpt lat="43.062333999999495" lon="-1.2667890000000002">
        <ele>1157.270</ele>
        <time>2022-08-24T09:30:03Z</time>
      </trkpt>
      <trkpt lat="43.06230399999949" lon="-1.2667960000000003">
        <ele>1157.289</ele>
        <time>2022-08-24T09:30:04Z</time>
      </trkpt>
      <trkpt lat="43.06227399999949" lon="-1.2668050000000002">
        <ele>1157.253</ele>
        <time>2022-08-24T09:30:05Z</time>
      </trkpt>
      <trkpt lat="43.06224499999949" lon="-1.266814">
        <ele>1157.204</ele>
        <time>2022-08-24T09:30:06Z</time>
      </trkpt>
      <trkpt lat="43.06221799999949" lon="-1.2668210000000002">
        <ele>1157.214</ele>
        <time>2022-08-24T09:30:07Z</time>
      </trkpt>
      <trkpt lat="43.06219199999949" lon="-1.2668270000000001">
        <ele>1157.209</ele>
        <time>2022-08-24T09:30:08Z</time>
      </trkpt>
      <trkpt lat="43.06216599999949" lon="-1.2668320000000002">
        <ele>1157.046</ele>
        <time>2022-08-24T09:30:09Z</time>
      </trkpt>
      <trkpt lat="43.06214199999949" lon="-1.2668390000000003">
        <ele>1157.046</ele>
        <time>2022-08-24T09:30:10Z</time>
      </trkpt>
      <trkpt lat="43.06211999999949" lon="-1.2668440000000003">
        <ele>1157.056</ele>
        <time>2022-08-24T09:30:11Z</time>
      </trkpt>
      <trkpt lat="43.06209899999949" lon="-1.2668490000000003">
        <ele>1157.042</ele>
        <time>2022-08-24T09:30:12Z</time>
      </trkpt>
      <trkpt lat="43.06207699999949" lon="-1.2668550000000003">
        <ele>1157.044</ele>
        <time>2022-08-24T09:30:13Z</time>
      </trkpt>
      <trkpt lat="43.06205499999949" lon="-1.2668600000000003">
        <ele>1157.231</ele>
        <time>2022-08-24T09:30:14Z</time>
      </trkpt>
      <trkpt lat="43.06203299999949" lon="-1.2668650000000004">
        <ele>1157.284</ele>
        <time>2022-08-24T09:30:15Z</time>
      </trkpt>
      <trkpt lat="43.06200999999949" lon="-1.2668710000000003">
        <ele>1157.248</ele>
        <time>2022-08-24T09:30:16Z</time>
      </trkpt>
      <trkpt lat="43.06198999999949" lon="-1.2668780000000004">
        <ele>1157.437</ele>
        <time>2022-08-24T09:30:17Z</time>
      </trkpt>
      <trkpt lat="43.06196999999949" lon="-1.2668860000000004">
        <ele>1157.623</ele>
        <time>2022-08-24T09:30:18Z</time>
      </trkpt>
      <trkpt lat="43.06195199999949" lon="-1.2668950000000003">
        <ele>1157.883</ele>
        <time>2022-08-24T09:30:19Z</time>
      </trkpt>
      <trkpt lat="43.06193299999949" lon="-1.2669020000000004">
        <ele>1158.211</ele>
        <time>2022-08-24T09:30:20Z</time>
      </trkpt>
      <trkpt lat="43.06191299999949" lon="-1.2669080000000004">
        <ele>1158.609</ele>
        <time>2022-08-24T09:30:21Z</time>
      </trkpt>
      <trkpt lat="43.06187699999949" lon="-1.2669270000000004">
        <ele>1159.013</ele>
        <time>2022-08-24T09:30:23Z</time>
      </trkpt>
      <trkpt lat="43.06185999999949" lon="-1.2669360000000003">
        <ele>1159.223</ele>
        <time>2022-08-24T09:30:24Z</time>
      </trkpt>
      <trkpt lat="43.061844999999494" lon="-1.2669450000000002">
        <ele>1159.273</ele>
        <time>2022-08-24T09:30:25Z</time>
      </trkpt>
      <trkpt lat="43.061827999999494" lon="-1.2669520000000003">
        <ele>1159.299</ele>
        <time>2022-08-24T09:30:26Z</time>
      </trkpt>
      <trkpt lat="43.06181199999949" lon="-1.2669610000000002">
        <ele>1159.441</ele>
        <time>2022-08-24T09:30:27Z</time>
      </trkpt>
      <trkpt lat="43.06179299999949" lon="-1.2669740000000003">
        <ele>1159.698</ele>
        <time>2022-08-24T09:30:28Z</time>
      </trkpt>
      <trkpt lat="43.06177699999949" lon="-1.2669860000000002">
        <ele>1159.631</ele>
        <time>2022-08-24T09:30:29Z</time>
      </trkpt>
      <trkpt lat="43.06175999999949" lon="-1.2670050000000002">
        <ele>1159.855</ele>
        <time>2022-08-24T09:30:30Z</time>
      </trkpt>
      <trkpt lat="43.06172799999949" lon="-1.2670400000000002">
        <ele>1160.044</ele>
        <time>2022-08-24T09:30:32Z</time>
      </trkpt>
      <trkpt lat="43.06171499999949" lon="-1.2670580000000002">
        <ele>1160.039</ele>
        <time>2022-08-24T09:30:33Z</time>
      </trkpt>
      <trkpt lat="43.06170599999949" lon="-1.2670790000000003">
        <ele>1160.001</ele>
        <time>2022-08-24T09:30:34Z</time>
      </trkpt>
      <trkpt lat="43.061695999999486" lon="-1.2671000000000003">
        <ele>1160.221</ele>
        <time>2022-08-24T09:30:35Z</time>
      </trkpt>
      <trkpt lat="43.06168399999949" lon="-1.2671210000000004">
        <ele>1160.209</ele>
        <time>2022-08-24T09:30:36Z</time>
      </trkpt>
      <trkpt lat="43.06167299999949" lon="-1.2671440000000005">
        <ele>1160.844</ele>
        <time>2022-08-24T09:30:37Z</time>
      </trkpt>
      <trkpt lat="43.061662999999484" lon="-1.2671650000000005">
        <ele>1161.074</ele>
        <time>2022-08-24T09:30:38Z</time>
      </trkpt>
      <trkpt lat="43.061653999999486" lon="-1.2671870000000005">
        <ele>1161.484</ele>
        <time>2022-08-24T09:30:39Z</time>
      </trkpt>
      <trkpt lat="43.06164699999949" lon="-1.2672080000000006">
        <ele>1161.680</ele>
        <time>2022-08-24T09:30:40Z</time>
      </trkpt>
      <trkpt lat="43.06163899999949" lon="-1.2672280000000005">
        <ele>1162.072</ele>
        <time>2022-08-24T09:30:41Z</time>
      </trkpt>
      <trkpt lat="43.06162999999949" lon="-1.2672490000000005">
        <ele>1162.019</ele>
        <time>2022-08-24T09:30:42Z</time>
      </trkpt>
      <trkpt lat="43.06162099999949" lon="-1.2672710000000005">
        <ele>1162.242</ele>
        <time>2022-08-24T09:30:43Z</time>
      </trkpt>
      <trkpt lat="43.061613999999494" lon="-1.2672950000000005">
        <ele>1162.276</ele>
        <time>2022-08-24T09:30:44Z</time>
      </trkpt>
      <trkpt lat="43.06160899999949" lon="-1.2673200000000004">
        <ele>1162.295</ele>
        <time>2022-08-24T09:30:45Z</time>
      </trkpt>
      <trkpt lat="43.06159899999949" lon="-1.2673440000000005">
        <ele>1162.413</ele>
        <time>2022-08-24T09:30:46Z</time>
      </trkpt>
      <trkpt lat="43.06158999999949" lon="-1.2673660000000004">
        <ele>1162.443</ele>
        <time>2022-08-24T09:30:47Z</time>
      </trkpt>
      <trkpt lat="43.06158199999949" lon="-1.2673890000000005">
        <ele>1162.607</ele>
        <time>2022-08-24T09:30:48Z</time>
      </trkpt>
      <trkpt lat="43.06157499999949" lon="-1.2674130000000006">
        <ele>1163.009</ele>
        <time>2022-08-24T09:30:49Z</time>
      </trkpt>
      <trkpt lat="43.0615679999995" lon="-1.2674360000000007">
        <ele>1163.052</ele>
        <time>2022-08-24T09:30:50Z</time>
      </trkpt>
      <trkpt lat="43.0615609999995" lon="-1.2674610000000006">
        <ele>1163.282</ele>
        <time>2022-08-24T09:30:51Z</time>
      </trkpt>
      <trkpt lat="43.0615559999995" lon="-1.2674850000000006">
        <ele>1163.222</ele>
        <time>2022-08-24T09:30:52Z</time>
      </trkpt>
      <trkpt lat="43.0615539999995" lon="-1.2675090000000007">
        <ele>1163.448</ele>
        <time>2022-08-24T09:30:53Z</time>
      </trkpt>
      <trkpt lat="43.0615529999995" lon="-1.2675310000000006">
        <ele>1163.430</ele>
        <time>2022-08-24T09:30:54Z</time>
      </trkpt>
      <trkpt lat="43.0615529999995" lon="-1.2675480000000006">
        <ele>1163.447</ele>
        <time>2022-08-24T09:30:55Z</time>
      </trkpt>
      <trkpt lat="43.0615489999995" lon="-1.2675640000000006">
        <ele>1163.660</ele>
        <time>2022-08-24T09:30:56Z</time>
      </trkpt>
      <trkpt lat="43.061541999999505" lon="-1.2675810000000005">
        <ele>1163.644</ele>
        <time>2022-08-24T09:30:57Z</time>
      </trkpt>
      <trkpt lat="43.06153499999951" lon="-1.2675990000000006">
        <ele>1163.683</ele>
        <time>2022-08-24T09:30:58Z</time>
      </trkpt>
      <trkpt lat="43.06152899999951" lon="-1.2676200000000006">
        <ele>1163.893</ele>
        <time>2022-08-24T09:30:59Z</time>
      </trkpt>
      <trkpt lat="43.06152599999951" lon="-1.2676410000000007">
        <ele>1164.065</ele>
        <time>2022-08-24T09:31:00Z</time>
      </trkpt>
      <trkpt lat="43.06152599999951" lon="-1.2676630000000007">
        <ele>1164.021</ele>
        <time>2022-08-24T09:31:01Z</time>
      </trkpt>
      <trkpt lat="43.06152399999951" lon="-1.2676840000000007">
        <ele>1164.209</ele>
        <time>2022-08-24T09:31:02Z</time>
      </trkpt>
      <trkpt lat="43.06151999999951" lon="-1.2677060000000007">
        <ele>1164.230</ele>
        <time>2022-08-24T09:31:03Z</time>
      </trkpt>
      <trkpt lat="43.06151499999951" lon="-1.2677270000000007">
        <ele>1164.460</ele>
        <time>2022-08-24T09:31:04Z</time>
      </trkpt>
      <trkpt lat="43.06151299999951" lon="-1.2677450000000008">
        <ele>1164.470</ele>
        <time>2022-08-24T09:31:05Z</time>
      </trkpt>
      <trkpt lat="43.06150999999951" lon="-1.2677620000000007">
        <ele>1164.676</ele>
        <time>2022-08-24T09:31:06Z</time>
      </trkpt>
      <trkpt lat="43.06150499999951" lon="-1.2677800000000008">
        <ele>1164.868</ele>
        <time>2022-08-24T09:31:07Z</time>
      </trkpt>
      <trkpt lat="43.061499999999505" lon="-1.2677980000000009">
        <ele>1164.835</ele>
        <time>2022-08-24T09:31:08Z</time>
      </trkpt>
      <trkpt lat="43.06149599999951" lon="-1.2678180000000008">
        <ele>1165.018</ele>
        <time>2022-08-24T09:31:09Z</time>
      </trkpt>
      <trkpt lat="43.06149199999951" lon="-1.2678370000000008">
        <ele>1165.072</ele>
        <time>2022-08-24T09:31:10Z</time>
      </trkpt>
      <trkpt lat="43.06148999999951" lon="-1.2678550000000008">
        <ele>1165.251</ele>
        <time>2022-08-24T09:31:11Z</time>
      </trkpt>
      <trkpt lat="43.06148899999951" lon="-1.2678670000000007">
        <ele>1165.248</ele>
        <time>2022-08-24T09:31:12Z</time>
      </trkpt>
      <trkpt lat="43.06148399999951" lon="-1.2678790000000006">
        <ele>1165.461</ele>
        <time>2022-08-24T09:31:13Z</time>
      </trkpt>
      <trkpt lat="43.06147699999951" lon="-1.2678940000000007">
        <ele>1165.617</ele>
        <time>2022-08-24T09:31:14Z</time>
      </trkpt>
      <trkpt lat="43.061470999999514" lon="-1.2679120000000008">
        <ele>1165.609</ele>
        <time>2022-08-24T09:31:15Z</time>
      </trkpt>
      <trkpt lat="43.06146599999951" lon="-1.2679320000000007">
        <ele>1165.635</ele>
        <time>2022-08-24T09:31:16Z</time>
      </trkpt>
      <trkpt lat="43.061464999999515" lon="-1.2679520000000006">
        <ele>1165.895</ele>
        <time>2022-08-24T09:31:17Z</time>
      </trkpt>
      <trkpt lat="43.061461999999516" lon="-1.2679700000000007">
        <ele>1166.045</ele>
        <time>2022-08-24T09:31:18Z</time>
      </trkpt>
      <trkpt lat="43.06145499999952" lon="-1.2679840000000007">
        <ele>1166.651</ele>
        <time>2022-08-24T09:31:19Z</time>
      </trkpt>
      <trkpt lat="43.06144799999952" lon="-1.2679970000000007">
        <ele>1167.043</ele>
        <time>2022-08-24T09:31:20Z</time>
      </trkpt>
      <trkpt lat="43.06143999999952" lon="-1.2680100000000007">
        <ele>1167.040</ele>
        <time>2022-08-24T09:31:21Z</time>
      </trkpt>
      <trkpt lat="43.06142999999952" lon="-1.2680200000000008">
        <ele>1167.483</ele>
        <time>2022-08-24T09:31:22Z</time>
      </trkpt>
      <trkpt lat="43.061419999999515" lon="-1.2680290000000007">
        <ele>1167.497</ele>
        <time>2022-08-24T09:31:23Z</time>
      </trkpt>
      <trkpt lat="43.061408999999514" lon="-1.2680350000000007">
        <ele>1167.886</ele>
        <time>2022-08-24T09:31:24Z</time>
      </trkpt>
      <trkpt lat="43.061397999999514" lon="-1.2680390000000006">
        <ele>1167.865</ele>
        <time>2022-08-24T09:31:25Z</time>
      </trkpt>
      <trkpt lat="43.06138699999951" lon="-1.2680410000000006">
        <ele>1168.068</ele>
        <time>2022-08-24T09:31:26Z</time>
      </trkpt>
      <trkpt lat="43.06138199999951" lon="-1.2680410000000006">
        <ele>1168.214</ele>
        <time>2022-08-24T09:31:27Z</time>
      </trkpt>
      <trkpt lat="43.06138199999951" lon="-1.2680410000000006">
        <ele>1167.209</ele>
        <time>2022-08-24T09:32:31Z</time>
      </trkpt>
      <trkpt lat="43.061380999999514" lon="-1.2680420000000006">
        <ele>1167.267</ele>
        <time>2022-08-24T09:32:32Z</time>
      </trkpt>
      <trkpt lat="43.061352999999514" lon="-1.2680520000000006">
        <ele>1167.287</ele>
        <time>2022-08-24T09:32:55Z</time>
      </trkpt>
      <trkpt lat="43.06135399999951" lon="-1.2680520000000006">
        <ele>1167.267</ele>
        <time>2022-08-24T09:32:57Z</time>
      </trkpt>
      <trkpt lat="43.06135499999951" lon="-1.2680620000000007">
        <ele>1167.233</ele>
        <time>2022-08-24T09:32:58Z</time>
      </trkpt>
      <trkpt lat="43.061355999999506" lon="-1.2680700000000007">
        <ele>1167.275</ele>
        <time>2022-08-24T09:32:59Z</time>
      </trkpt>
      <trkpt lat="43.061356999999504" lon="-1.2680800000000008">
        <ele>1167.232</ele>
        <time>2022-08-24T09:33:00Z</time>
      </trkpt>
      <trkpt lat="43.0613549999995" lon="-1.2680890000000007">
        <ele>1167.265</ele>
        <time>2022-08-24T09:33:01Z</time>
      </trkpt>
      <trkpt lat="43.061353999999504" lon="-1.2680970000000007">
        <ele>1167.279</ele>
        <time>2022-08-24T09:33:02Z</time>
      </trkpt>
      <trkpt lat="43.0613519999995" lon="-1.2681070000000008">
        <ele>1167.448</ele>
        <time>2022-08-24T09:33:03Z</time>
      </trkpt>
      <trkpt lat="43.0613549999995" lon="-1.2681320000000007">
        <ele>1167.432</ele>
        <time>2022-08-24T09:33:05Z</time>
      </trkpt>
      <trkpt lat="43.061356999999504" lon="-1.2681410000000006">
        <ele>1167.492</ele>
        <time>2022-08-24T09:33:06Z</time>
      </trkpt>
      <trkpt lat="43.061358999999506" lon="-1.2682140000000006">
        <ele>1169.211</ele>
        <time>2022-08-24T09:43:04Z</time>
      </trkpt>
      <trkpt lat="43.061344999999505" lon="-1.2682300000000006">
        <ele>1169.409</ele>
        <time>2022-08-24T09:43:05Z</time>
      </trkpt>
      <trkpt lat="43.0613119999995" lon="-1.2682600000000006">
        <ele>1170.254</ele>
        <time>2022-08-24T09:43:07Z</time>
      </trkpt>
      <trkpt lat="43.061296999999506" lon="-1.2682730000000006">
        <ele>1171.074</ele>
        <time>2022-08-24T09:43:08Z</time>
      </trkpt>
      <trkpt lat="43.061285999999505" lon="-1.2682830000000007">
        <ele>1171.684</ele>
        <time>2022-08-24T09:43:09Z</time>
      </trkpt>
      <trkpt lat="43.061274999999505" lon="-1.2682950000000006">
        <ele>1171.820</ele>
        <time>2022-08-24T09:43:10Z</time>
      </trkpt>
      <trkpt lat="43.061263999999504" lon="-1.2683050000000007">
        <ele>1172.072</ele>
        <time>2022-08-24T09:43:11Z</time>
      </trkpt>
      <trkpt lat="43.0612509999995" lon="-1.2683140000000006">
        <ele>1172.499</ele>
        <time>2022-08-24T09:43:12Z</time>
      </trkpt>
      <trkpt lat="43.0612369999995" lon="-1.2683210000000007">
        <ele>1172.652</ele>
        <time>2022-08-24T09:43:13Z</time>
      </trkpt>
      <trkpt lat="43.0612199999995" lon="-1.2683270000000006">
        <ele>1172.836</ele>
        <time>2022-08-24T09:43:14Z</time>
      </trkpt>
      <trkpt lat="43.0612039999995" lon="-1.2683340000000007">
        <ele>1173.025</ele>
        <time>2022-08-24T09:43:15Z</time>
      </trkpt>
      <trkpt lat="43.0611889999995" lon="-1.2683410000000008">
        <ele>1173.484</ele>
        <time>2022-08-24T09:43:16Z</time>
      </trkpt>
      <trkpt lat="43.061173999999504" lon="-1.2683460000000009">
        <ele>1173.607</ele>
        <time>2022-08-24T09:43:17Z</time>
      </trkpt>
      <trkpt lat="43.061158999999506" lon="-1.268351000000001">
        <ele>1173.817</ele>
        <time>2022-08-24T09:43:18Z</time>
      </trkpt>
      <trkpt lat="43.06114399999951" lon="-1.2683540000000009">
        <ele>1173.809</ele>
        <time>2022-08-24T09:43:19Z</time>
      </trkpt>
      <trkpt lat="43.06112899999951" lon="-1.2683540000000009">
        <ele>1174.069</ele>
        <time>2022-08-24T09:43:20Z</time>
      </trkpt>
      <trkpt lat="43.06111399999951" lon="-1.268350000000001">
        <ele>1174.029</ele>
        <time>2022-08-24T09:43:21Z</time>
      </trkpt>
      <trkpt lat="43.06109699999951" lon="-1.268346000000001">
        <ele>1174.029</ele>
        <time>2022-08-24T09:43:22Z</time>
      </trkpt>
      <trkpt lat="43.061081999999516" lon="-1.268341000000001">
        <ele>1174.275</ele>
        <time>2022-08-24T09:43:23Z</time>
      </trkpt>
      <trkpt lat="43.06106699999952" lon="-1.268335000000001">
        <ele>1174.227</ele>
        <time>2022-08-24T09:43:24Z</time>
      </trkpt>
      <trkpt lat="43.06105199999952" lon="-1.2683320000000011">
        <ele>1174.284</ele>
        <time>2022-08-24T09:43:25Z</time>
      </trkpt>
      <trkpt lat="43.06103699999952" lon="-1.2683310000000012">
        <ele>1174.457</ele>
        <time>2022-08-24T09:43:26Z</time>
      </trkpt>
      <trkpt lat="43.06102299999952" lon="-1.2683310000000012">
        <ele>1174.471</ele>
        <time>2022-08-24T09:43:27Z</time>
      </trkpt>
      <trkpt lat="43.06100899999952" lon="-1.2683310000000012">
        <ele>1174.480</ele>
        <time>2022-08-24T09:43:28Z</time>
      </trkpt>
      <trkpt lat="43.06099299999952" lon="-1.2683300000000013">
        <ele>1174.416</ele>
        <time>2022-08-24T09:43:29Z</time>
      </trkpt>
      <trkpt lat="43.06097999999952" lon="-1.2683300000000013">
        <ele>1174.676</ele>
        <time>2022-08-24T09:43:30Z</time>
      </trkpt>
      <trkpt lat="43.06096599999952" lon="-1.2683310000000012">
        <ele>1174.613</ele>
        <time>2022-08-24T09:43:31Z</time>
      </trkpt>
      <trkpt lat="43.060952999999515" lon="-1.2683310000000012">
        <ele>1174.609</ele>
        <time>2022-08-24T09:43:32Z</time>
      </trkpt>
      <trkpt lat="43.06093999999951" lon="-1.2683260000000012">
        <ele>1174.662</ele>
        <time>2022-08-24T09:43:33Z</time>
      </trkpt>
      <trkpt lat="43.06092699999951" lon="-1.268319000000001">
        <ele>1174.642</ele>
        <time>2022-08-24T09:43:34Z</time>
      </trkpt>
      <trkpt lat="43.06091299999951" lon="-1.268316000000001">
        <ele>1174.642</ele>
        <time>2022-08-24T09:43:35Z</time>
      </trkpt>
      <trkpt lat="43.060899999999506" lon="-1.2683130000000011">
        <ele>1174.888</ele>
        <time>2022-08-24T09:43:36Z</time>
      </trkpt>
      <trkpt lat="43.060886999999504" lon="-1.2683100000000012">
        <ele>1174.840</ele>
        <time>2022-08-24T09:43:37Z</time>
      </trkpt>
      <trkpt lat="43.060874999999506" lon="-1.2683050000000011">
        <ele>1174.837</ele>
        <time>2022-08-24T09:43:38Z</time>
      </trkpt>
      <trkpt lat="43.06086299999951" lon="-1.2683050000000011">
        <ele>1175.040</ele>
        <time>2022-08-24T09:43:39Z</time>
      </trkpt>
      <trkpt lat="43.06085099999951" lon="-1.268303000000001">
        <ele>1175.254</ele>
        <time>2022-08-24T09:43:40Z</time>
      </trkpt>
      <trkpt lat="43.06083899999951" lon="-1.268301000000001">
        <ele>1175.293</ele>
        <time>2022-08-24T09:43:41Z</time>
      </trkpt>
      <trkpt lat="43.06082499999951" lon="-1.268298000000001">
        <ele>1175.227</ele>
        <time>2022-08-24T09:43:42Z</time>
      </trkpt>
      <trkpt lat="43.06081099999951" lon="-1.2682970000000011">
        <ele>1175.468</ele>
        <time>2022-08-24T09:43:43Z</time>
      </trkpt>
      <trkpt lat="43.06073199999951" lon="-1.268292000000001">
        <ele>1175.814</ele>
        <time>2022-08-24T09:43:48Z</time>
      </trkpt>
      <trkpt lat="43.060716999999514" lon="-1.268287000000001">
        <ele>1175.809</ele>
        <time>2022-08-24T09:43:49Z</time>
      </trkpt>
      <trkpt lat="43.060654999999514" lon="-1.268268000000001">
        <ele>1176.423</ele>
        <time>2022-08-24T09:43:53Z</time>
      </trkpt>
      <trkpt lat="43.060606999999514" lon="-1.268266000000001">
        <ele>1176.843</ele>
        <time>2022-08-24T09:43:56Z</time>
      </trkpt>
      <trkpt lat="43.06059399999951" lon="-1.268265000000001">
        <ele>1177.073</ele>
        <time>2022-08-24T09:43:57Z</time>
      </trkpt>
      <trkpt lat="43.060578999999514" lon="-1.268265000000001">
        <ele>1177.099</ele>
        <time>2022-08-24T09:43:58Z</time>
      </trkpt>
      <trkpt lat="43.060566999999516" lon="-1.268262000000001">
        <ele>1177.221</ele>
        <time>2022-08-24T09:43:59Z</time>
      </trkpt>
      <trkpt lat="43.06055399999951" lon="-1.2682590000000011">
        <ele>1177.468</ele>
        <time>2022-08-24T09:44:00Z</time>
      </trkpt>
      <trkpt lat="43.060521999999516" lon="-1.268262000000001">
        <ele>1177.841</ele>
        <time>2022-08-24T09:44:02Z</time>
      </trkpt>
      <trkpt lat="43.060507999999516" lon="-1.268263000000001">
        <ele>1177.865</ele>
        <time>2022-08-24T09:44:03Z</time>
      </trkpt>
      <trkpt lat="43.06049599999952" lon="-1.2682590000000011">
        <ele>1178.074</ele>
        <time>2022-08-24T09:44:04Z</time>
      </trkpt>
      <trkpt lat="43.06048099999952" lon="-1.268254000000001">
        <ele>1178.259</ele>
        <time>2022-08-24T09:44:05Z</time>
      </trkpt>
      <trkpt lat="43.06046599999952" lon="-1.2682510000000011">
        <ele>1178.403</ele>
        <time>2022-08-24T09:44:06Z</time>
      </trkpt>
      <trkpt lat="43.06045199999952" lon="-1.2682470000000012">
        <ele>1178.823</ele>
        <time>2022-08-24T09:44:07Z</time>
      </trkpt>
      <trkpt lat="43.06043799999952" lon="-1.2682450000000012">
        <ele>1178.809</ele>
        <time>2022-08-24T09:44:08Z</time>
      </trkpt>
      <trkpt lat="43.06042499999952" lon="-1.2682430000000011">
        <ele>1179.236</ele>
        <time>2022-08-24T09:44:09Z</time>
      </trkpt>
      <trkpt lat="43.060411999999516" lon="-1.268246000000001">
        <ele>1179.226</ele>
        <time>2022-08-24T09:44:10Z</time>
      </trkpt>
      <trkpt lat="43.060397999999516" lon="-1.268247000000001">
        <ele>1179.456</ele>
        <time>2022-08-24T09:44:11Z</time>
      </trkpt>
      <trkpt lat="43.060383999999516" lon="-1.268246000000001">
        <ele>1179.652</ele>
        <time>2022-08-24T09:44:12Z</time>
      </trkpt>
      <trkpt lat="43.060372999999515" lon="-1.268238000000001">
        <ele>1179.894</ele>
        <time>2022-08-24T09:44:13Z</time>
      </trkpt>
      <trkpt lat="43.06036299999951" lon="-1.268227000000001">
        <ele>1179.841</ele>
        <time>2022-08-24T09:44:14Z</time>
      </trkpt>
      <trkpt lat="43.06034999999951" lon="-1.268220000000001">
        <ele>1179.854</ele>
        <time>2022-08-24T09:44:15Z</time>
      </trkpt>
      <trkpt lat="43.06033699999951" lon="-1.2682160000000011">
        <ele>1179.888</ele>
        <time>2022-08-24T09:44:16Z</time>
      </trkpt>
      <trkpt lat="43.06032299999951" lon="-1.268219000000001">
        <ele>1180.067</ele>
        <time>2022-08-24T09:44:17Z</time>
      </trkpt>
      <trkpt lat="43.060309999999504" lon="-1.268222000000001">
        <ele>1180.069</ele>
        <time>2022-08-24T09:44:18Z</time>
      </trkpt>
      <trkpt lat="43.060295999999504" lon="-1.268223000000001">
        <ele>1180.004</ele>
        <time>2022-08-24T09:44:19Z</time>
      </trkpt>
      <trkpt lat="43.0602829999995" lon="-1.268219000000001">
        <ele>1180.024</ele>
        <time>2022-08-24T09:44:20Z</time>
      </trkpt>
      <trkpt lat="43.0602699999995" lon="-1.2682100000000012">
        <ele>1180.009</ele>
        <time>2022-08-24T09:44:21Z</time>
      </trkpt>
      <trkpt lat="43.0602549999995" lon="-1.2682050000000011">
        <ele>1180.287</ele>
        <time>2022-08-24T09:44:22Z</time>
      </trkpt>
      <trkpt lat="43.0602389999995" lon="-1.268203000000001">
        <ele>1180.247</ele>
        <time>2022-08-24T09:44:23Z</time>
      </trkpt>
      <trkpt lat="43.0602249999995" lon="-1.268201000000001">
        <ele>1180.427</ele>
        <time>2022-08-24T09:44:24Z</time>
      </trkpt>
      <trkpt lat="43.0602109999995" lon="-1.268198000000001">
        <ele>1180.473</ele>
        <time>2022-08-24T09:44:25Z</time>
      </trkpt>
      <trkpt lat="43.0601969999995" lon="-1.268192000000001">
        <ele>1180.645</ele>
        <time>2022-08-24T09:44:26Z</time>
      </trkpt>
      <trkpt lat="43.0601849999995" lon="-1.2681890000000011">
        <ele>1180.872</ele>
        <time>2022-08-24T09:44:27Z</time>
      </trkpt>
      <trkpt lat="43.0601669999995" lon="-1.2681890000000011">
        <ele>1181.065</ele>
        <time>2022-08-24T09:44:28Z</time>
      </trkpt>
      <trkpt lat="43.0601559999995" lon="-1.2681880000000012">
        <ele>1181.089</ele>
        <time>2022-08-24T09:44:29Z</time>
      </trkpt>
      <trkpt lat="43.060143999999504" lon="-1.2681810000000011">
        <ele>1181.268</ele>
        <time>2022-08-24T09:44:30Z</time>
      </trkpt>
      <trkpt lat="43.0601309999995" lon="-1.2681770000000012">
        <ele>1181.432</ele>
        <time>2022-08-24T09:44:31Z</time>
      </trkpt>
      <trkpt lat="43.0601169999995" lon="-1.2681750000000012">
        <ele>1181.492</ele>
        <time>2022-08-24T09:44:32Z</time>
      </trkpt>
      <trkpt lat="43.0601049999995" lon="-1.2681720000000012">
        <ele>1181.411</ele>
        <time>2022-08-24T09:44:33Z</time>
      </trkpt>
      <trkpt lat="43.0600919999995" lon="-1.2681710000000013">
        <ele>1181.409</ele>
        <time>2022-08-24T09:44:34Z</time>
      </trkpt>
      <trkpt lat="43.0600789999995" lon="-1.2681690000000012">
        <ele>1182.084</ele>
        <time>2022-08-24T09:44:35Z</time>
      </trkpt>
      <trkpt lat="43.0600649999995" lon="-1.2681700000000011">
        <ele>1182.264</ele>
        <time>2022-08-24T09:44:36Z</time>
      </trkpt>
      <trkpt lat="43.0600529999995" lon="-1.2681660000000012">
        <ele>1182.284</ele>
        <time>2022-08-24T09:44:37Z</time>
      </trkpt>
      <trkpt lat="43.0600409999995" lon="-1.2681600000000013">
        <ele>1182.490</ele>
        <time>2022-08-24T09:44:38Z</time>
      </trkpt>
      <trkpt lat="43.0600279999995" lon="-1.2681570000000013">
        <ele>1182.642</ele>
        <time>2022-08-24T09:44:39Z</time>
      </trkpt>
      <trkpt lat="43.0600139999995" lon="-1.2681540000000013">
        <ele>1182.639</ele>
        <time>2022-08-24T09:44:40Z</time>
      </trkpt>
      <trkpt lat="43.0599989999995" lon="-1.2681490000000013">
        <ele>1182.822</ele>
        <time>2022-08-24T09:44:41Z</time>
      </trkpt>
      <trkpt lat="43.0599839999995" lon="-1.2681450000000014">
        <ele>1182.896</ele>
        <time>2022-08-24T09:44:42Z</time>
      </trkpt>
      <trkpt lat="43.0599679999995" lon="-1.2681440000000015">
        <ele>1183.255</ele>
        <time>2022-08-24T09:44:43Z</time>
      </trkpt>
      <trkpt lat="43.0599539999995" lon="-1.2681400000000016">
        <ele>1183.285</ele>
        <time>2022-08-24T09:44:44Z</time>
      </trkpt>
      <trkpt lat="43.0599399999995" lon="-1.2681360000000017">
        <ele>1183.489</ele>
        <time>2022-08-24T09:44:45Z</time>
      </trkpt>
      <trkpt lat="43.0599259999995" lon="-1.2681340000000016">
        <ele>1183.617</ele>
        <time>2022-08-24T09:44:46Z</time>
      </trkpt>
      <trkpt lat="43.0599129999995" lon="-1.2681310000000017">
        <ele>1183.809</ele>
        <time>2022-08-24T09:44:47Z</time>
      </trkpt>
      <trkpt lat="43.0598989999995" lon="-1.2681270000000018">
        <ele>1184.069</ele>
        <time>2022-08-24T09:44:48Z</time>
      </trkpt>
      <trkpt lat="43.0598849999995" lon="-1.2681240000000018">
        <ele>1184.089</ele>
        <time>2022-08-24T09:44:49Z</time>
      </trkpt>
      <trkpt lat="43.0598709999995" lon="-1.2681190000000018">
        <ele>1184.219</ele>
        <time>2022-08-24T09:44:50Z</time>
      </trkpt>
      <trkpt lat="43.059857999999494" lon="-1.2681150000000019">
        <ele>1184.265</ele>
        <time>2022-08-24T09:44:51Z</time>
      </trkpt>
      <trkpt lat="43.05984499999949" lon="-1.268114000000002">
        <ele>1184.477</ele>
        <time>2022-08-24T09:44:52Z</time>
      </trkpt>
      <trkpt lat="43.05983099999949" lon="-1.268112000000002">
        <ele>1184.414</ele>
        <time>2022-08-24T09:44:53Z</time>
      </trkpt>
      <trkpt lat="43.05981799999949" lon="-1.2681050000000018">
        <ele>1184.897</ele>
        <time>2022-08-24T09:44:54Z</time>
      </trkpt>
      <trkpt lat="43.059804999999486" lon="-1.2680980000000017">
        <ele>1184.891</ele>
        <time>2022-08-24T09:44:55Z</time>
      </trkpt>
      <trkpt lat="43.05979499999948" lon="-1.2680880000000017">
        <ele>1185.060</ele>
        <time>2022-08-24T09:44:56Z</time>
      </trkpt>
      <trkpt lat="43.05978199999948" lon="-1.2680800000000017">
        <ele>1185.227</ele>
        <time>2022-08-24T09:44:57Z</time>
      </trkpt>
      <trkpt lat="43.05976799999948" lon="-1.2680740000000017">
        <ele>1185.268</ele>
        <time>2022-08-24T09:44:58Z</time>
      </trkpt>
      <trkpt lat="43.05975399999948" lon="-1.2680690000000017">
        <ele>1185.414</ele>
        <time>2022-08-24T09:44:59Z</time>
      </trkpt>
      <trkpt lat="43.05974099999948" lon="-1.2680610000000017">
        <ele>1185.409</ele>
        <time>2022-08-24T09:45:00Z</time>
      </trkpt>
      <trkpt lat="43.059727999999474" lon="-1.2680510000000016">
        <ele>1185.473</ele>
        <time>2022-08-24T09:45:01Z</time>
      </trkpt>
      <trkpt lat="43.05971499999947" lon="-1.2680410000000015">
        <ele>1185.613</ele>
        <time>2022-08-24T09:45:02Z</time>
      </trkpt>
      <trkpt lat="43.05970199999947" lon="-1.2680310000000015">
        <ele>1185.613</ele>
        <time>2022-08-24T09:45:03Z</time>
      </trkpt>
      <trkpt lat="43.05968799999947" lon="-1.2680210000000014">
        <ele>1185.819</ele>
        <time>2022-08-24T09:45:04Z</time>
      </trkpt>
      <trkpt lat="43.059674999999466" lon="-1.2680140000000013">
        <ele>1185.811</ele>
        <time>2022-08-24T09:45:05Z</time>
      </trkpt>
      <trkpt lat="43.059663999999465" lon="-1.2680030000000013">
        <ele>1186.278</ele>
        <time>2022-08-24T09:45:06Z</time>
      </trkpt>
      <trkpt lat="43.05965199999947" lon="-1.2679930000000013">
        <ele>1186.451</ele>
        <time>2022-08-24T09:45:07Z</time>
      </trkpt>
      <trkpt lat="43.05963999999947" lon="-1.2679850000000012">
        <ele>1186.475</ele>
        <time>2022-08-24T09:45:08Z</time>
      </trkpt>
      <trkpt lat="43.059626999999466" lon="-1.2679760000000013">
        <ele>1186.664</ele>
        <time>2022-08-24T09:45:09Z</time>
      </trkpt>
      <trkpt lat="43.059615999999465" lon="-1.2679650000000013">
        <ele>1186.411</ele>
        <time>2022-08-24T09:45:10Z</time>
      </trkpt>
      <trkpt lat="43.05960399999947" lon="-1.2679540000000014">
        <ele>1186.621</ele>
        <time>2022-08-24T09:45:11Z</time>
      </trkpt>
      <trkpt lat="43.059590999999465" lon="-1.2679420000000015">
        <ele>1186.603</ele>
        <time>2022-08-24T09:45:12Z</time>
      </trkpt>
      <trkpt lat="43.05958099999946" lon="-1.2679320000000014">
        <ele>1186.809</ele>
        <time>2022-08-24T09:45:13Z</time>
      </trkpt>
      <trkpt lat="43.05957099999946" lon="-1.2679230000000015">
        <ele>1187.072</ele>
        <time>2022-08-24T09:45:14Z</time>
      </trkpt>
      <trkpt lat="43.059560999999455" lon="-1.2679130000000014">
        <ele>1187.082</ele>
        <time>2022-08-24T09:45:15Z</time>
      </trkpt>
      <trkpt lat="43.059549999999454" lon="-1.2679040000000015">
        <ele>1187.222</ele>
        <time>2022-08-24T09:45:16Z</time>
      </trkpt>
      <trkpt lat="43.05953999999945" lon="-1.2678950000000015">
        <ele>1187.428</ele>
        <time>2022-08-24T09:45:17Z</time>
      </trkpt>
      <trkpt lat="43.05952799999945" lon="-1.2678870000000015">
        <ele>1187.470</ele>
        <time>2022-08-24T09:45:18Z</time>
      </trkpt>
      <trkpt lat="43.059515999999455" lon="-1.2678780000000016">
        <ele>1187.657</ele>
        <time>2022-08-24T09:45:19Z</time>
      </trkpt>
      <trkpt lat="43.059504999999454" lon="-1.2678650000000016">
        <ele>1187.860</ele>
        <time>2022-08-24T09:45:20Z</time>
      </trkpt>
      <trkpt lat="43.05949199999945" lon="-1.2678540000000016">
        <ele>1188.054</ele>
        <time>2022-08-24T09:45:21Z</time>
      </trkpt>
      <trkpt lat="43.05947999999945" lon="-1.2678460000000016">
        <ele>1188.073</ele>
        <time>2022-08-24T09:45:22Z</time>
      </trkpt>
      <trkpt lat="43.059467999999455" lon="-1.2678360000000015">
        <ele>1188.037</ele>
        <time>2022-08-24T09:45:23Z</time>
      </trkpt>
      <trkpt lat="43.05945599999946" lon="-1.2678230000000015">
        <ele>1188.249</ele>
        <time>2022-08-24T09:45:24Z</time>
      </trkpt>
      <trkpt lat="43.05944099999946" lon="-1.2678120000000015">
        <ele>1188.413</ele>
        <time>2022-08-24T09:45:25Z</time>
      </trkpt>
      <trkpt lat="43.05942599999946" lon="-1.2678020000000014">
        <ele>1188.609</ele>
        <time>2022-08-24T09:45:26Z</time>
      </trkpt>
      <trkpt lat="43.05941299999946" lon="-1.2677900000000015">
        <ele>1188.684</ele>
        <time>2022-08-24T09:45:27Z</time>
      </trkpt>
      <trkpt lat="43.05939899999946" lon="-1.2677780000000016">
        <ele>1188.864</ele>
        <time>2022-08-24T09:45:28Z</time>
      </trkpt>
      <trkpt lat="43.05938399999946" lon="-1.2677660000000017">
        <ele>1188.884</ele>
        <time>2022-08-24T09:45:29Z</time>
      </trkpt>
      <trkpt lat="43.05937199999946" lon="-1.2677550000000017">
        <ele>1188.850</ele>
        <time>2022-08-24T09:45:30Z</time>
      </trkpt>
      <trkpt lat="43.05935899999946" lon="-1.2677430000000018">
        <ele>1189.042</ele>
        <time>2022-08-24T09:45:31Z</time>
      </trkpt>
      <trkpt lat="43.05934499999946" lon="-1.2677320000000019">
        <ele>1189.039</ele>
        <time>2022-08-24T09:45:32Z</time>
      </trkpt>
      <trkpt lat="43.05933299999946" lon="-1.2677240000000018">
        <ele>1189.222</ele>
        <time>2022-08-24T09:45:33Z</time>
      </trkpt>
      <trkpt lat="43.05931999999946" lon="-1.267715000000002">
        <ele>1189.416</ele>
        <time>2022-08-24T09:45:34Z</time>
      </trkpt>
      <trkpt lat="43.05930599999946" lon="-1.267704000000002">
        <ele>1189.615</ele>
        <time>2022-08-24T09:45:35Z</time>
      </trkpt>
      <trkpt lat="43.05929399999946" lon="-1.267695000000002">
        <ele>1189.884</ele>
        <time>2022-08-24T09:45:36Z</time>
      </trkpt>
      <trkpt lat="43.05928299999946" lon="-1.267686000000002">
        <ele>1190.007</ele>
        <time>2022-08-24T09:45:37Z</time>
      </trkpt>
      <trkpt lat="43.05926999999946" lon="-1.267676000000002">
        <ele>1190.217</ele>
        <time>2022-08-24T09:45:38Z</time>
      </trkpt>
      <trkpt lat="43.05925499999946" lon="-1.267663000000002">
        <ele>1190.209</ele>
        <time>2022-08-24T09:45:39Z</time>
      </trkpt>
      <trkpt lat="43.05924499999946" lon="-1.267653000000002">
        <ele>1190.429</ele>
        <time>2022-08-24T09:45:40Z</time>
      </trkpt>
      <trkpt lat="43.059225999999455" lon="-1.267642000000002">
        <ele>1190.439</ele>
        <time>2022-08-24T09:45:41Z</time>
      </trkpt>
      <trkpt lat="43.059208999999456" lon="-1.267633000000002">
        <ele>1190.479</ele>
        <time>2022-08-24T09:45:42Z</time>
      </trkpt>
      <trkpt lat="43.059194999999455" lon="-1.267626000000002">
        <ele>1190.485</ele>
        <time>2022-08-24T09:45:43Z</time>
      </trkpt>
      <trkpt lat="43.05917699999946" lon="-1.267614000000002">
        <ele>1190.427</ele>
        <time>2022-08-24T09:45:44Z</time>
      </trkpt>
      <trkpt lat="43.059160999999456" lon="-1.2676020000000021">
        <ele>1190.414</ele>
        <time>2022-08-24T09:45:45Z</time>
      </trkpt>
      <trkpt lat="43.05914899999946" lon="-1.267594000000002">
        <ele>1190.477</ele>
        <time>2022-08-24T09:45:46Z</time>
      </trkpt>
      <trkpt lat="43.05913499999946" lon="-1.2675850000000022">
        <ele>1190.281</ele>
        <time>2022-08-24T09:45:47Z</time>
      </trkpt>
      <trkpt lat="43.059118999999455" lon="-1.2675760000000023">
        <ele>1190.240</ele>
        <time>2022-08-24T09:45:48Z</time>
      </trkpt>
      <trkpt lat="43.05910399999946" lon="-1.2675670000000023">
        <ele>1190.225</ele>
        <time>2022-08-24T09:45:49Z</time>
      </trkpt>
      <trkpt lat="43.059084999999456" lon="-1.2675560000000023">
        <ele>1190.226</ele>
        <time>2022-08-24T09:45:50Z</time>
      </trkpt>
      <trkpt lat="43.059068999999454" lon="-1.2675490000000023">
        <ele>1190.208</ele>
        <time>2022-08-24T09:45:51Z</time>
      </trkpt>
      <trkpt lat="43.05905599999945" lon="-1.2675450000000024">
        <ele>1190.009</ele>
        <time>2022-08-24T09:45:52Z</time>
      </trkpt>
      <trkpt lat="43.05903599999945" lon="-1.2675380000000023">
        <ele>1190.043</ele>
        <time>2022-08-24T09:45:53Z</time>
      </trkpt>
      <trkpt lat="43.05898799999945" lon="-1.2675280000000022">
        <ele>1190.043</ele>
        <time>2022-08-24T09:45:56Z</time>
      </trkpt>
      <trkpt lat="43.05897399999945" lon="-1.2675250000000022">
        <ele>1190.063</ele>
        <time>2022-08-24T09:45:57Z</time>
      </trkpt>
      <trkpt lat="43.05895999999945" lon="-1.2675230000000022">
        <ele>1190.069</ele>
        <time>2022-08-24T09:45:58Z</time>
      </trkpt>
      <trkpt lat="43.058941999999455" lon="-1.2675190000000023">
        <ele>1189.881</ele>
        <time>2022-08-24T09:45:59Z</time>
      </trkpt>
      <trkpt lat="43.05892599999945" lon="-1.2675160000000023">
        <ele>1189.848</ele>
        <time>2022-08-24T09:46:00Z</time>
      </trkpt>
      <trkpt lat="43.05891299999945" lon="-1.2675130000000023">
        <ele>1189.871</ele>
        <time>2022-08-24T09:46:01Z</time>
      </trkpt>
      <trkpt lat="43.05889499999945" lon="-1.2675080000000023">
        <ele>1189.665</ele>
        <time>2022-08-24T09:46:02Z</time>
      </trkpt>
      <trkpt lat="43.058873999999456" lon="-1.2674880000000024">
        <ele>1189.824</ele>
        <time>2022-08-24T09:46:04Z</time>
      </trkpt>
      <trkpt lat="43.05885899999946" lon="-1.2674760000000025">
        <ele>1189.818</ele>
        <time>2022-08-24T09:46:05Z</time>
      </trkpt>
      <trkpt lat="43.058842999999456" lon="-1.2674680000000025">
        <ele>1190.098</ele>
        <time>2022-08-24T09:46:06Z</time>
      </trkpt>
      <trkpt lat="43.05880899999946" lon="-1.2674560000000026">
        <ele>1190.017</ele>
        <time>2022-08-24T09:46:08Z</time>
      </trkpt>
      <trkpt lat="43.05875199999946" lon="-1.2674190000000025">
        <ele>1190.009</ele>
        <time>2022-08-24T09:46:12Z</time>
      </trkpt>
      <trkpt lat="43.05871499999946" lon="-1.2673940000000026">
        <ele>1190.452</ele>
        <time>2022-08-24T09:46:15Z</time>
      </trkpt>
      <trkpt lat="43.05870399999946" lon="-1.2673820000000027">
        <ele>1190.422</ele>
        <time>2022-08-24T09:46:16Z</time>
      </trkpt>
      <trkpt lat="43.058676999999456" lon="-1.2673600000000027">
        <ele>1190.622</ele>
        <time>2022-08-24T09:46:18Z</time>
      </trkpt>
      <trkpt lat="43.05866699999945" lon="-1.2673520000000027">
        <ele>1190.628</ele>
        <time>2022-08-24T09:46:19Z</time>
      </trkpt>
      <trkpt lat="43.05864999999945" lon="-1.2673430000000028">
        <ele>1190.660</ele>
        <time>2022-08-24T09:46:20Z</time>
      </trkpt>
      <trkpt lat="43.05862499999945" lon="-1.2673280000000027">
        <ele>1190.857</ele>
        <time>2022-08-24T09:46:22Z</time>
      </trkpt>
      <trkpt lat="43.05861499999945" lon="-1.2673170000000027">
        <ele>1190.810</ele>
        <time>2022-08-24T09:46:23Z</time>
      </trkpt>
      <trkpt lat="43.05860399999945" lon="-1.2673060000000027">
        <ele>1190.884</ele>
        <time>2022-08-24T09:46:24Z</time>
      </trkpt>
      <trkpt lat="43.058576999999445" lon="-1.2672840000000027">
        <ele>1191.063</ele>
        <time>2022-08-24T09:46:26Z</time>
      </trkpt>
      <trkpt lat="43.05856399999944" lon="-1.2672770000000027">
        <ele>1191.243</ele>
        <time>2022-08-24T09:46:27Z</time>
      </trkpt>
      <trkpt lat="43.05855399999944" lon="-1.2672720000000026">
        <ele>1191.264</ele>
        <time>2022-08-24T09:46:28Z</time>
      </trkpt>
      <trkpt lat="43.05850399999944" lon="-1.2672480000000026">
        <ele>1191.610</ele>
        <time>2022-08-24T09:46:32Z</time>
      </trkpt>
      <trkpt lat="43.05841299999944" lon="-1.2671890000000026">
        <ele>1192.609</ele>
        <time>2022-08-24T09:46:39Z</time>
      </trkpt>
      <trkpt lat="43.05839899999944" lon="-1.2671820000000025">
        <ele>1192.645</ele>
        <time>2022-08-24T09:46:40Z</time>
      </trkpt>
      <trkpt lat="43.05838799999944" lon="-1.2671780000000026">
        <ele>1192.865</ele>
        <time>2022-08-24T09:46:41Z</time>
      </trkpt>
      <trkpt lat="43.05837599999944" lon="-1.2671740000000027">
        <ele>1193.075</ele>
        <time>2022-08-24T09:46:42Z</time>
      </trkpt>
      <trkpt lat="43.05836499999944" lon="-1.2671710000000027">
        <ele>1193.261</ele>
        <time>2022-08-24T09:46:43Z</time>
      </trkpt>
      <trkpt lat="43.05835499999944" lon="-1.2671660000000027">
        <ele>1193.663</ele>
        <time>2022-08-24T09:46:44Z</time>
      </trkpt>
      <trkpt lat="43.058341999999435" lon="-1.2671630000000027">
        <ele>1193.810</ele>
        <time>2022-08-24T09:46:45Z</time>
      </trkpt>
      <trkpt lat="43.058333999999434" lon="-1.2671610000000026">
        <ele>1194.083</ele>
        <time>2022-08-24T09:46:46Z</time>
      </trkpt>
      <trkpt lat="43.058321999999436" lon="-1.2671570000000028">
        <ele>1194.237</ele>
        <time>2022-08-24T09:46:47Z</time>
      </trkpt>
      <trkpt lat="43.058307999999435" lon="-1.2671530000000029">
        <ele>1194.426</ele>
        <time>2022-08-24T09:46:48Z</time>
      </trkpt>
      <trkpt lat="43.05829599999944" lon="-1.2671480000000028">
        <ele>1194.677</ele>
        <time>2022-08-24T09:46:49Z</time>
      </trkpt>
      <trkpt lat="43.05828699999944" lon="-1.2671450000000029">
        <ele>1194.861</ele>
        <time>2022-08-24T09:46:50Z</time>
      </trkpt>
      <trkpt lat="43.05827499999944" lon="-1.2671420000000029">
        <ele>1195.027</ele>
        <time>2022-08-24T09:46:51Z</time>
      </trkpt>
      <trkpt lat="43.05826099999944" lon="-1.267138000000003">
        <ele>1195.009</ele>
        <time>2022-08-24T09:46:52Z</time>
      </trkpt>
      <trkpt lat="43.05824799999944" lon="-1.267135000000003">
        <ele>1195.248</ele>
        <time>2022-08-24T09:46:53Z</time>
      </trkpt>
      <trkpt lat="43.05823699999944" lon="-1.267128000000003">
        <ele>1195.248</ele>
        <time>2022-08-24T09:46:54Z</time>
      </trkpt>
      <trkpt lat="43.058228999999436" lon="-1.2671230000000029">
        <ele>1195.498</ele>
        <time>2022-08-24T09:46:55Z</time>
      </trkpt>
      <trkpt lat="43.058212999999434" lon="-1.2671160000000028">
        <ele>1195.474</ele>
        <time>2022-08-24T09:46:56Z</time>
      </trkpt>
      <trkpt lat="43.05820299999943" lon="-1.267112000000003">
        <ele>1195.456</ele>
        <time>2022-08-24T09:46:57Z</time>
      </trkpt>
      <trkpt lat="43.05818799999943" lon="-1.267106000000003">
        <ele>1195.423</ele>
        <time>2022-08-24T09:46:58Z</time>
      </trkpt>
      <trkpt lat="43.05817999999943" lon="-1.267103000000003">
        <ele>1195.436</ele>
        <time>2022-08-24T09:46:59Z</time>
      </trkpt>
      <trkpt lat="43.05816899999943" lon="-1.267097000000003">
        <ele>1195.690</ele>
        <time>2022-08-24T09:47:00Z</time>
      </trkpt>
      <trkpt lat="43.05815699999943" lon="-1.267090000000003">
        <ele>1195.639</ele>
        <time>2022-08-24T09:47:01Z</time>
      </trkpt>
      <trkpt lat="43.05814599999943" lon="-1.2670830000000028">
        <ele>1195.841</ele>
        <time>2022-08-24T09:47:02Z</time>
      </trkpt>
      <trkpt lat="43.058133999999434" lon="-1.2670760000000028">
        <ele>1195.881</ele>
        <time>2022-08-24T09:47:03Z</time>
      </trkpt>
      <trkpt lat="43.05812599999943" lon="-1.2670710000000027">
        <ele>1195.809</ele>
        <time>2022-08-24T09:47:04Z</time>
      </trkpt>
      <trkpt lat="43.05811499999943" lon="-1.2670650000000028">
        <ele>1196.009</ele>
        <time>2022-08-24T09:47:05Z</time>
      </trkpt>
      <trkpt lat="43.05810399999943" lon="-1.2670570000000028">
        <ele>1196.075</ele>
        <time>2022-08-24T09:47:06Z</time>
      </trkpt>
      <trkpt lat="43.05809399999943" lon="-1.2670520000000027">
        <ele>1196.235</ele>
        <time>2022-08-24T09:47:07Z</time>
      </trkpt>
      <trkpt lat="43.05808299999943" lon="-1.2670480000000028">
        <ele>1196.465</ele>
        <time>2022-08-24T09:47:08Z</time>
      </trkpt>
      <trkpt lat="43.05807399999943" lon="-1.2670460000000028">
        <ele>1196.481</ele>
        <time>2022-08-24T09:47:09Z</time>
      </trkpt>
      <trkpt lat="43.05805799999943" lon="-1.2670410000000027">
        <ele>1196.623</ele>
        <time>2022-08-24T09:47:10Z</time>
      </trkpt>
      <trkpt lat="43.058047999999424" lon="-1.2670390000000027">
        <ele>1196.860</ele>
        <time>2022-08-24T09:47:11Z</time>
      </trkpt>
      <trkpt lat="43.05803199999942" lon="-1.2670350000000028">
        <ele>1196.823</ele>
        <time>2022-08-24T09:47:12Z</time>
      </trkpt>
      <trkpt lat="43.05802199999942" lon="-1.267031000000003">
        <ele>1197.037</ele>
        <time>2022-08-24T09:47:13Z</time>
      </trkpt>
      <trkpt lat="43.058008999999416" lon="-1.2670260000000029">
        <ele>1197.096</ele>
        <time>2022-08-24T09:47:14Z</time>
      </trkpt>
      <trkpt lat="43.057991999999416" lon="-1.2670210000000028">
        <ele>1197.037</ele>
        <time>2022-08-24T09:47:15Z</time>
      </trkpt>
      <trkpt lat="43.05797999999942" lon="-1.2670190000000028">
        <ele>1197.249</ele>
        <time>2022-08-24T09:47:16Z</time>
      </trkpt>
      <trkpt lat="43.05796499999942" lon="-1.2670140000000027">
        <ele>1197.413</ele>
        <time>2022-08-24T09:47:17Z</time>
      </trkpt>
      <trkpt lat="43.05795099999942" lon="-1.2670080000000028">
        <ele>1197.409</ele>
        <time>2022-08-24T09:47:18Z</time>
      </trkpt>
      <trkpt lat="43.05793699999942" lon="-1.2670010000000027">
        <ele>1197.654</ele>
        <time>2022-08-24T09:47:19Z</time>
      </trkpt>
      <trkpt lat="43.05792199999942" lon="-1.2669940000000026">
        <ele>1197.864</ele>
        <time>2022-08-24T09:47:20Z</time>
      </trkpt>
      <trkpt lat="43.057909999999424" lon="-1.2669870000000025">
        <ele>1197.834</ele>
        <time>2022-08-24T09:47:21Z</time>
      </trkpt>
      <trkpt lat="43.05789899999942" lon="-1.2669800000000024">
        <ele>1197.840</ele>
        <time>2022-08-24T09:47:22Z</time>
      </trkpt>
      <trkpt lat="43.05788499999942" lon="-1.2669760000000025">
        <ele>1197.842</ele>
        <time>2022-08-24T09:47:23Z</time>
      </trkpt>
      <trkpt lat="43.05787199999942" lon="-1.2669710000000025">
        <ele>1198.079</ele>
        <time>2022-08-24T09:47:24Z</time>
      </trkpt>
      <trkpt lat="43.05785999999942" lon="-1.2669640000000024">
        <ele>1198.032</ele>
        <time>2022-08-24T09:47:25Z</time>
      </trkpt>
      <trkpt lat="43.05784399999942" lon="-1.2669540000000024">
        <ele>1198.086</ele>
        <time>2022-08-24T09:47:26Z</time>
      </trkpt>
      <trkpt lat="43.05783299999942" lon="-1.2669470000000023">
        <ele>1198.235</ele>
        <time>2022-08-24T09:47:27Z</time>
      </trkpt>
      <trkpt lat="43.05781799999942" lon="-1.2669410000000023">
        <ele>1198.247</ele>
        <time>2022-08-24T09:47:28Z</time>
      </trkpt>
      <trkpt lat="43.05780399999942" lon="-1.2669350000000024">
        <ele>1198.429</ele>
        <time>2022-08-24T09:47:29Z</time>
      </trkpt>
      <trkpt lat="43.05778999999942" lon="-1.2669290000000024">
        <ele>1198.421</ele>
        <time>2022-08-24T09:47:30Z</time>
      </trkpt>
      <trkpt lat="43.05775099999942" lon="-1.2669090000000025">
        <ele>1199.009</ele>
        <time>2022-08-24T09:47:33Z</time>
      </trkpt>
      <trkpt lat="43.05773799999942" lon="-1.2669020000000024">
        <ele>1199.465</ele>
        <time>2022-08-24T09:47:34Z</time>
      </trkpt>
      <trkpt lat="43.05772599999942" lon="-1.2668920000000023">
        <ele>1199.485</ele>
        <time>2022-08-24T09:47:35Z</time>
      </trkpt>
      <trkpt lat="43.05771399999942" lon="-1.2668800000000024">
        <ele>1199.645</ele>
        <time>2022-08-24T09:47:36Z</time>
      </trkpt>
      <trkpt lat="43.05770199999942" lon="-1.2668710000000025">
        <ele>1199.671</ele>
        <time>2022-08-24T09:47:37Z</time>
      </trkpt>
      <trkpt lat="43.057686999999426" lon="-1.2668630000000025">
        <ele>1199.633</ele>
        <time>2022-08-24T09:47:38Z</time>
      </trkpt>
      <trkpt lat="43.05767499999943" lon="-1.2668560000000024">
        <ele>1199.890</ele>
        <time>2022-08-24T09:47:39Z</time>
      </trkpt>
      <trkpt lat="43.057664999999425" lon="-1.2668510000000024">
        <ele>1199.833</ele>
        <time>2022-08-24T09:47:40Z</time>
      </trkpt>
      <trkpt lat="43.057652999999426" lon="-1.2668440000000023">
        <ele>1200.077</ele>
        <time>2022-08-24T09:47:41Z</time>
      </trkpt>
      <trkpt lat="43.05764099999943" lon="-1.2668390000000023">
        <ele>1200.246</ele>
        <time>2022-08-24T09:47:42Z</time>
      </trkpt>
      <trkpt lat="43.05762899999943" lon="-1.2668310000000023">
        <ele>1200.243</ele>
        <time>2022-08-24T09:47:43Z</time>
      </trkpt>
      <trkpt lat="43.05761599999943" lon="-1.2668250000000023">
        <ele>1200.464</ele>
        <time>2022-08-24T09:47:44Z</time>
      </trkpt>
      <trkpt lat="43.05760399999943" lon="-1.2668200000000023">
        <ele>1200.410</ele>
        <time>2022-08-24T09:47:45Z</time>
      </trkpt>
      <trkpt lat="43.05758999999943" lon="-1.2668180000000022">
        <ele>1200.609</ele>
        <time>2022-08-24T09:47:46Z</time>
      </trkpt>
      <trkpt lat="43.05757699999943" lon="-1.2668130000000022">
        <ele>1200.625</ele>
        <time>2022-08-24T09:47:47Z</time>
      </trkpt>
      <trkpt lat="43.05756699999942" lon="-1.266806000000002">
        <ele>1200.695</ele>
        <time>2022-08-24T09:47:48Z</time>
      </trkpt>
      <trkpt lat="43.05755599999942" lon="-1.266796000000002">
        <ele>1200.645</ele>
        <time>2022-08-24T09:47:49Z</time>
      </trkpt>
      <trkpt lat="43.05754499999942" lon="-1.266786000000002">
        <ele>1200.841</ele>
        <time>2022-08-24T09:47:50Z</time>
      </trkpt>
      <trkpt lat="43.05753399999942" lon="-1.266776000000002">
        <ele>1201.043</ele>
        <time>2022-08-24T09:47:51Z</time>
      </trkpt>
      <trkpt lat="43.05752299999942" lon="-1.266767000000002">
        <ele>1201.050</ele>
        <time>2022-08-24T09:47:52Z</time>
      </trkpt>
      <trkpt lat="43.05751199999942" lon="-1.266761000000002">
        <ele>1201.413</ele>
        <time>2022-08-24T09:47:53Z</time>
      </trkpt>
      <trkpt lat="43.05749799999942" lon="-1.266758000000002">
        <ele>1201.667</ele>
        <time>2022-08-24T09:47:54Z</time>
      </trkpt>
      <trkpt lat="43.05748899999942" lon="-1.2667570000000021">
        <ele>1201.856</ele>
        <time>2022-08-24T09:47:55Z</time>
      </trkpt>
      <trkpt lat="43.05747799999942" lon="-1.2667530000000022">
        <ele>1201.829</ele>
        <time>2022-08-24T09:47:56Z</time>
      </trkpt>
      <trkpt lat="43.05746699999942" lon="-1.2667470000000023">
        <ele>1202.000</ele>
        <time>2022-08-24T09:47:57Z</time>
      </trkpt>
      <trkpt lat="43.05745299999942" lon="-1.2667400000000022">
        <ele>1202.220</ele>
        <time>2022-08-24T09:47:58Z</time>
      </trkpt>
      <trkpt lat="43.05744299999942" lon="-1.2667320000000022">
        <ele>1202.209</ele>
        <time>2022-08-24T09:47:59Z</time>
      </trkpt>
      <trkpt lat="43.057434999999415" lon="-1.2667260000000022">
        <ele>1202.453</ele>
        <time>2022-08-24T09:48:00Z</time>
      </trkpt>
      <trkpt lat="43.05742599999942" lon="-1.2667200000000023">
        <ele>1202.483</ele>
        <time>2022-08-24T09:48:01Z</time>
      </trkpt>
      <trkpt lat="43.057414999999416" lon="-1.2667160000000024">
        <ele>1202.693</ele>
        <time>2022-08-24T09:48:02Z</time>
      </trkpt>
      <trkpt lat="43.05740499999941" lon="-1.2667110000000024">
        <ele>1202.659</ele>
        <time>2022-08-24T09:48:03Z</time>
      </trkpt>
      <trkpt lat="43.05739399999941" lon="-1.2667050000000024">
        <ele>1202.641</ele>
        <time>2022-08-24T09:48:04Z</time>
      </trkpt>
      <trkpt lat="43.05738399999941" lon="-1.2666980000000023">
        <ele>1202.868</ele>
        <time>2022-08-24T09:48:05Z</time>
      </trkpt>
      <trkpt lat="43.05737299999941" lon="-1.2666890000000024">
        <ele>1203.091</ele>
        <time>2022-08-24T09:48:06Z</time>
      </trkpt>
      <trkpt lat="43.05736199999941" lon="-1.2666810000000024">
        <ele>1203.055</ele>
        <time>2022-08-24T09:48:07Z</time>
      </trkpt>
      <trkpt lat="43.057351999999405" lon="-1.2666730000000024">
        <ele>1203.224</ele>
        <time>2022-08-24T09:48:08Z</time>
      </trkpt>
      <trkpt lat="43.0573419999994" lon="-1.2666650000000024">
        <ele>1203.227</ele>
        <time>2022-08-24T09:48:09Z</time>
      </trkpt>
      <trkpt lat="43.0573329999994" lon="-1.2666570000000024">
        <ele>1203.268</ele>
        <time>2022-08-24T09:48:10Z</time>
      </trkpt>
      <trkpt lat="43.057323999999404" lon="-1.2666490000000024">
        <ele>1203.414</ele>
        <time>2022-08-24T09:48:11Z</time>
      </trkpt>
      <trkpt lat="43.05731699999941" lon="-1.2666430000000024">
        <ele>1203.609</ele>
        <time>2022-08-24T09:48:12Z</time>
      </trkpt>
      <trkpt lat="43.05730599999941" lon="-1.2666350000000024">
        <ele>1203.623</ele>
        <time>2022-08-24T09:48:13Z</time>
      </trkpt>
      <trkpt lat="43.05729499999941" lon="-1.2666300000000024">
        <ele>1203.873</ele>
        <time>2022-08-24T09:48:14Z</time>
      </trkpt>
      <trkpt lat="43.05728799999941" lon="-1.2666240000000024">
        <ele>1204.083</ele>
        <time>2022-08-24T09:48:15Z</time>
      </trkpt>
      <trkpt lat="43.05728099999941" lon="-1.2666170000000023">
        <ele>1204.269</ele>
        <time>2022-08-24T09:48:16Z</time>
      </trkpt>
      <trkpt lat="43.05727099999941" lon="-1.2666060000000023">
        <ele>1204.461</ele>
        <time>2022-08-24T09:48:17Z</time>
      </trkpt>
      <trkpt lat="43.05726199999941" lon="-1.2665980000000023">
        <ele>1204.628</ele>
        <time>2022-08-24T09:48:18Z</time>
      </trkpt>
      <trkpt lat="43.057254999999415" lon="-1.2665900000000023">
        <ele>1204.851</ele>
        <time>2022-08-24T09:48:19Z</time>
      </trkpt>
      <trkpt lat="43.05724199999941" lon="-1.2665840000000024">
        <ele>1204.825</ele>
        <time>2022-08-24T09:48:20Z</time>
      </trkpt>
      <trkpt lat="43.05722799999941" lon="-1.2665770000000023">
        <ele>1205.284</ele>
        <time>2022-08-24T09:48:21Z</time>
      </trkpt>
      <trkpt lat="43.05721799999941" lon="-1.2665720000000023">
        <ele>1205.236</ele>
        <time>2022-08-24T09:48:22Z</time>
      </trkpt>
      <trkpt lat="43.05720599999941" lon="-1.2665670000000022">
        <ele>1205.617</ele>
        <time>2022-08-24T09:48:23Z</time>
      </trkpt>
      <trkpt lat="43.05719199999941" lon="-1.2665610000000023">
        <ele>1206.018</ele>
        <time>2022-08-24T09:48:24Z</time>
      </trkpt>
      <trkpt lat="43.05717799999941" lon="-1.2665520000000023">
        <ele>1206.209</ele>
        <time>2022-08-24T09:48:25Z</time>
      </trkpt>
      <trkpt lat="43.05716499999941" lon="-1.2665430000000024">
        <ele>1206.634</ele>
        <time>2022-08-24T09:48:26Z</time>
      </trkpt>
      <trkpt lat="43.057154999999405" lon="-1.2665380000000024">
        <ele>1206.664</ele>
        <time>2022-08-24T09:48:27Z</time>
      </trkpt>
      <trkpt lat="43.05714299999941" lon="-1.2665310000000023">
        <ele>1206.834</ele>
        <time>2022-08-24T09:48:28Z</time>
      </trkpt>
      <trkpt lat="43.05712899999941" lon="-1.2665250000000023">
        <ele>1206.820</ele>
        <time>2022-08-24T09:48:29Z</time>
      </trkpt>
      <trkpt lat="43.057120999999405" lon="-1.2665220000000024">
        <ele>1207.092</ele>
        <time>2022-08-24T09:48:30Z</time>
      </trkpt>
      <trkpt lat="43.05710899999941" lon="-1.2665130000000024">
        <ele>1207.079</ele>
        <time>2022-08-24T09:48:31Z</time>
      </trkpt>
      <trkpt lat="43.05709999999941" lon="-1.2665080000000024">
        <ele>1207.242</ele>
        <time>2022-08-24T09:48:32Z</time>
      </trkpt>
      <trkpt lat="43.05708899999941" lon="-1.2665020000000025">
        <ele>1207.416</ele>
        <time>2022-08-24T09:48:33Z</time>
      </trkpt>
      <trkpt lat="43.05707399999941" lon="-1.2664940000000025">
        <ele>1207.485</ele>
        <time>2022-08-24T09:48:34Z</time>
      </trkpt>
      <trkpt lat="43.05706399999941" lon="-1.2664900000000026">
        <ele>1207.474</ele>
        <time>2022-08-24T09:48:35Z</time>
      </trkpt>
      <trkpt lat="43.05705199999941" lon="-1.2664860000000027">
        <ele>1207.456</ele>
        <time>2022-08-24T09:48:36Z</time>
      </trkpt>
      <trkpt lat="43.05703999999941" lon="-1.2664830000000027">
        <ele>1207.621</ele>
        <time>2022-08-24T09:48:37Z</time>
      </trkpt>
      <trkpt lat="43.05702799999941" lon="-1.2664760000000026">
        <ele>1207.809</ele>
        <time>2022-08-24T09:48:38Z</time>
      </trkpt>
      <trkpt lat="43.057018999999414" lon="-1.2664720000000027">
        <ele>1208.018</ele>
        <time>2022-08-24T09:48:39Z</time>
      </trkpt>
      <trkpt lat="43.05700399999942" lon="-1.2664680000000028">
        <ele>1208.068</ele>
        <time>2022-08-24T09:48:40Z</time>
      </trkpt>
      <trkpt lat="43.05699399999941" lon="-1.266467000000003">
        <ele>1208.068</ele>
        <time>2022-08-24T09:48:41Z</time>
      </trkpt>
      <trkpt lat="43.056981999999415" lon="-1.2664680000000028">
        <ele>1208.034</ele>
        <time>2022-08-24T09:48:42Z</time>
      </trkpt>
      <trkpt lat="43.05696699999942" lon="-1.2664680000000028">
        <ele>1208.026</ele>
        <time>2022-08-24T09:48:43Z</time>
      </trkpt>
      <trkpt lat="43.05695599999942" lon="-1.266467000000003">
        <ele>1208.283</ele>
        <time>2022-08-24T09:48:44Z</time>
      </trkpt>
      <trkpt lat="43.056942999999414" lon="-1.266463000000003">
        <ele>1208.266</ele>
        <time>2022-08-24T09:48:45Z</time>
      </trkpt>
      <trkpt lat="43.05692999999941" lon="-1.266456000000003">
        <ele>1208.470</ele>
        <time>2022-08-24T09:48:46Z</time>
      </trkpt>
      <trkpt lat="43.05691799999941" lon="-1.266450000000003">
        <ele>1208.429</ele>
        <time>2022-08-24T09:48:47Z</time>
      </trkpt>
      <trkpt lat="43.056905999999415" lon="-1.266448000000003">
        <ele>1208.673</ele>
        <time>2022-08-24T09:48:48Z</time>
      </trkpt>
      <trkpt lat="43.05689299999941" lon="-1.266447000000003">
        <ele>1208.885</ele>
        <time>2022-08-24T09:48:49Z</time>
      </trkpt>
      <trkpt lat="43.05687999999941" lon="-1.266446000000003">
        <ele>1209.013</ele>
        <time>2022-08-24T09:48:50Z</time>
      </trkpt>
      <trkpt lat="43.05687099999941" lon="-1.266447000000003">
        <ele>1209.209</ele>
        <time>2022-08-24T09:48:51Z</time>
      </trkpt>
      <trkpt lat="43.05685899999941" lon="-1.266449000000003">
        <ele>1209.418</ele>
        <time>2022-08-24T09:48:52Z</time>
      </trkpt>
      <trkpt lat="43.056846999999415" lon="-1.2664480000000031">
        <ele>1209.498</ele>
        <time>2022-08-24T09:48:53Z</time>
      </trkpt>
      <trkpt lat="43.05683099999941" lon="-1.266443000000003">
        <ele>1210.088</ele>
        <time>2022-08-24T09:48:54Z</time>
      </trkpt>
      <trkpt lat="43.05681999999941" lon="-1.2664400000000031">
        <ele>1210.264</ele>
        <time>2022-08-24T09:48:55Z</time>
      </trkpt>
      <trkpt lat="43.05680699999941" lon="-1.2664370000000031">
        <ele>1210.486</ele>
        <time>2022-08-24T09:48:56Z</time>
      </trkpt>
      <trkpt lat="43.05679399999941" lon="-1.266432000000003">
        <ele>1210.433</ele>
        <time>2022-08-24T09:48:57Z</time>
      </trkpt>
      <trkpt lat="43.0567839999994" lon="-1.2664290000000031">
        <ele>1210.616</ele>
        <time>2022-08-24T09:48:58Z</time>
      </trkpt>
      <trkpt lat="43.0567709999994" lon="-1.2664230000000032">
        <ele>1210.630</ele>
        <time>2022-08-24T09:48:59Z</time>
      </trkpt>
      <trkpt lat="43.0567609999994" lon="-1.2664200000000032">
        <ele>1210.689</ele>
        <time>2022-08-24T09:49:00Z</time>
      </trkpt>
      <trkpt lat="43.0567499999994" lon="-1.2664160000000033">
        <ele>1210.812</ele>
        <time>2022-08-24T09:49:01Z</time>
      </trkpt>
      <trkpt lat="43.0567359999994" lon="-1.2664130000000033">
        <ele>1210.832</ele>
        <time>2022-08-24T09:49:02Z</time>
      </trkpt>
      <trkpt lat="43.0567239999994" lon="-1.2664110000000033">
        <ele>1211.005</ele>
        <time>2022-08-24T09:49:03Z</time>
      </trkpt>
      <trkpt lat="43.056713999999396" lon="-1.2664060000000033">
        <ele>1211.209</ele>
        <time>2022-08-24T09:49:04Z</time>
      </trkpt>
      <trkpt lat="43.056699999999395" lon="-1.2664010000000032">
        <ele>1211.472</ele>
        <time>2022-08-24T09:49:05Z</time>
      </trkpt>
      <trkpt lat="43.056685999999395" lon="-1.2663940000000031">
        <ele>1211.692</ele>
        <time>2022-08-24T09:49:06Z</time>
      </trkpt>
      <trkpt lat="43.05667299999939" lon="-1.266387000000003">
        <ele>1211.612</ele>
        <time>2022-08-24T09:49:07Z</time>
      </trkpt>
      <trkpt lat="43.056660999999394" lon="-1.266374000000003">
        <ele>1211.818</ele>
        <time>2022-08-24T09:49:08Z</time>
      </trkpt>
      <trkpt lat="43.05665099999939" lon="-1.266360000000003">
        <ele>1212.020</ele>
        <time>2022-08-24T09:49:09Z</time>
      </trkpt>
      <trkpt lat="43.056643999999395" lon="-1.266352000000003">
        <ele>1212.087</ele>
        <time>2022-08-24T09:49:10Z</time>
      </trkpt>
      <trkpt lat="43.056632999999394" lon="-1.266343000000003">
        <ele>1212.280</ele>
        <time>2022-08-24T09:49:11Z</time>
      </trkpt>
      <trkpt lat="43.056620999999396" lon="-1.2663370000000032">
        <ele>1212.224</ele>
        <time>2022-08-24T09:49:12Z</time>
      </trkpt>
      <trkpt lat="43.056612999999395" lon="-1.2663340000000032">
        <ele>1212.443</ele>
        <time>2022-08-24T09:49:13Z</time>
      </trkpt>
      <trkpt lat="43.056601999999394" lon="-1.266327000000003">
        <ele>1212.642</ele>
        <time>2022-08-24T09:49:14Z</time>
      </trkpt>
      <trkpt lat="43.05658899999939" lon="-1.266320000000003">
        <ele>1212.822</ele>
        <time>2022-08-24T09:49:15Z</time>
      </trkpt>
      <trkpt lat="43.05657599999939" lon="-1.266312000000003">
        <ele>1213.014</ele>
        <time>2022-08-24T09:49:16Z</time>
      </trkpt>
      <trkpt lat="43.05656499999939" lon="-1.266310000000003">
        <ele>1213.209</ele>
        <time>2022-08-24T09:49:17Z</time>
      </trkpt>
      <trkpt lat="43.05655299999939" lon="-1.266306000000003">
        <ele>1213.235</ele>
        <time>2022-08-24T09:49:18Z</time>
      </trkpt>
      <trkpt lat="43.05654499999939" lon="-1.266301000000003">
        <ele>1213.235</ele>
        <time>2022-08-24T09:49:19Z</time>
      </trkpt>
      <trkpt lat="43.05653099999939" lon="-1.266293000000003">
        <ele>1213.445</ele>
        <time>2022-08-24T09:49:20Z</time>
      </trkpt>
      <trkpt lat="43.056520999999385" lon="-1.266286000000003">
        <ele>1213.411</ele>
        <time>2022-08-24T09:49:21Z</time>
      </trkpt>
      <trkpt lat="43.056509999999385" lon="-1.2662810000000029">
        <ele>1213.693</ele>
        <time>2022-08-24T09:49:22Z</time>
      </trkpt>
      <trkpt lat="43.056501999999384" lon="-1.266278000000003">
        <ele>1213.870</ele>
        <time>2022-08-24T09:49:23Z</time>
      </trkpt>
      <trkpt lat="43.05649099999938" lon="-1.266272000000003">
        <ele>1214.053</ele>
        <time>2022-08-24T09:49:24Z</time>
      </trkpt>
      <trkpt lat="43.05647999999938" lon="-1.266264000000003">
        <ele>1214.467</ele>
        <time>2022-08-24T09:49:25Z</time>
      </trkpt>
      <trkpt lat="43.05646699999938" lon="-1.266259000000003">
        <ele>1214.696</ele>
        <time>2022-08-24T09:49:26Z</time>
      </trkpt>
      <trkpt lat="43.05645299999938" lon="-1.266258000000003">
        <ele>1214.677</ele>
        <time>2022-08-24T09:49:27Z</time>
      </trkpt>
      <trkpt lat="43.05644199999938" lon="-1.266256000000003">
        <ele>1214.861</ele>
        <time>2022-08-24T09:49:28Z</time>
      </trkpt>
      <trkpt lat="43.05643399999938" lon="-1.266248000000003">
        <ele>1214.827</ele>
        <time>2022-08-24T09:49:29Z</time>
      </trkpt>
      <trkpt lat="43.056423999999375" lon="-1.2662410000000028">
        <ele>1215.009</ele>
        <time>2022-08-24T09:49:30Z</time>
      </trkpt>
      <trkpt lat="43.056411999999376" lon="-1.2662390000000028">
        <ele>1215.038</ele>
        <time>2022-08-24T09:49:31Z</time>
      </trkpt>
      <trkpt lat="43.05640299999938" lon="-1.2662380000000029">
        <ele>1215.288</ele>
        <time>2022-08-24T09:49:32Z</time>
      </trkpt>
      <trkpt lat="43.05639499999938" lon="-1.2662390000000028">
        <ele>1215.218</ele>
        <time>2022-08-24T09:49:33Z</time>
      </trkpt>
      <trkpt lat="43.05637999999938" lon="-1.2662430000000027">
        <ele>1215.474</ele>
        <time>2022-08-24T09:49:34Z</time>
      </trkpt>
      <trkpt lat="43.05636899999938" lon="-1.2662450000000027">
        <ele>1215.486</ele>
        <time>2022-08-24T09:49:35Z</time>
      </trkpt>
      <trkpt lat="43.05635699999938" lon="-1.2662420000000028">
        <ele>1215.463</ele>
        <time>2022-08-24T09:49:36Z</time>
      </trkpt>
      <trkpt lat="43.05635099999938" lon="-1.2662350000000027">
        <ele>1215.616</ele>
        <time>2022-08-24T09:49:37Z</time>
      </trkpt>
      <trkpt lat="43.05634299999938" lon="-1.2662250000000026">
        <ele>1215.820</ele>
        <time>2022-08-24T09:49:38Z</time>
      </trkpt>
      <trkpt lat="43.05633099999938" lon="-1.2662190000000026">
        <ele>1216.049</ele>
        <time>2022-08-24T09:49:39Z</time>
      </trkpt>
      <trkpt lat="43.056318999999384" lon="-1.2662200000000026">
        <ele>1216.072</ele>
        <time>2022-08-24T09:49:40Z</time>
      </trkpt>
      <trkpt lat="43.05630899999938" lon="-1.2662280000000026">
        <ele>1216.213</ele>
        <time>2022-08-24T09:49:41Z</time>
      </trkpt>
      <trkpt lat="43.05629899999938" lon="-1.2662400000000025">
        <ele>1216.414</ele>
        <time>2022-08-24T09:49:42Z</time>
      </trkpt>
      <trkpt lat="43.05628699999938" lon="-1.2662430000000024">
        <ele>1216.609</ele>
        <time>2022-08-24T09:49:43Z</time>
      </trkpt>
      <trkpt lat="43.05627499999938" lon="-1.2662410000000024">
        <ele>1216.858</ele>
        <time>2022-08-24T09:49:44Z</time>
      </trkpt>
      <trkpt lat="43.056253999999385" lon="-1.2662350000000024">
        <ele>1216.868</ele>
        <time>2022-08-24T09:49:45Z</time>
      </trkpt>
      <trkpt lat="43.056239999999384" lon="-1.2662310000000025">
        <ele>1217.248</ele>
        <time>2022-08-24T09:49:46Z</time>
      </trkpt>
      <trkpt lat="43.05622199999939" lon="-1.2662270000000027">
        <ele>1217.634</ele>
        <time>2022-08-24T09:49:47Z</time>
      </trkpt>
      <trkpt lat="43.05620499999939" lon="-1.2662240000000027">
        <ele>1217.876</ele>
        <time>2022-08-24T09:49:48Z</time>
      </trkpt>
      <trkpt lat="43.056188999999385" lon="-1.2662200000000028">
        <ele>1218.243</ele>
        <time>2022-08-24T09:49:49Z</time>
      </trkpt>
      <trkpt lat="43.05617299999938" lon="-1.2662170000000028">
        <ele>1218.296</ele>
        <time>2022-08-24T09:49:50Z</time>
      </trkpt>
      <trkpt lat="43.056157999999385" lon="-1.2662150000000028">
        <ele>1218.630</ele>
        <time>2022-08-24T09:49:51Z</time>
      </trkpt>
      <trkpt lat="43.05614299999939" lon="-1.2662130000000027">
        <ele>1218.689</ele>
        <time>2022-08-24T09:49:52Z</time>
      </trkpt>
      <trkpt lat="43.05612899999939" lon="-1.2662120000000028">
        <ele>1219.086</ele>
        <time>2022-08-24T09:49:53Z</time>
      </trkpt>
      <trkpt lat="43.05611499999939" lon="-1.2662070000000027">
        <ele>1219.460</ele>
        <time>2022-08-24T09:49:54Z</time>
      </trkpt>
      <trkpt lat="43.056104999999384" lon="-1.2661990000000027">
        <ele>1219.626</ele>
        <time>2022-08-24T09:49:55Z</time>
      </trkpt>
      <trkpt lat="43.056095999999386" lon="-1.2661910000000027">
        <ele>1219.809</ele>
        <time>2022-08-24T09:49:56Z</time>
      </trkpt>
      <trkpt lat="43.05607999999938" lon="-1.2661810000000027">
        <ele>1220.069</ele>
        <time>2022-08-24T09:49:57Z</time>
      </trkpt>
      <trkpt lat="43.05606699999938" lon="-1.2661770000000028">
        <ele>1220.439</ele>
        <time>2022-08-24T09:49:58Z</time>
      </trkpt>
      <trkpt lat="43.05605199999938" lon="-1.2661760000000029">
        <ele>1220.299</ele>
        <time>2022-08-24T09:49:59Z</time>
      </trkpt>
      <trkpt lat="43.05604199999938" lon="-1.266175000000003">
        <ele>1220.675</ele>
        <time>2022-08-24T09:50:00Z</time>
      </trkpt>
      <trkpt lat="43.05602999999938" lon="-1.266172000000003">
        <ele>1220.857</ele>
        <time>2022-08-24T09:50:01Z</time>
      </trkpt>
      <trkpt lat="43.05601899999938" lon="-1.2661650000000029">
        <ele>1221.054</ele>
        <time>2022-08-24T09:50:02Z</time>
      </trkpt>
      <trkpt lat="43.05600699999938" lon="-1.2661570000000029">
        <ele>1221.227</ele>
        <time>2022-08-24T09:50:03Z</time>
      </trkpt>
      <trkpt lat="43.05599599999938" lon="-1.2661500000000028">
        <ele>1221.291</ele>
        <time>2022-08-24T09:50:04Z</time>
      </trkpt>
      <trkpt lat="43.055986999999384" lon="-1.2661460000000029">
        <ele>1221.660</ele>
        <time>2022-08-24T09:50:05Z</time>
      </trkpt>
      <trkpt lat="43.05596799999938" lon="-1.2661390000000028">
        <ele>1221.866</ele>
        <time>2022-08-24T09:50:06Z</time>
      </trkpt>
      <trkpt lat="43.05595499999938" lon="-1.2661330000000028">
        <ele>1222.029</ele>
        <time>2022-08-24T09:50:07Z</time>
      </trkpt>
      <trkpt lat="43.05594999999938" lon="-1.2661260000000027">
        <ele>1222.021</ele>
        <time>2022-08-24T09:50:08Z</time>
      </trkpt>
      <trkpt lat="43.05594699999938" lon="-1.2661210000000027">
        <ele>1222.409</ele>
        <time>2022-08-24T09:50:10Z</time>
      </trkpt>
      <trkpt lat="43.05594399999938" lon="-1.2661110000000027">
        <ele>1222.487</ele>
        <time>2022-08-24T09:50:11Z</time>
      </trkpt>
      <trkpt lat="43.055944999999376" lon="-1.2660970000000027">
        <ele>1222.487</ele>
        <time>2022-08-24T09:50:12Z</time>
      </trkpt>
      <trkpt lat="43.055941999999376" lon="-1.2660770000000028">
        <ele>1222.687</ele>
        <time>2022-08-24T09:50:13Z</time>
      </trkpt>
      <trkpt lat="43.055936999999375" lon="-1.2660630000000028">
        <ele>1222.653</ele>
        <time>2022-08-24T09:50:14Z</time>
      </trkpt>
      <trkpt lat="43.055928999999374" lon="-1.2660450000000028">
        <ele>1222.835</ele>
        <time>2022-08-24T09:50:15Z</time>
      </trkpt>
      <trkpt lat="43.05591899999937" lon="-1.2660210000000027">
        <ele>1222.892</ele>
        <time>2022-08-24T09:50:16Z</time>
      </trkpt>
      <trkpt lat="43.05590899999937" lon="-1.2660010000000028">
        <ele>1222.885</ele>
        <time>2022-08-24T09:50:17Z</time>
      </trkpt>
      <trkpt lat="43.055898999999364" lon="-1.265989000000003">
        <ele>1222.849</ele>
        <time>2022-08-24T09:50:18Z</time>
      </trkpt>
      <trkpt lat="43.05589199999937" lon="-1.265985000000003">
        <ele>1222.648</ele>
        <time>2022-08-24T09:50:19Z</time>
      </trkpt>
      <trkpt lat="43.05588299999937" lon="-1.265979000000003">
        <ele>1222.635</ele>
        <time>2022-08-24T09:50:20Z</time>
      </trkpt>
      <trkpt lat="43.05587099999937" lon="-1.2659730000000031">
        <ele>1222.686</ele>
        <time>2022-08-24T09:50:21Z</time>
      </trkpt>
      <trkpt lat="43.05586099999937" lon="-1.2659700000000031">
        <ele>1222.614</ele>
        <time>2022-08-24T09:50:22Z</time>
      </trkpt>
      <trkpt lat="43.055847999999365" lon="-1.2659670000000032">
        <ele>1222.609</ele>
        <time>2022-08-24T09:50:23Z</time>
      </trkpt>
      <trkpt lat="43.055833999999365" lon="-1.2659630000000033">
        <ele>1222.684</ele>
        <time>2022-08-24T09:50:24Z</time>
      </trkpt>
      <trkpt lat="43.05582199999937" lon="-1.2659550000000033">
        <ele>1222.664</ele>
        <time>2022-08-24T09:50:25Z</time>
      </trkpt>
      <trkpt lat="43.055810999999366" lon="-1.2659470000000033">
        <ele>1222.674</ele>
        <time>2022-08-24T09:50:26Z</time>
      </trkpt>
      <trkpt lat="43.05580099999936" lon="-1.2659370000000032">
        <ele>1222.450</ele>
        <time>2022-08-24T09:50:27Z</time>
      </trkpt>
      <trkpt lat="43.05579099999936" lon="-1.2659280000000033">
        <ele>1222.632</ele>
        <time>2022-08-24T09:50:28Z</time>
      </trkpt>
      <trkpt lat="43.05578099999936" lon="-1.2659190000000033">
        <ele>1222.659</ele>
        <time>2022-08-24T09:50:29Z</time>
      </trkpt>
      <trkpt lat="43.05573599999936" lon="-1.2658960000000032">
        <ele>1223.082</ele>
        <time>2022-08-24T09:50:33Z</time>
      </trkpt>
      <trkpt lat="43.05572699999936" lon="-1.2658920000000033">
        <ele>1222.896</ele>
        <time>2022-08-24T09:50:34Z</time>
      </trkpt>
      <trkpt lat="43.055716999999355" lon="-1.2658850000000033">
        <ele>1222.825</ele>
        <time>2022-08-24T09:50:35Z</time>
      </trkpt>
      <trkpt lat="43.055705999999354" lon="-1.2658800000000032">
        <ele>1223.031</ele>
        <time>2022-08-24T09:50:36Z</time>
      </trkpt>
      <trkpt lat="43.055685999999355" lon="-1.2658680000000033">
        <ele>1223.261</ele>
        <time>2022-08-24T09:50:38Z</time>
      </trkpt>
      <trkpt lat="43.05566799999936" lon="-1.2658530000000032">
        <ele>1223.407</ele>
        <time>2022-08-24T09:50:40Z</time>
      </trkpt>
      <trkpt lat="43.05565999999936" lon="-1.2658430000000032">
        <ele>1223.609</ele>
        <time>2022-08-24T09:50:41Z</time>
      </trkpt>
      <trkpt lat="43.055651999999355" lon="-1.2658340000000032">
        <ele>1223.874</ele>
        <time>2022-08-24T09:50:42Z</time>
      </trkpt>
      <trkpt lat="43.05564199999935" lon="-1.2658270000000031">
        <ele>1224.044</ele>
        <time>2022-08-24T09:50:43Z</time>
      </trkpt>
      <trkpt lat="43.05560599999935" lon="-1.265806000000003">
        <ele>1224.454</ele>
        <time>2022-08-24T09:50:46Z</time>
      </trkpt>
      <trkpt lat="43.05556299999935" lon="-1.265780000000003">
        <ele>1224.850</ele>
        <time>2022-08-24T09:50:50Z</time>
      </trkpt>
      <trkpt lat="43.05555299999935" lon="-1.265774000000003">
        <ele>1225.042</ele>
        <time>2022-08-24T09:50:51Z</time>
      </trkpt>
      <trkpt lat="43.05554199999935" lon="-1.2657680000000031">
        <ele>1225.249</ele>
        <time>2022-08-24T09:50:52Z</time>
      </trkpt>
      <trkpt lat="43.05552099999935" lon="-1.265761000000003">
        <ele>1225.432</ele>
        <time>2022-08-24T09:50:54Z</time>
      </trkpt>
      <trkpt lat="43.05550999999935" lon="-1.265754000000003">
        <ele>1225.666</ele>
        <time>2022-08-24T09:50:55Z</time>
      </trkpt>
      <trkpt lat="43.05550199999935" lon="-1.265743000000003">
        <ele>1225.625</ele>
        <time>2022-08-24T09:50:56Z</time>
      </trkpt>
      <trkpt lat="43.055494999999354" lon="-1.265730000000003">
        <ele>1226.062</ele>
        <time>2022-08-24T09:50:57Z</time>
      </trkpt>
      <trkpt lat="43.05548799999936" lon="-1.2657200000000028">
        <ele>1226.283</ele>
        <time>2022-08-24T09:50:58Z</time>
      </trkpt>
      <trkpt lat="43.055477999999354" lon="-1.2657100000000028">
        <ele>1226.211</ele>
        <time>2022-08-24T09:50:59Z</time>
      </trkpt>
      <trkpt lat="43.055466999999354" lon="-1.2657040000000028">
        <ele>1226.409</ele>
        <time>2022-08-24T09:51:00Z</time>
      </trkpt>
      <trkpt lat="43.05545699999935" lon="-1.2657010000000029">
        <ele>1226.647</ele>
        <time>2022-08-24T09:51:01Z</time>
      </trkpt>
      <trkpt lat="43.05544799999935" lon="-1.2656960000000028">
        <ele>1226.897</ele>
        <time>2022-08-24T09:51:02Z</time>
      </trkpt>
      <trkpt lat="43.05543999999935" lon="-1.2656930000000028">
        <ele>1226.857</ele>
        <time>2022-08-24T09:51:03Z</time>
      </trkpt>
      <trkpt lat="43.05542699999935" lon="-1.265687000000003">
        <ele>1227.063</ele>
        <time>2022-08-24T09:51:04Z</time>
      </trkpt>
      <trkpt lat="43.05541799999935" lon="-1.2656820000000029">
        <ele>1227.085</ele>
        <time>2022-08-24T09:51:05Z</time>
      </trkpt>
      <trkpt lat="43.05540899999935" lon="-1.265676000000003">
        <ele>1227.062</ele>
        <time>2022-08-24T09:51:06Z</time>
      </trkpt>
      <trkpt lat="43.055401999999354" lon="-1.265670000000003">
        <ele>1227.275</ele>
        <time>2022-08-24T09:51:07Z</time>
      </trkpt>
      <trkpt lat="43.055392999999356" lon="-1.265665000000003">
        <ele>1227.619</ele>
        <time>2022-08-24T09:51:08Z</time>
      </trkpt>
      <trkpt lat="43.055381999999355" lon="-1.265657000000003">
        <ele>1227.638</ele>
        <time>2022-08-24T09:51:09Z</time>
      </trkpt>
      <trkpt lat="43.05537199999935" lon="-1.2656500000000028">
        <ele>1227.694</ele>
        <time>2022-08-24T09:51:10Z</time>
      </trkpt>
      <trkpt lat="43.05536199999935" lon="-1.2656440000000029">
        <ele>1227.857</ele>
        <time>2022-08-24T09:51:11Z</time>
      </trkpt>
      <trkpt lat="43.05535499999935" lon="-1.265640000000003">
        <ele>1227.822</ele>
        <time>2022-08-24T09:51:12Z</time>
      </trkpt>
      <trkpt lat="43.05534499999935" lon="-1.265632000000003">
        <ele>1228.009</ele>
        <time>2022-08-24T09:51:13Z</time>
      </trkpt>
      <trkpt lat="43.05533399999935" lon="-1.265620000000003">
        <ele>1228.050</ele>
        <time>2022-08-24T09:51:14Z</time>
      </trkpt>
      <trkpt lat="43.05532499999935" lon="-1.2656110000000032">
        <ele>1228.260</ele>
        <time>2022-08-24T09:51:15Z</time>
      </trkpt>
      <trkpt lat="43.05531499999935" lon="-1.2656030000000031">
        <ele>1228.250</ele>
        <time>2022-08-24T09:51:16Z</time>
      </trkpt>
      <trkpt lat="43.055306999999345" lon="-1.2655970000000032">
        <ele>1228.446</ele>
        <time>2022-08-24T09:51:17Z</time>
      </trkpt>
      <trkpt lat="43.055295999999345" lon="-1.2655920000000032">
        <ele>1228.488</ele>
        <time>2022-08-24T09:51:18Z</time>
      </trkpt>
      <trkpt lat="43.055284999999344" lon="-1.2655870000000031">
        <ele>1228.625</ele>
        <time>2022-08-24T09:51:19Z</time>
      </trkpt>
      <trkpt lat="43.055272999999346" lon="-1.2655890000000032">
        <ele>1228.858</ele>
        <time>2022-08-24T09:51:20Z</time>
      </trkpt>
      <trkpt lat="43.05526299999934" lon="-1.2655960000000033">
        <ele>1228.832</ele>
        <time>2022-08-24T09:51:21Z</time>
      </trkpt>
      <trkpt lat="43.05525499999934" lon="-1.2656020000000032">
        <ele>1228.851</ele>
        <time>2022-08-24T09:51:22Z</time>
      </trkpt>
      <trkpt lat="43.05524099999934" lon="-1.2656110000000032">
        <ele>1229.033</ele>
        <time>2022-08-24T09:51:23Z</time>
      </trkpt>
      <trkpt lat="43.05523499999934" lon="-1.265620000000003">
        <ele>1229.223</ele>
        <time>2022-08-24T09:51:24Z</time>
      </trkpt>
      <trkpt lat="43.055230999999345" lon="-1.2656330000000031">
        <ele>1229.415</ele>
        <time>2022-08-24T09:51:25Z</time>
      </trkpt>
      <trkpt lat="43.05522699999935" lon="-1.2656460000000032">
        <ele>1229.809</ele>
        <time>2022-08-24T09:51:26Z</time>
      </trkpt>
      <trkpt lat="43.05522199999935" lon="-1.2656650000000031">
        <ele>1230.024</ele>
        <time>2022-08-24T09:51:27Z</time>
      </trkpt>
      <trkpt lat="43.05522199999935" lon="-1.265685000000003">
        <ele>1230.284</ele>
        <time>2022-08-24T09:51:28Z</time>
      </trkpt>
      <trkpt lat="43.055222999999344" lon="-1.265699000000003">
        <ele>1230.254</ele>
        <time>2022-08-24T09:51:29Z</time>
      </trkpt>
      <trkpt lat="43.055224999999346" lon="-1.2657140000000031">
        <ele>1230.460</ele>
        <time>2022-08-24T09:51:30Z</time>
      </trkpt>
      <trkpt lat="43.05522699999935" lon="-1.2657240000000032">
        <ele>1230.622</ele>
        <time>2022-08-24T09:51:31Z</time>
      </trkpt>
      <trkpt lat="43.055227999999346" lon="-1.2657390000000033">
        <ele>1230.659</ele>
        <time>2022-08-24T09:51:32Z</time>
      </trkpt>
      <trkpt lat="43.05522899999934" lon="-1.2657540000000034">
        <ele>1230.652</ele>
        <time>2022-08-24T09:51:33Z</time>
      </trkpt>
      <trkpt lat="43.05522999999934" lon="-1.2657700000000034">
        <ele>1230.646</ele>
        <time>2022-08-24T09:51:34Z</time>
      </trkpt>
      <trkpt lat="43.05523099999934" lon="-1.2657850000000035">
        <ele>1230.835</ele>
        <time>2022-08-24T09:51:35Z</time>
      </trkpt>
      <trkpt lat="43.055228999999336" lon="-1.2658020000000034">
        <ele>1230.887</ele>
        <time>2022-08-24T09:51:36Z</time>
      </trkpt>
      <trkpt lat="43.05522799999934" lon="-1.2658150000000035">
        <ele>1231.042</ele>
        <time>2022-08-24T09:51:37Z</time>
      </trkpt>
      <trkpt lat="43.05522999999934" lon="-1.2658280000000035">
        <ele>1231.226</ele>
        <time>2022-08-24T09:51:38Z</time>
      </trkpt>
      <trkpt lat="43.05523399999934" lon="-1.2658420000000035">
        <ele>1231.209</ele>
        <time>2022-08-24T09:51:39Z</time>
      </trkpt>
      <trkpt lat="43.055234999999335" lon="-1.2658610000000035">
        <ele>1231.249</ele>
        <time>2022-08-24T09:51:40Z</time>
      </trkpt>
      <trkpt lat="43.05523399999934" lon="-1.2658730000000034">
        <ele>1231.259</ele>
        <time>2022-08-24T09:51:41Z</time>
      </trkpt>
      <trkpt lat="43.05523299999934" lon="-1.2658860000000034">
        <ele>1231.479</ele>
        <time>2022-08-24T09:51:42Z</time>
      </trkpt>
      <trkpt lat="43.05523399999934" lon="-1.2659000000000034">
        <ele>1231.425</ele>
        <time>2022-08-24T09:51:43Z</time>
      </trkpt>
      <trkpt lat="43.055234999999335" lon="-1.2659140000000033">
        <ele>1231.627</ele>
        <time>2022-08-24T09:51:44Z</time>
      </trkpt>
      <trkpt lat="43.055231999999336" lon="-1.2659280000000033">
        <ele>1232.084</ele>
        <time>2022-08-24T09:51:45Z</time>
      </trkpt>
      <trkpt lat="43.05522799999934" lon="-1.2659410000000033">
        <ele>1232.047</ele>
        <time>2022-08-24T09:51:46Z</time>
      </trkpt>
      <trkpt lat="43.05522699999934" lon="-1.2659560000000034">
        <ele>1232.241</ele>
        <time>2022-08-24T09:51:47Z</time>
      </trkpt>
      <trkpt lat="43.05522899999934" lon="-1.2659710000000035">
        <ele>1232.450</ele>
        <time>2022-08-24T09:51:48Z</time>
      </trkpt>
      <trkpt lat="43.05523299999934" lon="-1.2659880000000034">
        <ele>1232.653</ele>
        <time>2022-08-24T09:51:49Z</time>
      </trkpt>
      <trkpt lat="43.05523699999934" lon="-1.2660050000000034">
        <ele>1232.604</ele>
        <time>2022-08-24T09:51:50Z</time>
      </trkpt>
      <trkpt lat="43.05524199999934" lon="-1.2660180000000034">
        <ele>1232.814</ele>
        <time>2022-08-24T09:51:51Z</time>
      </trkpt>
      <trkpt lat="43.055245999999336" lon="-1.2660320000000034">
        <ele>1233.009</ele>
        <time>2022-08-24T09:51:52Z</time>
      </trkpt>
      <trkpt lat="43.055248999999336" lon="-1.2660480000000034">
        <ele>1233.236</ele>
        <time>2022-08-24T09:51:53Z</time>
      </trkpt>
      <trkpt lat="43.055251999999335" lon="-1.2660610000000034">
        <ele>1233.426</ele>
        <time>2022-08-24T09:51:54Z</time>
      </trkpt>
      <trkpt lat="43.055251999999335" lon="-1.2660740000000035">
        <ele>1233.636</ele>
        <time>2022-08-24T09:51:55Z</time>
      </trkpt>
      <trkpt lat="43.05525299999933" lon="-1.2660880000000034">
        <ele>1233.652</ele>
        <time>2022-08-24T09:51:56Z</time>
      </trkpt>
      <trkpt lat="43.05525299999933" lon="-1.2661010000000035">
        <ele>1233.864</ele>
        <time>2022-08-24T09:51:57Z</time>
      </trkpt>
      <trkpt lat="43.05525399999933" lon="-1.2661150000000034">
        <ele>1234.021</ele>
        <time>2022-08-24T09:51:58Z</time>
      </trkpt>
      <trkpt lat="43.05525199999933" lon="-1.2661270000000033">
        <ele>1234.264</ele>
        <time>2022-08-24T09:51:59Z</time>
      </trkpt>
      <trkpt lat="43.05524899999933" lon="-1.2661390000000032">
        <ele>1234.458</ele>
        <time>2022-08-24T09:52:00Z</time>
      </trkpt>
      <trkpt lat="43.05524399999933" lon="-1.2661520000000033">
        <ele>1234.627</ele>
        <time>2022-08-24T09:52:01Z</time>
      </trkpt>
      <trkpt lat="43.055238999999325" lon="-1.2661640000000032">
        <ele>1235.077</ele>
        <time>2022-08-24T09:52:02Z</time>
      </trkpt>
      <trkpt lat="43.055232999999326" lon="-1.2661750000000032">
        <ele>1235.261</ele>
        <time>2022-08-24T09:52:03Z</time>
      </trkpt>
      <trkpt lat="43.05522699999933" lon="-1.266184000000003">
        <ele>1235.427</ele>
        <time>2022-08-24T09:52:04Z</time>
      </trkpt>
      <trkpt lat="43.05522399999933" lon="-1.266192000000003">
        <ele>1235.609</ele>
        <time>2022-08-24T09:52:05Z</time>
      </trkpt>
      <trkpt lat="43.055218999999326" lon="-1.266204000000003">
        <ele>1236.278</ele>
        <time>2022-08-24T09:52:06Z</time>
      </trkpt>
      <trkpt lat="43.05521499999933" lon="-1.266217000000003">
        <ele>1236.458</ele>
        <time>2022-08-24T09:52:07Z</time>
      </trkpt>
      <trkpt lat="43.05520799999933" lon="-1.266229000000003">
        <ele>1236.688</ele>
        <time>2022-08-24T09:52:08Z</time>
      </trkpt>
      <trkpt lat="43.05519999999933" lon="-1.266237000000003">
        <ele>1237.094</ele>
        <time>2022-08-24T09:52:09Z</time>
      </trkpt>
      <trkpt lat="43.055192999999335" lon="-1.266243000000003">
        <ele>1237.476</ele>
        <time>2022-08-24T09:52:10Z</time>
      </trkpt>
      <trkpt lat="43.055184999999334" lon="-1.2662490000000028">
        <ele>1237.683</ele>
        <time>2022-08-24T09:52:11Z</time>
      </trkpt>
      <trkpt lat="43.05517799999934" lon="-1.2662600000000028">
        <ele>1237.846</ele>
        <time>2022-08-24T09:52:12Z</time>
      </trkpt>
      <trkpt lat="43.05517099999934" lon="-1.2662740000000028">
        <ele>1238.270</ele>
        <time>2022-08-24T09:52:13Z</time>
      </trkpt>
      <trkpt lat="43.05516099999934" lon="-1.2662850000000028">
        <ele>1238.419</ele>
        <time>2022-08-24T09:52:14Z</time>
      </trkpt>
      <trkpt lat="43.055150999999334" lon="-1.2662950000000028">
        <ele>1238.659</ele>
        <time>2022-08-24T09:52:15Z</time>
      </trkpt>
      <trkpt lat="43.055141999999336" lon="-1.2663040000000028">
        <ele>1238.803</ele>
        <time>2022-08-24T09:52:16Z</time>
      </trkpt>
      <trkpt lat="43.05513199999933" lon="-1.2663140000000028">
        <ele>1238.823</ele>
        <time>2022-08-24T09:52:17Z</time>
      </trkpt>
      <trkpt lat="43.05512099999933" lon="-1.266329000000003">
        <ele>1239.209</ele>
        <time>2022-08-24T09:52:18Z</time>
      </trkpt>
      <trkpt lat="43.055113999999335" lon="-1.266342000000003">
        <ele>1239.476</ele>
        <time>2022-08-24T09:52:19Z</time>
      </trkpt>
      <trkpt lat="43.055105999999334" lon="-1.266351000000003">
        <ele>1239.646</ele>
        <time>2022-08-24T09:52:20Z</time>
      </trkpt>
      <trkpt lat="43.055096999999336" lon="-1.2663650000000028">
        <ele>1239.856</ele>
        <time>2022-08-24T09:52:21Z</time>
      </trkpt>
      <trkpt lat="43.05508799999934" lon="-1.266378000000003">
        <ele>1240.042</ele>
        <time>2022-08-24T09:52:22Z</time>
      </trkpt>
      <trkpt lat="43.055076999999336" lon="-1.2663920000000028">
        <ele>1240.234</ele>
        <time>2022-08-24T09:52:23Z</time>
      </trkpt>
      <trkpt lat="43.05506699999933" lon="-1.2664040000000027">
        <ele>1240.491</ele>
        <time>2022-08-24T09:52:24Z</time>
      </trkpt>
      <trkpt lat="43.05505899999933" lon="-1.2664190000000028">
        <ele>1240.644</ele>
        <time>2022-08-24T09:52:25Z</time>
      </trkpt>
      <trkpt lat="43.05504999999933" lon="-1.2664330000000028">
        <ele>1241.038</ele>
        <time>2022-08-24T09:52:26Z</time>
      </trkpt>
      <trkpt lat="43.055040999999335" lon="-1.2664470000000028">
        <ele>1241.447</ele>
        <time>2022-08-24T09:52:27Z</time>
      </trkpt>
      <trkpt lat="43.055032999999334" lon="-1.2664600000000028">
        <ele>1241.452</ele>
        <time>2022-08-24T09:52:28Z</time>
      </trkpt>
      <trkpt lat="43.05502199999933" lon="-1.2664700000000029">
        <ele>1241.853</ele>
        <time>2022-08-24T09:52:29Z</time>
      </trkpt>
      <trkpt lat="43.05501199999933" lon="-1.266480000000003">
        <ele>1242.208</ele>
        <time>2022-08-24T09:52:30Z</time>
      </trkpt>
      <trkpt lat="43.05500199999933" lon="-1.266490000000003">
        <ele>1242.409</ele>
        <time>2022-08-24T09:52:31Z</time>
      </trkpt>
      <trkpt lat="43.054993999999326" lon="-1.266500000000003">
        <ele>1242.636</ele>
        <time>2022-08-24T09:52:32Z</time>
      </trkpt>
      <trkpt lat="43.054985999999325" lon="-1.2665100000000031">
        <ele>1243.016</ele>
        <time>2022-08-24T09:52:33Z</time>
      </trkpt>
      <trkpt lat="43.054979999999325" lon="-1.2665170000000032">
        <ele>1243.456</ele>
        <time>2022-08-24T09:52:34Z</time>
      </trkpt>
      <trkpt lat="43.054971999999324" lon="-1.2665250000000032">
        <ele>1243.822</ele>
        <time>2022-08-24T09:52:35Z</time>
      </trkpt>
      <trkpt lat="43.05496699999932" lon="-1.2665300000000033">
        <ele>1244.024</ele>
        <time>2022-08-24T09:52:36Z</time>
      </trkpt>
      <trkpt lat="43.054965999999325" lon="-1.2665390000000032">
        <ele>1246.211</ele>
        <time>2022-08-24T09:53:13Z</time>
      </trkpt>
      <trkpt lat="43.05496699999932" lon="-1.2665470000000032">
        <ele>1246.294</ele>
        <time>2022-08-24T09:53:15Z</time>
      </trkpt>
      <trkpt lat="43.054965999999325" lon="-1.2665470000000032">
        <ele>1247.688</ele>
        <time>2022-08-24T09:53:26Z</time>
      </trkpt>
      <trkpt lat="43.05496399999932" lon="-1.2665540000000033">
        <ele>1247.447</ele>
        <time>2022-08-24T09:53:27Z</time>
      </trkpt>
      <trkpt lat="43.054937999999325" lon="-1.2666090000000032">
        <ele>1247.646</ele>
        <time>2022-08-24T09:53:31Z</time>
      </trkpt>
      <trkpt lat="43.05493299999932" lon="-1.2666200000000032">
        <ele>1247.888</ele>
        <time>2022-08-24T09:53:32Z</time>
      </trkpt>
      <trkpt lat="43.05492499999932" lon="-1.2666470000000032">
        <ele>1248.016</ele>
        <time>2022-08-24T09:53:34Z</time>
      </trkpt>
      <trkpt lat="43.05488699999932" lon="-1.2667230000000032">
        <ele>1248.409</ele>
        <time>2022-08-24T09:53:42Z</time>
      </trkpt>
      <trkpt lat="43.05488099999932" lon="-1.2667340000000031">
        <ele>1248.455</ele>
        <time>2022-08-24T09:53:43Z</time>
      </trkpt>
      <trkpt lat="43.05487699999932" lon="-1.2667450000000031">
        <ele>1248.675</ele>
        <time>2022-08-24T09:53:44Z</time>
      </trkpt>
      <trkpt lat="43.05484599999932" lon="-1.266783000000003">
        <ele>1248.885</ele>
        <time>2022-08-24T09:53:49Z</time>
      </trkpt>
      <trkpt lat="43.05483799999932" lon="-1.266784000000003">
        <ele>1249.051</ele>
        <time>2022-08-24T09:53:50Z</time>
      </trkpt>
      <trkpt lat="43.05483499999932" lon="-1.266784000000003">
        <ele>1249.253</ele>
        <time>2022-08-24T09:53:51Z</time>
      </trkpt>
      <trkpt lat="43.05483499999932" lon="-1.266784000000003">
        <ele>1249.450</ele>
        <time>2022-08-24T09:53:52Z</time>
      </trkpt>
      <trkpt lat="43.05483499999932" lon="-1.266784000000003">
        <ele>1249.453</ele>
        <time>2022-08-24T09:53:53Z</time>
      </trkpt>
      <trkpt lat="43.05481499999932" lon="-1.266797000000003">
        <ele>1249.467</ele>
        <time>2022-08-24T09:54:19Z</time>
      </trkpt>
      <trkpt lat="43.05476799999932" lon="-1.2668120000000032">
        <ele>1249.646</ele>
        <time>2022-08-24T09:54:23Z</time>
      </trkpt>
      <trkpt lat="43.05472999999932" lon="-1.2668200000000032">
        <ele>1249.629</ele>
        <time>2022-08-24T09:54:27Z</time>
      </trkpt>
      <trkpt lat="43.054721999999316" lon="-1.266821000000003">
        <ele>1249.600</ele>
        <time>2022-08-24T09:54:28Z</time>
      </trkpt>
      <trkpt lat="43.054713999999315" lon="-1.266822000000003">
        <ele>1249.620</ele>
        <time>2022-08-24T09:54:29Z</time>
      </trkpt>
      <trkpt lat="43.05468699999931" lon="-1.266825000000003">
        <ele>1249.809</ele>
        <time>2022-08-24T09:54:33Z</time>
      </trkpt>
      <trkpt lat="43.054654999999315" lon="-1.266834000000003">
        <ele>1249.883</ele>
        <time>2022-08-24T09:54:37Z</time>
      </trkpt>
      <trkpt lat="43.054645999999316" lon="-1.266836000000003">
        <ele>1249.813</ele>
        <time>2022-08-24T09:54:38Z</time>
      </trkpt>
      <trkpt lat="43.05463699999932" lon="-1.2668400000000029">
        <ele>1250.013</ele>
        <time>2022-08-24T09:54:39Z</time>
      </trkpt>
      <trkpt lat="43.05462799999932" lon="-1.266842000000003">
        <ele>1250.229</ele>
        <time>2022-08-24T09:54:40Z</time>
      </trkpt>
      <trkpt lat="43.05461999999932" lon="-1.266842000000003">
        <ele>1250.491</ele>
        <time>2022-08-24T09:54:41Z</time>
      </trkpt>
      <trkpt lat="43.05461199999932" lon="-1.2668430000000028">
        <ele>1250.488</ele>
        <time>2022-08-24T09:54:42Z</time>
      </trkpt>
      <trkpt lat="43.05460599999932" lon="-1.2668440000000027">
        <ele>1250.451</ele>
        <time>2022-08-24T09:54:43Z</time>
      </trkpt>
      <trkpt lat="43.05459699999932" lon="-1.2668450000000027">
        <ele>1250.625</ele>
        <time>2022-08-24T09:54:44Z</time>
      </trkpt>
      <trkpt lat="43.05459099999932" lon="-1.2668460000000026">
        <ele>1250.654</ele>
        <time>2022-08-24T09:54:45Z</time>
      </trkpt>
      <trkpt lat="43.05458299999932" lon="-1.2668480000000026">
        <ele>1250.843</ele>
        <time>2022-08-24T09:54:46Z</time>
      </trkpt>
      <trkpt lat="43.05457599999932" lon="-1.2668500000000027">
        <ele>1250.864</ele>
        <time>2022-08-24T09:54:47Z</time>
      </trkpt>
      <trkpt lat="43.054568999999326" lon="-1.2668500000000027">
        <ele>1250.810</ele>
        <time>2022-08-24T09:54:48Z</time>
      </trkpt>
      <trkpt lat="43.05455999999933" lon="-1.2668520000000028">
        <ele>1250.809</ele>
        <time>2022-08-24T09:54:49Z</time>
      </trkpt>
      <trkpt lat="43.054551999999326" lon="-1.2668540000000028">
        <ele>1251.065</ele>
        <time>2022-08-24T09:54:50Z</time>
      </trkpt>
      <trkpt lat="43.05454599999933" lon="-1.2668550000000027">
        <ele>1251.055</ele>
        <time>2022-08-24T09:54:51Z</time>
      </trkpt>
      <trkpt lat="43.05453999999933" lon="-1.2668560000000026">
        <ele>1251.095</ele>
        <time>2022-08-24T09:54:52Z</time>
      </trkpt>
      <trkpt lat="43.05453299999933" lon="-1.2668590000000026">
        <ele>1251.071</ele>
        <time>2022-08-24T09:54:53Z</time>
      </trkpt>
      <trkpt lat="43.054525999999335" lon="-1.2668640000000027">
        <ele>1251.063</ele>
        <time>2022-08-24T09:54:54Z</time>
      </trkpt>
      <trkpt lat="43.05451899999934" lon="-1.2668690000000027">
        <ele>1251.080</ele>
        <time>2022-08-24T09:54:55Z</time>
      </trkpt>
      <trkpt lat="43.05451099999934" lon="-1.2668710000000027">
        <ele>1251.093</ele>
        <time>2022-08-24T09:54:56Z</time>
      </trkpt>
      <trkpt lat="43.05449899999934" lon="-1.2668770000000027">
        <ele>1251.087</ele>
        <time>2022-08-24T09:54:57Z</time>
      </trkpt>
      <trkpt lat="43.05449199999934" lon="-1.2668800000000027">
        <ele>1251.076</ele>
        <time>2022-08-24T09:54:58Z</time>
      </trkpt>
      <trkpt lat="43.05446999999934" lon="-1.2668910000000027">
        <ele>1250.264</ele>
        <time>2022-08-24T09:55:08Z</time>
      </trkpt>
      <trkpt lat="43.05438099999934" lon="-1.2669250000000027">
        <ele>1249.806</ele>
        <time>2022-08-24T09:55:12Z</time>
      </trkpt>
      <trkpt lat="43.05431099999934" lon="-1.2669590000000028">
        <ele>1250.016</ele>
        <time>2022-08-24T09:55:14Z</time>
      </trkpt>
      <trkpt lat="43.054204999999335" lon="-1.2670250000000027">
        <ele>1250.009</ele>
        <time>2022-08-24T09:55:17Z</time>
      </trkpt>
      <trkpt lat="43.05416999999934" lon="-1.2670410000000027">
        <ele>1249.847</ele>
        <time>2022-08-24T09:55:18Z</time>
      </trkpt>
      <trkpt lat="43.05397899999934" lon="-1.2671320000000028">
        <ele>1249.227</ele>
        <time>2022-08-24T09:55:23Z</time>
      </trkpt>
      <trkpt lat="43.053939999999336" lon="-1.2671480000000028">
        <ele>1249.077</ele>
        <time>2022-08-24T09:55:24Z</time>
      </trkpt>
      <trkpt lat="43.05389999999934" lon="-1.267166000000003">
        <ele>1248.683</ele>
        <time>2022-08-24T09:55:25Z</time>
      </trkpt>
      <trkpt lat="43.05386899999934" lon="-1.2671780000000028">
        <ele>1248.495</ele>
        <time>2022-08-24T09:55:26Z</time>
      </trkpt>
      <trkpt lat="43.05382299999934" lon="-1.2671970000000028">
        <ele>1248.222</ele>
        <time>2022-08-24T09:55:27Z</time>
      </trkpt>
      <trkpt lat="43.05378699999934" lon="-1.2672110000000028">
        <ele>1248.085</ele>
        <time>2022-08-24T09:55:28Z</time>
      </trkpt>
      <trkpt lat="43.05375299999934" lon="-1.2672250000000027">
        <ele>1247.829</ele>
        <time>2022-08-24T09:55:29Z</time>
      </trkpt>
      <trkpt lat="43.05371999999934" lon="-1.2672410000000027">
        <ele>1247.638</ele>
        <time>2022-08-24T09:55:30Z</time>
      </trkpt>
      <trkpt lat="43.053686999999336" lon="-1.2672550000000027">
        <ele>1247.689</ele>
        <time>2022-08-24T09:55:31Z</time>
      </trkpt>
      <trkpt lat="43.05365199999934" lon="-1.2672690000000026">
        <ele>1247.406</ele>
        <time>2022-08-24T09:55:32Z</time>
      </trkpt>
      <trkpt lat="43.05361999999934" lon="-1.2672830000000026">
        <ele>1247.426</ele>
        <time>2022-08-24T09:55:33Z</time>
      </trkpt>
      <trkpt lat="43.05358899999934" lon="-1.2672950000000025">
        <ele>1247.209</ele>
        <time>2022-08-24T09:55:34Z</time>
      </trkpt>
      <trkpt lat="43.05355899999934" lon="-1.2673070000000024">
        <ele>1247.219</ele>
        <time>2022-08-24T09:55:35Z</time>
      </trkpt>
      <trkpt lat="43.05352999999934" lon="-1.2673200000000024">
        <ele>1247.029</ele>
        <time>2022-08-24T09:55:36Z</time>
      </trkpt>
      <trkpt lat="43.05347099999934" lon="-1.2673430000000026">
        <ele>1247.089</ele>
        <time>2022-08-24T09:55:38Z</time>
      </trkpt>
      <trkpt lat="43.05337999999934" lon="-1.2673800000000026">
        <ele>1247.035</ele>
        <time>2022-08-24T09:55:41Z</time>
      </trkpt>
      <trkpt lat="43.05335299999934" lon="-1.2673870000000027">
        <ele>1247.027</ele>
        <time>2022-08-24T09:55:42Z</time>
      </trkpt>
      <trkpt lat="43.05332699999934" lon="-1.2673910000000026">
        <ele>1247.054</ele>
        <time>2022-08-24T09:55:43Z</time>
      </trkpt>
      <trkpt lat="43.05330299999934" lon="-1.2673990000000026">
        <ele>1246.687</ele>
        <time>2022-08-24T09:55:44Z</time>
      </trkpt>
      <trkpt lat="43.05327699999934" lon="-1.2674050000000026">
        <ele>1246.671</ele>
        <time>2022-08-24T09:55:45Z</time>
      </trkpt>
      <trkpt lat="43.05325199999934" lon="-1.2674090000000025">
        <ele>1246.670</ele>
        <time>2022-08-24T09:55:46Z</time>
      </trkpt>
      <trkpt lat="43.053227999999336" lon="-1.2674140000000025">
        <ele>1246.651</ele>
        <time>2022-08-24T09:55:47Z</time>
      </trkpt>
      <trkpt lat="43.053202999999336" lon="-1.2674180000000024">
        <ele>1246.601</ele>
        <time>2022-08-24T09:55:48Z</time>
      </trkpt>
      <trkpt lat="43.05315399999934" lon="-1.2674260000000024">
        <ele>1246.611</ele>
        <time>2022-08-24T09:55:50Z</time>
      </trkpt>
      <trkpt lat="43.05313099999934" lon="-1.2674280000000024">
        <ele>1246.609</ele>
        <time>2022-08-24T09:55:51Z</time>
      </trkpt>
      <trkpt lat="43.05310799999934" lon="-1.2674310000000024">
        <ele>1246.686</ele>
        <time>2022-08-24T09:55:52Z</time>
      </trkpt>
      <trkpt lat="43.05308799999934" lon="-1.2674380000000025">
        <ele>1246.456</ele>
        <time>2022-08-24T09:55:53Z</time>
      </trkpt>
      <trkpt lat="43.05306899999934" lon="-1.2674440000000025">
        <ele>1246.436</ele>
        <time>2022-08-24T09:55:54Z</time>
      </trkpt>
      <trkpt lat="43.05304699999934" lon="-1.2674480000000024">
        <ele>1246.682</ele>
        <time>2022-08-24T09:55:55Z</time>
      </trkpt>
      <trkpt lat="43.05302499999934" lon="-1.2674490000000023">
        <ele>1246.834</ele>
        <time>2022-08-24T09:55:56Z</time>
      </trkpt>
      <trkpt lat="43.05300399999934" lon="-1.2674480000000024">
        <ele>1246.831</ele>
        <time>2022-08-24T09:55:57Z</time>
      </trkpt>
      <trkpt lat="43.05298499999934" lon="-1.2674440000000025">
        <ele>1246.864</ele>
        <time>2022-08-24T09:55:58Z</time>
      </trkpt>
      <trkpt lat="43.05296699999934" lon="-1.2674420000000024">
        <ele>1247.058</ele>
        <time>2022-08-24T09:55:59Z</time>
      </trkpt>
      <trkpt lat="43.052948999999344" lon="-1.2674430000000023">
        <ele>1247.077</ele>
        <time>2022-08-24T09:56:00Z</time>
      </trkpt>
      <trkpt lat="43.05293099999935" lon="-1.2674440000000022">
        <ele>1247.225</ele>
        <time>2022-08-24T09:56:01Z</time>
      </trkpt>
      <trkpt lat="43.052892999999344" lon="-1.2674500000000022">
        <ele>1247.626</ele>
        <time>2022-08-24T09:56:03Z</time>
      </trkpt>
      <trkpt lat="43.05281199999934" lon="-1.2674750000000021">
        <ele>1247.808</ele>
        <time>2022-08-24T09:56:06Z</time>
      </trkpt>
      <trkpt lat="43.05271599999934" lon="-1.2674990000000022">
        <ele>1247.809</ele>
        <time>2022-08-24T09:56:09Z</time>
      </trkpt>
      <trkpt lat="43.05268499999934" lon="-1.267511000000002">
        <ele>1247.893</ele>
        <time>2022-08-24T09:56:10Z</time>
      </trkpt>
      <trkpt lat="43.05258199999934" lon="-1.2675610000000022">
        <ele>1246.893</ele>
        <time>2022-08-24T09:56:13Z</time>
      </trkpt>
      <trkpt lat="43.05255299999934" lon="-1.2675740000000022">
        <ele>1246.443</ele>
        <time>2022-08-24T09:56:14Z</time>
      </trkpt>
      <trkpt lat="43.05252499999934" lon="-1.2675850000000022">
        <ele>1246.279</ele>
        <time>2022-08-24T09:56:15Z</time>
      </trkpt>
      <trkpt lat="43.052492999999345" lon="-1.2676000000000023">
        <ele>1246.061</ele>
        <time>2022-08-24T09:56:16Z</time>
      </trkpt>
      <trkpt lat="43.05239299999934" lon="-1.2676390000000022">
        <ele>1245.468</ele>
        <time>2022-08-24T09:56:19Z</time>
      </trkpt>
      <trkpt lat="43.05235899999934" lon="-1.2676460000000023">
        <ele>1245.241</ele>
        <time>2022-08-24T09:56:20Z</time>
      </trkpt>
      <trkpt lat="43.052326999999345" lon="-1.2676490000000022">
        <ele>1244.835</ele>
        <time>2022-08-24T09:56:21Z</time>
      </trkpt>
      <trkpt lat="43.05229699999934" lon="-1.2676480000000023">
        <ele>1244.894</ele>
        <time>2022-08-24T09:56:22Z</time>
      </trkpt>
      <trkpt lat="43.05226699999934" lon="-1.2676470000000024">
        <ele>1244.672</ele>
        <time>2022-08-24T09:56:23Z</time>
      </trkpt>
      <trkpt lat="43.05223499999934" lon="-1.2676480000000023">
        <ele>1244.413</ele>
        <time>2022-08-24T09:56:24Z</time>
      </trkpt>
      <trkpt lat="43.05220199999934" lon="-1.2676490000000022">
        <ele>1244.214</ele>
        <time>2022-08-24T09:56:25Z</time>
      </trkpt>
      <trkpt lat="43.05211099999934" lon="-1.2676620000000023">
        <ele>1243.209</ele>
        <time>2022-08-24T09:56:28Z</time>
      </trkpt>
      <trkpt lat="43.05207699999934" lon="-1.2676690000000024">
        <ele>1243.098</ele>
        <time>2022-08-24T09:56:29Z</time>
      </trkpt>
      <trkpt lat="43.05193199999934" lon="-1.2676910000000023">
        <ele>1242.668</ele>
        <time>2022-08-24T09:56:33Z</time>
      </trkpt>
      <trkpt lat="43.05189799999934" lon="-1.2676980000000024">
        <ele>1242.488</ele>
        <time>2022-08-24T09:56:34Z</time>
      </trkpt>
      <trkpt lat="43.05179299999934" lon="-1.2677500000000024">
        <ele>1242.234</ele>
        <time>2022-08-24T09:56:37Z</time>
      </trkpt>
      <trkpt lat="43.05175999999934" lon="-1.2677600000000024">
        <ele>1242.046</ele>
        <time>2022-08-24T09:56:38Z</time>
      </trkpt>
      <trkpt lat="43.05172599999934" lon="-1.2677660000000024">
        <ele>1242.023</ele>
        <time>2022-08-24T09:56:39Z</time>
      </trkpt>
      <trkpt lat="43.05169499999934" lon="-1.2677720000000023">
        <ele>1241.856</ele>
        <time>2022-08-24T09:56:40Z</time>
      </trkpt>
      <trkpt lat="43.05166699999934" lon="-1.2677800000000023">
        <ele>1241.880</ele>
        <time>2022-08-24T09:56:41Z</time>
      </trkpt>
      <trkpt lat="43.05164099999934" lon="-1.2677840000000022">
        <ele>1241.839</ele>
        <time>2022-08-24T09:56:42Z</time>
      </trkpt>
      <trkpt lat="43.051617999999344" lon="-1.2677920000000023">
        <ele>1242.016</ele>
        <time>2022-08-24T09:56:43Z</time>
      </trkpt>
      <trkpt lat="43.05150699999935" lon="-1.2678440000000022">
        <ele>1242.476</ele>
        <time>2022-08-24T09:56:47Z</time>
      </trkpt>
      <trkpt lat="43.05148099999935" lon="-1.2678510000000023">
        <ele>1242.813</ele>
        <time>2022-08-24T09:56:48Z</time>
      </trkpt>
      <trkpt lat="43.05145799999935" lon="-1.2678600000000022">
        <ele>1243.009</ele>
        <time>2022-08-24T09:56:49Z</time>
      </trkpt>
      <trkpt lat="43.05143599999935" lon="-1.2678730000000022">
        <ele>1243.282</ele>
        <time>2022-08-24T09:56:50Z</time>
      </trkpt>
      <trkpt lat="43.05130599999935" lon="-1.2679390000000021">
        <ele>1243.622</ele>
        <time>2022-08-24T09:56:55Z</time>
      </trkpt>
      <trkpt lat="43.05127699999935" lon="-1.2679440000000022">
        <ele>1243.682</ele>
        <time>2022-08-24T09:56:56Z</time>
      </trkpt>
      <trkpt lat="43.05125199999935" lon="-1.2679510000000023">
        <ele>1243.648</ele>
        <time>2022-08-24T09:56:57Z</time>
      </trkpt>
      <trkpt lat="43.05122899999935" lon="-1.2679540000000022">
        <ele>1243.650</ele>
        <time>2022-08-24T09:56:58Z</time>
      </trkpt>
      <trkpt lat="43.05120899999935" lon="-1.2679490000000022">
        <ele>1243.877</ele>
        <time>2022-08-24T09:56:59Z</time>
      </trkpt>
      <trkpt lat="43.05118799999936" lon="-1.2679470000000022">
        <ele>1244.070</ele>
        <time>2022-08-24T09:57:00Z</time>
      </trkpt>
      <trkpt lat="43.05116699999936" lon="-1.267951000000002">
        <ele>1244.044</ele>
        <time>2022-08-24T09:57:01Z</time>
      </trkpt>
      <trkpt lat="43.05114499999936" lon="-1.2679610000000021">
        <ele>1244.263</ele>
        <time>2022-08-24T09:57:02Z</time>
      </trkpt>
      <trkpt lat="43.05112599999936" lon="-1.267967000000002">
        <ele>1244.257</ele>
        <time>2022-08-24T09:57:03Z</time>
      </trkpt>
      <trkpt lat="43.051109999999355" lon="-1.267972000000002">
        <ele>1244.400</ele>
        <time>2022-08-24T09:57:04Z</time>
      </trkpt>
      <trkpt lat="43.05109399999935" lon="-1.267976000000002">
        <ele>1244.420</ele>
        <time>2022-08-24T09:57:05Z</time>
      </trkpt>
      <trkpt lat="43.051078999999355" lon="-1.267979000000002">
        <ele>1244.609</ele>
        <time>2022-08-24T09:57:06Z</time>
      </trkpt>
      <trkpt lat="43.05106399999936" lon="-1.267984000000002">
        <ele>1244.656</ele>
        <time>2022-08-24T09:57:07Z</time>
      </trkpt>
      <trkpt lat="43.05104899999936" lon="-1.267990000000002">
        <ele>1244.666</ele>
        <time>2022-08-24T09:57:08Z</time>
      </trkpt>
      <trkpt lat="43.05103299999936" lon="-1.267995000000002">
        <ele>1244.866</ele>
        <time>2022-08-24T09:57:09Z</time>
      </trkpt>
      <trkpt lat="43.05100099999936" lon="-1.268009000000002">
        <ele>1245.052</ele>
        <time>2022-08-24T09:57:11Z</time>
      </trkpt>
      <trkpt lat="43.05089699999936" lon="-1.268069000000002">
        <ele>1245.884</ele>
        <time>2022-08-24T09:57:16Z</time>
      </trkpt>
      <trkpt lat="43.050841999999356" lon="-1.2681210000000018">
        <ele>1246.011</ele>
        <time>2022-08-24T09:57:18Z</time>
      </trkpt>
      <trkpt lat="43.05081499999935" lon="-1.2681530000000019">
        <ele>1246.074</ele>
        <time>2022-08-24T09:57:19Z</time>
      </trkpt>
      <trkpt lat="43.05079299999935" lon="-1.2681880000000019">
        <ele>1246.058</ele>
        <time>2022-08-24T09:57:20Z</time>
      </trkpt>
      <trkpt lat="43.05077699999935" lon="-1.2682240000000018">
        <ele>1246.077</ele>
        <time>2022-08-24T09:57:21Z</time>
      </trkpt>
      <trkpt lat="43.05075799999935" lon="-1.2682550000000017">
        <ele>1246.053</ele>
        <time>2022-08-24T09:57:22Z</time>
      </trkpt>
      <trkpt lat="43.05073599999935" lon="-1.2682780000000018">
        <ele>1246.004</ele>
        <time>2022-08-24T09:57:23Z</time>
      </trkpt>
      <trkpt lat="43.050713999999346" lon="-1.2682920000000018">
        <ele>1246.014</ele>
        <time>2022-08-24T09:57:24Z</time>
      </trkpt>
      <trkpt lat="43.050691999999344" lon="-1.2683030000000017">
        <ele>1246.009</ele>
        <time>2022-08-24T09:57:25Z</time>
      </trkpt>
      <trkpt lat="43.050671999999345" lon="-1.2683110000000017">
        <ele>1246.066</ele>
        <time>2022-08-24T09:57:26Z</time>
      </trkpt>
      <trkpt lat="43.05065099999935" lon="-1.2683150000000016">
        <ele>1246.246</ele>
        <time>2022-08-24T09:57:27Z</time>
      </trkpt>
      <trkpt lat="43.05063199999935" lon="-1.2683200000000017">
        <ele>1246.256</ele>
        <time>2022-08-24T09:57:28Z</time>
      </trkpt>
      <trkpt lat="43.05061399999935" lon="-1.2683290000000016">
        <ele>1246.482</ele>
        <time>2022-08-24T09:57:29Z</time>
      </trkpt>
      <trkpt lat="43.05059799999935" lon="-1.2683380000000015">
        <ele>1246.414</ele>
        <time>2022-08-24T09:57:30Z</time>
      </trkpt>
      <trkpt lat="43.05058299999935" lon="-1.2683460000000015">
        <ele>1246.651</ele>
        <time>2022-08-24T09:57:31Z</time>
      </trkpt>
      <trkpt lat="43.05056699999935" lon="-1.2683510000000016">
        <ele>1247.024</ele>
        <time>2022-08-24T09:57:32Z</time>
      </trkpt>
      <trkpt lat="43.05055199999935" lon="-1.2683580000000017">
        <ele>1247.028</ele>
        <time>2022-08-24T09:57:33Z</time>
      </trkpt>
      <trkpt lat="43.05053399999935" lon="-1.2683640000000016">
        <ele>1247.257</ele>
        <time>2022-08-24T09:57:34Z</time>
      </trkpt>
      <trkpt lat="43.05051799999935" lon="-1.2683720000000016">
        <ele>1247.222</ele>
        <time>2022-08-24T09:57:35Z</time>
      </trkpt>
      <trkpt lat="43.05049299999935" lon="-1.2683940000000016">
        <ele>1247.662</ele>
        <time>2022-08-24T09:57:37Z</time>
      </trkpt>
      <trkpt lat="43.05048099999935" lon="-1.2684080000000015">
        <ele>1247.808</ele>
        <time>2022-08-24T09:57:38Z</time>
      </trkpt>
      <trkpt lat="43.05047099999935" lon="-1.2684220000000015">
        <ele>1248.009</ele>
        <time>2022-08-24T09:57:39Z</time>
      </trkpt>
      <trkpt lat="43.05045999999935" lon="-1.2684300000000015">
        <ele>1248.273</ele>
        <time>2022-08-24T09:57:40Z</time>
      </trkpt>
      <trkpt lat="43.05043399999935" lon="-1.2684300000000015">
        <ele>1248.653</ele>
        <time>2022-08-24T09:57:42Z</time>
      </trkpt>
      <trkpt lat="43.05041899999935" lon="-1.2684240000000016">
        <ele>1248.863</ele>
        <time>2022-08-24T09:57:43Z</time>
      </trkpt>
      <trkpt lat="43.05040499999935" lon="-1.2684170000000015">
        <ele>1249.239</ele>
        <time>2022-08-24T09:57:44Z</time>
      </trkpt>
      <trkpt lat="43.05039099999935" lon="-1.2684110000000015">
        <ele>1249.841</ele>
        <time>2022-08-24T09:57:45Z</time>
      </trkpt>
      <trkpt lat="43.05037699999935" lon="-1.2684040000000014">
        <ele>1250.058</ele>
        <time>2022-08-24T09:57:46Z</time>
      </trkpt>
      <trkpt lat="43.05036099999935" lon="-1.2683970000000013">
        <ele>1250.211</ele>
        <time>2022-08-24T09:57:47Z</time>
      </trkpt>
      <trkpt lat="43.05034999999935" lon="-1.2683890000000013">
        <ele>1250.425</ele>
        <time>2022-08-24T09:57:48Z</time>
      </trkpt>
      <trkpt lat="43.05033799999935" lon="-1.2683780000000013">
        <ele>1250.664</ele>
        <time>2022-08-24T09:57:49Z</time>
      </trkpt>
      <trkpt lat="43.05032699999935" lon="-1.2683680000000013">
        <ele>1250.637</ele>
        <time>2022-08-24T09:57:50Z</time>
      </trkpt>
      <trkpt lat="43.050316999999346" lon="-1.2683550000000012">
        <ele>1251.049</ele>
        <time>2022-08-24T09:57:51Z</time>
      </trkpt>
      <trkpt lat="43.050305999999345" lon="-1.2683450000000012">
        <ele>1251.213</ele>
        <time>2022-08-24T09:57:52Z</time>
      </trkpt>
      <trkpt lat="43.05029399999935" lon="-1.268335000000001">
        <ele>1251.409</ele>
        <time>2022-08-24T09:57:53Z</time>
      </trkpt>
      <trkpt lat="43.05028299999935" lon="-1.2683260000000012">
        <ele>1251.474</ele>
        <time>2022-08-24T09:57:54Z</time>
      </trkpt>
      <trkpt lat="43.050269999999344" lon="-1.268319000000001">
        <ele>1251.684</ele>
        <time>2022-08-24T09:57:55Z</time>
      </trkpt>
      <trkpt lat="43.05025999999934" lon="-1.268311000000001">
        <ele>1251.874</ele>
        <time>2022-08-24T09:57:56Z</time>
      </trkpt>
      <trkpt lat="43.05024999999934" lon="-1.268304000000001">
        <ele>1252.240</ele>
        <time>2022-08-24T09:57:57Z</time>
      </trkpt>
      <trkpt lat="43.05023799999934" lon="-1.268300000000001">
        <ele>1252.482</ele>
        <time>2022-08-24T09:57:58Z</time>
      </trkpt>
      <trkpt lat="43.05022699999934" lon="-1.268293000000001">
        <ele>1252.889</ele>
        <time>2022-08-24T09:57:59Z</time>
      </trkpt>
      <trkpt lat="43.050216999999336" lon="-1.268285000000001">
        <ele>1252.662</ele>
        <time>2022-08-24T09:58:00Z</time>
      </trkpt>
      <trkpt lat="43.05020699999933" lon="-1.268278000000001">
        <ele>1253.096</ele>
        <time>2022-08-24T09:58:01Z</time>
      </trkpt>
      <trkpt lat="43.05019699999933" lon="-1.268272000000001">
        <ele>1253.235</ele>
        <time>2022-08-24T09:58:02Z</time>
      </trkpt>
      <trkpt lat="43.05018599999933" lon="-1.2682620000000009">
        <ele>1253.438</ele>
        <time>2022-08-24T09:58:03Z</time>
      </trkpt>
      <trkpt lat="43.05017499999933" lon="-1.268250000000001">
        <ele>1253.670</ele>
        <time>2022-08-24T09:58:04Z</time>
      </trkpt>
      <trkpt lat="43.05016399999933" lon="-1.268238000000001">
        <ele>1253.617</ele>
        <time>2022-08-24T09:58:05Z</time>
      </trkpt>
      <trkpt lat="43.05015299999933" lon="-1.268227000000001">
        <ele>1253.609</ele>
        <time>2022-08-24T09:58:06Z</time>
      </trkpt>
      <trkpt lat="43.050139999999324" lon="-1.268222000000001">
        <ele>1253.844</ele>
        <time>2022-08-24T09:58:07Z</time>
      </trkpt>
      <trkpt lat="43.05012899999932" lon="-1.268215000000001">
        <ele>1253.844</ele>
        <time>2022-08-24T09:58:08Z</time>
      </trkpt>
      <trkpt lat="43.050116999999325" lon="-1.268206000000001">
        <ele>1254.074</ele>
        <time>2022-08-24T09:58:09Z</time>
      </trkpt>
      <trkpt lat="43.05010499999933" lon="-1.268193000000001">
        <ele>1254.030</ele>
        <time>2022-08-24T09:58:10Z</time>
      </trkpt>
      <trkpt lat="43.050094999999324" lon="-1.268183000000001">
        <ele>1254.252</ele>
        <time>2022-08-24T09:58:11Z</time>
      </trkpt>
      <trkpt lat="43.05008399999932" lon="-1.268175000000001">
        <ele>1254.279</ele>
        <time>2022-08-24T09:58:12Z</time>
      </trkpt>
      <trkpt lat="43.050071999999325" lon="-1.2681680000000009">
        <ele>1254.662</ele>
        <time>2022-08-24T09:58:13Z</time>
      </trkpt>
      <trkpt lat="43.05006199999932" lon="-1.268159000000001">
        <ele>1254.616</ele>
        <time>2022-08-24T09:58:14Z</time>
      </trkpt>
      <trkpt lat="43.05005199999932" lon="-1.2681490000000009">
        <ele>1254.875</ele>
        <time>2022-08-24T09:58:15Z</time>
      </trkpt>
      <trkpt lat="43.05004099999932" lon="-1.268140000000001">
        <ele>1255.087</ele>
        <time>2022-08-24T09:58:16Z</time>
      </trkpt>
      <trkpt lat="43.05002999999932" lon="-1.268132000000001">
        <ele>1255.242</ele>
        <time>2022-08-24T09:58:17Z</time>
      </trkpt>
      <trkpt lat="43.05001899999932" lon="-1.268123000000001">
        <ele>1255.426</ele>
        <time>2022-08-24T09:58:18Z</time>
      </trkpt>
      <trkpt lat="43.050007999999316" lon="-1.268115000000001">
        <ele>1255.609</ele>
        <time>2022-08-24T09:58:19Z</time>
      </trkpt>
      <trkpt lat="43.049996999999316" lon="-1.268104000000001">
        <ele>1255.849</ele>
        <time>2022-08-24T09:58:20Z</time>
      </trkpt>
      <trkpt lat="43.049985999999315" lon="-1.268092000000001">
        <ele>1255.869</ele>
        <time>2022-08-24T09:58:21Z</time>
      </trkpt>
      <trkpt lat="43.04997299999931" lon="-1.2680830000000012">
        <ele>1256.029</ele>
        <time>2022-08-24T09:58:22Z</time>
      </trkpt>
      <trkpt lat="43.049960999999314" lon="-1.2680730000000011">
        <ele>1256.255</ele>
        <time>2022-08-24T09:58:23Z</time>
      </trkpt>
      <trkpt lat="43.04994799999931" lon="-1.268063000000001">
        <ele>1256.267</ele>
        <time>2022-08-24T09:58:24Z</time>
      </trkpt>
      <trkpt lat="43.04993599999931" lon="-1.268053000000001">
        <ele>1256.224</ele>
        <time>2022-08-24T09:58:25Z</time>
      </trkpt>
      <trkpt lat="43.04992499999931" lon="-1.268043000000001">
        <ele>1256.247</ele>
        <time>2022-08-24T09:58:26Z</time>
      </trkpt>
      <trkpt lat="43.04991399999931" lon="-1.268031000000001">
        <ele>1256.231</ele>
        <time>2022-08-24T09:58:27Z</time>
      </trkpt>
      <trkpt lat="43.04990399999931" lon="-1.268017000000001">
        <ele>1256.440</ele>
        <time>2022-08-24T09:58:28Z</time>
      </trkpt>
      <trkpt lat="43.04989199999931" lon="-1.2680050000000012">
        <ele>1256.477</ele>
        <time>2022-08-24T09:58:29Z</time>
      </trkpt>
      <trkpt lat="43.04988199999931" lon="-1.2679920000000011">
        <ele>1256.461</ele>
        <time>2022-08-24T09:58:30Z</time>
      </trkpt>
      <trkpt lat="43.049871999999304" lon="-1.2679800000000012">
        <ele>1256.427</ele>
        <time>2022-08-24T09:58:31Z</time>
      </trkpt>
      <trkpt lat="43.0498619999993" lon="-1.2679690000000012">
        <ele>1256.409</ele>
        <time>2022-08-24T09:58:32Z</time>
      </trkpt>
      <trkpt lat="43.0498529999993" lon="-1.2679560000000012">
        <ele>1256.418</ele>
        <time>2022-08-24T09:58:33Z</time>
      </trkpt>
      <trkpt lat="43.0498449999993" lon="-1.2679390000000013">
        <ele>1256.458</ele>
        <time>2022-08-24T09:58:34Z</time>
      </trkpt>
      <trkpt lat="43.0498389999993" lon="-1.2679220000000013">
        <ele>1256.478</ele>
        <time>2022-08-24T09:58:35Z</time>
      </trkpt>
      <trkpt lat="43.049831999999306" lon="-1.2679040000000013">
        <ele>1256.624</ele>
        <time>2022-08-24T09:58:36Z</time>
      </trkpt>
      <trkpt lat="43.04982299999931" lon="-1.2678850000000013">
        <ele>1256.626</ele>
        <time>2022-08-24T09:58:37Z</time>
      </trkpt>
      <trkpt lat="43.04981399999931" lon="-1.2678660000000013">
        <ele>1256.873</ele>
        <time>2022-08-24T09:58:38Z</time>
      </trkpt>
      <trkpt lat="43.04980599999931" lon="-1.2678470000000013">
        <ele>1256.856</ele>
        <time>2022-08-24T09:58:39Z</time>
      </trkpt>
      <trkpt lat="43.04979099999931" lon="-1.2678070000000012">
        <ele>1256.860</ele>
        <time>2022-08-24T09:58:41Z</time>
      </trkpt>
      <trkpt lat="43.04976199999931" lon="-1.2677190000000012">
        <ele>1256.829</ele>
        <time>2022-08-24T09:58:45Z</time>
      </trkpt>
      <trkpt lat="43.04975199999931" lon="-1.2676970000000012">
        <ele>1256.858</ele>
        <time>2022-08-24T09:58:46Z</time>
      </trkpt>
      <trkpt lat="43.04972399999931" lon="-1.2676300000000011">
        <ele>1257.052</ele>
        <time>2022-08-24T09:58:49Z</time>
      </trkpt>
      <trkpt lat="43.04970699999931" lon="-1.2675810000000012">
        <ele>1257.017</ele>
        <time>2022-08-24T09:58:51Z</time>
      </trkpt>
      <trkpt lat="43.049696999999306" lon="-1.2675570000000012">
        <ele>1257.009</ele>
        <time>2022-08-24T09:58:52Z</time>
      </trkpt>
      <trkpt lat="43.049677999999304" lon="-1.267509000000001">
        <ele>1257.236</ele>
        <time>2022-08-24T09:58:54Z</time>
      </trkpt>
      <trkpt lat="43.049626999999305" lon="-1.2674110000000012">
        <ele>1257.496</ele>
        <time>2022-08-24T09:58:58Z</time>
      </trkpt>
      <trkpt lat="43.04956399999931" lon="-1.267312000000001">
        <ele>1257.666</ele>
        <time>2022-08-24T09:59:02Z</time>
      </trkpt>
      <trkpt lat="43.049547999999305" lon="-1.2672870000000012">
        <ele>1257.662</ele>
        <time>2022-08-24T09:59:03Z</time>
      </trkpt>
      <trkpt lat="43.04953299999931" lon="-1.2672630000000011">
        <ele>1257.644</ele>
        <time>2022-08-24T09:59:04Z</time>
      </trkpt>
      <trkpt lat="43.04950099999931" lon="-1.2672160000000012">
        <ele>1257.681</ele>
        <time>2022-08-24T09:59:06Z</time>
      </trkpt>
      <trkpt lat="43.04948799999931" lon="-1.2671930000000011">
        <ele>1257.474</ele>
        <time>2022-08-24T09:59:07Z</time>
      </trkpt>
      <trkpt lat="43.04947599999931" lon="-1.2671680000000012">
        <ele>1257.458</ele>
        <time>2022-08-24T09:59:08Z</time>
      </trkpt>
      <trkpt lat="43.04946099999931" lon="-1.2671440000000012">
        <ele>1257.457</ele>
        <time>2022-08-24T09:59:09Z</time>
      </trkpt>
      <trkpt lat="43.049380999999315" lon="-1.2670190000000012">
        <ele>1257.632</ele>
        <time>2022-08-24T09:59:14Z</time>
      </trkpt>
      <trkpt lat="43.049366999999314" lon="-1.2669940000000013">
        <ele>1257.692</ele>
        <time>2022-08-24T09:59:15Z</time>
      </trkpt>
      <trkpt lat="43.04935199999932" lon="-1.2669690000000013">
        <ele>1257.611</ele>
        <time>2022-08-24T09:59:16Z</time>
      </trkpt>
      <trkpt lat="43.04933699999932" lon="-1.2669460000000012">
        <ele>1257.609</ele>
        <time>2022-08-24T09:59:17Z</time>
      </trkpt>
      <trkpt lat="43.04932099999932" lon="-1.2669230000000011">
        <ele>1257.684</ele>
        <time>2022-08-24T09:59:18Z</time>
      </trkpt>
      <trkpt lat="43.049304999999315" lon="-1.266900000000001">
        <ele>1257.644</ele>
        <time>2022-08-24T09:59:19Z</time>
      </trkpt>
      <trkpt lat="43.049287999999315" lon="-1.266879000000001">
        <ele>1257.634</ele>
        <time>2022-08-24T09:59:20Z</time>
      </trkpt>
      <trkpt lat="43.04925599999932" lon="-1.266836000000001">
        <ele>1257.660</ele>
        <time>2022-08-24T09:59:22Z</time>
      </trkpt>
      <trkpt lat="43.04924099999932" lon="-1.266814000000001">
        <ele>1257.842</ele>
        <time>2022-08-24T09:59:23Z</time>
      </trkpt>
      <trkpt lat="43.04921199999932" lon="-1.266774000000001">
        <ele>1257.889</ele>
        <time>2022-08-24T09:59:25Z</time>
      </trkpt>
      <trkpt lat="43.049196999999324" lon="-1.266753000000001">
        <ele>1257.832</ele>
        <time>2022-08-24T09:59:26Z</time>
      </trkpt>
      <trkpt lat="43.04916099999932" lon="-1.266707000000001">
        <ele>1257.876</ele>
        <time>2022-08-24T09:59:28Z</time>
      </trkpt>
      <trkpt lat="43.04897899999932" lon="-1.2664810000000009">
        <ele>1258.045</ele>
        <time>2022-08-24T09:59:38Z</time>
      </trkpt>
      <trkpt lat="43.04894099999932" lon="-1.266434000000001">
        <ele>1258.036</ele>
        <time>2022-08-24T09:59:40Z</time>
      </trkpt>
      <trkpt lat="43.04892299999932" lon="-1.266412000000001">
        <ele>1258.417</ele>
        <time>2022-08-24T09:59:41Z</time>
      </trkpt>
      <trkpt lat="43.04890699999932" lon="-1.266392000000001">
        <ele>1258.418</ele>
        <time>2022-08-24T09:59:42Z</time>
      </trkpt>
      <trkpt lat="43.04888999999932" lon="-1.266371000000001">
        <ele>1258.409</ele>
        <time>2022-08-24T09:59:43Z</time>
      </trkpt>
      <trkpt lat="43.04887299999932" lon="-1.266353000000001">
        <ele>1258.474</ele>
        <time>2022-08-24T09:59:44Z</time>
      </trkpt>
      <trkpt lat="43.04885799999932" lon="-1.2663350000000009">
        <ele>1258.474</ele>
        <time>2022-08-24T09:59:45Z</time>
      </trkpt>
      <trkpt lat="43.04884599999932" lon="-1.266318000000001">
        <ele>1258.464</ele>
        <time>2022-08-24T09:59:46Z</time>
      </trkpt>
      <trkpt lat="43.04883299999932" lon="-1.266301000000001">
        <ele>1258.480</ele>
        <time>2022-08-24T09:59:47Z</time>
      </trkpt>
      <trkpt lat="43.04882099999932" lon="-1.266285000000001">
        <ele>1258.422</ele>
        <time>2022-08-24T09:59:48Z</time>
      </trkpt>
      <trkpt lat="43.04880999999932" lon="-1.266271000000001">
        <ele>1258.449</ele>
        <time>2022-08-24T09:59:49Z</time>
      </trkpt>
      <trkpt lat="43.04880099999932" lon="-1.266260000000001">
        <ele>1258.642</ele>
        <time>2022-08-24T09:59:50Z</time>
      </trkpt>
      <trkpt lat="43.04879099999932" lon="-1.266246000000001">
        <ele>1258.646</ele>
        <time>2022-08-24T09:59:51Z</time>
      </trkpt>
      <trkpt lat="43.04877999999932" lon="-1.266231000000001">
        <ele>1258.685</ele>
        <time>2022-08-24T09:59:52Z</time>
      </trkpt>
      <trkpt lat="43.04876499999932" lon="-1.266211000000001">
        <ele>1258.634</ele>
        <time>2022-08-24T09:59:53Z</time>
      </trkpt>
      <trkpt lat="43.04871899999932" lon="-1.266142000000001">
        <ele>1258.855</ele>
        <time>2022-08-24T09:59:56Z</time>
      </trkpt>
      <trkpt lat="43.048605999999324" lon="-1.265989000000001">
        <ele>1259.010</ele>
        <time>2022-08-24T10:00:02Z</time>
      </trkpt>
      <trkpt lat="43.04858799999933" lon="-1.2659680000000009">
        <ele>1259.209</ele>
        <time>2022-08-24T10:00:03Z</time>
      </trkpt>
      <trkpt lat="43.04857599999933" lon="-1.265943000000001">
        <ele>1259.254</ele>
        <time>2022-08-24T10:00:04Z</time>
      </trkpt>
      <trkpt lat="43.04856299999933" lon="-1.2659200000000008">
        <ele>1259.284</ele>
        <time>2022-08-24T10:00:05Z</time>
      </trkpt>
      <trkpt lat="43.04854799999933" lon="-1.2658990000000008">
        <ele>1259.234</ele>
        <time>2022-08-24T10:00:06Z</time>
      </trkpt>
      <trkpt lat="43.04851099999933" lon="-1.2658560000000008">
        <ele>1259.430</ele>
        <time>2022-08-24T10:00:08Z</time>
      </trkpt>
      <trkpt lat="43.04848799999933" lon="-1.2658400000000007">
        <ele>1259.692</ele>
        <time>2022-08-24T10:00:09Z</time>
      </trkpt>
      <trkpt lat="43.048466999999334" lon="-1.2658230000000008">
        <ele>1259.649</ele>
        <time>2022-08-24T10:00:10Z</time>
      </trkpt>
      <trkpt lat="43.04844599999934" lon="-1.2658080000000007">
        <ele>1259.862</ele>
        <time>2022-08-24T10:00:11Z</time>
      </trkpt>
      <trkpt lat="43.04842499999934" lon="-1.2657910000000008">
        <ele>1259.896</ele>
        <time>2022-08-24T10:00:12Z</time>
      </trkpt>
      <trkpt lat="43.048341999999344" lon="-1.2657200000000008">
        <ele>1260.475</ele>
        <time>2022-08-24T10:00:16Z</time>
      </trkpt>
      <trkpt lat="43.04831999999934" lon="-1.2657010000000009">
        <ele>1260.415</ele>
        <time>2022-08-24T10:00:17Z</time>
      </trkpt>
      <trkpt lat="43.048251999999344" lon="-1.2656400000000008">
        <ele>1260.465</ele>
        <time>2022-08-24T10:00:20Z</time>
      </trkpt>
      <trkpt lat="43.04820499999934" lon="-1.2656020000000008">
        <ele>1260.411</ele>
        <time>2022-08-24T10:00:22Z</time>
      </trkpt>
      <trkpt lat="43.04818199999934" lon="-1.2655840000000007">
        <ele>1260.609</ele>
        <time>2022-08-24T10:00:23Z</time>
      </trkpt>
      <trkpt lat="43.04815999999934" lon="-1.2655680000000007">
        <ele>1260.662</ele>
        <time>2022-08-24T10:00:24Z</time>
      </trkpt>
      <trkpt lat="43.04813799999934" lon="-1.2655530000000006">
        <ele>1260.852</ele>
        <time>2022-08-24T10:00:25Z</time>
      </trkpt>
      <trkpt lat="43.04811799999934" lon="-1.2655390000000006">
        <ele>1260.822</ele>
        <time>2022-08-24T10:00:26Z</time>
      </trkpt>
      <trkpt lat="43.048096999999345" lon="-1.2655280000000007">
        <ele>1261.068</ele>
        <time>2022-08-24T10:00:27Z</time>
      </trkpt>
      <trkpt lat="43.04807899999935" lon="-1.2655140000000007">
        <ele>1261.040</ele>
        <time>2022-08-24T10:00:28Z</time>
      </trkpt>
      <trkpt lat="43.04806199999935" lon="-1.2655010000000007">
        <ele>1261.077</ele>
        <time>2022-08-24T10:00:29Z</time>
      </trkpt>
      <trkpt lat="43.04804799999935" lon="-1.2654880000000006">
        <ele>1261.020</ele>
        <time>2022-08-24T10:00:30Z</time>
      </trkpt>
      <trkpt lat="43.048034999999345" lon="-1.2654740000000007">
        <ele>1261.294</ele>
        <time>2022-08-24T10:00:31Z</time>
      </trkpt>
      <trkpt lat="43.04802299999935" lon="-1.2654620000000008">
        <ele>1261.473</ele>
        <time>2022-08-24T10:00:32Z</time>
      </trkpt>
      <trkpt lat="43.04800899999935" lon="-1.2654550000000007">
        <ele>1261.414</ele>
        <time>2022-08-24T10:00:33Z</time>
      </trkpt>
      <trkpt lat="43.047992999999344" lon="-1.2654470000000007">
        <ele>1261.454</ele>
        <time>2022-08-24T10:00:34Z</time>
      </trkpt>
      <trkpt lat="43.047978999999344" lon="-1.2654390000000006">
        <ele>1261.209</ele>
        <time>2022-08-24T10:00:35Z</time>
      </trkpt>
      <trkpt lat="43.047966999999346" lon="-1.2654310000000006">
        <ele>1261.209</ele>
        <time>2022-08-24T10:00:36Z</time>
      </trkpt>
      <trkpt lat="43.04795699999934" lon="-1.2654230000000006">
        <ele>1261.222</ele>
        <time>2022-08-24T10:00:37Z</time>
      </trkpt>
      <trkpt lat="43.047944999999345" lon="-1.2654140000000007">
        <ele>1261.282</ele>
        <time>2022-08-24T10:00:38Z</time>
      </trkpt>
      <trkpt lat="43.04793499999934" lon="-1.2654100000000008">
        <ele>1261.232</ele>
        <time>2022-08-24T10:00:39Z</time>
      </trkpt>
      <trkpt lat="43.04792499999934" lon="-1.265406000000001">
        <ele>1261.068</ele>
        <time>2022-08-24T10:00:40Z</time>
      </trkpt>
      <trkpt lat="43.04791799999934" lon="-1.2654010000000009">
        <ele>1261.030</ele>
        <time>2022-08-24T10:00:41Z</time>
      </trkpt>
      <trkpt lat="43.04790899999934" lon="-1.265398000000001">
        <ele>1261.057</ele>
        <time>2022-08-24T10:00:42Z</time>
      </trkpt>
      <trkpt lat="43.04790099999934" lon="-1.265389000000001">
        <ele>1261.060</ele>
        <time>2022-08-24T10:00:43Z</time>
      </trkpt>
      <trkpt lat="43.04789599999934" lon="-1.265378000000001">
        <ele>1261.084</ele>
        <time>2022-08-24T10:00:44Z</time>
      </trkpt>
      <trkpt lat="43.04788699999934" lon="-1.265370000000001">
        <ele>1261.093</ele>
        <time>2022-08-24T10:00:45Z</time>
      </trkpt>
      <trkpt lat="43.047874999999344" lon="-1.265362000000001">
        <ele>1261.075</ele>
        <time>2022-08-24T10:00:46Z</time>
      </trkpt>
      <trkpt lat="43.047848999999346" lon="-1.265346000000001">
        <ele>1261.028</ele>
        <time>2022-08-24T10:00:48Z</time>
      </trkpt>
      <trkpt lat="43.04782799999935" lon="-1.265333000000001">
        <ele>1261.220</ele>
        <time>2022-08-24T10:00:49Z</time>
      </trkpt>
      <trkpt lat="43.04775799999935" lon="-1.265293000000001">
        <ele>1261.409</ele>
        <time>2022-08-24T10:00:52Z</time>
      </trkpt>
      <trkpt lat="43.047612999999345" lon="-1.2651910000000008">
        <ele>1261.628</ele>
        <time>2022-08-24T10:00:58Z</time>
      </trkpt>
      <trkpt lat="43.047589999999346" lon="-1.2651760000000007">
        <ele>1261.858</ele>
        <time>2022-08-24T10:00:59Z</time>
      </trkpt>
      <trkpt lat="43.047525999999344" lon="-1.2651290000000008">
        <ele>1261.878</ele>
        <time>2022-08-24T10:01:02Z</time>
      </trkpt>
      <trkpt lat="43.047502999999345" lon="-1.2651160000000008">
        <ele>1262.074</ele>
        <time>2022-08-24T10:01:03Z</time>
      </trkpt>
      <trkpt lat="43.04747999999935" lon="-1.2651010000000007">
        <ele>1262.076</ele>
        <time>2022-08-24T10:01:04Z</time>
      </trkpt>
      <trkpt lat="43.04745899999935" lon="-1.2650880000000007">
        <ele>1262.283</ele>
        <time>2022-08-24T10:01:05Z</time>
      </trkpt>
      <trkpt lat="43.04743899999935" lon="-1.2650770000000007">
        <ele>1262.296</ele>
        <time>2022-08-24T10:01:06Z</time>
      </trkpt>
      <trkpt lat="43.04741999999935" lon="-1.2650650000000008">
        <ele>1262.280</ele>
        <time>2022-08-24T10:01:07Z</time>
      </trkpt>
      <trkpt lat="43.04740099999935" lon="-1.2650520000000007">
        <ele>1262.429</ele>
        <time>2022-08-24T10:01:08Z</time>
      </trkpt>
      <trkpt lat="43.04733499999935" lon="-1.2650150000000007">
        <ele>1262.866</ele>
        <time>2022-08-24T10:01:11Z</time>
      </trkpt>
      <trkpt lat="43.04729299999935" lon="-1.2649960000000007">
        <ele>1263.029</ele>
        <time>2022-08-24T10:01:13Z</time>
      </trkpt>
      <trkpt lat="43.04726699999935" lon="-1.2649810000000006">
        <ele>1263.221</ele>
        <time>2022-08-24T10:01:14Z</time>
      </trkpt>
      <trkpt lat="43.04721399999935" lon="-1.2649500000000007">
        <ele>1263.209</ele>
        <time>2022-08-24T10:01:16Z</time>
      </trkpt>
      <trkpt lat="43.04719199999935" lon="-1.2649420000000007">
        <ele>1263.687</ele>
        <time>2022-08-24T10:01:17Z</time>
      </trkpt>
      <trkpt lat="43.04717099999935" lon="-1.2649340000000007">
        <ele>1263.677</ele>
        <time>2022-08-24T10:01:18Z</time>
      </trkpt>
      <trkpt lat="43.047152999999355" lon="-1.2649220000000008">
        <ele>1264.067</ele>
        <time>2022-08-24T10:01:19Z</time>
      </trkpt>
      <trkpt lat="43.04713499999936" lon="-1.2649080000000008">
        <ele>1264.033</ele>
        <time>2022-08-24T10:01:20Z</time>
      </trkpt>
      <trkpt lat="43.047110999999354" lon="-1.2648970000000008">
        <ele>1264.015</ele>
        <time>2022-08-24T10:01:21Z</time>
      </trkpt>
      <trkpt lat="43.04708999999936" lon="-1.264885000000001">
        <ele>1264.012</ele>
        <time>2022-08-24T10:01:22Z</time>
      </trkpt>
      <trkpt lat="43.047073999999355" lon="-1.264876000000001">
        <ele>1264.295</ele>
        <time>2022-08-24T10:01:23Z</time>
      </trkpt>
      <trkpt lat="43.047053999999356" lon="-1.264863000000001">
        <ele>1264.289</ele>
        <time>2022-08-24T10:01:24Z</time>
      </trkpt>
      <trkpt lat="43.04703699999936" lon="-1.2648480000000009">
        <ele>1264.428</ele>
        <time>2022-08-24T10:01:25Z</time>
      </trkpt>
      <trkpt lat="43.047022999999356" lon="-1.2648350000000008">
        <ele>1264.471</ele>
        <time>2022-08-24T10:01:26Z</time>
      </trkpt>
      <trkpt lat="43.04700799999936" lon="-1.2648240000000008">
        <ele>1264.641</ele>
        <time>2022-08-24T10:01:27Z</time>
      </trkpt>
      <trkpt lat="43.04698899999936" lon="-1.2648140000000008">
        <ele>1264.415</ele>
        <time>2022-08-24T10:01:28Z</time>
      </trkpt>
      <trkpt lat="43.046975999999354" lon="-1.2648040000000007">
        <ele>1264.609</ele>
        <time>2022-08-24T10:01:29Z</time>
      </trkpt>
      <trkpt lat="43.04695799999936" lon="-1.2647880000000007">
        <ele>1264.838</ele>
        <time>2022-08-24T10:01:30Z</time>
      </trkpt>
      <trkpt lat="43.04694399999936" lon="-1.2647820000000007">
        <ele>1264.878</ele>
        <time>2022-08-24T10:01:31Z</time>
      </trkpt>
      <trkpt lat="43.04692899999936" lon="-1.2647710000000008">
        <ele>1265.068</ele>
        <time>2022-08-24T10:01:32Z</time>
      </trkpt>
      <trkpt lat="43.04691499999936" lon="-1.2647660000000007">
        <ele>1265.224</ele>
        <time>2022-08-24T10:01:33Z</time>
      </trkpt>
      <trkpt lat="43.04691199999936" lon="-1.2647610000000007">
        <ele>1265.236</ele>
        <time>2022-08-24T10:01:34Z</time>
      </trkpt>
      <trkpt lat="43.04689499999936" lon="-1.2647380000000006">
        <ele>1264.893</ele>
        <time>2022-08-24T10:03:46Z</time>
      </trkpt>
      <trkpt lat="43.04689499999936" lon="-1.2647380000000006">
        <ele>1264.846</ele>
        <time>2022-08-24T10:03:47Z</time>
      </trkpt>
      <trkpt lat="43.04689499999936" lon="-1.2647380000000006">
        <ele>1264.840</ele>
        <time>2022-08-24T10:03:48Z</time>
      </trkpt>
      <trkpt lat="43.04689499999936" lon="-1.2647380000000006">
        <ele>1264.849</ele>
        <time>2022-08-24T10:03:49Z</time>
      </trkpt>
      <trkpt lat="43.04689299999936" lon="-1.2647390000000005">
        <ele>1264.866</ele>
        <time>2022-08-24T10:03:50Z</time>
      </trkpt>
      <trkpt lat="43.046876999999355" lon="-1.2647410000000006">
        <ele>1264.629</ele>
        <time>2022-08-24T10:03:51Z</time>
      </trkpt>
      <trkpt lat="43.046842999999356" lon="-1.2647540000000006">
        <ele>1264.621</ele>
        <time>2022-08-24T10:03:53Z</time>
      </trkpt>
      <trkpt lat="43.04683599999936" lon="-1.2647600000000006">
        <ele>1264.409</ele>
        <time>2022-08-24T10:03:54Z</time>
      </trkpt>
      <trkpt lat="43.04683299999936" lon="-1.2647610000000005">
        <ele>1264.287</ele>
        <time>2022-08-24T10:04:00Z</time>
      </trkpt>
      <trkpt lat="43.04681699999936" lon="-1.2647600000000006">
        <ele>1264.217</ele>
        <time>2022-08-24T10:04:01Z</time>
      </trkpt>
      <trkpt lat="43.04666499999936" lon="-1.2647690000000005">
        <ele>1264.657</ele>
        <time>2022-08-24T10:04:08Z</time>
      </trkpt>
      <trkpt lat="43.04660899999936" lon="-1.2647680000000006">
        <ele>1264.613</ele>
        <time>2022-08-24T10:04:10Z</time>
      </trkpt>
      <trkpt lat="43.04652599999936" lon="-1.2647600000000006">
        <ele>1264.695</ele>
        <time>2022-08-24T10:04:14Z</time>
      </trkpt>
      <trkpt lat="43.04645399999936" lon="-1.2647600000000006">
        <ele>1264.452</ele>
        <time>2022-08-24T10:04:17Z</time>
      </trkpt>
      <trkpt lat="43.04643099999936" lon="-1.2647570000000006">
        <ele>1264.425</ele>
        <time>2022-08-24T10:04:18Z</time>
      </trkpt>
      <trkpt lat="43.04635399999936" lon="-1.2647580000000005">
        <ele>1264.229</ele>
        <time>2022-08-24T10:04:21Z</time>
      </trkpt>
      <trkpt lat="43.04632799999936" lon="-1.2647600000000006">
        <ele>1264.228</ele>
        <time>2022-08-24T10:04:22Z</time>
      </trkpt>
      <trkpt lat="43.04630099999936" lon="-1.2647620000000006">
        <ele>1264.222</ele>
        <time>2022-08-24T10:04:23Z</time>
      </trkpt>
      <trkpt lat="43.04627499999936" lon="-1.2647630000000005">
        <ele>1264.262</ele>
        <time>2022-08-24T10:04:24Z</time>
      </trkpt>
      <trkpt lat="43.04624799999936" lon="-1.2647610000000005">
        <ele>1264.208</ele>
        <time>2022-08-24T10:04:25Z</time>
      </trkpt>
      <trkpt lat="43.046175999999356" lon="-1.2647680000000006">
        <ele>1264.609</ele>
        <time>2022-08-24T10:04:28Z</time>
      </trkpt>
      <trkpt lat="43.046153999999355" lon="-1.2647710000000005">
        <ele>1265.013</ele>
        <time>2022-08-24T10:04:29Z</time>
      </trkpt>
      <trkpt lat="43.04613299999936" lon="-1.2647710000000005">
        <ele>1265.043</ele>
        <time>2022-08-24T10:04:30Z</time>
      </trkpt>
      <trkpt lat="43.04611299999936" lon="-1.2647730000000006">
        <ele>1265.243</ele>
        <time>2022-08-24T10:04:31Z</time>
      </trkpt>
      <trkpt lat="43.04609399999936" lon="-1.2647730000000006">
        <ele>1265.229</ele>
        <time>2022-08-24T10:04:32Z</time>
      </trkpt>
      <trkpt lat="43.04607699999936" lon="-1.2647710000000005">
        <ele>1265.241</ele>
        <time>2022-08-24T10:04:33Z</time>
      </trkpt>
      <trkpt lat="43.046057999999356" lon="-1.2647720000000005">
        <ele>1265.248</ele>
        <time>2022-08-24T10:04:34Z</time>
      </trkpt>
      <trkpt lat="43.045992999999356" lon="-1.2647850000000005">
        <ele>1265.241</ele>
        <time>2022-08-24T10:04:37Z</time>
      </trkpt>
      <trkpt lat="43.04597199999936" lon="-1.2647840000000006">
        <ele>1265.245</ele>
        <time>2022-08-24T10:04:38Z</time>
      </trkpt>
      <trkpt lat="43.04595199999936" lon="-1.2647800000000007">
        <ele>1265.274</ele>
        <time>2022-08-24T10:04:39Z</time>
      </trkpt>
      <trkpt lat="43.04593699999936" lon="-1.2647810000000006">
        <ele>1265.046</ele>
        <time>2022-08-24T10:04:40Z</time>
      </trkpt>
      <trkpt lat="43.045921999999365" lon="-1.2647850000000005">
        <ele>1265.088</ele>
        <time>2022-08-24T10:04:41Z</time>
      </trkpt>
      <trkpt lat="43.04590599999936" lon="-1.2647850000000005">
        <ele>1265.016</ele>
        <time>2022-08-24T10:04:42Z</time>
      </trkpt>
      <trkpt lat="43.04588999999936" lon="-1.2647890000000004">
        <ele>1265.209</ele>
        <time>2022-08-24T10:04:43Z</time>
      </trkpt>
      <trkpt lat="43.04587499999936" lon="-1.2647950000000003">
        <ele>1265.245</ele>
        <time>2022-08-24T10:04:44Z</time>
      </trkpt>
      <trkpt lat="43.04585899999936" lon="-1.2647990000000002">
        <ele>1265.425</ele>
        <time>2022-08-24T10:04:45Z</time>
      </trkpt>
      <trkpt lat="43.04576999999936" lon="-1.2648180000000002">
        <ele>1266.055</ele>
        <time>2022-08-24T10:04:50Z</time>
      </trkpt>
      <trkpt lat="43.045756999999355" lon="-1.2648210000000002">
        <ele>1266.021</ele>
        <time>2022-08-24T10:04:51Z</time>
      </trkpt>
      <trkpt lat="43.04574199999936" lon="-1.2648240000000002">
        <ele>1266.253</ele>
        <time>2022-08-24T10:04:52Z</time>
      </trkpt>
      <trkpt lat="43.04572799999936" lon="-1.2648290000000002">
        <ele>1266.240</ele>
        <time>2022-08-24T10:04:53Z</time>
      </trkpt>
      <trkpt lat="43.04571399999936" lon="-1.2648310000000003">
        <ele>1266.893</ele>
        <time>2022-08-24T10:04:54Z</time>
      </trkpt>
      <trkpt lat="43.045700999999355" lon="-1.2648360000000003">
        <ele>1267.267</ele>
        <time>2022-08-24T10:04:55Z</time>
      </trkpt>
      <trkpt lat="43.04563199999935" lon="-1.2648510000000004">
        <ele>1267.846</ele>
        <time>2022-08-24T10:04:59Z</time>
      </trkpt>
      <trkpt lat="43.04559599999935" lon="-1.2648610000000005">
        <ele>1268.244</ele>
        <time>2022-08-24T10:05:01Z</time>
      </trkpt>
      <trkpt lat="43.04557699999935" lon="-1.2648620000000004">
        <ele>1268.205</ele>
        <time>2022-08-24T10:05:02Z</time>
      </trkpt>
      <trkpt lat="43.04555999999935" lon="-1.2648620000000004">
        <ele>1268.415</ele>
        <time>2022-08-24T10:05:03Z</time>
      </trkpt>
      <trkpt lat="43.04554599999935" lon="-1.2648610000000005">
        <ele>1268.409</ele>
        <time>2022-08-24T10:05:04Z</time>
      </trkpt>
      <trkpt lat="43.04553199999935" lon="-1.2648630000000005">
        <ele>1268.475</ele>
        <time>2022-08-24T10:05:05Z</time>
      </trkpt>
      <trkpt lat="43.04551699999935" lon="-1.2648660000000005">
        <ele>1268.645</ele>
        <time>2022-08-24T10:05:06Z</time>
      </trkpt>
      <trkpt lat="43.04550299999935" lon="-1.2648680000000005">
        <ele>1268.655</ele>
        <time>2022-08-24T10:05:07Z</time>
      </trkpt>
      <trkpt lat="43.04548699999935" lon="-1.2648710000000005">
        <ele>1268.671</ele>
        <time>2022-08-24T10:05:08Z</time>
      </trkpt>
      <trkpt lat="43.045473999999345" lon="-1.2648690000000005">
        <ele>1268.813</ele>
        <time>2022-08-24T10:05:09Z</time>
      </trkpt>
      <trkpt lat="43.045456999999345" lon="-1.2648650000000006">
        <ele>1269.040</ele>
        <time>2022-08-24T10:05:10Z</time>
      </trkpt>
      <trkpt lat="43.045436999999346" lon="-1.2648620000000006">
        <ele>1269.283</ele>
        <time>2022-08-24T10:05:11Z</time>
      </trkpt>
      <trkpt lat="43.045420999999344" lon="-1.2648610000000007">
        <ele>1269.427</ele>
        <time>2022-08-24T10:05:12Z</time>
      </trkpt>
      <trkpt lat="43.045406999999344" lon="-1.2648620000000006">
        <ele>1269.646</ele>
        <time>2022-08-24T10:05:13Z</time>
      </trkpt>
      <trkpt lat="43.045394999999345" lon="-1.2648630000000005">
        <ele>1269.886</ele>
        <time>2022-08-24T10:05:14Z</time>
      </trkpt>
      <trkpt lat="43.04538199999934" lon="-1.2648660000000005">
        <ele>1269.860</ele>
        <time>2022-08-24T10:05:15Z</time>
      </trkpt>
      <trkpt lat="43.045369999999345" lon="-1.2648710000000005">
        <ele>1270.026</ele>
        <time>2022-08-24T10:05:16Z</time>
      </trkpt>
      <trkpt lat="43.04535499999935" lon="-1.2648760000000006">
        <ele>1270.009</ele>
        <time>2022-08-24T10:05:17Z</time>
      </trkpt>
      <trkpt lat="43.045343999999346" lon="-1.2648800000000004">
        <ele>1270.249</ele>
        <time>2022-08-24T10:05:18Z</time>
      </trkpt>
      <trkpt lat="43.04533199999935" lon="-1.2648880000000005">
        <ele>1270.439</ele>
        <time>2022-08-24T10:05:19Z</time>
      </trkpt>
      <trkpt lat="43.045321999999345" lon="-1.2648970000000004">
        <ele>1270.629</ele>
        <time>2022-08-24T10:05:20Z</time>
      </trkpt>
      <trkpt lat="43.04531299999935" lon="-1.2649070000000004">
        <ele>1271.085</ele>
        <time>2022-08-24T10:05:21Z</time>
      </trkpt>
      <trkpt lat="43.04530699999935" lon="-1.2649170000000005">
        <ele>1271.077</ele>
        <time>2022-08-24T10:05:22Z</time>
      </trkpt>
      <trkpt lat="43.04529999999935" lon="-1.2649270000000006">
        <ele>1271.244</ele>
        <time>2022-08-24T10:05:23Z</time>
      </trkpt>
      <trkpt lat="43.045292999999354" lon="-1.2649380000000006">
        <ele>1271.447</ele>
        <time>2022-08-24T10:05:24Z</time>
      </trkpt>
      <trkpt lat="43.04528599999936" lon="-1.2649500000000005">
        <ele>1271.651</ele>
        <time>2022-08-24T10:05:25Z</time>
      </trkpt>
      <trkpt lat="43.045275999999355" lon="-1.2649600000000005">
        <ele>1271.870</ele>
        <time>2022-08-24T10:05:26Z</time>
      </trkpt>
      <trkpt lat="43.045266999999356" lon="-1.2649720000000004">
        <ele>1271.883</ele>
        <time>2022-08-24T10:05:27Z</time>
      </trkpt>
      <trkpt lat="43.045255999999355" lon="-1.2649830000000004">
        <ele>1272.025</ele>
        <time>2022-08-24T10:05:28Z</time>
      </trkpt>
      <trkpt lat="43.045241999999355" lon="-1.2649950000000003">
        <ele>1272.017</ele>
        <time>2022-08-24T10:05:29Z</time>
      </trkpt>
      <trkpt lat="43.04523299999936" lon="-1.2650070000000002">
        <ele>1272.209</ele>
        <time>2022-08-24T10:05:30Z</time>
      </trkpt>
      <trkpt lat="43.045221999999356" lon="-1.2650200000000003">
        <ele>1272.429</ele>
        <time>2022-08-24T10:05:31Z</time>
      </trkpt>
      <trkpt lat="43.045213999999355" lon="-1.2650350000000004">
        <ele>1272.479</ele>
        <time>2022-08-24T10:05:32Z</time>
      </trkpt>
      <trkpt lat="43.045204999999356" lon="-1.2650490000000003">
        <ele>1272.859</ele>
        <time>2022-08-24T10:05:33Z</time>
      </trkpt>
      <trkpt lat="43.04519599999936" lon="-1.2650620000000004">
        <ele>1273.075</ele>
        <time>2022-08-24T10:05:34Z</time>
      </trkpt>
      <trkpt lat="43.04518699999936" lon="-1.2650770000000005">
        <ele>1273.297</ele>
        <time>2022-08-24T10:05:35Z</time>
      </trkpt>
      <trkpt lat="43.04517799999936" lon="-1.2650910000000004">
        <ele>1273.254</ele>
        <time>2022-08-24T10:05:36Z</time>
      </trkpt>
      <trkpt lat="43.04516799999936" lon="-1.2651050000000004">
        <ele>1273.477</ele>
        <time>2022-08-24T10:05:37Z</time>
      </trkpt>
      <trkpt lat="43.04515899999936" lon="-1.2651170000000003">
        <ele>1273.471</ele>
        <time>2022-08-24T10:05:38Z</time>
      </trkpt>
      <trkpt lat="43.04514999999936" lon="-1.2651300000000003">
        <ele>1273.470</ele>
        <time>2022-08-24T10:05:39Z</time>
      </trkpt>
      <trkpt lat="43.04514199999936" lon="-1.2651430000000004">
        <ele>1273.863</ele>
        <time>2022-08-24T10:05:40Z</time>
      </trkpt>
      <trkpt lat="43.045131999999356" lon="-1.2651560000000004">
        <ele>1273.844</ele>
        <time>2022-08-24T10:05:41Z</time>
      </trkpt>
      <trkpt lat="43.04512599999936" lon="-1.2651720000000004">
        <ele>1274.018</ele>
        <time>2022-08-24T10:05:42Z</time>
      </trkpt>
      <trkpt lat="43.045115999999354" lon="-1.2651830000000004">
        <ele>1274.009</ele>
        <time>2022-08-24T10:05:43Z</time>
      </trkpt>
      <trkpt lat="43.045106999999355" lon="-1.2651930000000005">
        <ele>1274.297</ele>
        <time>2022-08-24T10:05:44Z</time>
      </trkpt>
      <trkpt lat="43.045097999999356" lon="-1.2652040000000004">
        <ele>1274.657</ele>
        <time>2022-08-24T10:05:45Z</time>
      </trkpt>
      <trkpt lat="43.04508799999935" lon="-1.2652150000000004">
        <ele>1274.887</ele>
        <time>2022-08-24T10:05:46Z</time>
      </trkpt>
      <trkpt lat="43.04507699999935" lon="-1.2652300000000005">
        <ele>1274.853</ele>
        <time>2022-08-24T10:05:47Z</time>
      </trkpt>
      <trkpt lat="43.04506599999935" lon="-1.2652420000000004">
        <ele>1275.045</ele>
        <time>2022-08-24T10:05:48Z</time>
      </trkpt>
      <trkpt lat="43.04505599999935" lon="-1.2652540000000003">
        <ele>1275.052</ele>
        <time>2022-08-24T10:05:49Z</time>
      </trkpt>
      <trkpt lat="43.045042999999346" lon="-1.2652650000000003">
        <ele>1275.055</ele>
        <time>2022-08-24T10:05:50Z</time>
      </trkpt>
      <trkpt lat="43.045031999999345" lon="-1.2652750000000004">
        <ele>1275.039</ele>
        <time>2022-08-24T10:05:51Z</time>
      </trkpt>
      <trkpt lat="43.04502299999935" lon="-1.2652840000000003">
        <ele>1275.298</ele>
        <time>2022-08-24T10:05:52Z</time>
      </trkpt>
      <trkpt lat="43.04501099999935" lon="-1.2652940000000004">
        <ele>1275.456</ele>
        <time>2022-08-24T10:05:53Z</time>
      </trkpt>
      <trkpt lat="43.044997999999346" lon="-1.2653070000000004">
        <ele>1275.659</ele>
        <time>2022-08-24T10:05:54Z</time>
      </trkpt>
      <trkpt lat="43.044986999999345" lon="-1.2653210000000004">
        <ele>1275.614</ele>
        <time>2022-08-24T10:05:55Z</time>
      </trkpt>
      <trkpt lat="43.04497499999935" lon="-1.2653330000000003">
        <ele>1275.809</ele>
        <time>2022-08-24T10:05:56Z</time>
      </trkpt>
      <trkpt lat="43.044964999999344" lon="-1.2653480000000004">
        <ele>1275.896</ele>
        <time>2022-08-24T10:05:57Z</time>
      </trkpt>
      <trkpt lat="43.04495399999934" lon="-1.2653640000000004">
        <ele>1276.086</ele>
        <time>2022-08-24T10:05:58Z</time>
      </trkpt>
      <trkpt lat="43.044941999999345" lon="-1.2653820000000005">
        <ele>1276.086</ele>
        <time>2022-08-24T10:05:59Z</time>
      </trkpt>
      <trkpt lat="43.044930999999345" lon="-1.2653960000000004">
        <ele>1276.282</ele>
        <time>2022-08-24T10:06:00Z</time>
      </trkpt>
      <trkpt lat="43.04491799999934" lon="-1.2654100000000004">
        <ele>1276.234</ele>
        <time>2022-08-24T10:06:01Z</time>
      </trkpt>
      <trkpt lat="43.04490499999934" lon="-1.2654300000000003">
        <ele>1276.421</ele>
        <time>2022-08-24T10:06:02Z</time>
      </trkpt>
      <trkpt lat="43.04489399999934" lon="-1.2654480000000004">
        <ele>1276.444</ele>
        <time>2022-08-24T10:06:03Z</time>
      </trkpt>
      <trkpt lat="43.044880999999336" lon="-1.2654630000000004">
        <ele>1276.488</ele>
        <time>2022-08-24T10:06:04Z</time>
      </trkpt>
      <trkpt lat="43.044869999999335" lon="-1.2654770000000004">
        <ele>1276.657</ele>
        <time>2022-08-24T10:06:05Z</time>
      </trkpt>
      <trkpt lat="43.04485999999933" lon="-1.2654910000000004">
        <ele>1276.892</ele>
        <time>2022-08-24T10:06:06Z</time>
      </trkpt>
      <trkpt lat="43.04485099999933" lon="-1.2655050000000003">
        <ele>1276.873</ele>
        <time>2022-08-24T10:06:07Z</time>
      </trkpt>
      <trkpt lat="43.04484299999933" lon="-1.2655180000000004">
        <ele>1277.220</ele>
        <time>2022-08-24T10:06:08Z</time>
      </trkpt>
      <trkpt lat="43.044833999999334" lon="-1.2655330000000005">
        <ele>1277.209</ele>
        <time>2022-08-24T10:06:09Z</time>
      </trkpt>
      <trkpt lat="43.04482299999933" lon="-1.2655470000000004">
        <ele>1277.440</ele>
        <time>2022-08-24T10:06:10Z</time>
      </trkpt>
      <trkpt lat="43.044813999999334" lon="-1.2655590000000003">
        <ele>1277.480</ele>
        <time>2022-08-24T10:06:11Z</time>
      </trkpt>
      <trkpt lat="43.04480399999933" lon="-1.2655720000000004">
        <ele>1277.450</ele>
        <time>2022-08-24T10:06:12Z</time>
      </trkpt>
      <trkpt lat="43.04479399999933" lon="-1.2655800000000004">
        <ele>1277.666</ele>
        <time>2022-08-24T10:06:13Z</time>
      </trkpt>
      <trkpt lat="43.04478699999933" lon="-1.2655890000000003">
        <ele>1277.688</ele>
        <time>2022-08-24T10:06:14Z</time>
      </trkpt>
      <trkpt lat="43.04477799999933" lon="-1.2656010000000002">
        <ele>1277.825</ele>
        <time>2022-08-24T10:06:15Z</time>
      </trkpt>
      <trkpt lat="43.044770999999336" lon="-1.2656150000000002">
        <ele>1278.048</ele>
        <time>2022-08-24T10:06:16Z</time>
      </trkpt>
      <trkpt lat="43.044762999999335" lon="-1.265627">
        <ele>1278.272</ele>
        <time>2022-08-24T10:06:17Z</time>
      </trkpt>
      <trkpt lat="43.04475599999934" lon="-1.265643">
        <ele>1278.411</ele>
        <time>2022-08-24T10:06:18Z</time>
      </trkpt>
      <trkpt lat="43.04475099999934" lon="-1.265665">
        <ele>1278.478</ele>
        <time>2022-08-24T10:06:19Z</time>
      </trkpt>
      <trkpt lat="43.04474399999934" lon="-1.265689">
        <ele>1278.433</ele>
        <time>2022-08-24T10:06:20Z</time>
      </trkpt>
      <trkpt lat="43.04473499999934" lon="-1.265711">
        <ele>1278.426</ele>
        <time>2022-08-24T10:06:21Z</time>
      </trkpt>
      <trkpt lat="43.044727999999346" lon="-1.265736">
        <ele>1278.609</ele>
        <time>2022-08-24T10:06:22Z</time>
      </trkpt>
      <trkpt lat="43.04471899999935" lon="-1.26576">
        <ele>1278.638</ele>
        <time>2022-08-24T10:06:23Z</time>
      </trkpt>
      <trkpt lat="43.04471299999935" lon="-1.265788">
        <ele>1278.838</ele>
        <time>2022-08-24T10:06:24Z</time>
      </trkpt>
      <trkpt lat="43.04470999999935" lon="-1.2658179999999999">
        <ele>1278.888</ele>
        <time>2022-08-24T10:06:25Z</time>
      </trkpt>
      <trkpt lat="43.044707999999346" lon="-1.2658449999999999">
        <ele>1279.034</ele>
        <time>2022-08-24T10:06:26Z</time>
      </trkpt>
      <trkpt lat="43.044702999999345" lon="-1.2658719999999999">
        <ele>1279.076</ele>
        <time>2022-08-24T10:06:27Z</time>
      </trkpt>
      <trkpt lat="43.044696999999346" lon="-1.2658969999999998">
        <ele>1279.073</ele>
        <time>2022-08-24T10:06:28Z</time>
      </trkpt>
      <trkpt lat="43.04469099999935" lon="-1.2659239999999998">
        <ele>1279.056</ele>
        <time>2022-08-24T10:06:29Z</time>
      </trkpt>
      <trkpt lat="43.04468499999935" lon="-1.2659549999999997">
        <ele>1279.080</ele>
        <time>2022-08-24T10:06:30Z</time>
      </trkpt>
      <trkpt lat="43.04468199999935" lon="-1.2659879999999997">
        <ele>1279.079</ele>
        <time>2022-08-24T10:06:31Z</time>
      </trkpt>
      <trkpt lat="43.04468199999935" lon="-1.2660229999999997">
        <ele>1279.033</ele>
        <time>2022-08-24T10:06:32Z</time>
      </trkpt>
      <trkpt lat="43.04468199999935" lon="-1.2660589999999996">
        <ele>1279.023</ele>
        <time>2022-08-24T10:06:33Z</time>
      </trkpt>
      <trkpt lat="43.044679999999346" lon="-1.2660969999999996">
        <ele>1279.015</ele>
        <time>2022-08-24T10:06:34Z</time>
      </trkpt>
      <trkpt lat="43.04467299999935" lon="-1.2662009999999997">
        <ele>1279.009</ele>
        <time>2022-08-24T10:06:37Z</time>
      </trkpt>
      <trkpt lat="43.04467099999935" lon="-1.2662349999999998">
        <ele>1279.284</ele>
        <time>2022-08-24T10:06:38Z</time>
      </trkpt>
      <trkpt lat="43.04466799999935" lon="-1.2662999999999998">
        <ele>1279.454</ele>
        <time>2022-08-24T10:06:40Z</time>
      </trkpt>
      <trkpt lat="43.044668999999345" lon="-1.2663319999999998">
        <ele>1279.444</ele>
        <time>2022-08-24T10:06:41Z</time>
      </trkpt>
      <trkpt lat="43.044668999999345" lon="-1.2663609999999998">
        <ele>1279.430</ele>
        <time>2022-08-24T10:06:42Z</time>
      </trkpt>
      <trkpt lat="43.04466799999935" lon="-1.2663879999999998">
        <ele>1279.442</ele>
        <time>2022-08-24T10:06:43Z</time>
      </trkpt>
      <trkpt lat="43.04466499999935" lon="-1.2664129999999998">
        <ele>1279.629</ele>
        <time>2022-08-24T10:06:44Z</time>
      </trkpt>
      <trkpt lat="43.04465999999935" lon="-1.2664399999999998">
        <ele>1279.652</ele>
        <time>2022-08-24T10:06:45Z</time>
      </trkpt>
      <trkpt lat="43.044648999999346" lon="-1.2664869999999997">
        <ele>1279.876</ele>
        <time>2022-08-24T10:06:47Z</time>
      </trkpt>
      <trkpt lat="43.04463899999934" lon="-1.2665069999999996">
        <ele>1280.085</ele>
        <time>2022-08-24T10:06:48Z</time>
      </trkpt>
      <trkpt lat="43.04459699999934" lon="-1.2665779999999995">
        <ele>1280.272</ele>
        <time>2022-08-24T10:06:51Z</time>
      </trkpt>
      <trkpt lat="43.04458399999934" lon="-1.2666009999999996">
        <ele>1280.213</ele>
        <time>2022-08-24T10:06:52Z</time>
      </trkpt>
      <trkpt lat="43.04453299999934" lon="-1.2666969999999997">
        <ele>1280.214</ele>
        <time>2022-08-24T10:06:56Z</time>
      </trkpt>
      <trkpt lat="43.04449199999934" lon="-1.2667829999999998">
        <ele>1279.209</ele>
        <time>2022-08-24T10:06:59Z</time>
      </trkpt>
      <trkpt lat="43.04447099999934" lon="-1.2668419999999998">
        <ele>1278.878</ele>
        <time>2022-08-24T10:07:01Z</time>
      </trkpt>
      <trkpt lat="43.04446099999934" lon="-1.2668679999999999">
        <ele>1278.658</ele>
        <time>2022-08-24T10:07:02Z</time>
      </trkpt>
      <trkpt lat="43.044452999999336" lon="-1.266892">
        <ele>1278.248</ele>
        <time>2022-08-24T10:07:03Z</time>
      </trkpt>
      <trkpt lat="43.044444999999335" lon="-1.2669139999999999">
        <ele>1278.024</ele>
        <time>2022-08-24T10:07:04Z</time>
      </trkpt>
      <trkpt lat="43.044438999999336" lon="-1.2669339999999998">
        <ele>1277.486</ele>
        <time>2022-08-24T10:07:05Z</time>
      </trkpt>
      <trkpt lat="43.044430999999335" lon="-1.2669589999999997">
        <ele>1277.013</ele>
        <time>2022-08-24T10:07:06Z</time>
      </trkpt>
      <trkpt lat="43.044419999999334" lon="-1.2669899999999996">
        <ele>1276.626</ele>
        <time>2022-08-24T10:07:07Z</time>
      </trkpt>
      <trkpt lat="43.044388999999335" lon="-1.2670579999999996">
        <ele>1276.270</ele>
        <time>2022-08-24T10:07:09Z</time>
      </trkpt>
      <trkpt lat="43.04433099999933" lon="-1.2671919999999997">
        <ele>1275.889</ele>
        <time>2022-08-24T10:07:12Z</time>
      </trkpt>
      <trkpt lat="43.04430699999933" lon="-1.2672409999999996">
        <ele>1275.822</ele>
        <time>2022-08-24T10:07:13Z</time>
      </trkpt>
      <trkpt lat="43.04425399999933" lon="-1.2673469999999996">
        <ele>1275.462</ele>
        <time>2022-08-24T10:07:15Z</time>
      </trkpt>
      <trkpt lat="43.04411599999933" lon="-1.2676149999999995">
        <ele>1275.208</ele>
        <time>2022-08-24T10:07:20Z</time>
      </trkpt>
      <trkpt lat="43.044079999999326" lon="-1.2676739999999995">
        <ele>1275.209</ele>
        <time>2022-08-24T10:07:21Z</time>
      </trkpt>
      <trkpt lat="43.04401699999933" lon="-1.2677719999999995">
        <ele>1275.453</ele>
        <time>2022-08-24T10:07:23Z</time>
      </trkpt>
      <trkpt lat="43.04396999999933" lon="-1.2678799999999995">
        <ele>1275.453</ele>
        <time>2022-08-24T10:07:25Z</time>
      </trkpt>
      <trkpt lat="43.04394899999933" lon="-1.2679159999999994">
        <ele>1275.443</ele>
        <time>2022-08-24T10:07:26Z</time>
      </trkpt>
      <trkpt lat="43.04390599999933" lon="-1.2680059999999993">
        <ele>1275.689</ele>
        <time>2022-08-24T10:07:28Z</time>
      </trkpt>
      <trkpt lat="43.04388899999933" lon="-1.2680539999999993">
        <ele>1275.641</ele>
        <time>2022-08-24T10:07:29Z</time>
      </trkpt>
      <trkpt lat="43.04386599999933" lon="-1.2681059999999993">
        <ele>1275.628</ele>
        <time>2022-08-24T10:07:30Z</time>
      </trkpt>
      <trkpt lat="43.043848999999334" lon="-1.2681409999999993">
        <ele>1275.471</ele>
        <time>2022-08-24T10:07:31Z</time>
      </trkpt>
      <trkpt lat="43.04382999999933" lon="-1.2681809999999993">
        <ele>1275.475</ele>
        <time>2022-08-24T10:07:32Z</time>
      </trkpt>
      <trkpt lat="43.04381299999933" lon="-1.2682179999999994">
        <ele>1275.474</ele>
        <time>2022-08-24T10:07:33Z</time>
      </trkpt>
      <trkpt lat="43.04379899999933" lon="-1.2682509999999994">
        <ele>1275.627</ele>
        <time>2022-08-24T10:07:34Z</time>
      </trkpt>
      <trkpt lat="43.043783999999334" lon="-1.2682869999999993">
        <ele>1275.668</ele>
        <time>2022-08-24T10:07:35Z</time>
      </trkpt>
      <trkpt lat="43.04377399999933" lon="-1.2683219999999993">
        <ele>1275.814</ele>
        <time>2022-08-24T10:07:36Z</time>
      </trkpt>
      <trkpt lat="43.04376199999933" lon="-1.2683589999999993">
        <ele>1275.809</ele>
        <time>2022-08-24T10:07:37Z</time>
      </trkpt>
      <trkpt lat="43.04375399999933" lon="-1.2683959999999994">
        <ele>1276.013</ele>
        <time>2022-08-24T10:07:38Z</time>
      </trkpt>
      <trkpt lat="43.043738999999334" lon="-1.2684309999999994">
        <ele>1276.033</ele>
        <time>2022-08-24T10:07:39Z</time>
      </trkpt>
      <trkpt lat="43.04371699999933" lon="-1.2684679999999995">
        <ele>1276.033</ele>
        <time>2022-08-24T10:07:40Z</time>
      </trkpt>
      <trkpt lat="43.043698999999336" lon="-1.2685099999999996">
        <ele>1276.029</ele>
        <time>2022-08-24T10:07:41Z</time>
      </trkpt>
      <trkpt lat="43.04367899999934" lon="-1.2685529999999996">
        <ele>1276.221</ele>
        <time>2022-08-24T10:07:42Z</time>
      </trkpt>
      <trkpt lat="43.04365799999934" lon="-1.2685939999999996">
        <ele>1276.448</ele>
        <time>2022-08-24T10:07:43Z</time>
      </trkpt>
      <trkpt lat="43.04363599999934" lon="-1.2686369999999996">
        <ele>1276.421</ele>
        <time>2022-08-24T10:07:44Z</time>
      </trkpt>
      <trkpt lat="43.04361299999934" lon="-1.2686789999999997">
        <ele>1276.625</ele>
        <time>2022-08-24T10:07:45Z</time>
      </trkpt>
      <trkpt lat="43.04359899999934" lon="-1.2687229999999996">
        <ele>1276.874</ele>
        <time>2022-08-24T10:07:46Z</time>
      </trkpt>
      <trkpt lat="43.04359299999934" lon="-1.2687549999999996">
        <ele>1276.838</ele>
        <time>2022-08-24T10:07:47Z</time>
      </trkpt>
      <trkpt lat="43.04357999999934" lon="-1.2688129999999995">
        <ele>1277.070</ele>
        <time>2022-08-24T10:07:49Z</time>
      </trkpt>
      <trkpt lat="43.04354899999934" lon="-1.2688519999999994">
        <ele>1277.217</ele>
        <time>2022-08-24T10:07:50Z</time>
      </trkpt>
      <trkpt lat="43.04353399999934" lon="-1.2688819999999994">
        <ele>1277.409</ele>
        <time>2022-08-24T10:07:51Z</time>
      </trkpt>
      <trkpt lat="43.04347999999934" lon="-1.2690669999999995">
        <ele>1278.454</ele>
        <time>2022-08-24T10:07:55Z</time>
      </trkpt>
      <trkpt lat="43.04347399999934" lon="-1.2691069999999995">
        <ele>1278.684</ele>
        <time>2022-08-24T10:07:56Z</time>
      </trkpt>
      <trkpt lat="43.043452999999346" lon="-1.2691519999999996">
        <ele>1278.684</ele>
        <time>2022-08-24T10:07:57Z</time>
      </trkpt>
      <trkpt lat="43.04343199999935" lon="-1.2692299999999996">
        <ele>1278.670</ele>
        <time>2022-08-24T10:07:59Z</time>
      </trkpt>
      <trkpt lat="43.043418999999346" lon="-1.2692819999999996">
        <ele>1278.862</ele>
        <time>2022-08-24T10:08:00Z</time>
      </trkpt>
      <trkpt lat="43.04341299999935" lon="-1.2693209999999995">
        <ele>1278.859</ele>
        <time>2022-08-24T10:08:01Z</time>
      </trkpt>
      <trkpt lat="43.04338699999935" lon="-1.2693879999999995">
        <ele>1279.022</ele>
        <time>2022-08-24T10:08:02Z</time>
      </trkpt>
      <trkpt lat="43.04335399999935" lon="-1.2694389999999995">
        <ele>1279.086</ele>
        <time>2022-08-24T10:08:03Z</time>
      </trkpt>
      <trkpt lat="43.043331999999346" lon="-1.2694959999999995">
        <ele>1279.085</ele>
        <time>2022-08-24T10:08:04Z</time>
      </trkpt>
      <trkpt lat="43.04331699999935" lon="-1.2695549999999995">
        <ele>1279.223</ele>
        <time>2022-08-24T10:08:05Z</time>
      </trkpt>
      <trkpt lat="43.04330599999935" lon="-1.2696249999999996">
        <ele>1279.283</ele>
        <time>2022-08-24T10:08:06Z</time>
      </trkpt>
      <trkpt lat="43.04329099999935" lon="-1.2697069999999995">
        <ele>1279.011</ele>
        <time>2022-08-24T10:08:07Z</time>
      </trkpt>
      <trkpt lat="43.04327799999935" lon="-1.2697609999999995">
        <ele>1279.009</ele>
        <time>2022-08-24T10:08:08Z</time>
      </trkpt>
      <trkpt lat="43.043261999999345" lon="-1.2698249999999995">
        <ele>1278.833</ele>
        <time>2022-08-24T10:08:09Z</time>
      </trkpt>
      <trkpt lat="43.04323199999934" lon="-1.2698829999999994">
        <ele>1278.833</ele>
        <time>2022-08-24T10:08:10Z</time>
      </trkpt>
      <trkpt lat="43.04321899999934" lon="-1.2699409999999993">
        <ele>1278.883</ele>
        <time>2022-08-24T10:08:11Z</time>
      </trkpt>
      <trkpt lat="43.04320399999934" lon="-1.2699979999999993">
        <ele>1278.689</ele>
        <time>2022-08-24T10:08:12Z</time>
      </trkpt>
      <trkpt lat="43.04319599999934" lon="-1.2700589999999994">
        <ele>1278.481</ele>
        <time>2022-08-24T10:08:13Z</time>
      </trkpt>
      <trkpt lat="43.04318499999934" lon="-1.2701399999999994">
        <ele>1278.298</ele>
        <time>2022-08-24T10:08:14Z</time>
      </trkpt>
      <trkpt lat="43.04314599999934" lon="-1.2703709999999995">
        <ele>1277.231</ele>
        <time>2022-08-24T10:08:17Z</time>
      </trkpt>
      <trkpt lat="43.04313399999934" lon="-1.2704299999999995">
        <ele>1276.695</ele>
        <time>2022-08-24T10:08:18Z</time>
      </trkpt>
      <trkpt lat="43.04311499999934" lon="-1.2704869999999995">
        <ele>1275.844</ele>
        <time>2022-08-24T10:08:19Z</time>
      </trkpt>
      <trkpt lat="43.04309899999934" lon="-1.2705379999999995">
        <ele>1275.492</ele>
        <time>2022-08-24T10:08:20Z</time>
      </trkpt>
      <trkpt lat="43.043079999999335" lon="-1.2705799999999996">
        <ele>1275.073</ele>
        <time>2022-08-24T10:08:21Z</time>
      </trkpt>
      <trkpt lat="43.04305699999934" lon="-1.2706309999999996">
        <ele>1274.820</ele>
        <time>2022-08-24T10:08:22Z</time>
      </trkpt>
      <trkpt lat="43.043029999999334" lon="-1.2706869999999997">
        <ele>1274.609</ele>
        <time>2022-08-24T10:08:23Z</time>
      </trkpt>
      <trkpt lat="43.04300499999933" lon="-1.2708239999999997">
        <ele>1274.440</ele>
        <time>2022-08-24T10:08:25Z</time>
      </trkpt>
      <trkpt lat="43.042984999999334" lon="-1.2709589999999997">
        <ele>1274.070</ele>
        <time>2022-08-24T10:08:27Z</time>
      </trkpt>
      <trkpt lat="43.04295799999933" lon="-1.2710169999999996">
        <ele>1273.690</ele>
        <time>2022-08-24T10:08:28Z</time>
      </trkpt>
      <trkpt lat="43.04293499999933" lon="-1.2710779999999997">
        <ele>1273.476</ele>
        <time>2022-08-24T10:08:29Z</time>
      </trkpt>
      <trkpt lat="43.04291499999933" lon="-1.2711349999999997">
        <ele>1273.248</ele>
        <time>2022-08-24T10:08:30Z</time>
      </trkpt>
      <trkpt lat="43.042908999999334" lon="-1.2712029999999996">
        <ele>1273.095</ele>
        <time>2022-08-24T10:08:31Z</time>
      </trkpt>
      <trkpt lat="43.04290399999933" lon="-1.2712529999999997">
        <ele>1273.038</ele>
        <time>2022-08-24T10:08:32Z</time>
      </trkpt>
      <trkpt lat="43.04288999999933" lon="-1.2712969999999997">
        <ele>1273.022</ele>
        <time>2022-08-24T10:08:33Z</time>
      </trkpt>
      <trkpt lat="43.04283599999933" lon="-1.2714149999999997">
        <ele>1273.031</ele>
        <time>2022-08-24T10:08:35Z</time>
      </trkpt>
      <trkpt lat="43.042834999999336" lon="-1.2715029999999998">
        <ele>1273.056</ele>
        <time>2022-08-24T10:08:36Z</time>
      </trkpt>
      <trkpt lat="43.042832999999334" lon="-1.2715489999999998">
        <ele>1273.059</ele>
        <time>2022-08-24T10:08:37Z</time>
      </trkpt>
      <trkpt lat="43.042832999999334" lon="-1.2715799999999997">
        <ele>1272.814</ele>
        <time>2022-08-24T10:08:38Z</time>
      </trkpt>
      <trkpt lat="43.04281999999933" lon="-1.2716509999999996">
        <ele>1272.809</ele>
        <time>2022-08-24T10:08:40Z</time>
      </trkpt>
      <trkpt lat="43.04280699999933" lon="-1.2716899999999995">
        <ele>1272.626</ele>
        <time>2022-08-24T10:08:41Z</time>
      </trkpt>
      <trkpt lat="43.04279299999933" lon="-1.2717309999999995">
        <ele>1272.446</ele>
        <time>2022-08-24T10:08:42Z</time>
      </trkpt>
      <trkpt lat="43.04277599999933" lon="-1.2717729999999996">
        <ele>1271.836</ele>
        <time>2022-08-24T10:08:43Z</time>
      </trkpt>
      <trkpt lat="43.04276199999933" lon="-1.2718159999999996">
        <ele>1271.622</ele>
        <time>2022-08-24T10:08:44Z</time>
      </trkpt>
      <trkpt lat="43.04275299999933" lon="-1.2718669999999996">
        <ele>1271.274</ele>
        <time>2022-08-24T10:08:45Z</time>
      </trkpt>
      <trkpt lat="43.04275299999933" lon="-1.2718999999999996">
        <ele>1271.061</ele>
        <time>2022-08-24T10:08:46Z</time>
      </trkpt>
      <trkpt lat="43.04275099999933" lon="-1.2719349999999996">
        <ele>1270.454</ele>
        <time>2022-08-24T10:08:47Z</time>
      </trkpt>
      <trkpt lat="43.04275099999933" lon="-1.2719649999999996">
        <ele>1270.458</ele>
        <time>2022-08-24T10:08:48Z</time>
      </trkpt>
      <trkpt lat="43.042751999999325" lon="-1.2719989999999997">
        <ele>1270.087</ele>
        <time>2022-08-24T10:08:49Z</time>
      </trkpt>
      <trkpt lat="43.04274499999933" lon="-1.2720409999999998">
        <ele>1269.849</ele>
        <time>2022-08-24T10:08:50Z</time>
      </trkpt>
      <trkpt lat="43.04273299999933" lon="-1.2720779999999998">
        <ele>1269.602</ele>
        <time>2022-08-24T10:08:51Z</time>
      </trkpt>
      <trkpt lat="43.04272299999933" lon="-1.2721149999999999">
        <ele>1269.422</ele>
        <time>2022-08-24T10:08:52Z</time>
      </trkpt>
      <trkpt lat="43.04271399999933" lon="-1.272168">
        <ele>1269.209</ele>
        <time>2022-08-24T10:08:53Z</time>
      </trkpt>
      <trkpt lat="43.04270599999933" lon="-1.272202">
        <ele>1269.055</ele>
        <time>2022-08-24T10:08:54Z</time>
      </trkpt>
      <trkpt lat="43.042703999999326" lon="-1.2722310000000001">
        <ele>1268.835</ele>
        <time>2022-08-24T10:08:55Z</time>
      </trkpt>
      <trkpt lat="43.04270599999933" lon="-1.2722580000000001">
        <ele>1268.215</ele>
        <time>2022-08-24T10:08:56Z</time>
      </trkpt>
      <trkpt lat="43.04270899999933" lon="-1.272353">
        <ele>1268.041</ele>
        <time>2022-08-24T10:08:58Z</time>
      </trkpt>
      <trkpt lat="43.04270899999933" lon="-1.272513">
        <ele>1266.453</ele>
        <time>2022-08-24T10:09:02Z</time>
      </trkpt>
      <trkpt lat="43.04270599999933" lon="-1.272689">
        <ele>1265.660</ele>
        <time>2022-08-24T10:09:05Z</time>
      </trkpt>
      <trkpt lat="43.042695999999324" lon="-1.27274">
        <ele>1265.023</ele>
        <time>2022-08-24T10:09:06Z</time>
      </trkpt>
      <trkpt lat="43.042684999999324" lon="-1.2727979999999999">
        <ele>1264.847</ele>
        <time>2022-08-24T10:09:07Z</time>
      </trkpt>
      <trkpt lat="43.04266399999933" lon="-1.2728689999999998">
        <ele>1264.686</ele>
        <time>2022-08-24T10:09:08Z</time>
      </trkpt>
      <trkpt lat="43.042661999999325" lon="-1.2729399999999997">
        <ele>1264.247</ele>
        <time>2022-08-24T10:09:09Z</time>
      </trkpt>
      <trkpt lat="43.04263599999933" lon="-1.2730969999999997">
        <ele>1263.829</ele>
        <time>2022-08-24T10:09:11Z</time>
      </trkpt>
      <trkpt lat="43.04258699999933" lon="-1.2732349999999997">
        <ele>1263.221</ele>
        <time>2022-08-24T10:09:13Z</time>
      </trkpt>
      <trkpt lat="43.04257999999933" lon="-1.2732969999999997">
        <ele>1263.009</ele>
        <time>2022-08-24T10:09:14Z</time>
      </trkpt>
      <trkpt lat="43.04254999999933" lon="-1.2733489999999996">
        <ele>1262.635</ele>
        <time>2022-08-24T10:09:15Z</time>
      </trkpt>
      <trkpt lat="43.04254199999933" lon="-1.2734059999999996">
        <ele>1261.865</ele>
        <time>2022-08-24T10:09:16Z</time>
      </trkpt>
      <trkpt lat="43.04254499999933" lon="-1.2734589999999997">
        <ele>1261.425</ele>
        <time>2022-08-24T10:09:17Z</time>
      </trkpt>
      <trkpt lat="43.042534999999326" lon="-1.2735039999999997">
        <ele>1260.821</ele>
        <time>2022-08-24T10:09:18Z</time>
      </trkpt>
      <trkpt lat="43.042529999999324" lon="-1.2735469999999998">
        <ele>1260.813</ele>
        <time>2022-08-24T10:09:19Z</time>
      </trkpt>
      <trkpt lat="43.042523999999325" lon="-1.2735809999999999">
        <ele>1260.860</ele>
        <time>2022-08-24T10:09:20Z</time>
      </trkpt>
      <trkpt lat="43.04250899999933" lon="-1.2736319999999999">
        <ele>1260.423</ele>
        <time>2022-08-24T10:09:21Z</time>
      </trkpt>
      <trkpt lat="43.04250199999933" lon="-1.2736939999999999">
        <ele>1260.237</ele>
        <time>2022-08-24T10:09:22Z</time>
      </trkpt>
      <trkpt lat="43.04248499999933" lon="-1.273763">
        <ele>1260.266</ele>
        <time>2022-08-24T10:09:23Z</time>
      </trkpt>
      <trkpt lat="43.04245999999933" lon="-1.273827">
        <ele>1260.086</ele>
        <time>2022-08-24T10:09:24Z</time>
      </trkpt>
      <trkpt lat="43.04243799999933" lon="-1.273881">
        <ele>1260.060</ele>
        <time>2022-08-24T10:09:25Z</time>
      </trkpt>
      <trkpt lat="43.04243099999933" lon="-1.273936">
        <ele>1260.026</ele>
        <time>2022-08-24T10:09:26Z</time>
      </trkpt>
      <trkpt lat="43.042412999999335" lon="-1.273982">
        <ele>1259.809</ele>
        <time>2022-08-24T10:09:27Z</time>
      </trkpt>
      <trkpt lat="43.04239499999934" lon="-1.274027">
        <ele>1259.699</ele>
        <time>2022-08-24T10:09:28Z</time>
      </trkpt>
      <trkpt lat="43.04237299999934" lon="-1.274078">
        <ele>1259.449</ele>
        <time>2022-08-24T10:09:29Z</time>
      </trkpt>
      <trkpt lat="43.04237199999934" lon="-1.2740960000000001">
        <ele>1259.289</ele>
        <time>2022-08-24T10:09:30Z</time>
      </trkpt>
      <trkpt lat="43.04237799999934" lon="-1.2741330000000002">
        <ele>1259.025</ele>
        <time>2022-08-24T10:09:31Z</time>
      </trkpt>
      <trkpt lat="43.042378999999336" lon="-1.2741650000000002">
        <ele>1258.677</ele>
        <time>2022-08-24T10:09:32Z</time>
      </trkpt>
      <trkpt lat="43.042376999999334" lon="-1.2742100000000003">
        <ele>1258.234</ele>
        <time>2022-08-24T10:09:33Z</time>
      </trkpt>
      <trkpt lat="43.042367999999335" lon="-1.2742570000000002">
        <ele>1257.657</ele>
        <time>2022-08-24T10:09:34Z</time>
      </trkpt>
      <trkpt lat="43.04236899999933" lon="-1.2742840000000002">
        <ele>1256.851</ele>
        <time>2022-08-24T10:09:35Z</time>
      </trkpt>
      <trkpt lat="43.042347999999336" lon="-1.2743590000000002">
        <ele>1256.250</ele>
        <time>2022-08-24T10:09:37Z</time>
      </trkpt>
      <trkpt lat="43.04233799999933" lon="-1.2743850000000003">
        <ele>1256.024</ele>
        <time>2022-08-24T10:09:38Z</time>
      </trkpt>
      <trkpt lat="43.04232699999933" lon="-1.2744190000000004">
        <ele>1255.604</ele>
        <time>2022-08-24T10:09:39Z</time>
      </trkpt>
      <trkpt lat="43.04230699999933" lon="-1.2744680000000004">
        <ele>1255.414</ele>
        <time>2022-08-24T10:09:40Z</time>
      </trkpt>
      <trkpt lat="43.04227599999933" lon="-1.2745590000000004">
        <ele>1254.609</ele>
        <time>2022-08-24T10:09:42Z</time>
      </trkpt>
      <trkpt lat="43.04224599999933" lon="-1.2747060000000003">
        <ele>1253.823</ele>
        <time>2022-08-24T10:09:45Z</time>
      </trkpt>
      <trkpt lat="43.04223599999933" lon="-1.2747580000000003">
        <ele>1253.853</ele>
        <time>2022-08-24T10:09:46Z</time>
      </trkpt>
      <trkpt lat="43.04221299999933" lon="-1.2748130000000002">
        <ele>1253.253</ele>
        <time>2022-08-24T10:09:47Z</time>
      </trkpt>
      <trkpt lat="43.04220599999933" lon="-1.2748770000000003">
        <ele>1253.079</ele>
        <time>2022-08-24T10:09:48Z</time>
      </trkpt>
      <trkpt lat="43.04221199999933" lon="-1.2749280000000003">
        <ele>1252.681</ele>
        <time>2022-08-24T10:09:49Z</time>
      </trkpt>
      <trkpt lat="43.042210999999334" lon="-1.2749750000000002">
        <ele>1252.268</ele>
        <time>2022-08-24T10:09:50Z</time>
      </trkpt>
      <trkpt lat="43.04221499999933" lon="-1.275014">
        <ele>1251.861</ele>
        <time>2022-08-24T10:09:51Z</time>
      </trkpt>
      <trkpt lat="43.042196999999334" lon="-1.27509">
        <ele>1251.225</ele>
        <time>2022-08-24T10:09:52Z</time>
      </trkpt>
      <trkpt lat="43.042165999999334" lon="-1.27516">
        <ele>1250.834</ele>
        <time>2022-08-24T10:09:53Z</time>
      </trkpt>
      <trkpt lat="43.042139999999335" lon="-1.2752210000000002">
        <ele>1250.673</ele>
        <time>2022-08-24T10:09:54Z</time>
      </trkpt>
      <trkpt lat="43.04212499999934" lon="-1.2752960000000002">
        <ele>1250.485</ele>
        <time>2022-08-24T10:09:55Z</time>
      </trkpt>
      <trkpt lat="43.042108999999336" lon="-1.2753560000000002">
        <ele>1250.413</ele>
        <time>2022-08-24T10:09:56Z</time>
      </trkpt>
      <trkpt lat="43.042088999999336" lon="-1.2754090000000002">
        <ele>1250.209</ele>
        <time>2022-08-24T10:09:57Z</time>
      </trkpt>
      <trkpt lat="43.04206599999934" lon="-1.2754450000000002">
        <ele>1250.048</ele>
        <time>2022-08-24T10:09:58Z</time>
      </trkpt>
      <trkpt lat="43.04206799999934" lon="-1.2754960000000002">
        <ele>1250.038</ele>
        <time>2022-08-24T10:09:59Z</time>
      </trkpt>
      <trkpt lat="43.04207299999934" lon="-1.275524">
        <ele>1249.688</ele>
        <time>2022-08-24T10:10:00Z</time>
      </trkpt>
      <trkpt lat="43.04207799999934" lon="-1.27556">
        <ele>1249.414</ele>
        <time>2022-08-24T10:10:01Z</time>
      </trkpt>
      <trkpt lat="43.04208199999934" lon="-1.275615">
        <ele>1249.216</ele>
        <time>2022-08-24T10:10:02Z</time>
      </trkpt>
      <trkpt lat="43.04204999999934" lon="-1.27565">
        <ele>1249.023</ele>
        <time>2022-08-24T10:10:03Z</time>
      </trkpt>
      <trkpt lat="43.042045999999345" lon="-1.275695">
        <ele>1249.066</ele>
        <time>2022-08-24T10:10:04Z</time>
      </trkpt>
      <trkpt lat="43.04203699999935" lon="-1.275739">
        <ele>1248.850</ele>
        <time>2022-08-24T10:10:05Z</time>
      </trkpt>
      <trkpt lat="43.042031999999345" lon="-1.275777">
        <ele>1248.889</ele>
        <time>2022-08-24T10:10:06Z</time>
      </trkpt>
      <trkpt lat="43.042034999999345" lon="-1.2758099999999999">
        <ele>1249.053</ele>
        <time>2022-08-24T10:10:07Z</time>
      </trkpt>
      <trkpt lat="43.042034999999345" lon="-1.275836">
        <ele>1249.004</ele>
        <time>2022-08-24T10:10:08Z</time>
      </trkpt>
      <trkpt lat="43.042031999999345" lon="-1.275862">
        <ele>1249.014</ele>
        <time>2022-08-24T10:10:09Z</time>
      </trkpt>
      <trkpt lat="43.04202499999935" lon="-1.275898">
        <ele>1249.009</ele>
        <time>2022-08-24T10:10:10Z</time>
      </trkpt>
      <trkpt lat="43.04201299999935" lon="-1.2759369999999999">
        <ele>1249.026</ele>
        <time>2022-08-24T10:10:11Z</time>
      </trkpt>
      <trkpt lat="43.042005999999354" lon="-1.2759649999999998">
        <ele>1249.236</ele>
        <time>2022-08-24T10:10:12Z</time>
      </trkpt>
      <trkpt lat="43.041999999999355" lon="-1.2759869999999998">
        <ele>1249.646</ele>
        <time>2022-08-24T10:10:13Z</time>
      </trkpt>
      <trkpt lat="43.04199299999936" lon="-1.2760129999999998">
        <ele>1249.652</ele>
        <time>2022-08-24T10:10:14Z</time>
      </trkpt>
      <trkpt lat="43.04197399999936" lon="-1.2760869999999997">
        <ele>1249.634</ele>
        <time>2022-08-24T10:10:16Z</time>
      </trkpt>
      <trkpt lat="43.04193999999936" lon="-1.2762549999999997">
        <ele>1250.011</ele>
        <time>2022-08-24T10:10:20Z</time>
      </trkpt>
      <trkpt lat="43.04193399999936" lon="-1.2762869999999997">
        <ele>1249.854</ele>
        <time>2022-08-24T10:10:21Z</time>
      </trkpt>
      <trkpt lat="43.04193099999936" lon="-1.2763079999999998">
        <ele>1250.028</ele>
        <time>2022-08-24T10:10:22Z</time>
      </trkpt>
      <trkpt lat="43.04192499999936" lon="-1.2763309999999999">
        <ele>1250.267</ele>
        <time>2022-08-24T10:10:23Z</time>
      </trkpt>
      <trkpt lat="43.04192699999936" lon="-1.27636">
        <ele>1250.424</ele>
        <time>2022-08-24T10:10:24Z</time>
      </trkpt>
      <trkpt lat="43.04191399999936" lon="-1.2764">
        <ele>1250.404</ele>
        <time>2022-08-24T10:10:25Z</time>
      </trkpt>
      <trkpt lat="43.04190699999936" lon="-1.276428">
        <ele>1250.614</ele>
        <time>2022-08-24T10:10:26Z</time>
      </trkpt>
      <trkpt lat="43.04189599999936" lon="-1.276457">
        <ele>1250.609</ele>
        <time>2022-08-24T10:10:27Z</time>
      </trkpt>
      <trkpt lat="43.041891999999365" lon="-1.276487">
        <ele>1250.843</ele>
        <time>2022-08-24T10:10:28Z</time>
      </trkpt>
      <trkpt lat="43.041883999999364" lon="-1.276544">
        <ele>1251.043</ele>
        <time>2022-08-24T10:10:30Z</time>
      </trkpt>
      <trkpt lat="43.04186599999937" lon="-1.276616">
        <ele>1251.023</ele>
        <time>2022-08-24T10:10:32Z</time>
      </trkpt>
      <trkpt lat="43.04184899999937" lon="-1.276678">
        <ele>1251.049</ele>
        <time>2022-08-24T10:10:34Z</time>
      </trkpt>
      <trkpt lat="43.04181199999937" lon="-1.276865">
        <ele>1251.031</ele>
        <time>2022-08-24T10:10:39Z</time>
      </trkpt>
      <trkpt lat="43.04178899999937" lon="-1.2769059999999999">
        <ele>1251.248</ele>
        <time>2022-08-24T10:10:40Z</time>
      </trkpt>
      <trkpt lat="43.04177799999937" lon="-1.2769449999999998">
        <ele>1251.231</ele>
        <time>2022-08-24T10:10:41Z</time>
      </trkpt>
      <trkpt lat="43.04177499999937" lon="-1.2769759999999997">
        <ele>1251.235</ele>
        <time>2022-08-24T10:10:42Z</time>
      </trkpt>
      <trkpt lat="43.04176699999937" lon="-1.2769969999999997">
        <ele>1251.234</ele>
        <time>2022-08-24T10:10:43Z</time>
      </trkpt>
      <trkpt lat="43.04175899999937" lon="-1.2770149999999998">
        <ele>1251.265</ele>
        <time>2022-08-24T10:10:44Z</time>
      </trkpt>
      <trkpt lat="43.04174099999937" lon="-1.277065">
        <ele>1251.268</ele>
        <time>2022-08-24T10:10:46Z</time>
      </trkpt>
      <trkpt lat="43.04174299999937" lon="-1.2771839999999999">
        <ele>1251.214</ele>
        <time>2022-08-24T10:10:50Z</time>
      </trkpt>
      <trkpt lat="43.04174099999937" lon="-1.277208">
        <ele>1251.209</ele>
        <time>2022-08-24T10:10:51Z</time>
      </trkpt>
      <trkpt lat="43.04172699999937" lon="-1.277267">
        <ele>1251.057</ele>
        <time>2022-08-24T10:10:53Z</time>
      </trkpt>
      <trkpt lat="43.04171799999937" lon="-1.277299">
        <ele>1251.077</ele>
        <time>2022-08-24T10:10:54Z</time>
      </trkpt>
      <trkpt lat="43.04169799999937" lon="-1.2773539999999999">
        <ele>1251.287</ele>
        <time>2022-08-24T10:10:56Z</time>
      </trkpt>
      <trkpt lat="43.04168499999937" lon="-1.277386">
        <ele>1251.493</ele>
        <time>2022-08-24T10:10:57Z</time>
      </trkpt>
      <trkpt lat="43.04166599999937" lon="-1.2774219999999998">
        <ele>1251.475</ele>
        <time>2022-08-24T10:10:58Z</time>
      </trkpt>
      <trkpt lat="43.041641999999364" lon="-1.2774539999999999">
        <ele>1251.662</ele>
        <time>2022-08-24T10:10:59Z</time>
      </trkpt>
      <trkpt lat="43.04158899999936" lon="-1.277502">
        <ele>1252.045</ele>
        <time>2022-08-24T10:11:01Z</time>
      </trkpt>
      <trkpt lat="43.04156699999936" lon="-1.2775219999999998">
        <ele>1252.239</ele>
        <time>2022-08-24T10:11:02Z</time>
      </trkpt>
      <trkpt lat="43.041545999999364" lon="-1.2775389999999998">
        <ele>1252.458</ele>
        <time>2022-08-24T10:11:03Z</time>
      </trkpt>
      <trkpt lat="43.04152799999937" lon="-1.2775519999999998">
        <ele>1252.622</ele>
        <time>2022-08-24T10:11:04Z</time>
      </trkpt>
      <trkpt lat="43.04151299999937" lon="-1.2775689999999997">
        <ele>1253.062</ele>
        <time>2022-08-24T10:11:05Z</time>
      </trkpt>
      <trkpt lat="43.04149799999937" lon="-1.2775919999999998">
        <ele>1253.208</ele>
        <time>2022-08-24T10:11:06Z</time>
      </trkpt>
      <trkpt lat="43.04148199999937" lon="-1.2776079999999999">
        <ele>1253.809</ele>
        <time>2022-08-24T10:11:07Z</time>
      </trkpt>
      <trkpt lat="43.04146599999937" lon="-1.2776249999999998">
        <ele>1254.013</ele>
        <time>2022-08-24T10:11:08Z</time>
      </trkpt>
      <trkpt lat="43.04145199999937" lon="-1.2776399999999999">
        <ele>1254.283</ele>
        <time>2022-08-24T10:11:09Z</time>
      </trkpt>
      <trkpt lat="43.04144599999937" lon="-1.277656">
        <ele>1254.633</ele>
        <time>2022-08-24T10:11:10Z</time>
      </trkpt>
      <trkpt lat="43.04143699999937" lon="-1.2776729999999998">
        <ele>1255.029</ele>
        <time>2022-08-24T10:11:11Z</time>
      </trkpt>
      <trkpt lat="43.04142499999937" lon="-1.2776859999999999">
        <ele>1255.081</ele>
        <time>2022-08-24T10:11:12Z</time>
      </trkpt>
      <trkpt lat="43.04140899999937" lon="-1.277696">
        <ele>1255.218</ele>
        <time>2022-08-24T10:11:13Z</time>
      </trkpt>
      <trkpt lat="43.04139099999937" lon="-1.2777079999999998">
        <ele>1255.211</ele>
        <time>2022-08-24T10:11:14Z</time>
      </trkpt>
      <trkpt lat="43.04138499999937" lon="-1.277729">
        <ele>1255.265</ele>
        <time>2022-08-24T10:11:15Z</time>
      </trkpt>
      <trkpt lat="43.041378999999374" lon="-1.277745">
        <ele>1255.454</ele>
        <time>2022-08-24T10:11:16Z</time>
      </trkpt>
      <trkpt lat="43.04136099999938" lon="-1.277758">
        <ele>1255.485</ele>
        <time>2022-08-24T10:11:17Z</time>
      </trkpt>
      <trkpt lat="43.04134599999938" lon="-1.277777">
        <ele>1255.889</ele>
        <time>2022-08-24T10:11:18Z</time>
      </trkpt>
      <trkpt lat="43.04133799999938" lon="-1.277791">
        <ele>1255.817</ele>
        <time>2022-08-24T10:11:19Z</time>
      </trkpt>
      <trkpt lat="43.04133099999938" lon="-1.2777969999999998">
        <ele>1255.809</ele>
        <time>2022-08-24T10:11:20Z</time>
      </trkpt>
      <trkpt lat="43.04132899999938" lon="-1.2778189999999998">
        <ele>1256.079</ele>
        <time>2022-08-24T10:11:21Z</time>
      </trkpt>
      <trkpt lat="43.04131799999938" lon="-1.2778459999999998">
        <ele>1256.289</ele>
        <time>2022-08-24T10:11:22Z</time>
      </trkpt>
      <trkpt lat="43.04130599999938" lon="-1.277861">
        <ele>1256.469</ele>
        <time>2022-08-24T10:11:23Z</time>
      </trkpt>
      <trkpt lat="43.041298999999384" lon="-1.2778749999999999">
        <ele>1256.495</ele>
        <time>2022-08-24T10:11:24Z</time>
      </trkpt>
      <trkpt lat="43.04129999999938" lon="-1.277893">
        <ele>1256.437</ele>
        <time>2022-08-24T10:11:25Z</time>
      </trkpt>
      <trkpt lat="43.04128699999938" lon="-1.27792">
        <ele>1256.654</ele>
        <time>2022-08-24T10:11:26Z</time>
      </trkpt>
      <trkpt lat="43.041276999999376" lon="-1.277934">
        <ele>1256.887</ele>
        <time>2022-08-24T10:11:27Z</time>
      </trkpt>
      <trkpt lat="43.041271999999374" lon="-1.277961">
        <ele>1257.071</ele>
        <time>2022-08-24T10:11:28Z</time>
      </trkpt>
      <trkpt lat="43.04126399999937" lon="-1.277977">
        <ele>1257.280</ele>
        <time>2022-08-24T10:11:29Z</time>
      </trkpt>
      <trkpt lat="43.04125399999937" lon="-1.277993">
        <ele>1257.497</ele>
        <time>2022-08-24T10:11:30Z</time>
      </trkpt>
      <trkpt lat="43.04124299999937" lon="-1.278012">
        <ele>1257.423</ele>
        <time>2022-08-24T10:11:31Z</time>
      </trkpt>
      <trkpt lat="43.04123599999937" lon="-1.278031">
        <ele>1257.625</ele>
        <time>2022-08-24T10:11:32Z</time>
      </trkpt>
      <trkpt lat="43.04122999999937" lon="-1.278049">
        <ele>1257.809</ele>
        <time>2022-08-24T10:11:33Z</time>
      </trkpt>
      <trkpt lat="43.04122499999937" lon="-1.278069">
        <ele>1257.870</ele>
        <time>2022-08-24T10:11:34Z</time>
      </trkpt>
      <trkpt lat="43.04122299999937" lon="-1.2780909999999999">
        <ele>1258.020</ele>
        <time>2022-08-24T10:11:35Z</time>
      </trkpt>
      <trkpt lat="43.04121599999937" lon="-1.278117">
        <ele>1258.060</ele>
        <time>2022-08-24T10:11:36Z</time>
      </trkpt>
      <trkpt lat="43.04120299999937" lon="-1.278147">
        <ele>1258.066</ele>
        <time>2022-08-24T10:11:37Z</time>
      </trkpt>
      <trkpt lat="43.04119099999937" lon="-1.2781749999999998">
        <ele>1258.078</ele>
        <time>2022-08-24T10:11:38Z</time>
      </trkpt>
      <trkpt lat="43.041181999999374" lon="-1.2782059999999997">
        <ele>1258.085</ele>
        <time>2022-08-24T10:11:39Z</time>
      </trkpt>
      <trkpt lat="43.04116899999937" lon="-1.2782349999999998">
        <ele>1258.068</ele>
        <time>2022-08-24T10:11:40Z</time>
      </trkpt>
      <trkpt lat="43.04115599999937" lon="-1.2782659999999997">
        <ele>1258.022</ele>
        <time>2022-08-24T10:11:41Z</time>
      </trkpt>
      <trkpt lat="43.04114099999937" lon="-1.2783009999999997">
        <ele>1257.861</ele>
        <time>2022-08-24T10:11:42Z</time>
      </trkpt>
      <trkpt lat="43.04112699999937" lon="-1.2783389999999997">
        <ele>1257.888</ele>
        <time>2022-08-24T10:11:43Z</time>
      </trkpt>
      <trkpt lat="43.04111299999937" lon="-1.2783769999999997">
        <ele>1257.424</ele>
        <time>2022-08-24T10:11:44Z</time>
      </trkpt>
      <trkpt lat="43.04109799999937" lon="-1.2784139999999997">
        <ele>1257.226</ele>
        <time>2022-08-24T10:11:45Z</time>
      </trkpt>
      <trkpt lat="43.041082999999375" lon="-1.2784479999999998">
        <ele>1257.009</ele>
        <time>2022-08-24T10:11:46Z</time>
      </trkpt>
      <trkpt lat="43.041071999999374" lon="-1.2784779999999998">
        <ele>1256.879</ele>
        <time>2022-08-24T10:11:47Z</time>
      </trkpt>
      <trkpt lat="43.04106199999937" lon="-1.2785089999999997">
        <ele>1256.879</ele>
        <time>2022-08-24T10:11:48Z</time>
      </trkpt>
      <trkpt lat="43.041054999999375" lon="-1.2785359999999997">
        <ele>1256.649</ele>
        <time>2022-08-24T10:11:49Z</time>
      </trkpt>
      <trkpt lat="43.041046999999374" lon="-1.2785589999999998">
        <ele>1256.615</ele>
        <time>2022-08-24T10:11:50Z</time>
      </trkpt>
      <trkpt lat="43.041040999999375" lon="-1.2785829999999998">
        <ele>1256.437</ele>
        <time>2022-08-24T10:11:51Z</time>
      </trkpt>
      <trkpt lat="43.04102899999938" lon="-1.2786209999999998">
        <ele>1256.024</ele>
        <time>2022-08-24T10:11:53Z</time>
      </trkpt>
      <trkpt lat="43.04102499999938" lon="-1.2786429999999998">
        <ele>1255.817</ele>
        <time>2022-08-24T10:11:54Z</time>
      </trkpt>
      <trkpt lat="43.04101599999938" lon="-1.2786679999999997">
        <ele>1255.631</ele>
        <time>2022-08-24T10:11:55Z</time>
      </trkpt>
      <trkpt lat="43.04096299999938" lon="-1.2787649999999997">
        <ele>1255.260</ele>
        <time>2022-08-24T10:11:58Z</time>
      </trkpt>
      <trkpt lat="43.04094399999938" lon="-1.2787969999999997">
        <ele>1255.065</ele>
        <time>2022-08-24T10:11:59Z</time>
      </trkpt>
      <trkpt lat="43.040927999999376" lon="-1.2788289999999998">
        <ele>1255.068</ele>
        <time>2022-08-24T10:12:00Z</time>
      </trkpt>
      <trkpt lat="43.040908999999374" lon="-1.2788939999999998">
        <ele>1254.414</ele>
        <time>2022-08-24T10:12:02Z</time>
      </trkpt>
      <trkpt lat="43.04090199999938" lon="-1.2789219999999997">
        <ele>1254.209</ele>
        <time>2022-08-24T10:12:03Z</time>
      </trkpt>
      <trkpt lat="43.04088799999938" lon="-1.2789489999999997">
        <ele>1254.027</ele>
        <time>2022-08-24T10:12:04Z</time>
      </trkpt>
      <trkpt lat="43.04087299999938" lon="-1.2789759999999997">
        <ele>1253.267</ele>
        <time>2022-08-24T10:12:05Z</time>
      </trkpt>
      <trkpt lat="43.04080899999938" lon="-1.2791329999999996">
        <ele>1252.447</ele>
        <time>2022-08-24T10:12:10Z</time>
      </trkpt>
      <trkpt lat="43.04079199999938" lon="-1.2791829999999997">
        <ele>1252.233</ele>
        <time>2022-08-24T10:12:11Z</time>
      </trkpt>
      <trkpt lat="43.04077199999938" lon="-1.2792649999999997">
        <ele>1252.025</ele>
        <time>2022-08-24T10:12:13Z</time>
      </trkpt>
      <trkpt lat="43.04073599999938" lon="-1.2793709999999996">
        <ele>1251.822</ele>
        <time>2022-08-24T10:12:15Z</time>
      </trkpt>
      <trkpt lat="43.04070199999938" lon="-1.2794809999999996">
        <ele>1251.655</ele>
        <time>2022-08-24T10:12:17Z</time>
      </trkpt>
      <trkpt lat="43.040663999999374" lon="-1.2796299999999996">
        <ele>1251.659</ele>
        <time>2022-08-24T10:12:19Z</time>
      </trkpt>
      <trkpt lat="43.04064499999937" lon="-1.2796939999999997">
        <ele>1251.648</ele>
        <time>2022-08-24T10:12:20Z</time>
      </trkpt>
      <trkpt lat="43.04062799999937" lon="-1.2797619999999996">
        <ele>1251.624</ele>
        <time>2022-08-24T10:12:21Z</time>
      </trkpt>
      <trkpt lat="43.040604999999374" lon="-1.2798349999999996">
        <ele>1251.604</ele>
        <time>2022-08-24T10:12:22Z</time>
      </trkpt>
      <trkpt lat="43.04059399999937" lon="-1.2799049999999996">
        <ele>1251.614</ele>
        <time>2022-08-24T10:12:23Z</time>
      </trkpt>
      <trkpt lat="43.04058399999937" lon="-1.2799729999999996">
        <ele>1251.609</ele>
        <time>2022-08-24T10:12:24Z</time>
      </trkpt>
      <trkpt lat="43.04056799999937" lon="-1.2800209999999996">
        <ele>1251.643</ele>
        <time>2022-08-24T10:12:25Z</time>
      </trkpt>
      <trkpt lat="43.04054799999937" lon="-1.2800639999999996">
        <ele>1251.623</ele>
        <time>2022-08-24T10:12:26Z</time>
      </trkpt>
      <trkpt lat="43.04052299999937" lon="-1.2801729999999996">
        <ele>1251.223</ele>
        <time>2022-08-24T10:12:28Z</time>
      </trkpt>
      <trkpt lat="43.040520999999366" lon="-1.2802409999999995">
        <ele>1250.869</ele>
        <time>2022-08-24T10:12:29Z</time>
      </trkpt>
      <trkpt lat="43.040518999999364" lon="-1.2802859999999996">
        <ele>1250.471</ele>
        <time>2022-08-24T10:12:30Z</time>
      </trkpt>
      <trkpt lat="43.04051099999936" lon="-1.2803389999999997">
        <ele>1250.088</ele>
        <time>2022-08-24T10:12:31Z</time>
      </trkpt>
      <trkpt lat="43.04049999999936" lon="-1.2804149999999996">
        <ele>1249.631</ele>
        <time>2022-08-24T10:12:32Z</time>
      </trkpt>
      <trkpt lat="43.04045299999936" lon="-1.2806419999999996">
        <ele>1249.025</ele>
        <time>2022-08-24T10:12:35Z</time>
      </trkpt>
      <trkpt lat="43.04042399999936" lon="-1.2807259999999996">
        <ele>1248.874</ele>
        <time>2022-08-24T10:12:36Z</time>
      </trkpt>
      <trkpt lat="43.04039899999936" lon="-1.2807919999999995">
        <ele>1248.447</ele>
        <time>2022-08-24T10:12:37Z</time>
      </trkpt>
      <trkpt lat="43.04034899999936" lon="-1.2809109999999995">
        <ele>1247.629</ele>
        <time>2022-08-24T10:12:39Z</time>
      </trkpt>
      <trkpt lat="43.040324999999356" lon="-1.2809709999999994">
        <ele>1247.621</ele>
        <time>2022-08-24T10:12:40Z</time>
      </trkpt>
      <trkpt lat="43.040305999999354" lon="-1.2810219999999994">
        <ele>1247.409</ele>
        <time>2022-08-24T10:12:41Z</time>
      </trkpt>
      <trkpt lat="43.04027699999936" lon="-1.2810779999999995">
        <ele>1247.255</ele>
        <time>2022-08-24T10:12:42Z</time>
      </trkpt>
      <trkpt lat="43.040254999999355" lon="-1.2811249999999994">
        <ele>1247.245</ele>
        <time>2022-08-24T10:12:43Z</time>
      </trkpt>
      <trkpt lat="43.04023699999936" lon="-1.2811669999999995">
        <ele>1247.245</ele>
        <time>2022-08-24T10:12:44Z</time>
      </trkpt>
      <trkpt lat="43.04021899999936" lon="-1.2812099999999995">
        <ele>1247.031</ele>
        <time>2022-08-24T10:12:45Z</time>
      </trkpt>
      <trkpt lat="43.04019599999936" lon="-1.2812529999999995">
        <ele>1247.023</ele>
        <time>2022-08-24T10:12:46Z</time>
      </trkpt>
      <trkpt lat="43.04014499999936" lon="-1.2813399999999995">
        <ele>1246.850</ele>
        <time>2022-08-24T10:12:48Z</time>
      </trkpt>
      <trkpt lat="43.040059999999364" lon="-1.2814799999999995">
        <ele>1246.623</ele>
        <time>2022-08-24T10:12:51Z</time>
      </trkpt>
      <trkpt lat="43.040022999999366" lon="-1.2815209999999995">
        <ele>1246.237</ele>
        <time>2022-08-24T10:12:52Z</time>
      </trkpt>
      <trkpt lat="43.039988999999366" lon="-1.2815619999999994">
        <ele>1246.026</ele>
        <time>2022-08-24T10:12:53Z</time>
      </trkpt>
      <trkpt lat="43.039958999999364" lon="-1.2815999999999994">
        <ele>1246.097</ele>
        <time>2022-08-24T10:12:54Z</time>
      </trkpt>
      <trkpt lat="43.039935999999365" lon="-1.2816379999999994">
        <ele>1245.823</ele>
        <time>2022-08-24T10:12:55Z</time>
      </trkpt>
      <trkpt lat="43.03990399999937" lon="-1.2816729999999994">
        <ele>1245.825</ele>
        <time>2022-08-24T10:12:56Z</time>
      </trkpt>
      <trkpt lat="43.039870999999366" lon="-1.2817029999999994">
        <ele>1245.609</ele>
        <time>2022-08-24T10:12:57Z</time>
      </trkpt>
      <trkpt lat="43.039848999999364" lon="-1.2817339999999993">
        <ele>1245.460</ele>
        <time>2022-08-24T10:12:58Z</time>
      </trkpt>
      <trkpt lat="43.03982499999936" lon="-1.2817629999999993">
        <ele>1245.420</ele>
        <time>2022-08-24T10:12:59Z</time>
      </trkpt>
      <trkpt lat="43.03979799999936" lon="-1.2817959999999993">
        <ele>1245.250</ele>
        <time>2022-08-24T10:13:00Z</time>
      </trkpt>
      <trkpt lat="43.039773999999355" lon="-1.2818289999999992">
        <ele>1245.076</ele>
        <time>2022-08-24T10:13:01Z</time>
      </trkpt>
      <trkpt lat="43.03974999999935" lon="-1.2818539999999992">
        <ele>1244.878</ele>
        <time>2022-08-24T10:13:02Z</time>
      </trkpt>
      <trkpt lat="43.03973399999935" lon="-1.2818799999999992">
        <ele>1244.865</ele>
        <time>2022-08-24T10:13:03Z</time>
      </trkpt>
      <trkpt lat="43.03972299999935" lon="-1.2819039999999993">
        <ele>1244.428</ele>
        <time>2022-08-24T10:13:04Z</time>
      </trkpt>
      <trkpt lat="43.03967299999935" lon="-1.2819839999999993">
        <ele>1244.062</ele>
        <time>2022-08-24T10:13:07Z</time>
      </trkpt>
      <trkpt lat="43.039656999999345" lon="-1.2820079999999994">
        <ele>1244.031</ele>
        <time>2022-08-24T10:13:08Z</time>
      </trkpt>
      <trkpt lat="43.03963799999934" lon="-1.2820319999999994">
        <ele>1244.054</ele>
        <time>2022-08-24T10:13:09Z</time>
      </trkpt>
      <trkpt lat="43.03962199999934" lon="-1.2820529999999994">
        <ele>1244.056</ele>
        <time>2022-08-24T10:13:10Z</time>
      </trkpt>
      <trkpt lat="43.03960899999934" lon="-1.2820779999999994">
        <ele>1244.011</ele>
        <time>2022-08-24T10:13:11Z</time>
      </trkpt>
      <trkpt lat="43.03959699999934" lon="-1.2820919999999993">
        <ele>1244.009</ele>
        <time>2022-08-24T10:13:12Z</time>
      </trkpt>
      <trkpt lat="43.03958599999934" lon="-1.2821079999999994">
        <ele>1244.086</ele>
        <time>2022-08-24T10:13:13Z</time>
      </trkpt>
      <trkpt lat="43.039572999999336" lon="-1.2821289999999994">
        <ele>1244.016</ele>
        <time>2022-08-24T10:13:14Z</time>
      </trkpt>
      <trkpt lat="43.03955199999934" lon="-1.2821549999999995">
        <ele>1244.066</ele>
        <time>2022-08-24T10:13:15Z</time>
      </trkpt>
      <trkpt lat="43.03953599999934" lon="-1.2821739999999995">
        <ele>1244.272</ele>
        <time>2022-08-24T10:13:16Z</time>
      </trkpt>
      <trkpt lat="43.039511999999334" lon="-1.2821919999999996">
        <ele>1244.294</ele>
        <time>2022-08-24T10:13:17Z</time>
      </trkpt>
      <trkpt lat="43.03948199999933" lon="-1.2822069999999997">
        <ele>1244.441</ele>
        <time>2022-08-24T10:13:18Z</time>
      </trkpt>
      <trkpt lat="43.03945399999933" lon="-1.2822149999999997">
        <ele>1244.684</ele>
        <time>2022-08-24T10:13:19Z</time>
      </trkpt>
      <trkpt lat="43.03940999999933" lon="-1.2822319999999996">
        <ele>1244.878</ele>
        <time>2022-08-24T10:13:21Z</time>
      </trkpt>
      <trkpt lat="43.03939199999933" lon="-1.2822329999999995">
        <ele>1245.097</ele>
        <time>2022-08-24T10:13:22Z</time>
      </trkpt>
      <trkpt lat="43.03936599999933" lon="-1.2822299999999995">
        <ele>1245.444</ele>
        <time>2022-08-24T10:13:23Z</time>
      </trkpt>
      <trkpt lat="43.039345999999334" lon="-1.2822199999999995">
        <ele>1245.605</ele>
        <time>2022-08-24T10:13:24Z</time>
      </trkpt>
      <trkpt lat="43.039331999999334" lon="-1.2822129999999994">
        <ele>1245.815</ele>
        <time>2022-08-24T10:13:25Z</time>
      </trkpt>
      <trkpt lat="43.03931599999933" lon="-1.2822099999999994">
        <ele>1245.809</ele>
        <time>2022-08-24T10:13:26Z</time>
      </trkpt>
      <trkpt lat="43.03930299999933" lon="-1.2822099999999994">
        <ele>1246.065</ele>
        <time>2022-08-24T10:13:27Z</time>
      </trkpt>
      <trkpt lat="43.03928899999933" lon="-1.2822099999999994">
        <ele>1246.295</ele>
        <time>2022-08-24T10:13:28Z</time>
      </trkpt>
      <trkpt lat="43.03927399999933" lon="-1.2822109999999993">
        <ele>1246.475</ele>
        <time>2022-08-24T10:13:29Z</time>
      </trkpt>
      <trkpt lat="43.03925899999933" lon="-1.2822079999999993">
        <ele>1247.051</ele>
        <time>2022-08-24T10:13:30Z</time>
      </trkpt>
      <trkpt lat="43.03924599999933" lon="-1.2822069999999994">
        <ele>1247.253</ele>
        <time>2022-08-24T10:13:31Z</time>
      </trkpt>
      <trkpt lat="43.03923199999933" lon="-1.2822079999999993">
        <ele>1247.620</ele>
        <time>2022-08-24T10:13:32Z</time>
      </trkpt>
      <trkpt lat="43.039148999999334" lon="-1.2822319999999994">
        <ele>1248.213</ele>
        <time>2022-08-24T10:13:36Z</time>
      </trkpt>
      <trkpt lat="43.03910999999933" lon="-1.2822489999999993">
        <ele>1248.297</ele>
        <time>2022-08-24T10:13:37Z</time>
      </trkpt>
      <trkpt lat="43.03906599999933" lon="-1.2822729999999993">
        <ele>1248.256</ele>
        <time>2022-08-24T10:13:38Z</time>
      </trkpt>
      <trkpt lat="43.03902299999933" lon="-1.2822959999999994">
        <ele>1248.288</ele>
        <time>2022-08-24T10:13:39Z</time>
      </trkpt>
      <trkpt lat="43.03898499999933" lon="-1.2823179999999994">
        <ele>1247.824</ele>
        <time>2022-08-24T10:13:40Z</time>
      </trkpt>
      <trkpt lat="43.03895399999933" lon="-1.2823419999999994">
        <ele>1247.826</ele>
        <time>2022-08-24T10:13:41Z</time>
      </trkpt>
      <trkpt lat="43.038926999999326" lon="-1.2823689999999994">
        <ele>1247.609</ele>
        <time>2022-08-24T10:13:42Z</time>
      </trkpt>
      <trkpt lat="43.038904999999325" lon="-1.2823989999999994">
        <ele>1247.669</ele>
        <time>2022-08-24T10:13:43Z</time>
      </trkpt>
      <trkpt lat="43.038881999999326" lon="-1.2824329999999995">
        <ele>1247.459</ele>
        <time>2022-08-24T10:13:44Z</time>
      </trkpt>
      <trkpt lat="43.03886199999933" lon="-1.2824679999999995">
        <ele>1247.429</ele>
        <time>2022-08-24T10:13:45Z</time>
      </trkpt>
      <trkpt lat="43.03884199999933" lon="-1.2825049999999996">
        <ele>1247.275</ele>
        <time>2022-08-24T10:13:46Z</time>
      </trkpt>
      <trkpt lat="43.03882099999933" lon="-1.2825439999999995">
        <ele>1247.087</ele>
        <time>2022-08-24T10:13:47Z</time>
      </trkpt>
      <trkpt lat="43.038802999999334" lon="-1.2825819999999994">
        <ele>1247.074</ele>
        <time>2022-08-24T10:13:48Z</time>
      </trkpt>
      <trkpt lat="43.038742999999336" lon="-1.2826889999999995">
        <ele>1246.817</ele>
        <time>2022-08-24T10:13:51Z</time>
      </trkpt>
      <trkpt lat="43.038723999999334" lon="-1.2827219999999995">
        <ele>1246.421</ele>
        <time>2022-08-24T10:13:52Z</time>
      </trkpt>
      <trkpt lat="43.03868599999933" lon="-1.2827979999999994">
        <ele>1246.410</ele>
        <time>2022-08-24T10:13:54Z</time>
      </trkpt>
      <trkpt lat="43.03866799999933" lon="-1.2828339999999994">
        <ele>1246.448</ele>
        <time>2022-08-24T10:13:55Z</time>
      </trkpt>
      <trkpt lat="43.038652999999336" lon="-1.2828659999999994">
        <ele>1246.461</ele>
        <time>2022-08-24T10:13:56Z</time>
      </trkpt>
      <trkpt lat="43.038635999999336" lon="-1.2828989999999993">
        <ele>1246.417</ele>
        <time>2022-08-24T10:13:57Z</time>
      </trkpt>
      <trkpt lat="43.038619999999334" lon="-1.2829299999999992">
        <ele>1246.409</ele>
        <time>2022-08-24T10:13:58Z</time>
      </trkpt>
      <trkpt lat="43.038587999999336" lon="-1.2829919999999992">
        <ele>1246.475</ele>
        <time>2022-08-24T10:14:00Z</time>
      </trkpt>
      <trkpt lat="43.038571999999334" lon="-1.2830219999999992">
        <ele>1246.655</ele>
        <time>2022-08-24T10:14:01Z</time>
      </trkpt>
      <trkpt lat="43.03855699999934" lon="-1.2830539999999993">
        <ele>1246.625</ele>
        <time>2022-08-24T10:14:02Z</time>
      </trkpt>
      <trkpt lat="43.03854499999934" lon="-1.2830819999999992">
        <ele>1246.871</ele>
        <time>2022-08-24T10:14:03Z</time>
      </trkpt>
      <trkpt lat="43.03853299999934" lon="-1.2831089999999992">
        <ele>1246.833</ele>
        <time>2022-08-24T10:14:04Z</time>
      </trkpt>
      <trkpt lat="43.03852399999934" lon="-1.2831379999999992">
        <ele>1246.840</ele>
        <time>2022-08-24T10:14:05Z</time>
      </trkpt>
      <trkpt lat="43.03851899999934" lon="-1.2831679999999992">
        <ele>1246.863</ele>
        <time>2022-08-24T10:14:06Z</time>
      </trkpt>
      <trkpt lat="43.03851199999934" lon="-1.2831939999999993">
        <ele>1247.077</ele>
        <time>2022-08-24T10:14:07Z</time>
      </trkpt>
      <trkpt lat="43.03850199999934" lon="-1.2832219999999992">
        <ele>1247.236</ele>
        <time>2022-08-24T10:14:08Z</time>
      </trkpt>
      <trkpt lat="43.03849299999934" lon="-1.2832509999999993">
        <ele>1247.277</ele>
        <time>2022-08-24T10:14:09Z</time>
      </trkpt>
      <trkpt lat="43.03848799999934" lon="-1.2832769999999993">
        <ele>1247.461</ele>
        <time>2022-08-24T10:14:10Z</time>
      </trkpt>
      <trkpt lat="43.03848299999934" lon="-1.2832969999999992">
        <ele>1247.427</ele>
        <time>2022-08-24T10:14:11Z</time>
      </trkpt>
      <trkpt lat="43.03847599999934" lon="-1.2833129999999993">
        <ele>1247.609</ele>
        <time>2022-08-24T10:14:12Z</time>
      </trkpt>
      <trkpt lat="43.03847399999934" lon="-1.2833359999999994">
        <ele>1247.668</ele>
        <time>2022-08-24T10:14:13Z</time>
      </trkpt>
      <trkpt lat="43.03847299999934" lon="-1.2833569999999994">
        <ele>1247.888</ele>
        <time>2022-08-24T10:14:14Z</time>
      </trkpt>
      <trkpt lat="43.03846999999934" lon="-1.2833749999999995">
        <ele>1248.028</ele>
        <time>2022-08-24T10:14:15Z</time>
      </trkpt>
      <trkpt lat="43.038465999999346" lon="-1.2833969999999995">
        <ele>1248.264</ele>
        <time>2022-08-24T10:14:16Z</time>
      </trkpt>
      <trkpt lat="43.038463999999344" lon="-1.2834129999999995">
        <ele>1248.626</ele>
        <time>2022-08-24T10:14:17Z</time>
      </trkpt>
      <trkpt lat="43.038460999999344" lon="-1.2834259999999995">
        <ele>1249.023</ele>
        <time>2022-08-24T10:14:18Z</time>
      </trkpt>
      <trkpt lat="43.03845299999934" lon="-1.2834429999999994">
        <ele>1249.086</ele>
        <time>2022-08-24T10:14:19Z</time>
      </trkpt>
      <trkpt lat="43.038449999999344" lon="-1.2834629999999994">
        <ele>1249.030</ele>
        <time>2022-08-24T10:14:20Z</time>
      </trkpt>
      <trkpt lat="43.03844499999934" lon="-1.2834789999999994">
        <ele>1249.249</ele>
        <time>2022-08-24T10:14:21Z</time>
      </trkpt>
      <trkpt lat="43.03843099999934" lon="-1.2834989999999993">
        <ele>1249.274</ele>
        <time>2022-08-24T10:14:22Z</time>
      </trkpt>
      <trkpt lat="43.03841799999934" lon="-1.2835149999999993">
        <ele>1249.456</ele>
        <time>2022-08-24T10:14:23Z</time>
      </trkpt>
      <trkpt lat="43.03841399999934" lon="-1.2835289999999993">
        <ele>1249.421</ele>
        <time>2022-08-24T10:14:24Z</time>
      </trkpt>
      <trkpt lat="43.038412999999345" lon="-1.2835389999999993">
        <ele>1249.609</ele>
        <time>2022-08-24T10:14:25Z</time>
      </trkpt>
      <trkpt lat="43.03840599999935" lon="-1.2835489999999994">
        <ele>1249.688</ele>
        <time>2022-08-24T10:14:26Z</time>
      </trkpt>
      <trkpt lat="43.03839799999935" lon="-1.2835609999999993">
        <ele>1249.818</ele>
        <time>2022-08-24T10:14:27Z</time>
      </trkpt>
      <trkpt lat="43.038392999999346" lon="-1.2835759999999994">
        <ele>1250.058</ele>
        <time>2022-08-24T10:14:28Z</time>
      </trkpt>
      <trkpt lat="43.038392999999346" lon="-1.2835899999999993">
        <ele>1250.294</ele>
        <time>2022-08-24T10:14:29Z</time>
      </trkpt>
      <trkpt lat="43.03838399999935" lon="-1.2836039999999993">
        <ele>1250.226</ele>
        <time>2022-08-24T10:14:30Z</time>
      </trkpt>
      <trkpt lat="43.038370999999344" lon="-1.2836239999999992">
        <ele>1250.243</ele>
        <time>2022-08-24T10:14:31Z</time>
      </trkpt>
      <trkpt lat="43.038359999999344" lon="-1.2836469999999993">
        <ele>1250.456</ele>
        <time>2022-08-24T10:14:32Z</time>
      </trkpt>
      <trkpt lat="43.03835799999934" lon="-1.2836619999999994">
        <ele>1250.430</ele>
        <time>2022-08-24T10:14:33Z</time>
      </trkpt>
      <trkpt lat="43.038356999999344" lon="-1.2836669999999994">
        <ele>1250.659</ele>
        <time>2022-08-24T10:14:34Z</time>
      </trkpt>
      <trkpt lat="43.038356999999344" lon="-1.2836779999999994">
        <ele>1250.826</ele>
        <time>2022-08-24T10:14:35Z</time>
      </trkpt>
      <trkpt lat="43.03834899999934" lon="-1.2836879999999995">
        <ele>1251.047</ele>
        <time>2022-08-24T10:14:36Z</time>
      </trkpt>
      <trkpt lat="43.038350999999345" lon="-1.2837059999999996">
        <ele>1251.211</ele>
        <time>2022-08-24T10:14:37Z</time>
      </trkpt>
      <trkpt lat="43.03834599999934" lon="-1.2837229999999995">
        <ele>1251.409</ele>
        <time>2022-08-24T10:14:38Z</time>
      </trkpt>
      <trkpt lat="43.038347999999345" lon="-1.2837339999999995">
        <ele>1251.483</ele>
        <time>2022-08-24T10:14:39Z</time>
      </trkpt>
      <trkpt lat="43.038356999999344" lon="-1.2837489999999996">
        <ele>1251.433</ele>
        <time>2022-08-24T10:14:40Z</time>
      </trkpt>
      <trkpt lat="43.03836099999934" lon="-1.2837619999999996">
        <ele>1251.673</ele>
        <time>2022-08-24T10:14:41Z</time>
      </trkpt>
      <trkpt lat="43.03836199999934" lon="-1.2837729999999996">
        <ele>1251.839</ele>
        <time>2022-08-24T10:14:42Z</time>
      </trkpt>
      <trkpt lat="43.03835799999934" lon="-1.2837849999999995">
        <ele>1252.031</ele>
        <time>2022-08-24T10:14:43Z</time>
      </trkpt>
      <trkpt lat="43.03834599999934" lon="-1.2838019999999994">
        <ele>1252.228</ele>
        <time>2022-08-24T10:14:44Z</time>
      </trkpt>
      <trkpt lat="43.038341999999346" lon="-1.2838199999999995">
        <ele>1252.481</ele>
        <time>2022-08-24T10:14:45Z</time>
      </trkpt>
      <trkpt lat="43.03834099999935" lon="-1.2838349999999996">
        <ele>1252.665</ele>
        <time>2022-08-24T10:14:46Z</time>
      </trkpt>
      <trkpt lat="43.03833999999935" lon="-1.2838509999999996">
        <ele>1252.614</ele>
        <time>2022-08-24T10:14:47Z</time>
      </trkpt>
      <trkpt lat="43.038335999999354" lon="-1.2838679999999996">
        <ele>1252.877</ele>
        <time>2022-08-24T10:14:48Z</time>
      </trkpt>
      <trkpt lat="43.03833699999935" lon="-1.2838869999999996">
        <ele>1252.861</ele>
        <time>2022-08-24T10:14:49Z</time>
      </trkpt>
      <trkpt lat="43.03834199999935" lon="-1.2839069999999995">
        <ele>1253.227</ele>
        <time>2022-08-24T10:14:50Z</time>
      </trkpt>
      <trkpt lat="43.03833999999935" lon="-1.2839239999999994">
        <ele>1253.209</ele>
        <time>2022-08-24T10:14:51Z</time>
      </trkpt>
      <trkpt lat="43.03833699999935" lon="-1.2839429999999994">
        <ele>1253.438</ele>
        <time>2022-08-24T10:14:52Z</time>
      </trkpt>
      <trkpt lat="43.03832699999935" lon="-1.2839689999999995">
        <ele>1253.648</ele>
        <time>2022-08-24T10:14:53Z</time>
      </trkpt>
      <trkpt lat="43.03831599999935" lon="-1.2839859999999994">
        <ele>1253.638</ele>
        <time>2022-08-24T10:14:54Z</time>
      </trkpt>
      <trkpt lat="43.03830399999935" lon="-1.2839989999999994">
        <ele>1253.884</ele>
        <time>2022-08-24T10:14:55Z</time>
      </trkpt>
      <trkpt lat="43.03830199999935" lon="-1.2840089999999995">
        <ele>1253.826</ele>
        <time>2022-08-24T10:14:56Z</time>
      </trkpt>
      <trkpt lat="43.03829899999935" lon="-1.2840239999999996">
        <ele>1254.043</ele>
        <time>2022-08-24T10:14:57Z</time>
      </trkpt>
      <trkpt lat="43.03829499999935" lon="-1.2840439999999995">
        <ele>1254.276</ele>
        <time>2022-08-24T10:14:58Z</time>
      </trkpt>
      <trkpt lat="43.03829199999935" lon="-1.2840649999999996">
        <ele>1254.420</ele>
        <time>2022-08-24T10:14:59Z</time>
      </trkpt>
      <trkpt lat="43.03828899999935" lon="-1.2840859999999996">
        <ele>1254.699</ele>
        <time>2022-08-24T10:15:00Z</time>
      </trkpt>
      <trkpt lat="43.038284999999355" lon="-1.2841129999999996">
        <ele>1254.625</ele>
        <time>2022-08-24T10:15:01Z</time>
      </trkpt>
      <trkpt lat="43.038276999999354" lon="-1.2841349999999996">
        <ele>1254.826</ele>
        <time>2022-08-24T10:15:02Z</time>
      </trkpt>
      <trkpt lat="43.03826399999935" lon="-1.2841599999999995">
        <ele>1254.808</ele>
        <time>2022-08-24T10:15:03Z</time>
      </trkpt>
      <trkpt lat="43.03825099999935" lon="-1.2841759999999995">
        <ele>1255.209</ele>
        <time>2022-08-24T10:15:04Z</time>
      </trkpt>
      <trkpt lat="43.03825099999935" lon="-1.2841949999999995">
        <ele>1255.253</ele>
        <time>2022-08-24T10:15:05Z</time>
      </trkpt>
      <trkpt lat="43.03824199999935" lon="-1.2842139999999995">
        <ele>1255.263</ele>
        <time>2022-08-24T10:15:06Z</time>
      </trkpt>
      <trkpt lat="43.03824299999935" lon="-1.2842319999999996">
        <ele>1255.443</ele>
        <time>2022-08-24T10:15:07Z</time>
      </trkpt>
      <trkpt lat="43.038246999999345" lon="-1.2842489999999995">
        <ele>1255.499</ele>
        <time>2022-08-24T10:15:08Z</time>
      </trkpt>
      <trkpt lat="43.038243999999345" lon="-1.2842679999999995">
        <ele>1255.631</ele>
        <time>2022-08-24T10:15:09Z</time>
      </trkpt>
      <trkpt lat="43.038252999999344" lon="-1.2842799999999994">
        <ele>1255.628</ele>
        <time>2022-08-24T10:15:10Z</time>
      </trkpt>
      <trkpt lat="43.038257999999345" lon="-1.2842899999999995">
        <ele>1255.841</ele>
        <time>2022-08-24T10:15:11Z</time>
      </trkpt>
      <trkpt lat="43.03825899999934" lon="-1.2843049999999996">
        <ele>1255.885</ele>
        <time>2022-08-24T10:15:12Z</time>
      </trkpt>
      <trkpt lat="43.03825699999934" lon="-1.2843219999999995">
        <ele>1256.014</ele>
        <time>2022-08-24T10:15:13Z</time>
      </trkpt>
      <trkpt lat="43.038252999999344" lon="-1.2843359999999995">
        <ele>1256.447</ele>
        <time>2022-08-24T10:15:14Z</time>
      </trkpt>
      <trkpt lat="43.038246999999345" lon="-1.2843519999999995">
        <ele>1256.429</ele>
        <time>2022-08-24T10:15:15Z</time>
      </trkpt>
      <trkpt lat="43.03823999999935" lon="-1.2843739999999995">
        <ele>1256.421</ele>
        <time>2022-08-24T10:15:16Z</time>
      </trkpt>
      <trkpt lat="43.03823199999935" lon="-1.2843899999999995">
        <ele>1256.609</ele>
        <time>2022-08-24T10:15:17Z</time>
      </trkpt>
      <trkpt lat="43.03822799999935" lon="-1.2844119999999994">
        <ele>1256.675</ele>
        <time>2022-08-24T10:15:18Z</time>
      </trkpt>
      <trkpt lat="43.03821999999935" lon="-1.2844279999999995">
        <ele>1256.635</ele>
        <time>2022-08-24T10:15:19Z</time>
      </trkpt>
      <trkpt lat="43.03821999999935" lon="-1.2844479999999994">
        <ele>1256.645</ele>
        <time>2022-08-24T10:15:20Z</time>
      </trkpt>
      <trkpt lat="43.03821699999935" lon="-1.2844659999999994">
        <ele>1256.831</ele>
        <time>2022-08-24T10:15:21Z</time>
      </trkpt>
      <trkpt lat="43.03821299999935" lon="-1.2844859999999994">
        <ele>1256.863</ele>
        <time>2022-08-24T10:15:22Z</time>
      </trkpt>
      <trkpt lat="43.038211999999355" lon="-1.2844979999999993">
        <ele>1257.060</ele>
        <time>2022-08-24T10:15:23Z</time>
      </trkpt>
      <trkpt lat="43.03820699999935" lon="-1.2845129999999993">
        <ele>1257.263</ele>
        <time>2022-08-24T10:15:24Z</time>
      </trkpt>
      <trkpt lat="43.038203999999354" lon="-1.2845279999999994">
        <ele>1257.267</ele>
        <time>2022-08-24T10:15:25Z</time>
      </trkpt>
      <trkpt lat="43.038203999999354" lon="-1.2845409999999995">
        <ele>1257.696</ele>
        <time>2022-08-24T10:15:26Z</time>
      </trkpt>
      <trkpt lat="43.038203999999354" lon="-1.2845539999999995">
        <ele>1257.887</ele>
        <time>2022-08-24T10:15:27Z</time>
      </trkpt>
      <trkpt lat="43.038202999999356" lon="-1.2845669999999996">
        <ele>1257.842</ele>
        <time>2022-08-24T10:15:28Z</time>
      </trkpt>
      <trkpt lat="43.038200999999354" lon="-1.2845789999999995">
        <ele>1258.026</ele>
        <time>2022-08-24T10:15:29Z</time>
      </trkpt>
      <trkpt lat="43.038200999999354" lon="-1.2845929999999994">
        <ele>1258.409</ele>
        <time>2022-08-24T10:15:30Z</time>
      </trkpt>
      <trkpt lat="43.03820499999935" lon="-1.2846049999999993">
        <ele>1258.419</ele>
        <time>2022-08-24T10:15:31Z</time>
      </trkpt>
      <trkpt lat="43.03821099999935" lon="-1.2846159999999993">
        <ele>1258.869</ele>
        <time>2022-08-24T10:15:32Z</time>
      </trkpt>
      <trkpt lat="43.03821299999935" lon="-1.2846259999999994">
        <ele>1259.079</ele>
        <time>2022-08-24T10:15:33Z</time>
      </trkpt>
      <trkpt lat="43.03821099999935" lon="-1.2846399999999993">
        <ele>1259.055</ele>
        <time>2022-08-24T10:15:34Z</time>
      </trkpt>
      <trkpt lat="43.03821299999935" lon="-1.2846479999999993">
        <ele>1259.267</ele>
        <time>2022-08-24T10:15:35Z</time>
      </trkpt>
      <trkpt lat="43.038208999999355" lon="-1.2846509999999993">
        <ele>1259.434</ele>
        <time>2022-08-24T10:15:36Z</time>
      </trkpt>
      <trkpt lat="43.03820699999935" lon="-1.2846699999999993">
        <ele>1259.667</ele>
        <time>2022-08-24T10:15:37Z</time>
      </trkpt>
      <trkpt lat="43.038205999999356" lon="-1.2846869999999992">
        <ele>1259.671</ele>
        <time>2022-08-24T10:15:38Z</time>
      </trkpt>
      <trkpt lat="43.03820499999936" lon="-1.2847049999999993">
        <ele>1259.840</ele>
        <time>2022-08-24T10:15:39Z</time>
      </trkpt>
      <trkpt lat="43.03820399999936" lon="-1.2847249999999992">
        <ele>1260.015</ele>
        <time>2022-08-24T10:15:40Z</time>
      </trkpt>
      <trkpt lat="43.03820299999936" lon="-1.2847399999999993">
        <ele>1260.065</ele>
        <time>2022-08-24T10:15:41Z</time>
      </trkpt>
      <trkpt lat="43.03819799999936" lon="-1.2847539999999993">
        <ele>1260.011</ele>
        <time>2022-08-24T10:15:42Z</time>
      </trkpt>
      <trkpt lat="43.038193999999365" lon="-1.2847669999999993">
        <ele>1260.009</ele>
        <time>2022-08-24T10:15:43Z</time>
      </trkpt>
      <trkpt lat="43.038193999999365" lon="-1.2847819999999994">
        <ele>1260.252</ele>
        <time>2022-08-24T10:15:44Z</time>
      </trkpt>
      <trkpt lat="43.03819299999937" lon="-1.2847959999999994">
        <ele>1260.232</ele>
        <time>2022-08-24T10:15:45Z</time>
      </trkpt>
      <trkpt lat="43.03818099999937" lon="-1.2848109999999995">
        <ele>1260.432</ele>
        <time>2022-08-24T10:15:46Z</time>
      </trkpt>
      <trkpt lat="43.03817599999937" lon="-1.2848259999999996">
        <ele>1260.458</ele>
        <time>2022-08-24T10:15:47Z</time>
      </trkpt>
      <trkpt lat="43.038173999999366" lon="-1.2848389999999996">
        <ele>1260.650</ele>
        <time>2022-08-24T10:15:48Z</time>
      </trkpt>
      <trkpt lat="43.038173999999366" lon="-1.2848539999999997">
        <ele>1261.047</ele>
        <time>2022-08-24T10:15:49Z</time>
      </trkpt>
      <trkpt lat="43.038176999999365" lon="-1.2848629999999996">
        <ele>1261.060</ele>
        <time>2022-08-24T10:15:50Z</time>
      </trkpt>
      <trkpt lat="43.038173999999366" lon="-1.2848759999999997">
        <ele>1261.274</ele>
        <time>2022-08-24T10:15:51Z</time>
      </trkpt>
      <trkpt lat="43.03817199999936" lon="-1.2848849999999996">
        <ele>1261.483</ele>
        <time>2022-08-24T10:15:52Z</time>
      </trkpt>
      <trkpt lat="43.038168999999364" lon="-1.2848899999999996">
        <ele>1261.456</ele>
        <time>2022-08-24T10:15:53Z</time>
      </trkpt>
      <trkpt lat="43.03816499999937" lon="-1.2849039999999996">
        <ele>1261.659</ele>
        <time>2022-08-24T10:15:54Z</time>
      </trkpt>
      <trkpt lat="43.03816399999937" lon="-1.2849199999999996">
        <ele>1261.814</ele>
        <time>2022-08-24T10:15:55Z</time>
      </trkpt>
      <trkpt lat="43.03816399999937" lon="-1.2849329999999997">
        <ele>1262.009</ele>
        <time>2022-08-24T10:15:56Z</time>
      </trkpt>
      <trkpt lat="43.03816299999937" lon="-1.2849449999999996">
        <ele>1262.096</ele>
        <time>2022-08-24T10:15:57Z</time>
      </trkpt>
      <trkpt lat="43.03815999999937" lon="-1.2849599999999997">
        <ele>1262.256</ele>
        <time>2022-08-24T10:15:58Z</time>
      </trkpt>
      <trkpt lat="43.03815199999937" lon="-1.2849749999999998">
        <ele>1262.436</ele>
        <time>2022-08-24T10:15:59Z</time>
      </trkpt>
      <trkpt lat="43.038147999999374" lon="-1.2849909999999998">
        <ele>1262.632</ele>
        <time>2022-08-24T10:16:00Z</time>
      </trkpt>
      <trkpt lat="43.03814399999938" lon="-1.2850099999999998">
        <ele>1262.664</ele>
        <time>2022-08-24T10:16:01Z</time>
      </trkpt>
      <trkpt lat="43.038130999999375" lon="-1.2850279999999998">
        <ele>1262.881</ele>
        <time>2022-08-24T10:16:02Z</time>
      </trkpt>
      <trkpt lat="43.038127999999375" lon="-1.2850419999999998">
        <ele>1263.024</ele>
        <time>2022-08-24T10:16:03Z</time>
      </trkpt>
      <trkpt lat="43.03811899999938" lon="-1.285057">
        <ele>1263.278</ele>
        <time>2022-08-24T10:16:04Z</time>
      </trkpt>
      <trkpt lat="43.038116999999374" lon="-1.2850739999999998">
        <ele>1263.457</ele>
        <time>2022-08-24T10:16:05Z</time>
      </trkpt>
      <trkpt lat="43.03811799999937" lon="-1.2850859999999997">
        <ele>1263.851</ele>
        <time>2022-08-24T10:16:06Z</time>
      </trkpt>
      <trkpt lat="43.03811899999937" lon="-1.2850979999999996">
        <ele>1263.801</ele>
        <time>2022-08-24T10:16:07Z</time>
      </trkpt>
      <trkpt lat="43.03811699999937" lon="-1.2851089999999996">
        <ele>1264.011</ele>
        <time>2022-08-24T10:16:08Z</time>
      </trkpt>
      <trkpt lat="43.03811599999937" lon="-1.2851229999999996">
        <ele>1264.009</ele>
        <time>2022-08-24T10:16:09Z</time>
      </trkpt>
      <trkpt lat="43.03811299999937" lon="-1.2851389999999996">
        <ele>1264.026</ele>
        <time>2022-08-24T10:16:10Z</time>
      </trkpt>
      <trkpt lat="43.03811299999937" lon="-1.2851529999999995">
        <ele>1264.246</ele>
        <time>2022-08-24T10:16:11Z</time>
      </trkpt>
      <trkpt lat="43.03811199999937" lon="-1.2851649999999994">
        <ele>1264.446</ele>
        <time>2022-08-24T10:16:12Z</time>
      </trkpt>
      <trkpt lat="43.03811199999937" lon="-1.2851759999999994">
        <ele>1264.622</ele>
        <time>2022-08-24T10:16:13Z</time>
      </trkpt>
      <trkpt lat="43.038110999999375" lon="-1.2851859999999995">
        <ele>1264.634</ele>
        <time>2022-08-24T10:16:14Z</time>
      </trkpt>
      <trkpt lat="43.03810699999938" lon="-1.2851979999999994">
        <ele>1264.861</ele>
        <time>2022-08-24T10:16:15Z</time>
      </trkpt>
      <trkpt lat="43.038107999999376" lon="-1.2852089999999994">
        <ele>1264.864</ele>
        <time>2022-08-24T10:16:16Z</time>
      </trkpt>
      <trkpt lat="43.038110999999375" lon="-1.2852209999999993">
        <ele>1265.048</ele>
        <time>2022-08-24T10:16:17Z</time>
      </trkpt>
      <trkpt lat="43.03810699999938" lon="-1.2852369999999993">
        <ele>1265.017</ele>
        <time>2022-08-24T10:16:18Z</time>
      </trkpt>
      <trkpt lat="43.03810199999938" lon="-1.2852519999999994">
        <ele>1265.299</ele>
        <time>2022-08-24T10:16:19Z</time>
      </trkpt>
      <trkpt lat="43.038096999999375" lon="-1.2852659999999994">
        <ele>1265.207</ele>
        <time>2022-08-24T10:16:20Z</time>
      </trkpt>
      <trkpt lat="43.03808999999938" lon="-1.2852849999999993">
        <ele>1265.227</ele>
        <time>2022-08-24T10:16:21Z</time>
      </trkpt>
      <trkpt lat="43.03808599999938" lon="-1.2853039999999993">
        <ele>1265.409</ele>
        <time>2022-08-24T10:16:22Z</time>
      </trkpt>
      <trkpt lat="43.038084999999384" lon="-1.2853209999999993">
        <ele>1265.440</ele>
        <time>2022-08-24T10:16:23Z</time>
      </trkpt>
      <trkpt lat="43.03807799999939" lon="-1.2853409999999992">
        <ele>1265.470</ele>
        <time>2022-08-24T10:16:24Z</time>
      </trkpt>
      <trkpt lat="43.03807099999939" lon="-1.2853559999999993">
        <ele>1265.670</ele>
        <time>2022-08-24T10:16:25Z</time>
      </trkpt>
      <trkpt lat="43.03806899999939" lon="-1.2853729999999992">
        <ele>1265.886</ele>
        <time>2022-08-24T10:16:26Z</time>
      </trkpt>
      <trkpt lat="43.03806799999939" lon="-1.2853899999999991">
        <ele>1266.018</ele>
        <time>2022-08-24T10:16:27Z</time>
      </trkpt>
      <trkpt lat="43.03806599999939" lon="-1.285406999999999">
        <ele>1266.065</ele>
        <time>2022-08-24T10:16:28Z</time>
      </trkpt>
      <trkpt lat="43.03806399999939" lon="-1.2854199999999991">
        <ele>1266.268</ele>
        <time>2022-08-24T10:16:29Z</time>
      </trkpt>
      <trkpt lat="43.03806399999939" lon="-1.285430999999999">
        <ele>1266.282</ele>
        <time>2022-08-24T10:16:30Z</time>
      </trkpt>
      <trkpt lat="43.03806699999939" lon="-1.2854469999999991">
        <ele>1266.471</ele>
        <time>2022-08-24T10:16:31Z</time>
      </trkpt>
      <trkpt lat="43.03805999999939" lon="-1.285468999999999">
        <ele>1266.458</ele>
        <time>2022-08-24T10:16:32Z</time>
      </trkpt>
      <trkpt lat="43.03805599999939" lon="-1.285488999999999">
        <ele>1266.652</ele>
        <time>2022-08-24T10:16:33Z</time>
      </trkpt>
      <trkpt lat="43.038052999999394" lon="-1.285507999999999">
        <ele>1266.617</ele>
        <time>2022-08-24T10:16:35Z</time>
      </trkpt>
      <trkpt lat="43.0380459999994" lon="-1.285527999999999">
        <ele>1266.609</ele>
        <time>2022-08-24T10:16:36Z</time>
      </trkpt>
      <trkpt lat="43.0380389999994" lon="-1.2855449999999988">
        <ele>1266.896</ele>
        <time>2022-08-24T10:16:37Z</time>
      </trkpt>
      <trkpt lat="43.038031999999404" lon="-1.2855689999999989">
        <ele>1267.046</ele>
        <time>2022-08-24T10:16:38Z</time>
      </trkpt>
      <trkpt lat="43.0380269999994" lon="-1.2855969999999988">
        <ele>1267.026</ele>
        <time>2022-08-24T10:16:39Z</time>
      </trkpt>
      <trkpt lat="43.038014999999405" lon="-1.2856249999999987">
        <ele>1267.232</ele>
        <time>2022-08-24T10:16:40Z</time>
      </trkpt>
      <trkpt lat="43.038008999999406" lon="-1.2856559999999986">
        <ele>1267.264</ele>
        <time>2022-08-24T10:16:41Z</time>
      </trkpt>
      <trkpt lat="43.03800799999941" lon="-1.2856839999999985">
        <ele>1267.451</ele>
        <time>2022-08-24T10:16:42Z</time>
      </trkpt>
      <trkpt lat="43.03800699999941" lon="-1.2857109999999985">
        <ele>1267.434</ele>
        <time>2022-08-24T10:16:43Z</time>
      </trkpt>
      <trkpt lat="43.03800099999941" lon="-1.2857389999999984">
        <ele>1267.458</ele>
        <time>2022-08-24T10:16:44Z</time>
      </trkpt>
      <trkpt lat="43.037996999999415" lon="-1.2857629999999984">
        <ele>1267.477</ele>
        <time>2022-08-24T10:16:45Z</time>
      </trkpt>
      <trkpt lat="43.037987999999416" lon="-1.2857869999999985">
        <ele>1267.643</ele>
        <time>2022-08-24T10:16:46Z</time>
      </trkpt>
      <trkpt lat="43.03797899999942" lon="-1.2858059999999985">
        <ele>1267.664</ele>
        <time>2022-08-24T10:16:47Z</time>
      </trkpt>
      <trkpt lat="43.037973999999416" lon="-1.2858299999999985">
        <ele>1267.610</ele>
        <time>2022-08-24T10:16:48Z</time>
      </trkpt>
      <trkpt lat="43.03796499999942" lon="-1.2858549999999984">
        <ele>1267.609</ele>
        <time>2022-08-24T10:16:49Z</time>
      </trkpt>
      <trkpt lat="43.037956999999416" lon="-1.2858839999999985">
        <ele>1267.625</ele>
        <time>2022-08-24T10:16:50Z</time>
      </trkpt>
      <trkpt lat="43.037956999999416" lon="-1.2859129999999985">
        <ele>1267.855</ele>
        <time>2022-08-24T10:16:51Z</time>
      </trkpt>
      <trkpt lat="43.037945999999415" lon="-1.2859489999999985">
        <ele>1267.885</ele>
        <time>2022-08-24T10:16:52Z</time>
      </trkpt>
      <trkpt lat="43.03794199999942" lon="-1.2860169999999984">
        <ele>1268.021</ele>
        <time>2022-08-24T10:16:54Z</time>
      </trkpt>
      <trkpt lat="43.03793899999942" lon="-1.2860539999999985">
        <ele>1268.013</ele>
        <time>2022-08-24T10:16:55Z</time>
      </trkpt>
      <trkpt lat="43.03793199999942" lon="-1.2861259999999985">
        <ele>1268.420</ele>
        <time>2022-08-24T10:16:57Z</time>
      </trkpt>
      <trkpt lat="43.03792999999942" lon="-1.2861689999999986">
        <ele>1268.413</ele>
        <time>2022-08-24T10:16:58Z</time>
      </trkpt>
      <trkpt lat="43.03790699999942" lon="-1.2862519999999986">
        <ele>1268.617</ele>
        <time>2022-08-24T10:17:00Z</time>
      </trkpt>
      <trkpt lat="43.03788999999942" lon="-1.2862959999999986">
        <ele>1268.836</ele>
        <time>2022-08-24T10:17:01Z</time>
      </trkpt>
      <trkpt lat="43.037871999999425" lon="-1.2863389999999986">
        <ele>1268.865</ele>
        <time>2022-08-24T10:17:02Z</time>
      </trkpt>
      <trkpt lat="43.03785699999943" lon="-1.2863669999999985">
        <ele>1269.068</ele>
        <time>2022-08-24T10:17:03Z</time>
      </trkpt>
      <trkpt lat="43.03786399999942" lon="-1.2864169999999986">
        <ele>1269.214</ele>
        <time>2022-08-24T10:17:05Z</time>
      </trkpt>
      <trkpt lat="43.03785599999942" lon="-1.2864649999999986">
        <ele>1269.209</ele>
        <time>2022-08-24T10:17:06Z</time>
      </trkpt>
      <trkpt lat="43.03784199999942" lon="-1.2864989999999987">
        <ele>1269.287</ele>
        <time>2022-08-24T10:17:07Z</time>
      </trkpt>
      <trkpt lat="43.03783399999942" lon="-1.2865299999999986">
        <ele>1269.457</ele>
        <time>2022-08-24T10:17:08Z</time>
      </trkpt>
      <trkpt lat="43.03782799999942" lon="-1.2866139999999986">
        <ele>1269.257</ele>
        <time>2022-08-24T10:17:10Z</time>
      </trkpt>
      <trkpt lat="43.03780299999942" lon="-1.2867499999999985">
        <ele>1269.473</ele>
        <time>2022-08-24T10:17:14Z</time>
      </trkpt>
      <trkpt lat="43.03779099999942" lon="-1.2868109999999986">
        <ele>1269.445</ele>
        <time>2022-08-24T10:17:16Z</time>
      </trkpt>
      <trkpt lat="43.03778799999942" lon="-1.2868359999999985">
        <ele>1269.432</ele>
        <time>2022-08-24T10:17:17Z</time>
      </trkpt>
      <trkpt lat="43.03778399999943" lon="-1.2868619999999986">
        <ele>1269.485</ele>
        <time>2022-08-24T10:17:18Z</time>
      </trkpt>
      <trkpt lat="43.03775799999943" lon="-1.2869559999999987">
        <ele>1269.279</ele>
        <time>2022-08-24T10:17:22Z</time>
      </trkpt>
      <trkpt lat="43.03775199999943" lon="-1.2869759999999986">
        <ele>1269.248</ele>
        <time>2022-08-24T10:17:23Z</time>
      </trkpt>
      <trkpt lat="43.03768599999943" lon="-1.2872049999999986">
        <ele>1269.228</ele>
        <time>2022-08-24T10:17:30Z</time>
      </trkpt>
      <trkpt lat="43.03766199999943" lon="-1.2873639999999986">
        <ele>1268.489</ele>
        <time>2022-08-24T10:17:34Z</time>
      </trkpt>
      <trkpt lat="43.03764299999943" lon="-1.2874359999999987">
        <ele>1268.217</ele>
        <time>2022-08-24T10:17:36Z</time>
      </trkpt>
      <trkpt lat="43.037632999999424" lon="-1.2874679999999987">
        <ele>1268.009</ele>
        <time>2022-08-24T10:17:37Z</time>
      </trkpt>
      <trkpt lat="43.03762199999942" lon="-1.2874999999999988">
        <ele>1267.673</ele>
        <time>2022-08-24T10:17:38Z</time>
      </trkpt>
      <trkpt lat="43.03760299999942" lon="-1.2875659999999987">
        <ele>1267.453</ele>
        <time>2022-08-24T10:17:40Z</time>
      </trkpt>
      <trkpt lat="43.03757899999942" lon="-1.2876329999999987">
        <ele>1267.223</ele>
        <time>2022-08-24T10:17:42Z</time>
      </trkpt>
      <trkpt lat="43.03756699999942" lon="-1.2876639999999986">
        <ele>1267.299</ele>
        <time>2022-08-24T10:17:43Z</time>
      </trkpt>
      <trkpt lat="43.03755599999942" lon="-1.2876899999999987">
        <ele>1267.221</ele>
        <time>2022-08-24T10:17:44Z</time>
      </trkpt>
      <trkpt lat="43.03754699999942" lon="-1.2877139999999987">
        <ele>1267.248</ele>
        <time>2022-08-24T10:17:45Z</time>
      </trkpt>
      <trkpt lat="43.03753499999942" lon="-1.2877399999999988">
        <ele>1267.231</ele>
        <time>2022-08-24T10:17:46Z</time>
      </trkpt>
      <trkpt lat="43.037522999999425" lon="-1.2877659999999989">
        <ele>1267.465</ele>
        <time>2022-08-24T10:17:47Z</time>
      </trkpt>
      <trkpt lat="43.03751499999942" lon="-1.2877909999999988">
        <ele>1267.674</ele>
        <time>2022-08-24T10:17:48Z</time>
      </trkpt>
      <trkpt lat="43.037505999999425" lon="-1.2878149999999988">
        <ele>1267.652</ele>
        <time>2022-08-24T10:17:49Z</time>
      </trkpt>
      <trkpt lat="43.037497999999424" lon="-1.287837999999999">
        <ele>1268.053</ele>
        <time>2022-08-24T10:17:50Z</time>
      </trkpt>
      <trkpt lat="43.03748999999942" lon="-1.287858999999999">
        <ele>1268.608</ele>
        <time>2022-08-24T10:17:51Z</time>
      </trkpt>
      <trkpt lat="43.03748499999942" lon="-1.287879999999999">
        <ele>1268.809</ele>
        <time>2022-08-24T10:17:52Z</time>
      </trkpt>
      <trkpt lat="43.03747999999942" lon="-1.287900999999999">
        <ele>1269.256</ele>
        <time>2022-08-24T10:17:53Z</time>
      </trkpt>
      <trkpt lat="43.03747699999942" lon="-1.287919999999999">
        <ele>1269.286</ele>
        <time>2022-08-24T10:17:54Z</time>
      </trkpt>
      <trkpt lat="43.03747099999942" lon="-1.2879409999999991">
        <ele>1269.876</ele>
        <time>2022-08-24T10:17:55Z</time>
      </trkpt>
      <trkpt lat="43.03746299999942" lon="-1.2879839999999991">
        <ele>1270.482</ele>
        <time>2022-08-24T10:17:57Z</time>
      </trkpt>
      <trkpt lat="43.03744999999942" lon="-1.2880459999999991">
        <ele>1271.054</ele>
        <time>2022-08-24T10:18:00Z</time>
      </trkpt>
      <trkpt lat="43.03744299999942" lon="-1.2880639999999992">
        <ele>1271.241</ele>
        <time>2022-08-24T10:18:01Z</time>
      </trkpt>
      <trkpt lat="43.03743499999942" lon="-1.2880789999999993">
        <ele>1271.464</ele>
        <time>2022-08-24T10:18:02Z</time>
      </trkpt>
      <trkpt lat="43.03742699999942" lon="-1.2880909999999992">
        <ele>1271.468</ele>
        <time>2022-08-24T10:18:03Z</time>
      </trkpt>
      <trkpt lat="43.03742099999942" lon="-1.2881059999999993">
        <ele>1271.847</ele>
        <time>2022-08-24T10:18:04Z</time>
      </trkpt>
      <trkpt lat="43.03741499999942" lon="-1.2881209999999994">
        <ele>1272.023</ele>
        <time>2022-08-24T10:18:05Z</time>
      </trkpt>
      <trkpt lat="43.03740999999942" lon="-1.2881369999999994">
        <ele>1272.283</ele>
        <time>2022-08-24T10:18:06Z</time>
      </trkpt>
      <trkpt lat="43.03740499999942" lon="-1.2881549999999995">
        <ele>1272.411</ele>
        <time>2022-08-24T10:18:07Z</time>
      </trkpt>
      <trkpt lat="43.03740199999942" lon="-1.2881709999999995">
        <ele>1272.409</ele>
        <time>2022-08-24T10:18:08Z</time>
      </trkpt>
      <trkpt lat="43.03739499999942" lon="-1.2881869999999995">
        <ele>1272.853</ele>
        <time>2022-08-24T10:18:09Z</time>
      </trkpt>
      <trkpt lat="43.03738899999942" lon="-1.2881999999999996">
        <ele>1273.043</ele>
        <time>2022-08-24T10:18:10Z</time>
      </trkpt>
      <trkpt lat="43.03738099999942" lon="-1.2882159999999996">
        <ele>1273.063</ele>
        <time>2022-08-24T10:18:11Z</time>
      </trkpt>
      <trkpt lat="43.037376999999424" lon="-1.2882339999999997">
        <ele>1273.459</ele>
        <time>2022-08-24T10:18:12Z</time>
      </trkpt>
      <trkpt lat="43.03737299999943" lon="-1.2882509999999996">
        <ele>1273.621</ele>
        <time>2022-08-24T10:18:13Z</time>
      </trkpt>
      <trkpt lat="43.03736899999943" lon="-1.2882699999999996">
        <ele>1273.688</ele>
        <time>2022-08-24T10:18:14Z</time>
      </trkpt>
      <trkpt lat="43.03736599999943" lon="-1.2882859999999996">
        <ele>1273.831</ele>
        <time>2022-08-24T10:18:15Z</time>
      </trkpt>
      <trkpt lat="43.03736499999943" lon="-1.2882979999999995">
        <ele>1273.855</ele>
        <time>2022-08-24T10:18:16Z</time>
      </trkpt>
      <trkpt lat="43.03736499999943" lon="-1.2883139999999995">
        <ele>1274.054</ele>
        <time>2022-08-24T10:18:17Z</time>
      </trkpt>
      <trkpt lat="43.03736299999943" lon="-1.2883299999999995">
        <ele>1274.052</ele>
        <time>2022-08-24T10:18:18Z</time>
      </trkpt>
      <trkpt lat="43.037355999999434" lon="-1.2883459999999995">
        <ele>1274.253</ele>
        <time>2022-08-24T10:18:19Z</time>
      </trkpt>
      <trkpt lat="43.037349999999435" lon="-1.2883619999999996">
        <ele>1274.208</ele>
        <time>2022-08-24T10:18:20Z</time>
      </trkpt>
      <trkpt lat="43.037341999999434" lon="-1.2883769999999997">
        <ele>1274.409</ele>
        <time>2022-08-24T10:18:21Z</time>
      </trkpt>
      <trkpt lat="43.03733699999943" lon="-1.2883899999999997">
        <ele>1274.486</ele>
        <time>2022-08-24T10:18:22Z</time>
      </trkpt>
      <trkpt lat="43.03733499999943" lon="-1.2884059999999997">
        <ele>1274.656</ele>
        <time>2022-08-24T10:18:23Z</time>
      </trkpt>
      <trkpt lat="43.03733199999943" lon="-1.2884189999999998">
        <ele>1274.856</ele>
        <time>2022-08-24T10:18:24Z</time>
      </trkpt>
      <trkpt lat="43.03733099999943" lon="-1.2884319999999998">
        <ele>1275.032</ele>
        <time>2022-08-24T10:18:25Z</time>
      </trkpt>
      <trkpt lat="43.037327999999434" lon="-1.2884439999999997">
        <ele>1275.284</ele>
        <time>2022-08-24T10:18:26Z</time>
      </trkpt>
      <trkpt lat="43.03732099999944" lon="-1.2884579999999997">
        <ele>1275.411</ele>
        <time>2022-08-24T10:18:27Z</time>
      </trkpt>
      <trkpt lat="43.037315999999436" lon="-1.2884699999999996">
        <ele>1275.694</ele>
        <time>2022-08-24T10:18:28Z</time>
      </trkpt>
      <trkpt lat="43.03730999999944" lon="-1.2884819999999995">
        <ele>1275.868</ele>
        <time>2022-08-24T10:18:29Z</time>
      </trkpt>
      <trkpt lat="43.037301999999436" lon="-1.2884969999999996">
        <ele>1275.837</ele>
        <time>2022-08-24T10:18:30Z</time>
      </trkpt>
      <trkpt lat="43.037290999999435" lon="-1.2885139999999995">
        <ele>1276.293</ele>
        <time>2022-08-24T10:18:31Z</time>
      </trkpt>
      <trkpt lat="43.03728099999943" lon="-1.2885329999999995">
        <ele>1276.465</ele>
        <time>2022-08-24T10:18:32Z</time>
      </trkpt>
      <trkpt lat="43.03727299999943" lon="-1.2885439999999995">
        <ele>1276.621</ele>
        <time>2022-08-24T10:18:33Z</time>
      </trkpt>
      <trkpt lat="43.03726399999943" lon="-1.2885589999999996">
        <ele>1276.609</ele>
        <time>2022-08-24T10:18:34Z</time>
      </trkpt>
      <trkpt lat="43.037256999999435" lon="-1.2885759999999995">
        <ele>1276.860</ele>
        <time>2022-08-24T10:18:35Z</time>
      </trkpt>
      <trkpt lat="43.037250999999436" lon="-1.2885969999999995">
        <ele>1276.850</ele>
        <time>2022-08-24T10:18:36Z</time>
      </trkpt>
      <trkpt lat="43.03724499999944" lon="-1.2886189999999995">
        <ele>1277.080</ele>
        <time>2022-08-24T10:18:37Z</time>
      </trkpt>
      <trkpt lat="43.03723899999944" lon="-1.2886399999999996">
        <ele>1277.066</ele>
        <time>2022-08-24T10:18:38Z</time>
      </trkpt>
      <trkpt lat="43.03723299999944" lon="-1.2886649999999995">
        <ele>1277.028</ele>
        <time>2022-08-24T10:18:39Z</time>
      </trkpt>
      <trkpt lat="43.03722399999944" lon="-1.2886889999999995">
        <ele>1277.025</ele>
        <time>2022-08-24T10:18:40Z</time>
      </trkpt>
      <trkpt lat="43.03720899999944" lon="-1.2887119999999996">
        <ele>1277.288</ele>
        <time>2022-08-24T10:18:41Z</time>
      </trkpt>
      <trkpt lat="43.03719899999944" lon="-1.2887309999999996">
        <ele>1277.262</ele>
        <time>2022-08-24T10:18:42Z</time>
      </trkpt>
      <trkpt lat="43.03718899999944" lon="-1.2887459999999997">
        <ele>1277.461</ele>
        <time>2022-08-24T10:18:43Z</time>
      </trkpt>
      <trkpt lat="43.037174999999436" lon="-1.2887649999999997">
        <ele>1277.694</ele>
        <time>2022-08-24T10:18:44Z</time>
      </trkpt>
      <trkpt lat="43.03716299999944" lon="-1.2887859999999998">
        <ele>1277.857</ele>
        <time>2022-08-24T10:18:45Z</time>
      </trkpt>
      <trkpt lat="43.037152999999435" lon="-1.2888099999999998">
        <ele>1277.822</ele>
        <time>2022-08-24T10:18:46Z</time>
      </trkpt>
      <trkpt lat="43.037141999999434" lon="-1.2888269999999997">
        <ele>1278.009</ele>
        <time>2022-08-24T10:18:47Z</time>
      </trkpt>
      <trkpt lat="43.037130999999434" lon="-1.2888459999999997">
        <ele>1278.030</ele>
        <time>2022-08-24T10:18:48Z</time>
      </trkpt>
      <trkpt lat="43.03712099999943" lon="-1.2888599999999997">
        <ele>1278.030</ele>
        <time>2022-08-24T10:18:49Z</time>
      </trkpt>
      <trkpt lat="43.03710899999943" lon="-1.2888769999999996">
        <ele>1278.030</ele>
        <time>2022-08-24T10:18:50Z</time>
      </trkpt>
      <trkpt lat="43.03709799999943" lon="-1.2888939999999995">
        <ele>1278.026</ele>
        <time>2022-08-24T10:18:51Z</time>
      </trkpt>
      <trkpt lat="43.03708499999943" lon="-1.2889159999999995">
        <ele>1278.058</ele>
        <time>2022-08-24T10:18:52Z</time>
      </trkpt>
      <trkpt lat="43.03707599999943" lon="-1.2889349999999995">
        <ele>1278.235</ele>
        <time>2022-08-24T10:18:53Z</time>
      </trkpt>
      <trkpt lat="43.03706699999943" lon="-1.2889489999999995">
        <ele>1278.288</ele>
        <time>2022-08-24T10:18:54Z</time>
      </trkpt>
      <trkpt lat="43.037054999999434" lon="-1.2889659999999994">
        <ele>1278.262</ele>
        <time>2022-08-24T10:18:55Z</time>
      </trkpt>
      <trkpt lat="43.03704199999943" lon="-1.2889879999999994">
        <ele>1278.281</ele>
        <time>2022-08-24T10:18:56Z</time>
      </trkpt>
      <trkpt lat="43.03702799999943" lon="-1.2890139999999994">
        <ele>1278.238</ele>
        <time>2022-08-24T10:18:57Z</time>
      </trkpt>
      <trkpt lat="43.03701599999943" lon="-1.2890349999999995">
        <ele>1278.270</ele>
        <time>2022-08-24T10:18:58Z</time>
      </trkpt>
      <trkpt lat="43.03700499999943" lon="-1.2890549999999994">
        <ele>1278.217</ele>
        <time>2022-08-24T10:18:59Z</time>
      </trkpt>
      <trkpt lat="43.036997999999436" lon="-1.2890709999999994">
        <ele>1278.209</ele>
        <time>2022-08-24T10:19:00Z</time>
      </trkpt>
      <trkpt lat="43.03697999999944" lon="-1.2891119999999994">
        <ele>1278.224</ele>
        <time>2022-08-24T10:19:02Z</time>
      </trkpt>
      <trkpt lat="43.03697199999944" lon="-1.2891339999999993">
        <ele>1278.214</ele>
        <time>2022-08-24T10:19:03Z</time>
      </trkpt>
      <trkpt lat="43.03695499999944" lon="-1.2891749999999993">
        <ele>1278.244</ele>
        <time>2022-08-24T10:19:05Z</time>
      </trkpt>
      <trkpt lat="43.03694699999944" lon="-1.2891939999999993">
        <ele>1278.020</ele>
        <time>2022-08-24T10:19:06Z</time>
      </trkpt>
      <trkpt lat="43.03693799999944" lon="-1.2892159999999993">
        <ele>1278.042</ele>
        <time>2022-08-24T10:19:07Z</time>
      </trkpt>
      <trkpt lat="43.03691499999944" lon="-1.2892819999999992">
        <ele>1278.079</ele>
        <time>2022-08-24T10:19:10Z</time>
      </trkpt>
      <trkpt lat="43.03690099999944" lon="-1.289322999999999">
        <ele>1278.042</ele>
        <time>2022-08-24T10:19:12Z</time>
      </trkpt>
      <trkpt lat="43.03689599999944" lon="-1.2893489999999992">
        <ele>1277.826</ele>
        <time>2022-08-24T10:19:13Z</time>
      </trkpt>
      <trkpt lat="43.03689199999944" lon="-1.2893699999999992">
        <ele>1277.845</ele>
        <time>2022-08-24T10:19:14Z</time>
      </trkpt>
      <trkpt lat="43.03688599999944" lon="-1.2893919999999992">
        <ele>1278.044</ele>
        <time>2022-08-24T10:19:15Z</time>
      </trkpt>
      <trkpt lat="43.03687999999944" lon="-1.2894089999999991">
        <ele>1278.005</ele>
        <time>2022-08-24T10:19:16Z</time>
      </trkpt>
      <trkpt lat="43.036861999999445" lon="-1.289479999999999">
        <ele>1277.815</ele>
        <time>2022-08-24T10:19:19Z</time>
      </trkpt>
      <trkpt lat="43.03685799999945" lon="-1.2895009999999991">
        <ele>1277.809</ele>
        <time>2022-08-24T10:19:20Z</time>
      </trkpt>
      <trkpt lat="43.03685399999945" lon="-1.2895169999999991">
        <ele>1277.865</ele>
        <time>2022-08-24T10:19:21Z</time>
      </trkpt>
      <trkpt lat="43.03684899999945" lon="-1.289538999999999">
        <ele>1277.855</ele>
        <time>2022-08-24T10:19:22Z</time>
      </trkpt>
      <trkpt lat="43.03684299999945" lon="-1.289563999999999">
        <ele>1277.875</ele>
        <time>2022-08-24T10:19:23Z</time>
      </trkpt>
      <trkpt lat="43.03683899999945" lon="-1.289583999999999">
        <ele>1277.881</ele>
        <time>2022-08-24T10:19:24Z</time>
      </trkpt>
      <trkpt lat="43.03683399999945" lon="-1.289602999999999">
        <ele>1277.823</ele>
        <time>2022-08-24T10:19:25Z</time>
      </trkpt>
      <trkpt lat="43.03683099999945" lon="-1.289618999999999">
        <ele>1277.850</ele>
        <time>2022-08-24T10:19:26Z</time>
      </trkpt>
      <trkpt lat="43.03682599999945" lon="-1.289637999999999">
        <ele>1277.663</ele>
        <time>2022-08-24T10:19:27Z</time>
      </trkpt>
      <trkpt lat="43.03680799999945" lon="-1.289712999999999">
        <ele>1277.677</ele>
        <time>2022-08-24T10:19:31Z</time>
      </trkpt>
      <trkpt lat="43.03680399999946" lon="-1.289733999999999">
        <ele>1277.636</ele>
        <time>2022-08-24T10:19:32Z</time>
      </trkpt>
      <trkpt lat="43.03679999999946" lon="-1.289752999999999">
        <ele>1277.656</ele>
        <time>2022-08-24T10:19:33Z</time>
      </trkpt>
      <trkpt lat="43.03679399999946" lon="-1.2897759999999991">
        <ele>1277.859</ele>
        <time>2022-08-24T10:19:34Z</time>
      </trkpt>
      <trkpt lat="43.03678199999946" lon="-1.2898319999999992">
        <ele>1277.814</ele>
        <time>2022-08-24T10:19:37Z</time>
      </trkpt>
      <trkpt lat="43.03677599999946" lon="-1.2898499999999993">
        <ele>1278.009</ele>
        <time>2022-08-24T10:19:38Z</time>
      </trkpt>
      <trkpt lat="43.03676899999947" lon="-1.2898699999999992">
        <ele>1278.236</ele>
        <time>2022-08-24T10:19:39Z</time>
      </trkpt>
      <trkpt lat="43.036763999999465" lon="-1.2898859999999992">
        <ele>1278.286</ele>
        <time>2022-08-24T10:19:40Z</time>
      </trkpt>
      <trkpt lat="43.03675899999946" lon="-1.2899019999999992">
        <ele>1278.456</ele>
        <time>2022-08-24T10:19:41Z</time>
      </trkpt>
      <trkpt lat="43.03674899999946" lon="-1.2900009999999993">
        <ele>1278.852</ele>
        <time>2022-08-24T10:19:46Z</time>
      </trkpt>
      <trkpt lat="43.03674599999946" lon="-1.2900169999999993">
        <ele>1279.064</ele>
        <time>2022-08-24T10:19:47Z</time>
      </trkpt>
      <trkpt lat="43.03674299999946" lon="-1.2900369999999992">
        <ele>1279.041</ele>
        <time>2022-08-24T10:19:48Z</time>
      </trkpt>
      <trkpt lat="43.03673399999946" lon="-1.2901039999999993">
        <ele>1279.034</ele>
        <time>2022-08-24T10:19:51Z</time>
      </trkpt>
      <trkpt lat="43.03673099999946" lon="-1.2901199999999993">
        <ele>1279.028</ele>
        <time>2022-08-24T10:19:52Z</time>
      </trkpt>
      <trkpt lat="43.036726999999466" lon="-1.2901329999999993">
        <ele>1279.037</ele>
        <time>2022-08-24T10:19:53Z</time>
      </trkpt>
      <trkpt lat="43.03672299999947" lon="-1.2901489999999993">
        <ele>1279.215</ele>
        <time>2022-08-24T10:19:54Z</time>
      </trkpt>
      <trkpt lat="43.03671899999947" lon="-1.2901689999999992">
        <ele>1279.265</ele>
        <time>2022-08-24T10:19:55Z</time>
      </trkpt>
      <trkpt lat="43.03671699999947" lon="-1.2901839999999993">
        <ele>1279.411</ele>
        <time>2022-08-24T10:19:56Z</time>
      </trkpt>
      <trkpt lat="43.03671299999947" lon="-1.2901989999999994">
        <ele>1279.409</ele>
        <time>2022-08-24T10:19:57Z</time>
      </trkpt>
      <trkpt lat="43.036706999999474" lon="-1.2902119999999995">
        <ele>1279.662</ele>
        <time>2022-08-24T10:19:58Z</time>
      </trkpt>
      <trkpt lat="43.036703999999474" lon="-1.2902239999999994">
        <ele>1279.642</ele>
        <time>2022-08-24T10:19:59Z</time>
      </trkpt>
      <trkpt lat="43.036694999999476" lon="-1.2902389999999995">
        <ele>1279.812</ele>
        <time>2022-08-24T10:20:00Z</time>
      </trkpt>
      <trkpt lat="43.03668899999948" lon="-1.2902549999999995">
        <ele>1279.868</ele>
        <time>2022-08-24T10:20:01Z</time>
      </trkpt>
      <trkpt lat="43.03668599999948" lon="-1.2902689999999994">
        <ele>1280.050</ele>
        <time>2022-08-24T10:20:02Z</time>
      </trkpt>
      <trkpt lat="43.036683999999475" lon="-1.2902819999999995">
        <ele>1280.277</ele>
        <time>2022-08-24T10:20:03Z</time>
      </trkpt>
      <trkpt lat="43.03667699999948" lon="-1.2903169999999995">
        <ele>1280.480</ele>
        <time>2022-08-24T10:20:05Z</time>
      </trkpt>
      <trkpt lat="43.03667099999948" lon="-1.2903349999999996">
        <ele>1280.464</ele>
        <time>2022-08-24T10:20:06Z</time>
      </trkpt>
      <trkpt lat="43.03666399999948" lon="-1.2903469999999995">
        <ele>1280.673</ele>
        <time>2022-08-24T10:20:07Z</time>
      </trkpt>
      <trkpt lat="43.036657999999484" lon="-1.2903579999999994">
        <ele>1280.643</ele>
        <time>2022-08-24T10:20:08Z</time>
      </trkpt>
      <trkpt lat="43.03665299999948" lon="-1.2903689999999994">
        <ele>1281.064</ele>
        <time>2022-08-24T10:20:09Z</time>
      </trkpt>
      <trkpt lat="43.03664499999948" lon="-1.2903929999999995">
        <ele>1281.210</ele>
        <time>2022-08-24T10:20:11Z</time>
      </trkpt>
      <trkpt lat="43.036623999999485" lon="-1.2904269999999995">
        <ele>1282.009</ele>
        <time>2022-08-24T10:20:14Z</time>
      </trkpt>
      <trkpt lat="43.03661999999949" lon="-1.2904389999999994">
        <ele>1282.255</ele>
        <time>2022-08-24T10:20:15Z</time>
      </trkpt>
      <trkpt lat="43.036614999999486" lon="-1.2904559999999994">
        <ele>1282.655</ele>
        <time>2022-08-24T10:20:16Z</time>
      </trkpt>
      <trkpt lat="43.036609999999484" lon="-1.2904689999999994">
        <ele>1282.845</ele>
        <time>2022-08-24T10:20:17Z</time>
      </trkpt>
      <trkpt lat="43.036600999999486" lon="-1.2904799999999994">
        <ele>1283.051</ele>
        <time>2022-08-24T10:20:18Z</time>
      </trkpt>
      <trkpt lat="43.03659199999949" lon="-1.2904909999999994">
        <ele>1283.053</ele>
        <time>2022-08-24T10:20:19Z</time>
      </trkpt>
      <trkpt lat="43.03658499999949" lon="-1.2905029999999993">
        <ele>1283.230</ele>
        <time>2022-08-24T10:20:20Z</time>
      </trkpt>
      <trkpt lat="43.03657599999949" lon="-1.2905189999999993">
        <ele>1283.683</ele>
        <time>2022-08-24T10:20:21Z</time>
      </trkpt>
      <trkpt lat="43.03656699999949" lon="-1.2905319999999993">
        <ele>1283.697</ele>
        <time>2022-08-24T10:20:22Z</time>
      </trkpt>
      <trkpt lat="43.0365599999995" lon="-1.2905439999999992">
        <ele>1283.826</ele>
        <time>2022-08-24T10:20:23Z</time>
      </trkpt>
      <trkpt lat="43.036551999999496" lon="-1.2905559999999991">
        <ele>1284.063</ele>
        <time>2022-08-24T10:20:24Z</time>
      </trkpt>
      <trkpt lat="43.036546999999494" lon="-1.2905659999999992">
        <ele>1284.044</ele>
        <time>2022-08-24T10:20:25Z</time>
      </trkpt>
      <trkpt lat="43.036537999999496" lon="-1.2905779999999991">
        <ele>1284.218</ele>
        <time>2022-08-24T10:20:26Z</time>
      </trkpt>
      <trkpt lat="43.0365289999995" lon="-1.2905879999999992">
        <ele>1284.209</ele>
        <time>2022-08-24T10:20:27Z</time>
      </trkpt>
      <trkpt lat="43.0365199999995" lon="-1.2905949999999993">
        <ele>1284.297</ele>
        <time>2022-08-24T10:20:28Z</time>
      </trkpt>
      <trkpt lat="43.0365149999995" lon="-1.2906049999999993">
        <ele>1284.227</ele>
        <time>2022-08-24T10:20:29Z</time>
      </trkpt>
      <trkpt lat="43.0365079999995" lon="-1.2906149999999994">
        <ele>1284.257</ele>
        <time>2022-08-24T10:20:30Z</time>
      </trkpt>
      <trkpt lat="43.0364999999995" lon="-1.2906239999999993">
        <ele>1284.273</ele>
        <time>2022-08-24T10:20:31Z</time>
      </trkpt>
      <trkpt lat="43.0364919999995" lon="-1.2906339999999994">
        <ele>1284.275</ele>
        <time>2022-08-24T10:20:32Z</time>
      </trkpt>
      <trkpt lat="43.0364879999995" lon="-1.2906439999999995">
        <ele>1284.232</ele>
        <time>2022-08-24T10:20:33Z</time>
      </trkpt>
      <trkpt lat="43.0364849999995" lon="-1.2906509999999995">
        <ele>1284.245</ele>
        <time>2022-08-24T10:20:34Z</time>
      </trkpt>
      <trkpt lat="43.0364819999995" lon="-1.2906509999999995">
        <ele>1285.889</ele>
        <time>2022-08-24T10:21:12Z</time>
      </trkpt>
      <trkpt lat="43.036474999999506" lon="-1.2906649999999995">
        <ele>1285.898</ele>
        <time>2022-08-24T10:21:14Z</time>
      </trkpt>
      <trkpt lat="43.03646799999951" lon="-1.2906739999999994">
        <ele>1285.833</ele>
        <time>2022-08-24T10:21:17Z</time>
      </trkpt>
      <trkpt lat="43.03646799999951" lon="-1.2906739999999994">
        <ele>1286.023</ele>
        <time>2022-08-24T10:21:18Z</time>
      </trkpt>
      <trkpt lat="43.03646799999951" lon="-1.2906739999999994">
        <ele>1286.015</ele>
        <time>2022-08-24T10:21:19Z</time>
      </trkpt>
      <trkpt lat="43.03646799999951" lon="-1.2906739999999994">
        <ele>1286.009</ele>
        <time>2022-08-24T10:21:20Z</time>
      </trkpt>
      <trkpt lat="43.03646799999951" lon="-1.2906739999999994">
        <ele>1286.074</ele>
        <time>2022-08-24T10:21:21Z</time>
      </trkpt>
      <trkpt lat="43.03646799999951" lon="-1.2906749999999994">
        <ele>1286.064</ele>
        <time>2022-08-24T10:21:22Z</time>
      </trkpt>
      <trkpt lat="43.03644499999951" lon="-1.2907219999999993">
        <ele>1286.874</ele>
        <time>2022-08-24T10:21:29Z</time>
      </trkpt>
      <trkpt lat="43.03644099999951" lon="-1.2907289999999993">
        <ele>1287.020</ele>
        <time>2022-08-24T10:21:30Z</time>
      </trkpt>
      <trkpt lat="43.036405999999516" lon="-1.2907949999999992">
        <ele>1287.672</ele>
        <time>2022-08-24T10:21:34Z</time>
      </trkpt>
      <trkpt lat="43.03639699999952" lon="-1.2908139999999992">
        <ele>1287.649</ele>
        <time>2022-08-24T10:21:35Z</time>
      </trkpt>
      <trkpt lat="43.03638899999952" lon="-1.2908309999999992">
        <ele>1287.662</ele>
        <time>2022-08-24T10:21:36Z</time>
      </trkpt>
      <trkpt lat="43.03638199999952" lon="-1.290847999999999">
        <ele>1287.886</ele>
        <time>2022-08-24T10:21:37Z</time>
      </trkpt>
      <trkpt lat="43.03637399999952" lon="-1.290866999999999">
        <ele>1287.815</ele>
        <time>2022-08-24T10:21:38Z</time>
      </trkpt>
      <trkpt lat="43.03636499999952" lon="-1.2908879999999991">
        <ele>1287.882</ele>
        <time>2022-08-24T10:21:39Z</time>
      </trkpt>
      <trkpt lat="43.03635999999952" lon="-1.2909199999999992">
        <ele>1287.843</ele>
        <time>2022-08-24T10:21:41Z</time>
      </trkpt>
      <trkpt lat="43.03635799999952" lon="-1.2909269999999993">
        <ele>1287.817</ele>
        <time>2022-08-24T10:21:42Z</time>
      </trkpt>
      <trkpt lat="43.03635399999952" lon="-1.2909349999999993">
        <ele>1287.809</ele>
        <time>2022-08-24T10:21:43Z</time>
      </trkpt>
      <trkpt lat="43.03635099999952" lon="-1.2909429999999993">
        <ele>1288.069</ele>
        <time>2022-08-24T10:21:44Z</time>
      </trkpt>
      <trkpt lat="43.03634799999952" lon="-1.2909489999999992">
        <ele>1288.099</ele>
        <time>2022-08-24T10:21:45Z</time>
      </trkpt>
      <trkpt lat="43.03634499999952" lon="-1.2909559999999993">
        <ele>1288.029</ele>
        <time>2022-08-24T10:21:46Z</time>
      </trkpt>
      <trkpt lat="43.036343999999524" lon="-1.2909599999999992">
        <ele>1288.215</ele>
        <time>2022-08-24T10:21:47Z</time>
      </trkpt>
      <trkpt lat="43.03633699999953" lon="-1.2909619999999993">
        <ele>1288.217</ele>
        <time>2022-08-24T10:21:49Z</time>
      </trkpt>
      <trkpt lat="43.036331999999526" lon="-1.2909669999999993">
        <ele>1288.454</ele>
        <time>2022-08-24T10:21:50Z</time>
      </trkpt>
      <trkpt lat="43.03632499999953" lon="-1.2909839999999992">
        <ele>1288.627</ele>
        <time>2022-08-24T10:21:52Z</time>
      </trkpt>
      <trkpt lat="43.03632099999953" lon="-1.2909919999999993">
        <ele>1288.681</ele>
        <time>2022-08-24T10:21:53Z</time>
      </trkpt>
      <trkpt lat="43.036316999999535" lon="-1.2910059999999992">
        <ele>1288.870</ele>
        <time>2022-08-24T10:21:56Z</time>
      </trkpt>
      <trkpt lat="43.03630999999954" lon="-1.291017999999999">
        <ele>1288.859</ele>
        <time>2022-08-24T10:21:58Z</time>
      </trkpt>
      <trkpt lat="43.03629099999954" lon="-1.2910439999999992">
        <ele>1289.203</ele>
        <time>2022-08-24T10:22:02Z</time>
      </trkpt>
      <trkpt lat="43.03627599999954" lon="-1.2910789999999992">
        <ele>1289.823</ele>
        <time>2022-08-24T10:22:08Z</time>
      </trkpt>
      <trkpt lat="43.03627499999954" lon="-1.2910809999999993">
        <ele>1290.009</ele>
        <time>2022-08-24T10:22:09Z</time>
      </trkpt>
      <trkpt lat="43.036253999999545" lon="-1.2911259999999993">
        <ele>1290.476</ele>
        <time>2022-08-24T10:22:16Z</time>
      </trkpt>
      <trkpt lat="43.036250999999545" lon="-1.2911329999999994">
        <ele>1290.476</ele>
        <time>2022-08-24T10:22:17Z</time>
      </trkpt>
      <trkpt lat="43.036247999999546" lon="-1.2911359999999994">
        <ele>1290.636</ele>
        <time>2022-08-24T10:22:18Z</time>
      </trkpt>
      <trkpt lat="43.03624699999955" lon="-1.2911389999999994">
        <ele>1290.622</ele>
        <time>2022-08-24T10:22:19Z</time>
      </trkpt>
      <trkpt lat="43.03624299999955" lon="-1.2911459999999995">
        <ele>1290.614</ele>
        <time>2022-08-24T10:22:20Z</time>
      </trkpt>
      <trkpt lat="43.036238999999554" lon="-1.2911539999999995">
        <ele>1290.691</ele>
        <time>2022-08-24T10:22:21Z</time>
      </trkpt>
      <trkpt lat="43.03623499999956" lon="-1.2911639999999995">
        <ele>1290.634</ele>
        <time>2022-08-24T10:22:23Z</time>
      </trkpt>
      <trkpt lat="43.03623499999956" lon="-1.2911639999999995">
        <ele>1291.428</ele>
        <time>2022-08-24T10:22:37Z</time>
      </trkpt>
      <trkpt lat="43.036232999999555" lon="-1.2911679999999994">
        <ele>1291.427</ele>
        <time>2022-08-24T10:22:40Z</time>
      </trkpt>
      <trkpt lat="43.03617499999955" lon="-1.2912699999999995">
        <ele>1291.439</ele>
        <time>2022-08-24T10:22:46Z</time>
      </trkpt>
      <trkpt lat="43.03614499999955" lon="-1.2913289999999995">
        <ele>1291.801</ele>
        <time>2022-08-24T10:22:49Z</time>
      </trkpt>
      <trkpt lat="43.03613899999955" lon="-1.2913429999999995">
        <ele>1292.021</ele>
        <time>2022-08-24T10:22:50Z</time>
      </trkpt>
      <trkpt lat="43.036134999999554" lon="-1.2913609999999995">
        <ele>1292.009</ele>
        <time>2022-08-24T10:22:51Z</time>
      </trkpt>
      <trkpt lat="43.03612699999955" lon="-1.2913799999999995">
        <ele>1292.474</ele>
        <time>2022-08-24T10:22:52Z</time>
      </trkpt>
      <trkpt lat="43.03611599999955" lon="-1.2914059999999996">
        <ele>1293.074</ele>
        <time>2022-08-24T10:22:54Z</time>
      </trkpt>
      <trkpt lat="43.036111999999555" lon="-1.2914149999999995">
        <ele>1293.244</ele>
        <time>2022-08-24T10:22:55Z</time>
      </trkpt>
      <trkpt lat="43.036100999999555" lon="-1.2914269999999994">
        <ele>1293.280</ele>
        <time>2022-08-24T10:22:56Z</time>
      </trkpt>
      <trkpt lat="43.03609099999955" lon="-1.2914439999999994">
        <ele>1293.252</ele>
        <time>2022-08-24T10:22:57Z</time>
      </trkpt>
      <trkpt lat="43.03608199999955" lon="-1.2914579999999993">
        <ele>1293.669</ele>
        <time>2022-08-24T10:22:58Z</time>
      </trkpt>
      <trkpt lat="43.036075999999554" lon="-1.2914749999999993">
        <ele>1293.892</ele>
        <time>2022-08-24T10:22:59Z</time>
      </trkpt>
      <trkpt lat="43.036060999999556" lon="-1.2915009999999993">
        <ele>1294.246</ele>
        <time>2022-08-24T10:23:01Z</time>
      </trkpt>
      <trkpt lat="43.03605699999956" lon="-1.2915129999999992">
        <ele>1294.485</ele>
        <time>2022-08-24T10:23:02Z</time>
      </trkpt>
      <trkpt lat="43.03604999999956" lon="-1.2915199999999993">
        <ele>1294.683</ele>
        <time>2022-08-24T10:23:03Z</time>
      </trkpt>
      <trkpt lat="43.03603999999956" lon="-1.2915269999999994">
        <ele>1294.625</ele>
        <time>2022-08-24T10:23:04Z</time>
      </trkpt>
      <trkpt lat="43.03603499999956" lon="-1.2915379999999994">
        <ele>1294.817</ele>
        <time>2022-08-24T10:23:05Z</time>
      </trkpt>
      <trkpt lat="43.036029999999556" lon="-1.2915509999999994">
        <ele>1295.209</ele>
        <time>2022-08-24T10:23:06Z</time>
      </trkpt>
      <trkpt lat="43.03602399999956" lon="-1.2915629999999994">
        <ele>1295.259</ele>
        <time>2022-08-24T10:23:07Z</time>
      </trkpt>
      <trkpt lat="43.036010999999554" lon="-1.2915729999999994">
        <ele>1295.499</ele>
        <time>2022-08-24T10:23:08Z</time>
      </trkpt>
      <trkpt lat="43.035999999999554" lon="-1.2915809999999994">
        <ele>1295.699</ele>
        <time>2022-08-24T10:23:09Z</time>
      </trkpt>
      <trkpt lat="43.035990999999555" lon="-1.2915899999999993">
        <ele>1295.845</ele>
        <time>2022-08-24T10:23:10Z</time>
      </trkpt>
      <trkpt lat="43.03598599999955" lon="-1.2915989999999993">
        <ele>1296.237</ele>
        <time>2022-08-24T10:23:11Z</time>
      </trkpt>
      <trkpt lat="43.035979999999554" lon="-1.2916099999999993">
        <ele>1296.484</ele>
        <time>2022-08-24T10:23:12Z</time>
      </trkpt>
      <trkpt lat="43.035976999999555" lon="-1.2916229999999993">
        <ele>1296.437</ele>
        <time>2022-08-24T10:23:13Z</time>
      </trkpt>
      <trkpt lat="43.035968999999554" lon="-1.2916359999999993">
        <ele>1296.631</ele>
        <time>2022-08-24T10:23:14Z</time>
      </trkpt>
      <trkpt lat="43.03596099999955" lon="-1.2916479999999992">
        <ele>1296.840</ele>
        <time>2022-08-24T10:23:15Z</time>
      </trkpt>
      <trkpt lat="43.03595099999955" lon="-1.2916569999999992">
        <ele>1297.493</ele>
        <time>2022-08-24T10:23:16Z</time>
      </trkpt>
      <trkpt lat="43.03593999999955" lon="-1.2916649999999992">
        <ele>1297.865</ele>
        <time>2022-08-24T10:23:17Z</time>
      </trkpt>
      <trkpt lat="43.035929999999546" lon="-1.2916709999999991">
        <ele>1298.021</ele>
        <time>2022-08-24T10:23:18Z</time>
      </trkpt>
      <trkpt lat="43.03592299999955" lon="-1.291679999999999">
        <ele>1298.209</ele>
        <time>2022-08-24T10:23:19Z</time>
      </trkpt>
      <trkpt lat="43.035912999999546" lon="-1.291688999999999">
        <ele>1298.440</ele>
        <time>2022-08-24T10:23:20Z</time>
      </trkpt>
      <trkpt lat="43.035901999999545" lon="-1.291693999999999">
        <ele>1298.460</ele>
        <time>2022-08-24T10:23:21Z</time>
      </trkpt>
      <trkpt lat="43.035890999999545" lon="-1.291700999999999">
        <ele>1298.620</ele>
        <time>2022-08-24T10:23:22Z</time>
      </trkpt>
      <trkpt lat="43.03587799999954" lon="-1.291709999999999">
        <ele>1298.636</ele>
        <time>2022-08-24T10:23:23Z</time>
      </trkpt>
      <trkpt lat="43.035865999999544" lon="-1.291715999999999">
        <ele>1298.888</ele>
        <time>2022-08-24T10:23:24Z</time>
      </trkpt>
      <trkpt lat="43.035856999999545" lon="-1.2917199999999989">
        <ele>1298.625</ele>
        <time>2022-08-24T10:23:25Z</time>
      </trkpt>
      <trkpt lat="43.03584799999955" lon="-1.291724999999999">
        <ele>1299.098</ele>
        <time>2022-08-24T10:23:26Z</time>
      </trkpt>
      <trkpt lat="43.03583899999955" lon="-1.291726999999999">
        <ele>1299.012</ele>
        <time>2022-08-24T10:23:27Z</time>
      </trkpt>
      <trkpt lat="43.03583099999955" lon="-1.291733999999999">
        <ele>1299.231</ele>
        <time>2022-08-24T10:23:28Z</time>
      </trkpt>
      <trkpt lat="43.035819999999546" lon="-1.291742999999999">
        <ele>1299.075</ele>
        <time>2022-08-24T10:23:29Z</time>
      </trkpt>
      <trkpt lat="43.03580799999955" lon="-1.2917469999999989">
        <ele>1299.028</ele>
        <time>2022-08-24T10:23:30Z</time>
      </trkpt>
      <trkpt lat="43.035797999999545" lon="-1.2917479999999988">
        <ele>1299.020</ele>
        <time>2022-08-24T10:23:31Z</time>
      </trkpt>
      <trkpt lat="43.03578599999955" lon="-1.2917469999999989">
        <ele>1299.009</ele>
        <time>2022-08-24T10:23:32Z</time>
      </trkpt>
      <trkpt lat="43.035774999999546" lon="-1.2917509999999988">
        <ele>1299.288</ele>
        <time>2022-08-24T10:23:33Z</time>
      </trkpt>
      <trkpt lat="43.03576499999954" lon="-1.2917519999999987">
        <ele>1299.418</ele>
        <time>2022-08-24T10:23:34Z</time>
      </trkpt>
      <trkpt lat="43.035755999999544" lon="-1.2917539999999987">
        <ele>1299.428</ele>
        <time>2022-08-24T10:23:35Z</time>
      </trkpt>
      <trkpt lat="43.035746999999546" lon="-1.2917569999999987">
        <ele>1299.664</ele>
        <time>2022-08-24T10:23:36Z</time>
      </trkpt>
      <trkpt lat="43.03573499999955" lon="-1.2917599999999987">
        <ele>1299.876</ele>
        <time>2022-08-24T10:23:37Z</time>
      </trkpt>
      <trkpt lat="43.03572599999955" lon="-1.2917649999999987">
        <ele>1300.073</ele>
        <time>2022-08-24T10:23:38Z</time>
      </trkpt>
      <trkpt lat="43.03571399999955" lon="-1.2917699999999988">
        <ele>1300.246</ele>
        <time>2022-08-24T10:23:39Z</time>
      </trkpt>
      <trkpt lat="43.03570099999955" lon="-1.2917759999999987">
        <ele>1300.420</ele>
        <time>2022-08-24T10:23:40Z</time>
      </trkpt>
      <trkpt lat="43.03568899999955" lon="-1.2917809999999987">
        <ele>1300.459</ele>
        <time>2022-08-24T10:23:41Z</time>
      </trkpt>
      <trkpt lat="43.03567999999955" lon="-1.2917859999999988">
        <ele>1300.667</ele>
        <time>2022-08-24T10:23:42Z</time>
      </trkpt>
      <trkpt lat="43.03567399999955" lon="-1.2917889999999987">
        <ele>1300.881</ele>
        <time>2022-08-24T10:23:43Z</time>
      </trkpt>
      <trkpt lat="43.03566399999955" lon="-1.2917949999999987">
        <ele>1301.019</ele>
        <time>2022-08-24T10:23:44Z</time>
      </trkpt>
      <trkpt lat="43.03565199999955" lon="-1.2918029999999987">
        <ele>1301.409</ele>
        <time>2022-08-24T10:23:45Z</time>
      </trkpt>
      <trkpt lat="43.03563899999955" lon="-1.2918079999999987">
        <ele>1301.437</ele>
        <time>2022-08-24T10:23:46Z</time>
      </trkpt>
      <trkpt lat="43.03563099999955" lon="-1.2918099999999988">
        <ele>1301.637</ele>
        <time>2022-08-24T10:23:47Z</time>
      </trkpt>
      <trkpt lat="43.03562399999955" lon="-1.2918119999999989">
        <ele>1301.887</ele>
        <time>2022-08-24T10:23:48Z</time>
      </trkpt>
      <trkpt lat="43.03561599999955" lon="-1.2918159999999987">
        <ele>1302.023</ele>
        <time>2022-08-24T10:23:49Z</time>
      </trkpt>
      <trkpt lat="43.03560699999955" lon="-1.2918229999999988">
        <ele>1302.485</ele>
        <time>2022-08-24T10:23:50Z</time>
      </trkpt>
      <trkpt lat="43.035599999999555" lon="-1.291829999999999">
        <ele>1302.632</ele>
        <time>2022-08-24T10:23:51Z</time>
      </trkpt>
      <trkpt lat="43.03559299999956" lon="-1.291836999999999">
        <ele>1302.625</ele>
        <time>2022-08-24T10:23:52Z</time>
      </trkpt>
      <trkpt lat="43.03558599999956" lon="-1.291841999999999">
        <ele>1302.849</ele>
        <time>2022-08-24T10:23:53Z</time>
      </trkpt>
      <trkpt lat="43.03557999999956" lon="-1.291849999999999">
        <ele>1302.868</ele>
        <time>2022-08-24T10:23:54Z</time>
      </trkpt>
      <trkpt lat="43.035572999999566" lon="-1.291853999999999">
        <ele>1303.053</ele>
        <time>2022-08-24T10:23:55Z</time>
      </trkpt>
      <trkpt lat="43.03556299999956" lon="-1.291855999999999">
        <ele>1303.204</ele>
        <time>2022-08-24T10:23:56Z</time>
      </trkpt>
      <trkpt lat="43.03555499999956" lon="-1.291858999999999">
        <ele>1303.214</ele>
        <time>2022-08-24T10:23:57Z</time>
      </trkpt>
      <trkpt lat="43.03554499999956" lon="-1.291859999999999">
        <ele>1303.209</ele>
        <time>2022-08-24T10:23:58Z</time>
      </trkpt>
      <trkpt lat="43.03553699999956" lon="-1.291859999999999">
        <ele>1303.466</ele>
        <time>2022-08-24T10:23:59Z</time>
      </trkpt>
      <trkpt lat="43.035526999999554" lon="-1.291864999999999">
        <ele>1303.666</ele>
        <time>2022-08-24T10:24:00Z</time>
      </trkpt>
      <trkpt lat="43.03551699999955" lon="-1.2918689999999988">
        <ele>1303.696</ele>
        <time>2022-08-24T10:24:01Z</time>
      </trkpt>
      <trkpt lat="43.03550899999955" lon="-1.2918739999999989">
        <ele>1303.692</ele>
        <time>2022-08-24T10:24:02Z</time>
      </trkpt>
      <trkpt lat="43.03549699999955" lon="-1.2918749999999988">
        <ele>1303.824</ele>
        <time>2022-08-24T10:24:03Z</time>
      </trkpt>
      <trkpt lat="43.03548699999955" lon="-1.2918769999999988">
        <ele>1303.831</ele>
        <time>2022-08-24T10:24:04Z</time>
      </trkpt>
      <trkpt lat="43.03547599999955" lon="-1.2918779999999987">
        <ele>1304.074</ele>
        <time>2022-08-24T10:24:05Z</time>
      </trkpt>
      <trkpt lat="43.035465999999545" lon="-1.2918779999999987">
        <ele>1304.238</ele>
        <time>2022-08-24T10:24:06Z</time>
      </trkpt>
      <trkpt lat="43.035456999999546" lon="-1.2918749999999988">
        <ele>1304.217</ele>
        <time>2022-08-24T10:24:07Z</time>
      </trkpt>
      <trkpt lat="43.03544799999955" lon="-1.2918709999999989">
        <ele>1304.473</ele>
        <time>2022-08-24T10:24:08Z</time>
      </trkpt>
      <trkpt lat="43.03543899999955" lon="-1.2918719999999988">
        <ele>1304.885</ele>
        <time>2022-08-24T10:24:09Z</time>
      </trkpt>
      <trkpt lat="43.035428999999546" lon="-1.2918729999999987">
        <ele>1304.813</ele>
        <time>2022-08-24T10:24:10Z</time>
      </trkpt>
      <trkpt lat="43.03541699999955" lon="-1.2918729999999987">
        <ele>1305.209</ele>
        <time>2022-08-24T10:24:11Z</time>
      </trkpt>
      <trkpt lat="43.03540899999955" lon="-1.2918709999999987">
        <ele>1305.498</ele>
        <time>2022-08-24T10:24:12Z</time>
      </trkpt>
      <trkpt lat="43.035400999999545" lon="-1.2918699999999987">
        <ele>1305.638</ele>
        <time>2022-08-24T10:24:13Z</time>
      </trkpt>
      <trkpt lat="43.035392999999544" lon="-1.2918699999999987">
        <ele>1305.838</ele>
        <time>2022-08-24T10:24:14Z</time>
      </trkpt>
      <trkpt lat="43.035380999999546" lon="-1.2918699999999987">
        <ele>1305.864</ele>
        <time>2022-08-24T10:24:15Z</time>
      </trkpt>
      <trkpt lat="43.03536899999955" lon="-1.2918689999999988">
        <ele>1306.026</ele>
        <time>2022-08-24T10:24:16Z</time>
      </trkpt>
      <trkpt lat="43.03535799999955" lon="-1.291864999999999">
        <ele>1306.013</ele>
        <time>2022-08-24T10:24:17Z</time>
      </trkpt>
      <trkpt lat="43.03534899999955" lon="-1.291859999999999">
        <ele>1306.076</ele>
        <time>2022-08-24T10:24:18Z</time>
      </trkpt>
      <trkpt lat="43.03534099999955" lon="-1.2918579999999988">
        <ele>1306.240</ele>
        <time>2022-08-24T10:24:19Z</time>
      </trkpt>
      <trkpt lat="43.035330999999545" lon="-1.2918529999999988">
        <ele>1306.259</ele>
        <time>2022-08-24T10:24:20Z</time>
      </trkpt>
      <trkpt lat="43.035321999999546" lon="-1.291840999999999">
        <ele>1306.488</ele>
        <time>2022-08-24T10:24:21Z</time>
      </trkpt>
      <trkpt lat="43.035313999999545" lon="-1.2918309999999988">
        <ele>1306.624</ele>
        <time>2022-08-24T10:24:22Z</time>
      </trkpt>
      <trkpt lat="43.03530899999954" lon="-1.291821999999999">
        <ele>1306.826</ele>
        <time>2022-08-24T10:24:23Z</time>
      </trkpt>
      <trkpt lat="43.03530199999955" lon="-1.291812999999999">
        <ele>1306.809</ele>
        <time>2022-08-24T10:24:24Z</time>
      </trkpt>
      <trkpt lat="43.03529599999955" lon="-1.291798999999999">
        <ele>1307.259</ele>
        <time>2022-08-24T10:24:25Z</time>
      </trkpt>
      <trkpt lat="43.03528999999955" lon="-1.291789999999999">
        <ele>1307.439</ele>
        <time>2022-08-24T10:24:26Z</time>
      </trkpt>
      <trkpt lat="43.03528399999955" lon="-1.2917809999999992">
        <ele>1307.659</ele>
        <time>2022-08-24T10:24:27Z</time>
      </trkpt>
      <trkpt lat="43.03527699999955" lon="-1.2917669999999992">
        <ele>1307.835</ele>
        <time>2022-08-24T10:24:28Z</time>
      </trkpt>
      <trkpt lat="43.035270999999554" lon="-1.2917549999999993">
        <ele>1308.017</ele>
        <time>2022-08-24T10:24:29Z</time>
      </trkpt>
      <trkpt lat="43.03526399999956" lon="-1.2917449999999993">
        <ele>1308.244</ele>
        <time>2022-08-24T10:24:30Z</time>
      </trkpt>
      <trkpt lat="43.035258999999556" lon="-1.2917299999999992">
        <ele>1308.227</ele>
        <time>2022-08-24T10:24:31Z</time>
      </trkpt>
      <trkpt lat="43.035250999999555" lon="-1.291714999999999">
        <ele>1308.471</ele>
        <time>2022-08-24T10:24:32Z</time>
      </trkpt>
      <trkpt lat="43.035244999999556" lon="-1.291704999999999">
        <ele>1308.480</ele>
        <time>2022-08-24T10:24:33Z</time>
      </trkpt>
      <trkpt lat="43.03523499999955" lon="-1.291693999999999">
        <ele>1308.468</ele>
        <time>2022-08-24T10:24:34Z</time>
      </trkpt>
      <trkpt lat="43.03522899999955" lon="-1.291678999999999">
        <ele>1308.642</ele>
        <time>2022-08-24T10:24:35Z</time>
      </trkpt>
      <trkpt lat="43.03522099999955" lon="-1.291664999999999">
        <ele>1308.626</ele>
        <time>2022-08-24T10:24:36Z</time>
      </trkpt>
      <trkpt lat="43.035211999999554" lon="-1.291647999999999">
        <ele>1308.609</ele>
        <time>2022-08-24T10:24:37Z</time>
      </trkpt>
      <trkpt lat="43.03520499999956" lon="-1.2916359999999991">
        <ele>1308.687</ele>
        <time>2022-08-24T10:24:38Z</time>
      </trkpt>
      <trkpt lat="43.03519899999956" lon="-1.2916249999999991">
        <ele>1308.627</ele>
        <time>2022-08-24T10:24:39Z</time>
      </trkpt>
      <trkpt lat="43.03519299999956" lon="-1.2916159999999992">
        <ele>1308.677</ele>
        <time>2022-08-24T10:24:40Z</time>
      </trkpt>
      <trkpt lat="43.03518799999956" lon="-1.2916029999999992">
        <ele>1308.643</ele>
        <time>2022-08-24T10:24:41Z</time>
      </trkpt>
      <trkpt lat="43.03518199999956" lon="-1.2915869999999992">
        <ele>1308.815</ele>
        <time>2022-08-24T10:24:42Z</time>
      </trkpt>
      <trkpt lat="43.03517699999956" lon="-1.2915749999999993">
        <ele>1308.842</ele>
        <time>2022-08-24T10:24:43Z</time>
      </trkpt>
      <trkpt lat="43.03516799999956" lon="-1.2915639999999993">
        <ele>1308.875</ele>
        <time>2022-08-24T10:24:44Z</time>
      </trkpt>
      <trkpt lat="43.03515899999956" lon="-1.2915499999999993">
        <ele>1308.849</ele>
        <time>2022-08-24T10:24:45Z</time>
      </trkpt>
      <trkpt lat="43.03515299999956" lon="-1.2915389999999993">
        <ele>1309.078</ele>
        <time>2022-08-24T10:24:46Z</time>
      </trkpt>
      <trkpt lat="43.03514499999956" lon="-1.2915259999999993">
        <ele>1309.043</ele>
        <time>2022-08-24T10:24:47Z</time>
      </trkpt>
      <trkpt lat="43.03513799999956" lon="-1.2915199999999993">
        <ele>1309.064</ele>
        <time>2022-08-24T10:24:48Z</time>
      </trkpt>
      <trkpt lat="43.035131999999564" lon="-1.2915109999999994">
        <ele>1309.010</ele>
        <time>2022-08-24T10:24:49Z</time>
      </trkpt>
      <trkpt lat="43.03512399999956" lon="-1.2915009999999993">
        <ele>1309.209</ele>
        <time>2022-08-24T10:24:50Z</time>
      </trkpt>
      <trkpt lat="43.035117999999564" lon="-1.2914949999999994">
        <ele>1309.455</ele>
        <time>2022-08-24T10:24:51Z</time>
      </trkpt>
      <trkpt lat="43.035108999999565" lon="-1.2914789999999994">
        <ele>1309.695</ele>
        <time>2022-08-24T10:24:52Z</time>
      </trkpt>
      <trkpt lat="43.035102999999566" lon="-1.2914639999999993">
        <ele>1310.015</ele>
        <time>2022-08-24T10:24:53Z</time>
      </trkpt>
      <trkpt lat="43.03509599999957" lon="-1.2914479999999993">
        <ele>1310.251</ele>
        <time>2022-08-24T10:24:54Z</time>
      </trkpt>
      <trkpt lat="43.03508799999957" lon="-1.2914329999999992">
        <ele>1310.473</ele>
        <time>2022-08-24T10:24:55Z</time>
      </trkpt>
      <trkpt lat="43.03507099999957" lon="-1.291398999999999">
        <ele>1310.870</ele>
        <time>2022-08-24T10:24:57Z</time>
      </trkpt>
      <trkpt lat="43.03506599999957" lon="-1.291383999999999">
        <ele>1311.063</ele>
        <time>2022-08-24T10:24:58Z</time>
      </trkpt>
      <trkpt lat="43.03505999999957" lon="-1.291370999999999">
        <ele>1311.077</ele>
        <time>2022-08-24T10:24:59Z</time>
      </trkpt>
      <trkpt lat="43.03505399999957" lon="-1.291357999999999">
        <ele>1311.086</ele>
        <time>2022-08-24T10:25:00Z</time>
      </trkpt>
      <trkpt lat="43.03504699999957" lon="-1.2913429999999988">
        <ele>1311.056</ele>
        <time>2022-08-24T10:25:01Z</time>
      </trkpt>
      <trkpt lat="43.035037999999574" lon="-1.2913269999999988">
        <ele>1311.059</ele>
        <time>2022-08-24T10:25:02Z</time>
      </trkpt>
      <trkpt lat="43.035031999999575" lon="-1.2913119999999987">
        <ele>1311.014</ele>
        <time>2022-08-24T10:25:03Z</time>
      </trkpt>
      <trkpt lat="43.03502499999958" lon="-1.2912979999999987">
        <ele>1311.209</ele>
        <time>2022-08-24T10:25:04Z</time>
      </trkpt>
      <trkpt lat="43.03501899999958" lon="-1.2912809999999988">
        <ele>1311.216</ele>
        <time>2022-08-24T10:25:05Z</time>
      </trkpt>
      <trkpt lat="43.03501499999958" lon="-1.291268999999999">
        <ele>1311.446</ele>
        <time>2022-08-24T10:25:06Z</time>
      </trkpt>
      <trkpt lat="43.03500399999958" lon="-1.291256999999999">
        <ele>1311.626</ele>
        <time>2022-08-24T10:25:07Z</time>
      </trkpt>
      <trkpt lat="43.03499599999958" lon="-1.291244999999999">
        <ele>1311.822</ele>
        <time>2022-08-24T10:25:08Z</time>
      </trkpt>
      <trkpt lat="43.03498799999958" lon="-1.291229999999999">
        <ele>1311.834</ele>
        <time>2022-08-24T10:25:09Z</time>
      </trkpt>
      <trkpt lat="43.03498199999958" lon="-1.291215999999999">
        <ele>1312.021</ele>
        <time>2022-08-24T10:25:10Z</time>
      </trkpt>
      <trkpt lat="43.034974999999584" lon="-1.291192999999999">
        <ele>1312.084</ele>
        <time>2022-08-24T10:25:11Z</time>
      </trkpt>
      <trkpt lat="43.03496999999958" lon="-1.291173999999999">
        <ele>1312.238</ele>
        <time>2022-08-24T10:25:12Z</time>
      </trkpt>
      <trkpt lat="43.03496399999958" lon="-1.291159999999999">
        <ele>1312.477</ele>
        <time>2022-08-24T10:25:13Z</time>
      </trkpt>
      <trkpt lat="43.03495699999959" lon="-1.2911449999999989">
        <ele>1312.464</ele>
        <time>2022-08-24T10:25:14Z</time>
      </trkpt>
      <trkpt lat="43.03495099999959" lon="-1.2911289999999989">
        <ele>1312.606</ele>
        <time>2022-08-24T10:25:15Z</time>
      </trkpt>
      <trkpt lat="43.03494799999959" lon="-1.291116999999999">
        <ele>1312.616</ele>
        <time>2022-08-24T10:25:16Z</time>
      </trkpt>
      <trkpt lat="43.034942999999586" lon="-1.291099999999999">
        <ele>1312.609</ele>
        <time>2022-08-24T10:25:17Z</time>
      </trkpt>
      <trkpt lat="43.03493599999959" lon="-1.291088999999999">
        <ele>1313.057</ele>
        <time>2022-08-24T10:25:18Z</time>
      </trkpt>
      <trkpt lat="43.03492699999959" lon="-1.2910799999999991">
        <ele>1313.247</ele>
        <time>2022-08-24T10:25:19Z</time>
      </trkpt>
      <trkpt lat="43.034919999999595" lon="-1.2910709999999992">
        <ele>1313.437</ele>
        <time>2022-08-24T10:25:20Z</time>
      </trkpt>
      <trkpt lat="43.034913999999596" lon="-1.291055999999999">
        <ele>1313.643</ele>
        <time>2022-08-24T10:25:21Z</time>
      </trkpt>
      <trkpt lat="43.0349069999996" lon="-1.291040999999999">
        <ele>1313.445</ele>
        <time>2022-08-24T10:25:22Z</time>
      </trkpt>
      <trkpt lat="43.0348989999996" lon="-1.291031999999999">
        <ele>1313.832</ele>
        <time>2022-08-24T10:25:23Z</time>
      </trkpt>
      <trkpt lat="43.0348929999996" lon="-1.291018999999999">
        <ele>1313.855</ele>
        <time>2022-08-24T10:25:24Z</time>
      </trkpt>
      <trkpt lat="43.0348869999996" lon="-1.2910069999999991">
        <ele>1314.239</ele>
        <time>2022-08-24T10:25:25Z</time>
      </trkpt>
      <trkpt lat="43.0348819999996" lon="-1.2909929999999992">
        <ele>1314.068</ele>
        <time>2022-08-24T10:25:26Z</time>
      </trkpt>
      <trkpt lat="43.0348729999996" lon="-1.2909789999999992">
        <ele>1314.237</ele>
        <time>2022-08-24T10:25:27Z</time>
      </trkpt>
      <trkpt lat="43.0348639999996" lon="-1.2909699999999993">
        <ele>1314.449</ele>
        <time>2022-08-24T10:25:28Z</time>
      </trkpt>
      <trkpt lat="43.0348559999996" lon="-1.2909619999999993">
        <ele>1314.613</ele>
        <time>2022-08-24T10:25:29Z</time>
      </trkpt>
      <trkpt lat="43.0348499999996" lon="-1.2909529999999994">
        <ele>1315.009</ele>
        <time>2022-08-24T10:25:30Z</time>
      </trkpt>
      <trkpt lat="43.0348409999996" lon="-1.2909479999999993">
        <ele>1315.464</ele>
        <time>2022-08-24T10:25:31Z</time>
      </trkpt>
      <trkpt lat="43.0348309999996" lon="-1.2909429999999993">
        <ele>1315.654</ele>
        <time>2022-08-24T10:25:32Z</time>
      </trkpt>
      <trkpt lat="43.034820999999596" lon="-1.2909399999999993">
        <ele>1315.844</ele>
        <time>2022-08-24T10:25:33Z</time>
      </trkpt>
      <trkpt lat="43.03481099999959" lon="-1.2909379999999993">
        <ele>1316.220</ele>
        <time>2022-08-24T10:25:34Z</time>
      </trkpt>
      <trkpt lat="43.03480299999959" lon="-1.2909359999999992">
        <ele>1316.252</ele>
        <time>2022-08-24T10:25:35Z</time>
      </trkpt>
      <trkpt lat="43.03479299999959" lon="-1.2909319999999993">
        <ele>1316.089</ele>
        <time>2022-08-24T10:25:36Z</time>
      </trkpt>
      <trkpt lat="43.034779999999586" lon="-1.2909299999999992">
        <ele>1316.432</ele>
        <time>2022-08-24T10:25:37Z</time>
      </trkpt>
      <trkpt lat="43.03476699999958" lon="-1.2909359999999992">
        <ele>1316.496</ele>
        <time>2022-08-24T10:25:38Z</time>
      </trkpt>
      <trkpt lat="43.03475599999958" lon="-1.2909439999999992">
        <ele>1316.445</ele>
        <time>2022-08-24T10:25:39Z</time>
      </trkpt>
      <trkpt lat="43.03474799999958" lon="-1.2909489999999992">
        <ele>1316.445</ele>
        <time>2022-08-24T10:25:40Z</time>
      </trkpt>
      <trkpt lat="43.03473699999958" lon="-1.2909579999999992">
        <ele>1316.647</ele>
        <time>2022-08-24T10:25:41Z</time>
      </trkpt>
      <trkpt lat="43.03472499999958" lon="-1.2909719999999991">
        <ele>1316.611</ele>
        <time>2022-08-24T10:25:42Z</time>
      </trkpt>
      <trkpt lat="43.03471399999958" lon="-1.2909849999999992">
        <ele>1316.609</ele>
        <time>2022-08-24T10:25:43Z</time>
      </trkpt>
      <trkpt lat="43.03470399999958" lon="-1.290996999999999">
        <ele>1317.055</ele>
        <time>2022-08-24T10:25:44Z</time>
      </trkpt>
      <trkpt lat="43.03469699999958" lon="-1.291007999999999">
        <ele>1317.055</ele>
        <time>2022-08-24T10:25:45Z</time>
      </trkpt>
      <trkpt lat="43.03468799999958" lon="-1.291019999999999">
        <ele>1317.075</ele>
        <time>2022-08-24T10:25:46Z</time>
      </trkpt>
      <trkpt lat="43.03467799999958" lon="-1.291033999999999">
        <ele>1317.271</ele>
        <time>2022-08-24T10:25:47Z</time>
      </trkpt>
      <trkpt lat="43.03467199999958" lon="-1.291043999999999">
        <ele>1317.233</ele>
        <time>2022-08-24T10:25:48Z</time>
      </trkpt>
      <trkpt lat="43.03466299999958" lon="-1.291059999999999">
        <ele>1317.460</ele>
        <time>2022-08-24T10:25:49Z</time>
      </trkpt>
      <trkpt lat="43.03465799999958" lon="-1.2910719999999989">
        <ele>1317.443</ele>
        <time>2022-08-24T10:25:50Z</time>
      </trkpt>
      <trkpt lat="43.03465199999958" lon="-1.2910829999999989">
        <ele>1317.257</ele>
        <time>2022-08-24T10:25:51Z</time>
      </trkpt>
      <trkpt lat="43.034644999999585" lon="-1.2910989999999989">
        <ele>1317.246</ele>
        <time>2022-08-24T10:25:52Z</time>
      </trkpt>
      <trkpt lat="43.03464099999959" lon="-1.291113999999999">
        <ele>1317.273</ele>
        <time>2022-08-24T10:25:53Z</time>
      </trkpt>
      <trkpt lat="43.03463599999959" lon="-1.291128999999999">
        <ele>1317.285</ele>
        <time>2022-08-24T10:25:54Z</time>
      </trkpt>
      <trkpt lat="43.034633999999585" lon="-1.291140999999999">
        <ele>1317.213</ele>
        <time>2022-08-24T10:25:55Z</time>
      </trkpt>
      <trkpt lat="43.03462699999959" lon="-1.291155999999999">
        <ele>1317.009</ele>
        <time>2022-08-24T10:25:56Z</time>
      </trkpt>
      <trkpt lat="43.03461799999959" lon="-1.291174999999999">
        <ele>1317.088</ele>
        <time>2022-08-24T10:25:57Z</time>
      </trkpt>
      <trkpt lat="43.03460799999959" lon="-1.291207999999999">
        <ele>1317.028</ele>
        <time>2022-08-24T10:25:59Z</time>
      </trkpt>
      <trkpt lat="43.03460399999959" lon="-1.291223999999999">
        <ele>1317.038</ele>
        <time>2022-08-24T10:26:00Z</time>
      </trkpt>
      <trkpt lat="43.03460099999959" lon="-1.2912469999999991">
        <ele>1317.084</ele>
        <time>2022-08-24T10:26:01Z</time>
      </trkpt>
      <trkpt lat="43.03459599999959" lon="-1.291271999999999">
        <ele>1317.076</ele>
        <time>2022-08-24T10:26:02Z</time>
      </trkpt>
      <trkpt lat="43.034593999999586" lon="-1.2912899999999992">
        <ele>1317.043</ele>
        <time>2022-08-24T10:26:03Z</time>
      </trkpt>
      <trkpt lat="43.034591999999584" lon="-1.291306999999999">
        <ele>1317.066</ele>
        <time>2022-08-24T10:26:04Z</time>
      </trkpt>
      <trkpt lat="43.034585999999585" lon="-1.2913199999999991">
        <ele>1317.040</ele>
        <time>2022-08-24T10:26:05Z</time>
      </trkpt>
      <trkpt lat="43.034580999999584" lon="-1.2913359999999992">
        <ele>1317.069</ele>
        <time>2022-08-24T10:26:06Z</time>
      </trkpt>
      <trkpt lat="43.03457299999958" lon="-1.291355999999999">
        <ele>1317.267</ele>
        <time>2022-08-24T10:26:07Z</time>
      </trkpt>
      <trkpt lat="43.034565999999586" lon="-1.2913739999999991">
        <ele>1317.281</ele>
        <time>2022-08-24T10:26:08Z</time>
      </trkpt>
      <trkpt lat="43.034560999999584" lon="-1.2913899999999991">
        <ele>1317.219</ele>
        <time>2022-08-24T10:26:09Z</time>
      </trkpt>
      <trkpt lat="43.03455699999959" lon="-1.291401999999999">
        <ele>1317.409</ele>
        <time>2022-08-24T10:26:10Z</time>
      </trkpt>
      <trkpt lat="43.03455299999959" lon="-1.291420999999999">
        <ele>1317.467</ele>
        <time>2022-08-24T10:26:11Z</time>
      </trkpt>
      <trkpt lat="43.03454899999959" lon="-1.291436999999999">
        <ele>1317.477</ele>
        <time>2022-08-24T10:26:12Z</time>
      </trkpt>
      <trkpt lat="43.034545999999594" lon="-1.291450999999999">
        <ele>1317.457</ele>
        <time>2022-08-24T10:26:13Z</time>
      </trkpt>
      <trkpt lat="43.0345419999996" lon="-1.291462999999999">
        <ele>1317.663</ele>
        <time>2022-08-24T10:26:14Z</time>
      </trkpt>
      <trkpt lat="43.034536999999595" lon="-1.2914719999999988">
        <ele>1317.815</ele>
        <time>2022-08-24T10:26:15Z</time>
      </trkpt>
      <trkpt lat="43.034530999999596" lon="-1.2914889999999988">
        <ele>1317.862</ele>
        <time>2022-08-24T10:26:16Z</time>
      </trkpt>
      <trkpt lat="43.034502999999596" lon="-1.2915779999999988">
        <ele>1318.485</ele>
        <time>2022-08-24T10:26:21Z</time>
      </trkpt>
      <trkpt lat="43.0344959999996" lon="-1.2915959999999989">
        <ele>1318.669</ele>
        <time>2022-08-24T10:26:22Z</time>
      </trkpt>
      <trkpt lat="43.0344899999996" lon="-1.2916099999999988">
        <ele>1319.038</ele>
        <time>2022-08-24T10:26:23Z</time>
      </trkpt>
      <trkpt lat="43.0344849999996" lon="-1.2916239999999988">
        <ele>1319.277</ele>
        <time>2022-08-24T10:26:24Z</time>
      </trkpt>
      <trkpt lat="43.0344809999996" lon="-1.2916339999999988">
        <ele>1319.461</ele>
        <time>2022-08-24T10:26:25Z</time>
      </trkpt>
      <trkpt lat="43.034459999999605" lon="-1.291683999999999">
        <ele>1320.027</ele>
        <time>2022-08-24T10:26:28Z</time>
      </trkpt>
      <trkpt lat="43.03443899999961" lon="-1.291710999999999">
        <ele>1320.409</ele>
        <time>2022-08-24T10:26:30Z</time>
      </trkpt>
      <trkpt lat="43.03443199999961" lon="-1.2917199999999989">
        <ele>1320.868</ele>
        <time>2022-08-24T10:26:31Z</time>
      </trkpt>
      <trkpt lat="43.03442299999961" lon="-1.2917309999999989">
        <ele>1321.018</ele>
        <time>2022-08-24T10:26:32Z</time>
      </trkpt>
      <trkpt lat="43.034413999999614" lon="-1.291737999999999">
        <ele>1321.278</ele>
        <time>2022-08-24T10:26:33Z</time>
      </trkpt>
      <trkpt lat="43.03440099999961" lon="-1.2917419999999988">
        <ele>1321.474</ele>
        <time>2022-08-24T10:26:34Z</time>
      </trkpt>
      <trkpt lat="43.034388999999614" lon="-1.2917459999999987">
        <ele>1321.636</ele>
        <time>2022-08-24T10:26:35Z</time>
      </trkpt>
      <trkpt lat="43.03437799999961" lon="-1.2917499999999986">
        <ele>1321.873</ele>
        <time>2022-08-24T10:26:36Z</time>
      </trkpt>
      <trkpt lat="43.034368999999614" lon="-1.2917489999999987">
        <ele>1322.056</ele>
        <time>2022-08-24T10:26:37Z</time>
      </trkpt>
      <trkpt lat="43.03436099999961" lon="-1.2917509999999988">
        <ele>1322.020</ele>
        <time>2022-08-24T10:26:38Z</time>
      </trkpt>
      <trkpt lat="43.034348999999615" lon="-1.2917529999999988">
        <ele>1322.039</ele>
        <time>2022-08-24T10:26:39Z</time>
      </trkpt>
      <trkpt lat="43.03433699999962" lon="-1.2917569999999987">
        <ele>1322.278</ele>
        <time>2022-08-24T10:26:40Z</time>
      </trkpt>
      <trkpt lat="43.034326999999614" lon="-1.2917619999999987">
        <ele>1322.233</ele>
        <time>2022-08-24T10:26:41Z</time>
      </trkpt>
      <trkpt lat="43.03431599999961" lon="-1.2917669999999988">
        <ele>1322.226</ele>
        <time>2022-08-24T10:26:42Z</time>
      </trkpt>
      <trkpt lat="43.03430599999961" lon="-1.2917719999999988">
        <ele>1322.209</ele>
        <time>2022-08-24T10:26:43Z</time>
      </trkpt>
      <trkpt lat="43.03429099999961" lon="-1.2917749999999988">
        <ele>1322.238</ele>
        <time>2022-08-24T10:26:44Z</time>
      </trkpt>
      <trkpt lat="43.034278999999614" lon="-1.2917769999999988">
        <ele>1322.278</ele>
        <time>2022-08-24T10:26:45Z</time>
      </trkpt>
      <trkpt lat="43.034267999999614" lon="-1.2917809999999987">
        <ele>1322.248</ele>
        <time>2022-08-24T10:26:46Z</time>
      </trkpt>
      <trkpt lat="43.03425699999961" lon="-1.2917829999999988">
        <ele>1322.284</ele>
        <time>2022-08-24T10:26:47Z</time>
      </trkpt>
      <trkpt lat="43.03424599999961" lon="-1.2917859999999988">
        <ele>1322.286</ele>
        <time>2022-08-24T10:26:48Z</time>
      </trkpt>
      <trkpt lat="43.03423299999961" lon="-1.2917919999999987">
        <ele>1322.453</ele>
        <time>2022-08-24T10:26:49Z</time>
      </trkpt>
      <trkpt lat="43.03422099999961" lon="-1.2917969999999988">
        <ele>1322.436</ele>
        <time>2022-08-24T10:26:50Z</time>
      </trkpt>
      <trkpt lat="43.03420899999961" lon="-1.2917989999999988">
        <ele>1322.490</ele>
        <time>2022-08-24T10:26:51Z</time>
      </trkpt>
      <trkpt lat="43.034196999999615" lon="-1.2918049999999988">
        <ele>1322.489</ele>
        <time>2022-08-24T10:26:52Z</time>
      </trkpt>
      <trkpt lat="43.034182999999615" lon="-1.2918089999999987">
        <ele>1322.647</ele>
        <time>2022-08-24T10:26:53Z</time>
      </trkpt>
      <trkpt lat="43.03417399999962" lon="-1.2918119999999986">
        <ele>1322.829</ele>
        <time>2022-08-24T10:26:54Z</time>
      </trkpt>
      <trkpt lat="43.034168999999615" lon="-1.2918129999999985">
        <ele>1322.821</ele>
        <time>2022-08-24T10:26:55Z</time>
      </trkpt>
      <trkpt lat="43.03416699999961" lon="-1.2918129999999985">
        <ele>1324.009</ele>
        <time>2022-08-24T10:27:39Z</time>
      </trkpt>
      <trkpt lat="43.034157999999614" lon="-1.2918169999999984">
        <ele>1324.095</ele>
        <time>2022-08-24T10:27:40Z</time>
      </trkpt>
      <trkpt lat="43.03414799999961" lon="-1.2918189999999985">
        <ele>1324.215</ele>
        <time>2022-08-24T10:27:41Z</time>
      </trkpt>
      <trkpt lat="43.03407599999961" lon="-1.2918329999999985">
        <ele>1324.285</ele>
        <time>2022-08-24T10:27:47Z</time>
      </trkpt>
      <trkpt lat="43.03403099999961" lon="-1.2918409999999985">
        <ele>1324.271</ele>
        <time>2022-08-24T10:27:50Z</time>
      </trkpt>
      <trkpt lat="43.03392899999961" lon="-1.2918519999999984">
        <ele>1323.853</ele>
        <time>2022-08-24T10:27:56Z</time>
      </trkpt>
      <trkpt lat="43.03391199999961" lon="-1.2918509999999985">
        <ele>1323.810</ele>
        <time>2022-08-24T10:27:57Z</time>
      </trkpt>
      <trkpt lat="43.03389499999961" lon="-1.2918489999999985">
        <ele>1323.893</ele>
        <time>2022-08-24T10:27:58Z</time>
      </trkpt>
      <trkpt lat="43.03380299999961" lon="-1.2918369999999986">
        <ele>1323.687</ele>
        <time>2022-08-24T10:28:03Z</time>
      </trkpt>
      <trkpt lat="43.03375099999961" lon="-1.2918219999999985">
        <ele>1323.866</ele>
        <time>2022-08-24T10:28:06Z</time>
      </trkpt>
      <trkpt lat="43.03373699999961" lon="-1.2918189999999985">
        <ele>1323.866</ele>
        <time>2022-08-24T10:28:07Z</time>
      </trkpt>
      <trkpt lat="43.033721999999614" lon="-1.2918119999999984">
        <ele>1323.829</ele>
        <time>2022-08-24T10:28:08Z</time>
      </trkpt>
      <trkpt lat="43.03370799999961" lon="-1.2918079999999985">
        <ele>1324.021</ele>
        <time>2022-08-24T10:28:09Z</time>
      </trkpt>
      <trkpt lat="43.033678999999616" lon="-1.2918069999999986">
        <ele>1324.009</ele>
        <time>2022-08-24T10:28:11Z</time>
      </trkpt>
      <trkpt lat="43.03366399999962" lon="-1.2918039999999986">
        <ele>1324.037</ele>
        <time>2022-08-24T10:28:12Z</time>
      </trkpt>
      <trkpt lat="43.03362999999962" lon="-1.2917999999999987">
        <ele>1324.227</ele>
        <time>2022-08-24T10:28:14Z</time>
      </trkpt>
      <trkpt lat="43.03361299999962" lon="-1.2917959999999988">
        <ele>1324.447</ele>
        <time>2022-08-24T10:28:15Z</time>
      </trkpt>
      <trkpt lat="43.033599999999616" lon="-1.2917939999999988">
        <ele>1324.433</ele>
        <time>2022-08-24T10:28:16Z</time>
      </trkpt>
      <trkpt lat="43.03358699999961" lon="-1.2917919999999987">
        <ele>1324.645</ele>
        <time>2022-08-24T10:28:17Z</time>
      </trkpt>
      <trkpt lat="43.03357299999961" lon="-1.2917889999999987">
        <ele>1324.852</ele>
        <time>2022-08-24T10:28:18Z</time>
      </trkpt>
      <trkpt lat="43.03355899999961" lon="-1.2917869999999987">
        <ele>1324.875</ele>
        <time>2022-08-24T10:28:19Z</time>
      </trkpt>
      <trkpt lat="43.033524999999614" lon="-1.2917799999999986">
        <ele>1325.089</ele>
        <time>2022-08-24T10:28:22Z</time>
      </trkpt>
      <trkpt lat="43.03350899999961" lon="-1.2917829999999986">
        <ele>1325.028</ele>
        <time>2022-08-24T10:28:23Z</time>
      </trkpt>
      <trkpt lat="43.033493999999614" lon="-1.2917809999999985">
        <ele>1325.256</ele>
        <time>2022-08-24T10:28:24Z</time>
      </trkpt>
      <trkpt lat="43.03340999999961" lon="-1.2917549999999984">
        <ele>1325.259</ele>
        <time>2022-08-24T10:28:28Z</time>
      </trkpt>
      <trkpt lat="43.03333699999961" lon="-1.2917279999999984">
        <ele>1325.414</ele>
        <time>2022-08-24T10:28:31Z</time>
      </trkpt>
      <trkpt lat="43.03328399999961" lon="-1.2917109999999985">
        <ele>1325.409</ele>
        <time>2022-08-24T10:28:33Z</time>
      </trkpt>
      <trkpt lat="43.03325999999961" lon="-1.2917099999999986">
        <ele>1325.626</ele>
        <time>2022-08-24T10:28:34Z</time>
      </trkpt>
      <trkpt lat="43.03323199999961" lon="-1.2917089999999987">
        <ele>1325.666</ele>
        <time>2022-08-24T10:28:35Z</time>
      </trkpt>
      <trkpt lat="43.033204999999604" lon="-1.2917109999999987">
        <ele>1325.836</ele>
        <time>2022-08-24T10:28:36Z</time>
      </trkpt>
      <trkpt lat="43.033187999999605" lon="-1.2917129999999988">
        <ele>1325.882</ele>
        <time>2022-08-24T10:28:37Z</time>
      </trkpt>
      <trkpt lat="43.033162999999604" lon="-1.2917149999999988">
        <ele>1326.084</ele>
        <time>2022-08-24T10:28:38Z</time>
      </trkpt>
      <trkpt lat="43.033133999999606" lon="-1.291713999999999">
        <ele>1326.081</ele>
        <time>2022-08-24T10:28:39Z</time>
      </trkpt>
      <trkpt lat="43.0331099999996" lon="-1.2917199999999989">
        <ele>1326.084</ele>
        <time>2022-08-24T10:28:40Z</time>
      </trkpt>
      <trkpt lat="43.0330879999996" lon="-1.2917239999999988">
        <ele>1326.238</ele>
        <time>2022-08-24T10:28:41Z</time>
      </trkpt>
      <trkpt lat="43.0330649999996" lon="-1.2917169999999987">
        <ele>1326.437</ele>
        <time>2022-08-24T10:28:42Z</time>
      </trkpt>
      <trkpt lat="43.033049999999605" lon="-1.2917129999999988">
        <ele>1326.815</ele>
        <time>2022-08-24T10:28:43Z</time>
      </trkpt>
      <trkpt lat="43.0330309999996" lon="-1.2917139999999987">
        <ele>1327.065</ele>
        <time>2022-08-24T10:28:44Z</time>
      </trkpt>
      <trkpt lat="43.0330119999996" lon="-1.2917189999999987">
        <ele>1327.211</ele>
        <time>2022-08-24T10:28:45Z</time>
      </trkpt>
      <trkpt lat="43.032993999999604" lon="-1.2917169999999987">
        <ele>1327.609</ele>
        <time>2022-08-24T10:28:46Z</time>
      </trkpt>
      <trkpt lat="43.03297599999961" lon="-1.2917209999999986">
        <ele>1327.892</ele>
        <time>2022-08-24T10:28:47Z</time>
      </trkpt>
      <trkpt lat="43.03296099999961" lon="-1.2917239999999985">
        <ele>1328.092</ele>
        <time>2022-08-24T10:28:48Z</time>
      </trkpt>
      <trkpt lat="43.03294699999961" lon="-1.2917289999999986">
        <ele>1328.222</ele>
        <time>2022-08-24T10:28:49Z</time>
      </trkpt>
      <trkpt lat="43.03292699999961" lon="-1.2917339999999986">
        <ele>1328.258</ele>
        <time>2022-08-24T10:28:50Z</time>
      </trkpt>
      <trkpt lat="43.03291099999961" lon="-1.2917399999999986">
        <ele>1328.460</ele>
        <time>2022-08-24T10:28:51Z</time>
      </trkpt>
      <trkpt lat="43.032897999999605" lon="-1.2917509999999985">
        <ele>1328.657</ele>
        <time>2022-08-24T10:28:52Z</time>
      </trkpt>
      <trkpt lat="43.0328849999996" lon="-1.2917619999999985">
        <ele>1328.830</ele>
        <time>2022-08-24T10:28:53Z</time>
      </trkpt>
      <trkpt lat="43.032872999999604" lon="-1.2917709999999984">
        <ele>1328.864</ele>
        <time>2022-08-24T10:28:54Z</time>
      </trkpt>
      <trkpt lat="43.03285799999961" lon="-1.2917809999999985">
        <ele>1329.053</ele>
        <time>2022-08-24T10:28:55Z</time>
      </trkpt>
      <trkpt lat="43.032844999999604" lon="-1.2917879999999986">
        <ele>1329.217</ele>
        <time>2022-08-24T10:28:56Z</time>
      </trkpt>
      <trkpt lat="43.032835999999605" lon="-1.2917979999999987">
        <ele>1329.487</ele>
        <time>2022-08-24T10:28:57Z</time>
      </trkpt>
      <trkpt lat="43.032827999999604" lon="-1.2918089999999987">
        <ele>1329.615</ele>
        <time>2022-08-24T10:28:58Z</time>
      </trkpt>
      <trkpt lat="43.0328169999996" lon="-1.2918219999999987">
        <ele>1329.609</ele>
        <time>2022-08-24T10:28:59Z</time>
      </trkpt>
      <trkpt lat="43.0328059999996" lon="-1.2918329999999987">
        <ele>1330.242</ele>
        <time>2022-08-24T10:29:00Z</time>
      </trkpt>
      <trkpt lat="43.0327949999996" lon="-1.2918449999999986">
        <ele>1330.482</ele>
        <time>2022-08-24T10:29:01Z</time>
      </trkpt>
      <trkpt lat="43.0327849999996" lon="-1.2918529999999986">
        <ele>1330.822</ele>
        <time>2022-08-24T10:29:02Z</time>
      </trkpt>
      <trkpt lat="43.0327779999996" lon="-1.2918569999999985">
        <ele>1331.018</ele>
        <time>2022-08-24T10:29:03Z</time>
      </trkpt>
      <trkpt lat="43.0327679999996" lon="-1.2918659999999984">
        <ele>1331.030</ele>
        <time>2022-08-24T10:29:04Z</time>
      </trkpt>
      <trkpt lat="43.032757999999596" lon="-1.2918749999999983">
        <ele>1331.447</ele>
        <time>2022-08-24T10:29:05Z</time>
      </trkpt>
      <trkpt lat="43.032749999999595" lon="-1.2918869999999982">
        <ele>1331.440</ele>
        <time>2022-08-24T10:29:06Z</time>
      </trkpt>
      <trkpt lat="43.032741999999594" lon="-1.2918959999999982">
        <ele>1331.634</ele>
        <time>2022-08-24T10:29:07Z</time>
      </trkpt>
      <trkpt lat="43.03273199999959" lon="-1.2919039999999982">
        <ele>1331.873</ele>
        <time>2022-08-24T10:29:08Z</time>
      </trkpt>
      <trkpt lat="43.03272199999959" lon="-1.2919109999999983">
        <ele>1331.868</ele>
        <time>2022-08-24T10:29:09Z</time>
      </trkpt>
      <trkpt lat="43.03271299999959" lon="-1.2919139999999982">
        <ele>1332.042</ele>
        <time>2022-08-24T10:29:10Z</time>
      </trkpt>
      <trkpt lat="43.03270399999959" lon="-1.2919209999999983">
        <ele>1332.026</ele>
        <time>2022-08-24T10:29:11Z</time>
      </trkpt>
      <trkpt lat="43.03269499999959" lon="-1.2919259999999984">
        <ele>1332.209</ele>
        <time>2022-08-24T10:29:12Z</time>
      </trkpt>
      <trkpt lat="43.03268699999959" lon="-1.2919279999999984">
        <ele>1332.447</ele>
        <time>2022-08-24T10:29:13Z</time>
      </trkpt>
      <trkpt lat="43.03267799999959" lon="-1.2919339999999984">
        <ele>1332.457</ele>
        <time>2022-08-24T10:29:14Z</time>
      </trkpt>
      <trkpt lat="43.03266899999959" lon="-1.2919409999999985">
        <ele>1332.667</ele>
        <time>2022-08-24T10:29:15Z</time>
      </trkpt>
      <trkpt lat="43.03265799999959" lon="-1.2919459999999985">
        <ele>1332.673</ele>
        <time>2022-08-24T10:29:16Z</time>
      </trkpt>
      <trkpt lat="43.03264499999959" lon="-1.2919519999999984">
        <ele>1332.645</ele>
        <time>2022-08-24T10:29:17Z</time>
      </trkpt>
      <trkpt lat="43.03263299999959" lon="-1.2919599999999984">
        <ele>1332.692</ele>
        <time>2022-08-24T10:29:18Z</time>
      </trkpt>
      <trkpt lat="43.03262499999959" lon="-1.2919689999999984">
        <ele>1332.825</ele>
        <time>2022-08-24T10:29:19Z</time>
      </trkpt>
      <trkpt lat="43.032617999999594" lon="-1.2919769999999984">
        <ele>1332.819</ele>
        <time>2022-08-24T10:29:20Z</time>
      </trkpt>
      <trkpt lat="43.032611999999595" lon="-1.2919869999999984">
        <ele>1333.288</ele>
        <time>2022-08-24T10:29:21Z</time>
      </trkpt>
      <trkpt lat="43.0326079999996" lon="-1.2919939999999985">
        <ele>1333.214</ele>
        <time>2022-08-24T10:29:22Z</time>
      </trkpt>
      <trkpt lat="43.0326029999996" lon="-1.2919999999999985">
        <ele>1333.454</ele>
        <time>2022-08-24T10:29:23Z</time>
      </trkpt>
      <trkpt lat="43.032597999999595" lon="-1.2920079999999985">
        <ele>1333.409</ele>
        <time>2022-08-24T10:29:24Z</time>
      </trkpt>
      <trkpt lat="43.032591999999596" lon="-1.2920159999999985">
        <ele>1333.409</ele>
        <time>2022-08-24T10:29:25Z</time>
      </trkpt>
      <trkpt lat="43.0325849999996" lon="-1.2920229999999986">
        <ele>1333.862</ele>
        <time>2022-08-24T10:29:26Z</time>
      </trkpt>
      <trkpt lat="43.0325789999996" lon="-1.2920299999999987">
        <ele>1334.082</ele>
        <time>2022-08-24T10:29:27Z</time>
      </trkpt>
      <trkpt lat="43.0325729999996" lon="-1.2920409999999987">
        <ele>1334.232</ele>
        <time>2022-08-24T10:29:28Z</time>
      </trkpt>
      <trkpt lat="43.0325649999996" lon="-1.2920469999999986">
        <ele>1334.288</ele>
        <time>2022-08-24T10:29:29Z</time>
      </trkpt>
      <trkpt lat="43.0325599999996" lon="-1.2920539999999987">
        <ele>1334.230</ele>
        <time>2022-08-24T10:29:30Z</time>
      </trkpt>
      <trkpt lat="43.0325509999996" lon="-1.2920599999999987">
        <ele>1334.467</ele>
        <time>2022-08-24T10:29:31Z</time>
      </trkpt>
      <trkpt lat="43.032543999999604" lon="-1.2920679999999987">
        <ele>1334.450</ele>
        <time>2022-08-24T10:29:32Z</time>
      </trkpt>
      <trkpt lat="43.03253699999961" lon="-1.2920709999999986">
        <ele>1334.864</ele>
        <time>2022-08-24T10:29:33Z</time>
      </trkpt>
      <trkpt lat="43.032528999999606" lon="-1.2920749999999985">
        <ele>1334.873</ele>
        <time>2022-08-24T10:29:34Z</time>
      </trkpt>
      <trkpt lat="43.03251699999961" lon="-1.2920829999999985">
        <ele>1335.022</ele>
        <time>2022-08-24T10:29:35Z</time>
      </trkpt>
      <trkpt lat="43.03250799999961" lon="-1.2920929999999986">
        <ele>1335.062</ele>
        <time>2022-08-24T10:29:36Z</time>
      </trkpt>
      <trkpt lat="43.03250099999961" lon="-1.2921039999999986">
        <ele>1335.208</ele>
        <time>2022-08-24T10:29:37Z</time>
      </trkpt>
      <trkpt lat="43.032493999999616" lon="-1.2921159999999985">
        <ele>1335.209</ele>
        <time>2022-08-24T10:29:38Z</time>
      </trkpt>
      <trkpt lat="43.03248499999962" lon="-1.2921239999999985">
        <ele>1335.243</ele>
        <time>2022-08-24T10:29:39Z</time>
      </trkpt>
      <trkpt lat="43.032474999999614" lon="-1.2921339999999986">
        <ele>1335.453</ele>
        <time>2022-08-24T10:29:40Z</time>
      </trkpt>
      <trkpt lat="43.03246699999961" lon="-1.2921499999999986">
        <ele>1335.433</ele>
        <time>2022-08-24T10:29:41Z</time>
      </trkpt>
      <trkpt lat="43.03246199999961" lon="-1.2921599999999986">
        <ele>1335.459</ele>
        <time>2022-08-24T10:29:42Z</time>
      </trkpt>
      <trkpt lat="43.03245199999961" lon="-1.2921739999999986">
        <ele>1335.611</ele>
        <time>2022-08-24T10:29:43Z</time>
      </trkpt>
      <trkpt lat="43.032441999999605" lon="-1.2921789999999986">
        <ele>1335.688</ele>
        <time>2022-08-24T10:29:44Z</time>
      </trkpt>
      <trkpt lat="43.03243299999961" lon="-1.2921889999999987">
        <ele>1335.631</ele>
        <time>2022-08-24T10:29:45Z</time>
      </trkpt>
      <trkpt lat="43.03242699999961" lon="-1.2922039999999988">
        <ele>1335.845</ele>
        <time>2022-08-24T10:29:46Z</time>
      </trkpt>
      <trkpt lat="43.03241799999961" lon="-1.2922139999999989">
        <ele>1336.024</ele>
        <time>2022-08-24T10:29:47Z</time>
      </trkpt>
      <trkpt lat="43.03240999999961" lon="-1.2922229999999988">
        <ele>1336.287</ele>
        <time>2022-08-24T10:29:48Z</time>
      </trkpt>
      <trkpt lat="43.03240199999961" lon="-1.2922309999999988">
        <ele>1336.442</ele>
        <time>2022-08-24T10:29:49Z</time>
      </trkpt>
      <trkpt lat="43.032391999999604" lon="-1.2922359999999988">
        <ele>1336.426</ele>
        <time>2022-08-24T10:29:50Z</time>
      </trkpt>
      <trkpt lat="43.032379999999606" lon="-1.292245999999999">
        <ele>1336.609</ele>
        <time>2022-08-24T10:29:51Z</time>
      </trkpt>
      <trkpt lat="43.03237099999961" lon="-1.292255999999999">
        <ele>1336.879</ele>
        <time>2022-08-24T10:29:52Z</time>
      </trkpt>
      <trkpt lat="43.032359999999606" lon="-1.2922649999999989">
        <ele>1337.019</ele>
        <time>2022-08-24T10:29:53Z</time>
      </trkpt>
      <trkpt lat="43.032345999999606" lon="-1.292269999999999">
        <ele>1337.049</ele>
        <time>2022-08-24T10:29:54Z</time>
      </trkpt>
      <trkpt lat="43.0323359999996" lon="-1.292282999999999">
        <ele>1337.265</ele>
        <time>2022-08-24T10:29:55Z</time>
      </trkpt>
      <trkpt lat="43.0323279999996" lon="-1.292295999999999">
        <ele>1337.297</ele>
        <time>2022-08-24T10:29:56Z</time>
      </trkpt>
      <trkpt lat="43.0323199999996" lon="-1.292307999999999">
        <ele>1337.444</ele>
        <time>2022-08-24T10:29:57Z</time>
      </trkpt>
      <trkpt lat="43.0323109999996" lon="-1.292320999999999">
        <ele>1337.487</ele>
        <time>2022-08-24T10:29:58Z</time>
      </trkpt>
      <trkpt lat="43.0323029999996" lon="-1.292328999999999">
        <ele>1337.621</ele>
        <time>2022-08-24T10:29:59Z</time>
      </trkpt>
      <trkpt lat="43.0322919999996" lon="-1.292338999999999">
        <ele>1337.850</ele>
        <time>2022-08-24T10:30:00Z</time>
      </trkpt>
      <trkpt lat="43.0322879999996" lon="-1.292346999999999">
        <ele>1337.874</ele>
        <time>2022-08-24T10:30:01Z</time>
      </trkpt>
      <trkpt lat="43.032284999999604" lon="-1.292345999999999">
        <ele>1338.056</ele>
        <time>2022-08-24T10:30:02Z</time>
      </trkpt>
      <trkpt lat="43.032278999999605" lon="-1.2923539999999991">
        <ele>1338.021</ele>
        <time>2022-08-24T10:30:03Z</time>
      </trkpt>
      <trkpt lat="43.032269999999606" lon="-1.292367999999999">
        <ele>1338.209</ele>
        <time>2022-08-24T10:30:04Z</time>
      </trkpt>
      <trkpt lat="43.03226299999961" lon="-1.292379999999999">
        <ele>1338.278</ele>
        <time>2022-08-24T10:30:05Z</time>
      </trkpt>
      <trkpt lat="43.03225699999961" lon="-1.292390999999999">
        <ele>1338.498</ele>
        <time>2022-08-24T10:30:06Z</time>
      </trkpt>
      <trkpt lat="43.03224899999961" lon="-1.292401999999999">
        <ele>1338.868</ele>
        <time>2022-08-24T10:30:07Z</time>
      </trkpt>
      <trkpt lat="43.03224399999961" lon="-1.292415999999999">
        <ele>1339.044</ele>
        <time>2022-08-24T10:30:08Z</time>
      </trkpt>
      <trkpt lat="43.032230999999605" lon="-1.292422999999999">
        <ele>1339.256</ele>
        <time>2022-08-24T10:30:09Z</time>
      </trkpt>
      <trkpt lat="43.0322179999996" lon="-1.292429999999999">
        <ele>1339.493</ele>
        <time>2022-08-24T10:30:10Z</time>
      </trkpt>
      <trkpt lat="43.0322069999996" lon="-1.2924369999999992">
        <ele>1339.826</ele>
        <time>2022-08-24T10:30:11Z</time>
      </trkpt>
      <trkpt lat="43.032194999999604" lon="-1.2924509999999991">
        <ele>1339.870</ele>
        <time>2022-08-24T10:30:12Z</time>
      </trkpt>
      <trkpt lat="43.0321849999996" lon="-1.2924619999999991">
        <ele>1340.089</ele>
        <time>2022-08-24T10:30:13Z</time>
      </trkpt>
      <trkpt lat="43.0321749999996" lon="-1.2924699999999991">
        <ele>1340.231</ele>
        <time>2022-08-24T10:30:14Z</time>
      </trkpt>
      <trkpt lat="43.032166999999596" lon="-1.292478999999999">
        <ele>1340.461</ele>
        <time>2022-08-24T10:30:15Z</time>
      </trkpt>
      <trkpt lat="43.0321579999996" lon="-1.292488999999999">
        <ele>1340.607</ele>
        <time>2022-08-24T10:30:16Z</time>
      </trkpt>
      <trkpt lat="43.032147999999594" lon="-1.2924989999999992">
        <ele>1340.609</ele>
        <time>2022-08-24T10:30:17Z</time>
      </trkpt>
      <trkpt lat="43.0321329999996" lon="-1.292507999999999">
        <ele>1340.874</ele>
        <time>2022-08-24T10:30:18Z</time>
      </trkpt>
      <trkpt lat="43.032119999999594" lon="-1.292519999999999">
        <ele>1341.024</ele>
        <time>2022-08-24T10:30:19Z</time>
      </trkpt>
      <trkpt lat="43.032107999999596" lon="-1.292530999999999">
        <ele>1341.254</ele>
        <time>2022-08-24T10:30:20Z</time>
      </trkpt>
      <trkpt lat="43.032096999999595" lon="-1.292541999999999">
        <ele>1341.270</ele>
        <time>2022-08-24T10:30:21Z</time>
      </trkpt>
      <trkpt lat="43.032088999999594" lon="-1.2925539999999989">
        <ele>1341.462</ele>
        <time>2022-08-24T10:30:22Z</time>
      </trkpt>
      <trkpt lat="43.032079999999596" lon="-1.2925649999999989">
        <ele>1341.659</ele>
        <time>2022-08-24T10:30:23Z</time>
      </trkpt>
      <trkpt lat="43.0320729999996" lon="-1.292574999999999">
        <ele>1341.832</ele>
        <time>2022-08-24T10:30:24Z</time>
      </trkpt>
      <trkpt lat="43.0320609999996" lon="-1.292579999999999">
        <ele>1342.026</ele>
        <time>2022-08-24T10:30:25Z</time>
      </trkpt>
      <trkpt lat="43.0320479999996" lon="-1.292584999999999">
        <ele>1342.295</ele>
        <time>2022-08-24T10:30:26Z</time>
      </trkpt>
      <trkpt lat="43.032031999999596" lon="-1.292584999999999">
        <ele>1342.491</ele>
        <time>2022-08-24T10:30:27Z</time>
      </trkpt>
      <trkpt lat="43.03201899999959" lon="-1.292583999999999">
        <ele>1342.481</ele>
        <time>2022-08-24T10:30:28Z</time>
      </trkpt>
      <trkpt lat="43.03200599999959" lon="-1.292586999999999">
        <ele>1342.419</ele>
        <time>2022-08-24T10:30:29Z</time>
      </trkpt>
      <trkpt lat="43.03199599999959" lon="-1.292592999999999">
        <ele>1343.009</ele>
        <time>2022-08-24T10:30:30Z</time>
      </trkpt>
      <trkpt lat="43.03198699999959" lon="-1.2925969999999989">
        <ele>1343.220</ele>
        <time>2022-08-24T10:30:31Z</time>
      </trkpt>
      <trkpt lat="43.03197899999959" lon="-1.2926029999999988">
        <ele>1343.620</ele>
        <time>2022-08-24T10:30:32Z</time>
      </trkpt>
      <trkpt lat="43.03197199999959" lon="-1.2926119999999988">
        <ele>1344.090</ele>
        <time>2022-08-24T10:30:33Z</time>
      </trkpt>
      <trkpt lat="43.03196599999959" lon="-1.2926209999999987">
        <ele>1344.036</ele>
        <time>2022-08-24T10:30:34Z</time>
      </trkpt>
      <trkpt lat="43.03195799999959" lon="-1.2926299999999986">
        <ele>1344.258</ele>
        <time>2022-08-24T10:30:35Z</time>
      </trkpt>
      <trkpt lat="43.031950999999594" lon="-1.2926429999999987">
        <ele>1344.265</ele>
        <time>2022-08-24T10:30:36Z</time>
      </trkpt>
      <trkpt lat="43.03194099999959" lon="-1.2926549999999986">
        <ele>1344.278</ele>
        <time>2022-08-24T10:30:37Z</time>
      </trkpt>
      <trkpt lat="43.03193299999959" lon="-1.2926649999999986">
        <ele>1344.682</ele>
        <time>2022-08-24T10:30:38Z</time>
      </trkpt>
      <trkpt lat="43.031925999999594" lon="-1.2926779999999987">
        <ele>1344.611</ele>
        <time>2022-08-24T10:30:39Z</time>
      </trkpt>
      <trkpt lat="43.0319189999996" lon="-1.2926899999999986">
        <ele>1344.845</ele>
        <time>2022-08-24T10:30:40Z</time>
      </trkpt>
      <trkpt lat="43.0319099999996" lon="-1.2927009999999985">
        <ele>1345.047</ele>
        <time>2022-08-24T10:30:41Z</time>
      </trkpt>
      <trkpt lat="43.0319009999996" lon="-1.2927139999999986">
        <ele>1345.211</ele>
        <time>2022-08-24T10:30:42Z</time>
      </trkpt>
      <trkpt lat="43.0318929999996" lon="-1.2927209999999987">
        <ele>1345.209</ele>
        <time>2022-08-24T10:30:43Z</time>
      </trkpt>
      <trkpt lat="43.031882999999596" lon="-1.2927269999999986">
        <ele>1345.665</ele>
        <time>2022-08-24T10:30:44Z</time>
      </trkpt>
      <trkpt lat="43.0318709999996" lon="-1.2927349999999986">
        <ele>1345.875</ele>
        <time>2022-08-24T10:30:45Z</time>
      </trkpt>
      <trkpt lat="43.031860999999594" lon="-1.2927439999999986">
        <ele>1346.055</ele>
        <time>2022-08-24T10:30:46Z</time>
      </trkpt>
      <trkpt lat="43.03185099999959" lon="-1.2927549999999985">
        <ele>1346.291</ele>
        <time>2022-08-24T10:30:47Z</time>
      </trkpt>
      <trkpt lat="43.031843999999595" lon="-1.2927709999999986">
        <ele>1346.253</ele>
        <time>2022-08-24T10:30:48Z</time>
      </trkpt>
      <trkpt lat="43.031834999999596" lon="-1.2927819999999985">
        <ele>1346.610</ele>
        <time>2022-08-24T10:30:49Z</time>
      </trkpt>
      <trkpt lat="43.031826999999595" lon="-1.2927919999999986">
        <ele>1346.653</ele>
        <time>2022-08-24T10:30:50Z</time>
      </trkpt>
      <trkpt lat="43.03182499999959" lon="-1.2928029999999986">
        <ele>1346.867</ele>
        <time>2022-08-24T10:30:51Z</time>
      </trkpt>
      <trkpt lat="43.03182199999959" lon="-1.2928199999999985">
        <ele>1347.246</ele>
        <time>2022-08-24T10:30:52Z</time>
      </trkpt>
      <trkpt lat="43.031817999999596" lon="-1.2928329999999986">
        <ele>1347.264</ele>
        <time>2022-08-24T10:30:53Z</time>
      </trkpt>
      <trkpt lat="43.0318119999996" lon="-1.2928419999999985">
        <ele>1347.406</ele>
        <time>2022-08-24T10:30:54Z</time>
      </trkpt>
      <trkpt lat="43.031806999999596" lon="-1.2928519999999986">
        <ele>1347.616</ele>
        <time>2022-08-24T10:30:55Z</time>
      </trkpt>
      <trkpt lat="43.0317979999996" lon="-1.2928579999999985">
        <ele>1347.809</ele>
        <time>2022-08-24T10:30:56Z</time>
      </trkpt>
      <trkpt lat="43.031787999999594" lon="-1.2928649999999986">
        <ele>1348.067</ele>
        <time>2022-08-24T10:30:57Z</time>
      </trkpt>
      <trkpt lat="43.031781999999595" lon="-1.2928759999999986">
        <ele>1348.017</ele>
        <time>2022-08-24T10:30:58Z</time>
      </trkpt>
      <trkpt lat="43.0317779999996" lon="-1.2928799999999985">
        <ele>1348.227</ele>
        <time>2022-08-24T10:30:59Z</time>
      </trkpt>
      <trkpt lat="43.031772999999596" lon="-1.2928889999999984">
        <ele>1348.223</ele>
        <time>2022-08-24T10:31:00Z</time>
      </trkpt>
      <trkpt lat="43.0317669999996" lon="-1.2928959999999985">
        <ele>1348.445</ele>
        <time>2022-08-24T10:31:01Z</time>
      </trkpt>
      <trkpt lat="43.031758999999596" lon="-1.2929099999999984">
        <ele>1348.462</ele>
        <time>2022-08-24T10:31:02Z</time>
      </trkpt>
      <trkpt lat="43.0317519999996" lon="-1.2929199999999985">
        <ele>1348.635</ele>
        <time>2022-08-24T10:31:03Z</time>
      </trkpt>
      <trkpt lat="43.031741999999596" lon="-1.2929299999999986">
        <ele>1349.069</ele>
        <time>2022-08-24T10:31:04Z</time>
      </trkpt>
      <trkpt lat="43.031733999999595" lon="-1.2929359999999985">
        <ele>1349.098</ele>
        <time>2022-08-24T10:31:05Z</time>
      </trkpt>
      <trkpt lat="43.031728999999594" lon="-1.2929449999999985">
        <ele>1349.224</ele>
        <time>2022-08-24T10:31:06Z</time>
      </trkpt>
      <trkpt lat="43.031719999999595" lon="-1.2929479999999984">
        <ele>1349.204</ele>
        <time>2022-08-24T10:31:07Z</time>
      </trkpt>
      <trkpt lat="43.0317159999996" lon="-1.2929549999999985">
        <ele>1349.414</ele>
        <time>2022-08-24T10:31:08Z</time>
      </trkpt>
      <trkpt lat="43.031713999999596" lon="-1.2929629999999985">
        <ele>1349.609</ele>
        <time>2022-08-24T10:31:09Z</time>
      </trkpt>
      <trkpt lat="43.0317129999996" lon="-1.2929749999999984">
        <ele>1349.893</ele>
        <time>2022-08-24T10:31:10Z</time>
      </trkpt>
      <trkpt lat="43.0317089999996" lon="-1.2929819999999985">
        <ele>1349.873</ele>
        <time>2022-08-24T10:31:11Z</time>
      </trkpt>
      <trkpt lat="43.0317029999996" lon="-1.2929889999999986">
        <ele>1350.023</ele>
        <time>2022-08-24T10:31:12Z</time>
      </trkpt>
      <trkpt lat="43.0316949999996" lon="-1.2929949999999986">
        <ele>1350.299</ele>
        <time>2022-08-24T10:31:13Z</time>
      </trkpt>
      <trkpt lat="43.0316889999996" lon="-1.2930029999999986">
        <ele>1350.261</ele>
        <time>2022-08-24T10:31:14Z</time>
      </trkpt>
      <trkpt lat="43.031679999999604" lon="-1.2930109999999986">
        <ele>1350.238</ele>
        <time>2022-08-24T10:31:15Z</time>
      </trkpt>
      <trkpt lat="43.0316669999996" lon="-1.2930159999999986">
        <ele>1350.421</ele>
        <time>2022-08-24T10:31:16Z</time>
      </trkpt>
      <trkpt lat="43.0316589999996" lon="-1.2930249999999985">
        <ele>1350.445</ele>
        <time>2022-08-24T10:31:17Z</time>
      </trkpt>
      <trkpt lat="43.0316529999996" lon="-1.2930339999999985">
        <ele>1350.664</ele>
        <time>2022-08-24T10:31:18Z</time>
      </trkpt>
      <trkpt lat="43.0316479999996" lon="-1.2930419999999985">
        <ele>1350.633</ele>
        <time>2022-08-24T10:31:19Z</time>
      </trkpt>
      <trkpt lat="43.0316439999996" lon="-1.2930489999999986">
        <ele>1350.623</ele>
        <time>2022-08-24T10:31:20Z</time>
      </trkpt>
      <trkpt lat="43.0316339999996" lon="-1.2930579999999985">
        <ele>1350.815</ele>
        <time>2022-08-24T10:31:21Z</time>
      </trkpt>
      <trkpt lat="43.0316259999996" lon="-1.2930669999999984">
        <ele>1350.809</ele>
        <time>2022-08-24T10:31:22Z</time>
      </trkpt>
      <trkpt lat="43.031620999999596" lon="-1.2930769999999985">
        <ele>1351.044</ele>
        <time>2022-08-24T10:31:23Z</time>
      </trkpt>
      <trkpt lat="43.0316139999996" lon="-1.2930869999999985">
        <ele>1351.254</ele>
        <time>2022-08-24T10:31:24Z</time>
      </trkpt>
      <trkpt lat="43.0316089999996" lon="-1.2930959999999985">
        <ele>1351.414</ele>
        <time>2022-08-24T10:31:25Z</time>
      </trkpt>
      <trkpt lat="43.0316039999996" lon="-1.2931029999999986">
        <ele>1351.430</ele>
        <time>2022-08-24T10:31:26Z</time>
      </trkpt>
      <trkpt lat="43.0315979999996" lon="-1.2931129999999986">
        <ele>1351.632</ele>
        <time>2022-08-24T10:31:27Z</time>
      </trkpt>
      <trkpt lat="43.0315909999996" lon="-1.2931239999999986">
        <ele>1351.659</ele>
        <time>2022-08-24T10:31:28Z</time>
      </trkpt>
      <trkpt lat="43.0315849999996" lon="-1.2931369999999986">
        <ele>1351.822</ele>
        <time>2022-08-24T10:31:29Z</time>
      </trkpt>
      <trkpt lat="43.0315769999996" lon="-1.2931499999999987">
        <ele>1352.066</ele>
        <time>2022-08-24T10:31:30Z</time>
      </trkpt>
      <trkpt lat="43.031572999999604" lon="-1.2931659999999987">
        <ele>1352.035</ele>
        <time>2022-08-24T10:31:31Z</time>
      </trkpt>
      <trkpt lat="43.0315679999996" lon="-1.2931799999999987">
        <ele>1352.216</ele>
        <time>2022-08-24T10:31:32Z</time>
      </trkpt>
      <trkpt lat="43.031560999999606" lon="-1.2931909999999986">
        <ele>1352.276</ele>
        <time>2022-08-24T10:31:33Z</time>
      </trkpt>
      <trkpt lat="43.03155399999961" lon="-1.2932019999999986">
        <ele>1352.413</ele>
        <time>2022-08-24T10:31:34Z</time>
      </trkpt>
      <trkpt lat="43.03154799999961" lon="-1.2932109999999986">
        <ele>1352.409</ele>
        <time>2022-08-24T10:31:35Z</time>
      </trkpt>
      <trkpt lat="43.03153999999961" lon="-1.2932169999999985">
        <ele>1352.472</ele>
        <time>2022-08-24T10:31:36Z</time>
      </trkpt>
      <trkpt lat="43.03153399999961" lon="-1.2932289999999984">
        <ele>1352.422</ele>
        <time>2022-08-24T10:31:37Z</time>
      </trkpt>
      <trkpt lat="43.03152999999961" lon="-1.2932439999999985">
        <ele>1352.472</ele>
        <time>2022-08-24T10:31:38Z</time>
      </trkpt>
      <trkpt lat="43.03152499999961" lon="-1.2932549999999985">
        <ele>1352.698</ele>
        <time>2022-08-24T10:31:39Z</time>
      </trkpt>
      <trkpt lat="43.03151599999961" lon="-1.2932639999999984">
        <ele>1352.670</ele>
        <time>2022-08-24T10:31:40Z</time>
      </trkpt>
      <trkpt lat="43.031506999999614" lon="-1.2932709999999985">
        <ele>1352.667</ele>
        <time>2022-08-24T10:31:41Z</time>
      </trkpt>
      <trkpt lat="43.031497999999615" lon="-1.2932779999999986">
        <ele>1352.840</ele>
        <time>2022-08-24T10:31:42Z</time>
      </trkpt>
      <trkpt lat="43.03149099999962" lon="-1.2932849999999987">
        <ele>1352.884</ele>
        <time>2022-08-24T10:31:43Z</time>
      </trkpt>
      <trkpt lat="43.031480999999616" lon="-1.2932929999999987">
        <ele>1353.083</ele>
        <time>2022-08-24T10:31:44Z</time>
      </trkpt>
      <trkpt lat="43.03147399999962" lon="-1.2933019999999986">
        <ele>1353.039</ele>
        <time>2022-08-24T10:31:45Z</time>
      </trkpt>
      <trkpt lat="43.03146099999962" lon="-1.2933189999999986">
        <ele>1353.401</ele>
        <time>2022-08-24T10:31:47Z</time>
      </trkpt>
      <trkpt lat="43.031449999999616" lon="-1.2933229999999984">
        <ele>1353.621</ele>
        <time>2022-08-24T10:31:48Z</time>
      </trkpt>
      <trkpt lat="43.031441999999615" lon="-1.2933319999999984">
        <ele>1353.609</ele>
        <time>2022-08-24T10:31:49Z</time>
      </trkpt>
      <trkpt lat="43.03142999999962" lon="-1.2933509999999984">
        <ele>1353.874</ele>
        <time>2022-08-24T10:31:51Z</time>
      </trkpt>
      <trkpt lat="43.03141299999962" lon="-1.2933749999999984">
        <ele>1353.864</ele>
        <time>2022-08-24T10:31:53Z</time>
      </trkpt>
      <trkpt lat="43.03140399999962" lon="-1.2933839999999983">
        <ele>1354.024</ele>
        <time>2022-08-24T10:31:54Z</time>
      </trkpt>
      <trkpt lat="43.03139599999962" lon="-1.2933939999999984">
        <ele>1354.060</ele>
        <time>2022-08-24T10:31:55Z</time>
      </trkpt>
      <trkpt lat="43.031371999999614" lon="-1.2934179999999984">
        <ele>1354.252</ele>
        <time>2022-08-24T10:31:58Z</time>
      </trkpt>
      <trkpt lat="43.03136699999961" lon="-1.2934269999999983">
        <ele>1354.429</ele>
        <time>2022-08-24T10:31:59Z</time>
      </trkpt>
      <trkpt lat="43.03132499999961" lon="-1.2934709999999983">
        <ele>1354.872</ele>
        <time>2022-08-24T10:32:04Z</time>
      </trkpt>
      <trkpt lat="43.031317999999615" lon="-1.2934769999999982">
        <ele>1355.046</ele>
        <time>2022-08-24T10:32:05Z</time>
      </trkpt>
      <trkpt lat="43.03131099999962" lon="-1.2934849999999982">
        <ele>1355.045</ele>
        <time>2022-08-24T10:32:06Z</time>
      </trkpt>
      <trkpt lat="43.03128999999962" lon="-1.2935059999999983">
        <ele>1355.272</ele>
        <time>2022-08-24T10:32:08Z</time>
      </trkpt>
      <trkpt lat="43.031229999999624" lon="-1.2935689999999982">
        <ele>1355.813</ele>
        <time>2022-08-24T10:32:15Z</time>
      </trkpt>
      <trkpt lat="43.03117199999962" lon="-1.2936169999999982">
        <ele>1356.214</ele>
        <time>2022-08-24T10:32:20Z</time>
      </trkpt>
      <trkpt lat="43.03116099999962" lon="-1.2936279999999982">
        <ele>1356.409</ele>
        <time>2022-08-24T10:32:21Z</time>
      </trkpt>
      <trkpt lat="43.03114099999962" lon="-1.2936509999999983">
        <ele>1356.488</ele>
        <time>2022-08-24T10:32:23Z</time>
      </trkpt>
      <trkpt lat="43.03105499999962" lon="-1.2937449999999984">
        <ele>1357.288</ele>
        <time>2022-08-24T10:32:31Z</time>
      </trkpt>
      <trkpt lat="43.03101599999962" lon="-1.2937869999999985">
        <ele>1357.478</ele>
        <time>2022-08-24T10:32:33Z</time>
      </trkpt>
      <trkpt lat="43.03096799999962" lon="-1.2938479999999986">
        <ele>1357.684</ele>
        <time>2022-08-24T10:32:36Z</time>
      </trkpt>
      <trkpt lat="43.030954999999615" lon="-1.2938689999999986">
        <ele>1357.646</ele>
        <time>2022-08-24T10:32:37Z</time>
      </trkpt>
      <trkpt lat="43.030940999999615" lon="-1.2938949999999987">
        <ele>1357.883</ele>
        <time>2022-08-24T10:32:38Z</time>
      </trkpt>
      <trkpt lat="43.03092899999962" lon="-1.2939159999999987">
        <ele>1358.076</ele>
        <time>2022-08-24T10:32:39Z</time>
      </trkpt>
      <trkpt lat="43.03091399999962" lon="-1.2939349999999987">
        <ele>1358.050</ele>
        <time>2022-08-24T10:32:40Z</time>
      </trkpt>
      <trkpt lat="43.03090199999962" lon="-1.2939499999999988">
        <ele>1358.269</ele>
        <time>2022-08-24T10:32:41Z</time>
      </trkpt>
      <trkpt lat="43.030869999999624" lon="-1.294026999999999">
        <ele>1358.432</ele>
        <time>2022-08-24T10:32:44Z</time>
      </trkpt>
      <trkpt lat="43.030854999999626" lon="-1.294076999999999">
        <ele>1358.492</ele>
        <time>2022-08-24T10:32:46Z</time>
      </trkpt>
      <trkpt lat="43.03083199999963" lon="-1.294238999999999">
        <ele>1359.011</ele>
        <time>2022-08-24T10:32:51Z</time>
      </trkpt>
      <trkpt lat="43.030829999999625" lon="-1.294278999999999">
        <ele>1359.409</ele>
        <time>2022-08-24T10:32:52Z</time>
      </trkpt>
      <trkpt lat="43.03082299999963" lon="-1.294354999999999">
        <ele>1359.664</ele>
        <time>2022-08-24T10:32:54Z</time>
      </trkpt>
      <trkpt lat="43.03081799999963" lon="-1.294385999999999">
        <ele>1359.654</ele>
        <time>2022-08-24T10:32:55Z</time>
      </trkpt>
      <trkpt lat="43.03081399999963" lon="-1.294417999999999">
        <ele>1359.694</ele>
        <time>2022-08-24T10:32:56Z</time>
      </trkpt>
      <trkpt lat="43.03081099999963" lon="-1.294447999999999">
        <ele>1359.630</ele>
        <time>2022-08-24T10:32:57Z</time>
      </trkpt>
      <trkpt lat="43.03080899999963" lon="-1.2944729999999989">
        <ele>1359.852</ele>
        <time>2022-08-24T10:32:58Z</time>
      </trkpt>
      <trkpt lat="43.03080499999963" lon="-1.294512999999999">
        <ele>1359.859</ele>
        <time>2022-08-24T10:32:59Z</time>
      </trkpt>
      <trkpt lat="43.030800999999634" lon="-1.294544999999999">
        <ele>1359.682</ele>
        <time>2022-08-24T10:33:00Z</time>
      </trkpt>
      <trkpt lat="43.030794999999635" lon="-1.294571999999999">
        <ele>1359.656</ele>
        <time>2022-08-24T10:33:01Z</time>
      </trkpt>
      <trkpt lat="43.03079299999963" lon="-1.2945919999999989">
        <ele>1359.675</ele>
        <time>2022-08-24T10:33:02Z</time>
      </trkpt>
      <trkpt lat="43.030788999999636" lon="-1.2946139999999988">
        <ele>1359.653</ele>
        <time>2022-08-24T10:33:03Z</time>
      </trkpt>
      <trkpt lat="43.030777999999636" lon="-1.2946689999999987">
        <ele>1359.404</ele>
        <time>2022-08-24T10:33:05Z</time>
      </trkpt>
      <trkpt lat="43.03075699999964" lon="-1.2947439999999988">
        <ele>1359.414</ele>
        <time>2022-08-24T10:33:08Z</time>
      </trkpt>
      <trkpt lat="43.03074899999964" lon="-1.2947709999999988">
        <ele>1359.609</ele>
        <time>2022-08-24T10:33:09Z</time>
      </trkpt>
      <trkpt lat="43.03074199999964" lon="-1.2947949999999988">
        <ele>1359.676</ele>
        <time>2022-08-24T10:33:10Z</time>
      </trkpt>
      <trkpt lat="43.030734999999645" lon="-1.294817999999999">
        <ele>1359.676</ele>
        <time>2022-08-24T10:33:11Z</time>
      </trkpt>
      <trkpt lat="43.03073099999965" lon="-1.294838999999999">
        <ele>1359.646</ele>
        <time>2022-08-24T10:33:12Z</time>
      </trkpt>
      <trkpt lat="43.03072199999965" lon="-1.2948699999999989">
        <ele>1359.842</ele>
        <time>2022-08-24T10:33:13Z</time>
      </trkpt>
      <trkpt lat="43.030697999999646" lon="-1.2949679999999988">
        <ele>1360.094</ele>
        <time>2022-08-24T10:33:17Z</time>
      </trkpt>
      <trkpt lat="43.030695999999644" lon="-1.2949889999999988">
        <ele>1360.441</ele>
        <time>2022-08-24T10:33:18Z</time>
      </trkpt>
      <trkpt lat="43.030697999999646" lon="-1.295006999999999">
        <ele>1360.614</ele>
        <time>2022-08-24T10:33:19Z</time>
      </trkpt>
      <trkpt lat="43.03069199999965" lon="-1.295024999999999">
        <ele>1360.898</ele>
        <time>2022-08-24T10:33:20Z</time>
      </trkpt>
      <trkpt lat="43.030683999999646" lon="-1.295044999999999">
        <ele>1361.077</ele>
        <time>2022-08-24T10:33:21Z</time>
      </trkpt>
      <trkpt lat="43.03067399999964" lon="-1.295060999999999">
        <ele>1361.082</ele>
        <time>2022-08-24T10:33:22Z</time>
      </trkpt>
      <trkpt lat="43.030661999999644" lon="-1.2950809999999988">
        <ele>1361.243</ele>
        <time>2022-08-24T10:33:23Z</time>
      </trkpt>
      <trkpt lat="43.03064899999964" lon="-1.2950999999999988">
        <ele>1361.217</ele>
        <time>2022-08-24T10:33:24Z</time>
      </trkpt>
      <trkpt lat="43.03062399999964" lon="-1.2951359999999987">
        <ele>1361.409</ele>
        <time>2022-08-24T10:33:26Z</time>
      </trkpt>
      <trkpt lat="43.03060999999964" lon="-1.2951509999999988">
        <ele>1361.659</ele>
        <time>2022-08-24T10:33:27Z</time>
      </trkpt>
      <trkpt lat="43.03045499999964" lon="-1.295319999999999">
        <ele>1361.829</ele>
        <time>2022-08-24T10:33:36Z</time>
      </trkpt>
      <trkpt lat="43.03035299999964" lon="-1.295470999999999">
        <ele>1361.849</ele>
        <time>2022-08-24T10:33:42Z</time>
      </trkpt>
      <trkpt lat="43.03018799999964" lon="-1.2957529999999988">
        <ele>1361.285</ele>
        <time>2022-08-24T10:33:50Z</time>
      </trkpt>
      <trkpt lat="43.03016399999964" lon="-1.295786999999999">
        <ele>1361.097</ele>
        <time>2022-08-24T10:33:51Z</time>
      </trkpt>
      <trkpt lat="43.030121999999636" lon="-1.295851999999999">
        <ele>1361.084</ele>
        <time>2022-08-24T10:33:53Z</time>
      </trkpt>
      <trkpt lat="43.03007599999964" lon="-1.295907999999999">
        <ele>1361.037</ele>
        <time>2022-08-24T10:33:55Z</time>
      </trkpt>
      <trkpt lat="43.03005299999964" lon="-1.295933999999999">
        <ele>1361.041</ele>
        <time>2022-08-24T10:33:56Z</time>
      </trkpt>
      <trkpt lat="43.03003199999964" lon="-1.295958999999999">
        <ele>1361.090</ele>
        <time>2022-08-24T10:33:57Z</time>
      </trkpt>
      <trkpt lat="43.03001099999965" lon="-1.295980999999999">
        <ele>1361.034</ele>
        <time>2022-08-24T10:33:58Z</time>
      </trkpt>
      <trkpt lat="43.02999399999965" lon="-1.295995999999999">
        <ele>1361.055</ele>
        <time>2022-08-24T10:33:59Z</time>
      </trkpt>
      <trkpt lat="43.029971999999646" lon="-1.296017999999999">
        <ele>1361.010</ele>
        <time>2022-08-24T10:34:00Z</time>
      </trkpt>
      <trkpt lat="43.02995399999965" lon="-1.296035999999999">
        <ele>1361.009</ele>
        <time>2022-08-24T10:34:01Z</time>
      </trkpt>
      <trkpt lat="43.02993399999965" lon="-1.296047999999999">
        <ele>1361.024</ele>
        <time>2022-08-24T10:34:02Z</time>
      </trkpt>
      <trkpt lat="43.02991399999965" lon="-1.296056999999999">
        <ele>1361.294</ele>
        <time>2022-08-24T10:34:03Z</time>
      </trkpt>
      <trkpt lat="43.02989799999965" lon="-1.296066999999999">
        <ele>1361.264</ele>
        <time>2022-08-24T10:34:04Z</time>
      </trkpt>
      <trkpt lat="43.02988299999965" lon="-1.2960789999999989">
        <ele>1361.240</ele>
        <time>2022-08-24T10:34:05Z</time>
      </trkpt>
      <trkpt lat="43.02986899999965" lon="-1.2960909999999988">
        <ele>1361.492</ele>
        <time>2022-08-24T10:34:06Z</time>
      </trkpt>
      <trkpt lat="43.02985699999965" lon="-1.2961019999999988">
        <ele>1361.639</ele>
        <time>2022-08-24T10:34:07Z</time>
      </trkpt>
      <trkpt lat="43.02984299999965" lon="-1.2961109999999987">
        <ele>1361.872</ele>
        <time>2022-08-24T10:34:08Z</time>
      </trkpt>
      <trkpt lat="43.02982899999965" lon="-1.2961229999999986">
        <ele>1362.046</ele>
        <time>2022-08-24T10:34:09Z</time>
      </trkpt>
      <trkpt lat="43.02981699999965" lon="-1.2961339999999986">
        <ele>1362.035</ele>
        <time>2022-08-24T10:34:10Z</time>
      </trkpt>
      <trkpt lat="43.02976099999965" lon="-1.2961559999999985">
        <ele>1362.453</ele>
        <time>2022-08-24T10:34:13Z</time>
      </trkpt>
      <trkpt lat="43.029745999999655" lon="-1.2961599999999984">
        <ele>1362.404</ele>
        <time>2022-08-24T10:34:14Z</time>
      </trkpt>
      <trkpt lat="43.02973299999965" lon="-1.2961619999999985">
        <ele>1362.814</ele>
        <time>2022-08-24T10:34:15Z</time>
      </trkpt>
      <trkpt lat="43.029717999999654" lon="-1.2961639999999985">
        <ele>1363.009</ele>
        <time>2022-08-24T10:34:16Z</time>
      </trkpt>
      <trkpt lat="43.029703999999654" lon="-1.2961659999999986">
        <ele>1363.046</ele>
        <time>2022-08-24T10:34:17Z</time>
      </trkpt>
      <trkpt lat="43.029658999999654" lon="-1.2961689999999986">
        <ele>1363.836</ele>
        <time>2022-08-24T10:34:20Z</time>
      </trkpt>
      <trkpt lat="43.029638999999655" lon="-1.2961669999999985">
        <ele>1364.066</ele>
        <time>2022-08-24T10:34:21Z</time>
      </trkpt>
      <trkpt lat="43.02962399999966" lon="-1.2961649999999985">
        <ele>1364.422</ele>
        <time>2022-08-24T10:34:22Z</time>
      </trkpt>
      <trkpt lat="43.02960999999966" lon="-1.2961659999999984">
        <ele>1364.814</ele>
        <time>2022-08-24T10:34:23Z</time>
      </trkpt>
      <trkpt lat="43.02959599999966" lon="-1.2961669999999983">
        <ele>1364.811</ele>
        <time>2022-08-24T10:34:24Z</time>
      </trkpt>
      <trkpt lat="43.02958199999966" lon="-1.2961699999999983">
        <ele>1365.024</ele>
        <time>2022-08-24T10:34:25Z</time>
      </trkpt>
      <trkpt lat="43.02956699999966" lon="-1.2961719999999983">
        <ele>1365.228</ele>
        <time>2022-08-24T10:34:26Z</time>
      </trkpt>
      <trkpt lat="43.029553999999656" lon="-1.2961749999999983">
        <ele>1365.477</ele>
        <time>2022-08-24T10:34:27Z</time>
      </trkpt>
      <trkpt lat="43.029539999999656" lon="-1.2961759999999982">
        <ele>1365.647</ele>
        <time>2022-08-24T10:34:28Z</time>
      </trkpt>
      <trkpt lat="43.029523999999654" lon="-1.2961709999999982">
        <ele>1365.829</ele>
        <time>2022-08-24T10:34:29Z</time>
      </trkpt>
      <trkpt lat="43.029509999999654" lon="-1.2961709999999982">
        <ele>1366.021</ele>
        <time>2022-08-24T10:34:30Z</time>
      </trkpt>
      <trkpt lat="43.029494999999656" lon="-1.2961709999999982">
        <ele>1366.009</ele>
        <time>2022-08-24T10:34:31Z</time>
      </trkpt>
      <trkpt lat="43.02947999999966" lon="-1.2961699999999983">
        <ele>1366.295</ele>
        <time>2022-08-24T10:34:32Z</time>
      </trkpt>
      <trkpt lat="43.029469999999655" lon="-1.2961699999999983">
        <ele>1366.475</ele>
        <time>2022-08-24T10:34:33Z</time>
      </trkpt>
      <trkpt lat="43.029455999999655" lon="-1.2961699999999983">
        <ele>1366.685</ele>
        <time>2022-08-24T10:34:34Z</time>
      </trkpt>
      <trkpt lat="43.02943799999966" lon="-1.2961709999999982">
        <ele>1366.611</ele>
        <time>2022-08-24T10:34:35Z</time>
      </trkpt>
      <trkpt lat="43.02942399999966" lon="-1.296174999999998">
        <ele>1366.623</ele>
        <time>2022-08-24T10:34:36Z</time>
      </trkpt>
      <trkpt lat="43.029410999999655" lon="-1.296177999999998">
        <ele>1366.840</ele>
        <time>2022-08-24T10:34:37Z</time>
      </trkpt>
      <trkpt lat="43.029399999999654" lon="-1.296180999999998">
        <ele>1366.823</ele>
        <time>2022-08-24T10:34:38Z</time>
      </trkpt>
      <trkpt lat="43.029390999999656" lon="-1.296184999999998">
        <ele>1366.857</ele>
        <time>2022-08-24T10:34:39Z</time>
      </trkpt>
      <trkpt lat="43.02938099999965" lon="-1.2961889999999978">
        <ele>1366.846</ele>
        <time>2022-08-24T10:34:40Z</time>
      </trkpt>
      <trkpt lat="43.029368999999654" lon="-1.2961909999999979">
        <ele>1367.049</ele>
        <time>2022-08-24T10:34:41Z</time>
      </trkpt>
      <trkpt lat="43.02935599999965" lon="-1.2961889999999978">
        <ele>1367.202</ele>
        <time>2022-08-24T10:34:42Z</time>
      </trkpt>
      <trkpt lat="43.02934299999965" lon="-1.2961869999999978">
        <ele>1367.422</ele>
        <time>2022-08-24T10:34:43Z</time>
      </trkpt>
      <trkpt lat="43.02932799999965" lon="-1.2961869999999978">
        <ele>1367.409</ele>
        <time>2022-08-24T10:34:44Z</time>
      </trkpt>
      <trkpt lat="43.02931399999965" lon="-1.2961889999999978">
        <ele>1367.445</ele>
        <time>2022-08-24T10:34:45Z</time>
      </trkpt>
      <trkpt lat="43.02930199999965" lon="-1.2961919999999978">
        <ele>1367.695</ele>
        <time>2022-08-24T10:34:46Z</time>
      </trkpt>
      <trkpt lat="43.02928899999965" lon="-1.2961979999999977">
        <ele>1367.655</ele>
        <time>2022-08-24T10:34:47Z</time>
      </trkpt>
      <trkpt lat="43.02927299999965" lon="-1.2961969999999978">
        <ele>1367.671</ele>
        <time>2022-08-24T10:34:48Z</time>
      </trkpt>
      <trkpt lat="43.02925899999965" lon="-1.2961919999999978">
        <ele>1367.843</ele>
        <time>2022-08-24T10:34:49Z</time>
      </trkpt>
      <trkpt lat="43.02924799999965" lon="-1.296187999999998">
        <ele>1367.870</ele>
        <time>2022-08-24T10:34:50Z</time>
      </trkpt>
      <trkpt lat="43.02923699999965" lon="-1.296186999999998">
        <ele>1368.033</ele>
        <time>2022-08-24T10:34:51Z</time>
      </trkpt>
      <trkpt lat="43.02921899999965" lon="-1.296186999999998">
        <ele>1368.087</ele>
        <time>2022-08-24T10:34:52Z</time>
      </trkpt>
      <trkpt lat="43.02920399999965" lon="-1.296186999999998">
        <ele>1368.296</ele>
        <time>2022-08-24T10:34:53Z</time>
      </trkpt>
      <trkpt lat="43.029188999999654" lon="-1.296181999999998">
        <ele>1368.225</ele>
        <time>2022-08-24T10:34:54Z</time>
      </trkpt>
      <trkpt lat="43.02917399999966" lon="-1.296180999999998">
        <ele>1368.426</ele>
        <time>2022-08-24T10:34:55Z</time>
      </trkpt>
      <trkpt lat="43.029157999999654" lon="-1.2961799999999981">
        <ele>1368.608</ele>
        <time>2022-08-24T10:34:56Z</time>
      </trkpt>
      <trkpt lat="43.02914199999965" lon="-1.2961769999999981">
        <ele>1368.809</ele>
        <time>2022-08-24T10:34:57Z</time>
      </trkpt>
      <trkpt lat="43.029126999999654" lon="-1.2961759999999982">
        <ele>1368.863</ele>
        <time>2022-08-24T10:34:58Z</time>
      </trkpt>
      <trkpt lat="43.02910899999966" lon="-1.2961709999999982">
        <ele>1368.863</ele>
        <time>2022-08-24T10:34:59Z</time>
      </trkpt>
      <trkpt lat="43.02909799999966" lon="-1.2961669999999983">
        <ele>1369.073</ele>
        <time>2022-08-24T10:35:00Z</time>
      </trkpt>
      <trkpt lat="43.02908099999966" lon="-1.2961609999999983">
        <ele>1369.039</ele>
        <time>2022-08-24T10:35:01Z</time>
      </trkpt>
      <trkpt lat="43.029064999999655" lon="-1.2961589999999983">
        <ele>1369.251</ele>
        <time>2022-08-24T10:35:02Z</time>
      </trkpt>
      <trkpt lat="43.02904899999965" lon="-1.2961529999999983">
        <ele>1369.258</ele>
        <time>2022-08-24T10:35:03Z</time>
      </trkpt>
      <trkpt lat="43.029036999999654" lon="-1.2961459999999982">
        <ele>1369.271</ele>
        <time>2022-08-24T10:35:04Z</time>
      </trkpt>
      <trkpt lat="43.02902099999965" lon="-1.2961389999999982">
        <ele>1369.255</ele>
        <time>2022-08-24T10:35:05Z</time>
      </trkpt>
      <trkpt lat="43.02900499999965" lon="-1.2961349999999983">
        <ele>1369.434</ele>
        <time>2022-08-24T10:35:06Z</time>
      </trkpt>
      <trkpt lat="43.02898199999965" lon="-1.2961299999999982">
        <ele>1369.488</ele>
        <time>2022-08-24T10:35:07Z</time>
      </trkpt>
      <trkpt lat="43.028963999999654" lon="-1.2961249999999982">
        <ele>1369.424</ele>
        <time>2022-08-24T10:35:08Z</time>
      </trkpt>
      <trkpt lat="43.02894799999965" lon="-1.2961219999999982">
        <ele>1369.426</ele>
        <time>2022-08-24T10:35:09Z</time>
      </trkpt>
      <trkpt lat="43.02892799999965" lon="-1.2961189999999982">
        <ele>1369.409</ele>
        <time>2022-08-24T10:35:10Z</time>
      </trkpt>
      <trkpt lat="43.02891099999965" lon="-1.2961149999999984">
        <ele>1369.439</ele>
        <time>2022-08-24T10:35:11Z</time>
      </trkpt>
      <trkpt lat="43.02888899999965" lon="-1.2961079999999983">
        <ele>1369.449</ele>
        <time>2022-08-24T10:35:12Z</time>
      </trkpt>
      <trkpt lat="43.02886999999965" lon="-1.2961029999999982">
        <ele>1369.459</ele>
        <time>2022-08-24T10:35:13Z</time>
      </trkpt>
      <trkpt lat="43.02885299999965" lon="-1.2960979999999982">
        <ele>1369.425</ele>
        <time>2022-08-24T10:35:14Z</time>
      </trkpt>
      <trkpt lat="43.02883899999965" lon="-1.2960949999999982">
        <ele>1369.427</ele>
        <time>2022-08-24T10:35:15Z</time>
      </trkpt>
      <trkpt lat="43.02878099999965" lon="-1.2960749999999983">
        <ele>1369.634</ele>
        <time>2022-08-24T10:35:18Z</time>
      </trkpt>
      <trkpt lat="43.02876299999965" lon="-1.2960699999999983">
        <ele>1369.657</ele>
        <time>2022-08-24T10:35:19Z</time>
      </trkpt>
      <trkpt lat="43.02871299999965" lon="-1.2960519999999982">
        <ele>1370.011</ele>
        <time>2022-08-24T10:35:22Z</time>
      </trkpt>
      <trkpt lat="43.028696999999646" lon="-1.2960459999999983">
        <ele>1370.020</ele>
        <time>2022-08-24T10:35:23Z</time>
      </trkpt>
      <trkpt lat="43.028660999999644" lon="-1.2960339999999984">
        <ele>1370.255</ele>
        <time>2022-08-24T10:35:25Z</time>
      </trkpt>
      <trkpt lat="43.02863999999965" lon="-1.2960259999999983">
        <ele>1370.407</ele>
        <time>2022-08-24T10:35:26Z</time>
      </trkpt>
      <trkpt lat="43.02850699999965" lon="-1.2959719999999983">
        <ele>1370.817</ele>
        <time>2022-08-24T10:35:33Z</time>
      </trkpt>
      <trkpt lat="43.02848699999965" lon="-1.2959619999999983">
        <ele>1370.609</ele>
        <time>2022-08-24T10:35:34Z</time>
      </trkpt>
      <trkpt lat="43.02827599999965" lon="-1.2958879999999984">
        <ele>1370.826</ele>
        <time>2022-08-24T10:35:42Z</time>
      </trkpt>
      <trkpt lat="43.02824999999965" lon="-1.2958769999999984">
        <ele>1370.836</ele>
        <time>2022-08-24T10:35:43Z</time>
      </trkpt>
      <trkpt lat="43.02822599999965" lon="-1.2958629999999984">
        <ele>1370.896</ele>
        <time>2022-08-24T10:35:44Z</time>
      </trkpt>
      <trkpt lat="43.02820099999965" lon="-1.2958499999999984">
        <ele>1370.842</ele>
        <time>2022-08-24T10:35:45Z</time>
      </trkpt>
      <trkpt lat="43.02817499999965" lon="-1.2958379999999985">
        <ele>1370.864</ele>
        <time>2022-08-24T10:35:46Z</time>
      </trkpt>
      <trkpt lat="43.02814999999965" lon="-1.2958269999999985">
        <ele>1371.081</ele>
        <time>2022-08-24T10:35:47Z</time>
      </trkpt>
      <trkpt lat="43.028125999999645" lon="-1.2958179999999986">
        <ele>1370.844</ele>
        <time>2022-08-24T10:35:48Z</time>
      </trkpt>
      <trkpt lat="43.027965999999644" lon="-1.2957299999999985">
        <ele>1370.848</ele>
        <time>2022-08-24T10:35:54Z</time>
      </trkpt>
      <trkpt lat="43.02791299999964" lon="-1.2957009999999984">
        <ele>1370.477</ele>
        <time>2022-08-24T10:35:56Z</time>
      </trkpt>
      <trkpt lat="43.02788799999964" lon="-1.2956889999999985">
        <ele>1370.416</ele>
        <time>2022-08-24T10:35:57Z</time>
      </trkpt>
      <trkpt lat="43.02786499999964" lon="-1.2956759999999985">
        <ele>1370.476</ele>
        <time>2022-08-24T10:35:58Z</time>
      </trkpt>
      <trkpt lat="43.02783999999964" lon="-1.2956649999999985">
        <ele>1370.213</ele>
        <time>2022-08-24T10:35:59Z</time>
      </trkpt>
      <trkpt lat="43.02776799999964" lon="-1.2956319999999986">
        <ele>1370.009</ele>
        <time>2022-08-24T10:36:02Z</time>
      </trkpt>
      <trkpt lat="43.02773999999964" lon="-1.2956199999999987">
        <ele>1370.032</ele>
        <time>2022-08-24T10:36:03Z</time>
      </trkpt>
      <trkpt lat="43.02771799999964" lon="-1.2956129999999986">
        <ele>1369.852</ele>
        <time>2022-08-24T10:36:04Z</time>
      </trkpt>
      <trkpt lat="43.02769799999964" lon="-1.2956049999999986">
        <ele>1369.832</ele>
        <time>2022-08-24T10:36:05Z</time>
      </trkpt>
      <trkpt lat="43.02768299999964" lon="-1.2955989999999986">
        <ele>1369.838</ele>
        <time>2022-08-24T10:36:06Z</time>
      </trkpt>
      <trkpt lat="43.027664999999644" lon="-1.2955919999999985">
        <ele>1369.850</ele>
        <time>2022-08-24T10:36:07Z</time>
      </trkpt>
      <trkpt lat="43.02764399999965" lon="-1.2955839999999985">
        <ele>1369.817</ele>
        <time>2022-08-24T10:36:08Z</time>
      </trkpt>
      <trkpt lat="43.02762399999965" lon="-1.2955769999999984">
        <ele>1369.880</ele>
        <time>2022-08-24T10:36:09Z</time>
      </trkpt>
      <trkpt lat="43.02760599999965" lon="-1.2955689999999984">
        <ele>1369.824</ele>
        <time>2022-08-24T10:36:10Z</time>
      </trkpt>
      <trkpt lat="43.02759199999965" lon="-1.2955649999999985">
        <ele>1369.823</ele>
        <time>2022-08-24T10:36:11Z</time>
      </trkpt>
      <trkpt lat="43.02757499999965" lon="-1.2955569999999985">
        <ele>1370.086</ele>
        <time>2022-08-24T10:36:12Z</time>
      </trkpt>
      <trkpt lat="43.027553999999654" lon="-1.2955479999999986">
        <ele>1370.060</ele>
        <time>2022-08-24T10:36:13Z</time>
      </trkpt>
      <trkpt lat="43.02753799999965" lon="-1.2955429999999986">
        <ele>1370.226</ele>
        <time>2022-08-24T10:36:14Z</time>
      </trkpt>
      <trkpt lat="43.02752499999965" lon="-1.2955409999999985">
        <ele>1370.209</ele>
        <time>2022-08-24T10:36:15Z</time>
      </trkpt>
      <trkpt lat="43.02751699999965" lon="-1.2955369999999986">
        <ele>1370.279</ele>
        <time>2022-08-24T10:36:16Z</time>
      </trkpt>
      <trkpt lat="43.02750599999965" lon="-1.2955309999999987">
        <ele>1370.249</ele>
        <time>2022-08-24T10:36:17Z</time>
      </trkpt>
      <trkpt lat="43.02749399999965" lon="-1.2955239999999986">
        <ele>1370.249</ele>
        <time>2022-08-24T10:36:18Z</time>
      </trkpt>
      <trkpt lat="43.027466999999646" lon="-1.2955039999999987">
        <ele>1370.225</ele>
        <time>2022-08-24T10:36:20Z</time>
      </trkpt>
      <trkpt lat="43.02741199999964" lon="-1.2954949999999987">
        <ele>1370.277</ele>
        <time>2022-08-24T10:36:23Z</time>
      </trkpt>
      <trkpt lat="43.027329999999644" lon="-1.2954719999999986">
        <ele>1370.454</ele>
        <time>2022-08-24T10:36:27Z</time>
      </trkpt>
      <trkpt lat="43.027272999999646" lon="-1.2954609999999986">
        <ele>1370.477</ele>
        <time>2022-08-24T10:36:29Z</time>
      </trkpt>
      <trkpt lat="43.02725299999965" lon="-1.2954569999999987">
        <ele>1370.431</ele>
        <time>2022-08-24T10:36:30Z</time>
      </trkpt>
      <trkpt lat="43.027238999999646" lon="-1.2954519999999987">
        <ele>1370.680</ele>
        <time>2022-08-24T10:36:31Z</time>
      </trkpt>
      <trkpt lat="43.02721499999964" lon="-1.2954429999999988">
        <ele>1370.832</ele>
        <time>2022-08-24T10:36:32Z</time>
      </trkpt>
      <trkpt lat="43.027196999999646" lon="-1.295438999999999">
        <ele>1371.092</ele>
        <time>2022-08-24T10:36:33Z</time>
      </trkpt>
      <trkpt lat="43.02717699999965" lon="-1.2954339999999989">
        <ele>1371.011</ele>
        <time>2022-08-24T10:36:34Z</time>
      </trkpt>
      <trkpt lat="43.02715899999965" lon="-1.2954259999999989">
        <ele>1371.009</ele>
        <time>2022-08-24T10:36:35Z</time>
      </trkpt>
      <trkpt lat="43.02714199999965" lon="-1.295416999999999">
        <ele>1371.064</ele>
        <time>2022-08-24T10:36:36Z</time>
      </trkpt>
      <trkpt lat="43.02712799999965" lon="-1.295407999999999">
        <ele>1371.484</ele>
        <time>2022-08-24T10:36:37Z</time>
      </trkpt>
      <trkpt lat="43.02711299999965" lon="-1.295399999999999">
        <ele>1371.864</ele>
        <time>2022-08-24T10:36:38Z</time>
      </trkpt>
      <trkpt lat="43.02709699999965" lon="-1.295390999999999">
        <ele>1371.830</ele>
        <time>2022-08-24T10:36:39Z</time>
      </trkpt>
      <trkpt lat="43.02708399999965" lon="-1.295388999999999">
        <ele>1372.072</ele>
        <time>2022-08-24T10:36:40Z</time>
      </trkpt>
      <trkpt lat="43.027070999999644" lon="-1.295385999999999">
        <ele>1372.039</ele>
        <time>2022-08-24T10:36:41Z</time>
      </trkpt>
      <trkpt lat="43.02706099999964" lon="-1.2953849999999991">
        <ele>1372.292</ele>
        <time>2022-08-24T10:36:42Z</time>
      </trkpt>
      <trkpt lat="43.02704599999964" lon="-1.2953849999999991">
        <ele>1372.256</ele>
        <time>2022-08-24T10:36:43Z</time>
      </trkpt>
      <trkpt lat="43.027028999999644" lon="-1.2953789999999992">
        <ele>1372.225</ele>
        <time>2022-08-24T10:36:44Z</time>
      </trkpt>
      <trkpt lat="43.027013999999646" lon="-1.295368999999999">
        <ele>1372.426</ele>
        <time>2022-08-24T10:36:45Z</time>
      </trkpt>
      <trkpt lat="43.026999999999646" lon="-1.295363999999999">
        <ele>1372.447</ele>
        <time>2022-08-24T10:36:46Z</time>
      </trkpt>
      <trkpt lat="43.026971999999645" lon="-1.2953659999999991">
        <ele>1372.611</ele>
        <time>2022-08-24T10:36:48Z</time>
      </trkpt>
      <trkpt lat="43.02695399999965" lon="-1.295368999999999">
        <ele>1372.809</ele>
        <time>2022-08-24T10:36:49Z</time>
      </trkpt>
      <trkpt lat="43.02693899999965" lon="-1.2953679999999992">
        <ele>1373.053</ele>
        <time>2022-08-24T10:36:50Z</time>
      </trkpt>
      <trkpt lat="43.02692299999965" lon="-1.2953649999999992">
        <ele>1373.253</ele>
        <time>2022-08-24T10:36:51Z</time>
      </trkpt>
      <trkpt lat="43.02687799999965" lon="-1.2953559999999993">
        <ele>1373.673</ele>
        <time>2022-08-24T10:36:54Z</time>
      </trkpt>
      <trkpt lat="43.02686399999965" lon="-1.2953519999999994">
        <ele>1373.619</ele>
        <time>2022-08-24T10:36:55Z</time>
      </trkpt>
      <trkpt lat="43.02684999999965" lon="-1.2953489999999994">
        <ele>1374.041</ele>
        <time>2022-08-24T10:36:56Z</time>
      </trkpt>
      <trkpt lat="43.02683499999965" lon="-1.2953469999999994">
        <ele>1374.248</ele>
        <time>2022-08-24T10:36:57Z</time>
      </trkpt>
      <trkpt lat="43.02682399999965" lon="-1.2953469999999994">
        <ele>1374.231</ele>
        <time>2022-08-24T10:36:58Z</time>
      </trkpt>
      <trkpt lat="43.02680599999965" lon="-1.2953479999999993">
        <ele>1374.485</ele>
        <time>2022-08-24T10:36:59Z</time>
      </trkpt>
      <trkpt lat="43.026790999999655" lon="-1.2953469999999994">
        <ele>1374.464</ele>
        <time>2022-08-24T10:37:00Z</time>
      </trkpt>
      <trkpt lat="43.02677799999965" lon="-1.2953449999999993">
        <ele>1374.621</ele>
        <time>2022-08-24T10:37:01Z</time>
      </trkpt>
      <trkpt lat="43.02676499999965" lon="-1.2953439999999994">
        <ele>1374.641</ele>
        <time>2022-08-24T10:37:02Z</time>
      </trkpt>
      <trkpt lat="43.02675199999965" lon="-1.2953449999999993">
        <ele>1374.605</ele>
        <time>2022-08-24T10:37:03Z</time>
      </trkpt>
      <trkpt lat="43.026738999999644" lon="-1.2953439999999994">
        <ele>1374.809</ele>
        <time>2022-08-24T10:37:04Z</time>
      </trkpt>
      <trkpt lat="43.02672599999964" lon="-1.2953409999999994">
        <ele>1375.083</ele>
        <time>2022-08-24T10:37:05Z</time>
      </trkpt>
      <trkpt lat="43.02671099999964" lon="-1.2953379999999994">
        <ele>1375.463</ele>
        <time>2022-08-24T10:37:06Z</time>
      </trkpt>
      <trkpt lat="43.026698999999645" lon="-1.2953309999999993">
        <ele>1375.493</ele>
        <time>2022-08-24T10:37:07Z</time>
      </trkpt>
      <trkpt lat="43.02668299999964" lon="-1.2953299999999994">
        <ele>1375.639</ele>
        <time>2022-08-24T10:37:08Z</time>
      </trkpt>
      <trkpt lat="43.02666999999964" lon="-1.2953299999999994">
        <ele>1375.851</ele>
        <time>2022-08-24T10:37:09Z</time>
      </trkpt>
      <trkpt lat="43.02665899999964" lon="-1.2953299999999994">
        <ele>1376.088</ele>
        <time>2022-08-24T10:37:10Z</time>
      </trkpt>
      <trkpt lat="43.02664699999964" lon="-1.2953289999999995">
        <ele>1376.061</ele>
        <time>2022-08-24T10:37:11Z</time>
      </trkpt>
      <trkpt lat="43.02663299999964" lon="-1.2953289999999995">
        <ele>1376.085</ele>
        <time>2022-08-24T10:37:12Z</time>
      </trkpt>
      <trkpt lat="43.02662399999964" lon="-1.2953279999999996">
        <ele>1376.254</ele>
        <time>2022-08-24T10:37:13Z</time>
      </trkpt>
      <trkpt lat="43.02661299999964" lon="-1.2953279999999996">
        <ele>1376.483</ele>
        <time>2022-08-24T10:37:14Z</time>
      </trkpt>
      <trkpt lat="43.026597999999645" lon="-1.2953289999999995">
        <ele>1376.625</ele>
        <time>2022-08-24T10:37:15Z</time>
      </trkpt>
      <trkpt lat="43.02658499999964" lon="-1.2953279999999996">
        <ele>1377.017</ele>
        <time>2022-08-24T10:37:16Z</time>
      </trkpt>
      <trkpt lat="43.02657399999964" lon="-1.2953269999999997">
        <ele>1377.009</ele>
        <time>2022-08-24T10:37:17Z</time>
      </trkpt>
      <trkpt lat="43.02656099999964" lon="-1.2953249999999996">
        <ele>1377.229</ele>
        <time>2022-08-24T10:37:18Z</time>
      </trkpt>
      <trkpt lat="43.026547999999636" lon="-1.2953239999999997">
        <ele>1377.259</ele>
        <time>2022-08-24T10:37:19Z</time>
      </trkpt>
      <trkpt lat="43.026533999999636" lon="-1.2953199999999998">
        <ele>1377.439</ele>
        <time>2022-08-24T10:37:20Z</time>
      </trkpt>
      <trkpt lat="43.02651899999964" lon="-1.2953179999999997">
        <ele>1377.495</ele>
        <time>2022-08-24T10:37:21Z</time>
      </trkpt>
      <trkpt lat="43.02650799999964" lon="-1.2953199999999998">
        <ele>1377.647</ele>
        <time>2022-08-24T10:37:22Z</time>
      </trkpt>
      <trkpt lat="43.026497999999634" lon="-1.2953209999999997">
        <ele>1377.624</ele>
        <time>2022-08-24T10:37:23Z</time>
      </trkpt>
      <trkpt lat="43.026486999999634" lon="-1.2953229999999998">
        <ele>1377.847</ele>
        <time>2022-08-24T10:37:24Z</time>
      </trkpt>
      <trkpt lat="43.026469999999634" lon="-1.2953289999999997">
        <ele>1378.081</ele>
        <time>2022-08-24T10:37:25Z</time>
      </trkpt>
      <trkpt lat="43.026457999999636" lon="-1.2953299999999996">
        <ele>1378.060</ele>
        <time>2022-08-24T10:37:26Z</time>
      </trkpt>
      <trkpt lat="43.02644499999963" lon="-1.2953309999999996">
        <ele>1378.247</ele>
        <time>2022-08-24T10:37:27Z</time>
      </trkpt>
      <trkpt lat="43.02643399999963" lon="-1.2953309999999996">
        <ele>1378.229</ele>
        <time>2022-08-24T10:37:28Z</time>
      </trkpt>
      <trkpt lat="43.02641999999963" lon="-1.2953359999999996">
        <ele>1378.421</ele>
        <time>2022-08-24T10:37:29Z</time>
      </trkpt>
      <trkpt lat="43.02640399999963" lon="-1.2953419999999995">
        <ele>1378.409</ele>
        <time>2022-08-24T10:37:30Z</time>
      </trkpt>
      <trkpt lat="43.02639199999963" lon="-1.2953459999999994">
        <ele>1378.695</ele>
        <time>2022-08-24T10:37:31Z</time>
      </trkpt>
      <trkpt lat="43.02637799999963" lon="-1.2953499999999993">
        <ele>1378.655</ele>
        <time>2022-08-24T10:37:32Z</time>
      </trkpt>
      <trkpt lat="43.02636799999963" lon="-1.2953529999999993">
        <ele>1378.865</ele>
        <time>2022-08-24T10:37:33Z</time>
      </trkpt>
      <trkpt lat="43.02635399999963" lon="-1.2953589999999993">
        <ele>1378.651</ele>
        <time>2022-08-24T10:37:34Z</time>
      </trkpt>
      <trkpt lat="43.02633899999963" lon="-1.2953649999999992">
        <ele>1379.033</ele>
        <time>2022-08-24T10:37:35Z</time>
      </trkpt>
      <trkpt lat="43.02632699999963" lon="-1.2953709999999992">
        <ele>1379.050</ele>
        <time>2022-08-24T10:37:36Z</time>
      </trkpt>
      <trkpt lat="43.02631299999963" lon="-1.295374999999999">
        <ele>1379.233</ele>
        <time>2022-08-24T10:37:37Z</time>
      </trkpt>
      <trkpt lat="43.026300999999634" lon="-1.295378999999999">
        <ele>1379.477</ele>
        <time>2022-08-24T10:37:38Z</time>
      </trkpt>
      <trkpt lat="43.02628799999963" lon="-1.295384999999999">
        <ele>1379.656</ele>
        <time>2022-08-24T10:37:39Z</time>
      </trkpt>
      <trkpt lat="43.02627699999963" lon="-1.295391999999999">
        <ele>1380.083</ele>
        <time>2022-08-24T10:37:40Z</time>
      </trkpt>
      <trkpt lat="43.02626299999963" lon="-1.295399999999999">
        <ele>1380.225</ele>
        <time>2022-08-24T10:37:41Z</time>
      </trkpt>
      <trkpt lat="43.02625499999963" lon="-1.295404999999999">
        <ele>1380.217</ele>
        <time>2022-08-24T10:37:42Z</time>
      </trkpt>
      <trkpt lat="43.026244999999626" lon="-1.295408999999999">
        <ele>1380.409</ele>
        <time>2022-08-24T10:37:43Z</time>
      </trkpt>
      <trkpt lat="43.02623299999963" lon="-1.295411999999999">
        <ele>1380.679</ele>
        <time>2022-08-24T10:37:44Z</time>
      </trkpt>
      <trkpt lat="43.026222999999625" lon="-1.295419999999999">
        <ele>1380.649</ele>
        <time>2022-08-24T10:37:45Z</time>
      </trkpt>
      <trkpt lat="43.02620999999962" lon="-1.295437999999999">
        <ele>1380.869</ele>
        <time>2022-08-24T10:37:46Z</time>
      </trkpt>
      <trkpt lat="43.026202999999626" lon="-1.295453999999999">
        <ele>1380.845</ele>
        <time>2022-08-24T10:37:47Z</time>
      </trkpt>
      <trkpt lat="43.02619599999963" lon="-1.295468999999999">
        <ele>1381.047</ele>
        <time>2022-08-24T10:37:48Z</time>
      </trkpt>
      <trkpt lat="43.02618399999963" lon="-1.295484999999999">
        <ele>1381.254</ele>
        <time>2022-08-24T10:37:49Z</time>
      </trkpt>
      <trkpt lat="43.02616799999963" lon="-1.2954999999999992">
        <ele>1381.237</ele>
        <time>2022-08-24T10:37:50Z</time>
      </trkpt>
      <trkpt lat="43.02615299999963" lon="-1.2955219999999992">
        <ele>1381.251</ele>
        <time>2022-08-24T10:37:51Z</time>
      </trkpt>
      <trkpt lat="43.02614399999963" lon="-1.2955439999999991">
        <ele>1381.230</ele>
        <time>2022-08-24T10:37:52Z</time>
      </trkpt>
      <trkpt lat="43.02613899999963" lon="-1.2955649999999992">
        <ele>1381.278</ele>
        <time>2022-08-24T10:37:53Z</time>
      </trkpt>
      <trkpt lat="43.026134999999634" lon="-1.2955809999999992">
        <ele>1381.233</ele>
        <time>2022-08-24T10:37:54Z</time>
      </trkpt>
      <trkpt lat="43.02613299999963" lon="-1.2956019999999993">
        <ele>1381.226</ele>
        <time>2022-08-24T10:37:55Z</time>
      </trkpt>
      <trkpt lat="43.026128999999635" lon="-1.2956209999999992">
        <ele>1381.009</ele>
        <time>2022-08-24T10:37:56Z</time>
      </trkpt>
      <trkpt lat="43.026125999999635" lon="-1.2956279999999993">
        <ele>1380.878</ele>
        <time>2022-08-24T10:37:57Z</time>
      </trkpt>
      <trkpt lat="43.02612399999963" lon="-1.2956319999999992">
        <ele>1380.068</ele>
        <time>2022-08-24T10:43:12Z</time>
      </trkpt>
      <trkpt lat="43.026119999999636" lon="-1.2956309999999993">
        <ele>1380.018</ele>
        <time>2022-08-24T10:43:13Z</time>
      </trkpt>
      <trkpt lat="43.02599599999964" lon="-1.2956399999999992">
        <ele>1379.824</ele>
        <time>2022-08-24T10:43:17Z</time>
      </trkpt>
      <trkpt lat="43.02593399999964" lon="-1.2956949999999992">
        <ele>1379.486</ele>
        <time>2022-08-24T10:43:19Z</time>
      </trkpt>
      <trkpt lat="43.025906999999634" lon="-1.2957239999999992">
        <ele>1379.283</ele>
        <time>2022-08-24T10:43:20Z</time>
      </trkpt>
      <trkpt lat="43.02588199999963" lon="-1.2957509999999992">
        <ele>1379.056</ele>
        <time>2022-08-24T10:43:21Z</time>
      </trkpt>
      <trkpt lat="43.02585999999963" lon="-1.2957749999999992">
        <ele>1378.880</ele>
        <time>2022-08-24T10:43:22Z</time>
      </trkpt>
      <trkpt lat="43.02584299999963" lon="-1.2957999999999992">
        <ele>1378.639</ele>
        <time>2022-08-24T10:43:23Z</time>
      </trkpt>
      <trkpt lat="43.025824999999635" lon="-1.2958259999999993">
        <ele>1378.241</ele>
        <time>2022-08-24T10:43:24Z</time>
      </trkpt>
      <trkpt lat="43.02578699999963" lon="-1.2958749999999992">
        <ele>1377.481</ele>
        <time>2022-08-24T10:43:26Z</time>
      </trkpt>
      <trkpt lat="43.02574499999963" lon="-1.2959209999999992">
        <ele>1376.609</ele>
        <time>2022-08-24T10:43:28Z</time>
      </trkpt>
      <trkpt lat="43.02572599999963" lon="-1.2959429999999992">
        <ele>1376.209</ele>
        <time>2022-08-24T10:43:29Z</time>
      </trkpt>
      <trkpt lat="43.02570499999963" lon="-1.2959639999999992">
        <ele>1376.045</ele>
        <time>2022-08-24T10:43:30Z</time>
      </trkpt>
      <trkpt lat="43.025658999999635" lon="-1.2960039999999993">
        <ele>1375.295</ele>
        <time>2022-08-24T10:43:32Z</time>
      </trkpt>
      <trkpt lat="43.025636999999634" lon="-1.2960209999999992">
        <ele>1374.695</ele>
        <time>2022-08-24T10:43:33Z</time>
      </trkpt>
      <trkpt lat="43.02558399999963" lon="-1.2960549999999993">
        <ele>1373.861</ele>
        <time>2022-08-24T10:43:35Z</time>
      </trkpt>
      <trkpt lat="43.025531999999636" lon="-1.2960879999999992">
        <ele>1373.453</ele>
        <time>2022-08-24T10:43:37Z</time>
      </trkpt>
      <trkpt lat="43.025506999999635" lon="-1.2961049999999992">
        <ele>1372.860</ele>
        <time>2022-08-24T10:43:38Z</time>
      </trkpt>
      <trkpt lat="43.02548099999964" lon="-1.2961209999999992">
        <ele>1372.613</ele>
        <time>2022-08-24T10:43:39Z</time>
      </trkpt>
      <trkpt lat="43.02542999999964" lon="-1.2961529999999992">
        <ele>1372.497</ele>
        <time>2022-08-24T10:43:41Z</time>
      </trkpt>
      <trkpt lat="43.025405999999634" lon="-1.2961719999999992">
        <ele>1372.056</ele>
        <time>2022-08-24T10:43:42Z</time>
      </trkpt>
      <trkpt lat="43.025379999999636" lon="-1.2961889999999991">
        <ele>1371.054</ele>
        <time>2022-08-24T10:43:43Z</time>
      </trkpt>
      <trkpt lat="43.02529699999964" lon="-1.2962399999999992">
        <ele>1369.856</ele>
        <time>2022-08-24T10:43:46Z</time>
      </trkpt>
      <trkpt lat="43.02526999999964" lon="-1.2962539999999991">
        <ele>1369.411</ele>
        <time>2022-08-24T10:43:47Z</time>
      </trkpt>
      <trkpt lat="43.025244999999636" lon="-1.2962669999999992">
        <ele>1368.609</ele>
        <time>2022-08-24T10:43:48Z</time>
      </trkpt>
      <trkpt lat="43.02522399999964" lon="-1.296278999999999">
        <ele>1368.236</ele>
        <time>2022-08-24T10:43:49Z</time>
      </trkpt>
      <trkpt lat="43.02517299999964" lon="-1.296295999999999">
        <ele>1367.246</ele>
        <time>2022-08-24T10:43:51Z</time>
      </trkpt>
      <trkpt lat="43.02514799999964" lon="-1.296300999999999">
        <ele>1366.686</ele>
        <time>2022-08-24T10:43:52Z</time>
      </trkpt>
      <trkpt lat="43.02509399999964" lon="-1.296309999999999">
        <ele>1366.042</ele>
        <time>2022-08-24T10:43:54Z</time>
      </trkpt>
      <trkpt lat="43.02506499999964" lon="-1.2963109999999989">
        <ele>1365.864</ele>
        <time>2022-08-24T10:43:55Z</time>
      </trkpt>
      <trkpt lat="43.02497199999964" lon="-1.2963119999999988">
        <ele>1364.831</ele>
        <time>2022-08-24T10:43:58Z</time>
      </trkpt>
      <trkpt lat="43.02488799999964" lon="-1.2963069999999988">
        <ele>1363.624</ele>
        <time>2022-08-24T10:44:01Z</time>
      </trkpt>
      <trkpt lat="43.02486099999964" lon="-1.2963039999999988">
        <ele>1362.898</ele>
        <time>2022-08-24T10:44:02Z</time>
      </trkpt>
      <trkpt lat="43.02483599999964" lon="-1.296299999999999">
        <ele>1362.687</ele>
        <time>2022-08-24T10:44:03Z</time>
      </trkpt>
      <trkpt lat="43.02481299999964" lon="-1.296307999999999">
        <ele>1361.648</ele>
        <time>2022-08-24T10:44:04Z</time>
      </trkpt>
      <trkpt lat="43.02479499999964" lon="-1.296328999999999">
        <ele>1361.461</ele>
        <time>2022-08-24T10:44:05Z</time>
      </trkpt>
      <trkpt lat="43.02478499999964" lon="-1.296358999999999">
        <ele>1361.017</ele>
        <time>2022-08-24T10:44:06Z</time>
      </trkpt>
      <trkpt lat="43.02478799999964" lon="-1.296390999999999">
        <ele>1360.409</ele>
        <time>2022-08-24T10:44:07Z</time>
      </trkpt>
      <trkpt lat="43.024794999999635" lon="-1.296419999999999">
        <ele>1360.045</ele>
        <time>2022-08-24T10:44:08Z</time>
      </trkpt>
      <trkpt lat="43.02480999999963" lon="-1.2964429999999991">
        <ele>1359.655</ele>
        <time>2022-08-24T10:44:09Z</time>
      </trkpt>
      <trkpt lat="43.02485799999963" lon="-1.296473999999999">
        <ele>1359.075</ele>
        <time>2022-08-24T10:44:11Z</time>
      </trkpt>
      <trkpt lat="43.02491999999963" lon="-1.2964889999999991">
        <ele>1358.421</ele>
        <time>2022-08-24T10:44:13Z</time>
      </trkpt>
      <trkpt lat="43.02495499999963" lon="-1.2964939999999991">
        <ele>1358.283</ele>
        <time>2022-08-24T10:44:14Z</time>
      </trkpt>
      <trkpt lat="43.02502599999963" lon="-1.296497999999999">
        <ele>1357.850</ele>
        <time>2022-08-24T10:44:16Z</time>
      </trkpt>
      <trkpt lat="43.02506499999963" lon="-1.296501999999999">
        <ele>1357.423</ele>
        <time>2022-08-24T10:44:17Z</time>
      </trkpt>
      <trkpt lat="43.02510499999963" lon="-1.296504999999999">
        <ele>1356.867</ele>
        <time>2022-08-24T10:44:18Z</time>
      </trkpt>
      <trkpt lat="43.02531599999963" lon="-1.296514999999999">
        <ele>1355.416</ele>
        <time>2022-08-24T10:44:23Z</time>
      </trkpt>
      <trkpt lat="43.025414999999626" lon="-1.296515999999999">
        <ele>1355.256</ele>
        <time>2022-08-24T10:44:25Z</time>
      </trkpt>
      <trkpt lat="43.02545899999963" lon="-1.296517999999999">
        <ele>1355.259</ele>
        <time>2022-08-24T10:44:26Z</time>
      </trkpt>
      <trkpt lat="43.02549899999963" lon="-1.296520999999999">
        <ele>1355.214</ele>
        <time>2022-08-24T10:44:27Z</time>
      </trkpt>
      <trkpt lat="43.02553799999963" lon="-1.296523999999999">
        <ele>1355.209</ele>
        <time>2022-08-24T10:44:28Z</time>
      </trkpt>
      <trkpt lat="43.02557699999963" lon="-1.2965279999999988">
        <ele>1354.866</ele>
        <time>2022-08-24T10:44:29Z</time>
      </trkpt>
      <trkpt lat="43.02561499999963" lon="-1.2965289999999987">
        <ele>1354.826</ele>
        <time>2022-08-24T10:44:30Z</time>
      </trkpt>
      <trkpt lat="43.02565399999963" lon="-1.2965259999999987">
        <ele>1354.826</ele>
        <time>2022-08-24T10:44:31Z</time>
      </trkpt>
      <trkpt lat="43.025734999999635" lon="-1.2965159999999987">
        <ele>1354.442</ele>
        <time>2022-08-24T10:44:33Z</time>
      </trkpt>
      <trkpt lat="43.02577299999964" lon="-1.2965099999999987">
        <ele>1354.434</ele>
        <time>2022-08-24T10:44:34Z</time>
      </trkpt>
      <trkpt lat="43.02580899999964" lon="-1.2965039999999988">
        <ele>1354.441</ele>
        <time>2022-08-24T10:44:35Z</time>
      </trkpt>
      <trkpt lat="43.02584499999964" lon="-1.2965029999999989">
        <ele>1354.494</ele>
        <time>2022-08-24T10:44:36Z</time>
      </trkpt>
      <trkpt lat="43.02587699999964" lon="-1.296504999999999">
        <ele>1354.298</ele>
        <time>2022-08-24T10:44:37Z</time>
      </trkpt>
      <trkpt lat="43.02593699999964" lon="-1.296511999999999">
        <ele>1354.257</ele>
        <time>2022-08-24T10:44:39Z</time>
      </trkpt>
      <trkpt lat="43.025965999999634" lon="-1.296537999999999">
        <ele>1354.229</ele>
        <time>2022-08-24T10:44:40Z</time>
      </trkpt>
      <trkpt lat="43.02599599999964" lon="-1.296572999999999">
        <ele>1354.200</ele>
        <time>2022-08-24T10:44:41Z</time>
      </trkpt>
      <trkpt lat="43.02602399999964" lon="-1.2966099999999992">
        <ele>1354.220</ele>
        <time>2022-08-24T10:44:42Z</time>
      </trkpt>
      <trkpt lat="43.02605099999964" lon="-1.2966479999999991">
        <ele>1354.209</ele>
        <time>2022-08-24T10:44:43Z</time>
      </trkpt>
      <trkpt lat="43.02611899999964" lon="-1.296759999999999">
        <ele>1354.053</ele>
        <time>2022-08-24T10:44:46Z</time>
      </trkpt>
      <trkpt lat="43.02613599999964" lon="-1.296794999999999">
        <ele>1353.233</ele>
        <time>2022-08-24T10:44:47Z</time>
      </trkpt>
      <trkpt lat="43.026150999999636" lon="-1.296831999999999">
        <ele>1353.023</ele>
        <time>2022-08-24T10:44:48Z</time>
      </trkpt>
      <trkpt lat="43.02617299999964" lon="-1.2969099999999991">
        <ele>1352.099</ele>
        <time>2022-08-24T10:44:50Z</time>
      </trkpt>
      <trkpt lat="43.026181999999636" lon="-1.296956999999999">
        <ele>1351.861</ele>
        <time>2022-08-24T10:44:51Z</time>
      </trkpt>
      <trkpt lat="43.026195999999636" lon="-1.296996999999999">
        <ele>1351.478</ele>
        <time>2022-08-24T10:44:52Z</time>
      </trkpt>
      <trkpt lat="43.026213999999634" lon="-1.297032999999999">
        <ele>1351.261</ele>
        <time>2022-08-24T10:44:53Z</time>
      </trkpt>
      <trkpt lat="43.02623499999963" lon="-1.297079999999999">
        <ele>1350.615</ele>
        <time>2022-08-24T10:44:54Z</time>
      </trkpt>
      <trkpt lat="43.02626399999963" lon="-1.297132999999999">
        <ele>1350.484</ele>
        <time>2022-08-24T10:44:55Z</time>
      </trkpt>
      <trkpt lat="43.02632299999963" lon="-1.297241999999999">
        <ele>1349.226</ele>
        <time>2022-08-24T10:44:57Z</time>
      </trkpt>
      <trkpt lat="43.026351999999626" lon="-1.2973019999999988">
        <ele>1349.047</ele>
        <time>2022-08-24T10:44:58Z</time>
      </trkpt>
      <trkpt lat="43.026383999999624" lon="-1.2973559999999988">
        <ele>1348.411</ele>
        <time>2022-08-24T10:44:59Z</time>
      </trkpt>
      <trkpt lat="43.02641499999962" lon="-1.2974029999999988">
        <ele>1348.209</ele>
        <time>2022-08-24T10:45:00Z</time>
      </trkpt>
      <trkpt lat="43.02644599999962" lon="-1.2974549999999987">
        <ele>1347.493</ele>
        <time>2022-08-24T10:45:01Z</time>
      </trkpt>
      <trkpt lat="43.02646599999962" lon="-1.2974999999999988">
        <ele>1346.883</ele>
        <time>2022-08-24T10:45:02Z</time>
      </trkpt>
      <trkpt lat="43.02649699999962" lon="-1.2975509999999988">
        <ele>1346.623</ele>
        <time>2022-08-24T10:45:03Z</time>
      </trkpt>
      <trkpt lat="43.02651699999962" lon="-1.2975939999999988">
        <ele>1346.079</ele>
        <time>2022-08-24T10:45:04Z</time>
      </trkpt>
      <trkpt lat="43.02653499999962" lon="-1.2976229999999989">
        <ele>1345.841</ele>
        <time>2022-08-24T10:45:05Z</time>
      </trkpt>
      <trkpt lat="43.02655699999962" lon="-1.2976539999999988">
        <ele>1345.228</ele>
        <time>2022-08-24T10:45:06Z</time>
      </trkpt>
      <trkpt lat="43.02659299999962" lon="-1.2976939999999988">
        <ele>1345.071</ele>
        <time>2022-08-24T10:45:07Z</time>
      </trkpt>
      <trkpt lat="43.026622999999624" lon="-1.2977349999999988">
        <ele>1344.425</ele>
        <time>2022-08-24T10:45:08Z</time>
      </trkpt>
      <trkpt lat="43.02676199999962" lon="-1.2978819999999986">
        <ele>1343.244</ele>
        <time>2022-08-24T10:45:11Z</time>
      </trkpt>
      <trkpt lat="43.02680999999962" lon="-1.2979519999999987">
        <ele>1341.825</ele>
        <time>2022-08-24T10:45:13Z</time>
      </trkpt>
      <trkpt lat="43.02689699999962" lon="-1.2980839999999987">
        <ele>1340.426</ele>
        <time>2022-08-24T10:45:16Z</time>
      </trkpt>
      <trkpt lat="43.02692599999962" lon="-1.2981189999999987">
        <ele>1340.008</ele>
        <time>2022-08-24T10:45:17Z</time>
      </trkpt>
      <trkpt lat="43.02700699999962" lon="-1.2982099999999988">
        <ele>1339.209</ele>
        <time>2022-08-24T10:45:19Z</time>
      </trkpt>
      <trkpt lat="43.027047999999624" lon="-1.2982539999999987">
        <ele>1337.833</ele>
        <time>2022-08-24T10:45:20Z</time>
      </trkpt>
      <trkpt lat="43.02708799999962" lon="-1.2982979999999986">
        <ele>1336.853</ele>
        <time>2022-08-24T10:45:21Z</time>
      </trkpt>
      <trkpt lat="43.027117999999625" lon="-1.2983329999999986">
        <ele>1336.433</ele>
        <time>2022-08-24T10:45:22Z</time>
      </trkpt>
      <trkpt lat="43.027151999999624" lon="-1.2983759999999986">
        <ele>1335.499</ele>
        <time>2022-08-24T10:45:23Z</time>
      </trkpt>
      <trkpt lat="43.02722899999962" lon="-1.2984809999999987">
        <ele>1334.261</ele>
        <time>2022-08-24T10:45:25Z</time>
      </trkpt>
      <trkpt lat="43.027297999999625" lon="-1.2985809999999987">
        <ele>1332.628</ele>
        <time>2022-08-24T10:45:27Z</time>
      </trkpt>
      <trkpt lat="43.02733399999963" lon="-1.2986319999999987">
        <ele>1331.631</ele>
        <time>2022-08-24T10:45:28Z</time>
      </trkpt>
      <trkpt lat="43.02736499999963" lon="-1.2986829999999987">
        <ele>1331.255</ele>
        <time>2022-08-24T10:45:29Z</time>
      </trkpt>
      <trkpt lat="43.02739299999963" lon="-1.2987319999999987">
        <ele>1330.854</ele>
        <time>2022-08-24T10:45:30Z</time>
      </trkpt>
      <trkpt lat="43.02741799999963" lon="-1.2987819999999988">
        <ele>1330.227</ele>
        <time>2022-08-24T10:45:31Z</time>
      </trkpt>
      <trkpt lat="43.02743699999963" lon="-1.2988319999999989">
        <ele>1329.668</ele>
        <time>2022-08-24T10:45:32Z</time>
      </trkpt>
      <trkpt lat="43.02745399999963" lon="-1.2989479999999989">
        <ele>1329.214</ele>
        <time>2022-08-24T10:45:34Z</time>
      </trkpt>
      <trkpt lat="43.02745899999963" lon="-1.2990159999999988">
        <ele>1328.809</ele>
        <time>2022-08-24T10:45:35Z</time>
      </trkpt>
      <trkpt lat="43.027468999999634" lon="-1.2990809999999988">
        <ele>1328.663</ele>
        <time>2022-08-24T10:45:36Z</time>
      </trkpt>
      <trkpt lat="43.02747799999963" lon="-1.2991539999999988">
        <ele>1328.463</ele>
        <time>2022-08-24T10:45:37Z</time>
      </trkpt>
      <trkpt lat="43.027490999999635" lon="-1.2993059999999987">
        <ele>1327.673</ele>
        <time>2022-08-24T10:45:39Z</time>
      </trkpt>
      <trkpt lat="43.02750099999964" lon="-1.2994489999999987">
        <ele>1326.269</ele>
        <time>2022-08-24T10:45:41Z</time>
      </trkpt>
      <trkpt lat="43.02750599999964" lon="-1.2995139999999987">
        <ele>1325.621</ele>
        <time>2022-08-24T10:45:42Z</time>
      </trkpt>
      <trkpt lat="43.02751099999964" lon="-1.2995789999999987">
        <ele>1325.278</ele>
        <time>2022-08-24T10:45:43Z</time>
      </trkpt>
      <trkpt lat="43.02751599999964" lon="-1.2996429999999988">
        <ele>1324.411</ele>
        <time>2022-08-24T10:45:44Z</time>
      </trkpt>
      <trkpt lat="43.02751999999964" lon="-1.2997039999999989">
        <ele>1324.045</ele>
        <time>2022-08-24T10:45:45Z</time>
      </trkpt>
      <trkpt lat="43.02752199999964" lon="-1.299756999999999">
        <ele>1323.424</ele>
        <time>2022-08-24T10:45:46Z</time>
      </trkpt>
      <trkpt lat="43.02752499999964" lon="-1.299979999999999">
        <ele>1322.259</ele>
        <time>2022-08-24T10:45:49Z</time>
      </trkpt>
      <trkpt lat="43.027520999999645" lon="-1.300047999999999">
        <ele>1321.803</ele>
        <time>2022-08-24T10:45:50Z</time>
      </trkpt>
      <trkpt lat="43.02751999999965" lon="-1.300115999999999">
        <ele>1321.023</ele>
        <time>2022-08-24T10:45:51Z</time>
      </trkpt>
      <trkpt lat="43.02751599999965" lon="-1.300335999999999">
        <ele>1319.609</ele>
        <time>2022-08-24T10:45:54Z</time>
      </trkpt>
      <trkpt lat="43.02751699999965" lon="-1.300394999999999">
        <ele>1319.056</ele>
        <time>2022-08-24T10:45:55Z</time>
      </trkpt>
      <trkpt lat="43.02751599999965" lon="-1.300468999999999">
        <ele>1318.296</ele>
        <time>2022-08-24T10:45:56Z</time>
      </trkpt>
      <trkpt lat="43.02751499999965" lon="-1.300551999999999">
        <ele>1318.066</ele>
        <time>2022-08-24T10:45:57Z</time>
      </trkpt>
      <trkpt lat="43.027510999999656" lon="-1.300619999999999">
        <ele>1317.032</ele>
        <time>2022-08-24T10:45:58Z</time>
      </trkpt>
      <trkpt lat="43.027507999999656" lon="-1.300687999999999">
        <ele>1316.274</ele>
        <time>2022-08-24T10:45:59Z</time>
      </trkpt>
      <trkpt lat="43.027505999999654" lon="-1.300736999999999">
        <ele>1316.081</ele>
        <time>2022-08-24T10:46:00Z</time>
      </trkpt>
      <trkpt lat="43.027499999999655" lon="-1.300797999999999">
        <ele>1315.224</ele>
        <time>2022-08-24T10:46:01Z</time>
      </trkpt>
      <trkpt lat="43.02749299999966" lon="-1.300867999999999">
        <ele>1314.668</ele>
        <time>2022-08-24T10:46:02Z</time>
      </trkpt>
      <trkpt lat="43.02747299999966" lon="-1.300997999999999">
        <ele>1313.417</ele>
        <time>2022-08-24T10:46:04Z</time>
      </trkpt>
      <trkpt lat="43.02745399999966" lon="-1.301133999999999">
        <ele>1312.624</ele>
        <time>2022-08-24T10:46:06Z</time>
      </trkpt>
      <trkpt lat="43.027443999999655" lon="-1.3011989999999989">
        <ele>1312.404</ele>
        <time>2022-08-24T10:46:07Z</time>
      </trkpt>
      <trkpt lat="43.027418999999654" lon="-1.3013319999999988">
        <ele>1311.014</ele>
        <time>2022-08-24T10:46:09Z</time>
      </trkpt>
      <trkpt lat="43.02740599999965" lon="-1.3013979999999987">
        <ele>1310.009</ele>
        <time>2022-08-24T10:46:10Z</time>
      </trkpt>
      <trkpt lat="43.02738899999965" lon="-1.3014669999999988">
        <ele>1309.423</ele>
        <time>2022-08-24T10:46:11Z</time>
      </trkpt>
      <trkpt lat="43.02736099999965" lon="-1.3016119999999989">
        <ele>1308.273</ele>
        <time>2022-08-24T10:46:13Z</time>
      </trkpt>
      <trkpt lat="43.02734799999965" lon="-1.3016749999999988">
        <ele>1308.063</ele>
        <time>2022-08-24T10:46:14Z</time>
      </trkpt>
      <trkpt lat="43.027331999999646" lon="-1.3017299999999987">
        <ele>1307.689</ele>
        <time>2022-08-24T10:46:15Z</time>
      </trkpt>
      <trkpt lat="43.02731699999965" lon="-1.3017829999999988">
        <ele>1307.241</ele>
        <time>2022-08-24T10:46:16Z</time>
      </trkpt>
      <trkpt lat="43.02730199999965" lon="-1.3018399999999988">
        <ele>1306.258</ele>
        <time>2022-08-24T10:46:17Z</time>
      </trkpt>
      <trkpt lat="43.02728699999965" lon="-1.3018969999999987">
        <ele>1305.451</ele>
        <time>2022-08-24T10:46:18Z</time>
      </trkpt>
      <trkpt lat="43.02727299999965" lon="-1.3019479999999988">
        <ele>1305.035</ele>
        <time>2022-08-24T10:46:19Z</time>
      </trkpt>
      <trkpt lat="43.02724299999965" lon="-1.3020599999999987">
        <ele>1304.014</ele>
        <time>2022-08-24T10:46:21Z</time>
      </trkpt>
      <trkpt lat="43.02721499999965" lon="-1.3021879999999986">
        <ele>1302.866</ele>
        <time>2022-08-24T10:46:23Z</time>
      </trkpt>
      <trkpt lat="43.02718899999965" lon="-1.3023279999999986">
        <ele>1301.029</ele>
        <time>2022-08-24T10:46:25Z</time>
      </trkpt>
      <trkpt lat="43.02716399999965" lon="-1.3024809999999987">
        <ele>1299.221</ele>
        <time>2022-08-24T10:46:27Z</time>
      </trkpt>
      <trkpt lat="43.02714399999965" lon="-1.3026349999999987">
        <ele>1297.209</ele>
        <time>2022-08-24T10:46:29Z</time>
      </trkpt>
      <trkpt lat="43.027128999999654" lon="-1.3027109999999986">
        <ele>1296.067</ele>
        <time>2022-08-24T10:46:30Z</time>
      </trkpt>
      <trkpt lat="43.02711099999966" lon="-1.3027839999999986">
        <ele>1295.467</ele>
        <time>2022-08-24T10:46:31Z</time>
      </trkpt>
      <trkpt lat="43.02709599999966" lon="-1.3028529999999987">
        <ele>1294.667</ele>
        <time>2022-08-24T10:46:32Z</time>
      </trkpt>
      <trkpt lat="43.02708399999966" lon="-1.3029099999999987">
        <ele>1294.683</ele>
        <time>2022-08-24T10:46:33Z</time>
      </trkpt>
      <trkpt lat="43.02707199999966" lon="-1.3029589999999986">
        <ele>1294.215</ele>
        <time>2022-08-24T10:46:34Z</time>
      </trkpt>
      <trkpt lat="43.02705899999966" lon="-1.3030029999999986">
        <ele>1294.022</ele>
        <time>2022-08-24T10:46:35Z</time>
      </trkpt>
      <trkpt lat="43.02704799999966" lon="-1.3030409999999986">
        <ele>1293.635</ele>
        <time>2022-08-24T10:46:36Z</time>
      </trkpt>
      <trkpt lat="43.02704099999966" lon="-1.3030769999999985">
        <ele>1292.829</ele>
        <time>2022-08-24T10:46:37Z</time>
      </trkpt>
      <trkpt lat="43.02702999999966" lon="-1.3031109999999986">
        <ele>1292.678</ele>
        <time>2022-08-24T10:46:38Z</time>
      </trkpt>
      <trkpt lat="43.02702399999966" lon="-1.3031409999999986">
        <ele>1292.447</ele>
        <time>2022-08-24T10:46:39Z</time>
      </trkpt>
      <trkpt lat="43.02699099999966" lon="-1.3032649999999986">
        <ele>1291.029</ele>
        <time>2022-08-24T10:46:42Z</time>
      </trkpt>
      <trkpt lat="43.026941999999664" lon="-1.3034309999999987">
        <ele>1289.821</ele>
        <time>2022-08-24T10:46:45Z</time>
      </trkpt>
      <trkpt lat="43.02691699999966" lon="-1.3035349999999988">
        <ele>1288.809</ele>
        <time>2022-08-24T10:46:47Z</time>
      </trkpt>
      <trkpt lat="43.02690399999966" lon="-1.3035899999999987">
        <ele>1288.015</ele>
        <time>2022-08-24T10:46:48Z</time>
      </trkpt>
      <trkpt lat="43.02689199999966" lon="-1.3036429999999988">
        <ele>1287.685</ele>
        <time>2022-08-24T10:46:49Z</time>
      </trkpt>
      <trkpt lat="43.026882999999664" lon="-1.3037019999999988">
        <ele>1287.065</ele>
        <time>2022-08-24T10:46:50Z</time>
      </trkpt>
      <trkpt lat="43.026876999999665" lon="-1.3037449999999988">
        <ele>1286.661</ele>
        <time>2022-08-24T10:46:51Z</time>
      </trkpt>
      <trkpt lat="43.026870999999666" lon="-1.303778999999999">
        <ele>1286.243</ele>
        <time>2022-08-24T10:46:52Z</time>
      </trkpt>
      <trkpt lat="43.026867999999666" lon="-1.303801999999999">
        <ele>1285.840</ele>
        <time>2022-08-24T10:46:53Z</time>
      </trkpt>
      <trkpt lat="43.02686499999967" lon="-1.303828999999999">
        <ele>1285.683</ele>
        <time>2022-08-24T10:46:54Z</time>
      </trkpt>
      <trkpt lat="43.02685799999967" lon="-1.303858999999999">
        <ele>1285.447</ele>
        <time>2022-08-24T10:46:55Z</time>
      </trkpt>
      <trkpt lat="43.02684599999967" lon="-1.303885999999999">
        <ele>1285.236</ele>
        <time>2022-08-24T10:46:56Z</time>
      </trkpt>
      <trkpt lat="43.026833999999674" lon="-1.303907999999999">
        <ele>1285.252</ele>
        <time>2022-08-24T10:46:57Z</time>
      </trkpt>
      <trkpt lat="43.026824999999675" lon="-1.3039199999999989">
        <ele>1285.253</ele>
        <time>2022-08-24T10:46:58Z</time>
      </trkpt>
      <trkpt lat="43.026813999999675" lon="-1.303940999999999">
        <ele>1285.208</ele>
        <time>2022-08-24T10:46:59Z</time>
      </trkpt>
      <trkpt lat="43.026804999999676" lon="-1.3039609999999988">
        <ele>1285.209</ele>
        <time>2022-08-24T10:47:00Z</time>
      </trkpt>
      <trkpt lat="43.026706999999675" lon="-1.3041499999999988">
        <ele>1285.426</ele>
        <time>2022-08-24T10:47:08Z</time>
      </trkpt>
      <trkpt lat="43.02669199999968" lon="-1.3041709999999989">
        <ele>1285.456</ele>
        <time>2022-08-24T10:47:09Z</time>
      </trkpt>
      <trkpt lat="43.02667799999968" lon="-1.3041929999999988">
        <ele>1284.646</ele>
        <time>2022-08-24T10:47:10Z</time>
      </trkpt>
      <trkpt lat="43.026664999999674" lon="-1.3042139999999989">
        <ele>1284.232</ele>
        <time>2022-08-24T10:47:11Z</time>
      </trkpt>
      <trkpt lat="43.02665199999967" lon="-1.3042329999999989">
        <ele>1283.824</ele>
        <time>2022-08-24T10:47:12Z</time>
      </trkpt>
      <trkpt lat="43.02663899999967" lon="-1.3042499999999988">
        <ele>1283.431</ele>
        <time>2022-08-24T10:47:13Z</time>
      </trkpt>
      <trkpt lat="43.02660199999967" lon="-1.3042879999999988">
        <ele>1281.824</ele>
        <time>2022-08-24T10:47:15Z</time>
      </trkpt>
      <trkpt lat="43.02658499999967" lon="-1.3043129999999987">
        <ele>1281.478</ele>
        <time>2022-08-24T10:47:16Z</time>
      </trkpt>
      <trkpt lat="43.02657699999967" lon="-1.3043409999999986">
        <ele>1280.887</ele>
        <time>2022-08-24T10:47:17Z</time>
      </trkpt>
      <trkpt lat="43.02657299999967" lon="-1.3043739999999986">
        <ele>1280.682</ele>
        <time>2022-08-24T10:47:18Z</time>
      </trkpt>
      <trkpt lat="43.026571999999675" lon="-1.3044119999999986">
        <ele>1280.043</ele>
        <time>2022-08-24T10:47:19Z</time>
      </trkpt>
      <trkpt lat="43.02657299999967" lon="-1.3044509999999985">
        <ele>1279.817</ele>
        <time>2022-08-24T10:47:20Z</time>
      </trkpt>
      <trkpt lat="43.026571999999675" lon="-1.3044919999999984">
        <ele>1279.409</ele>
        <time>2022-08-24T10:47:21Z</time>
      </trkpt>
      <trkpt lat="43.02657099999968" lon="-1.3045769999999983">
        <ele>1278.269</ele>
        <time>2022-08-24T10:47:23Z</time>
      </trkpt>
      <trkpt lat="43.02655599999968" lon="-1.3046629999999984">
        <ele>1276.649</ele>
        <time>2022-08-24T10:47:25Z</time>
      </trkpt>
      <trkpt lat="43.02654399999968" lon="-1.3047029999999984">
        <ele>1275.679</ele>
        <time>2022-08-24T10:47:26Z</time>
      </trkpt>
      <trkpt lat="43.02653099999968" lon="-1.3047389999999983">
        <ele>1275.085</ele>
        <time>2022-08-24T10:47:27Z</time>
      </trkpt>
      <trkpt lat="43.02651499999968" lon="-1.3047729999999984">
        <ele>1274.087</ele>
        <time>2022-08-24T10:47:28Z</time>
      </trkpt>
      <trkpt lat="43.026498999999674" lon="-1.3048029999999984">
        <ele>1272.864</ele>
        <time>2022-08-24T10:47:29Z</time>
      </trkpt>
      <trkpt lat="43.02648299999967" lon="-1.3048339999999983">
        <ele>1272.427</ele>
        <time>2022-08-24T10:47:30Z</time>
      </trkpt>
      <trkpt lat="43.026470999999674" lon="-1.3048589999999982">
        <ele>1272.071</ele>
        <time>2022-08-24T10:47:31Z</time>
      </trkpt>
      <trkpt lat="43.02645999999967" lon="-1.3048759999999981">
        <ele>1271.870</ele>
        <time>2022-08-24T10:47:32Z</time>
      </trkpt>
      <trkpt lat="43.02645199999967" lon="-1.304889999999998">
        <ele>1271.262</ele>
        <time>2022-08-24T10:47:33Z</time>
      </trkpt>
      <trkpt lat="43.02643899999967" lon="-1.304922999999998">
        <ele>1267.683</ele>
        <time>2022-08-24T10:48:03Z</time>
      </trkpt>
      <trkpt lat="43.02636199999967" lon="-1.305111999999998">
        <ele>1267.211</ele>
        <time>2022-08-24T10:48:08Z</time>
      </trkpt>
      <trkpt lat="43.02634799999967" lon="-1.3051489999999981">
        <ele>1267.209</ele>
        <time>2022-08-24T10:48:09Z</time>
      </trkpt>
      <trkpt lat="43.02631999999967" lon="-1.3052299999999981">
        <ele>1266.617</ele>
        <time>2022-08-24T10:48:11Z</time>
      </trkpt>
      <trkpt lat="43.02630299999967" lon="-1.305267999999998">
        <ele>1266.237</ele>
        <time>2022-08-24T10:48:12Z</time>
      </trkpt>
      <trkpt lat="43.02628699999967" lon="-1.305303999999998">
        <ele>1265.837</ele>
        <time>2022-08-24T10:48:13Z</time>
      </trkpt>
      <trkpt lat="43.02626899999967" lon="-1.305337999999998">
        <ele>1265.293</ele>
        <time>2022-08-24T10:48:14Z</time>
      </trkpt>
      <trkpt lat="43.026233999999675" lon="-1.3053999999999981">
        <ele>1264.275</ele>
        <time>2022-08-24T10:48:16Z</time>
      </trkpt>
      <trkpt lat="43.026213999999676" lon="-1.3054339999999982">
        <ele>1263.882</ele>
        <time>2022-08-24T10:48:17Z</time>
      </trkpt>
      <trkpt lat="43.02617299999967" lon="-1.3054979999999983">
        <ele>1263.695</ele>
        <time>2022-08-24T10:48:19Z</time>
      </trkpt>
      <trkpt lat="43.02613099999967" lon="-1.3055649999999983">
        <ele>1263.089</ele>
        <time>2022-08-24T10:48:21Z</time>
      </trkpt>
      <trkpt lat="43.02606599999967" lon="-1.3056899999999982">
        <ele>1262.428</ele>
        <time>2022-08-24T10:48:24Z</time>
      </trkpt>
      <trkpt lat="43.02603799999967" lon="-1.3057939999999983">
        <ele>1261.859</ele>
        <time>2022-08-24T10:48:26Z</time>
      </trkpt>
      <trkpt lat="43.02602199999967" lon="-1.3059029999999983">
        <ele>1260.803</ele>
        <time>2022-08-24T10:48:28Z</time>
      </trkpt>
      <trkpt lat="43.02601599999967" lon="-1.3059529999999984">
        <ele>1259.623</ele>
        <time>2022-08-24T10:48:29Z</time>
      </trkpt>
      <trkpt lat="43.026008999999675" lon="-1.3059999999999983">
        <ele>1259.009</ele>
        <time>2022-08-24T10:48:30Z</time>
      </trkpt>
      <trkpt lat="43.026000999999674" lon="-1.3060429999999983">
        <ele>1258.446</ele>
        <time>2022-08-24T10:48:31Z</time>
      </trkpt>
      <trkpt lat="43.02599099999967" lon="-1.3060789999999982">
        <ele>1258.226</ele>
        <time>2022-08-24T10:48:32Z</time>
      </trkpt>
      <trkpt lat="43.02598099999967" lon="-1.3061129999999983">
        <ele>1257.436</ele>
        <time>2022-08-24T10:48:33Z</time>
      </trkpt>
      <trkpt lat="43.02596599999967" lon="-1.3061479999999983">
        <ele>1257.092</ele>
        <time>2022-08-24T10:48:34Z</time>
      </trkpt>
      <trkpt lat="43.02593999999967" lon="-1.3061799999999983">
        <ele>1256.624</ele>
        <time>2022-08-24T10:48:35Z</time>
      </trkpt>
      <trkpt lat="43.02590299999967" lon="-1.3062049999999983">
        <ele>1256.051</ele>
        <time>2022-08-24T10:48:36Z</time>
      </trkpt>
      <trkpt lat="43.02586199999967" lon="-1.3062219999999982">
        <ele>1255.874</ele>
        <time>2022-08-24T10:48:37Z</time>
      </trkpt>
      <trkpt lat="43.02582199999967" lon="-1.3062309999999981">
        <ele>1255.498</ele>
        <time>2022-08-24T10:48:38Z</time>
      </trkpt>
      <trkpt lat="43.02578099999967" lon="-1.306239999999998">
        <ele>1255.247</ele>
        <time>2022-08-24T10:48:39Z</time>
      </trkpt>
      <trkpt lat="43.02573799999967" lon="-1.3062549999999982">
        <ele>1255.029</ele>
        <time>2022-08-24T10:48:40Z</time>
      </trkpt>
      <trkpt lat="43.02569599999967" lon="-1.3062649999999982">
        <ele>1255.000</ele>
        <time>2022-08-24T10:48:41Z</time>
      </trkpt>
      <trkpt lat="43.02565299999967" lon="-1.3062739999999982">
        <ele>1254.820</ele>
        <time>2022-08-24T10:48:42Z</time>
      </trkpt>
      <trkpt lat="43.02551499999967" lon="-1.3063039999999981">
        <ele>1254.009</ele>
        <time>2022-08-24T10:48:45Z</time>
      </trkpt>
      <trkpt lat="43.02547499999967" lon="-1.3063009999999982">
        <ele>1253.883</ele>
        <time>2022-08-24T10:48:46Z</time>
      </trkpt>
      <trkpt lat="43.02544199999967" lon="-1.3062969999999983">
        <ele>1253.023</ele>
        <time>2022-08-24T10:48:47Z</time>
      </trkpt>
      <trkpt lat="43.02541799999967" lon="-1.3062949999999982">
        <ele>1252.263</ele>
        <time>2022-08-24T10:48:48Z</time>
      </trkpt>
      <trkpt lat="43.02540599999967" lon="-1.3062929999999982">
        <ele>1249.639</ele>
        <time>2022-08-24T10:48:52Z</time>
      </trkpt>
      <trkpt lat="43.02536699999967" lon="-1.3062929999999982">
        <ele>1248.641</ele>
        <time>2022-08-24T10:48:54Z</time>
      </trkpt>
      <trkpt lat="43.02533299999967" lon="-1.306293999999998">
        <ele>1248.268</ele>
        <time>2022-08-24T10:48:55Z</time>
      </trkpt>
      <trkpt lat="43.02526999999967" lon="-1.306312999999998">
        <ele>1247.861</ele>
        <time>2022-08-24T10:48:57Z</time>
      </trkpt>
      <trkpt lat="43.025248999999675" lon="-1.306336999999998">
        <ele>1247.865</ele>
        <time>2022-08-24T10:48:58Z</time>
      </trkpt>
      <trkpt lat="43.02523699999968" lon="-1.306364999999998">
        <ele>1247.884</ele>
        <time>2022-08-24T10:48:59Z</time>
      </trkpt>
      <trkpt lat="43.02523099999968" lon="-1.306391999999998">
        <ele>1247.658</ele>
        <time>2022-08-24T10:49:00Z</time>
      </trkpt>
      <trkpt lat="43.025231999999676" lon="-1.306418999999998">
        <ele>1247.652</ele>
        <time>2022-08-24T10:49:01Z</time>
      </trkpt>
      <trkpt lat="43.02523599999967" lon="-1.306446999999998">
        <ele>1247.417</ele>
        <time>2022-08-24T10:49:02Z</time>
      </trkpt>
      <trkpt lat="43.02524799999967" lon="-1.3064779999999978">
        <ele>1247.209</ele>
        <time>2022-08-24T10:49:03Z</time>
      </trkpt>
      <trkpt lat="43.02528199999967" lon="-1.3065349999999978">
        <ele>1247.226</ele>
        <time>2022-08-24T10:49:05Z</time>
      </trkpt>
      <trkpt lat="43.02530499999967" lon="-1.3065709999999977">
        <ele>1246.486</ele>
        <time>2022-08-24T10:49:06Z</time>
      </trkpt>
      <trkpt lat="43.02533299999967" lon="-1.3066109999999977">
        <ele>1245.256</ele>
        <time>2022-08-24T10:49:07Z</time>
      </trkpt>
      <trkpt lat="43.02539599999967" lon="-1.3066999999999978">
        <ele>1244.252</ele>
        <time>2022-08-24T10:49:09Z</time>
      </trkpt>
      <trkpt lat="43.02546299999967" lon="-1.3067919999999977">
        <ele>1243.264</ele>
        <time>2022-08-24T10:49:11Z</time>
      </trkpt>
      <trkpt lat="43.025536999999666" lon="-1.3068799999999978">
        <ele>1242.041</ele>
        <time>2022-08-24T10:49:13Z</time>
      </trkpt>
      <trkpt lat="43.025573999999665" lon="-1.3069199999999979">
        <ele>1241.014</ele>
        <time>2022-08-24T10:49:14Z</time>
      </trkpt>
      <trkpt lat="43.025610999999664" lon="-1.3069589999999978">
        <ele>1240.438</ele>
        <time>2022-08-24T10:49:15Z</time>
      </trkpt>
      <trkpt lat="43.02564899999967" lon="-1.3069939999999978">
        <ele>1239.437</ele>
        <time>2022-08-24T10:49:16Z</time>
      </trkpt>
      <trkpt lat="43.025685999999666" lon="-1.3070239999999977">
        <ele>1239.285</ele>
        <time>2022-08-24T10:49:17Z</time>
      </trkpt>
      <trkpt lat="43.02572199999967" lon="-1.3070519999999977">
        <ele>1238.489</ele>
        <time>2022-08-24T10:49:18Z</time>
      </trkpt>
      <trkpt lat="43.025753999999665" lon="-1.3070729999999977">
        <ele>1237.817</ele>
        <time>2022-08-24T10:49:19Z</time>
      </trkpt>
      <trkpt lat="43.02577999999966" lon="-1.3070909999999978">
        <ele>1237.609</ele>
        <time>2022-08-24T10:49:20Z</time>
      </trkpt>
      <trkpt lat="43.02580599999966" lon="-1.3071099999999978">
        <ele>1236.869</ele>
        <time>2022-08-24T10:49:21Z</time>
      </trkpt>
      <trkpt lat="43.02583199999966" lon="-1.3071349999999977">
        <ele>1236.659</ele>
        <time>2022-08-24T10:49:22Z</time>
      </trkpt>
      <trkpt lat="43.02586699999966" lon="-1.3071999999999977">
        <ele>1235.249</ele>
        <time>2022-08-24T10:49:24Z</time>
      </trkpt>
      <trkpt lat="43.025875999999656" lon="-1.3072369999999978">
        <ele>1234.475</ele>
        <time>2022-08-24T10:49:25Z</time>
      </trkpt>
      <trkpt lat="43.02587799999966" lon="-1.3072799999999978">
        <ele>1234.087</ele>
        <time>2022-08-24T10:49:26Z</time>
      </trkpt>
      <trkpt lat="43.02587399999966" lon="-1.3073259999999978">
        <ele>1233.874</ele>
        <time>2022-08-24T10:49:27Z</time>
      </trkpt>
      <trkpt lat="43.02586399999966" lon="-1.3073689999999978">
        <ele>1233.417</ele>
        <time>2022-08-24T10:49:28Z</time>
      </trkpt>
      <trkpt lat="43.02585199999966" lon="-1.3074209999999977">
        <ele>1233.421</ele>
        <time>2022-08-24T10:49:29Z</time>
      </trkpt>
      <trkpt lat="43.02584799999966" lon="-1.3074569999999976">
        <ele>1233.220</ele>
        <time>2022-08-24T10:49:30Z</time>
      </trkpt>
      <trkpt lat="43.02584599999966" lon="-1.3075019999999977">
        <ele>1233.063</ele>
        <time>2022-08-24T10:49:31Z</time>
      </trkpt>
      <trkpt lat="43.02584499999966" lon="-1.3075379999999976">
        <ele>1232.844</ele>
        <time>2022-08-24T10:49:32Z</time>
      </trkpt>
      <trkpt lat="43.02584199999966" lon="-1.3075689999999975">
        <ele>1232.418</ele>
        <time>2022-08-24T10:49:33Z</time>
      </trkpt>
      <trkpt lat="43.02583999999966" lon="-1.3076009999999976">
        <ele>1232.209</ele>
        <time>2022-08-24T10:49:34Z</time>
      </trkpt>
      <trkpt lat="43.02583999999966" lon="-1.3076319999999975">
        <ele>1231.867</ele>
        <time>2022-08-24T10:49:35Z</time>
      </trkpt>
      <trkpt lat="43.02583699999966" lon="-1.3076589999999975">
        <ele>1231.677</ele>
        <time>2022-08-24T10:49:36Z</time>
      </trkpt>
      <trkpt lat="43.02583399999966" lon="-1.3076819999999976">
        <ele>1230.447</ele>
        <time>2022-08-24T10:49:37Z</time>
      </trkpt>
      <trkpt lat="43.02582899999966" lon="-1.3077059999999976">
        <ele>1229.693</ele>
        <time>2022-08-24T10:49:38Z</time>
      </trkpt>
      <trkpt lat="43.025824999999664" lon="-1.3077299999999976">
        <ele>1229.035</ele>
        <time>2022-08-24T10:49:39Z</time>
      </trkpt>
      <trkpt lat="43.02581799999967" lon="-1.3077799999999977">
        <ele>1228.032</ele>
        <time>2022-08-24T10:49:41Z</time>
      </trkpt>
      <trkpt lat="43.02581499999967" lon="-1.3078009999999978">
        <ele>1227.685</ele>
        <time>2022-08-24T10:49:42Z</time>
      </trkpt>
      <trkpt lat="43.02580299999967" lon="-1.3078529999999977">
        <ele>1227.099</ele>
        <time>2022-08-24T10:49:44Z</time>
      </trkpt>
      <trkpt lat="43.02580199999967" lon="-1.3078769999999977">
        <ele>1226.088</ele>
        <time>2022-08-24T10:49:45Z</time>
      </trkpt>
      <trkpt lat="43.02580299999967" lon="-1.3078999999999978">
        <ele>1225.663</ele>
        <time>2022-08-24T10:49:46Z</time>
      </trkpt>
      <trkpt lat="43.02579999999967" lon="-1.3079349999999978">
        <ele>1225.244</ele>
        <time>2022-08-24T10:49:47Z</time>
      </trkpt>
      <trkpt lat="43.02579199999967" lon="-1.3079619999999978">
        <ele>1225.218</ele>
        <time>2022-08-24T10:49:48Z</time>
      </trkpt>
      <trkpt lat="43.02577499999967" lon="-1.308011999999998">
        <ele>1224.409</ele>
        <time>2022-08-24T10:49:50Z</time>
      </trkpt>
      <trkpt lat="43.025764999999666" lon="-1.308043999999998">
        <ele>1224.237</ele>
        <time>2022-08-24T10:49:51Z</time>
      </trkpt>
      <trkpt lat="43.02575799999967" lon="-1.308067999999998">
        <ele>1223.887</ele>
        <time>2022-08-24T10:49:52Z</time>
      </trkpt>
      <trkpt lat="43.02573899999967" lon="-1.308122999999998">
        <ele>1223.257</ele>
        <time>2022-08-24T10:49:54Z</time>
      </trkpt>
      <trkpt lat="43.02570999999967" lon="-1.308216999999998">
        <ele>1221.873</ele>
        <time>2022-08-24T10:49:57Z</time>
      </trkpt>
      <trkpt lat="43.02570199999967" lon="-1.3082449999999979">
        <ele>1221.635</ele>
        <time>2022-08-24T10:49:58Z</time>
      </trkpt>
      <trkpt lat="43.02569099999967" lon="-1.3082719999999979">
        <ele>1221.252</ele>
        <time>2022-08-24T10:49:59Z</time>
      </trkpt>
      <trkpt lat="43.02568299999967" lon="-1.3082999999999978">
        <ele>1221.065</ele>
        <time>2022-08-24T10:50:00Z</time>
      </trkpt>
      <trkpt lat="43.02567399999967" lon="-1.3083329999999977">
        <ele>1220.819</ele>
        <time>2022-08-24T10:50:01Z</time>
      </trkpt>
      <trkpt lat="43.025646999999665" lon="-1.3084149999999977">
        <ele>1219.668</ele>
        <time>2022-08-24T10:50:04Z</time>
      </trkpt>
      <trkpt lat="43.025632999999665" lon="-1.3084369999999976">
        <ele>1219.467</ele>
        <time>2022-08-24T10:50:05Z</time>
      </trkpt>
      <trkpt lat="43.025618999999665" lon="-1.3084619999999976">
        <ele>1218.881</ele>
        <time>2022-08-24T10:50:06Z</time>
      </trkpt>
      <trkpt lat="43.025601999999665" lon="-1.3084909999999976">
        <ele>1218.419</ele>
        <time>2022-08-24T10:50:07Z</time>
      </trkpt>
      <trkpt lat="43.02556099999966" lon="-1.3085489999999975">
        <ele>1217.209</ele>
        <time>2022-08-24T10:50:09Z</time>
      </trkpt>
      <trkpt lat="43.025517999999664" lon="-1.3086099999999976">
        <ele>1216.287</ele>
        <time>2022-08-24T10:50:11Z</time>
      </trkpt>
      <trkpt lat="43.02549899999966" lon="-1.3086369999999976">
        <ele>1215.817</ele>
        <time>2022-08-24T10:50:12Z</time>
      </trkpt>
      <trkpt lat="43.02548299999966" lon="-1.3086679999999975">
        <ele>1215.077</ele>
        <time>2022-08-24T10:50:13Z</time>
      </trkpt>
      <trkpt lat="43.02547499999966" lon="-1.3086889999999975">
        <ele>1214.623</ele>
        <time>2022-08-24T10:50:14Z</time>
      </trkpt>
      <trkpt lat="43.02546599999966" lon="-1.3087159999999975">
        <ele>1213.675</ele>
        <time>2022-08-24T10:50:15Z</time>
      </trkpt>
      <trkpt lat="43.02545399999966" lon="-1.3087429999999975">
        <ele>1212.482</ele>
        <time>2022-08-24T10:50:16Z</time>
      </trkpt>
      <trkpt lat="43.025413999999664" lon="-1.3088009999999974">
        <ele>1211.065</ele>
        <time>2022-08-24T10:50:18Z</time>
      </trkpt>
      <trkpt lat="43.02539199999966" lon="-1.3088339999999974">
        <ele>1210.669</ele>
        <time>2022-08-24T10:50:19Z</time>
      </trkpt>
      <trkpt lat="43.02538199999966" lon="-1.3088519999999975">
        <ele>1209.858</ele>
        <time>2022-08-24T10:50:20Z</time>
      </trkpt>
      <trkpt lat="43.02535699999966" lon="-1.3089219999999975">
        <ele>1208.636</ele>
        <time>2022-08-24T10:50:22Z</time>
      </trkpt>
      <trkpt lat="43.025318999999655" lon="-1.3090849999999974">
        <ele>1207.217</ele>
        <time>2022-08-24T10:50:25Z</time>
      </trkpt>
      <trkpt lat="43.02525599999966" lon="-1.3092679999999974">
        <ele>1205.618</ele>
        <time>2022-08-24T10:50:28Z</time>
      </trkpt>
      <trkpt lat="43.02523599999966" lon="-1.3093269999999975">
        <ele>1205.209</ele>
        <time>2022-08-24T10:50:29Z</time>
      </trkpt>
      <trkpt lat="43.025191999999656" lon="-1.3094469999999974">
        <ele>1204.484</ele>
        <time>2022-08-24T10:50:31Z</time>
      </trkpt>
      <trkpt lat="43.02517199999966" lon="-1.3095089999999974">
        <ele>1204.274</ele>
        <time>2022-08-24T10:50:32Z</time>
      </trkpt>
      <trkpt lat="43.025129999999656" lon="-1.3096379999999974">
        <ele>1203.234</ele>
        <time>2022-08-24T10:50:34Z</time>
      </trkpt>
      <trkpt lat="43.025087999999656" lon="-1.3097979999999974">
        <ele>1202.070</ele>
        <time>2022-08-24T10:50:36Z</time>
      </trkpt>
      <trkpt lat="43.02506699999966" lon="-1.3098679999999974">
        <ele>1201.472</ele>
        <time>2022-08-24T10:50:37Z</time>
      </trkpt>
      <trkpt lat="43.02504999999966" lon="-1.3099349999999974">
        <ele>1200.869</ele>
        <time>2022-08-24T10:50:38Z</time>
      </trkpt>
      <trkpt lat="43.02503699999966" lon="-1.3099889999999974">
        <ele>1199.832</ele>
        <time>2022-08-24T10:50:39Z</time>
      </trkpt>
      <trkpt lat="43.025020999999654" lon="-1.3100489999999974">
        <ele>1199.056</ele>
        <time>2022-08-24T10:50:40Z</time>
      </trkpt>
      <trkpt lat="43.025009999999654" lon="-1.3101089999999973">
        <ele>1198.495</ele>
        <time>2022-08-24T10:50:41Z</time>
      </trkpt>
      <trkpt lat="43.02500499999965" lon="-1.3101689999999973">
        <ele>1196.882</ele>
        <time>2022-08-24T10:50:42Z</time>
      </trkpt>
      <trkpt lat="43.02500199999965" lon="-1.3102389999999973">
        <ele>1196.243</ele>
        <time>2022-08-24T10:50:43Z</time>
      </trkpt>
      <trkpt lat="43.025000999999655" lon="-1.3102849999999973">
        <ele>1195.417</ele>
        <time>2022-08-24T10:50:44Z</time>
      </trkpt>
      <trkpt lat="43.025003999999655" lon="-1.3104149999999972">
        <ele>1194.209</ele>
        <time>2022-08-24T10:50:46Z</time>
      </trkpt>
      <trkpt lat="43.025008999999656" lon="-1.3105479999999972">
        <ele>1193.029</ele>
        <time>2022-08-24T10:50:48Z</time>
      </trkpt>
      <trkpt lat="43.025009999999654" lon="-1.3105989999999972">
        <ele>1192.659</ele>
        <time>2022-08-24T10:50:49Z</time>
      </trkpt>
      <trkpt lat="43.025014999999655" lon="-1.3107439999999972">
        <ele>1191.459</ele>
        <time>2022-08-24T10:50:51Z</time>
      </trkpt>
      <trkpt lat="43.02502199999965" lon="-1.3108639999999971">
        <ele>1190.275</ele>
        <time>2022-08-24T10:50:53Z</time>
      </trkpt>
      <trkpt lat="43.02502899999965" lon="-1.311077999999997">
        <ele>1188.687</ele>
        <time>2022-08-24T10:50:56Z</time>
      </trkpt>
      <trkpt lat="43.02502599999965" lon="-1.3112309999999971">
        <ele>1187.624</ele>
        <time>2022-08-24T10:50:58Z</time>
      </trkpt>
      <trkpt lat="43.02502199999965" lon="-1.3113079999999973">
        <ele>1186.687</ele>
        <time>2022-08-24T10:50:59Z</time>
      </trkpt>
      <trkpt lat="43.02501599999965" lon="-1.3114729999999972">
        <ele>1185.031</ele>
        <time>2022-08-24T10:51:01Z</time>
      </trkpt>
      <trkpt lat="43.02501599999965" lon="-1.3116499999999973">
        <ele>1183.690</ele>
        <time>2022-08-24T10:51:03Z</time>
      </trkpt>
      <trkpt lat="43.02502499999965" lon="-1.3117879999999973">
        <ele>1182.087</ele>
        <time>2022-08-24T10:51:05Z</time>
      </trkpt>
      <trkpt lat="43.02503699999965" lon="-1.3118689999999973">
        <ele>1180.842</ele>
        <time>2022-08-24T10:51:06Z</time>
      </trkpt>
      <trkpt lat="43.02506499999965" lon="-1.3120409999999973">
        <ele>1179.626</ele>
        <time>2022-08-24T10:51:08Z</time>
      </trkpt>
      <trkpt lat="43.02507599999965" lon="-1.3122059999999973">
        <ele>1178.409</ele>
        <time>2022-08-24T10:51:10Z</time>
      </trkpt>
      <trkpt lat="43.02508299999965" lon="-1.3122859999999974">
        <ele>1178.039</ele>
        <time>2022-08-24T10:51:11Z</time>
      </trkpt>
      <trkpt lat="43.02507999999965" lon="-1.3123809999999974">
        <ele>1176.869</ele>
        <time>2022-08-24T10:51:12Z</time>
      </trkpt>
      <trkpt lat="43.025069999999644" lon="-1.3124729999999973">
        <ele>1175.629</ele>
        <time>2022-08-24T10:51:13Z</time>
      </trkpt>
      <trkpt lat="43.02505099999964" lon="-1.3126609999999974">
        <ele>1174.875</ele>
        <time>2022-08-24T10:51:15Z</time>
      </trkpt>
      <trkpt lat="43.02503999999964" lon="-1.3127549999999975">
        <ele>1174.257</ele>
        <time>2022-08-24T10:51:16Z</time>
      </trkpt>
      <trkpt lat="43.02503799999964" lon="-1.3128409999999975">
        <ele>1172.684</ele>
        <time>2022-08-24T10:51:17Z</time>
      </trkpt>
      <trkpt lat="43.02503199999964" lon="-1.3129069999999974">
        <ele>1171.667</ele>
        <time>2022-08-24T10:51:18Z</time>
      </trkpt>
      <trkpt lat="43.02500399999964" lon="-1.3130179999999974">
        <ele>1170.861</ele>
        <time>2022-08-24T10:51:19Z</time>
      </trkpt>
      <trkpt lat="43.02498899999964" lon="-1.3131599999999974">
        <ele>1169.870</ele>
        <time>2022-08-24T10:51:20Z</time>
      </trkpt>
      <trkpt lat="43.02496899999964" lon="-1.3132739999999974">
        <ele>1169.694</ele>
        <time>2022-08-24T10:51:21Z</time>
      </trkpt>
      <trkpt lat="43.024959999999645" lon="-1.3133529999999973">
        <ele>1169.257</ele>
        <time>2022-08-24T10:51:22Z</time>
      </trkpt>
      <trkpt lat="43.024956999999645" lon="-1.3134399999999973">
        <ele>1168.422</ele>
        <time>2022-08-24T10:51:23Z</time>
      </trkpt>
      <trkpt lat="43.02494799999965" lon="-1.3135359999999974">
        <ele>1167.209</ele>
        <time>2022-08-24T10:51:24Z</time>
      </trkpt>
      <trkpt lat="43.02493899999965" lon="-1.3136099999999973">
        <ele>1166.240</ele>
        <time>2022-08-24T10:51:25Z</time>
      </trkpt>
      <trkpt lat="43.02492099999965" lon="-1.3136879999999973">
        <ele>1165.650</ele>
        <time>2022-08-24T10:51:26Z</time>
      </trkpt>
      <trkpt lat="43.02490499999965" lon="-1.3137369999999973">
        <ele>1164.630</ele>
        <time>2022-08-24T10:51:27Z</time>
      </trkpt>
      <trkpt lat="43.02488999999965" lon="-1.3138019999999972">
        <ele>1164.036</ele>
        <time>2022-08-24T10:51:28Z</time>
      </trkpt>
      <trkpt lat="43.02485999999965" lon="-1.3139309999999973">
        <ele>1162.228</ele>
        <time>2022-08-24T10:51:30Z</time>
      </trkpt>
      <trkpt lat="43.02481499999965" lon="-1.3139719999999973">
        <ele>1161.685</ele>
        <time>2022-08-24T10:51:31Z</time>
      </trkpt>
      <trkpt lat="43.02477199999965" lon="-1.3139849999999973">
        <ele>1160.888</ele>
        <time>2022-08-24T10:51:32Z</time>
      </trkpt>
      <trkpt lat="43.02471299999965" lon="-1.3139789999999973">
        <ele>1160.472</ele>
        <time>2022-08-24T10:51:33Z</time>
      </trkpt>
      <trkpt lat="43.02467099999965" lon="-1.3139609999999973">
        <ele>1159.621</ele>
        <time>2022-08-24T10:51:34Z</time>
      </trkpt>
      <trkpt lat="43.02462799999965" lon="-1.3139029999999974">
        <ele>1159.447</ele>
        <time>2022-08-24T10:51:35Z</time>
      </trkpt>
      <trkpt lat="43.02460899999965" lon="-1.3137929999999973">
        <ele>1158.429</ele>
        <time>2022-08-24T10:51:37Z</time>
      </trkpt>
      <trkpt lat="43.02461899999965" lon="-1.3135749999999973">
        <ele>1157.621</ele>
        <time>2022-08-24T10:51:40Z</time>
      </trkpt>
      <trkpt lat="43.02462299999965" lon="-1.3135049999999973">
        <ele>1157.009</ele>
        <time>2022-08-24T10:51:41Z</time>
      </trkpt>
      <trkpt lat="43.02462599999965" lon="-1.3134379999999972">
        <ele>1156.875</ele>
        <time>2022-08-24T10:51:42Z</time>
      </trkpt>
      <trkpt lat="43.02462599999965" lon="-1.3133849999999971">
        <ele>1156.645</ele>
        <time>2022-08-24T10:51:43Z</time>
      </trkpt>
      <trkpt lat="43.02462599999965" lon="-1.3133249999999972">
        <ele>1156.425</ele>
        <time>2022-08-24T10:51:44Z</time>
      </trkpt>
      <trkpt lat="43.02463199999965" lon="-1.3131949999999972">
        <ele>1155.891</ele>
        <time>2022-08-24T10:51:46Z</time>
      </trkpt>
      <trkpt lat="43.024632999999646" lon="-1.3131329999999972">
        <ele>1155.623</ele>
        <time>2022-08-24T10:51:47Z</time>
      </trkpt>
      <trkpt lat="43.02463499999965" lon="-1.3130769999999972">
        <ele>1155.450</ele>
        <time>2022-08-24T10:51:48Z</time>
      </trkpt>
      <trkpt lat="43.02463799999965" lon="-1.313023999999997">
        <ele>1155.243</ele>
        <time>2022-08-24T10:51:49Z</time>
      </trkpt>
      <trkpt lat="43.02464099999965" lon="-1.3129849999999972">
        <ele>1155.077</ele>
        <time>2022-08-24T10:51:50Z</time>
      </trkpt>
      <trkpt lat="43.02463999999965" lon="-1.3129549999999972">
        <ele>1154.436</ele>
        <time>2022-08-24T10:51:51Z</time>
      </trkpt>
      <trkpt lat="43.02463399999965" lon="-1.3129269999999973">
        <ele>1154.276</ele>
        <time>2022-08-24T10:51:52Z</time>
      </trkpt>
      <trkpt lat="43.02462099999965" lon="-1.3129039999999972">
        <ele>1154.090</ele>
        <time>2022-08-24T10:51:53Z</time>
      </trkpt>
      <trkpt lat="43.02457899999965" lon="-1.3129069999999972">
        <ele>1153.219</ele>
        <time>2022-08-24T10:51:55Z</time>
      </trkpt>
      <trkpt lat="43.024551999999645" lon="-1.3129369999999971">
        <ele>1152.609</ele>
        <time>2022-08-24T10:51:56Z</time>
      </trkpt>
      <trkpt lat="43.024489999999645" lon="-1.3130309999999972">
        <ele>1151.848</ele>
        <time>2022-08-24T10:51:58Z</time>
      </trkpt>
      <trkpt lat="43.02445499999965" lon="-1.3130979999999972">
        <ele>1151.438</ele>
        <time>2022-08-24T10:51:59Z</time>
      </trkpt>
      <trkpt lat="43.02441899999965" lon="-1.3131629999999972">
        <ele>1150.888</ele>
        <time>2022-08-24T10:52:00Z</time>
      </trkpt>
      <trkpt lat="43.02438399999965" lon="-1.3132249999999972">
        <ele>1150.454</ele>
        <time>2022-08-24T10:52:01Z</time>
      </trkpt>
      <trkpt lat="43.02434799999965" lon="-1.3132879999999971">
        <ele>1149.476</ele>
        <time>2022-08-24T10:52:02Z</time>
      </trkpt>
      <trkpt lat="43.02430899999965" lon="-1.313345999999997">
        <ele>1148.473</ele>
        <time>2022-08-24T10:52:03Z</time>
      </trkpt>
      <trkpt lat="43.02422699999965" lon="-1.313444999999997">
        <ele>1147.276</ele>
        <time>2022-08-24T10:52:05Z</time>
      </trkpt>
      <trkpt lat="43.02418399999965" lon="-1.313487999999997">
        <ele>1146.850</ele>
        <time>2022-08-24T10:52:06Z</time>
      </trkpt>
      <trkpt lat="43.02414199999965" lon="-1.313523999999997">
        <ele>1145.849</ele>
        <time>2022-08-24T10:52:07Z</time>
      </trkpt>
      <trkpt lat="43.024100999999646" lon="-1.313553999999997">
        <ele>1145.663</ele>
        <time>2022-08-24T10:52:08Z</time>
      </trkpt>
      <trkpt lat="43.02405999999964" lon="-1.313578999999997">
        <ele>1145.444</ele>
        <time>2022-08-24T10:52:09Z</time>
      </trkpt>
      <trkpt lat="43.02402099999964" lon="-1.313604999999997">
        <ele>1144.818</ele>
        <time>2022-08-24T10:52:10Z</time>
      </trkpt>
      <trkpt lat="43.023943999999645" lon="-1.313650999999997">
        <ele>1144.209</ele>
        <time>2022-08-24T10:52:12Z</time>
      </trkpt>
      <trkpt lat="43.02390899999965" lon="-1.313670999999997">
        <ele>1143.897</ele>
        <time>2022-08-24T10:52:13Z</time>
      </trkpt>
      <trkpt lat="43.023878999999646" lon="-1.313685999999997">
        <ele>1143.087</ele>
        <time>2022-08-24T10:52:14Z</time>
      </trkpt>
      <trkpt lat="43.02384699999965" lon="-1.313699999999997">
        <ele>1142.867</ele>
        <time>2022-08-24T10:52:15Z</time>
      </trkpt>
      <trkpt lat="43.023813999999646" lon="-1.313714999999997">
        <ele>1142.633</ele>
        <time>2022-08-24T10:52:16Z</time>
      </trkpt>
      <trkpt lat="43.023777999999645" lon="-1.313728999999997">
        <ele>1142.495</ele>
        <time>2022-08-24T10:52:17Z</time>
      </trkpt>
      <trkpt lat="43.023740999999646" lon="-1.313742999999997">
        <ele>1142.262</ele>
        <time>2022-08-24T10:52:18Z</time>
      </trkpt>
      <trkpt lat="43.02370399999965" lon="-1.313752999999997">
        <ele>1142.035</ele>
        <time>2022-08-24T10:52:19Z</time>
      </trkpt>
      <trkpt lat="43.02362999999965" lon="-1.313772999999997">
        <ele>1141.079</ele>
        <time>2022-08-24T10:52:21Z</time>
      </trkpt>
      <trkpt lat="43.02359399999965" lon="-1.313789999999997">
        <ele>1140.288</ele>
        <time>2022-08-24T10:52:22Z</time>
      </trkpt>
      <trkpt lat="43.023557999999646" lon="-1.313813999999997">
        <ele>1139.835</ele>
        <time>2022-08-24T10:52:23Z</time>
      </trkpt>
      <trkpt lat="43.02352399999965" lon="-1.3138529999999968">
        <ele>1138.886</ele>
        <time>2022-08-24T10:52:24Z</time>
      </trkpt>
      <trkpt lat="43.02348999999965" lon="-1.3138939999999968">
        <ele>1138.414</ele>
        <time>2022-08-24T10:52:25Z</time>
      </trkpt>
      <trkpt lat="43.023459999999645" lon="-1.3139359999999969">
        <ele>1137.409</ele>
        <time>2022-08-24T10:52:26Z</time>
      </trkpt>
      <trkpt lat="43.02343099999965" lon="-1.313983999999997">
        <ele>1136.884</ele>
        <time>2022-08-24T10:52:27Z</time>
      </trkpt>
      <trkpt lat="43.023405999999646" lon="-1.314028999999997">
        <ele>1136.834</ele>
        <time>2022-08-24T10:52:28Z</time>
      </trkpt>
      <trkpt lat="43.02338299999965" lon="-1.314082999999997">
        <ele>1136.034</ele>
        <time>2022-08-24T10:52:29Z</time>
      </trkpt>
      <trkpt lat="43.02336499999965" lon="-1.314143999999997">
        <ele>1135.450</ele>
        <time>2022-08-24T10:52:30Z</time>
      </trkpt>
      <trkpt lat="43.02335299999965" lon="-1.314209999999997">
        <ele>1133.632</ele>
        <time>2022-08-24T10:52:31Z</time>
      </trkpt>
      <trkpt lat="43.023348999999655" lon="-1.314277999999997">
        <ele>1133.019</ele>
        <time>2022-08-24T10:52:32Z</time>
      </trkpt>
      <trkpt lat="43.023348999999655" lon="-1.314349999999997">
        <ele>1132.062</ele>
        <time>2022-08-24T10:52:33Z</time>
      </trkpt>
      <trkpt lat="43.023348999999655" lon="-1.314424999999997">
        <ele>1131.426</ele>
        <time>2022-08-24T10:52:34Z</time>
      </trkpt>
      <trkpt lat="43.02334499999966" lon="-1.3145049999999971">
        <ele>1131.035</ele>
        <time>2022-08-24T10:52:35Z</time>
      </trkpt>
      <trkpt lat="43.02330799999966" lon="-1.314753999999997">
        <ele>1129.657</ele>
        <time>2022-08-24T10:52:38Z</time>
      </trkpt>
      <trkpt lat="43.02329599999966" lon="-1.314838999999997">
        <ele>1128.800</ele>
        <time>2022-08-24T10:52:39Z</time>
      </trkpt>
      <trkpt lat="43.02328299999966" lon="-1.314925999999997">
        <ele>1128.420</ele>
        <time>2022-08-24T10:52:40Z</time>
      </trkpt>
      <trkpt lat="43.02324899999966" lon="-1.315106999999997">
        <ele>1127.409</ele>
        <time>2022-08-24T10:52:42Z</time>
      </trkpt>
      <trkpt lat="43.023204999999656" lon="-1.315387999999997">
        <ele>1126.066</ele>
        <time>2022-08-24T10:52:45Z</time>
      </trkpt>
      <trkpt lat="43.02319599999966" lon="-1.315481999999997">
        <ele>1125.276</ele>
        <time>2022-08-24T10:52:46Z</time>
      </trkpt>
      <trkpt lat="43.02319199999966" lon="-1.3155769999999969">
        <ele>1124.846</ele>
        <time>2022-08-24T10:52:47Z</time>
      </trkpt>
      <trkpt lat="43.02318699999966" lon="-1.315667999999997">
        <ele>1123.872</ele>
        <time>2022-08-24T10:52:48Z</time>
      </trkpt>
      <trkpt lat="43.02317899999966" lon="-1.315751999999997">
        <ele>1123.234</ele>
        <time>2022-08-24T10:52:49Z</time>
      </trkpt>
      <trkpt lat="43.02317299999966" lon="-1.315834999999997">
        <ele>1121.451</ele>
        <time>2022-08-24T10:52:50Z</time>
      </trkpt>
      <trkpt lat="43.02316899999966" lon="-1.315918999999997">
        <ele>1120.644</ele>
        <time>2022-08-24T10:52:51Z</time>
      </trkpt>
      <trkpt lat="43.023164999999665" lon="-1.3160009999999969">
        <ele>1119.888</ele>
        <time>2022-08-24T10:52:52Z</time>
      </trkpt>
      <trkpt lat="43.02316099999967" lon="-1.3160709999999969">
        <ele>1119.057</ele>
        <time>2022-08-24T10:52:53Z</time>
      </trkpt>
      <trkpt lat="43.023158999999666" lon="-1.3161289999999968">
        <ele>1118.891</ele>
        <time>2022-08-24T10:52:54Z</time>
      </trkpt>
      <trkpt lat="43.02315999999966" lon="-1.3161749999999968">
        <ele>1118.281</ele>
        <time>2022-08-24T10:52:55Z</time>
      </trkpt>
      <trkpt lat="43.02316099999966" lon="-1.3162159999999967">
        <ele>1117.619</ele>
        <time>2022-08-24T10:52:56Z</time>
      </trkpt>
      <trkpt lat="43.02316799999966" lon="-1.3162529999999968">
        <ele>1116.009</ele>
        <time>2022-08-24T10:52:57Z</time>
      </trkpt>
      <trkpt lat="43.02318099999966" lon="-1.3163349999999967">
        <ele>1114.870</ele>
        <time>2022-08-24T10:52:59Z</time>
      </trkpt>
      <trkpt lat="43.02317999999966" lon="-1.3163749999999967">
        <ele>1114.080</ele>
        <time>2022-08-24T10:53:00Z</time>
      </trkpt>
      <trkpt lat="43.023164999999665" lon="-1.3164129999999967">
        <ele>1113.810</ele>
        <time>2022-08-24T10:53:01Z</time>
      </trkpt>
      <trkpt lat="43.023130999999665" lon="-1.3164409999999966">
        <ele>1113.456</ele>
        <time>2022-08-24T10:53:02Z</time>
      </trkpt>
      <trkpt lat="43.02303899999966" lon="-1.3164569999999967">
        <ele>1112.628</ele>
        <time>2022-08-24T10:53:04Z</time>
      </trkpt>
      <trkpt lat="43.022925999999664" lon="-1.3164359999999966">
        <ele>1111.885</ele>
        <time>2022-08-24T10:53:06Z</time>
      </trkpt>
      <trkpt lat="43.022863999999664" lon="-1.3164319999999967">
        <ele>1111.448</ele>
        <time>2022-08-24T10:53:07Z</time>
      </trkpt>
      <trkpt lat="43.022804999999664" lon="-1.3164369999999967">
        <ele>1111.232</ele>
        <time>2022-08-24T10:53:08Z</time>
      </trkpt>
      <trkpt lat="43.02261999999966" lon="-1.3164899999999968">
        <ele>1110.231</ele>
        <time>2022-08-24T10:53:11Z</time>
      </trkpt>
      <trkpt lat="43.02256099999966" lon="-1.3165069999999968">
        <ele>1109.863</ele>
        <time>2022-08-24T10:53:12Z</time>
      </trkpt>
      <trkpt lat="43.022503999999664" lon="-1.3165229999999968">
        <ele>1109.444</ele>
        <time>2022-08-24T10:53:13Z</time>
      </trkpt>
      <trkpt lat="43.02244799999966" lon="-1.3165389999999968">
        <ele>1109.018</ele>
        <time>2022-08-24T10:53:14Z</time>
      </trkpt>
      <trkpt lat="43.02239599999967" lon="-1.3165569999999969">
        <ele>1108.609</ele>
        <time>2022-08-24T10:53:15Z</time>
      </trkpt>
      <trkpt lat="43.022351999999664" lon="-1.3165759999999969">
        <ele>1108.027</ele>
        <time>2022-08-24T10:53:16Z</time>
      </trkpt>
      <trkpt lat="43.022314999999665" lon="-1.3165959999999968">
        <ele>1107.437</ele>
        <time>2022-08-24T10:53:17Z</time>
      </trkpt>
      <trkpt lat="43.02227899999966" lon="-1.3166129999999967">
        <ele>1107.087</ele>
        <time>2022-08-24T10:53:18Z</time>
      </trkpt>
      <trkpt lat="43.022244999999664" lon="-1.3166239999999967">
        <ele>1106.673</ele>
        <time>2022-08-24T10:53:19Z</time>
      </trkpt>
      <trkpt lat="43.022218999999666" lon="-1.3166329999999966">
        <ele>1106.425</ele>
        <time>2022-08-24T10:53:20Z</time>
      </trkpt>
      <trkpt lat="43.02216999999967" lon="-1.3166569999999966">
        <ele>1106.052</ele>
        <time>2022-08-24T10:53:22Z</time>
      </trkpt>
      <trkpt lat="43.02212799999967" lon="-1.3166709999999966">
        <ele>1105.665</ele>
        <time>2022-08-24T10:53:23Z</time>
      </trkpt>
      <trkpt lat="43.02208599999967" lon="-1.3166819999999966">
        <ele>1105.229</ele>
        <time>2022-08-24T10:53:24Z</time>
      </trkpt>
      <trkpt lat="43.02199599999967" lon="-1.3167109999999966">
        <ele>1104.658</ele>
        <time>2022-08-24T10:53:26Z</time>
      </trkpt>
      <trkpt lat="43.02194999999967" lon="-1.3167239999999967">
        <ele>1104.473</ele>
        <time>2022-08-24T10:53:27Z</time>
      </trkpt>
      <trkpt lat="43.02189499999967" lon="-1.3167339999999967">
        <ele>1104.085</ele>
        <time>2022-08-24T10:53:28Z</time>
      </trkpt>
      <trkpt lat="43.02176399999966" lon="-1.3167569999999968">
        <ele>1103.813</ele>
        <time>2022-08-24T10:53:30Z</time>
      </trkpt>
      <trkpt lat="43.02157399999966" lon="-1.3168029999999968">
        <ele>1103.409</ele>
        <time>2022-08-24T10:53:33Z</time>
      </trkpt>
      <trkpt lat="43.02151099999966" lon="-1.3168229999999967">
        <ele>1103.278</ele>
        <time>2022-08-24T10:53:34Z</time>
      </trkpt>
      <trkpt lat="43.02144899999966" lon="-1.3168419999999967">
        <ele>1102.868</ele>
        <time>2022-08-24T10:53:35Z</time>
      </trkpt>
      <trkpt lat="43.02138799999966" lon="-1.3168519999999968">
        <ele>1102.868</ele>
        <time>2022-08-24T10:53:36Z</time>
      </trkpt>
      <trkpt lat="43.02133299999966" lon="-1.316858999999997">
        <ele>1102.644</ele>
        <time>2022-08-24T10:53:37Z</time>
      </trkpt>
      <trkpt lat="43.02128099999966" lon="-1.3168649999999968">
        <ele>1102.236</ele>
        <time>2022-08-24T10:53:38Z</time>
      </trkpt>
      <trkpt lat="43.02123599999966" lon="-1.3168659999999968">
        <ele>1102.043</ele>
        <time>2022-08-24T10:53:39Z</time>
      </trkpt>
      <trkpt lat="43.02119199999966" lon="-1.3168719999999967">
        <ele>1101.856</ele>
        <time>2022-08-24T10:53:40Z</time>
      </trkpt>
      <trkpt lat="43.02114299999966" lon="-1.3168779999999967">
        <ele>1101.610</ele>
        <time>2022-08-24T10:53:41Z</time>
      </trkpt>
      <trkpt lat="43.02089199999966" lon="-1.3169219999999966">
        <ele>1100.849</ele>
        <time>2022-08-24T10:53:45Z</time>
      </trkpt>
      <trkpt lat="43.02082799999966" lon="-1.3169359999999966">
        <ele>1100.822</ele>
        <time>2022-08-24T10:53:46Z</time>
      </trkpt>
      <trkpt lat="43.02076999999966" lon="-1.3169489999999966">
        <ele>1100.662</ele>
        <time>2022-08-24T10:53:47Z</time>
      </trkpt>
      <trkpt lat="43.020714999999655" lon="-1.3169679999999966">
        <ele>1100.008</ele>
        <time>2022-08-24T10:53:48Z</time>
      </trkpt>
      <trkpt lat="43.02066299999966" lon="-1.3169919999999966">
        <ele>1099.809</ele>
        <time>2022-08-24T10:53:49Z</time>
      </trkpt>
      <trkpt lat="43.02061399999966" lon="-1.3170219999999966">
        <ele>1099.453</ele>
        <time>2022-08-24T10:53:50Z</time>
      </trkpt>
      <trkpt lat="43.02056399999966" lon="-1.3170579999999965">
        <ele>1099.263</ele>
        <time>2022-08-24T10:53:51Z</time>
      </trkpt>
      <trkpt lat="43.02051499999966" lon="-1.3171039999999965">
        <ele>1099.043</ele>
        <time>2022-08-24T10:53:52Z</time>
      </trkpt>
      <trkpt lat="43.02046799999966" lon="-1.3171549999999965">
        <ele>1098.859</ele>
        <time>2022-08-24T10:53:53Z</time>
      </trkpt>
      <trkpt lat="43.02042199999966" lon="-1.3172059999999965">
        <ele>1098.041</ele>
        <time>2022-08-24T10:53:54Z</time>
      </trkpt>
      <trkpt lat="43.02037699999966" lon="-1.3172529999999965">
        <ele>1097.668</ele>
        <time>2022-08-24T10:53:55Z</time>
      </trkpt>
      <trkpt lat="43.02033499999966" lon="-1.3173019999999964">
        <ele>1097.421</ele>
        <time>2022-08-24T10:53:56Z</time>
      </trkpt>
      <trkpt lat="43.02030099999966" lon="-1.3173519999999965">
        <ele>1096.655</ele>
        <time>2022-08-24T10:53:57Z</time>
      </trkpt>
      <trkpt lat="43.02027299999966" lon="-1.3174019999999966">
        <ele>1096.034</ele>
        <time>2022-08-24T10:53:58Z</time>
      </trkpt>
      <trkpt lat="43.02025399999966" lon="-1.3174559999999966">
        <ele>1095.465</ele>
        <time>2022-08-24T10:53:59Z</time>
      </trkpt>
      <trkpt lat="43.02024399999966" lon="-1.3175129999999966">
        <ele>1094.268</ele>
        <time>2022-08-24T10:54:00Z</time>
      </trkpt>
      <trkpt lat="43.020247999999654" lon="-1.3175709999999965">
        <ele>1093.614</ele>
        <time>2022-08-24T10:54:01Z</time>
      </trkpt>
      <trkpt lat="43.02026099999966" lon="-1.3176209999999966">
        <ele>1092.809</ele>
        <time>2022-08-24T10:54:02Z</time>
      </trkpt>
      <trkpt lat="43.02027999999966" lon="-1.3176659999999967">
        <ele>1092.637</ele>
        <time>2022-08-24T10:54:03Z</time>
      </trkpt>
      <trkpt lat="43.02029999999966" lon="-1.3177029999999967">
        <ele>1092.417</ele>
        <time>2022-08-24T10:54:04Z</time>
      </trkpt>
      <trkpt lat="43.020317999999655" lon="-1.3177339999999966">
        <ele>1092.267</ele>
        <time>2022-08-24T10:54:05Z</time>
      </trkpt>
      <trkpt lat="43.02033699999966" lon="-1.3177609999999966">
        <ele>1092.093</ele>
        <time>2022-08-24T10:54:06Z</time>
      </trkpt>
      <trkpt lat="43.02037799999966" lon="-1.3178139999999967">
        <ele>1091.855</ele>
        <time>2022-08-24T10:54:08Z</time>
      </trkpt>
      <trkpt lat="43.02040299999966" lon="-1.3178499999999966">
        <ele>1091.882</ele>
        <time>2022-08-24T10:54:09Z</time>
      </trkpt>
      <trkpt lat="43.02052099999966" lon="-1.3180029999999967">
        <ele>1091.835</ele>
        <time>2022-08-24T10:54:13Z</time>
      </trkpt>
      <trkpt lat="43.02055499999966" lon="-1.3180359999999967">
        <ele>1091.849</ele>
        <time>2022-08-24T10:54:14Z</time>
      </trkpt>
      <trkpt lat="43.020671999999664" lon="-1.3181319999999968">
        <ele>1091.678</ele>
        <time>2022-08-24T10:54:17Z</time>
      </trkpt>
      <trkpt lat="43.02071199999966" lon="-1.3181509999999967">
        <ele>1091.664</ele>
        <time>2022-08-24T10:54:18Z</time>
      </trkpt>
      <trkpt lat="43.02075399999966" lon="-1.3181569999999967">
        <ele>1091.606</ele>
        <time>2022-08-24T10:54:19Z</time>
      </trkpt>
      <trkpt lat="43.02079399999966" lon="-1.3181539999999967">
        <ele>1091.416</ele>
        <time>2022-08-24T10:54:20Z</time>
      </trkpt>
      <trkpt lat="43.020834999999664" lon="-1.3181519999999967">
        <ele>1091.009</ele>
        <time>2022-08-24T10:54:21Z</time>
      </trkpt>
      <trkpt lat="43.02087299999967" lon="-1.3181619999999967">
        <ele>1090.817</ele>
        <time>2022-08-24T10:54:22Z</time>
      </trkpt>
      <trkpt lat="43.02090899999967" lon="-1.3181829999999968">
        <ele>1090.427</ele>
        <time>2022-08-24T10:54:23Z</time>
      </trkpt>
      <trkpt lat="43.02093899999967" lon="-1.3182119999999968">
        <ele>1090.267</ele>
        <time>2022-08-24T10:54:24Z</time>
      </trkpt>
      <trkpt lat="43.020954999999674" lon="-1.318248999999997">
        <ele>1090.023</ele>
        <time>2022-08-24T10:54:25Z</time>
      </trkpt>
      <trkpt lat="43.020954999999674" lon="-1.318291999999997">
        <ele>1089.885</ele>
        <time>2022-08-24T10:54:26Z</time>
      </trkpt>
      <trkpt lat="43.02094399999967" lon="-1.318331999999997">
        <ele>1089.662</ele>
        <time>2022-08-24T10:54:27Z</time>
      </trkpt>
      <trkpt lat="43.020917999999675" lon="-1.3183629999999968">
        <ele>1089.495</ele>
        <time>2022-08-24T10:54:28Z</time>
      </trkpt>
      <trkpt lat="43.02088199999967" lon="-1.3183819999999968">
        <ele>1089.479</ele>
        <time>2022-08-24T10:54:29Z</time>
      </trkpt>
      <trkpt lat="43.020841999999675" lon="-1.3183879999999968">
        <ele>1089.248</ele>
        <time>2022-08-24T10:54:30Z</time>
      </trkpt>
      <trkpt lat="43.02079799999967" lon="-1.3183899999999968">
        <ele>1089.076</ele>
        <time>2022-08-24T10:54:31Z</time>
      </trkpt>
      <trkpt lat="43.02074999999967" lon="-1.318388999999997">
        <ele>1089.090</ele>
        <time>2022-08-24T10:54:32Z</time>
      </trkpt>
      <trkpt lat="43.020700999999676" lon="-1.3183899999999968">
        <ele>1088.819</ele>
        <time>2022-08-24T10:54:33Z</time>
      </trkpt>
      <trkpt lat="43.02059499999967" lon="-1.318377999999997">
        <ele>1088.609</ele>
        <time>2022-08-24T10:54:35Z</time>
      </trkpt>
      <trkpt lat="43.02047799999967" lon="-1.3183549999999968">
        <ele>1087.828</ele>
        <time>2022-08-24T10:54:37Z</time>
      </trkpt>
      <trkpt lat="43.02041799999967" lon="-1.3183289999999968">
        <ele>1087.258</ele>
        <time>2022-08-24T10:54:38Z</time>
      </trkpt>
      <trkpt lat="43.02030299999967" lon="-1.3182469999999968">
        <ele>1086.088</ele>
        <time>2022-08-24T10:54:40Z</time>
      </trkpt>
      <trkpt lat="43.02013199999967" lon="-1.3180979999999969">
        <ele>1084.824</ele>
        <time>2022-08-24T10:54:43Z</time>
      </trkpt>
      <trkpt lat="43.02000499999967" lon="-1.317996999999997">
        <ele>1083.646</ele>
        <time>2022-08-24T10:54:45Z</time>
      </trkpt>
      <trkpt lat="43.01993999999967" lon="-1.317945999999997">
        <ele>1083.283</ele>
        <time>2022-08-24T10:54:46Z</time>
      </trkpt>
      <trkpt lat="43.019876999999674" lon="-1.317894999999997">
        <ele>1082.846</ele>
        <time>2022-08-24T10:54:47Z</time>
      </trkpt>
      <trkpt lat="43.01981899999967" lon="-1.317842999999997">
        <ele>1082.410</ele>
        <time>2022-08-24T10:54:48Z</time>
      </trkpt>
      <trkpt lat="43.01977099999967" lon="-1.317796999999997">
        <ele>1082.059</ele>
        <time>2022-08-24T10:54:49Z</time>
      </trkpt>
      <trkpt lat="43.019727999999674" lon="-1.317758999999997">
        <ele>1081.425</ele>
        <time>2022-08-24T10:54:50Z</time>
      </trkpt>
      <trkpt lat="43.019687999999675" lon="-1.317724999999997">
        <ele>1080.426</ele>
        <time>2022-08-24T10:54:51Z</time>
      </trkpt>
      <trkpt lat="43.01964799999968" lon="-1.317694999999997">
        <ele>1079.608</ele>
        <time>2022-08-24T10:54:52Z</time>
      </trkpt>
      <trkpt lat="43.01960999999967" lon="-1.317669999999997">
        <ele>1079.409</ele>
        <time>2022-08-24T10:54:53Z</time>
      </trkpt>
      <trkpt lat="43.01957199999967" lon="-1.317650999999997">
        <ele>1078.853</ele>
        <time>2022-08-24T10:54:54Z</time>
      </trkpt>
      <trkpt lat="43.019533999999666" lon="-1.317642999999997">
        <ele>1078.283</ele>
        <time>2022-08-24T10:54:55Z</time>
      </trkpt>
      <trkpt lat="43.01949699999967" lon="-1.317654999999997">
        <ele>1077.453</ele>
        <time>2022-08-24T10:54:56Z</time>
      </trkpt>
      <trkpt lat="43.01946899999967" lon="-1.3176879999999969">
        <ele>1076.429</ele>
        <time>2022-08-24T10:54:57Z</time>
      </trkpt>
      <trkpt lat="43.019452999999665" lon="-1.3177319999999968">
        <ele>1076.261</ele>
        <time>2022-08-24T10:54:58Z</time>
      </trkpt>
      <trkpt lat="43.01945199999967" lon="-1.3177829999999968">
        <ele>1075.638</ele>
        <time>2022-08-24T10:54:59Z</time>
      </trkpt>
      <trkpt lat="43.01947099999967" lon="-1.317827999999997">
        <ele>1075.441</ele>
        <time>2022-08-24T10:55:00Z</time>
      </trkpt>
      <trkpt lat="43.01954199999967" lon="-1.3179019999999968">
        <ele>1074.825</ele>
        <time>2022-08-24T10:55:02Z</time>
      </trkpt>
      <trkpt lat="43.01958399999967" lon="-1.3179309999999969">
        <ele>1074.484</ele>
        <time>2022-08-24T10:55:03Z</time>
      </trkpt>
      <trkpt lat="43.019626999999666" lon="-1.317964999999997">
        <ele>1074.222</ele>
        <time>2022-08-24T10:55:04Z</time>
      </trkpt>
      <trkpt lat="43.01967099999967" lon="-1.3180039999999968">
        <ele>1074.062</ele>
        <time>2022-08-24T10:55:05Z</time>
      </trkpt>
      <trkpt lat="43.01976099999967" lon="-1.3180969999999967">
        <ele>1073.608</ele>
        <time>2022-08-24T10:55:07Z</time>
      </trkpt>
      <trkpt lat="43.019806999999666" lon="-1.3181479999999968">
        <ele>1073.209</ele>
        <time>2022-08-24T10:55:08Z</time>
      </trkpt>
      <trkpt lat="43.02002199999966" lon="-1.3184269999999967">
        <ele>1072.243</ele>
        <time>2022-08-24T10:55:13Z</time>
      </trkpt>
      <trkpt lat="43.02005999999967" lon="-1.3184889999999967">
        <ele>1071.853</ele>
        <time>2022-08-24T10:55:14Z</time>
      </trkpt>
      <trkpt lat="43.020096999999666" lon="-1.3185549999999966">
        <ele>1071.043</ele>
        <time>2022-08-24T10:55:15Z</time>
      </trkpt>
      <trkpt lat="43.02013199999966" lon="-1.3186269999999967">
        <ele>1070.439</ele>
        <time>2022-08-24T10:55:16Z</time>
      </trkpt>
      <trkpt lat="43.020186999999666" lon="-1.3187959999999967">
        <ele>1069.841</ele>
        <time>2022-08-24T10:55:18Z</time>
      </trkpt>
      <trkpt lat="43.02021399999967" lon="-1.3188799999999967">
        <ele>1069.678</ele>
        <time>2022-08-24T10:55:19Z</time>
      </trkpt>
      <trkpt lat="43.02023699999967" lon="-1.3189559999999967">
        <ele>1069.081</ele>
        <time>2022-08-24T10:55:20Z</time>
      </trkpt>
      <trkpt lat="43.02025599999967" lon="-1.3190279999999968">
        <ele>1068.675</ele>
        <time>2022-08-24T10:55:21Z</time>
      </trkpt>
      <trkpt lat="43.02027799999967" lon="-1.3190989999999967">
        <ele>1068.074</ele>
        <time>2022-08-24T10:55:22Z</time>
      </trkpt>
      <trkpt lat="43.02030699999967" lon="-1.3191679999999968">
        <ele>1067.875</ele>
        <time>2022-08-24T10:55:23Z</time>
      </trkpt>
      <trkpt lat="43.020335999999666" lon="-1.3192319999999969">
        <ele>1067.228</ele>
        <time>2022-08-24T10:55:24Z</time>
      </trkpt>
      <trkpt lat="43.02040199999966" lon="-1.319362999999997">
        <ele>1066.820</ele>
        <time>2022-08-24T10:55:26Z</time>
      </trkpt>
      <trkpt lat="43.020516999999664" lon="-1.319556999999997">
        <ele>1065.609</ele>
        <time>2022-08-24T10:55:29Z</time>
      </trkpt>
      <trkpt lat="43.020586999999665" lon="-1.319685999999997">
        <ele>1064.238</ele>
        <time>2022-08-24T10:55:31Z</time>
      </trkpt>
      <trkpt lat="43.020662999999665" lon="-1.319806999999997">
        <ele>1063.048</ele>
        <time>2022-08-24T10:55:33Z</time>
      </trkpt>
      <trkpt lat="43.020755999999665" lon="-1.319919999999997">
        <ele>1061.268</ele>
        <time>2022-08-24T10:55:35Z</time>
      </trkpt>
      <trkpt lat="43.02079699999967" lon="-1.319968999999997">
        <ele>1061.064</ele>
        <time>2022-08-24T10:55:36Z</time>
      </trkpt>
      <trkpt lat="43.02083499999967" lon="-1.3200139999999971">
        <ele>1060.636</ele>
        <time>2022-08-24T10:55:37Z</time>
      </trkpt>
      <trkpt lat="43.02087099999967" lon="-1.3200569999999971">
        <ele>1060.293</ele>
        <time>2022-08-24T10:55:38Z</time>
      </trkpt>
      <trkpt lat="43.020903999999675" lon="-1.3201019999999972">
        <ele>1059.856</ele>
        <time>2022-08-24T10:55:39Z</time>
      </trkpt>
      <trkpt lat="43.02092999999967" lon="-1.3201469999999973">
        <ele>1059.460</ele>
        <time>2022-08-24T10:55:40Z</time>
      </trkpt>
      <trkpt lat="43.020948999999675" lon="-1.3201939999999972">
        <ele>1058.429</ele>
        <time>2022-08-24T10:55:41Z</time>
      </trkpt>
      <trkpt lat="43.02095799999967" lon="-1.3202429999999972">
        <ele>1057.652</ele>
        <time>2022-08-24T10:55:42Z</time>
      </trkpt>
      <trkpt lat="43.02095899999967" lon="-1.3202959999999972">
        <ele>1057.253</ele>
        <time>2022-08-24T10:55:43Z</time>
      </trkpt>
      <trkpt lat="43.02094799999967" lon="-1.3203489999999973">
        <ele>1056.808</ele>
        <time>2022-08-24T10:55:44Z</time>
      </trkpt>
      <trkpt lat="43.02091899999967" lon="-1.3203939999999974">
        <ele>1056.609</ele>
        <time>2022-08-24T10:55:45Z</time>
      </trkpt>
      <trkpt lat="43.02087699999967" lon="-1.3204339999999974">
        <ele>1056.286</ele>
        <time>2022-08-24T10:55:46Z</time>
      </trkpt>
      <trkpt lat="43.020793999999675" lon="-1.3205119999999975">
        <ele>1055.286</ele>
        <time>2022-08-24T10:55:48Z</time>
      </trkpt>
      <trkpt lat="43.020751999999675" lon="-1.3205539999999976">
        <ele>1055.066</ele>
        <time>2022-08-24T10:55:49Z</time>
      </trkpt>
      <trkpt lat="43.02067199999968" lon="-1.3206539999999976">
        <ele>1054.422</ele>
        <time>2022-08-24T10:55:51Z</time>
      </trkpt>
      <trkpt lat="43.020638999999676" lon="-1.3207109999999975">
        <ele>1054.274</ele>
        <time>2022-08-24T10:55:52Z</time>
      </trkpt>
      <trkpt lat="43.02061299999968" lon="-1.3207679999999975">
        <ele>1054.041</ele>
        <time>2022-08-24T10:55:53Z</time>
      </trkpt>
      <trkpt lat="43.02058699999968" lon="-1.3208229999999974">
        <ele>1053.844</ele>
        <time>2022-08-24T10:55:54Z</time>
      </trkpt>
      <trkpt lat="43.020500999999676" lon="-1.3210169999999974">
        <ele>1053.278</ele>
        <time>2022-08-24T10:55:57Z</time>
      </trkpt>
      <trkpt lat="43.02046599999968" lon="-1.3210769999999974">
        <ele>1052.697</ele>
        <time>2022-08-24T10:55:58Z</time>
      </trkpt>
      <trkpt lat="43.02043499999968" lon="-1.3211289999999973">
        <ele>1051.838</ele>
        <time>2022-08-24T10:55:59Z</time>
      </trkpt>
      <trkpt lat="43.02040099999968" lon="-1.3211759999999972">
        <ele>1051.670</ele>
        <time>2022-08-24T10:56:00Z</time>
      </trkpt>
      <trkpt lat="43.02036899999968" lon="-1.3212209999999973">
        <ele>1051.217</ele>
        <time>2022-08-24T10:56:01Z</time>
      </trkpt>
      <trkpt lat="43.02033899999968" lon="-1.3212669999999973">
        <ele>1051.009</ele>
        <time>2022-08-24T10:56:02Z</time>
      </trkpt>
      <trkpt lat="43.02031299999968" lon="-1.3213169999999974">
        <ele>1050.644</ele>
        <time>2022-08-24T10:56:03Z</time>
      </trkpt>
      <trkpt lat="43.02028899999968" lon="-1.3213619999999975">
        <ele>1050.454</ele>
        <time>2022-08-24T10:56:04Z</time>
      </trkpt>
      <trkpt lat="43.02026599999968" lon="-1.3214019999999975">
        <ele>1049.444</ele>
        <time>2022-08-24T10:56:05Z</time>
      </trkpt>
      <trkpt lat="43.02024699999968" lon="-1.3214379999999974">
        <ele>1048.440</ele>
        <time>2022-08-24T10:56:06Z</time>
      </trkpt>
      <trkpt lat="43.02022999999968" lon="-1.3214789999999974">
        <ele>1048.272</ele>
        <time>2022-08-24T10:56:07Z</time>
      </trkpt>
      <trkpt lat="43.02021799999968" lon="-1.3215189999999974">
        <ele>1047.619</ele>
        <time>2022-08-24T10:56:08Z</time>
      </trkpt>
      <trkpt lat="43.02021199999968" lon="-1.3215519999999974">
        <ele>1047.422</ele>
        <time>2022-08-24T10:56:09Z</time>
      </trkpt>
      <trkpt lat="43.020207999999684" lon="-1.3215919999999974">
        <ele>1047.076</ele>
        <time>2022-08-24T10:56:10Z</time>
      </trkpt>
      <trkpt lat="43.020204999999685" lon="-1.3216389999999973">
        <ele>1046.865</ele>
        <time>2022-08-24T10:56:11Z</time>
      </trkpt>
      <trkpt lat="43.02020699999969" lon="-1.3216869999999974">
        <ele>1046.442</ele>
        <time>2022-08-24T10:56:12Z</time>
      </trkpt>
      <trkpt lat="43.020212999999686" lon="-1.3217869999999974">
        <ele>1045.822</ele>
        <time>2022-08-24T10:56:14Z</time>
      </trkpt>
      <trkpt lat="43.02021499999969" lon="-1.3218389999999973">
        <ele>1045.214</ele>
        <time>2022-08-24T10:56:15Z</time>
      </trkpt>
      <trkpt lat="43.02021799999969" lon="-1.3218839999999974">
        <ele>1044.809</ele>
        <time>2022-08-24T10:56:16Z</time>
      </trkpt>
      <trkpt lat="43.02021999999969" lon="-1.3219279999999973">
        <ele>1043.815</ele>
        <time>2022-08-24T10:56:17Z</time>
      </trkpt>
      <trkpt lat="43.02021999999969" lon="-1.3219729999999974">
        <ele>1043.025</ele>
        <time>2022-08-24T10:56:18Z</time>
      </trkpt>
      <trkpt lat="43.02022199999969" lon="-1.3220539999999974">
        <ele>1041.835</ele>
        <time>2022-08-24T10:56:20Z</time>
      </trkpt>
      <trkpt lat="43.02022599999969" lon="-1.3220849999999973">
        <ele>1041.661</ele>
        <time>2022-08-24T10:56:21Z</time>
      </trkpt>
      <trkpt lat="43.02023399999969" lon="-1.3221119999999973">
        <ele>1040.883</ele>
        <time>2022-08-24T10:56:22Z</time>
      </trkpt>
      <trkpt lat="43.02024499999969" lon="-1.3221399999999972">
        <ele>1040.660</ele>
        <time>2022-08-24T10:56:23Z</time>
      </trkpt>
      <trkpt lat="43.02025099999969" lon="-1.3221749999999972">
        <ele>1040.473</ele>
        <time>2022-08-24T10:56:24Z</time>
      </trkpt>
      <trkpt lat="43.02028899999969" lon="-1.3222919999999971">
        <ele>1040.047</ele>
        <time>2022-08-24T10:56:27Z</time>
      </trkpt>
      <trkpt lat="43.02031499999969" lon="-1.3223829999999972">
        <ele>1039.846</ele>
        <time>2022-08-24T10:56:29Z</time>
      </trkpt>
      <trkpt lat="43.02033399999969" lon="-1.3224809999999971">
        <ele>1039.283</ele>
        <time>2022-08-24T10:56:31Z</time>
      </trkpt>
      <trkpt lat="43.020338999999694" lon="-1.3225309999999972">
        <ele>1038.625</ele>
        <time>2022-08-24T10:56:32Z</time>
      </trkpt>
      <trkpt lat="43.020335999999695" lon="-1.3225799999999972">
        <ele>1038.617</ele>
        <time>2022-08-24T10:56:33Z</time>
      </trkpt>
      <trkpt lat="43.0203099999997" lon="-1.3227419999999972">
        <ele>1037.409</ele>
        <time>2022-08-24T10:56:36Z</time>
      </trkpt>
      <trkpt lat="43.020265999999694" lon="-1.3229449999999972">
        <ele>1036.629</ele>
        <time>2022-08-24T10:56:39Z</time>
      </trkpt>
      <trkpt lat="43.0202479999997" lon="-1.3230169999999972">
        <ele>1036.479</ele>
        <time>2022-08-24T10:56:40Z</time>
      </trkpt>
      <trkpt lat="43.0202139999997" lon="-1.3231579999999972">
        <ele>1035.889</ele>
        <time>2022-08-24T10:56:42Z</time>
      </trkpt>
      <trkpt lat="43.0201999999997" lon="-1.3232219999999972">
        <ele>1035.065</ele>
        <time>2022-08-24T10:56:43Z</time>
      </trkpt>
      <trkpt lat="43.0201929999997" lon="-1.3232899999999972">
        <ele>1034.857</ele>
        <time>2022-08-24T10:56:44Z</time>
      </trkpt>
      <trkpt lat="43.0201929999997" lon="-1.323363999999997">
        <ele>1034.444</ele>
        <time>2022-08-24T10:56:45Z</time>
      </trkpt>
      <trkpt lat="43.0201949999997" lon="-1.323436999999997">
        <ele>1033.847</ele>
        <time>2022-08-24T10:56:46Z</time>
      </trkpt>
      <trkpt lat="43.020196999999705" lon="-1.323507999999997">
        <ele>1033.661</ele>
        <time>2022-08-24T10:56:47Z</time>
      </trkpt>
      <trkpt lat="43.02019299999971" lon="-1.323661999999997">
        <ele>1032.850</ele>
        <time>2022-08-24T10:56:49Z</time>
      </trkpt>
      <trkpt lat="43.02018099999971" lon="-1.323742999999997">
        <ele>1032.016</ele>
        <time>2022-08-24T10:56:50Z</time>
      </trkpt>
      <trkpt lat="43.02016199999971" lon="-1.323813999999997">
        <ele>1031.476</ele>
        <time>2022-08-24T10:56:51Z</time>
      </trkpt>
      <trkpt lat="43.020142999999706" lon="-1.323874999999997">
        <ele>1031.213</ele>
        <time>2022-08-24T10:56:52Z</time>
      </trkpt>
      <trkpt lat="43.02012799999971" lon="-1.323925999999997">
        <ele>1030.609</ele>
        <time>2022-08-24T10:56:53Z</time>
      </trkpt>
      <trkpt lat="43.02011999999971" lon="-1.3239679999999971">
        <ele>1030.232</ele>
        <time>2022-08-24T10:56:54Z</time>
      </trkpt>
      <trkpt lat="43.020126999999704" lon="-1.3240019999999972">
        <ele>1030.082</ele>
        <time>2022-08-24T10:56:55Z</time>
      </trkpt>
      <trkpt lat="43.020148999999705" lon="-1.3240259999999973">
        <ele>1029.652</ele>
        <time>2022-08-24T10:56:56Z</time>
      </trkpt>
      <trkpt lat="43.02017899999971" lon="-1.3240399999999972">
        <ele>1029.638</ele>
        <time>2022-08-24T10:56:57Z</time>
      </trkpt>
      <trkpt lat="43.020210999999705" lon="-1.3240509999999972">
        <ele>1029.690</ele>
        <time>2022-08-24T10:56:58Z</time>
      </trkpt>
      <trkpt lat="43.0202399999997" lon="-1.3240659999999973">
        <ele>1029.647</ele>
        <time>2022-08-24T10:56:59Z</time>
      </trkpt>
      <trkpt lat="43.0202709999997" lon="-1.3240769999999973">
        <ele>1029.690</ele>
        <time>2022-08-24T10:57:00Z</time>
      </trkpt>
      <trkpt lat="43.0202999999997" lon="-1.3240939999999972">
        <ele>1029.624</ele>
        <time>2022-08-24T10:57:01Z</time>
      </trkpt>
      <trkpt lat="43.0203249999997" lon="-1.3241109999999972">
        <ele>1029.873</ele>
        <time>2022-08-24T10:57:02Z</time>
      </trkpt>
      <trkpt lat="43.0203479999997" lon="-1.324130999999997">
        <ele>1029.878</ele>
        <time>2022-08-24T10:57:03Z</time>
      </trkpt>
      <trkpt lat="43.0203739999997" lon="-1.324146999999997">
        <ele>1029.833</ele>
        <time>2022-08-24T10:57:04Z</time>
      </trkpt>
      <trkpt lat="43.0203939999997" lon="-1.324160999999997">
        <ele>1030.026</ele>
        <time>2022-08-24T10:57:05Z</time>
      </trkpt>
      <trkpt lat="43.020408999999695" lon="-1.324176999999997">
        <ele>1030.009</ele>
        <time>2022-08-24T10:57:06Z</time>
      </trkpt>
      <trkpt lat="43.020416999999696" lon="-1.3241949999999971">
        <ele>1030.028</ele>
        <time>2022-08-24T10:57:07Z</time>
      </trkpt>
      <trkpt lat="43.0204159999997" lon="-1.3242109999999971">
        <ele>1030.278</ele>
        <time>2022-08-24T10:57:08Z</time>
      </trkpt>
      <trkpt lat="43.0204069999997" lon="-1.3242129999999972">
        <ele>1030.488</ele>
        <time>2022-08-24T10:57:09Z</time>
      </trkpt>
      <trkpt lat="43.0203949999997" lon="-1.3242089999999973">
        <ele>1030.434</ele>
        <time>2022-08-24T10:57:10Z</time>
      </trkpt>
      <trkpt lat="43.020382999999704" lon="-1.3242039999999973">
        <ele>1030.636</ele>
        <time>2022-08-24T10:57:11Z</time>
      </trkpt>
      <trkpt lat="43.02037599999971" lon="-1.3242019999999972">
        <ele>1030.683</ele>
        <time>2022-08-24T10:57:12Z</time>
      </trkpt>
      <trkpt lat="43.02037599999971" lon="-1.3241999999999972">
        <ele>1030.846</ele>
        <time>2022-08-24T10:57:36Z</time>
      </trkpt>
      <trkpt lat="43.020376999999705" lon="-1.3241939999999972">
        <ele>1030.840</ele>
        <time>2022-08-24T10:57:37Z</time>
      </trkpt>
      <trkpt lat="43.020373999999705" lon="-1.3241769999999973">
        <ele>1030.629</ele>
        <time>2022-08-24T10:57:59Z</time>
      </trkpt>
      <trkpt lat="43.0203499999997" lon="-1.3241539999999972">
        <ele>1030.478</ele>
        <time>2022-08-24T10:58:01Z</time>
      </trkpt>
      <trkpt lat="43.0202809999997" lon="-1.3241189999999972">
        <ele>1030.433</ele>
        <time>2022-08-24T10:58:04Z</time>
      </trkpt>
      <trkpt lat="43.020253999999696" lon="-1.324103999999997">
        <ele>1030.426</ele>
        <time>2022-08-24T10:58:05Z</time>
      </trkpt>
      <trkpt lat="43.02022699999969" lon="-1.324085999999997">
        <ele>1030.409</ele>
        <time>2022-08-24T10:58:06Z</time>
      </trkpt>
      <trkpt lat="43.02010299999969" lon="-1.324002999999997">
        <ele>1030.438</ele>
        <time>2022-08-24T10:58:10Z</time>
      </trkpt>
      <trkpt lat="43.020017999999695" lon="-1.323971999999997">
        <ele>1030.288</ele>
        <time>2022-08-24T10:58:12Z</time>
      </trkpt>
      <trkpt lat="43.01992899999969" lon="-1.3239599999999971">
        <ele>1029.838</ele>
        <time>2022-08-24T10:58:14Z</time>
      </trkpt>
      <trkpt lat="43.01989099999969" lon="-1.3239619999999972">
        <ele>1029.634</ele>
        <time>2022-08-24T10:58:15Z</time>
      </trkpt>
      <trkpt lat="43.01986499999969" lon="-1.3239639999999973">
        <ele>1029.256</ele>
        <time>2022-08-24T10:58:16Z</time>
      </trkpt>
      <trkpt lat="43.01984899999969" lon="-1.3239649999999972">
        <ele>1028.883</ele>
        <time>2022-08-24T10:58:17Z</time>
      </trkpt>
      <trkpt lat="43.01983799999969" lon="-1.3239639999999973">
        <ele>1028.696</ele>
        <time>2022-08-24T10:58:18Z</time>
      </trkpt>
      <trkpt lat="43.019824999999685" lon="-1.3239659999999973">
        <ele>1028.430</ele>
        <time>2022-08-24T10:58:19Z</time>
      </trkpt>
      <trkpt lat="43.019753999999686" lon="-1.3239809999999974">
        <ele>1028.239</ele>
        <time>2022-08-24T10:58:22Z</time>
      </trkpt>
      <trkpt lat="43.019675999999684" lon="-1.3239709999999973">
        <ele>1028.074</ele>
        <time>2022-08-24T10:58:24Z</time>
      </trkpt>
      <trkpt lat="43.019632999999686" lon="-1.3239479999999972">
        <ele>1028.056</ele>
        <time>2022-08-24T10:58:25Z</time>
      </trkpt>
      <trkpt lat="43.01958999999969" lon="-1.3239189999999972">
        <ele>1027.821</ele>
        <time>2022-08-24T10:58:26Z</time>
      </trkpt>
      <trkpt lat="43.01954699999969" lon="-1.3238819999999971">
        <ele>1027.809</ele>
        <time>2022-08-24T10:58:27Z</time>
      </trkpt>
      <trkpt lat="43.01949799999969" lon="-1.323849999999997">
        <ele>1027.688</ele>
        <time>2022-08-24T10:58:28Z</time>
      </trkpt>
      <trkpt lat="43.019448999999696" lon="-1.3238189999999972">
        <ele>1027.688</ele>
        <time>2022-08-24T10:58:29Z</time>
      </trkpt>
      <trkpt lat="43.0194029999997" lon="-1.3237919999999972">
        <ele>1027.278</ele>
        <time>2022-08-24T10:58:30Z</time>
      </trkpt>
      <trkpt lat="43.0193639999997" lon="-1.3237659999999971">
        <ele>1026.834</ele>
        <time>2022-08-24T10:58:31Z</time>
      </trkpt>
      <trkpt lat="43.0193269999997" lon="-1.3237409999999972">
        <ele>1026.616</ele>
        <time>2022-08-24T10:58:32Z</time>
      </trkpt>
      <trkpt lat="43.0192869999997" lon="-1.3237209999999973">
        <ele>1026.233</ele>
        <time>2022-08-24T10:58:33Z</time>
      </trkpt>
      <trkpt lat="43.0191609999997" lon="-1.3236769999999973">
        <ele>1025.266</ele>
        <time>2022-08-24T10:58:36Z</time>
      </trkpt>
      <trkpt lat="43.0191179999997" lon="-1.3236609999999973">
        <ele>1025.250</ele>
        <time>2022-08-24T10:58:37Z</time>
      </trkpt>
      <trkpt lat="43.0190769999997" lon="-1.3236459999999972">
        <ele>1024.869</ele>
        <time>2022-08-24T10:58:38Z</time>
      </trkpt>
      <trkpt lat="43.0190369999997" lon="-1.3236329999999972">
        <ele>1024.677</ele>
        <time>2022-08-24T10:58:39Z</time>
      </trkpt>
      <trkpt lat="43.0189999999997" lon="-1.3236219999999972">
        <ele>1024.261</ele>
        <time>2022-08-24T10:58:40Z</time>
      </trkpt>
      <trkpt lat="43.018961999999696" lon="-1.3236109999999972">
        <ele>1024.027</ele>
        <time>2022-08-24T10:58:41Z</time>
      </trkpt>
      <trkpt lat="43.0188789999997" lon="-1.3235859999999973">
        <ele>1023.009</ele>
        <time>2022-08-24T10:58:43Z</time>
      </trkpt>
      <trkpt lat="43.0188349999997" lon="-1.3235759999999972">
        <ele>1023.038</ele>
        <time>2022-08-24T10:58:44Z</time>
      </trkpt>
      <trkpt lat="43.018700999999695" lon="-1.3235489999999972">
        <ele>1021.818</ele>
        <time>2022-08-24T10:58:47Z</time>
      </trkpt>
      <trkpt lat="43.01865399999969" lon="-1.3235379999999972">
        <ele>1021.648</ele>
        <time>2022-08-24T10:58:48Z</time>
      </trkpt>
      <trkpt lat="43.01844699999969" lon="-1.3234939999999973">
        <ele>1020.464</ele>
        <time>2022-08-24T10:58:52Z</time>
      </trkpt>
      <trkpt lat="43.01833599999969" lon="-1.3234729999999972">
        <ele>1019.446</ele>
        <time>2022-08-24T10:58:54Z</time>
      </trkpt>
      <trkpt lat="43.01827499999969" lon="-1.3234619999999973">
        <ele>1019.023</ele>
        <time>2022-08-24T10:58:55Z</time>
      </trkpt>
      <trkpt lat="43.01800199999969" lon="-1.3234129999999973">
        <ele>1018.046</ele>
        <time>2022-08-24T10:58:59Z</time>
      </trkpt>
      <trkpt lat="43.01793699999969" lon="-1.3233979999999972">
        <ele>1017.660</ele>
        <time>2022-08-24T10:59:00Z</time>
      </trkpt>
      <trkpt lat="43.01787499999969" lon="-1.3233809999999973">
        <ele>1017.059</ele>
        <time>2022-08-24T10:59:01Z</time>
      </trkpt>
      <trkpt lat="43.017811999999694" lon="-1.3233719999999973">
        <ele>1016.424</ele>
        <time>2022-08-24T10:59:02Z</time>
      </trkpt>
      <trkpt lat="43.0176839999997" lon="-1.3233399999999973">
        <ele>1015.404</ele>
        <time>2022-08-24T10:59:04Z</time>
      </trkpt>
      <trkpt lat="43.017622999999695" lon="-1.3233199999999974">
        <ele>1015.014</ele>
        <time>2022-08-24T10:59:05Z</time>
      </trkpt>
      <trkpt lat="43.01743499999969" lon="-1.3232589999999973">
        <ele>1013.809</ele>
        <time>2022-08-24T10:59:08Z</time>
      </trkpt>
      <trkpt lat="43.01722799999969" lon="-1.3231609999999974">
        <ele>1012.433</ele>
        <time>2022-08-24T10:59:11Z</time>
      </trkpt>
      <trkpt lat="43.01708799999969" lon="-1.3230769999999974">
        <ele>1011.613</ele>
        <time>2022-08-24T10:59:13Z</time>
      </trkpt>
      <trkpt lat="43.017018999999685" lon="-1.3230329999999975">
        <ele>1011.273</ele>
        <time>2022-08-24T10:59:14Z</time>
      </trkpt>
      <trkpt lat="43.01685099999968" lon="-1.3229379999999975">
        <ele>1010.449</ele>
        <time>2022-08-24T10:59:16Z</time>
      </trkpt>
      <trkpt lat="43.01671599999968" lon="-1.3228069999999974">
        <ele>1009.621</ele>
        <time>2022-08-24T10:59:18Z</time>
      </trkpt>
      <trkpt lat="43.01662599999968" lon="-1.3226519999999975">
        <ele>1008.638</ele>
        <time>2022-08-24T10:59:20Z</time>
      </trkpt>
      <trkpt lat="43.016571999999684" lon="-1.3225419999999974">
        <ele>1008.071</ele>
        <time>2022-08-24T10:59:21Z</time>
      </trkpt>
      <trkpt lat="43.016542999999686" lon="-1.3224629999999975">
        <ele>1007.865</ele>
        <time>2022-08-24T10:59:22Z</time>
      </trkpt>
      <trkpt lat="43.01649999999969" lon="-1.3223669999999974">
        <ele>1006.874</ele>
        <time>2022-08-24T10:59:23Z</time>
      </trkpt>
      <trkpt lat="43.016427999999685" lon="-1.3221589999999974">
        <ele>1006.242</ele>
        <time>2022-08-24T10:59:25Z</time>
      </trkpt>
      <trkpt lat="43.01640199999969" lon="-1.3220489999999974">
        <ele>1005.222</ele>
        <time>2022-08-24T10:59:26Z</time>
      </trkpt>
      <trkpt lat="43.01633299999968" lon="-1.3216959999999973">
        <ele>1004.014</ele>
        <time>2022-08-24T10:59:29Z</time>
      </trkpt>
      <trkpt lat="43.016286999999686" lon="-1.3215519999999974">
        <ele>1003.409</ele>
        <time>2022-08-24T10:59:30Z</time>
      </trkpt>
      <trkpt lat="43.016250999999684" lon="-1.3214569999999974">
        <ele>1003.075</ele>
        <time>2022-08-24T10:59:31Z</time>
      </trkpt>
      <trkpt lat="43.01613599999968" lon="-1.3212319999999975">
        <ele>1001.255</ele>
        <time>2022-08-24T10:59:33Z</time>
      </trkpt>
      <trkpt lat="43.01599799999968" lon="-1.3210289999999976">
        <ele>999.825</ele>
        <time>2022-08-24T10:59:35Z</time>
      </trkpt>
      <trkpt lat="43.01592599999968" lon="-1.3209399999999976">
        <ele>999.471</ele>
        <time>2022-08-24T10:59:36Z</time>
      </trkpt>
      <trkpt lat="43.01584699999968" lon="-1.3208339999999976">
        <ele>998.233</ele>
        <time>2022-08-24T10:59:37Z</time>
      </trkpt>
      <trkpt lat="43.01579699999968" lon="-1.3207669999999976">
        <ele>998.080</ele>
        <time>2022-08-24T10:59:38Z</time>
      </trkpt>
      <trkpt lat="43.01573899999968" lon="-1.3206839999999975">
        <ele>997.613</ele>
        <time>2022-08-24T10:59:39Z</time>
      </trkpt>
      <trkpt lat="43.01567899999968" lon="-1.3206079999999976">
        <ele>996.087</ele>
        <time>2022-08-24T10:59:40Z</time>
      </trkpt>
      <trkpt lat="43.01562299999968" lon="-1.3205389999999975">
        <ele>995.276</ele>
        <time>2022-08-24T10:59:41Z</time>
      </trkpt>
      <trkpt lat="43.01556699999968" lon="-1.3204779999999974">
        <ele>994.023</ele>
        <time>2022-08-24T10:59:42Z</time>
      </trkpt>
      <trkpt lat="43.01552099999968" lon="-1.3204149999999975">
        <ele>993.283</ele>
        <time>2022-08-24T10:59:43Z</time>
      </trkpt>
      <trkpt lat="43.01547299999968" lon="-1.3203559999999974">
        <ele>992.211</ele>
        <time>2022-08-24T10:59:44Z</time>
      </trkpt>
      <trkpt lat="43.01541799999968" lon="-1.3202939999999974">
        <ele>991.409</ele>
        <time>2022-08-24T10:59:45Z</time>
      </trkpt>
      <trkpt lat="43.015362999999674" lon="-1.3202259999999975">
        <ele>991.043</ele>
        <time>2022-08-24T10:59:46Z</time>
      </trkpt>
      <trkpt lat="43.015235999999675" lon="-1.3200839999999974">
        <ele>989.623</ele>
        <time>2022-08-24T10:59:48Z</time>
      </trkpt>
      <trkpt lat="43.01511299999967" lon="-1.3199399999999974">
        <ele>988.453</ele>
        <time>2022-08-24T10:59:50Z</time>
      </trkpt>
      <trkpt lat="43.01497599999967" lon="-1.3197769999999975">
        <ele>987.229</ele>
        <time>2022-08-24T10:59:52Z</time>
      </trkpt>
      <trkpt lat="43.014757999999674" lon="-1.3195599999999976">
        <ele>985.881</ele>
        <time>2022-08-24T10:59:55Z</time>
      </trkpt>
      <trkpt lat="43.01467999999967" lon="-1.3194879999999976">
        <ele>984.628</ele>
        <time>2022-08-24T10:59:56Z</time>
      </trkpt>
      <trkpt lat="43.01453099999967" lon="-1.3193769999999976">
        <ele>983.431</ele>
        <time>2022-08-24T10:59:58Z</time>
      </trkpt>
      <trkpt lat="43.014346999999674" lon="-1.3192969999999975">
        <ele>982.275</ele>
        <time>2022-08-24T11:00:00Z</time>
      </trkpt>
      <trkpt lat="43.01415399999967" lon="-1.3192629999999974">
        <ele>981.064</ele>
        <time>2022-08-24T11:00:02Z</time>
      </trkpt>
      <trkpt lat="43.01405499999967" lon="-1.3192499999999974">
        <ele>980.436</ele>
        <time>2022-08-24T11:00:03Z</time>
      </trkpt>
      <trkpt lat="43.013839999999675" lon="-1.3192519999999974">
        <ele>979.617</ele>
        <time>2022-08-24T11:00:05Z</time>
      </trkpt>
      <trkpt lat="43.01366199999968" lon="-1.3192709999999974">
        <ele>978.618</ele>
        <time>2022-08-24T11:00:07Z</time>
      </trkpt>
      <trkpt lat="43.013560999999676" lon="-1.3192789999999974">
        <ele>977.409</ele>
        <time>2022-08-24T11:00:08Z</time>
      </trkpt>
      <trkpt lat="43.01333199999968" lon="-1.3193139999999974">
        <ele>975.864</ele>
        <time>2022-08-24T11:00:10Z</time>
      </trkpt>
      <trkpt lat="43.01322799999968" lon="-1.3193369999999975">
        <ele>974.614</ele>
        <time>2022-08-24T11:00:11Z</time>
      </trkpt>
      <trkpt lat="43.013037999999675" lon="-1.3193819999999976">
        <ele>972.864</ele>
        <time>2022-08-24T11:00:13Z</time>
      </trkpt>
      <trkpt lat="43.012826999999675" lon="-1.3194349999999977">
        <ele>971.220</ele>
        <time>2022-08-24T11:00:15Z</time>
      </trkpt>
      <trkpt lat="43.012612999999675" lon="-1.3194889999999977">
        <ele>970.062</ele>
        <time>2022-08-24T11:00:17Z</time>
      </trkpt>
      <trkpt lat="43.01251099999968" lon="-1.3195219999999976">
        <ele>968.849</ele>
        <time>2022-08-24T11:00:18Z</time>
      </trkpt>
      <trkpt lat="43.01231399999968" lon="-1.3196019999999977">
        <ele>967.472</ele>
        <time>2022-08-24T11:00:20Z</time>
      </trkpt>
      <trkpt lat="43.012218999999675" lon="-1.3196499999999978">
        <ele>967.076</ele>
        <time>2022-08-24T11:00:21Z</time>
      </trkpt>
      <trkpt lat="43.01212799999968" lon="-1.3196969999999977">
        <ele>965.895</ele>
        <time>2022-08-24T11:00:22Z</time>
      </trkpt>
      <trkpt lat="43.01203699999968" lon="-1.3197339999999977">
        <ele>965.087</ele>
        <time>2022-08-24T11:00:23Z</time>
      </trkpt>
      <trkpt lat="43.01194399999968" lon="-1.3197529999999977">
        <ele>964.642</ele>
        <time>2022-08-24T11:00:24Z</time>
      </trkpt>
      <trkpt lat="43.01184799999968" lon="-1.3197529999999977">
        <ele>963.826</ele>
        <time>2022-08-24T11:00:25Z</time>
      </trkpt>
      <trkpt lat="43.01173199999968" lon="-1.3197369999999977">
        <ele>963.209</ele>
        <time>2022-08-24T11:00:26Z</time>
      </trkpt>
      <trkpt lat="43.01165399999968" lon="-1.3197219999999976">
        <ele>962.849</ele>
        <time>2022-08-24T11:00:27Z</time>
      </trkpt>
      <trkpt lat="43.01155999999968" lon="-1.3196939999999977">
        <ele>961.869</ele>
        <time>2022-08-24T11:00:28Z</time>
      </trkpt>
      <trkpt lat="43.01136699999968" lon="-1.3196659999999978">
        <ele>960.459</ele>
        <time>2022-08-24T11:00:30Z</time>
      </trkpt>
      <trkpt lat="43.01125399999968" lon="-1.3196499999999978">
        <ele>960.295</ele>
        <time>2022-08-24T11:00:31Z</time>
      </trkpt>
      <trkpt lat="43.01118099999968" lon="-1.3196439999999978">
        <ele>959.427</ele>
        <time>2022-08-24T11:00:32Z</time>
      </trkpt>
      <trkpt lat="43.01108999999968" lon="-1.3196409999999978">
        <ele>959.284</ele>
        <time>2022-08-24T11:00:33Z</time>
      </trkpt>
      <trkpt lat="43.011001999999685" lon="-1.3196549999999978">
        <ele>958.667</ele>
        <time>2022-08-24T11:00:34Z</time>
      </trkpt>
      <trkpt lat="43.01089699999969" lon="-1.3196829999999977">
        <ele>958.081</ele>
        <time>2022-08-24T11:00:35Z</time>
      </trkpt>
      <trkpt lat="43.01081399999969" lon="-1.3197229999999978">
        <ele>957.270</ele>
        <time>2022-08-24T11:00:36Z</time>
      </trkpt>
      <trkpt lat="43.01074999999969" lon="-1.3197669999999977">
        <ele>956.087</ele>
        <time>2022-08-24T11:00:37Z</time>
      </trkpt>
      <trkpt lat="43.01067099999969" lon="-1.3198189999999976">
        <ele>955.642</ele>
        <time>2022-08-24T11:00:38Z</time>
      </trkpt>
      <trkpt lat="43.010570999999686" lon="-1.3198769999999975">
        <ele>954.226</ele>
        <time>2022-08-24T11:00:39Z</time>
      </trkpt>
      <trkpt lat="43.01049099999969" lon="-1.3199389999999975">
        <ele>953.809</ele>
        <time>2022-08-24T11:00:40Z</time>
      </trkpt>
      <trkpt lat="43.01043099999969" lon="-1.3199899999999976">
        <ele>952.879</ele>
        <time>2022-08-24T11:00:41Z</time>
      </trkpt>
      <trkpt lat="43.01035999999969" lon="-1.3200639999999975">
        <ele>952.039</ele>
        <time>2022-08-24T11:00:42Z</time>
      </trkpt>
      <trkpt lat="43.01029599999969" lon="-1.3201759999999974">
        <ele>951.689</ele>
        <time>2022-08-24T11:00:43Z</time>
      </trkpt>
      <trkpt lat="43.01025899999969" lon="-1.3202879999999972">
        <ele>950.685</ele>
        <time>2022-08-24T11:00:44Z</time>
      </trkpt>
      <trkpt lat="43.01022899999969" lon="-1.3204079999999971">
        <ele>950.287</ele>
        <time>2022-08-24T11:00:45Z</time>
      </trkpt>
      <trkpt lat="43.01021199999969" lon="-1.3205149999999972">
        <ele>949.064</ele>
        <time>2022-08-24T11:00:46Z</time>
      </trkpt>
      <trkpt lat="43.01018599999969" lon="-1.3206399999999971">
        <ele>948.077</ele>
        <time>2022-08-24T11:00:47Z</time>
      </trkpt>
      <trkpt lat="43.01013599999969" lon="-1.320778999999997">
        <ele>947.651</ele>
        <time>2022-08-24T11:00:48Z</time>
      </trkpt>
      <trkpt lat="43.01008299999969" lon="-1.320878999999997">
        <ele>946.850</ele>
        <time>2022-08-24T11:00:49Z</time>
      </trkpt>
      <trkpt lat="43.01001599999969" lon="-1.320958999999997">
        <ele>946.418</ele>
        <time>2022-08-24T11:00:50Z</time>
      </trkpt>
      <trkpt lat="43.00996199999969" lon="-1.321018999999997">
        <ele>945.898</ele>
        <time>2022-08-24T11:00:51Z</time>
      </trkpt>
      <trkpt lat="43.00988199999969" lon="-1.3210749999999971">
        <ele>945.617</ele>
        <time>2022-08-24T11:00:52Z</time>
      </trkpt>
      <trkpt lat="43.009787999999695" lon="-1.3211179999999971">
        <ele>945.209</ele>
        <time>2022-08-24T11:00:53Z</time>
      </trkpt>
      <trkpt lat="43.009711999999695" lon="-1.321158999999997">
        <ele>945.032</ele>
        <time>2022-08-24T11:00:54Z</time>
      </trkpt>
      <trkpt lat="43.009649999999695" lon="-1.3212229999999971">
        <ele>945.082</ele>
        <time>2022-08-24T11:00:55Z</time>
      </trkpt>
      <trkpt lat="43.0096069999997" lon="-1.3212899999999972">
        <ele>944.852</ele>
        <time>2022-08-24T11:00:56Z</time>
      </trkpt>
      <trkpt lat="43.0095669999997" lon="-1.3213789999999972">
        <ele>944.828</ele>
        <time>2022-08-24T11:00:57Z</time>
      </trkpt>
      <trkpt lat="43.0095379999997" lon="-1.3214769999999971">
        <ele>944.650</ele>
        <time>2022-08-24T11:00:58Z</time>
      </trkpt>
      <trkpt lat="43.009516999999704" lon="-1.3215789999999972">
        <ele>944.467</ele>
        <time>2022-08-24T11:00:59Z</time>
      </trkpt>
      <trkpt lat="43.00951299999971" lon="-1.3216829999999973">
        <ele>944.490</ele>
        <time>2022-08-24T11:01:00Z</time>
      </trkpt>
      <trkpt lat="43.009527999999705" lon="-1.3217819999999973">
        <ele>943.854</ele>
        <time>2022-08-24T11:01:01Z</time>
      </trkpt>
      <trkpt lat="43.0095539999997" lon="-1.3218819999999973">
        <ele>943.833</ele>
        <time>2022-08-24T11:01:02Z</time>
      </trkpt>
      <trkpt lat="43.009583999999705" lon="-1.3219769999999973">
        <ele>943.065</ele>
        <time>2022-08-24T11:01:03Z</time>
      </trkpt>
      <trkpt lat="43.0096129999997" lon="-1.3220699999999972">
        <ele>942.868</ele>
        <time>2022-08-24T11:01:04Z</time>
      </trkpt>
      <trkpt lat="43.0096219999997" lon="-1.3221589999999972">
        <ele>942.414</ele>
        <time>2022-08-24T11:01:05Z</time>
      </trkpt>
      <trkpt lat="43.0096139999997" lon="-1.3222259999999972">
        <ele>941.809</ele>
        <time>2022-08-24T11:01:06Z</time>
      </trkpt>
      <trkpt lat="43.0095829999997" lon="-1.3222649999999971">
        <ele>941.817</ele>
        <time>2022-08-24T11:01:07Z</time>
      </trkpt>
      <trkpt lat="43.0095379999997" lon="-1.3222639999999972">
        <ele>941.467</ele>
        <time>2022-08-24T11:01:08Z</time>
      </trkpt>
      <trkpt lat="43.0094679999997" lon="-1.3221749999999972">
        <ele>941.067</ele>
        <time>2022-08-24T11:01:10Z</time>
      </trkpt>
      <trkpt lat="43.0094389999997" lon="-1.3220969999999972">
        <ele>941.023</ele>
        <time>2022-08-24T11:01:11Z</time>
      </trkpt>
      <trkpt lat="43.009375999999705" lon="-1.3219259999999973">
        <ele>940.485</ele>
        <time>2022-08-24T11:01:13Z</time>
      </trkpt>
      <trkpt lat="43.0093429999997" lon="-1.3218379999999972">
        <ele>940.242</ele>
        <time>2022-08-24T11:01:14Z</time>
      </trkpt>
      <trkpt lat="43.0093149999997" lon="-1.3217459999999972">
        <ele>940.085</ele>
        <time>2022-08-24T11:01:15Z</time>
      </trkpt>
      <trkpt lat="43.0092809999997" lon="-1.3216529999999973">
        <ele>939.879</ele>
        <time>2022-08-24T11:01:16Z</time>
      </trkpt>
      <trkpt lat="43.0092249999997" lon="-1.3214539999999972">
        <ele>939.288</ele>
        <time>2022-08-24T11:01:18Z</time>
      </trkpt>
      <trkpt lat="43.009209999999705" lon="-1.3213539999999973">
        <ele>939.079</ele>
        <time>2022-08-24T11:01:19Z</time>
      </trkpt>
      <trkpt lat="43.00920299999971" lon="-1.3212599999999972">
        <ele>938.605</ele>
        <time>2022-08-24T11:01:20Z</time>
      </trkpt>
      <trkpt lat="43.009200999999706" lon="-1.3211709999999972">
        <ele>938.425</ele>
        <time>2022-08-24T11:01:21Z</time>
      </trkpt>
      <trkpt lat="43.009200999999706" lon="-1.3210899999999972">
        <ele>938.009</ele>
        <time>2022-08-24T11:01:22Z</time>
      </trkpt>
      <trkpt lat="43.009206999999705" lon="-1.3210139999999972">
        <ele>937.868</ele>
        <time>2022-08-24T11:01:23Z</time>
      </trkpt>
      <trkpt lat="43.009212999999704" lon="-1.3209459999999973">
        <ele>937.238</ele>
        <time>2022-08-24T11:01:24Z</time>
      </trkpt>
      <trkpt lat="43.009257999999704" lon="-1.3207259999999972">
        <ele>936.228</ele>
        <time>2022-08-24T11:01:27Z</time>
      </trkpt>
      <trkpt lat="43.00926799999971" lon="-1.3206689999999972">
        <ele>936.064</ele>
        <time>2022-08-24T11:01:28Z</time>
      </trkpt>
      <trkpt lat="43.00927599999971" lon="-1.3206239999999971">
        <ele>935.426</ele>
        <time>2022-08-24T11:01:29Z</time>
      </trkpt>
      <trkpt lat="43.009279999999706" lon="-1.320599999999997">
        <ele>935.033</ele>
        <time>2022-08-24T11:01:30Z</time>
      </trkpt>
      <trkpt lat="43.009349999999706" lon="-1.320624999999997">
        <ele>934.876</ele>
        <time>2022-08-24T11:26:15Z</time>
      </trkpt>
      <trkpt lat="43.009335999999706" lon="-1.320613999999997">
        <ele>935.270</ele>
        <time>2022-08-24T11:26:16Z</time>
      </trkpt>
      <trkpt lat="43.009291999999704" lon="-1.320592999999997">
        <ele>936.449</ele>
        <time>2022-08-24T11:27:58Z</time>
      </trkpt>
      <trkpt lat="43.0093209999997" lon="-1.320610999999997">
        <ele>936.688</ele>
        <time>2022-08-24T11:28:00Z</time>
      </trkpt>
      <trkpt lat="43.0093289999997" lon="-1.320605999999997">
        <ele>936.624</ele>
        <time>2022-08-24T11:28:01Z</time>
      </trkpt>
      <trkpt lat="43.009330999999705" lon="-1.3205969999999971">
        <ele>936.626</ele>
        <time>2022-08-24T11:28:02Z</time>
      </trkpt>
      <trkpt lat="43.00934399999971" lon="-1.320613999999997">
        <ele>936.809</ele>
        <time>2022-08-24T12:07:20Z</time>
      </trkpt>
      <trkpt lat="43.009330999999705" lon="-1.320594999999997">
        <ele>936.869</ele>
        <time>2022-08-24T12:07:22Z</time>
      </trkpt>
      <trkpt lat="43.0088759999997" lon="-1.320320999999997">
        <ele>938.079</ele>
        <time>2022-08-24T12:07:41Z</time>
      </trkpt>
      <trkpt lat="43.0088539999997" lon="-1.320311999999997">
        <ele>938.039</ele>
        <time>2022-08-24T12:07:42Z</time>
      </trkpt>
      <trkpt lat="43.0092689999997" lon="-1.320532999999997">
        <ele>937.655</ele>
        <time>2022-08-24T12:08:03Z</time>
      </trkpt>
      <trkpt lat="43.0094739999997" lon="-1.3206159999999971">
        <ele>937.837</ele>
        <time>2022-08-24T12:08:08Z</time>
      </trkpt>
      <trkpt lat="43.0094699999997" lon="-1.3206339999999972">
        <ele>937.864</ele>
        <time>2022-08-24T12:08:09Z</time>
      </trkpt>
      <trkpt lat="43.0088409999997" lon="-1.3203019999999972">
        <ele>937.427</ele>
        <time>2022-08-24T12:08:22Z</time>
      </trkpt>
      <trkpt lat="43.0088829999997" lon="-1.3203109999999971">
        <ele>937.471</ele>
        <time>2022-08-24T12:08:23Z</time>
      </trkpt>
      <trkpt lat="43.0092879999997" lon="-1.320613999999997">
        <ele>937.220</ele>
        <time>2022-08-24T12:08:44Z</time>
      </trkpt>
      <trkpt lat="43.0092919999997" lon="-1.320610999999997">
        <ele>937.251</ele>
        <time>2022-08-24T12:08:45Z</time>
      </trkpt>
      <trkpt lat="43.009632999999695" lon="-1.3199919999999972">
        <ele>935.001</ele>
        <time>2022-08-24T12:28:21Z</time>
      </trkpt>
      <trkpt lat="43.00970999999969" lon="-1.3199779999999972">
        <ele>935.211</ele>
        <time>2022-08-24T12:28:26Z</time>
      </trkpt>
      <trkpt lat="43.00975199999969" lon="-1.3199419999999973">
        <ele>935.209</ele>
        <time>2022-08-24T12:28:29Z</time>
      </trkpt>
      <trkpt lat="43.009779999999694" lon="-1.3199269999999972">
        <ele>935.496</ele>
        <time>2022-08-24T12:28:31Z</time>
      </trkpt>
      <trkpt lat="43.009792999999696" lon="-1.3199189999999972">
        <ele>935.466</ele>
        <time>2022-08-24T12:28:32Z</time>
      </trkpt>
      <trkpt lat="43.009804999999695" lon="-1.3199149999999973">
        <ele>935.476</ele>
        <time>2022-08-24T12:28:33Z</time>
      </trkpt>
      <trkpt lat="43.00980899999969" lon="-1.3199039999999973">
        <ele>935.442</ele>
        <time>2022-08-24T12:28:35Z</time>
      </trkpt>
      <trkpt lat="43.009807999999694" lon="-1.3199019999999972">
        <ele>935.464</ele>
        <time>2022-08-24T12:28:36Z</time>
      </trkpt>
      <trkpt lat="43.009812999999696" lon="-1.3199029999999972">
        <ele>935.481</ele>
        <time>2022-08-24T12:28:37Z</time>
      </trkpt>
      <trkpt lat="43.0098149999997" lon="-1.3199169999999971">
        <ele>935.454</ele>
        <time>2022-08-24T12:28:38Z</time>
      </trkpt>
      <trkpt lat="43.0098249999997" lon="-1.319911999999997">
        <ele>935.428</ele>
        <time>2022-08-24T12:28:39Z</time>
      </trkpt>
      <trkpt lat="43.0098619999997" lon="-1.3198869999999971">
        <ele>935.477</ele>
        <time>2022-08-24T12:28:42Z</time>
      </trkpt>
      <trkpt lat="43.0098669999997" lon="-1.3198819999999971">
        <ele>935.676</ele>
        <time>2022-08-24T12:28:43Z</time>
      </trkpt>
      <trkpt lat="43.0098749999997" lon="-1.3198649999999972">
        <ele>935.890</ele>
        <time>2022-08-24T12:28:44Z</time>
      </trkpt>
      <trkpt lat="43.0098789999997" lon="-1.3198529999999973">
        <ele>935.819</ele>
        <time>2022-08-24T12:28:45Z</time>
      </trkpt>
      <trkpt lat="43.0098729999997" lon="-1.3198439999999974">
        <ele>936.009</ele>
        <time>2022-08-24T12:28:46Z</time>
      </trkpt>
      <trkpt lat="43.0098579999997" lon="-1.3198359999999973">
        <ele>936.228</ele>
        <time>2022-08-24T12:28:47Z</time>
      </trkpt>
      <trkpt lat="43.0098669999997" lon="-1.3197309999999973">
        <ele>936.668</ele>
        <time>2022-08-24T12:28:53Z</time>
      </trkpt>
      <trkpt lat="43.0100099999997" lon="-1.3196389999999973">
        <ele>936.628</ele>
        <time>2022-08-24T12:28:55Z</time>
      </trkpt>
      <trkpt lat="43.010031999999704" lon="-1.3196259999999973">
        <ele>936.214</ele>
        <time>2022-08-24T12:28:56Z</time>
      </trkpt>
      <trkpt lat="43.0100689999997" lon="-1.3195949999999974">
        <ele>936.286</ele>
        <time>2022-08-24T12:28:57Z</time>
      </trkpt>
      <trkpt lat="43.0101029999997" lon="-1.3195679999999974">
        <ele>936.253</ele>
        <time>2022-08-24T12:28:58Z</time>
      </trkpt>
      <trkpt lat="43.010124999999704" lon="-1.3195539999999975">
        <ele>936.296</ele>
        <time>2022-08-24T12:28:59Z</time>
      </trkpt>
      <trkpt lat="43.010163999999705" lon="-1.3195239999999975">
        <ele>936.050</ele>
        <time>2022-08-24T12:29:01Z</time>
      </trkpt>
      <trkpt lat="43.0101819999997" lon="-1.3195049999999975">
        <ele>936.099</ele>
        <time>2022-08-24T12:29:02Z</time>
      </trkpt>
      <trkpt lat="43.0102309999997" lon="-1.3194369999999975">
        <ele>935.297</ele>
        <time>2022-08-24T12:29:06Z</time>
      </trkpt>
      <trkpt lat="43.0102749999997" lon="-1.3193969999999975">
        <ele>935.023</ele>
        <time>2022-08-24T12:29:08Z</time>
      </trkpt>
      <trkpt lat="43.0102939999997" lon="-1.3193879999999976">
        <ele>935.025</ele>
        <time>2022-08-24T12:29:09Z</time>
      </trkpt>
      <trkpt lat="43.0103139999997" lon="-1.3193789999999976">
        <ele>934.609</ele>
        <time>2022-08-24T12:29:10Z</time>
      </trkpt>
      <trkpt lat="43.010329999999705" lon="-1.3193719999999975">
        <ele>934.620</ele>
        <time>2022-08-24T12:29:11Z</time>
      </trkpt>
      <trkpt lat="43.01033999999971" lon="-1.3193619999999975">
        <ele>934.650</ele>
        <time>2022-08-24T12:29:12Z</time>
      </trkpt>
      <trkpt lat="43.01035099999971" lon="-1.3193499999999976">
        <ele>934.630</ele>
        <time>2022-08-24T12:29:13Z</time>
      </trkpt>
      <trkpt lat="43.01035599999971" lon="-1.3193479999999975">
        <ele>934.456</ele>
        <time>2022-08-24T12:29:14Z</time>
      </trkpt>
      <trkpt lat="43.01035499999971" lon="-1.3193539999999975">
        <ele>934.488</ele>
        <time>2022-08-24T12:29:15Z</time>
      </trkpt>
      <trkpt lat="43.010353999999715" lon="-1.3193579999999974">
        <ele>934.455</ele>
        <time>2022-08-24T12:29:16Z</time>
      </trkpt>
      <trkpt lat="43.01035499999971" lon="-1.3193619999999973">
        <ele>934.448</ele>
        <time>2022-08-24T12:29:17Z</time>
      </trkpt>
      <trkpt lat="43.01035599999971" lon="-1.3193689999999973">
        <ele>934.432</ele>
        <time>2022-08-24T12:29:18Z</time>
      </trkpt>
      <trkpt lat="43.01035799999971" lon="-1.3193839999999974">
        <ele>934.461</ele>
        <time>2022-08-24T12:29:19Z</time>
      </trkpt>
      <trkpt lat="43.01036399999971" lon="-1.3193949999999974">
        <ele>934.423</ele>
        <time>2022-08-24T12:29:20Z</time>
      </trkpt>
      <trkpt lat="43.01025099999971" lon="-1.3196379999999974">
        <ele>933.083</ele>
        <time>2022-08-24T12:32:33Z</time>
      </trkpt>
      <trkpt lat="43.010246999999715" lon="-1.3196449999999975">
        <ele>933.211</ele>
        <time>2022-08-24T12:32:34Z</time>
      </trkpt>
      <trkpt lat="43.01023099999971" lon="-1.3196479999999975">
        <ele>933.409</ele>
        <time>2022-08-24T12:32:37Z</time>
      </trkpt>
      <trkpt lat="43.010243999999716" lon="-1.3195149999999976">
        <ele>934.053</ele>
        <time>2022-08-24T12:34:42Z</time>
      </trkpt>
      <trkpt lat="43.01024299999972" lon="-1.3195129999999975">
        <ele>934.023</ele>
        <time>2022-08-24T12:34:43Z</time>
      </trkpt>
      <trkpt lat="43.01026299999972" lon="-1.3193919999999975">
        <ele>934.693</ele>
        <time>2022-08-24T12:35:51Z</time>
      </trkpt>
      <trkpt lat="43.01025199999972" lon="-1.3193909999999975">
        <ele>934.689</ele>
        <time>2022-08-24T12:35:53Z</time>
      </trkpt>
      <trkpt lat="43.01024299999972" lon="-1.3194019999999975">
        <ele>934.651</ele>
        <time>2022-08-24T12:35:54Z</time>
      </trkpt>
      <trkpt lat="43.01022499999972" lon="-1.3194259999999975">
        <ele>934.418</ele>
        <time>2022-08-24T12:35:56Z</time>
      </trkpt>
      <trkpt lat="43.01021699999972" lon="-1.3194339999999976">
        <ele>934.231</ele>
        <time>2022-08-24T12:35:57Z</time>
      </trkpt>
      <trkpt lat="43.01020699999972" lon="-1.3194389999999976">
        <ele>934.235</ele>
        <time>2022-08-24T12:35:58Z</time>
      </trkpt>
      <trkpt lat="43.01019299999972" lon="-1.3194449999999975">
        <ele>934.264</ele>
        <time>2022-08-24T12:35:59Z</time>
      </trkpt>
      <trkpt lat="43.01017499999972" lon="-1.3194699999999975">
        <ele>934.238</ele>
        <time>2022-08-24T12:36:01Z</time>
      </trkpt>
      <trkpt lat="43.01016199999972" lon="-1.3194889999999975">
        <ele>934.470</ele>
        <time>2022-08-24T12:36:03Z</time>
      </trkpt>
      <trkpt lat="43.010156999999715" lon="-1.3194949999999974">
        <ele>934.417</ele>
        <time>2022-08-24T12:36:04Z</time>
      </trkpt>
      <trkpt lat="43.010145999999715" lon="-1.3195149999999973">
        <ele>934.609</ele>
        <time>2022-08-24T12:36:06Z</time>
      </trkpt>
      <trkpt lat="43.010139999999716" lon="-1.3195249999999974">
        <ele>934.624</ele>
        <time>2022-08-24T12:36:07Z</time>
      </trkpt>
      <trkpt lat="43.01012199999972" lon="-1.3195439999999974">
        <ele>934.824</ele>
        <time>2022-08-24T12:36:09Z</time>
      </trkpt>
      <trkpt lat="43.01011399999972" lon="-1.3195509999999975">
        <ele>934.844</ele>
        <time>2022-08-24T12:36:10Z</time>
      </trkpt>
      <trkpt lat="43.010108999999716" lon="-1.3195559999999975">
        <ele>935.070</ele>
        <time>2022-08-24T12:36:11Z</time>
      </trkpt>
      <trkpt lat="43.01009899999971" lon="-1.3195679999999974">
        <ele>935.022</ele>
        <time>2022-08-24T12:36:12Z</time>
      </trkpt>
      <trkpt lat="43.010091999999716" lon="-1.3195779999999975">
        <ele>935.079</ele>
        <time>2022-08-24T12:36:13Z</time>
      </trkpt>
      <trkpt lat="43.01008899999972" lon="-1.3195849999999976">
        <ele>935.082</ele>
        <time>2022-08-24T12:36:14Z</time>
      </trkpt>
      <trkpt lat="43.01008499999972" lon="-1.3195889999999975">
        <ele>935.056</ele>
        <time>2022-08-24T12:36:15Z</time>
      </trkpt>
      <trkpt lat="43.01008599999972" lon="-1.3196219999999974">
        <ele>936.025</ele>
        <time>2022-08-24T12:36:24Z</time>
      </trkpt>
      <trkpt lat="43.01009599999972" lon="-1.3196239999999975">
        <ele>936.023</ele>
        <time>2022-08-24T12:36:25Z</time>
      </trkpt>
      <trkpt lat="43.01011599999972" lon="-1.3196229999999975">
        <ele>936.083</ele>
        <time>2022-08-24T12:36:26Z</time>
      </trkpt>
      <trkpt lat="43.01014399999972" lon="-1.3196339999999975">
        <ele>936.011</ele>
        <time>2022-08-24T12:36:28Z</time>
      </trkpt>
      <trkpt lat="43.01015999999972" lon="-1.3196339999999975">
        <ele>936.009</ele>
        <time>2022-08-24T12:36:29Z</time>
      </trkpt>
      <trkpt lat="43.01017399999972" lon="-1.3196339999999975">
        <ele>936.063</ele>
        <time>2022-08-24T12:36:30Z</time>
      </trkpt>
      <trkpt lat="43.01019099999972" lon="-1.3196329999999976">
        <ele>936.053</ele>
        <time>2022-08-24T12:36:31Z</time>
      </trkpt>
      <trkpt lat="43.01019999999972" lon="-1.3196299999999976">
        <ele>936.223</ele>
        <time>2022-08-24T12:36:32Z</time>
      </trkpt>
      <trkpt lat="43.01021199999972" lon="-1.3196189999999977">
        <ele>936.279</ele>
        <time>2022-08-24T12:36:33Z</time>
      </trkpt>
      <trkpt lat="43.01021999999972" lon="-1.3196059999999976">
        <ele>936.221</ele>
        <time>2022-08-24T12:36:34Z</time>
      </trkpt>
      <trkpt lat="43.01020799999972" lon="-1.3195339999999975">
        <ele>936.238</ele>
        <time>2022-08-24T12:36:38Z</time>
      </trkpt>
      <trkpt lat="43.010200999999725" lon="-1.3195269999999975">
        <ele>936.281</ele>
        <time>2022-08-24T12:36:39Z</time>
      </trkpt>
      <trkpt lat="43.010191999999726" lon="-1.3195269999999975">
        <ele>936.075</ele>
        <time>2022-08-24T12:36:40Z</time>
      </trkpt>
      <trkpt lat="43.01018199999972" lon="-1.3195309999999973">
        <ele>936.074</ele>
        <time>2022-08-24T12:36:41Z</time>
      </trkpt>
      <trkpt lat="43.01017399999972" lon="-1.3195379999999974">
        <ele>936.095</ele>
        <time>2022-08-24T12:36:42Z</time>
      </trkpt>
      <trkpt lat="43.010161999999724" lon="-1.3195489999999974">
        <ele>936.049</ele>
        <time>2022-08-24T12:36:43Z</time>
      </trkpt>
      <trkpt lat="43.01013199999972" lon="-1.3195689999999973">
        <ele>936.023</ele>
        <time>2022-08-24T12:36:46Z</time>
      </trkpt>
      <trkpt lat="43.010124999999725" lon="-1.3195759999999974">
        <ele>936.009</ele>
        <time>2022-08-24T12:36:47Z</time>
      </trkpt>
      <trkpt lat="43.010124999999725" lon="-1.3195799999999973">
        <ele>936.050</ele>
        <time>2022-08-24T12:36:48Z</time>
      </trkpt>
      <trkpt lat="43.01012299999972" lon="-1.3195779999999973">
        <ele>936.090</ele>
        <time>2022-08-24T12:36:49Z</time>
      </trkpt>
      <trkpt lat="43.01010599999972" lon="-1.3195879999999973">
        <ele>936.070</ele>
        <time>2022-08-24T12:36:51Z</time>
      </trkpt>
      <trkpt lat="43.010110999999725" lon="-1.3195879999999973">
        <ele>936.096</ele>
        <time>2022-08-24T12:36:52Z</time>
      </trkpt>
      <trkpt lat="43.01011999999972" lon="-1.3195879999999973">
        <ele>936.278</ele>
        <time>2022-08-24T12:36:53Z</time>
      </trkpt>
      <trkpt lat="43.00989899999972" lon="-1.3196849999999973">
        <ele>937.215</ele>
        <time>2022-08-24T12:37:03Z</time>
      </trkpt>
      <trkpt lat="43.00986199999972" lon="-1.3196769999999973">
        <ele>937.088</ele>
        <time>2022-08-24T12:37:04Z</time>
      </trkpt>
      <trkpt lat="43.00978099999972" lon="-1.3197639999999973">
        <ele>936.892</ele>
        <time>2022-08-24T12:37:09Z</time>
      </trkpt>
      <trkpt lat="43.00974899999972" lon="-1.3198209999999972">
        <ele>936.841</ele>
        <time>2022-08-24T12:37:10Z</time>
      </trkpt>
      <trkpt lat="43.00972099999972" lon="-1.3198649999999972">
        <ele>936.642</ele>
        <time>2022-08-24T12:37:11Z</time>
      </trkpt>
      <trkpt lat="43.00968999999972" lon="-1.3198749999999972">
        <ele>936.422</ele>
        <time>2022-08-24T12:37:12Z</time>
      </trkpt>
      <trkpt lat="43.009668999999725" lon="-1.3198839999999972">
        <ele>936.214</ele>
        <time>2022-08-24T12:37:13Z</time>
      </trkpt>
      <trkpt lat="43.009651999999726" lon="-1.3198969999999972">
        <ele>936.209</ele>
        <time>2022-08-24T12:37:14Z</time>
      </trkpt>
      <trkpt lat="43.009626999999725" lon="-1.3199179999999973">
        <ele>936.245</ele>
        <time>2022-08-24T12:37:15Z</time>
      </trkpt>
      <trkpt lat="43.00961399999972" lon="-1.3199329999999974">
        <ele>936.065</ele>
        <time>2022-08-24T12:37:16Z</time>
      </trkpt>
      <trkpt lat="43.009612999999725" lon="-1.3199509999999974">
        <ele>936.085</ele>
        <time>2022-08-24T12:37:17Z</time>
      </trkpt>
      <trkpt lat="43.00962799999972" lon="-1.3199609999999975">
        <ele>936.031</ele>
        <time>2022-08-24T12:37:18Z</time>
      </trkpt>
      <trkpt lat="43.00964499999972" lon="-1.3199479999999975">
        <ele>935.823</ele>
        <time>2022-08-24T12:37:19Z</time>
      </trkpt>
      <trkpt lat="43.009353999999725" lon="-1.3197719999999975">
        <ele>935.430</ele>
        <time>2022-08-24T12:37:23Z</time>
      </trkpt>
      <trkpt lat="43.00933899999973" lon="-1.3197449999999975">
        <ele>935.253</ele>
        <time>2022-08-24T12:37:24Z</time>
      </trkpt>
      <trkpt lat="43.009246999999725" lon="-1.3197929999999976">
        <ele>935.057</ele>
        <time>2022-08-24T12:37:25Z</time>
      </trkpt>
      <trkpt lat="43.009277999999725" lon="-1.3197629999999976">
        <ele>935.086</ele>
        <time>2022-08-24T12:37:27Z</time>
      </trkpt>
      <trkpt lat="43.00927099999973" lon="-1.3197579999999975">
        <ele>935.094</ele>
        <time>2022-08-24T12:37:28Z</time>
      </trkpt>
      <trkpt lat="43.00925899999973" lon="-1.3197539999999977">
        <ele>935.057</ele>
        <time>2022-08-24T12:37:29Z</time>
      </trkpt>
      <trkpt lat="43.00924699999973" lon="-1.3197499999999978">
        <ele>935.022</ele>
        <time>2022-08-24T12:37:30Z</time>
      </trkpt>
      <trkpt lat="43.00923299999973" lon="-1.3197499999999978">
        <ele>935.009</ele>
        <time>2022-08-24T12:37:31Z</time>
      </trkpt>
      <trkpt lat="43.00920899999973" lon="-1.3197389999999978">
        <ele>934.890</ele>
        <time>2022-08-24T12:37:33Z</time>
      </trkpt>
      <trkpt lat="43.009206999999726" lon="-1.3197239999999977">
        <ele>934.830</ele>
        <time>2022-08-24T12:37:34Z</time>
      </trkpt>
      <trkpt lat="43.00921399999972" lon="-1.3197049999999977">
        <ele>934.820</ele>
        <time>2022-08-24T12:37:35Z</time>
      </trkpt>
      <trkpt lat="43.00921999999972" lon="-1.3196929999999978">
        <ele>934.836</ele>
        <time>2022-08-24T12:37:36Z</time>
      </trkpt>
      <trkpt lat="43.00923199999972" lon="-1.3196809999999979">
        <ele>934.648</ele>
        <time>2022-08-24T12:37:37Z</time>
      </trkpt>
      <trkpt lat="43.00924599999972" lon="-1.319674999999998">
        <ele>934.695</ele>
        <time>2022-08-24T12:37:38Z</time>
      </trkpt>
      <trkpt lat="43.00926199999972" lon="-1.319676999999998">
        <ele>934.698</ele>
        <time>2022-08-24T12:37:39Z</time>
      </trkpt>
      <trkpt lat="43.00927999999972" lon="-1.319683999999998">
        <ele>934.682</ele>
        <time>2022-08-24T12:37:40Z</time>
      </trkpt>
      <trkpt lat="43.00930799999972" lon="-1.319700999999998">
        <ele>934.671</ele>
        <time>2022-08-24T12:37:42Z</time>
      </trkpt>
      <trkpt lat="43.00932299999972" lon="-1.319708999999998">
        <ele>934.654</ele>
        <time>2022-08-24T12:37:43Z</time>
      </trkpt>
      <trkpt lat="43.009343999999714" lon="-1.319716999999998">
        <ele>934.656</ele>
        <time>2022-08-24T12:37:44Z</time>
      </trkpt>
      <trkpt lat="43.009362999999716" lon="-1.319718999999998">
        <ele>934.611</ele>
        <time>2022-08-24T12:37:45Z</time>
      </trkpt>
      <trkpt lat="43.009391999999714" lon="-1.319707999999998">
        <ele>934.809</ele>
        <time>2022-08-24T12:37:47Z</time>
      </trkpt>
      <trkpt lat="43.00940399999971" lon="-1.319705999999998">
        <ele>934.836</ele>
        <time>2022-08-24T12:37:48Z</time>
      </trkpt>
      <trkpt lat="43.009416999999715" lon="-1.3197049999999981">
        <ele>934.896</ele>
        <time>2022-08-24T12:37:49Z</time>
      </trkpt>
      <trkpt lat="43.00944299999971" lon="-1.3197009999999982">
        <ele>934.846</ele>
        <time>2022-08-24T12:37:51Z</time>
      </trkpt>
      <trkpt lat="43.009453999999714" lon="-1.3197029999999983">
        <ele>935.052</ele>
        <time>2022-08-24T12:37:52Z</time>
      </trkpt>
      <trkpt lat="43.00946399999972" lon="-1.3197039999999982">
        <ele>935.054</ele>
        <time>2022-08-24T12:37:53Z</time>
      </trkpt>
      <trkpt lat="43.009467999999714" lon="-1.3197019999999982">
        <ele>935.281</ele>
        <time>2022-08-24T12:37:54Z</time>
      </trkpt>
      <trkpt lat="43.009467999999714" lon="-1.3196989999999982">
        <ele>935.454</ele>
        <time>2022-08-24T12:37:55Z</time>
      </trkpt>
      <trkpt lat="43.00921599999971" lon="-1.3197559999999982">
        <ele>936.078</ele>
        <time>2022-08-24T12:42:04Z</time>
      </trkpt>
      <trkpt lat="43.00925599999971" lon="-1.319732999999998">
        <ele>935.877</ele>
        <time>2022-08-24T12:42:09Z</time>
      </trkpt>
      <trkpt lat="43.00912399999971" lon="-1.3197669999999981">
        <ele>935.444</ele>
        <time>2022-08-24T12:42:14Z</time>
      </trkpt>
      <trkpt lat="43.00907399999971" lon="-1.3197739999999982">
        <ele>935.205</ele>
        <time>2022-08-24T12:42:15Z</time>
      </trkpt>
      <trkpt lat="43.009037999999705" lon="-1.3197839999999983">
        <ele>935.015</ele>
        <time>2022-08-24T12:42:16Z</time>
      </trkpt>
      <trkpt lat="43.009001999999704" lon="-1.3197989999999984">
        <ele>934.809</ele>
        <time>2022-08-24T12:42:17Z</time>
      </trkpt>
      <trkpt lat="43.0089659999997" lon="-1.3198119999999984">
        <ele>934.645</ele>
        <time>2022-08-24T12:42:18Z</time>
      </trkpt>
      <trkpt lat="43.0089049999997" lon="-1.3198379999999985">
        <ele>934.615</ele>
        <time>2022-08-24T12:42:20Z</time>
      </trkpt>
      <trkpt lat="43.0088779999997" lon="-1.3198379999999985">
        <ele>934.655</ele>
        <time>2022-08-24T12:42:21Z</time>
      </trkpt>
      <trkpt lat="43.0088519999997" lon="-1.3198359999999985">
        <ele>934.481</ele>
        <time>2022-08-24T12:42:22Z</time>
      </trkpt>
      <trkpt lat="43.0088259999997" lon="-1.3198359999999985">
        <ele>934.433</ele>
        <time>2022-08-24T12:42:23Z</time>
      </trkpt>
      <trkpt lat="43.0088069999997" lon="-1.3198339999999984">
        <ele>934.250</ele>
        <time>2022-08-24T12:42:24Z</time>
      </trkpt>
      <trkpt lat="43.0087839999997" lon="-1.3198339999999984">
        <ele>934.243</ele>
        <time>2022-08-24T12:42:25Z</time>
      </trkpt>
      <trkpt lat="43.0087629999997" lon="-1.3198309999999984">
        <ele>933.877</ele>
        <time>2022-08-24T12:42:26Z</time>
      </trkpt>
      <trkpt lat="43.0087439999997" lon="-1.3198309999999984">
        <ele>933.686</ele>
        <time>2022-08-24T12:42:27Z</time>
      </trkpt>
      <trkpt lat="43.0087269999997" lon="-1.3198269999999985">
        <ele>933.638</ele>
        <time>2022-08-24T12:42:28Z</time>
      </trkpt>
      <trkpt lat="43.0087069999997" lon="-1.3198199999999984">
        <ele>933.470</ele>
        <time>2022-08-24T12:42:29Z</time>
      </trkpt>
      <trkpt lat="43.0086679999997" lon="-1.3197929999999984">
        <ele>933.217</ele>
        <time>2022-08-24T12:42:31Z</time>
      </trkpt>
      <trkpt lat="43.0086459999997" lon="-1.3197779999999983">
        <ele>933.209</ele>
        <time>2022-08-24T12:42:32Z</time>
      </trkpt>
      <trkpt lat="43.0085789999997" lon="-1.3197149999999984">
        <ele>933.044</ele>
        <time>2022-08-24T12:42:35Z</time>
      </trkpt>
      <trkpt lat="43.0085569999997" lon="-1.3196979999999985">
        <ele>933.084</ele>
        <time>2022-08-24T12:42:36Z</time>
      </trkpt>
      <trkpt lat="43.008537999999696" lon="-1.3196829999999984">
        <ele>933.014</ele>
        <time>2022-08-24T12:42:37Z</time>
      </trkpt>
      <trkpt lat="43.008523999999696" lon="-1.3196739999999985">
        <ele>932.810</ele>
        <time>2022-08-24T12:42:38Z</time>
      </trkpt>
      <trkpt lat="43.00851399999969" lon="-1.3196699999999986">
        <ele>932.282</ele>
        <time>2022-08-24T12:42:39Z</time>
      </trkpt>
      <trkpt lat="43.00851999999969" lon="-1.3196789999999985">
        <ele>931.079</ele>
        <time>2022-08-24T12:42:52Z</time>
      </trkpt>
      <trkpt lat="43.00850299999969" lon="-1.3197179999999984">
        <ele>930.832</ele>
        <time>2022-08-24T12:42:54Z</time>
      </trkpt>
      <trkpt lat="43.00848699999969" lon="-1.3197929999999984">
        <ele>930.856</ele>
        <time>2022-08-24T12:42:57Z</time>
      </trkpt>
      <trkpt lat="43.00844999999969" lon="-1.3198139999999985">
        <ele>930.685</ele>
        <time>2022-08-24T12:42:59Z</time>
      </trkpt>
      <trkpt lat="43.00843099999969" lon="-1.3198089999999985">
        <ele>930.664</ele>
        <time>2022-08-24T12:43:00Z</time>
      </trkpt>
      <trkpt lat="43.00841199999969" lon="-1.3198039999999984">
        <ele>930.606</ele>
        <time>2022-08-24T12:43:01Z</time>
      </trkpt>
      <trkpt lat="43.008305999999685" lon="-1.3197559999999984">
        <ele>930.416</ele>
        <time>2022-08-24T12:43:06Z</time>
      </trkpt>
      <trkpt lat="43.008285999999686" lon="-1.3197499999999984">
        <ele>930.409</ele>
        <time>2022-08-24T12:43:07Z</time>
      </trkpt>
      <trkpt lat="43.00807299999968" lon="-1.3196569999999985">
        <ele>930.237</ele>
        <time>2022-08-24T12:43:15Z</time>
      </trkpt>
      <trkpt lat="43.00792799999968" lon="-1.3196109999999985">
        <ele>930.067</ele>
        <time>2022-08-24T12:43:19Z</time>
      </trkpt>
      <trkpt lat="43.007889999999676" lon="-1.3196019999999986">
        <ele>930.087</ele>
        <time>2022-08-24T12:43:20Z</time>
      </trkpt>
      <trkpt lat="43.007811999999674" lon="-1.3195799999999986">
        <ele>929.673</ele>
        <time>2022-08-24T12:43:22Z</time>
      </trkpt>
      <trkpt lat="43.00765799999967" lon="-1.3195389999999987">
        <ele>928.875</ele>
        <time>2022-08-24T12:43:26Z</time>
      </trkpt>
      <trkpt lat="43.007580999999675" lon="-1.3195219999999988">
        <ele>928.452</ele>
        <time>2022-08-24T12:43:28Z</time>
      </trkpt>
      <trkpt lat="43.00753499999968" lon="-1.3195059999999987">
        <ele>928.075</ele>
        <time>2022-08-24T12:43:29Z</time>
      </trkpt>
      <trkpt lat="43.00746499999968" lon="-1.3194909999999986">
        <ele>927.869</ele>
        <time>2022-08-24T12:43:31Z</time>
      </trkpt>
      <trkpt lat="43.007172999999675" lon="-1.3194239999999986">
        <ele>927.258</ele>
        <time>2022-08-24T12:43:38Z</time>
      </trkpt>
      <trkpt lat="43.00713199999967" lon="-1.3194159999999986">
        <ele>926.868</ele>
        <time>2022-08-24T12:43:39Z</time>
      </trkpt>
      <trkpt lat="43.00708199999967" lon="-1.3194089999999985">
        <ele>926.642</ele>
        <time>2022-08-24T12:43:40Z</time>
      </trkpt>
      <trkpt lat="43.00698399999967" lon="-1.3193979999999985">
        <ele>926.226</ele>
        <time>2022-08-24T12:43:42Z</time>
      </trkpt>
      <trkpt lat="43.00693399999967" lon="-1.3193939999999986">
        <ele>926.009</ele>
        <time>2022-08-24T12:43:43Z</time>
      </trkpt>
      <trkpt lat="43.006886999999665" lon="-1.3193889999999986">
        <ele>925.877</ele>
        <time>2022-08-24T12:43:44Z</time>
      </trkpt>
      <trkpt lat="43.006844999999664" lon="-1.3193839999999986">
        <ele>925.647</ele>
        <time>2022-08-24T12:43:45Z</time>
      </trkpt>
      <trkpt lat="43.00680999999967" lon="-1.3193819999999985">
        <ele>925.617</ele>
        <time>2022-08-24T12:43:46Z</time>
      </trkpt>
      <trkpt lat="43.00668899999967" lon="-1.3193639999999984">
        <ele>925.283</ele>
        <time>2022-08-24T12:43:49Z</time>
      </trkpt>
      <trkpt lat="43.006647999999664" lon="-1.3193509999999984">
        <ele>925.285</ele>
        <time>2022-08-24T12:43:50Z</time>
      </trkpt>
      <trkpt lat="43.00661299999967" lon="-1.3193399999999984">
        <ele>925.052</ele>
        <time>2022-08-24T12:43:51Z</time>
      </trkpt>
      <trkpt lat="43.006576999999666" lon="-1.3193329999999983">
        <ele>925.085</ele>
        <time>2022-08-24T12:43:52Z</time>
      </trkpt>
      <trkpt lat="43.00654499999967" lon="-1.3193289999999984">
        <ele>925.029</ele>
        <time>2022-08-24T12:43:53Z</time>
      </trkpt>
      <trkpt lat="43.00651399999967" lon="-1.3193259999999984">
        <ele>924.868</ele>
        <time>2022-08-24T12:43:54Z</time>
      </trkpt>
      <trkpt lat="43.00648199999967" lon="-1.3193319999999984">
        <ele>924.839</ele>
        <time>2022-08-24T12:43:55Z</time>
      </trkpt>
      <trkpt lat="43.00645399999967" lon="-1.3193359999999983">
        <ele>924.601</ele>
        <time>2022-08-24T12:43:56Z</time>
      </trkpt>
      <trkpt lat="43.00642599999967" lon="-1.3193329999999983">
        <ele>924.621</ele>
        <time>2022-08-24T12:43:57Z</time>
      </trkpt>
      <trkpt lat="43.00636399999967" lon="-1.3193259999999982">
        <ele>924.409</ele>
        <time>2022-08-24T12:43:59Z</time>
      </trkpt>
      <trkpt lat="43.00632299999967" lon="-1.3193279999999983">
        <ele>924.264</ele>
        <time>2022-08-24T12:44:00Z</time>
      </trkpt>
      <trkpt lat="43.00623999999967" lon="-1.3193409999999983">
        <ele>924.014</ele>
        <time>2022-08-24T12:44:02Z</time>
      </trkpt>
      <trkpt lat="43.00619199999967" lon="-1.3193449999999982">
        <ele>923.894</ele>
        <time>2022-08-24T12:44:03Z</time>
      </trkpt>
      <trkpt lat="43.00613299999967" lon="-1.3193519999999983">
        <ele>923.610</ele>
        <time>2022-08-24T12:44:04Z</time>
      </trkpt>
      <trkpt lat="43.00609599999967" lon="-1.3193539999999984">
        <ele>923.672</ele>
        <time>2022-08-24T12:44:05Z</time>
      </trkpt>
      <trkpt lat="43.00606299999967" lon="-1.3193529999999984">
        <ele>923.619</ele>
        <time>2022-08-24T12:44:06Z</time>
      </trkpt>
      <trkpt lat="43.00603099999967" lon="-1.3193529999999984">
        <ele>923.442</ele>
        <time>2022-08-24T12:44:07Z</time>
      </trkpt>
      <trkpt lat="43.005962999999674" lon="-1.3193409999999985">
        <ele>923.236</ele>
        <time>2022-08-24T12:44:09Z</time>
      </trkpt>
      <trkpt lat="43.005936999999676" lon="-1.3193329999999985">
        <ele>923.055</ele>
        <time>2022-08-24T12:44:10Z</time>
      </trkpt>
      <trkpt lat="43.00590799999968" lon="-1.3193229999999985">
        <ele>923.059</ele>
        <time>2022-08-24T12:44:11Z</time>
      </trkpt>
      <trkpt lat="43.00588599999968" lon="-1.3193249999999985">
        <ele>922.803</ele>
        <time>2022-08-24T12:44:12Z</time>
      </trkpt>
      <trkpt lat="43.00586799999968" lon="-1.3193179999999984">
        <ele>922.623</ele>
        <time>2022-08-24T12:44:13Z</time>
      </trkpt>
      <trkpt lat="43.00585199999968" lon="-1.3193169999999985">
        <ele>922.609</ele>
        <time>2022-08-24T12:44:14Z</time>
      </trkpt>
      <trkpt lat="43.00583499999968" lon="-1.3193139999999985">
        <ele>922.626</ele>
        <time>2022-08-24T12:44:15Z</time>
      </trkpt>
      <trkpt lat="43.005784999999676" lon="-1.3193299999999986">
        <ele>922.046</ele>
        <time>2022-08-24T12:44:17Z</time>
      </trkpt>
      <trkpt lat="43.005753999999676" lon="-1.3193379999999986">
        <ele>922.096</ele>
        <time>2022-08-24T12:44:18Z</time>
      </trkpt>
      <trkpt lat="43.005686999999675" lon="-1.3193389999999985">
        <ele>921.822</ele>
        <time>2022-08-24T12:44:20Z</time>
      </trkpt>
      <trkpt lat="43.005646999999676" lon="-1.3193359999999985">
        <ele>921.644</ele>
        <time>2022-08-24T12:44:22Z</time>
      </trkpt>
      <trkpt lat="43.00556999999968" lon="-1.3193539999999986">
        <ele>921.441</ele>
        <time>2022-08-24T12:44:24Z</time>
      </trkpt>
      <trkpt lat="43.00553799999968" lon="-1.3193749999999986">
        <ele>921.224</ele>
        <time>2022-08-24T12:44:25Z</time>
      </trkpt>
      <trkpt lat="43.00548499999968" lon="-1.3194159999999986">
        <ele>921.038</ele>
        <time>2022-08-24T12:44:26Z</time>
      </trkpt>
      <trkpt lat="43.00542999999968" lon="-1.3194409999999985">
        <ele>921.087</ele>
        <time>2022-08-24T12:44:27Z</time>
      </trkpt>
      <trkpt lat="43.005374999999674" lon="-1.3194559999999986">
        <ele>921.067</ele>
        <time>2022-08-24T12:44:28Z</time>
      </trkpt>
      <trkpt lat="43.005328999999676" lon="-1.3194609999999987">
        <ele>921.081</ele>
        <time>2022-08-24T12:44:29Z</time>
      </trkpt>
      <trkpt lat="43.005227999999676" lon="-1.3194909999999986">
        <ele>921.019</ele>
        <time>2022-08-24T12:44:32Z</time>
      </trkpt>
      <trkpt lat="43.00521299999968" lon="-1.3194989999999986">
        <ele>921.009</ele>
        <time>2022-08-24T12:44:33Z</time>
      </trkpt>
      <trkpt lat="43.00518799999968" lon="-1.3195189999999986">
        <ele>921.027</ele>
        <time>2022-08-24T12:44:34Z</time>
      </trkpt>
      <trkpt lat="43.00515299999968" lon="-1.3195419999999987">
        <ele>921.097</ele>
        <time>2022-08-24T12:44:35Z</time>
      </trkpt>
      <trkpt lat="43.00512499999968" lon="-1.3195449999999986">
        <ele>921.077</ele>
        <time>2022-08-24T12:44:36Z</time>
      </trkpt>
      <trkpt lat="43.00507799999968" lon="-1.3195719999999986">
        <ele>920.823</ele>
        <time>2022-08-24T12:44:38Z</time>
      </trkpt>
      <trkpt lat="43.00502099999968" lon="-1.3196289999999986">
        <ele>920.875</ele>
        <time>2022-08-24T12:44:40Z</time>
      </trkpt>
      <trkpt lat="43.00497599999968" lon="-1.3196649999999985">
        <ele>920.612</ele>
        <time>2022-08-24T12:44:41Z</time>
      </trkpt>
      <trkpt lat="43.00494699999968" lon="-1.3196859999999986">
        <ele>920.645</ele>
        <time>2022-08-24T12:44:42Z</time>
      </trkpt>
      <trkpt lat="43.00485799999968" lon="-1.3197549999999987">
        <ele>920.489</ele>
        <time>2022-08-24T12:44:45Z</time>
      </trkpt>
      <trkpt lat="43.00477799999968" lon="-1.3198149999999986">
        <ele>920.468</ele>
        <time>2022-08-24T12:44:47Z</time>
      </trkpt>
      <trkpt lat="43.00471899999968" lon="-1.3198629999999987">
        <ele>920.483</ele>
        <time>2022-08-24T12:44:49Z</time>
      </trkpt>
      <trkpt lat="43.00468799999968" lon="-1.3198849999999986">
        <ele>920.425</ele>
        <time>2022-08-24T12:44:50Z</time>
      </trkpt>
      <trkpt lat="43.00462099999968" lon="-1.3199429999999985">
        <ele>920.217</ele>
        <time>2022-08-24T12:44:52Z</time>
      </trkpt>
      <trkpt lat="43.00459699999968" lon="-1.3199629999999984">
        <ele>920.209</ele>
        <time>2022-08-24T12:44:53Z</time>
      </trkpt>
      <trkpt lat="43.004465999999674" lon="-1.3200179999999984">
        <ele>919.639</ele>
        <time>2022-08-24T12:44:56Z</time>
      </trkpt>
      <trkpt lat="43.00442699999967" lon="-1.3200169999999984">
        <ele>919.429</ele>
        <time>2022-08-24T12:44:57Z</time>
      </trkpt>
      <trkpt lat="43.00440299999967" lon="-1.3200189999999985">
        <ele>919.289</ele>
        <time>2022-08-24T12:44:58Z</time>
      </trkpt>
      <trkpt lat="43.00436799999967" lon="-1.3200399999999985">
        <ele>919.245</ele>
        <time>2022-08-24T12:44:59Z</time>
      </trkpt>
      <trkpt lat="43.00434099999967" lon="-1.3200619999999985">
        <ele>919.257</ele>
        <time>2022-08-24T12:45:00Z</time>
      </trkpt>
      <trkpt lat="43.00425199999967" lon="-1.3201209999999985">
        <ele>919.014</ele>
        <time>2022-08-24T12:45:03Z</time>
      </trkpt>
      <trkpt lat="43.00409699999967" lon="-1.3201999999999985">
        <ele>919.297</ele>
        <time>2022-08-24T12:45:06Z</time>
      </trkpt>
      <trkpt lat="43.00400999999967" lon="-1.3202399999999985">
        <ele>919.081</ele>
        <time>2022-08-24T12:45:08Z</time>
      </trkpt>
      <trkpt lat="43.00394199999967" lon="-1.3202719999999986">
        <ele>919.020</ele>
        <time>2022-08-24T12:45:10Z</time>
      </trkpt>
      <trkpt lat="43.00385999999967" lon="-1.3203379999999985">
        <ele>918.632</ele>
        <time>2022-08-24T12:45:12Z</time>
      </trkpt>
      <trkpt lat="43.00378499999967" lon="-1.3203939999999985">
        <ele>918.092</ele>
        <time>2022-08-24T12:45:14Z</time>
      </trkpt>
      <trkpt lat="43.003703999999665" lon="-1.3204509999999985">
        <ele>918.011</ele>
        <time>2022-08-24T12:45:16Z</time>
      </trkpt>
      <trkpt lat="43.00360699999967" lon="-1.3205099999999985">
        <ele>917.409</ele>
        <time>2022-08-24T12:45:18Z</time>
      </trkpt>
      <trkpt lat="43.003551999999665" lon="-1.3205329999999986">
        <ele>917.244</ele>
        <time>2022-08-24T12:45:19Z</time>
      </trkpt>
      <trkpt lat="43.00351399999966" lon="-1.3205509999999987">
        <ele>917.064</ele>
        <time>2022-08-24T12:45:20Z</time>
      </trkpt>
      <trkpt lat="43.003467999999664" lon="-1.3205759999999986">
        <ele>917.074</ele>
        <time>2022-08-24T12:45:21Z</time>
      </trkpt>
      <trkpt lat="43.00335899999966" lon="-1.3206299999999986">
        <ele>917.060</ele>
        <time>2022-08-24T12:45:23Z</time>
      </trkpt>
      <trkpt lat="43.00333099999966" lon="-1.3206159999999987">
        <ele>917.042</ele>
        <time>2022-08-24T12:45:24Z</time>
      </trkpt>
      <trkpt lat="43.00329799999966" lon="-1.3206289999999987">
        <ele>917.059</ele>
        <time>2022-08-24T12:45:25Z</time>
      </trkpt>
      <trkpt lat="43.00324599999966" lon="-1.3206799999999987">
        <ele>917.062</ele>
        <time>2022-08-24T12:45:26Z</time>
      </trkpt>
      <trkpt lat="43.003205999999665" lon="-1.3207469999999988">
        <ele>917.066</ele>
        <time>2022-08-24T12:45:27Z</time>
      </trkpt>
      <trkpt lat="43.00315399999967" lon="-1.3208239999999989">
        <ele>916.845</ele>
        <time>2022-08-24T12:45:29Z</time>
      </trkpt>
      <trkpt lat="43.00312899999967" lon="-1.320865999999999">
        <ele>916.628</ele>
        <time>2022-08-24T12:45:30Z</time>
      </trkpt>
      <trkpt lat="43.00309799999967" lon="-1.320935999999999">
        <ele>916.489</ele>
        <time>2022-08-24T12:45:31Z</time>
      </trkpt>
      <trkpt lat="43.003067999999665" lon="-1.320988999999999">
        <ele>916.217</ele>
        <time>2022-08-24T12:45:32Z</time>
      </trkpt>
      <trkpt lat="43.003033999999666" lon="-1.321019999999999">
        <ele>916.009</ele>
        <time>2022-08-24T12:45:33Z</time>
      </trkpt>
      <trkpt lat="43.002994999999665" lon="-1.321045999999999">
        <ele>916.063</ele>
        <time>2022-08-24T12:45:34Z</time>
      </trkpt>
      <trkpt lat="43.002893999999664" lon="-1.321166999999999">
        <ele>915.663</ele>
        <time>2022-08-24T12:45:37Z</time>
      </trkpt>
      <trkpt lat="43.00287199999966" lon="-1.321212999999999">
        <ele>915.623</ele>
        <time>2022-08-24T12:45:38Z</time>
      </trkpt>
      <trkpt lat="43.00283499999966" lon="-1.321258999999999">
        <ele>915.289</ele>
        <time>2022-08-24T12:45:39Z</time>
      </trkpt>
      <trkpt lat="43.00277399999966" lon="-1.321315999999999">
        <ele>915.021</ele>
        <time>2022-08-24T12:45:40Z</time>
      </trkpt>
      <trkpt lat="43.00267599999966" lon="-1.321451999999999">
        <ele>914.868</ele>
        <time>2022-08-24T12:45:42Z</time>
      </trkpt>
      <trkpt lat="43.00264799999966" lon="-1.321505999999999">
        <ele>914.631</ele>
        <time>2022-08-24T12:45:43Z</time>
      </trkpt>
      <trkpt lat="43.00262299999966" lon="-1.3215689999999989">
        <ele>914.485</ele>
        <time>2022-08-24T12:45:44Z</time>
      </trkpt>
      <trkpt lat="43.00254599999966" lon="-1.321719999999999">
        <ele>913.884</ele>
        <time>2022-08-24T12:45:46Z</time>
      </trkpt>
      <trkpt lat="43.00252399999966" lon="-1.321761999999999">
        <ele>913.249</ele>
        <time>2022-08-24T12:45:47Z</time>
      </trkpt>
      <trkpt lat="43.00250499999966" lon="-1.321824999999999">
        <ele>913.002</ele>
        <time>2022-08-24T12:45:48Z</time>
      </trkpt>
      <trkpt lat="43.00246199999966" lon="-1.3218929999999989">
        <ele>912.822</ele>
        <time>2022-08-24T12:45:49Z</time>
      </trkpt>
      <trkpt lat="43.00242799999966" lon="-1.3219559999999988">
        <ele>912.609</ele>
        <time>2022-08-24T12:45:50Z</time>
      </trkpt>
      <trkpt lat="43.00238799999966" lon="-1.3220029999999987">
        <ele>912.045</ele>
        <time>2022-08-24T12:45:51Z</time>
      </trkpt>
      <trkpt lat="43.00236399999966" lon="-1.3220379999999987">
        <ele>911.825</ele>
        <time>2022-08-24T12:45:52Z</time>
      </trkpt>
      <trkpt lat="43.00232699999966" lon="-1.3220949999999987">
        <ele>911.635</ele>
        <time>2022-08-24T12:45:53Z</time>
      </trkpt>
      <trkpt lat="43.00229099999966" lon="-1.3221479999999988">
        <ele>911.491</ele>
        <time>2022-08-24T12:45:54Z</time>
      </trkpt>
      <trkpt lat="43.00227099999966" lon="-1.3221719999999988">
        <ele>911.263</ele>
        <time>2022-08-24T12:45:55Z</time>
      </trkpt>
      <trkpt lat="43.00224099999966" lon="-1.3222049999999987">
        <ele>910.610</ele>
        <time>2022-08-24T12:45:56Z</time>
      </trkpt>
      <trkpt lat="43.00221299999966" lon="-1.3222589999999987">
        <ele>910.443</ele>
        <time>2022-08-24T12:45:57Z</time>
      </trkpt>
      <trkpt lat="43.002187999999656" lon="-1.3223219999999987">
        <ele>910.087</ele>
        <time>2022-08-24T12:45:58Z</time>
      </trkpt>
      <trkpt lat="43.00215099999966" lon="-1.3223939999999987">
        <ele>909.876</ele>
        <time>2022-08-24T12:45:59Z</time>
      </trkpt>
      <trkpt lat="43.00212999999966" lon="-1.3224529999999988">
        <ele>909.638</ele>
        <time>2022-08-24T12:46:00Z</time>
      </trkpt>
      <trkpt lat="43.00209399999966" lon="-1.3225259999999988">
        <ele>909.670</ele>
        <time>2022-08-24T12:46:01Z</time>
      </trkpt>
      <trkpt lat="43.00206899999966" lon="-1.3225849999999988">
        <ele>909.617</ele>
        <time>2022-08-24T12:46:02Z</time>
      </trkpt>
      <trkpt lat="43.00206799999966" lon="-1.3226169999999988">
        <ele>909.609</ele>
        <time>2022-08-24T12:46:03Z</time>
      </trkpt>
      <trkpt lat="43.00205999999966" lon="-1.3226539999999989">
        <ele>909.694</ele>
        <time>2022-08-24T12:46:04Z</time>
      </trkpt>
      <trkpt lat="43.00205699999966" lon="-1.322717999999999">
        <ele>909.654</ele>
        <time>2022-08-24T12:46:05Z</time>
      </trkpt>
      <trkpt lat="43.00206799999966" lon="-1.322750999999999">
        <ele>909.464</ele>
        <time>2022-08-24T12:46:06Z</time>
      </trkpt>
      <trkpt lat="43.00207099999966" lon="-1.3228079999999989">
        <ele>909.430</ele>
        <time>2022-08-24T12:46:07Z</time>
      </trkpt>
      <trkpt lat="43.002046999999656" lon="-1.3228759999999988">
        <ele>909.632</ele>
        <time>2022-08-24T12:46:08Z</time>
      </trkpt>
      <trkpt lat="43.002032999999656" lon="-1.3229589999999989">
        <ele>909.679</ele>
        <time>2022-08-24T12:46:09Z</time>
      </trkpt>
      <trkpt lat="43.00200099999966" lon="-1.323027999999999">
        <ele>909.672</ele>
        <time>2022-08-24T12:46:10Z</time>
      </trkpt>
      <trkpt lat="43.00198199999966" lon="-1.323081999999999">
        <ele>909.646</ele>
        <time>2022-08-24T12:46:11Z</time>
      </trkpt>
      <trkpt lat="43.00195399999966" lon="-1.323132999999999">
        <ele>909.675</ele>
        <time>2022-08-24T12:46:12Z</time>
      </trkpt>
      <trkpt lat="43.001945999999656" lon="-1.323229999999999">
        <ele>909.463</ele>
        <time>2022-08-24T12:46:14Z</time>
      </trkpt>
      <trkpt lat="43.001937999999654" lon="-1.323272999999999">
        <ele>909.244</ele>
        <time>2022-08-24T12:46:15Z</time>
      </trkpt>
      <trkpt lat="43.001914999999656" lon="-1.323370999999999">
        <ele>909.218</ele>
        <time>2022-08-24T12:46:18Z</time>
      </trkpt>
      <trkpt lat="43.00187199999966" lon="-1.323403999999999">
        <ele>909.209</ele>
        <time>2022-08-24T12:46:19Z</time>
      </trkpt>
      <trkpt lat="43.00181999999966" lon="-1.323445999999999">
        <ele>909.217</ele>
        <time>2022-08-24T12:46:20Z</time>
      </trkpt>
      <trkpt lat="43.00180499999966" lon="-1.323492999999999">
        <ele>909.217</ele>
        <time>2022-08-24T12:46:21Z</time>
      </trkpt>
      <trkpt lat="43.00177999999966" lon="-1.323557999999999">
        <ele>909.047</ele>
        <time>2022-08-24T12:46:23Z</time>
      </trkpt>
      <trkpt lat="43.00176699999966" lon="-1.3235859999999988">
        <ele>909.083</ele>
        <time>2022-08-24T12:46:24Z</time>
      </trkpt>
      <trkpt lat="43.00173399999966" lon="-1.323684999999999">
        <ele>909.045</ele>
        <time>2022-08-24T12:46:26Z</time>
      </trkpt>
      <trkpt lat="43.00167099999966" lon="-1.323834999999999">
        <ele>909.022</ele>
        <time>2022-08-24T12:46:28Z</time>
      </trkpt>
      <trkpt lat="43.00166599999966" lon="-1.323898999999999">
        <ele>909.085</ele>
        <time>2022-08-24T12:46:29Z</time>
      </trkpt>
      <trkpt lat="43.00165799999966" lon="-1.324003999999999">
        <ele>908.889</ele>
        <time>2022-08-24T12:46:31Z</time>
      </trkpt>
      <trkpt lat="43.00165099999966" lon="-1.3240809999999992">
        <ele>908.898</ele>
        <time>2022-08-24T12:46:32Z</time>
      </trkpt>
      <trkpt lat="43.001632999999664" lon="-1.3241679999999991">
        <ele>908.852</ele>
        <time>2022-08-24T12:46:33Z</time>
      </trkpt>
      <trkpt lat="43.00161499999967" lon="-1.324273999999999">
        <ele>908.253</ele>
        <time>2022-08-24T12:46:35Z</time>
      </trkpt>
      <trkpt lat="43.00153299999967" lon="-1.3244509999999992">
        <ele>908.008</ele>
        <time>2022-08-24T12:46:38Z</time>
      </trkpt>
      <trkpt lat="43.001508999999665" lon="-1.3245179999999992">
        <ele>907.809</ele>
        <time>2022-08-24T12:46:39Z</time>
      </trkpt>
      <trkpt lat="43.001446999999665" lon="-1.3246039999999992">
        <ele>907.886</ele>
        <time>2022-08-24T12:46:40Z</time>
      </trkpt>
      <trkpt lat="43.001401999999665" lon="-1.3246729999999993">
        <ele>907.686</ele>
        <time>2022-08-24T12:46:41Z</time>
      </trkpt>
      <trkpt lat="43.001367999999665" lon="-1.3247309999999992">
        <ele>907.426</ele>
        <time>2022-08-24T12:46:42Z</time>
      </trkpt>
      <trkpt lat="43.001345999999664" lon="-1.3247829999999992">
        <ele>907.442</ele>
        <time>2022-08-24T12:46:43Z</time>
      </trkpt>
      <trkpt lat="43.001322999999665" lon="-1.3248289999999991">
        <ele>907.094</ele>
        <time>2022-08-24T12:46:44Z</time>
      </trkpt>
      <trkpt lat="43.00127099999967" lon="-1.3249849999999992">
        <ele>906.651</ele>
        <time>2022-08-24T12:46:47Z</time>
      </trkpt>
      <trkpt lat="43.001240999999666" lon="-1.3250389999999992">
        <ele>906.654</ele>
        <time>2022-08-24T12:46:48Z</time>
      </trkpt>
      <trkpt lat="43.00118599999966" lon="-1.3250919999999993">
        <ele>906.818</ele>
        <time>2022-08-24T12:46:49Z</time>
      </trkpt>
      <trkpt lat="43.00113099999966" lon="-1.3251369999999993">
        <ele>906.837</ele>
        <time>2022-08-24T12:46:50Z</time>
      </trkpt>
      <trkpt lat="43.00110599999966" lon="-1.3251669999999993">
        <ele>906.645</ele>
        <time>2022-08-24T12:46:51Z</time>
      </trkpt>
      <trkpt lat="43.00109099999966" lon="-1.3251989999999993">
        <ele>906.647</ele>
        <time>2022-08-24T12:46:52Z</time>
      </trkpt>
      <trkpt lat="43.001069999999665" lon="-1.3252239999999993">
        <ele>906.411</ele>
        <time>2022-08-24T12:46:53Z</time>
      </trkpt>
      <trkpt lat="43.001046999999666" lon="-1.3252459999999993">
        <ele>906.409</ele>
        <time>2022-08-24T12:46:54Z</time>
      </trkpt>
      <trkpt lat="43.000970999999666" lon="-1.3253289999999993">
        <ele>906.435</ele>
        <time>2022-08-24T12:46:56Z</time>
      </trkpt>
      <trkpt lat="43.00088499999966" lon="-1.3254359999999994">
        <ele>906.275</ele>
        <time>2022-08-24T12:46:58Z</time>
      </trkpt>
      <trkpt lat="43.00078199999966" lon="-1.3256069999999993">
        <ele>906.055</ele>
        <time>2022-08-24T12:47:01Z</time>
      </trkpt>
      <trkpt lat="43.00075099999966" lon="-1.3256539999999992">
        <ele>906.021</ele>
        <time>2022-08-24T12:47:02Z</time>
      </trkpt>
      <trkpt lat="43.00067799999966" lon="-1.3257649999999992">
        <ele>905.683</ele>
        <time>2022-08-24T12:47:04Z</time>
      </trkpt>
      <trkpt lat="43.00064599999966" lon="-1.3258049999999992">
        <ele>905.210</ele>
        <time>2022-08-24T12:47:05Z</time>
      </trkpt>
      <trkpt lat="43.000619999999664" lon="-1.3258509999999992">
        <ele>905.253</ele>
        <time>2022-08-24T12:47:06Z</time>
      </trkpt>
      <trkpt lat="43.00061199999966" lon="-1.3258949999999992">
        <ele>905.277</ele>
        <time>2022-08-24T12:47:07Z</time>
      </trkpt>
      <trkpt lat="43.000596999999665" lon="-1.3259439999999991">
        <ele>905.056</ele>
        <time>2022-08-24T12:47:08Z</time>
      </trkpt>
      <trkpt lat="43.00058399999966" lon="-1.3259949999999991">
        <ele>905.033</ele>
        <time>2022-08-24T12:47:09Z</time>
      </trkpt>
      <trkpt lat="43.00056399999966" lon="-1.3260459999999992">
        <ele>905.023</ele>
        <time>2022-08-24T12:47:10Z</time>
      </trkpt>
      <trkpt lat="43.00046399999966" lon="-1.3261749999999992">
        <ele>905.215</ele>
        <time>2022-08-24T12:47:13Z</time>
      </trkpt>
      <trkpt lat="43.00044799999966" lon="-1.3262109999999991">
        <ele>905.009</ele>
        <time>2022-08-24T12:47:14Z</time>
      </trkpt>
      <trkpt lat="43.000437999999654" lon="-1.3262449999999992">
        <ele>904.844</ele>
        <time>2022-08-24T12:47:15Z</time>
      </trkpt>
      <trkpt lat="43.00041099999965" lon="-1.3262999999999991">
        <ele>904.644</ele>
        <time>2022-08-24T12:47:16Z</time>
      </trkpt>
      <trkpt lat="43.000389999999655" lon="-1.3263589999999992">
        <ele>904.644</ele>
        <time>2022-08-24T12:47:17Z</time>
      </trkpt>
      <trkpt lat="43.00039399999965" lon="-1.326386999999999">
        <ele>904.480</ele>
        <time>2022-08-24T12:47:18Z</time>
      </trkpt>
      <trkpt lat="43.00037499999965" lon="-1.3264319999999992">
        <ele>904.422</ele>
        <time>2022-08-24T12:47:19Z</time>
      </trkpt>
      <trkpt lat="43.00025699999965" lon="-1.3266399999999992">
        <ele>903.869</ele>
        <time>2022-08-24T12:47:22Z</time>
      </trkpt>
      <trkpt lat="43.00018499999965" lon="-1.3267559999999992">
        <ele>903.682</ele>
        <time>2022-08-24T12:47:24Z</time>
      </trkpt>
      <trkpt lat="43.00016699999965" lon="-1.3268179999999992">
        <ele>903.646</ele>
        <time>2022-08-24T12:47:25Z</time>
      </trkpt>
      <trkpt lat="43.000142999999646" lon="-1.326891999999999">
        <ele>903.465</ele>
        <time>2022-08-24T12:47:26Z</time>
      </trkpt>
      <trkpt lat="43.00009899999964" lon="-1.327078999999999">
        <ele>903.246</ele>
        <time>2022-08-24T12:47:29Z</time>
      </trkpt>
      <trkpt lat="43.000078999999644" lon="-1.327156999999999">
        <ele>903.088</ele>
        <time>2022-08-24T12:47:30Z</time>
      </trkpt>
      <trkpt lat="43.00003799999964" lon="-1.3272449999999991">
        <ele>902.816</ele>
        <time>2022-08-24T12:47:31Z</time>
      </trkpt>
      <trkpt lat="42.99999299999964" lon="-1.327307999999999">
        <ele>902.409</ele>
        <time>2022-08-24T12:47:32Z</time>
      </trkpt>
      <trkpt lat="42.99994299999964" lon="-1.327364999999999">
        <ele>902.495</ele>
        <time>2022-08-24T12:47:33Z</time>
      </trkpt>
      <trkpt lat="42.99990899999964" lon="-1.327391999999999">
        <ele>902.295</ele>
        <time>2022-08-24T12:47:34Z</time>
      </trkpt>
      <trkpt lat="42.99988399999964" lon="-1.327405999999999">
        <ele>902.285</ele>
        <time>2022-08-24T12:47:35Z</time>
      </trkpt>
      <trkpt lat="42.99984799999964" lon="-1.327438999999999">
        <ele>902.031</ele>
        <time>2022-08-24T12:47:36Z</time>
      </trkpt>
      <trkpt lat="42.99981599999964" lon="-1.3274589999999988">
        <ele>902.043</ele>
        <time>2022-08-24T12:47:37Z</time>
      </trkpt>
      <trkpt lat="42.99978099999964" lon="-1.327468999999999">
        <ele>902.070</ele>
        <time>2022-08-24T12:47:38Z</time>
      </trkpt>
      <trkpt lat="42.99976499999964" lon="-1.3274779999999988">
        <ele>902.083</ele>
        <time>2022-08-24T12:47:39Z</time>
      </trkpt>
      <trkpt lat="42.99974999999964" lon="-1.327495999999999">
        <ele>902.017</ele>
        <time>2022-08-24T12:47:40Z</time>
      </trkpt>
      <trkpt lat="42.999715999999644" lon="-1.3275159999999988">
        <ele>902.026</ele>
        <time>2022-08-24T12:47:41Z</time>
      </trkpt>
      <trkpt lat="42.99968599999964" lon="-1.327530999999999">
        <ele>902.028</ele>
        <time>2022-08-24T12:47:42Z</time>
      </trkpt>
      <trkpt lat="42.99964499999964" lon="-1.327519999999999">
        <ele>902.289</ele>
        <time>2022-08-24T12:47:43Z</time>
      </trkpt>
      <trkpt lat="42.99961299999964" lon="-1.3274969999999988">
        <ele>902.217</ele>
        <time>2022-08-24T12:47:44Z</time>
      </trkpt>
      <trkpt lat="42.99957599999964" lon="-1.327487999999999">
        <ele>902.409</ele>
        <time>2022-08-24T12:47:45Z</time>
      </trkpt>
      <trkpt lat="42.99953999999964" lon="-1.3274719999999989">
        <ele>902.483</ele>
        <time>2022-08-24T12:47:46Z</time>
      </trkpt>
      <trkpt lat="42.99949299999964" lon="-1.3274699999999988">
        <ele>902.453</ele>
        <time>2022-08-24T12:47:47Z</time>
      </trkpt>
      <trkpt lat="42.999423999999635" lon="-1.3274809999999988">
        <ele>902.413</ele>
        <time>2022-08-24T12:47:48Z</time>
      </trkpt>
      <trkpt lat="42.999378999999635" lon="-1.3274939999999988">
        <ele>902.429</ele>
        <time>2022-08-24T12:47:49Z</time>
      </trkpt>
      <trkpt lat="42.99932499999964" lon="-1.327514999999999">
        <ele>902.451</ele>
        <time>2022-08-24T12:47:50Z</time>
      </trkpt>
      <trkpt lat="42.99928499999964" lon="-1.3275319999999988">
        <ele>902.438</ele>
        <time>2022-08-24T12:47:51Z</time>
      </trkpt>
      <trkpt lat="42.99907299999964" lon="-1.327608999999999">
        <ele>902.251</ele>
        <time>2022-08-24T12:47:56Z</time>
      </trkpt>
      <trkpt lat="42.99895699999964" lon="-1.327629999999999">
        <ele>901.495</ele>
        <time>2022-08-24T12:47:58Z</time>
      </trkpt>
      <trkpt lat="42.99881399999964" lon="-1.327661999999999">
        <ele>901.224</ele>
        <time>2022-08-24T12:48:01Z</time>
      </trkpt>
      <trkpt lat="42.99877399999964" lon="-1.327686999999999">
        <ele>901.289</ele>
        <time>2022-08-24T12:48:02Z</time>
      </trkpt>
      <trkpt lat="42.99873599999964" lon="-1.327712999999999">
        <ele>901.206</ele>
        <time>2022-08-24T12:48:03Z</time>
      </trkpt>
      <trkpt lat="42.99865399999964" lon="-1.327766999999999">
        <ele>901.226</ele>
        <time>2022-08-24T12:48:04Z</time>
      </trkpt>
      <trkpt lat="42.99858099999964" lon="-1.327806999999999">
        <ele>901.209</ele>
        <time>2022-08-24T12:48:05Z</time>
      </trkpt>
      <trkpt lat="42.99852799999964" lon="-1.327834999999999">
        <ele>901.019</ele>
        <time>2022-08-24T12:48:06Z</time>
      </trkpt>
      <trkpt lat="42.998489999999634" lon="-1.327847999999999">
        <ele>901.049</ele>
        <time>2022-08-24T12:48:07Z</time>
      </trkpt>
      <trkpt lat="42.998444999999634" lon="-1.3278549999999991">
        <ele>900.869</ele>
        <time>2022-08-24T12:48:08Z</time>
      </trkpt>
      <trkpt lat="42.998390999999636" lon="-1.3278779999999992">
        <ele>900.665</ele>
        <time>2022-08-24T12:48:09Z</time>
      </trkpt>
      <trkpt lat="42.998359999999636" lon="-1.3278999999999992">
        <ele>900.417</ele>
        <time>2022-08-24T12:48:10Z</time>
      </trkpt>
      <trkpt lat="42.99832799999964" lon="-1.3279239999999992">
        <ele>900.464</ele>
        <time>2022-08-24T12:48:11Z</time>
      </trkpt>
      <trkpt lat="42.99828499999964" lon="-1.3279539999999992">
        <ele>900.467</ele>
        <time>2022-08-24T12:48:12Z</time>
      </trkpt>
      <trkpt lat="42.998232999999644" lon="-1.3279799999999993">
        <ele>900.411</ele>
        <time>2022-08-24T12:48:13Z</time>
      </trkpt>
      <trkpt lat="42.99816299999964" lon="-1.3279989999999993">
        <ele>900.260</ele>
        <time>2022-08-24T12:48:14Z</time>
      </trkpt>
      <trkpt lat="42.99811299999964" lon="-1.3280089999999993">
        <ele>900.247</ele>
        <time>2022-08-24T12:48:15Z</time>
      </trkpt>
      <trkpt lat="42.99805499999964" lon="-1.3280429999999994">
        <ele>900.029</ele>
        <time>2022-08-24T12:48:16Z</time>
      </trkpt>
      <trkpt lat="42.99801599999964" lon="-1.3280789999999993">
        <ele>900.021</ele>
        <time>2022-08-24T12:48:17Z</time>
      </trkpt>
      <trkpt lat="42.99799099999964" lon="-1.3281009999999993">
        <ele>899.609</ele>
        <time>2022-08-24T12:48:18Z</time>
      </trkpt>
      <trkpt lat="42.997917999999636" lon="-1.3281429999999994">
        <ele>899.425</ele>
        <time>2022-08-24T12:48:20Z</time>
      </trkpt>
      <trkpt lat="42.99786099999964" lon="-1.3281849999999995">
        <ele>899.495</ele>
        <time>2022-08-24T12:48:21Z</time>
      </trkpt>
      <trkpt lat="42.99781299999964" lon="-1.3282239999999994">
        <ele>899.065</ele>
        <time>2022-08-24T12:48:22Z</time>
      </trkpt>
      <trkpt lat="42.99775699999964" lon="-1.3282739999999995">
        <ele>899.041</ele>
        <time>2022-08-24T12:48:23Z</time>
      </trkpt>
      <trkpt lat="42.997706999999636" lon="-1.3283119999999995">
        <ele>899.033</ele>
        <time>2022-08-24T12:48:24Z</time>
      </trkpt>
      <trkpt lat="42.99766699999964" lon="-1.3283289999999994">
        <ele>898.820</ele>
        <time>2022-08-24T12:48:25Z</time>
      </trkpt>
      <trkpt lat="42.99762999999964" lon="-1.3283559999999994">
        <ele>898.823</ele>
        <time>2022-08-24T12:48:26Z</time>
      </trkpt>
      <trkpt lat="42.997602999999636" lon="-1.3283879999999995">
        <ele>898.637</ele>
        <time>2022-08-24T12:48:27Z</time>
      </trkpt>
      <trkpt lat="42.997588999999635" lon="-1.3284329999999995">
        <ele>898.666</ele>
        <time>2022-08-24T12:48:28Z</time>
      </trkpt>
      <trkpt lat="42.997571999999636" lon="-1.3284719999999994">
        <ele>898.422</ele>
        <time>2022-08-24T12:48:29Z</time>
      </trkpt>
      <trkpt lat="42.997537999999636" lon="-1.3285059999999995">
        <ele>898.462</ele>
        <time>2022-08-24T12:48:30Z</time>
      </trkpt>
      <trkpt lat="42.997495999999636" lon="-1.3285239999999996">
        <ele>898.208</ele>
        <time>2022-08-24T12:48:31Z</time>
      </trkpt>
      <trkpt lat="42.99746899999963" lon="-1.3285429999999996">
        <ele>898.009</ele>
        <time>2022-08-24T12:48:32Z</time>
      </trkpt>
      <trkpt lat="42.99742799999963" lon="-1.3285739999999995">
        <ele>898.083</ele>
        <time>2022-08-24T12:48:33Z</time>
      </trkpt>
      <trkpt lat="42.99737399999963" lon="-1.3286329999999995">
        <ele>897.883</ele>
        <time>2022-08-24T12:48:34Z</time>
      </trkpt>
      <trkpt lat="42.99724999999963" lon="-1.3287659999999994">
        <ele>897.673</ele>
        <time>2022-08-24T12:48:37Z</time>
      </trkpt>
      <trkpt lat="42.99722199999963" lon="-1.3288099999999994">
        <ele>897.689</ele>
        <time>2022-08-24T12:48:38Z</time>
      </trkpt>
      <trkpt lat="42.997175999999634" lon="-1.3288989999999994">
        <ele>897.631</ele>
        <time>2022-08-24T12:48:40Z</time>
      </trkpt>
      <trkpt lat="42.997149999999635" lon="-1.3289459999999993">
        <ele>897.458</ele>
        <time>2022-08-24T12:48:41Z</time>
      </trkpt>
      <trkpt lat="42.99713199999964" lon="-1.3289959999999994">
        <ele>897.231</ele>
        <time>2022-08-24T12:48:42Z</time>
      </trkpt>
      <trkpt lat="42.99711799999964" lon="-1.3290569999999995">
        <ele>897.085</ele>
        <time>2022-08-24T12:48:43Z</time>
      </trkpt>
      <trkpt lat="42.997098999999636" lon="-1.3291209999999996">
        <ele>896.644</ele>
        <time>2022-08-24T12:48:44Z</time>
      </trkpt>
      <trkpt lat="42.99706499999964" lon="-1.3291969999999995">
        <ele>896.467</ele>
        <time>2022-08-24T12:48:45Z</time>
      </trkpt>
      <trkpt lat="42.99703899999964" lon="-1.3292469999999996">
        <ele>896.081</ele>
        <time>2022-08-24T12:48:46Z</time>
      </trkpt>
      <trkpt lat="42.99697399999964" lon="-1.3294599999999996">
        <ele>895.419</ele>
        <time>2022-08-24T12:48:49Z</time>
      </trkpt>
      <trkpt lat="42.99692499999964" lon="-1.3296029999999996">
        <ele>895.209</ele>
        <time>2022-08-24T12:48:51Z</time>
      </trkpt>
      <trkpt lat="42.99689799999964" lon="-1.3296729999999997">
        <ele>895.237</ele>
        <time>2022-08-24T12:48:52Z</time>
      </trkpt>
      <trkpt lat="42.99686399999964" lon="-1.3297419999999998">
        <ele>895.047</ele>
        <time>2022-08-24T12:48:53Z</time>
      </trkpt>
      <trkpt lat="42.99684599999964" lon="-1.3297789999999998">
        <ele>894.657</ele>
        <time>2022-08-24T12:48:54Z</time>
      </trkpt>
      <trkpt lat="42.99683199999964" lon="-1.3298199999999998">
        <ele>894.273</ele>
        <time>2022-08-24T12:48:55Z</time>
      </trkpt>
      <trkpt lat="42.99680799999964" lon="-1.3298879999999997">
        <ele>893.835</ele>
        <time>2022-08-24T12:48:56Z</time>
      </trkpt>
      <trkpt lat="42.99679199999964" lon="-1.3299549999999998">
        <ele>893.872</ele>
        <time>2022-08-24T12:48:57Z</time>
      </trkpt>
      <trkpt lat="42.99675799999964" lon="-1.3300509999999999">
        <ele>893.285</ele>
        <time>2022-08-24T12:48:58Z</time>
      </trkpt>
      <trkpt lat="42.996702999999634" lon="-1.3301599999999998">
        <ele>893.079</ele>
        <time>2022-08-24T12:48:59Z</time>
      </trkpt>
      <trkpt lat="42.996634999999635" lon="-1.3302399999999999">
        <ele>892.668</ele>
        <time>2022-08-24T12:49:00Z</time>
      </trkpt>
      <trkpt lat="42.996583999999636" lon="-1.3302979999999998">
        <ele>892.615</ele>
        <time>2022-08-24T12:49:01Z</time>
      </trkpt>
      <trkpt lat="42.996539999999634" lon="-1.3303409999999998">
        <ele>892.665</ele>
        <time>2022-08-24T12:49:02Z</time>
      </trkpt>
      <trkpt lat="42.996488999999634" lon="-1.3303689999999997">
        <ele>892.211</ele>
        <time>2022-08-24T12:49:03Z</time>
      </trkpt>
      <trkpt lat="42.99643999999964" lon="-1.3303819999999997">
        <ele>892.009</ele>
        <time>2022-08-24T12:49:04Z</time>
      </trkpt>
      <trkpt lat="42.996392999999635" lon="-1.3303839999999998">
        <ele>891.852</ele>
        <time>2022-08-24T12:49:05Z</time>
      </trkpt>
      <trkpt lat="42.996344999999636" lon="-1.33038">
        <ele>891.692</ele>
        <time>2022-08-24T12:49:06Z</time>
      </trkpt>
      <trkpt lat="42.996296999999636" lon="-1.330369">
        <ele>891.052</ele>
        <time>2022-08-24T12:49:07Z</time>
      </trkpt>
      <trkpt lat="42.99624199999963" lon="-1.33036">
        <ele>890.678</ele>
        <time>2022-08-24T12:49:08Z</time>
      </trkpt>
      <trkpt lat="42.996085999999636" lon="-1.330336">
        <ele>889.890</ele>
        <time>2022-08-24T12:49:11Z</time>
      </trkpt>
      <trkpt lat="42.996029999999635" lon="-1.330325">
        <ele>889.677</ele>
        <time>2022-08-24T12:49:12Z</time>
      </trkpt>
      <trkpt lat="42.995694999999635" lon="-1.330222">
        <ele>888.850</ele>
        <time>2022-08-24T12:49:18Z</time>
      </trkpt>
      <trkpt lat="42.99564099999964" lon="-1.330205">
        <ele>888.694</ele>
        <time>2022-08-24T12:49:19Z</time>
      </trkpt>
      <trkpt lat="42.99558699999964" lon="-1.330189">
        <ele>888.673</ele>
        <time>2022-08-24T12:49:20Z</time>
      </trkpt>
      <trkpt lat="42.99553399999964" lon="-1.330173">
        <ele>888.617</ele>
        <time>2022-08-24T12:49:21Z</time>
      </trkpt>
      <trkpt lat="42.99548199999964" lon="-1.330158">
        <ele>888.687</ele>
        <time>2022-08-24T12:49:22Z</time>
      </trkpt>
      <trkpt lat="42.99543099999964" lon="-1.3301429999999999">
        <ele>888.615</ele>
        <time>2022-08-24T12:49:23Z</time>
      </trkpt>
      <trkpt lat="42.99538099999964" lon="-1.3301279999999998">
        <ele>888.409</ele>
        <time>2022-08-24T12:49:24Z</time>
      </trkpt>
      <trkpt lat="42.99533199999964" lon="-1.3301159999999999">
        <ele>888.482</ele>
        <time>2022-08-24T12:49:25Z</time>
      </trkpt>
      <trkpt lat="42.99527399999964" lon="-1.3301029999999998">
        <ele>888.492</ele>
        <time>2022-08-24T12:49:26Z</time>
      </trkpt>
      <trkpt lat="42.99523499999964" lon="-1.3300929999999997">
        <ele>888.452</ele>
        <time>2022-08-24T12:49:27Z</time>
      </trkpt>
      <trkpt lat="42.99518499999964" lon="-1.3300799999999997">
        <ele>888.468</ele>
        <time>2022-08-24T12:49:28Z</time>
      </trkpt>
      <trkpt lat="42.99512799999964" lon="-1.3300689999999997">
        <ele>888.610</ele>
        <time>2022-08-24T12:49:29Z</time>
      </trkpt>
      <trkpt lat="42.99509399999964" lon="-1.3300619999999996">
        <ele>888.667</ele>
        <time>2022-08-24T12:49:30Z</time>
      </trkpt>
      <trkpt lat="42.995052999999636" lon="-1.3300559999999997">
        <ele>888.630</ele>
        <time>2022-08-24T12:49:31Z</time>
      </trkpt>
      <trkpt lat="42.99501299999964" lon="-1.3300419999999997">
        <ele>888.844</ele>
        <time>2022-08-24T12:49:32Z</time>
      </trkpt>
      <trkpt lat="42.994974999999634" lon="-1.3300299999999998">
        <ele>888.823</ele>
        <time>2022-08-24T12:49:33Z</time>
      </trkpt>
      <trkpt lat="42.994932999999634" lon="-1.3300159999999999">
        <ele>889.266</ele>
        <time>2022-08-24T12:49:34Z</time>
      </trkpt>
      <trkpt lat="42.99490499999963" lon="-1.3300079999999999">
        <ele>889.429</ele>
        <time>2022-08-24T12:49:35Z</time>
      </trkpt>
      <trkpt lat="42.994794999999634" lon="-1.329988">
        <ele>889.621</ele>
        <time>2022-08-24T12:49:38Z</time>
      </trkpt>
      <trkpt lat="42.994636999999635" lon="-1.329933">
        <ele>889.809</ele>
        <time>2022-08-24T12:49:42Z</time>
      </trkpt>
      <trkpt lat="42.994515999999635" lon="-1.329903">
        <ele>889.837</ele>
        <time>2022-08-24T12:49:45Z</time>
      </trkpt>
      <trkpt lat="42.99448599999963" lon="-1.329897">
        <ele>889.827</ele>
        <time>2022-08-24T12:49:46Z</time>
      </trkpt>
      <trkpt lat="42.99444799999963" lon="-1.329889">
        <ele>889.847</ele>
        <time>2022-08-24T12:49:47Z</time>
      </trkpt>
      <trkpt lat="42.99441199999963" lon="-1.329882">
        <ele>889.843</ele>
        <time>2022-08-24T12:49:48Z</time>
      </trkpt>
      <trkpt lat="42.994375999999626" lon="-1.329874">
        <ele>889.825</ele>
        <time>2022-08-24T12:49:49Z</time>
      </trkpt>
      <trkpt lat="42.994336999999625" lon="-1.329865">
        <ele>889.832</ele>
        <time>2022-08-24T12:49:50Z</time>
      </trkpt>
      <trkpt lat="42.99431599999963" lon="-1.329855">
        <ele>889.645</ele>
        <time>2022-08-24T12:49:51Z</time>
      </trkpt>
      <trkpt lat="42.994291999999625" lon="-1.329844">
        <ele>889.649</ele>
        <time>2022-08-24T12:49:52Z</time>
      </trkpt>
      <trkpt lat="42.99426799999962" lon="-1.329829">
        <ele>889.698</ele>
        <time>2022-08-24T12:49:53Z</time>
      </trkpt>
      <trkpt lat="42.99424499999962" lon="-1.3298109999999999">
        <ele>889.653</ele>
        <time>2022-08-24T12:49:54Z</time>
      </trkpt>
      <trkpt lat="42.99422299999962" lon="-1.3297959999999998">
        <ele>889.604</ele>
        <time>2022-08-24T12:49:55Z</time>
      </trkpt>
      <trkpt lat="42.99420299999962" lon="-1.3297829999999997">
        <ele>889.614</ele>
        <time>2022-08-24T12:49:56Z</time>
      </trkpt>
      <trkpt lat="42.99418299999962" lon="-1.3297659999999998">
        <ele>889.609</ele>
        <time>2022-08-24T12:49:57Z</time>
      </trkpt>
      <trkpt lat="42.99417299999962" lon="-1.3297509999999997">
        <ele>889.456</ele>
        <time>2022-08-24T12:49:58Z</time>
      </trkpt>
      <trkpt lat="42.99415899999962" lon="-1.3297289999999997">
        <ele>889.426</ele>
        <time>2022-08-24T12:49:59Z</time>
      </trkpt>
      <trkpt lat="42.99405499999962" lon="-1.3295749999999997">
        <ele>889.296</ele>
        <time>2022-08-24T12:50:05Z</time>
      </trkpt>
      <trkpt lat="42.99402999999962" lon="-1.3295609999999998">
        <ele>889.242</ele>
        <time>2022-08-24T12:50:06Z</time>
      </trkpt>
      <trkpt lat="42.99400099999962" lon="-1.3295609999999998">
        <ele>889.234</ele>
        <time>2022-08-24T12:50:07Z</time>
      </trkpt>
      <trkpt lat="42.99397099999962" lon="-1.3295769999999998">
        <ele>889.271</ele>
        <time>2022-08-24T12:50:08Z</time>
      </trkpt>
      <trkpt lat="42.99390799999962" lon="-1.3296279999999998">
        <ele>889.254</ele>
        <time>2022-08-24T12:50:10Z</time>
      </trkpt>
      <trkpt lat="42.99387399999962" lon="-1.3296629999999998">
        <ele>889.068</ele>
        <time>2022-08-24T12:50:11Z</time>
      </trkpt>
      <trkpt lat="42.99383699999962" lon="-1.3296979999999998">
        <ele>889.067</ele>
        <time>2022-08-24T12:50:12Z</time>
      </trkpt>
      <trkpt lat="42.99375599999962" lon="-1.3297739999999998">
        <ele>888.843</ele>
        <time>2022-08-24T12:50:14Z</time>
      </trkpt>
      <trkpt lat="42.99371499999962" lon="-1.3298119999999998">
        <ele>888.864</ele>
        <time>2022-08-24T12:50:15Z</time>
      </trkpt>
      <trkpt lat="42.99338899999962" lon="-1.3301279999999998">
        <ele>888.010</ele>
        <time>2022-08-24T12:50:23Z</time>
      </trkpt>
      <trkpt lat="42.99324499999962" lon="-1.3302679999999998">
        <ele>887.809</ele>
        <time>2022-08-24T12:50:26Z</time>
      </trkpt>
      <trkpt lat="42.99301299999962" lon="-1.3304949999999998">
        <ele>887.025</ele>
        <time>2022-08-24T12:50:31Z</time>
      </trkpt>
      <trkpt lat="42.99289899999962" lon="-1.3306089999999997">
        <ele>886.655</ele>
        <time>2022-08-24T12:50:33Z</time>
      </trkpt>
      <trkpt lat="42.99263899999962" lon="-1.3308639999999996">
        <ele>885.625</ele>
        <time>2022-08-24T12:50:38Z</time>
      </trkpt>
      <trkpt lat="42.99247499999962" lon="-1.3310469999999996">
        <ele>885.041</ele>
        <time>2022-08-24T12:50:41Z</time>
      </trkpt>
      <trkpt lat="42.992428999999625" lon="-1.3311029999999997">
        <ele>884.823</ele>
        <time>2022-08-24T12:50:42Z</time>
      </trkpt>
      <trkpt lat="42.992394999999625" lon="-1.3311469999999996">
        <ele>884.660</ele>
        <time>2022-08-24T12:50:43Z</time>
      </trkpt>
      <trkpt lat="42.99237399999963" lon="-1.3311849999999996">
        <ele>884.443</ele>
        <time>2022-08-24T12:50:44Z</time>
      </trkpt>
      <trkpt lat="42.99235699999963" lon="-1.3312189999999997">
        <ele>883.847</ele>
        <time>2022-08-24T12:50:45Z</time>
      </trkpt>
      <trkpt lat="42.99233899999963" lon="-1.3312509999999997">
        <ele>883.696</ele>
        <time>2022-08-24T12:50:46Z</time>
      </trkpt>
      <trkpt lat="42.99232799999963" lon="-1.3312679999999997">
        <ele>883.424</ele>
        <time>2022-08-24T12:50:47Z</time>
      </trkpt>
      <trkpt lat="42.99231299999963" lon="-1.3312929999999996">
        <ele>883.204</ele>
        <time>2022-08-24T12:50:48Z</time>
      </trkpt>
      <trkpt lat="42.99229999999963" lon="-1.3313159999999997">
        <ele>883.014</ele>
        <time>2022-08-24T12:50:49Z</time>
      </trkpt>
      <trkpt lat="42.99228699999963" lon="-1.3313369999999998">
        <ele>882.809</ele>
        <time>2022-08-24T12:50:50Z</time>
      </trkpt>
      <trkpt lat="42.99226999999963" lon="-1.3313479999999998">
        <ele>882.633</ele>
        <time>2022-08-24T12:50:51Z</time>
      </trkpt>
      <trkpt lat="42.992256999999626" lon="-1.3313379999999997">
        <ele>882.443</ele>
        <time>2022-08-24T12:50:52Z</time>
      </trkpt>
      <trkpt lat="42.99225299999963" lon="-1.3313159999999997">
        <ele>882.253</ele>
        <time>2022-08-24T12:50:53Z</time>
      </trkpt>
      <trkpt lat="42.99225799999963" lon="-1.3312919999999997">
        <ele>882.259</ele>
        <time>2022-08-24T12:50:54Z</time>
      </trkpt>
      <trkpt lat="42.99226499999963" lon="-1.3312689999999996">
        <ele>882.081</ele>
        <time>2022-08-24T12:50:55Z</time>
      </trkpt>
      <trkpt lat="42.992270999999626" lon="-1.3312369999999996">
        <ele>882.018</ele>
        <time>2022-08-24T12:50:56Z</time>
      </trkpt>
      <trkpt lat="42.99225299999963" lon="-1.3310229999999996">
        <ele>882.061</ele>
        <time>2022-08-24T12:51:01Z</time>
      </trkpt>
      <trkpt lat="42.99223599999963" lon="-1.3309839999999997">
        <ele>882.035</ele>
        <time>2022-08-24T12:51:02Z</time>
      </trkpt>
      <trkpt lat="42.99221399999963" lon="-1.3309399999999998">
        <ele>882.044</ele>
        <time>2022-08-24T12:51:03Z</time>
      </trkpt>
      <trkpt lat="42.992197999999625" lon="-1.3309129999999998">
        <ele>882.063</ele>
        <time>2022-08-24T12:51:04Z</time>
      </trkpt>
      <trkpt lat="42.992175999999624" lon="-1.330882">
        <ele>882.044</ele>
        <time>2022-08-24T12:51:05Z</time>
      </trkpt>
      <trkpt lat="42.992152999999625" lon="-1.330854">
        <ele>882.018</ele>
        <time>2022-08-24T12:51:06Z</time>
      </trkpt>
      <trkpt lat="42.99213199999963" lon="-1.330826">
        <ele>882.209</ele>
        <time>2022-08-24T12:51:07Z</time>
      </trkpt>
      <trkpt lat="42.99207799999963" lon="-1.330778">
        <ele>882.457</ele>
        <time>2022-08-24T12:51:09Z</time>
      </trkpt>
      <trkpt lat="42.99202399999963" lon="-1.330764">
        <ele>882.637</ele>
        <time>2022-08-24T12:51:11Z</time>
      </trkpt>
      <trkpt lat="42.99198699999963" lon="-1.330777">
        <ele>882.837</ele>
        <time>2022-08-24T12:51:12Z</time>
      </trkpt>
      <trkpt lat="42.99189699999963" lon="-1.3308550000000001">
        <ele>883.223</ele>
        <time>2022-08-24T12:51:15Z</time>
      </trkpt>
      <trkpt lat="42.991864999999635" lon="-1.330885">
        <ele>883.235</ele>
        <time>2022-08-24T12:51:16Z</time>
      </trkpt>
      <trkpt lat="42.99175599999963" lon="-1.3309980000000001">
        <ele>883.432</ele>
        <time>2022-08-24T12:51:19Z</time>
      </trkpt>
      <trkpt lat="42.99152799999963" lon="-1.3312700000000002">
        <ele>883.075</ele>
        <time>2022-08-24T12:51:26Z</time>
      </trkpt>
      <trkpt lat="42.991487999999634" lon="-1.3313210000000002">
        <ele>883.259</ele>
        <time>2022-08-24T12:51:27Z</time>
      </trkpt>
      <trkpt lat="42.99129699999963" lon="-1.3315630000000003">
        <ele>883.238</ele>
        <time>2022-08-24T12:51:33Z</time>
      </trkpt>
      <trkpt lat="42.991262999999634" lon="-1.3316060000000003">
        <ele>883.257</ele>
        <time>2022-08-24T12:51:34Z</time>
      </trkpt>
      <trkpt lat="42.99122099999963" lon="-1.3316520000000003">
        <ele>883.200</ele>
        <time>2022-08-24T12:51:35Z</time>
      </trkpt>
      <trkpt lat="42.99096899999963" lon="-1.3320210000000003">
        <ele>883.220</ele>
        <time>2022-08-24T12:51:43Z</time>
      </trkpt>
      <trkpt lat="42.99093499999963" lon="-1.3320610000000004">
        <ele>883.209</ele>
        <time>2022-08-24T12:51:44Z</time>
      </trkpt>
      <trkpt lat="42.99090299999963" lon="-1.3321070000000004">
        <ele>883.046</ele>
        <time>2022-08-24T12:51:45Z</time>
      </trkpt>
      <trkpt lat="42.99084499999963" lon="-1.3322010000000004">
        <ele>883.056</ele>
        <time>2022-08-24T12:51:47Z</time>
      </trkpt>
      <trkpt lat="42.99078499999963" lon="-1.3322920000000005">
        <ele>882.836</ele>
        <time>2022-08-24T12:51:49Z</time>
      </trkpt>
      <trkpt lat="42.99054599999963" lon="-1.3326250000000004">
        <ele>882.242</ele>
        <time>2022-08-24T12:51:56Z</time>
      </trkpt>
      <trkpt lat="42.99051599999963" lon="-1.3326670000000005">
        <ele>882.064</ele>
        <time>2022-08-24T12:51:57Z</time>
      </trkpt>
      <trkpt lat="42.99048899999963" lon="-1.3327100000000005">
        <ele>881.831</ele>
        <time>2022-08-24T12:51:58Z</time>
      </trkpt>
      <trkpt lat="42.990461999999624" lon="-1.3327510000000005">
        <ele>881.854</ele>
        <time>2022-08-24T12:51:59Z</time>
      </trkpt>
      <trkpt lat="42.99043499999962" lon="-1.3327950000000004">
        <ele>881.618</ele>
        <time>2022-08-24T12:52:00Z</time>
      </trkpt>
      <trkpt lat="42.99033999999962" lon="-1.3329190000000004">
        <ele>881.457</ele>
        <time>2022-08-24T12:52:03Z</time>
      </trkpt>
      <trkpt lat="42.99011699999962" lon="-1.3332630000000003">
        <ele>881.256</ele>
        <time>2022-08-24T12:52:10Z</time>
      </trkpt>
      <trkpt lat="42.99008399999962" lon="-1.3333120000000003">
        <ele>881.059</ele>
        <time>2022-08-24T12:52:11Z</time>
      </trkpt>
      <trkpt lat="42.98994999999962" lon="-1.3334990000000002">
        <ele>880.814</ele>
        <time>2022-08-24T12:52:15Z</time>
      </trkpt>
      <trkpt lat="42.98991799999962" lon="-1.3335460000000001">
        <ele>880.809</ele>
        <time>2022-08-24T12:52:16Z</time>
      </trkpt>
      <trkpt lat="42.98984699999962" lon="-1.333633">
        <ele>880.636</ele>
        <time>2022-08-24T12:52:18Z</time>
      </trkpt>
      <trkpt lat="42.98963699999962" lon="-1.333915">
        <ele>880.436</ele>
        <time>2022-08-24T12:52:24Z</time>
      </trkpt>
      <trkpt lat="42.98960299999962" lon="-1.333965">
        <ele>880.446</ele>
        <time>2022-08-24T12:52:25Z</time>
      </trkpt>
      <trkpt lat="42.989496999999616" lon="-1.334117">
        <ele>880.262</ele>
        <time>2022-08-24T12:52:28Z</time>
      </trkpt>
      <trkpt lat="42.98946499999962" lon="-1.334167">
        <ele>880.074</ele>
        <time>2022-08-24T12:52:29Z</time>
      </trkpt>
      <trkpt lat="42.98943399999962" lon="-1.3342180000000001">
        <ele>880.041</ele>
        <time>2022-08-24T12:52:30Z</time>
      </trkpt>
      <trkpt lat="42.98939899999962" lon="-1.334267">
        <ele>879.684</ele>
        <time>2022-08-24T12:52:31Z</time>
      </trkpt>
      <trkpt lat="42.98936599999962" lon="-1.3343120000000002">
        <ele>879.678</ele>
        <time>2022-08-24T12:52:32Z</time>
      </trkpt>
      <trkpt lat="42.98933199999962" lon="-1.3343580000000002">
        <ele>879.477</ele>
        <time>2022-08-24T12:52:33Z</time>
      </trkpt>
      <trkpt lat="42.98929799999962" lon="-1.3344040000000001">
        <ele>879.445</ele>
        <time>2022-08-24T12:52:34Z</time>
      </trkpt>
      <trkpt lat="42.98926699999962" lon="-1.3344470000000002">
        <ele>879.247</ele>
        <time>2022-08-24T12:52:35Z</time>
      </trkpt>
      <trkpt lat="42.989234999999624" lon="-1.3344850000000001">
        <ele>879.211</ele>
        <time>2022-08-24T12:52:36Z</time>
      </trkpt>
      <trkpt lat="42.98908199999963" lon="-1.3347220000000002">
        <ele>879.209</ele>
        <time>2022-08-24T12:52:41Z</time>
      </trkpt>
      <trkpt lat="42.98905099999963" lon="-1.3347740000000001">
        <ele>879.225</ele>
        <time>2022-08-24T12:52:42Z</time>
      </trkpt>
      <trkpt lat="42.98903099999963" lon="-1.334821">
        <ele>879.025</ele>
        <time>2022-08-24T12:52:43Z</time>
      </trkpt>
      <trkpt lat="42.98901899999963" lon="-1.334862">
        <ele>879.225</ele>
        <time>2022-08-24T12:52:44Z</time>
      </trkpt>
      <trkpt lat="42.98901499999963" lon="-1.3349">
        <ele>879.041</ele>
        <time>2022-08-24T12:52:45Z</time>
      </trkpt>
      <trkpt lat="42.98901199999963" lon="-1.3349309999999999">
        <ele>879.013</ele>
        <time>2022-08-24T12:52:46Z</time>
      </trkpt>
      <trkpt lat="42.988999999999635" lon="-1.334952">
        <ele>878.830</ele>
        <time>2022-08-24T12:52:47Z</time>
      </trkpt>
      <trkpt lat="42.98898099999963" lon="-1.334968">
        <ele>878.843</ele>
        <time>2022-08-24T12:52:48Z</time>
      </trkpt>
      <trkpt lat="42.98895899999963" lon="-1.334981">
        <ele>878.887</ele>
        <time>2022-08-24T12:52:49Z</time>
      </trkpt>
      <trkpt lat="42.98882699999963" lon="-1.3351279999999999">
        <ele>878.666</ele>
        <time>2022-08-24T12:52:55Z</time>
      </trkpt>
      <trkpt lat="42.98881399999963" lon="-1.335168">
        <ele>878.633</ele>
        <time>2022-08-24T12:52:56Z</time>
      </trkpt>
      <trkpt lat="42.98880699999963" lon="-1.335213">
        <ele>878.623</ele>
        <time>2022-08-24T12:52:57Z</time>
      </trkpt>
      <trkpt lat="42.98880499999963" lon="-1.335261">
        <ele>878.615</ele>
        <time>2022-08-24T12:52:58Z</time>
      </trkpt>
      <trkpt lat="42.98880599999963" lon="-1.33531">
        <ele>878.609</ele>
        <time>2022-08-24T12:52:59Z</time>
      </trkpt>
      <trkpt lat="42.98880799999963" lon="-1.335357">
        <ele>878.634</ele>
        <time>2022-08-24T12:53:00Z</time>
      </trkpt>
      <trkpt lat="42.98880999999963" lon="-1.3354009999999998">
        <ele>878.434</ele>
        <time>2022-08-24T12:53:01Z</time>
      </trkpt>
      <trkpt lat="42.98881499999963" lon="-1.335443">
        <ele>878.454</ele>
        <time>2022-08-24T12:53:02Z</time>
      </trkpt>
      <trkpt lat="42.98882699999963" lon="-1.335478">
        <ele>878.440</ele>
        <time>2022-08-24T12:53:03Z</time>
      </trkpt>
      <trkpt lat="42.98884099999963" lon="-1.3355089999999998">
        <ele>878.422</ele>
        <time>2022-08-24T12:53:04Z</time>
      </trkpt>
      <trkpt lat="42.98885299999963" lon="-1.3355369999999998">
        <ele>878.469</ele>
        <time>2022-08-24T12:53:05Z</time>
      </trkpt>
      <trkpt lat="42.98886499999963" lon="-1.3355629999999998">
        <ele>878.412</ele>
        <time>2022-08-24T12:53:06Z</time>
      </trkpt>
      <trkpt lat="42.988882999999625" lon="-1.3355829999999997">
        <ele>878.836</ele>
        <time>2022-08-24T12:53:07Z</time>
      </trkpt>
      <trkpt lat="42.98890399999962" lon="-1.3355969999999997">
        <ele>879.045</ele>
        <time>2022-08-24T12:53:08Z</time>
      </trkpt>
      <trkpt lat="42.98891299999962" lon="-1.3356129999999997">
        <ele>879.454</ele>
        <time>2022-08-24T12:53:09Z</time>
      </trkpt>
      <trkpt lat="42.98891699999962" lon="-1.3356209999999997">
        <ele>879.656</ele>
        <time>2022-08-24T12:53:10Z</time>
      </trkpt>
      <trkpt lat="42.988911999999615" lon="-1.3356149999999998">
        <ele>879.611</ele>
        <time>2022-08-24T12:53:11Z</time>
      </trkpt>
      <trkpt lat="42.98890799999962" lon="-1.3356069999999998">
        <ele>879.609</ele>
        <time>2022-08-24T12:53:12Z</time>
      </trkpt>
      <trkpt lat="42.98889899999962" lon="-1.3355939999999997">
        <ele>879.656</ele>
        <time>2022-08-24T12:53:13Z</time>
      </trkpt>
      <trkpt lat="42.98887399999962" lon="-1.3355689999999998">
        <ele>879.436</ele>
        <time>2022-08-24T12:53:15Z</time>
      </trkpt>
      <trkpt lat="42.98884899999962" lon="-1.335511">
        <ele>879.236</ele>
        <time>2022-08-24T12:53:17Z</time>
      </trkpt>
      <trkpt lat="42.988838999999615" lon="-1.335462">
        <ele>879.082</ele>
        <time>2022-08-24T12:53:18Z</time>
      </trkpt>
      <trkpt lat="42.98883199999962" lon="-1.335402">
        <ele>879.244</ele>
        <time>2022-08-24T12:53:19Z</time>
      </trkpt>
      <trkpt lat="42.988835999999615" lon="-1.335339">
        <ele>879.081</ele>
        <time>2022-08-24T12:53:20Z</time>
      </trkpt>
      <trkpt lat="42.988841999999615" lon="-1.335264">
        <ele>879.094</ele>
        <time>2022-08-24T12:53:21Z</time>
      </trkpt>
      <trkpt lat="42.988849999999616" lon="-1.335205">
        <ele>879.078</ele>
        <time>2022-08-24T12:53:22Z</time>
      </trkpt>
      <trkpt lat="42.98885499999962" lon="-1.335154">
        <ele>879.067</ele>
        <time>2022-08-24T12:53:23Z</time>
      </trkpt>
      <trkpt lat="42.98886499999962" lon="-1.335105">
        <ele>878.861</ele>
        <time>2022-08-24T12:53:24Z</time>
      </trkpt>
      <trkpt lat="42.98887799999962" lon="-1.335073">
        <ele>878.821</ele>
        <time>2022-08-24T12:53:25Z</time>
      </trkpt>
      <trkpt lat="42.988890999999626" lon="-1.335038">
        <ele>878.813</ele>
        <time>2022-08-24T12:53:26Z</time>
      </trkpt>
      <trkpt lat="42.98890599999962" lon="-1.335">
        <ele>878.809</ele>
        <time>2022-08-24T12:53:27Z</time>
      </trkpt>
      <trkpt lat="42.988919999999624" lon="-1.334968">
        <ele>878.817</ele>
        <time>2022-08-24T12:53:28Z</time>
      </trkpt>
      <trkpt lat="42.98893499999962" lon="-1.33494">
        <ele>878.687</ele>
        <time>2022-08-24T12:53:29Z</time>
      </trkpt>
      <trkpt lat="42.98894999999962" lon="-1.334911">
        <ele>878.657</ele>
        <time>2022-08-24T12:53:30Z</time>
      </trkpt>
      <trkpt lat="42.98895799999962" lon="-1.334886">
        <ele>878.653</ele>
        <time>2022-08-24T12:53:31Z</time>
      </trkpt>
      <trkpt lat="42.98895899999962" lon="-1.334861">
        <ele>878.625</ele>
        <time>2022-08-24T12:53:32Z</time>
      </trkpt>
      <trkpt lat="42.988959999999615" lon="-1.3348330000000002">
        <ele>878.622</ele>
        <time>2022-08-24T12:53:33Z</time>
      </trkpt>
      <trkpt lat="42.98895499999961" lon="-1.3348030000000002">
        <ele>878.635</ele>
        <time>2022-08-24T12:53:34Z</time>
      </trkpt>
      <trkpt lat="42.98894799999962" lon="-1.3347860000000003">
        <ele>878.629</ele>
        <time>2022-08-24T12:53:35Z</time>
      </trkpt>
      <trkpt lat="42.98894099999962" lon="-1.3347710000000002">
        <ele>878.648</ele>
        <time>2022-08-24T12:53:36Z</time>
      </trkpt>
      <trkpt lat="42.98893499999962" lon="-1.3347590000000003">
        <ele>878.657</ele>
        <time>2022-08-24T12:53:37Z</time>
      </trkpt>
      <trkpt lat="42.98893299999962" lon="-1.3347520000000002">
        <ele>878.400</ele>
        <time>2022-08-24T12:53:58Z</time>
      </trkpt>
      <trkpt lat="42.98894699999962" lon="-1.334745">
        <ele>878.420</ele>
        <time>2022-08-24T12:53:59Z</time>
      </trkpt>
      <trkpt lat="42.98896299999962" lon="-1.334748">
        <ele>878.409</ele>
        <time>2022-08-24T12:54:00Z</time>
      </trkpt>
      <trkpt lat="42.98901999999962" lon="-1.334848">
        <ele>878.426</ele>
        <time>2022-08-24T12:54:04Z</time>
      </trkpt>
      <trkpt lat="42.98903099999962" lon="-1.33488">
        <ele>878.476</ele>
        <time>2022-08-24T12:54:05Z</time>
      </trkpt>
      <trkpt lat="42.98904399999962" lon="-1.334913">
        <ele>878.476</ele>
        <time>2022-08-24T12:54:06Z</time>
      </trkpt>
      <trkpt lat="42.98915199999962" lon="-1.335137">
        <ele>878.832</ele>
        <time>2022-08-24T12:54:12Z</time>
      </trkpt>
      <trkpt lat="42.98917099999962" lon="-1.335166">
        <ele>878.854</ele>
        <time>2022-08-24T12:54:13Z</time>
      </trkpt>
      <trkpt lat="42.989186999999625" lon="-1.335201">
        <ele>878.881</ele>
        <time>2022-08-24T12:54:14Z</time>
      </trkpt>
      <trkpt lat="42.989200999999625" lon="-1.335237">
        <ele>879.024</ele>
        <time>2022-08-24T12:54:15Z</time>
      </trkpt>
      <trkpt lat="42.989217999999624" lon="-1.33527">
        <ele>879.068</ele>
        <time>2022-08-24T12:54:16Z</time>
      </trkpt>
      <trkpt lat="42.989237999999624" lon="-1.335302">
        <ele>879.027</ele>
        <time>2022-08-24T12:54:17Z</time>
      </trkpt>
      <trkpt lat="42.989253999999626" lon="-1.3353329999999999">
        <ele>879.243</ele>
        <time>2022-08-24T12:54:18Z</time>
      </trkpt>
      <trkpt lat="42.989267999999626" lon="-1.335365">
        <ele>879.464</ele>
        <time>2022-08-24T12:54:19Z</time>
      </trkpt>
      <trkpt lat="42.989279999999624" lon="-1.335397">
        <ele>879.610</ele>
        <time>2022-08-24T12:54:20Z</time>
      </trkpt>
      <trkpt lat="42.98929599999963" lon="-1.33543">
        <ele>879.809</ele>
        <time>2022-08-24T12:54:21Z</time>
      </trkpt>
      <trkpt lat="42.989304999999625" lon="-1.3354609999999998">
        <ele>879.875</ele>
        <time>2022-08-24T12:54:22Z</time>
      </trkpt>
      <trkpt lat="42.989312999999626" lon="-1.3355349999999997">
        <ele>880.015</ele>
        <time>2022-08-24T12:54:24Z</time>
      </trkpt>
      <trkpt lat="42.98931199999963" lon="-1.3355729999999997">
        <ele>880.065</ele>
        <time>2022-08-24T12:54:25Z</time>
      </trkpt>
      <trkpt lat="42.98931499999963" lon="-1.3356079999999997">
        <ele>880.011</ele>
        <time>2022-08-24T12:54:26Z</time>
      </trkpt>
      <trkpt lat="42.989332999999625" lon="-1.3356709999999996">
        <ele>880.273</ele>
        <time>2022-08-24T12:54:28Z</time>
      </trkpt>
      <trkpt lat="42.989346999999626" lon="-1.3356989999999995">
        <ele>880.260</ele>
        <time>2022-08-24T12:54:29Z</time>
      </trkpt>
      <trkpt lat="42.98935499999963" lon="-1.3357259999999995">
        <ele>880.463</ele>
        <time>2022-08-24T12:54:30Z</time>
      </trkpt>
      <trkpt lat="42.98935999999963" lon="-1.3357509999999995">
        <ele>880.247</ele>
        <time>2022-08-24T12:54:31Z</time>
      </trkpt>
      <trkpt lat="42.989357999999626" lon="-1.3357749999999995">
        <ele>880.276</ele>
        <time>2022-08-24T12:54:32Z</time>
      </trkpt>
      <trkpt lat="42.98934899999963" lon="-1.3358019999999995">
        <ele>880.257</ele>
        <time>2022-08-24T12:54:33Z</time>
      </trkpt>
      <trkpt lat="42.989293999999624" lon="-1.3358819999999996">
        <ele>880.000</ele>
        <time>2022-08-24T12:54:36Z</time>
      </trkpt>
      <trkpt lat="42.989265999999624" lon="-1.3358989999999995">
        <ele>880.020</ele>
        <time>2022-08-24T12:54:37Z</time>
      </trkpt>
      <trkpt lat="42.98922999999962" lon="-1.3359189999999994">
        <ele>879.809</ele>
        <time>2022-08-24T12:54:38Z</time>
      </trkpt>
      <trkpt lat="42.98912599999962" lon="-1.3359939999999995">
        <ele>879.826</ele>
        <time>2022-08-24T12:54:41Z</time>
      </trkpt>
      <trkpt lat="42.98904699999962" lon="-1.3360629999999996">
        <ele>879.636</ele>
        <time>2022-08-24T12:54:43Z</time>
      </trkpt>
      <trkpt lat="42.98896299999962" lon="-1.3361259999999995">
        <ele>879.466</ele>
        <time>2022-08-24T12:54:45Z</time>
      </trkpt>
      <trkpt lat="42.98884699999962" lon="-1.3362159999999994">
        <ele>879.252</ele>
        <time>2022-08-24T12:54:48Z</time>
      </trkpt>
      <trkpt lat="42.98875999999962" lon="-1.3362729999999994">
        <ele>879.034</ele>
        <time>2022-08-24T12:54:50Z</time>
      </trkpt>
      <trkpt lat="42.988589999999625" lon="-1.3363729999999994">
        <ele>878.651</ele>
        <time>2022-08-24T12:54:54Z</time>
      </trkpt>
      <trkpt lat="42.98854599999962" lon="-1.3363969999999994">
        <ele>878.464</ele>
        <time>2022-08-24T12:54:55Z</time>
      </trkpt>
      <trkpt lat="42.988505999999624" lon="-1.3364169999999993">
        <ele>878.448</ele>
        <time>2022-08-24T12:54:56Z</time>
      </trkpt>
      <trkpt lat="42.98846699999962" lon="-1.3364379999999993">
        <ele>878.267</ele>
        <time>2022-08-24T12:54:57Z</time>
      </trkpt>
      <trkpt lat="42.98843399999962" lon="-1.3364509999999994">
        <ele>878.233</ele>
        <time>2022-08-24T12:54:58Z</time>
      </trkpt>
      <trkpt lat="42.988415999999624" lon="-1.3364709999999993">
        <ele>878.023</ele>
        <time>2022-08-24T12:54:59Z</time>
      </trkpt>
      <trkpt lat="42.98841199999963" lon="-1.3364989999999992">
        <ele>878.015</ele>
        <time>2022-08-24T12:55:00Z</time>
      </trkpt>
      <trkpt lat="42.988417999999626" lon="-1.3365259999999992">
        <ele>877.809</ele>
        <time>2022-08-24T12:55:01Z</time>
      </trkpt>
      <trkpt lat="42.98845099999963" lon="-1.3366619999999991">
        <ele>877.474</ele>
        <time>2022-08-24T12:55:05Z</time>
      </trkpt>
      <trkpt lat="42.98845899999963" lon="-1.3366969999999991">
        <ele>877.464</ele>
        <time>2022-08-24T12:55:06Z</time>
      </trkpt>
      <trkpt lat="42.98846699999963" lon="-1.3367309999999992">
        <ele>877.424</ele>
        <time>2022-08-24T12:55:07Z</time>
      </trkpt>
      <trkpt lat="42.98847499999963" lon="-1.3367629999999993">
        <ele>877.230</ele>
        <time>2022-08-24T12:55:08Z</time>
      </trkpt>
      <trkpt lat="42.98848299999963" lon="-1.3367909999999992">
        <ele>876.852</ele>
        <time>2022-08-24T12:55:09Z</time>
      </trkpt>
      <trkpt lat="42.98848899999963" lon="-1.3368119999999992">
        <ele>876.689</ele>
        <time>2022-08-24T12:55:10Z</time>
      </trkpt>
      <trkpt lat="42.98849499999963" lon="-1.3368429999999991">
        <ele>876.222</ele>
        <time>2022-08-24T12:55:11Z</time>
      </trkpt>
      <trkpt lat="42.98850199999963" lon="-1.3368849999999992">
        <ele>876.256</ele>
        <time>2022-08-24T12:55:12Z</time>
      </trkpt>
      <trkpt lat="42.98853599999963" lon="-1.3370039999999992">
        <ele>875.225</ele>
        <time>2022-08-24T12:55:15Z</time>
      </trkpt>
      <trkpt lat="42.98854599999963" lon="-1.3370469999999992">
        <ele>874.884</ele>
        <time>2022-08-24T12:55:16Z</time>
      </trkpt>
      <trkpt lat="42.98855599999963" lon="-1.3370839999999993">
        <ele>874.607</ele>
        <time>2022-08-24T12:55:17Z</time>
      </trkpt>
      <trkpt lat="42.988557999999635" lon="-1.3371159999999993">
        <ele>873.417</ele>
        <time>2022-08-24T12:55:18Z</time>
      </trkpt>
      <trkpt lat="42.988557999999635" lon="-1.3371449999999994">
        <ele>872.809</ele>
        <time>2022-08-24T12:55:19Z</time>
      </trkpt>
      <trkpt lat="42.988554999999636" lon="-1.3371749999999993">
        <ele>872.039</ele>
        <time>2022-08-24T12:55:20Z</time>
      </trkpt>
      <trkpt lat="42.98854599999964" lon="-1.3372059999999992">
        <ele>871.679</ele>
        <time>2022-08-24T12:55:21Z</time>
      </trkpt>
      <trkpt lat="42.98853699999964" lon="-1.3372339999999991">
        <ele>871.279</ele>
        <time>2022-08-24T12:55:22Z</time>
      </trkpt>
      <trkpt lat="42.988526999999635" lon="-1.3372579999999992">
        <ele>870.465</ele>
        <time>2022-08-24T12:55:23Z</time>
      </trkpt>
      <trkpt lat="42.988512999999635" lon="-1.337304999999999">
        <ele>870.267</ele>
        <time>2022-08-24T12:55:24Z</time>
      </trkpt>
      <trkpt lat="42.988512999999635" lon="-1.337304999999999">
        <ele>869.654</ele>
        <time>2022-08-24T12:55:25Z</time>
      </trkpt>
      <trkpt lat="42.98850599999964" lon="-1.337374999999999">
        <ele>869.227</ele>
        <time>2022-08-24T12:55:27Z</time>
      </trkpt>
      <trkpt lat="42.988509999999636" lon="-1.3375059999999992">
        <ele>868.871</ele>
        <time>2022-08-24T12:55:30Z</time>
      </trkpt>
      <trkpt lat="42.988520999999636" lon="-1.337587999999999">
        <ele>868.660</ele>
        <time>2022-08-24T12:55:31Z</time>
      </trkpt>
      <trkpt lat="42.988520999999636" lon="-1.337587999999999">
        <ele>868.269</ele>
        <time>2022-08-24T12:55:32Z</time>
      </trkpt>
      <trkpt lat="42.98853099999964" lon="-1.337644999999999">
        <ele>867.804</ele>
        <time>2022-08-24T12:55:33Z</time>
      </trkpt>
      <trkpt lat="42.98853499999964" lon="-1.3376679999999992">
        <ele>867.424</ele>
        <time>2022-08-24T12:55:34Z</time>
      </trkpt>
      <trkpt lat="42.988540999999636" lon="-1.3376939999999993">
        <ele>867.209</ele>
        <time>2022-08-24T12:55:35Z</time>
      </trkpt>
      <trkpt lat="42.988549999999634" lon="-1.3377209999999993">
        <ele>867.047</ele>
        <time>2022-08-24T12:55:36Z</time>
      </trkpt>
      <trkpt lat="42.988566999999634" lon="-1.3377739999999994">
        <ele>866.877</ele>
        <time>2022-08-24T12:55:38Z</time>
      </trkpt>
      <trkpt lat="42.988577999999634" lon="-1.3377989999999993">
        <ele>866.687</ele>
        <time>2022-08-24T12:55:39Z</time>
      </trkpt>
      <trkpt lat="42.98859099999964" lon="-1.3378309999999993">
        <ele>866.263</ele>
        <time>2022-08-24T12:55:41Z</time>
      </trkpt>
      <trkpt lat="42.98860999999964" lon="-1.3379199999999993">
        <ele>866.225</ele>
        <time>2022-08-24T12:55:42Z</time>
      </trkpt>
      <trkpt lat="42.98863999999964" lon="-1.3380889999999994">
        <ele>865.872</ele>
        <time>2022-08-24T12:55:45Z</time>
      </trkpt>
      <trkpt lat="42.98867299999964" lon="-1.3384329999999993">
        <ele>865.655</ele>
        <time>2022-08-24T12:55:51Z</time>
      </trkpt>
      <trkpt lat="42.988677999999645" lon="-1.3384969999999994">
        <ele>865.829</ele>
        <time>2022-08-24T12:55:52Z</time>
      </trkpt>
      <trkpt lat="42.98870199999965" lon="-1.3387439999999995">
        <ele>866.028</ele>
        <time>2022-08-24T12:55:56Z</time>
      </trkpt>
      <trkpt lat="42.98871099999965" lon="-1.3387969999999996">
        <ele>866.093</ele>
        <time>2022-08-24T12:55:57Z</time>
      </trkpt>
      <trkpt lat="42.988722999999645" lon="-1.3388509999999996">
        <ele>866.065</ele>
        <time>2022-08-24T12:55:58Z</time>
      </trkpt>
      <trkpt lat="42.988731999999644" lon="-1.3389079999999995">
        <ele>866.221</ele>
        <time>2022-08-24T12:55:59Z</time>
      </trkpt>
      <trkpt lat="42.988744999999646" lon="-1.3389579999999996">
        <ele>866.209</ele>
        <time>2022-08-24T12:56:00Z</time>
      </trkpt>
      <trkpt lat="42.98876299999964" lon="-1.3390019999999996">
        <ele>866.220</ele>
        <time>2022-08-24T12:56:01Z</time>
      </trkpt>
      <trkpt lat="42.988781999999645" lon="-1.3390479999999996">
        <ele>866.280</ele>
        <time>2022-08-24T12:56:02Z</time>
      </trkpt>
      <trkpt lat="42.98879999999964" lon="-1.3390969999999995">
        <ele>866.240</ele>
        <time>2022-08-24T12:56:03Z</time>
      </trkpt>
      <trkpt lat="42.98881799999964" lon="-1.3391459999999995">
        <ele>866.226</ele>
        <time>2022-08-24T12:56:04Z</time>
      </trkpt>
      <trkpt lat="42.98883599999964" lon="-1.3391899999999994">
        <ele>866.238</ele>
        <time>2022-08-24T12:56:05Z</time>
      </trkpt>
      <trkpt lat="42.988850999999634" lon="-1.3392349999999995">
        <ele>866.435</ele>
        <time>2022-08-24T12:56:06Z</time>
      </trkpt>
      <trkpt lat="42.98885799999963" lon="-1.3392769999999996">
        <ele>866.478</ele>
        <time>2022-08-24T12:56:07Z</time>
      </trkpt>
      <trkpt lat="42.98886599999963" lon="-1.3393139999999997">
        <ele>866.612</ele>
        <time>2022-08-24T12:56:08Z</time>
      </trkpt>
      <trkpt lat="42.98887799999963" lon="-1.3393509999999997">
        <ele>866.661</ele>
        <time>2022-08-24T12:56:09Z</time>
      </trkpt>
      <trkpt lat="42.98889499999963" lon="-1.3393929999999998">
        <ele>866.855</ele>
        <time>2022-08-24T12:56:10Z</time>
      </trkpt>
      <trkpt lat="42.98890899999963" lon="-1.3394359999999998">
        <ele>867.007</ele>
        <time>2022-08-24T12:56:11Z</time>
      </trkpt>
      <trkpt lat="42.98891999999963" lon="-1.3394739999999998">
        <ele>867.017</ele>
        <time>2022-08-24T12:56:12Z</time>
      </trkpt>
      <trkpt lat="42.98893099999963" lon="-1.3395119999999998">
        <ele>867.209</ele>
        <time>2022-08-24T12:56:13Z</time>
      </trkpt>
      <trkpt lat="42.98895399999963" lon="-1.3396169999999998">
        <ele>867.476</ele>
        <time>2022-08-24T12:56:15Z</time>
      </trkpt>
      <trkpt lat="42.98905699999963" lon="-1.339924">
        <ele>868.046</ele>
        <time>2022-08-24T12:56:23Z</time>
      </trkpt>
      <trkpt lat="42.989128999999636" lon="-1.3401379999999998">
        <ele>868.246</ele>
        <time>2022-08-24T12:56:27Z</time>
      </trkpt>
      <trkpt lat="42.989142999999636" lon="-1.3401769999999997">
        <ele>868.242</ele>
        <time>2022-08-24T12:56:28Z</time>
      </trkpt>
      <trkpt lat="42.989156999999636" lon="-1.3402209999999997">
        <ele>868.234</ele>
        <time>2022-08-24T12:56:30Z</time>
      </trkpt>
      <trkpt lat="42.989171999999634" lon="-1.3402629999999998">
        <ele>868.261</ele>
        <time>2022-08-24T12:56:31Z</time>
      </trkpt>
      <trkpt lat="42.98918699999963" lon="-1.3403019999999997">
        <ele>868.264</ele>
        <time>2022-08-24T12:56:32Z</time>
      </trkpt>
      <trkpt lat="42.98921799999963" lon="-1.3403779999999996">
        <ele>868.238</ele>
        <time>2022-08-24T12:56:33Z</time>
      </trkpt>
      <trkpt lat="42.98923199999963" lon="-1.3404179999999997">
        <ele>868.247</ele>
        <time>2022-08-24T12:56:34Z</time>
      </trkpt>
      <trkpt lat="42.98926399999963" lon="-1.3404929999999997">
        <ele>868.499</ele>
        <time>2022-08-24T12:56:36Z</time>
      </trkpt>
      <trkpt lat="42.98927799999963" lon="-1.3405279999999997">
        <ele>868.407</ele>
        <time>2022-08-24T12:56:37Z</time>
      </trkpt>
      <trkpt lat="42.98929299999963" lon="-1.3405629999999997">
        <ele>868.427</ele>
        <time>2022-08-24T12:56:38Z</time>
      </trkpt>
      <trkpt lat="42.98930599999963" lon="-1.3406009999999997">
        <ele>868.609</ele>
        <time>2022-08-24T12:56:39Z</time>
      </trkpt>
      <trkpt lat="42.98945699999963" lon="-1.3410549999999997">
        <ele>869.080</ele>
        <time>2022-08-24T12:56:49Z</time>
      </trkpt>
      <trkpt lat="42.98950199999963" lon="-1.3411789999999997">
        <ele>868.850</ele>
        <time>2022-08-24T12:56:51Z</time>
      </trkpt>
      <trkpt lat="42.98952699999963" lon="-1.3413219999999997">
        <ele>868.690</ele>
        <time>2022-08-24T12:56:53Z</time>
      </trkpt>
      <trkpt lat="42.98952399999963" lon="-1.3414039999999996">
        <ele>868.216</ele>
        <time>2022-08-24T12:56:55Z</time>
      </trkpt>
      <trkpt lat="42.98950799999963" lon="-1.3415479999999995">
        <ele>868.088</ele>
        <time>2022-08-24T12:56:56Z</time>
      </trkpt>
      <trkpt lat="42.98949799999963" lon="-1.3416159999999995">
        <ele>867.885</ele>
        <time>2022-08-24T12:56:57Z</time>
      </trkpt>
      <trkpt lat="42.98949799999963" lon="-1.3416159999999995">
        <ele>867.818</ele>
        <time>2022-08-24T12:56:58Z</time>
      </trkpt>
      <trkpt lat="42.98948099999963" lon="-1.3417539999999994">
        <ele>867.622</ele>
        <time>2022-08-24T12:56:59Z</time>
      </trkpt>
      <trkpt lat="42.98947499999963" lon="-1.3418189999999994">
        <ele>867.451</ele>
        <time>2022-08-24T12:57:00Z</time>
      </trkpt>
      <trkpt lat="42.98947499999963" lon="-1.3418189999999994">
        <ele>867.439</ele>
        <time>2022-08-24T12:57:01Z</time>
      </trkpt>
      <trkpt lat="42.989478999999626" lon="-1.3419379999999994">
        <ele>867.401</ele>
        <time>2022-08-24T12:57:02Z</time>
      </trkpt>
      <trkpt lat="42.98948599999962" lon="-1.3419949999999994">
        <ele>867.421</ele>
        <time>2022-08-24T12:57:03Z</time>
      </trkpt>
      <trkpt lat="42.98948599999962" lon="-1.3419949999999994">
        <ele>867.409</ele>
        <time>2022-08-24T12:57:04Z</time>
      </trkpt>
      <trkpt lat="42.989515999999625" lon="-1.3420939999999995">
        <ele>867.434</ele>
        <time>2022-08-24T12:57:05Z</time>
      </trkpt>
      <trkpt lat="42.98953399999962" lon="-1.3421409999999994">
        <ele>867.484</ele>
        <time>2022-08-24T12:57:06Z</time>
      </trkpt>
      <trkpt lat="42.98953399999962" lon="-1.3421409999999994">
        <ele>867.474</ele>
        <time>2022-08-24T12:57:07Z</time>
      </trkpt>
      <trkpt lat="42.98957299999962" lon="-1.3422279999999993">
        <ele>867.650</ele>
        <time>2022-08-24T12:57:08Z</time>
      </trkpt>
      <trkpt lat="42.98959399999962" lon="-1.3422649999999994">
        <ele>867.652</ele>
        <time>2022-08-24T12:57:09Z</time>
      </trkpt>
      <trkpt lat="42.98959399999962" lon="-1.3422649999999994">
        <ele>867.899</ele>
        <time>2022-08-24T12:57:10Z</time>
      </trkpt>
      <trkpt lat="42.98963399999962" lon="-1.3423349999999994">
        <ele>868.242</ele>
        <time>2022-08-24T12:57:11Z</time>
      </trkpt>
      <trkpt lat="42.98965599999962" lon="-1.3423679999999993">
        <ele>868.286</ele>
        <time>2022-08-24T12:57:12Z</time>
      </trkpt>
      <trkpt lat="42.98965599999962" lon="-1.3423679999999993">
        <ele>868.465</ele>
        <time>2022-08-24T12:57:13Z</time>
      </trkpt>
      <trkpt lat="42.98969099999962" lon="-1.3424369999999994">
        <ele>868.669</ele>
        <time>2022-08-24T12:57:14Z</time>
      </trkpt>
      <trkpt lat="42.989702999999615" lon="-1.3424719999999994">
        <ele>869.004</ele>
        <time>2022-08-24T12:57:15Z</time>
      </trkpt>
      <trkpt lat="42.989711999999614" lon="-1.3425079999999994">
        <ele>869.024</ele>
        <time>2022-08-24T12:57:16Z</time>
      </trkpt>
      <trkpt lat="42.98971899999961" lon="-1.3425459999999994">
        <ele>869.409</ele>
        <time>2022-08-24T12:57:17Z</time>
      </trkpt>
      <trkpt lat="42.98972099999961" lon="-1.3425849999999993">
        <ele>869.627</ele>
        <time>2022-08-24T12:57:18Z</time>
      </trkpt>
      <trkpt lat="42.98972399999961" lon="-1.3426229999999992">
        <ele>869.817</ele>
        <time>2022-08-24T12:57:19Z</time>
      </trkpt>
      <trkpt lat="42.989719999999615" lon="-1.3426989999999992">
        <ele>870.247</ele>
        <time>2022-08-24T12:57:21Z</time>
      </trkpt>
      <trkpt lat="42.98970999999961" lon="-1.3427749999999992">
        <ele>870.823</ele>
        <time>2022-08-24T12:57:23Z</time>
      </trkpt>
      <trkpt lat="42.98969599999961" lon="-1.3429039999999992">
        <ele>871.465</ele>
        <time>2022-08-24T12:57:26Z</time>
      </trkpt>
      <trkpt lat="42.989691999999614" lon="-1.3429469999999992">
        <ele>871.652</ele>
        <time>2022-08-24T12:57:27Z</time>
      </trkpt>
      <trkpt lat="42.989685999999615" lon="-1.3429909999999992">
        <ele>871.685</ele>
        <time>2022-08-24T12:57:28Z</time>
      </trkpt>
      <trkpt lat="42.989680999999614" lon="-1.3430329999999993">
        <ele>871.859</ele>
        <time>2022-08-24T12:57:29Z</time>
      </trkpt>
      <trkpt lat="42.98967299999961" lon="-1.3430769999999992">
        <ele>871.818</ele>
        <time>2022-08-24T12:57:30Z</time>
      </trkpt>
      <trkpt lat="42.98966499999961" lon="-1.3431199999999992">
        <ele>872.029</ele>
        <time>2022-08-24T12:57:31Z</time>
      </trkpt>
      <trkpt lat="42.98965499999961" lon="-1.3431649999999993">
        <ele>872.000</ele>
        <time>2022-08-24T12:57:32Z</time>
      </trkpt>
      <trkpt lat="42.98964799999961" lon="-1.3432139999999992">
        <ele>872.020</ele>
        <time>2022-08-24T12:57:33Z</time>
      </trkpt>
      <trkpt lat="42.989640999999615" lon="-1.3432669999999993">
        <ele>872.009</ele>
        <time>2022-08-24T12:57:34Z</time>
      </trkpt>
      <trkpt lat="42.98963699999962" lon="-1.3433189999999993">
        <ele>872.073</ele>
        <time>2022-08-24T12:57:35Z</time>
      </trkpt>
      <trkpt lat="42.98963699999962" lon="-1.3433189999999993">
        <ele>872.033</ele>
        <time>2022-08-24T12:57:36Z</time>
      </trkpt>
      <trkpt lat="42.98963099999962" lon="-1.3434289999999993">
        <ele>872.083</ele>
        <time>2022-08-24T12:57:37Z</time>
      </trkpt>
      <trkpt lat="42.98963099999962" lon="-1.3434849999999994">
        <ele>872.079</ele>
        <time>2022-08-24T12:57:38Z</time>
      </trkpt>
      <trkpt lat="42.989634999999616" lon="-1.3435429999999993">
        <ele>872.081</ele>
        <time>2022-08-24T12:57:39Z</time>
      </trkpt>
      <trkpt lat="42.989640999999615" lon="-1.3436019999999993">
        <ele>872.098</ele>
        <time>2022-08-24T12:57:40Z</time>
      </trkpt>
      <trkpt lat="42.98964599999962" lon="-1.3436629999999994">
        <ele>871.871</ele>
        <time>2022-08-24T12:57:41Z</time>
      </trkpt>
      <trkpt lat="42.98965099999962" lon="-1.3437259999999993">
        <ele>871.835</ele>
        <time>2022-08-24T12:57:42Z</time>
      </trkpt>
      <trkpt lat="42.98965299999962" lon="-1.3437899999999994">
        <ele>871.854</ele>
        <time>2022-08-24T12:57:43Z</time>
      </trkpt>
      <trkpt lat="42.98965799999962" lon="-1.3438589999999995">
        <ele>871.467</ele>
        <time>2022-08-24T12:57:44Z</time>
      </trkpt>
      <trkpt lat="42.989681999999625" lon="-1.3441509999999994">
        <ele>870.881</ele>
        <time>2022-08-24T12:57:48Z</time>
      </trkpt>
      <trkpt lat="42.989690999999624" lon="-1.3442969999999994">
        <ele>870.619</ele>
        <time>2022-08-24T12:57:50Z</time>
      </trkpt>
      <trkpt lat="42.98970899999962" lon="-1.3446939999999994">
        <ele>869.809</ele>
        <time>2022-08-24T12:57:55Z</time>
      </trkpt>
      <trkpt lat="42.98970699999962" lon="-1.3448559999999994">
        <ele>869.467</ele>
        <time>2022-08-24T12:57:57Z</time>
      </trkpt>
      <trkpt lat="42.98969799999962" lon="-1.3449279999999995">
        <ele>869.247</ele>
        <time>2022-08-24T12:57:58Z</time>
      </trkpt>
      <trkpt lat="42.98969799999962" lon="-1.3449279999999995">
        <ele>869.297</ele>
        <time>2022-08-24T12:57:59Z</time>
      </trkpt>
      <trkpt lat="42.98964899999962" lon="-1.3450599999999995">
        <ele>868.843</ele>
        <time>2022-08-24T12:58:00Z</time>
      </trkpt>
      <trkpt lat="42.989614999999624" lon="-1.3451209999999996">
        <ele>868.685</ele>
        <time>2022-08-24T12:58:01Z</time>
      </trkpt>
      <trkpt lat="42.98957999999963" lon="-1.3451799999999996">
        <ele>868.422</ele>
        <time>2022-08-24T12:58:02Z</time>
      </trkpt>
      <trkpt lat="42.989541999999624" lon="-1.3452369999999996">
        <ele>868.275</ele>
        <time>2022-08-24T12:58:03Z</time>
      </trkpt>
      <trkpt lat="42.989504999999625" lon="-1.3452899999999997">
        <ele>868.059</ele>
        <time>2022-08-24T12:58:04Z</time>
      </trkpt>
      <trkpt lat="42.98946699999962" lon="-1.3453409999999997">
        <ele>867.848</ele>
        <time>2022-08-24T12:58:05Z</time>
      </trkpt>
      <trkpt lat="42.98942999999962" lon="-1.3453919999999997">
        <ele>867.886</ele>
        <time>2022-08-24T12:58:06Z</time>
      </trkpt>
      <trkpt lat="42.989394999999625" lon="-1.3454409999999997">
        <ele>868.060</ele>
        <time>2022-08-24T12:58:07Z</time>
      </trkpt>
      <trkpt lat="42.989394999999625" lon="-1.3454409999999997">
        <ele>868.026</ele>
        <time>2022-08-24T12:58:08Z</time>
      </trkpt>
      <trkpt lat="42.989338999999624" lon="-1.3455429999999997">
        <ele>868.009</ele>
        <time>2022-08-24T12:58:09Z</time>
      </trkpt>
      <trkpt lat="42.989318999999625" lon="-1.3455959999999998">
        <ele>868.049</ele>
        <time>2022-08-24T12:58:10Z</time>
      </trkpt>
      <trkpt lat="42.989318999999625" lon="-1.3455959999999998">
        <ele>868.039</ele>
        <time>2022-08-24T12:58:11Z</time>
      </trkpt>
      <trkpt lat="42.989304999999625" lon="-1.3457159999999997">
        <ele>868.469</ele>
        <time>2022-08-24T12:58:12Z</time>
      </trkpt>
      <trkpt lat="42.98930599999962" lon="-1.3457759999999996">
        <ele>868.465</ele>
        <time>2022-08-24T12:58:13Z</time>
      </trkpt>
      <trkpt lat="42.98930599999962" lon="-1.3457759999999996">
        <ele>868.457</ele>
        <time>2022-08-24T12:58:14Z</time>
      </trkpt>
      <trkpt lat="42.989310999999624" lon="-1.3459019999999997">
        <ele>868.454</ele>
        <time>2022-08-24T12:58:15Z</time>
      </trkpt>
      <trkpt lat="42.98933099999962" lon="-1.3465329999999998">
        <ele>867.627</ele>
        <time>2022-08-24T12:58:24Z</time>
      </trkpt>
      <trkpt lat="42.98933999999962" lon="-1.3468329999999997">
        <ele>867.451</ele>
        <time>2022-08-24T12:58:28Z</time>
      </trkpt>
      <trkpt lat="42.989341999999624" lon="-1.3469019999999998">
        <ele>867.220</ele>
        <time>2022-08-24T12:58:29Z</time>
      </trkpt>
      <trkpt lat="42.989343999999626" lon="-1.3469679999999997">
        <ele>867.297</ele>
        <time>2022-08-24T12:58:30Z</time>
      </trkpt>
      <trkpt lat="42.989343999999626" lon="-1.3469679999999997">
        <ele>867.223</ele>
        <time>2022-08-24T12:58:31Z</time>
      </trkpt>
      <trkpt lat="42.98934599999963" lon="-1.3470939999999998">
        <ele>867.225</ele>
        <time>2022-08-24T12:58:32Z</time>
      </trkpt>
      <trkpt lat="42.989346999999626" lon="-1.3471559999999998">
        <ele>867.209</ele>
        <time>2022-08-24T12:58:33Z</time>
      </trkpt>
      <trkpt lat="42.98934799999962" lon="-1.3472139999999997">
        <ele>867.260</ele>
        <time>2022-08-24T12:58:34Z</time>
      </trkpt>
      <trkpt lat="42.98935199999962" lon="-1.3473319999999998">
        <ele>867.450</ele>
        <time>2022-08-24T12:58:36Z</time>
      </trkpt>
      <trkpt lat="42.98935399999962" lon="-1.3474409999999997">
        <ele>867.620</ele>
        <time>2022-08-24T12:58:38Z</time>
      </trkpt>
      <trkpt lat="42.98935499999962" lon="-1.3474979999999996">
        <ele>867.876</ele>
        <time>2022-08-24T12:58:39Z</time>
      </trkpt>
      <trkpt lat="42.98935399999962" lon="-1.3475539999999997">
        <ele>867.868</ele>
        <time>2022-08-24T12:58:40Z</time>
      </trkpt>
      <trkpt lat="42.989352999999625" lon="-1.3476089999999996">
        <ele>868.035</ele>
        <time>2022-08-24T12:58:41Z</time>
      </trkpt>
      <trkpt lat="42.989352999999625" lon="-1.3476089999999996">
        <ele>868.288</ele>
        <time>2022-08-24T12:58:42Z</time>
      </trkpt>
      <trkpt lat="42.98935399999962" lon="-1.3477129999999997">
        <ele>868.462</ele>
        <time>2022-08-24T12:58:43Z</time>
      </trkpt>
      <trkpt lat="42.98936199999962" lon="-1.3477709999999996">
        <ele>868.681</ele>
        <time>2022-08-24T12:58:44Z</time>
      </trkpt>
      <trkpt lat="42.98936199999962" lon="-1.3477709999999996">
        <ele>868.683</ele>
        <time>2022-08-24T12:58:45Z</time>
      </trkpt>
      <trkpt lat="42.989366999999625" lon="-1.3478619999999997">
        <ele>868.825</ele>
        <time>2022-08-24T12:58:46Z</time>
      </trkpt>
      <trkpt lat="42.98936599999963" lon="-1.3479069999999997">
        <ele>868.817</ele>
        <time>2022-08-24T12:58:47Z</time>
      </trkpt>
      <trkpt lat="42.98936599999963" lon="-1.3479069999999997">
        <ele>868.809</ele>
        <time>2022-08-24T12:58:48Z</time>
      </trkpt>
      <trkpt lat="42.989366999999625" lon="-1.3479999999999996">
        <ele>869.039</ele>
        <time>2022-08-24T12:58:49Z</time>
      </trkpt>
      <trkpt lat="42.98937099999962" lon="-1.3480459999999996">
        <ele>869.029</ele>
        <time>2022-08-24T12:58:50Z</time>
      </trkpt>
      <trkpt lat="42.98937499999962" lon="-1.3482089999999995">
        <ele>869.459</ele>
        <time>2022-08-24T12:58:54Z</time>
      </trkpt>
      <trkpt lat="42.98938499999962" lon="-1.3483249999999996">
        <ele>869.425</ele>
        <time>2022-08-24T12:58:55Z</time>
      </trkpt>
      <trkpt lat="42.98941899999962" lon="-1.3485239999999996">
        <ele>869.287</ele>
        <time>2022-08-24T12:58:58Z</time>
      </trkpt>
      <trkpt lat="42.989493999999624" lon="-1.3488949999999995">
        <ele>868.074</ele>
        <time>2022-08-24T12:59:04Z</time>
      </trkpt>
      <trkpt lat="42.98952599999962" lon="-1.3490579999999994">
        <ele>867.887</ele>
        <time>2022-08-24T12:59:05Z</time>
      </trkpt>
      <trkpt lat="42.989538999999624" lon="-1.3491259999999994">
        <ele>868.041</ele>
        <time>2022-08-24T12:59:06Z</time>
      </trkpt>
      <trkpt lat="42.989538999999624" lon="-1.3491259999999994">
        <ele>867.650</ele>
        <time>2022-08-24T12:59:07Z</time>
      </trkpt>
      <trkpt lat="42.98956499999962" lon="-1.3492539999999993">
        <ele>867.873</ele>
        <time>2022-08-24T12:59:08Z</time>
      </trkpt>
      <trkpt lat="42.989577999999625" lon="-1.3493169999999992">
        <ele>867.685</ele>
        <time>2022-08-24T12:59:09Z</time>
      </trkpt>
      <trkpt lat="42.989577999999625" lon="-1.3493169999999992">
        <ele>867.613</ele>
        <time>2022-08-24T12:59:10Z</time>
      </trkpt>
      <trkpt lat="42.989600999999624" lon="-1.3494339999999991">
        <ele>867.609</ele>
        <time>2022-08-24T12:59:11Z</time>
      </trkpt>
      <trkpt lat="42.98961299999962" lon="-1.3494879999999991">
        <ele>867.618</ele>
        <time>2022-08-24T12:59:12Z</time>
      </trkpt>
      <trkpt lat="42.98961299999962" lon="-1.3494879999999991">
        <ele>867.618</ele>
        <time>2022-08-24T12:59:13Z</time>
      </trkpt>
      <trkpt lat="42.98963299999962" lon="-1.349590999999999">
        <ele>867.678</ele>
        <time>2022-08-24T12:59:14Z</time>
      </trkpt>
      <trkpt lat="42.989642999999624" lon="-1.3496409999999992">
        <ele>867.894</ele>
        <time>2022-08-24T12:59:15Z</time>
      </trkpt>
      <trkpt lat="42.98965299999963" lon="-1.3496909999999993">
        <ele>868.036</ele>
        <time>2022-08-24T12:59:16Z</time>
      </trkpt>
      <trkpt lat="42.989675999999626" lon="-1.3497959999999993">
        <ele>868.273</ele>
        <time>2022-08-24T12:59:18Z</time>
      </trkpt>
      <trkpt lat="42.989684999999625" lon="-1.3498519999999994">
        <ele>868.246</ele>
        <time>2022-08-24T12:59:19Z</time>
      </trkpt>
      <trkpt lat="42.989777999999625" lon="-1.3502969999999994">
        <ele>868.680</ele>
        <time>2022-08-24T12:59:26Z</time>
      </trkpt>
      <trkpt lat="42.98981899999963" lon="-1.3505099999999994">
        <ele>868.429</ele>
        <time>2022-08-24T12:59:29Z</time>
      </trkpt>
      <trkpt lat="42.989850999999625" lon="-1.3506429999999994">
        <ele>868.057</ele>
        <time>2022-08-24T12:59:31Z</time>
      </trkpt>
      <trkpt lat="42.98986599999962" lon="-1.3507079999999994">
        <ele>868.000</ele>
        <time>2022-08-24T12:59:32Z</time>
      </trkpt>
      <trkpt lat="42.98987799999962" lon="-1.3507719999999994">
        <ele>868.020</ele>
        <time>2022-08-24T12:59:33Z</time>
      </trkpt>
      <trkpt lat="42.98989099999962" lon="-1.3508329999999995">
        <ele>867.809</ele>
        <time>2022-08-24T12:59:34Z</time>
      </trkpt>
      <trkpt lat="42.989904999999624" lon="-1.3508909999999994">
        <ele>867.866</ele>
        <time>2022-08-24T12:59:35Z</time>
      </trkpt>
      <trkpt lat="42.98991699999962" lon="-1.3509449999999994">
        <ele>867.836</ele>
        <time>2022-08-24T12:59:36Z</time>
      </trkpt>
      <trkpt lat="42.98992799999962" lon="-1.3510039999999994">
        <ele>867.886</ele>
        <time>2022-08-24T12:59:37Z</time>
      </trkpt>
      <trkpt lat="42.98993899999962" lon="-1.3510609999999994">
        <ele>867.882</ele>
        <time>2022-08-24T12:59:38Z</time>
      </trkpt>
      <trkpt lat="42.989948999999626" lon="-1.3511159999999993">
        <ele>867.874</ele>
        <time>2022-08-24T12:59:39Z</time>
      </trkpt>
      <trkpt lat="42.989948999999626" lon="-1.3511159999999993">
        <ele>867.881</ele>
        <time>2022-08-24T12:59:40Z</time>
      </trkpt>
      <trkpt lat="42.99000099999962" lon="-1.3514449999999993">
        <ele>868.224</ele>
        <time>2022-08-24T12:59:45Z</time>
      </trkpt>
      <trkpt lat="42.99000799999962" lon="-1.3515669999999993">
        <ele>868.648</ele>
        <time>2022-08-24T12:59:47Z</time>
      </trkpt>
      <trkpt lat="42.98999599999962" lon="-1.3516859999999993">
        <ele>868.677</ele>
        <time>2022-08-24T12:59:50Z</time>
      </trkpt>
      <trkpt lat="42.98997699999962" lon="-1.3518579999999993">
        <ele>868.891</ele>
        <time>2022-08-24T12:59:52Z</time>
      </trkpt>
      <trkpt lat="42.98997099999962" lon="-1.3519179999999993">
        <ele>868.881</ele>
        <time>2022-08-24T12:59:53Z</time>
      </trkpt>
      <trkpt lat="42.98995099999962" lon="-1.3520879999999993">
        <ele>868.819</ele>
        <time>2022-08-24T12:59:56Z</time>
      </trkpt>
      <trkpt lat="42.98991799999962" lon="-1.3523349999999994">
        <ele>868.809</ele>
        <time>2022-08-24T13:00:00Z</time>
      </trkpt>
      <trkpt lat="42.98987599999962" lon="-1.3527059999999993">
        <ele>868.870</ele>
        <time>2022-08-24T13:00:06Z</time>
      </trkpt>
      <trkpt lat="42.98986199999962" lon="-1.3528159999999994">
        <ele>869.450</ele>
        <time>2022-08-24T13:00:08Z</time>
      </trkpt>
      <trkpt lat="42.98984499999962" lon="-1.3529399999999994">
        <ele>869.420</ele>
        <time>2022-08-24T13:00:10Z</time>
      </trkpt>
      <trkpt lat="42.98982799999962" lon="-1.3530599999999993">
        <ele>869.676</ele>
        <time>2022-08-24T13:00:12Z</time>
      </trkpt>
      <trkpt lat="42.98982299999962" lon="-1.3531149999999992">
        <ele>869.678</ele>
        <time>2022-08-24T13:00:13Z</time>
      </trkpt>
      <trkpt lat="42.98981399999962" lon="-1.3531749999999991">
        <ele>869.815</ele>
        <time>2022-08-24T13:00:14Z</time>
      </trkpt>
      <trkpt lat="42.98980499999962" lon="-1.3532359999999992">
        <ele>869.828</ele>
        <time>2022-08-24T13:00:15Z</time>
      </trkpt>
      <trkpt lat="42.98980099999962" lon="-1.3532949999999992">
        <ele>869.872</ele>
        <time>2022-08-24T13:00:16Z</time>
      </trkpt>
      <trkpt lat="42.989794999999624" lon="-1.3533549999999992">
        <ele>869.881</ele>
        <time>2022-08-24T13:00:18Z</time>
      </trkpt>
      <trkpt lat="42.989757999999625" lon="-1.353671999999999">
        <ele>869.825</ele>
        <time>2022-08-24T13:00:22Z</time>
      </trkpt>
      <trkpt lat="42.989754999999626" lon="-1.3537329999999992">
        <ele>869.826</ele>
        <time>2022-08-24T13:00:23Z</time>
      </trkpt>
      <trkpt lat="42.989749999999624" lon="-1.3537949999999992">
        <ele>869.808</ele>
        <time>2022-08-24T13:00:24Z</time>
      </trkpt>
      <trkpt lat="42.989749999999624" lon="-1.3537949999999992">
        <ele>869.809</ele>
        <time>2022-08-24T13:00:25Z</time>
      </trkpt>
      <trkpt lat="42.989735999999624" lon="-1.3539159999999992">
        <ele>869.823</ele>
        <time>2022-08-24T13:00:26Z</time>
      </trkpt>
      <trkpt lat="42.98971199999962" lon="-1.3541629999999993">
        <ele>870.013</ele>
        <time>2022-08-24T13:00:30Z</time>
      </trkpt>
      <trkpt lat="42.98966799999962" lon="-1.3547249999999993">
        <ele>869.873</ele>
        <time>2022-08-24T13:00:38Z</time>
      </trkpt>
      <trkpt lat="42.98966499999962" lon="-1.3547909999999992">
        <ele>869.689</ele>
        <time>2022-08-24T13:00:39Z</time>
      </trkpt>
      <trkpt lat="42.98966099999962" lon="-1.3548499999999992">
        <ele>869.471</ele>
        <time>2022-08-24T13:00:40Z</time>
      </trkpt>
      <trkpt lat="42.989656999999625" lon="-1.3549059999999993">
        <ele>868.888</ele>
        <time>2022-08-24T13:00:41Z</time>
      </trkpt>
      <trkpt lat="42.98965499999962" lon="-1.3549609999999992">
        <ele>868.631</ele>
        <time>2022-08-24T13:00:42Z</time>
      </trkpt>
      <trkpt lat="42.98965199999962" lon="-1.3550139999999993">
        <ele>868.425</ele>
        <time>2022-08-24T13:00:43Z</time>
      </trkpt>
      <trkpt lat="42.98965599999962" lon="-1.3550579999999992">
        <ele>868.074</ele>
        <time>2022-08-24T13:00:44Z</time>
      </trkpt>
      <trkpt lat="42.98966399999962" lon="-1.3550899999999992">
        <ele>867.678</ele>
        <time>2022-08-24T13:00:45Z</time>
      </trkpt>
      <trkpt lat="42.98966999999962" lon="-1.3551129999999993">
        <ele>867.233</ele>
        <time>2022-08-24T13:00:46Z</time>
      </trkpt>
      <trkpt lat="42.98966999999962" lon="-1.3551129999999993">
        <ele>867.226</ele>
        <time>2022-08-24T13:00:47Z</time>
      </trkpt>
      <trkpt lat="42.98965199999962" lon="-1.3551529999999994">
        <ele>866.209</ele>
        <time>2022-08-24T13:01:00Z</time>
      </trkpt>
      <trkpt lat="42.98965199999962" lon="-1.3551529999999994">
        <ele>866.268</ele>
        <time>2022-08-24T13:01:01Z</time>
      </trkpt>
      <trkpt lat="42.989633999999626" lon="-1.3551939999999993">
        <ele>866.258</ele>
        <time>2022-08-24T13:01:02Z</time>
      </trkpt>
      <trkpt lat="42.98962199999963" lon="-1.3552689999999994">
        <ele>866.048</ele>
        <time>2022-08-24T13:01:06Z</time>
      </trkpt>
      <trkpt lat="42.98961599999963" lon="-1.3552879999999994">
        <ele>866.024</ele>
        <time>2022-08-24T13:01:07Z</time>
      </trkpt>
      <trkpt lat="42.98961099999963" lon="-1.3553029999999995">
        <ele>866.086</ele>
        <time>2022-08-24T13:01:08Z</time>
      </trkpt>
      <trkpt lat="42.989588999999626" lon="-1.3553379999999995">
        <ele>866.043</ele>
        <time>2022-08-24T13:01:10Z</time>
      </trkpt>
      <trkpt lat="42.98957599999962" lon="-1.3553569999999995">
        <ele>866.226</ele>
        <time>2022-08-24T13:01:11Z</time>
      </trkpt>
      <trkpt lat="42.989560999999625" lon="-1.3553789999999994">
        <ele>866.230</ele>
        <time>2022-08-24T13:01:12Z</time>
      </trkpt>
      <trkpt lat="42.98953199999963" lon="-1.3554499999999994">
        <ele>866.059</ele>
        <time>2022-08-24T13:01:16Z</time>
      </trkpt>
      <trkpt lat="42.98953199999963" lon="-1.3554499999999994">
        <ele>866.046</ele>
        <time>2022-08-24T13:01:17Z</time>
      </trkpt>
      <trkpt lat="42.98952099999963" lon="-1.3554589999999993">
        <ele>866.088</ele>
        <time>2022-08-24T13:01:52Z</time>
      </trkpt>
      <trkpt lat="42.98952099999963" lon="-1.3554589999999993">
        <ele>866.016</ele>
        <time>2022-08-24T13:01:53Z</time>
      </trkpt>
      <trkpt lat="42.98952099999963" lon="-1.3554589999999993">
        <ele>866.009</ele>
        <time>2022-08-24T13:01:54Z</time>
      </trkpt>
      <trkpt lat="42.98951799999963" lon="-1.3554599999999992">
        <ele>865.895</ele>
        <time>2022-08-24T13:01:55Z</time>
      </trkpt>
      <trkpt lat="42.98950399999963" lon="-1.3554669999999993">
        <ele>865.875</ele>
        <time>2022-08-24T13:01:56Z</time>
      </trkpt>
      <trkpt lat="42.989445999999624" lon="-1.3555079999999993">
        <ele>865.875</ele>
        <time>2022-08-24T13:02:00Z</time>
      </trkpt>
      <trkpt lat="42.989383999999625" lon="-1.3555699999999993">
        <ele>865.871</ele>
        <time>2022-08-24T13:02:03Z</time>
      </trkpt>
      <trkpt lat="42.98935699999962" lon="-1.3556129999999993">
        <ele>866.263</ele>
        <time>2022-08-24T13:02:05Z</time>
      </trkpt>
      <trkpt lat="42.98934599999962" lon="-1.3556389999999994">
        <ele>866.220</ele>
        <time>2022-08-24T13:02:06Z</time>
      </trkpt>
      <trkpt lat="42.98932899999962" lon="-1.3556919999999995">
        <ele>866.443</ele>
        <time>2022-08-24T13:02:08Z</time>
      </trkpt>
      <trkpt lat="42.989321999999625" lon="-1.3557169999999994">
        <ele>866.677</ele>
        <time>2022-08-24T13:02:09Z</time>
      </trkpt>
      <trkpt lat="42.989315999999626" lon="-1.3557449999999993">
        <ele>866.636</ele>
        <time>2022-08-24T13:02:10Z</time>
      </trkpt>
      <trkpt lat="42.98931699999962" lon="-1.3557969999999993">
        <ele>867.227</ele>
        <time>2022-08-24T13:02:12Z</time>
      </trkpt>
      <trkpt lat="42.98931999999962" lon="-1.3558269999999992">
        <ele>867.468</ele>
        <time>2022-08-24T13:02:13Z</time>
      </trkpt>
      <trkpt lat="42.989338999999624" lon="-1.3558839999999992">
        <ele>867.814</ele>
        <time>2022-08-24T13:02:15Z</time>
      </trkpt>
      <trkpt lat="42.98934099999963" lon="-1.3559179999999993">
        <ele>868.009</ele>
        <time>2022-08-24T13:02:16Z</time>
      </trkpt>
      <trkpt lat="42.98934099999963" lon="-1.3559499999999993">
        <ele>868.073</ele>
        <time>2022-08-24T13:02:17Z</time>
      </trkpt>
      <trkpt lat="42.98934299999963" lon="-1.3560109999999994">
        <ele>868.863</ele>
        <time>2022-08-24T13:02:19Z</time>
      </trkpt>
      <trkpt lat="42.98934299999963" lon="-1.3560379999999994">
        <ele>868.863</ele>
        <time>2022-08-24T13:02:20Z</time>
      </trkpt>
      <trkpt lat="42.989349999999625" lon="-1.3560969999999994">
        <ele>869.459</ele>
        <time>2022-08-24T13:02:23Z</time>
      </trkpt>
      <trkpt lat="42.989349999999625" lon="-1.3561179999999995">
        <ele>869.621</ele>
        <time>2022-08-24T13:02:24Z</time>
      </trkpt>
      <trkpt lat="42.989344999999624" lon="-1.3561389999999995">
        <ele>869.668</ele>
        <time>2022-08-24T13:02:25Z</time>
      </trkpt>
      <trkpt lat="42.989338999999624" lon="-1.3561639999999995">
        <ele>869.641</ele>
        <time>2022-08-24T13:02:26Z</time>
      </trkpt>
      <trkpt lat="42.989332999999625" lon="-1.3561909999999995">
        <ele>869.815</ele>
        <time>2022-08-24T13:02:27Z</time>
      </trkpt>
      <trkpt lat="42.98932599999963" lon="-1.3562189999999994">
        <ele>869.814</ele>
        <time>2022-08-24T13:02:28Z</time>
      </trkpt>
      <trkpt lat="42.98931899999963" lon="-1.3562429999999994">
        <ele>869.843</ele>
        <time>2022-08-24T13:02:29Z</time>
      </trkpt>
      <trkpt lat="42.989309999999634" lon="-1.3562679999999994">
        <ele>870.064</ele>
        <time>2022-08-24T13:02:30Z</time>
      </trkpt>
      <trkpt lat="42.98930299999964" lon="-1.3562909999999995">
        <ele>870.410</ele>
        <time>2022-08-24T13:02:31Z</time>
      </trkpt>
      <trkpt lat="42.98930599999964" lon="-1.3563189999999994">
        <ele>870.409</ele>
        <time>2022-08-24T13:02:32Z</time>
      </trkpt>
      <trkpt lat="42.98930799999964" lon="-1.3563459999999994">
        <ele>870.685</ele>
        <time>2022-08-24T13:02:33Z</time>
      </trkpt>
      <trkpt lat="42.989308999999636" lon="-1.3563719999999995">
        <ele>870.845</ele>
        <time>2022-08-24T13:02:34Z</time>
      </trkpt>
      <trkpt lat="42.989308999999636" lon="-1.3563719999999995">
        <ele>871.025</ele>
        <time>2022-08-24T13:02:35Z</time>
      </trkpt>
      <trkpt lat="42.98932499999964" lon="-1.3564469999999995">
        <ele>871.051</ele>
        <time>2022-08-24T13:02:36Z</time>
      </trkpt>
      <trkpt lat="42.98933799999964" lon="-1.3564849999999995">
        <ele>871.273</ele>
        <time>2022-08-24T13:02:37Z</time>
      </trkpt>
      <trkpt lat="42.98934099999964" lon="-1.3565239999999994">
        <ele>871.250</ele>
        <time>2022-08-24T13:02:38Z</time>
      </trkpt>
      <trkpt lat="42.98934599999964" lon="-1.3565509999999994">
        <ele>871.243</ele>
        <time>2022-08-24T13:02:39Z</time>
      </trkpt>
      <trkpt lat="42.98935399999964" lon="-1.3565839999999993">
        <ele>871.437</ele>
        <time>2022-08-24T13:02:40Z</time>
      </trkpt>
      <trkpt lat="42.989361999999645" lon="-1.3566179999999994">
        <ele>871.476</ele>
        <time>2022-08-24T13:02:41Z</time>
      </trkpt>
      <trkpt lat="42.98936099999965" lon="-1.3566609999999995">
        <ele>871.675</ele>
        <time>2022-08-24T13:02:42Z</time>
      </trkpt>
      <trkpt lat="42.98935999999965" lon="-1.3567029999999995">
        <ele>871.628</ele>
        <time>2022-08-24T13:02:43Z</time>
      </trkpt>
      <trkpt lat="42.98935599999965" lon="-1.3567449999999996">
        <ele>871.820</ele>
        <time>2022-08-24T13:02:44Z</time>
      </trkpt>
      <trkpt lat="42.989357999999655" lon="-1.3567869999999997">
        <ele>872.209</ele>
        <time>2022-08-24T13:02:45Z</time>
      </trkpt>
      <trkpt lat="42.98935899999965" lon="-1.3568219999999998">
        <ele>872.438</ele>
        <time>2022-08-24T13:02:46Z</time>
      </trkpt>
      <trkpt lat="42.98936499999965" lon="-1.3568499999999997">
        <ele>872.468</ele>
        <time>2022-08-24T13:02:47Z</time>
      </trkpt>
      <trkpt lat="42.989374999999654" lon="-1.3568849999999997">
        <ele>872.638</ele>
        <time>2022-08-24T13:02:48Z</time>
      </trkpt>
      <trkpt lat="42.98938499999966" lon="-1.3569139999999997">
        <ele>872.884</ele>
        <time>2022-08-24T13:02:49Z</time>
      </trkpt>
      <trkpt lat="42.98939499999966" lon="-1.3569619999999998">
        <ele>872.686</ele>
        <time>2022-08-24T13:02:50Z</time>
      </trkpt>
      <trkpt lat="42.98941099999966" lon="-1.3570059999999997">
        <ele>872.683</ele>
        <time>2022-08-24T13:02:51Z</time>
      </trkpt>
      <trkpt lat="42.989421999999664" lon="-1.3570489999999997">
        <ele>872.626</ele>
        <time>2022-08-24T13:02:52Z</time>
      </trkpt>
      <trkpt lat="42.98942499999966" lon="-1.3570849999999997">
        <ele>872.610</ele>
        <time>2022-08-24T13:02:53Z</time>
      </trkpt>
      <trkpt lat="42.98943199999966" lon="-1.3571369999999996">
        <ele>872.629</ele>
        <time>2022-08-24T13:02:54Z</time>
      </trkpt>
      <trkpt lat="42.98943799999966" lon="-1.3571809999999995">
        <ele>872.833</ele>
        <time>2022-08-24T13:02:55Z</time>
      </trkpt>
      <trkpt lat="42.98944799999966" lon="-1.3572249999999995">
        <ele>872.823</ele>
        <time>2022-08-24T13:02:56Z</time>
      </trkpt>
      <trkpt lat="42.98945199999966" lon="-1.3572649999999995">
        <ele>872.815</ele>
        <time>2022-08-24T13:02:57Z</time>
      </trkpt>
      <trkpt lat="42.98946199999966" lon="-1.3572959999999994">
        <ele>872.809</ele>
        <time>2022-08-24T13:02:58Z</time>
      </trkpt>
      <trkpt lat="42.98947599999966" lon="-1.3573419999999994">
        <ele>872.844</ele>
        <time>2022-08-24T13:02:59Z</time>
      </trkpt>
      <trkpt lat="42.98948399999966" lon="-1.3573799999999994">
        <ele>872.814</ele>
        <time>2022-08-24T13:03:00Z</time>
      </trkpt>
      <trkpt lat="42.98949399999967" lon="-1.3574189999999993">
        <ele>873.064</ele>
        <time>2022-08-24T13:03:01Z</time>
      </trkpt>
      <trkpt lat="42.989508999999664" lon="-1.3574989999999993">
        <ele>873.250</ele>
        <time>2022-08-24T13:03:03Z</time>
      </trkpt>
      <trkpt lat="42.98954999999967" lon="-1.3577439999999994">
        <ele>873.652</ele>
        <time>2022-08-24T13:03:09Z</time>
      </trkpt>
      <trkpt lat="42.989553999999664" lon="-1.3577769999999993">
        <ele>873.659</ele>
        <time>2022-08-24T13:03:10Z</time>
      </trkpt>
      <trkpt lat="42.989553999999664" lon="-1.3578029999999994">
        <ele>873.892</ele>
        <time>2022-08-24T13:03:11Z</time>
      </trkpt>
      <trkpt lat="42.989550999999665" lon="-1.3578989999999995">
        <ele>874.226</ele>
        <time>2022-08-24T13:03:14Z</time>
      </trkpt>
      <trkpt lat="42.989547999999665" lon="-1.3579559999999995">
        <ele>874.465</ele>
        <time>2022-08-24T13:03:16Z</time>
      </trkpt>
      <trkpt lat="42.98954599999966" lon="-1.3579959999999995">
        <ele>874.483</ele>
        <time>2022-08-24T13:03:17Z</time>
      </trkpt>
      <trkpt lat="42.98954899999966" lon="-1.3580619999999994">
        <ele>874.625</ele>
        <time>2022-08-24T13:03:19Z</time>
      </trkpt>
      <trkpt lat="42.989547999999665" lon="-1.3580909999999995">
        <ele>874.817</ele>
        <time>2022-08-24T13:03:20Z</time>
      </trkpt>
      <trkpt lat="42.98955999999966" lon="-1.3582109999999994">
        <ele>875.609</ele>
        <time>2022-08-24T13:03:23Z</time>
      </trkpt>
      <trkpt lat="42.98956399999966" lon="-1.3583099999999995">
        <ele>875.879</ele>
        <time>2022-08-24T13:03:25Z</time>
      </trkpt>
      <trkpt lat="42.98958099999966" lon="-1.3584389999999995">
        <ele>876.089</ele>
        <time>2022-08-24T13:03:28Z</time>
      </trkpt>
      <trkpt lat="42.98957899999966" lon="-1.3584759999999996">
        <ele>876.059</ele>
        <time>2022-08-24T13:03:29Z</time>
      </trkpt>
      <trkpt lat="42.98957799999966" lon="-1.3585229999999995">
        <ele>876.235</ele>
        <time>2022-08-24T13:03:30Z</time>
      </trkpt>
      <trkpt lat="42.98958199999966" lon="-1.3585569999999996">
        <ele>876.237</ele>
        <time>2022-08-24T13:03:31Z</time>
      </trkpt>
      <trkpt lat="42.989588999999654" lon="-1.3585919999999996">
        <ele>876.244</ele>
        <time>2022-08-24T13:03:32Z</time>
      </trkpt>
      <trkpt lat="42.989596999999655" lon="-1.3586249999999995">
        <ele>876.477</ele>
        <time>2022-08-24T13:03:33Z</time>
      </trkpt>
      <trkpt lat="42.98960099999965" lon="-1.3586599999999995">
        <ele>876.461</ele>
        <time>2022-08-24T13:03:34Z</time>
      </trkpt>
      <trkpt lat="42.989605999999654" lon="-1.3587049999999996">
        <ele>876.420</ele>
        <time>2022-08-24T13:03:35Z</time>
      </trkpt>
      <trkpt lat="42.989607999999656" lon="-1.3587339999999997">
        <ele>876.441</ele>
        <time>2022-08-24T13:03:36Z</time>
      </trkpt>
      <trkpt lat="42.989599999999655" lon="-1.3587719999999996">
        <ele>876.481</ele>
        <time>2022-08-24T13:03:37Z</time>
      </trkpt>
      <trkpt lat="42.98958799999966" lon="-1.3588179999999996">
        <ele>876.609</ele>
        <time>2022-08-24T13:03:38Z</time>
      </trkpt>
      <trkpt lat="42.989588999999654" lon="-1.3588559999999996">
        <ele>876.609</ele>
        <time>2022-08-24T13:03:39Z</time>
      </trkpt>
      <trkpt lat="42.989602999999654" lon="-1.3589829999999996">
        <ele>876.675</ele>
        <time>2022-08-24T13:03:41Z</time>
      </trkpt>
      <trkpt lat="42.989636999999654" lon="-1.3590479999999996">
        <ele>876.465</ele>
        <time>2022-08-24T13:03:42Z</time>
      </trkpt>
      <trkpt lat="42.98966299999965" lon="-1.3591089999999997">
        <ele>876.495</ele>
        <time>2022-08-24T13:03:43Z</time>
      </trkpt>
      <trkpt lat="42.98965399999965" lon="-1.3591729999999997">
        <ele>876.221</ele>
        <time>2022-08-24T13:03:44Z</time>
      </trkpt>
      <trkpt lat="42.98963299999966" lon="-1.3592359999999997">
        <ele>876.253</ele>
        <time>2022-08-24T13:03:45Z</time>
      </trkpt>
      <trkpt lat="42.989607999999656" lon="-1.3592929999999996">
        <ele>876.010</ele>
        <time>2022-08-24T13:03:46Z</time>
      </trkpt>
      <trkpt lat="42.989607999999656" lon="-1.3592929999999996">
        <ele>876.093</ele>
        <time>2022-08-24T13:03:47Z</time>
      </trkpt>
      <trkpt lat="42.98954999999965" lon="-1.3594199999999996">
        <ele>876.087</ele>
        <time>2022-08-24T13:03:48Z</time>
      </trkpt>
      <trkpt lat="42.98953299999965" lon="-1.3595019999999995">
        <ele>876.086</ele>
        <time>2022-08-24T13:03:49Z</time>
      </trkpt>
      <trkpt lat="42.98950799999965" lon="-1.3595959999999996">
        <ele>876.296</ele>
        <time>2022-08-24T13:03:51Z</time>
      </trkpt>
      <trkpt lat="42.98949399999965" lon="-1.3596389999999996">
        <ele>876.431</ele>
        <time>2022-08-24T13:03:52Z</time>
      </trkpt>
      <trkpt lat="42.98945799999965" lon="-1.3597409999999996">
        <ele>876.424</ele>
        <time>2022-08-24T13:03:54Z</time>
      </trkpt>
      <trkpt lat="42.98944599999965" lon="-1.3597799999999995">
        <ele>876.409</ele>
        <time>2022-08-24T13:03:55Z</time>
      </trkpt>
      <trkpt lat="42.98942699999965" lon="-1.3598079999999995">
        <ele>876.620</ele>
        <time>2022-08-24T13:03:56Z</time>
      </trkpt>
      <trkpt lat="42.98941199999965" lon="-1.3598369999999995">
        <ele>876.620</ele>
        <time>2022-08-24T13:03:57Z</time>
      </trkpt>
      <trkpt lat="42.98939599999965" lon="-1.3598619999999995">
        <ele>876.660</ele>
        <time>2022-08-24T13:03:58Z</time>
      </trkpt>
      <trkpt lat="42.98937899999965" lon="-1.3598829999999995">
        <ele>876.826</ele>
        <time>2022-08-24T13:03:59Z</time>
      </trkpt>
      <trkpt lat="42.98936299999965" lon="-1.3599059999999996">
        <ele>877.028</ele>
        <time>2022-08-24T13:04:00Z</time>
      </trkpt>
      <trkpt lat="42.98934099999965" lon="-1.3599379999999996">
        <ele>877.485</ele>
        <time>2022-08-24T13:04:01Z</time>
      </trkpt>
      <trkpt lat="42.989321999999646" lon="-1.3599639999999997">
        <ele>877.678</ele>
        <time>2022-08-24T13:04:02Z</time>
      </trkpt>
      <trkpt lat="42.989307999999646" lon="-1.3599869999999998">
        <ele>877.822</ele>
        <time>2022-08-24T13:04:03Z</time>
      </trkpt>
      <trkpt lat="42.989296999999645" lon="-1.3600059999999998">
        <ele>877.881</ele>
        <time>2022-08-24T13:04:04Z</time>
      </trkpt>
      <trkpt lat="42.98927899999965" lon="-1.360024">
        <ele>878.096</ele>
        <time>2022-08-24T13:04:05Z</time>
      </trkpt>
      <trkpt lat="42.98918799999965" lon="-1.360118">
        <ele>878.431</ele>
        <time>2022-08-24T13:04:09Z</time>
      </trkpt>
      <trkpt lat="42.98914099999965" lon="-1.360185">
        <ele>878.824</ele>
        <time>2022-08-24T13:04:11Z</time>
      </trkpt>
      <trkpt lat="42.98912699999965" lon="-1.360225">
        <ele>878.809</ele>
        <time>2022-08-24T13:04:12Z</time>
      </trkpt>
      <trkpt lat="42.98912399999965" lon="-1.360268">
        <ele>878.890</ele>
        <time>2022-08-24T13:04:13Z</time>
      </trkpt>
      <trkpt lat="42.98912599999965" lon="-1.360326">
        <ele>878.890</ele>
        <time>2022-08-24T13:04:14Z</time>
      </trkpt>
      <trkpt lat="42.98912499999965" lon="-1.3603889999999998">
        <ele>878.890</ele>
        <time>2022-08-24T13:04:15Z</time>
      </trkpt>
      <trkpt lat="42.989129999999655" lon="-1.3604559999999999">
        <ele>878.836</ele>
        <time>2022-08-24T13:04:16Z</time>
      </trkpt>
      <trkpt lat="42.98913699999965" lon="-1.360517">
        <ele>878.668</ele>
        <time>2022-08-24T13:04:17Z</time>
      </trkpt>
      <trkpt lat="42.98913699999965" lon="-1.360563">
        <ele>878.265</ele>
        <time>2022-08-24T13:04:18Z</time>
      </trkpt>
      <trkpt lat="42.989129999999655" lon="-1.360596">
        <ele>877.638</ele>
        <time>2022-08-24T13:04:19Z</time>
      </trkpt>
      <trkpt lat="42.98911099999965" lon="-1.360619">
        <ele>877.032</ele>
        <time>2022-08-24T13:04:20Z</time>
      </trkpt>
      <trkpt lat="42.989090999999654" lon="-1.360628">
        <ele>876.861</ele>
        <time>2022-08-24T13:04:21Z</time>
      </trkpt>
      <trkpt lat="42.98907299999966" lon="-1.360628">
        <ele>876.437</ele>
        <time>2022-08-24T13:04:22Z</time>
      </trkpt>
      <trkpt lat="42.98901899999966" lon="-1.360626">
        <ele>875.649</ele>
        <time>2022-08-24T13:04:24Z</time>
      </trkpt>
      <trkpt lat="42.988994999999655" lon="-1.360633">
        <ele>875.413</ele>
        <time>2022-08-24T13:04:25Z</time>
      </trkpt>
      <trkpt lat="42.988977999999655" lon="-1.360649">
        <ele>875.209</ele>
        <time>2022-08-24T13:04:26Z</time>
      </trkpt>
      <trkpt lat="42.98895999999966" lon="-1.36067">
        <ele>874.674</ele>
        <time>2022-08-24T13:04:27Z</time>
      </trkpt>
      <trkpt lat="42.988937999999656" lon="-1.360682">
        <ele>874.434</ele>
        <time>2022-08-24T13:04:28Z</time>
      </trkpt>
      <trkpt lat="42.98892099999966" lon="-1.36069">
        <ele>874.264</ele>
        <time>2022-08-24T13:04:29Z</time>
      </trkpt>
      <trkpt lat="42.98891099999965" lon="-1.360704">
        <ele>874.040</ele>
        <time>2022-08-24T13:04:30Z</time>
      </trkpt>
      <trkpt lat="42.98890599999965" lon="-1.360703">
        <ele>873.862</ele>
        <time>2022-08-24T13:04:31Z</time>
      </trkpt>
      <trkpt lat="42.98888099999965" lon="-1.360718">
        <ele>873.889</ele>
        <time>2022-08-24T13:04:45Z</time>
      </trkpt>
      <trkpt lat="42.98884799999965" lon="-1.360713">
        <ele>873.812</ele>
        <time>2022-08-24T13:04:46Z</time>
      </trkpt>
      <trkpt lat="42.98881999999965" lon="-1.36071">
        <ele>873.856</ele>
        <time>2022-08-24T13:04:47Z</time>
      </trkpt>
      <trkpt lat="42.98879499999965" lon="-1.3607090000000002">
        <ele>873.885</ele>
        <time>2022-08-24T13:04:48Z</time>
      </trkpt>
      <trkpt lat="42.98877699999965" lon="-1.3607160000000003">
        <ele>873.655</ele>
        <time>2022-08-24T13:04:49Z</time>
      </trkpt>
      <trkpt lat="42.98871199999965" lon="-1.3607620000000002">
        <ele>873.607</ele>
        <time>2022-08-24T13:04:51Z</time>
      </trkpt>
      <trkpt lat="42.98867299999965" lon="-1.3607870000000002">
        <ele>873.617</ele>
        <time>2022-08-24T13:04:52Z</time>
      </trkpt>
      <trkpt lat="42.98862799999965" lon="-1.360815">
        <ele>873.609</ele>
        <time>2022-08-24T13:04:53Z</time>
      </trkpt>
      <trkpt lat="42.98846099999965" lon="-1.360856">
        <ele>873.686</ele>
        <time>2022-08-24T13:04:56Z</time>
      </trkpt>
      <trkpt lat="42.98835499999965" lon="-1.360862">
        <ele>873.646</ele>
        <time>2022-08-24T13:04:59Z</time>
      </trkpt>
      <trkpt lat="42.98833799999965" lon="-1.360872">
        <ele>873.616</ele>
        <time>2022-08-24T13:05:00Z</time>
      </trkpt>
      <trkpt lat="42.98832899999965" lon="-1.360891">
        <ele>873.692</ele>
        <time>2022-08-24T13:05:01Z</time>
      </trkpt>
      <trkpt lat="42.98831199999965" lon="-1.360897">
        <ele>873.694</ele>
        <time>2022-08-24T13:05:02Z</time>
      </trkpt>
      <trkpt lat="42.988296999999655" lon="-1.360905">
        <ele>873.661</ele>
        <time>2022-08-24T13:05:03Z</time>
      </trkpt>
      <trkpt lat="42.98828199999966" lon="-1.360921">
        <ele>873.644</ele>
        <time>2022-08-24T13:05:04Z</time>
      </trkpt>
      <trkpt lat="42.988271999999654" lon="-1.36094">
        <ele>874.018</ele>
        <time>2022-08-24T13:05:05Z</time>
      </trkpt>
      <trkpt lat="42.988262999999655" lon="-1.36095">
        <ele>874.257</ele>
        <time>2022-08-24T13:05:06Z</time>
      </trkpt>
      <trkpt lat="42.98825899999966" lon="-1.360959">
        <ele>874.464</ele>
        <time>2022-08-24T13:05:07Z</time>
      </trkpt>
      <trkpt lat="42.98825299999966" lon="-1.360969">
        <ele>874.606</ele>
        <time>2022-08-24T13:05:08Z</time>
      </trkpt>
      <trkpt lat="42.98824699999966" lon="-1.360977">
        <ele>874.816</ele>
        <time>2022-08-24T13:05:09Z</time>
      </trkpt>
      <trkpt lat="42.98822399999966" lon="-1.3610010000000001">
        <ele>875.209</ele>
        <time>2022-08-24T13:05:11Z</time>
      </trkpt>
      <trkpt lat="42.988171999999665" lon="-1.361061">
        <ele>875.827</ele>
        <time>2022-08-24T13:05:15Z</time>
      </trkpt>
      <trkpt lat="42.98813999999967" lon="-1.3611110000000002">
        <ele>876.267</ele>
        <time>2022-08-24T13:05:18Z</time>
      </trkpt>
      <trkpt lat="42.98812799999967" lon="-1.361123">
        <ele>876.677</ele>
        <time>2022-08-24T13:05:19Z</time>
      </trkpt>
      <trkpt lat="42.98811399999967" lon="-1.3611300000000002">
        <ele>877.073</ele>
        <time>2022-08-24T13:05:20Z</time>
      </trkpt>
      <trkpt lat="42.98810499999967" lon="-1.3611440000000001">
        <ele>877.015</ele>
        <time>2022-08-24T13:05:21Z</time>
      </trkpt>
      <trkpt lat="42.98810499999967" lon="-1.3611440000000001">
        <ele>877.262</ele>
        <time>2022-08-24T13:05:22Z</time>
      </trkpt>
      <trkpt lat="42.98808199999967" lon="-1.3611630000000001">
        <ele>877.465</ele>
        <time>2022-08-24T13:05:23Z</time>
      </trkpt>
      <trkpt lat="42.98806799999967" lon="-1.3611730000000002">
        <ele>877.659</ele>
        <time>2022-08-24T13:05:24Z</time>
      </trkpt>
      <trkpt lat="42.98806799999967" lon="-1.3611730000000002">
        <ele>877.828</ele>
        <time>2022-08-24T13:05:25Z</time>
      </trkpt>
      <trkpt lat="42.98804399999967" lon="-1.361193">
        <ele>877.851</ele>
        <time>2022-08-24T13:05:26Z</time>
      </trkpt>
      <trkpt lat="42.988030999999665" lon="-1.361202">
        <ele>877.801</ele>
        <time>2022-08-24T13:05:27Z</time>
      </trkpt>
      <trkpt lat="42.98801799999966" lon="-1.361213">
        <ele>877.811</ele>
        <time>2022-08-24T13:05:28Z</time>
      </trkpt>
      <trkpt lat="42.98800399999966" lon="-1.361224">
        <ele>878.009</ele>
        <time>2022-08-24T13:05:29Z</time>
      </trkpt>
      <trkpt lat="42.987994999999664" lon="-1.3612279999999999">
        <ele>878.036</ele>
        <time>2022-08-24T13:05:30Z</time>
      </trkpt>
      <trkpt lat="42.98798699999966" lon="-1.361233">
        <ele>878.236</ele>
        <time>2022-08-24T13:05:31Z</time>
      </trkpt>
      <trkpt lat="42.98798699999966" lon="-1.361233">
        <ele>878.446</ele>
        <time>2022-08-24T13:05:32Z</time>
      </trkpt>
      <trkpt lat="42.987985999999665" lon="-1.361254">
        <ele>878.662</ele>
        <time>2022-08-24T13:05:33Z</time>
      </trkpt>
      <trkpt lat="42.987980999999664" lon="-1.361261">
        <ele>878.844</ele>
        <time>2022-08-24T13:05:34Z</time>
      </trkpt>
      <trkpt lat="42.987980999999664" lon="-1.361261">
        <ele>878.841</ele>
        <time>2022-08-24T13:05:35Z</time>
      </trkpt>
      <trkpt lat="42.98795099999966" lon="-1.361282">
        <ele>879.284</ele>
        <time>2022-08-24T13:05:36Z</time>
      </trkpt>
      <trkpt lat="42.98794799999966" lon="-1.361283">
        <ele>879.418</ele>
        <time>2022-08-24T13:05:37Z</time>
      </trkpt>
      <trkpt lat="42.98793999999966" lon="-1.361287">
        <ele>879.657</ele>
        <time>2022-08-24T13:05:38Z</time>
      </trkpt>
      <trkpt lat="42.98792999999966" lon="-1.361302">
        <ele>880.072</ele>
        <time>2022-08-24T13:05:39Z</time>
      </trkpt>
      <trkpt lat="42.98791599999966" lon="-1.36131">
        <ele>880.013</ele>
        <time>2022-08-24T13:05:40Z</time>
      </trkpt>
      <trkpt lat="42.987902999999655" lon="-1.36132">
        <ele>880.414</ele>
        <time>2022-08-24T13:05:41Z</time>
      </trkpt>
      <trkpt lat="42.98789799999965" lon="-1.361326">
        <ele>880.609</ele>
        <time>2022-08-24T13:05:42Z</time>
      </trkpt>
      <trkpt lat="42.987893999999656" lon="-1.361327">
        <ele>880.848</ele>
        <time>2022-08-24T13:05:43Z</time>
      </trkpt>
      <trkpt lat="42.98788399999965" lon="-1.3613309999999998">
        <ele>881.268</ele>
        <time>2022-08-24T13:05:44Z</time>
      </trkpt>
      <trkpt lat="42.98787899999965" lon="-1.3613349999999997">
        <ele>881.478</ele>
        <time>2022-08-24T13:05:45Z</time>
      </trkpt>
      <trkpt lat="42.98786499999965" lon="-1.3613389999999996">
        <ele>881.654</ele>
        <time>2022-08-24T13:05:46Z</time>
      </trkpt>
      <trkpt lat="42.987857999999655" lon="-1.3613449999999996">
        <ele>881.626</ele>
        <time>2022-08-24T13:05:47Z</time>
      </trkpt>
      <trkpt lat="42.98784799999965" lon="-1.3613519999999997">
        <ele>881.883</ele>
        <time>2022-08-24T13:05:48Z</time>
      </trkpt>
      <trkpt lat="42.98783399999965" lon="-1.3613589999999998">
        <ele>882.086</ele>
        <time>2022-08-24T13:05:49Z</time>
      </trkpt>
      <trkpt lat="42.98782499999965" lon="-1.3613669999999998">
        <ele>882.250</ele>
        <time>2022-08-24T13:05:50Z</time>
      </trkpt>
      <trkpt lat="42.98781099999965" lon="-1.3613709999999997">
        <ele>882.429</ele>
        <time>2022-08-24T13:05:51Z</time>
      </trkpt>
      <trkpt lat="42.987801999999654" lon="-1.3613819999999996">
        <ele>882.676</ele>
        <time>2022-08-24T13:05:52Z</time>
      </trkpt>
      <trkpt lat="42.987784999999654" lon="-1.3613949999999997">
        <ele>882.890</ele>
        <time>2022-08-24T13:05:53Z</time>
      </trkpt>
      <trkpt lat="42.98777399999965" lon="-1.3614019999999998">
        <ele>883.019</ele>
        <time>2022-08-24T13:05:54Z</time>
      </trkpt>
      <trkpt lat="42.987753999999654" lon="-1.3614089999999999">
        <ele>883.209</ele>
        <time>2022-08-24T13:05:55Z</time>
      </trkpt>
      <trkpt lat="42.98773599999966" lon="-1.3614169999999999">
        <ele>883.418</ele>
        <time>2022-08-24T13:05:56Z</time>
      </trkpt>
      <trkpt lat="42.98772099999966" lon="-1.3614229999999998">
        <ele>883.498</ele>
        <time>2022-08-24T13:05:57Z</time>
      </trkpt>
      <trkpt lat="42.98770199999966" lon="-1.36143">
        <ele>883.638</ele>
        <time>2022-08-24T13:05:58Z</time>
      </trkpt>
      <trkpt lat="42.98768199999966" lon="-1.361438">
        <ele>883.854</ele>
        <time>2022-08-24T13:05:59Z</time>
      </trkpt>
      <trkpt lat="42.98765899999966" lon="-1.361443">
        <ele>884.056</ele>
        <time>2022-08-24T13:06:00Z</time>
      </trkpt>
      <trkpt lat="42.98763799999966" lon="-1.361448">
        <ele>884.233</ele>
        <time>2022-08-24T13:06:01Z</time>
      </trkpt>
      <trkpt lat="42.98761399999966" lon="-1.361461">
        <ele>884.876</ele>
        <time>2022-08-24T13:06:02Z</time>
      </trkpt>
      <trkpt lat="42.98759899999966" lon="-1.36147">
        <ele>885.280</ele>
        <time>2022-08-24T13:06:03Z</time>
      </trkpt>
      <trkpt lat="42.98758799999966" lon="-1.3614899999999999">
        <ele>885.489</ele>
        <time>2022-08-24T13:06:04Z</time>
      </trkpt>
      <trkpt lat="42.98757699999966" lon="-1.3615009999999999">
        <ele>885.833</ele>
        <time>2022-08-24T13:06:05Z</time>
      </trkpt>
      <trkpt lat="42.98756299999966" lon="-1.361508">
        <ele>886.223</ele>
        <time>2022-08-24T13:06:06Z</time>
      </trkpt>
      <trkpt lat="42.98754799999966" lon="-1.3615119999999998">
        <ele>886.415</ele>
        <time>2022-08-24T13:06:07Z</time>
      </trkpt>
      <trkpt lat="42.987532999999665" lon="-1.3615159999999997">
        <ele>886.609</ele>
        <time>2022-08-24T13:06:08Z</time>
      </trkpt>
      <trkpt lat="42.98751799999967" lon="-1.3615239999999997">
        <ele>886.644</ele>
        <time>2022-08-24T13:06:09Z</time>
      </trkpt>
      <trkpt lat="42.98750299999967" lon="-1.3615349999999997">
        <ele>887.054</ele>
        <time>2022-08-24T13:06:10Z</time>
      </trkpt>
      <trkpt lat="42.98748799999967" lon="-1.3615409999999997">
        <ele>887.274</ele>
        <time>2022-08-24T13:06:11Z</time>
      </trkpt>
      <trkpt lat="42.98747199999967" lon="-1.3615509999999997">
        <ele>887.890</ele>
        <time>2022-08-24T13:06:12Z</time>
      </trkpt>
      <trkpt lat="42.98746199999967" lon="-1.3615719999999998">
        <ele>888.292</ele>
        <time>2022-08-24T13:06:13Z</time>
      </trkpt>
      <trkpt lat="42.98744699999967" lon="-1.3615839999999997">
        <ele>888.449</ele>
        <time>2022-08-24T13:06:14Z</time>
      </trkpt>
      <trkpt lat="42.98743499999967" lon="-1.3615899999999996">
        <ele>888.652</ele>
        <time>2022-08-24T13:06:15Z</time>
      </trkpt>
      <trkpt lat="42.98741599999967" lon="-1.3616049999999997">
        <ele>888.826</ele>
        <time>2022-08-24T13:06:16Z</time>
      </trkpt>
      <trkpt lat="42.987391999999666" lon="-1.3616359999999996">
        <ele>889.025</ele>
        <time>2022-08-24T13:06:17Z</time>
      </trkpt>
      <trkpt lat="42.98737999999967" lon="-1.3616369999999995">
        <ele>889.216</ele>
        <time>2022-08-24T13:06:18Z</time>
      </trkpt>
      <trkpt lat="42.98737199999967" lon="-1.3616439999999996">
        <ele>889.276</ele>
        <time>2022-08-24T13:06:19Z</time>
      </trkpt>
      <trkpt lat="42.987374999999666" lon="-1.3616439999999996">
        <ele>889.413</ele>
        <time>2022-08-24T13:06:20Z</time>
      </trkpt>
      <trkpt lat="42.987366999999665" lon="-1.3616459999999997">
        <ele>889.609</ele>
        <time>2022-08-24T13:06:21Z</time>
      </trkpt>
      <trkpt lat="42.98736499999966" lon="-1.3616439999999996">
        <ele>890.082</ele>
        <time>2022-08-24T13:06:22Z</time>
      </trkpt>
      <trkpt lat="42.987360999999666" lon="-1.3616509999999997">
        <ele>890.272</ele>
        <time>2022-08-24T13:06:23Z</time>
      </trkpt>
      <trkpt lat="42.98735999999967" lon="-1.3616569999999997">
        <ele>890.672</ele>
        <time>2022-08-24T13:06:24Z</time>
      </trkpt>
      <trkpt lat="42.98735899999967" lon="-1.3616589999999997">
        <ele>890.628</ele>
        <time>2022-08-24T13:06:25Z</time>
      </trkpt>
      <trkpt lat="42.98735899999967" lon="-1.3616589999999997">
        <ele>891.070</ele>
        <time>2022-08-24T13:06:26Z</time>
      </trkpt>
      <trkpt lat="42.98734999999967" lon="-1.3616629999999996">
        <ele>891.247</ele>
        <time>2022-08-24T13:06:27Z</time>
      </trkpt>
      <trkpt lat="42.98734699999967" lon="-1.3616659999999996">
        <ele>891.680</ele>
        <time>2022-08-24T13:06:28Z</time>
      </trkpt>
      <trkpt lat="42.98734399999967" lon="-1.3616659999999996">
        <ele>892.024</ele>
        <time>2022-08-24T13:06:29Z</time>
      </trkpt>
      <trkpt lat="42.98733599999967" lon="-1.3616699999999995">
        <ele>892.233</ele>
        <time>2022-08-24T13:06:30Z</time>
      </trkpt>
      <trkpt lat="42.987326999999674" lon="-1.3616789999999994">
        <ele>892.464</ele>
        <time>2022-08-24T13:06:31Z</time>
      </trkpt>
      <trkpt lat="42.98731899999967" lon="-1.3616849999999994">
        <ele>892.406</ele>
        <time>2022-08-24T13:06:32Z</time>
      </trkpt>
      <trkpt lat="42.987306999999674" lon="-1.3616879999999993">
        <ele>892.816</ele>
        <time>2022-08-24T13:06:33Z</time>
      </trkpt>
      <trkpt lat="42.98729699999967" lon="-1.3616909999999993">
        <ele>892.809</ele>
        <time>2022-08-24T13:06:34Z</time>
      </trkpt>
      <trkpt lat="42.98728299999967" lon="-1.3616969999999993">
        <ele>893.057</ele>
        <time>2022-08-24T13:06:35Z</time>
      </trkpt>
      <trkpt lat="42.987278999999674" lon="-1.3616989999999993">
        <ele>893.257</ele>
        <time>2022-08-24T13:06:36Z</time>
      </trkpt>
      <trkpt lat="42.987269999999675" lon="-1.3616999999999992">
        <ele>893.477</ele>
        <time>2022-08-24T13:06:37Z</time>
      </trkpt>
      <trkpt lat="42.98725499999968" lon="-1.3616989999999993">
        <ele>893.643</ele>
        <time>2022-08-24T13:06:38Z</time>
      </trkpt>
      <trkpt lat="42.987252999999676" lon="-1.3616989999999993">
        <ele>893.875</ele>
        <time>2022-08-24T13:06:39Z</time>
      </trkpt>
      <trkpt lat="42.98724299999967" lon="-1.3617039999999994">
        <ele>894.082</ele>
        <time>2022-08-24T13:06:40Z</time>
      </trkpt>
      <trkpt lat="42.98723199999967" lon="-1.3617139999999994">
        <ele>894.455</ele>
        <time>2022-08-24T13:06:41Z</time>
      </trkpt>
      <trkpt lat="42.98721599999967" lon="-1.3617179999999993">
        <ele>894.689</ele>
        <time>2022-08-24T13:06:42Z</time>
      </trkpt>
      <trkpt lat="42.98721099999967" lon="-1.3617249999999994">
        <ele>894.818</ele>
        <time>2022-08-24T13:06:43Z</time>
      </trkpt>
      <trkpt lat="42.98719999999967" lon="-1.3617339999999993">
        <ele>894.826</ele>
        <time>2022-08-24T13:06:44Z</time>
      </trkpt>
      <trkpt lat="42.98719699999967" lon="-1.3617369999999993">
        <ele>895.247</ele>
        <time>2022-08-24T13:06:45Z</time>
      </trkpt>
      <trkpt lat="42.987186999999665" lon="-1.3617489999999992">
        <ele>895.211</ele>
        <time>2022-08-24T13:06:46Z</time>
      </trkpt>
      <trkpt lat="42.98716899999967" lon="-1.3617619999999993">
        <ele>895.409</ele>
        <time>2022-08-24T13:06:47Z</time>
      </trkpt>
      <trkpt lat="42.987152999999665" lon="-1.3617739999999992">
        <ele>895.833</ele>
        <time>2022-08-24T13:06:48Z</time>
      </trkpt>
      <trkpt lat="42.98713699999966" lon="-1.3617839999999992">
        <ele>896.023</ele>
        <time>2022-08-24T13:06:49Z</time>
      </trkpt>
      <trkpt lat="42.98712999999967" lon="-1.3617889999999993">
        <ele>896.243</ele>
        <time>2022-08-24T13:06:50Z</time>
      </trkpt>
      <trkpt lat="42.987121999999665" lon="-1.3617899999999992">
        <ele>896.219</ele>
        <time>2022-08-24T13:06:51Z</time>
      </trkpt>
      <trkpt lat="42.987110999999665" lon="-1.3617919999999992">
        <ele>896.421</ele>
        <time>2022-08-24T13:06:52Z</time>
      </trkpt>
      <trkpt lat="42.98710099999966" lon="-1.3617979999999992">
        <ele>896.668</ele>
        <time>2022-08-24T13:06:53Z</time>
      </trkpt>
      <trkpt lat="42.98708399999966" lon="-1.3618089999999992">
        <ele>897.061</ele>
        <time>2022-08-24T13:06:54Z</time>
      </trkpt>
      <trkpt lat="42.987071999999664" lon="-1.3618109999999992">
        <ele>897.215</ele>
        <time>2022-08-24T13:06:55Z</time>
      </trkpt>
      <trkpt lat="42.98705899999966" lon="-1.3618139999999992">
        <ele>897.464</ele>
        <time>2022-08-24T13:06:56Z</time>
      </trkpt>
      <trkpt lat="42.98705899999966" lon="-1.3618079999999992">
        <ele>897.647</ele>
        <time>2022-08-24T13:06:57Z</time>
      </trkpt>
      <trkpt lat="42.98705099999966" lon="-1.3618059999999992">
        <ele>897.829</ele>
        <time>2022-08-24T13:06:58Z</time>
      </trkpt>
      <trkpt lat="42.98704399999966" lon="-1.3618079999999992">
        <ele>898.021</ele>
        <time>2022-08-24T13:06:59Z</time>
      </trkpt>
      <trkpt lat="42.98703599999966" lon="-1.3618129999999993">
        <ele>898.209</ele>
        <time>2022-08-24T13:07:00Z</time>
      </trkpt>
      <trkpt lat="42.98702499999966" lon="-1.3618209999999993">
        <ele>898.475</ele>
        <time>2022-08-24T13:07:01Z</time>
      </trkpt>
      <trkpt lat="42.987020999999665" lon="-1.3618229999999993">
        <ele>898.675</ele>
        <time>2022-08-24T13:07:02Z</time>
      </trkpt>
      <trkpt lat="42.98701899999966" lon="-1.3618289999999993">
        <ele>898.865</ele>
        <time>2022-08-24T13:07:03Z</time>
      </trkpt>
      <trkpt lat="42.98701399999966" lon="-1.3618399999999993">
        <ele>898.871</ele>
        <time>2022-08-24T13:07:04Z</time>
      </trkpt>
      <trkpt lat="42.98700899999966" lon="-1.3618489999999992">
        <ele>899.033</ele>
        <time>2022-08-24T13:07:05Z</time>
      </trkpt>
      <trkpt lat="42.98699599999966" lon="-1.361852999999999">
        <ele>899.210</ele>
        <time>2022-08-24T13:07:06Z</time>
      </trkpt>
      <trkpt lat="42.98699199999966" lon="-1.361852999999999">
        <ele>899.243</ele>
        <time>2022-08-24T13:07:07Z</time>
      </trkpt>
      <trkpt lat="42.98698899999966" lon="-1.361860999999999">
        <ele>899.487</ele>
        <time>2022-08-24T13:07:08Z</time>
      </trkpt>
      <trkpt lat="42.986981999999664" lon="-1.361868999999999">
        <ele>899.486</ele>
        <time>2022-08-24T13:07:09Z</time>
      </trkpt>
      <trkpt lat="42.98697799999967" lon="-1.361872999999999">
        <ele>899.433</ele>
        <time>2022-08-24T13:07:10Z</time>
      </trkpt>
      <trkpt lat="42.98697499999967" lon="-1.361873999999999">
        <ele>899.623</ele>
        <time>2022-08-24T13:07:11Z</time>
      </trkpt>
      <trkpt lat="42.98697499999967" lon="-1.361873999999999">
        <ele>899.815</ele>
        <time>2022-08-24T13:07:12Z</time>
      </trkpt>
      <trkpt lat="42.98696899999967" lon="-1.361876999999999">
        <ele>900.009</ele>
        <time>2022-08-24T13:07:13Z</time>
      </trkpt>
      <trkpt lat="42.986966999999666" lon="-1.361878999999999">
        <ele>900.284</ele>
        <time>2022-08-24T13:07:14Z</time>
      </trkpt>
      <trkpt lat="42.986966999999666" lon="-1.361878999999999">
        <ele>900.274</ele>
        <time>2022-08-24T13:07:15Z</time>
      </trkpt>
      <trkpt lat="42.986952999999666" lon="-1.361883999999999">
        <ele>900.414</ele>
        <time>2022-08-24T13:07:16Z</time>
      </trkpt>
      <trkpt lat="42.98694899999967" lon="-1.361882999999999">
        <ele>900.410</ele>
        <time>2022-08-24T13:07:17Z</time>
      </trkpt>
      <trkpt lat="42.98693699999967" lon="-1.361885999999999">
        <ele>900.682</ele>
        <time>2022-08-24T13:07:18Z</time>
      </trkpt>
      <trkpt lat="42.98692499999967" lon="-1.361899999999999">
        <ele>900.829</ele>
        <time>2022-08-24T13:07:19Z</time>
      </trkpt>
      <trkpt lat="42.98690899999967" lon="-1.361908999999999">
        <ele>900.832</ele>
        <time>2022-08-24T13:07:20Z</time>
      </trkpt>
      <trkpt lat="42.98688899999967" lon="-1.361903999999999">
        <ele>901.066</ele>
        <time>2022-08-24T13:07:21Z</time>
      </trkpt>
      <trkpt lat="42.98687499999967" lon="-1.3619049999999988">
        <ele>901.045</ele>
        <time>2022-08-24T13:07:22Z</time>
      </trkpt>
      <trkpt lat="42.98685499999967" lon="-1.361911999999999">
        <ele>901.272</ele>
        <time>2022-08-24T13:07:23Z</time>
      </trkpt>
      <trkpt lat="42.98684099999967" lon="-1.3619149999999989">
        <ele>901.213</ele>
        <time>2022-08-24T13:07:24Z</time>
      </trkpt>
      <trkpt lat="42.98682799999967" lon="-1.361921999999999">
        <ele>901.414</ele>
        <time>2022-08-24T13:07:25Z</time>
      </trkpt>
      <trkpt lat="42.98681199999967" lon="-1.361926999999999">
        <ele>901.809</ele>
        <time>2022-08-24T13:07:26Z</time>
      </trkpt>
      <trkpt lat="42.986789999999665" lon="-1.361929999999999">
        <ele>901.828</ele>
        <time>2022-08-24T13:07:27Z</time>
      </trkpt>
      <trkpt lat="42.986783999999666" lon="-1.361927999999999">
        <ele>902.038</ele>
        <time>2022-08-24T13:07:28Z</time>
      </trkpt>
      <trkpt lat="42.986772999999666" lon="-1.361932999999999">
        <ele>902.028</ele>
        <time>2022-08-24T13:07:29Z</time>
      </trkpt>
      <trkpt lat="42.98675999999966" lon="-1.3619339999999989">
        <ele>902.414</ele>
        <time>2022-08-24T13:07:30Z</time>
      </trkpt>
      <trkpt lat="42.986747999999665" lon="-1.3619369999999988">
        <ele>902.646</ele>
        <time>2022-08-24T13:07:31Z</time>
      </trkpt>
      <trkpt lat="42.986730999999665" lon="-1.3619339999999989">
        <ele>902.883</ele>
        <time>2022-08-24T13:07:32Z</time>
      </trkpt>
      <trkpt lat="42.986705999999664" lon="-1.361946999999999">
        <ele>903.096</ele>
        <time>2022-08-24T13:07:33Z</time>
      </trkpt>
      <trkpt lat="42.98668699999966" lon="-1.3619399999999988">
        <ele>903.210</ele>
        <time>2022-08-24T13:07:34Z</time>
      </trkpt>
      <trkpt lat="42.98666799999966" lon="-1.361930999999999">
        <ele>903.239</ele>
        <time>2022-08-24T13:07:35Z</time>
      </trkpt>
      <trkpt lat="42.98666699999966" lon="-1.3619069999999989">
        <ele>903.483</ele>
        <time>2022-08-24T13:07:36Z</time>
      </trkpt>
      <trkpt lat="42.986657999999665" lon="-1.3619069999999989">
        <ele>903.825</ele>
        <time>2022-08-24T13:07:37Z</time>
      </trkpt>
      <trkpt lat="42.98664999999966" lon="-1.3619079999999988">
        <ele>903.817</ele>
        <time>2022-08-24T13:07:38Z</time>
      </trkpt>
      <trkpt lat="42.986645999999666" lon="-1.3619109999999988">
        <ele>904.009</ele>
        <time>2022-08-24T13:07:39Z</time>
      </trkpt>
      <trkpt lat="42.98663999999967" lon="-1.3619189999999988">
        <ele>904.219</ele>
        <time>2022-08-24T13:07:40Z</time>
      </trkpt>
      <trkpt lat="42.98663399999967" lon="-1.3619239999999988">
        <ele>904.489</ele>
        <time>2022-08-24T13:07:41Z</time>
      </trkpt>
      <trkpt lat="42.98663399999967" lon="-1.3619239999999988">
        <ele>904.689</ele>
        <time>2022-08-24T13:07:42Z</time>
      </trkpt>
      <trkpt lat="42.98660799999967" lon="-1.361938999999999">
        <ele>904.855</ele>
        <time>2022-08-24T13:07:43Z</time>
      </trkpt>
      <trkpt lat="42.98659599999967" lon="-1.361946999999999">
        <ele>905.047</ele>
        <time>2022-08-24T13:07:44Z</time>
      </trkpt>
      <trkpt lat="42.98658999999967" lon="-1.361956999999999">
        <ele>905.424</ele>
        <time>2022-08-24T13:07:45Z</time>
      </trkpt>
      <trkpt lat="42.98658699999967" lon="-1.3619689999999989">
        <ele>905.437</ele>
        <time>2022-08-24T13:07:46Z</time>
      </trkpt>
      <trkpt lat="42.98658499999967" lon="-1.3619799999999989">
        <ele>905.671</ele>
        <time>2022-08-24T13:07:47Z</time>
      </trkpt>
      <trkpt lat="42.986577999999675" lon="-1.361997999999999">
        <ele>905.670</ele>
        <time>2022-08-24T13:07:48Z</time>
      </trkpt>
      <trkpt lat="42.98657099999968" lon="-1.362008999999999">
        <ele>905.879</ele>
        <time>2022-08-24T13:07:49Z</time>
      </trkpt>
      <trkpt lat="42.98656399999968" lon="-1.3620229999999989">
        <ele>905.805</ele>
        <time>2022-08-24T13:07:50Z</time>
      </trkpt>
      <trkpt lat="42.98655499999968" lon="-1.3620349999999988">
        <ele>906.025</ele>
        <time>2022-08-24T13:07:51Z</time>
      </trkpt>
      <trkpt lat="42.98654999999968" lon="-1.3620529999999988">
        <ele>906.009</ele>
        <time>2022-08-24T13:07:52Z</time>
      </trkpt>
      <trkpt lat="42.98654799999968" lon="-1.3620669999999988">
        <ele>906.058</ele>
        <time>2022-08-24T13:07:53Z</time>
      </trkpt>
      <trkpt lat="42.98653899999968" lon="-1.3620779999999988">
        <ele>906.278</ele>
        <time>2022-08-24T13:07:54Z</time>
      </trkpt>
      <trkpt lat="42.98652399999968" lon="-1.3620919999999987">
        <ele>906.228</ele>
        <time>2022-08-24T13:07:55Z</time>
      </trkpt>
      <trkpt lat="42.986517999999684" lon="-1.3621019999999988">
        <ele>906.224</ele>
        <time>2022-08-24T13:07:56Z</time>
      </trkpt>
      <trkpt lat="42.986511999999685" lon="-1.3621159999999988">
        <ele>906.486</ele>
        <time>2022-08-24T13:07:57Z</time>
      </trkpt>
      <trkpt lat="42.986503999999684" lon="-1.3621299999999987">
        <ele>906.473</ele>
        <time>2022-08-24T13:07:58Z</time>
      </trkpt>
      <trkpt lat="42.986488999999686" lon="-1.3621429999999988">
        <ele>906.626</ele>
        <time>2022-08-24T13:07:59Z</time>
      </trkpt>
      <trkpt lat="42.98647699999969" lon="-1.3621589999999988">
        <ele>906.670</ele>
        <time>2022-08-24T13:08:00Z</time>
      </trkpt>
      <trkpt lat="42.98646299999969" lon="-1.3621769999999989">
        <ele>906.639</ele>
        <time>2022-08-24T13:08:01Z</time>
      </trkpt>
      <trkpt lat="42.98645399999969" lon="-1.3621969999999988">
        <ele>906.844</ele>
        <time>2022-08-24T13:08:02Z</time>
      </trkpt>
      <trkpt lat="42.98644799999969" lon="-1.3622179999999988">
        <ele>907.005</ele>
        <time>2022-08-24T13:08:03Z</time>
      </trkpt>
      <trkpt lat="42.98643699999969" lon="-1.362243999999999">
        <ele>907.215</ele>
        <time>2022-08-24T13:08:04Z</time>
      </trkpt>
      <trkpt lat="42.986443999999686" lon="-1.3622689999999988">
        <ele>907.209</ele>
        <time>2022-08-24T13:08:05Z</time>
      </trkpt>
      <trkpt lat="42.986444999999684" lon="-1.362291999999999">
        <ele>907.455</ele>
        <time>2022-08-24T13:08:06Z</time>
      </trkpt>
      <trkpt lat="42.986441999999684" lon="-1.3623119999999989">
        <ele>907.635</ele>
        <time>2022-08-24T13:08:07Z</time>
      </trkpt>
      <trkpt lat="42.98643499999969" lon="-1.3623359999999989">
        <ele>907.655</ele>
        <time>2022-08-24T13:08:08Z</time>
      </trkpt>
      <trkpt lat="42.986426999999686" lon="-1.3623529999999988">
        <ele>907.861</ele>
        <time>2022-08-24T13:08:09Z</time>
      </trkpt>
      <trkpt lat="42.98642399999969" lon="-1.3623709999999989">
        <ele>907.893</ele>
        <time>2022-08-24T13:08:10Z</time>
      </trkpt>
      <trkpt lat="42.98642099999969" lon="-1.3623879999999988">
        <ele>907.860</ele>
        <time>2022-08-24T13:08:11Z</time>
      </trkpt>
      <trkpt lat="42.98641199999969" lon="-1.3624069999999988">
        <ele>907.813</ele>
        <time>2022-08-24T13:08:12Z</time>
      </trkpt>
      <trkpt lat="42.98641199999969" lon="-1.3624069999999988">
        <ele>908.027</ele>
        <time>2022-08-24T13:08:13Z</time>
      </trkpt>
      <trkpt lat="42.98639299999969" lon="-1.3624449999999988">
        <ele>908.256</ele>
        <time>2022-08-24T13:08:14Z</time>
      </trkpt>
      <trkpt lat="42.986384999999686" lon="-1.3624659999999988">
        <ele>908.072</ele>
        <time>2022-08-24T13:08:15Z</time>
      </trkpt>
      <trkpt lat="42.986373999999685" lon="-1.362488999999999">
        <ele>908.213</ele>
        <time>2022-08-24T13:08:16Z</time>
      </trkpt>
      <trkpt lat="42.98636699999969" lon="-1.362511999999999">
        <ele>908.214</ele>
        <time>2022-08-24T13:08:17Z</time>
      </trkpt>
      <trkpt lat="42.98636299999969" lon="-1.362533999999999">
        <ele>908.409</ele>
        <time>2022-08-24T13:08:18Z</time>
      </trkpt>
      <trkpt lat="42.98635999999969" lon="-1.362553999999999">
        <ele>908.698</ele>
        <time>2022-08-24T13:08:19Z</time>
      </trkpt>
      <trkpt lat="42.98635699999969" lon="-1.3625739999999988">
        <ele>908.638</ele>
        <time>2022-08-24T13:08:20Z</time>
      </trkpt>
      <trkpt lat="42.98635499999969" lon="-1.3625939999999988">
        <ele>908.688</ele>
        <time>2022-08-24T13:08:21Z</time>
      </trkpt>
      <trkpt lat="42.986347999999694" lon="-1.3626129999999987">
        <ele>908.864</ele>
        <time>2022-08-24T13:08:22Z</time>
      </trkpt>
      <trkpt lat="42.986338999999695" lon="-1.3626399999999987">
        <ele>908.876</ele>
        <time>2022-08-24T13:08:23Z</time>
      </trkpt>
      <trkpt lat="42.9863319999997" lon="-1.3626689999999988">
        <ele>908.823</ele>
        <time>2022-08-24T13:08:24Z</time>
      </trkpt>
      <trkpt lat="42.9863259999997" lon="-1.3626989999999988">
        <ele>908.896</ele>
        <time>2022-08-24T13:08:25Z</time>
      </trkpt>
      <trkpt lat="42.9863209999997" lon="-1.3627329999999989">
        <ele>908.830</ele>
        <time>2022-08-24T13:08:26Z</time>
      </trkpt>
      <trkpt lat="42.9863099999997" lon="-1.3627739999999988">
        <ele>908.889</ele>
        <time>2022-08-24T13:08:27Z</time>
      </trkpt>
      <trkpt lat="42.9862979999997" lon="-1.3628209999999987">
        <ele>909.031</ele>
        <time>2022-08-24T13:08:28Z</time>
      </trkpt>
      <trkpt lat="42.9862779999997" lon="-1.3628699999999987">
        <ele>908.861</ele>
        <time>2022-08-24T13:08:29Z</time>
      </trkpt>
      <trkpt lat="42.9862089999997" lon="-1.3629569999999986">
        <ele>908.807</ele>
        <time>2022-08-24T13:08:31Z</time>
      </trkpt>
      <trkpt lat="42.9861569999997" lon="-1.3629969999999987">
        <ele>908.809</ele>
        <time>2022-08-24T13:08:32Z</time>
      </trkpt>
      <trkpt lat="42.9860979999997" lon="-1.3630289999999987">
        <ele>908.684</ele>
        <time>2022-08-24T13:08:33Z</time>
      </trkpt>
      <trkpt lat="42.9860429999997" lon="-1.3630599999999986">
        <ele>908.664</ele>
        <time>2022-08-24T13:08:34Z</time>
      </trkpt>
      <trkpt lat="42.9859949999997" lon="-1.3630809999999987">
        <ele>908.674</ele>
        <time>2022-08-24T13:08:35Z</time>
      </trkpt>
      <trkpt lat="42.9859949999997" lon="-1.3630809999999987">
        <ele>908.260</ele>
        <time>2022-08-24T13:08:36Z</time>
      </trkpt>
      <trkpt lat="42.9859299999997" lon="-1.3631089999999986">
        <ele>907.642</ele>
        <time>2022-08-24T13:08:37Z</time>
      </trkpt>
      <trkpt lat="42.985910999999696" lon="-1.3631209999999985">
        <ele>907.459</ele>
        <time>2022-08-24T13:08:38Z</time>
      </trkpt>
      <trkpt lat="42.98590099999969" lon="-1.3631329999999984">
        <ele>906.832</ele>
        <time>2022-08-24T13:08:39Z</time>
      </trkpt>
      <trkpt lat="42.98589299999969" lon="-1.3631489999999984">
        <ele>906.446</ele>
        <time>2022-08-24T13:08:40Z</time>
      </trkpt>
      <trkpt lat="42.98589099999969" lon="-1.3631509999999984">
        <ele>905.835</ele>
        <time>2022-08-24T13:08:41Z</time>
      </trkpt>
      <trkpt lat="42.98588999999969" lon="-1.3631519999999984">
        <ele>904.648</ele>
        <time>2022-08-24T13:09:25Z</time>
      </trkpt>
      <trkpt lat="42.98585299999969" lon="-1.3631759999999984">
        <ele>904.661</ele>
        <time>2022-08-24T13:09:27Z</time>
      </trkpt>
      <trkpt lat="42.98578899999969" lon="-1.3632099999999985">
        <ele>904.417</ele>
        <time>2022-08-24T13:09:29Z</time>
      </trkpt>
      <trkpt lat="42.98555099999969" lon="-1.3633659999999985">
        <ele>904.009</ele>
        <time>2022-08-24T13:09:33Z</time>
      </trkpt>
      <trkpt lat="42.985298999999685" lon="-1.3635259999999985">
        <ele>903.665</ele>
        <time>2022-08-24T13:09:36Z</time>
      </trkpt>
      <trkpt lat="42.985228999999684" lon="-1.3635919999999984">
        <ele>903.475</ele>
        <time>2022-08-24T13:09:37Z</time>
      </trkpt>
      <trkpt lat="42.98494599999968" lon="-1.3638189999999983">
        <ele>901.645</ele>
        <time>2022-08-24T13:09:40Z</time>
      </trkpt>
      <trkpt lat="42.98474899999968" lon="-1.3639759999999983">
        <ele>900.281</ele>
        <time>2022-08-24T13:09:42Z</time>
      </trkpt>
      <trkpt lat="42.98465999999968" lon="-1.3640429999999983">
        <ele>899.283</ele>
        <time>2022-08-24T13:09:43Z</time>
      </trkpt>
      <trkpt lat="42.98457299999968" lon="-1.3641149999999984">
        <ele>898.440</ele>
        <time>2022-08-24T13:09:44Z</time>
      </trkpt>
      <trkpt lat="42.98448999999968" lon="-1.3641889999999983">
        <ele>897.243</ele>
        <time>2022-08-24T13:09:45Z</time>
      </trkpt>
      <trkpt lat="42.984409999999684" lon="-1.3642649999999983">
        <ele>896.467</ele>
        <time>2022-08-24T13:09:46Z</time>
      </trkpt>
      <trkpt lat="42.98432599999968" lon="-1.3643359999999982">
        <ele>895.076</ele>
        <time>2022-08-24T13:09:47Z</time>
      </trkpt>
      <trkpt lat="42.984248999999686" lon="-1.3644109999999983">
        <ele>893.845</ele>
        <time>2022-08-24T13:09:48Z</time>
      </trkpt>
      <trkpt lat="42.98417399999968" lon="-1.3644579999999982">
        <ele>893.447</ele>
        <time>2022-08-24T13:09:49Z</time>
      </trkpt>
      <trkpt lat="42.984102999999685" lon="-1.3645329999999982">
        <ele>892.211</ele>
        <time>2022-08-24T13:09:50Z</time>
      </trkpt>
      <trkpt lat="42.984032999999684" lon="-1.3646089999999982">
        <ele>891.809</ele>
        <time>2022-08-24T13:09:51Z</time>
      </trkpt>
      <trkpt lat="42.98396699999969" lon="-1.364690999999998">
        <ele>890.845</ele>
        <time>2022-08-24T13:09:52Z</time>
      </trkpt>
      <trkpt lat="42.98383499999969" lon="-1.3648569999999982">
        <ele>889.285</ele>
        <time>2022-08-24T13:09:54Z</time>
      </trkpt>
      <trkpt lat="42.98376899999969" lon="-1.3649339999999983">
        <ele>888.075</ele>
        <time>2022-08-24T13:09:55Z</time>
      </trkpt>
      <trkpt lat="42.98370299999969" lon="-1.3650109999999984">
        <ele>887.451</ele>
        <time>2022-08-24T13:09:56Z</time>
      </trkpt>
      <trkpt lat="42.983636999999696" lon="-1.3650889999999984">
        <ele>886.223</ele>
        <time>2022-08-24T13:09:57Z</time>
      </trkpt>
      <trkpt lat="42.9834869999997" lon="-1.3652629999999983">
        <ele>884.430</ele>
        <time>2022-08-24T13:09:59Z</time>
      </trkpt>
      <trkpt lat="42.9834049999997" lon="-1.3653569999999984">
        <ele>883.083</ele>
        <time>2022-08-24T13:10:00Z</time>
      </trkpt>
      <trkpt lat="42.9833159999997" lon="-1.3654549999999983">
        <ele>882.457</ele>
        <time>2022-08-24T13:10:01Z</time>
      </trkpt>
      <trkpt lat="42.9832229999997" lon="-1.3655569999999984">
        <ele>881.036</ele>
        <time>2022-08-24T13:10:02Z</time>
      </trkpt>
      <trkpt lat="42.983029999999694" lon="-1.3657689999999985">
        <ele>878.628</ele>
        <time>2022-08-24T13:10:04Z</time>
      </trkpt>
      <trkpt lat="42.98283399999969" lon="-1.3659769999999984">
        <ele>876.489</ele>
        <time>2022-08-24T13:10:06Z</time>
      </trkpt>
      <trkpt lat="42.98274099999969" lon="-1.3660849999999984">
        <ele>874.417</ele>
        <time>2022-08-24T13:10:07Z</time>
      </trkpt>
      <trkpt lat="42.98264499999969" lon="-1.3661869999999985">
        <ele>873.409</ele>
        <time>2022-08-24T13:10:08Z</time>
      </trkpt>
      <trkpt lat="42.98255299999969" lon="-1.3662889999999985">
        <ele>871.653</ele>
        <time>2022-08-24T13:10:09Z</time>
      </trkpt>
      <trkpt lat="42.98246499999969" lon="-1.3663879999999986">
        <ele>870.873</ele>
        <time>2022-08-24T13:10:10Z</time>
      </trkpt>
      <trkpt lat="42.98238099999969" lon="-1.3664909999999986">
        <ele>869.443</ele>
        <time>2022-08-24T13:10:11Z</time>
      </trkpt>
      <trkpt lat="42.98229399999969" lon="-1.3665879999999986">
        <ele>869.069</ele>
        <time>2022-08-24T13:10:12Z</time>
      </trkpt>
      <trkpt lat="42.98220499999969" lon="-1.3666869999999987">
        <ele>868.021</ele>
        <time>2022-08-24T13:10:13Z</time>
      </trkpt>
      <trkpt lat="42.98211099999969" lon="-1.3667789999999986">
        <ele>866.868</ele>
        <time>2022-08-24T13:10:14Z</time>
      </trkpt>
      <trkpt lat="42.98189799999969" lon="-1.3669509999999987">
        <ele>865.661</ele>
        <time>2022-08-24T13:10:16Z</time>
      </trkpt>
      <trkpt lat="42.98172399999969" lon="-1.3670719999999987">
        <ele>864.675</ele>
        <time>2022-08-24T13:10:18Z</time>
      </trkpt>
      <trkpt lat="42.98160499999969" lon="-1.3671379999999986">
        <ele>864.284</ele>
        <time>2022-08-24T13:10:19Z</time>
      </trkpt>
      <trkpt lat="42.98150899999969" lon="-1.3671819999999986">
        <ele>863.454</ele>
        <time>2022-08-24T13:10:20Z</time>
      </trkpt>
      <trkpt lat="42.98141799999969" lon="-1.3672219999999986">
        <ele>862.456</ele>
        <time>2022-08-24T13:10:21Z</time>
      </trkpt>
      <trkpt lat="42.98133399999969" lon="-1.3672609999999985">
        <ele>862.211</ele>
        <time>2022-08-24T13:10:22Z</time>
      </trkpt>
      <trkpt lat="42.98127299999969" lon="-1.3672909999999985">
        <ele>861.809</ele>
        <time>2022-08-24T13:10:23Z</time>
      </trkpt>
      <trkpt lat="42.98119199999969" lon="-1.3673359999999986">
        <ele>861.646</ele>
        <time>2022-08-24T13:10:24Z</time>
      </trkpt>
      <trkpt lat="42.981150999999684" lon="-1.3673779999999987">
        <ele>860.826</ele>
        <time>2022-08-24T13:10:25Z</time>
      </trkpt>
      <trkpt lat="42.981108999999684" lon="-1.3674349999999986">
        <ele>860.226</ele>
        <time>2022-08-24T13:10:26Z</time>
      </trkpt>
      <trkpt lat="42.981074999999684" lon="-1.3674869999999986">
        <ele>860.082</ele>
        <time>2022-08-24T13:10:27Z</time>
      </trkpt>
      <trkpt lat="42.98104299999969" lon="-1.3675319999999986">
        <ele>859.684</ele>
        <time>2022-08-24T13:10:28Z</time>
      </trkpt>
      <trkpt lat="42.98100799999969" lon="-1.3675809999999986">
        <ele>859.021</ele>
        <time>2022-08-24T13:10:29Z</time>
      </trkpt>
      <trkpt lat="42.98097599999969" lon="-1.3676289999999987">
        <ele>858.434</ele>
        <time>2022-08-24T13:10:30Z</time>
      </trkpt>
      <trkpt lat="42.98094799999969" lon="-1.3676799999999987">
        <ele>858.258</ele>
        <time>2022-08-24T13:10:31Z</time>
      </trkpt>
      <trkpt lat="42.98091799999969" lon="-1.3677309999999987">
        <ele>857.857</ele>
        <time>2022-08-24T13:10:32Z</time>
      </trkpt>
      <trkpt lat="42.98089199999969" lon="-1.3677829999999986">
        <ele>857.418</ele>
        <time>2022-08-24T13:10:33Z</time>
      </trkpt>
      <trkpt lat="42.98086599999969" lon="-1.3678319999999986">
        <ele>857.298</ele>
        <time>2022-08-24T13:10:34Z</time>
      </trkpt>
      <trkpt lat="42.980766999999695" lon="-1.3680549999999987">
        <ele>856.417</ele>
        <time>2022-08-24T13:10:38Z</time>
      </trkpt>
      <trkpt lat="42.980743999999696" lon="-1.3681129999999986">
        <ele>856.409</ele>
        <time>2022-08-24T13:10:39Z</time>
      </trkpt>
      <trkpt lat="42.9807259999997" lon="-1.3681649999999985">
        <ele>856.452</ele>
        <time>2022-08-24T13:10:40Z</time>
      </trkpt>
      <trkpt lat="42.9807069999997" lon="-1.3682139999999985">
        <ele>856.482</ele>
        <time>2022-08-24T13:10:41Z</time>
      </trkpt>
      <trkpt lat="42.98063799999969" lon="-1.3683599999999985">
        <ele>856.442</ele>
        <time>2022-08-24T13:10:44Z</time>
      </trkpt>
      <trkpt lat="42.98059299999969" lon="-1.3684649999999985">
        <ele>856.498</ele>
        <time>2022-08-24T13:10:46Z</time>
      </trkpt>
      <trkpt lat="42.980569999999695" lon="-1.3685139999999985">
        <ele>856.450</ele>
        <time>2022-08-24T13:10:47Z</time>
      </trkpt>
      <trkpt lat="42.98044999999969" lon="-1.3687519999999984">
        <ele>856.277</ele>
        <time>2022-08-24T13:10:52Z</time>
      </trkpt>
      <trkpt lat="42.98042799999969" lon="-1.3687999999999985">
        <ele>856.280</ele>
        <time>2022-08-24T13:10:53Z</time>
      </trkpt>
      <trkpt lat="42.98040399999969" lon="-1.3688439999999984">
        <ele>856.274</ele>
        <time>2022-08-24T13:10:54Z</time>
      </trkpt>
      <trkpt lat="42.98038099999969" lon="-1.3688869999999984">
        <ele>856.243</ele>
        <time>2022-08-24T13:10:55Z</time>
      </trkpt>
      <trkpt lat="42.980356999999685" lon="-1.3689279999999984">
        <ele>856.257</ele>
        <time>2022-08-24T13:10:56Z</time>
      </trkpt>
      <trkpt lat="42.980331999999684" lon="-1.3689649999999984">
        <ele>856.200</ele>
        <time>2022-08-24T13:10:57Z</time>
      </trkpt>
      <trkpt lat="42.98030799999968" lon="-1.3689979999999984">
        <ele>856.220</ele>
        <time>2022-08-24T13:10:58Z</time>
      </trkpt>
      <trkpt lat="42.98028299999968" lon="-1.3690259999999983">
        <ele>856.209</ele>
        <time>2022-08-24T13:10:59Z</time>
      </trkpt>
      <trkpt lat="42.98025599999968" lon="-1.3690509999999982">
        <ele>856.256</ele>
        <time>2022-08-24T13:11:00Z</time>
      </trkpt>
      <trkpt lat="42.98022399999968" lon="-1.3690739999999983">
        <ele>856.246</ele>
        <time>2022-08-24T13:11:01Z</time>
      </trkpt>
      <trkpt lat="42.98015999999968" lon="-1.3691099999999983">
        <ele>856.246</ele>
        <time>2022-08-24T13:11:03Z</time>
      </trkpt>
      <trkpt lat="42.980129999999676" lon="-1.3691189999999982">
        <ele>856.222</ele>
        <time>2022-08-24T13:11:04Z</time>
      </trkpt>
      <trkpt lat="42.98009799999968" lon="-1.3691289999999983">
        <ele>856.224</ele>
        <time>2022-08-24T13:11:05Z</time>
      </trkpt>
      <trkpt lat="42.98006599999968" lon="-1.3691389999999983">
        <ele>856.261</ele>
        <time>2022-08-24T13:11:06Z</time>
      </trkpt>
      <trkpt lat="42.980033999999684" lon="-1.3691459999999984">
        <ele>856.294</ele>
        <time>2022-08-24T13:11:07Z</time>
      </trkpt>
      <trkpt lat="42.979970999999686" lon="-1.3691649999999984">
        <ele>856.238</ele>
        <time>2022-08-24T13:11:09Z</time>
      </trkpt>
      <trkpt lat="42.979906999999685" lon="-1.3691689999999983">
        <ele>856.267</ele>
        <time>2022-08-24T13:11:11Z</time>
      </trkpt>
      <trkpt lat="42.97984599999968" lon="-1.3691909999999983">
        <ele>856.287</ele>
        <time>2022-08-24T13:11:13Z</time>
      </trkpt>
      <trkpt lat="42.979816999999684" lon="-1.3692089999999983">
        <ele>856.242</ele>
        <time>2022-08-24T13:11:14Z</time>
      </trkpt>
      <trkpt lat="42.97973599999968" lon="-1.3692429999999984">
        <ele>856.226</ele>
        <time>2022-08-24T13:11:17Z</time>
      </trkpt>
      <trkpt lat="42.979729999999684" lon="-1.3692459999999984">
        <ele>856.009</ele>
        <time>2022-08-24T13:11:18Z</time>
      </trkpt>
      <trkpt lat="42.97967499999968" lon="-1.3692729999999984">
        <ele>855.899</ele>
        <time>2022-08-24T13:11:46Z</time>
      </trkpt>
      <trkpt lat="42.97964499999968" lon="-1.3692889999999984">
        <ele>855.869</ele>
        <time>2022-08-24T13:11:47Z</time>
      </trkpt>
      <trkpt lat="42.97960899999968" lon="-1.3693189999999984">
        <ele>855.849</ele>
        <time>2022-08-24T13:11:48Z</time>
      </trkpt>
      <trkpt lat="42.979521999999676" lon="-1.3694049999999984">
        <ele>855.615</ele>
        <time>2022-08-24T13:11:50Z</time>
      </trkpt>
      <trkpt lat="42.979389999999675" lon="-1.3695029999999984">
        <ele>855.237</ele>
        <time>2022-08-24T13:11:53Z</time>
      </trkpt>
      <trkpt lat="42.97933599999968" lon="-1.3695339999999983">
        <ele>855.054</ele>
        <time>2022-08-24T13:11:54Z</time>
      </trkpt>
      <trkpt lat="42.979293999999676" lon="-1.3695529999999982">
        <ele>855.037</ele>
        <time>2022-08-24T13:11:55Z</time>
      </trkpt>
      <trkpt lat="42.979260999999674" lon="-1.3695669999999982">
        <ele>854.871</ele>
        <time>2022-08-24T13:11:56Z</time>
      </trkpt>
      <trkpt lat="42.97923599999967" lon="-1.3695779999999982">
        <ele>854.820</ele>
        <time>2022-08-24T13:11:57Z</time>
      </trkpt>
      <trkpt lat="42.97920499999967" lon="-1.3695939999999982">
        <ele>854.457</ele>
        <time>2022-08-24T13:11:58Z</time>
      </trkpt>
      <trkpt lat="42.979184999999674" lon="-1.3696129999999982">
        <ele>854.400</ele>
        <time>2022-08-24T13:11:59Z</time>
      </trkpt>
      <trkpt lat="42.979172999999676" lon="-1.369643999999998">
        <ele>854.420</ele>
        <time>2022-08-24T13:12:00Z</time>
      </trkpt>
      <trkpt lat="42.97918599999968" lon="-1.369730999999998">
        <ele>854.209</ele>
        <time>2022-08-24T13:12:02Z</time>
      </trkpt>
      <trkpt lat="42.97922499999968" lon="-1.369892999999998">
        <ele>854.286</ele>
        <time>2022-08-24T13:12:05Z</time>
      </trkpt>
      <trkpt lat="42.97923599999968" lon="-1.369938999999998">
        <ele>854.276</ele>
        <time>2022-08-24T13:12:06Z</time>
      </trkpt>
      <trkpt lat="42.97926699999968" lon="-1.370062999999998">
        <ele>853.876</ele>
        <time>2022-08-24T13:12:08Z</time>
      </trkpt>
      <trkpt lat="42.97927499999968" lon="-1.370114999999998">
        <ele>853.692</ele>
        <time>2022-08-24T13:12:09Z</time>
      </trkpt>
      <trkpt lat="42.97928899999968" lon="-1.370167999999998">
        <ele>853.654</ele>
        <time>2022-08-24T13:12:10Z</time>
      </trkpt>
      <trkpt lat="42.97931499999968" lon="-1.370267999999998">
        <ele>853.441</ele>
        <time>2022-08-24T13:12:12Z</time>
      </trkpt>
      <trkpt lat="42.97933299999968" lon="-1.3703289999999981">
        <ele>853.494</ele>
        <time>2022-08-24T13:12:13Z</time>
      </trkpt>
      <trkpt lat="42.979344999999675" lon="-1.370377999999998">
        <ele>853.478</ele>
        <time>2022-08-24T13:12:14Z</time>
      </trkpt>
      <trkpt lat="42.979353999999674" lon="-1.3704279999999982">
        <ele>853.437</ele>
        <time>2022-08-24T13:12:15Z</time>
      </trkpt>
      <trkpt lat="42.979361999999675" lon="-1.3704649999999983">
        <ele>853.443</ele>
        <time>2022-08-24T13:12:16Z</time>
      </trkpt>
      <trkpt lat="42.979375999999675" lon="-1.3705209999999983">
        <ele>853.464</ele>
        <time>2022-08-24T13:12:17Z</time>
      </trkpt>
      <trkpt lat="42.97938299999967" lon="-1.3705649999999983">
        <ele>853.410</ele>
        <time>2022-08-24T13:12:18Z</time>
      </trkpt>
      <trkpt lat="42.97939399999967" lon="-1.3706049999999983">
        <ele>853.409</ele>
        <time>2022-08-24T13:12:19Z</time>
      </trkpt>
      <trkpt lat="42.97941399999967" lon="-1.3706559999999983">
        <ele>853.475</ele>
        <time>2022-08-24T13:12:20Z</time>
      </trkpt>
      <trkpt lat="42.97943099999967" lon="-1.3706969999999983">
        <ele>853.685</ele>
        <time>2022-08-24T13:12:21Z</time>
      </trkpt>
      <trkpt lat="42.97949499999967" lon="-1.3708809999999982">
        <ele>853.675</ele>
        <time>2022-08-24T13:12:25Z</time>
      </trkpt>
      <trkpt lat="42.979507999999676" lon="-1.3709229999999983">
        <ele>853.661</ele>
        <time>2022-08-24T13:12:26Z</time>
      </trkpt>
      <trkpt lat="42.97951899999968" lon="-1.3709639999999983">
        <ele>853.633</ele>
        <time>2022-08-24T13:12:27Z</time>
      </trkpt>
      <trkpt lat="42.97955199999968" lon="-1.3710879999999983">
        <ele>853.810</ele>
        <time>2022-08-24T13:12:30Z</time>
      </trkpt>
      <trkpt lat="42.97957999999968" lon="-1.3711819999999983">
        <ele>854.073</ele>
        <time>2022-08-24T13:12:32Z</time>
      </trkpt>
      <trkpt lat="42.979642999999676" lon="-1.3713899999999983">
        <ele>854.417</ele>
        <time>2022-08-24T13:12:37Z</time>
      </trkpt>
      <trkpt lat="42.97965299999968" lon="-1.3714329999999983">
        <ele>854.856</ele>
        <time>2022-08-24T13:12:38Z</time>
      </trkpt>
      <trkpt lat="42.97970299999968" lon="-1.3715699999999984">
        <ele>855.264</ele>
        <time>2022-08-24T13:12:41Z</time>
      </trkpt>
      <trkpt lat="42.97972899999968" lon="-1.3716599999999983">
        <ele>855.606</ele>
        <time>2022-08-24T13:12:43Z</time>
      </trkpt>
      <trkpt lat="42.97974199999968" lon="-1.3717049999999984">
        <ele>855.616</ele>
        <time>2022-08-24T13:12:44Z</time>
      </trkpt>
      <trkpt lat="42.97975399999968" lon="-1.3717499999999985">
        <ele>855.809</ele>
        <time>2022-08-24T13:12:45Z</time>
      </trkpt>
      <trkpt lat="42.97978199999968" lon="-1.3718409999999985">
        <ele>856.077</ele>
        <time>2022-08-24T13:12:47Z</time>
      </trkpt>
      <trkpt lat="42.97981499999968" lon="-1.3719159999999986">
        <ele>856.427</ele>
        <time>2022-08-24T13:12:49Z</time>
      </trkpt>
      <trkpt lat="42.97982699999968" lon="-1.3719579999999987">
        <ele>856.417</ele>
        <time>2022-08-24T13:12:50Z</time>
      </trkpt>
      <trkpt lat="42.97983899999968" lon="-1.3719989999999986">
        <ele>856.473</ele>
        <time>2022-08-24T13:12:51Z</time>
      </trkpt>
      <trkpt lat="42.97986999999968" lon="-1.3721209999999986">
        <ele>856.875</ele>
        <time>2022-08-24T13:12:54Z</time>
      </trkpt>
      <trkpt lat="42.97987599999968" lon="-1.3721619999999985">
        <ele>857.032</ele>
        <time>2022-08-24T13:12:55Z</time>
      </trkpt>
      <trkpt lat="42.979890999999675" lon="-1.3722079999999985">
        <ele>857.055</ele>
        <time>2022-08-24T13:12:56Z</time>
      </trkpt>
      <trkpt lat="42.97990699999968" lon="-1.3722509999999986">
        <ele>857.089</ele>
        <time>2022-08-24T13:12:57Z</time>
      </trkpt>
      <trkpt lat="42.97991999999968" lon="-1.3722889999999985">
        <ele>857.228</ele>
        <time>2022-08-24T13:12:58Z</time>
      </trkpt>
      <trkpt lat="42.97993199999968" lon="-1.3723309999999986">
        <ele>857.255</ele>
        <time>2022-08-24T13:12:59Z</time>
      </trkpt>
      <trkpt lat="42.979938999999675" lon="-1.3723659999999986">
        <ele>857.607</ele>
        <time>2022-08-24T13:13:00Z</time>
      </trkpt>
      <trkpt lat="42.979946999999676" lon="-1.3723999999999987">
        <ele>857.617</ele>
        <time>2022-08-24T13:13:01Z</time>
      </trkpt>
      <trkpt lat="42.97995699999968" lon="-1.3724339999999988">
        <ele>857.609</ele>
        <time>2022-08-24T13:13:02Z</time>
      </trkpt>
      <trkpt lat="42.979960999999676" lon="-1.3724689999999988">
        <ele>857.646</ele>
        <time>2022-08-24T13:13:03Z</time>
      </trkpt>
      <trkpt lat="42.97994899999968" lon="-1.372494999999999">
        <ele>857.686</ele>
        <time>2022-08-24T13:13:04Z</time>
      </trkpt>
      <trkpt lat="42.97992299999968" lon="-1.372512999999999">
        <ele>857.846</ele>
        <time>2022-08-24T13:13:05Z</time>
      </trkpt>
      <trkpt lat="42.97989199999968" lon="-1.372525999999999">
        <ele>858.272</ele>
        <time>2022-08-24T13:13:06Z</time>
      </trkpt>
      <trkpt lat="42.97986199999968" lon="-1.3725409999999991">
        <ele>858.484</ele>
        <time>2022-08-24T13:13:07Z</time>
      </trkpt>
      <trkpt lat="42.97982799999968" lon="-1.372554999999999">
        <ele>858.461</ele>
        <time>2022-08-24T13:13:08Z</time>
      </trkpt>
      <trkpt lat="42.97979399999968" lon="-1.372570999999999">
        <ele>858.424</ele>
        <time>2022-08-24T13:13:09Z</time>
      </trkpt>
      <trkpt lat="42.97975699999968" lon="-1.3725919999999991">
        <ele>858.468</ele>
        <time>2022-08-24T13:13:10Z</time>
      </trkpt>
      <trkpt lat="42.97973099999968" lon="-1.372611999999999">
        <ele>858.867</ele>
        <time>2022-08-24T13:13:11Z</time>
      </trkpt>
      <trkpt lat="42.97970799999968" lon="-1.372633999999999">
        <ele>858.895</ele>
        <time>2022-08-24T13:13:12Z</time>
      </trkpt>
      <trkpt lat="42.979689999999685" lon="-1.372658999999999">
        <ele>859.049</ele>
        <time>2022-08-24T13:13:13Z</time>
      </trkpt>
      <trkpt lat="42.97967499999969" lon="-1.372683999999999">
        <ele>859.423</ele>
        <time>2022-08-24T13:13:14Z</time>
      </trkpt>
      <trkpt lat="42.97966599999969" lon="-1.372707999999999">
        <ele>859.409</ele>
        <time>2022-08-24T13:13:15Z</time>
      </trkpt>
      <trkpt lat="42.97964899999969" lon="-1.3727329999999989">
        <ele>859.620</ele>
        <time>2022-08-24T13:13:16Z</time>
      </trkpt>
      <trkpt lat="42.97962999999969" lon="-1.3727579999999988">
        <ele>859.680</ele>
        <time>2022-08-24T13:13:17Z</time>
      </trkpt>
      <trkpt lat="42.979613999999685" lon="-1.3727829999999988">
        <ele>859.610</ele>
        <time>2022-08-24T13:13:18Z</time>
      </trkpt>
      <trkpt lat="42.97959599999969" lon="-1.3728099999999988">
        <ele>859.646</ele>
        <time>2022-08-24T13:13:19Z</time>
      </trkpt>
      <trkpt lat="42.979571999999685" lon="-1.3728369999999988">
        <ele>860.088</ele>
        <time>2022-08-24T13:13:20Z</time>
      </trkpt>
      <trkpt lat="42.979540999999685" lon="-1.3728739999999988">
        <ele>860.025</ele>
        <time>2022-08-24T13:13:21Z</time>
      </trkpt>
      <trkpt lat="42.97950599999969" lon="-1.3729099999999987">
        <ele>860.038</ele>
        <time>2022-08-24T13:13:22Z</time>
      </trkpt>
      <trkpt lat="42.979461999999685" lon="-1.3729479999999987">
        <ele>860.022</ele>
        <time>2022-08-24T13:13:23Z</time>
      </trkpt>
      <trkpt lat="42.979416999999685" lon="-1.3729889999999987">
        <ele>859.891</ele>
        <time>2022-08-24T13:13:24Z</time>
      </trkpt>
      <trkpt lat="42.979368999999686" lon="-1.3730339999999988">
        <ele>859.688</ele>
        <time>2022-08-24T13:13:25Z</time>
      </trkpt>
      <trkpt lat="42.979318999999684" lon="-1.3730809999999987">
        <ele>859.624</ele>
        <time>2022-08-24T13:13:26Z</time>
      </trkpt>
      <trkpt lat="42.979264999999685" lon="-1.3731299999999986">
        <ele>859.626</ele>
        <time>2022-08-24T13:13:27Z</time>
      </trkpt>
      <trkpt lat="42.979197999999684" lon="-1.3731889999999987">
        <ele>859.609</ele>
        <time>2022-08-24T13:13:28Z</time>
      </trkpt>
      <trkpt lat="42.97915599999968" lon="-1.3732299999999986">
        <ele>859.469</ele>
        <time>2022-08-24T13:13:29Z</time>
      </trkpt>
      <trkpt lat="42.978994999999685" lon="-1.3733689999999985">
        <ele>858.859</ele>
        <time>2022-08-24T13:13:32Z</time>
      </trkpt>
      <trkpt lat="42.97894299999969" lon="-1.3734159999999984">
        <ele>858.649</ele>
        <time>2022-08-24T13:13:33Z</time>
      </trkpt>
      <trkpt lat="42.97889299999969" lon="-1.3734589999999984">
        <ele>858.475</ele>
        <time>2022-08-24T13:13:34Z</time>
      </trkpt>
      <trkpt lat="42.97884499999969" lon="-1.3735029999999984">
        <ele>858.097</ele>
        <time>2022-08-24T13:13:35Z</time>
      </trkpt>
      <trkpt lat="42.97879999999969" lon="-1.3735439999999983">
        <ele>857.844</ele>
        <time>2022-08-24T13:13:36Z</time>
      </trkpt>
      <trkpt lat="42.978755999999684" lon="-1.3735849999999983">
        <ele>857.627</ele>
        <time>2022-08-24T13:13:37Z</time>
      </trkpt>
      <trkpt lat="42.97871199999968" lon="-1.3736229999999983">
        <ele>857.691</ele>
        <time>2022-08-24T13:13:38Z</time>
      </trkpt>
      <trkpt lat="42.97867299999968" lon="-1.3736609999999982">
        <ele>857.630</ele>
        <time>2022-08-24T13:13:39Z</time>
      </trkpt>
      <trkpt lat="42.97863699999968" lon="-1.3736969999999982">
        <ele>857.624</ele>
        <time>2022-08-24T13:13:40Z</time>
      </trkpt>
      <trkpt lat="42.97860599999968" lon="-1.3737299999999981">
        <ele>857.604</ele>
        <time>2022-08-24T13:13:41Z</time>
      </trkpt>
      <trkpt lat="42.97857899999968" lon="-1.373759999999998">
        <ele>857.614</ele>
        <time>2022-08-24T13:13:42Z</time>
      </trkpt>
      <trkpt lat="42.97855499999967" lon="-1.3737859999999982">
        <ele>857.609</ele>
        <time>2022-08-24T13:13:43Z</time>
      </trkpt>
      <trkpt lat="42.97853299999967" lon="-1.3738089999999983">
        <ele>857.663</ele>
        <time>2022-08-24T13:13:44Z</time>
      </trkpt>
      <trkpt lat="42.97851299999967" lon="-1.3738269999999984">
        <ele>857.863</ele>
        <time>2022-08-24T13:13:45Z</time>
      </trkpt>
      <trkpt lat="42.97849399999967" lon="-1.3738449999999984">
        <ele>857.853</ele>
        <time>2022-08-24T13:13:46Z</time>
      </trkpt>
      <trkpt lat="42.97847799999967" lon="-1.3738659999999985">
        <ele>858.019</ele>
        <time>2022-08-24T13:13:47Z</time>
      </trkpt>
      <trkpt lat="42.97846299999967" lon="-1.3738859999999984">
        <ele>858.091</ele>
        <time>2022-08-24T13:13:48Z</time>
      </trkpt>
      <trkpt lat="42.97844799999967" lon="-1.3739069999999984">
        <ele>858.278</ele>
        <time>2022-08-24T13:13:49Z</time>
      </trkpt>
      <trkpt lat="42.97843399999967" lon="-1.3739269999999983">
        <ele>858.421</ele>
        <time>2022-08-24T13:13:50Z</time>
      </trkpt>
      <trkpt lat="42.97841799999967" lon="-1.3739459999999983">
        <ele>858.625</ele>
        <time>2022-08-24T13:13:51Z</time>
      </trkpt>
      <trkpt lat="42.97839099999967" lon="-1.3739839999999983">
        <ele>858.624</ele>
        <time>2022-08-24T13:13:53Z</time>
      </trkpt>
      <trkpt lat="42.97837699999967" lon="-1.3740079999999983">
        <ele>859.056</ele>
        <time>2022-08-24T13:13:54Z</time>
      </trkpt>
      <trkpt lat="42.97834499999967" lon="-1.3740619999999983">
        <ele>859.459</ele>
        <time>2022-08-24T13:13:57Z</time>
      </trkpt>
      <trkpt lat="42.97833399999967" lon="-1.3740799999999984">
        <ele>859.614</ele>
        <time>2022-08-24T13:13:58Z</time>
      </trkpt>
      <trkpt lat="42.97832399999967" lon="-1.3740969999999983">
        <ele>859.809</ele>
        <time>2022-08-24T13:13:59Z</time>
      </trkpt>
      <trkpt lat="42.978310999999664" lon="-1.3741149999999984">
        <ele>859.866</ele>
        <time>2022-08-24T13:14:00Z</time>
      </trkpt>
      <trkpt lat="42.97826099999966" lon="-1.3741859999999984">
        <ele>860.826</ele>
        <time>2022-08-24T13:14:04Z</time>
      </trkpt>
      <trkpt lat="42.97825099999966" lon="-1.3742039999999984">
        <ele>860.876</ele>
        <time>2022-08-24T13:14:05Z</time>
      </trkpt>
      <trkpt lat="42.97823999999966" lon="-1.3742219999999985">
        <ele>861.232</ele>
        <time>2022-08-24T13:14:06Z</time>
      </trkpt>
      <trkpt lat="42.97822899999966" lon="-1.3742429999999985">
        <ele>861.234</ele>
        <time>2022-08-24T13:14:07Z</time>
      </trkpt>
      <trkpt lat="42.97821799999966" lon="-1.3742619999999985">
        <ele>861.451</ele>
        <time>2022-08-24T13:14:08Z</time>
      </trkpt>
      <trkpt lat="42.97820399999966" lon="-1.3742809999999985">
        <ele>861.474</ele>
        <time>2022-08-24T13:14:09Z</time>
      </trkpt>
      <trkpt lat="42.978192999999656" lon="-1.3742989999999986">
        <ele>861.658</ele>
        <time>2022-08-24T13:14:10Z</time>
      </trkpt>
      <trkpt lat="42.978181999999656" lon="-1.3743169999999987">
        <ele>861.867</ele>
        <time>2022-08-24T13:14:11Z</time>
      </trkpt>
      <trkpt lat="42.97816999999966" lon="-1.3743369999999986">
        <ele>862.036</ele>
        <time>2022-08-24T13:14:12Z</time>
      </trkpt>
      <trkpt lat="42.97815899999966" lon="-1.3743569999999985">
        <ele>862.217</ele>
        <time>2022-08-24T13:14:13Z</time>
      </trkpt>
      <trkpt lat="42.978147999999656" lon="-1.3743779999999985">
        <ele>862.418</ele>
        <time>2022-08-24T13:14:14Z</time>
      </trkpt>
      <trkpt lat="42.978139999999655" lon="-1.3744009999999987">
        <ele>862.409</ele>
        <time>2022-08-24T13:14:15Z</time>
      </trkpt>
      <trkpt lat="42.97813099999966" lon="-1.3744219999999987">
        <ele>862.684</ele>
        <time>2022-08-24T13:14:16Z</time>
      </trkpt>
      <trkpt lat="42.97811899999966" lon="-1.3744409999999987">
        <ele>862.864</ele>
        <time>2022-08-24T13:14:17Z</time>
      </trkpt>
      <trkpt lat="42.97810499999966" lon="-1.3744599999999987">
        <ele>863.054</ele>
        <time>2022-08-24T13:14:18Z</time>
      </trkpt>
      <trkpt lat="42.978091999999656" lon="-1.3744769999999986">
        <ele>863.290</ele>
        <time>2022-08-24T13:14:19Z</time>
      </trkpt>
      <trkpt lat="42.978080999999655" lon="-1.3744949999999987">
        <ele>863.432</ele>
        <time>2022-08-24T13:14:20Z</time>
      </trkpt>
      <trkpt lat="42.978069999999654" lon="-1.3745139999999987">
        <ele>863.689</ele>
        <time>2022-08-24T13:14:21Z</time>
      </trkpt>
      <trkpt lat="42.97806199999965" lon="-1.3745339999999986">
        <ele>863.862</ele>
        <time>2022-08-24T13:14:22Z</time>
      </trkpt>
      <trkpt lat="42.97805399999965" lon="-1.3745539999999985">
        <ele>864.086</ele>
        <time>2022-08-24T13:14:23Z</time>
      </trkpt>
      <trkpt lat="42.97804499999965" lon="-1.3745739999999984">
        <ele>864.255</ele>
        <time>2022-08-24T13:14:24Z</time>
      </trkpt>
      <trkpt lat="42.97803999999965" lon="-1.3745959999999984">
        <ele>864.438</ele>
        <time>2022-08-24T13:14:25Z</time>
      </trkpt>
      <trkpt lat="42.978035999999655" lon="-1.3746169999999984">
        <ele>864.470</ele>
        <time>2022-08-24T13:14:26Z</time>
      </trkpt>
      <trkpt lat="42.97802899999966" lon="-1.3746389999999984">
        <ele>864.817</ele>
        <time>2022-08-24T13:14:27Z</time>
      </trkpt>
      <trkpt lat="42.97802499999966" lon="-1.3746619999999985">
        <ele>864.809</ele>
        <time>2022-08-24T13:14:28Z</time>
      </trkpt>
      <trkpt lat="42.97801999999966" lon="-1.3746839999999985">
        <ele>865.034</ele>
        <time>2022-08-24T13:14:29Z</time>
      </trkpt>
      <trkpt lat="42.97801199999966" lon="-1.3747069999999986">
        <ele>865.234</ele>
        <time>2022-08-24T13:14:30Z</time>
      </trkpt>
      <trkpt lat="42.97799999999966" lon="-1.3747299999999987">
        <ele>865.444</ele>
        <time>2022-08-24T13:14:31Z</time>
      </trkpt>
      <trkpt lat="42.97799099999966" lon="-1.3747499999999986">
        <ele>865.410</ele>
        <time>2022-08-24T13:14:32Z</time>
      </trkpt>
      <trkpt lat="42.97798599999966" lon="-1.3747709999999986">
        <ele>865.682</ele>
        <time>2022-08-24T13:14:33Z</time>
      </trkpt>
      <trkpt lat="42.97798199999966" lon="-1.3747939999999987">
        <ele>865.849</ele>
        <time>2022-08-24T13:14:34Z</time>
      </trkpt>
      <trkpt lat="42.977975999999664" lon="-1.3748179999999988">
        <ele>865.872</ele>
        <time>2022-08-24T13:14:35Z</time>
      </trkpt>
      <trkpt lat="42.977969999999665" lon="-1.3748399999999987">
        <ele>866.076</ele>
        <time>2022-08-24T13:14:36Z</time>
      </trkpt>
      <trkpt lat="42.97796099999967" lon="-1.3748639999999988">
        <ele>866.455</ele>
        <time>2022-08-24T13:14:37Z</time>
      </trkpt>
      <trkpt lat="42.97795499999967" lon="-1.3748789999999989">
        <ele>866.826</ele>
        <time>2022-08-24T13:14:38Z</time>
      </trkpt>
      <trkpt lat="42.97794899999967" lon="-1.3748979999999988">
        <ele>867.047</ele>
        <time>2022-08-24T13:14:39Z</time>
      </trkpt>
      <trkpt lat="42.97794099999967" lon="-1.3749149999999988">
        <ele>867.211</ele>
        <time>2022-08-24T13:14:40Z</time>
      </trkpt>
      <trkpt lat="42.97793499999967" lon="-1.3749369999999987">
        <ele>867.609</ele>
        <time>2022-08-24T13:14:41Z</time>
      </trkpt>
      <trkpt lat="42.97792799999967" lon="-1.3749569999999987">
        <ele>868.063</ele>
        <time>2022-08-24T13:14:42Z</time>
      </trkpt>
      <trkpt lat="42.977920999999675" lon="-1.3749769999999986">
        <ele>868.053</ele>
        <time>2022-08-24T13:14:43Z</time>
      </trkpt>
      <trkpt lat="42.97791399999968" lon="-1.3749959999999986">
        <ele>868.073</ele>
        <time>2022-08-24T13:14:44Z</time>
      </trkpt>
      <trkpt lat="42.97790599999968" lon="-1.3750139999999986">
        <ele>868.049</ele>
        <time>2022-08-24T13:14:45Z</time>
      </trkpt>
      <trkpt lat="42.977900999999676" lon="-1.3750339999999985">
        <ele>868.251</ele>
        <time>2022-08-24T13:14:46Z</time>
      </trkpt>
      <trkpt lat="42.977897999999676" lon="-1.3750549999999986">
        <ele>868.448</ele>
        <time>2022-08-24T13:14:47Z</time>
      </trkpt>
      <trkpt lat="42.977895999999674" lon="-1.3750769999999986">
        <ele>868.471</ele>
        <time>2022-08-24T13:14:48Z</time>
      </trkpt>
      <trkpt lat="42.97789099999967" lon="-1.3750999999999987">
        <ele>868.685</ele>
        <time>2022-08-24T13:14:49Z</time>
      </trkpt>
      <trkpt lat="42.977884999999674" lon="-1.3751189999999986">
        <ele>868.664</ele>
        <time>2022-08-24T13:14:50Z</time>
      </trkpt>
      <trkpt lat="42.97788099999968" lon="-1.3751359999999986">
        <ele>869.047</ele>
        <time>2022-08-24T13:14:51Z</time>
      </trkpt>
      <trkpt lat="42.97787699999968" lon="-1.3751529999999985">
        <ele>869.029</ele>
        <time>2022-08-24T13:14:52Z</time>
      </trkpt>
      <trkpt lat="42.97786999999968" lon="-1.3751709999999986">
        <ele>869.221</ele>
        <time>2022-08-24T13:14:53Z</time>
      </trkpt>
      <trkpt lat="42.97786299999969" lon="-1.3751879999999985">
        <ele>869.409</ele>
        <time>2022-08-24T13:14:54Z</time>
      </trkpt>
      <trkpt lat="42.97785399999969" lon="-1.3752059999999986">
        <ele>869.855</ele>
        <time>2022-08-24T13:14:55Z</time>
      </trkpt>
      <trkpt lat="42.97784799999969" lon="-1.3752249999999986">
        <ele>870.075</ele>
        <time>2022-08-24T13:14:56Z</time>
      </trkpt>
      <trkpt lat="42.97784199999969" lon="-1.3752449999999985">
        <ele>870.075</ele>
        <time>2022-08-24T13:14:57Z</time>
      </trkpt>
      <trkpt lat="42.97783599999969" lon="-1.3752649999999984">
        <ele>870.471</ele>
        <time>2022-08-24T13:14:58Z</time>
      </trkpt>
      <trkpt lat="42.977828999999694" lon="-1.3752849999999983">
        <ele>870.423</ele>
        <time>2022-08-24T13:14:59Z</time>
      </trkpt>
      <trkpt lat="42.97781899999969" lon="-1.3753039999999983">
        <ele>870.640</ele>
        <time>2022-08-24T13:15:00Z</time>
      </trkpt>
      <trkpt lat="42.97781299999969" lon="-1.3753219999999984">
        <ele>870.843</ele>
        <time>2022-08-24T13:15:01Z</time>
      </trkpt>
      <trkpt lat="42.977805999999696" lon="-1.3753409999999984">
        <ele>871.027</ele>
        <time>2022-08-24T13:15:02Z</time>
      </trkpt>
      <trkpt lat="42.977794999999695" lon="-1.3753619999999984">
        <ele>871.226</ele>
        <time>2022-08-24T13:15:03Z</time>
      </trkpt>
      <trkpt lat="42.9777879999997" lon="-1.3753759999999984">
        <ele>871.249</ele>
        <time>2022-08-24T13:15:04Z</time>
      </trkpt>
      <trkpt lat="42.9777799999997" lon="-1.3753919999999984">
        <ele>871.402</ele>
        <time>2022-08-24T13:15:05Z</time>
      </trkpt>
      <trkpt lat="42.9777739999997" lon="-1.3754089999999983">
        <ele>871.422</ele>
        <time>2022-08-24T13:15:06Z</time>
      </trkpt>
      <trkpt lat="42.9777709999997" lon="-1.3754229999999983">
        <ele>871.609</ele>
        <time>2022-08-24T13:15:07Z</time>
      </trkpt>
      <trkpt lat="42.9777699999997" lon="-1.3754389999999983">
        <ele>871.875</ele>
        <time>2022-08-24T13:15:08Z</time>
      </trkpt>
      <trkpt lat="42.9777679999997" lon="-1.3754579999999983">
        <ele>872.085</ele>
        <time>2022-08-24T13:15:09Z</time>
      </trkpt>
      <trkpt lat="42.977757999999696" lon="-1.3754789999999983">
        <ele>872.215</ele>
        <time>2022-08-24T13:15:10Z</time>
      </trkpt>
      <trkpt lat="42.977752999999694" lon="-1.3754989999999983">
        <ele>872.461</ele>
        <time>2022-08-24T13:15:11Z</time>
      </trkpt>
      <trkpt lat="42.97774799999969" lon="-1.3755169999999983">
        <ele>872.623</ele>
        <time>2022-08-24T13:15:12Z</time>
      </trkpt>
      <trkpt lat="42.97774299999969" lon="-1.3755329999999983">
        <ele>872.890</ele>
        <time>2022-08-24T13:15:13Z</time>
      </trkpt>
      <trkpt lat="42.97773699999969" lon="-1.3755479999999984">
        <ele>873.043</ele>
        <time>2022-08-24T13:15:14Z</time>
      </trkpt>
      <trkpt lat="42.97772799999969" lon="-1.3755639999999985">
        <ele>873.087</ele>
        <time>2022-08-24T13:15:15Z</time>
      </trkpt>
      <trkpt lat="42.977718999999695" lon="-1.3755819999999985">
        <ele>873.046</ele>
        <time>2022-08-24T13:15:16Z</time>
      </trkpt>
      <trkpt lat="42.977712999999696" lon="-1.3755949999999986">
        <ele>873.293</ele>
        <time>2022-08-24T13:15:17Z</time>
      </trkpt>
      <trkpt lat="42.977704999999695" lon="-1.3756109999999986">
        <ele>873.265</ele>
        <time>2022-08-24T13:15:18Z</time>
      </trkpt>
      <trkpt lat="42.97769999999969" lon="-1.3756279999999985">
        <ele>873.421</ele>
        <time>2022-08-24T13:15:19Z</time>
      </trkpt>
      <trkpt lat="42.977690999999695" lon="-1.3756459999999986">
        <ele>873.409</ele>
        <time>2022-08-24T13:15:20Z</time>
      </trkpt>
      <trkpt lat="42.977681999999696" lon="-1.3756619999999986">
        <ele>873.660</ele>
        <time>2022-08-24T13:15:21Z</time>
      </trkpt>
      <trkpt lat="42.9776729999997" lon="-1.3756789999999985">
        <ele>873.880</ele>
        <time>2022-08-24T13:15:22Z</time>
      </trkpt>
      <trkpt lat="42.9776619999997" lon="-1.3756969999999986">
        <ele>873.860</ele>
        <time>2022-08-24T13:15:23Z</time>
      </trkpt>
      <trkpt lat="42.97765199999969" lon="-1.3757089999999985">
        <ele>874.056</ele>
        <time>2022-08-24T13:15:24Z</time>
      </trkpt>
      <trkpt lat="42.977639999999695" lon="-1.3757289999999984">
        <ele>874.048</ele>
        <time>2022-08-24T13:15:25Z</time>
      </trkpt>
      <trkpt lat="42.977634999999694" lon="-1.3757449999999984">
        <ele>874.295</ele>
        <time>2022-08-24T13:15:26Z</time>
      </trkpt>
      <trkpt lat="42.9776279999997" lon="-1.3757649999999984">
        <ele>874.238</ele>
        <time>2022-08-24T13:15:27Z</time>
      </trkpt>
      <trkpt lat="42.977617999999694" lon="-1.3757879999999985">
        <ele>874.212</ele>
        <time>2022-08-24T13:15:28Z</time>
      </trkpt>
      <trkpt lat="42.977611999999695" lon="-1.3758069999999984">
        <ele>874.461</ele>
        <time>2022-08-24T13:15:29Z</time>
      </trkpt>
      <trkpt lat="42.977608999999696" lon="-1.3758249999999985">
        <ele>874.458</ele>
        <time>2022-08-24T13:15:30Z</time>
      </trkpt>
      <trkpt lat="42.977600999999694" lon="-1.3758459999999986">
        <ele>874.452</ele>
        <time>2022-08-24T13:15:31Z</time>
      </trkpt>
      <trkpt lat="42.977594999999695" lon="-1.3758619999999986">
        <ele>874.417</ele>
        <time>2022-08-24T13:15:32Z</time>
      </trkpt>
      <trkpt lat="42.9775879999997" lon="-1.3758809999999986">
        <ele>874.609</ele>
        <time>2022-08-24T13:15:33Z</time>
      </trkpt>
      <trkpt lat="42.9775819999997" lon="-1.3758959999999987">
        <ele>874.696</ele>
        <time>2022-08-24T13:15:34Z</time>
      </trkpt>
      <trkpt lat="42.9775749999997" lon="-1.3759149999999987">
        <ele>874.876</ele>
        <time>2022-08-24T13:15:35Z</time>
      </trkpt>
      <trkpt lat="42.9775669999997" lon="-1.3759349999999986">
        <ele>875.016</ele>
        <time>2022-08-24T13:15:36Z</time>
      </trkpt>
      <trkpt lat="42.9775589999997" lon="-1.3759539999999986">
        <ele>875.032</ele>
        <time>2022-08-24T13:15:37Z</time>
      </trkpt>
      <trkpt lat="42.9775499999997" lon="-1.3759689999999987">
        <ele>875.254</ele>
        <time>2022-08-24T13:15:38Z</time>
      </trkpt>
      <trkpt lat="42.9775419999997" lon="-1.3759869999999987">
        <ele>875.431</ele>
        <time>2022-08-24T13:15:39Z</time>
      </trkpt>
      <trkpt lat="42.977534999999705" lon="-1.3760069999999986">
        <ele>875.434</ele>
        <time>2022-08-24T13:15:40Z</time>
      </trkpt>
      <trkpt lat="42.977523999999704" lon="-1.3760269999999986">
        <ele>875.648</ele>
        <time>2022-08-24T13:15:41Z</time>
      </trkpt>
      <trkpt lat="42.9775139999997" lon="-1.3760419999999987">
        <ele>875.677</ele>
        <time>2022-08-24T13:15:42Z</time>
      </trkpt>
      <trkpt lat="42.9775059999997" lon="-1.3760589999999986">
        <ele>875.637</ele>
        <time>2022-08-24T13:15:43Z</time>
      </trkpt>
      <trkpt lat="42.9774979999997" lon="-1.3760729999999985">
        <ele>875.849</ele>
        <time>2022-08-24T13:15:44Z</time>
      </trkpt>
      <trkpt lat="42.9774859999997" lon="-1.3760879999999986">
        <ele>875.813</ele>
        <time>2022-08-24T13:15:45Z</time>
      </trkpt>
      <trkpt lat="42.9774739999997" lon="-1.3761059999999987">
        <ele>876.009</ele>
        <time>2022-08-24T13:15:46Z</time>
      </trkpt>
      <trkpt lat="42.9774679999997" lon="-1.3761239999999988">
        <ele>876.274</ele>
        <time>2022-08-24T13:15:47Z</time>
      </trkpt>
      <trkpt lat="42.97746099999971" lon="-1.3761499999999989">
        <ele>876.284</ele>
        <time>2022-08-24T13:15:48Z</time>
      </trkpt>
      <trkpt lat="42.97745499999971" lon="-1.376164999999999">
        <ele>876.284</ele>
        <time>2022-08-24T13:15:49Z</time>
      </trkpt>
      <trkpt lat="42.97744799999971" lon="-1.376183999999999">
        <ele>876.630</ele>
        <time>2022-08-24T13:15:50Z</time>
      </trkpt>
      <trkpt lat="42.97743899999971" lon="-1.376204999999999">
        <ele>876.822</ele>
        <time>2022-08-24T13:15:51Z</time>
      </trkpt>
      <trkpt lat="42.97743099999971" lon="-1.376219999999999">
        <ele>877.049</ele>
        <time>2022-08-24T13:15:52Z</time>
      </trkpt>
      <trkpt lat="42.97741899999971" lon="-1.3762409999999992">
        <ele>877.212</ele>
        <time>2022-08-24T13:15:53Z</time>
      </trkpt>
      <trkpt lat="42.977412999999714" lon="-1.3762569999999992">
        <ele>877.286</ele>
        <time>2022-08-24T13:15:54Z</time>
      </trkpt>
      <trkpt lat="42.977403999999716" lon="-1.376273999999999">
        <ele>877.465</ele>
        <time>2022-08-24T13:15:55Z</time>
      </trkpt>
      <trkpt lat="42.97739499999972" lon="-1.376295999999999">
        <ele>877.261</ele>
        <time>2022-08-24T13:15:56Z</time>
      </trkpt>
      <trkpt lat="42.977386999999716" lon="-1.376314999999999">
        <ele>877.221</ele>
        <time>2022-08-24T13:15:57Z</time>
      </trkpt>
      <trkpt lat="42.97737999999972" lon="-1.376327999999999">
        <ele>877.413</ele>
        <time>2022-08-24T13:15:58Z</time>
      </trkpt>
      <trkpt lat="42.97737399999972" lon="-1.376347999999999">
        <ele>877.409</ele>
        <time>2022-08-24T13:15:59Z</time>
      </trkpt>
      <trkpt lat="42.97736799999972" lon="-1.376366999999999">
        <ele>877.617</ele>
        <time>2022-08-24T13:16:00Z</time>
      </trkpt>
      <trkpt lat="42.97735799999972" lon="-1.376390999999999">
        <ele>877.657</ele>
        <time>2022-08-24T13:16:01Z</time>
      </trkpt>
      <trkpt lat="42.97735399999972" lon="-1.376407999999999">
        <ele>877.867</ele>
        <time>2022-08-24T13:16:02Z</time>
      </trkpt>
      <trkpt lat="42.97734399999972" lon="-1.376431999999999">
        <ele>877.813</ele>
        <time>2022-08-24T13:16:03Z</time>
      </trkpt>
      <trkpt lat="42.97733699999972" lon="-1.376448999999999">
        <ele>878.085</ele>
        <time>2022-08-24T13:16:04Z</time>
      </trkpt>
      <trkpt lat="42.97732899999972" lon="-1.3764689999999988">
        <ele>878.242</ele>
        <time>2022-08-24T13:16:05Z</time>
      </trkpt>
      <trkpt lat="42.97731699999972" lon="-1.3764859999999988">
        <ele>878.255</ele>
        <time>2022-08-24T13:16:06Z</time>
      </trkpt>
      <trkpt lat="42.97730599999972" lon="-1.3765069999999988">
        <ele>878.229</ele>
        <time>2022-08-24T13:16:07Z</time>
      </trkpt>
      <trkpt lat="42.97729799999972" lon="-1.3765289999999988">
        <ele>878.458</ele>
        <time>2022-08-24T13:16:08Z</time>
      </trkpt>
      <trkpt lat="42.97728999999972" lon="-1.3765489999999987">
        <ele>878.457</ele>
        <time>2022-08-24T13:16:09Z</time>
      </trkpt>
      <trkpt lat="42.97728299999972" lon="-1.3765709999999987">
        <ele>878.600</ele>
        <time>2022-08-24T13:16:10Z</time>
      </trkpt>
      <trkpt lat="42.97727199999972" lon="-1.3765969999999987">
        <ele>878.620</ele>
        <time>2022-08-24T13:16:11Z</time>
      </trkpt>
      <trkpt lat="42.97726399999972" lon="-1.3766129999999988">
        <ele>878.809</ele>
        <time>2022-08-24T13:16:12Z</time>
      </trkpt>
      <trkpt lat="42.97725299999972" lon="-1.3766369999999988">
        <ele>878.876</ele>
        <time>2022-08-24T13:16:13Z</time>
      </trkpt>
      <trkpt lat="42.97724699999972" lon="-1.3766529999999988">
        <ele>879.086</ele>
        <time>2022-08-24T13:16:14Z</time>
      </trkpt>
      <trkpt lat="42.97724099999972" lon="-1.3766729999999987">
        <ele>879.086</ele>
        <time>2022-08-24T13:16:15Z</time>
      </trkpt>
      <trkpt lat="42.977233999999726" lon="-1.3766939999999988">
        <ele>879.212</ele>
        <time>2022-08-24T13:16:16Z</time>
      </trkpt>
      <trkpt lat="42.97722499999973" lon="-1.3767129999999987">
        <ele>879.234</ele>
        <time>2022-08-24T13:16:17Z</time>
      </trkpt>
      <trkpt lat="42.97721299999973" lon="-1.3767379999999987">
        <ele>879.281</ele>
        <time>2022-08-24T13:16:18Z</time>
      </trkpt>
      <trkpt lat="42.97720699999973" lon="-1.3767519999999986">
        <ele>879.454</ele>
        <time>2022-08-24T13:16:19Z</time>
      </trkpt>
      <trkpt lat="42.97719299999973" lon="-1.3767719999999986">
        <ele>879.428</ele>
        <time>2022-08-24T13:16:20Z</time>
      </trkpt>
      <trkpt lat="42.97718299999973" lon="-1.3767929999999986">
        <ele>879.667</ele>
        <time>2022-08-24T13:16:21Z</time>
      </trkpt>
      <trkpt lat="42.97717699999973" lon="-1.3768129999999985">
        <ele>879.695</ele>
        <time>2022-08-24T13:16:22Z</time>
      </trkpt>
      <trkpt lat="42.977168999999726" lon="-1.3768349999999985">
        <ele>879.849</ele>
        <time>2022-08-24T13:16:23Z</time>
      </trkpt>
      <trkpt lat="42.977160999999725" lon="-1.3768519999999984">
        <ele>879.823</ele>
        <time>2022-08-24T13:16:24Z</time>
      </trkpt>
      <trkpt lat="42.97714199999972" lon="-1.3768959999999983">
        <ele>880.009</ele>
        <time>2022-08-24T13:16:26Z</time>
      </trkpt>
      <trkpt lat="42.977107999999724" lon="-1.3769709999999984">
        <ele>880.410</ele>
        <time>2022-08-24T13:16:30Z</time>
      </trkpt>
      <trkpt lat="42.97708999999973" lon="-1.3770159999999985">
        <ele>880.880</ele>
        <time>2022-08-24T13:16:32Z</time>
      </trkpt>
      <trkpt lat="42.977059999999724" lon="-1.3770949999999984">
        <ele>881.220</ele>
        <time>2022-08-24T13:16:36Z</time>
      </trkpt>
      <trkpt lat="42.97705299999973" lon="-1.3771159999999985">
        <ele>881.426</ele>
        <time>2022-08-24T13:16:37Z</time>
      </trkpt>
      <trkpt lat="42.97704399999973" lon="-1.3771349999999984">
        <ele>881.438</ele>
        <time>2022-08-24T13:16:38Z</time>
      </trkpt>
      <trkpt lat="42.977033999999726" lon="-1.3771549999999984">
        <ele>881.455</ele>
        <time>2022-08-24T13:16:39Z</time>
      </trkpt>
      <trkpt lat="42.97702399999972" lon="-1.3771729999999984">
        <ele>881.668</ele>
        <time>2022-08-24T13:16:40Z</time>
      </trkpt>
      <trkpt lat="42.977011999999725" lon="-1.3771969999999985">
        <ele>881.882</ele>
        <time>2022-08-24T13:16:41Z</time>
      </trkpt>
      <trkpt lat="42.97700499999973" lon="-1.3772189999999984">
        <ele>882.091</ele>
        <time>2022-08-24T13:16:42Z</time>
      </trkpt>
      <trkpt lat="42.97699899999973" lon="-1.3772379999999984">
        <ele>882.236</ele>
        <time>2022-08-24T13:16:43Z</time>
      </trkpt>
      <trkpt lat="42.97699299999973" lon="-1.3772539999999984">
        <ele>882.217</ele>
        <time>2022-08-24T13:16:44Z</time>
      </trkpt>
      <trkpt lat="42.97698299999973" lon="-1.3772719999999985">
        <ele>882.418</ele>
        <time>2022-08-24T13:16:45Z</time>
      </trkpt>
      <trkpt lat="42.976972999999724" lon="-1.3772959999999985">
        <ele>882.409</ele>
        <time>2022-08-24T13:16:46Z</time>
      </trkpt>
      <trkpt lat="42.97696599999973" lon="-1.3773079999999984">
        <ele>882.624</ele>
        <time>2022-08-24T13:16:47Z</time>
      </trkpt>
      <trkpt lat="42.97695699999973" lon="-1.3773269999999984">
        <ele>882.654</ele>
        <time>2022-08-24T13:16:48Z</time>
      </trkpt>
      <trkpt lat="42.97694899999973" lon="-1.3773459999999984">
        <ele>882.854</ele>
        <time>2022-08-24T13:16:49Z</time>
      </trkpt>
      <trkpt lat="42.97694099999973" lon="-1.3773659999999983">
        <ele>883.070</ele>
        <time>2022-08-24T13:16:50Z</time>
      </trkpt>
      <trkpt lat="42.97693099999972" lon="-1.3773909999999983">
        <ele>883.012</ele>
        <time>2022-08-24T13:16:51Z</time>
      </trkpt>
      <trkpt lat="42.97692399999973" lon="-1.3774069999999983">
        <ele>883.229</ele>
        <time>2022-08-24T13:16:52Z</time>
      </trkpt>
      <trkpt lat="42.976915999999726" lon="-1.3774249999999983">
        <ele>883.262</ele>
        <time>2022-08-24T13:16:53Z</time>
      </trkpt>
      <trkpt lat="42.976904999999725" lon="-1.3774449999999983">
        <ele>883.676</ele>
        <time>2022-08-24T13:16:54Z</time>
      </trkpt>
      <trkpt lat="42.976895999999726" lon="-1.3774659999999983">
        <ele>884.075</ele>
        <time>2022-08-24T13:16:55Z</time>
      </trkpt>
      <trkpt lat="42.976884999999726" lon="-1.3774889999999984">
        <ele>884.229</ele>
        <time>2022-08-24T13:16:56Z</time>
      </trkpt>
      <trkpt lat="42.97687799999973" lon="-1.3775019999999984">
        <ele>884.400</ele>
        <time>2022-08-24T13:16:57Z</time>
      </trkpt>
      <trkpt lat="42.97686699999973" lon="-1.3775239999999984">
        <ele>884.420</ele>
        <time>2022-08-24T13:16:58Z</time>
      </trkpt>
      <trkpt lat="42.97685599999973" lon="-1.3775379999999984">
        <ele>884.609</ele>
        <time>2022-08-24T13:16:59Z</time>
      </trkpt>
      <trkpt lat="42.97684399999973" lon="-1.3775559999999984">
        <ele>884.823</ele>
        <time>2022-08-24T13:17:00Z</time>
      </trkpt>
      <trkpt lat="42.97683399999973" lon="-1.3775759999999984">
        <ele>884.873</ele>
        <time>2022-08-24T13:17:01Z</time>
      </trkpt>
      <trkpt lat="42.97682499999973" lon="-1.3775919999999984">
        <ele>884.863</ele>
        <time>2022-08-24T13:17:02Z</time>
      </trkpt>
      <trkpt lat="42.976814999999725" lon="-1.3776129999999984">
        <ele>884.879</ele>
        <time>2022-08-24T13:17:03Z</time>
      </trkpt>
      <trkpt lat="42.976805999999726" lon="-1.3776339999999985">
        <ele>885.081</ele>
        <time>2022-08-24T13:17:04Z</time>
      </trkpt>
      <trkpt lat="42.97679699999973" lon="-1.3776549999999985">
        <ele>885.088</ele>
        <time>2022-08-24T13:17:05Z</time>
      </trkpt>
      <trkpt lat="42.97678899999973" lon="-1.3776769999999985">
        <ele>885.021</ele>
        <time>2022-08-24T13:17:06Z</time>
      </trkpt>
      <trkpt lat="42.97677899999972" lon="-1.3776949999999986">
        <ele>885.255</ele>
        <time>2022-08-24T13:17:07Z</time>
      </trkpt>
      <trkpt lat="42.976766999999725" lon="-1.3777199999999985">
        <ele>885.264</ele>
        <time>2022-08-24T13:17:08Z</time>
      </trkpt>
      <trkpt lat="42.97675999999973" lon="-1.3777349999999986">
        <ele>885.869</ele>
        <time>2022-08-24T13:17:09Z</time>
      </trkpt>
      <trkpt lat="42.97674899999973" lon="-1.3777529999999987">
        <ele>885.804</ele>
        <time>2022-08-24T13:17:10Z</time>
      </trkpt>
      <trkpt lat="42.97673499999973" lon="-1.3777759999999988">
        <ele>886.224</ele>
        <time>2022-08-24T13:17:11Z</time>
      </trkpt>
      <trkpt lat="42.97672699999973" lon="-1.3777969999999988">
        <ele>886.409</ele>
        <time>2022-08-24T13:17:12Z</time>
      </trkpt>
      <trkpt lat="42.97671999999973" lon="-1.3778179999999989">
        <ele>886.627</ele>
        <time>2022-08-24T13:17:13Z</time>
      </trkpt>
      <trkpt lat="42.97671399999973" lon="-1.3778349999999988">
        <ele>886.857</ele>
        <time>2022-08-24T13:17:14Z</time>
      </trkpt>
      <trkpt lat="42.97670399999973" lon="-1.3778549999999987">
        <ele>886.827</ele>
        <time>2022-08-24T13:17:15Z</time>
      </trkpt>
      <trkpt lat="42.97669799999973" lon="-1.3778769999999987">
        <ele>887.223</ele>
        <time>2022-08-24T13:17:16Z</time>
      </trkpt>
      <trkpt lat="42.97669099999973" lon="-1.3778979999999987">
        <ele>887.215</ele>
        <time>2022-08-24T13:17:17Z</time>
      </trkpt>
      <trkpt lat="42.976681999999734" lon="-1.3779159999999988">
        <ele>887.472</ele>
        <time>2022-08-24T13:17:18Z</time>
      </trkpt>
      <trkpt lat="42.97667399999973" lon="-1.3779289999999988">
        <ele>887.635</ele>
        <time>2022-08-24T13:17:19Z</time>
      </trkpt>
      <trkpt lat="42.97666599999973" lon="-1.3779509999999988">
        <ele>887.829</ele>
        <time>2022-08-24T13:17:20Z</time>
      </trkpt>
      <trkpt lat="42.97665699999973" lon="-1.3779729999999988">
        <ele>888.268</ele>
        <time>2022-08-24T13:17:21Z</time>
      </trkpt>
      <trkpt lat="42.976647999999734" lon="-1.3779949999999987">
        <ele>888.446</ele>
        <time>2022-08-24T13:17:22Z</time>
      </trkpt>
      <trkpt lat="42.976635999999736" lon="-1.3780199999999987">
        <ele>888.488</ele>
        <time>2022-08-24T13:17:23Z</time>
      </trkpt>
      <trkpt lat="42.97663199999974" lon="-1.3780379999999988">
        <ele>888.616</ele>
        <time>2022-08-24T13:17:24Z</time>
      </trkpt>
      <trkpt lat="42.97662299999974" lon="-1.3780589999999988">
        <ele>888.609</ele>
        <time>2022-08-24T13:17:25Z</time>
      </trkpt>
      <trkpt lat="42.97661199999974" lon="-1.378084999999999">
        <ele>888.875</ele>
        <time>2022-08-24T13:17:26Z</time>
      </trkpt>
      <trkpt lat="42.97660199999974" lon="-1.378105999999999">
        <ele>889.045</ele>
        <time>2022-08-24T13:17:27Z</time>
      </trkpt>
      <trkpt lat="42.97659299999974" lon="-1.3781259999999989">
        <ele>889.245</ele>
        <time>2022-08-24T13:17:28Z</time>
      </trkpt>
      <trkpt lat="42.97658699999974" lon="-1.3781419999999989">
        <ele>889.481</ele>
        <time>2022-08-24T13:17:29Z</time>
      </trkpt>
      <trkpt lat="42.97657799999974" lon="-1.3781609999999989">
        <ele>889.623</ele>
        <time>2022-08-24T13:17:30Z</time>
      </trkpt>
      <trkpt lat="42.97656799999974" lon="-1.3781849999999989">
        <ele>889.850</ele>
        <time>2022-08-24T13:17:31Z</time>
      </trkpt>
      <trkpt lat="42.97655899999974" lon="-1.3782049999999988">
        <ele>890.063</ele>
        <time>2022-08-24T13:17:32Z</time>
      </trkpt>
      <trkpt lat="42.97655299999974" lon="-1.3782209999999988">
        <ele>890.087</ele>
        <time>2022-08-24T13:17:33Z</time>
      </trkpt>
      <trkpt lat="42.97654399999974" lon="-1.3782419999999989">
        <ele>890.226</ele>
        <time>2022-08-24T13:17:34Z</time>
      </trkpt>
      <trkpt lat="42.976536999999745" lon="-1.378264999999999">
        <ele>890.477</ele>
        <time>2022-08-24T13:17:35Z</time>
      </trkpt>
      <trkpt lat="42.97652999999975" lon="-1.378285999999999">
        <ele>890.661</ele>
        <time>2022-08-24T13:17:36Z</time>
      </trkpt>
      <trkpt lat="42.97652299999975" lon="-1.378303999999999">
        <ele>890.827</ele>
        <time>2022-08-24T13:17:37Z</time>
      </trkpt>
      <trkpt lat="42.976515999999755" lon="-1.378325999999999">
        <ele>890.809</ele>
        <time>2022-08-24T13:17:38Z</time>
      </trkpt>
      <trkpt lat="42.976506999999756" lon="-1.3783439999999991">
        <ele>891.048</ele>
        <time>2022-08-24T13:17:39Z</time>
      </trkpt>
      <trkpt lat="42.976495999999756" lon="-1.378360999999999">
        <ele>891.058</ele>
        <time>2022-08-24T13:17:40Z</time>
      </trkpt>
      <trkpt lat="42.97648599999975" lon="-1.3783789999999991">
        <ele>891.038</ele>
        <time>2022-08-24T13:17:41Z</time>
      </trkpt>
      <trkpt lat="42.976476999999754" lon="-1.3783969999999992">
        <ele>891.254</ele>
        <time>2022-08-24T13:17:42Z</time>
      </trkpt>
      <trkpt lat="42.97646699999975" lon="-1.3784149999999993">
        <ele>891.236</ele>
        <time>2022-08-24T13:17:43Z</time>
      </trkpt>
      <trkpt lat="42.97645599999975" lon="-1.3784349999999992">
        <ele>891.263</ele>
        <time>2022-08-24T13:17:44Z</time>
      </trkpt>
      <trkpt lat="42.97644799999975" lon="-1.3784539999999992">
        <ele>891.476</ele>
        <time>2022-08-24T13:17:45Z</time>
      </trkpt>
      <trkpt lat="42.97644099999975" lon="-1.3784749999999992">
        <ele>891.640</ele>
        <time>2022-08-24T13:17:46Z</time>
      </trkpt>
      <trkpt lat="42.97643299999975" lon="-1.3784969999999992">
        <ele>891.859</ele>
        <time>2022-08-24T13:17:47Z</time>
      </trkpt>
      <trkpt lat="42.97642199999975" lon="-1.3785189999999992">
        <ele>891.878</ele>
        <time>2022-08-24T13:17:48Z</time>
      </trkpt>
      <trkpt lat="42.97641599999975" lon="-1.3785339999999993">
        <ele>892.233</ele>
        <time>2022-08-24T13:17:49Z</time>
      </trkpt>
      <trkpt lat="42.97640799999975" lon="-1.3785569999999994">
        <ele>892.426</ele>
        <time>2022-08-24T13:17:50Z</time>
      </trkpt>
      <trkpt lat="42.97639999999975" lon="-1.3785799999999995">
        <ele>892.409</ele>
        <time>2022-08-24T13:17:51Z</time>
      </trkpt>
      <trkpt lat="42.97639299999975" lon="-1.3786009999999995">
        <ele>892.698</ele>
        <time>2022-08-24T13:17:52Z</time>
      </trkpt>
      <trkpt lat="42.976380999999755" lon="-1.3786229999999995">
        <ele>892.678</ele>
        <time>2022-08-24T13:17:53Z</time>
      </trkpt>
      <trkpt lat="42.976371999999756" lon="-1.3786439999999995">
        <ele>892.848</ele>
        <time>2022-08-24T13:17:54Z</time>
      </trkpt>
      <trkpt lat="42.97636199999975" lon="-1.3786639999999994">
        <ele>892.884</ele>
        <time>2022-08-24T13:17:55Z</time>
      </trkpt>
      <trkpt lat="42.97635099999975" lon="-1.3786849999999995">
        <ele>893.016</ele>
        <time>2022-08-24T13:17:56Z</time>
      </trkpt>
      <trkpt lat="42.97633999999975" lon="-1.3787059999999995">
        <ele>893.223</ele>
        <time>2022-08-24T13:17:57Z</time>
      </trkpt>
      <trkpt lat="42.97632999999975" lon="-1.3787269999999996">
        <ele>893.476</ele>
        <time>2022-08-24T13:17:58Z</time>
      </trkpt>
      <trkpt lat="42.97631899999975" lon="-1.3787459999999996">
        <ele>893.660</ele>
        <time>2022-08-24T13:17:59Z</time>
      </trkpt>
      <trkpt lat="42.97630999999975" lon="-1.3787629999999995">
        <ele>893.689</ele>
        <time>2022-08-24T13:18:00Z</time>
      </trkpt>
      <trkpt lat="42.976299999999746" lon="-1.3787809999999996">
        <ele>893.654</ele>
        <time>2022-08-24T13:18:01Z</time>
      </trkpt>
      <trkpt lat="42.976288999999745" lon="-1.3788039999999997">
        <ele>893.656</ele>
        <time>2022-08-24T13:18:02Z</time>
      </trkpt>
      <trkpt lat="42.976280999999744" lon="-1.3788169999999997">
        <ele>893.811</ele>
        <time>2022-08-24T13:18:03Z</time>
      </trkpt>
      <trkpt lat="42.97627099999974" lon="-1.3788339999999997">
        <ele>893.809</ele>
        <time>2022-08-24T13:18:04Z</time>
      </trkpt>
      <trkpt lat="42.97625999999974" lon="-1.3788499999999997">
        <ele>893.836</ele>
        <time>2022-08-24T13:18:05Z</time>
      </trkpt>
      <trkpt lat="42.97624899999974" lon="-1.3788679999999998">
        <ele>894.066</ele>
        <time>2022-08-24T13:18:06Z</time>
      </trkpt>
      <trkpt lat="42.97623699999974" lon="-1.3788819999999997">
        <ele>894.026</ele>
        <time>2022-08-24T13:18:07Z</time>
      </trkpt>
      <trkpt lat="42.976224999999744" lon="-1.3788959999999997">
        <ele>894.462</ele>
        <time>2022-08-24T13:18:08Z</time>
      </trkpt>
      <trkpt lat="42.97621199999974" lon="-1.3789109999999998">
        <ele>894.684</ele>
        <time>2022-08-24T13:18:09Z</time>
      </trkpt>
      <trkpt lat="42.97619999999974" lon="-1.3789229999999997">
        <ele>894.821</ele>
        <time>2022-08-24T13:18:10Z</time>
      </trkpt>
      <trkpt lat="42.976187999999745" lon="-1.3789359999999997">
        <ele>895.084</ele>
        <time>2022-08-24T13:18:11Z</time>
      </trkpt>
      <trkpt lat="42.976173999999745" lon="-1.3789479999999996">
        <ele>895.248</ele>
        <time>2022-08-24T13:18:12Z</time>
      </trkpt>
      <trkpt lat="42.976162999999744" lon="-1.3789579999999997">
        <ele>895.257</ele>
        <time>2022-08-24T13:18:13Z</time>
      </trkpt>
      <trkpt lat="42.97615299999974" lon="-1.3789639999999996">
        <ele>895.284</ele>
        <time>2022-08-24T13:18:14Z</time>
      </trkpt>
      <trkpt lat="42.97614299999974" lon="-1.3789729999999996">
        <ele>895.607</ele>
        <time>2022-08-24T13:18:15Z</time>
      </trkpt>
      <trkpt lat="42.976134999999736" lon="-1.3789829999999996">
        <ele>895.617</ele>
        <time>2022-08-24T13:18:16Z</time>
      </trkpt>
      <trkpt lat="42.97612799999974" lon="-1.3789949999999995">
        <ele>895.809</ele>
        <time>2022-08-24T13:18:17Z</time>
      </trkpt>
      <trkpt lat="42.97611899999974" lon="-1.3790059999999995">
        <ele>895.839</ele>
        <time>2022-08-24T13:18:18Z</time>
      </trkpt>
      <trkpt lat="42.97610999999974" lon="-1.3790149999999994">
        <ele>895.899</ele>
        <time>2022-08-24T13:18:19Z</time>
      </trkpt>
      <trkpt lat="42.97610199999974" lon="-1.3790239999999994">
        <ele>896.069</ele>
        <time>2022-08-24T13:18:20Z</time>
      </trkpt>
      <trkpt lat="42.976097999999745" lon="-1.3790289999999994">
        <ele>896.055</ele>
        <time>2022-08-24T13:18:21Z</time>
      </trkpt>
      <trkpt lat="42.976083999999744" lon="-1.3790669999999994">
        <ele>896.447</ele>
        <time>2022-08-24T13:18:32Z</time>
      </trkpt>
      <trkpt lat="42.97607899999974" lon="-1.3790779999999994">
        <ele>896.614</ele>
        <time>2022-08-24T13:18:33Z</time>
      </trkpt>
      <trkpt lat="42.97607399999974" lon="-1.3790889999999993">
        <ele>896.687</ele>
        <time>2022-08-24T13:18:34Z</time>
      </trkpt>
      <trkpt lat="42.976066999999745" lon="-1.3791049999999994">
        <ele>896.621</ele>
        <time>2022-08-24T13:18:35Z</time>
      </trkpt>
      <trkpt lat="42.97604899999975" lon="-1.3791559999999994">
        <ele>896.830</ele>
        <time>2022-08-24T13:18:38Z</time>
      </trkpt>
      <trkpt lat="42.97603399999975" lon="-1.3791979999999995">
        <ele>897.044</ele>
        <time>2022-08-24T13:18:40Z</time>
      </trkpt>
      <trkpt lat="42.97602599999975" lon="-1.3792219999999995">
        <ele>897.005</ele>
        <time>2022-08-24T13:18:41Z</time>
      </trkpt>
      <trkpt lat="42.97602099999975" lon="-1.3792479999999996">
        <ele>897.015</ele>
        <time>2022-08-24T13:18:42Z</time>
      </trkpt>
      <trkpt lat="42.97601499999975" lon="-1.3792669999999996">
        <ele>897.009</ele>
        <time>2022-08-24T13:18:43Z</time>
      </trkpt>
      <trkpt lat="42.97600699999975" lon="-1.3792879999999996">
        <ele>897.075</ele>
        <time>2022-08-24T13:18:44Z</time>
      </trkpt>
      <trkpt lat="42.975984999999746" lon="-1.3793629999999997">
        <ele>897.665</ele>
        <time>2022-08-24T13:18:47Z</time>
      </trkpt>
      <trkpt lat="42.97597899999975" lon="-1.3794079999999997">
        <ele>897.825</ele>
        <time>2022-08-24T13:18:49Z</time>
      </trkpt>
      <trkpt lat="42.97596699999975" lon="-1.3794309999999999">
        <ele>897.821</ele>
        <time>2022-08-24T13:18:50Z</time>
      </trkpt>
      <trkpt lat="42.975956999999745" lon="-1.379449">
        <ele>898.043</ele>
        <time>2022-08-24T13:18:51Z</time>
      </trkpt>
      <trkpt lat="42.975945999999745" lon="-1.379546">
        <ele>898.620</ele>
        <time>2022-08-24T13:18:55Z</time>
      </trkpt>
      <trkpt lat="42.975951999999744" lon="-1.37957">
        <ele>899.063</ele>
        <time>2022-08-24T13:18:56Z</time>
      </trkpt>
      <trkpt lat="42.97594799999975" lon="-1.3796059999999999">
        <ele>899.257</ele>
        <time>2022-08-24T13:18:57Z</time>
      </trkpt>
      <trkpt lat="42.97593799999974" lon="-1.379629">
        <ele>899.616</ele>
        <time>2022-08-24T13:18:58Z</time>
      </trkpt>
      <trkpt lat="42.97592799999974" lon="-1.379663">
        <ele>900.075</ele>
        <time>2022-08-24T13:18:59Z</time>
      </trkpt>
      <trkpt lat="42.97593899999974" lon="-1.379698">
        <ele>900.228</ele>
        <time>2022-08-24T13:19:00Z</time>
      </trkpt>
      <trkpt lat="42.97594499999974" lon="-1.3797220000000001">
        <ele>900.620</ele>
        <time>2022-08-24T13:19:01Z</time>
      </trkpt>
      <trkpt lat="42.97594799999974" lon="-1.379742">
        <ele>900.609</ele>
        <time>2022-08-24T13:19:02Z</time>
      </trkpt>
      <trkpt lat="42.97594199999974" lon="-1.3797760000000001">
        <ele>900.888</ele>
        <time>2022-08-24T13:19:03Z</time>
      </trkpt>
      <trkpt lat="42.97593299999974" lon="-1.3798130000000002">
        <ele>901.248</ele>
        <time>2022-08-24T13:19:04Z</time>
      </trkpt>
      <trkpt lat="42.97592299999974" lon="-1.3798370000000002">
        <ele>901.288</ele>
        <time>2022-08-24T13:19:05Z</time>
      </trkpt>
      <trkpt lat="42.97591899999974" lon="-1.3798650000000001">
        <ele>901.884</ele>
        <time>2022-08-24T13:19:06Z</time>
      </trkpt>
      <trkpt lat="42.975917999999744" lon="-1.3798920000000001">
        <ele>902.026</ele>
        <time>2022-08-24T13:19:07Z</time>
      </trkpt>
      <trkpt lat="42.97590199999974" lon="-1.3799160000000001">
        <ele>902.223</ele>
        <time>2022-08-24T13:19:08Z</time>
      </trkpt>
      <trkpt lat="42.975889999999744" lon="-1.3799350000000001">
        <ele>902.266</ele>
        <time>2022-08-24T13:19:09Z</time>
      </trkpt>
      <trkpt lat="42.97587399999974" lon="-1.3799560000000002">
        <ele>902.670</ele>
        <time>2022-08-24T13:19:10Z</time>
      </trkpt>
      <trkpt lat="42.975866999999745" lon="-1.3799710000000003">
        <ele>902.859</ele>
        <time>2022-08-24T13:19:11Z</time>
      </trkpt>
      <trkpt lat="42.97585699999974" lon="-1.3799730000000003">
        <ele>902.839</ele>
        <time>2022-08-24T13:19:12Z</time>
      </trkpt>
      <trkpt lat="42.97584899999974" lon="-1.3799790000000003">
        <ele>903.201</ele>
        <time>2022-08-24T13:19:13Z</time>
      </trkpt>
      <trkpt lat="42.975844999999744" lon="-1.3799890000000004">
        <ele>903.221</ele>
        <time>2022-08-24T13:19:14Z</time>
      </trkpt>
      <trkpt lat="42.97584299999974" lon="-1.3800040000000005">
        <ele>903.409</ele>
        <time>2022-08-24T13:19:15Z</time>
      </trkpt>
      <trkpt lat="42.975838999999745" lon="-1.3800270000000006">
        <ele>903.664</ele>
        <time>2022-08-24T13:19:16Z</time>
      </trkpt>
      <trkpt lat="42.97583399999974" lon="-1.3800450000000006">
        <ele>903.674</ele>
        <time>2022-08-24T13:19:17Z</time>
      </trkpt>
      <trkpt lat="42.97582699999975" lon="-1.3800570000000005">
        <ele>903.834</ele>
        <time>2022-08-24T13:19:18Z</time>
      </trkpt>
      <trkpt lat="42.97582099999975" lon="-1.3800710000000005">
        <ele>904.010</ele>
        <time>2022-08-24T13:19:19Z</time>
      </trkpt>
      <trkpt lat="42.97581799999975" lon="-1.3800880000000004">
        <ele>904.632</ele>
        <time>2022-08-24T13:19:20Z</time>
      </trkpt>
      <trkpt lat="42.97581099999975" lon="-1.3801050000000004">
        <ele>904.869</ele>
        <time>2022-08-24T13:19:21Z</time>
      </trkpt>
      <trkpt lat="42.97580599999975" lon="-1.3801200000000005">
        <ele>905.082</ele>
        <time>2022-08-24T13:19:22Z</time>
      </trkpt>
      <trkpt lat="42.97580099999975" lon="-1.3801330000000005">
        <ele>905.086</ele>
        <time>2022-08-24T13:19:23Z</time>
      </trkpt>
      <trkpt lat="42.97579299999975" lon="-1.3801470000000005">
        <ele>905.215</ele>
        <time>2022-08-24T13:19:24Z</time>
      </trkpt>
      <trkpt lat="42.975784999999746" lon="-1.3801630000000005">
        <ele>905.438</ele>
        <time>2022-08-24T13:19:25Z</time>
      </trkpt>
      <trkpt lat="42.97578199999975" lon="-1.3801690000000004">
        <ele>905.470</ele>
        <time>2022-08-24T13:19:26Z</time>
      </trkpt>
      <trkpt lat="42.975779999999745" lon="-1.3801720000000004">
        <ele>905.617</ele>
        <time>2022-08-24T13:19:27Z</time>
      </trkpt>
      <trkpt lat="42.97577499999974" lon="-1.3801820000000005">
        <ele>905.609</ele>
        <time>2022-08-24T13:19:28Z</time>
      </trkpt>
      <trkpt lat="42.975768999999744" lon="-1.3801980000000005">
        <ele>905.884</ele>
        <time>2022-08-24T13:19:29Z</time>
      </trkpt>
      <trkpt lat="42.975765999999744" lon="-1.3802190000000005">
        <ele>906.014</ele>
        <time>2022-08-24T13:19:30Z</time>
      </trkpt>
      <trkpt lat="42.97576199999975" lon="-1.3802350000000005">
        <ele>906.084</ele>
        <time>2022-08-24T13:19:31Z</time>
      </trkpt>
      <trkpt lat="42.97575499999975" lon="-1.3802540000000005">
        <ele>906.250</ele>
        <time>2022-08-24T13:19:32Z</time>
      </trkpt>
      <trkpt lat="42.97574699999975" lon="-1.3802690000000006">
        <ele>906.212</ele>
        <time>2022-08-24T13:19:33Z</time>
      </trkpt>
      <trkpt lat="42.97573899999975" lon="-1.3802840000000007">
        <ele>906.449</ele>
        <time>2022-08-24T13:19:34Z</time>
      </trkpt>
      <trkpt lat="42.97573699999975" lon="-1.3803000000000007">
        <ele>906.662</ele>
        <time>2022-08-24T13:19:35Z</time>
      </trkpt>
      <trkpt lat="42.97573699999975" lon="-1.3803160000000008">
        <ele>906.636</ele>
        <time>2022-08-24T13:19:36Z</time>
      </trkpt>
      <trkpt lat="42.97573399999975" lon="-1.3803260000000008">
        <ele>906.835</ele>
        <time>2022-08-24T13:19:37Z</time>
      </trkpt>
      <trkpt lat="42.975723999999744" lon="-1.380341000000001">
        <ele>906.881</ele>
        <time>2022-08-24T13:19:38Z</time>
      </trkpt>
      <trkpt lat="42.975717999999745" lon="-1.380357000000001">
        <ele>907.261</ele>
        <time>2022-08-24T13:19:39Z</time>
      </trkpt>
      <trkpt lat="42.97571099999975" lon="-1.380368000000001">
        <ele>907.417</ele>
        <time>2022-08-24T13:19:40Z</time>
      </trkpt>
      <trkpt lat="42.975700999999745" lon="-1.3803800000000008">
        <ele>907.609</ele>
        <time>2022-08-24T13:19:41Z</time>
      </trkpt>
      <trkpt lat="42.975694999999746" lon="-1.380395000000001">
        <ele>907.849</ele>
        <time>2022-08-24T13:19:42Z</time>
      </trkpt>
      <trkpt lat="42.97569599999974" lon="-1.380405000000001">
        <ele>907.839</ele>
        <time>2022-08-24T13:19:43Z</time>
      </trkpt>
      <trkpt lat="42.97569399999974" lon="-1.380417000000001">
        <ele>908.059</ele>
        <time>2022-08-24T13:19:44Z</time>
      </trkpt>
      <trkpt lat="42.975692999999744" lon="-1.380433000000001">
        <ele>908.075</ele>
        <time>2022-08-24T13:19:45Z</time>
      </trkpt>
      <trkpt lat="42.97568799999974" lon="-1.3804500000000008">
        <ele>908.297</ele>
        <time>2022-08-24T13:19:46Z</time>
      </trkpt>
      <trkpt lat="42.97568599999974" lon="-1.3804690000000008">
        <ele>908.674</ele>
        <time>2022-08-24T13:19:47Z</time>
      </trkpt>
      <trkpt lat="42.97568299999974" lon="-1.3804820000000009">
        <ele>908.877</ele>
        <time>2022-08-24T13:19:48Z</time>
      </trkpt>
      <trkpt lat="42.97567499999974" lon="-1.380492000000001">
        <ele>908.841</ele>
        <time>2022-08-24T13:19:49Z</time>
      </trkpt>
      <trkpt lat="42.97566799999974" lon="-1.380503000000001">
        <ele>909.040</ele>
        <time>2022-08-24T13:19:50Z</time>
      </trkpt>
      <trkpt lat="42.975663999999746" lon="-1.380514000000001">
        <ele>909.264</ele>
        <time>2022-08-24T13:19:51Z</time>
      </trkpt>
      <trkpt lat="42.97565999999975" lon="-1.380522000000001">
        <ele>909.206</ele>
        <time>2022-08-24T13:19:52Z</time>
      </trkpt>
      <trkpt lat="42.97565499999975" lon="-1.3805360000000009">
        <ele>909.416</ele>
        <time>2022-08-24T13:19:53Z</time>
      </trkpt>
      <trkpt lat="42.97565199999975" lon="-1.3805640000000008">
        <ele>909.609</ele>
        <time>2022-08-24T13:19:54Z</time>
      </trkpt>
      <trkpt lat="42.975649999999746" lon="-1.380587000000001">
        <ele>909.687</ele>
        <time>2022-08-24T13:19:55Z</time>
      </trkpt>
      <trkpt lat="42.975646999999746" lon="-1.380592000000001">
        <ele>909.847</ele>
        <time>2022-08-24T13:19:56Z</time>
      </trkpt>
      <trkpt lat="42.975655999999745" lon="-1.3806060000000009">
        <ele>910.017</ele>
        <time>2022-08-24T13:19:57Z</time>
      </trkpt>
      <trkpt lat="42.975661999999744" lon="-1.380621000000001">
        <ele>910.243</ele>
        <time>2022-08-24T13:19:58Z</time>
      </trkpt>
      <trkpt lat="42.97565799999975" lon="-1.3806330000000009">
        <ele>910.265</ele>
        <time>2022-08-24T13:19:59Z</time>
      </trkpt>
      <trkpt lat="42.97565499999975" lon="-1.3806500000000008">
        <ele>910.472</ele>
        <time>2022-08-24T13:20:00Z</time>
      </trkpt>
      <trkpt lat="42.975652999999745" lon="-1.3806540000000007">
        <ele>910.675</ele>
        <time>2022-08-24T13:20:01Z</time>
      </trkpt>
      <trkpt lat="42.975652999999745" lon="-1.3806540000000007">
        <ele>910.619</ele>
        <time>2022-08-24T13:20:02Z</time>
      </trkpt>
      <trkpt lat="42.975652999999745" lon="-1.3806540000000007">
        <ele>910.838</ele>
        <time>2022-08-24T13:20:03Z</time>
      </trkpt>
      <trkpt lat="42.975669999999745" lon="-1.3806790000000007">
        <ele>911.094</ele>
        <time>2022-08-24T13:20:04Z</time>
      </trkpt>
      <trkpt lat="42.97566499999974" lon="-1.3806980000000006">
        <ele>911.257</ele>
        <time>2022-08-24T13:20:05Z</time>
      </trkpt>
      <trkpt lat="42.97566299999974" lon="-1.3807020000000005">
        <ele>911.622</ele>
        <time>2022-08-24T13:20:06Z</time>
      </trkpt>
      <trkpt lat="42.97566299999974" lon="-1.3807020000000005">
        <ele>911.809</ele>
        <time>2022-08-24T13:20:07Z</time>
      </trkpt>
      <trkpt lat="42.97567799999974" lon="-1.3807420000000006">
        <ele>912.050</ele>
        <time>2022-08-24T13:20:08Z</time>
      </trkpt>
      <trkpt lat="42.97568299999974" lon="-1.3807680000000007">
        <ele>912.040</ele>
        <time>2022-08-24T13:20:09Z</time>
      </trkpt>
      <trkpt lat="42.97567399999974" lon="-1.3807900000000006">
        <ele>912.470</ele>
        <time>2022-08-24T13:20:10Z</time>
      </trkpt>
      <trkpt lat="42.97566899999974" lon="-1.3808210000000005">
        <ele>912.436</ele>
        <time>2022-08-24T13:20:11Z</time>
      </trkpt>
      <trkpt lat="42.97566799999974" lon="-1.3808260000000006">
        <ele>912.648</ele>
        <time>2022-08-24T13:20:12Z</time>
      </trkpt>
      <trkpt lat="42.97565699999974" lon="-1.3808470000000006">
        <ele>912.895</ele>
        <time>2022-08-24T13:20:13Z</time>
      </trkpt>
      <trkpt lat="42.97565399999974" lon="-1.3808710000000006">
        <ele>912.878</ele>
        <time>2022-08-24T13:20:14Z</time>
      </trkpt>
      <trkpt lat="42.97564599999974" lon="-1.3808870000000006">
        <ele>913.022</ele>
        <time>2022-08-24T13:20:15Z</time>
      </trkpt>
      <trkpt lat="42.97564399999974" lon="-1.3808910000000005">
        <ele>913.431</ele>
        <time>2022-08-24T13:20:16Z</time>
      </trkpt>
      <trkpt lat="42.97563099999974" lon="-1.3809070000000006">
        <ele>913.657</ele>
        <time>2022-08-24T13:20:17Z</time>
      </trkpt>
      <trkpt lat="42.97562999999974" lon="-1.3809120000000006">
        <ele>913.800</ele>
        <time>2022-08-24T13:20:18Z</time>
      </trkpt>
      <trkpt lat="42.97563799999974" lon="-1.3809340000000005">
        <ele>913.820</ele>
        <time>2022-08-24T13:20:19Z</time>
      </trkpt>
      <trkpt lat="42.97563999999974" lon="-1.3809390000000006">
        <ele>914.009</ele>
        <time>2022-08-24T13:20:20Z</time>
      </trkpt>
      <trkpt lat="42.97564399999974" lon="-1.3809520000000006">
        <ele>914.226</ele>
        <time>2022-08-24T13:20:21Z</time>
      </trkpt>
      <trkpt lat="42.97564299999974" lon="-1.3809720000000005">
        <ele>914.626</ele>
        <time>2022-08-24T13:20:22Z</time>
      </trkpt>
      <trkpt lat="42.97564299999974" lon="-1.3809760000000004">
        <ele>914.896</ele>
        <time>2022-08-24T13:20:23Z</time>
      </trkpt>
      <trkpt lat="42.97564399999974" lon="-1.3810140000000004">
        <ele>915.092</ele>
        <time>2022-08-24T13:20:24Z</time>
      </trkpt>
      <trkpt lat="42.97563899999974" lon="-1.3810350000000005">
        <ele>915.224</ele>
        <time>2022-08-24T13:20:25Z</time>
      </trkpt>
      <trkpt lat="42.97563299999974" lon="-1.3810580000000006">
        <ele>915.411</ele>
        <time>2022-08-24T13:20:26Z</time>
      </trkpt>
      <trkpt lat="42.975636999999736" lon="-1.3810800000000005">
        <ele>915.674</ele>
        <time>2022-08-24T13:20:27Z</time>
      </trkpt>
      <trkpt lat="42.97563799999973" lon="-1.3810840000000004">
        <ele>915.688</ele>
        <time>2022-08-24T13:20:28Z</time>
      </trkpt>
      <trkpt lat="42.97563799999973" lon="-1.3810840000000004">
        <ele>915.867</ele>
        <time>2022-08-24T13:20:29Z</time>
      </trkpt>
      <trkpt lat="42.97563799999973" lon="-1.3810840000000004">
        <ele>916.067</ele>
        <time>2022-08-24T13:20:30Z</time>
      </trkpt>
      <trkpt lat="42.97563799999973" lon="-1.3810840000000004">
        <ele>916.081</ele>
        <time>2022-08-24T13:20:31Z</time>
      </trkpt>
      <trkpt lat="42.97563799999973" lon="-1.3810840000000004">
        <ele>916.219</ele>
        <time>2022-08-24T13:20:32Z</time>
      </trkpt>
      <trkpt lat="42.97563799999973" lon="-1.3810840000000004">
        <ele>916.209</ele>
        <time>2022-08-24T13:20:33Z</time>
      </trkpt>
      <trkpt lat="42.97563799999973" lon="-1.3810840000000004">
        <ele>916.467</ele>
        <time>2022-08-24T13:20:34Z</time>
      </trkpt>
      <trkpt lat="42.975628999999735" lon="-1.3810950000000004">
        <ele>916.697</ele>
        <time>2022-08-24T13:20:35Z</time>
      </trkpt>
      <trkpt lat="42.975622999999736" lon="-1.3811220000000004">
        <ele>916.877</ele>
        <time>2022-08-24T13:20:36Z</time>
      </trkpt>
      <trkpt lat="42.97562199999974" lon="-1.3811270000000004">
        <ele>917.253</ele>
        <time>2022-08-24T13:20:37Z</time>
      </trkpt>
      <trkpt lat="42.97562199999974" lon="-1.3811270000000004">
        <ele>917.465</ele>
        <time>2022-08-24T13:20:38Z</time>
      </trkpt>
      <trkpt lat="42.97562199999974" lon="-1.3811300000000004">
        <ele>917.652</ele>
        <time>2022-08-24T13:20:39Z</time>
      </trkpt>
      <trkpt lat="42.97562399999974" lon="-1.3811330000000004">
        <ele>917.645</ele>
        <time>2022-08-24T13:20:40Z</time>
      </trkpt>
      <trkpt lat="42.97562399999974" lon="-1.3811330000000004">
        <ele>917.889</ele>
        <time>2022-08-24T13:20:41Z</time>
      </trkpt>
      <trkpt lat="42.97562399999974" lon="-1.3811330000000004">
        <ele>918.088</ele>
        <time>2022-08-24T13:20:42Z</time>
      </trkpt>
      <trkpt lat="42.97562399999974" lon="-1.3811330000000004">
        <ele>918.243</ele>
        <time>2022-08-24T13:20:43Z</time>
      </trkpt>
      <trkpt lat="42.97562399999974" lon="-1.3811330000000004">
        <ele>918.264</ele>
        <time>2022-08-24T13:20:44Z</time>
      </trkpt>
      <trkpt lat="42.97562399999974" lon="-1.3811330000000004">
        <ele>918.410</ele>
        <time>2022-08-24T13:20:45Z</time>
      </trkpt>
      <trkpt lat="42.97562299999974" lon="-1.3811360000000004">
        <ele>918.409</ele>
        <time>2022-08-24T13:20:46Z</time>
      </trkpt>
      <trkpt lat="42.97562299999974" lon="-1.3811360000000004">
        <ele>918.435</ele>
        <time>2022-08-24T13:20:47Z</time>
      </trkpt>
      <trkpt lat="42.97562299999974" lon="-1.3811360000000004">
        <ele>918.675</ele>
        <time>2022-08-24T13:20:48Z</time>
      </trkpt>
      <trkpt lat="42.97562299999974" lon="-1.3811360000000004">
        <ele>918.825</ele>
        <time>2022-08-24T13:20:49Z</time>
      </trkpt>
      <trkpt lat="42.97562299999974" lon="-1.3811360000000004">
        <ele>919.091</ele>
        <time>2022-08-24T13:20:50Z</time>
      </trkpt>
      <trkpt lat="42.97562299999974" lon="-1.3811360000000004">
        <ele>919.283</ele>
        <time>2022-08-24T13:20:51Z</time>
      </trkpt>
      <trkpt lat="42.97562299999974" lon="-1.3811360000000004">
        <ele>919.440</ele>
        <time>2022-08-24T13:20:52Z</time>
      </trkpt>
      <trkpt lat="42.97562299999974" lon="-1.3811360000000004">
        <ele>919.653</ele>
        <time>2022-08-24T13:20:53Z</time>
      </trkpt>
      <trkpt lat="42.97562299999974" lon="-1.3811360000000004">
        <ele>919.837</ele>
        <time>2022-08-24T13:20:54Z</time>
      </trkpt>
      <trkpt lat="42.97562299999974" lon="-1.3811360000000004">
        <ele>920.026</ele>
        <time>2022-08-24T13:20:55Z</time>
      </trkpt>
      <trkpt lat="42.97562299999974" lon="-1.3811360000000004">
        <ele>920.225</ele>
        <time>2022-08-24T13:20:56Z</time>
      </trkpt>
      <trkpt lat="42.975621999999746" lon="-1.3811360000000004">
        <ele>920.426</ele>
        <time>2022-08-24T13:20:57Z</time>
      </trkpt>
      <trkpt lat="42.975621999999746" lon="-1.3811360000000004">
        <ele>920.608</ele>
        <time>2022-08-24T13:20:58Z</time>
      </trkpt>
      <trkpt lat="42.97561999999974" lon="-1.3811410000000004">
        <ele>920.809</ele>
        <time>2022-08-24T13:20:59Z</time>
      </trkpt>
      <trkpt lat="42.975616999999744" lon="-1.3811520000000004">
        <ele>921.283</ele>
        <time>2022-08-24T13:21:00Z</time>
      </trkpt>
      <trkpt lat="42.975613999999744" lon="-1.3811600000000004">
        <ele>921.423</ele>
        <time>2022-08-24T13:21:01Z</time>
      </trkpt>
      <trkpt lat="42.97560599999974" lon="-1.3811920000000004">
        <ele>921.483</ele>
        <time>2022-08-24T13:21:02Z</time>
      </trkpt>
      <trkpt lat="42.975599999999744" lon="-1.3812220000000004">
        <ele>921.629</ele>
        <time>2022-08-24T13:21:03Z</time>
      </trkpt>
      <trkpt lat="42.97559599999975" lon="-1.3812560000000005">
        <ele>921.671</ele>
        <time>2022-08-24T13:21:04Z</time>
      </trkpt>
      <trkpt lat="42.97558899999975" lon="-1.3812910000000005">
        <ele>922.088</ele>
        <time>2022-08-24T13:21:05Z</time>
      </trkpt>
      <trkpt lat="42.975584999999754" lon="-1.3813030000000004">
        <ele>922.091</ele>
        <time>2022-08-24T13:21:06Z</time>
      </trkpt>
      <trkpt lat="42.97558299999975" lon="-1.3813110000000004">
        <ele>922.275</ele>
        <time>2022-08-24T13:21:07Z</time>
      </trkpt>
      <trkpt lat="42.975578999999755" lon="-1.3813390000000003">
        <ele>922.434</ele>
        <time>2022-08-24T13:21:08Z</time>
      </trkpt>
      <trkpt lat="42.97557699999975" lon="-1.3813510000000002">
        <ele>922.642</ele>
        <time>2022-08-24T13:21:09Z</time>
      </trkpt>
      <trkpt lat="42.975569999999756" lon="-1.3813900000000001">
        <ele>922.822</ele>
        <time>2022-08-24T13:21:10Z</time>
      </trkpt>
      <trkpt lat="42.97557099999975" lon="-1.3814140000000001">
        <ele>922.814</ele>
        <time>2022-08-24T13:21:11Z</time>
      </trkpt>
      <trkpt lat="42.975572999999756" lon="-1.3814410000000001">
        <ele>923.209</ele>
        <time>2022-08-24T13:21:12Z</time>
      </trkpt>
      <trkpt lat="42.975575999999755" lon="-1.381466">
        <ele>923.215</ele>
        <time>2022-08-24T13:21:13Z</time>
      </trkpt>
      <trkpt lat="42.97557699999975" lon="-1.3814710000000001">
        <ele>923.615</ele>
        <time>2022-08-24T13:21:14Z</time>
      </trkpt>
      <trkpt lat="42.975575999999755" lon="-1.3814840000000002">
        <ele>923.855</ele>
        <time>2022-08-24T13:21:15Z</time>
      </trkpt>
      <trkpt lat="42.975572999999756" lon="-1.3815130000000002">
        <ele>924.221</ele>
        <time>2022-08-24T13:21:16Z</time>
      </trkpt>
      <trkpt lat="42.975578999999755" lon="-1.3815350000000002">
        <ele>924.423</ele>
        <time>2022-08-24T13:21:17Z</time>
      </trkpt>
      <trkpt lat="42.97557999999975" lon="-1.3815670000000002">
        <ele>924.680</ele>
        <time>2022-08-24T13:21:18Z</time>
      </trkpt>
      <trkpt lat="42.97558299999975" lon="-1.3815810000000002">
        <ele>924.883</ele>
        <time>2022-08-24T13:21:19Z</time>
      </trkpt>
      <trkpt lat="42.97558899999975" lon="-1.3815840000000001">
        <ele>924.867</ele>
        <time>2022-08-24T13:21:20Z</time>
      </trkpt>
      <trkpt lat="42.975598999999754" lon="-1.381593">
        <ele>925.036</ele>
        <time>2022-08-24T13:21:21Z</time>
      </trkpt>
      <trkpt lat="42.97560899999976" lon="-1.381609">
        <ele>925.067</ele>
        <time>2022-08-24T13:21:22Z</time>
      </trkpt>
      <trkpt lat="42.975617999999756" lon="-1.381628">
        <ele>925.081</ele>
        <time>2022-08-24T13:21:23Z</time>
      </trkpt>
      <trkpt lat="42.97562599999976" lon="-1.3816300000000001">
        <ele>925.219</ele>
        <time>2022-08-24T13:21:24Z</time>
      </trkpt>
      <trkpt lat="42.97562799999976" lon="-1.3816270000000002">
        <ele>925.209</ele>
        <time>2022-08-24T13:21:25Z</time>
      </trkpt>
      <trkpt lat="42.97564299999976" lon="-1.381636">
        <ele>925.247</ele>
        <time>2022-08-24T13:21:26Z</time>
      </trkpt>
      <trkpt lat="42.97564799999976" lon="-1.381636">
        <ele>925.217</ele>
        <time>2022-08-24T13:21:27Z</time>
      </trkpt>
      <trkpt lat="42.97566199999976" lon="-1.3816490000000001">
        <ele>925.457</ele>
        <time>2022-08-24T13:21:28Z</time>
      </trkpt>
      <trkpt lat="42.975693999999756" lon="-1.38166">
        <ele>925.423</ele>
        <time>2022-08-24T13:21:29Z</time>
      </trkpt>
      <trkpt lat="42.975730999999755" lon="-1.381672">
        <ele>925.465</ele>
        <time>2022-08-24T13:21:30Z</time>
      </trkpt>
      <trkpt lat="42.97575699999975" lon="-1.381675">
        <ele>925.682</ele>
        <time>2022-08-24T13:21:31Z</time>
      </trkpt>
      <trkpt lat="42.975781999999754" lon="-1.381677">
        <ele>925.655</ele>
        <time>2022-08-24T13:21:32Z</time>
      </trkpt>
      <trkpt lat="42.97580299999975" lon="-1.381679">
        <ele>925.669</ele>
        <time>2022-08-24T13:21:33Z</time>
      </trkpt>
      <trkpt lat="42.975826999999754" lon="-1.381696">
        <ele>925.838</ele>
        <time>2022-08-24T13:21:34Z</time>
      </trkpt>
      <trkpt lat="42.97584999999975" lon="-1.381706">
        <ele>925.846</ele>
        <time>2022-08-24T13:21:35Z</time>
      </trkpt>
      <trkpt lat="42.97585399999975" lon="-1.381709">
        <ele>925.888</ele>
        <time>2022-08-24T13:21:36Z</time>
      </trkpt>
      <trkpt lat="42.97586999999975" lon="-1.381725">
        <ele>925.816</ele>
        <time>2022-08-24T13:21:37Z</time>
      </trkpt>
      <trkpt lat="42.97589799999975" lon="-1.381733">
        <ele>925.609</ele>
        <time>2022-08-24T13:21:38Z</time>
      </trkpt>
      <trkpt lat="42.975924999999755" lon="-1.381747">
        <ele>925.665</ele>
        <time>2022-08-24T13:21:39Z</time>
      </trkpt>
      <trkpt lat="42.975963999999756" lon="-1.381769">
        <ele>925.865</ele>
        <time>2022-08-24T13:21:40Z</time>
      </trkpt>
      <trkpt lat="42.97600499999976" lon="-1.3817920000000001">
        <ele>925.685</ele>
        <time>2022-08-24T13:21:41Z</time>
      </trkpt>
      <trkpt lat="42.97603899999976" lon="-1.3818100000000002">
        <ele>925.611</ele>
        <time>2022-08-24T13:21:42Z</time>
      </trkpt>
      <trkpt lat="42.97612799999976" lon="-1.381822">
        <ele>925.453</ele>
        <time>2022-08-24T13:21:45Z</time>
      </trkpt>
      <trkpt lat="42.97618099999976" lon="-1.381847">
        <ele>925.440</ele>
        <time>2022-08-24T13:21:47Z</time>
      </trkpt>
      <trkpt lat="42.976193999999765" lon="-1.381848">
        <ele>925.443</ele>
        <time>2022-08-24T13:21:48Z</time>
      </trkpt>
      <trkpt lat="42.976210999999765" lon="-1.381815">
        <ele>925.477</ele>
        <time>2022-08-24T13:21:49Z</time>
      </trkpt>
      <trkpt lat="42.976255999999765" lon="-1.381824">
        <ele>925.476</ele>
        <time>2022-08-24T13:21:50Z</time>
      </trkpt>
      <trkpt lat="42.976317999999765" lon="-1.381858">
        <ele>925.445</ele>
        <time>2022-08-24T13:21:51Z</time>
      </trkpt>
      <trkpt lat="42.97634999999976" lon="-1.3818810000000001">
        <ele>925.247</ele>
        <time>2022-08-24T13:21:52Z</time>
      </trkpt>
      <trkpt lat="42.976365999999764" lon="-1.3818940000000002">
        <ele>925.211</ele>
        <time>2022-08-24T13:21:53Z</time>
      </trkpt>
      <trkpt lat="42.97638399999976" lon="-1.3819100000000002">
        <ele>925.209</ele>
        <time>2022-08-24T13:21:54Z</time>
      </trkpt>
      <trkpt lat="42.97638699999976" lon="-1.3819090000000003">
        <ele>925.225</ele>
        <time>2022-08-24T13:21:55Z</time>
      </trkpt>
      <trkpt lat="42.97639199999976" lon="-1.3819210000000002">
        <ele>924.835</ele>
        <time>2022-08-24T13:22:49Z</time>
      </trkpt>
      <trkpt lat="42.976393999999765" lon="-1.381925">
        <ele>924.835</ele>
        <time>2022-08-24T13:22:51Z</time>
      </trkpt>
      <trkpt lat="42.976424999999765" lon="-1.381955">
        <ele>924.881</ele>
        <time>2022-08-24T13:22:53Z</time>
      </trkpt>
      <trkpt lat="42.976446999999766" lon="-1.3819730000000001">
        <ele>924.653</ele>
        <time>2022-08-24T13:22:55Z</time>
      </trkpt>
      <trkpt lat="42.97645199999977" lon="-1.381976">
        <ele>924.620</ele>
        <time>2022-08-24T13:22:56Z</time>
      </trkpt>
      <trkpt lat="42.976460999999766" lon="-1.38198">
        <ele>924.693</ele>
        <time>2022-08-24T13:22:57Z</time>
      </trkpt>
      <trkpt lat="42.97647399999977" lon="-1.381982">
        <ele>924.677</ele>
        <time>2022-08-24T13:22:58Z</time>
      </trkpt>
      <trkpt lat="42.976488999999766" lon="-1.381988">
        <ele>924.626</ele>
        <time>2022-08-24T13:22:59Z</time>
      </trkpt>
      <trkpt lat="42.976494999999765" lon="-1.381994">
        <ele>924.856</ele>
        <time>2022-08-24T13:23:00Z</time>
      </trkpt>
      <trkpt lat="42.976494999999765" lon="-1.381994">
        <ele>924.859</ele>
        <time>2022-08-24T13:23:01Z</time>
      </trkpt>
      <trkpt lat="42.97653599999977" lon="-1.382012">
        <ele>925.214</ele>
        <time>2022-08-24T13:23:04Z</time>
      </trkpt>
      <trkpt lat="42.976564999999766" lon="-1.38203">
        <ele>925.409</ele>
        <time>2022-08-24T13:23:06Z</time>
      </trkpt>
      <trkpt lat="42.976573999999765" lon="-1.382033">
        <ele>925.656</ele>
        <time>2022-08-24T13:23:07Z</time>
      </trkpt>
      <trkpt lat="42.976587999999765" lon="-1.382037">
        <ele>925.876</ele>
        <time>2022-08-24T13:23:08Z</time>
      </trkpt>
      <trkpt lat="42.97661199999977" lon="-1.38205">
        <ele>926.026</ele>
        <time>2022-08-24T13:23:09Z</time>
      </trkpt>
      <trkpt lat="42.97663099999977" lon="-1.382062">
        <ele>926.252</ele>
        <time>2022-08-24T13:23:10Z</time>
      </trkpt>
      <trkpt lat="42.97663499999977" lon="-1.3820649999999999">
        <ele>926.424</ele>
        <time>2022-08-24T13:23:11Z</time>
      </trkpt>
      <trkpt lat="42.97664499999977" lon="-1.3820729999999999">
        <ele>926.831</ele>
        <time>2022-08-24T13:23:12Z</time>
      </trkpt>
      <trkpt lat="42.97665899999977" lon="-1.382081">
        <ele>927.074</ele>
        <time>2022-08-24T13:23:13Z</time>
      </trkpt>
      <trkpt lat="42.97667499999977" lon="-1.382088">
        <ele>927.258</ele>
        <time>2022-08-24T13:23:14Z</time>
      </trkpt>
      <trkpt lat="42.97673499999977" lon="-1.382125">
        <ele>927.677</ele>
        <time>2022-08-24T13:23:17Z</time>
      </trkpt>
      <trkpt lat="42.97675099999977" lon="-1.3821320000000001">
        <ele>928.082</ele>
        <time>2022-08-24T13:23:18Z</time>
      </trkpt>
      <trkpt lat="42.97677099999977" lon="-1.382149">
        <ele>928.243</ele>
        <time>2022-08-24T13:23:19Z</time>
      </trkpt>
      <trkpt lat="42.976775999999774" lon="-1.382154">
        <ele>928.217</ele>
        <time>2022-08-24T13:23:20Z</time>
      </trkpt>
      <trkpt lat="42.97677899999977" lon="-1.382155">
        <ele>928.409</ele>
        <time>2022-08-24T13:23:21Z</time>
      </trkpt>
      <trkpt lat="42.976789999999774" lon="-1.382164">
        <ele>928.679</ele>
        <time>2022-08-24T13:23:22Z</time>
      </trkpt>
      <trkpt lat="42.97679699999977" lon="-1.382174">
        <ele>928.819</ele>
        <time>2022-08-24T13:23:23Z</time>
      </trkpt>
      <trkpt lat="42.97681999999977" lon="-1.382191">
        <ele>929.069</ele>
        <time>2022-08-24T13:23:24Z</time>
      </trkpt>
      <trkpt lat="42.97683199999977" lon="-1.382199">
        <ele>929.085</ele>
        <time>2022-08-24T13:23:25Z</time>
      </trkpt>
      <trkpt lat="42.976843999999765" lon="-1.3821999999999999">
        <ele>929.217</ele>
        <time>2022-08-24T13:23:26Z</time>
      </trkpt>
      <trkpt lat="42.976852999999764" lon="-1.382197">
        <ele>929.484</ele>
        <time>2022-08-24T13:23:27Z</time>
      </trkpt>
      <trkpt lat="42.97686299999977" lon="-1.382204">
        <ele>929.687</ele>
        <time>2022-08-24T13:23:28Z</time>
      </trkpt>
      <trkpt lat="42.976869999999764" lon="-1.3822079999999999">
        <ele>929.641</ele>
        <time>2022-08-24T13:23:29Z</time>
      </trkpt>
      <trkpt lat="42.976911999999764" lon="-1.382245">
        <ele>929.850</ele>
        <time>2022-08-24T13:23:30Z</time>
      </trkpt>
      <trkpt lat="42.97693199999976" lon="-1.382266">
        <ele>930.043</ele>
        <time>2022-08-24T13:23:31Z</time>
      </trkpt>
      <trkpt lat="42.97694899999976" lon="-1.382277">
        <ele>930.264</ele>
        <time>2022-08-24T13:23:32Z</time>
      </trkpt>
      <trkpt lat="42.976964999999765" lon="-1.382292">
        <ele>930.410</ele>
        <time>2022-08-24T13:23:33Z</time>
      </trkpt>
      <trkpt lat="42.97697699999976" lon="-1.382306">
        <ele>930.409</ele>
        <time>2022-08-24T13:23:34Z</time>
      </trkpt>
      <trkpt lat="42.976989999999766" lon="-1.382322">
        <ele>930.675</ele>
        <time>2022-08-24T13:23:35Z</time>
      </trkpt>
      <trkpt lat="42.977003999999766" lon="-1.382342">
        <ele>930.885</ele>
        <time>2022-08-24T13:23:36Z</time>
      </trkpt>
      <trkpt lat="42.97701699999977" lon="-1.382361">
        <ele>931.075</ele>
        <time>2022-08-24T13:23:37Z</time>
      </trkpt>
      <trkpt lat="42.97702799999977" lon="-1.382379">
        <ele>931.041</ele>
        <time>2022-08-24T13:23:38Z</time>
      </trkpt>
      <trkpt lat="42.97704299999977" lon="-1.382403">
        <ele>931.053</ele>
        <time>2022-08-24T13:23:39Z</time>
      </trkpt>
      <trkpt lat="42.977057999999765" lon="-1.3824260000000002">
        <ele>931.070</ele>
        <time>2022-08-24T13:23:40Z</time>
      </trkpt>
      <trkpt lat="42.977074999999765" lon="-1.3824490000000003">
        <ele>931.063</ele>
        <time>2022-08-24T13:23:41Z</time>
      </trkpt>
      <trkpt lat="42.977096999999766" lon="-1.3824760000000003">
        <ele>931.277</ele>
        <time>2022-08-24T13:23:42Z</time>
      </trkpt>
      <trkpt lat="42.977113999999766" lon="-1.3825000000000003">
        <ele>931.226</ele>
        <time>2022-08-24T13:23:43Z</time>
      </trkpt>
      <trkpt lat="42.97713499999976" lon="-1.3825280000000002">
        <ele>931.238</ele>
        <time>2022-08-24T13:23:44Z</time>
      </trkpt>
      <trkpt lat="42.97715799999976" lon="-1.3825530000000001">
        <ele>931.270</ele>
        <time>2022-08-24T13:23:45Z</time>
      </trkpt>
      <trkpt lat="42.97717999999976" lon="-1.3825760000000002">
        <ele>931.217</ele>
        <time>2022-08-24T13:23:46Z</time>
      </trkpt>
      <trkpt lat="42.97720299999976" lon="-1.3826010000000002">
        <ele>931.209</ele>
        <time>2022-08-24T13:23:47Z</time>
      </trkpt>
      <trkpt lat="42.97722399999976" lon="-1.3826300000000002">
        <ele>931.464</ele>
        <time>2022-08-24T13:23:48Z</time>
      </trkpt>
      <trkpt lat="42.97724699999976" lon="-1.3826600000000002">
        <ele>931.424</ele>
        <time>2022-08-24T13:23:49Z</time>
      </trkpt>
      <trkpt lat="42.977267999999754" lon="-1.3826900000000002">
        <ele>931.444</ele>
        <time>2022-08-24T13:23:50Z</time>
      </trkpt>
      <trkpt lat="42.977286999999755" lon="-1.3827190000000003">
        <ele>931.480</ele>
        <time>2022-08-24T13:23:51Z</time>
      </trkpt>
      <trkpt lat="42.97730899999976" lon="-1.3827530000000003">
        <ele>931.632</ele>
        <time>2022-08-24T13:23:52Z</time>
      </trkpt>
      <trkpt lat="42.977331999999755" lon="-1.3827890000000003">
        <ele>931.649</ele>
        <time>2022-08-24T13:23:53Z</time>
      </trkpt>
      <trkpt lat="42.977399999999754" lon="-1.3828890000000003">
        <ele>931.462</ele>
        <time>2022-08-24T13:23:56Z</time>
      </trkpt>
      <trkpt lat="42.97746599999975" lon="-1.3829740000000001">
        <ele>931.456</ele>
        <time>2022-08-24T13:23:59Z</time>
      </trkpt>
      <trkpt lat="42.97747999999975" lon="-1.3829950000000002">
        <ele>931.065</ele>
        <time>2022-08-24T13:24:00Z</time>
      </trkpt>
      <trkpt lat="42.97749699999975" lon="-1.3830190000000002">
        <ele>931.094</ele>
        <time>2022-08-24T13:24:01Z</time>
      </trkpt>
      <trkpt lat="42.97751399999975" lon="-1.3830430000000002">
        <ele>931.057</ele>
        <time>2022-08-24T13:24:02Z</time>
      </trkpt>
      <trkpt lat="42.97752999999975" lon="-1.3830660000000004">
        <ele>931.022</ele>
        <time>2022-08-24T13:24:03Z</time>
      </trkpt>
      <trkpt lat="42.977545999999755" lon="-1.3830860000000003">
        <ele>931.009</ele>
        <time>2022-08-24T13:24:04Z</time>
      </trkpt>
      <trkpt lat="42.977672999999754" lon="-1.3832420000000003">
        <ele>931.430</ele>
        <time>2022-08-24T13:24:10Z</time>
      </trkpt>
      <trkpt lat="42.97792999999975" lon="-1.3834840000000004">
        <ele>930.680</ele>
        <time>2022-08-24T13:24:16Z</time>
      </trkpt>
      <trkpt lat="42.97812399999975" lon="-1.3836500000000005">
        <ele>930.030</ele>
        <time>2022-08-24T13:24:20Z</time>
      </trkpt>
      <trkpt lat="42.97822899999975" lon="-1.3837250000000005">
        <ele>929.886</ele>
        <time>2022-08-24T13:24:22Z</time>
      </trkpt>
      <trkpt lat="42.97843899999975" lon="-1.3839040000000005">
        <ele>928.848</ele>
        <time>2022-08-24T13:24:26Z</time>
      </trkpt>
      <trkpt lat="42.97863399999975" lon="-1.3841420000000004">
        <ele>928.445</ele>
        <time>2022-08-24T13:24:30Z</time>
      </trkpt>
      <trkpt lat="42.978781999999754" lon="-1.3843430000000003">
        <ele>927.448</ele>
        <time>2022-08-24T13:24:33Z</time>
      </trkpt>
      <trkpt lat="42.978873999999756" lon="-1.3844730000000003">
        <ele>927.072</ele>
        <time>2022-08-24T13:24:35Z</time>
      </trkpt>
      <trkpt lat="42.97892099999976" lon="-1.3845390000000002">
        <ele>926.461</ele>
        <time>2022-08-24T13:24:36Z</time>
      </trkpt>
      <trkpt lat="42.97896499999976" lon="-1.384605">
        <ele>926.053</ele>
        <time>2022-08-24T13:24:37Z</time>
      </trkpt>
      <trkpt lat="42.979005999999764" lon="-1.384671">
        <ele>925.604</ele>
        <time>2022-08-24T13:24:38Z</time>
      </trkpt>
      <trkpt lat="42.979047999999764" lon="-1.384736">
        <ele>924.414</ele>
        <time>2022-08-24T13:24:39Z</time>
      </trkpt>
      <trkpt lat="42.97908899999977" lon="-1.384801">
        <ele>923.809</ele>
        <time>2022-08-24T13:24:40Z</time>
      </trkpt>
      <trkpt lat="42.97912699999977" lon="-1.384865">
        <ele>923.486</ele>
        <time>2022-08-24T13:24:41Z</time>
      </trkpt>
      <trkpt lat="42.97916299999977" lon="-1.38493">
        <ele>922.846</ele>
        <time>2022-08-24T13:24:42Z</time>
      </trkpt>
      <trkpt lat="42.97928099999977" lon="-1.385135">
        <ele>921.066</ele>
        <time>2022-08-24T13:24:45Z</time>
      </trkpt>
      <trkpt lat="42.97935999999977" lon="-1.385269">
        <ele>919.622</ele>
        <time>2022-08-24T13:24:47Z</time>
      </trkpt>
      <trkpt lat="42.97943899999977" lon="-1.385397">
        <ele>918.074</ele>
        <time>2022-08-24T13:24:49Z</time>
      </trkpt>
      <trkpt lat="42.97947499999977" lon="-1.385452">
        <ele>917.641</ele>
        <time>2022-08-24T13:24:50Z</time>
      </trkpt>
      <trkpt lat="42.97950699999977" lon="-1.3854989999999998">
        <ele>916.294</ele>
        <time>2022-08-24T13:24:51Z</time>
      </trkpt>
      <trkpt lat="42.97953799999977" lon="-1.3855379999999997">
        <ele>915.698</ele>
        <time>2022-08-24T13:24:52Z</time>
      </trkpt>
      <trkpt lat="42.97956799999977" lon="-1.3855649999999997">
        <ele>915.237</ele>
        <time>2022-08-24T13:24:53Z</time>
      </trkpt>
      <trkpt lat="42.979589999999774" lon="-1.3855859999999998">
        <ele>914.249</ele>
        <time>2022-08-24T13:24:54Z</time>
      </trkpt>
      <trkpt lat="42.979606999999774" lon="-1.3856009999999999">
        <ele>913.802</ele>
        <time>2022-08-24T13:24:55Z</time>
      </trkpt>
      <trkpt lat="42.97962199999977" lon="-1.3856099999999998">
        <ele>913.222</ele>
        <time>2022-08-24T13:24:56Z</time>
      </trkpt>
      <trkpt lat="42.97963399999977" lon="-1.3856169999999999">
        <ele>912.809</ele>
        <time>2022-08-24T13:24:57Z</time>
      </trkpt>
      <trkpt lat="42.97964199999977" lon="-1.3856209999999998">
        <ele>912.045</ele>
        <time>2022-08-24T13:24:58Z</time>
      </trkpt>
      <trkpt lat="42.97964599999977" lon="-1.3856219999999997">
        <ele>908.835</ele>
        <time>2022-08-24T13:25:18Z</time>
      </trkpt>
      <trkpt lat="42.979646999999765" lon="-1.3856259999999996">
        <ele>909.065</ele>
        <time>2022-08-24T13:25:20Z</time>
      </trkpt>
      <trkpt lat="42.97970499999977" lon="-1.3857769999999996">
        <ele>909.081</ele>
        <time>2022-08-24T13:25:25Z</time>
      </trkpt>
      <trkpt lat="42.97983399999977" lon="-1.3860049999999995">
        <ele>908.273</ele>
        <time>2022-08-24T13:25:30Z</time>
      </trkpt>
      <trkpt lat="42.97986399999977" lon="-1.3860539999999995">
        <ele>908.040</ele>
        <time>2022-08-24T13:25:31Z</time>
      </trkpt>
      <trkpt lat="42.97986899999977" lon="-1.3860989999999995">
        <ele>907.863</ele>
        <time>2022-08-24T13:25:32Z</time>
      </trkpt>
      <trkpt lat="42.979865999999774" lon="-1.3861319999999995">
        <ele>907.837</ele>
        <time>2022-08-24T13:25:33Z</time>
      </trkpt>
      <trkpt lat="42.979864999999776" lon="-1.3861869999999994">
        <ele>907.626</ele>
        <time>2022-08-24T13:25:34Z</time>
      </trkpt>
      <trkpt lat="42.97987199999977" lon="-1.3862379999999994">
        <ele>907.623</ele>
        <time>2022-08-24T13:25:35Z</time>
      </trkpt>
      <trkpt lat="42.979873999999775" lon="-1.3862839999999994">
        <ele>907.683</ele>
        <time>2022-08-24T13:25:36Z</time>
      </trkpt>
      <trkpt lat="42.979881999999776" lon="-1.3863159999999994">
        <ele>907.411</ele>
        <time>2022-08-24T13:25:37Z</time>
      </trkpt>
      <trkpt lat="42.979879999999774" lon="-1.3863399999999995">
        <ele>907.409</ele>
        <time>2022-08-24T13:25:38Z</time>
      </trkpt>
      <trkpt lat="42.97987799999977" lon="-1.3863759999999994">
        <ele>907.453</ele>
        <time>2022-08-24T13:25:39Z</time>
      </trkpt>
      <trkpt lat="42.97987899999977" lon="-1.3864129999999995">
        <ele>907.493</ele>
        <time>2022-08-24T13:25:40Z</time>
      </trkpt>
      <trkpt lat="42.97987699999977" lon="-1.3864549999999995">
        <ele>907.263</ele>
        <time>2022-08-24T13:25:41Z</time>
      </trkpt>
      <trkpt lat="42.979897999999764" lon="-1.3866539999999996">
        <ele>907.069</ele>
        <time>2022-08-24T13:25:46Z</time>
      </trkpt>
      <trkpt lat="42.979905999999765" lon="-1.3867409999999996">
        <ele>906.831</ele>
        <time>2022-08-24T13:25:49Z</time>
      </trkpt>
      <trkpt lat="42.97990499999977" lon="-1.3867719999999994">
        <ele>906.888</ele>
        <time>2022-08-24T13:25:50Z</time>
      </trkpt>
      <trkpt lat="42.979908999999765" lon="-1.3868009999999995">
        <ele>906.841</ele>
        <time>2022-08-24T13:25:51Z</time>
      </trkpt>
      <trkpt lat="42.97994099999976" lon="-1.3868719999999994">
        <ele>906.695</ele>
        <time>2022-08-24T13:25:53Z</time>
      </trkpt>
      <trkpt lat="42.97994499999976" lon="-1.3869029999999993">
        <ele>906.664</ele>
        <time>2022-08-24T13:25:54Z</time>
      </trkpt>
      <trkpt lat="42.97995099999976" lon="-1.3869309999999992">
        <ele>906.647</ele>
        <time>2022-08-24T13:25:55Z</time>
      </trkpt>
      <trkpt lat="42.979965999999756" lon="-1.3869519999999993">
        <ele>906.229</ele>
        <time>2022-08-24T13:25:56Z</time>
      </trkpt>
      <trkpt lat="42.97997899999976" lon="-1.3869739999999993">
        <ele>906.221</ele>
        <time>2022-08-24T13:25:57Z</time>
      </trkpt>
      <trkpt lat="42.98000499999976" lon="-1.3870309999999992">
        <ele>905.809</ele>
        <time>2022-08-24T13:25:59Z</time>
      </trkpt>
      <trkpt lat="42.98009199999976" lon="-1.3871279999999993">
        <ele>905.435</ele>
        <time>2022-08-24T13:26:02Z</time>
      </trkpt>
      <trkpt lat="42.980112999999754" lon="-1.3871589999999991">
        <ele>905.475</ele>
        <time>2022-08-24T13:26:03Z</time>
      </trkpt>
      <trkpt lat="42.980126999999754" lon="-1.3872019999999992">
        <ele>905.285</ele>
        <time>2022-08-24T13:26:04Z</time>
      </trkpt>
      <trkpt lat="42.980131999999756" lon="-1.3872279999999992">
        <ele>905.281</ele>
        <time>2022-08-24T13:26:05Z</time>
      </trkpt>
      <trkpt lat="42.98013599999975" lon="-1.3872559999999992">
        <ele>905.083</ele>
        <time>2022-08-24T13:26:06Z</time>
      </trkpt>
      <trkpt lat="42.98014799999975" lon="-1.3872989999999992">
        <ele>905.010</ele>
        <time>2022-08-24T13:26:07Z</time>
      </trkpt>
      <trkpt lat="42.98017399999975" lon="-1.3873509999999991">
        <ele>904.673</ele>
        <time>2022-08-24T13:26:08Z</time>
      </trkpt>
      <trkpt lat="42.98019999999975" lon="-1.3873959999999992">
        <ele>904.437</ele>
        <time>2022-08-24T13:26:09Z</time>
      </trkpt>
      <trkpt lat="42.980211999999746" lon="-1.387434999999999">
        <ele>903.846</ele>
        <time>2022-08-24T13:26:10Z</time>
      </trkpt>
      <trkpt lat="42.98021099999975" lon="-1.3874719999999992">
        <ele>903.437</ele>
        <time>2022-08-24T13:26:11Z</time>
      </trkpt>
      <trkpt lat="42.980208999999746" lon="-1.3875179999999991">
        <ele>902.649</ele>
        <time>2022-08-24T13:26:12Z</time>
      </trkpt>
      <trkpt lat="42.98021599999974" lon="-1.387569999999999">
        <ele>902.213</ele>
        <time>2022-08-24T13:26:13Z</time>
      </trkpt>
      <trkpt lat="42.98021099999974" lon="-1.387623999999999">
        <ele>901.809</ele>
        <time>2022-08-24T13:26:14Z</time>
      </trkpt>
      <trkpt lat="42.980203999999745" lon="-1.387654999999999">
        <ele>901.484</ele>
        <time>2022-08-24T13:26:15Z</time>
      </trkpt>
      <trkpt lat="42.98019999999975" lon="-1.387661999999999">
        <ele>901.244</ele>
        <time>2022-08-24T13:26:16Z</time>
      </trkpt>
      <trkpt lat="42.980197999999746" lon="-1.3876719999999991">
        <ele>901.084</ele>
        <time>2022-08-24T13:26:17Z</time>
      </trkpt>
      <trkpt lat="42.980195999999744" lon="-1.3876739999999992">
        <ele>900.870</ele>
        <time>2022-08-24T13:26:18Z</time>
      </trkpt>
      <trkpt lat="42.980195999999744" lon="-1.3876739999999992">
        <ele>900.462</ele>
        <time>2022-08-24T13:26:19Z</time>
      </trkpt>
      <trkpt lat="42.980203999999745" lon="-1.3877249999999992">
        <ele>900.039</ele>
        <time>2022-08-24T13:26:20Z</time>
      </trkpt>
      <trkpt lat="42.980206999999744" lon="-1.3877279999999992">
        <ele>899.842</ele>
        <time>2022-08-24T13:26:21Z</time>
      </trkpt>
      <trkpt lat="42.980206999999744" lon="-1.3877279999999992">
        <ele>899.496</ele>
        <time>2022-08-24T13:26:22Z</time>
      </trkpt>
      <trkpt lat="42.980206999999744" lon="-1.3877279999999992">
        <ele>899.245</ele>
        <time>2022-08-24T13:26:23Z</time>
      </trkpt>
      <trkpt lat="42.980206999999744" lon="-1.3877279999999992">
        <ele>898.636</ele>
        <time>2022-08-24T13:26:24Z</time>
      </trkpt>
      <trkpt lat="42.98020299999975" lon="-1.3877519999999992">
        <ele>898.217</ele>
        <time>2022-08-24T13:26:25Z</time>
      </trkpt>
      <trkpt lat="42.980200999999745" lon="-1.3877539999999993">
        <ele>898.218</ele>
        <time>2022-08-24T13:26:26Z</time>
      </trkpt>
      <trkpt lat="42.98021999999975" lon="-1.3877939999999993">
        <ele>898.009</ele>
        <time>2022-08-24T13:26:27Z</time>
      </trkpt>
      <trkpt lat="42.980206999999744" lon="-1.3878549999999994">
        <ele>897.844</ele>
        <time>2022-08-24T13:26:28Z</time>
      </trkpt>
      <trkpt lat="42.98019899999974" lon="-1.3879409999999994">
        <ele>897.834</ele>
        <time>2022-08-24T13:26:30Z</time>
      </trkpt>
      <trkpt lat="42.98019099999974" lon="-1.3879729999999995">
        <ele>897.654</ele>
        <time>2022-08-24T13:26:31Z</time>
      </trkpt>
      <trkpt lat="42.98017399999974" lon="-1.3880029999999994">
        <ele>897.480</ele>
        <time>2022-08-24T13:26:32Z</time>
      </trkpt>
      <trkpt lat="42.98015499999974" lon="-1.3880399999999995">
        <ele>897.292</ele>
        <time>2022-08-24T13:26:33Z</time>
      </trkpt>
      <trkpt lat="42.98013599999974" lon="-1.3880599999999994">
        <ele>896.689</ele>
        <time>2022-08-24T13:26:34Z</time>
      </trkpt>
      <trkpt lat="42.98007299999974" lon="-1.3881989999999993">
        <ele>895.242</ele>
        <time>2022-08-24T13:26:38Z</time>
      </trkpt>
      <trkpt lat="42.98005299999974" lon="-1.3882379999999992">
        <ele>894.876</ele>
        <time>2022-08-24T13:26:39Z</time>
      </trkpt>
      <trkpt lat="42.98002199999974" lon="-1.3883149999999993">
        <ele>893.855</ele>
        <time>2022-08-24T13:26:41Z</time>
      </trkpt>
      <trkpt lat="42.97996299999974" lon="-1.3884109999999994">
        <ele>892.865</ele>
        <time>2022-08-24T13:26:44Z</time>
      </trkpt>
      <trkpt lat="42.97993799999974" lon="-1.3884969999999994">
        <ele>892.068</ele>
        <time>2022-08-24T13:26:46Z</time>
      </trkpt>
      <trkpt lat="42.97991199999974" lon="-1.3885359999999993">
        <ele>891.814</ele>
        <time>2022-08-24T13:26:47Z</time>
      </trkpt>
      <trkpt lat="42.979874999999744" lon="-1.3885769999999993">
        <ele>891.209</ele>
        <time>2022-08-24T13:26:48Z</time>
      </trkpt>
      <trkpt lat="42.979846999999744" lon="-1.3886169999999993">
        <ele>890.687</ele>
        <time>2022-08-24T13:26:49Z</time>
      </trkpt>
      <trkpt lat="42.97981999999974" lon="-1.3886459999999994">
        <ele>890.067</ele>
        <time>2022-08-24T13:26:50Z</time>
      </trkpt>
      <trkpt lat="42.97979199999974" lon="-1.3886919999999994">
        <ele>889.247</ele>
        <time>2022-08-24T13:26:51Z</time>
      </trkpt>
      <trkpt lat="42.97975299999974" lon="-1.3887099999999994">
        <ele>888.883</ele>
        <time>2022-08-24T13:26:52Z</time>
      </trkpt>
      <trkpt lat="42.97970199999974" lon="-1.3887789999999995">
        <ele>888.035</ele>
        <time>2022-08-24T13:26:54Z</time>
      </trkpt>
      <trkpt lat="42.97967699999974" lon="-1.3888329999999995">
        <ele>887.652</ele>
        <time>2022-08-24T13:26:55Z</time>
      </trkpt>
      <trkpt lat="42.97964399999974" lon="-1.3889109999999996">
        <ele>886.255</ele>
        <time>2022-08-24T13:26:57Z</time>
      </trkpt>
      <trkpt lat="42.979610999999736" lon="-1.3889609999999997">
        <ele>885.629</ele>
        <time>2022-08-24T13:26:58Z</time>
      </trkpt>
      <trkpt lat="42.979593999999736" lon="-1.3889909999999996">
        <ele>885.248</ele>
        <time>2022-08-24T13:26:59Z</time>
      </trkpt>
      <trkpt lat="42.979591999999734" lon="-1.3890189999999996">
        <ele>884.428</ele>
        <time>2022-08-24T13:27:00Z</time>
      </trkpt>
      <trkpt lat="42.97957399999974" lon="-1.3890789999999995">
        <ele>884.289</ele>
        <time>2022-08-24T13:27:01Z</time>
      </trkpt>
      <trkpt lat="42.979562999999736" lon="-1.3891489999999995">
        <ele>883.617</ele>
        <time>2022-08-24T13:27:02Z</time>
      </trkpt>
      <trkpt lat="42.979512999999734" lon="-1.3892459999999995">
        <ele>882.609</ele>
        <time>2022-08-24T13:27:03Z</time>
      </trkpt>
      <trkpt lat="42.97949099999973" lon="-1.3893369999999996">
        <ele>882.483</ele>
        <time>2022-08-24T13:27:04Z</time>
      </trkpt>
      <trkpt lat="42.97948099999973" lon="-1.3893999999999995">
        <ele>881.433</ele>
        <time>2022-08-24T13:27:05Z</time>
      </trkpt>
      <trkpt lat="42.97945999999973" lon="-1.3894329999999995">
        <ele>881.083</ele>
        <time>2022-08-24T13:27:06Z</time>
      </trkpt>
      <trkpt lat="42.97944599999973" lon="-1.3894649999999995">
        <ele>880.219</ele>
        <time>2022-08-24T13:27:07Z</time>
      </trkpt>
      <trkpt lat="42.97943299999973" lon="-1.3895149999999996">
        <ele>880.041</ele>
        <time>2022-08-24T13:27:08Z</time>
      </trkpt>
      <trkpt lat="42.97944199999973" lon="-1.3895589999999995">
        <ele>879.268</ele>
        <time>2022-08-24T13:27:09Z</time>
      </trkpt>
      <trkpt lat="42.97943099999973" lon="-1.3896009999999996">
        <ele>878.891</ele>
        <time>2022-08-24T13:27:10Z</time>
      </trkpt>
      <trkpt lat="42.97939399999973" lon="-1.3896789999999997">
        <ele>877.615</ele>
        <time>2022-08-24T13:27:12Z</time>
      </trkpt>
      <trkpt lat="42.97933399999973" lon="-1.3897699999999997">
        <ele>877.444</ele>
        <time>2022-08-24T13:27:13Z</time>
      </trkpt>
      <trkpt lat="42.97927699999973" lon="-1.3898789999999996">
        <ele>876.426</ele>
        <time>2022-08-24T13:27:15Z</time>
      </trkpt>
      <trkpt lat="42.97926099999973" lon="-1.3899259999999996">
        <ele>876.047</ele>
        <time>2022-08-24T13:27:16Z</time>
      </trkpt>
      <trkpt lat="42.97925099999973" lon="-1.3899669999999995">
        <ele>875.411</ele>
        <time>2022-08-24T13:27:17Z</time>
      </trkpt>
      <trkpt lat="42.97920299999973" lon="-1.3900389999999996">
        <ele>875.009</ele>
        <time>2022-08-24T13:27:18Z</time>
      </trkpt>
      <trkpt lat="42.97915799999973" lon="-1.3901489999999996">
        <ele>873.883</ele>
        <time>2022-08-24T13:27:20Z</time>
      </trkpt>
      <trkpt lat="42.979130999999725" lon="-1.3902859999999997">
        <ele>872.033</ele>
        <time>2022-08-24T13:27:22Z</time>
      </trkpt>
      <trkpt lat="42.97910799999973" lon="-1.3903719999999997">
        <ele>871.643</ele>
        <time>2022-08-24T13:27:23Z</time>
      </trkpt>
      <trkpt lat="42.979048999999726" lon="-1.3904099999999997">
        <ele>870.059</ele>
        <time>2022-08-24T13:27:24Z</time>
      </trkpt>
      <trkpt lat="42.97901199999973" lon="-1.3904399999999997">
        <ele>869.471</ele>
        <time>2022-08-24T13:27:25Z</time>
      </trkpt>
      <trkpt lat="42.97900599999973" lon="-1.3904619999999996">
        <ele>868.628</ele>
        <time>2022-08-24T13:27:26Z</time>
      </trkpt>
      <trkpt lat="42.97901499999973" lon="-1.3904929999999995">
        <ele>868.241</ele>
        <time>2022-08-24T13:27:27Z</time>
      </trkpt>
      <trkpt lat="42.978989999999726" lon="-1.3905339999999995">
        <ele>867.485</ele>
        <time>2022-08-24T13:27:28Z</time>
      </trkpt>
      <trkpt lat="42.97893599999973" lon="-1.3905889999999994">
        <ele>866.674</ele>
        <time>2022-08-24T13:27:29Z</time>
      </trkpt>
      <trkpt lat="42.978911999999724" lon="-1.3906199999999993">
        <ele>866.258</ele>
        <time>2022-08-24T13:27:30Z</time>
      </trkpt>
      <trkpt lat="42.97887099999972" lon="-1.3906659999999993">
        <ele>865.452</ele>
        <time>2022-08-24T13:27:31Z</time>
      </trkpt>
      <trkpt lat="42.97887299999972" lon="-1.3907189999999994">
        <ele>864.817</ele>
        <time>2022-08-24T13:27:32Z</time>
      </trkpt>
      <trkpt lat="42.978874999999725" lon="-1.3907579999999993">
        <ele>864.409</ele>
        <time>2022-08-24T13:27:33Z</time>
      </trkpt>
      <trkpt lat="42.978854999999726" lon="-1.3907949999999993">
        <ele>863.836</ele>
        <time>2022-08-24T13:27:34Z</time>
      </trkpt>
      <trkpt lat="42.97881199999973" lon="-1.3908629999999993">
        <ele>863.866</ele>
        <time>2022-08-24T13:27:35Z</time>
      </trkpt>
      <trkpt lat="42.978691999999725" lon="-1.3910389999999992">
        <ele>862.846</ele>
        <time>2022-08-24T13:27:37Z</time>
      </trkpt>
      <trkpt lat="42.97865399999972" lon="-1.3910759999999993">
        <ele>861.642</ele>
        <time>2022-08-24T13:27:38Z</time>
      </trkpt>
      <trkpt lat="42.97862299999972" lon="-1.3911419999999992">
        <ele>861.424</ele>
        <time>2022-08-24T13:27:39Z</time>
      </trkpt>
      <trkpt lat="42.97864399999972" lon="-1.3913469999999992">
        <ele>860.681</ele>
        <time>2022-08-24T13:27:41Z</time>
      </trkpt>
      <trkpt lat="42.978644999999716" lon="-1.3914289999999991">
        <ele>860.284</ele>
        <time>2022-08-24T13:27:42Z</time>
      </trkpt>
      <trkpt lat="42.978639999999714" lon="-1.391510999999999">
        <ele>859.648</ele>
        <time>2022-08-24T13:27:43Z</time>
      </trkpt>
      <trkpt lat="42.97863199999971" lon="-1.391565999999999">
        <ele>859.487</ele>
        <time>2022-08-24T13:27:44Z</time>
      </trkpt>
      <trkpt lat="42.97861099999972" lon="-1.391632999999999">
        <ele>858.893</ele>
        <time>2022-08-24T13:27:45Z</time>
      </trkpt>
      <trkpt lat="42.978580999999714" lon="-1.391697999999999">
        <ele>858.665</ele>
        <time>2022-08-24T13:27:46Z</time>
      </trkpt>
      <trkpt lat="42.97853099999971" lon="-1.391766999999999">
        <ele>858.021</ele>
        <time>2022-08-24T13:27:47Z</time>
      </trkpt>
      <trkpt lat="42.978470999999715" lon="-1.3918199999999992">
        <ele>857.409</ele>
        <time>2022-08-24T13:27:48Z</time>
      </trkpt>
      <trkpt lat="42.97843899999972" lon="-1.3918569999999992">
        <ele>857.050</ele>
        <time>2022-08-24T13:27:49Z</time>
      </trkpt>
      <trkpt lat="42.978312999999716" lon="-1.3919939999999993">
        <ele>856.230</ele>
        <time>2022-08-24T13:27:51Z</time>
      </trkpt>
      <trkpt lat="42.978253999999716" lon="-1.3920659999999994">
        <ele>856.010</ele>
        <time>2022-08-24T13:27:52Z</time>
      </trkpt>
      <trkpt lat="42.978200999999714" lon="-1.3921519999999994">
        <ele>855.636</ele>
        <time>2022-08-24T13:27:53Z</time>
      </trkpt>
      <trkpt lat="42.97816799999971" lon="-1.3922229999999993">
        <ele>855.458</ele>
        <time>2022-08-24T13:27:54Z</time>
      </trkpt>
      <trkpt lat="42.97816899999971" lon="-1.3922699999999992">
        <ele>855.075</ele>
        <time>2022-08-24T13:27:55Z</time>
      </trkpt>
      <trkpt lat="42.97819499999971" lon="-1.3923429999999992">
        <ele>854.828</ele>
        <time>2022-08-24T13:27:56Z</time>
      </trkpt>
      <trkpt lat="42.97819999999971" lon="-1.3924149999999993">
        <ele>854.672</ele>
        <time>2022-08-24T13:27:57Z</time>
      </trkpt>
      <trkpt lat="42.97817199999971" lon="-1.3924669999999992">
        <ele>854.451</ele>
        <time>2022-08-24T13:27:58Z</time>
      </trkpt>
      <trkpt lat="42.97813799999971" lon="-1.3925219999999991">
        <ele>854.248</ele>
        <time>2022-08-24T13:27:59Z</time>
      </trkpt>
      <trkpt lat="42.97810099999971" lon="-1.3925599999999991">
        <ele>854.261</ele>
        <time>2022-08-24T13:28:00Z</time>
      </trkpt>
      <trkpt lat="42.97807699999971" lon="-1.392606999999999">
        <ele>854.017</ele>
        <time>2022-08-24T13:28:01Z</time>
      </trkpt>
      <trkpt lat="42.97805599999971" lon="-1.392654999999999">
        <ele>854.009</ele>
        <time>2022-08-24T13:28:02Z</time>
      </trkpt>
      <trkpt lat="42.97802899999971" lon="-1.392695999999999">
        <ele>854.065</ele>
        <time>2022-08-24T13:28:03Z</time>
      </trkpt>
      <trkpt lat="42.977995999999706" lon="-1.392735999999999">
        <ele>854.085</ele>
        <time>2022-08-24T13:28:04Z</time>
      </trkpt>
      <trkpt lat="42.9779689999997" lon="-1.3927779999999992">
        <ele>854.275</ele>
        <time>2022-08-24T13:28:05Z</time>
      </trkpt>
      <trkpt lat="42.9779419999997" lon="-1.3928179999999992">
        <ele>854.461</ele>
        <time>2022-08-24T13:28:06Z</time>
      </trkpt>
      <trkpt lat="42.9779219999997" lon="-1.3928709999999993">
        <ele>854.693</ele>
        <time>2022-08-24T13:28:07Z</time>
      </trkpt>
      <trkpt lat="42.9778769999997" lon="-1.3930389999999993">
        <ele>855.050</ele>
        <time>2022-08-24T13:28:10Z</time>
      </trkpt>
      <trkpt lat="42.9778649999997" lon="-1.3931349999999993">
        <ele>855.243</ele>
        <time>2022-08-24T13:28:12Z</time>
      </trkpt>
      <trkpt lat="42.9778339999997" lon="-1.3932439999999993">
        <ele>855.027</ele>
        <time>2022-08-24T13:28:14Z</time>
      </trkpt>
      <trkpt lat="42.9778209999997" lon="-1.3933029999999993">
        <ele>855.036</ele>
        <time>2022-08-24T13:28:15Z</time>
      </trkpt>
      <trkpt lat="42.9778079999997" lon="-1.3933589999999993">
        <ele>854.661</ele>
        <time>2022-08-24T13:28:16Z</time>
      </trkpt>
      <trkpt lat="42.9777969999997" lon="-1.3934029999999993">
        <ele>854.421</ele>
        <time>2022-08-24T13:28:17Z</time>
      </trkpt>
      <trkpt lat="42.977797999999694" lon="-1.3934329999999993">
        <ele>854.013</ele>
        <time>2022-08-24T13:28:18Z</time>
      </trkpt>
      <trkpt lat="42.9778109999997" lon="-1.3934629999999992">
        <ele>853.609</ele>
        <time>2022-08-24T13:28:19Z</time>
      </trkpt>
      <trkpt lat="42.9778269999997" lon="-1.3934979999999992">
        <ele>853.647</ele>
        <time>2022-08-24T13:28:20Z</time>
      </trkpt>
      <trkpt lat="42.9778089999997" lon="-1.3935739999999992">
        <ele>853.437</ele>
        <time>2022-08-24T13:28:22Z</time>
      </trkpt>
      <trkpt lat="42.9777929999997" lon="-1.393620999999999">
        <ele>853.057</ele>
        <time>2022-08-24T13:28:23Z</time>
      </trkpt>
      <trkpt lat="42.9777779999997" lon="-1.393675999999999">
        <ele>853.053</ele>
        <time>2022-08-24T13:28:24Z</time>
      </trkpt>
      <trkpt lat="42.977768999999704" lon="-1.393728999999999">
        <ele>852.825</ele>
        <time>2022-08-24T13:28:25Z</time>
      </trkpt>
      <trkpt lat="42.97777899999971" lon="-1.3937739999999992">
        <ele>852.652</ele>
        <time>2022-08-24T13:28:26Z</time>
      </trkpt>
      <trkpt lat="42.97778699999971" lon="-1.393820999999999">
        <ele>852.255</ele>
        <time>2022-08-24T13:28:27Z</time>
      </trkpt>
      <trkpt lat="42.977793999999705" lon="-1.3938739999999992">
        <ele>852.079</ele>
        <time>2022-08-24T13:28:28Z</time>
      </trkpt>
      <trkpt lat="42.977787999999705" lon="-1.393936999999999">
        <ele>852.068</ele>
        <time>2022-08-24T13:28:29Z</time>
      </trkpt>
      <trkpt lat="42.97777299999971" lon="-1.3939929999999991">
        <ele>851.894</ele>
        <time>2022-08-24T13:28:30Z</time>
      </trkpt>
      <trkpt lat="42.97776899999971" lon="-1.3940419999999991">
        <ele>851.657</ele>
        <time>2022-08-24T13:28:31Z</time>
      </trkpt>
      <trkpt lat="42.97777599999971" lon="-1.394074999999999">
        <ele>851.422</ele>
        <time>2022-08-24T13:28:32Z</time>
      </trkpt>
      <trkpt lat="42.97779199999971" lon="-1.394115999999999">
        <ele>851.209</ele>
        <time>2022-08-24T13:28:33Z</time>
      </trkpt>
      <trkpt lat="42.97779099999971" lon="-1.394175999999999">
        <ele>851.230</ele>
        <time>2022-08-24T13:28:34Z</time>
      </trkpt>
      <trkpt lat="42.97778299999971" lon="-1.394235999999999">
        <ele>851.030</ele>
        <time>2022-08-24T13:28:35Z</time>
      </trkpt>
      <trkpt lat="42.97778599999971" lon="-1.3942849999999989">
        <ele>851.080</ele>
        <time>2022-08-24T13:28:36Z</time>
      </trkpt>
      <trkpt lat="42.97775299999971" lon="-1.3944399999999988">
        <ele>850.276</ele>
        <time>2022-08-24T13:28:39Z</time>
      </trkpt>
      <trkpt lat="42.97776199999971" lon="-1.3944999999999987">
        <ele>849.848</ele>
        <time>2022-08-24T13:28:40Z</time>
      </trkpt>
      <trkpt lat="42.97775899999971" lon="-1.3945529999999988">
        <ele>849.695</ele>
        <time>2022-08-24T13:28:41Z</time>
      </trkpt>
      <trkpt lat="42.97776699999971" lon="-1.3946019999999988">
        <ele>849.258</ele>
        <time>2022-08-24T13:28:42Z</time>
      </trkpt>
      <trkpt lat="42.97779099999971" lon="-1.3946539999999987">
        <ele>849.062</ele>
        <time>2022-08-24T13:28:43Z</time>
      </trkpt>
      <trkpt lat="42.97781199999971" lon="-1.3946999999999987">
        <ele>848.861</ele>
        <time>2022-08-24T13:28:44Z</time>
      </trkpt>
      <trkpt lat="42.977818999999705" lon="-1.3947339999999988">
        <ele>848.452</ele>
        <time>2022-08-24T13:28:45Z</time>
      </trkpt>
      <trkpt lat="42.9778059999997" lon="-1.3948259999999988">
        <ele>847.853</ele>
        <time>2022-08-24T13:28:47Z</time>
      </trkpt>
      <trkpt lat="42.9777959999997" lon="-1.3949759999999989">
        <ele>847.608</ele>
        <time>2022-08-24T13:28:49Z</time>
      </trkpt>
      <trkpt lat="42.9777759999997" lon="-1.395074999999999">
        <ele>847.409</ele>
        <time>2022-08-24T13:28:50Z</time>
      </trkpt>
      <trkpt lat="42.9777609999997" lon="-1.395174999999999">
        <ele>847.286</ele>
        <time>2022-08-24T13:28:51Z</time>
      </trkpt>
      <trkpt lat="42.977723999999704" lon="-1.395357999999999">
        <ele>846.846</ele>
        <time>2022-08-24T13:28:53Z</time>
      </trkpt>
      <trkpt lat="42.977703999999704" lon="-1.395435999999999">
        <ele>846.056</ele>
        <time>2022-08-24T13:28:54Z</time>
      </trkpt>
      <trkpt lat="42.9776739999997" lon="-1.395506999999999">
        <ele>845.832</ele>
        <time>2022-08-24T13:28:55Z</time>
      </trkpt>
      <trkpt lat="42.977666999999705" lon="-1.395575999999999">
        <ele>845.274</ele>
        <time>2022-08-24T13:28:56Z</time>
      </trkpt>
      <trkpt lat="42.977663999999706" lon="-1.395633999999999">
        <ele>844.821</ele>
        <time>2022-08-24T13:28:57Z</time>
      </trkpt>
      <trkpt lat="42.977669999999705" lon="-1.3957079999999988">
        <ele>844.654</ele>
        <time>2022-08-24T13:28:58Z</time>
      </trkpt>
      <trkpt lat="42.977675999999704" lon="-1.3957489999999988">
        <ele>844.258</ele>
        <time>2022-08-24T13:28:59Z</time>
      </trkpt>
      <trkpt lat="42.9776989999997" lon="-1.3957979999999988">
        <ele>844.017</ele>
        <time>2022-08-24T13:29:00Z</time>
      </trkpt>
      <trkpt lat="42.9776989999997" lon="-1.3958379999999988">
        <ele>843.057</ele>
        <time>2022-08-24T13:29:01Z</time>
      </trkpt>
      <trkpt lat="42.977692999999704" lon="-1.3958659999999987">
        <ele>842.600</ele>
        <time>2022-08-24T13:29:02Z</time>
      </trkpt>
      <trkpt lat="42.977669999999705" lon="-1.3959259999999987">
        <ele>842.620</ele>
        <time>2022-08-24T13:29:03Z</time>
      </trkpt>
      <trkpt lat="42.97766299999971" lon="-1.3959769999999987">
        <ele>842.009</ele>
        <time>2022-08-24T13:29:04Z</time>
      </trkpt>
      <trkpt lat="42.97768699999971" lon="-1.3960059999999987">
        <ele>841.686</ele>
        <time>2022-08-24T13:29:05Z</time>
      </trkpt>
      <trkpt lat="42.977699999999714" lon="-1.3960349999999988">
        <ele>841.036</ele>
        <time>2022-08-24T13:29:06Z</time>
      </trkpt>
      <trkpt lat="42.97769599999972" lon="-1.3960539999999988">
        <ele>840.886</ele>
        <time>2022-08-24T13:29:07Z</time>
      </trkpt>
      <trkpt lat="42.97770099999972" lon="-1.3960799999999989">
        <ele>840.652</ele>
        <time>2022-08-24T13:29:08Z</time>
      </trkpt>
      <trkpt lat="42.97770199999972" lon="-1.3960839999999988">
        <ele>840.224</ele>
        <time>2022-08-24T13:29:09Z</time>
      </trkpt>
      <trkpt lat="42.97770099999972" lon="-1.3960839999999988">
        <ele>838.481</ele>
        <time>2022-08-24T13:29:37Z</time>
      </trkpt>
      <trkpt lat="42.97770099999972" lon="-1.3960839999999988">
        <ele>838.264</ele>
        <time>2022-08-24T13:29:39Z</time>
      </trkpt>
      <trkpt lat="42.97768399999972" lon="-1.3960999999999988">
        <ele>837.858</ele>
        <time>2022-08-24T13:29:42Z</time>
      </trkpt>
      <trkpt lat="42.97768399999972" lon="-1.3960999999999988">
        <ele>837.647</ele>
        <time>2022-08-24T13:29:43Z</time>
      </trkpt>
      <trkpt lat="42.97768399999972" lon="-1.3960999999999988">
        <ele>837.443</ele>
        <time>2022-08-24T13:29:44Z</time>
      </trkpt>
      <trkpt lat="42.97768399999972" lon="-1.3960999999999988">
        <ele>836.464</ele>
        <time>2022-08-24T13:29:47Z</time>
      </trkpt>
      <trkpt lat="42.97768399999972" lon="-1.3960999999999988">
        <ele>836.210</ele>
        <time>2022-08-24T13:29:48Z</time>
      </trkpt>
      <trkpt lat="42.977659999999716" lon="-1.3961259999999989">
        <ele>835.809</ele>
        <time>2022-08-24T13:29:52Z</time>
      </trkpt>
      <trkpt lat="42.977643999999714" lon="-1.3961449999999989">
        <ele>835.685</ele>
        <time>2022-08-24T13:29:55Z</time>
      </trkpt>
      <trkpt lat="42.97753799999971" lon="-1.3962999999999988">
        <ele>835.235</ele>
        <time>2022-08-24T13:29:58Z</time>
      </trkpt>
      <trkpt lat="42.97750499999971" lon="-1.3963509999999988">
        <ele>835.225</ele>
        <time>2022-08-24T13:29:59Z</time>
      </trkpt>
      <trkpt lat="42.97745799999971" lon="-1.3963989999999988">
        <ele>835.261</ele>
        <time>2022-08-24T13:30:00Z</time>
      </trkpt>
      <trkpt lat="42.97740599999971" lon="-1.3965179999999988">
        <ele>835.273</ele>
        <time>2022-08-24T13:30:02Z</time>
      </trkpt>
      <trkpt lat="42.97739499999971" lon="-1.3965829999999988">
        <ele>835.080</ele>
        <time>2022-08-24T13:30:03Z</time>
      </trkpt>
      <trkpt lat="42.97737399999971" lon="-1.3966349999999987">
        <ele>835.263</ele>
        <time>2022-08-24T13:30:04Z</time>
      </trkpt>
      <trkpt lat="42.97735299999972" lon="-1.3967209999999988">
        <ele>835.277</ele>
        <time>2022-08-24T13:30:05Z</time>
      </trkpt>
      <trkpt lat="42.97732199999972" lon="-1.3968019999999988">
        <ele>835.276</ele>
        <time>2022-08-24T13:30:06Z</time>
      </trkpt>
      <trkpt lat="42.97730099999972" lon="-1.3968549999999988">
        <ele>835.452</ele>
        <time>2022-08-24T13:30:07Z</time>
      </trkpt>
      <trkpt lat="42.97728299999972" lon="-1.3968909999999988">
        <ele>835.453</ele>
        <time>2022-08-24T13:30:08Z</time>
      </trkpt>
      <trkpt lat="42.97726699999972" lon="-1.3969259999999988">
        <ele>835.808</ele>
        <time>2022-08-24T13:30:09Z</time>
      </trkpt>
      <trkpt lat="42.97727299999972" lon="-1.3969889999999987">
        <ele>836.009</ele>
        <time>2022-08-24T13:30:11Z</time>
      </trkpt>
      <trkpt lat="42.97728299999972" lon="-1.3970149999999988">
        <ele>836.286</ele>
        <time>2022-08-24T13:30:12Z</time>
      </trkpt>
      <trkpt lat="42.977284999999725" lon="-1.3970529999999988">
        <ele>836.456</ele>
        <time>2022-08-24T13:30:13Z</time>
      </trkpt>
      <trkpt lat="42.97728699999973" lon="-1.3970569999999987">
        <ele>836.466</ele>
        <time>2022-08-24T13:30:14Z</time>
      </trkpt>
      <trkpt lat="42.97728699999973" lon="-1.3970569999999987">
        <ele>836.472</ele>
        <time>2022-08-24T13:30:15Z</time>
      </trkpt>
      <trkpt lat="42.97728699999973" lon="-1.3970569999999987">
        <ele>836.454</ele>
        <time>2022-08-24T13:30:16Z</time>
      </trkpt>
      <trkpt lat="42.97728699999973" lon="-1.3970569999999987">
        <ele>836.461</ele>
        <time>2022-08-24T13:30:17Z</time>
      </trkpt>
      <trkpt lat="42.97728699999973" lon="-1.3970569999999987">
        <ele>836.484</ele>
        <time>2022-08-24T13:30:18Z</time>
      </trkpt>
      <trkpt lat="42.97728399999973" lon="-1.3970859999999987">
        <ele>836.098</ele>
        <time>2022-08-24T13:30:33Z</time>
      </trkpt>
      <trkpt lat="42.97728399999973" lon="-1.3971039999999988">
        <ele>836.097</ele>
        <time>2022-08-24T13:30:34Z</time>
      </trkpt>
      <trkpt lat="42.97728899999973" lon="-1.3971229999999988">
        <ele>836.086</ele>
        <time>2022-08-24T13:30:35Z</time>
      </trkpt>
      <trkpt lat="42.977289999999726" lon="-1.3971329999999988">
        <ele>835.660</ele>
        <time>2022-08-24T13:30:38Z</time>
      </trkpt>
      <trkpt lat="42.977289999999726" lon="-1.3971329999999988">
        <ele>834.426</ele>
        <time>2022-08-24T13:30:41Z</time>
      </trkpt>
      <trkpt lat="42.977289999999726" lon="-1.3971329999999988">
        <ele>834.409</ele>
        <time>2022-08-24T13:30:42Z</time>
      </trkpt>
      <trkpt lat="42.97728899999973" lon="-1.3971409999999989">
        <ele>833.449</ele>
        <time>2022-08-24T13:30:45Z</time>
      </trkpt>
      <trkpt lat="42.97734999999973" lon="-1.3973189999999989">
        <ele>832.869</ele>
        <time>2022-08-24T13:30:50Z</time>
      </trkpt>
      <trkpt lat="42.977387999999735" lon="-1.3974079999999989">
        <ele>832.669</ele>
        <time>2022-08-24T13:30:52Z</time>
      </trkpt>
      <trkpt lat="42.97740399999974" lon="-1.397444999999999">
        <ele>832.085</ele>
        <time>2022-08-24T13:30:53Z</time>
      </trkpt>
      <trkpt lat="42.97741699999974" lon="-1.397476999999999">
        <ele>831.847</ele>
        <time>2022-08-24T13:30:54Z</time>
      </trkpt>
      <trkpt lat="42.97742599999974" lon="-1.397498999999999">
        <ele>831.434</ele>
        <time>2022-08-24T13:30:55Z</time>
      </trkpt>
      <trkpt lat="42.97743699999974" lon="-1.3975269999999989">
        <ele>831.287</ele>
        <time>2022-08-24T13:30:56Z</time>
      </trkpt>
      <trkpt lat="42.97744799999974" lon="-1.397555999999999">
        <ele>830.821</ele>
        <time>2022-08-24T13:30:57Z</time>
      </trkpt>
      <trkpt lat="42.97746199999974" lon="-1.397579999999999">
        <ele>830.670</ele>
        <time>2022-08-24T13:30:58Z</time>
      </trkpt>
      <trkpt lat="42.97746699999974" lon="-1.397600999999999">
        <ele>830.483</ele>
        <time>2022-08-24T13:30:59Z</time>
      </trkpt>
      <trkpt lat="42.977476999999745" lon="-1.397623999999999">
        <ele>829.825</ele>
        <time>2022-08-24T13:31:00Z</time>
      </trkpt>
      <trkpt lat="42.977487999999745" lon="-1.397645999999999">
        <ele>829.817</ele>
        <time>2022-08-24T13:31:01Z</time>
      </trkpt>
      <trkpt lat="42.97748999999975" lon="-1.397656999999999">
        <ele>829.609</ele>
        <time>2022-08-24T13:31:02Z</time>
      </trkpt>
      <trkpt lat="42.97750999999975" lon="-1.397680999999999">
        <ele>829.259</ele>
        <time>2022-08-24T13:31:03Z</time>
      </trkpt>
      <trkpt lat="42.97752099999975" lon="-1.3977069999999991">
        <ele>829.039</ele>
        <time>2022-08-24T13:31:04Z</time>
      </trkpt>
      <trkpt lat="42.977524999999744" lon="-1.3977179999999991">
        <ele>828.819</ele>
        <time>2022-08-24T13:31:05Z</time>
      </trkpt>
      <trkpt lat="42.97752599999974" lon="-1.397720999999999">
        <ele>828.465</ele>
        <time>2022-08-24T13:31:06Z</time>
      </trkpt>
      <trkpt lat="42.97752599999974" lon="-1.397720999999999">
        <ele>828.077</ele>
        <time>2022-08-24T13:31:07Z</time>
      </trkpt>
      <trkpt lat="42.97752699999974" lon="-1.397831999999999">
        <ele>826.024</ele>
        <time>2022-08-24T13:31:22Z</time>
      </trkpt>
      <trkpt lat="42.97752599999974" lon="-1.397842999999999">
        <ele>826.017</ele>
        <time>2022-08-24T13:31:23Z</time>
      </trkpt>
      <trkpt lat="42.97752099999974" lon="-1.397856999999999">
        <ele>826.041</ele>
        <time>2022-08-24T13:31:24Z</time>
      </trkpt>
      <trkpt lat="42.97751999999974" lon="-1.397895999999999">
        <ele>825.640</ele>
        <time>2022-08-24T13:31:27Z</time>
      </trkpt>
      <trkpt lat="42.97751699999974" lon="-1.397906999999999">
        <ele>825.433</ele>
        <time>2022-08-24T13:31:28Z</time>
      </trkpt>
      <trkpt lat="42.97751399999974" lon="-1.397919999999999">
        <ele>825.223</ele>
        <time>2022-08-24T13:31:29Z</time>
      </trkpt>
      <trkpt lat="42.97750899999974" lon="-1.397942999999999">
        <ele>825.015</ele>
        <time>2022-08-24T13:31:31Z</time>
      </trkpt>
      <trkpt lat="42.97750099999974" lon="-1.3979769999999991">
        <ele>824.409</ele>
        <time>2022-08-24T13:31:34Z</time>
      </trkpt>
      <trkpt lat="42.97749899999974" lon="-1.397988999999999">
        <ele>824.274</ele>
        <time>2022-08-24T13:31:35Z</time>
      </trkpt>
      <trkpt lat="42.97749699999974" lon="-1.398001999999999">
        <ele>824.044</ele>
        <time>2022-08-24T13:31:36Z</time>
      </trkpt>
      <trkpt lat="42.97749699999974" lon="-1.3980149999999991">
        <ele>823.874</ele>
        <time>2022-08-24T13:31:37Z</time>
      </trkpt>
      <trkpt lat="42.977500999999734" lon="-1.398047999999999">
        <ele>822.680</ele>
        <time>2022-08-24T13:31:40Z</time>
      </trkpt>
      <trkpt lat="42.97750199999973" lon="-1.3980499999999991">
        <ele>822.432</ele>
        <time>2022-08-24T13:31:41Z</time>
      </trkpt>
      <trkpt lat="42.97750399999973" lon="-1.3980549999999992">
        <ele>822.269</ele>
        <time>2022-08-24T13:31:42Z</time>
      </trkpt>
      <trkpt lat="42.97750399999973" lon="-1.3980549999999992">
        <ele>822.082</ele>
        <time>2022-08-24T13:31:43Z</time>
      </trkpt>
      <trkpt lat="42.97750399999973" lon="-1.3980549999999992">
        <ele>821.846</ele>
        <time>2022-08-24T13:31:44Z</time>
      </trkpt>
      <trkpt lat="42.977502999999736" lon="-1.398058999999999">
        <ele>821.645</ele>
        <time>2022-08-24T13:31:45Z</time>
      </trkpt>
      <trkpt lat="42.977513999999736" lon="-1.398086999999999">
        <ele>821.232</ele>
        <time>2022-08-24T13:31:48Z</time>
      </trkpt>
      <trkpt lat="42.97752399999974" lon="-1.398112999999999">
        <ele>820.892</ele>
        <time>2022-08-24T13:31:50Z</time>
      </trkpt>
      <trkpt lat="42.97752499999974" lon="-1.398126999999999">
        <ele>820.811</ele>
        <time>2022-08-24T13:31:51Z</time>
      </trkpt>
      <trkpt lat="42.977530999999736" lon="-1.398153999999999">
        <ele>820.409</ele>
        <time>2022-08-24T13:31:53Z</time>
      </trkpt>
      <trkpt lat="42.977533999999736" lon="-1.398170999999999">
        <ele>819.824</ele>
        <time>2022-08-24T13:31:55Z</time>
      </trkpt>
      <trkpt lat="42.97753499999973" lon="-1.398175999999999">
        <ele>819.254</ele>
        <time>2022-08-24T13:31:57Z</time>
      </trkpt>
      <trkpt lat="42.97753499999973" lon="-1.398175999999999">
        <ele>818.824</ele>
        <time>2022-08-24T13:31:59Z</time>
      </trkpt>
      <trkpt lat="42.97752999999973" lon="-1.398199999999999">
        <ele>818.470</ele>
        <time>2022-08-24T13:32:05Z</time>
      </trkpt>
      <trkpt lat="42.97753099999973" lon="-1.398201999999999">
        <ele>818.242</ele>
        <time>2022-08-24T13:32:07Z</time>
      </trkpt>
      <trkpt lat="42.97753599999973" lon="-1.3982249999999992">
        <ele>817.629</ele>
        <time>2022-08-24T13:32:13Z</time>
      </trkpt>
      <trkpt lat="42.97754799999973" lon="-1.3982519999999992">
        <ele>817.422</ele>
        <time>2022-08-24T13:32:16Z</time>
      </trkpt>
      <trkpt lat="42.97754799999973" lon="-1.3982519999999992">
        <ele>817.066</ele>
        <time>2022-08-24T13:32:20Z</time>
      </trkpt>
      <trkpt lat="42.97754799999973" lon="-1.3982519999999992">
        <ele>816.835</ele>
        <time>2022-08-24T13:32:22Z</time>
      </trkpt>
      <trkpt lat="42.97754799999973" lon="-1.3982519999999992">
        <ele>816.432</ele>
        <time>2022-08-24T13:32:23Z</time>
      </trkpt>
      <trkpt lat="42.97755099999973" lon="-1.3982599999999992">
        <ele>816.292</ele>
        <time>2022-08-24T13:32:24Z</time>
      </trkpt>
      <trkpt lat="42.977554999999725" lon="-1.3982809999999992">
        <ele>816.011</ele>
        <time>2022-08-24T13:32:25Z</time>
      </trkpt>
      <trkpt lat="42.977557999999725" lon="-1.3982929999999991">
        <ele>815.809</ele>
        <time>2022-08-24T13:32:26Z</time>
      </trkpt>
      <trkpt lat="42.97757399999973" lon="-1.398387999999999">
        <ele>814.654</ele>
        <time>2022-08-24T13:32:37Z</time>
      </trkpt>
      <trkpt lat="42.977560999999724" lon="-1.398414999999999">
        <ele>814.424</ele>
        <time>2022-08-24T13:32:41Z</time>
      </trkpt>
      <trkpt lat="42.97755899999972" lon="-1.398415999999999">
        <ele>814.034</ele>
        <time>2022-08-24T13:32:47Z</time>
      </trkpt>
      <trkpt lat="42.977549999999724" lon="-1.398424999999999">
        <ele>814.040</ele>
        <time>2022-08-24T13:32:48Z</time>
      </trkpt>
      <trkpt lat="42.977498999999725" lon="-1.398453999999999">
        <ele>814.082</ele>
        <time>2022-08-24T13:32:51Z</time>
      </trkpt>
      <trkpt lat="42.97747799999973" lon="-1.3984579999999989">
        <ele>813.839</ele>
        <time>2022-08-24T13:32:52Z</time>
      </trkpt>
      <trkpt lat="42.977363999999724" lon="-1.398459999999999">
        <ele>813.282</ele>
        <time>2022-08-24T13:32:56Z</time>
      </trkpt>
      <trkpt lat="42.977340999999726" lon="-1.398455999999999">
        <ele>813.286</ele>
        <time>2022-08-24T13:32:57Z</time>
      </trkpt>
      <trkpt lat="42.97730599999973" lon="-1.398448999999999">
        <ele>813.075</ele>
        <time>2022-08-24T13:32:58Z</time>
      </trkpt>
      <trkpt lat="42.977250999999725" lon="-1.398429999999999">
        <ele>812.842</ele>
        <time>2022-08-24T13:33:00Z</time>
      </trkpt>
      <trkpt lat="42.97719599999972" lon="-1.398408999999999">
        <ele>812.622</ele>
        <time>2022-08-24T13:33:02Z</time>
      </trkpt>
      <trkpt lat="42.97710599999972" lon="-1.398399999999999">
        <ele>812.014</ele>
        <time>2022-08-24T13:33:05Z</time>
      </trkpt>
      <trkpt lat="42.977084999999725" lon="-1.398400999999999">
        <ele>811.409</ele>
        <time>2022-08-24T13:33:06Z</time>
      </trkpt>
      <trkpt lat="42.97705299999973" lon="-1.3984119999999989">
        <ele>811.225</ele>
        <time>2022-08-24T13:33:07Z</time>
      </trkpt>
      <trkpt lat="42.97701399999973" lon="-1.3984239999999988">
        <ele>810.435</ele>
        <time>2022-08-24T13:33:08Z</time>
      </trkpt>
      <trkpt lat="42.97696599999973" lon="-1.3984389999999989">
        <ele>810.295</ele>
        <time>2022-08-24T13:33:09Z</time>
      </trkpt>
      <trkpt lat="42.976938999999724" lon="-1.3984499999999989">
        <ele>809.841</ele>
        <time>2022-08-24T13:33:10Z</time>
      </trkpt>
      <trkpt lat="42.976901999999725" lon="-1.3984619999999988">
        <ele>809.293</ele>
        <time>2022-08-24T13:33:11Z</time>
      </trkpt>
      <trkpt lat="42.976820999999724" lon="-1.3985049999999988">
        <ele>808.280</ele>
        <time>2022-08-24T13:33:14Z</time>
      </trkpt>
      <trkpt lat="42.97680799999972" lon="-1.3985359999999987">
        <ele>807.833</ele>
        <time>2022-08-24T13:33:15Z</time>
      </trkpt>
      <trkpt lat="42.97679799999972" lon="-1.3985719999999986">
        <ele>807.617</ele>
        <time>2022-08-24T13:33:16Z</time>
      </trkpt>
      <trkpt lat="42.976784999999715" lon="-1.3986069999999986">
        <ele>806.456</ele>
        <time>2022-08-24T13:33:17Z</time>
      </trkpt>
      <trkpt lat="42.97676199999972" lon="-1.3986369999999986">
        <ele>805.885</ele>
        <time>2022-08-24T13:33:18Z</time>
      </trkpt>
      <trkpt lat="42.97673299999972" lon="-1.3986519999999987">
        <ele>805.689</ele>
        <time>2022-08-24T13:33:19Z</time>
      </trkpt>
      <trkpt lat="42.97669699999972" lon="-1.3986579999999986">
        <ele>805.417</ele>
        <time>2022-08-24T13:33:20Z</time>
      </trkpt>
      <trkpt lat="42.976660999999716" lon="-1.3986539999999987">
        <ele>805.209</ele>
        <time>2022-08-24T13:33:21Z</time>
      </trkpt>
      <trkpt lat="42.976627999999714" lon="-1.3986459999999987">
        <ele>805.059</ele>
        <time>2022-08-24T13:33:22Z</time>
      </trkpt>
      <trkpt lat="42.97659599999972" lon="-1.3986339999999988">
        <ele>804.819</ele>
        <time>2022-08-24T13:33:23Z</time>
      </trkpt>
      <trkpt lat="42.97656499999972" lon="-1.3986189999999987">
        <ele>804.849</ele>
        <time>2022-08-24T13:33:24Z</time>
      </trkpt>
      <trkpt lat="42.97653599999972" lon="-1.3986119999999986">
        <ele>804.685</ele>
        <time>2022-08-24T13:33:25Z</time>
      </trkpt>
      <trkpt lat="42.97651099999972" lon="-1.3986149999999986">
        <ele>804.677</ele>
        <time>2022-08-24T13:33:26Z</time>
      </trkpt>
      <trkpt lat="42.976491999999716" lon="-1.3986229999999986">
        <ele>804.644</ele>
        <time>2022-08-24T13:33:27Z</time>
      </trkpt>
      <trkpt lat="42.97647199999972" lon="-1.3986309999999986">
        <ele>804.617</ele>
        <time>2022-08-24T13:33:28Z</time>
      </trkpt>
      <trkpt lat="42.976455999999715" lon="-1.3986439999999987">
        <ele>804.671</ele>
        <time>2022-08-24T13:33:29Z</time>
      </trkpt>
      <trkpt lat="42.97644099999972" lon="-1.3986619999999987">
        <ele>804.460</ele>
        <time>2022-08-24T13:33:30Z</time>
      </trkpt>
      <trkpt lat="42.976429999999716" lon="-1.3986809999999987">
        <ele>804.455</ele>
        <time>2022-08-24T13:33:31Z</time>
      </trkpt>
      <trkpt lat="42.976427999999714" lon="-1.3986939999999988">
        <ele>804.407</ele>
        <time>2022-08-24T13:33:32Z</time>
      </trkpt>
      <trkpt lat="42.976421999999715" lon="-1.3987079999999987">
        <ele>804.417</ele>
        <time>2022-08-24T13:33:33Z</time>
      </trkpt>
      <trkpt lat="42.976415999999716" lon="-1.3987239999999987">
        <ele>804.609</ele>
        <time>2022-08-24T13:33:34Z</time>
      </trkpt>
      <trkpt lat="42.97640999999972" lon="-1.3987429999999987">
        <ele>804.656</ele>
        <time>2022-08-24T13:33:35Z</time>
      </trkpt>
      <trkpt lat="42.976404999999716" lon="-1.3987639999999988">
        <ele>804.676</ele>
        <time>2022-08-24T13:33:36Z</time>
      </trkpt>
      <trkpt lat="42.97639599999972" lon="-1.3987809999999987">
        <ele>804.816</ele>
        <time>2022-08-24T13:33:37Z</time>
      </trkpt>
      <trkpt lat="42.976384999999716" lon="-1.3987989999999988">
        <ele>805.072</ele>
        <time>2022-08-24T13:33:38Z</time>
      </trkpt>
      <trkpt lat="42.976373999999716" lon="-1.3988179999999988">
        <ele>805.244</ele>
        <time>2022-08-24T13:33:39Z</time>
      </trkpt>
      <trkpt lat="42.976362999999715" lon="-1.3988319999999987">
        <ele>805.481</ele>
        <time>2022-08-24T13:33:40Z</time>
      </trkpt>
      <trkpt lat="42.97635099999972" lon="-1.3988429999999987">
        <ele>805.834</ele>
        <time>2022-08-24T13:33:41Z</time>
      </trkpt>
      <trkpt lat="42.97633599999972" lon="-1.3988539999999987">
        <ele>806.048</ele>
        <time>2022-08-24T13:33:42Z</time>
      </trkpt>
      <trkpt lat="42.97631999999972" lon="-1.3988679999999987">
        <ele>806.287</ele>
        <time>2022-08-24T13:33:43Z</time>
      </trkpt>
      <trkpt lat="42.976306999999714" lon="-1.3988769999999986">
        <ele>806.624</ele>
        <time>2022-08-24T13:33:44Z</time>
      </trkpt>
      <trkpt lat="42.97628799999971" lon="-1.3989029999999987">
        <ele>807.204</ele>
        <time>2022-08-24T13:33:46Z</time>
      </trkpt>
      <trkpt lat="42.976283999999715" lon="-1.3989159999999987">
        <ele>807.414</ele>
        <time>2022-08-24T13:33:47Z</time>
      </trkpt>
      <trkpt lat="42.97627499999972" lon="-1.3989279999999986">
        <ele>807.609</ele>
        <time>2022-08-24T13:33:48Z</time>
      </trkpt>
      <trkpt lat="42.97624599999972" lon="-1.3989779999999987">
        <ele>808.443</ele>
        <time>2022-08-24T13:33:52Z</time>
      </trkpt>
      <trkpt lat="42.97623799999972" lon="-1.3989909999999988">
        <ele>808.643</ele>
        <time>2022-08-24T13:33:53Z</time>
      </trkpt>
      <trkpt lat="42.97621799999972" lon="-1.3990319999999987">
        <ele>808.833</ele>
        <time>2022-08-24T13:33:55Z</time>
      </trkpt>
      <trkpt lat="42.97619799999972" lon="-1.3990509999999987">
        <ele>808.839</ele>
        <time>2022-08-24T13:33:56Z</time>
      </trkpt>
      <trkpt lat="42.97618899999972" lon="-1.3990639999999988">
        <ele>808.821</ele>
        <time>2022-08-24T13:33:57Z</time>
      </trkpt>
      <trkpt lat="42.97618099999972" lon="-1.3990849999999988">
        <ele>809.248</ele>
        <time>2022-08-24T13:33:58Z</time>
      </trkpt>
      <trkpt lat="42.97616499999972" lon="-1.3991039999999988">
        <ele>809.211</ele>
        <time>2022-08-24T13:33:59Z</time>
      </trkpt>
      <trkpt lat="42.976159999999716" lon="-1.3991179999999988">
        <ele>809.435</ele>
        <time>2022-08-24T13:34:00Z</time>
      </trkpt>
      <trkpt lat="42.976157999999714" lon="-1.3991209999999987">
        <ele>809.874</ele>
        <time>2022-08-24T13:34:01Z</time>
      </trkpt>
      <trkpt lat="42.97615899999971" lon="-1.3991279999999988">
        <ele>810.048</ele>
        <time>2022-08-24T13:34:02Z</time>
      </trkpt>
      <trkpt lat="42.97615099999971" lon="-1.3991309999999988">
        <ele>810.261</ele>
        <time>2022-08-24T13:34:03Z</time>
      </trkpt>
      <trkpt lat="42.97613299999971" lon="-1.3991359999999988">
        <ele>810.417</ele>
        <time>2022-08-24T13:34:04Z</time>
      </trkpt>
      <trkpt lat="42.976126999999714" lon="-1.3991599999999988">
        <ele>810.409</ele>
        <time>2022-08-24T13:34:05Z</time>
      </trkpt>
      <trkpt lat="42.976111999999716" lon="-1.3991789999999988">
        <ele>810.475</ele>
        <time>2022-08-24T13:34:06Z</time>
      </trkpt>
      <trkpt lat="42.97609499999972" lon="-1.3992029999999989">
        <ele>810.845</ele>
        <time>2022-08-24T13:34:07Z</time>
      </trkpt>
      <trkpt lat="42.976075999999715" lon="-1.3992299999999989">
        <ele>811.275</ele>
        <time>2022-08-24T13:34:08Z</time>
      </trkpt>
      <trkpt lat="42.97605799999972" lon="-1.3992489999999989">
        <ele>811.281</ele>
        <time>2022-08-24T13:34:09Z</time>
      </trkpt>
      <trkpt lat="42.97604099999972" lon="-1.399261999999999">
        <ele>811.483</ele>
        <time>2022-08-24T13:34:10Z</time>
      </trkpt>
      <trkpt lat="42.97602999999972" lon="-1.3992659999999988">
        <ele>811.440</ele>
        <time>2022-08-24T13:34:11Z</time>
      </trkpt>
      <trkpt lat="42.976027999999715" lon="-1.3992679999999988">
        <ele>811.663</ele>
        <time>2022-08-24T13:34:12Z</time>
      </trkpt>
      <trkpt lat="42.97601199999971" lon="-1.399269999999999">
        <ele>811.877</ele>
        <time>2022-08-24T13:34:13Z</time>
      </trkpt>
      <trkpt lat="42.97601299999971" lon="-1.399287999999999">
        <ele>812.066</ele>
        <time>2022-08-24T13:34:14Z</time>
      </trkpt>
      <trkpt lat="42.97599799999971" lon="-1.399294999999999">
        <ele>812.282</ele>
        <time>2022-08-24T13:34:15Z</time>
      </trkpt>
      <trkpt lat="42.97599799999971" lon="-1.399306999999999">
        <ele>812.443</ele>
        <time>2022-08-24T13:34:16Z</time>
      </trkpt>
      <trkpt lat="42.97599599999971" lon="-1.399333999999999">
        <ele>812.617</ele>
        <time>2022-08-24T13:34:17Z</time>
      </trkpt>
      <trkpt lat="42.97598999999971" lon="-1.399360999999999">
        <ele>812.609</ele>
        <time>2022-08-24T13:34:18Z</time>
      </trkpt>
      <trkpt lat="42.97598999999971" lon="-1.399381999999999">
        <ele>812.829</ele>
        <time>2022-08-24T13:34:19Z</time>
      </trkpt>
      <trkpt lat="42.97598399999971" lon="-1.399393999999999">
        <ele>812.859</ele>
        <time>2022-08-24T13:34:20Z</time>
      </trkpt>
      <trkpt lat="42.97597599999971" lon="-1.3993999999999989">
        <ele>813.069</ele>
        <time>2022-08-24T13:34:21Z</time>
      </trkpt>
      <trkpt lat="42.975968999999715" lon="-1.399409999999999">
        <ele>813.265</ele>
        <time>2022-08-24T13:34:22Z</time>
      </trkpt>
      <trkpt lat="42.975965999999715" lon="-1.399422999999999">
        <ele>813.487</ele>
        <time>2022-08-24T13:34:23Z</time>
      </trkpt>
      <trkpt lat="42.97595899999972" lon="-1.3994349999999989">
        <ele>813.654</ele>
        <time>2022-08-24T13:34:24Z</time>
      </trkpt>
      <trkpt lat="42.97595099999972" lon="-1.3994429999999989">
        <ele>813.617</ele>
        <time>2022-08-24T13:34:25Z</time>
      </trkpt>
      <trkpt lat="42.97593899999972" lon="-1.399450999999999">
        <ele>813.891</ele>
        <time>2022-08-24T13:34:26Z</time>
      </trkpt>
      <trkpt lat="42.97592699999972" lon="-1.3994569999999988">
        <ele>813.860</ele>
        <time>2022-08-24T13:34:27Z</time>
      </trkpt>
      <trkpt lat="42.97591599999972" lon="-1.399458999999999">
        <ele>814.073</ele>
        <time>2022-08-24T13:34:28Z</time>
      </trkpt>
      <trkpt lat="42.97590299999972" lon="-1.3994679999999988">
        <ele>814.085</ele>
        <time>2022-08-24T13:34:29Z</time>
      </trkpt>
      <trkpt lat="42.97588599999972" lon="-1.399482999999999">
        <ele>814.213</ele>
        <time>2022-08-24T13:34:30Z</time>
      </trkpt>
      <trkpt lat="42.975869999999716" lon="-1.399497999999999">
        <ele>814.209</ele>
        <time>2022-08-24T13:34:31Z</time>
      </trkpt>
      <trkpt lat="42.975847999999715" lon="-1.399513999999999">
        <ele>814.458</ele>
        <time>2022-08-24T13:34:32Z</time>
      </trkpt>
      <trkpt lat="42.975824999999716" lon="-1.399531999999999">
        <ele>814.448</ele>
        <time>2022-08-24T13:34:33Z</time>
      </trkpt>
      <trkpt lat="42.97580199999972" lon="-1.399548999999999">
        <ele>814.638</ele>
        <time>2022-08-24T13:34:34Z</time>
      </trkpt>
      <trkpt lat="42.97578199999972" lon="-1.399562999999999">
        <ele>814.644</ele>
        <time>2022-08-24T13:34:35Z</time>
      </trkpt>
      <trkpt lat="42.975762999999716" lon="-1.399579999999999">
        <ele>814.676</ele>
        <time>2022-08-24T13:34:36Z</time>
      </trkpt>
      <trkpt lat="42.975748999999716" lon="-1.399598999999999">
        <ele>814.683</ele>
        <time>2022-08-24T13:34:37Z</time>
      </trkpt>
      <trkpt lat="42.975732999999714" lon="-1.3996159999999989">
        <ele>814.686</ele>
        <time>2022-08-24T13:34:38Z</time>
      </trkpt>
      <trkpt lat="42.97571699999971" lon="-1.3996359999999988">
        <ele>814.820</ele>
        <time>2022-08-24T13:34:39Z</time>
      </trkpt>
      <trkpt lat="42.975698999999715" lon="-1.3996569999999988">
        <ele>814.879</ele>
        <time>2022-08-24T13:34:40Z</time>
      </trkpt>
      <trkpt lat="42.975684999999714" lon="-1.3996809999999988">
        <ele>814.838</ele>
        <time>2022-08-24T13:34:41Z</time>
      </trkpt>
      <trkpt lat="42.97566399999972" lon="-1.3997049999999989">
        <ele>815.070</ele>
        <time>2022-08-24T13:34:42Z</time>
      </trkpt>
      <trkpt lat="42.97565499999972" lon="-1.399722999999999">
        <ele>815.017</ele>
        <time>2022-08-24T13:34:43Z</time>
      </trkpt>
      <trkpt lat="42.97563899999972" lon="-1.399743999999999">
        <ele>815.009</ele>
        <time>2022-08-24T13:34:44Z</time>
      </trkpt>
      <trkpt lat="42.975625999999714" lon="-1.399764999999999">
        <ele>815.284</ele>
        <time>2022-08-24T13:34:45Z</time>
      </trkpt>
      <trkpt lat="42.97561099999972" lon="-1.399784999999999">
        <ele>815.654</ele>
        <time>2022-08-24T13:34:46Z</time>
      </trkpt>
      <trkpt lat="42.97559899999972" lon="-1.3998019999999989">
        <ele>815.664</ele>
        <time>2022-08-24T13:34:47Z</time>
      </trkpt>
      <trkpt lat="42.97554999999972" lon="-1.399881999999999">
        <ele>816.260</ele>
        <time>2022-08-24T13:34:51Z</time>
      </trkpt>
      <trkpt lat="42.97553999999972" lon="-1.399900999999999">
        <ele>816.232</ele>
        <time>2022-08-24T13:34:52Z</time>
      </trkpt>
      <trkpt lat="42.97551999999972" lon="-1.3999319999999988">
        <ele>816.289</ele>
        <time>2022-08-24T13:34:54Z</time>
      </trkpt>
      <trkpt lat="42.97547399999972" lon="-1.4000029999999988">
        <ele>816.842</ele>
        <time>2022-08-24T13:34:58Z</time>
      </trkpt>
      <trkpt lat="42.97546199999972" lon="-1.4000179999999989">
        <ele>817.066</ele>
        <time>2022-08-24T13:34:59Z</time>
      </trkpt>
      <trkpt lat="42.97543099999972" lon="-1.400046999999999">
        <ele>817.255</ele>
        <time>2022-08-24T13:35:01Z</time>
      </trkpt>
      <trkpt lat="42.975421999999725" lon="-1.400060999999999">
        <ele>817.476</ele>
        <time>2022-08-24T13:35:02Z</time>
      </trkpt>
      <trkpt lat="42.97540699999973" lon="-1.4000729999999988">
        <ele>817.490</ele>
        <time>2022-08-24T13:35:03Z</time>
      </trkpt>
      <trkpt lat="42.97538999999973" lon="-1.4000839999999988">
        <ele>817.819</ele>
        <time>2022-08-24T13:35:04Z</time>
      </trkpt>
      <trkpt lat="42.975376999999725" lon="-1.4000959999999987">
        <ele>817.809</ele>
        <time>2022-08-24T13:35:05Z</time>
      </trkpt>
      <trkpt lat="42.97536099999972" lon="-1.4001069999999987">
        <ele>817.838</ele>
        <time>2022-08-24T13:35:06Z</time>
      </trkpt>
      <trkpt lat="42.97534799999972" lon="-1.4001209999999986">
        <ele>818.258</ele>
        <time>2022-08-24T13:35:07Z</time>
      </trkpt>
      <trkpt lat="42.97533499999972" lon="-1.4001389999999987">
        <ele>818.288</ele>
        <time>2022-08-24T13:35:08Z</time>
      </trkpt>
      <trkpt lat="42.975329999999715" lon="-1.4001599999999987">
        <ele>818.274</ele>
        <time>2022-08-24T13:35:09Z</time>
      </trkpt>
      <trkpt lat="42.975315999999715" lon="-1.4001789999999987">
        <ele>818.226</ele>
        <time>2022-08-24T13:35:10Z</time>
      </trkpt>
      <trkpt lat="42.97530099999972" lon="-1.4001959999999987">
        <ele>818.433</ele>
        <time>2022-08-24T13:35:11Z</time>
      </trkpt>
      <trkpt lat="42.97527799999972" lon="-1.4002179999999986">
        <ele>818.486</ele>
        <time>2022-08-24T13:35:12Z</time>
      </trkpt>
      <trkpt lat="42.97525799999972" lon="-1.4002429999999986">
        <ele>818.630</ele>
        <time>2022-08-24T13:35:13Z</time>
      </trkpt>
      <trkpt lat="42.97523599999972" lon="-1.4002739999999985">
        <ele>818.639</ele>
        <time>2022-08-24T13:35:14Z</time>
      </trkpt>
      <trkpt lat="42.97521599999972" lon="-1.4003049999999984">
        <ele>818.673</ele>
        <time>2022-08-24T13:35:15Z</time>
      </trkpt>
      <trkpt lat="42.97519599999972" lon="-1.4003359999999982">
        <ele>818.685</ele>
        <time>2022-08-24T13:35:16Z</time>
      </trkpt>
      <trkpt lat="42.97517599999972" lon="-1.4003639999999982">
        <ele>818.813</ele>
        <time>2022-08-24T13:35:17Z</time>
      </trkpt>
      <trkpt lat="42.97515399999972" lon="-1.400394999999998">
        <ele>819.009</ele>
        <time>2022-08-24T13:35:18Z</time>
      </trkpt>
      <trkpt lat="42.97513399999972" lon="-1.400424999999998">
        <ele>819.058</ele>
        <time>2022-08-24T13:35:19Z</time>
      </trkpt>
      <trkpt lat="42.97510599999972" lon="-1.400454999999998">
        <ele>819.058</ele>
        <time>2022-08-24T13:35:20Z</time>
      </trkpt>
      <trkpt lat="42.97507799999972" lon="-1.400480999999998">
        <ele>819.278</ele>
        <time>2022-08-24T13:35:21Z</time>
      </trkpt>
      <trkpt lat="42.97505299999972" lon="-1.4005069999999982">
        <ele>819.274</ele>
        <time>2022-08-24T13:35:22Z</time>
      </trkpt>
      <trkpt lat="42.975028999999715" lon="-1.400534999999998">
        <ele>819.476</ele>
        <time>2022-08-24T13:35:23Z</time>
      </trkpt>
      <trkpt lat="42.975003999999714" lon="-1.400561999999998">
        <ele>819.413</ele>
        <time>2022-08-24T13:35:24Z</time>
      </trkpt>
      <trkpt lat="42.974885999999714" lon="-1.400699999999998">
        <ele>819.476</ele>
        <time>2022-08-24T13:35:29Z</time>
      </trkpt>
      <trkpt lat="42.974701999999716" lon="-1.400897999999998">
        <ele>819.040</ele>
        <time>2022-08-24T13:35:35Z</time>
      </trkpt>
      <trkpt lat="42.97459399999972" lon="-1.401000999999998">
        <ele>818.679</ele>
        <time>2022-08-24T13:35:38Z</time>
      </trkpt>
      <trkpt lat="42.97456099999972" lon="-1.401034999999998">
        <ele>818.483</ele>
        <time>2022-08-24T13:35:39Z</time>
      </trkpt>
      <trkpt lat="42.974527999999715" lon="-1.401067999999998">
        <ele>818.625</ele>
        <time>2022-08-24T13:35:40Z</time>
      </trkpt>
      <trkpt lat="42.97446199999972" lon="-1.4011339999999979">
        <ele>818.417</ele>
        <time>2022-08-24T13:35:42Z</time>
      </trkpt>
      <trkpt lat="42.97442499999972" lon="-1.401162999999998">
        <ele>818.209</ele>
        <time>2022-08-24T13:35:43Z</time>
      </trkpt>
      <trkpt lat="42.97421699999972" lon="-1.401380999999998">
        <ele>817.469</ele>
        <time>2022-08-24T13:35:49Z</time>
      </trkpt>
      <trkpt lat="42.974147999999715" lon="-1.401475999999998">
        <ele>817.299</ele>
        <time>2022-08-24T13:35:51Z</time>
      </trkpt>
      <trkpt lat="42.974021999999714" lon="-1.4017089999999979">
        <ele>816.899</ele>
        <time>2022-08-24T13:35:55Z</time>
      </trkpt>
      <trkpt lat="42.973970999999715" lon="-1.4018279999999979">
        <ele>816.495</ele>
        <time>2022-08-24T13:35:57Z</time>
      </trkpt>
      <trkpt lat="42.973945999999714" lon="-1.4018909999999978">
        <ele>816.287</ele>
        <time>2022-08-24T13:35:58Z</time>
      </trkpt>
      <trkpt lat="42.97387899999971" lon="-1.4020919999999977">
        <ele>815.264</ele>
        <time>2022-08-24T13:36:01Z</time>
      </trkpt>
      <trkpt lat="42.97383399999971" lon="-1.4022289999999977">
        <ele>813.637</ele>
        <time>2022-08-24T13:36:03Z</time>
      </trkpt>
      <trkpt lat="42.97380999999971" lon="-1.4023099999999977">
        <ele>812.841</ele>
        <time>2022-08-24T13:36:04Z</time>
      </trkpt>
      <trkpt lat="42.97378399999971" lon="-1.4023809999999977">
        <ele>812.430</ele>
        <time>2022-08-24T13:36:05Z</time>
      </trkpt>
      <trkpt lat="42.97367799999971" lon="-1.4025839999999976">
        <ele>811.477</ele>
        <time>2022-08-24T13:36:08Z</time>
      </trkpt>
      <trkpt lat="42.97363299999971" lon="-1.4026479999999977">
        <ele>810.661</ele>
        <time>2022-08-24T13:36:09Z</time>
      </trkpt>
      <trkpt lat="42.97359799999971" lon="-1.4026999999999976">
        <ele>810.027</ele>
        <time>2022-08-24T13:36:10Z</time>
      </trkpt>
      <trkpt lat="42.97355299999971" lon="-1.4027599999999976">
        <ele>809.209</ele>
        <time>2022-08-24T13:36:11Z</time>
      </trkpt>
      <trkpt lat="42.97350499999971" lon="-1.4028169999999975">
        <ele>809.068</ele>
        <time>2022-08-24T13:36:12Z</time>
      </trkpt>
      <trkpt lat="42.97340699999971" lon="-1.4029349999999976">
        <ele>807.678</ele>
        <time>2022-08-24T13:36:14Z</time>
      </trkpt>
      <trkpt lat="42.97336099999971" lon="-1.4029899999999975">
        <ele>806.848</ele>
        <time>2022-08-24T13:36:15Z</time>
      </trkpt>
      <trkpt lat="42.973323999999714" lon="-1.4030439999999975">
        <ele>805.624</ele>
        <time>2022-08-24T13:36:16Z</time>
      </trkpt>
      <trkpt lat="42.97327999999971" lon="-1.4031009999999975">
        <ele>805.226</ele>
        <time>2022-08-24T13:36:17Z</time>
      </trkpt>
      <trkpt lat="42.97324199999971" lon="-1.4031399999999974">
        <ele>804.473</ele>
        <time>2022-08-24T13:36:18Z</time>
      </trkpt>
      <trkpt lat="42.97320699999971" lon="-1.4031819999999975">
        <ele>803.846</ele>
        <time>2022-08-24T13:36:19Z</time>
      </trkpt>
      <trkpt lat="42.97317699999971" lon="-1.4032199999999975">
        <ele>802.880</ele>
        <time>2022-08-24T13:36:20Z</time>
      </trkpt>
      <trkpt lat="42.97313099999971" lon="-1.4032739999999975">
        <ele>802.089</ele>
        <time>2022-08-24T13:36:21Z</time>
      </trkpt>
      <trkpt lat="42.97307999999971" lon="-1.4033419999999974">
        <ele>801.846</ele>
        <time>2022-08-24T13:36:22Z</time>
      </trkpt>
      <trkpt lat="42.97300799999971" lon="-1.4034669999999974">
        <ele>800.888</ele>
        <time>2022-08-24T13:36:24Z</time>
      </trkpt>
      <trkpt lat="42.972980999999706" lon="-1.4035099999999974">
        <ele>800.416</ele>
        <time>2022-08-24T13:36:25Z</time>
      </trkpt>
      <trkpt lat="42.972910999999705" lon="-1.4036279999999974">
        <ele>799.209</ele>
        <time>2022-08-24T13:36:27Z</time>
      </trkpt>
      <trkpt lat="42.97288999999971" lon="-1.4036719999999974">
        <ele>798.655</ele>
        <time>2022-08-24T13:36:28Z</time>
      </trkpt>
      <trkpt lat="42.97286099999971" lon="-1.4037249999999974">
        <ele>798.475</ele>
        <time>2022-08-24T13:36:29Z</time>
      </trkpt>
      <trkpt lat="42.97282999999971" lon="-1.4037809999999975">
        <ele>797.435</ele>
        <time>2022-08-24T13:36:30Z</time>
      </trkpt>
      <trkpt lat="42.97279299999971" lon="-1.4038389999999974">
        <ele>796.881</ele>
        <time>2022-08-24T13:36:31Z</time>
      </trkpt>
      <trkpt lat="42.97273099999971" lon="-1.4039009999999974">
        <ele>795.823</ele>
        <time>2022-08-24T13:36:32Z</time>
      </trkpt>
      <trkpt lat="42.97266699999971" lon="-1.4039429999999975">
        <ele>794.810</ele>
        <time>2022-08-24T13:36:33Z</time>
      </trkpt>
      <trkpt lat="42.97260299999971" lon="-1.4039759999999974">
        <ele>793.683</ele>
        <time>2022-08-24T13:36:34Z</time>
      </trkpt>
      <trkpt lat="42.97255099999971" lon="-1.4039959999999974">
        <ele>792.867</ele>
        <time>2022-08-24T13:36:35Z</time>
      </trkpt>
      <trkpt lat="42.97248599999971" lon="-1.4040189999999975">
        <ele>792.456</ele>
        <time>2022-08-24T13:36:36Z</time>
      </trkpt>
      <trkpt lat="42.97241099999971" lon="-1.4040409999999974">
        <ele>791.428</ele>
        <time>2022-08-24T13:36:37Z</time>
      </trkpt>
      <trkpt lat="42.97235099999971" lon="-1.4040579999999974">
        <ele>790.689</ele>
        <time>2022-08-24T13:36:38Z</time>
      </trkpt>
      <trkpt lat="42.97230399999971" lon="-1.4040669999999973">
        <ele>789.617</ele>
        <time>2022-08-24T13:36:39Z</time>
      </trkpt>
      <trkpt lat="42.97224799999971" lon="-1.4040749999999973">
        <ele>788.209</ele>
        <time>2022-08-24T13:36:40Z</time>
      </trkpt>
      <trkpt lat="42.97219699999971" lon="-1.4040769999999974">
        <ele>787.423</ele>
        <time>2022-08-24T13:36:41Z</time>
      </trkpt>
      <trkpt lat="42.97215399999971" lon="-1.4040759999999974">
        <ele>786.423</ele>
        <time>2022-08-24T13:36:42Z</time>
      </trkpt>
      <trkpt lat="42.97211699999971" lon="-1.4040719999999975">
        <ele>786.043</ele>
        <time>2022-08-24T13:36:43Z</time>
      </trkpt>
      <trkpt lat="42.97208599999971" lon="-1.4040679999999977">
        <ele>785.449</ele>
        <time>2022-08-24T13:36:44Z</time>
      </trkpt>
      <trkpt lat="42.972050999999716" lon="-1.4040699999999977">
        <ele>785.271</ele>
        <time>2022-08-24T13:36:45Z</time>
      </trkpt>
      <trkpt lat="42.971977999999716" lon="-1.4040909999999978">
        <ele>784.028</ele>
        <time>2022-08-24T13:36:47Z</time>
      </trkpt>
      <trkpt lat="42.971958999999714" lon="-1.4041099999999977">
        <ele>783.411</ele>
        <time>2022-08-24T13:36:48Z</time>
      </trkpt>
      <trkpt lat="42.971943999999716" lon="-1.4041259999999978">
        <ele>782.685</ele>
        <time>2022-08-24T13:36:49Z</time>
      </trkpt>
      <trkpt lat="42.971932999999716" lon="-1.4041469999999978">
        <ele>782.024</ele>
        <time>2022-08-24T13:36:50Z</time>
      </trkpt>
      <trkpt lat="42.97190699999972" lon="-1.4041949999999979">
        <ele>781.228</ele>
        <time>2022-08-24T13:36:51Z</time>
      </trkpt>
      <trkpt lat="42.97189999999972" lon="-1.404247999999998">
        <ele>780.889</ele>
        <time>2022-08-24T13:36:52Z</time>
      </trkpt>
      <trkpt lat="42.97189499999972" lon="-1.4042919999999979">
        <ele>780.417</ele>
        <time>2022-08-24T13:36:53Z</time>
      </trkpt>
      <trkpt lat="42.971870999999716" lon="-1.404341999999998">
        <ele>780.009</ele>
        <time>2022-08-24T13:36:54Z</time>
      </trkpt>
      <trkpt lat="42.97185899999972" lon="-1.404396999999998">
        <ele>779.453</ele>
        <time>2022-08-24T13:36:55Z</time>
      </trkpt>
      <trkpt lat="42.97183799999972" lon="-1.4044699999999979">
        <ele>778.663</ele>
        <time>2022-08-24T13:36:56Z</time>
      </trkpt>
      <trkpt lat="42.971836999999724" lon="-1.404595999999998">
        <ele>777.653</ele>
        <time>2022-08-24T13:36:58Z</time>
      </trkpt>
      <trkpt lat="42.97182299999972" lon="-1.404665999999998">
        <ele>776.489</ele>
        <time>2022-08-24T13:36:59Z</time>
      </trkpt>
      <trkpt lat="42.971818999999726" lon="-1.4047239999999979">
        <ele>776.041</ele>
        <time>2022-08-24T13:37:00Z</time>
      </trkpt>
      <trkpt lat="42.97180399999973" lon="-1.404771999999998">
        <ele>774.848</ele>
        <time>2022-08-24T13:37:01Z</time>
      </trkpt>
      <trkpt lat="42.97181699999973" lon="-1.4048289999999979">
        <ele>774.481</ele>
        <time>2022-08-24T13:37:02Z</time>
      </trkpt>
      <trkpt lat="42.97182199999973" lon="-1.404879999999998">
        <ele>773.265</ele>
        <time>2022-08-24T13:37:03Z</time>
      </trkpt>
      <trkpt lat="42.97180899999973" lon="-1.4049289999999979">
        <ele>772.834</ele>
        <time>2022-08-24T13:37:04Z</time>
      </trkpt>
      <trkpt lat="42.97178999999973" lon="-1.404979999999998">
        <ele>771.434</ele>
        <time>2022-08-24T13:37:05Z</time>
      </trkpt>
      <trkpt lat="42.971762999999726" lon="-1.405019999999998">
        <ele>770.455</ele>
        <time>2022-08-24T13:37:06Z</time>
      </trkpt>
      <trkpt lat="42.971683999999726" lon="-1.405075999999998">
        <ele>769.010</ele>
        <time>2022-08-24T13:37:08Z</time>
      </trkpt>
      <trkpt lat="42.97163599999973" lon="-1.405090999999998">
        <ele>768.609</ele>
        <time>2022-08-24T13:37:09Z</time>
      </trkpt>
      <trkpt lat="42.97157599999973" lon="-1.4051009999999982">
        <ele>767.644</ele>
        <time>2022-08-24T13:37:10Z</time>
      </trkpt>
      <trkpt lat="42.97153399999973" lon="-1.405104999999998">
        <ele>767.494</ele>
        <time>2022-08-24T13:37:11Z</time>
      </trkpt>
      <trkpt lat="42.97147399999973" lon="-1.405109999999998">
        <ele>767.094</ele>
        <time>2022-08-24T13:37:12Z</time>
      </trkpt>
      <trkpt lat="42.97143599999973" lon="-1.4051169999999982">
        <ele>766.620</ele>
        <time>2022-08-24T13:37:13Z</time>
      </trkpt>
      <trkpt lat="42.971391999999724" lon="-1.4051249999999982">
        <ele>766.492</ele>
        <time>2022-08-24T13:37:14Z</time>
      </trkpt>
      <trkpt lat="42.971343999999725" lon="-1.4051419999999981">
        <ele>765.849</ele>
        <time>2022-08-24T13:37:15Z</time>
      </trkpt>
      <trkpt lat="42.97130599999972" lon="-1.405169999999998">
        <ele>765.462</ele>
        <time>2022-08-24T13:37:16Z</time>
      </trkpt>
      <trkpt lat="42.97127699999972" lon="-1.405205999999998">
        <ele>764.686</ele>
        <time>2022-08-24T13:37:17Z</time>
      </trkpt>
      <trkpt lat="42.971250999999725" lon="-1.4052369999999978">
        <ele>764.025</ele>
        <time>2022-08-24T13:37:18Z</time>
      </trkpt>
      <trkpt lat="42.97122699999972" lon="-1.4052749999999978">
        <ele>763.884</ele>
        <time>2022-08-24T13:37:19Z</time>
      </trkpt>
      <trkpt lat="42.97120099999972" lon="-1.4053179999999978">
        <ele>763.407</ele>
        <time>2022-08-24T13:37:20Z</time>
      </trkpt>
      <trkpt lat="42.971183999999724" lon="-1.4053499999999979">
        <ele>763.217</ele>
        <time>2022-08-24T13:37:21Z</time>
      </trkpt>
      <trkpt lat="42.971160999999725" lon="-1.4053909999999978">
        <ele>762.009</ele>
        <time>2022-08-24T13:37:22Z</time>
      </trkpt>
      <trkpt lat="42.97113199999973" lon="-1.405440999999998">
        <ele>761.439</ele>
        <time>2022-08-24T13:37:23Z</time>
      </trkpt>
      <trkpt lat="42.971109999999726" lon="-1.405473999999998">
        <ele>760.839</ele>
        <time>2022-08-24T13:37:24Z</time>
      </trkpt>
      <trkpt lat="42.97108299999972" lon="-1.4055149999999978">
        <ele>760.229</ele>
        <time>2022-08-24T13:37:25Z</time>
      </trkpt>
      <trkpt lat="42.97104399999972" lon="-1.405564999999998">
        <ele>759.635</ele>
        <time>2022-08-24T13:37:26Z</time>
      </trkpt>
      <trkpt lat="42.97097899999972" lon="-1.405634999999998">
        <ele>758.277</ele>
        <time>2022-08-24T13:37:28Z</time>
      </trkpt>
      <trkpt lat="42.97095099999972" lon="-1.405670999999998">
        <ele>757.214</ele>
        <time>2022-08-24T13:37:29Z</time>
      </trkpt>
      <trkpt lat="42.970915999999725" lon="-1.405707999999998">
        <ele>757.027</ele>
        <time>2022-08-24T13:37:30Z</time>
      </trkpt>
      <trkpt lat="42.97088899999972" lon="-1.405742999999998">
        <ele>756.231</ele>
        <time>2022-08-24T13:37:31Z</time>
      </trkpt>
      <trkpt lat="42.97086199999972" lon="-1.405780999999998">
        <ele>755.870</ele>
        <time>2022-08-24T13:37:32Z</time>
      </trkpt>
      <trkpt lat="42.97084499999972" lon="-1.405812999999998">
        <ele>755.644</ele>
        <time>2022-08-24T13:37:33Z</time>
      </trkpt>
      <trkpt lat="42.97083299999972" lon="-1.4058519999999979">
        <ele>755.005</ele>
        <time>2022-08-24T13:37:34Z</time>
      </trkpt>
      <trkpt lat="42.970825999999725" lon="-1.405885999999998">
        <ele>754.615</ele>
        <time>2022-08-24T13:37:35Z</time>
      </trkpt>
      <trkpt lat="42.97082199999973" lon="-1.4059139999999979">
        <ele>753.609</ele>
        <time>2022-08-24T13:37:36Z</time>
      </trkpt>
      <trkpt lat="42.97082699999973" lon="-1.4059409999999979">
        <ele>752.625</ele>
        <time>2022-08-24T13:37:37Z</time>
      </trkpt>
      <trkpt lat="42.97083699999973" lon="-1.4059629999999979">
        <ele>752.225</ele>
        <time>2022-08-24T13:37:38Z</time>
      </trkpt>
      <trkpt lat="42.97085199999973" lon="-1.4059989999999978">
        <ele>751.435</ele>
        <time>2022-08-24T13:37:39Z</time>
      </trkpt>
      <trkpt lat="42.97086299999973" lon="-1.4060389999999978">
        <ele>751.041</ele>
        <time>2022-08-24T13:37:40Z</time>
      </trkpt>
      <trkpt lat="42.97087399999973" lon="-1.4060859999999977">
        <ele>750.433</ele>
        <time>2022-08-24T13:37:41Z</time>
      </trkpt>
      <trkpt lat="42.97088299999973" lon="-1.4061219999999977">
        <ele>750.490</ele>
        <time>2022-08-24T13:37:42Z</time>
      </trkpt>
      <trkpt lat="42.97088499999973" lon="-1.4061539999999977">
        <ele>750.033</ele>
        <time>2022-08-24T13:37:43Z</time>
      </trkpt>
      <trkpt lat="42.97089199999973" lon="-1.4061909999999977">
        <ele>749.617</ele>
        <time>2022-08-24T13:37:44Z</time>
      </trkpt>
      <trkpt lat="42.97089699999973" lon="-1.4062229999999978">
        <ele>749.486</ele>
        <time>2022-08-24T13:37:45Z</time>
      </trkpt>
      <trkpt lat="42.97089699999973" lon="-1.4062599999999978">
        <ele>748.851</ele>
        <time>2022-08-24T13:37:46Z</time>
      </trkpt>
      <trkpt lat="42.97089599999973" lon="-1.4063149999999978">
        <ele>748.001</ele>
        <time>2022-08-24T13:37:48Z</time>
      </trkpt>
      <trkpt lat="42.97089599999973" lon="-1.4063399999999977">
        <ele>748.011</ele>
        <time>2022-08-24T13:37:49Z</time>
      </trkpt>
      <trkpt lat="42.97090199999973" lon="-1.4063629999999978">
        <ele>747.409</ele>
        <time>2022-08-24T13:37:50Z</time>
      </trkpt>
      <trkpt lat="42.970914999999735" lon="-1.4063929999999978">
        <ele>746.816</ele>
        <time>2022-08-24T13:37:51Z</time>
      </trkpt>
      <trkpt lat="42.97092999999973" lon="-1.4064149999999978">
        <ele>746.896</ele>
        <time>2022-08-24T13:37:52Z</time>
      </trkpt>
      <trkpt lat="42.970939999999736" lon="-1.4064349999999977">
        <ele>746.496</ele>
        <time>2022-08-24T13:37:53Z</time>
      </trkpt>
      <trkpt lat="42.97094699999973" lon="-1.4064559999999977">
        <ele>746.432</ele>
        <time>2022-08-24T13:37:54Z</time>
      </trkpt>
      <trkpt lat="42.97095099999973" lon="-1.4064649999999976">
        <ele>746.444</ele>
        <time>2022-08-24T13:37:55Z</time>
      </trkpt>
      <trkpt lat="42.97095199999973" lon="-1.4065299999999976">
        <ele>747.411</ele>
        <time>2022-08-24T13:38:06Z</time>
      </trkpt>
      <trkpt lat="42.970955999999724" lon="-1.4065549999999976">
        <ele>747.484</ele>
        <time>2022-08-24T13:38:08Z</time>
      </trkpt>
      <trkpt lat="42.970957999999726" lon="-1.4066249999999976">
        <ele>748.268</ele>
        <time>2022-08-24T13:38:12Z</time>
      </trkpt>
      <trkpt lat="42.97095399999973" lon="-1.4066849999999975">
        <ele>748.687</ele>
        <time>2022-08-24T13:38:15Z</time>
      </trkpt>
      <trkpt lat="42.97094899999973" lon="-1.4067059999999976">
        <ele>748.847</ele>
        <time>2022-08-24T13:38:18Z</time>
      </trkpt>
      <trkpt lat="42.97094899999973" lon="-1.4067059999999976">
        <ele>748.829</ele>
        <time>2022-08-24T13:38:19Z</time>
      </trkpt>
      <trkpt lat="42.97094899999973" lon="-1.4067059999999976">
        <ele>749.021</ele>
        <time>2022-08-24T13:38:31Z</time>
      </trkpt>
      <trkpt lat="42.97094899999973" lon="-1.4067099999999975">
        <ele>749.009</ele>
        <time>2022-08-24T13:38:32Z</time>
      </trkpt>
      <trkpt lat="42.970988999999726" lon="-1.4068849999999975">
        <ele>749.075</ele>
        <time>2022-08-24T13:38:38Z</time>
      </trkpt>
      <trkpt lat="42.97100999999972" lon="-1.4069319999999974">
        <ele>749.065</ele>
        <time>2022-08-24T13:38:40Z</time>
      </trkpt>
      <trkpt lat="42.97105499999972" lon="-1.4070439999999973">
        <ele>749.075</ele>
        <time>2022-08-24T13:38:44Z</time>
      </trkpt>
      <trkpt lat="42.971062999999724" lon="-1.4070619999999974">
        <ele>749.031</ele>
        <time>2022-08-24T13:38:45Z</time>
      </trkpt>
      <trkpt lat="42.971067999999725" lon="-1.4070759999999973">
        <ele>749.033</ele>
        <time>2022-08-24T13:38:46Z</time>
      </trkpt>
      <trkpt lat="42.971078999999726" lon="-1.4070939999999974">
        <ele>749.070</ele>
        <time>2022-08-24T13:38:47Z</time>
      </trkpt>
      <trkpt lat="42.97113099999972" lon="-1.4071569999999973">
        <ele>749.263</ele>
        <time>2022-08-24T13:38:51Z</time>
      </trkpt>
      <trkpt lat="42.971149999999724" lon="-1.4071809999999974">
        <ele>749.467</ele>
        <time>2022-08-24T13:38:52Z</time>
      </trkpt>
      <trkpt lat="42.97117699999973" lon="-1.4072309999999975">
        <ele>749.466</ele>
        <time>2022-08-24T13:38:54Z</time>
      </trkpt>
      <trkpt lat="42.971183999999724" lon="-1.4072479999999974">
        <ele>749.452</ele>
        <time>2022-08-24T13:38:55Z</time>
      </trkpt>
      <trkpt lat="42.97119399999973" lon="-1.4072699999999974">
        <ele>749.453</ele>
        <time>2022-08-24T13:38:56Z</time>
      </trkpt>
      <trkpt lat="42.97120199999973" lon="-1.4072919999999973">
        <ele>749.408</ele>
        <time>2022-08-24T13:38:57Z</time>
      </trkpt>
      <trkpt lat="42.97121499999973" lon="-1.4073379999999973">
        <ele>749.609</ele>
        <time>2022-08-24T13:38:59Z</time>
      </trkpt>
      <trkpt lat="42.97122299999973" lon="-1.4073629999999973">
        <ele>749.696</ele>
        <time>2022-08-24T13:39:00Z</time>
      </trkpt>
      <trkpt lat="42.97125699999973" lon="-1.4074619999999973">
        <ele>750.066</ele>
        <time>2022-08-24T13:39:04Z</time>
      </trkpt>
      <trkpt lat="42.97126599999973" lon="-1.4074769999999974">
        <ele>750.266</ele>
        <time>2022-08-24T13:39:05Z</time>
      </trkpt>
      <trkpt lat="42.97129099999973" lon="-1.4075319999999973">
        <ele>750.462</ele>
        <time>2022-08-24T13:39:07Z</time>
      </trkpt>
      <trkpt lat="42.97132799999973" lon="-1.4076129999999973">
        <ele>750.624</ele>
        <time>2022-08-24T13:39:11Z</time>
      </trkpt>
      <trkpt lat="42.97133699999973" lon="-1.4076359999999974">
        <ele>750.641</ele>
        <time>2022-08-24T13:39:12Z</time>
      </trkpt>
      <trkpt lat="42.97134199999973" lon="-1.4076599999999975">
        <ele>750.834</ele>
        <time>2022-08-24T13:39:13Z</time>
      </trkpt>
      <trkpt lat="42.97134599999973" lon="-1.4076829999999976">
        <ele>750.848</ele>
        <time>2022-08-24T13:39:14Z</time>
      </trkpt>
      <trkpt lat="42.97134499999973" lon="-1.4077019999999976">
        <ele>751.087</ele>
        <time>2022-08-24T13:39:15Z</time>
      </trkpt>
      <trkpt lat="42.97134799999973" lon="-1.4077239999999975">
        <ele>751.274</ele>
        <time>2022-08-24T13:39:16Z</time>
      </trkpt>
      <trkpt lat="42.971351999999726" lon="-1.4077489999999975">
        <ele>751.456</ele>
        <time>2022-08-24T13:39:17Z</time>
      </trkpt>
      <trkpt lat="42.97135099999973" lon="-1.4077749999999976">
        <ele>751.421</ele>
        <time>2022-08-24T13:39:18Z</time>
      </trkpt>
      <trkpt lat="42.971337999999726" lon="-1.4079079999999975">
        <ele>752.009</ele>
        <time>2022-08-24T13:39:24Z</time>
      </trkpt>
      <trkpt lat="42.97133399999973" lon="-1.4079249999999974">
        <ele>752.228</ele>
        <time>2022-08-24T13:39:25Z</time>
      </trkpt>
      <trkpt lat="42.97132799999973" lon="-1.4079449999999973">
        <ele>752.478</ele>
        <time>2022-08-24T13:39:26Z</time>
      </trkpt>
      <trkpt lat="42.97130199999973" lon="-1.4080129999999973">
        <ele>752.618</ele>
        <time>2022-08-24T13:39:29Z</time>
      </trkpt>
      <trkpt lat="42.97129399999973" lon="-1.4080399999999973">
        <ele>752.874</ele>
        <time>2022-08-24T13:39:30Z</time>
      </trkpt>
      <trkpt lat="42.97126599999973" lon="-1.4081329999999972">
        <ele>753.276</ele>
        <time>2022-08-24T13:39:34Z</time>
      </trkpt>
      <trkpt lat="42.97126099999973" lon="-1.4081499999999971">
        <ele>753.473</ele>
        <time>2022-08-24T13:39:35Z</time>
      </trkpt>
      <trkpt lat="42.97124999999973" lon="-1.408174999999997">
        <ele>753.466</ele>
        <time>2022-08-24T13:39:36Z</time>
      </trkpt>
      <trkpt lat="42.97123199999973" lon="-1.4082229999999971">
        <ele>753.670</ele>
        <time>2022-08-24T13:39:38Z</time>
      </trkpt>
      <trkpt lat="42.97121399999973" lon="-1.408266999999997">
        <ele>753.849</ele>
        <time>2022-08-24T13:39:40Z</time>
      </trkpt>
      <trkpt lat="42.97120399999973" lon="-1.408286999999997">
        <ele>753.889</ele>
        <time>2022-08-24T13:39:41Z</time>
      </trkpt>
      <trkpt lat="42.97119599999973" lon="-1.408305999999997">
        <ele>753.806</ele>
        <time>2022-08-24T13:39:42Z</time>
      </trkpt>
      <trkpt lat="42.971168999999726" lon="-1.408392999999997">
        <ele>754.626</ele>
        <time>2022-08-24T13:39:46Z</time>
      </trkpt>
      <trkpt lat="42.97116599999973" lon="-1.408415999999997">
        <ele>754.809</ele>
        <time>2022-08-24T13:39:47Z</time>
      </trkpt>
      <trkpt lat="42.971160999999725" lon="-1.408431999999997">
        <ele>754.879</ele>
        <time>2022-08-24T13:39:48Z</time>
      </trkpt>
      <trkpt lat="42.97115399999973" lon="-1.408458999999997">
        <ele>755.039</ele>
        <time>2022-08-24T13:39:49Z</time>
      </trkpt>
      <trkpt lat="42.97114799999973" lon="-1.4084819999999971">
        <ele>755.049</ele>
        <time>2022-08-24T13:39:50Z</time>
      </trkpt>
      <trkpt lat="42.97114099999973" lon="-1.4085049999999972">
        <ele>755.225</ele>
        <time>2022-08-24T13:39:51Z</time>
      </trkpt>
      <trkpt lat="42.97113799999973" lon="-1.4085249999999971">
        <ele>755.277</ele>
        <time>2022-08-24T13:39:52Z</time>
      </trkpt>
      <trkpt lat="42.971133999999736" lon="-1.4085489999999972">
        <ele>755.224</ele>
        <time>2022-08-24T13:39:53Z</time>
      </trkpt>
      <trkpt lat="42.971128999999735" lon="-1.4085779999999972">
        <ele>755.237</ele>
        <time>2022-08-24T13:39:54Z</time>
      </trkpt>
      <trkpt lat="42.97112499999974" lon="-1.4086009999999973">
        <ele>755.231</ele>
        <time>2022-08-24T13:39:55Z</time>
      </trkpt>
      <trkpt lat="42.97112199999974" lon="-1.4086279999999973">
        <ele>755.460</ele>
        <time>2022-08-24T13:39:56Z</time>
      </trkpt>
      <trkpt lat="42.97111899999974" lon="-1.4086489999999974">
        <ele>755.455</ele>
        <time>2022-08-24T13:39:57Z</time>
      </trkpt>
      <trkpt lat="42.971108999999736" lon="-1.4086769999999973">
        <ele>755.407</ele>
        <time>2022-08-24T13:39:58Z</time>
      </trkpt>
      <trkpt lat="42.971097999999735" lon="-1.4087019999999972">
        <ele>755.617</ele>
        <time>2022-08-24T13:39:59Z</time>
      </trkpt>
      <trkpt lat="42.971089999999734" lon="-1.4087269999999972">
        <ele>755.609</ele>
        <time>2022-08-24T13:40:00Z</time>
      </trkpt>
      <trkpt lat="42.97108199999973" lon="-1.4087519999999971">
        <ele>755.886</ele>
        <time>2022-08-24T13:40:01Z</time>
      </trkpt>
      <trkpt lat="42.971077999999736" lon="-1.4087809999999972">
        <ele>756.026</ele>
        <time>2022-08-24T13:40:02Z</time>
      </trkpt>
      <trkpt lat="42.97107199999974" lon="-1.4088069999999973">
        <ele>756.096</ele>
        <time>2022-08-24T13:40:03Z</time>
      </trkpt>
      <trkpt lat="42.971066999999735" lon="-1.4088319999999972">
        <ele>756.492</ele>
        <time>2022-08-24T13:40:04Z</time>
      </trkpt>
      <trkpt lat="42.97103799999974" lon="-1.4089659999999973">
        <ele>756.874</ele>
        <time>2022-08-24T13:40:09Z</time>
      </trkpt>
      <trkpt lat="42.971032999999736" lon="-1.4089949999999973">
        <ele>756.851</ele>
        <time>2022-08-24T13:40:10Z</time>
      </trkpt>
      <trkpt lat="42.97102899999974" lon="-1.4090179999999974">
        <ele>756.884</ele>
        <time>2022-08-24T13:40:11Z</time>
      </trkpt>
      <trkpt lat="42.97102199999974" lon="-1.4090469999999975">
        <ele>756.878</ele>
        <time>2022-08-24T13:40:12Z</time>
      </trkpt>
      <trkpt lat="42.97101399999974" lon="-1.4090809999999976">
        <ele>756.877</ele>
        <time>2022-08-24T13:40:13Z</time>
      </trkpt>
      <trkpt lat="42.971006999999744" lon="-1.4091109999999976">
        <ele>756.817</ele>
        <time>2022-08-24T13:40:14Z</time>
      </trkpt>
      <trkpt lat="42.97099899999974" lon="-1.4091599999999975">
        <ele>756.887</ele>
        <time>2022-08-24T13:40:16Z</time>
      </trkpt>
      <trkpt lat="42.97099099999974" lon="-1.4091899999999975">
        <ele>756.815</ele>
        <time>2022-08-24T13:40:17Z</time>
      </trkpt>
      <trkpt lat="42.970983999999746" lon="-1.4092099999999974">
        <ele>756.809</ele>
        <time>2022-08-24T13:40:18Z</time>
      </trkpt>
      <trkpt lat="42.97097699999975" lon="-1.4092369999999974">
        <ele>756.892</ele>
        <time>2022-08-24T13:40:19Z</time>
      </trkpt>
      <trkpt lat="42.97095799999975" lon="-1.4093499999999974">
        <ele>756.872</ele>
        <time>2022-08-24T13:40:23Z</time>
      </trkpt>
      <trkpt lat="42.970952999999746" lon="-1.4093689999999974">
        <ele>757.042</ele>
        <time>2022-08-24T13:40:24Z</time>
      </trkpt>
      <trkpt lat="42.970950999999744" lon="-1.4093959999999974">
        <ele>757.298</ele>
        <time>2022-08-24T13:40:25Z</time>
      </trkpt>
      <trkpt lat="42.97094699999975" lon="-1.4094249999999975">
        <ele>757.430</ele>
        <time>2022-08-24T13:40:26Z</time>
      </trkpt>
      <trkpt lat="42.97092999999975" lon="-1.4095399999999976">
        <ele>757.667</ele>
        <time>2022-08-24T13:40:30Z</time>
      </trkpt>
      <trkpt lat="42.970924999999745" lon="-1.4095679999999975">
        <ele>757.630</ele>
        <time>2022-08-24T13:40:31Z</time>
      </trkpt>
      <trkpt lat="42.97092299999974" lon="-1.4095999999999975">
        <ele>757.824</ele>
        <time>2022-08-24T13:40:32Z</time>
      </trkpt>
      <trkpt lat="42.97092099999974" lon="-1.4096269999999975">
        <ele>758.023</ele>
        <time>2022-08-24T13:40:33Z</time>
      </trkpt>
      <trkpt lat="42.97091599999974" lon="-1.4096719999999976">
        <ele>758.077</ele>
        <time>2022-08-24T13:40:35Z</time>
      </trkpt>
      <trkpt lat="42.97090999999974" lon="-1.4097029999999975">
        <ele>758.061</ele>
        <time>2022-08-24T13:40:36Z</time>
      </trkpt>
      <trkpt lat="42.97088999999974" lon="-1.4097389999999974">
        <ele>758.227</ele>
        <time>2022-08-24T13:40:38Z</time>
      </trkpt>
      <trkpt lat="42.97088399999974" lon="-1.4097539999999975">
        <ele>758.209</ele>
        <time>2022-08-24T13:40:39Z</time>
      </trkpt>
      <trkpt lat="42.970826999999744" lon="-1.4098459999999975">
        <ele>758.888</ele>
        <time>2022-08-24T13:40:44Z</time>
      </trkpt>
      <trkpt lat="42.97080599999975" lon="-1.4098819999999974">
        <ele>758.888</ele>
        <time>2022-08-24T13:40:46Z</time>
      </trkpt>
      <trkpt lat="42.970789999999745" lon="-1.4099159999999975">
        <ele>759.038</ele>
        <time>2022-08-24T13:40:48Z</time>
      </trkpt>
      <trkpt lat="42.970772999999745" lon="-1.4099549999999974">
        <ele>759.234</ele>
        <time>2022-08-24T13:40:50Z</time>
      </trkpt>
      <trkpt lat="42.97073299999975" lon="-1.4100209999999973">
        <ele>759.816</ele>
        <time>2022-08-24T13:40:53Z</time>
      </trkpt>
      <trkpt lat="42.970719999999744" lon="-1.4100409999999972">
        <ele>760.023</ele>
        <time>2022-08-24T13:40:54Z</time>
      </trkpt>
      <trkpt lat="42.97070699999974" lon="-1.4100579999999971">
        <ele>760.266</ele>
        <time>2022-08-24T13:40:55Z</time>
      </trkpt>
      <trkpt lat="42.97069099999974" lon="-1.410082999999997">
        <ele>760.260</ele>
        <time>2022-08-24T13:40:56Z</time>
      </trkpt>
      <trkpt lat="42.97068199999974" lon="-1.4101059999999972">
        <ele>760.629</ele>
        <time>2022-08-24T13:40:57Z</time>
      </trkpt>
      <trkpt lat="42.97067399999974" lon="-1.4101229999999971">
        <ele>760.652</ele>
        <time>2022-08-24T13:40:58Z</time>
      </trkpt>
      <trkpt lat="42.97066599999974" lon="-1.410144999999997">
        <ele>761.253</ele>
        <time>2022-08-24T13:40:59Z</time>
      </trkpt>
      <trkpt lat="42.97065099999974" lon="-1.4101659999999971">
        <ele>761.008</ele>
        <time>2022-08-24T13:41:00Z</time>
      </trkpt>
      <trkpt lat="42.97064499999974" lon="-1.4101839999999972">
        <ele>761.409</ele>
        <time>2022-08-24T13:41:01Z</time>
      </trkpt>
      <trkpt lat="42.97063499999974" lon="-1.4102079999999972">
        <ele>761.486</ele>
        <time>2022-08-24T13:41:02Z</time>
      </trkpt>
      <trkpt lat="42.97062399999974" lon="-1.4102249999999972">
        <ele>761.616</ele>
        <time>2022-08-24T13:41:03Z</time>
      </trkpt>
      <trkpt lat="42.970610999999735" lon="-1.4102439999999972">
        <ele>761.846</ele>
        <time>2022-08-24T13:41:04Z</time>
      </trkpt>
      <trkpt lat="42.970596999999735" lon="-1.4102679999999972">
        <ele>761.882</ele>
        <time>2022-08-24T13:41:05Z</time>
      </trkpt>
      <trkpt lat="42.97058999999974" lon="-1.4102929999999971">
        <ele>762.044</ele>
        <time>2022-08-24T13:41:06Z</time>
      </trkpt>
      <trkpt lat="42.97058499999974" lon="-1.4103139999999972">
        <ele>762.221</ele>
        <time>2022-08-24T13:41:07Z</time>
      </trkpt>
      <trkpt lat="42.970576999999736" lon="-1.410333999999997">
        <ele>762.474</ele>
        <time>2022-08-24T13:41:08Z</time>
      </trkpt>
      <trkpt lat="42.97056799999974" lon="-1.410355999999997">
        <ele>762.488</ele>
        <time>2022-08-24T13:41:09Z</time>
      </trkpt>
      <trkpt lat="42.970557999999734" lon="-1.4103789999999972">
        <ele>762.657</ele>
        <time>2022-08-24T13:41:10Z</time>
      </trkpt>
      <trkpt lat="42.97055099999974" lon="-1.4104019999999973">
        <ele>762.879</ele>
        <time>2022-08-24T13:41:11Z</time>
      </trkpt>
      <trkpt lat="42.97054999999974" lon="-1.4104279999999974">
        <ele>763.005</ele>
        <time>2022-08-24T13:41:12Z</time>
      </trkpt>
      <trkpt lat="42.97054999999974" lon="-1.4104539999999974">
        <ele>763.225</ele>
        <time>2022-08-24T13:41:13Z</time>
      </trkpt>
      <trkpt lat="42.97054599999974" lon="-1.4104819999999973">
        <ele>763.209</ele>
        <time>2022-08-24T13:41:14Z</time>
      </trkpt>
      <trkpt lat="42.97054299999974" lon="-1.4105159999999974">
        <ele>763.448</ele>
        <time>2022-08-24T13:41:15Z</time>
      </trkpt>
      <trkpt lat="42.970533999999745" lon="-1.4105539999999974">
        <ele>763.648</ele>
        <time>2022-08-24T13:41:16Z</time>
      </trkpt>
      <trkpt lat="42.97052199999975" lon="-1.4105869999999974">
        <ele>763.698</ele>
        <time>2022-08-24T13:41:17Z</time>
      </trkpt>
      <trkpt lat="42.97050799999975" lon="-1.4106169999999973">
        <ele>763.814</ele>
        <time>2022-08-24T13:41:18Z</time>
      </trkpt>
      <trkpt lat="42.970494999999744" lon="-1.4106479999999972">
        <ele>763.856</ele>
        <time>2022-08-24T13:41:19Z</time>
      </trkpt>
      <trkpt lat="42.970479999999746" lon="-1.4106769999999973">
        <ele>763.843</ele>
        <time>2022-08-24T13:41:20Z</time>
      </trkpt>
      <trkpt lat="42.970465999999746" lon="-1.4107069999999973">
        <ele>763.866</ele>
        <time>2022-08-24T13:41:21Z</time>
      </trkpt>
      <trkpt lat="42.970451999999746" lon="-1.4107379999999972">
        <ele>763.820</ele>
        <time>2022-08-24T13:41:22Z</time>
      </trkpt>
      <trkpt lat="42.970437999999746" lon="-1.410765999999997">
        <ele>763.819</ele>
        <time>2022-08-24T13:41:23Z</time>
      </trkpt>
      <trkpt lat="42.97043099999975" lon="-1.410792999999997">
        <ele>763.875</ele>
        <time>2022-08-24T13:41:24Z</time>
      </trkpt>
      <trkpt lat="42.97042399999975" lon="-1.410817999999997">
        <ele>763.828</ele>
        <time>2022-08-24T13:41:25Z</time>
      </trkpt>
      <trkpt lat="42.97041799999975" lon="-1.410844999999997">
        <ele>763.820</ele>
        <time>2022-08-24T13:41:26Z</time>
      </trkpt>
      <trkpt lat="42.97040799999975" lon="-1.410868999999997">
        <ele>763.809</ele>
        <time>2022-08-24T13:41:27Z</time>
      </trkpt>
      <trkpt lat="42.97039899999975" lon="-1.410892999999997">
        <ele>763.878</ele>
        <time>2022-08-24T13:41:28Z</time>
      </trkpt>
      <trkpt lat="42.97039299999975" lon="-1.410919999999997">
        <ele>763.858</ele>
        <time>2022-08-24T13:41:29Z</time>
      </trkpt>
      <trkpt lat="42.97038799999975" lon="-1.410947999999997">
        <ele>764.058</ele>
        <time>2022-08-24T13:41:30Z</time>
      </trkpt>
      <trkpt lat="42.97038199999975" lon="-1.410973999999997">
        <ele>764.294</ele>
        <time>2022-08-24T13:41:31Z</time>
      </trkpt>
      <trkpt lat="42.970377999999755" lon="-1.410997999999997">
        <ele>764.446</ele>
        <time>2022-08-24T13:41:32Z</time>
      </trkpt>
      <trkpt lat="42.97037299999975" lon="-1.411022999999997">
        <ele>764.413</ele>
        <time>2022-08-24T13:41:33Z</time>
      </trkpt>
      <trkpt lat="42.97036899999976" lon="-1.411047999999997">
        <ele>764.666</ele>
        <time>2022-08-24T13:41:34Z</time>
      </trkpt>
      <trkpt lat="42.97036199999976" lon="-1.411073999999997">
        <ele>764.680</ele>
        <time>2022-08-24T13:41:35Z</time>
      </trkpt>
      <trkpt lat="42.97034199999976" lon="-1.411119999999997">
        <ele>764.889</ele>
        <time>2022-08-24T13:41:37Z</time>
      </trkpt>
      <trkpt lat="42.97033599999976" lon="-1.411144999999997">
        <ele>765.038</ele>
        <time>2022-08-24T13:41:38Z</time>
      </trkpt>
      <trkpt lat="42.97033299999976" lon="-1.411169999999997">
        <ele>765.270</ele>
        <time>2022-08-24T13:41:39Z</time>
      </trkpt>
      <trkpt lat="42.97032299999976" lon="-1.411218999999997">
        <ele>765.417</ele>
        <time>2022-08-24T13:41:41Z</time>
      </trkpt>
      <trkpt lat="42.97031699999976" lon="-1.411241999999997">
        <ele>765.409</ele>
        <time>2022-08-24T13:41:42Z</time>
      </trkpt>
      <trkpt lat="42.97031199999976" lon="-1.411264999999997">
        <ele>765.634</ele>
        <time>2022-08-24T13:41:43Z</time>
      </trkpt>
      <trkpt lat="42.970309999999756" lon="-1.4112889999999971">
        <ele>766.014</ele>
        <time>2022-08-24T13:41:44Z</time>
      </trkpt>
      <trkpt lat="42.97030699999976" lon="-1.411310999999997">
        <ele>766.084</ele>
        <time>2022-08-24T13:41:45Z</time>
      </trkpt>
      <trkpt lat="42.97030399999976" lon="-1.4113319999999971">
        <ele>766.270</ele>
        <time>2022-08-24T13:41:46Z</time>
      </trkpt>
      <trkpt lat="42.97030099999976" lon="-1.411353999999997">
        <ele>766.452</ele>
        <time>2022-08-24T13:41:47Z</time>
      </trkpt>
      <trkpt lat="42.97029699999976" lon="-1.4113749999999972">
        <ele>766.429</ele>
        <time>2022-08-24T13:41:48Z</time>
      </trkpt>
      <trkpt lat="42.97028799999976" lon="-1.4113929999999972">
        <ele>766.812</ele>
        <time>2022-08-24T13:41:49Z</time>
      </trkpt>
      <trkpt lat="42.97028199999976" lon="-1.4114129999999971">
        <ele>766.836</ele>
        <time>2022-08-24T13:41:50Z</time>
      </trkpt>
      <trkpt lat="42.97028199999976" lon="-1.411432999999997">
        <ele>767.245</ele>
        <time>2022-08-24T13:41:51Z</time>
      </trkpt>
      <trkpt lat="42.97027899999976" lon="-1.411453999999997">
        <ele>767.214</ele>
        <time>2022-08-24T13:41:52Z</time>
      </trkpt>
      <trkpt lat="42.970274999999766" lon="-1.411473999999997">
        <ele>767.654</ele>
        <time>2022-08-24T13:41:53Z</time>
      </trkpt>
      <trkpt lat="42.970269999999765" lon="-1.411491999999997">
        <ele>767.809</ele>
        <time>2022-08-24T13:41:54Z</time>
      </trkpt>
      <trkpt lat="42.970269999999765" lon="-1.411508999999997">
        <ele>768.009</ele>
        <time>2022-08-24T13:41:55Z</time>
      </trkpt>
      <trkpt lat="42.970277999999766" lon="-1.411522999999997">
        <ele>768.232</ele>
        <time>2022-08-24T13:41:56Z</time>
      </trkpt>
      <trkpt lat="42.97028199999976" lon="-1.411527999999997">
        <ele>768.222</ele>
        <time>2022-08-24T13:41:57Z</time>
      </trkpt>
      <trkpt lat="42.97027899999976" lon="-1.411528999999997">
        <ele>768.652</ele>
        <time>2022-08-24T13:41:58Z</time>
      </trkpt>
      <trkpt lat="42.97027899999976" lon="-1.4115269999999969">
        <ele>768.858</ele>
        <time>2022-08-24T13:41:59Z</time>
      </trkpt>
      <trkpt lat="42.97028199999976" lon="-1.411514999999997">
        <ele>768.860</ele>
        <time>2022-08-24T13:42:00Z</time>
      </trkpt>
      <trkpt lat="42.97028299999976" lon="-1.411504999999997">
        <ele>769.237</ele>
        <time>2022-08-24T13:42:01Z</time>
      </trkpt>
      <trkpt lat="42.970275999999764" lon="-1.411496999999997">
        <ele>769.290</ele>
        <time>2022-08-24T13:42:02Z</time>
      </trkpt>
      <trkpt lat="42.970272999999764" lon="-1.411493999999997">
        <ele>769.424</ele>
        <time>2022-08-24T13:42:03Z</time>
      </trkpt>
      <trkpt lat="42.970272999999764" lon="-1.411493999999997">
        <ele>769.463</ele>
        <time>2022-08-24T13:42:20Z</time>
      </trkpt>
      <trkpt lat="42.970272999999764" lon="-1.4114979999999968">
        <ele>769.435</ele>
        <time>2022-08-24T13:42:22Z</time>
      </trkpt>
      <trkpt lat="42.970275999999764" lon="-1.4115159999999969">
        <ele>769.486</ele>
        <time>2022-08-24T13:42:23Z</time>
      </trkpt>
      <trkpt lat="42.970277999999766" lon="-1.4115349999999969">
        <ele>769.414</ele>
        <time>2022-08-24T13:42:24Z</time>
      </trkpt>
      <trkpt lat="42.97025999999977" lon="-1.4116189999999968">
        <ele>769.809</ele>
        <time>2022-08-24T13:42:27Z</time>
      </trkpt>
      <trkpt lat="42.97025399999977" lon="-1.4116389999999968">
        <ele>769.814</ele>
        <time>2022-08-24T13:42:28Z</time>
      </trkpt>
      <trkpt lat="42.97024999999977" lon="-1.4116689999999967">
        <ele>770.094</ele>
        <time>2022-08-24T13:42:29Z</time>
      </trkpt>
      <trkpt lat="42.97024799999977" lon="-1.4116899999999968">
        <ele>770.264</ele>
        <time>2022-08-24T13:42:30Z</time>
      </trkpt>
      <trkpt lat="42.97024699999977" lon="-1.4117119999999967">
        <ele>770.270</ele>
        <time>2022-08-24T13:42:31Z</time>
      </trkpt>
      <trkpt lat="42.97024799999977" lon="-1.4117329999999968">
        <ele>770.692</ele>
        <time>2022-08-24T13:42:32Z</time>
      </trkpt>
      <trkpt lat="42.97024899999977" lon="-1.4117499999999967">
        <ele>770.859</ele>
        <time>2022-08-24T13:42:33Z</time>
      </trkpt>
      <trkpt lat="42.97024499999977" lon="-1.4117669999999967">
        <ele>771.072</ele>
        <time>2022-08-24T13:42:34Z</time>
      </trkpt>
      <trkpt lat="42.97024699999977" lon="-1.4118079999999966">
        <ele>771.416</ele>
        <time>2022-08-24T13:42:36Z</time>
      </trkpt>
      <trkpt lat="42.970248999999775" lon="-1.4118249999999966">
        <ele>771.625</ele>
        <time>2022-08-24T13:42:37Z</time>
      </trkpt>
      <trkpt lat="42.97024799999978" lon="-1.4118489999999966">
        <ele>771.832</ele>
        <time>2022-08-24T13:42:38Z</time>
      </trkpt>
      <trkpt lat="42.970237999999775" lon="-1.4119079999999966">
        <ele>772.492</ele>
        <time>2022-08-24T13:42:41Z</time>
      </trkpt>
      <trkpt lat="42.970237999999775" lon="-1.4119269999999966">
        <ele>772.611</ele>
        <time>2022-08-24T13:42:42Z</time>
      </trkpt>
      <trkpt lat="42.97023699999978" lon="-1.4119419999999967">
        <ele>772.609</ele>
        <time>2022-08-24T13:42:43Z</time>
      </trkpt>
      <trkpt lat="42.97023599999978" lon="-1.4119579999999967">
        <ele>772.824</ele>
        <time>2022-08-24T13:42:44Z</time>
      </trkpt>
      <trkpt lat="42.97023299999978" lon="-1.4119769999999967">
        <ele>773.074</ele>
        <time>2022-08-24T13:42:45Z</time>
      </trkpt>
      <trkpt lat="42.97023099999978" lon="-1.4119929999999967">
        <ele>773.494</ele>
        <time>2022-08-24T13:42:46Z</time>
      </trkpt>
      <trkpt lat="42.970228999999776" lon="-1.4120139999999968">
        <ele>773.430</ele>
        <time>2022-08-24T13:42:47Z</time>
      </trkpt>
      <trkpt lat="42.970223999999774" lon="-1.4120269999999968">
        <ele>773.622</ele>
        <time>2022-08-24T13:42:48Z</time>
      </trkpt>
      <trkpt lat="42.970225999999776" lon="-1.4120459999999968">
        <ele>773.879</ele>
        <time>2022-08-24T13:42:49Z</time>
      </trkpt>
      <trkpt lat="42.97022799999978" lon="-1.412068999999997">
        <ele>773.832</ele>
        <time>2022-08-24T13:42:50Z</time>
      </trkpt>
      <trkpt lat="42.970228999999776" lon="-1.412084999999997">
        <ele>774.086</ele>
        <time>2022-08-24T13:42:51Z</time>
      </trkpt>
      <trkpt lat="42.970228999999776" lon="-1.4121019999999969">
        <ele>774.255</ele>
        <time>2022-08-24T13:42:52Z</time>
      </trkpt>
      <trkpt lat="42.97023099999978" lon="-1.4121219999999968">
        <ele>774.462</ele>
        <time>2022-08-24T13:42:53Z</time>
      </trkpt>
      <trkpt lat="42.970231999999775" lon="-1.4121419999999967">
        <ele>774.483</ele>
        <time>2022-08-24T13:42:54Z</time>
      </trkpt>
      <trkpt lat="42.97022999999977" lon="-1.4121599999999968">
        <ele>774.811</ele>
        <time>2022-08-24T13:42:55Z</time>
      </trkpt>
      <trkpt lat="42.970228999999776" lon="-1.4121779999999968">
        <ele>775.009</ele>
        <time>2022-08-24T13:42:56Z</time>
      </trkpt>
      <trkpt lat="42.970228999999776" lon="-1.4121979999999967">
        <ele>775.227</ele>
        <time>2022-08-24T13:42:57Z</time>
      </trkpt>
      <trkpt lat="42.97022999999977" lon="-1.4122159999999968">
        <ele>775.477</ele>
        <time>2022-08-24T13:42:58Z</time>
      </trkpt>
      <trkpt lat="42.970231999999775" lon="-1.4122319999999968">
        <ele>775.477</ele>
        <time>2022-08-24T13:42:59Z</time>
      </trkpt>
      <trkpt lat="42.970231999999775" lon="-1.412249999999997">
        <ele>775.663</ele>
        <time>2022-08-24T13:43:00Z</time>
      </trkpt>
      <trkpt lat="42.97023099999978" lon="-1.4122699999999968">
        <ele>775.685</ele>
        <time>2022-08-24T13:43:01Z</time>
      </trkpt>
      <trkpt lat="42.97022999999978" lon="-1.4122939999999968">
        <ele>775.852</ele>
        <time>2022-08-24T13:43:02Z</time>
      </trkpt>
      <trkpt lat="42.97022899999978" lon="-1.4123109999999968">
        <ele>775.825</ele>
        <time>2022-08-24T13:43:03Z</time>
      </trkpt>
      <trkpt lat="42.97022699999978" lon="-1.4123299999999968">
        <ele>776.069</ele>
        <time>2022-08-24T13:43:04Z</time>
      </trkpt>
      <trkpt lat="42.97022599999978" lon="-1.4123509999999968">
        <ele>776.048</ele>
        <time>2022-08-24T13:43:05Z</time>
      </trkpt>
      <trkpt lat="42.97022599999978" lon="-1.4123709999999967">
        <ele>776.095</ele>
        <time>2022-08-24T13:43:06Z</time>
      </trkpt>
      <trkpt lat="42.970224999999786" lon="-1.4123859999999968">
        <ele>776.249</ele>
        <time>2022-08-24T13:43:07Z</time>
      </trkpt>
      <trkpt lat="42.97022599999978" lon="-1.4124059999999967">
        <ele>776.623</ele>
        <time>2022-08-24T13:43:08Z</time>
      </trkpt>
      <trkpt lat="42.970227999999786" lon="-1.4124279999999967">
        <ele>776.809</ele>
        <time>2022-08-24T13:43:09Z</time>
      </trkpt>
      <trkpt lat="42.97022999999979" lon="-1.4124539999999968">
        <ele>777.070</ele>
        <time>2022-08-24T13:43:10Z</time>
      </trkpt>
      <trkpt lat="42.97022999999979" lon="-1.4124749999999968">
        <ele>777.060</ele>
        <time>2022-08-24T13:43:11Z</time>
      </trkpt>
      <trkpt lat="42.970227999999786" lon="-1.4124919999999968">
        <ele>777.240</ele>
        <time>2022-08-24T13:43:12Z</time>
      </trkpt>
      <trkpt lat="42.970227999999786" lon="-1.4125129999999968">
        <ele>777.416</ele>
        <time>2022-08-24T13:43:13Z</time>
      </trkpt>
      <trkpt lat="42.97022999999979" lon="-1.4125409999999967">
        <ele>777.438</ele>
        <time>2022-08-24T13:43:14Z</time>
      </trkpt>
      <trkpt lat="42.97023199999979" lon="-1.4125549999999967">
        <ele>777.665</ele>
        <time>2022-08-24T13:43:15Z</time>
      </trkpt>
      <trkpt lat="42.97023199999979" lon="-1.4125759999999967">
        <ele>777.688</ele>
        <time>2022-08-24T13:43:16Z</time>
      </trkpt>
      <trkpt lat="42.97022999999979" lon="-1.4125959999999966">
        <ele>777.852</ele>
        <time>2022-08-24T13:43:17Z</time>
      </trkpt>
      <trkpt lat="42.970230999999785" lon="-1.4126149999999966">
        <ele>777.831</ele>
        <time>2022-08-24T13:43:18Z</time>
      </trkpt>
      <trkpt lat="42.97023199999978" lon="-1.4126409999999967">
        <ele>778.096</ele>
        <time>2022-08-24T13:43:19Z</time>
      </trkpt>
      <trkpt lat="42.97022999999978" lon="-1.4126579999999966">
        <ele>778.231</ele>
        <time>2022-08-24T13:43:20Z</time>
      </trkpt>
      <trkpt lat="42.97022799999978" lon="-1.4126799999999966">
        <ele>778.224</ele>
        <time>2022-08-24T13:43:21Z</time>
      </trkpt>
      <trkpt lat="42.97022699999978" lon="-1.4127019999999966">
        <ele>778.409</ele>
        <time>2022-08-24T13:43:22Z</time>
      </trkpt>
      <trkpt lat="42.97022499999978" lon="-1.4127229999999966">
        <ele>778.480</ele>
        <time>2022-08-24T13:43:23Z</time>
      </trkpt>
      <trkpt lat="42.97021999999978" lon="-1.4127459999999967">
        <ele>778.410</ele>
        <time>2022-08-24T13:43:24Z</time>
      </trkpt>
      <trkpt lat="42.97021399999978" lon="-1.4127639999999968">
        <ele>778.470</ele>
        <time>2022-08-24T13:43:25Z</time>
      </trkpt>
      <trkpt lat="42.97020999999978" lon="-1.412778999999997">
        <ele>778.646</ele>
        <time>2022-08-24T13:43:26Z</time>
      </trkpt>
      <trkpt lat="42.97020999999978" lon="-1.412796999999997">
        <ele>779.048</ele>
        <time>2022-08-24T13:43:27Z</time>
      </trkpt>
      <trkpt lat="42.97020699999978" lon="-1.4128169999999969">
        <ele>779.245</ele>
        <time>2022-08-24T13:43:28Z</time>
      </trkpt>
      <trkpt lat="42.97020099999978" lon="-1.412834999999997">
        <ele>779.288</ele>
        <time>2022-08-24T13:43:29Z</time>
      </trkpt>
      <trkpt lat="42.970196999999786" lon="-1.412847999999997">
        <ele>779.412</ele>
        <time>2022-08-24T13:43:30Z</time>
      </trkpt>
      <trkpt lat="42.970193999999786" lon="-1.412864999999997">
        <ele>779.621</ele>
        <time>2022-08-24T13:43:31Z</time>
      </trkpt>
      <trkpt lat="42.97019099999979" lon="-1.412883999999997">
        <ele>779.679</ele>
        <time>2022-08-24T13:43:32Z</time>
      </trkpt>
      <trkpt lat="42.97018399999979" lon="-1.4129059999999969">
        <ele>779.605</ele>
        <time>2022-08-24T13:43:33Z</time>
      </trkpt>
      <trkpt lat="42.970176999999794" lon="-1.412926999999997">
        <ele>779.825</ele>
        <time>2022-08-24T13:43:34Z</time>
      </trkpt>
      <trkpt lat="42.9701729999998" lon="-1.412944999999997">
        <ele>780.009</ele>
        <time>2022-08-24T13:43:35Z</time>
      </trkpt>
      <trkpt lat="42.9701689999998" lon="-1.4129679999999971">
        <ele>780.068</ele>
        <time>2022-08-24T13:43:36Z</time>
      </trkpt>
      <trkpt lat="42.9701609999998" lon="-1.4129889999999972">
        <ele>780.028</ele>
        <time>2022-08-24T13:43:37Z</time>
      </trkpt>
      <trkpt lat="42.9701519999998" lon="-1.4130119999999973">
        <ele>780.088</ele>
        <time>2022-08-24T13:43:38Z</time>
      </trkpt>
      <trkpt lat="42.9701439999998" lon="-1.4130369999999972">
        <ele>780.274</ele>
        <time>2022-08-24T13:43:39Z</time>
      </trkpt>
      <trkpt lat="42.9701369999998" lon="-1.4130649999999971">
        <ele>780.266</ele>
        <time>2022-08-24T13:43:40Z</time>
      </trkpt>
      <trkpt lat="42.9701289999998" lon="-1.413094999999997">
        <ele>780.453</ele>
        <time>2022-08-24T13:43:41Z</time>
      </trkpt>
      <trkpt lat="42.9701189999998" lon="-1.413127999999997">
        <ele>780.416</ele>
        <time>2022-08-24T13:43:42Z</time>
      </trkpt>
      <trkpt lat="42.9701039999998" lon="-1.413166999999997">
        <ele>780.470</ele>
        <time>2022-08-24T13:43:43Z</time>
      </trkpt>
      <trkpt lat="42.9700909999998" lon="-1.413209999999997">
        <ele>780.429</ele>
        <time>2022-08-24T13:43:44Z</time>
      </trkpt>
      <trkpt lat="42.9700789999998" lon="-1.413255999999997">
        <ele>780.224</ele>
        <time>2022-08-24T13:43:45Z</time>
      </trkpt>
      <trkpt lat="42.970068999999796" lon="-1.4133029999999969">
        <ele>780.204</ele>
        <time>2022-08-24T13:43:46Z</time>
      </trkpt>
      <trkpt lat="42.9700369999998" lon="-1.4135409999999968">
        <ele>780.014</ele>
        <time>2022-08-24T13:43:50Z</time>
      </trkpt>
      <trkpt lat="42.9700339999998" lon="-1.4136149999999967">
        <ele>779.609</ele>
        <time>2022-08-24T13:43:51Z</time>
      </trkpt>
      <trkpt lat="42.9700179999998" lon="-1.4138449999999967">
        <ele>779.273</ele>
        <time>2022-08-24T13:43:54Z</time>
      </trkpt>
      <trkpt lat="42.9699979999998" lon="-1.4139149999999967">
        <ele>779.023</ele>
        <time>2022-08-24T13:43:55Z</time>
      </trkpt>
      <trkpt lat="42.9699699999998" lon="-1.4139749999999967">
        <ele>779.073</ele>
        <time>2022-08-24T13:43:56Z</time>
      </trkpt>
      <trkpt lat="42.9699409999998" lon="-1.4140289999999966">
        <ele>778.479</ele>
        <time>2022-08-24T13:43:57Z</time>
      </trkpt>
      <trkpt lat="42.969916999999796" lon="-1.4140809999999966">
        <ele>778.231</ele>
        <time>2022-08-24T13:43:58Z</time>
      </trkpt>
      <trkpt lat="42.969894999999795" lon="-1.4141289999999966">
        <ele>778.058</ele>
        <time>2022-08-24T13:43:59Z</time>
      </trkpt>
      <trkpt lat="42.9698739999998" lon="-1.4141759999999965">
        <ele>778.011</ele>
        <time>2022-08-24T13:44:00Z</time>
      </trkpt>
      <trkpt lat="42.9698549999998" lon="-1.4142219999999965">
        <ele>777.825</ele>
        <time>2022-08-24T13:44:01Z</time>
      </trkpt>
      <trkpt lat="42.969838999999794" lon="-1.4142689999999964">
        <ele>777.864</ele>
        <time>2022-08-24T13:44:02Z</time>
      </trkpt>
      <trkpt lat="42.96982299999979" lon="-1.4143269999999963">
        <ele>777.658</ele>
        <time>2022-08-24T13:44:03Z</time>
      </trkpt>
      <trkpt lat="42.96981399999979" lon="-1.4143679999999963">
        <ele>777.652</ele>
        <time>2022-08-24T13:44:04Z</time>
      </trkpt>
      <trkpt lat="42.96977299999979" lon="-1.4145399999999964">
        <ele>777.417</ele>
        <time>2022-08-24T13:44:07Z</time>
      </trkpt>
      <trkpt lat="42.96974499999979" lon="-1.4146549999999964">
        <ele>777.209</ele>
        <time>2022-08-24T13:44:09Z</time>
      </trkpt>
      <trkpt lat="42.96973499999979" lon="-1.4147179999999964">
        <ele>777.286</ele>
        <time>2022-08-24T13:44:10Z</time>
      </trkpt>
      <trkpt lat="42.96972599999979" lon="-1.4147669999999963">
        <ele>777.266</ele>
        <time>2022-08-24T13:44:11Z</time>
      </trkpt>
      <trkpt lat="42.969715999999785" lon="-1.4148169999999964">
        <ele>777.056</ele>
        <time>2022-08-24T13:44:12Z</time>
      </trkpt>
      <trkpt lat="42.969707999999784" lon="-1.4148579999999964">
        <ele>776.822</ele>
        <time>2022-08-24T13:44:13Z</time>
      </trkpt>
      <trkpt lat="42.96967299999979" lon="-1.4149789999999964">
        <ele>776.044</ele>
        <time>2022-08-24T13:44:15Z</time>
      </trkpt>
      <trkpt lat="42.96963599999979" lon="-1.4150719999999963">
        <ele>775.691</ele>
        <time>2022-08-24T13:44:17Z</time>
      </trkpt>
      <trkpt lat="42.96957699999979" lon="-1.4151619999999963">
        <ele>774.674</ele>
        <time>2022-08-24T13:44:19Z</time>
      </trkpt>
      <trkpt lat="42.96955099999979" lon="-1.4151939999999963">
        <ele>774.068</ele>
        <time>2022-08-24T13:44:20Z</time>
      </trkpt>
      <trkpt lat="42.96952799999979" lon="-1.4152259999999963">
        <ele>773.237</ele>
        <time>2022-08-24T13:44:21Z</time>
      </trkpt>
      <trkpt lat="42.96951399999979" lon="-1.4152669999999963">
        <ele>772.668</ele>
        <time>2022-08-24T13:44:22Z</time>
      </trkpt>
      <trkpt lat="42.969506999999794" lon="-1.4153129999999963">
        <ele>772.242</ele>
        <time>2022-08-24T13:44:23Z</time>
      </trkpt>
      <trkpt lat="42.9695029999998" lon="-1.4153609999999963">
        <ele>771.826</ele>
        <time>2022-08-24T13:44:24Z</time>
      </trkpt>
      <trkpt lat="42.9694959999998" lon="-1.4154099999999963">
        <ele>771.609</ele>
        <time>2022-08-24T13:44:25Z</time>
      </trkpt>
      <trkpt lat="42.9694769999998" lon="-1.4154609999999963">
        <ele>771.267</ele>
        <time>2022-08-24T13:44:26Z</time>
      </trkpt>
      <trkpt lat="42.9694609999998" lon="-1.4154929999999963">
        <ele>771.067</ele>
        <time>2022-08-24T13:44:27Z</time>
      </trkpt>
      <trkpt lat="42.9694439999998" lon="-1.4155319999999962">
        <ele>771.027</ele>
        <time>2022-08-24T13:44:28Z</time>
      </trkpt>
      <trkpt lat="42.9694229999998" lon="-1.4155779999999962">
        <ele>771.083</ele>
        <time>2022-08-24T13:44:29Z</time>
      </trkpt>
      <trkpt lat="42.9694069999998" lon="-1.4156119999999963">
        <ele>771.055</ele>
        <time>2022-08-24T13:44:30Z</time>
      </trkpt>
      <trkpt lat="42.9693959999998" lon="-1.4156409999999964">
        <ele>771.092</ele>
        <time>2022-08-24T13:44:31Z</time>
      </trkpt>
      <trkpt lat="42.969382999999794" lon="-1.4156759999999964">
        <ele>771.055</ele>
        <time>2022-08-24T13:44:32Z</time>
      </trkpt>
      <trkpt lat="42.969368999999794" lon="-1.4157109999999964">
        <ele>771.289</ele>
        <time>2022-08-24T13:44:33Z</time>
      </trkpt>
      <trkpt lat="42.969359999999796" lon="-1.4157429999999964">
        <ele>771.488</ele>
        <time>2022-08-24T13:44:34Z</time>
      </trkpt>
      <trkpt lat="42.969337999999794" lon="-1.4158109999999964">
        <ele>771.867</ele>
        <time>2022-08-24T13:44:36Z</time>
      </trkpt>
      <trkpt lat="42.969295999999794" lon="-1.4159159999999964">
        <ele>772.481</ele>
        <time>2022-08-24T13:44:39Z</time>
      </trkpt>
      <trkpt lat="42.96928599999979" lon="-1.4159529999999965">
        <ele>772.419</ele>
        <time>2022-08-24T13:44:40Z</time>
      </trkpt>
      <trkpt lat="42.96927799999979" lon="-1.4159879999999965">
        <ele>772.409</ele>
        <time>2022-08-24T13:44:41Z</time>
      </trkpt>
      <trkpt lat="42.96921499999979" lon="-1.4162419999999964">
        <ele>772.467</ele>
        <time>2022-08-24T13:44:47Z</time>
      </trkpt>
      <trkpt lat="42.96913899999979" lon="-1.4165739999999964">
        <ele>772.027</ele>
        <time>2022-08-24T13:44:54Z</time>
      </trkpt>
      <trkpt lat="42.96911899999979" lon="-1.4166139999999965">
        <ele>772.057</ele>
        <time>2022-08-24T13:44:55Z</time>
      </trkpt>
      <trkpt lat="42.96909499999979" lon="-1.4166589999999966">
        <ele>772.023</ele>
        <time>2022-08-24T13:44:56Z</time>
      </trkpt>
      <trkpt lat="42.96900599999979" lon="-1.4167939999999966">
        <ele>771.875</ele>
        <time>2022-08-24T13:45:00Z</time>
      </trkpt>
      <trkpt lat="42.96897799999979" lon="-1.4168179999999966">
        <ele>772.072</ele>
        <time>2022-08-24T13:45:01Z</time>
      </trkpt>
      <trkpt lat="42.968947999999784" lon="-1.4168449999999966">
        <ele>771.845</ele>
        <time>2022-08-24T13:45:02Z</time>
      </trkpt>
      <trkpt lat="42.968924999999786" lon="-1.4168589999999965">
        <ele>771.849</ele>
        <time>2022-08-24T13:45:03Z</time>
      </trkpt>
      <trkpt lat="42.968902999999784" lon="-1.4168639999999966">
        <ele>771.858</ele>
        <time>2022-08-24T13:45:04Z</time>
      </trkpt>
      <trkpt lat="42.96888099999978" lon="-1.4168669999999965">
        <ele>771.842</ele>
        <time>2022-08-24T13:45:05Z</time>
      </trkpt>
      <trkpt lat="42.96886199999978" lon="-1.4168749999999966">
        <ele>771.822</ele>
        <time>2022-08-24T13:45:06Z</time>
      </trkpt>
      <trkpt lat="42.96879399999978" lon="-1.4169069999999966">
        <ele>772.214</ele>
        <time>2022-08-24T13:45:09Z</time>
      </trkpt>
      <trkpt lat="42.96871599999978" lon="-1.4169319999999965">
        <ele>772.209</ele>
        <time>2022-08-24T13:45:12Z</time>
      </trkpt>
      <trkpt lat="42.96869099999978" lon="-1.4169399999999965">
        <ele>772.255</ele>
        <time>2022-08-24T13:45:13Z</time>
      </trkpt>
      <trkpt lat="42.96865999999978" lon="-1.4169469999999966">
        <ele>772.465</ele>
        <time>2022-08-24T13:45:14Z</time>
      </trkpt>
      <trkpt lat="42.96863199999978" lon="-1.4169519999999967">
        <ele>772.415</ele>
        <time>2022-08-24T13:45:15Z</time>
      </trkpt>
      <trkpt lat="42.96860599999978" lon="-1.4169559999999966">
        <ele>772.431</ele>
        <time>2022-08-24T13:45:16Z</time>
      </trkpt>
      <trkpt lat="42.96858599999978" lon="-1.4169559999999966">
        <ele>772.463</ele>
        <time>2022-08-24T13:45:17Z</time>
      </trkpt>
      <trkpt lat="42.96857299999978" lon="-1.4169549999999966">
        <ele>772.420</ele>
        <time>2022-08-24T13:45:18Z</time>
      </trkpt>
      <trkpt lat="42.968559999999776" lon="-1.4169519999999967">
        <ele>772.433</ele>
        <time>2022-08-24T13:45:19Z</time>
      </trkpt>
      <trkpt lat="42.968545999999776" lon="-1.4169499999999966">
        <ele>772.687</ele>
        <time>2022-08-24T13:45:20Z</time>
      </trkpt>
      <trkpt lat="42.96853999999978" lon="-1.4169489999999967">
        <ele>772.686</ele>
        <time>2022-08-24T13:45:21Z</time>
      </trkpt>
      <trkpt lat="42.96853999999978" lon="-1.4169489999999967">
        <ele>772.652</ele>
        <time>2022-08-24T13:45:22Z</time>
      </trkpt>
      <trkpt lat="42.96853999999978" lon="-1.4169489999999967">
        <ele>772.853</ele>
        <time>2022-08-24T13:45:23Z</time>
      </trkpt>
      <trkpt lat="42.96850499999978" lon="-1.4169539999999967">
        <ele>773.008</ele>
        <time>2022-08-24T13:45:31Z</time>
      </trkpt>
      <trkpt lat="42.96848699999978" lon="-1.4169539999999967">
        <ele>773.009</ele>
        <time>2022-08-24T13:45:32Z</time>
      </trkpt>
      <trkpt lat="42.96841399999978" lon="-1.4169689999999968">
        <ele>773.086</ele>
        <time>2022-08-24T13:45:35Z</time>
      </trkpt>
      <trkpt lat="42.96839799999978" lon="-1.4169799999999968">
        <ele>773.036</ele>
        <time>2022-08-24T13:45:36Z</time>
      </trkpt>
      <trkpt lat="42.96837099999978" lon="-1.4169959999999968">
        <ele>773.036</ele>
        <time>2022-08-24T13:45:37Z</time>
      </trkpt>
      <trkpt lat="42.96835399999978" lon="-1.4170039999999968">
        <ele>773.052</ele>
        <time>2022-08-24T13:45:38Z</time>
      </trkpt>
      <trkpt lat="42.968331999999776" lon="-1.4170159999999967">
        <ele>773.024</ele>
        <time>2022-08-24T13:45:39Z</time>
      </trkpt>
      <trkpt lat="42.968318999999774" lon="-1.4170259999999968">
        <ele>773.221</ele>
        <time>2022-08-24T13:45:40Z</time>
      </trkpt>
      <trkpt lat="42.96830099999978" lon="-1.4170349999999967">
        <ele>773.434</ele>
        <time>2022-08-24T13:45:41Z</time>
      </trkpt>
      <trkpt lat="42.96828399999978" lon="-1.4170459999999967">
        <ele>773.458</ele>
        <time>2022-08-24T13:45:42Z</time>
      </trkpt>
      <trkpt lat="42.96826899999978" lon="-1.4170589999999967">
        <ele>773.697</ele>
        <time>2022-08-24T13:45:43Z</time>
      </trkpt>
      <trkpt lat="42.96825399999978" lon="-1.4170679999999967">
        <ele>773.657</ele>
        <time>2022-08-24T13:45:44Z</time>
      </trkpt>
      <trkpt lat="42.96823999999978" lon="-1.4170819999999966">
        <ele>773.600</ele>
        <time>2022-08-24T13:45:45Z</time>
      </trkpt>
      <trkpt lat="42.96822699999978" lon="-1.4170949999999967">
        <ele>773.620</ele>
        <time>2022-08-24T13:45:46Z</time>
      </trkpt>
      <trkpt lat="42.968210999999776" lon="-1.4171079999999967">
        <ele>773.809</ele>
        <time>2022-08-24T13:45:47Z</time>
      </trkpt>
      <trkpt lat="42.96819899999978" lon="-1.4171229999999968">
        <ele>773.876</ele>
        <time>2022-08-24T13:45:48Z</time>
      </trkpt>
      <trkpt lat="42.96818399999978" lon="-1.4171369999999968">
        <ele>773.836</ele>
        <time>2022-08-24T13:45:49Z</time>
      </trkpt>
      <trkpt lat="42.96806799999978" lon="-1.4172709999999968">
        <ele>774.416</ele>
        <time>2022-08-24T13:45:56Z</time>
      </trkpt>
      <trkpt lat="42.96805099999978" lon="-1.417288999999997">
        <ele>774.652</ele>
        <time>2022-08-24T13:45:57Z</time>
      </trkpt>
      <trkpt lat="42.968021999999785" lon="-1.4173249999999968">
        <ele>774.854</ele>
        <time>2022-08-24T13:45:59Z</time>
      </trkpt>
      <trkpt lat="42.968004999999785" lon="-1.4173409999999969">
        <ele>774.851</ele>
        <time>2022-08-24T13:46:00Z</time>
      </trkpt>
      <trkpt lat="42.967984999999786" lon="-1.4173569999999969">
        <ele>775.074</ele>
        <time>2022-08-24T13:46:01Z</time>
      </trkpt>
      <trkpt lat="42.96797299999979" lon="-1.417377999999997">
        <ele>775.238</ele>
        <time>2022-08-24T13:46:02Z</time>
      </trkpt>
      <trkpt lat="42.96791099999979" lon="-1.417436999999997">
        <ele>775.667</ele>
        <time>2022-08-24T13:46:06Z</time>
      </trkpt>
      <trkpt lat="42.96790199999979" lon="-1.417452999999997">
        <ele>776.048</ele>
        <time>2022-08-24T13:46:07Z</time>
      </trkpt>
      <trkpt lat="42.96788499999979" lon="-1.417470999999997">
        <ele>776.061</ele>
        <time>2022-08-24T13:46:08Z</time>
      </trkpt>
      <trkpt lat="42.96785399999979" lon="-1.4175159999999971">
        <ele>776.217</ele>
        <time>2022-08-24T13:46:10Z</time>
      </trkpt>
      <trkpt lat="42.96783199999979" lon="-1.417572999999997">
        <ele>776.609</ele>
        <time>2022-08-24T13:46:12Z</time>
      </trkpt>
      <trkpt lat="42.967770999999786" lon="-1.417716999999997">
        <ele>776.825</ele>
        <time>2022-08-24T13:46:17Z</time>
      </trkpt>
      <trkpt lat="42.96775899999979" lon="-1.4177399999999971">
        <ele>776.865</ele>
        <time>2022-08-24T13:46:18Z</time>
      </trkpt>
      <trkpt lat="42.96773799999979" lon="-1.4177769999999972">
        <ele>776.845</ele>
        <time>2022-08-24T13:46:19Z</time>
      </trkpt>
      <trkpt lat="42.96772699999979" lon="-1.4178109999999973">
        <ele>777.061</ele>
        <time>2022-08-24T13:46:20Z</time>
      </trkpt>
      <trkpt lat="42.96771599999979" lon="-1.4178449999999974">
        <ele>777.093</ele>
        <time>2022-08-24T13:46:21Z</time>
      </trkpt>
      <trkpt lat="42.96762999999979" lon="-1.4179589999999973">
        <ele>777.250</ele>
        <time>2022-08-24T13:46:25Z</time>
      </trkpt>
      <trkpt lat="42.96760999999979" lon="-1.4179749999999973">
        <ele>777.273</ele>
        <time>2022-08-24T13:46:26Z</time>
      </trkpt>
      <trkpt lat="42.96758199999979" lon="-1.4179939999999973">
        <ele>777.267</ele>
        <time>2022-08-24T13:46:27Z</time>
      </trkpt>
      <trkpt lat="42.967548999999785" lon="-1.4180129999999973">
        <ele>777.286</ele>
        <time>2022-08-24T13:46:28Z</time>
      </trkpt>
      <trkpt lat="42.967444999999785" lon="-1.4180829999999973">
        <ele>777.265</ele>
        <time>2022-08-24T13:46:31Z</time>
      </trkpt>
      <trkpt lat="42.96733899999978" lon="-1.4182709999999974">
        <ele>777.068</ele>
        <time>2022-08-24T13:46:36Z</time>
      </trkpt>
      <trkpt lat="42.96734199999978" lon="-1.4183109999999974">
        <ele>777.014</ele>
        <time>2022-08-24T13:46:37Z</time>
      </trkpt>
      <trkpt lat="42.96736199999978" lon="-1.4183509999999975">
        <ele>777.009</ele>
        <time>2022-08-24T13:46:38Z</time>
      </trkpt>
      <trkpt lat="42.96738199999978" lon="-1.4183769999999976">
        <ele>776.837</ele>
        <time>2022-08-24T13:46:39Z</time>
      </trkpt>
      <trkpt lat="42.96739699999978" lon="-1.4183979999999976">
        <ele>776.827</ele>
        <time>2022-08-24T13:46:40Z</time>
      </trkpt>
      <trkpt lat="42.967414999999775" lon="-1.4184229999999975">
        <ele>776.837</ele>
        <time>2022-08-24T13:46:41Z</time>
      </trkpt>
      <trkpt lat="42.96743399999978" lon="-1.4184479999999975">
        <ele>776.643</ele>
        <time>2022-08-24T13:46:42Z</time>
      </trkpt>
      <trkpt lat="42.96752599999978" lon="-1.4185649999999974">
        <ele>776.255</ele>
        <time>2022-08-24T13:46:46Z</time>
      </trkpt>
      <trkpt lat="42.96754599999978" lon="-1.4185929999999973">
        <ele>776.252</ele>
        <time>2022-08-24T13:46:47Z</time>
      </trkpt>
      <trkpt lat="42.967560999999776" lon="-1.4186209999999972">
        <ele>776.245</ele>
        <time>2022-08-24T13:46:48Z</time>
      </trkpt>
      <trkpt lat="42.967566999999775" lon="-1.4186489999999972">
        <ele>776.019</ele>
        <time>2022-08-24T13:46:49Z</time>
      </trkpt>
      <trkpt lat="42.96756199999977" lon="-1.418673999999997">
        <ele>776.018</ele>
        <time>2022-08-24T13:46:50Z</time>
      </trkpt>
      <trkpt lat="42.96754799999977" lon="-1.4186969999999972">
        <ele>775.875</ele>
        <time>2022-08-24T13:46:51Z</time>
      </trkpt>
      <trkpt lat="42.967538999999775" lon="-1.4187149999999973">
        <ele>775.628</ele>
        <time>2022-08-24T13:46:52Z</time>
      </trkpt>
      <trkpt lat="42.967535999999775" lon="-1.4187219999999974">
        <ele>775.620</ele>
        <time>2022-08-24T13:46:53Z</time>
      </trkpt>
      <trkpt lat="42.967535999999775" lon="-1.4187219999999974">
        <ele>775.409</ele>
        <time>2022-08-24T13:46:54Z</time>
      </trkpt>
      <trkpt lat="42.96753699999977" lon="-1.4187249999999973">
        <ele>775.468</ele>
        <time>2022-08-24T13:46:55Z</time>
      </trkpt>
      <trkpt lat="42.96754299999977" lon="-1.4187299999999974">
        <ele>775.458</ele>
        <time>2022-08-24T13:46:56Z</time>
      </trkpt>
      <trkpt lat="42.96755099999977" lon="-1.4187409999999974">
        <ele>775.488</ele>
        <time>2022-08-24T13:46:57Z</time>
      </trkpt>
      <trkpt lat="42.967560999999776" lon="-1.4187669999999974">
        <ele>775.474</ele>
        <time>2022-08-24T13:46:58Z</time>
      </trkpt>
      <trkpt lat="42.967563999999776" lon="-1.4188309999999975">
        <ele>775.256</ele>
        <time>2022-08-24T13:47:00Z</time>
      </trkpt>
      <trkpt lat="42.96755999999978" lon="-1.4189019999999974">
        <ele>775.253</ele>
        <time>2022-08-24T13:47:02Z</time>
      </trkpt>
      <trkpt lat="42.96755999999978" lon="-1.4189469999999975">
        <ele>775.276</ele>
        <time>2022-08-24T13:47:03Z</time>
      </trkpt>
      <trkpt lat="42.96755899999978" lon="-1.4190509999999976">
        <ele>775.030</ele>
        <time>2022-08-24T13:47:05Z</time>
      </trkpt>
      <trkpt lat="42.96755299999978" lon="-1.4191729999999976">
        <ele>773.859</ele>
        <time>2022-08-24T13:47:07Z</time>
      </trkpt>
      <trkpt lat="42.967531999999785" lon="-1.4193779999999976">
        <ele>772.872</ele>
        <time>2022-08-24T13:47:10Z</time>
      </trkpt>
      <trkpt lat="42.96752499999979" lon="-1.4194529999999976">
        <ele>772.813</ele>
        <time>2022-08-24T13:47:11Z</time>
      </trkpt>
      <trkpt lat="42.96750899999979" lon="-1.4195959999999976">
        <ele>772.014</ele>
        <time>2022-08-24T13:47:13Z</time>
      </trkpt>
      <trkpt lat="42.96750199999979" lon="-1.4196569999999977">
        <ele>771.409</ele>
        <time>2022-08-24T13:47:14Z</time>
      </trkpt>
      <trkpt lat="42.96749799999979" lon="-1.4197169999999977">
        <ele>771.268</ele>
        <time>2022-08-24T13:47:15Z</time>
      </trkpt>
      <trkpt lat="42.96749499999979" lon="-1.4197739999999976">
        <ele>770.458</ele>
        <time>2022-08-24T13:47:16Z</time>
      </trkpt>
      <trkpt lat="42.96749499999979" lon="-1.4198299999999977">
        <ele>770.258</ele>
        <time>2022-08-24T13:47:17Z</time>
      </trkpt>
      <trkpt lat="42.967496999999796" lon="-1.4198899999999977">
        <ele>769.484</ele>
        <time>2022-08-24T13:47:18Z</time>
      </trkpt>
      <trkpt lat="42.96750099999979" lon="-1.4199499999999976">
        <ele>769.046</ele>
        <time>2022-08-24T13:47:19Z</time>
      </trkpt>
      <trkpt lat="42.96750699999979" lon="-1.4200129999999975">
        <ele>768.873</ele>
        <time>2022-08-24T13:47:20Z</time>
      </trkpt>
      <trkpt lat="42.96751899999979" lon="-1.4201509999999975">
        <ele>768.226</ele>
        <time>2022-08-24T13:47:22Z</time>
      </trkpt>
      <trkpt lat="42.96752699999979" lon="-1.4202219999999974">
        <ele>767.840</ele>
        <time>2022-08-24T13:47:23Z</time>
      </trkpt>
      <trkpt lat="42.96753599999979" lon="-1.4203549999999974">
        <ele>767.699</ele>
        <time>2022-08-24T13:47:25Z</time>
      </trkpt>
      <trkpt lat="42.96753999999979" lon="-1.4204119999999973">
        <ele>767.021</ele>
        <time>2022-08-24T13:47:26Z</time>
      </trkpt>
      <trkpt lat="42.96753999999979" lon="-1.4204649999999974">
        <ele>766.841</ele>
        <time>2022-08-24T13:47:27Z</time>
      </trkpt>
      <trkpt lat="42.967537999999784" lon="-1.4205189999999974">
        <ele>766.605</ele>
        <time>2022-08-24T13:47:28Z</time>
      </trkpt>
      <trkpt lat="42.96754199999978" lon="-1.4205729999999974">
        <ele>766.409</ele>
        <time>2022-08-24T13:47:29Z</time>
      </trkpt>
      <trkpt lat="42.96754899999978" lon="-1.4206279999999973">
        <ele>766.483</ele>
        <time>2022-08-24T13:47:30Z</time>
      </trkpt>
      <trkpt lat="42.967555999999774" lon="-1.4206809999999974">
        <ele>766.423</ele>
        <time>2022-08-24T13:47:31Z</time>
      </trkpt>
      <trkpt lat="42.967560999999776" lon="-1.4207279999999973">
        <ele>766.443</ele>
        <time>2022-08-24T13:47:32Z</time>
      </trkpt>
      <trkpt lat="42.967563999999776" lon="-1.4207669999999972">
        <ele>766.479</ele>
        <time>2022-08-24T13:47:33Z</time>
      </trkpt>
      <trkpt lat="42.967560999999776" lon="-1.4208009999999973">
        <ele>766.461</ele>
        <time>2022-08-24T13:47:34Z</time>
      </trkpt>
      <trkpt lat="42.967560999999776" lon="-1.4208309999999973">
        <ele>766.448</ele>
        <time>2022-08-24T13:47:35Z</time>
      </trkpt>
      <trkpt lat="42.967563999999776" lon="-1.4208609999999973">
        <ele>766.641</ele>
        <time>2022-08-24T13:47:36Z</time>
      </trkpt>
      <trkpt lat="42.96756599999978" lon="-1.4208869999999973">
        <ele>766.875</ele>
        <time>2022-08-24T13:47:37Z</time>
      </trkpt>
      <trkpt lat="42.967566999999775" lon="-1.4209129999999974">
        <ele>767.294</ele>
        <time>2022-08-24T13:47:38Z</time>
      </trkpt>
      <trkpt lat="42.967566999999775" lon="-1.4209379999999974">
        <ele>767.485</ele>
        <time>2022-08-24T13:47:39Z</time>
      </trkpt>
      <trkpt lat="42.96756799999977" lon="-1.4209609999999975">
        <ele>767.489</ele>
        <time>2022-08-24T13:47:40Z</time>
      </trkpt>
      <trkpt lat="42.967569999999775" lon="-1.4209809999999974">
        <ele>767.617</ele>
        <time>2022-08-24T13:47:41Z</time>
      </trkpt>
      <trkpt lat="42.967569999999775" lon="-1.4210019999999974">
        <ele>767.609</ele>
        <time>2022-08-24T13:47:42Z</time>
      </trkpt>
      <trkpt lat="42.96756899999978" lon="-1.4210219999999973">
        <ele>767.659</ele>
        <time>2022-08-24T13:47:43Z</time>
      </trkpt>
      <trkpt lat="42.96756799999978" lon="-1.4210439999999973">
        <ele>767.849</ele>
        <time>2022-08-24T13:47:44Z</time>
      </trkpt>
      <trkpt lat="42.96756699999978" lon="-1.4210669999999974">
        <ele>767.859</ele>
        <time>2022-08-24T13:47:45Z</time>
      </trkpt>
      <trkpt lat="42.967562999999785" lon="-1.4211139999999973">
        <ele>768.095</ele>
        <time>2022-08-24T13:47:47Z</time>
      </trkpt>
      <trkpt lat="42.96755899999979" lon="-1.4211599999999973">
        <ele>768.277</ele>
        <time>2022-08-24T13:47:49Z</time>
      </trkpt>
      <trkpt lat="42.967559999999786" lon="-1.4211759999999973">
        <ele>768.424</ele>
        <time>2022-08-24T13:47:50Z</time>
      </trkpt>
      <trkpt lat="42.96756099999978" lon="-1.4211949999999973">
        <ele>768.627</ele>
        <time>2022-08-24T13:47:51Z</time>
      </trkpt>
      <trkpt lat="42.96756099999978" lon="-1.4212149999999972">
        <ele>769.221</ele>
        <time>2022-08-24T13:47:52Z</time>
      </trkpt>
      <trkpt lat="42.96756199999978" lon="-1.4212359999999973">
        <ele>769.440</ele>
        <time>2022-08-24T13:47:53Z</time>
      </trkpt>
      <trkpt lat="42.96756499999978" lon="-1.4213219999999973">
        <ele>770.493</ele>
        <time>2022-08-24T13:47:57Z</time>
      </trkpt>
      <trkpt lat="42.96755999999978" lon="-1.4214089999999973">
        <ele>771.065</ele>
        <time>2022-08-24T13:48:01Z</time>
      </trkpt>
      <trkpt lat="42.96755799999978" lon="-1.4214269999999973">
        <ele>771.221</ele>
        <time>2022-08-24T13:48:02Z</time>
      </trkpt>
      <trkpt lat="42.96755199999978" lon="-1.4214469999999972">
        <ele>771.409</ele>
        <time>2022-08-24T13:48:03Z</time>
      </trkpt>
      <trkpt lat="42.96755199999978" lon="-1.4214659999999972">
        <ele>771.630</ele>
        <time>2022-08-24T13:48:04Z</time>
      </trkpt>
      <trkpt lat="42.967552999999775" lon="-1.4214819999999972">
        <ele>771.820</ele>
        <time>2022-08-24T13:48:05Z</time>
      </trkpt>
      <trkpt lat="42.96755099999977" lon="-1.4214999999999973">
        <ele>772.050</ele>
        <time>2022-08-24T13:48:06Z</time>
      </trkpt>
      <trkpt lat="42.967549999999775" lon="-1.4215189999999973">
        <ele>772.256</ele>
        <time>2022-08-24T13:48:07Z</time>
      </trkpt>
      <trkpt lat="42.967546999999776" lon="-1.4215369999999974">
        <ele>772.468</ele>
        <time>2022-08-24T13:48:08Z</time>
      </trkpt>
      <trkpt lat="42.967544999999774" lon="-1.4215549999999975">
        <ele>772.635</ele>
        <time>2022-08-24T13:48:09Z</time>
      </trkpt>
      <trkpt lat="42.96754299999977" lon="-1.4215729999999975">
        <ele>772.638</ele>
        <time>2022-08-24T13:48:10Z</time>
      </trkpt>
      <trkpt lat="42.96754099999977" lon="-1.4215899999999975">
        <ele>772.892</ele>
        <time>2022-08-24T13:48:11Z</time>
      </trkpt>
      <trkpt lat="42.96754099999977" lon="-1.4216059999999975">
        <ele>773.061</ele>
        <time>2022-08-24T13:48:12Z</time>
      </trkpt>
      <trkpt lat="42.96754099999977" lon="-1.4216249999999975">
        <ele>773.042</ele>
        <time>2022-08-24T13:48:13Z</time>
      </trkpt>
      <trkpt lat="42.96754099999977" lon="-1.4216459999999975">
        <ele>773.222</ele>
        <time>2022-08-24T13:48:14Z</time>
      </trkpt>
      <trkpt lat="42.96753999999977" lon="-1.4216659999999974">
        <ele>773.214</ele>
        <time>2022-08-24T13:48:15Z</time>
      </trkpt>
      <trkpt lat="42.96753999999977" lon="-1.4216879999999974">
        <ele>773.409</ele>
        <time>2022-08-24T13:48:16Z</time>
      </trkpt>
      <trkpt lat="42.96753799999977" lon="-1.4217089999999974">
        <ele>773.445</ele>
        <time>2022-08-24T13:48:17Z</time>
      </trkpt>
      <trkpt lat="42.96753799999977" lon="-1.4217299999999975">
        <ele>773.635</ele>
        <time>2022-08-24T13:48:18Z</time>
      </trkpt>
      <trkpt lat="42.96753699999977" lon="-1.4217499999999974">
        <ele>774.025</ele>
        <time>2022-08-24T13:48:19Z</time>
      </trkpt>
      <trkpt lat="42.96753499999977" lon="-1.4217689999999974">
        <ele>774.261</ele>
        <time>2022-08-24T13:48:20Z</time>
      </trkpt>
      <trkpt lat="42.96753199999977" lon="-1.4217879999999974">
        <ele>774.453</ele>
        <time>2022-08-24T13:48:21Z</time>
      </trkpt>
      <trkpt lat="42.967527999999774" lon="-1.4218119999999974">
        <ele>774.680</ele>
        <time>2022-08-24T13:48:22Z</time>
      </trkpt>
      <trkpt lat="42.96752599999977" lon="-1.4218289999999973">
        <ele>774.883</ele>
        <time>2022-08-24T13:48:23Z</time>
      </trkpt>
      <trkpt lat="42.96752299999977" lon="-1.4218499999999974">
        <ele>775.067</ele>
        <time>2022-08-24T13:48:24Z</time>
      </trkpt>
      <trkpt lat="42.96752099999977" lon="-1.4218679999999975">
        <ele>775.026</ele>
        <time>2022-08-24T13:48:25Z</time>
      </trkpt>
      <trkpt lat="42.96752099999977" lon="-1.4218839999999975">
        <ele>775.463</ele>
        <time>2022-08-24T13:48:26Z</time>
      </trkpt>
      <trkpt lat="42.96751899999977" lon="-1.4219009999999974">
        <ele>775.444</ele>
        <time>2022-08-24T13:48:27Z</time>
      </trkpt>
      <trkpt lat="42.967516999999766" lon="-1.4219189999999975">
        <ele>775.618</ele>
        <time>2022-08-24T13:48:28Z</time>
      </trkpt>
      <trkpt lat="42.967514999999764" lon="-1.4219369999999976">
        <ele>775.609</ele>
        <time>2022-08-24T13:48:29Z</time>
      </trkpt>
      <trkpt lat="42.967514999999764" lon="-1.4219549999999976">
        <ele>775.857</ele>
        <time>2022-08-24T13:48:30Z</time>
      </trkpt>
      <trkpt lat="42.967514999999764" lon="-1.4219749999999975">
        <ele>776.067</ele>
        <time>2022-08-24T13:48:31Z</time>
      </trkpt>
      <trkpt lat="42.96751399999977" lon="-1.4219949999999975">
        <ele>776.047</ele>
        <time>2022-08-24T13:48:32Z</time>
      </trkpt>
      <trkpt lat="42.96751299999977" lon="-1.4220149999999974">
        <ele>776.293</ele>
        <time>2022-08-24T13:48:33Z</time>
      </trkpt>
      <trkpt lat="42.96751199999977" lon="-1.4220339999999974">
        <ele>776.285</ele>
        <time>2022-08-24T13:48:34Z</time>
      </trkpt>
      <trkpt lat="42.96750999999977" lon="-1.4220519999999974">
        <ele>776.462</ele>
        <time>2022-08-24T13:48:35Z</time>
      </trkpt>
      <trkpt lat="42.96750999999977" lon="-1.4220739999999974">
        <ele>776.445</ele>
        <time>2022-08-24T13:48:36Z</time>
      </trkpt>
      <trkpt lat="42.96750999999977" lon="-1.4220949999999974">
        <ele>776.419</ele>
        <time>2022-08-24T13:48:37Z</time>
      </trkpt>
      <trkpt lat="42.96750799999977" lon="-1.4221159999999975">
        <ele>776.698</ele>
        <time>2022-08-24T13:48:38Z</time>
      </trkpt>
      <trkpt lat="42.96750499999977" lon="-1.4221369999999975">
        <ele>776.635</ele>
        <time>2022-08-24T13:48:39Z</time>
      </trkpt>
      <trkpt lat="42.96750699999977" lon="-1.4221599999999976">
        <ele>776.686</ele>
        <time>2022-08-24T13:48:40Z</time>
      </trkpt>
      <trkpt lat="42.96750699999977" lon="-1.4221829999999978">
        <ele>776.814</ele>
        <time>2022-08-24T13:48:41Z</time>
      </trkpt>
      <trkpt lat="42.96750599999977" lon="-1.4222039999999978">
        <ele>776.809</ele>
        <time>2022-08-24T13:48:42Z</time>
      </trkpt>
      <trkpt lat="42.967501999999776" lon="-1.4222239999999977">
        <ele>776.834</ele>
        <time>2022-08-24T13:48:43Z</time>
      </trkpt>
      <trkpt lat="42.967496999999774" lon="-1.4222439999999976">
        <ele>776.884</ele>
        <time>2022-08-24T13:48:44Z</time>
      </trkpt>
      <trkpt lat="42.96749299999978" lon="-1.4222639999999975">
        <ele>776.814</ele>
        <time>2022-08-24T13:48:45Z</time>
      </trkpt>
      <trkpt lat="42.96748699999978" lon="-1.4222809999999975">
        <ele>777.070</ele>
        <time>2022-08-24T13:48:46Z</time>
      </trkpt>
      <trkpt lat="42.96748099999978" lon="-1.4222979999999974">
        <ele>777.062</ele>
        <time>2022-08-24T13:48:47Z</time>
      </trkpt>
      <trkpt lat="42.96747499999978" lon="-1.4223179999999973">
        <ele>777.289</ele>
        <time>2022-08-24T13:48:48Z</time>
      </trkpt>
      <trkpt lat="42.96746999999978" lon="-1.4223369999999973">
        <ele>777.492</ele>
        <time>2022-08-24T13:48:49Z</time>
      </trkpt>
      <trkpt lat="42.96746699999978" lon="-1.4223579999999973">
        <ele>777.636</ele>
        <time>2022-08-24T13:48:50Z</time>
      </trkpt>
      <trkpt lat="42.96746399999978" lon="-1.4223779999999973">
        <ele>777.675</ele>
        <time>2022-08-24T13:48:51Z</time>
      </trkpt>
      <trkpt lat="42.96745699999978" lon="-1.4223979999999972">
        <ele>777.867</ele>
        <time>2022-08-24T13:48:52Z</time>
      </trkpt>
      <trkpt lat="42.967424999999785" lon="-1.4224789999999972">
        <ele>778.481</ele>
        <time>2022-08-24T13:48:56Z</time>
      </trkpt>
      <trkpt lat="42.967416999999784" lon="-1.4225199999999971">
        <ele>778.619</ele>
        <time>2022-08-24T13:48:58Z</time>
      </trkpt>
      <trkpt lat="42.96741199999978" lon="-1.4225389999999971">
        <ele>778.809</ele>
        <time>2022-08-24T13:48:59Z</time>
      </trkpt>
      <trkpt lat="42.967407999999786" lon="-1.4225569999999972">
        <ele>779.087</ele>
        <time>2022-08-24T13:49:00Z</time>
      </trkpt>
      <trkpt lat="42.967402999999784" lon="-1.422576999999997">
        <ele>779.287</ele>
        <time>2022-08-24T13:49:01Z</time>
      </trkpt>
      <trkpt lat="42.96740099999978" lon="-1.4225979999999971">
        <ele>779.477</ele>
        <time>2022-08-24T13:49:02Z</time>
      </trkpt>
      <trkpt lat="42.967396999999785" lon="-1.4226189999999972">
        <ele>779.463</ele>
        <time>2022-08-24T13:49:03Z</time>
      </trkpt>
      <trkpt lat="42.967393999999786" lon="-1.4226369999999973">
        <ele>779.665</ele>
        <time>2022-08-24T13:49:04Z</time>
      </trkpt>
      <trkpt lat="42.96738999999979" lon="-1.4226589999999972">
        <ele>779.672</ele>
        <time>2022-08-24T13:49:05Z</time>
      </trkpt>
      <trkpt lat="42.96738799999979" lon="-1.4226749999999972">
        <ele>779.895</ele>
        <time>2022-08-24T13:49:06Z</time>
      </trkpt>
      <trkpt lat="42.967385999999784" lon="-1.4226959999999973">
        <ele>780.019</ele>
        <time>2022-08-24T13:49:07Z</time>
      </trkpt>
      <trkpt lat="42.96738699999978" lon="-1.4227179999999973">
        <ele>780.238</ele>
        <time>2022-08-24T13:49:08Z</time>
      </trkpt>
      <trkpt lat="42.967388999999784" lon="-1.4227389999999973">
        <ele>780.458</ele>
        <time>2022-08-24T13:49:09Z</time>
      </trkpt>
      <trkpt lat="42.967388999999784" lon="-1.4227649999999974">
        <ele>780.652</ele>
        <time>2022-08-24T13:49:10Z</time>
      </trkpt>
      <trkpt lat="42.96738799999979" lon="-1.4227979999999973">
        <ele>780.817</ele>
        <time>2022-08-24T13:49:11Z</time>
      </trkpt>
      <trkpt lat="42.967385999999784" lon="-1.4228359999999973">
        <ele>780.809</ele>
        <time>2022-08-24T13:49:12Z</time>
      </trkpt>
      <trkpt lat="42.96738399999978" lon="-1.4228749999999972">
        <ele>781.056</ele>
        <time>2022-08-24T13:49:13Z</time>
      </trkpt>
      <trkpt lat="42.967382999999785" lon="-1.4229079999999972">
        <ele>781.046</ele>
        <time>2022-08-24T13:49:14Z</time>
      </trkpt>
      <trkpt lat="42.96738499999979" lon="-1.4229459999999972">
        <ele>781.076</ele>
        <time>2022-08-24T13:49:15Z</time>
      </trkpt>
      <trkpt lat="42.967385999999784" lon="-1.422981999999997">
        <ele>781.062</ele>
        <time>2022-08-24T13:49:16Z</time>
      </trkpt>
      <trkpt lat="42.96738799999979" lon="-1.423012999999997">
        <ele>781.024</ele>
        <time>2022-08-24T13:49:17Z</time>
      </trkpt>
      <trkpt lat="42.96738699999979" lon="-1.423036999999997">
        <ele>780.821</ele>
        <time>2022-08-24T13:49:18Z</time>
      </trkpt>
      <trkpt lat="42.96738399999979" lon="-1.423058999999997">
        <ele>780.624</ele>
        <time>2022-08-24T13:49:19Z</time>
      </trkpt>
      <trkpt lat="42.96737299999979" lon="-1.423084999999997">
        <ele>780.248</ele>
        <time>2022-08-24T13:49:20Z</time>
      </trkpt>
      <trkpt lat="42.96735499999979" lon="-1.423114999999997">
        <ele>779.897</ele>
        <time>2022-08-24T13:49:21Z</time>
      </trkpt>
      <trkpt lat="42.96733799999979" lon="-1.423150999999997">
        <ele>779.637</ele>
        <time>2022-08-24T13:49:22Z</time>
      </trkpt>
      <trkpt lat="42.967322999999794" lon="-1.423192999999997">
        <ele>779.249</ele>
        <time>2022-08-24T13:49:23Z</time>
      </trkpt>
      <trkpt lat="42.967302999999795" lon="-1.423274999999997">
        <ele>778.813</ele>
        <time>2022-08-24T13:49:25Z</time>
      </trkpt>
      <trkpt lat="42.9672959999998" lon="-1.4233139999999969">
        <ele>778.409</ele>
        <time>2022-08-24T13:49:26Z</time>
      </trkpt>
      <trkpt lat="42.9672739999998" lon="-1.4234279999999968">
        <ele>778.054</ele>
        <time>2022-08-24T13:49:29Z</time>
      </trkpt>
      <trkpt lat="42.967274999999795" lon="-1.4234689999999968">
        <ele>778.024</ele>
        <time>2022-08-24T13:49:30Z</time>
      </trkpt>
      <trkpt lat="42.9672769999998" lon="-1.4235079999999967">
        <ele>777.894</ele>
        <time>2022-08-24T13:49:31Z</time>
      </trkpt>
      <trkpt lat="42.967271999999795" lon="-1.4235459999999966">
        <ele>777.860</ele>
        <time>2022-08-24T13:49:32Z</time>
      </trkpt>
      <trkpt lat="42.9672679999998" lon="-1.4235809999999967">
        <ele>777.652</ele>
        <time>2022-08-24T13:49:33Z</time>
      </trkpt>
      <trkpt lat="42.9672639999998" lon="-1.4236169999999966">
        <ele>777.679</ele>
        <time>2022-08-24T13:49:34Z</time>
      </trkpt>
      <trkpt lat="42.9672519999998" lon="-1.4236549999999966">
        <ele>776.842</ele>
        <time>2022-08-24T13:49:35Z</time>
      </trkpt>
      <trkpt lat="42.967239999999805" lon="-1.4236919999999966">
        <ele>776.616</ele>
        <time>2022-08-24T13:49:36Z</time>
      </trkpt>
      <trkpt lat="42.96722499999981" lon="-1.4237309999999965">
        <ele>776.295</ele>
        <time>2022-08-24T13:49:37Z</time>
      </trkpt>
      <trkpt lat="42.96721299999981" lon="-1.4237719999999965">
        <ele>775.453</ele>
        <time>2022-08-24T13:49:38Z</time>
      </trkpt>
      <trkpt lat="42.96720799999981" lon="-1.4238109999999964">
        <ele>775.204</ele>
        <time>2022-08-24T13:49:39Z</time>
      </trkpt>
      <trkpt lat="42.96720399999981" lon="-1.4238459999999964">
        <ele>774.814</ele>
        <time>2022-08-24T13:49:40Z</time>
      </trkpt>
      <trkpt lat="42.967196999999814" lon="-1.4239199999999963">
        <ele>774.009</ele>
        <time>2022-08-24T13:49:42Z</time>
      </trkpt>
      <trkpt lat="42.96719199999981" lon="-1.4239689999999963">
        <ele>773.686</ele>
        <time>2022-08-24T13:49:43Z</time>
      </trkpt>
      <trkpt lat="42.967184999999816" lon="-1.4240489999999963">
        <ele>773.056</ele>
        <time>2022-08-24T13:49:45Z</time>
      </trkpt>
      <trkpt lat="42.967176999999815" lon="-1.4241059999999963">
        <ele>772.616</ele>
        <time>2022-08-24T13:49:46Z</time>
      </trkpt>
      <trkpt lat="42.96714199999982" lon="-1.4242639999999964">
        <ele>772.072</ele>
        <time>2022-08-24T13:49:48Z</time>
      </trkpt>
      <trkpt lat="42.96711399999982" lon="-1.4243429999999964">
        <ele>771.674</ele>
        <time>2022-08-24T13:49:49Z</time>
      </trkpt>
      <trkpt lat="42.96709999999982" lon="-1.4244129999999964">
        <ele>771.221</ele>
        <time>2022-08-24T13:49:50Z</time>
      </trkpt>
      <trkpt lat="42.96707899999982" lon="-1.4244619999999963">
        <ele>771.044</ele>
        <time>2022-08-24T13:49:51Z</time>
      </trkpt>
      <trkpt lat="42.96702999999982" lon="-1.4245499999999964">
        <ele>770.678</ele>
        <time>2022-08-24T13:49:53Z</time>
      </trkpt>
      <trkpt lat="42.96700899999983" lon="-1.4246289999999964">
        <ele>770.027</ele>
        <time>2022-08-24T13:49:54Z</time>
      </trkpt>
      <trkpt lat="42.96699099999983" lon="-1.4246959999999964">
        <ele>769.885</ele>
        <time>2022-08-24T13:49:55Z</time>
      </trkpt>
      <trkpt lat="42.96697599999983" lon="-1.4247529999999964">
        <ele>769.689</ele>
        <time>2022-08-24T13:49:56Z</time>
      </trkpt>
      <trkpt lat="42.966968999999835" lon="-1.4248129999999963">
        <ele>769.417</ele>
        <time>2022-08-24T13:49:57Z</time>
      </trkpt>
      <trkpt lat="42.96697399999984" lon="-1.4249309999999964">
        <ele>768.409</ele>
        <time>2022-08-24T13:49:59Z</time>
      </trkpt>
      <trkpt lat="42.96694499999984" lon="-1.4250269999999965">
        <ele>768.019</ele>
        <time>2022-08-24T13:50:00Z</time>
      </trkpt>
      <trkpt lat="42.96688199999984" lon="-1.4251859999999965">
        <ele>767.289</ele>
        <time>2022-08-24T13:50:02Z</time>
      </trkpt>
      <trkpt lat="42.96685399999984" lon="-1.4252519999999964">
        <ele>767.299</ele>
        <time>2022-08-24T13:50:03Z</time>
      </trkpt>
      <trkpt lat="42.96680999999984" lon="-1.4253199999999964">
        <ele>766.865</ele>
        <time>2022-08-24T13:50:04Z</time>
      </trkpt>
      <trkpt lat="42.966782999999836" lon="-1.4253719999999963">
        <ele>766.457</ele>
        <time>2022-08-24T13:50:05Z</time>
      </trkpt>
      <trkpt lat="42.96677299999983" lon="-1.4254059999999964">
        <ele>766.094</ele>
        <time>2022-08-24T13:50:06Z</time>
      </trkpt>
      <trkpt lat="42.96671399999983" lon="-1.4254729999999964">
        <ele>765.817</ele>
        <time>2022-08-24T13:50:08Z</time>
      </trkpt>
      <trkpt lat="42.96667299999983" lon="-1.4255159999999965">
        <ele>765.671</ele>
        <time>2022-08-24T13:50:09Z</time>
      </trkpt>
      <trkpt lat="42.96661299999983" lon="-1.4256149999999965">
        <ele>765.280</ele>
        <time>2022-08-24T13:50:11Z</time>
      </trkpt>
      <trkpt lat="42.96658599999983" lon="-1.4256879999999965">
        <ele>765.026</ele>
        <time>2022-08-24T13:50:12Z</time>
      </trkpt>
      <trkpt lat="42.96655599999983" lon="-1.4257479999999965">
        <ele>765.047</ele>
        <time>2022-08-24T13:50:13Z</time>
      </trkpt>
      <trkpt lat="42.966553999999824" lon="-1.4257919999999964">
        <ele>764.811</ele>
        <time>2022-08-24T13:50:14Z</time>
      </trkpt>
      <trkpt lat="42.966559999999824" lon="-1.4258209999999965">
        <ele>764.609</ele>
        <time>2022-08-24T13:50:15Z</time>
      </trkpt>
      <trkpt lat="42.966559999999824" lon="-1.4258719999999965">
        <ele>764.213</ele>
        <time>2022-08-24T13:50:16Z</time>
      </trkpt>
      <trkpt lat="42.966558999999826" lon="-1.4259149999999965">
        <ele>764.293</ele>
        <time>2022-08-24T13:50:17Z</time>
      </trkpt>
      <trkpt lat="42.966558999999826" lon="-1.4259589999999964">
        <ele>763.883</ele>
        <time>2022-08-24T13:50:18Z</time>
      </trkpt>
      <trkpt lat="42.96654599999982" lon="-1.4260079999999964">
        <ele>763.869</ele>
        <time>2022-08-24T13:50:19Z</time>
      </trkpt>
      <trkpt lat="42.96649299999982" lon="-1.4260719999999965">
        <ele>763.051</ele>
        <time>2022-08-24T13:50:20Z</time>
      </trkpt>
      <trkpt lat="42.96644899999982" lon="-1.4261099999999964">
        <ele>762.468</ele>
        <time>2022-08-24T13:50:21Z</time>
      </trkpt>
      <trkpt lat="42.966424999999816" lon="-1.4261579999999965">
        <ele>762.021</ele>
        <time>2022-08-24T13:50:22Z</time>
      </trkpt>
      <trkpt lat="42.966413999999816" lon="-1.4261999999999966">
        <ele>761.695</ele>
        <time>2022-08-24T13:50:23Z</time>
      </trkpt>
      <trkpt lat="42.96641799999981" lon="-1.4262479999999966">
        <ele>761.474</ele>
        <time>2022-08-24T13:50:24Z</time>
      </trkpt>
      <trkpt lat="42.96641299999981" lon="-1.4262879999999967">
        <ele>761.044</ele>
        <time>2022-08-24T13:50:25Z</time>
      </trkpt>
      <trkpt lat="42.96638799999981" lon="-1.4264109999999968">
        <ele>760.405</ele>
        <time>2022-08-24T13:50:27Z</time>
      </trkpt>
      <trkpt lat="42.96634999999981" lon="-1.4264899999999967">
        <ele>759.815</ele>
        <time>2022-08-24T13:50:28Z</time>
      </trkpt>
      <trkpt lat="42.96633199999981" lon="-1.4265339999999966">
        <ele>759.809</ele>
        <time>2022-08-24T13:50:29Z</time>
      </trkpt>
      <trkpt lat="42.96632799999981" lon="-1.4265589999999966">
        <ele>759.425</ele>
        <time>2022-08-24T13:50:30Z</time>
      </trkpt>
      <trkpt lat="42.966315999999814" lon="-1.4266239999999966">
        <ele>759.265</ele>
        <time>2022-08-24T13:50:31Z</time>
      </trkpt>
      <trkpt lat="42.96630299999981" lon="-1.4266559999999966">
        <ele>758.625</ele>
        <time>2022-08-24T13:50:32Z</time>
      </trkpt>
      <trkpt lat="42.96625199999981" lon="-1.4267819999999967">
        <ele>757.851</ele>
        <time>2022-08-24T13:50:35Z</time>
      </trkpt>
      <trkpt lat="42.96621499999981" lon="-1.4268229999999966">
        <ele>757.853</ele>
        <time>2022-08-24T13:50:36Z</time>
      </trkpt>
      <trkpt lat="42.96618199999981" lon="-1.4268499999999966">
        <ele>757.240</ele>
        <time>2022-08-24T13:50:37Z</time>
      </trkpt>
      <trkpt lat="42.96616999999981" lon="-1.4268709999999967">
        <ele>757.093</ele>
        <time>2022-08-24T13:50:38Z</time>
      </trkpt>
      <trkpt lat="42.96615999999981" lon="-1.4268929999999966">
        <ele>756.837</ele>
        <time>2022-08-24T13:50:39Z</time>
      </trkpt>
      <trkpt lat="42.96614299999981" lon="-1.4269599999999967">
        <ele>756.276</ele>
        <time>2022-08-24T13:50:41Z</time>
      </trkpt>
      <trkpt lat="42.96611299999981" lon="-1.4270849999999966">
        <ele>755.884</ele>
        <time>2022-08-24T13:50:43Z</time>
      </trkpt>
      <trkpt lat="42.96607799999981" lon="-1.4272609999999966">
        <ele>755.007</ele>
        <time>2022-08-24T13:50:45Z</time>
      </trkpt>
      <trkpt lat="42.96604399999981" lon="-1.4273279999999966">
        <ele>754.817</ele>
        <time>2022-08-24T13:50:46Z</time>
      </trkpt>
      <trkpt lat="42.96603099999981" lon="-1.4273649999999967">
        <ele>754.609</ele>
        <time>2022-08-24T13:50:47Z</time>
      </trkpt>
      <trkpt lat="42.96601199999981" lon="-1.4274689999999968">
        <ele>754.089</ele>
        <time>2022-08-24T13:50:49Z</time>
      </trkpt>
      <trkpt lat="42.96599399999981" lon="-1.4275289999999967">
        <ele>753.889</ele>
        <time>2022-08-24T13:50:50Z</time>
      </trkpt>
      <trkpt lat="42.96598499999981" lon="-1.4275749999999967">
        <ele>753.669</ele>
        <time>2022-08-24T13:50:51Z</time>
      </trkpt>
      <trkpt lat="42.965969999999814" lon="-1.4276289999999967">
        <ele>753.465</ele>
        <time>2022-08-24T13:50:52Z</time>
      </trkpt>
      <trkpt lat="42.96593499999982" lon="-1.4277719999999967">
        <ele>752.847</ele>
        <time>2022-08-24T13:50:54Z</time>
      </trkpt>
      <trkpt lat="42.96591799999982" lon="-1.4278389999999967">
        <ele>752.654</ele>
        <time>2022-08-24T13:50:55Z</time>
      </trkpt>
      <trkpt lat="42.96589699999982" lon="-1.4278889999999969">
        <ele>752.647</ele>
        <time>2022-08-24T13:50:56Z</time>
      </trkpt>
      <trkpt lat="42.96585599999982" lon="-1.4279979999999968">
        <ele>752.421</ele>
        <time>2022-08-24T13:50:58Z</time>
      </trkpt>
      <trkpt lat="42.96580799999982" lon="-1.4280949999999968">
        <ele>752.270</ele>
        <time>2022-08-24T13:51:00Z</time>
      </trkpt>
      <trkpt lat="42.965769999999814" lon="-1.4281949999999968">
        <ele>752.045</ele>
        <time>2022-08-24T13:51:02Z</time>
      </trkpt>
      <trkpt lat="42.965741999999814" lon="-1.4282379999999968">
        <ele>752.047</ele>
        <time>2022-08-24T13:51:03Z</time>
      </trkpt>
      <trkpt lat="42.965710999999814" lon="-1.4282779999999968">
        <ele>751.811</ele>
        <time>2022-08-24T13:51:04Z</time>
      </trkpt>
      <trkpt lat="42.96569999999981" lon="-1.4282969999999968">
        <ele>751.809</ele>
        <time>2022-08-24T13:51:05Z</time>
      </trkpt>
      <trkpt lat="42.965681999999816" lon="-1.4283459999999968">
        <ele>751.895</ele>
        <time>2022-08-24T13:51:06Z</time>
      </trkpt>
      <trkpt lat="42.96567199999981" lon="-1.4283869999999967">
        <ele>751.855</ele>
        <time>2022-08-24T13:51:07Z</time>
      </trkpt>
      <trkpt lat="42.965659999999815" lon="-1.4284059999999967">
        <ele>751.685</ele>
        <time>2022-08-24T13:51:08Z</time>
      </trkpt>
      <trkpt lat="42.96575399999981" lon="-1.4285049999999968">
        <ele>750.881</ele>
        <time>2022-08-24T13:51:13Z</time>
      </trkpt>
      <trkpt lat="42.96577399999981" lon="-1.4285339999999969">
        <ele>750.613</ele>
        <time>2022-08-24T13:51:14Z</time>
      </trkpt>
      <trkpt lat="42.96585399999981" lon="-1.428632999999997">
        <ele>750.070</ele>
        <time>2022-08-24T13:51:17Z</time>
      </trkpt>
      <trkpt lat="42.965882999999806" lon="-1.428661999999997">
        <ele>749.863</ele>
        <time>2022-08-24T13:51:18Z</time>
      </trkpt>
      <trkpt lat="42.96590999999981" lon="-1.428694999999997">
        <ele>749.627</ele>
        <time>2022-08-24T13:51:19Z</time>
      </trkpt>
      <trkpt lat="42.965930999999806" lon="-1.428721999999997">
        <ele>749.656</ele>
        <time>2022-08-24T13:51:20Z</time>
      </trkpt>
      <trkpt lat="42.965939999999804" lon="-1.4287419999999968">
        <ele>749.619</ele>
        <time>2022-08-24T13:51:21Z</time>
      </trkpt>
      <trkpt lat="42.9659379999998" lon="-1.4287739999999969">
        <ele>749.609</ele>
        <time>2022-08-24T13:51:22Z</time>
      </trkpt>
      <trkpt lat="42.9659299999998" lon="-1.4288019999999968">
        <ele>749.619</ele>
        <time>2022-08-24T13:51:23Z</time>
      </trkpt>
      <trkpt lat="42.965911999999804" lon="-1.4288489999999967">
        <ele>749.809</ele>
        <time>2022-08-24T13:51:25Z</time>
      </trkpt>
      <trkpt lat="42.9659099999998" lon="-1.4288579999999966">
        <ele>750.272</ele>
        <time>2022-08-24T13:51:28Z</time>
      </trkpt>
      <trkpt lat="42.965908999999805" lon="-1.4288859999999965">
        <ele>750.432</ele>
        <time>2022-08-24T13:51:30Z</time>
      </trkpt>
      <trkpt lat="42.965874999999805" lon="-1.4290289999999966">
        <ele>750.672</ele>
        <time>2022-08-24T13:51:35Z</time>
      </trkpt>
      <trkpt lat="42.96585699999981" lon="-1.4290879999999966">
        <ele>750.638</ele>
        <time>2022-08-24T13:51:37Z</time>
      </trkpt>
      <trkpt lat="42.96585099999981" lon="-1.4291119999999966">
        <ele>750.630</ele>
        <time>2022-08-24T13:51:38Z</time>
      </trkpt>
      <trkpt lat="42.96584899999981" lon="-1.4291249999999966">
        <ele>750.687</ele>
        <time>2022-08-24T13:51:39Z</time>
      </trkpt>
      <trkpt lat="42.96584799999981" lon="-1.4291289999999965">
        <ele>750.690</ele>
        <time>2022-08-24T13:51:40Z</time>
      </trkpt>
      <trkpt lat="42.96583599999981" lon="-1.4291659999999966">
        <ele>750.024</ele>
        <time>2022-08-24T13:51:49Z</time>
      </trkpt>
      <trkpt lat="42.96578099999981" lon="-1.4292659999999966">
        <ele>750.063</ele>
        <time>2022-08-24T13:51:52Z</time>
      </trkpt>
      <trkpt lat="42.96567999999981" lon="-1.4295369999999965">
        <ele>749.662</ele>
        <time>2022-08-24T13:51:57Z</time>
      </trkpt>
      <trkpt lat="42.965654999999806" lon="-1.4295849999999966">
        <ele>749.483</ele>
        <time>2022-08-24T13:51:58Z</time>
      </trkpt>
      <trkpt lat="42.965629999999805" lon="-1.4296319999999965">
        <ele>749.211</ele>
        <time>2022-08-24T13:51:59Z</time>
      </trkpt>
      <trkpt lat="42.9656059999998" lon="-1.4296779999999965">
        <ele>749.009</ele>
        <time>2022-08-24T13:52:00Z</time>
      </trkpt>
      <trkpt lat="42.9655889999998" lon="-1.4297309999999965">
        <ele>749.017</ele>
        <time>2022-08-24T13:52:01Z</time>
      </trkpt>
      <trkpt lat="42.9655789999998" lon="-1.4297879999999965">
        <ele>749.077</ele>
        <time>2022-08-24T13:52:02Z</time>
      </trkpt>
      <trkpt lat="42.9655639999998" lon="-1.4298409999999966">
        <ele>749.057</ele>
        <time>2022-08-24T13:52:03Z</time>
      </trkpt>
      <trkpt lat="42.9655559999998" lon="-1.4298969999999966">
        <ele>748.833</ele>
        <time>2022-08-24T13:52:04Z</time>
      </trkpt>
      <trkpt lat="42.9655469999998" lon="-1.4299519999999966">
        <ele>748.655</ele>
        <time>2022-08-24T13:52:05Z</time>
      </trkpt>
      <trkpt lat="42.9655329999998" lon="-1.4300049999999966">
        <ele>748.692</ele>
        <time>2022-08-24T13:52:06Z</time>
      </trkpt>
      <trkpt lat="42.9654999999998" lon="-1.4301159999999966">
        <ele>748.475</ele>
        <time>2022-08-24T13:52:08Z</time>
      </trkpt>
      <trkpt lat="42.9654779999998" lon="-1.4302389999999967">
        <ele>747.679</ele>
        <time>2022-08-24T13:52:10Z</time>
      </trkpt>
      <trkpt lat="42.9654099999998" lon="-1.4306509999999968">
        <ele>746.848</ele>
        <time>2022-08-24T13:52:16Z</time>
      </trkpt>
      <trkpt lat="42.9653819999998" lon="-1.4308039999999969">
        <ele>746.658</ele>
        <time>2022-08-24T13:52:18Z</time>
      </trkpt>
      <trkpt lat="42.9653689999998" lon="-1.430878999999997">
        <ele>746.652</ele>
        <time>2022-08-24T13:52:19Z</time>
      </trkpt>
      <trkpt lat="42.965315999999795" lon="-1.431098999999997">
        <ele>746.017</ele>
        <time>2022-08-24T13:52:22Z</time>
      </trkpt>
      <trkpt lat="42.965298999999796" lon="-1.431167999999997">
        <ele>745.809</ele>
        <time>2022-08-24T13:52:23Z</time>
      </trkpt>
      <trkpt lat="42.9652809999998" lon="-1.4312349999999971">
        <ele>745.896</ele>
        <time>2022-08-24T13:52:24Z</time>
      </trkpt>
      <trkpt lat="42.9652589999998" lon="-1.431300999999997">
        <ele>745.666</ele>
        <time>2022-08-24T13:52:25Z</time>
      </trkpt>
      <trkpt lat="42.965234999999794" lon="-1.431363999999997">
        <ele>745.646</ele>
        <time>2022-08-24T13:52:26Z</time>
      </trkpt>
      <trkpt lat="42.9651859999998" lon="-1.431490999999997">
        <ele>745.022</ele>
        <time>2022-08-24T13:52:28Z</time>
      </trkpt>
      <trkpt lat="42.9650749999998" lon="-1.431747999999997">
        <ele>744.684</ele>
        <time>2022-08-24T13:52:32Z</time>
      </trkpt>
      <trkpt lat="42.9649679999998" lon="-1.432003999999997">
        <ele>744.261</ele>
        <time>2022-08-24T13:52:36Z</time>
      </trkpt>
      <trkpt lat="42.9649409999998" lon="-1.432065999999997">
        <ele>744.244</ele>
        <time>2022-08-24T13:52:37Z</time>
      </trkpt>
      <trkpt lat="42.9649119999998" lon="-1.4321239999999968">
        <ele>744.258</ele>
        <time>2022-08-24T13:52:38Z</time>
      </trkpt>
      <trkpt lat="42.9648799999998" lon="-1.4321759999999968">
        <ele>744.027</ele>
        <time>2022-08-24T13:52:39Z</time>
      </trkpt>
      <trkpt lat="42.9648439999998" lon="-1.4322229999999967">
        <ele>743.825</ele>
        <time>2022-08-24T13:52:40Z</time>
      </trkpt>
      <trkpt lat="42.9648069999998" lon="-1.4322709999999967">
        <ele>743.426</ele>
        <time>2022-08-24T13:52:41Z</time>
      </trkpt>
      <trkpt lat="42.9647649999998" lon="-1.4323169999999967">
        <ele>743.208</ele>
        <time>2022-08-24T13:52:42Z</time>
      </trkpt>
      <trkpt lat="42.9647259999998" lon="-1.4323639999999966">
        <ele>743.009</ele>
        <time>2022-08-24T13:52:43Z</time>
      </trkpt>
      <trkpt lat="42.9646899999998" lon="-1.4324079999999966">
        <ele>742.433</ele>
        <time>2022-08-24T13:52:44Z</time>
      </trkpt>
      <trkpt lat="42.9646559999998" lon="-1.4324519999999965">
        <ele>742.453</ele>
        <time>2022-08-24T13:52:45Z</time>
      </trkpt>
      <trkpt lat="42.9646239999998" lon="-1.4324999999999966">
        <ele>742.093</ele>
        <time>2022-08-24T13:52:46Z</time>
      </trkpt>
      <trkpt lat="42.964594999999804" lon="-1.4325459999999965">
        <ele>742.059</ele>
        <time>2022-08-24T13:52:47Z</time>
      </trkpt>
      <trkpt lat="42.9645419999998" lon="-1.4326439999999965">
        <ele>742.081</ele>
        <time>2022-08-24T13:52:49Z</time>
      </trkpt>
      <trkpt lat="42.9645219999998" lon="-1.4326929999999964">
        <ele>742.288</ele>
        <time>2022-08-24T13:52:50Z</time>
      </trkpt>
      <trkpt lat="42.9644999999998" lon="-1.4327349999999965">
        <ele>742.451</ele>
        <time>2022-08-24T13:52:51Z</time>
      </trkpt>
      <trkpt lat="42.9644779999998" lon="-1.4327779999999966">
        <ele>742.475</ele>
        <time>2022-08-24T13:52:52Z</time>
      </trkpt>
      <trkpt lat="42.964456999999804" lon="-1.4328209999999966">
        <ele>742.624</ele>
        <time>2022-08-24T13:52:53Z</time>
      </trkpt>
      <trkpt lat="42.9644379999998" lon="-1.4328629999999967">
        <ele>742.623</ele>
        <time>2022-08-24T13:52:54Z</time>
      </trkpt>
      <trkpt lat="42.9644189999998" lon="-1.4329059999999967">
        <ele>742.683</ele>
        <time>2022-08-24T13:52:55Z</time>
      </trkpt>
      <trkpt lat="42.9643989999998" lon="-1.4329469999999966">
        <ele>743.011</ele>
        <time>2022-08-24T13:52:56Z</time>
      </trkpt>
      <trkpt lat="42.9642419999998" lon="-1.4332419999999966">
        <ele>743.809</ele>
        <time>2022-08-24T13:53:03Z</time>
      </trkpt>
      <trkpt lat="42.9642189999998" lon="-1.4332749999999965">
        <ele>743.883</ele>
        <time>2022-08-24T13:53:04Z</time>
      </trkpt>
      <trkpt lat="42.9641959999998" lon="-1.4333059999999964">
        <ele>743.823</ele>
        <time>2022-08-24T13:53:05Z</time>
      </trkpt>
      <trkpt lat="42.9641769999998" lon="-1.4333379999999964">
        <ele>744.043</ele>
        <time>2022-08-24T13:53:06Z</time>
      </trkpt>
      <trkpt lat="42.9641629999998" lon="-1.4333719999999965">
        <ele>744.259</ele>
        <time>2022-08-24T13:53:07Z</time>
      </trkpt>
      <trkpt lat="42.9641499999998" lon="-1.4334049999999965">
        <ele>744.211</ele>
        <time>2022-08-24T13:53:08Z</time>
      </trkpt>
      <trkpt lat="42.9641349999998" lon="-1.4334349999999965">
        <ele>744.488</ele>
        <time>2022-08-24T13:53:09Z</time>
      </trkpt>
      <trkpt lat="42.9641179999998" lon="-1.4334629999999964">
        <ele>744.671</ele>
        <time>2022-08-24T13:53:10Z</time>
      </trkpt>
      <trkpt lat="42.9641019999998" lon="-1.4334939999999963">
        <ele>744.885</ele>
        <time>2022-08-24T13:53:11Z</time>
      </trkpt>
      <trkpt lat="42.9640869999998" lon="-1.4335269999999962">
        <ele>745.034</ele>
        <time>2022-08-24T13:53:12Z</time>
      </trkpt>
      <trkpt lat="42.9640619999998" lon="-1.4335899999999961">
        <ele>745.475</ele>
        <time>2022-08-24T13:53:14Z</time>
      </trkpt>
      <trkpt lat="42.9640529999998" lon="-1.4336219999999962">
        <ele>745.628</ele>
        <time>2022-08-24T13:53:15Z</time>
      </trkpt>
      <trkpt lat="42.9640449999998" lon="-1.4336509999999962">
        <ele>746.020</ele>
        <time>2022-08-24T13:53:16Z</time>
      </trkpt>
      <trkpt lat="42.9640359999998" lon="-1.4336809999999962">
        <ele>746.409</ele>
        <time>2022-08-24T13:53:17Z</time>
      </trkpt>
      <trkpt lat="42.9640259999998" lon="-1.4337099999999963">
        <ele>746.698</ele>
        <time>2022-08-24T13:53:18Z</time>
      </trkpt>
      <trkpt lat="42.9640149999998" lon="-1.4337379999999962">
        <ele>747.028</ele>
        <time>2022-08-24T13:53:19Z</time>
      </trkpt>
      <trkpt lat="42.9640039999998" lon="-1.4337669999999962">
        <ele>747.258</ele>
        <time>2022-08-24T13:53:20Z</time>
      </trkpt>
      <trkpt lat="42.96399399999979" lon="-1.4337999999999962">
        <ele>747.474</ele>
        <time>2022-08-24T13:53:21Z</time>
      </trkpt>
      <trkpt lat="42.963984999999795" lon="-1.4338339999999963">
        <ele>747.646</ele>
        <time>2022-08-24T13:53:22Z</time>
      </trkpt>
      <trkpt lat="42.9639729999998" lon="-1.4338679999999964">
        <ele>747.683</ele>
        <time>2022-08-24T13:53:23Z</time>
      </trkpt>
      <trkpt lat="42.9639589999998" lon="-1.4339059999999964">
        <ele>747.876</ele>
        <time>2022-08-24T13:53:24Z</time>
      </trkpt>
      <trkpt lat="42.963942999999794" lon="-1.4339469999999963">
        <ele>748.020</ele>
        <time>2022-08-24T13:53:25Z</time>
      </trkpt>
      <trkpt lat="42.9639249999998" lon="-1.4339869999999963">
        <ele>748.029</ele>
        <time>2022-08-24T13:53:26Z</time>
      </trkpt>
      <trkpt lat="42.9639099999998" lon="-1.4340269999999964">
        <ele>748.057</ele>
        <time>2022-08-24T13:53:27Z</time>
      </trkpt>
      <trkpt lat="42.9638889999998" lon="-1.4340649999999964">
        <ele>748.000</ele>
        <time>2022-08-24T13:53:28Z</time>
      </trkpt>
      <trkpt lat="42.963867999999806" lon="-1.4341019999999964">
        <ele>748.020</ele>
        <time>2022-08-24T13:53:29Z</time>
      </trkpt>
      <trkpt lat="42.963845999999805" lon="-1.4341389999999965">
        <ele>748.009</ele>
        <time>2022-08-24T13:53:30Z</time>
      </trkpt>
      <trkpt lat="42.9638219999998" lon="-1.4341769999999965">
        <ele>747.886</ele>
        <time>2022-08-24T13:53:31Z</time>
      </trkpt>
      <trkpt lat="42.9637949999998" lon="-1.4342159999999964">
        <ele>747.466</ele>
        <time>2022-08-24T13:53:32Z</time>
      </trkpt>
      <trkpt lat="42.9637699999998" lon="-1.4342569999999963">
        <ele>747.416</ele>
        <time>2022-08-24T13:53:33Z</time>
      </trkpt>
      <trkpt lat="42.9637449999998" lon="-1.4342999999999964">
        <ele>746.822</ele>
        <time>2022-08-24T13:53:34Z</time>
      </trkpt>
      <trkpt lat="42.963722999999796" lon="-1.4343449999999964">
        <ele>746.654</ele>
        <time>2022-08-24T13:53:35Z</time>
      </trkpt>
      <trkpt lat="42.963705999999796" lon="-1.4343909999999964">
        <ele>746.071</ele>
        <time>2022-08-24T13:53:36Z</time>
      </trkpt>
      <trkpt lat="42.963688999999796" lon="-1.4344379999999963">
        <ele>745.264</ele>
        <time>2022-08-24T13:53:37Z</time>
      </trkpt>
      <trkpt lat="42.963672999999794" lon="-1.4344919999999963">
        <ele>744.648</ele>
        <time>2022-08-24T13:53:38Z</time>
      </trkpt>
      <trkpt lat="42.963635999999795" lon="-1.4346499999999964">
        <ele>743.057</ele>
        <time>2022-08-24T13:53:41Z</time>
      </trkpt>
      <trkpt lat="42.963624999999794" lon="-1.4346939999999964">
        <ele>742.839</ele>
        <time>2022-08-24T13:53:42Z</time>
      </trkpt>
      <trkpt lat="42.96361699999979" lon="-1.4347399999999964">
        <ele>742.201</ele>
        <time>2022-08-24T13:53:43Z</time>
      </trkpt>
      <trkpt lat="42.96361199999979" lon="-1.4347839999999963">
        <ele>741.821</ele>
        <time>2022-08-24T13:53:44Z</time>
      </trkpt>
      <trkpt lat="42.96359899999979" lon="-1.4350199999999962">
        <ele>740.609</ele>
        <time>2022-08-24T13:53:48Z</time>
      </trkpt>
      <trkpt lat="42.96360399999979" lon="-1.4350949999999962">
        <ele>740.034</ele>
        <time>2022-08-24T13:53:49Z</time>
      </trkpt>
      <trkpt lat="42.96361199999979" lon="-1.4351799999999961">
        <ele>739.624</ele>
        <time>2022-08-24T13:53:50Z</time>
      </trkpt>
      <trkpt lat="42.96362299999979" lon="-1.4354299999999962">
        <ele>738.044</ele>
        <time>2022-08-24T13:53:53Z</time>
      </trkpt>
      <trkpt lat="42.96361699999979" lon="-1.4355129999999963">
        <ele>737.880</ele>
        <time>2022-08-24T13:53:54Z</time>
      </trkpt>
      <trkpt lat="42.96360399999979" lon="-1.4355939999999963">
        <ele>737.452</ele>
        <time>2022-08-24T13:53:55Z</time>
      </trkpt>
      <trkpt lat="42.96357799999979" lon="-1.4356679999999962">
        <ele>737.049</ele>
        <time>2022-08-24T13:53:56Z</time>
      </trkpt>
      <trkpt lat="42.96354399999979" lon="-1.4357349999999962">
        <ele>737.072</ele>
        <time>2022-08-24T13:53:57Z</time>
      </trkpt>
      <trkpt lat="42.96350599999979" lon="-1.4357969999999962">
        <ele>736.446</ele>
        <time>2022-08-24T13:53:58Z</time>
      </trkpt>
      <trkpt lat="42.96346999999979" lon="-1.4358589999999962">
        <ele>736.245</ele>
        <time>2022-08-24T13:53:59Z</time>
      </trkpt>
      <trkpt lat="42.963428999999785" lon="-1.4359199999999963">
        <ele>735.845</ele>
        <time>2022-08-24T13:54:00Z</time>
      </trkpt>
      <trkpt lat="42.963388999999786" lon="-1.4359799999999963">
        <ele>735.447</ele>
        <time>2022-08-24T13:54:01Z</time>
      </trkpt>
      <trkpt lat="42.963349999999785" lon="-1.4360389999999963">
        <ele>735.211</ele>
        <time>2022-08-24T13:54:02Z</time>
      </trkpt>
      <trkpt lat="42.96330999999979" lon="-1.4360979999999963">
        <ele>735.009</ele>
        <time>2022-08-24T13:54:03Z</time>
      </trkpt>
      <trkpt lat="42.96327199999978" lon="-1.4361569999999964">
        <ele>734.855</ele>
        <time>2022-08-24T13:54:04Z</time>
      </trkpt>
      <trkpt lat="42.963236999999786" lon="-1.4362189999999964">
        <ele>734.875</ele>
        <time>2022-08-24T13:54:05Z</time>
      </trkpt>
      <trkpt lat="42.96317199999979" lon="-1.4363499999999965">
        <ele>734.435</ele>
        <time>2022-08-24T13:54:07Z</time>
      </trkpt>
      <trkpt lat="42.963141999999785" lon="-1.4364169999999965">
        <ele>734.411</ele>
        <time>2022-08-24T13:54:08Z</time>
      </trkpt>
      <trkpt lat="42.963025999999786" lon="-1.4366829999999966">
        <ele>734.483</ele>
        <time>2022-08-24T13:54:12Z</time>
      </trkpt>
      <trkpt lat="42.96296299999979" lon="-1.4367989999999966">
        <ele>734.280</ele>
        <time>2022-08-24T13:54:14Z</time>
      </trkpt>
      <trkpt lat="42.96292399999979" lon="-1.4369379999999965">
        <ele>734.493</ele>
        <time>2022-08-24T13:54:16Z</time>
      </trkpt>
      <trkpt lat="42.962893999999785" lon="-1.4371059999999964">
        <ele>734.287</ele>
        <time>2022-08-24T13:54:18Z</time>
      </trkpt>
      <trkpt lat="42.962874999999784" lon="-1.4371829999999965">
        <ele>734.276</ele>
        <time>2022-08-24T13:54:19Z</time>
      </trkpt>
      <trkpt lat="42.962854999999784" lon="-1.4372549999999966">
        <ele>734.045</ele>
        <time>2022-08-24T13:54:20Z</time>
      </trkpt>
      <trkpt lat="42.96283899999978" lon="-1.4373229999999966">
        <ele>734.047</ele>
        <time>2022-08-24T13:54:21Z</time>
      </trkpt>
      <trkpt lat="42.962823999999785" lon="-1.4373889999999965">
        <ele>734.011</ele>
        <time>2022-08-24T13:54:22Z</time>
      </trkpt>
      <trkpt lat="42.96280899999979" lon="-1.4374519999999964">
        <ele>734.009</ele>
        <time>2022-08-24T13:54:23Z</time>
      </trkpt>
      <trkpt lat="42.96279499999979" lon="-1.4375089999999964">
        <ele>733.885</ele>
        <time>2022-08-24T13:54:24Z</time>
      </trkpt>
      <trkpt lat="42.96278099999979" lon="-1.4375619999999965">
        <ele>733.855</ele>
        <time>2022-08-24T13:54:25Z</time>
      </trkpt>
      <trkpt lat="42.96277099999978" lon="-1.4376119999999966">
        <ele>733.685</ele>
        <time>2022-08-24T13:54:26Z</time>
      </trkpt>
      <trkpt lat="42.96276299999978" lon="-1.4376539999999967">
        <ele>733.661</ele>
        <time>2022-08-24T13:54:27Z</time>
      </trkpt>
      <trkpt lat="42.96275699999978" lon="-1.4376869999999966">
        <ele>733.673</ele>
        <time>2022-08-24T13:54:28Z</time>
      </trkpt>
      <trkpt lat="42.96275199999978" lon="-1.4377109999999966">
        <ele>733.680</ele>
        <time>2022-08-24T13:54:29Z</time>
      </trkpt>
      <trkpt lat="42.962747999999785" lon="-1.4377269999999966">
        <ele>733.623</ele>
        <time>2022-08-24T13:54:30Z</time>
      </trkpt>
      <trkpt lat="42.962741999999785" lon="-1.4377389999999965">
        <ele>733.627</ele>
        <time>2022-08-24T13:54:31Z</time>
      </trkpt>
      <trkpt lat="42.962741999999785" lon="-1.4377519999999966">
        <ele>733.696</ele>
        <time>2022-08-24T13:54:32Z</time>
      </trkpt>
      <trkpt lat="42.96273999999978" lon="-1.4377619999999967">
        <ele>733.848</ele>
        <time>2022-08-24T13:54:33Z</time>
      </trkpt>
      <trkpt lat="42.96273799999978" lon="-1.4377689999999967">
        <ele>733.861</ele>
        <time>2022-08-24T13:54:34Z</time>
      </trkpt>
      <trkpt lat="42.96273599999978" lon="-1.4377719999999967">
        <ele>734.017</ele>
        <time>2022-08-24T13:54:35Z</time>
      </trkpt>
      <trkpt lat="42.96273599999978" lon="-1.4377719999999967">
        <ele>734.009</ele>
        <time>2022-08-24T13:56:01Z</time>
      </trkpt>
      <trkpt lat="42.96273699999978" lon="-1.4377589999999967">
        <ele>734.025</ele>
        <time>2022-08-24T13:56:03Z</time>
      </trkpt>
      <trkpt lat="42.96273699999978" lon="-1.4377589999999967">
        <ele>734.065</ele>
        <time>2022-08-24T13:56:04Z</time>
      </trkpt>
      <trkpt lat="42.962737999999774" lon="-1.4377559999999967">
        <ele>734.065</ele>
        <time>2022-08-24T13:56:05Z</time>
      </trkpt>
      <trkpt lat="42.96275599999977" lon="-1.4377149999999967">
        <ele>733.871</ele>
        <time>2022-08-24T13:56:07Z</time>
      </trkpt>
      <trkpt lat="42.96275599999977" lon="-1.4377149999999967">
        <ele>734.013</ele>
        <time>2022-08-24T13:56:08Z</time>
      </trkpt>
      <trkpt lat="42.96275599999977" lon="-1.4377149999999967">
        <ele>734.070</ele>
        <time>2022-08-24T13:56:09Z</time>
      </trkpt>
      <trkpt lat="42.96275599999977" lon="-1.4377089999999968">
        <ele>733.843</ele>
        <time>2022-08-24T13:56:10Z</time>
      </trkpt>
      <trkpt lat="42.962751999999774" lon="-1.4376859999999967">
        <ele>733.877</ele>
        <time>2022-08-24T13:56:11Z</time>
      </trkpt>
      <trkpt lat="42.962745999999775" lon="-1.4376719999999967">
        <ele>733.886</ele>
        <time>2022-08-24T13:56:12Z</time>
      </trkpt>
      <trkpt lat="42.962739999999776" lon="-1.4376709999999968">
        <ele>733.816</ele>
        <time>2022-08-24T13:56:14Z</time>
      </trkpt>
      <trkpt lat="42.96273899999978" lon="-1.4376789999999968">
        <ele>733.876</ele>
        <time>2022-08-24T13:56:15Z</time>
      </trkpt>
      <trkpt lat="42.96273699999978" lon="-1.4376849999999968">
        <ele>733.813</ele>
        <time>2022-08-24T13:56:16Z</time>
      </trkpt>
      <trkpt lat="42.962737999999774" lon="-1.4376879999999967">
        <ele>733.809</ele>
        <time>2022-08-24T13:56:17Z</time>
      </trkpt>
      <trkpt lat="42.96274199999977" lon="-1.4376939999999967">
        <ele>733.882</ele>
        <time>2022-08-24T13:56:18Z</time>
      </trkpt>
      <trkpt lat="42.96273899999977" lon="-1.4376959999999968">
        <ele>733.652</ele>
        <time>2022-08-24T13:56:19Z</time>
      </trkpt>
      <trkpt lat="42.962737999999774" lon="-1.4377069999999967">
        <ele>733.692</ele>
        <time>2022-08-24T13:56:20Z</time>
      </trkpt>
      <trkpt lat="42.96273899999977" lon="-1.4377189999999966">
        <ele>733.668</ele>
        <time>2022-08-24T13:56:21Z</time>
      </trkpt>
      <trkpt lat="42.96273599999977" lon="-1.4377259999999967">
        <ele>733.690</ele>
        <time>2022-08-24T13:56:22Z</time>
      </trkpt>
      <trkpt lat="42.96273099999977" lon="-1.4377299999999966">
        <ele>733.677</ele>
        <time>2022-08-24T13:56:23Z</time>
      </trkpt>
      <trkpt lat="42.96270599999977" lon="-1.4377409999999966">
        <ele>733.670</ele>
        <time>2022-08-24T13:56:26Z</time>
      </trkpt>
      <trkpt lat="42.96270299999977" lon="-1.4377409999999966">
        <ele>733.494</ele>
        <time>2022-08-24T13:57:20Z</time>
      </trkpt>
      <trkpt lat="42.96267899999977" lon="-1.4377659999999965">
        <ele>733.483</ele>
        <time>2022-08-24T13:57:23Z</time>
      </trkpt>
      <trkpt lat="42.96263899999977" lon="-1.4377939999999965">
        <ele>733.692</ele>
        <time>2022-08-24T13:57:25Z</time>
      </trkpt>
      <trkpt lat="42.96262099999977" lon="-1.4377979999999964">
        <ele>733.673</ele>
        <time>2022-08-24T13:57:26Z</time>
      </trkpt>
      <trkpt lat="42.962599999999775" lon="-1.4378029999999964">
        <ele>733.620</ele>
        <time>2022-08-24T13:57:27Z</time>
      </trkpt>
      <trkpt lat="42.962579999999775" lon="-1.4378049999999964">
        <ele>733.609</ele>
        <time>2022-08-24T13:57:28Z</time>
      </trkpt>
      <trkpt lat="42.962551999999775" lon="-1.4377999999999964">
        <ele>733.890</ele>
        <time>2022-08-24T13:57:29Z</time>
      </trkpt>
      <trkpt lat="42.962526999999774" lon="-1.4377949999999964">
        <ele>733.870</ele>
        <time>2022-08-24T13:57:30Z</time>
      </trkpt>
      <trkpt lat="42.962497999999776" lon="-1.4377909999999965">
        <ele>734.050</ele>
        <time>2022-08-24T13:57:31Z</time>
      </trkpt>
      <trkpt lat="42.96245999999977" lon="-1.4377809999999964">
        <ele>734.056</ele>
        <time>2022-08-24T13:57:32Z</time>
      </trkpt>
      <trkpt lat="42.962436999999774" lon="-1.4377789999999964">
        <ele>734.258</ele>
        <time>2022-08-24T13:57:33Z</time>
      </trkpt>
      <trkpt lat="42.962419999999774" lon="-1.4377749999999965">
        <ele>734.245</ele>
        <time>2022-08-24T13:57:34Z</time>
      </trkpt>
      <trkpt lat="42.962408999999774" lon="-1.4377839999999964">
        <ele>734.428</ele>
        <time>2022-08-24T13:57:35Z</time>
      </trkpt>
      <trkpt lat="42.96240099999977" lon="-1.4377979999999964">
        <ele>734.452</ele>
        <time>2022-08-24T13:57:36Z</time>
      </trkpt>
      <trkpt lat="42.962391999999774" lon="-1.4378139999999964">
        <ele>734.471</ele>
        <time>2022-08-24T13:57:37Z</time>
      </trkpt>
      <trkpt lat="42.962376999999776" lon="-1.4378299999999964">
        <ele>734.881</ele>
        <time>2022-08-24T13:57:38Z</time>
      </trkpt>
      <trkpt lat="42.96236499999978" lon="-1.4378379999999964">
        <ele>734.861</ele>
        <time>2022-08-24T13:57:39Z</time>
      </trkpt>
      <trkpt lat="42.96236199999978" lon="-1.4378479999999965">
        <ele>735.017</ele>
        <time>2022-08-24T13:57:40Z</time>
      </trkpt>
      <trkpt lat="42.96236499999978" lon="-1.4378479999999965">
        <ele>735.009</ele>
        <time>2022-08-24T13:57:41Z</time>
      </trkpt>
      <trkpt lat="42.96235999999978" lon="-1.4378539999999964">
        <ele>735.049</ele>
        <time>2022-08-24T13:57:42Z</time>
      </trkpt>
      <trkpt lat="42.96235399999978" lon="-1.4378639999999965">
        <ele>735.219</ele>
        <time>2022-08-24T13:57:43Z</time>
      </trkpt>
      <trkpt lat="42.96234999999978" lon="-1.4378769999999965">
        <ele>735.289</ele>
        <time>2022-08-24T13:57:44Z</time>
      </trkpt>
      <trkpt lat="42.962342999999784" lon="-1.4378929999999965">
        <ele>735.225</ele>
        <time>2022-08-24T13:57:45Z</time>
      </trkpt>
      <trkpt lat="42.962341999999786" lon="-1.4379069999999965">
        <ele>735.287</ele>
        <time>2022-08-24T13:57:46Z</time>
      </trkpt>
      <trkpt lat="42.96233299999979" lon="-1.4379429999999964">
        <ele>735.414</ele>
        <time>2022-08-24T13:57:48Z</time>
      </trkpt>
      <trkpt lat="42.96232699999979" lon="-1.4379559999999965">
        <ele>735.467</ele>
        <time>2022-08-24T13:57:49Z</time>
      </trkpt>
      <trkpt lat="42.96232599999979" lon="-1.4379729999999964">
        <ele>735.661</ele>
        <time>2022-08-24T13:57:50Z</time>
      </trkpt>
      <trkpt lat="42.96232299999979" lon="-1.4379849999999963">
        <ele>735.640</ele>
        <time>2022-08-24T13:57:51Z</time>
      </trkpt>
      <trkpt lat="42.962318999999795" lon="-1.4379999999999964">
        <ele>735.668</ele>
        <time>2022-08-24T13:57:52Z</time>
      </trkpt>
      <trkpt lat="42.9623179999998" lon="-1.4380109999999964">
        <ele>735.642</ele>
        <time>2022-08-24T13:57:53Z</time>
      </trkpt>
      <trkpt lat="42.9623119999998" lon="-1.4380259999999965">
        <ele>735.826</ele>
        <time>2022-08-24T13:57:54Z</time>
      </trkpt>
      <trkpt lat="42.962309999999796" lon="-1.4380389999999965">
        <ele>736.009</ele>
        <time>2022-08-24T13:57:55Z</time>
      </trkpt>
      <trkpt lat="42.9623039999998" lon="-1.4380519999999966">
        <ele>736.037</ele>
        <time>2022-08-24T13:57:56Z</time>
      </trkpt>
      <trkpt lat="42.9622929999998" lon="-1.4380649999999966">
        <ele>736.267</ele>
        <time>2022-08-24T13:57:57Z</time>
      </trkpt>
      <trkpt lat="42.9622869999998" lon="-1.4380809999999966">
        <ele>736.437</ele>
        <time>2022-08-24T13:57:58Z</time>
      </trkpt>
      <trkpt lat="42.9622779999998" lon="-1.4381109999999966">
        <ele>736.673</ele>
        <time>2022-08-24T13:58:00Z</time>
      </trkpt>
      <trkpt lat="42.9622699999998" lon="-1.4381249999999965">
        <ele>736.645</ele>
        <time>2022-08-24T13:58:01Z</time>
      </trkpt>
      <trkpt lat="42.9622549999998" lon="-1.4381559999999964">
        <ele>736.862</ele>
        <time>2022-08-24T13:58:03Z</time>
      </trkpt>
      <trkpt lat="42.9622469999998" lon="-1.4381849999999965">
        <ele>737.025</ele>
        <time>2022-08-24T13:58:05Z</time>
      </trkpt>
      <trkpt lat="42.9622419999998" lon="-1.4382049999999964">
        <ele>737.069</ele>
        <time>2022-08-24T13:58:06Z</time>
      </trkpt>
      <trkpt lat="42.962233999999796" lon="-1.4382199999999965">
        <ele>737.228</ele>
        <time>2022-08-24T13:58:07Z</time>
      </trkpt>
      <trkpt lat="42.9622279999998" lon="-1.4382339999999965">
        <ele>737.243</ele>
        <time>2022-08-24T13:58:08Z</time>
      </trkpt>
      <trkpt lat="42.9622239999998" lon="-1.4382449999999964">
        <ele>737.464</ele>
        <time>2022-08-24T13:58:09Z</time>
      </trkpt>
      <trkpt lat="42.962216999999804" lon="-1.4382589999999964">
        <ele>737.410</ele>
        <time>2022-08-24T13:58:10Z</time>
      </trkpt>
      <trkpt lat="42.9622089999998" lon="-1.4382749999999964">
        <ele>737.409</ele>
        <time>2022-08-24T13:58:11Z</time>
      </trkpt>
      <trkpt lat="42.962201999999806" lon="-1.4382889999999964">
        <ele>737.615</ele>
        <time>2022-08-24T13:58:12Z</time>
      </trkpt>
      <trkpt lat="42.96219299999981" lon="-1.4383049999999964">
        <ele>737.845</ele>
        <time>2022-08-24T13:58:13Z</time>
      </trkpt>
      <trkpt lat="42.96218999999981" lon="-1.4383199999999965">
        <ele>738.095</ele>
        <time>2022-08-24T13:58:14Z</time>
      </trkpt>
      <trkpt lat="42.96218899999981" lon="-1.4383579999999965">
        <ele>738.661</ele>
        <time>2022-08-24T13:58:16Z</time>
      </trkpt>
      <trkpt lat="42.96218499999981" lon="-1.4383709999999965">
        <ele>739.053</ele>
        <time>2022-08-24T13:58:17Z</time>
      </trkpt>
      <trkpt lat="42.96217999999981" lon="-1.4383849999999965">
        <ele>739.450</ele>
        <time>2022-08-24T13:58:18Z</time>
      </trkpt>
      <trkpt lat="42.96217799999981" lon="-1.4383979999999965">
        <ele>739.643</ele>
        <time>2022-08-24T13:58:19Z</time>
      </trkpt>
      <trkpt lat="42.96217699999981" lon="-1.4384199999999965">
        <ele>739.657</ele>
        <time>2022-08-24T13:58:20Z</time>
      </trkpt>
      <trkpt lat="42.96217499999981" lon="-1.4384379999999966">
        <ele>739.686</ele>
        <time>2022-08-24T13:58:21Z</time>
      </trkpt>
      <trkpt lat="42.96216999999981" lon="-1.4384549999999965">
        <ele>739.887</ele>
        <time>2022-08-24T13:58:22Z</time>
      </trkpt>
      <trkpt lat="42.96217499999981" lon="-1.4384719999999964">
        <ele>739.842</ele>
        <time>2022-08-24T13:58:23Z</time>
      </trkpt>
      <trkpt lat="42.96217299999981" lon="-1.4384909999999964">
        <ele>739.826</ele>
        <time>2022-08-24T13:58:24Z</time>
      </trkpt>
      <trkpt lat="42.96216799999981" lon="-1.4385129999999964">
        <ele>739.809</ele>
        <time>2022-08-24T13:58:25Z</time>
      </trkpt>
      <trkpt lat="42.962162999999805" lon="-1.4385299999999963">
        <ele>739.819</ele>
        <time>2022-08-24T13:58:26Z</time>
      </trkpt>
      <trkpt lat="42.962156999999806" lon="-1.4385449999999964">
        <ele>739.839</ele>
        <time>2022-08-24T13:58:27Z</time>
      </trkpt>
      <trkpt lat="42.962148999999805" lon="-1.4385539999999963">
        <ele>739.889</ele>
        <time>2022-08-24T13:58:28Z</time>
      </trkpt>
      <trkpt lat="42.962140999999804" lon="-1.4385679999999963">
        <ele>739.875</ele>
        <time>2022-08-24T13:58:29Z</time>
      </trkpt>
      <trkpt lat="42.96213399999981" lon="-1.4385879999999962">
        <ele>740.057</ele>
        <time>2022-08-24T13:58:30Z</time>
      </trkpt>
      <trkpt lat="42.962128999999806" lon="-1.4386059999999963">
        <ele>740.014</ele>
        <time>2022-08-24T13:58:31Z</time>
      </trkpt>
      <trkpt lat="42.962125999999806" lon="-1.4386239999999964">
        <ele>740.277</ele>
        <time>2022-08-24T13:58:32Z</time>
      </trkpt>
      <trkpt lat="42.96212499999981" lon="-1.4386359999999963">
        <ele>740.241</ele>
        <time>2022-08-24T13:58:33Z</time>
      </trkpt>
      <trkpt lat="42.96211599999981" lon="-1.4386539999999963">
        <ele>740.270</ele>
        <time>2022-08-24T13:58:34Z</time>
      </trkpt>
      <trkpt lat="42.96210899999981" lon="-1.4386699999999963">
        <ele>740.423</ele>
        <time>2022-08-24T13:58:35Z</time>
      </trkpt>
      <trkpt lat="42.962105999999814" lon="-1.4386889999999963">
        <ele>740.683</ele>
        <time>2022-08-24T13:58:36Z</time>
      </trkpt>
      <trkpt lat="42.96210699999981" lon="-1.4387089999999962">
        <ele>740.611</ele>
        <time>2022-08-24T13:58:37Z</time>
      </trkpt>
      <trkpt lat="42.96210099999981" lon="-1.4387209999999961">
        <ele>740.809</ele>
        <time>2022-08-24T13:58:38Z</time>
      </trkpt>
      <trkpt lat="42.96209299999981" lon="-1.4387369999999962">
        <ele>740.853</ele>
        <time>2022-08-24T13:58:39Z</time>
      </trkpt>
      <trkpt lat="42.96208699999981" lon="-1.4387529999999962">
        <ele>741.263</ele>
        <time>2022-08-24T13:58:40Z</time>
      </trkpt>
      <trkpt lat="42.96207899999981" lon="-1.4387689999999962">
        <ele>741.473</ele>
        <time>2022-08-24T13:58:41Z</time>
      </trkpt>
      <trkpt lat="42.96207599999981" lon="-1.4387849999999962">
        <ele>741.669</ele>
        <time>2022-08-24T13:58:42Z</time>
      </trkpt>
      <trkpt lat="42.96207299999981" lon="-1.4387959999999962">
        <ele>741.661</ele>
        <time>2022-08-24T13:58:43Z</time>
      </trkpt>
      <trkpt lat="42.962065999999815" lon="-1.4388289999999961">
        <ele>742.068</ele>
        <time>2022-08-24T13:58:45Z</time>
      </trkpt>
      <trkpt lat="42.962060999999814" lon="-1.4388389999999962">
        <ele>742.061</ele>
        <time>2022-08-24T13:58:46Z</time>
      </trkpt>
      <trkpt lat="42.96205399999982" lon="-1.438850999999996">
        <ele>742.055</ele>
        <time>2022-08-24T13:58:47Z</time>
      </trkpt>
      <trkpt lat="42.96204999999982" lon="-1.4388639999999961">
        <ele>742.084</ele>
        <time>2022-08-24T13:58:48Z</time>
      </trkpt>
      <trkpt lat="42.96204599999982" lon="-1.4388789999999962">
        <ele>742.236</ele>
        <time>2022-08-24T13:58:49Z</time>
      </trkpt>
      <trkpt lat="42.962039999999824" lon="-1.4388909999999961">
        <ele>742.417</ele>
        <time>2022-08-24T13:58:50Z</time>
      </trkpt>
      <trkpt lat="42.96203199999982" lon="-1.4389059999999962">
        <ele>742.618</ele>
        <time>2022-08-24T13:58:51Z</time>
      </trkpt>
      <trkpt lat="42.962019999999825" lon="-1.4389219999999963">
        <ele>742.809</ele>
        <time>2022-08-24T13:58:52Z</time>
      </trkpt>
      <trkpt lat="42.96200999999982" lon="-1.4389379999999963">
        <ele>742.874</ele>
        <time>2022-08-24T13:58:53Z</time>
      </trkpt>
      <trkpt lat="42.96200699999982" lon="-1.4389529999999964">
        <ele>743.054</ele>
        <time>2022-08-24T13:58:54Z</time>
      </trkpt>
      <trkpt lat="42.962002999999825" lon="-1.4389669999999963">
        <ele>743.284</ele>
        <time>2022-08-24T13:58:55Z</time>
      </trkpt>
      <trkpt lat="42.961999999999826" lon="-1.4389779999999963">
        <ele>743.210</ele>
        <time>2022-08-24T13:58:56Z</time>
      </trkpt>
      <trkpt lat="42.961994999999824" lon="-1.4389939999999963">
        <ele>743.462</ele>
        <time>2022-08-24T13:58:57Z</time>
      </trkpt>
      <trkpt lat="42.96198699999982" lon="-1.4390119999999964">
        <ele>743.499</ele>
        <time>2022-08-24T13:58:58Z</time>
      </trkpt>
      <trkpt lat="42.96198499999982" lon="-1.4390299999999965">
        <ele>743.642</ele>
        <time>2022-08-24T13:58:59Z</time>
      </trkpt>
      <trkpt lat="42.96198599999982" lon="-1.4390479999999966">
        <ele>743.626</ele>
        <time>2022-08-24T13:59:00Z</time>
      </trkpt>
      <trkpt lat="42.961986999999816" lon="-1.4390629999999967">
        <ele>743.835</ele>
        <time>2022-08-24T13:59:01Z</time>
      </trkpt>
      <trkpt lat="42.96198599999982" lon="-1.4390849999999966">
        <ele>744.075</ele>
        <time>2022-08-24T13:59:02Z</time>
      </trkpt>
      <trkpt lat="42.961986999999816" lon="-1.4391039999999966">
        <ele>744.028</ele>
        <time>2022-08-24T13:59:03Z</time>
      </trkpt>
      <trkpt lat="42.96198099999982" lon="-1.4391189999999967">
        <ele>744.220</ele>
        <time>2022-08-24T13:59:04Z</time>
      </trkpt>
      <trkpt lat="42.96197499999982" lon="-1.4391299999999967">
        <ele>744.409</ele>
        <time>2022-08-24T13:59:05Z</time>
      </trkpt>
      <trkpt lat="42.96196699999982" lon="-1.4391429999999967">
        <ele>744.428</ele>
        <time>2022-08-24T13:59:06Z</time>
      </trkpt>
      <trkpt lat="42.961964999999815" lon="-1.4391589999999967">
        <ele>744.468</ele>
        <time>2022-08-24T13:59:07Z</time>
      </trkpt>
      <trkpt lat="42.961961999999815" lon="-1.4391699999999967">
        <ele>744.668</ele>
        <time>2022-08-24T13:59:08Z</time>
      </trkpt>
      <trkpt lat="42.96195999999981" lon="-1.4391789999999967">
        <ele>744.864</ele>
        <time>2022-08-24T13:59:09Z</time>
      </trkpt>
      <trkpt lat="42.96195699999981" lon="-1.4391889999999967">
        <ele>744.896</ele>
        <time>2022-08-24T13:59:10Z</time>
      </trkpt>
      <trkpt lat="42.96195499999981" lon="-1.4392019999999968">
        <ele>745.033</ele>
        <time>2022-08-24T13:59:11Z</time>
      </trkpt>
      <trkpt lat="42.96195799999981" lon="-1.4392189999999967">
        <ele>745.096</ele>
        <time>2022-08-24T13:59:12Z</time>
      </trkpt>
      <trkpt lat="42.96195799999981" lon="-1.4392339999999968">
        <ele>745.080</ele>
        <time>2022-08-24T13:59:13Z</time>
      </trkpt>
      <trkpt lat="42.96195499999981" lon="-1.4392479999999968">
        <ele>745.239</ele>
        <time>2022-08-24T13:59:14Z</time>
      </trkpt>
      <trkpt lat="42.96195199999981" lon="-1.4392589999999967">
        <ele>745.271</ele>
        <time>2022-08-24T13:59:15Z</time>
      </trkpt>
      <trkpt lat="42.96194299999981" lon="-1.4392769999999968">
        <ele>745.441</ele>
        <time>2022-08-24T13:59:16Z</time>
      </trkpt>
      <trkpt lat="42.961938999999816" lon="-1.4392929999999968">
        <ele>745.415</ele>
        <time>2022-08-24T13:59:17Z</time>
      </trkpt>
      <trkpt lat="42.96193299999982" lon="-1.4393049999999967">
        <ele>745.609</ele>
        <time>2022-08-24T13:59:18Z</time>
      </trkpt>
      <trkpt lat="42.96192899999982" lon="-1.4393149999999968">
        <ele>745.658</ele>
        <time>2022-08-24T13:59:19Z</time>
      </trkpt>
      <trkpt lat="42.96192999999982" lon="-1.4393329999999969">
        <ele>745.828</ele>
        <time>2022-08-24T13:59:20Z</time>
      </trkpt>
      <trkpt lat="42.96192899999982" lon="-1.4393529999999968">
        <ele>745.878</ele>
        <time>2022-08-24T13:59:21Z</time>
      </trkpt>
      <trkpt lat="42.961921999999824" lon="-1.4393669999999967">
        <ele>746.014</ele>
        <time>2022-08-24T13:59:22Z</time>
      </trkpt>
      <trkpt lat="42.96191799999983" lon="-1.4393829999999967">
        <ele>746.036</ele>
        <time>2022-08-24T13:59:23Z</time>
      </trkpt>
      <trkpt lat="42.961915999999825" lon="-1.4393949999999966">
        <ele>746.043</ele>
        <time>2022-08-24T13:59:24Z</time>
      </trkpt>
      <trkpt lat="42.961912999999825" lon="-1.4394119999999966">
        <ele>746.246</ele>
        <time>2022-08-24T13:59:25Z</time>
      </trkpt>
      <trkpt lat="42.961909999999826" lon="-1.4394319999999965">
        <ele>746.220</ele>
        <time>2022-08-24T13:59:26Z</time>
      </trkpt>
      <trkpt lat="42.96190899999983" lon="-1.4394489999999964">
        <ele>746.499</ele>
        <time>2022-08-24T13:59:27Z</time>
      </trkpt>
      <trkpt lat="42.961906999999826" lon="-1.4394679999999964">
        <ele>746.653</ele>
        <time>2022-08-24T13:59:28Z</time>
      </trkpt>
      <trkpt lat="42.961901999999824" lon="-1.4394789999999964">
        <ele>746.604</ele>
        <time>2022-08-24T13:59:29Z</time>
      </trkpt>
      <trkpt lat="42.961895999999825" lon="-1.4394969999999965">
        <ele>746.814</ele>
        <time>2022-08-24T13:59:30Z</time>
      </trkpt>
      <trkpt lat="42.96189199999983" lon="-1.4395119999999966">
        <ele>746.809</ele>
        <time>2022-08-24T13:59:31Z</time>
      </trkpt>
      <trkpt lat="42.961889999999826" lon="-1.4395239999999965">
        <ele>747.016</ele>
        <time>2022-08-24T13:59:32Z</time>
      </trkpt>
      <trkpt lat="42.96188599999983" lon="-1.4395399999999965">
        <ele>747.086</ele>
        <time>2022-08-24T13:59:33Z</time>
      </trkpt>
      <trkpt lat="42.96188299999983" lon="-1.4395569999999964">
        <ele>747.246</ele>
        <time>2022-08-24T13:59:34Z</time>
      </trkpt>
      <trkpt lat="42.96188199999983" lon="-1.4395779999999965">
        <ele>747.232</ele>
        <time>2022-08-24T13:59:35Z</time>
      </trkpt>
      <trkpt lat="42.96187699999983" lon="-1.4395959999999965">
        <ele>747.214</ele>
        <time>2022-08-24T13:59:36Z</time>
      </trkpt>
      <trkpt lat="42.96187399999983" lon="-1.4396189999999967">
        <ele>747.451</ele>
        <time>2022-08-24T13:59:37Z</time>
      </trkpt>
      <trkpt lat="42.961869999999834" lon="-1.4396359999999966">
        <ele>747.624</ele>
        <time>2022-08-24T13:59:38Z</time>
      </trkpt>
      <trkpt lat="42.96186499999983" lon="-1.4396579999999966">
        <ele>747.848</ele>
        <time>2022-08-24T13:59:39Z</time>
      </trkpt>
      <trkpt lat="42.96185999999983" lon="-1.4396769999999965">
        <ele>748.077</ele>
        <time>2022-08-24T13:59:40Z</time>
      </trkpt>
      <trkpt lat="42.96185199999983" lon="-1.4396899999999966">
        <ele>748.241</ele>
        <time>2022-08-24T13:59:41Z</time>
      </trkpt>
      <trkpt lat="42.96184799999983" lon="-1.4397019999999965">
        <ele>748.481</ele>
        <time>2022-08-24T13:59:42Z</time>
      </trkpt>
      <trkpt lat="42.96184499999983" lon="-1.4397169999999966">
        <ele>748.609</ele>
        <time>2022-08-24T13:59:43Z</time>
      </trkpt>
      <trkpt lat="42.961843999999836" lon="-1.4397319999999967">
        <ele>748.809</ele>
        <time>2022-08-24T13:59:44Z</time>
      </trkpt>
      <trkpt lat="42.961841999999834" lon="-1.4397459999999966">
        <ele>749.025</ele>
        <time>2022-08-24T13:59:45Z</time>
      </trkpt>
      <trkpt lat="42.961840999999836" lon="-1.4397599999999966">
        <ele>749.045</ele>
        <time>2022-08-24T13:59:46Z</time>
      </trkpt>
      <trkpt lat="42.961838999999834" lon="-1.4397719999999965">
        <ele>749.225</ele>
        <time>2022-08-24T13:59:47Z</time>
      </trkpt>
      <trkpt lat="42.961835999999835" lon="-1.4397869999999966">
        <ele>749.211</ele>
        <time>2022-08-24T13:59:48Z</time>
      </trkpt>
      <trkpt lat="42.96183399999983" lon="-1.4397999999999966">
        <ele>749.463</ele>
        <time>2022-08-24T13:59:49Z</time>
      </trkpt>
      <trkpt lat="42.96183099999983" lon="-1.4398129999999967">
        <ele>749.650</ele>
        <time>2022-08-24T13:59:50Z</time>
      </trkpt>
      <trkpt lat="42.96182599999983" lon="-1.4398289999999967">
        <ele>749.863</ele>
        <time>2022-08-24T13:59:51Z</time>
      </trkpt>
      <trkpt lat="42.96182399999983" lon="-1.4398459999999966">
        <ele>750.057</ele>
        <time>2022-08-24T13:59:52Z</time>
      </trkpt>
      <trkpt lat="42.96182399999983" lon="-1.4398619999999966">
        <ele>750.036</ele>
        <time>2022-08-24T13:59:53Z</time>
      </trkpt>
      <trkpt lat="42.96182599999983" lon="-1.4398809999999966">
        <ele>750.448</ele>
        <time>2022-08-24T13:59:54Z</time>
      </trkpt>
      <trkpt lat="42.961824999999834" lon="-1.4398959999999967">
        <ele>750.461</ele>
        <time>2022-08-24T13:59:55Z</time>
      </trkpt>
      <trkpt lat="42.961824999999834" lon="-1.4399109999999968">
        <ele>750.617</ele>
        <time>2022-08-24T13:59:56Z</time>
      </trkpt>
      <trkpt lat="42.961824999999834" lon="-1.4399219999999968">
        <ele>751.009</ele>
        <time>2022-08-24T13:59:57Z</time>
      </trkpt>
      <trkpt lat="42.96182399999984" lon="-1.4399389999999967">
        <ele>751.095</ele>
        <time>2022-08-24T13:59:58Z</time>
      </trkpt>
      <trkpt lat="42.961824999999834" lon="-1.4399539999999968">
        <ele>751.295</ele>
        <time>2022-08-24T13:59:59Z</time>
      </trkpt>
      <trkpt lat="42.96182399999984" lon="-1.4399659999999967">
        <ele>751.275</ele>
        <time>2022-08-24T14:00:00Z</time>
      </trkpt>
      <trkpt lat="42.96181999999984" lon="-1.4399749999999967">
        <ele>751.691</ele>
        <time>2022-08-24T14:00:01Z</time>
      </trkpt>
      <trkpt lat="42.96181699999984" lon="-1.4399849999999967">
        <ele>751.853</ele>
        <time>2022-08-24T14:00:02Z</time>
      </trkpt>
      <trkpt lat="42.96181399999984" lon="-1.4399989999999967">
        <ele>752.070</ele>
        <time>2022-08-24T14:00:03Z</time>
      </trkpt>
      <trkpt lat="42.96181499999984" lon="-1.4400129999999967">
        <ele>752.293</ele>
        <time>2022-08-24T14:00:04Z</time>
      </trkpt>
      <trkpt lat="42.961815999999835" lon="-1.4400269999999966">
        <ele>752.447</ele>
        <time>2022-08-24T14:00:05Z</time>
      </trkpt>
      <trkpt lat="42.96181699999983" lon="-1.4400369999999967">
        <ele>752.656</ele>
        <time>2022-08-24T14:00:06Z</time>
      </trkpt>
      <trkpt lat="42.96181399999983" lon="-1.4400479999999967">
        <ele>752.836</ele>
        <time>2022-08-24T14:00:07Z</time>
      </trkpt>
      <trkpt lat="42.96180899999983" lon="-1.4400579999999967">
        <ele>753.217</ele>
        <time>2022-08-24T14:00:08Z</time>
      </trkpt>
      <trkpt lat="42.96180299999983" lon="-1.4400689999999967">
        <ele>753.418</ele>
        <time>2022-08-24T14:00:09Z</time>
      </trkpt>
      <trkpt lat="42.96180099999983" lon="-1.4400809999999966">
        <ele>753.609</ele>
        <time>2022-08-24T14:00:10Z</time>
      </trkpt>
      <trkpt lat="42.96179899999983" lon="-1.4400899999999965">
        <ele>753.844</ele>
        <time>2022-08-24T14:00:11Z</time>
      </trkpt>
      <trkpt lat="42.96179399999983" lon="-1.4401019999999964">
        <ele>754.034</ele>
        <time>2022-08-24T14:00:12Z</time>
      </trkpt>
      <trkpt lat="42.961782999999826" lon="-1.4401129999999964">
        <ele>754.284</ele>
        <time>2022-08-24T14:00:13Z</time>
      </trkpt>
      <trkpt lat="42.961777999999825" lon="-1.4401239999999964">
        <ele>754.240</ele>
        <time>2022-08-24T14:00:14Z</time>
      </trkpt>
      <trkpt lat="42.96177699999983" lon="-1.4401329999999963">
        <ele>754.432</ele>
        <time>2022-08-24T14:00:15Z</time>
      </trkpt>
      <trkpt lat="42.96177599999983" lon="-1.4401449999999962">
        <ele>754.439</ele>
        <time>2022-08-24T14:00:16Z</time>
      </trkpt>
      <trkpt lat="42.96177199999983" lon="-1.4401619999999962">
        <ele>754.682</ele>
        <time>2022-08-24T14:00:17Z</time>
      </trkpt>
      <trkpt lat="42.961770999999835" lon="-1.4401729999999962">
        <ele>754.836</ele>
        <time>2022-08-24T14:00:18Z</time>
      </trkpt>
      <trkpt lat="42.961762999999834" lon="-1.4401829999999962">
        <ele>754.865</ele>
        <time>2022-08-24T14:00:19Z</time>
      </trkpt>
      <trkpt lat="42.96175799999983" lon="-1.4401919999999961">
        <ele>755.057</ele>
        <time>2022-08-24T14:00:20Z</time>
      </trkpt>
      <trkpt lat="42.961751999999834" lon="-1.440203999999996">
        <ele>755.200</ele>
        <time>2022-08-24T14:00:21Z</time>
      </trkpt>
      <trkpt lat="42.96174399999983" lon="-1.440215999999996">
        <ele>755.420</ele>
        <time>2022-08-24T14:00:22Z</time>
      </trkpt>
      <trkpt lat="42.96173799999983" lon="-1.440225999999996">
        <ele>755.609</ele>
        <time>2022-08-24T14:00:23Z</time>
      </trkpt>
      <trkpt lat="42.96173099999984" lon="-1.440236999999996">
        <ele>755.646</ele>
        <time>2022-08-24T14:00:24Z</time>
      </trkpt>
      <trkpt lat="42.96172799999984" lon="-1.440244999999996">
        <ele>755.876</ele>
        <time>2022-08-24T14:00:25Z</time>
      </trkpt>
      <trkpt lat="42.96172499999984" lon="-1.440259999999996">
        <ele>755.836</ele>
        <time>2022-08-24T14:00:26Z</time>
      </trkpt>
      <trkpt lat="42.96172099999984" lon="-1.440268999999996">
        <ele>756.082</ele>
        <time>2022-08-24T14:00:27Z</time>
      </trkpt>
      <trkpt lat="42.961716999999844" lon="-1.440281999999996">
        <ele>756.244</ele>
        <time>2022-08-24T14:00:28Z</time>
      </trkpt>
      <trkpt lat="42.96171299999985" lon="-1.4402889999999962">
        <ele>756.261</ele>
        <time>2022-08-24T14:00:29Z</time>
      </trkpt>
      <trkpt lat="42.961713999999844" lon="-1.4403029999999961">
        <ele>756.634</ele>
        <time>2022-08-24T14:00:30Z</time>
      </trkpt>
      <trkpt lat="42.96171499999984" lon="-1.440319999999996">
        <ele>756.888</ele>
        <time>2022-08-24T14:00:31Z</time>
      </trkpt>
      <trkpt lat="42.961713999999844" lon="-1.440335999999996">
        <ele>757.017</ele>
        <time>2022-08-24T14:00:32Z</time>
      </trkpt>
      <trkpt lat="42.961713999999844" lon="-1.440349999999996">
        <ele>757.066</ele>
        <time>2022-08-24T14:00:33Z</time>
      </trkpt>
      <trkpt lat="42.96171499999984" lon="-1.440362999999996">
        <ele>757.229</ele>
        <time>2022-08-24T14:00:34Z</time>
      </trkpt>
      <trkpt lat="42.96171499999984" lon="-1.440384999999996">
        <ele>757.421</ele>
        <time>2022-08-24T14:00:35Z</time>
      </trkpt>
      <trkpt lat="42.96171199999984" lon="-1.440403999999996">
        <ele>757.409</ele>
        <time>2022-08-24T14:00:36Z</time>
      </trkpt>
      <trkpt lat="42.96170399999984" lon="-1.4404189999999961">
        <ele>757.647</ele>
        <time>2022-08-24T14:00:37Z</time>
      </trkpt>
      <trkpt lat="42.96170099999984" lon="-1.440427999999996">
        <ele>757.817</ele>
        <time>2022-08-24T14:00:38Z</time>
      </trkpt>
      <trkpt lat="42.961696999999845" lon="-1.440437999999996">
        <ele>758.277</ele>
        <time>2022-08-24T14:00:39Z</time>
      </trkpt>
      <trkpt lat="42.96169599999985" lon="-1.440451999999996">
        <ele>758.423</ele>
        <time>2022-08-24T14:00:40Z</time>
      </trkpt>
      <trkpt lat="42.961693999999845" lon="-1.440465999999996">
        <ele>758.655</ele>
        <time>2022-08-24T14:00:41Z</time>
      </trkpt>
      <trkpt lat="42.96169299999985" lon="-1.440478999999996">
        <ele>758.852</ele>
        <time>2022-08-24T14:00:42Z</time>
      </trkpt>
      <trkpt lat="42.96169299999985" lon="-1.440484999999996">
        <ele>759.045</ele>
        <time>2022-08-24T14:00:43Z</time>
      </trkpt>
      <trkpt lat="42.961693999999845" lon="-1.440494999999996">
        <ele>759.229</ele>
        <time>2022-08-24T14:00:44Z</time>
      </trkpt>
      <trkpt lat="42.961693999999845" lon="-1.440508999999996">
        <ele>759.248</ele>
        <time>2022-08-24T14:00:45Z</time>
      </trkpt>
      <trkpt lat="42.96168899999984" lon="-1.4405239999999961">
        <ele>759.474</ele>
        <time>2022-08-24T14:00:46Z</time>
      </trkpt>
      <trkpt lat="42.96168499999985" lon="-1.440532999999996">
        <ele>759.656</ele>
        <time>2022-08-24T14:00:47Z</time>
      </trkpt>
      <trkpt lat="42.96168099999985" lon="-1.440541999999996">
        <ele>759.821</ele>
        <time>2022-08-24T14:00:48Z</time>
      </trkpt>
      <trkpt lat="42.96167699999985" lon="-1.440555999999996">
        <ele>760.009</ele>
        <time>2022-08-24T14:00:49Z</time>
      </trkpt>
      <trkpt lat="42.96167099999985" lon="-1.440569999999996">
        <ele>760.248</ele>
        <time>2022-08-24T14:00:50Z</time>
      </trkpt>
      <trkpt lat="42.961669999999856" lon="-1.440579999999996">
        <ele>760.428</ele>
        <time>2022-08-24T14:00:51Z</time>
      </trkpt>
      <trkpt lat="42.961669999999856" lon="-1.440588999999996">
        <ele>760.678</ele>
        <time>2022-08-24T14:00:52Z</time>
      </trkpt>
      <trkpt lat="42.96167099999985" lon="-1.440598999999996">
        <ele>760.674</ele>
        <time>2022-08-24T14:00:53Z</time>
      </trkpt>
      <trkpt lat="42.961672999999855" lon="-1.440608999999996">
        <ele>761.086</ele>
        <time>2022-08-24T14:00:54Z</time>
      </trkpt>
      <trkpt lat="42.96167199999986" lon="-1.440618999999996">
        <ele>761.273</ele>
        <time>2022-08-24T14:00:55Z</time>
      </trkpt>
      <trkpt lat="42.961672999999855" lon="-1.440629999999996">
        <ele>761.446</ele>
        <time>2022-08-24T14:00:56Z</time>
      </trkpt>
      <trkpt lat="42.96167099999985" lon="-1.440640999999996">
        <ele>761.610</ele>
        <time>2022-08-24T14:00:57Z</time>
      </trkpt>
      <trkpt lat="42.961667999999854" lon="-1.440652999999996">
        <ele>761.679</ele>
        <time>2022-08-24T14:00:58Z</time>
      </trkpt>
      <trkpt lat="42.96166899999985" lon="-1.440666999999996">
        <ele>761.887</ele>
        <time>2022-08-24T14:00:59Z</time>
      </trkpt>
      <trkpt lat="42.96166999999985" lon="-1.440676999999996">
        <ele>762.042</ele>
        <time>2022-08-24T14:01:00Z</time>
      </trkpt>
      <trkpt lat="42.96166999999985" lon="-1.440687999999996">
        <ele>762.226</ele>
        <time>2022-08-24T14:01:01Z</time>
      </trkpt>
      <trkpt lat="42.96166699999985" lon="-1.440695999999996">
        <ele>762.209</ele>
        <time>2022-08-24T14:01:02Z</time>
      </trkpt>
      <trkpt lat="42.96166599999985" lon="-1.440704999999996">
        <ele>762.659</ele>
        <time>2022-08-24T14:01:03Z</time>
      </trkpt>
      <trkpt lat="42.96166299999985" lon="-1.4407169999999958">
        <ele>762.659</ele>
        <time>2022-08-24T14:01:04Z</time>
      </trkpt>
      <trkpt lat="42.96165999999985" lon="-1.4407279999999958">
        <ele>762.889</ele>
        <time>2022-08-24T14:01:05Z</time>
      </trkpt>
      <trkpt lat="42.961652999999856" lon="-1.4407399999999957">
        <ele>763.055</ele>
        <time>2022-08-24T14:01:06Z</time>
      </trkpt>
      <trkpt lat="42.96164899999986" lon="-1.4407529999999957">
        <ele>763.247</ele>
        <time>2022-08-24T14:01:07Z</time>
      </trkpt>
      <trkpt lat="42.96164599999986" lon="-1.4407639999999957">
        <ele>763.494</ele>
        <time>2022-08-24T14:01:08Z</time>
      </trkpt>
      <trkpt lat="42.96164199999986" lon="-1.4407729999999956">
        <ele>763.467</ele>
        <time>2022-08-24T14:01:09Z</time>
      </trkpt>
      <trkpt lat="42.961637999999866" lon="-1.4407799999999957">
        <ele>763.871</ele>
        <time>2022-08-24T14:01:10Z</time>
      </trkpt>
      <trkpt lat="42.961632999999864" lon="-1.4407859999999957">
        <ele>764.050</ele>
        <time>2022-08-24T14:01:11Z</time>
      </trkpt>
      <trkpt lat="42.96162899999987" lon="-1.4407959999999957">
        <ele>764.236</ele>
        <time>2022-08-24T14:01:12Z</time>
      </trkpt>
      <trkpt lat="42.961623999999865" lon="-1.4408059999999958">
        <ele>764.417</ele>
        <time>2022-08-24T14:01:13Z</time>
      </trkpt>
      <trkpt lat="42.961618999999864" lon="-1.4408149999999957">
        <ele>764.418</ele>
        <time>2022-08-24T14:01:14Z</time>
      </trkpt>
      <trkpt lat="42.961612999999865" lon="-1.4408239999999957">
        <ele>764.809</ele>
        <time>2022-08-24T14:01:15Z</time>
      </trkpt>
      <trkpt lat="42.96160899999987" lon="-1.4408339999999957">
        <ele>764.854</ele>
        <time>2022-08-24T14:01:16Z</time>
      </trkpt>
      <trkpt lat="42.96160799999987" lon="-1.4408489999999958">
        <ele>765.074</ele>
        <time>2022-08-24T14:01:17Z</time>
      </trkpt>
      <trkpt lat="42.96160399999987" lon="-1.440863999999996">
        <ele>765.244</ele>
        <time>2022-08-24T14:01:18Z</time>
      </trkpt>
      <trkpt lat="42.96159899999987" lon="-1.440876999999996">
        <ele>765.270</ele>
        <time>2022-08-24T14:01:19Z</time>
      </trkpt>
      <trkpt lat="42.96159399999987" lon="-1.440889999999996">
        <ele>765.282</ele>
        <time>2022-08-24T14:01:20Z</time>
      </trkpt>
      <trkpt lat="42.96159099999987" lon="-1.440899999999996">
        <ele>765.259</ele>
        <time>2022-08-24T14:01:21Z</time>
      </trkpt>
      <trkpt lat="42.96158799999987" lon="-1.440910999999996">
        <ele>765.442</ele>
        <time>2022-08-24T14:01:22Z</time>
      </trkpt>
      <trkpt lat="42.961583999999874" lon="-1.4409209999999961">
        <ele>765.476</ele>
        <time>2022-08-24T14:01:23Z</time>
      </trkpt>
      <trkpt lat="42.96157999999988" lon="-1.4409339999999962">
        <ele>765.635</ele>
        <time>2022-08-24T14:01:24Z</time>
      </trkpt>
      <trkpt lat="42.961580999999875" lon="-1.4409469999999962">
        <ele>765.612</ele>
        <time>2022-08-24T14:01:25Z</time>
      </trkpt>
      <trkpt lat="42.961580999999875" lon="-1.4409609999999962">
        <ele>765.632</ele>
        <time>2022-08-24T14:01:26Z</time>
      </trkpt>
      <trkpt lat="42.96157699999988" lon="-1.4409749999999961">
        <ele>765.805</ele>
        <time>2022-08-24T14:01:27Z</time>
      </trkpt>
      <trkpt lat="42.96157299999988" lon="-1.4409879999999962">
        <ele>766.009</ele>
        <time>2022-08-24T14:01:28Z</time>
      </trkpt>
      <trkpt lat="42.96156699999988" lon="-1.4410009999999962">
        <ele>766.242</ele>
        <time>2022-08-24T14:01:29Z</time>
      </trkpt>
      <trkpt lat="42.96156099999988" lon="-1.4410119999999962">
        <ele>766.432</ele>
        <time>2022-08-24T14:01:30Z</time>
      </trkpt>
      <trkpt lat="42.96155799999988" lon="-1.4410249999999962">
        <ele>766.462</ele>
        <time>2022-08-24T14:01:31Z</time>
      </trkpt>
      <trkpt lat="42.96155299999988" lon="-1.4410369999999961">
        <ele>766.448</ele>
        <time>2022-08-24T14:01:32Z</time>
      </trkpt>
      <trkpt lat="42.961548999999884" lon="-1.441047999999996">
        <ele>766.470</ele>
        <time>2022-08-24T14:01:33Z</time>
      </trkpt>
      <trkpt lat="42.96154499999989" lon="-1.441056999999996">
        <ele>766.677</ele>
        <time>2022-08-24T14:01:34Z</time>
      </trkpt>
      <trkpt lat="42.961542999999885" lon="-1.441068999999996">
        <ele>766.650</ele>
        <time>2022-08-24T14:01:35Z</time>
      </trkpt>
      <trkpt lat="42.96153899999989" lon="-1.441081999999996">
        <ele>766.654</ele>
        <time>2022-08-24T14:01:36Z</time>
      </trkpt>
      <trkpt lat="42.96153499999989" lon="-1.441097999999996">
        <ele>766.823</ele>
        <time>2022-08-24T14:01:37Z</time>
      </trkpt>
      <trkpt lat="42.96153199999989" lon="-1.441112999999996">
        <ele>767.054</ele>
        <time>2022-08-24T14:01:38Z</time>
      </trkpt>
      <trkpt lat="42.96152699999989" lon="-1.4411279999999962">
        <ele>767.456</ele>
        <time>2022-08-24T14:01:39Z</time>
      </trkpt>
      <trkpt lat="42.96152199999989" lon="-1.4411439999999962">
        <ele>767.411</ele>
        <time>2022-08-24T14:01:40Z</time>
      </trkpt>
      <trkpt lat="42.96151699999989" lon="-1.4411589999999963">
        <ele>767.609</ele>
        <time>2022-08-24T14:01:41Z</time>
      </trkpt>
      <trkpt lat="42.96151399999989" lon="-1.4411739999999964">
        <ele>767.666</ele>
        <time>2022-08-24T14:01:42Z</time>
      </trkpt>
      <trkpt lat="42.961508999999886" lon="-1.4411919999999965">
        <ele>767.636</ele>
        <time>2022-08-24T14:01:43Z</time>
      </trkpt>
      <trkpt lat="42.96150499999989" lon="-1.4412079999999965">
        <ele>767.676</ele>
        <time>2022-08-24T14:01:44Z</time>
      </trkpt>
      <trkpt lat="42.96149999999989" lon="-1.4412229999999966">
        <ele>767.642</ele>
        <time>2022-08-24T14:01:45Z</time>
      </trkpt>
      <trkpt lat="42.961494999999886" lon="-1.4412369999999965">
        <ele>767.844</ele>
        <time>2022-08-24T14:01:46Z</time>
      </trkpt>
      <trkpt lat="42.96148899999989" lon="-1.4412509999999965">
        <ele>767.841</ele>
        <time>2022-08-24T14:01:47Z</time>
      </trkpt>
      <trkpt lat="42.96148299999989" lon="-1.4412629999999964">
        <ele>768.074</ele>
        <time>2022-08-24T14:01:48Z</time>
      </trkpt>
      <trkpt lat="42.96147599999989" lon="-1.4412759999999964">
        <ele>768.038</ele>
        <time>2022-08-24T14:01:49Z</time>
      </trkpt>
      <trkpt lat="42.961468999999894" lon="-1.4412889999999965">
        <ele>768.037</ele>
        <time>2022-08-24T14:01:50Z</time>
      </trkpt>
      <trkpt lat="42.96146399999989" lon="-1.4413039999999966">
        <ele>768.227</ele>
        <time>2022-08-24T14:01:51Z</time>
      </trkpt>
      <trkpt lat="42.96144799999989" lon="-1.4413629999999966">
        <ele>768.468</ele>
        <time>2022-08-24T14:01:55Z</time>
      </trkpt>
      <trkpt lat="42.96143499999989" lon="-1.4413909999999965">
        <ele>768.414</ele>
        <time>2022-08-24T14:01:57Z</time>
      </trkpt>
      <trkpt lat="42.96142299999989" lon="-1.4414179999999965">
        <ele>768.609</ele>
        <time>2022-08-24T14:01:59Z</time>
      </trkpt>
      <trkpt lat="42.96140499999989" lon="-1.4414619999999965">
        <ele>768.683</ele>
        <time>2022-08-24T14:02:02Z</time>
      </trkpt>
      <trkpt lat="42.961381999999894" lon="-1.4415249999999964">
        <ele>769.253</ele>
        <time>2022-08-24T14:02:06Z</time>
      </trkpt>
      <trkpt lat="42.96137699999989" lon="-1.4415399999999965">
        <ele>769.213</ele>
        <time>2022-08-24T14:02:07Z</time>
      </trkpt>
      <trkpt lat="42.96137399999989" lon="-1.4415529999999965">
        <ele>769.699</ele>
        <time>2022-08-24T14:02:08Z</time>
      </trkpt>
      <trkpt lat="42.96137199999989" lon="-1.4415629999999966">
        <ele>769.641</ele>
        <time>2022-08-24T14:02:09Z</time>
      </trkpt>
      <trkpt lat="42.96136699999989" lon="-1.4415759999999966">
        <ele>769.668</ele>
        <time>2022-08-24T14:02:10Z</time>
      </trkpt>
      <trkpt lat="42.96136099999989" lon="-1.4416019999999967">
        <ele>770.041</ele>
        <time>2022-08-24T14:02:12Z</time>
      </trkpt>
      <trkpt lat="42.96135599999989" lon="-1.4416149999999968">
        <ele>770.275</ele>
        <time>2022-08-24T14:02:13Z</time>
      </trkpt>
      <trkpt lat="42.96135199999989" lon="-1.4416269999999967">
        <ele>770.494</ele>
        <time>2022-08-24T14:02:14Z</time>
      </trkpt>
      <trkpt lat="42.961344999999895" lon="-1.4416409999999966">
        <ele>770.698</ele>
        <time>2022-08-24T14:02:15Z</time>
      </trkpt>
      <trkpt lat="42.961338999999896" lon="-1.4416559999999967">
        <ele>771.015</ele>
        <time>2022-08-24T14:02:16Z</time>
      </trkpt>
      <trkpt lat="42.961330999999895" lon="-1.4416979999999968">
        <ele>771.426</ele>
        <time>2022-08-24T14:02:19Z</time>
      </trkpt>
      <trkpt lat="42.96132899999989" lon="-1.441712999999997">
        <ele>771.609</ele>
        <time>2022-08-24T14:02:20Z</time>
      </trkpt>
      <trkpt lat="42.961327999999895" lon="-1.4417269999999969">
        <ele>771.620</ele>
        <time>2022-08-24T14:02:21Z</time>
      </trkpt>
      <trkpt lat="42.961322999999894" lon="-1.441741999999997">
        <ele>771.630</ele>
        <time>2022-08-24T14:02:22Z</time>
      </trkpt>
      <trkpt lat="42.9613159999999" lon="-1.441757999999997">
        <ele>771.680</ele>
        <time>2022-08-24T14:02:23Z</time>
      </trkpt>
      <trkpt lat="42.9613129999999" lon="-1.4417699999999969">
        <ele>771.816</ele>
        <time>2022-08-24T14:02:24Z</time>
      </trkpt>
      <trkpt lat="42.9613129999999" lon="-1.4417819999999968">
        <ele>771.838</ele>
        <time>2022-08-24T14:02:25Z</time>
      </trkpt>
      <trkpt lat="42.9613119999999" lon="-1.4417959999999967">
        <ele>771.845</ele>
        <time>2022-08-24T14:02:26Z</time>
      </trkpt>
      <trkpt lat="42.9613119999999" lon="-1.4418089999999968">
        <ele>771.858</ele>
        <time>2022-08-24T14:02:27Z</time>
      </trkpt>
      <trkpt lat="42.9613119999999" lon="-1.4418219999999968">
        <ele>771.872</ele>
        <time>2022-08-24T14:02:28Z</time>
      </trkpt>
      <trkpt lat="42.9613099999999" lon="-1.441836999999997">
        <ele>771.841</ele>
        <time>2022-08-24T14:02:29Z</time>
      </trkpt>
      <trkpt lat="42.961310999999895" lon="-1.441852999999997">
        <ele>772.049</ele>
        <time>2022-08-24T14:02:30Z</time>
      </trkpt>
      <trkpt lat="42.961310999999895" lon="-1.441867999999997">
        <ele>772.002</ele>
        <time>2022-08-24T14:02:31Z</time>
      </trkpt>
      <trkpt lat="42.9613099999999" lon="-1.441883999999997">
        <ele>772.022</ele>
        <time>2022-08-24T14:02:32Z</time>
      </trkpt>
      <trkpt lat="42.9613099999999" lon="-1.441899999999997">
        <ele>772.009</ele>
        <time>2022-08-24T14:02:33Z</time>
      </trkpt>
      <trkpt lat="42.961307999999896" lon="-1.441916999999997">
        <ele>772.095</ele>
        <time>2022-08-24T14:02:34Z</time>
      </trkpt>
      <trkpt lat="42.9613069999999" lon="-1.441934999999997">
        <ele>772.045</ele>
        <time>2022-08-24T14:02:35Z</time>
      </trkpt>
      <trkpt lat="42.9613069999999" lon="-1.4419529999999972">
        <ele>772.235</ele>
        <time>2022-08-24T14:02:36Z</time>
      </trkpt>
      <trkpt lat="42.961304999999896" lon="-1.4419709999999972">
        <ele>772.461</ele>
        <time>2022-08-24T14:02:37Z</time>
      </trkpt>
      <trkpt lat="42.9613009999999" lon="-1.4420459999999973">
        <ele>772.853</ele>
        <time>2022-08-24T14:02:41Z</time>
      </trkpt>
      <trkpt lat="42.9612979999999" lon="-1.4420629999999972">
        <ele>772.850</ele>
        <time>2022-08-24T14:02:42Z</time>
      </trkpt>
      <trkpt lat="42.9612919999999" lon="-1.4421169999999972">
        <ele>773.063</ele>
        <time>2022-08-24T14:02:45Z</time>
      </trkpt>
      <trkpt lat="42.9612919999999" lon="-1.4421339999999971">
        <ele>773.247</ele>
        <time>2022-08-24T14:02:46Z</time>
      </trkpt>
      <trkpt lat="42.9612919999999" lon="-1.442147999999997">
        <ele>773.256</ele>
        <time>2022-08-24T14:02:47Z</time>
      </trkpt>
      <trkpt lat="42.9612959999999" lon="-1.4421629999999972">
        <ele>773.448</ele>
        <time>2022-08-24T14:02:48Z</time>
      </trkpt>
      <trkpt lat="42.9612949999999" lon="-1.4421799999999971">
        <ele>773.661</ele>
        <time>2022-08-24T14:02:49Z</time>
      </trkpt>
      <trkpt lat="42.9612939999999" lon="-1.4422169999999972">
        <ele>773.817</ele>
        <time>2022-08-24T14:02:51Z</time>
      </trkpt>
      <trkpt lat="42.9612939999999" lon="-1.4422349999999973">
        <ele>774.009</ele>
        <time>2022-08-24T14:02:52Z</time>
      </trkpt>
      <trkpt lat="42.9612889999999" lon="-1.4422519999999972">
        <ele>774.295</ele>
        <time>2022-08-24T14:02:53Z</time>
      </trkpt>
      <trkpt lat="42.961281999999905" lon="-1.4422689999999971">
        <ele>774.235</ele>
        <time>2022-08-24T14:02:54Z</time>
      </trkpt>
      <trkpt lat="42.9612769999999" lon="-1.442285999999997">
        <ele>774.485</ele>
        <time>2022-08-24T14:02:55Z</time>
      </trkpt>
      <trkpt lat="42.9612719999999" lon="-1.442302999999997">
        <ele>774.661</ele>
        <time>2022-08-24T14:02:56Z</time>
      </trkpt>
      <trkpt lat="42.961267999999905" lon="-1.442318999999997">
        <ele>774.643</ele>
        <time>2022-08-24T14:02:57Z</time>
      </trkpt>
      <trkpt lat="42.96126399999991" lon="-1.442337999999997">
        <ele>775.060</ele>
        <time>2022-08-24T14:02:58Z</time>
      </trkpt>
      <trkpt lat="42.96125999999991" lon="-1.442354999999997">
        <ele>775.073</ele>
        <time>2022-08-24T14:02:59Z</time>
      </trkpt>
      <trkpt lat="42.96125599999991" lon="-1.442372999999997">
        <ele>775.287</ele>
        <time>2022-08-24T14:03:00Z</time>
      </trkpt>
      <trkpt lat="42.961252999999914" lon="-1.442388999999997">
        <ele>775.266</ele>
        <time>2022-08-24T14:03:01Z</time>
      </trkpt>
      <trkpt lat="42.961252999999914" lon="-1.442405999999997">
        <ele>775.263</ele>
        <time>2022-08-24T14:03:02Z</time>
      </trkpt>
      <trkpt lat="42.96125099999991" lon="-1.442419999999997">
        <ele>775.444</ele>
        <time>2022-08-24T14:03:03Z</time>
      </trkpt>
      <trkpt lat="42.961249999999914" lon="-1.4424319999999968">
        <ele>775.418</ele>
        <time>2022-08-24T14:03:04Z</time>
      </trkpt>
      <trkpt lat="42.96124899999992" lon="-1.4424459999999968">
        <ele>775.809</ele>
        <time>2022-08-24T14:03:05Z</time>
      </trkpt>
      <trkpt lat="42.96124799999992" lon="-1.4424589999999968">
        <ele>776.017</ele>
        <time>2022-08-24T14:03:06Z</time>
      </trkpt>
      <trkpt lat="42.96124799999992" lon="-1.4424719999999969">
        <ele>776.477</ele>
        <time>2022-08-24T14:03:07Z</time>
      </trkpt>
      <trkpt lat="42.96124499999992" lon="-1.4424889999999968">
        <ele>776.657</ele>
        <time>2022-08-24T14:03:08Z</time>
      </trkpt>
      <trkpt lat="42.96124199999992" lon="-1.4425009999999967">
        <ele>776.893</ele>
        <time>2022-08-24T14:03:09Z</time>
      </trkpt>
      <trkpt lat="42.96123899999992" lon="-1.4425149999999967">
        <ele>777.025</ele>
        <time>2022-08-24T14:03:10Z</time>
      </trkpt>
      <trkpt lat="42.96123699999992" lon="-1.4425279999999967">
        <ele>777.262</ele>
        <time>2022-08-24T14:03:11Z</time>
      </trkpt>
      <trkpt lat="42.96123299999992" lon="-1.4425409999999967">
        <ele>777.495</ele>
        <time>2022-08-24T14:03:12Z</time>
      </trkpt>
      <trkpt lat="42.961231999999924" lon="-1.4425519999999967">
        <ele>777.689</ele>
        <time>2022-08-24T14:03:13Z</time>
      </trkpt>
      <trkpt lat="42.96123099999993" lon="-1.4425649999999968">
        <ele>777.678</ele>
        <time>2022-08-24T14:03:14Z</time>
      </trkpt>
      <trkpt lat="42.96122699999993" lon="-1.4425829999999968">
        <ele>778.042</ele>
        <time>2022-08-24T14:03:15Z</time>
      </trkpt>
      <trkpt lat="42.96122399999993" lon="-1.442600999999997">
        <ele>778.222</ele>
        <time>2022-08-24T14:03:16Z</time>
      </trkpt>
      <trkpt lat="42.96122099999993" lon="-1.442616999999997">
        <ele>778.214</ele>
        <time>2022-08-24T14:03:17Z</time>
      </trkpt>
      <trkpt lat="42.96121899999993" lon="-1.442635999999997">
        <ele>778.409</ele>
        <time>2022-08-24T14:03:18Z</time>
      </trkpt>
      <trkpt lat="42.96121799999993" lon="-1.442650999999997">
        <ele>778.495</ele>
        <time>2022-08-24T14:03:19Z</time>
      </trkpt>
      <trkpt lat="42.961216999999934" lon="-1.442666999999997">
        <ele>778.615</ele>
        <time>2022-08-24T14:03:20Z</time>
      </trkpt>
      <trkpt lat="42.96121499999993" lon="-1.442679999999997">
        <ele>778.625</ele>
        <time>2022-08-24T14:03:21Z</time>
      </trkpt>
      <trkpt lat="42.96121299999993" lon="-1.4426929999999971">
        <ele>779.081</ele>
        <time>2022-08-24T14:03:22Z</time>
      </trkpt>
      <trkpt lat="42.96121099999993" lon="-1.4427079999999972">
        <ele>779.263</ele>
        <time>2022-08-24T14:03:23Z</time>
      </trkpt>
      <trkpt lat="42.96120699999993" lon="-1.4427199999999971">
        <ele>779.670</ele>
        <time>2022-08-24T14:03:24Z</time>
      </trkpt>
      <trkpt lat="42.961202999999934" lon="-1.4427299999999972">
        <ele>779.853</ele>
        <time>2022-08-24T14:03:25Z</time>
      </trkpt>
      <trkpt lat="42.961199999999934" lon="-1.442741999999997">
        <ele>779.867</ele>
        <time>2022-08-24T14:03:26Z</time>
      </trkpt>
      <trkpt lat="42.96119599999994" lon="-1.442757999999997">
        <ele>780.076</ele>
        <time>2022-08-24T14:03:27Z</time>
      </trkpt>
      <trkpt lat="42.96119299999994" lon="-1.442771999999997">
        <ele>780.088</ele>
        <time>2022-08-24T14:03:28Z</time>
      </trkpt>
      <trkpt lat="42.961187999999936" lon="-1.442783999999997">
        <ele>780.024</ele>
        <time>2022-08-24T14:03:29Z</time>
      </trkpt>
      <trkpt lat="42.96118399999994" lon="-1.442793999999997">
        <ele>780.226</ele>
        <time>2022-08-24T14:03:30Z</time>
      </trkpt>
      <trkpt lat="42.96117799999994" lon="-1.442799999999997">
        <ele>780.409</ele>
        <time>2022-08-24T14:03:31Z</time>
      </trkpt>
      <trkpt lat="42.96117099999994" lon="-1.442804999999997">
        <ele>780.469</ele>
        <time>2022-08-24T14:03:32Z</time>
      </trkpt>
      <trkpt lat="42.96116399999995" lon="-1.442811999999997">
        <ele>780.459</ele>
        <time>2022-08-24T14:03:33Z</time>
      </trkpt>
      <trkpt lat="42.961155999999946" lon="-1.442819999999997">
        <ele>780.639</ele>
        <time>2022-08-24T14:03:34Z</time>
      </trkpt>
      <trkpt lat="42.961147999999945" lon="-1.4428279999999971">
        <ele>780.635</ele>
        <time>2022-08-24T14:03:35Z</time>
      </trkpt>
      <trkpt lat="42.96113999999994" lon="-1.4428349999999972">
        <ele>780.897</ele>
        <time>2022-08-24T14:03:36Z</time>
      </trkpt>
      <trkpt lat="42.96113299999995" lon="-1.4428409999999972">
        <ele>780.844</ele>
        <time>2022-08-24T14:03:37Z</time>
      </trkpt>
      <trkpt lat="42.96112399999995" lon="-1.4428459999999972">
        <ele>780.857</ele>
        <time>2022-08-24T14:03:38Z</time>
      </trkpt>
      <trkpt lat="42.96111499999995" lon="-1.4428539999999972">
        <ele>780.821</ele>
        <time>2022-08-24T14:03:39Z</time>
      </trkpt>
      <trkpt lat="42.96110599999995" lon="-1.442865999999997">
        <ele>781.070</ele>
        <time>2022-08-24T14:03:40Z</time>
      </trkpt>
      <trkpt lat="42.96109999999995" lon="-1.442876999999997">
        <ele>781.027</ele>
        <time>2022-08-24T14:03:41Z</time>
      </trkpt>
      <trkpt lat="42.961095999999955" lon="-1.4428919999999972">
        <ele>781.268</ele>
        <time>2022-08-24T14:03:42Z</time>
      </trkpt>
      <trkpt lat="42.96108899999996" lon="-1.4429129999999972">
        <ele>781.214</ele>
        <time>2022-08-24T14:03:43Z</time>
      </trkpt>
      <trkpt lat="42.96108599999996" lon="-1.4429299999999972">
        <ele>781.209</ele>
        <time>2022-08-24T14:03:44Z</time>
      </trkpt>
      <trkpt lat="42.96108099999996" lon="-1.4429449999999973">
        <ele>781.283</ele>
        <time>2022-08-24T14:03:45Z</time>
      </trkpt>
      <trkpt lat="42.96107699999996" lon="-1.4429589999999972">
        <ele>781.443</ele>
        <time>2022-08-24T14:03:46Z</time>
      </trkpt>
      <trkpt lat="42.96107099999996" lon="-1.4429759999999971">
        <ele>781.493</ele>
        <time>2022-08-24T14:03:47Z</time>
      </trkpt>
      <trkpt lat="42.96106499999996" lon="-1.4429919999999972">
        <ele>781.459</ele>
        <time>2022-08-24T14:03:48Z</time>
      </trkpt>
      <trkpt lat="42.961057999999966" lon="-1.443011999999997">
        <ele>781.471</ele>
        <time>2022-08-24T14:03:49Z</time>
      </trkpt>
      <trkpt lat="42.96105099999997" lon="-1.443025999999997">
        <ele>781.448</ele>
        <time>2022-08-24T14:03:50Z</time>
      </trkpt>
      <trkpt lat="42.96104799999997" lon="-1.443041999999997">
        <ele>781.631</ele>
        <time>2022-08-24T14:03:51Z</time>
      </trkpt>
      <trkpt lat="42.96104699999997" lon="-1.443062999999997">
        <ele>781.665</ele>
        <time>2022-08-24T14:03:52Z</time>
      </trkpt>
      <trkpt lat="42.96104099999997" lon="-1.443097999999997">
        <ele>781.874</ele>
        <time>2022-08-24T14:03:54Z</time>
      </trkpt>
      <trkpt lat="42.96102499999997" lon="-1.4431459999999972">
        <ele>781.845</ele>
        <time>2022-08-24T14:03:57Z</time>
      </trkpt>
      <trkpt lat="42.96101999999997" lon="-1.4431649999999971">
        <ele>782.047</ele>
        <time>2022-08-24T14:03:58Z</time>
      </trkpt>
      <trkpt lat="42.96101399999997" lon="-1.4431999999999972">
        <ele>782.411</ele>
        <time>2022-08-24T14:04:00Z</time>
      </trkpt>
      <trkpt lat="42.96100999999997" lon="-1.4432149999999973">
        <ele>782.409</ele>
        <time>2022-08-24T14:04:01Z</time>
      </trkpt>
      <trkpt lat="42.961005999999976" lon="-1.4432299999999973">
        <ele>782.665</ele>
        <time>2022-08-24T14:04:02Z</time>
      </trkpt>
      <trkpt lat="42.961000999999975" lon="-1.4432439999999973">
        <ele>782.665</ele>
        <time>2022-08-24T14:04:03Z</time>
      </trkpt>
      <trkpt lat="42.960983999999975" lon="-1.4432879999999972">
        <ele>783.265</ele>
        <time>2022-08-24T14:04:06Z</time>
      </trkpt>
      <trkpt lat="42.960963999999976" lon="-1.4433479999999972">
        <ele>783.621</ele>
        <time>2022-08-24T14:04:10Z</time>
      </trkpt>
      <trkpt lat="42.960960999999976" lon="-1.4433629999999973">
        <ele>783.683</ele>
        <time>2022-08-24T14:04:11Z</time>
      </trkpt>
      <trkpt lat="42.96095999999998" lon="-1.4433769999999972">
        <ele>783.890</ele>
        <time>2022-08-24T14:04:12Z</time>
      </trkpt>
      <trkpt lat="42.96095799999998" lon="-1.4433949999999973">
        <ele>784.083</ele>
        <time>2022-08-24T14:04:13Z</time>
      </trkpt>
      <trkpt lat="42.96095499999998" lon="-1.4434049999999974">
        <ele>784.267</ele>
        <time>2022-08-24T14:04:14Z</time>
      </trkpt>
      <trkpt lat="42.96093799999998" lon="-1.4434489999999973">
        <ele>784.816</ele>
        <time>2022-08-24T14:04:17Z</time>
      </trkpt>
      <trkpt lat="42.960935999999975" lon="-1.4434619999999974">
        <ele>784.892</ele>
        <time>2022-08-24T14:04:18Z</time>
      </trkpt>
      <trkpt lat="42.96093499999998" lon="-1.4434729999999973">
        <ele>785.073</ele>
        <time>2022-08-24T14:04:19Z</time>
      </trkpt>
      <trkpt lat="42.96093399999998" lon="-1.4434889999999974">
        <ele>785.020</ele>
        <time>2022-08-24T14:04:20Z</time>
      </trkpt>
      <trkpt lat="42.96093599999998" lon="-1.4435109999999973">
        <ele>785.209</ele>
        <time>2022-08-24T14:04:21Z</time>
      </trkpt>
      <trkpt lat="42.96093899999998" lon="-1.4435289999999974">
        <ele>785.260</ele>
        <time>2022-08-24T14:04:22Z</time>
      </trkpt>
      <trkpt lat="42.96094199999998" lon="-1.4435459999999973">
        <ele>785.450</ele>
        <time>2022-08-24T14:04:23Z</time>
      </trkpt>
      <trkpt lat="42.96094299999998" lon="-1.4435559999999974">
        <ele>785.680</ele>
        <time>2022-08-24T14:04:24Z</time>
      </trkpt>
      <trkpt lat="42.960946999999976" lon="-1.4435729999999973">
        <ele>785.856</ele>
        <time>2022-08-24T14:04:25Z</time>
      </trkpt>
      <trkpt lat="42.96094799999997" lon="-1.4435849999999972">
        <ele>785.868</ele>
        <time>2022-08-24T14:04:26Z</time>
      </trkpt>
      <trkpt lat="42.960949999999976" lon="-1.4435989999999972">
        <ele>786.045</ele>
        <time>2022-08-24T14:04:27Z</time>
      </trkpt>
      <trkpt lat="42.96095399999997" lon="-1.4436069999999972">
        <ele>786.248</ele>
        <time>2022-08-24T14:04:28Z</time>
      </trkpt>
      <trkpt lat="42.96095799999997" lon="-1.4436219999999973">
        <ele>786.462</ele>
        <time>2022-08-24T14:04:29Z</time>
      </trkpt>
      <trkpt lat="42.96095899999997" lon="-1.4436389999999972">
        <ele>786.431</ele>
        <time>2022-08-24T14:04:30Z</time>
      </trkpt>
      <trkpt lat="42.96095599999997" lon="-1.4436529999999972">
        <ele>786.673</ele>
        <time>2022-08-24T14:04:31Z</time>
      </trkpt>
      <trkpt lat="42.96095499999997" lon="-1.4436689999999972">
        <ele>786.885</ele>
        <time>2022-08-24T14:04:32Z</time>
      </trkpt>
      <trkpt lat="42.96095499999997" lon="-1.443680999999997">
        <ele>786.813</ele>
        <time>2022-08-24T14:04:33Z</time>
      </trkpt>
      <trkpt lat="42.96095399999997" lon="-1.4436989999999972">
        <ele>787.009</ele>
        <time>2022-08-24T14:04:34Z</time>
      </trkpt>
      <trkpt lat="42.960952999999975" lon="-1.4437169999999973">
        <ele>787.048</ele>
        <time>2022-08-24T14:04:35Z</time>
      </trkpt>
      <trkpt lat="42.96095099999997" lon="-1.4437349999999973">
        <ele>787.298</ele>
        <time>2022-08-24T14:04:36Z</time>
      </trkpt>
      <trkpt lat="42.96095099999997" lon="-1.4437519999999973">
        <ele>787.658</ele>
        <time>2022-08-24T14:04:37Z</time>
      </trkpt>
      <trkpt lat="42.96095199999997" lon="-1.4437669999999974">
        <ele>787.824</ele>
        <time>2022-08-24T14:04:38Z</time>
      </trkpt>
      <trkpt lat="42.96094899999997" lon="-1.4437879999999974">
        <ele>788.046</ele>
        <time>2022-08-24T14:04:39Z</time>
      </trkpt>
      <trkpt lat="42.96094599999997" lon="-1.4438009999999974">
        <ele>788.243</ele>
        <time>2022-08-24T14:04:40Z</time>
      </trkpt>
      <trkpt lat="42.96094599999997" lon="-1.4438169999999975">
        <ele>788.676</ele>
        <time>2022-08-24T14:04:41Z</time>
      </trkpt>
      <trkpt lat="42.96094399999997" lon="-1.4438299999999975">
        <ele>788.660</ele>
        <time>2022-08-24T14:04:42Z</time>
      </trkpt>
      <trkpt lat="42.96094099999997" lon="-1.4438409999999975">
        <ele>789.019</ele>
        <time>2022-08-24T14:04:43Z</time>
      </trkpt>
      <trkpt lat="42.96093899999997" lon="-1.4438519999999975">
        <ele>789.283</ele>
        <time>2022-08-24T14:04:44Z</time>
      </trkpt>
      <trkpt lat="42.96093899999997" lon="-1.4438669999999976">
        <ele>789.425</ele>
        <time>2022-08-24T14:04:45Z</time>
      </trkpt>
      <trkpt lat="42.960939999999965" lon="-1.4438789999999975">
        <ele>789.617</ele>
        <time>2022-08-24T14:04:46Z</time>
      </trkpt>
      <trkpt lat="42.96093899999997" lon="-1.4438899999999975">
        <ele>789.809</ele>
        <time>2022-08-24T14:04:47Z</time>
      </trkpt>
      <trkpt lat="42.960939999999965" lon="-1.4439009999999974">
        <ele>790.089</ele>
        <time>2022-08-24T14:04:48Z</time>
      </trkpt>
      <trkpt lat="42.960942999999965" lon="-1.4439099999999974">
        <ele>790.489</ele>
        <time>2022-08-24T14:04:49Z</time>
      </trkpt>
      <trkpt lat="42.960945999999964" lon="-1.4439219999999973">
        <ele>790.669</ele>
        <time>2022-08-24T14:04:50Z</time>
      </trkpt>
      <trkpt lat="42.960950999999966" lon="-1.4439309999999972">
        <ele>791.075</ele>
        <time>2022-08-24T14:04:51Z</time>
      </trkpt>
      <trkpt lat="42.96095299999997" lon="-1.4439389999999972">
        <ele>791.057</ele>
        <time>2022-08-24T14:04:52Z</time>
      </trkpt>
      <trkpt lat="42.960953999999965" lon="-1.443950999999997">
        <ele>791.264</ele>
        <time>2022-08-24T14:04:53Z</time>
      </trkpt>
      <trkpt lat="42.960956999999965" lon="-1.443962999999997">
        <ele>791.257</ele>
        <time>2022-08-24T14:04:54Z</time>
      </trkpt>
      <trkpt lat="42.96095899999997" lon="-1.443972999999997">
        <ele>791.621</ele>
        <time>2022-08-24T14:04:55Z</time>
      </trkpt>
      <trkpt lat="42.96095899999997" lon="-1.443985999999997">
        <ele>791.870</ele>
        <time>2022-08-24T14:04:56Z</time>
      </trkpt>
      <trkpt lat="42.96095899999997" lon="-1.4439959999999972">
        <ele>791.855</ele>
        <time>2022-08-24T14:04:57Z</time>
      </trkpt>
      <trkpt lat="42.96095799999997" lon="-1.4440069999999972">
        <ele>792.007</ele>
        <time>2022-08-24T14:04:58Z</time>
      </trkpt>
      <trkpt lat="42.96095699999997" lon="-1.4440209999999971">
        <ele>792.217</ele>
        <time>2022-08-24T14:04:59Z</time>
      </trkpt>
      <trkpt lat="42.96095699999997" lon="-1.4440359999999972">
        <ele>792.409</ele>
        <time>2022-08-24T14:05:00Z</time>
      </trkpt>
      <trkpt lat="42.960961999999974" lon="-1.4440489999999973">
        <ele>792.426</ele>
        <time>2022-08-24T14:05:01Z</time>
      </trkpt>
      <trkpt lat="42.96096599999997" lon="-1.4440609999999972">
        <ele>792.626</ele>
        <time>2022-08-24T14:05:02Z</time>
      </trkpt>
      <trkpt lat="42.96096899999997" lon="-1.444069999999997">
        <ele>792.876</ele>
        <time>2022-08-24T14:05:03Z</time>
      </trkpt>
      <trkpt lat="42.96097099999997" lon="-1.4440799999999971">
        <ele>793.052</ele>
        <time>2022-08-24T14:05:04Z</time>
      </trkpt>
      <trkpt lat="42.96097199999997" lon="-1.444085999999997">
        <ele>793.844</ele>
        <time>2022-08-24T14:06:38Z</time>
      </trkpt>
      <trkpt lat="42.96097199999997" lon="-1.444085999999997">
        <ele>793.841</ele>
        <time>2022-08-24T14:06:39Z</time>
      </trkpt>
      <trkpt lat="42.96097199999997" lon="-1.444085999999997">
        <ele>794.074</ele>
        <time>2022-08-24T14:06:41Z</time>
      </trkpt>
      <trkpt lat="42.96098699999997" lon="-1.444170999999997">
        <ele>795.288</ele>
        <time>2022-08-24T14:07:12Z</time>
      </trkpt>
      <trkpt lat="42.96098899999997" lon="-1.444210999999997">
        <ele>795.837</ele>
        <time>2022-08-24T14:07:18Z</time>
      </trkpt>
      <trkpt lat="42.96098599999997" lon="-1.444231999999997">
        <ele>796.032</ele>
        <time>2022-08-24T14:07:20Z</time>
      </trkpt>
      <trkpt lat="42.96098599999997" lon="-1.4442469999999972">
        <ele>796.292</ele>
        <time>2022-08-24T14:07:21Z</time>
      </trkpt>
      <trkpt lat="42.96098599999997" lon="-1.4442649999999972">
        <ele>796.211</ele>
        <time>2022-08-24T14:07:22Z</time>
      </trkpt>
      <trkpt lat="42.96098999999997" lon="-1.4443069999999973">
        <ele>796.409</ele>
        <time>2022-08-24T14:07:26Z</time>
      </trkpt>
      <trkpt lat="42.96098699999997" lon="-1.4443169999999974">
        <ele>796.624</ele>
        <time>2022-08-24T14:07:28Z</time>
      </trkpt>
      <trkpt lat="42.96098599999997" lon="-1.4443209999999973">
        <ele>796.654</ele>
        <time>2022-08-24T14:07:29Z</time>
      </trkpt>
      <trkpt lat="42.96098699999997" lon="-1.4443259999999973">
        <ele>796.614</ele>
        <time>2022-08-24T14:07:30Z</time>
      </trkpt>
      <trkpt lat="42.960984999999965" lon="-1.4443819999999974">
        <ele>797.830</ele>
        <time>2022-08-24T14:07:55Z</time>
      </trkpt>
      <trkpt lat="42.960981999999966" lon="-1.4444519999999974">
        <ele>798.652</ele>
        <time>2022-08-24T14:08:01Z</time>
      </trkpt>
      <trkpt lat="42.960981999999966" lon="-1.4444609999999973">
        <ele>798.889</ele>
        <time>2022-08-24T14:08:02Z</time>
      </trkpt>
      <trkpt lat="42.96097499999997" lon="-1.4444839999999974">
        <ele>799.042</ele>
        <time>2022-08-24T14:08:05Z</time>
      </trkpt>
      <trkpt lat="42.96097299999997" lon="-1.4444879999999973">
        <ele>799.246</ele>
        <time>2022-08-24T14:08:06Z</time>
      </trkpt>
      <trkpt lat="42.96096399999997" lon="-1.4445099999999973">
        <ele>799.465</ele>
        <time>2022-08-24T14:08:10Z</time>
      </trkpt>
      <trkpt lat="42.96096099999997" lon="-1.4445149999999973">
        <ele>799.476</ele>
        <time>2022-08-24T14:08:11Z</time>
      </trkpt>
      <trkpt lat="42.96094699999997" lon="-1.4445599999999974">
        <ele>800.090</ele>
        <time>2022-08-24T14:08:17Z</time>
      </trkpt>
      <trkpt lat="42.96094399999997" lon="-1.4445709999999974">
        <ele>800.219</ele>
        <time>2022-08-24T14:08:19Z</time>
      </trkpt>
      <trkpt lat="42.96093499999997" lon="-1.4445979999999974">
        <ele>800.809</ele>
        <time>2022-08-24T14:08:22Z</time>
      </trkpt>
      <trkpt lat="42.96093499999997" lon="-1.4446089999999974">
        <ele>800.898</ele>
        <time>2022-08-24T14:08:23Z</time>
      </trkpt>
      <trkpt lat="42.96093399999997" lon="-1.4446179999999973">
        <ele>801.028</ele>
        <time>2022-08-24T14:08:24Z</time>
      </trkpt>
      <trkpt lat="42.960929999999976" lon="-1.4446239999999972">
        <ele>801.098</ele>
        <time>2022-08-24T14:08:25Z</time>
      </trkpt>
      <trkpt lat="42.96092899999998" lon="-1.4446299999999972">
        <ele>801.254</ele>
        <time>2022-08-24T14:08:26Z</time>
      </trkpt>
      <trkpt lat="42.96091999999998" lon="-1.4446439999999972">
        <ele>801.416</ele>
        <time>2022-08-24T14:08:28Z</time>
      </trkpt>
      <trkpt lat="42.96091899999998" lon="-1.444647999999997">
        <ele>801.663</ele>
        <time>2022-08-24T14:08:29Z</time>
      </trkpt>
      <trkpt lat="42.96091699999998" lon="-1.444651999999997">
        <ele>801.646</ele>
        <time>2022-08-24T14:08:30Z</time>
      </trkpt>
      <trkpt lat="42.96091499999998" lon="-1.444653999999997">
        <ele>801.810</ele>
        <time>2022-08-24T14:08:31Z</time>
      </trkpt>
      <trkpt lat="42.96090799999998" lon="-1.444674999999997">
        <ele>802.229</ele>
        <time>2022-08-24T14:08:37Z</time>
      </trkpt>
      <trkpt lat="42.96090799999998" lon="-1.444674999999997">
        <ele>802.265</ele>
        <time>2022-08-24T14:08:39Z</time>
      </trkpt>
      <trkpt lat="42.96090599999998" lon="-1.444679999999997">
        <ele>802.468</ele>
        <time>2022-08-24T14:08:40Z</time>
      </trkpt>
      <trkpt lat="42.96090199999998" lon="-1.444687999999997">
        <ele>802.414</ele>
        <time>2022-08-24T14:08:41Z</time>
      </trkpt>
      <trkpt lat="42.960895999999984" lon="-1.444696999999997">
        <ele>802.609</ele>
        <time>2022-08-24T14:08:42Z</time>
      </trkpt>
      <trkpt lat="42.96089399999998" lon="-1.444709999999997">
        <ele>802.657</ele>
        <time>2022-08-24T14:08:43Z</time>
      </trkpt>
      <trkpt lat="42.96089499999998" lon="-1.444714999999997">
        <ele>802.627</ele>
        <time>2022-08-24T14:08:44Z</time>
      </trkpt>
      <trkpt lat="42.96089499999998" lon="-1.444714999999997">
        <ele>802.827</ele>
        <time>2022-08-24T14:08:45Z</time>
      </trkpt>
      <trkpt lat="42.96089499999998" lon="-1.444714999999997">
        <ele>802.813</ele>
        <time>2022-08-24T14:08:46Z</time>
      </trkpt>
      <trkpt lat="42.96089499999998" lon="-1.444714999999997">
        <ele>803.085</ele>
        <time>2022-08-24T14:08:50Z</time>
      </trkpt>
      <trkpt lat="42.96089499999998" lon="-1.444714999999997">
        <ele>803.262</ele>
        <time>2022-08-24T14:08:51Z</time>
      </trkpt>
      <trkpt lat="42.96089499999998" lon="-1.444714999999997">
        <ele>803.285</ele>
        <time>2022-08-24T14:08:53Z</time>
      </trkpt>
      <trkpt lat="42.96088299999998" lon="-1.444730999999997">
        <ele>803.429</ele>
        <time>2022-08-24T14:08:56Z</time>
      </trkpt>
      <trkpt lat="42.96087399999998" lon="-1.444760999999997">
        <ele>803.658</ele>
        <time>2022-08-24T14:08:58Z</time>
      </trkpt>
      <trkpt lat="42.960852999999986" lon="-1.444787999999997">
        <ele>803.889</ele>
        <time>2022-08-24T14:09:01Z</time>
      </trkpt>
      <trkpt lat="42.960850999999984" lon="-1.444798999999997">
        <ele>804.006</ele>
        <time>2022-08-24T14:09:02Z</time>
      </trkpt>
      <trkpt lat="42.96083999999998" lon="-1.4448249999999971">
        <ele>804.426</ele>
        <time>2022-08-24T14:09:10Z</time>
      </trkpt>
      <trkpt lat="42.960833999999984" lon="-1.4448379999999972">
        <ele>804.609</ele>
        <time>2022-08-24T14:09:11Z</time>
      </trkpt>
      <trkpt lat="42.960827999999985" lon="-1.4448569999999972">
        <ele>804.649</ele>
        <time>2022-08-24T14:09:13Z</time>
      </trkpt>
      <trkpt lat="42.96082399999999" lon="-1.4448649999999972">
        <ele>804.649</ele>
        <time>2022-08-24T14:09:14Z</time>
      </trkpt>
      <trkpt lat="42.96082099999999" lon="-1.4448709999999971">
        <ele>804.639</ele>
        <time>2022-08-24T14:09:15Z</time>
      </trkpt>
      <trkpt lat="42.96081599999999" lon="-1.444879999999997">
        <ele>804.855</ele>
        <time>2022-08-24T14:09:16Z</time>
      </trkpt>
      <trkpt lat="42.960810999999985" lon="-1.444885999999997">
        <ele>804.857</ele>
        <time>2022-08-24T14:09:17Z</time>
      </trkpt>
      <trkpt lat="42.960805999999984" lon="-1.444897999999997">
        <ele>805.044</ele>
        <time>2022-08-24T14:09:18Z</time>
      </trkpt>
      <trkpt lat="42.96080399999998" lon="-1.444904999999997">
        <ele>805.237</ele>
        <time>2022-08-24T14:09:19Z</time>
      </trkpt>
      <trkpt lat="42.96078499999998" lon="-1.444916999999997">
        <ele>806.071</ele>
        <time>2022-08-24T14:09:31Z</time>
      </trkpt>
      <trkpt lat="42.96077399999998" lon="-1.4449259999999968">
        <ele>806.070</ele>
        <time>2022-08-24T14:09:33Z</time>
      </trkpt>
      <trkpt lat="42.96077199999998" lon="-1.4449309999999969">
        <ele>806.428</ele>
        <time>2022-08-24T14:09:38Z</time>
      </trkpt>
      <trkpt lat="42.96077199999998" lon="-1.4449309999999969">
        <ele>806.489</ele>
        <time>2022-08-24T14:09:39Z</time>
      </trkpt>
      <trkpt lat="42.960769999999975" lon="-1.444932999999997">
        <ele>806.617</ele>
        <time>2022-08-24T14:09:40Z</time>
      </trkpt>
      <trkpt lat="42.960761999999974" lon="-1.4449419999999968">
        <ele>806.609</ele>
        <time>2022-08-24T14:09:41Z</time>
      </trkpt>
      <trkpt lat="42.96075699999997" lon="-1.4449449999999968">
        <ele>806.893</ele>
        <time>2022-08-24T14:09:42Z</time>
      </trkpt>
      <trkpt lat="42.96075699999997" lon="-1.4449449999999968">
        <ele>806.873</ele>
        <time>2022-08-24T14:09:43Z</time>
      </trkpt>
      <trkpt lat="42.96075699999997" lon="-1.4449449999999968">
        <ele>807.443</ele>
        <time>2022-08-24T14:09:51Z</time>
      </trkpt>
      <trkpt lat="42.960749999999976" lon="-1.4449459999999967">
        <ele>807.639</ele>
        <time>2022-08-24T14:09:54Z</time>
      </trkpt>
      <trkpt lat="42.96069899999998" lon="-1.4450319999999968">
        <ele>808.021</ele>
        <time>2022-08-24T14:10:02Z</time>
      </trkpt>
      <trkpt lat="42.960688999999974" lon="-1.4450439999999967">
        <ele>808.278</ele>
        <time>2022-08-24T14:10:03Z</time>
      </trkpt>
      <trkpt lat="42.96064999999997" lon="-1.4450939999999968">
        <ele>808.621</ele>
        <time>2022-08-24T14:10:07Z</time>
      </trkpt>
      <trkpt lat="42.96062499999997" lon="-1.4451509999999967">
        <ele>809.075</ele>
        <time>2022-08-24T14:10:13Z</time>
      </trkpt>
      <trkpt lat="42.960620999999975" lon="-1.4451569999999967">
        <ele>809.054</ele>
        <time>2022-08-24T14:10:14Z</time>
      </trkpt>
      <trkpt lat="42.96061699999998" lon="-1.4451629999999966">
        <ele>809.214</ele>
        <time>2022-08-24T14:10:15Z</time>
      </trkpt>
      <trkpt lat="42.960614999999976" lon="-1.4451749999999965">
        <ele>809.254</ele>
        <time>2022-08-24T14:10:16Z</time>
      </trkpt>
      <trkpt lat="42.96061399999998" lon="-1.4452089999999966">
        <ele>809.409</ele>
        <time>2022-08-24T14:10:19Z</time>
      </trkpt>
      <trkpt lat="42.960611999999976" lon="-1.4452169999999966">
        <ele>809.409</ele>
        <time>2022-08-24T14:10:20Z</time>
      </trkpt>
      <trkpt lat="42.96060899999998" lon="-1.4452369999999966">
        <ele>809.682</ele>
        <time>2022-08-24T14:10:22Z</time>
      </trkpt>
      <trkpt lat="42.96060799999998" lon="-1.4452699999999965">
        <ele>810.032</ele>
        <time>2022-08-24T14:10:25Z</time>
      </trkpt>
      <trkpt lat="42.96060599999998" lon="-1.4452789999999964">
        <ele>810.252</ele>
        <time>2022-08-24T14:10:26Z</time>
      </trkpt>
      <trkpt lat="42.96060299999998" lon="-1.4452879999999964">
        <ele>810.268</ele>
        <time>2022-08-24T14:10:27Z</time>
      </trkpt>
      <trkpt lat="42.96059499999998" lon="-1.4453139999999964">
        <ele>810.660</ele>
        <time>2022-08-24T14:10:30Z</time>
      </trkpt>
      <trkpt lat="42.960592999999974" lon="-1.4453259999999963">
        <ele>810.637</ele>
        <time>2022-08-24T14:10:31Z</time>
      </trkpt>
      <trkpt lat="42.96059099999997" lon="-1.4453309999999964">
        <ele>810.880</ele>
        <time>2022-08-24T14:10:32Z</time>
      </trkpt>
      <trkpt lat="42.960589999999975" lon="-1.4453379999999965">
        <ele>810.844</ele>
        <time>2022-08-24T14:10:33Z</time>
      </trkpt>
      <trkpt lat="42.960589999999975" lon="-1.4453499999999964">
        <ele>810.863</ele>
        <time>2022-08-24T14:10:34Z</time>
      </trkpt>
      <trkpt lat="42.96058899999998" lon="-1.4453569999999965">
        <ele>811.061</ele>
        <time>2022-08-24T14:10:35Z</time>
      </trkpt>
      <trkpt lat="42.96058899999998" lon="-1.4453569999999965">
        <ele>811.021</ele>
        <time>2022-08-24T14:10:36Z</time>
      </trkpt>
      <trkpt lat="42.960589999999975" lon="-1.4453699999999965">
        <ele>811.213</ele>
        <time>2022-08-24T14:10:42Z</time>
      </trkpt>
      <trkpt lat="42.960580999999976" lon="-1.4454009999999964">
        <ele>811.209</ele>
        <time>2022-08-24T14:10:45Z</time>
      </trkpt>
      <trkpt lat="42.960578999999974" lon="-1.4454119999999964">
        <ele>811.247</ele>
        <time>2022-08-24T14:10:46Z</time>
      </trkpt>
      <trkpt lat="42.96057699999997" lon="-1.4454219999999964">
        <ele>811.257</ele>
        <time>2022-08-24T14:10:47Z</time>
      </trkpt>
      <trkpt lat="42.96056599999997" lon="-1.4454459999999965">
        <ele>811.497</ele>
        <time>2022-08-24T14:10:50Z</time>
      </trkpt>
      <trkpt lat="42.96056399999997" lon="-1.4454509999999965">
        <ele>811.643</ele>
        <time>2022-08-24T14:10:51Z</time>
      </trkpt>
      <trkpt lat="42.96056099999997" lon="-1.4454619999999965">
        <ele>811.655</ele>
        <time>2022-08-24T14:10:52Z</time>
      </trkpt>
      <trkpt lat="42.96055799999997" lon="-1.4454689999999966">
        <ele>811.832</ele>
        <time>2022-08-24T14:10:53Z</time>
      </trkpt>
      <trkpt lat="42.96055399999997" lon="-1.4454749999999965">
        <ele>811.845</ele>
        <time>2022-08-24T14:10:54Z</time>
      </trkpt>
      <trkpt lat="42.96054699999998" lon="-1.4454999999999965">
        <ele>812.079</ele>
        <time>2022-08-24T14:10:56Z</time>
      </trkpt>
      <trkpt lat="42.96054699999998" lon="-1.4455179999999965">
        <ele>812.218</ele>
        <time>2022-08-24T14:10:58Z</time>
      </trkpt>
      <trkpt lat="42.960544999999975" lon="-1.4455279999999966">
        <ele>812.226</ele>
        <time>2022-08-24T14:10:59Z</time>
      </trkpt>
      <trkpt lat="42.960547999999974" lon="-1.4455409999999966">
        <ele>812.247</ele>
        <time>2022-08-24T14:11:00Z</time>
      </trkpt>
      <trkpt lat="42.96054599999997" lon="-1.4455519999999966">
        <ele>812.411</ele>
        <time>2022-08-24T14:11:01Z</time>
      </trkpt>
      <trkpt lat="42.96054299999997" lon="-1.4455859999999967">
        <ele>812.809</ele>
        <time>2022-08-24T14:11:04Z</time>
      </trkpt>
      <trkpt lat="42.96054299999997" lon="-1.4456279999999968">
        <ele>813.443</ele>
        <time>2022-08-24T14:11:07Z</time>
      </trkpt>
      <trkpt lat="42.96054299999997" lon="-1.4456409999999968">
        <ele>813.463</ele>
        <time>2022-08-24T14:11:08Z</time>
      </trkpt>
      <trkpt lat="42.960535999999976" lon="-1.4456709999999968">
        <ele>813.613</ele>
        <time>2022-08-24T14:11:11Z</time>
      </trkpt>
      <trkpt lat="42.96053499999998" lon="-1.4456799999999967">
        <ele>813.619</ele>
        <time>2022-08-24T14:11:12Z</time>
      </trkpt>
      <trkpt lat="42.96053499999998" lon="-1.4456929999999968">
        <ele>813.841</ele>
        <time>2022-08-24T14:11:13Z</time>
      </trkpt>
      <trkpt lat="42.96053499999998" lon="-1.4457039999999968">
        <ele>813.888</ele>
        <time>2022-08-24T14:11:14Z</time>
      </trkpt>
      <trkpt lat="42.960535999999976" lon="-1.4457129999999967">
        <ele>813.811</ele>
        <time>2022-08-24T14:11:15Z</time>
      </trkpt>
      <trkpt lat="42.960535999999976" lon="-1.4457179999999967">
        <ele>814.085</ele>
        <time>2022-08-24T14:11:16Z</time>
      </trkpt>
      <trkpt lat="42.96053499999998" lon="-1.4457199999999968">
        <ele>814.064</ele>
        <time>2022-08-24T14:11:17Z</time>
      </trkpt>
      <trkpt lat="42.96053399999998" lon="-1.4457269999999969">
        <ele>814.224</ele>
        <time>2022-08-24T14:11:18Z</time>
      </trkpt>
      <trkpt lat="42.96053399999998" lon="-1.445731999999997">
        <ele>814.204</ele>
        <time>2022-08-24T14:11:19Z</time>
      </trkpt>
      <trkpt lat="42.960532999999984" lon="-1.445736999999997">
        <ele>814.214</ele>
        <time>2022-08-24T14:11:20Z</time>
      </trkpt>
      <trkpt lat="42.960531999999986" lon="-1.4457489999999968">
        <ele>814.209</ele>
        <time>2022-08-24T14:11:21Z</time>
      </trkpt>
      <trkpt lat="42.960532999999984" lon="-1.445758999999997">
        <ele>814.423</ele>
        <time>2022-08-24T14:11:22Z</time>
      </trkpt>
      <trkpt lat="42.96050099999999" lon="-1.4457949999999968">
        <ele>814.653</ele>
        <time>2022-08-24T14:11:28Z</time>
      </trkpt>
      <trkpt lat="42.960498999999984" lon="-1.445804999999997">
        <ele>814.653</ele>
        <time>2022-08-24T14:11:29Z</time>
      </trkpt>
      <trkpt lat="42.96049799999999" lon="-1.4458159999999969">
        <ele>814.889</ele>
        <time>2022-08-24T14:11:30Z</time>
      </trkpt>
      <trkpt lat="42.96049699999999" lon="-1.445831999999997">
        <ele>815.051</ele>
        <time>2022-08-24T14:11:32Z</time>
      </trkpt>
      <trkpt lat="42.96048799999999" lon="-1.4458679999999968">
        <ele>815.688</ele>
        <time>2022-08-24T14:11:36Z</time>
      </trkpt>
      <trkpt lat="42.96048899999999" lon="-1.4458709999999968">
        <ele>815.811</ele>
        <time>2022-08-24T14:11:37Z</time>
      </trkpt>
      <trkpt lat="42.96048899999999" lon="-1.4458769999999967">
        <ele>815.825</ele>
        <time>2022-08-24T14:11:38Z</time>
      </trkpt>
      <trkpt lat="42.96048899999999" lon="-1.4458809999999966">
        <ele>817.034</ele>
        <time>2022-08-24T14:11:51Z</time>
      </trkpt>
      <trkpt lat="42.96048399999999" lon="-1.4459469999999965">
        <ele>817.065</ele>
        <time>2022-08-24T14:11:55Z</time>
      </trkpt>
      <trkpt lat="42.96048399999999" lon="-1.4459789999999966">
        <ele>817.268</ele>
        <time>2022-08-24T14:11:57Z</time>
      </trkpt>
      <trkpt lat="42.96048099999999" lon="-1.4459999999999966">
        <ele>817.214</ele>
        <time>2022-08-24T14:11:58Z</time>
      </trkpt>
      <trkpt lat="42.96048099999999" lon="-1.4460099999999967">
        <ele>817.409</ele>
        <time>2022-08-24T14:11:59Z</time>
      </trkpt>
      <trkpt lat="42.96048099999999" lon="-1.4460139999999966">
        <ele>817.667</ele>
        <time>2022-08-24T14:12:00Z</time>
      </trkpt>
      <trkpt lat="42.96047799999999" lon="-1.4460209999999967">
        <ele>817.847</ele>
        <time>2022-08-24T14:12:01Z</time>
      </trkpt>
      <trkpt lat="42.960475999999986" lon="-1.4460239999999966">
        <ele>818.097</ele>
        <time>2022-08-24T14:12:02Z</time>
      </trkpt>
      <trkpt lat="42.960475999999986" lon="-1.4460309999999967">
        <ele>818.243</ele>
        <time>2022-08-24T14:12:03Z</time>
      </trkpt>
      <trkpt lat="42.96047499999999" lon="-1.4460339999999967">
        <ele>818.225</ele>
        <time>2022-08-24T14:12:04Z</time>
      </trkpt>
      <trkpt lat="42.96047499999999" lon="-1.4460339999999967">
        <ele>818.472</ele>
        <time>2022-08-24T14:12:05Z</time>
      </trkpt>
      <trkpt lat="42.96046899999999" lon="-1.4460869999999968">
        <ele>818.695</ele>
        <time>2022-08-24T14:12:09Z</time>
      </trkpt>
      <trkpt lat="42.96046899999999" lon="-1.4460889999999968">
        <ele>819.259</ele>
        <time>2022-08-24T14:12:34Z</time>
      </trkpt>
      <trkpt lat="42.96046899999999" lon="-1.4460949999999968">
        <ele>819.688</ele>
        <time>2022-08-24T14:12:38Z</time>
      </trkpt>
      <trkpt lat="42.96046899999999" lon="-1.4460949999999968">
        <ele>819.813</ele>
        <time>2022-08-24T14:12:39Z</time>
      </trkpt>
      <trkpt lat="42.96046899999999" lon="-1.4460949999999968">
        <ele>820.043</ele>
        <time>2022-08-24T14:12:40Z</time>
      </trkpt>
      <trkpt lat="42.96046699999999" lon="-1.4461209999999969">
        <ele>820.407</ele>
        <time>2022-08-24T14:12:44Z</time>
      </trkpt>
      <trkpt lat="42.960461999999985" lon="-1.4461399999999969">
        <ele>820.409</ele>
        <time>2022-08-24T14:12:45Z</time>
      </trkpt>
      <trkpt lat="42.960456999999984" lon="-1.446163999999997">
        <ele>820.692</ele>
        <time>2022-08-24T14:12:46Z</time>
      </trkpt>
      <trkpt lat="42.960447999999985" lon="-1.446187999999997">
        <ele>820.892</ele>
        <time>2022-08-24T14:12:47Z</time>
      </trkpt>
      <trkpt lat="42.96042399999998" lon="-1.446276999999997">
        <ele>821.052</ele>
        <time>2022-08-24T14:12:53Z</time>
      </trkpt>
      <trkpt lat="42.960416999999985" lon="-1.446297999999997">
        <ele>821.428</ele>
        <time>2022-08-24T14:12:55Z</time>
      </trkpt>
      <trkpt lat="42.960396999999986" lon="-1.446319999999997">
        <ele>821.890</ele>
        <time>2022-08-24T14:12:57Z</time>
      </trkpt>
      <trkpt lat="42.960388999999985" lon="-1.446330999999997">
        <ele>821.857</ele>
        <time>2022-08-24T14:12:58Z</time>
      </trkpt>
      <trkpt lat="42.960380999999984" lon="-1.4463369999999969">
        <ele>822.040</ele>
        <time>2022-08-24T14:12:59Z</time>
      </trkpt>
      <trkpt lat="42.96037699999999" lon="-1.4463399999999969">
        <ele>822.014</ele>
        <time>2022-08-24T14:13:00Z</time>
      </trkpt>
      <trkpt lat="42.960371999999985" lon="-1.446352999999997">
        <ele>822.013</ele>
        <time>2022-08-24T14:13:01Z</time>
      </trkpt>
      <trkpt lat="42.96035999999999" lon="-1.4463589999999968">
        <ele>822.229</ele>
        <time>2022-08-24T14:13:02Z</time>
      </trkpt>
      <trkpt lat="42.960354999999986" lon="-1.4463599999999968">
        <ele>822.400</ele>
        <time>2022-08-24T14:13:03Z</time>
      </trkpt>
      <trkpt lat="42.960351999999986" lon="-1.4463679999999968">
        <ele>822.620</ele>
        <time>2022-08-24T14:13:04Z</time>
      </trkpt>
      <trkpt lat="42.96035099999999" lon="-1.4463699999999968">
        <ele>822.809</ele>
        <time>2022-08-24T14:13:06Z</time>
      </trkpt>
      <trkpt lat="42.96035099999999" lon="-1.4463699999999968">
        <ele>822.823</ele>
        <time>2022-08-24T14:13:07Z</time>
      </trkpt>
      <trkpt lat="42.96034999999999" lon="-1.4463739999999967">
        <ele>823.083</ele>
        <time>2022-08-24T14:13:08Z</time>
      </trkpt>
      <trkpt lat="42.96034699999999" lon="-1.4463879999999967">
        <ele>823.033</ele>
        <time>2022-08-24T14:13:09Z</time>
      </trkpt>
      <trkpt lat="42.96034499999999" lon="-1.4464009999999967">
        <ele>823.039</ele>
        <time>2022-08-24T14:13:10Z</time>
      </trkpt>
      <trkpt lat="42.96034499999999" lon="-1.4464119999999967">
        <ele>823.271</ele>
        <time>2022-08-24T14:13:11Z</time>
      </trkpt>
      <trkpt lat="42.96034299999999" lon="-1.4464169999999967">
        <ele>823.478</ele>
        <time>2022-08-24T14:13:12Z</time>
      </trkpt>
      <trkpt lat="42.960340999999985" lon="-1.4464159999999968">
        <ele>823.671</ele>
        <time>2022-08-24T14:13:13Z</time>
      </trkpt>
      <trkpt lat="42.960340999999985" lon="-1.4464159999999968">
        <ele>823.695</ele>
        <time>2022-08-24T14:13:14Z</time>
      </trkpt>
      <trkpt lat="42.960340999999985" lon="-1.4464159999999968">
        <ele>823.884</ele>
        <time>2022-08-24T14:13:15Z</time>
      </trkpt>
      <trkpt lat="42.96033999999999" lon="-1.446422999999997">
        <ele>823.844</ele>
        <time>2022-08-24T14:13:16Z</time>
      </trkpt>
      <trkpt lat="42.96033899999999" lon="-1.446429999999997">
        <ele>823.805</ele>
        <time>2022-08-24T14:13:17Z</time>
      </trkpt>
      <trkpt lat="42.96033899999999" lon="-1.446429999999997">
        <ele>824.015</ele>
        <time>2022-08-24T14:13:18Z</time>
      </trkpt>
      <trkpt lat="42.96033899999999" lon="-1.446429999999997">
        <ele>824.009</ele>
        <time>2022-08-24T14:13:19Z</time>
      </trkpt>
      <trkpt lat="42.96033899999999" lon="-1.446429999999997">
        <ele>824.225</ele>
        <time>2022-08-24T14:13:20Z</time>
      </trkpt>
      <trkpt lat="42.96033899999999" lon="-1.446429999999997">
        <ele>824.275</ele>
        <time>2022-08-24T14:13:21Z</time>
      </trkpt>
      <trkpt lat="42.96033899999999" lon="-1.446429999999997">
        <ele>824.435</ele>
        <time>2022-08-24T14:13:22Z</time>
      </trkpt>
      <trkpt lat="42.96033899999999" lon="-1.446429999999997">
        <ele>824.411</ele>
        <time>2022-08-24T14:13:23Z</time>
      </trkpt>
      <trkpt lat="42.96033899999999" lon="-1.446429999999997">
        <ele>824.483</ele>
        <time>2022-08-24T14:13:24Z</time>
      </trkpt>
      <trkpt lat="42.96033999999999" lon="-1.446434999999997">
        <ele>824.640</ele>
        <time>2022-08-24T14:13:25Z</time>
      </trkpt>
      <trkpt lat="42.96034899999999" lon="-1.446448999999997">
        <ele>824.623</ele>
        <time>2022-08-24T14:13:26Z</time>
      </trkpt>
      <trkpt lat="42.96035999999999" lon="-1.446465999999997">
        <ele>824.887</ele>
        <time>2022-08-24T14:13:27Z</time>
      </trkpt>
      <trkpt lat="42.960363999999984" lon="-1.4464749999999968">
        <ele>824.826</ele>
        <time>2022-08-24T14:13:28Z</time>
      </trkpt>
      <trkpt lat="42.960363999999984" lon="-1.4464749999999968">
        <ele>824.898</ele>
        <time>2022-08-24T14:13:29Z</time>
      </trkpt>
      <trkpt lat="42.960363999999984" lon="-1.4464749999999968">
        <ele>825.215</ele>
        <time>2022-08-24T14:13:33Z</time>
      </trkpt>
      <trkpt lat="42.960363999999984" lon="-1.4464749999999968">
        <ele>825.426</ele>
        <time>2022-08-24T14:13:34Z</time>
      </trkpt>
      <trkpt lat="42.960363999999984" lon="-1.4464749999999968">
        <ele>825.809</ele>
        <time>2022-08-24T14:13:35Z</time>
      </trkpt>
      <trkpt lat="42.96036499999998" lon="-1.4464809999999968">
        <ele>825.880</ele>
        <time>2022-08-24T14:13:36Z</time>
      </trkpt>
      <trkpt lat="42.96036899999998" lon="-1.4465009999999967">
        <ele>826.040</ele>
        <time>2022-08-24T14:13:37Z</time>
      </trkpt>
      <trkpt lat="42.96037199999998" lon="-1.4465239999999968">
        <ele>826.280</ele>
        <time>2022-08-24T14:13:38Z</time>
      </trkpt>
      <trkpt lat="42.96037499999998" lon="-1.4465459999999968">
        <ele>826.456</ele>
        <time>2022-08-24T14:13:39Z</time>
      </trkpt>
      <trkpt lat="42.96037499999998" lon="-1.4465659999999967">
        <ele>826.478</ele>
        <time>2022-08-24T14:13:40Z</time>
      </trkpt>
      <trkpt lat="42.96038099999998" lon="-1.4465909999999966">
        <ele>826.675</ele>
        <time>2022-08-24T14:13:41Z</time>
      </trkpt>
      <trkpt lat="42.960392999999975" lon="-1.4466079999999966">
        <ele>826.848</ele>
        <time>2022-08-24T14:13:42Z</time>
      </trkpt>
      <trkpt lat="42.96039999999997" lon="-1.4466189999999965">
        <ele>826.822</ele>
        <time>2022-08-24T14:13:43Z</time>
      </trkpt>
      <trkpt lat="42.96039699999997" lon="-1.4466329999999965">
        <ele>827.031</ele>
        <time>2022-08-24T14:13:44Z</time>
      </trkpt>
      <trkpt lat="42.96039399999997" lon="-1.4466549999999965">
        <ele>827.049</ele>
        <time>2022-08-24T14:13:45Z</time>
      </trkpt>
      <trkpt lat="42.96039199999997" lon="-1.4466739999999965">
        <ele>827.002</ele>
        <time>2022-08-24T14:13:46Z</time>
      </trkpt>
      <trkpt lat="42.96038199999997" lon="-1.4466849999999964">
        <ele>827.222</ele>
        <time>2022-08-24T14:13:47Z</time>
      </trkpt>
      <trkpt lat="42.960376999999966" lon="-1.4466989999999964">
        <ele>827.209</ele>
        <time>2022-08-24T14:13:48Z</time>
      </trkpt>
      <trkpt lat="42.960374999999964" lon="-1.4467129999999964">
        <ele>827.455</ele>
        <time>2022-08-24T14:13:49Z</time>
      </trkpt>
      <trkpt lat="42.960371999999964" lon="-1.4467239999999963">
        <ele>827.435</ele>
        <time>2022-08-24T14:13:50Z</time>
      </trkpt>
      <trkpt lat="42.960368999999965" lon="-1.4467279999999962">
        <ele>827.615</ele>
        <time>2022-08-24T14:13:51Z</time>
      </trkpt>
      <trkpt lat="42.96036199999997" lon="-1.4467349999999963">
        <ele>827.661</ele>
        <time>2022-08-24T14:13:52Z</time>
      </trkpt>
      <trkpt lat="42.96036199999997" lon="-1.4467399999999964">
        <ele>827.643</ele>
        <time>2022-08-24T14:13:53Z</time>
      </trkpt>
      <trkpt lat="42.96036099999997" lon="-1.4467439999999963">
        <ele>827.840</ele>
        <time>2022-08-24T14:13:54Z</time>
      </trkpt>
      <trkpt lat="42.96036299999997" lon="-1.4467539999999963">
        <ele>828.083</ele>
        <time>2022-08-24T14:13:55Z</time>
      </trkpt>
      <trkpt lat="42.96035999999997" lon="-1.4467699999999963">
        <ele>828.267</ele>
        <time>2022-08-24T14:13:56Z</time>
      </trkpt>
      <trkpt lat="42.96035699999997" lon="-1.4467839999999963">
        <ele>828.216</ele>
        <time>2022-08-24T14:13:57Z</time>
      </trkpt>
      <trkpt lat="42.96035299999998" lon="-1.4467919999999963">
        <ele>828.483</ele>
        <time>2022-08-24T14:13:58Z</time>
      </trkpt>
      <trkpt lat="42.960353999999974" lon="-1.4467959999999962">
        <ele>828.625</ele>
        <time>2022-08-24T14:13:59Z</time>
      </trkpt>
      <trkpt lat="42.96035299999998" lon="-1.446799999999996">
        <ele>828.617</ele>
        <time>2022-08-24T14:14:00Z</time>
      </trkpt>
      <trkpt lat="42.96035299999998" lon="-1.446799999999996">
        <ele>829.209</ele>
        <time>2022-08-24T14:14:49Z</time>
      </trkpt>
      <trkpt lat="42.96034699999998" lon="-1.4468529999999962">
        <ele>829.049</ele>
        <time>2022-08-24T14:14:52Z</time>
      </trkpt>
      <trkpt lat="42.960341999999976" lon="-1.4468849999999962">
        <ele>829.059</ele>
        <time>2022-08-24T14:14:53Z</time>
      </trkpt>
      <trkpt lat="42.96030099999997" lon="-1.4470109999999963">
        <ele>829.089</ele>
        <time>2022-08-24T14:14:56Z</time>
      </trkpt>
      <trkpt lat="42.960271999999975" lon="-1.4470759999999963">
        <ele>828.835</ele>
        <time>2022-08-24T14:14:57Z</time>
      </trkpt>
      <trkpt lat="42.960234999999976" lon="-1.4471499999999962">
        <ele>828.687</ele>
        <time>2022-08-24T14:14:58Z</time>
      </trkpt>
      <trkpt lat="42.96014999999998" lon="-1.4472679999999962">
        <ele>828.264</ele>
        <time>2022-08-24T14:15:00Z</time>
      </trkpt>
      <trkpt lat="42.960088999999975" lon="-1.4473689999999961">
        <ele>828.037</ele>
        <time>2022-08-24T14:15:02Z</time>
      </trkpt>
      <trkpt lat="42.96006299999998" lon="-1.447436999999996">
        <ele>828.031</ele>
        <time>2022-08-24T14:15:03Z</time>
      </trkpt>
      <trkpt lat="42.96003899999997" lon="-1.4474959999999961">
        <ele>828.080</ele>
        <time>2022-08-24T14:15:04Z</time>
      </trkpt>
      <trkpt lat="42.960029999999975" lon="-1.4476119999999961">
        <ele>827.833</ele>
        <time>2022-08-24T14:15:06Z</time>
      </trkpt>
      <trkpt lat="42.960006999999976" lon="-1.447701999999996">
        <ele>827.823</ele>
        <time>2022-08-24T14:15:07Z</time>
      </trkpt>
      <trkpt lat="42.959990999999974" lon="-1.4477789999999962">
        <ele>827.415</ele>
        <time>2022-08-24T14:15:08Z</time>
      </trkpt>
      <trkpt lat="42.95997299999998" lon="-1.447852999999996">
        <ele>827.409</ele>
        <time>2022-08-24T14:15:09Z</time>
      </trkpt>
      <trkpt lat="42.95996699999998" lon="-1.447896999999996">
        <ele>827.294</ele>
        <time>2022-08-24T14:15:10Z</time>
      </trkpt>
      <trkpt lat="42.95995899999998" lon="-1.447948999999996">
        <ele>827.084</ele>
        <time>2022-08-24T14:15:11Z</time>
      </trkpt>
      <trkpt lat="42.95996899999998" lon="-1.447991999999996">
        <ele>826.634</ele>
        <time>2022-08-24T14:15:12Z</time>
      </trkpt>
      <trkpt lat="42.95995499999998" lon="-1.4480499999999958">
        <ele>826.430</ele>
        <time>2022-08-24T14:15:13Z</time>
      </trkpt>
      <trkpt lat="42.959944999999976" lon="-1.4480939999999958">
        <ele>826.492</ele>
        <time>2022-08-24T14:15:14Z</time>
      </trkpt>
      <trkpt lat="42.959931999999974" lon="-1.4482169999999959">
        <ele>826.449</ele>
        <time>2022-08-24T14:15:16Z</time>
      </trkpt>
      <trkpt lat="42.95993599999997" lon="-1.4482739999999958">
        <ele>826.082</ele>
        <time>2022-08-24T14:15:17Z</time>
      </trkpt>
      <trkpt lat="42.959928999999974" lon="-1.4483589999999957">
        <ele>825.696</ele>
        <time>2022-08-24T14:15:18Z</time>
      </trkpt>
      <trkpt lat="42.959900999999974" lon="-1.4484189999999957">
        <ele>825.665</ele>
        <time>2022-08-24T14:15:19Z</time>
      </trkpt>
      <trkpt lat="42.959894999999975" lon="-1.4484699999999957">
        <ele>825.468</ele>
        <time>2022-08-24T14:15:20Z</time>
      </trkpt>
      <trkpt lat="42.959925999999975" lon="-1.4485309999999958">
        <ele>825.442</ele>
        <time>2022-08-24T14:15:21Z</time>
      </trkpt>
      <trkpt lat="42.959959999999974" lon="-1.4485709999999958">
        <ele>825.226</ele>
        <time>2022-08-24T14:15:22Z</time>
      </trkpt>
      <trkpt lat="42.959992999999976" lon="-1.4486019999999957">
        <ele>825.009</ele>
        <time>2022-08-24T14:15:23Z</time>
      </trkpt>
      <trkpt lat="42.96001199999998" lon="-1.4486229999999958">
        <ele>824.857</ele>
        <time>2022-08-24T14:15:24Z</time>
      </trkpt>
      <trkpt lat="42.960029999999975" lon="-1.4486499999999958">
        <ele>824.837</ele>
        <time>2022-08-24T14:15:25Z</time>
      </trkpt>
      <trkpt lat="42.96006199999997" lon="-1.4486919999999959">
        <ele>824.847</ele>
        <time>2022-08-24T14:15:26Z</time>
      </trkpt>
      <trkpt lat="42.96008399999997" lon="-1.448717999999996">
        <ele>824.823</ele>
        <time>2022-08-24T14:15:27Z</time>
      </trkpt>
      <trkpt lat="42.96010099999997" lon="-1.448740999999996">
        <ele>824.845</ele>
        <time>2022-08-24T14:15:28Z</time>
      </trkpt>
      <trkpt lat="42.960105999999975" lon="-1.448762999999996">
        <ele>824.842</ele>
        <time>2022-08-24T14:15:29Z</time>
      </trkpt>
      <trkpt lat="42.960105999999975" lon="-1.448773999999996">
        <ele>824.875</ele>
        <time>2022-08-24T14:15:30Z</time>
      </trkpt>
      <trkpt lat="42.96011499999997" lon="-1.448797999999996">
        <ele>824.869</ele>
        <time>2022-08-24T14:15:31Z</time>
      </trkpt>
      <trkpt lat="42.960128999999974" lon="-1.4488239999999961">
        <ele>825.268</ele>
        <time>2022-08-24T14:15:32Z</time>
      </trkpt>
      <trkpt lat="42.960128999999974" lon="-1.448840999999996">
        <ele>825.292</ele>
        <time>2022-08-24T14:15:33Z</time>
      </trkpt>
      <trkpt lat="42.960125999999974" lon="-1.4488639999999962">
        <ele>825.473</ele>
        <time>2022-08-24T14:15:34Z</time>
      </trkpt>
      <trkpt lat="42.96012099999997" lon="-1.448891999999996">
        <ele>825.420</ele>
        <time>2022-08-24T14:15:35Z</time>
      </trkpt>
      <trkpt lat="42.960116999999975" lon="-1.4489099999999961">
        <ele>825.609</ele>
        <time>2022-08-24T14:15:36Z</time>
      </trkpt>
      <trkpt lat="42.960116999999975" lon="-1.4489309999999962">
        <ele>825.820</ele>
        <time>2022-08-24T14:15:37Z</time>
      </trkpt>
      <trkpt lat="42.96012499999998" lon="-1.4489569999999963">
        <ele>825.860</ele>
        <time>2022-08-24T14:15:38Z</time>
      </trkpt>
      <trkpt lat="42.960128999999974" lon="-1.4489739999999962">
        <ele>826.050</ele>
        <time>2022-08-24T14:15:39Z</time>
      </trkpt>
      <trkpt lat="42.960141999999976" lon="-1.4490809999999963">
        <ele>827.286</ele>
        <time>2022-08-24T14:15:50Z</time>
      </trkpt>
      <trkpt lat="42.96013499999998" lon="-1.4491209999999963">
        <ele>827.438</ele>
        <time>2022-08-24T14:15:52Z</time>
      </trkpt>
      <trkpt lat="42.96014699999998" lon="-1.4491959999999964">
        <ele>827.825</ele>
        <time>2022-08-24T14:15:57Z</time>
      </trkpt>
      <trkpt lat="42.960144999999976" lon="-1.4492199999999964">
        <ele>827.828</ele>
        <time>2022-08-24T14:15:58Z</time>
      </trkpt>
      <trkpt lat="42.960141999999976" lon="-1.4492289999999963">
        <ele>827.832</ele>
        <time>2022-08-24T14:15:59Z</time>
      </trkpt>
      <trkpt lat="42.960141999999976" lon="-1.4492349999999963">
        <ele>828.271</ele>
        <time>2022-08-24T14:16:00Z</time>
      </trkpt>
      <trkpt lat="42.96014099999998" lon="-1.4492519999999962">
        <ele>828.694</ele>
        <time>2022-08-24T14:16:02Z</time>
      </trkpt>
      <trkpt lat="42.96014299999998" lon="-1.449263999999996">
        <ele>828.857</ele>
        <time>2022-08-24T14:16:03Z</time>
      </trkpt>
      <trkpt lat="42.96014599999998" lon="-1.449283999999996">
        <ele>828.822</ele>
        <time>2022-08-24T14:16:05Z</time>
      </trkpt>
      <trkpt lat="42.96014699999998" lon="-1.449287999999996">
        <ele>828.809</ele>
        <time>2022-08-24T14:16:06Z</time>
      </trkpt>
      <trkpt lat="42.960147999999975" lon="-1.449300999999996">
        <ele>829.080</ele>
        <time>2022-08-24T14:16:07Z</time>
      </trkpt>
      <trkpt lat="42.960144999999976" lon="-1.4493129999999959">
        <ele>829.050</ele>
        <time>2022-08-24T14:16:08Z</time>
      </trkpt>
      <trkpt lat="42.960144999999976" lon="-1.4493219999999958">
        <ele>829.040</ele>
        <time>2022-08-24T14:16:09Z</time>
      </trkpt>
      <trkpt lat="42.96014599999997" lon="-1.4493329999999958">
        <ele>829.086</ele>
        <time>2022-08-24T14:16:10Z</time>
      </trkpt>
      <trkpt lat="42.960147999999975" lon="-1.4493439999999957">
        <ele>829.078</ele>
        <time>2022-08-24T14:16:11Z</time>
      </trkpt>
      <trkpt lat="42.96014999999998" lon="-1.4493559999999956">
        <ele>829.275</ele>
        <time>2022-08-24T14:16:12Z</time>
      </trkpt>
      <trkpt lat="42.96015299999998" lon="-1.4493689999999957">
        <ele>829.278</ele>
        <time>2022-08-24T14:16:13Z</time>
      </trkpt>
      <trkpt lat="42.960156999999974" lon="-1.4493839999999958">
        <ele>829.422</ele>
        <time>2022-08-24T14:16:14Z</time>
      </trkpt>
      <trkpt lat="42.96016599999997" lon="-1.4493999999999958">
        <ele>829.451</ele>
        <time>2022-08-24T14:16:15Z</time>
      </trkpt>
      <trkpt lat="42.96017299999997" lon="-1.4494099999999959">
        <ele>829.424</ele>
        <time>2022-08-24T14:16:16Z</time>
      </trkpt>
      <trkpt lat="42.96017799999997" lon="-1.4494219999999958">
        <ele>829.604</ele>
        <time>2022-08-24T14:16:17Z</time>
      </trkpt>
      <trkpt lat="42.96018299999997" lon="-1.4494329999999958">
        <ele>829.614</ele>
        <time>2022-08-24T14:16:18Z</time>
      </trkpt>
      <trkpt lat="42.96018699999997" lon="-1.4494409999999958">
        <ele>829.609</ele>
        <time>2022-08-24T14:16:19Z</time>
      </trkpt>
      <trkpt lat="42.960193999999966" lon="-1.4494539999999958">
        <ele>829.823</ele>
        <time>2022-08-24T14:16:25Z</time>
      </trkpt>
      <trkpt lat="42.96019499999996" lon="-1.4494649999999958">
        <ele>830.053</ele>
        <time>2022-08-24T14:16:26Z</time>
      </trkpt>
      <trkpt lat="42.960204999999966" lon="-1.4494809999999958">
        <ele>830.833</ele>
        <time>2022-08-24T14:16:30Z</time>
      </trkpt>
      <trkpt lat="42.960204999999966" lon="-1.4494809999999958">
        <ele>830.869</ele>
        <time>2022-08-24T14:16:31Z</time>
      </trkpt>
      <trkpt lat="42.960205999999964" lon="-1.4494929999999957">
        <ele>830.891</ele>
        <time>2022-08-24T14:16:32Z</time>
      </trkpt>
      <trkpt lat="42.960207999999966" lon="-1.4495039999999957">
        <ele>830.828</ele>
        <time>2022-08-24T14:16:33Z</time>
      </trkpt>
      <trkpt lat="42.96020999999997" lon="-1.4495169999999957">
        <ele>831.021</ele>
        <time>2022-08-24T14:16:34Z</time>
      </trkpt>
      <trkpt lat="42.96022299999997" lon="-1.4495589999999958">
        <ele>831.045</ele>
        <time>2022-08-24T14:16:36Z</time>
      </trkpt>
      <trkpt lat="42.96023399999997" lon="-1.4496069999999959">
        <ele>831.224</ele>
        <time>2022-08-24T14:16:39Z</time>
      </trkpt>
      <trkpt lat="42.960232999999974" lon="-1.4496419999999959">
        <ele>831.445</ele>
        <time>2022-08-24T14:16:42Z</time>
      </trkpt>
      <trkpt lat="42.960229999999974" lon="-1.449662999999996">
        <ele>831.447</ele>
        <time>2022-08-24T14:16:43Z</time>
      </trkpt>
      <trkpt lat="42.96022899999998" lon="-1.449667999999996">
        <ele>831.611</ele>
        <time>2022-08-24T14:16:44Z</time>
      </trkpt>
      <trkpt lat="42.960231999999976" lon="-1.449682999999996">
        <ele>831.609</ele>
        <time>2022-08-24T14:16:45Z</time>
      </trkpt>
      <trkpt lat="42.96024299999998" lon="-1.449714999999996">
        <ele>831.815</ele>
        <time>2022-08-24T14:16:46Z</time>
      </trkpt>
      <trkpt lat="42.960246999999974" lon="-1.4497299999999962">
        <ele>831.855</ele>
        <time>2022-08-24T14:16:47Z</time>
      </trkpt>
      <trkpt lat="42.960248999999976" lon="-1.449733999999996">
        <ele>832.055</ele>
        <time>2022-08-24T14:16:48Z</time>
      </trkpt>
      <trkpt lat="42.96025099999998" lon="-1.449752999999996">
        <ele>832.011</ele>
        <time>2022-08-24T14:16:49Z</time>
      </trkpt>
      <trkpt lat="42.960257999999975" lon="-1.449776999999996">
        <ele>832.023</ele>
        <time>2022-08-24T14:16:51Z</time>
      </trkpt>
      <trkpt lat="42.96025999999998" lon="-1.449780999999996">
        <ele>832.070</ele>
        <time>2022-08-24T14:16:52Z</time>
      </trkpt>
      <trkpt lat="42.96027099999998" lon="-1.449803999999996">
        <ele>832.263</ele>
        <time>2022-08-24T14:16:53Z</time>
      </trkpt>
      <trkpt lat="42.96028399999998" lon="-1.449822999999996">
        <ele>832.257</ele>
        <time>2022-08-24T14:16:54Z</time>
      </trkpt>
      <trkpt lat="42.96028599999998" lon="-1.449833999999996">
        <ele>832.236</ele>
        <time>2022-08-24T14:16:55Z</time>
      </trkpt>
      <trkpt lat="42.96029399999998" lon="-1.449852999999996">
        <ele>832.464</ele>
        <time>2022-08-24T14:16:56Z</time>
      </trkpt>
      <trkpt lat="42.96029499999998" lon="-1.449869999999996">
        <ele>832.406</ele>
        <time>2022-08-24T14:16:57Z</time>
      </trkpt>
      <trkpt lat="42.96030199999998" lon="-1.449894999999996">
        <ele>832.616</ele>
        <time>2022-08-24T14:16:58Z</time>
      </trkpt>
      <trkpt lat="42.96031799999998" lon="-1.4499309999999959">
        <ele>833.009</ele>
        <time>2022-08-24T14:17:02Z</time>
      </trkpt>
      <trkpt lat="42.96032899999998" lon="-1.4499479999999958">
        <ele>833.217</ele>
        <time>2022-08-24T14:17:03Z</time>
      </trkpt>
      <trkpt lat="42.96032999999998" lon="-1.4499499999999959">
        <ele>833.277</ele>
        <time>2022-08-24T14:17:04Z</time>
      </trkpt>
      <trkpt lat="42.960330999999975" lon="-1.4499549999999959">
        <ele>833.677</ele>
        <time>2022-08-24T14:17:06Z</time>
      </trkpt>
      <trkpt lat="42.960330999999975" lon="-1.449959999999996">
        <ele>833.663</ele>
        <time>2022-08-24T14:17:07Z</time>
      </trkpt>
      <trkpt lat="42.960330999999975" lon="-1.449959999999996">
        <ele>833.655</ele>
        <time>2022-08-24T14:17:08Z</time>
      </trkpt>
      <trkpt lat="42.96033299999998" lon="-1.449967999999996">
        <ele>833.812</ele>
        <time>2022-08-24T14:17:24Z</time>
      </trkpt>
      <trkpt lat="42.960333999999975" lon="-1.4499689999999958">
        <ele>833.875</ele>
        <time>2022-08-24T14:17:25Z</time>
      </trkpt>
      <trkpt lat="42.96034599999997" lon="-1.4500089999999959">
        <ele>833.869</ele>
        <time>2022-08-24T14:17:27Z</time>
      </trkpt>
      <trkpt lat="42.96042199999997" lon="-1.450132999999996">
        <ele>833.828</ele>
        <time>2022-08-24T14:17:31Z</time>
      </trkpt>
      <trkpt lat="42.96045599999997" lon="-1.4501719999999958">
        <ele>833.692</ele>
        <time>2022-08-24T14:17:32Z</time>
      </trkpt>
      <trkpt lat="42.960485999999975" lon="-1.4501989999999958">
        <ele>833.673</ele>
        <time>2022-08-24T14:17:33Z</time>
      </trkpt>
      <trkpt lat="42.960513999999975" lon="-1.4502289999999958">
        <ele>833.620</ele>
        <time>2022-08-24T14:17:34Z</time>
      </trkpt>
      <trkpt lat="42.960536999999974" lon="-1.4502519999999959">
        <ele>833.609</ele>
        <time>2022-08-24T14:17:35Z</time>
      </trkpt>
      <trkpt lat="42.96059399999997" lon="-1.4502909999999958">
        <ele>833.650</ele>
        <time>2022-08-24T14:17:37Z</time>
      </trkpt>
      <trkpt lat="42.960651999999975" lon="-1.4503249999999959">
        <ele>833.680</ele>
        <time>2022-08-24T14:17:39Z</time>
      </trkpt>
      <trkpt lat="42.960676999999976" lon="-1.450331999999996">
        <ele>833.880</ele>
        <time>2022-08-24T14:17:40Z</time>
      </trkpt>
      <trkpt lat="42.96069299999998" lon="-1.4503329999999959">
        <ele>833.846</ele>
        <time>2022-08-24T14:17:41Z</time>
      </trkpt>
      <trkpt lat="42.96072099999998" lon="-1.450348999999996">
        <ele>833.888</ele>
        <time>2022-08-24T14:17:42Z</time>
      </trkpt>
      <trkpt lat="42.96080799999998" lon="-1.4504229999999958">
        <ele>833.855</ele>
        <time>2022-08-24T14:17:45Z</time>
      </trkpt>
      <trkpt lat="42.96083599999998" lon="-1.4504339999999958">
        <ele>833.838</ele>
        <time>2022-08-24T14:17:46Z</time>
      </trkpt>
      <trkpt lat="42.96085499999998" lon="-1.4504399999999957">
        <ele>833.832</ele>
        <time>2022-08-24T14:17:47Z</time>
      </trkpt>
      <trkpt lat="42.96087499999998" lon="-1.4504479999999957">
        <ele>833.851</ele>
        <time>2022-08-24T14:17:48Z</time>
      </trkpt>
      <trkpt lat="42.96089499999998" lon="-1.4504529999999958">
        <ele>833.854</ele>
        <time>2022-08-24T14:17:49Z</time>
      </trkpt>
      <trkpt lat="42.96090999999998" lon="-1.4504459999999957">
        <ele>833.856</ele>
        <time>2022-08-24T14:17:50Z</time>
      </trkpt>
      <trkpt lat="42.96093399999998" lon="-1.4504509999999957">
        <ele>834.011</ele>
        <time>2022-08-24T14:17:51Z</time>
      </trkpt>
      <trkpt lat="42.96099999999998" lon="-1.4504859999999957">
        <ele>834.009</ele>
        <time>2022-08-24T14:17:53Z</time>
      </trkpt>
      <trkpt lat="42.96102799999998" lon="-1.4505169999999956">
        <ele>834.066</ele>
        <time>2022-08-24T14:17:54Z</time>
      </trkpt>
      <trkpt lat="42.96104499999998" lon="-1.4505479999999955">
        <ele>834.246</ele>
        <time>2022-08-24T14:17:55Z</time>
      </trkpt>
      <trkpt lat="42.961067999999976" lon="-1.4505799999999955">
        <ele>834.266</ele>
        <time>2022-08-24T14:17:56Z</time>
      </trkpt>
      <trkpt lat="42.96108899999997" lon="-1.4506059999999956">
        <ele>834.462</ele>
        <time>2022-08-24T14:17:57Z</time>
      </trkpt>
      <trkpt lat="42.961107999999975" lon="-1.4506319999999957">
        <ele>834.424</ele>
        <time>2022-08-24T14:17:58Z</time>
      </trkpt>
      <trkpt lat="42.96114299999997" lon="-1.4506929999999958">
        <ele>834.461</ele>
        <time>2022-08-24T14:18:00Z</time>
      </trkpt>
      <trkpt lat="42.96115499999997" lon="-1.4507139999999958">
        <ele>834.664</ele>
        <time>2022-08-24T14:18:01Z</time>
      </trkpt>
      <trkpt lat="42.96116499999997" lon="-1.4507349999999959">
        <ele>834.648</ele>
        <time>2022-08-24T14:18:02Z</time>
      </trkpt>
      <trkpt lat="42.96117699999997" lon="-1.4507599999999958">
        <ele>834.897</ele>
        <time>2022-08-24T14:18:03Z</time>
      </trkpt>
      <trkpt lat="42.96118899999997" lon="-1.4507769999999958">
        <ele>835.082</ele>
        <time>2022-08-24T14:18:04Z</time>
      </trkpt>
      <trkpt lat="42.96120099999997" lon="-1.4507939999999957">
        <ele>835.043</ele>
        <time>2022-08-24T14:18:05Z</time>
      </trkpt>
      <trkpt lat="42.96121099999997" lon="-1.4508119999999958">
        <ele>835.217</ele>
        <time>2022-08-24T14:18:06Z</time>
      </trkpt>
      <trkpt lat="42.96122099999997" lon="-1.4508289999999957">
        <ele>835.409</ele>
        <time>2022-08-24T14:18:07Z</time>
      </trkpt>
      <trkpt lat="42.961228999999975" lon="-1.4508439999999958">
        <ele>835.499</ele>
        <time>2022-08-24T14:18:08Z</time>
      </trkpt>
      <trkpt lat="42.96123899999998" lon="-1.4508619999999959">
        <ele>835.859</ele>
        <time>2022-08-24T14:18:09Z</time>
      </trkpt>
      <trkpt lat="42.961245999999974" lon="-1.450877999999996">
        <ele>835.869</ele>
        <time>2022-08-24T14:18:10Z</time>
      </trkpt>
      <trkpt lat="42.96125499999997" lon="-1.4508889999999959">
        <ele>836.035</ele>
        <time>2022-08-24T14:18:11Z</time>
      </trkpt>
      <trkpt lat="42.96128099999997" lon="-1.450958999999996">
        <ele>836.647</ele>
        <time>2022-08-24T14:18:15Z</time>
      </trkpt>
      <trkpt lat="42.96128499999997" lon="-1.450984999999996">
        <ele>836.894</ele>
        <time>2022-08-24T14:18:16Z</time>
      </trkpt>
      <trkpt lat="42.961291999999965" lon="-1.451008999999996">
        <ele>837.047</ele>
        <time>2022-08-24T14:18:17Z</time>
      </trkpt>
      <trkpt lat="42.961297999999964" lon="-1.451053999999996">
        <ele>837.231</ele>
        <time>2022-08-24T14:18:19Z</time>
      </trkpt>
      <trkpt lat="42.96130199999996" lon="-1.4510769999999962">
        <ele>837.230</ele>
        <time>2022-08-24T14:18:20Z</time>
      </trkpt>
      <trkpt lat="42.96130799999996" lon="-1.4510989999999961">
        <ele>837.494</ele>
        <time>2022-08-24T14:18:21Z</time>
      </trkpt>
      <trkpt lat="42.96131299999996" lon="-1.4511199999999962">
        <ele>837.657</ele>
        <time>2022-08-24T14:18:22Z</time>
      </trkpt>
      <trkpt lat="42.96131399999996" lon="-1.4511419999999962">
        <ele>837.622</ele>
        <time>2022-08-24T14:18:23Z</time>
      </trkpt>
      <trkpt lat="42.96131299999996" lon="-1.451161999999996">
        <ele>838.009</ele>
        <time>2022-08-24T14:18:24Z</time>
      </trkpt>
      <trkpt lat="42.96130799999996" lon="-1.451186999999996">
        <ele>838.270</ele>
        <time>2022-08-24T14:18:25Z</time>
      </trkpt>
      <trkpt lat="42.961314999999956" lon="-1.451213999999996">
        <ele>838.450</ele>
        <time>2022-08-24T14:18:26Z</time>
      </trkpt>
      <trkpt lat="42.96131999999996" lon="-1.451238999999996">
        <ele>838.660</ele>
        <time>2022-08-24T14:18:27Z</time>
      </trkpt>
      <trkpt lat="42.96131899999996" lon="-1.451262999999996">
        <ele>838.826</ele>
        <time>2022-08-24T14:18:28Z</time>
      </trkpt>
      <trkpt lat="42.96132099999996" lon="-1.451286999999996">
        <ele>839.028</ele>
        <time>2022-08-24T14:18:29Z</time>
      </trkpt>
      <trkpt lat="42.96132399999996" lon="-1.451313999999996">
        <ele>839.035</ele>
        <time>2022-08-24T14:18:30Z</time>
      </trkpt>
      <trkpt lat="42.96132799999996" lon="-1.451339999999996">
        <ele>839.258</ele>
        <time>2022-08-24T14:18:31Z</time>
      </trkpt>
      <trkpt lat="42.96132999999996" lon="-1.451359999999996">
        <ele>839.252</ele>
        <time>2022-08-24T14:18:32Z</time>
      </trkpt>
      <trkpt lat="42.96133499999996" lon="-1.451376999999996">
        <ele>839.661</ele>
        <time>2022-08-24T14:18:33Z</time>
      </trkpt>
      <trkpt lat="42.96134099999996" lon="-1.451397999999996">
        <ele>839.694</ele>
        <time>2022-08-24T14:18:34Z</time>
      </trkpt>
      <trkpt lat="42.96134499999996" lon="-1.451421999999996">
        <ele>839.857</ele>
        <time>2022-08-24T14:18:35Z</time>
      </trkpt>
      <trkpt lat="42.96134499999996" lon="-1.451443999999996">
        <ele>839.822</ele>
        <time>2022-08-24T14:18:36Z</time>
      </trkpt>
      <trkpt lat="42.96134499999996" lon="-1.451467999999996">
        <ele>839.809</ele>
        <time>2022-08-24T14:18:37Z</time>
      </trkpt>
      <trkpt lat="42.96134399999996" lon="-1.451489999999996">
        <ele>840.060</ele>
        <time>2022-08-24T14:18:38Z</time>
      </trkpt>
      <trkpt lat="42.96134499999996" lon="-1.451507999999996">
        <ele>840.020</ele>
        <time>2022-08-24T14:18:39Z</time>
      </trkpt>
      <trkpt lat="42.96134499999996" lon="-1.451526999999996">
        <ele>840.060</ele>
        <time>2022-08-24T14:18:40Z</time>
      </trkpt>
      <trkpt lat="42.96134199999996" lon="-1.451552999999996">
        <ele>840.046</ele>
        <time>2022-08-24T14:18:41Z</time>
      </trkpt>
      <trkpt lat="42.96133999999996" lon="-1.451583999999996">
        <ele>840.068</ele>
        <time>2022-08-24T14:18:42Z</time>
      </trkpt>
      <trkpt lat="42.96133699999996" lon="-1.451608999999996">
        <ele>840.225</ele>
        <time>2022-08-24T14:18:43Z</time>
      </trkpt>
      <trkpt lat="42.96132599999996" lon="-1.451635999999996">
        <ele>840.288</ele>
        <time>2022-08-24T14:18:44Z</time>
      </trkpt>
      <trkpt lat="42.961315999999954" lon="-1.451662999999996">
        <ele>840.252</ele>
        <time>2022-08-24T14:18:45Z</time>
      </trkpt>
      <trkpt lat="42.961312999999954" lon="-1.451696999999996">
        <ele>840.211</ele>
        <time>2022-08-24T14:18:46Z</time>
      </trkpt>
      <trkpt lat="42.961300999999956" lon="-1.451729999999996">
        <ele>840.474</ele>
        <time>2022-08-24T14:18:47Z</time>
      </trkpt>
      <trkpt lat="42.96129199999996" lon="-1.4517609999999959">
        <ele>840.456</ele>
        <time>2022-08-24T14:18:48Z</time>
      </trkpt>
      <trkpt lat="42.961275999999955" lon="-1.451792999999996">
        <ele>840.421</ele>
        <time>2022-08-24T14:18:49Z</time>
      </trkpt>
      <trkpt lat="42.96126599999995" lon="-1.451824999999996">
        <ele>840.409</ele>
        <time>2022-08-24T14:18:50Z</time>
      </trkpt>
      <trkpt lat="42.96125599999995" lon="-1.4518609999999958">
        <ele>840.448</ele>
        <time>2022-08-24T14:18:51Z</time>
      </trkpt>
      <trkpt lat="42.961245999999946" lon="-1.4518919999999957">
        <ele>840.488</ele>
        <time>2022-08-24T14:18:52Z</time>
      </trkpt>
      <trkpt lat="42.961198999999944" lon="-1.4519819999999957">
        <ele>840.418</ele>
        <time>2022-08-24T14:18:55Z</time>
      </trkpt>
      <trkpt lat="42.961124999999946" lon="-1.4520829999999956">
        <ele>840.224</ele>
        <time>2022-08-24T14:18:59Z</time>
      </trkpt>
      <trkpt lat="42.961102999999945" lon="-1.4521329999999957">
        <ele>840.236</ele>
        <time>2022-08-24T14:19:00Z</time>
      </trkpt>
      <trkpt lat="42.96108799999995" lon="-1.4521649999999957">
        <ele>840.243</ele>
        <time>2022-08-24T14:19:01Z</time>
      </trkpt>
      <trkpt lat="42.96107099999995" lon="-1.4521929999999956">
        <ele>840.266</ele>
        <time>2022-08-24T14:19:02Z</time>
      </trkpt>
      <trkpt lat="42.961054999999945" lon="-1.4522209999999955">
        <ele>840.210</ele>
        <time>2022-08-24T14:19:03Z</time>
      </trkpt>
      <trkpt lat="42.961031999999946" lon="-1.4522479999999955">
        <ele>840.299</ele>
        <time>2022-08-24T14:19:04Z</time>
      </trkpt>
      <trkpt lat="42.96093599999995" lon="-1.4523689999999956">
        <ele>840.017</ele>
        <time>2022-08-24T14:19:08Z</time>
      </trkpt>
      <trkpt lat="42.96091499999995" lon="-1.4523979999999956">
        <ele>840.087</ele>
        <time>2022-08-24T14:19:09Z</time>
      </trkpt>
      <trkpt lat="42.96089799999995" lon="-1.4524179999999955">
        <ele>840.015</ele>
        <time>2022-08-24T14:19:10Z</time>
      </trkpt>
      <trkpt lat="42.96088599999995" lon="-1.4524389999999956">
        <ele>839.809</ele>
        <time>2022-08-24T14:19:11Z</time>
      </trkpt>
      <trkpt lat="42.96087599999995" lon="-1.4524559999999955">
        <ele>839.872</ele>
        <time>2022-08-24T14:19:12Z</time>
      </trkpt>
      <trkpt lat="42.96086299999995" lon="-1.4524699999999955">
        <ele>839.682</ele>
        <time>2022-08-24T14:19:13Z</time>
      </trkpt>
      <trkpt lat="42.960848999999946" lon="-1.4524809999999955">
        <ele>839.652</ele>
        <time>2022-08-24T14:19:14Z</time>
      </trkpt>
      <trkpt lat="42.96083399999995" lon="-1.4524929999999954">
        <ele>839.618</ele>
        <time>2022-08-24T14:19:15Z</time>
      </trkpt>
      <trkpt lat="42.96076299999995" lon="-1.4525329999999954">
        <ele>839.460</ele>
        <time>2022-08-24T14:19:18Z</time>
      </trkpt>
      <trkpt lat="42.96070199999995" lon="-1.4525499999999953">
        <ele>839.037</ele>
        <time>2022-08-24T14:19:20Z</time>
      </trkpt>
      <trkpt lat="42.96054399999995" lon="-1.4525679999999954">
        <ele>838.080</ele>
        <time>2022-08-24T14:19:24Z</time>
      </trkpt>
      <trkpt lat="42.96050899999995" lon="-1.4525779999999955">
        <ele>837.424</ele>
        <time>2022-08-24T14:19:25Z</time>
      </trkpt>
      <trkpt lat="42.96047199999995" lon="-1.4525979999999954">
        <ele>837.283</ele>
        <time>2022-08-24T14:19:26Z</time>
      </trkpt>
      <trkpt lat="42.96042999999995" lon="-1.4526219999999954">
        <ele>837.053</ele>
        <time>2022-08-24T14:19:27Z</time>
      </trkpt>
      <trkpt lat="42.960392999999954" lon="-1.4526419999999953">
        <ele>836.404</ele>
        <time>2022-08-24T14:19:28Z</time>
      </trkpt>
      <trkpt lat="42.960366999999955" lon="-1.4526539999999952">
        <ele>836.214</ele>
        <time>2022-08-24T14:19:29Z</time>
      </trkpt>
      <trkpt lat="42.96034099999996" lon="-1.4526659999999951">
        <ele>835.609</ele>
        <time>2022-08-24T14:19:30Z</time>
      </trkpt>
      <trkpt lat="42.96031999999996" lon="-1.4526789999999952">
        <ele>835.426</ele>
        <time>2022-08-24T14:19:31Z</time>
      </trkpt>
      <trkpt lat="42.96029799999996" lon="-1.4526889999999952">
        <ele>834.876</ele>
        <time>2022-08-24T14:19:32Z</time>
      </trkpt>
      <trkpt lat="42.96026999999996" lon="-1.4527049999999953">
        <ele>834.496</ele>
        <time>2022-08-24T14:19:33Z</time>
      </trkpt>
      <trkpt lat="42.96014399999996" lon="-1.4527589999999952">
        <ele>834.092</ele>
        <time>2022-08-24T14:19:36Z</time>
      </trkpt>
      <trkpt lat="42.96011599999996" lon="-1.4527559999999953">
        <ele>834.024</ele>
        <time>2022-08-24T14:19:37Z</time>
      </trkpt>
      <trkpt lat="42.960043999999954" lon="-1.4527529999999953">
        <ele>833.431</ele>
        <time>2022-08-24T14:19:39Z</time>
      </trkpt>
      <trkpt lat="42.95997799999996" lon="-1.4527569999999952">
        <ele>833.014</ele>
        <time>2022-08-24T14:19:41Z</time>
      </trkpt>
      <trkpt lat="42.95994399999996" lon="-1.4527749999999953">
        <ele>832.488</ele>
        <time>2022-08-24T14:19:42Z</time>
      </trkpt>
      <trkpt lat="42.95991799999996" lon="-1.4527809999999952">
        <ele>832.217</ele>
        <time>2022-08-24T14:19:43Z</time>
      </trkpt>
      <trkpt lat="42.95988899999996" lon="-1.4527809999999952">
        <ele>831.644</ele>
        <time>2022-08-24T14:19:44Z</time>
      </trkpt>
      <trkpt lat="42.95977399999996" lon="-1.4527709999999951">
        <ele>831.205</ele>
        <time>2022-08-24T14:19:47Z</time>
      </trkpt>
      <trkpt lat="42.95973199999996" lon="-1.452774999999995">
        <ele>831.015</ele>
        <time>2022-08-24T14:19:48Z</time>
      </trkpt>
      <trkpt lat="42.95969899999996" lon="-1.452780999999995">
        <ele>830.809</ele>
        <time>2022-08-24T14:19:49Z</time>
      </trkpt>
      <trkpt lat="42.959654999999955" lon="-1.452786999999995">
        <ele>830.625</ele>
        <time>2022-08-24T14:19:50Z</time>
      </trkpt>
      <trkpt lat="42.959609999999955" lon="-1.452796999999995">
        <ele>830.465</ele>
        <time>2022-08-24T14:19:51Z</time>
      </trkpt>
      <trkpt lat="42.95957199999995" lon="-1.452796999999995">
        <ele>830.035</ele>
        <time>2022-08-24T14:19:52Z</time>
      </trkpt>
      <trkpt lat="42.959446999999955" lon="-1.452754999999995">
        <ele>828.861</ele>
        <time>2022-08-24T14:19:56Z</time>
      </trkpt>
      <trkpt lat="42.959415999999955" lon="-1.452759999999995">
        <ele>828.833</ele>
        <time>2022-08-24T14:19:57Z</time>
      </trkpt>
      <trkpt lat="42.959389999999956" lon="-1.452772999999995">
        <ele>828.840</ele>
        <time>2022-08-24T14:19:58Z</time>
      </trkpt>
      <trkpt lat="42.95934699999996" lon="-1.452810999999995">
        <ele>828.663</ele>
        <time>2022-08-24T14:19:59Z</time>
      </trkpt>
      <trkpt lat="42.95928399999996" lon="-1.452810999999995">
        <ele>828.417</ele>
        <time>2022-08-24T14:20:00Z</time>
      </trkpt>
      <trkpt lat="42.95923399999996" lon="-1.452827999999995">
        <ele>828.276</ele>
        <time>2022-08-24T14:20:01Z</time>
      </trkpt>
      <trkpt lat="42.95914599999996" lon="-1.452845999999995">
        <ele>828.022</ele>
        <time>2022-08-24T14:20:03Z</time>
      </trkpt>
      <trkpt lat="42.95910899999996" lon="-1.452842999999995">
        <ele>827.862</ele>
        <time>2022-08-24T14:20:04Z</time>
      </trkpt>
      <trkpt lat="42.959068999999964" lon="-1.452856999999995">
        <ele>827.808</ele>
        <time>2022-08-24T14:20:05Z</time>
      </trkpt>
      <trkpt lat="42.95895099999996" lon="-1.452908999999995">
        <ele>827.409</ele>
        <time>2022-08-24T14:20:08Z</time>
      </trkpt>
      <trkpt lat="42.958885999999964" lon="-1.4529849999999949">
        <ele>827.083</ele>
        <time>2022-08-24T14:20:10Z</time>
      </trkpt>
      <trkpt lat="42.95885599999996" lon="-1.453016999999995">
        <ele>827.033</ele>
        <time>2022-08-24T14:20:11Z</time>
      </trkpt>
      <trkpt lat="42.95879399999996" lon="-1.453094999999995">
        <ele>827.043</ele>
        <time>2022-08-24T14:20:13Z</time>
      </trkpt>
      <trkpt lat="42.958716999999965" lon="-1.453226999999995">
        <ele>827.069</ele>
        <time>2022-08-24T14:20:16Z</time>
      </trkpt>
      <trkpt lat="42.95868799999997" lon="-1.453266999999995">
        <ele>827.091</ele>
        <time>2022-08-24T14:20:17Z</time>
      </trkpt>
      <trkpt lat="42.958662999999966" lon="-1.453307999999995">
        <ele>827.028</ele>
        <time>2022-08-24T14:20:18Z</time>
      </trkpt>
      <trkpt lat="42.95862499999996" lon="-1.4533819999999948">
        <ele>827.091</ele>
        <time>2022-08-24T14:20:20Z</time>
      </trkpt>
      <trkpt lat="42.95862299999996" lon="-1.4534229999999948">
        <ele>827.085</ele>
        <time>2022-08-24T14:20:21Z</time>
      </trkpt>
      <trkpt lat="42.95862299999996" lon="-1.4534629999999948">
        <ele>827.044</ele>
        <time>2022-08-24T14:20:22Z</time>
      </trkpt>
      <trkpt lat="42.95862099999996" lon="-1.4535099999999948">
        <ele>827.256</ele>
        <time>2022-08-24T14:20:23Z</time>
      </trkpt>
      <trkpt lat="42.95861499999996" lon="-1.4535569999999947">
        <ele>827.259</ele>
        <time>2022-08-24T14:20:24Z</time>
      </trkpt>
      <trkpt lat="42.95862099999996" lon="-1.4535959999999946">
        <ele>827.414</ele>
        <time>2022-08-24T14:20:25Z</time>
      </trkpt>
      <trkpt lat="42.958624999999955" lon="-1.4536369999999945">
        <ele>827.409</ele>
        <time>2022-08-24T14:20:26Z</time>
      </trkpt>
      <trkpt lat="42.958624999999955" lon="-1.4536749999999945">
        <ele>827.616</ele>
        <time>2022-08-24T14:20:27Z</time>
      </trkpt>
      <trkpt lat="42.958624999999955" lon="-1.4537049999999945">
        <ele>827.626</ele>
        <time>2022-08-24T14:20:28Z</time>
      </trkpt>
      <trkpt lat="42.95862899999995" lon="-1.4537329999999944">
        <ele>827.886</ele>
        <time>2022-08-24T14:20:29Z</time>
      </trkpt>
      <trkpt lat="42.958627999999955" lon="-1.4537669999999945">
        <ele>828.022</ele>
        <time>2022-08-24T14:20:30Z</time>
      </trkpt>
      <trkpt lat="42.95862699999996" lon="-1.4538179999999945">
        <ele>828.294</ele>
        <time>2022-08-24T14:20:32Z</time>
      </trkpt>
      <trkpt lat="42.95862999999996" lon="-1.4538479999999945">
        <ele>828.441</ele>
        <time>2022-08-24T14:20:33Z</time>
      </trkpt>
      <trkpt lat="42.958635999999956" lon="-1.4538769999999945">
        <ele>828.434</ele>
        <time>2022-08-24T14:20:34Z</time>
      </trkpt>
      <trkpt lat="42.95864299999995" lon="-1.4539109999999946">
        <ele>828.458</ele>
        <time>2022-08-24T14:20:35Z</time>
      </trkpt>
      <trkpt lat="42.95865399999995" lon="-1.4539409999999946">
        <ele>828.487</ele>
        <time>2022-08-24T14:20:36Z</time>
      </trkpt>
      <trkpt lat="42.958655999999955" lon="-1.4539699999999947">
        <ele>828.685</ele>
        <time>2022-08-24T14:20:37Z</time>
      </trkpt>
      <trkpt lat="42.95865699999995" lon="-1.4540059999999946">
        <ele>828.889</ele>
        <time>2022-08-24T14:20:38Z</time>
      </trkpt>
      <trkpt lat="42.95866899999995" lon="-1.4540599999999946">
        <ele>828.817</ele>
        <time>2022-08-24T14:20:39Z</time>
      </trkpt>
      <trkpt lat="42.95866599999995" lon="-1.4540909999999945">
        <ele>828.809</ele>
        <time>2022-08-24T14:20:40Z</time>
      </trkpt>
      <trkpt lat="42.95866899999995" lon="-1.4541209999999944">
        <ele>829.039</ele>
        <time>2022-08-24T14:20:41Z</time>
      </trkpt>
      <trkpt lat="42.958678999999954" lon="-1.4541619999999944">
        <ele>829.469</ele>
        <time>2022-08-24T14:20:42Z</time>
      </trkpt>
      <trkpt lat="42.958680999999956" lon="-1.4541859999999944">
        <ele>829.639</ele>
        <time>2022-08-24T14:20:43Z</time>
      </trkpt>
      <trkpt lat="42.958683999999955" lon="-1.4542139999999943">
        <ele>829.875</ele>
        <time>2022-08-24T14:20:44Z</time>
      </trkpt>
      <trkpt lat="42.95869199999996" lon="-1.4542519999999943">
        <ele>830.087</ele>
        <time>2022-08-24T14:20:45Z</time>
      </trkpt>
      <trkpt lat="42.95870499999996" lon="-1.4542849999999943">
        <ele>830.274</ele>
        <time>2022-08-24T14:20:46Z</time>
      </trkpt>
      <trkpt lat="42.95873399999996" lon="-1.4543219999999943">
        <ele>830.437</ele>
        <time>2022-08-24T14:20:47Z</time>
      </trkpt>
      <trkpt lat="42.95875799999996" lon="-1.4543569999999943">
        <ele>830.421</ele>
        <time>2022-08-24T14:20:48Z</time>
      </trkpt>
      <trkpt lat="42.95876599999996" lon="-1.4543929999999943">
        <ele>830.610</ele>
        <time>2022-08-24T14:20:49Z</time>
      </trkpt>
      <trkpt lat="42.958761999999965" lon="-1.4544369999999942">
        <ele>830.658</ele>
        <time>2022-08-24T14:20:50Z</time>
      </trkpt>
      <trkpt lat="42.958766999999966" lon="-1.4544779999999942">
        <ele>830.652</ele>
        <time>2022-08-24T14:20:51Z</time>
      </trkpt>
      <trkpt lat="42.958761999999965" lon="-1.4545199999999943">
        <ele>830.817</ele>
        <time>2022-08-24T14:20:52Z</time>
      </trkpt>
      <trkpt lat="42.958769999999966" lon="-1.4545669999999942">
        <ele>830.809</ele>
        <time>2022-08-24T14:20:53Z</time>
      </trkpt>
      <trkpt lat="42.95877399999996" lon="-1.4546159999999941">
        <ele>830.856</ele>
        <time>2022-08-24T14:20:54Z</time>
      </trkpt>
      <trkpt lat="42.958781999999964" lon="-1.454654999999994">
        <ele>830.836</ele>
        <time>2022-08-24T14:20:55Z</time>
      </trkpt>
      <trkpt lat="42.95879099999996" lon="-1.4546889999999941">
        <ele>830.646</ele>
        <time>2022-08-24T14:20:56Z</time>
      </trkpt>
      <trkpt lat="42.95879899999996" lon="-1.454716999999994">
        <ele>830.632</ele>
        <time>2022-08-24T14:20:57Z</time>
      </trkpt>
      <trkpt lat="42.958795999999964" lon="-1.454755999999994">
        <ele>830.414</ele>
        <time>2022-08-24T14:20:58Z</time>
      </trkpt>
      <trkpt lat="42.958780999999966" lon="-1.454801999999994">
        <ele>830.421</ele>
        <time>2022-08-24T14:20:59Z</time>
      </trkpt>
      <trkpt lat="42.958775999999965" lon="-1.454824999999994">
        <ele>830.254</ele>
        <time>2022-08-24T14:21:00Z</time>
      </trkpt>
      <trkpt lat="42.95877999999996" lon="-1.454852999999994">
        <ele>830.058</ele>
        <time>2022-08-24T14:21:01Z</time>
      </trkpt>
      <trkpt lat="42.95877099999996" lon="-1.454882999999994">
        <ele>830.087</ele>
        <time>2022-08-24T14:21:02Z</time>
      </trkpt>
      <trkpt lat="42.958747999999964" lon="-1.454914999999994">
        <ele>829.869</ele>
        <time>2022-08-24T14:21:03Z</time>
      </trkpt>
      <trkpt lat="42.95871799999996" lon="-1.454948999999994">
        <ele>829.604</ele>
        <time>2022-08-24T14:21:04Z</time>
      </trkpt>
      <trkpt lat="42.95869599999996" lon="-1.454972999999994">
        <ele>829.024</ele>
        <time>2022-08-24T14:21:05Z</time>
      </trkpt>
      <trkpt lat="42.95867299999996" lon="-1.4549939999999941">
        <ele>828.609</ele>
        <time>2022-08-24T14:21:06Z</time>
      </trkpt>
      <trkpt lat="42.95864899999996" lon="-1.4549959999999942">
        <ele>828.617</ele>
        <time>2022-08-24T14:21:07Z</time>
      </trkpt>
      <trkpt lat="42.95862699999996" lon="-1.4549939999999941">
        <ele>828.487</ele>
        <time>2022-08-24T14:21:08Z</time>
      </trkpt>
      <trkpt lat="42.95860899999996" lon="-1.454996999999994">
        <ele>828.437</ele>
        <time>2022-08-24T14:21:09Z</time>
      </trkpt>
      <trkpt lat="42.95859399999996" lon="-1.4549939999999941">
        <ele>828.243</ele>
        <time>2022-08-24T14:21:10Z</time>
      </trkpt>
      <trkpt lat="42.95854599999996" lon="-1.4549529999999942">
        <ele>827.885</ele>
        <time>2022-08-24T14:21:12Z</time>
      </trkpt>
      <trkpt lat="42.95851899999996" lon="-1.4549369999999942">
        <ele>827.662</ele>
        <time>2022-08-24T14:21:13Z</time>
      </trkpt>
      <trkpt lat="42.95848699999996" lon="-1.4549199999999942">
        <ele>827.675</ele>
        <time>2022-08-24T14:21:14Z</time>
      </trkpt>
      <trkpt lat="42.95843899999996" lon="-1.4548959999999942">
        <ele>827.029</ele>
        <time>2022-08-24T14:21:15Z</time>
      </trkpt>
      <trkpt lat="42.95840599999996" lon="-1.4548799999999942">
        <ele>826.688</ele>
        <time>2022-08-24T14:21:16Z</time>
      </trkpt>
      <trkpt lat="42.958370999999964" lon="-1.4548749999999941">
        <ele>826.222</ele>
        <time>2022-08-24T14:21:17Z</time>
      </trkpt>
      <trkpt lat="42.95833599999997" lon="-1.454883999999994">
        <ele>826.262</ele>
        <time>2022-08-24T14:21:18Z</time>
      </trkpt>
      <trkpt lat="42.958305999999965" lon="-1.454894999999994">
        <ele>826.008</ele>
        <time>2022-08-24T14:21:19Z</time>
      </trkpt>
      <trkpt lat="42.95827899999996" lon="-1.454908999999994">
        <ele>825.809</ele>
        <time>2022-08-24T14:21:20Z</time>
      </trkpt>
      <trkpt lat="42.95824199999996" lon="-1.454926999999994">
        <ele>825.843</ele>
        <time>2022-08-24T14:21:21Z</time>
      </trkpt>
      <trkpt lat="42.958201999999964" lon="-1.4549339999999942">
        <ele>825.443</ele>
        <time>2022-08-24T14:21:22Z</time>
      </trkpt>
      <trkpt lat="42.958159999999964" lon="-1.4549449999999942">
        <ele>825.023</ele>
        <time>2022-08-24T14:21:23Z</time>
      </trkpt>
      <trkpt lat="42.958122999999965" lon="-1.4549559999999941">
        <ele>824.669</ele>
        <time>2022-08-24T14:21:24Z</time>
      </trkpt>
      <trkpt lat="42.95809599999996" lon="-1.4549559999999941">
        <ele>824.491</ele>
        <time>2022-08-24T14:21:25Z</time>
      </trkpt>
      <trkpt lat="42.958069999999964" lon="-1.454953999999994">
        <ele>824.278</ele>
        <time>2022-08-24T14:21:26Z</time>
      </trkpt>
      <trkpt lat="42.958043999999965" lon="-1.4549479999999941">
        <ele>823.851</ele>
        <time>2022-08-24T14:21:27Z</time>
      </trkpt>
      <trkpt lat="42.958012999999966" lon="-1.4549389999999942">
        <ele>823.885</ele>
        <time>2022-08-24T14:21:28Z</time>
      </trkpt>
      <trkpt lat="42.957970999999965" lon="-1.4549299999999943">
        <ele>823.634</ele>
        <time>2022-08-24T14:21:29Z</time>
      </trkpt>
      <trkpt lat="42.95794399999996" lon="-1.4549209999999944">
        <ele>823.447</ele>
        <time>2022-08-24T14:21:30Z</time>
      </trkpt>
      <trkpt lat="42.95790299999996" lon="-1.4549199999999944">
        <ele>823.029</ele>
        <time>2022-08-24T14:21:31Z</time>
      </trkpt>
      <trkpt lat="42.95785299999996" lon="-1.4549079999999945">
        <ele>822.021</ele>
        <time>2022-08-24T14:21:32Z</time>
      </trkpt>
      <trkpt lat="42.95780499999996" lon="-1.4549259999999946">
        <ele>821.609</ele>
        <time>2022-08-24T14:21:33Z</time>
      </trkpt>
      <trkpt lat="42.95770099999996" lon="-1.4549639999999946">
        <ele>820.035</ele>
        <time>2022-08-24T14:21:35Z</time>
      </trkpt>
      <trkpt lat="42.95764499999996" lon="-1.4549599999999947">
        <ele>819.435</ele>
        <time>2022-08-24T14:21:36Z</time>
      </trkpt>
      <trkpt lat="42.95759099999996" lon="-1.4549389999999947">
        <ele>819.215</ele>
        <time>2022-08-24T14:21:37Z</time>
      </trkpt>
      <trkpt lat="42.957529999999956" lon="-1.4549289999999946">
        <ele>818.851</ele>
        <time>2022-08-24T14:21:38Z</time>
      </trkpt>
      <trkpt lat="42.95747799999996" lon="-1.4549339999999946">
        <ele>818.443</ele>
        <time>2022-08-24T14:21:39Z</time>
      </trkpt>
      <trkpt lat="42.957422999999956" lon="-1.4549309999999946">
        <ele>818.430</ele>
        <time>2022-08-24T14:21:40Z</time>
      </trkpt>
      <trkpt lat="42.95735999999996" lon="-1.4549329999999947">
        <ele>818.253</ele>
        <time>2022-08-24T14:21:41Z</time>
      </trkpt>
      <trkpt lat="42.95724699999996" lon="-1.4549409999999947">
        <ele>817.437</ele>
        <time>2022-08-24T14:21:43Z</time>
      </trkpt>
      <trkpt lat="42.95716599999996" lon="-1.4549039999999946">
        <ele>817.086</ele>
        <time>2022-08-24T14:21:45Z</time>
      </trkpt>
      <trkpt lat="42.957124999999955" lon="-1.4549079999999945">
        <ele>816.841</ele>
        <time>2022-08-24T14:21:46Z</time>
      </trkpt>
      <trkpt lat="42.95708199999996" lon="-1.4549129999999946">
        <ele>816.681</ele>
        <time>2022-08-24T14:21:47Z</time>
      </trkpt>
      <trkpt lat="42.957034999999955" lon="-1.4549179999999946">
        <ele>816.209</ele>
        <time>2022-08-24T14:21:48Z</time>
      </trkpt>
      <trkpt lat="42.956983999999956" lon="-1.4549259999999946">
        <ele>816.209</ele>
        <time>2022-08-24T14:21:49Z</time>
      </trkpt>
      <trkpt lat="42.95693799999996" lon="-1.4549119999999947">
        <ele>816.265</ele>
        <time>2022-08-24T14:21:50Z</time>
      </trkpt>
      <trkpt lat="42.95688599999996" lon="-1.4549169999999947">
        <ele>816.075</ele>
        <time>2022-08-24T14:21:51Z</time>
      </trkpt>
      <trkpt lat="42.95684599999996" lon="-1.4549089999999947">
        <ele>816.035</ele>
        <time>2022-08-24T14:21:52Z</time>
      </trkpt>
      <trkpt lat="42.95682499999997" lon="-1.4549059999999947">
        <ele>816.071</ele>
        <time>2022-08-24T14:21:53Z</time>
      </trkpt>
      <trkpt lat="42.95680499999997" lon="-1.4549049999999948">
        <ele>816.053</ele>
        <time>2022-08-24T14:21:54Z</time>
      </trkpt>
      <trkpt lat="42.95669499999997" lon="-1.4549589999999948">
        <ele>816.050</ele>
        <time>2022-08-24T14:21:57Z</time>
      </trkpt>
      <trkpt lat="42.95666399999997" lon="-1.4549499999999949">
        <ele>816.023</ele>
        <time>2022-08-24T14:21:58Z</time>
      </trkpt>
      <trkpt lat="42.956630999999966" lon="-1.4549449999999948">
        <ele>816.077</ele>
        <time>2022-08-24T14:21:59Z</time>
      </trkpt>
      <trkpt lat="42.956599999999966" lon="-1.4549509999999948">
        <ele>816.026</ele>
        <time>2022-08-24T14:22:00Z</time>
      </trkpt>
      <trkpt lat="42.95657399999997" lon="-1.4549559999999948">
        <ele>816.083</ele>
        <time>2022-08-24T14:22:01Z</time>
      </trkpt>
      <trkpt lat="42.956549999999964" lon="-1.4549559999999948">
        <ele>816.025</ele>
        <time>2022-08-24T14:22:02Z</time>
      </trkpt>
      <trkpt lat="42.95653199999997" lon="-1.4549509999999948">
        <ele>815.817</ele>
        <time>2022-08-24T14:22:03Z</time>
      </trkpt>
      <trkpt lat="42.956501999999965" lon="-1.4549389999999949">
        <ele>815.609</ele>
        <time>2022-08-24T14:22:04Z</time>
      </trkpt>
      <trkpt lat="42.95647499999996" lon="-1.454929999999995">
        <ele>816.029</ele>
        <time>2022-08-24T14:22:05Z</time>
      </trkpt>
      <trkpt lat="42.95644499999996" lon="-1.454928999999995">
        <ele>816.039</ele>
        <time>2022-08-24T14:22:06Z</time>
      </trkpt>
      <trkpt lat="42.95639499999996" lon="-1.454926999999995">
        <ele>816.029</ele>
        <time>2022-08-24T14:22:08Z</time>
      </trkpt>
      <trkpt lat="42.95632899999996" lon="-1.454916999999995">
        <ele>816.235</ele>
        <time>2022-08-24T14:22:11Z</time>
      </trkpt>
      <trkpt lat="42.95619199999996" lon="-1.454907999999995">
        <ele>816.847</ele>
        <time>2022-08-24T14:22:16Z</time>
      </trkpt>
      <trkpt lat="42.95615999999996" lon="-1.454902999999995">
        <ele>816.874</ele>
        <time>2022-08-24T14:22:17Z</time>
      </trkpt>
      <trkpt lat="42.95613499999996" lon="-1.454901999999995">
        <ele>816.837</ele>
        <time>2022-08-24T14:22:18Z</time>
      </trkpt>
      <trkpt lat="42.956099999999964" lon="-1.454912999999995">
        <ele>816.691</ele>
        <time>2022-08-24T14:22:20Z</time>
      </trkpt>
      <trkpt lat="42.956085999999964" lon="-1.454923999999995">
        <ele>816.660</ele>
        <time>2022-08-24T14:22:21Z</time>
      </trkpt>
      <trkpt lat="42.956065999999964" lon="-1.454942999999995">
        <ele>816.884</ele>
        <time>2022-08-24T14:22:22Z</time>
      </trkpt>
      <trkpt lat="42.956039999999966" lon="-1.454966999999995">
        <ele>817.007</ele>
        <time>2022-08-24T14:22:23Z</time>
      </trkpt>
      <trkpt lat="42.956014999999965" lon="-1.454993999999995">
        <ele>817.017</ele>
        <time>2022-08-24T14:22:24Z</time>
      </trkpt>
      <trkpt lat="42.95597999999997" lon="-1.455036999999995">
        <ele>817.409</ele>
        <time>2022-08-24T14:22:26Z</time>
      </trkpt>
      <trkpt lat="42.95590299999997" lon="-1.4551249999999951">
        <ele>817.859</ele>
        <time>2022-08-24T14:22:29Z</time>
      </trkpt>
      <trkpt lat="42.95580299999997" lon="-1.455225999999995">
        <ele>818.059</ele>
        <time>2022-08-24T14:22:33Z</time>
      </trkpt>
      <trkpt lat="42.95577799999997" lon="-1.455253999999995">
        <ele>818.029</ele>
        <time>2022-08-24T14:22:34Z</time>
      </trkpt>
      <trkpt lat="42.95575799999997" lon="-1.4552789999999949">
        <ele>818.035</ele>
        <time>2022-08-24T14:22:35Z</time>
      </trkpt>
      <trkpt lat="42.955738999999966" lon="-1.455304999999995">
        <ele>818.037</ele>
        <time>2022-08-24T14:22:36Z</time>
      </trkpt>
      <trkpt lat="42.955724999999966" lon="-1.455326999999995">
        <ele>818.294</ele>
        <time>2022-08-24T14:22:37Z</time>
      </trkpt>
      <trkpt lat="42.95571199999996" lon="-1.455347999999995">
        <ele>818.227</ele>
        <time>2022-08-24T14:22:38Z</time>
      </trkpt>
      <trkpt lat="42.95570099999996" lon="-1.455369999999995">
        <ele>818.291</ele>
        <time>2022-08-24T14:22:39Z</time>
      </trkpt>
      <trkpt lat="42.955693999999966" lon="-1.455395999999995">
        <ele>818.640</ele>
        <time>2022-08-24T14:22:40Z</time>
      </trkpt>
      <trkpt lat="42.95568199999997" lon="-1.455420999999995">
        <ele>818.638</ele>
        <time>2022-08-24T14:22:41Z</time>
      </trkpt>
      <trkpt lat="42.955671999999964" lon="-1.455438999999995">
        <ele>818.670</ele>
        <time>2022-08-24T14:22:42Z</time>
      </trkpt>
      <trkpt lat="42.95566399999996" lon="-1.455457999999995">
        <ele>818.617</ele>
        <time>2022-08-24T14:22:43Z</time>
      </trkpt>
      <trkpt lat="42.955660999999964" lon="-1.455481999999995">
        <ele>818.809</ele>
        <time>2022-08-24T14:22:44Z</time>
      </trkpt>
      <trkpt lat="42.95565099999996" lon="-1.455503999999995">
        <ele>819.084</ele>
        <time>2022-08-24T14:22:45Z</time>
      </trkpt>
      <trkpt lat="42.95563299999996" lon="-1.455523999999995">
        <ele>819.264</ele>
        <time>2022-08-24T14:22:46Z</time>
      </trkpt>
      <trkpt lat="42.955612999999964" lon="-1.455544999999995">
        <ele>819.284</ele>
        <time>2022-08-24T14:22:47Z</time>
      </trkpt>
      <trkpt lat="42.95560599999997" lon="-1.4555569999999949">
        <ele>819.620</ele>
        <time>2022-08-24T14:22:48Z</time>
      </trkpt>
      <trkpt lat="42.955595999999964" lon="-1.4555769999999948">
        <ele>819.822</ele>
        <time>2022-08-24T14:22:49Z</time>
      </trkpt>
      <trkpt lat="42.955567999999964" lon="-1.4556249999999948">
        <ele>820.279</ele>
        <time>2022-08-24T14:22:51Z</time>
      </trkpt>
      <trkpt lat="42.955552999999966" lon="-1.4556569999999949">
        <ele>820.222</ele>
        <time>2022-08-24T14:22:52Z</time>
      </trkpt>
      <trkpt lat="42.95553599999997" lon="-1.455680999999995">
        <ele>820.236</ele>
        <time>2022-08-24T14:22:53Z</time>
      </trkpt>
      <trkpt lat="42.95552599999996" lon="-1.4556999999999949">
        <ele>820.645</ele>
        <time>2022-08-24T14:22:54Z</time>
      </trkpt>
      <trkpt lat="42.95552199999997" lon="-1.455714999999995">
        <ele>820.822</ele>
        <time>2022-08-24T14:22:55Z</time>
      </trkpt>
      <trkpt lat="42.955519999999964" lon="-1.455730999999995">
        <ele>821.062</ele>
        <time>2022-08-24T14:22:56Z</time>
      </trkpt>
      <trkpt lat="42.95551799999996" lon="-1.455748999999995">
        <ele>821.208</ele>
        <time>2022-08-24T14:22:57Z</time>
      </trkpt>
      <trkpt lat="42.955513999999965" lon="-1.4557699999999951">
        <ele>821.209</ele>
        <time>2022-08-24T14:22:58Z</time>
      </trkpt>
      <trkpt lat="42.955510999999966" lon="-1.4557879999999952">
        <ele>821.453</ele>
        <time>2022-08-24T14:22:59Z</time>
      </trkpt>
      <trkpt lat="42.95549799999996" lon="-1.4558089999999952">
        <ele>821.463</ele>
        <time>2022-08-24T14:23:00Z</time>
      </trkpt>
      <trkpt lat="42.955485999999965" lon="-1.4558349999999953">
        <ele>821.473</ele>
        <time>2022-08-24T14:23:01Z</time>
      </trkpt>
      <trkpt lat="42.955479999999966" lon="-1.4558699999999953">
        <ele>821.639</ele>
        <time>2022-08-24T14:23:02Z</time>
      </trkpt>
      <trkpt lat="42.95547299999997" lon="-1.4558989999999954">
        <ele>821.661</ele>
        <time>2022-08-24T14:23:03Z</time>
      </trkpt>
      <trkpt lat="42.95547099999997" lon="-1.4559219999999955">
        <ele>821.658</ele>
        <time>2022-08-24T14:23:04Z</time>
      </trkpt>
      <trkpt lat="42.955465999999966" lon="-1.4559509999999956">
        <ele>821.631</ele>
        <time>2022-08-24T14:23:05Z</time>
      </trkpt>
      <trkpt lat="42.95546699999996" lon="-1.4559769999999956">
        <ele>821.845</ele>
        <time>2022-08-24T14:23:06Z</time>
      </trkpt>
      <trkpt lat="42.95546699999996" lon="-1.4559979999999957">
        <ele>822.244</ele>
        <time>2022-08-24T14:23:07Z</time>
      </trkpt>
      <trkpt lat="42.955468999999965" lon="-1.4560179999999956">
        <ele>822.274</ele>
        <time>2022-08-24T14:23:08Z</time>
      </trkpt>
      <trkpt lat="42.955468999999965" lon="-1.4560379999999955">
        <ele>822.456</ele>
        <time>2022-08-24T14:23:09Z</time>
      </trkpt>
      <trkpt lat="42.955468999999965" lon="-1.4560629999999954">
        <ele>822.621</ele>
        <time>2022-08-24T14:23:10Z</time>
      </trkpt>
      <trkpt lat="42.95546999999996" lon="-1.4560869999999955">
        <ele>822.609</ele>
        <time>2022-08-24T14:23:11Z</time>
      </trkpt>
      <trkpt lat="42.955468999999965" lon="-1.4561099999999956">
        <ele>822.818</ele>
        <time>2022-08-24T14:23:12Z</time>
      </trkpt>
      <trkpt lat="42.95546999999996" lon="-1.4561359999999957">
        <ele>822.898</ele>
        <time>2022-08-24T14:23:13Z</time>
      </trkpt>
      <trkpt lat="42.95546999999996" lon="-1.4561669999999955">
        <ele>823.078</ele>
        <time>2022-08-24T14:23:14Z</time>
      </trkpt>
      <trkpt lat="42.95547299999996" lon="-1.4561979999999954">
        <ele>823.044</ele>
        <time>2022-08-24T14:23:15Z</time>
      </trkpt>
      <trkpt lat="42.95547099999996" lon="-1.4562279999999954">
        <ele>823.286</ele>
        <time>2022-08-24T14:23:16Z</time>
      </trkpt>
      <trkpt lat="42.95546799999996" lon="-1.4562599999999954">
        <ele>823.273</ele>
        <time>2022-08-24T14:23:17Z</time>
      </trkpt>
      <trkpt lat="42.955463999999964" lon="-1.4562949999999955">
        <ele>823.246</ele>
        <time>2022-08-24T14:23:18Z</time>
      </trkpt>
      <trkpt lat="42.955463999999964" lon="-1.4563279999999954">
        <ele>823.240</ele>
        <time>2022-08-24T14:23:19Z</time>
      </trkpt>
      <trkpt lat="42.95545899999996" lon="-1.4563629999999954">
        <ele>823.249</ele>
        <time>2022-08-24T14:23:20Z</time>
      </trkpt>
      <trkpt lat="42.95544599999996" lon="-1.4564079999999955">
        <ele>823.257</ele>
        <time>2022-08-24T14:23:21Z</time>
      </trkpt>
      <trkpt lat="42.95542799999996" lon="-1.4564409999999954">
        <ele>823.200</ele>
        <time>2022-08-24T14:23:22Z</time>
      </trkpt>
      <trkpt lat="42.95541799999996" lon="-1.4564809999999955">
        <ele>822.620</ele>
        <time>2022-08-24T14:23:23Z</time>
      </trkpt>
      <trkpt lat="42.95540699999996" lon="-1.4565279999999954">
        <ele>822.409</ele>
        <time>2022-08-24T14:23:24Z</time>
      </trkpt>
      <trkpt lat="42.95538799999996" lon="-1.4565959999999953">
        <ele>822.266</ele>
        <time>2022-08-24T14:23:26Z</time>
      </trkpt>
      <trkpt lat="42.95535699999996" lon="-1.4566769999999953">
        <ele>822.046</ele>
        <time>2022-08-24T14:23:28Z</time>
      </trkpt>
      <trkpt lat="42.95534699999995" lon="-1.4567059999999954">
        <ele>822.066</ele>
        <time>2022-08-24T14:23:29Z</time>
      </trkpt>
      <trkpt lat="42.95531899999995" lon="-1.4568009999999953">
        <ele>821.622</ele>
        <time>2022-08-24T14:23:31Z</time>
      </trkpt>
      <trkpt lat="42.95528099999995" lon="-1.4569449999999953">
        <ele>821.274</ele>
        <time>2022-08-24T14:23:33Z</time>
      </trkpt>
      <trkpt lat="42.95524899999995" lon="-1.4570039999999953">
        <ele>821.281</ele>
        <time>2022-08-24T14:23:34Z</time>
      </trkpt>
      <trkpt lat="42.95521899999995" lon="-1.4570519999999954">
        <ele>820.844</ele>
        <time>2022-08-24T14:23:35Z</time>
      </trkpt>
      <trkpt lat="42.95517899999995" lon="-1.4571019999999955">
        <ele>820.878</ele>
        <time>2022-08-24T14:23:36Z</time>
      </trkpt>
      <trkpt lat="42.955146999999954" lon="-1.4571369999999955">
        <ele>820.057</ele>
        <time>2022-08-24T14:23:37Z</time>
      </trkpt>
      <trkpt lat="42.95513399999995" lon="-1.4571679999999954">
        <ele>819.888</ele>
        <time>2022-08-24T14:23:38Z</time>
      </trkpt>
      <trkpt lat="42.955098999999954" lon="-1.4572019999999954">
        <ele>819.624</ele>
        <time>2022-08-24T14:23:39Z</time>
      </trkpt>
      <trkpt lat="42.954966999999954" lon="-1.4573029999999954">
        <ele>819.026</ele>
        <time>2022-08-24T14:23:42Z</time>
      </trkpt>
      <trkpt lat="42.954791999999955" lon="-1.4574609999999955">
        <ele>818.809</ele>
        <time>2022-08-24T14:23:45Z</time>
      </trkpt>
      <trkpt lat="42.95468399999996" lon="-1.4575969999999954">
        <ele>818.859</ele>
        <time>2022-08-24T14:23:48Z</time>
      </trkpt>
      <trkpt lat="42.95461099999996" lon="-1.4576639999999954">
        <ele>818.839</ele>
        <time>2022-08-24T14:23:50Z</time>
      </trkpt>
      <trkpt lat="42.95458799999996" lon="-1.4576999999999953">
        <ele>818.499</ele>
        <time>2022-08-24T14:23:51Z</time>
      </trkpt>
      <trkpt lat="42.95449499999996" lon="-1.4578309999999954">
        <ele>818.245</ele>
        <time>2022-08-24T14:23:54Z</time>
      </trkpt>
      <trkpt lat="42.95446299999996" lon="-1.4578799999999954">
        <ele>818.217</ele>
        <time>2022-08-24T14:23:55Z</time>
      </trkpt>
      <trkpt lat="42.95438999999996" lon="-1.4579729999999953">
        <ele>817.484</ele>
        <time>2022-08-24T14:23:57Z</time>
      </trkpt>
      <trkpt lat="42.95435599999996" lon="-1.4580189999999953">
        <ele>817.287</ele>
        <time>2022-08-24T14:23:58Z</time>
      </trkpt>
      <trkpt lat="42.95429199999996" lon="-1.4581289999999953">
        <ele>816.821</ele>
        <time>2022-08-24T14:24:00Z</time>
      </trkpt>
      <trkpt lat="42.95425599999996" lon="-1.4581809999999953">
        <ele>816.680</ele>
        <time>2022-08-24T14:24:01Z</time>
      </trkpt>
      <trkpt lat="42.95422199999996" lon="-1.4582259999999954">
        <ele>816.259</ele>
        <time>2022-08-24T14:24:02Z</time>
      </trkpt>
      <trkpt lat="42.95418599999996" lon="-1.4582719999999953">
        <ele>816.203</ele>
        <time>2022-08-24T14:24:03Z</time>
      </trkpt>
      <trkpt lat="42.95415999999996" lon="-1.4583149999999954">
        <ele>816.223</ele>
        <time>2022-08-24T14:24:04Z</time>
      </trkpt>
      <trkpt lat="42.954132999999956" lon="-1.4583519999999954">
        <ele>816.209</ele>
        <time>2022-08-24T14:24:05Z</time>
      </trkpt>
      <trkpt lat="42.954099999999954" lon="-1.4583859999999955">
        <ele>816.226</ele>
        <time>2022-08-24T14:24:06Z</time>
      </trkpt>
      <trkpt lat="42.95405899999995" lon="-1.4584169999999954">
        <ele>816.296</ele>
        <time>2022-08-24T14:24:07Z</time>
      </trkpt>
      <trkpt lat="42.95402999999995" lon="-1.4584459999999955">
        <ele>816.046</ele>
        <time>2022-08-24T14:24:08Z</time>
      </trkpt>
      <trkpt lat="42.95400299999995" lon="-1.4584709999999954">
        <ele>816.042</ele>
        <time>2022-08-24T14:24:09Z</time>
      </trkpt>
      <trkpt lat="42.95397399999995" lon="-1.4584889999999955">
        <ele>816.084</ele>
        <time>2022-08-24T14:24:10Z</time>
      </trkpt>
      <trkpt lat="42.953947999999954" lon="-1.4585109999999954">
        <ele>816.061</ele>
        <time>2022-08-24T14:24:11Z</time>
      </trkpt>
      <trkpt lat="42.95392099999995" lon="-1.4585389999999954">
        <ele>816.264</ele>
        <time>2022-08-24T14:24:12Z</time>
      </trkpt>
      <trkpt lat="42.95382499999995" lon="-1.4586119999999954">
        <ele>816.278</ele>
        <time>2022-08-24T14:24:15Z</time>
      </trkpt>
      <trkpt lat="42.95377699999995" lon="-1.4586599999999954">
        <ele>816.227</ele>
        <time>2022-08-24T14:24:16Z</time>
      </trkpt>
      <trkpt lat="42.953744999999955" lon="-1.4586879999999953">
        <ele>816.282</ele>
        <time>2022-08-24T14:24:17Z</time>
      </trkpt>
      <trkpt lat="42.95372999999996" lon="-1.4587199999999954">
        <ele>816.643</ele>
        <time>2022-08-24T14:24:18Z</time>
      </trkpt>
      <trkpt lat="42.95371899999996" lon="-1.4587549999999954">
        <ele>816.617</ele>
        <time>2022-08-24T14:24:19Z</time>
      </trkpt>
      <trkpt lat="42.95370399999996" lon="-1.4587939999999953">
        <ele>816.809</ele>
        <time>2022-08-24T14:24:20Z</time>
      </trkpt>
      <trkpt lat="42.95369899999996" lon="-1.4588219999999952">
        <ele>816.889</ele>
        <time>2022-08-24T14:24:21Z</time>
      </trkpt>
      <trkpt lat="42.95370199999996" lon="-1.4588549999999951">
        <ele>816.889</ele>
        <time>2022-08-24T14:24:22Z</time>
      </trkpt>
      <trkpt lat="42.95370099999996" lon="-1.4588819999999951">
        <ele>817.029</ele>
        <time>2022-08-24T14:24:23Z</time>
      </trkpt>
      <trkpt lat="42.95369299999996" lon="-1.4589379999999952">
        <ele>817.065</ele>
        <time>2022-08-24T14:24:24Z</time>
      </trkpt>
      <trkpt lat="42.953693999999956" lon="-1.4590219999999952">
        <ele>817.447</ele>
        <time>2022-08-24T14:24:25Z</time>
      </trkpt>
      <trkpt lat="42.953699999999955" lon="-1.4591289999999952">
        <ele>817.654</ele>
        <time>2022-08-24T14:24:27Z</time>
      </trkpt>
      <trkpt lat="42.953708999999954" lon="-1.4591709999999953">
        <ele>817.877</ele>
        <time>2022-08-24T14:24:28Z</time>
      </trkpt>
      <trkpt lat="42.95371299999995" lon="-1.4592209999999954">
        <ele>817.821</ele>
        <time>2022-08-24T14:24:29Z</time>
      </trkpt>
      <trkpt lat="42.95373599999995" lon="-1.4593759999999953">
        <ele>817.430</ele>
        <time>2022-08-24T14:24:31Z</time>
      </trkpt>
      <trkpt lat="42.95379599999995" lon="-1.4595909999999954">
        <ele>815.446</ele>
        <time>2022-08-24T14:24:34Z</time>
      </trkpt>
      <trkpt lat="42.95380699999995" lon="-1.4596669999999954">
        <ele>814.888</ele>
        <time>2022-08-24T14:24:35Z</time>
      </trkpt>
      <trkpt lat="42.95381699999995" lon="-1.4597409999999953">
        <ele>814.216</ele>
        <time>2022-08-24T14:24:36Z</time>
      </trkpt>
      <trkpt lat="42.95391399999995" lon="-1.4599149999999952">
        <ele>813.209</ele>
        <time>2022-08-24T14:24:39Z</time>
      </trkpt>
      <trkpt lat="42.953931999999945" lon="-1.4599839999999953">
        <ele>812.855</ele>
        <time>2022-08-24T14:24:40Z</time>
      </trkpt>
      <trkpt lat="42.95394399999994" lon="-1.4600559999999954">
        <ele>811.865</ele>
        <time>2022-08-24T14:24:41Z</time>
      </trkpt>
      <trkpt lat="42.953948999999945" lon="-1.4601209999999953">
        <ele>811.035</ele>
        <time>2022-08-24T14:24:42Z</time>
      </trkpt>
      <trkpt lat="42.95394999999994" lon="-1.4601889999999953">
        <ele>810.891</ele>
        <time>2022-08-24T14:24:43Z</time>
      </trkpt>
      <trkpt lat="42.953937999999944" lon="-1.4602559999999953">
        <ele>810.243</ele>
        <time>2022-08-24T14:24:44Z</time>
      </trkpt>
      <trkpt lat="42.953925999999946" lon="-1.4603019999999953">
        <ele>810.250</ele>
        <time>2022-08-24T14:24:45Z</time>
      </trkpt>
      <trkpt lat="42.95391599999994" lon="-1.4603419999999954">
        <ele>810.073</ele>
        <time>2022-08-24T14:24:46Z</time>
      </trkpt>
      <trkpt lat="42.95390799999994" lon="-1.4603879999999954">
        <ele>810.057</ele>
        <time>2022-08-24T14:24:47Z</time>
      </trkpt>
      <trkpt lat="42.95389899999994" lon="-1.4604399999999953">
        <ele>809.866</ele>
        <time>2022-08-24T14:24:48Z</time>
      </trkpt>
      <trkpt lat="42.95388899999994" lon="-1.4605009999999954">
        <ele>809.897</ele>
        <time>2022-08-24T14:24:49Z</time>
      </trkpt>
      <trkpt lat="42.95388399999994" lon="-1.4605709999999954">
        <ele>809.823</ele>
        <time>2022-08-24T14:24:50Z</time>
      </trkpt>
      <trkpt lat="42.953881999999936" lon="-1.4606319999999955">
        <ele>809.825</ele>
        <time>2022-08-24T14:24:51Z</time>
      </trkpt>
      <trkpt lat="42.953882999999934" lon="-1.4606879999999955">
        <ele>809.809</ele>
        <time>2022-08-24T14:24:52Z</time>
      </trkpt>
      <trkpt lat="42.95388699999993" lon="-1.4607339999999955">
        <ele>809.830</ele>
        <time>2022-08-24T14:24:53Z</time>
      </trkpt>
      <trkpt lat="42.95388999999993" lon="-1.4607669999999955">
        <ele>809.850</ele>
        <time>2022-08-24T14:24:54Z</time>
      </trkpt>
      <trkpt lat="42.95389099999993" lon="-1.4608079999999954">
        <ele>810.030</ele>
        <time>2022-08-24T14:24:55Z</time>
      </trkpt>
      <trkpt lat="42.95388999999993" lon="-1.4608319999999955">
        <ele>810.236</ele>
        <time>2022-08-24T14:24:56Z</time>
      </trkpt>
      <trkpt lat="42.95388899999993" lon="-1.4608589999999955">
        <ele>810.438</ele>
        <time>2022-08-24T14:24:57Z</time>
      </trkpt>
      <trkpt lat="42.95388899999993" lon="-1.4608809999999954">
        <ele>810.825</ele>
        <time>2022-08-24T14:24:58Z</time>
      </trkpt>
      <trkpt lat="42.953890999999935" lon="-1.4609029999999954">
        <ele>811.048</ele>
        <time>2022-08-24T14:24:59Z</time>
      </trkpt>
      <trkpt lat="42.95391799999994" lon="-1.4609909999999955">
        <ele>811.652</ele>
        <time>2022-08-24T14:25:02Z</time>
      </trkpt>
      <trkpt lat="42.953921999999935" lon="-1.4610229999999955">
        <ele>811.641</ele>
        <time>2022-08-24T14:25:03Z</time>
      </trkpt>
      <trkpt lat="42.95392099999994" lon="-1.4610489999999956">
        <ele>811.668</ele>
        <time>2022-08-24T14:25:04Z</time>
      </trkpt>
      <trkpt lat="42.95392099999994" lon="-1.4610799999999955">
        <ele>811.842</ele>
        <time>2022-08-24T14:25:05Z</time>
      </trkpt>
      <trkpt lat="42.953918999999935" lon="-1.4611509999999954">
        <ele>812.026</ele>
        <time>2022-08-24T14:25:07Z</time>
      </trkpt>
      <trkpt lat="42.95391499999994" lon="-1.4611769999999955">
        <ele>812.009</ele>
        <time>2022-08-24T14:25:08Z</time>
      </trkpt>
      <trkpt lat="42.953915999999936" lon="-1.4612109999999956">
        <ele>812.087</ele>
        <time>2022-08-24T14:25:09Z</time>
      </trkpt>
      <trkpt lat="42.95392099999994" lon="-1.4612649999999956">
        <ele>812.257</ele>
        <time>2022-08-24T14:25:11Z</time>
      </trkpt>
      <trkpt lat="42.95392899999994" lon="-1.4612949999999956">
        <ele>812.667</ele>
        <time>2022-08-24T14:25:12Z</time>
      </trkpt>
      <trkpt lat="42.95393199999994" lon="-1.4613289999999957">
        <ele>812.663</ele>
        <time>2022-08-24T14:25:13Z</time>
      </trkpt>
      <trkpt lat="42.95393699999994" lon="-1.4613639999999957">
        <ele>812.875</ele>
        <time>2022-08-24T14:25:14Z</time>
      </trkpt>
      <trkpt lat="42.95394199999994" lon="-1.4613949999999956">
        <ele>813.032</ele>
        <time>2022-08-24T14:25:15Z</time>
      </trkpt>
      <trkpt lat="42.95393599999994" lon="-1.4614509999999956">
        <ele>813.275</ele>
        <time>2022-08-24T14:25:17Z</time>
      </trkpt>
      <trkpt lat="42.95392599999994" lon="-1.4614709999999955">
        <ele>813.279</ele>
        <time>2022-08-24T14:25:18Z</time>
      </trkpt>
      <trkpt lat="42.95391699999994" lon="-1.4614919999999956">
        <ele>813.248</ele>
        <time>2022-08-24T14:25:19Z</time>
      </trkpt>
      <trkpt lat="42.95390799999994" lon="-1.4615109999999956">
        <ele>813.483</ele>
        <time>2022-08-24T14:25:20Z</time>
      </trkpt>
      <trkpt lat="42.953900999999945" lon="-1.4615319999999956">
        <ele>813.425</ele>
        <time>2022-08-24T14:25:21Z</time>
      </trkpt>
      <trkpt lat="42.95389199999995" lon="-1.4615539999999956">
        <ele>813.617</ele>
        <time>2022-08-24T14:25:22Z</time>
      </trkpt>
      <trkpt lat="42.95387699999995" lon="-1.4615899999999955">
        <ele>814.009</ele>
        <time>2022-08-24T14:25:24Z</time>
      </trkpt>
      <trkpt lat="42.95384199999995" lon="-1.4616979999999955">
        <ele>814.649</ele>
        <time>2022-08-24T14:25:28Z</time>
      </trkpt>
      <trkpt lat="42.95383299999995" lon="-1.4617289999999954">
        <ele>814.619</ele>
        <time>2022-08-24T14:25:29Z</time>
      </trkpt>
      <trkpt lat="42.953823999999955" lon="-1.4617599999999953">
        <ele>814.659</ele>
        <time>2022-08-24T14:25:30Z</time>
      </trkpt>
      <trkpt lat="42.953815999999954" lon="-1.4617919999999953">
        <ele>814.825</ele>
        <time>2022-08-24T14:25:31Z</time>
      </trkpt>
      <trkpt lat="42.95380599999995" lon="-1.4618259999999954">
        <ele>814.877</ele>
        <time>2022-08-24T14:25:32Z</time>
      </trkpt>
      <trkpt lat="42.95379799999995" lon="-1.4618589999999954">
        <ele>814.844</ele>
        <time>2022-08-24T14:25:33Z</time>
      </trkpt>
      <trkpt lat="42.95378999999995" lon="-1.4618889999999953">
        <ele>814.827</ele>
        <time>2022-08-24T14:25:34Z</time>
      </trkpt>
      <trkpt lat="42.95377799999995" lon="-1.4619229999999954">
        <ele>814.851</ele>
        <time>2022-08-24T14:25:35Z</time>
      </trkpt>
      <trkpt lat="42.95377299999995" lon="-1.4619529999999954">
        <ele>814.840</ele>
        <time>2022-08-24T14:25:36Z</time>
      </trkpt>
      <trkpt lat="42.95375099999995" lon="-1.4620999999999953">
        <ele>814.869</ele>
        <time>2022-08-24T14:25:40Z</time>
      </trkpt>
      <trkpt lat="42.953745999999946" lon="-1.4621379999999953">
        <ele>814.804</ele>
        <time>2022-08-24T14:25:41Z</time>
      </trkpt>
      <trkpt lat="42.95373599999994" lon="-1.4621719999999954">
        <ele>814.824</ele>
        <time>2022-08-24T14:25:42Z</time>
      </trkpt>
      <trkpt lat="42.953712999999944" lon="-1.4622459999999953">
        <ele>814.809</ele>
        <time>2022-08-24T14:25:44Z</time>
      </trkpt>
      <trkpt lat="42.95368599999994" lon="-1.4623559999999953">
        <ele>815.027</ele>
        <time>2022-08-24T14:25:47Z</time>
      </trkpt>
      <trkpt lat="42.95364099999994" lon="-1.4625009999999954">
        <ele>815.037</ele>
        <time>2022-08-24T14:25:51Z</time>
      </trkpt>
      <trkpt lat="42.95363599999994" lon="-1.4625309999999954">
        <ele>815.037</ele>
        <time>2022-08-24T14:25:52Z</time>
      </trkpt>
      <trkpt lat="42.95362999999994" lon="-1.4625659999999954">
        <ele>815.033</ele>
        <time>2022-08-24T14:25:53Z</time>
      </trkpt>
      <trkpt lat="42.95362499999994" lon="-1.4625999999999955">
        <ele>815.045</ele>
        <time>2022-08-24T14:25:54Z</time>
      </trkpt>
      <trkpt lat="42.95362199999994" lon="-1.4626309999999954">
        <ele>815.032</ele>
        <time>2022-08-24T14:25:55Z</time>
      </trkpt>
      <trkpt lat="42.95362099999994" lon="-1.4626579999999954">
        <ele>815.035</ele>
        <time>2022-08-24T14:25:56Z</time>
      </trkpt>
      <trkpt lat="42.95361899999994" lon="-1.4626869999999954">
        <ele>815.029</ele>
        <time>2022-08-24T14:25:57Z</time>
      </trkpt>
      <trkpt lat="42.95361399999994" lon="-1.4627149999999953">
        <ele>815.038</ele>
        <time>2022-08-24T14:25:58Z</time>
      </trkpt>
      <trkpt lat="42.95361099999994" lon="-1.4627359999999954">
        <ele>815.096</ele>
        <time>2022-08-24T14:25:59Z</time>
      </trkpt>
      <trkpt lat="42.95360799999994" lon="-1.4627599999999954">
        <ele>815.231</ele>
        <time>2022-08-24T14:26:00Z</time>
      </trkpt>
      <trkpt lat="42.95360299999994" lon="-1.4627879999999953">
        <ele>815.224</ele>
        <time>2022-08-24T14:26:01Z</time>
      </trkpt>
      <trkpt lat="42.953592999999934" lon="-1.4628109999999954">
        <ele>815.409</ele>
        <time>2022-08-24T14:26:02Z</time>
      </trkpt>
      <trkpt lat="42.95357399999993" lon="-1.4628499999999953">
        <ele>815.680</ele>
        <time>2022-08-24T14:26:04Z</time>
      </trkpt>
      <trkpt lat="42.95356299999993" lon="-1.4628659999999953">
        <ele>815.850</ele>
        <time>2022-08-24T14:26:05Z</time>
      </trkpt>
      <trkpt lat="42.95355399999993" lon="-1.4628869999999954">
        <ele>816.080</ele>
        <time>2022-08-24T14:26:06Z</time>
      </trkpt>
      <trkpt lat="42.953544999999934" lon="-1.4628999999999954">
        <ele>816.266</ele>
        <time>2022-08-24T14:26:07Z</time>
      </trkpt>
      <trkpt lat="42.95352999999994" lon="-1.4629169999999954">
        <ele>816.288</ele>
        <time>2022-08-24T14:26:08Z</time>
      </trkpt>
      <trkpt lat="42.95351999999993" lon="-1.4629319999999955">
        <ele>816.285</ele>
        <time>2022-08-24T14:26:09Z</time>
      </trkpt>
      <trkpt lat="42.95350599999993" lon="-1.4629609999999955">
        <ele>816.428</ele>
        <time>2022-08-24T14:26:11Z</time>
      </trkpt>
      <trkpt lat="42.95349299999993" lon="-1.4629789999999956">
        <ele>816.432</ele>
        <time>2022-08-24T14:26:12Z</time>
      </trkpt>
      <trkpt lat="42.95347099999993" lon="-1.4630029999999956">
        <ele>816.681</ele>
        <time>2022-08-24T14:26:14Z</time>
      </trkpt>
      <trkpt lat="42.95345699999993" lon="-1.4630389999999955">
        <ele>816.886</ele>
        <time>2022-08-24T14:26:16Z</time>
      </trkpt>
      <trkpt lat="42.953429999999926" lon="-1.4630719999999955">
        <ele>817.260</ele>
        <time>2022-08-24T14:26:19Z</time>
      </trkpt>
      <trkpt lat="42.95340899999993" lon="-1.4630999999999954">
        <ele>817.226</ele>
        <time>2022-08-24T14:26:20Z</time>
      </trkpt>
      <trkpt lat="42.95335299999993" lon="-1.4631689999999955">
        <ele>817.609</ele>
        <time>2022-08-24T14:26:24Z</time>
      </trkpt>
      <trkpt lat="42.95331299999993" lon="-1.4632089999999955">
        <ele>818.049</ele>
        <time>2022-08-24T14:26:27Z</time>
      </trkpt>
      <trkpt lat="42.95322699999993" lon="-1.4633399999999956">
        <ele>818.089</ele>
        <time>2022-08-24T14:26:32Z</time>
      </trkpt>
      <trkpt lat="42.95320599999993" lon="-1.4633679999999956">
        <ele>818.079</ele>
        <time>2022-08-24T14:26:33Z</time>
      </trkpt>
      <trkpt lat="42.95317199999993" lon="-1.4634129999999956">
        <ele>817.865</ele>
        <time>2022-08-24T14:26:35Z</time>
      </trkpt>
      <trkpt lat="42.95315499999993" lon="-1.4634309999999957">
        <ele>817.637</ele>
        <time>2022-08-24T14:26:36Z</time>
      </trkpt>
      <trkpt lat="42.95305399999993" lon="-1.4635119999999957">
        <ele>817.064</ele>
        <time>2022-08-24T14:26:40Z</time>
      </trkpt>
      <trkpt lat="42.95305399999993" lon="-1.4635119999999957">
        <ele>816.617</ele>
        <time>2022-08-24T14:26:41Z</time>
      </trkpt>
      <trkpt lat="42.95301299999993" lon="-1.4635559999999956">
        <ele>816.411</ele>
        <time>2022-08-24T14:26:42Z</time>
      </trkpt>
      <trkpt lat="42.95299499999993" lon="-1.4635849999999957">
        <ele>816.040</ele>
        <time>2022-08-24T14:26:43Z</time>
      </trkpt>
      <trkpt lat="42.95297199999993" lon="-1.4636109999999958">
        <ele>815.658</ele>
        <time>2022-08-24T14:26:44Z</time>
      </trkpt>
      <trkpt lat="42.95295799999993" lon="-1.4636259999999959">
        <ele>815.052</ele>
        <time>2022-08-24T14:26:45Z</time>
      </trkpt>
      <trkpt lat="42.952942999999934" lon="-1.463638999999996">
        <ele>814.817</ele>
        <time>2022-08-24T14:26:46Z</time>
      </trkpt>
      <trkpt lat="42.95292999999993" lon="-1.4636529999999959">
        <ele>814.609</ele>
        <time>2022-08-24T14:26:47Z</time>
      </trkpt>
      <trkpt lat="42.95288499999993" lon="-1.463732999999996">
        <ele>814.416</ele>
        <time>2022-08-24T14:26:50Z</time>
      </trkpt>
      <trkpt lat="42.95286999999993" lon="-1.4637529999999959">
        <ele>814.256</ele>
        <time>2022-08-24T14:26:51Z</time>
      </trkpt>
      <trkpt lat="42.952823999999936" lon="-1.4637969999999958">
        <ele>813.476</ele>
        <time>2022-08-24T14:26:53Z</time>
      </trkpt>
      <trkpt lat="42.95280099999994" lon="-1.4638359999999957">
        <ele>813.042</ele>
        <time>2022-08-24T14:26:54Z</time>
      </trkpt>
      <trkpt lat="42.95274899999994" lon="-1.4639219999999957">
        <ele>812.414</ele>
        <time>2022-08-24T14:26:56Z</time>
      </trkpt>
      <trkpt lat="42.95272599999994" lon="-1.4639509999999958">
        <ele>812.231</ele>
        <time>2022-08-24T14:26:57Z</time>
      </trkpt>
      <trkpt lat="42.952693999999944" lon="-1.4640059999999957">
        <ele>812.244</ele>
        <time>2022-08-24T14:26:58Z</time>
      </trkpt>
      <trkpt lat="42.95264699999994" lon="-1.4640879999999956">
        <ele>812.088</ele>
        <time>2022-08-24T14:27:00Z</time>
      </trkpt>
      <trkpt lat="42.95261899999994" lon="-1.4641249999999957">
        <ele>811.827</ele>
        <time>2022-08-24T14:27:01Z</time>
      </trkpt>
      <trkpt lat="42.952482999999944" lon="-1.4643539999999957">
        <ele>811.845</ele>
        <time>2022-08-24T14:27:06Z</time>
      </trkpt>
      <trkpt lat="42.95246199999995" lon="-1.4643929999999956">
        <ele>812.047</ele>
        <time>2022-08-24T14:27:07Z</time>
      </trkpt>
      <trkpt lat="42.952439999999946" lon="-1.4644169999999956">
        <ele>812.011</ele>
        <time>2022-08-24T14:27:08Z</time>
      </trkpt>
      <trkpt lat="42.95240499999995" lon="-1.4644499999999956">
        <ele>812.009</ele>
        <time>2022-08-24T14:27:09Z</time>
      </trkpt>
      <trkpt lat="42.95236599999995" lon="-1.4644769999999956">
        <ele>812.245</ele>
        <time>2022-08-24T14:27:10Z</time>
      </trkpt>
      <trkpt lat="42.952293999999945" lon="-1.4645419999999956">
        <ele>812.265</ele>
        <time>2022-08-24T14:27:12Z</time>
      </trkpt>
      <trkpt lat="42.952211999999946" lon="-1.4646459999999957">
        <ele>812.485</ele>
        <time>2022-08-24T14:27:15Z</time>
      </trkpt>
      <trkpt lat="42.952166999999946" lon="-1.4646719999999958">
        <ele>812.451</ele>
        <time>2022-08-24T14:27:16Z</time>
      </trkpt>
      <trkpt lat="42.952076999999946" lon="-1.4647199999999958">
        <ele>812.483</ele>
        <time>2022-08-24T14:27:18Z</time>
      </trkpt>
      <trkpt lat="42.952037999999945" lon="-1.4647379999999959">
        <ele>812.210</ele>
        <time>2022-08-24T14:27:19Z</time>
      </trkpt>
      <trkpt lat="42.95200299999995" lon="-1.4647579999999958">
        <ele>812.083</ele>
        <time>2022-08-24T14:27:20Z</time>
      </trkpt>
      <trkpt lat="42.95196799999995" lon="-1.4647769999999958">
        <ele>812.017</ele>
        <time>2022-08-24T14:27:21Z</time>
      </trkpt>
      <trkpt lat="42.95185099999995" lon="-1.4648419999999958">
        <ele>811.476</ele>
        <time>2022-08-24T14:27:24Z</time>
      </trkpt>
      <trkpt lat="42.95176099999995" lon="-1.4648769999999958">
        <ele>811.082</ele>
        <time>2022-08-24T14:27:26Z</time>
      </trkpt>
      <trkpt lat="42.95171599999995" lon="-1.4648839999999959">
        <ele>810.843</ele>
        <time>2022-08-24T14:27:27Z</time>
      </trkpt>
      <trkpt lat="42.951674999999945" lon="-1.4648949999999958">
        <ele>810.617</ele>
        <time>2022-08-24T14:27:28Z</time>
      </trkpt>
      <trkpt lat="42.951629999999945" lon="-1.4649199999999958">
        <ele>810.609</ele>
        <time>2022-08-24T14:27:29Z</time>
      </trkpt>
      <trkpt lat="42.95160099999995" lon="-1.4649439999999958">
        <ele>810.669</ele>
        <time>2022-08-24T14:27:30Z</time>
      </trkpt>
      <trkpt lat="42.95156699999995" lon="-1.4649719999999957">
        <ele>810.859</ele>
        <time>2022-08-24T14:27:31Z</time>
      </trkpt>
      <trkpt lat="42.951533999999945" lon="-1.4650039999999958">
        <ele>810.839</ele>
        <time>2022-08-24T14:27:32Z</time>
      </trkpt>
      <trkpt lat="42.95150699999994" lon="-1.4650279999999958">
        <ele>810.885</ele>
        <time>2022-08-24T14:27:33Z</time>
      </trkpt>
      <trkpt lat="42.951474999999945" lon="-1.4650439999999958">
        <ele>810.867</ele>
        <time>2022-08-24T14:27:34Z</time>
      </trkpt>
      <trkpt lat="42.95146199999994" lon="-1.4650549999999958">
        <ele>810.624</ele>
        <time>2022-08-24T14:27:35Z</time>
      </trkpt>
      <trkpt lat="42.95143499999994" lon="-1.4650709999999958">
        <ele>810.677</ele>
        <time>2022-08-24T14:27:36Z</time>
      </trkpt>
      <trkpt lat="42.95140199999994" lon="-1.4650909999999957">
        <ele>810.641</ele>
        <time>2022-08-24T14:27:37Z</time>
      </trkpt>
      <trkpt lat="42.95137899999994" lon="-1.4650979999999958">
        <ele>810.820</ele>
        <time>2022-08-24T14:27:38Z</time>
      </trkpt>
      <trkpt lat="42.95135999999994" lon="-1.4650969999999959">
        <ele>811.047</ele>
        <time>2022-08-24T14:27:39Z</time>
      </trkpt>
      <trkpt lat="42.95135399999994" lon="-1.4650969999999959">
        <ele>811.229</ele>
        <time>2022-08-24T14:27:40Z</time>
      </trkpt>
      <trkpt lat="42.95135399999994" lon="-1.4650969999999959">
        <ele>811.221</ele>
        <time>2022-08-24T14:27:41Z</time>
      </trkpt>
      <trkpt lat="42.95133299999994" lon="-1.4651009999999958">
        <ele>811.409</ele>
        <time>2022-08-24T14:27:42Z</time>
      </trkpt>
      <trkpt lat="42.951286999999944" lon="-1.4651019999999957">
        <ele>811.475</ele>
        <time>2022-08-24T14:27:43Z</time>
      </trkpt>
      <trkpt lat="42.951260999999946" lon="-1.4650989999999957">
        <ele>811.675</ele>
        <time>2022-08-24T14:27:44Z</time>
      </trkpt>
      <trkpt lat="42.95122899999995" lon="-1.4650949999999958">
        <ele>811.655</ele>
        <time>2022-08-24T14:27:45Z</time>
      </trkpt>
      <trkpt lat="42.95119799999995" lon="-1.4650879999999957">
        <ele>811.841</ele>
        <time>2022-08-24T14:27:46Z</time>
      </trkpt>
      <trkpt lat="42.951159999999945" lon="-1.4650839999999958">
        <ele>812.013</ele>
        <time>2022-08-24T14:27:47Z</time>
      </trkpt>
      <trkpt lat="42.95113799999994" lon="-1.4650849999999958">
        <ele>812.030</ele>
        <time>2022-08-24T14:27:48Z</time>
      </trkpt>
      <trkpt lat="42.951097999999945" lon="-1.4650829999999957">
        <ele>812.243</ele>
        <time>2022-08-24T14:27:50Z</time>
      </trkpt>
      <trkpt lat="42.951083999999945" lon="-1.4650779999999957">
        <ele>812.237</ele>
        <time>2022-08-24T14:27:51Z</time>
      </trkpt>
      <trkpt lat="42.951074999999946" lon="-1.4650649999999956">
        <ele>812.466</ele>
        <time>2022-08-24T14:27:52Z</time>
      </trkpt>
      <trkpt lat="42.951058999999944" lon="-1.4650569999999956">
        <ele>812.464</ele>
        <time>2022-08-24T14:27:53Z</time>
      </trkpt>
      <trkpt lat="42.95104299999994" lon="-1.4650369999999957">
        <ele>812.806</ele>
        <time>2022-08-24T14:27:54Z</time>
      </trkpt>
      <trkpt lat="42.95104099999994" lon="-1.4650339999999957">
        <ele>813.016</ele>
        <time>2022-08-24T14:27:55Z</time>
      </trkpt>
      <trkpt lat="42.95102999999994" lon="-1.4650219999999958">
        <ele>813.209</ele>
        <time>2022-08-24T14:27:56Z</time>
      </trkpt>
      <trkpt lat="42.95101299999994" lon="-1.465017999999996">
        <ele>813.217</ele>
        <time>2022-08-24T14:27:57Z</time>
      </trkpt>
      <trkpt lat="42.95100399999994" lon="-1.465017999999996">
        <ele>813.417</ele>
        <time>2022-08-24T14:27:58Z</time>
      </trkpt>
      <trkpt lat="42.95100199999994" lon="-1.4650159999999959">
        <ele>813.647</ele>
        <time>2022-08-24T14:27:59Z</time>
      </trkpt>
      <trkpt lat="42.950960999999936" lon="-1.465020999999996">
        <ele>813.863</ele>
        <time>2022-08-24T14:28:00Z</time>
      </trkpt>
      <trkpt lat="42.95095699999994" lon="-1.465020999999996">
        <ele>814.085</ele>
        <time>2022-08-24T14:28:01Z</time>
      </trkpt>
      <trkpt lat="42.95094599999994" lon="-1.4650109999999958">
        <ele>814.252</ele>
        <time>2022-08-24T14:28:02Z</time>
      </trkpt>
      <trkpt lat="42.950929999999936" lon="-1.4649979999999958">
        <ele>814.225</ele>
        <time>2022-08-24T14:28:03Z</time>
      </trkpt>
      <trkpt lat="42.95090299999993" lon="-1.4649849999999958">
        <ele>814.829</ele>
        <time>2022-08-24T14:28:04Z</time>
      </trkpt>
      <trkpt lat="42.95088699999993" lon="-1.4649839999999958">
        <ele>814.888</ele>
        <time>2022-08-24T14:28:05Z</time>
      </trkpt>
      <trkpt lat="42.95088399999993" lon="-1.464963999999996">
        <ele>815.258</ele>
        <time>2022-08-24T14:28:06Z</time>
      </trkpt>
      <trkpt lat="42.95087299999993" lon="-1.4649489999999958">
        <ele>815.052</ele>
        <time>2022-08-24T14:28:07Z</time>
      </trkpt>
      <trkpt lat="42.95086999999993" lon="-1.4649469999999958">
        <ele>815.217</ele>
        <time>2022-08-24T14:28:08Z</time>
      </trkpt>
      <trkpt lat="42.95086999999993" lon="-1.4649469999999958">
        <ele>815.409</ele>
        <time>2022-08-24T14:28:09Z</time>
      </trkpt>
      <trkpt lat="42.95086999999993" lon="-1.4649459999999959">
        <ele>816.296</ele>
        <time>2022-08-24T14:28:24Z</time>
      </trkpt>
      <trkpt lat="42.95086999999993" lon="-1.4649459999999959">
        <ele>816.236</ele>
        <time>2022-08-24T14:28:25Z</time>
      </trkpt>
      <trkpt lat="42.95086899999993" lon="-1.464944999999996">
        <ele>816.226</ele>
        <time>2022-08-24T14:28:26Z</time>
      </trkpt>
      <trkpt lat="42.95086899999993" lon="-1.464944999999996">
        <ele>816.422</ele>
        <time>2022-08-24T14:28:27Z</time>
      </trkpt>
      <trkpt lat="42.95086899999993" lon="-1.464944999999996">
        <ele>816.454</ele>
        <time>2022-08-24T14:28:28Z</time>
      </trkpt>
      <trkpt lat="42.95086899999993" lon="-1.464944999999996">
        <ele>816.491</ele>
        <time>2022-08-24T14:28:29Z</time>
      </trkpt>
      <trkpt lat="42.95086899999993" lon="-1.464944999999996">
        <ele>816.444</ele>
        <time>2022-08-24T14:28:31Z</time>
      </trkpt>
      <trkpt lat="42.95086899999993" lon="-1.464944999999996">
        <ele>816.848</ele>
        <time>2022-08-24T14:28:32Z</time>
      </trkpt>
      <trkpt lat="42.950865999999934" lon="-1.464940999999996">
        <ele>816.687</ele>
        <time>2022-08-24T14:28:33Z</time>
      </trkpt>
      <trkpt lat="42.950865999999934" lon="-1.464940999999996">
        <ele>817.038</ele>
        <time>2022-08-24T14:28:39Z</time>
      </trkpt>
      <trkpt lat="42.95086399999993" lon="-1.464937999999996">
        <ele>817.070</ele>
        <time>2022-08-24T14:28:40Z</time>
      </trkpt>
      <trkpt lat="42.95086099999993" lon="-1.464932999999996">
        <ele>817.217</ele>
        <time>2022-08-24T14:28:42Z</time>
      </trkpt>
      <trkpt lat="42.95086099999993" lon="-1.464932999999996">
        <ele>817.609</ele>
        <time>2022-08-24T14:28:47Z</time>
      </trkpt>
      <trkpt lat="42.950839999999936" lon="-1.464905999999996">
        <ele>817.634</ele>
        <time>2022-08-24T14:28:48Z</time>
      </trkpt>
      <trkpt lat="42.95083899999994" lon="-1.4649049999999961">
        <ele>817.854</ele>
        <time>2022-08-24T14:28:49Z</time>
      </trkpt>
      <trkpt lat="42.95083499999994" lon="-1.464899999999996">
        <ele>817.824</ele>
        <time>2022-08-24T14:28:50Z</time>
      </trkpt>
      <trkpt lat="42.950833999999944" lon="-1.4648859999999961">
        <ele>817.820</ele>
        <time>2022-08-24T14:28:51Z</time>
      </trkpt>
      <trkpt lat="42.950833999999944" lon="-1.4648859999999961">
        <ele>818.082</ele>
        <time>2022-08-24T14:28:53Z</time>
      </trkpt>
      <trkpt lat="42.950833999999944" lon="-1.4648859999999961">
        <ele>818.079</ele>
        <time>2022-08-24T14:28:54Z</time>
      </trkpt>
      <trkpt lat="42.950824999999945" lon="-1.4648779999999961">
        <ele>818.462</ele>
        <time>2022-08-24T14:28:58Z</time>
      </trkpt>
      <trkpt lat="42.95080999999995" lon="-1.464854999999996">
        <ele>818.436</ele>
        <time>2022-08-24T14:28:59Z</time>
      </trkpt>
      <trkpt lat="42.950801999999946" lon="-1.464841999999996">
        <ele>818.475</ele>
        <time>2022-08-24T14:29:00Z</time>
      </trkpt>
      <trkpt lat="42.95079299999995" lon="-1.464833999999996">
        <ele>818.648</ele>
        <time>2022-08-24T14:29:01Z</time>
      </trkpt>
      <trkpt lat="42.95078399999995" lon="-1.464825999999996">
        <ele>818.661</ele>
        <time>2022-08-24T14:29:02Z</time>
      </trkpt>
      <trkpt lat="42.95077599999995" lon="-1.464816999999996">
        <ele>818.817</ele>
        <time>2022-08-24T14:29:03Z</time>
      </trkpt>
      <trkpt lat="42.95076699999995" lon="-1.464808999999996">
        <ele>818.809</ele>
        <time>2022-08-24T14:29:04Z</time>
      </trkpt>
      <trkpt lat="42.95075799999995" lon="-1.464800999999996">
        <ele>819.075</ele>
        <time>2022-08-24T14:29:05Z</time>
      </trkpt>
      <trkpt lat="42.95074899999995" lon="-1.464792999999996">
        <ele>819.075</ele>
        <time>2022-08-24T14:29:06Z</time>
      </trkpt>
      <trkpt lat="42.95074099999995" lon="-1.464784999999996">
        <ele>819.075</ele>
        <time>2022-08-24T14:29:07Z</time>
      </trkpt>
      <trkpt lat="42.95074099999995" lon="-1.464784999999996">
        <ele>819.281</ele>
        <time>2022-08-24T14:29:08Z</time>
      </trkpt>
      <trkpt lat="42.95074099999995" lon="-1.464784999999996">
        <ele>819.223</ele>
        <time>2022-08-24T14:29:09Z</time>
      </trkpt>
      <trkpt lat="42.95071199999995" lon="-1.464751999999996">
        <ele>819.640</ele>
        <time>2022-08-24T14:29:12Z</time>
      </trkpt>
      <trkpt lat="42.95071199999995" lon="-1.464751999999996">
        <ele>819.893</ele>
        <time>2022-08-24T14:29:13Z</time>
      </trkpt>
      <trkpt lat="42.95071199999995" lon="-1.464751999999996">
        <ele>819.877</ele>
        <time>2022-08-24T14:29:14Z</time>
      </trkpt>
      <trkpt lat="42.95071199999995" lon="-1.464751999999996">
        <ele>820.046</ele>
        <time>2022-08-24T14:29:15Z</time>
      </trkpt>
      <trkpt lat="42.95071199999995" lon="-1.464751999999996">
        <ele>820.089</ele>
        <time>2022-08-24T14:29:16Z</time>
      </trkpt>
      <trkpt lat="42.950710999999956" lon="-1.464749999999996">
        <ele>820.206</ele>
        <time>2022-08-24T14:29:17Z</time>
      </trkpt>
      <trkpt lat="42.950710999999956" lon="-1.464749999999996">
        <ele>820.426</ele>
        <time>2022-08-24T14:29:18Z</time>
      </trkpt>
      <trkpt lat="42.950710999999956" lon="-1.464749999999996">
        <ele>820.609</ele>
        <time>2022-08-24T14:29:23Z</time>
      </trkpt>
      <trkpt lat="42.950707999999956" lon="-1.464746999999996">
        <ele>820.889</ele>
        <time>2022-08-24T14:29:27Z</time>
      </trkpt>
      <trkpt lat="42.950707999999956" lon="-1.464746999999996">
        <ele>821.079</ele>
        <time>2022-08-24T14:29:29Z</time>
      </trkpt>
      <trkpt lat="42.95070199999996" lon="-1.464739999999996">
        <ele>821.289</ele>
        <time>2022-08-24T14:29:32Z</time>
      </trkpt>
      <trkpt lat="42.95070199999996" lon="-1.464739999999996">
        <ele>821.815</ele>
        <time>2022-08-24T14:29:38Z</time>
      </trkpt>
      <trkpt lat="42.950679999999956" lon="-1.464715999999996">
        <ele>822.037</ele>
        <time>2022-08-24T14:29:40Z</time>
      </trkpt>
      <trkpt lat="42.950668999999955" lon="-1.464714999999996">
        <ele>822.024</ele>
        <time>2022-08-24T14:29:41Z</time>
      </trkpt>
      <trkpt lat="42.950665999999956" lon="-1.464713999999996">
        <ele>822.227</ele>
        <time>2022-08-24T14:29:42Z</time>
      </trkpt>
      <trkpt lat="42.95064199999995" lon="-1.464670999999996">
        <ele>822.841</ele>
        <time>2022-08-24T14:29:56Z</time>
      </trkpt>
      <trkpt lat="42.950634999999956" lon="-1.464660999999996">
        <ele>822.830</ele>
        <time>2022-08-24T14:29:57Z</time>
      </trkpt>
      <trkpt lat="42.95062899999996" lon="-1.464649999999996">
        <ele>823.274</ele>
        <time>2022-08-24T14:29:58Z</time>
      </trkpt>
      <trkpt lat="42.95058899999996" lon="-1.464612999999996">
        <ele>823.256</ele>
        <time>2022-08-24T14:29:59Z</time>
      </trkpt>
      <trkpt lat="42.95057999999996" lon="-1.4645979999999958">
        <ele>823.421</ele>
        <time>2022-08-24T14:30:00Z</time>
      </trkpt>
      <trkpt lat="42.95056299999996" lon="-1.4645659999999958">
        <ele>823.609</ele>
        <time>2022-08-24T14:30:01Z</time>
      </trkpt>
      <trkpt lat="42.95053299999996" lon="-1.4645399999999957">
        <ele>823.828</ele>
        <time>2022-08-24T14:30:02Z</time>
      </trkpt>
      <trkpt lat="42.950516999999955" lon="-1.4645069999999958">
        <ele>823.888</ele>
        <time>2022-08-24T14:30:04Z</time>
      </trkpt>
      <trkpt lat="42.950496999999956" lon="-1.4644929999999958">
        <ele>824.028</ele>
        <time>2022-08-24T14:30:05Z</time>
      </trkpt>
      <trkpt lat="42.95049599999996" lon="-1.4644909999999958">
        <ele>824.034</ele>
        <time>2022-08-24T14:30:06Z</time>
      </trkpt>
      <trkpt lat="42.95049599999996" lon="-1.4644909999999958">
        <ele>824.016</ele>
        <time>2022-08-24T14:30:08Z</time>
      </trkpt>
      <trkpt lat="42.95049599999996" lon="-1.4644909999999958">
        <ele>824.223</ele>
        <time>2022-08-24T14:30:09Z</time>
      </trkpt>
      <trkpt lat="42.95041699999996" lon="-1.4643699999999957">
        <ele>824.866</ele>
        <time>2022-08-24T14:30:18Z</time>
      </trkpt>
      <trkpt lat="42.95041399999996" lon="-1.4643659999999958">
        <ele>824.860</ele>
        <time>2022-08-24T14:30:19Z</time>
      </trkpt>
      <trkpt lat="42.95041399999996" lon="-1.4643659999999958">
        <ele>825.259</ele>
        <time>2022-08-24T14:30:23Z</time>
      </trkpt>
      <trkpt lat="42.95037699999996" lon="-1.4642799999999958">
        <ele>825.634</ele>
        <time>2022-08-24T14:30:27Z</time>
      </trkpt>
      <trkpt lat="42.95036499999996" lon="-1.4642289999999958">
        <ele>825.655</ele>
        <time>2022-08-24T14:30:29Z</time>
      </trkpt>
      <trkpt lat="42.950352999999964" lon="-1.464197999999996">
        <ele>825.810</ele>
        <time>2022-08-24T14:30:31Z</time>
      </trkpt>
      <trkpt lat="42.950352999999964" lon="-1.464197999999996">
        <ele>825.809</ele>
        <time>2022-08-24T14:30:32Z</time>
      </trkpt>
      <trkpt lat="42.950352999999964" lon="-1.464197999999996">
        <ele>826.084</ele>
        <time>2022-08-24T14:30:33Z</time>
      </trkpt>
      <trkpt lat="42.950352999999964" lon="-1.464197999999996">
        <ele>826.054</ele>
        <time>2022-08-24T14:30:34Z</time>
      </trkpt>
      <trkpt lat="42.950352999999964" lon="-1.464197999999996">
        <ele>826.034</ele>
        <time>2022-08-24T14:30:35Z</time>
      </trkpt>
      <trkpt lat="42.95034899999997" lon="-1.464169999999996">
        <ele>826.240</ele>
        <time>2022-08-24T14:30:36Z</time>
      </trkpt>
      <trkpt lat="42.950346999999965" lon="-1.464147999999996">
        <ele>826.242</ele>
        <time>2022-08-24T14:30:37Z</time>
      </trkpt>
      <trkpt lat="42.950346999999965" lon="-1.464144999999996">
        <ele>826.249</ele>
        <time>2022-08-24T14:30:38Z</time>
      </trkpt>
      <trkpt lat="42.950346999999965" lon="-1.464144999999996">
        <ele>826.422</ele>
        <time>2022-08-24T14:30:39Z</time>
      </trkpt>
      <trkpt lat="42.950341999999964" lon="-1.464119999999996">
        <ele>826.426</ele>
        <time>2022-08-24T14:30:41Z</time>
      </trkpt>
      <trkpt lat="42.950318999999965" lon="-1.4641079999999962">
        <ele>826.445</ele>
        <time>2022-08-24T14:30:42Z</time>
      </trkpt>
      <trkpt lat="42.95031799999997" lon="-1.4641059999999961">
        <ele>826.465</ele>
        <time>2022-08-24T14:30:43Z</time>
      </trkpt>
      <trkpt lat="42.950318999999965" lon="-1.4640919999999962">
        <ele>826.668</ele>
        <time>2022-08-24T14:30:44Z</time>
      </trkpt>
      <trkpt lat="42.95030299999996" lon="-1.4640559999999962">
        <ele>826.614</ele>
        <time>2022-08-24T14:30:47Z</time>
      </trkpt>
      <trkpt lat="42.95030299999996" lon="-1.4640369999999963">
        <ele>826.809</ele>
        <time>2022-08-24T14:30:48Z</time>
      </trkpt>
      <trkpt lat="42.950301999999965" lon="-1.4640329999999964">
        <ele>826.837</ele>
        <time>2022-08-24T14:30:49Z</time>
      </trkpt>
      <trkpt lat="42.950293999999964" lon="-1.4640239999999964">
        <ele>826.867</ele>
        <time>2022-08-24T14:30:50Z</time>
      </trkpt>
      <trkpt lat="42.95027599999997" lon="-1.4640119999999965">
        <ele>826.867</ele>
        <time>2022-08-24T14:30:51Z</time>
      </trkpt>
      <trkpt lat="42.95025899999997" lon="-1.4639879999999965">
        <ele>827.093</ele>
        <time>2022-08-24T14:30:52Z</time>
      </trkpt>
      <trkpt lat="42.950250999999966" lon="-1.4639669999999965">
        <ele>827.015</ele>
        <time>2022-08-24T14:30:53Z</time>
      </trkpt>
      <trkpt lat="42.950253999999966" lon="-1.4639559999999965">
        <ele>827.092</ele>
        <time>2022-08-24T14:30:54Z</time>
      </trkpt>
      <trkpt lat="42.95024399999996" lon="-1.4639399999999965">
        <ele>827.225</ele>
        <time>2022-08-24T14:30:59Z</time>
      </trkpt>
      <trkpt lat="42.95024099999996" lon="-1.4639319999999965">
        <ele>827.289</ele>
        <time>2022-08-24T14:31:00Z</time>
      </trkpt>
      <trkpt lat="42.950239999999965" lon="-1.4639279999999966">
        <ele>827.488</ele>
        <time>2022-08-24T14:31:01Z</time>
      </trkpt>
      <trkpt lat="42.95023099999997" lon="-1.4638739999999966">
        <ele>827.861</ele>
        <time>2022-08-24T14:31:05Z</time>
      </trkpt>
      <trkpt lat="42.950231999999964" lon="-1.4638609999999965">
        <ele>827.821</ele>
        <time>2022-08-24T14:31:06Z</time>
      </trkpt>
      <trkpt lat="42.950231999999964" lon="-1.4638539999999964">
        <ele>828.013</ele>
        <time>2022-08-24T14:31:07Z</time>
      </trkpt>
      <trkpt lat="42.950233999999966" lon="-1.4638429999999965">
        <ele>828.009</ele>
        <time>2022-08-24T14:31:08Z</time>
      </trkpt>
      <trkpt lat="42.95023599999997" lon="-1.4638399999999965">
        <ele>828.277</ele>
        <time>2022-08-24T14:31:09Z</time>
      </trkpt>
      <trkpt lat="42.95023599999997" lon="-1.4638399999999965">
        <ele>828.257</ele>
        <time>2022-08-24T14:31:10Z</time>
      </trkpt>
      <trkpt lat="42.95022099999997" lon="-1.4638339999999965">
        <ele>828.417</ele>
        <time>2022-08-24T14:31:11Z</time>
      </trkpt>
      <trkpt lat="42.95021999999997" lon="-1.4638309999999966">
        <ele>828.463</ele>
        <time>2022-08-24T14:31:12Z</time>
      </trkpt>
      <trkpt lat="42.95021999999997" lon="-1.4638309999999966">
        <ele>828.425</ele>
        <time>2022-08-24T14:31:13Z</time>
      </trkpt>
      <trkpt lat="42.950218999999976" lon="-1.4638269999999967">
        <ele>828.662</ele>
        <time>2022-08-24T14:31:14Z</time>
      </trkpt>
      <trkpt lat="42.95021799999998" lon="-1.4638239999999967">
        <ele>828.645</ele>
        <time>2022-08-24T14:31:15Z</time>
      </trkpt>
      <trkpt lat="42.95021499999998" lon="-1.4638159999999967">
        <ele>828.889</ele>
        <time>2022-08-24T14:31:17Z</time>
      </trkpt>
      <trkpt lat="42.95021399999998" lon="-1.4638059999999966">
        <ele>828.868</ele>
        <time>2022-08-24T14:31:18Z</time>
      </trkpt>
      <trkpt lat="42.95021499999998" lon="-1.4638019999999967">
        <ele>828.857</ele>
        <time>2022-08-24T14:31:19Z</time>
      </trkpt>
      <trkpt lat="42.95021499999998" lon="-1.4638019999999967">
        <ele>829.000</ele>
        <time>2022-08-24T14:31:20Z</time>
      </trkpt>
      <trkpt lat="42.95021499999998" lon="-1.4638019999999967">
        <ele>829.420</ele>
        <time>2022-08-24T14:31:25Z</time>
      </trkpt>
      <trkpt lat="42.95021499999998" lon="-1.4638019999999967">
        <ele>829.809</ele>
        <time>2022-08-24T14:31:29Z</time>
      </trkpt>
      <trkpt lat="42.95021499999998" lon="-1.4638019999999967">
        <ele>829.836</ele>
        <time>2022-08-24T14:31:30Z</time>
      </trkpt>
      <trkpt lat="42.95021399999998" lon="-1.4637939999999967">
        <ele>830.446</ele>
        <time>2022-08-24T14:31:36Z</time>
      </trkpt>
      <trkpt lat="42.95021399999998" lon="-1.4637789999999966">
        <ele>830.686</ele>
        <time>2022-08-24T14:31:37Z</time>
      </trkpt>
      <trkpt lat="42.95021399999998" lon="-1.4637789999999966">
        <ele>830.652</ele>
        <time>2022-08-24T14:31:38Z</time>
      </trkpt>
      <trkpt lat="42.95021199999998" lon="-1.4637699999999967">
        <ele>830.684</ele>
        <time>2022-08-24T14:31:39Z</time>
      </trkpt>
      <trkpt lat="42.950201999999976" lon="-1.4637579999999968">
        <ele>830.821</ele>
        <time>2022-08-24T14:31:42Z</time>
      </trkpt>
      <trkpt lat="42.950201999999976" lon="-1.4637579999999968">
        <ele>830.844</ele>
        <time>2022-08-24T14:31:43Z</time>
      </trkpt>
      <trkpt lat="42.950185999999974" lon="-1.4637479999999967">
        <ele>831.218</ele>
        <time>2022-08-24T14:31:47Z</time>
      </trkpt>
      <trkpt lat="42.950185999999974" lon="-1.4637479999999967">
        <ele>831.287</ele>
        <time>2022-08-24T14:31:48Z</time>
      </trkpt>
      <trkpt lat="42.95017499999997" lon="-1.4637469999999968">
        <ele>831.454</ele>
        <time>2022-08-24T14:31:53Z</time>
      </trkpt>
      <trkpt lat="42.950123999999974" lon="-1.4637469999999968">
        <ele>832.256</ele>
        <time>2022-08-24T14:32:01Z</time>
      </trkpt>
      <trkpt lat="42.95012299999998" lon="-1.4637469999999968">
        <ele>832.211</ele>
        <time>2022-08-24T14:32:02Z</time>
      </trkpt>
      <trkpt lat="42.95012299999998" lon="-1.4637469999999968">
        <ele>832.409</ele>
        <time>2022-08-24T14:32:03Z</time>
      </trkpt>
      <trkpt lat="42.95012199999998" lon="-1.4637489999999969">
        <ele>832.436</ele>
        <time>2022-08-24T14:32:04Z</time>
      </trkpt>
      <trkpt lat="42.95011499999998" lon="-1.4637549999999968">
        <ele>832.836</ele>
        <time>2022-08-24T14:32:06Z</time>
      </trkpt>
      <trkpt lat="42.95011499999998" lon="-1.4637549999999968">
        <ele>832.826</ele>
        <time>2022-08-24T14:32:07Z</time>
      </trkpt>
      <trkpt lat="42.95010499999998" lon="-1.4637569999999969">
        <ele>833.052</ele>
        <time>2022-08-24T14:32:08Z</time>
      </trkpt>
      <trkpt lat="42.95010499999998" lon="-1.4637569999999969">
        <ele>833.064</ele>
        <time>2022-08-24T14:32:09Z</time>
      </trkpt>
      <trkpt lat="42.95008699999998" lon="-1.463769999999997">
        <ele>833.261</ele>
        <time>2022-08-24T14:32:12Z</time>
      </trkpt>
      <trkpt lat="42.95008499999998" lon="-1.4637739999999968">
        <ele>833.224</ele>
        <time>2022-08-24T14:32:13Z</time>
      </trkpt>
      <trkpt lat="42.95008499999998" lon="-1.4637739999999968">
        <ele>833.278</ele>
        <time>2022-08-24T14:32:14Z</time>
      </trkpt>
      <trkpt lat="42.95008299999998" lon="-1.463780999999997">
        <ele>833.457</ele>
        <time>2022-08-24T14:32:15Z</time>
      </trkpt>
      <trkpt lat="42.95008199999998" lon="-1.4637849999999968">
        <ele>833.497</ele>
        <time>2022-08-24T14:32:16Z</time>
      </trkpt>
      <trkpt lat="42.95008099999998" lon="-1.4637869999999968">
        <ele>833.423</ele>
        <time>2022-08-24T14:32:17Z</time>
      </trkpt>
      <trkpt lat="42.95007599999998" lon="-1.463788999999997">
        <ele>833.425</ele>
        <time>2022-08-24T14:32:20Z</time>
      </trkpt>
      <trkpt lat="42.95006499999998" lon="-1.4637999999999969">
        <ele>833.809</ele>
        <time>2022-08-24T14:32:23Z</time>
      </trkpt>
      <trkpt lat="42.95006499999998" lon="-1.4637999999999969">
        <ele>833.810</ele>
        <time>2022-08-24T14:32:24Z</time>
      </trkpt>
      <trkpt lat="42.94999299999998" lon="-1.4638839999999969">
        <ele>834.250</ele>
        <time>2022-08-24T14:33:17Z</time>
      </trkpt>
      <trkpt lat="42.94998699999998" lon="-1.463906999999997">
        <ele>834.050</ele>
        <time>2022-08-24T14:33:19Z</time>
      </trkpt>
      <trkpt lat="42.949959999999976" lon="-1.463955999999997">
        <ele>834.016</ele>
        <time>2022-08-24T14:33:22Z</time>
      </trkpt>
      <trkpt lat="42.94995099999998" lon="-1.4639679999999968">
        <ele>834.048</ele>
        <time>2022-08-24T14:33:23Z</time>
      </trkpt>
      <trkpt lat="42.949940999999974" lon="-1.4639849999999968">
        <ele>834.015</ele>
        <time>2022-08-24T14:33:24Z</time>
      </trkpt>
      <trkpt lat="42.94992499999997" lon="-1.4640169999999968">
        <ele>834.238</ele>
        <time>2022-08-24T14:33:25Z</time>
      </trkpt>
      <trkpt lat="42.94988499999997" lon="-1.4641119999999967">
        <ele>834.462</ele>
        <time>2022-08-24T14:33:30Z</time>
      </trkpt>
      <trkpt lat="42.94986099999997" lon="-1.4641519999999968">
        <ele>834.681</ele>
        <time>2022-08-24T14:33:32Z</time>
      </trkpt>
      <trkpt lat="42.94986099999997" lon="-1.4641519999999968">
        <ele>834.849</ele>
        <time>2022-08-24T14:33:33Z</time>
      </trkpt>
      <trkpt lat="42.94985199999997" lon="-1.4641739999999968">
        <ele>835.002</ele>
        <time>2022-08-24T14:33:34Z</time>
      </trkpt>
      <trkpt lat="42.94979099999997" lon="-1.4643139999999968">
        <ele>835.822</ele>
        <time>2022-08-24T14:33:38Z</time>
      </trkpt>
      <trkpt lat="42.94978499999997" lon="-1.4643389999999967">
        <ele>836.009</ele>
        <time>2022-08-24T14:33:40Z</time>
      </trkpt>
      <trkpt lat="42.94975099999997" lon="-1.4644159999999968">
        <ele>836.445</ele>
        <time>2022-08-24T14:33:42Z</time>
      </trkpt>
      <trkpt lat="42.94974299999997" lon="-1.4644549999999967">
        <ele>836.655</ele>
        <time>2022-08-24T14:33:44Z</time>
      </trkpt>
      <trkpt lat="42.94972599999997" lon="-1.4644919999999968">
        <ele>836.865</ele>
        <time>2022-08-24T14:33:45Z</time>
      </trkpt>
      <trkpt lat="42.94972599999997" lon="-1.4644919999999968">
        <ele>836.821</ele>
        <time>2022-08-24T14:33:46Z</time>
      </trkpt>
      <trkpt lat="42.949732999999966" lon="-1.4645249999999967">
        <ele>837.073</ele>
        <time>2022-08-24T14:33:47Z</time>
      </trkpt>
      <trkpt lat="42.94972999999997" lon="-1.4645419999999967">
        <ele>837.250</ele>
        <time>2022-08-24T14:33:48Z</time>
      </trkpt>
      <trkpt lat="42.94972099999997" lon="-1.4645579999999967">
        <ele>837.423</ele>
        <time>2022-08-24T14:33:49Z</time>
      </trkpt>
      <trkpt lat="42.94971499999997" lon="-1.4645709999999967">
        <ele>837.657</ele>
        <time>2022-08-24T14:33:50Z</time>
      </trkpt>
      <trkpt lat="42.94970699999997" lon="-1.4645829999999966">
        <ele>837.836</ele>
        <time>2022-08-24T14:33:51Z</time>
      </trkpt>
      <trkpt lat="42.94969299999997" lon="-1.4645979999999967">
        <ele>837.869</ele>
        <time>2022-08-24T14:33:52Z</time>
      </trkpt>
      <trkpt lat="42.94968599999997" lon="-1.4646129999999968">
        <ele>838.004</ele>
        <time>2022-08-24T14:33:53Z</time>
      </trkpt>
      <trkpt lat="42.94968599999997" lon="-1.4646129999999968">
        <ele>838.024</ele>
        <time>2022-08-24T14:33:54Z</time>
      </trkpt>
      <trkpt lat="42.94968299999997" lon="-1.4646319999999968">
        <ele>838.009</ele>
        <time>2022-08-24T14:33:55Z</time>
      </trkpt>
      <trkpt lat="42.94966699999997" lon="-1.4646649999999968">
        <ele>837.887</ele>
        <time>2022-08-24T14:33:56Z</time>
      </trkpt>
      <trkpt lat="42.94965899999997" lon="-1.4646859999999968">
        <ele>837.877</ele>
        <time>2022-08-24T14:33:57Z</time>
      </trkpt>
      <trkpt lat="42.94964699999997" lon="-1.4647149999999969">
        <ele>837.817</ele>
        <time>2022-08-24T14:33:58Z</time>
      </trkpt>
      <trkpt lat="42.94963099999997" lon="-1.4647479999999968">
        <ele>838.083</ele>
        <time>2022-08-24T14:33:59Z</time>
      </trkpt>
      <trkpt lat="42.94960899999997" lon="-1.4647749999999968">
        <ele>838.055</ele>
        <time>2022-08-24T14:34:00Z</time>
      </trkpt>
      <trkpt lat="42.94958499999996" lon="-1.464808999999997">
        <ele>838.092</ele>
        <time>2022-08-24T14:34:01Z</time>
      </trkpt>
      <trkpt lat="42.94956899999996" lon="-1.464856999999997">
        <ele>838.075</ele>
        <time>2022-08-24T14:34:02Z</time>
      </trkpt>
      <trkpt lat="42.949553999999964" lon="-1.464892999999997">
        <ele>837.869</ele>
        <time>2022-08-24T14:34:03Z</time>
      </trkpt>
      <trkpt lat="42.94954099999996" lon="-1.464924999999997">
        <ele>837.858</ele>
        <time>2022-08-24T14:34:04Z</time>
      </trkpt>
      <trkpt lat="42.949536999999964" lon="-1.464959999999997">
        <ele>837.875</ele>
        <time>2022-08-24T14:34:05Z</time>
      </trkpt>
      <trkpt lat="42.949527999999965" lon="-1.465012999999997">
        <ele>837.828</ele>
        <time>2022-08-24T14:34:06Z</time>
      </trkpt>
      <trkpt lat="42.949516999999965" lon="-1.465067999999997">
        <ele>837.620</ele>
        <time>2022-08-24T14:34:07Z</time>
      </trkpt>
      <trkpt lat="42.949490999999966" lon="-1.4651739999999969">
        <ele>837.609</ele>
        <time>2022-08-24T14:34:09Z</time>
      </trkpt>
      <trkpt lat="42.949392999999965" lon="-1.465480999999997">
        <ele>837.048</ele>
        <time>2022-08-24T14:34:15Z</time>
      </trkpt>
      <trkpt lat="42.94937999999996" lon="-1.465564999999997">
        <ele>837.048</ele>
        <time>2022-08-24T14:34:17Z</time>
      </trkpt>
      <trkpt lat="42.949364999999965" lon="-1.4656039999999968">
        <ele>836.838</ele>
        <time>2022-08-24T14:34:18Z</time>
      </trkpt>
      <trkpt lat="42.94932099999996" lon="-1.4656719999999968">
        <ele>836.894</ele>
        <time>2022-08-24T14:34:20Z</time>
      </trkpt>
      <trkpt lat="42.94927999999996" lon="-1.4657079999999967">
        <ele>836.686</ele>
        <time>2022-08-24T14:34:21Z</time>
      </trkpt>
      <trkpt lat="42.94925899999996" lon="-1.4657519999999966">
        <ele>836.673</ele>
        <time>2022-08-24T14:34:22Z</time>
      </trkpt>
      <trkpt lat="42.949243999999965" lon="-1.4658089999999966">
        <ele>836.426</ele>
        <time>2022-08-24T14:34:23Z</time>
      </trkpt>
      <trkpt lat="42.94920799999996" lon="-1.4658729999999967">
        <ele>836.470</ele>
        <time>2022-08-24T14:34:25Z</time>
      </trkpt>
      <trkpt lat="42.94913899999996" lon="-1.4659339999999967">
        <ele>836.429</ele>
        <time>2022-08-24T14:34:27Z</time>
      </trkpt>
      <trkpt lat="42.94911299999996" lon="-1.4659719999999967">
        <ele>836.485</ele>
        <time>2022-08-24T14:34:28Z</time>
      </trkpt>
      <trkpt lat="42.94908799999996" lon="-1.4660089999999968">
        <ele>836.489</ele>
        <time>2022-08-24T14:34:29Z</time>
      </trkpt>
      <trkpt lat="42.94903199999996" lon="-1.4660879999999967">
        <ele>836.417</ele>
        <time>2022-08-24T14:34:31Z</time>
      </trkpt>
      <trkpt lat="42.94900799999996" lon="-1.4661259999999967">
        <ele>836.409</ele>
        <time>2022-08-24T14:34:32Z</time>
      </trkpt>
      <trkpt lat="42.948960999999954" lon="-1.4661979999999968">
        <ele>836.419</ele>
        <time>2022-08-24T14:34:34Z</time>
      </trkpt>
      <trkpt lat="42.94890599999995" lon="-1.4662679999999968">
        <ele>836.439</ele>
        <time>2022-08-24T14:34:36Z</time>
      </trkpt>
      <trkpt lat="42.94888699999995" lon="-1.4663039999999967">
        <ele>836.439</ele>
        <time>2022-08-24T14:34:37Z</time>
      </trkpt>
      <trkpt lat="42.94886499999995" lon="-1.4663359999999968">
        <ele>836.065</ele>
        <time>2022-08-24T14:34:38Z</time>
      </trkpt>
      <trkpt lat="42.94883899999995" lon="-1.4663699999999968">
        <ele>835.897</ele>
        <time>2022-08-24T14:34:39Z</time>
      </trkpt>
      <trkpt lat="42.94881299999995" lon="-1.4664009999999967">
        <ele>835.664</ele>
        <time>2022-08-24T14:34:40Z</time>
      </trkpt>
      <trkpt lat="42.94870999999995" lon="-1.4664869999999968">
        <ele>835.047</ele>
        <time>2022-08-24T14:34:43Z</time>
      </trkpt>
      <trkpt lat="42.94867899999995" lon="-1.4665159999999968">
        <ele>834.651</ele>
        <time>2022-08-24T14:34:44Z</time>
      </trkpt>
      <trkpt lat="42.94865299999995" lon="-1.4665449999999969">
        <ele>834.280</ele>
        <time>2022-08-24T14:34:45Z</time>
      </trkpt>
      <trkpt lat="42.94860399999995" lon="-1.4666339999999969">
        <ele>834.082</ele>
        <time>2022-08-24T14:34:47Z</time>
      </trkpt>
      <trkpt lat="42.94857399999995" lon="-1.4666969999999968">
        <ele>834.043</ele>
        <time>2022-08-24T14:34:48Z</time>
      </trkpt>
      <trkpt lat="42.94855199999995" lon="-1.4667329999999967">
        <ele>834.017</ele>
        <time>2022-08-24T14:34:49Z</time>
      </trkpt>
      <trkpt lat="42.948527999999946" lon="-1.4667639999999966">
        <ele>834.009</ele>
        <time>2022-08-24T14:34:50Z</time>
      </trkpt>
      <trkpt lat="42.948466999999944" lon="-1.4668409999999967">
        <ele>834.049</ele>
        <time>2022-08-24T14:34:53Z</time>
      </trkpt>
      <trkpt lat="42.94843399999994" lon="-1.4668759999999967">
        <ele>834.289</ele>
        <time>2022-08-24T14:34:54Z</time>
      </trkpt>
      <trkpt lat="42.94836599999994" lon="-1.4669409999999967">
        <ele>834.249</ele>
        <time>2022-08-24T14:34:56Z</time>
      </trkpt>
      <trkpt lat="42.94828799999994" lon="-1.4669879999999966">
        <ele>834.225</ele>
        <time>2022-08-24T14:34:58Z</time>
      </trkpt>
      <trkpt lat="42.94824299999994" lon="-1.4670209999999966">
        <ele>834.227</ele>
        <time>2022-08-24T14:34:59Z</time>
      </trkpt>
      <trkpt lat="42.94821299999994" lon="-1.4670419999999966">
        <ele>834.264</ele>
        <time>2022-08-24T14:35:01Z</time>
      </trkpt>
      <trkpt lat="42.94811199999994" lon="-1.4670939999999966">
        <ele>834.037</ele>
        <time>2022-08-24T14:35:02Z</time>
      </trkpt>
      <trkpt lat="42.948056999999935" lon="-1.4671269999999965">
        <ele>834.091</ele>
        <time>2022-08-24T14:35:03Z</time>
      </trkpt>
      <trkpt lat="42.94801899999993" lon="-1.4671479999999966">
        <ele>833.830</ele>
        <time>2022-08-24T14:35:04Z</time>
      </trkpt>
      <trkpt lat="42.94798199999993" lon="-1.4671609999999966">
        <ele>833.662</ele>
        <time>2022-08-24T14:35:05Z</time>
      </trkpt>
      <trkpt lat="42.947960999999935" lon="-1.4671719999999966">
        <ele>833.283</ele>
        <time>2022-08-24T14:35:06Z</time>
      </trkpt>
      <trkpt lat="42.94793099999993" lon="-1.4671899999999967">
        <ele>833.211</ele>
        <time>2022-08-24T14:35:07Z</time>
      </trkpt>
      <trkpt lat="42.94790299999993" lon="-1.4671989999999966">
        <ele>833.009</ele>
        <time>2022-08-24T14:35:08Z</time>
      </trkpt>
      <trkpt lat="42.94787899999993" lon="-1.4672169999999967">
        <ele>833.057</ele>
        <time>2022-08-24T14:35:09Z</time>
      </trkpt>
      <trkpt lat="42.94774599999993" lon="-1.4672739999999966">
        <ele>832.837</ele>
        <time>2022-08-24T14:35:14Z</time>
      </trkpt>
      <trkpt lat="42.94772399999993" lon="-1.4672859999999965">
        <ele>832.667</ele>
        <time>2022-08-24T14:35:15Z</time>
      </trkpt>
      <trkpt lat="42.94770099999993" lon="-1.4672979999999964">
        <ele>832.443</ele>
        <time>2022-08-24T14:35:16Z</time>
      </trkpt>
      <trkpt lat="42.94761399999993" lon="-1.4673489999999965">
        <ele>831.025</ele>
        <time>2022-08-24T14:35:20Z</time>
      </trkpt>
      <trkpt lat="42.94758099999993" lon="-1.4673589999999965">
        <ele>831.092</ele>
        <time>2022-08-24T14:35:21Z</time>
      </trkpt>
      <trkpt lat="42.947539999999925" lon="-1.4673759999999965">
        <ele>830.295</ele>
        <time>2022-08-24T14:35:23Z</time>
      </trkpt>
      <trkpt lat="42.94752199999993" lon="-1.4673889999999965">
        <ele>830.079</ele>
        <time>2022-08-24T14:35:24Z</time>
      </trkpt>
      <trkpt lat="42.94750099999993" lon="-1.4674039999999966">
        <ele>829.868</ele>
        <time>2022-08-24T14:35:25Z</time>
      </trkpt>
      <trkpt lat="42.94748499999993" lon="-1.4674149999999966">
        <ele>829.464</ele>
        <time>2022-08-24T14:35:26Z</time>
      </trkpt>
      <trkpt lat="42.94748499999993" lon="-1.4674149999999966">
        <ele>829.206</ele>
        <time>2022-08-24T14:35:27Z</time>
      </trkpt>
      <trkpt lat="42.94738199999993" lon="-1.4674709999999966">
        <ele>828.616</ele>
        <time>2022-08-24T14:35:32Z</time>
      </trkpt>
      <trkpt lat="42.94735899999993" lon="-1.4674849999999966">
        <ele>828.409</ele>
        <time>2022-08-24T14:35:33Z</time>
      </trkpt>
      <trkpt lat="42.94733599999993" lon="-1.4675049999999965">
        <ele>828.297</ele>
        <time>2022-08-24T14:35:34Z</time>
      </trkpt>
      <trkpt lat="42.94727899999993" lon="-1.4675289999999965">
        <ele>828.097</ele>
        <time>2022-08-24T14:35:35Z</time>
      </trkpt>
      <trkpt lat="42.94724599999993" lon="-1.4675449999999965">
        <ele>827.237</ele>
        <time>2022-08-24T14:35:37Z</time>
      </trkpt>
      <trkpt lat="42.94721399999993" lon="-1.4675609999999966">
        <ele>827.253</ele>
        <time>2022-08-24T14:35:38Z</time>
      </trkpt>
      <trkpt lat="42.94718399999993" lon="-1.4675739999999966">
        <ele>826.815</ele>
        <time>2022-08-24T14:35:39Z</time>
      </trkpt>
      <trkpt lat="42.947125999999926" lon="-1.4675959999999966">
        <ele>826.422</ele>
        <time>2022-08-24T14:35:40Z</time>
      </trkpt>
      <trkpt lat="42.94709899999992" lon="-1.4676069999999966">
        <ele>826.285</ele>
        <time>2022-08-24T14:35:41Z</time>
      </trkpt>
      <trkpt lat="42.94709899999992" lon="-1.4676069999999966">
        <ele>826.049</ele>
        <time>2022-08-24T14:35:42Z</time>
      </trkpt>
      <trkpt lat="42.94686899999992" lon="-1.4676649999999964">
        <ele>825.648</ele>
        <time>2022-08-24T14:35:49Z</time>
      </trkpt>
      <trkpt lat="42.94679099999992" lon="-1.4676689999999963">
        <ele>825.468</ele>
        <time>2022-08-24T14:35:50Z</time>
      </trkpt>
      <trkpt lat="42.94671099999992" lon="-1.4676789999999964">
        <ele>825.242</ele>
        <time>2022-08-24T14:35:52Z</time>
      </trkpt>
      <trkpt lat="42.946644999999926" lon="-1.4677019999999965">
        <ele>824.826</ele>
        <time>2022-08-24T14:35:54Z</time>
      </trkpt>
      <trkpt lat="42.94655099999993" lon="-1.4677449999999965">
        <ele>824.609</ele>
        <time>2022-08-24T14:35:57Z</time>
      </trkpt>
      <trkpt lat="42.94652199999993" lon="-1.4677579999999966">
        <ele>824.457</ele>
        <time>2022-08-24T14:35:59Z</time>
      </trkpt>
      <trkpt lat="42.94646799999993" lon="-1.4677849999999966">
        <ele>824.247</ele>
        <time>2022-08-24T14:36:00Z</time>
      </trkpt>
      <trkpt lat="42.94646799999993" lon="-1.4677849999999966">
        <ele>824.037</ele>
        <time>2022-08-24T14:36:01Z</time>
      </trkpt>
      <trkpt lat="42.94639199999993" lon="-1.4678139999999966">
        <ele>824.033</ele>
        <time>2022-08-24T14:36:02Z</time>
      </trkpt>
      <trkpt lat="42.94639199999993" lon="-1.4678139999999966">
        <ele>824.055</ele>
        <time>2022-08-24T14:36:03Z</time>
      </trkpt>
      <trkpt lat="42.94635299999993" lon="-1.4678279999999966">
        <ele>824.082</ele>
        <time>2022-08-24T14:36:04Z</time>
      </trkpt>
      <trkpt lat="42.94631699999993" lon="-1.4678429999999967">
        <ele>823.875</ele>
        <time>2022-08-24T14:36:05Z</time>
      </trkpt>
      <trkpt lat="42.94625099999993" lon="-1.4678769999999968">
        <ele>823.649</ele>
        <time>2022-08-24T14:36:06Z</time>
      </trkpt>
      <trkpt lat="42.94622099999993" lon="-1.4678899999999968">
        <ele>823.668</ele>
        <time>2022-08-24T14:36:07Z</time>
      </trkpt>
      <trkpt lat="42.94622099999993" lon="-1.4678899999999968">
        <ele>823.282</ele>
        <time>2022-08-24T14:36:08Z</time>
      </trkpt>
      <trkpt lat="42.94619999999993" lon="-1.467896999999997">
        <ele>823.243</ele>
        <time>2022-08-24T14:36:09Z</time>
      </trkpt>
      <trkpt lat="42.946151999999934" lon="-1.4679029999999968">
        <ele>823.017</ele>
        <time>2022-08-24T14:36:10Z</time>
      </trkpt>
      <trkpt lat="42.94613099999994" lon="-1.4678999999999969">
        <ele>822.809</ele>
        <time>2022-08-24T14:36:11Z</time>
      </trkpt>
      <trkpt lat="42.94607899999994" lon="-1.4679169999999968">
        <ele>821.839</ele>
        <time>2022-08-24T14:36:14Z</time>
      </trkpt>
      <trkpt lat="42.946057999999944" lon="-1.4679269999999969">
        <ele>821.469</ele>
        <time>2022-08-24T14:36:15Z</time>
      </trkpt>
      <trkpt lat="42.946011999999946" lon="-1.467933999999997">
        <ele>821.239</ele>
        <time>2022-08-24T14:36:16Z</time>
      </trkpt>
      <trkpt lat="42.946011999999946" lon="-1.467933999999997">
        <ele>821.055</ele>
        <time>2022-08-24T14:36:17Z</time>
      </trkpt>
      <trkpt lat="42.94598099999995" lon="-1.4679349999999969">
        <ele>820.827</ele>
        <time>2022-08-24T14:36:18Z</time>
      </trkpt>
      <trkpt lat="42.94598099999995" lon="-1.4679349999999969">
        <ele>820.464</ele>
        <time>2022-08-24T14:36:19Z</time>
      </trkpt>
      <trkpt lat="42.945941999999945" lon="-1.467942999999997">
        <ele>819.637</ele>
        <time>2022-08-24T14:36:21Z</time>
      </trkpt>
      <trkpt lat="42.94591899999995" lon="-1.4679379999999969">
        <ele>819.051</ele>
        <time>2022-08-24T14:36:22Z</time>
      </trkpt>
      <trkpt lat="42.94583599999995" lon="-1.4679579999999968">
        <ele>818.280</ele>
        <time>2022-08-24T14:36:26Z</time>
      </trkpt>
      <trkpt lat="42.94579799999995" lon="-1.4679589999999967">
        <ele>817.879</ele>
        <time>2022-08-24T14:36:27Z</time>
      </trkpt>
      <trkpt lat="42.94577799999995" lon="-1.4679559999999967">
        <ele>817.405</ele>
        <time>2022-08-24T14:36:29Z</time>
      </trkpt>
      <trkpt lat="42.94568399999995" lon="-1.4679679999999966">
        <ele>816.825</ele>
        <time>2022-08-24T14:36:32Z</time>
      </trkpt>
      <trkpt lat="42.94566099999995" lon="-1.4679819999999966">
        <ele>816.809</ele>
        <time>2022-08-24T14:36:33Z</time>
      </trkpt>
      <trkpt lat="42.94564399999995" lon="-1.4679949999999966">
        <ele>816.238</ele>
        <time>2022-08-24T14:36:34Z</time>
      </trkpt>
      <trkpt lat="42.94563099999995" lon="-1.4680129999999967">
        <ele>816.048</ele>
        <time>2022-08-24T14:36:35Z</time>
      </trkpt>
      <trkpt lat="42.94563099999995" lon="-1.4680129999999967">
        <ele>815.468</ele>
        <time>2022-08-24T14:36:36Z</time>
      </trkpt>
      <trkpt lat="42.94560299999995" lon="-1.4680659999999968">
        <ele>815.244</ele>
        <time>2022-08-24T14:36:37Z</time>
      </trkpt>
      <trkpt lat="42.94558299999995" lon="-1.4680949999999968">
        <ele>814.856</ele>
        <time>2022-08-24T14:36:38Z</time>
      </trkpt>
      <trkpt lat="42.94556599999995" lon="-1.4681319999999969">
        <ele>814.673</ele>
        <time>2022-08-24T14:36:39Z</time>
      </trkpt>
      <trkpt lat="42.94554899999995" lon="-1.468166999999997">
        <ele>814.256</ele>
        <time>2022-08-24T14:36:41Z</time>
      </trkpt>
      <trkpt lat="42.94553699999995" lon="-1.4682029999999968">
        <ele>814.220</ele>
        <time>2022-08-24T14:36:42Z</time>
      </trkpt>
      <trkpt lat="42.94549699999995" lon="-1.4682649999999968">
        <ele>814.259</ele>
        <time>2022-08-24T14:36:43Z</time>
      </trkpt>
      <trkpt lat="42.945422999999955" lon="-1.4683499999999967">
        <ele>813.473</ele>
        <time>2022-08-24T14:36:46Z</time>
      </trkpt>
      <trkpt lat="42.945422999999955" lon="-1.4683499999999967">
        <ele>813.285</ele>
        <time>2022-08-24T14:36:47Z</time>
      </trkpt>
      <trkpt lat="42.94536899999996" lon="-1.4684049999999966">
        <ele>812.813</ele>
        <time>2022-08-24T14:36:48Z</time>
      </trkpt>
      <trkpt lat="42.94530299999996" lon="-1.4684659999999967">
        <ele>812.009</ele>
        <time>2022-08-24T14:36:51Z</time>
      </trkpt>
      <trkpt lat="42.94527699999996" lon="-1.4684889999999968">
        <ele>811.698</ele>
        <time>2022-08-24T14:36:52Z</time>
      </trkpt>
      <trkpt lat="42.94518499999996" lon="-1.4685729999999968">
        <ele>810.868</ele>
        <time>2022-08-24T14:36:54Z</time>
      </trkpt>
      <trkpt lat="42.94494899999996" lon="-1.4687089999999967">
        <ele>809.658</ele>
        <time>2022-08-24T14:37:00Z</time>
      </trkpt>
      <trkpt lat="42.94486799999996" lon="-1.4687579999999967">
        <ele>809.434</ele>
        <time>2022-08-24T14:37:02Z</time>
      </trkpt>
      <trkpt lat="42.94486799999996" lon="-1.4687579999999967">
        <ele>809.236</ele>
        <time>2022-08-24T14:37:03Z</time>
      </trkpt>
      <trkpt lat="42.94470199999996" lon="-1.4688719999999966">
        <ele>808.873</ele>
        <time>2022-08-24T14:37:06Z</time>
      </trkpt>
      <trkpt lat="42.94470199999996" lon="-1.4688719999999966">
        <ele>808.476</ele>
        <time>2022-08-24T14:37:07Z</time>
      </trkpt>
      <trkpt lat="42.944626999999954" lon="-1.4689279999999967">
        <ele>808.220</ele>
        <time>2022-08-24T14:37:08Z</time>
      </trkpt>
      <trkpt lat="42.94450199999996" lon="-1.4689979999999967">
        <ele>808.049</ele>
        <time>2022-08-24T14:37:11Z</time>
      </trkpt>
      <trkpt lat="42.94445899999996" lon="-1.4690169999999967">
        <ele>808.077</ele>
        <time>2022-08-24T14:37:12Z</time>
      </trkpt>
      <trkpt lat="42.94436699999996" lon="-1.4690609999999966">
        <ele>807.461</ele>
        <time>2022-08-24T14:37:14Z</time>
      </trkpt>
      <trkpt lat="42.94431899999996" lon="-1.4690799999999966">
        <ele>807.427</ele>
        <time>2022-08-24T14:37:15Z</time>
      </trkpt>
      <trkpt lat="42.94421699999996" lon="-1.4691229999999966">
        <ele>807.009</ele>
        <time>2022-08-24T14:37:17Z</time>
      </trkpt>
      <trkpt lat="42.94386599999996" lon="-1.4692179999999966">
        <ele>806.438</ele>
        <time>2022-08-24T14:37:23Z</time>
      </trkpt>
      <trkpt lat="42.94381399999996" lon="-1.4692359999999967">
        <ele>806.218</ele>
        <time>2022-08-24T14:37:24Z</time>
      </trkpt>
      <trkpt lat="42.94381399999996" lon="-1.4692359999999967">
        <ele>806.228</ele>
        <time>2022-08-24T14:37:25Z</time>
      </trkpt>
      <trkpt lat="42.943716999999964" lon="-1.4692939999999965">
        <ele>806.234</ele>
        <time>2022-08-24T14:37:26Z</time>
      </trkpt>
      <trkpt lat="42.94366799999997" lon="-1.4693189999999965">
        <ele>806.446</ele>
        <time>2022-08-24T14:37:27Z</time>
      </trkpt>
      <trkpt lat="42.94361699999997" lon="-1.4693329999999964">
        <ele>806.433</ele>
        <time>2022-08-24T14:37:28Z</time>
      </trkpt>
      <trkpt lat="42.943569999999966" lon="-1.4693479999999965">
        <ele>806.696</ele>
        <time>2022-08-24T14:37:29Z</time>
      </trkpt>
      <trkpt lat="42.94352399999997" lon="-1.4693579999999966">
        <ele>806.210</ele>
        <time>2022-08-24T14:37:30Z</time>
      </trkpt>
      <trkpt lat="42.943482999999965" lon="-1.4693699999999965">
        <ele>806.239</ele>
        <time>2022-08-24T14:37:31Z</time>
      </trkpt>
      <trkpt lat="42.943443999999964" lon="-1.4693819999999964">
        <ele>806.249</ele>
        <time>2022-08-24T14:37:32Z</time>
      </trkpt>
      <trkpt lat="42.94340799999996" lon="-1.4694009999999964">
        <ele>806.402</ele>
        <time>2022-08-24T14:37:33Z</time>
      </trkpt>
      <trkpt lat="42.94321699999996" lon="-1.4695419999999964">
        <ele>806.022</ele>
        <time>2022-08-24T14:37:38Z</time>
      </trkpt>
      <trkpt lat="42.94307599999996" lon="-1.4696139999999964">
        <ele>805.609</ele>
        <time>2022-08-24T14:37:40Z</time>
      </trkpt>
      <trkpt lat="42.94307599999996" lon="-1.4696139999999964">
        <ele>805.695</ele>
        <time>2022-08-24T14:37:41Z</time>
      </trkpt>
      <trkpt lat="42.94297799999996" lon="-1.4696599999999964">
        <ele>805.655</ele>
        <time>2022-08-24T14:37:42Z</time>
      </trkpt>
      <trkpt lat="42.94297799999996" lon="-1.4696599999999964">
        <ele>805.695</ele>
        <time>2022-08-24T14:37:43Z</time>
      </trkpt>
      <trkpt lat="42.94293199999996" lon="-1.4696879999999963">
        <ele>805.691</ele>
        <time>2022-08-24T14:37:44Z</time>
      </trkpt>
      <trkpt lat="42.94284199999996" lon="-1.4697489999999964">
        <ele>805.433</ele>
        <time>2022-08-24T14:37:45Z</time>
      </trkpt>
      <trkpt lat="42.94279999999996" lon="-1.4697759999999964">
        <ele>805.420</ele>
        <time>2022-08-24T14:37:46Z</time>
      </trkpt>
      <trkpt lat="42.942759999999964" lon="-1.4698039999999963">
        <ele>805.473</ele>
        <time>2022-08-24T14:37:47Z</time>
      </trkpt>
      <trkpt lat="42.94272199999996" lon="-1.4698279999999964">
        <ele>805.477</ele>
        <time>2022-08-24T14:37:48Z</time>
      </trkpt>
      <trkpt lat="42.94268299999996" lon="-1.4698509999999965">
        <ele>805.426</ele>
        <time>2022-08-24T14:37:50Z</time>
      </trkpt>
      <trkpt lat="42.94249799999996" lon="-1.4699819999999966">
        <ele>804.821</ele>
        <time>2022-08-24T14:37:53Z</time>
      </trkpt>
      <trkpt lat="42.94244399999996" lon="-1.4700359999999966">
        <ele>804.641</ele>
        <time>2022-08-24T14:37:55Z</time>
      </trkpt>
      <trkpt lat="42.94236199999996" lon="-1.4701109999999966">
        <ele>804.605</ele>
        <time>2022-08-24T14:37:56Z</time>
      </trkpt>
      <trkpt lat="42.94232799999996" lon="-1.4701329999999966">
        <ele>804.409</ele>
        <time>2022-08-24T14:37:57Z</time>
      </trkpt>
      <trkpt lat="42.94232799999996" lon="-1.4701329999999966">
        <ele>804.273</ele>
        <time>2022-08-24T14:37:58Z</time>
      </trkpt>
      <trkpt lat="42.94229899999996" lon="-1.4701559999999967">
        <ele>804.023</ele>
        <time>2022-08-24T14:37:59Z</time>
      </trkpt>
      <trkpt lat="42.94222299999996" lon="-1.4702429999999966">
        <ele>802.253</ele>
        <time>2022-08-24T14:38:02Z</time>
      </trkpt>
      <trkpt lat="42.94219499999996" lon="-1.4702719999999967">
        <ele>802.039</ele>
        <time>2022-08-24T14:38:03Z</time>
      </trkpt>
      <trkpt lat="42.94216099999996" lon="-1.4702999999999966">
        <ele>801.621</ele>
        <time>2022-08-24T14:38:04Z</time>
      </trkpt>
      <trkpt lat="42.94213399999996" lon="-1.4703119999999965">
        <ele>801.288</ele>
        <time>2022-08-24T14:38:05Z</time>
      </trkpt>
      <trkpt lat="42.94207099999996" lon="-1.4703489999999966">
        <ele>800.861</ele>
        <time>2022-08-24T14:38:06Z</time>
      </trkpt>
      <trkpt lat="42.942044999999965" lon="-1.4703699999999966">
        <ele>800.425</ele>
        <time>2022-08-24T14:38:07Z</time>
      </trkpt>
      <trkpt lat="42.942021999999966" lon="-1.4703899999999965">
        <ele>800.064</ele>
        <time>2022-08-24T14:38:08Z</time>
      </trkpt>
      <trkpt lat="42.942021999999966" lon="-1.4703899999999965">
        <ele>799.887</ele>
        <time>2022-08-24T14:38:09Z</time>
      </trkpt>
      <trkpt lat="42.941943999999964" lon="-1.4704249999999965">
        <ele>799.242</ele>
        <time>2022-08-24T14:38:11Z</time>
      </trkpt>
      <trkpt lat="42.941943999999964" lon="-1.4704249999999965">
        <ele>799.226</ele>
        <time>2022-08-24T14:38:12Z</time>
      </trkpt>
      <trkpt lat="42.94189099999996" lon="-1.4704159999999966">
        <ele>798.809</ele>
        <time>2022-08-24T14:38:13Z</time>
      </trkpt>
      <trkpt lat="42.94186099999996" lon="-1.4704099999999967">
        <ele>798.059</ele>
        <time>2022-08-24T14:38:15Z</time>
      </trkpt>
      <trkpt lat="42.94180199999996" lon="-1.4704069999999967">
        <ele>797.639</ele>
        <time>2022-08-24T14:38:16Z</time>
      </trkpt>
      <trkpt lat="42.94177499999996" lon="-1.4704099999999967">
        <ele>797.639</ele>
        <time>2022-08-24T14:38:17Z</time>
      </trkpt>
      <trkpt lat="42.941749999999956" lon="-1.4704169999999968">
        <ele>797.065</ele>
        <time>2022-08-24T14:38:18Z</time>
      </trkpt>
      <trkpt lat="42.94172599999995" lon="-1.4704279999999967">
        <ele>796.857</ele>
        <time>2022-08-24T14:38:19Z</time>
      </trkpt>
      <trkpt lat="42.94170399999995" lon="-1.4704419999999967">
        <ele>796.464</ele>
        <time>2022-08-24T14:38:20Z</time>
      </trkpt>
      <trkpt lat="42.94168499999995" lon="-1.4704539999999966">
        <ele>796.067</ele>
        <time>2022-08-24T14:38:21Z</time>
      </trkpt>
      <trkpt lat="42.94166899999995" lon="-1.4704649999999966">
        <ele>795.871</ele>
        <time>2022-08-24T14:38:22Z</time>
      </trkpt>
      <trkpt lat="42.94165699999995" lon="-1.4704749999999966">
        <ele>795.430</ele>
        <time>2022-08-24T14:38:23Z</time>
      </trkpt>
      <trkpt lat="42.94164899999995" lon="-1.4704799999999967">
        <ele>795.287</ele>
        <time>2022-08-24T14:38:24Z</time>
      </trkpt>
      <trkpt lat="42.941621999999946" lon="-1.4705169999999967">
        <ele>794.042</ele>
        <time>2022-08-24T14:39:09Z</time>
      </trkpt>
      <trkpt lat="42.941557999999944" lon="-1.4705899999999967">
        <ele>794.226</ele>
        <time>2022-08-24T14:39:12Z</time>
      </trkpt>
      <trkpt lat="42.941404999999946" lon="-1.4706959999999967">
        <ele>794.409</ele>
        <time>2022-08-24T14:39:18Z</time>
      </trkpt>
      <trkpt lat="42.941382999999945" lon="-1.4707159999999966">
        <ele>794.489</ele>
        <time>2022-08-24T14:39:19Z</time>
      </trkpt>
      <trkpt lat="42.94125499999995" lon="-1.4708099999999966">
        <ele>794.459</ele>
        <time>2022-08-24T14:39:24Z</time>
      </trkpt>
      <trkpt lat="42.94122899999995" lon="-1.4708229999999967">
        <ele>794.469</ele>
        <time>2022-08-24T14:39:25Z</time>
      </trkpt>
      <trkpt lat="42.94120399999995" lon="-1.4708329999999967">
        <ele>794.485</ele>
        <time>2022-08-24T14:39:26Z</time>
      </trkpt>
      <trkpt lat="42.94117899999995" lon="-1.4708449999999966">
        <ele>794.437</ele>
        <time>2022-08-24T14:39:27Z</time>
      </trkpt>
      <trkpt lat="42.941154999999945" lon="-1.4708569999999965">
        <ele>794.664</ele>
        <time>2022-08-24T14:39:28Z</time>
      </trkpt>
      <trkpt lat="42.94112899999995" lon="-1.4708679999999965">
        <ele>794.697</ele>
        <time>2022-08-24T14:39:29Z</time>
      </trkpt>
      <trkpt lat="42.940996999999946" lon="-1.4709479999999966">
        <ele>794.831</ele>
        <time>2022-08-24T14:39:34Z</time>
      </trkpt>
      <trkpt lat="42.940949999999944" lon="-1.4709679999999965">
        <ele>794.870</ele>
        <time>2022-08-24T14:39:36Z</time>
      </trkpt>
      <trkpt lat="42.94092899999995" lon="-1.4709699999999966">
        <ele>795.075</ele>
        <time>2022-08-24T14:39:37Z</time>
      </trkpt>
      <trkpt lat="42.94090799999995" lon="-1.4709779999999966">
        <ele>795.028</ele>
        <time>2022-08-24T14:39:38Z</time>
      </trkpt>
      <trkpt lat="42.940886999999954" lon="-1.4709899999999965">
        <ele>795.220</ele>
        <time>2022-08-24T14:39:39Z</time>
      </trkpt>
      <trkpt lat="42.94084599999995" lon="-1.4710239999999966">
        <ele>795.409</ele>
        <time>2022-08-24T14:39:41Z</time>
      </trkpt>
      <trkpt lat="42.94082399999995" lon="-1.4710419999999966">
        <ele>795.428</ele>
        <time>2022-08-24T14:39:42Z</time>
      </trkpt>
      <trkpt lat="42.94079799999995" lon="-1.4710599999999967">
        <ele>795.448</ele>
        <time>2022-08-24T14:39:43Z</time>
      </trkpt>
      <trkpt lat="42.94077099999995" lon="-1.4710739999999967">
        <ele>795.438</ele>
        <time>2022-08-24T14:39:44Z</time>
      </trkpt>
      <trkpt lat="42.94074999999995" lon="-1.4710839999999967">
        <ele>795.454</ele>
        <time>2022-08-24T14:39:45Z</time>
      </trkpt>
      <trkpt lat="42.940613999999954" lon="-1.4711419999999966">
        <ele>795.286</ele>
        <time>2022-08-24T14:39:49Z</time>
      </trkpt>
      <trkpt lat="42.94057599999995" lon="-1.4711549999999967">
        <ele>795.263</ele>
        <time>2022-08-24T14:39:50Z</time>
      </trkpt>
      <trkpt lat="42.94054699999995" lon="-1.4711669999999966">
        <ele>794.846</ele>
        <time>2022-08-24T14:39:51Z</time>
      </trkpt>
      <trkpt lat="42.940520999999954" lon="-1.4711819999999967">
        <ele>794.660</ele>
        <time>2022-08-24T14:39:52Z</time>
      </trkpt>
      <trkpt lat="42.940494999999956" lon="-1.4711989999999966">
        <ele>794.449</ele>
        <time>2022-08-24T14:39:53Z</time>
      </trkpt>
      <trkpt lat="42.940461999999954" lon="-1.4712169999999967">
        <ele>794.062</ele>
        <time>2022-08-24T14:39:54Z</time>
      </trkpt>
      <trkpt lat="42.94042999999996" lon="-1.4712329999999967">
        <ele>793.083</ele>
        <time>2022-08-24T14:39:55Z</time>
      </trkpt>
      <trkpt lat="42.94040699999996" lon="-1.4712439999999967">
        <ele>792.411</ele>
        <time>2022-08-24T14:39:56Z</time>
      </trkpt>
      <trkpt lat="42.940356999999956" lon="-1.4712619999999967">
        <ele>791.809</ele>
        <time>2022-08-24T14:39:58Z</time>
      </trkpt>
      <trkpt lat="42.940281999999954" lon="-1.4712989999999968">
        <ele>791.257</ele>
        <time>2022-08-24T14:40:00Z</time>
      </trkpt>
      <trkpt lat="42.940188999999954" lon="-1.471340999999997">
        <ele>790.647</ele>
        <time>2022-08-24T14:40:02Z</time>
      </trkpt>
      <trkpt lat="42.940109999999954" lon="-1.471391999999997">
        <ele>789.667</ele>
        <time>2022-08-24T14:40:04Z</time>
      </trkpt>
      <trkpt lat="42.94008799999995" lon="-1.471412999999997">
        <ele>789.033</ele>
        <time>2022-08-24T14:40:05Z</time>
      </trkpt>
      <trkpt lat="42.940067999999954" lon="-1.471437999999997">
        <ele>788.475</ele>
        <time>2022-08-24T14:40:06Z</time>
      </trkpt>
      <trkpt lat="42.940044999999955" lon="-1.471469999999997">
        <ele>787.422</ele>
        <time>2022-08-24T14:40:07Z</time>
      </trkpt>
      <trkpt lat="42.94001299999996" lon="-1.471506999999997">
        <ele>787.015</ele>
        <time>2022-08-24T14:40:08Z</time>
      </trkpt>
      <trkpt lat="42.939917999999956" lon="-1.471588999999997">
        <ele>786.289</ele>
        <time>2022-08-24T14:40:10Z</time>
      </trkpt>
      <trkpt lat="42.939864999999955" lon="-1.471614999999997">
        <ele>786.028</ele>
        <time>2022-08-24T14:40:11Z</time>
      </trkpt>
      <trkpt lat="42.93983599999996" lon="-1.471646999999997">
        <ele>785.857</ele>
        <time>2022-08-24T14:40:12Z</time>
      </trkpt>
      <trkpt lat="42.939810999999956" lon="-1.471684999999997">
        <ele>785.600</ele>
        <time>2022-08-24T14:40:13Z</time>
      </trkpt>
      <trkpt lat="42.93978199999996" lon="-1.471716999999997">
        <ele>785.220</ele>
        <time>2022-08-24T14:40:14Z</time>
      </trkpt>
      <trkpt lat="42.939751999999956" lon="-1.471740999999997">
        <ele>784.809</ele>
        <time>2022-08-24T14:40:15Z</time>
      </trkpt>
      <trkpt lat="42.939695999999955" lon="-1.471806999999997">
        <ele>783.846</ele>
        <time>2022-08-24T14:40:17Z</time>
      </trkpt>
      <trkpt lat="42.93966699999996" lon="-1.471849999999997">
        <ele>783.656</ele>
        <time>2022-08-24T14:40:18Z</time>
      </trkpt>
      <trkpt lat="42.93960699999996" lon="-1.471950999999997">
        <ele>783.226</ele>
        <time>2022-08-24T14:40:20Z</time>
      </trkpt>
      <trkpt lat="42.93953999999996" lon="-1.4719999999999969">
        <ele>782.662</ele>
        <time>2022-08-24T14:40:22Z</time>
      </trkpt>
      <trkpt lat="42.93949399999996" lon="-1.4720519999999968">
        <ele>782.464</ele>
        <time>2022-08-24T14:40:23Z</time>
      </trkpt>
      <trkpt lat="42.93944699999996" lon="-1.4721199999999968">
        <ele>782.071</ele>
        <time>2022-08-24T14:40:24Z</time>
      </trkpt>
      <trkpt lat="42.93942099999996" lon="-1.4721349999999969">
        <ele>781.864</ele>
        <time>2022-08-24T14:40:25Z</time>
      </trkpt>
      <trkpt lat="42.93936599999996" lon="-1.4721709999999968">
        <ele>781.698</ele>
        <time>2022-08-24T14:40:26Z</time>
      </trkpt>
      <trkpt lat="42.93931799999996" lon="-1.4722009999999968">
        <ele>781.237</ele>
        <time>2022-08-24T14:40:27Z</time>
      </trkpt>
      <trkpt lat="42.939293999999954" lon="-1.4722269999999968">
        <ele>780.861</ele>
        <time>2022-08-24T14:40:28Z</time>
      </trkpt>
      <trkpt lat="42.939245999999955" lon="-1.472276999999997">
        <ele>780.421</ele>
        <time>2022-08-24T14:40:29Z</time>
      </trkpt>
      <trkpt lat="42.939203999999954" lon="-1.472330999999997">
        <ele>780.413</ele>
        <time>2022-08-24T14:40:30Z</time>
      </trkpt>
      <trkpt lat="42.93914099999996" lon="-1.472411999999997">
        <ele>779.609</ele>
        <time>2022-08-24T14:40:32Z</time>
      </trkpt>
      <trkpt lat="42.93910999999996" lon="-1.472438999999997">
        <ele>779.437</ele>
        <time>2022-08-24T14:40:33Z</time>
      </trkpt>
      <trkpt lat="42.939093999999955" lon="-1.472475999999997">
        <ele>779.487</ele>
        <time>2022-08-24T14:40:34Z</time>
      </trkpt>
      <trkpt lat="42.93907799999995" lon="-1.472506999999997">
        <ele>779.297</ele>
        <time>2022-08-24T14:40:35Z</time>
      </trkpt>
      <trkpt lat="42.939056999999956" lon="-1.4725429999999968">
        <ele>778.833</ele>
        <time>2022-08-24T14:40:36Z</time>
      </trkpt>
      <trkpt lat="42.939037999999954" lon="-1.4725809999999968">
        <ele>778.885</ele>
        <time>2022-08-24T14:40:37Z</time>
      </trkpt>
      <trkpt lat="42.939020999999954" lon="-1.472622999999997">
        <ele>778.432</ele>
        <time>2022-08-24T14:40:38Z</time>
      </trkpt>
      <trkpt lat="42.939006999999954" lon="-1.472646999999997">
        <ele>778.215</ele>
        <time>2022-08-24T14:40:39Z</time>
      </trkpt>
      <trkpt lat="42.93899699999995" lon="-1.472660999999997">
        <ele>777.899</ele>
        <time>2022-08-24T14:40:40Z</time>
      </trkpt>
      <trkpt lat="42.93898599999995" lon="-1.472681999999997">
        <ele>777.228</ele>
        <time>2022-08-24T14:40:41Z</time>
      </trkpt>
      <trkpt lat="42.93897499999995" lon="-1.472697999999997">
        <ele>776.824</ele>
        <time>2022-08-24T14:40:42Z</time>
      </trkpt>
      <trkpt lat="42.93896099999995" lon="-1.472726999999997">
        <ele>776.204</ele>
        <time>2022-08-24T14:40:43Z</time>
      </trkpt>
      <trkpt lat="42.93894999999995" lon="-1.472754999999997">
        <ele>776.014</ele>
        <time>2022-08-24T14:40:44Z</time>
      </trkpt>
      <trkpt lat="42.938936999999946" lon="-1.472783999999997">
        <ele>775.809</ele>
        <time>2022-08-24T14:40:45Z</time>
      </trkpt>
      <trkpt lat="42.938858999999944" lon="-1.472865999999997">
        <ele>775.233</ele>
        <time>2022-08-24T14:40:48Z</time>
      </trkpt>
      <trkpt lat="42.93883799999995" lon="-1.472884999999997">
        <ele>775.023</ele>
        <time>2022-08-24T14:40:49Z</time>
      </trkpt>
      <trkpt lat="42.93881699999995" lon="-1.4729099999999968">
        <ele>774.463</ele>
        <time>2022-08-24T14:40:50Z</time>
      </trkpt>
      <trkpt lat="42.93879999999995" lon="-1.4729449999999968">
        <ele>774.059</ele>
        <time>2022-08-24T14:40:51Z</time>
      </trkpt>
      <trkpt lat="42.93878599999995" lon="-1.472978999999997">
        <ele>773.281</ele>
        <time>2022-08-24T14:40:52Z</time>
      </trkpt>
      <trkpt lat="42.93877099999995" lon="-1.473004999999997">
        <ele>773.078</ele>
        <time>2022-08-24T14:40:53Z</time>
      </trkpt>
      <trkpt lat="42.93872999999995" lon="-1.473062999999997">
        <ele>771.881</ele>
        <time>2022-08-24T14:40:55Z</time>
      </trkpt>
      <trkpt lat="42.93868499999995" lon="-1.473166999999997">
        <ele>771.435</ele>
        <time>2022-08-24T14:40:57Z</time>
      </trkpt>
      <trkpt lat="42.93867099999995" lon="-1.473205999999997">
        <ele>771.044</ele>
        <time>2022-08-24T14:40:58Z</time>
      </trkpt>
      <trkpt lat="42.93865499999995" lon="-1.473245999999997">
        <ele>770.433</ele>
        <time>2022-08-24T14:40:59Z</time>
      </trkpt>
      <trkpt lat="42.938624999999945" lon="-1.4733279999999969">
        <ele>770.023</ele>
        <time>2022-08-24T14:41:01Z</time>
      </trkpt>
      <trkpt lat="42.93860399999995" lon="-1.4733739999999969">
        <ele>769.815</ele>
        <time>2022-08-24T14:41:02Z</time>
      </trkpt>
      <trkpt lat="42.938570999999946" lon="-1.473418999999997">
        <ele>769.409</ele>
        <time>2022-08-24T14:41:03Z</time>
      </trkpt>
      <trkpt lat="42.93853899999995" lon="-1.473464999999997">
        <ele>769.064</ele>
        <time>2022-08-24T14:41:04Z</time>
      </trkpt>
      <trkpt lat="42.938525999999946" lon="-1.4735039999999968">
        <ele>768.834</ele>
        <time>2022-08-24T14:41:05Z</time>
      </trkpt>
      <trkpt lat="42.938511999999946" lon="-1.4735439999999969">
        <ele>768.434</ele>
        <time>2022-08-24T14:41:06Z</time>
      </trkpt>
      <trkpt lat="42.938495999999944" lon="-1.4735759999999969">
        <ele>768.050</ele>
        <time>2022-08-24T14:41:07Z</time>
      </trkpt>
      <trkpt lat="42.93847799999995" lon="-1.4736169999999968">
        <ele>767.832</ele>
        <time>2022-08-24T14:41:08Z</time>
      </trkpt>
      <trkpt lat="42.93845399999994" lon="-1.473672999999997">
        <ele>767.019</ele>
        <time>2022-08-24T14:41:09Z</time>
      </trkpt>
      <trkpt lat="42.93842599999994" lon="-1.4737249999999968">
        <ele>766.872</ele>
        <time>2022-08-24T14:41:10Z</time>
      </trkpt>
      <trkpt lat="42.93838699999994" lon="-1.4737869999999968">
        <ele>766.046</ele>
        <time>2022-08-24T14:41:11Z</time>
      </trkpt>
      <trkpt lat="42.93831399999994" lon="-1.4739409999999968">
        <ele>765.425</ele>
        <time>2022-08-24T14:41:13Z</time>
      </trkpt>
      <trkpt lat="42.93822099999994" lon="-1.474104999999997">
        <ele>765.077</ele>
        <time>2022-08-24T14:41:15Z</time>
      </trkpt>
      <trkpt lat="42.93820799999994" lon="-1.474166999999997">
        <ele>764.661</ele>
        <time>2022-08-24T14:41:16Z</time>
      </trkpt>
      <trkpt lat="42.93814399999994" lon="-1.474297999999997">
        <ele>764.227</ele>
        <time>2022-08-24T14:41:18Z</time>
      </trkpt>
      <trkpt lat="42.938119999999934" lon="-1.474335999999997">
        <ele>764.009</ele>
        <time>2022-08-24T14:41:19Z</time>
      </trkpt>
      <trkpt lat="42.93810199999994" lon="-1.474403999999997">
        <ele>763.838</ele>
        <time>2022-08-24T14:41:20Z</time>
      </trkpt>
      <trkpt lat="42.938082999999935" lon="-1.474549999999997">
        <ele>763.688</ele>
        <time>2022-08-24T14:41:22Z</time>
      </trkpt>
      <trkpt lat="42.93806799999994" lon="-1.4746129999999968">
        <ele>763.628</ele>
        <time>2022-08-24T14:41:23Z</time>
      </trkpt>
      <trkpt lat="42.938048999999936" lon="-1.4746479999999969">
        <ele>763.624</ele>
        <time>2022-08-24T14:41:24Z</time>
      </trkpt>
      <trkpt lat="42.93799099999993" lon="-1.474692999999997">
        <ele>763.636</ele>
        <time>2022-08-24T14:41:25Z</time>
      </trkpt>
      <trkpt lat="42.93795299999993" lon="-1.4747799999999969">
        <ele>763.473</ele>
        <time>2022-08-24T14:41:26Z</time>
      </trkpt>
      <trkpt lat="42.93792799999993" lon="-1.4748499999999969">
        <ele>763.416</ele>
        <time>2022-08-24T14:41:27Z</time>
      </trkpt>
      <trkpt lat="42.93791899999993" lon="-1.474910999999997">
        <ele>763.240</ele>
        <time>2022-08-24T14:41:28Z</time>
      </trkpt>
      <trkpt lat="42.93792299999993" lon="-1.474982999999997">
        <ele>763.289</ele>
        <time>2022-08-24T14:41:29Z</time>
      </trkpt>
      <trkpt lat="42.937934999999925" lon="-1.475075999999997">
        <ele>763.273</ele>
        <time>2022-08-24T14:41:30Z</time>
      </trkpt>
      <trkpt lat="42.93795299999992" lon="-1.475139999999997">
        <ele>763.085</ele>
        <time>2022-08-24T14:41:31Z</time>
      </trkpt>
      <trkpt lat="42.93793099999992" lon="-1.475204999999997">
        <ele>763.213</ele>
        <time>2022-08-24T14:41:32Z</time>
      </trkpt>
      <trkpt lat="42.93788999999992" lon="-1.475292999999997">
        <ele>763.209</ele>
        <time>2022-08-24T14:41:33Z</time>
      </trkpt>
      <trkpt lat="42.93786899999992" lon="-1.475360999999997">
        <ele>763.298</ele>
        <time>2022-08-24T14:41:34Z</time>
      </trkpt>
      <trkpt lat="42.937850999999924" lon="-1.4753869999999971">
        <ele>763.278</ele>
        <time>2022-08-24T14:41:35Z</time>
      </trkpt>
      <trkpt lat="42.937841999999925" lon="-1.4754019999999972">
        <ele>763.438</ele>
        <time>2022-08-24T14:41:36Z</time>
      </trkpt>
      <trkpt lat="42.93783499999993" lon="-1.4754289999999972">
        <ele>763.844</ele>
        <time>2022-08-24T14:41:37Z</time>
      </trkpt>
      <trkpt lat="42.93781499999993" lon="-1.4754659999999973">
        <ele>764.026</ele>
        <time>2022-08-24T14:41:38Z</time>
      </trkpt>
      <trkpt lat="42.93780699999993" lon="-1.4754859999999972">
        <ele>763.843</ele>
        <time>2022-08-24T14:41:39Z</time>
      </trkpt>
      <trkpt lat="42.937804999999926" lon="-1.4755109999999971">
        <ele>764.236</ele>
        <time>2022-08-24T14:41:40Z</time>
      </trkpt>
      <trkpt lat="42.93777799999992" lon="-1.475594999999997">
        <ele>764.480</ele>
        <time>2022-08-24T14:41:43Z</time>
      </trkpt>
      <trkpt lat="42.93776999999992" lon="-1.4756179999999972">
        <ele>764.649</ele>
        <time>2022-08-24T14:41:44Z</time>
      </trkpt>
      <trkpt lat="42.93776699999992" lon="-1.4756399999999972">
        <ele>764.464</ele>
        <time>2022-08-24T14:41:45Z</time>
      </trkpt>
      <trkpt lat="42.93774999999992" lon="-1.4756999999999971">
        <ele>765.006</ele>
        <time>2022-08-24T14:41:47Z</time>
      </trkpt>
      <trkpt lat="42.93773399999992" lon="-1.4757559999999972">
        <ele>765.416</ele>
        <time>2022-08-24T14:41:49Z</time>
      </trkpt>
      <trkpt lat="42.93772799999992" lon="-1.4757939999999972">
        <ele>765.609</ele>
        <time>2022-08-24T14:41:50Z</time>
      </trkpt>
      <trkpt lat="42.93773199999992" lon="-1.4758369999999972">
        <ele>765.827</ele>
        <time>2022-08-24T14:41:51Z</time>
      </trkpt>
      <trkpt lat="42.93774199999992" lon="-1.4759099999999972">
        <ele>766.267</ele>
        <time>2022-08-24T14:41:53Z</time>
      </trkpt>
      <trkpt lat="42.93774299999992" lon="-1.4759399999999971">
        <ele>766.437</ele>
        <time>2022-08-24T14:41:54Z</time>
      </trkpt>
      <trkpt lat="42.937732999999916" lon="-1.4759689999999972">
        <ele>766.653</ele>
        <time>2022-08-24T14:41:55Z</time>
      </trkpt>
      <trkpt lat="42.93771999999991" lon="-1.4760389999999972">
        <ele>766.865</ele>
        <time>2022-08-24T14:41:57Z</time>
      </trkpt>
      <trkpt lat="42.937727999999915" lon="-1.4760739999999972">
        <ele>767.062</ele>
        <time>2022-08-24T14:41:58Z</time>
      </trkpt>
      <trkpt lat="42.937727999999915" lon="-1.4761139999999973">
        <ele>767.465</ele>
        <time>2022-08-24T14:41:59Z</time>
      </trkpt>
      <trkpt lat="42.93772299999991" lon="-1.4761539999999973">
        <ele>767.689</ele>
        <time>2022-08-24T14:42:00Z</time>
      </trkpt>
      <trkpt lat="42.93772399999991" lon="-1.4761869999999973">
        <ele>767.818</ele>
        <time>2022-08-24T14:42:01Z</time>
      </trkpt>
      <trkpt lat="42.93769999999991" lon="-1.4762379999999973">
        <ele>767.879</ele>
        <time>2022-08-24T14:42:02Z</time>
      </trkpt>
      <trkpt lat="42.93769099999991" lon="-1.4762919999999973">
        <ele>767.805</ele>
        <time>2022-08-24T14:42:03Z</time>
      </trkpt>
      <trkpt lat="42.93768499999991" lon="-1.4763419999999974">
        <ele>767.825</ele>
        <time>2022-08-24T14:42:04Z</time>
      </trkpt>
      <trkpt lat="42.93767799999991" lon="-1.4763839999999975">
        <ele>767.809</ele>
        <time>2022-08-24T14:42:05Z</time>
      </trkpt>
      <trkpt lat="42.937670999999916" lon="-1.4764309999999974">
        <ele>768.098</ele>
        <time>2022-08-24T14:42:06Z</time>
      </trkpt>
      <trkpt lat="42.937670999999916" lon="-1.4764659999999974">
        <ele>768.048</ele>
        <time>2022-08-24T14:42:07Z</time>
      </trkpt>
      <trkpt lat="42.937673999999916" lon="-1.4765089999999974">
        <ele>768.268</ele>
        <time>2022-08-24T14:42:08Z</time>
      </trkpt>
      <trkpt lat="42.93766799999992" lon="-1.4765489999999974">
        <ele>768.244</ele>
        <time>2022-08-24T14:42:09Z</time>
      </trkpt>
      <trkpt lat="42.93766099999992" lon="-1.4765899999999974">
        <ele>768.226</ele>
        <time>2022-08-24T14:42:10Z</time>
      </trkpt>
      <trkpt lat="42.93765899999992" lon="-1.4766429999999975">
        <ele>768.213</ele>
        <time>2022-08-24T14:42:11Z</time>
      </trkpt>
      <trkpt lat="42.93764999999992" lon="-1.4766979999999974">
        <ele>768.456</ele>
        <time>2022-08-24T14:42:12Z</time>
      </trkpt>
      <trkpt lat="42.93763999999992" lon="-1.4767369999999973">
        <ele>768.410</ele>
        <time>2022-08-24T14:42:13Z</time>
      </trkpt>
      <trkpt lat="42.937611999999916" lon="-1.4767839999999972">
        <ele>768.439</ele>
        <time>2022-08-24T14:42:14Z</time>
      </trkpt>
      <trkpt lat="42.93760299999992" lon="-1.4768089999999972">
        <ele>768.444</ele>
        <time>2022-08-24T14:42:15Z</time>
      </trkpt>
      <trkpt lat="42.937589999999915" lon="-1.4768589999999973">
        <ele>768.405</ele>
        <time>2022-08-24T14:42:16Z</time>
      </trkpt>
      <trkpt lat="42.93758899999992" lon="-1.4769109999999972">
        <ele>768.415</ele>
        <time>2022-08-24T14:42:17Z</time>
      </trkpt>
      <trkpt lat="42.937572999999915" lon="-1.4769469999999971">
        <ele>768.609</ele>
        <time>2022-08-24T14:42:18Z</time>
      </trkpt>
      <trkpt lat="42.93755499999992" lon="-1.4769709999999971">
        <ele>768.855</ele>
        <time>2022-08-24T14:42:19Z</time>
      </trkpt>
      <trkpt lat="42.93754399999992" lon="-1.4769889999999972">
        <ele>769.435</ele>
        <time>2022-08-24T14:42:20Z</time>
      </trkpt>
      <trkpt lat="42.937533999999914" lon="-1.4770079999999972">
        <ele>769.675</ele>
        <time>2022-08-24T14:42:21Z</time>
      </trkpt>
      <trkpt lat="42.93752699999992" lon="-1.4770259999999973">
        <ele>769.891</ele>
        <time>2022-08-24T14:42:22Z</time>
      </trkpt>
      <trkpt lat="42.93751899999992" lon="-1.4770429999999972">
        <ele>769.823</ele>
        <time>2022-08-24T14:42:23Z</time>
      </trkpt>
      <trkpt lat="42.93750699999992" lon="-1.4770589999999972">
        <ele>770.020</ele>
        <time>2022-08-24T14:42:24Z</time>
      </trkpt>
      <trkpt lat="42.93749299999992" lon="-1.4770839999999972">
        <ele>770.083</ele>
        <time>2022-08-24T14:42:25Z</time>
      </trkpt>
      <trkpt lat="42.93748499999992" lon="-1.4771069999999973">
        <ele>770.067</ele>
        <time>2022-08-24T14:42:26Z</time>
      </trkpt>
      <trkpt lat="42.93748199999992" lon="-1.4771229999999973">
        <ele>770.246</ele>
        <time>2022-08-24T14:42:27Z</time>
      </trkpt>
      <trkpt lat="42.93747599999992" lon="-1.4771519999999974">
        <ele>770.267</ele>
        <time>2022-08-24T14:42:28Z</time>
      </trkpt>
      <trkpt lat="42.937473999999916" lon="-1.4771859999999974">
        <ele>770.681</ele>
        <time>2022-08-24T14:42:29Z</time>
      </trkpt>
      <trkpt lat="42.937473999999916" lon="-1.4772229999999975">
        <ele>770.619</ele>
        <time>2022-08-24T14:42:30Z</time>
      </trkpt>
      <trkpt lat="42.93747799999991" lon="-1.4772569999999976">
        <ele>770.809</ele>
        <time>2022-08-24T14:42:31Z</time>
      </trkpt>
      <trkpt lat="42.937485999999915" lon="-1.4772949999999976">
        <ele>770.857</ele>
        <time>2022-08-24T14:42:32Z</time>
      </trkpt>
      <trkpt lat="42.937490999999916" lon="-1.4773339999999975">
        <ele>770.877</ele>
        <time>2022-08-24T14:42:33Z</time>
      </trkpt>
      <trkpt lat="42.93750099999992" lon="-1.4773779999999974">
        <ele>770.847</ele>
        <time>2022-08-24T14:42:34Z</time>
      </trkpt>
      <trkpt lat="42.93751199999992" lon="-1.4774349999999974">
        <ele>771.053</ele>
        <time>2022-08-24T14:42:35Z</time>
      </trkpt>
      <trkpt lat="42.93752199999992" lon="-1.4774859999999974">
        <ele>771.065</ele>
        <time>2022-08-24T14:42:36Z</time>
      </trkpt>
      <trkpt lat="42.937532999999924" lon="-1.4775419999999975">
        <ele>771.052</ele>
        <time>2022-08-24T14:42:37Z</time>
      </trkpt>
      <trkpt lat="42.937540999999925" lon="-1.4775879999999975">
        <ele>771.015</ele>
        <time>2022-08-24T14:42:38Z</time>
      </trkpt>
      <trkpt lat="42.93754999999992" lon="-1.4776489999999975">
        <ele>771.069</ele>
        <time>2022-08-24T14:42:39Z</time>
      </trkpt>
      <trkpt lat="42.93755999999993" lon="-1.4777249999999975">
        <ele>770.868</ele>
        <time>2022-08-24T14:42:40Z</time>
      </trkpt>
      <trkpt lat="42.93757099999993" lon="-1.4777869999999975">
        <ele>770.638</ele>
        <time>2022-08-24T14:42:41Z</time>
      </trkpt>
      <trkpt lat="42.937582999999925" lon="-1.4778479999999976">
        <ele>770.670</ele>
        <time>2022-08-24T14:42:42Z</time>
      </trkpt>
      <trkpt lat="42.93761499999992" lon="-1.4780219999999975">
        <ele>770.017</ele>
        <time>2022-08-24T14:42:45Z</time>
      </trkpt>
      <trkpt lat="42.93762699999992" lon="-1.4780889999999975">
        <ele>769.609</ele>
        <time>2022-08-24T14:42:46Z</time>
      </trkpt>
      <trkpt lat="42.93763299999992" lon="-1.4781389999999976">
        <ele>769.654</ele>
        <time>2022-08-24T14:42:47Z</time>
      </trkpt>
      <trkpt lat="42.93763099999992" lon="-1.4781799999999976">
        <ele>769.484</ele>
        <time>2022-08-24T14:42:48Z</time>
      </trkpt>
      <trkpt lat="42.93763099999992" lon="-1.4782239999999975">
        <ele>769.444</ele>
        <time>2022-08-24T14:42:49Z</time>
      </trkpt>
      <trkpt lat="42.93763099999992" lon="-1.4782659999999976">
        <ele>769.470</ele>
        <time>2022-08-24T14:42:50Z</time>
      </trkpt>
      <trkpt lat="42.93764399999992" lon="-1.4785169999999976">
        <ele>769.022</ele>
        <time>2022-08-24T14:42:55Z</time>
      </trkpt>
      <trkpt lat="42.93765199999992" lon="-1.4787049999999977">
        <ele>768.849</ele>
        <time>2022-08-24T14:42:58Z</time>
      </trkpt>
      <trkpt lat="42.93765699999992" lon="-1.4787449999999978">
        <ele>768.872</ele>
        <time>2022-08-24T14:42:59Z</time>
      </trkpt>
      <trkpt lat="42.93767099999992" lon="-1.4788609999999978">
        <ele>768.666</ele>
        <time>2022-08-24T14:43:01Z</time>
      </trkpt>
      <trkpt lat="42.937681999999924" lon="-1.4789349999999977">
        <ele>768.465</ele>
        <time>2022-08-24T14:43:02Z</time>
      </trkpt>
      <trkpt lat="42.93769699999992" lon="-1.4789919999999976">
        <ele>768.033</ele>
        <time>2022-08-24T14:43:03Z</time>
      </trkpt>
      <trkpt lat="42.93771399999992" lon="-1.4790309999999975">
        <ele>767.823</ele>
        <time>2022-08-24T14:43:04Z</time>
      </trkpt>
      <trkpt lat="42.93774999999992" lon="-1.4791399999999975">
        <ele>767.215</ele>
        <time>2022-08-24T14:43:06Z</time>
      </trkpt>
      <trkpt lat="42.937765999999925" lon="-1.4792139999999974">
        <ele>766.609</ele>
        <time>2022-08-24T14:43:07Z</time>
      </trkpt>
      <trkpt lat="42.937791999999924" lon="-1.4793409999999974">
        <ele>766.264</ele>
        <time>2022-08-24T14:43:09Z</time>
      </trkpt>
      <trkpt lat="42.93781299999992" lon="-1.4794539999999974">
        <ele>765.884</ele>
        <time>2022-08-24T14:43:11Z</time>
      </trkpt>
      <trkpt lat="42.93781499999992" lon="-1.4794999999999974">
        <ele>765.624</ele>
        <time>2022-08-24T14:43:12Z</time>
      </trkpt>
      <trkpt lat="42.93781599999992" lon="-1.4795469999999973">
        <ele>765.420</ele>
        <time>2022-08-24T14:43:13Z</time>
      </trkpt>
      <trkpt lat="42.93782199999992" lon="-1.4795829999999972">
        <ele>765.442</ele>
        <time>2022-08-24T14:43:14Z</time>
      </trkpt>
      <trkpt lat="42.93783499999992" lon="-1.4796659999999973">
        <ele>765.219</ele>
        <time>2022-08-24T14:43:16Z</time>
      </trkpt>
      <trkpt lat="42.93785399999992" lon="-1.4797679999999973">
        <ele>765.032</ele>
        <time>2022-08-24T14:43:18Z</time>
      </trkpt>
      <trkpt lat="42.937864999999924" lon="-1.4798389999999972">
        <ele>764.816</ele>
        <time>2022-08-24T14:43:19Z</time>
      </trkpt>
      <trkpt lat="42.93788299999992" lon="-1.4799159999999973">
        <ele>764.665</ele>
        <time>2022-08-24T14:43:20Z</time>
      </trkpt>
      <trkpt lat="42.93790099999992" lon="-1.4799879999999974">
        <ele>764.276</ele>
        <time>2022-08-24T14:43:21Z</time>
      </trkpt>
      <trkpt lat="42.93792299999992" lon="-1.4800549999999975">
        <ele>764.090</ele>
        <time>2022-08-24T14:43:22Z</time>
      </trkpt>
      <trkpt lat="42.93794599999992" lon="-1.4801139999999975">
        <ele>763.819</ele>
        <time>2022-08-24T14:43:23Z</time>
      </trkpt>
      <trkpt lat="42.937966999999915" lon="-1.4801729999999975">
        <ele>763.609</ele>
        <time>2022-08-24T14:43:24Z</time>
      </trkpt>
      <trkpt lat="42.93798499999991" lon="-1.4802349999999975">
        <ele>763.448</ele>
        <time>2022-08-24T14:43:25Z</time>
      </trkpt>
      <trkpt lat="42.93799299999991" lon="-1.4802829999999976">
        <ele>763.228</ele>
        <time>2022-08-24T14:43:26Z</time>
      </trkpt>
      <trkpt lat="42.938003999999914" lon="-1.4803309999999976">
        <ele>763.298</ele>
        <time>2022-08-24T14:43:27Z</time>
      </trkpt>
      <trkpt lat="42.93801599999991" lon="-1.4803769999999976">
        <ele>763.274</ele>
        <time>2022-08-24T14:43:28Z</time>
      </trkpt>
      <trkpt lat="42.93803099999991" lon="-1.4804369999999976">
        <ele>763.086</ele>
        <time>2022-08-24T14:43:29Z</time>
      </trkpt>
      <trkpt lat="42.93806299999991" lon="-1.4805839999999975">
        <ele>762.853</ele>
        <time>2022-08-24T14:43:32Z</time>
      </trkpt>
      <trkpt lat="42.938071999999906" lon="-1.4806339999999976">
        <ele>762.626</ele>
        <time>2022-08-24T14:43:33Z</time>
      </trkpt>
      <trkpt lat="42.938083999999904" lon="-1.4806899999999976">
        <ele>762.420</ele>
        <time>2022-08-24T14:43:34Z</time>
      </trkpt>
      <trkpt lat="42.938091999999905" lon="-1.4807319999999977">
        <ele>762.449</ele>
        <time>2022-08-24T14:43:35Z</time>
      </trkpt>
      <trkpt lat="42.9380989999999" lon="-1.4807619999999977">
        <ele>762.075</ele>
        <time>2022-08-24T14:43:36Z</time>
      </trkpt>
      <trkpt lat="42.9381079999999" lon="-1.4807909999999977">
        <ele>761.828</ele>
        <time>2022-08-24T14:43:37Z</time>
      </trkpt>
      <trkpt lat="42.9381199999999" lon="-1.4808119999999978">
        <ele>761.620</ele>
        <time>2022-08-24T14:43:38Z</time>
      </trkpt>
      <trkpt lat="42.9381359999999" lon="-1.4808449999999977">
        <ele>761.409</ele>
        <time>2022-08-24T14:43:39Z</time>
      </trkpt>
      <trkpt lat="42.9381509999999" lon="-1.4808779999999977">
        <ele>761.228</ele>
        <time>2022-08-24T14:43:40Z</time>
      </trkpt>
      <trkpt lat="42.938165999999896" lon="-1.4809399999999977">
        <ele>761.058</ele>
        <time>2022-08-24T14:43:42Z</time>
      </trkpt>
      <trkpt lat="42.938171999999895" lon="-1.4809729999999977">
        <ele>760.648</ele>
        <time>2022-08-24T14:43:43Z</time>
      </trkpt>
      <trkpt lat="42.938180999999894" lon="-1.4810149999999977">
        <ele>760.464</ele>
        <time>2022-08-24T14:43:44Z</time>
      </trkpt>
      <trkpt lat="42.93818699999989" lon="-1.4810489999999978">
        <ele>760.246</ele>
        <time>2022-08-24T14:43:45Z</time>
      </trkpt>
      <trkpt lat="42.93819399999989" lon="-1.481077999999998">
        <ele>760.273</ele>
        <time>2022-08-24T14:43:46Z</time>
      </trkpt>
      <trkpt lat="42.93820899999989" lon="-1.481184999999998">
        <ele>760.076</ele>
        <time>2022-08-24T14:43:49Z</time>
      </trkpt>
      <trkpt lat="42.938217999999885" lon="-1.481225999999998">
        <ele>759.630</ele>
        <time>2022-08-24T14:43:50Z</time>
      </trkpt>
      <trkpt lat="42.93822599999989" lon="-1.481257999999998">
        <ele>759.629</ele>
        <time>2022-08-24T14:43:51Z</time>
      </trkpt>
      <trkpt lat="42.93824199999989" lon="-1.481316999999998">
        <ele>759.233</ele>
        <time>2022-08-24T14:43:53Z</time>
      </trkpt>
      <trkpt lat="42.938248999999885" lon="-1.481346999999998">
        <ele>759.023</ele>
        <time>2022-08-24T14:43:54Z</time>
      </trkpt>
      <trkpt lat="42.93825599999988" lon="-1.481378999999998">
        <ele>758.815</ele>
        <time>2022-08-24T14:43:55Z</time>
      </trkpt>
      <trkpt lat="42.93825999999988" lon="-1.481404999999998">
        <ele>758.609</ele>
        <time>2022-08-24T14:43:56Z</time>
      </trkpt>
      <trkpt lat="42.938260999999876" lon="-1.4814339999999981">
        <ele>758.234</ele>
        <time>2022-08-24T14:43:57Z</time>
      </trkpt>
      <trkpt lat="42.938266999999875" lon="-1.4814959999999981">
        <ele>757.834</ele>
        <time>2022-08-24T14:43:59Z</time>
      </trkpt>
      <trkpt lat="42.93827499999988" lon="-1.4815579999999982">
        <ele>757.214</ele>
        <time>2022-08-24T14:44:01Z</time>
      </trkpt>
      <trkpt lat="42.93827499999988" lon="-1.4815799999999981">
        <ele>756.820</ele>
        <time>2022-08-24T14:44:02Z</time>
      </trkpt>
      <trkpt lat="42.93827399999988" lon="-1.4815979999999982">
        <ele>756.692</ele>
        <time>2022-08-24T14:44:03Z</time>
      </trkpt>
      <trkpt lat="42.93827099999988" lon="-1.4816229999999981">
        <ele>756.229</ele>
        <time>2022-08-24T14:44:04Z</time>
      </trkpt>
      <trkpt lat="42.93827599999988" lon="-1.4817119999999981">
        <ele>755.642</ele>
        <time>2022-08-24T14:44:07Z</time>
      </trkpt>
      <trkpt lat="42.93828399999988" lon="-1.4817349999999982">
        <ele>755.436</ele>
        <time>2022-08-24T14:44:08Z</time>
      </trkpt>
      <trkpt lat="42.938293999999885" lon="-1.4817609999999983">
        <ele>755.085</ele>
        <time>2022-08-24T14:44:09Z</time>
      </trkpt>
      <trkpt lat="42.938302999999884" lon="-1.4817889999999982">
        <ele>754.827</ele>
        <time>2022-08-24T14:44:10Z</time>
      </trkpt>
      <trkpt lat="42.938313999999885" lon="-1.4818249999999982">
        <ele>754.468</ele>
        <time>2022-08-24T14:44:11Z</time>
      </trkpt>
      <trkpt lat="42.93833999999988" lon="-1.4819779999999982">
        <ele>753.814</ele>
        <time>2022-08-24T14:44:15Z</time>
      </trkpt>
      <trkpt lat="42.938349999999886" lon="-1.4820239999999982">
        <ele>753.409</ele>
        <time>2022-08-24T14:44:16Z</time>
      </trkpt>
      <trkpt lat="42.938355999999885" lon="-1.4820579999999983">
        <ele>753.273</ele>
        <time>2022-08-24T14:44:17Z</time>
      </trkpt>
      <trkpt lat="42.93836099999989" lon="-1.4820859999999982">
        <ele>752.893</ele>
        <time>2022-08-24T14:44:18Z</time>
      </trkpt>
      <trkpt lat="42.938363999999886" lon="-1.4821089999999983">
        <ele>752.873</ele>
        <time>2022-08-24T14:44:19Z</time>
      </trkpt>
      <trkpt lat="42.93836799999988" lon="-1.4821369999999983">
        <ele>752.469</ele>
        <time>2022-08-24T14:44:20Z</time>
      </trkpt>
      <trkpt lat="42.93837499999988" lon="-1.4821709999999984">
        <ele>752.031</ele>
        <time>2022-08-24T14:44:21Z</time>
      </trkpt>
      <trkpt lat="42.93839299999988" lon="-1.4822739999999983">
        <ele>751.228</ele>
        <time>2022-08-24T14:44:24Z</time>
      </trkpt>
      <trkpt lat="42.938398999999876" lon="-1.4823049999999982">
        <ele>751.271</ele>
        <time>2022-08-24T14:44:25Z</time>
      </trkpt>
      <trkpt lat="42.938412999999876" lon="-1.4823779999999982">
        <ele>751.085</ele>
        <time>2022-08-24T14:44:27Z</time>
      </trkpt>
      <trkpt lat="42.938418999999875" lon="-1.4824119999999983">
        <ele>751.044</ele>
        <time>2022-08-24T14:44:28Z</time>
      </trkpt>
      <trkpt lat="42.93846799999987" lon="-1.4826219999999983">
        <ele>749.852</ele>
        <time>2022-08-24T14:44:33Z</time>
      </trkpt>
      <trkpt lat="42.93849299999987" lon="-1.4827009999999983">
        <ele>749.253</ele>
        <time>2022-08-24T14:44:35Z</time>
      </trkpt>
      <trkpt lat="42.93850199999987" lon="-1.4827479999999982">
        <ele>748.808</ele>
        <time>2022-08-24T14:44:36Z</time>
      </trkpt>
      <trkpt lat="42.93851299999987" lon="-1.482802999999998">
        <ele>748.409</ele>
        <time>2022-08-24T14:44:37Z</time>
      </trkpt>
      <trkpt lat="42.93852499999987" lon="-1.482841999999998">
        <ele>748.256</ele>
        <time>2022-08-24T14:44:38Z</time>
      </trkpt>
      <trkpt lat="42.93853699999987" lon="-1.482867999999998">
        <ele>747.826</ele>
        <time>2022-08-24T14:44:39Z</time>
      </trkpt>
      <trkpt lat="42.938568999999866" lon="-1.482900999999998">
        <ele>747.456</ele>
        <time>2022-08-24T14:44:41Z</time>
      </trkpt>
      <trkpt lat="42.938591999999865" lon="-1.482922999999998">
        <ele>746.872</ele>
        <time>2022-08-24T14:44:42Z</time>
      </trkpt>
      <trkpt lat="42.93861899999987" lon="-1.482942999999998">
        <ele>746.674</ele>
        <time>2022-08-24T14:44:43Z</time>
      </trkpt>
      <trkpt lat="42.93864099999987" lon="-1.4829629999999978">
        <ele>746.221</ele>
        <time>2022-08-24T14:44:44Z</time>
      </trkpt>
      <trkpt lat="42.93865799999987" lon="-1.4829809999999979">
        <ele>746.264</ele>
        <time>2022-08-24T14:44:45Z</time>
      </trkpt>
      <trkpt lat="42.938678999999865" lon="-1.483003999999998">
        <ele>745.878</ele>
        <time>2022-08-24T14:44:46Z</time>
      </trkpt>
      <trkpt lat="42.93869499999987" lon="-1.483018999999998">
        <ele>745.467</ele>
        <time>2022-08-24T14:44:47Z</time>
      </trkpt>
      <trkpt lat="42.93871099999987" lon="-1.4830319999999981">
        <ele>745.229</ele>
        <time>2022-08-24T14:44:48Z</time>
      </trkpt>
      <trkpt lat="42.93875599999987" lon="-1.4831009999999982">
        <ele>744.000</ele>
        <time>2022-08-24T14:44:51Z</time>
      </trkpt>
      <trkpt lat="42.93876999999987" lon="-1.4831359999999982">
        <ele>743.620</ele>
        <time>2022-08-24T14:44:52Z</time>
      </trkpt>
      <trkpt lat="42.93877099999987" lon="-1.4831649999999983">
        <ele>743.409</ele>
        <time>2022-08-24T14:44:53Z</time>
      </trkpt>
      <trkpt lat="42.93876499999987" lon="-1.4831899999999982">
        <ele>742.883</ele>
        <time>2022-08-24T14:44:54Z</time>
      </trkpt>
      <trkpt lat="42.93875399999987" lon="-1.4832469999999982">
        <ele>741.643</ele>
        <time>2022-08-24T14:44:56Z</time>
      </trkpt>
      <trkpt lat="42.93874499999987" lon="-1.4832879999999982">
        <ele>741.283</ele>
        <time>2022-08-24T14:44:57Z</time>
      </trkpt>
      <trkpt lat="42.93873399999987" lon="-1.4833329999999982">
        <ele>740.289</ele>
        <time>2022-08-24T14:44:58Z</time>
      </trkpt>
      <trkpt lat="42.93873299999987" lon="-1.4833689999999982">
        <ele>739.651</ele>
        <time>2022-08-24T14:44:59Z</time>
      </trkpt>
      <trkpt lat="42.93873299999987" lon="-1.4833979999999982">
        <ele>739.468</ele>
        <time>2022-08-24T14:45:00Z</time>
      </trkpt>
      <trkpt lat="42.93872699999987" lon="-1.4834299999999983">
        <ele>739.091</ele>
        <time>2022-08-24T14:45:01Z</time>
      </trkpt>
      <trkpt lat="42.938674999999876" lon="-1.4835749999999983">
        <ele>738.085</ele>
        <time>2022-08-24T14:45:05Z</time>
      </trkpt>
      <trkpt lat="42.93867299999987" lon="-1.4836079999999983">
        <ele>737.864</ele>
        <time>2022-08-24T14:45:06Z</time>
      </trkpt>
      <trkpt lat="42.93867299999987" lon="-1.4836269999999983">
        <ele>737.417</ele>
        <time>2022-08-24T14:45:07Z</time>
      </trkpt>
      <trkpt lat="42.93867099999987" lon="-1.4836319999999983">
        <ele>737.087</ele>
        <time>2022-08-24T14:45:08Z</time>
      </trkpt>
      <trkpt lat="42.938666999999874" lon="-1.4836469999999984">
        <ele>736.815</ele>
        <time>2022-08-24T14:45:09Z</time>
      </trkpt>
      <trkpt lat="42.938652999999874" lon="-1.4836679999999984">
        <ele>736.609</ele>
        <time>2022-08-24T14:45:10Z</time>
      </trkpt>
      <trkpt lat="42.938641999999874" lon="-1.4836969999999985">
        <ele>736.642</ele>
        <time>2022-08-24T14:45:11Z</time>
      </trkpt>
      <trkpt lat="42.93862899999987" lon="-1.4837239999999985">
        <ele>736.422</ele>
        <time>2022-08-24T14:45:12Z</time>
      </trkpt>
      <trkpt lat="42.93859499999987" lon="-1.4838429999999985">
        <ele>735.852</ele>
        <time>2022-08-24T14:45:15Z</time>
      </trkpt>
      <trkpt lat="42.93859299999987" lon="-1.4838809999999985">
        <ele>735.818</ele>
        <time>2022-08-24T14:45:16Z</time>
      </trkpt>
      <trkpt lat="42.93859699999987" lon="-1.4839289999999985">
        <ele>735.410</ele>
        <time>2022-08-24T14:45:17Z</time>
      </trkpt>
      <trkpt lat="42.938591999999865" lon="-1.4839619999999984">
        <ele>735.027</ele>
        <time>2022-08-24T14:45:18Z</time>
      </trkpt>
      <trkpt lat="42.93858799999987" lon="-1.4840289999999985">
        <ele>734.420</ele>
        <time>2022-08-24T14:45:20Z</time>
      </trkpt>
      <trkpt lat="42.938574999999865" lon="-1.4840659999999986">
        <ele>734.234</ele>
        <time>2022-08-24T14:45:21Z</time>
      </trkpt>
      <trkpt lat="42.93855699999987" lon="-1.4840989999999985">
        <ele>733.833</ele>
        <time>2022-08-24T14:45:22Z</time>
      </trkpt>
      <trkpt lat="42.93855099999987" lon="-1.4841199999999986">
        <ele>733.417</ele>
        <time>2022-08-24T14:45:23Z</time>
      </trkpt>
      <trkpt lat="42.938537999999866" lon="-1.4841549999999986">
        <ele>733.287</ele>
        <time>2022-08-24T14:45:24Z</time>
      </trkpt>
      <trkpt lat="42.93852499999986" lon="-1.4841889999999986">
        <ele>732.815</ele>
        <time>2022-08-24T14:45:25Z</time>
      </trkpt>
      <trkpt lat="42.93851499999986" lon="-1.4842169999999986">
        <ele>732.409</ele>
        <time>2022-08-24T14:45:26Z</time>
      </trkpt>
      <trkpt lat="42.93850699999986" lon="-1.4842449999999985">
        <ele>732.212</ele>
        <time>2022-08-24T14:45:27Z</time>
      </trkpt>
      <trkpt lat="42.93850099999986" lon="-1.4842709999999986">
        <ele>732.072</ele>
        <time>2022-08-24T14:45:28Z</time>
      </trkpt>
      <trkpt lat="42.93850099999986" lon="-1.4842929999999985">
        <ele>731.862</ele>
        <time>2022-08-24T14:45:29Z</time>
      </trkpt>
      <trkpt lat="42.93850699999986" lon="-1.4843129999999984">
        <ele>731.878</ele>
        <time>2022-08-24T14:45:30Z</time>
      </trkpt>
      <trkpt lat="42.93851499999986" lon="-1.4843339999999985">
        <ele>731.690</ele>
        <time>2022-08-24T14:45:31Z</time>
      </trkpt>
      <trkpt lat="42.93852499999986" lon="-1.4843519999999986">
        <ele>731.637</ele>
        <time>2022-08-24T14:45:32Z</time>
      </trkpt>
      <trkpt lat="42.938535999999864" lon="-1.4843719999999985">
        <ele>731.680</ele>
        <time>2022-08-24T14:45:33Z</time>
      </trkpt>
      <trkpt lat="42.93854299999986" lon="-1.4843909999999985">
        <ele>731.244</ele>
        <time>2022-08-24T14:45:34Z</time>
      </trkpt>
      <trkpt lat="42.93855099999986" lon="-1.4844109999999984">
        <ele>731.493</ele>
        <time>2022-08-24T14:45:35Z</time>
      </trkpt>
      <trkpt lat="42.93855899999986" lon="-1.4844329999999983">
        <ele>731.044</ele>
        <time>2022-08-24T14:45:36Z</time>
      </trkpt>
      <trkpt lat="42.938563999999865" lon="-1.4844499999999983">
        <ele>730.605</ele>
        <time>2022-08-24T14:45:37Z</time>
      </trkpt>
      <trkpt lat="42.93856299999987" lon="-1.4844619999999982">
        <ele>730.615</ele>
        <time>2022-08-24T14:45:38Z</time>
      </trkpt>
      <trkpt lat="42.93855599999987" lon="-1.4844799999999982">
        <ele>730.409</ele>
        <time>2022-08-24T14:45:39Z</time>
      </trkpt>
      <trkpt lat="42.938548999999874" lon="-1.4845029999999984">
        <ele>730.415</ele>
        <time>2022-08-24T14:45:40Z</time>
      </trkpt>
      <trkpt lat="42.93854199999988" lon="-1.4845409999999983">
        <ele>730.295</ele>
        <time>2022-08-24T14:45:41Z</time>
      </trkpt>
      <trkpt lat="42.938539999999875" lon="-1.4845649999999984">
        <ele>730.255</ele>
        <time>2022-08-24T14:45:42Z</time>
      </trkpt>
      <trkpt lat="42.93854099999987" lon="-1.4845869999999983">
        <ele>730.021</ele>
        <time>2022-08-24T14:45:43Z</time>
      </trkpt>
      <trkpt lat="42.93854199999987" lon="-1.4846069999999982">
        <ele>729.863</ele>
        <time>2022-08-24T14:45:44Z</time>
      </trkpt>
      <trkpt lat="42.93854299999987" lon="-1.4846259999999982">
        <ele>729.660</ele>
        <time>2022-08-24T14:45:45Z</time>
      </trkpt>
      <trkpt lat="42.93853999999987" lon="-1.4846719999999982">
        <ele>729.053</ele>
        <time>2022-08-24T14:45:47Z</time>
      </trkpt>
      <trkpt lat="42.93853899999987" lon="-1.4847009999999983">
        <ele>728.667</ele>
        <time>2022-08-24T14:45:48Z</time>
      </trkpt>
      <trkpt lat="42.93854399999987" lon="-1.4847549999999983">
        <ele>728.266</ele>
        <time>2022-08-24T14:45:50Z</time>
      </trkpt>
      <trkpt lat="42.938548999999874" lon="-1.4847879999999982">
        <ele>728.092</ele>
        <time>2022-08-24T14:45:51Z</time>
      </trkpt>
      <trkpt lat="42.93855899999988" lon="-1.4848169999999983">
        <ele>728.073</ele>
        <time>2022-08-24T14:45:52Z</time>
      </trkpt>
      <trkpt lat="42.938567999999876" lon="-1.4848469999999983">
        <ele>727.820</ele>
        <time>2022-08-24T14:45:53Z</time>
      </trkpt>
      <trkpt lat="42.938573999999875" lon="-1.4848819999999983">
        <ele>727.609</ele>
        <time>2022-08-24T14:45:54Z</time>
      </trkpt>
      <trkpt lat="42.93860899999987" lon="-1.4849759999999983">
        <ele>726.670</ele>
        <time>2022-08-24T14:45:57Z</time>
      </trkpt>
      <trkpt lat="42.93861799999987" lon="-1.4850009999999982">
        <ele>726.280</ele>
        <time>2022-08-24T14:45:58Z</time>
      </trkpt>
      <trkpt lat="42.93863099999987" lon="-1.4850209999999981">
        <ele>726.270</ele>
        <time>2022-08-24T14:45:59Z</time>
      </trkpt>
      <trkpt lat="42.93864499999987" lon="-1.4850449999999982">
        <ele>726.046</ele>
        <time>2022-08-24T14:46:00Z</time>
      </trkpt>
      <trkpt lat="42.93865899999987" lon="-1.485064999999998">
        <ele>725.838</ele>
        <time>2022-08-24T14:46:01Z</time>
      </trkpt>
      <trkpt lat="42.93866799999987" lon="-1.4850829999999982">
        <ele>725.465</ele>
        <time>2022-08-24T14:46:02Z</time>
      </trkpt>
      <trkpt lat="42.93867199999987" lon="-1.4851019999999981">
        <ele>724.888</ele>
        <time>2022-08-24T14:46:03Z</time>
      </trkpt>
      <trkpt lat="42.93868199999987" lon="-1.485115999999998">
        <ele>724.632</ele>
        <time>2022-08-24T14:46:04Z</time>
      </trkpt>
      <trkpt lat="42.938691999999875" lon="-1.4851289999999981">
        <ele>724.231</ele>
        <time>2022-08-24T14:46:05Z</time>
      </trkpt>
      <trkpt lat="42.938702999999876" lon="-1.4851519999999983">
        <ele>724.413</ele>
        <time>2022-08-24T14:46:06Z</time>
      </trkpt>
      <trkpt lat="42.938708999999875" lon="-1.4851699999999983">
        <ele>724.043</ele>
        <time>2022-08-24T14:46:07Z</time>
      </trkpt>
      <trkpt lat="42.938711999999875" lon="-1.4851869999999983">
        <ele>723.807</ele>
        <time>2022-08-24T14:46:08Z</time>
      </trkpt>
      <trkpt lat="42.93871299999987" lon="-1.4852029999999983">
        <ele>723.609</ele>
        <time>2022-08-24T14:46:09Z</time>
      </trkpt>
      <trkpt lat="42.93871599999987" lon="-1.4852159999999983">
        <ele>723.632</ele>
        <time>2022-08-24T14:46:10Z</time>
      </trkpt>
      <trkpt lat="42.93874799999987" lon="-1.4852739999999982">
        <ele>722.832</ele>
        <time>2022-08-24T14:46:14Z</time>
      </trkpt>
      <trkpt lat="42.938751999999866" lon="-1.4852849999999982">
        <ele>722.862</ele>
        <time>2022-08-24T14:46:15Z</time>
      </trkpt>
      <trkpt lat="42.93875699999987" lon="-1.485296999999998">
        <ele>722.238</ele>
        <time>2022-08-24T14:46:16Z</time>
      </trkpt>
      <trkpt lat="42.93875699999987" lon="-1.485308999999998">
        <ele>722.090</ele>
        <time>2022-08-24T14:46:17Z</time>
      </trkpt>
      <trkpt lat="42.93876499999987" lon="-1.485333999999998">
        <ele>722.077</ele>
        <time>2022-08-24T14:46:18Z</time>
      </trkpt>
      <trkpt lat="42.93877499999987" lon="-1.485355999999998">
        <ele>721.890</ele>
        <time>2022-08-24T14:46:19Z</time>
      </trkpt>
      <trkpt lat="42.93878399999987" lon="-1.485374999999998">
        <ele>721.854</ele>
        <time>2022-08-24T14:46:20Z</time>
      </trkpt>
      <trkpt lat="42.93878999999987" lon="-1.485398999999998">
        <ele>721.623</ele>
        <time>2022-08-24T14:46:21Z</time>
      </trkpt>
      <trkpt lat="42.93879499999987" lon="-1.4854189999999978">
        <ele>721.478</ele>
        <time>2022-08-24T14:46:22Z</time>
      </trkpt>
      <trkpt lat="42.93880299999987" lon="-1.4854399999999979">
        <ele>721.233</ele>
        <time>2022-08-24T14:46:23Z</time>
      </trkpt>
      <trkpt lat="42.938804999999874" lon="-1.485446999999998">
        <ele>721.026</ele>
        <time>2022-08-24T14:46:24Z</time>
      </trkpt>
      <trkpt lat="42.938812999999875" lon="-1.485462999999998">
        <ele>721.009</ele>
        <time>2022-08-24T14:46:25Z</time>
      </trkpt>
      <trkpt lat="42.93882099999988" lon="-1.485479999999998">
        <ele>720.618</ele>
        <time>2022-08-24T14:46:26Z</time>
      </trkpt>
      <trkpt lat="42.93883099999988" lon="-1.485497999999998">
        <ele>720.678</ele>
        <time>2022-08-24T14:46:27Z</time>
      </trkpt>
      <trkpt lat="42.93888699999988" lon="-1.4856179999999979">
        <ele>720.078</ele>
        <time>2022-08-24T14:46:32Z</time>
      </trkpt>
      <trkpt lat="42.93889099999988" lon="-1.4856449999999979">
        <ele>719.894</ele>
        <time>2022-08-24T14:46:33Z</time>
      </trkpt>
      <trkpt lat="42.93889299999988" lon="-1.4856779999999978">
        <ele>719.656</ele>
        <time>2022-08-24T14:46:34Z</time>
      </trkpt>
      <trkpt lat="42.93891099999988" lon="-1.4857139999999978">
        <ele>719.273</ele>
        <time>2022-08-24T14:46:35Z</time>
      </trkpt>
      <trkpt lat="42.938939999999874" lon="-1.4857949999999978">
        <ele>718.266</ele>
        <time>2022-08-24T14:46:38Z</time>
      </trkpt>
      <trkpt lat="42.93894999999988" lon="-1.4858149999999977">
        <ele>718.070</ele>
        <time>2022-08-24T14:46:39Z</time>
      </trkpt>
      <trkpt lat="42.938964999999875" lon="-1.4858469999999977">
        <ele>717.899</ele>
        <time>2022-08-24T14:46:40Z</time>
      </trkpt>
      <trkpt lat="42.93897799999988" lon="-1.4858709999999977">
        <ele>717.871</ele>
        <time>2022-08-24T14:46:41Z</time>
      </trkpt>
      <trkpt lat="42.93899399999988" lon="-1.4859329999999977">
        <ele>717.641</ele>
        <time>2022-08-24T14:46:43Z</time>
      </trkpt>
      <trkpt lat="42.93901099999988" lon="-1.4859929999999977">
        <ele>717.215</ele>
        <time>2022-08-24T14:46:45Z</time>
      </trkpt>
      <trkpt lat="42.93900999999988" lon="-1.4860299999999977">
        <ele>717.009</ele>
        <time>2022-08-24T14:46:46Z</time>
      </trkpt>
      <trkpt lat="42.93902699999988" lon="-1.4860699999999978">
        <ele>716.858</ele>
        <time>2022-08-24T14:46:47Z</time>
      </trkpt>
      <trkpt lat="42.93905199999988" lon="-1.4861059999999977">
        <ele>716.678</ele>
        <time>2022-08-24T14:46:48Z</time>
      </trkpt>
      <trkpt lat="42.939081999999885" lon="-1.4861599999999977">
        <ele>716.698</ele>
        <time>2022-08-24T14:46:49Z</time>
      </trkpt>
      <trkpt lat="42.939092999999886" lon="-1.4861899999999977">
        <ele>716.414</ele>
        <time>2022-08-24T14:46:50Z</time>
      </trkpt>
      <trkpt lat="42.93910099999989" lon="-1.4862179999999976">
        <ele>716.446</ele>
        <time>2022-08-24T14:46:51Z</time>
      </trkpt>
      <trkpt lat="42.93910599999989" lon="-1.4862539999999975">
        <ele>716.213</ele>
        <time>2022-08-24T14:46:52Z</time>
      </trkpt>
      <trkpt lat="42.939112999999885" lon="-1.4862719999999976">
        <ele>716.036</ele>
        <time>2022-08-24T14:46:53Z</time>
      </trkpt>
      <trkpt lat="42.939121999999884" lon="-1.4862909999999976">
        <ele>715.830</ele>
        <time>2022-08-24T14:46:54Z</time>
      </trkpt>
      <trkpt lat="42.93913399999988" lon="-1.4863139999999977">
        <ele>715.449</ele>
        <time>2022-08-24T14:46:55Z</time>
      </trkpt>
      <trkpt lat="42.939157999999885" lon="-1.4863609999999976">
        <ele>715.296</ele>
        <time>2022-08-24T14:46:57Z</time>
      </trkpt>
      <trkpt lat="42.93919099999989" lon="-1.4864409999999977">
        <ele>715.231</ele>
        <time>2022-08-24T14:47:00Z</time>
      </trkpt>
      <trkpt lat="42.939199999999886" lon="-1.4864649999999977">
        <ele>715.024</ele>
        <time>2022-08-24T14:47:01Z</time>
      </trkpt>
      <trkpt lat="42.93923899999989" lon="-1.4865319999999977">
        <ele>714.609</ele>
        <time>2022-08-24T14:47:04Z</time>
      </trkpt>
      <trkpt lat="42.93929499999989" lon="-1.4866289999999978">
        <ele>714.050</ele>
        <time>2022-08-24T14:47:07Z</time>
      </trkpt>
      <trkpt lat="42.939309999999885" lon="-1.4866529999999978">
        <ele>713.630</ele>
        <time>2022-08-24T14:47:08Z</time>
      </trkpt>
      <trkpt lat="42.93934199999988" lon="-1.4867039999999978">
        <ele>713.430</ele>
        <time>2022-08-24T14:47:10Z</time>
      </trkpt>
      <trkpt lat="42.939354999999885" lon="-1.4867299999999979">
        <ele>713.286</ele>
        <time>2022-08-24T14:47:11Z</time>
      </trkpt>
      <trkpt lat="42.939380999999884" lon="-1.4867689999999978">
        <ele>713.088</ele>
        <time>2022-08-24T14:47:13Z</time>
      </trkpt>
      <trkpt lat="42.939393999999886" lon="-1.4867849999999978">
        <ele>712.855</ele>
        <time>2022-08-24T14:47:14Z</time>
      </trkpt>
      <trkpt lat="42.93940699999989" lon="-1.486791999999998">
        <ele>712.688</ele>
        <time>2022-08-24T14:47:15Z</time>
      </trkpt>
      <trkpt lat="42.93942099999989" lon="-1.4868009999999978">
        <ele>712.482</ele>
        <time>2022-08-24T14:47:16Z</time>
      </trkpt>
      <trkpt lat="42.93943799999989" lon="-1.486818999999998">
        <ele>712.231</ele>
        <time>2022-08-24T14:47:17Z</time>
      </trkpt>
      <trkpt lat="42.93947799999989" lon="-1.4868549999999978">
        <ele>712.013</ele>
        <time>2022-08-24T14:47:19Z</time>
      </trkpt>
      <trkpt lat="42.93949399999989" lon="-1.486861999999998">
        <ele>711.843</ele>
        <time>2022-08-24T14:47:20Z</time>
      </trkpt>
      <trkpt lat="42.93950999999989" lon="-1.4868679999999979">
        <ele>711.407</ele>
        <time>2022-08-24T14:47:21Z</time>
      </trkpt>
      <trkpt lat="42.93952199999989" lon="-1.486882999999998">
        <ele>711.409</ele>
        <time>2022-08-24T14:47:22Z</time>
      </trkpt>
      <trkpt lat="42.93953399999989" lon="-1.486898999999998">
        <ele>711.272</ele>
        <time>2022-08-24T14:47:23Z</time>
      </trkpt>
      <trkpt lat="42.93954199999989" lon="-1.486915999999998">
        <ele>711.012</ele>
        <time>2022-08-24T14:47:24Z</time>
      </trkpt>
      <trkpt lat="42.93956999999989" lon="-1.486952999999998">
        <ele>710.622</ele>
        <time>2022-08-24T14:47:26Z</time>
      </trkpt>
      <trkpt lat="42.93959199999989" lon="-1.486987999999998">
        <ele>710.458</ele>
        <time>2022-08-24T14:47:29Z</time>
      </trkpt>
      <trkpt lat="42.93959799999989" lon="-1.487003999999998">
        <ele>710.230</ele>
        <time>2022-08-24T14:47:30Z</time>
      </trkpt>
      <trkpt lat="42.93960499999989" lon="-1.487019999999998">
        <ele>710.027</ele>
        <time>2022-08-24T14:47:31Z</time>
      </trkpt>
      <trkpt lat="42.939610999999886" lon="-1.487037999999998">
        <ele>709.840</ele>
        <time>2022-08-24T14:47:32Z</time>
      </trkpt>
      <trkpt lat="42.939613999999885" lon="-1.487051999999998">
        <ele>709.894</ele>
        <time>2022-08-24T14:47:33Z</time>
      </trkpt>
      <trkpt lat="42.939613999999885" lon="-1.487071999999998">
        <ele>709.493</ele>
        <time>2022-08-24T14:47:34Z</time>
      </trkpt>
      <trkpt lat="42.93961299999989" lon="-1.487098999999998">
        <ele>709.274</ele>
        <time>2022-08-24T14:47:35Z</time>
      </trkpt>
      <trkpt lat="42.93961499999989" lon="-1.487120999999998">
        <ele>709.256</ele>
        <time>2022-08-24T14:47:36Z</time>
      </trkpt>
      <trkpt lat="42.93962699999989" lon="-1.4872269999999979">
        <ele>709.021</ele>
        <time>2022-08-24T14:47:39Z</time>
      </trkpt>
      <trkpt lat="42.939638999999886" lon="-1.4872929999999978">
        <ele>708.609</ele>
        <time>2022-08-24T14:47:41Z</time>
      </trkpt>
      <trkpt lat="42.93964299999988" lon="-1.4873289999999977">
        <ele>708.458</ele>
        <time>2022-08-24T14:47:42Z</time>
      </trkpt>
      <trkpt lat="42.939647999999885" lon="-1.4873899999999978">
        <ele>708.058</ele>
        <time>2022-08-24T14:47:44Z</time>
      </trkpt>
      <trkpt lat="42.93964699999989" lon="-1.4874119999999977">
        <ele>707.878</ele>
        <time>2022-08-24T14:47:45Z</time>
      </trkpt>
      <trkpt lat="42.939647999999885" lon="-1.4874399999999977">
        <ele>707.494</ele>
        <time>2022-08-24T14:47:46Z</time>
      </trkpt>
      <trkpt lat="42.93964999999989" lon="-1.4874599999999976">
        <ele>707.246</ele>
        <time>2022-08-24T14:47:47Z</time>
      </trkpt>
      <trkpt lat="42.93964699999989" lon="-1.4874859999999976">
        <ele>707.213</ele>
        <time>2022-08-24T14:47:48Z</time>
      </trkpt>
      <trkpt lat="42.93963999999989" lon="-1.4875099999999977">
        <ele>707.036</ele>
        <time>2022-08-24T14:47:49Z</time>
      </trkpt>
      <trkpt lat="42.93961599999989" lon="-1.4875649999999976">
        <ele>706.670</ele>
        <time>2022-08-24T14:47:51Z</time>
      </trkpt>
      <trkpt lat="42.93961199999989" lon="-1.4875719999999977">
        <ele>706.659</ele>
        <time>2022-08-24T14:47:52Z</time>
      </trkpt>
      <trkpt lat="42.93961199999989" lon="-1.4875719999999977">
        <ele>706.635</ele>
        <time>2022-08-24T14:47:53Z</time>
      </trkpt>
      <trkpt lat="42.93961199999989" lon="-1.4875719999999977">
        <ele>706.486</ele>
        <time>2022-08-24T14:47:54Z</time>
      </trkpt>
      <trkpt lat="42.93961699999989" lon="-1.4876029999999976">
        <ele>706.214</ele>
        <time>2022-08-24T14:47:55Z</time>
      </trkpt>
      <trkpt lat="42.93960699999989" lon="-1.4876519999999975">
        <ele>705.809</ele>
        <time>2022-08-24T14:47:56Z</time>
      </trkpt>
      <trkpt lat="42.93960099999989" lon="-1.4876979999999975">
        <ele>705.244</ele>
        <time>2022-08-24T14:47:59Z</time>
      </trkpt>
      <trkpt lat="42.93959899999989" lon="-1.4877179999999974">
        <ele>705.244</ele>
        <time>2022-08-24T14:48:00Z</time>
      </trkpt>
      <trkpt lat="42.93960499999989" lon="-1.4877349999999974">
        <ele>705.054</ele>
        <time>2022-08-24T14:48:01Z</time>
      </trkpt>
      <trkpt lat="42.93960199999989" lon="-1.4877499999999975">
        <ele>705.020</ele>
        <time>2022-08-24T14:48:02Z</time>
      </trkpt>
      <trkpt lat="42.939608999999884" lon="-1.4877799999999974">
        <ele>704.692</ele>
        <time>2022-08-24T14:48:03Z</time>
      </trkpt>
      <trkpt lat="42.939607999999886" lon="-1.4878009999999975">
        <ele>704.459</ele>
        <time>2022-08-24T14:48:04Z</time>
      </trkpt>
      <trkpt lat="42.93960999999989" lon="-1.4878219999999975">
        <ele>704.282</ele>
        <time>2022-08-24T14:48:05Z</time>
      </trkpt>
      <trkpt lat="42.93960899999989" lon="-1.4878429999999976">
        <ele>703.686</ele>
        <time>2022-08-24T14:48:06Z</time>
      </trkpt>
      <trkpt lat="42.93960399999989" lon="-1.4878649999999976">
        <ele>703.625</ele>
        <time>2022-08-24T14:48:07Z</time>
      </trkpt>
      <trkpt lat="42.93959999999989" lon="-1.4878829999999976">
        <ele>703.236</ele>
        <time>2022-08-24T14:48:08Z</time>
      </trkpt>
      <trkpt lat="42.93959699999989" lon="-1.4878999999999976">
        <ele>703.017</ele>
        <time>2022-08-24T14:48:09Z</time>
      </trkpt>
      <trkpt lat="42.93958699999989" lon="-1.4879129999999976">
        <ele>702.818</ele>
        <time>2022-08-24T14:48:10Z</time>
      </trkpt>
      <trkpt lat="42.93957299999989" lon="-1.4879289999999976">
        <ele>702.609</ele>
        <time>2022-08-24T14:48:11Z</time>
      </trkpt>
      <trkpt lat="42.93955399999989" lon="-1.4879529999999976">
        <ele>702.274</ele>
        <time>2022-08-24T14:48:12Z</time>
      </trkpt>
      <trkpt lat="42.93955399999989" lon="-1.4879529999999976">
        <ele>701.814</ele>
        <time>2022-08-24T14:48:13Z</time>
      </trkpt>
      <trkpt lat="42.93952899999989" lon="-1.4879889999999976">
        <ele>701.674</ele>
        <time>2022-08-24T14:48:14Z</time>
      </trkpt>
      <trkpt lat="42.93951199999989" lon="-1.4880289999999976">
        <ele>701.240</ele>
        <time>2022-08-24T14:48:16Z</time>
      </trkpt>
      <trkpt lat="42.93950299999989" lon="-1.4880489999999975">
        <ele>701.072</ele>
        <time>2022-08-24T14:48:17Z</time>
      </trkpt>
      <trkpt lat="42.93950199999989" lon="-1.4880729999999975">
        <ele>700.859</ele>
        <time>2022-08-24T14:48:18Z</time>
      </trkpt>
      <trkpt lat="42.93949099999989" lon="-1.4880999999999975">
        <ele>700.242</ele>
        <time>2022-08-24T14:48:19Z</time>
      </trkpt>
      <trkpt lat="42.93947599999989" lon="-1.4881219999999975">
        <ele>699.466</ele>
        <time>2022-08-24T14:48:20Z</time>
      </trkpt>
      <trkpt lat="42.93946799999989" lon="-1.4881379999999975">
        <ele>699.285</ele>
        <time>2022-08-24T14:48:21Z</time>
      </trkpt>
      <trkpt lat="42.93945999999989" lon="-1.4881559999999976">
        <ele>699.079</ele>
        <time>2022-08-24T14:48:22Z</time>
      </trkpt>
      <trkpt lat="42.93942699999989" lon="-1.4882139999999975">
        <ele>698.605</ele>
        <time>2022-08-24T14:48:25Z</time>
      </trkpt>
      <trkpt lat="42.93942399999989" lon="-1.4882359999999974">
        <ele>698.425</ele>
        <time>2022-08-24T14:48:26Z</time>
      </trkpt>
      <trkpt lat="42.93940699999989" lon="-1.4882809999999975">
        <ele>698.009</ele>
        <time>2022-08-24T14:48:28Z</time>
      </trkpt>
      <trkpt lat="42.93940099999989" lon="-1.4883049999999975">
        <ele>697.828</ele>
        <time>2022-08-24T14:48:29Z</time>
      </trkpt>
      <trkpt lat="42.93940099999989" lon="-1.4883259999999976">
        <ele>697.838</ele>
        <time>2022-08-24T14:48:30Z</time>
      </trkpt>
      <trkpt lat="42.93939199999989" lon="-1.4883489999999977">
        <ele>697.058</ele>
        <time>2022-08-24T14:48:31Z</time>
      </trkpt>
      <trkpt lat="42.93939199999989" lon="-1.4883509999999978">
        <ele>696.414</ele>
        <time>2022-08-24T14:48:32Z</time>
      </trkpt>
      <trkpt lat="42.93937999999989" lon="-1.4883549999999977">
        <ele>694.876</ele>
        <time>2022-08-24T14:49:20Z</time>
      </trkpt>
      <trkpt lat="42.939376999999894" lon="-1.4883809999999977">
        <ele>694.863</ele>
        <time>2022-08-24T14:49:21Z</time>
      </trkpt>
      <trkpt lat="42.939373999999894" lon="-1.4884039999999978">
        <ele>694.886</ele>
        <time>2022-08-24T14:49:22Z</time>
      </trkpt>
      <trkpt lat="42.9393669999999" lon="-1.4884579999999978">
        <ele>694.680</ele>
        <time>2022-08-24T14:49:24Z</time>
      </trkpt>
      <trkpt lat="42.9393589999999" lon="-1.4884799999999978">
        <ele>694.689</ele>
        <time>2022-08-24T14:49:25Z</time>
      </trkpt>
      <trkpt lat="42.939350999999895" lon="-1.4885019999999978">
        <ele>694.297</ele>
        <time>2022-08-24T14:49:26Z</time>
      </trkpt>
      <trkpt lat="42.9393439999999" lon="-1.4885269999999977">
        <ele>694.223</ele>
        <time>2022-08-24T14:49:27Z</time>
      </trkpt>
      <trkpt lat="42.9393439999999" lon="-1.4885269999999977">
        <ele>693.825</ele>
        <time>2022-08-24T14:49:28Z</time>
      </trkpt>
      <trkpt lat="42.9393229999999" lon="-1.4885789999999977">
        <ele>693.609</ele>
        <time>2022-08-24T14:49:29Z</time>
      </trkpt>
      <trkpt lat="42.939304999999905" lon="-1.4886089999999976">
        <ele>693.030</ele>
        <time>2022-08-24T14:49:31Z</time>
      </trkpt>
      <trkpt lat="42.93929299999991" lon="-1.4886359999999976">
        <ele>692.870</ele>
        <time>2022-08-24T14:49:32Z</time>
      </trkpt>
      <trkpt lat="42.93928599999991" lon="-1.4886579999999976">
        <ele>692.480</ele>
        <time>2022-08-24T14:49:33Z</time>
      </trkpt>
      <trkpt lat="42.93928299999991" lon="-1.4886789999999976">
        <ele>692.256</ele>
        <time>2022-08-24T14:49:34Z</time>
      </trkpt>
      <trkpt lat="42.93927799999991" lon="-1.4887009999999976">
        <ele>692.058</ele>
        <time>2022-08-24T14:49:35Z</time>
      </trkpt>
      <trkpt lat="42.93926899999991" lon="-1.4887299999999977">
        <ele>691.865</ele>
        <time>2022-08-24T14:49:36Z</time>
      </trkpt>
      <trkpt lat="42.93926899999991" lon="-1.4887299999999977">
        <ele>691.698</ele>
        <time>2022-08-24T14:49:37Z</time>
      </trkpt>
      <trkpt lat="42.93921299999991" lon="-1.4888689999999976">
        <ele>689.442</ele>
        <time>2022-08-24T14:49:55Z</time>
      </trkpt>
      <trkpt lat="42.93918299999991" lon="-1.4889069999999975">
        <ele>689.271</ele>
        <time>2022-08-24T14:49:59Z</time>
      </trkpt>
      <trkpt lat="42.939172999999904" lon="-1.4889289999999975">
        <ele>689.224</ele>
        <time>2022-08-24T14:50:00Z</time>
      </trkpt>
      <trkpt lat="42.9391569999999" lon="-1.4889339999999975">
        <ele>689.004</ele>
        <time>2022-08-24T14:50:02Z</time>
      </trkpt>
      <trkpt lat="42.9391479999999" lon="-1.4889489999999976">
        <ele>688.214</ele>
        <time>2022-08-24T14:50:04Z</time>
      </trkpt>
      <trkpt lat="42.9391349999999" lon="-1.4889509999999977">
        <ele>688.009</ele>
        <time>2022-08-24T14:50:05Z</time>
      </trkpt>
      <trkpt lat="42.9391289999999" lon="-1.4889609999999978">
        <ele>687.863</ele>
        <time>2022-08-24T14:50:06Z</time>
      </trkpt>
      <trkpt lat="42.939121999999905" lon="-1.4889909999999977">
        <ele>687.263</ele>
        <time>2022-08-24T14:50:09Z</time>
      </trkpt>
      <trkpt lat="42.93912399999991" lon="-1.4889929999999978">
        <ele>687.283</ele>
        <time>2022-08-24T14:50:10Z</time>
      </trkpt>
      <trkpt lat="42.93912399999991" lon="-1.4889949999999978">
        <ele>687.029</ele>
        <time>2022-08-24T14:50:11Z</time>
      </trkpt>
      <trkpt lat="42.93912299999991" lon="-1.4889999999999979">
        <ele>687.011</ele>
        <time>2022-08-24T14:50:12Z</time>
      </trkpt>
      <trkpt lat="42.93911999999991" lon="-1.4890029999999979">
        <ele>686.888</ele>
        <time>2022-08-24T14:50:13Z</time>
      </trkpt>
      <trkpt lat="42.93911799999991" lon="-1.4890059999999978">
        <ele>686.231</ele>
        <time>2022-08-24T14:50:16Z</time>
      </trkpt>
      <trkpt lat="42.93911399999991" lon="-1.489012999999998">
        <ele>686.025</ele>
        <time>2022-08-24T14:50:17Z</time>
      </trkpt>
      <trkpt lat="42.93910799999991" lon="-1.489022999999998">
        <ele>685.864</ele>
        <time>2022-08-24T14:50:18Z</time>
      </trkpt>
      <trkpt lat="42.93909699999991" lon="-1.489041999999998">
        <ele>685.698</ele>
        <time>2022-08-24T14:50:20Z</time>
      </trkpt>
      <trkpt lat="42.93909699999991" lon="-1.489041999999998">
        <ele>684.415</ele>
        <time>2022-08-24T14:50:25Z</time>
      </trkpt>
      <trkpt lat="42.93908099999991" lon="-1.489056999999998">
        <ele>684.226</ele>
        <time>2022-08-24T14:50:27Z</time>
      </trkpt>
      <trkpt lat="42.93897099999991" lon="-1.489146999999998">
        <ele>684.209</ele>
        <time>2022-08-24T14:50:32Z</time>
      </trkpt>
      <trkpt lat="42.93888999999991" lon="-1.489271999999998">
        <ele>683.620</ele>
        <time>2022-08-24T14:50:36Z</time>
      </trkpt>
      <trkpt lat="42.938814999999906" lon="-1.489371999999998">
        <ele>682.820</ele>
        <time>2022-08-24T14:50:39Z</time>
      </trkpt>
      <trkpt lat="42.93879499999991" lon="-1.4893939999999979">
        <ele>682.660</ele>
        <time>2022-08-24T14:50:40Z</time>
      </trkpt>
      <trkpt lat="42.93877399999991" lon="-1.4894249999999978">
        <ele>682.496</ele>
        <time>2022-08-24T14:50:41Z</time>
      </trkpt>
      <trkpt lat="42.93875299999991" lon="-1.4894569999999978">
        <ele>682.028</ele>
        <time>2022-08-24T14:50:42Z</time>
      </trkpt>
      <trkpt lat="42.938687999999914" lon="-1.4895839999999978">
        <ele>681.425</ele>
        <time>2022-08-24T14:50:45Z</time>
      </trkpt>
      <trkpt lat="42.93865999999991" lon="-1.4896459999999978">
        <ele>681.028</ele>
        <time>2022-08-24T14:50:46Z</time>
      </trkpt>
      <trkpt lat="42.93859299999991" lon="-1.4897449999999979">
        <ele>680.232</ele>
        <time>2022-08-24T14:50:48Z</time>
      </trkpt>
      <trkpt lat="42.93856599999991" lon="-1.4897939999999978">
        <ele>680.091</ele>
        <time>2022-08-24T14:50:49Z</time>
      </trkpt>
      <trkpt lat="42.93851899999991" lon="-1.4898589999999978">
        <ele>679.848</ele>
        <time>2022-08-24T14:50:50Z</time>
      </trkpt>
      <trkpt lat="42.938494999999904" lon="-1.489900999999998">
        <ele>679.861</ele>
        <time>2022-08-24T14:50:51Z</time>
      </trkpt>
      <trkpt lat="42.938494999999904" lon="-1.489900999999998">
        <ele>679.817</ele>
        <time>2022-08-24T14:50:52Z</time>
      </trkpt>
      <trkpt lat="42.9384649999999" lon="-1.489965999999998">
        <ele>679.609</ele>
        <time>2022-08-24T14:50:53Z</time>
      </trkpt>
      <trkpt lat="42.9384149999999" lon="-1.4900859999999978">
        <ele>679.295</ele>
        <time>2022-08-24T14:50:56Z</time>
      </trkpt>
      <trkpt lat="42.9383829999999" lon="-1.4901499999999979">
        <ele>679.025</ele>
        <time>2022-08-24T14:50:57Z</time>
      </trkpt>
      <trkpt lat="42.938361999999906" lon="-1.490194999999998">
        <ele>678.655</ele>
        <time>2022-08-24T14:50:58Z</time>
      </trkpt>
      <trkpt lat="42.9383459999999" lon="-1.4902339999999978">
        <ele>678.671</ele>
        <time>2022-08-24T14:50:59Z</time>
      </trkpt>
      <trkpt lat="42.9383239999999" lon="-1.4902619999999978">
        <ele>678.263</ele>
        <time>2022-08-24T14:51:00Z</time>
      </trkpt>
      <trkpt lat="42.9383129999999" lon="-1.4902869999999977">
        <ele>677.860</ele>
        <time>2022-08-24T14:51:01Z</time>
      </trkpt>
      <trkpt lat="42.9383069999999" lon="-1.4903099999999978">
        <ele>677.253</ele>
        <time>2022-08-24T14:51:02Z</time>
      </trkpt>
      <trkpt lat="42.938299999999906" lon="-1.4903419999999978">
        <ele>676.617</ele>
        <time>2022-08-24T14:51:03Z</time>
      </trkpt>
      <trkpt lat="42.938299999999906" lon="-1.4903619999999977">
        <ele>676.496</ele>
        <time>2022-08-24T14:51:04Z</time>
      </trkpt>
      <trkpt lat="42.938299999999906" lon="-1.4903769999999978">
        <ele>676.016</ele>
        <time>2022-08-24T14:51:05Z</time>
      </trkpt>
      <trkpt lat="42.93829099999991" lon="-1.4904039999999978">
        <ele>676.076</ele>
        <time>2022-08-24T14:51:06Z</time>
      </trkpt>
      <trkpt lat="42.93828999999991" lon="-1.4904149999999978">
        <ele>675.813</ele>
        <time>2022-08-24T14:51:07Z</time>
      </trkpt>
      <trkpt lat="42.93828799999991" lon="-1.4904289999999978">
        <ele>675.809</ele>
        <time>2022-08-24T14:51:08Z</time>
      </trkpt>
      <trkpt lat="42.93828399999991" lon="-1.4904459999999977">
        <ele>675.872</ele>
        <time>2022-08-24T14:51:09Z</time>
      </trkpt>
      <trkpt lat="42.93828299999991" lon="-1.4904639999999978">
        <ele>675.872</ele>
        <time>2022-08-24T14:51:10Z</time>
      </trkpt>
      <trkpt lat="42.938279999999914" lon="-1.4904999999999977">
        <ele>675.852</ele>
        <time>2022-08-24T14:51:11Z</time>
      </trkpt>
      <trkpt lat="42.93826399999991" lon="-1.4905589999999977">
        <ele>675.898</ele>
        <time>2022-08-24T14:51:13Z</time>
      </trkpt>
      <trkpt lat="42.93822399999991" lon="-1.4906969999999977">
        <ele>675.250</ele>
        <time>2022-08-24T14:51:16Z</time>
      </trkpt>
      <trkpt lat="42.93821099999991" lon="-1.4907419999999978">
        <ele>674.627</ele>
        <time>2022-08-24T14:51:17Z</time>
      </trkpt>
      <trkpt lat="42.93821099999991" lon="-1.4907419999999978">
        <ele>674.860</ele>
        <time>2022-08-24T14:51:18Z</time>
      </trkpt>
      <trkpt lat="42.93819599999991" lon="-1.4908129999999977">
        <ele>674.444</ele>
        <time>2022-08-24T14:51:19Z</time>
      </trkpt>
      <trkpt lat="42.93818999999991" lon="-1.4908289999999977">
        <ele>674.273</ele>
        <time>2022-08-24T14:51:20Z</time>
      </trkpt>
      <trkpt lat="42.93818299999992" lon="-1.4908429999999977">
        <ele>674.088</ele>
        <time>2022-08-24T14:51:21Z</time>
      </trkpt>
      <trkpt lat="42.93817699999992" lon="-1.4908569999999977">
        <ele>673.624</ele>
        <time>2022-08-24T14:51:22Z</time>
      </trkpt>
      <trkpt lat="42.93817899999992" lon="-1.4909049999999977">
        <ele>672.826</ele>
        <time>2022-08-24T14:51:35Z</time>
      </trkpt>
      <trkpt lat="42.93817899999992" lon="-1.4909049999999977">
        <ele>672.809</ele>
        <time>2022-08-24T14:51:38Z</time>
      </trkpt>
      <trkpt lat="42.93817899999992" lon="-1.4909049999999977">
        <ele>672.659</ele>
        <time>2022-08-24T14:51:39Z</time>
      </trkpt>
      <trkpt lat="42.93817499999992" lon="-1.4909219999999976">
        <ele>672.679</ele>
        <time>2022-08-24T14:51:42Z</time>
      </trkpt>
      <trkpt lat="42.938170999999926" lon="-1.4909359999999976">
        <ele>672.619</ele>
        <time>2022-08-24T14:51:43Z</time>
      </trkpt>
      <trkpt lat="42.938156999999926" lon="-1.4910039999999976">
        <ele>672.295</ele>
        <time>2022-08-24T14:51:47Z</time>
      </trkpt>
      <trkpt lat="42.938154999999924" lon="-1.4910169999999976">
        <ele>672.077</ele>
        <time>2022-08-24T14:51:49Z</time>
      </trkpt>
      <trkpt lat="42.93815099999993" lon="-1.4910319999999977">
        <ele>671.694</ele>
        <time>2022-08-24T14:51:53Z</time>
      </trkpt>
      <trkpt lat="42.938151999999924" lon="-1.4910399999999977">
        <ele>671.497</ele>
        <time>2022-08-24T14:51:54Z</time>
      </trkpt>
      <trkpt lat="42.93815599999992" lon="-1.4910519999999976">
        <ele>671.241</ele>
        <time>2022-08-24T14:51:55Z</time>
      </trkpt>
      <trkpt lat="42.93815299999992" lon="-1.4910689999999975">
        <ele>671.260</ele>
        <time>2022-08-24T14:51:56Z</time>
      </trkpt>
      <trkpt lat="42.93815299999992" lon="-1.4910869999999976">
        <ele>671.253</ele>
        <time>2022-08-24T14:51:57Z</time>
      </trkpt>
      <trkpt lat="42.93814999999992" lon="-1.4911209999999977">
        <ele>671.004</ele>
        <time>2022-08-24T14:52:00Z</time>
      </trkpt>
      <trkpt lat="42.93814999999992" lon="-1.4911209999999977">
        <ele>671.014</ele>
        <time>2022-08-24T14:52:01Z</time>
      </trkpt>
      <trkpt lat="42.93814999999992" lon="-1.4911209999999977">
        <ele>671.009</ele>
        <time>2022-08-24T14:52:02Z</time>
      </trkpt>
      <trkpt lat="42.93814199999992" lon="-1.4911509999999977">
        <ele>670.816</ele>
        <time>2022-08-24T14:52:04Z</time>
      </trkpt>
      <trkpt lat="42.93813699999992" lon="-1.4911679999999976">
        <ele>670.816</ele>
        <time>2022-08-24T14:52:05Z</time>
      </trkpt>
      <trkpt lat="42.93813199999992" lon="-1.4911909999999977">
        <ele>670.646</ele>
        <time>2022-08-24T14:52:07Z</time>
      </trkpt>
      <trkpt lat="42.93812299999992" lon="-1.4912159999999977">
        <ele>670.652</ele>
        <time>2022-08-24T14:52:08Z</time>
      </trkpt>
      <trkpt lat="42.93810999999992" lon="-1.4912819999999976">
        <ele>670.244</ele>
        <time>2022-08-24T14:52:12Z</time>
      </trkpt>
      <trkpt lat="42.93811199999992" lon="-1.4912929999999975">
        <ele>670.051</ele>
        <time>2022-08-24T14:52:13Z</time>
      </trkpt>
      <trkpt lat="42.938112999999916" lon="-1.4913049999999974">
        <ele>669.664</ele>
        <time>2022-08-24T14:52:14Z</time>
      </trkpt>
      <trkpt lat="42.938107999999914" lon="-1.4913339999999975">
        <ele>669.228</ele>
        <time>2022-08-24T14:52:16Z</time>
      </trkpt>
      <trkpt lat="42.93810599999991" lon="-1.4913449999999975">
        <ele>669.027</ele>
        <time>2022-08-24T14:52:17Z</time>
      </trkpt>
      <trkpt lat="42.938101999999915" lon="-1.4913569999999974">
        <ele>668.883</ele>
        <time>2022-08-24T14:52:18Z</time>
      </trkpt>
      <trkpt lat="42.93809799999992" lon="-1.4913669999999974">
        <ele>668.825</ele>
        <time>2022-08-24T14:52:19Z</time>
      </trkpt>
      <trkpt lat="42.938095999999916" lon="-1.4913799999999975">
        <ele>668.817</ele>
        <time>2022-08-24T14:52:20Z</time>
      </trkpt>
      <trkpt lat="42.938093999999914" lon="-1.4913949999999976">
        <ele>668.809</ele>
        <time>2022-08-24T14:52:21Z</time>
      </trkpt>
      <trkpt lat="42.938093999999914" lon="-1.4914029999999976">
        <ele>668.869</ele>
        <time>2022-08-24T14:52:22Z</time>
      </trkpt>
      <trkpt lat="42.93809299999992" lon="-1.4914149999999975">
        <ele>668.829</ele>
        <time>2022-08-24T14:52:23Z</time>
      </trkpt>
      <trkpt lat="42.93809299999992" lon="-1.4914539999999974">
        <ele>668.659</ele>
        <time>2022-08-24T14:52:28Z</time>
      </trkpt>
      <trkpt lat="42.93809199999992" lon="-1.4914649999999974">
        <ele>668.425</ele>
        <time>2022-08-24T14:52:29Z</time>
      </trkpt>
      <trkpt lat="42.93809199999992" lon="-1.4914699999999974">
        <ele>668.267</ele>
        <time>2022-08-24T14:52:30Z</time>
      </trkpt>
      <trkpt lat="42.93808899999992" lon="-1.4914759999999974">
        <ele>668.254</ele>
        <time>2022-08-24T14:52:31Z</time>
      </trkpt>
      <trkpt lat="42.93807699999992" lon="-1.4915059999999973">
        <ele>668.027</ele>
        <time>2022-08-24T14:52:34Z</time>
      </trkpt>
      <trkpt lat="42.93807099999992" lon="-1.4915209999999974">
        <ele>667.881</ele>
        <time>2022-08-24T14:52:35Z</time>
      </trkpt>
      <trkpt lat="42.938066999999926" lon="-1.4915309999999975">
        <ele>667.850</ele>
        <time>2022-08-24T14:52:36Z</time>
      </trkpt>
      <trkpt lat="42.93805699999992" lon="-1.4915539999999976">
        <ele>667.637</ele>
        <time>2022-08-24T14:52:38Z</time>
      </trkpt>
      <trkpt lat="42.93805399999992" lon="-1.4915659999999975">
        <ele>667.649</ele>
        <time>2022-08-24T14:52:39Z</time>
      </trkpt>
      <trkpt lat="42.938052999999925" lon="-1.4915779999999974">
        <ele>667.613</ele>
        <time>2022-08-24T14:52:40Z</time>
      </trkpt>
      <trkpt lat="42.93805499999993" lon="-1.4915899999999973">
        <ele>667.409</ele>
        <time>2022-08-24T14:52:41Z</time>
      </trkpt>
      <trkpt lat="42.93805399999993" lon="-1.4916059999999973">
        <ele>667.484</ele>
        <time>2022-08-24T14:52:42Z</time>
      </trkpt>
      <trkpt lat="42.93805199999993" lon="-1.4916179999999972">
        <ele>667.294</ele>
        <time>2022-08-24T14:52:43Z</time>
      </trkpt>
      <trkpt lat="42.938046999999926" lon="-1.4916269999999971">
        <ele>667.014</ele>
        <time>2022-08-24T14:52:44Z</time>
      </trkpt>
      <trkpt lat="42.93804399999993" lon="-1.4916379999999971">
        <ele>666.860</ele>
        <time>2022-08-24T14:52:45Z</time>
      </trkpt>
      <trkpt lat="42.93804299999993" lon="-1.491643999999997">
        <ele>666.842</ele>
        <time>2022-08-24T14:52:46Z</time>
      </trkpt>
      <trkpt lat="42.93804099999993" lon="-1.491647999999997">
        <ele>666.839</ele>
        <time>2022-08-24T14:52:47Z</time>
      </trkpt>
      <trkpt lat="42.938032999999926" lon="-1.491663999999997">
        <ele>666.692</ele>
        <time>2022-08-24T14:52:50Z</time>
      </trkpt>
      <trkpt lat="42.938030999999924" lon="-1.491670999999997">
        <ele>666.646</ele>
        <time>2022-08-24T14:52:51Z</time>
      </trkpt>
      <trkpt lat="42.938027999999925" lon="-1.491674999999997">
        <ele>666.675</ele>
        <time>2022-08-24T14:52:52Z</time>
      </trkpt>
      <trkpt lat="42.93802699999993" lon="-1.491679999999997">
        <ele>666.623</ele>
        <time>2022-08-24T14:52:53Z</time>
      </trkpt>
      <trkpt lat="42.93802399999993" lon="-1.491689999999997">
        <ele>666.683</ele>
        <time>2022-08-24T14:52:54Z</time>
      </trkpt>
      <trkpt lat="42.93801699999993" lon="-1.4917109999999971">
        <ele>666.211</ele>
        <time>2022-08-24T14:52:58Z</time>
      </trkpt>
      <trkpt lat="42.938012999999934" lon="-1.4917289999999972">
        <ele>666.009</ele>
        <time>2022-08-24T14:52:59Z</time>
      </trkpt>
      <trkpt lat="42.93801199999994" lon="-1.4917359999999973">
        <ele>665.823</ele>
        <time>2022-08-24T14:53:01Z</time>
      </trkpt>
      <trkpt lat="42.93801099999994" lon="-1.4917449999999972">
        <ele>665.883</ele>
        <time>2022-08-24T14:53:02Z</time>
      </trkpt>
      <trkpt lat="42.93800999999994" lon="-1.4917549999999973">
        <ele>665.683</ele>
        <time>2022-08-24T14:53:03Z</time>
      </trkpt>
      <trkpt lat="42.93801099999994" lon="-1.4917589999999972">
        <ele>665.449</ele>
        <time>2022-08-24T14:53:05Z</time>
      </trkpt>
      <trkpt lat="42.93801099999994" lon="-1.4917589999999972">
        <ele>665.221</ele>
        <time>2022-08-24T14:53:06Z</time>
      </trkpt>
      <trkpt lat="42.93800999999994" lon="-1.491767999999997">
        <ele>665.288</ele>
        <time>2022-08-24T14:53:07Z</time>
      </trkpt>
      <trkpt lat="42.938005999999945" lon="-1.4917859999999972">
        <ele>665.221</ele>
        <time>2022-08-24T14:53:08Z</time>
      </trkpt>
      <trkpt lat="42.937999999999946" lon="-1.4918449999999972">
        <ele>665.025</ele>
        <time>2022-08-24T14:53:10Z</time>
      </trkpt>
      <trkpt lat="42.93799299999995" lon="-1.4919009999999973">
        <ele>665.014</ele>
        <time>2022-08-24T14:53:12Z</time>
      </trkpt>
      <trkpt lat="42.93799099999995" lon="-1.4919299999999973">
        <ele>664.836</ele>
        <time>2022-08-24T14:53:13Z</time>
      </trkpt>
      <trkpt lat="42.93799299999995" lon="-1.4919529999999974">
        <ele>664.817</ele>
        <time>2022-08-24T14:53:14Z</time>
      </trkpt>
      <trkpt lat="42.93799599999995" lon="-1.4919589999999974">
        <ele>664.618</ele>
        <time>2022-08-24T14:53:15Z</time>
      </trkpt>
      <trkpt lat="42.93798999999995" lon="-1.4920339999999974">
        <ele>663.009</ele>
        <time>2022-08-24T14:53:42Z</time>
      </trkpt>
      <trkpt lat="42.93798999999995" lon="-1.4920339999999974">
        <ele>663.054</ele>
        <time>2022-08-24T14:53:46Z</time>
      </trkpt>
      <trkpt lat="42.93798999999995" lon="-1.4920339999999974">
        <ele>663.064</ele>
        <time>2022-08-24T14:53:47Z</time>
      </trkpt>
      <trkpt lat="42.93798999999995" lon="-1.4920339999999974">
        <ele>663.024</ele>
        <time>2022-08-24T14:53:48Z</time>
      </trkpt>
      <trkpt lat="42.93798899999995" lon="-1.4920389999999975">
        <ele>662.810</ele>
        <time>2022-08-24T14:54:01Z</time>
      </trkpt>
      <trkpt lat="42.93798099999995" lon="-1.4920849999999974">
        <ele>662.272</ele>
        <time>2022-08-24T14:54:05Z</time>
      </trkpt>
      <trkpt lat="42.93797899999995" lon="-1.4921069999999974">
        <ele>662.229</ele>
        <time>2022-08-24T14:54:06Z</time>
      </trkpt>
      <trkpt lat="42.93797499999995" lon="-1.4921319999999973">
        <ele>662.042</ele>
        <time>2022-08-24T14:54:07Z</time>
      </trkpt>
      <trkpt lat="42.93796899999995" lon="-1.4921849999999974">
        <ele>661.646</ele>
        <time>2022-08-24T14:54:09Z</time>
      </trkpt>
      <trkpt lat="42.93796399999995" lon="-1.4922299999999975">
        <ele>661.235</ele>
        <time>2022-08-24T14:54:11Z</time>
      </trkpt>
      <trkpt lat="42.93796199999995" lon="-1.4922549999999974">
        <ele>660.828</ele>
        <time>2022-08-24T14:54:12Z</time>
      </trkpt>
      <trkpt lat="42.93795999999995" lon="-1.4922669999999973">
        <ele>660.889</ele>
        <time>2022-08-24T14:54:13Z</time>
      </trkpt>
      <trkpt lat="42.937960999999945" lon="-1.4922859999999973">
        <ele>660.617</ele>
        <time>2022-08-24T14:54:15Z</time>
      </trkpt>
      <trkpt lat="42.93795999999995" lon="-1.4922989999999974">
        <ele>660.409</ele>
        <time>2022-08-24T14:54:16Z</time>
      </trkpt>
      <trkpt lat="42.93794799999995" lon="-1.4923659999999974">
        <ele>660.213</ele>
        <time>2022-08-24T14:54:19Z</time>
      </trkpt>
      <trkpt lat="42.93793699999995" lon="-1.4923979999999974">
        <ele>660.033</ele>
        <time>2022-08-24T14:54:21Z</time>
      </trkpt>
      <trkpt lat="42.93792899999995" lon="-1.4924119999999974">
        <ele>660.013</ele>
        <time>2022-08-24T14:54:22Z</time>
      </trkpt>
      <trkpt lat="42.93792799999995" lon="-1.4924169999999974">
        <ele>659.839</ele>
        <time>2022-08-24T14:54:23Z</time>
      </trkpt>
      <trkpt lat="42.93792799999995" lon="-1.4924169999999974">
        <ele>659.831</ele>
        <time>2022-08-24T14:54:25Z</time>
      </trkpt>
      <trkpt lat="42.93792099999995" lon="-1.4924569999999975">
        <ele>659.638</ele>
        <time>2022-08-24T14:54:29Z</time>
      </trkpt>
      <trkpt lat="42.93790699999995" lon="-1.4925299999999975">
        <ele>659.021</ele>
        <time>2022-08-24T14:54:35Z</time>
      </trkpt>
      <trkpt lat="42.937908999999955" lon="-1.4925539999999975">
        <ele>658.475</ele>
        <time>2022-08-24T14:54:38Z</time>
      </trkpt>
      <trkpt lat="42.93790699999995" lon="-1.4925629999999974">
        <ele>658.244</ele>
        <time>2022-08-24T14:54:39Z</time>
      </trkpt>
      <trkpt lat="42.937905999999955" lon="-1.4925679999999975">
        <ele>658.269</ele>
        <time>2022-08-24T14:54:40Z</time>
      </trkpt>
      <trkpt lat="42.937894999999955" lon="-1.4925889999999975">
        <ele>657.604</ele>
        <time>2022-08-24T14:54:50Z</time>
      </trkpt>
      <trkpt lat="42.937891999999955" lon="-1.4925909999999976">
        <ele>657.824</ele>
        <time>2022-08-24T14:54:54Z</time>
      </trkpt>
      <trkpt lat="42.937891999999955" lon="-1.4925909999999976">
        <ele>657.609</ele>
        <time>2022-08-24T14:54:55Z</time>
      </trkpt>
      <trkpt lat="42.937891999999955" lon="-1.4925909999999976">
        <ele>657.447</ele>
        <time>2022-08-24T14:54:57Z</time>
      </trkpt>
      <trkpt lat="42.937891999999955" lon="-1.4925909999999976">
        <ele>657.247</ele>
        <time>2022-08-24T14:55:00Z</time>
      </trkpt>
      <trkpt lat="42.937891999999955" lon="-1.4925909999999976">
        <ele>657.257</ele>
        <time>2022-08-24T14:55:01Z</time>
      </trkpt>
      <trkpt lat="42.937891999999955" lon="-1.4925909999999976">
        <ele>656.853</ele>
        <time>2022-08-24T14:55:03Z</time>
      </trkpt>
      <trkpt lat="42.937891999999955" lon="-1.4925909999999976">
        <ele>656.255</ele>
        <time>2022-08-24T14:55:07Z</time>
      </trkpt>
      <trkpt lat="42.93788999999995" lon="-1.4925949999999975">
        <ele>656.252</ele>
        <time>2022-08-24T14:55:08Z</time>
      </trkpt>
      <trkpt lat="42.93787599999995" lon="-1.4926409999999974">
        <ele>655.855</ele>
        <time>2022-08-24T14:55:12Z</time>
      </trkpt>
      <trkpt lat="42.93784499999995" lon="-1.4927419999999973">
        <ele>655.249</ele>
        <time>2022-08-24T14:55:18Z</time>
      </trkpt>
      <trkpt lat="42.93783099999995" lon="-1.4927759999999974">
        <ele>655.058</ele>
        <time>2022-08-24T14:55:20Z</time>
      </trkpt>
      <trkpt lat="42.93783099999995" lon="-1.4927759999999974">
        <ele>654.835</ele>
        <time>2022-08-24T14:55:22Z</time>
      </trkpt>
      <trkpt lat="42.93783099999995" lon="-1.4927759999999974">
        <ele>654.686</ele>
        <time>2022-08-24T14:55:23Z</time>
      </trkpt>
      <trkpt lat="42.93782899999995" lon="-1.4927849999999974">
        <ele>654.414</ele>
        <time>2022-08-24T14:55:25Z</time>
      </trkpt>
      <trkpt lat="42.93782599999995" lon="-1.4927959999999973">
        <ele>654.209</ele>
        <time>2022-08-24T14:55:26Z</time>
      </trkpt>
      <trkpt lat="42.93782399999995" lon="-1.4928069999999973">
        <ele>654.274</ele>
        <time>2022-08-24T14:55:27Z</time>
      </trkpt>
      <trkpt lat="42.93782199999995" lon="-1.4928119999999974">
        <ele>653.654</ele>
        <time>2022-08-24T14:55:35Z</time>
      </trkpt>
      <trkpt lat="42.93782199999995" lon="-1.4928119999999974">
        <ele>653.634</ele>
        <time>2022-08-24T14:55:36Z</time>
      </trkpt>
      <trkpt lat="42.93782199999995" lon="-1.4928119999999974">
        <ele>653.440</ele>
        <time>2022-08-24T14:55:43Z</time>
      </trkpt>
      <trkpt lat="42.93782199999995" lon="-1.4928119999999974">
        <ele>653.262</ele>
        <time>2022-08-24T14:55:44Z</time>
      </trkpt>
      <trkpt lat="42.937805999999945" lon="-1.4929159999999975">
        <ele>653.059</ele>
        <time>2022-08-24T14:55:49Z</time>
      </trkpt>
      <trkpt lat="42.93778999999994" lon="-1.4930129999999975">
        <ele>652.642</ele>
        <time>2022-08-24T14:55:53Z</time>
      </trkpt>
      <trkpt lat="42.937788999999945" lon="-1.4930639999999975">
        <ele>652.076</ele>
        <time>2022-08-24T14:55:56Z</time>
      </trkpt>
      <trkpt lat="42.93778699999994" lon="-1.4930719999999975">
        <ele>652.045</ele>
        <time>2022-08-24T14:55:57Z</time>
      </trkpt>
      <trkpt lat="42.93777999999995" lon="-1.4930959999999975">
        <ele>651.872</ele>
        <time>2022-08-24T14:55:59Z</time>
      </trkpt>
      <trkpt lat="42.937774999999945" lon="-1.4931149999999975">
        <ele>651.613</ele>
        <time>2022-08-24T14:56:00Z</time>
      </trkpt>
      <trkpt lat="42.93777399999995" lon="-1.4931369999999975">
        <ele>651.614</ele>
        <time>2022-08-24T14:56:01Z</time>
      </trkpt>
      <trkpt lat="42.93777099999995" lon="-1.4931759999999974">
        <ele>650.809</ele>
        <time>2022-08-24T14:56:04Z</time>
      </trkpt>
      <trkpt lat="42.93776199999995" lon="-1.4932149999999973">
        <ele>650.288</ele>
        <time>2022-08-24T14:56:11Z</time>
      </trkpt>
      <trkpt lat="42.93772299999995" lon="-1.4932789999999974">
        <ele>649.888</ele>
        <time>2022-08-24T14:56:14Z</time>
      </trkpt>
      <trkpt lat="42.937712999999945" lon="-1.4933059999999974">
        <ele>649.628</ele>
        <time>2022-08-24T14:56:15Z</time>
      </trkpt>
      <trkpt lat="42.937707999999944" lon="-1.4933189999999974">
        <ele>649.624</ele>
        <time>2022-08-24T14:56:16Z</time>
      </trkpt>
      <trkpt lat="42.93770399999995" lon="-1.4933379999999974">
        <ele>649.086</ele>
        <time>2022-08-24T14:56:20Z</time>
      </trkpt>
      <trkpt lat="42.93769499999995" lon="-1.4933559999999975">
        <ele>648.443</ele>
        <time>2022-08-24T14:56:23Z</time>
      </trkpt>
      <trkpt lat="42.93768799999995" lon="-1.4933569999999974">
        <ele>648.286</ele>
        <time>2022-08-24T14:56:24Z</time>
      </trkpt>
      <trkpt lat="42.93766299999995" lon="-1.4933689999999973">
        <ele>647.870</ele>
        <time>2022-08-24T14:56:32Z</time>
      </trkpt>
      <trkpt lat="42.937655999999954" lon="-1.4933819999999973">
        <ele>647.499</ele>
        <time>2022-08-24T14:56:35Z</time>
      </trkpt>
      <trkpt lat="42.937655999999954" lon="-1.4933819999999973">
        <ele>647.472</ele>
        <time>2022-08-24T14:56:36Z</time>
      </trkpt>
      <trkpt lat="42.93765499999996" lon="-1.4933839999999974">
        <ele>647.213</ele>
        <time>2022-08-24T14:56:37Z</time>
      </trkpt>
      <trkpt lat="42.93763199999996" lon="-1.4934179999999975">
        <ele>647.014</ele>
        <time>2022-08-24T14:56:40Z</time>
      </trkpt>
      <trkpt lat="42.93762399999996" lon="-1.4934269999999974">
        <ele>647.009</ele>
        <time>2022-08-24T14:56:41Z</time>
      </trkpt>
      <trkpt lat="42.937618999999955" lon="-1.4934369999999975">
        <ele>647.048</ele>
        <time>2022-08-24T14:56:42Z</time>
      </trkpt>
      <trkpt lat="42.937613999999954" lon="-1.4934479999999974">
        <ele>646.828</ele>
        <time>2022-08-24T14:56:43Z</time>
      </trkpt>
      <trkpt lat="42.937607999999955" lon="-1.4934579999999975">
        <ele>646.648</ele>
        <time>2022-08-24T14:56:44Z</time>
      </trkpt>
      <trkpt lat="42.93755299999995" lon="-1.4935379999999976">
        <ele>646.014</ele>
        <time>2022-08-24T14:56:50Z</time>
      </trkpt>
      <trkpt lat="42.93754399999995" lon="-1.4935509999999976">
        <ele>645.696</ele>
        <time>2022-08-24T14:56:51Z</time>
      </trkpt>
      <trkpt lat="42.937536999999956" lon="-1.4935609999999977">
        <ele>645.633</ele>
        <time>2022-08-24T14:56:52Z</time>
      </trkpt>
      <trkpt lat="42.937531999999955" lon="-1.4935669999999976">
        <ele>645.666</ele>
        <time>2022-08-24T14:56:53Z</time>
      </trkpt>
      <trkpt lat="42.93752199999995" lon="-1.4935819999999977">
        <ele>644.860</ele>
        <time>2022-08-24T14:57:00Z</time>
      </trkpt>
      <trkpt lat="42.93749999999995" lon="-1.4936119999999977">
        <ele>644.629</ele>
        <time>2022-08-24T14:57:02Z</time>
      </trkpt>
      <trkpt lat="42.93741199999995" lon="-1.4937079999999978">
        <ele>644.459</ele>
        <time>2022-08-24T14:57:07Z</time>
      </trkpt>
      <trkpt lat="42.93738999999995" lon="-1.4937379999999978">
        <ele>644.403</ele>
        <time>2022-08-24T14:57:08Z</time>
      </trkpt>
      <trkpt lat="42.93735099999995" lon="-1.4937929999999977">
        <ele>644.223</ele>
        <time>2022-08-24T14:57:10Z</time>
      </trkpt>
      <trkpt lat="42.93733299999995" lon="-1.4938239999999976">
        <ele>644.209</ele>
        <time>2022-08-24T14:57:11Z</time>
      </trkpt>
      <trkpt lat="42.93730799999995" lon="-1.4938529999999977">
        <ele>643.886</ele>
        <time>2022-08-24T14:57:12Z</time>
      </trkpt>
      <trkpt lat="42.93726699999995" lon="-1.4938769999999977">
        <ele>643.656</ele>
        <time>2022-08-24T14:57:13Z</time>
      </trkpt>
      <trkpt lat="42.93721699999995" lon="-1.4939039999999977">
        <ele>643.246</ele>
        <time>2022-08-24T14:57:14Z</time>
      </trkpt>
      <trkpt lat="42.93717999999995" lon="-1.4939249999999977">
        <ele>643.082</ele>
        <time>2022-08-24T14:57:15Z</time>
      </trkpt>
      <trkpt lat="42.93714899999995" lon="-1.4939519999999977">
        <ele>642.824</ele>
        <time>2022-08-24T14:57:16Z</time>
      </trkpt>
      <trkpt lat="42.93711199999995" lon="-1.4939789999999977">
        <ele>642.411</ele>
        <time>2022-08-24T14:57:17Z</time>
      </trkpt>
      <trkpt lat="42.93698799999995" lon="-1.4940709999999977">
        <ele>641.864</ele>
        <time>2022-08-24T14:57:20Z</time>
      </trkpt>
      <trkpt lat="42.93695299999995" lon="-1.4941079999999978">
        <ele>641.858</ele>
        <time>2022-08-24T14:57:21Z</time>
      </trkpt>
      <trkpt lat="42.93680699999995" lon="-1.4942499999999979">
        <ele>641.427</ele>
        <time>2022-08-24T14:57:24Z</time>
      </trkpt>
      <trkpt lat="42.93674199999995" lon="-1.494302999999998">
        <ele>641.235</ele>
        <time>2022-08-24T14:57:25Z</time>
      </trkpt>
      <trkpt lat="42.93668399999995" lon="-1.494353999999998">
        <ele>640.886</ele>
        <time>2022-08-24T14:57:26Z</time>
      </trkpt>
      <trkpt lat="42.93663899999995" lon="-1.494402999999998">
        <ele>640.614</ele>
        <time>2022-08-24T14:57:27Z</time>
      </trkpt>
      <trkpt lat="42.93659199999995" lon="-1.4944439999999979">
        <ele>640.609</ele>
        <time>2022-08-24T14:57:28Z</time>
      </trkpt>
      <trkpt lat="42.936555999999946" lon="-1.4944819999999979">
        <ele>640.264</ele>
        <time>2022-08-24T14:57:29Z</time>
      </trkpt>
      <trkpt lat="42.936516999999945" lon="-1.4945199999999979">
        <ele>640.024</ele>
        <time>2022-08-24T14:57:30Z</time>
      </trkpt>
      <trkpt lat="42.936457999999945" lon="-1.4945819999999979">
        <ele>639.644</ele>
        <time>2022-08-24T14:57:31Z</time>
      </trkpt>
      <trkpt lat="42.936350999999945" lon="-1.4946599999999979">
        <ele>639.490</ele>
        <time>2022-08-24T14:57:33Z</time>
      </trkpt>
      <trkpt lat="42.936297999999944" lon="-1.4946959999999978">
        <ele>639.252</ele>
        <time>2022-08-24T14:57:34Z</time>
      </trkpt>
      <trkpt lat="42.93625099999994" lon="-1.4947279999999978">
        <ele>639.249</ele>
        <time>2022-08-24T14:57:35Z</time>
      </trkpt>
      <trkpt lat="42.93621399999994" lon="-1.4947489999999979">
        <ele>639.272</ele>
        <time>2022-08-24T14:57:36Z</time>
      </trkpt>
      <trkpt lat="42.93616699999994" lon="-1.4947629999999978">
        <ele>639.046</ele>
        <time>2022-08-24T14:57:37Z</time>
      </trkpt>
      <trkpt lat="42.93613099999994" lon="-1.4947789999999979">
        <ele>639.215</ele>
        <time>2022-08-24T14:57:38Z</time>
      </trkpt>
      <trkpt lat="42.93610599999994" lon="-1.4947949999999979">
        <ele>639.248</ele>
        <time>2022-08-24T14:57:39Z</time>
      </trkpt>
      <trkpt lat="42.93606999999994" lon="-1.494817999999998">
        <ele>639.061</ele>
        <time>2022-08-24T14:57:40Z</time>
      </trkpt>
      <trkpt lat="42.936039999999934" lon="-1.494840999999998">
        <ele>639.217</ele>
        <time>2022-08-24T14:57:41Z</time>
      </trkpt>
      <trkpt lat="42.93600999999993" lon="-1.494856999999998">
        <ele>639.209</ele>
        <time>2022-08-24T14:57:42Z</time>
      </trkpt>
      <trkpt lat="42.93592099999993" lon="-1.494916999999998">
        <ele>639.225</ele>
        <time>2022-08-24T14:57:45Z</time>
      </trkpt>
      <trkpt lat="42.935882999999926" lon="-1.494935999999998">
        <ele>639.495</ele>
        <time>2022-08-24T14:57:46Z</time>
      </trkpt>
      <trkpt lat="42.93578099999993" lon="-1.4949969999999981">
        <ele>639.275</ele>
        <time>2022-08-24T14:57:49Z</time>
      </trkpt>
      <trkpt lat="42.935713999999926" lon="-1.4950289999999982">
        <ele>639.241</ele>
        <time>2022-08-24T14:57:51Z</time>
      </trkpt>
      <trkpt lat="42.93562899999993" lon="-1.4951089999999982">
        <ele>639.053</ele>
        <time>2022-08-24T14:57:53Z</time>
      </trkpt>
      <trkpt lat="42.93558299999993" lon="-1.4951679999999983">
        <ele>639.050</ele>
        <time>2022-08-24T14:57:54Z</time>
      </trkpt>
      <trkpt lat="42.93555899999993" lon="-1.4951939999999984">
        <ele>639.073</ele>
        <time>2022-08-24T14:57:55Z</time>
      </trkpt>
      <trkpt lat="42.935530999999926" lon="-1.4952249999999982">
        <ele>639.087</ele>
        <time>2022-08-24T14:57:56Z</time>
      </trkpt>
      <trkpt lat="42.93549399999993" lon="-1.4952419999999982">
        <ele>639.056</ele>
        <time>2022-08-24T14:57:57Z</time>
      </trkpt>
      <trkpt lat="42.93546899999993" lon="-1.4952589999999981">
        <ele>639.063</ele>
        <time>2022-08-24T14:57:58Z</time>
      </trkpt>
      <trkpt lat="42.93544599999993" lon="-1.4952799999999982">
        <ele>639.044</ele>
        <time>2022-08-24T14:57:59Z</time>
      </trkpt>
      <trkpt lat="42.93539199999993" lon="-1.4953039999999982">
        <ele>639.018</ele>
        <time>2022-08-24T14:58:01Z</time>
      </trkpt>
      <trkpt lat="42.935364999999926" lon="-1.4953139999999983">
        <ele>639.009</ele>
        <time>2022-08-24T14:58:02Z</time>
      </trkpt>
      <trkpt lat="42.935339999999925" lon="-1.4953249999999982">
        <ele>639.037</ele>
        <time>2022-08-24T14:58:03Z</time>
      </trkpt>
      <trkpt lat="42.93517299999993" lon="-1.4954199999999982">
        <ele>639.257</ele>
        <time>2022-08-24T14:58:09Z</time>
      </trkpt>
      <trkpt lat="42.93514499999993" lon="-1.495439999999998">
        <ele>639.287</ele>
        <time>2022-08-24T14:58:10Z</time>
      </trkpt>
      <trkpt lat="42.935117999999925" lon="-1.495456999999998">
        <ele>639.293</ele>
        <time>2022-08-24T14:58:11Z</time>
      </trkpt>
      <trkpt lat="42.935092999999924" lon="-1.495467999999998">
        <ele>639.295</ele>
        <time>2022-08-24T14:58:12Z</time>
      </trkpt>
      <trkpt lat="42.935066999999925" lon="-1.495479999999998">
        <ele>639.282</ele>
        <time>2022-08-24T14:58:13Z</time>
      </trkpt>
      <trkpt lat="42.93503999999992" lon="-1.495495999999998">
        <ele>639.255</ele>
        <time>2022-08-24T14:58:14Z</time>
      </trkpt>
      <trkpt lat="42.93489399999992" lon="-1.495576999999998">
        <ele>639.689</ele>
        <time>2022-08-24T14:58:19Z</time>
      </trkpt>
      <trkpt lat="42.934833999999924" lon="-1.495595999999998">
        <ele>639.688</ele>
        <time>2022-08-24T14:58:21Z</time>
      </trkpt>
      <trkpt lat="42.934644999999925" lon="-1.4956779999999978">
        <ele>639.644</ele>
        <time>2022-08-24T14:58:27Z</time>
      </trkpt>
      <trkpt lat="42.934616999999925" lon="-1.495684999999998">
        <ele>639.605</ele>
        <time>2022-08-24T14:58:28Z</time>
      </trkpt>
      <trkpt lat="42.93459499999992" lon="-1.495687999999998">
        <ele>639.615</ele>
        <time>2022-08-24T14:58:29Z</time>
      </trkpt>
      <trkpt lat="42.93457399999993" lon="-1.495692999999998">
        <ele>639.609</ele>
        <time>2022-08-24T14:58:30Z</time>
      </trkpt>
      <trkpt lat="42.93455399999993" lon="-1.4957019999999979">
        <ele>639.615</ele>
        <time>2022-08-24T14:58:31Z</time>
      </trkpt>
      <trkpt lat="42.93453699999993" lon="-1.495708999999998">
        <ele>639.665</ele>
        <time>2022-08-24T14:58:32Z</time>
      </trkpt>
      <trkpt lat="42.93451899999993" lon="-1.4957129999999978">
        <ele>640.045</ele>
        <time>2022-08-24T14:58:33Z</time>
      </trkpt>
      <trkpt lat="42.93449999999993" lon="-1.4957209999999979">
        <ele>640.031</ele>
        <time>2022-08-24T14:58:34Z</time>
      </trkpt>
      <trkpt lat="42.93447999999993" lon="-1.495727999999998">
        <ele>640.273</ele>
        <time>2022-08-24T14:58:35Z</time>
      </trkpt>
      <trkpt lat="42.93446299999993" lon="-1.495730999999998">
        <ele>640.230</ele>
        <time>2022-08-24T14:58:36Z</time>
      </trkpt>
      <trkpt lat="42.93444699999993" lon="-1.495732999999998">
        <ele>640.433</ele>
        <time>2022-08-24T14:58:37Z</time>
      </trkpt>
      <trkpt lat="42.934430999999925" lon="-1.495739999999998">
        <ele>640.487</ele>
        <time>2022-08-24T14:58:38Z</time>
      </trkpt>
      <trkpt lat="42.934402999999925" lon="-1.495743999999998">
        <ele>640.616</ele>
        <time>2022-08-24T14:58:40Z</time>
      </trkpt>
      <trkpt lat="42.93438699999992" lon="-1.495750999999998">
        <ele>640.686</ele>
        <time>2022-08-24T14:58:41Z</time>
      </trkpt>
      <trkpt lat="42.934371999999925" lon="-1.4957609999999981">
        <ele>640.660</ele>
        <time>2022-08-24T14:58:42Z</time>
      </trkpt>
      <trkpt lat="42.93435699999993" lon="-1.4957679999999982">
        <ele>640.826</ele>
        <time>2022-08-24T14:58:43Z</time>
      </trkpt>
      <trkpt lat="42.93433599999993" lon="-1.4957749999999983">
        <ele>641.009</ele>
        <time>2022-08-24T14:58:44Z</time>
      </trkpt>
      <trkpt lat="42.934314999999934" lon="-1.4957869999999982">
        <ele>641.279</ele>
        <time>2022-08-24T14:58:45Z</time>
      </trkpt>
      <trkpt lat="42.93429299999993" lon="-1.4957939999999983">
        <ele>641.229</ele>
        <time>2022-08-24T14:58:46Z</time>
      </trkpt>
      <trkpt lat="42.934238999999934" lon="-1.4958309999999984">
        <ele>641.829</ele>
        <time>2022-08-24T14:58:49Z</time>
      </trkpt>
      <trkpt lat="42.934223999999936" lon="-1.4958449999999983">
        <ele>641.855</ele>
        <time>2022-08-24T14:58:50Z</time>
      </trkpt>
      <trkpt lat="42.93420899999994" lon="-1.4958579999999984">
        <ele>642.037</ele>
        <time>2022-08-24T14:58:51Z</time>
      </trkpt>
      <trkpt lat="42.93418299999994" lon="-1.4958709999999984">
        <ele>642.214</ele>
        <time>2022-08-24T14:58:52Z</time>
      </trkpt>
      <trkpt lat="42.93415899999994" lon="-1.4958819999999984">
        <ele>642.267</ele>
        <time>2022-08-24T14:58:53Z</time>
      </trkpt>
      <trkpt lat="42.93410799999994" lon="-1.4958979999999984">
        <ele>642.221</ele>
        <time>2022-08-24T14:58:55Z</time>
      </trkpt>
      <trkpt lat="42.93408699999994" lon="-1.4959019999999983">
        <ele>642.450</ele>
        <time>2022-08-24T14:58:56Z</time>
      </trkpt>
      <trkpt lat="42.93393299999994" lon="-1.4959289999999983">
        <ele>642.257</ele>
        <time>2022-08-24T14:59:00Z</time>
      </trkpt>
      <trkpt lat="42.93389099999994" lon="-1.4959379999999982">
        <ele>642.200</ele>
        <time>2022-08-24T14:59:01Z</time>
      </trkpt>
      <trkpt lat="42.93379999999994" lon="-1.4959459999999982">
        <ele>641.420</ele>
        <time>2022-08-24T14:59:03Z</time>
      </trkpt>
      <trkpt lat="42.93376399999994" lon="-1.4959469999999981">
        <ele>641.009</ele>
        <time>2022-08-24T14:59:04Z</time>
      </trkpt>
      <trkpt lat="42.93373099999994" lon="-1.495950999999998">
        <ele>640.886</ele>
        <time>2022-08-24T14:59:05Z</time>
      </trkpt>
      <trkpt lat="42.933700999999935" lon="-1.495959999999998">
        <ele>640.266</ele>
        <time>2022-08-24T14:59:06Z</time>
      </trkpt>
      <trkpt lat="42.93366099999994" lon="-1.495961999999998">
        <ele>640.036</ele>
        <time>2022-08-24T14:59:07Z</time>
      </trkpt>
      <trkpt lat="42.933633999999934" lon="-1.495972999999998">
        <ele>639.812</ele>
        <time>2022-08-24T14:59:08Z</time>
      </trkpt>
      <trkpt lat="42.933602999999934" lon="-1.495989999999998">
        <ele>639.444</ele>
        <time>2022-08-24T14:59:09Z</time>
      </trkpt>
      <trkpt lat="42.93357599999993" lon="-1.496004999999998">
        <ele>639.291</ele>
        <time>2022-08-24T14:59:10Z</time>
      </trkpt>
      <trkpt lat="42.93354299999993" lon="-1.496025999999998">
        <ele>639.024</ele>
        <time>2022-08-24T14:59:11Z</time>
      </trkpt>
      <trkpt lat="42.93350699999993" lon="-1.496049999999998">
        <ele>639.048</ele>
        <time>2022-08-24T14:59:12Z</time>
      </trkpt>
      <trkpt lat="42.933479999999925" lon="-1.4960629999999981">
        <ele>638.217</ele>
        <time>2022-08-24T14:59:13Z</time>
      </trkpt>
      <trkpt lat="42.93345099999993" lon="-1.4960839999999982">
        <ele>637.832</ele>
        <time>2022-08-24T14:59:14Z</time>
      </trkpt>
      <trkpt lat="42.933349999999926" lon="-1.4961569999999982">
        <ele>636.692</ele>
        <time>2022-08-24T14:59:17Z</time>
      </trkpt>
      <trkpt lat="42.93332899999993" lon="-1.4961779999999982">
        <ele>636.211</ele>
        <time>2022-08-24T14:59:18Z</time>
      </trkpt>
      <trkpt lat="42.93330799999993" lon="-1.4962019999999983">
        <ele>635.609</ele>
        <time>2022-08-24T14:59:19Z</time>
      </trkpt>
      <trkpt lat="42.93328799999993" lon="-1.4962319999999982">
        <ele>635.024</ele>
        <time>2022-08-24T14:59:20Z</time>
      </trkpt>
      <trkpt lat="42.933177999999934" lon="-1.4963589999999982">
        <ele>634.074</ele>
        <time>2022-08-24T14:59:23Z</time>
      </trkpt>
      <trkpt lat="42.93314599999994" lon="-1.4964009999999983">
        <ele>633.824</ele>
        <time>2022-08-24T14:59:24Z</time>
      </trkpt>
      <trkpt lat="42.933126999999935" lon="-1.4964249999999983">
        <ele>633.450</ele>
        <time>2022-08-24T14:59:25Z</time>
      </trkpt>
      <trkpt lat="42.933115999999934" lon="-1.4964409999999984">
        <ele>632.682</ele>
        <time>2022-08-24T14:59:26Z</time>
      </trkpt>
      <trkpt lat="42.93309399999993" lon="-1.4964579999999983">
        <ele>631.469</ele>
        <time>2022-08-24T14:59:27Z</time>
      </trkpt>
      <trkpt lat="42.933070999999934" lon="-1.4964809999999984">
        <ele>631.242</ele>
        <time>2022-08-24T14:59:28Z</time>
      </trkpt>
      <trkpt lat="42.93304599999993" lon="-1.4964889999999984">
        <ele>630.656</ele>
        <time>2022-08-24T14:59:29Z</time>
      </trkpt>
      <trkpt lat="42.93302099999993" lon="-1.4964939999999984">
        <ele>630.485</ele>
        <time>2022-08-24T14:59:30Z</time>
      </trkpt>
      <trkpt lat="42.932994999999934" lon="-1.4964979999999983">
        <ele>630.414</ele>
        <time>2022-08-24T14:59:31Z</time>
      </trkpt>
      <trkpt lat="42.93296999999993" lon="-1.4964989999999982">
        <ele>630.054</ele>
        <time>2022-08-24T14:59:32Z</time>
      </trkpt>
      <trkpt lat="42.932946999999935" lon="-1.4964999999999982">
        <ele>629.809</ele>
        <time>2022-08-24T14:59:33Z</time>
      </trkpt>
      <trkpt lat="42.932926999999935" lon="-1.4964969999999982">
        <ele>629.809</ele>
        <time>2022-08-24T14:59:34Z</time>
      </trkpt>
      <trkpt lat="42.932915999999935" lon="-1.4964949999999981">
        <ele>629.622</ele>
        <time>2022-08-24T14:59:35Z</time>
      </trkpt>
      <trkpt lat="42.932870999999935" lon="-1.496506999999998">
        <ele>628.052</ele>
        <time>2022-08-24T14:59:49Z</time>
      </trkpt>
      <trkpt lat="42.932861999999936" lon="-1.496515999999998">
        <ele>628.032</ele>
        <time>2022-08-24T14:59:50Z</time>
      </trkpt>
      <trkpt lat="42.93285199999993" lon="-1.496526999999998">
        <ele>627.838</ele>
        <time>2022-08-24T14:59:51Z</time>
      </trkpt>
      <trkpt lat="42.932842999999934" lon="-1.496533999999998">
        <ele>626.650</ele>
        <time>2022-08-24T14:59:58Z</time>
      </trkpt>
      <trkpt lat="42.932828999999934" lon="-1.496547999999998">
        <ele>626.627</ele>
        <time>2022-08-24T14:59:59Z</time>
      </trkpt>
      <trkpt lat="42.932808999999935" lon="-1.496569999999998">
        <ele>626.460</ele>
        <time>2022-08-24T15:00:00Z</time>
      </trkpt>
      <trkpt lat="42.932791999999935" lon="-1.496596999999998">
        <ele>626.454</ele>
        <time>2022-08-24T15:00:01Z</time>
      </trkpt>
      <trkpt lat="42.93276599999994" lon="-1.4966949999999979">
        <ele>626.233</ele>
        <time>2022-08-24T15:00:04Z</time>
      </trkpt>
      <trkpt lat="42.932752999999934" lon="-1.4967219999999979">
        <ele>625.836</ele>
        <time>2022-08-24T15:00:05Z</time>
      </trkpt>
      <trkpt lat="42.932738999999934" lon="-1.4967409999999979">
        <ele>625.617</ele>
        <time>2022-08-24T15:00:06Z</time>
      </trkpt>
      <trkpt lat="42.932723999999936" lon="-1.4967579999999978">
        <ele>625.018</ele>
        <time>2022-08-24T15:00:07Z</time>
      </trkpt>
      <trkpt lat="42.93270099999994" lon="-1.4967719999999978">
        <ele>624.609</ele>
        <time>2022-08-24T15:00:08Z</time>
      </trkpt>
      <trkpt lat="42.93267499999994" lon="-1.4967809999999977">
        <ele>624.484</ele>
        <time>2022-08-24T15:00:09Z</time>
      </trkpt>
      <trkpt lat="42.93264399999994" lon="-1.4967869999999976">
        <ele>623.814</ele>
        <time>2022-08-24T15:00:10Z</time>
      </trkpt>
      <trkpt lat="42.93260899999994" lon="-1.4967949999999977">
        <ele>623.674</ele>
        <time>2022-08-24T15:00:11Z</time>
      </trkpt>
      <trkpt lat="42.93257599999994" lon="-1.4968119999999976">
        <ele>622.830</ele>
        <time>2022-08-24T15:00:12Z</time>
      </trkpt>
      <trkpt lat="42.93254799999994" lon="-1.4968279999999976">
        <ele>622.632</ele>
        <time>2022-08-24T15:00:13Z</time>
      </trkpt>
      <trkpt lat="42.93252699999994" lon="-1.4968389999999976">
        <ele>621.829</ele>
        <time>2022-08-24T15:00:14Z</time>
      </trkpt>
      <trkpt lat="42.932509999999944" lon="-1.4968449999999975">
        <ele>621.482</ele>
        <time>2022-08-24T15:00:15Z</time>
      </trkpt>
      <trkpt lat="42.93249699999994" lon="-1.4968489999999974">
        <ele>621.296</ele>
        <time>2022-08-24T15:00:16Z</time>
      </trkpt>
      <trkpt lat="42.93248299999994" lon="-1.4968539999999975">
        <ele>620.675</ele>
        <time>2022-08-24T15:00:17Z</time>
      </trkpt>
      <trkpt lat="42.93246799999994" lon="-1.4968529999999975">
        <ele>620.496</ele>
        <time>2022-08-24T15:00:18Z</time>
      </trkpt>
      <trkpt lat="42.93245399999994" lon="-1.4968509999999975">
        <ele>620.231</ele>
        <time>2022-08-24T15:00:19Z</time>
      </trkpt>
      <trkpt lat="42.932399999999944" lon="-1.4968809999999975">
        <ele>618.424</ele>
        <time>2022-08-24T15:00:31Z</time>
      </trkpt>
      <trkpt lat="42.932385999999944" lon="-1.4968929999999974">
        <ele>618.409</ele>
        <time>2022-08-24T15:00:32Z</time>
      </trkpt>
      <trkpt lat="42.93237599999994" lon="-1.4968999999999975">
        <ele>618.220</ele>
        <time>2022-08-24T15:00:33Z</time>
      </trkpt>
      <trkpt lat="42.932354999999944" lon="-1.4969059999999974">
        <ele>617.460</ele>
        <time>2022-08-24T15:00:35Z</time>
      </trkpt>
      <trkpt lat="42.93234799999995" lon="-1.4969079999999975">
        <ele>617.260</ele>
        <time>2022-08-24T15:00:36Z</time>
      </trkpt>
      <trkpt lat="42.932314999999946" lon="-1.4969249999999974">
        <ele>616.266</ele>
        <time>2022-08-24T15:00:41Z</time>
      </trkpt>
      <trkpt lat="42.93229699999995" lon="-1.4969319999999975">
        <ele>616.288</ele>
        <time>2022-08-24T15:00:42Z</time>
      </trkpt>
      <trkpt lat="42.93228199999995" lon="-1.4969349999999975">
        <ele>616.245</ele>
        <time>2022-08-24T15:00:43Z</time>
      </trkpt>
      <trkpt lat="42.93226599999995" lon="-1.4969369999999975">
        <ele>616.258</ele>
        <time>2022-08-24T15:00:44Z</time>
      </trkpt>
      <trkpt lat="42.932252999999946" lon="-1.4969389999999976">
        <ele>616.032</ele>
        <time>2022-08-24T15:00:45Z</time>
      </trkpt>
      <trkpt lat="42.93224399999995" lon="-1.4969399999999975">
        <ele>615.621</ele>
        <time>2022-08-24T15:00:46Z</time>
      </trkpt>
      <trkpt lat="42.932233999999944" lon="-1.4969399999999975">
        <ele>615.692</ele>
        <time>2022-08-24T15:00:47Z</time>
      </trkpt>
      <trkpt lat="42.932224999999946" lon="-1.4969499999999976">
        <ele>614.873</ele>
        <time>2022-08-24T15:00:48Z</time>
      </trkpt>
      <trkpt lat="42.93221599999995" lon="-1.4969559999999975">
        <ele>614.420</ele>
        <time>2022-08-24T15:00:49Z</time>
      </trkpt>
      <trkpt lat="42.93220699999995" lon="-1.4969659999999976">
        <ele>614.209</ele>
        <time>2022-08-24T15:00:50Z</time>
      </trkpt>
      <trkpt lat="42.932190999999946" lon="-1.4969809999999977">
        <ele>613.630</ele>
        <time>2022-08-24T15:00:52Z</time>
      </trkpt>
      <trkpt lat="42.932185999999945" lon="-1.4969849999999976">
        <ele>613.450</ele>
        <time>2022-08-24T15:00:53Z</time>
      </trkpt>
      <trkpt lat="42.932182999999945" lon="-1.4969869999999976">
        <ele>613.220</ele>
        <time>2022-08-24T15:00:54Z</time>
      </trkpt>
      <trkpt lat="42.932182999999945" lon="-1.4969869999999976">
        <ele>613.286</ele>
        <time>2022-08-24T15:00:55Z</time>
      </trkpt>
      <trkpt lat="42.93218399999994" lon="-1.4969899999999976">
        <ele>612.698</ele>
        <time>2022-08-24T15:00:57Z</time>
      </trkpt>
      <trkpt lat="42.93218199999994" lon="-1.4969959999999976">
        <ele>612.665</ele>
        <time>2022-08-24T15:00:58Z</time>
      </trkpt>
      <trkpt lat="42.93218199999994" lon="-1.4969999999999974">
        <ele>612.258</ele>
        <time>2022-08-24T15:00:59Z</time>
      </trkpt>
      <trkpt lat="42.93217899999994" lon="-1.4970049999999975">
        <ele>611.832</ele>
        <time>2022-08-24T15:01:00Z</time>
      </trkpt>
      <trkpt lat="42.93217899999994" lon="-1.4970049999999975">
        <ele>610.871</ele>
        <time>2022-08-24T15:01:08Z</time>
      </trkpt>
      <trkpt lat="42.93216899999994" lon="-1.4970269999999974">
        <ele>610.624</ele>
        <time>2022-08-24T15:01:10Z</time>
      </trkpt>
      <trkpt lat="42.93212399999994" lon="-1.4971869999999974">
        <ele>609.404</ele>
        <time>2022-08-24T15:01:16Z</time>
      </trkpt>
      <trkpt lat="42.932087999999936" lon="-1.4972569999999974">
        <ele>609.014</ele>
        <time>2022-08-24T15:01:18Z</time>
      </trkpt>
      <trkpt lat="42.93206799999994" lon="-1.4972909999999975">
        <ele>608.609</ele>
        <time>2022-08-24T15:01:19Z</time>
      </trkpt>
      <trkpt lat="42.93204699999994" lon="-1.4973199999999975">
        <ele>608.683</ele>
        <time>2022-08-24T15:01:20Z</time>
      </trkpt>
      <trkpt lat="42.932025999999944" lon="-1.4973409999999976">
        <ele>608.223</ele>
        <time>2022-08-24T15:01:21Z</time>
      </trkpt>
      <trkpt lat="42.93200499999995" lon="-1.4973579999999975">
        <ele>607.863</ele>
        <time>2022-08-24T15:01:22Z</time>
      </trkpt>
      <trkpt lat="42.93198499999995" lon="-1.4973709999999976">
        <ele>607.019</ele>
        <time>2022-08-24T15:01:23Z</time>
      </trkpt>
      <trkpt lat="42.931965999999946" lon="-1.4973889999999976">
        <ele>606.211</ele>
        <time>2022-08-24T15:01:24Z</time>
      </trkpt>
      <trkpt lat="42.931948999999946" lon="-1.4974159999999976">
        <ele>605.868</ele>
        <time>2022-08-24T15:01:25Z</time>
      </trkpt>
      <trkpt lat="42.931929999999944" lon="-1.4974419999999977">
        <ele>605.231</ele>
        <time>2022-08-24T15:01:26Z</time>
      </trkpt>
      <trkpt lat="42.931909999999945" lon="-1.4974689999999977">
        <ele>605.255</ele>
        <time>2022-08-24T15:01:27Z</time>
      </trkpt>
      <trkpt lat="42.93189199999995" lon="-1.4974929999999977">
        <ele>604.864</ele>
        <time>2022-08-24T15:01:28Z</time>
      </trkpt>
      <trkpt lat="42.93187099999995" lon="-1.4975179999999977">
        <ele>604.855</ele>
        <time>2022-08-24T15:01:29Z</time>
      </trkpt>
      <trkpt lat="42.93185499999995" lon="-1.4975429999999976">
        <ele>604.207</ele>
        <time>2022-08-24T15:01:30Z</time>
      </trkpt>
      <trkpt lat="42.93184099999995" lon="-1.4975739999999975">
        <ele>603.817</ele>
        <time>2022-08-24T15:01:31Z</time>
      </trkpt>
      <trkpt lat="42.93182399999995" lon="-1.4975959999999975">
        <ele>603.609</ele>
        <time>2022-08-24T15:01:32Z</time>
      </trkpt>
      <trkpt lat="42.93175999999995" lon="-1.4977099999999974">
        <ele>602.636</ele>
        <time>2022-08-24T15:01:36Z</time>
      </trkpt>
      <trkpt lat="42.93172599999995" lon="-1.4977739999999975">
        <ele>601.476</ele>
        <time>2022-08-24T15:01:38Z</time>
      </trkpt>
      <trkpt lat="42.931709999999946" lon="-1.4978039999999975">
        <ele>601.066</ele>
        <time>2022-08-24T15:01:39Z</time>
      </trkpt>
      <trkpt lat="42.93169799999995" lon="-1.4978179999999974">
        <ele>600.222</ele>
        <time>2022-08-24T15:01:40Z</time>
      </trkpt>
      <trkpt lat="42.93167799999995" lon="-1.4978309999999975">
        <ele>600.044</ele>
        <time>2022-08-24T15:01:41Z</time>
      </trkpt>
      <trkpt lat="42.93166699999995" lon="-1.4978529999999974">
        <ele>599.451</ele>
        <time>2022-08-24T15:01:42Z</time>
      </trkpt>
      <trkpt lat="42.93165499999995" lon="-1.4978619999999974">
        <ele>599.284</ele>
        <time>2022-08-24T15:01:43Z</time>
      </trkpt>
      <trkpt lat="42.93164299999995" lon="-1.4978709999999973">
        <ele>598.668</ele>
        <time>2022-08-24T15:01:44Z</time>
      </trkpt>
      <trkpt lat="42.93163199999995" lon="-1.4978809999999974">
        <ele>598.237</ele>
        <time>2022-08-24T15:01:45Z</time>
      </trkpt>
      <trkpt lat="42.93162899999995" lon="-1.4978819999999973">
        <ele>598.035</ele>
        <time>2022-08-24T15:01:46Z</time>
      </trkpt>
      <trkpt lat="42.93162899999995" lon="-1.4978819999999973">
        <ele>597.886</ele>
        <time>2022-08-24T15:01:47Z</time>
      </trkpt>
      <trkpt lat="42.931624999999954" lon="-1.4978819999999973">
        <ele>597.614</ele>
        <time>2022-08-24T15:01:48Z</time>
      </trkpt>
      <trkpt lat="42.93162299999995" lon="-1.4978819999999973">
        <ele>597.409</ele>
        <time>2022-08-24T15:01:49Z</time>
      </trkpt>
      <trkpt lat="42.93160299999995" lon="-1.4978649999999973">
        <ele>597.074</ele>
        <time>2022-08-24T15:01:52Z</time>
      </trkpt>
      <trkpt lat="42.93158899999995" lon="-1.4978589999999974">
        <ele>596.844</ele>
        <time>2022-08-24T15:01:55Z</time>
      </trkpt>
      <trkpt lat="42.931556999999955" lon="-1.4978939999999974">
        <ele>596.484</ele>
        <time>2022-08-24T15:02:03Z</time>
      </trkpt>
      <trkpt lat="42.931548999999954" lon="-1.4979119999999975">
        <ele>596.430</ele>
        <time>2022-08-24T15:02:05Z</time>
      </trkpt>
      <trkpt lat="42.931548999999954" lon="-1.4979119999999975">
        <ele>596.242</ele>
        <time>2022-08-24T15:02:07Z</time>
      </trkpt>
      <trkpt lat="42.931536999999956" lon="-1.4979249999999975">
        <ele>595.039</ele>
        <time>2022-08-24T15:02:09Z</time>
      </trkpt>
      <trkpt lat="42.931525999999955" lon="-1.4980769999999974">
        <ele>594.442</ele>
        <time>2022-08-24T15:02:14Z</time>
      </trkpt>
      <trkpt lat="42.93151399999996" lon="-1.4981409999999975">
        <ele>593.836</ele>
        <time>2022-08-24T15:02:16Z</time>
      </trkpt>
      <trkpt lat="42.93150699999996" lon="-1.4981699999999976">
        <ele>593.675</ele>
        <time>2022-08-24T15:02:17Z</time>
      </trkpt>
      <trkpt lat="42.93148499999996" lon="-1.4982139999999975">
        <ele>592.878</ele>
        <time>2022-08-24T15:02:19Z</time>
      </trkpt>
      <trkpt lat="42.93146799999996" lon="-1.4982289999999976">
        <ele>592.033</ele>
        <time>2022-08-24T15:02:20Z</time>
      </trkpt>
      <trkpt lat="42.93144899999996" lon="-1.4982469999999977">
        <ele>591.626</ele>
        <time>2022-08-24T15:02:21Z</time>
      </trkpt>
      <trkpt lat="42.93143199999996" lon="-1.4982669999999976">
        <ele>590.609</ele>
        <time>2022-08-24T15:02:22Z</time>
      </trkpt>
      <trkpt lat="42.931353999999956" lon="-1.4983479999999976">
        <ele>589.218</ele>
        <time>2022-08-24T15:02:26Z</time>
      </trkpt>
      <trkpt lat="42.93133299999996" lon="-1.4983649999999975">
        <ele>588.628</ele>
        <time>2022-08-24T15:02:27Z</time>
      </trkpt>
      <trkpt lat="42.93131099999996" lon="-1.4983799999999976">
        <ele>587.638</ele>
        <time>2022-08-24T15:02:28Z</time>
      </trkpt>
      <trkpt lat="42.93129599999996" lon="-1.4983909999999976">
        <ele>587.284</ele>
        <time>2022-08-24T15:02:29Z</time>
      </trkpt>
      <trkpt lat="42.93127899999996" lon="-1.4984119999999976">
        <ele>586.896</ele>
        <time>2022-08-24T15:02:30Z</time>
      </trkpt>
      <trkpt lat="42.93127099999996" lon="-1.4984299999999977">
        <ele>586.423</ele>
        <time>2022-08-24T15:02:31Z</time>
      </trkpt>
      <trkpt lat="42.93125499999996" lon="-1.4984579999999976">
        <ele>586.026</ele>
        <time>2022-08-24T15:02:32Z</time>
      </trkpt>
      <trkpt lat="42.93124299999996" lon="-1.4984809999999977">
        <ele>585.250</ele>
        <time>2022-08-24T15:02:33Z</time>
      </trkpt>
      <trkpt lat="42.93122899999996" lon="-1.4985049999999978">
        <ele>584.459</ele>
        <time>2022-08-24T15:02:34Z</time>
      </trkpt>
      <trkpt lat="42.93121199999996" lon="-1.4985279999999979">
        <ele>584.013</ele>
        <time>2022-08-24T15:02:35Z</time>
      </trkpt>
      <trkpt lat="42.93118199999996" lon="-1.498559999999998">
        <ele>583.643</ele>
        <time>2022-08-24T15:02:37Z</time>
      </trkpt>
      <trkpt lat="42.93117499999996" lon="-1.498569999999998">
        <ele>583.007</ele>
        <time>2022-08-24T15:02:38Z</time>
      </trkpt>
      <trkpt lat="42.931167999999964" lon="-1.498576999999998">
        <ele>582.609</ele>
        <time>2022-08-24T15:02:39Z</time>
      </trkpt>
      <trkpt lat="42.93115699999996" lon="-1.498587999999998">
        <ele>582.272</ele>
        <time>2022-08-24T15:02:40Z</time>
      </trkpt>
      <trkpt lat="42.931138999999966" lon="-1.498603999999998">
        <ele>581.472</ele>
        <time>2022-08-24T15:02:41Z</time>
      </trkpt>
      <trkpt lat="42.931099999999965" lon="-1.498623999999998">
        <ele>580.822</ele>
        <time>2022-08-24T15:02:43Z</time>
      </trkpt>
      <trkpt lat="42.93107399999997" lon="-1.498625999999998">
        <ele>580.028</ele>
        <time>2022-08-24T15:02:44Z</time>
      </trkpt>
      <trkpt lat="42.93104799999997" lon="-1.498627999999998">
        <ele>580.020</ele>
        <time>2022-08-24T15:02:45Z</time>
      </trkpt>
      <trkpt lat="42.93101899999997" lon="-1.498625999999998">
        <ele>579.817</ele>
        <time>2022-08-24T15:02:46Z</time>
      </trkpt>
      <trkpt lat="42.93099199999997" lon="-1.498630999999998">
        <ele>579.010</ele>
        <time>2022-08-24T15:02:47Z</time>
      </trkpt>
      <trkpt lat="42.93096899999997" lon="-1.498635999999998">
        <ele>578.854</ele>
        <time>2022-08-24T15:02:48Z</time>
      </trkpt>
      <trkpt lat="42.93094999999997" lon="-1.4986459999999981">
        <ele>578.463</ele>
        <time>2022-08-24T15:02:49Z</time>
      </trkpt>
      <trkpt lat="42.93093199999997" lon="-1.4986619999999982">
        <ele>578.283</ele>
        <time>2022-08-24T15:02:50Z</time>
      </trkpt>
      <trkpt lat="42.93092099999997" lon="-1.4986779999999982">
        <ele>577.625</ele>
        <time>2022-08-24T15:02:51Z</time>
      </trkpt>
      <trkpt lat="42.93091399999997" lon="-1.4986909999999982">
        <ele>577.417</ele>
        <time>2022-08-24T15:02:52Z</time>
      </trkpt>
      <trkpt lat="42.93090899999997" lon="-1.4987059999999983">
        <ele>577.009</ele>
        <time>2022-08-24T15:02:53Z</time>
      </trkpt>
      <trkpt lat="42.93090599999997" lon="-1.4987259999999982">
        <ele>576.489</ele>
        <time>2022-08-24T15:02:54Z</time>
      </trkpt>
      <trkpt lat="42.93090299999997" lon="-1.4987499999999983">
        <ele>576.229</ele>
        <time>2022-08-24T15:02:55Z</time>
      </trkpt>
      <trkpt lat="42.930898999999975" lon="-1.4987789999999983">
        <ele>575.869</ele>
        <time>2022-08-24T15:02:56Z</time>
      </trkpt>
      <trkpt lat="42.93087799999998" lon="-1.4988479999999984">
        <ele>575.685</ele>
        <time>2022-08-24T15:02:58Z</time>
      </trkpt>
      <trkpt lat="42.93086699999998" lon="-1.4988879999999984">
        <ele>575.627</ele>
        <time>2022-08-24T15:02:59Z</time>
      </trkpt>
      <trkpt lat="42.93086399999998" lon="-1.4989249999999985">
        <ele>575.024</ele>
        <time>2022-08-24T15:03:00Z</time>
      </trkpt>
      <trkpt lat="42.930853999999975" lon="-1.4989609999999984">
        <ele>574.697</ele>
        <time>2022-08-24T15:03:01Z</time>
      </trkpt>
      <trkpt lat="42.930842999999975" lon="-1.4989939999999984">
        <ele>574.451</ele>
        <time>2022-08-24T15:03:02Z</time>
      </trkpt>
      <trkpt lat="42.930833999999976" lon="-1.4990289999999984">
        <ele>573.440</ele>
        <time>2022-08-24T15:03:03Z</time>
      </trkpt>
      <trkpt lat="42.93082699999998" lon="-1.4990619999999983">
        <ele>573.045</ele>
        <time>2022-08-24T15:03:04Z</time>
      </trkpt>
      <trkpt lat="42.93081999999998" lon="-1.4990909999999984">
        <ele>572.447</ele>
        <time>2022-08-24T15:03:05Z</time>
      </trkpt>
      <trkpt lat="42.930801999999986" lon="-1.4991369999999984">
        <ele>572.211</ele>
        <time>2022-08-24T15:03:06Z</time>
      </trkpt>
      <trkpt lat="42.930742999999985" lon="-1.4992359999999985">
        <ele>571.209</ele>
        <time>2022-08-24T15:03:09Z</time>
      </trkpt>
      <trkpt lat="42.93072499999999" lon="-1.4992539999999985">
        <ele>570.475</ele>
        <time>2022-08-24T15:03:10Z</time>
      </trkpt>
      <trkpt lat="42.93070799999999" lon="-1.4992759999999985">
        <ele>570.045</ele>
        <time>2022-08-24T15:03:11Z</time>
      </trkpt>
      <trkpt lat="42.930663999999986" lon="-1.4993859999999986">
        <ele>568.855</ele>
        <time>2022-08-24T15:03:14Z</time>
      </trkpt>
      <trkpt lat="42.930652999999985" lon="-1.4994189999999985">
        <ele>567.821</ele>
        <time>2022-08-24T15:03:15Z</time>
      </trkpt>
      <trkpt lat="42.93064899999999" lon="-1.4994529999999986">
        <ele>567.453</ele>
        <time>2022-08-24T15:03:16Z</time>
      </trkpt>
      <trkpt lat="42.930646999999986" lon="-1.4994859999999985">
        <ele>566.810</ele>
        <time>2022-08-24T15:03:17Z</time>
      </trkpt>
      <trkpt lat="42.930644999999984" lon="-1.4995229999999986">
        <ele>566.433</ele>
        <time>2022-08-24T15:03:18Z</time>
      </trkpt>
      <trkpt lat="42.93063699999998" lon="-1.4995669999999985">
        <ele>565.857</ele>
        <time>2022-08-24T15:03:19Z</time>
      </trkpt>
      <trkpt lat="42.930621999999985" lon="-1.4996169999999986">
        <ele>565.036</ele>
        <time>2022-08-24T15:03:20Z</time>
      </trkpt>
      <trkpt lat="42.930601999999986" lon="-1.4996689999999986">
        <ele>564.661</ele>
        <time>2022-08-24T15:03:21Z</time>
      </trkpt>
      <trkpt lat="42.930576999999985" lon="-1.4997149999999986">
        <ele>564.221</ele>
        <time>2022-08-24T15:03:22Z</time>
      </trkpt>
      <trkpt lat="42.93054999999998" lon="-1.4997579999999986">
        <ele>563.813</ele>
        <time>2022-08-24T15:03:23Z</time>
      </trkpt>
      <trkpt lat="42.93052499999998" lon="-1.4998069999999986">
        <ele>563.409</ele>
        <time>2022-08-24T15:03:24Z</time>
      </trkpt>
      <trkpt lat="42.930503999999985" lon="-1.4998609999999986">
        <ele>562.827</ele>
        <time>2022-08-24T15:03:25Z</time>
      </trkpt>
      <trkpt lat="42.930464999999984" lon="-1.4999689999999986">
        <ele>561.687</ele>
        <time>2022-08-24T15:03:27Z</time>
      </trkpt>
      <trkpt lat="42.93044699999999" lon="-1.5000199999999986">
        <ele>561.437</ele>
        <time>2022-08-24T15:03:28Z</time>
      </trkpt>
      <trkpt lat="42.93043199999999" lon="-1.5000699999999987">
        <ele>560.413</ele>
        <time>2022-08-24T15:03:29Z</time>
      </trkpt>
      <trkpt lat="42.930418999999986" lon="-1.5001189999999986">
        <ele>560.025</ele>
        <time>2022-08-24T15:03:30Z</time>
      </trkpt>
      <trkpt lat="42.930410999999985" lon="-1.5001659999999986">
        <ele>559.662</ele>
        <time>2022-08-24T15:03:31Z</time>
      </trkpt>
      <trkpt lat="42.930407999999986" lon="-1.5002089999999986">
        <ele>559.215</ele>
        <time>2022-08-24T15:03:32Z</time>
      </trkpt>
      <trkpt lat="42.93040699999999" lon="-1.5002489999999986">
        <ele>558.829</ele>
        <time>2022-08-24T15:03:33Z</time>
      </trkpt>
      <trkpt lat="42.93040599999999" lon="-1.5002909999999987">
        <ele>558.248</ele>
        <time>2022-08-24T15:03:34Z</time>
      </trkpt>
      <trkpt lat="42.93040399999999" lon="-1.5003349999999986">
        <ele>557.642</ele>
        <time>2022-08-24T15:03:35Z</time>
      </trkpt>
      <trkpt lat="42.93039199999999" lon="-1.5005049999999986">
        <ele>556.622</ele>
        <time>2022-08-24T15:03:38Z</time>
      </trkpt>
      <trkpt lat="42.93038699999999" lon="-1.5005659999999987">
        <ele>556.014</ele>
        <time>2022-08-24T15:03:39Z</time>
      </trkpt>
      <trkpt lat="42.93037799999999" lon="-1.5006229999999987">
        <ele>555.609</ele>
        <time>2022-08-24T15:03:40Z</time>
      </trkpt>
      <trkpt lat="42.93036599999999" lon="-1.5006769999999987">
        <ele>555.085</ele>
        <time>2022-08-24T15:03:41Z</time>
      </trkpt>
      <trkpt lat="42.93035599999999" lon="-1.5007279999999987">
        <ele>554.895</ele>
        <time>2022-08-24T15:03:42Z</time>
      </trkpt>
      <trkpt lat="42.930345999999986" lon="-1.5007799999999987">
        <ele>554.665</ele>
        <time>2022-08-24T15:03:43Z</time>
      </trkpt>
      <trkpt lat="42.93033699999999" lon="-1.5008359999999987">
        <ele>554.461</ele>
        <time>2022-08-24T15:03:44Z</time>
      </trkpt>
      <trkpt lat="42.93032799999999" lon="-1.5008939999999986">
        <ele>554.023</ele>
        <time>2022-08-24T15:03:45Z</time>
      </trkpt>
      <trkpt lat="42.930300999999986" lon="-1.5010219999999985">
        <ele>553.490</ele>
        <time>2022-08-24T15:03:47Z</time>
      </trkpt>
      <trkpt lat="42.93026899999999" lon="-1.5011489999999985">
        <ele>552.283</ele>
        <time>2022-08-24T15:03:49Z</time>
      </trkpt>
      <trkpt lat="42.93025199999999" lon="-1.5012159999999986">
        <ele>551.837</ele>
        <time>2022-08-24T15:03:50Z</time>
      </trkpt>
      <trkpt lat="42.930238999999986" lon="-1.5012809999999985">
        <ele>551.476</ele>
        <time>2022-08-24T15:03:51Z</time>
      </trkpt>
      <trkpt lat="42.93022999999999" lon="-1.5013449999999986">
        <ele>551.233</ele>
        <time>2022-08-24T15:03:52Z</time>
      </trkpt>
      <trkpt lat="42.930221999999986" lon="-1.5014039999999986">
        <ele>550.623</ele>
        <time>2022-08-24T15:03:53Z</time>
      </trkpt>
      <trkpt lat="42.93021199999998" lon="-1.5014609999999986">
        <ele>550.215</ele>
        <time>2022-08-24T15:03:54Z</time>
      </trkpt>
      <trkpt lat="42.93019799999998" lon="-1.5015179999999986">
        <ele>549.809</ele>
        <time>2022-08-24T15:03:55Z</time>
      </trkpt>
      <trkpt lat="42.93018799999998" lon="-1.5015779999999985">
        <ele>549.654</ele>
        <time>2022-08-24T15:03:56Z</time>
      </trkpt>
      <trkpt lat="42.93017399999998" lon="-1.5017139999999984">
        <ele>548.814</ele>
        <time>2022-08-24T15:03:58Z</time>
      </trkpt>
      <trkpt lat="42.93016099999998" lon="-1.5018549999999984">
        <ele>548.254</ele>
        <time>2022-08-24T15:04:00Z</time>
      </trkpt>
      <trkpt lat="42.93016099999998" lon="-1.5019209999999983">
        <ele>547.810</ele>
        <time>2022-08-24T15:04:01Z</time>
      </trkpt>
      <trkpt lat="42.93016599999998" lon="-1.5019779999999983">
        <ele>547.052</ele>
        <time>2022-08-24T15:04:02Z</time>
      </trkpt>
      <trkpt lat="42.93017399999998" lon="-1.5020239999999982">
        <ele>546.669</ele>
        <time>2022-08-24T15:04:03Z</time>
      </trkpt>
      <trkpt lat="42.93018299999998" lon="-1.5020649999999982">
        <ele>546.462</ele>
        <time>2022-08-24T15:04:04Z</time>
      </trkpt>
      <trkpt lat="42.930186999999975" lon="-1.5021079999999982">
        <ele>546.076</ele>
        <time>2022-08-24T15:04:05Z</time>
      </trkpt>
      <trkpt lat="42.930192999999974" lon="-1.5021539999999982">
        <ele>545.675</ele>
        <time>2022-08-24T15:04:06Z</time>
      </trkpt>
      <trkpt lat="42.93020299999998" lon="-1.5022519999999981">
        <ele>544.446</ele>
        <time>2022-08-24T15:04:08Z</time>
      </trkpt>
      <trkpt lat="42.930200999999975" lon="-1.5022979999999981">
        <ele>544.088</ele>
        <time>2022-08-24T15:04:09Z</time>
      </trkpt>
      <trkpt lat="42.930194999999976" lon="-1.5023399999999982">
        <ele>543.616</ele>
        <time>2022-08-24T15:04:10Z</time>
      </trkpt>
      <trkpt lat="42.93018599999998" lon="-1.5023779999999982">
        <ele>543.409</ele>
        <time>2022-08-24T15:04:11Z</time>
      </trkpt>
      <trkpt lat="42.93016599999998" lon="-1.5024119999999983">
        <ele>542.445</ele>
        <time>2022-08-24T15:04:12Z</time>
      </trkpt>
      <trkpt lat="42.93013399999998" lon="-1.5024439999999983">
        <ele>542.095</ele>
        <time>2022-08-24T15:04:13Z</time>
      </trkpt>
      <trkpt lat="42.93009699999998" lon="-1.5024809999999984">
        <ele>541.665</ele>
        <time>2022-08-24T15:04:14Z</time>
      </trkpt>
      <trkpt lat="42.93006099999998" lon="-1.5025229999999985">
        <ele>541.261</ele>
        <time>2022-08-24T15:04:15Z</time>
      </trkpt>
      <trkpt lat="42.93002499999998" lon="-1.5025629999999985">
        <ele>540.883</ele>
        <time>2022-08-24T15:04:16Z</time>
      </trkpt>
      <trkpt lat="42.92996399999998" lon="-1.5026379999999986">
        <ele>540.020</ele>
        <time>2022-08-24T15:04:18Z</time>
      </trkpt>
      <trkpt lat="42.929939999999974" lon="-1.5026909999999987">
        <ele>539.223</ele>
        <time>2022-08-24T15:04:19Z</time>
      </trkpt>
      <trkpt lat="42.92991799999997" lon="-1.5027379999999986">
        <ele>539.067</ele>
        <time>2022-08-24T15:04:20Z</time>
      </trkpt>
      <trkpt lat="42.92990099999997" lon="-1.5027769999999985">
        <ele>538.436</ele>
        <time>2022-08-24T15:04:21Z</time>
      </trkpt>
      <trkpt lat="42.92989099999997" lon="-1.5028119999999985">
        <ele>538.089</ele>
        <time>2022-08-24T15:04:22Z</time>
      </trkpt>
      <trkpt lat="42.92988299999997" lon="-1.5028459999999986">
        <ele>537.606</ele>
        <time>2022-08-24T15:04:23Z</time>
      </trkpt>
      <trkpt lat="42.92987399999997" lon="-1.5028729999999986">
        <ele>537.226</ele>
        <time>2022-08-24T15:04:24Z</time>
      </trkpt>
      <trkpt lat="42.92986699999997" lon="-1.5028909999999986">
        <ele>537.009</ele>
        <time>2022-08-24T15:04:25Z</time>
      </trkpt>
      <trkpt lat="42.929857999999975" lon="-1.5029169999999987">
        <ele>535.239</ele>
        <time>2022-08-24T15:05:28Z</time>
      </trkpt>
      <trkpt lat="42.92985399999998" lon="-1.5029389999999987">
        <ele>535.249</ele>
        <time>2022-08-24T15:05:29Z</time>
      </trkpt>
      <trkpt lat="42.92984499999998" lon="-1.5030549999999987">
        <ele>535.489</ele>
        <time>2022-08-24T15:05:32Z</time>
      </trkpt>
      <trkpt lat="42.929851999999975" lon="-1.5030929999999987">
        <ele>535.465</ele>
        <time>2022-08-24T15:05:33Z</time>
      </trkpt>
      <trkpt lat="42.92985899999997" lon="-1.5031269999999988">
        <ele>535.447</ele>
        <time>2022-08-24T15:05:34Z</time>
      </trkpt>
      <trkpt lat="42.92986299999997" lon="-1.5031579999999987">
        <ele>535.684</ele>
        <time>2022-08-24T15:05:35Z</time>
      </trkpt>
      <trkpt lat="42.92986399999997" lon="-1.5031879999999986">
        <ele>535.647</ele>
        <time>2022-08-24T15:05:36Z</time>
      </trkpt>
      <trkpt lat="42.92985799999997" lon="-1.5032129999999986">
        <ele>535.891</ele>
        <time>2022-08-24T15:05:37Z</time>
      </trkpt>
      <trkpt lat="42.92985499999997" lon="-1.5032379999999985">
        <ele>536.240</ele>
        <time>2022-08-24T15:05:38Z</time>
      </trkpt>
      <trkpt lat="42.929855999999965" lon="-1.5032639999999986">
        <ele>536.649</ele>
        <time>2022-08-24T15:05:39Z</time>
      </trkpt>
      <trkpt lat="42.929858999999965" lon="-1.5032899999999987">
        <ele>536.802</ele>
        <time>2022-08-24T15:05:40Z</time>
      </trkpt>
      <trkpt lat="42.929861999999964" lon="-1.5033169999999987">
        <ele>537.022</ele>
        <time>2022-08-24T15:05:41Z</time>
      </trkpt>
      <trkpt lat="42.929866999999966" lon="-1.5033449999999986">
        <ele>537.209</ele>
        <time>2022-08-24T15:05:42Z</time>
      </trkpt>
      <trkpt lat="42.929869999999966" lon="-1.5033739999999987">
        <ele>537.285</ele>
        <time>2022-08-24T15:05:43Z</time>
      </trkpt>
      <trkpt lat="42.929872999999965" lon="-1.5034019999999986">
        <ele>537.275</ele>
        <time>2022-08-24T15:05:44Z</time>
      </trkpt>
      <trkpt lat="42.92989199999997" lon="-1.5035609999999986">
        <ele>537.235</ele>
        <time>2022-08-24T15:05:49Z</time>
      </trkpt>
      <trkpt lat="42.929945999999966" lon="-1.5037889999999985">
        <ele>535.811</ele>
        <time>2022-08-24T15:05:55Z</time>
      </trkpt>
      <trkpt lat="42.929959999999966" lon="-1.5038159999999985">
        <ele>535.453</ele>
        <time>2022-08-24T15:05:56Z</time>
      </trkpt>
      <trkpt lat="42.929971999999964" lon="-1.5038429999999985">
        <ele>535.230</ele>
        <time>2022-08-24T15:05:57Z</time>
      </trkpt>
      <trkpt lat="42.929982999999964" lon="-1.5038679999999984">
        <ele>535.053</ele>
        <time>2022-08-24T15:05:58Z</time>
      </trkpt>
      <trkpt lat="42.929993999999965" lon="-1.5038939999999985">
        <ele>534.627</ele>
        <time>2022-08-24T15:05:59Z</time>
      </trkpt>
      <trkpt lat="42.93000399999997" lon="-1.5039159999999985">
        <ele>534.446</ele>
        <time>2022-08-24T15:06:00Z</time>
      </trkpt>
      <trkpt lat="42.93001299999997" lon="-1.5039329999999984">
        <ele>534.074</ele>
        <time>2022-08-24T15:06:01Z</time>
      </trkpt>
      <trkpt lat="42.930024999999965" lon="-1.5039479999999985">
        <ele>534.056</ele>
        <time>2022-08-24T15:06:02Z</time>
      </trkpt>
      <trkpt lat="42.930035999999966" lon="-1.5039609999999985">
        <ele>534.021</ele>
        <time>2022-08-24T15:06:03Z</time>
      </trkpt>
      <trkpt lat="42.93005099999996" lon="-1.5039989999999985">
        <ele>533.809</ele>
        <time>2022-08-24T15:06:05Z</time>
      </trkpt>
      <trkpt lat="42.930061999999964" lon="-1.5040149999999985">
        <ele>533.848</ele>
        <time>2022-08-24T15:06:06Z</time>
      </trkpt>
      <trkpt lat="42.930069999999965" lon="-1.5040319999999985">
        <ele>533.868</ele>
        <time>2022-08-24T15:06:07Z</time>
      </trkpt>
      <trkpt lat="42.930075999999964" lon="-1.5040479999999985">
        <ele>533.888</ele>
        <time>2022-08-24T15:06:08Z</time>
      </trkpt>
      <trkpt lat="42.93008499999996" lon="-1.5040679999999984">
        <ele>533.874</ele>
        <time>2022-08-24T15:06:11Z</time>
      </trkpt>
      <trkpt lat="42.93008499999996" lon="-1.5040679999999984">
        <ele>533.896</ele>
        <time>2022-08-24T15:06:12Z</time>
      </trkpt>
      <trkpt lat="42.93008499999996" lon="-1.5040679999999984">
        <ele>533.873</ele>
        <time>2022-08-24T15:06:13Z</time>
      </trkpt>
      <trkpt lat="42.93008499999996" lon="-1.5040679999999984">
        <ele>533.876</ele>
        <time>2022-08-24T15:07:08Z</time>
      </trkpt>
      <trkpt lat="42.93008499999996" lon="-1.5040679999999984">
        <ele>534.010</ele>
        <time>2022-08-24T15:07:14Z</time>
      </trkpt>
      <trkpt lat="42.930077999999966" lon="-1.5040899999999984">
        <ele>531.829</ele>
        <time>2022-08-24T15:15:31Z</time>
      </trkpt>
      <trkpt lat="42.93007199999997" lon="-1.5040749999999983">
        <ele>531.847</ele>
        <time>2022-08-24T15:15:33Z</time>
      </trkpt>
      <trkpt lat="42.93006599999997" lon="-1.5040619999999982">
        <ele>531.829</ele>
        <time>2022-08-24T15:15:34Z</time>
      </trkpt>
      <trkpt lat="42.93005799999997" lon="-1.5040489999999982">
        <ele>531.821</ele>
        <time>2022-08-24T15:15:35Z</time>
      </trkpt>
      <trkpt lat="42.93005099999997" lon="-1.5040309999999981">
        <ele>531.809</ele>
        <time>2022-08-24T15:15:36Z</time>
      </trkpt>
      <trkpt lat="42.93004199999997" lon="-1.5040089999999982">
        <ele>531.825</ele>
        <time>2022-08-24T15:15:38Z</time>
      </trkpt>
      <trkpt lat="42.93003399999997" lon="-1.504001999999998">
        <ele>531.895</ele>
        <time>2022-08-24T15:15:39Z</time>
      </trkpt>
      <trkpt lat="42.930026999999974" lon="-1.503990999999998">
        <ele>531.685</ele>
        <time>2022-08-24T15:15:40Z</time>
      </trkpt>
      <trkpt lat="42.930020999999975" lon="-1.503975999999998">
        <ele>531.621</ele>
        <time>2022-08-24T15:15:41Z</time>
      </trkpt>
      <trkpt lat="42.930012999999974" lon="-1.503965999999998">
        <ele>531.673</ele>
        <time>2022-08-24T15:15:42Z</time>
      </trkpt>
      <trkpt lat="42.930003999999975" lon="-1.503964999999998">
        <ele>531.660</ele>
        <time>2022-08-24T15:15:43Z</time>
      </trkpt>
      <trkpt lat="42.929997999999976" lon="-1.503959999999998">
        <ele>531.673</ele>
        <time>2022-08-24T15:15:44Z</time>
      </trkpt>
      <trkpt lat="42.92999499999998" lon="-1.5039529999999979">
        <ele>531.467</ele>
        <time>2022-08-24T15:15:45Z</time>
      </trkpt>
      <trkpt lat="42.92998299999998" lon="-1.503938999999998">
        <ele>531.456</ele>
        <time>2022-08-24T15:15:48Z</time>
      </trkpt>
      <trkpt lat="42.92997999999998" lon="-1.503938999999998">
        <ele>531.484</ele>
        <time>2022-08-24T15:15:49Z</time>
      </trkpt>
      <trkpt lat="42.92997499999998" lon="-1.5039529999999979">
        <ele>531.407</ele>
        <time>2022-08-24T15:15:51Z</time>
      </trkpt>
      <trkpt lat="42.929961999999975" lon="-1.503962999999998">
        <ele>531.417</ele>
        <time>2022-08-24T15:15:53Z</time>
      </trkpt>
      <trkpt lat="42.929955999999976" lon="-1.503964999999998">
        <ele>531.409</ele>
        <time>2022-08-24T15:15:54Z</time>
      </trkpt>
      <trkpt lat="42.929947999999975" lon="-1.503968999999998">
        <ele>531.449</ele>
        <time>2022-08-24T15:15:55Z</time>
      </trkpt>
      <trkpt lat="42.92993799999997" lon="-1.503973999999998">
        <ele>531.469</ele>
        <time>2022-08-24T15:15:56Z</time>
      </trkpt>
      <trkpt lat="42.92992699999997" lon="-1.503976999999998">
        <ele>531.489</ele>
        <time>2022-08-24T15:15:57Z</time>
      </trkpt>
      <trkpt lat="42.92991199999997" lon="-1.503976999999998">
        <ele>531.435</ele>
        <time>2022-08-24T15:15:58Z</time>
      </trkpt>
      <trkpt lat="42.929899999999975" lon="-1.5039809999999978">
        <ele>531.487</ele>
        <time>2022-08-24T15:15:59Z</time>
      </trkpt>
      <trkpt lat="42.92989099999998" lon="-1.5039909999999979">
        <ele>531.444</ele>
        <time>2022-08-24T15:16:00Z</time>
      </trkpt>
      <trkpt lat="42.92988499999998" lon="-1.5040029999999978">
        <ele>531.477</ele>
        <time>2022-08-24T15:16:01Z</time>
      </trkpt>
      <trkpt lat="42.929876999999976" lon="-1.5040089999999977">
        <ele>531.481</ele>
        <time>2022-08-24T15:16:02Z</time>
      </trkpt>
      <trkpt lat="42.92985699999998" lon="-1.5040009999999977">
        <ele>531.410</ele>
        <time>2022-08-24T15:16:03Z</time>
      </trkpt>
      <trkpt lat="42.929832999999974" lon="-1.5040089999999977">
        <ele>531.433</ele>
        <time>2022-08-24T15:16:05Z</time>
      </trkpt>
      <trkpt lat="42.92981999999997" lon="-1.5040099999999976">
        <ele>531.423</ele>
        <time>2022-08-24T15:16:06Z</time>
      </trkpt>
      <trkpt lat="42.92980299999997" lon="-1.5040079999999976">
        <ele>531.415</ele>
        <time>2022-08-24T15:16:07Z</time>
      </trkpt>
      <trkpt lat="42.92978399999997" lon="-1.5040069999999977">
        <ele>531.409</ele>
        <time>2022-08-24T15:16:08Z</time>
      </trkpt>
      <trkpt lat="42.92971399999997" lon="-1.5040119999999977">
        <ele>531.454</ele>
        <time>2022-08-24T15:16:12Z</time>
      </trkpt>
      <trkpt lat="42.92970199999997" lon="-1.5040249999999977">
        <ele>531.424</ele>
        <time>2022-08-24T15:16:13Z</time>
      </trkpt>
      <trkpt lat="42.92969699999997" lon="-1.5040289999999976">
        <ele>531.434</ele>
        <time>2022-08-24T15:16:14Z</time>
      </trkpt>
      <trkpt lat="42.92968599999997" lon="-1.5040319999999976">
        <ele>531.450</ele>
        <time>2022-08-24T15:16:15Z</time>
      </trkpt>
      <trkpt lat="42.92967199999997" lon="-1.5040359999999975">
        <ele>531.682</ele>
        <time>2022-08-24T15:16:16Z</time>
      </trkpt>
      <trkpt lat="42.92966099999997" lon="-1.5040409999999975">
        <ele>531.469</ele>
        <time>2022-08-24T15:16:17Z</time>
      </trkpt>
      <trkpt lat="42.92965499999997" lon="-1.5040489999999975">
        <ele>531.462</ele>
        <time>2022-08-24T15:16:18Z</time>
      </trkpt>
      <trkpt lat="42.92963499999997" lon="-1.5040589999999976">
        <ele>531.456</ele>
        <time>2022-08-24T15:16:19Z</time>
      </trkpt>
      <trkpt lat="42.92961899999997" lon="-1.5040619999999976">
        <ele>531.465</ele>
        <time>2022-08-24T15:16:20Z</time>
      </trkpt>
      <trkpt lat="42.929607999999966" lon="-1.5040749999999976">
        <ele>531.479</ele>
        <time>2022-08-24T15:16:21Z</time>
      </trkpt>
      <trkpt lat="42.929596999999966" lon="-1.5040769999999977">
        <ele>531.405</ele>
        <time>2022-08-24T15:16:22Z</time>
      </trkpt>
      <trkpt lat="42.929593999999966" lon="-1.5040839999999978">
        <ele>531.425</ele>
        <time>2022-08-24T15:16:23Z</time>
      </trkpt>
      <trkpt lat="42.929593999999966" lon="-1.5040839999999978">
        <ele>531.409</ele>
        <time>2022-08-24T15:16:24Z</time>
      </trkpt>
      <trkpt lat="42.929579999999966" lon="-1.5040659999999977">
        <ele>531.428</ele>
        <time>2022-08-24T15:16:25Z</time>
      </trkpt>
      <trkpt lat="42.92957599999997" lon="-1.5040609999999976">
        <ele>531.248</ele>
        <time>2022-08-24T15:16:26Z</time>
      </trkpt>
      <trkpt lat="42.92957499999997" lon="-1.5040489999999977">
        <ele>531.228</ele>
        <time>2022-08-24T15:16:27Z</time>
      </trkpt>
      <trkpt lat="42.92957499999997" lon="-1.5040189999999978">
        <ele>531.234</ele>
        <time>2022-08-24T15:16:29Z</time>
      </trkpt>
      <trkpt lat="42.92956999999997" lon="-1.5040089999999977">
        <ele>531.256</ele>
        <time>2022-08-24T15:16:30Z</time>
      </trkpt>
      <trkpt lat="42.92956899999997" lon="-1.5040059999999977">
        <ele>531.273</ele>
        <time>2022-08-24T15:16:31Z</time>
      </trkpt>
      <trkpt lat="42.929567999999975" lon="-1.5040019999999978">
        <ele>531.056</ele>
        <time>2022-08-24T15:16:32Z</time>
      </trkpt>
      <trkpt lat="42.929570999999974" lon="-1.5039829999999978">
        <ele>531.090</ele>
        <time>2022-08-24T15:16:33Z</time>
      </trkpt>
      <trkpt lat="42.92956999999998" lon="-1.5039639999999979">
        <ele>531.039</ele>
        <time>2022-08-24T15:16:34Z</time>
      </trkpt>
      <trkpt lat="42.92956999999998" lon="-1.503959999999998">
        <ele>531.225</ele>
        <time>2022-08-24T15:16:36Z</time>
      </trkpt>
      <trkpt lat="42.92956999999998" lon="-1.503959999999998">
        <ele>531.226</ele>
        <time>2022-08-24T15:16:38Z</time>
      </trkpt>
      <trkpt lat="42.92957199999998" lon="-1.503965999999998">
        <ele>531.008</ele>
        <time>2022-08-24T15:16:39Z</time>
      </trkpt>
      <trkpt lat="42.92957199999998" lon="-1.503965999999998">
        <ele>531.009</ele>
        <time>2022-08-24T15:16:40Z</time>
      </trkpt>
      <trkpt lat="42.92956999999998" lon="-1.503976999999998">
        <ele>530.613</ele>
        <time>2022-08-24T15:18:08Z</time>
      </trkpt>
      <trkpt lat="42.929572999999976" lon="-1.503997999999998">
        <ele>530.853</ele>
        <time>2022-08-24T15:18:10Z</time>
      </trkpt>
      <trkpt lat="42.92957499999998" lon="-1.504007999999998">
        <ele>530.853</ele>
        <time>2022-08-24T15:18:11Z</time>
      </trkpt>
      <trkpt lat="42.92957399999998" lon="-1.504006999999998">
        <ele>530.829</ele>
        <time>2022-08-24T15:18:14Z</time>
      </trkpt>
      <trkpt lat="42.92956299999998" lon="-1.503985999999998">
        <ele>530.831</ele>
        <time>2022-08-24T15:18:15Z</time>
      </trkpt>
      <trkpt lat="42.92954499999998" lon="-1.503950999999998">
        <ele>530.868</ele>
        <time>2022-08-24T15:18:17Z</time>
      </trkpt>
      <trkpt lat="42.92953699999998" lon="-1.503928999999998">
        <ele>530.821</ele>
        <time>2022-08-24T15:18:18Z</time>
      </trkpt>
      <trkpt lat="42.928446999999984" lon="-1.505708999999998">
        <ele>530.045</ele>
        <time>2022-08-24T15:52:52Z</time>
      </trkpt>
      <trkpt lat="42.92827899999998" lon="-1.5057909999999979">
        <ele>529.854</ele>
        <time>2022-08-24T15:52:57Z</time>
      </trkpt>
      <trkpt lat="42.92824499999998" lon="-1.505805999999998">
        <ele>529.818</ele>
        <time>2022-08-24T15:52:58Z</time>
      </trkpt>
      <trkpt lat="42.92813099999998" lon="-1.505865999999998">
        <ele>530.098</ele>
        <time>2022-08-24T15:53:01Z</time>
      </trkpt>
      <trkpt lat="42.92805199999998" lon="-1.505905999999998">
        <ele>530.017</ele>
        <time>2022-08-24T15:53:03Z</time>
      </trkpt>
      <trkpt lat="42.927709999999976" lon="-1.506128999999998">
        <ele>530.209</ele>
        <time>2022-08-24T15:53:12Z</time>
      </trkpt>
      <trkpt lat="42.92735699999998" lon="-1.506425999999998">
        <ele>530.462</ele>
        <time>2022-08-24T15:53:21Z</time>
      </trkpt>
      <trkpt lat="42.92727599999998" lon="-1.506495999999998">
        <ele>530.432</ele>
        <time>2022-08-24T15:53:23Z</time>
      </trkpt>
      <trkpt lat="42.927200999999975" lon="-1.506561999999998">
        <ele>530.422</ele>
        <time>2022-08-24T15:53:25Z</time>
      </trkpt>
      <trkpt lat="42.92716099999998" lon="-1.506596999999998">
        <ele>530.498</ele>
        <time>2022-08-24T15:53:26Z</time>
      </trkpt>
      <trkpt lat="42.927043999999974" lon="-1.5066979999999979">
        <ele>530.480</ele>
        <time>2022-08-24T15:53:29Z</time>
      </trkpt>
      <trkpt lat="42.92692899999997" lon="-1.506799999999998">
        <ele>530.467</ele>
        <time>2022-08-24T15:53:32Z</time>
      </trkpt>
      <trkpt lat="42.92688399999997" lon="-1.506841999999998">
        <ele>530.410</ele>
        <time>2022-08-24T15:53:33Z</time>
      </trkpt>
      <trkpt lat="42.92685399999997" lon="-1.506869999999998">
        <ele>530.414</ele>
        <time>2022-08-24T15:53:34Z</time>
      </trkpt>
      <trkpt lat="42.92681899999997" lon="-1.506898999999998">
        <ele>530.473</ele>
        <time>2022-08-24T15:53:35Z</time>
      </trkpt>
      <trkpt lat="42.926325999999975" lon="-1.507343999999998">
        <ele>530.244</ele>
        <time>2022-08-24T15:53:47Z</time>
      </trkpt>
      <trkpt lat="42.92612799999998" lon="-1.507513999999998">
        <ele>530.205</ele>
        <time>2022-08-24T15:53:52Z</time>
      </trkpt>
      <trkpt lat="42.92612799999998" lon="-1.507513999999998">
        <ele>530.215</ele>
        <time>2022-08-24T15:53:53Z</time>
      </trkpt>
      <trkpt lat="42.92609099999998" lon="-1.507546999999998">
        <ele>530.209</ele>
        <time>2022-08-24T15:53:54Z</time>
      </trkpt>
      <trkpt lat="42.925855999999975" lon="-1.507748999999998">
        <ele>530.475</ele>
        <time>2022-08-24T15:54:00Z</time>
      </trkpt>
      <trkpt lat="42.925610999999975" lon="-1.507955999999998">
        <ele>530.655</ele>
        <time>2022-08-24T15:54:05Z</time>
      </trkpt>
      <trkpt lat="42.92557099999998" lon="-1.507988999999998">
        <ele>530.665</ele>
        <time>2022-08-24T15:54:06Z</time>
      </trkpt>
      <trkpt lat="42.925531999999976" lon="-1.508020999999998">
        <ele>530.641</ele>
        <time>2022-08-24T15:54:07Z</time>
      </trkpt>
      <trkpt lat="42.92549199999998" lon="-1.5080549999999981">
        <ele>530.633</ele>
        <time>2022-08-24T15:54:08Z</time>
      </trkpt>
      <trkpt lat="42.925453999999974" lon="-1.508087999999998">
        <ele>530.680</ele>
        <time>2022-08-24T15:54:09Z</time>
      </trkpt>
      <trkpt lat="42.92541599999997" lon="-1.508118999999998">
        <ele>530.663</ele>
        <time>2022-08-24T15:54:10Z</time>
      </trkpt>
      <trkpt lat="42.92537899999997" lon="-1.5081499999999979">
        <ele>530.657</ele>
        <time>2022-08-24T15:54:11Z</time>
      </trkpt>
      <trkpt lat="42.92534299999997" lon="-1.508178999999998">
        <ele>530.646</ele>
        <time>2022-08-24T15:54:12Z</time>
      </trkpt>
      <trkpt lat="42.92530799999997" lon="-1.508207999999998">
        <ele>530.633</ele>
        <time>2022-08-24T15:54:13Z</time>
      </trkpt>
      <trkpt lat="42.92527199999997" lon="-1.5082389999999979">
        <ele>530.623</ele>
        <time>2022-08-24T15:54:14Z</time>
      </trkpt>
      <trkpt lat="42.92495699999997" lon="-1.5084739999999979">
        <ele>530.215</ele>
        <time>2022-08-24T15:54:22Z</time>
      </trkpt>
      <trkpt lat="42.92470099999997" lon="-1.508658999999998">
        <ele>530.009</ele>
        <time>2022-08-24T15:54:29Z</time>
      </trkpt>
      <trkpt lat="42.92465799999997" lon="-1.5086899999999979">
        <ele>530.034</ele>
        <time>2022-08-24T15:54:30Z</time>
      </trkpt>
      <trkpt lat="42.924614999999974" lon="-1.508721999999998">
        <ele>530.044</ele>
        <time>2022-08-24T15:54:31Z</time>
      </trkpt>
      <trkpt lat="42.92453199999998" lon="-1.5087799999999978">
        <ele>530.014</ele>
        <time>2022-08-24T15:54:32Z</time>
      </trkpt>
      <trkpt lat="42.924490999999975" lon="-1.5088109999999977">
        <ele>530.220</ele>
        <time>2022-08-24T15:54:33Z</time>
      </trkpt>
      <trkpt lat="42.924490999999975" lon="-1.5088109999999977">
        <ele>530.282</ele>
        <time>2022-08-24T15:54:34Z</time>
      </trkpt>
      <trkpt lat="42.92444399999997" lon="-1.5088469999999976">
        <ele>530.239</ele>
        <time>2022-08-24T15:54:35Z</time>
      </trkpt>
      <trkpt lat="42.92441299999997" lon="-1.5088679999999977">
        <ele>530.282</ele>
        <time>2022-08-24T15:54:36Z</time>
      </trkpt>
      <trkpt lat="42.92429299999997" lon="-1.5089509999999977">
        <ele>530.246</ele>
        <time>2022-08-24T15:54:38Z</time>
      </trkpt>
      <trkpt lat="42.92425499999997" lon="-1.5089799999999978">
        <ele>530.285</ele>
        <time>2022-08-24T15:54:39Z</time>
      </trkpt>
      <trkpt lat="42.92420999999997" lon="-1.5090129999999977">
        <ele>530.247</ele>
        <time>2022-08-24T15:54:40Z</time>
      </trkpt>
      <trkpt lat="42.92420999999997" lon="-1.5090129999999977">
        <ele>530.229</ele>
        <time>2022-08-24T15:54:41Z</time>
      </trkpt>
      <trkpt lat="42.92414399999997" lon="-1.5090639999999977">
        <ele>530.421</ele>
        <time>2022-08-24T15:54:42Z</time>
      </trkpt>
      <trkpt lat="42.92410899999997" lon="-1.5090899999999978">
        <ele>530.409</ele>
        <time>2022-08-24T15:54:43Z</time>
      </trkpt>
      <trkpt lat="42.924074999999974" lon="-1.5091149999999978">
        <ele>530.445</ele>
        <time>2022-08-24T15:54:44Z</time>
      </trkpt>
      <trkpt lat="42.924034999999975" lon="-1.5091449999999977">
        <ele>530.485</ele>
        <time>2022-08-24T15:54:45Z</time>
      </trkpt>
      <trkpt lat="42.92400199999997" lon="-1.5091719999999977">
        <ele>530.485</ele>
        <time>2022-08-24T15:54:47Z</time>
      </trkpt>
      <trkpt lat="42.923801999999974" lon="-1.5093319999999977">
        <ele>530.881</ele>
        <time>2022-08-24T15:54:53Z</time>
      </trkpt>
      <trkpt lat="42.923699999999975" lon="-1.5094149999999977">
        <ele>531.023</ele>
        <time>2022-08-24T15:54:56Z</time>
      </trkpt>
      <trkpt lat="42.92363399999998" lon="-1.5094729999999976">
        <ele>531.060</ele>
        <time>2022-08-24T15:54:58Z</time>
      </trkpt>
      <trkpt lat="42.92360099999998" lon="-1.5095019999999977">
        <ele>531.233</ele>
        <time>2022-08-24T15:54:59Z</time>
      </trkpt>
      <trkpt lat="42.923347999999976" lon="-1.5097509999999976">
        <ele>531.827</ele>
        <time>2022-08-24T15:55:07Z</time>
      </trkpt>
      <trkpt lat="42.923313999999976" lon="-1.5097849999999977">
        <ele>531.856</ele>
        <time>2022-08-24T15:55:08Z</time>
      </trkpt>
      <trkpt lat="42.92325199999998" lon="-1.5098489999999978">
        <ele>531.855</ele>
        <time>2022-08-24T15:55:09Z</time>
      </trkpt>
      <trkpt lat="42.92325199999998" lon="-1.5098489999999978">
        <ele>531.807</ele>
        <time>2022-08-24T15:55:10Z</time>
      </trkpt>
      <trkpt lat="42.923221999999974" lon="-1.5098799999999977">
        <ele>531.817</ele>
        <time>2022-08-24T15:55:11Z</time>
      </trkpt>
      <trkpt lat="42.92319199999997" lon="-1.5099129999999976">
        <ele>532.009</ele>
        <time>2022-08-24T15:55:12Z</time>
      </trkpt>
      <trkpt lat="42.92310499999997" lon="-1.5100129999999976">
        <ele>532.026</ele>
        <time>2022-08-24T15:55:15Z</time>
      </trkpt>
      <trkpt lat="42.92307399999997" lon="-1.5100469999999977">
        <ele>532.046</ele>
        <time>2022-08-24T15:55:16Z</time>
      </trkpt>
      <trkpt lat="42.92304499999997" lon="-1.5100799999999976">
        <ele>532.246</ele>
        <time>2022-08-24T15:55:17Z</time>
      </trkpt>
      <trkpt lat="42.922931999999975" lon="-1.5102139999999977">
        <ele>532.082</ele>
        <time>2022-08-24T15:55:21Z</time>
      </trkpt>
      <trkpt lat="42.92284299999997" lon="-1.5103139999999977">
        <ele>532.014</ele>
        <time>2022-08-24T15:55:24Z</time>
      </trkpt>
      <trkpt lat="42.92268799999997" lon="-1.5104999999999977">
        <ele>531.811</ele>
        <time>2022-08-24T15:55:29Z</time>
      </trkpt>
      <trkpt lat="42.922447999999974" lon="-1.5107719999999978">
        <ele>531.674</ele>
        <time>2022-08-24T15:55:36Z</time>
      </trkpt>
      <trkpt lat="42.92231199999998" lon="-1.5109289999999977">
        <ele>531.628</ele>
        <time>2022-08-24T15:55:40Z</time>
      </trkpt>
      <trkpt lat="42.922278999999975" lon="-1.5109629999999978">
        <ele>531.637</ele>
        <time>2022-08-24T15:55:41Z</time>
      </trkpt>
      <trkpt lat="42.92224699999998" lon="-1.5109989999999978">
        <ele>531.444</ele>
        <time>2022-08-24T15:55:42Z</time>
      </trkpt>
      <trkpt lat="42.92221599999998" lon="-1.5110389999999978">
        <ele>531.405</ele>
        <time>2022-08-24T15:55:43Z</time>
      </trkpt>
      <trkpt lat="42.92218499999998" lon="-1.5110799999999978">
        <ele>531.215</ele>
        <time>2022-08-24T15:55:44Z</time>
      </trkpt>
      <trkpt lat="42.92215299999998" lon="-1.5111199999999978">
        <ele>531.209</ele>
        <time>2022-08-24T15:55:45Z</time>
      </trkpt>
      <trkpt lat="42.92211999999998" lon="-1.5111569999999979">
        <ele>531.255</ele>
        <time>2022-08-24T15:55:46Z</time>
      </trkpt>
      <trkpt lat="42.922086999999976" lon="-1.5111899999999978">
        <ele>531.035</ele>
        <time>2022-08-24T15:55:47Z</time>
      </trkpt>
      <trkpt lat="42.92206399999998" lon="-1.5112209999999977">
        <ele>531.085</ele>
        <time>2022-08-24T15:55:48Z</time>
      </trkpt>
      <trkpt lat="42.92204299999998" lon="-1.5112469999999978">
        <ele>531.081</ele>
        <time>2022-08-24T15:55:49Z</time>
      </trkpt>
      <trkpt lat="42.92202399999998" lon="-1.5112709999999978">
        <ele>531.063</ele>
        <time>2022-08-24T15:55:50Z</time>
      </trkpt>
      <trkpt lat="42.92200399999998" lon="-1.5112949999999978">
        <ele>530.870</ele>
        <time>2022-08-24T15:55:51Z</time>
      </trkpt>
      <trkpt lat="42.92196099999998" lon="-1.5113339999999977">
        <ele>530.873</ele>
        <time>2022-08-24T15:55:53Z</time>
      </trkpt>
      <trkpt lat="42.92181699999998" lon="-1.5114839999999978">
        <ele>530.637</ele>
        <time>2022-08-24T15:55:59Z</time>
      </trkpt>
      <trkpt lat="42.921756999999985" lon="-1.511544999999998">
        <ele>530.656</ele>
        <time>2022-08-24T15:56:01Z</time>
      </trkpt>
      <trkpt lat="42.92163199999999" lon="-1.511689999999998">
        <ele>530.641</ele>
        <time>2022-08-24T15:56:05Z</time>
      </trkpt>
      <trkpt lat="42.92156599999999" lon="-1.511775999999998">
        <ele>530.681</ele>
        <time>2022-08-24T15:56:07Z</time>
      </trkpt>
      <trkpt lat="42.92146199999999" lon="-1.511895999999998">
        <ele>530.609</ele>
        <time>2022-08-24T15:56:10Z</time>
      </trkpt>
      <trkpt lat="42.92139199999999" lon="-1.511983999999998">
        <ele>530.409</ele>
        <time>2022-08-24T15:56:12Z</time>
      </trkpt>
      <trkpt lat="42.92126799999999" lon="-1.512193999999998">
        <ele>530.015</ele>
        <time>2022-08-24T15:56:16Z</time>
      </trkpt>
      <trkpt lat="42.92097099999999" lon="-1.512689999999998">
        <ele>529.245</ele>
        <time>2022-08-24T15:56:25Z</time>
      </trkpt>
      <trkpt lat="42.920903999999986" lon="-1.5127999999999981">
        <ele>529.085</ele>
        <time>2022-08-24T15:56:27Z</time>
      </trkpt>
      <trkpt lat="42.92083799999999" lon="-1.5129099999999982">
        <ele>528.831</ele>
        <time>2022-08-24T15:56:29Z</time>
      </trkpt>
      <trkpt lat="42.92063199999999" lon="-1.5132399999999981">
        <ele>527.823</ele>
        <time>2022-08-24T15:56:35Z</time>
      </trkpt>
      <trkpt lat="42.920489999999994" lon="-1.513467999999998">
        <ele>527.680</ele>
        <time>2022-08-24T15:56:39Z</time>
      </trkpt>
      <trkpt lat="42.920351" lon="-1.513701999999998">
        <ele>526.863</ele>
        <time>2022-08-24T15:56:43Z</time>
      </trkpt>
      <trkpt lat="42.920212" lon="-1.513945999999998">
        <ele>526.457</ele>
        <time>2022-08-24T15:56:47Z</time>
      </trkpt>
      <trkpt lat="42.920178" lon="-1.514005999999998">
        <ele>526.256</ele>
        <time>2022-08-24T15:56:48Z</time>
      </trkpt>
      <trkpt lat="42.920111" lon="-1.514128999999998">
        <ele>526.061</ele>
        <time>2022-08-24T15:56:50Z</time>
      </trkpt>
      <trkpt lat="42.920078" lon="-1.5141899999999981">
        <ele>525.821</ele>
        <time>2022-08-24T15:56:51Z</time>
      </trkpt>
      <trkpt lat="42.919976" lon="-1.5143649999999982">
        <ele>525.613</ele>
        <time>2022-08-24T15:56:54Z</time>
      </trkpt>
      <trkpt lat="42.919798" lon="-1.5146499999999983">
        <ele>525.209</ele>
        <time>2022-08-24T15:56:59Z</time>
      </trkpt>
      <trkpt lat="42.919761" lon="-1.5147039999999983">
        <ele>525.267</ele>
        <time>2022-08-24T15:57:00Z</time>
      </trkpt>
      <trkpt lat="42.919725" lon="-1.5147599999999983">
        <ele>525.227</ele>
        <time>2022-08-24T15:57:01Z</time>
      </trkpt>
      <trkpt lat="42.919609" lon="-1.5149149999999982">
        <ele>524.627</ele>
        <time>2022-08-24T15:57:04Z</time>
      </trkpt>
      <trkpt lat="42.91932" lon="-1.5152889999999983">
        <ele>523.853</ele>
        <time>2022-08-24T15:57:11Z</time>
      </trkpt>
      <trkpt lat="42.919235" lon="-1.5153969999999983">
        <ele>523.675</ele>
        <time>2022-08-24T15:57:12Z</time>
      </trkpt>
      <trkpt lat="42.919014" lon="-1.5156839999999983">
        <ele>522.422</ele>
        <time>2022-08-24T15:57:17Z</time>
      </trkpt>
      <trkpt lat="42.918882999999994" lon="-1.5158569999999982">
        <ele>522.025</ele>
        <time>2022-08-24T15:57:21Z</time>
      </trkpt>
      <trkpt lat="42.918741" lon="-1.5160229999999983">
        <ele>521.639</ele>
        <time>2022-08-24T15:57:24Z</time>
      </trkpt>
      <trkpt lat="42.918692" lon="-1.5160759999999984">
        <ele>521.458</ele>
        <time>2022-08-24T15:57:25Z</time>
      </trkpt>
      <trkpt lat="42.918592" lon="-1.5161779999999985">
        <ele>521.445</ele>
        <time>2022-08-24T15:57:26Z</time>
      </trkpt>
      <trkpt lat="42.918499" lon="-1.5162669999999985">
        <ele>521.047</ele>
        <time>2022-08-24T15:57:28Z</time>
      </trkpt>
      <trkpt lat="42.918499" lon="-1.5162669999999985">
        <ele>521.011</ele>
        <time>2022-08-24T15:57:29Z</time>
      </trkpt>
      <trkpt lat="42.918453" lon="-1.5163099999999985">
        <ele>521.009</ele>
        <time>2022-08-24T15:57:30Z</time>
      </trkpt>
      <trkpt lat="42.91841" lon="-1.5163519999999986">
        <ele>520.875</ele>
        <time>2022-08-24T15:57:31Z</time>
      </trkpt>
      <trkpt lat="42.918328" lon="-1.5164269999999986">
        <ele>520.865</ele>
        <time>2022-08-24T15:57:32Z</time>
      </trkpt>
      <trkpt lat="42.918291" lon="-1.5164609999999987">
        <ele>520.875</ele>
        <time>2022-08-24T15:57:33Z</time>
      </trkpt>
      <trkpt lat="42.918291" lon="-1.5164609999999987">
        <ele>520.831</ele>
        <time>2022-08-24T15:57:34Z</time>
      </trkpt>
      <trkpt lat="42.918249" lon="-1.5164979999999988">
        <ele>520.853</ele>
        <time>2022-08-24T15:57:35Z</time>
      </trkpt>
      <trkpt lat="42.918206000000005" lon="-1.5165309999999987">
        <ele>520.820</ele>
        <time>2022-08-24T15:57:36Z</time>
      </trkpt>
      <trkpt lat="42.918164000000004" lon="-1.5165639999999987">
        <ele>520.883</ele>
        <time>2022-08-24T15:57:37Z</time>
      </trkpt>
      <trkpt lat="42.918038" lon="-1.5166739999999987">
        <ele>520.877</ele>
        <time>2022-08-24T15:57:39Z</time>
      </trkpt>
      <trkpt lat="42.917955000000006" lon="-1.5167479999999987">
        <ele>520.866</ele>
        <time>2022-08-24T15:57:41Z</time>
      </trkpt>
      <trkpt lat="42.917655" lon="-1.5170079999999986">
        <ele>521.042</ele>
        <time>2022-08-24T15:57:48Z</time>
      </trkpt>
      <trkpt lat="42.917655" lon="-1.5170079999999986">
        <ele>521.022</ele>
        <time>2022-08-24T15:57:49Z</time>
      </trkpt>
      <trkpt lat="42.917570000000005" lon="-1.5170799999999987">
        <ele>521.014</ele>
        <time>2022-08-24T15:57:51Z</time>
      </trkpt>
      <trkpt lat="42.917528000000004" lon="-1.5171159999999986">
        <ele>521.009</ele>
        <time>2022-08-24T15:57:52Z</time>
      </trkpt>
      <trkpt lat="42.917485000000006" lon="-1.5171479999999986">
        <ele>521.215</ele>
        <time>2022-08-24T15:57:53Z</time>
      </trkpt>
      <trkpt lat="42.917027000000004" lon="-1.5175409999999987">
        <ele>521.235</ele>
        <time>2022-08-24T15:58:04Z</time>
      </trkpt>
      <trkpt lat="42.91698100000001" lon="-1.5175789999999987">
        <ele>521.265</ele>
        <time>2022-08-24T15:58:05Z</time>
      </trkpt>
      <trkpt lat="42.916706000000005" lon="-1.5178029999999987">
        <ele>521.221</ele>
        <time>2022-08-24T15:58:11Z</time>
      </trkpt>
      <trkpt lat="42.916470000000004" lon="-1.5179839999999987">
        <ele>521.283</ele>
        <time>2022-08-24T15:58:16Z</time>
      </trkpt>
      <trkpt lat="42.916424000000006" lon="-1.5180199999999986">
        <ele>521.270</ele>
        <time>2022-08-24T15:58:17Z</time>
      </trkpt>
      <trkpt lat="42.91633300000001" lon="-1.5180869999999986">
        <ele>521.213</ele>
        <time>2022-08-24T15:58:18Z</time>
      </trkpt>
      <trkpt lat="42.91633300000001" lon="-1.5180869999999986">
        <ele>521.247</ele>
        <time>2022-08-24T15:58:19Z</time>
      </trkpt>
      <trkpt lat="42.916292000000006" lon="-1.5181179999999985">
        <ele>521.486</ele>
        <time>2022-08-24T15:58:20Z</time>
      </trkpt>
      <trkpt lat="42.91625500000001" lon="-1.5181479999999985">
        <ele>521.472</ele>
        <time>2022-08-24T15:58:21Z</time>
      </trkpt>
      <trkpt lat="42.91622000000001" lon="-1.5181779999999985">
        <ele>521.213</ele>
        <time>2022-08-24T15:58:22Z</time>
      </trkpt>
      <trkpt lat="42.91618300000001" lon="-1.5182059999999984">
        <ele>521.214</ele>
        <time>2022-08-24T15:58:23Z</time>
      </trkpt>
      <trkpt lat="42.91614900000001" lon="-1.5182339999999983">
        <ele>521.209</ele>
        <time>2022-08-24T15:58:24Z</time>
      </trkpt>
      <trkpt lat="42.91593000000001" lon="-1.5184139999999984">
        <ele>521.048</ele>
        <time>2022-08-24T15:58:30Z</time>
      </trkpt>
      <trkpt lat="42.91556200000001" lon="-1.5187229999999983">
        <ele>521.078</ele>
        <time>2022-08-24T15:58:39Z</time>
      </trkpt>
      <trkpt lat="42.91544400000001" lon="-1.5188469999999983">
        <ele>521.028</ele>
        <time>2022-08-24T15:58:42Z</time>
      </trkpt>
      <trkpt lat="42.91540900000001" lon="-1.5188889999999984">
        <ele>521.064</ele>
        <time>2022-08-24T15:58:43Z</time>
      </trkpt>
      <trkpt lat="42.91530900000001" lon="-1.5190279999999983">
        <ele>521.046</ele>
        <time>2022-08-24T15:58:46Z</time>
      </trkpt>
      <trkpt lat="42.91503200000001" lon="-1.5195149999999982">
        <ele>520.633</ele>
        <time>2022-08-24T15:58:56Z</time>
      </trkpt>
      <trkpt lat="42.914845000000014" lon="-1.5198709999999982">
        <ele>520.226</ele>
        <time>2022-08-24T15:59:01Z</time>
      </trkpt>
      <trkpt lat="42.91468500000001" lon="-1.5201849999999981">
        <ele>519.840</ele>
        <time>2022-08-24T15:59:05Z</time>
      </trkpt>
      <trkpt lat="42.91465200000001" lon="-1.5202459999999982">
        <ele>519.679</ele>
        <time>2022-08-24T15:59:06Z</time>
      </trkpt>
      <trkpt lat="42.91448700000001" lon="-1.5205579999999983">
        <ele>519.052</ele>
        <time>2022-08-24T15:59:11Z</time>
      </trkpt>
      <trkpt lat="42.91434900000001" lon="-1.5208179999999982">
        <ele>518.453</ele>
        <time>2022-08-24T15:59:15Z</time>
      </trkpt>
      <trkpt lat="42.91432300000001" lon="-1.5208669999999982">
        <ele>518.408</ele>
        <time>2022-08-24T15:59:16Z</time>
      </trkpt>
      <trkpt lat="42.91429000000001" lon="-1.5209269999999981">
        <ele>518.209</ele>
        <time>2022-08-24T15:59:17Z</time>
      </trkpt>
      <trkpt lat="42.914257000000006" lon="-1.520984999999998">
        <ele>518.086</ele>
        <time>2022-08-24T15:59:18Z</time>
      </trkpt>
      <trkpt lat="42.91422500000001" lon="-1.521041999999998">
        <ele>518.066</ele>
        <time>2022-08-24T15:59:19Z</time>
      </trkpt>
      <trkpt lat="42.91413300000001" lon="-1.521222999999998">
        <ele>517.826</ele>
        <time>2022-08-24T15:59:22Z</time>
      </trkpt>
      <trkpt lat="42.91410200000001" lon="-1.521281999999998">
        <ele>517.622</ele>
        <time>2022-08-24T15:59:23Z</time>
      </trkpt>
      <trkpt lat="42.914066000000005" lon="-1.5213509999999981">
        <ele>517.684</ele>
        <time>2022-08-24T15:59:24Z</time>
      </trkpt>
      <trkpt lat="42.914038000000005" lon="-1.5214049999999981">
        <ele>517.661</ele>
        <time>2022-08-24T15:59:25Z</time>
      </trkpt>
      <trkpt lat="42.914038000000005" lon="-1.5214049999999981">
        <ele>517.684</ele>
        <time>2022-08-24T15:59:26Z</time>
      </trkpt>
      <trkpt lat="42.914015000000006" lon="-1.521448999999998">
        <ele>517.498</ele>
        <time>2022-08-24T15:59:27Z</time>
      </trkpt>
      <trkpt lat="42.91395800000001" lon="-1.521551999999998">
        <ele>517.487</ele>
        <time>2022-08-24T15:59:28Z</time>
      </trkpt>
      <trkpt lat="42.91392100000001" lon="-1.521611999999998">
        <ele>517.432</ele>
        <time>2022-08-24T15:59:29Z</time>
      </trkpt>
      <trkpt lat="42.91385700000001" lon="-1.521689999999998">
        <ele>517.492</ele>
        <time>2022-08-24T15:59:31Z</time>
      </trkpt>
      <trkpt lat="42.91382000000001" lon="-1.521729999999998">
        <ele>517.411</ele>
        <time>2022-08-24T15:59:32Z</time>
      </trkpt>
      <trkpt lat="42.913596000000005" lon="-1.521982999999998">
        <ele>517.409</ele>
        <time>2022-08-24T15:59:38Z</time>
      </trkpt>
      <trkpt lat="42.91347100000001" lon="-1.522101999999998">
        <ele>517.244</ele>
        <time>2022-08-24T15:59:41Z</time>
      </trkpt>
      <trkpt lat="42.913306000000006" lon="-1.522234999999998">
        <ele>517.244</ele>
        <time>2022-08-24T15:59:45Z</time>
      </trkpt>
      <trkpt lat="42.91307400000001" lon="-1.522399999999998">
        <ele>517.084</ele>
        <time>2022-08-24T15:59:51Z</time>
      </trkpt>
      <trkpt lat="42.91299100000001" lon="-1.522451999999998">
        <ele>516.830</ele>
        <time>2022-08-24T15:59:52Z</time>
      </trkpt>
      <trkpt lat="42.91275500000001" lon="-1.522602999999998">
        <ele>516.632</ele>
        <time>2022-08-24T15:59:57Z</time>
      </trkpt>
      <trkpt lat="42.91270800000001" lon="-1.5226339999999978">
        <ele>516.639</ele>
        <time>2022-08-24T15:59:58Z</time>
      </trkpt>
      <trkpt lat="42.91261300000001" lon="-1.5226959999999978">
        <ele>516.442</ele>
        <time>2022-08-24T16:00:00Z</time>
      </trkpt>
      <trkpt lat="42.912423000000004" lon="-1.5228199999999978">
        <ele>516.276</ele>
        <time>2022-08-24T16:00:04Z</time>
      </trkpt>
      <trkpt lat="42.912164000000004" lon="-1.522996999999998">
        <ele>515.815</ele>
        <time>2022-08-24T16:00:09Z</time>
      </trkpt>
      <trkpt lat="42.911919000000005" lon="-1.523219999999998">
        <ele>515.687</ele>
        <time>2022-08-24T16:00:14Z</time>
      </trkpt>
      <trkpt lat="42.91182800000001" lon="-1.523321999999998">
        <ele>515.442</ele>
        <time>2022-08-24T16:00:16Z</time>
      </trkpt>
      <trkpt lat="42.91162500000001" lon="-1.523599999999998">
        <ele>515.226</ele>
        <time>2022-08-24T16:00:21Z</time>
      </trkpt>
      <trkpt lat="42.91162500000001" lon="-1.523599999999998">
        <ele>515.009</ele>
        <time>2022-08-24T16:00:22Z</time>
      </trkpt>
      <trkpt lat="42.91152700000001" lon="-1.523770999999998">
        <ele>515.079</ele>
        <time>2022-08-24T16:00:24Z</time>
      </trkpt>
      <trkpt lat="42.91152700000001" lon="-1.523770999999998">
        <ele>515.089</ele>
        <time>2022-08-24T16:00:25Z</time>
      </trkpt>
      <trkpt lat="42.911432000000005" lon="-1.523965999999998">
        <ele>515.099</ele>
        <time>2022-08-24T16:00:28Z</time>
      </trkpt>
      <trkpt lat="42.911404000000005" lon="-1.524033999999998">
        <ele>514.835</ele>
        <time>2022-08-24T16:00:29Z</time>
      </trkpt>
      <trkpt lat="42.911376000000004" lon="-1.5241019999999978">
        <ele>515.077</ele>
        <time>2022-08-24T16:00:30Z</time>
      </trkpt>
      <trkpt lat="42.911328000000005" lon="-1.5242369999999978">
        <ele>514.634</ele>
        <time>2022-08-24T16:00:32Z</time>
      </trkpt>
      <trkpt lat="42.911304" lon="-1.5243049999999978">
        <ele>514.847</ele>
        <time>2022-08-24T16:00:33Z</time>
      </trkpt>
      <trkpt lat="42.911212" lon="-1.5246779999999978">
        <ele>514.851</ele>
        <time>2022-08-24T16:00:37Z</time>
      </trkpt>
      <trkpt lat="42.911159" lon="-1.5251089999999978">
        <ele>514.660</ele>
        <time>2022-08-24T16:00:43Z</time>
      </trkpt>
      <trkpt lat="42.911145999999995" lon="-1.525274999999998">
        <ele>514.835</ele>
        <time>2022-08-24T16:00:45Z</time>
      </trkpt>
      <trkpt lat="42.91113599999999" lon="-1.525424999999998">
        <ele>514.886</ele>
        <time>2022-08-24T16:00:47Z</time>
      </trkpt>
      <trkpt lat="42.91112599999999" lon="-1.525560999999998">
        <ele>514.814</ele>
        <time>2022-08-24T16:00:49Z</time>
      </trkpt>
      <trkpt lat="42.91110999999999" lon="-1.525861999999998">
        <ele>514.809</ele>
        <time>2022-08-24T16:00:53Z</time>
      </trkpt>
      <trkpt lat="42.91110699999999" lon="-1.525935999999998">
        <ele>514.824</ele>
        <time>2022-08-24T16:00:54Z</time>
      </trkpt>
      <trkpt lat="42.91110099999999" lon="-1.526008999999998">
        <ele>514.834</ele>
        <time>2022-08-24T16:00:55Z</time>
      </trkpt>
      <trkpt lat="42.91109399999999" lon="-1.526091999999998">
        <ele>514.874</ele>
        <time>2022-08-24T16:00:56Z</time>
      </trkpt>
      <trkpt lat="42.91109199999999" lon="-1.526155999999998">
        <ele>514.830</ele>
        <time>2022-08-24T16:00:57Z</time>
      </trkpt>
      <trkpt lat="42.91108699999999" lon="-1.526207999999998">
        <ele>515.052</ele>
        <time>2022-08-24T16:00:58Z</time>
      </trkpt>
      <trkpt lat="42.911081999999986" lon="-1.526286999999998">
        <ele>515.029</ele>
        <time>2022-08-24T16:00:59Z</time>
      </trkpt>
      <trkpt lat="42.91107599999999" lon="-1.5263499999999979">
        <ele>515.272</ele>
        <time>2022-08-24T16:01:00Z</time>
      </trkpt>
      <trkpt lat="42.911070999999986" lon="-1.526413999999998">
        <ele>515.226</ele>
        <time>2022-08-24T16:01:01Z</time>
      </trkpt>
      <trkpt lat="42.911065999999984" lon="-1.526475999999998">
        <ele>515.435</ele>
        <time>2022-08-24T16:01:02Z</time>
      </trkpt>
      <trkpt lat="42.911062999999984" lon="-1.526535999999998">
        <ele>515.467</ele>
        <time>2022-08-24T16:01:03Z</time>
      </trkpt>
      <trkpt lat="42.911048999999984" lon="-1.5267819999999979">
        <ele>515.681</ele>
        <time>2022-08-24T16:01:07Z</time>
      </trkpt>
      <trkpt lat="42.91094899999998" lon="-1.5275459999999978">
        <ele>515.819</ele>
        <time>2022-08-24T16:01:19Z</time>
      </trkpt>
      <trkpt lat="42.91093299999998" lon="-1.5276249999999978">
        <ele>516.009</ele>
        <time>2022-08-24T16:01:20Z</time>
      </trkpt>
      <trkpt lat="42.91091499999998" lon="-1.5276879999999977">
        <ele>516.087</ele>
        <time>2022-08-24T16:01:21Z</time>
      </trkpt>
      <trkpt lat="42.910899999999984" lon="-1.5277479999999977">
        <ele>516.027</ele>
        <time>2022-08-24T16:01:22Z</time>
      </trkpt>
      <trkpt lat="42.91078599999998" lon="-1.5281969999999976">
        <ele>516.077</ele>
        <time>2022-08-24T16:01:29Z</time>
      </trkpt>
      <trkpt lat="42.91060599999998" lon="-1.5288739999999976">
        <ele>515.463</ele>
        <time>2022-08-24T16:01:39Z</time>
      </trkpt>
      <trkpt lat="42.91055199999998" lon="-1.5290839999999977">
        <ele>515.255</ele>
        <time>2022-08-24T16:01:42Z</time>
      </trkpt>
      <trkpt lat="42.91051199999998" lon="-1.5292229999999976">
        <ele>515.072</ele>
        <time>2022-08-24T16:01:44Z</time>
      </trkpt>
      <trkpt lat="42.910491999999984" lon="-1.5292899999999976">
        <ele>515.085</ele>
        <time>2022-08-24T16:01:45Z</time>
      </trkpt>
      <trkpt lat="42.91041399999998" lon="-1.5295689999999975">
        <ele>514.829</ele>
        <time>2022-08-24T16:01:49Z</time>
      </trkpt>
      <trkpt lat="42.91037299999998" lon="-1.5297089999999975">
        <ele>514.858</ele>
        <time>2022-08-24T16:01:51Z</time>
      </trkpt>
      <trkpt lat="42.910196999999975" lon="-1.5303519999999975">
        <ele>514.037</ele>
        <time>2022-08-24T16:02:00Z</time>
      </trkpt>
      <trkpt lat="42.91017599999998" lon="-1.5304249999999975">
        <ele>514.049</ele>
        <time>2022-08-24T16:02:01Z</time>
      </trkpt>
      <trkpt lat="42.91015299999998" lon="-1.5304999999999975">
        <ele>514.013</ele>
        <time>2022-08-24T16:02:02Z</time>
      </trkpt>
      <trkpt lat="42.90998699999998" lon="-1.5310889999999975">
        <ele>513.009</ele>
        <time>2022-08-24T16:02:10Z</time>
      </trkpt>
      <trkpt lat="42.90998699999998" lon="-1.5310889999999975">
        <ele>513.034</ele>
        <time>2022-08-24T16:02:11Z</time>
      </trkpt>
      <trkpt lat="42.90994499999998" lon="-1.5312379999999974">
        <ele>512.874</ele>
        <time>2022-08-24T16:02:12Z</time>
      </trkpt>
      <trkpt lat="42.90992599999998" lon="-1.5313109999999974">
        <ele>512.854</ele>
        <time>2022-08-24T16:02:13Z</time>
      </trkpt>
      <trkpt lat="42.909802999999975" lon="-1.5317419999999975">
        <ele>512.670</ele>
        <time>2022-08-24T16:02:19Z</time>
      </trkpt>
      <trkpt lat="42.90977899999997" lon="-1.5318309999999975">
        <ele>512.472</ele>
        <time>2022-08-24T16:02:21Z</time>
      </trkpt>
      <trkpt lat="42.909763999999974" lon="-1.5318889999999974">
        <ele>512.489</ele>
        <time>2022-08-24T16:02:22Z</time>
      </trkpt>
      <trkpt lat="42.90965899999998" lon="-1.5322399999999974">
        <ele>512.092</ele>
        <time>2022-08-24T16:02:27Z</time>
      </trkpt>
      <trkpt lat="42.909636999999975" lon="-1.5323109999999973">
        <ele>512.086</ele>
        <time>2022-08-24T16:02:28Z</time>
      </trkpt>
      <trkpt lat="42.90957899999997" lon="-1.5325199999999972">
        <ele>511.885</ele>
        <time>2022-08-24T16:02:30Z</time>
      </trkpt>
      <trkpt lat="42.90955999999997" lon="-1.5325909999999972">
        <ele>511.854</ele>
        <time>2022-08-24T16:02:32Z</time>
      </trkpt>
      <trkpt lat="42.909538999999974" lon="-1.5326599999999972">
        <ele>511.656</ele>
        <time>2022-08-24T16:02:33Z</time>
      </trkpt>
      <trkpt lat="42.90949999999997" lon="-1.5327969999999973">
        <ele>511.611</ele>
        <time>2022-08-24T16:02:35Z</time>
      </trkpt>
      <trkpt lat="42.909479999999974" lon="-1.5328659999999974">
        <ele>511.609</ele>
        <time>2022-08-24T16:02:36Z</time>
      </trkpt>
      <trkpt lat="42.90943899999997" lon="-1.5329979999999974">
        <ele>511.686</ele>
        <time>2022-08-24T16:02:38Z</time>
      </trkpt>
      <trkpt lat="42.90937699999997" lon="-1.5331949999999974">
        <ele>511.666</ele>
        <time>2022-08-24T16:02:41Z</time>
      </trkpt>
      <trkpt lat="42.909358999999974" lon="-1.5332599999999974">
        <ele>511.496</ele>
        <time>2022-08-24T16:02:42Z</time>
      </trkpt>
      <trkpt lat="42.909295999999976" lon="-1.5334499999999973">
        <ele>511.462</ele>
        <time>2022-08-24T16:02:44Z</time>
      </trkpt>
      <trkpt lat="42.90923299999998" lon="-1.5336439999999973">
        <ele>511.424</ele>
        <time>2022-08-24T16:02:47Z</time>
      </trkpt>
      <trkpt lat="42.90910699999998" lon="-1.5339629999999973">
        <ele>511.251</ele>
        <time>2022-08-24T16:02:53Z</time>
      </trkpt>
      <trkpt lat="42.90894599999998" lon="-1.5342649999999973">
        <ele>511.074</ele>
        <time>2022-08-24T16:02:58Z</time>
      </trkpt>
      <trkpt lat="42.908825999999976" lon="-1.5344429999999973">
        <ele>510.848</ele>
        <time>2022-08-24T16:03:00Z</time>
      </trkpt>
      <trkpt lat="42.90851299999998" lon="-1.5347889999999973">
        <ele>510.287</ele>
        <time>2022-08-24T16:03:08Z</time>
      </trkpt>
      <trkpt lat="42.90830899999998" lon="-1.5349509999999973">
        <ele>509.822</ele>
        <time>2022-08-24T16:03:11Z</time>
      </trkpt>
      <trkpt lat="42.90808999999998" lon="-1.5350999999999972">
        <ele>509.262</ele>
        <time>2022-08-24T16:03:16Z</time>
      </trkpt>
      <trkpt lat="42.90791799999998" lon="-1.5351939999999973">
        <ele>508.808</ele>
        <time>2022-08-24T16:03:19Z</time>
      </trkpt>
      <trkpt lat="42.90779899999998" lon="-1.5352489999999972">
        <ele>508.609</ele>
        <time>2022-08-24T16:03:21Z</time>
      </trkpt>
      <trkpt lat="42.90767799999998" lon="-1.535295999999997">
        <ele>508.413</ele>
        <time>2022-08-24T16:03:22Z</time>
      </trkpt>
      <trkpt lat="42.90767799999998" lon="-1.535295999999997">
        <ele>508.433</ele>
        <time>2022-08-24T16:03:23Z</time>
      </trkpt>
      <trkpt lat="42.90749899999998" lon="-1.5353599999999972">
        <ele>508.253</ele>
        <time>2022-08-24T16:03:25Z</time>
      </trkpt>
      <trkpt lat="42.90738899999998" lon="-1.5353999999999972">
        <ele>508.069</ele>
        <time>2022-08-24T16:03:28Z</time>
      </trkpt>
      <trkpt lat="42.90728299999998" lon="-1.5354429999999972">
        <ele>508.021</ele>
        <time>2022-08-24T16:03:29Z</time>
      </trkpt>
      <trkpt lat="42.90728299999998" lon="-1.5354429999999972">
        <ele>508.098</ele>
        <time>2022-08-24T16:03:30Z</time>
      </trkpt>
      <trkpt lat="42.90717099999998" lon="-1.5354769999999973">
        <ele>508.071</ele>
        <time>2022-08-24T16:03:31Z</time>
      </trkpt>
      <trkpt lat="42.90711699999998" lon="-1.5354949999999974">
        <ele>508.085</ele>
        <time>2022-08-24T16:03:33Z</time>
      </trkpt>
      <trkpt lat="42.90700199999998" lon="-1.5355319999999975">
        <ele>508.084</ele>
        <time>2022-08-24T16:03:35Z</time>
      </trkpt>
      <trkpt lat="42.906886999999976" lon="-1.5355699999999974">
        <ele>508.057</ele>
        <time>2022-08-24T16:03:36Z</time>
      </trkpt>
      <trkpt lat="42.906490999999974" lon="-1.5356979999999973">
        <ele>507.800</ele>
        <time>2022-08-24T16:03:44Z</time>
      </trkpt>
      <trkpt lat="42.906206999999974" lon="-1.5358519999999973">
        <ele>507.820</ele>
        <time>2022-08-24T16:03:48Z</time>
      </trkpt>
      <trkpt lat="42.90615199999997" lon="-1.5358949999999973">
        <ele>507.609</ele>
        <time>2022-08-24T16:03:50Z</time>
      </trkpt>
      <trkpt lat="42.90609899999997" lon="-1.5359419999999973">
        <ele>507.626</ele>
        <time>2022-08-24T16:03:51Z</time>
      </trkpt>
      <trkpt lat="42.90604699999997" lon="-1.5359909999999972">
        <ele>507.626</ele>
        <time>2022-08-24T16:03:52Z</time>
      </trkpt>
      <trkpt lat="42.905947999999974" lon="-1.5360909999999972">
        <ele>507.646</ele>
        <time>2022-08-24T16:03:53Z</time>
      </trkpt>
      <trkpt lat="42.90584999999997" lon="-1.5361969999999971">
        <ele>507.232</ele>
        <time>2022-08-24T16:03:56Z</time>
      </trkpt>
      <trkpt lat="42.90575799999997" lon="-1.536302999999997">
        <ele>507.244</ele>
        <time>2022-08-24T16:03:57Z</time>
      </trkpt>
      <trkpt lat="42.90562199999997" lon="-1.536465999999997">
        <ele>507.041</ele>
        <time>2022-08-24T16:04:00Z</time>
      </trkpt>
      <trkpt lat="42.905533999999975" lon="-1.536576999999997">
        <ele>506.864</ele>
        <time>2022-08-24T16:04:02Z</time>
      </trkpt>
      <trkpt lat="42.905434999999976" lon="-1.536698999999997">
        <ele>506.888</ele>
        <time>2022-08-24T16:04:05Z</time>
      </trkpt>
      <trkpt lat="42.90539999999998" lon="-1.536743999999997">
        <ele>506.827</ele>
        <time>2022-08-24T16:04:06Z</time>
      </trkpt>
      <trkpt lat="42.90531199999998" lon="-1.536851999999997">
        <ele>506.865</ele>
        <time>2022-08-24T16:04:07Z</time>
      </trkpt>
      <trkpt lat="42.90526799999998" lon="-1.536902999999997">
        <ele>506.868</ele>
        <time>2022-08-24T16:04:08Z</time>
      </trkpt>
      <trkpt lat="42.90522599999998" lon="-1.5369529999999971">
        <ele>506.814</ele>
        <time>2022-08-24T16:04:09Z</time>
      </trkpt>
      <trkpt lat="42.90522599999998" lon="-1.5369529999999971">
        <ele>506.609</ele>
        <time>2022-08-24T16:04:10Z</time>
      </trkpt>
      <trkpt lat="42.905184999999975" lon="-1.5370029999999972">
        <ele>506.677</ele>
        <time>2022-08-24T16:04:11Z</time>
      </trkpt>
      <trkpt lat="42.90501999999997" lon="-1.5372029999999972">
        <ele>506.477</ele>
        <time>2022-08-24T16:04:15Z</time>
      </trkpt>
      <trkpt lat="42.90481199999997" lon="-1.5374589999999972">
        <ele>506.437</ele>
        <time>2022-08-24T16:04:19Z</time>
      </trkpt>
      <trkpt lat="42.90459799999997" lon="-1.5377189999999972">
        <ele>506.423</ele>
        <time>2022-08-24T16:04:24Z</time>
      </trkpt>
      <trkpt lat="42.90459799999997" lon="-1.5377189999999972">
        <ele>506.465</ele>
        <time>2022-08-24T16:04:25Z</time>
      </trkpt>
      <trkpt lat="42.90455699999997" lon="-1.5377689999999973">
        <ele>506.492</ele>
        <time>2022-08-24T16:04:26Z</time>
      </trkpt>
      <trkpt lat="42.904515999999965" lon="-1.5378189999999974">
        <ele>506.275</ele>
        <time>2022-08-24T16:04:27Z</time>
      </trkpt>
      <trkpt lat="42.90439399999997" lon="-1.5379639999999974">
        <ele>506.229</ele>
        <time>2022-08-24T16:04:29Z</time>
      </trkpt>
      <trkpt lat="42.90439399999997" lon="-1.5379639999999974">
        <ele>506.278</ele>
        <time>2022-08-24T16:04:30Z</time>
      </trkpt>
      <trkpt lat="42.90423299999997" lon="-1.5381679999999975">
        <ele>506.283</ele>
        <time>2022-08-24T16:04:33Z</time>
      </trkpt>
      <trkpt lat="42.903966999999966" lon="-1.5385589999999976">
        <ele>506.025</ele>
        <time>2022-08-24T16:04:40Z</time>
      </trkpt>
      <trkpt lat="42.903966999999966" lon="-1.5385589999999976">
        <ele>506.017</ele>
        <time>2022-08-24T16:04:41Z</time>
      </trkpt>
      <trkpt lat="42.903930999999965" lon="-1.5386169999999975">
        <ele>506.009</ele>
        <time>2022-08-24T16:04:42Z</time>
      </trkpt>
      <trkpt lat="42.903899999999965" lon="-1.5386789999999975">
        <ele>506.089</ele>
        <time>2022-08-24T16:04:43Z</time>
      </trkpt>
      <trkpt lat="42.90383899999996" lon="-1.5387989999999974">
        <ele>505.819</ele>
        <time>2022-08-24T16:04:44Z</time>
      </trkpt>
      <trkpt lat="42.90380899999996" lon="-1.5388599999999975">
        <ele>505.889</ele>
        <time>2022-08-24T16:04:45Z</time>
      </trkpt>
      <trkpt lat="42.90380899999996" lon="-1.5388599999999975">
        <ele>505.885</ele>
        <time>2022-08-24T16:04:46Z</time>
      </trkpt>
      <trkpt lat="42.90378199999996" lon="-1.5389249999999974">
        <ele>505.827</ele>
        <time>2022-08-24T16:04:47Z</time>
      </trkpt>
      <trkpt lat="42.903757999999954" lon="-1.5389879999999974">
        <ele>505.874</ele>
        <time>2022-08-24T16:04:48Z</time>
      </trkpt>
      <trkpt lat="42.90371399999995" lon="-1.5391109999999975">
        <ele>505.877</ele>
        <time>2022-08-24T16:04:49Z</time>
      </trkpt>
      <trkpt lat="42.90371399999995" lon="-1.5391109999999975">
        <ele>505.841</ele>
        <time>2022-08-24T16:04:50Z</time>
      </trkpt>
      <trkpt lat="42.90367199999995" lon="-1.5392339999999975">
        <ele>505.870</ele>
        <time>2022-08-24T16:04:52Z</time>
      </trkpt>
      <trkpt lat="42.903650999999954" lon="-1.5392949999999976">
        <ele>505.846</ele>
        <time>2022-08-24T16:04:53Z</time>
      </trkpt>
      <trkpt lat="42.90361299999995" lon="-1.5394209999999977">
        <ele>505.888</ele>
        <time>2022-08-24T16:04:54Z</time>
      </trkpt>
      <trkpt lat="42.90359799999995" lon="-1.5394819999999978">
        <ele>505.816</ele>
        <time>2022-08-24T16:04:55Z</time>
      </trkpt>
      <trkpt lat="42.90359799999995" lon="-1.5394819999999978">
        <ele>505.809</ele>
        <time>2022-08-24T16:04:56Z</time>
      </trkpt>
      <trkpt lat="42.903571999999954" lon="-1.5396119999999978">
        <ele>506.025</ele>
        <time>2022-08-24T16:04:58Z</time>
      </trkpt>
      <trkpt lat="42.90354699999995" lon="-1.5397409999999978">
        <ele>506.065</ele>
        <time>2022-08-24T16:04:59Z</time>
      </trkpt>
      <trkpt lat="42.90347199999995" lon="-1.5402569999999978">
        <ele>506.245</ele>
        <time>2022-08-24T16:05:08Z</time>
      </trkpt>
      <trkpt lat="42.90345899999995" lon="-1.5403219999999977">
        <ele>506.261</ele>
        <time>2022-08-24T16:05:09Z</time>
      </trkpt>
      <trkpt lat="42.903445999999946" lon="-1.5404449999999978">
        <ele>506.253</ele>
        <time>2022-08-24T16:05:10Z</time>
      </trkpt>
      <trkpt lat="42.90343699999995" lon="-1.540508999999998">
        <ele>506.280</ele>
        <time>2022-08-24T16:05:11Z</time>
      </trkpt>
      <trkpt lat="42.90343699999995" lon="-1.540508999999998">
        <ele>506.413</ele>
        <time>2022-08-24T16:05:12Z</time>
      </trkpt>
      <trkpt lat="42.90340199999995" lon="-1.5407609999999978">
        <ele>506.667</ele>
        <time>2022-08-24T16:05:15Z</time>
      </trkpt>
      <trkpt lat="42.90336099999995" lon="-1.5409529999999978">
        <ele>506.866</ele>
        <time>2022-08-24T16:05:19Z</time>
      </trkpt>
      <trkpt lat="42.903203999999945" lon="-1.5415229999999978">
        <ele>506.824</ele>
        <time>2022-08-24T16:05:28Z</time>
      </trkpt>
      <trkpt lat="42.90318299999995" lon="-1.5415859999999977">
        <ele>506.804</ele>
        <time>2022-08-24T16:05:29Z</time>
      </trkpt>
      <trkpt lat="42.90293199999995" lon="-1.5421389999999977">
        <ele>506.814</ele>
        <time>2022-08-24T16:05:37Z</time>
      </trkpt>
      <trkpt lat="42.90260099999995" lon="-1.5426429999999978">
        <ele>506.609</ele>
        <time>2022-08-24T16:05:47Z</time>
      </trkpt>
      <trkpt lat="42.90256099999995" lon="-1.5426969999999978">
        <ele>506.683</ele>
        <time>2022-08-24T16:05:48Z</time>
      </trkpt>
      <trkpt lat="42.90215099999995" lon="-1.5431729999999977">
        <ele>506.073</ele>
        <time>2022-08-24T16:05:57Z</time>
      </trkpt>
      <trkpt lat="42.90205399999995" lon="-1.5432849999999976">
        <ele>505.813</ele>
        <time>2022-08-24T16:05:58Z</time>
      </trkpt>
      <trkpt lat="42.90205399999995" lon="-1.5432849999999976">
        <ele>505.689</ele>
        <time>2022-08-24T16:05:59Z</time>
      </trkpt>
      <trkpt lat="42.90174999999995" lon="-1.5436289999999975">
        <ele>504.671</ele>
        <time>2022-08-24T16:06:05Z</time>
      </trkpt>
      <trkpt lat="42.90170099999995" lon="-1.5436859999999974">
        <ele>504.698</ele>
        <time>2022-08-24T16:06:06Z</time>
      </trkpt>
      <trkpt lat="42.901651999999956" lon="-1.5437449999999975">
        <ele>504.421</ele>
        <time>2022-08-24T16:06:07Z</time>
      </trkpt>
      <trkpt lat="42.90155299999996" lon="-1.5438569999999974">
        <ele>504.495</ele>
        <time>2022-08-24T16:06:08Z</time>
      </trkpt>
      <trkpt lat="42.90140099999996" lon="-1.5440269999999974">
        <ele>503.694</ele>
        <time>2022-08-24T16:06:12Z</time>
      </trkpt>
      <trkpt lat="42.901255999999954" lon="-1.5442109999999973">
        <ele>503.275</ele>
        <time>2022-08-24T16:06:15Z</time>
      </trkpt>
      <trkpt lat="42.90112199999995" lon="-1.5444079999999973">
        <ele>502.828</ele>
        <time>2022-08-24T16:06:18Z</time>
      </trkpt>
      <trkpt lat="42.90103599999995" lon="-1.5445459999999973">
        <ele>502.620</ele>
        <time>2022-08-24T16:06:19Z</time>
      </trkpt>
      <trkpt lat="42.900918999999945" lon="-1.5447669999999973">
        <ele>502.009</ele>
        <time>2022-08-24T16:06:23Z</time>
      </trkpt>
      <trkpt lat="42.90084799999995" lon="-1.5449189999999973">
        <ele>501.828</ele>
        <time>2022-08-24T16:06:24Z</time>
      </trkpt>
      <trkpt lat="42.90084799999995" lon="-1.5449189999999973">
        <ele>501.638</ele>
        <time>2022-08-24T16:06:25Z</time>
      </trkpt>
      <trkpt lat="42.900814999999945" lon="-1.5449979999999972">
        <ele>501.458</ele>
        <time>2022-08-24T16:06:26Z</time>
      </trkpt>
      <trkpt lat="42.90078499999994" lon="-1.5450799999999971">
        <ele>501.484</ele>
        <time>2022-08-24T16:06:27Z</time>
      </trkpt>
      <trkpt lat="42.90073399999994" lon="-1.5452419999999971">
        <ele>501.286</ele>
        <time>2022-08-24T16:06:28Z</time>
      </trkpt>
      <trkpt lat="42.90071199999994" lon="-1.5453219999999972">
        <ele>501.223</ele>
        <time>2022-08-24T16:06:29Z</time>
      </trkpt>
      <trkpt lat="42.90071199999994" lon="-1.5453219999999972">
        <ele>501.226</ele>
        <time>2022-08-24T16:06:30Z</time>
      </trkpt>
      <trkpt lat="42.90069199999994" lon="-1.5454019999999973">
        <ele>501.050</ele>
        <time>2022-08-24T16:06:31Z</time>
      </trkpt>
      <trkpt lat="42.90067299999994" lon="-1.5454809999999972">
        <ele>501.079</ele>
        <time>2022-08-24T16:06:32Z</time>
      </trkpt>
      <trkpt lat="42.90063699999994" lon="-1.5456379999999972">
        <ele>500.645</ele>
        <time>2022-08-24T16:06:33Z</time>
      </trkpt>
      <trkpt lat="42.90063699999994" lon="-1.5456379999999972">
        <ele>500.647</ele>
        <time>2022-08-24T16:06:34Z</time>
      </trkpt>
      <trkpt lat="42.90062299999994" lon="-1.5457129999999972">
        <ele>500.411</ele>
        <time>2022-08-24T16:06:35Z</time>
      </trkpt>
      <trkpt lat="42.90060899999994" lon="-1.5457869999999971">
        <ele>500.409</ele>
        <time>2022-08-24T16:06:36Z</time>
      </trkpt>
      <trkpt lat="42.90059699999994" lon="-1.545860999999997">
        <ele>500.215</ele>
        <time>2022-08-24T16:06:37Z</time>
      </trkpt>
      <trkpt lat="42.90058599999994" lon="-1.5459329999999971">
        <ele>500.235</ele>
        <time>2022-08-24T16:06:38Z</time>
      </trkpt>
      <trkpt lat="42.90052899999994" lon="-1.5462999999999971">
        <ele>500.065</ele>
        <time>2022-08-24T16:06:43Z</time>
      </trkpt>
      <trkpt lat="42.90049299999994" lon="-1.5465229999999972">
        <ele>500.011</ele>
        <time>2022-08-24T16:06:46Z</time>
      </trkpt>
      <trkpt lat="42.90048199999994" lon="-1.5465959999999972">
        <ele>500.033</ele>
        <time>2022-08-24T16:06:47Z</time>
      </trkpt>
      <trkpt lat="42.90047199999994" lon="-1.5466669999999971">
        <ele>500.060</ele>
        <time>2022-08-24T16:06:48Z</time>
      </trkpt>
      <trkpt lat="42.900452999999935" lon="-1.546805999999997">
        <ele>500.083</ele>
        <time>2022-08-24T16:06:49Z</time>
      </trkpt>
      <trkpt lat="42.90043399999993" lon="-1.546945999999997">
        <ele>499.887</ele>
        <time>2022-08-24T16:06:52Z</time>
      </trkpt>
      <trkpt lat="42.900399999999934" lon="-1.547161999999997">
        <ele>500.276</ele>
        <time>2022-08-24T16:06:54Z</time>
      </trkpt>
      <trkpt lat="42.90037299999993" lon="-1.547302999999997">
        <ele>500.228</ele>
        <time>2022-08-24T16:06:57Z</time>
      </trkpt>
      <trkpt lat="42.90028599999993" lon="-1.547654999999997">
        <ele>500.289</ele>
        <time>2022-08-24T16:07:01Z</time>
      </trkpt>
      <trkpt lat="42.90017499999993" lon="-1.547993999999997">
        <ele>500.017</ele>
        <time>2022-08-24T16:07:06Z</time>
      </trkpt>
      <trkpt lat="42.89997599999993" lon="-1.548449999999997">
        <ele>499.809</ele>
        <time>2022-08-24T16:07:14Z</time>
      </trkpt>
      <trkpt lat="42.89994299999993" lon="-1.548511999999997">
        <ele>499.813</ele>
        <time>2022-08-24T16:07:15Z</time>
      </trkpt>
      <trkpt lat="42.89983899999993" lon="-1.548695999999997">
        <ele>499.833</ele>
        <time>2022-08-24T16:07:17Z</time>
      </trkpt>
      <trkpt lat="42.89983899999993" lon="-1.548695999999997">
        <ele>499.623</ele>
        <time>2022-08-24T16:07:18Z</time>
      </trkpt>
      <trkpt lat="42.89969599999993" lon="-1.548928999999997">
        <ele>499.689</ele>
        <time>2022-08-24T16:07:21Z</time>
      </trkpt>
      <trkpt lat="42.89965899999993" lon="-1.548987999999997">
        <ele>499.431</ele>
        <time>2022-08-24T16:07:23Z</time>
      </trkpt>
      <trkpt lat="42.899507999999926" lon="-1.549222999999997">
        <ele>499.078</ele>
        <time>2022-08-24T16:07:26Z</time>
      </trkpt>
      <trkpt lat="42.89947099999993" lon="-1.549281999999997">
        <ele>498.831</ele>
        <time>2022-08-24T16:07:27Z</time>
      </trkpt>
      <trkpt lat="42.89942599999993" lon="-1.549353999999997">
        <ele>498.845</ele>
        <time>2022-08-24T16:07:28Z</time>
      </trkpt>
      <trkpt lat="42.89939099999993" lon="-1.549413999999997">
        <ele>498.654</ele>
        <time>2022-08-24T16:07:29Z</time>
      </trkpt>
      <trkpt lat="42.89939099999993" lon="-1.549413999999997">
        <ele>498.445</ele>
        <time>2022-08-24T16:07:30Z</time>
      </trkpt>
      <trkpt lat="42.89932699999993" lon="-1.549520999999997">
        <ele>498.247</ele>
        <time>2022-08-24T16:07:31Z</time>
      </trkpt>
      <trkpt lat="42.89921899999993" lon="-1.549691999999997">
        <ele>498.011</ele>
        <time>2022-08-24T16:07:35Z</time>
      </trkpt>
      <trkpt lat="42.89918299999993" lon="-1.549747999999997">
        <ele>498.009</ele>
        <time>2022-08-24T16:07:36Z</time>
      </trkpt>
      <trkpt lat="42.89911499999993" lon="-1.549860999999997">
        <ele>497.865</ele>
        <time>2022-08-24T16:07:37Z</time>
      </trkpt>
      <trkpt lat="42.89900499999993" lon="-1.550038999999997">
        <ele>497.865</ele>
        <time>2022-08-24T16:07:41Z</time>
      </trkpt>
      <trkpt lat="42.89866699999993" lon="-1.550586999999997">
        <ele>497.665</ele>
        <time>2022-08-24T16:07:50Z</time>
      </trkpt>
      <trkpt lat="42.89862799999993" lon="-1.550649999999997">
        <ele>497.631</ele>
        <time>2022-08-24T16:07:51Z</time>
      </trkpt>
      <trkpt lat="42.89859099999993" lon="-1.550711999999997">
        <ele>497.623</ele>
        <time>2022-08-24T16:07:52Z</time>
      </trkpt>
      <trkpt lat="42.89855499999993" lon="-1.550771999999997">
        <ele>497.480</ele>
        <time>2022-08-24T16:07:53Z</time>
      </trkpt>
      <trkpt lat="42.89851799999993" lon="-1.550830999999997">
        <ele>497.473</ele>
        <time>2022-08-24T16:07:54Z</time>
      </trkpt>
      <trkpt lat="42.89836899999993" lon="-1.551077999999997">
        <ele>497.277</ele>
        <time>2022-08-24T16:07:58Z</time>
      </trkpt>
      <trkpt lat="42.89829299999993" lon="-1.551196999999997">
        <ele>497.236</ele>
        <time>2022-08-24T16:07:59Z</time>
      </trkpt>
      <trkpt lat="42.89829299999993" lon="-1.551196999999997">
        <ele>497.478</ele>
        <time>2022-08-24T16:08:00Z</time>
      </trkpt>
      <trkpt lat="42.89825499999993" lon="-1.551256999999997">
        <ele>497.433</ele>
        <time>2022-08-24T16:08:01Z</time>
      </trkpt>
      <trkpt lat="42.89821799999993" lon="-1.551314999999997">
        <ele>497.226</ele>
        <time>2022-08-24T16:08:02Z</time>
      </trkpt>
      <trkpt lat="42.898142999999926" lon="-1.551437999999997">
        <ele>496.809</ele>
        <time>2022-08-24T16:08:03Z</time>
      </trkpt>
      <trkpt lat="42.897827999999926" lon="-1.5519439999999969">
        <ele>496.068</ele>
        <time>2022-08-24T16:08:12Z</time>
      </trkpt>
      <trkpt lat="42.89770899999993" lon="-1.5521359999999969">
        <ele>496.058</ele>
        <time>2022-08-24T16:08:14Z</time>
      </trkpt>
      <trkpt lat="42.89746599999993" lon="-1.552523999999997">
        <ele>495.468</ele>
        <time>2022-08-24T16:08:21Z</time>
      </trkpt>
      <trkpt lat="42.89731199999993" lon="-1.5527789999999968">
        <ele>495.234</ele>
        <time>2022-08-24T16:08:24Z</time>
      </trkpt>
      <trkpt lat="42.89723099999993" lon="-1.5529039999999967">
        <ele>495.056</ele>
        <time>2022-08-24T16:08:26Z</time>
      </trkpt>
      <trkpt lat="42.897188999999926" lon="-1.5529629999999968">
        <ele>495.093</ele>
        <time>2022-08-24T16:08:27Z</time>
      </trkpt>
      <trkpt lat="42.89710399999993" lon="-1.5530789999999968">
        <ele>495.046</ele>
        <time>2022-08-24T16:08:29Z</time>
      </trkpt>
      <trkpt lat="42.89701599999993" lon="-1.5531899999999967">
        <ele>495.060</ele>
        <time>2022-08-24T16:08:32Z</time>
      </trkpt>
      <trkpt lat="42.89661599999993" lon="-1.5535679999999967">
        <ele>495.089</ele>
        <time>2022-08-24T16:08:39Z</time>
      </trkpt>
      <trkpt lat="42.89650099999993" lon="-1.5536529999999966">
        <ele>494.877</ele>
        <time>2022-08-24T16:08:42Z</time>
      </trkpt>
      <trkpt lat="42.89638899999993" lon="-1.5537349999999965">
        <ele>494.861</ele>
        <time>2022-08-24T16:08:43Z</time>
      </trkpt>
      <trkpt lat="42.89628099999993" lon="-1.5538239999999965">
        <ele>494.627</ele>
        <time>2022-08-24T16:08:45Z</time>
      </trkpt>
      <trkpt lat="42.89622599999993" lon="-1.5538639999999966">
        <ele>494.609</ele>
        <time>2022-08-24T16:08:46Z</time>
      </trkpt>
      <trkpt lat="42.896105999999925" lon="-1.5539529999999966">
        <ele>494.498</ele>
        <time>2022-08-24T16:08:48Z</time>
      </trkpt>
      <trkpt lat="42.89606199999992" lon="-1.5539879999999966">
        <ele>494.238</ele>
        <time>2022-08-24T16:08:49Z</time>
      </trkpt>
      <trkpt lat="42.89555899999992" lon="-1.5543589999999965">
        <ele>494.068</ele>
        <time>2022-08-24T16:08:58Z</time>
      </trkpt>
      <trkpt lat="42.89550599999992" lon="-1.5544039999999966">
        <ele>494.034</ele>
        <time>2022-08-24T16:08:59Z</time>
      </trkpt>
      <trkpt lat="42.89545199999992" lon="-1.5544469999999966">
        <ele>494.026</ele>
        <time>2022-08-24T16:09:00Z</time>
      </trkpt>
      <trkpt lat="42.89539799999992" lon="-1.5544879999999965">
        <ele>494.023</ele>
        <time>2022-08-24T16:09:01Z</time>
      </trkpt>
      <trkpt lat="42.89534399999992" lon="-1.5545269999999964">
        <ele>494.056</ele>
        <time>2022-08-24T16:09:02Z</time>
      </trkpt>
      <trkpt lat="42.895278999999924" lon="-1.5545739999999963">
        <ele>494.020</ele>
        <time>2022-08-24T16:09:03Z</time>
      </trkpt>
      <trkpt lat="42.895278999999924" lon="-1.5545739999999963">
        <ele>494.049</ele>
        <time>2022-08-24T16:09:04Z</time>
      </trkpt>
      <trkpt lat="42.89523499999992" lon="-1.5546019999999963">
        <ele>494.054</ele>
        <time>2022-08-24T16:09:05Z</time>
      </trkpt>
      <trkpt lat="42.895126999999924" lon="-1.5546739999999963">
        <ele>494.056</ele>
        <time>2022-08-24T16:09:06Z</time>
      </trkpt>
      <trkpt lat="42.89506299999992" lon="-1.5547169999999964">
        <ele>494.011</ele>
        <time>2022-08-24T16:09:07Z</time>
      </trkpt>
      <trkpt lat="42.89502099999992" lon="-1.5547439999999964">
        <ele>494.009</ele>
        <time>2022-08-24T16:09:08Z</time>
      </trkpt>
      <trkpt lat="42.89491199999992" lon="-1.5548089999999963">
        <ele>493.856</ele>
        <time>2022-08-24T16:09:10Z</time>
      </trkpt>
      <trkpt lat="42.89462699999992" lon="-1.5549759999999964">
        <ele>493.476</ele>
        <time>2022-08-24T16:09:15Z</time>
      </trkpt>
      <trkpt lat="42.89458599999992" lon="-1.5550029999999964">
        <ele>493.246</ele>
        <time>2022-08-24T16:09:16Z</time>
      </trkpt>
      <trkpt lat="42.89453399999992" lon="-1.5550329999999963">
        <ele>493.272</ele>
        <time>2022-08-24T16:09:17Z</time>
      </trkpt>
      <trkpt lat="42.89447299999992" lon="-1.5550699999999964">
        <ele>493.264</ele>
        <time>2022-08-24T16:09:18Z</time>
      </trkpt>
      <trkpt lat="42.89447299999992" lon="-1.5550699999999964">
        <ele>493.251</ele>
        <time>2022-08-24T16:09:19Z</time>
      </trkpt>
      <trkpt lat="42.89438299999992" lon="-1.5551259999999965">
        <ele>493.224</ele>
        <time>2022-08-24T16:09:20Z</time>
      </trkpt>
      <trkpt lat="42.89417999999992" lon="-1.5552549999999965">
        <ele>493.028</ele>
        <time>2022-08-24T16:09:24Z</time>
      </trkpt>
      <trkpt lat="42.89414099999992" lon="-1.5552829999999964">
        <ele>493.057</ele>
        <time>2022-08-24T16:09:25Z</time>
      </trkpt>
      <trkpt lat="42.89398399999992" lon="-1.5553899999999965">
        <ele>493.289</ele>
        <time>2022-08-24T16:09:28Z</time>
      </trkpt>
      <trkpt lat="42.89394499999992" lon="-1.5554149999999964">
        <ele>493.206</ele>
        <time>2022-08-24T16:09:29Z</time>
      </trkpt>
      <trkpt lat="42.893888999999916" lon="-1.5554529999999964">
        <ele>493.226</ele>
        <time>2022-08-24T16:09:30Z</time>
      </trkpt>
      <trkpt lat="42.89385399999992" lon="-1.5554769999999964">
        <ele>493.409</ele>
        <time>2022-08-24T16:09:31Z</time>
      </trkpt>
      <trkpt lat="42.89380699999992" lon="-1.5555089999999965">
        <ele>493.429</ele>
        <time>2022-08-24T16:09:32Z</time>
      </trkpt>
      <trkpt lat="42.893751999999914" lon="-1.5555479999999964">
        <ele>493.449</ele>
        <time>2022-08-24T16:09:33Z</time>
      </trkpt>
      <trkpt lat="42.89353099999991" lon="-1.5557159999999963">
        <ele>494.259</ele>
        <time>2022-08-24T16:09:38Z</time>
      </trkpt>
      <trkpt lat="42.89334499999991" lon="-1.5558459999999963">
        <ele>494.475</ele>
        <time>2022-08-24T16:09:42Z</time>
      </trkpt>
      <trkpt lat="42.893008999999914" lon="-1.5561049999999963">
        <ele>494.647</ele>
        <time>2022-08-24T16:09:49Z</time>
      </trkpt>
      <trkpt lat="42.89296199999991" lon="-1.5561439999999962">
        <ele>494.624</ele>
        <time>2022-08-24T16:09:50Z</time>
      </trkpt>
      <trkpt lat="42.892915999999914" lon="-1.5561849999999962">
        <ele>494.687</ele>
        <time>2022-08-24T16:09:51Z</time>
      </trkpt>
      <trkpt lat="42.892872999999916" lon="-1.5562249999999962">
        <ele>494.661</ele>
        <time>2022-08-24T16:09:52Z</time>
      </trkpt>
      <trkpt lat="42.892828999999914" lon="-1.5562649999999962">
        <ele>494.490</ele>
        <time>2022-08-24T16:09:53Z</time>
      </trkpt>
      <trkpt lat="42.89278699999991" lon="-1.5563029999999962">
        <ele>494.415</ele>
        <time>2022-08-24T16:09:54Z</time>
      </trkpt>
      <trkpt lat="42.892743999999915" lon="-1.5563429999999963">
        <ele>494.465</ele>
        <time>2022-08-24T16:09:55Z</time>
      </trkpt>
      <trkpt lat="42.89271099999991" lon="-1.5563769999999963">
        <ele>494.411</ele>
        <time>2022-08-24T16:09:56Z</time>
      </trkpt>
      <trkpt lat="42.89271099999991" lon="-1.5563769999999963">
        <ele>494.409</ele>
        <time>2022-08-24T16:09:57Z</time>
      </trkpt>
      <trkpt lat="42.892630999999916" lon="-1.5564569999999964">
        <ele>494.422</ele>
        <time>2022-08-24T16:09:58Z</time>
      </trkpt>
      <trkpt lat="42.89259399999992" lon="-1.5564949999999964">
        <ele>494.452</ele>
        <time>2022-08-24T16:09:59Z</time>
      </trkpt>
      <trkpt lat="42.89236599999992" lon="-1.5567579999999963">
        <ele>494.272</ele>
        <time>2022-08-24T16:10:06Z</time>
      </trkpt>
      <trkpt lat="42.892045999999915" lon="-1.5571509999999964">
        <ele>494.258</ele>
        <time>2022-08-24T16:10:13Z</time>
      </trkpt>
      <trkpt lat="42.892006999999914" lon="-1.5571959999999965">
        <ele>494.240</ele>
        <time>2022-08-24T16:10:14Z</time>
      </trkpt>
      <trkpt lat="42.89196899999991" lon="-1.5572409999999965">
        <ele>494.297</ele>
        <time>2022-08-24T16:10:15Z</time>
      </trkpt>
      <trkpt lat="42.89189399999991" lon="-1.5573339999999964">
        <ele>494.010</ele>
        <time>2022-08-24T16:10:17Z</time>
      </trkpt>
      <trkpt lat="42.89185499999991" lon="-1.5573799999999964">
        <ele>494.064</ele>
        <time>2022-08-24T16:10:18Z</time>
      </trkpt>
      <trkpt lat="42.89170299999991" lon="-1.5575639999999964">
        <ele>494.013</ele>
        <time>2022-08-24T16:10:22Z</time>
      </trkpt>
      <trkpt lat="42.891663999999906" lon="-1.5576089999999965">
        <ele>494.047</ele>
        <time>2022-08-24T16:10:23Z</time>
      </trkpt>
      <trkpt lat="42.89162699999991" lon="-1.5576519999999965">
        <ele>493.829</ele>
        <time>2022-08-24T16:10:24Z</time>
      </trkpt>
      <trkpt lat="42.89158999999991" lon="-1.5576959999999964">
        <ele>493.821</ele>
        <time>2022-08-24T16:10:25Z</time>
      </trkpt>
      <trkpt lat="42.89155299999991" lon="-1.5577419999999964">
        <ele>493.809</ele>
        <time>2022-08-24T16:10:26Z</time>
      </trkpt>
      <trkpt lat="42.89151599999991" lon="-1.5577859999999963">
        <ele>493.825</ele>
        <time>2022-08-24T16:10:27Z</time>
      </trkpt>
      <trkpt lat="42.89112999999991" lon="-1.5582389999999964">
        <ele>493.655</ele>
        <time>2022-08-24T16:10:37Z</time>
      </trkpt>
      <trkpt lat="42.89092699999991" lon="-1.5584779999999965">
        <ele>493.655</ele>
        <time>2022-08-24T16:10:42Z</time>
      </trkpt>
      <trkpt lat="42.89088599999991" lon="-1.5585249999999964">
        <ele>493.631</ele>
        <time>2022-08-24T16:10:43Z</time>
      </trkpt>
      <trkpt lat="42.890847999999906" lon="-1.5585709999999964">
        <ele>493.653</ele>
        <time>2022-08-24T16:10:44Z</time>
      </trkpt>
      <trkpt lat="42.8908099999999" lon="-1.5586179999999963">
        <ele>493.650</ele>
        <time>2022-08-24T16:10:45Z</time>
      </trkpt>
      <trkpt lat="42.8907709999999" lon="-1.5586639999999963">
        <ele>493.653</ele>
        <time>2022-08-24T16:10:46Z</time>
      </trkpt>
      <trkpt lat="42.8907319999999" lon="-1.5587099999999963">
        <ele>493.697</ele>
        <time>2022-08-24T16:10:47Z</time>
      </trkpt>
      <trkpt lat="42.8906939999999" lon="-1.5587549999999963">
        <ele>493.486</ele>
        <time>2022-08-24T16:10:48Z</time>
      </trkpt>
      <trkpt lat="42.89065599999989" lon="-1.5587989999999963">
        <ele>493.456</ele>
        <time>2022-08-24T16:10:49Z</time>
      </trkpt>
      <trkpt lat="42.890618999999894" lon="-1.5588449999999963">
        <ele>493.459</ele>
        <time>2022-08-24T16:10:50Z</time>
      </trkpt>
      <trkpt lat="42.89034999999989" lon="-1.5591649999999964">
        <ele>493.214</ele>
        <time>2022-08-24T16:10:57Z</time>
      </trkpt>
      <trkpt lat="42.89031299999989" lon="-1.5592089999999963">
        <ele>493.209</ele>
        <time>2022-08-24T16:10:58Z</time>
      </trkpt>
      <trkpt lat="42.89027499999989" lon="-1.5592539999999964">
        <ele>493.276</ele>
        <time>2022-08-24T16:10:59Z</time>
      </trkpt>
      <trkpt lat="42.89008299999989" lon="-1.5594809999999963">
        <ele>493.056</ele>
        <time>2022-08-24T16:11:04Z</time>
      </trkpt>
      <trkpt lat="42.89004699999989" lon="-1.5595239999999964">
        <ele>493.026</ele>
        <time>2022-08-24T16:11:05Z</time>
      </trkpt>
      <trkpt lat="42.88985199999989" lon="-1.5597479999999964">
        <ele>492.882</ele>
        <time>2022-08-24T16:11:10Z</time>
      </trkpt>
      <trkpt lat="42.88964899999989" lon="-1.5599859999999963">
        <ele>493.024</ele>
        <time>2022-08-24T16:11:15Z</time>
      </trkpt>
      <trkpt lat="42.88948799999989" lon="-1.5601709999999964">
        <ele>493.051</ele>
        <time>2022-08-24T16:11:19Z</time>
      </trkpt>
      <trkpt lat="42.88932199999989" lon="-1.5603639999999965">
        <ele>492.824</ele>
        <time>2022-08-24T16:11:23Z</time>
      </trkpt>
      <trkpt lat="42.88928099999989" lon="-1.5604139999999966">
        <ele>492.648</ele>
        <time>2022-08-24T16:11:24Z</time>
      </trkpt>
      <trkpt lat="42.88911799999989" lon="-1.5606119999999966">
        <ele>492.677</ele>
        <time>2022-08-24T16:11:28Z</time>
      </trkpt>
      <trkpt lat="42.88869099999989" lon="-1.5611199999999965">
        <ele>491.847</ele>
        <time>2022-08-24T16:11:38Z</time>
      </trkpt>
      <trkpt lat="42.88864799999989" lon="-1.5611709999999965">
        <ele>491.829</ele>
        <time>2022-08-24T16:11:39Z</time>
      </trkpt>
      <trkpt lat="42.88860199999989" lon="-1.5612219999999966">
        <ele>491.621</ele>
        <time>2022-08-24T16:11:40Z</time>
      </trkpt>
      <trkpt lat="42.88856799999989" lon="-1.5612619999999966">
        <ele>491.609</ele>
        <time>2022-08-24T16:11:41Z</time>
      </trkpt>
      <trkpt lat="42.88852599999989" lon="-1.5613129999999966">
        <ele>491.465</ele>
        <time>2022-08-24T16:11:42Z</time>
      </trkpt>
      <trkpt lat="42.88852599999989" lon="-1.5613129999999966">
        <ele>491.475</ele>
        <time>2022-08-24T16:11:43Z</time>
      </trkpt>
      <trkpt lat="42.88848499999989" lon="-1.5613619999999966">
        <ele>491.435</ele>
        <time>2022-08-24T16:11:44Z</time>
      </trkpt>
      <trkpt lat="42.88814499999989" lon="-1.5617619999999965">
        <ele>490.841</ele>
        <time>2022-08-24T16:11:51Z</time>
      </trkpt>
      <trkpt lat="42.88798199999989" lon="-1.5619509999999965">
        <ele>490.673</ele>
        <time>2022-08-24T16:11:55Z</time>
      </trkpt>
      <trkpt lat="42.887886999999886" lon="-1.5620569999999965">
        <ele>490.460</ele>
        <time>2022-08-24T16:11:57Z</time>
      </trkpt>
      <trkpt lat="42.887847999999885" lon="-1.5621079999999965">
        <ele>490.453</ele>
        <time>2022-08-24T16:11:58Z</time>
      </trkpt>
      <trkpt lat="42.88780899999988" lon="-1.5621579999999966">
        <ele>490.457</ele>
        <time>2022-08-24T16:11:59Z</time>
      </trkpt>
      <trkpt lat="42.88776999999988" lon="-1.5622069999999966">
        <ele>490.676</ele>
        <time>2022-08-24T16:12:00Z</time>
      </trkpt>
      <trkpt lat="42.88733499999988" lon="-1.5627209999999965">
        <ele>490.087</ele>
        <time>2022-08-24T16:12:10Z</time>
      </trkpt>
      <trkpt lat="42.88725399999988" lon="-1.5628179999999965">
        <ele>489.842</ele>
        <time>2022-08-24T16:12:12Z</time>
      </trkpt>
      <trkpt lat="42.886950999999875" lon="-1.5631809999999964">
        <ele>489.026</ele>
        <time>2022-08-24T16:12:18Z</time>
      </trkpt>
      <trkpt lat="42.88689599999987" lon="-1.5632389999999963">
        <ele>488.809</ele>
        <time>2022-08-24T16:12:19Z</time>
      </trkpt>
      <trkpt lat="42.886677999999876" lon="-1.5634479999999962">
        <ele>487.689</ele>
        <time>2022-08-24T16:12:24Z</time>
      </trkpt>
      <trkpt lat="42.88655899999988" lon="-1.563540999999996">
        <ele>487.029</ele>
        <time>2022-08-24T16:12:26Z</time>
      </trkpt>
      <trkpt lat="42.886373999999876" lon="-1.563660999999996">
        <ele>486.869</ele>
        <time>2022-08-24T16:12:28Z</time>
      </trkpt>
      <trkpt lat="42.886311999999876" lon="-1.563696999999996">
        <ele>486.635</ele>
        <time>2022-08-24T16:12:29Z</time>
      </trkpt>
      <trkpt lat="42.886311999999876" lon="-1.563696999999996">
        <ele>486.467</ele>
        <time>2022-08-24T16:12:30Z</time>
      </trkpt>
      <trkpt lat="42.886249999999876" lon="-1.5637279999999958">
        <ele>486.424</ele>
        <time>2022-08-24T16:12:31Z</time>
      </trkpt>
      <trkpt lat="42.886173999999876" lon="-1.5637559999999957">
        <ele>486.067</ele>
        <time>2022-08-24T16:12:32Z</time>
      </trkpt>
      <trkpt lat="42.88604699999988" lon="-1.5637929999999958">
        <ele>485.851</ele>
        <time>2022-08-24T16:12:33Z</time>
      </trkpt>
      <trkpt lat="42.88599599999988" lon="-1.5638059999999958">
        <ele>485.640</ele>
        <time>2022-08-24T16:12:34Z</time>
      </trkpt>
      <trkpt lat="42.885920999999875" lon="-1.563831999999996">
        <ele>485.634</ele>
        <time>2022-08-24T16:12:35Z</time>
      </trkpt>
      <trkpt lat="42.88586099999988" lon="-1.5638489999999958">
        <ele>485.455</ele>
        <time>2022-08-24T16:12:36Z</time>
      </trkpt>
      <trkpt lat="42.885802999999875" lon="-1.5638619999999959">
        <ele>485.410</ele>
        <time>2022-08-24T16:12:37Z</time>
      </trkpt>
      <trkpt lat="42.88574299999988" lon="-1.563871999999996">
        <ele>485.209</ele>
        <time>2022-08-24T16:12:38Z</time>
      </trkpt>
      <trkpt lat="42.885442999999874" lon="-1.563900999999996">
        <ele>485.254</ele>
        <time>2022-08-24T16:12:43Z</time>
      </trkpt>
      <trkpt lat="42.885259999999874" lon="-1.563897999999996">
        <ele>485.254</ele>
        <time>2022-08-24T16:12:46Z</time>
      </trkpt>
      <trkpt lat="42.88519699999988" lon="-1.563896999999996">
        <ele>485.274</ele>
        <time>2022-08-24T16:12:47Z</time>
      </trkpt>
      <trkpt lat="42.88513799999988" lon="-1.5638929999999962">
        <ele>485.280</ele>
        <time>2022-08-24T16:12:48Z</time>
      </trkpt>
      <trkpt lat="42.885079999999874" lon="-1.5638889999999963">
        <ele>485.472</ele>
        <time>2022-08-24T16:12:49Z</time>
      </trkpt>
      <trkpt lat="42.88502399999987" lon="-1.5638839999999963">
        <ele>485.479</ele>
        <time>2022-08-24T16:12:50Z</time>
      </trkpt>
      <trkpt lat="42.884966999999875" lon="-1.5638799999999964">
        <ele>485.472</ele>
        <time>2022-08-24T16:12:51Z</time>
      </trkpt>
      <trkpt lat="42.884910999999875" lon="-1.5638769999999964">
        <ele>485.466</ele>
        <time>2022-08-24T16:12:52Z</time>
      </trkpt>
      <trkpt lat="42.884856999999876" lon="-1.5638739999999964">
        <ele>485.685</ele>
        <time>2022-08-24T16:12:53Z</time>
      </trkpt>
      <trkpt lat="42.88480499999988" lon="-1.5638679999999965">
        <ele>485.693</ele>
        <time>2022-08-24T16:12:54Z</time>
      </trkpt>
      <trkpt lat="42.88476299999988" lon="-1.5638659999999964">
        <ele>485.865</ele>
        <time>2022-08-24T16:12:55Z</time>
      </trkpt>
      <trkpt lat="42.884642999999876" lon="-1.5638659999999964">
        <ele>486.021</ele>
        <time>2022-08-24T16:12:57Z</time>
      </trkpt>
      <trkpt lat="42.88458899999988" lon="-1.5638639999999964">
        <ele>486.209</ele>
        <time>2022-08-24T16:12:58Z</time>
      </trkpt>
      <trkpt lat="42.88453799999988" lon="-1.5638599999999965">
        <ele>486.430</ele>
        <time>2022-08-24T16:12:59Z</time>
      </trkpt>
      <trkpt lat="42.88448699999988" lon="-1.5638579999999964">
        <ele>486.670</ele>
        <time>2022-08-24T16:13:00Z</time>
      </trkpt>
      <trkpt lat="42.88424599999988" lon="-1.5638609999999964">
        <ele>487.490</ele>
        <time>2022-08-24T16:13:05Z</time>
      </trkpt>
      <trkpt lat="42.88419499999988" lon="-1.5638619999999963">
        <ele>487.486</ele>
        <time>2022-08-24T16:13:06Z</time>
      </trkpt>
      <trkpt lat="42.88399399999988" lon="-1.5638709999999962">
        <ele>488.028</ele>
        <time>2022-08-24T16:13:10Z</time>
      </trkpt>
      <trkpt lat="42.88373299999988" lon="-1.5638929999999962">
        <ele>488.645</ele>
        <time>2022-08-24T16:13:15Z</time>
      </trkpt>
      <trkpt lat="42.88363999999988" lon="-1.5639069999999962">
        <ele>488.858</ele>
        <time>2022-08-24T16:13:17Z</time>
      </trkpt>
      <trkpt lat="42.88357799999988" lon="-1.5639139999999963">
        <ele>488.872</ele>
        <time>2022-08-24T16:13:18Z</time>
      </trkpt>
      <trkpt lat="42.88352399999988" lon="-1.5639199999999962">
        <ele>488.841</ele>
        <time>2022-08-24T16:13:19Z</time>
      </trkpt>
      <trkpt lat="42.88346799999988" lon="-1.5639279999999962">
        <ele>488.879</ele>
        <time>2022-08-24T16:13:20Z</time>
      </trkpt>
      <trkpt lat="42.88342199999988" lon="-1.5639339999999962">
        <ele>488.805</ele>
        <time>2022-08-24T16:13:21Z</time>
      </trkpt>
      <trkpt lat="42.88335399999988" lon="-1.563942999999996">
        <ele>488.825</ele>
        <time>2022-08-24T16:13:22Z</time>
      </trkpt>
      <trkpt lat="42.88330899999988" lon="-1.563950999999996">
        <ele>488.809</ele>
        <time>2022-08-24T16:13:23Z</time>
      </trkpt>
      <trkpt lat="42.883240999999884" lon="-1.563961999999996">
        <ele>488.898</ele>
        <time>2022-08-24T16:13:24Z</time>
      </trkpt>
      <trkpt lat="42.883184999999884" lon="-1.563972999999996">
        <ele>488.868</ele>
        <time>2022-08-24T16:13:25Z</time>
      </trkpt>
      <trkpt lat="42.88283199999989" lon="-1.564032999999996">
        <ele>488.898</ele>
        <time>2022-08-24T16:13:31Z</time>
      </trkpt>
      <trkpt lat="42.882258999999884" lon="-1.564131999999996">
        <ele>487.634</ele>
        <time>2022-08-24T16:13:40Z</time>
      </trkpt>
      <trkpt lat="42.88219199999988" lon="-1.564148999999996">
        <ele>487.436</ele>
        <time>2022-08-24T16:13:41Z</time>
      </trkpt>
      <trkpt lat="42.88199499999988" lon="-1.564209999999996">
        <ele>487.023</ele>
        <time>2022-08-24T16:13:44Z</time>
      </trkpt>
      <trkpt lat="42.88191399999988" lon="-1.564240999999996">
        <ele>487.056</ele>
        <time>2022-08-24T16:13:45Z</time>
      </trkpt>
      <trkpt lat="42.88184599999988" lon="-1.564267999999996">
        <ele>487.080</ele>
        <time>2022-08-24T16:13:46Z</time>
      </trkpt>
      <trkpt lat="42.88179299999988" lon="-1.564292999999996">
        <ele>486.679</ele>
        <time>2022-08-24T16:13:47Z</time>
      </trkpt>
      <trkpt lat="42.88171399999988" lon="-1.5643319999999958">
        <ele>486.471</ele>
        <time>2022-08-24T16:13:48Z</time>
      </trkpt>
      <trkpt lat="42.88166099999988" lon="-1.5643589999999958">
        <ele>486.441</ele>
        <time>2022-08-24T16:13:49Z</time>
      </trkpt>
      <trkpt lat="42.88166099999988" lon="-1.5643589999999958">
        <ele>486.215</ele>
        <time>2022-08-24T16:13:50Z</time>
      </trkpt>
      <trkpt lat="42.88153699999988" lon="-1.564427999999996">
        <ele>486.209</ele>
        <time>2022-08-24T16:13:51Z</time>
      </trkpt>
      <trkpt lat="42.88147599999988" lon="-1.564462999999996">
        <ele>486.048</ele>
        <time>2022-08-24T16:13:52Z</time>
      </trkpt>
      <trkpt lat="42.88123299999988" lon="-1.564608999999996">
        <ele>485.668</ele>
        <time>2022-08-24T16:13:56Z</time>
      </trkpt>
      <trkpt lat="42.88098199999988" lon="-1.564753999999996">
        <ele>485.428</ele>
        <time>2022-08-24T16:14:00Z</time>
      </trkpt>
      <trkpt lat="42.88091699999988" lon="-1.5647849999999959">
        <ele>485.464</ele>
        <time>2022-08-24T16:14:01Z</time>
      </trkpt>
      <trkpt lat="42.88085299999988" lon="-1.564818999999996">
        <ele>485.456</ele>
        <time>2022-08-24T16:14:02Z</time>
      </trkpt>
      <trkpt lat="42.88072999999988" lon="-1.564890999999996">
        <ele>485.443</ele>
        <time>2022-08-24T16:14:04Z</time>
      </trkpt>
      <trkpt lat="42.88072999999988" lon="-1.564890999999996">
        <ele>485.486</ele>
        <time>2022-08-24T16:14:05Z</time>
      </trkpt>
      <trkpt lat="42.88025099999988" lon="-1.565193999999996">
        <ele>485.250</ele>
        <time>2022-08-24T16:14:12Z</time>
      </trkpt>
      <trkpt lat="42.88025099999988" lon="-1.565193999999996">
        <ele>485.269</ele>
        <time>2022-08-24T16:14:13Z</time>
      </trkpt>
      <trkpt lat="42.87994399999988" lon="-1.565382999999996">
        <ele>485.049</ele>
        <time>2022-08-24T16:14:17Z</time>
      </trkpt>
      <trkpt lat="42.87984199999988" lon="-1.5654489999999959">
        <ele>485.002</ele>
        <time>2022-08-24T16:14:19Z</time>
      </trkpt>
      <trkpt lat="42.87984199999988" lon="-1.5654489999999959">
        <ele>485.022</ele>
        <time>2022-08-24T16:14:20Z</time>
      </trkpt>
      <trkpt lat="42.87978599999988" lon="-1.5654879999999958">
        <ele>485.009</ele>
        <time>2022-08-24T16:14:21Z</time>
      </trkpt>
      <trkpt lat="42.879728999999884" lon="-1.5655229999999958">
        <ele>484.845</ele>
        <time>2022-08-24T16:14:22Z</time>
      </trkpt>
      <trkpt lat="42.879618999999884" lon="-1.5655939999999957">
        <ele>484.855</ele>
        <time>2022-08-24T16:14:23Z</time>
      </trkpt>
      <trkpt lat="42.879218999999885" lon="-1.5658349999999956">
        <ele>484.625</ele>
        <time>2022-08-24T16:14:31Z</time>
      </trkpt>
      <trkpt lat="42.87904399999989" lon="-1.5659379999999956">
        <ele>484.441</ele>
        <time>2022-08-24T16:14:33Z</time>
      </trkpt>
      <trkpt lat="42.87898999999989" lon="-1.5659789999999956">
        <ele>484.493</ele>
        <time>2022-08-24T16:14:34Z</time>
      </trkpt>
      <trkpt lat="42.87893599999989" lon="-1.5660139999999956">
        <ele>484.420</ele>
        <time>2022-08-24T16:14:35Z</time>
      </trkpt>
      <trkpt lat="42.87888199999989" lon="-1.5660479999999957">
        <ele>484.453</ele>
        <time>2022-08-24T16:14:36Z</time>
      </trkpt>
      <trkpt lat="42.87882899999989" lon="-1.5660799999999957">
        <ele>484.247</ele>
        <time>2022-08-24T16:14:37Z</time>
      </trkpt>
      <trkpt lat="42.87876299999989" lon="-1.5661169999999958">
        <ele>484.256</ele>
        <time>2022-08-24T16:14:38Z</time>
      </trkpt>
      <trkpt lat="42.878665999999896" lon="-1.5661729999999958">
        <ele>484.234</ele>
        <time>2022-08-24T16:14:40Z</time>
      </trkpt>
      <trkpt lat="42.878601999999894" lon="-1.5662099999999959">
        <ele>484.255</ele>
        <time>2022-08-24T16:14:41Z</time>
      </trkpt>
      <trkpt lat="42.878561999999896" lon="-1.566235999999996">
        <ele>484.210</ele>
        <time>2022-08-24T16:14:42Z</time>
      </trkpt>
      <trkpt lat="42.878511999999894" lon="-1.566270999999996">
        <ele>484.209</ele>
        <time>2022-08-24T16:14:43Z</time>
      </trkpt>
      <trkpt lat="42.87839799999989" lon="-1.566343999999996">
        <ele>484.284</ele>
        <time>2022-08-24T16:14:45Z</time>
      </trkpt>
      <trkpt lat="42.87814799999989" lon="-1.566504999999996">
        <ele>484.064</ele>
        <time>2022-08-24T16:14:50Z</time>
      </trkpt>
      <trkpt lat="42.87787599999989" lon="-1.566682999999996">
        <ele>483.884</ele>
        <time>2022-08-24T16:14:55Z</time>
      </trkpt>
      <trkpt lat="42.877833999999886" lon="-1.5667089999999961">
        <ele>483.840</ele>
        <time>2022-08-24T16:14:56Z</time>
      </trkpt>
      <trkpt lat="42.87778199999989" lon="-1.5667409999999962">
        <ele>483.822</ele>
        <time>2022-08-24T16:14:57Z</time>
      </trkpt>
      <trkpt lat="42.87778199999989" lon="-1.5667409999999962">
        <ele>483.889</ele>
        <time>2022-08-24T16:14:58Z</time>
      </trkpt>
      <trkpt lat="42.87767999999989" lon="-1.566803999999996">
        <ele>483.872</ele>
        <time>2022-08-24T16:14:59Z</time>
      </trkpt>
      <trkpt lat="42.87762899999989" lon="-1.5668329999999961">
        <ele>483.816</ele>
        <time>2022-08-24T16:15:00Z</time>
      </trkpt>
      <trkpt lat="42.87753299999989" lon="-1.5668949999999962">
        <ele>483.885</ele>
        <time>2022-08-24T16:15:02Z</time>
      </trkpt>
      <trkpt lat="42.877269999999896" lon="-1.5670639999999962">
        <ele>483.435</ele>
        <time>2022-08-24T16:15:07Z</time>
      </trkpt>
      <trkpt lat="42.87716699999989" lon="-1.5671289999999962">
        <ele>483.486</ele>
        <time>2022-08-24T16:15:09Z</time>
      </trkpt>
      <trkpt lat="42.87695899999989" lon="-1.5672579999999963">
        <ele>483.214</ele>
        <time>2022-08-24T16:15:13Z</time>
      </trkpt>
      <trkpt lat="42.87690899999989" lon="-1.5672899999999963">
        <ele>483.209</ele>
        <time>2022-08-24T16:15:14Z</time>
      </trkpt>
      <trkpt lat="42.87685899999989" lon="-1.5673219999999963">
        <ele>483.254</ele>
        <time>2022-08-24T16:15:15Z</time>
      </trkpt>
      <trkpt lat="42.87680799999989" lon="-1.5673529999999962">
        <ele>483.264</ele>
        <time>2022-08-24T16:15:16Z</time>
      </trkpt>
      <trkpt lat="42.87669799999989" lon="-1.5674209999999962">
        <ele>483.244</ele>
        <time>2022-08-24T16:15:18Z</time>
      </trkpt>
      <trkpt lat="42.87618099999989" lon="-1.5677639999999962">
        <ele>482.880</ele>
        <time>2022-08-24T16:15:28Z</time>
      </trkpt>
      <trkpt lat="42.87607199999989" lon="-1.5678339999999962">
        <ele>482.632</ele>
        <time>2022-08-24T16:15:30Z</time>
      </trkpt>
      <trkpt lat="42.87596199999989" lon="-1.567904999999996">
        <ele>482.239</ele>
        <time>2022-08-24T16:15:32Z</time>
      </trkpt>
      <trkpt lat="42.875906999999884" lon="-1.567940999999996">
        <ele>482.272</ele>
        <time>2022-08-24T16:15:33Z</time>
      </trkpt>
      <trkpt lat="42.875852999999886" lon="-1.567978999999996">
        <ele>482.026</ele>
        <time>2022-08-24T16:15:34Z</time>
      </trkpt>
      <trkpt lat="42.87579899999989" lon="-1.568015999999996">
        <ele>482.035</ele>
        <time>2022-08-24T16:15:35Z</time>
      </trkpt>
      <trkpt lat="42.875743999999884" lon="-1.568048999999996">
        <ele>482.065</ele>
        <time>2022-08-24T16:15:36Z</time>
      </trkpt>
      <trkpt lat="42.87569099999988" lon="-1.568081999999996">
        <ele>482.068</ele>
        <time>2022-08-24T16:15:37Z</time>
      </trkpt>
      <trkpt lat="42.87564099999988" lon="-1.568115999999996">
        <ele>482.014</ele>
        <time>2022-08-24T16:15:38Z</time>
      </trkpt>
      <trkpt lat="42.875591999999884" lon="-1.568146999999996">
        <ele>482.009</ele>
        <time>2022-08-24T16:15:39Z</time>
      </trkpt>
      <trkpt lat="42.87554299999989" lon="-1.568179999999996">
        <ele>482.047</ele>
        <time>2022-08-24T16:15:40Z</time>
      </trkpt>
      <trkpt lat="42.87549399999989" lon="-1.5682129999999959">
        <ele>481.827</ele>
        <time>2022-08-24T16:15:41Z</time>
      </trkpt>
      <trkpt lat="42.87544599999989" lon="-1.5682459999999958">
        <ele>481.827</ele>
        <time>2022-08-24T16:15:42Z</time>
      </trkpt>
      <trkpt lat="42.87539799999989" lon="-1.5682789999999958">
        <ele>481.823</ele>
        <time>2022-08-24T16:15:43Z</time>
      </trkpt>
      <trkpt lat="42.87534899999989" lon="-1.5683109999999958">
        <ele>481.825</ele>
        <time>2022-08-24T16:15:44Z</time>
      </trkpt>
      <trkpt lat="42.87525399999989" lon="-1.5683769999999957">
        <ele>481.652</ele>
        <time>2022-08-24T16:15:46Z</time>
      </trkpt>
      <trkpt lat="42.87520599999989" lon="-1.5684089999999957">
        <ele>481.655</ele>
        <time>2022-08-24T16:15:47Z</time>
      </trkpt>
      <trkpt lat="42.875111999999895" lon="-1.5684689999999957">
        <ele>481.689</ele>
        <time>2022-08-24T16:15:49Z</time>
      </trkpt>
      <trkpt lat="42.875018999999895" lon="-1.5685299999999958">
        <ele>481.618</ele>
        <time>2022-08-24T16:15:51Z</time>
      </trkpt>
      <trkpt lat="42.8749729999999" lon="-1.5685609999999957">
        <ele>481.688</ele>
        <time>2022-08-24T16:15:52Z</time>
      </trkpt>
      <trkpt lat="42.874925999999896" lon="-1.5685899999999957">
        <ele>481.624</ele>
        <time>2022-08-24T16:15:53Z</time>
      </trkpt>
      <trkpt lat="42.87488199999989" lon="-1.5686189999999958">
        <ele>481.626</ele>
        <time>2022-08-24T16:15:54Z</time>
      </trkpt>
      <trkpt lat="42.87469399999989" lon="-1.5687429999999958">
        <ele>481.609</ele>
        <time>2022-08-24T16:15:58Z</time>
      </trkpt>
      <trkpt lat="42.87464899999989" lon="-1.5687749999999958">
        <ele>481.669</ele>
        <time>2022-08-24T16:15:59Z</time>
      </trkpt>
      <trkpt lat="42.87454599999989" lon="-1.5688429999999958">
        <ele>481.889</ele>
        <time>2022-08-24T16:16:01Z</time>
      </trkpt>
      <trkpt lat="42.87403999999989" lon="-1.5691759999999957">
        <ele>482.279</ele>
        <time>2022-08-24T16:16:12Z</time>
      </trkpt>
      <trkpt lat="42.873992999999885" lon="-1.5692069999999956">
        <ele>482.235</ele>
        <time>2022-08-24T16:16:13Z</time>
      </trkpt>
      <trkpt lat="42.87385399999989" lon="-1.5693019999999955">
        <ele>482.277</ele>
        <time>2022-08-24T16:16:16Z</time>
      </trkpt>
      <trkpt lat="42.87379799999989" lon="-1.5693379999999955">
        <ele>482.284</ele>
        <time>2022-08-24T16:16:17Z</time>
      </trkpt>
      <trkpt lat="42.87376299999989" lon="-1.5693609999999956">
        <ele>482.287</ele>
        <time>2022-08-24T16:16:18Z</time>
      </trkpt>
      <trkpt lat="42.87371899999989" lon="-1.5693899999999956">
        <ele>482.421</ele>
        <time>2022-08-24T16:16:19Z</time>
      </trkpt>
      <trkpt lat="42.87367099999989" lon="-1.5694239999999957">
        <ele>482.430</ele>
        <time>2022-08-24T16:16:20Z</time>
      </trkpt>
      <trkpt lat="42.87363899999989" lon="-1.5694469999999958">
        <ele>482.684</ele>
        <time>2022-08-24T16:16:21Z</time>
      </trkpt>
      <trkpt lat="42.87359999999989" lon="-1.5694719999999958">
        <ele>482.607</ele>
        <time>2022-08-24T16:16:22Z</time>
      </trkpt>
      <trkpt lat="42.873561999999886" lon="-1.5694989999999958">
        <ele>482.817</ele>
        <time>2022-08-24T16:16:23Z</time>
      </trkpt>
      <trkpt lat="42.87352499999989" lon="-1.5695229999999958">
        <ele>482.809</ele>
        <time>2022-08-24T16:16:24Z</time>
      </trkpt>
      <trkpt lat="42.87348799999989" lon="-1.5695469999999958">
        <ele>482.859</ele>
        <time>2022-08-24T16:16:25Z</time>
      </trkpt>
      <trkpt lat="42.873449999999885" lon="-1.569569999999996">
        <ele>483.069</ele>
        <time>2022-08-24T16:16:26Z</time>
      </trkpt>
      <trkpt lat="42.87340899999988" lon="-1.5695999999999959">
        <ele>483.269</ele>
        <time>2022-08-24T16:16:27Z</time>
      </trkpt>
      <trkpt lat="42.873379999999884" lon="-1.5696189999999959">
        <ele>483.455</ele>
        <time>2022-08-24T16:16:28Z</time>
      </trkpt>
      <trkpt lat="42.873345999999884" lon="-1.5696439999999958">
        <ele>483.877</ele>
        <time>2022-08-24T16:16:29Z</time>
      </trkpt>
      <trkpt lat="42.87330999999988" lon="-1.5696679999999958">
        <ele>483.894</ele>
        <time>2022-08-24T16:16:30Z</time>
      </trkpt>
      <trkpt lat="42.87323999999988" lon="-1.5697169999999958">
        <ele>484.047</ele>
        <time>2022-08-24T16:16:32Z</time>
      </trkpt>
      <trkpt lat="42.87320099999988" lon="-1.5697459999999959">
        <ele>484.281</ele>
        <time>2022-08-24T16:16:33Z</time>
      </trkpt>
      <trkpt lat="42.87317499999988" lon="-1.569763999999996">
        <ele>484.480</ele>
        <time>2022-08-24T16:16:34Z</time>
      </trkpt>
      <trkpt lat="42.87307699999988" lon="-1.5698269999999959">
        <ele>484.847</ele>
        <time>2022-08-24T16:16:37Z</time>
      </trkpt>
      <trkpt lat="42.87304599999988" lon="-1.5698489999999958">
        <ele>485.029</ele>
        <time>2022-08-24T16:16:38Z</time>
      </trkpt>
      <trkpt lat="42.87301599999988" lon="-1.5698689999999957">
        <ele>485.021</ele>
        <time>2022-08-24T16:16:39Z</time>
      </trkpt>
      <trkpt lat="42.87298499999988" lon="-1.5698869999999958">
        <ele>485.209</ele>
        <time>2022-08-24T16:16:40Z</time>
      </trkpt>
      <trkpt lat="42.87295599999988" lon="-1.5699039999999957">
        <ele>485.465</ele>
        <time>2022-08-24T16:16:41Z</time>
      </trkpt>
      <trkpt lat="42.87292799999988" lon="-1.5699229999999957">
        <ele>485.685</ele>
        <time>2022-08-24T16:16:42Z</time>
      </trkpt>
      <trkpt lat="42.87290199999988" lon="-1.5699419999999957">
        <ele>485.675</ele>
        <time>2022-08-24T16:16:43Z</time>
      </trkpt>
      <trkpt lat="42.87287499999988" lon="-1.5699599999999958">
        <ele>485.811</ele>
        <time>2022-08-24T16:16:44Z</time>
      </trkpt>
      <trkpt lat="42.87284699999988" lon="-1.5699769999999957">
        <ele>485.813</ele>
        <time>2022-08-24T16:16:45Z</time>
      </trkpt>
      <trkpt lat="42.87281899999988" lon="-1.5699949999999958">
        <ele>486.020</ele>
        <time>2022-08-24T16:16:46Z</time>
      </trkpt>
      <trkpt lat="42.87279299999988" lon="-1.5700129999999959">
        <ele>486.263</ele>
        <time>2022-08-24T16:16:47Z</time>
      </trkpt>
      <trkpt lat="42.87276099999988" lon="-1.570033999999996">
        <ele>486.277</ele>
        <time>2022-08-24T16:16:48Z</time>
      </trkpt>
      <trkpt lat="42.872734999999885" lon="-1.570048999999996">
        <ele>486.226</ele>
        <time>2022-08-24T16:16:49Z</time>
      </trkpt>
      <trkpt lat="42.872714999999886" lon="-1.570062999999996">
        <ele>486.416</ele>
        <time>2022-08-24T16:16:50Z</time>
      </trkpt>
      <trkpt lat="42.87268899999989" lon="-1.570079999999996">
        <ele>486.876</ele>
        <time>2022-08-24T16:16:51Z</time>
      </trkpt>
      <trkpt lat="42.872655999999886" lon="-1.570097999999996">
        <ele>487.213</ele>
        <time>2022-08-24T16:16:52Z</time>
      </trkpt>
      <trkpt lat="42.872630999999885" lon="-1.570114999999996">
        <ele>487.209</ele>
        <time>2022-08-24T16:16:53Z</time>
      </trkpt>
      <trkpt lat="42.87260999999989" lon="-1.570127999999996">
        <ele>487.492</ele>
        <time>2022-08-24T16:16:54Z</time>
      </trkpt>
      <trkpt lat="42.872579999999886" lon="-1.570146999999996">
        <ele>487.622</ele>
        <time>2022-08-24T16:16:55Z</time>
      </trkpt>
      <trkpt lat="42.872559999999886" lon="-1.570157999999996">
        <ele>487.832</ele>
        <time>2022-08-24T16:16:56Z</time>
      </trkpt>
      <trkpt lat="42.87253699999989" lon="-1.570171999999996">
        <ele>488.058</ele>
        <time>2022-08-24T16:16:57Z</time>
      </trkpt>
      <trkpt lat="42.872506999999885" lon="-1.5701889999999958">
        <ele>488.080</ele>
        <time>2022-08-24T16:16:58Z</time>
      </trkpt>
      <trkpt lat="42.87248899999989" lon="-1.5702029999999958">
        <ele>488.467</ele>
        <time>2022-08-24T16:16:59Z</time>
      </trkpt>
      <trkpt lat="42.87246399999989" lon="-1.570217999999996">
        <ele>488.620</ele>
        <time>2022-08-24T16:17:00Z</time>
      </trkpt>
      <trkpt lat="42.872439999999884" lon="-1.5702319999999959">
        <ele>488.634</ele>
        <time>2022-08-24T16:17:01Z</time>
      </trkpt>
      <trkpt lat="42.872416999999885" lon="-1.5702459999999958">
        <ele>488.883</ele>
        <time>2022-08-24T16:17:02Z</time>
      </trkpt>
      <trkpt lat="42.872393999999886" lon="-1.570260999999996">
        <ele>488.822</ele>
        <time>2022-08-24T16:17:03Z</time>
      </trkpt>
      <trkpt lat="42.87237099999989" lon="-1.5702749999999959">
        <ele>489.262</ele>
        <time>2022-08-24T16:17:04Z</time>
      </trkpt>
      <trkpt lat="42.87234599999989" lon="-1.570287999999996">
        <ele>489.208</ele>
        <time>2022-08-24T16:17:05Z</time>
      </trkpt>
      <trkpt lat="42.87231999999989" lon="-1.570300999999996">
        <ele>489.409</ele>
        <time>2022-08-24T16:17:06Z</time>
      </trkpt>
      <trkpt lat="42.872295999999885" lon="-1.570314999999996">
        <ele>489.683</ele>
        <time>2022-08-24T16:17:07Z</time>
      </trkpt>
      <trkpt lat="42.87227199999988" lon="-1.570327999999996">
        <ele>489.643</ele>
        <time>2022-08-24T16:17:08Z</time>
      </trkpt>
      <trkpt lat="42.87224799999988" lon="-1.5703399999999959">
        <ele>489.843</ele>
        <time>2022-08-24T16:17:09Z</time>
      </trkpt>
      <trkpt lat="42.87222299999988" lon="-1.570352999999996">
        <ele>489.879</ele>
        <time>2022-08-24T16:17:10Z</time>
      </trkpt>
      <trkpt lat="42.872195999999875" lon="-1.5703639999999959">
        <ele>490.031</ele>
        <time>2022-08-24T16:17:11Z</time>
      </trkpt>
      <trkpt lat="42.872170999999874" lon="-1.5703759999999958">
        <ele>490.028</ele>
        <time>2022-08-24T16:17:12Z</time>
      </trkpt>
      <trkpt lat="42.872147999999875" lon="-1.5703869999999958">
        <ele>490.021</ele>
        <time>2022-08-24T16:17:13Z</time>
      </trkpt>
      <trkpt lat="42.87211899999988" lon="-1.5704029999999958">
        <ele>490.275</ele>
        <time>2022-08-24T16:17:14Z</time>
      </trkpt>
      <trkpt lat="42.87209099999988" lon="-1.5704159999999958">
        <ele>490.414</ele>
        <time>2022-08-24T16:17:15Z</time>
      </trkpt>
      <trkpt lat="42.872063999999874" lon="-1.5704249999999957">
        <ele>490.652</ele>
        <time>2022-08-24T16:17:16Z</time>
      </trkpt>
      <trkpt lat="42.87203599999987" lon="-1.5704339999999957">
        <ele>490.853</ele>
        <time>2022-08-24T16:17:17Z</time>
      </trkpt>
      <trkpt lat="42.87201499999988" lon="-1.5704459999999956">
        <ele>490.808</ele>
        <time>2022-08-24T16:17:18Z</time>
      </trkpt>
      <trkpt lat="42.87198299999988" lon="-1.5704629999999955">
        <ele>491.009</ele>
        <time>2022-08-24T16:17:19Z</time>
      </trkpt>
      <trkpt lat="42.87195399999988" lon="-1.5704739999999955">
        <ele>491.256</ele>
        <time>2022-08-24T16:17:20Z</time>
      </trkpt>
      <trkpt lat="42.87193199999988" lon="-1.5704809999999956">
        <ele>491.476</ele>
        <time>2022-08-24T16:17:21Z</time>
      </trkpt>
      <trkpt lat="42.87190399999988" lon="-1.5704879999999957">
        <ele>491.486</ele>
        <time>2022-08-24T16:17:22Z</time>
      </trkpt>
      <trkpt lat="42.87187399999988" lon="-1.5704969999999956">
        <ele>491.832</ele>
        <time>2022-08-24T16:17:23Z</time>
      </trkpt>
      <trkpt lat="42.87184799999988" lon="-1.5705069999999957">
        <ele>491.884</ele>
        <time>2022-08-24T16:17:24Z</time>
      </trkpt>
      <trkpt lat="42.871820999999876" lon="-1.5705169999999957">
        <ele>492.061</ele>
        <time>2022-08-24T16:17:25Z</time>
      </trkpt>
      <trkpt lat="42.87179199999988" lon="-1.5705319999999958">
        <ele>492.034</ele>
        <time>2022-08-24T16:17:26Z</time>
      </trkpt>
      <trkpt lat="42.871764999999876" lon="-1.5705429999999958">
        <ele>492.058</ele>
        <time>2022-08-24T16:17:27Z</time>
      </trkpt>
      <trkpt lat="42.871736999999875" lon="-1.5705549999999957">
        <ele>492.267</ele>
        <time>2022-08-24T16:17:28Z</time>
      </trkpt>
      <trkpt lat="42.87170999999987" lon="-1.5705659999999957">
        <ele>492.413</ele>
        <time>2022-08-24T16:17:29Z</time>
      </trkpt>
      <trkpt lat="42.87168299999987" lon="-1.5705759999999958">
        <ele>492.643</ele>
        <time>2022-08-24T16:17:30Z</time>
      </trkpt>
      <trkpt lat="42.87165799999987" lon="-1.5705909999999959">
        <ele>492.807</ele>
        <time>2022-08-24T16:17:31Z</time>
      </trkpt>
      <trkpt lat="42.871633999999865" lon="-1.5706049999999958">
        <ele>493.009</ele>
        <time>2022-08-24T16:17:32Z</time>
      </trkpt>
      <trkpt lat="42.871608999999864" lon="-1.570619999999996">
        <ele>493.092</ele>
        <time>2022-08-24T16:17:33Z</time>
      </trkpt>
      <trkpt lat="42.871583999999864" lon="-1.570635999999996">
        <ele>493.232</ele>
        <time>2022-08-24T16:17:34Z</time>
      </trkpt>
      <trkpt lat="42.871552999999864" lon="-1.570653999999996">
        <ele>493.262</ele>
        <time>2022-08-24T16:17:35Z</time>
      </trkpt>
      <trkpt lat="42.871526999999865" lon="-1.570667999999996">
        <ele>493.488</ele>
        <time>2022-08-24T16:17:36Z</time>
      </trkpt>
      <trkpt lat="42.87149799999987" lon="-1.570680999999996">
        <ele>493.480</ele>
        <time>2022-08-24T16:17:37Z</time>
      </trkpt>
      <trkpt lat="42.87146999999987" lon="-1.570691999999996">
        <ele>493.697</ele>
        <time>2022-08-24T16:17:38Z</time>
      </trkpt>
      <trkpt lat="42.871445999999864" lon="-1.570699999999996">
        <ele>493.830</ele>
        <time>2022-08-24T16:17:39Z</time>
      </trkpt>
      <trkpt lat="42.87141099999987" lon="-1.570714999999996">
        <ele>494.074</ele>
        <time>2022-08-24T16:17:40Z</time>
      </trkpt>
      <trkpt lat="42.871386999999864" lon="-1.570733999999996">
        <ele>494.033</ele>
        <time>2022-08-24T16:17:41Z</time>
      </trkpt>
      <trkpt lat="42.87136199999986" lon="-1.570750999999996">
        <ele>494.234</ele>
        <time>2022-08-24T16:17:42Z</time>
      </trkpt>
      <trkpt lat="42.87133499999986" lon="-1.570769999999996">
        <ele>494.255</ele>
        <time>2022-08-24T16:17:43Z</time>
      </trkpt>
      <trkpt lat="42.87131199999986" lon="-1.570781999999996">
        <ele>494.410</ele>
        <time>2022-08-24T16:17:44Z</time>
      </trkpt>
      <trkpt lat="42.87128299999986" lon="-1.570796999999996">
        <ele>494.609</ele>
        <time>2022-08-24T16:17:45Z</time>
      </trkpt>
      <trkpt lat="42.871250999999866" lon="-1.570817999999996">
        <ele>494.694</ele>
        <time>2022-08-24T16:17:46Z</time>
      </trkpt>
      <trkpt lat="42.871228999999865" lon="-1.570830999999996">
        <ele>494.894</ele>
        <time>2022-08-24T16:17:47Z</time>
      </trkpt>
      <trkpt lat="42.87119699999987" lon="-1.570847999999996">
        <ele>494.894</ele>
        <time>2022-08-24T16:17:48Z</time>
      </trkpt>
      <trkpt lat="42.871169999999864" lon="-1.570861999999996">
        <ele>495.050</ele>
        <time>2022-08-24T16:17:49Z</time>
      </trkpt>
      <trkpt lat="42.87114799999986" lon="-1.570872999999996">
        <ele>495.032</ele>
        <time>2022-08-24T16:17:50Z</time>
      </trkpt>
      <trkpt lat="42.87111499999986" lon="-1.570893999999996">
        <ele>495.249</ele>
        <time>2022-08-24T16:17:51Z</time>
      </trkpt>
      <trkpt lat="42.87109199999986" lon="-1.570906999999996">
        <ele>495.422</ele>
        <time>2022-08-24T16:17:52Z</time>
      </trkpt>
      <trkpt lat="42.87106499999986" lon="-1.5709249999999961">
        <ele>495.636</ele>
        <time>2022-08-24T16:17:53Z</time>
      </trkpt>
      <trkpt lat="42.87103699999986" lon="-1.5709379999999962">
        <ele>495.855</ele>
        <time>2022-08-24T16:17:54Z</time>
      </trkpt>
      <trkpt lat="42.87101199999986" lon="-1.5709539999999962">
        <ele>495.841</ele>
        <time>2022-08-24T16:17:55Z</time>
      </trkpt>
      <trkpt lat="42.870987999999855" lon="-1.570973999999996">
        <ele>495.881</ele>
        <time>2022-08-24T16:17:56Z</time>
      </trkpt>
      <trkpt lat="42.870962999999854" lon="-1.570990999999996">
        <ele>496.209</ele>
        <time>2022-08-24T16:17:57Z</time>
      </trkpt>
      <trkpt lat="42.870934999999854" lon="-1.571003999999996">
        <ele>496.209</ele>
        <time>2022-08-24T16:17:58Z</time>
      </trkpt>
      <trkpt lat="42.870900999999854" lon="-1.571022999999996">
        <ele>496.465</ele>
        <time>2022-08-24T16:17:59Z</time>
      </trkpt>
      <trkpt lat="42.87087699999985" lon="-1.571034999999996">
        <ele>496.455</ele>
        <time>2022-08-24T16:18:00Z</time>
      </trkpt>
      <trkpt lat="42.87084799999985" lon="-1.571050999999996">
        <ele>496.655</ele>
        <time>2022-08-24T16:18:01Z</time>
      </trkpt>
      <trkpt lat="42.870818999999855" lon="-1.571067999999996">
        <ele>496.651</ele>
        <time>2022-08-24T16:18:02Z</time>
      </trkpt>
      <trkpt lat="42.87078699999986" lon="-1.571091999999996">
        <ele>496.853</ele>
        <time>2022-08-24T16:18:03Z</time>
      </trkpt>
      <trkpt lat="42.87076199999986" lon="-1.5711119999999958">
        <ele>497.040</ele>
        <time>2022-08-24T16:18:04Z</time>
      </trkpt>
      <trkpt lat="42.87074399999986" lon="-1.5711289999999958">
        <ele>497.233</ele>
        <time>2022-08-24T16:18:05Z</time>
      </trkpt>
      <trkpt lat="42.87072099999986" lon="-1.5711509999999957">
        <ele>497.237</ele>
        <time>2022-08-24T16:18:06Z</time>
      </trkpt>
      <trkpt lat="42.87069699999986" lon="-1.5711719999999958">
        <ele>497.436</ele>
        <time>2022-08-24T16:18:07Z</time>
      </trkpt>
      <trkpt lat="42.87067099999986" lon="-1.5711909999999958">
        <ele>497.679</ele>
        <time>2022-08-24T16:18:08Z</time>
      </trkpt>
      <trkpt lat="42.87064399999986" lon="-1.5712089999999959">
        <ele>497.605</ele>
        <time>2022-08-24T16:18:09Z</time>
      </trkpt>
      <trkpt lat="42.870616999999854" lon="-1.5712259999999958">
        <ele>497.825</ele>
        <time>2022-08-24T16:18:10Z</time>
      </trkpt>
      <trkpt lat="42.87058999999985" lon="-1.5712439999999959">
        <ele>497.809</ele>
        <time>2022-08-24T16:18:11Z</time>
      </trkpt>
      <trkpt lat="42.87056399999985" lon="-1.5712599999999959">
        <ele>497.878</ele>
        <time>2022-08-24T16:18:12Z</time>
      </trkpt>
      <trkpt lat="42.87053699999985" lon="-1.5712739999999958">
        <ele>497.828</ele>
        <time>2022-08-24T16:18:13Z</time>
      </trkpt>
      <trkpt lat="42.87051099999985" lon="-1.5712899999999959">
        <ele>498.058</ele>
        <time>2022-08-24T16:18:14Z</time>
      </trkpt>
      <trkpt lat="42.87048799999985" lon="-1.571304999999996">
        <ele>498.024</ele>
        <time>2022-08-24T16:18:15Z</time>
      </trkpt>
      <trkpt lat="42.870466999999856" lon="-1.571320999999996">
        <ele>498.056</ele>
        <time>2022-08-24T16:18:16Z</time>
      </trkpt>
      <trkpt lat="42.87044599999986" lon="-1.571336999999996">
        <ele>498.293</ele>
        <time>2022-08-24T16:18:17Z</time>
      </trkpt>
      <trkpt lat="42.87042299999986" lon="-1.571346999999996">
        <ele>498.256</ele>
        <time>2022-08-24T16:18:18Z</time>
      </trkpt>
      <trkpt lat="42.87039899999986" lon="-1.571355999999996">
        <ele>498.270</ele>
        <time>2022-08-24T16:18:19Z</time>
      </trkpt>
      <trkpt lat="42.87037599999986" lon="-1.5713679999999959">
        <ele>498.439</ele>
        <time>2022-08-24T16:18:20Z</time>
      </trkpt>
      <trkpt lat="42.87035399999986" lon="-1.571380999999996">
        <ele>498.472</ele>
        <time>2022-08-24T16:18:21Z</time>
      </trkpt>
      <trkpt lat="42.87033099999986" lon="-1.5713929999999958">
        <ele>498.613</ele>
        <time>2022-08-24T16:18:22Z</time>
      </trkpt>
      <trkpt lat="42.87030599999986" lon="-1.5714039999999958">
        <ele>498.614</ele>
        <time>2022-08-24T16:18:23Z</time>
      </trkpt>
      <trkpt lat="42.870278999999854" lon="-1.5714129999999957">
        <ele>498.609</ele>
        <time>2022-08-24T16:18:24Z</time>
      </trkpt>
      <trkpt lat="42.87013699999986" lon="-1.5714489999999957">
        <ele>498.818</ele>
        <time>2022-08-24T16:18:29Z</time>
      </trkpt>
      <trkpt lat="42.86982399999986" lon="-1.5714839999999957">
        <ele>498.858</ele>
        <time>2022-08-24T16:18:38Z</time>
      </trkpt>
      <trkpt lat="42.86939999999986" lon="-1.5715019999999957">
        <ele>498.828</ele>
        <time>2022-08-24T16:18:48Z</time>
      </trkpt>
      <trkpt lat="42.868938999999855" lon="-1.5715169999999958">
        <ele>498.464</ele>
        <time>2022-08-24T16:18:57Z</time>
      </trkpt>
      <trkpt lat="42.86856099999986" lon="-1.571569999999996">
        <ele>497.876</ele>
        <time>2022-08-24T16:19:03Z</time>
      </trkpt>
      <trkpt lat="42.86842799999986" lon="-1.5716029999999959">
        <ele>497.483</ele>
        <time>2022-08-24T16:19:05Z</time>
      </trkpt>
      <trkpt lat="42.86815999999986" lon="-1.5716869999999958">
        <ele>496.256</ele>
        <time>2022-08-24T16:19:09Z</time>
      </trkpt>
      <trkpt lat="42.86802299999986" lon="-1.5717349999999959">
        <ele>495.840</ele>
        <time>2022-08-24T16:19:11Z</time>
      </trkpt>
      <trkpt lat="42.867953999999855" lon="-1.5717619999999959">
        <ele>495.299</ele>
        <time>2022-08-24T16:19:12Z</time>
      </trkpt>
      <trkpt lat="42.86766499999985" lon="-1.5718739999999958">
        <ele>494.086</ele>
        <time>2022-08-24T16:19:16Z</time>
      </trkpt>
      <trkpt lat="42.86729499999986" lon="-1.5720229999999957">
        <ele>493.060</ele>
        <time>2022-08-24T16:19:21Z</time>
      </trkpt>
      <trkpt lat="42.86706399999986" lon="-1.5721129999999957">
        <ele>492.026</ele>
        <time>2022-08-24T16:19:24Z</time>
      </trkpt>
      <trkpt lat="42.86675399999986" lon="-1.5722359999999957">
        <ele>491.009</ele>
        <time>2022-08-24T16:19:28Z</time>
      </trkpt>
      <trkpt lat="42.86667799999986" lon="-1.5722669999999956">
        <ele>490.689</ele>
        <time>2022-08-24T16:19:29Z</time>
      </trkpt>
      <trkpt lat="42.86660199999986" lon="-1.5722989999999957">
        <ele>490.459</ele>
        <time>2022-08-24T16:19:30Z</time>
      </trkpt>
      <trkpt lat="42.86645199999986" lon="-1.5723589999999956">
        <ele>489.879</ele>
        <time>2022-08-24T16:19:32Z</time>
      </trkpt>
      <trkpt lat="42.86637599999986" lon="-1.5723889999999956">
        <ele>489.435</ele>
        <time>2022-08-24T16:19:33Z</time>
      </trkpt>
      <trkpt lat="42.86614899999986" lon="-1.5724829999999956">
        <ele>488.877</ele>
        <time>2022-08-24T16:19:36Z</time>
      </trkpt>
      <trkpt lat="42.866073999999855" lon="-1.5725129999999956">
        <ele>488.634</ele>
        <time>2022-08-24T16:19:37Z</time>
      </trkpt>
      <trkpt lat="42.86599999999986" lon="-1.5725419999999957">
        <ele>488.057</ele>
        <time>2022-08-24T16:19:38Z</time>
      </trkpt>
      <trkpt lat="42.865927999999855" lon="-1.5725719999999956">
        <ele>488.071</ele>
        <time>2022-08-24T16:19:39Z</time>
      </trkpt>
      <trkpt lat="42.86563899999985" lon="-1.5726799999999956">
        <ele>486.660</ele>
        <time>2022-08-24T16:19:43Z</time>
      </trkpt>
      <trkpt lat="42.86535299999985" lon="-1.5727739999999957">
        <ele>485.483</ele>
        <time>2022-08-24T16:19:47Z</time>
      </trkpt>
      <trkpt lat="42.86506199999985" lon="-1.5728519999999957">
        <ele>484.425</ele>
        <time>2022-08-24T16:19:51Z</time>
      </trkpt>
      <trkpt lat="42.86498599999985" lon="-1.5728709999999957">
        <ele>484.017</ele>
        <time>2022-08-24T16:19:52Z</time>
      </trkpt>
      <trkpt lat="42.86453399999985" lon="-1.5729699999999958">
        <ele>483.009</ele>
        <time>2022-08-24T16:19:58Z</time>
      </trkpt>
      <trkpt lat="42.86445999999985" lon="-1.5729849999999959">
        <ele>482.889</ele>
        <time>2022-08-24T16:19:59Z</time>
      </trkpt>
      <trkpt lat="42.864368999999854" lon="-1.5730019999999958">
        <ele>482.669</ele>
        <time>2022-08-24T16:20:00Z</time>
      </trkpt>
      <trkpt lat="42.86429399999985" lon="-1.573016999999996">
        <ele>482.659</ele>
        <time>2022-08-24T16:20:01Z</time>
      </trkpt>
      <trkpt lat="42.86422199999985" lon="-1.573034999999996">
        <ele>482.275</ele>
        <time>2022-08-24T16:20:02Z</time>
      </trkpt>
      <trkpt lat="42.86409299999985" lon="-1.573064999999996">
        <ele>482.027</ele>
        <time>2022-08-24T16:20:04Z</time>
      </trkpt>
      <trkpt lat="42.86401099999985" lon="-1.5730819999999959">
        <ele>481.874</ele>
        <time>2022-08-24T16:20:05Z</time>
      </trkpt>
      <trkpt lat="42.86394299999985" lon="-1.573096999999996">
        <ele>481.847</ele>
        <time>2022-08-24T16:20:06Z</time>
      </trkpt>
      <trkpt lat="42.863873999999846" lon="-1.573109999999996">
        <ele>481.661</ele>
        <time>2022-08-24T16:20:07Z</time>
      </trkpt>
      <trkpt lat="42.86380799999985" lon="-1.573121999999996">
        <ele>481.670</ele>
        <time>2022-08-24T16:20:08Z</time>
      </trkpt>
      <trkpt lat="42.86375599999985" lon="-1.573131999999996">
        <ele>481.632</ele>
        <time>2022-08-24T16:20:09Z</time>
      </trkpt>
      <trkpt lat="42.863689999999856" lon="-1.573144999999996">
        <ele>481.692</ele>
        <time>2022-08-24T16:20:10Z</time>
      </trkpt>
      <trkpt lat="42.86362399999986" lon="-1.573157999999996">
        <ele>481.611</ele>
        <time>2022-08-24T16:20:11Z</time>
      </trkpt>
      <trkpt lat="42.86355999999986" lon="-1.573169999999996">
        <ele>481.409</ele>
        <time>2022-08-24T16:20:12Z</time>
      </trkpt>
      <trkpt lat="42.86343599999986" lon="-1.573195999999996">
        <ele>481.464</ele>
        <time>2022-08-24T16:20:14Z</time>
      </trkpt>
      <trkpt lat="42.86337599999986" lon="-1.5732109999999961">
        <ele>481.464</ele>
        <time>2022-08-24T16:20:15Z</time>
      </trkpt>
      <trkpt lat="42.86331999999986" lon="-1.573224999999996">
        <ele>481.424</ele>
        <time>2022-08-24T16:20:16Z</time>
      </trkpt>
      <trkpt lat="42.86326399999986" lon="-1.573238999999996">
        <ele>481.640</ele>
        <time>2022-08-24T16:20:17Z</time>
      </trkpt>
      <trkpt lat="42.86320999999986" lon="-1.5732539999999962">
        <ele>481.692</ele>
        <time>2022-08-24T16:20:18Z</time>
      </trkpt>
      <trkpt lat="42.86315699999986" lon="-1.5732689999999963">
        <ele>481.649</ele>
        <time>2022-08-24T16:20:19Z</time>
      </trkpt>
      <trkpt lat="42.86310599999986" lon="-1.5732819999999963">
        <ele>481.842</ele>
        <time>2022-08-24T16:20:20Z</time>
      </trkpt>
      <trkpt lat="42.86289699999986" lon="-1.5733369999999962">
        <ele>482.246</ele>
        <time>2022-08-24T16:20:24Z</time>
      </trkpt>
      <trkpt lat="42.862844999999865" lon="-1.5733499999999963">
        <ele>482.445</ele>
        <time>2022-08-24T16:20:25Z</time>
      </trkpt>
      <trkpt lat="42.862793999999866" lon="-1.5733669999999962">
        <ele>482.623</ele>
        <time>2022-08-24T16:20:26Z</time>
      </trkpt>
      <trkpt lat="42.86274299999987" lon="-1.5733859999999962">
        <ele>482.883</ele>
        <time>2022-08-24T16:20:27Z</time>
      </trkpt>
      <trkpt lat="42.86269099999987" lon="-1.573402999999996">
        <ele>483.011</ele>
        <time>2022-08-24T16:20:28Z</time>
      </trkpt>
      <trkpt lat="42.86264099999987" lon="-1.573419999999996">
        <ele>483.009</ele>
        <time>2022-08-24T16:20:29Z</time>
      </trkpt>
      <trkpt lat="42.86228799999987" lon="-1.573584999999996">
        <ele>483.673</ele>
        <time>2022-08-24T16:20:36Z</time>
      </trkpt>
      <trkpt lat="42.86180499999987" lon="-1.573869999999996">
        <ele>483.423</ele>
        <time>2022-08-24T16:20:45Z</time>
      </trkpt>
      <trkpt lat="42.86174899999987" lon="-1.5739039999999962">
        <ele>483.483</ele>
        <time>2022-08-24T16:20:46Z</time>
      </trkpt>
      <trkpt lat="42.86130699999987" lon="-1.5742549999999962">
        <ele>482.089</ele>
        <time>2022-08-24T16:20:54Z</time>
      </trkpt>
      <trkpt lat="42.86125099999987" lon="-1.574301999999996">
        <ele>482.081</ele>
        <time>2022-08-24T16:20:55Z</time>
      </trkpt>
      <trkpt lat="42.861195999999865" lon="-1.574345999999996">
        <ele>481.858</ele>
        <time>2022-08-24T16:20:56Z</time>
      </trkpt>
      <trkpt lat="42.86108999999986" lon="-1.574440999999996">
        <ele>481.651</ele>
        <time>2022-08-24T16:20:58Z</time>
      </trkpt>
      <trkpt lat="42.861035999999864" lon="-1.574485999999996">
        <ele>481.415</ele>
        <time>2022-08-24T16:20:59Z</time>
      </trkpt>
      <trkpt lat="42.86086599999987" lon="-1.574601999999996">
        <ele>481.284</ele>
        <time>2022-08-24T16:21:02Z</time>
      </trkpt>
      <trkpt lat="42.86074399999987" lon="-1.5746659999999961">
        <ele>481.027</ele>
        <time>2022-08-24T16:21:04Z</time>
      </trkpt>
      <trkpt lat="42.86035799999987" lon="-1.5748439999999961">
        <ele>480.068</ele>
        <time>2022-08-24T16:21:10Z</time>
      </trkpt>
      <trkpt lat="42.86029099999987" lon="-1.574876999999996">
        <ele>479.814</ele>
        <time>2022-08-24T16:21:11Z</time>
      </trkpt>
      <trkpt lat="42.86016099999987" lon="-1.574960999999996">
        <ele>479.609</ele>
        <time>2022-08-24T16:21:13Z</time>
      </trkpt>
      <trkpt lat="42.86010099999987" lon="-1.575012999999996">
        <ele>479.683</ele>
        <time>2022-08-24T16:21:14Z</time>
      </trkpt>
      <trkpt lat="42.86004499999987" lon="-1.575065999999996">
        <ele>479.023</ele>
        <time>2022-08-24T16:21:15Z</time>
      </trkpt>
      <trkpt lat="42.85999399999987" lon="-1.575120999999996">
        <ele>478.863</ele>
        <time>2022-08-24T16:21:16Z</time>
      </trkpt>
      <trkpt lat="42.85994299999987" lon="-1.575177999999996">
        <ele>478.469</ele>
        <time>2022-08-24T16:21:17Z</time>
      </trkpt>
      <trkpt lat="42.85989299999987" lon="-1.575234999999996">
        <ele>478.081</ele>
        <time>2022-08-24T16:21:18Z</time>
      </trkpt>
      <trkpt lat="42.85979399999987" lon="-1.575355999999996">
        <ele>477.838</ele>
        <time>2022-08-24T16:21:20Z</time>
      </trkpt>
      <trkpt lat="42.859654999999876" lon="-1.575541999999996">
        <ele>477.481</ele>
        <time>2022-08-24T16:21:23Z</time>
      </trkpt>
      <trkpt lat="42.85960899999988" lon="-1.575600999999996">
        <ele>477.275</ele>
        <time>2022-08-24T16:21:24Z</time>
      </trkpt>
      <trkpt lat="42.85956299999988" lon="-1.575660999999996">
        <ele>476.834</ele>
        <time>2022-08-24T16:21:25Z</time>
      </trkpt>
      <trkpt lat="42.85951999999988" lon="-1.575719999999996">
        <ele>476.844</ele>
        <time>2022-08-24T16:21:26Z</time>
      </trkpt>
      <trkpt lat="42.85947799999988" lon="-1.575775999999996">
        <ele>476.605</ele>
        <time>2022-08-24T16:21:27Z</time>
      </trkpt>
      <trkpt lat="42.859434999999884" lon="-1.575827999999996">
        <ele>476.615</ele>
        <time>2022-08-24T16:21:28Z</time>
      </trkpt>
      <trkpt lat="42.85939399999988" lon="-1.575880999999996">
        <ele>476.409</ele>
        <time>2022-08-24T16:21:29Z</time>
      </trkpt>
      <trkpt lat="42.85935399999988" lon="-1.5759289999999961">
        <ele>476.455</ele>
        <time>2022-08-24T16:21:30Z</time>
      </trkpt>
      <trkpt lat="42.859313999999884" lon="-1.575975999999996">
        <ele>476.475</ele>
        <time>2022-08-24T16:21:31Z</time>
      </trkpt>
      <trkpt lat="42.859276999999885" lon="-1.576023999999996">
        <ele>476.485</ele>
        <time>2022-08-24T16:21:32Z</time>
      </trkpt>
      <trkpt lat="42.859240999999884" lon="-1.5760719999999961">
        <ele>476.631</ele>
        <time>2022-08-24T16:21:33Z</time>
      </trkpt>
      <trkpt lat="42.85920499999988" lon="-1.5761179999999961">
        <ele>476.883</ele>
        <time>2022-08-24T16:21:34Z</time>
      </trkpt>
      <trkpt lat="42.85916799999988" lon="-1.5761639999999961">
        <ele>476.850</ele>
        <time>2022-08-24T16:21:35Z</time>
      </trkpt>
      <trkpt lat="42.85913199999988" lon="-1.5762119999999962">
        <ele>476.863</ele>
        <time>2022-08-24T16:21:36Z</time>
      </trkpt>
      <trkpt lat="42.85909599999988" lon="-1.5762609999999961">
        <ele>476.857</ele>
        <time>2022-08-24T16:21:37Z</time>
      </trkpt>
      <trkpt lat="42.85906099999988" lon="-1.5763069999999961">
        <ele>477.056</ele>
        <time>2022-08-24T16:21:38Z</time>
      </trkpt>
      <trkpt lat="42.85902499999988" lon="-1.576350999999996">
        <ele>477.063</ele>
        <time>2022-08-24T16:21:39Z</time>
      </trkpt>
      <trkpt lat="42.858989999999885" lon="-1.576396999999996">
        <ele>477.244</ele>
        <time>2022-08-24T16:21:40Z</time>
      </trkpt>
      <trkpt lat="42.85895499999989" lon="-1.576440999999996">
        <ele>477.218</ele>
        <time>2022-08-24T16:21:41Z</time>
      </trkpt>
      <trkpt lat="42.858921999999886" lon="-1.576483999999996">
        <ele>477.409</ele>
        <time>2022-08-24T16:21:42Z</time>
      </trkpt>
      <trkpt lat="42.85888699999989" lon="-1.576525999999996">
        <ele>477.447</ele>
        <time>2022-08-24T16:21:43Z</time>
      </trkpt>
      <trkpt lat="42.85885299999989" lon="-1.5765679999999962">
        <ele>477.487</ele>
        <time>2022-08-24T16:21:44Z</time>
      </trkpt>
      <trkpt lat="42.85882099999989" lon="-1.5766099999999963">
        <ele>477.447</ele>
        <time>2022-08-24T16:21:45Z</time>
      </trkpt>
      <trkpt lat="42.85879099999989" lon="-1.5766509999999962">
        <ele>477.673</ele>
        <time>2022-08-24T16:21:46Z</time>
      </trkpt>
      <trkpt lat="42.85875899999989" lon="-1.5766909999999963">
        <ele>477.685</ele>
        <time>2022-08-24T16:21:47Z</time>
      </trkpt>
      <trkpt lat="42.85856799999989" lon="-1.5769439999999963">
        <ele>478.022</ele>
        <time>2022-08-24T16:21:53Z</time>
      </trkpt>
      <trkpt lat="42.858535999999894" lon="-1.5769839999999964">
        <ele>478.045</ele>
        <time>2022-08-24T16:21:54Z</time>
      </trkpt>
      <trkpt lat="42.858504999999894" lon="-1.5770239999999964">
        <ele>478.279</ele>
        <time>2022-08-24T16:21:55Z</time>
      </trkpt>
      <trkpt lat="42.85847499999989" lon="-1.5770649999999964">
        <ele>478.298</ele>
        <time>2022-08-24T16:21:56Z</time>
      </trkpt>
      <trkpt lat="42.85837999999989" lon="-1.5771829999999964">
        <ele>478.632</ele>
        <time>2022-08-24T16:21:59Z</time>
      </trkpt>
      <trkpt lat="42.85834999999989" lon="-1.5772259999999965">
        <ele>478.692</ele>
        <time>2022-08-24T16:22:00Z</time>
      </trkpt>
      <trkpt lat="42.858226999999886" lon="-1.5773819999999965">
        <ele>479.011</ele>
        <time>2022-08-24T16:22:04Z</time>
      </trkpt>
      <trkpt lat="42.85819799999989" lon="-1.5774239999999966">
        <ele>479.209</ele>
        <time>2022-08-24T16:22:05Z</time>
      </trkpt>
      <trkpt lat="42.858167999999885" lon="-1.5774629999999965">
        <ele>479.244</ele>
        <time>2022-08-24T16:22:06Z</time>
      </trkpt>
      <trkpt lat="42.85813799999988" lon="-1.5774999999999966">
        <ele>479.474</ele>
        <time>2022-08-24T16:22:07Z</time>
      </trkpt>
      <trkpt lat="42.85810699999988" lon="-1.5775369999999966">
        <ele>479.474</ele>
        <time>2022-08-24T16:22:08Z</time>
      </trkpt>
      <trkpt lat="42.858077999999885" lon="-1.5775739999999967">
        <ele>479.450</ele>
        <time>2022-08-24T16:22:09Z</time>
      </trkpt>
      <trkpt lat="42.85804899999989" lon="-1.5776119999999967">
        <ele>479.672</ele>
        <time>2022-08-24T16:22:10Z</time>
      </trkpt>
      <trkpt lat="42.858021999999885" lon="-1.5776499999999967">
        <ele>479.689</ele>
        <time>2022-08-24T16:22:11Z</time>
      </trkpt>
      <trkpt lat="42.85799199999988" lon="-1.5776859999999966">
        <ele>479.832</ele>
        <time>2022-08-24T16:22:12Z</time>
      </trkpt>
      <trkpt lat="42.85796199999988" lon="-1.5777239999999966">
        <ele>479.876</ele>
        <time>2022-08-24T16:22:13Z</time>
      </trkpt>
      <trkpt lat="42.85793399999988" lon="-1.5777619999999966">
        <ele>480.285</ele>
        <time>2022-08-24T16:22:14Z</time>
      </trkpt>
      <trkpt lat="42.85790599999988" lon="-1.5777969999999966">
        <ele>480.458</ele>
        <time>2022-08-24T16:22:15Z</time>
      </trkpt>
      <trkpt lat="42.85776199999988" lon="-1.5779609999999966">
        <ele>481.052</ele>
        <time>2022-08-24T16:22:20Z</time>
      </trkpt>
      <trkpt lat="42.85773599999988" lon="-1.5779919999999965">
        <ele>481.217</ele>
        <time>2022-08-24T16:22:21Z</time>
      </trkpt>
      <trkpt lat="42.857709999999884" lon="-1.5780269999999965">
        <ele>481.209</ele>
        <time>2022-08-24T16:22:22Z</time>
      </trkpt>
      <trkpt lat="42.857683999999885" lon="-1.5780629999999964">
        <ele>481.256</ele>
        <time>2022-08-24T16:22:23Z</time>
      </trkpt>
      <trkpt lat="42.85765699999988" lon="-1.5780979999999964">
        <ele>481.496</ele>
        <time>2022-08-24T16:22:24Z</time>
      </trkpt>
      <trkpt lat="42.857630999999884" lon="-1.5781339999999964">
        <ele>481.466</ele>
        <time>2022-08-24T16:22:25Z</time>
      </trkpt>
      <trkpt lat="42.85760599999988" lon="-1.5781679999999965">
        <ele>481.842</ele>
        <time>2022-08-24T16:22:26Z</time>
      </trkpt>
      <trkpt lat="42.857579999999885" lon="-1.5782019999999966">
        <ele>482.054</ele>
        <time>2022-08-24T16:22:27Z</time>
      </trkpt>
      <trkpt lat="42.85755299999988" lon="-1.5782369999999966">
        <ele>482.081</ele>
        <time>2022-08-24T16:22:28Z</time>
      </trkpt>
      <trkpt lat="42.857526999999884" lon="-1.5782729999999965">
        <ele>482.234</ele>
        <time>2022-08-24T16:22:29Z</time>
      </trkpt>
      <trkpt lat="42.85749999999988" lon="-1.5783059999999964">
        <ele>482.288</ele>
        <time>2022-08-24T16:22:30Z</time>
      </trkpt>
      <trkpt lat="42.85747199999988" lon="-1.5783369999999963">
        <ele>482.467</ele>
        <time>2022-08-24T16:22:31Z</time>
      </trkpt>
      <trkpt lat="42.85744599999988" lon="-1.5783689999999964">
        <ele>482.458</ele>
        <time>2022-08-24T16:22:32Z</time>
      </trkpt>
      <trkpt lat="42.85742099999988" lon="-1.5784009999999964">
        <ele>482.852</ele>
        <time>2022-08-24T16:22:33Z</time>
      </trkpt>
      <trkpt lat="42.85739599999988" lon="-1.5784359999999964">
        <ele>483.017</ele>
        <time>2022-08-24T16:22:34Z</time>
      </trkpt>
      <trkpt lat="42.85736799999988" lon="-1.5784699999999965">
        <ele>483.009</ele>
        <time>2022-08-24T16:22:35Z</time>
      </trkpt>
      <trkpt lat="42.85733899999988" lon="-1.5785029999999964">
        <ele>483.276</ele>
        <time>2022-08-24T16:22:36Z</time>
      </trkpt>
      <trkpt lat="42.857309999999885" lon="-1.5785359999999964">
        <ele>483.266</ele>
        <time>2022-08-24T16:22:37Z</time>
      </trkpt>
      <trkpt lat="42.857281999999884" lon="-1.5785689999999963">
        <ele>483.456</ele>
        <time>2022-08-24T16:22:38Z</time>
      </trkpt>
      <trkpt lat="42.857253999999884" lon="-1.5786029999999964">
        <ele>483.442</ele>
        <time>2022-08-24T16:22:39Z</time>
      </trkpt>
      <trkpt lat="42.85722599999988" lon="-1.5786349999999965">
        <ele>483.634</ele>
        <time>2022-08-24T16:22:40Z</time>
      </trkpt>
      <trkpt lat="42.857196999999886" lon="-1.5786659999999963">
        <ele>483.641</ele>
        <time>2022-08-24T16:22:41Z</time>
      </trkpt>
      <trkpt lat="42.85716999999988" lon="-1.5787009999999964">
        <ele>483.834</ele>
        <time>2022-08-24T16:22:42Z</time>
      </trkpt>
      <trkpt lat="42.85714299999988" lon="-1.5787359999999964">
        <ele>484.068</ele>
        <time>2022-08-24T16:22:43Z</time>
      </trkpt>
      <trkpt lat="42.85711599999988" lon="-1.5787679999999964">
        <ele>484.247</ele>
        <time>2022-08-24T16:22:44Z</time>
      </trkpt>
      <trkpt lat="42.85708699999988" lon="-1.5787999999999964">
        <ele>484.233</ele>
        <time>2022-08-24T16:22:45Z</time>
      </trkpt>
      <trkpt lat="42.85705699999988" lon="-1.5788329999999964">
        <ele>484.423</ele>
        <time>2022-08-24T16:22:46Z</time>
      </trkpt>
      <trkpt lat="42.85702799999988" lon="-1.5788659999999963">
        <ele>484.415</ele>
        <time>2022-08-24T16:22:47Z</time>
      </trkpt>
      <trkpt lat="42.85699999999988" lon="-1.5788999999999964">
        <ele>484.609</ele>
        <time>2022-08-24T16:22:48Z</time>
      </trkpt>
      <trkpt lat="42.85697199999988" lon="-1.5789319999999964">
        <ele>484.674</ele>
        <time>2022-08-24T16:22:49Z</time>
      </trkpt>
      <trkpt lat="42.85694399999988" lon="-1.5789649999999964">
        <ele>484.884</ele>
        <time>2022-08-24T16:22:50Z</time>
      </trkpt>
      <trkpt lat="42.856916999999875" lon="-1.5789989999999965">
        <ele>484.824</ele>
        <time>2022-08-24T16:22:51Z</time>
      </trkpt>
      <trkpt lat="42.85688999999987" lon="-1.5790339999999965">
        <ele>485.060</ele>
        <time>2022-08-24T16:22:52Z</time>
      </trkpt>
      <trkpt lat="42.856860999999874" lon="-1.5790659999999965">
        <ele>485.032</ele>
        <time>2022-08-24T16:22:53Z</time>
      </trkpt>
      <trkpt lat="42.85683399999987" lon="-1.5790979999999966">
        <ele>485.099</ele>
        <time>2022-08-24T16:22:54Z</time>
      </trkpt>
      <trkpt lat="42.85680499999987" lon="-1.5791329999999966">
        <ele>485.242</ele>
        <time>2022-08-24T16:22:55Z</time>
      </trkpt>
      <trkpt lat="42.856775999999876" lon="-1.5791659999999965">
        <ele>485.496</ele>
        <time>2022-08-24T16:22:56Z</time>
      </trkpt>
      <trkpt lat="42.85674699999988" lon="-1.5791999999999966">
        <ele>485.485</ele>
        <time>2022-08-24T16:22:57Z</time>
      </trkpt>
      <trkpt lat="42.85671799999988" lon="-1.5792329999999966">
        <ele>485.448</ele>
        <time>2022-08-24T16:22:58Z</time>
      </trkpt>
      <trkpt lat="42.85669099999988" lon="-1.5792669999999966">
        <ele>485.861</ele>
        <time>2022-08-24T16:22:59Z</time>
      </trkpt>
      <trkpt lat="42.856663999999874" lon="-1.5793019999999967">
        <ele>485.817</ele>
        <time>2022-08-24T16:23:00Z</time>
      </trkpt>
      <trkpt lat="42.856634999999876" lon="-1.5793369999999967">
        <ele>486.009</ele>
        <time>2022-08-24T16:23:01Z</time>
      </trkpt>
      <trkpt lat="42.856606999999876" lon="-1.5793719999999967">
        <ele>486.055</ele>
        <time>2022-08-24T16:23:02Z</time>
      </trkpt>
      <trkpt lat="42.85657799999988" lon="-1.5794049999999966">
        <ele>486.045</ele>
        <time>2022-08-24T16:23:03Z</time>
      </trkpt>
      <trkpt lat="42.85654999999988" lon="-1.5794399999999966">
        <ele>486.235</ele>
        <time>2022-08-24T16:23:04Z</time>
      </trkpt>
      <trkpt lat="42.85652199999988" lon="-1.5794759999999965">
        <ele>486.271</ele>
        <time>2022-08-24T16:23:05Z</time>
      </trkpt>
      <trkpt lat="42.85649299999988" lon="-1.5795099999999966">
        <ele>486.433</ele>
        <time>2022-08-24T16:23:06Z</time>
      </trkpt>
      <trkpt lat="42.85646399999988" lon="-1.5795449999999966">
        <ele>486.630</ele>
        <time>2022-08-24T16:23:07Z</time>
      </trkpt>
      <trkpt lat="42.856431999999884" lon="-1.5795809999999966">
        <ele>486.633</ele>
        <time>2022-08-24T16:23:08Z</time>
      </trkpt>
      <trkpt lat="42.85640299999989" lon="-1.5796169999999965">
        <ele>486.697</ele>
        <time>2022-08-24T16:23:09Z</time>
      </trkpt>
      <trkpt lat="42.85637399999989" lon="-1.5796509999999966">
        <ele>486.666</ele>
        <time>2022-08-24T16:23:10Z</time>
      </trkpt>
      <trkpt lat="42.85617999999989" lon="-1.5798579999999967">
        <ele>486.845</ele>
        <time>2022-08-24T16:23:16Z</time>
      </trkpt>
      <trkpt lat="42.85614899999989" lon="-1.5798949999999967">
        <ele>486.847</ele>
        <time>2022-08-24T16:23:17Z</time>
      </trkpt>
      <trkpt lat="42.85605299999989" lon="-1.5800079999999967">
        <ele>487.011</ele>
        <time>2022-08-24T16:23:20Z</time>
      </trkpt>
      <trkpt lat="42.85585199999989" lon="-1.5802289999999968">
        <ele>487.009</ele>
        <time>2022-08-24T16:23:26Z</time>
      </trkpt>
      <trkpt lat="42.855712999999895" lon="-1.5803829999999968">
        <ele>487.235</ele>
        <time>2022-08-24T16:23:30Z</time>
      </trkpt>
      <trkpt lat="42.8552559999999" lon="-1.5808779999999967">
        <ele>486.865</ele>
        <time>2022-08-24T16:23:42Z</time>
      </trkpt>
      <trkpt lat="42.8548449999999" lon="-1.5813179999999967">
        <ele>486.065</ele>
        <time>2022-08-24T16:23:51Z</time>
      </trkpt>
      <trkpt lat="42.8546949999999" lon="-1.5814789999999967">
        <ele>485.241</ele>
        <time>2022-08-24T16:23:54Z</time>
      </trkpt>
      <trkpt lat="42.8543729999999" lon="-1.5818179999999968">
        <ele>484.283</ele>
        <time>2022-08-24T16:24:00Z</time>
      </trkpt>
      <trkpt lat="42.854315999999905" lon="-1.5818809999999968">
        <ele>483.870</ele>
        <time>2022-08-24T16:24:01Z</time>
      </trkpt>
      <trkpt lat="42.8541339999999" lon="-1.5820709999999967">
        <ele>483.033</ele>
        <time>2022-08-24T16:24:04Z</time>
      </trkpt>
      <trkpt lat="42.8539399999999" lon="-1.5822769999999966">
        <ele>482.267</ele>
        <time>2022-08-24T16:24:07Z</time>
      </trkpt>
      <trkpt lat="42.8538719999999" lon="-1.5823489999999967">
        <ele>481.836</ele>
        <time>2022-08-24T16:24:08Z</time>
      </trkpt>
      <trkpt lat="42.853803999999904" lon="-1.5824169999999966">
        <ele>481.429</ele>
        <time>2022-08-24T16:24:09Z</time>
      </trkpt>
      <trkpt lat="42.853735999999905" lon="-1.5824829999999965">
        <ele>481.000</ele>
        <time>2022-08-24T16:24:10Z</time>
      </trkpt>
      <trkpt lat="42.85366799999991" lon="-1.5825469999999966">
        <ele>480.420</ele>
        <time>2022-08-24T16:24:11Z</time>
      </trkpt>
      <trkpt lat="42.85360299999991" lon="-1.5826079999999967">
        <ele>480.209</ele>
        <time>2022-08-24T16:24:12Z</time>
      </trkpt>
      <trkpt lat="42.85346499999991" lon="-1.5827249999999966">
        <ele>479.483</ele>
        <time>2022-08-24T16:24:14Z</time>
      </trkpt>
      <trkpt lat="42.853319999999904" lon="-1.5828419999999965">
        <ele>478.243</ele>
        <time>2022-08-24T16:24:16Z</time>
      </trkpt>
      <trkpt lat="42.853164999999905" lon="-1.5829489999999966">
        <ele>476.883</ele>
        <time>2022-08-24T16:24:18Z</time>
      </trkpt>
      <trkpt lat="42.852927999999906" lon="-1.5830929999999965">
        <ele>475.639</ele>
        <time>2022-08-24T16:24:21Z</time>
      </trkpt>
      <trkpt lat="42.8527659999999" lon="-1.5831699999999966">
        <ele>474.261</ele>
        <time>2022-08-24T16:24:23Z</time>
      </trkpt>
      <trkpt lat="42.852683999999904" lon="-1.5832029999999966">
        <ele>474.068</ele>
        <time>2022-08-24T16:24:24Z</time>
      </trkpt>
      <trkpt lat="42.8526029999999" lon="-1.5832359999999965">
        <ele>473.271</ele>
        <time>2022-08-24T16:24:25Z</time>
      </trkpt>
      <trkpt lat="42.8525209999999" lon="-1.5832679999999966">
        <ele>473.045</ele>
        <time>2022-08-24T16:24:26Z</time>
      </trkpt>
      <trkpt lat="42.85244099999991" lon="-1.5832989999999965">
        <ele>472.224</ele>
        <time>2022-08-24T16:24:27Z</time>
      </trkpt>
      <trkpt lat="42.852359999999905" lon="-1.5833279999999965">
        <ele>471.832</ele>
        <time>2022-08-24T16:24:28Z</time>
      </trkpt>
      <trkpt lat="42.852280999999905" lon="-1.5833559999999964">
        <ele>471.292</ele>
        <time>2022-08-24T16:24:29Z</time>
      </trkpt>
      <trkpt lat="42.85220099999991" lon="-1.5833829999999964">
        <ele>470.811</ele>
        <time>2022-08-24T16:24:30Z</time>
      </trkpt>
      <trkpt lat="42.85212299999991" lon="-1.5834109999999963">
        <ele>470.609</ele>
        <time>2022-08-24T16:24:31Z</time>
      </trkpt>
      <trkpt lat="42.85204599999991" lon="-1.5834389999999963">
        <ele>470.244</ele>
        <time>2022-08-24T16:24:32Z</time>
      </trkpt>
      <trkpt lat="42.85196999999991" lon="-1.5834679999999963">
        <ele>470.054</ele>
        <time>2022-08-24T16:24:33Z</time>
      </trkpt>
      <trkpt lat="42.85189499999991" lon="-1.5834969999999964">
        <ele>469.664</ele>
        <time>2022-08-24T16:24:34Z</time>
      </trkpt>
      <trkpt lat="42.851819999999904" lon="-1.5835279999999963">
        <ele>469.420</ele>
        <time>2022-08-24T16:24:35Z</time>
      </trkpt>
      <trkpt lat="42.851746999999904" lon="-1.5835609999999962">
        <ele>469.082</ele>
        <time>2022-08-24T16:24:36Z</time>
      </trkpt>
      <trkpt lat="42.851675999999905" lon="-1.5835929999999963">
        <ele>468.629</ele>
        <time>2022-08-24T16:24:37Z</time>
      </trkpt>
      <trkpt lat="42.851605999999904" lon="-1.5836219999999963">
        <ele>468.482</ele>
        <time>2022-08-24T16:24:38Z</time>
      </trkpt>
      <trkpt lat="42.851534999999906" lon="-1.5836489999999963">
        <ele>468.016</ele>
        <time>2022-08-24T16:24:39Z</time>
      </trkpt>
      <trkpt lat="42.85146699999991" lon="-1.5836759999999963">
        <ele>468.235</ele>
        <time>2022-08-24T16:24:40Z</time>
      </trkpt>
      <trkpt lat="42.851399999999906" lon="-1.5837019999999964">
        <ele>468.035</ele>
        <time>2022-08-24T16:24:41Z</time>
      </trkpt>
      <trkpt lat="42.851335999999904" lon="-1.5837269999999963">
        <ele>467.886</ele>
        <time>2022-08-24T16:24:42Z</time>
      </trkpt>
      <trkpt lat="42.85127299999991" lon="-1.5837509999999964">
        <ele>467.814</ele>
        <time>2022-08-24T16:24:43Z</time>
      </trkpt>
      <trkpt lat="42.851211999999904" lon="-1.5837739999999965">
        <ele>467.609</ele>
        <time>2022-08-24T16:24:44Z</time>
      </trkpt>
      <trkpt lat="42.85115199999991" lon="-1.5837989999999964">
        <ele>467.634</ele>
        <time>2022-08-24T16:24:45Z</time>
      </trkpt>
      <trkpt lat="42.85109499999991" lon="-1.5838239999999963">
        <ele>467.684</ele>
        <time>2022-08-24T16:24:46Z</time>
      </trkpt>
      <trkpt lat="42.85103599999991" lon="-1.5838439999999963">
        <ele>467.454</ele>
        <time>2022-08-24T16:24:47Z</time>
      </trkpt>
      <trkpt lat="42.85097899999991" lon="-1.5838639999999962">
        <ele>467.270</ele>
        <time>2022-08-24T16:24:48Z</time>
      </trkpt>
      <trkpt lat="42.85093299999991" lon="-1.5838769999999962">
        <ele>467.272</ele>
        <time>2022-08-24T16:24:49Z</time>
      </trkpt>
      <trkpt lat="42.85086599999991" lon="-1.5838979999999963">
        <ele>467.249</ele>
        <time>2022-08-24T16:24:50Z</time>
      </trkpt>
      <trkpt lat="42.85080999999991" lon="-1.5839179999999962">
        <ele>467.292</ele>
        <time>2022-08-24T16:24:51Z</time>
      </trkpt>
      <trkpt lat="42.85075699999991" lon="-1.5839369999999962">
        <ele>467.046</ele>
        <time>2022-08-24T16:24:52Z</time>
      </trkpt>
      <trkpt lat="42.850701999999906" lon="-1.5839549999999962">
        <ele>467.055</ele>
        <time>2022-08-24T16:24:53Z</time>
      </trkpt>
      <trkpt lat="42.85064799999991" lon="-1.5839719999999962">
        <ele>467.061</ele>
        <time>2022-08-24T16:24:54Z</time>
      </trkpt>
      <trkpt lat="42.85059599999991" lon="-1.5839869999999963">
        <ele>467.021</ele>
        <time>2022-08-24T16:24:55Z</time>
      </trkpt>
      <trkpt lat="42.85054599999991" lon="-1.5840039999999962">
        <ele>467.013</ele>
        <time>2022-08-24T16:24:56Z</time>
      </trkpt>
      <trkpt lat="42.85049599999991" lon="-1.5840199999999962">
        <ele>467.009</ele>
        <time>2022-08-24T16:24:57Z</time>
      </trkpt>
      <trkpt lat="42.850445999999906" lon="-1.5840349999999963">
        <ele>467.027</ele>
        <time>2022-08-24T16:24:58Z</time>
      </trkpt>
      <trkpt lat="42.8501349999999" lon="-1.5841219999999963">
        <ele>466.487</ele>
        <time>2022-08-24T16:25:04Z</time>
      </trkpt>
      <trkpt lat="42.8498629999999" lon="-1.5841959999999962">
        <ele>466.477</ele>
        <time>2022-08-24T16:25:09Z</time>
      </trkpt>
      <trkpt lat="42.8497539999999" lon="-1.584223999999996">
        <ele>466.283</ele>
        <time>2022-08-24T16:25:11Z</time>
      </trkpt>
      <trkpt lat="42.8497009999999" lon="-1.584237999999996">
        <ele>466.235</ele>
        <time>2022-08-24T16:25:12Z</time>
      </trkpt>
      <trkpt lat="42.8495899999999" lon="-1.5842609999999961">
        <ele>466.242</ele>
        <time>2022-08-24T16:25:14Z</time>
      </trkpt>
      <trkpt lat="42.8495359999999" lon="-1.5842719999999961">
        <ele>466.285</ele>
        <time>2022-08-24T16:25:15Z</time>
      </trkpt>
      <trkpt lat="42.849483999999904" lon="-1.5842819999999962">
        <ele>466.299</ele>
        <time>2022-08-24T16:25:16Z</time>
      </trkpt>
      <trkpt lat="42.84932799999991" lon="-1.584320999999996">
        <ele>466.248</ele>
        <time>2022-08-24T16:25:19Z</time>
      </trkpt>
      <trkpt lat="42.84927599999991" lon="-1.5843339999999961">
        <ele>466.238</ele>
        <time>2022-08-24T16:25:20Z</time>
      </trkpt>
      <trkpt lat="42.84912499999991" lon="-1.5843759999999962">
        <ele>466.470</ele>
        <time>2022-08-24T16:25:23Z</time>
      </trkpt>
      <trkpt lat="42.84907499999991" lon="-1.5843899999999962">
        <ele>466.417</ele>
        <time>2022-08-24T16:25:24Z</time>
      </trkpt>
      <trkpt lat="42.84902599999991" lon="-1.5844049999999963">
        <ele>466.409</ele>
        <time>2022-08-24T16:25:25Z</time>
      </trkpt>
      <trkpt lat="42.84897499999991" lon="-1.5844209999999963">
        <ele>466.644</ele>
        <time>2022-08-24T16:25:26Z</time>
      </trkpt>
      <trkpt lat="42.84892499999991" lon="-1.5844359999999964">
        <ele>466.694</ele>
        <time>2022-08-24T16:25:27Z</time>
      </trkpt>
      <trkpt lat="42.84837899999991" lon="-1.5845939999999965">
        <ele>466.494</ele>
        <time>2022-08-24T16:25:38Z</time>
      </trkpt>
      <trkpt lat="42.84822299999991" lon="-1.5846449999999965">
        <ele>466.440</ele>
        <time>2022-08-24T16:25:41Z</time>
      </trkpt>
      <trkpt lat="42.84806299999991" lon="-1.5847119999999966">
        <ele>466.432</ele>
        <time>2022-08-24T16:25:44Z</time>
      </trkpt>
      <trkpt lat="42.84801199999991" lon="-1.5847339999999965">
        <ele>466.669</ele>
        <time>2022-08-24T16:25:45Z</time>
      </trkpt>
      <trkpt lat="42.84797299999991" lon="-1.5847539999999964">
        <ele>466.662</ele>
        <time>2022-08-24T16:25:46Z</time>
      </trkpt>
      <trkpt lat="42.84791399999991" lon="-1.5847829999999965">
        <ele>466.626</ele>
        <time>2022-08-24T16:25:47Z</time>
      </trkpt>
      <trkpt lat="42.84786599999991" lon="-1.5848069999999965">
        <ele>466.625</ele>
        <time>2022-08-24T16:25:48Z</time>
      </trkpt>
      <trkpt lat="42.84781899999991" lon="-1.5848329999999966">
        <ele>466.668</ele>
        <time>2022-08-24T16:25:49Z</time>
      </trkpt>
      <trkpt lat="42.84776899999991" lon="-1.5848579999999965">
        <ele>466.642</ele>
        <time>2022-08-24T16:25:50Z</time>
      </trkpt>
      <trkpt lat="42.84772099999991" lon="-1.5848819999999966">
        <ele>466.626</ele>
        <time>2022-08-24T16:25:51Z</time>
      </trkpt>
      <trkpt lat="42.84762499999991" lon="-1.5849329999999966">
        <ele>466.609</ele>
        <time>2022-08-24T16:25:53Z</time>
      </trkpt>
      <trkpt lat="42.84757699999991" lon="-1.5849579999999965">
        <ele>466.637</ele>
        <time>2022-08-24T16:25:54Z</time>
      </trkpt>
      <trkpt lat="42.84752899999991" lon="-1.5849829999999965">
        <ele>466.657</ele>
        <time>2022-08-24T16:25:55Z</time>
      </trkpt>
      <trkpt lat="42.84747999999991" lon="-1.5850059999999966">
        <ele>466.437</ele>
        <time>2022-08-24T16:25:56Z</time>
      </trkpt>
      <trkpt lat="42.847385999999915" lon="-1.5850519999999966">
        <ele>466.643</ele>
        <time>2022-08-24T16:25:58Z</time>
      </trkpt>
      <trkpt lat="42.846952999999914" lon="-1.5852569999999966">
        <ele>466.865</ele>
        <time>2022-08-24T16:26:07Z</time>
      </trkpt>
      <trkpt lat="42.846904999999914" lon="-1.5852789999999966">
        <ele>466.822</ele>
        <time>2022-08-24T16:26:08Z</time>
      </trkpt>
      <trkpt lat="42.846856999999915" lon="-1.5852989999999965">
        <ele>466.825</ele>
        <time>2022-08-24T16:26:09Z</time>
      </trkpt>
      <trkpt lat="42.846808999999915" lon="-1.5853179999999965">
        <ele>466.829</ele>
        <time>2022-08-24T16:26:10Z</time>
      </trkpt>
      <trkpt lat="42.846757999999916" lon="-1.5853379999999964">
        <ele>466.878</ele>
        <time>2022-08-24T16:26:11Z</time>
      </trkpt>
      <trkpt lat="42.84641099999992" lon="-1.5854789999999963">
        <ele>467.085</ele>
        <time>2022-08-24T16:26:18Z</time>
      </trkpt>
      <trkpt lat="42.84626199999992" lon="-1.5855369999999962">
        <ele>467.089</ele>
        <time>2022-08-24T16:26:21Z</time>
      </trkpt>
      <trkpt lat="42.84621599999992" lon="-1.5855599999999963">
        <ele>467.017</ele>
        <time>2022-08-24T16:26:22Z</time>
      </trkpt>
      <trkpt lat="42.84616699999992" lon="-1.5855809999999964">
        <ele>467.009</ele>
        <time>2022-08-24T16:26:23Z</time>
      </trkpt>
      <trkpt lat="42.84577299999992" lon="-1.5857579999999964">
        <ele>466.669</ele>
        <time>2022-08-24T16:26:31Z</time>
      </trkpt>
      <trkpt lat="42.845287999999925" lon="-1.5859799999999964">
        <ele>466.279</ele>
        <time>2022-08-24T16:26:40Z</time>
      </trkpt>
      <trkpt lat="42.84505799999992" lon="-1.5860689999999964">
        <ele>466.039</ele>
        <time>2022-08-24T16:26:44Z</time>
      </trkpt>
      <trkpt lat="42.84499999999992" lon="-1.5860919999999965">
        <ele>465.825</ele>
        <time>2022-08-24T16:26:45Z</time>
      </trkpt>
      <trkpt lat="42.84495599999992" lon="-1.5861089999999964">
        <ele>465.877</ele>
        <time>2022-08-24T16:26:46Z</time>
      </trkpt>
      <trkpt lat="42.84488999999992" lon="-1.5861339999999964">
        <ele>465.824</ele>
        <time>2022-08-24T16:26:47Z</time>
      </trkpt>
      <trkpt lat="42.84465199999992" lon="-1.5862169999999964">
        <ele>465.447</ele>
        <time>2022-08-24T16:26:51Z</time>
      </trkpt>
      <trkpt lat="42.84460299999992" lon="-1.5862329999999965">
        <ele>465.241</ele>
        <time>2022-08-24T16:26:52Z</time>
      </trkpt>
      <trkpt lat="42.84453199999992" lon="-1.5862569999999965">
        <ele>465.210</ele>
        <time>2022-08-24T16:26:53Z</time>
      </trkpt>
      <trkpt lat="42.84447399999992" lon="-1.5862779999999965">
        <ele>465.273</ele>
        <time>2022-08-24T16:26:54Z</time>
      </trkpt>
      <trkpt lat="42.84441599999992" lon="-1.5862969999999965">
        <ele>465.285</ele>
        <time>2022-08-24T16:26:55Z</time>
      </trkpt>
      <trkpt lat="42.84435699999992" lon="-1.5863149999999966">
        <ele>465.213</ele>
        <time>2022-08-24T16:26:56Z</time>
      </trkpt>
      <trkpt lat="42.844300999999916" lon="-1.5863339999999966">
        <ele>465.209</ele>
        <time>2022-08-24T16:26:57Z</time>
      </trkpt>
      <trkpt lat="42.84424599999991" lon="-1.5863509999999965">
        <ele>465.248</ele>
        <time>2022-08-24T16:26:58Z</time>
      </trkpt>
      <trkpt lat="42.844135999999914" lon="-1.5863809999999965">
        <ele>465.038</ele>
        <time>2022-08-24T16:27:00Z</time>
      </trkpt>
      <trkpt lat="42.844081999999915" lon="-1.5863939999999965">
        <ele>465.088</ele>
        <time>2022-08-24T16:27:01Z</time>
      </trkpt>
      <trkpt lat="42.84402699999991" lon="-1.5864069999999966">
        <ele>465.054</ele>
        <time>2022-08-24T16:27:02Z</time>
      </trkpt>
      <trkpt lat="42.84397199999991" lon="-1.5864189999999965">
        <ele>465.046</ele>
        <time>2022-08-24T16:27:03Z</time>
      </trkpt>
      <trkpt lat="42.84381199999991" lon="-1.5864569999999965">
        <ele>464.833</ele>
        <time>2022-08-24T16:27:06Z</time>
      </trkpt>
      <trkpt lat="42.843756999999904" lon="-1.5864689999999964">
        <ele>464.656</ele>
        <time>2022-08-24T16:27:07Z</time>
      </trkpt>
      <trkpt lat="42.843651999999906" lon="-1.5864929999999964">
        <ele>464.490</ele>
        <time>2022-08-24T16:27:09Z</time>
      </trkpt>
      <trkpt lat="42.843435999999905" lon="-1.5865259999999963">
        <ele>464.049</ele>
        <time>2022-08-24T16:27:13Z</time>
      </trkpt>
      <trkpt lat="42.843331999999904" lon="-1.5865419999999963">
        <ele>464.041</ele>
        <time>2022-08-24T16:27:15Z</time>
      </trkpt>
      <trkpt lat="42.84327999999991" lon="-1.5865499999999964">
        <ele>464.081</ele>
        <time>2022-08-24T16:27:16Z</time>
      </trkpt>
      <trkpt lat="42.84322599999991" lon="-1.5865579999999964">
        <ele>463.809</ele>
        <time>2022-08-24T16:27:17Z</time>
      </trkpt>
      <trkpt lat="42.84317399999991" lon="-1.5865639999999963">
        <ele>463.809</ele>
        <time>2022-08-24T16:27:18Z</time>
      </trkpt>
      <trkpt lat="42.843121999999916" lon="-1.5865689999999963">
        <ele>463.855</ele>
        <time>2022-08-24T16:27:19Z</time>
      </trkpt>
      <trkpt lat="42.843023999999915" lon="-1.5865849999999964">
        <ele>464.055</ele>
        <time>2022-08-24T16:27:21Z</time>
      </trkpt>
      <trkpt lat="42.842975999999915" lon="-1.5865929999999964">
        <ele>464.065</ele>
        <time>2022-08-24T16:27:22Z</time>
      </trkpt>
      <trkpt lat="42.842924999999916" lon="-1.5866009999999964">
        <ele>464.051</ele>
        <time>2022-08-24T16:27:23Z</time>
      </trkpt>
      <trkpt lat="42.84288699999991" lon="-1.5866079999999965">
        <ele>464.043</ele>
        <time>2022-08-24T16:27:24Z</time>
      </trkpt>
      <trkpt lat="42.84278299999991" lon="-1.5866209999999965">
        <ele>463.850</ele>
        <time>2022-08-24T16:27:26Z</time>
      </trkpt>
      <trkpt lat="42.84273599999991" lon="-1.5866259999999965">
        <ele>463.873</ele>
        <time>2022-08-24T16:27:27Z</time>
      </trkpt>
      <trkpt lat="42.84268899999991" lon="-1.5866329999999966">
        <ele>463.847</ele>
        <time>2022-08-24T16:27:28Z</time>
      </trkpt>
      <trkpt lat="42.84264299999991" lon="-1.5866399999999967">
        <ele>463.616</ele>
        <time>2022-08-24T16:27:29Z</time>
      </trkpt>
      <trkpt lat="42.84259499999991" lon="-1.5866459999999967">
        <ele>463.652</ele>
        <time>2022-08-24T16:27:30Z</time>
      </trkpt>
      <trkpt lat="42.84240699999991" lon="-1.5866669999999967">
        <ele>463.453</ele>
        <time>2022-08-24T16:27:34Z</time>
      </trkpt>
      <trkpt lat="42.84231599999991" lon="-1.5866799999999968">
        <ele>463.408</ele>
        <time>2022-08-24T16:27:36Z</time>
      </trkpt>
      <trkpt lat="42.84208299999991" lon="-1.5867179999999967">
        <ele>463.209</ele>
        <time>2022-08-24T16:27:41Z</time>
      </trkpt>
      <trkpt lat="42.84194299999991" lon="-1.5867379999999967">
        <ele>462.816</ele>
        <time>2022-08-24T16:27:44Z</time>
      </trkpt>
      <trkpt lat="42.84179599999991" lon="-1.5867649999999967">
        <ele>462.836</ele>
        <time>2022-08-24T16:27:47Z</time>
      </trkpt>
      <trkpt lat="42.84174799999991" lon="-1.5867729999999967">
        <ele>462.816</ele>
        <time>2022-08-24T16:27:48Z</time>
      </trkpt>
      <trkpt lat="42.84169999999991" lon="-1.5867779999999967">
        <ele>462.682</ele>
        <time>2022-08-24T16:27:49Z</time>
      </trkpt>
      <trkpt lat="42.84165399999991" lon="-1.5867799999999967">
        <ele>462.634</ele>
        <time>2022-08-24T16:27:50Z</time>
      </trkpt>
      <trkpt lat="42.84126899999991" lon="-1.5868329999999968">
        <ele>462.461</ele>
        <time>2022-08-24T16:27:58Z</time>
      </trkpt>
      <trkpt lat="42.84122099999991" lon="-1.5868419999999968">
        <ele>462.464</ele>
        <time>2022-08-24T16:27:59Z</time>
      </trkpt>
      <trkpt lat="42.841174999999915" lon="-1.5868499999999968">
        <ele>462.458</ele>
        <time>2022-08-24T16:28:00Z</time>
      </trkpt>
      <trkpt lat="42.84112799999991" lon="-1.5868579999999968">
        <ele>462.287</ele>
        <time>2022-08-24T16:28:01Z</time>
      </trkpt>
      <trkpt lat="42.84108099999991" lon="-1.5868689999999968">
        <ele>462.214</ele>
        <time>2022-08-24T16:28:02Z</time>
      </trkpt>
      <trkpt lat="42.84103699999991" lon="-1.5868809999999967">
        <ele>462.254</ele>
        <time>2022-08-24T16:28:03Z</time>
      </trkpt>
      <trkpt lat="42.84099699999991" lon="-1.5868919999999966">
        <ele>462.209</ele>
        <time>2022-08-24T16:28:04Z</time>
      </trkpt>
      <trkpt lat="42.840955999999906" lon="-1.5869029999999966">
        <ele>462.209</ele>
        <time>2022-08-24T16:28:05Z</time>
      </trkpt>
      <trkpt lat="42.84092199999991" lon="-1.5869129999999967">
        <ele>462.232</ele>
        <time>2022-08-24T16:28:06Z</time>
      </trkpt>
      <trkpt lat="42.84089599999991" lon="-1.5869189999999966">
        <ele>462.072</ele>
        <time>2022-08-24T16:28:07Z</time>
      </trkpt>
      <trkpt lat="42.84088499999991" lon="-1.5869199999999966">
        <ele>462.062</ele>
        <time>2022-08-24T16:28:08Z</time>
      </trkpt>
      <trkpt lat="42.84088499999991" lon="-1.5869199999999966">
        <ele>461.878</ele>
        <time>2022-08-24T16:28:09Z</time>
      </trkpt>
      <trkpt lat="42.84088499999991" lon="-1.5869199999999966">
        <ele>461.630</ele>
        <time>2022-08-24T16:28:12Z</time>
      </trkpt>
      <trkpt lat="42.84088499999991" lon="-1.5869199999999966">
        <ele>461.667</ele>
        <time>2022-08-24T16:28:13Z</time>
      </trkpt>
      <trkpt lat="42.84078099999991" lon="-1.5869569999999966">
        <ele>462.470</ele>
        <time>2022-08-24T16:35:35Z</time>
      </trkpt>
      <trkpt lat="42.84075499999991" lon="-1.5869679999999966">
        <ele>462.494</ele>
        <time>2022-08-24T16:35:37Z</time>
      </trkpt>
      <trkpt lat="42.84074999999991" lon="-1.5869769999999965">
        <ele>462.483</ele>
        <time>2022-08-24T16:35:38Z</time>
      </trkpt>
      <trkpt lat="42.84074599999991" lon="-1.5869839999999966">
        <ele>462.625</ele>
        <time>2022-08-24T16:35:39Z</time>
      </trkpt>
      <trkpt lat="42.84074199999991" lon="-1.5869959999999965">
        <ele>462.626</ele>
        <time>2022-08-24T16:35:40Z</time>
      </trkpt>
      <trkpt lat="42.84074199999991" lon="-1.5869959999999965">
        <ele>462.608</ele>
        <time>2022-08-24T16:35:41Z</time>
      </trkpt>
      <trkpt lat="42.84073099999991" lon="-1.5870219999999966">
        <ele>462.409</ele>
        <time>2022-08-24T16:35:42Z</time>
      </trkpt>
      <trkpt lat="42.84070699999991" lon="-1.5870639999999967">
        <ele>462.623</ele>
        <time>2022-08-24T16:35:44Z</time>
      </trkpt>
      <trkpt lat="42.840696999999906" lon="-1.5870839999999966">
        <ele>462.423</ele>
        <time>2022-08-24T16:35:45Z</time>
      </trkpt>
      <trkpt lat="42.84068799999991" lon="-1.5871119999999965">
        <ele>462.443</ele>
        <time>2022-08-24T16:35:47Z</time>
      </trkpt>
      <trkpt lat="42.84068399999991" lon="-1.5871209999999965">
        <ele>462.239</ele>
        <time>2022-08-24T16:35:48Z</time>
      </trkpt>
      <trkpt lat="42.84068499999991" lon="-1.5871309999999965">
        <ele>461.461</ele>
        <time>2022-08-24T16:37:36Z</time>
      </trkpt>
      <trkpt lat="42.840685999999906" lon="-1.5871359999999965">
        <ele>461.438</ele>
        <time>2022-08-24T16:37:37Z</time>
      </trkpt>
      <trkpt lat="42.84062899999991" lon="-1.5872549999999965">
        <ele>461.211</ele>
        <time>2022-08-24T16:37:41Z</time>
      </trkpt>
      <trkpt lat="42.840570999999905" lon="-1.5873369999999964">
        <ele>461.025</ele>
        <time>2022-08-24T16:37:44Z</time>
      </trkpt>
      <trkpt lat="42.840559999999904" lon="-1.5873599999999966">
        <ele>461.274</ele>
        <time>2022-08-24T16:37:45Z</time>
      </trkpt>
      <trkpt lat="42.8405489999999" lon="-1.5873829999999967">
        <ele>461.238</ele>
        <time>2022-08-24T16:37:46Z</time>
      </trkpt>
      <trkpt lat="42.840536999999905" lon="-1.5874049999999966">
        <ele>461.270</ele>
        <time>2022-08-24T16:37:47Z</time>
      </trkpt>
      <trkpt lat="42.84052499999991" lon="-1.5874289999999966">
        <ele>461.217</ele>
        <time>2022-08-24T16:37:48Z</time>
      </trkpt>
      <trkpt lat="42.840415999999905" lon="-1.5875909999999966">
        <ele>460.809</ele>
        <time>2022-08-24T16:37:55Z</time>
      </trkpt>
      <trkpt lat="42.8404029999999" lon="-1.5876119999999967">
        <ele>460.634</ele>
        <time>2022-08-24T16:37:56Z</time>
      </trkpt>
      <trkpt lat="42.8403889999999" lon="-1.5876389999999967">
        <ele>460.464</ele>
        <time>2022-08-24T16:37:57Z</time>
      </trkpt>
      <trkpt lat="42.840370999999905" lon="-1.5876659999999967">
        <ele>460.434</ele>
        <time>2022-08-24T16:37:58Z</time>
      </trkpt>
      <trkpt lat="42.840353999999905" lon="-1.5876879999999967">
        <ele>460.410</ele>
        <time>2022-08-24T16:37:59Z</time>
      </trkpt>
      <trkpt lat="42.8403409999999" lon="-1.5877049999999966">
        <ele>460.452</ele>
        <time>2022-08-24T16:38:00Z</time>
      </trkpt>
      <trkpt lat="42.8402999999999" lon="-1.5877799999999966">
        <ele>460.039</ele>
        <time>2022-08-24T16:38:03Z</time>
      </trkpt>
      <trkpt lat="42.8402829999999" lon="-1.5878039999999967">
        <ele>459.822</ele>
        <time>2022-08-24T16:38:04Z</time>
      </trkpt>
      <trkpt lat="42.8402619999999" lon="-1.5878309999999967">
        <ele>459.856</ele>
        <time>2022-08-24T16:38:05Z</time>
      </trkpt>
      <trkpt lat="42.840218999999905" lon="-1.5878959999999966">
        <ele>459.845</ele>
        <time>2022-08-24T16:38:07Z</time>
      </trkpt>
      <trkpt lat="42.840193999999904" lon="-1.5879539999999965">
        <ele>460.089</ele>
        <time>2022-08-24T16:38:09Z</time>
      </trkpt>
      <trkpt lat="42.8401809999999" lon="-1.5879749999999966">
        <ele>459.806</ele>
        <time>2022-08-24T16:38:10Z</time>
      </trkpt>
      <trkpt lat="42.8401529999999" lon="-1.5880219999999965">
        <ele>460.026</ele>
        <time>2022-08-24T16:38:12Z</time>
      </trkpt>
      <trkpt lat="42.8401029999999" lon="-1.5880989999999966">
        <ele>460.009</ele>
        <time>2022-08-24T16:38:15Z</time>
      </trkpt>
      <trkpt lat="42.8400309999999" lon="-1.5882069999999966">
        <ele>459.689</ele>
        <time>2022-08-24T16:38:19Z</time>
      </trkpt>
      <trkpt lat="42.840003999999894" lon="-1.5882659999999966">
        <ele>459.439</ele>
        <time>2022-08-24T16:38:21Z</time>
      </trkpt>
      <trkpt lat="42.83993099999989" lon="-1.5883959999999966">
        <ele>459.299</ele>
        <time>2022-08-24T16:38:25Z</time>
      </trkpt>
      <trkpt lat="42.839913999999894" lon="-1.5884249999999966">
        <ele>459.455</ele>
        <time>2022-08-24T16:38:26Z</time>
      </trkpt>
      <trkpt lat="42.839890999999895" lon="-1.5884499999999966">
        <ele>459.237</ele>
        <time>2022-08-24T16:38:27Z</time>
      </trkpt>
      <trkpt lat="42.8398649999999" lon="-1.5884729999999967">
        <ele>459.224</ele>
        <time>2022-08-24T16:38:28Z</time>
      </trkpt>
      <trkpt lat="42.8397539999999" lon="-1.5886309999999968">
        <ele>459.217</ele>
        <time>2022-08-24T16:38:33Z</time>
      </trkpt>
      <trkpt lat="42.839729999999896" lon="-1.5886629999999968">
        <ele>459.251</ele>
        <time>2022-08-24T16:38:34Z</time>
      </trkpt>
      <trkpt lat="42.8396759999999" lon="-1.5887259999999968">
        <ele>459.260</ele>
        <time>2022-08-24T16:38:37Z</time>
      </trkpt>
      <trkpt lat="42.8396309999999" lon="-1.5887339999999968">
        <ele>459.238</ele>
        <time>2022-08-24T16:38:38Z</time>
      </trkpt>
      <trkpt lat="42.8395689999999" lon="-1.5887459999999967">
        <ele>459.270</ele>
        <time>2022-08-24T16:38:39Z</time>
      </trkpt>
      <trkpt lat="42.8395089999999" lon="-1.5887689999999968">
        <ele>459.217</ele>
        <time>2022-08-24T16:38:40Z</time>
      </trkpt>
      <trkpt lat="42.8394599999999" lon="-1.5887949999999968">
        <ele>459.209</ele>
        <time>2022-08-24T16:38:41Z</time>
      </trkpt>
      <trkpt lat="42.839419999999905" lon="-1.5888149999999968">
        <ele>459.234</ele>
        <time>2022-08-24T16:38:42Z</time>
      </trkpt>
      <trkpt lat="42.8391559999999" lon="-1.5890049999999967">
        <ele>458.674</ele>
        <time>2022-08-24T16:38:48Z</time>
      </trkpt>
      <trkpt lat="42.8390719999999" lon="-1.5890859999999967">
        <ele>458.064</ele>
        <time>2022-08-24T16:38:50Z</time>
      </trkpt>
      <trkpt lat="42.8388469999999" lon="-1.5892249999999966">
        <ele>457.660</ele>
        <time>2022-08-24T16:38:55Z</time>
      </trkpt>
      <trkpt lat="42.838690999999905" lon="-1.5893509999999966">
        <ele>457.622</ele>
        <time>2022-08-24T16:38:59Z</time>
      </trkpt>
      <trkpt lat="42.838648999999904" lon="-1.5893879999999967">
        <ele>457.679</ele>
        <time>2022-08-24T16:39:00Z</time>
      </trkpt>
      <trkpt lat="42.838605999999906" lon="-1.5894269999999966">
        <ele>457.612</ele>
        <time>2022-08-24T16:39:01Z</time>
      </trkpt>
      <trkpt lat="42.8385679999999" lon="-1.5894639999999967">
        <ele>457.616</ele>
        <time>2022-08-24T16:39:02Z</time>
      </trkpt>
      <trkpt lat="42.8385269999999" lon="-1.5894999999999966">
        <ele>457.465</ele>
        <time>2022-08-24T16:39:03Z</time>
      </trkpt>
      <trkpt lat="42.8382399999999" lon="-1.5897409999999965">
        <ele>457.261</ele>
        <time>2022-08-24T16:39:10Z</time>
      </trkpt>
      <trkpt lat="42.8379859999999" lon="-1.5899569999999965">
        <ele>456.421</ele>
        <time>2022-08-24T16:39:15Z</time>
      </trkpt>
      <trkpt lat="42.8379439999999" lon="-1.5899969999999966">
        <ele>456.213</ele>
        <time>2022-08-24T16:39:16Z</time>
      </trkpt>
      <trkpt lat="42.8379049999999" lon="-1.5900359999999965">
        <ele>456.009</ele>
        <time>2022-08-24T16:39:17Z</time>
      </trkpt>
      <trkpt lat="42.8378699999999" lon="-1.5900739999999964">
        <ele>456.037</ele>
        <time>2022-08-24T16:39:18Z</time>
      </trkpt>
      <trkpt lat="42.837829999999904" lon="-1.5901049999999963">
        <ele>455.847</ele>
        <time>2022-08-24T16:39:19Z</time>
      </trkpt>
      <trkpt lat="42.837786999999906" lon="-1.5901319999999963">
        <ele>455.687</ele>
        <time>2022-08-24T16:39:20Z</time>
      </trkpt>
      <trkpt lat="42.837747999999905" lon="-1.5901589999999963">
        <ele>455.613</ele>
        <time>2022-08-24T16:39:21Z</time>
      </trkpt>
      <trkpt lat="42.837626999999905" lon="-1.5902159999999963">
        <ele>455.695</ele>
        <time>2022-08-24T16:39:24Z</time>
      </trkpt>
      <trkpt lat="42.83752799999991" lon="-1.5902469999999962">
        <ele>455.472</ele>
        <time>2022-08-24T16:39:26Z</time>
      </trkpt>
      <trkpt lat="42.83748199999991" lon="-1.5902619999999963">
        <ele>455.495</ele>
        <time>2022-08-24T16:39:27Z</time>
      </trkpt>
      <trkpt lat="42.83743899999991" lon="-1.5902789999999962">
        <ele>455.449</ele>
        <time>2022-08-24T16:39:28Z</time>
      </trkpt>
      <trkpt lat="42.83735099999991" lon="-1.5903179999999961">
        <ele>455.698</ele>
        <time>2022-08-24T16:39:30Z</time>
      </trkpt>
      <trkpt lat="42.83731199999991" lon="-1.590328999999996">
        <ele>455.646</ele>
        <time>2022-08-24T16:39:31Z</time>
      </trkpt>
      <trkpt lat="42.83727499999991" lon="-1.590334999999996">
        <ele>455.688</ele>
        <time>2022-08-24T16:39:32Z</time>
      </trkpt>
      <trkpt lat="42.83723899999991" lon="-1.5903339999999961">
        <ele>455.816</ele>
        <time>2022-08-24T16:39:33Z</time>
      </trkpt>
      <trkpt lat="42.837203999999915" lon="-1.5903299999999962">
        <ele>455.809</ele>
        <time>2022-08-24T16:39:34Z</time>
      </trkpt>
      <trkpt lat="42.837203999999915" lon="-1.5903299999999962">
        <ele>455.875</ele>
        <time>2022-08-24T16:39:35Z</time>
      </trkpt>
      <trkpt lat="42.837124999999915" lon="-1.5903379999999963">
        <ele>455.815</ele>
        <time>2022-08-24T16:39:36Z</time>
      </trkpt>
      <trkpt lat="42.837124999999915" lon="-1.5903379999999963">
        <ele>455.855</ele>
        <time>2022-08-24T16:39:37Z</time>
      </trkpt>
      <trkpt lat="42.837079999999915" lon="-1.5903459999999963">
        <ele>455.811</ele>
        <time>2022-08-24T16:39:38Z</time>
      </trkpt>
      <trkpt lat="42.83703699999992" lon="-1.5903519999999962">
        <ele>455.833</ele>
        <time>2022-08-24T16:39:39Z</time>
      </trkpt>
      <trkpt lat="42.836995999999914" lon="-1.5903609999999961">
        <ele>455.810</ele>
        <time>2022-08-24T16:39:40Z</time>
      </trkpt>
      <trkpt lat="42.83690699999991" lon="-1.5903709999999962">
        <ele>455.853</ele>
        <time>2022-08-24T16:39:41Z</time>
      </trkpt>
      <trkpt lat="42.836860999999914" lon="-1.5903759999999962">
        <ele>455.637</ele>
        <time>2022-08-24T16:39:42Z</time>
      </trkpt>
      <trkpt lat="42.836817999999916" lon="-1.5903849999999962">
        <ele>455.616</ele>
        <time>2022-08-24T16:39:44Z</time>
      </trkpt>
      <trkpt lat="42.836730999999915" lon="-1.5904059999999962">
        <ele>455.625</ele>
        <time>2022-08-24T16:39:45Z</time>
      </trkpt>
      <trkpt lat="42.83669099999992" lon="-1.5904109999999962">
        <ele>455.626</ele>
        <time>2022-08-24T16:39:46Z</time>
      </trkpt>
      <trkpt lat="42.83669099999992" lon="-1.5904109999999962">
        <ele>455.608</ele>
        <time>2022-08-24T16:39:47Z</time>
      </trkpt>
      <trkpt lat="42.83653599999992" lon="-1.5904069999999964">
        <ele>455.609</ele>
        <time>2022-08-24T16:39:50Z</time>
      </trkpt>
      <trkpt lat="42.83649299999992" lon="-1.5904009999999964">
        <ele>455.663</ele>
        <time>2022-08-24T16:39:51Z</time>
      </trkpt>
      <trkpt lat="42.83644899999992" lon="-1.5903959999999964">
        <ele>455.453</ele>
        <time>2022-08-24T16:39:53Z</time>
      </trkpt>
      <trkpt lat="42.83636899999992" lon="-1.5903769999999964">
        <ele>455.473</ele>
        <time>2022-08-24T16:39:54Z</time>
      </trkpt>
      <trkpt lat="42.83633699999992" lon="-1.5903669999999963">
        <ele>455.429</ele>
        <time>2022-08-24T16:39:55Z</time>
      </trkpt>
      <trkpt lat="42.836183999999925" lon="-1.5903329999999962">
        <ele>455.451</ele>
        <time>2022-08-24T16:39:59Z</time>
      </trkpt>
      <trkpt lat="42.836146999999926" lon="-1.5903289999999963">
        <ele>455.468</ele>
        <time>2022-08-24T16:40:00Z</time>
      </trkpt>
      <trkpt lat="42.83610999999993" lon="-1.5903259999999964">
        <ele>455.491</ele>
        <time>2022-08-24T16:40:01Z</time>
      </trkpt>
      <trkpt lat="42.83607799999993" lon="-1.5903209999999963">
        <ele>455.485</ele>
        <time>2022-08-24T16:40:02Z</time>
      </trkpt>
      <trkpt lat="42.83598499999993" lon="-1.5903009999999964">
        <ele>455.494</ele>
        <time>2022-08-24T16:40:05Z</time>
      </trkpt>
      <trkpt lat="42.83589699999993" lon="-1.5902759999999965">
        <ele>455.621</ele>
        <time>2022-08-24T16:40:07Z</time>
      </trkpt>
      <trkpt lat="42.835861999999935" lon="-1.5902639999999966">
        <ele>455.641</ele>
        <time>2022-08-24T16:40:08Z</time>
      </trkpt>
      <trkpt lat="42.835836999999934" lon="-1.5902589999999965">
        <ele>455.605</ele>
        <time>2022-08-24T16:40:09Z</time>
      </trkpt>
      <trkpt lat="42.835810999999936" lon="-1.5902519999999964">
        <ele>455.809</ele>
        <time>2022-08-24T16:40:10Z</time>
      </trkpt>
      <trkpt lat="42.835788999999934" lon="-1.5902419999999964">
        <ele>455.823</ele>
        <time>2022-08-24T16:40:11Z</time>
      </trkpt>
      <trkpt lat="42.83576699999993" lon="-1.5902299999999965">
        <ele>455.823</ele>
        <time>2022-08-24T16:40:12Z</time>
      </trkpt>
      <trkpt lat="42.83571999999993" lon="-1.5902099999999966">
        <ele>455.853</ele>
        <time>2022-08-24T16:40:15Z</time>
      </trkpt>
      <trkpt lat="42.83556999999993" lon="-1.5901279999999967">
        <ele>455.869</ele>
        <time>2022-08-24T16:40:19Z</time>
      </trkpt>
      <trkpt lat="42.83553699999993" lon="-1.5901069999999966">
        <ele>455.861</ele>
        <time>2022-08-24T16:40:20Z</time>
      </trkpt>
      <trkpt lat="42.83550399999993" lon="-1.5900839999999965">
        <ele>455.678</ele>
        <time>2022-08-24T16:40:21Z</time>
      </trkpt>
      <trkpt lat="42.83547199999993" lon="-1.5900559999999966">
        <ele>455.661</ele>
        <time>2022-08-24T16:40:22Z</time>
      </trkpt>
      <trkpt lat="42.83543599999993" lon="-1.5900289999999966">
        <ele>455.635</ele>
        <time>2022-08-24T16:40:24Z</time>
      </trkpt>
      <trkpt lat="42.83533399999993" lon="-1.5899429999999966">
        <ele>455.464</ele>
        <time>2022-08-24T16:40:26Z</time>
      </trkpt>
      <trkpt lat="42.83533399999993" lon="-1.5899429999999966">
        <ele>455.443</ele>
        <time>2022-08-24T16:40:27Z</time>
      </trkpt>
      <trkpt lat="42.835307999999934" lon="-1.5899019999999966">
        <ele>455.464</ele>
        <time>2022-08-24T16:40:28Z</time>
      </trkpt>
      <trkpt lat="42.83528399999993" lon="-1.5898559999999966">
        <ele>455.210</ele>
        <time>2022-08-24T16:40:29Z</time>
      </trkpt>
      <trkpt lat="42.83525599999993" lon="-1.5898039999999967">
        <ele>455.209</ele>
        <time>2022-08-24T16:40:30Z</time>
      </trkpt>
      <trkpt lat="42.83521199999993" lon="-1.5897169999999967">
        <ele>455.255</ele>
        <time>2022-08-24T16:40:31Z</time>
      </trkpt>
      <trkpt lat="42.83518299999993" lon="-1.5896319999999968">
        <ele>455.045</ele>
        <time>2022-08-24T16:40:33Z</time>
      </trkpt>
      <trkpt lat="42.83507499999993" lon="-1.5894209999999969">
        <ele>455.075</ele>
        <time>2022-08-24T16:40:38Z</time>
      </trkpt>
      <trkpt lat="42.835059999999935" lon="-1.5893829999999969">
        <ele>455.221</ele>
        <time>2022-08-24T16:40:39Z</time>
      </trkpt>
      <trkpt lat="42.835022999999936" lon="-1.5893329999999968">
        <ele>455.223</ele>
        <time>2022-08-24T16:40:40Z</time>
      </trkpt>
      <trkpt lat="42.834986999999934" lon="-1.5892869999999968">
        <ele>455.210</ele>
        <time>2022-08-24T16:40:42Z</time>
      </trkpt>
      <trkpt lat="42.83493399999993" lon="-1.5891899999999968">
        <ele>455.283</ele>
        <time>2022-08-24T16:40:43Z</time>
      </trkpt>
      <trkpt lat="42.834896999999934" lon="-1.5891079999999969">
        <ele>455.437</ele>
        <time>2022-08-24T16:40:45Z</time>
      </trkpt>
      <trkpt lat="42.83485799999993" lon="-1.5890199999999968">
        <ele>455.256</ele>
        <time>2022-08-24T16:40:47Z</time>
      </trkpt>
      <trkpt lat="42.83483399999993" lon="-1.5889769999999968">
        <ele>455.298</ele>
        <time>2022-08-24T16:40:48Z</time>
      </trkpt>
      <trkpt lat="42.83483399999993" lon="-1.5889769999999968">
        <ele>455.215</ele>
        <time>2022-08-24T16:40:49Z</time>
      </trkpt>
      <trkpt lat="42.83479299999993" lon="-1.5888959999999968">
        <ele>455.226</ele>
        <time>2022-08-24T16:40:50Z</time>
      </trkpt>
      <trkpt lat="42.83479299999993" lon="-1.5888959999999968">
        <ele>455.009</ele>
        <time>2022-08-24T16:40:51Z</time>
      </trkpt>
      <trkpt lat="42.83474699999993" lon="-1.5888229999999968">
        <ele>455.080</ele>
        <time>2022-08-24T16:40:52Z</time>
      </trkpt>
      <trkpt lat="42.83472499999993" lon="-1.5887859999999967">
        <ele>455.030</ele>
        <time>2022-08-24T16:40:53Z</time>
      </trkpt>
      <trkpt lat="42.83469899999993" lon="-1.5887459999999967">
        <ele>455.060</ele>
        <time>2022-08-24T16:40:54Z</time>
      </trkpt>
      <trkpt lat="42.83468099999993" lon="-1.5887209999999967">
        <ele>455.086</ele>
        <time>2022-08-24T16:40:55Z</time>
      </trkpt>
      <trkpt lat="42.83465699999993" lon="-1.5886909999999967">
        <ele>455.068</ele>
        <time>2022-08-24T16:40:56Z</time>
      </trkpt>
      <trkpt lat="42.83463399999993" lon="-1.5886579999999968">
        <ele>455.045</ele>
        <time>2022-08-24T16:40:57Z</time>
      </trkpt>
      <trkpt lat="42.83458499999993" lon="-1.5885779999999967">
        <ele>454.848</ele>
        <time>2022-08-24T16:40:59Z</time>
      </trkpt>
      <trkpt lat="42.834507999999936" lon="-1.5884709999999966">
        <ele>454.822</ele>
        <time>2022-08-24T16:41:02Z</time>
      </trkpt>
      <trkpt lat="42.834378999999934" lon="-1.5883039999999966">
        <ele>454.481</ele>
        <time>2022-08-24T16:41:06Z</time>
      </trkpt>
      <trkpt lat="42.834307999999936" lon="-1.5881819999999967">
        <ele>454.069</ele>
        <time>2022-08-24T16:41:08Z</time>
      </trkpt>
      <trkpt lat="42.834279999999936" lon="-1.5881249999999967">
        <ele>453.804</ele>
        <time>2022-08-24T16:41:09Z</time>
      </trkpt>
      <trkpt lat="42.83425399999994" lon="-1.5880739999999967">
        <ele>453.624</ele>
        <time>2022-08-24T16:41:10Z</time>
      </trkpt>
      <trkpt lat="42.83422799999994" lon="-1.5880229999999966">
        <ele>453.609</ele>
        <time>2022-08-24T16:41:11Z</time>
      </trkpt>
      <trkpt lat="42.83422799999994" lon="-1.5880229999999966">
        <ele>453.487</ele>
        <time>2022-08-24T16:41:12Z</time>
      </trkpt>
      <trkpt lat="42.83420299999994" lon="-1.5879749999999966">
        <ele>453.477</ele>
        <time>2022-08-24T16:41:13Z</time>
      </trkpt>
      <trkpt lat="42.83416399999994" lon="-1.5878929999999967">
        <ele>453.467</ele>
        <time>2022-08-24T16:41:14Z</time>
      </trkpt>
      <trkpt lat="42.83416399999994" lon="-1.5878929999999967">
        <ele>453.433</ele>
        <time>2022-08-24T16:41:15Z</time>
      </trkpt>
      <trkpt lat="42.83414599999994" lon="-1.5878499999999967">
        <ele>453.465</ele>
        <time>2022-08-24T16:41:16Z</time>
      </trkpt>
      <trkpt lat="42.83412399999994" lon="-1.5878069999999966">
        <ele>453.492</ele>
        <time>2022-08-24T16:41:17Z</time>
      </trkpt>
      <trkpt lat="42.834079999999936" lon="-1.5877249999999967">
        <ele>453.435</ele>
        <time>2022-08-24T16:41:18Z</time>
      </trkpt>
      <trkpt lat="42.834060999999934" lon="-1.5876899999999967">
        <ele>453.489</ele>
        <time>2022-08-24T16:41:20Z</time>
      </trkpt>
      <trkpt lat="42.83402599999994" lon="-1.5876189999999968">
        <ele>453.478</ele>
        <time>2022-08-24T16:41:21Z</time>
      </trkpt>
      <trkpt lat="42.83400599999994" lon="-1.5875819999999967">
        <ele>453.466</ele>
        <time>2022-08-24T16:41:22Z</time>
      </trkpt>
      <trkpt lat="42.83398399999994" lon="-1.5875459999999968">
        <ele>453.429</ele>
        <time>2022-08-24T16:41:23Z</time>
      </trkpt>
      <trkpt lat="42.83396999999994" lon="-1.5875199999999967">
        <ele>453.221</ele>
        <time>2022-08-24T16:41:24Z</time>
      </trkpt>
      <trkpt lat="42.833958999999936" lon="-1.5874959999999967">
        <ele>453.209</ele>
        <time>2022-08-24T16:41:25Z</time>
      </trkpt>
      <trkpt lat="42.833947999999936" lon="-1.5874739999999967">
        <ele>453.427</ele>
        <time>2022-08-24T16:41:26Z</time>
      </trkpt>
      <trkpt lat="42.83393599999994" lon="-1.5874539999999968">
        <ele>453.427</ele>
        <time>2022-08-24T16:41:27Z</time>
      </trkpt>
      <trkpt lat="42.833925999999934" lon="-1.5874399999999969">
        <ele>453.457</ele>
        <time>2022-08-24T16:41:28Z</time>
      </trkpt>
      <trkpt lat="42.833911999999934" lon="-1.5874209999999969">
        <ele>453.483</ele>
        <time>2022-08-24T16:41:29Z</time>
      </trkpt>
      <trkpt lat="42.833902999999935" lon="-1.5874019999999969">
        <ele>453.485</ele>
        <time>2022-08-24T16:41:30Z</time>
      </trkpt>
      <trkpt lat="42.833877999999935" lon="-1.587368999999997">
        <ele>453.412</ele>
        <time>2022-08-24T16:41:32Z</time>
      </trkpt>
      <trkpt lat="42.83386799999993" lon="-1.587352999999997">
        <ele>453.225</ele>
        <time>2022-08-24T16:41:37Z</time>
      </trkpt>
      <trkpt lat="42.83382999999993" lon="-1.587306999999997">
        <ele>453.289</ele>
        <time>2022-08-24T16:41:40Z</time>
      </trkpt>
      <trkpt lat="42.83380699999993" lon="-1.587289999999997">
        <ele>453.068</ele>
        <time>2022-08-24T16:41:41Z</time>
      </trkpt>
      <trkpt lat="42.83368899999993" lon="-1.587194999999997">
        <ele>452.685</ele>
        <time>2022-08-24T16:41:45Z</time>
      </trkpt>
      <trkpt lat="42.83360099999993" lon="-1.587062999999997">
        <ele>452.489</ele>
        <time>2022-08-24T16:41:48Z</time>
      </trkpt>
      <trkpt lat="42.83357799999993" lon="-1.587017999999997">
        <ele>452.417</ele>
        <time>2022-08-24T16:41:49Z</time>
      </trkpt>
      <trkpt lat="42.83357799999993" lon="-1.587017999999997">
        <ele>452.209</ele>
        <time>2022-08-24T16:41:50Z</time>
      </trkpt>
      <trkpt lat="42.83349699999993" lon="-1.586873999999997">
        <ele>452.279</ele>
        <time>2022-08-24T16:41:52Z</time>
      </trkpt>
      <trkpt lat="42.83347299999993" lon="-1.586829999999997">
        <ele>452.089</ele>
        <time>2022-08-24T16:41:53Z</time>
      </trkpt>
      <trkpt lat="42.83344999999993" lon="-1.5867889999999971">
        <ele>452.069</ele>
        <time>2022-08-24T16:41:54Z</time>
      </trkpt>
      <trkpt lat="42.83342799999993" lon="-1.586740999999997">
        <ele>452.035</ele>
        <time>2022-08-24T16:41:55Z</time>
      </trkpt>
      <trkpt lat="42.83341099999993" lon="-1.586700999999997">
        <ele>452.057</ele>
        <time>2022-08-24T16:41:56Z</time>
      </trkpt>
      <trkpt lat="42.833394999999925" lon="-1.586664999999997">
        <ele>451.824</ele>
        <time>2022-08-24T16:41:57Z</time>
      </trkpt>
      <trkpt lat="42.833371999999926" lon="-1.586613999999997">
        <ele>451.867</ele>
        <time>2022-08-24T16:41:58Z</time>
      </trkpt>
      <trkpt lat="42.83335399999993" lon="-1.586565999999997">
        <ele>451.861</ele>
        <time>2022-08-24T16:41:59Z</time>
      </trkpt>
      <trkpt lat="42.83334699999993" lon="-1.586523999999997">
        <ele>452.030</ele>
        <time>2022-08-24T16:42:00Z</time>
      </trkpt>
      <trkpt lat="42.83334099999993" lon="-1.586482999999997">
        <ele>452.014</ele>
        <time>2022-08-24T16:42:01Z</time>
      </trkpt>
      <trkpt lat="42.833336999999936" lon="-1.586452999999997">
        <ele>452.054</ele>
        <time>2022-08-24T16:42:02Z</time>
      </trkpt>
      <trkpt lat="42.83333399999994" lon="-1.586423999999997">
        <ele>452.209</ele>
        <time>2022-08-24T16:42:03Z</time>
      </trkpt>
      <trkpt lat="42.833323999999934" lon="-1.586399999999997">
        <ele>452.409</ele>
        <time>2022-08-24T16:42:04Z</time>
      </trkpt>
      <trkpt lat="42.833317999999935" lon="-1.586375999999997">
        <ele>452.672</ele>
        <time>2022-08-24T16:42:05Z</time>
      </trkpt>
      <trkpt lat="42.83329599999993" lon="-1.586355999999997">
        <ele>452.872</ele>
        <time>2022-08-24T16:42:06Z</time>
      </trkpt>
      <trkpt lat="42.833275999999934" lon="-1.586348999999997">
        <ele>453.032</ele>
        <time>2022-08-24T16:42:07Z</time>
      </trkpt>
      <trkpt lat="42.83323499999993" lon="-1.586334999999997">
        <ele>453.438</ele>
        <time>2022-08-24T16:42:09Z</time>
      </trkpt>
      <trkpt lat="42.83321199999993" lon="-1.586329999999997">
        <ele>453.620</ele>
        <time>2022-08-24T16:42:10Z</time>
      </trkpt>
      <trkpt lat="42.83318699999993" lon="-1.586329999999997">
        <ele>453.657</ele>
        <time>2022-08-24T16:42:11Z</time>
      </trkpt>
      <trkpt lat="42.83312799999993" lon="-1.586328999999997">
        <ele>453.840</ele>
        <time>2022-08-24T16:42:13Z</time>
      </trkpt>
      <trkpt lat="42.83310299999993" lon="-1.586323999999997">
        <ele>453.824</ele>
        <time>2022-08-24T16:42:14Z</time>
      </trkpt>
      <trkpt lat="42.83308099999993" lon="-1.586317999999997">
        <ele>453.863</ele>
        <time>2022-08-24T16:42:15Z</time>
      </trkpt>
      <trkpt lat="42.83305799999993" lon="-1.586310999999997">
        <ele>453.847</ele>
        <time>2022-08-24T16:42:16Z</time>
      </trkpt>
      <trkpt lat="42.83303999999993" lon="-1.586302999999997">
        <ele>453.829</ele>
        <time>2022-08-24T16:42:17Z</time>
      </trkpt>
      <trkpt lat="42.83303999999993" lon="-1.586302999999997">
        <ele>453.821</ele>
        <time>2022-08-24T16:42:18Z</time>
      </trkpt>
      <trkpt lat="42.83300699999993" lon="-1.586286999999997">
        <ele>453.609</ele>
        <time>2022-08-24T16:42:19Z</time>
      </trkpt>
      <trkpt lat="42.83298699999993" lon="-1.5862789999999969">
        <ele>453.635</ele>
        <time>2022-08-24T16:42:20Z</time>
      </trkpt>
      <trkpt lat="42.832926999999934" lon="-1.586242999999997">
        <ele>453.445</ele>
        <time>2022-08-24T16:42:24Z</time>
      </trkpt>
      <trkpt lat="42.832821999999936" lon="-1.586184999999997">
        <ele>453.285</ele>
        <time>2022-08-24T16:42:27Z</time>
      </trkpt>
      <trkpt lat="42.832650999999935" lon="-1.5860979999999971">
        <ele>453.061</ele>
        <time>2022-08-24T16:42:33Z</time>
      </trkpt>
      <trkpt lat="42.83261199999993" lon="-1.586095999999997">
        <ele>452.863</ele>
        <time>2022-08-24T16:42:34Z</time>
      </trkpt>
      <trkpt lat="42.83257599999993" lon="-1.586107999999997">
        <ele>452.680</ele>
        <time>2022-08-24T16:42:35Z</time>
      </trkpt>
      <trkpt lat="42.832523999999935" lon="-1.5861659999999969">
        <ele>452.433</ele>
        <time>2022-08-24T16:42:36Z</time>
      </trkpt>
      <trkpt lat="42.832509999999935" lon="-1.5862089999999969">
        <ele>452.287</ele>
        <time>2022-08-24T16:42:37Z</time>
      </trkpt>
      <trkpt lat="42.832509999999935" lon="-1.5862089999999969">
        <ele>452.236</ele>
        <time>2022-08-24T16:42:38Z</time>
      </trkpt>
      <trkpt lat="42.832501999999934" lon="-1.586253999999997">
        <ele>452.045</ele>
        <time>2022-08-24T16:42:39Z</time>
      </trkpt>
      <trkpt lat="42.83249399999993" lon="-1.586337999999997">
        <ele>452.047</ele>
        <time>2022-08-24T16:42:40Z</time>
      </trkpt>
      <trkpt lat="42.83249099999993" lon="-1.586367999999997">
        <ele>451.811</ele>
        <time>2022-08-24T16:42:41Z</time>
      </trkpt>
      <trkpt lat="42.83249099999993" lon="-1.5863799999999968">
        <ele>451.409</ele>
        <time>2022-08-24T16:42:43Z</time>
      </trkpt>
      <trkpt lat="42.83249099999993" lon="-1.5863799999999968">
        <ele>451.285</ele>
        <time>2022-08-24T16:42:44Z</time>
      </trkpt>
      <trkpt lat="42.832475999999936" lon="-1.5863879999999968">
        <ele>451.255</ele>
        <time>2022-08-24T16:42:45Z</time>
      </trkpt>
      <trkpt lat="42.832467999999935" lon="-1.5864079999999967">
        <ele>451.025</ele>
        <time>2022-08-24T16:42:46Z</time>
      </trkpt>
      <trkpt lat="42.832467999999935" lon="-1.5864079999999967">
        <ele>451.071</ele>
        <time>2022-08-24T16:42:47Z</time>
      </trkpt>
      <trkpt lat="42.83245599999994" lon="-1.5864869999999966">
        <ele>450.893</ele>
        <time>2022-08-24T16:42:48Z</time>
      </trkpt>
      <trkpt lat="42.83244899999994" lon="-1.5865399999999967">
        <ele>450.830</ele>
        <time>2022-08-24T16:42:50Z</time>
      </trkpt>
      <trkpt lat="42.83241499999994" lon="-1.5868569999999966">
        <ele>450.693</ele>
        <time>2022-08-24T16:42:55Z</time>
      </trkpt>
      <trkpt lat="42.83240599999994" lon="-1.5869189999999966">
        <ele>450.647</ele>
        <time>2022-08-24T16:42:56Z</time>
      </trkpt>
      <trkpt lat="42.83239299999994" lon="-1.5870299999999966">
        <ele>450.626</ele>
        <time>2022-08-24T16:42:57Z</time>
      </trkpt>
      <trkpt lat="42.83238499999994" lon="-1.5870709999999966">
        <ele>450.466</ele>
        <time>2022-08-24T16:42:58Z</time>
      </trkpt>
      <trkpt lat="42.83238499999994" lon="-1.5870709999999966">
        <ele>450.429</ele>
        <time>2022-08-24T16:42:59Z</time>
      </trkpt>
      <trkpt lat="42.83238199999994" lon="-1.5871059999999966">
        <ele>450.421</ele>
        <time>2022-08-24T16:43:00Z</time>
      </trkpt>
      <trkpt lat="42.832365999999936" lon="-1.5871559999999967">
        <ele>450.209</ele>
        <time>2022-08-24T16:43:01Z</time>
      </trkpt>
      <trkpt lat="42.832363999999934" lon="-1.5871729999999966">
        <ele>450.287</ele>
        <time>2022-08-24T16:43:02Z</time>
      </trkpt>
      <trkpt lat="42.832343999999935" lon="-1.5871489999999966">
        <ele>449.887</ele>
        <time>2022-08-24T16:43:15Z</time>
      </trkpt>
      <trkpt lat="42.832332999999934" lon="-1.5871409999999966">
        <ele>449.857</ele>
        <time>2022-08-24T16:43:16Z</time>
      </trkpt>
      <trkpt lat="42.83231099999993" lon="-1.5871269999999966">
        <ele>449.833</ele>
        <time>2022-08-24T16:43:17Z</time>
      </trkpt>
      <trkpt lat="42.832309999999936" lon="-1.5871109999999966">
        <ele>449.825</ele>
        <time>2022-08-24T16:43:18Z</time>
      </trkpt>
      <trkpt lat="42.832315999999935" lon="-1.5870859999999967">
        <ele>449.842</ele>
        <time>2022-08-24T16:43:19Z</time>
      </trkpt>
      <trkpt lat="42.832320999999936" lon="-1.5870529999999967">
        <ele>449.895</ele>
        <time>2022-08-24T16:43:21Z</time>
      </trkpt>
      <trkpt lat="42.83233699999994" lon="-1.5869949999999968">
        <ele>449.879</ele>
        <time>2022-08-24T16:43:22Z</time>
      </trkpt>
      <trkpt lat="42.83233899999994" lon="-1.5869759999999968">
        <ele>449.868</ele>
        <time>2022-08-24T16:43:23Z</time>
      </trkpt>
      <trkpt lat="42.83233899999994" lon="-1.5869649999999969">
        <ele>449.897</ele>
        <time>2022-08-24T16:43:24Z</time>
      </trkpt>
      <trkpt lat="42.83233899999994" lon="-1.5869649999999969">
        <ele>449.823</ele>
        <time>2022-08-24T16:43:25Z</time>
      </trkpt>
      <trkpt lat="42.83233799999994" lon="-1.5869579999999968">
        <ele>449.825</ele>
        <time>2022-08-24T16:43:26Z</time>
      </trkpt>
      <trkpt lat="42.83233799999994" lon="-1.5869579999999968">
        <ele>449.809</ele>
        <time>2022-08-24T16:43:27Z</time>
      </trkpt>
      <trkpt lat="42.83232399999994" lon="-1.5869529999999967">
        <ele>449.880</ele>
        <time>2022-08-24T16:43:28Z</time>
      </trkpt>
      <trkpt lat="42.83232399999994" lon="-1.5869529999999967">
        <ele>449.830</ele>
        <time>2022-08-24T16:43:29Z</time>
      </trkpt>
      <trkpt lat="42.832289999999944" lon="-1.5869319999999967">
        <ele>449.810</ele>
        <time>2022-08-24T16:43:30Z</time>
      </trkpt>
      <trkpt lat="42.832289999999944" lon="-1.5869319999999967">
        <ele>449.656</ele>
        <time>2022-08-24T16:43:31Z</time>
      </trkpt>
      <trkpt lat="42.83216099999994" lon="-1.5868559999999967">
        <ele>449.678</ele>
        <time>2022-08-24T16:43:33Z</time>
      </trkpt>
      <trkpt lat="42.83211599999994" lon="-1.5868249999999968">
        <ele>449.245</ele>
        <time>2022-08-24T16:43:34Z</time>
      </trkpt>
      <trkpt lat="42.83207499999994" lon="-1.5867929999999968">
        <ele>449.258</ele>
        <time>2022-08-24T16:43:35Z</time>
      </trkpt>
      <trkpt lat="42.83207499999994" lon="-1.5867929999999968">
        <ele>448.852</ele>
        <time>2022-08-24T16:43:36Z</time>
      </trkpt>
      <trkpt lat="42.83203599999994" lon="-1.586761999999997">
        <ele>448.641</ele>
        <time>2022-08-24T16:43:37Z</time>
      </trkpt>
      <trkpt lat="42.83196599999994" lon="-1.5867089999999968">
        <ele>448.464</ele>
        <time>2022-08-24T16:43:38Z</time>
      </trkpt>
      <trkpt lat="42.831910999999934" lon="-1.5866599999999969">
        <ele>448.206</ele>
        <time>2022-08-24T16:43:40Z</time>
      </trkpt>
      <trkpt lat="42.831910999999934" lon="-1.5866599999999969">
        <ele>448.016</ele>
        <time>2022-08-24T16:43:41Z</time>
      </trkpt>
      <trkpt lat="42.83187599999994" lon="-1.5866339999999968">
        <ele>447.809</ele>
        <time>2022-08-24T16:43:42Z</time>
      </trkpt>
      <trkpt lat="42.83181999999994" lon="-1.5865909999999968">
        <ele>447.887</ele>
        <time>2022-08-24T16:43:43Z</time>
      </trkpt>
      <trkpt lat="42.83178599999994" lon="-1.5865699999999967">
        <ele>447.637</ele>
        <time>2022-08-24T16:43:44Z</time>
      </trkpt>
      <trkpt lat="42.83172399999994" lon="-1.5865299999999967">
        <ele>447.637</ele>
        <time>2022-08-24T16:43:46Z</time>
      </trkpt>
      <trkpt lat="42.83169199999994" lon="-1.5865059999999966">
        <ele>447.623</ele>
        <time>2022-08-24T16:43:48Z</time>
      </trkpt>
      <trkpt lat="42.83162799999994" lon="-1.5864609999999966">
        <ele>447.425</ele>
        <time>2022-08-24T16:43:50Z</time>
      </trkpt>
      <trkpt lat="42.83156799999994" lon="-1.5864109999999965">
        <ele>447.632</ele>
        <time>2022-08-24T16:43:51Z</time>
      </trkpt>
      <trkpt lat="42.83153199999994" lon="-1.5863839999999965">
        <ele>447.415</ele>
        <time>2022-08-24T16:43:53Z</time>
      </trkpt>
      <trkpt lat="42.83143799999994" lon="-1.5863269999999965">
        <ele>447.489</ele>
        <time>2022-08-24T16:43:54Z</time>
      </trkpt>
      <trkpt lat="42.83121299999994" lon="-1.5861909999999966">
        <ele>447.078</ele>
        <time>2022-08-24T16:43:59Z</time>
      </trkpt>
      <trkpt lat="42.83116499999994" lon="-1.5861669999999966">
        <ele>446.884</ele>
        <time>2022-08-24T16:44:00Z</time>
      </trkpt>
      <trkpt lat="42.831121999999944" lon="-1.5861479999999966">
        <ele>446.807</ele>
        <time>2022-08-24T16:44:01Z</time>
      </trkpt>
      <trkpt lat="42.83107799999994" lon="-1.5861299999999965">
        <ele>446.617</ele>
        <time>2022-08-24T16:44:02Z</time>
      </trkpt>
      <trkpt lat="42.83107799999994" lon="-1.5861299999999965">
        <ele>446.609</ele>
        <time>2022-08-24T16:44:03Z</time>
      </trkpt>
      <trkpt lat="42.83081899999994" lon="-1.5860189999999965">
        <ele>446.629</ele>
        <time>2022-08-24T16:44:09Z</time>
      </trkpt>
      <trkpt lat="42.83074399999994" lon="-1.5859979999999965">
        <ele>446.679</ele>
        <time>2022-08-24T16:44:10Z</time>
      </trkpt>
      <trkpt lat="42.83070799999994" lon="-1.5859879999999964">
        <ele>446.659</ele>
        <time>2022-08-24T16:44:11Z</time>
      </trkpt>
      <trkpt lat="42.83066799999994" lon="-1.5859749999999964">
        <ele>446.635</ele>
        <time>2022-08-24T16:44:13Z</time>
      </trkpt>
      <trkpt lat="42.83050799999994" lon="-1.5859149999999964">
        <ele>446.697</ele>
        <time>2022-08-24T16:44:16Z</time>
      </trkpt>
      <trkpt lat="42.83050799999994" lon="-1.5859149999999964">
        <ele>446.674</ele>
        <time>2022-08-24T16:44:17Z</time>
      </trkpt>
      <trkpt lat="42.830438999999934" lon="-1.5858859999999964">
        <ele>446.687</ele>
        <time>2022-08-24T16:44:18Z</time>
      </trkpt>
      <trkpt lat="42.830373999999935" lon="-1.5858579999999964">
        <ele>446.621</ele>
        <time>2022-08-24T16:44:20Z</time>
      </trkpt>
      <trkpt lat="42.830216999999934" lon="-1.5858199999999965">
        <ele>446.610</ele>
        <time>2022-08-24T16:44:25Z</time>
      </trkpt>
      <trkpt lat="42.830140999999934" lon="-1.5857939999999964">
        <ele>446.627</ele>
        <time>2022-08-24T16:44:26Z</time>
      </trkpt>
      <trkpt lat="42.830106999999934" lon="-1.5857839999999963">
        <ele>446.668</ele>
        <time>2022-08-24T16:44:27Z</time>
      </trkpt>
      <trkpt lat="42.83007399999993" lon="-1.5857679999999963">
        <ele>446.614</ele>
        <time>2022-08-24T16:44:28Z</time>
      </trkpt>
      <trkpt lat="42.82996999999993" lon="-1.5857079999999963">
        <ele>446.609</ele>
        <time>2022-08-24T16:44:31Z</time>
      </trkpt>
      <trkpt lat="42.82993699999993" lon="-1.5856919999999963">
        <ele>446.633</ele>
        <time>2022-08-24T16:44:32Z</time>
      </trkpt>
      <trkpt lat="42.82990299999993" lon="-1.5856789999999963">
        <ele>446.663</ele>
        <time>2022-08-24T16:44:33Z</time>
      </trkpt>
      <trkpt lat="42.82990299999993" lon="-1.5856789999999963">
        <ele>446.613</ele>
        <time>2022-08-24T16:44:34Z</time>
      </trkpt>
      <trkpt lat="42.82980699999993" lon="-1.5856419999999962">
        <ele>446.629</ele>
        <time>2022-08-24T16:44:36Z</time>
      </trkpt>
      <trkpt lat="42.82971999999993" lon="-1.5856219999999963">
        <ele>446.621</ele>
        <time>2022-08-24T16:44:38Z</time>
      </trkpt>
      <trkpt lat="42.82964099999993" lon="-1.5855899999999963">
        <ele>446.648</ele>
        <time>2022-08-24T16:44:40Z</time>
      </trkpt>
      <trkpt lat="42.829605999999934" lon="-1.5855769999999962">
        <ele>446.681</ele>
        <time>2022-08-24T16:44:41Z</time>
      </trkpt>
      <trkpt lat="42.82956199999993" lon="-1.5855619999999961">
        <ele>446.645</ele>
        <time>2022-08-24T16:44:42Z</time>
      </trkpt>
      <trkpt lat="42.82951699999993" lon="-1.5855479999999962">
        <ele>446.664</ele>
        <time>2022-08-24T16:44:43Z</time>
      </trkpt>
      <trkpt lat="42.82942399999993" lon="-1.5855269999999961">
        <ele>446.479</ele>
        <time>2022-08-24T16:44:46Z</time>
      </trkpt>
      <trkpt lat="42.82932399999993" lon="-1.5855149999999962">
        <ele>446.405</ele>
        <time>2022-08-24T16:44:47Z</time>
      </trkpt>
      <trkpt lat="42.82921899999993" lon="-1.5855249999999963">
        <ele>446.225</ele>
        <time>2022-08-24T16:44:49Z</time>
      </trkpt>
      <trkpt lat="42.82921899999993" lon="-1.5855249999999963">
        <ele>446.209</ele>
        <time>2022-08-24T16:44:50Z</time>
      </trkpt>
      <trkpt lat="42.829155999999934" lon="-1.5855249999999963">
        <ele>446.238</ele>
        <time>2022-08-24T16:44:51Z</time>
      </trkpt>
      <trkpt lat="42.829067999999936" lon="-1.5855249999999963">
        <ele>446.228</ele>
        <time>2022-08-24T16:44:52Z</time>
      </trkpt>
      <trkpt lat="42.829025999999935" lon="-1.5855319999999964">
        <ele>446.068</ele>
        <time>2022-08-24T16:44:53Z</time>
      </trkpt>
      <trkpt lat="42.829025999999935" lon="-1.5855319999999964">
        <ele>446.024</ele>
        <time>2022-08-24T16:44:54Z</time>
      </trkpt>
      <trkpt lat="42.828955999999934" lon="-1.5855639999999964">
        <ele>446.046</ele>
        <time>2022-08-24T16:44:55Z</time>
      </trkpt>
      <trkpt lat="42.828955999999934" lon="-1.5855639999999964">
        <ele>445.853</ele>
        <time>2022-08-24T16:44:56Z</time>
      </trkpt>
      <trkpt lat="42.82883099999994" lon="-1.5855999999999963">
        <ele>445.836</ele>
        <time>2022-08-24T16:44:58Z</time>
      </trkpt>
      <trkpt lat="42.82874099999994" lon="-1.5856499999999965">
        <ele>445.670</ele>
        <time>2022-08-24T16:45:00Z</time>
      </trkpt>
      <trkpt lat="42.82848499999994" lon="-1.5857529999999964">
        <ele>445.289</ele>
        <time>2022-08-24T16:45:05Z</time>
      </trkpt>
      <trkpt lat="42.82834099999994" lon="-1.5858089999999965">
        <ele>445.051</ele>
        <time>2022-08-24T16:45:08Z</time>
      </trkpt>
      <trkpt lat="42.828293999999936" lon="-1.5858259999999964">
        <ele>445.001</ele>
        <time>2022-08-24T16:45:09Z</time>
      </trkpt>
      <trkpt lat="42.82808499999994" lon="-1.5858929999999964">
        <ele>445.011</ele>
        <time>2022-08-24T16:45:13Z</time>
      </trkpt>
      <trkpt lat="42.828031999999936" lon="-1.5859079999999965">
        <ele>445.009</ele>
        <time>2022-08-24T16:45:14Z</time>
      </trkpt>
      <trkpt lat="42.82798099999994" lon="-1.5859239999999966">
        <ele>445.096</ele>
        <time>2022-08-24T16:45:15Z</time>
      </trkpt>
      <trkpt lat="42.82792899999994" lon="-1.5859369999999966">
        <ele>445.036</ele>
        <time>2022-08-24T16:45:16Z</time>
      </trkpt>
      <trkpt lat="42.82788399999994" lon="-1.5859529999999966">
        <ele>444.826</ele>
        <time>2022-08-24T16:45:17Z</time>
      </trkpt>
      <trkpt lat="42.82774099999994" lon="-1.5860299999999967">
        <ele>444.652</ele>
        <time>2022-08-24T16:45:20Z</time>
      </trkpt>
      <trkpt lat="42.82769099999994" lon="-1.5860579999999966">
        <ele>444.644</ele>
        <time>2022-08-24T16:45:21Z</time>
      </trkpt>
      <trkpt lat="42.82764299999994" lon="-1.5860849999999966">
        <ele>444.651</ele>
        <time>2022-08-24T16:45:22Z</time>
      </trkpt>
      <trkpt lat="42.827595999999936" lon="-1.5861089999999967">
        <ele>444.694</ele>
        <time>2022-08-24T16:45:23Z</time>
      </trkpt>
      <trkpt lat="42.82733399999994" lon="-1.5862309999999966">
        <ele>444.458</ele>
        <time>2022-08-24T16:45:28Z</time>
      </trkpt>
      <trkpt lat="42.827229999999936" lon="-1.5862779999999965">
        <ele>444.677</ele>
        <time>2022-08-24T16:45:30Z</time>
      </trkpt>
      <trkpt lat="42.827187999999936" lon="-1.5862969999999965">
        <ele>444.647</ele>
        <time>2022-08-24T16:45:31Z</time>
      </trkpt>
      <trkpt lat="42.82708499999993" lon="-1.5863489999999965">
        <ele>444.629</ele>
        <time>2022-08-24T16:45:33Z</time>
      </trkpt>
      <trkpt lat="42.827032999999936" lon="-1.5863789999999964">
        <ele>444.621</ele>
        <time>2022-08-24T16:45:34Z</time>
      </trkpt>
      <trkpt lat="42.826985999999934" lon="-1.5864129999999965">
        <ele>444.609</ele>
        <time>2022-08-24T16:45:35Z</time>
      </trkpt>
      <trkpt lat="42.82694199999993" lon="-1.5864499999999966">
        <ele>444.615</ele>
        <time>2022-08-24T16:45:36Z</time>
      </trkpt>
      <trkpt lat="42.82689899999993" lon="-1.5864839999999967">
        <ele>444.625</ele>
        <time>2022-08-24T16:45:37Z</time>
      </trkpt>
      <trkpt lat="42.82685999999993" lon="-1.5865169999999966">
        <ele>444.655</ele>
        <time>2022-08-24T16:45:38Z</time>
      </trkpt>
      <trkpt lat="42.82682199999993" lon="-1.5865459999999967">
        <ele>444.691</ele>
        <time>2022-08-24T16:45:39Z</time>
      </trkpt>
      <trkpt lat="42.82678199999993" lon="-1.5865669999999967">
        <ele>444.653</ele>
        <time>2022-08-24T16:45:40Z</time>
      </trkpt>
      <trkpt lat="42.82674199999993" lon="-1.5865869999999966">
        <ele>444.630</ele>
        <time>2022-08-24T16:45:41Z</time>
      </trkpt>
      <trkpt lat="42.82670599999993" lon="-1.5866119999999966">
        <ele>444.673</ele>
        <time>2022-08-24T16:45:42Z</time>
      </trkpt>
      <trkpt lat="42.82666899999993" lon="-1.5866409999999966">
        <ele>444.667</ele>
        <time>2022-08-24T16:45:43Z</time>
      </trkpt>
      <trkpt lat="42.82663199999993" lon="-1.5866729999999967">
        <ele>444.656</ele>
        <time>2022-08-24T16:45:44Z</time>
      </trkpt>
      <trkpt lat="42.82656799999993" lon="-1.5867399999999967">
        <ele>444.483</ele>
        <time>2022-08-24T16:45:46Z</time>
      </trkpt>
      <trkpt lat="42.82652999999993" lon="-1.5868459999999966">
        <ele>444.225</ele>
        <time>2022-08-24T16:45:48Z</time>
      </trkpt>
      <trkpt lat="42.826516999999924" lon="-1.5868989999999967">
        <ele>444.217</ele>
        <time>2022-08-24T16:45:49Z</time>
      </trkpt>
      <trkpt lat="42.82650899999992" lon="-1.5869539999999966">
        <ele>444.009</ele>
        <time>2022-08-24T16:45:50Z</time>
      </trkpt>
      <trkpt lat="42.826504999999926" lon="-1.5870099999999967">
        <ele>444.039</ele>
        <time>2022-08-24T16:45:51Z</time>
      </trkpt>
      <trkpt lat="42.826499999999925" lon="-1.5870669999999967">
        <ele>444.049</ele>
        <time>2022-08-24T16:45:52Z</time>
      </trkpt>
      <trkpt lat="42.826491999999924" lon="-1.5871189999999966">
        <ele>444.049</ele>
        <time>2022-08-24T16:45:53Z</time>
      </trkpt>
      <trkpt lat="42.82648799999993" lon="-1.5871709999999966">
        <ele>443.875</ele>
        <time>2022-08-24T16:45:54Z</time>
      </trkpt>
      <trkpt lat="42.82648199999993" lon="-1.5872209999999967">
        <ele>443.857</ele>
        <time>2022-08-24T16:45:55Z</time>
      </trkpt>
      <trkpt lat="42.826476999999926" lon="-1.5872729999999966">
        <ele>443.834</ele>
        <time>2022-08-24T16:45:56Z</time>
      </trkpt>
      <trkpt lat="42.826471999999924" lon="-1.5873199999999965">
        <ele>443.857</ele>
        <time>2022-08-24T16:45:57Z</time>
      </trkpt>
      <trkpt lat="42.826459999999926" lon="-1.5875279999999965">
        <ele>443.831</ele>
        <time>2022-08-24T16:46:01Z</time>
      </trkpt>
      <trkpt lat="42.826451999999925" lon="-1.5875769999999965">
        <ele>443.820</ele>
        <time>2022-08-24T16:46:02Z</time>
      </trkpt>
      <trkpt lat="42.826440999999924" lon="-1.5876229999999965">
        <ele>444.032</ele>
        <time>2022-08-24T16:46:03Z</time>
      </trkpt>
      <trkpt lat="42.82642799999992" lon="-1.5876669999999964">
        <ele>444.092</ele>
        <time>2022-08-24T16:46:04Z</time>
      </trkpt>
      <trkpt lat="42.826415999999924" lon="-1.5877109999999963">
        <ele>444.011</ele>
        <time>2022-08-24T16:46:05Z</time>
      </trkpt>
      <trkpt lat="42.82640299999992" lon="-1.5877509999999964">
        <ele>444.009</ele>
        <time>2022-08-24T16:46:06Z</time>
      </trkpt>
      <trkpt lat="42.82638799999992" lon="-1.5877879999999964">
        <ele>444.024</ele>
        <time>2022-08-24T16:46:07Z</time>
      </trkpt>
      <trkpt lat="42.82637499999992" lon="-1.5878239999999963">
        <ele>444.084</ele>
        <time>2022-08-24T16:46:08Z</time>
      </trkpt>
      <trkpt lat="42.82636399999992" lon="-1.5878619999999963">
        <ele>444.044</ele>
        <time>2022-08-24T16:46:09Z</time>
      </trkpt>
      <trkpt lat="42.82635299999992" lon="-1.5878959999999964">
        <ele>444.070</ele>
        <time>2022-08-24T16:46:10Z</time>
      </trkpt>
      <trkpt lat="42.82634199999992" lon="-1.5879289999999964">
        <ele>444.032</ele>
        <time>2022-08-24T16:46:11Z</time>
      </trkpt>
      <trkpt lat="42.82632099999992" lon="-1.5879979999999965">
        <ele>444.099</ele>
        <time>2022-08-24T16:46:13Z</time>
      </trkpt>
      <trkpt lat="42.82630699999992" lon="-1.5880289999999964">
        <ele>444.022</ele>
        <time>2022-08-24T16:46:14Z</time>
      </trkpt>
      <trkpt lat="42.826209999999925" lon="-1.5882259999999964">
        <ele>444.026</ele>
        <time>2022-08-24T16:46:20Z</time>
      </trkpt>
      <trkpt lat="42.82618299999992" lon="-1.5882899999999964">
        <ele>443.825</ele>
        <time>2022-08-24T16:46:22Z</time>
      </trkpt>
      <trkpt lat="42.826167999999925" lon="-1.5883159999999965">
        <ele>443.884</ele>
        <time>2022-08-24T16:46:23Z</time>
      </trkpt>
      <trkpt lat="42.82614999999993" lon="-1.5883439999999964">
        <ele>443.807</ele>
        <time>2022-08-24T16:46:24Z</time>
      </trkpt>
      <trkpt lat="42.82613299999993" lon="-1.5883699999999965">
        <ele>443.617</ele>
        <time>2022-08-24T16:46:25Z</time>
      </trkpt>
      <trkpt lat="42.826116999999925" lon="-1.5883959999999966">
        <ele>443.609</ele>
        <time>2022-08-24T16:46:26Z</time>
      </trkpt>
      <trkpt lat="42.82607399999993" lon="-1.5884789999999966">
        <ele>443.669</ele>
        <time>2022-08-24T16:46:29Z</time>
      </trkpt>
      <trkpt lat="42.826065999999926" lon="-1.5884929999999966">
        <ele>443.659</ele>
        <time>2022-08-24T16:46:30Z</time>
      </trkpt>
      <trkpt lat="42.82606199999993" lon="-1.5884999999999967">
        <ele>443.099</ele>
        <time>2022-08-24T16:48:33Z</time>
      </trkpt>
      <trkpt lat="42.82599699999993" lon="-1.5886229999999968">
        <ele>443.045</ele>
        <time>2022-08-24T16:48:38Z</time>
      </trkpt>
      <trkpt lat="42.82591099999993" lon="-1.5888119999999968">
        <ele>443.037</ele>
        <time>2022-08-24T16:48:43Z</time>
      </trkpt>
      <trkpt lat="42.825899999999926" lon="-1.5888489999999968">
        <ele>443.044</ele>
        <time>2022-08-24T16:48:44Z</time>
      </trkpt>
      <trkpt lat="42.82588499999993" lon="-1.588882999999997">
        <ele>443.067</ele>
        <time>2022-08-24T16:48:45Z</time>
      </trkpt>
      <trkpt lat="42.82586499999993" lon="-1.588916999999997">
        <ele>443.051</ele>
        <time>2022-08-24T16:48:46Z</time>
      </trkpt>
      <trkpt lat="42.82583899999993" lon="-1.588941999999997">
        <ele>443.210</ele>
        <time>2022-08-24T16:48:47Z</time>
      </trkpt>
      <trkpt lat="42.82581499999993" lon="-1.588963999999997">
        <ele>443.283</ele>
        <time>2022-08-24T16:48:48Z</time>
      </trkpt>
      <trkpt lat="42.825790999999924" lon="-1.588978999999997">
        <ele>443.225</ele>
        <time>2022-08-24T16:48:49Z</time>
      </trkpt>
      <trkpt lat="42.82576399999992" lon="-1.588990999999997">
        <ele>443.217</ele>
        <time>2022-08-24T16:48:50Z</time>
      </trkpt>
      <trkpt lat="42.825731999999924" lon="-1.589000999999997">
        <ele>443.209</ele>
        <time>2022-08-24T16:48:51Z</time>
      </trkpt>
      <trkpt lat="42.825697999999925" lon="-1.589015999999997">
        <ele>443.429</ele>
        <time>2022-08-24T16:48:52Z</time>
      </trkpt>
      <trkpt lat="42.825660999999926" lon="-1.5890339999999972">
        <ele>443.429</ele>
        <time>2022-08-24T16:48:53Z</time>
      </trkpt>
      <trkpt lat="42.825587999999925" lon="-1.5890639999999971">
        <ele>443.479</ele>
        <time>2022-08-24T16:48:55Z</time>
      </trkpt>
      <trkpt lat="42.825550999999926" lon="-1.589072999999997">
        <ele>443.425</ele>
        <time>2022-08-24T16:48:56Z</time>
      </trkpt>
      <trkpt lat="42.82551599999993" lon="-1.589083999999997">
        <ele>443.457</ele>
        <time>2022-08-24T16:48:57Z</time>
      </trkpt>
      <trkpt lat="42.82548499999993" lon="-1.5890989999999972">
        <ele>443.494</ele>
        <time>2022-08-24T16:48:58Z</time>
      </trkpt>
      <trkpt lat="42.82545199999993" lon="-1.5891179999999971">
        <ele>443.457</ele>
        <time>2022-08-24T16:48:59Z</time>
      </trkpt>
      <trkpt lat="42.82529899999993" lon="-1.5891929999999972">
        <ele>443.261</ele>
        <time>2022-08-24T16:49:03Z</time>
      </trkpt>
      <trkpt lat="42.82526199999993" lon="-1.5892099999999971">
        <ele>443.210</ele>
        <time>2022-08-24T16:49:04Z</time>
      </trkpt>
      <trkpt lat="42.82519099999993" lon="-1.589242999999997">
        <ele>443.288</ele>
        <time>2022-08-24T16:49:06Z</time>
      </trkpt>
      <trkpt lat="42.82515799999993" lon="-1.589261999999997">
        <ele>443.224</ele>
        <time>2022-08-24T16:49:07Z</time>
      </trkpt>
      <trkpt lat="42.82512899999993" lon="-1.5892879999999971">
        <ele>443.226</ele>
        <time>2022-08-24T16:49:08Z</time>
      </trkpt>
      <trkpt lat="42.825105999999934" lon="-1.5893219999999972">
        <ele>443.009</ele>
        <time>2022-08-24T16:49:09Z</time>
      </trkpt>
      <trkpt lat="42.82508999999993" lon="-1.5893609999999971">
        <ele>443.069</ele>
        <time>2022-08-24T16:49:10Z</time>
      </trkpt>
      <trkpt lat="42.82507599999993" lon="-1.589401999999997">
        <ele>443.019</ele>
        <time>2022-08-24T16:49:11Z</time>
      </trkpt>
      <trkpt lat="42.82506299999993" lon="-1.5894419999999971">
        <ele>442.839</ele>
        <time>2022-08-24T16:49:12Z</time>
      </trkpt>
      <trkpt lat="42.82504399999993" lon="-1.5894839999999972">
        <ele>442.815</ele>
        <time>2022-08-24T16:49:13Z</time>
      </trkpt>
      <trkpt lat="42.82502299999993" lon="-1.5895249999999972">
        <ele>442.887</ele>
        <time>2022-08-24T16:49:14Z</time>
      </trkpt>
      <trkpt lat="42.82498999999993" lon="-1.589609999999997">
        <ele>442.664</ele>
        <time>2022-08-24T16:49:16Z</time>
      </trkpt>
      <trkpt lat="42.824973999999926" lon="-1.589652999999997">
        <ele>442.647</ele>
        <time>2022-08-24T16:49:17Z</time>
      </trkpt>
      <trkpt lat="42.82495699999993" lon="-1.589688999999997">
        <ele>442.651</ele>
        <time>2022-08-24T16:49:18Z</time>
      </trkpt>
      <trkpt lat="42.82493899999993" lon="-1.589716999999997">
        <ele>442.630</ele>
        <time>2022-08-24T16:49:19Z</time>
      </trkpt>
      <trkpt lat="42.82492399999993" lon="-1.589739999999997">
        <ele>442.653</ele>
        <time>2022-08-24T16:49:20Z</time>
      </trkpt>
      <trkpt lat="42.824908999999934" lon="-1.589753999999997">
        <ele>442.604</ele>
        <time>2022-08-24T16:49:21Z</time>
      </trkpt>
      <trkpt lat="42.82489399999994" lon="-1.589761999999997">
        <ele>442.614</ele>
        <time>2022-08-24T16:49:22Z</time>
      </trkpt>
      <trkpt lat="42.82487699999994" lon="-1.589764999999997">
        <ele>442.409</ele>
        <time>2022-08-24T16:49:23Z</time>
      </trkpt>
      <trkpt lat="42.824860999999935" lon="-1.589759999999997">
        <ele>442.436</ele>
        <time>2022-08-24T16:49:24Z</time>
      </trkpt>
      <trkpt lat="42.824837999999936" lon="-1.5897369999999968">
        <ele>442.496</ele>
        <time>2022-08-24T16:49:26Z</time>
      </trkpt>
      <trkpt lat="42.824823999999936" lon="-1.5897269999999968">
        <ele>442.476</ele>
        <time>2022-08-24T16:49:27Z</time>
      </trkpt>
      <trkpt lat="42.82480899999994" lon="-1.5897179999999969">
        <ele>442.452</ele>
        <time>2022-08-24T16:49:28Z</time>
      </trkpt>
      <trkpt lat="42.82477299999994" lon="-1.5896969999999968">
        <ele>442.434</ele>
        <time>2022-08-24T16:49:30Z</time>
      </trkpt>
      <trkpt lat="42.82475599999994" lon="-1.5896889999999968">
        <ele>442.471</ele>
        <time>2022-08-24T16:49:31Z</time>
      </trkpt>
      <trkpt lat="42.824727999999936" lon="-1.5896679999999968">
        <ele>442.464</ele>
        <time>2022-08-24T16:49:33Z</time>
      </trkpt>
      <trkpt lat="42.82471899999994" lon="-1.5896529999999967">
        <ele>442.468</ele>
        <time>2022-08-24T16:49:34Z</time>
      </trkpt>
      <trkpt lat="42.82473299999994" lon="-1.5896109999999966">
        <ele>442.657</ele>
        <time>2022-08-24T16:49:37Z</time>
      </trkpt>
      <trkpt lat="42.82474199999994" lon="-1.5896069999999967">
        <ele>442.863</ele>
        <time>2022-08-24T16:49:38Z</time>
      </trkpt>
      <trkpt lat="42.82475199999994" lon="-1.5896099999999966">
        <ele>442.844</ele>
        <time>2022-08-24T16:49:39Z</time>
      </trkpt>
      <trkpt lat="42.82480299999994" lon="-1.5896839999999965">
        <ele>442.618</ele>
        <time>2022-08-24T16:49:43Z</time>
      </trkpt>
      <trkpt lat="42.82483699999994" lon="-1.5897219999999965">
        <ele>442.609</ele>
        <time>2022-08-24T16:49:45Z</time>
      </trkpt>
      <trkpt lat="42.82485099999994" lon="-1.5897429999999966">
        <ele>442.457</ele>
        <time>2022-08-24T16:49:46Z</time>
      </trkpt>
      <trkpt lat="42.82485999999994" lon="-1.5897649999999965">
        <ele>442.447</ele>
        <time>2022-08-24T16:49:47Z</time>
      </trkpt>
      <trkpt lat="42.82486499999994" lon="-1.5897879999999966">
        <ele>442.477</ele>
        <time>2022-08-24T16:49:48Z</time>
      </trkpt>
      <trkpt lat="42.82486399999994" lon="-1.5898149999999966">
        <ele>442.283</ele>
        <time>2022-08-24T16:49:49Z</time>
      </trkpt>
      <trkpt lat="42.82485599999994" lon="-1.5900179999999966">
        <ele>442.225</ele>
        <time>2022-08-24T16:49:54Z</time>
      </trkpt>
      <trkpt lat="42.82482199999994" lon="-1.5902379999999967">
        <ele>442.452</ele>
        <time>2022-08-24T16:49:59Z</time>
      </trkpt>
      <trkpt lat="42.82481399999994" lon="-1.5902809999999967">
        <ele>442.245</ele>
        <time>2022-08-24T16:50:00Z</time>
      </trkpt>
      <trkpt lat="42.82480799999994" lon="-1.5903799999999968">
        <ele>442.239</ele>
        <time>2022-08-24T16:50:02Z</time>
      </trkpt>
      <trkpt lat="42.82480299999994" lon="-1.5905249999999969">
        <ele>442.078</ele>
        <time>2022-08-24T16:50:05Z</time>
      </trkpt>
      <trkpt lat="42.82480899999994" lon="-1.5905689999999968">
        <ele>442.048</ele>
        <time>2022-08-24T16:50:06Z</time>
      </trkpt>
      <trkpt lat="42.82481699999994" lon="-1.5906089999999968">
        <ele>442.061</ele>
        <time>2022-08-24T16:50:07Z</time>
      </trkpt>
      <trkpt lat="42.82482599999994" lon="-1.5906469999999968">
        <ele>442.017</ele>
        <time>2022-08-24T16:50:08Z</time>
      </trkpt>
      <trkpt lat="42.82483699999994" lon="-1.5906849999999968">
        <ele>442.009</ele>
        <time>2022-08-24T16:50:09Z</time>
      </trkpt>
      <trkpt lat="42.82484599999994" lon="-1.5907199999999968">
        <ele>442.075</ele>
        <time>2022-08-24T16:50:10Z</time>
      </trkpt>
      <trkpt lat="42.824894999999934" lon="-1.5908529999999967">
        <ele>441.825</ele>
        <time>2022-08-24T16:50:14Z</time>
      </trkpt>
      <trkpt lat="42.82492099999993" lon="-1.5909069999999967">
        <ele>441.885</ele>
        <time>2022-08-24T16:50:16Z</time>
      </trkpt>
      <trkpt lat="42.82494899999993" lon="-1.5909379999999966">
        <ele>441.611</ele>
        <time>2022-08-24T16:50:17Z</time>
      </trkpt>
      <trkpt lat="42.824975999999936" lon="-1.5909619999999967">
        <ele>441.613</ele>
        <time>2022-08-24T16:50:18Z</time>
      </trkpt>
      <trkpt lat="42.825001999999934" lon="-1.5909829999999967">
        <ele>441.640</ele>
        <time>2022-08-24T16:50:19Z</time>
      </trkpt>
      <trkpt lat="42.82503899999993" lon="-1.5910079999999966">
        <ele>441.683</ele>
        <time>2022-08-24T16:50:20Z</time>
      </trkpt>
      <trkpt lat="42.825077999999934" lon="-1.5910349999999966">
        <ele>441.657</ele>
        <time>2022-08-24T16:50:21Z</time>
      </trkpt>
      <trkpt lat="42.82512999999993" lon="-1.5910699999999967">
        <ele>441.496</ele>
        <time>2022-08-24T16:50:23Z</time>
      </trkpt>
      <trkpt lat="42.82519499999993" lon="-1.5911079999999966">
        <ele>441.451</ele>
        <time>2022-08-24T16:50:25Z</time>
      </trkpt>
      <trkpt lat="42.82528999999993" lon="-1.5911389999999965">
        <ele>441.201</ele>
        <time>2022-08-24T16:50:27Z</time>
      </trkpt>
      <trkpt lat="42.82536799999993" lon="-1.5911629999999966">
        <ele>441.211</ele>
        <time>2022-08-24T16:50:29Z</time>
      </trkpt>
      <trkpt lat="42.82544499999993" lon="-1.5911499999999965">
        <ele>441.209</ele>
        <time>2022-08-24T16:50:31Z</time>
      </trkpt>
      <trkpt lat="42.82561499999993" lon="-1.5910789999999966">
        <ele>442.066</ele>
        <time>2022-08-24T16:50:35Z</time>
      </trkpt>
      <trkpt lat="42.82565399999993" lon="-1.5910649999999966">
        <ele>442.076</ele>
        <time>2022-08-24T16:50:36Z</time>
      </trkpt>
      <trkpt lat="42.825750999999926" lon="-1.5910689999999965">
        <ele>442.456</ele>
        <time>2022-08-24T16:50:38Z</time>
      </trkpt>
      <trkpt lat="42.825793999999924" lon="-1.5910699999999964">
        <ele>442.492</ele>
        <time>2022-08-24T16:50:39Z</time>
      </trkpt>
      <trkpt lat="42.82584199999992" lon="-1.5910669999999965">
        <ele>442.464</ele>
        <time>2022-08-24T16:50:40Z</time>
      </trkpt>
      <trkpt lat="42.82593499999992" lon="-1.5910539999999964">
        <ele>442.641</ele>
        <time>2022-08-24T16:50:42Z</time>
      </trkpt>
      <trkpt lat="42.82610099999992" lon="-1.5909919999999964">
        <ele>442.874</ele>
        <time>2022-08-24T16:50:46Z</time>
      </trkpt>
      <trkpt lat="42.82613899999993" lon="-1.5909759999999964">
        <ele>443.048</ele>
        <time>2022-08-24T16:50:47Z</time>
      </trkpt>
      <trkpt lat="42.82622499999993" lon="-1.5909679999999964">
        <ele>443.097</ele>
        <time>2022-08-24T16:50:49Z</time>
      </trkpt>
      <trkpt lat="42.82626599999993" lon="-1.5909689999999963">
        <ele>443.262</ele>
        <time>2022-08-24T16:50:50Z</time>
      </trkpt>
      <trkpt lat="42.826301999999934" lon="-1.5909729999999962">
        <ele>443.283</ele>
        <time>2022-08-24T16:50:51Z</time>
      </trkpt>
      <trkpt lat="42.82633699999993" lon="-1.5909649999999962">
        <ele>443.211</ele>
        <time>2022-08-24T16:50:52Z</time>
      </trkpt>
      <trkpt lat="42.82636599999993" lon="-1.5909729999999962">
        <ele>443.209</ele>
        <time>2022-08-24T16:50:53Z</time>
      </trkpt>
      <trkpt lat="42.82645699999993" lon="-1.5909539999999962">
        <ele>443.467</ele>
        <time>2022-08-24T16:50:56Z</time>
      </trkpt>
      <trkpt lat="42.82648699999993" lon="-1.5909609999999963">
        <ele>443.677</ele>
        <time>2022-08-24T16:50:57Z</time>
      </trkpt>
      <trkpt lat="42.82651499999993" lon="-1.5909759999999964">
        <ele>443.627</ele>
        <time>2022-08-24T16:50:58Z</time>
      </trkpt>
      <trkpt lat="42.82654199999993" lon="-1.5909909999999965">
        <ele>443.863</ele>
        <time>2022-08-24T16:50:59Z</time>
      </trkpt>
      <trkpt lat="42.82656999999993" lon="-1.5910049999999964">
        <ele>443.835</ele>
        <time>2022-08-24T16:51:00Z</time>
      </trkpt>
      <trkpt lat="42.82665499999993" lon="-1.5910279999999966">
        <ele>444.062</ele>
        <time>2022-08-24T16:51:03Z</time>
      </trkpt>
      <trkpt lat="42.82668099999993" lon="-1.5910299999999966">
        <ele>444.085</ele>
        <time>2022-08-24T16:51:04Z</time>
      </trkpt>
      <trkpt lat="42.82670399999993" lon="-1.5910329999999966">
        <ele>444.059</ele>
        <time>2022-08-24T16:51:05Z</time>
      </trkpt>
      <trkpt lat="42.82672099999993" lon="-1.5910469999999965">
        <ele>444.238</ele>
        <time>2022-08-24T16:51:06Z</time>
      </trkpt>
      <trkpt lat="42.82673799999993" lon="-1.5910649999999966">
        <ele>444.297</ele>
        <time>2022-08-24T16:51:07Z</time>
      </trkpt>
      <trkpt lat="42.826758999999925" lon="-1.5910849999999965">
        <ele>444.423</ele>
        <time>2022-08-24T16:51:08Z</time>
      </trkpt>
      <trkpt lat="42.82678199999992" lon="-1.5911009999999965">
        <ele>444.425</ele>
        <time>2022-08-24T16:51:09Z</time>
      </trkpt>
      <trkpt lat="42.826806999999924" lon="-1.5911159999999966">
        <ele>444.409</ele>
        <time>2022-08-24T16:51:10Z</time>
      </trkpt>
      <trkpt lat="42.82686999999992" lon="-1.5911339999999967">
        <ele>444.430</ele>
        <time>2022-08-24T16:51:12Z</time>
      </trkpt>
      <trkpt lat="42.82689599999992" lon="-1.5911419999999967">
        <ele>444.480</ele>
        <time>2022-08-24T16:51:13Z</time>
      </trkpt>
      <trkpt lat="42.82692199999992" lon="-1.5911489999999968">
        <ele>444.470</ele>
        <time>2022-08-24T16:51:14Z</time>
      </trkpt>
      <trkpt lat="42.82704299999992" lon="-1.5911859999999969">
        <ele>444.646</ele>
        <time>2022-08-24T16:51:19Z</time>
      </trkpt>
      <trkpt lat="42.827063999999915" lon="-1.591195999999997">
        <ele>444.888</ele>
        <time>2022-08-24T16:51:20Z</time>
      </trkpt>
      <trkpt lat="42.82709399999992" lon="-1.5912049999999969">
        <ele>444.885</ele>
        <time>2022-08-24T16:51:21Z</time>
      </trkpt>
      <trkpt lat="42.82726299999992" lon="-1.5912899999999968">
        <ele>445.248</ele>
        <time>2022-08-24T16:51:27Z</time>
      </trkpt>
      <trkpt lat="42.82728199999992" lon="-1.5913149999999967">
        <ele>445.472</ele>
        <time>2022-08-24T16:51:28Z</time>
      </trkpt>
      <trkpt lat="42.82730599999992" lon="-1.5913429999999966">
        <ele>445.431</ele>
        <time>2022-08-24T16:51:29Z</time>
      </trkpt>
      <trkpt lat="42.82733099999992" lon="-1.5913699999999966">
        <ele>445.848</ele>
        <time>2022-08-24T16:51:30Z</time>
      </trkpt>
      <trkpt lat="42.82735399999992" lon="-1.5914029999999966">
        <ele>445.861</ele>
        <time>2022-08-24T16:51:31Z</time>
      </trkpt>
      <trkpt lat="42.82737699999992" lon="-1.5914349999999966">
        <ele>446.017</ele>
        <time>2022-08-24T16:51:32Z</time>
      </trkpt>
      <trkpt lat="42.827431999999924" lon="-1.5914909999999967">
        <ele>446.209</ele>
        <time>2022-08-24T16:51:34Z</time>
      </trkpt>
      <trkpt lat="42.82750599999992" lon="-1.5915979999999967">
        <ele>446.455</ele>
        <time>2022-08-24T16:51:37Z</time>
      </trkpt>
      <trkpt lat="42.827594999999924" lon="-1.5917359999999967">
        <ele>446.455</ele>
        <time>2022-08-24T16:51:41Z</time>
      </trkpt>
      <trkpt lat="42.827636999999925" lon="-1.5918189999999968">
        <ele>446.485</ele>
        <time>2022-08-24T16:51:43Z</time>
      </trkpt>
      <trkpt lat="42.827661999999926" lon="-1.5918519999999967">
        <ele>446.651</ele>
        <time>2022-08-24T16:51:44Z</time>
      </trkpt>
      <trkpt lat="42.82771199999993" lon="-1.5919089999999967">
        <ele>446.643</ele>
        <time>2022-08-24T16:51:46Z</time>
      </trkpt>
      <trkpt lat="42.827729999999924" lon="-1.5919479999999966">
        <ele>446.610</ele>
        <time>2022-08-24T16:51:47Z</time>
      </trkpt>
      <trkpt lat="42.82774599999993" lon="-1.5919869999999965">
        <ele>446.643</ele>
        <time>2022-08-24T16:51:48Z</time>
      </trkpt>
      <trkpt lat="42.82775899999993" lon="-1.5920259999999964">
        <ele>446.887</ele>
        <time>2022-08-24T16:51:49Z</time>
      </trkpt>
      <trkpt lat="42.82778799999993" lon="-1.5921879999999964">
        <ele>447.076</ele>
        <time>2022-08-24T16:51:53Z</time>
      </trkpt>
      <trkpt lat="42.82779099999993" lon="-1.5922679999999965">
        <ele>447.246</ele>
        <time>2022-08-24T16:51:55Z</time>
      </trkpt>
      <trkpt lat="42.82780199999993" lon="-1.5924389999999964">
        <ele>447.488</ele>
        <time>2022-08-24T16:51:59Z</time>
      </trkpt>
      <trkpt lat="42.82781599999993" lon="-1.5926119999999964">
        <ele>447.416</ele>
        <time>2022-08-24T16:52:03Z</time>
      </trkpt>
      <trkpt lat="42.827819999999925" lon="-1.5927099999999963">
        <ele>447.409</ele>
        <time>2022-08-24T16:52:05Z</time>
      </trkpt>
      <trkpt lat="42.82778799999993" lon="-1.5929239999999962">
        <ele>447.445</ele>
        <time>2022-08-24T16:52:09Z</time>
      </trkpt>
      <trkpt lat="42.827692999999925" lon="-1.5932999999999962">
        <ele>447.065</ele>
        <time>2022-08-24T16:52:16Z</time>
      </trkpt>
      <trkpt lat="42.82768299999992" lon="-1.593357999999996">
        <ele>447.085</ele>
        <time>2022-08-24T16:52:17Z</time>
      </trkpt>
      <trkpt lat="42.82764399999992" lon="-1.5935349999999961">
        <ele>446.871</ele>
        <time>2022-08-24T16:52:20Z</time>
      </trkpt>
      <trkpt lat="42.82762199999992" lon="-1.593586999999996">
        <ele>446.623</ele>
        <time>2022-08-24T16:52:21Z</time>
      </trkpt>
      <trkpt lat="42.82760299999992" lon="-1.5936289999999962">
        <ele>446.480</ele>
        <time>2022-08-24T16:52:22Z</time>
      </trkpt>
      <trkpt lat="42.82758899999992" lon="-1.5936629999999963">
        <ele>446.213</ele>
        <time>2022-08-24T16:52:23Z</time>
      </trkpt>
      <trkpt lat="42.827575999999915" lon="-1.5936929999999963">
        <ele>446.087</ele>
        <time>2022-08-24T16:52:24Z</time>
      </trkpt>
      <trkpt lat="42.82755199999991" lon="-1.5937249999999963">
        <ele>445.876</ele>
        <time>2022-08-24T16:52:25Z</time>
      </trkpt>
      <trkpt lat="42.82747299999991" lon="-1.5937909999999962">
        <ele>445.482</ele>
        <time>2022-08-24T16:52:27Z</time>
      </trkpt>
      <trkpt lat="42.827420999999916" lon="-1.5938209999999962">
        <ele>445.243</ele>
        <time>2022-08-24T16:52:28Z</time>
      </trkpt>
      <trkpt lat="42.82737699999991" lon="-1.5938499999999962">
        <ele>445.017</ele>
        <time>2022-08-24T16:52:29Z</time>
      </trkpt>
      <trkpt lat="42.827336999999915" lon="-1.5938859999999961">
        <ele>444.809</ele>
        <time>2022-08-24T16:52:30Z</time>
      </trkpt>
      <trkpt lat="42.827220999999916" lon="-1.5940279999999962">
        <ele>443.859</ele>
        <time>2022-08-24T16:52:33Z</time>
      </trkpt>
      <trkpt lat="42.82717299999992" lon="-1.5940709999999962">
        <ele>443.679</ele>
        <time>2022-08-24T16:52:34Z</time>
      </trkpt>
      <trkpt lat="42.827029999999915" lon="-1.5942129999999963">
        <ele>443.029</ele>
        <time>2022-08-24T16:52:37Z</time>
      </trkpt>
      <trkpt lat="42.82698999999992" lon="-1.5942549999999964">
        <ele>442.825</ele>
        <time>2022-08-24T16:52:38Z</time>
      </trkpt>
      <trkpt lat="42.82695799999992" lon="-1.5942989999999964">
        <ele>442.897</ele>
        <time>2022-08-24T16:52:39Z</time>
      </trkpt>
      <trkpt lat="42.82693699999992" lon="-1.5943489999999965">
        <ele>442.684</ele>
        <time>2022-08-24T16:52:40Z</time>
      </trkpt>
      <trkpt lat="42.82692599999992" lon="-1.5944049999999965">
        <ele>442.457</ele>
        <time>2022-08-24T16:52:41Z</time>
      </trkpt>
      <trkpt lat="42.82690899999992" lon="-1.5944639999999966">
        <ele>442.481</ele>
        <time>2022-08-24T16:52:42Z</time>
      </trkpt>
      <trkpt lat="42.826899999999924" lon="-1.5945259999999966">
        <ele>442.250</ele>
        <time>2022-08-24T16:52:43Z</time>
      </trkpt>
      <trkpt lat="42.82690399999992" lon="-1.5945829999999965">
        <ele>442.283</ele>
        <time>2022-08-24T16:52:44Z</time>
      </trkpt>
      <trkpt lat="42.82691299999992" lon="-1.5946369999999965">
        <ele>442.025</ele>
        <time>2022-08-24T16:52:45Z</time>
      </trkpt>
      <trkpt lat="42.82692699999992" lon="-1.5946949999999964">
        <ele>442.017</ele>
        <time>2022-08-24T16:52:46Z</time>
      </trkpt>
      <trkpt lat="42.82693999999992" lon="-1.5947529999999963">
        <ele>442.009</ele>
        <time>2022-08-24T16:52:47Z</time>
      </trkpt>
      <trkpt lat="42.82695099999992" lon="-1.5948159999999962">
        <ele>442.069</ele>
        <time>2022-08-24T16:52:48Z</time>
      </trkpt>
      <trkpt lat="42.826961999999924" lon="-1.5948839999999962">
        <ele>441.859</ele>
        <time>2022-08-24T16:52:49Z</time>
      </trkpt>
      <trkpt lat="42.826966999999925" lon="-1.5949509999999962">
        <ele>441.679</ele>
        <time>2022-08-24T16:52:50Z</time>
      </trkpt>
      <trkpt lat="42.82696899999993" lon="-1.5950099999999963">
        <ele>441.475</ele>
        <time>2022-08-24T16:52:51Z</time>
      </trkpt>
      <trkpt lat="42.82697199999993" lon="-1.5950629999999963">
        <ele>441.427</ele>
        <time>2022-08-24T16:52:52Z</time>
      </trkpt>
      <trkpt lat="42.82697399999993" lon="-1.5951179999999963">
        <ele>441.474</ele>
        <time>2022-08-24T16:52:53Z</time>
      </trkpt>
      <trkpt lat="42.82697299999993" lon="-1.5952349999999962">
        <ele>441.447</ele>
        <time>2022-08-24T16:52:55Z</time>
      </trkpt>
      <trkpt lat="42.82695999999993" lon="-1.5953349999999962">
        <ele>441.271</ele>
        <time>2022-08-24T16:52:57Z</time>
      </trkpt>
      <trkpt lat="42.82695699999993" lon="-1.5953889999999962">
        <ele>441.280</ele>
        <time>2022-08-24T16:52:58Z</time>
      </trkpt>
      <trkpt lat="42.82695999999993" lon="-1.595443999999996">
        <ele>441.071</ele>
        <time>2022-08-24T16:52:59Z</time>
      </trkpt>
      <trkpt lat="42.82697899999993" lon="-1.595586999999996">
        <ele>441.041</ele>
        <time>2022-08-24T16:53:02Z</time>
      </trkpt>
      <trkpt lat="42.826988999999934" lon="-1.595644999999996">
        <ele>441.015</ele>
        <time>2022-08-24T16:53:03Z</time>
      </trkpt>
      <trkpt lat="42.82702699999994" lon="-1.595809999999996">
        <ele>441.009</ele>
        <time>2022-08-24T16:53:06Z</time>
      </trkpt>
      <trkpt lat="42.82705199999994" lon="-1.595873999999996">
        <ele>441.078</ele>
        <time>2022-08-24T16:53:07Z</time>
      </trkpt>
      <trkpt lat="42.82708199999994" lon="-1.595935999999996">
        <ele>441.078</ele>
        <time>2022-08-24T16:53:08Z</time>
      </trkpt>
      <trkpt lat="42.82711899999994" lon="-1.596003999999996">
        <ele>441.058</ele>
        <time>2022-08-24T16:53:09Z</time>
      </trkpt>
      <trkpt lat="42.82714699999994" lon="-1.596057999999996">
        <ele>440.814</ele>
        <time>2022-08-24T16:53:10Z</time>
      </trkpt>
      <trkpt lat="42.82717399999994" lon="-1.596113999999996">
        <ele>440.886</ele>
        <time>2022-08-24T16:53:11Z</time>
      </trkpt>
      <trkpt lat="42.827200999999945" lon="-1.5961669999999961">
        <ele>440.833</ele>
        <time>2022-08-24T16:53:12Z</time>
      </trkpt>
      <trkpt lat="42.827226999999944" lon="-1.5962119999999962">
        <ele>440.856</ele>
        <time>2022-08-24T16:53:13Z</time>
      </trkpt>
      <trkpt lat="42.82726399999994" lon="-1.5962419999999962">
        <ele>440.820</ele>
        <time>2022-08-24T16:53:14Z</time>
      </trkpt>
      <trkpt lat="42.82730699999994" lon="-1.5962479999999961">
        <ele>440.869</ele>
        <time>2022-08-24T16:53:15Z</time>
      </trkpt>
      <trkpt lat="42.82738599999994" lon="-1.596248999999996">
        <ele>440.885</ele>
        <time>2022-08-24T16:53:17Z</time>
      </trkpt>
      <trkpt lat="42.82742199999994" lon="-1.596233999999996">
        <ele>441.089</ele>
        <time>2022-08-24T16:53:18Z</time>
      </trkpt>
      <trkpt lat="42.82746999999994" lon="-1.5961999999999958">
        <ele>440.817</ele>
        <time>2022-08-24T16:53:19Z</time>
      </trkpt>
      <trkpt lat="42.82750699999994" lon="-1.596168999999996">
        <ele>441.009</ele>
        <time>2022-08-24T16:53:20Z</time>
      </trkpt>
      <trkpt lat="42.82757399999994" lon="-1.5961049999999959">
        <ele>441.059</ele>
        <time>2022-08-24T16:53:22Z</time>
      </trkpt>
      <trkpt lat="42.82760799999994" lon="-1.5960819999999958">
        <ele>441.049</ele>
        <time>2022-08-24T16:53:23Z</time>
      </trkpt>
      <trkpt lat="42.82764499999994" lon="-1.5960689999999957">
        <ele>441.079</ele>
        <time>2022-08-24T16:53:24Z</time>
      </trkpt>
      <trkpt lat="42.82768299999994" lon="-1.5960699999999957">
        <ele>441.055</ele>
        <time>2022-08-24T16:53:25Z</time>
      </trkpt>
      <trkpt lat="42.82772299999994" lon="-1.5960769999999957">
        <ele>440.837</ele>
        <time>2022-08-24T16:53:26Z</time>
      </trkpt>
      <trkpt lat="42.82776199999994" lon="-1.5960829999999957">
        <ele>441.024</ele>
        <time>2022-08-24T16:53:27Z</time>
      </trkpt>
      <trkpt lat="42.82779899999994" lon="-1.5960839999999956">
        <ele>441.017</ele>
        <time>2022-08-24T16:53:28Z</time>
      </trkpt>
      <trkpt lat="42.827836999999946" lon="-1.5960859999999957">
        <ele>440.881</ele>
        <time>2022-08-24T16:53:29Z</time>
      </trkpt>
      <trkpt lat="42.827876999999944" lon="-1.5960919999999956">
        <ele>440.840</ele>
        <time>2022-08-24T16:53:30Z</time>
      </trkpt>
      <trkpt lat="42.82791499999995" lon="-1.5960979999999956">
        <ele>440.868</ele>
        <time>2022-08-24T16:53:31Z</time>
      </trkpt>
      <trkpt lat="42.82795299999995" lon="-1.5961039999999955">
        <ele>440.842</ele>
        <time>2022-08-24T16:53:32Z</time>
      </trkpt>
      <trkpt lat="42.82802599999995" lon="-1.5960989999999955">
        <ele>440.826</ele>
        <time>2022-08-24T16:53:34Z</time>
      </trkpt>
      <trkpt lat="42.828055999999954" lon="-1.5960829999999955">
        <ele>440.809</ele>
        <time>2022-08-24T16:53:35Z</time>
      </trkpt>
      <trkpt lat="42.82808199999995" lon="-1.5960699999999954">
        <ele>440.887</ele>
        <time>2022-08-24T16:53:36Z</time>
      </trkpt>
      <trkpt lat="42.82810699999995" lon="-1.5960559999999955">
        <ele>440.877</ele>
        <time>2022-08-24T16:53:37Z</time>
      </trkpt>
      <trkpt lat="42.82813599999995" lon="-1.5960499999999955">
        <ele>440.817</ele>
        <time>2022-08-24T16:53:38Z</time>
      </trkpt>
      <trkpt lat="42.82817599999995" lon="-1.5960499999999955">
        <ele>440.693</ele>
        <time>2022-08-24T16:53:39Z</time>
      </trkpt>
      <trkpt lat="42.82822699999995" lon="-1.5960489999999956">
        <ele>440.425</ele>
        <time>2022-08-24T16:53:40Z</time>
      </trkpt>
      <trkpt lat="42.82827099999995" lon="-1.5960399999999957">
        <ele>440.082</ele>
        <time>2022-08-24T16:53:41Z</time>
      </trkpt>
      <trkpt lat="42.82831099999995" lon="-1.5960169999999956">
        <ele>439.625</ele>
        <time>2022-08-24T16:53:42Z</time>
      </trkpt>
      <trkpt lat="42.82834699999995" lon="-1.5959889999999957">
        <ele>439.699</ele>
        <time>2022-08-24T16:53:43Z</time>
      </trkpt>
      <trkpt lat="42.82838599999995" lon="-1.5959639999999957">
        <ele>439.248</ele>
        <time>2022-08-24T16:53:44Z</time>
      </trkpt>
      <trkpt lat="42.82842299999995" lon="-1.5959369999999957">
        <ele>439.074</ele>
        <time>2022-08-24T16:53:45Z</time>
      </trkpt>
      <trkpt lat="42.82849999999995" lon="-1.5958979999999958">
        <ele>438.656</ele>
        <time>2022-08-24T16:53:47Z</time>
      </trkpt>
      <trkpt lat="42.82853699999995" lon="-1.5958829999999957">
        <ele>438.421</ele>
        <time>2022-08-24T16:53:48Z</time>
      </trkpt>
      <trkpt lat="42.82861299999995" lon="-1.5958579999999958">
        <ele>438.209</ele>
        <time>2022-08-24T16:53:50Z</time>
      </trkpt>
      <trkpt lat="42.82865199999995" lon="-1.5958489999999959">
        <ele>438.448</ele>
        <time>2022-08-24T16:53:51Z</time>
      </trkpt>
      <trkpt lat="42.82869399999995" lon="-1.5958439999999958">
        <ele>438.628</ele>
        <time>2022-08-24T16:53:52Z</time>
      </trkpt>
      <trkpt lat="42.82884099999995" lon="-1.5958609999999958">
        <ele>438.488</ele>
        <time>2022-08-24T16:53:55Z</time>
      </trkpt>
      <trkpt lat="42.82888599999995" lon="-1.5958549999999958">
        <ele>438.664</ele>
        <time>2022-08-24T16:53:56Z</time>
      </trkpt>
      <trkpt lat="42.82892999999995" lon="-1.5958399999999957">
        <ele>438.666</ele>
        <time>2022-08-24T16:53:57Z</time>
      </trkpt>
      <trkpt lat="42.82896999999995" lon="-1.5958169999999956">
        <ele>438.663</ele>
        <time>2022-08-24T16:53:58Z</time>
      </trkpt>
      <trkpt lat="42.82901199999995" lon="-1.5957889999999957">
        <ele>438.666</ele>
        <time>2022-08-24T16:53:59Z</time>
      </trkpt>
      <trkpt lat="42.82904899999995" lon="-1.5957569999999957">
        <ele>438.650</ele>
        <time>2022-08-24T16:54:00Z</time>
      </trkpt>
      <trkpt lat="42.82908199999995" lon="-1.5957249999999956">
        <ele>438.629</ele>
        <time>2022-08-24T16:54:01Z</time>
      </trkpt>
      <trkpt lat="42.82911499999995" lon="-1.5956889999999957">
        <ele>438.681</ele>
        <time>2022-08-24T16:54:02Z</time>
      </trkpt>
      <trkpt lat="42.82914299999995" lon="-1.5956559999999957">
        <ele>438.661</ele>
        <time>2022-08-24T16:54:03Z</time>
      </trkpt>
      <trkpt lat="42.82916399999995" lon="-1.5956229999999958">
        <ele>438.617</ele>
        <time>2022-08-24T16:54:04Z</time>
      </trkpt>
      <trkpt lat="42.82918099999995" lon="-1.5955859999999957">
        <ele>438.609</ele>
        <time>2022-08-24T16:54:05Z</time>
      </trkpt>
      <trkpt lat="42.829198999999946" lon="-1.5955459999999957">
        <ele>438.629</ele>
        <time>2022-08-24T16:54:06Z</time>
      </trkpt>
      <trkpt lat="42.82921399999994" lon="-1.5955099999999958">
        <ele>438.689</ele>
        <time>2022-08-24T16:54:07Z</time>
      </trkpt>
      <trkpt lat="42.829226999999946" lon="-1.5954759999999957">
        <ele>438.649</ele>
        <time>2022-08-24T16:54:08Z</time>
      </trkpt>
      <trkpt lat="42.82923699999995" lon="-1.5954419999999956">
        <ele>438.645</ele>
        <time>2022-08-24T16:54:09Z</time>
      </trkpt>
      <trkpt lat="42.82927099999995" lon="-1.5953329999999957">
        <ele>439.227</ele>
        <time>2022-08-24T16:54:12Z</time>
      </trkpt>
      <trkpt lat="42.82927899999995" lon="-1.5952969999999957">
        <ele>439.274</ele>
        <time>2022-08-24T16:54:13Z</time>
      </trkpt>
      <trkpt lat="42.82929299999995" lon="-1.5952619999999957">
        <ele>439.057</ele>
        <time>2022-08-24T16:54:14Z</time>
      </trkpt>
      <trkpt lat="42.82932199999995" lon="-1.5952069999999958">
        <ele>439.071</ele>
        <time>2022-08-24T16:54:16Z</time>
      </trkpt>
      <trkpt lat="42.829336999999946" lon="-1.5951919999999957">
        <ele>439.070</ele>
        <time>2022-08-24T16:54:17Z</time>
      </trkpt>
      <trkpt lat="42.82935499999994" lon="-1.5951849999999956">
        <ele>439.237</ele>
        <time>2022-08-24T16:54:18Z</time>
      </trkpt>
      <trkpt lat="42.829373999999945" lon="-1.5951859999999956">
        <ele>439.249</ele>
        <time>2022-08-24T16:54:19Z</time>
      </trkpt>
      <trkpt lat="42.82938899999994" lon="-1.5951919999999955">
        <ele>439.213</ele>
        <time>2022-08-24T16:54:20Z</time>
      </trkpt>
      <trkpt lat="42.82941499999994" lon="-1.5952029999999955">
        <ele>440.209</ele>
        <time>2022-08-24T16:54:37Z</time>
      </trkpt>
      <trkpt lat="42.82942599999994" lon="-1.5952129999999956">
        <ele>440.224</ele>
        <time>2022-08-24T16:54:38Z</time>
      </trkpt>
      <trkpt lat="42.829480999999944" lon="-1.5952439999999954">
        <ele>440.844</ele>
        <time>2022-08-24T16:54:43Z</time>
      </trkpt>
      <trkpt lat="42.829491999999945" lon="-1.5952489999999955">
        <ele>440.824</ele>
        <time>2022-08-24T16:54:44Z</time>
      </trkpt>
      <trkpt lat="42.82952199999995" lon="-1.5952659999999954">
        <ele>441.210</ele>
        <time>2022-08-24T16:54:48Z</time>
      </trkpt>
      <trkpt lat="42.82955999999995" lon="-1.5953059999999954">
        <ele>441.622</ele>
        <time>2022-08-24T16:54:54Z</time>
      </trkpt>
      <trkpt lat="42.829569999999954" lon="-1.5953129999999955">
        <ele>441.649</ele>
        <time>2022-08-24T16:54:55Z</time>
      </trkpt>
      <trkpt lat="42.82968099999995" lon="-1.5954069999999956">
        <ele>441.632</ele>
        <time>2022-08-24T16:55:01Z</time>
      </trkpt>
      <trkpt lat="42.82976599999995" lon="-1.5954949999999957">
        <ele>441.436</ele>
        <time>2022-08-24T16:55:05Z</time>
      </trkpt>
      <trkpt lat="42.82977199999995" lon="-1.5955379999999957">
        <ele>441.275</ele>
        <time>2022-08-24T16:55:06Z</time>
      </trkpt>
      <trkpt lat="42.82976599999995" lon="-1.5955859999999957">
        <ele>441.246</ele>
        <time>2022-08-24T16:55:07Z</time>
      </trkpt>
      <trkpt lat="42.82971499999995" lon="-1.5957619999999957">
        <ele>440.688</ele>
        <time>2022-08-24T16:55:10Z</time>
      </trkpt>
      <trkpt lat="42.82969999999995" lon="-1.5958179999999957">
        <ele>440.416</ele>
        <time>2022-08-24T16:55:11Z</time>
      </trkpt>
      <trkpt lat="42.829687999999955" lon="-1.5958659999999958">
        <ele>440.209</ele>
        <time>2022-08-24T16:55:12Z</time>
      </trkpt>
      <trkpt lat="42.82967799999995" lon="-1.5959079999999959">
        <ele>439.865</ele>
        <time>2022-08-24T16:55:13Z</time>
      </trkpt>
      <trkpt lat="42.82967199999995" lon="-1.595944999999996">
        <ele>439.675</ele>
        <time>2022-08-24T16:55:14Z</time>
      </trkpt>
      <trkpt lat="42.82966599999995" lon="-1.595976999999996">
        <ele>439.275</ele>
        <time>2022-08-24T16:55:15Z</time>
      </trkpt>
      <trkpt lat="42.829664999999956" lon="-1.5960079999999959">
        <ele>439.041</ele>
        <time>2022-08-24T16:55:16Z</time>
      </trkpt>
      <trkpt lat="42.82967199999995" lon="-1.596039999999996">
        <ele>439.013</ele>
        <time>2022-08-24T16:55:17Z</time>
      </trkpt>
      <trkpt lat="42.82968599999995" lon="-1.596073999999996">
        <ele>438.890</ele>
        <time>2022-08-24T16:55:18Z</time>
      </trkpt>
      <trkpt lat="42.82970099999995" lon="-1.596108999999996">
        <ele>438.823</ele>
        <time>2022-08-24T16:55:19Z</time>
      </trkpt>
      <trkpt lat="42.82971599999995" lon="-1.596146999999996">
        <ele>438.837</ele>
        <time>2022-08-24T16:55:20Z</time>
      </trkpt>
      <trkpt lat="42.829733999999945" lon="-1.596188999999996">
        <ele>438.836</ele>
        <time>2022-08-24T16:55:21Z</time>
      </trkpt>
      <trkpt lat="42.82977199999995" lon="-1.5962659999999962">
        <ele>438.854</ele>
        <time>2022-08-24T16:55:23Z</time>
      </trkpt>
      <trkpt lat="42.82979199999995" lon="-1.596285999999996">
        <ele>439.056</ele>
        <time>2022-08-24T16:55:24Z</time>
      </trkpt>
      <trkpt lat="42.829806999999946" lon="-1.596288999999996">
        <ele>439.411</ele>
        <time>2022-08-24T16:55:25Z</time>
      </trkpt>
      <trkpt lat="42.829823999999945" lon="-1.596288999999996">
        <ele>439.409</ele>
        <time>2022-08-24T16:55:26Z</time>
      </trkpt>
      <trkpt lat="42.82984299999995" lon="-1.5962879999999962">
        <ele>439.436</ele>
        <time>2022-08-24T16:55:27Z</time>
      </trkpt>
      <trkpt lat="42.82985699999995" lon="-1.5962869999999962">
        <ele>439.426</ele>
        <time>2022-08-24T16:55:28Z</time>
      </trkpt>
      <trkpt lat="42.829874999999944" lon="-1.5962899999999962">
        <ele>439.476</ele>
        <time>2022-08-24T16:55:29Z</time>
      </trkpt>
      <trkpt lat="42.82989099999995" lon="-1.5962859999999963">
        <ele>439.442</ele>
        <time>2022-08-24T16:55:30Z</time>
      </trkpt>
      <trkpt lat="42.829907999999946" lon="-1.5962849999999964">
        <ele>439.494</ele>
        <time>2022-08-24T16:55:31Z</time>
      </trkpt>
      <trkpt lat="42.830051999999945" lon="-1.5962629999999964">
        <ele>439.421</ele>
        <time>2022-08-24T16:55:37Z</time>
      </trkpt>
      <trkpt lat="42.83028199999995" lon="-1.5963229999999964">
        <ele>438.884</ele>
        <time>2022-08-24T16:55:44Z</time>
      </trkpt>
      <trkpt lat="42.83034299999995" lon="-1.5963649999999965">
        <ele>438.668</ele>
        <time>2022-08-24T16:55:46Z</time>
      </trkpt>
      <trkpt lat="42.83036599999995" lon="-1.5963849999999964">
        <ele>438.667</ele>
        <time>2022-08-24T16:55:47Z</time>
      </trkpt>
      <trkpt lat="42.83038599999995" lon="-1.5964019999999963">
        <ele>438.675</ele>
        <time>2022-08-24T16:55:48Z</time>
      </trkpt>
      <trkpt lat="42.83039899999995" lon="-1.5964239999999963">
        <ele>438.628</ele>
        <time>2022-08-24T16:55:49Z</time>
      </trkpt>
      <trkpt lat="42.83040799999995" lon="-1.5964419999999964">
        <ele>438.620</ele>
        <time>2022-08-24T16:55:50Z</time>
      </trkpt>
      <trkpt lat="42.83043799999995" lon="-1.5964699999999963">
        <ele>438.409</ele>
        <time>2022-08-24T16:58:48Z</time>
      </trkpt>
      <trkpt lat="42.83051399999995" lon="-1.5965019999999963">
        <ele>438.438</ele>
        <time>2022-08-24T16:58:51Z</time>
      </trkpt>
      <trkpt lat="42.83056499999995" lon="-1.5965309999999964">
        <ele>438.458</ele>
        <time>2022-08-24T16:58:53Z</time>
      </trkpt>
      <trkpt lat="42.83058499999995" lon="-1.5965479999999963">
        <ele>438.458</ele>
        <time>2022-08-24T16:58:54Z</time>
      </trkpt>
      <trkpt lat="42.83060499999995" lon="-1.5965659999999964">
        <ele>438.474</ele>
        <time>2022-08-24T16:58:55Z</time>
      </trkpt>
      <trkpt lat="42.83064699999995" lon="-1.5966069999999963">
        <ele>438.456</ele>
        <time>2022-08-24T16:58:57Z</time>
      </trkpt>
      <trkpt lat="42.83083799999995" lon="-1.5967529999999963">
        <ele>438.493</ele>
        <time>2022-08-24T16:59:04Z</time>
      </trkpt>
      <trkpt lat="42.83093699999995" lon="-1.5968509999999962">
        <ele>438.286</ele>
        <time>2022-08-24T16:59:07Z</time>
      </trkpt>
      <trkpt lat="42.83107299999995" lon="-1.5969879999999963">
        <ele>438.220</ele>
        <time>2022-08-24T16:59:11Z</time>
      </trkpt>
      <trkpt lat="42.831256999999944" lon="-1.5971729999999964">
        <ele>438.289</ele>
        <time>2022-08-24T16:59:16Z</time>
      </trkpt>
      <trkpt lat="42.83129399999994" lon="-1.5972069999999965">
        <ele>438.249</ele>
        <time>2022-08-24T16:59:17Z</time>
      </trkpt>
      <trkpt lat="42.831329999999944" lon="-1.5972409999999966">
        <ele>438.402</ele>
        <time>2022-08-24T16:59:18Z</time>
      </trkpt>
      <trkpt lat="42.83136699999994" lon="-1.5972739999999965">
        <ele>438.422</ele>
        <time>2022-08-24T16:59:19Z</time>
      </trkpt>
      <trkpt lat="42.83140199999994" lon="-1.5973069999999965">
        <ele>438.409</ele>
        <time>2022-08-24T16:59:20Z</time>
      </trkpt>
      <trkpt lat="42.83143799999994" lon="-1.5973399999999964">
        <ele>438.435</ele>
        <time>2022-08-24T16:59:21Z</time>
      </trkpt>
      <trkpt lat="42.83151099999994" lon="-1.5974049999999964">
        <ele>438.415</ele>
        <time>2022-08-24T16:59:23Z</time>
      </trkpt>
      <trkpt lat="42.831546999999944" lon="-1.5974349999999964">
        <ele>438.425</ele>
        <time>2022-08-24T16:59:24Z</time>
      </trkpt>
      <trkpt lat="42.83158099999994" lon="-1.5974649999999964">
        <ele>438.421</ele>
        <time>2022-08-24T16:59:25Z</time>
      </trkpt>
      <trkpt lat="42.831613999999945" lon="-1.5974949999999963">
        <ele>438.463</ele>
        <time>2022-08-24T16:59:26Z</time>
      </trkpt>
      <trkpt lat="42.831644999999945" lon="-1.5975219999999963">
        <ele>438.450</ele>
        <time>2022-08-24T16:59:27Z</time>
      </trkpt>
      <trkpt lat="42.831703999999945" lon="-1.5975779999999964">
        <ele>438.273</ele>
        <time>2022-08-24T16:59:29Z</time>
      </trkpt>
      <trkpt lat="42.831911999999946" lon="-1.5977679999999963">
        <ele>438.247</ele>
        <time>2022-08-24T16:59:35Z</time>
      </trkpt>
      <trkpt lat="42.83194799999995" lon="-1.5977939999999964">
        <ele>438.456</ele>
        <time>2022-08-24T16:59:36Z</time>
      </trkpt>
      <trkpt lat="42.83198599999995" lon="-1.5978169999999965">
        <ele>438.442</ele>
        <time>2022-08-24T16:59:37Z</time>
      </trkpt>
      <trkpt lat="42.83202099999995" lon="-1.5978349999999966">
        <ele>438.422</ele>
        <time>2022-08-24T16:59:38Z</time>
      </trkpt>
      <trkpt lat="42.83205899999995" lon="-1.5978559999999966">
        <ele>438.414</ele>
        <time>2022-08-24T16:59:39Z</time>
      </trkpt>
      <trkpt lat="42.83221399999995" lon="-1.5979379999999965">
        <ele>438.209</ele>
        <time>2022-08-24T16:59:43Z</time>
      </trkpt>
      <trkpt lat="42.83229699999995" lon="-1.5980119999999964">
        <ele>438.255</ele>
        <time>2022-08-24T16:59:45Z</time>
      </trkpt>
      <trkpt lat="42.83236899999995" lon="-1.5981099999999964">
        <ele>438.075</ele>
        <time>2022-08-24T16:59:47Z</time>
      </trkpt>
      <trkpt lat="42.83241999999995" lon="-1.5982209999999963">
        <ele>438.065</ele>
        <time>2022-08-24T16:59:49Z</time>
      </trkpt>
      <trkpt lat="42.83243899999995" lon="-1.5982759999999963">
        <ele>438.051</ele>
        <time>2022-08-24T16:59:50Z</time>
      </trkpt>
      <trkpt lat="42.832462999999954" lon="-1.5983299999999963">
        <ele>437.883</ele>
        <time>2022-08-24T16:59:51Z</time>
      </trkpt>
      <trkpt lat="42.83248899999995" lon="-1.5983829999999963">
        <ele>437.870</ele>
        <time>2022-08-24T16:59:52Z</time>
      </trkpt>
      <trkpt lat="42.832507999999955" lon="-1.5984389999999964">
        <ele>437.633</ele>
        <time>2022-08-24T16:59:53Z</time>
      </trkpt>
      <trkpt lat="42.83253099999995" lon="-1.5984989999999963">
        <ele>437.487</ele>
        <time>2022-08-24T16:59:54Z</time>
      </trkpt>
      <trkpt lat="42.832549999999955" lon="-1.5985589999999963">
        <ele>437.436</ele>
        <time>2022-08-24T16:59:55Z</time>
      </trkpt>
      <trkpt lat="42.83256599999996" lon="-1.5986109999999962">
        <ele>437.284</ele>
        <time>2022-08-24T16:59:56Z</time>
      </trkpt>
      <trkpt lat="42.83259299999996" lon="-1.5986859999999963">
        <ele>437.207</ele>
        <time>2022-08-24T16:59:57Z</time>
      </trkpt>
      <trkpt lat="42.83261899999996" lon="-1.5987479999999963">
        <ele>437.217</ele>
        <time>2022-08-24T16:59:58Z</time>
      </trkpt>
      <trkpt lat="42.832639999999955" lon="-1.5987979999999964">
        <ele>437.209</ele>
        <time>2022-08-24T16:59:59Z</time>
      </trkpt>
      <trkpt lat="42.83266699999996" lon="-1.5988569999999964">
        <ele>437.099</ele>
        <time>2022-08-24T17:00:00Z</time>
      </trkpt>
      <trkpt lat="42.83269199999996" lon="-1.5989179999999965">
        <ele>436.889</ele>
        <time>2022-08-24T17:00:01Z</time>
      </trkpt>
      <trkpt lat="42.83271999999996" lon="-1.5989959999999965">
        <ele>436.839</ele>
        <time>2022-08-24T17:00:02Z</time>
      </trkpt>
      <trkpt lat="42.83273999999996" lon="-1.5990589999999965">
        <ele>436.655</ele>
        <time>2022-08-24T17:00:03Z</time>
      </trkpt>
      <trkpt lat="42.83275399999996" lon="-1.5991089999999966">
        <ele>436.637</ele>
        <time>2022-08-24T17:00:04Z</time>
      </trkpt>
      <trkpt lat="42.83279799999996" lon="-1.5992359999999965">
        <ele>436.674</ele>
        <time>2022-08-24T17:00:06Z</time>
      </trkpt>
      <trkpt lat="42.83281899999996" lon="-1.5992919999999966">
        <ele>436.657</ele>
        <time>2022-08-24T17:00:07Z</time>
      </trkpt>
      <trkpt lat="42.83285499999996" lon="-1.5994059999999966">
        <ele>436.481</ele>
        <time>2022-08-24T17:00:09Z</time>
      </trkpt>
      <trkpt lat="42.83286899999996" lon="-1.5994629999999965">
        <ele>436.420</ele>
        <time>2022-08-24T17:00:10Z</time>
      </trkpt>
      <trkpt lat="42.83288299999996" lon="-1.5995159999999966">
        <ele>436.431</ele>
        <time>2022-08-24T17:00:11Z</time>
      </trkpt>
      <trkpt lat="42.83290199999996" lon="-1.5995539999999966">
        <ele>436.461</ele>
        <time>2022-08-24T17:00:12Z</time>
      </trkpt>
      <trkpt lat="42.83292699999996" lon="-1.5995769999999967">
        <ele>436.607</ele>
        <time>2022-08-24T17:00:13Z</time>
      </trkpt>
      <trkpt lat="42.83295499999996" lon="-1.5995869999999968">
        <ele>436.209</ele>
        <time>2022-08-24T17:00:14Z</time>
      </trkpt>
      <trkpt lat="42.83298299999996" lon="-1.5995959999999967">
        <ele>436.224</ele>
        <time>2022-08-24T17:00:15Z</time>
      </trkpt>
      <trkpt lat="42.833001999999965" lon="-1.5996239999999966">
        <ele>436.284</ele>
        <time>2022-08-24T17:00:16Z</time>
      </trkpt>
      <trkpt lat="42.83301099999996" lon="-1.5996609999999967">
        <ele>436.074</ele>
        <time>2022-08-24T17:00:17Z</time>
      </trkpt>
      <trkpt lat="42.833004999999964" lon="-1.5997009999999967">
        <ele>436.040</ele>
        <time>2022-08-24T17:00:18Z</time>
      </trkpt>
      <trkpt lat="42.832993999999964" lon="-1.5997419999999967">
        <ele>436.022</ele>
        <time>2022-08-24T17:00:19Z</time>
      </trkpt>
      <trkpt lat="42.832936999999966" lon="-1.5999919999999968">
        <ele>436.229</ele>
        <time>2022-08-24T17:00:24Z</time>
      </trkpt>
      <trkpt lat="42.832922999999965" lon="-1.6000439999999967">
        <ele>436.252</ele>
        <time>2022-08-24T17:00:25Z</time>
      </trkpt>
      <trkpt lat="42.832911999999965" lon="-1.6000929999999967">
        <ele>436.246</ele>
        <time>2022-08-24T17:00:26Z</time>
      </trkpt>
      <trkpt lat="42.832902999999966" lon="-1.6001369999999966">
        <ele>436.215</ele>
        <time>2022-08-24T17:00:27Z</time>
      </trkpt>
      <trkpt lat="42.83289099999997" lon="-1.6002259999999966">
        <ele>436.268</ele>
        <time>2022-08-24T17:00:29Z</time>
      </trkpt>
      <trkpt lat="42.83288399999997" lon="-1.6002709999999967">
        <ele>436.242</ele>
        <time>2022-08-24T17:00:30Z</time>
      </trkpt>
      <trkpt lat="42.832876999999975" lon="-1.6003139999999967">
        <ele>436.226</ele>
        <time>2022-08-24T17:00:31Z</time>
      </trkpt>
      <trkpt lat="42.83287499999997" lon="-1.6003549999999966">
        <ele>436.409</ele>
        <time>2022-08-24T17:00:32Z</time>
      </trkpt>
      <trkpt lat="42.832873999999975" lon="-1.6003969999999967">
        <ele>436.437</ele>
        <time>2022-08-24T17:00:33Z</time>
      </trkpt>
      <trkpt lat="42.83287199999997" lon="-1.6004359999999966">
        <ele>436.617</ele>
        <time>2022-08-24T17:00:34Z</time>
      </trkpt>
      <trkpt lat="42.832867999999976" lon="-1.6005139999999967">
        <ele>437.227</ele>
        <time>2022-08-24T17:00:36Z</time>
      </trkpt>
      <trkpt lat="42.832868999999974" lon="-1.6005539999999967">
        <ele>437.263</ele>
        <time>2022-08-24T17:00:37Z</time>
      </trkpt>
      <trkpt lat="42.832867999999976" lon="-1.6005919999999967">
        <ele>437.425</ele>
        <time>2022-08-24T17:00:38Z</time>
      </trkpt>
      <trkpt lat="42.83286699999998" lon="-1.6006299999999967">
        <ele>437.612</ele>
        <time>2022-08-24T17:00:39Z</time>
      </trkpt>
      <trkpt lat="42.83286899999998" lon="-1.6007139999999966">
        <ele>437.855</ele>
        <time>2022-08-24T17:00:41Z</time>
      </trkpt>
      <trkpt lat="42.83287799999998" lon="-1.6007929999999966">
        <ele>437.659</ele>
        <time>2022-08-24T17:00:43Z</time>
      </trkpt>
      <trkpt lat="42.83289399999998" lon="-1.6008519999999966">
        <ele>437.648</ele>
        <time>2022-08-24T17:00:44Z</time>
      </trkpt>
      <trkpt lat="42.832909999999984" lon="-1.6009169999999966">
        <ele>437.448</ele>
        <time>2022-08-24T17:00:45Z</time>
      </trkpt>
      <trkpt lat="42.83291999999999" lon="-1.6009829999999965">
        <ele>437.461</ele>
        <time>2022-08-24T17:00:46Z</time>
      </trkpt>
      <trkpt lat="42.83294199999999" lon="-1.6010489999999964">
        <ele>437.017</ele>
        <time>2022-08-24T17:00:47Z</time>
      </trkpt>
      <trkpt lat="42.83295099999999" lon="-1.6011009999999963">
        <ele>436.809</ele>
        <time>2022-08-24T17:00:48Z</time>
      </trkpt>
      <trkpt lat="42.83296399999999" lon="-1.6011589999999962">
        <ele>436.825</ele>
        <time>2022-08-24T17:00:49Z</time>
      </trkpt>
      <trkpt lat="42.83296799999999" lon="-1.6012039999999963">
        <ele>436.645</ele>
        <time>2022-08-24T17:00:50Z</time>
      </trkpt>
      <trkpt lat="42.832968999999984" lon="-1.6012469999999963">
        <ele>436.655</ele>
        <time>2022-08-24T17:00:51Z</time>
      </trkpt>
      <trkpt lat="42.83296699999998" lon="-1.6012809999999964">
        <ele>436.621</ele>
        <time>2022-08-24T17:00:52Z</time>
      </trkpt>
      <trkpt lat="42.83297099999998" lon="-1.6013019999999965">
        <ele>436.683</ele>
        <time>2022-08-24T17:00:53Z</time>
      </trkpt>
      <trkpt lat="42.83297399999998" lon="-1.6013179999999965">
        <ele>436.640</ele>
        <time>2022-08-24T17:00:54Z</time>
      </trkpt>
      <trkpt lat="42.83297199999998" lon="-1.6013459999999964">
        <ele>436.623</ele>
        <time>2022-08-24T17:00:55Z</time>
      </trkpt>
      <trkpt lat="42.83296499999998" lon="-1.6013609999999965">
        <ele>436.647</ele>
        <time>2022-08-24T17:00:56Z</time>
      </trkpt>
      <trkpt lat="42.83296199999998" lon="-1.6013629999999965">
        <ele>436.676</ele>
        <time>2022-08-24T17:00:57Z</time>
      </trkpt>
      <trkpt lat="42.83296199999998" lon="-1.6013629999999965">
        <ele>436.637</ele>
        <time>2022-08-24T17:00:58Z</time>
      </trkpt>
      <trkpt lat="42.83296199999998" lon="-1.6013629999999965">
        <ele>436.649</ele>
        <time>2022-08-24T17:00:59Z</time>
      </trkpt>
      <trkpt lat="42.83296199999998" lon="-1.6013629999999965">
        <ele>436.613</ele>
        <time>2022-08-24T17:01:00Z</time>
      </trkpt>
      <trkpt lat="42.83296199999998" lon="-1.6013629999999965">
        <ele>436.609</ele>
        <time>2022-08-24T17:01:01Z</time>
      </trkpt>
      <trkpt lat="42.83296299999998" lon="-1.6013569999999966">
        <ele>436.634</ele>
        <time>2022-08-24T17:01:03Z</time>
      </trkpt>
      <trkpt lat="42.83296299999998" lon="-1.6013569999999966">
        <ele>436.684</ele>
        <time>2022-08-24T17:01:04Z</time>
      </trkpt>
      <trkpt lat="42.83295799999998" lon="-1.6013579999999965">
        <ele>436.684</ele>
        <time>2022-08-24T17:01:07Z</time>
      </trkpt>
      <trkpt lat="42.832941999999974" lon="-1.6013629999999965">
        <ele>436.630</ele>
        <time>2022-08-24T17:01:09Z</time>
      </trkpt>
      <trkpt lat="42.83292099999998" lon="-1.6013809999999966">
        <ele>436.632</ele>
        <time>2022-08-24T17:01:11Z</time>
      </trkpt>
      <trkpt lat="42.832904999999975" lon="-1.6013949999999966">
        <ele>436.669</ele>
        <time>2022-08-24T17:01:12Z</time>
      </trkpt>
      <trkpt lat="42.83286399999997" lon="-1.6014379999999966">
        <ele>436.612</ele>
        <time>2022-08-24T17:01:14Z</time>
      </trkpt>
      <trkpt lat="42.83271999999997" lon="-1.6015599999999965">
        <ele>436.636</ele>
        <time>2022-08-24T17:01:19Z</time>
      </trkpt>
      <trkpt lat="42.832665999999975" lon="-1.6016029999999966">
        <ele>436.475</ele>
        <time>2022-08-24T17:01:21Z</time>
      </trkpt>
      <trkpt lat="42.832538999999976" lon="-1.6016989999999967">
        <ele>436.467</ele>
        <time>2022-08-24T17:01:25Z</time>
      </trkpt>
      <trkpt lat="42.83250699999998" lon="-1.6017219999999968">
        <ele>436.281</ele>
        <time>2022-08-24T17:01:26Z</time>
      </trkpt>
      <trkpt lat="42.83248499999998" lon="-1.6017389999999967">
        <ele>436.219</ele>
        <time>2022-08-24T17:01:27Z</time>
      </trkpt>
      <trkpt lat="42.83245699999998" lon="-1.6017609999999967">
        <ele>436.209</ele>
        <time>2022-08-24T17:01:28Z</time>
      </trkpt>
      <trkpt lat="42.83235999999998" lon="-1.6018489999999967">
        <ele>436.227</ele>
        <time>2022-08-24T17:01:31Z</time>
      </trkpt>
      <trkpt lat="42.83233499999998" lon="-1.6018699999999968">
        <ele>436.027</ele>
        <time>2022-08-24T17:01:32Z</time>
      </trkpt>
      <trkpt lat="42.83230699999998" lon="-1.6018919999999968">
        <ele>435.887</ele>
        <time>2022-08-24T17:01:33Z</time>
      </trkpt>
      <trkpt lat="42.83228499999998" lon="-1.6019099999999968">
        <ele>435.883</ele>
        <time>2022-08-24T17:01:34Z</time>
      </trkpt>
      <trkpt lat="42.83225999999998" lon="-1.6019319999999968">
        <ele>435.625</ele>
        <time>2022-08-24T17:01:35Z</time>
      </trkpt>
      <trkpt lat="42.83223899999998" lon="-1.6019509999999968">
        <ele>435.642</ele>
        <time>2022-08-24T17:01:36Z</time>
      </trkpt>
      <trkpt lat="42.83216399999998" lon="-1.6020059999999967">
        <ele>435.675</ele>
        <time>2022-08-24T17:01:39Z</time>
      </trkpt>
      <trkpt lat="42.83210999999998" lon="-1.6020469999999967">
        <ele>435.659</ele>
        <time>2022-08-24T17:01:41Z</time>
      </trkpt>
      <trkpt lat="42.83202699999998" lon="-1.6021109999999967">
        <ele>435.648</ele>
        <time>2022-08-24T17:01:44Z</time>
      </trkpt>
      <trkpt lat="42.83199399999998" lon="-1.6021369999999968">
        <ele>435.457</ele>
        <time>2022-08-24T17:01:45Z</time>
      </trkpt>
      <trkpt lat="42.83196799999998" lon="-1.6021579999999969">
        <ele>435.400</ele>
        <time>2022-08-24T17:01:46Z</time>
      </trkpt>
      <trkpt lat="42.83186499999998" lon="-1.6022479999999968">
        <ele>435.220</ele>
        <time>2022-08-24T17:01:50Z</time>
      </trkpt>
      <trkpt lat="42.83183099999998" lon="-1.6022739999999969">
        <ele>435.209</ele>
        <time>2022-08-24T17:01:51Z</time>
      </trkpt>
      <trkpt lat="42.83180999999998" lon="-1.6022899999999969">
        <ele>435.296</ele>
        <time>2022-08-24T17:01:52Z</time>
      </trkpt>
      <trkpt lat="42.831786999999984" lon="-1.6023089999999969">
        <ele>435.276</ele>
        <time>2022-08-24T17:01:53Z</time>
      </trkpt>
      <trkpt lat="42.83176599999999" lon="-1.6023279999999969">
        <ele>435.276</ele>
        <time>2022-08-24T17:01:54Z</time>
      </trkpt>
      <trkpt lat="42.831738999999985" lon="-1.6023499999999968">
        <ele>435.262</ele>
        <time>2022-08-24T17:01:55Z</time>
      </trkpt>
      <trkpt lat="42.83171199999998" lon="-1.6023689999999968">
        <ele>435.234</ele>
        <time>2022-08-24T17:01:56Z</time>
      </trkpt>
      <trkpt lat="42.83169199999998" lon="-1.6023829999999968">
        <ele>435.031</ele>
        <time>2022-08-24T17:01:57Z</time>
      </trkpt>
      <trkpt lat="42.83166999999998" lon="-1.6024059999999969">
        <ele>435.024</ele>
        <time>2022-08-24T17:01:58Z</time>
      </trkpt>
      <trkpt lat="42.83164499999998" lon="-1.602423999999997">
        <ele>435.058</ele>
        <time>2022-08-24T17:01:59Z</time>
      </trkpt>
      <trkpt lat="42.83161499999998" lon="-1.602442999999997">
        <ele>435.067</ele>
        <time>2022-08-24T17:02:00Z</time>
      </trkpt>
      <trkpt lat="42.83159399999998" lon="-1.6024519999999969">
        <ele>434.896</ele>
        <time>2022-08-24T17:02:01Z</time>
      </trkpt>
      <trkpt lat="42.831575999999984" lon="-1.6024549999999969">
        <ele>434.831</ele>
        <time>2022-08-24T17:02:02Z</time>
      </trkpt>
      <trkpt lat="42.83155399999998" lon="-1.6024609999999968">
        <ele>434.824</ele>
        <time>2022-08-24T17:02:03Z</time>
      </trkpt>
      <trkpt lat="42.831535999999986" lon="-1.6024739999999968">
        <ele>434.809</ele>
        <time>2022-08-24T17:02:04Z</time>
      </trkpt>
      <trkpt lat="42.831521999999985" lon="-1.6024849999999968">
        <ele>434.640</ele>
        <time>2022-08-24T17:02:07Z</time>
      </trkpt>
      <trkpt lat="42.83151299999999" lon="-1.6024909999999968">
        <ele>434.660</ele>
        <time>2022-08-24T17:02:08Z</time>
      </trkpt>
      <trkpt lat="42.831504999999986" lon="-1.6025029999999967">
        <ele>434.650</ele>
        <time>2022-08-24T17:02:09Z</time>
      </trkpt>
      <trkpt lat="42.83145299999999" lon="-1.6025539999999967">
        <ele>434.666</ele>
        <time>2022-08-24T17:02:12Z</time>
      </trkpt>
      <trkpt lat="42.83133499999999" lon="-1.6026889999999967">
        <ele>434.438</ele>
        <time>2022-08-24T17:02:16Z</time>
      </trkpt>
      <trkpt lat="42.83129899999999" lon="-1.6027189999999967">
        <ele>434.415</ele>
        <time>2022-08-24T17:02:17Z</time>
      </trkpt>
      <trkpt lat="42.831195999999984" lon="-1.6028069999999968">
        <ele>434.848</ele>
        <time>2022-08-24T17:02:20Z</time>
      </trkpt>
      <trkpt lat="42.831152999999986" lon="-1.6028419999999968">
        <ele>434.822</ele>
        <time>2022-08-24T17:02:21Z</time>
      </trkpt>
      <trkpt lat="42.831113999999985" lon="-1.6028689999999968">
        <ele>434.881</ele>
        <time>2022-08-24T17:02:22Z</time>
      </trkpt>
      <trkpt lat="42.83108499999999" lon="-1.6028899999999968">
        <ele>434.846</ele>
        <time>2022-08-24T17:02:23Z</time>
      </trkpt>
      <trkpt lat="42.83105099999999" lon="-1.602915999999997">
        <ele>434.688</ele>
        <time>2022-08-24T17:02:24Z</time>
      </trkpt>
      <trkpt lat="42.83101899999999" lon="-1.602941999999997">
        <ele>434.816</ele>
        <time>2022-08-24T17:02:25Z</time>
      </trkpt>
      <trkpt lat="42.83098199999999" lon="-1.602974999999997">
        <ele>435.009</ele>
        <time>2022-08-24T17:02:26Z</time>
      </trkpt>
      <trkpt lat="42.83095399999999" lon="-1.6030029999999968">
        <ele>434.835</ele>
        <time>2022-08-24T17:02:27Z</time>
      </trkpt>
      <trkpt lat="42.83093199999999" lon="-1.603025999999997">
        <ele>435.015</ele>
        <time>2022-08-24T17:02:28Z</time>
      </trkpt>
      <trkpt lat="42.83082599999999" lon="-1.603105999999997">
        <ele>434.655</ele>
        <time>2022-08-24T17:02:31Z</time>
      </trkpt>
      <trkpt lat="42.83079399999999" lon="-1.6031319999999971">
        <ele>434.691</ele>
        <time>2022-08-24T17:02:32Z</time>
      </trkpt>
      <trkpt lat="42.83076799999999" lon="-1.603151999999997">
        <ele>434.483</ele>
        <time>2022-08-24T17:02:33Z</time>
      </trkpt>
      <trkpt lat="42.83073699999999" lon="-1.603175999999997">
        <ele>434.430</ele>
        <time>2022-08-24T17:02:34Z</time>
      </trkpt>
      <trkpt lat="42.83070699999999" lon="-1.603202999999997">
        <ele>434.463</ele>
        <time>2022-08-24T17:02:35Z</time>
      </trkpt>
      <trkpt lat="42.83067399999999" lon="-1.603230999999997">
        <ele>434.247</ele>
        <time>2022-08-24T17:02:36Z</time>
      </trkpt>
      <trkpt lat="42.830646999999985" lon="-1.603248999999997">
        <ele>434.266</ele>
        <time>2022-08-24T17:02:37Z</time>
      </trkpt>
      <trkpt lat="42.83062499999998" lon="-1.603260999999997">
        <ele>434.288</ele>
        <time>2022-08-24T17:02:38Z</time>
      </trkpt>
      <trkpt lat="42.83060099999998" lon="-1.603275999999997">
        <ele>434.224</ele>
        <time>2022-08-24T17:02:39Z</time>
      </trkpt>
      <trkpt lat="42.83058299999998" lon="-1.603293999999997">
        <ele>434.226</ele>
        <time>2022-08-24T17:02:40Z</time>
      </trkpt>
      <trkpt lat="42.83055899999998" lon="-1.603315999999997">
        <ele>434.209</ele>
        <time>2022-08-24T17:02:41Z</time>
      </trkpt>
      <trkpt lat="42.83049699999998" lon="-1.603370999999997">
        <ele>434.269</ele>
        <time>2022-08-24T17:02:44Z</time>
      </trkpt>
      <trkpt lat="42.83047599999998" lon="-1.603387999999997">
        <ele>434.219</ele>
        <time>2022-08-24T17:02:45Z</time>
      </trkpt>
      <trkpt lat="42.83044899999998" lon="-1.603400999999997">
        <ele>434.229</ele>
        <time>2022-08-24T17:02:46Z</time>
      </trkpt>
      <trkpt lat="42.83042699999998" lon="-1.603410999999997">
        <ele>434.245</ele>
        <time>2022-08-24T17:02:47Z</time>
      </trkpt>
      <trkpt lat="42.83039199999998" lon="-1.603439999999997">
        <ele>434.487</ele>
        <time>2022-08-24T17:02:49Z</time>
      </trkpt>
      <trkpt lat="42.83037499999998" lon="-1.603456999999997">
        <ele>434.454</ele>
        <time>2022-08-24T17:02:50Z</time>
      </trkpt>
      <trkpt lat="42.83035499999998" lon="-1.603473999999997">
        <ele>434.457</ele>
        <time>2022-08-24T17:02:51Z</time>
      </trkpt>
      <trkpt lat="42.83034499999998" lon="-1.603484999999997">
        <ele>434.481</ele>
        <time>2022-08-24T17:02:52Z</time>
      </trkpt>
      <trkpt lat="42.83032799999998" lon="-1.603498999999997">
        <ele>434.690</ele>
        <time>2022-08-24T17:02:53Z</time>
      </trkpt>
      <trkpt lat="42.83031599999998" lon="-1.603505999999997">
        <ele>434.675</ele>
        <time>2022-08-24T17:02:54Z</time>
      </trkpt>
      <trkpt lat="42.830303999999984" lon="-1.603513999999997">
        <ele>434.628</ele>
        <time>2022-08-24T17:02:55Z</time>
      </trkpt>
      <trkpt lat="42.83031399999999" lon="-1.603565999999997">
        <ele>434.420</ele>
        <time>2022-08-24T17:03:06Z</time>
      </trkpt>
      <trkpt lat="42.830319999999986" lon="-1.603586999999997">
        <ele>434.409</ele>
        <time>2022-08-24T17:03:07Z</time>
      </trkpt>
      <trkpt lat="42.830320999999984" lon="-1.603611999999997">
        <ele>434.488</ele>
        <time>2022-08-24T17:03:08Z</time>
      </trkpt>
      <trkpt lat="42.830311999999985" lon="-1.6036369999999969">
        <ele>434.268</ele>
        <time>2022-08-24T17:03:09Z</time>
      </trkpt>
      <trkpt lat="42.83029699999999" lon="-1.6036589999999968">
        <ele>434.268</ele>
        <time>2022-08-24T17:03:10Z</time>
      </trkpt>
      <trkpt lat="42.83027899999999" lon="-1.6036829999999969">
        <ele>434.084</ele>
        <time>2022-08-24T17:03:11Z</time>
      </trkpt>
      <trkpt lat="42.83024699999999" lon="-1.6037339999999969">
        <ele>434.066</ele>
        <time>2022-08-24T17:03:13Z</time>
      </trkpt>
      <trkpt lat="42.830237999999994" lon="-1.6037619999999968">
        <ele>434.023</ele>
        <time>2022-08-24T17:03:14Z</time>
      </trkpt>
      <trkpt lat="42.830228999999996" lon="-1.6037879999999969">
        <ele>434.046</ele>
        <time>2022-08-24T17:03:15Z</time>
      </trkpt>
      <trkpt lat="42.830225999999996" lon="-1.603811999999997">
        <ele>434.040</ele>
        <time>2022-08-24T17:03:16Z</time>
      </trkpt>
      <trkpt lat="42.830219" lon="-1.603835999999997">
        <ele>434.049</ele>
        <time>2022-08-24T17:03:17Z</time>
      </trkpt>
      <trkpt lat="42.830188" lon="-1.603873999999997">
        <ele>433.874</ele>
        <time>2022-08-24T17:03:19Z</time>
      </trkpt>
      <trkpt lat="42.830177" lon="-1.603888999999997">
        <ele>433.856</ele>
        <time>2022-08-24T17:03:20Z</time>
      </trkpt>
      <trkpt lat="42.830166999999996" lon="-1.603908999999997">
        <ele>433.821</ele>
        <time>2022-08-24T17:03:21Z</time>
      </trkpt>
      <trkpt lat="42.830161999999994" lon="-1.6039149999999969">
        <ele>433.809</ele>
        <time>2022-08-24T17:03:22Z</time>
      </trkpt>
      <trkpt lat="42.830155" lon="-1.603927999999997">
        <ele>433.898</ele>
        <time>2022-08-24T17:03:24Z</time>
      </trkpt>
      <trkpt lat="42.830135999999996" lon="-1.6039339999999969">
        <ele>433.848</ele>
        <time>2022-08-24T17:03:26Z</time>
      </trkpt>
      <trkpt lat="42.830118" lon="-1.603951999999997">
        <ele>433.838</ele>
        <time>2022-08-24T17:03:35Z</time>
      </trkpt>
      <trkpt lat="42.83009" lon="-1.6039989999999968">
        <ele>433.884</ele>
        <time>2022-08-24T17:03:38Z</time>
      </trkpt>
      <trkpt lat="42.830076" lon="-1.6040129999999968">
        <ele>433.876</ele>
        <time>2022-08-24T17:03:39Z</time>
      </trkpt>
      <trkpt lat="42.830048" lon="-1.6040669999999968">
        <ele>433.863</ele>
        <time>2022-08-24T17:03:41Z</time>
      </trkpt>
      <trkpt lat="42.829971" lon="-1.6042029999999967">
        <ele>433.856</ele>
        <time>2022-08-24T17:03:45Z</time>
      </trkpt>
      <trkpt lat="42.829943" lon="-1.6042339999999966">
        <ele>433.810</ele>
        <time>2022-08-24T17:03:46Z</time>
      </trkpt>
      <trkpt lat="42.829906" lon="-1.6042659999999966">
        <ele>433.819</ele>
        <time>2022-08-24T17:03:47Z</time>
      </trkpt>
      <trkpt lat="42.829886" lon="-1.6042859999999965">
        <ele>433.822</ele>
        <time>2022-08-24T17:03:48Z</time>
      </trkpt>
      <trkpt lat="42.829865000000005" lon="-1.6043169999999964">
        <ele>433.862</ele>
        <time>2022-08-24T17:03:49Z</time>
      </trkpt>
      <trkpt lat="42.829843000000004" lon="-1.6043459999999965">
        <ele>433.808</ele>
        <time>2022-08-24T17:03:50Z</time>
      </trkpt>
      <trkpt lat="42.829820000000005" lon="-1.6043729999999965">
        <ele>433.809</ele>
        <time>2022-08-24T17:03:51Z</time>
      </trkpt>
      <trkpt lat="42.829796" lon="-1.6043969999999965">
        <ele>433.873</ele>
        <time>2022-08-24T17:03:52Z</time>
      </trkpt>
      <trkpt lat="42.829767000000004" lon="-1.6044269999999965">
        <ele>433.873</ele>
        <time>2022-08-24T17:03:53Z</time>
      </trkpt>
      <trkpt lat="42.829745" lon="-1.6044499999999966">
        <ele>433.833</ele>
        <time>2022-08-24T17:03:54Z</time>
      </trkpt>
      <trkpt lat="42.829729" lon="-1.6044749999999965">
        <ele>433.899</ele>
        <time>2022-08-24T17:03:55Z</time>
      </trkpt>
      <trkpt lat="42.829716" lon="-1.6044989999999966">
        <ele>433.831</ele>
        <time>2022-08-24T17:03:56Z</time>
      </trkpt>
      <trkpt lat="42.829713999999996" lon="-1.6045349999999965">
        <ele>433.848</ele>
        <time>2022-08-24T17:03:57Z</time>
      </trkpt>
      <trkpt lat="42.829705" lon="-1.6045709999999964">
        <ele>433.851</ele>
        <time>2022-08-24T17:03:58Z</time>
      </trkpt>
      <trkpt lat="42.829691" lon="-1.6045799999999963">
        <ele>433.855</ele>
        <time>2022-08-24T17:03:59Z</time>
      </trkpt>
      <trkpt lat="42.829668999999996" lon="-1.6045979999999964">
        <ele>433.834</ele>
        <time>2022-08-24T17:04:00Z</time>
      </trkpt>
      <trkpt lat="42.829654999999995" lon="-1.6046179999999963">
        <ele>433.866</ele>
        <time>2022-08-24T17:04:01Z</time>
      </trkpt>
      <trkpt lat="42.82964199999999" lon="-1.6046389999999964">
        <ele>433.829</ele>
        <time>2022-08-24T17:04:02Z</time>
      </trkpt>
      <trkpt lat="42.829626999999995" lon="-1.6046589999999963">
        <ele>433.821</ele>
        <time>2022-08-24T17:04:03Z</time>
      </trkpt>
      <trkpt lat="42.82961699999999" lon="-1.6046709999999962">
        <ele>433.809</ele>
        <time>2022-08-24T17:04:04Z</time>
      </trkpt>
      <trkpt lat="42.82960799999999" lon="-1.6046879999999961">
        <ele>433.837</ele>
        <time>2022-08-24T17:04:05Z</time>
      </trkpt>
      <trkpt lat="42.82960299999999" lon="-1.604704999999996">
        <ele>433.817</ele>
        <time>2022-08-24T17:04:06Z</time>
      </trkpt>
      <trkpt lat="42.82959999999999" lon="-1.604718999999996">
        <ele>433.857</ele>
        <time>2022-08-24T17:04:07Z</time>
      </trkpt>
      <trkpt lat="42.82956199999999" lon="-1.604725999999996">
        <ele>433.833</ele>
        <time>2022-08-24T17:04:19Z</time>
      </trkpt>
      <trkpt lat="42.82954999999999" lon="-1.6047219999999962">
        <ele>433.885</ele>
        <time>2022-08-24T17:04:20Z</time>
      </trkpt>
      <trkpt lat="42.82949899999999" lon="-1.6047169999999962">
        <ele>433.812</ele>
        <time>2022-08-24T17:04:23Z</time>
      </trkpt>
      <trkpt lat="42.82948699999999" lon="-1.6047279999999962">
        <ele>433.885</ele>
        <time>2022-08-24T17:04:24Z</time>
      </trkpt>
      <trkpt lat="42.82947899999999" lon="-1.604739999999996">
        <ele>434.029</ele>
        <time>2022-08-24T17:04:25Z</time>
      </trkpt>
      <trkpt lat="42.82946999999999" lon="-1.604752999999996">
        <ele>434.078</ele>
        <time>2022-08-24T17:04:26Z</time>
      </trkpt>
      <trkpt lat="42.829457999999995" lon="-1.6047629999999962">
        <ele>434.086</ele>
        <time>2022-08-24T17:04:27Z</time>
      </trkpt>
      <trkpt lat="42.82944199999999" lon="-1.604766999999996">
        <ele>434.060</ele>
        <time>2022-08-24T17:04:28Z</time>
      </trkpt>
      <trkpt lat="42.82942599999999" lon="-1.604766999999996">
        <ele>434.026</ele>
        <time>2022-08-24T17:04:29Z</time>
      </trkpt>
      <trkpt lat="42.82941699999999" lon="-1.604764999999996">
        <ele>434.009</ele>
        <time>2022-08-24T17:04:30Z</time>
      </trkpt>
      <trkpt lat="42.829404999999994" lon="-1.604760999999996">
        <ele>434.029</ele>
        <time>2022-08-24T17:04:31Z</time>
      </trkpt>
      <trkpt lat="42.82939199999999" lon="-1.6047579999999961">
        <ele>434.099</ele>
        <time>2022-08-24T17:04:32Z</time>
      </trkpt>
      <trkpt lat="42.829373999999994" lon="-1.6047569999999962">
        <ele>434.059</ele>
        <time>2022-08-24T17:04:33Z</time>
      </trkpt>
      <trkpt lat="42.829238999999994" lon="-1.6047929999999961">
        <ele>433.655</ele>
        <time>2022-08-24T17:04:40Z</time>
      </trkpt>
      <trkpt lat="42.82921499999999" lon="-1.604804999999996">
        <ele>433.417</ele>
        <time>2022-08-24T17:04:41Z</time>
      </trkpt>
      <trkpt lat="42.82915999999999" lon="-1.604828999999996">
        <ele>433.264</ele>
        <time>2022-08-24T17:04:43Z</time>
      </trkpt>
      <trkpt lat="42.829140999999986" lon="-1.604840999999996">
        <ele>433.027</ele>
        <time>2022-08-24T17:04:44Z</time>
      </trkpt>
      <trkpt lat="42.82912899999999" lon="-1.604855999999996">
        <ele>433.041</ele>
        <time>2022-08-24T17:04:45Z</time>
      </trkpt>
      <trkpt lat="42.829115999999985" lon="-1.604872999999996">
        <ele>433.040</ele>
        <time>2022-08-24T17:04:46Z</time>
      </trkpt>
      <trkpt lat="42.82910299999998" lon="-1.604884999999996">
        <ele>433.018</ele>
        <time>2022-08-24T17:04:47Z</time>
      </trkpt>
      <trkpt lat="42.82908699999998" lon="-1.604903999999996">
        <ele>432.898</ele>
        <time>2022-08-24T17:04:48Z</time>
      </trkpt>
      <trkpt lat="42.82907199999998" lon="-1.6049179999999958">
        <ele>432.617</ele>
        <time>2022-08-24T17:04:49Z</time>
      </trkpt>
      <trkpt lat="42.82905599999998" lon="-1.6049209999999958">
        <ele>432.609</ele>
        <time>2022-08-24T17:04:50Z</time>
      </trkpt>
      <trkpt lat="42.82903699999998" lon="-1.6049159999999958">
        <ele>432.642</ele>
        <time>2022-08-24T17:04:51Z</time>
      </trkpt>
      <trkpt lat="42.829023999999976" lon="-1.6049079999999958">
        <ele>432.662</ele>
        <time>2022-08-24T17:04:52Z</time>
      </trkpt>
      <trkpt lat="42.829009999999975" lon="-1.6048999999999958">
        <ele>432.462</ele>
        <time>2022-08-24T17:04:53Z</time>
      </trkpt>
      <trkpt lat="42.82899499999998" lon="-1.6048879999999959">
        <ele>432.458</ele>
        <time>2022-08-24T17:04:54Z</time>
      </trkpt>
      <trkpt lat="42.82897699999998" lon="-1.6048719999999959">
        <ele>432.430</ele>
        <time>2022-08-24T17:04:55Z</time>
      </trkpt>
      <trkpt lat="42.82895699999998" lon="-1.6048569999999958">
        <ele>432.457</ele>
        <time>2022-08-24T17:04:56Z</time>
      </trkpt>
      <trkpt lat="42.82892099999998" lon="-1.6048219999999958">
        <ele>432.460</ele>
        <time>2022-08-24T17:04:58Z</time>
      </trkpt>
      <trkpt lat="42.82891499999998" lon="-1.6047999999999958">
        <ele>432.664</ele>
        <time>2022-08-24T17:04:59Z</time>
      </trkpt>
      <trkpt lat="42.82890499999998" lon="-1.6047839999999958">
        <ele>432.663</ele>
        <time>2022-08-24T17:05:00Z</time>
      </trkpt>
      <trkpt lat="42.828882999999976" lon="-1.6047749999999958">
        <ele>432.654</ele>
        <time>2022-08-24T17:05:01Z</time>
      </trkpt>
      <trkpt lat="42.82886299999998" lon="-1.604770999999996">
        <ele>432.856</ele>
        <time>2022-08-24T17:05:02Z</time>
      </trkpt>
      <trkpt lat="42.82885399999998" lon="-1.604773999999996">
        <ele>432.811</ele>
        <time>2022-08-24T17:05:03Z</time>
      </trkpt>
      <trkpt lat="42.82883899999998" lon="-1.604784999999996">
        <ele>432.809</ele>
        <time>2022-08-24T17:05:04Z</time>
      </trkpt>
      <trkpt lat="42.82878199999998" lon="-1.6048149999999959">
        <ele>432.826</ele>
        <time>2022-08-24T17:05:07Z</time>
      </trkpt>
      <trkpt lat="42.82876499999998" lon="-1.604813999999996">
        <ele>433.096</ele>
        <time>2022-08-24T17:05:08Z</time>
      </trkpt>
      <trkpt lat="42.82872599999998" lon="-1.604812999999996">
        <ele>433.046</ele>
        <time>2022-08-24T17:05:10Z</time>
      </trkpt>
      <trkpt lat="42.82870599999998" lon="-1.6048119999999961">
        <ele>433.032</ele>
        <time>2022-08-24T17:05:11Z</time>
      </trkpt>
      <trkpt lat="42.82868199999998" lon="-1.604815999999996">
        <ele>433.094</ele>
        <time>2022-08-24T17:05:12Z</time>
      </trkpt>
      <trkpt lat="42.82866099999998" lon="-1.604821999999996">
        <ele>433.071</ele>
        <time>2022-08-24T17:05:13Z</time>
      </trkpt>
      <trkpt lat="42.82860799999998" lon="-1.604846999999996">
        <ele>433.064</ele>
        <time>2022-08-24T17:05:15Z</time>
      </trkpt>
      <trkpt lat="42.82848899999998" lon="-1.604915999999996">
        <ele>432.848</ele>
        <time>2022-08-24T17:05:20Z</time>
      </trkpt>
      <trkpt lat="42.82847799999998" lon="-1.604923999999996">
        <ele>432.857</ele>
        <time>2022-08-24T17:05:21Z</time>
      </trkpt>
      <trkpt lat="42.82846699999998" lon="-1.604927999999996">
        <ele>432.872</ele>
        <time>2022-08-24T17:05:22Z</time>
      </trkpt>
      <trkpt lat="42.828459999999986" lon="-1.6049319999999958">
        <ele>432.213</ele>
        <time>2022-08-24T17:05:39Z</time>
      </trkpt>
      <trkpt lat="42.828344999999985" lon="-1.6049529999999959">
        <ele>432.414</ele>
        <time>2022-08-24T17:05:43Z</time>
      </trkpt>
      <trkpt lat="42.82830899999998" lon="-1.6049609999999959">
        <ele>432.409</ele>
        <time>2022-08-24T17:05:44Z</time>
      </trkpt>
      <trkpt lat="42.82823999999998" lon="-1.6049729999999958">
        <ele>432.458</ele>
        <time>2022-08-24T17:05:46Z</time>
      </trkpt>
      <trkpt lat="42.82819599999998" lon="-1.6049739999999957">
        <ele>432.438</ele>
        <time>2022-08-24T17:05:47Z</time>
      </trkpt>
      <trkpt lat="42.828044999999975" lon="-1.6050399999999956">
        <ele>432.238</ele>
        <time>2022-08-24T17:05:51Z</time>
      </trkpt>
      <trkpt lat="42.82801299999998" lon="-1.6050569999999955">
        <ele>432.234</ele>
        <time>2022-08-24T17:05:52Z</time>
      </trkpt>
      <trkpt lat="42.827985999999974" lon="-1.6050749999999956">
        <ele>432.276</ele>
        <time>2022-08-24T17:05:53Z</time>
      </trkpt>
      <trkpt lat="42.82794799999997" lon="-1.6050959999999956">
        <ele>432.233</ele>
        <time>2022-08-24T17:05:54Z</time>
      </trkpt>
      <trkpt lat="42.82791499999997" lon="-1.6051189999999957">
        <ele>432.236</ele>
        <time>2022-08-24T17:05:55Z</time>
      </trkpt>
      <trkpt lat="42.82789199999997" lon="-1.6051269999999958">
        <ele>432.280</ele>
        <time>2022-08-24T17:05:56Z</time>
      </trkpt>
      <trkpt lat="42.82786799999997" lon="-1.6051319999999958">
        <ele>432.039</ele>
        <time>2022-08-24T17:05:57Z</time>
      </trkpt>
      <trkpt lat="42.82784799999997" lon="-1.6051419999999958">
        <ele>432.066</ele>
        <time>2022-08-24T17:05:58Z</time>
      </trkpt>
      <trkpt lat="42.82770699999997" lon="-1.6052209999999958">
        <ele>432.029</ele>
        <time>2022-08-24T17:06:03Z</time>
      </trkpt>
      <trkpt lat="42.827662999999966" lon="-1.6052649999999957">
        <ele>432.221</ele>
        <time>2022-08-24T17:06:05Z</time>
      </trkpt>
      <trkpt lat="42.82764199999997" lon="-1.6052849999999956">
        <ele>432.009</ele>
        <time>2022-08-24T17:06:06Z</time>
      </trkpt>
      <trkpt lat="42.82762299999997" lon="-1.6053039999999956">
        <ele>432.287</ele>
        <time>2022-08-24T17:06:07Z</time>
      </trkpt>
      <trkpt lat="42.827614999999966" lon="-1.6053139999999957">
        <ele>432.267</ele>
        <time>2022-08-24T17:06:08Z</time>
      </trkpt>
      <trkpt lat="42.82760599999997" lon="-1.6053299999999957">
        <ele>432.277</ele>
        <time>2022-08-24T17:06:09Z</time>
      </trkpt>
      <trkpt lat="42.82759899999997" lon="-1.6053429999999957">
        <ele>432.263</ele>
        <time>2022-08-24T17:06:10Z</time>
      </trkpt>
      <trkpt lat="42.827591999999974" lon="-1.6053519999999957">
        <ele>432.465</ele>
        <time>2022-08-24T17:06:11Z</time>
      </trkpt>
      <trkpt lat="42.82758699999997" lon="-1.6053619999999957">
        <ele>433.012</ele>
        <time>2022-08-24T17:06:18Z</time>
      </trkpt>
      <trkpt lat="42.82757699999997" lon="-1.6053839999999957">
        <ele>433.225</ele>
        <time>2022-08-24T17:06:20Z</time>
      </trkpt>
      <trkpt lat="42.82755699999997" lon="-1.6054089999999956">
        <ele>433.499</ele>
        <time>2022-08-24T17:06:23Z</time>
      </trkpt>
      <trkpt lat="42.82754699999997" lon="-1.6054179999999956">
        <ele>433.468</ele>
        <time>2022-08-24T17:06:24Z</time>
      </trkpt>
      <trkpt lat="42.82753499999997" lon="-1.6054249999999957">
        <ele>433.488</ele>
        <time>2022-08-24T17:06:25Z</time>
      </trkpt>
      <trkpt lat="42.82752799999997" lon="-1.6054439999999957">
        <ele>433.624</ele>
        <time>2022-08-24T17:06:26Z</time>
      </trkpt>
      <trkpt lat="42.827518999999974" lon="-1.6054599999999957">
        <ele>433.626</ele>
        <time>2022-08-24T17:06:27Z</time>
      </trkpt>
      <trkpt lat="42.827509999999975" lon="-1.6054719999999956">
        <ele>433.609</ele>
        <time>2022-08-24T17:06:28Z</time>
      </trkpt>
      <trkpt lat="42.82751199999998" lon="-1.6054809999999955">
        <ele>433.859</ele>
        <time>2022-08-24T17:06:29Z</time>
      </trkpt>
      <trkpt lat="42.827512999999975" lon="-1.6054979999999954">
        <ele>433.839</ele>
        <time>2022-08-24T17:06:30Z</time>
      </trkpt>
      <trkpt lat="42.827501999999974" lon="-1.6055519999999954">
        <ele>434.039</ele>
        <time>2022-08-24T17:06:33Z</time>
      </trkpt>
      <trkpt lat="42.827495999999975" lon="-1.6055609999999954">
        <ele>434.235</ele>
        <time>2022-08-24T17:06:35Z</time>
      </trkpt>
      <trkpt lat="42.827490999999974" lon="-1.6055689999999954">
        <ele>434.437</ele>
        <time>2022-08-24T17:06:36Z</time>
      </trkpt>
      <trkpt lat="42.827484999999974" lon="-1.6055799999999953">
        <ele>434.664</ele>
        <time>2022-08-24T17:06:37Z</time>
      </trkpt>
      <trkpt lat="42.82748099999998" lon="-1.6055919999999952">
        <ele>434.827</ele>
        <time>2022-08-24T17:06:38Z</time>
      </trkpt>
      <trkpt lat="42.827478999999975" lon="-1.6056039999999951">
        <ele>435.061</ele>
        <time>2022-08-24T17:06:39Z</time>
      </trkpt>
      <trkpt lat="42.82747799999998" lon="-1.6056199999999952">
        <ele>435.080</ele>
        <time>2022-08-24T17:06:40Z</time>
      </trkpt>
      <trkpt lat="42.82747999999998" lon="-1.6056359999999952">
        <ele>435.447</ele>
        <time>2022-08-24T17:06:41Z</time>
      </trkpt>
      <trkpt lat="42.82748399999998" lon="-1.6056529999999951">
        <ele>435.429</ele>
        <time>2022-08-24T17:06:42Z</time>
      </trkpt>
      <trkpt lat="42.82748299999998" lon="-1.605663999999995">
        <ele>435.621</ele>
        <time>2022-08-24T17:06:43Z</time>
      </trkpt>
      <trkpt lat="42.82747999999998" lon="-1.605672999999995">
        <ele>435.609</ele>
        <time>2022-08-24T17:06:44Z</time>
      </trkpt>
      <trkpt lat="42.82747999999998" lon="-1.605685999999995">
        <ele>435.855</ele>
        <time>2022-08-24T17:06:45Z</time>
      </trkpt>
      <trkpt lat="42.82747699999998" lon="-1.605710999999995">
        <ele>435.845</ele>
        <time>2022-08-24T17:06:47Z</time>
      </trkpt>
      <trkpt lat="42.82747599999998" lon="-1.605719999999995">
        <ele>436.095</ele>
        <time>2022-08-24T17:06:50Z</time>
      </trkpt>
      <trkpt lat="42.827474999999986" lon="-1.605730999999995">
        <ele>436.071</ele>
        <time>2022-08-24T17:06:51Z</time>
      </trkpt>
      <trkpt lat="42.82747599999998" lon="-1.605748999999995">
        <ele>436.063</ele>
        <time>2022-08-24T17:06:52Z</time>
      </trkpt>
      <trkpt lat="42.827477999999985" lon="-1.605762999999995">
        <ele>436.080</ele>
        <time>2022-08-24T17:06:53Z</time>
      </trkpt>
      <trkpt lat="42.82747699999999" lon="-1.605775999999995">
        <ele>436.083</ele>
        <time>2022-08-24T17:06:54Z</time>
      </trkpt>
      <trkpt lat="42.82746799999999" lon="-1.605923999999995">
        <ele>436.077</ele>
        <time>2022-08-24T17:06:59Z</time>
      </trkpt>
      <trkpt lat="42.82746499999999" lon="-1.605972999999995">
        <ele>436.026</ele>
        <time>2022-08-24T17:07:00Z</time>
      </trkpt>
      <trkpt lat="42.82743499999999" lon="-1.606123999999995">
        <ele>435.832</ele>
        <time>2022-08-24T17:07:03Z</time>
      </trkpt>
      <trkpt lat="42.82741999999999" lon="-1.606163999999995">
        <ele>435.492</ele>
        <time>2022-08-24T17:07:04Z</time>
      </trkpt>
      <trkpt lat="42.82740299999999" lon="-1.6061899999999951">
        <ele>435.211</ele>
        <time>2022-08-24T17:07:05Z</time>
      </trkpt>
      <trkpt lat="42.82738599999999" lon="-1.6062059999999951">
        <ele>434.809</ele>
        <time>2022-08-24T17:07:06Z</time>
      </trkpt>
      <trkpt lat="42.82736399999999" lon="-1.606222999999995">
        <ele>434.684</ele>
        <time>2022-08-24T17:07:07Z</time>
      </trkpt>
      <trkpt lat="42.827350999999986" lon="-1.6062329999999951">
        <ele>434.424</ele>
        <time>2022-08-24T17:07:08Z</time>
      </trkpt>
      <trkpt lat="42.82734199999999" lon="-1.606241999999995">
        <ele>434.444</ele>
        <time>2022-08-24T17:07:09Z</time>
      </trkpt>
      <trkpt lat="42.827333999999986" lon="-1.606250999999995">
        <ele>434.490</ele>
        <time>2022-08-24T17:07:10Z</time>
      </trkpt>
      <trkpt lat="42.82732099999998" lon="-1.606262999999995">
        <ele>434.232</ele>
        <time>2022-08-24T17:07:11Z</time>
      </trkpt>
      <trkpt lat="42.827294999999985" lon="-1.606280999999995">
        <ele>434.249</ele>
        <time>2022-08-24T17:07:12Z</time>
      </trkpt>
      <trkpt lat="42.827277999999986" lon="-1.606299999999995">
        <ele>434.242</ele>
        <time>2022-08-24T17:07:13Z</time>
      </trkpt>
      <trkpt lat="42.82720699999999" lon="-1.606367999999995">
        <ele>434.496</ele>
        <time>2022-08-24T17:07:16Z</time>
      </trkpt>
      <trkpt lat="42.827181999999986" lon="-1.606405999999995">
        <ele>434.445</ele>
        <time>2022-08-24T17:07:17Z</time>
      </trkpt>
      <trkpt lat="42.827091999999986" lon="-1.6065519999999949">
        <ele>434.031</ele>
        <time>2022-08-24T17:07:20Z</time>
      </trkpt>
      <trkpt lat="42.82705399999998" lon="-1.6066139999999949">
        <ele>433.661</ele>
        <time>2022-08-24T17:07:21Z</time>
      </trkpt>
      <trkpt lat="42.82700999999998" lon="-1.6066789999999949">
        <ele>433.407</ele>
        <time>2022-08-24T17:07:22Z</time>
      </trkpt>
      <trkpt lat="42.82696999999998" lon="-1.6067359999999948">
        <ele>432.809</ele>
        <time>2022-08-24T17:07:23Z</time>
      </trkpt>
      <trkpt lat="42.82693399999998" lon="-1.606780999999995">
        <ele>432.684</ele>
        <time>2022-08-24T17:07:24Z</time>
      </trkpt>
      <trkpt lat="42.82690799999998" lon="-1.6068139999999949">
        <ele>432.414</ele>
        <time>2022-08-24T17:07:25Z</time>
      </trkpt>
      <trkpt lat="42.826886999999985" lon="-1.6068729999999949">
        <ele>432.024</ele>
        <time>2022-08-24T17:07:26Z</time>
      </trkpt>
      <trkpt lat="42.82686099999999" lon="-1.606949999999995">
        <ele>431.850</ele>
        <time>2022-08-24T17:07:28Z</time>
      </trkpt>
      <trkpt lat="42.826844999999985" lon="-1.606985999999995">
        <ele>431.682</ele>
        <time>2022-08-24T17:07:29Z</time>
      </trkpt>
      <trkpt lat="42.826819999999984" lon="-1.607022999999995">
        <ele>431.429</ele>
        <time>2022-08-24T17:07:30Z</time>
      </trkpt>
      <trkpt lat="42.826793999999985" lon="-1.607059999999995">
        <ele>431.492</ele>
        <time>2022-08-24T17:07:31Z</time>
      </trkpt>
      <trkpt lat="42.82677099999999" lon="-1.607089999999995">
        <ele>431.446</ele>
        <time>2022-08-24T17:07:32Z</time>
      </trkpt>
      <trkpt lat="42.826743999999984" lon="-1.607121999999995">
        <ele>431.235</ele>
        <time>2022-08-24T17:07:33Z</time>
      </trkpt>
      <trkpt lat="42.82672599999999" lon="-1.607145999999995">
        <ele>431.282</ele>
        <time>2022-08-24T17:07:34Z</time>
      </trkpt>
      <trkpt lat="42.82670799999999" lon="-1.6071719999999952">
        <ele>431.243</ele>
        <time>2022-08-24T17:07:35Z</time>
      </trkpt>
      <trkpt lat="42.82665799999999" lon="-1.6072339999999952">
        <ele>431.217</ele>
        <time>2022-08-24T17:07:37Z</time>
      </trkpt>
      <trkpt lat="42.82660099999999" lon="-1.6073119999999952">
        <ele>431.209</ele>
        <time>2022-08-24T17:07:39Z</time>
      </trkpt>
      <trkpt lat="42.826562999999986" lon="-1.6073559999999951">
        <ele>431.239</ele>
        <time>2022-08-24T17:07:40Z</time>
      </trkpt>
      <trkpt lat="42.82652899999999" lon="-1.6074089999999952">
        <ele>431.299</ele>
        <time>2022-08-24T17:07:41Z</time>
      </trkpt>
      <trkpt lat="42.826500999999986" lon="-1.6074569999999953">
        <ele>431.069</ele>
        <time>2022-08-24T17:07:42Z</time>
      </trkpt>
      <trkpt lat="42.82648299999999" lon="-1.6074919999999953">
        <ele>431.085</ele>
        <time>2022-08-24T17:07:43Z</time>
      </trkpt>
      <trkpt lat="42.82646499999999" lon="-1.6075269999999953">
        <ele>431.087</ele>
        <time>2022-08-24T17:07:44Z</time>
      </trkpt>
      <trkpt lat="42.82644599999999" lon="-1.6075569999999952">
        <ele>431.054</ele>
        <time>2022-08-24T17:07:45Z</time>
      </trkpt>
      <trkpt lat="42.82642999999999" lon="-1.6075929999999952">
        <ele>431.227</ele>
        <time>2022-08-24T17:07:46Z</time>
      </trkpt>
      <trkpt lat="42.82637299999999" lon="-1.6076619999999953">
        <ele>431.211</ele>
        <time>2022-08-24T17:07:48Z</time>
      </trkpt>
      <trkpt lat="42.82625799999999" lon="-1.6078889999999952">
        <ele>431.480</ele>
        <time>2022-08-24T17:07:52Z</time>
      </trkpt>
      <trkpt lat="42.82623299999999" lon="-1.6079279999999951">
        <ele>431.484</ele>
        <time>2022-08-24T17:07:53Z</time>
      </trkpt>
      <trkpt lat="42.82618499999999" lon="-1.6079779999999952">
        <ele>431.407</ele>
        <time>2022-08-24T17:07:54Z</time>
      </trkpt>
      <trkpt lat="42.82614999999999" lon="-1.6080169999999951">
        <ele>431.417</ele>
        <time>2022-08-24T17:07:55Z</time>
      </trkpt>
      <trkpt lat="42.82604299999999" lon="-1.6081439999999951">
        <ele>431.609</ele>
        <time>2022-08-24T17:07:58Z</time>
      </trkpt>
      <trkpt lat="42.82600299999999" lon="-1.608184999999995">
        <ele>431.689</ele>
        <time>2022-08-24T17:07:59Z</time>
      </trkpt>
      <trkpt lat="42.82597199999999" lon="-1.6082189999999952">
        <ele>431.699</ele>
        <time>2022-08-24T17:08:00Z</time>
      </trkpt>
      <trkpt lat="42.825951999999994" lon="-1.6082439999999951">
        <ele>431.679</ele>
        <time>2022-08-24T17:08:01Z</time>
      </trkpt>
      <trkpt lat="42.825922999999996" lon="-1.608273999999995">
        <ele>431.875</ele>
        <time>2022-08-24T17:08:02Z</time>
      </trkpt>
      <trkpt lat="42.825810999999995" lon="-1.6083809999999952">
        <ele>431.887</ele>
        <time>2022-08-24T17:08:06Z</time>
      </trkpt>
      <trkpt lat="42.825686" lon="-1.6084989999999952">
        <ele>432.084</ele>
        <time>2022-08-24T17:08:10Z</time>
      </trkpt>
      <trkpt lat="42.825663" lon="-1.6085219999999953">
        <ele>432.047</ele>
        <time>2022-08-24T17:08:11Z</time>
      </trkpt>
      <trkpt lat="42.825571" lon="-1.6086109999999954">
        <ele>432.211</ele>
        <time>2022-08-24T17:08:14Z</time>
      </trkpt>
      <trkpt lat="42.825517999999995" lon="-1.6086669999999954">
        <ele>432.270</ele>
        <time>2022-08-24T17:08:16Z</time>
      </trkpt>
      <trkpt lat="42.825210999999996" lon="-1.6089639999999954">
        <ele>432.047</ele>
        <time>2022-08-24T17:08:25Z</time>
      </trkpt>
      <trkpt lat="42.825179999999996" lon="-1.6089889999999953">
        <ele>432.029</ele>
        <time>2022-08-24T17:08:26Z</time>
      </trkpt>
      <trkpt lat="42.825143" lon="-1.6090199999999952">
        <ele>432.021</ele>
        <time>2022-08-24T17:08:27Z</time>
      </trkpt>
      <trkpt lat="42.825063" lon="-1.6090899999999952">
        <ele>432.009</ele>
        <time>2022-08-24T17:08:29Z</time>
      </trkpt>
      <trkpt lat="42.825028" lon="-1.6091199999999952">
        <ele>432.055</ele>
        <time>2022-08-24T17:08:30Z</time>
      </trkpt>
      <trkpt lat="42.825001" lon="-1.6091449999999952">
        <ele>432.035</ele>
        <time>2022-08-24T17:08:31Z</time>
      </trkpt>
      <trkpt lat="42.824968" lon="-1.6091789999999953">
        <ele>432.065</ele>
        <time>2022-08-24T17:08:32Z</time>
      </trkpt>
      <trkpt lat="42.824936" lon="-1.6092129999999953">
        <ele>432.021</ele>
        <time>2022-08-24T17:08:33Z</time>
      </trkpt>
      <trkpt lat="42.824834" lon="-1.6093139999999952">
        <ele>432.223</ele>
        <time>2022-08-24T17:08:36Z</time>
      </trkpt>
      <trkpt lat="42.824729000000005" lon="-1.6094069999999951">
        <ele>432.260</ele>
        <time>2022-08-24T17:08:39Z</time>
      </trkpt>
      <trkpt lat="42.824698000000005" lon="-1.6094389999999952">
        <ele>432.283</ele>
        <time>2022-08-24T17:08:40Z</time>
      </trkpt>
      <trkpt lat="42.824664000000006" lon="-1.6094769999999952">
        <ele>432.477</ele>
        <time>2022-08-24T17:08:41Z</time>
      </trkpt>
      <trkpt lat="42.824639000000005" lon="-1.6094989999999951">
        <ele>432.456</ele>
        <time>2022-08-24T17:08:42Z</time>
      </trkpt>
      <trkpt lat="42.824605000000005" lon="-1.6095229999999952">
        <ele>432.464</ele>
        <time>2022-08-24T17:08:43Z</time>
      </trkpt>
      <trkpt lat="42.824540000000006" lon="-1.6095849999999952">
        <ele>432.606</ele>
        <time>2022-08-24T17:08:45Z</time>
      </trkpt>
      <trkpt lat="42.82451400000001" lon="-1.609604999999995">
        <ele>432.616</ele>
        <time>2022-08-24T17:08:46Z</time>
      </trkpt>
      <trkpt lat="42.824495000000006" lon="-1.609623999999995">
        <ele>432.609</ele>
        <time>2022-08-24T17:08:47Z</time>
      </trkpt>
      <trkpt lat="42.82443800000001" lon="-1.6096849999999951">
        <ele>432.637</ele>
        <time>2022-08-24T17:08:49Z</time>
      </trkpt>
      <trkpt lat="42.82439000000001" lon="-1.609731999999995">
        <ele>432.677</ele>
        <time>2022-08-24T17:08:50Z</time>
      </trkpt>
      <trkpt lat="42.82434400000001" lon="-1.609769999999995">
        <ele>432.617</ele>
        <time>2022-08-24T17:08:51Z</time>
      </trkpt>
      <trkpt lat="42.82431100000001" lon="-1.609794999999995">
        <ele>432.813</ele>
        <time>2022-08-24T17:08:52Z</time>
      </trkpt>
      <trkpt lat="42.82427500000001" lon="-1.609822999999995">
        <ele>432.845</ele>
        <time>2022-08-24T17:08:53Z</time>
      </trkpt>
      <trkpt lat="42.82424600000001" lon="-1.609843999999995">
        <ele>432.852</ele>
        <time>2022-08-24T17:08:54Z</time>
      </trkpt>
      <trkpt lat="42.82421600000001" lon="-1.609867999999995">
        <ele>432.845</ele>
        <time>2022-08-24T17:08:55Z</time>
      </trkpt>
      <trkpt lat="42.82419500000001" lon="-1.609892999999995">
        <ele>433.049</ele>
        <time>2022-08-24T17:08:56Z</time>
      </trkpt>
      <trkpt lat="42.82397100000001" lon="-1.6100939999999948">
        <ele>433.488</ele>
        <time>2022-08-24T17:09:04Z</time>
      </trkpt>
      <trkpt lat="42.82386700000001" lon="-1.6101799999999948">
        <ele>434.085</ele>
        <time>2022-08-24T17:09:07Z</time>
      </trkpt>
      <trkpt lat="42.82383600000001" lon="-1.6102049999999948">
        <ele>433.889</ele>
        <time>2022-08-24T17:09:08Z</time>
      </trkpt>
      <trkpt lat="42.823809000000004" lon="-1.6102279999999949">
        <ele>433.817</ele>
        <time>2022-08-24T17:09:09Z</time>
      </trkpt>
      <trkpt lat="42.823782" lon="-1.610251999999995">
        <ele>434.009</ele>
        <time>2022-08-24T17:09:10Z</time>
      </trkpt>
      <trkpt lat="42.823754" lon="-1.610278999999995">
        <ele>433.839</ele>
        <time>2022-08-24T17:09:11Z</time>
      </trkpt>
      <trkpt lat="42.823736000000004" lon="-1.610294999999995">
        <ele>434.289</ele>
        <time>2022-08-24T17:09:12Z</time>
      </trkpt>
      <trkpt lat="42.823716000000005" lon="-1.610313999999995">
        <ele>434.219</ele>
        <time>2022-08-24T17:09:13Z</time>
      </trkpt>
      <trkpt lat="42.823592000000005" lon="-1.610412999999995">
        <ele>434.855</ele>
        <time>2022-08-24T17:09:18Z</time>
      </trkpt>
      <trkpt lat="42.823426000000005" lon="-1.610560999999995">
        <ele>435.097</ele>
        <time>2022-08-24T17:09:23Z</time>
      </trkpt>
      <trkpt lat="42.823312" lon="-1.610658999999995">
        <ele>434.864</ele>
        <time>2022-08-24T17:09:26Z</time>
      </trkpt>
      <trkpt lat="42.823277000000004" lon="-1.610684999999995">
        <ele>435.037</ele>
        <time>2022-08-24T17:09:27Z</time>
      </trkpt>
      <trkpt lat="42.82325" lon="-1.610704999999995">
        <ele>434.871</ele>
        <time>2022-08-24T17:09:28Z</time>
      </trkpt>
      <trkpt lat="42.823216" lon="-1.610730999999995">
        <ele>435.090</ele>
        <time>2022-08-24T17:09:29Z</time>
      </trkpt>
      <trkpt lat="42.82318" lon="-1.610761999999995">
        <ele>434.848</ele>
        <time>2022-08-24T17:09:30Z</time>
      </trkpt>
      <trkpt lat="42.823155" lon="-1.6107819999999948">
        <ele>434.861</ele>
        <time>2022-08-24T17:09:31Z</time>
      </trkpt>
      <trkpt lat="42.823122" lon="-1.6108119999999948">
        <ele>434.817</ele>
        <time>2022-08-24T17:09:32Z</time>
      </trkpt>
      <trkpt lat="42.823101" lon="-1.6108309999999948">
        <ele>434.609</ele>
        <time>2022-08-24T17:09:33Z</time>
      </trkpt>
      <trkpt lat="42.822982" lon="-1.6109279999999948">
        <ele>434.875</ele>
        <time>2022-08-24T17:09:37Z</time>
      </trkpt>
      <trkpt lat="42.822958" lon="-1.6109479999999947">
        <ele>434.815</ele>
        <time>2022-08-24T17:09:38Z</time>
      </trkpt>
      <trkpt lat="42.822928" lon="-1.6109709999999948">
        <ele>434.875</ele>
        <time>2022-08-24T17:09:39Z</time>
      </trkpt>
      <trkpt lat="42.822897999999995" lon="-1.610993999999995">
        <ele>434.861</ele>
        <time>2022-08-24T17:09:40Z</time>
      </trkpt>
      <trkpt lat="42.822782999999994" lon="-1.6110949999999948">
        <ele>434.823</ele>
        <time>2022-08-24T17:09:44Z</time>
      </trkpt>
      <trkpt lat="42.82257299999999" lon="-1.6113519999999948">
        <ele>434.860</ele>
        <time>2022-08-24T17:09:52Z</time>
      </trkpt>
      <trkpt lat="42.82243899999999" lon="-1.6114099999999947">
        <ele>435.063</ele>
        <time>2022-08-24T17:09:56Z</time>
      </trkpt>
      <trkpt lat="42.82240199999999" lon="-1.6114189999999946">
        <ele>435.087</ele>
        <time>2022-08-24T17:09:57Z</time>
      </trkpt>
      <trkpt lat="42.82236799999999" lon="-1.6114249999999946">
        <ele>435.076</ele>
        <time>2022-08-24T17:09:58Z</time>
      </trkpt>
      <trkpt lat="42.82233899999999" lon="-1.6114289999999944">
        <ele>435.082</ele>
        <time>2022-08-24T17:09:59Z</time>
      </trkpt>
      <trkpt lat="42.82231199999999" lon="-1.6114319999999944">
        <ele>435.043</ele>
        <time>2022-08-24T17:10:00Z</time>
      </trkpt>
      <trkpt lat="42.82224899999999" lon="-1.6114659999999945">
        <ele>435.017</ele>
        <time>2022-08-24T17:10:02Z</time>
      </trkpt>
      <trkpt lat="42.822230999999995" lon="-1.6114849999999945">
        <ele>435.009</ele>
        <time>2022-08-24T17:10:03Z</time>
      </trkpt>
      <trkpt lat="42.822210999999996" lon="-1.6115079999999946">
        <ele>435.099</ele>
        <time>2022-08-24T17:10:04Z</time>
      </trkpt>
      <trkpt lat="42.822185999999995" lon="-1.6115319999999946">
        <ele>435.049</ele>
        <time>2022-08-24T17:10:05Z</time>
      </trkpt>
      <trkpt lat="42.822160999999994" lon="-1.6115529999999947">
        <ele>435.079</ele>
        <time>2022-08-24T17:10:06Z</time>
      </trkpt>
      <trkpt lat="42.822101999999994" lon="-1.6116109999999946">
        <ele>435.065</ele>
        <time>2022-08-24T17:10:08Z</time>
      </trkpt>
      <trkpt lat="42.822070999999994" lon="-1.6116469999999945">
        <ele>435.057</ele>
        <time>2022-08-24T17:10:09Z</time>
      </trkpt>
      <trkpt lat="42.822013999999996" lon="-1.6117119999999945">
        <ele>434.874</ele>
        <time>2022-08-24T17:10:11Z</time>
      </trkpt>
      <trkpt lat="42.821977999999994" lon="-1.6117439999999945">
        <ele>434.827</ele>
        <time>2022-08-24T17:10:12Z</time>
      </trkpt>
      <trkpt lat="42.821946" lon="-1.6117749999999944">
        <ele>434.621</ele>
        <time>2022-08-24T17:10:13Z</time>
      </trkpt>
      <trkpt lat="42.821918999999994" lon="-1.6118059999999943">
        <ele>434.470</ele>
        <time>2022-08-24T17:10:14Z</time>
      </trkpt>
      <trkpt lat="42.821887" lon="-1.6118379999999943">
        <ele>434.237</ele>
        <time>2022-08-24T17:10:15Z</time>
      </trkpt>
      <trkpt lat="42.821732999999995" lon="-1.6120049999999944">
        <ele>434.049</ele>
        <time>2022-08-24T17:10:20Z</time>
      </trkpt>
      <trkpt lat="42.82167" lon="-1.6120789999999943">
        <ele>434.013</ele>
        <time>2022-08-24T17:10:22Z</time>
      </trkpt>
      <trkpt lat="42.821627" lon="-1.6121159999999943">
        <ele>434.009</ele>
        <time>2022-08-24T17:10:23Z</time>
      </trkpt>
      <trkpt lat="42.8216" lon="-1.6121459999999943">
        <ele>433.824</ele>
        <time>2022-08-24T17:10:24Z</time>
      </trkpt>
      <trkpt lat="42.821537" lon="-1.6122319999999943">
        <ele>433.884</ele>
        <time>2022-08-24T17:10:26Z</time>
      </trkpt>
      <trkpt lat="42.821507" lon="-1.6122709999999942">
        <ele>433.874</ele>
        <time>2022-08-24T17:10:27Z</time>
      </trkpt>
      <trkpt lat="42.821475" lon="-1.6123099999999941">
        <ele>433.880</ele>
        <time>2022-08-24T17:10:28Z</time>
      </trkpt>
      <trkpt lat="42.821444" lon="-1.6123449999999941">
        <ele>433.882</ele>
        <time>2022-08-24T17:10:29Z</time>
      </trkpt>
      <trkpt lat="42.821412" lon="-1.6123769999999942">
        <ele>433.819</ele>
        <time>2022-08-24T17:10:30Z</time>
      </trkpt>
      <trkpt lat="42.821379" lon="-1.612412999999994">
        <ele>434.092</ele>
        <time>2022-08-24T17:10:31Z</time>
      </trkpt>
      <trkpt lat="42.821347" lon="-1.6124499999999942">
        <ele>434.036</ele>
        <time>2022-08-24T17:10:32Z</time>
      </trkpt>
      <trkpt lat="42.821315000000006" lon="-1.6124879999999941">
        <ele>434.075</ele>
        <time>2022-08-24T17:10:33Z</time>
      </trkpt>
      <trkpt lat="42.821282000000004" lon="-1.6125219999999942">
        <ele>434.017</ele>
        <time>2022-08-24T17:10:34Z</time>
      </trkpt>
      <trkpt lat="42.821243" lon="-1.6125569999999942">
        <ele>434.087</ele>
        <time>2022-08-24T17:10:35Z</time>
      </trkpt>
      <trkpt lat="42.821216" lon="-1.6125879999999941">
        <ele>434.215</ele>
        <time>2022-08-24T17:10:36Z</time>
      </trkpt>
      <trkpt lat="42.821191999999996" lon="-1.6126219999999942">
        <ele>434.209</ele>
        <time>2022-08-24T17:10:37Z</time>
      </trkpt>
      <trkpt lat="42.821144999999994" lon="-1.6126739999999942">
        <ele>434.412</ele>
        <time>2022-08-24T17:10:39Z</time>
      </trkpt>
      <trkpt lat="42.82103599999999" lon="-1.6128149999999941">
        <ele>434.242</ele>
        <time>2022-08-24T17:10:43Z</time>
      </trkpt>
      <trkpt lat="42.82101099999999" lon="-1.612861999999994">
        <ele>434.262</ele>
        <time>2022-08-24T17:10:44Z</time>
      </trkpt>
      <trkpt lat="42.82096999999999" lon="-1.612916999999994">
        <ele>434.288</ele>
        <time>2022-08-24T17:10:45Z</time>
      </trkpt>
      <trkpt lat="42.820818999999986" lon="-1.613123999999994">
        <ele>434.220</ele>
        <time>2022-08-24T17:10:48Z</time>
      </trkpt>
      <trkpt lat="42.82056999999999" lon="-1.613577999999994">
        <ele>434.227</ele>
        <time>2022-08-24T17:10:53Z</time>
      </trkpt>
      <trkpt lat="42.82052099999999" lon="-1.613675999999994">
        <ele>434.270</ele>
        <time>2022-08-24T17:10:54Z</time>
      </trkpt>
      <trkpt lat="42.820432999999994" lon="-1.6138849999999938">
        <ele>434.434</ele>
        <time>2022-08-24T17:10:56Z</time>
      </trkpt>
      <trkpt lat="42.820387" lon="-1.6139799999999938">
        <ele>434.633</ele>
        <time>2022-08-24T17:10:57Z</time>
      </trkpt>
      <trkpt lat="42.820344999999996" lon="-1.6140659999999938">
        <ele>434.868</ele>
        <time>2022-08-24T17:10:58Z</time>
      </trkpt>
      <trkpt lat="42.820308" lon="-1.6141539999999939">
        <ele>434.842</ele>
        <time>2022-08-24T17:10:59Z</time>
      </trkpt>
      <trkpt lat="42.820273" lon="-1.614247999999994">
        <ele>434.826</ele>
        <time>2022-08-24T17:11:00Z</time>
      </trkpt>
      <trkpt lat="42.820233" lon="-1.614343999999994">
        <ele>434.809</ele>
        <time>2022-08-24T17:11:01Z</time>
      </trkpt>
      <trkpt lat="42.820192" lon="-1.614435999999994">
        <ele>434.827</ele>
        <time>2022-08-24T17:11:02Z</time>
      </trkpt>
      <trkpt lat="42.820156" lon="-1.614519999999994">
        <ele>434.827</ele>
        <time>2022-08-24T17:11:03Z</time>
      </trkpt>
      <trkpt lat="42.820116999999996" lon="-1.614600999999994">
        <ele>435.027</ele>
        <time>2022-08-24T17:11:04Z</time>
      </trkpt>
      <trkpt lat="42.820074999999996" lon="-1.614673999999994">
        <ele>435.033</ele>
        <time>2022-08-24T17:11:05Z</time>
      </trkpt>
      <trkpt lat="42.819995999999996" lon="-1.614829999999994">
        <ele>435.065</ele>
        <time>2022-08-24T17:11:07Z</time>
      </trkpt>
      <trkpt lat="42.819959" lon="-1.614905999999994">
        <ele>434.822</ele>
        <time>2022-08-24T17:11:08Z</time>
      </trkpt>
      <trkpt lat="42.819928" lon="-1.614976999999994">
        <ele>434.815</ele>
        <time>2022-08-24T17:11:09Z</time>
      </trkpt>
      <trkpt lat="42.819823" lon="-1.6151989999999938">
        <ele>434.899</ele>
        <time>2022-08-24T17:11:12Z</time>
      </trkpt>
      <trkpt lat="42.819788" lon="-1.615278999999994">
        <ele>434.698</ele>
        <time>2022-08-24T17:11:13Z</time>
      </trkpt>
      <trkpt lat="42.819755" lon="-1.6153549999999939">
        <ele>434.697</ele>
        <time>2022-08-24T17:11:14Z</time>
      </trkpt>
      <trkpt lat="42.819726" lon="-1.615424999999994">
        <ele>434.623</ele>
        <time>2022-08-24T17:11:15Z</time>
      </trkpt>
      <trkpt lat="42.819701" lon="-1.6154909999999938">
        <ele>434.625</ele>
        <time>2022-08-24T17:11:16Z</time>
      </trkpt>
      <trkpt lat="42.819676" lon="-1.6155549999999939">
        <ele>434.409</ele>
        <time>2022-08-24T17:11:17Z</time>
      </trkpt>
      <trkpt lat="42.819655000000004" lon="-1.6156199999999938">
        <ele>434.450</ele>
        <time>2022-08-24T17:11:18Z</time>
      </trkpt>
      <trkpt lat="42.819635000000005" lon="-1.6156819999999938">
        <ele>434.470</ele>
        <time>2022-08-24T17:11:19Z</time>
      </trkpt>
      <trkpt lat="42.81961700000001" lon="-1.6157439999999939">
        <ele>434.240</ele>
        <time>2022-08-24T17:11:20Z</time>
      </trkpt>
      <trkpt lat="42.81960000000001" lon="-1.615872999999994">
        <ele>434.226</ele>
        <time>2022-08-24T17:11:22Z</time>
      </trkpt>
      <trkpt lat="42.81960300000001" lon="-1.6159409999999939">
        <ele>434.268</ele>
        <time>2022-08-24T17:11:23Z</time>
      </trkpt>
      <trkpt lat="42.81961600000001" lon="-1.6160089999999938">
        <ele>434.235</ele>
        <time>2022-08-24T17:11:24Z</time>
      </trkpt>
      <trkpt lat="42.81963100000001" lon="-1.6160829999999937">
        <ele>434.228</ele>
        <time>2022-08-24T17:11:25Z</time>
      </trkpt>
      <trkpt lat="42.81963900000001" lon="-1.6161589999999937">
        <ele>434.022</ele>
        <time>2022-08-24T17:11:26Z</time>
      </trkpt>
      <trkpt lat="42.81963700000001" lon="-1.6162279999999938">
        <ele>434.041</ele>
        <time>2022-08-24T17:11:27Z</time>
      </trkpt>
      <trkpt lat="42.819627000000004" lon="-1.6162779999999939">
        <ele>433.894</ele>
        <time>2022-08-24T17:11:28Z</time>
      </trkpt>
      <trkpt lat="42.819616" lon="-1.616309999999994">
        <ele>433.857</ele>
        <time>2022-08-24T17:11:29Z</time>
      </trkpt>
      <trkpt lat="42.819607000000005" lon="-1.616333999999994">
        <ele>433.822</ele>
        <time>2022-08-24T17:11:30Z</time>
      </trkpt>
      <trkpt lat="42.81960900000001" lon="-1.6163539999999939">
        <ele>433.809</ele>
        <time>2022-08-24T17:11:31Z</time>
      </trkpt>
      <trkpt lat="42.819604000000005" lon="-1.6163679999999938">
        <ele>433.870</ele>
        <time>2022-08-24T17:11:32Z</time>
      </trkpt>
      <trkpt lat="42.81959700000001" lon="-1.6163879999999937">
        <ele>433.870</ele>
        <time>2022-08-24T17:11:33Z</time>
      </trkpt>
      <trkpt lat="42.81959100000001" lon="-1.6164119999999937">
        <ele>434.060</ele>
        <time>2022-08-24T17:11:34Z</time>
      </trkpt>
      <trkpt lat="42.81959000000001" lon="-1.6164649999999938">
        <ele>434.286</ele>
        <time>2022-08-24T17:11:36Z</time>
      </trkpt>
      <trkpt lat="42.819592000000014" lon="-1.6164869999999938">
        <ele>434.458</ele>
        <time>2022-08-24T17:11:37Z</time>
      </trkpt>
      <trkpt lat="42.81959900000001" lon="-1.6165059999999938">
        <ele>434.675</ele>
        <time>2022-08-24T17:11:38Z</time>
      </trkpt>
      <trkpt lat="42.81960300000001" lon="-1.6165219999999938">
        <ele>437.088</ele>
        <time>2022-08-24T17:13:54Z</time>
      </trkpt>
      <trkpt lat="42.81960300000001" lon="-1.6165239999999939">
        <ele>437.042</ele>
        <time>2022-08-24T17:13:55Z</time>
      </trkpt>
      <trkpt lat="42.81959500000001" lon="-1.6165289999999939">
        <ele>437.061</ele>
        <time>2022-08-24T17:13:56Z</time>
      </trkpt>
      <trkpt lat="42.81956600000001" lon="-1.616543999999994">
        <ele>437.085</ele>
        <time>2022-08-24T17:13:58Z</time>
      </trkpt>
      <trkpt lat="42.81954800000001" lon="-1.616603999999994">
        <ele>437.089</ele>
        <time>2022-08-24T17:14:00Z</time>
      </trkpt>
      <trkpt lat="42.819544000000015" lon="-1.616722999999994">
        <ele>437.217</ele>
        <time>2022-08-24T17:14:03Z</time>
      </trkpt>
      <trkpt lat="42.81954500000001" lon="-1.6167559999999939">
        <ele>437.209</ele>
        <time>2022-08-24T17:14:04Z</time>
      </trkpt>
      <trkpt lat="42.819547000000014" lon="-1.6167809999999938">
        <ele>437.029</ele>
        <time>2022-08-24T17:14:05Z</time>
      </trkpt>
      <trkpt lat="42.819550000000014" lon="-1.6168099999999939">
        <ele>437.049</ele>
        <time>2022-08-24T17:14:06Z</time>
      </trkpt>
      <trkpt lat="42.819552000000016" lon="-1.6168379999999938">
        <ele>437.269</ele>
        <time>2022-08-24T17:14:07Z</time>
      </trkpt>
      <trkpt lat="42.81955300000001" lon="-1.6168759999999938">
        <ele>437.295</ele>
        <time>2022-08-24T17:14:08Z</time>
      </trkpt>
      <trkpt lat="42.819550000000014" lon="-1.6169029999999938">
        <ele>437.217</ele>
        <time>2022-08-24T17:14:09Z</time>
      </trkpt>
      <trkpt lat="42.819550000000014" lon="-1.6169299999999938">
        <ele>437.474</ele>
        <time>2022-08-24T17:14:10Z</time>
      </trkpt>
      <trkpt lat="42.819555000000015" lon="-1.6169619999999938">
        <ele>437.427</ele>
        <time>2022-08-24T17:14:11Z</time>
      </trkpt>
      <trkpt lat="42.819558000000015" lon="-1.6170499999999939">
        <ele>437.411</ele>
        <time>2022-08-24T17:14:13Z</time>
      </trkpt>
      <trkpt lat="42.81955700000002" lon="-1.6171509999999938">
        <ele>437.490</ele>
        <time>2022-08-24T17:14:15Z</time>
      </trkpt>
      <trkpt lat="42.81956800000002" lon="-1.6172809999999938">
        <ele>437.488</ele>
        <time>2022-08-24T17:14:17Z</time>
      </trkpt>
      <trkpt lat="42.81955300000002" lon="-1.6173369999999938">
        <ele>437.424</ele>
        <time>2022-08-24T17:14:18Z</time>
      </trkpt>
      <trkpt lat="42.81954900000002" lon="-1.6173929999999939">
        <ele>437.626</ele>
        <time>2022-08-24T17:14:19Z</time>
      </trkpt>
      <trkpt lat="42.819540000000025" lon="-1.617429999999994">
        <ele>437.609</ele>
        <time>2022-08-24T17:14:20Z</time>
      </trkpt>
      <trkpt lat="42.81955300000003" lon="-1.617480999999994">
        <ele>437.649</ele>
        <time>2022-08-24T17:14:21Z</time>
      </trkpt>
      <trkpt lat="42.81956600000003" lon="-1.617536999999994">
        <ele>437.669</ele>
        <time>2022-08-24T17:14:22Z</time>
      </trkpt>
      <trkpt lat="42.81958600000003" lon="-1.617594999999994">
        <ele>437.629</ele>
        <time>2022-08-24T17:14:23Z</time>
      </trkpt>
      <trkpt lat="42.81959700000003" lon="-1.6176419999999938">
        <ele>437.625</ele>
        <time>2022-08-24T17:14:24Z</time>
      </trkpt>
      <trkpt lat="42.81960500000003" lon="-1.6177009999999938">
        <ele>437.827</ele>
        <time>2022-08-24T17:14:25Z</time>
      </trkpt>
      <trkpt lat="42.81960500000003" lon="-1.617750999999994">
        <ele>437.854</ele>
        <time>2022-08-24T17:14:26Z</time>
      </trkpt>
      <trkpt lat="42.81966200000003" lon="-1.617873999999994">
        <ele>437.867</ele>
        <time>2022-08-24T17:14:29Z</time>
      </trkpt>
      <trkpt lat="42.81969000000003" lon="-1.617916999999994">
        <ele>437.851</ele>
        <time>2022-08-24T17:14:30Z</time>
      </trkpt>
      <trkpt lat="42.81972700000003" lon="-1.617962999999994">
        <ele>437.810</ele>
        <time>2022-08-24T17:14:31Z</time>
      </trkpt>
      <trkpt lat="42.81974600000003" lon="-1.617999999999994">
        <ele>437.867</ele>
        <time>2022-08-24T17:14:32Z</time>
      </trkpt>
      <trkpt lat="42.81981600000003" lon="-1.618097999999994">
        <ele>437.881</ele>
        <time>2022-08-24T17:14:35Z</time>
      </trkpt>
      <trkpt lat="42.81984100000003" lon="-1.618138999999994">
        <ele>438.019</ele>
        <time>2022-08-24T17:14:36Z</time>
      </trkpt>
      <trkpt lat="42.81986200000003" lon="-1.618172999999994">
        <ele>438.009</ele>
        <time>2022-08-24T17:14:37Z</time>
      </trkpt>
      <trkpt lat="42.819883000000026" lon="-1.6182019999999941">
        <ele>438.067</ele>
        <time>2022-08-24T17:14:38Z</time>
      </trkpt>
      <trkpt lat="42.81991000000003" lon="-1.618232999999994">
        <ele>437.877</ele>
        <time>2022-08-24T17:14:39Z</time>
      </trkpt>
      <trkpt lat="42.81993500000003" lon="-1.6182669999999941">
        <ele>437.837</ele>
        <time>2022-08-24T17:14:40Z</time>
      </trkpt>
      <trkpt lat="42.81995900000003" lon="-1.618294999999994">
        <ele>437.823</ele>
        <time>2022-08-24T17:14:41Z</time>
      </trkpt>
      <trkpt lat="42.819984000000034" lon="-1.618332999999994">
        <ele>437.885</ele>
        <time>2022-08-24T17:14:42Z</time>
      </trkpt>
      <trkpt lat="42.82001600000003" lon="-1.618372999999994">
        <ele>437.882</ele>
        <time>2022-08-24T17:14:43Z</time>
      </trkpt>
      <trkpt lat="42.820178000000034" lon="-1.6186719999999941">
        <ele>438.065</ele>
        <time>2022-08-24T17:14:50Z</time>
      </trkpt>
      <trkpt lat="42.820265000000035" lon="-1.6188059999999942">
        <ele>438.289</ele>
        <time>2022-08-24T17:14:53Z</time>
      </trkpt>
      <trkpt lat="42.82033600000003" lon="-1.6189059999999942">
        <ele>438.258</ele>
        <time>2022-08-24T17:14:56Z</time>
      </trkpt>
      <trkpt lat="42.820397000000035" lon="-1.6189939999999943">
        <ele>438.286</ele>
        <time>2022-08-24T17:14:58Z</time>
      </trkpt>
      <trkpt lat="42.82042100000004" lon="-1.6190399999999943">
        <ele>438.260</ele>
        <time>2022-08-24T17:14:59Z</time>
      </trkpt>
      <trkpt lat="42.82044800000004" lon="-1.6190769999999943">
        <ele>438.226</ele>
        <time>2022-08-24T17:15:00Z</time>
      </trkpt>
      <trkpt lat="42.82047600000004" lon="-1.6191139999999944">
        <ele>438.209</ele>
        <time>2022-08-24T17:15:01Z</time>
      </trkpt>
      <trkpt lat="42.820523000000044" lon="-1.6191529999999943">
        <ele>438.269</ele>
        <time>2022-08-24T17:15:02Z</time>
      </trkpt>
      <trkpt lat="42.82055000000005" lon="-1.6191959999999943">
        <ele>438.269</ele>
        <time>2022-08-24T17:15:03Z</time>
      </trkpt>
      <trkpt lat="42.820717000000045" lon="-1.6194879999999943">
        <ele>438.629</ele>
        <time>2022-08-24T17:15:09Z</time>
      </trkpt>
      <trkpt lat="42.82087900000005" lon="-1.6196869999999943">
        <ele>438.865</ele>
        <time>2022-08-24T17:15:14Z</time>
      </trkpt>
      <trkpt lat="42.82090300000005" lon="-1.6197159999999944">
        <ele>438.857</ele>
        <time>2022-08-24T17:15:15Z</time>
      </trkpt>
      <trkpt lat="42.82091000000005" lon="-1.6197519999999943">
        <ele>438.854</ele>
        <time>2022-08-24T17:15:16Z</time>
      </trkpt>
      <trkpt lat="42.82093400000005" lon="-1.6197879999999942">
        <ele>438.887</ele>
        <time>2022-08-24T17:15:17Z</time>
      </trkpt>
      <trkpt lat="42.82098800000005" lon="-1.6198639999999942">
        <ele>438.891</ele>
        <time>2022-08-24T17:15:19Z</time>
      </trkpt>
      <trkpt lat="42.82101900000005" lon="-1.6198989999999942">
        <ele>438.870</ele>
        <time>2022-08-24T17:15:20Z</time>
      </trkpt>
      <trkpt lat="42.82104700000005" lon="-1.6199329999999943">
        <ele>438.877</ele>
        <time>2022-08-24T17:15:21Z</time>
      </trkpt>
      <trkpt lat="42.82107500000005" lon="-1.6199699999999944">
        <ele>438.861</ele>
        <time>2022-08-24T17:15:22Z</time>
      </trkpt>
      <trkpt lat="42.82110300000005" lon="-1.6200099999999944">
        <ele>438.827</ele>
        <time>2022-08-24T17:15:23Z</time>
      </trkpt>
      <trkpt lat="42.82113000000005" lon="-1.6200549999999945">
        <ele>438.809</ele>
        <time>2022-08-24T17:15:24Z</time>
      </trkpt>
      <trkpt lat="42.821155000000054" lon="-1.6200939999999944">
        <ele>438.848</ele>
        <time>2022-08-24T17:15:25Z</time>
      </trkpt>
      <trkpt lat="42.821177000000056" lon="-1.6201279999999945">
        <ele>438.878</ele>
        <time>2022-08-24T17:15:26Z</time>
      </trkpt>
      <trkpt lat="42.82119800000005" lon="-1.6201589999999944">
        <ele>438.828</ele>
        <time>2022-08-24T17:15:27Z</time>
      </trkpt>
      <trkpt lat="42.821220000000054" lon="-1.6201889999999943">
        <ele>438.854</ele>
        <time>2022-08-24T17:15:28Z</time>
      </trkpt>
      <trkpt lat="42.82125200000005" lon="-1.6202419999999944">
        <ele>438.826</ele>
        <time>2022-08-24T17:15:30Z</time>
      </trkpt>
      <trkpt lat="42.821414000000054" lon="-1.6204929999999944">
        <ele>439.013</ele>
        <time>2022-08-24T17:15:37Z</time>
      </trkpt>
      <trkpt lat="42.82143700000005" lon="-1.6205339999999944">
        <ele>439.076</ele>
        <time>2022-08-24T17:15:38Z</time>
      </trkpt>
      <trkpt lat="42.821492000000056" lon="-1.6206289999999943">
        <ele>439.070</ele>
        <time>2022-08-24T17:15:40Z</time>
      </trkpt>
      <trkpt lat="42.821551000000056" lon="-1.6207189999999942">
        <ele>439.059</ele>
        <time>2022-08-24T17:15:42Z</time>
      </trkpt>
      <trkpt lat="42.821611000000054" lon="-1.6208309999999941">
        <ele>439.025</ele>
        <time>2022-08-24T17:15:44Z</time>
      </trkpt>
      <trkpt lat="42.82170000000006" lon="-1.620960999999994">
        <ele>438.826</ele>
        <time>2022-08-24T17:15:46Z</time>
      </trkpt>
      <trkpt lat="42.821740000000055" lon="-1.620969999999994">
        <ele>438.808</ele>
        <time>2022-08-24T17:15:47Z</time>
      </trkpt>
      <trkpt lat="42.82181200000006" lon="-1.621231999999994">
        <ele>438.409</ele>
        <time>2022-08-24T17:15:51Z</time>
      </trkpt>
      <trkpt lat="42.82182100000006" lon="-1.621313999999994">
        <ele>438.443</ele>
        <time>2022-08-24T17:15:52Z</time>
      </trkpt>
      <trkpt lat="42.821867000000054" lon="-1.621370999999994">
        <ele>438.293</ele>
        <time>2022-08-24T17:15:53Z</time>
      </trkpt>
      <trkpt lat="42.82195800000005" lon="-1.6214659999999939">
        <ele>438.023</ele>
        <time>2022-08-24T17:15:55Z</time>
      </trkpt>
      <trkpt lat="42.82197900000005" lon="-1.621515999999994">
        <ele>437.869</ele>
        <time>2022-08-24T17:15:56Z</time>
      </trkpt>
      <trkpt lat="42.82199200000005" lon="-1.621568999999994">
        <ele>437.681</ele>
        <time>2022-08-24T17:15:57Z</time>
      </trkpt>
      <trkpt lat="42.82200700000005" lon="-1.621608999999994">
        <ele>437.868</ele>
        <time>2022-08-24T17:15:58Z</time>
      </trkpt>
      <trkpt lat="42.82202900000005" lon="-1.621639999999994">
        <ele>437.861</ele>
        <time>2022-08-24T17:15:59Z</time>
      </trkpt>
      <trkpt lat="42.82204900000005" lon="-1.621680999999994">
        <ele>437.855</ele>
        <time>2022-08-24T17:16:00Z</time>
      </trkpt>
      <trkpt lat="42.82212700000005" lon="-1.621860999999994">
        <ele>438.274</ele>
        <time>2022-08-24T17:16:04Z</time>
      </trkpt>
      <trkpt lat="42.82214700000005" lon="-1.621909999999994">
        <ele>438.243</ele>
        <time>2022-08-24T17:16:05Z</time>
      </trkpt>
      <trkpt lat="42.82216600000005" lon="-1.621954999999994">
        <ele>438.264</ele>
        <time>2022-08-24T17:16:06Z</time>
      </trkpt>
      <trkpt lat="42.82218600000005" lon="-1.621997999999994">
        <ele>438.210</ele>
        <time>2022-08-24T17:16:07Z</time>
      </trkpt>
      <trkpt lat="42.82220300000005" lon="-1.622048999999994">
        <ele>438.209</ele>
        <time>2022-08-24T17:16:08Z</time>
      </trkpt>
      <trkpt lat="42.82223600000005" lon="-1.6222509999999941">
        <ele>438.215</ele>
        <time>2022-08-24T17:16:11Z</time>
      </trkpt>
      <trkpt lat="42.82224600000006" lon="-1.6223099999999941">
        <ele>438.255</ele>
        <time>2022-08-24T17:16:12Z</time>
      </trkpt>
      <trkpt lat="42.82225300000005" lon="-1.6223669999999941">
        <ele>438.285</ele>
        <time>2022-08-24T17:16:13Z</time>
      </trkpt>
      <trkpt lat="42.82225700000005" lon="-1.6224229999999942">
        <ele>438.211</ele>
        <time>2022-08-24T17:16:14Z</time>
      </trkpt>
      <trkpt lat="42.82226200000005" lon="-1.6225809999999943">
        <ele>438.293</ele>
        <time>2022-08-24T17:16:17Z</time>
      </trkpt>
      <trkpt lat="42.822272000000055" lon="-1.6226329999999942">
        <ele>438.220</ele>
        <time>2022-08-24T17:16:18Z</time>
      </trkpt>
      <trkpt lat="42.822278000000054" lon="-1.6227279999999942">
        <ele>438.213</ele>
        <time>2022-08-24T17:16:20Z</time>
      </trkpt>
      <trkpt lat="42.822278000000054" lon="-1.6227809999999943">
        <ele>438.277</ele>
        <time>2022-08-24T17:16:21Z</time>
      </trkpt>
      <trkpt lat="42.822272000000055" lon="-1.6228249999999942">
        <ele>438.236</ele>
        <time>2022-08-24T17:16:22Z</time>
      </trkpt>
      <trkpt lat="42.82227600000005" lon="-1.6228739999999942">
        <ele>438.026</ele>
        <time>2022-08-24T17:16:23Z</time>
      </trkpt>
      <trkpt lat="42.82228400000005" lon="-1.622974999999994">
        <ele>438.047</ele>
        <time>2022-08-24T17:16:25Z</time>
      </trkpt>
      <trkpt lat="42.82227300000005" lon="-1.623406999999994">
        <ele>437.811</ele>
        <time>2022-08-24T17:16:30Z</time>
      </trkpt>
      <trkpt lat="42.82225400000005" lon="-1.623624999999994">
        <ele>438.009</ele>
        <time>2022-08-24T17:16:32Z</time>
      </trkpt>
      <trkpt lat="42.82224900000005" lon="-1.623714999999994">
        <ele>438.013</ele>
        <time>2022-08-24T17:16:33Z</time>
      </trkpt>
      <trkpt lat="42.82223300000005" lon="-1.623821999999994">
        <ele>438.033</ele>
        <time>2022-08-24T17:16:34Z</time>
      </trkpt>
      <trkpt lat="42.82223000000005" lon="-1.6240099999999942">
        <ele>438.023</ele>
        <time>2022-08-24T17:16:36Z</time>
      </trkpt>
      <trkpt lat="42.82222300000005" lon="-1.624099999999994">
        <ele>438.079</ele>
        <time>2022-08-24T17:16:37Z</time>
      </trkpt>
      <trkpt lat="42.82222600000005" lon="-1.624189999999994">
        <ele>438.081</ele>
        <time>2022-08-24T17:16:38Z</time>
      </trkpt>
      <trkpt lat="42.82222400000005" lon="-1.624270999999994">
        <ele>438.258</ele>
        <time>2022-08-24T17:16:39Z</time>
      </trkpt>
      <trkpt lat="42.82222700000005" lon="-1.624348999999994">
        <ele>438.071</ele>
        <time>2022-08-24T17:16:40Z</time>
      </trkpt>
      <trkpt lat="42.82222300000005" lon="-1.624423999999994">
        <ele>438.025</ele>
        <time>2022-08-24T17:16:41Z</time>
      </trkpt>
      <trkpt lat="42.82221800000005" lon="-1.6245019999999941">
        <ele>438.034</ele>
        <time>2022-08-24T17:16:42Z</time>
      </trkpt>
      <trkpt lat="42.82221200000005" lon="-1.6245819999999942">
        <ele>438.018</ele>
        <time>2022-08-24T17:16:43Z</time>
      </trkpt>
      <trkpt lat="42.82220700000005" lon="-1.6246589999999943">
        <ele>437.898</ele>
        <time>2022-08-24T17:16:44Z</time>
      </trkpt>
      <trkpt lat="42.82220400000005" lon="-1.6247289999999943">
        <ele>437.817</ele>
        <time>2022-08-24T17:16:45Z</time>
      </trkpt>
      <trkpt lat="42.82220000000005" lon="-1.6247909999999943">
        <ele>437.809</ele>
        <time>2022-08-24T17:16:46Z</time>
      </trkpt>
      <trkpt lat="42.82219400000005" lon="-1.6248549999999944">
        <ele>437.872</ele>
        <time>2022-08-24T17:16:47Z</time>
      </trkpt>
      <trkpt lat="42.822187000000056" lon="-1.6249209999999943">
        <ele>437.622</ele>
        <time>2022-08-24T17:16:48Z</time>
      </trkpt>
      <trkpt lat="42.822182000000055" lon="-1.6249859999999943">
        <ele>437.632</ele>
        <time>2022-08-24T17:16:49Z</time>
      </trkpt>
      <trkpt lat="42.82217700000005" lon="-1.6250589999999943">
        <ele>437.668</ele>
        <time>2022-08-24T17:16:50Z</time>
      </trkpt>
      <trkpt lat="42.82217700000005" lon="-1.6251079999999942">
        <ele>437.420</ele>
        <time>2022-08-24T17:16:51Z</time>
      </trkpt>
      <trkpt lat="42.822176000000056" lon="-1.6251679999999942">
        <ele>437.487</ele>
        <time>2022-08-24T17:16:52Z</time>
      </trkpt>
      <trkpt lat="42.82217200000006" lon="-1.6252239999999942">
        <ele>437.440</ele>
        <time>2022-08-24T17:16:53Z</time>
      </trkpt>
      <trkpt lat="42.82217500000006" lon="-1.6252759999999942">
        <ele>437.414</ele>
        <time>2022-08-24T17:16:54Z</time>
      </trkpt>
      <trkpt lat="42.822179000000055" lon="-1.6253299999999942">
        <ele>437.423</ele>
        <time>2022-08-24T17:16:55Z</time>
      </trkpt>
      <trkpt lat="42.82217800000006" lon="-1.6253789999999941">
        <ele>437.427</ele>
        <time>2022-08-24T17:16:56Z</time>
      </trkpt>
      <trkpt lat="42.82217700000006" lon="-1.6254269999999942">
        <ele>437.668</ele>
        <time>2022-08-24T17:16:57Z</time>
      </trkpt>
      <trkpt lat="42.82217200000006" lon="-1.6254759999999941">
        <ele>437.614</ele>
        <time>2022-08-24T17:16:58Z</time>
      </trkpt>
      <trkpt lat="42.822159000000056" lon="-1.6255209999999942">
        <ele>437.609</ele>
        <time>2022-08-24T17:16:59Z</time>
      </trkpt>
      <trkpt lat="42.82214700000006" lon="-1.6255679999999941">
        <ele>437.633</ele>
        <time>2022-08-24T17:17:00Z</time>
      </trkpt>
      <trkpt lat="42.822097000000056" lon="-1.625738999999994">
        <ele>438.063</ele>
        <time>2022-08-24T17:17:03Z</time>
      </trkpt>
      <trkpt lat="42.822083000000056" lon="-1.625801999999994">
        <ele>438.033</ele>
        <time>2022-08-24T17:17:04Z</time>
      </trkpt>
      <trkpt lat="42.82207000000005" lon="-1.625854999999994">
        <ele>438.059</ele>
        <time>2022-08-24T17:17:05Z</time>
      </trkpt>
      <trkpt lat="42.822052000000056" lon="-1.625968999999994">
        <ele>438.081</ele>
        <time>2022-08-24T17:17:07Z</time>
      </trkpt>
      <trkpt lat="42.82204000000006" lon="-1.626024999999994">
        <ele>438.058</ele>
        <time>2022-08-24T17:17:08Z</time>
      </trkpt>
      <trkpt lat="42.82201200000006" lon="-1.626126999999994">
        <ele>438.081</ele>
        <time>2022-08-24T17:17:10Z</time>
      </trkpt>
      <trkpt lat="42.82199800000006" lon="-1.626178999999994">
        <ele>438.065</ele>
        <time>2022-08-24T17:17:11Z</time>
      </trkpt>
      <trkpt lat="42.82198600000006" lon="-1.6262289999999942">
        <ele>438.234</ele>
        <time>2022-08-24T17:17:12Z</time>
      </trkpt>
      <trkpt lat="42.821976000000056" lon="-1.626288999999994">
        <ele>438.242</ele>
        <time>2022-08-24T17:17:13Z</time>
      </trkpt>
      <trkpt lat="42.82196400000006" lon="-1.626350999999994">
        <ele>438.422</ele>
        <time>2022-08-24T17:17:14Z</time>
      </trkpt>
      <trkpt lat="42.82196300000006" lon="-1.626415999999994">
        <ele>438.614</ele>
        <time>2022-08-24T17:17:15Z</time>
      </trkpt>
      <trkpt lat="42.82197100000006" lon="-1.626473999999994">
        <ele>438.609</ele>
        <time>2022-08-24T17:17:16Z</time>
      </trkpt>
      <trkpt lat="42.82198800000006" lon="-1.6265209999999939">
        <ele>438.695</ele>
        <time>2022-08-24T17:17:17Z</time>
      </trkpt>
      <trkpt lat="42.82200700000006" lon="-1.6265539999999938">
        <ele>438.665</ele>
        <time>2022-08-24T17:17:18Z</time>
      </trkpt>
      <trkpt lat="42.82202200000006" lon="-1.626582999999994">
        <ele>438.855</ele>
        <time>2022-08-24T17:17:19Z</time>
      </trkpt>
      <trkpt lat="42.82202800000006" lon="-1.6266079999999938">
        <ele>438.821</ele>
        <time>2022-08-24T17:17:20Z</time>
      </trkpt>
      <trkpt lat="42.82203300000006" lon="-1.6266349999999938">
        <ele>438.853</ele>
        <time>2022-08-24T17:17:21Z</time>
      </trkpt>
      <trkpt lat="42.82203900000006" lon="-1.6266619999999938">
        <ele>439.050</ele>
        <time>2022-08-24T17:17:22Z</time>
      </trkpt>
      <trkpt lat="42.82203700000006" lon="-1.626679999999994">
        <ele>438.863</ele>
        <time>2022-08-24T17:17:23Z</time>
      </trkpt>
      <trkpt lat="42.82203100000006" lon="-1.626703999999994">
        <ele>439.087</ele>
        <time>2022-08-24T17:17:24Z</time>
      </trkpt>
      <trkpt lat="42.82202700000006" lon="-1.6267319999999938">
        <ele>439.036</ele>
        <time>2022-08-24T17:17:25Z</time>
      </trkpt>
      <trkpt lat="42.822020000000066" lon="-1.6267639999999939">
        <ele>439.275</ele>
        <time>2022-08-24T17:17:26Z</time>
      </trkpt>
      <trkpt lat="42.822009000000065" lon="-1.6268019999999939">
        <ele>439.228</ele>
        <time>2022-08-24T17:17:27Z</time>
      </trkpt>
      <trkpt lat="42.82196500000006" lon="-1.626976999999994">
        <ele>439.220</ele>
        <time>2022-08-24T17:17:31Z</time>
      </trkpt>
      <trkpt lat="42.82195500000006" lon="-1.627026999999994">
        <ele>439.209</ele>
        <time>2022-08-24T17:17:32Z</time>
      </trkpt>
      <trkpt lat="42.82194000000006" lon="-1.627070999999994">
        <ele>439.258</ele>
        <time>2022-08-24T17:17:33Z</time>
      </trkpt>
      <trkpt lat="42.82192300000006" lon="-1.627116999999994">
        <ele>439.228</ele>
        <time>2022-08-24T17:17:34Z</time>
      </trkpt>
      <trkpt lat="42.82191200000006" lon="-1.6271639999999938">
        <ele>439.278</ele>
        <time>2022-08-24T17:17:35Z</time>
      </trkpt>
      <trkpt lat="42.82188900000006" lon="-1.627251999999994">
        <ele>439.234</ele>
        <time>2022-08-24T17:17:37Z</time>
      </trkpt>
      <trkpt lat="42.82187500000006" lon="-1.6272959999999939">
        <ele>439.426</ele>
        <time>2022-08-24T17:17:38Z</time>
      </trkpt>
      <trkpt lat="42.821852000000064" lon="-1.6273799999999938">
        <ele>439.423</ele>
        <time>2022-08-24T17:17:40Z</time>
      </trkpt>
      <trkpt lat="42.821843000000065" lon="-1.6274179999999938">
        <ele>439.416</ele>
        <time>2022-08-24T17:17:41Z</time>
      </trkpt>
      <trkpt lat="42.82178000000007" lon="-1.627637999999994">
        <ele>439.830</ele>
        <time>2022-08-24T17:17:46Z</time>
      </trkpt>
      <trkpt lat="42.82175900000007" lon="-1.6277229999999938">
        <ele>440.059</ele>
        <time>2022-08-24T17:17:48Z</time>
      </trkpt>
      <trkpt lat="42.82173000000007" lon="-1.6278089999999938">
        <ele>440.036</ele>
        <time>2022-08-24T17:17:50Z</time>
      </trkpt>
      <trkpt lat="42.821704000000075" lon="-1.627891999999994">
        <ele>440.217</ele>
        <time>2022-08-24T17:17:52Z</time>
      </trkpt>
      <trkpt lat="42.821614000000075" lon="-1.628211999999994">
        <ele>440.618</ele>
        <time>2022-08-24T17:17:59Z</time>
      </trkpt>
      <trkpt lat="42.821518000000076" lon="-1.628577999999994">
        <ele>440.809</ele>
        <time>2022-08-24T17:18:07Z</time>
      </trkpt>
      <trkpt lat="42.82150000000008" lon="-1.628669999999994">
        <ele>440.834</ele>
        <time>2022-08-24T17:18:09Z</time>
      </trkpt>
      <trkpt lat="42.82147500000008" lon="-1.628763999999994">
        <ele>440.864</ele>
        <time>2022-08-24T17:18:11Z</time>
      </trkpt>
      <trkpt lat="42.821465000000074" lon="-1.628818999999994">
        <ele>440.854</ele>
        <time>2022-08-24T17:18:12Z</time>
      </trkpt>
      <trkpt lat="42.821372000000075" lon="-1.629145999999994">
        <ele>441.080</ele>
        <time>2022-08-24T17:18:18Z</time>
      </trkpt>
      <trkpt lat="42.82135600000007" lon="-1.629250999999994">
        <ele>441.062</ele>
        <time>2022-08-24T17:18:20Z</time>
      </trkpt>
      <trkpt lat="42.82134600000007" lon="-1.629303999999994">
        <ele>441.089</ele>
        <time>2022-08-24T17:18:21Z</time>
      </trkpt>
      <trkpt lat="42.82133200000007" lon="-1.629355999999994">
        <ele>441.062</ele>
        <time>2022-08-24T17:18:22Z</time>
      </trkpt>
      <trkpt lat="42.82131900000007" lon="-1.6294059999999941">
        <ele>441.086</ele>
        <time>2022-08-24T17:18:23Z</time>
      </trkpt>
      <trkpt lat="42.821308000000066" lon="-1.6294569999999942">
        <ele>441.285</ele>
        <time>2022-08-24T17:18:24Z</time>
      </trkpt>
      <trkpt lat="42.821297000000065" lon="-1.6295059999999941">
        <ele>441.276</ele>
        <time>2022-08-24T17:18:25Z</time>
      </trkpt>
      <trkpt lat="42.82128200000007" lon="-1.6295539999999942">
        <ele>441.290</ele>
        <time>2022-08-24T17:18:26Z</time>
      </trkpt>
      <trkpt lat="42.82126400000007" lon="-1.6296039999999943">
        <ele>441.219</ele>
        <time>2022-08-24T17:18:27Z</time>
      </trkpt>
      <trkpt lat="42.82125200000007" lon="-1.6296539999999944">
        <ele>441.209</ele>
        <time>2022-08-24T17:18:28Z</time>
      </trkpt>
      <trkpt lat="42.821243000000074" lon="-1.6297049999999944">
        <ele>441.298</ele>
        <time>2022-08-24T17:18:29Z</time>
      </trkpt>
      <trkpt lat="42.821228000000076" lon="-1.6297529999999945">
        <ele>441.288</ele>
        <time>2022-08-24T17:18:30Z</time>
      </trkpt>
      <trkpt lat="42.82122200000008" lon="-1.6297939999999944">
        <ele>441.238</ele>
        <time>2022-08-24T17:18:31Z</time>
      </trkpt>
      <trkpt lat="42.821214000000076" lon="-1.6298859999999944">
        <ele>441.254</ele>
        <time>2022-08-24T17:18:33Z</time>
      </trkpt>
      <trkpt lat="42.821220000000075" lon="-1.6299369999999944">
        <ele>441.416</ele>
        <time>2022-08-24T17:18:34Z</time>
      </trkpt>
      <trkpt lat="42.82122700000007" lon="-1.6299849999999945">
        <ele>441.423</ele>
        <time>2022-08-24T17:18:35Z</time>
      </trkpt>
      <trkpt lat="42.82125300000007" lon="-1.6301899999999945">
        <ele>441.676</ele>
        <time>2022-08-24T17:18:39Z</time>
      </trkpt>
      <trkpt lat="42.821260000000066" lon="-1.6302439999999945">
        <ele>441.660</ele>
        <time>2022-08-24T17:18:40Z</time>
      </trkpt>
      <trkpt lat="42.821266000000065" lon="-1.6302999999999945">
        <ele>441.699</ele>
        <time>2022-08-24T17:18:41Z</time>
      </trkpt>
      <trkpt lat="42.82127400000007" lon="-1.6303559999999946">
        <ele>441.827</ele>
        <time>2022-08-24T17:18:42Z</time>
      </trkpt>
      <trkpt lat="42.82133000000007" lon="-1.6307039999999946">
        <ele>441.868</ele>
        <time>2022-08-24T17:18:48Z</time>
      </trkpt>
      <trkpt lat="42.821365000000064" lon="-1.6309929999999946">
        <ele>441.814</ele>
        <time>2022-08-24T17:18:53Z</time>
      </trkpt>
      <trkpt lat="42.82136900000006" lon="-1.6310489999999946">
        <ele>442.009</ele>
        <time>2022-08-24T17:18:54Z</time>
      </trkpt>
      <trkpt lat="42.82137100000006" lon="-1.6311049999999947">
        <ele>442.083</ele>
        <time>2022-08-24T17:18:55Z</time>
      </trkpt>
      <trkpt lat="42.821376000000065" lon="-1.6311589999999947">
        <ele>442.093</ele>
        <time>2022-08-24T17:18:56Z</time>
      </trkpt>
      <trkpt lat="42.821379000000064" lon="-1.6312129999999947">
        <ele>442.073</ele>
        <time>2022-08-24T17:18:57Z</time>
      </trkpt>
      <trkpt lat="42.821387000000065" lon="-1.6312619999999947">
        <ele>442.069</ele>
        <time>2022-08-24T17:18:58Z</time>
      </trkpt>
      <trkpt lat="42.821407000000065" lon="-1.6313499999999947">
        <ele>441.861</ele>
        <time>2022-08-24T17:19:00Z</time>
      </trkpt>
      <trkpt lat="42.821413000000064" lon="-1.6314549999999948">
        <ele>441.888</ele>
        <time>2022-08-24T17:19:02Z</time>
      </trkpt>
      <trkpt lat="42.821415000000066" lon="-1.6315129999999947">
        <ele>442.091</ele>
        <time>2022-08-24T17:19:03Z</time>
      </trkpt>
      <trkpt lat="42.82142200000006" lon="-1.6315699999999946">
        <ele>442.085</ele>
        <time>2022-08-24T17:19:04Z</time>
      </trkpt>
      <trkpt lat="42.82142500000006" lon="-1.6316209999999947">
        <ele>441.884</ele>
        <time>2022-08-24T17:19:05Z</time>
      </trkpt>
      <trkpt lat="42.82143100000006" lon="-1.6316649999999946">
        <ele>441.846</ele>
        <time>2022-08-24T17:19:06Z</time>
      </trkpt>
      <trkpt lat="42.82143700000006" lon="-1.6317139999999946">
        <ele>441.888</ele>
        <time>2022-08-24T17:19:07Z</time>
      </trkpt>
      <trkpt lat="42.82144400000006" lon="-1.6317649999999946">
        <ele>441.816</ele>
        <time>2022-08-24T17:19:08Z</time>
      </trkpt>
      <trkpt lat="42.82144800000005" lon="-1.6318169999999945">
        <ele>441.809</ele>
        <time>2022-08-24T17:19:09Z</time>
      </trkpt>
      <trkpt lat="42.821445000000054" lon="-1.6318739999999945">
        <ele>441.865</ele>
        <time>2022-08-24T17:19:10Z</time>
      </trkpt>
      <trkpt lat="42.82145500000006" lon="-1.6320369999999944">
        <ele>441.865</ele>
        <time>2022-08-24T17:19:13Z</time>
      </trkpt>
      <trkpt lat="42.82145700000006" lon="-1.6320839999999943">
        <ele>441.865</ele>
        <time>2022-08-24T17:19:14Z</time>
      </trkpt>
      <trkpt lat="42.821461000000056" lon="-1.6321309999999942">
        <ele>441.851</ele>
        <time>2022-08-24T17:19:15Z</time>
      </trkpt>
      <trkpt lat="42.82146300000006" lon="-1.6321829999999942">
        <ele>441.683</ele>
        <time>2022-08-24T17:19:16Z</time>
      </trkpt>
      <trkpt lat="42.821447000000056" lon="-1.6324469999999942">
        <ele>441.460</ele>
        <time>2022-08-24T17:19:21Z</time>
      </trkpt>
      <trkpt lat="42.82145200000006" lon="-1.6325529999999941">
        <ele>441.653</ele>
        <time>2022-08-24T17:19:23Z</time>
      </trkpt>
      <trkpt lat="42.82145200000006" lon="-1.632599999999994">
        <ele>441.237</ele>
        <time>2022-08-24T17:19:24Z</time>
      </trkpt>
      <trkpt lat="42.82146300000006" lon="-1.6326689999999942">
        <ele>441.426</ele>
        <time>2022-08-24T17:19:26Z</time>
      </trkpt>
      <trkpt lat="42.821467000000055" lon="-1.6327039999999942">
        <ele>441.436</ele>
        <time>2022-08-24T17:19:27Z</time>
      </trkpt>
      <trkpt lat="42.82146900000006" lon="-1.6327389999999942">
        <ele>441.417</ele>
        <time>2022-08-24T17:19:28Z</time>
      </trkpt>
      <trkpt lat="42.82147400000006" lon="-1.6327789999999942">
        <ele>441.418</ele>
        <time>2022-08-24T17:19:29Z</time>
      </trkpt>
      <trkpt lat="42.821475000000056" lon="-1.6328239999999943">
        <ele>441.409</ele>
        <time>2022-08-24T17:19:30Z</time>
      </trkpt>
      <trkpt lat="42.821467000000055" lon="-1.6328639999999943">
        <ele>441.434</ele>
        <time>2022-08-24T17:19:31Z</time>
      </trkpt>
      <trkpt lat="42.82147100000005" lon="-1.6328979999999944">
        <ele>441.414</ele>
        <time>2022-08-24T17:19:32Z</time>
      </trkpt>
      <trkpt lat="42.82147800000005" lon="-1.6329389999999944">
        <ele>441.474</ele>
        <time>2022-08-24T17:19:33Z</time>
      </trkpt>
      <trkpt lat="42.82150500000005" lon="-1.6330359999999944">
        <ele>441.480</ele>
        <time>2022-08-24T17:19:35Z</time>
      </trkpt>
      <trkpt lat="42.82151600000005" lon="-1.6330929999999944">
        <ele>441.292</ele>
        <time>2022-08-24T17:19:36Z</time>
      </trkpt>
      <trkpt lat="42.821552000000054" lon="-1.6332629999999944">
        <ele>441.259</ele>
        <time>2022-08-24T17:19:39Z</time>
      </trkpt>
      <trkpt lat="42.82155600000005" lon="-1.6334509999999944">
        <ele>441.232</ele>
        <time>2022-08-24T17:19:42Z</time>
      </trkpt>
      <trkpt lat="42.82155100000005" lon="-1.6335719999999945">
        <ele>441.086</ele>
        <time>2022-08-24T17:19:44Z</time>
      </trkpt>
      <trkpt lat="42.82154600000005" lon="-1.6337699999999944">
        <ele>441.085</ele>
        <time>2022-08-24T17:19:47Z</time>
      </trkpt>
      <trkpt lat="42.821550000000045" lon="-1.6338769999999945">
        <ele>441.297</ele>
        <time>2022-08-24T17:19:49Z</time>
      </trkpt>
      <trkpt lat="42.821530000000045" lon="-1.6340689999999944">
        <ele>441.223</ele>
        <time>2022-08-24T17:19:52Z</time>
      </trkpt>
      <trkpt lat="42.82153100000004" lon="-1.6341319999999944">
        <ele>441.225</ele>
        <time>2022-08-24T17:19:53Z</time>
      </trkpt>
      <trkpt lat="42.821527000000046" lon="-1.6341929999999945">
        <ele>441.209</ele>
        <time>2022-08-24T17:19:54Z</time>
      </trkpt>
      <trkpt lat="42.82152300000005" lon="-1.6342509999999943">
        <ele>441.220</ele>
        <time>2022-08-24T17:19:55Z</time>
      </trkpt>
      <trkpt lat="42.82147300000005" lon="-1.6345329999999942">
        <ele>441.450</ele>
        <time>2022-08-24T17:20:00Z</time>
      </trkpt>
      <trkpt lat="42.82143800000005" lon="-1.6346549999999942">
        <ele>441.490</ele>
        <time>2022-08-24T17:20:02Z</time>
      </trkpt>
      <trkpt lat="42.82138400000005" lon="-1.6348379999999942">
        <ele>441.446</ele>
        <time>2022-08-24T17:20:05Z</time>
      </trkpt>
      <trkpt lat="42.821363000000055" lon="-1.6349009999999942">
        <ele>441.488</ele>
        <time>2022-08-24T17:20:06Z</time>
      </trkpt>
      <trkpt lat="42.821341000000054" lon="-1.6349619999999943">
        <ele>441.485</ele>
        <time>2022-08-24T17:20:07Z</time>
      </trkpt>
      <trkpt lat="42.82132000000006" lon="-1.6350199999999941">
        <ele>441.478</ele>
        <time>2022-08-24T17:20:08Z</time>
      </trkpt>
      <trkpt lat="42.82130000000006" lon="-1.6350769999999941">
        <ele>441.482</ele>
        <time>2022-08-24T17:20:09Z</time>
      </trkpt>
      <trkpt lat="42.82127900000006" lon="-1.635136999999994">
        <ele>441.491</ele>
        <time>2022-08-24T17:20:10Z</time>
      </trkpt>
      <trkpt lat="42.82126000000006" lon="-1.635193999999994">
        <ele>441.459</ele>
        <time>2022-08-24T17:20:11Z</time>
      </trkpt>
      <trkpt lat="42.82124000000006" lon="-1.635248999999994">
        <ele>441.403</ele>
        <time>2022-08-24T17:20:12Z</time>
      </trkpt>
      <trkpt lat="42.82122000000006" lon="-1.635305999999994">
        <ele>441.423</ele>
        <time>2022-08-24T17:20:13Z</time>
      </trkpt>
      <trkpt lat="42.82120300000006" lon="-1.6353639999999938">
        <ele>441.409</ele>
        <time>2022-08-24T17:20:14Z</time>
      </trkpt>
      <trkpt lat="42.82114600000006" lon="-1.6355989999999938">
        <ele>441.686</ele>
        <time>2022-08-24T17:20:18Z</time>
      </trkpt>
      <trkpt lat="42.821086000000065" lon="-1.6358339999999938">
        <ele>441.866</ele>
        <time>2022-08-24T17:20:22Z</time>
      </trkpt>
      <trkpt lat="42.82101500000007" lon="-1.6360599999999939">
        <ele>441.676</ele>
        <time>2022-08-24T17:20:26Z</time>
      </trkpt>
      <trkpt lat="42.82097500000007" lon="-1.6361709999999938">
        <ele>441.882</ele>
        <time>2022-08-24T17:20:28Z</time>
      </trkpt>
      <trkpt lat="42.820948000000065" lon="-1.6362879999999937">
        <ele>441.844</ele>
        <time>2022-08-24T17:20:30Z</time>
      </trkpt>
      <trkpt lat="42.82085900000006" lon="-1.6366889999999938">
        <ele>441.421</ele>
        <time>2022-08-24T17:20:36Z</time>
      </trkpt>
      <trkpt lat="42.82084900000006" lon="-1.6367589999999939">
        <ele>441.244</ele>
        <time>2022-08-24T17:20:37Z</time>
      </trkpt>
      <trkpt lat="42.82080700000006" lon="-1.6370479999999938">
        <ele>440.838</ele>
        <time>2022-08-24T17:20:41Z</time>
      </trkpt>
      <trkpt lat="42.82079500000006" lon="-1.6371179999999939">
        <ele>440.667</ele>
        <time>2022-08-24T17:20:42Z</time>
      </trkpt>
      <trkpt lat="42.82078300000006" lon="-1.6371829999999938">
        <ele>440.658</ele>
        <time>2022-08-24T17:20:43Z</time>
      </trkpt>
      <trkpt lat="42.82077300000006" lon="-1.637238999999994">
        <ele>440.652</ele>
        <time>2022-08-24T17:20:44Z</time>
      </trkpt>
      <trkpt lat="42.82076200000006" lon="-1.637280999999994">
        <ele>440.617</ele>
        <time>2022-08-24T17:20:45Z</time>
      </trkpt>
      <trkpt lat="42.82075400000006" lon="-1.637312999999994">
        <ele>440.409</ele>
        <time>2022-08-24T17:20:46Z</time>
      </trkpt>
      <trkpt lat="42.82075100000006" lon="-1.6373359999999941">
        <ele>440.446</ele>
        <time>2022-08-24T17:20:47Z</time>
      </trkpt>
      <trkpt lat="42.820755000000055" lon="-1.6373599999999942">
        <ele>440.466</ele>
        <time>2022-08-24T17:20:48Z</time>
      </trkpt>
      <trkpt lat="42.820766000000056" lon="-1.6373779999999942">
        <ele>440.436</ele>
        <time>2022-08-24T17:20:49Z</time>
      </trkpt>
      <trkpt lat="42.82078100000005" lon="-1.6373929999999943">
        <ele>440.282</ele>
        <time>2022-08-24T17:20:50Z</time>
      </trkpt>
      <trkpt lat="42.82080100000005" lon="-1.6374069999999943">
        <ele>440.234</ele>
        <time>2022-08-24T17:20:51Z</time>
      </trkpt>
      <trkpt lat="42.820823000000054" lon="-1.6374169999999943">
        <ele>440.231</ele>
        <time>2022-08-24T17:20:52Z</time>
      </trkpt>
      <trkpt lat="42.82100700000005" lon="-1.6375039999999943">
        <ele>440.674</ele>
        <time>2022-08-24T17:20:59Z</time>
      </trkpt>
      <trkpt lat="42.82102800000005" lon="-1.6375169999999943">
        <ele>440.638</ele>
        <time>2022-08-24T17:21:00Z</time>
      </trkpt>
      <trkpt lat="42.82105200000005" lon="-1.6375309999999943">
        <ele>440.847</ele>
        <time>2022-08-24T17:21:01Z</time>
      </trkpt>
      <trkpt lat="42.82107700000005" lon="-1.6375439999999943">
        <ele>440.832</ele>
        <time>2022-08-24T17:21:02Z</time>
      </trkpt>
      <trkpt lat="42.821149000000055" lon="-1.6375789999999943">
        <ele>441.092</ele>
        <time>2022-08-24T17:21:05Z</time>
      </trkpt>
      <trkpt lat="42.821172000000054" lon="-1.6375829999999942">
        <ele>441.211</ele>
        <time>2022-08-24T17:21:06Z</time>
      </trkpt>
      <trkpt lat="42.821194000000055" lon="-1.6375859999999942">
        <ele>441.209</ele>
        <time>2022-08-24T17:21:07Z</time>
      </trkpt>
      <trkpt lat="42.82121500000005" lon="-1.6375859999999942">
        <ele>441.684</ele>
        <time>2022-08-24T17:21:08Z</time>
      </trkpt>
      <trkpt lat="42.821234000000054" lon="-1.6375869999999941">
        <ele>441.654</ele>
        <time>2022-08-24T17:21:09Z</time>
      </trkpt>
      <trkpt lat="42.82125100000005" lon="-1.6375869999999941">
        <ele>441.824</ele>
        <time>2022-08-24T17:21:10Z</time>
      </trkpt>
      <trkpt lat="42.821270000000055" lon="-1.637589999999994">
        <ele>441.860</ele>
        <time>2022-08-24T17:21:11Z</time>
      </trkpt>
      <trkpt lat="42.821290000000054" lon="-1.6375979999999941">
        <ele>442.052</ele>
        <time>2022-08-24T17:21:12Z</time>
      </trkpt>
      <trkpt lat="42.82131300000005" lon="-1.6376079999999942">
        <ele>442.089</ele>
        <time>2022-08-24T17:21:13Z</time>
      </trkpt>
      <trkpt lat="42.82133100000005" lon="-1.6376129999999942">
        <ele>442.072</ele>
        <time>2022-08-24T17:21:14Z</time>
      </trkpt>
      <trkpt lat="42.821445000000054" lon="-1.6376379999999942">
        <ele>442.266</ele>
        <time>2022-08-24T17:21:19Z</time>
      </trkpt>
      <trkpt lat="42.821467000000055" lon="-1.637643999999994">
        <ele>442.255</ele>
        <time>2022-08-24T17:21:20Z</time>
      </trkpt>
      <trkpt lat="42.82149100000006" lon="-1.6376489999999941">
        <ele>442.222</ele>
        <time>2022-08-24T17:21:21Z</time>
      </trkpt>
      <trkpt lat="42.82156200000006" lon="-1.6376779999999942">
        <ele>442.662</ele>
        <time>2022-08-24T17:21:24Z</time>
      </trkpt>
      <trkpt lat="42.821588000000055" lon="-1.6376869999999941">
        <ele>442.608</ele>
        <time>2022-08-24T17:21:25Z</time>
      </trkpt>
      <trkpt lat="42.82160400000006" lon="-1.6376939999999942">
        <ele>442.809</ele>
        <time>2022-08-24T17:21:26Z</time>
      </trkpt>
      <trkpt lat="42.82162600000006" lon="-1.6377039999999943">
        <ele>443.263</ele>
        <time>2022-08-24T17:21:27Z</time>
      </trkpt>
      <trkpt lat="42.82168400000006" lon="-1.6377309999999943">
        <ele>443.433</ele>
        <time>2022-08-24T17:21:30Z</time>
      </trkpt>
      <trkpt lat="42.82169800000006" lon="-1.6377319999999942">
        <ele>443.653</ele>
        <time>2022-08-24T17:21:31Z</time>
      </trkpt>
      <trkpt lat="42.82171000000006" lon="-1.6377289999999942">
        <ele>443.679</ele>
        <time>2022-08-24T17:21:32Z</time>
      </trkpt>
      <trkpt lat="42.82172300000006" lon="-1.6377239999999942">
        <ele>443.821</ele>
        <time>2022-08-24T17:21:33Z</time>
      </trkpt>
      <trkpt lat="42.82173800000006" lon="-1.6377209999999942">
        <ele>443.818</ele>
        <time>2022-08-24T17:21:34Z</time>
      </trkpt>
      <trkpt lat="42.82177400000006" lon="-1.6377259999999942">
        <ele>443.891</ele>
        <time>2022-08-24T17:21:36Z</time>
      </trkpt>
      <trkpt lat="42.82179400000006" lon="-1.6377369999999942">
        <ele>443.875</ele>
        <time>2022-08-24T17:21:37Z</time>
      </trkpt>
      <trkpt lat="42.82181000000006" lon="-1.6377419999999943">
        <ele>444.044</ele>
        <time>2022-08-24T17:21:38Z</time>
      </trkpt>
      <trkpt lat="42.82182800000006" lon="-1.6377429999999942">
        <ele>444.056</ele>
        <time>2022-08-24T17:21:39Z</time>
      </trkpt>
      <trkpt lat="42.82190100000006" lon="-1.6377299999999941">
        <ele>444.259</ele>
        <time>2022-08-24T17:21:42Z</time>
      </trkpt>
      <trkpt lat="42.82192300000006" lon="-1.637716999999994">
        <ele>444.214</ele>
        <time>2022-08-24T17:21:43Z</time>
      </trkpt>
      <trkpt lat="42.82194600000006" lon="-1.6376999999999942">
        <ele>444.209</ele>
        <time>2022-08-24T17:21:44Z</time>
      </trkpt>
      <trkpt lat="42.82215700000006" lon="-1.6375509999999942">
        <ele>444.256</ele>
        <time>2022-08-24T17:21:52Z</time>
      </trkpt>
      <trkpt lat="42.822353000000064" lon="-1.6374579999999943">
        <ele>444.466</ele>
        <time>2022-08-24T17:21:58Z</time>
      </trkpt>
      <trkpt lat="42.82238700000006" lon="-1.6374389999999943">
        <ele>444.226</ele>
        <time>2022-08-24T17:21:59Z</time>
      </trkpt>
      <trkpt lat="42.82242700000006" lon="-1.6374159999999942">
        <ele>444.262</ele>
        <time>2022-08-24T17:22:00Z</time>
      </trkpt>
      <trkpt lat="42.82246300000006" lon="-1.6373949999999942">
        <ele>444.014</ele>
        <time>2022-08-24T17:22:01Z</time>
      </trkpt>
      <trkpt lat="42.82249400000006" lon="-1.637376999999994">
        <ele>443.831</ele>
        <time>2022-08-24T17:22:02Z</time>
      </trkpt>
      <trkpt lat="42.822521000000066" lon="-1.637361999999994">
        <ele>443.884</ele>
        <time>2022-08-24T17:22:03Z</time>
      </trkpt>
      <trkpt lat="42.82254500000007" lon="-1.637342999999994">
        <ele>443.658</ele>
        <time>2022-08-24T17:22:04Z</time>
      </trkpt>
      <trkpt lat="42.82259600000007" lon="-1.637281999999994">
        <ele>443.417</ele>
        <time>2022-08-24T17:22:06Z</time>
      </trkpt>
      <trkpt lat="42.82269800000007" lon="-1.637095999999994">
        <ele>443.236</ele>
        <time>2022-08-24T17:22:10Z</time>
      </trkpt>
      <trkpt lat="42.82273400000007" lon="-1.637057999999994">
        <ele>443.217</ele>
        <time>2022-08-24T17:22:11Z</time>
      </trkpt>
      <trkpt lat="42.822786000000065" lon="-1.6370319999999938">
        <ele>443.218</ele>
        <time>2022-08-24T17:22:12Z</time>
      </trkpt>
      <trkpt lat="42.82282400000007" lon="-1.637030999999994">
        <ele>443.209</ele>
        <time>2022-08-24T17:22:13Z</time>
      </trkpt>
      <trkpt lat="42.82286900000007" lon="-1.637040999999994">
        <ele>443.044</ele>
        <time>2022-08-24T17:22:14Z</time>
      </trkpt>
      <trkpt lat="42.822912000000066" lon="-1.637061999999994">
        <ele>443.024</ele>
        <time>2022-08-24T17:22:15Z</time>
      </trkpt>
      <trkpt lat="42.82295300000007" lon="-1.637087999999994">
        <ele>442.824</ele>
        <time>2022-08-24T17:22:16Z</time>
      </trkpt>
      <trkpt lat="42.82299300000007" lon="-1.6371109999999942">
        <ele>442.870</ele>
        <time>2022-08-24T17:22:17Z</time>
      </trkpt>
      <trkpt lat="42.823036000000066" lon="-1.6371279999999941">
        <ele>442.882</ele>
        <time>2022-08-24T17:22:18Z</time>
      </trkpt>
      <trkpt lat="42.82308000000007" lon="-1.6371379999999942">
        <ele>442.869</ele>
        <time>2022-08-24T17:22:19Z</time>
      </trkpt>
      <trkpt lat="42.82312200000007" lon="-1.6371369999999943">
        <ele>442.882</ele>
        <time>2022-08-24T17:22:20Z</time>
      </trkpt>
      <trkpt lat="42.82316000000007" lon="-1.6371239999999943">
        <ele>442.846</ele>
        <time>2022-08-24T17:22:21Z</time>
      </trkpt>
      <trkpt lat="42.823196000000074" lon="-1.6370969999999943">
        <ele>442.645</ele>
        <time>2022-08-24T17:22:22Z</time>
      </trkpt>
      <trkpt lat="42.82323000000007" lon="-1.6370639999999943">
        <ele>442.671</ele>
        <time>2022-08-24T17:22:23Z</time>
      </trkpt>
      <trkpt lat="42.82326400000007" lon="-1.6370279999999944">
        <ele>442.441</ele>
        <time>2022-08-24T17:22:24Z</time>
      </trkpt>
      <trkpt lat="42.823297000000075" lon="-1.6369929999999944">
        <ele>442.415</ele>
        <time>2022-08-24T17:22:25Z</time>
      </trkpt>
      <trkpt lat="42.82336900000008" lon="-1.6369229999999944">
        <ele>442.209</ele>
        <time>2022-08-24T17:22:27Z</time>
      </trkpt>
      <trkpt lat="42.82348400000008" lon="-1.6368149999999944">
        <ele>442.278</ele>
        <time>2022-08-24T17:22:30Z</time>
      </trkpt>
      <trkpt lat="42.82359600000008" lon="-1.6367169999999944">
        <ele>442.278</ele>
        <time>2022-08-24T17:22:33Z</time>
      </trkpt>
      <trkpt lat="42.82363500000008" lon="-1.6366769999999944">
        <ele>442.228</ele>
        <time>2022-08-24T17:22:34Z</time>
      </trkpt>
      <trkpt lat="42.823673000000085" lon="-1.6366459999999945">
        <ele>442.234</ele>
        <time>2022-08-24T17:22:35Z</time>
      </trkpt>
      <trkpt lat="42.82370300000009" lon="-1.6366229999999944">
        <ele>442.446</ele>
        <time>2022-08-24T17:22:36Z</time>
      </trkpt>
      <trkpt lat="42.82372800000009" lon="-1.6366069999999944">
        <ele>442.423</ele>
        <time>2022-08-24T17:22:37Z</time>
      </trkpt>
      <trkpt lat="42.823749000000085" lon="-1.6365969999999943">
        <ele>442.436</ele>
        <time>2022-08-24T17:22:38Z</time>
      </trkpt>
      <trkpt lat="42.823768000000086" lon="-1.6365829999999943">
        <ele>442.420</ele>
        <time>2022-08-24T17:22:39Z</time>
      </trkpt>
      <trkpt lat="42.82379300000009" lon="-1.6365649999999943">
        <ele>442.489</ele>
        <time>2022-08-24T17:22:40Z</time>
      </trkpt>
      <trkpt lat="42.82381700000009" lon="-1.6365519999999942">
        <ele>442.468</ele>
        <time>2022-08-24T17:22:41Z</time>
      </trkpt>
      <trkpt lat="42.82390200000009" lon="-1.6364689999999942">
        <ele>442.442</ele>
        <time>2022-08-24T17:22:44Z</time>
      </trkpt>
      <trkpt lat="42.823982000000086" lon="-1.6364069999999942">
        <ele>442.426</ele>
        <time>2022-08-24T17:22:46Z</time>
      </trkpt>
      <trkpt lat="42.82402100000009" lon="-1.6363749999999941">
        <ele>442.209</ele>
        <time>2022-08-24T17:22:47Z</time>
      </trkpt>
      <trkpt lat="42.824129000000084" lon="-1.636267999999994">
        <ele>442.277</ele>
        <time>2022-08-24T17:22:50Z</time>
      </trkpt>
      <trkpt lat="42.82418400000009" lon="-1.636227999999994">
        <ele>442.237</ele>
        <time>2022-08-24T17:22:51Z</time>
      </trkpt>
      <trkpt lat="42.82418400000009" lon="-1.636227999999994">
        <ele>442.037</ele>
        <time>2022-08-24T17:22:52Z</time>
      </trkpt>
      <trkpt lat="42.82421200000009" lon="-1.636201999999994">
        <ele>442.033</ele>
        <time>2022-08-24T17:22:53Z</time>
      </trkpt>
      <trkpt lat="42.824292000000085" lon="-1.6361249999999938">
        <ele>442.285</ele>
        <time>2022-08-24T17:22:56Z</time>
      </trkpt>
      <trkpt lat="42.82434700000009" lon="-1.636080999999994">
        <ele>442.452</ele>
        <time>2022-08-24T17:22:57Z</time>
      </trkpt>
      <trkpt lat="42.82438100000009" lon="-1.636050999999994">
        <ele>442.435</ele>
        <time>2022-08-24T17:22:58Z</time>
      </trkpt>
      <trkpt lat="42.82449600000009" lon="-1.635949999999994">
        <ele>442.879</ele>
        <time>2022-08-24T17:23:02Z</time>
      </trkpt>
      <trkpt lat="42.82452100000009" lon="-1.635938999999994">
        <ele>442.828</ele>
        <time>2022-08-24T17:23:03Z</time>
      </trkpt>
      <trkpt lat="42.82452100000009" lon="-1.635938999999994">
        <ele>443.082</ele>
        <time>2022-08-24T17:23:04Z</time>
      </trkpt>
      <trkpt lat="42.82460500000009" lon="-1.635825999999994">
        <ele>443.043</ele>
        <time>2022-08-24T17:23:07Z</time>
      </trkpt>
      <trkpt lat="42.82462400000009" lon="-1.635783999999994">
        <ele>443.217</ele>
        <time>2022-08-24T17:23:08Z</time>
      </trkpt>
      <trkpt lat="42.82462400000009" lon="-1.635783999999994">
        <ele>443.209</ele>
        <time>2022-08-24T17:23:09Z</time>
      </trkpt>
      <trkpt lat="42.82466700000009" lon="-1.6357469999999938">
        <ele>443.439</ele>
        <time>2022-08-24T17:23:10Z</time>
      </trkpt>
      <trkpt lat="42.82466700000009" lon="-1.6357469999999938">
        <ele>443.479</ele>
        <time>2022-08-24T17:23:11Z</time>
      </trkpt>
      <trkpt lat="42.82476200000009" lon="-1.635729999999994">
        <ele>443.489</ele>
        <time>2022-08-24T17:23:13Z</time>
      </trkpt>
      <trkpt lat="42.824792000000095" lon="-1.635721999999994">
        <ele>443.685</ele>
        <time>2022-08-24T17:23:14Z</time>
      </trkpt>
      <trkpt lat="42.824823000000094" lon="-1.635717999999994">
        <ele>443.697</ele>
        <time>2022-08-24T17:23:15Z</time>
      </trkpt>
      <trkpt lat="42.8248500000001" lon="-1.635714999999994">
        <ele>443.654</ele>
        <time>2022-08-24T17:23:16Z</time>
      </trkpt>
      <trkpt lat="42.824941000000095" lon="-1.635711999999994">
        <ele>444.067</ele>
        <time>2022-08-24T17:23:19Z</time>
      </trkpt>
      <trkpt lat="42.824941000000095" lon="-1.635711999999994">
        <ele>444.051</ele>
        <time>2022-08-24T17:23:20Z</time>
      </trkpt>
      <trkpt lat="42.824969000000095" lon="-1.6357109999999941">
        <ele>444.080</ele>
        <time>2022-08-24T17:23:21Z</time>
      </trkpt>
      <trkpt lat="42.8251620000001" lon="-1.6357539999999942">
        <ele>444.243</ele>
        <time>2022-08-24T17:23:26Z</time>
      </trkpt>
      <trkpt lat="42.8252310000001" lon="-1.635792999999994">
        <ele>444.264</ele>
        <time>2022-08-24T17:23:28Z</time>
      </trkpt>
      <trkpt lat="42.8252980000001" lon="-1.635809999999994">
        <ele>444.410</ele>
        <time>2022-08-24T17:23:30Z</time>
      </trkpt>
      <trkpt lat="42.8254200000001" lon="-1.6358139999999939">
        <ele>444.609</ele>
        <time>2022-08-24T17:23:33Z</time>
      </trkpt>
      <trkpt lat="42.8254200000001" lon="-1.6358139999999939">
        <ele>444.895</ele>
        <time>2022-08-24T17:23:34Z</time>
      </trkpt>
      <trkpt lat="42.8254980000001" lon="-1.635829999999994">
        <ele>444.895</ele>
        <time>2022-08-24T17:23:35Z</time>
      </trkpt>
      <trkpt lat="42.825534000000104" lon="-1.6358389999999938">
        <ele>444.875</ele>
        <time>2022-08-24T17:23:36Z</time>
      </trkpt>
      <trkpt lat="42.825567000000106" lon="-1.6358499999999938">
        <ele>444.831</ele>
        <time>2022-08-24T17:23:37Z</time>
      </trkpt>
      <trkpt lat="42.8256020000001" lon="-1.6358659999999938">
        <ele>444.873</ele>
        <time>2022-08-24T17:23:38Z</time>
      </trkpt>
      <trkpt lat="42.8256020000001" lon="-1.6358659999999938">
        <ele>444.810</ele>
        <time>2022-08-24T17:23:39Z</time>
      </trkpt>
      <trkpt lat="42.8256820000001" lon="-1.635883999999994">
        <ele>444.813</ele>
        <time>2022-08-24T17:23:40Z</time>
      </trkpt>
      <trkpt lat="42.8257900000001" lon="-1.635912999999994">
        <ele>444.847</ele>
        <time>2022-08-24T17:23:43Z</time>
      </trkpt>
      <trkpt lat="42.825825000000094" lon="-1.6359219999999939">
        <ele>444.846</ele>
        <time>2022-08-24T17:23:44Z</time>
      </trkpt>
      <trkpt lat="42.82586000000009" lon="-1.6359329999999939">
        <ele>444.847</ele>
        <time>2022-08-24T17:23:45Z</time>
      </trkpt>
      <trkpt lat="42.82589400000009" lon="-1.6359449999999938">
        <ele>445.029</ele>
        <time>2022-08-24T17:23:46Z</time>
      </trkpt>
      <trkpt lat="42.82603600000009" lon="-1.6359839999999937">
        <ele>445.021</ele>
        <time>2022-08-24T17:23:50Z</time>
      </trkpt>
      <trkpt lat="42.82637300000009" lon="-1.6360919999999937">
        <ele>445.209</ele>
        <time>2022-08-24T17:23:59Z</time>
      </trkpt>
      <trkpt lat="42.82644200000009" lon="-1.6361099999999937">
        <ele>445.085</ele>
        <time>2022-08-24T17:24:01Z</time>
      </trkpt>
      <trkpt lat="42.826548000000095" lon="-1.6361419999999938">
        <ele>445.265</ele>
        <time>2022-08-24T17:24:04Z</time>
      </trkpt>
      <trkpt lat="42.82658800000009" lon="-1.6361649999999939">
        <ele>445.285</ele>
        <time>2022-08-24T17:24:05Z</time>
      </trkpt>
      <trkpt lat="42.82669300000009" lon="-1.636239999999994">
        <ele>445.091</ele>
        <time>2022-08-24T17:24:08Z</time>
      </trkpt>
      <trkpt lat="42.82672700000009" lon="-1.6362649999999939">
        <ele>445.043</ele>
        <time>2022-08-24T17:24:09Z</time>
      </trkpt>
      <trkpt lat="42.82675600000009" lon="-1.6362849999999938">
        <ele>445.050</ele>
        <time>2022-08-24T17:24:10Z</time>
      </trkpt>
      <trkpt lat="42.82678300000009" lon="-1.6363009999999938">
        <ele>445.023</ele>
        <time>2022-08-24T17:24:11Z</time>
      </trkpt>
      <trkpt lat="42.82678300000009" lon="-1.6363009999999938">
        <ele>445.057</ele>
        <time>2022-08-24T17:24:12Z</time>
      </trkpt>
      <trkpt lat="42.82683200000009" lon="-1.6363299999999938">
        <ele>445.066</ele>
        <time>2022-08-24T17:24:13Z</time>
      </trkpt>
      <trkpt lat="42.82685400000009" lon="-1.6363489999999938">
        <ele>444.871</ele>
        <time>2022-08-24T17:24:14Z</time>
      </trkpt>
      <trkpt lat="42.82701500000009" lon="-1.6364379999999938">
        <ele>444.641</ele>
        <time>2022-08-24T17:24:19Z</time>
      </trkpt>
      <trkpt lat="42.82726500000009" lon="-1.636560999999994">
        <ele>444.815</ele>
        <time>2022-08-24T17:24:25Z</time>
      </trkpt>
      <trkpt lat="42.82742900000009" lon="-1.636630999999994">
        <ele>444.809</ele>
        <time>2022-08-24T17:24:28Z</time>
      </trkpt>
      <trkpt lat="42.82755200000009" lon="-1.636710999999994">
        <ele>444.848</ele>
        <time>2022-08-24T17:24:30Z</time>
      </trkpt>
      <trkpt lat="42.82778600000009" lon="-1.636915999999994">
        <ele>444.858</ele>
        <time>2022-08-24T17:24:34Z</time>
      </trkpt>
      <trkpt lat="42.82783600000009" lon="-1.636962999999994">
        <ele>444.628</ele>
        <time>2022-08-24T17:24:35Z</time>
      </trkpt>
      <trkpt lat="42.82783600000009" lon="-1.636962999999994">
        <ele>444.644</ele>
        <time>2022-08-24T17:24:36Z</time>
      </trkpt>
      <trkpt lat="42.82793800000009" lon="-1.6370529999999939">
        <ele>444.436</ele>
        <time>2022-08-24T17:24:37Z</time>
      </trkpt>
      <trkpt lat="42.82799300000009" lon="-1.637097999999994">
        <ele>444.443</ele>
        <time>2022-08-24T17:24:38Z</time>
      </trkpt>
      <trkpt lat="42.82804400000009" lon="-1.637140999999994">
        <ele>444.246</ele>
        <time>2022-08-24T17:24:39Z</time>
      </trkpt>
      <trkpt lat="42.82809600000009" lon="-1.637186999999994">
        <ele>444.040</ele>
        <time>2022-08-24T17:24:40Z</time>
      </trkpt>
      <trkpt lat="42.82814400000009" lon="-1.637227999999994">
        <ele>444.299</ele>
        <time>2022-08-24T17:24:41Z</time>
      </trkpt>
      <trkpt lat="42.828190000000085" lon="-1.6372689999999939">
        <ele>443.856</ele>
        <time>2022-08-24T17:24:42Z</time>
      </trkpt>
      <trkpt lat="42.828229000000086" lon="-1.637305999999994">
        <ele>443.859</ele>
        <time>2022-08-24T17:24:43Z</time>
      </trkpt>
      <trkpt lat="42.82827300000009" lon="-1.6373419999999939">
        <ele>443.614</ele>
        <time>2022-08-24T17:24:44Z</time>
      </trkpt>
      <trkpt lat="42.82831100000009" lon="-1.6373809999999938">
        <ele>443.609</ele>
        <time>2022-08-24T17:24:45Z</time>
      </trkpt>
      <trkpt lat="42.82834600000009" lon="-1.6374209999999938">
        <ele>443.466</ele>
        <time>2022-08-24T17:24:46Z</time>
      </trkpt>
      <trkpt lat="42.82838300000009" lon="-1.6374619999999938">
        <ele>443.426</ele>
        <time>2022-08-24T17:24:47Z</time>
      </trkpt>
      <trkpt lat="42.82842100000009" lon="-1.6375029999999937">
        <ele>443.446</ele>
        <time>2022-08-24T17:24:48Z</time>
      </trkpt>
      <trkpt lat="42.82845800000009" lon="-1.6375429999999938">
        <ele>443.242</ele>
        <time>2022-08-24T17:24:49Z</time>
      </trkpt>
      <trkpt lat="42.82853200000009" lon="-1.6376289999999938">
        <ele>443.254</ele>
        <time>2022-08-24T17:24:51Z</time>
      </trkpt>
      <trkpt lat="42.82856500000009" lon="-1.6376739999999939">
        <ele>443.221</ele>
        <time>2022-08-24T17:24:52Z</time>
      </trkpt>
      <trkpt lat="42.82859600000009" lon="-1.6377169999999939">
        <ele>443.274</ele>
        <time>2022-08-24T17:24:53Z</time>
      </trkpt>
      <trkpt lat="42.82862800000009" lon="-1.6377549999999939">
        <ele>443.298</ele>
        <time>2022-08-24T17:24:54Z</time>
      </trkpt>
      <trkpt lat="42.82862800000009" lon="-1.6377549999999939">
        <ele>443.067</ele>
        <time>2022-08-24T17:24:55Z</time>
      </trkpt>
      <trkpt lat="42.82869000000009" lon="-1.6378209999999938">
        <ele>443.056</ele>
        <time>2022-08-24T17:24:56Z</time>
      </trkpt>
      <trkpt lat="42.82871800000009" lon="-1.6378569999999937">
        <ele>443.059</ele>
        <time>2022-08-24T17:24:57Z</time>
      </trkpt>
      <trkpt lat="42.82874500000009" lon="-1.6378939999999937">
        <ele>443.014</ele>
        <time>2022-08-24T17:24:58Z</time>
      </trkpt>
      <trkpt lat="42.82883300000009" lon="-1.6380039999999938">
        <ele>443.009</ele>
        <time>2022-08-24T17:25:01Z</time>
      </trkpt>
      <trkpt lat="42.828862000000086" lon="-1.6380339999999938">
        <ele>443.066</ele>
        <time>2022-08-24T17:25:02Z</time>
      </trkpt>
      <trkpt lat="42.82889200000009" lon="-1.6380649999999937">
        <ele>443.046</ele>
        <time>2022-08-24T17:25:03Z</time>
      </trkpt>
      <trkpt lat="42.82891400000009" lon="-1.6380889999999937">
        <ele>443.036</ele>
        <time>2022-08-24T17:25:04Z</time>
      </trkpt>
      <trkpt lat="42.82894900000009" lon="-1.6381209999999937">
        <ele>443.092</ele>
        <time>2022-08-24T17:25:05Z</time>
      </trkpt>
      <trkpt lat="42.82898000000009" lon="-1.6381469999999938">
        <ele>442.884</ele>
        <time>2022-08-24T17:25:06Z</time>
      </trkpt>
      <trkpt lat="42.82905000000009" lon="-1.6381949999999939">
        <ele>442.881</ele>
        <time>2022-08-24T17:25:08Z</time>
      </trkpt>
      <trkpt lat="42.82910500000009" lon="-1.6382139999999938">
        <ele>442.874</ele>
        <time>2022-08-24T17:25:09Z</time>
      </trkpt>
      <trkpt lat="42.82915300000009" lon="-1.638212999999994">
        <ele>442.848</ele>
        <time>2022-08-24T17:25:10Z</time>
      </trkpt>
      <trkpt lat="42.82919900000009" lon="-1.638203999999994">
        <ele>443.057</ele>
        <time>2022-08-24T17:25:11Z</time>
      </trkpt>
      <trkpt lat="42.82924300000009" lon="-1.638199999999994">
        <ele>443.014</ele>
        <time>2022-08-24T17:25:12Z</time>
      </trkpt>
      <trkpt lat="42.82928900000009" lon="-1.638197999999994">
        <ele>443.054</ele>
        <time>2022-08-24T17:25:13Z</time>
      </trkpt>
      <trkpt lat="42.82933100000009" lon="-1.638191999999994">
        <ele>443.009</ele>
        <time>2022-08-24T17:25:14Z</time>
      </trkpt>
      <trkpt lat="42.82936900000009" lon="-1.6381809999999941">
        <ele>443.209</ele>
        <time>2022-08-24T17:25:15Z</time>
      </trkpt>
      <trkpt lat="42.82940600000009" lon="-1.638172999999994">
        <ele>443.262</ele>
        <time>2022-08-24T17:25:16Z</time>
      </trkpt>
      <trkpt lat="42.82944200000009" lon="-1.638165999999994">
        <ele>443.482</ele>
        <time>2022-08-24T17:25:17Z</time>
      </trkpt>
      <trkpt lat="42.82947100000009" lon="-1.638158999999994">
        <ele>443.652</ele>
        <time>2022-08-24T17:25:18Z</time>
      </trkpt>
      <trkpt lat="42.82947100000009" lon="-1.638158999999994">
        <ele>443.638</ele>
        <time>2022-08-24T17:25:19Z</time>
      </trkpt>
      <trkpt lat="42.82952200000009" lon="-1.638149999999994">
        <ele>444.010</ele>
        <time>2022-08-24T17:25:20Z</time>
      </trkpt>
      <trkpt lat="42.82954600000009" lon="-1.638146999999994">
        <ele>444.237</ele>
        <time>2022-08-24T17:25:21Z</time>
      </trkpt>
      <trkpt lat="42.82956700000009" lon="-1.638149999999994">
        <ele>444.450</ele>
        <time>2022-08-24T17:25:22Z</time>
      </trkpt>
      <trkpt lat="42.82959300000009" lon="-1.638150999999994">
        <ele>444.674</ele>
        <time>2022-08-24T17:25:23Z</time>
      </trkpt>
      <trkpt lat="42.82959300000009" lon="-1.638150999999994">
        <ele>445.063</ele>
        <time>2022-08-24T17:25:24Z</time>
      </trkpt>
      <trkpt lat="42.829650000000086" lon="-1.638152999999994">
        <ele>445.289</ele>
        <time>2022-08-24T17:25:25Z</time>
      </trkpt>
      <trkpt lat="42.82966900000009" lon="-1.6381569999999939">
        <ele>445.206</ele>
        <time>2022-08-24T17:25:26Z</time>
      </trkpt>
      <trkpt lat="42.82968300000009" lon="-1.6381579999999938">
        <ele>445.626</ele>
        <time>2022-08-24T17:25:27Z</time>
      </trkpt>
      <trkpt lat="42.82970000000009" lon="-1.6381589999999937">
        <ele>445.609</ele>
        <time>2022-08-24T17:25:28Z</time>
      </trkpt>
      <trkpt lat="42.82970000000009" lon="-1.6381589999999937">
        <ele>446.059</ele>
        <time>2022-08-24T17:25:29Z</time>
      </trkpt>
      <trkpt lat="42.82973000000009" lon="-1.6381699999999937">
        <ele>446.279</ele>
        <time>2022-08-24T17:25:30Z</time>
      </trkpt>
      <trkpt lat="42.82974800000009" lon="-1.6381769999999938">
        <ele>446.279</ele>
        <time>2022-08-24T17:25:31Z</time>
      </trkpt>
      <trkpt lat="42.82976500000009" lon="-1.6381839999999939">
        <ele>446.475</ele>
        <time>2022-08-24T17:25:32Z</time>
      </trkpt>
      <trkpt lat="42.82978200000009" lon="-1.638193999999994">
        <ele>446.447</ele>
        <time>2022-08-24T17:25:33Z</time>
      </trkpt>
      <trkpt lat="42.82978200000009" lon="-1.638193999999994">
        <ele>446.844</ele>
        <time>2022-08-24T17:25:34Z</time>
      </trkpt>
      <trkpt lat="42.829816000000086" lon="-1.638212999999994">
        <ele>446.857</ele>
        <time>2022-08-24T17:25:35Z</time>
      </trkpt>
      <trkpt lat="42.82983500000009" lon="-1.638230999999994">
        <ele>447.081</ele>
        <time>2022-08-24T17:25:36Z</time>
      </trkpt>
      <trkpt lat="42.82984900000009" lon="-1.638243999999994">
        <ele>447.240</ele>
        <time>2022-08-24T17:25:37Z</time>
      </trkpt>
      <trkpt lat="42.82986900000009" lon="-1.638255999999994">
        <ele>447.283</ele>
        <time>2022-08-24T17:25:38Z</time>
      </trkpt>
      <trkpt lat="42.82986900000009" lon="-1.638255999999994">
        <ele>447.425</ele>
        <time>2022-08-24T17:25:39Z</time>
      </trkpt>
      <trkpt lat="42.82991000000009" lon="-1.6382809999999939">
        <ele>447.417</ele>
        <time>2022-08-24T17:25:40Z</time>
      </trkpt>
      <trkpt lat="42.82992300000009" lon="-1.638296999999994">
        <ele>447.609</ele>
        <time>2022-08-24T17:25:41Z</time>
      </trkpt>
      <trkpt lat="42.82993200000009" lon="-1.6383089999999938">
        <ele>447.669</ele>
        <time>2022-08-24T17:25:42Z</time>
      </trkpt>
      <trkpt lat="42.829945000000095" lon="-1.6383179999999937">
        <ele>447.639</ele>
        <time>2022-08-24T17:25:43Z</time>
      </trkpt>
      <trkpt lat="42.8299610000001" lon="-1.6383219999999936">
        <ele>447.889</ele>
        <time>2022-08-24T17:25:44Z</time>
      </trkpt>
      <trkpt lat="42.829976000000094" lon="-1.6383239999999937">
        <ele>447.895</ele>
        <time>2022-08-24T17:25:45Z</time>
      </trkpt>
      <trkpt lat="42.82999700000009" lon="-1.6383279999999936">
        <ele>448.077</ele>
        <time>2022-08-24T17:25:46Z</time>
      </trkpt>
      <trkpt lat="42.830010000000094" lon="-1.6383319999999935">
        <ele>448.044</ele>
        <time>2022-08-24T17:25:47Z</time>
      </trkpt>
      <trkpt lat="42.830026000000096" lon="-1.6383399999999935">
        <ele>448.267</ele>
        <time>2022-08-24T17:25:48Z</time>
      </trkpt>
      <trkpt lat="42.830026000000096" lon="-1.6383399999999935">
        <ele>448.291</ele>
        <time>2022-08-24T17:25:49Z</time>
      </trkpt>
      <trkpt lat="42.830063000000095" lon="-1.6383719999999935">
        <ele>448.270</ele>
        <time>2022-08-24T17:25:50Z</time>
      </trkpt>
      <trkpt lat="42.8300760000001" lon="-1.6383889999999934">
        <ele>448.275</ele>
        <time>2022-08-24T17:25:51Z</time>
      </trkpt>
      <trkpt lat="42.830094000000095" lon="-1.6384079999999934">
        <ele>448.428</ele>
        <time>2022-08-24T17:25:52Z</time>
      </trkpt>
      <trkpt lat="42.83011500000009" lon="-1.6384289999999935">
        <ele>448.420</ele>
        <time>2022-08-24T17:25:53Z</time>
      </trkpt>
      <trkpt lat="42.83011500000009" lon="-1.6384289999999935">
        <ele>448.409</ele>
        <time>2022-08-24T17:25:54Z</time>
      </trkpt>
      <trkpt lat="42.83016300000009" lon="-1.6384759999999934">
        <ele>448.468</ele>
        <time>2022-08-24T17:25:55Z</time>
      </trkpt>
      <trkpt lat="42.830190000000094" lon="-1.6384999999999934">
        <ele>448.418</ele>
        <time>2022-08-24T17:25:56Z</time>
      </trkpt>
      <trkpt lat="42.8302140000001" lon="-1.6385229999999935">
        <ele>448.628</ele>
        <time>2022-08-24T17:25:57Z</time>
      </trkpt>
      <trkpt lat="42.8302340000001" lon="-1.6385439999999936">
        <ele>448.684</ele>
        <time>2022-08-24T17:25:58Z</time>
      </trkpt>
      <trkpt lat="42.830254000000096" lon="-1.6385659999999935">
        <ele>448.696</ele>
        <time>2022-08-24T17:25:59Z</time>
      </trkpt>
      <trkpt lat="42.8303660000001" lon="-1.6386959999999935">
        <ele>449.223</ele>
        <time>2022-08-24T17:26:04Z</time>
      </trkpt>
      <trkpt lat="42.8303900000001" lon="-1.6387239999999934">
        <ele>449.266</ele>
        <time>2022-08-24T17:26:05Z</time>
      </trkpt>
      <trkpt lat="42.8304100000001" lon="-1.6387469999999935">
        <ele>449.230</ele>
        <time>2022-08-24T17:26:06Z</time>
      </trkpt>
      <trkpt lat="42.8304310000001" lon="-1.6387709999999935">
        <ele>449.449</ele>
        <time>2022-08-24T17:26:07Z</time>
      </trkpt>
      <trkpt lat="42.830448000000096" lon="-1.6387899999999935">
        <ele>449.431</ele>
        <time>2022-08-24T17:26:08Z</time>
      </trkpt>
      <trkpt lat="42.830448000000096" lon="-1.6387899999999935">
        <ele>449.661</ele>
        <time>2022-08-24T17:26:09Z</time>
      </trkpt>
      <trkpt lat="42.8305490000001" lon="-1.6389229999999935">
        <ele>450.007</ele>
        <time>2022-08-24T17:26:13Z</time>
      </trkpt>
      <trkpt lat="42.8305490000001" lon="-1.6389229999999935">
        <ele>450.209</ele>
        <time>2022-08-24T17:26:14Z</time>
      </trkpt>
      <trkpt lat="42.8305630000001" lon="-1.6389439999999935">
        <ele>450.274</ele>
        <time>2022-08-24T17:26:15Z</time>
      </trkpt>
      <trkpt lat="42.830600000000096" lon="-1.6390009999999935">
        <ele>450.284</ele>
        <time>2022-08-24T17:26:16Z</time>
      </trkpt>
      <trkpt lat="42.8306140000001" lon="-1.6390229999999935">
        <ele>450.494</ele>
        <time>2022-08-24T17:26:17Z</time>
      </trkpt>
      <trkpt lat="42.830631000000096" lon="-1.6390489999999935">
        <ele>450.450</ele>
        <time>2022-08-24T17:26:18Z</time>
      </trkpt>
      <trkpt lat="42.830645000000096" lon="-1.6390699999999936">
        <ele>450.472</ele>
        <time>2022-08-24T17:26:19Z</time>
      </trkpt>
      <trkpt lat="42.830662000000096" lon="-1.6390929999999937">
        <ele>450.629</ele>
        <time>2022-08-24T17:26:21Z</time>
      </trkpt>
      <trkpt lat="42.8306810000001" lon="-1.6391189999999938">
        <ele>450.662</ele>
        <time>2022-08-24T17:26:22Z</time>
      </trkpt>
      <trkpt lat="42.8307080000001" lon="-1.6391559999999938">
        <ele>450.876</ele>
        <time>2022-08-24T17:26:23Z</time>
      </trkpt>
      <trkpt lat="42.8307220000001" lon="-1.6391769999999939">
        <ele>451.085</ele>
        <time>2022-08-24T17:26:24Z</time>
      </trkpt>
      <trkpt lat="42.8307570000001" lon="-1.639237999999994">
        <ele>451.466</ele>
        <time>2022-08-24T17:26:27Z</time>
      </trkpt>
      <trkpt lat="42.830769000000096" lon="-1.639250999999994">
        <ele>451.429</ele>
        <time>2022-08-24T17:26:28Z</time>
      </trkpt>
      <trkpt lat="42.8307850000001" lon="-1.639267999999994">
        <ele>451.421</ele>
        <time>2022-08-24T17:26:29Z</time>
      </trkpt>
      <trkpt lat="42.830851000000095" lon="-1.6393609999999939">
        <ele>451.809</ele>
        <time>2022-08-24T17:26:33Z</time>
      </trkpt>
      <trkpt lat="42.830865000000095" lon="-1.6393769999999939">
        <ele>451.827</ele>
        <time>2022-08-24T17:26:34Z</time>
      </trkpt>
      <trkpt lat="42.8308810000001" lon="-1.6393969999999938">
        <ele>451.827</ele>
        <time>2022-08-24T17:26:35Z</time>
      </trkpt>
      <trkpt lat="42.8308810000001" lon="-1.6393969999999938">
        <ele>452.017</ele>
        <time>2022-08-24T17:26:36Z</time>
      </trkpt>
      <trkpt lat="42.830910000000095" lon="-1.6394389999999939">
        <ele>452.053</ele>
        <time>2022-08-24T17:26:37Z</time>
      </trkpt>
      <trkpt lat="42.830919000000094" lon="-1.6394529999999938">
        <ele>452.215</ele>
        <time>2022-08-24T17:26:38Z</time>
      </trkpt>
      <trkpt lat="42.830924000000095" lon="-1.639462999999994">
        <ele>452.232</ele>
        <time>2022-08-24T17:26:39Z</time>
      </trkpt>
      <trkpt lat="42.8309290000001" lon="-1.6394719999999938">
        <ele>452.445</ele>
        <time>2022-08-24T17:26:40Z</time>
      </trkpt>
      <trkpt lat="42.8309390000001" lon="-1.639494999999994">
        <ele>452.449</ele>
        <time>2022-08-24T17:26:41Z</time>
      </trkpt>
      <trkpt lat="42.8309460000001" lon="-1.639510999999994">
        <ele>452.648</ele>
        <time>2022-08-24T17:26:42Z</time>
      </trkpt>
      <trkpt lat="42.830952000000096" lon="-1.639531999999994">
        <ele>452.642</ele>
        <time>2022-08-24T17:26:43Z</time>
      </trkpt>
      <trkpt lat="42.8309600000001" lon="-1.639550999999994">
        <ele>452.622</ele>
        <time>2022-08-24T17:26:44Z</time>
      </trkpt>
      <trkpt lat="42.8309700000001" lon="-1.639590999999994">
        <ele>452.614</ele>
        <time>2022-08-24T17:26:46Z</time>
      </trkpt>
      <trkpt lat="42.8309840000001" lon="-1.639623999999994">
        <ele>452.609</ele>
        <time>2022-08-24T17:26:47Z</time>
      </trkpt>
      <trkpt lat="42.8309880000001" lon="-1.6396549999999939">
        <ele>452.645</ele>
        <time>2022-08-24T17:26:48Z</time>
      </trkpt>
      <trkpt lat="42.8309730000001" lon="-1.639729999999994">
        <ele>452.845</ele>
        <time>2022-08-24T17:26:50Z</time>
      </trkpt>
      <trkpt lat="42.8309700000001" lon="-1.639769999999994">
        <ele>452.865</ele>
        <time>2022-08-24T17:26:51Z</time>
      </trkpt>
      <trkpt lat="42.8309670000001" lon="-1.639809999999994">
        <ele>452.851</ele>
        <time>2022-08-24T17:26:52Z</time>
      </trkpt>
      <trkpt lat="42.8309780000001" lon="-1.639847999999994">
        <ele>452.863</ele>
        <time>2022-08-24T17:26:53Z</time>
      </trkpt>
      <trkpt lat="42.8309800000001" lon="-1.639876999999994">
        <ele>452.860</ele>
        <time>2022-08-24T17:26:54Z</time>
      </trkpt>
      <trkpt lat="42.8309870000001" lon="-1.639919999999994">
        <ele>452.833</ele>
        <time>2022-08-24T17:26:55Z</time>
      </trkpt>
      <trkpt lat="42.8310070000001" lon="-1.640122999999994">
        <ele>452.487</ele>
        <time>2022-08-24T17:27:00Z</time>
      </trkpt>
      <trkpt lat="42.8310030000001" lon="-1.640163999999994">
        <ele>452.436</ele>
        <time>2022-08-24T17:27:01Z</time>
      </trkpt>
      <trkpt lat="42.8309800000001" lon="-1.640251999999994">
        <ele>452.499</ele>
        <time>2022-08-24T17:27:03Z</time>
      </trkpt>
      <trkpt lat="42.83097300000011" lon="-1.640294999999994">
        <ele>452.407</ele>
        <time>2022-08-24T17:27:04Z</time>
      </trkpt>
      <trkpt lat="42.83092700000011" lon="-1.6404529999999942">
        <ele>452.427</ele>
        <time>2022-08-24T17:27:08Z</time>
      </trkpt>
      <trkpt lat="42.83086800000011" lon="-1.6406359999999942">
        <ele>452.409</ele>
        <time>2022-08-24T17:27:13Z</time>
      </trkpt>
      <trkpt lat="42.83084900000011" lon="-1.6406709999999942">
        <ele>452.410</ele>
        <time>2022-08-24T17:27:14Z</time>
      </trkpt>
      <trkpt lat="42.830816000000105" lon="-1.6407409999999942">
        <ele>452.230</ele>
        <time>2022-08-24T17:27:16Z</time>
      </trkpt>
      <trkpt lat="42.830743000000105" lon="-1.6408079999999943">
        <ele>452.280</ele>
        <time>2022-08-24T17:27:18Z</time>
      </trkpt>
      <trkpt lat="42.8307100000001" lon="-1.6408459999999943">
        <ele>452.256</ele>
        <time>2022-08-24T17:27:19Z</time>
      </trkpt>
      <trkpt lat="42.830653000000105" lon="-1.6409169999999942">
        <ele>452.238</ele>
        <time>2022-08-24T17:27:21Z</time>
      </trkpt>
      <trkpt lat="42.8306290000001" lon="-1.6409409999999942">
        <ele>452.225</ele>
        <time>2022-08-24T17:27:22Z</time>
      </trkpt>
      <trkpt lat="42.8306290000001" lon="-1.6409409999999942">
        <ele>452.068</ele>
        <time>2022-08-24T17:27:23Z</time>
      </trkpt>
      <trkpt lat="42.8305760000001" lon="-1.6410139999999942">
        <ele>452.032</ele>
        <time>2022-08-24T17:27:24Z</time>
      </trkpt>
      <trkpt lat="42.8305510000001" lon="-1.6410429999999943">
        <ele>452.071</ele>
        <time>2022-08-24T17:27:25Z</time>
      </trkpt>
      <trkpt lat="42.8305320000001" lon="-1.6410649999999942">
        <ele>451.892</ele>
        <time>2022-08-24T17:27:26Z</time>
      </trkpt>
      <trkpt lat="42.830513000000096" lon="-1.6410909999999943">
        <ele>451.873</ele>
        <time>2022-08-24T17:27:27Z</time>
      </trkpt>
      <trkpt lat="42.830513000000096" lon="-1.6410909999999943">
        <ele>451.820</ele>
        <time>2022-08-24T17:27:28Z</time>
      </trkpt>
      <trkpt lat="42.8304840000001" lon="-1.6411279999999944">
        <ele>451.609</ele>
        <time>2022-08-24T17:27:29Z</time>
      </trkpt>
      <trkpt lat="42.830474000000095" lon="-1.6411399999999943">
        <ele>451.680</ele>
        <time>2022-08-24T17:27:30Z</time>
      </trkpt>
      <trkpt lat="42.830465000000096" lon="-1.6411489999999942">
        <ele>451.630</ele>
        <time>2022-08-24T17:27:31Z</time>
      </trkpt>
      <trkpt lat="42.8304530000001" lon="-1.6411589999999943">
        <ele>451.420</ele>
        <time>2022-08-24T17:27:32Z</time>
      </trkpt>
      <trkpt lat="42.830443000000095" lon="-1.6411689999999943">
        <ele>451.246</ele>
        <time>2022-08-24T17:27:33Z</time>
      </trkpt>
      <trkpt lat="42.8304390000001" lon="-1.6411849999999943">
        <ele>451.228</ele>
        <time>2022-08-24T17:27:36Z</time>
      </trkpt>
      <trkpt lat="42.8304450000001" lon="-1.6411999999999944">
        <ele>451.285</ele>
        <time>2022-08-24T17:27:37Z</time>
      </trkpt>
      <trkpt lat="42.830516000000095" lon="-1.6412269999999944">
        <ele>451.248</ele>
        <time>2022-08-24T17:27:42Z</time>
      </trkpt>
      <trkpt lat="42.83053400000009" lon="-1.6412359999999944">
        <ele>451.252</ele>
        <time>2022-08-24T17:27:43Z</time>
      </trkpt>
      <trkpt lat="42.83053400000009" lon="-1.6412359999999944">
        <ele>451.271</ele>
        <time>2022-08-24T17:27:44Z</time>
      </trkpt>
      <trkpt lat="42.83056600000009" lon="-1.6413029999999944">
        <ele>451.264</ele>
        <time>2022-08-24T17:27:45Z</time>
      </trkpt>
      <trkpt lat="42.83057100000009" lon="-1.6413289999999945">
        <ele>451.206</ele>
        <time>2022-08-24T17:27:46Z</time>
      </trkpt>
      <trkpt lat="42.83056500000009" lon="-1.6413519999999946">
        <ele>451.216</ele>
        <time>2022-08-24T17:27:47Z</time>
      </trkpt>
      <trkpt lat="42.83056500000009" lon="-1.6413519999999946">
        <ele>451.209</ele>
        <time>2022-08-24T17:27:48Z</time>
      </trkpt>
      <trkpt lat="42.83055500000009" lon="-1.6413739999999946">
        <ele>451.417</ele>
        <time>2022-08-24T17:27:49Z</time>
      </trkpt>
      <trkpt lat="42.83053900000009" lon="-1.6414339999999945">
        <ele>451.477</ele>
        <time>2022-08-24T17:27:50Z</time>
      </trkpt>
      <trkpt lat="42.83053600000009" lon="-1.6414579999999945">
        <ele>451.687</ele>
        <time>2022-08-24T17:27:51Z</time>
      </trkpt>
      <trkpt lat="42.830537000000085" lon="-1.6414989999999945">
        <ele>451.873</ele>
        <time>2022-08-24T17:27:53Z</time>
      </trkpt>
      <trkpt lat="42.830543000000084" lon="-1.6415229999999945">
        <ele>451.855</ele>
        <time>2022-08-24T17:27:54Z</time>
      </trkpt>
      <trkpt lat="42.830548000000086" lon="-1.6415439999999946">
        <ele>452.072</ele>
        <time>2022-08-24T17:27:55Z</time>
      </trkpt>
      <trkpt lat="42.830551000000085" lon="-1.6415679999999946">
        <ele>452.045</ele>
        <time>2022-08-24T17:27:56Z</time>
      </trkpt>
      <trkpt lat="42.830554000000085" lon="-1.6415919999999946">
        <ele>452.269</ele>
        <time>2022-08-24T17:27:57Z</time>
      </trkpt>
      <trkpt lat="42.83054700000009" lon="-1.6416109999999946">
        <ele>452.238</ele>
        <time>2022-08-24T17:27:58Z</time>
      </trkpt>
      <trkpt lat="42.83050700000009" lon="-1.6416569999999946">
        <ele>452.229</ele>
        <time>2022-08-24T17:28:00Z</time>
      </trkpt>
      <trkpt lat="42.83049900000009" lon="-1.6417009999999945">
        <ele>452.200</ele>
        <time>2022-08-24T17:28:02Z</time>
      </trkpt>
      <trkpt lat="42.83047300000009" lon="-1.6417789999999945">
        <ele>452.020</ele>
        <time>2022-08-24T17:28:03Z</time>
      </trkpt>
      <trkpt lat="42.83045900000009" lon="-1.6418189999999946">
        <ele>452.009</ele>
        <time>2022-08-24T17:28:04Z</time>
      </trkpt>
      <trkpt lat="42.83044500000009" lon="-1.6418589999999946">
        <ele>452.033</ele>
        <time>2022-08-24T17:28:05Z</time>
      </trkpt>
      <trkpt lat="42.83041900000009" lon="-1.6419009999999947">
        <ele>452.013</ele>
        <time>2022-08-24T17:28:06Z</time>
      </trkpt>
      <trkpt lat="42.83040600000009" lon="-1.6419279999999947">
        <ele>452.043</ele>
        <time>2022-08-24T17:28:07Z</time>
      </trkpt>
      <trkpt lat="42.83040600000009" lon="-1.6419279999999947">
        <ele>452.069</ele>
        <time>2022-08-24T17:28:08Z</time>
      </trkpt>
      <trkpt lat="42.830379000000086" lon="-1.6419939999999946">
        <ele>452.041</ele>
        <time>2022-08-24T17:28:09Z</time>
      </trkpt>
      <trkpt lat="42.830379000000086" lon="-1.6419939999999946">
        <ele>452.038</ele>
        <time>2022-08-24T17:28:10Z</time>
      </trkpt>
      <trkpt lat="42.830340000000085" lon="-1.6420609999999947">
        <ele>452.071</ele>
        <time>2022-08-24T17:28:11Z</time>
      </trkpt>
      <trkpt lat="42.830298000000084" lon="-1.6422249999999947">
        <ele>451.865</ele>
        <time>2022-08-24T17:28:15Z</time>
      </trkpt>
      <trkpt lat="42.830261000000085" lon="-1.6423239999999948">
        <ele>451.834</ele>
        <time>2022-08-24T17:28:16Z</time>
      </trkpt>
      <trkpt lat="42.830256000000084" lon="-1.6423859999999948">
        <ele>451.821</ele>
        <time>2022-08-24T17:28:17Z</time>
      </trkpt>
      <trkpt lat="42.830242000000084" lon="-1.6424369999999948">
        <ele>451.841</ele>
        <time>2022-08-24T17:28:18Z</time>
      </trkpt>
      <trkpt lat="42.83023800000009" lon="-1.6424909999999948">
        <ele>451.805</ele>
        <time>2022-08-24T17:28:19Z</time>
      </trkpt>
      <trkpt lat="42.83023500000009" lon="-1.6425389999999949">
        <ele>451.609</ele>
        <time>2022-08-24T17:28:20Z</time>
      </trkpt>
      <trkpt lat="42.83022600000009" lon="-1.642583999999995">
        <ele>451.683</ele>
        <time>2022-08-24T17:28:21Z</time>
      </trkpt>
      <trkpt lat="42.83021500000009" lon="-1.6426119999999949">
        <ele>451.673</ele>
        <time>2022-08-24T17:28:22Z</time>
      </trkpt>
      <trkpt lat="42.83020600000009" lon="-1.6426319999999948">
        <ele>451.663</ele>
        <time>2022-08-24T17:28:23Z</time>
      </trkpt>
      <trkpt lat="42.83019100000009" lon="-1.6426549999999949">
        <ele>451.419</ele>
        <time>2022-08-24T17:28:24Z</time>
      </trkpt>
      <trkpt lat="42.830170000000095" lon="-1.642678999999995">
        <ele>451.461</ele>
        <time>2022-08-24T17:28:25Z</time>
      </trkpt>
      <trkpt lat="42.8301490000001" lon="-1.6427169999999949">
        <ele>451.258</ele>
        <time>2022-08-24T17:28:26Z</time>
      </trkpt>
      <trkpt lat="42.8301310000001" lon="-1.6427519999999949">
        <ele>451.241</ele>
        <time>2022-08-24T17:28:27Z</time>
      </trkpt>
      <trkpt lat="42.8301060000001" lon="-1.642801999999995">
        <ele>451.265</ele>
        <time>2022-08-24T17:28:28Z</time>
      </trkpt>
      <trkpt lat="42.8301060000001" lon="-1.642801999999995">
        <ele>451.224</ele>
        <time>2022-08-24T17:28:29Z</time>
      </trkpt>
      <trkpt lat="42.8300740000001" lon="-1.642891999999995">
        <ele>451.048</ele>
        <time>2022-08-24T17:28:30Z</time>
      </trkpt>
      <trkpt lat="42.8300610000001" lon="-1.642937999999995">
        <ele>451.061</ele>
        <time>2022-08-24T17:28:31Z</time>
      </trkpt>
      <trkpt lat="42.8300200000001" lon="-1.643096999999995">
        <ele>451.017</ele>
        <time>2022-08-24T17:28:35Z</time>
      </trkpt>
      <trkpt lat="42.830007000000094" lon="-1.6431599999999948">
        <ele>451.009</ele>
        <time>2022-08-24T17:28:36Z</time>
      </trkpt>
      <trkpt lat="42.82996900000009" lon="-1.6433139999999948">
        <ele>451.045</ele>
        <time>2022-08-24T17:28:38Z</time>
      </trkpt>
      <trkpt lat="42.82997200000009" lon="-1.6433519999999948">
        <ele>451.085</ele>
        <time>2022-08-24T17:28:39Z</time>
      </trkpt>
      <trkpt lat="42.82997000000009" lon="-1.6433979999999948">
        <ele>451.025</ele>
        <time>2022-08-24T17:28:40Z</time>
      </trkpt>
      <trkpt lat="42.82996300000009" lon="-1.6434429999999949">
        <ele>451.011</ele>
        <time>2022-08-24T17:28:41Z</time>
      </trkpt>
      <trkpt lat="42.82994700000009" lon="-1.643487999999995">
        <ele>451.033</ele>
        <time>2022-08-24T17:28:42Z</time>
      </trkpt>
      <trkpt lat="42.82993200000009" lon="-1.6435189999999948">
        <ele>450.830</ele>
        <time>2022-08-24T17:28:43Z</time>
      </trkpt>
      <trkpt lat="42.82991800000009" lon="-1.6435429999999949">
        <ele>451.083</ele>
        <time>2022-08-24T17:28:44Z</time>
      </trkpt>
      <trkpt lat="42.829903000000094" lon="-1.6435779999999949">
        <ele>451.047</ele>
        <time>2022-08-24T17:28:45Z</time>
      </trkpt>
      <trkpt lat="42.8298850000001" lon="-1.6436089999999948">
        <ele>451.026</ele>
        <time>2022-08-24T17:28:46Z</time>
      </trkpt>
      <trkpt lat="42.8298670000001" lon="-1.6436489999999948">
        <ele>451.062</ele>
        <time>2022-08-24T17:28:47Z</time>
      </trkpt>
      <trkpt lat="42.8298520000001" lon="-1.6436809999999948">
        <ele>450.883</ele>
        <time>2022-08-24T17:28:48Z</time>
      </trkpt>
      <trkpt lat="42.8297660000001" lon="-1.6438859999999949">
        <ele>450.811</ele>
        <time>2022-08-24T17:28:53Z</time>
      </trkpt>
      <trkpt lat="42.8297470000001" lon="-1.643930999999995">
        <ele>450.809</ele>
        <time>2022-08-24T17:28:54Z</time>
      </trkpt>
      <trkpt lat="42.8297290000001" lon="-1.6439639999999949">
        <ele>450.847</ele>
        <time>2022-08-24T17:28:55Z</time>
      </trkpt>
      <trkpt lat="42.8297080000001" lon="-1.6440079999999948">
        <ele>450.847</ele>
        <time>2022-08-24T17:28:56Z</time>
      </trkpt>
      <trkpt lat="42.8296520000001" lon="-1.6441829999999948">
        <ele>450.637</ele>
        <time>2022-08-24T17:28:59Z</time>
      </trkpt>
      <trkpt lat="42.8296380000001" lon="-1.6442349999999948">
        <ele>450.643</ele>
        <time>2022-08-24T17:29:00Z</time>
      </trkpt>
      <trkpt lat="42.8296220000001" lon="-1.6442839999999947">
        <ele>450.645</ele>
        <time>2022-08-24T17:29:01Z</time>
      </trkpt>
      <trkpt lat="42.8296220000001" lon="-1.6442839999999947">
        <ele>450.492</ele>
        <time>2022-08-24T17:29:02Z</time>
      </trkpt>
      <trkpt lat="42.8295940000001" lon="-1.6443639999999948">
        <ele>450.455</ele>
        <time>2022-08-24T17:29:03Z</time>
      </trkpt>
      <trkpt lat="42.8295870000001" lon="-1.6444099999999948">
        <ele>450.469</ele>
        <time>2022-08-24T17:29:04Z</time>
      </trkpt>
      <trkpt lat="42.8295850000001" lon="-1.6444559999999948">
        <ele>450.458</ele>
        <time>2022-08-24T17:29:05Z</time>
      </trkpt>
      <trkpt lat="42.8295830000001" lon="-1.6444959999999949">
        <ele>450.437</ele>
        <time>2022-08-24T17:29:06Z</time>
      </trkpt>
      <trkpt lat="42.8295640000001" lon="-1.6445609999999948">
        <ele>450.449</ele>
        <time>2022-08-24T17:29:08Z</time>
      </trkpt>
      <trkpt lat="42.829480000000096" lon="-1.644813999999995">
        <ele>450.213</ele>
        <time>2022-08-24T17:29:15Z</time>
      </trkpt>
      <trkpt lat="42.829480000000096" lon="-1.644813999999995">
        <ele>450.209</ele>
        <time>2022-08-24T17:29:16Z</time>
      </trkpt>
      <trkpt lat="42.82945300000009" lon="-1.6448629999999949">
        <ele>450.274</ele>
        <time>2022-08-24T17:29:17Z</time>
      </trkpt>
      <trkpt lat="42.82937800000009" lon="-1.6449469999999948">
        <ele>450.414</ele>
        <time>2022-08-24T17:29:21Z</time>
      </trkpt>
      <trkpt lat="42.829357000000094" lon="-1.6449589999999947">
        <ele>450.424</ele>
        <time>2022-08-24T17:29:22Z</time>
      </trkpt>
      <trkpt lat="42.829357000000094" lon="-1.6449589999999947">
        <ele>450.420</ele>
        <time>2022-08-24T17:29:23Z</time>
      </trkpt>
      <trkpt lat="42.82931600000009" lon="-1.6450009999999948">
        <ele>450.482</ele>
        <time>2022-08-24T17:29:24Z</time>
      </trkpt>
      <trkpt lat="42.82929400000009" lon="-1.6450249999999949">
        <ele>450.439</ele>
        <time>2022-08-24T17:29:25Z</time>
      </trkpt>
      <trkpt lat="42.829270000000086" lon="-1.645047999999995">
        <ele>450.462</ele>
        <time>2022-08-24T17:29:26Z</time>
      </trkpt>
      <trkpt lat="42.829257000000084" lon="-1.6450789999999949">
        <ele>450.266</ele>
        <time>2022-08-24T17:29:27Z</time>
      </trkpt>
      <trkpt lat="42.82924700000008" lon="-1.6451179999999948">
        <ele>450.285</ele>
        <time>2022-08-24T17:29:28Z</time>
      </trkpt>
      <trkpt lat="42.82923300000008" lon="-1.6451439999999948">
        <ele>450.091</ele>
        <time>2022-08-24T17:29:29Z</time>
      </trkpt>
      <trkpt lat="42.82922400000008" lon="-1.6451659999999948">
        <ele>450.081</ele>
        <time>2022-08-24T17:29:30Z</time>
      </trkpt>
      <trkpt lat="42.829217000000085" lon="-1.645188999999995">
        <ele>450.019</ele>
        <time>2022-08-24T17:29:31Z</time>
      </trkpt>
      <trkpt lat="42.829217000000085" lon="-1.645188999999995">
        <ele>449.809</ele>
        <time>2022-08-24T17:29:32Z</time>
      </trkpt>
      <trkpt lat="42.82918200000009" lon="-1.6452519999999948">
        <ele>449.830</ele>
        <time>2022-08-24T17:29:33Z</time>
      </trkpt>
      <trkpt lat="42.829169000000086" lon="-1.6452999999999949">
        <ele>449.860</ele>
        <time>2022-08-24T17:29:34Z</time>
      </trkpt>
      <trkpt lat="42.82913200000009" lon="-1.645398999999995">
        <ele>449.620</ele>
        <time>2022-08-24T17:29:36Z</time>
      </trkpt>
      <trkpt lat="42.82911500000009" lon="-1.645574999999995">
        <ele>449.676</ele>
        <time>2022-08-24T17:29:39Z</time>
      </trkpt>
      <trkpt lat="42.82911200000009" lon="-1.6456139999999948">
        <ele>449.638</ele>
        <time>2022-08-24T17:29:40Z</time>
      </trkpt>
      <trkpt lat="42.82910900000009" lon="-1.6456539999999948">
        <ele>449.675</ele>
        <time>2022-08-24T17:29:41Z</time>
      </trkpt>
      <trkpt lat="42.82908700000009" lon="-1.6457119999999947">
        <ele>449.688</ele>
        <time>2022-08-24T17:29:44Z</time>
      </trkpt>
      <trkpt lat="42.82905600000009" lon="-1.6457549999999947">
        <ele>449.622</ele>
        <time>2022-08-24T17:29:45Z</time>
      </trkpt>
      <trkpt lat="42.82903900000009" lon="-1.6457869999999948">
        <ele>449.621</ele>
        <time>2022-08-24T17:29:46Z</time>
      </trkpt>
      <trkpt lat="42.82902400000009" lon="-1.6458159999999948">
        <ele>449.477</ele>
        <time>2022-08-24T17:29:47Z</time>
      </trkpt>
      <trkpt lat="42.82901700000009" lon="-1.645852999999995">
        <ele>449.461</ele>
        <time>2022-08-24T17:29:49Z</time>
      </trkpt>
      <trkpt lat="42.82900700000009" lon="-1.6459179999999949">
        <ele>449.427</ele>
        <time>2022-08-24T17:29:50Z</time>
      </trkpt>
      <trkpt lat="42.82899800000009" lon="-1.645933999999995">
        <ele>449.409</ele>
        <time>2022-08-24T17:29:51Z</time>
      </trkpt>
      <trkpt lat="42.82899600000009" lon="-1.645951999999995">
        <ele>449.448</ele>
        <time>2022-08-24T17:29:52Z</time>
      </trkpt>
      <trkpt lat="42.82899000000009" lon="-1.645967999999995">
        <ele>449.438</ele>
        <time>2022-08-24T17:29:53Z</time>
      </trkpt>
      <trkpt lat="42.82899000000009" lon="-1.645985999999995">
        <ele>449.418</ele>
        <time>2022-08-24T17:29:54Z</time>
      </trkpt>
      <trkpt lat="42.82898600000009" lon="-1.646012999999995">
        <ele>449.224</ele>
        <time>2022-08-24T17:29:55Z</time>
      </trkpt>
      <trkpt lat="42.82897800000009" lon="-1.646066999999995">
        <ele>449.266</ele>
        <time>2022-08-24T17:29:57Z</time>
      </trkpt>
      <trkpt lat="42.82898300000009" lon="-1.6461009999999952">
        <ele>449.023</ele>
        <time>2022-08-24T17:29:58Z</time>
      </trkpt>
      <trkpt lat="42.82898300000009" lon="-1.6461009999999952">
        <ele>449.026</ele>
        <time>2022-08-24T17:29:59Z</time>
      </trkpt>
      <trkpt lat="42.82899700000009" lon="-1.6461729999999952">
        <ele>449.090</ele>
        <time>2022-08-24T17:30:00Z</time>
      </trkpt>
      <trkpt lat="42.82900100000009" lon="-1.6462079999999952">
        <ele>449.089</ele>
        <time>2022-08-24T17:30:01Z</time>
      </trkpt>
      <trkpt lat="42.82901000000009" lon="-1.6462279999999951">
        <ele>449.052</ele>
        <time>2022-08-24T17:30:02Z</time>
      </trkpt>
      <trkpt lat="42.82906900000009" lon="-1.6462809999999952">
        <ele>448.853</ele>
        <time>2022-08-24T17:30:05Z</time>
      </trkpt>
      <trkpt lat="42.82909200000009" lon="-1.6462959999999953">
        <ele>448.808</ele>
        <time>2022-08-24T17:30:06Z</time>
      </trkpt>
      <trkpt lat="42.82912000000009" lon="-1.6463169999999954">
        <ele>448.809</ele>
        <time>2022-08-24T17:30:07Z</time>
      </trkpt>
      <trkpt lat="42.82935900000009" lon="-1.6464459999999954">
        <ele>448.626</ele>
        <time>2022-08-24T17:30:15Z</time>
      </trkpt>
      <trkpt lat="42.82960200000009" lon="-1.6465839999999954">
        <ele>448.436</ele>
        <time>2022-08-24T17:30:23Z</time>
      </trkpt>
      <trkpt lat="42.829633000000086" lon="-1.6465979999999953">
        <ele>448.456</ele>
        <time>2022-08-24T17:30:24Z</time>
      </trkpt>
      <trkpt lat="42.829664000000086" lon="-1.6466119999999953">
        <ele>448.432</ele>
        <time>2022-08-24T17:30:25Z</time>
      </trkpt>
      <trkpt lat="42.82985500000009" lon="-1.6466889999999954">
        <ele>448.444</ele>
        <time>2022-08-24T17:30:32Z</time>
      </trkpt>
      <trkpt lat="42.83001200000009" lon="-1.6467579999999955">
        <ele>448.661</ele>
        <time>2022-08-24T17:30:36Z</time>
      </trkpt>
      <trkpt lat="42.83005000000009" lon="-1.6467709999999955">
        <ele>448.644</ele>
        <time>2022-08-24T17:30:37Z</time>
      </trkpt>
      <trkpt lat="42.830117000000094" lon="-1.6468019999999954">
        <ele>448.638</ele>
        <time>2022-08-24T17:30:39Z</time>
      </trkpt>
      <trkpt lat="42.830192000000096" lon="-1.6468369999999954">
        <ele>448.687</ele>
        <time>2022-08-24T17:30:41Z</time>
      </trkpt>
      <trkpt lat="42.83025500000009" lon="-1.6468669999999954">
        <ele>448.643</ele>
        <time>2022-08-24T17:30:43Z</time>
      </trkpt>
      <trkpt lat="42.83028700000009" lon="-1.6468829999999954">
        <ele>448.664</ele>
        <time>2022-08-24T17:30:44Z</time>
      </trkpt>
      <trkpt lat="42.83032000000009" lon="-1.6468929999999955">
        <ele>448.610</ele>
        <time>2022-08-24T17:30:45Z</time>
      </trkpt>
      <trkpt lat="42.830356000000094" lon="-1.6469059999999955">
        <ele>448.609</ele>
        <time>2022-08-24T17:30:46Z</time>
      </trkpt>
      <trkpt lat="42.8303830000001" lon="-1.6469179999999954">
        <ele>448.645</ele>
        <time>2022-08-24T17:30:47Z</time>
      </trkpt>
      <trkpt lat="42.8304050000001" lon="-1.6469449999999954">
        <ele>448.625</ele>
        <time>2022-08-24T17:30:48Z</time>
      </trkpt>
      <trkpt lat="42.8304270000001" lon="-1.6469519999999955">
        <ele>448.665</ele>
        <time>2022-08-24T17:30:49Z</time>
      </trkpt>
      <trkpt lat="42.830448000000096" lon="-1.6469629999999955">
        <ele>448.451</ele>
        <time>2022-08-24T17:30:50Z</time>
      </trkpt>
      <trkpt lat="42.83053100000009" lon="-1.6470129999999956">
        <ele>448.673</ele>
        <time>2022-08-24T17:30:53Z</time>
      </trkpt>
      <trkpt lat="42.83073100000009" lon="-1.6470919999999956">
        <ele>448.630</ele>
        <time>2022-08-24T17:31:01Z</time>
      </trkpt>
      <trkpt lat="42.83079400000009" lon="-1.6470999999999956">
        <ele>448.673</ele>
        <time>2022-08-24T17:31:02Z</time>
      </trkpt>
      <trkpt lat="42.83081800000009" lon="-1.6470959999999957">
        <ele>448.677</ele>
        <time>2022-08-24T17:31:03Z</time>
      </trkpt>
      <trkpt lat="42.83084400000009" lon="-1.6470989999999956">
        <ele>448.646</ele>
        <time>2022-08-24T17:31:04Z</time>
      </trkpt>
      <trkpt lat="42.83086200000009" lon="-1.6471079999999956">
        <ele>448.659</ele>
        <time>2022-08-24T17:31:05Z</time>
      </trkpt>
      <trkpt lat="42.83086200000009" lon="-1.6471079999999956">
        <ele>448.603</ele>
        <time>2022-08-24T17:31:06Z</time>
      </trkpt>
      <trkpt lat="42.83089200000009" lon="-1.6471249999999955">
        <ele>448.623</ele>
        <time>2022-08-24T17:31:07Z</time>
      </trkpt>
      <trkpt lat="42.83090300000009" lon="-1.6471309999999955">
        <ele>448.609</ele>
        <time>2022-08-24T17:31:08Z</time>
      </trkpt>
      <trkpt lat="42.83091100000009" lon="-1.6471399999999954">
        <ele>448.676</ele>
        <time>2022-08-24T17:31:09Z</time>
      </trkpt>
      <trkpt lat="42.830916000000094" lon="-1.6471419999999954">
        <ele>448.656</ele>
        <time>2022-08-24T17:31:10Z</time>
      </trkpt>
      <trkpt lat="42.804099" lon="-1.6636989999999998">
        <ele>439.458</ele>
        <time>2022-08-25T07:22:20Z</time>
      </trkpt>
      <trkpt lat="42.804033000000004" lon="-1.6636889999999998">
        <ele>436.452</ele>
        <time>2022-08-25T07:22:22Z</time>
      </trkpt>
      <trkpt lat="42.803965000000005" lon="-1.6636939999999998">
        <ele>436.817</ele>
        <time>2022-08-25T07:22:24Z</time>
      </trkpt>
      <trkpt lat="42.803873" lon="-1.6637239999999998">
        <ele>434.609</ele>
        <time>2022-08-25T07:22:26Z</time>
      </trkpt>
      <trkpt lat="42.803635" lon="-1.6637679999999997">
        <ele>433.626</ele>
        <time>2022-08-25T07:22:30Z</time>
      </trkpt>
      <trkpt lat="42.803565" lon="-1.6637719999999996">
        <ele>432.866</ele>
        <time>2022-08-25T07:22:31Z</time>
      </trkpt>
      <trkpt lat="42.803419" lon="-1.6637719999999996">
        <ele>434.276</ele>
        <time>2022-08-25T07:22:33Z</time>
      </trkpt>
      <trkpt lat="42.803352" lon="-1.6637709999999997">
        <ele>434.212</ele>
        <time>2022-08-25T07:22:34Z</time>
      </trkpt>
      <trkpt lat="42.803286" lon="-1.6637679999999997">
        <ele>433.844</ele>
        <time>2022-08-25T07:22:35Z</time>
      </trkpt>
      <trkpt lat="42.803222" lon="-1.6637589999999998">
        <ele>433.221</ele>
        <time>2022-08-25T07:22:36Z</time>
      </trkpt>
      <trkpt lat="42.803159" lon="-1.6637429999999997">
        <ele>432.834</ele>
        <time>2022-08-25T07:22:37Z</time>
      </trkpt>
      <trkpt lat="42.803093000000004" lon="-1.6637199999999996">
        <ele>432.460</ele>
        <time>2022-08-25T07:22:38Z</time>
      </trkpt>
      <trkpt lat="42.803038" lon="-1.6636969999999995">
        <ele>432.461</ele>
        <time>2022-08-25T07:22:39Z</time>
      </trkpt>
      <trkpt lat="42.802981" lon="-1.6636679999999995">
        <ele>432.042</ele>
        <time>2022-08-25T07:22:40Z</time>
      </trkpt>
      <trkpt lat="42.802931" lon="-1.6636369999999996">
        <ele>432.022</ele>
        <time>2022-08-25T07:22:41Z</time>
      </trkpt>
      <trkpt lat="42.802881" lon="-1.6635999999999995">
        <ele>431.414</ele>
        <time>2022-08-25T07:22:42Z</time>
      </trkpt>
      <trkpt lat="42.802834" lon="-1.6635649999999995">
        <ele>430.809</ele>
        <time>2022-08-25T07:22:43Z</time>
      </trkpt>
      <trkpt lat="42.802735" lon="-1.6634839999999995">
        <ele>429.835</ele>
        <time>2022-08-25T07:22:45Z</time>
      </trkpt>
      <trkpt lat="42.802685" lon="-1.6634339999999994">
        <ele>429.665</ele>
        <time>2022-08-25T07:22:46Z</time>
      </trkpt>
      <trkpt lat="42.802595" lon="-1.6633229999999994">
        <ele>428.425</ele>
        <time>2022-08-25T07:22:48Z</time>
      </trkpt>
      <trkpt lat="42.802547999999994" lon="-1.6632649999999995">
        <ele>427.631</ele>
        <time>2022-08-25T07:22:49Z</time>
      </trkpt>
      <trkpt lat="42.802507999999996" lon="-1.6632129999999996">
        <ele>427.093</ele>
        <time>2022-08-25T07:22:50Z</time>
      </trkpt>
      <trkpt lat="42.802471" lon="-1.6631609999999997">
        <ele>426.690</ele>
        <time>2022-08-25T07:22:51Z</time>
      </trkpt>
      <trkpt lat="42.8024" lon="-1.6630559999999996">
        <ele>425.633</ele>
        <time>2022-08-25T07:22:53Z</time>
      </trkpt>
      <trkpt lat="42.802361" lon="-1.6630019999999996">
        <ele>424.829</ele>
        <time>2022-08-25T07:22:54Z</time>
      </trkpt>
      <trkpt lat="42.802327" lon="-1.6629519999999995">
        <ele>424.450</ele>
        <time>2022-08-25T07:22:55Z</time>
      </trkpt>
      <trkpt lat="42.802293999999996" lon="-1.6629019999999994">
        <ele>423.868</ele>
        <time>2022-08-25T07:22:56Z</time>
      </trkpt>
      <trkpt lat="42.80226999999999" lon="-1.6628629999999995">
        <ele>423.042</ele>
        <time>2022-08-25T07:22:57Z</time>
      </trkpt>
      <trkpt lat="42.802248999999996" lon="-1.6628309999999995">
        <ele>422.626</ele>
        <time>2022-08-25T07:22:58Z</time>
      </trkpt>
      <trkpt lat="42.802223999999995" lon="-1.6628179999999995">
        <ele>421.809</ele>
        <time>2022-08-25T07:22:59Z</time>
      </trkpt>
      <trkpt lat="42.80219999999999" lon="-1.6628129999999994">
        <ele>421.677</ele>
        <time>2022-08-25T07:23:00Z</time>
      </trkpt>
      <trkpt lat="42.802184999999994" lon="-1.6628219999999994">
        <ele>421.087</ele>
        <time>2022-08-25T07:23:01Z</time>
      </trkpt>
      <trkpt lat="42.802178" lon="-1.6628419999999993">
        <ele>420.477</ele>
        <time>2022-08-25T07:23:02Z</time>
      </trkpt>
      <trkpt lat="42.802172" lon="-1.6628659999999993">
        <ele>419.643</ele>
        <time>2022-08-25T07:23:03Z</time>
      </trkpt>
      <trkpt lat="42.802164" lon="-1.6628959999999993">
        <ele>419.085</ele>
        <time>2022-08-25T07:23:04Z</time>
      </trkpt>
      <trkpt lat="42.802093" lon="-1.6630729999999994">
        <ele>418.082</ele>
        <time>2022-08-25T07:23:08Z</time>
      </trkpt>
      <trkpt lat="42.802043" lon="-1.6631899999999993">
        <ele>417.835</ele>
        <time>2022-08-25T07:23:10Z</time>
      </trkpt>
      <trkpt lat="42.801987" lon="-1.6633269999999993">
        <ele>417.661</ele>
        <time>2022-08-25T07:23:12Z</time>
      </trkpt>
      <trkpt lat="42.80194899999999" lon="-1.6633979999999993">
        <ele>417.262</ele>
        <time>2022-08-25T07:23:13Z</time>
      </trkpt>
      <trkpt lat="42.801869999999994" lon="-1.6635359999999992">
        <ele>416.895</ele>
        <time>2022-08-25T07:23:15Z</time>
      </trkpt>
      <trkpt lat="42.801824999999994" lon="-1.6635959999999992">
        <ele>416.649</ele>
        <time>2022-08-25T07:23:16Z</time>
      </trkpt>
      <trkpt lat="42.801776" lon="-1.6636499999999992">
        <ele>416.423</ele>
        <time>2022-08-25T07:23:17Z</time>
      </trkpt>
      <trkpt lat="42.801722999999996" lon="-1.6637039999999992">
        <ele>416.009</ele>
        <time>2022-08-25T07:23:18Z</time>
      </trkpt>
      <trkpt lat="42.80166499999999" lon="-1.6638439999999992">
        <ele>415.870</ele>
        <time>2022-08-25T07:23:20Z</time>
      </trkpt>
      <trkpt lat="42.80164499999999" lon="-1.6639269999999993">
        <ele>415.640</ele>
        <time>2022-08-25T07:23:21Z</time>
      </trkpt>
      <trkpt lat="42.801624" lon="-1.6640129999999993">
        <ele>415.670</ele>
        <time>2022-08-25T07:23:22Z</time>
      </trkpt>
      <trkpt lat="42.801604" lon="-1.6640959999999994">
        <ele>415.676</ele>
        <time>2022-08-25T07:23:23Z</time>
      </trkpt>
      <trkpt lat="42.801584999999996" lon="-1.6641789999999994">
        <ele>415.288</ele>
        <time>2022-08-25T07:23:24Z</time>
      </trkpt>
      <trkpt lat="42.801567" lon="-1.6642589999999995">
        <ele>414.875</ele>
        <time>2022-08-25T07:23:25Z</time>
      </trkpt>
      <trkpt lat="42.801555" lon="-1.6643399999999995">
        <ele>414.818</ele>
        <time>2022-08-25T07:23:26Z</time>
      </trkpt>
      <trkpt lat="42.801534000000004" lon="-1.6644189999999994">
        <ele>414.484</ele>
        <time>2022-08-25T07:23:27Z</time>
      </trkpt>
      <trkpt lat="42.801511000000005" lon="-1.6644959999999995">
        <ele>414.415</ele>
        <time>2022-08-25T07:23:28Z</time>
      </trkpt>
      <trkpt lat="42.801491000000006" lon="-1.6645709999999996">
        <ele>414.215</ele>
        <time>2022-08-25T07:23:29Z</time>
      </trkpt>
      <trkpt lat="42.80148400000001" lon="-1.6646449999999995">
        <ele>414.265</ele>
        <time>2022-08-25T07:23:30Z</time>
      </trkpt>
      <trkpt lat="42.80148700000001" lon="-1.6647129999999994">
        <ele>414.011</ele>
        <time>2022-08-25T07:23:31Z</time>
      </trkpt>
      <trkpt lat="42.80148900000001" lon="-1.6647729999999994">
        <ele>414.009</ele>
        <time>2022-08-25T07:23:32Z</time>
      </trkpt>
      <trkpt lat="42.80148100000001" lon="-1.6648269999999994">
        <ele>414.052</ele>
        <time>2022-08-25T07:23:33Z</time>
      </trkpt>
      <trkpt lat="42.80146600000001" lon="-1.6648749999999994">
        <ele>414.062</ele>
        <time>2022-08-25T07:23:34Z</time>
      </trkpt>
      <trkpt lat="42.80145200000001" lon="-1.6649199999999995">
        <ele>414.062</ele>
        <time>2022-08-25T07:23:35Z</time>
      </trkpt>
      <trkpt lat="42.80143500000001" lon="-1.6649669999999994">
        <ele>414.058</ele>
        <time>2022-08-25T07:23:36Z</time>
      </trkpt>
      <trkpt lat="42.80141800000001" lon="-1.6650159999999994">
        <ele>414.070</ele>
        <time>2022-08-25T07:23:37Z</time>
      </trkpt>
      <trkpt lat="42.80141000000001" lon="-1.6650639999999994">
        <ele>414.027</ele>
        <time>2022-08-25T07:23:38Z</time>
      </trkpt>
      <trkpt lat="42.801403000000015" lon="-1.6651059999999995">
        <ele>414.020</ele>
        <time>2022-08-25T07:23:39Z</time>
      </trkpt>
      <trkpt lat="42.80139100000002" lon="-1.6651389999999995">
        <ele>414.096</ele>
        <time>2022-08-25T07:23:40Z</time>
      </trkpt>
      <trkpt lat="42.801378000000014" lon="-1.6651669999999994">
        <ele>414.057</ele>
        <time>2022-08-25T07:23:41Z</time>
      </trkpt>
      <trkpt lat="42.80136200000001" lon="-1.6651829999999994">
        <ele>414.066</ele>
        <time>2022-08-25T07:23:42Z</time>
      </trkpt>
      <trkpt lat="42.80134300000001" lon="-1.6651939999999994">
        <ele>413.829</ele>
        <time>2022-08-25T07:23:43Z</time>
      </trkpt>
      <trkpt lat="42.80132300000001" lon="-1.6652039999999995">
        <ele>413.821</ele>
        <time>2022-08-25T07:23:44Z</time>
      </trkpt>
      <trkpt lat="42.80130400000001" lon="-1.6652109999999996">
        <ele>413.609</ele>
        <time>2022-08-25T07:23:45Z</time>
      </trkpt>
      <trkpt lat="42.80129000000001" lon="-1.6652269999999996">
        <ele>413.627</ele>
        <time>2022-08-25T07:23:46Z</time>
      </trkpt>
      <trkpt lat="42.80127900000001" lon="-1.6652719999999996">
        <ele>413.487</ele>
        <time>2022-08-25T07:23:48Z</time>
      </trkpt>
      <trkpt lat="42.80127800000001" lon="-1.6653029999999995">
        <ele>413.487</ele>
        <time>2022-08-25T07:23:49Z</time>
      </trkpt>
      <trkpt lat="42.80127700000001" lon="-1.6655229999999996">
        <ele>413.293</ele>
        <time>2022-08-25T07:23:55Z</time>
      </trkpt>
      <trkpt lat="42.80128400000001" lon="-1.6657369999999996">
        <ele>413.065</ele>
        <time>2022-08-25T07:24:00Z</time>
      </trkpt>
      <trkpt lat="42.80127800000001" lon="-1.6657769999999996">
        <ele>413.082</ele>
        <time>2022-08-25T07:24:01Z</time>
      </trkpt>
      <trkpt lat="42.80127000000001" lon="-1.6658139999999997">
        <ele>413.065</ele>
        <time>2022-08-25T07:24:02Z</time>
      </trkpt>
      <trkpt lat="42.80126700000001" lon="-1.6658469999999996">
        <ele>413.041</ele>
        <time>2022-08-25T07:24:03Z</time>
      </trkpt>
      <trkpt lat="42.80126200000001" lon="-1.6660699999999997">
        <ele>413.062</ele>
        <time>2022-08-25T07:24:09Z</time>
      </trkpt>
      <trkpt lat="42.80124400000001" lon="-1.6661409999999997">
        <ele>413.084</ele>
        <time>2022-08-25T07:24:10Z</time>
      </trkpt>
      <trkpt lat="42.80122400000001" lon="-1.6662759999999996">
        <ele>413.007</ele>
        <time>2022-08-25T07:24:12Z</time>
      </trkpt>
      <trkpt lat="42.80121900000001" lon="-1.6663999999999997">
        <ele>413.017</ele>
        <time>2022-08-25T07:24:14Z</time>
      </trkpt>
      <trkpt lat="42.801212000000014" lon="-1.6665289999999997">
        <ele>413.009</ele>
        <time>2022-08-25T07:24:16Z</time>
      </trkpt>
      <trkpt lat="42.80121800000001" lon="-1.6666579999999998">
        <ele>413.079</ele>
        <time>2022-08-25T07:24:18Z</time>
      </trkpt>
      <trkpt lat="42.80121600000001" lon="-1.6667019999999997">
        <ele>413.059</ele>
        <time>2022-08-25T07:24:19Z</time>
      </trkpt>
      <trkpt lat="42.80121400000001" lon="-1.6667489999999996">
        <ele>413.069</ele>
        <time>2022-08-25T07:24:20Z</time>
      </trkpt>
      <trkpt lat="42.80120500000001" lon="-1.6668249999999996">
        <ele>413.035</ele>
        <time>2022-08-25T07:24:21Z</time>
      </trkpt>
      <trkpt lat="42.80119300000001" lon="-1.6669729999999996">
        <ele>413.017</ele>
        <time>2022-08-25T07:24:23Z</time>
      </trkpt>
      <trkpt lat="42.801186000000015" lon="-1.6670129999999996">
        <ele>413.044</ele>
        <time>2022-08-25T07:24:24Z</time>
      </trkpt>
      <trkpt lat="42.80119300000001" lon="-1.6670649999999996">
        <ele>413.057</ele>
        <time>2022-08-25T07:24:25Z</time>
      </trkpt>
      <trkpt lat="42.801198000000014" lon="-1.6671049999999996">
        <ele>412.863</ele>
        <time>2022-08-25T07:24:26Z</time>
      </trkpt>
      <trkpt lat="42.80120700000001" lon="-1.6671389999999997">
        <ele>412.834</ele>
        <time>2022-08-25T07:24:27Z</time>
      </trkpt>
      <trkpt lat="42.80122100000001" lon="-1.6671789999999997">
        <ele>412.829</ele>
        <time>2022-08-25T07:24:28Z</time>
      </trkpt>
      <trkpt lat="42.801234000000015" lon="-1.6672059999999997">
        <ele>412.800</ele>
        <time>2022-08-25T07:24:29Z</time>
      </trkpt>
      <trkpt lat="42.801242000000016" lon="-1.6672389999999997">
        <ele>412.820</ele>
        <time>2022-08-25T07:24:30Z</time>
      </trkpt>
      <trkpt lat="42.80120500000002" lon="-1.6673069999999997">
        <ele>412.809</ele>
        <time>2022-08-25T07:24:31Z</time>
      </trkpt>
      <trkpt lat="42.801197000000016" lon="-1.6673339999999996">
        <ele>412.843</ele>
        <time>2022-08-25T07:24:32Z</time>
      </trkpt>
      <trkpt lat="42.801195000000014" lon="-1.6673539999999996">
        <ele>412.823</ele>
        <time>2022-08-25T07:24:33Z</time>
      </trkpt>
      <trkpt lat="42.80119100000002" lon="-1.6673769999999997">
        <ele>412.843</ele>
        <time>2022-08-25T07:24:34Z</time>
      </trkpt>
      <trkpt lat="42.80119900000002" lon="-1.6674049999999996">
        <ele>412.839</ele>
        <time>2022-08-25T07:24:35Z</time>
      </trkpt>
      <trkpt lat="42.80121200000002" lon="-1.6674769999999997">
        <ele>412.871</ele>
        <time>2022-08-25T07:24:36Z</time>
      </trkpt>
      <trkpt lat="42.80120900000002" lon="-1.6675339999999996">
        <ele>412.848</ele>
        <time>2022-08-25T07:24:37Z</time>
      </trkpt>
      <trkpt lat="42.801208000000024" lon="-1.6675759999999997">
        <ele>412.871</ele>
        <time>2022-08-25T07:24:38Z</time>
      </trkpt>
      <trkpt lat="42.80119500000002" lon="-1.6678759999999997">
        <ele>412.887</ele>
        <time>2022-08-25T07:24:44Z</time>
      </trkpt>
      <trkpt lat="42.80118900000002" lon="-1.6679229999999996">
        <ele>412.838</ele>
        <time>2022-08-25T07:24:45Z</time>
      </trkpt>
      <trkpt lat="42.801154000000025" lon="-1.6681609999999996">
        <ele>413.023</ele>
        <time>2022-08-25T07:24:50Z</time>
      </trkpt>
      <trkpt lat="42.801132000000024" lon="-1.6682559999999995">
        <ele>413.083</ele>
        <time>2022-08-25T07:24:52Z</time>
      </trkpt>
      <trkpt lat="42.801067000000025" lon="-1.6685269999999994">
        <ele>413.011</ele>
        <time>2022-08-25T07:24:58Z</time>
      </trkpt>
      <trkpt lat="42.80105900000002" lon="-1.6685729999999994">
        <ele>413.009</ele>
        <time>2022-08-25T07:24:59Z</time>
      </trkpt>
      <trkpt lat="42.80105100000002" lon="-1.6686199999999993">
        <ele>413.033</ele>
        <time>2022-08-25T07:25:00Z</time>
      </trkpt>
      <trkpt lat="42.801008000000024" lon="-1.6687889999999994">
        <ele>413.013</ele>
        <time>2022-08-25T07:25:04Z</time>
      </trkpt>
      <trkpt lat="42.800999000000026" lon="-1.6688319999999994">
        <ele>412.853</ele>
        <time>2022-08-25T07:25:05Z</time>
      </trkpt>
      <trkpt lat="42.80098600000002" lon="-1.6688739999999995">
        <ele>412.859</ele>
        <time>2022-08-25T07:25:06Z</time>
      </trkpt>
      <trkpt lat="42.80097500000002" lon="-1.6689179999999995">
        <ele>412.891</ele>
        <time>2022-08-25T07:25:07Z</time>
      </trkpt>
      <trkpt lat="42.800966000000024" lon="-1.6689599999999996">
        <ele>412.888</ele>
        <time>2022-08-25T07:25:08Z</time>
      </trkpt>
      <trkpt lat="42.80096100000002" lon="-1.6690019999999997">
        <ele>412.841</ele>
        <time>2022-08-25T07:25:09Z</time>
      </trkpt>
      <trkpt lat="42.80095600000002" lon="-1.6690429999999996">
        <ele>412.867</ele>
        <time>2022-08-25T07:25:10Z</time>
      </trkpt>
      <trkpt lat="42.80095300000002" lon="-1.6690839999999996">
        <ele>412.858</ele>
        <time>2022-08-25T07:25:11Z</time>
      </trkpt>
      <trkpt lat="42.800946000000025" lon="-1.6691149999999995">
        <ele>412.865</ele>
        <time>2022-08-25T07:25:12Z</time>
      </trkpt>
      <trkpt lat="42.80093900000003" lon="-1.6691399999999994">
        <ele>412.668</ele>
        <time>2022-08-25T07:25:13Z</time>
      </trkpt>
      <trkpt lat="42.80093400000003" lon="-1.6691649999999993">
        <ele>412.614</ele>
        <time>2022-08-25T07:25:14Z</time>
      </trkpt>
      <trkpt lat="42.800909000000026" lon="-1.6692599999999993">
        <ele>412.409</ele>
        <time>2022-08-25T07:25:17Z</time>
      </trkpt>
      <trkpt lat="42.800892000000026" lon="-1.6693189999999993">
        <ele>412.477</ele>
        <time>2022-08-25T07:25:19Z</time>
      </trkpt>
      <trkpt lat="42.80079200000002" lon="-1.6695299999999993">
        <ele>412.257</ele>
        <time>2022-08-25T07:25:25Z</time>
      </trkpt>
      <trkpt lat="42.800701000000025" lon="-1.6696709999999992">
        <ele>412.277</ele>
        <time>2022-08-25T07:25:29Z</time>
      </trkpt>
      <trkpt lat="42.800687000000025" lon="-1.6697119999999992">
        <ele>412.243</ele>
        <time>2022-08-25T07:25:30Z</time>
      </trkpt>
      <trkpt lat="42.80066300000002" lon="-1.669750999999999">
        <ele>412.275</ele>
        <time>2022-08-25T07:25:31Z</time>
      </trkpt>
      <trkpt lat="42.80063000000002" lon="-1.6697929999999992">
        <ele>412.082</ele>
        <time>2022-08-25T07:25:32Z</time>
      </trkpt>
      <trkpt lat="42.80061000000002" lon="-1.6698309999999992">
        <ele>412.025</ele>
        <time>2022-08-25T07:25:33Z</time>
      </trkpt>
      <trkpt lat="42.80057000000002" lon="-1.6699099999999991">
        <ele>412.021</ele>
        <time>2022-08-25T07:25:35Z</time>
      </trkpt>
      <trkpt lat="42.80055400000002" lon="-1.6699529999999991">
        <ele>412.042</ele>
        <time>2022-08-25T07:25:36Z</time>
      </trkpt>
      <trkpt lat="42.80045000000002" lon="-1.6701599999999992">
        <ele>411.862</ele>
        <time>2022-08-25T07:25:41Z</time>
      </trkpt>
      <trkpt lat="42.80043000000002" lon="-1.670198999999999">
        <ele>411.883</ele>
        <time>2022-08-25T07:25:42Z</time>
      </trkpt>
      <trkpt lat="42.80038900000002" lon="-1.6702819999999992">
        <ele>411.611</ele>
        <time>2022-08-25T07:25:44Z</time>
      </trkpt>
      <trkpt lat="42.80036800000002" lon="-1.6703229999999991">
        <ele>411.609</ele>
        <time>2022-08-25T07:25:45Z</time>
      </trkpt>
      <trkpt lat="42.80034700000002" lon="-1.6703599999999992">
        <ele>411.677</ele>
        <time>2022-08-25T07:25:46Z</time>
      </trkpt>
      <trkpt lat="42.80032500000002" lon="-1.6704009999999991">
        <ele>411.447</ele>
        <time>2022-08-25T07:25:47Z</time>
      </trkpt>
      <trkpt lat="42.80028100000002" lon="-1.670485999999999">
        <ele>411.457</ele>
        <time>2022-08-25T07:25:49Z</time>
      </trkpt>
      <trkpt lat="42.80022100000002" lon="-1.6706089999999991">
        <ele>411.423</ele>
        <time>2022-08-25T07:25:52Z</time>
      </trkpt>
      <trkpt lat="42.80013700000002" lon="-1.670779999999999">
        <ele>411.495</ele>
        <time>2022-08-25T07:25:56Z</time>
      </trkpt>
      <trkpt lat="42.800116000000024" lon="-1.670818999999999">
        <ele>411.452</ele>
        <time>2022-08-25T07:25:57Z</time>
      </trkpt>
      <trkpt lat="42.800062000000025" lon="-1.6709009999999989">
        <ele>411.475</ele>
        <time>2022-08-25T07:25:59Z</time>
      </trkpt>
      <trkpt lat="42.80004400000003" lon="-1.6709419999999988">
        <ele>411.421</ele>
        <time>2022-08-25T07:26:00Z</time>
      </trkpt>
      <trkpt lat="42.80002700000003" lon="-1.670986999999999">
        <ele>411.482</ele>
        <time>2022-08-25T07:26:01Z</time>
      </trkpt>
      <trkpt lat="42.79998400000003" lon="-1.6710739999999988">
        <ele>411.453</ele>
        <time>2022-08-25T07:26:03Z</time>
      </trkpt>
      <trkpt lat="42.79989700000003" lon="-1.6712389999999988">
        <ele>411.404</ele>
        <time>2022-08-25T07:26:07Z</time>
      </trkpt>
      <trkpt lat="42.79985300000003" lon="-1.6713229999999988">
        <ele>411.414</ele>
        <time>2022-08-25T07:26:09Z</time>
      </trkpt>
      <trkpt lat="42.799828000000026" lon="-1.6713669999999987">
        <ele>411.409</ele>
        <time>2022-08-25T07:26:10Z</time>
      </trkpt>
      <trkpt lat="42.799778000000025" lon="-1.6714549999999988">
        <ele>411.426</ele>
        <time>2022-08-25T07:26:12Z</time>
      </trkpt>
      <trkpt lat="42.79975100000002" lon="-1.671496999999999">
        <ele>411.426</ele>
        <time>2022-08-25T07:26:13Z</time>
      </trkpt>
      <trkpt lat="42.799705000000024" lon="-1.6715789999999988">
        <ele>411.486</ele>
        <time>2022-08-25T07:26:15Z</time>
      </trkpt>
      <trkpt lat="42.799679000000026" lon="-1.6716229999999987">
        <ele>411.472</ele>
        <time>2022-08-25T07:26:16Z</time>
      </trkpt>
      <trkpt lat="42.79955700000003" lon="-1.6718089999999988">
        <ele>411.454</ele>
        <time>2022-08-25T07:26:20Z</time>
      </trkpt>
      <trkpt lat="42.79952800000003" lon="-1.6718529999999987">
        <ele>411.471</ele>
        <time>2022-08-25T07:26:21Z</time>
      </trkpt>
      <trkpt lat="42.79950100000003" lon="-1.6718909999999987">
        <ele>411.454</ele>
        <time>2022-08-25T07:26:22Z</time>
      </trkpt>
      <trkpt lat="42.799477000000024" lon="-1.6719289999999987">
        <ele>411.450</ele>
        <time>2022-08-25T07:26:23Z</time>
      </trkpt>
      <trkpt lat="42.799457000000025" lon="-1.6719689999999987">
        <ele>411.441</ele>
        <time>2022-08-25T07:26:24Z</time>
      </trkpt>
      <trkpt lat="42.799432000000024" lon="-1.6720129999999986">
        <ele>411.435</ele>
        <time>2022-08-25T07:26:25Z</time>
      </trkpt>
      <trkpt lat="42.79940700000002" lon="-1.6720559999999987">
        <ele>411.486</ele>
        <time>2022-08-25T07:26:26Z</time>
      </trkpt>
      <trkpt lat="42.799378000000026" lon="-1.6720989999999987">
        <ele>411.414</ele>
        <time>2022-08-25T07:26:27Z</time>
      </trkpt>
      <trkpt lat="42.79934800000002" lon="-1.6721439999999987">
        <ele>411.409</ele>
        <time>2022-08-25T07:26:28Z</time>
      </trkpt>
      <trkpt lat="42.79933200000002" lon="-1.6721819999999987">
        <ele>411.464</ele>
        <time>2022-08-25T07:26:29Z</time>
      </trkpt>
      <trkpt lat="42.79932100000002" lon="-1.6722179999999986">
        <ele>411.474</ele>
        <time>2022-08-25T07:26:30Z</time>
      </trkpt>
      <trkpt lat="42.79928700000002" lon="-1.6722969999999986">
        <ele>411.254</ele>
        <time>2022-08-25T07:26:32Z</time>
      </trkpt>
      <trkpt lat="42.79926500000002" lon="-1.6723499999999987">
        <ele>411.230</ele>
        <time>2022-08-25T07:26:33Z</time>
      </trkpt>
      <trkpt lat="42.79924900000002" lon="-1.6723949999999987">
        <ele>411.232</ele>
        <time>2022-08-25T07:26:34Z</time>
      </trkpt>
      <trkpt lat="42.79923400000002" lon="-1.6724329999999987">
        <ele>411.219</ele>
        <time>2022-08-25T07:26:35Z</time>
      </trkpt>
      <trkpt lat="42.79922200000002" lon="-1.6724689999999987">
        <ele>411.492</ele>
        <time>2022-08-25T07:26:36Z</time>
      </trkpt>
      <trkpt lat="42.79919800000002" lon="-1.6724959999999987">
        <ele>411.428</ele>
        <time>2022-08-25T07:26:37Z</time>
      </trkpt>
      <trkpt lat="42.799185000000016" lon="-1.6725169999999987">
        <ele>411.269</ele>
        <time>2022-08-25T07:26:38Z</time>
      </trkpt>
      <trkpt lat="42.79917900000002" lon="-1.6725429999999988">
        <ele>411.255</ele>
        <time>2022-08-25T07:26:39Z</time>
      </trkpt>
      <trkpt lat="42.79917000000002" lon="-1.6725579999999989">
        <ele>411.207</ele>
        <time>2022-08-25T07:26:40Z</time>
      </trkpt>
      <trkpt lat="42.79917000000002" lon="-1.672564999999999">
        <ele>411.417</ele>
        <time>2022-08-25T07:26:42Z</time>
      </trkpt>
      <trkpt lat="42.799185000000016" lon="-1.672579999999999">
        <ele>411.409</ele>
        <time>2022-08-25T07:26:45Z</time>
      </trkpt>
      <trkpt lat="42.799230000000016" lon="-1.672619999999999">
        <ele>411.646</ele>
        <time>2022-08-25T07:26:48Z</time>
      </trkpt>
      <trkpt lat="42.799289000000016" lon="-1.6726949999999992">
        <ele>411.416</ele>
        <time>2022-08-25T07:26:52Z</time>
      </trkpt>
      <trkpt lat="42.79929100000002" lon="-1.672719999999999">
        <ele>411.456</ele>
        <time>2022-08-25T07:26:53Z</time>
      </trkpt>
      <trkpt lat="42.79929000000002" lon="-1.6727459999999992">
        <ele>411.482</ele>
        <time>2022-08-25T07:26:54Z</time>
      </trkpt>
      <trkpt lat="42.79928600000002" lon="-1.6727999999999992">
        <ele>411.454</ele>
        <time>2022-08-25T07:26:56Z</time>
      </trkpt>
      <trkpt lat="42.79929000000002" lon="-1.6728249999999991">
        <ele>411.431</ele>
        <time>2022-08-25T07:26:57Z</time>
      </trkpt>
      <trkpt lat="42.79929700000002" lon="-1.672919999999999">
        <ele>411.474</ele>
        <time>2022-08-25T07:27:00Z</time>
      </trkpt>
      <trkpt lat="42.79934400000002" lon="-1.6730919999999991">
        <ele>411.870</ele>
        <time>2022-08-25T07:27:04Z</time>
      </trkpt>
      <trkpt lat="42.79935700000002" lon="-1.6731399999999992">
        <ele>411.871</ele>
        <time>2022-08-25T07:27:05Z</time>
      </trkpt>
      <trkpt lat="42.79936900000002" lon="-1.6732849999999992">
        <ele>411.855</ele>
        <time>2022-08-25T07:27:08Z</time>
      </trkpt>
      <trkpt lat="42.79936600000002" lon="-1.6733309999999992">
        <ele>411.807</ele>
        <time>2022-08-25T07:27:09Z</time>
      </trkpt>
      <trkpt lat="42.79935700000002" lon="-1.6733739999999993">
        <ele>411.817</ele>
        <time>2022-08-25T07:27:10Z</time>
      </trkpt>
      <trkpt lat="42.799342000000024" lon="-1.6734169999999993">
        <ele>411.609</ele>
        <time>2022-08-25T07:27:11Z</time>
      </trkpt>
      <trkpt lat="42.79932600000002" lon="-1.6734499999999992">
        <ele>411.616</ele>
        <time>2022-08-25T07:27:12Z</time>
      </trkpt>
      <trkpt lat="42.79930700000002" lon="-1.6734649999999993">
        <ele>411.626</ele>
        <time>2022-08-25T07:27:13Z</time>
      </trkpt>
      <trkpt lat="42.79928600000002" lon="-1.6734579999999992">
        <ele>411.426</ele>
        <time>2022-08-25T07:27:14Z</time>
      </trkpt>
      <trkpt lat="42.79924200000002" lon="-1.6733849999999992">
        <ele>411.432</ele>
        <time>2022-08-25T07:27:17Z</time>
      </trkpt>
      <trkpt lat="42.79922300000002" lon="-1.6733239999999991">
        <ele>411.244</ele>
        <time>2022-08-25T07:27:19Z</time>
      </trkpt>
      <trkpt lat="42.79917200000002" lon="-1.6732959999999992">
        <ele>411.451</ele>
        <time>2022-08-25T07:27:21Z</time>
      </trkpt>
      <trkpt lat="42.79907800000002" lon="-1.6733199999999993">
        <ele>411.444</ele>
        <time>2022-08-25T07:27:24Z</time>
      </trkpt>
      <trkpt lat="42.799046000000025" lon="-1.6733379999999993">
        <ele>411.480</ele>
        <time>2022-08-25T07:27:25Z</time>
      </trkpt>
      <trkpt lat="42.79898900000003" lon="-1.6734039999999992">
        <ele>411.651</ele>
        <time>2022-08-25T07:27:27Z</time>
      </trkpt>
      <trkpt lat="42.798962000000024" lon="-1.6734479999999992">
        <ele>411.676</ele>
        <time>2022-08-25T07:27:28Z</time>
      </trkpt>
      <trkpt lat="42.79894000000002" lon="-1.673494999999999">
        <ele>411.890</ele>
        <time>2022-08-25T07:27:29Z</time>
      </trkpt>
      <trkpt lat="42.79892300000002" lon="-1.673533999999999">
        <ele>411.819</ele>
        <time>2022-08-25T07:27:30Z</time>
      </trkpt>
      <trkpt lat="42.798900000000025" lon="-1.673583999999999">
        <ele>411.809</ele>
        <time>2022-08-25T07:27:31Z</time>
      </trkpt>
      <trkpt lat="42.79888200000003" lon="-1.6736259999999992">
        <ele>411.838</ele>
        <time>2022-08-25T07:27:32Z</time>
      </trkpt>
      <trkpt lat="42.798866000000025" lon="-1.6736679999999993">
        <ele>411.848</ele>
        <time>2022-08-25T07:27:33Z</time>
      </trkpt>
      <trkpt lat="42.798849000000025" lon="-1.6737069999999992">
        <ele>411.818</ele>
        <time>2022-08-25T07:27:34Z</time>
      </trkpt>
      <trkpt lat="42.79883400000003" lon="-1.6737449999999992">
        <ele>412.084</ele>
        <time>2022-08-25T07:27:35Z</time>
      </trkpt>
      <trkpt lat="42.79873600000003" lon="-1.6739359999999992">
        <ele>412.036</ele>
        <time>2022-08-25T07:27:40Z</time>
      </trkpt>
      <trkpt lat="42.79869900000003" lon="-1.6740129999999993">
        <ele>412.213</ele>
        <time>2022-08-25T07:27:42Z</time>
      </trkpt>
      <trkpt lat="42.798683000000025" lon="-1.6740479999999993">
        <ele>412.296</ele>
        <time>2022-08-25T07:27:43Z</time>
      </trkpt>
      <trkpt lat="42.798669000000025" lon="-1.6740819999999994">
        <ele>412.252</ele>
        <time>2022-08-25T07:27:44Z</time>
      </trkpt>
      <trkpt lat="42.79865100000003" lon="-1.6741159999999995">
        <ele>412.413</ele>
        <time>2022-08-25T07:27:45Z</time>
      </trkpt>
      <trkpt lat="42.79863400000003" lon="-1.6741509999999995">
        <ele>412.696</ele>
        <time>2022-08-25T07:27:46Z</time>
      </trkpt>
      <trkpt lat="42.79861700000003" lon="-1.6741879999999996">
        <ele>412.631</ele>
        <time>2022-08-25T07:27:47Z</time>
      </trkpt>
      <trkpt lat="42.79860200000003" lon="-1.6742199999999996">
        <ele>412.824</ele>
        <time>2022-08-25T07:27:48Z</time>
      </trkpt>
      <trkpt lat="42.79858800000003" lon="-1.6742519999999996">
        <ele>412.809</ele>
        <time>2022-08-25T07:27:49Z</time>
      </trkpt>
      <trkpt lat="42.79857200000003" lon="-1.6742819999999996">
        <ele>413.090</ele>
        <time>2022-08-25T07:27:50Z</time>
      </trkpt>
      <trkpt lat="42.798556000000026" lon="-1.6743129999999995">
        <ele>413.020</ele>
        <time>2022-08-25T07:27:51Z</time>
      </trkpt>
      <trkpt lat="42.798542000000026" lon="-1.6743439999999994">
        <ele>413.270</ele>
        <time>2022-08-25T07:27:52Z</time>
      </trkpt>
      <trkpt lat="42.798526000000024" lon="-1.6743719999999993">
        <ele>413.446</ele>
        <time>2022-08-25T07:27:53Z</time>
      </trkpt>
      <trkpt lat="42.798492000000024" lon="-1.6744299999999992">
        <ele>413.428</ele>
        <time>2022-08-25T07:27:55Z</time>
      </trkpt>
      <trkpt lat="42.798478000000024" lon="-1.6744569999999992">
        <ele>413.685</ele>
        <time>2022-08-25T07:27:56Z</time>
      </trkpt>
      <trkpt lat="42.79846200000002" lon="-1.6744829999999993">
        <ele>413.638</ele>
        <time>2022-08-25T07:27:57Z</time>
      </trkpt>
      <trkpt lat="42.79843200000002" lon="-1.6745329999999994">
        <ele>414.044</ele>
        <time>2022-08-25T07:27:59Z</time>
      </trkpt>
      <trkpt lat="42.79836900000002" lon="-1.6746499999999993">
        <ele>414.485</ele>
        <time>2022-08-25T07:28:03Z</time>
      </trkpt>
      <trkpt lat="42.79835500000002" lon="-1.6746759999999994">
        <ele>414.694</ele>
        <time>2022-08-25T07:28:04Z</time>
      </trkpt>
      <trkpt lat="42.79832500000002" lon="-1.6747329999999994">
        <ele>414.657</ele>
        <time>2022-08-25T07:28:06Z</time>
      </trkpt>
      <trkpt lat="42.79831000000002" lon="-1.6747609999999993">
        <ele>414.822</ele>
        <time>2022-08-25T07:28:07Z</time>
      </trkpt>
      <trkpt lat="42.79829300000002" lon="-1.6747899999999993">
        <ele>415.009</ele>
        <time>2022-08-25T07:28:08Z</time>
      </trkpt>
      <trkpt lat="42.79827900000002" lon="-1.6748179999999993">
        <ele>415.050</ele>
        <time>2022-08-25T07:28:09Z</time>
      </trkpt>
      <trkpt lat="42.79817900000002" lon="-1.6749849999999993">
        <ele>415.830</ele>
        <time>2022-08-25T07:28:15Z</time>
      </trkpt>
      <trkpt lat="42.798166000000016" lon="-1.6750119999999993">
        <ele>416.030</ele>
        <time>2022-08-25T07:28:16Z</time>
      </trkpt>
      <trkpt lat="42.79815300000001" lon="-1.6750389999999993">
        <ele>416.066</ele>
        <time>2022-08-25T07:28:17Z</time>
      </trkpt>
      <trkpt lat="42.79814000000001" lon="-1.6750649999999994">
        <ele>416.278</ele>
        <time>2022-08-25T07:28:18Z</time>
      </trkpt>
      <trkpt lat="42.79812600000001" lon="-1.6750919999999994">
        <ele>416.255</ele>
        <time>2022-08-25T07:28:19Z</time>
      </trkpt>
      <trkpt lat="42.79811000000001" lon="-1.6751179999999994">
        <ele>416.268</ele>
        <time>2022-08-25T07:28:20Z</time>
      </trkpt>
      <trkpt lat="42.79809300000001" lon="-1.6751449999999994">
        <ele>416.484</ele>
        <time>2022-08-25T07:28:21Z</time>
      </trkpt>
      <trkpt lat="42.79807800000001" lon="-1.6751689999999995">
        <ele>416.475</ele>
        <time>2022-08-25T07:28:22Z</time>
      </trkpt>
      <trkpt lat="42.79806300000001" lon="-1.6751949999999995">
        <ele>416.655</ele>
        <time>2022-08-25T07:28:23Z</time>
      </trkpt>
      <trkpt lat="42.798048000000016" lon="-1.6752219999999995">
        <ele>416.607</ele>
        <time>2022-08-25T07:28:24Z</time>
      </trkpt>
      <trkpt lat="42.79803200000001" lon="-1.6752499999999995">
        <ele>416.817</ele>
        <time>2022-08-25T07:28:25Z</time>
      </trkpt>
      <trkpt lat="42.798017000000016" lon="-1.6752779999999994">
        <ele>416.809</ele>
        <time>2022-08-25T07:28:26Z</time>
      </trkpt>
      <trkpt lat="42.79800400000001" lon="-1.6753039999999995">
        <ele>417.286</ele>
        <time>2022-08-25T07:28:27Z</time>
      </trkpt>
      <trkpt lat="42.79798700000001" lon="-1.6753279999999995">
        <ele>417.476</ele>
        <time>2022-08-25T07:28:28Z</time>
      </trkpt>
      <trkpt lat="42.797970000000014" lon="-1.6753549999999995">
        <ele>417.636</ele>
        <time>2022-08-25T07:28:29Z</time>
      </trkpt>
      <trkpt lat="42.797955000000016" lon="-1.6753829999999994">
        <ele>417.672</ele>
        <time>2022-08-25T07:28:30Z</time>
      </trkpt>
      <trkpt lat="42.797941000000016" lon="-1.6754069999999994">
        <ele>417.634</ele>
        <time>2022-08-25T07:28:31Z</time>
      </trkpt>
      <trkpt lat="42.79792800000001" lon="-1.6754339999999994">
        <ele>417.841</ele>
        <time>2022-08-25T07:28:32Z</time>
      </trkpt>
      <trkpt lat="42.79791500000001" lon="-1.6754599999999995">
        <ele>417.854</ele>
        <time>2022-08-25T07:28:33Z</time>
      </trkpt>
      <trkpt lat="42.79790100000001" lon="-1.6754859999999996">
        <ele>417.860</ele>
        <time>2022-08-25T07:28:34Z</time>
      </trkpt>
      <trkpt lat="42.79788700000001" lon="-1.6755149999999996">
        <ele>418.051</ele>
        <time>2022-08-25T07:28:35Z</time>
      </trkpt>
      <trkpt lat="42.79787300000001" lon="-1.6755449999999996">
        <ele>418.213</ele>
        <time>2022-08-25T07:28:36Z</time>
      </trkpt>
      <trkpt lat="42.79786000000001" lon="-1.6755729999999995">
        <ele>418.443</ele>
        <time>2022-08-25T07:28:37Z</time>
      </trkpt>
      <trkpt lat="42.797844000000005" lon="-1.6755999999999995">
        <ele>418.407</ele>
        <time>2022-08-25T07:28:38Z</time>
      </trkpt>
      <trkpt lat="42.797828" lon="-1.6756259999999996">
        <ele>418.409</ele>
        <time>2022-08-25T07:28:39Z</time>
      </trkpt>
      <trkpt lat="42.797814" lon="-1.6756549999999997">
        <ele>418.482</ele>
        <time>2022-08-25T07:28:40Z</time>
      </trkpt>
      <trkpt lat="42.797798" lon="-1.6756829999999996">
        <ele>418.692</ele>
        <time>2022-08-25T07:28:41Z</time>
      </trkpt>
      <trkpt lat="42.797781" lon="-1.6757109999999995">
        <ele>418.632</ele>
        <time>2022-08-25T07:28:42Z</time>
      </trkpt>
      <trkpt lat="42.797766" lon="-1.6757399999999996">
        <ele>418.628</ele>
        <time>2022-08-25T07:28:43Z</time>
      </trkpt>
      <trkpt lat="42.79775" lon="-1.6757709999999995">
        <ele>418.630</ele>
        <time>2022-08-25T07:28:44Z</time>
      </trkpt>
      <trkpt lat="42.797734" lon="-1.6758039999999994">
        <ele>418.897</ele>
        <time>2022-08-25T07:28:45Z</time>
      </trkpt>
      <trkpt lat="42.797714" lon="-1.6758359999999994">
        <ele>418.870</ele>
        <time>2022-08-25T07:28:46Z</time>
      </trkpt>
      <trkpt lat="42.797696" lon="-1.6758709999999994">
        <ele>418.866</ele>
        <time>2022-08-25T07:28:47Z</time>
      </trkpt>
      <trkpt lat="42.797677" lon="-1.6759049999999995">
        <ele>418.867</ele>
        <time>2022-08-25T07:28:48Z</time>
      </trkpt>
      <trkpt lat="42.797654" lon="-1.6759409999999995">
        <ele>418.633</ele>
        <time>2022-08-25T07:28:49Z</time>
      </trkpt>
      <trkpt lat="42.797633000000005" lon="-1.6759749999999995">
        <ele>418.623</ele>
        <time>2022-08-25T07:28:50Z</time>
      </trkpt>
      <trkpt lat="42.79756700000001" lon="-1.6760869999999994">
        <ele>418.615</ele>
        <time>2022-08-25T07:28:53Z</time>
      </trkpt>
      <trkpt lat="42.79737600000001" lon="-1.6763739999999994">
        <ele>418.209</ele>
        <time>2022-08-25T07:28:59Z</time>
      </trkpt>
      <trkpt lat="42.79718400000001" lon="-1.6766139999999994">
        <ele>417.424</ele>
        <time>2022-08-25T07:29:03Z</time>
      </trkpt>
      <trkpt lat="42.79713100000001" lon="-1.6766769999999993">
        <ele>417.264</ele>
        <time>2022-08-25T07:29:04Z</time>
      </trkpt>
      <trkpt lat="42.797019000000006" lon="-1.6767969999999992">
        <ele>416.864</ele>
        <time>2022-08-25T07:29:06Z</time>
      </trkpt>
      <trkpt lat="42.796971000000006" lon="-1.6768479999999992">
        <ele>416.480</ele>
        <time>2022-08-25T07:29:07Z</time>
      </trkpt>
      <trkpt lat="42.796926000000006" lon="-1.6768939999999992">
        <ele>416.052</ele>
        <time>2022-08-25T07:29:08Z</time>
      </trkpt>
      <trkpt lat="42.796885" lon="-1.6769579999999993">
        <ele>415.679</ele>
        <time>2022-08-25T07:29:09Z</time>
      </trkpt>
      <trkpt lat="42.796842000000005" lon="-1.6770229999999993">
        <ele>415.022</ele>
        <time>2022-08-25T07:29:10Z</time>
      </trkpt>
      <trkpt lat="42.796795" lon="-1.6770849999999993">
        <ele>415.038</ele>
        <time>2022-08-25T07:29:11Z</time>
      </trkpt>
      <trkpt lat="42.796748" lon="-1.6771459999999994">
        <ele>414.869</ele>
        <time>2022-08-25T07:29:12Z</time>
      </trkpt>
      <trkpt lat="42.796701" lon="-1.6772079999999994">
        <ele>414.857</ele>
        <time>2022-08-25T07:29:13Z</time>
      </trkpt>
      <trkpt lat="42.796662" lon="-1.6772639999999994">
        <ele>414.600</ele>
        <time>2022-08-25T07:29:14Z</time>
      </trkpt>
      <trkpt lat="42.796623" lon="-1.6773139999999995">
        <ele>414.620</ele>
        <time>2022-08-25T07:29:15Z</time>
      </trkpt>
      <trkpt lat="42.796583" lon="-1.6773639999999996">
        <ele>414.609</ele>
        <time>2022-08-25T07:29:16Z</time>
      </trkpt>
      <trkpt lat="42.796547" lon="-1.6774139999999997">
        <ele>414.696</ele>
        <time>2022-08-25T07:29:17Z</time>
      </trkpt>
      <trkpt lat="42.796516999999994" lon="-1.6774619999999998">
        <ele>414.866</ele>
        <time>2022-08-25T07:29:18Z</time>
      </trkpt>
      <trkpt lat="42.79648999999999" lon="-1.6775129999999998">
        <ele>414.846</ele>
        <time>2022-08-25T07:29:19Z</time>
      </trkpt>
      <trkpt lat="42.79646599999999" lon="-1.6775579999999999">
        <ele>414.822</ele>
        <time>2022-08-25T07:29:20Z</time>
      </trkpt>
      <trkpt lat="42.796441999999985" lon="-1.6776019999999998">
        <ele>414.874</ele>
        <time>2022-08-25T07:29:21Z</time>
      </trkpt>
      <trkpt lat="42.79641999999998" lon="-1.6776479999999998">
        <ele>415.071</ele>
        <time>2022-08-25T07:29:22Z</time>
      </trkpt>
      <trkpt lat="42.796399999999984" lon="-1.6776909999999998">
        <ele>415.254</ele>
        <time>2022-08-25T07:29:23Z</time>
      </trkpt>
      <trkpt lat="42.79637899999999" lon="-1.6777339999999998">
        <ele>415.420</ele>
        <time>2022-08-25T07:29:24Z</time>
      </trkpt>
      <trkpt lat="42.79635899999999" lon="-1.677779">
        <ele>415.461</ele>
        <time>2022-08-25T07:29:25Z</time>
      </trkpt>
      <trkpt lat="42.79633799999999" lon="-1.6778199999999999">
        <ele>415.644</ele>
        <time>2022-08-25T07:29:26Z</time>
      </trkpt>
      <trkpt lat="42.79632199999999" lon="-1.6778559999999998">
        <ele>415.605</ele>
        <time>2022-08-25T07:29:27Z</time>
      </trkpt>
      <trkpt lat="42.79630799999999" lon="-1.6778909999999998">
        <ele>415.615</ele>
        <time>2022-08-25T07:29:28Z</time>
      </trkpt>
      <trkpt lat="42.796294999999986" lon="-1.6779249999999999">
        <ele>415.609</ele>
        <time>2022-08-25T07:29:29Z</time>
      </trkpt>
      <trkpt lat="42.796281999999984" lon="-1.6779559999999998">
        <ele>415.895</ele>
        <time>2022-08-25T07:29:30Z</time>
      </trkpt>
      <trkpt lat="42.796266999999986" lon="-1.6779889999999997">
        <ele>415.825</ele>
        <time>2022-08-25T07:29:31Z</time>
      </trkpt>
      <trkpt lat="42.796255999999985" lon="-1.6780209999999998">
        <ele>415.875</ele>
        <time>2022-08-25T07:29:32Z</time>
      </trkpt>
      <trkpt lat="42.79624599999998" lon="-1.6780499999999998">
        <ele>416.071</ele>
        <time>2022-08-25T07:29:33Z</time>
      </trkpt>
      <trkpt lat="42.796236999999984" lon="-1.6780739999999998">
        <ele>416.023</ele>
        <time>2022-08-25T07:29:34Z</time>
      </trkpt>
      <trkpt lat="42.79622899999998" lon="-1.6780959999999998">
        <ele>416.220</ele>
        <time>2022-08-25T07:29:35Z</time>
      </trkpt>
      <trkpt lat="42.796221999999986" lon="-1.6781089999999999">
        <ele>416.233</ele>
        <time>2022-08-25T07:29:36Z</time>
      </trkpt>
      <trkpt lat="42.79621899999999" lon="-1.6781179999999998">
        <ele>416.489</ele>
        <time>2022-08-25T07:29:37Z</time>
      </trkpt>
      <trkpt lat="42.796216999999984" lon="-1.6781229999999998">
        <ele>416.690</ele>
        <time>2022-08-25T07:29:38Z</time>
      </trkpt>
      <trkpt lat="42.79620899999998" lon="-1.6781159999999997">
        <ele>416.897</ele>
        <time>2022-08-25T07:30:11Z</time>
      </trkpt>
      <trkpt lat="42.79620899999998" lon="-1.6781159999999997">
        <ele>416.823</ele>
        <time>2022-08-25T07:30:12Z</time>
      </trkpt>
      <trkpt lat="42.79620999999998" lon="-1.6781069999999998">
        <ele>416.625</ele>
        <time>2022-08-25T07:30:14Z</time>
      </trkpt>
      <trkpt lat="42.79621599999998" lon="-1.6781179999999998">
        <ele>416.609</ele>
        <time>2022-08-25T07:30:18Z</time>
      </trkpt>
      <trkpt lat="42.79620999999998" lon="-1.6781239999999997">
        <ele>416.690</ele>
        <time>2022-08-25T07:30:19Z</time>
      </trkpt>
      <trkpt lat="42.796202999999984" lon="-1.6781239999999997">
        <ele>416.690</ele>
        <time>2022-08-25T07:30:20Z</time>
      </trkpt>
      <trkpt lat="42.79620099999998" lon="-1.6781209999999998">
        <ele>416.650</ele>
        <time>2022-08-25T07:30:21Z</time>
      </trkpt>
      <trkpt lat="42.79620099999998" lon="-1.6781209999999998">
        <ele>416.616</ele>
        <time>2022-08-25T07:30:22Z</time>
      </trkpt>
      <trkpt lat="42.796199999999985" lon="-1.6781189999999997">
        <ele>416.688</ele>
        <time>2022-08-25T07:30:23Z</time>
      </trkpt>
      <trkpt lat="42.79618399999998" lon="-1.6781109999999997">
        <ele>416.675</ele>
        <time>2022-08-25T07:30:24Z</time>
      </trkpt>
      <trkpt lat="42.79616799999998" lon="-1.6781019999999998">
        <ele>416.688</ele>
        <time>2022-08-25T07:30:25Z</time>
      </trkpt>
      <trkpt lat="42.79615799999998" lon="-1.6780939999999998">
        <ele>416.654</ele>
        <time>2022-08-25T07:30:26Z</time>
      </trkpt>
      <trkpt lat="42.79611199999998" lon="-1.6780569999999997">
        <ele>416.865</ele>
        <time>2022-08-25T07:30:29Z</time>
      </trkpt>
      <trkpt lat="42.79606299999998" lon="-1.6780209999999998">
        <ele>416.851</ele>
        <time>2022-08-25T07:30:32Z</time>
      </trkpt>
      <trkpt lat="42.796053999999984" lon="-1.6780319999999997">
        <ele>416.801</ele>
        <time>2022-08-25T07:30:33Z</time>
      </trkpt>
      <trkpt lat="42.79601499999998" lon="-1.6781029999999997">
        <ele>416.811</ele>
        <time>2022-08-25T07:30:37Z</time>
      </trkpt>
      <trkpt lat="42.79598399999998" lon="-1.6781369999999998">
        <ele>417.009</ele>
        <time>2022-08-25T07:30:39Z</time>
      </trkpt>
      <trkpt lat="42.79596199999998" lon="-1.6781529999999998">
        <ele>417.076</ele>
        <time>2022-08-25T07:30:40Z</time>
      </trkpt>
      <trkpt lat="42.79586699999998" lon="-1.6782509999999997">
        <ele>417.036</ele>
        <time>2022-08-25T07:30:44Z</time>
      </trkpt>
      <trkpt lat="42.79584499999998" lon="-1.6782739999999998">
        <ele>417.226</ele>
        <time>2022-08-25T07:30:45Z</time>
      </trkpt>
      <trkpt lat="42.79582199999998" lon="-1.6782929999999998">
        <ele>417.252</ele>
        <time>2022-08-25T07:30:46Z</time>
      </trkpt>
      <trkpt lat="42.79574099999998" lon="-1.6783599999999999">
        <ele>418.084</ele>
        <time>2022-08-25T07:30:50Z</time>
      </trkpt>
      <trkpt lat="42.795693999999976" lon="-1.6783759999999999">
        <ele>418.291</ele>
        <time>2022-08-25T07:30:52Z</time>
      </trkpt>
      <trkpt lat="42.795632999999974" lon="-1.6783879999999998">
        <ele>418.444</ele>
        <time>2022-08-25T07:30:54Z</time>
      </trkpt>
      <trkpt lat="42.79560299999997" lon="-1.6783799999999998">
        <ele>418.460</ele>
        <time>2022-08-25T07:30:55Z</time>
      </trkpt>
      <trkpt lat="42.79557799999997" lon="-1.6783719999999998">
        <ele>418.441</ele>
        <time>2022-08-25T07:30:56Z</time>
      </trkpt>
      <trkpt lat="42.79556099999997" lon="-1.6783649999999997">
        <ele>418.474</ele>
        <time>2022-08-25T07:30:57Z</time>
      </trkpt>
      <trkpt lat="42.79554899999997" lon="-1.6783529999999998">
        <ele>418.456</ele>
        <time>2022-08-25T07:30:58Z</time>
      </trkpt>
      <trkpt lat="42.79553499999997" lon="-1.6783349999999997">
        <ele>418.421</ele>
        <time>2022-08-25T07:30:59Z</time>
      </trkpt>
      <trkpt lat="42.79550799999997" lon="-1.6783049999999997">
        <ele>418.609</ele>
        <time>2022-08-25T07:31:01Z</time>
      </trkpt>
      <trkpt lat="42.79550099999997" lon="-1.6782929999999998">
        <ele>418.658</ele>
        <time>2022-08-25T07:31:02Z</time>
      </trkpt>
      <trkpt lat="42.79549299999997" lon="-1.6782799999999998">
        <ele>418.688</ele>
        <time>2022-08-25T07:31:03Z</time>
      </trkpt>
      <trkpt lat="42.79548499999997" lon="-1.6782709999999998">
        <ele>418.618</ele>
        <time>2022-08-25T07:31:04Z</time>
      </trkpt>
      <trkpt lat="42.79547999999997" lon="-1.6782679999999999">
        <ele>418.674</ele>
        <time>2022-08-25T07:31:05Z</time>
      </trkpt>
      <trkpt lat="42.79546399999997" lon="-1.678265">
        <ele>418.876</ele>
        <time>2022-08-25T07:31:09Z</time>
      </trkpt>
      <trkpt lat="42.79544899999997" lon="-1.6782659999999998">
        <ele>419.033</ele>
        <time>2022-08-25T07:31:10Z</time>
      </trkpt>
      <trkpt lat="42.79539599999997" lon="-1.6782859999999997">
        <ele>419.026</ele>
        <time>2022-08-25T07:31:13Z</time>
      </trkpt>
      <trkpt lat="42.795379999999966" lon="-1.6783049999999997">
        <ele>419.082</ele>
        <time>2022-08-25T07:31:14Z</time>
      </trkpt>
      <trkpt lat="42.79536799999997" lon="-1.6783289999999997">
        <ele>419.043</ele>
        <time>2022-08-25T07:31:15Z</time>
      </trkpt>
      <trkpt lat="42.79535899999997" lon="-1.6783589999999997">
        <ele>419.222</ele>
        <time>2022-08-25T07:31:16Z</time>
      </trkpt>
      <trkpt lat="42.79535999999997" lon="-1.6783869999999996">
        <ele>419.262</ele>
        <time>2022-08-25T07:31:17Z</time>
      </trkpt>
      <trkpt lat="42.795377999999964" lon="-1.6784429999999997">
        <ele>419.208</ele>
        <time>2022-08-25T07:31:19Z</time>
      </trkpt>
      <trkpt lat="42.79538999999996" lon="-1.6784739999999996">
        <ele>419.209</ele>
        <time>2022-08-25T07:31:20Z</time>
      </trkpt>
      <trkpt lat="42.79540099999996" lon="-1.6785079999999997">
        <ele>419.223</ele>
        <time>2022-08-25T07:31:21Z</time>
      </trkpt>
      <trkpt lat="42.79544599999996" lon="-1.6786789999999996">
        <ele>419.413</ele>
        <time>2022-08-25T07:31:25Z</time>
      </trkpt>
      <trkpt lat="42.79544899999996" lon="-1.6787689999999995">
        <ele>419.463</ele>
        <time>2022-08-25T07:31:27Z</time>
      </trkpt>
      <trkpt lat="42.79544599999996" lon="-1.6789569999999996">
        <ele>419.699</ele>
        <time>2022-08-25T07:31:31Z</time>
      </trkpt>
      <trkpt lat="42.79540699999996" lon="-1.6790849999999995">
        <ele>419.841</ele>
        <time>2022-08-25T07:31:34Z</time>
      </trkpt>
      <trkpt lat="42.795391999999964" lon="-1.6791279999999995">
        <ele>419.888</ele>
        <time>2022-08-25T07:31:35Z</time>
      </trkpt>
      <trkpt lat="42.79537899999996" lon="-1.6791689999999995">
        <ele>420.071</ele>
        <time>2022-08-25T07:31:36Z</time>
      </trkpt>
      <trkpt lat="42.79536799999996" lon="-1.6792089999999995">
        <ele>420.047</ele>
        <time>2022-08-25T07:31:37Z</time>
      </trkpt>
      <trkpt lat="42.79535699999996" lon="-1.6792459999999996">
        <ele>420.288</ele>
        <time>2022-08-25T07:31:38Z</time>
      </trkpt>
      <trkpt lat="42.79534599999996" lon="-1.6792779999999996">
        <ele>420.238</ele>
        <time>2022-08-25T07:31:39Z</time>
      </trkpt>
      <trkpt lat="42.795335999999956" lon="-1.6793099999999996">
        <ele>420.470</ele>
        <time>2022-08-25T07:31:40Z</time>
      </trkpt>
      <trkpt lat="42.79532599999995" lon="-1.6793419999999997">
        <ele>420.417</ele>
        <time>2022-08-25T07:31:41Z</time>
      </trkpt>
      <trkpt lat="42.79531599999995" lon="-1.6793729999999996">
        <ele>420.409</ele>
        <time>2022-08-25T07:31:42Z</time>
      </trkpt>
      <trkpt lat="42.79530699999995" lon="-1.6793999999999996">
        <ele>420.624</ele>
        <time>2022-08-25T07:31:43Z</time>
      </trkpt>
      <trkpt lat="42.79529699999995" lon="-1.6794239999999996">
        <ele>420.664</ele>
        <time>2022-08-25T07:31:44Z</time>
      </trkpt>
      <trkpt lat="42.795280999999946" lon="-1.6794749999999996">
        <ele>420.894</ele>
        <time>2022-08-25T07:31:46Z</time>
      </trkpt>
      <trkpt lat="42.79525699999994" lon="-1.6795309999999997">
        <ele>421.060</ele>
        <time>2022-08-25T07:31:48Z</time>
      </trkpt>
      <trkpt lat="42.795244999999944" lon="-1.6795569999999997">
        <ele>421.092</ele>
        <time>2022-08-25T07:31:49Z</time>
      </trkpt>
      <trkpt lat="42.795218999999946" lon="-1.6796189999999998">
        <ele>421.429</ele>
        <time>2022-08-25T07:31:51Z</time>
      </trkpt>
      <trkpt lat="42.795176999999946" lon="-1.6796999999999997">
        <ele>421.892</ele>
        <time>2022-08-25T07:31:54Z</time>
      </trkpt>
      <trkpt lat="42.795162999999945" lon="-1.6797279999999997">
        <ele>422.068</ele>
        <time>2022-08-25T07:31:55Z</time>
      </trkpt>
      <trkpt lat="42.79515099999995" lon="-1.6797559999999996">
        <ele>422.069</ele>
        <time>2022-08-25T07:31:56Z</time>
      </trkpt>
      <trkpt lat="42.79512199999995" lon="-1.6798139999999995">
        <ele>422.284</ele>
        <time>2022-08-25T07:31:58Z</time>
      </trkpt>
      <trkpt lat="42.79508799999995" lon="-1.6798659999999994">
        <ele>422.407</ele>
        <time>2022-08-25T07:32:00Z</time>
      </trkpt>
      <trkpt lat="42.79507599999995" lon="-1.6798899999999994">
        <ele>422.417</ele>
        <time>2022-08-25T07:32:01Z</time>
      </trkpt>
      <trkpt lat="42.79506299999995" lon="-1.6799159999999995">
        <ele>422.809</ele>
        <time>2022-08-25T07:32:02Z</time>
      </trkpt>
      <trkpt lat="42.79504499999995" lon="-1.6799399999999995">
        <ele>422.869</ele>
        <time>2022-08-25T07:32:03Z</time>
      </trkpt>
      <trkpt lat="42.79503199999995" lon="-1.6799679999999995">
        <ele>422.819</ele>
        <time>2022-08-25T07:32:04Z</time>
      </trkpt>
      <trkpt lat="42.79501999999995" lon="-1.6799949999999995">
        <ele>423.029</ele>
        <time>2022-08-25T07:32:05Z</time>
      </trkpt>
      <trkpt lat="42.79499599999995" lon="-1.6800449999999996">
        <ele>423.035</ele>
        <time>2022-08-25T07:32:07Z</time>
      </trkpt>
      <trkpt lat="42.79498099999995" lon="-1.6800689999999996">
        <ele>423.027</ele>
        <time>2022-08-25T07:32:08Z</time>
      </trkpt>
      <trkpt lat="42.79496899999995" lon="-1.6800949999999997">
        <ele>423.254</ele>
        <time>2022-08-25T07:32:09Z</time>
      </trkpt>
      <trkpt lat="42.79495799999995" lon="-1.6801199999999996">
        <ele>423.257</ele>
        <time>2022-08-25T07:32:10Z</time>
      </trkpt>
      <trkpt lat="42.79494499999995" lon="-1.6801459999999997">
        <ele>423.273</ele>
        <time>2022-08-25T07:32:11Z</time>
      </trkpt>
      <trkpt lat="42.79493099999995" lon="-1.6801689999999998">
        <ele>423.264</ele>
        <time>2022-08-25T07:32:12Z</time>
      </trkpt>
      <trkpt lat="42.79491699999995" lon="-1.680192">
        <ele>423.484</ele>
        <time>2022-08-25T07:32:13Z</time>
      </trkpt>
      <trkpt lat="42.79490199999995" lon="-1.680215">
        <ele>423.407</ele>
        <time>2022-08-25T07:32:14Z</time>
      </trkpt>
      <trkpt lat="42.79487499999995" lon="-1.680263">
        <ele>423.817</ele>
        <time>2022-08-25T07:32:16Z</time>
      </trkpt>
      <trkpt lat="42.79483499999995" lon="-1.680337">
        <ele>424.009</ele>
        <time>2022-08-25T07:32:19Z</time>
      </trkpt>
      <trkpt lat="42.79482399999995" lon="-1.68036">
        <ele>424.239</ele>
        <time>2022-08-25T07:32:20Z</time>
      </trkpt>
      <trkpt lat="42.794813999999946" lon="-1.680382">
        <ele>424.689</ele>
        <time>2022-08-25T07:32:21Z</time>
      </trkpt>
      <trkpt lat="42.794802999999945" lon="-1.6804000000000001">
        <ele>424.649</ele>
        <time>2022-08-25T07:32:22Z</time>
      </trkpt>
      <trkpt lat="42.794734999999946" lon="-1.6805180000000002">
        <ele>425.085</ele>
        <time>2022-08-25T07:32:27Z</time>
      </trkpt>
      <trkpt lat="42.79472199999994" lon="-1.6805430000000001">
        <ele>425.077</ele>
        <time>2022-08-25T07:32:28Z</time>
      </trkpt>
      <trkpt lat="42.794712999999945" lon="-1.680565">
        <ele>425.044</ele>
        <time>2022-08-25T07:32:29Z</time>
      </trkpt>
      <trkpt lat="42.794704999999944" lon="-1.680584">
        <ele>425.287</ele>
        <time>2022-08-25T07:32:30Z</time>
      </trkpt>
      <trkpt lat="42.79469499999994" lon="-1.680604">
        <ele>425.423</ele>
        <time>2022-08-25T07:32:31Z</time>
      </trkpt>
      <trkpt lat="42.79468699999994" lon="-1.680626">
        <ele>425.634</ele>
        <time>2022-08-25T07:32:32Z</time>
      </trkpt>
      <trkpt lat="42.79467899999994" lon="-1.680651">
        <ele>425.616</ele>
        <time>2022-08-25T07:32:33Z</time>
      </trkpt>
      <trkpt lat="42.794620999999935" lon="-1.680739">
        <ele>426.076</ele>
        <time>2022-08-25T07:32:37Z</time>
      </trkpt>
      <trkpt lat="42.794603999999936" lon="-1.680758">
        <ele>426.213</ele>
        <time>2022-08-25T07:32:38Z</time>
      </trkpt>
      <trkpt lat="42.794586999999936" lon="-1.680779">
        <ele>426.409</ele>
        <time>2022-08-25T07:32:39Z</time>
      </trkpt>
      <trkpt lat="42.79456899999994" lon="-1.680805">
        <ele>426.422</ele>
        <time>2022-08-25T07:32:40Z</time>
      </trkpt>
      <trkpt lat="42.79455199999994" lon="-1.6808310000000002">
        <ele>426.452</ele>
        <time>2022-08-25T07:32:41Z</time>
      </trkpt>
      <trkpt lat="42.79453599999994" lon="-1.6808550000000002">
        <ele>426.442</ele>
        <time>2022-08-25T07:32:42Z</time>
      </trkpt>
      <trkpt lat="42.79452399999994" lon="-1.6808790000000002">
        <ele>426.628</ele>
        <time>2022-08-25T07:32:43Z</time>
      </trkpt>
      <trkpt lat="42.794513999999936" lon="-1.6809030000000003">
        <ele>426.690</ele>
        <time>2022-08-25T07:32:44Z</time>
      </trkpt>
      <trkpt lat="42.79450699999994" lon="-1.6809270000000003">
        <ele>426.887</ele>
        <time>2022-08-25T07:32:45Z</time>
      </trkpt>
      <trkpt lat="42.79449499999994" lon="-1.6809550000000002">
        <ele>426.840</ele>
        <time>2022-08-25T07:32:46Z</time>
      </trkpt>
      <trkpt lat="42.79447999999994" lon="-1.6809790000000002">
        <ele>427.086</ele>
        <time>2022-08-25T07:32:47Z</time>
      </trkpt>
      <trkpt lat="42.79446299999994" lon="-1.6810010000000002">
        <ele>427.037</ele>
        <time>2022-08-25T07:32:48Z</time>
      </trkpt>
      <trkpt lat="42.79444999999994" lon="-1.6810240000000003">
        <ele>427.245</ele>
        <time>2022-08-25T07:32:49Z</time>
      </trkpt>
      <trkpt lat="42.79440999999994" lon="-1.6811010000000004">
        <ele>427.647</ele>
        <time>2022-08-25T07:32:52Z</time>
      </trkpt>
      <trkpt lat="42.794397999999944" lon="-1.6811300000000005">
        <ele>427.811</ele>
        <time>2022-08-25T07:32:53Z</time>
      </trkpt>
      <trkpt lat="42.794385999999946" lon="-1.6811530000000006">
        <ele>427.809</ele>
        <time>2022-08-25T07:32:54Z</time>
      </trkpt>
      <trkpt lat="42.79437399999995" lon="-1.6811800000000006">
        <ele>428.085</ele>
        <time>2022-08-25T07:32:55Z</time>
      </trkpt>
      <trkpt lat="42.79435999999995" lon="-1.6812040000000006">
        <ele>428.035</ele>
        <time>2022-08-25T07:32:56Z</time>
      </trkpt>
      <trkpt lat="42.79434799999995" lon="-1.6812270000000007">
        <ele>428.025</ele>
        <time>2022-08-25T07:32:57Z</time>
      </trkpt>
      <trkpt lat="42.79433599999995" lon="-1.6812490000000007">
        <ele>428.271</ele>
        <time>2022-08-25T07:32:58Z</time>
      </trkpt>
      <trkpt lat="42.79432199999995" lon="-1.6812740000000006">
        <ele>428.443</ele>
        <time>2022-08-25T07:32:59Z</time>
      </trkpt>
      <trkpt lat="42.794306999999954" lon="-1.6812980000000006">
        <ele>428.470</ele>
        <time>2022-08-25T07:33:00Z</time>
      </trkpt>
      <trkpt lat="42.794291999999956" lon="-1.6813230000000006">
        <ele>428.653</ele>
        <time>2022-08-25T07:33:01Z</time>
      </trkpt>
      <trkpt lat="42.79427899999995" lon="-1.6813490000000006">
        <ele>428.619</ele>
        <time>2022-08-25T07:33:02Z</time>
      </trkpt>
      <trkpt lat="42.794263999999956" lon="-1.6813730000000007">
        <ele>428.870</ele>
        <time>2022-08-25T07:33:03Z</time>
      </trkpt>
      <trkpt lat="42.794249999999955" lon="-1.6813960000000008">
        <ele>428.851</ele>
        <time>2022-08-25T07:33:04Z</time>
      </trkpt>
      <trkpt lat="42.79423699999995" lon="-1.6814180000000007">
        <ele>428.801</ele>
        <time>2022-08-25T07:33:05Z</time>
      </trkpt>
      <trkpt lat="42.79422399999995" lon="-1.6814430000000007">
        <ele>428.811</ele>
        <time>2022-08-25T07:33:06Z</time>
      </trkpt>
      <trkpt lat="42.79420999999995" lon="-1.6814670000000007">
        <ele>429.009</ele>
        <time>2022-08-25T07:33:07Z</time>
      </trkpt>
      <trkpt lat="42.79419699999995" lon="-1.6814900000000008">
        <ele>429.286</ele>
        <time>2022-08-25T07:33:08Z</time>
      </trkpt>
      <trkpt lat="42.794180999999945" lon="-1.6815110000000009">
        <ele>429.426</ele>
        <time>2022-08-25T07:33:09Z</time>
      </trkpt>
      <trkpt lat="42.794166999999945" lon="-1.6815330000000008">
        <ele>429.426</ele>
        <time>2022-08-25T07:33:10Z</time>
      </trkpt>
      <trkpt lat="42.794152999999945" lon="-1.6815570000000009">
        <ele>429.642</ele>
        <time>2022-08-25T07:33:11Z</time>
      </trkpt>
      <trkpt lat="42.79413999999994" lon="-1.6815810000000009">
        <ele>429.884</ele>
        <time>2022-08-25T07:33:12Z</time>
      </trkpt>
      <trkpt lat="42.79412599999994" lon="-1.6816060000000008">
        <ele>429.841</ele>
        <time>2022-08-25T07:33:13Z</time>
      </trkpt>
      <trkpt lat="42.794113999999944" lon="-1.6816300000000008">
        <ele>430.054</ele>
        <time>2022-08-25T07:33:14Z</time>
      </trkpt>
      <trkpt lat="42.79410099999994" lon="-1.681653000000001">
        <ele>430.030</ele>
        <time>2022-08-25T07:33:15Z</time>
      </trkpt>
      <trkpt lat="42.79408399999994" lon="-1.681685000000001">
        <ele>430.021</ele>
        <time>2022-08-25T07:33:16Z</time>
      </trkpt>
      <trkpt lat="42.79407399999994" lon="-1.681706000000001">
        <ele>430.214</ele>
        <time>2022-08-25T07:33:17Z</time>
      </trkpt>
      <trkpt lat="42.79406199999994" lon="-1.681734000000001">
        <ele>430.454</ele>
        <time>2022-08-25T07:33:18Z</time>
      </trkpt>
      <trkpt lat="42.79405099999994" lon="-1.681758000000001">
        <ele>430.409</ele>
        <time>2022-08-25T07:33:19Z</time>
      </trkpt>
      <trkpt lat="42.79403899999994" lon="-1.681784000000001">
        <ele>430.409</ele>
        <time>2022-08-25T07:33:20Z</time>
      </trkpt>
      <trkpt lat="42.79402599999994" lon="-1.6818100000000011">
        <ele>430.642</ele>
        <time>2022-08-25T07:33:21Z</time>
      </trkpt>
      <trkpt lat="42.79401099999994" lon="-1.6818370000000011">
        <ele>430.642</ele>
        <time>2022-08-25T07:33:22Z</time>
      </trkpt>
      <trkpt lat="42.79399599999994" lon="-1.6818610000000012">
        <ele>430.862</ele>
        <time>2022-08-25T07:33:23Z</time>
      </trkpt>
      <trkpt lat="42.79398299999994" lon="-1.6818850000000012">
        <ele>430.868</ele>
        <time>2022-08-25T07:33:24Z</time>
      </trkpt>
      <trkpt lat="42.79397199999994" lon="-1.6819120000000012">
        <ele>430.860</ele>
        <time>2022-08-25T07:33:25Z</time>
      </trkpt>
      <trkpt lat="42.79395999999994" lon="-1.6819380000000013">
        <ele>430.837</ele>
        <time>2022-08-25T07:33:26Z</time>
      </trkpt>
      <trkpt lat="42.79394899999994" lon="-1.6819620000000013">
        <ele>430.870</ele>
        <time>2022-08-25T07:33:27Z</time>
      </trkpt>
      <trkpt lat="42.79389099999994" lon="-1.6820640000000013">
        <ele>431.056</ele>
        <time>2022-08-25T07:33:31Z</time>
      </trkpt>
      <trkpt lat="42.793877999999935" lon="-1.6820870000000014">
        <ele>431.277</ele>
        <time>2022-08-25T07:33:32Z</time>
      </trkpt>
      <trkpt lat="42.793863999999935" lon="-1.6821130000000015">
        <ele>431.452</ele>
        <time>2022-08-25T07:33:33Z</time>
      </trkpt>
      <trkpt lat="42.79385099999993" lon="-1.6821400000000015">
        <ele>431.453</ele>
        <time>2022-08-25T07:33:34Z</time>
      </trkpt>
      <trkpt lat="42.79380399999993" lon="-1.6822470000000016">
        <ele>431.808</ele>
        <time>2022-08-25T07:33:38Z</time>
      </trkpt>
      <trkpt lat="42.79373999999993" lon="-1.6823480000000015">
        <ele>432.009</ele>
        <time>2022-08-25T07:33:42Z</time>
      </trkpt>
      <trkpt lat="42.79371099999993" lon="-1.6824100000000015">
        <ele>432.056</ele>
        <time>2022-08-25T07:33:44Z</time>
      </trkpt>
      <trkpt lat="42.79369899999993" lon="-1.6824350000000015">
        <ele>432.266</ele>
        <time>2022-08-25T07:33:45Z</time>
      </trkpt>
      <trkpt lat="42.79368599999993" lon="-1.6824630000000014">
        <ele>432.246</ele>
        <time>2022-08-25T07:33:46Z</time>
      </trkpt>
      <trkpt lat="42.79364599999993" lon="-1.6825410000000014">
        <ele>432.232</ele>
        <time>2022-08-25T07:33:49Z</time>
      </trkpt>
      <trkpt lat="42.79363199999993" lon="-1.6825650000000014">
        <ele>432.234</ele>
        <time>2022-08-25T07:33:50Z</time>
      </trkpt>
      <trkpt lat="42.79362099999993" lon="-1.6825900000000014">
        <ele>432.421</ele>
        <time>2022-08-25T07:33:51Z</time>
      </trkpt>
      <trkpt lat="42.79361099999993" lon="-1.6826130000000015">
        <ele>432.694</ele>
        <time>2022-08-25T07:33:52Z</time>
      </trkpt>
      <trkpt lat="42.79359699999993" lon="-1.6826320000000015">
        <ele>432.630</ele>
        <time>2022-08-25T07:33:53Z</time>
      </trkpt>
      <trkpt lat="42.79358499999993" lon="-1.6826500000000015">
        <ele>432.881</ele>
        <time>2022-08-25T07:33:54Z</time>
      </trkpt>
      <trkpt lat="42.793574999999926" lon="-1.6826640000000015">
        <ele>432.824</ele>
        <time>2022-08-25T07:33:55Z</time>
      </trkpt>
      <trkpt lat="42.793569999999924" lon="-1.6826710000000016">
        <ele>432.804</ele>
        <time>2022-08-25T07:33:56Z</time>
      </trkpt>
      <trkpt lat="42.79356299999993" lon="-1.6826910000000015">
        <ele>432.814</ele>
        <time>2022-08-25T07:34:22Z</time>
      </trkpt>
      <trkpt lat="42.793493999999924" lon="-1.6828210000000015">
        <ele>432.809</ele>
        <time>2022-08-25T07:34:27Z</time>
      </trkpt>
      <trkpt lat="42.79347899999993" lon="-1.6828500000000015">
        <ele>432.833</ele>
        <time>2022-08-25T07:34:28Z</time>
      </trkpt>
      <trkpt lat="42.793465999999924" lon="-1.6828760000000016">
        <ele>432.823</ele>
        <time>2022-08-25T07:34:29Z</time>
      </trkpt>
      <trkpt lat="42.79345599999992" lon="-1.6828980000000016">
        <ele>432.843</ele>
        <time>2022-08-25T07:34:30Z</time>
      </trkpt>
      <trkpt lat="42.79339999999992" lon="-1.6829890000000016">
        <ele>433.279</ele>
        <time>2022-08-25T07:34:34Z</time>
      </trkpt>
      <trkpt lat="42.79335599999992" lon="-1.6830320000000016">
        <ele>433.471</ele>
        <time>2022-08-25T07:34:36Z</time>
      </trkpt>
      <trkpt lat="42.79334399999992" lon="-1.6830480000000017">
        <ele>433.468</ele>
        <time>2022-08-25T07:34:37Z</time>
      </trkpt>
      <trkpt lat="42.79332799999992" lon="-1.6830680000000016">
        <ele>433.641</ele>
        <time>2022-08-25T07:34:38Z</time>
      </trkpt>
      <trkpt lat="42.79327699999992" lon="-1.6831210000000016">
        <ele>433.867</ele>
        <time>2022-08-25T07:34:41Z</time>
      </trkpt>
      <trkpt lat="42.79322599999992" lon="-1.6831840000000016">
        <ele>434.098</ele>
        <time>2022-08-25T07:34:44Z</time>
      </trkpt>
      <trkpt lat="42.79320899999992" lon="-1.6832030000000016">
        <ele>434.231</ele>
        <time>2022-08-25T07:34:45Z</time>
      </trkpt>
      <trkpt lat="42.79319299999992" lon="-1.6832180000000017">
        <ele>434.261</ele>
        <time>2022-08-25T07:34:46Z</time>
      </trkpt>
      <trkpt lat="42.793176999999915" lon="-1.6832300000000016">
        <ele>434.407</ele>
        <time>2022-08-25T07:34:47Z</time>
      </trkpt>
      <trkpt lat="42.79316199999992" lon="-1.6832430000000016">
        <ele>434.409</ele>
        <time>2022-08-25T07:34:48Z</time>
      </trkpt>
      <trkpt lat="42.79314799999992" lon="-1.6832530000000017">
        <ele>434.474</ele>
        <time>2022-08-25T07:34:49Z</time>
      </trkpt>
      <trkpt lat="42.793134999999914" lon="-1.6832630000000017">
        <ele>434.694</ele>
        <time>2022-08-25T07:34:50Z</time>
      </trkpt>
      <trkpt lat="42.793122999999916" lon="-1.6832750000000016">
        <ele>434.674</ele>
        <time>2022-08-25T07:34:51Z</time>
      </trkpt>
      <trkpt lat="42.79311299999991" lon="-1.6832850000000017">
        <ele>434.810</ele>
        <time>2022-08-25T07:34:52Z</time>
      </trkpt>
      <trkpt lat="42.79310499999991" lon="-1.6832900000000017">
        <ele>434.872</ele>
        <time>2022-08-25T07:34:53Z</time>
      </trkpt>
      <trkpt lat="42.79310199999991" lon="-1.6832910000000016">
        <ele>435.059</ele>
        <time>2022-08-25T07:34:54Z</time>
      </trkpt>
      <trkpt lat="42.79310199999991" lon="-1.6832910000000016">
        <ele>435.032</ele>
        <time>2022-08-25T07:34:55Z</time>
      </trkpt>
      <trkpt lat="42.79308499999991" lon="-1.6833070000000017">
        <ele>434.858</ele>
        <time>2022-08-25T07:35:52Z</time>
      </trkpt>
      <trkpt lat="42.793044999999914" lon="-1.6833360000000017">
        <ele>434.829</ele>
        <time>2022-08-25T07:35:54Z</time>
      </trkpt>
      <trkpt lat="42.79302699999992" lon="-1.6833570000000018">
        <ele>434.854</ele>
        <time>2022-08-25T07:35:55Z</time>
      </trkpt>
      <trkpt lat="42.79301199999992" lon="-1.6834110000000018">
        <ele>434.856</ele>
        <time>2022-08-25T07:35:57Z</time>
      </trkpt>
      <trkpt lat="42.79301399999992" lon="-1.6834450000000019">
        <ele>434.811</ele>
        <time>2022-08-25T07:35:58Z</time>
      </trkpt>
      <trkpt lat="42.79301199999992" lon="-1.683482000000002">
        <ele>435.009</ele>
        <time>2022-08-25T07:35:59Z</time>
      </trkpt>
      <trkpt lat="42.79300999999992" lon="-1.683525000000002">
        <ele>435.216</ele>
        <time>2022-08-25T07:36:00Z</time>
      </trkpt>
      <trkpt lat="42.79301999999992" lon="-1.683647000000002">
        <ele>435.486</ele>
        <time>2022-08-25T07:36:03Z</time>
      </trkpt>
      <trkpt lat="42.79301799999992" lon="-1.683727000000002">
        <ele>435.666</ele>
        <time>2022-08-25T07:36:05Z</time>
      </trkpt>
      <trkpt lat="42.79301799999992" lon="-1.683764000000002">
        <ele>435.632</ele>
        <time>2022-08-25T07:36:06Z</time>
      </trkpt>
      <trkpt lat="42.79301699999992" lon="-1.683802000000002">
        <ele>435.684</ele>
        <time>2022-08-25T07:36:07Z</time>
      </trkpt>
      <trkpt lat="42.79301699999992" lon="-1.683836000000002">
        <ele>435.661</ele>
        <time>2022-08-25T07:36:08Z</time>
      </trkpt>
      <trkpt lat="42.79301599999992" lon="-1.683869000000002">
        <ele>435.644</ele>
        <time>2022-08-25T07:36:09Z</time>
      </trkpt>
      <trkpt lat="42.793014999999926" lon="-1.683905000000002">
        <ele>435.640</ele>
        <time>2022-08-25T07:36:10Z</time>
      </trkpt>
      <trkpt lat="42.793011999999926" lon="-1.683939000000002">
        <ele>435.861</ele>
        <time>2022-08-25T07:36:11Z</time>
      </trkpt>
      <trkpt lat="42.793009999999924" lon="-1.6839730000000022">
        <ele>436.096</ele>
        <time>2022-08-25T07:36:12Z</time>
      </trkpt>
      <trkpt lat="42.793006999999925" lon="-1.6840070000000023">
        <ele>436.031</ele>
        <time>2022-08-25T07:36:13Z</time>
      </trkpt>
      <trkpt lat="42.79300199999992" lon="-1.6840410000000023">
        <ele>436.024</ele>
        <time>2022-08-25T07:36:14Z</time>
      </trkpt>
      <trkpt lat="42.79299499999993" lon="-1.6840750000000024">
        <ele>436.009</ele>
        <time>2022-08-25T07:36:15Z</time>
      </trkpt>
      <trkpt lat="42.79297999999993" lon="-1.6841670000000024">
        <ele>436.270</ele>
        <time>2022-08-25T07:36:18Z</time>
      </trkpt>
      <trkpt lat="42.79297399999993" lon="-1.6841990000000024">
        <ele>436.430</ele>
        <time>2022-08-25T07:36:19Z</time>
      </trkpt>
      <trkpt lat="42.79296599999993" lon="-1.6842290000000024">
        <ele>436.630</ele>
        <time>2022-08-25T07:36:20Z</time>
      </trkpt>
      <trkpt lat="42.79295399999993" lon="-1.6842880000000024">
        <ele>436.866</ele>
        <time>2022-08-25T07:36:22Z</time>
      </trkpt>
      <trkpt lat="42.792932999999934" lon="-1.6843950000000025">
        <ele>437.018</ele>
        <time>2022-08-25T07:36:26Z</time>
      </trkpt>
      <trkpt lat="42.792926999999935" lon="-1.6844220000000025">
        <ele>437.255</ele>
        <time>2022-08-25T07:36:27Z</time>
      </trkpt>
      <trkpt lat="42.79291399999993" lon="-1.6845430000000026">
        <ele>437.418</ele>
        <time>2022-08-25T07:36:31Z</time>
      </trkpt>
      <trkpt lat="42.79290399999993" lon="-1.6846110000000025">
        <ele>437.844</ele>
        <time>2022-08-25T07:36:33Z</time>
      </trkpt>
      <trkpt lat="42.79288999999993" lon="-1.6846770000000024">
        <ele>438.275</ele>
        <time>2022-08-25T07:36:35Z</time>
      </trkpt>
      <trkpt lat="42.79288299999993" lon="-1.6847090000000025">
        <ele>438.277</ele>
        <time>2022-08-25T07:36:36Z</time>
      </trkpt>
      <trkpt lat="42.79287699999993" lon="-1.6847400000000023">
        <ele>438.461</ele>
        <time>2022-08-25T07:36:37Z</time>
      </trkpt>
      <trkpt lat="42.792873999999934" lon="-1.6847710000000022">
        <ele>438.627</ele>
        <time>2022-08-25T07:36:38Z</time>
      </trkpt>
      <trkpt lat="42.79286999999994" lon="-1.6847990000000022">
        <ele>438.809</ele>
        <time>2022-08-25T07:36:39Z</time>
      </trkpt>
      <trkpt lat="42.79286899999994" lon="-1.6848250000000022">
        <ele>438.828</ele>
        <time>2022-08-25T07:36:40Z</time>
      </trkpt>
      <trkpt lat="42.79286399999994" lon="-1.6848500000000022">
        <ele>439.088</ele>
        <time>2022-08-25T07:36:41Z</time>
      </trkpt>
      <trkpt lat="42.79285299999994" lon="-1.6848750000000021">
        <ele>439.268</ele>
        <time>2022-08-25T07:36:42Z</time>
      </trkpt>
      <trkpt lat="42.792841999999936" lon="-1.684900000000002">
        <ele>439.264</ele>
        <time>2022-08-25T07:36:43Z</time>
      </trkpt>
      <trkpt lat="42.792825999999934" lon="-1.684916000000002">
        <ele>439.476</ele>
        <time>2022-08-25T07:36:44Z</time>
      </trkpt>
      <trkpt lat="42.79280399999993" lon="-1.6849210000000021">
        <ele>439.473</ele>
        <time>2022-08-25T07:36:45Z</time>
      </trkpt>
      <trkpt lat="42.79278399999993" lon="-1.6849260000000021">
        <ele>439.656</ele>
        <time>2022-08-25T07:36:46Z</time>
      </trkpt>
      <trkpt lat="42.792760999999935" lon="-1.684932000000002">
        <ele>439.872</ele>
        <time>2022-08-25T07:36:47Z</time>
      </trkpt>
      <trkpt lat="42.792749999999934" lon="-1.6849390000000022">
        <ele>439.853</ele>
        <time>2022-08-25T07:36:48Z</time>
      </trkpt>
      <trkpt lat="42.792740999999936" lon="-1.6849540000000023">
        <ele>439.869</ele>
        <time>2022-08-25T07:36:49Z</time>
      </trkpt>
      <trkpt lat="42.792740999999936" lon="-1.6849760000000022">
        <ele>439.804</ele>
        <time>2022-08-25T07:36:50Z</time>
      </trkpt>
      <trkpt lat="42.79274499999993" lon="-1.6850000000000023">
        <ele>440.024</ele>
        <time>2022-08-25T07:36:51Z</time>
      </trkpt>
      <trkpt lat="42.79275199999993" lon="-1.6850220000000022">
        <ele>440.009</ele>
        <time>2022-08-25T07:36:52Z</time>
      </trkpt>
      <trkpt lat="42.79276199999993" lon="-1.6850450000000023">
        <ele>440.047</ele>
        <time>2022-08-25T07:36:53Z</time>
      </trkpt>
      <trkpt lat="42.792766999999934" lon="-1.6850660000000024">
        <ele>440.287</ele>
        <time>2022-08-25T07:36:54Z</time>
      </trkpt>
      <trkpt lat="42.792763999999934" lon="-1.6850900000000024">
        <ele>440.287</ele>
        <time>2022-08-25T07:36:55Z</time>
      </trkpt>
      <trkpt lat="42.792760999999935" lon="-1.6851160000000025">
        <ele>440.423</ele>
        <time>2022-08-25T07:36:56Z</time>
      </trkpt>
      <trkpt lat="42.79275899999993" lon="-1.6851430000000025">
        <ele>440.495</ele>
        <time>2022-08-25T07:36:57Z</time>
      </trkpt>
      <trkpt lat="42.79275699999993" lon="-1.6851810000000025">
        <ele>440.622</ele>
        <time>2022-08-25T07:36:58Z</time>
      </trkpt>
      <trkpt lat="42.79275599999993" lon="-1.6852140000000024">
        <ele>440.855</ele>
        <time>2022-08-25T07:36:59Z</time>
      </trkpt>
      <trkpt lat="42.79275599999993" lon="-1.6852480000000025">
        <ele>441.061</ele>
        <time>2022-08-25T07:37:00Z</time>
      </trkpt>
      <trkpt lat="42.792754999999936" lon="-1.6852730000000025">
        <ele>441.222</ele>
        <time>2022-08-25T07:37:01Z</time>
      </trkpt>
      <trkpt lat="42.792751999999936" lon="-1.6853030000000024">
        <ele>441.273</ele>
        <time>2022-08-25T07:37:02Z</time>
      </trkpt>
      <trkpt lat="42.79274799999994" lon="-1.6853380000000024">
        <ele>441.485</ele>
        <time>2022-08-25T07:37:03Z</time>
      </trkpt>
      <trkpt lat="42.79274499999994" lon="-1.6853650000000024">
        <ele>441.613</ele>
        <time>2022-08-25T07:37:04Z</time>
      </trkpt>
      <trkpt lat="42.79274199999994" lon="-1.6853930000000024">
        <ele>441.809</ele>
        <time>2022-08-25T07:37:05Z</time>
      </trkpt>
      <trkpt lat="42.79273399999994" lon="-1.6854170000000024">
        <ele>441.828</ele>
        <time>2022-08-25T07:37:06Z</time>
      </trkpt>
      <trkpt lat="42.79273099999994" lon="-1.6854470000000024">
        <ele>442.228</ele>
        <time>2022-08-25T07:37:07Z</time>
      </trkpt>
      <trkpt lat="42.79272599999994" lon="-1.6854810000000024">
        <ele>442.488</ele>
        <time>2022-08-25T07:37:08Z</time>
      </trkpt>
      <trkpt lat="42.79272199999994" lon="-1.6855090000000024">
        <ele>442.444</ele>
        <time>2022-08-25T07:37:09Z</time>
      </trkpt>
      <trkpt lat="42.79271599999994" lon="-1.6855380000000024">
        <ele>442.666</ele>
        <time>2022-08-25T07:37:10Z</time>
      </trkpt>
      <trkpt lat="42.792711999999945" lon="-1.6855680000000024">
        <ele>442.653</ele>
        <time>2022-08-25T07:37:11Z</time>
      </trkpt>
      <trkpt lat="42.792711999999945" lon="-1.6855910000000025">
        <ele>442.886</ele>
        <time>2022-08-25T07:37:12Z</time>
      </trkpt>
      <trkpt lat="42.79270699999994" lon="-1.6856200000000026">
        <ele>443.082</ele>
        <time>2022-08-25T07:37:13Z</time>
      </trkpt>
      <trkpt lat="42.79270499999994" lon="-1.6856520000000026">
        <ele>443.263</ele>
        <time>2022-08-25T07:37:14Z</time>
      </trkpt>
      <trkpt lat="42.792703999999944" lon="-1.6856780000000027">
        <ele>443.499</ele>
        <time>2022-08-25T07:37:15Z</time>
      </trkpt>
      <trkpt lat="42.79269899999994" lon="-1.6857000000000026">
        <ele>443.407</ele>
        <time>2022-08-25T07:37:16Z</time>
      </trkpt>
      <trkpt lat="42.792694999999945" lon="-1.6857170000000026">
        <ele>443.627</ele>
        <time>2022-08-25T07:37:17Z</time>
      </trkpt>
      <trkpt lat="42.79268999999994" lon="-1.6857430000000027">
        <ele>443.609</ele>
        <time>2022-08-25T07:37:18Z</time>
      </trkpt>
      <trkpt lat="42.792683999999944" lon="-1.6857780000000027">
        <ele>443.880</ele>
        <time>2022-08-25T07:37:19Z</time>
      </trkpt>
      <trkpt lat="42.79268199999994" lon="-1.6858070000000027">
        <ele>444.090</ele>
        <time>2022-08-25T07:37:20Z</time>
      </trkpt>
      <trkpt lat="42.792680999999945" lon="-1.6858400000000027">
        <ele>444.230</ele>
        <time>2022-08-25T07:37:21Z</time>
      </trkpt>
      <trkpt lat="42.79268299999995" lon="-1.6858690000000027">
        <ele>444.246</ele>
        <time>2022-08-25T07:37:22Z</time>
      </trkpt>
      <trkpt lat="42.792680999999945" lon="-1.6858880000000027">
        <ele>444.228</ele>
        <time>2022-08-25T07:37:23Z</time>
      </trkpt>
      <trkpt lat="42.792669999999944" lon="-1.6859170000000028">
        <ele>444.655</ele>
        <time>2022-08-25T07:37:24Z</time>
      </trkpt>
      <trkpt lat="42.792669999999944" lon="-1.6859440000000028">
        <ele>444.698</ele>
        <time>2022-08-25T07:37:25Z</time>
      </trkpt>
      <trkpt lat="42.79267099999994" lon="-1.6859700000000029">
        <ele>444.624</ele>
        <time>2022-08-25T07:37:26Z</time>
      </trkpt>
      <trkpt lat="42.79267699999994" lon="-1.685991000000003">
        <ele>444.885</ele>
        <time>2022-08-25T07:37:27Z</time>
      </trkpt>
      <trkpt lat="42.79268099999994" lon="-1.6860190000000028">
        <ele>444.815</ele>
        <time>2022-08-25T07:37:28Z</time>
      </trkpt>
      <trkpt lat="42.79267999999994" lon="-1.6860470000000027">
        <ele>445.065</ele>
        <time>2022-08-25T07:37:29Z</time>
      </trkpt>
      <trkpt lat="42.79267799999994" lon="-1.6860770000000027">
        <ele>445.011</ele>
        <time>2022-08-25T07:37:30Z</time>
      </trkpt>
      <trkpt lat="42.79267399999994" lon="-1.6861020000000027">
        <ele>445.209</ele>
        <time>2022-08-25T07:37:31Z</time>
      </trkpt>
      <trkpt lat="42.79266599999994" lon="-1.6861310000000027">
        <ele>445.482</ele>
        <time>2022-08-25T07:37:32Z</time>
      </trkpt>
      <trkpt lat="42.79265699999994" lon="-1.6861660000000027">
        <ele>445.692</ele>
        <time>2022-08-25T07:37:33Z</time>
      </trkpt>
      <trkpt lat="42.79264899999994" lon="-1.6861930000000027">
        <ele>445.842</ele>
        <time>2022-08-25T07:37:34Z</time>
      </trkpt>
      <trkpt lat="42.79263799999994" lon="-1.6862210000000026">
        <ele>445.868</ele>
        <time>2022-08-25T07:37:35Z</time>
      </trkpt>
      <trkpt lat="42.79263199999994" lon="-1.6862440000000027">
        <ele>446.080</ele>
        <time>2022-08-25T07:37:36Z</time>
      </trkpt>
      <trkpt lat="42.79262299999994" lon="-1.6862720000000027">
        <ele>446.217</ele>
        <time>2022-08-25T07:37:37Z</time>
      </trkpt>
      <trkpt lat="42.79261699999994" lon="-1.6863080000000026">
        <ele>446.420</ele>
        <time>2022-08-25T07:37:38Z</time>
      </trkpt>
      <trkpt lat="42.792610999999944" lon="-1.6863390000000025">
        <ele>446.476</ele>
        <time>2022-08-25T07:37:39Z</time>
      </trkpt>
      <trkpt lat="42.792590999999945" lon="-1.6863720000000024">
        <ele>446.637</ele>
        <time>2022-08-25T07:37:40Z</time>
      </trkpt>
      <trkpt lat="42.792587999999945" lon="-1.6863970000000024">
        <ele>446.653</ele>
        <time>2022-08-25T07:37:41Z</time>
      </trkpt>
      <trkpt lat="42.79258599999994" lon="-1.6864330000000023">
        <ele>446.804</ele>
        <time>2022-08-25T07:37:42Z</time>
      </trkpt>
      <trkpt lat="42.79258399999994" lon="-1.6864630000000023">
        <ele>447.014</ele>
        <time>2022-08-25T07:37:43Z</time>
      </trkpt>
      <trkpt lat="42.792579999999944" lon="-1.6864910000000022">
        <ele>447.209</ele>
        <time>2022-08-25T07:37:44Z</time>
      </trkpt>
      <trkpt lat="42.79257499999994" lon="-1.686519000000002">
        <ele>447.456</ele>
        <time>2022-08-25T07:37:45Z</time>
      </trkpt>
      <trkpt lat="42.792567999999946" lon="-1.686546000000002">
        <ele>447.476</ele>
        <time>2022-08-25T07:37:46Z</time>
      </trkpt>
      <trkpt lat="42.79256199999995" lon="-1.6865830000000022">
        <ele>447.676</ele>
        <time>2022-08-25T07:37:47Z</time>
      </trkpt>
      <trkpt lat="42.79255599999995" lon="-1.6866090000000022">
        <ele>447.642</ele>
        <time>2022-08-25T07:37:48Z</time>
      </trkpt>
      <trkpt lat="42.79254699999995" lon="-1.6866390000000022">
        <ele>447.874</ele>
        <time>2022-08-25T07:37:49Z</time>
      </trkpt>
      <trkpt lat="42.79253799999995" lon="-1.6866700000000021">
        <ele>447.841</ele>
        <time>2022-08-25T07:37:50Z</time>
      </trkpt>
      <trkpt lat="42.79253299999995" lon="-1.6866940000000021">
        <ele>448.084</ele>
        <time>2022-08-25T07:37:51Z</time>
      </trkpt>
      <trkpt lat="42.792522999999946" lon="-1.6867320000000021">
        <ele>448.260</ele>
        <time>2022-08-25T07:37:52Z</time>
      </trkpt>
      <trkpt lat="42.79251399999995" lon="-1.686762000000002">
        <ele>448.211</ele>
        <time>2022-08-25T07:37:53Z</time>
      </trkpt>
      <trkpt lat="42.792505999999946" lon="-1.686790000000002">
        <ele>448.465</ele>
        <time>2022-08-25T07:37:54Z</time>
      </trkpt>
      <trkpt lat="42.79249899999995" lon="-1.6868130000000021">
        <ele>448.468</ele>
        <time>2022-08-25T07:37:55Z</time>
      </trkpt>
      <trkpt lat="42.79249099999995" lon="-1.6868400000000021">
        <ele>448.614</ele>
        <time>2022-08-25T07:37:56Z</time>
      </trkpt>
      <trkpt lat="42.79248399999995" lon="-1.6868770000000022">
        <ele>448.609</ele>
        <time>2022-08-25T07:37:57Z</time>
      </trkpt>
      <trkpt lat="42.792479999999955" lon="-1.6869060000000022">
        <ele>448.897</ele>
        <time>2022-08-25T07:37:58Z</time>
      </trkpt>
      <trkpt lat="42.79247599999996" lon="-1.6869330000000022">
        <ele>449.057</ele>
        <time>2022-08-25T07:37:59Z</time>
      </trkpt>
      <trkpt lat="42.79247199999996" lon="-1.6869540000000023">
        <ele>449.047</ele>
        <time>2022-08-25T07:38:00Z</time>
      </trkpt>
      <trkpt lat="42.792464999999964" lon="-1.6869840000000023">
        <ele>449.043</ele>
        <time>2022-08-25T07:38:01Z</time>
      </trkpt>
      <trkpt lat="42.79245499999996" lon="-1.6870170000000022">
        <ele>449.295</ele>
        <time>2022-08-25T07:38:02Z</time>
      </trkpt>
      <trkpt lat="42.79244599999996" lon="-1.6870450000000021">
        <ele>449.252</ele>
        <time>2022-08-25T07:38:03Z</time>
      </trkpt>
      <trkpt lat="42.79243799999996" lon="-1.6870690000000022">
        <ele>449.445</ele>
        <time>2022-08-25T07:38:04Z</time>
      </trkpt>
      <trkpt lat="42.79242999999996" lon="-1.6870980000000022">
        <ele>449.451</ele>
        <time>2022-08-25T07:38:05Z</time>
      </trkpt>
      <trkpt lat="42.79241599999996" lon="-1.6871350000000023">
        <ele>449.622</ele>
        <time>2022-08-25T07:38:06Z</time>
      </trkpt>
      <trkpt lat="42.79240499999996" lon="-1.6871660000000022">
        <ele>449.698</ele>
        <time>2022-08-25T07:38:07Z</time>
      </trkpt>
      <trkpt lat="42.79238999999996" lon="-1.6871990000000021">
        <ele>449.815</ele>
        <time>2022-08-25T07:38:08Z</time>
      </trkpt>
      <trkpt lat="42.79237999999996" lon="-1.6872220000000022">
        <ele>449.826</ele>
        <time>2022-08-25T07:38:09Z</time>
      </trkpt>
      <trkpt lat="42.79236899999996" lon="-1.6872520000000022">
        <ele>450.009</ele>
        <time>2022-08-25T07:38:10Z</time>
      </trkpt>
      <trkpt lat="42.79235799999996" lon="-1.6872860000000023">
        <ele>450.260</ele>
        <time>2022-08-25T07:38:11Z</time>
      </trkpt>
      <trkpt lat="42.79234599999996" lon="-1.6873150000000023">
        <ele>450.250</ele>
        <time>2022-08-25T07:38:12Z</time>
      </trkpt>
      <trkpt lat="42.79233799999996" lon="-1.6873420000000023">
        <ele>450.440</ele>
        <time>2022-08-25T07:38:13Z</time>
      </trkpt>
      <trkpt lat="42.79233099999996" lon="-1.6873700000000023">
        <ele>450.456</ele>
        <time>2022-08-25T07:38:14Z</time>
      </trkpt>
      <trkpt lat="42.79232499999996" lon="-1.6873940000000023">
        <ele>450.468</ele>
        <time>2022-08-25T07:38:15Z</time>
      </trkpt>
      <trkpt lat="42.79231499999996" lon="-1.6874280000000024">
        <ele>450.475</ele>
        <time>2022-08-25T07:38:16Z</time>
      </trkpt>
      <trkpt lat="42.79230199999996" lon="-1.6874560000000023">
        <ele>450.668</ele>
        <time>2022-08-25T07:38:17Z</time>
      </trkpt>
      <trkpt lat="42.792293999999956" lon="-1.6874840000000022">
        <ele>450.894</ele>
        <time>2022-08-25T07:38:18Z</time>
      </trkpt>
      <trkpt lat="42.79228699999996" lon="-1.6875070000000023">
        <ele>450.855</ele>
        <time>2022-08-25T07:38:19Z</time>
      </trkpt>
      <trkpt lat="42.79227599999996" lon="-1.6875410000000024">
        <ele>451.075</ele>
        <time>2022-08-25T07:38:20Z</time>
      </trkpt>
      <trkpt lat="42.79226499999996" lon="-1.6875670000000025">
        <ele>451.028</ele>
        <time>2022-08-25T07:38:21Z</time>
      </trkpt>
      <trkpt lat="42.79225699999996" lon="-1.6875940000000025">
        <ele>451.220</ele>
        <time>2022-08-25T07:38:22Z</time>
      </trkpt>
      <trkpt lat="42.79224999999996" lon="-1.6876160000000024">
        <ele>451.209</ele>
        <time>2022-08-25T07:38:23Z</time>
      </trkpt>
      <trkpt lat="42.79224199999996" lon="-1.6876460000000024">
        <ele>451.488</ele>
        <time>2022-08-25T07:38:24Z</time>
      </trkpt>
      <trkpt lat="42.79223299999996" lon="-1.6876830000000025">
        <ele>451.498</ele>
        <time>2022-08-25T07:38:25Z</time>
      </trkpt>
      <trkpt lat="42.79222099999996" lon="-1.6877140000000024">
        <ele>451.438</ele>
        <time>2022-08-25T07:38:26Z</time>
      </trkpt>
      <trkpt lat="42.792211999999964" lon="-1.6877440000000024">
        <ele>451.624</ele>
        <time>2022-08-25T07:38:27Z</time>
      </trkpt>
      <trkpt lat="42.79220499999997" lon="-1.6877710000000024">
        <ele>451.636</ele>
        <time>2022-08-25T07:38:28Z</time>
      </trkpt>
      <trkpt lat="42.792199999999966" lon="-1.6877930000000023">
        <ele>451.853</ele>
        <time>2022-08-25T07:38:29Z</time>
      </trkpt>
      <trkpt lat="42.79219399999997" lon="-1.6878210000000022">
        <ele>452.056</ele>
        <time>2022-08-25T07:38:30Z</time>
      </trkpt>
      <trkpt lat="42.792185999999965" lon="-1.6878530000000023">
        <ele>452.252</ele>
        <time>2022-08-25T07:38:31Z</time>
      </trkpt>
      <trkpt lat="42.79218199999997" lon="-1.6878780000000022">
        <ele>452.233</ele>
        <time>2022-08-25T07:38:32Z</time>
      </trkpt>
      <trkpt lat="42.79218099999997" lon="-1.6879050000000022">
        <ele>452.215</ele>
        <time>2022-08-25T07:38:33Z</time>
      </trkpt>
      <trkpt lat="42.79217799999997" lon="-1.6879280000000023">
        <ele>452.465</ele>
        <time>2022-08-25T07:38:34Z</time>
      </trkpt>
      <trkpt lat="42.79217199999997" lon="-1.6879450000000022">
        <ele>452.411</ele>
        <time>2022-08-25T07:38:35Z</time>
      </trkpt>
      <trkpt lat="42.79216699999997" lon="-1.6879550000000023">
        <ele>452.609</ele>
        <time>2022-08-25T07:38:36Z</time>
      </trkpt>
      <trkpt lat="42.79215399999997" lon="-1.6879670000000022">
        <ele>452.692</ele>
        <time>2022-08-25T07:38:37Z</time>
      </trkpt>
      <trkpt lat="42.79214199999997" lon="-1.6879760000000021">
        <ele>452.662</ele>
        <time>2022-08-25T07:38:38Z</time>
      </trkpt>
      <trkpt lat="42.79212499999997" lon="-1.687998000000002">
        <ele>452.652</ele>
        <time>2022-08-25T07:38:39Z</time>
      </trkpt>
      <trkpt lat="42.79211399999997" lon="-1.688023000000002">
        <ele>452.648</ele>
        <time>2022-08-25T07:38:40Z</time>
      </trkpt>
      <trkpt lat="42.79211199999997" lon="-1.6880570000000021">
        <ele>452.650</ele>
        <time>2022-08-25T07:38:41Z</time>
      </trkpt>
      <trkpt lat="42.79210499999997" lon="-1.6880870000000021">
        <ele>452.847</ele>
        <time>2022-08-25T07:38:42Z</time>
      </trkpt>
      <trkpt lat="42.79210299999997" lon="-1.6881100000000022">
        <ele>452.890</ele>
        <time>2022-08-25T07:38:43Z</time>
      </trkpt>
      <trkpt lat="42.79208799999997" lon="-1.6881550000000023">
        <ele>452.836</ele>
        <time>2022-08-25T07:38:44Z</time>
      </trkpt>
      <trkpt lat="42.79203999999997" lon="-1.6882480000000022">
        <ele>453.067</ele>
        <time>2022-08-25T07:38:47Z</time>
      </trkpt>
      <trkpt lat="42.79202899999997" lon="-1.6882720000000022">
        <ele>453.022</ele>
        <time>2022-08-25T07:38:48Z</time>
      </trkpt>
      <trkpt lat="42.79198699999997" lon="-1.6883740000000023">
        <ele>453.262</ele>
        <time>2022-08-25T07:38:51Z</time>
      </trkpt>
      <trkpt lat="42.791951999999974" lon="-1.6884560000000022">
        <ele>453.408</ele>
        <time>2022-08-25T07:38:54Z</time>
      </trkpt>
      <trkpt lat="42.79193599999997" lon="-1.6885080000000021">
        <ele>453.609</ele>
        <time>2022-08-25T07:38:56Z</time>
      </trkpt>
      <trkpt lat="42.791931999999974" lon="-1.6885260000000022">
        <ele>453.823</ele>
        <time>2022-08-25T07:38:57Z</time>
      </trkpt>
      <trkpt lat="42.791925999999975" lon="-1.6885510000000021">
        <ele>453.823</ele>
        <time>2022-08-25T07:38:58Z</time>
      </trkpt>
      <trkpt lat="42.79191299999997" lon="-1.6885830000000022">
        <ele>454.053</ele>
        <time>2022-08-25T07:38:59Z</time>
      </trkpt>
      <trkpt lat="42.791889999999974" lon="-1.6886420000000022">
        <ele>454.019</ele>
        <time>2022-08-25T07:39:01Z</time>
      </trkpt>
      <trkpt lat="42.79187099999997" lon="-1.6886940000000021">
        <ele>454.231</ele>
        <time>2022-08-25T07:39:03Z</time>
      </trkpt>
      <trkpt lat="42.791858999999974" lon="-1.688730000000002">
        <ele>454.428</ele>
        <time>2022-08-25T07:39:04Z</time>
      </trkpt>
      <trkpt lat="42.791846999999976" lon="-1.688760000000002">
        <ele>454.421</ele>
        <time>2022-08-25T07:39:05Z</time>
      </trkpt>
      <trkpt lat="42.79178099999998" lon="-1.6889180000000021">
        <ele>454.447</ele>
        <time>2022-08-25T07:39:10Z</time>
      </trkpt>
      <trkpt lat="42.79177299999998" lon="-1.688940000000002">
        <ele>454.658</ele>
        <time>2022-08-25T07:39:11Z</time>
      </trkpt>
      <trkpt lat="42.79176499999998" lon="-1.6889660000000022">
        <ele>454.676</ele>
        <time>2022-08-25T07:39:12Z</time>
      </trkpt>
      <trkpt lat="42.79175599999998" lon="-1.6889960000000022">
        <ele>454.890</ele>
        <time>2022-08-25T07:39:13Z</time>
      </trkpt>
      <trkpt lat="42.79169899999998" lon="-1.6890640000000021">
        <ele>455.019</ele>
        <time>2022-08-25T07:39:16Z</time>
      </trkpt>
      <trkpt lat="42.79168199999998" lon="-1.6890790000000022">
        <ele>455.009</ele>
        <time>2022-08-25T07:39:17Z</time>
      </trkpt>
      <trkpt lat="42.79165799999998" lon="-1.6891000000000023">
        <ele>455.018</ele>
        <time>2022-08-25T07:39:18Z</time>
      </trkpt>
      <trkpt lat="42.791644999999974" lon="-1.6891200000000022">
        <ele>455.048</ele>
        <time>2022-08-25T07:39:19Z</time>
      </trkpt>
      <trkpt lat="42.79163699999997" lon="-1.6891430000000023">
        <ele>454.878</ele>
        <time>2022-08-25T07:39:20Z</time>
      </trkpt>
      <trkpt lat="42.79162899999997" lon="-1.6891720000000023">
        <ele>454.854</ele>
        <time>2022-08-25T07:39:21Z</time>
      </trkpt>
      <trkpt lat="42.79162099999997" lon="-1.6892100000000023">
        <ele>454.896</ele>
        <time>2022-08-25T07:39:22Z</time>
      </trkpt>
      <trkpt lat="42.791613999999974" lon="-1.6892440000000024">
        <ele>454.853</ele>
        <time>2022-08-25T07:39:23Z</time>
      </trkpt>
      <trkpt lat="42.79154999999997" lon="-1.6894130000000025">
        <ele>454.856</ele>
        <time>2022-08-25T07:39:28Z</time>
      </trkpt>
      <trkpt lat="42.79150799999997" lon="-1.6895040000000026">
        <ele>454.822</ele>
        <time>2022-08-25T07:39:31Z</time>
      </trkpt>
      <trkpt lat="42.79148799999997" lon="-1.6895410000000026">
        <ele>454.863</ele>
        <time>2022-08-25T07:39:32Z</time>
      </trkpt>
      <trkpt lat="42.79147199999997" lon="-1.6895700000000027">
        <ele>454.827</ele>
        <time>2022-08-25T07:39:33Z</time>
      </trkpt>
      <trkpt lat="42.79143499999997" lon="-1.6896200000000028">
        <ele>454.868</ele>
        <time>2022-08-25T07:39:35Z</time>
      </trkpt>
      <trkpt lat="42.791402999999974" lon="-1.6896950000000028">
        <ele>454.614</ele>
        <time>2022-08-25T07:39:37Z</time>
      </trkpt>
      <trkpt lat="42.791390999999976" lon="-1.6897250000000028">
        <ele>454.609</ele>
        <time>2022-08-25T07:39:38Z</time>
      </trkpt>
      <trkpt lat="42.791379999999975" lon="-1.689748000000003">
        <ele>454.683</ele>
        <time>2022-08-25T07:39:39Z</time>
      </trkpt>
      <trkpt lat="42.79137099999998" lon="-1.6897810000000029">
        <ele>454.613</ele>
        <time>2022-08-25T07:39:40Z</time>
      </trkpt>
      <trkpt lat="42.791354999999974" lon="-1.6898200000000028">
        <ele>454.633</ele>
        <time>2022-08-25T07:39:41Z</time>
      </trkpt>
      <trkpt lat="42.79133999999998" lon="-1.6898530000000027">
        <ele>454.639</ele>
        <time>2022-08-25T07:39:42Z</time>
      </trkpt>
      <trkpt lat="42.79132799999998" lon="-1.6898840000000026">
        <ele>454.691</ele>
        <time>2022-08-25T07:39:43Z</time>
      </trkpt>
      <trkpt lat="42.79125699999998" lon="-1.6899920000000026">
        <ele>455.088</ele>
        <time>2022-08-25T07:39:47Z</time>
      </trkpt>
      <trkpt lat="42.79123899999998" lon="-1.6900240000000026">
        <ele>455.041</ele>
        <time>2022-08-25T07:39:48Z</time>
      </trkpt>
      <trkpt lat="42.79117199999998" lon="-1.6901300000000026">
        <ele>455.277</ele>
        <time>2022-08-25T07:39:51Z</time>
      </trkpt>
      <trkpt lat="42.79115199999998" lon="-1.6901600000000025">
        <ele>455.218</ele>
        <time>2022-08-25T07:39:52Z</time>
      </trkpt>
      <trkpt lat="42.79113299999998" lon="-1.6901890000000026">
        <ele>455.445</ele>
        <time>2022-08-25T07:39:53Z</time>
      </trkpt>
      <trkpt lat="42.79111999999998" lon="-1.6902130000000026">
        <ele>455.447</ele>
        <time>2022-08-25T07:39:54Z</time>
      </trkpt>
      <trkpt lat="42.791106999999975" lon="-1.6902440000000025">
        <ele>455.611</ele>
        <time>2022-08-25T07:39:55Z</time>
      </trkpt>
      <trkpt lat="42.791092999999975" lon="-1.6902830000000024">
        <ele>455.609</ele>
        <time>2022-08-25T07:39:56Z</time>
      </trkpt>
      <trkpt lat="42.79108399999998" lon="-1.6903130000000024">
        <ele>455.665</ele>
        <time>2022-08-25T07:39:57Z</time>
      </trkpt>
      <trkpt lat="42.791078999999975" lon="-1.6903350000000024">
        <ele>455.645</ele>
        <time>2022-08-25T07:39:58Z</time>
      </trkpt>
      <trkpt lat="42.791070999999974" lon="-1.6903610000000024">
        <ele>455.825</ele>
        <time>2022-08-25T07:39:59Z</time>
      </trkpt>
      <trkpt lat="42.79105799999997" lon="-1.6903850000000025">
        <ele>455.821</ele>
        <time>2022-08-25T07:40:00Z</time>
      </trkpt>
      <trkpt lat="42.79104499999997" lon="-1.6904030000000025">
        <ele>455.863</ele>
        <time>2022-08-25T07:40:01Z</time>
      </trkpt>
      <trkpt lat="42.79103699999997" lon="-1.6904230000000025">
        <ele>455.840</ele>
        <time>2022-08-25T07:40:02Z</time>
      </trkpt>
      <trkpt lat="42.791034999999965" lon="-1.6904390000000025">
        <ele>455.863</ele>
        <time>2022-08-25T07:40:03Z</time>
      </trkpt>
      <trkpt lat="42.791028999999966" lon="-1.6904520000000025">
        <ele>455.879</ele>
        <time>2022-08-25T07:40:04Z</time>
      </trkpt>
      <trkpt lat="42.791017999999966" lon="-1.6904690000000024">
        <ele>455.890</ele>
        <time>2022-08-25T07:40:05Z</time>
      </trkpt>
      <trkpt lat="42.791003999999965" lon="-1.6904720000000024">
        <ele>455.885</ele>
        <time>2022-08-25T07:40:06Z</time>
      </trkpt>
      <trkpt lat="42.79098599999997" lon="-1.6904590000000024">
        <ele>455.889</ele>
        <time>2022-08-25T07:40:07Z</time>
      </trkpt>
      <trkpt lat="42.79096399999997" lon="-1.6904270000000023">
        <ele>456.017</ele>
        <time>2022-08-25T07:40:09Z</time>
      </trkpt>
      <trkpt lat="42.79094899999997" lon="-1.6903780000000024">
        <ele>456.009</ele>
        <time>2022-08-25T07:40:11Z</time>
      </trkpt>
      <trkpt lat="42.79094399999997" lon="-1.6903610000000024">
        <ele>456.289</ele>
        <time>2022-08-25T07:40:12Z</time>
      </trkpt>
      <trkpt lat="42.79092299999997" lon="-1.6903170000000025">
        <ele>456.449</ele>
        <time>2022-08-25T07:40:14Z</time>
      </trkpt>
      <trkpt lat="42.79091099999997" lon="-1.6902970000000026">
        <ele>456.479</ele>
        <time>2022-08-25T07:40:15Z</time>
      </trkpt>
      <trkpt lat="42.79083299999997" lon="-1.6902110000000026">
        <ele>457.235</ele>
        <time>2022-08-25T07:40:19Z</time>
      </trkpt>
      <trkpt lat="42.790780999999974" lon="-1.6901590000000026">
        <ele>457.247</ele>
        <time>2022-08-25T07:40:21Z</time>
      </trkpt>
      <trkpt lat="42.79059399999998" lon="-1.6899570000000026">
        <ele>457.244</ele>
        <time>2022-08-25T07:40:26Z</time>
      </trkpt>
      <trkpt lat="42.79050699999998" lon="-1.6898610000000025">
        <ele>456.877</ele>
        <time>2022-08-25T07:40:28Z</time>
      </trkpt>
      <trkpt lat="42.79046699999998" lon="-1.6898190000000024">
        <ele>456.663</ele>
        <time>2022-08-25T07:40:29Z</time>
      </trkpt>
      <trkpt lat="42.79043599999998" lon="-1.6897790000000024">
        <ele>456.494</ele>
        <time>2022-08-25T07:40:30Z</time>
      </trkpt>
      <trkpt lat="42.79040999999998" lon="-1.6897480000000025">
        <ele>456.266</ele>
        <time>2022-08-25T07:40:31Z</time>
      </trkpt>
      <trkpt lat="42.79038499999998" lon="-1.6897210000000025">
        <ele>455.829</ele>
        <time>2022-08-25T07:40:32Z</time>
      </trkpt>
      <trkpt lat="42.79036499999998" lon="-1.6896980000000024">
        <ele>455.421</ele>
        <time>2022-08-25T07:40:33Z</time>
      </trkpt>
      <trkpt lat="42.79034899999998" lon="-1.6896780000000025">
        <ele>455.409</ele>
        <time>2022-08-25T07:40:34Z</time>
      </trkpt>
      <trkpt lat="42.79032899999998" lon="-1.6896550000000023">
        <ele>455.037</ele>
        <time>2022-08-25T07:40:35Z</time>
      </trkpt>
      <trkpt lat="42.79029999999998" lon="-1.6896130000000023">
        <ele>454.857</ele>
        <time>2022-08-25T07:40:37Z</time>
      </trkpt>
      <trkpt lat="42.79028599999998" lon="-1.6895950000000022">
        <ele>454.857</ele>
        <time>2022-08-25T07:40:38Z</time>
      </trkpt>
      <trkpt lat="42.79026599999998" lon="-1.6895820000000021">
        <ele>454.683</ele>
        <time>2022-08-25T07:40:39Z</time>
      </trkpt>
      <trkpt lat="42.79024999999998" lon="-1.6895780000000022">
        <ele>454.485</ele>
        <time>2022-08-25T07:40:40Z</time>
      </trkpt>
      <trkpt lat="42.79023499999998" lon="-1.6895820000000021">
        <ele>454.462</ele>
        <time>2022-08-25T07:40:41Z</time>
      </trkpt>
      <trkpt lat="42.79018099999998" lon="-1.689596000000002">
        <ele>454.285</ele>
        <time>2022-08-25T07:40:43Z</time>
      </trkpt>
      <trkpt lat="42.790151999999985" lon="-1.689599000000002">
        <ele>453.871</ele>
        <time>2022-08-25T07:40:44Z</time>
      </trkpt>
      <trkpt lat="42.79008599999999" lon="-1.689605000000002">
        <ele>453.222</ele>
        <time>2022-08-25T07:40:47Z</time>
      </trkpt>
      <trkpt lat="42.79002999999999" lon="-1.689613000000002">
        <ele>452.823</ele>
        <time>2022-08-25T07:40:49Z</time>
      </trkpt>
      <trkpt lat="42.79001499999999" lon="-1.689621000000002">
        <ele>452.883</ele>
        <time>2022-08-25T07:40:50Z</time>
      </trkpt>
      <trkpt lat="42.79000399999999" lon="-1.689632000000002">
        <ele>452.411</ele>
        <time>2022-08-25T07:40:51Z</time>
      </trkpt>
      <trkpt lat="42.78999499999999" lon="-1.689644000000002">
        <ele>452.209</ele>
        <time>2022-08-25T07:40:52Z</time>
      </trkpt>
      <trkpt lat="42.78998299999999" lon="-1.689657000000002">
        <ele>452.033</ele>
        <time>2022-08-25T07:40:53Z</time>
      </trkpt>
      <trkpt lat="42.789970999999994" lon="-1.689672000000002">
        <ele>451.833</ele>
        <time>2022-08-25T07:40:54Z</time>
      </trkpt>
      <trkpt lat="42.789958999999996" lon="-1.689684000000002">
        <ele>451.853</ele>
        <time>2022-08-25T07:40:55Z</time>
      </trkpt>
      <trkpt lat="42.789933999999995" lon="-1.689714000000002">
        <ele>451.459</ele>
        <time>2022-08-25T07:40:57Z</time>
      </trkpt>
      <trkpt lat="42.789928999999994" lon="-1.689727000000002">
        <ele>451.421</ele>
        <time>2022-08-25T07:40:58Z</time>
      </trkpt>
      <trkpt lat="42.78992699999999" lon="-1.689763000000002">
        <ele>450.818</ele>
        <time>2022-08-25T07:41:00Z</time>
      </trkpt>
      <trkpt lat="42.78992499999999" lon="-1.6897910000000018">
        <ele>450.621</ele>
        <time>2022-08-25T07:41:01Z</time>
      </trkpt>
      <trkpt lat="42.78992599999999" lon="-1.6898280000000019">
        <ele>450.457</ele>
        <time>2022-08-25T07:41:02Z</time>
      </trkpt>
      <trkpt lat="42.789926999999985" lon="-1.6898550000000019">
        <ele>449.828</ele>
        <time>2022-08-25T07:41:03Z</time>
      </trkpt>
      <trkpt lat="42.78991999999999" lon="-1.689870000000002">
        <ele>449.616</ele>
        <time>2022-08-25T07:41:04Z</time>
      </trkpt>
      <trkpt lat="42.78991299999999" lon="-1.689873000000002">
        <ele>449.276</ele>
        <time>2022-08-25T07:41:05Z</time>
      </trkpt>
      <trkpt lat="42.789908999999994" lon="-1.689867000000002">
        <ele>448.813</ele>
        <time>2022-08-25T07:41:06Z</time>
      </trkpt>
      <trkpt lat="42.789911" lon="-1.689854000000002">
        <ele>448.609</ele>
        <time>2022-08-25T07:41:07Z</time>
      </trkpt>
      <trkpt lat="42.789913999999996" lon="-1.689841000000002">
        <ele>448.432</ele>
        <time>2022-08-25T07:41:08Z</time>
      </trkpt>
      <trkpt lat="42.789922" lon="-1.689830000000002">
        <ele>448.482</ele>
        <time>2022-08-25T07:41:09Z</time>
      </trkpt>
      <trkpt lat="42.789927" lon="-1.689817000000002">
        <ele>448.232</ele>
        <time>2022-08-25T07:41:10Z</time>
      </trkpt>
      <trkpt lat="42.789926" lon="-1.6898020000000018">
        <ele>448.248</ele>
        <time>2022-08-25T07:41:11Z</time>
      </trkpt>
      <trkpt lat="42.78991" lon="-1.6897800000000018">
        <ele>448.290</ele>
        <time>2022-08-25T07:41:13Z</time>
      </trkpt>
      <trkpt lat="42.789829" lon="-1.6898100000000018">
        <ele>448.277</ele>
        <time>2022-08-25T07:41:17Z</time>
      </trkpt>
      <trkpt lat="42.789808" lon="-1.689798000000002">
        <ele>448.210</ele>
        <time>2022-08-25T07:41:18Z</time>
      </trkpt>
      <trkpt lat="42.789786" lon="-1.689773000000002">
        <ele>448.276</ele>
        <time>2022-08-25T07:41:19Z</time>
      </trkpt>
      <trkpt lat="42.78977" lon="-1.689732000000002">
        <ele>448.267</ele>
        <time>2022-08-25T07:41:20Z</time>
      </trkpt>
      <trkpt lat="42.789741" lon="-1.689652000000002">
        <ele>448.223</ele>
        <time>2022-08-25T07:41:22Z</time>
      </trkpt>
      <trkpt lat="42.789728" lon="-1.689619000000002">
        <ele>448.083</ele>
        <time>2022-08-25T07:41:23Z</time>
      </trkpt>
      <trkpt lat="42.789694" lon="-1.689535000000002">
        <ele>448.011</ele>
        <time>2022-08-25T07:41:25Z</time>
      </trkpt>
      <trkpt lat="42.789657999999996" lon="-1.689501000000002">
        <ele>448.009</ele>
        <time>2022-08-25T07:41:26Z</time>
      </trkpt>
      <trkpt lat="42.78961999999999" lon="-1.689479000000002">
        <ele>447.823</ele>
        <time>2022-08-25T07:41:27Z</time>
      </trkpt>
      <trkpt lat="42.789593999999994" lon="-1.689450000000002">
        <ele>447.813</ele>
        <time>2022-08-25T07:41:28Z</time>
      </trkpt>
      <trkpt lat="42.78956899999999" lon="-1.6894240000000018">
        <ele>447.843</ele>
        <time>2022-08-25T07:41:29Z</time>
      </trkpt>
      <trkpt lat="42.78949599999999" lon="-1.689331000000002">
        <ele>447.839</ele>
        <time>2022-08-25T07:41:32Z</time>
      </trkpt>
      <trkpt lat="42.789370999999996" lon="-1.6891750000000019">
        <ele>447.821</ele>
        <time>2022-08-25T07:41:36Z</time>
      </trkpt>
      <trkpt lat="42.789345999999995" lon="-1.689142000000002">
        <ele>447.858</ele>
        <time>2022-08-25T07:41:37Z</time>
      </trkpt>
      <trkpt lat="42.789269" lon="-1.6890270000000018">
        <ele>447.651</ele>
        <time>2022-08-25T07:41:40Z</time>
      </trkpt>
      <trkpt lat="42.789235" lon="-1.6889590000000019">
        <ele>447.637</ele>
        <time>2022-08-25T07:41:42Z</time>
      </trkpt>
      <trkpt lat="42.789176" lon="-1.688920000000002">
        <ele>447.468</ele>
        <time>2022-08-25T07:41:43Z</time>
      </trkpt>
      <trkpt lat="42.789114" lon="-1.6888780000000019">
        <ele>447.237</ele>
        <time>2022-08-25T07:41:44Z</time>
      </trkpt>
      <trkpt lat="42.78908" lon="-1.6888360000000018">
        <ele>447.249</ele>
        <time>2022-08-25T07:41:45Z</time>
      </trkpt>
      <trkpt lat="42.789032999999996" lon="-1.6887860000000017">
        <ele>447.013</ele>
        <time>2022-08-25T07:41:46Z</time>
      </trkpt>
      <trkpt lat="42.789012" lon="-1.6887420000000017">
        <ele>447.009</ele>
        <time>2022-08-25T07:41:47Z</time>
      </trkpt>
      <trkpt lat="42.78899" lon="-1.6886980000000018">
        <ele>446.854</ele>
        <time>2022-08-25T07:41:48Z</time>
      </trkpt>
      <trkpt lat="42.788956" lon="-1.6886530000000017">
        <ele>446.824</ele>
        <time>2022-08-25T07:41:49Z</time>
      </trkpt>
      <trkpt lat="42.788907" lon="-1.6886000000000017">
        <ele>446.424</ele>
        <time>2022-08-25T07:41:50Z</time>
      </trkpt>
      <trkpt lat="42.788876" lon="-1.6885580000000016">
        <ele>446.420</ele>
        <time>2022-08-25T07:41:51Z</time>
      </trkpt>
      <trkpt lat="42.788846" lon="-1.6885040000000016">
        <ele>446.232</ele>
        <time>2022-08-25T07:41:52Z</time>
      </trkpt>
      <trkpt lat="42.788797" lon="-1.6884470000000016">
        <ele>446.029</ele>
        <time>2022-08-25T07:41:53Z</time>
      </trkpt>
      <trkpt lat="42.788790000000006" lon="-1.6884160000000017">
        <ele>445.882</ele>
        <time>2022-08-25T07:41:54Z</time>
      </trkpt>
      <trkpt lat="42.78877800000001" lon="-1.6883660000000016">
        <ele>445.648</ele>
        <time>2022-08-25T07:41:55Z</time>
      </trkpt>
      <trkpt lat="42.78880100000001" lon="-1.6883350000000017">
        <ele>445.669</ele>
        <time>2022-08-25T07:41:56Z</time>
      </trkpt>
      <trkpt lat="42.78878100000001" lon="-1.6882970000000017">
        <ele>445.445</ele>
        <time>2022-08-25T07:41:57Z</time>
      </trkpt>
      <trkpt lat="42.78860000000001" lon="-1.6882120000000018">
        <ele>445.447</ele>
        <time>2022-08-25T07:41:59Z</time>
      </trkpt>
      <trkpt lat="42.78852500000001" lon="-1.688173000000002">
        <ele>445.211</ele>
        <time>2022-08-25T07:42:00Z</time>
      </trkpt>
      <trkpt lat="42.78843100000001" lon="-1.688108000000002">
        <ele>445.009</ele>
        <time>2022-08-25T07:42:02Z</time>
      </trkpt>
      <trkpt lat="42.78834300000001" lon="-1.687996000000002">
        <ele>444.625</ele>
        <time>2022-08-25T07:42:04Z</time>
      </trkpt>
      <trkpt lat="42.788294000000015" lon="-1.687955000000002">
        <ele>444.425</ele>
        <time>2022-08-25T07:42:05Z</time>
      </trkpt>
      <trkpt lat="42.78811800000001" lon="-1.687818000000002">
        <ele>444.075</ele>
        <time>2022-08-25T07:42:09Z</time>
      </trkpt>
      <trkpt lat="42.78809300000001" lon="-1.687774000000002">
        <ele>444.061</ele>
        <time>2022-08-25T07:42:10Z</time>
      </trkpt>
      <trkpt lat="42.78809000000001" lon="-1.687740000000002">
        <ele>443.843</ele>
        <time>2022-08-25T07:42:11Z</time>
      </trkpt>
      <trkpt lat="42.788086000000014" lon="-1.687698000000002">
        <ele>443.680</ele>
        <time>2022-08-25T07:42:12Z</time>
      </trkpt>
      <trkpt lat="42.78806100000001" lon="-1.687651000000002">
        <ele>443.633</ele>
        <time>2022-08-25T07:42:13Z</time>
      </trkpt>
      <trkpt lat="42.787998000000016" lon="-1.687615000000002">
        <ele>443.649</ele>
        <time>2022-08-25T07:42:14Z</time>
      </trkpt>
      <trkpt lat="42.787917000000014" lon="-1.6875760000000022">
        <ele>443.430</ele>
        <time>2022-08-25T07:42:15Z</time>
      </trkpt>
      <trkpt lat="42.787782000000014" lon="-1.6875090000000021">
        <ele>443.238</ele>
        <time>2022-08-25T07:42:17Z</time>
      </trkpt>
      <trkpt lat="42.787723000000014" lon="-1.687461000000002">
        <ele>443.070</ele>
        <time>2022-08-25T07:42:18Z</time>
      </trkpt>
      <trkpt lat="42.78764600000002" lon="-1.6874250000000022">
        <ele>443.017</ele>
        <time>2022-08-25T07:42:19Z</time>
      </trkpt>
      <trkpt lat="42.78759700000002" lon="-1.6874090000000022">
        <ele>442.609</ele>
        <time>2022-08-25T07:42:20Z</time>
      </trkpt>
      <trkpt lat="42.78744900000002" lon="-1.6873380000000022">
        <ele>442.494</ele>
        <time>2022-08-25T07:42:22Z</time>
      </trkpt>
      <trkpt lat="42.787343000000014" lon="-1.6872660000000022">
        <ele>442.224</ele>
        <time>2022-08-25T07:42:24Z</time>
      </trkpt>
      <trkpt lat="42.787301000000014" lon="-1.6872380000000022">
        <ele>442.074</ele>
        <time>2022-08-25T07:42:25Z</time>
      </trkpt>
      <trkpt lat="42.787086000000016" lon="-1.6871130000000023">
        <ele>441.480</ele>
        <time>2022-08-25T07:42:29Z</time>
      </trkpt>
      <trkpt lat="42.786856000000014" lon="-1.6869780000000023">
        <ele>440.882</ele>
        <time>2022-08-25T07:42:33Z</time>
      </trkpt>
      <trkpt lat="42.786797000000014" lon="-1.6869490000000023">
        <ele>440.679</ele>
        <time>2022-08-25T07:42:34Z</time>
      </trkpt>
      <trkpt lat="42.78668200000001" lon="-1.6868930000000022">
        <ele>440.412</ele>
        <time>2022-08-25T07:42:36Z</time>
      </trkpt>
      <trkpt lat="42.78653600000001" lon="-1.6868130000000021">
        <ele>440.428</ele>
        <time>2022-08-25T07:42:38Z</time>
      </trkpt>
      <trkpt lat="42.78615300000001" lon="-1.686627000000002">
        <ele>439.469</ele>
        <time>2022-08-25T07:42:45Z</time>
      </trkpt>
      <trkpt lat="42.78597600000001" lon="-1.6865430000000021">
        <ele>439.049</ele>
        <time>2022-08-25T07:42:48Z</time>
      </trkpt>
      <trkpt lat="42.785922000000014" lon="-1.686517000000002">
        <ele>439.002</ele>
        <time>2022-08-25T07:42:49Z</time>
      </trkpt>
      <trkpt lat="42.78586400000001" lon="-1.6864860000000022">
        <ele>438.622</ele>
        <time>2022-08-25T07:42:50Z</time>
      </trkpt>
      <trkpt lat="42.78581000000001" lon="-1.6864580000000022">
        <ele>438.409</ele>
        <time>2022-08-25T07:42:51Z</time>
      </trkpt>
      <trkpt lat="42.78576500000001" lon="-1.6864330000000023">
        <ele>438.445</ele>
        <time>2022-08-25T07:42:52Z</time>
      </trkpt>
      <trkpt lat="42.785722000000014" lon="-1.6864150000000022">
        <ele>438.285</ele>
        <time>2022-08-25T07:42:53Z</time>
      </trkpt>
      <trkpt lat="42.78568900000001" lon="-1.6864080000000021">
        <ele>438.265</ele>
        <time>2022-08-25T07:42:54Z</time>
      </trkpt>
      <trkpt lat="42.78564200000001" lon="-1.6864020000000022">
        <ele>437.841</ele>
        <time>2022-08-25T07:42:55Z</time>
      </trkpt>
      <trkpt lat="42.78560200000001" lon="-1.6864020000000022">
        <ele>437.843</ele>
        <time>2022-08-25T07:42:56Z</time>
      </trkpt>
      <trkpt lat="42.78551800000001" lon="-1.6864070000000022">
        <ele>437.680</ele>
        <time>2022-08-25T07:42:58Z</time>
      </trkpt>
      <trkpt lat="42.78544200000001" lon="-1.6863800000000022">
        <ele>437.433</ele>
        <time>2022-08-25T07:43:00Z</time>
      </trkpt>
      <trkpt lat="42.78540400000001" lon="-1.6863470000000023">
        <ele>437.489</ele>
        <time>2022-08-25T07:43:01Z</time>
      </trkpt>
      <trkpt lat="42.785368000000005" lon="-1.6863110000000023">
        <ele>437.230</ele>
        <time>2022-08-25T07:43:02Z</time>
      </trkpt>
      <trkpt lat="42.785334000000006" lon="-1.6862840000000023">
        <ele>437.236</ele>
        <time>2022-08-25T07:43:03Z</time>
      </trkpt>
      <trkpt lat="42.785298000000004" lon="-1.6862620000000024">
        <ele>437.017</ele>
        <time>2022-08-25T07:43:04Z</time>
      </trkpt>
      <trkpt lat="42.785265" lon="-1.6862470000000023">
        <ele>437.018</ele>
        <time>2022-08-25T07:43:05Z</time>
      </trkpt>
      <trkpt lat="42.785237" lon="-1.6862370000000022">
        <ele>436.809</ele>
        <time>2022-08-25T07:43:06Z</time>
      </trkpt>
      <trkpt lat="42.78521" lon="-1.6862390000000023">
        <ele>436.634</ele>
        <time>2022-08-25T07:43:07Z</time>
      </trkpt>
      <trkpt lat="42.785193" lon="-1.6862500000000022">
        <ele>436.674</ele>
        <time>2022-08-25T07:43:08Z</time>
      </trkpt>
      <trkpt lat="42.785182" lon="-1.6862620000000021">
        <ele>436.664</ele>
        <time>2022-08-25T07:43:09Z</time>
      </trkpt>
      <trkpt lat="42.785185" lon="-1.6862610000000022">
        <ele>436.680</ele>
        <time>2022-08-25T07:43:10Z</time>
      </trkpt>
      <trkpt lat="42.785191999999995" lon="-1.6862660000000023">
        <ele>436.682</ele>
        <time>2022-08-25T07:43:11Z</time>
      </trkpt>
      <trkpt lat="42.785199999999996" lon="-1.6862690000000022">
        <ele>436.689</ele>
        <time>2022-08-25T07:43:12Z</time>
      </trkpt>
      <trkpt lat="42.785211999999994" lon="-1.6862720000000022">
        <ele>436.642</ele>
        <time>2022-08-25T07:43:13Z</time>
      </trkpt>
      <trkpt lat="42.78522399999999" lon="-1.6862770000000022">
        <ele>436.688</ele>
        <time>2022-08-25T07:43:14Z</time>
      </trkpt>
      <trkpt lat="42.785233999999996" lon="-1.6862790000000023">
        <ele>436.659</ele>
        <time>2022-08-25T07:43:15Z</time>
      </trkpt>
      <trkpt lat="42.785284" lon="-1.6862920000000023">
        <ele>436.428</ele>
        <time>2022-08-25T07:43:18Z</time>
      </trkpt>
      <trkpt lat="42.785345" lon="-1.6863290000000024">
        <ele>436.489</ele>
        <time>2022-08-25T07:43:21Z</time>
      </trkpt>
      <trkpt lat="42.785354" lon="-1.6863420000000025">
        <ele>436.417</ele>
        <time>2022-08-25T07:43:22Z</time>
      </trkpt>
      <trkpt lat="42.785362" lon="-1.6863680000000025">
        <ele>436.409</ele>
        <time>2022-08-25T07:43:23Z</time>
      </trkpt>
      <trkpt lat="42.785374" lon="-1.6863930000000025">
        <ele>436.443</ele>
        <time>2022-08-25T07:43:24Z</time>
      </trkpt>
      <trkpt lat="42.785382" lon="-1.6864090000000025">
        <ele>436.413</ele>
        <time>2022-08-25T07:43:25Z</time>
      </trkpt>
      <trkpt lat="42.785392" lon="-1.6864280000000025">
        <ele>436.433</ele>
        <time>2022-08-25T07:43:26Z</time>
      </trkpt>
      <trkpt lat="42.785406" lon="-1.6864570000000025">
        <ele>437.039</ele>
        <time>2022-08-25T07:44:23Z</time>
      </trkpt>
      <trkpt lat="42.785409" lon="-1.6864580000000025">
        <ele>437.031</ele>
        <time>2022-08-25T07:44:24Z</time>
      </trkpt>
      <trkpt lat="42.785478000000005" lon="-1.6864920000000025">
        <ele>437.028</ele>
        <time>2022-08-25T07:44:28Z</time>
      </trkpt>
      <trkpt lat="42.78548800000001" lon="-1.6865080000000026">
        <ele>437.051</ele>
        <time>2022-08-25T07:44:29Z</time>
      </trkpt>
      <trkpt lat="42.78549300000001" lon="-1.6865260000000026">
        <ele>437.027</ele>
        <time>2022-08-25T07:44:30Z</time>
      </trkpt>
      <trkpt lat="42.78549500000001" lon="-1.6865430000000026">
        <ele>437.028</ele>
        <time>2022-08-25T07:44:31Z</time>
      </trkpt>
      <trkpt lat="42.78550000000001" lon="-1.6865530000000026">
        <ele>437.086</ele>
        <time>2022-08-25T07:44:32Z</time>
      </trkpt>
      <trkpt lat="42.785502000000015" lon="-1.6865620000000026">
        <ele>437.060</ele>
        <time>2022-08-25T07:44:33Z</time>
      </trkpt>
      <trkpt lat="42.78549800000002" lon="-1.6865690000000026">
        <ele>437.026</ele>
        <time>2022-08-25T07:44:34Z</time>
      </trkpt>
      <trkpt lat="42.78549700000002" lon="-1.6865800000000026">
        <ele>437.009</ele>
        <time>2022-08-25T07:44:35Z</time>
      </trkpt>
      <trkpt lat="42.78549600000002" lon="-1.6865900000000027">
        <ele>437.059</ele>
        <time>2022-08-25T07:44:36Z</time>
      </trkpt>
      <trkpt lat="42.785493000000024" lon="-1.6866020000000026">
        <ele>437.059</ele>
        <time>2022-08-25T07:44:37Z</time>
      </trkpt>
      <trkpt lat="42.78548800000002" lon="-1.6866110000000025">
        <ele>437.059</ele>
        <time>2022-08-25T07:44:38Z</time>
      </trkpt>
      <trkpt lat="42.785462000000024" lon="-1.6866780000000026">
        <ele>436.875</ele>
        <time>2022-08-25T07:44:43Z</time>
      </trkpt>
      <trkpt lat="42.785461000000026" lon="-1.6866840000000025">
        <ele>436.867</ele>
        <time>2022-08-25T07:44:44Z</time>
      </trkpt>
      <trkpt lat="42.785479000000024" lon="-1.6866580000000024">
        <ele>437.284</ele>
        <time>2022-08-25T07:45:48Z</time>
      </trkpt>
      <trkpt lat="42.78548600000002" lon="-1.6866300000000025">
        <ele>437.297</ele>
        <time>2022-08-25T07:45:50Z</time>
      </trkpt>
      <trkpt lat="42.78548900000002" lon="-1.6866030000000025">
        <ele>437.283</ele>
        <time>2022-08-25T07:45:51Z</time>
      </trkpt>
      <trkpt lat="42.78549500000002" lon="-1.6865190000000025">
        <ele>437.274</ele>
        <time>2022-08-25T07:45:54Z</time>
      </trkpt>
      <trkpt lat="42.78550300000002" lon="-1.6865010000000025">
        <ele>437.242</ele>
        <time>2022-08-25T07:45:55Z</time>
      </trkpt>
      <trkpt lat="42.78551300000002" lon="-1.6864890000000026">
        <ele>437.022</ele>
        <time>2022-08-25T07:45:56Z</time>
      </trkpt>
      <trkpt lat="42.785521000000024" lon="-1.6864780000000026">
        <ele>437.014</ele>
        <time>2022-08-25T07:45:57Z</time>
      </trkpt>
      <trkpt lat="42.78553100000003" lon="-1.6864710000000025">
        <ele>437.009</ele>
        <time>2022-08-25T07:45:58Z</time>
      </trkpt>
      <trkpt lat="42.78553900000003" lon="-1.6864650000000025">
        <ele>437.075</ele>
        <time>2022-08-25T07:45:59Z</time>
      </trkpt>
      <trkpt lat="42.78554500000003" lon="-1.6864540000000026">
        <ele>437.045</ele>
        <time>2022-08-25T07:46:00Z</time>
      </trkpt>
      <trkpt lat="42.785549000000024" lon="-1.6864450000000026">
        <ele>437.045</ele>
        <time>2022-08-25T07:46:01Z</time>
      </trkpt>
      <trkpt lat="42.78554700000002" lon="-1.6864410000000027">
        <ele>436.831</ele>
        <time>2022-08-25T07:47:22Z</time>
      </trkpt>
      <trkpt lat="42.78544000000002" lon="-1.6863820000000027">
        <ele>436.493</ele>
        <time>2022-08-25T07:47:28Z</time>
      </trkpt>
      <trkpt lat="42.785296000000024" lon="-1.6862630000000027">
        <ele>436.270</ele>
        <time>2022-08-25T07:47:33Z</time>
      </trkpt>
      <trkpt lat="42.78525800000002" lon="-1.6862440000000027">
        <ele>436.223</ele>
        <time>2022-08-25T07:47:34Z</time>
      </trkpt>
      <trkpt lat="42.78518600000002" lon="-1.6862060000000028">
        <ele>436.059</ele>
        <time>2022-08-25T07:47:36Z</time>
      </trkpt>
      <trkpt lat="42.785136000000016" lon="-1.6861800000000027">
        <ele>436.080</ele>
        <time>2022-08-25T07:47:37Z</time>
      </trkpt>
      <trkpt lat="42.785094000000015" lon="-1.6861620000000026">
        <ele>436.046</ele>
        <time>2022-08-25T07:47:38Z</time>
      </trkpt>
      <trkpt lat="42.784931000000014" lon="-1.6860880000000027">
        <ele>435.888</ele>
        <time>2022-08-25T07:47:42Z</time>
      </trkpt>
      <trkpt lat="42.78476000000001" lon="-1.6860200000000027">
        <ele>435.816</ele>
        <time>2022-08-25T07:47:46Z</time>
      </trkpt>
      <trkpt lat="42.78446200000001" lon="-1.6859050000000027">
        <ele>435.409</ele>
        <time>2022-08-25T07:47:53Z</time>
      </trkpt>
      <trkpt lat="42.784419000000014" lon="-1.6858910000000027">
        <ele>435.475</ele>
        <time>2022-08-25T07:47:54Z</time>
      </trkpt>
      <trkpt lat="42.784376000000016" lon="-1.6858740000000028">
        <ele>435.435</ele>
        <time>2022-08-25T07:47:55Z</time>
      </trkpt>
      <trkpt lat="42.78433600000002" lon="-1.6858590000000027">
        <ele>435.465</ele>
        <time>2022-08-25T07:47:56Z</time>
      </trkpt>
      <trkpt lat="42.784295000000014" lon="-1.6858420000000027">
        <ele>435.431</ele>
        <time>2022-08-25T07:47:57Z</time>
      </trkpt>
      <trkpt lat="42.784067000000015" lon="-1.6857530000000027">
        <ele>435.043</ele>
        <time>2022-08-25T07:48:02Z</time>
      </trkpt>
      <trkpt lat="42.783929000000015" lon="-1.6856990000000027">
        <ele>434.860</ele>
        <time>2022-08-25T07:48:05Z</time>
      </trkpt>
      <trkpt lat="42.783839000000015" lon="-1.6856680000000028">
        <ele>434.823</ele>
        <time>2022-08-25T07:48:07Z</time>
      </trkpt>
      <trkpt lat="42.78374800000002" lon="-1.6856330000000028">
        <ele>434.679</ele>
        <time>2022-08-25T07:48:09Z</time>
      </trkpt>
      <trkpt lat="42.783574000000016" lon="-1.6855690000000028">
        <ele>434.460</ele>
        <time>2022-08-25T07:48:13Z</time>
      </trkpt>
      <trkpt lat="42.78352000000002" lon="-1.6855510000000027">
        <ele>434.431</ele>
        <time>2022-08-25T07:48:14Z</time>
      </trkpt>
      <trkpt lat="42.78347700000002" lon="-1.6855390000000028">
        <ele>434.261</ele>
        <time>2022-08-25T07:48:15Z</time>
      </trkpt>
      <trkpt lat="42.78343200000002" lon="-1.6855320000000027">
        <ele>434.207</ele>
        <time>2022-08-25T07:48:16Z</time>
      </trkpt>
      <trkpt lat="42.78338700000002" lon="-1.6855260000000027">
        <ele>434.209</ele>
        <time>2022-08-25T07:48:17Z</time>
      </trkpt>
      <trkpt lat="42.783343000000016" lon="-1.6855180000000027">
        <ele>434.264</ele>
        <time>2022-08-25T07:48:18Z</time>
      </trkpt>
      <trkpt lat="42.78321300000002" lon="-1.6854520000000028">
        <ele>434.064</ele>
        <time>2022-08-25T07:48:21Z</time>
      </trkpt>
      <trkpt lat="42.783073000000016" lon="-1.6853920000000029">
        <ele>433.874</ele>
        <time>2022-08-25T07:48:24Z</time>
      </trkpt>
      <trkpt lat="42.783025000000016" lon="-1.6853770000000028">
        <ele>433.830</ele>
        <time>2022-08-25T07:48:25Z</time>
      </trkpt>
      <trkpt lat="42.78298700000001" lon="-1.6853660000000028">
        <ele>433.882</ele>
        <time>2022-08-25T07:48:26Z</time>
      </trkpt>
      <trkpt lat="42.78283600000001" lon="-1.6853320000000027">
        <ele>433.829</ele>
        <time>2022-08-25T07:48:29Z</time>
      </trkpt>
      <trkpt lat="42.78279200000001" lon="-1.6853220000000027">
        <ele>433.842</ele>
        <time>2022-08-25T07:48:30Z</time>
      </trkpt>
      <trkpt lat="42.78274700000001" lon="-1.6853130000000027">
        <ele>433.838</ele>
        <time>2022-08-25T07:48:31Z</time>
      </trkpt>
      <trkpt lat="42.782703000000005" lon="-1.6853070000000028">
        <ele>433.839</ele>
        <time>2022-08-25T07:48:32Z</time>
      </trkpt>
      <trkpt lat="42.782659" lon="-1.6852960000000028">
        <ele>433.814</ele>
        <time>2022-08-25T07:48:33Z</time>
      </trkpt>
      <trkpt lat="42.782614" lon="-1.6852850000000028">
        <ele>433.854</ele>
        <time>2022-08-25T07:48:34Z</time>
      </trkpt>
      <trkpt lat="42.782254" lon="-1.6852480000000027">
        <ele>433.609</ele>
        <time>2022-08-25T07:48:42Z</time>
      </trkpt>
      <trkpt lat="42.782209" lon="-1.6852460000000027">
        <ele>433.609</ele>
        <time>2022-08-25T07:48:43Z</time>
      </trkpt>
      <trkpt lat="42.782165" lon="-1.6852460000000027">
        <ele>433.642</ele>
        <time>2022-08-25T07:48:44Z</time>
      </trkpt>
      <trkpt lat="42.782122" lon="-1.6852470000000026">
        <ele>433.682</ele>
        <time>2022-08-25T07:48:45Z</time>
      </trkpt>
      <trkpt lat="42.782036" lon="-1.6852450000000025">
        <ele>433.632</ele>
        <time>2022-08-25T07:48:47Z</time>
      </trkpt>
      <trkpt lat="42.781904999999995" lon="-1.6852620000000025">
        <ele>433.468</ele>
        <time>2022-08-25T07:48:50Z</time>
      </trkpt>
      <trkpt lat="42.781862" lon="-1.6852680000000024">
        <ele>433.460</ele>
        <time>2022-08-25T07:48:51Z</time>
      </trkpt>
      <trkpt lat="42.781819" lon="-1.6852750000000025">
        <ele>433.487</ele>
        <time>2022-08-25T07:48:52Z</time>
      </trkpt>
      <trkpt lat="42.781779" lon="-1.6852820000000026">
        <ele>433.410</ele>
        <time>2022-08-25T07:48:53Z</time>
      </trkpt>
      <trkpt lat="42.78174" lon="-1.6852890000000027">
        <ele>433.436</ele>
        <time>2022-08-25T07:48:54Z</time>
      </trkpt>
      <trkpt lat="42.781701999999996" lon="-1.6853010000000026">
        <ele>433.427</ele>
        <time>2022-08-25T07:48:55Z</time>
      </trkpt>
      <trkpt lat="42.781662999999995" lon="-1.6853140000000026">
        <ele>433.458</ele>
        <time>2022-08-25T07:48:56Z</time>
      </trkpt>
      <trkpt lat="42.781622999999996" lon="-1.6853300000000027">
        <ele>433.452</ele>
        <time>2022-08-25T07:48:57Z</time>
      </trkpt>
      <trkpt lat="42.781586" lon="-1.6853460000000027">
        <ele>433.417</ele>
        <time>2022-08-25T07:48:58Z</time>
      </trkpt>
      <trkpt lat="42.781558" lon="-1.6853580000000026">
        <ele>433.409</ele>
        <time>2022-08-25T07:48:59Z</time>
      </trkpt>
      <trkpt lat="42.781518" lon="-1.6853770000000026">
        <ele>433.426</ele>
        <time>2022-08-25T07:49:00Z</time>
      </trkpt>
      <trkpt lat="42.781486" lon="-1.6853940000000025">
        <ele>433.436</ele>
        <time>2022-08-25T07:49:01Z</time>
      </trkpt>
      <trkpt lat="42.781455" lon="-1.6854090000000026">
        <ele>433.436</ele>
        <time>2022-08-25T07:49:02Z</time>
      </trkpt>
      <trkpt lat="42.781425" lon="-1.6854270000000027">
        <ele>433.442</ele>
        <time>2022-08-25T07:49:03Z</time>
      </trkpt>
      <trkpt lat="42.781397" lon="-1.6854470000000026">
        <ele>433.634</ele>
        <time>2022-08-25T07:49:04Z</time>
      </trkpt>
      <trkpt lat="42.781374" lon="-1.6854660000000026">
        <ele>433.651</ele>
        <time>2022-08-25T07:49:05Z</time>
      </trkpt>
      <trkpt lat="42.781307" lon="-1.6855320000000025">
        <ele>433.864</ele>
        <time>2022-08-25T07:49:08Z</time>
      </trkpt>
      <trkpt lat="42.781282" lon="-1.6855540000000024">
        <ele>433.810</ele>
        <time>2022-08-25T07:49:09Z</time>
      </trkpt>
      <trkpt lat="42.781251999999995" lon="-1.6856030000000024">
        <ele>433.851</ele>
        <time>2022-08-25T07:49:11Z</time>
      </trkpt>
      <trkpt lat="42.781251" lon="-1.6856370000000025">
        <ele>433.833</ele>
        <time>2022-08-25T07:49:12Z</time>
      </trkpt>
      <trkpt lat="42.781254" lon="-1.6856690000000025">
        <ele>433.823</ele>
        <time>2022-08-25T07:49:13Z</time>
      </trkpt>
      <trkpt lat="42.781256" lon="-1.6856960000000025">
        <ele>433.815</ele>
        <time>2022-08-25T07:49:14Z</time>
      </trkpt>
      <trkpt lat="42.781255" lon="-1.6857220000000026">
        <ele>434.009</ele>
        <time>2022-08-25T07:49:15Z</time>
      </trkpt>
      <trkpt lat="42.781254000000004" lon="-1.6857510000000027">
        <ele>434.084</ele>
        <time>2022-08-25T07:49:16Z</time>
      </trkpt>
      <trkpt lat="42.781254000000004" lon="-1.6857730000000026">
        <ele>434.244</ele>
        <time>2022-08-25T07:49:17Z</time>
      </trkpt>
      <trkpt lat="42.781231000000005" lon="-1.6859230000000027">
        <ele>434.874</ele>
        <time>2022-08-25T07:49:22Z</time>
      </trkpt>
      <trkpt lat="42.781228000000006" lon="-1.6859490000000028">
        <ele>434.860</ele>
        <time>2022-08-25T07:49:23Z</time>
      </trkpt>
      <trkpt lat="42.78123600000001" lon="-1.6859630000000028">
        <ele>435.042</ele>
        <time>2022-08-25T07:49:24Z</time>
      </trkpt>
      <trkpt lat="42.781251000000005" lon="-1.6859640000000027">
        <ele>435.059</ele>
        <time>2022-08-25T07:49:25Z</time>
      </trkpt>
      <trkpt lat="42.78134000000001" lon="-1.6858800000000027">
        <ele>435.232</ele>
        <time>2022-08-25T07:49:30Z</time>
      </trkpt>
      <trkpt lat="42.78140900000001" lon="-1.6858300000000026">
        <ele>435.228</ele>
        <time>2022-08-25T07:49:33Z</time>
      </trkpt>
      <trkpt lat="42.78142500000001" lon="-1.6858380000000026">
        <ele>435.259</ele>
        <time>2022-08-25T07:49:34Z</time>
      </trkpt>
      <trkpt lat="42.78143400000001" lon="-1.6858520000000026">
        <ele>435.287</ele>
        <time>2022-08-25T07:49:35Z</time>
      </trkpt>
      <trkpt lat="42.78144500000001" lon="-1.6858730000000026">
        <ele>435.242</ele>
        <time>2022-08-25T07:49:36Z</time>
      </trkpt>
      <trkpt lat="42.781458000000015" lon="-1.6858920000000026">
        <ele>435.226</ele>
        <time>2022-08-25T07:49:37Z</time>
      </trkpt>
      <trkpt lat="42.78146700000001" lon="-1.6859100000000027">
        <ele>435.209</ele>
        <time>2022-08-25T07:49:38Z</time>
      </trkpt>
      <trkpt lat="42.78147700000002" lon="-1.6859250000000028">
        <ele>435.259</ele>
        <time>2022-08-25T07:49:39Z</time>
      </trkpt>
      <trkpt lat="42.78148700000002" lon="-1.6859410000000028">
        <ele>435.259</ele>
        <time>2022-08-25T07:49:40Z</time>
      </trkpt>
      <trkpt lat="42.78150000000002" lon="-1.6859610000000027">
        <ele>435.229</ele>
        <time>2022-08-25T07:49:41Z</time>
      </trkpt>
      <trkpt lat="42.781510000000026" lon="-1.6859780000000026">
        <ele>435.255</ele>
        <time>2022-08-25T07:49:42Z</time>
      </trkpt>
      <trkpt lat="42.78151400000002" lon="-1.6860130000000026">
        <ele>435.237</ele>
        <time>2022-08-25T07:49:44Z</time>
      </trkpt>
      <trkpt lat="42.78150600000002" lon="-1.6860230000000027">
        <ele>435.244</ele>
        <time>2022-08-25T07:49:45Z</time>
      </trkpt>
      <trkpt lat="42.78150300000002" lon="-1.6860240000000026">
        <ele>435.277</ele>
        <time>2022-08-25T07:49:46Z</time>
      </trkpt>
      <trkpt lat="42.78148700000002" lon="-1.6860150000000027">
        <ele>435.273</ele>
        <time>2022-08-25T07:50:28Z</time>
      </trkpt>
      <trkpt lat="42.78147000000002" lon="-1.6860090000000028">
        <ele>435.214</ele>
        <time>2022-08-25T07:50:29Z</time>
      </trkpt>
      <trkpt lat="42.78143400000002" lon="-1.6859910000000027">
        <ele>435.083</ele>
        <time>2022-08-25T07:50:31Z</time>
      </trkpt>
      <trkpt lat="42.781418000000016" lon="-1.6860100000000027">
        <ele>434.625</ele>
        <time>2022-08-25T07:50:33Z</time>
      </trkpt>
      <trkpt lat="42.781419000000014" lon="-1.6860060000000028">
        <ele>434.617</ele>
        <time>2022-08-25T07:50:34Z</time>
      </trkpt>
      <trkpt lat="42.78142200000001" lon="-1.6859920000000028">
        <ele>434.609</ele>
        <time>2022-08-25T07:50:36Z</time>
      </trkpt>
      <trkpt lat="42.78142900000001" lon="-1.6859840000000028">
        <ele>434.659</ele>
        <time>2022-08-25T07:50:37Z</time>
      </trkpt>
      <trkpt lat="42.78144400000001" lon="-1.6859770000000027">
        <ele>434.419</ele>
        <time>2022-08-25T07:50:38Z</time>
      </trkpt>
      <trkpt lat="42.78146800000001" lon="-1.6859590000000026">
        <ele>434.459</ele>
        <time>2022-08-25T07:50:39Z</time>
      </trkpt>
      <trkpt lat="42.78150400000001" lon="-1.6859130000000027">
        <ele>434.445</ele>
        <time>2022-08-25T07:50:42Z</time>
      </trkpt>
      <trkpt lat="42.78147700000001" lon="-1.6858940000000027">
        <ele>434.667</ele>
        <time>2022-08-25T07:50:43Z</time>
      </trkpt>
      <trkpt lat="42.78141700000001" lon="-1.6858360000000028">
        <ele>434.644</ele>
        <time>2022-08-25T07:50:45Z</time>
      </trkpt>
      <trkpt lat="42.781320000000015" lon="-1.6857330000000028">
        <ele>434.257</ele>
        <time>2022-08-25T07:50:48Z</time>
      </trkpt>
      <trkpt lat="42.78126500000001" lon="-1.6856730000000029">
        <ele>434.293</ele>
        <time>2022-08-25T07:50:50Z</time>
      </trkpt>
      <trkpt lat="42.781239000000014" lon="-1.6856520000000028">
        <ele>434.284</ele>
        <time>2022-08-25T07:50:51Z</time>
      </trkpt>
      <trkpt lat="42.78121500000001" lon="-1.6856450000000027">
        <ele>434.274</ele>
        <time>2022-08-25T07:50:52Z</time>
      </trkpt>
      <trkpt lat="42.78119100000001" lon="-1.6856580000000028">
        <ele>434.256</ele>
        <time>2022-08-25T07:50:53Z</time>
      </trkpt>
      <trkpt lat="42.781167" lon="-1.6856780000000027">
        <ele>434.021</ele>
        <time>2022-08-25T07:50:54Z</time>
      </trkpt>
      <trkpt lat="42.78110100000001" lon="-1.6857350000000026">
        <ele>433.809</ele>
        <time>2022-08-25T07:50:56Z</time>
      </trkpt>
      <trkpt lat="42.78107500000001" lon="-1.6857680000000026">
        <ele>433.888</ele>
        <time>2022-08-25T07:50:57Z</time>
      </trkpt>
      <trkpt lat="42.78096500000001" lon="-1.6859490000000026">
        <ele>433.618</ele>
        <time>2022-08-25T07:51:02Z</time>
      </trkpt>
      <trkpt lat="42.780896000000006" lon="-1.6861030000000026">
        <ele>433.858</ele>
        <time>2022-08-25T07:51:06Z</time>
      </trkpt>
      <trkpt lat="42.78088" lon="-1.6861420000000025">
        <ele>433.814</ele>
        <time>2022-08-25T07:51:07Z</time>
      </trkpt>
      <trkpt lat="42.780866" lon="-1.6861800000000025">
        <ele>433.836</ele>
        <time>2022-08-25T07:51:08Z</time>
      </trkpt>
      <trkpt lat="42.780851000000006" lon="-1.6862130000000024">
        <ele>434.013</ele>
        <time>2022-08-25T07:51:09Z</time>
      </trkpt>
      <trkpt lat="42.780838" lon="-1.6862410000000023">
        <ele>434.046</ele>
        <time>2022-08-25T07:51:10Z</time>
      </trkpt>
      <trkpt lat="42.780828" lon="-1.6862680000000023">
        <ele>434.092</ele>
        <time>2022-08-25T07:51:11Z</time>
      </trkpt>
      <trkpt lat="42.780805" lon="-1.6863760000000023">
        <ele>434.253</ele>
        <time>2022-08-25T07:51:14Z</time>
      </trkpt>
      <trkpt lat="42.780792" lon="-1.6864870000000023">
        <ele>434.456</ele>
        <time>2022-08-25T07:51:17Z</time>
      </trkpt>
      <trkpt lat="42.780747999999996" lon="-1.6865620000000023">
        <ele>434.459</ele>
        <time>2022-08-25T07:51:19Z</time>
      </trkpt>
      <trkpt lat="42.780722" lon="-1.6865810000000023">
        <ele>434.414</ele>
        <time>2022-08-25T07:51:20Z</time>
      </trkpt>
      <trkpt lat="42.780701" lon="-1.6865870000000023">
        <ele>434.409</ele>
        <time>2022-08-25T07:51:21Z</time>
      </trkpt>
      <trkpt lat="42.780642" lon="-1.6865580000000022">
        <ele>434.666</ele>
        <time>2022-08-25T07:51:23Z</time>
      </trkpt>
      <trkpt lat="42.780598" lon="-1.6865080000000021">
        <ele>434.876</ele>
        <time>2022-08-25T07:51:25Z</time>
      </trkpt>
      <trkpt lat="42.780581" lon="-1.686482000000002">
        <ele>434.856</ele>
        <time>2022-08-25T07:51:26Z</time>
      </trkpt>
      <trkpt lat="42.780529" lon="-1.686429000000002">
        <ele>435.052</ele>
        <time>2022-08-25T07:51:28Z</time>
      </trkpt>
      <trkpt lat="42.780445" lon="-1.6863870000000019">
        <ele>435.034</ele>
        <time>2022-08-25T07:51:31Z</time>
      </trkpt>
      <trkpt lat="42.7803" lon="-1.686311000000002">
        <ele>435.051</ele>
        <time>2022-08-25T07:51:35Z</time>
      </trkpt>
      <trkpt lat="42.780260999999996" lon="-1.686297000000002">
        <ele>435.254</ele>
        <time>2022-08-25T07:51:36Z</time>
      </trkpt>
      <trkpt lat="42.78021699999999" lon="-1.686280000000002">
        <ele>435.240</ele>
        <time>2022-08-25T07:51:37Z</time>
      </trkpt>
      <trkpt lat="42.780176999999995" lon="-1.686264000000002">
        <ele>435.261</ele>
        <time>2022-08-25T07:51:38Z</time>
      </trkpt>
      <trkpt lat="42.780139999999996" lon="-1.686251000000002">
        <ele>435.253</ele>
        <time>2022-08-25T07:51:39Z</time>
      </trkpt>
      <trkpt lat="42.780114" lon="-1.686240000000002">
        <ele>435.204</ele>
        <time>2022-08-25T07:51:40Z</time>
      </trkpt>
      <trkpt lat="42.780082" lon="-1.6862250000000019">
        <ele>435.214</ele>
        <time>2022-08-25T07:51:41Z</time>
      </trkpt>
      <trkpt lat="42.780007" lon="-1.686192000000002">
        <ele>435.209</ele>
        <time>2022-08-25T07:51:43Z</time>
      </trkpt>
      <trkpt lat="42.779948" lon="-1.686192000000002">
        <ele>435.416</ele>
        <time>2022-08-25T07:51:45Z</time>
      </trkpt>
      <trkpt lat="42.779914999999995" lon="-1.686215000000002">
        <ele>435.496</ele>
        <time>2022-08-25T07:51:46Z</time>
      </trkpt>
      <trkpt lat="42.779892999999994" lon="-1.686244000000002">
        <ele>435.486</ele>
        <time>2022-08-25T07:51:47Z</time>
      </trkpt>
      <trkpt lat="42.77987099999999" lon="-1.686272000000002">
        <ele>435.462</ele>
        <time>2022-08-25T07:51:48Z</time>
      </trkpt>
      <trkpt lat="42.779852999999996" lon="-1.686294000000002">
        <ele>435.654</ele>
        <time>2022-08-25T07:51:49Z</time>
      </trkpt>
      <trkpt lat="42.779762" lon="-1.686423000000002">
        <ele>435.821</ele>
        <time>2022-08-25T07:51:53Z</time>
      </trkpt>
      <trkpt lat="42.779699" lon="-1.686507000000002">
        <ele>436.234</ele>
        <time>2022-08-25T07:51:56Z</time>
      </trkpt>
      <trkpt lat="42.779629" lon="-1.6866350000000019">
        <ele>436.840</ele>
        <time>2022-08-25T07:52:00Z</time>
      </trkpt>
      <trkpt lat="42.779598" lon="-1.6866680000000018">
        <ele>437.051</ele>
        <time>2022-08-25T07:52:01Z</time>
      </trkpt>
      <trkpt lat="42.779572" lon="-1.686694000000002">
        <ele>437.028</ele>
        <time>2022-08-25T07:52:02Z</time>
      </trkpt>
      <trkpt lat="42.779549" lon="-1.6867190000000019">
        <ele>437.089</ele>
        <time>2022-08-25T07:52:03Z</time>
      </trkpt>
      <trkpt lat="42.779418" lon="-1.686888000000002">
        <ele>437.817</ele>
        <time>2022-08-25T07:52:09Z</time>
      </trkpt>
      <trkpt lat="42.779391" lon="-1.686922000000002">
        <ele>438.009</ele>
        <time>2022-08-25T07:52:10Z</time>
      </trkpt>
      <trkpt lat="42.779368999999996" lon="-1.686949000000002">
        <ele>438.023</ele>
        <time>2022-08-25T07:52:11Z</time>
      </trkpt>
      <trkpt lat="42.779346999999994" lon="-1.686976000000002">
        <ele>438.233</ele>
        <time>2022-08-25T07:52:12Z</time>
      </trkpt>
      <trkpt lat="42.779329999999995" lon="-1.686998000000002">
        <ele>438.243</ele>
        <time>2022-08-25T07:52:13Z</time>
      </trkpt>
      <trkpt lat="42.779309999999995" lon="-1.687027000000002">
        <ele>438.439</ele>
        <time>2022-08-25T07:52:14Z</time>
      </trkpt>
      <trkpt lat="42.779281" lon="-1.6870640000000021">
        <ele>438.411</ele>
        <time>2022-08-25T07:52:15Z</time>
      </trkpt>
      <trkpt lat="42.779258" lon="-1.6870900000000022">
        <ele>438.458</ele>
        <time>2022-08-25T07:52:16Z</time>
      </trkpt>
      <trkpt lat="42.779237" lon="-1.6871180000000021">
        <ele>438.691</ele>
        <time>2022-08-25T07:52:17Z</time>
      </trkpt>
      <trkpt lat="42.779221" lon="-1.687140000000002">
        <ele>439.057</ele>
        <time>2022-08-25T07:52:18Z</time>
      </trkpt>
      <trkpt lat="42.779196999999996" lon="-1.687168000000002">
        <ele>439.028</ele>
        <time>2022-08-25T07:52:19Z</time>
      </trkpt>
      <trkpt lat="42.779168999999996" lon="-1.687201000000002">
        <ele>439.226</ele>
        <time>2022-08-25T07:52:20Z</time>
      </trkpt>
      <trkpt lat="42.779146" lon="-1.6872290000000019">
        <ele>439.247</ele>
        <time>2022-08-25T07:52:21Z</time>
      </trkpt>
      <trkpt lat="42.779129" lon="-1.687250000000002">
        <ele>439.211</ele>
        <time>2022-08-25T07:52:22Z</time>
      </trkpt>
      <trkpt lat="42.779108" lon="-1.687276000000002">
        <ele>439.409</ele>
        <time>2022-08-25T07:52:23Z</time>
      </trkpt>
      <trkpt lat="42.779082" lon="-1.687309000000002">
        <ele>439.413</ele>
        <time>2022-08-25T07:52:24Z</time>
      </trkpt>
      <trkpt lat="42.779061000000006" lon="-1.687336000000002">
        <ele>439.623</ele>
        <time>2022-08-25T07:52:25Z</time>
      </trkpt>
      <trkpt lat="42.77903800000001" lon="-1.687366000000002">
        <ele>439.623</ele>
        <time>2022-08-25T07:52:26Z</time>
      </trkpt>
      <trkpt lat="42.77902100000001" lon="-1.687389000000002">
        <ele>439.699</ele>
        <time>2022-08-25T07:52:27Z</time>
      </trkpt>
      <trkpt lat="42.77900000000001" lon="-1.687415000000002">
        <ele>439.831</ele>
        <time>2022-08-25T07:52:28Z</time>
      </trkpt>
      <trkpt lat="42.77897100000001" lon="-1.687446000000002">
        <ele>439.898</ele>
        <time>2022-08-25T07:52:29Z</time>
      </trkpt>
      <trkpt lat="42.778948000000014" lon="-1.687470000000002">
        <ele>439.871</ele>
        <time>2022-08-25T07:52:30Z</time>
      </trkpt>
      <trkpt lat="42.77892400000001" lon="-1.687496000000002">
        <ele>440.037</ele>
        <time>2022-08-25T07:52:31Z</time>
      </trkpt>
      <trkpt lat="42.77890400000001" lon="-1.6875140000000022">
        <ele>440.028</ele>
        <time>2022-08-25T07:52:32Z</time>
      </trkpt>
      <trkpt lat="42.77888000000001" lon="-1.6875380000000022">
        <ele>440.067</ele>
        <time>2022-08-25T07:52:33Z</time>
      </trkpt>
      <trkpt lat="42.77885200000001" lon="-1.6875680000000022">
        <ele>440.281</ele>
        <time>2022-08-25T07:52:34Z</time>
      </trkpt>
      <trkpt lat="42.77883100000001" lon="-1.6875950000000022">
        <ele>440.219</ele>
        <time>2022-08-25T07:52:35Z</time>
      </trkpt>
      <trkpt lat="42.77880700000001" lon="-1.687623000000002">
        <ele>440.209</ele>
        <time>2022-08-25T07:52:36Z</time>
      </trkpt>
      <trkpt lat="42.77875800000001" lon="-1.6876790000000021">
        <ele>440.477</ele>
        <time>2022-08-25T07:52:38Z</time>
      </trkpt>
      <trkpt lat="42.77873500000001" lon="-1.6877030000000022">
        <ele>440.447</ele>
        <time>2022-08-25T07:52:39Z</time>
      </trkpt>
      <trkpt lat="42.77870800000001" lon="-1.6877260000000023">
        <ele>440.427</ele>
        <time>2022-08-25T07:52:40Z</time>
      </trkpt>
      <trkpt lat="42.77869100000001" lon="-1.6877440000000024">
        <ele>440.663</ele>
        <time>2022-08-25T07:52:41Z</time>
      </trkpt>
      <trkpt lat="42.77866900000001" lon="-1.6877650000000024">
        <ele>440.645</ele>
        <time>2022-08-25T07:52:42Z</time>
      </trkpt>
      <trkpt lat="42.77864000000001" lon="-1.6877930000000023">
        <ele>440.652</ele>
        <time>2022-08-25T07:52:43Z</time>
      </trkpt>
      <trkpt lat="42.77862000000001" lon="-1.6878210000000022">
        <ele>440.825</ele>
        <time>2022-08-25T07:52:44Z</time>
      </trkpt>
      <trkpt lat="42.77858200000001" lon="-1.6878720000000023">
        <ele>441.221</ele>
        <time>2022-08-25T07:52:46Z</time>
      </trkpt>
      <trkpt lat="42.77852300000001" lon="-1.6879530000000023">
        <ele>441.292</ele>
        <time>2022-08-25T07:52:49Z</time>
      </trkpt>
      <trkpt lat="42.77845500000001" lon="-1.6880300000000024">
        <ele>441.444</ele>
        <time>2022-08-25T07:52:52Z</time>
      </trkpt>
      <trkpt lat="42.77843000000001" lon="-1.6880570000000024">
        <ele>441.405</ele>
        <time>2022-08-25T07:52:53Z</time>
      </trkpt>
      <trkpt lat="42.77825200000001" lon="-1.6882420000000025">
        <ele>441.415</ele>
        <time>2022-08-25T07:53:00Z</time>
      </trkpt>
      <trkpt lat="42.778228000000006" lon="-1.6882660000000025">
        <ele>441.409</ele>
        <time>2022-08-25T07:53:01Z</time>
      </trkpt>
      <trkpt lat="42.778200000000005" lon="-1.6882950000000025">
        <ele>441.455</ele>
        <time>2022-08-25T07:53:02Z</time>
      </trkpt>
      <trkpt lat="42.77817700000001" lon="-1.6883190000000026">
        <ele>441.455</ele>
        <time>2022-08-25T07:53:03Z</time>
      </trkpt>
      <trkpt lat="42.77815400000001" lon="-1.6883440000000025">
        <ele>441.665</ele>
        <time>2022-08-25T07:53:04Z</time>
      </trkpt>
      <trkpt lat="42.77813600000001" lon="-1.6883650000000026">
        <ele>441.611</ele>
        <time>2022-08-25T07:53:05Z</time>
      </trkpt>
      <trkpt lat="42.77807100000001" lon="-1.6884650000000025">
        <ele>441.643</ele>
        <time>2022-08-25T07:53:08Z</time>
      </trkpt>
      <trkpt lat="42.77801000000001" lon="-1.6887150000000026">
        <ele>441.830</ele>
        <time>2022-08-25T07:53:14Z</time>
      </trkpt>
      <trkpt lat="42.77801300000001" lon="-1.6887680000000027">
        <ele>441.863</ele>
        <time>2022-08-25T07:53:15Z</time>
      </trkpt>
      <trkpt lat="42.778020000000005" lon="-1.6888310000000026">
        <ele>441.839</ele>
        <time>2022-08-25T07:53:16Z</time>
      </trkpt>
      <trkpt lat="42.77803600000001" lon="-1.6889370000000026">
        <ele>441.850</ele>
        <time>2022-08-25T07:53:18Z</time>
      </trkpt>
      <trkpt lat="42.77805300000001" lon="-1.6890400000000025">
        <ele>441.871</ele>
        <time>2022-08-25T07:53:20Z</time>
      </trkpt>
      <trkpt lat="42.77805500000001" lon="-1.6890900000000026">
        <ele>441.841</ele>
        <time>2022-08-25T07:53:21Z</time>
      </trkpt>
      <trkpt lat="42.778059000000006" lon="-1.6891400000000028">
        <ele>441.815</ele>
        <time>2022-08-25T07:53:22Z</time>
      </trkpt>
      <trkpt lat="42.778063" lon="-1.6891790000000027">
        <ele>441.609</ele>
        <time>2022-08-25T07:53:23Z</time>
      </trkpt>
      <trkpt lat="42.778069" lon="-1.6892270000000027">
        <ele>441.658</ele>
        <time>2022-08-25T07:53:24Z</time>
      </trkpt>
      <trkpt lat="42.778078" lon="-1.6892830000000028">
        <ele>441.688</ele>
        <time>2022-08-25T07:53:25Z</time>
      </trkpt>
      <trkpt lat="42.778087" lon="-1.6893290000000027">
        <ele>441.618</ele>
        <time>2022-08-25T07:53:26Z</time>
      </trkpt>
      <trkpt lat="42.778093999999996" lon="-1.6893750000000027">
        <ele>441.664</ele>
        <time>2022-08-25T07:53:27Z</time>
      </trkpt>
      <trkpt lat="42.778099999999995" lon="-1.6894110000000027">
        <ele>441.486</ele>
        <time>2022-08-25T07:53:28Z</time>
      </trkpt>
      <trkpt lat="42.77810899999999" lon="-1.6894530000000028">
        <ele>441.463</ele>
        <time>2022-08-25T07:53:29Z</time>
      </trkpt>
      <trkpt lat="42.77811799999999" lon="-1.6894980000000028">
        <ele>441.416</ele>
        <time>2022-08-25T07:53:30Z</time>
      </trkpt>
      <trkpt lat="42.77812199999999" lon="-1.6895290000000027">
        <ele>441.262</ele>
        <time>2022-08-25T07:53:31Z</time>
      </trkpt>
      <trkpt lat="42.77812399999999" lon="-1.6895530000000027">
        <ele>441.233</ele>
        <time>2022-08-25T07:53:32Z</time>
      </trkpt>
      <trkpt lat="42.77812699999999" lon="-1.6895830000000027">
        <ele>441.269</ele>
        <time>2022-08-25T07:53:33Z</time>
      </trkpt>
      <trkpt lat="42.77812999999999" lon="-1.6896210000000027">
        <ele>441.204</ele>
        <time>2022-08-25T07:53:34Z</time>
      </trkpt>
      <trkpt lat="42.77813199999999" lon="-1.6897980000000028">
        <ele>441.224</ele>
        <time>2022-08-25T07:53:39Z</time>
      </trkpt>
      <trkpt lat="42.77811299999999" lon="-1.6898270000000029">
        <ele>441.209</ele>
        <time>2022-08-25T07:53:40Z</time>
      </trkpt>
      <trkpt lat="42.77803699999999" lon="-1.6898760000000028">
        <ele>441.297</ele>
        <time>2022-08-25T07:53:43Z</time>
      </trkpt>
      <trkpt lat="42.77800099999999" lon="-1.6898930000000028">
        <ele>441.427</ele>
        <time>2022-08-25T07:53:44Z</time>
      </trkpt>
      <trkpt lat="42.77794399999999" lon="-1.6899180000000027">
        <ele>441.667</ele>
        <time>2022-08-25T07:53:46Z</time>
      </trkpt>
      <trkpt lat="42.77787599999999" lon="-1.6899610000000027">
        <ele>441.683</ele>
        <time>2022-08-25T07:53:48Z</time>
      </trkpt>
      <trkpt lat="42.777815999999994" lon="-1.6899950000000028">
        <ele>441.455</ele>
        <time>2022-08-25T07:53:50Z</time>
      </trkpt>
      <trkpt lat="42.77779199999999" lon="-1.6900060000000028">
        <ele>441.662</ele>
        <time>2022-08-25T07:53:51Z</time>
      </trkpt>
      <trkpt lat="42.77776199999999" lon="-1.6900180000000027">
        <ele>441.615</ele>
        <time>2022-08-25T07:53:52Z</time>
      </trkpt>
      <trkpt lat="42.77773299999999" lon="-1.6900300000000026">
        <ele>441.871</ele>
        <time>2022-08-25T07:53:53Z</time>
      </trkpt>
      <trkpt lat="42.77761099999999" lon="-1.6900970000000026">
        <ele>441.872</ele>
        <time>2022-08-25T07:53:57Z</time>
      </trkpt>
      <trkpt lat="42.777544999999996" lon="-1.6901310000000027">
        <ele>441.842</ele>
        <time>2022-08-25T07:53:59Z</time>
      </trkpt>
      <trkpt lat="42.777452999999994" lon="-1.6901740000000027">
        <ele>442.222</ele>
        <time>2022-08-25T07:54:02Z</time>
      </trkpt>
      <trkpt lat="42.77742299999999" lon="-1.6901910000000027">
        <ele>442.214</ele>
        <time>2022-08-25T07:54:03Z</time>
      </trkpt>
      <trkpt lat="42.77739299999999" lon="-1.6902060000000028">
        <ele>442.209</ele>
        <time>2022-08-25T07:54:04Z</time>
      </trkpt>
      <trkpt lat="42.77737099999999" lon="-1.6902170000000027">
        <ele>442.295</ele>
        <time>2022-08-25T07:54:05Z</time>
      </trkpt>
      <trkpt lat="42.77734499999999" lon="-1.6902310000000027">
        <ele>442.475</ele>
        <time>2022-08-25T07:54:06Z</time>
      </trkpt>
      <trkpt lat="42.77731699999999" lon="-1.6902460000000028">
        <ele>442.665</ele>
        <time>2022-08-25T07:54:07Z</time>
      </trkpt>
      <trkpt lat="42.77728499999999" lon="-1.6902650000000028">
        <ele>442.671</ele>
        <time>2022-08-25T07:54:08Z</time>
      </trkpt>
      <trkpt lat="42.77725999999999" lon="-1.690280000000003">
        <ele>442.823</ele>
        <time>2022-08-25T07:54:09Z</time>
      </trkpt>
      <trkpt lat="42.777238999999994" lon="-1.6902910000000029">
        <ele>442.820</ele>
        <time>2022-08-25T07:54:10Z</time>
      </trkpt>
      <trkpt lat="42.77721199999999" lon="-1.6903050000000028">
        <ele>443.083</ele>
        <time>2022-08-25T07:54:11Z</time>
      </trkpt>
      <trkpt lat="42.77705799999999" lon="-1.6903790000000027">
        <ele>443.269</ele>
        <time>2022-08-25T07:54:16Z</time>
      </trkpt>
      <trkpt lat="42.77703299999999" lon="-1.6903910000000026">
        <ele>443.270</ele>
        <time>2022-08-25T07:54:17Z</time>
      </trkpt>
      <trkpt lat="42.77693699999999" lon="-1.6904380000000025">
        <ele>443.688</ele>
        <time>2022-08-25T07:54:20Z</time>
      </trkpt>
      <trkpt lat="42.77684299999999" lon="-1.6904820000000025">
        <ele>444.024</ele>
        <time>2022-08-25T07:54:23Z</time>
      </trkpt>
      <trkpt lat="42.77681199999999" lon="-1.6904990000000024">
        <ele>444.226</ele>
        <time>2022-08-25T07:54:24Z</time>
      </trkpt>
      <trkpt lat="42.77674199999999" lon="-1.6905330000000025">
        <ele>444.409</ele>
        <time>2022-08-25T07:54:26Z</time>
      </trkpt>
      <trkpt lat="42.77671199999999" lon="-1.6905470000000025">
        <ele>444.479</ele>
        <time>2022-08-25T07:54:27Z</time>
      </trkpt>
      <trkpt lat="42.77668099999999" lon="-1.6905610000000024">
        <ele>444.689</ele>
        <time>2022-08-25T07:54:28Z</time>
      </trkpt>
      <trkpt lat="42.77645299999999" lon="-1.6906620000000023">
        <ele>445.259</ele>
        <time>2022-08-25T07:54:35Z</time>
      </trkpt>
      <trkpt lat="42.77642099999999" lon="-1.6906780000000023">
        <ele>445.425</ele>
        <time>2022-08-25T07:54:36Z</time>
      </trkpt>
      <trkpt lat="42.77638499999999" lon="-1.6906980000000023">
        <ele>445.657</ele>
        <time>2022-08-25T07:54:37Z</time>
      </trkpt>
      <trkpt lat="42.77636099999999" lon="-1.6907120000000022">
        <ele>445.684</ele>
        <time>2022-08-25T07:54:38Z</time>
      </trkpt>
      <trkpt lat="42.776260999999984" lon="-1.6907680000000023">
        <ele>446.027</ele>
        <time>2022-08-25T07:54:41Z</time>
      </trkpt>
      <trkpt lat="42.776229999999984" lon="-1.6907850000000022">
        <ele>446.073</ele>
        <time>2022-08-25T07:54:42Z</time>
      </trkpt>
      <trkpt lat="42.77620499999998" lon="-1.6907980000000022">
        <ele>446.274</ele>
        <time>2022-08-25T07:54:43Z</time>
      </trkpt>
      <trkpt lat="42.77617499999998" lon="-1.6908150000000022">
        <ele>446.216</ele>
        <time>2022-08-25T07:54:44Z</time>
      </trkpt>
      <trkpt lat="42.77614699999998" lon="-1.6908290000000021">
        <ele>446.476</ele>
        <time>2022-08-25T07:54:45Z</time>
      </trkpt>
      <trkpt lat="42.77611699999998" lon="-1.690843000000002">
        <ele>446.613</ele>
        <time>2022-08-25T07:54:46Z</time>
      </trkpt>
      <trkpt lat="42.77609699999998" lon="-1.6908500000000022">
        <ele>446.809</ele>
        <time>2022-08-25T07:54:47Z</time>
      </trkpt>
      <trkpt lat="42.77607099999998" lon="-1.6908610000000022">
        <ele>446.842</ele>
        <time>2022-08-25T07:54:48Z</time>
      </trkpt>
      <trkpt lat="42.77604399999998" lon="-1.6908740000000022">
        <ele>447.062</ele>
        <time>2022-08-25T07:54:49Z</time>
      </trkpt>
      <trkpt lat="42.77602099999998" lon="-1.6908840000000023">
        <ele>447.252</ele>
        <time>2022-08-25T07:54:50Z</time>
      </trkpt>
      <trkpt lat="42.77599799999998" lon="-1.6908950000000023">
        <ele>447.228</ele>
        <time>2022-08-25T07:54:51Z</time>
      </trkpt>
      <trkpt lat="42.77598099999998" lon="-1.6909030000000023">
        <ele>447.460</ele>
        <time>2022-08-25T07:54:52Z</time>
      </trkpt>
      <trkpt lat="42.77595899999998" lon="-1.6909120000000022">
        <ele>447.637</ele>
        <time>2022-08-25T07:54:53Z</time>
      </trkpt>
      <trkpt lat="42.77593399999998" lon="-1.6909220000000023">
        <ele>447.670</ele>
        <time>2022-08-25T07:54:54Z</time>
      </trkpt>
      <trkpt lat="42.77591299999998" lon="-1.6909340000000022">
        <ele>448.046</ele>
        <time>2022-08-25T07:54:55Z</time>
      </trkpt>
      <trkpt lat="42.77588999999998" lon="-1.6909500000000022">
        <ele>448.087</ele>
        <time>2022-08-25T07:54:56Z</time>
      </trkpt>
      <trkpt lat="42.775874999999985" lon="-1.690962000000002">
        <ele>448.215</ele>
        <time>2022-08-25T07:54:57Z</time>
      </trkpt>
      <trkpt lat="42.77585699999999" lon="-1.690978000000002">
        <ele>448.265</ele>
        <time>2022-08-25T07:54:58Z</time>
      </trkpt>
      <trkpt lat="42.77583699999999" lon="-1.690992000000002">
        <ele>448.611</ele>
        <time>2022-08-25T07:54:59Z</time>
      </trkpt>
      <trkpt lat="42.775820999999986" lon="-1.690996000000002">
        <ele>448.809</ele>
        <time>2022-08-25T07:55:00Z</time>
      </trkpt>
      <trkpt lat="42.77580599999999" lon="-1.690999000000002">
        <ele>449.232</ele>
        <time>2022-08-25T07:55:01Z</time>
      </trkpt>
      <trkpt lat="42.775789999999986" lon="-1.6910050000000019">
        <ele>449.412</ele>
        <time>2022-08-25T07:55:02Z</time>
      </trkpt>
      <trkpt lat="42.77577199999999" lon="-1.6910160000000019">
        <ele>449.652</ele>
        <time>2022-08-25T07:55:03Z</time>
      </trkpt>
      <trkpt lat="42.77574099999999" lon="-1.6910280000000018">
        <ele>449.848</ele>
        <time>2022-08-25T07:55:04Z</time>
      </trkpt>
      <trkpt lat="42.77574099999999" lon="-1.6910280000000018">
        <ele>449.830</ele>
        <time>2022-08-25T07:55:05Z</time>
      </trkpt>
      <trkpt lat="42.77572999999999" lon="-1.6910310000000017">
        <ele>450.087</ele>
        <time>2022-08-25T07:55:06Z</time>
      </trkpt>
      <trkpt lat="42.77571599999999" lon="-1.6910340000000017">
        <ele>450.080</ele>
        <time>2022-08-25T07:55:07Z</time>
      </trkpt>
      <trkpt lat="42.775699999999986" lon="-1.6910380000000016">
        <ele>450.276</ele>
        <time>2022-08-25T07:55:08Z</time>
      </trkpt>
      <trkpt lat="42.775686999999984" lon="-1.6910430000000016">
        <ele>450.457</ele>
        <time>2022-08-25T07:55:09Z</time>
      </trkpt>
      <trkpt lat="42.77567299999998" lon="-1.6910500000000017">
        <ele>450.448</ele>
        <time>2022-08-25T07:55:10Z</time>
      </trkpt>
      <trkpt lat="42.77566199999998" lon="-1.6910580000000017">
        <ele>450.861</ele>
        <time>2022-08-25T07:55:11Z</time>
      </trkpt>
      <trkpt lat="42.77563099999998" lon="-1.6910700000000016">
        <ele>451.017</ele>
        <time>2022-08-25T07:55:12Z</time>
      </trkpt>
      <trkpt lat="42.77561799999998" lon="-1.6910760000000016">
        <ele>451.409</ele>
        <time>2022-08-25T07:55:13Z</time>
      </trkpt>
      <trkpt lat="42.77561799999998" lon="-1.6910760000000016">
        <ele>451.685</ele>
        <time>2022-08-25T07:55:14Z</time>
      </trkpt>
      <trkpt lat="42.77560799999998" lon="-1.6910820000000015">
        <ele>451.825</ele>
        <time>2022-08-25T07:55:15Z</time>
      </trkpt>
      <trkpt lat="42.775594999999974" lon="-1.6910900000000015">
        <ele>452.245</ele>
        <time>2022-08-25T07:55:16Z</time>
      </trkpt>
      <trkpt lat="42.77557999999998" lon="-1.6910980000000015">
        <ele>452.431</ele>
        <time>2022-08-25T07:55:17Z</time>
      </trkpt>
      <trkpt lat="42.77556999999997" lon="-1.6911010000000015">
        <ele>452.643</ele>
        <time>2022-08-25T07:55:18Z</time>
      </trkpt>
      <trkpt lat="42.775552999999974" lon="-1.6911090000000015">
        <ele>452.690</ele>
        <time>2022-08-25T07:55:19Z</time>
      </trkpt>
      <trkpt lat="42.775529999999975" lon="-1.6911180000000015">
        <ele>453.013</ele>
        <time>2022-08-25T07:55:20Z</time>
      </trkpt>
      <trkpt lat="42.77551699999997" lon="-1.6911280000000015">
        <ele>453.239</ele>
        <time>2022-08-25T07:55:21Z</time>
      </trkpt>
      <trkpt lat="42.77551699999997" lon="-1.6911280000000015">
        <ele>453.680</ele>
        <time>2022-08-25T07:55:22Z</time>
      </trkpt>
      <trkpt lat="42.77549399999997" lon="-1.6911450000000015">
        <ele>453.887</ele>
        <time>2022-08-25T07:55:23Z</time>
      </trkpt>
      <trkpt lat="42.77548299999997" lon="-1.6911480000000014">
        <ele>454.042</ele>
        <time>2022-08-25T07:55:24Z</time>
      </trkpt>
      <trkpt lat="42.77548299999997" lon="-1.6911480000000014">
        <ele>454.226</ele>
        <time>2022-08-25T07:55:25Z</time>
      </trkpt>
      <trkpt lat="42.77545899999997" lon="-1.6911560000000014">
        <ele>454.409</ele>
        <time>2022-08-25T07:55:26Z</time>
      </trkpt>
      <trkpt lat="42.77544799999997" lon="-1.6911660000000015">
        <ele>454.619</ele>
        <time>2022-08-25T07:55:27Z</time>
      </trkpt>
      <trkpt lat="42.77544799999997" lon="-1.6911660000000015">
        <ele>454.869</ele>
        <time>2022-08-25T07:55:28Z</time>
      </trkpt>
      <trkpt lat="42.77543399999997" lon="-1.6911860000000014">
        <ele>455.239</ele>
        <time>2022-08-25T07:55:29Z</time>
      </trkpt>
      <trkpt lat="42.77542699999997" lon="-1.6912010000000015">
        <ele>455.685</ele>
        <time>2022-08-25T07:55:30Z</time>
      </trkpt>
      <trkpt lat="42.77542199999997" lon="-1.6912160000000016">
        <ele>455.857</ele>
        <time>2022-08-25T07:55:31Z</time>
      </trkpt>
      <trkpt lat="42.77542199999997" lon="-1.6912160000000016">
        <ele>456.044</ele>
        <time>2022-08-25T07:55:32Z</time>
      </trkpt>
      <trkpt lat="42.77541099999997" lon="-1.6912450000000017">
        <ele>456.477</ele>
        <time>2022-08-25T07:55:33Z</time>
      </trkpt>
      <trkpt lat="42.77539999999997" lon="-1.6912580000000017">
        <ele>456.673</ele>
        <time>2022-08-25T07:55:34Z</time>
      </trkpt>
      <trkpt lat="42.77538599999997" lon="-1.6912710000000017">
        <ele>456.834</ele>
        <time>2022-08-25T07:55:35Z</time>
      </trkpt>
      <trkpt lat="42.77537099999997" lon="-1.6912860000000018">
        <ele>456.863</ele>
        <time>2022-08-25T07:55:36Z</time>
      </trkpt>
      <trkpt lat="42.77536299999997" lon="-1.6913030000000018">
        <ele>457.044</ele>
        <time>2022-08-25T07:55:37Z</time>
      </trkpt>
      <trkpt lat="42.77535699999997" lon="-1.6913140000000018">
        <ele>457.218</ele>
        <time>2022-08-25T07:55:38Z</time>
      </trkpt>
      <trkpt lat="42.77535699999997" lon="-1.6913140000000018">
        <ele>457.209</ele>
        <time>2022-08-25T07:55:39Z</time>
      </trkpt>
      <trkpt lat="42.77534899999997" lon="-1.6913250000000017">
        <ele>457.457</ele>
        <time>2022-08-25T07:55:40Z</time>
      </trkpt>
      <trkpt lat="42.77532199999997" lon="-1.6913450000000017">
        <ele>457.457</ele>
        <time>2022-08-25T07:55:41Z</time>
      </trkpt>
      <trkpt lat="42.77531099999997" lon="-1.6913520000000017">
        <ele>457.437</ele>
        <time>2022-08-25T07:55:42Z</time>
      </trkpt>
      <trkpt lat="42.77530099999996" lon="-1.6913620000000018">
        <ele>457.453</ele>
        <time>2022-08-25T07:55:43Z</time>
      </trkpt>
      <trkpt lat="42.77529099999996" lon="-1.6913740000000017">
        <ele>457.685</ele>
        <time>2022-08-25T07:55:44Z</time>
      </trkpt>
      <trkpt lat="42.77528299999996" lon="-1.6913850000000017">
        <ele>457.662</ele>
        <time>2022-08-25T07:55:45Z</time>
      </trkpt>
      <trkpt lat="42.77526899999996" lon="-1.6913970000000016">
        <ele>457.635</ele>
        <time>2022-08-25T07:55:46Z</time>
      </trkpt>
      <trkpt lat="42.77525999999996" lon="-1.6914040000000017">
        <ele>457.651</ele>
        <time>2022-08-25T07:55:47Z</time>
      </trkpt>
      <trkpt lat="42.77524799999996" lon="-1.6914090000000017">
        <ele>457.672</ele>
        <time>2022-08-25T07:55:48Z</time>
      </trkpt>
      <trkpt lat="42.77523399999996" lon="-1.6914140000000017">
        <ele>457.626</ele>
        <time>2022-08-25T07:55:49Z</time>
      </trkpt>
      <trkpt lat="42.77523399999996" lon="-1.6914140000000017">
        <ele>457.847</ele>
        <time>2022-08-25T07:55:50Z</time>
      </trkpt>
      <trkpt lat="42.77520599999996" lon="-1.6914300000000018">
        <ele>458.011</ele>
        <time>2022-08-25T07:55:51Z</time>
      </trkpt>
      <trkpt lat="42.77519599999996" lon="-1.6914380000000018">
        <ele>458.009</ele>
        <time>2022-08-25T07:55:52Z</time>
      </trkpt>
      <trkpt lat="42.77519599999996" lon="-1.6914380000000018">
        <ele>458.283</ele>
        <time>2022-08-25T07:55:53Z</time>
      </trkpt>
      <trkpt lat="42.77516799999996" lon="-1.6914610000000019">
        <ele>458.443</ele>
        <time>2022-08-25T07:55:54Z</time>
      </trkpt>
      <trkpt lat="42.77514999999996" lon="-1.691471000000002">
        <ele>458.483</ele>
        <time>2022-08-25T07:55:55Z</time>
      </trkpt>
      <trkpt lat="42.77513299999996" lon="-1.691481000000002">
        <ele>458.479</ele>
        <time>2022-08-25T07:55:56Z</time>
      </trkpt>
      <trkpt lat="42.77512199999996" lon="-1.691491000000002">
        <ele>458.471</ele>
        <time>2022-08-25T07:55:57Z</time>
      </trkpt>
      <trkpt lat="42.77510299999996" lon="-1.691503000000002">
        <ele>458.448</ele>
        <time>2022-08-25T07:55:58Z</time>
      </trkpt>
      <trkpt lat="42.77508899999996" lon="-1.6915150000000019">
        <ele>458.421</ele>
        <time>2022-08-25T07:55:59Z</time>
      </trkpt>
      <trkpt lat="42.77508899999996" lon="-1.6915150000000019">
        <ele>458.627</ele>
        <time>2022-08-25T07:56:00Z</time>
      </trkpt>
      <trkpt lat="42.77505199999996" lon="-1.6915460000000018">
        <ele>458.658</ele>
        <time>2022-08-25T07:56:01Z</time>
      </trkpt>
      <trkpt lat="42.77503499999996" lon="-1.6915630000000017">
        <ele>458.672</ele>
        <time>2022-08-25T07:56:02Z</time>
      </trkpt>
      <trkpt lat="42.77503499999996" lon="-1.6915630000000017">
        <ele>458.613</ele>
        <time>2022-08-25T07:56:03Z</time>
      </trkpt>
      <trkpt lat="42.77498699999996" lon="-1.6916160000000018">
        <ele>458.614</ele>
        <time>2022-08-25T07:56:05Z</time>
      </trkpt>
      <trkpt lat="42.77488799999996" lon="-1.6917450000000018">
        <ele>459.009</ele>
        <time>2022-08-25T07:56:11Z</time>
      </trkpt>
      <trkpt lat="42.77479999999996" lon="-1.691868000000002">
        <ele>459.448</ele>
        <time>2022-08-25T07:56:16Z</time>
      </trkpt>
      <trkpt lat="42.77479999999996" lon="-1.691868000000002">
        <ele>459.488</ele>
        <time>2022-08-25T07:56:17Z</time>
      </trkpt>
      <trkpt lat="42.77477499999996" lon="-1.691910000000002">
        <ele>459.468</ele>
        <time>2022-08-25T07:56:18Z</time>
      </trkpt>
      <trkpt lat="42.77477499999996" lon="-1.691910000000002">
        <ele>459.424</ele>
        <time>2022-08-25T07:56:19Z</time>
      </trkpt>
      <trkpt lat="42.77474399999996" lon="-1.6919520000000021">
        <ele>459.476</ele>
        <time>2022-08-25T07:56:20Z</time>
      </trkpt>
      <trkpt lat="42.77474399999996" lon="-1.6919520000000021">
        <ele>459.243</ele>
        <time>2022-08-25T07:56:21Z</time>
      </trkpt>
      <trkpt lat="42.77470499999996" lon="-1.692018000000002">
        <ele>459.686</ele>
        <time>2022-08-25T07:56:23Z</time>
      </trkpt>
      <trkpt lat="42.77469199999996" lon="-1.692039000000002">
        <ele>459.632</ele>
        <time>2022-08-25T07:56:24Z</time>
      </trkpt>
      <trkpt lat="42.77466099999996" lon="-1.6920730000000022">
        <ele>459.863</ele>
        <time>2022-08-25T07:56:26Z</time>
      </trkpt>
      <trkpt lat="42.77464099999996" lon="-1.6920970000000022">
        <ele>459.847</ele>
        <time>2022-08-25T07:56:28Z</time>
      </trkpt>
      <trkpt lat="42.77460799999996" lon="-1.6921290000000022">
        <ele>459.829</ele>
        <time>2022-08-25T07:56:29Z</time>
      </trkpt>
      <trkpt lat="42.774597999999955" lon="-1.6921420000000023">
        <ele>460.221</ele>
        <time>2022-08-25T07:56:30Z</time>
      </trkpt>
      <trkpt lat="42.774597999999955" lon="-1.6921420000000023">
        <ele>460.609</ele>
        <time>2022-08-25T07:56:31Z</time>
      </trkpt>
      <trkpt lat="42.77457099999995" lon="-1.6921690000000023">
        <ele>460.855</ele>
        <time>2022-08-25T07:56:32Z</time>
      </trkpt>
      <trkpt lat="42.774558999999954" lon="-1.6921780000000022">
        <ele>461.015</ele>
        <time>2022-08-25T07:56:33Z</time>
      </trkpt>
      <trkpt lat="42.774546999999956" lon="-1.6921910000000022">
        <ele>461.045</ele>
        <time>2022-08-25T07:56:34Z</time>
      </trkpt>
      <trkpt lat="42.774515999999956" lon="-1.6922250000000023">
        <ele>461.081</ele>
        <time>2022-08-25T07:56:36Z</time>
      </trkpt>
      <trkpt lat="42.77444099999995" lon="-1.6922970000000024">
        <ele>461.263</ele>
        <time>2022-08-25T07:56:40Z</time>
      </trkpt>
      <trkpt lat="42.77434299999995" lon="-1.6923770000000025">
        <ele>461.220</ele>
        <time>2022-08-25T07:56:45Z</time>
      </trkpt>
      <trkpt lat="42.77430999999995" lon="-1.6924300000000025">
        <ele>461.263</ele>
        <time>2022-08-25T07:56:47Z</time>
      </trkpt>
      <trkpt lat="42.77429299999995" lon="-1.6924540000000026">
        <ele>461.249</ele>
        <time>2022-08-25T07:56:48Z</time>
      </trkpt>
      <trkpt lat="42.77424699999995" lon="-1.6925270000000026">
        <ele>461.430</ele>
        <time>2022-08-25T07:56:51Z</time>
      </trkpt>
      <trkpt lat="42.774217999999955" lon="-1.6925740000000025">
        <ele>461.256</ele>
        <time>2022-08-25T07:56:53Z</time>
      </trkpt>
      <trkpt lat="42.77420599999996" lon="-1.6925920000000025">
        <ele>461.459</ele>
        <time>2022-08-25T07:56:55Z</time>
      </trkpt>
      <trkpt lat="42.774158999999955" lon="-1.6926580000000024">
        <ele>461.614</ele>
        <time>2022-08-25T07:56:57Z</time>
      </trkpt>
      <trkpt lat="42.774144999999955" lon="-1.6926790000000025">
        <ele>462.009</ele>
        <time>2022-08-25T07:56:58Z</time>
      </trkpt>
      <trkpt lat="42.77406499999996" lon="-1.6927870000000025">
        <ele>462.646</ele>
        <time>2022-08-25T07:57:03Z</time>
      </trkpt>
      <trkpt lat="42.77404999999996" lon="-1.6928060000000025">
        <ele>462.656</ele>
        <time>2022-08-25T07:57:04Z</time>
      </trkpt>
      <trkpt lat="42.77403199999996" lon="-1.6928280000000024">
        <ele>462.436</ele>
        <time>2022-08-25T07:57:05Z</time>
      </trkpt>
      <trkpt lat="42.774016999999965" lon="-1.6928480000000024">
        <ele>462.682</ele>
        <time>2022-08-25T07:57:06Z</time>
      </trkpt>
      <trkpt lat="42.77398799999997" lon="-1.6928820000000024">
        <ele>462.854</ele>
        <time>2022-08-25T07:57:08Z</time>
      </trkpt>
      <trkpt lat="42.77398799999997" lon="-1.6928820000000024">
        <ele>462.831</ele>
        <time>2022-08-25T07:57:09Z</time>
      </trkpt>
      <trkpt lat="42.77382999999997" lon="-1.6930730000000025">
        <ele>463.264</ele>
        <time>2022-08-25T07:57:16Z</time>
      </trkpt>
      <trkpt lat="42.773813999999966" lon="-1.6930930000000024">
        <ele>463.490</ele>
        <time>2022-08-25T07:57:17Z</time>
      </trkpt>
      <trkpt lat="42.77379399999997" lon="-1.6931160000000025">
        <ele>463.661</ele>
        <time>2022-08-25T07:57:18Z</time>
      </trkpt>
      <trkpt lat="42.773751999999966" lon="-1.6931680000000024">
        <ele>463.865</ele>
        <time>2022-08-25T07:57:20Z</time>
      </trkpt>
      <trkpt lat="42.773715999999965" lon="-1.6932170000000024">
        <ele>464.068</ele>
        <time>2022-08-25T07:57:23Z</time>
      </trkpt>
      <trkpt lat="42.77367999999996" lon="-1.6932650000000025">
        <ele>464.214</ele>
        <time>2022-08-25T07:57:24Z</time>
      </trkpt>
      <trkpt lat="42.773662999999964" lon="-1.6932880000000026">
        <ele>464.409</ele>
        <time>2022-08-25T07:57:25Z</time>
      </trkpt>
      <trkpt lat="42.773647999999966" lon="-1.6933140000000027">
        <ele>464.447</ele>
        <time>2022-08-25T07:57:26Z</time>
      </trkpt>
      <trkpt lat="42.77363299999997" lon="-1.6933320000000027">
        <ele>464.437</ele>
        <time>2022-08-25T07:57:27Z</time>
      </trkpt>
      <trkpt lat="42.77359899999997" lon="-1.6933870000000026">
        <ele>464.627</ele>
        <time>2022-08-25T07:57:29Z</time>
      </trkpt>
      <trkpt lat="42.77358499999997" lon="-1.6934110000000027">
        <ele>464.623</ele>
        <time>2022-08-25T07:57:30Z</time>
      </trkpt>
      <trkpt lat="42.77356799999997" lon="-1.6934340000000028">
        <ele>464.875</ele>
        <time>2022-08-25T07:57:31Z</time>
      </trkpt>
      <trkpt lat="42.77345599999997" lon="-1.6935720000000027">
        <ele>465.612</ele>
        <time>2022-08-25T07:57:37Z</time>
      </trkpt>
      <trkpt lat="42.77345599999997" lon="-1.6935720000000027">
        <ele>465.895</ele>
        <time>2022-08-25T07:57:38Z</time>
      </trkpt>
      <trkpt lat="42.773411999999965" lon="-1.6936230000000028">
        <ele>465.861</ele>
        <time>2022-08-25T07:57:39Z</time>
      </trkpt>
      <trkpt lat="42.77339399999997" lon="-1.6936480000000027">
        <ele>465.892</ele>
        <time>2022-08-25T07:57:40Z</time>
      </trkpt>
      <trkpt lat="42.77339399999997" lon="-1.6936480000000027">
        <ele>465.878</ele>
        <time>2022-08-25T07:57:41Z</time>
      </trkpt>
      <trkpt lat="42.773363999999965" lon="-1.6936900000000028">
        <ele>465.833</ele>
        <time>2022-08-25T07:57:42Z</time>
      </trkpt>
      <trkpt lat="42.773341999999964" lon="-1.6937110000000029">
        <ele>466.026</ele>
        <time>2022-08-25T07:57:43Z</time>
      </trkpt>
      <trkpt lat="42.773327999999964" lon="-1.6937270000000029">
        <ele>466.209</ele>
        <time>2022-08-25T07:57:44Z</time>
      </trkpt>
      <trkpt lat="42.77331199999996" lon="-1.6937470000000028">
        <ele>466.438</ele>
        <time>2022-08-25T07:57:45Z</time>
      </trkpt>
      <trkpt lat="42.773293999999964" lon="-1.6937660000000028">
        <ele>466.888</ele>
        <time>2022-08-25T07:57:46Z</time>
      </trkpt>
      <trkpt lat="42.77327599999997" lon="-1.6937860000000027">
        <ele>466.878</ele>
        <time>2022-08-25T07:57:47Z</time>
      </trkpt>
      <trkpt lat="42.77325899999997" lon="-1.6938040000000028">
        <ele>467.014</ele>
        <time>2022-08-25T07:57:48Z</time>
      </trkpt>
      <trkpt lat="42.773239999999966" lon="-1.6938230000000027">
        <ele>467.036</ele>
        <time>2022-08-25T07:57:49Z</time>
      </trkpt>
      <trkpt lat="42.773220999999964" lon="-1.6938370000000027">
        <ele>467.073</ele>
        <time>2022-08-25T07:57:50Z</time>
      </trkpt>
      <trkpt lat="42.77320299999997" lon="-1.6938520000000028">
        <ele>467.256</ele>
        <time>2022-08-25T07:57:51Z</time>
      </trkpt>
      <trkpt lat="42.77320299999997" lon="-1.6938520000000028">
        <ele>467.462</ele>
        <time>2022-08-25T07:57:52Z</time>
      </trkpt>
      <trkpt lat="42.77316299999997" lon="-1.6938850000000027">
        <ele>467.633</ele>
        <time>2022-08-25T07:57:53Z</time>
      </trkpt>
      <trkpt lat="42.77314599999997" lon="-1.6938970000000027">
        <ele>467.867</ele>
        <time>2022-08-25T07:57:54Z</time>
      </trkpt>
      <trkpt lat="42.77312699999997" lon="-1.6939100000000027">
        <ele>467.881</ele>
        <time>2022-08-25T07:57:55Z</time>
      </trkpt>
      <trkpt lat="42.77310599999997" lon="-1.6939260000000027">
        <ele>468.019</ele>
        <time>2022-08-25T07:57:56Z</time>
      </trkpt>
      <trkpt lat="42.77310599999997" lon="-1.6939260000000027">
        <ele>468.409</ele>
        <time>2022-08-25T07:57:57Z</time>
      </trkpt>
      <trkpt lat="42.77306499999997" lon="-1.6939540000000026">
        <ele>468.677</ele>
        <time>2022-08-25T07:57:58Z</time>
      </trkpt>
      <trkpt lat="42.77304499999997" lon="-1.6939690000000027">
        <ele>468.877</ele>
        <time>2022-08-25T07:57:59Z</time>
      </trkpt>
      <trkpt lat="42.773025999999966" lon="-1.6939830000000027">
        <ele>469.037</ele>
        <time>2022-08-25T07:58:00Z</time>
      </trkpt>
      <trkpt lat="42.773009999999964" lon="-1.6939950000000026">
        <ele>469.223</ele>
        <time>2022-08-25T07:58:01Z</time>
      </trkpt>
      <trkpt lat="42.77299199999997" lon="-1.6940080000000026">
        <ele>469.625</ele>
        <time>2022-08-25T07:58:02Z</time>
      </trkpt>
      <trkpt lat="42.77296799999996" lon="-1.6940210000000027">
        <ele>469.642</ele>
        <time>2022-08-25T07:58:03Z</time>
      </trkpt>
      <trkpt lat="42.77294599999996" lon="-1.6940320000000026">
        <ele>469.855</ele>
        <time>2022-08-25T07:58:04Z</time>
      </trkpt>
      <trkpt lat="42.772927999999965" lon="-1.6940400000000027">
        <ele>470.091</ele>
        <time>2022-08-25T07:58:05Z</time>
      </trkpt>
      <trkpt lat="42.77290599999996" lon="-1.6940530000000027">
        <ele>470.252</ele>
        <time>2022-08-25T07:58:06Z</time>
      </trkpt>
      <trkpt lat="42.77287899999996" lon="-1.6940710000000028">
        <ele>470.467</ele>
        <time>2022-08-25T07:58:07Z</time>
      </trkpt>
      <trkpt lat="42.77285899999996" lon="-1.6940880000000027">
        <ele>470.481</ele>
        <time>2022-08-25T07:58:08Z</time>
      </trkpt>
      <trkpt lat="42.77283599999996" lon="-1.6941020000000027">
        <ele>470.419</ele>
        <time>2022-08-25T07:58:09Z</time>
      </trkpt>
      <trkpt lat="42.77281899999996" lon="-1.6941150000000027">
        <ele>470.609</ele>
        <time>2022-08-25T07:58:10Z</time>
      </trkpt>
      <trkpt lat="42.77279999999996" lon="-1.6941340000000027">
        <ele>470.837</ele>
        <time>2022-08-25T07:58:11Z</time>
      </trkpt>
      <trkpt lat="42.77278399999996" lon="-1.6941550000000027">
        <ele>471.247</ele>
        <time>2022-08-25T07:58:12Z</time>
      </trkpt>
      <trkpt lat="42.77276699999996" lon="-1.6941790000000028">
        <ele>471.287</ele>
        <time>2022-08-25T07:58:13Z</time>
      </trkpt>
      <trkpt lat="42.77275499999996" lon="-1.6942040000000027">
        <ele>471.483</ele>
        <time>2022-08-25T07:58:14Z</time>
      </trkpt>
      <trkpt lat="42.77274499999996" lon="-1.6942280000000027">
        <ele>471.625</ele>
        <time>2022-08-25T07:58:15Z</time>
      </trkpt>
      <trkpt lat="42.77274099999996" lon="-1.6942510000000028">
        <ele>472.042</ele>
        <time>2022-08-25T07:58:16Z</time>
      </trkpt>
      <trkpt lat="42.77273899999996" lon="-1.6942720000000029">
        <ele>472.245</ele>
        <time>2022-08-25T07:58:17Z</time>
      </trkpt>
      <trkpt lat="42.77273899999996" lon="-1.694293000000003">
        <ele>472.481</ele>
        <time>2022-08-25T07:58:18Z</time>
      </trkpt>
      <trkpt lat="42.77273899999996" lon="-1.694293000000003">
        <ele>472.652</ele>
        <time>2022-08-25T07:58:19Z</time>
      </trkpt>
      <trkpt lat="42.772725999999956" lon="-1.694333000000003">
        <ele>472.823</ele>
        <time>2022-08-25T07:58:20Z</time>
      </trkpt>
      <trkpt lat="42.772725999999956" lon="-1.694333000000003">
        <ele>473.083</ele>
        <time>2022-08-25T07:58:21Z</time>
      </trkpt>
      <trkpt lat="42.772706999999954" lon="-1.694368000000003">
        <ele>473.211</ele>
        <time>2022-08-25T07:58:22Z</time>
      </trkpt>
      <trkpt lat="42.772706999999954" lon="-1.694368000000003">
        <ele>473.209</ele>
        <time>2022-08-25T07:58:23Z</time>
      </trkpt>
      <trkpt lat="42.77269199999996" lon="-1.694400000000003">
        <ele>473.273</ele>
        <time>2022-08-25T07:58:24Z</time>
      </trkpt>
      <trkpt lat="42.77268299999996" lon="-1.6944150000000031">
        <ele>473.463</ele>
        <time>2022-08-25T07:58:25Z</time>
      </trkpt>
      <trkpt lat="42.772672999999955" lon="-1.694427000000003">
        <ele>473.453</ele>
        <time>2022-08-25T07:58:26Z</time>
      </trkpt>
      <trkpt lat="42.772661999999954" lon="-1.694437000000003">
        <ele>473.659</ele>
        <time>2022-08-25T07:58:27Z</time>
      </trkpt>
      <trkpt lat="42.772647999999954" lon="-1.6944470000000031">
        <ele>473.671</ele>
        <time>2022-08-25T07:58:28Z</time>
      </trkpt>
      <trkpt lat="42.772635999999956" lon="-1.6944600000000032">
        <ele>473.678</ele>
        <time>2022-08-25T07:58:29Z</time>
      </trkpt>
      <trkpt lat="42.772624999999955" lon="-1.6944740000000031">
        <ele>473.851</ele>
        <time>2022-08-25T07:58:30Z</time>
      </trkpt>
      <trkpt lat="42.772624999999955" lon="-1.6944740000000031">
        <ele>473.847</ele>
        <time>2022-08-25T07:58:31Z</time>
      </trkpt>
      <trkpt lat="42.77260399999996" lon="-1.694505000000003">
        <ele>473.898</ele>
        <time>2022-08-25T07:58:32Z</time>
      </trkpt>
      <trkpt lat="42.77259499999996" lon="-1.694519000000003">
        <ele>474.085</ele>
        <time>2022-08-25T07:58:33Z</time>
      </trkpt>
      <trkpt lat="42.77258599999996" lon="-1.694531000000003">
        <ele>474.089</ele>
        <time>2022-08-25T07:58:34Z</time>
      </trkpt>
      <trkpt lat="42.77257699999996" lon="-1.6945450000000029">
        <ele>474.017</ele>
        <time>2022-08-25T07:58:35Z</time>
      </trkpt>
      <trkpt lat="42.77256699999996" lon="-1.6945610000000029">
        <ele>474.209</ele>
        <time>2022-08-25T07:58:36Z</time>
      </trkpt>
      <trkpt lat="42.772556999999956" lon="-1.694574000000003">
        <ele>474.429</ele>
        <time>2022-08-25T07:58:37Z</time>
      </trkpt>
      <trkpt lat="42.772545999999956" lon="-1.6945860000000028">
        <ele>474.479</ele>
        <time>2022-08-25T07:58:38Z</time>
      </trkpt>
      <trkpt lat="42.772534999999955" lon="-1.6945980000000027">
        <ele>474.629</ele>
        <time>2022-08-25T07:58:39Z</time>
      </trkpt>
      <trkpt lat="42.77252499999995" lon="-1.6946100000000026">
        <ele>474.835</ele>
        <time>2022-08-25T07:58:40Z</time>
      </trkpt>
      <trkpt lat="42.77251599999995" lon="-1.6946250000000027">
        <ele>474.867</ele>
        <time>2022-08-25T07:58:41Z</time>
      </trkpt>
      <trkpt lat="42.77251599999995" lon="-1.6946250000000027">
        <ele>474.874</ele>
        <time>2022-08-25T07:58:42Z</time>
      </trkpt>
      <trkpt lat="42.77250199999995" lon="-1.6946540000000028">
        <ele>475.087</ele>
        <time>2022-08-25T07:58:43Z</time>
      </trkpt>
      <trkpt lat="42.77249399999995" lon="-1.6946680000000027">
        <ele>475.083</ele>
        <time>2022-08-25T07:58:44Z</time>
      </trkpt>
      <trkpt lat="42.77249399999995" lon="-1.6946680000000027">
        <ele>475.274</ele>
        <time>2022-08-25T07:58:45Z</time>
      </trkpt>
      <trkpt lat="42.77247199999995" lon="-1.6946960000000026">
        <ele>475.286</ele>
        <time>2022-08-25T07:58:46Z</time>
      </trkpt>
      <trkpt lat="42.77246199999995" lon="-1.6947120000000027">
        <ele>475.460</ele>
        <time>2022-08-25T07:58:47Z</time>
      </trkpt>
      <trkpt lat="42.77245099999995" lon="-1.6947240000000026">
        <ele>475.626</ele>
        <time>2022-08-25T07:58:48Z</time>
      </trkpt>
      <trkpt lat="42.772442999999946" lon="-1.6947380000000025">
        <ele>475.609</ele>
        <time>2022-08-25T07:58:49Z</time>
      </trkpt>
      <trkpt lat="42.772434999999945" lon="-1.6947520000000025">
        <ele>475.829</ele>
        <time>2022-08-25T07:58:50Z</time>
      </trkpt>
      <trkpt lat="42.772426999999944" lon="-1.6947670000000026">
        <ele>476.079</ele>
        <time>2022-08-25T07:58:51Z</time>
      </trkpt>
      <trkpt lat="42.772414999999945" lon="-1.6947820000000027">
        <ele>475.829</ele>
        <time>2022-08-25T07:58:52Z</time>
      </trkpt>
      <trkpt lat="42.772403999999945" lon="-1.6947940000000026">
        <ele>476.235</ele>
        <time>2022-08-25T07:58:53Z</time>
      </trkpt>
      <trkpt lat="42.772392999999944" lon="-1.6948060000000025">
        <ele>476.297</ele>
        <time>2022-08-25T07:58:54Z</time>
      </trkpt>
      <trkpt lat="42.772380999999946" lon="-1.6948200000000024">
        <ele>476.254</ele>
        <time>2022-08-25T07:58:55Z</time>
      </trkpt>
      <trkpt lat="42.77236899999995" lon="-1.6948350000000025">
        <ele>476.497</ele>
        <time>2022-08-25T07:58:56Z</time>
      </trkpt>
      <trkpt lat="42.77235799999995" lon="-1.6948530000000026">
        <ele>476.613</ele>
        <time>2022-08-25T07:58:57Z</time>
      </trkpt>
      <trkpt lat="42.772347999999944" lon="-1.6948690000000026">
        <ele>476.874</ele>
        <time>2022-08-25T07:58:58Z</time>
      </trkpt>
      <trkpt lat="42.77234099999995" lon="-1.6948830000000026">
        <ele>477.081</ele>
        <time>2022-08-25T07:58:59Z</time>
      </trkpt>
      <trkpt lat="42.77234099999995" lon="-1.6948830000000026">
        <ele>477.061</ele>
        <time>2022-08-25T07:59:00Z</time>
      </trkpt>
      <trkpt lat="42.77232899999995" lon="-1.6949090000000027">
        <ele>476.817</ele>
        <time>2022-08-25T07:59:01Z</time>
      </trkpt>
      <trkpt lat="42.77232199999995" lon="-1.6949250000000027">
        <ele>477.209</ele>
        <time>2022-08-25T07:59:02Z</time>
      </trkpt>
      <trkpt lat="42.772315999999954" lon="-1.6949380000000027">
        <ele>477.229</ele>
        <time>2022-08-25T07:59:03Z</time>
      </trkpt>
      <trkpt lat="42.77230799999995" lon="-1.6949520000000027">
        <ele>477.239</ele>
        <time>2022-08-25T07:59:04Z</time>
      </trkpt>
      <trkpt lat="42.77230799999995" lon="-1.6949520000000027">
        <ele>477.229</ele>
        <time>2022-08-25T07:59:05Z</time>
      </trkpt>
      <trkpt lat="42.772284999999954" lon="-1.6949850000000026">
        <ele>477.625</ele>
        <time>2022-08-25T07:59:06Z</time>
      </trkpt>
      <trkpt lat="42.77227399999995" lon="-1.6949990000000026">
        <ele>477.867</ele>
        <time>2022-08-25T07:59:07Z</time>
      </trkpt>
      <trkpt lat="42.77227399999995" lon="-1.6949990000000026">
        <ele>478.044</ele>
        <time>2022-08-25T07:59:08Z</time>
      </trkpt>
      <trkpt lat="42.772250999999955" lon="-1.6950310000000026">
        <ele>478.287</ele>
        <time>2022-08-25T07:59:09Z</time>
      </trkpt>
      <trkpt lat="42.77223799999995" lon="-1.6950490000000027">
        <ele>478.413</ele>
        <time>2022-08-25T07:59:10Z</time>
      </trkpt>
      <trkpt lat="42.77222399999995" lon="-1.6950670000000028">
        <ele>478.234</ele>
        <time>2022-08-25T07:59:11Z</time>
      </trkpt>
      <trkpt lat="42.77221199999995" lon="-1.6950830000000028">
        <ele>478.439</ele>
        <time>2022-08-25T07:59:12Z</time>
      </trkpt>
      <trkpt lat="42.77220199999995" lon="-1.6951000000000027">
        <ele>478.401</ele>
        <time>2022-08-25T07:59:13Z</time>
      </trkpt>
      <trkpt lat="42.77218899999995" lon="-1.6951170000000026">
        <ele>478.421</ele>
        <time>2022-08-25T07:59:14Z</time>
      </trkpt>
      <trkpt lat="42.772175999999945" lon="-1.6951360000000026">
        <ele>478.409</ele>
        <time>2022-08-25T07:59:15Z</time>
      </trkpt>
      <trkpt lat="42.772161999999945" lon="-1.6951530000000026">
        <ele>478.464</ele>
        <time>2022-08-25T07:59:16Z</time>
      </trkpt>
      <trkpt lat="42.772147999999945" lon="-1.6951690000000026">
        <ele>478.854</ele>
        <time>2022-08-25T07:59:17Z</time>
      </trkpt>
      <trkpt lat="42.772135999999946" lon="-1.6951870000000027">
        <ele>478.844</ele>
        <time>2022-08-25T07:59:18Z</time>
      </trkpt>
      <trkpt lat="42.772124999999946" lon="-1.6952040000000026">
        <ele>479.280</ele>
        <time>2022-08-25T07:59:19Z</time>
      </trkpt>
      <trkpt lat="42.77211299999995" lon="-1.6952220000000027">
        <ele>479.082</ele>
        <time>2022-08-25T07:59:20Z</time>
      </trkpt>
      <trkpt lat="42.77210099999995" lon="-1.6952380000000027">
        <ele>479.289</ele>
        <time>2022-08-25T07:59:21Z</time>
      </trkpt>
      <trkpt lat="42.77209199999995" lon="-1.6952560000000028">
        <ele>479.272</ele>
        <time>2022-08-25T07:59:22Z</time>
      </trkpt>
      <trkpt lat="42.77208299999995" lon="-1.6952770000000028">
        <ele>479.458</ele>
        <time>2022-08-25T07:59:23Z</time>
      </trkpt>
      <trkpt lat="42.77208299999995" lon="-1.6952770000000028">
        <ele>479.839</ele>
        <time>2022-08-25T07:59:24Z</time>
      </trkpt>
      <trkpt lat="42.772061999999956" lon="-1.6953150000000028">
        <ele>479.886</ele>
        <time>2022-08-25T07:59:25Z</time>
      </trkpt>
      <trkpt lat="42.77205499999996" lon="-1.6953320000000027">
        <ele>480.060</ele>
        <time>2022-08-25T07:59:26Z</time>
      </trkpt>
      <trkpt lat="42.77204399999996" lon="-1.6953520000000026">
        <ele>480.226</ele>
        <time>2022-08-25T07:59:27Z</time>
      </trkpt>
      <trkpt lat="42.77204399999996" lon="-1.6953520000000026">
        <ele>480.209</ele>
        <time>2022-08-25T07:59:28Z</time>
      </trkpt>
      <trkpt lat="42.77203499999996" lon="-1.6953690000000026">
        <ele>480.489</ele>
        <time>2022-08-25T07:59:29Z</time>
      </trkpt>
      <trkpt lat="42.77201399999996" lon="-1.6954120000000026">
        <ele>480.669</ele>
        <time>2022-08-25T07:59:30Z</time>
      </trkpt>
      <trkpt lat="42.77200399999996" lon="-1.6954370000000025">
        <ele>480.629</ele>
        <time>2022-08-25T07:59:31Z</time>
      </trkpt>
      <trkpt lat="42.77199399999996" lon="-1.6954570000000024">
        <ele>481.035</ele>
        <time>2022-08-25T07:59:32Z</time>
      </trkpt>
      <trkpt lat="42.771985999999956" lon="-1.6954740000000024">
        <ele>481.087</ele>
        <time>2022-08-25T07:59:33Z</time>
      </trkpt>
      <trkpt lat="42.77197599999995" lon="-1.6954920000000024">
        <ele>481.024</ele>
        <time>2022-08-25T07:59:34Z</time>
      </trkpt>
      <trkpt lat="42.771963999999954" lon="-1.6955170000000024">
        <ele>481.267</ele>
        <time>2022-08-25T07:59:35Z</time>
      </trkpt>
      <trkpt lat="42.77195399999995" lon="-1.6955360000000024">
        <ele>481.293</ele>
        <time>2022-08-25T07:59:36Z</time>
      </trkpt>
      <trkpt lat="42.77194799999995" lon="-1.6955560000000023">
        <ele>481.224</ele>
        <time>2022-08-25T07:59:37Z</time>
      </trkpt>
      <trkpt lat="42.77194199999995" lon="-1.6955710000000024">
        <ele>481.258</ele>
        <time>2022-08-25T07:59:38Z</time>
      </trkpt>
      <trkpt lat="42.77194199999995" lon="-1.6955710000000024">
        <ele>481.252</ele>
        <time>2022-08-25T07:59:39Z</time>
      </trkpt>
      <trkpt lat="42.771926999999955" lon="-1.6956130000000025">
        <ele>481.217</ele>
        <time>2022-08-25T07:59:40Z</time>
      </trkpt>
      <trkpt lat="42.77191699999995" lon="-1.6956320000000025">
        <ele>481.409</ele>
        <time>2022-08-25T07:59:41Z</time>
      </trkpt>
      <trkpt lat="42.77190699999995" lon="-1.6956510000000025">
        <ele>481.466</ele>
        <time>2022-08-25T07:59:42Z</time>
      </trkpt>
      <trkpt lat="42.77189799999995" lon="-1.6956680000000024">
        <ele>481.686</ele>
        <time>2022-08-25T07:59:43Z</time>
      </trkpt>
      <trkpt lat="42.77188999999995" lon="-1.6956950000000024">
        <ele>481.836</ele>
        <time>2022-08-25T07:59:44Z</time>
      </trkpt>
      <trkpt lat="42.77188199999995" lon="-1.6957150000000023">
        <ele>481.812</ele>
        <time>2022-08-25T07:59:45Z</time>
      </trkpt>
      <trkpt lat="42.77187399999995" lon="-1.6957290000000023">
        <ele>482.014</ele>
        <time>2022-08-25T07:59:46Z</time>
      </trkpt>
      <trkpt lat="42.771865999999946" lon="-1.6957440000000024">
        <ele>482.021</ele>
        <time>2022-08-25T07:59:47Z</time>
      </trkpt>
      <trkpt lat="42.77186199999995" lon="-1.6957600000000024">
        <ele>482.094</ele>
        <time>2022-08-25T07:59:48Z</time>
      </trkpt>
      <trkpt lat="42.77185299999995" lon="-1.6957870000000024">
        <ele>482.040</ele>
        <time>2022-08-25T07:59:49Z</time>
      </trkpt>
      <trkpt lat="42.77184199999995" lon="-1.6958150000000023">
        <ele>482.231</ele>
        <time>2022-08-25T07:59:50Z</time>
      </trkpt>
      <trkpt lat="42.77184199999995" lon="-1.6958150000000023">
        <ele>482.243</ele>
        <time>2022-08-25T07:59:51Z</time>
      </trkpt>
      <trkpt lat="42.77181199999995" lon="-1.6958990000000023">
        <ele>482.264</ele>
        <time>2022-08-25T07:59:53Z</time>
      </trkpt>
      <trkpt lat="42.771801999999944" lon="-1.6959260000000023">
        <ele>482.210</ele>
        <time>2022-08-25T07:59:54Z</time>
      </trkpt>
      <trkpt lat="42.771789999999946" lon="-1.6959470000000023">
        <ele>482.209</ele>
        <time>2022-08-25T07:59:55Z</time>
      </trkpt>
      <trkpt lat="42.771778999999945" lon="-1.6959690000000023">
        <ele>482.225</ele>
        <time>2022-08-25T07:59:56Z</time>
      </trkpt>
      <trkpt lat="42.771739999999944" lon="-1.6960650000000024">
        <ele>482.265</ele>
        <time>2022-08-25T08:00:00Z</time>
      </trkpt>
      <trkpt lat="42.771719999999945" lon="-1.6961100000000024">
        <ele>482.625</ele>
        <time>2022-08-25T08:00:02Z</time>
      </trkpt>
      <trkpt lat="42.771719999999945" lon="-1.6961100000000024">
        <ele>482.631</ele>
        <time>2022-08-25T08:00:03Z</time>
      </trkpt>
      <trkpt lat="42.77168999999994" lon="-1.6961720000000025">
        <ele>482.823</ele>
        <time>2022-08-25T08:00:05Z</time>
      </trkpt>
      <trkpt lat="42.771682999999946" lon="-1.6961870000000026">
        <ele>482.880</ele>
        <time>2022-08-25T08:00:06Z</time>
      </trkpt>
      <trkpt lat="42.771654999999946" lon="-1.6962520000000025">
        <ele>483.033</ele>
        <time>2022-08-25T08:00:09Z</time>
      </trkpt>
      <trkpt lat="42.77164799999995" lon="-1.6962740000000025">
        <ele>483.269</ele>
        <time>2022-08-25T08:00:10Z</time>
      </trkpt>
      <trkpt lat="42.77163899999995" lon="-1.6962940000000024">
        <ele>483.480</ele>
        <time>2022-08-25T08:00:11Z</time>
      </trkpt>
      <trkpt lat="42.77162999999995" lon="-1.6963090000000025">
        <ele>483.658</ele>
        <time>2022-08-25T08:00:12Z</time>
      </trkpt>
      <trkpt lat="42.771622999999956" lon="-1.6963280000000025">
        <ele>483.652</ele>
        <time>2022-08-25T08:00:13Z</time>
      </trkpt>
      <trkpt lat="42.771608999999955" lon="-1.6963440000000025">
        <ele>483.617</ele>
        <time>2022-08-25T08:00:14Z</time>
      </trkpt>
      <trkpt lat="42.77159299999995" lon="-1.6963550000000025">
        <ele>483.809</ele>
        <time>2022-08-25T08:00:15Z</time>
      </trkpt>
      <trkpt lat="42.77158199999995" lon="-1.6963720000000024">
        <ele>484.026</ele>
        <time>2022-08-25T08:00:16Z</time>
      </trkpt>
      <trkpt lat="42.77157199999995" lon="-1.6963930000000025">
        <ele>484.046</ele>
        <time>2022-08-25T08:00:17Z</time>
      </trkpt>
      <trkpt lat="42.77155199999995" lon="-1.6964300000000025">
        <ele>484.266</ele>
        <time>2022-08-25T08:00:19Z</time>
      </trkpt>
      <trkpt lat="42.77154299999995" lon="-1.6964480000000026">
        <ele>484.492</ele>
        <time>2022-08-25T08:00:20Z</time>
      </trkpt>
      <trkpt lat="42.77150699999995" lon="-1.6965260000000026">
        <ele>485.264</ele>
        <time>2022-08-25T08:00:24Z</time>
      </trkpt>
      <trkpt lat="42.77148199999995" lon="-1.6965660000000027">
        <ele>485.621</ele>
        <time>2022-08-25T08:00:26Z</time>
      </trkpt>
      <trkpt lat="42.771471999999946" lon="-1.6965840000000028">
        <ele>485.664</ele>
        <time>2022-08-25T08:00:27Z</time>
      </trkpt>
      <trkpt lat="42.771463999999945" lon="-1.6965990000000029">
        <ele>485.820</ele>
        <time>2022-08-25T08:00:28Z</time>
      </trkpt>
      <trkpt lat="42.77145199999995" lon="-1.696622000000003">
        <ele>485.821</ele>
        <time>2022-08-25T08:00:29Z</time>
      </trkpt>
      <trkpt lat="42.771443999999946" lon="-1.6966420000000029">
        <ele>486.042</ele>
        <time>2022-08-25T08:00:30Z</time>
      </trkpt>
      <trkpt lat="42.771435999999944" lon="-1.696663000000003">
        <ele>486.222</ele>
        <time>2022-08-25T08:00:31Z</time>
      </trkpt>
      <trkpt lat="42.771429999999945" lon="-1.696684000000003">
        <ele>486.214</ele>
        <time>2022-08-25T08:00:32Z</time>
      </trkpt>
      <trkpt lat="42.771429999999945" lon="-1.696684000000003">
        <ele>486.409</ele>
        <time>2022-08-25T08:00:33Z</time>
      </trkpt>
      <trkpt lat="42.771415999999945" lon="-1.696728000000003">
        <ele>486.485</ele>
        <time>2022-08-25T08:00:34Z</time>
      </trkpt>
      <trkpt lat="42.77141199999995" lon="-1.696751000000003">
        <ele>486.635</ele>
        <time>2022-08-25T08:00:35Z</time>
      </trkpt>
      <trkpt lat="42.77140599999995" lon="-1.696775000000003">
        <ele>486.895</ele>
        <time>2022-08-25T08:00:36Z</time>
      </trkpt>
      <trkpt lat="42.77140199999995" lon="-1.696800000000003">
        <ele>487.021</ele>
        <time>2022-08-25T08:00:37Z</time>
      </trkpt>
      <trkpt lat="42.77139699999995" lon="-1.696823000000003">
        <ele>487.243</ele>
        <time>2022-08-25T08:00:38Z</time>
      </trkpt>
      <trkpt lat="42.771389999999954" lon="-1.6968460000000032">
        <ele>487.210</ele>
        <time>2022-08-25T08:00:39Z</time>
      </trkpt>
      <trkpt lat="42.77138499999995" lon="-1.6968690000000033">
        <ele>487.863</ele>
        <time>2022-08-25T08:00:40Z</time>
      </trkpt>
      <trkpt lat="42.771380999999955" lon="-1.6968860000000032">
        <ele>488.029</ele>
        <time>2022-08-25T08:00:41Z</time>
      </trkpt>
      <trkpt lat="42.77137699999996" lon="-1.6969090000000033">
        <ele>488.250</ele>
        <time>2022-08-25T08:00:42Z</time>
      </trkpt>
      <trkpt lat="42.77137399999996" lon="-1.6969360000000033">
        <ele>488.454</ele>
        <time>2022-08-25T08:00:43Z</time>
      </trkpt>
      <trkpt lat="42.77137399999996" lon="-1.6969360000000033">
        <ele>488.656</ele>
        <time>2022-08-25T08:00:44Z</time>
      </trkpt>
      <trkpt lat="42.77136999999996" lon="-1.6969760000000034">
        <ele>489.011</ele>
        <time>2022-08-25T08:00:45Z</time>
      </trkpt>
      <trkpt lat="42.77136799999996" lon="-1.6969980000000033">
        <ele>489.209</ele>
        <time>2022-08-25T08:00:46Z</time>
      </trkpt>
      <trkpt lat="42.77136799999996" lon="-1.6969980000000033">
        <ele>489.286</ele>
        <time>2022-08-25T08:00:47Z</time>
      </trkpt>
      <trkpt lat="42.77135999999996" lon="-1.6970470000000033">
        <ele>489.496</ele>
        <time>2022-08-25T08:00:48Z</time>
      </trkpt>
      <trkpt lat="42.77135899999996" lon="-1.6970700000000034">
        <ele>489.656</ele>
        <time>2022-08-25T08:00:49Z</time>
      </trkpt>
      <trkpt lat="42.77135599999996" lon="-1.6970860000000034">
        <ele>489.862</ele>
        <time>2022-08-25T08:00:50Z</time>
      </trkpt>
      <trkpt lat="42.77135299999996" lon="-1.6971080000000034">
        <ele>490.084</ele>
        <time>2022-08-25T08:00:51Z</time>
      </trkpt>
      <trkpt lat="42.77135299999996" lon="-1.6971080000000034">
        <ele>490.251</ele>
        <time>2022-08-25T08:00:52Z</time>
      </trkpt>
      <trkpt lat="42.771351999999965" lon="-1.6971570000000034">
        <ele>490.274</ele>
        <time>2022-08-25T08:00:53Z</time>
      </trkpt>
      <trkpt lat="42.771348999999965" lon="-1.6971860000000034">
        <ele>490.660</ele>
        <time>2022-08-25T08:00:54Z</time>
      </trkpt>
      <trkpt lat="42.77134499999997" lon="-1.6972060000000033">
        <ele>490.641</ele>
        <time>2022-08-25T08:00:55Z</time>
      </trkpt>
      <trkpt lat="42.77134099999997" lon="-1.6972330000000033">
        <ele>490.892</ele>
        <time>2022-08-25T08:00:56Z</time>
      </trkpt>
      <trkpt lat="42.77134099999997" lon="-1.6972330000000033">
        <ele>490.873</ele>
        <time>2022-08-25T08:00:57Z</time>
      </trkpt>
      <trkpt lat="42.77132899999997" lon="-1.6972890000000034">
        <ele>490.820</ele>
        <time>2022-08-25T08:00:58Z</time>
      </trkpt>
      <trkpt lat="42.77132599999997" lon="-1.6973170000000033">
        <ele>491.009</ele>
        <time>2022-08-25T08:00:59Z</time>
      </trkpt>
      <trkpt lat="42.771322999999974" lon="-1.6973400000000034">
        <ele>491.020</ele>
        <time>2022-08-25T08:01:00Z</time>
      </trkpt>
      <trkpt lat="42.77131899999998" lon="-1.6973680000000033">
        <ele>491.070</ele>
        <time>2022-08-25T08:01:01Z</time>
      </trkpt>
      <trkpt lat="42.77131499999998" lon="-1.6974030000000033">
        <ele>491.240</ele>
        <time>2022-08-25T08:01:02Z</time>
      </trkpt>
      <trkpt lat="42.77130999999998" lon="-1.6974270000000033">
        <ele>491.226</ele>
        <time>2022-08-25T08:01:03Z</time>
      </trkpt>
      <trkpt lat="42.77130399999998" lon="-1.6974650000000033">
        <ele>491.258</ele>
        <time>2022-08-25T08:01:04Z</time>
      </trkpt>
      <trkpt lat="42.77130099999998" lon="-1.6974910000000034">
        <ele>491.645</ele>
        <time>2022-08-25T08:01:05Z</time>
      </trkpt>
      <trkpt lat="42.77129399999998" lon="-1.6975230000000034">
        <ele>491.848</ele>
        <time>2022-08-25T08:01:06Z</time>
      </trkpt>
      <trkpt lat="42.77128599999998" lon="-1.6975620000000033">
        <ele>491.824</ele>
        <time>2022-08-25T08:01:07Z</time>
      </trkpt>
      <trkpt lat="42.77128599999998" lon="-1.6975620000000033">
        <ele>491.845</ele>
        <time>2022-08-25T08:01:08Z</time>
      </trkpt>
      <trkpt lat="42.771270999999984" lon="-1.6976240000000034">
        <ele>491.878</ele>
        <time>2022-08-25T08:01:09Z</time>
      </trkpt>
      <trkpt lat="42.77126299999998" lon="-1.6976590000000034">
        <ele>491.633</ele>
        <time>2022-08-25T08:01:10Z</time>
      </trkpt>
      <trkpt lat="42.771253999999985" lon="-1.6976940000000034">
        <ele>491.626</ele>
        <time>2022-08-25T08:01:11Z</time>
      </trkpt>
      <trkpt lat="42.771242999999984" lon="-1.6977340000000034">
        <ele>491.609</ele>
        <time>2022-08-25T08:01:12Z</time>
      </trkpt>
      <trkpt lat="42.771236999999985" lon="-1.6977660000000034">
        <ele>491.678</ele>
        <time>2022-08-25T08:01:13Z</time>
      </trkpt>
      <trkpt lat="42.771228999999984" lon="-1.6977930000000034">
        <ele>491.428</ele>
        <time>2022-08-25T08:01:14Z</time>
      </trkpt>
      <trkpt lat="42.771216999999986" lon="-1.6978270000000035">
        <ele>491.428</ele>
        <time>2022-08-25T08:01:15Z</time>
      </trkpt>
      <trkpt lat="42.771216999999986" lon="-1.6978270000000035">
        <ele>491.634</ele>
        <time>2022-08-25T08:01:16Z</time>
      </trkpt>
      <trkpt lat="42.771135999999984" lon="-1.6980340000000036">
        <ele>491.426</ele>
        <time>2022-08-25T08:01:20Z</time>
      </trkpt>
      <trkpt lat="42.77097099999998" lon="-1.6983550000000036">
        <ele>490.863</ele>
        <time>2022-08-25T08:01:27Z</time>
      </trkpt>
      <trkpt lat="42.770758999999984" lon="-1.6986980000000036">
        <ele>489.856</ele>
        <time>2022-08-25T08:01:34Z</time>
      </trkpt>
      <trkpt lat="42.77072699999999" lon="-1.6987460000000036">
        <ele>489.652</ele>
        <time>2022-08-25T08:01:35Z</time>
      </trkpt>
      <trkpt lat="42.77059099999999" lon="-1.6989510000000037">
        <ele>488.853</ele>
        <time>2022-08-25T08:01:39Z</time>
      </trkpt>
      <trkpt lat="42.77042499999999" lon="-1.6992000000000036">
        <ele>487.835</ele>
        <time>2022-08-25T08:01:44Z</time>
      </trkpt>
      <trkpt lat="42.77038199999999" lon="-1.6992580000000035">
        <ele>487.686</ele>
        <time>2022-08-25T08:01:45Z</time>
      </trkpt>
      <trkpt lat="42.77014199999999" lon="-1.6995260000000034">
        <ele>486.614</ele>
        <time>2022-08-25T08:01:51Z</time>
      </trkpt>
      <trkpt lat="42.770098999999995" lon="-1.6995660000000035">
        <ele>486.409</ele>
        <time>2022-08-25T08:01:52Z</time>
      </trkpt>
      <trkpt lat="42.770058999999996" lon="-1.6996050000000034">
        <ele>486.474</ele>
        <time>2022-08-25T08:01:53Z</time>
      </trkpt>
      <trkpt lat="42.770058999999996" lon="-1.6996050000000034">
        <ele>486.244</ele>
        <time>2022-08-25T08:01:54Z</time>
      </trkpt>
      <trkpt lat="42.769976" lon="-1.6996820000000035">
        <ele>485.864</ele>
        <time>2022-08-25T08:01:55Z</time>
      </trkpt>
      <trkpt lat="42.769895" lon="-1.6997620000000035">
        <ele>485.460</ele>
        <time>2022-08-25T08:01:57Z</time>
      </trkpt>
      <trkpt lat="42.769639" lon="-1.7000120000000036">
        <ele>484.882</ele>
        <time>2022-08-25T08:02:03Z</time>
      </trkpt>
      <trkpt lat="42.769597" lon="-1.7000530000000036">
        <ele>484.679</ele>
        <time>2022-08-25T08:02:05Z</time>
      </trkpt>
      <trkpt lat="42.769514" lon="-1.7001340000000036">
        <ele>484.642</ele>
        <time>2022-08-25T08:02:06Z</time>
      </trkpt>
      <trkpt lat="42.769514" lon="-1.7001340000000036">
        <ele>484.478</ele>
        <time>2022-08-25T08:02:07Z</time>
      </trkpt>
      <trkpt lat="42.769436" lon="-1.7002130000000035">
        <ele>484.239</ele>
        <time>2022-08-25T08:02:08Z</time>
      </trkpt>
      <trkpt lat="42.769397" lon="-1.7002490000000035">
        <ele>484.057</ele>
        <time>2022-08-25T08:02:09Z</time>
      </trkpt>
      <trkpt lat="42.76936" lon="-1.7002840000000035">
        <ele>483.800</ele>
        <time>2022-08-25T08:02:10Z</time>
      </trkpt>
      <trkpt lat="42.769323" lon="-1.7003190000000035">
        <ele>483.620</ele>
        <time>2022-08-25T08:02:11Z</time>
      </trkpt>
      <trkpt lat="42.769287" lon="-1.7003530000000036">
        <ele>483.609</ele>
        <time>2022-08-25T08:02:12Z</time>
      </trkpt>
      <trkpt lat="42.769252" lon="-1.7003890000000035">
        <ele>483.696</ele>
        <time>2022-08-25T08:02:13Z</time>
      </trkpt>
      <trkpt lat="42.769145" lon="-1.7004940000000035">
        <ele>483.686</ele>
        <time>2022-08-25T08:02:16Z</time>
      </trkpt>
      <trkpt lat="42.768997" lon="-1.7006220000000034">
        <ele>484.096</ele>
        <time>2022-08-25T08:02:20Z</time>
      </trkpt>
      <trkpt lat="42.768926" lon="-1.7006880000000033">
        <ele>484.062</ele>
        <time>2022-08-25T08:02:22Z</time>
      </trkpt>
      <trkpt lat="42.768889" lon="-1.7007160000000032">
        <ele>484.094</ele>
        <time>2022-08-25T08:02:23Z</time>
      </trkpt>
      <trkpt lat="42.768852" lon="-1.7007390000000033">
        <ele>484.041</ele>
        <time>2022-08-25T08:02:24Z</time>
      </trkpt>
      <trkpt lat="42.768814" lon="-1.7007570000000034">
        <ele>484.294</ele>
        <time>2022-08-25T08:02:25Z</time>
      </trkpt>
      <trkpt lat="42.768775" lon="-1.7007750000000035">
        <ele>484.480</ele>
        <time>2022-08-25T08:02:26Z</time>
      </trkpt>
      <trkpt lat="42.768698" lon="-1.7008230000000035">
        <ele>484.051</ele>
        <time>2022-08-25T08:02:28Z</time>
      </trkpt>
      <trkpt lat="42.768587000000004" lon="-1.7008960000000035">
        <ele>484.085</ele>
        <time>2022-08-25T08:02:31Z</time>
      </trkpt>
      <trkpt lat="42.768432000000004" lon="-1.7009810000000034">
        <ele>484.689</ele>
        <time>2022-08-25T08:02:35Z</time>
      </trkpt>
      <trkpt lat="42.76832100000001" lon="-1.7010450000000035">
        <ele>484.217</ele>
        <time>2022-08-25T08:02:38Z</time>
      </trkpt>
      <trkpt lat="42.76828400000001" lon="-1.7010660000000035">
        <ele>484.209</ele>
        <time>2022-08-25T08:02:39Z</time>
      </trkpt>
      <trkpt lat="42.768246000000005" lon="-1.7010860000000034">
        <ele>484.069</ele>
        <time>2022-08-25T08:02:40Z</time>
      </trkpt>
      <trkpt lat="42.768246000000005" lon="-1.7010860000000034">
        <ele>484.069</ele>
        <time>2022-08-25T08:02:41Z</time>
      </trkpt>
      <trkpt lat="42.76816900000001" lon="-1.7011230000000035">
        <ele>484.049</ele>
        <time>2022-08-25T08:02:42Z</time>
      </trkpt>
      <trkpt lat="42.76813200000001" lon="-1.7011430000000034">
        <ele>484.045</ele>
        <time>2022-08-25T08:02:43Z</time>
      </trkpt>
      <trkpt lat="42.76809800000001" lon="-1.7011660000000035">
        <ele>484.287</ele>
        <time>2022-08-25T08:02:44Z</time>
      </trkpt>
      <trkpt lat="42.76806600000001" lon="-1.7011890000000036">
        <ele>484.224</ele>
        <time>2022-08-25T08:02:45Z</time>
      </trkpt>
      <trkpt lat="42.76803000000001" lon="-1.7012150000000037">
        <ele>484.277</ele>
        <time>2022-08-25T08:02:46Z</time>
      </trkpt>
      <trkpt lat="42.76797100000001" lon="-1.7012660000000037">
        <ele>484.273</ele>
        <time>2022-08-25T08:02:48Z</time>
      </trkpt>
      <trkpt lat="42.76794200000001" lon="-1.7012850000000037">
        <ele>484.444</ele>
        <time>2022-08-25T08:02:49Z</time>
      </trkpt>
      <trkpt lat="42.76794200000001" lon="-1.7012850000000037">
        <ele>484.633</ele>
        <time>2022-08-25T08:02:50Z</time>
      </trkpt>
      <trkpt lat="42.767879000000015" lon="-1.7013210000000036">
        <ele>484.623</ele>
        <time>2022-08-25T08:02:51Z</time>
      </trkpt>
      <trkpt lat="42.76785000000002" lon="-1.7013380000000036">
        <ele>484.815</ele>
        <time>2022-08-25T08:02:52Z</time>
      </trkpt>
      <trkpt lat="42.76782200000002" lon="-1.7013560000000036">
        <ele>484.809</ele>
        <time>2022-08-25T08:02:53Z</time>
      </trkpt>
      <trkpt lat="42.767792000000014" lon="-1.7013740000000037">
        <ele>485.064</ele>
        <time>2022-08-25T08:02:54Z</time>
      </trkpt>
      <trkpt lat="42.767763000000016" lon="-1.7013910000000037">
        <ele>485.254</ele>
        <time>2022-08-25T08:02:55Z</time>
      </trkpt>
      <trkpt lat="42.76773700000002" lon="-1.7014060000000037">
        <ele>485.484</ele>
        <time>2022-08-25T08:02:56Z</time>
      </trkpt>
      <trkpt lat="42.76770900000002" lon="-1.7014220000000038">
        <ele>485.420</ele>
        <time>2022-08-25T08:02:57Z</time>
      </trkpt>
      <trkpt lat="42.76768300000002" lon="-1.7014370000000039">
        <ele>485.442</ele>
        <time>2022-08-25T08:02:58Z</time>
      </trkpt>
      <trkpt lat="42.76768300000002" lon="-1.7014370000000039">
        <ele>485.689</ele>
        <time>2022-08-25T08:02:59Z</time>
      </trkpt>
      <trkpt lat="42.76763900000002" lon="-1.7014640000000039">
        <ele>485.662</ele>
        <time>2022-08-25T08:03:00Z</time>
      </trkpt>
      <trkpt lat="42.76761900000002" lon="-1.7014750000000038">
        <ele>485.848</ele>
        <time>2022-08-25T08:03:01Z</time>
      </trkpt>
      <trkpt lat="42.767600000000016" lon="-1.701482000000004">
        <ele>485.899</ele>
        <time>2022-08-25T08:03:02Z</time>
      </trkpt>
      <trkpt lat="42.767555000000016" lon="-1.701498000000004">
        <ele>486.077</ele>
        <time>2022-08-25T08:03:04Z</time>
      </trkpt>
      <trkpt lat="42.76753200000002" lon="-1.7015100000000039">
        <ele>486.261</ele>
        <time>2022-08-25T08:03:06Z</time>
      </trkpt>
      <trkpt lat="42.767491000000014" lon="-1.7015380000000038">
        <ele>486.227</ele>
        <time>2022-08-25T08:03:07Z</time>
      </trkpt>
      <trkpt lat="42.76747000000002" lon="-1.7015530000000039">
        <ele>486.209</ele>
        <time>2022-08-25T08:03:08Z</time>
      </trkpt>
      <trkpt lat="42.76745200000002" lon="-1.701568000000004">
        <ele>486.428</ele>
        <time>2022-08-25T08:03:09Z</time>
      </trkpt>
      <trkpt lat="42.76743100000002" lon="-1.701583000000004">
        <ele>486.648</ele>
        <time>2022-08-25T08:03:10Z</time>
      </trkpt>
      <trkpt lat="42.767414000000024" lon="-1.7015980000000042">
        <ele>486.638</ele>
        <time>2022-08-25T08:03:11Z</time>
      </trkpt>
      <trkpt lat="42.76740000000002" lon="-1.7016140000000042">
        <ele>486.854</ele>
        <time>2022-08-25T08:03:12Z</time>
      </trkpt>
      <trkpt lat="42.767368000000026" lon="-1.701645000000004">
        <ele>486.866</ele>
        <time>2022-08-25T08:03:14Z</time>
      </trkpt>
      <trkpt lat="42.767214000000024" lon="-1.701816000000004">
        <ele>486.823</ele>
        <time>2022-08-25T08:03:22Z</time>
      </trkpt>
      <trkpt lat="42.76706600000002" lon="-1.702027000000004">
        <ele>486.216</ele>
        <time>2022-08-25T08:03:29Z</time>
      </trkpt>
      <trkpt lat="42.767048000000024" lon="-1.702052000000004">
        <ele>486.422</ele>
        <time>2022-08-25T08:03:30Z</time>
      </trkpt>
      <trkpt lat="42.76703200000002" lon="-1.7020720000000038">
        <ele>486.053</ele>
        <time>2022-08-25T08:03:31Z</time>
      </trkpt>
      <trkpt lat="42.76701900000002" lon="-1.7020890000000037">
        <ele>485.688</ele>
        <time>2022-08-25T08:03:32Z</time>
      </trkpt>
      <trkpt lat="42.76701900000002" lon="-1.7020890000000037">
        <ele>485.424</ele>
        <time>2022-08-25T08:03:33Z</time>
      </trkpt>
      <trkpt lat="42.766995000000016" lon="-1.7021240000000037">
        <ele>485.426</ele>
        <time>2022-08-25T08:03:34Z</time>
      </trkpt>
      <trkpt lat="42.76698600000002" lon="-1.7021460000000037">
        <ele>485.409</ele>
        <time>2022-08-25T08:03:35Z</time>
      </trkpt>
      <trkpt lat="42.76693500000002" lon="-1.7022140000000037">
        <ele>485.219</ele>
        <time>2022-08-25T08:03:38Z</time>
      </trkpt>
      <trkpt lat="42.76681300000002" lon="-1.7023660000000036">
        <ele>485.039</ele>
        <time>2022-08-25T08:03:43Z</time>
      </trkpt>
      <trkpt lat="42.76673500000002" lon="-1.7024850000000036">
        <ele>484.859</ele>
        <time>2022-08-25T08:03:46Z</time>
      </trkpt>
      <trkpt lat="42.76666800000002" lon="-1.7026240000000035">
        <ele>484.865</ele>
        <time>2022-08-25T08:03:49Z</time>
      </trkpt>
      <trkpt lat="42.766537000000014" lon="-1.7028490000000034">
        <ele>484.497</ele>
        <time>2022-08-25T08:03:54Z</time>
      </trkpt>
      <trkpt lat="42.76648500000002" lon="-1.7029380000000034">
        <ele>484.474</ele>
        <time>2022-08-25T08:03:56Z</time>
      </trkpt>
      <trkpt lat="42.766461000000014" lon="-1.7029800000000035">
        <ele>484.067</ele>
        <time>2022-08-25T08:03:57Z</time>
      </trkpt>
      <trkpt lat="42.76643900000001" lon="-1.7030200000000035">
        <ele>483.853</ele>
        <time>2022-08-25T08:03:58Z</time>
      </trkpt>
      <trkpt lat="42.766418000000016" lon="-1.7030640000000035">
        <ele>484.044</ele>
        <time>2022-08-25T08:03:59Z</time>
      </trkpt>
      <trkpt lat="42.76639700000002" lon="-1.7031050000000034">
        <ele>484.255</ele>
        <time>2022-08-25T08:04:00Z</time>
      </trkpt>
      <trkpt lat="42.76628400000002" lon="-1.7033010000000035">
        <ele>483.607</ele>
        <time>2022-08-25T08:04:05Z</time>
      </trkpt>
      <trkpt lat="42.76622200000002" lon="-1.7034310000000035">
        <ele>483.617</ele>
        <time>2022-08-25T08:04:08Z</time>
      </trkpt>
      <trkpt lat="42.76609600000002" lon="-1.7036980000000035">
        <ele>483.609</ele>
        <time>2022-08-25T08:04:14Z</time>
      </trkpt>
      <trkpt lat="42.76607800000002" lon="-1.7037410000000035">
        <ele>483.656</ele>
        <time>2022-08-25T08:04:15Z</time>
      </trkpt>
      <trkpt lat="42.76606200000002" lon="-1.7037840000000035">
        <ele>483.696</ele>
        <time>2022-08-25T08:04:16Z</time>
      </trkpt>
      <trkpt lat="42.76604600000002" lon="-1.7038260000000036">
        <ele>483.666</ele>
        <time>2022-08-25T08:04:17Z</time>
      </trkpt>
      <trkpt lat="42.766030000000015" lon="-1.7038690000000036">
        <ele>483.672</ele>
        <time>2022-08-25T08:04:18Z</time>
      </trkpt>
      <trkpt lat="42.76601400000001" lon="-1.7039110000000037">
        <ele>483.674</ele>
        <time>2022-08-25T08:04:19Z</time>
      </trkpt>
      <trkpt lat="42.76599700000001" lon="-1.7039490000000037">
        <ele>483.671</ele>
        <time>2022-08-25T08:04:20Z</time>
      </trkpt>
      <trkpt lat="42.765979000000016" lon="-1.7039860000000038">
        <ele>483.824</ele>
        <time>2022-08-25T08:04:21Z</time>
      </trkpt>
      <trkpt lat="42.76595500000001" lon="-1.7040230000000038">
        <ele>483.840</ele>
        <time>2022-08-25T08:04:22Z</time>
      </trkpt>
      <trkpt lat="42.76593900000001" lon="-1.704057000000004">
        <ele>483.891</ele>
        <time>2022-08-25T08:04:23Z</time>
      </trkpt>
      <trkpt lat="42.76592700000001" lon="-1.704091000000004">
        <ele>483.823</ele>
        <time>2022-08-25T08:04:24Z</time>
      </trkpt>
      <trkpt lat="42.76591400000001" lon="-1.704122000000004">
        <ele>483.883</ele>
        <time>2022-08-25T08:04:25Z</time>
      </trkpt>
      <trkpt lat="42.76590100000001" lon="-1.7041500000000038">
        <ele>484.011</ele>
        <time>2022-08-25T08:04:26Z</time>
      </trkpt>
      <trkpt lat="42.765888000000004" lon="-1.7041790000000039">
        <ele>484.009</ele>
        <time>2022-08-25T08:04:27Z</time>
      </trkpt>
      <trkpt lat="42.765873000000006" lon="-1.7042090000000039">
        <ele>484.083</ele>
        <time>2022-08-25T08:04:28Z</time>
      </trkpt>
      <trkpt lat="42.765815" lon="-1.704330000000004">
        <ele>484.073</ele>
        <time>2022-08-25T08:04:32Z</time>
      </trkpt>
      <trkpt lat="42.765798000000004" lon="-1.704359000000004">
        <ele>484.053</ele>
        <time>2022-08-25T08:04:33Z</time>
      </trkpt>
      <trkpt lat="42.765708000000004" lon="-1.704504000000004">
        <ele>484.289</ele>
        <time>2022-08-25T08:04:38Z</time>
      </trkpt>
      <trkpt lat="42.765545" lon="-1.704749000000004">
        <ele>484.251</ele>
        <time>2022-08-25T08:04:46Z</time>
      </trkpt>
      <trkpt lat="42.765526" lon="-1.704781000000004">
        <ele>484.018</ele>
        <time>2022-08-25T08:04:47Z</time>
      </trkpt>
      <trkpt lat="42.76547" lon="-1.7048880000000042">
        <ele>484.081</ele>
        <time>2022-08-25T08:04:50Z</time>
      </trkpt>
      <trkpt lat="42.765417" lon="-1.7049910000000041">
        <ele>484.037</ele>
        <time>2022-08-25T08:04:53Z</time>
      </trkpt>
      <trkpt lat="42.765398" lon="-1.7050260000000041">
        <ele>484.078</ele>
        <time>2022-08-25T08:04:54Z</time>
      </trkpt>
      <trkpt lat="42.765378999999996" lon="-1.7050610000000042">
        <ele>484.033</ele>
        <time>2022-08-25T08:04:55Z</time>
      </trkpt>
      <trkpt lat="42.765274999999995" lon="-1.7053040000000041">
        <ele>484.223</ele>
        <time>2022-08-25T08:05:01Z</time>
      </trkpt>
      <trkpt lat="42.765263999999995" lon="-1.7053460000000042">
        <ele>484.215</ele>
        <time>2022-08-25T08:05:02Z</time>
      </trkpt>
      <trkpt lat="42.765254999999996" lon="-1.7053860000000043">
        <ele>484.209</ele>
        <time>2022-08-25T08:05:03Z</time>
      </trkpt>
      <trkpt lat="42.765246999999995" lon="-1.7054260000000043">
        <ele>484.284</ele>
        <time>2022-08-25T08:05:04Z</time>
      </trkpt>
      <trkpt lat="42.765238999999994" lon="-1.7054670000000043">
        <ele>484.064</ele>
        <time>2022-08-25T08:05:05Z</time>
      </trkpt>
      <trkpt lat="42.76521399999999" lon="-1.7056370000000043">
        <ele>484.044</ele>
        <time>2022-08-25T08:05:09Z</time>
      </trkpt>
      <trkpt lat="42.76520899999999" lon="-1.7056800000000043">
        <ele>484.010</ele>
        <time>2022-08-25T08:05:10Z</time>
      </trkpt>
      <trkpt lat="42.76519799999999" lon="-1.7057230000000043">
        <ele>484.052</ele>
        <time>2022-08-25T08:05:11Z</time>
      </trkpt>
      <trkpt lat="42.76515399999999" lon="-1.7058920000000044">
        <ele>484.059</ele>
        <time>2022-08-25T08:05:15Z</time>
      </trkpt>
      <trkpt lat="42.76511999999999" lon="-1.7060230000000045">
        <ele>484.472</ele>
        <time>2022-08-25T08:05:18Z</time>
      </trkpt>
      <trkpt lat="42.76506299999999" lon="-1.7062600000000046">
        <ele>484.628</ele>
        <time>2022-08-25T08:05:23Z</time>
      </trkpt>
      <trkpt lat="42.76504999999999" lon="-1.7063050000000046">
        <ele>484.619</ele>
        <time>2022-08-25T08:05:24Z</time>
      </trkpt>
      <trkpt lat="42.76503799999999" lon="-1.7063480000000046">
        <ele>484.686</ele>
        <time>2022-08-25T08:05:25Z</time>
      </trkpt>
      <trkpt lat="42.76502299999999" lon="-1.7064350000000046">
        <ele>485.260</ele>
        <time>2022-08-25T08:05:27Z</time>
      </trkpt>
      <trkpt lat="42.76501699999999" lon="-1.7064790000000045">
        <ele>485.426</ele>
        <time>2022-08-25T08:05:28Z</time>
      </trkpt>
      <trkpt lat="42.76500899999999" lon="-1.7065210000000046">
        <ele>485.409</ele>
        <time>2022-08-25T08:05:29Z</time>
      </trkpt>
      <trkpt lat="42.76500099999999" lon="-1.7065610000000047">
        <ele>485.699</ele>
        <time>2022-08-25T08:05:30Z</time>
      </trkpt>
      <trkpt lat="42.764993999999994" lon="-1.7066020000000046">
        <ele>485.899</ele>
        <time>2022-08-25T08:05:31Z</time>
      </trkpt>
      <trkpt lat="42.764965" lon="-1.7067660000000047">
        <ele>486.229</ele>
        <time>2022-08-25T08:05:35Z</time>
      </trkpt>
      <trkpt lat="42.76495499999999" lon="-1.7068070000000046">
        <ele>486.425</ele>
        <time>2022-08-25T08:05:36Z</time>
      </trkpt>
      <trkpt lat="42.764900999999995" lon="-1.7070200000000046">
        <ele>486.617</ele>
        <time>2022-08-25T08:05:41Z</time>
      </trkpt>
      <trkpt lat="42.764889999999994" lon="-1.7070640000000046">
        <ele>486.844</ele>
        <time>2022-08-25T08:05:42Z</time>
      </trkpt>
      <trkpt lat="42.764875999999994" lon="-1.7071070000000046">
        <ele>486.837</ele>
        <time>2022-08-25T08:05:43Z</time>
      </trkpt>
      <trkpt lat="42.764852999999995" lon="-1.7071880000000046">
        <ele>487.273</ele>
        <time>2022-08-25T08:05:45Z</time>
      </trkpt>
      <trkpt lat="42.764838999999995" lon="-1.7072240000000045">
        <ele>487.464</ele>
        <time>2022-08-25T08:05:46Z</time>
      </trkpt>
      <trkpt lat="42.76482599999999" lon="-1.7072480000000045">
        <ele>487.427</ele>
        <time>2022-08-25T08:05:47Z</time>
      </trkpt>
      <trkpt lat="42.76480599999999" lon="-1.7072810000000045">
        <ele>487.668</ele>
        <time>2022-08-25T08:05:48Z</time>
      </trkpt>
      <trkpt lat="42.76478999999999" lon="-1.7073110000000045">
        <ele>487.814</ele>
        <time>2022-08-25T08:05:49Z</time>
      </trkpt>
      <trkpt lat="42.76477699999999" lon="-1.7073390000000044">
        <ele>487.809</ele>
        <time>2022-08-25T08:05:50Z</time>
      </trkpt>
      <trkpt lat="42.76475999999999" lon="-1.7073650000000045">
        <ele>488.073</ele>
        <time>2022-08-25T08:05:51Z</time>
      </trkpt>
      <trkpt lat="42.76473899999999" lon="-1.7073930000000044">
        <ele>488.023</ele>
        <time>2022-08-25T08:05:52Z</time>
      </trkpt>
      <trkpt lat="42.76472599999999" lon="-1.7074180000000043">
        <ele>488.013</ele>
        <time>2022-08-25T08:05:53Z</time>
      </trkpt>
      <trkpt lat="42.76471199999999" lon="-1.7074410000000044">
        <ele>488.229</ele>
        <time>2022-08-25T08:05:54Z</time>
      </trkpt>
      <trkpt lat="42.76469699999999" lon="-1.7074630000000044">
        <ele>488.461</ele>
        <time>2022-08-25T08:05:55Z</time>
      </trkpt>
      <trkpt lat="42.76467999999999" lon="-1.7074890000000045">
        <ele>488.418</ele>
        <time>2022-08-25T08:05:56Z</time>
      </trkpt>
      <trkpt lat="42.76466099999999" lon="-1.7075140000000044">
        <ele>488.871</ele>
        <time>2022-08-25T08:05:57Z</time>
      </trkpt>
      <trkpt lat="42.76464799999999" lon="-1.7075380000000044">
        <ele>489.297</ele>
        <time>2022-08-25T08:05:58Z</time>
      </trkpt>
      <trkpt lat="42.764634999999984" lon="-1.7075600000000044">
        <ele>489.288</ele>
        <time>2022-08-25T08:05:59Z</time>
      </trkpt>
      <trkpt lat="42.76462199999998" lon="-1.7075830000000045">
        <ele>489.699</ele>
        <time>2022-08-25T08:06:00Z</time>
      </trkpt>
      <trkpt lat="42.76461199999998" lon="-1.7076090000000046">
        <ele>489.607</ele>
        <time>2022-08-25T08:06:01Z</time>
      </trkpt>
      <trkpt lat="42.76459999999998" lon="-1.7076330000000046">
        <ele>489.827</ele>
        <time>2022-08-25T08:06:02Z</time>
      </trkpt>
      <trkpt lat="42.76458999999998" lon="-1.7076570000000046">
        <ele>490.009</ele>
        <time>2022-08-25T08:06:03Z</time>
      </trkpt>
      <trkpt lat="42.76457799999998" lon="-1.7076840000000046">
        <ele>490.050</ele>
        <time>2022-08-25T08:06:04Z</time>
      </trkpt>
      <trkpt lat="42.76456599999998" lon="-1.7077080000000047">
        <ele>490.250</ele>
        <time>2022-08-25T08:06:05Z</time>
      </trkpt>
      <trkpt lat="42.76455199999998" lon="-1.7077340000000047">
        <ele>490.230</ele>
        <time>2022-08-25T08:06:06Z</time>
      </trkpt>
      <trkpt lat="42.76454099999998" lon="-1.7077620000000047">
        <ele>490.446</ele>
        <time>2022-08-25T08:06:07Z</time>
      </trkpt>
      <trkpt lat="42.76454099999998" lon="-1.7077620000000047">
        <ele>490.478</ele>
        <time>2022-08-25T08:06:08Z</time>
      </trkpt>
      <trkpt lat="42.76450899999998" lon="-1.7078150000000047">
        <ele>490.615</ele>
        <time>2022-08-25T08:06:09Z</time>
      </trkpt>
      <trkpt lat="42.76449199999998" lon="-1.7078430000000047">
        <ele>490.658</ele>
        <time>2022-08-25T08:06:10Z</time>
      </trkpt>
      <trkpt lat="42.76449199999998" lon="-1.7078430000000047">
        <ele>490.644</ele>
        <time>2022-08-25T08:06:11Z</time>
      </trkpt>
      <trkpt lat="42.76446799999998" lon="-1.7078900000000046">
        <ele>490.815</ele>
        <time>2022-08-25T08:06:12Z</time>
      </trkpt>
      <trkpt lat="42.76445199999998" lon="-1.7079150000000045">
        <ele>490.847</ele>
        <time>2022-08-25T08:06:13Z</time>
      </trkpt>
      <trkpt lat="42.764443999999976" lon="-1.7079410000000046">
        <ele>491.029</ele>
        <time>2022-08-25T08:06:14Z</time>
      </trkpt>
      <trkpt lat="42.764432999999975" lon="-1.7079600000000046">
        <ele>491.221</ele>
        <time>2022-08-25T08:06:15Z</time>
      </trkpt>
      <trkpt lat="42.76442099999998" lon="-1.7079800000000045">
        <ele>491.409</ele>
        <time>2022-08-25T08:06:16Z</time>
      </trkpt>
      <trkpt lat="42.76440699999998" lon="-1.7080040000000045">
        <ele>491.615</ele>
        <time>2022-08-25T08:06:17Z</time>
      </trkpt>
      <trkpt lat="42.764390999999975" lon="-1.7080260000000045">
        <ele>491.835</ele>
        <time>2022-08-25T08:06:18Z</time>
      </trkpt>
      <trkpt lat="42.764370999999976" lon="-1.7080440000000046">
        <ele>491.825</ele>
        <time>2022-08-25T08:06:19Z</time>
      </trkpt>
      <trkpt lat="42.76435499999997" lon="-1.7080640000000045">
        <ele>491.881</ele>
        <time>2022-08-25T08:06:20Z</time>
      </trkpt>
      <trkpt lat="42.764339999999976" lon="-1.7080830000000045">
        <ele>492.023</ele>
        <time>2022-08-25T08:06:21Z</time>
      </trkpt>
      <trkpt lat="42.764322999999976" lon="-1.7080990000000045">
        <ele>492.080</ele>
        <time>2022-08-25T08:06:22Z</time>
      </trkpt>
      <trkpt lat="42.764311999999975" lon="-1.7081130000000044">
        <ele>492.053</ele>
        <time>2022-08-25T08:06:23Z</time>
      </trkpt>
      <trkpt lat="42.764294999999976" lon="-1.7081270000000044">
        <ele>492.279</ele>
        <time>2022-08-25T08:06:24Z</time>
      </trkpt>
      <trkpt lat="42.764294999999976" lon="-1.7081270000000044">
        <ele>492.250</ele>
        <time>2022-08-25T08:06:25Z</time>
      </trkpt>
      <trkpt lat="42.76425799999998" lon="-1.7081680000000043">
        <ele>492.464</ele>
        <time>2022-08-25T08:06:26Z</time>
      </trkpt>
      <trkpt lat="42.76423699999998" lon="-1.7081910000000045">
        <ele>492.406</ele>
        <time>2022-08-25T08:06:27Z</time>
      </trkpt>
      <trkpt lat="42.76421199999998" lon="-1.7082130000000044">
        <ele>492.616</ele>
        <time>2022-08-25T08:06:28Z</time>
      </trkpt>
      <trkpt lat="42.76418599999998" lon="-1.7082340000000045">
        <ele>492.809</ele>
        <time>2022-08-25T08:06:29Z</time>
      </trkpt>
      <trkpt lat="42.76416399999998" lon="-1.7082530000000045">
        <ele>493.057</ele>
        <time>2022-08-25T08:06:30Z</time>
      </trkpt>
      <trkpt lat="42.76413799999998" lon="-1.7082690000000045">
        <ele>493.287</ele>
        <time>2022-08-25T08:06:31Z</time>
      </trkpt>
      <trkpt lat="42.76411899999998" lon="-1.7082830000000044">
        <ele>493.237</ele>
        <time>2022-08-25T08:06:32Z</time>
      </trkpt>
      <trkpt lat="42.76409999999998" lon="-1.7082990000000045">
        <ele>493.243</ele>
        <time>2022-08-25T08:06:33Z</time>
      </trkpt>
      <trkpt lat="42.76407799999998" lon="-1.7083200000000045">
        <ele>493.285</ele>
        <time>2022-08-25T08:06:34Z</time>
      </trkpt>
      <trkpt lat="42.76405699999998" lon="-1.7083360000000045">
        <ele>493.222</ele>
        <time>2022-08-25T08:06:35Z</time>
      </trkpt>
      <trkpt lat="42.76403799999998" lon="-1.7083520000000045">
        <ele>493.215</ele>
        <time>2022-08-25T08:06:36Z</time>
      </trkpt>
      <trkpt lat="42.76401999999998" lon="-1.7083640000000044">
        <ele>493.421</ele>
        <time>2022-08-25T08:06:37Z</time>
      </trkpt>
      <trkpt lat="42.76400099999998" lon="-1.7083810000000044">
        <ele>493.832</ele>
        <time>2022-08-25T08:06:38Z</time>
      </trkpt>
      <trkpt lat="42.76397999999998" lon="-1.7084040000000045">
        <ele>493.865</ele>
        <time>2022-08-25T08:06:39Z</time>
      </trkpt>
      <trkpt lat="42.763956999999984" lon="-1.7084290000000044">
        <ele>494.068</ele>
        <time>2022-08-25T08:06:40Z</time>
      </trkpt>
      <trkpt lat="42.76393799999998" lon="-1.7084520000000045">
        <ele>494.014</ele>
        <time>2022-08-25T08:06:41Z</time>
      </trkpt>
      <trkpt lat="42.76391599999998" lon="-1.7084790000000045">
        <ele>493.809</ele>
        <time>2022-08-25T08:06:42Z</time>
      </trkpt>
      <trkpt lat="42.76389299999998" lon="-1.7085080000000046">
        <ele>493.877</ele>
        <time>2022-08-25T08:06:43Z</time>
      </trkpt>
      <trkpt lat="42.763860999999984" lon="-1.7085460000000046">
        <ele>493.437</ele>
        <time>2022-08-25T08:06:44Z</time>
      </trkpt>
      <trkpt lat="42.763823999999985" lon="-1.7085880000000047">
        <ele>493.617</ele>
        <time>2022-08-25T08:06:45Z</time>
      </trkpt>
      <trkpt lat="42.76374899999998" lon="-1.7086720000000046">
        <ele>493.663</ele>
        <time>2022-08-25T08:06:47Z</time>
      </trkpt>
      <trkpt lat="42.76365099999998" lon="-1.7087540000000045">
        <ele>493.075</ele>
        <time>2022-08-25T08:06:49Z</time>
      </trkpt>
      <trkpt lat="42.76359999999998" lon="-1.7087860000000046">
        <ele>493.082</ele>
        <time>2022-08-25T08:06:50Z</time>
      </trkpt>
      <trkpt lat="42.76355599999998" lon="-1.7088110000000045">
        <ele>492.875</ele>
        <time>2022-08-25T08:06:51Z</time>
      </trkpt>
      <trkpt lat="42.76350699999998" lon="-1.7088430000000046">
        <ele>492.851</ele>
        <time>2022-08-25T08:06:52Z</time>
      </trkpt>
      <trkpt lat="42.76347399999998" lon="-1.7088670000000046">
        <ele>492.852</ele>
        <time>2022-08-25T08:06:53Z</time>
      </trkpt>
      <trkpt lat="42.76344599999998" lon="-1.7088930000000047">
        <ele>492.881</ele>
        <time>2022-08-25T08:06:54Z</time>
      </trkpt>
      <trkpt lat="42.76342399999998" lon="-1.7089190000000047">
        <ele>492.861</ele>
        <time>2022-08-25T08:06:55Z</time>
      </trkpt>
      <trkpt lat="42.76339099999998" lon="-1.7089720000000048">
        <ele>492.817</ele>
        <time>2022-08-25T08:06:57Z</time>
      </trkpt>
      <trkpt lat="42.763349999999974" lon="-1.7090290000000048">
        <ele>492.609</ele>
        <time>2022-08-25T08:06:59Z</time>
      </trkpt>
      <trkpt lat="42.76332499999997" lon="-1.7090570000000047">
        <ele>492.659</ele>
        <time>2022-08-25T08:07:00Z</time>
      </trkpt>
      <trkpt lat="42.763298999999975" lon="-1.7090840000000047">
        <ele>492.689</ele>
        <time>2022-08-25T08:07:01Z</time>
      </trkpt>
      <trkpt lat="42.76325899999998" lon="-1.7091240000000048">
        <ele>492.299</ele>
        <time>2022-08-25T08:07:03Z</time>
      </trkpt>
      <trkpt lat="42.76322999999998" lon="-1.7091500000000048">
        <ele>492.245</ele>
        <time>2022-08-25T08:07:04Z</time>
      </trkpt>
      <trkpt lat="42.76319299999998" lon="-1.7091800000000048">
        <ele>492.067</ele>
        <time>2022-08-25T08:07:05Z</time>
      </trkpt>
      <trkpt lat="42.76315299999998" lon="-1.7092420000000048">
        <ele>492.084</ele>
        <time>2022-08-25T08:07:07Z</time>
      </trkpt>
      <trkpt lat="42.76314799999998" lon="-1.7092720000000048">
        <ele>492.027</ele>
        <time>2022-08-25T08:07:08Z</time>
      </trkpt>
      <trkpt lat="42.76315099999998" lon="-1.7093020000000048">
        <ele>492.013</ele>
        <time>2022-08-25T08:07:09Z</time>
      </trkpt>
      <trkpt lat="42.76315199999998" lon="-1.7093350000000047">
        <ele>492.084</ele>
        <time>2022-08-25T08:07:10Z</time>
      </trkpt>
      <trkpt lat="42.76315399999998" lon="-1.7093620000000047">
        <ele>492.064</ele>
        <time>2022-08-25T08:07:11Z</time>
      </trkpt>
      <trkpt lat="42.76315599999998" lon="-1.7093850000000048">
        <ele>492.006</ele>
        <time>2022-08-25T08:07:12Z</time>
      </trkpt>
      <trkpt lat="42.76315599999998" lon="-1.7094130000000047">
        <ele>492.016</ele>
        <time>2022-08-25T08:07:13Z</time>
      </trkpt>
      <trkpt lat="42.76314999999998" lon="-1.7095030000000047">
        <ele>492.209</ele>
        <time>2022-08-25T08:07:16Z</time>
      </trkpt>
      <trkpt lat="42.763142999999985" lon="-1.7095820000000046">
        <ele>492.697</ele>
        <time>2022-08-25T08:07:18Z</time>
      </trkpt>
      <trkpt lat="42.76314199999999" lon="-1.7096340000000045">
        <ele>492.637</ele>
        <time>2022-08-25T08:07:19Z</time>
      </trkpt>
      <trkpt lat="42.76314199999999" lon="-1.7096690000000045">
        <ele>492.827</ele>
        <time>2022-08-25T08:07:20Z</time>
      </trkpt>
      <trkpt lat="42.76312999999999" lon="-1.7097120000000046">
        <ele>492.863</ele>
        <time>2022-08-25T08:07:21Z</time>
      </trkpt>
      <trkpt lat="42.76311899999999" lon="-1.7097870000000046">
        <ele>493.245</ele>
        <time>2022-08-25T08:07:23Z</time>
      </trkpt>
      <trkpt lat="42.76311099999999" lon="-1.7098240000000047">
        <ele>493.422</ele>
        <time>2022-08-25T08:07:24Z</time>
      </trkpt>
      <trkpt lat="42.763105999999986" lon="-1.7098610000000047">
        <ele>493.655</ele>
        <time>2022-08-25T08:07:25Z</time>
      </trkpt>
      <trkpt lat="42.76310299999999" lon="-1.7098900000000048">
        <ele>493.691</ele>
        <time>2022-08-25T08:07:26Z</time>
      </trkpt>
      <trkpt lat="42.763091999999986" lon="-1.7099180000000047">
        <ele>493.862</ele>
        <time>2022-08-25T08:07:27Z</time>
      </trkpt>
      <trkpt lat="42.76308299999999" lon="-1.7099440000000048">
        <ele>494.088</ele>
        <time>2022-08-25T08:07:28Z</time>
      </trkpt>
      <trkpt lat="42.763074999999986" lon="-1.7099650000000048">
        <ele>494.224</ele>
        <time>2022-08-25T08:07:29Z</time>
      </trkpt>
      <trkpt lat="42.76306899999999" lon="-1.7099900000000048">
        <ele>494.426</ele>
        <time>2022-08-25T08:07:30Z</time>
      </trkpt>
      <trkpt lat="42.76305999999999" lon="-1.7100170000000048">
        <ele>494.609</ele>
        <time>2022-08-25T08:07:31Z</time>
      </trkpt>
      <trkpt lat="42.76301099999999" lon="-1.7100640000000047">
        <ele>495.239</ele>
        <time>2022-08-25T08:07:33Z</time>
      </trkpt>
      <trkpt lat="42.76300099999999" lon="-1.7100890000000046">
        <ele>495.429</ele>
        <time>2022-08-25T08:07:34Z</time>
      </trkpt>
      <trkpt lat="42.76298399999999" lon="-1.7101570000000046">
        <ele>495.659</ele>
        <time>2022-08-25T08:07:36Z</time>
      </trkpt>
      <trkpt lat="42.76298399999999" lon="-1.7101570000000046">
        <ele>495.645</ele>
        <time>2022-08-25T08:07:37Z</time>
      </trkpt>
      <trkpt lat="42.76297299999999" lon="-1.7101880000000045">
        <ele>495.857</ele>
        <time>2022-08-25T08:07:38Z</time>
      </trkpt>
      <trkpt lat="42.762942999999986" lon="-1.7102050000000044">
        <ele>496.024</ele>
        <time>2022-08-25T08:07:39Z</time>
      </trkpt>
      <trkpt lat="42.76292699999998" lon="-1.7102270000000044">
        <ele>496.097</ele>
        <time>2022-08-25T08:07:40Z</time>
      </trkpt>
      <trkpt lat="42.76291099999998" lon="-1.7102430000000044">
        <ele>496.263</ele>
        <time>2022-08-25T08:07:41Z</time>
      </trkpt>
      <trkpt lat="42.76289499999998" lon="-1.7102530000000045">
        <ele>496.264</ele>
        <time>2022-08-25T08:07:42Z</time>
      </trkpt>
      <trkpt lat="42.76288099999998" lon="-1.7102630000000045">
        <ele>496.423</ele>
        <time>2022-08-25T08:07:43Z</time>
      </trkpt>
      <trkpt lat="42.76286999999998" lon="-1.7102720000000045">
        <ele>496.483</ele>
        <time>2022-08-25T08:07:44Z</time>
      </trkpt>
      <trkpt lat="42.76285299999998" lon="-1.7102840000000044">
        <ele>496.611</ele>
        <time>2022-08-25T08:07:45Z</time>
      </trkpt>
      <trkpt lat="42.76284199999998" lon="-1.7102970000000044">
        <ele>496.809</ele>
        <time>2022-08-25T08:07:46Z</time>
      </trkpt>
      <trkpt lat="42.76282999999998" lon="-1.7103110000000044">
        <ele>497.043</ele>
        <time>2022-08-25T08:07:47Z</time>
      </trkpt>
      <trkpt lat="42.76281999999998" lon="-1.7103220000000043">
        <ele>497.443</ele>
        <time>2022-08-25T08:07:48Z</time>
      </trkpt>
      <trkpt lat="42.76280499999998" lon="-1.7103300000000043">
        <ele>497.493</ele>
        <time>2022-08-25T08:07:49Z</time>
      </trkpt>
      <trkpt lat="42.76278399999998" lon="-1.7103380000000044">
        <ele>497.889</ele>
        <time>2022-08-25T08:07:50Z</time>
      </trkpt>
      <trkpt lat="42.76275699999998" lon="-1.7103490000000043">
        <ele>497.881</ele>
        <time>2022-08-25T08:07:51Z</time>
      </trkpt>
      <trkpt lat="42.76274099999998" lon="-1.7103570000000043">
        <ele>498.098</ele>
        <time>2022-08-25T08:07:52Z</time>
      </trkpt>
      <trkpt lat="42.76272099999998" lon="-1.7103760000000043">
        <ele>498.021</ele>
        <time>2022-08-25T08:07:53Z</time>
      </trkpt>
      <trkpt lat="42.76270399999998" lon="-1.7103970000000044">
        <ele>498.087</ele>
        <time>2022-08-25T08:07:54Z</time>
      </trkpt>
      <trkpt lat="42.76268599999998" lon="-1.7104150000000045">
        <ele>498.268</ele>
        <time>2022-08-25T08:07:55Z</time>
      </trkpt>
      <trkpt lat="42.76267299999998" lon="-1.7104340000000045">
        <ele>498.238</ele>
        <time>2022-08-25T08:07:56Z</time>
      </trkpt>
      <trkpt lat="42.762659999999975" lon="-1.7104610000000045">
        <ele>498.270</ele>
        <time>2022-08-25T08:07:57Z</time>
      </trkpt>
      <trkpt lat="42.762645999999975" lon="-1.7104800000000044">
        <ele>498.217</ele>
        <time>2022-08-25T08:07:58Z</time>
      </trkpt>
      <trkpt lat="42.762634999999975" lon="-1.7105040000000045">
        <ele>498.409</ele>
        <time>2022-08-25T08:07:59Z</time>
      </trkpt>
      <trkpt lat="42.76262199999997" lon="-1.7105340000000044">
        <ele>498.484</ele>
        <time>2022-08-25T08:08:00Z</time>
      </trkpt>
      <trkpt lat="42.76261299999997" lon="-1.7105570000000045">
        <ele>498.684</ele>
        <time>2022-08-25T08:08:01Z</time>
      </trkpt>
      <trkpt lat="42.762600999999975" lon="-1.7105810000000046">
        <ele>498.824</ele>
        <time>2022-08-25T08:08:02Z</time>
      </trkpt>
      <trkpt lat="42.76258799999997" lon="-1.7106000000000046">
        <ele>498.880</ele>
        <time>2022-08-25T08:08:03Z</time>
      </trkpt>
      <trkpt lat="42.762578999999974" lon="-1.7106260000000046">
        <ele>499.022</ele>
        <time>2022-08-25T08:08:04Z</time>
      </trkpt>
      <trkpt lat="42.76257099999997" lon="-1.7106560000000046">
        <ele>499.239</ele>
        <time>2022-08-25T08:08:05Z</time>
      </trkpt>
      <trkpt lat="42.762564999999974" lon="-1.7106760000000045">
        <ele>499.462</ele>
        <time>2022-08-25T08:08:06Z</time>
      </trkpt>
      <trkpt lat="42.76255399999997" lon="-1.7107000000000046">
        <ele>499.868</ele>
        <time>2022-08-25T08:08:07Z</time>
      </trkpt>
      <trkpt lat="42.76254699999998" lon="-1.7107160000000046">
        <ele>499.899</ele>
        <time>2022-08-25T08:08:08Z</time>
      </trkpt>
      <trkpt lat="42.76253799999998" lon="-1.7107350000000046">
        <ele>500.063</ele>
        <time>2022-08-25T08:08:09Z</time>
      </trkpt>
      <trkpt lat="42.76252699999998" lon="-1.7107530000000046">
        <ele>500.044</ele>
        <time>2022-08-25T08:08:10Z</time>
      </trkpt>
      <trkpt lat="42.76251299999998" lon="-1.7107750000000046">
        <ele>500.218</ele>
        <time>2022-08-25T08:08:11Z</time>
      </trkpt>
      <trkpt lat="42.76250099999998" lon="-1.7107920000000045">
        <ele>500.409</ele>
        <time>2022-08-25T08:08:12Z</time>
      </trkpt>
      <trkpt lat="42.762487999999976" lon="-1.7108090000000045">
        <ele>500.697</ele>
        <time>2022-08-25T08:08:13Z</time>
      </trkpt>
      <trkpt lat="42.76246799999998" lon="-1.7108330000000045">
        <ele>500.637</ele>
        <time>2022-08-25T08:08:14Z</time>
      </trkpt>
      <trkpt lat="42.76245299999998" lon="-1.7108540000000045">
        <ele>500.657</ele>
        <time>2022-08-25T08:08:15Z</time>
      </trkpt>
      <trkpt lat="42.76243499999998" lon="-1.7108740000000044">
        <ele>500.843</ele>
        <time>2022-08-25T08:08:16Z</time>
      </trkpt>
      <trkpt lat="42.76242099999998" lon="-1.7108880000000044">
        <ele>501.085</ele>
        <time>2022-08-25T08:08:17Z</time>
      </trkpt>
      <trkpt lat="42.76240499999998" lon="-1.7109040000000044">
        <ele>501.292</ele>
        <time>2022-08-25T08:08:18Z</time>
      </trkpt>
      <trkpt lat="42.76238299999998" lon="-1.7109250000000045">
        <ele>501.475</ele>
        <time>2022-08-25T08:08:19Z</time>
      </trkpt>
      <trkpt lat="42.76236099999998" lon="-1.7109420000000044">
        <ele>501.671</ele>
        <time>2022-08-25T08:08:20Z</time>
      </trkpt>
      <trkpt lat="42.762341999999975" lon="-1.7109570000000045">
        <ele>501.642</ele>
        <time>2022-08-25T08:08:21Z</time>
      </trkpt>
      <trkpt lat="42.762327999999975" lon="-1.7109730000000045">
        <ele>501.853</ele>
        <time>2022-08-25T08:08:22Z</time>
      </trkpt>
      <trkpt lat="42.762307999999976" lon="-1.7109940000000046">
        <ele>501.804</ele>
        <time>2022-08-25T08:08:23Z</time>
      </trkpt>
      <trkpt lat="42.762288999999974" lon="-1.7110140000000045">
        <ele>501.814</ele>
        <time>2022-08-25T08:08:24Z</time>
      </trkpt>
      <trkpt lat="42.76226699999997" lon="-1.7110330000000045">
        <ele>502.009</ele>
        <time>2022-08-25T08:08:25Z</time>
      </trkpt>
      <trkpt lat="42.76224799999997" lon="-1.7110500000000044">
        <ele>502.256</ele>
        <time>2022-08-25T08:08:26Z</time>
      </trkpt>
      <trkpt lat="42.76223599999997" lon="-1.7110630000000044">
        <ele>502.276</ele>
        <time>2022-08-25T08:08:27Z</time>
      </trkpt>
      <trkpt lat="42.76223599999997" lon="-1.7110630000000044">
        <ele>502.276</ele>
        <time>2022-08-25T08:08:28Z</time>
      </trkpt>
      <trkpt lat="42.762195999999975" lon="-1.7111060000000045">
        <ele>502.452</ele>
        <time>2022-08-25T08:08:29Z</time>
      </trkpt>
      <trkpt lat="42.76217699999997" lon="-1.7111250000000044">
        <ele>502.414</ele>
        <time>2022-08-25T08:08:30Z</time>
      </trkpt>
      <trkpt lat="42.762161999999975" lon="-1.7111400000000045">
        <ele>502.631</ele>
        <time>2022-08-25T08:08:31Z</time>
      </trkpt>
      <trkpt lat="42.76214399999998" lon="-1.7111600000000045">
        <ele>502.624</ele>
        <time>2022-08-25T08:08:32Z</time>
      </trkpt>
      <trkpt lat="42.76212299999998" lon="-1.7111830000000046">
        <ele>502.630</ele>
        <time>2022-08-25T08:08:33Z</time>
      </trkpt>
      <trkpt lat="42.76210899999998" lon="-1.7111980000000047">
        <ele>502.641</ele>
        <time>2022-08-25T08:08:34Z</time>
      </trkpt>
      <trkpt lat="42.76209399999998" lon="-1.7112140000000047">
        <ele>502.872</ele>
        <time>2022-08-25T08:08:35Z</time>
      </trkpt>
      <trkpt lat="42.76207999999998" lon="-1.7112300000000047">
        <ele>503.013</ele>
        <time>2022-08-25T08:08:36Z</time>
      </trkpt>
      <trkpt lat="42.76206699999998" lon="-1.7112490000000047">
        <ele>503.214</ele>
        <time>2022-08-25T08:08:37Z</time>
      </trkpt>
      <trkpt lat="42.76205399999998" lon="-1.7112690000000046">
        <ele>503.409</ele>
        <time>2022-08-25T08:08:38Z</time>
      </trkpt>
      <trkpt lat="42.76204299999998" lon="-1.7112880000000046">
        <ele>503.888</ele>
        <time>2022-08-25T08:08:39Z</time>
      </trkpt>
      <trkpt lat="42.76203099999998" lon="-1.7113090000000046">
        <ele>504.068</ele>
        <time>2022-08-25T08:08:40Z</time>
      </trkpt>
      <trkpt lat="42.762020999999976" lon="-1.7113240000000047">
        <ele>504.078</ele>
        <time>2022-08-25T08:08:41Z</time>
      </trkpt>
      <trkpt lat="42.762009999999975" lon="-1.7113410000000047">
        <ele>504.284</ele>
        <time>2022-08-25T08:08:42Z</time>
      </trkpt>
      <trkpt lat="42.761992999999975" lon="-1.7113640000000048">
        <ele>504.226</ele>
        <time>2022-08-25T08:08:43Z</time>
      </trkpt>
      <trkpt lat="42.761978999999975" lon="-1.7113850000000048">
        <ele>504.253</ele>
        <time>2022-08-25T08:08:44Z</time>
      </trkpt>
      <trkpt lat="42.761967999999975" lon="-1.7114050000000047">
        <ele>504.246</ele>
        <time>2022-08-25T08:08:45Z</time>
      </trkpt>
      <trkpt lat="42.761958999999976" lon="-1.7114220000000047">
        <ele>504.272</ele>
        <time>2022-08-25T08:08:46Z</time>
      </trkpt>
      <trkpt lat="42.76194399999998" lon="-1.7114430000000047">
        <ele>504.463</ele>
        <time>2022-08-25T08:08:47Z</time>
      </trkpt>
      <trkpt lat="42.761930999999976" lon="-1.7114650000000047">
        <ele>504.442</ele>
        <time>2022-08-25T08:08:48Z</time>
      </trkpt>
      <trkpt lat="42.761916999999976" lon="-1.7114880000000048">
        <ele>504.622</ele>
        <time>2022-08-25T08:08:49Z</time>
      </trkpt>
      <trkpt lat="42.76190199999998" lon="-1.7115050000000047">
        <ele>504.414</ele>
        <time>2022-08-25T08:08:50Z</time>
      </trkpt>
      <trkpt lat="42.761891999999975" lon="-1.7115190000000047">
        <ele>504.609</ele>
        <time>2022-08-25T08:08:51Z</time>
      </trkpt>
      <trkpt lat="42.761880999999974" lon="-1.7115370000000047">
        <ele>504.635</ele>
        <time>2022-08-25T08:08:52Z</time>
      </trkpt>
      <trkpt lat="42.76186999999997" lon="-1.7115610000000048">
        <ele>504.825</ele>
        <time>2022-08-25T08:08:53Z</time>
      </trkpt>
      <trkpt lat="42.761860999999975" lon="-1.7115810000000047">
        <ele>505.065</ele>
        <time>2022-08-25T08:08:54Z</time>
      </trkpt>
      <trkpt lat="42.761851999999976" lon="-1.7115980000000046">
        <ele>505.231</ele>
        <time>2022-08-25T08:08:55Z</time>
      </trkpt>
      <trkpt lat="42.761840999999976" lon="-1.7116210000000047">
        <ele>505.693</ele>
        <time>2022-08-25T08:08:56Z</time>
      </trkpt>
      <trkpt lat="42.761826999999975" lon="-1.7116500000000048">
        <ele>505.690</ele>
        <time>2022-08-25T08:08:57Z</time>
      </trkpt>
      <trkpt lat="42.76181799999998" lon="-1.7116680000000049">
        <ele>506.073</ele>
        <time>2022-08-25T08:08:58Z</time>
      </trkpt>
      <trkpt lat="42.76180399999998" lon="-1.711697000000005">
        <ele>506.099</ele>
        <time>2022-08-25T08:08:59Z</time>
      </trkpt>
      <trkpt lat="42.76179799999998" lon="-1.711715000000005">
        <ele>506.270</ele>
        <time>2022-08-25T08:09:00Z</time>
      </trkpt>
      <trkpt lat="42.76178899999998" lon="-1.711738000000005">
        <ele>506.254</ele>
        <time>2022-08-25T08:09:01Z</time>
      </trkpt>
      <trkpt lat="42.76177699999998" lon="-1.7117640000000052">
        <ele>506.456</ele>
        <time>2022-08-25T08:09:02Z</time>
      </trkpt>
      <trkpt lat="42.76177699999998" lon="-1.7117640000000052">
        <ele>506.611</ele>
        <time>2022-08-25T08:09:03Z</time>
      </trkpt>
      <trkpt lat="42.76176499999998" lon="-1.7118050000000051">
        <ele>506.809</ele>
        <time>2022-08-25T08:09:04Z</time>
      </trkpt>
      <trkpt lat="42.76175699999998" lon="-1.7118310000000052">
        <ele>507.036</ele>
        <time>2022-08-25T08:09:05Z</time>
      </trkpt>
      <trkpt lat="42.76174599999998" lon="-1.7118570000000053">
        <ele>507.046</ele>
        <time>2022-08-25T08:09:06Z</time>
      </trkpt>
      <trkpt lat="42.76173499999998" lon="-1.7118870000000053">
        <ele>507.226</ele>
        <time>2022-08-25T08:09:07Z</time>
      </trkpt>
      <trkpt lat="42.76172399999998" lon="-1.7119110000000053">
        <ele>507.662</ele>
        <time>2022-08-25T08:09:08Z</time>
      </trkpt>
      <trkpt lat="42.76171399999998" lon="-1.7119360000000052">
        <ele>507.684</ele>
        <time>2022-08-25T08:09:09Z</time>
      </trkpt>
      <trkpt lat="42.76170799999998" lon="-1.7119600000000053">
        <ele>508.061</ele>
        <time>2022-08-25T08:09:10Z</time>
      </trkpt>
      <trkpt lat="42.76169899999998" lon="-1.7119940000000053">
        <ele>508.054</ele>
        <time>2022-08-25T08:09:11Z</time>
      </trkpt>
      <trkpt lat="42.76169099999998" lon="-1.7120220000000053">
        <ele>508.260</ele>
        <time>2022-08-25T08:09:12Z</time>
      </trkpt>
      <trkpt lat="42.76168199999998" lon="-1.7120500000000052">
        <ele>508.661</ele>
        <time>2022-08-25T08:09:13Z</time>
      </trkpt>
      <trkpt lat="42.76167299999998" lon="-1.7120720000000051">
        <ele>508.678</ele>
        <time>2022-08-25T08:09:14Z</time>
      </trkpt>
      <trkpt lat="42.76166299999998" lon="-1.7121010000000052">
        <ele>508.833</ele>
        <time>2022-08-25T08:09:15Z</time>
      </trkpt>
      <trkpt lat="42.761652999999974" lon="-1.7121310000000052">
        <ele>509.026</ele>
        <time>2022-08-25T08:09:16Z</time>
      </trkpt>
      <trkpt lat="42.76164199999997" lon="-1.7121600000000052">
        <ele>509.009</ele>
        <time>2022-08-25T08:09:17Z</time>
      </trkpt>
      <trkpt lat="42.76162899999997" lon="-1.7121880000000052">
        <ele>509.298</ele>
        <time>2022-08-25T08:09:18Z</time>
      </trkpt>
      <trkpt lat="42.76161899999997" lon="-1.7122150000000051">
        <ele>509.298</ele>
        <time>2022-08-25T08:09:19Z</time>
      </trkpt>
      <trkpt lat="42.76160399999997" lon="-1.712248000000005">
        <ele>509.268</ele>
        <time>2022-08-25T08:09:20Z</time>
      </trkpt>
      <trkpt lat="42.76158799999997" lon="-1.7122820000000052">
        <ele>509.254</ele>
        <time>2022-08-25T08:09:21Z</time>
      </trkpt>
      <trkpt lat="42.76157899999997" lon="-1.7123040000000052">
        <ele>509.236</ele>
        <time>2022-08-25T08:09:22Z</time>
      </trkpt>
      <trkpt lat="42.76156199999997" lon="-1.712337000000005">
        <ele>509.263</ele>
        <time>2022-08-25T08:09:23Z</time>
      </trkpt>
      <trkpt lat="42.76154899999997" lon="-1.7123610000000051">
        <ele>509.256</ele>
        <time>2022-08-25T08:09:24Z</time>
      </trkpt>
      <trkpt lat="42.761532999999964" lon="-1.7123880000000051">
        <ele>509.232</ele>
        <time>2022-08-25T08:09:25Z</time>
      </trkpt>
      <trkpt lat="42.76150599999996" lon="-1.7124170000000052">
        <ele>509.243</ele>
        <time>2022-08-25T08:09:26Z</time>
      </trkpt>
      <trkpt lat="42.76148299999996" lon="-1.7124350000000053">
        <ele>509.284</ele>
        <time>2022-08-25T08:09:27Z</time>
      </trkpt>
      <trkpt lat="42.76145199999996" lon="-1.7124600000000052">
        <ele>509.207</ele>
        <time>2022-08-25T08:09:28Z</time>
      </trkpt>
      <trkpt lat="42.761425999999965" lon="-1.7124760000000052">
        <ele>509.217</ele>
        <time>2022-08-25T08:09:29Z</time>
      </trkpt>
      <trkpt lat="42.761399999999966" lon="-1.7124980000000052">
        <ele>509.209</ele>
        <time>2022-08-25T08:09:30Z</time>
      </trkpt>
      <trkpt lat="42.761368999999966" lon="-1.7125240000000053">
        <ele>509.229</ele>
        <time>2022-08-25T08:09:31Z</time>
      </trkpt>
      <trkpt lat="42.761368999999966" lon="-1.7125240000000053">
        <ele>509.279</ele>
        <time>2022-08-25T08:09:32Z</time>
      </trkpt>
      <trkpt lat="42.76128899999997" lon="-1.7125800000000053">
        <ele>509.469</ele>
        <time>2022-08-25T08:09:34Z</time>
      </trkpt>
      <trkpt lat="42.76125899999997" lon="-1.7125990000000053">
        <ele>509.475</ele>
        <time>2022-08-25T08:09:35Z</time>
      </trkpt>
      <trkpt lat="42.761031999999965" lon="-1.7127800000000053">
        <ele>509.627</ele>
        <time>2022-08-25T08:09:43Z</time>
      </trkpt>
      <trkpt lat="42.761005999999966" lon="-1.7127980000000054">
        <ele>509.634</ele>
        <time>2022-08-25T08:09:44Z</time>
      </trkpt>
      <trkpt lat="42.76097699999997" lon="-1.7128190000000054">
        <ele>509.677</ele>
        <time>2022-08-25T08:09:45Z</time>
      </trkpt>
      <trkpt lat="42.76095999999997" lon="-1.7128280000000053">
        <ele>509.683</ele>
        <time>2022-08-25T08:09:46Z</time>
      </trkpt>
      <trkpt lat="42.76093799999997" lon="-1.7128450000000053">
        <ele>509.674</ele>
        <time>2022-08-25T08:09:47Z</time>
      </trkpt>
      <trkpt lat="42.760879999999965" lon="-1.7128960000000053">
        <ele>510.457</ele>
        <time>2022-08-25T08:09:50Z</time>
      </trkpt>
      <trkpt lat="42.760879999999965" lon="-1.7128960000000053">
        <ele>510.400</ele>
        <time>2022-08-25T08:09:51Z</time>
      </trkpt>
      <trkpt lat="42.76083399999997" lon="-1.7129280000000053">
        <ele>510.820</ele>
        <time>2022-08-25T08:09:52Z</time>
      </trkpt>
      <trkpt lat="42.76081999999997" lon="-1.7129370000000053">
        <ele>510.809</ele>
        <time>2022-08-25T08:09:53Z</time>
      </trkpt>
      <trkpt lat="42.760800999999965" lon="-1.7129500000000053">
        <ele>511.066</ele>
        <time>2022-08-25T08:09:54Z</time>
      </trkpt>
      <trkpt lat="42.76073799999997" lon="-1.7129910000000053">
        <ele>511.486</ele>
        <time>2022-08-25T08:09:57Z</time>
      </trkpt>
      <trkpt lat="42.76071599999997" lon="-1.7130000000000052">
        <ele>511.686</ele>
        <time>2022-08-25T08:09:58Z</time>
      </trkpt>
      <trkpt lat="42.76069199999996" lon="-1.7130070000000053">
        <ele>511.872</ele>
        <time>2022-08-25T08:09:59Z</time>
      </trkpt>
      <trkpt lat="42.760671999999964" lon="-1.7130150000000053">
        <ele>512.094</ele>
        <time>2022-08-25T08:10:00Z</time>
      </trkpt>
      <trkpt lat="42.760648999999965" lon="-1.7130270000000052">
        <ele>512.421</ele>
        <time>2022-08-25T08:10:01Z</time>
      </trkpt>
      <trkpt lat="42.76062999999996" lon="-1.7130400000000052">
        <ele>512.684</ele>
        <time>2022-08-25T08:10:02Z</time>
      </trkpt>
      <trkpt lat="42.760609999999964" lon="-1.7130500000000053">
        <ele>512.680</ele>
        <time>2022-08-25T08:10:03Z</time>
      </trkpt>
      <trkpt lat="42.76058499999996" lon="-1.7130580000000053">
        <ele>512.481</ele>
        <time>2022-08-25T08:10:04Z</time>
      </trkpt>
      <trkpt lat="42.76055799999996" lon="-1.7130690000000053">
        <ele>512.828</ele>
        <time>2022-08-25T08:10:05Z</time>
      </trkpt>
      <trkpt lat="42.76053799999996" lon="-1.7130800000000053">
        <ele>513.289</ele>
        <time>2022-08-25T08:10:06Z</time>
      </trkpt>
      <trkpt lat="42.760519999999964" lon="-1.7130850000000053">
        <ele>513.217</ele>
        <time>2022-08-25T08:10:07Z</time>
      </trkpt>
      <trkpt lat="42.76050099999996" lon="-1.7130910000000052">
        <ele>513.409</ele>
        <time>2022-08-25T08:10:08Z</time>
      </trkpt>
      <trkpt lat="42.76047899999996" lon="-1.7131000000000052">
        <ele>513.653</ele>
        <time>2022-08-25T08:10:09Z</time>
      </trkpt>
      <trkpt lat="42.76046199999996" lon="-1.7131070000000053">
        <ele>513.623</ele>
        <time>2022-08-25T08:10:10Z</time>
      </trkpt>
      <trkpt lat="42.760443999999964" lon="-1.7131120000000053">
        <ele>513.643</ele>
        <time>2022-08-25T08:10:11Z</time>
      </trkpt>
      <trkpt lat="42.76042799999996" lon="-1.7131160000000052">
        <ele>513.659</ele>
        <time>2022-08-25T08:10:12Z</time>
      </trkpt>
      <trkpt lat="42.760409999999965" lon="-1.7131220000000051">
        <ele>513.631</ele>
        <time>2022-08-25T08:10:13Z</time>
      </trkpt>
      <trkpt lat="42.76038799999996" lon="-1.713131000000005">
        <ele>513.688</ele>
        <time>2022-08-25T08:10:14Z</time>
      </trkpt>
      <trkpt lat="42.76037399999996" lon="-1.7131380000000052">
        <ele>513.641</ele>
        <time>2022-08-25T08:10:15Z</time>
      </trkpt>
      <trkpt lat="42.760353999999964" lon="-1.713147000000005">
        <ele>513.667</ele>
        <time>2022-08-25T08:10:16Z</time>
      </trkpt>
      <trkpt lat="42.76034099999996" lon="-1.713153000000005">
        <ele>513.858</ele>
        <time>2022-08-25T08:10:17Z</time>
      </trkpt>
      <trkpt lat="42.760322999999964" lon="-1.713161000000005">
        <ele>514.092</ele>
        <time>2022-08-25T08:10:18Z</time>
      </trkpt>
      <trkpt lat="42.76030699999996" lon="-1.713170000000005">
        <ele>514.273</ele>
        <time>2022-08-25T08:10:19Z</time>
      </trkpt>
      <trkpt lat="42.760288999999965" lon="-1.713179000000005">
        <ele>514.420</ele>
        <time>2022-08-25T08:10:20Z</time>
      </trkpt>
      <trkpt lat="42.760271999999965" lon="-1.713186000000005">
        <ele>514.609</ele>
        <time>2022-08-25T08:10:21Z</time>
      </trkpt>
      <trkpt lat="42.76025699999997" lon="-1.713193000000005">
        <ele>514.670</ele>
        <time>2022-08-25T08:10:22Z</time>
      </trkpt>
      <trkpt lat="42.760240999999965" lon="-1.713201000000005">
        <ele>514.660</ele>
        <time>2022-08-25T08:10:23Z</time>
      </trkpt>
      <trkpt lat="42.76022499999996" lon="-1.713209000000005">
        <ele>514.650</ele>
        <time>2022-08-25T08:10:24Z</time>
      </trkpt>
      <trkpt lat="42.76020899999996" lon="-1.713215000000005">
        <ele>514.856</ele>
        <time>2022-08-25T08:10:25Z</time>
      </trkpt>
      <trkpt lat="42.76019099999996" lon="-1.713219000000005">
        <ele>515.028</ele>
        <time>2022-08-25T08:10:26Z</time>
      </trkpt>
      <trkpt lat="42.760173999999964" lon="-1.7132250000000049">
        <ele>515.455</ele>
        <time>2022-08-25T08:10:27Z</time>
      </trkpt>
      <trkpt lat="42.760158999999966" lon="-1.7132310000000048">
        <ele>515.898</ele>
        <time>2022-08-25T08:10:28Z</time>
      </trkpt>
      <trkpt lat="42.76014399999997" lon="-1.713238000000005">
        <ele>515.874</ele>
        <time>2022-08-25T08:10:29Z</time>
      </trkpt>
      <trkpt lat="42.760130999999966" lon="-1.7132440000000049">
        <ele>516.025</ele>
        <time>2022-08-25T08:10:30Z</time>
      </trkpt>
      <trkpt lat="42.760113999999966" lon="-1.713249000000005">
        <ele>516.049</ele>
        <time>2022-08-25T08:10:31Z</time>
      </trkpt>
      <trkpt lat="42.76010099999996" lon="-1.7132550000000049">
        <ele>516.202</ele>
        <time>2022-08-25T08:10:32Z</time>
      </trkpt>
      <trkpt lat="42.760085999999966" lon="-1.713265000000005">
        <ele>516.222</ele>
        <time>2022-08-25T08:10:33Z</time>
      </trkpt>
      <trkpt lat="42.76006999999996" lon="-1.713273000000005">
        <ele>516.209</ele>
        <time>2022-08-25T08:10:34Z</time>
      </trkpt>
      <trkpt lat="42.760054999999966" lon="-1.7132790000000049">
        <ele>516.275</ele>
        <time>2022-08-25T08:10:35Z</time>
      </trkpt>
      <trkpt lat="42.760040999999966" lon="-1.713286000000005">
        <ele>516.445</ele>
        <time>2022-08-25T08:10:36Z</time>
      </trkpt>
      <trkpt lat="42.76002899999997" lon="-1.713291000000005">
        <ele>516.425</ele>
        <time>2022-08-25T08:10:37Z</time>
      </trkpt>
      <trkpt lat="42.760018999999964" lon="-1.713297000000005">
        <ele>516.671</ele>
        <time>2022-08-25T08:10:38Z</time>
      </trkpt>
      <trkpt lat="42.760009999999966" lon="-1.7133010000000048">
        <ele>516.833</ele>
        <time>2022-08-25T08:10:39Z</time>
      </trkpt>
      <trkpt lat="42.759998999999965" lon="-1.7133070000000048">
        <ele>517.010</ele>
        <time>2022-08-25T08:10:40Z</time>
      </trkpt>
      <trkpt lat="42.75998699999997" lon="-1.7133120000000048">
        <ele>517.243</ele>
        <time>2022-08-25T08:10:41Z</time>
      </trkpt>
      <trkpt lat="42.75997299999997" lon="-1.713319000000005">
        <ele>517.429</ele>
        <time>2022-08-25T08:10:42Z</time>
      </trkpt>
      <trkpt lat="42.75995599999997" lon="-1.713327000000005">
        <ele>517.440</ele>
        <time>2022-08-25T08:10:43Z</time>
      </trkpt>
      <trkpt lat="42.759939999999965" lon="-1.713337000000005">
        <ele>517.457</ele>
        <time>2022-08-25T08:10:44Z</time>
      </trkpt>
      <trkpt lat="42.75992399999996" lon="-1.713347000000005">
        <ele>517.400</ele>
        <time>2022-08-25T08:10:45Z</time>
      </trkpt>
      <trkpt lat="42.759911999999964" lon="-1.7133540000000052">
        <ele>517.620</ele>
        <time>2022-08-25T08:10:46Z</time>
      </trkpt>
      <trkpt lat="42.75989699999997" lon="-1.7133620000000052">
        <ele>517.609</ele>
        <time>2022-08-25T08:10:47Z</time>
      </trkpt>
      <trkpt lat="42.75988199999997" lon="-1.7133690000000052">
        <ele>517.896</ele>
        <time>2022-08-25T08:10:48Z</time>
      </trkpt>
      <trkpt lat="42.759868999999966" lon="-1.7133770000000053">
        <ele>517.876</ele>
        <time>2022-08-25T08:10:49Z</time>
      </trkpt>
      <trkpt lat="42.75985899999996" lon="-1.7133840000000053">
        <ele>518.046</ele>
        <time>2022-08-25T08:10:50Z</time>
      </trkpt>
      <trkpt lat="42.75984899999996" lon="-1.7133900000000053">
        <ele>518.242</ele>
        <time>2022-08-25T08:10:51Z</time>
      </trkpt>
      <trkpt lat="42.75983499999996" lon="-1.7133980000000053">
        <ele>518.474</ele>
        <time>2022-08-25T08:10:52Z</time>
      </trkpt>
      <trkpt lat="42.75982299999996" lon="-1.7134060000000053">
        <ele>518.461</ele>
        <time>2022-08-25T08:10:53Z</time>
      </trkpt>
      <trkpt lat="42.75980699999996" lon="-1.7134180000000052">
        <ele>518.624</ele>
        <time>2022-08-25T08:10:54Z</time>
      </trkpt>
      <trkpt lat="42.75979299999996" lon="-1.7134310000000053">
        <ele>518.660</ele>
        <time>2022-08-25T08:10:55Z</time>
      </trkpt>
      <trkpt lat="42.75977599999996" lon="-1.7134420000000052">
        <ele>518.631</ele>
        <time>2022-08-25T08:10:56Z</time>
      </trkpt>
      <trkpt lat="42.75976099999996" lon="-1.7134540000000051">
        <ele>518.658</ele>
        <time>2022-08-25T08:10:57Z</time>
      </trkpt>
      <trkpt lat="42.75974699999996" lon="-1.713463000000005">
        <ele>518.652</ele>
        <time>2022-08-25T08:10:58Z</time>
      </trkpt>
      <trkpt lat="42.75973399999996" lon="-1.713471000000005">
        <ele>518.617</ele>
        <time>2022-08-25T08:10:59Z</time>
      </trkpt>
      <trkpt lat="42.75971799999996" lon="-1.713480000000005">
        <ele>518.809</ele>
        <time>2022-08-25T08:11:00Z</time>
      </trkpt>
      <trkpt lat="42.75970399999996" lon="-1.713489000000005">
        <ele>518.876</ele>
        <time>2022-08-25T08:11:01Z</time>
      </trkpt>
      <trkpt lat="42.75968699999996" lon="-1.713496000000005">
        <ele>519.046</ele>
        <time>2022-08-25T08:11:02Z</time>
      </trkpt>
      <trkpt lat="42.759670999999955" lon="-1.713505000000005">
        <ele>519.436</ele>
        <time>2022-08-25T08:11:03Z</time>
      </trkpt>
      <trkpt lat="42.75965299999996" lon="-1.713516000000005">
        <ele>519.432</ele>
        <time>2022-08-25T08:11:04Z</time>
      </trkpt>
      <trkpt lat="42.75963499999996" lon="-1.7135300000000049">
        <ele>519.614</ele>
        <time>2022-08-25T08:11:05Z</time>
      </trkpt>
      <trkpt lat="42.75962099999996" lon="-1.7135440000000048">
        <ele>519.841</ele>
        <time>2022-08-25T08:11:06Z</time>
      </trkpt>
      <trkpt lat="42.75960499999996" lon="-1.713551000000005">
        <ele>519.874</ele>
        <time>2022-08-25T08:11:07Z</time>
      </trkpt>
      <trkpt lat="42.759585999999956" lon="-1.713558000000005">
        <ele>519.850</ele>
        <time>2022-08-25T08:11:08Z</time>
      </trkpt>
      <trkpt lat="42.759571999999956" lon="-1.713566000000005">
        <ele>520.061</ele>
        <time>2022-08-25T08:11:09Z</time>
      </trkpt>
      <trkpt lat="42.759554999999956" lon="-1.713576000000005">
        <ele>520.228</ele>
        <time>2022-08-25T08:11:10Z</time>
      </trkpt>
      <trkpt lat="42.75953499999996" lon="-1.713588000000005">
        <ele>520.289</ele>
        <time>2022-08-25T08:11:11Z</time>
      </trkpt>
      <trkpt lat="42.75951699999996" lon="-1.713598000000005">
        <ele>520.417</ele>
        <time>2022-08-25T08:11:12Z</time>
      </trkpt>
      <trkpt lat="42.75950099999996" lon="-1.7136080000000051">
        <ele>520.409</ele>
        <time>2022-08-25T08:11:13Z</time>
      </trkpt>
      <trkpt lat="42.75948599999996" lon="-1.713617000000005">
        <ele>520.633</ele>
        <time>2022-08-25T08:11:14Z</time>
      </trkpt>
      <trkpt lat="42.75946999999996" lon="-1.7136270000000051">
        <ele>520.863</ele>
        <time>2022-08-25T08:11:15Z</time>
      </trkpt>
      <trkpt lat="42.75945599999996" lon="-1.7136340000000052">
        <ele>521.253</ele>
        <time>2022-08-25T08:11:16Z</time>
      </trkpt>
      <trkpt lat="42.759439999999955" lon="-1.7136400000000052">
        <ele>521.489</ele>
        <time>2022-08-25T08:11:17Z</time>
      </trkpt>
      <trkpt lat="42.759422999999956" lon="-1.7136470000000052">
        <ele>521.651</ele>
        <time>2022-08-25T08:11:18Z</time>
      </trkpt>
      <trkpt lat="42.759402999999956" lon="-1.7136570000000053">
        <ele>522.088</ele>
        <time>2022-08-25T08:11:19Z</time>
      </trkpt>
      <trkpt lat="42.759389999999954" lon="-1.7136640000000054">
        <ele>522.011</ele>
        <time>2022-08-25T08:11:20Z</time>
      </trkpt>
      <trkpt lat="42.759374999999956" lon="-1.7136680000000053">
        <ele>522.247</ele>
        <time>2022-08-25T08:11:21Z</time>
      </trkpt>
      <trkpt lat="42.759358999999954" lon="-1.7136760000000053">
        <ele>522.698</ele>
        <time>2022-08-25T08:11:22Z</time>
      </trkpt>
      <trkpt lat="42.75934299999995" lon="-1.7136840000000053">
        <ele>522.654</ele>
        <time>2022-08-25T08:11:23Z</time>
      </trkpt>
      <trkpt lat="42.75932599999995" lon="-1.7136920000000053">
        <ele>522.856</ele>
        <time>2022-08-25T08:11:24Z</time>
      </trkpt>
      <trkpt lat="42.759307999999955" lon="-1.7137010000000052">
        <ele>522.811</ele>
        <time>2022-08-25T08:11:25Z</time>
      </trkpt>
      <trkpt lat="42.75929199999995" lon="-1.7137090000000053">
        <ele>522.809</ele>
        <time>2022-08-25T08:11:26Z</time>
      </trkpt>
      <trkpt lat="42.75928199999995" lon="-1.7137170000000053">
        <ele>522.846</ele>
        <time>2022-08-25T08:11:27Z</time>
      </trkpt>
      <trkpt lat="42.75926899999995" lon="-1.7137260000000052">
        <ele>523.066</ele>
        <time>2022-08-25T08:11:28Z</time>
      </trkpt>
      <trkpt lat="42.75925199999995" lon="-1.7137310000000052">
        <ele>523.086</ele>
        <time>2022-08-25T08:11:29Z</time>
      </trkpt>
      <trkpt lat="42.759240999999946" lon="-1.7137380000000053">
        <ele>523.072</ele>
        <time>2022-08-25T08:11:30Z</time>
      </trkpt>
      <trkpt lat="42.759226999999946" lon="-1.7137480000000054">
        <ele>523.284</ele>
        <time>2022-08-25T08:11:31Z</time>
      </trkpt>
      <trkpt lat="42.759210999999944" lon="-1.7137580000000054">
        <ele>523.271</ele>
        <time>2022-08-25T08:11:32Z</time>
      </trkpt>
      <trkpt lat="42.75919999999994" lon="-1.7137620000000053">
        <ele>523.424</ele>
        <time>2022-08-25T08:11:33Z</time>
      </trkpt>
      <trkpt lat="42.75918599999994" lon="-1.7137690000000054">
        <ele>523.430</ele>
        <time>2022-08-25T08:11:34Z</time>
      </trkpt>
      <trkpt lat="42.75917299999994" lon="-1.7137740000000055">
        <ele>523.651</ele>
        <time>2022-08-25T08:11:35Z</time>
      </trkpt>
      <trkpt lat="42.75915899999994" lon="-1.7137820000000055">
        <ele>523.835</ele>
        <time>2022-08-25T08:11:36Z</time>
      </trkpt>
      <trkpt lat="42.75914299999994" lon="-1.7137900000000055">
        <ele>523.886</ele>
        <time>2022-08-25T08:11:37Z</time>
      </trkpt>
      <trkpt lat="42.75912599999994" lon="-1.7137960000000054">
        <ele>524.014</ele>
        <time>2022-08-25T08:11:38Z</time>
      </trkpt>
      <trkpt lat="42.759109999999936" lon="-1.7138030000000055">
        <ele>524.009</ele>
        <time>2022-08-25T08:11:39Z</time>
      </trkpt>
      <trkpt lat="42.759095999999936" lon="-1.7138110000000055">
        <ele>523.874</ele>
        <time>2022-08-25T08:11:40Z</time>
      </trkpt>
      <trkpt lat="42.759081999999935" lon="-1.7138200000000055">
        <ele>524.064</ele>
        <time>2022-08-25T08:11:41Z</time>
      </trkpt>
      <trkpt lat="42.75906699999994" lon="-1.7138280000000055">
        <ele>524.254</ele>
        <time>2022-08-25T08:11:42Z</time>
      </trkpt>
      <trkpt lat="42.75905299999994" lon="-1.7138340000000054">
        <ele>524.270</ele>
        <time>2022-08-25T08:11:43Z</time>
      </trkpt>
      <trkpt lat="42.759039999999935" lon="-1.7138410000000055">
        <ele>524.072</ele>
        <time>2022-08-25T08:11:44Z</time>
      </trkpt>
      <trkpt lat="42.759025999999935" lon="-1.7138460000000055">
        <ele>524.259</ele>
        <time>2022-08-25T08:11:45Z</time>
      </trkpt>
      <trkpt lat="42.75900999999993" lon="-1.7138510000000056">
        <ele>524.422</ele>
        <time>2022-08-25T08:11:46Z</time>
      </trkpt>
      <trkpt lat="42.75899399999993" lon="-1.7138570000000055">
        <ele>524.648</ele>
        <time>2022-08-25T08:11:47Z</time>
      </trkpt>
      <trkpt lat="42.75897899999993" lon="-1.7138620000000055">
        <ele>524.649</ele>
        <time>2022-08-25T08:11:48Z</time>
      </trkpt>
      <trkpt lat="42.758963999999935" lon="-1.7138670000000056">
        <ele>524.886</ele>
        <time>2022-08-25T08:11:49Z</time>
      </trkpt>
      <trkpt lat="42.75894799999993" lon="-1.7138740000000057">
        <ele>524.860</ele>
        <time>2022-08-25T08:11:50Z</time>
      </trkpt>
      <trkpt lat="42.75893399999993" lon="-1.7138830000000056">
        <ele>524.826</ele>
        <time>2022-08-25T08:11:51Z</time>
      </trkpt>
      <trkpt lat="42.75892099999993" lon="-1.7138930000000057">
        <ele>525.009</ele>
        <time>2022-08-25T08:11:52Z</time>
      </trkpt>
      <trkpt lat="42.75890799999993" lon="-1.7138990000000056">
        <ele>525.039</ele>
        <time>2022-08-25T08:11:53Z</time>
      </trkpt>
      <trkpt lat="42.758891999999925" lon="-1.7139060000000057">
        <ele>525.249</ele>
        <time>2022-08-25T08:11:54Z</time>
      </trkpt>
      <trkpt lat="42.758877999999925" lon="-1.7139140000000057">
        <ele>525.269</ele>
        <time>2022-08-25T08:11:55Z</time>
      </trkpt>
      <trkpt lat="42.758863999999924" lon="-1.7139200000000057">
        <ele>525.245</ele>
        <time>2022-08-25T08:11:56Z</time>
      </trkpt>
      <trkpt lat="42.75884899999993" lon="-1.7139290000000056">
        <ele>525.427</ele>
        <time>2022-08-25T08:11:57Z</time>
      </trkpt>
      <trkpt lat="42.758832999999925" lon="-1.7139360000000057">
        <ele>525.434</ele>
        <time>2022-08-25T08:11:58Z</time>
      </trkpt>
      <trkpt lat="42.75880299999992" lon="-1.7139480000000056">
        <ele>525.637</ele>
        <time>2022-08-25T08:12:00Z</time>
      </trkpt>
      <trkpt lat="42.75873599999992" lon="-1.7139780000000056">
        <ele>526.033</ele>
        <time>2022-08-25T08:12:04Z</time>
      </trkpt>
      <trkpt lat="42.75872199999992" lon="-1.7139880000000056">
        <ele>526.264</ele>
        <time>2022-08-25T08:12:05Z</time>
      </trkpt>
      <trkpt lat="42.75870599999992" lon="-1.7139970000000055">
        <ele>526.292</ele>
        <time>2022-08-25T08:12:06Z</time>
      </trkpt>
      <trkpt lat="42.75868899999992" lon="-1.7140030000000055">
        <ele>526.273</ele>
        <time>2022-08-25T08:12:07Z</time>
      </trkpt>
      <trkpt lat="42.758672999999916" lon="-1.7140100000000056">
        <ele>526.620</ele>
        <time>2022-08-25T08:12:09Z</time>
      </trkpt>
      <trkpt lat="42.75864099999992" lon="-1.7140290000000056">
        <ele>526.609</ele>
        <time>2022-08-25T08:12:10Z</time>
      </trkpt>
      <trkpt lat="42.75859699999992" lon="-1.7140540000000055">
        <ele>526.860</ele>
        <time>2022-08-25T08:12:13Z</time>
      </trkpt>
      <trkpt lat="42.758551999999916" lon="-1.7140850000000054">
        <ele>527.010</ele>
        <time>2022-08-25T08:12:16Z</time>
      </trkpt>
      <trkpt lat="42.758504999999914" lon="-1.7141100000000054">
        <ele>527.420</ele>
        <time>2022-08-25T08:12:19Z</time>
      </trkpt>
      <trkpt lat="42.758487999999915" lon="-1.7141190000000053">
        <ele>527.626</ele>
        <time>2022-08-25T08:12:20Z</time>
      </trkpt>
      <trkpt lat="42.75847499999991" lon="-1.7141270000000053">
        <ele>527.648</ele>
        <time>2022-08-25T08:12:21Z</time>
      </trkpt>
      <trkpt lat="42.758462999999914" lon="-1.7141360000000052">
        <ele>528.035</ele>
        <time>2022-08-25T08:12:22Z</time>
      </trkpt>
      <trkpt lat="42.758450999999916" lon="-1.7141470000000052">
        <ele>528.268</ele>
        <time>2022-08-25T08:12:23Z</time>
      </trkpt>
      <trkpt lat="42.75840399999991" lon="-1.714178000000005">
        <ele>528.424</ele>
        <time>2022-08-25T08:12:26Z</time>
      </trkpt>
      <trkpt lat="42.758385999999916" lon="-1.7141880000000052">
        <ele>528.495</ele>
        <time>2022-08-25T08:12:27Z</time>
      </trkpt>
      <trkpt lat="42.75836899999992" lon="-1.7141990000000051">
        <ele>528.476</ele>
        <time>2022-08-25T08:12:28Z</time>
      </trkpt>
      <trkpt lat="42.75835399999992" lon="-1.714208000000005">
        <ele>528.690</ele>
        <time>2022-08-25T08:12:29Z</time>
      </trkpt>
      <trkpt lat="42.758340999999916" lon="-1.714214000000005">
        <ele>528.619</ele>
        <time>2022-08-25T08:12:30Z</time>
      </trkpt>
      <trkpt lat="42.758324999999914" lon="-1.714222000000005">
        <ele>528.809</ele>
        <time>2022-08-25T08:12:31Z</time>
      </trkpt>
      <trkpt lat="42.758312999999916" lon="-1.714231000000005">
        <ele>528.878</ele>
        <time>2022-08-25T08:12:32Z</time>
      </trkpt>
      <trkpt lat="42.758298999999916" lon="-1.714239000000005">
        <ele>528.888</ele>
        <time>2022-08-25T08:12:33Z</time>
      </trkpt>
      <trkpt lat="42.75828599999991" lon="-1.714244000000005">
        <ele>529.028</ele>
        <time>2022-08-25T08:12:34Z</time>
      </trkpt>
      <trkpt lat="42.75827199999991" lon="-1.7142480000000049">
        <ele>529.264</ele>
        <time>2022-08-25T08:12:35Z</time>
      </trkpt>
      <trkpt lat="42.75825799999991" lon="-1.714250000000005">
        <ele>529.466</ele>
        <time>2022-08-25T08:12:36Z</time>
      </trkpt>
      <trkpt lat="42.75824499999991" lon="-1.714255000000005">
        <ele>529.663</ele>
        <time>2022-08-25T08:12:37Z</time>
      </trkpt>
      <trkpt lat="42.75823099999991" lon="-1.714261000000005">
        <ele>529.846</ele>
        <time>2022-08-25T08:12:38Z</time>
      </trkpt>
      <trkpt lat="42.75821499999991" lon="-1.714269000000005">
        <ele>530.052</ele>
        <time>2022-08-25T08:12:39Z</time>
      </trkpt>
      <trkpt lat="42.758201999999905" lon="-1.7142780000000049">
        <ele>530.023</ele>
        <time>2022-08-25T08:12:40Z</time>
      </trkpt>
      <trkpt lat="42.758187999999905" lon="-1.7142830000000049">
        <ele>530.017</ele>
        <time>2022-08-25T08:12:41Z</time>
      </trkpt>
      <trkpt lat="42.75817299999991" lon="-1.714288000000005">
        <ele>530.287</ele>
        <time>2022-08-25T08:12:42Z</time>
      </trkpt>
      <trkpt lat="42.758159999999904" lon="-1.714291000000005">
        <ele>530.415</ele>
        <time>2022-08-25T08:12:43Z</time>
      </trkpt>
      <trkpt lat="42.75814499999991" lon="-1.714298000000005">
        <ele>530.409</ele>
        <time>2022-08-25T08:12:44Z</time>
      </trkpt>
      <trkpt lat="42.758131999999904" lon="-1.714305000000005">
        <ele>530.672</ele>
        <time>2022-08-25T08:12:45Z</time>
      </trkpt>
      <trkpt lat="42.758116999999906" lon="-1.714313000000005">
        <ele>530.812</ele>
        <time>2022-08-25T08:12:46Z</time>
      </trkpt>
      <trkpt lat="42.758102999999906" lon="-1.714321000000005">
        <ele>530.882</ele>
        <time>2022-08-25T08:12:47Z</time>
      </trkpt>
      <trkpt lat="42.758088999999906" lon="-1.714332000000005">
        <ele>531.028</ele>
        <time>2022-08-25T08:12:48Z</time>
      </trkpt>
      <trkpt lat="42.7580789999999" lon="-1.714338000000005">
        <ele>531.040</ele>
        <time>2022-08-25T08:12:49Z</time>
      </trkpt>
      <trkpt lat="42.758063999999905" lon="-1.714343000000005">
        <ele>531.067</ele>
        <time>2022-08-25T08:12:50Z</time>
      </trkpt>
      <trkpt lat="42.7580479999999" lon="-1.7143450000000051">
        <ele>531.020</ele>
        <time>2022-08-25T08:12:51Z</time>
      </trkpt>
      <trkpt lat="42.7580259999999" lon="-1.7143520000000052">
        <ele>531.266</ele>
        <time>2022-08-25T08:12:52Z</time>
      </trkpt>
      <trkpt lat="42.758010999999904" lon="-1.7143620000000053">
        <ele>531.427</ele>
        <time>2022-08-25T08:12:53Z</time>
      </trkpt>
      <trkpt lat="42.7579979999999" lon="-1.7143730000000053">
        <ele>531.431</ele>
        <time>2022-08-25T08:12:54Z</time>
      </trkpt>
      <trkpt lat="42.7579889999999" lon="-1.7143800000000053">
        <ele>531.661</ele>
        <time>2022-08-25T08:12:55Z</time>
      </trkpt>
      <trkpt lat="42.757976999999904" lon="-1.7143880000000054">
        <ele>531.607</ele>
        <time>2022-08-25T08:12:56Z</time>
      </trkpt>
      <trkpt lat="42.7579609999999" lon="-1.7143920000000052">
        <ele>531.809</ele>
        <time>2022-08-25T08:12:57Z</time>
      </trkpt>
      <trkpt lat="42.757945999999905" lon="-1.7143970000000053">
        <ele>531.854</ele>
        <time>2022-08-25T08:12:58Z</time>
      </trkpt>
      <trkpt lat="42.757933999999906" lon="-1.7144050000000053">
        <ele>531.864</ele>
        <time>2022-08-25T08:12:59Z</time>
      </trkpt>
      <trkpt lat="42.7579239999999" lon="-1.7144120000000054">
        <ele>531.844</ele>
        <time>2022-08-25T08:13:00Z</time>
      </trkpt>
      <trkpt lat="42.757911999999905" lon="-1.7144200000000054">
        <ele>532.030</ele>
        <time>2022-08-25T08:13:01Z</time>
      </trkpt>
      <trkpt lat="42.7578959999999" lon="-1.7144230000000054">
        <ele>532.022</ele>
        <time>2022-08-25T08:13:02Z</time>
      </trkpt>
      <trkpt lat="42.7578819999999" lon="-1.7144250000000054">
        <ele>532.269</ele>
        <time>2022-08-25T08:13:03Z</time>
      </trkpt>
      <trkpt lat="42.757866999999905" lon="-1.7144320000000055">
        <ele>532.282</ele>
        <time>2022-08-25T08:13:04Z</time>
      </trkpt>
      <trkpt lat="42.757857999999906" lon="-1.7144370000000055">
        <ele>532.438</ele>
        <time>2022-08-25T08:13:05Z</time>
      </trkpt>
      <trkpt lat="42.757844999999904" lon="-1.7144440000000056">
        <ele>532.489</ele>
        <time>2022-08-25T08:13:06Z</time>
      </trkpt>
      <trkpt lat="42.757832999999906" lon="-1.7144520000000056">
        <ele>532.651</ele>
        <time>2022-08-25T08:13:07Z</time>
      </trkpt>
      <trkpt lat="42.7578169999999" lon="-1.7144580000000056">
        <ele>532.801</ele>
        <time>2022-08-25T08:13:08Z</time>
      </trkpt>
      <trkpt lat="42.757799999999904" lon="-1.7144650000000057">
        <ele>533.011</ele>
        <time>2022-08-25T08:13:09Z</time>
      </trkpt>
      <trkpt lat="42.757765999999904" lon="-1.7145010000000056">
        <ele>533.409</ele>
        <time>2022-08-25T08:13:12Z</time>
      </trkpt>
      <trkpt lat="42.757751999999904" lon="-1.7145110000000057">
        <ele>533.426</ele>
        <time>2022-08-25T08:13:13Z</time>
      </trkpt>
      <trkpt lat="42.7577409999999" lon="-1.7145170000000056">
        <ele>533.666</ele>
        <time>2022-08-25T08:13:14Z</time>
      </trkpt>
      <trkpt lat="42.757725999999906" lon="-1.7145210000000055">
        <ele>533.646</ele>
        <time>2022-08-25T08:13:15Z</time>
      </trkpt>
      <trkpt lat="42.757714999999905" lon="-1.7145260000000055">
        <ele>533.672</ele>
        <time>2022-08-25T08:13:16Z</time>
      </trkpt>
      <trkpt lat="42.757700999999905" lon="-1.7145330000000056">
        <ele>533.864</ele>
        <time>2022-08-25T08:13:17Z</time>
      </trkpt>
      <trkpt lat="42.757683999999905" lon="-1.7145410000000056">
        <ele>533.851</ele>
        <time>2022-08-25T08:13:18Z</time>
      </trkpt>
      <trkpt lat="42.7576679999999" lon="-1.7145490000000057">
        <ele>533.874</ele>
        <time>2022-08-25T08:13:19Z</time>
      </trkpt>
      <trkpt lat="42.7576539999999" lon="-1.7145570000000057">
        <ele>534.030</ele>
        <time>2022-08-25T08:13:20Z</time>
      </trkpt>
      <trkpt lat="42.757638999999905" lon="-1.7145650000000057">
        <ele>534.021</ele>
        <time>2022-08-25T08:13:21Z</time>
      </trkpt>
      <trkpt lat="42.75762699999991" lon="-1.7145730000000057">
        <ele>534.236</ele>
        <time>2022-08-25T08:13:22Z</time>
      </trkpt>
      <trkpt lat="42.757599999999904" lon="-1.7145830000000057">
        <ele>534.217</ele>
        <time>2022-08-25T08:13:23Z</time>
      </trkpt>
      <trkpt lat="42.757587999999906" lon="-1.7145910000000057">
        <ele>534.418</ele>
        <time>2022-08-25T08:13:24Z</time>
      </trkpt>
      <trkpt lat="42.75757599999991" lon="-1.7145990000000058">
        <ele>534.409</ele>
        <time>2022-08-25T08:13:25Z</time>
      </trkpt>
      <trkpt lat="42.75756699999991" lon="-1.7146040000000058">
        <ele>534.434</ele>
        <time>2022-08-25T08:13:26Z</time>
      </trkpt>
      <trkpt lat="42.75752999999991" lon="-1.7146240000000057">
        <ele>534.654</ele>
        <time>2022-08-25T08:13:29Z</time>
      </trkpt>
      <trkpt lat="42.75751899999991" lon="-1.7146330000000056">
        <ele>534.614</ele>
        <time>2022-08-25T08:13:30Z</time>
      </trkpt>
      <trkpt lat="42.75747699999991" lon="-1.7146580000000056">
        <ele>535.050</ele>
        <time>2022-08-25T08:13:33Z</time>
      </trkpt>
      <trkpt lat="42.75743499999991" lon="-1.7146740000000056">
        <ele>535.092</ele>
        <time>2022-08-25T08:13:36Z</time>
      </trkpt>
      <trkpt lat="42.757424999999905" lon="-1.7146800000000055">
        <ele>535.059</ele>
        <time>2022-08-25T08:13:37Z</time>
      </trkpt>
      <trkpt lat="42.757413999999905" lon="-1.7146900000000056">
        <ele>535.282</ele>
        <time>2022-08-25T08:13:38Z</time>
      </trkpt>
      <trkpt lat="42.75740199999991" lon="-1.7146970000000057">
        <ele>535.278</ele>
        <time>2022-08-25T08:13:39Z</time>
      </trkpt>
      <trkpt lat="42.75738699999991" lon="-1.7147060000000056">
        <ele>535.279</ele>
        <time>2022-08-25T08:13:40Z</time>
      </trkpt>
      <trkpt lat="42.75737999999991" lon="-1.7147120000000056">
        <ele>535.467</ele>
        <time>2022-08-25T08:13:41Z</time>
      </trkpt>
      <trkpt lat="42.75736599999991" lon="-1.7147210000000055">
        <ele>535.681</ele>
        <time>2022-08-25T08:13:42Z</time>
      </trkpt>
      <trkpt lat="42.757274999999915" lon="-1.7147730000000054">
        <ele>535.819</ele>
        <time>2022-08-25T08:13:48Z</time>
      </trkpt>
      <trkpt lat="42.75726199999991" lon="-1.7147810000000054">
        <ele>536.009</ele>
        <time>2022-08-25T08:13:49Z</time>
      </trkpt>
      <trkpt lat="42.75723899999991" lon="-1.7148000000000054">
        <ele>536.087</ele>
        <time>2022-08-25T08:13:51Z</time>
      </trkpt>
      <trkpt lat="42.75722599999991" lon="-1.7148060000000054">
        <ele>536.287</ele>
        <time>2022-08-25T08:13:52Z</time>
      </trkpt>
      <trkpt lat="42.75720899999991" lon="-1.7148150000000053">
        <ele>536.277</ele>
        <time>2022-08-25T08:13:53Z</time>
      </trkpt>
      <trkpt lat="42.75713599999991" lon="-1.7148740000000053">
        <ele>536.443</ele>
        <time>2022-08-25T08:13:58Z</time>
      </trkpt>
      <trkpt lat="42.75712499999991" lon="-1.7148840000000054">
        <ele>536.425</ele>
        <time>2022-08-25T08:13:59Z</time>
      </trkpt>
      <trkpt lat="42.75711699999991" lon="-1.7148900000000054">
        <ele>536.462</ele>
        <time>2022-08-25T08:14:00Z</time>
      </trkpt>
      <trkpt lat="42.75710599999991" lon="-1.7148950000000054">
        <ele>536.625</ele>
        <time>2022-08-25T08:14:01Z</time>
      </trkpt>
      <trkpt lat="42.757089999999906" lon="-1.7149010000000053">
        <ele>536.611</ele>
        <time>2022-08-25T08:14:02Z</time>
      </trkpt>
      <trkpt lat="42.757075999999905" lon="-1.7149040000000053">
        <ele>536.652</ele>
        <time>2022-08-25T08:14:03Z</time>
      </trkpt>
      <trkpt lat="42.7570069999999" lon="-1.7149390000000053">
        <ele>537.077</ele>
        <time>2022-08-25T08:14:08Z</time>
      </trkpt>
      <trkpt lat="42.7569969999999" lon="-1.7149430000000052">
        <ele>537.061</ele>
        <time>2022-08-25T08:14:09Z</time>
      </trkpt>
      <trkpt lat="42.7569689999999" lon="-1.7149510000000052">
        <ele>537.227</ele>
        <time>2022-08-25T08:14:11Z</time>
      </trkpt>
      <trkpt lat="42.7569539999999" lon="-1.7149590000000052">
        <ele>537.209</ele>
        <time>2022-08-25T08:14:12Z</time>
      </trkpt>
      <trkpt lat="42.7569239999999" lon="-1.7149860000000052">
        <ele>537.688</ele>
        <time>2022-08-25T08:14:15Z</time>
      </trkpt>
      <trkpt lat="42.7569089999999" lon="-1.7150010000000053">
        <ele>537.628</ele>
        <time>2022-08-25T08:14:16Z</time>
      </trkpt>
      <trkpt lat="42.7568689999999" lon="-1.7150320000000052">
        <ele>537.638</ele>
        <time>2022-08-25T08:14:19Z</time>
      </trkpt>
      <trkpt lat="42.756853999999905" lon="-1.7150430000000052">
        <ele>537.874</ele>
        <time>2022-08-25T08:14:20Z</time>
      </trkpt>
      <trkpt lat="42.756827999999906" lon="-1.7150630000000051">
        <ele>538.076</ele>
        <time>2022-08-25T08:14:22Z</time>
      </trkpt>
      <trkpt lat="42.75681899999991" lon="-1.715072000000005">
        <ele>538.033</ele>
        <time>2022-08-25T08:14:23Z</time>
      </trkpt>
      <trkpt lat="42.75672299999991" lon="-1.715154000000005">
        <ele>538.636</ele>
        <time>2022-08-25T08:14:30Z</time>
      </trkpt>
      <trkpt lat="42.756709999999906" lon="-1.7151660000000049">
        <ele>538.822</ele>
        <time>2022-08-25T08:14:31Z</time>
      </trkpt>
      <trkpt lat="42.756695999999906" lon="-1.7151770000000048">
        <ele>539.273</ele>
        <time>2022-08-25T08:14:32Z</time>
      </trkpt>
      <trkpt lat="42.756684999999905" lon="-1.715184000000005">
        <ele>539.238</ele>
        <time>2022-08-25T08:14:33Z</time>
      </trkpt>
      <trkpt lat="42.7566349999999" lon="-1.715227000000005">
        <ele>539.670</ele>
        <time>2022-08-25T08:14:37Z</time>
      </trkpt>
      <trkpt lat="42.7566049999999" lon="-1.715246000000005">
        <ele>539.617</ele>
        <time>2022-08-25T08:14:39Z</time>
      </trkpt>
      <trkpt lat="42.756538999999904" lon="-1.715286000000005">
        <ele>539.809</ele>
        <time>2022-08-25T08:14:44Z</time>
      </trkpt>
      <trkpt lat="42.756529999999906" lon="-1.715293000000005">
        <ele>539.824</ele>
        <time>2022-08-25T08:14:45Z</time>
      </trkpt>
      <trkpt lat="42.75651499999991" lon="-1.715302000000005">
        <ele>540.274</ele>
        <time>2022-08-25T08:14:46Z</time>
      </trkpt>
      <trkpt lat="42.75650799999991" lon="-1.715310000000005">
        <ele>540.294</ele>
        <time>2022-08-25T08:14:47Z</time>
      </trkpt>
      <trkpt lat="42.75649799999991" lon="-1.715323000000005">
        <ele>540.470</ele>
        <time>2022-08-25T08:14:48Z</time>
      </trkpt>
      <trkpt lat="42.75644199999991" lon="-1.7153760000000051">
        <ele>541.222</ele>
        <time>2022-08-25T08:14:53Z</time>
      </trkpt>
      <trkpt lat="42.75642999999991" lon="-1.7153860000000052">
        <ele>541.479</ele>
        <time>2022-08-25T08:14:54Z</time>
      </trkpt>
      <trkpt lat="42.75641799999991" lon="-1.715395000000005">
        <ele>541.432</ele>
        <time>2022-08-25T08:14:55Z</time>
      </trkpt>
      <trkpt lat="42.75640599999991" lon="-1.715406000000005">
        <ele>541.668</ele>
        <time>2022-08-25T08:14:56Z</time>
      </trkpt>
      <trkpt lat="42.756393999999915" lon="-1.7154190000000051">
        <ele>541.689</ele>
        <time>2022-08-25T08:14:57Z</time>
      </trkpt>
      <trkpt lat="42.756379999999915" lon="-1.715431000000005">
        <ele>541.667</ele>
        <time>2022-08-25T08:14:58Z</time>
      </trkpt>
      <trkpt lat="42.75636199999992" lon="-1.7154460000000051">
        <ele>541.681</ele>
        <time>2022-08-25T08:14:59Z</time>
      </trkpt>
      <trkpt lat="42.756348999999915" lon="-1.715458000000005">
        <ele>541.619</ele>
        <time>2022-08-25T08:15:00Z</time>
      </trkpt>
      <trkpt lat="42.756334999999915" lon="-1.715469000000005">
        <ele>541.609</ele>
        <time>2022-08-25T08:15:01Z</time>
      </trkpt>
      <trkpt lat="42.75632499999991" lon="-1.715480000000005">
        <ele>541.887</ele>
        <time>2022-08-25T08:15:02Z</time>
      </trkpt>
      <trkpt lat="42.75631199999991" lon="-1.715494000000005">
        <ele>541.817</ele>
        <time>2022-08-25T08:15:03Z</time>
      </trkpt>
      <trkpt lat="42.75629699999991" lon="-1.715511000000005">
        <ele>542.087</ele>
        <time>2022-08-25T08:15:04Z</time>
      </trkpt>
      <trkpt lat="42.75628399999991" lon="-1.7155250000000049">
        <ele>542.033</ele>
        <time>2022-08-25T08:15:05Z</time>
      </trkpt>
      <trkpt lat="42.75626999999991" lon="-1.715535000000005">
        <ele>542.025</ele>
        <time>2022-08-25T08:15:06Z</time>
      </trkpt>
      <trkpt lat="42.75623299999991" lon="-1.715569000000005">
        <ele>542.282</ele>
        <time>2022-08-25T08:15:09Z</time>
      </trkpt>
      <trkpt lat="42.75621799999991" lon="-1.715584000000005">
        <ele>542.475</ele>
        <time>2022-08-25T08:15:10Z</time>
      </trkpt>
      <trkpt lat="42.75615299999991" lon="-1.7156400000000052">
        <ele>542.841</ele>
        <time>2022-08-25T08:15:15Z</time>
      </trkpt>
      <trkpt lat="42.75612899999991" lon="-1.7156610000000052">
        <ele>543.032</ele>
        <time>2022-08-25T08:15:17Z</time>
      </trkpt>
      <trkpt lat="42.756059999999906" lon="-1.7157110000000053">
        <ele>543.483</ele>
        <time>2022-08-25T08:15:22Z</time>
      </trkpt>
      <trkpt lat="42.75603699999991" lon="-1.7157340000000054">
        <ele>543.625</ele>
        <time>2022-08-25T08:15:24Z</time>
      </trkpt>
      <trkpt lat="42.756011999999906" lon="-1.7157650000000053">
        <ele>543.617</ele>
        <time>2022-08-25T08:15:26Z</time>
      </trkpt>
      <trkpt lat="42.755961999999904" lon="-1.7158060000000053">
        <ele>544.009</ele>
        <time>2022-08-25T08:15:30Z</time>
      </trkpt>
      <trkpt lat="42.75593299999991" lon="-1.7158300000000053">
        <ele>544.259</ele>
        <time>2022-08-25T08:15:32Z</time>
      </trkpt>
      <trkpt lat="42.755907999999906" lon="-1.7158470000000052">
        <ele>544.449</ele>
        <time>2022-08-25T08:15:34Z</time>
      </trkpt>
      <trkpt lat="42.7558949999999" lon="-1.7158570000000053">
        <ele>544.429</ele>
        <time>2022-08-25T08:15:35Z</time>
      </trkpt>
      <trkpt lat="42.755879999999905" lon="-1.7158680000000053">
        <ele>544.655</ele>
        <time>2022-08-25T08:15:36Z</time>
      </trkpt>
      <trkpt lat="42.755865999999905" lon="-1.7158760000000053">
        <ele>544.627</ele>
        <time>2022-08-25T08:15:37Z</time>
      </trkpt>
      <trkpt lat="42.7558499999999" lon="-1.7158840000000053">
        <ele>544.674</ele>
        <time>2022-08-25T08:15:38Z</time>
      </trkpt>
      <trkpt lat="42.755772999999905" lon="-1.7159280000000052">
        <ele>544.497</ele>
        <time>2022-08-25T08:15:43Z</time>
      </trkpt>
      <trkpt lat="42.755682999999905" lon="-1.7159890000000053">
        <ele>544.643</ele>
        <time>2022-08-25T08:15:49Z</time>
      </trkpt>
      <trkpt lat="42.7556669999999" lon="-1.7160000000000053">
        <ele>544.634</ele>
        <time>2022-08-25T08:15:50Z</time>
      </trkpt>
      <trkpt lat="42.755632999999904" lon="-1.7160220000000053">
        <ele>544.649</ele>
        <time>2022-08-25T08:15:52Z</time>
      </trkpt>
      <trkpt lat="42.7555489999999" lon="-1.7160950000000053">
        <ele>545.002</ele>
        <time>2022-08-25T08:15:57Z</time>
      </trkpt>
      <trkpt lat="42.7555349999999" lon="-1.7161100000000054">
        <ele>545.022</ele>
        <time>2022-08-25T08:15:58Z</time>
      </trkpt>
      <trkpt lat="42.7555239999999" lon="-1.7161240000000053">
        <ele>545.009</ele>
        <time>2022-08-25T08:15:59Z</time>
      </trkpt>
      <trkpt lat="42.7555109999999" lon="-1.7161370000000054">
        <ele>545.035</ele>
        <time>2022-08-25T08:16:00Z</time>
      </trkpt>
      <trkpt lat="42.7554719999999" lon="-1.7161750000000053">
        <ele>545.085</ele>
        <time>2022-08-25T08:16:02Z</time>
      </trkpt>
      <trkpt lat="42.7554569999999" lon="-1.7161890000000053">
        <ele>545.025</ele>
        <time>2022-08-25T08:16:03Z</time>
      </trkpt>
      <trkpt lat="42.7554459999999" lon="-1.7161990000000054">
        <ele>545.061</ele>
        <time>2022-08-25T08:16:04Z</time>
      </trkpt>
      <trkpt lat="42.7554339999999" lon="-1.7162080000000053">
        <ele>545.053</ele>
        <time>2022-08-25T08:16:05Z</time>
      </trkpt>
      <trkpt lat="42.7553699999999" lon="-1.7162810000000053">
        <ele>545.020</ele>
        <time>2022-08-25T08:16:09Z</time>
      </trkpt>
      <trkpt lat="42.7553479999999" lon="-1.7163030000000052">
        <ele>545.253</ele>
        <time>2022-08-25T08:16:11Z</time>
      </trkpt>
      <trkpt lat="42.7553359999999" lon="-1.7163180000000053">
        <ele>545.239</ele>
        <time>2022-08-25T08:16:12Z</time>
      </trkpt>
      <trkpt lat="42.7553189999999" lon="-1.7163400000000053">
        <ele>545.240</ele>
        <time>2022-08-25T08:16:13Z</time>
      </trkpt>
      <trkpt lat="42.7552789999999" lon="-1.7163870000000052">
        <ele>545.636</ele>
        <time>2022-08-25T08:16:16Z</time>
      </trkpt>
      <trkpt lat="42.7552649999999" lon="-1.7164050000000053">
        <ele>545.617</ele>
        <time>2022-08-25T08:16:17Z</time>
      </trkpt>
      <trkpt lat="42.7552289999999" lon="-1.7164380000000052">
        <ele>546.018</ele>
        <time>2022-08-25T08:16:19Z</time>
      </trkpt>
      <trkpt lat="42.7552009999999" lon="-1.7164610000000053">
        <ele>546.409</ele>
        <time>2022-08-25T08:16:21Z</time>
      </trkpt>
      <trkpt lat="42.7551849999999" lon="-1.7164730000000052">
        <ele>546.684</ele>
        <time>2022-08-25T08:16:22Z</time>
      </trkpt>
      <trkpt lat="42.755098999999895" lon="-1.7165570000000052">
        <ele>546.894</ele>
        <time>2022-08-25T08:16:27Z</time>
      </trkpt>
      <trkpt lat="42.755084999999895" lon="-1.7165720000000053">
        <ele>547.294</ele>
        <time>2022-08-25T08:16:28Z</time>
      </trkpt>
      <trkpt lat="42.7550669999999" lon="-1.7165910000000053">
        <ele>547.450</ele>
        <time>2022-08-25T08:16:29Z</time>
      </trkpt>
      <trkpt lat="42.7550489999999" lon="-1.7166060000000054">
        <ele>547.642</ele>
        <time>2022-08-25T08:16:30Z</time>
      </trkpt>
      <trkpt lat="42.7549839999999" lon="-1.7166630000000054">
        <ele>548.439</ele>
        <time>2022-08-25T08:16:34Z</time>
      </trkpt>
      <trkpt lat="42.7549699999999" lon="-1.7166760000000054">
        <ele>548.422</ele>
        <time>2022-08-25T08:16:35Z</time>
      </trkpt>
      <trkpt lat="42.7549549999999" lon="-1.7166900000000054">
        <ele>548.638</ele>
        <time>2022-08-25T08:16:36Z</time>
      </trkpt>
      <trkpt lat="42.7549439999999" lon="-1.7167010000000054">
        <ele>548.829</ele>
        <time>2022-08-25T08:16:37Z</time>
      </trkpt>
      <trkpt lat="42.7549299999999" lon="-1.7167140000000054">
        <ele>549.089</ele>
        <time>2022-08-25T08:16:38Z</time>
      </trkpt>
      <trkpt lat="42.754914999999905" lon="-1.7167260000000053">
        <ele>549.206</ele>
        <time>2022-08-25T08:16:39Z</time>
      </trkpt>
      <trkpt lat="42.7548989999999" lon="-1.7167390000000053">
        <ele>549.426</ele>
        <time>2022-08-25T08:16:40Z</time>
      </trkpt>
      <trkpt lat="42.7548889999999" lon="-1.7167490000000054">
        <ele>549.809</ele>
        <time>2022-08-25T08:16:41Z</time>
      </trkpt>
      <trkpt lat="42.754878999999896" lon="-1.7167590000000055">
        <ele>550.219</ele>
        <time>2022-08-25T08:16:42Z</time>
      </trkpt>
      <trkpt lat="42.754867999999895" lon="-1.7167660000000056">
        <ele>550.239</ele>
        <time>2022-08-25T08:16:43Z</time>
      </trkpt>
      <trkpt lat="42.754856999999895" lon="-1.7167750000000055">
        <ele>550.459</ele>
        <time>2022-08-25T08:16:44Z</time>
      </trkpt>
      <trkpt lat="42.75484399999989" lon="-1.7167800000000055">
        <ele>550.445</ele>
        <time>2022-08-25T08:16:45Z</time>
      </trkpt>
      <trkpt lat="42.754831999999894" lon="-1.7167880000000055">
        <ele>550.667</ele>
        <time>2022-08-25T08:16:46Z</time>
      </trkpt>
      <trkpt lat="42.754819999999896" lon="-1.7167980000000056">
        <ele>550.654</ele>
        <time>2022-08-25T08:16:47Z</time>
      </trkpt>
      <trkpt lat="42.75480699999989" lon="-1.7168090000000056">
        <ele>550.887</ele>
        <time>2022-08-25T08:16:48Z</time>
      </trkpt>
      <trkpt lat="42.754794999999895" lon="-1.7168180000000055">
        <ele>550.873</ele>
        <time>2022-08-25T08:16:49Z</time>
      </trkpt>
      <trkpt lat="42.754783999999894" lon="-1.7168230000000055">
        <ele>550.844</ele>
        <time>2022-08-25T08:16:50Z</time>
      </trkpt>
      <trkpt lat="42.754772999999894" lon="-1.7168300000000056">
        <ele>551.064</ele>
        <time>2022-08-25T08:16:51Z</time>
      </trkpt>
      <trkpt lat="42.75476499999989" lon="-1.7168350000000057">
        <ele>551.006</ele>
        <time>2022-08-25T08:16:52Z</time>
      </trkpt>
      <trkpt lat="42.75475099999989" lon="-1.7168470000000056">
        <ele>551.216</ele>
        <time>2022-08-25T08:16:53Z</time>
      </trkpt>
      <trkpt lat="42.75473999999989" lon="-1.7168580000000055">
        <ele>551.409</ele>
        <time>2022-08-25T08:16:54Z</time>
      </trkpt>
      <trkpt lat="42.75472899999989" lon="-1.7168700000000054">
        <ele>551.457</ele>
        <time>2022-08-25T08:16:55Z</time>
      </trkpt>
      <trkpt lat="42.75471999999989" lon="-1.7168780000000055">
        <ele>551.477</ele>
        <time>2022-08-25T08:16:56Z</time>
      </trkpt>
      <trkpt lat="42.75470699999989" lon="-1.7168890000000054">
        <ele>551.467</ele>
        <time>2022-08-25T08:16:57Z</time>
      </trkpt>
      <trkpt lat="42.75469199999989" lon="-1.7169020000000055">
        <ele>551.683</ele>
        <time>2022-08-25T08:16:58Z</time>
      </trkpt>
      <trkpt lat="42.754679999999894" lon="-1.7169120000000055">
        <ele>551.675</ele>
        <time>2022-08-25T08:16:59Z</time>
      </trkpt>
      <trkpt lat="42.75466999999989" lon="-1.7169210000000055">
        <ele>551.852</ele>
        <time>2022-08-25T08:17:00Z</time>
      </trkpt>
      <trkpt lat="42.75466199999989" lon="-1.7169300000000054">
        <ele>552.035</ele>
        <time>2022-08-25T08:17:01Z</time>
      </trkpt>
      <trkpt lat="42.75465299999989" lon="-1.7169400000000055">
        <ele>552.071</ele>
        <time>2022-08-25T08:17:02Z</time>
      </trkpt>
      <trkpt lat="42.75464199999989" lon="-1.7169500000000055">
        <ele>552.272</ele>
        <time>2022-08-25T08:17:03Z</time>
      </trkpt>
      <trkpt lat="42.75463099999989" lon="-1.7169590000000055">
        <ele>552.223</ele>
        <time>2022-08-25T08:17:04Z</time>
      </trkpt>
      <trkpt lat="42.75461999999989" lon="-1.7169700000000054">
        <ele>552.483</ele>
        <time>2022-08-25T08:17:05Z</time>
      </trkpt>
      <trkpt lat="42.75460799999989" lon="-1.7169760000000054">
        <ele>552.411</ele>
        <time>2022-08-25T08:17:06Z</time>
      </trkpt>
      <trkpt lat="42.75459599999989" lon="-1.7169810000000054">
        <ele>552.809</ele>
        <time>2022-08-25T08:17:07Z</time>
      </trkpt>
      <trkpt lat="42.75458199999989" lon="-1.7169890000000054">
        <ele>552.893</ele>
        <time>2022-08-25T08:17:08Z</time>
      </trkpt>
      <trkpt lat="42.75456899999989" lon="-1.7170010000000053">
        <ele>552.843</ele>
        <time>2022-08-25T08:17:09Z</time>
      </trkpt>
      <trkpt lat="42.75455499999989" lon="-1.7170130000000052">
        <ele>553.063</ele>
        <time>2022-08-25T08:17:10Z</time>
      </trkpt>
      <trkpt lat="42.75454099999989" lon="-1.7170230000000053">
        <ele>553.089</ele>
        <time>2022-08-25T08:17:11Z</time>
      </trkpt>
      <trkpt lat="42.75452899999989" lon="-1.7170330000000054">
        <ele>553.461</ele>
        <time>2022-08-25T08:17:12Z</time>
      </trkpt>
      <trkpt lat="42.75451599999989" lon="-1.7170450000000053">
        <ele>553.688</ele>
        <time>2022-08-25T08:17:13Z</time>
      </trkpt>
      <trkpt lat="42.754502999999886" lon="-1.7170580000000053">
        <ele>554.011</ele>
        <time>2022-08-25T08:17:14Z</time>
      </trkpt>
      <trkpt lat="42.754494999999885" lon="-1.7170730000000054">
        <ele>554.287</ele>
        <time>2022-08-25T08:17:15Z</time>
      </trkpt>
      <trkpt lat="42.75448799999989" lon="-1.7170880000000055">
        <ele>554.498</ele>
        <time>2022-08-25T08:17:16Z</time>
      </trkpt>
      <trkpt lat="42.75447999999989" lon="-1.7171050000000054">
        <ele>554.621</ele>
        <time>2022-08-25T08:17:17Z</time>
      </trkpt>
      <trkpt lat="42.754471999999886" lon="-1.7171160000000054">
        <ele>554.641</ele>
        <time>2022-08-25T08:17:18Z</time>
      </trkpt>
      <trkpt lat="42.754460999999885" lon="-1.7171240000000054">
        <ele>555.005</ele>
        <time>2022-08-25T08:17:19Z</time>
      </trkpt>
      <trkpt lat="42.75445099999988" lon="-1.7171350000000054">
        <ele>555.209</ele>
        <time>2022-08-25T08:17:20Z</time>
      </trkpt>
      <trkpt lat="42.754441999999884" lon="-1.7171460000000054">
        <ele>555.243</ele>
        <time>2022-08-25T08:17:21Z</time>
      </trkpt>
      <trkpt lat="42.75443199999988" lon="-1.7171580000000053">
        <ele>555.493</ele>
        <time>2022-08-25T08:17:22Z</time>
      </trkpt>
      <trkpt lat="42.75442099999988" lon="-1.7171720000000052">
        <ele>555.473</ele>
        <time>2022-08-25T08:17:23Z</time>
      </trkpt>
      <trkpt lat="42.75440899999988" lon="-1.7171830000000052">
        <ele>555.699</ele>
        <time>2022-08-25T08:17:24Z</time>
      </trkpt>
      <trkpt lat="42.75439299999988" lon="-1.7171900000000053">
        <ele>555.851</ele>
        <time>2022-08-25T08:17:25Z</time>
      </trkpt>
      <trkpt lat="42.75437899999988" lon="-1.7171970000000054">
        <ele>556.068</ele>
        <time>2022-08-25T08:17:26Z</time>
      </trkpt>
      <trkpt lat="42.75436499999988" lon="-1.7172040000000055">
        <ele>556.221</ele>
        <time>2022-08-25T08:17:27Z</time>
      </trkpt>
      <trkpt lat="42.75435099999988" lon="-1.7172140000000056">
        <ele>556.247</ele>
        <time>2022-08-25T08:17:28Z</time>
      </trkpt>
      <trkpt lat="42.75433499999988" lon="-1.7172240000000056">
        <ele>556.478</ele>
        <time>2022-08-25T08:17:29Z</time>
      </trkpt>
      <trkpt lat="42.75432299999988" lon="-1.7172310000000057">
        <ele>556.682</ele>
        <time>2022-08-25T08:17:30Z</time>
      </trkpt>
      <trkpt lat="42.754306999999876" lon="-1.7172440000000058">
        <ele>556.843</ele>
        <time>2022-08-25T08:17:31Z</time>
      </trkpt>
      <trkpt lat="42.75429199999988" lon="-1.7172620000000058">
        <ele>556.817</ele>
        <time>2022-08-25T08:17:32Z</time>
      </trkpt>
      <trkpt lat="42.75427599999988" lon="-1.7172750000000059">
        <ele>557.009</ele>
        <time>2022-08-25T08:17:33Z</time>
      </trkpt>
      <trkpt lat="42.754262999999874" lon="-1.717282000000006">
        <ele>557.299</ele>
        <time>2022-08-25T08:17:34Z</time>
      </trkpt>
      <trkpt lat="42.754250999999876" lon="-1.717292000000006">
        <ele>557.469</ele>
        <time>2022-08-25T08:17:35Z</time>
      </trkpt>
      <trkpt lat="42.754239999999875" lon="-1.717303000000006">
        <ele>557.639</ele>
        <time>2022-08-25T08:17:36Z</time>
      </trkpt>
      <trkpt lat="42.754230999999876" lon="-1.717311000000006">
        <ele>557.855</ele>
        <time>2022-08-25T08:17:37Z</time>
      </trkpt>
      <trkpt lat="42.75421899999988" lon="-1.7173180000000061">
        <ele>558.037</ele>
        <time>2022-08-25T08:17:38Z</time>
      </trkpt>
      <trkpt lat="42.75421099999988" lon="-1.7173250000000062">
        <ele>558.274</ele>
        <time>2022-08-25T08:17:39Z</time>
      </trkpt>
      <trkpt lat="42.754197999999874" lon="-1.7173300000000062">
        <ele>558.427</ele>
        <time>2022-08-25T08:17:40Z</time>
      </trkpt>
      <trkpt lat="42.75418499999987" lon="-1.7173370000000063">
        <ele>558.633</ele>
        <time>2022-08-25T08:17:41Z</time>
      </trkpt>
      <trkpt lat="42.754172999999874" lon="-1.7173430000000063">
        <ele>558.824</ele>
        <time>2022-08-25T08:17:42Z</time>
      </trkpt>
      <trkpt lat="42.754160999999876" lon="-1.7173490000000062">
        <ele>559.035</ele>
        <time>2022-08-25T08:17:43Z</time>
      </trkpt>
      <trkpt lat="42.75415199999988" lon="-1.7173580000000062">
        <ele>559.286</ele>
        <time>2022-08-25T08:17:44Z</time>
      </trkpt>
      <trkpt lat="42.75414299999988" lon="-1.7173650000000062">
        <ele>559.414</ele>
        <time>2022-08-25T08:17:45Z</time>
      </trkpt>
      <trkpt lat="42.75413399999988" lon="-1.7173750000000063">
        <ele>559.409</ele>
        <time>2022-08-25T08:17:46Z</time>
      </trkpt>
      <trkpt lat="42.75412599999988" lon="-1.7173820000000064">
        <ele>559.884</ele>
        <time>2022-08-25T08:17:47Z</time>
      </trkpt>
      <trkpt lat="42.75411799999988" lon="-1.7173890000000065">
        <ele>560.024</ele>
        <time>2022-08-25T08:17:48Z</time>
      </trkpt>
      <trkpt lat="42.75411099999988" lon="-1.7173960000000066">
        <ele>560.034</ele>
        <time>2022-08-25T08:17:49Z</time>
      </trkpt>
      <trkpt lat="42.75409999999988" lon="-1.7174050000000065">
        <ele>560.220</ele>
        <time>2022-08-25T08:17:50Z</time>
      </trkpt>
      <trkpt lat="42.75409199999988" lon="-1.7174120000000066">
        <ele>560.272</ele>
        <time>2022-08-25T08:17:51Z</time>
      </trkpt>
      <trkpt lat="42.75408299999988" lon="-1.7174200000000066">
        <ele>560.439</ele>
        <time>2022-08-25T08:17:52Z</time>
      </trkpt>
      <trkpt lat="42.75407399999988" lon="-1.7174280000000066">
        <ele>560.822</ele>
        <time>2022-08-25T08:17:53Z</time>
      </trkpt>
      <trkpt lat="42.754066999999885" lon="-1.7174330000000066">
        <ele>560.838</ele>
        <time>2022-08-25T08:17:54Z</time>
      </trkpt>
      <trkpt lat="42.754055999999885" lon="-1.7174390000000066">
        <ele>561.079</ele>
        <time>2022-08-25T08:17:55Z</time>
      </trkpt>
      <trkpt lat="42.75404399999989" lon="-1.7174480000000065">
        <ele>561.022</ele>
        <time>2022-08-25T08:17:56Z</time>
      </trkpt>
      <trkpt lat="42.75403499999989" lon="-1.7174560000000065">
        <ele>561.262</ele>
        <time>2022-08-25T08:17:57Z</time>
      </trkpt>
      <trkpt lat="42.75402899999989" lon="-1.7174620000000065">
        <ele>561.408</ele>
        <time>2022-08-25T08:17:58Z</time>
      </trkpt>
      <trkpt lat="42.75402499999989" lon="-1.7174680000000064">
        <ele>561.409</ele>
        <time>2022-08-25T08:17:59Z</time>
      </trkpt>
      <trkpt lat="42.75401499999989" lon="-1.7174750000000065">
        <ele>561.663</ele>
        <time>2022-08-25T08:18:00Z</time>
      </trkpt>
      <trkpt lat="42.75400599999989" lon="-1.7174810000000065">
        <ele>561.613</ele>
        <time>2022-08-25T08:18:01Z</time>
      </trkpt>
      <trkpt lat="42.75399599999989" lon="-1.7174880000000066">
        <ele>561.843</ele>
        <time>2022-08-25T08:18:02Z</time>
      </trkpt>
      <trkpt lat="42.75398699999989" lon="-1.7174970000000065">
        <ele>561.839</ele>
        <time>2022-08-25T08:18:03Z</time>
      </trkpt>
      <trkpt lat="42.75397999999989" lon="-1.7175030000000064">
        <ele>562.091</ele>
        <time>2022-08-25T08:18:04Z</time>
      </trkpt>
      <trkpt lat="42.75396999999989" lon="-1.7175060000000064">
        <ele>562.278</ele>
        <time>2022-08-25T08:18:05Z</time>
      </trkpt>
      <trkpt lat="42.75396199999989" lon="-1.7175130000000065">
        <ele>562.491</ele>
        <time>2022-08-25T08:18:06Z</time>
      </trkpt>
      <trkpt lat="42.75395299999989" lon="-1.7175180000000065">
        <ele>562.697</ele>
        <time>2022-08-25T08:18:07Z</time>
      </trkpt>
      <trkpt lat="42.75394599999989" lon="-1.7175220000000064">
        <ele>562.638</ele>
        <time>2022-08-25T08:18:08Z</time>
      </trkpt>
      <trkpt lat="42.753938999999896" lon="-1.7175290000000065">
        <ele>562.873</ele>
        <time>2022-08-25T08:18:09Z</time>
      </trkpt>
      <trkpt lat="42.753930999999895" lon="-1.7175360000000066">
        <ele>563.085</ele>
        <time>2022-08-25T08:18:10Z</time>
      </trkpt>
      <trkpt lat="42.753921999999896" lon="-1.7175400000000065">
        <ele>563.013</ele>
        <time>2022-08-25T08:18:11Z</time>
      </trkpt>
      <trkpt lat="42.753910999999896" lon="-1.7175430000000065">
        <ele>563.009</ele>
        <time>2022-08-25T08:18:12Z</time>
      </trkpt>
      <trkpt lat="42.7539039999999" lon="-1.7175490000000064">
        <ele>563.248</ele>
        <time>2022-08-25T08:18:13Z</time>
      </trkpt>
      <trkpt lat="42.7538969999999" lon="-1.7175540000000065">
        <ele>563.428</ele>
        <time>2022-08-25T08:18:14Z</time>
      </trkpt>
      <trkpt lat="42.7538889999999" lon="-1.7175620000000065">
        <ele>563.668</ele>
        <time>2022-08-25T08:18:15Z</time>
      </trkpt>
      <trkpt lat="42.753881999999905" lon="-1.7175670000000065">
        <ele>563.894</ele>
        <time>2022-08-25T08:18:16Z</time>
      </trkpt>
      <trkpt lat="42.75387499999991" lon="-1.7175740000000066">
        <ele>563.886</ele>
        <time>2022-08-25T08:18:17Z</time>
      </trkpt>
      <trkpt lat="42.75386699999991" lon="-1.7175800000000065">
        <ele>564.073</ele>
        <time>2022-08-25T08:18:18Z</time>
      </trkpt>
      <trkpt lat="42.75385799999991" lon="-1.7175860000000065">
        <ele>564.076</ele>
        <time>2022-08-25T08:18:19Z</time>
      </trkpt>
      <trkpt lat="42.75384699999991" lon="-1.7175950000000064">
        <ele>564.222</ele>
        <time>2022-08-25T08:18:20Z</time>
      </trkpt>
      <trkpt lat="42.75383799999991" lon="-1.7175990000000063">
        <ele>564.443</ele>
        <time>2022-08-25T08:18:21Z</time>
      </trkpt>
      <trkpt lat="42.75382999999991" lon="-1.7176060000000064">
        <ele>564.494</ele>
        <time>2022-08-25T08:18:22Z</time>
      </trkpt>
      <trkpt lat="42.75382299999991" lon="-1.7176110000000064">
        <ele>564.657</ele>
        <time>2022-08-25T08:18:23Z</time>
      </trkpt>
      <trkpt lat="42.75381699999991" lon="-1.7176170000000064">
        <ele>564.622</ele>
        <time>2022-08-25T08:18:24Z</time>
      </trkpt>
      <trkpt lat="42.75380699999991" lon="-1.7176250000000064">
        <ele>564.809</ele>
        <time>2022-08-25T08:18:25Z</time>
      </trkpt>
      <trkpt lat="42.753796999999906" lon="-1.7176340000000063">
        <ele>565.270</ele>
        <time>2022-08-25T08:18:26Z</time>
      </trkpt>
      <trkpt lat="42.753788999999905" lon="-1.7176430000000062">
        <ele>565.280</ele>
        <time>2022-08-25T08:18:27Z</time>
      </trkpt>
      <trkpt lat="42.75378199999991" lon="-1.7176490000000062">
        <ele>565.470</ele>
        <time>2022-08-25T08:18:28Z</time>
      </trkpt>
      <trkpt lat="42.75377399999991" lon="-1.7176580000000061">
        <ele>565.456</ele>
        <time>2022-08-25T08:18:29Z</time>
      </trkpt>
      <trkpt lat="42.75376499999991" lon="-1.717667000000006">
        <ele>565.628</ele>
        <time>2022-08-25T08:18:30Z</time>
      </trkpt>
      <trkpt lat="42.75375899999991" lon="-1.717673000000006">
        <ele>565.615</ele>
        <time>2022-08-25T08:18:31Z</time>
      </trkpt>
      <trkpt lat="42.75375099999991" lon="-1.717679000000006">
        <ele>565.858</ele>
        <time>2022-08-25T08:18:32Z</time>
      </trkpt>
      <trkpt lat="42.75374399999991" lon="-1.717684000000006">
        <ele>566.084</ele>
        <time>2022-08-25T08:18:33Z</time>
      </trkpt>
      <trkpt lat="42.753734999999914" lon="-1.717691000000006">
        <ele>566.075</ele>
        <time>2022-08-25T08:18:34Z</time>
      </trkpt>
      <trkpt lat="42.753728999999915" lon="-1.717696000000006">
        <ele>566.276</ele>
        <time>2022-08-25T08:18:35Z</time>
      </trkpt>
      <trkpt lat="42.753722999999916" lon="-1.7177010000000061">
        <ele>566.290</ele>
        <time>2022-08-25T08:18:36Z</time>
      </trkpt>
      <trkpt lat="42.75371699999992" lon="-1.717707000000006">
        <ele>566.419</ele>
        <time>2022-08-25T08:18:37Z</time>
      </trkpt>
      <trkpt lat="42.75371099999992" lon="-1.7177140000000062">
        <ele>566.409</ele>
        <time>2022-08-25T08:18:38Z</time>
      </trkpt>
      <trkpt lat="42.75370399999992" lon="-1.7177250000000062">
        <ele>566.638</ele>
        <time>2022-08-25T08:18:39Z</time>
      </trkpt>
      <trkpt lat="42.75369799999992" lon="-1.7177330000000062">
        <ele>566.648</ele>
        <time>2022-08-25T08:18:40Z</time>
      </trkpt>
      <trkpt lat="42.753693999999925" lon="-1.7177390000000061">
        <ele>566.848</ele>
        <time>2022-08-25T08:18:41Z</time>
      </trkpt>
      <trkpt lat="42.75368899999992" lon="-1.7177490000000062">
        <ele>566.864</ele>
        <time>2022-08-25T08:18:42Z</time>
      </trkpt>
      <trkpt lat="42.753679999999925" lon="-1.7177560000000063">
        <ele>566.876</ele>
        <time>2022-08-25T08:18:43Z</time>
      </trkpt>
      <trkpt lat="42.75366999999992" lon="-1.7177630000000064">
        <ele>567.053</ele>
        <time>2022-08-25T08:18:44Z</time>
      </trkpt>
      <trkpt lat="42.75366099999992" lon="-1.7177710000000064">
        <ele>567.036</ele>
        <time>2022-08-25T08:18:45Z</time>
      </trkpt>
      <trkpt lat="42.753651999999924" lon="-1.7177810000000064">
        <ele>567.282</ele>
        <time>2022-08-25T08:18:46Z</time>
      </trkpt>
      <trkpt lat="42.75364399999992" lon="-1.7177940000000065">
        <ele>567.293</ele>
        <time>2022-08-25T08:18:47Z</time>
      </trkpt>
      <trkpt lat="42.753637999999924" lon="-1.7178010000000066">
        <ele>567.488</ele>
        <time>2022-08-25T08:18:48Z</time>
      </trkpt>
      <trkpt lat="42.753628999999925" lon="-1.7178120000000066">
        <ele>567.424</ele>
        <time>2022-08-25T08:18:49Z</time>
      </trkpt>
      <trkpt lat="42.753620999999924" lon="-1.7178210000000065">
        <ele>567.426</ele>
        <time>2022-08-25T08:18:50Z</time>
      </trkpt>
      <trkpt lat="42.75361599999992" lon="-1.7178290000000065">
        <ele>567.609</ele>
        <time>2022-08-25T08:18:51Z</time>
      </trkpt>
      <trkpt lat="42.753608999999926" lon="-1.7178380000000064">
        <ele>567.879</ele>
        <time>2022-08-25T08:18:52Z</time>
      </trkpt>
      <trkpt lat="42.753600999999925" lon="-1.7178480000000065">
        <ele>567.889</ele>
        <time>2022-08-25T08:18:53Z</time>
      </trkpt>
      <trkpt lat="42.75359099999992" lon="-1.7178550000000066">
        <ele>568.459</ele>
        <time>2022-08-25T08:18:54Z</time>
      </trkpt>
      <trkpt lat="42.75358199999992" lon="-1.7178630000000066">
        <ele>568.685</ele>
        <time>2022-08-25T08:18:55Z</time>
      </trkpt>
      <trkpt lat="42.753575999999924" lon="-1.7178700000000067">
        <ele>568.827</ele>
        <time>2022-08-25T08:18:56Z</time>
      </trkpt>
      <trkpt lat="42.75356899999993" lon="-1.7178800000000067">
        <ele>568.894</ele>
        <time>2022-08-25T08:18:57Z</time>
      </trkpt>
      <trkpt lat="42.75356499999993" lon="-1.7178920000000066">
        <ele>569.237</ele>
        <time>2022-08-25T08:18:58Z</time>
      </trkpt>
      <trkpt lat="42.75355999999993" lon="-1.7178950000000066">
        <ele>569.443</ele>
        <time>2022-08-25T08:18:59Z</time>
      </trkpt>
      <trkpt lat="42.75355199999993" lon="-1.7179000000000066">
        <ele>569.654</ele>
        <time>2022-08-25T08:19:00Z</time>
      </trkpt>
      <trkpt lat="42.75354799999993" lon="-1.7179080000000067">
        <ele>569.821</ele>
        <time>2022-08-25T08:19:01Z</time>
      </trkpt>
      <trkpt lat="42.75353999999993" lon="-1.7179180000000067">
        <ele>569.841</ele>
        <time>2022-08-25T08:19:02Z</time>
      </trkpt>
      <trkpt lat="42.75352999999993" lon="-1.7179260000000067">
        <ele>570.005</ele>
        <time>2022-08-25T08:19:03Z</time>
      </trkpt>
      <trkpt lat="42.753521999999926" lon="-1.7179300000000066">
        <ele>570.209</ele>
        <time>2022-08-25T08:19:04Z</time>
      </trkpt>
      <trkpt lat="42.753513999999925" lon="-1.7179360000000066">
        <ele>570.493</ele>
        <time>2022-08-25T08:19:05Z</time>
      </trkpt>
      <trkpt lat="42.75350699999993" lon="-1.7179430000000067">
        <ele>570.633</ele>
        <time>2022-08-25T08:19:06Z</time>
      </trkpt>
      <trkpt lat="42.75349999999993" lon="-1.7179530000000067">
        <ele>570.633</ele>
        <time>2022-08-25T08:19:07Z</time>
      </trkpt>
      <trkpt lat="42.75349199999993" lon="-1.7179630000000068">
        <ele>570.849</ele>
        <time>2022-08-25T08:19:08Z</time>
      </trkpt>
      <trkpt lat="42.75348699999993" lon="-1.7179710000000068">
        <ele>570.831</ele>
        <time>2022-08-25T08:19:09Z</time>
      </trkpt>
      <trkpt lat="42.75348199999993" lon="-1.7179780000000069">
        <ele>570.848</ele>
        <time>2022-08-25T08:19:10Z</time>
      </trkpt>
      <trkpt lat="42.753476999999926" lon="-1.717985000000007">
        <ele>571.021</ele>
        <time>2022-08-25T08:19:11Z</time>
      </trkpt>
      <trkpt lat="42.75346799999993" lon="-1.717995000000007">
        <ele>571.217</ele>
        <time>2022-08-25T08:19:12Z</time>
      </trkpt>
      <trkpt lat="42.75345899999993" lon="-1.718005000000007">
        <ele>571.468</ele>
        <time>2022-08-25T08:19:13Z</time>
      </trkpt>
      <trkpt lat="42.75345199999993" lon="-1.7180130000000071">
        <ele>571.444</ele>
        <time>2022-08-25T08:19:14Z</time>
      </trkpt>
      <trkpt lat="42.753444999999935" lon="-1.7180200000000072">
        <ele>571.605</ele>
        <time>2022-08-25T08:19:15Z</time>
      </trkpt>
      <trkpt lat="42.75343599999994" lon="-1.7180260000000072">
        <ele>571.815</ele>
        <time>2022-08-25T08:19:16Z</time>
      </trkpt>
      <trkpt lat="42.75342899999994" lon="-1.7180310000000072">
        <ele>571.809</ele>
        <time>2022-08-25T08:19:17Z</time>
      </trkpt>
      <trkpt lat="42.75341899999994" lon="-1.7180410000000073">
        <ele>572.065</ele>
        <time>2022-08-25T08:19:18Z</time>
      </trkpt>
      <trkpt lat="42.753410999999936" lon="-1.7180500000000072">
        <ele>572.275</ele>
        <time>2022-08-25T08:19:19Z</time>
      </trkpt>
      <trkpt lat="42.75340499999994" lon="-1.718059000000007">
        <ele>572.245</ele>
        <time>2022-08-25T08:19:20Z</time>
      </trkpt>
      <trkpt lat="42.753399999999935" lon="-1.7180690000000072">
        <ele>572.251</ele>
        <time>2022-08-25T08:19:21Z</time>
      </trkpt>
      <trkpt lat="42.753394999999934" lon="-1.7180790000000072">
        <ele>572.243</ele>
        <time>2022-08-25T08:19:22Z</time>
      </trkpt>
      <trkpt lat="42.75338499999993" lon="-1.7180890000000073">
        <ele>572.420</ele>
        <time>2022-08-25T08:19:23Z</time>
      </trkpt>
      <trkpt lat="42.75337599999993" lon="-1.7180960000000074">
        <ele>572.453</ele>
        <time>2022-08-25T08:19:24Z</time>
      </trkpt>
      <trkpt lat="42.75336499999993" lon="-1.7181000000000073">
        <ele>572.429</ele>
        <time>2022-08-25T08:19:25Z</time>
      </trkpt>
      <trkpt lat="42.75335299999993" lon="-1.7181010000000072">
        <ele>572.620</ele>
        <time>2022-08-25T08:19:26Z</time>
      </trkpt>
      <trkpt lat="42.75333999999993" lon="-1.7181030000000073">
        <ele>572.682</ele>
        <time>2022-08-25T08:19:27Z</time>
      </trkpt>
      <trkpt lat="42.75332899999993" lon="-1.7181080000000073">
        <ele>572.843</ele>
        <time>2022-08-25T08:19:28Z</time>
      </trkpt>
      <trkpt lat="42.75331899999993" lon="-1.7181140000000072">
        <ele>572.817</ele>
        <time>2022-08-25T08:19:29Z</time>
      </trkpt>
      <trkpt lat="42.753307999999926" lon="-1.7181170000000072">
        <ele>573.009</ele>
        <time>2022-08-25T08:19:30Z</time>
      </trkpt>
      <trkpt lat="42.753299999999925" lon="-1.7181220000000073">
        <ele>573.239</ele>
        <time>2022-08-25T08:19:31Z</time>
      </trkpt>
      <trkpt lat="42.753290999999926" lon="-1.7181260000000071">
        <ele>573.449</ele>
        <time>2022-08-25T08:19:32Z</time>
      </trkpt>
      <trkpt lat="42.753279999999926" lon="-1.7181310000000072">
        <ele>573.459</ele>
        <time>2022-08-25T08:19:33Z</time>
      </trkpt>
      <trkpt lat="42.75327299999993" lon="-1.718132000000007">
        <ele>573.835</ele>
        <time>2022-08-25T08:19:34Z</time>
      </trkpt>
      <trkpt lat="42.753262999999926" lon="-1.7181340000000072">
        <ele>573.857</ele>
        <time>2022-08-25T08:19:35Z</time>
      </trkpt>
      <trkpt lat="42.75324999999992" lon="-1.7181390000000072">
        <ele>574.054</ele>
        <time>2022-08-25T08:19:36Z</time>
      </trkpt>
      <trkpt lat="42.75323899999992" lon="-1.7181460000000073">
        <ele>574.257</ele>
        <time>2022-08-25T08:19:37Z</time>
      </trkpt>
      <trkpt lat="42.75323099999992" lon="-1.7181540000000073">
        <ele>574.243</ele>
        <time>2022-08-25T08:19:38Z</time>
      </trkpt>
      <trkpt lat="42.75322499999992" lon="-1.7181640000000074">
        <ele>574.644</ele>
        <time>2022-08-25T08:19:39Z</time>
      </trkpt>
      <trkpt lat="42.75321899999992" lon="-1.7181680000000072">
        <ele>574.628</ele>
        <time>2022-08-25T08:19:40Z</time>
      </trkpt>
      <trkpt lat="42.75321099999992" lon="-1.7181690000000072">
        <ele>575.089</ele>
        <time>2022-08-25T08:19:41Z</time>
      </trkpt>
      <trkpt lat="42.753198999999924" lon="-1.7181690000000072">
        <ele>575.217</ele>
        <time>2022-08-25T08:19:42Z</time>
      </trkpt>
      <trkpt lat="42.75318899999992" lon="-1.718170000000007">
        <ele>575.609</ele>
        <time>2022-08-25T08:19:43Z</time>
      </trkpt>
      <trkpt lat="42.75318099999992" lon="-1.718170000000007">
        <ele>575.613</ele>
        <time>2022-08-25T08:19:44Z</time>
      </trkpt>
      <trkpt lat="42.75317499999992" lon="-1.718173000000007">
        <ele>575.863</ele>
        <time>2022-08-25T08:19:45Z</time>
      </trkpt>
      <trkpt lat="42.753167999999924" lon="-1.718177000000007">
        <ele>576.053</ele>
        <time>2022-08-25T08:19:46Z</time>
      </trkpt>
      <trkpt lat="42.75315699999992" lon="-1.718180000000007">
        <ele>576.079</ele>
        <time>2022-08-25T08:19:47Z</time>
      </trkpt>
      <trkpt lat="42.75314999999993" lon="-1.7181840000000068">
        <ele>576.221</ele>
        <time>2022-08-25T08:19:48Z</time>
      </trkpt>
      <trkpt lat="42.753139999999924" lon="-1.7181890000000068">
        <ele>576.248</ele>
        <time>2022-08-25T08:19:49Z</time>
      </trkpt>
      <trkpt lat="42.75313199999992" lon="-1.7181920000000068">
        <ele>576.441</ele>
        <time>2022-08-25T08:19:50Z</time>
      </trkpt>
      <trkpt lat="42.753122999999924" lon="-1.7181970000000069">
        <ele>576.637</ele>
        <time>2022-08-25T08:19:51Z</time>
      </trkpt>
      <trkpt lat="42.75311599999993" lon="-1.718202000000007">
        <ele>576.658</ele>
        <time>2022-08-25T08:19:52Z</time>
      </trkpt>
      <trkpt lat="42.75310399999993" lon="-1.718210000000007">
        <ele>576.887</ele>
        <time>2022-08-25T08:19:53Z</time>
      </trkpt>
      <trkpt lat="42.75309599999993" lon="-1.718212000000007">
        <ele>576.842</ele>
        <time>2022-08-25T08:19:54Z</time>
      </trkpt>
      <trkpt lat="42.75309199999993" lon="-1.718211000000007">
        <ele>577.026</ele>
        <time>2022-08-25T08:19:55Z</time>
      </trkpt>
      <trkpt lat="42.75308399999993" lon="-1.718211000000007">
        <ele>577.009</ele>
        <time>2022-08-25T08:19:56Z</time>
      </trkpt>
      <trkpt lat="42.75307399999993" lon="-1.718212000000007">
        <ele>577.059</ele>
        <time>2022-08-25T08:19:57Z</time>
      </trkpt>
      <trkpt lat="42.75306499999993" lon="-1.718214000000007">
        <ele>577.289</ele>
        <time>2022-08-25T08:19:58Z</time>
      </trkpt>
      <trkpt lat="42.75305599999993" lon="-1.718214000000007">
        <ele>577.229</ele>
        <time>2022-08-25T08:19:59Z</time>
      </trkpt>
      <trkpt lat="42.75304799999993" lon="-1.718216000000007">
        <ele>577.275</ele>
        <time>2022-08-25T08:20:00Z</time>
      </trkpt>
      <trkpt lat="42.75304099999993" lon="-1.718217000000007">
        <ele>577.427</ele>
        <time>2022-08-25T08:20:01Z</time>
      </trkpt>
      <trkpt lat="42.75303299999993" lon="-1.718219000000007">
        <ele>577.634</ele>
        <time>2022-08-25T08:20:02Z</time>
      </trkpt>
      <trkpt lat="42.753025999999934" lon="-1.718222000000007">
        <ele>577.847</ele>
        <time>2022-08-25T08:20:03Z</time>
      </trkpt>
      <trkpt lat="42.753016999999936" lon="-1.718225000000007">
        <ele>578.093</ele>
        <time>2022-08-25T08:20:04Z</time>
      </trkpt>
      <trkpt lat="42.753008999999935" lon="-1.718227000000007">
        <ele>578.014</ele>
        <time>2022-08-25T08:20:05Z</time>
      </trkpt>
      <trkpt lat="42.752997999999934" lon="-1.7182290000000071">
        <ele>578.285</ele>
        <time>2022-08-25T08:20:06Z</time>
      </trkpt>
      <trkpt lat="42.75298799999993" lon="-1.718233000000007">
        <ele>578.289</ele>
        <time>2022-08-25T08:20:07Z</time>
      </trkpt>
      <trkpt lat="42.75297799999993" lon="-1.718235000000007">
        <ele>578.417</ele>
        <time>2022-08-25T08:20:08Z</time>
      </trkpt>
      <trkpt lat="42.752967999999925" lon="-1.718239000000007">
        <ele>578.609</ele>
        <time>2022-08-25T08:20:09Z</time>
      </trkpt>
      <trkpt lat="42.75296099999993" lon="-1.718244000000007">
        <ele>578.639</ele>
        <time>2022-08-25T08:20:10Z</time>
      </trkpt>
      <trkpt lat="42.75295199999993" lon="-1.718251000000007">
        <ele>578.859</ele>
        <time>2022-08-25T08:20:11Z</time>
      </trkpt>
      <trkpt lat="42.752941999999926" lon="-1.718255000000007">
        <ele>579.049</ele>
        <time>2022-08-25T08:20:12Z</time>
      </trkpt>
      <trkpt lat="42.752930999999926" lon="-1.7182560000000069">
        <ele>579.225</ele>
        <time>2022-08-25T08:20:13Z</time>
      </trkpt>
      <trkpt lat="42.752922999999925" lon="-1.7182600000000068">
        <ele>579.247</ele>
        <time>2022-08-25T08:20:14Z</time>
      </trkpt>
      <trkpt lat="42.752910999999926" lon="-1.7182630000000068">
        <ele>579.274</ele>
        <time>2022-08-25T08:20:15Z</time>
      </trkpt>
      <trkpt lat="42.75289899999993" lon="-1.7182660000000067">
        <ele>579.467</ele>
        <time>2022-08-25T08:20:16Z</time>
      </trkpt>
      <trkpt lat="42.75289099999993" lon="-1.7182670000000067">
        <ele>579.683</ele>
        <time>2022-08-25T08:20:17Z</time>
      </trkpt>
      <trkpt lat="42.752877999999924" lon="-1.7182680000000066">
        <ele>579.844</ele>
        <time>2022-08-25T08:20:18Z</time>
      </trkpt>
      <trkpt lat="42.75286799999992" lon="-1.7182680000000066">
        <ele>579.842</ele>
        <time>2022-08-25T08:20:19Z</time>
      </trkpt>
      <trkpt lat="42.75285799999992" lon="-1.7182710000000065">
        <ele>579.822</ele>
        <time>2022-08-25T08:20:20Z</time>
      </trkpt>
      <trkpt lat="42.752847999999915" lon="-1.7182760000000066">
        <ele>580.014</ele>
        <time>2022-08-25T08:20:21Z</time>
      </trkpt>
      <trkpt lat="42.752838999999916" lon="-1.7182820000000065">
        <ele>580.209</ele>
        <time>2022-08-25T08:20:22Z</time>
      </trkpt>
      <trkpt lat="42.75282899999991" lon="-1.7182870000000066">
        <ele>580.255</ele>
        <time>2022-08-25T08:20:23Z</time>
      </trkpt>
      <trkpt lat="42.75282199999992" lon="-1.7182890000000066">
        <ele>580.415</ele>
        <time>2022-08-25T08:20:24Z</time>
      </trkpt>
      <trkpt lat="42.75281199999991" lon="-1.7182910000000067">
        <ele>580.495</ele>
        <time>2022-08-25T08:20:25Z</time>
      </trkpt>
      <trkpt lat="42.75280099999991" lon="-1.7182930000000067">
        <ele>580.611</ele>
        <time>2022-08-25T08:20:26Z</time>
      </trkpt>
      <trkpt lat="42.752794999999914" lon="-1.7182970000000066">
        <ele>580.673</ele>
        <time>2022-08-25T08:20:27Z</time>
      </trkpt>
      <trkpt lat="42.752785999999915" lon="-1.7183020000000067">
        <ele>580.880</ele>
        <time>2022-08-25T08:20:28Z</time>
      </trkpt>
      <trkpt lat="42.75277899999992" lon="-1.7183050000000066">
        <ele>581.043</ele>
        <time>2022-08-25T08:20:29Z</time>
      </trkpt>
      <trkpt lat="42.75277099999992" lon="-1.7183090000000065">
        <ele>581.279</ele>
        <time>2022-08-25T08:20:30Z</time>
      </trkpt>
      <trkpt lat="42.75276199999992" lon="-1.7183140000000066">
        <ele>581.450</ele>
        <time>2022-08-25T08:20:31Z</time>
      </trkpt>
      <trkpt lat="42.752751999999916" lon="-1.7183220000000066">
        <ele>581.255</ele>
        <time>2022-08-25T08:20:32Z</time>
      </trkpt>
      <trkpt lat="42.75274499999992" lon="-1.7183270000000066">
        <ele>581.207</ele>
        <time>2022-08-25T08:20:33Z</time>
      </trkpt>
      <trkpt lat="42.75273599999992" lon="-1.7183290000000067">
        <ele>581.617</ele>
        <time>2022-08-25T08:20:34Z</time>
      </trkpt>
      <trkpt lat="42.75272799999992" lon="-1.7183280000000067">
        <ele>581.409</ele>
        <time>2022-08-25T08:20:35Z</time>
      </trkpt>
      <trkpt lat="42.75271599999992" lon="-1.7183290000000067">
        <ele>581.446</ele>
        <time>2022-08-25T08:20:36Z</time>
      </trkpt>
      <trkpt lat="42.75270699999992" lon="-1.7183340000000067">
        <ele>581.856</ele>
        <time>2022-08-25T08:20:37Z</time>
      </trkpt>
      <trkpt lat="42.75269599999992" lon="-1.7183400000000066">
        <ele>581.846</ele>
        <time>2022-08-25T08:20:38Z</time>
      </trkpt>
      <trkpt lat="42.75268599999992" lon="-1.7183440000000065">
        <ele>582.042</ele>
        <time>2022-08-25T08:20:39Z</time>
      </trkpt>
      <trkpt lat="42.75267699999992" lon="-1.7183470000000065">
        <ele>582.214</ele>
        <time>2022-08-25T08:20:40Z</time>
      </trkpt>
      <trkpt lat="42.75266699999992" lon="-1.7183520000000065">
        <ele>582.251</ele>
        <time>2022-08-25T08:20:41Z</time>
      </trkpt>
      <trkpt lat="42.752656999999914" lon="-1.7183550000000065">
        <ele>582.254</ele>
        <time>2022-08-25T08:20:42Z</time>
      </trkpt>
      <trkpt lat="42.75264999999992" lon="-1.7183580000000065">
        <ele>582.490</ele>
        <time>2022-08-25T08:20:43Z</time>
      </trkpt>
      <trkpt lat="42.75264399999992" lon="-1.7183580000000065">
        <ele>582.431</ele>
        <time>2022-08-25T08:20:44Z</time>
      </trkpt>
      <trkpt lat="42.75263699999992" lon="-1.7183610000000065">
        <ele>582.822</ele>
        <time>2022-08-25T08:20:45Z</time>
      </trkpt>
      <trkpt lat="42.75262899999992" lon="-1.7183650000000064">
        <ele>582.862</ele>
        <time>2022-08-25T08:20:46Z</time>
      </trkpt>
      <trkpt lat="42.75261799999992" lon="-1.7183720000000064">
        <ele>583.008</ele>
        <time>2022-08-25T08:20:47Z</time>
      </trkpt>
      <trkpt lat="42.75260999999992" lon="-1.7183790000000065">
        <ele>583.009</ele>
        <time>2022-08-25T08:20:48Z</time>
      </trkpt>
      <trkpt lat="42.75260199999992" lon="-1.7183830000000064">
        <ele>583.043</ele>
        <time>2022-08-25T08:20:49Z</time>
      </trkpt>
      <trkpt lat="42.75259499999992" lon="-1.7183880000000065">
        <ele>583.273</ele>
        <time>2022-08-25T08:20:50Z</time>
      </trkpt>
      <trkpt lat="42.75258599999992" lon="-1.7183920000000064">
        <ele>583.493</ele>
        <time>2022-08-25T08:20:51Z</time>
      </trkpt>
      <trkpt lat="42.752578999999926" lon="-1.7183970000000064">
        <ele>583.629</ele>
        <time>2022-08-25T08:20:52Z</time>
      </trkpt>
      <trkpt lat="42.752573999999925" lon="-1.7183990000000064">
        <ele>583.661</ele>
        <time>2022-08-25T08:20:53Z</time>
      </trkpt>
      <trkpt lat="42.752564999999926" lon="-1.7184000000000064">
        <ele>583.818</ele>
        <time>2022-08-25T08:20:54Z</time>
      </trkpt>
      <trkpt lat="42.752553999999925" lon="-1.7184040000000063">
        <ele>583.851</ele>
        <time>2022-08-25T08:20:55Z</time>
      </trkpt>
      <trkpt lat="42.75254699999993" lon="-1.7184060000000063">
        <ele>584.057</ele>
        <time>2022-08-25T08:20:56Z</time>
      </trkpt>
      <trkpt lat="42.752533999999926" lon="-1.7184140000000063">
        <ele>584.238</ele>
        <time>2022-08-25T08:20:57Z</time>
      </trkpt>
      <trkpt lat="42.752525999999925" lon="-1.7184180000000062">
        <ele>584.262</ele>
        <time>2022-08-25T08:20:58Z</time>
      </trkpt>
      <trkpt lat="42.75251399999993" lon="-1.7184230000000063">
        <ele>584.483</ele>
        <time>2022-08-25T08:20:59Z</time>
      </trkpt>
      <trkpt lat="42.75250199999993" lon="-1.7184240000000062">
        <ele>584.411</ele>
        <time>2022-08-25T08:21:00Z</time>
      </trkpt>
      <trkpt lat="42.75248699999993" lon="-1.7184290000000062">
        <ele>584.609</ele>
        <time>2022-08-25T08:21:01Z</time>
      </trkpt>
      <trkpt lat="42.75247899999993" lon="-1.7184340000000062">
        <ele>584.877</ele>
        <time>2022-08-25T08:21:02Z</time>
      </trkpt>
      <trkpt lat="42.75246899999993" lon="-1.7184420000000062">
        <ele>585.057</ele>
        <time>2022-08-25T08:21:03Z</time>
      </trkpt>
      <trkpt lat="42.752457999999926" lon="-1.7184490000000063">
        <ele>585.277</ele>
        <time>2022-08-25T08:21:04Z</time>
      </trkpt>
      <trkpt lat="42.75244599999993" lon="-1.7184560000000064">
        <ele>585.413</ele>
        <time>2022-08-25T08:21:05Z</time>
      </trkpt>
      <trkpt lat="42.75243799999993" lon="-1.7184620000000064">
        <ele>585.675</ele>
        <time>2022-08-25T08:21:06Z</time>
      </trkpt>
      <trkpt lat="42.752427999999924" lon="-1.7184700000000064">
        <ele>585.862</ele>
        <time>2022-08-25T08:21:07Z</time>
      </trkpt>
      <trkpt lat="42.75241999999992" lon="-1.7184780000000064">
        <ele>585.885</ele>
        <time>2022-08-25T08:21:08Z</time>
      </trkpt>
      <trkpt lat="42.752412999999926" lon="-1.7184860000000064">
        <ele>586.021</ele>
        <time>2022-08-25T08:21:09Z</time>
      </trkpt>
      <trkpt lat="42.752401999999925" lon="-1.7184960000000065">
        <ele>586.272</ele>
        <time>2022-08-25T08:21:10Z</time>
      </trkpt>
      <trkpt lat="42.75239499999993" lon="-1.7185030000000066">
        <ele>586.278</ele>
        <time>2022-08-25T08:21:11Z</time>
      </trkpt>
      <trkpt lat="42.75238599999993" lon="-1.7185100000000066">
        <ele>586.433</ele>
        <time>2022-08-25T08:21:12Z</time>
      </trkpt>
      <trkpt lat="42.75237699999993" lon="-1.7185170000000067">
        <ele>586.626</ele>
        <time>2022-08-25T08:21:13Z</time>
      </trkpt>
      <trkpt lat="42.75236799999993" lon="-1.7185220000000068">
        <ele>586.809</ele>
        <time>2022-08-25T08:21:14Z</time>
      </trkpt>
      <trkpt lat="42.75235799999993" lon="-1.7185310000000067">
        <ele>587.088</ele>
        <time>2022-08-25T08:21:15Z</time>
      </trkpt>
      <trkpt lat="42.75234999999993" lon="-1.7185390000000067">
        <ele>587.298</ele>
        <time>2022-08-25T08:21:16Z</time>
      </trkpt>
      <trkpt lat="42.75234199999993" lon="-1.7185470000000067">
        <ele>587.248</ele>
        <time>2022-08-25T08:21:17Z</time>
      </trkpt>
      <trkpt lat="42.75233599999993" lon="-1.7185530000000067">
        <ele>587.484</ele>
        <time>2022-08-25T08:21:18Z</time>
      </trkpt>
      <trkpt lat="42.75232999999993" lon="-1.7185600000000067">
        <ele>587.646</ele>
        <time>2022-08-25T08:21:19Z</time>
      </trkpt>
      <trkpt lat="42.75232099999993" lon="-1.7185680000000068">
        <ele>587.483</ele>
        <time>2022-08-25T08:21:20Z</time>
      </trkpt>
      <trkpt lat="42.752313999999934" lon="-1.7185760000000068">
        <ele>587.846</ele>
        <time>2022-08-25T08:21:21Z</time>
      </trkpt>
      <trkpt lat="42.75230599999993" lon="-1.7185830000000069">
        <ele>587.862</ele>
        <time>2022-08-25T08:21:22Z</time>
      </trkpt>
      <trkpt lat="42.75229799999993" lon="-1.7185920000000068">
        <ele>588.023</ele>
        <time>2022-08-25T08:21:23Z</time>
      </trkpt>
      <trkpt lat="42.752288999999934" lon="-1.7186010000000067">
        <ele>588.061</ele>
        <time>2022-08-25T08:21:24Z</time>
      </trkpt>
      <trkpt lat="42.75228099999993" lon="-1.7186140000000067">
        <ele>588.221</ele>
        <time>2022-08-25T08:21:25Z</time>
      </trkpt>
      <trkpt lat="42.75227499999993" lon="-1.7186210000000068">
        <ele>588.013</ele>
        <time>2022-08-25T08:21:26Z</time>
      </trkpt>
      <trkpt lat="42.75226799999994" lon="-1.718631000000007">
        <ele>588.409</ele>
        <time>2022-08-25T08:21:27Z</time>
      </trkpt>
      <trkpt lat="42.75226099999994" lon="-1.7186420000000069">
        <ele>588.467</ele>
        <time>2022-08-25T08:21:28Z</time>
      </trkpt>
      <trkpt lat="42.752253999999944" lon="-1.718650000000007">
        <ele>588.897</ele>
        <time>2022-08-25T08:21:29Z</time>
      </trkpt>
      <trkpt lat="42.75224599999994" lon="-1.7186590000000068">
        <ele>589.057</ele>
        <time>2022-08-25T08:21:30Z</time>
      </trkpt>
      <trkpt lat="42.75223799999994" lon="-1.7186700000000068">
        <ele>589.073</ele>
        <time>2022-08-25T08:21:31Z</time>
      </trkpt>
      <trkpt lat="42.752230999999945" lon="-1.7186810000000068">
        <ele>589.225</ele>
        <time>2022-08-25T08:21:32Z</time>
      </trkpt>
      <trkpt lat="42.75222699999995" lon="-1.7186880000000069">
        <ele>589.242</ele>
        <time>2022-08-25T08:21:33Z</time>
      </trkpt>
      <trkpt lat="42.75221999999995" lon="-1.7187000000000068">
        <ele>589.425</ele>
        <time>2022-08-25T08:21:34Z</time>
      </trkpt>
      <trkpt lat="42.75221199999995" lon="-1.7187120000000067">
        <ele>589.471</ele>
        <time>2022-08-25T08:21:35Z</time>
      </trkpt>
      <trkpt lat="42.75220299999995" lon="-1.7187220000000067">
        <ele>589.682</ele>
        <time>2022-08-25T08:21:36Z</time>
      </trkpt>
      <trkpt lat="42.75219699999995" lon="-1.7187280000000067">
        <ele>589.833</ele>
        <time>2022-08-25T08:21:37Z</time>
      </trkpt>
      <trkpt lat="42.75218899999995" lon="-1.7187380000000068">
        <ele>590.023</ele>
        <time>2022-08-25T08:21:38Z</time>
      </trkpt>
      <trkpt lat="42.75218299999995" lon="-1.7187450000000069">
        <ele>590.215</ele>
        <time>2022-08-25T08:21:39Z</time>
      </trkpt>
      <trkpt lat="42.752175999999956" lon="-1.7187530000000069">
        <ele>590.209</ele>
        <time>2022-08-25T08:21:40Z</time>
      </trkpt>
      <trkpt lat="42.75216899999996" lon="-1.7187640000000068">
        <ele>590.254</ele>
        <time>2022-08-25T08:21:41Z</time>
      </trkpt>
      <trkpt lat="42.75216099999996" lon="-1.718774000000007">
        <ele>590.484</ele>
        <time>2022-08-25T08:21:42Z</time>
      </trkpt>
      <trkpt lat="42.75215299999996" lon="-1.718785000000007">
        <ele>590.424</ele>
        <time>2022-08-25T08:21:43Z</time>
      </trkpt>
      <trkpt lat="42.75214699999996" lon="-1.718795000000007">
        <ele>590.620</ele>
        <time>2022-08-25T08:21:44Z</time>
      </trkpt>
      <trkpt lat="42.75213999999996" lon="-1.718805000000007">
        <ele>590.692</ele>
        <time>2022-08-25T08:21:45Z</time>
      </trkpt>
      <trkpt lat="42.752132999999965" lon="-1.718814000000007">
        <ele>590.859</ele>
        <time>2022-08-25T08:21:46Z</time>
      </trkpt>
      <trkpt lat="42.752124999999964" lon="-1.718824000000007">
        <ele>591.092</ele>
        <time>2022-08-25T08:21:47Z</time>
      </trkpt>
      <trkpt lat="42.75211499999996" lon="-1.718833000000007">
        <ele>591.258</ele>
        <time>2022-08-25T08:21:48Z</time>
      </trkpt>
      <trkpt lat="42.75210899999996" lon="-1.718844000000007">
        <ele>591.249</ele>
        <time>2022-08-25T08:21:49Z</time>
      </trkpt>
      <trkpt lat="42.75210299999996" lon="-1.718852000000007">
        <ele>591.444</ele>
        <time>2022-08-25T08:21:50Z</time>
      </trkpt>
      <trkpt lat="42.752095999999966" lon="-1.7188610000000069">
        <ele>591.405</ele>
        <time>2022-08-25T08:21:51Z</time>
      </trkpt>
      <trkpt lat="42.752087999999965" lon="-1.7188700000000068">
        <ele>591.615</ele>
        <time>2022-08-25T08:21:52Z</time>
      </trkpt>
      <trkpt lat="42.752081999999966" lon="-1.7188780000000068">
        <ele>591.809</ele>
        <time>2022-08-25T08:21:53Z</time>
      </trkpt>
      <trkpt lat="42.752073999999965" lon="-1.7188880000000069">
        <ele>591.825</ele>
        <time>2022-08-25T08:21:54Z</time>
      </trkpt>
      <trkpt lat="42.75206699999997" lon="-1.718898000000007">
        <ele>592.045</ele>
        <time>2022-08-25T08:21:55Z</time>
      </trkpt>
      <trkpt lat="42.75205999999997" lon="-1.7189040000000069">
        <ele>592.285</ele>
        <time>2022-08-25T08:21:56Z</time>
      </trkpt>
      <trkpt lat="42.75205099999997" lon="-1.7189120000000069">
        <ele>592.211</ele>
        <time>2022-08-25T08:21:57Z</time>
      </trkpt>
      <trkpt lat="42.752041999999975" lon="-1.7189210000000068">
        <ele>592.453</ele>
        <time>2022-08-25T08:21:58Z</time>
      </trkpt>
      <trkpt lat="42.75203499999998" lon="-1.7189310000000069">
        <ele>592.480</ele>
        <time>2022-08-25T08:21:59Z</time>
      </trkpt>
      <trkpt lat="42.752029999999976" lon="-1.7189390000000069">
        <ele>592.623</ele>
        <time>2022-08-25T08:22:00Z</time>
      </trkpt>
      <trkpt lat="42.75202299999998" lon="-1.7189500000000069">
        <ele>592.689</ele>
        <time>2022-08-25T08:22:01Z</time>
      </trkpt>
      <trkpt lat="42.75201799999998" lon="-1.718960000000007">
        <ele>593.260</ele>
        <time>2022-08-25T08:22:02Z</time>
      </trkpt>
      <trkpt lat="42.75201099999998" lon="-1.718971000000007">
        <ele>593.648</ele>
        <time>2022-08-25T08:22:03Z</time>
      </trkpt>
      <trkpt lat="42.752003999999985" lon="-1.718981000000007">
        <ele>593.661</ele>
        <time>2022-08-25T08:22:04Z</time>
      </trkpt>
      <trkpt lat="42.751997999999986" lon="-1.7189930000000069">
        <ele>593.817</ele>
        <time>2022-08-25T08:22:05Z</time>
      </trkpt>
      <trkpt lat="42.751992999999985" lon="-1.7190050000000068">
        <ele>594.009</ele>
        <time>2022-08-25T08:22:06Z</time>
      </trkpt>
      <trkpt lat="42.75198799999998" lon="-1.7190170000000067">
        <ele>594.275</ele>
        <time>2022-08-25T08:22:07Z</time>
      </trkpt>
      <trkpt lat="42.751981999999984" lon="-1.7190270000000067">
        <ele>594.425</ele>
        <time>2022-08-25T08:22:08Z</time>
      </trkpt>
      <trkpt lat="42.75197499999999" lon="-1.7190350000000068">
        <ele>594.485</ele>
        <time>2022-08-25T08:22:09Z</time>
      </trkpt>
      <trkpt lat="42.75196799999999" lon="-1.7190430000000068">
        <ele>594.641</ele>
        <time>2022-08-25T08:22:10Z</time>
      </trkpt>
      <trkpt lat="42.75196199999999" lon="-1.7190520000000067">
        <ele>594.663</ele>
        <time>2022-08-25T08:22:11Z</time>
      </trkpt>
      <trkpt lat="42.751954999999995" lon="-1.7190630000000067">
        <ele>594.820</ele>
        <time>2022-08-25T08:22:12Z</time>
      </trkpt>
      <trkpt lat="42.751946" lon="-1.7190740000000067">
        <ele>594.833</ele>
        <time>2022-08-25T08:22:13Z</time>
      </trkpt>
      <trkpt lat="42.751937" lon="-1.7190850000000066">
        <ele>595.059</ele>
        <time>2022-08-25T08:22:14Z</time>
      </trkpt>
      <trkpt lat="42.751929" lon="-1.7190940000000066">
        <ele>595.050</ele>
        <time>2022-08-25T08:22:15Z</time>
      </trkpt>
      <trkpt lat="42.751923" lon="-1.7191010000000067">
        <ele>595.231</ele>
        <time>2022-08-25T08:22:16Z</time>
      </trkpt>
      <trkpt lat="42.75192" lon="-1.7191040000000066">
        <ele>595.461</ele>
        <time>2022-08-25T08:22:17Z</time>
      </trkpt>
      <trkpt lat="42.751917999999996" lon="-1.7191060000000067">
        <ele>595.407</ele>
        <time>2022-08-25T08:25:55Z</time>
      </trkpt>
      <trkpt lat="42.751909999999995" lon="-1.7191170000000067">
        <ele>595.409</ele>
        <time>2022-08-25T08:25:56Z</time>
      </trkpt>
      <trkpt lat="42.751822" lon="-1.7192060000000067">
        <ele>595.494</ele>
        <time>2022-08-25T08:26:02Z</time>
      </trkpt>
      <trkpt lat="42.7517" lon="-1.7193250000000067">
        <ele>595.294</ele>
        <time>2022-08-25T08:26:08Z</time>
      </trkpt>
      <trkpt lat="42.751549" lon="-1.7194800000000066">
        <ele>595.054</ele>
        <time>2022-08-25T08:26:13Z</time>
      </trkpt>
      <trkpt lat="42.751304999999995" lon="-1.7196680000000066">
        <ele>594.430</ele>
        <time>2022-08-25T08:26:18Z</time>
      </trkpt>
      <trkpt lat="42.751054999999994" lon="-1.7197610000000065">
        <ele>593.432</ele>
        <time>2022-08-25T08:26:22Z</time>
      </trkpt>
      <trkpt lat="42.75098799999999" lon="-1.7197770000000066">
        <ele>592.899</ele>
        <time>2022-08-25T08:26:23Z</time>
      </trkpt>
      <trkpt lat="42.75092299999999" lon="-1.7197880000000065">
        <ele>592.692</ele>
        <time>2022-08-25T08:26:24Z</time>
      </trkpt>
      <trkpt lat="42.750856999999996" lon="-1.7197970000000065">
        <ele>592.228</ele>
        <time>2022-08-25T08:26:25Z</time>
      </trkpt>
      <trkpt lat="42.750797" lon="-1.7198040000000065">
        <ele>592.019</ele>
        <time>2022-08-25T08:26:26Z</time>
      </trkpt>
      <trkpt lat="42.750744" lon="-1.7198100000000065">
        <ele>591.671</ele>
        <time>2022-08-25T08:26:27Z</time>
      </trkpt>
      <trkpt lat="42.750690999999996" lon="-1.7198210000000065">
        <ele>591.241</ele>
        <time>2022-08-25T08:26:28Z</time>
      </trkpt>
      <trkpt lat="42.750639" lon="-1.7198370000000065">
        <ele>591.015</ele>
        <time>2022-08-25T08:26:29Z</time>
      </trkpt>
      <trkpt lat="42.750588" lon="-1.7198540000000064">
        <ele>590.609</ele>
        <time>2022-08-25T08:26:30Z</time>
      </trkpt>
      <trkpt lat="42.75054" lon="-1.7198650000000064">
        <ele>590.478</ele>
        <time>2022-08-25T08:26:31Z</time>
      </trkpt>
      <trkpt lat="42.750494" lon="-1.7198680000000064">
        <ele>590.048</ele>
        <time>2022-08-25T08:26:32Z</time>
      </trkpt>
      <trkpt lat="42.75045" lon="-1.7198630000000064">
        <ele>590.038</ele>
        <time>2022-08-25T08:26:33Z</time>
      </trkpt>
      <trkpt lat="42.7504" lon="-1.7198440000000064">
        <ele>589.874</ele>
        <time>2022-08-25T08:26:34Z</time>
      </trkpt>
      <trkpt lat="42.750371" lon="-1.7198280000000064">
        <ele>589.426</ele>
        <time>2022-08-25T08:26:35Z</time>
      </trkpt>
      <trkpt lat="42.750337" lon="-1.7198070000000063">
        <ele>589.253</ele>
        <time>2022-08-25T08:26:36Z</time>
      </trkpt>
      <trkpt lat="42.750306" lon="-1.7197840000000062">
        <ele>589.026</ele>
        <time>2022-08-25T08:26:37Z</time>
      </trkpt>
      <trkpt lat="42.750279" lon="-1.7197640000000063">
        <ele>589.052</ele>
        <time>2022-08-25T08:26:38Z</time>
      </trkpt>
      <trkpt lat="42.750251" lon="-1.7197550000000064">
        <ele>588.883</ele>
        <time>2022-08-25T08:26:39Z</time>
      </trkpt>
      <trkpt lat="42.750223999999996" lon="-1.7197510000000065">
        <ele>588.817</ele>
        <time>2022-08-25T08:26:40Z</time>
      </trkpt>
      <trkpt lat="42.750195999999995" lon="-1.7197430000000065">
        <ele>588.687</ele>
        <time>2022-08-25T08:26:41Z</time>
      </trkpt>
      <trkpt lat="42.75017" lon="-1.7197410000000064">
        <ele>588.615</ele>
        <time>2022-08-25T08:26:42Z</time>
      </trkpt>
      <trkpt lat="42.750142999999994" lon="-1.7197430000000065">
        <ele>588.609</ele>
        <time>2022-08-25T08:26:43Z</time>
      </trkpt>
      <trkpt lat="42.75011799999999" lon="-1.7197460000000064">
        <ele>588.852</ele>
        <time>2022-08-25T08:26:44Z</time>
      </trkpt>
      <trkpt lat="42.75009399999999" lon="-1.7197520000000064">
        <ele>588.882</ele>
        <time>2022-08-25T08:26:45Z</time>
      </trkpt>
      <trkpt lat="42.75006899999999" lon="-1.7197590000000065">
        <ele>588.832</ele>
        <time>2022-08-25T08:26:46Z</time>
      </trkpt>
      <trkpt lat="42.74996499999999" lon="-1.7198050000000065">
        <ele>589.278</ele>
        <time>2022-08-25T08:26:50Z</time>
      </trkpt>
      <trkpt lat="42.74989899999999" lon="-1.7198650000000064">
        <ele>589.240</ele>
        <time>2022-08-25T08:26:53Z</time>
      </trkpt>
      <trkpt lat="42.74985699999999" lon="-1.7199100000000065">
        <ele>589.267</ele>
        <time>2022-08-25T08:26:55Z</time>
      </trkpt>
      <trkpt lat="42.74983999999999" lon="-1.7199350000000064">
        <ele>589.210</ele>
        <time>2022-08-25T08:26:56Z</time>
      </trkpt>
      <trkpt lat="42.74982599999999" lon="-1.7199590000000065">
        <ele>589.496</ele>
        <time>2022-08-25T08:26:57Z</time>
      </trkpt>
      <trkpt lat="42.74981299999999" lon="-1.7199820000000066">
        <ele>589.627</ele>
        <time>2022-08-25T08:26:58Z</time>
      </trkpt>
      <trkpt lat="42.74979799999999" lon="-1.7200060000000066">
        <ele>589.656</ele>
        <time>2022-08-25T08:26:59Z</time>
      </trkpt>
      <trkpt lat="42.749782999999994" lon="-1.7200310000000065">
        <ele>589.859</ele>
        <time>2022-08-25T08:27:00Z</time>
      </trkpt>
      <trkpt lat="42.74976899999999" lon="-1.7200550000000066">
        <ele>589.814</ele>
        <time>2022-08-25T08:27:01Z</time>
      </trkpt>
      <trkpt lat="42.74975599999999" lon="-1.7200780000000067">
        <ele>590.009</ele>
        <time>2022-08-25T08:27:02Z</time>
      </trkpt>
      <trkpt lat="42.74974399999999" lon="-1.7201010000000068">
        <ele>590.076</ele>
        <time>2022-08-25T08:27:03Z</time>
      </trkpt>
      <trkpt lat="42.749731999999995" lon="-1.7201220000000068">
        <ele>590.236</ele>
        <time>2022-08-25T08:27:04Z</time>
      </trkpt>
      <trkpt lat="42.74971899999999" lon="-1.7201410000000068">
        <ele>590.226</ele>
        <time>2022-08-25T08:27:05Z</time>
      </trkpt>
      <trkpt lat="42.749706999999994" lon="-1.7201610000000067">
        <ele>590.432</ele>
        <time>2022-08-25T08:27:06Z</time>
      </trkpt>
      <trkpt lat="42.74969599999999" lon="-1.7201820000000068">
        <ele>590.414</ele>
        <time>2022-08-25T08:27:07Z</time>
      </trkpt>
      <trkpt lat="42.749686999999994" lon="-1.7202030000000068">
        <ele>590.681</ele>
        <time>2022-08-25T08:27:08Z</time>
      </trkpt>
      <trkpt lat="42.74967699999999" lon="-1.7202230000000067">
        <ele>590.634</ele>
        <time>2022-08-25T08:27:09Z</time>
      </trkpt>
      <trkpt lat="42.74966499999999" lon="-1.7202410000000068">
        <ele>590.870</ele>
        <time>2022-08-25T08:27:10Z</time>
      </trkpt>
      <trkpt lat="42.74965399999999" lon="-1.7202590000000069">
        <ele>590.871</ele>
        <time>2022-08-25T08:27:11Z</time>
      </trkpt>
      <trkpt lat="42.749644999999994" lon="-1.7202780000000069">
        <ele>590.838</ele>
        <time>2022-08-25T08:27:12Z</time>
      </trkpt>
      <trkpt lat="42.74963399999999" lon="-1.720299000000007">
        <ele>590.870</ele>
        <time>2022-08-25T08:27:13Z</time>
      </trkpt>
      <trkpt lat="42.749621999999995" lon="-1.720318000000007">
        <ele>590.817</ele>
        <time>2022-08-25T08:27:14Z</time>
      </trkpt>
      <trkpt lat="42.74957499999999" lon="-1.720409000000007">
        <ele>591.209</ele>
        <time>2022-08-25T08:27:19Z</time>
      </trkpt>
      <trkpt lat="42.749565999999994" lon="-1.720427000000007">
        <ele>591.414</ele>
        <time>2022-08-25T08:27:20Z</time>
      </trkpt>
      <trkpt lat="42.74955799999999" lon="-1.720444000000007">
        <ele>591.644</ele>
        <time>2022-08-25T08:27:21Z</time>
      </trkpt>
      <trkpt lat="42.749548999999995" lon="-1.7204640000000069">
        <ele>592.074</ele>
        <time>2022-08-25T08:27:22Z</time>
      </trkpt>
      <trkpt lat="42.749539999999996" lon="-1.7204810000000068">
        <ele>592.050</ele>
        <time>2022-08-25T08:27:23Z</time>
      </trkpt>
      <trkpt lat="42.749534999999995" lon="-1.7204950000000068">
        <ele>592.262</ele>
        <time>2022-08-25T08:27:24Z</time>
      </trkpt>
      <trkpt lat="42.749525999999996" lon="-1.7205090000000067">
        <ele>592.299</ele>
        <time>2022-08-25T08:27:25Z</time>
      </trkpt>
      <trkpt lat="42.74951599999999" lon="-1.7205240000000068">
        <ele>592.412</ele>
        <time>2022-08-25T08:27:26Z</time>
      </trkpt>
      <trkpt lat="42.749475999999994" lon="-1.7206050000000068">
        <ele>592.898</ele>
        <time>2022-08-25T08:27:31Z</time>
      </trkpt>
      <trkpt lat="42.749458" lon="-1.7206410000000067">
        <ele>593.049</ele>
        <time>2022-08-25T08:27:33Z</time>
      </trkpt>
      <trkpt lat="42.749449999999996" lon="-1.7206620000000068">
        <ele>593.057</ele>
        <time>2022-08-25T08:27:34Z</time>
      </trkpt>
      <trkpt lat="42.749444" lon="-1.7206790000000067">
        <ele>593.200</ele>
        <time>2022-08-25T08:27:35Z</time>
      </trkpt>
      <trkpt lat="42.749435999999996" lon="-1.7206950000000067">
        <ele>593.420</ele>
        <time>2022-08-25T08:27:36Z</time>
      </trkpt>
      <trkpt lat="42.749429" lon="-1.7207100000000068">
        <ele>593.409</ele>
        <time>2022-08-25T08:27:37Z</time>
      </trkpt>
      <trkpt lat="42.749422" lon="-1.7207210000000068">
        <ele>593.836</ele>
        <time>2022-08-25T08:27:38Z</time>
      </trkpt>
      <trkpt lat="42.749414" lon="-1.720731000000007">
        <ele>593.836</ele>
        <time>2022-08-25T08:27:39Z</time>
      </trkpt>
      <trkpt lat="42.749403" lon="-1.720746000000007">
        <ele>594.056</ele>
        <time>2022-08-25T08:27:40Z</time>
      </trkpt>
      <trkpt lat="42.749392" lon="-1.720761000000007">
        <ele>594.262</ele>
        <time>2022-08-25T08:27:41Z</time>
      </trkpt>
      <trkpt lat="42.749382" lon="-1.720770000000007">
        <ele>594.444</ele>
        <time>2022-08-25T08:27:42Z</time>
      </trkpt>
      <trkpt lat="42.749371" lon="-1.720782000000007">
        <ele>594.641</ele>
        <time>2022-08-25T08:27:43Z</time>
      </trkpt>
      <trkpt lat="42.74936099999999" lon="-1.720797000000007">
        <ele>594.834</ele>
        <time>2022-08-25T08:27:44Z</time>
      </trkpt>
      <trkpt lat="42.749351999999995" lon="-1.720815000000007">
        <ele>595.060</ele>
        <time>2022-08-25T08:27:45Z</time>
      </trkpt>
      <trkpt lat="42.749342999999996" lon="-1.7208300000000072">
        <ele>595.071</ele>
        <time>2022-08-25T08:27:46Z</time>
      </trkpt>
      <trkpt lat="42.749336" lon="-1.7208410000000072">
        <ele>595.463</ele>
        <time>2022-08-25T08:27:47Z</time>
      </trkpt>
      <trkpt lat="42.749325" lon="-1.7208520000000072">
        <ele>595.444</ele>
        <time>2022-08-25T08:27:48Z</time>
      </trkpt>
      <trkpt lat="42.749317" lon="-1.720864000000007">
        <ele>595.618</ele>
        <time>2022-08-25T08:27:49Z</time>
      </trkpt>
      <trkpt lat="42.749311" lon="-1.720873000000007">
        <ele>595.809</ele>
        <time>2022-08-25T08:27:50Z</time>
      </trkpt>
      <trkpt lat="42.749304" lon="-1.720884000000007">
        <ele>595.877</ele>
        <time>2022-08-25T08:27:51Z</time>
      </trkpt>
      <trkpt lat="42.749299" lon="-1.720894000000007">
        <ele>596.077</ele>
        <time>2022-08-25T08:27:52Z</time>
      </trkpt>
      <trkpt lat="42.749292000000004" lon="-1.720906000000007">
        <ele>596.077</ele>
        <time>2022-08-25T08:27:53Z</time>
      </trkpt>
      <trkpt lat="42.749281" lon="-1.720924000000007">
        <ele>596.213</ele>
        <time>2022-08-25T08:27:54Z</time>
      </trkpt>
      <trkpt lat="42.749275000000004" lon="-1.720935000000007">
        <ele>596.265</ele>
        <time>2022-08-25T08:27:55Z</time>
      </trkpt>
      <trkpt lat="42.749265" lon="-1.720950000000007">
        <ele>596.472</ele>
        <time>2022-08-25T08:27:56Z</time>
      </trkpt>
      <trkpt lat="42.749251" lon="-1.720970000000007">
        <ele>596.495</ele>
        <time>2022-08-25T08:27:57Z</time>
      </trkpt>
      <trkpt lat="42.74924" lon="-1.720991000000007">
        <ele>596.451</ele>
        <time>2022-08-25T08:27:58Z</time>
      </trkpt>
      <trkpt lat="42.749229" lon="-1.721010000000007">
        <ele>596.692</ele>
        <time>2022-08-25T08:27:59Z</time>
      </trkpt>
      <trkpt lat="42.749217" lon="-1.7210330000000071">
        <ele>596.637</ele>
        <time>2022-08-25T08:28:00Z</time>
      </trkpt>
      <trkpt lat="42.749204" lon="-1.721055000000007">
        <ele>596.849</ele>
        <time>2022-08-25T08:28:01Z</time>
      </trkpt>
      <trkpt lat="42.749188" lon="-1.7210790000000071">
        <ele>596.813</ele>
        <time>2022-08-25T08:28:02Z</time>
      </trkpt>
      <trkpt lat="42.749174999999994" lon="-1.7211020000000072">
        <ele>597.009</ele>
        <time>2022-08-25T08:28:03Z</time>
      </trkpt>
      <trkpt lat="42.74916499999999" lon="-1.7211260000000073">
        <ele>597.444</ele>
        <time>2022-08-25T08:28:04Z</time>
      </trkpt>
      <trkpt lat="42.74915299999999" lon="-1.7211490000000074">
        <ele>597.654</ele>
        <time>2022-08-25T08:28:05Z</time>
      </trkpt>
      <trkpt lat="42.749140999999995" lon="-1.7211720000000075">
        <ele>598.024</ele>
        <time>2022-08-25T08:28:06Z</time>
      </trkpt>
      <trkpt lat="42.749129999999994" lon="-1.7211950000000076">
        <ele>598.080</ele>
        <time>2022-08-25T08:28:07Z</time>
      </trkpt>
      <trkpt lat="42.749115999999994" lon="-1.7212160000000076">
        <ele>598.262</ele>
        <time>2022-08-25T08:28:08Z</time>
      </trkpt>
      <trkpt lat="42.74910199999999" lon="-1.7212400000000077">
        <ele>598.469</ele>
        <time>2022-08-25T08:28:09Z</time>
      </trkpt>
      <trkpt lat="42.749092999999995" lon="-1.7212610000000077">
        <ele>598.662</ele>
        <time>2022-08-25T08:28:10Z</time>
      </trkpt>
      <trkpt lat="42.749083999999996" lon="-1.7212790000000078">
        <ele>598.828</ele>
        <time>2022-08-25T08:28:11Z</time>
      </trkpt>
      <trkpt lat="42.749075" lon="-1.7212970000000078">
        <ele>599.079</ele>
        <time>2022-08-25T08:28:12Z</time>
      </trkpt>
      <trkpt lat="42.749064999999995" lon="-1.7213140000000078">
        <ele>599.473</ele>
        <time>2022-08-25T08:28:13Z</time>
      </trkpt>
      <trkpt lat="42.749055999999996" lon="-1.7213330000000078">
        <ele>599.685</ele>
        <time>2022-08-25T08:28:14Z</time>
      </trkpt>
      <trkpt lat="42.749047" lon="-1.7213530000000077">
        <ele>599.813</ele>
        <time>2022-08-25T08:28:15Z</time>
      </trkpt>
      <trkpt lat="42.749036" lon="-1.7213710000000078">
        <ele>600.009</ele>
        <time>2022-08-25T08:28:16Z</time>
      </trkpt>
      <trkpt lat="42.749024999999996" lon="-1.7213880000000077">
        <ele>600.258</ele>
        <time>2022-08-25T08:28:17Z</time>
      </trkpt>
      <trkpt lat="42.749018" lon="-1.7214030000000078">
        <ele>600.458</ele>
        <time>2022-08-25T08:28:18Z</time>
      </trkpt>
      <trkpt lat="42.749009" lon="-1.7214190000000078">
        <ele>600.658</ele>
        <time>2022-08-25T08:28:19Z</time>
      </trkpt>
      <trkpt lat="42.748997" lon="-1.7214350000000078">
        <ele>600.844</ele>
        <time>2022-08-25T08:28:20Z</time>
      </trkpt>
      <trkpt lat="42.748987" lon="-1.7214450000000079">
        <ele>601.056</ele>
        <time>2022-08-25T08:28:21Z</time>
      </trkpt>
      <trkpt lat="42.748979" lon="-1.721455000000008">
        <ele>601.453</ele>
        <time>2022-08-25T08:28:22Z</time>
      </trkpt>
      <trkpt lat="42.748973" lon="-1.7214670000000079">
        <ele>601.456</ele>
        <time>2022-08-25T08:28:23Z</time>
      </trkpt>
      <trkpt lat="42.748969" lon="-1.721477000000008">
        <ele>601.692</ele>
        <time>2022-08-25T08:28:24Z</time>
      </trkpt>
      <trkpt lat="42.748962000000006" lon="-1.721490000000008">
        <ele>601.633</ele>
        <time>2022-08-25T08:28:25Z</time>
      </trkpt>
      <trkpt lat="42.74895500000001" lon="-1.721500000000008">
        <ele>601.878</ele>
        <time>2022-08-25T08:28:26Z</time>
      </trkpt>
      <trkpt lat="42.74894900000001" lon="-1.721513000000008">
        <ele>601.833</ele>
        <time>2022-08-25T08:28:27Z</time>
      </trkpt>
      <trkpt lat="42.748942000000014" lon="-1.721526000000008">
        <ele>602.026</ele>
        <time>2022-08-25T08:28:28Z</time>
      </trkpt>
      <trkpt lat="42.74893400000001" lon="-1.721540000000008">
        <ele>602.009</ele>
        <time>2022-08-25T08:28:29Z</time>
      </trkpt>
      <trkpt lat="42.748927000000016" lon="-1.721553000000008">
        <ele>602.258</ele>
        <time>2022-08-25T08:28:30Z</time>
      </trkpt>
      <trkpt lat="42.748922000000015" lon="-1.7215680000000082">
        <ele>602.298</ele>
        <time>2022-08-25T08:28:31Z</time>
      </trkpt>
      <trkpt lat="42.74891700000001" lon="-1.7215820000000082">
        <ele>602.488</ele>
        <time>2022-08-25T08:28:32Z</time>
      </trkpt>
      <trkpt lat="42.748910000000016" lon="-1.7215970000000083">
        <ele>602.494</ele>
        <time>2022-08-25T08:28:33Z</time>
      </trkpt>
      <trkpt lat="42.74890100000002" lon="-1.7216100000000083">
        <ele>602.656</ele>
        <time>2022-08-25T08:28:34Z</time>
      </trkpt>
      <trkpt lat="42.748891000000015" lon="-1.7216260000000083">
        <ele>602.623</ele>
        <time>2022-08-25T08:28:35Z</time>
      </trkpt>
      <trkpt lat="42.74888700000002" lon="-1.7216440000000084">
        <ele>602.886</ele>
        <time>2022-08-25T08:28:36Z</time>
      </trkpt>
      <trkpt lat="42.74888100000002" lon="-1.7216630000000084">
        <ele>603.042</ele>
        <time>2022-08-25T08:28:37Z</time>
      </trkpt>
      <trkpt lat="42.74887300000002" lon="-1.7216790000000084">
        <ele>602.853</ele>
        <time>2022-08-25T08:28:38Z</time>
      </trkpt>
      <trkpt lat="42.74886600000002" lon="-1.7216920000000084">
        <ele>603.217</ele>
        <time>2022-08-25T08:28:39Z</time>
      </trkpt>
      <trkpt lat="42.74885700000002" lon="-1.7217030000000084">
        <ele>603.287</ele>
        <time>2022-08-25T08:28:40Z</time>
      </trkpt>
      <trkpt lat="42.74884700000002" lon="-1.7217130000000085">
        <ele>603.415</ele>
        <time>2022-08-25T08:28:41Z</time>
      </trkpt>
      <trkpt lat="42.748834000000016" lon="-1.7217240000000085">
        <ele>603.609</ele>
        <time>2022-08-25T08:28:42Z</time>
      </trkpt>
      <trkpt lat="42.748823000000016" lon="-1.7217350000000085">
        <ele>603.652</ele>
        <time>2022-08-25T08:28:43Z</time>
      </trkpt>
      <trkpt lat="42.74881700000002" lon="-1.7217500000000086">
        <ele>603.892</ele>
        <time>2022-08-25T08:28:44Z</time>
      </trkpt>
      <trkpt lat="42.74880800000002" lon="-1.7217680000000086">
        <ele>603.842</ele>
        <time>2022-08-25T08:28:45Z</time>
      </trkpt>
      <trkpt lat="42.74880400000002" lon="-1.7217770000000086">
        <ele>604.078</ele>
        <time>2022-08-25T08:28:46Z</time>
      </trkpt>
      <trkpt lat="42.748797000000025" lon="-1.7217890000000085">
        <ele>604.250</ele>
        <time>2022-08-25T08:28:47Z</time>
      </trkpt>
      <trkpt lat="42.74878700000002" lon="-1.7218020000000085">
        <ele>604.267</ele>
        <time>2022-08-25T08:28:48Z</time>
      </trkpt>
      <trkpt lat="42.74878100000002" lon="-1.7218110000000084">
        <ele>604.250</ele>
        <time>2022-08-25T08:28:49Z</time>
      </trkpt>
      <trkpt lat="42.74877300000002" lon="-1.7218210000000085">
        <ele>604.456</ele>
        <time>2022-08-25T08:28:50Z</time>
      </trkpt>
      <trkpt lat="42.74876300000002" lon="-1.7218340000000085">
        <ele>604.677</ele>
        <time>2022-08-25T08:28:51Z</time>
      </trkpt>
      <trkpt lat="42.74875700000002" lon="-1.7218430000000085">
        <ele>604.697</ele>
        <time>2022-08-25T08:28:52Z</time>
      </trkpt>
      <trkpt lat="42.74874600000002" lon="-1.7218600000000084">
        <ele>604.823</ele>
        <time>2022-08-25T08:28:53Z</time>
      </trkpt>
      <trkpt lat="42.74874100000002" lon="-1.7218710000000084">
        <ele>605.025</ele>
        <time>2022-08-25T08:28:54Z</time>
      </trkpt>
      <trkpt lat="42.748736000000015" lon="-1.7218850000000083">
        <ele>605.009</ele>
        <time>2022-08-25T08:28:55Z</time>
      </trkpt>
      <trkpt lat="42.74872900000002" lon="-1.7218980000000084">
        <ele>605.280</ele>
        <time>2022-08-25T08:28:56Z</time>
      </trkpt>
      <trkpt lat="42.74872500000002" lon="-1.7219090000000083">
        <ele>605.270</ele>
        <time>2022-08-25T08:28:57Z</time>
      </trkpt>
      <trkpt lat="42.748721000000025" lon="-1.7219200000000083">
        <ele>605.450</ele>
        <time>2022-08-25T08:28:58Z</time>
      </trkpt>
      <trkpt lat="42.748712000000026" lon="-1.7219340000000083">
        <ele>605.486</ele>
        <time>2022-08-25T08:28:59Z</time>
      </trkpt>
      <trkpt lat="42.74871100000003" lon="-1.7219490000000084">
        <ele>605.858</ele>
        <time>2022-08-25T08:29:00Z</time>
      </trkpt>
      <trkpt lat="42.74870700000003" lon="-1.7219630000000083">
        <ele>605.825</ele>
        <time>2022-08-25T08:29:01Z</time>
      </trkpt>
      <trkpt lat="42.74869900000003" lon="-1.7219770000000083">
        <ele>606.038</ele>
        <time>2022-08-25T08:29:02Z</time>
      </trkpt>
      <trkpt lat="42.74869300000003" lon="-1.7219880000000083">
        <ele>606.064</ele>
        <time>2022-08-25T08:29:03Z</time>
      </trkpt>
      <trkpt lat="42.748686000000035" lon="-1.7219990000000083">
        <ele>606.225</ele>
        <time>2022-08-25T08:29:04Z</time>
      </trkpt>
      <trkpt lat="42.748680000000036" lon="-1.7220100000000083">
        <ele>606.272</ele>
        <time>2022-08-25T08:29:05Z</time>
      </trkpt>
      <trkpt lat="42.74867300000004" lon="-1.7220230000000083">
        <ele>606.413</ele>
        <time>2022-08-25T08:29:06Z</time>
      </trkpt>
      <trkpt lat="42.74866400000004" lon="-1.7220360000000083">
        <ele>606.614</ele>
        <time>2022-08-25T08:29:07Z</time>
      </trkpt>
      <trkpt lat="42.74865600000004" lon="-1.7220490000000084">
        <ele>606.609</ele>
        <time>2022-08-25T08:29:08Z</time>
      </trkpt>
      <trkpt lat="42.74864800000004" lon="-1.7220620000000084">
        <ele>606.898</ele>
        <time>2022-08-25T08:29:09Z</time>
      </trkpt>
      <trkpt lat="42.74864300000004" lon="-1.7220730000000084">
        <ele>607.078</ele>
        <time>2022-08-25T08:29:10Z</time>
      </trkpt>
      <trkpt lat="42.748638000000035" lon="-1.7220840000000084">
        <ele>607.218</ele>
        <time>2022-08-25T08:29:11Z</time>
      </trkpt>
      <trkpt lat="42.74863100000004" lon="-1.7220970000000084">
        <ele>607.464</ele>
        <time>2022-08-25T08:29:12Z</time>
      </trkpt>
      <trkpt lat="42.74862200000004" lon="-1.7221110000000084">
        <ele>607.456</ele>
        <time>2022-08-25T08:29:13Z</time>
      </trkpt>
      <trkpt lat="42.74861300000004" lon="-1.7221240000000084">
        <ele>607.483</ele>
        <time>2022-08-25T08:29:14Z</time>
      </trkpt>
      <trkpt lat="42.74861000000004" lon="-1.7221340000000085">
        <ele>607.646</ele>
        <time>2022-08-25T08:29:15Z</time>
      </trkpt>
      <trkpt lat="42.748606000000045" lon="-1.7221450000000085">
        <ele>607.622</ele>
        <time>2022-08-25T08:29:16Z</time>
      </trkpt>
      <trkpt lat="42.74860400000004" lon="-1.7221580000000085">
        <ele>607.823</ele>
        <time>2022-08-25T08:29:17Z</time>
      </trkpt>
      <trkpt lat="42.748600000000046" lon="-1.7221710000000086">
        <ele>607.826</ele>
        <time>2022-08-25T08:29:18Z</time>
      </trkpt>
      <trkpt lat="42.748595000000044" lon="-1.7221800000000085">
        <ele>608.047</ele>
        <time>2022-08-25T08:29:19Z</time>
      </trkpt>
      <trkpt lat="42.74858700000004" lon="-1.7221880000000085">
        <ele>608.011</ele>
        <time>2022-08-25T08:29:20Z</time>
      </trkpt>
      <trkpt lat="42.74858200000004" lon="-1.7221920000000084">
        <ele>608.209</ele>
        <time>2022-08-25T08:29:21Z</time>
      </trkpt>
      <trkpt lat="42.748575000000045" lon="-1.7221950000000084">
        <ele>608.213</ele>
        <time>2022-08-25T08:29:22Z</time>
      </trkpt>
      <trkpt lat="42.74857000000004" lon="-1.7221910000000085">
        <ele>609.473</ele>
        <time>2022-08-25T08:29:46Z</time>
      </trkpt>
      <trkpt lat="42.74857000000004" lon="-1.7221910000000085">
        <ele>609.463</ele>
        <time>2022-08-25T08:29:47Z</time>
      </trkpt>
      <trkpt lat="42.74857000000004" lon="-1.7221910000000085">
        <ele>609.039</ele>
        <time>2022-08-25T08:29:51Z</time>
      </trkpt>
      <trkpt lat="42.748589000000045" lon="-1.7222000000000084">
        <ele>609.011</ele>
        <time>2022-08-25T08:30:46Z</time>
      </trkpt>
      <trkpt lat="42.74858200000005" lon="-1.7222100000000085">
        <ele>609.228</ele>
        <time>2022-08-25T08:30:47Z</time>
      </trkpt>
      <trkpt lat="42.74857500000005" lon="-1.7222390000000085">
        <ele>609.221</ele>
        <time>2022-08-25T08:30:49Z</time>
      </trkpt>
      <trkpt lat="42.748568000000056" lon="-1.7222540000000086">
        <ele>609.277</ele>
        <time>2022-08-25T08:30:50Z</time>
      </trkpt>
      <trkpt lat="42.748515000000054" lon="-1.7223350000000086">
        <ele>609.468</ele>
        <time>2022-08-25T08:30:53Z</time>
      </trkpt>
      <trkpt lat="42.74849700000006" lon="-1.7223680000000086">
        <ele>609.417</ele>
        <time>2022-08-25T08:30:54Z</time>
      </trkpt>
      <trkpt lat="42.74846900000006" lon="-1.7224240000000086">
        <ele>609.487</ele>
        <time>2022-08-25T08:30:56Z</time>
      </trkpt>
      <trkpt lat="42.74845400000006" lon="-1.7224490000000086">
        <ele>609.415</ele>
        <time>2022-08-25T08:30:57Z</time>
      </trkpt>
      <trkpt lat="42.74843200000006" lon="-1.7225120000000085">
        <ele>609.409</ele>
        <time>2022-08-25T08:30:59Z</time>
      </trkpt>
      <trkpt lat="42.748427000000056" lon="-1.7225380000000086">
        <ele>609.472</ele>
        <time>2022-08-25T08:31:00Z</time>
      </trkpt>
      <trkpt lat="42.74841800000006" lon="-1.7225680000000085">
        <ele>609.422</ele>
        <time>2022-08-25T08:31:01Z</time>
      </trkpt>
      <trkpt lat="42.74840700000006" lon="-1.7225930000000085">
        <ele>609.422</ele>
        <time>2022-08-25T08:31:02Z</time>
      </trkpt>
      <trkpt lat="42.74839300000006" lon="-1.7226170000000085">
        <ele>609.498</ele>
        <time>2022-08-25T08:31:03Z</time>
      </trkpt>
      <trkpt lat="42.74837900000006" lon="-1.7226330000000085">
        <ele>609.250</ele>
        <time>2022-08-25T08:31:04Z</time>
      </trkpt>
      <trkpt lat="42.748371000000056" lon="-1.7226460000000086">
        <ele>609.257</ele>
        <time>2022-08-25T08:31:05Z</time>
      </trkpt>
      <trkpt lat="42.74836100000005" lon="-1.7226590000000086">
        <ele>609.230</ele>
        <time>2022-08-25T08:31:06Z</time>
      </trkpt>
      <trkpt lat="42.74835300000005" lon="-1.7226710000000085">
        <ele>609.226</ele>
        <time>2022-08-25T08:31:07Z</time>
      </trkpt>
      <trkpt lat="42.74827400000005" lon="-1.7227650000000085">
        <ele>609.257</ele>
        <time>2022-08-25T08:31:13Z</time>
      </trkpt>
      <trkpt lat="42.74826600000005" lon="-1.7227760000000085">
        <ele>609.451</ele>
        <time>2022-08-25T08:31:14Z</time>
      </trkpt>
      <trkpt lat="42.74826400000005" lon="-1.7227870000000085">
        <ele>609.401</ele>
        <time>2022-08-25T08:31:15Z</time>
      </trkpt>
      <trkpt lat="42.748254000000045" lon="-1.7227940000000086">
        <ele>609.411</ele>
        <time>2022-08-25T08:31:16Z</time>
      </trkpt>
      <trkpt lat="42.74824500000005" lon="-1.7227910000000086">
        <ele>609.409</ele>
        <time>2022-08-25T08:31:17Z</time>
      </trkpt>
      <trkpt lat="42.748232000000044" lon="-1.7227950000000085">
        <ele>609.456</ele>
        <time>2022-08-25T08:31:18Z</time>
      </trkpt>
      <trkpt lat="42.74821100000005" lon="-1.7228100000000086">
        <ele>609.616</ele>
        <time>2022-08-25T08:31:20Z</time>
      </trkpt>
      <trkpt lat="42.74819300000005" lon="-1.7228300000000085">
        <ele>609.686</ele>
        <time>2022-08-25T08:31:21Z</time>
      </trkpt>
      <trkpt lat="42.74817900000005" lon="-1.7228520000000085">
        <ele>609.822</ele>
        <time>2022-08-25T08:31:22Z</time>
      </trkpt>
      <trkpt lat="42.74816700000005" lon="-1.7228680000000085">
        <ele>609.844</ele>
        <time>2022-08-25T08:31:23Z</time>
      </trkpt>
      <trkpt lat="42.74815100000005" lon="-1.7228800000000084">
        <ele>610.041</ele>
        <time>2022-08-25T08:31:24Z</time>
      </trkpt>
      <trkpt lat="42.74813800000005" lon="-1.7228950000000085">
        <ele>610.024</ele>
        <time>2022-08-25T08:31:25Z</time>
      </trkpt>
      <trkpt lat="42.74812300000005" lon="-1.7229020000000086">
        <ele>610.020</ele>
        <time>2022-08-25T08:31:26Z</time>
      </trkpt>
      <trkpt lat="42.748113000000046" lon="-1.7229120000000087">
        <ele>610.031</ele>
        <time>2022-08-25T08:31:27Z</time>
      </trkpt>
      <trkpt lat="42.74810300000004" lon="-1.7229270000000088">
        <ele>610.234</ele>
        <time>2022-08-25T08:31:28Z</time>
      </trkpt>
      <trkpt lat="42.74806100000004" lon="-1.7229940000000088">
        <ele>610.455</ele>
        <time>2022-08-25T08:31:31Z</time>
      </trkpt>
      <trkpt lat="42.74795500000004" lon="-1.7230940000000088">
        <ele>610.810</ele>
        <time>2022-08-25T08:31:36Z</time>
      </trkpt>
      <trkpt lat="42.74789500000004" lon="-1.7231210000000088">
        <ele>610.809</ele>
        <time>2022-08-25T08:31:39Z</time>
      </trkpt>
      <trkpt lat="42.74788100000004" lon="-1.7231310000000089">
        <ele>610.844</ele>
        <time>2022-08-25T08:31:40Z</time>
      </trkpt>
      <trkpt lat="42.74786700000004" lon="-1.7231470000000089">
        <ele>611.074</ele>
        <time>2022-08-25T08:31:41Z</time>
      </trkpt>
      <trkpt lat="42.74785700000004" lon="-1.7231580000000088">
        <ele>611.294</ele>
        <time>2022-08-25T08:31:42Z</time>
      </trkpt>
      <trkpt lat="42.74784900000004" lon="-1.7231690000000088">
        <ele>611.250</ele>
        <time>2022-08-25T08:31:43Z</time>
      </trkpt>
      <trkpt lat="42.74782000000004" lon="-1.7231780000000088">
        <ele>611.842</ele>
        <time>2022-08-25T08:31:45Z</time>
      </trkpt>
      <trkpt lat="42.74780800000004" lon="-1.7231800000000088">
        <ele>611.829</ele>
        <time>2022-08-25T08:31:46Z</time>
      </trkpt>
      <trkpt lat="42.74779400000004" lon="-1.7231820000000089">
        <ele>612.012</ele>
        <time>2022-08-25T08:31:47Z</time>
      </trkpt>
      <trkpt lat="42.74778400000004" lon="-1.723181000000009">
        <ele>612.028</ele>
        <time>2022-08-25T08:31:48Z</time>
      </trkpt>
      <trkpt lat="42.747774000000035" lon="-1.723178000000009">
        <ele>612.289</ele>
        <time>2022-08-25T08:31:49Z</time>
      </trkpt>
      <trkpt lat="42.74776500000004" lon="-1.723177000000009">
        <ele>612.256</ele>
        <time>2022-08-25T08:31:50Z</time>
      </trkpt>
      <trkpt lat="42.74775800000004" lon="-1.723185000000009">
        <ele>612.459</ele>
        <time>2022-08-25T08:31:51Z</time>
      </trkpt>
      <trkpt lat="42.74775300000004" lon="-1.723194000000009">
        <ele>612.414</ele>
        <time>2022-08-25T08:31:52Z</time>
      </trkpt>
      <trkpt lat="42.747743000000035" lon="-1.723206000000009">
        <ele>612.409</ele>
        <time>2022-08-25T08:31:53Z</time>
      </trkpt>
      <trkpt lat="42.74772800000004" lon="-1.7232200000000089">
        <ele>612.666</ele>
        <time>2022-08-25T08:31:54Z</time>
      </trkpt>
      <trkpt lat="42.74765500000004" lon="-1.723273000000009">
        <ele>613.026</ele>
        <time>2022-08-25T08:31:58Z</time>
      </trkpt>
      <trkpt lat="42.74763800000004" lon="-1.723284000000009">
        <ele>613.266</ele>
        <time>2022-08-25T08:31:59Z</time>
      </trkpt>
      <trkpt lat="42.74762300000004" lon="-1.7232900000000089">
        <ele>613.242</ele>
        <time>2022-08-25T08:32:00Z</time>
      </trkpt>
      <trkpt lat="42.74760800000004" lon="-1.7232940000000088">
        <ele>613.414</ele>
        <time>2022-08-25T08:32:01Z</time>
      </trkpt>
      <trkpt lat="42.747596000000044" lon="-1.7232940000000088">
        <ele>613.441</ele>
        <time>2022-08-25T08:32:02Z</time>
      </trkpt>
      <trkpt lat="42.74758100000005" lon="-1.7232950000000087">
        <ele>613.674</ele>
        <time>2022-08-25T08:32:03Z</time>
      </trkpt>
      <trkpt lat="42.74756600000005" lon="-1.7232980000000087">
        <ele>613.630</ele>
        <time>2022-08-25T08:32:04Z</time>
      </trkpt>
      <trkpt lat="42.74754800000005" lon="-1.7233040000000086">
        <ele>613.831</ele>
        <time>2022-08-25T08:32:05Z</time>
      </trkpt>
      <trkpt lat="42.747533000000054" lon="-1.7233110000000087">
        <ele>614.084</ele>
        <time>2022-08-25T08:32:06Z</time>
      </trkpt>
      <trkpt lat="42.747521000000056" lon="-1.7233160000000087">
        <ele>614.207</ele>
        <time>2022-08-25T08:32:07Z</time>
      </trkpt>
      <trkpt lat="42.747507000000056" lon="-1.7233220000000087">
        <ele>614.417</ele>
        <time>2022-08-25T08:32:08Z</time>
      </trkpt>
      <trkpt lat="42.74749100000005" lon="-1.7233320000000087">
        <ele>614.409</ele>
        <time>2022-08-25T08:32:09Z</time>
      </trkpt>
      <trkpt lat="42.74747800000005" lon="-1.7233360000000086">
        <ele>614.459</ele>
        <time>2022-08-25T08:32:10Z</time>
      </trkpt>
      <trkpt lat="42.74745500000005" lon="-1.7233460000000087">
        <ele>614.439</ele>
        <time>2022-08-25T08:32:11Z</time>
      </trkpt>
      <trkpt lat="42.74743900000005" lon="-1.7233540000000087">
        <ele>614.649</ele>
        <time>2022-08-25T08:32:12Z</time>
      </trkpt>
      <trkpt lat="42.74742200000005" lon="-1.7233640000000088">
        <ele>614.855</ele>
        <time>2022-08-25T08:32:13Z</time>
      </trkpt>
      <trkpt lat="42.74740200000005" lon="-1.7233700000000087">
        <ele>614.857</ele>
        <time>2022-08-25T08:32:14Z</time>
      </trkpt>
      <trkpt lat="42.747381000000054" lon="-1.7233760000000087">
        <ele>615.024</ele>
        <time>2022-08-25T08:32:15Z</time>
      </trkpt>
      <trkpt lat="42.747361000000055" lon="-1.7233790000000087">
        <ele>615.047</ele>
        <time>2022-08-25T08:32:16Z</time>
      </trkpt>
      <trkpt lat="42.74734300000006" lon="-1.7233820000000086">
        <ele>615.223</ele>
        <time>2022-08-25T08:32:17Z</time>
      </trkpt>
      <trkpt lat="42.74732300000006" lon="-1.7233840000000087">
        <ele>615.264</ele>
        <time>2022-08-25T08:32:18Z</time>
      </trkpt>
      <trkpt lat="42.74730100000006" lon="-1.7233880000000086">
        <ele>615.282</ele>
        <time>2022-08-25T08:32:19Z</time>
      </trkpt>
      <trkpt lat="42.747276000000056" lon="-1.7233940000000085">
        <ele>615.443</ele>
        <time>2022-08-25T08:32:20Z</time>
      </trkpt>
      <trkpt lat="42.747254000000055" lon="-1.7234000000000085">
        <ele>615.417</ele>
        <time>2022-08-25T08:32:21Z</time>
      </trkpt>
      <trkpt lat="42.74723600000006" lon="-1.7234040000000084">
        <ele>615.609</ele>
        <time>2022-08-25T08:32:22Z</time>
      </trkpt>
      <trkpt lat="42.74721300000006" lon="-1.7234100000000083">
        <ele>615.689</ele>
        <time>2022-08-25T08:32:23Z</time>
      </trkpt>
      <trkpt lat="42.74719300000006" lon="-1.7234110000000082">
        <ele>615.669</ele>
        <time>2022-08-25T08:32:24Z</time>
      </trkpt>
      <trkpt lat="42.74716700000006" lon="-1.7234100000000083">
        <ele>615.639</ele>
        <time>2022-08-25T08:32:25Z</time>
      </trkpt>
      <trkpt lat="42.74715000000006" lon="-1.7234100000000083">
        <ele>615.615</ele>
        <time>2022-08-25T08:32:26Z</time>
      </trkpt>
      <trkpt lat="42.74712700000006" lon="-1.7234110000000082">
        <ele>615.827</ele>
        <time>2022-08-25T08:32:27Z</time>
      </trkpt>
      <trkpt lat="42.747107000000064" lon="-1.7234130000000083">
        <ele>615.844</ele>
        <time>2022-08-25T08:32:28Z</time>
      </trkpt>
      <trkpt lat="42.747087000000064" lon="-1.7234130000000083">
        <ele>616.097</ele>
        <time>2022-08-25T08:32:29Z</time>
      </trkpt>
      <trkpt lat="42.747064000000066" lon="-1.7234120000000084">
        <ele>616.073</ele>
        <time>2022-08-25T08:32:30Z</time>
      </trkpt>
      <trkpt lat="42.74704100000007" lon="-1.7234150000000084">
        <ele>616.074</ele>
        <time>2022-08-25T08:32:31Z</time>
      </trkpt>
      <trkpt lat="42.74701800000007" lon="-1.7234200000000084">
        <ele>616.297</ele>
        <time>2022-08-25T08:32:32Z</time>
      </trkpt>
      <trkpt lat="42.74685200000007" lon="-1.7234390000000084">
        <ele>616.623</ele>
        <time>2022-08-25T08:32:39Z</time>
      </trkpt>
      <trkpt lat="42.74682600000007" lon="-1.7234460000000085">
        <ele>616.825</ele>
        <time>2022-08-25T08:32:40Z</time>
      </trkpt>
      <trkpt lat="42.74663200000007" lon="-1.7234660000000084">
        <ele>616.609</ele>
        <time>2022-08-25T08:32:47Z</time>
      </trkpt>
      <trkpt lat="42.74657100000007" lon="-1.7234730000000085">
        <ele>616.680</ele>
        <time>2022-08-25T08:32:49Z</time>
      </trkpt>
      <trkpt lat="42.74651100000007" lon="-1.7234880000000086">
        <ele>616.650</ele>
        <time>2022-08-25T08:32:51Z</time>
      </trkpt>
      <trkpt lat="42.74648600000007" lon="-1.7234920000000085">
        <ele>616.630</ele>
        <time>2022-08-25T08:32:52Z</time>
      </trkpt>
      <trkpt lat="42.74642900000007" lon="-1.7234980000000084">
        <ele>616.666</ele>
        <time>2022-08-25T08:32:54Z</time>
      </trkpt>
      <trkpt lat="42.74636900000007" lon="-1.7235160000000085">
        <ele>617.028</ele>
        <time>2022-08-25T08:32:56Z</time>
      </trkpt>
      <trkpt lat="42.746340000000075" lon="-1.7235310000000086">
        <ele>617.275</ele>
        <time>2022-08-25T08:32:57Z</time>
      </trkpt>
      <trkpt lat="42.74631600000007" lon="-1.7235510000000085">
        <ele>617.248</ele>
        <time>2022-08-25T08:32:58Z</time>
      </trkpt>
      <trkpt lat="42.74629100000007" lon="-1.7235700000000085">
        <ele>617.434</ele>
        <time>2022-08-25T08:32:59Z</time>
      </trkpt>
      <trkpt lat="42.74622300000007" lon="-1.7236170000000084">
        <ele>617.625</ele>
        <time>2022-08-25T08:33:01Z</time>
      </trkpt>
      <trkpt lat="42.74617900000007" lon="-1.7236490000000084">
        <ele>617.882</ele>
        <time>2022-08-25T08:33:02Z</time>
      </trkpt>
      <trkpt lat="42.74605000000007" lon="-1.7237680000000084">
        <ele>617.843</ele>
        <time>2022-08-25T08:33:05Z</time>
      </trkpt>
      <trkpt lat="42.74590100000007" lon="-1.7239000000000084">
        <ele>617.817</ele>
        <time>2022-08-25T08:33:08Z</time>
      </trkpt>
      <trkpt lat="42.74585600000007" lon="-1.7239420000000085">
        <ele>617.809</ele>
        <time>2022-08-25T08:33:09Z</time>
      </trkpt>
      <trkpt lat="42.745812000000065" lon="-1.7239870000000086">
        <ele>617.659</ele>
        <time>2022-08-25T08:33:10Z</time>
      </trkpt>
      <trkpt lat="42.745770000000064" lon="-1.7240320000000087">
        <ele>617.619</ele>
        <time>2022-08-25T08:33:11Z</time>
      </trkpt>
      <trkpt lat="42.745730000000066" lon="-1.7240770000000087">
        <ele>617.669</ele>
        <time>2022-08-25T08:33:12Z</time>
      </trkpt>
      <trkpt lat="42.74569300000007" lon="-1.7241190000000088">
        <ele>617.635</ele>
        <time>2022-08-25T08:33:13Z</time>
      </trkpt>
      <trkpt lat="42.74565500000006" lon="-1.7241580000000087">
        <ele>617.447</ele>
        <time>2022-08-25T08:33:14Z</time>
      </trkpt>
      <trkpt lat="42.745578000000066" lon="-1.7242410000000088">
        <ele>617.264</ele>
        <time>2022-08-25T08:33:16Z</time>
      </trkpt>
      <trkpt lat="42.745539000000065" lon="-1.7242790000000088">
        <ele>617.037</ele>
        <time>2022-08-25T08:33:17Z</time>
      </trkpt>
      <trkpt lat="42.74550300000006" lon="-1.7243140000000088">
        <ele>617.013</ele>
        <time>2022-08-25T08:33:18Z</time>
      </trkpt>
      <trkpt lat="42.74547000000006" lon="-1.7243530000000087">
        <ele>616.864</ele>
        <time>2022-08-25T08:33:19Z</time>
      </trkpt>
      <trkpt lat="42.74543900000006" lon="-1.7243950000000088">
        <ele>616.836</ele>
        <time>2022-08-25T08:33:20Z</time>
      </trkpt>
      <trkpt lat="42.745407000000064" lon="-1.7244370000000089">
        <ele>616.817</ele>
        <time>2022-08-25T08:33:21Z</time>
      </trkpt>
      <trkpt lat="42.74534100000007" lon="-1.7245220000000088">
        <ele>616.618</ele>
        <time>2022-08-25T08:33:23Z</time>
      </trkpt>
      <trkpt lat="42.745311000000065" lon="-1.7245610000000087">
        <ele>616.609</ele>
        <time>2022-08-25T08:33:24Z</time>
      </trkpt>
      <trkpt lat="42.745283000000065" lon="-1.7246000000000086">
        <ele>616.434</ele>
        <time>2022-08-25T08:33:25Z</time>
      </trkpt>
      <trkpt lat="42.745252000000065" lon="-1.7246360000000085">
        <ele>616.474</ele>
        <time>2022-08-25T08:33:26Z</time>
      </trkpt>
      <trkpt lat="42.74521600000006" lon="-1.7246670000000084">
        <ele>616.244</ele>
        <time>2022-08-25T08:33:27Z</time>
      </trkpt>
      <trkpt lat="42.74518000000006" lon="-1.7246960000000084">
        <ele>616.240</ele>
        <time>2022-08-25T08:33:28Z</time>
      </trkpt>
      <trkpt lat="42.744999000000064" lon="-1.7248000000000085">
        <ele>616.252</ele>
        <time>2022-08-25T08:33:33Z</time>
      </trkpt>
      <trkpt lat="42.744962000000065" lon="-1.7248150000000086">
        <ele>616.259</ele>
        <time>2022-08-25T08:33:34Z</time>
      </trkpt>
      <trkpt lat="42.74492700000007" lon="-1.7248310000000087">
        <ele>616.222</ele>
        <time>2022-08-25T08:33:35Z</time>
      </trkpt>
      <trkpt lat="42.74481900000007" lon="-1.7248910000000086">
        <ele>616.228</ele>
        <time>2022-08-25T08:33:38Z</time>
      </trkpt>
      <trkpt lat="42.74474300000007" lon="-1.7249470000000087">
        <ele>616.449</ele>
        <time>2022-08-25T08:33:40Z</time>
      </trkpt>
      <trkpt lat="42.74470300000007" lon="-1.7249780000000086">
        <ele>616.421</ele>
        <time>2022-08-25T08:33:41Z</time>
      </trkpt>
      <trkpt lat="42.74441700000007" lon="-1.7252010000000086">
        <ele>616.241</ele>
        <time>2022-08-25T08:33:48Z</time>
      </trkpt>
      <trkpt lat="42.74437000000007" lon="-1.7252330000000087">
        <ele>616.005</ele>
        <time>2022-08-25T08:33:49Z</time>
      </trkpt>
      <trkpt lat="42.744064000000066" lon="-1.7254500000000086">
        <ele>615.409</ele>
        <time>2022-08-25T08:33:56Z</time>
      </trkpt>
      <trkpt lat="42.74402700000007" lon="-1.7254780000000085">
        <ele>615.453</ele>
        <time>2022-08-25T08:33:57Z</time>
      </trkpt>
      <trkpt lat="42.74399300000007" lon="-1.7255010000000086">
        <ele>615.473</ele>
        <time>2022-08-25T08:33:58Z</time>
      </trkpt>
      <trkpt lat="42.743839000000065" lon="-1.7256120000000086">
        <ele>615.473</ele>
        <time>2022-08-25T08:34:02Z</time>
      </trkpt>
      <trkpt lat="42.743752000000065" lon="-1.7256750000000085">
        <ele>615.039</ele>
        <time>2022-08-25T08:34:04Z</time>
      </trkpt>
      <trkpt lat="42.74357100000007" lon="-1.7258060000000086">
        <ele>614.641</ele>
        <time>2022-08-25T08:34:08Z</time>
      </trkpt>
      <trkpt lat="42.743529000000066" lon="-1.7258390000000086">
        <ele>614.668</ele>
        <time>2022-08-25T08:34:09Z</time>
      </trkpt>
      <trkpt lat="42.74348600000007" lon="-1.7258720000000085">
        <ele>614.641</ele>
        <time>2022-08-25T08:34:10Z</time>
      </trkpt>
      <trkpt lat="42.743445000000065" lon="-1.7259060000000086">
        <ele>614.467</ele>
        <time>2022-08-25T08:34:11Z</time>
      </trkpt>
      <trkpt lat="42.743406000000064" lon="-1.7259420000000085">
        <ele>614.468</ele>
        <time>2022-08-25T08:34:12Z</time>
      </trkpt>
      <trkpt lat="42.74337100000007" lon="-1.7259820000000086">
        <ele>614.453</ele>
        <time>2022-08-25T08:34:13Z</time>
      </trkpt>
      <trkpt lat="42.74330900000007" lon="-1.7260810000000086">
        <ele>614.404</ele>
        <time>2022-08-25T08:34:15Z</time>
      </trkpt>
      <trkpt lat="42.74328600000007" lon="-1.7261410000000086">
        <ele>614.414</ele>
        <time>2022-08-25T08:34:16Z</time>
      </trkpt>
      <trkpt lat="42.74326500000007" lon="-1.7262000000000086">
        <ele>614.609</ele>
        <time>2022-08-25T08:34:17Z</time>
      </trkpt>
      <trkpt lat="42.743250000000074" lon="-1.7262540000000086">
        <ele>614.676</ele>
        <time>2022-08-25T08:34:18Z</time>
      </trkpt>
      <trkpt lat="42.743238000000076" lon="-1.7263060000000086">
        <ele>614.836</ele>
        <time>2022-08-25T08:34:19Z</time>
      </trkpt>
      <trkpt lat="42.74322900000008" lon="-1.7263550000000085">
        <ele>614.866</ele>
        <time>2022-08-25T08:34:20Z</time>
      </trkpt>
      <trkpt lat="42.74322300000008" lon="-1.7263990000000085">
        <ele>614.852</ele>
        <time>2022-08-25T08:34:21Z</time>
      </trkpt>
      <trkpt lat="42.74321600000008" lon="-1.7264350000000084">
        <ele>614.894</ele>
        <time>2022-08-25T08:34:22Z</time>
      </trkpt>
      <trkpt lat="42.74320600000008" lon="-1.7264670000000084">
        <ele>614.681</ele>
        <time>2022-08-25T08:34:23Z</time>
      </trkpt>
      <trkpt lat="42.743196000000076" lon="-1.7264930000000085">
        <ele>614.654</ele>
        <time>2022-08-25T08:34:24Z</time>
      </trkpt>
      <trkpt lat="42.743185000000075" lon="-1.7265170000000085">
        <ele>614.620</ele>
        <time>2022-08-25T08:34:25Z</time>
      </trkpt>
      <trkpt lat="42.743174000000074" lon="-1.7265370000000084">
        <ele>615.071</ele>
        <time>2022-08-25T08:34:26Z</time>
      </trkpt>
      <trkpt lat="42.74316400000007" lon="-1.7265550000000085">
        <ele>615.072</ele>
        <time>2022-08-25T08:34:27Z</time>
      </trkpt>
      <trkpt lat="42.74315500000007" lon="-1.7265750000000084">
        <ele>614.813</ele>
        <time>2022-08-25T08:34:28Z</time>
      </trkpt>
      <trkpt lat="42.74315000000007" lon="-1.7265990000000084">
        <ele>615.214</ele>
        <time>2022-08-25T08:34:29Z</time>
      </trkpt>
      <trkpt lat="42.74314800000007" lon="-1.7266450000000084">
        <ele>615.609</ele>
        <time>2022-08-25T08:34:31Z</time>
      </trkpt>
      <trkpt lat="42.74315000000007" lon="-1.7266660000000085">
        <ele>615.878</ele>
        <time>2022-08-25T08:34:32Z</time>
      </trkpt>
      <trkpt lat="42.74315200000007" lon="-1.7266870000000085">
        <ele>616.428</ele>
        <time>2022-08-25T08:34:33Z</time>
      </trkpt>
      <trkpt lat="42.74315300000007" lon="-1.7267110000000085">
        <ele>616.658</ele>
        <time>2022-08-25T08:34:34Z</time>
      </trkpt>
      <trkpt lat="42.74315700000007" lon="-1.7267300000000085">
        <ele>617.034</ele>
        <time>2022-08-25T08:34:35Z</time>
      </trkpt>
      <trkpt lat="42.74315600000007" lon="-1.7267500000000084">
        <ele>617.686</ele>
        <time>2022-08-25T08:34:36Z</time>
      </trkpt>
      <trkpt lat="42.74315500000007" lon="-1.7267690000000084">
        <ele>617.853</ele>
        <time>2022-08-25T08:34:37Z</time>
      </trkpt>
      <trkpt lat="42.743151000000076" lon="-1.7267860000000084">
        <ele>618.286</ele>
        <time>2022-08-25T08:34:38Z</time>
      </trkpt>
      <trkpt lat="42.743146000000074" lon="-1.7268040000000084">
        <ele>618.282</ele>
        <time>2022-08-25T08:34:39Z</time>
      </trkpt>
      <trkpt lat="42.74314500000008" lon="-1.7268230000000084">
        <ele>618.683</ele>
        <time>2022-08-25T08:34:40Z</time>
      </trkpt>
      <trkpt lat="42.74314500000008" lon="-1.7268430000000083">
        <ele>618.875</ele>
        <time>2022-08-25T08:34:41Z</time>
      </trkpt>
      <trkpt lat="42.74314400000008" lon="-1.7268610000000084">
        <ele>619.028</ele>
        <time>2022-08-25T08:34:42Z</time>
      </trkpt>
      <trkpt lat="42.74314300000008" lon="-1.7268780000000084">
        <ele>619.420</ele>
        <time>2022-08-25T08:34:43Z</time>
      </trkpt>
      <trkpt lat="42.743142000000084" lon="-1.7268950000000083">
        <ele>619.609</ele>
        <time>2022-08-25T08:34:44Z</time>
      </trkpt>
      <trkpt lat="42.743139000000085" lon="-1.7269120000000082">
        <ele>619.878</ele>
        <time>2022-08-25T08:34:45Z</time>
      </trkpt>
      <trkpt lat="42.74313500000009" lon="-1.7269300000000083">
        <ele>620.068</ele>
        <time>2022-08-25T08:34:46Z</time>
      </trkpt>
      <trkpt lat="42.74313400000009" lon="-1.7269500000000082">
        <ele>620.078</ele>
        <time>2022-08-25T08:34:47Z</time>
      </trkpt>
      <trkpt lat="42.74313000000009" lon="-1.7269680000000083">
        <ele>620.244</ele>
        <time>2022-08-25T08:34:48Z</time>
      </trkpt>
      <trkpt lat="42.743127000000094" lon="-1.7269870000000083">
        <ele>620.236</ele>
        <time>2022-08-25T08:34:49Z</time>
      </trkpt>
      <trkpt lat="42.743126000000096" lon="-1.7270070000000082">
        <ele>620.433</ele>
        <time>2022-08-25T08:34:50Z</time>
      </trkpt>
      <trkpt lat="42.7431230000001" lon="-1.7270260000000082">
        <ele>620.436</ele>
        <time>2022-08-25T08:34:51Z</time>
      </trkpt>
      <trkpt lat="42.743121000000095" lon="-1.7270450000000082">
        <ele>620.672</ele>
        <time>2022-08-25T08:34:52Z</time>
      </trkpt>
      <trkpt lat="42.743121000000095" lon="-1.7270660000000082">
        <ele>620.673</ele>
        <time>2022-08-25T08:34:53Z</time>
      </trkpt>
      <trkpt lat="42.7431200000001" lon="-1.7270860000000081">
        <ele>620.829</ele>
        <time>2022-08-25T08:34:54Z</time>
      </trkpt>
      <trkpt lat="42.7431130000001" lon="-1.7271040000000082">
        <ele>620.800</ele>
        <time>2022-08-25T08:34:55Z</time>
      </trkpt>
      <trkpt lat="42.743106000000104" lon="-1.7271190000000083">
        <ele>621.020</ele>
        <time>2022-08-25T08:34:56Z</time>
      </trkpt>
      <trkpt lat="42.7430980000001" lon="-1.7271360000000082">
        <ele>621.209</ele>
        <time>2022-08-25T08:34:57Z</time>
      </trkpt>
      <trkpt lat="42.743092000000104" lon="-1.7271560000000081">
        <ele>621.463</ele>
        <time>2022-08-25T08:34:58Z</time>
      </trkpt>
      <trkpt lat="42.743089000000104" lon="-1.7271750000000081">
        <ele>621.613</ele>
        <time>2022-08-25T08:34:59Z</time>
      </trkpt>
      <trkpt lat="42.7430840000001" lon="-1.727192000000008">
        <ele>621.873</ele>
        <time>2022-08-25T08:35:00Z</time>
      </trkpt>
      <trkpt lat="42.7430790000001" lon="-1.7272100000000081">
        <ele>621.889</ele>
        <time>2022-08-25T08:35:01Z</time>
      </trkpt>
      <trkpt lat="42.743075000000104" lon="-1.7272260000000081">
        <ele>622.061</ele>
        <time>2022-08-25T08:35:02Z</time>
      </trkpt>
      <trkpt lat="42.743069000000105" lon="-1.727246000000008">
        <ele>622.038</ele>
        <time>2022-08-25T08:35:03Z</time>
      </trkpt>
      <trkpt lat="42.743066000000105" lon="-1.727267000000008">
        <ele>622.231</ele>
        <time>2022-08-25T08:35:04Z</time>
      </trkpt>
      <trkpt lat="42.74306500000011" lon="-1.7272910000000081">
        <ele>622.427</ele>
        <time>2022-08-25T08:35:05Z</time>
      </trkpt>
      <trkpt lat="42.74306500000011" lon="-1.7273200000000082">
        <ele>622.628</ele>
        <time>2022-08-25T08:35:06Z</time>
      </trkpt>
      <trkpt lat="42.743063000000106" lon="-1.727351000000008">
        <ele>622.678</ele>
        <time>2022-08-25T08:35:07Z</time>
      </trkpt>
      <trkpt lat="42.743061000000104" lon="-1.7273800000000081">
        <ele>622.833</ele>
        <time>2022-08-25T08:35:08Z</time>
      </trkpt>
      <trkpt lat="42.743058000000104" lon="-1.7274040000000082">
        <ele>623.226</ele>
        <time>2022-08-25T08:35:09Z</time>
      </trkpt>
      <trkpt lat="42.74305400000011" lon="-1.7274270000000083">
        <ele>623.209</ele>
        <time>2022-08-25T08:35:10Z</time>
      </trkpt>
      <trkpt lat="42.74305000000011" lon="-1.7274510000000083">
        <ele>623.848</ele>
        <time>2022-08-25T08:35:11Z</time>
      </trkpt>
      <trkpt lat="42.74304600000011" lon="-1.7274800000000083">
        <ele>624.088</ele>
        <time>2022-08-25T08:35:12Z</time>
      </trkpt>
      <trkpt lat="42.743045000000116" lon="-1.7275000000000083">
        <ele>624.488</ele>
        <time>2022-08-25T08:35:13Z</time>
      </trkpt>
      <trkpt lat="42.74304400000012" lon="-1.7275260000000083">
        <ele>624.644</ele>
        <time>2022-08-25T08:35:14Z</time>
      </trkpt>
      <trkpt lat="42.74304100000012" lon="-1.7275550000000084">
        <ele>624.846</ele>
        <time>2022-08-25T08:35:15Z</time>
      </trkpt>
      <trkpt lat="42.74304100000012" lon="-1.7275750000000083">
        <ele>625.243</ele>
        <time>2022-08-25T08:35:16Z</time>
      </trkpt>
      <trkpt lat="42.743042000000116" lon="-1.7276000000000082">
        <ele>625.416</ele>
        <time>2022-08-25T08:35:17Z</time>
      </trkpt>
      <trkpt lat="42.743042000000116" lon="-1.7276220000000082">
        <ele>625.682</ele>
        <time>2022-08-25T08:35:18Z</time>
      </trkpt>
      <trkpt lat="42.74304400000012" lon="-1.7276450000000083">
        <ele>625.873</ele>
        <time>2022-08-25T08:35:19Z</time>
      </trkpt>
      <trkpt lat="42.74304700000012" lon="-1.7276670000000083">
        <ele>626.218</ele>
        <time>2022-08-25T08:35:20Z</time>
      </trkpt>
      <trkpt lat="42.74304700000012" lon="-1.7276960000000083">
        <ele>626.498</ele>
        <time>2022-08-25T08:35:21Z</time>
      </trkpt>
      <trkpt lat="42.74304600000012" lon="-1.7277200000000084">
        <ele>626.417</ele>
        <time>2022-08-25T08:35:22Z</time>
      </trkpt>
      <trkpt lat="42.74304700000012" lon="-1.7277370000000083">
        <ele>626.809</ele>
        <time>2022-08-25T08:35:23Z</time>
      </trkpt>
      <trkpt lat="42.743051000000115" lon="-1.7277590000000083">
        <ele>626.852</ele>
        <time>2022-08-25T08:35:24Z</time>
      </trkpt>
      <trkpt lat="42.74305600000012" lon="-1.7277820000000084">
        <ele>627.082</ele>
        <time>2022-08-25T08:35:25Z</time>
      </trkpt>
      <trkpt lat="42.743062000000116" lon="-1.7277960000000083">
        <ele>627.442</ele>
        <time>2022-08-25T08:35:26Z</time>
      </trkpt>
      <trkpt lat="42.743065000000115" lon="-1.7278090000000084">
        <ele>628.068</ele>
        <time>2022-08-25T08:35:27Z</time>
      </trkpt>
      <trkpt lat="42.74307000000012" lon="-1.7278240000000085">
        <ele>628.280</ele>
        <time>2022-08-25T08:35:28Z</time>
      </trkpt>
      <trkpt lat="42.74307500000012" lon="-1.7278400000000085">
        <ele>628.457</ele>
        <time>2022-08-25T08:35:29Z</time>
      </trkpt>
      <trkpt lat="42.74308100000012" lon="-1.7278570000000084">
        <ele>628.630</ele>
        <time>2022-08-25T08:35:30Z</time>
      </trkpt>
      <trkpt lat="42.743088000000114" lon="-1.7278780000000085">
        <ele>628.826</ele>
        <time>2022-08-25T08:35:31Z</time>
      </trkpt>
      <trkpt lat="42.743093000000115" lon="-1.7278920000000084">
        <ele>628.837</ele>
        <time>2022-08-25T08:35:32Z</time>
      </trkpt>
      <trkpt lat="42.74309700000011" lon="-1.7279120000000083">
        <ele>628.859</ele>
        <time>2022-08-25T08:35:33Z</time>
      </trkpt>
      <trkpt lat="42.743102000000114" lon="-1.7279290000000083">
        <ele>629.003</ele>
        <time>2022-08-25T08:35:34Z</time>
      </trkpt>
      <trkpt lat="42.74310300000011" lon="-1.7279450000000083">
        <ele>629.023</ele>
        <time>2022-08-25T08:35:35Z</time>
      </trkpt>
      <trkpt lat="42.74310700000011" lon="-1.7279630000000084">
        <ele>629.009</ele>
        <time>2022-08-25T08:35:36Z</time>
      </trkpt>
      <trkpt lat="42.74311000000011" lon="-1.7279760000000084">
        <ele>629.226</ele>
        <time>2022-08-25T08:35:37Z</time>
      </trkpt>
      <trkpt lat="42.74311500000011" lon="-1.7279930000000083">
        <ele>629.416</ele>
        <time>2022-08-25T08:35:38Z</time>
      </trkpt>
      <trkpt lat="42.74311900000011" lon="-1.7280120000000083">
        <ele>629.866</ele>
        <time>2022-08-25T08:35:39Z</time>
      </trkpt>
      <trkpt lat="42.743123000000104" lon="-1.7280310000000083">
        <ele>629.822</ele>
        <time>2022-08-25T08:35:40Z</time>
      </trkpt>
      <trkpt lat="42.743125000000106" lon="-1.7280570000000084">
        <ele>629.844</ele>
        <time>2022-08-25T08:35:41Z</time>
      </trkpt>
      <trkpt lat="42.7431260000001" lon="-1.7280700000000084">
        <ele>630.031</ele>
        <time>2022-08-25T08:35:42Z</time>
      </trkpt>
      <trkpt lat="42.7431290000001" lon="-1.7280860000000084">
        <ele>630.074</ele>
        <time>2022-08-25T08:35:43Z</time>
      </trkpt>
      <trkpt lat="42.7431300000001" lon="-1.7281060000000084">
        <ele>630.030</ele>
        <time>2022-08-25T08:35:44Z</time>
      </trkpt>
      <trkpt lat="42.7431280000001" lon="-1.7281180000000083">
        <ele>630.041</ele>
        <time>2022-08-25T08:35:45Z</time>
      </trkpt>
      <trkpt lat="42.7431250000001" lon="-1.7281350000000082">
        <ele>630.039</ele>
        <time>2022-08-25T08:35:46Z</time>
      </trkpt>
      <trkpt lat="42.7431200000001" lon="-1.7281530000000083">
        <ele>630.401</ele>
        <time>2022-08-25T08:35:47Z</time>
      </trkpt>
      <trkpt lat="42.7431140000001" lon="-1.7281730000000082">
        <ele>630.421</ele>
        <time>2022-08-25T08:35:48Z</time>
      </trkpt>
      <trkpt lat="42.743109000000096" lon="-1.7281940000000082">
        <ele>630.609</ele>
        <time>2022-08-25T08:35:49Z</time>
      </trkpt>
      <trkpt lat="42.7431080000001" lon="-1.7282130000000082">
        <ele>630.694</ele>
        <time>2022-08-25T08:35:50Z</time>
      </trkpt>
      <trkpt lat="42.7431070000001" lon="-1.7282300000000081">
        <ele>630.674</ele>
        <time>2022-08-25T08:35:51Z</time>
      </trkpt>
      <trkpt lat="42.743103000000104" lon="-1.728247000000008">
        <ele>630.854</ele>
        <time>2022-08-25T08:35:52Z</time>
      </trkpt>
      <trkpt lat="42.743097000000105" lon="-1.728266000000008">
        <ele>630.870</ele>
        <time>2022-08-25T08:35:53Z</time>
      </trkpt>
      <trkpt lat="42.74309600000011" lon="-1.728282000000008">
        <ele>630.822</ele>
        <time>2022-08-25T08:35:54Z</time>
      </trkpt>
      <trkpt lat="42.74308700000011" lon="-1.728302000000008">
        <ele>631.289</ele>
        <time>2022-08-25T08:35:55Z</time>
      </trkpt>
      <trkpt lat="42.74308000000011" lon="-1.728313000000008">
        <ele>631.212</ele>
        <time>2022-08-25T08:35:56Z</time>
      </trkpt>
      <trkpt lat="42.74306900000011" lon="-1.728328000000008">
        <ele>631.218</ele>
        <time>2022-08-25T08:35:57Z</time>
      </trkpt>
      <trkpt lat="42.74305600000011" lon="-1.728339000000008">
        <ele>631.419</ele>
        <time>2022-08-25T08:35:58Z</time>
      </trkpt>
      <trkpt lat="42.74304300000011" lon="-1.7283460000000082">
        <ele>631.865</ele>
        <time>2022-08-25T08:35:59Z</time>
      </trkpt>
      <trkpt lat="42.74303400000011" lon="-1.7283480000000082">
        <ele>631.868</ele>
        <time>2022-08-25T08:36:00Z</time>
      </trkpt>
      <trkpt lat="42.74301900000011" lon="-1.728352000000008">
        <ele>632.014</ele>
        <time>2022-08-25T08:36:01Z</time>
      </trkpt>
      <trkpt lat="42.74300300000011" lon="-1.728355000000008">
        <ele>632.409</ele>
        <time>2022-08-25T08:36:02Z</time>
      </trkpt>
      <trkpt lat="42.74298800000011" lon="-1.728359000000008">
        <ele>632.627</ele>
        <time>2022-08-25T08:36:03Z</time>
      </trkpt>
      <trkpt lat="42.74297100000011" lon="-1.728361000000008">
        <ele>632.637</ele>
        <time>2022-08-25T08:36:04Z</time>
      </trkpt>
      <trkpt lat="42.74296000000011" lon="-1.728364000000008">
        <ele>633.057</ele>
        <time>2022-08-25T08:36:05Z</time>
      </trkpt>
      <trkpt lat="42.74294300000011" lon="-1.728368000000008">
        <ele>633.223</ele>
        <time>2022-08-25T08:36:06Z</time>
      </trkpt>
      <trkpt lat="42.74293500000011" lon="-1.728370000000008">
        <ele>633.265</ele>
        <time>2022-08-25T08:36:07Z</time>
      </trkpt>
      <trkpt lat="42.74292300000011" lon="-1.728375000000008">
        <ele>633.262</ele>
        <time>2022-08-25T08:36:08Z</time>
      </trkpt>
      <trkpt lat="42.74290700000011" lon="-1.728378000000008">
        <ele>633.895</ele>
        <time>2022-08-25T08:36:09Z</time>
      </trkpt>
      <trkpt lat="42.742894000000106" lon="-1.728380000000008">
        <ele>633.811</ele>
        <time>2022-08-25T08:36:10Z</time>
      </trkpt>
      <trkpt lat="42.742881000000104" lon="-1.728383000000008">
        <ele>634.212</ele>
        <time>2022-08-25T08:36:11Z</time>
      </trkpt>
      <trkpt lat="42.7428680000001" lon="-1.728388000000008">
        <ele>634.664</ele>
        <time>2022-08-25T08:36:12Z</time>
      </trkpt>
      <trkpt lat="42.7428580000001" lon="-1.728390000000008">
        <ele>634.606</ele>
        <time>2022-08-25T08:36:13Z</time>
      </trkpt>
      <trkpt lat="42.7428470000001" lon="-1.728393000000008">
        <ele>634.816</ele>
        <time>2022-08-25T08:36:14Z</time>
      </trkpt>
      <trkpt lat="42.742836000000096" lon="-1.728393000000008">
        <ele>635.009</ele>
        <time>2022-08-25T08:36:15Z</time>
      </trkpt>
      <trkpt lat="42.7428240000001" lon="-1.728394000000008">
        <ele>635.247</ele>
        <time>2022-08-25T08:36:16Z</time>
      </trkpt>
      <trkpt lat="42.7428120000001" lon="-1.728397000000008">
        <ele>635.247</ele>
        <time>2022-08-25T08:36:17Z</time>
      </trkpt>
      <trkpt lat="42.7428010000001" lon="-1.728396000000008">
        <ele>635.487</ele>
        <time>2022-08-25T08:36:18Z</time>
      </trkpt>
      <trkpt lat="42.742791000000096" lon="-1.728394000000008">
        <ele>635.643</ele>
        <time>2022-08-25T08:36:19Z</time>
      </trkpt>
      <trkpt lat="42.74278100000009" lon="-1.728393000000008">
        <ele>635.825</ele>
        <time>2022-08-25T08:36:20Z</time>
      </trkpt>
      <trkpt lat="42.742772000000095" lon="-1.728390000000008">
        <ele>636.242</ele>
        <time>2022-08-25T08:36:21Z</time>
      </trkpt>
      <trkpt lat="42.7427650000001" lon="-1.7283890000000082">
        <ele>636.225</ele>
        <time>2022-08-25T08:36:22Z</time>
      </trkpt>
      <trkpt lat="42.7427570000001" lon="-1.7283880000000083">
        <ele>636.411</ele>
        <time>2022-08-25T08:36:23Z</time>
      </trkpt>
      <trkpt lat="42.7427510000001" lon="-1.7283860000000082">
        <ele>636.472</ele>
        <time>2022-08-25T08:36:24Z</time>
      </trkpt>
      <trkpt lat="42.742741000000095" lon="-1.7283840000000081">
        <ele>636.423</ele>
        <time>2022-08-25T08:36:25Z</time>
      </trkpt>
      <trkpt lat="42.74273100000009" lon="-1.728382000000008">
        <ele>636.683</ele>
        <time>2022-08-25T08:36:26Z</time>
      </trkpt>
      <trkpt lat="42.74272100000009" lon="-1.728379000000008">
        <ele>636.811</ele>
        <time>2022-08-25T08:36:27Z</time>
      </trkpt>
      <trkpt lat="42.742711000000085" lon="-1.7283760000000081">
        <ele>637.009</ele>
        <time>2022-08-25T08:36:28Z</time>
      </trkpt>
      <trkpt lat="42.74269900000009" lon="-1.728374000000008">
        <ele>637.253</ele>
        <time>2022-08-25T08:36:29Z</time>
      </trkpt>
      <trkpt lat="42.742686000000084" lon="-1.728374000000008">
        <ele>637.423</ele>
        <time>2022-08-25T08:36:30Z</time>
      </trkpt>
      <trkpt lat="42.742677000000086" lon="-1.728372000000008">
        <ele>637.863</ele>
        <time>2022-08-25T08:36:31Z</time>
      </trkpt>
      <trkpt lat="42.742669000000085" lon="-1.728366000000008">
        <ele>638.029</ele>
        <time>2022-08-25T08:36:32Z</time>
      </trkpt>
      <trkpt lat="42.74265900000008" lon="-1.7283600000000081">
        <ele>638.251</ele>
        <time>2022-08-25T08:36:33Z</time>
      </trkpt>
      <trkpt lat="42.74265000000008" lon="-1.728353000000008">
        <ele>638.428</ele>
        <time>2022-08-25T08:36:34Z</time>
      </trkpt>
      <trkpt lat="42.742641000000084" lon="-1.728345000000008">
        <ele>638.631</ele>
        <time>2022-08-25T08:36:35Z</time>
      </trkpt>
      <trkpt lat="42.74263400000009" lon="-1.728338000000008">
        <ele>638.627</ele>
        <time>2022-08-25T08:36:36Z</time>
      </trkpt>
      <trkpt lat="42.742629000000086" lon="-1.7283310000000078">
        <ele>638.828</ele>
        <time>2022-08-25T08:36:37Z</time>
      </trkpt>
      <trkpt lat="42.74262200000009" lon="-1.7283240000000077">
        <ele>639.036</ele>
        <time>2022-08-25T08:36:38Z</time>
      </trkpt>
      <trkpt lat="42.74261600000009" lon="-1.7283180000000078">
        <ele>639.217</ele>
        <time>2022-08-25T08:36:39Z</time>
      </trkpt>
      <trkpt lat="42.74261100000009" lon="-1.7283120000000078">
        <ele>639.418</ele>
        <time>2022-08-25T08:36:40Z</time>
      </trkpt>
      <trkpt lat="42.74260400000009" lon="-1.7283040000000078">
        <ele>639.609</ele>
        <time>2022-08-25T08:36:41Z</time>
      </trkpt>
      <trkpt lat="42.742597000000096" lon="-1.7282960000000078">
        <ele>639.654</ele>
        <time>2022-08-25T08:36:42Z</time>
      </trkpt>
      <trkpt lat="42.7425900000001" lon="-1.7282880000000078">
        <ele>639.874</ele>
        <time>2022-08-25T08:36:43Z</time>
      </trkpt>
      <trkpt lat="42.7425820000001" lon="-1.7282810000000077">
        <ele>639.854</ele>
        <time>2022-08-25T08:36:44Z</time>
      </trkpt>
      <trkpt lat="42.7425740000001" lon="-1.7282720000000078">
        <ele>640.010</ele>
        <time>2022-08-25T08:36:45Z</time>
      </trkpt>
      <trkpt lat="42.742566000000096" lon="-1.7282620000000077">
        <ele>640.032</ele>
        <time>2022-08-25T08:36:46Z</time>
      </trkpt>
      <trkpt lat="42.74255600000009" lon="-1.7282520000000077">
        <ele>640.259</ele>
        <time>2022-08-25T08:36:47Z</time>
      </trkpt>
      <trkpt lat="42.74254800000009" lon="-1.7282430000000077">
        <ele>640.222</ele>
        <time>2022-08-25T08:36:48Z</time>
      </trkpt>
      <trkpt lat="42.742541000000095" lon="-1.7282320000000078">
        <ele>640.448</ele>
        <time>2022-08-25T08:36:49Z</time>
      </trkpt>
      <trkpt lat="42.7425340000001" lon="-1.7282220000000077">
        <ele>640.629</ele>
        <time>2022-08-25T08:36:50Z</time>
      </trkpt>
      <trkpt lat="42.7425290000001" lon="-1.7282110000000077">
        <ele>640.875</ele>
        <time>2022-08-25T08:36:51Z</time>
      </trkpt>
      <trkpt lat="42.7425220000001" lon="-1.7282020000000078">
        <ele>641.228</ele>
        <time>2022-08-25T08:36:52Z</time>
      </trkpt>
      <trkpt lat="42.7425140000001" lon="-1.7281960000000078">
        <ele>641.420</ele>
        <time>2022-08-25T08:36:53Z</time>
      </trkpt>
      <trkpt lat="42.7425050000001" lon="-1.7281900000000079">
        <ele>641.409</ele>
        <time>2022-08-25T08:36:54Z</time>
      </trkpt>
      <trkpt lat="42.7424970000001" lon="-1.7281820000000079">
        <ele>641.648</ele>
        <time>2022-08-25T08:36:55Z</time>
      </trkpt>
      <trkpt lat="42.7424890000001" lon="-1.7281720000000078">
        <ele>641.828</ele>
        <time>2022-08-25T08:36:56Z</time>
      </trkpt>
      <trkpt lat="42.7424820000001" lon="-1.7281620000000077">
        <ele>642.098</ele>
        <time>2022-08-25T08:36:57Z</time>
      </trkpt>
      <trkpt lat="42.7424720000001" lon="-1.7281540000000077">
        <ele>642.264</ele>
        <time>2022-08-25T08:36:58Z</time>
      </trkpt>
      <trkpt lat="42.742462000000096" lon="-1.7281450000000078">
        <ele>642.426</ele>
        <time>2022-08-25T08:36:59Z</time>
      </trkpt>
      <trkpt lat="42.74245200000009" lon="-1.7281380000000077">
        <ele>642.413</ele>
        <time>2022-08-25T08:37:00Z</time>
      </trkpt>
      <trkpt lat="42.74244400000009" lon="-1.7281290000000078">
        <ele>642.496</ele>
        <time>2022-08-25T08:37:01Z</time>
      </trkpt>
      <trkpt lat="42.74243600000009" lon="-1.7281200000000079">
        <ele>642.682</ele>
        <time>2022-08-25T08:37:02Z</time>
      </trkpt>
      <trkpt lat="42.74242700000009" lon="-1.728111000000008">
        <ele>642.653</ele>
        <time>2022-08-25T08:37:03Z</time>
      </trkpt>
      <trkpt lat="42.74241500000009" lon="-1.7281040000000079">
        <ele>642.895</ele>
        <time>2022-08-25T08:37:04Z</time>
      </trkpt>
      <trkpt lat="42.742406000000095" lon="-1.7280930000000079">
        <ele>643.049</ele>
        <time>2022-08-25T08:37:05Z</time>
      </trkpt>
      <trkpt lat="42.742398000000094" lon="-1.728081000000008">
        <ele>643.223</ele>
        <time>2022-08-25T08:37:06Z</time>
      </trkpt>
      <trkpt lat="42.742384000000094" lon="-1.7280740000000079">
        <ele>643.209</ele>
        <time>2022-08-25T08:37:07Z</time>
      </trkpt>
      <trkpt lat="42.742378000000095" lon="-1.7280670000000078">
        <ele>643.460</ele>
        <time>2022-08-25T08:37:08Z</time>
      </trkpt>
      <trkpt lat="42.74237000000009" lon="-1.7280600000000077">
        <ele>643.810</ele>
        <time>2022-08-25T08:37:09Z</time>
      </trkpt>
      <trkpt lat="42.742358000000095" lon="-1.7280540000000078">
        <ele>644.270</ele>
        <time>2022-08-25T08:37:10Z</time>
      </trkpt>
      <trkpt lat="42.7423490000001" lon="-1.7280480000000078">
        <ele>644.426</ele>
        <time>2022-08-25T08:37:11Z</time>
      </trkpt>
      <trkpt lat="42.7423400000001" lon="-1.7280430000000078">
        <ele>644.448</ele>
        <time>2022-08-25T08:37:12Z</time>
      </trkpt>
      <trkpt lat="42.7423400000001" lon="-1.7280370000000078">
        <ele>644.835</ele>
        <time>2022-08-25T08:37:13Z</time>
      </trkpt>
      <trkpt lat="42.742330000000095" lon="-1.7280340000000078">
        <ele>644.868</ele>
        <time>2022-08-25T08:37:14Z</time>
      </trkpt>
      <trkpt lat="42.74232000000009" lon="-1.7280350000000078">
        <ele>645.084</ele>
        <time>2022-08-25T08:37:15Z</time>
      </trkpt>
      <trkpt lat="42.74231200000009" lon="-1.7280390000000077">
        <ele>645.215</ele>
        <time>2022-08-25T08:37:16Z</time>
      </trkpt>
      <trkpt lat="42.74230200000009" lon="-1.7280460000000077">
        <ele>645.423</ele>
        <time>2022-08-25T08:37:17Z</time>
      </trkpt>
      <trkpt lat="42.742294000000086" lon="-1.7280520000000077">
        <ele>645.683</ele>
        <time>2022-08-25T08:37:18Z</time>
      </trkpt>
      <trkpt lat="42.74228400000008" lon="-1.7280580000000076">
        <ele>645.811</ele>
        <time>2022-08-25T08:37:19Z</time>
      </trkpt>
      <trkpt lat="42.74227400000008" lon="-1.7280640000000076">
        <ele>646.009</ele>
        <time>2022-08-25T08:37:20Z</time>
      </trkpt>
      <trkpt lat="42.74226300000008" lon="-1.7280690000000076">
        <ele>646.283</ele>
        <time>2022-08-25T08:37:21Z</time>
      </trkpt>
      <trkpt lat="42.74225600000008" lon="-1.7280730000000075">
        <ele>646.463</ele>
        <time>2022-08-25T08:37:22Z</time>
      </trkpt>
      <trkpt lat="42.742249000000086" lon="-1.7280790000000075">
        <ele>646.673</ele>
        <time>2022-08-25T08:37:23Z</time>
      </trkpt>
      <trkpt lat="42.742241000000085" lon="-1.7280830000000074">
        <ele>646.629</ele>
        <time>2022-08-25T08:37:24Z</time>
      </trkpt>
      <trkpt lat="42.742233000000084" lon="-1.7280890000000073">
        <ele>646.841</ele>
        <time>2022-08-25T08:37:25Z</time>
      </trkpt>
      <trkpt lat="42.742221000000086" lon="-1.7280990000000074">
        <ele>646.848</ele>
        <time>2022-08-25T08:37:26Z</time>
      </trkpt>
      <trkpt lat="42.74221400000009" lon="-1.7281060000000075">
        <ele>647.041</ele>
        <time>2022-08-25T08:37:27Z</time>
      </trkpt>
      <trkpt lat="42.742204000000086" lon="-1.7281130000000076">
        <ele>647.227</ele>
        <time>2022-08-25T08:37:28Z</time>
      </trkpt>
      <trkpt lat="42.742193000000086" lon="-1.7281200000000076">
        <ele>647.448</ele>
        <time>2022-08-25T08:37:29Z</time>
      </trkpt>
      <trkpt lat="42.742185000000084" lon="-1.7281270000000077">
        <ele>647.446</ele>
        <time>2022-08-25T08:37:30Z</time>
      </trkpt>
      <trkpt lat="42.742176000000086" lon="-1.7281320000000078">
        <ele>647.688</ele>
        <time>2022-08-25T08:37:31Z</time>
      </trkpt>
      <trkpt lat="42.742171000000084" lon="-1.7281360000000077">
        <ele>647.616</ele>
        <time>2022-08-25T08:37:32Z</time>
      </trkpt>
      <trkpt lat="42.74216300000008" lon="-1.7281460000000077">
        <ele>647.609</ele>
        <time>2022-08-25T08:37:33Z</time>
      </trkpt>
      <trkpt lat="42.742151000000085" lon="-1.7281560000000078">
        <ele>647.855</ele>
        <time>2022-08-25T08:37:34Z</time>
      </trkpt>
      <trkpt lat="42.74214600000008" lon="-1.7281610000000078">
        <ele>647.825</ele>
        <time>2022-08-25T08:37:35Z</time>
      </trkpt>
      <trkpt lat="42.74213800000008" lon="-1.728171000000008">
        <ele>647.885</ele>
        <time>2022-08-25T08:37:36Z</time>
      </trkpt>
      <trkpt lat="42.742131000000086" lon="-1.728178000000008">
        <ele>648.041</ele>
        <time>2022-08-25T08:37:37Z</time>
      </trkpt>
      <trkpt lat="42.74212400000009" lon="-1.728186000000008">
        <ele>648.053</ele>
        <time>2022-08-25T08:37:38Z</time>
      </trkpt>
      <trkpt lat="42.74211200000009" lon="-1.728195000000008">
        <ele>647.850</ele>
        <time>2022-08-25T08:37:39Z</time>
      </trkpt>
      <trkpt lat="42.74210400000009" lon="-1.7281960000000078">
        <ele>648.083</ele>
        <time>2022-08-25T08:37:40Z</time>
      </trkpt>
      <trkpt lat="42.74209300000009" lon="-1.7281940000000078">
        <ele>648.019</ele>
        <time>2022-08-25T08:37:41Z</time>
      </trkpt>
      <trkpt lat="42.74208600000009" lon="-1.7281940000000078">
        <ele>648.230</ele>
        <time>2022-08-25T08:37:42Z</time>
      </trkpt>
      <trkpt lat="42.742077000000094" lon="-1.7281930000000079">
        <ele>648.245</ele>
        <time>2022-08-25T08:37:43Z</time>
      </trkpt>
      <trkpt lat="42.74206900000009" lon="-1.7281930000000079">
        <ele>648.447</ele>
        <time>2022-08-25T08:37:44Z</time>
      </trkpt>
      <trkpt lat="42.7420620000001" lon="-1.7281940000000078">
        <ele>648.611</ele>
        <time>2022-08-25T08:37:45Z</time>
      </trkpt>
      <trkpt lat="42.7420550000001" lon="-1.7281970000000078">
        <ele>648.809</ele>
        <time>2022-08-25T08:37:46Z</time>
      </trkpt>
      <trkpt lat="42.7420430000001" lon="-1.7282040000000078">
        <ele>648.835</ele>
        <time>2022-08-25T08:37:47Z</time>
      </trkpt>
      <trkpt lat="42.7420350000001" lon="-1.7282130000000078">
        <ele>648.885</ele>
        <time>2022-08-25T08:37:48Z</time>
      </trkpt>
      <trkpt lat="42.742028000000104" lon="-1.7282260000000078">
        <ele>649.075</ele>
        <time>2022-08-25T08:37:49Z</time>
      </trkpt>
      <trkpt lat="42.7420230000001" lon="-1.7282400000000078">
        <ele>649.261</ele>
        <time>2022-08-25T08:37:50Z</time>
      </trkpt>
      <trkpt lat="42.7420180000001" lon="-1.7282520000000077">
        <ele>649.233</ele>
        <time>2022-08-25T08:37:51Z</time>
      </trkpt>
      <trkpt lat="42.742014000000104" lon="-1.7282650000000077">
        <ele>649.220</ele>
        <time>2022-08-25T08:37:52Z</time>
      </trkpt>
      <trkpt lat="42.74200700000011" lon="-1.7282830000000078">
        <ele>649.473</ele>
        <time>2022-08-25T08:37:53Z</time>
      </trkpt>
      <trkpt lat="42.74200400000011" lon="-1.7283040000000078">
        <ele>649.489</ele>
        <time>2022-08-25T08:37:54Z</time>
      </trkpt>
      <trkpt lat="42.74199600000011" lon="-1.728322000000008">
        <ele>649.450</ele>
        <time>2022-08-25T08:37:55Z</time>
      </trkpt>
      <trkpt lat="42.74199000000011" lon="-1.728337000000008">
        <ele>649.458</ele>
        <time>2022-08-25T08:37:56Z</time>
      </trkpt>
      <trkpt lat="42.74197900000011" lon="-1.7283600000000081">
        <ele>649.652</ele>
        <time>2022-08-25T08:37:57Z</time>
      </trkpt>
      <trkpt lat="42.741969000000104" lon="-1.728385000000008">
        <ele>649.617</ele>
        <time>2022-08-25T08:37:58Z</time>
      </trkpt>
      <trkpt lat="42.741963000000105" lon="-1.728401000000008">
        <ele>649.609</ele>
        <time>2022-08-25T08:37:59Z</time>
      </trkpt>
      <trkpt lat="42.74195600000011" lon="-1.728421000000008">
        <ele>649.856</ele>
        <time>2022-08-25T08:38:00Z</time>
      </trkpt>
      <trkpt lat="42.74194900000011" lon="-1.728442000000008">
        <ele>649.836</ele>
        <time>2022-08-25T08:38:01Z</time>
      </trkpt>
      <trkpt lat="42.741914000000115" lon="-1.728494000000008">
        <ele>649.856</ele>
        <time>2022-08-25T08:38:04Z</time>
      </trkpt>
      <trkpt lat="42.741903000000114" lon="-1.728507000000008">
        <ele>649.892</ele>
        <time>2022-08-25T08:38:05Z</time>
      </trkpt>
      <trkpt lat="42.741889000000114" lon="-1.728521000000008">
        <ele>650.044</ele>
        <time>2022-08-25T08:38:06Z</time>
      </trkpt>
      <trkpt lat="42.74187800000011" lon="-1.7285330000000079">
        <ele>650.071</ele>
        <time>2022-08-25T08:38:07Z</time>
      </trkpt>
      <trkpt lat="42.74186700000011" lon="-1.7285450000000078">
        <ele>650.084</ele>
        <time>2022-08-25T08:38:08Z</time>
      </trkpt>
      <trkpt lat="42.741835000000115" lon="-1.7285720000000078">
        <ele>650.020</ele>
        <time>2022-08-25T08:38:11Z</time>
      </trkpt>
      <trkpt lat="42.74181200000012" lon="-1.7285920000000077">
        <ele>650.041</ele>
        <time>2022-08-25T08:38:13Z</time>
      </trkpt>
      <trkpt lat="42.741748000000115" lon="-1.7286430000000077">
        <ele>650.452</ele>
        <time>2022-08-25T08:38:18Z</time>
      </trkpt>
      <trkpt lat="42.74173600000012" lon="-1.7286520000000076">
        <ele>650.653</ele>
        <time>2022-08-25T08:38:19Z</time>
      </trkpt>
      <trkpt lat="42.741725000000116" lon="-1.7286610000000076">
        <ele>650.808</ele>
        <time>2022-08-25T08:38:20Z</time>
      </trkpt>
      <trkpt lat="42.741700000000115" lon="-1.7286820000000076">
        <ele>651.009</ele>
        <time>2022-08-25T08:38:22Z</time>
      </trkpt>
      <trkpt lat="42.74168700000011" lon="-1.7286910000000075">
        <ele>651.056</ele>
        <time>2022-08-25T08:38:23Z</time>
      </trkpt>
      <trkpt lat="42.741633000000114" lon="-1.7287220000000074">
        <ele>651.276</ele>
        <time>2022-08-25T08:38:27Z</time>
      </trkpt>
      <trkpt lat="42.74160100000012" lon="-1.7287550000000074">
        <ele>651.846</ele>
        <time>2022-08-25T08:38:30Z</time>
      </trkpt>
      <trkpt lat="42.741579000000115" lon="-1.7287820000000074">
        <ele>652.082</ele>
        <time>2022-08-25T08:38:32Z</time>
      </trkpt>
      <trkpt lat="42.74157000000012" lon="-1.7287940000000073">
        <ele>652.074</ele>
        <time>2022-08-25T08:38:33Z</time>
      </trkpt>
      <trkpt lat="42.74156000000011" lon="-1.7288060000000072">
        <ele>652.211</ele>
        <time>2022-08-25T08:38:34Z</time>
      </trkpt>
      <trkpt lat="42.74155200000011" lon="-1.728815000000007">
        <ele>652.454</ele>
        <time>2022-08-25T08:38:35Z</time>
      </trkpt>
      <trkpt lat="42.741543000000114" lon="-1.728827000000007">
        <ele>652.420</ele>
        <time>2022-08-25T08:38:36Z</time>
      </trkpt>
      <trkpt lat="42.741498000000114" lon="-1.728890000000007">
        <ele>652.811</ele>
        <time>2022-08-25T08:38:40Z</time>
      </trkpt>
      <trkpt lat="42.741486000000116" lon="-1.728908000000007">
        <ele>652.883</ele>
        <time>2022-08-25T08:38:41Z</time>
      </trkpt>
      <trkpt lat="42.74147900000012" lon="-1.728923000000007">
        <ele>653.025</ele>
        <time>2022-08-25T08:38:42Z</time>
      </trkpt>
      <trkpt lat="42.74147100000012" lon="-1.728935000000007">
        <ele>653.217</ele>
        <time>2022-08-25T08:38:43Z</time>
      </trkpt>
      <trkpt lat="42.741461000000115" lon="-1.728951000000007">
        <ele>653.409</ele>
        <time>2022-08-25T08:38:44Z</time>
      </trkpt>
      <trkpt lat="42.741452000000116" lon="-1.728968000000007">
        <ele>653.679</ele>
        <time>2022-08-25T08:38:45Z</time>
      </trkpt>
      <trkpt lat="42.74144200000011" lon="-1.728991000000007">
        <ele>653.489</ele>
        <time>2022-08-25T08:38:46Z</time>
      </trkpt>
      <trkpt lat="42.74143400000011" lon="-1.729010000000007">
        <ele>653.489</ele>
        <time>2022-08-25T08:38:47Z</time>
      </trkpt>
      <trkpt lat="42.741427000000115" lon="-1.729023000000007">
        <ele>653.895</ele>
        <time>2022-08-25T08:38:48Z</time>
      </trkpt>
      <trkpt lat="42.74141700000011" lon="-1.729040000000007">
        <ele>654.037</ele>
        <time>2022-08-25T08:38:49Z</time>
      </trkpt>
      <trkpt lat="42.74140800000011" lon="-1.729057000000007">
        <ele>654.044</ele>
        <time>2022-08-25T08:38:50Z</time>
      </trkpt>
      <trkpt lat="42.74139800000011" lon="-1.7290740000000069">
        <ele>654.057</ele>
        <time>2022-08-25T08:38:51Z</time>
      </trkpt>
      <trkpt lat="42.74138900000011" lon="-1.729098000000007">
        <ele>654.273</ele>
        <time>2022-08-25T08:38:52Z</time>
      </trkpt>
      <trkpt lat="42.741385000000115" lon="-1.7291150000000068">
        <ele>654.444</ele>
        <time>2022-08-25T08:38:53Z</time>
      </trkpt>
      <trkpt lat="42.74138000000011" lon="-1.729133000000007">
        <ele>654.462</ele>
        <time>2022-08-25T08:38:54Z</time>
      </trkpt>
      <trkpt lat="42.741377000000114" lon="-1.7291550000000069">
        <ele>654.483</ele>
        <time>2022-08-25T08:38:55Z</time>
      </trkpt>
      <trkpt lat="42.74137200000011" lon="-1.729168000000007">
        <ele>654.611</ele>
        <time>2022-08-25T08:38:56Z</time>
      </trkpt>
      <trkpt lat="42.741365000000116" lon="-1.729189000000007">
        <ele>654.809</ele>
        <time>2022-08-25T08:38:57Z</time>
      </trkpt>
      <trkpt lat="42.74135800000012" lon="-1.729203000000007">
        <ele>655.047</ele>
        <time>2022-08-25T08:38:58Z</time>
      </trkpt>
      <trkpt lat="42.741348000000116" lon="-1.729218000000007">
        <ele>655.237</ele>
        <time>2022-08-25T08:38:59Z</time>
      </trkpt>
      <trkpt lat="42.741334000000116" lon="-1.729234000000007">
        <ele>655.487</ele>
        <time>2022-08-25T08:39:00Z</time>
      </trkpt>
      <trkpt lat="42.74132500000012" lon="-1.729247000000007">
        <ele>655.463</ele>
        <time>2022-08-25T08:39:01Z</time>
      </trkpt>
      <trkpt lat="42.74131600000012" lon="-1.7292570000000071">
        <ele>655.625</ele>
        <time>2022-08-25T08:39:02Z</time>
      </trkpt>
      <trkpt lat="42.74130500000012" lon="-1.729269000000007">
        <ele>655.612</ele>
        <time>2022-08-25T08:39:03Z</time>
      </trkpt>
      <trkpt lat="42.74129400000012" lon="-1.729281000000007">
        <ele>655.845</ele>
        <time>2022-08-25T08:39:04Z</time>
      </trkpt>
      <trkpt lat="42.74128000000012" lon="-1.729294000000007">
        <ele>655.871</ele>
        <time>2022-08-25T08:39:05Z</time>
      </trkpt>
      <trkpt lat="42.741267000000114" lon="-1.729300000000007">
        <ele>655.822</ele>
        <time>2022-08-25T08:39:06Z</time>
      </trkpt>
      <trkpt lat="42.741255000000116" lon="-1.729305000000007">
        <ele>656.053</ele>
        <time>2022-08-25T08:39:07Z</time>
      </trkpt>
      <trkpt lat="42.74124600000012" lon="-1.729310000000007">
        <ele>656.204</ele>
        <time>2022-08-25T08:39:08Z</time>
      </trkpt>
      <trkpt lat="42.741233000000115" lon="-1.729312000000007">
        <ele>656.214</ele>
        <time>2022-08-25T08:39:09Z</time>
      </trkpt>
      <trkpt lat="42.74121700000011" lon="-1.729317000000007">
        <ele>656.409</ele>
        <time>2022-08-25T08:39:10Z</time>
      </trkpt>
      <trkpt lat="42.74120100000011" lon="-1.729321000000007">
        <ele>656.676</ele>
        <time>2022-08-25T08:39:11Z</time>
      </trkpt>
      <trkpt lat="42.74119000000011" lon="-1.729326000000007">
        <ele>656.816</ele>
        <time>2022-08-25T08:39:12Z</time>
      </trkpt>
      <trkpt lat="42.74118000000011" lon="-1.729335000000007">
        <ele>656.856</ele>
        <time>2022-08-25T08:39:13Z</time>
      </trkpt>
      <trkpt lat="42.7411700000001" lon="-1.729342000000007">
        <ele>657.022</ele>
        <time>2022-08-25T08:39:14Z</time>
      </trkpt>
      <trkpt lat="42.7411560000001" lon="-1.729347000000007">
        <ele>657.244</ele>
        <time>2022-08-25T08:39:15Z</time>
      </trkpt>
      <trkpt lat="42.741144000000105" lon="-1.729348000000007">
        <ele>657.231</ele>
        <time>2022-08-25T08:39:16Z</time>
      </trkpt>
      <trkpt lat="42.741136000000104" lon="-1.729351000000007">
        <ele>657.424</ele>
        <time>2022-08-25T08:39:17Z</time>
      </trkpt>
      <trkpt lat="42.741124000000106" lon="-1.729361000000007">
        <ele>657.670</ele>
        <time>2022-08-25T08:39:18Z</time>
      </trkpt>
      <trkpt lat="42.741108000000104" lon="-1.729372000000007">
        <ele>657.651</ele>
        <time>2022-08-25T08:39:19Z</time>
      </trkpt>
      <trkpt lat="42.741096000000105" lon="-1.729377000000007">
        <ele>657.889</ele>
        <time>2022-08-25T08:39:20Z</time>
      </trkpt>
      <trkpt lat="42.741085000000105" lon="-1.729380000000007">
        <ele>658.006</ele>
        <time>2022-08-25T08:39:21Z</time>
      </trkpt>
      <trkpt lat="42.74107300000011" lon="-1.729383000000007">
        <ele>658.026</ele>
        <time>2022-08-25T08:39:22Z</time>
      </trkpt>
      <trkpt lat="42.741062000000106" lon="-1.729388000000007">
        <ele>658.209</ele>
        <time>2022-08-25T08:39:23Z</time>
      </trkpt>
      <trkpt lat="42.74105000000011" lon="-1.729397000000007">
        <ele>658.499</ele>
        <time>2022-08-25T08:39:24Z</time>
      </trkpt>
      <trkpt lat="42.74103800000011" lon="-1.729402000000007">
        <ele>658.439</ele>
        <time>2022-08-25T08:39:25Z</time>
      </trkpt>
      <trkpt lat="42.74102700000011" lon="-1.729408000000007">
        <ele>658.659</ele>
        <time>2022-08-25T08:39:26Z</time>
      </trkpt>
      <trkpt lat="42.74101900000011" lon="-1.729411000000007">
        <ele>658.685</ele>
        <time>2022-08-25T08:39:27Z</time>
      </trkpt>
      <trkpt lat="42.741006000000105" lon="-1.729416000000007">
        <ele>658.647</ele>
        <time>2022-08-25T08:39:28Z</time>
      </trkpt>
      <trkpt lat="42.74099400000011" lon="-1.729424000000007">
        <ele>658.634</ele>
        <time>2022-08-25T08:39:29Z</time>
      </trkpt>
      <trkpt lat="42.74099000000011" lon="-1.729431000000007">
        <ele>658.677</ele>
        <time>2022-08-25T08:39:30Z</time>
      </trkpt>
      <trkpt lat="42.74098100000011" lon="-1.729436000000007">
        <ele>658.893</ele>
        <time>2022-08-25T08:39:31Z</time>
      </trkpt>
      <trkpt lat="42.74096800000011" lon="-1.7294460000000071">
        <ele>658.814</ele>
        <time>2022-08-25T08:39:32Z</time>
      </trkpt>
      <trkpt lat="42.74095700000011" lon="-1.7294530000000072">
        <ele>659.067</ele>
        <time>2022-08-25T08:39:33Z</time>
      </trkpt>
      <trkpt lat="42.740944000000106" lon="-1.7294620000000072">
        <ele>659.081</ele>
        <time>2022-08-25T08:39:34Z</time>
      </trkpt>
      <trkpt lat="42.7409310000001" lon="-1.7294690000000073">
        <ele>659.219</ele>
        <time>2022-08-25T08:39:35Z</time>
      </trkpt>
      <trkpt lat="42.7409180000001" lon="-1.7294730000000071">
        <ele>659.209</ele>
        <time>2022-08-25T08:39:36Z</time>
      </trkpt>
      <trkpt lat="42.7409080000001" lon="-1.7294750000000072">
        <ele>659.267</ele>
        <time>2022-08-25T08:39:37Z</time>
      </trkpt>
      <trkpt lat="42.7408910000001" lon="-1.7294800000000072">
        <ele>659.427</ele>
        <time>2022-08-25T08:39:38Z</time>
      </trkpt>
      <trkpt lat="42.740878000000095" lon="-1.7294840000000071">
        <ele>659.827</ele>
        <time>2022-08-25T08:39:39Z</time>
      </trkpt>
      <trkpt lat="42.74086500000009" lon="-1.729488000000007">
        <ele>660.083</ele>
        <time>2022-08-25T08:39:40Z</time>
      </trkpt>
      <trkpt lat="42.74085400000009" lon="-1.729491000000007">
        <ele>660.265</ele>
        <time>2022-08-25T08:39:41Z</time>
      </trkpt>
      <trkpt lat="42.74084200000009" lon="-1.729496000000007">
        <ele>660.492</ele>
        <time>2022-08-25T08:39:42Z</time>
      </trkpt>
      <trkpt lat="42.74082900000009" lon="-1.7295030000000071">
        <ele>660.445</ele>
        <time>2022-08-25T08:39:43Z</time>
      </trkpt>
      <trkpt lat="42.74081400000009" lon="-1.7295130000000072">
        <ele>660.651</ele>
        <time>2022-08-25T08:39:44Z</time>
      </trkpt>
      <trkpt lat="42.74080300000009" lon="-1.7295230000000072">
        <ele>661.092</ele>
        <time>2022-08-25T08:39:45Z</time>
      </trkpt>
      <trkpt lat="42.74079300000009" lon="-1.7295280000000073">
        <ele>661.251</ele>
        <time>2022-08-25T08:39:46Z</time>
      </trkpt>
      <trkpt lat="42.74078100000009" lon="-1.7295360000000073">
        <ele>661.401</ele>
        <time>2022-08-25T08:39:47Z</time>
      </trkpt>
      <trkpt lat="42.74076900000009" lon="-1.7295430000000074">
        <ele>661.611</ele>
        <time>2022-08-25T08:39:48Z</time>
      </trkpt>
      <trkpt lat="42.740754000000095" lon="-1.7295510000000074">
        <ele>661.809</ele>
        <time>2022-08-25T08:39:49Z</time>
      </trkpt>
      <trkpt lat="42.740740000000095" lon="-1.7295590000000074">
        <ele>662.236</ele>
        <time>2022-08-25T08:39:50Z</time>
      </trkpt>
      <trkpt lat="42.7407280000001" lon="-1.7295640000000074">
        <ele>662.486</ele>
        <time>2022-08-25T08:39:51Z</time>
      </trkpt>
      <trkpt lat="42.740715000000094" lon="-1.7295670000000074">
        <ele>662.686</ele>
        <time>2022-08-25T08:39:52Z</time>
      </trkpt>
      <trkpt lat="42.740703000000096" lon="-1.7295710000000073">
        <ele>662.692</ele>
        <time>2022-08-25T08:39:53Z</time>
      </trkpt>
      <trkpt lat="42.740692000000095" lon="-1.7295780000000074">
        <ele>662.834</ele>
        <time>2022-08-25T08:39:54Z</time>
      </trkpt>
      <trkpt lat="42.74068200000009" lon="-1.7295860000000074">
        <ele>663.021</ele>
        <time>2022-08-25T08:39:55Z</time>
      </trkpt>
      <trkpt lat="42.74066900000009" lon="-1.7295890000000074">
        <ele>663.284</ele>
        <time>2022-08-25T08:39:56Z</time>
      </trkpt>
      <trkpt lat="42.74065500000009" lon="-1.7295900000000073">
        <ele>663.240</ele>
        <time>2022-08-25T08:39:57Z</time>
      </trkpt>
      <trkpt lat="42.74064300000009" lon="-1.7295870000000073">
        <ele>663.471</ele>
        <time>2022-08-25T08:39:58Z</time>
      </trkpt>
      <trkpt lat="42.74063200000009" lon="-1.7295830000000074">
        <ele>663.819</ele>
        <time>2022-08-25T08:39:59Z</time>
      </trkpt>
      <trkpt lat="42.74061800000009" lon="-1.7295800000000074">
        <ele>664.009</ele>
        <time>2022-08-25T08:40:00Z</time>
      </trkpt>
      <trkpt lat="42.74060600000009" lon="-1.7295810000000074">
        <ele>664.219</ele>
        <time>2022-08-25T08:40:01Z</time>
      </trkpt>
      <trkpt lat="42.740588000000095" lon="-1.7295850000000073">
        <ele>664.209</ele>
        <time>2022-08-25T08:40:02Z</time>
      </trkpt>
      <trkpt lat="42.740568000000096" lon="-1.7295980000000073">
        <ele>664.472</ele>
        <time>2022-08-25T08:40:03Z</time>
      </trkpt>
      <trkpt lat="42.7405560000001" lon="-1.7296130000000074">
        <ele>664.462</ele>
        <time>2022-08-25T08:40:04Z</time>
      </trkpt>
      <trkpt lat="42.7405470000001" lon="-1.7296250000000073">
        <ele>664.462</ele>
        <time>2022-08-25T08:40:05Z</time>
      </trkpt>
      <trkpt lat="42.7405360000001" lon="-1.7296440000000073">
        <ele>664.478</ele>
        <time>2022-08-25T08:40:06Z</time>
      </trkpt>
      <trkpt lat="42.7405240000001" lon="-1.7296660000000073">
        <ele>664.410</ele>
        <time>2022-08-25T08:40:07Z</time>
      </trkpt>
      <trkpt lat="42.7405140000001" lon="-1.7296820000000073">
        <ele>664.477</ele>
        <time>2022-08-25T08:40:08Z</time>
      </trkpt>
      <trkpt lat="42.7405050000001" lon="-1.7297000000000073">
        <ele>664.680</ele>
        <time>2022-08-25T08:40:09Z</time>
      </trkpt>
      <trkpt lat="42.7404980000001" lon="-1.7297190000000073">
        <ele>664.646</ele>
        <time>2022-08-25T08:40:10Z</time>
      </trkpt>
      <trkpt lat="42.7404890000001" lon="-1.7297430000000074">
        <ele>664.617</ele>
        <time>2022-08-25T08:40:11Z</time>
      </trkpt>
      <trkpt lat="42.7404810000001" lon="-1.7297650000000073">
        <ele>664.672</ele>
        <time>2022-08-25T08:40:12Z</time>
      </trkpt>
      <trkpt lat="42.7404730000001" lon="-1.7297880000000074">
        <ele>664.613</ele>
        <time>2022-08-25T08:40:13Z</time>
      </trkpt>
      <trkpt lat="42.740466000000104" lon="-1.7298070000000074">
        <ele>664.614</ele>
        <time>2022-08-25T08:40:14Z</time>
      </trkpt>
      <trkpt lat="42.740460000000105" lon="-1.7298280000000075">
        <ele>664.809</ele>
        <time>2022-08-25T08:40:15Z</time>
      </trkpt>
      <trkpt lat="42.74045300000011" lon="-1.7298510000000076">
        <ele>664.878</ele>
        <time>2022-08-25T08:40:16Z</time>
      </trkpt>
      <trkpt lat="42.74045000000011" lon="-1.7298820000000075">
        <ele>664.888</ele>
        <time>2022-08-25T08:40:17Z</time>
      </trkpt>
      <trkpt lat="42.74045600000011" lon="-1.7299100000000074">
        <ele>664.838</ele>
        <time>2022-08-25T08:40:18Z</time>
      </trkpt>
      <trkpt lat="42.74046400000011" lon="-1.7299300000000073">
        <ele>664.824</ele>
        <time>2022-08-25T08:40:19Z</time>
      </trkpt>
      <trkpt lat="42.74047400000011" lon="-1.7299530000000074">
        <ele>665.016</ele>
        <time>2022-08-25T08:40:20Z</time>
      </trkpt>
      <trkpt lat="42.740487000000115" lon="-1.7299770000000074">
        <ele>665.093</ele>
        <time>2022-08-25T08:40:21Z</time>
      </trkpt>
      <trkpt lat="42.74051100000012" lon="-1.7300750000000074">
        <ele>665.076</ele>
        <time>2022-08-25T08:40:25Z</time>
      </trkpt>
      <trkpt lat="42.74051000000012" lon="-1.7301370000000074">
        <ele>665.292</ele>
        <time>2022-08-25T08:40:27Z</time>
      </trkpt>
      <trkpt lat="42.74051900000012" lon="-1.7302140000000075">
        <ele>665.473</ele>
        <time>2022-08-25T08:40:30Z</time>
      </trkpt>
      <trkpt lat="42.74052300000012" lon="-1.7302390000000074">
        <ele>665.456</ele>
        <time>2022-08-25T08:40:31Z</time>
      </trkpt>
      <trkpt lat="42.74052500000012" lon="-1.7302630000000074">
        <ele>665.659</ele>
        <time>2022-08-25T08:40:32Z</time>
      </trkpt>
      <trkpt lat="42.74052000000012" lon="-1.7303690000000074">
        <ele>665.614</ele>
        <time>2022-08-25T08:40:36Z</time>
      </trkpt>
      <trkpt lat="42.74052000000012" lon="-1.7303850000000074">
        <ele>665.609</ele>
        <time>2022-08-25T08:40:37Z</time>
      </trkpt>
      <trkpt lat="42.74052000000012" lon="-1.7304100000000073">
        <ele>665.626</ele>
        <time>2022-08-25T08:40:38Z</time>
      </trkpt>
      <trkpt lat="42.74051900000012" lon="-1.7304250000000074">
        <ele>665.626</ele>
        <time>2022-08-25T08:40:39Z</time>
      </trkpt>
      <trkpt lat="42.74051500000012" lon="-1.7304450000000073">
        <ele>665.616</ele>
        <time>2022-08-25T08:40:40Z</time>
      </trkpt>
      <trkpt lat="42.74051200000012" lon="-1.7304680000000074">
        <ele>666.072</ele>
        <time>2022-08-25T08:40:41Z</time>
      </trkpt>
      <trkpt lat="42.740506000000124" lon="-1.7304860000000075">
        <ele>666.464</ele>
        <time>2022-08-25T08:40:42Z</time>
      </trkpt>
      <trkpt lat="42.740500000000125" lon="-1.7305040000000076">
        <ele>666.821</ele>
        <time>2022-08-25T08:40:43Z</time>
      </trkpt>
      <trkpt lat="42.74049600000013" lon="-1.7305160000000075">
        <ele>667.474</ele>
        <time>2022-08-25T08:40:44Z</time>
      </trkpt>
      <trkpt lat="42.74049200000013" lon="-1.7305360000000074">
        <ele>667.620</ele>
        <time>2022-08-25T08:40:45Z</time>
      </trkpt>
      <trkpt lat="42.74048900000013" lon="-1.7305520000000074">
        <ele>668.281</ele>
        <time>2022-08-25T08:40:46Z</time>
      </trkpt>
      <trkpt lat="42.74048600000013" lon="-1.7305700000000075">
        <ele>668.475</ele>
        <time>2022-08-25T08:40:47Z</time>
      </trkpt>
      <trkpt lat="42.74048300000013" lon="-1.7305820000000074">
        <ele>668.828</ele>
        <time>2022-08-25T08:40:48Z</time>
      </trkpt>
      <trkpt lat="42.740479000000136" lon="-1.7306000000000075">
        <ele>668.820</ele>
        <time>2022-08-25T08:40:49Z</time>
      </trkpt>
      <trkpt lat="42.74047500000014" lon="-1.7306180000000075">
        <ele>669.209</ele>
        <time>2022-08-25T08:40:50Z</time>
      </trkpt>
      <trkpt lat="42.74047200000014" lon="-1.7306350000000075">
        <ele>669.418</ele>
        <time>2022-08-25T08:40:51Z</time>
      </trkpt>
      <trkpt lat="42.74047500000014" lon="-1.7306470000000074">
        <ele>669.448</ele>
        <time>2022-08-25T08:40:52Z</time>
      </trkpt>
      <trkpt lat="42.740476000000136" lon="-1.7306630000000074">
        <ele>669.618</ele>
        <time>2022-08-25T08:40:53Z</time>
      </trkpt>
      <trkpt lat="42.740479000000136" lon="-1.7306790000000074">
        <ele>669.634</ele>
        <time>2022-08-25T08:40:54Z</time>
      </trkpt>
      <trkpt lat="42.740482000000135" lon="-1.7306940000000075">
        <ele>670.036</ele>
        <time>2022-08-25T08:40:55Z</time>
      </trkpt>
      <trkpt lat="42.74048000000013" lon="-1.7307090000000076">
        <ele>670.283</ele>
        <time>2022-08-25T08:40:56Z</time>
      </trkpt>
      <trkpt lat="42.740479000000136" lon="-1.7307270000000077">
        <ele>670.276</ele>
        <time>2022-08-25T08:40:57Z</time>
      </trkpt>
      <trkpt lat="42.74048000000013" lon="-1.7307440000000076">
        <ele>670.452</ele>
        <time>2022-08-25T08:40:58Z</time>
      </trkpt>
      <trkpt lat="42.740482000000135" lon="-1.7307630000000076">
        <ele>670.423</ele>
        <time>2022-08-25T08:40:59Z</time>
      </trkpt>
      <trkpt lat="42.74048400000014" lon="-1.7307820000000076">
        <ele>670.682</ele>
        <time>2022-08-25T08:41:00Z</time>
      </trkpt>
      <trkpt lat="42.740482000000135" lon="-1.7308000000000077">
        <ele>670.643</ele>
        <time>2022-08-25T08:41:01Z</time>
      </trkpt>
      <trkpt lat="42.740482000000135" lon="-1.7308190000000077">
        <ele>670.817</ele>
        <time>2022-08-25T08:41:02Z</time>
      </trkpt>
      <trkpt lat="42.74048000000013" lon="-1.7308410000000076">
        <ele>671.009</ele>
        <time>2022-08-25T08:41:03Z</time>
      </trkpt>
      <trkpt lat="42.74047700000013" lon="-1.7308620000000077">
        <ele>671.079</ele>
        <time>2022-08-25T08:41:04Z</time>
      </trkpt>
      <trkpt lat="42.74047000000014" lon="-1.7308850000000078">
        <ele>671.269</ele>
        <time>2022-08-25T08:41:05Z</time>
      </trkpt>
      <trkpt lat="42.74046300000014" lon="-1.7309070000000077">
        <ele>671.269</ele>
        <time>2022-08-25T08:41:06Z</time>
      </trkpt>
      <trkpt lat="42.74045700000014" lon="-1.7309300000000079">
        <ele>671.495</ele>
        <time>2022-08-25T08:41:07Z</time>
      </trkpt>
      <trkpt lat="42.740450000000145" lon="-1.7309520000000078">
        <ele>671.437</ele>
        <time>2022-08-25T08:41:08Z</time>
      </trkpt>
      <trkpt lat="42.740442000000144" lon="-1.7309720000000077">
        <ele>671.644</ele>
        <time>2022-08-25T08:41:09Z</time>
      </trkpt>
      <trkpt lat="42.74043800000015" lon="-1.7309920000000076">
        <ele>671.877</ele>
        <time>2022-08-25T08:41:10Z</time>
      </trkpt>
      <trkpt lat="42.74043200000015" lon="-1.7310100000000077">
        <ele>671.853</ele>
        <time>2022-08-25T08:41:11Z</time>
      </trkpt>
      <trkpt lat="42.740427000000146" lon="-1.7310190000000076">
        <ele>672.064</ele>
        <time>2022-08-25T08:41:12Z</time>
      </trkpt>
      <trkpt lat="42.74042000000015" lon="-1.7310300000000076">
        <ele>672.226</ele>
        <time>2022-08-25T08:41:13Z</time>
      </trkpt>
      <trkpt lat="42.74041200000015" lon="-1.7310420000000075">
        <ele>672.447</ele>
        <time>2022-08-25T08:41:14Z</time>
      </trkpt>
      <trkpt lat="42.74040500000015" lon="-1.7310550000000076">
        <ele>672.611</ele>
        <time>2022-08-25T08:41:15Z</time>
      </trkpt>
      <trkpt lat="42.74039900000015" lon="-1.7310690000000075">
        <ele>673.209</ele>
        <time>2022-08-25T08:41:16Z</time>
      </trkpt>
      <trkpt lat="42.740393000000154" lon="-1.7310780000000074">
        <ele>673.483</ele>
        <time>2022-08-25T08:41:17Z</time>
      </trkpt>
      <trkpt lat="42.74038500000015" lon="-1.7310880000000075">
        <ele>673.693</ele>
        <time>2022-08-25T08:41:18Z</time>
      </trkpt>
      <trkpt lat="42.740379000000154" lon="-1.7311000000000074">
        <ele>673.823</ele>
        <time>2022-08-25T08:41:19Z</time>
      </trkpt>
      <trkpt lat="42.74037500000016" lon="-1.7311140000000074">
        <ele>673.859</ele>
        <time>2022-08-25T08:41:20Z</time>
      </trkpt>
      <trkpt lat="42.74037100000016" lon="-1.7311220000000074">
        <ele>674.251</ele>
        <time>2022-08-25T08:41:21Z</time>
      </trkpt>
      <trkpt lat="42.74036400000016" lon="-1.7311350000000074">
        <ele>674.428</ele>
        <time>2022-08-25T08:41:22Z</time>
      </trkpt>
      <trkpt lat="42.74035700000017" lon="-1.7311480000000075">
        <ele>674.821</ele>
        <time>2022-08-25T08:41:23Z</time>
      </trkpt>
      <trkpt lat="42.740349000000165" lon="-1.7311590000000074">
        <ele>675.027</ele>
        <time>2022-08-25T08:41:24Z</time>
      </trkpt>
      <trkpt lat="42.740338000000165" lon="-1.7311700000000074">
        <ele>675.268</ele>
        <time>2022-08-25T08:41:25Z</time>
      </trkpt>
      <trkpt lat="42.74032800000016" lon="-1.7311750000000075">
        <ele>675.452</ele>
        <time>2022-08-25T08:41:26Z</time>
      </trkpt>
      <trkpt lat="42.74031900000016" lon="-1.7311850000000075">
        <ele>675.653</ele>
        <time>2022-08-25T08:41:27Z</time>
      </trkpt>
      <trkpt lat="42.740312000000166" lon="-1.7311950000000076">
        <ele>675.808</ele>
        <time>2022-08-25T08:41:28Z</time>
      </trkpt>
      <trkpt lat="42.740304000000165" lon="-1.7312070000000075">
        <ele>675.809</ele>
        <time>2022-08-25T08:41:29Z</time>
      </trkpt>
      <trkpt lat="42.74029500000017" lon="-1.7312210000000074">
        <ele>676.226</ele>
        <time>2022-08-25T08:41:30Z</time>
      </trkpt>
      <trkpt lat="42.74028600000017" lon="-1.7312320000000074">
        <ele>676.646</ele>
        <time>2022-08-25T08:41:31Z</time>
      </trkpt>
      <trkpt lat="42.74027700000017" lon="-1.7312430000000074">
        <ele>676.886</ele>
        <time>2022-08-25T08:41:32Z</time>
      </trkpt>
      <trkpt lat="42.74026900000017" lon="-1.7312540000000074">
        <ele>677.252</ele>
        <time>2022-08-25T08:41:33Z</time>
      </trkpt>
      <trkpt lat="42.74026300000017" lon="-1.7312660000000073">
        <ele>677.484</ele>
        <time>2022-08-25T08:41:34Z</time>
      </trkpt>
      <trkpt lat="42.74026100000017" lon="-1.7312780000000072">
        <ele>677.831</ele>
        <time>2022-08-25T08:41:35Z</time>
      </trkpt>
      <trkpt lat="42.74025800000017" lon="-1.7312910000000072">
        <ele>677.854</ele>
        <time>2022-08-25T08:41:36Z</time>
      </trkpt>
      <trkpt lat="42.740256000000166" lon="-1.7313040000000073">
        <ele>677.810</ele>
        <time>2022-08-25T08:41:37Z</time>
      </trkpt>
      <trkpt lat="42.74025500000017" lon="-1.7313160000000072">
        <ele>678.041</ele>
        <time>2022-08-25T08:41:38Z</time>
      </trkpt>
      <trkpt lat="42.74024900000017" lon="-1.7313300000000071">
        <ele>678.088</ele>
        <time>2022-08-25T08:41:39Z</time>
      </trkpt>
      <trkpt lat="42.74024200000017" lon="-1.7313400000000072">
        <ele>678.224</ele>
        <time>2022-08-25T08:41:40Z</time>
      </trkpt>
      <trkpt lat="42.74023100000017" lon="-1.731352000000007">
        <ele>678.226</ele>
        <time>2022-08-25T08:41:41Z</time>
      </trkpt>
      <trkpt lat="42.740224000000175" lon="-1.7313600000000071">
        <ele>678.409</ele>
        <time>2022-08-25T08:41:42Z</time>
      </trkpt>
      <trkpt lat="42.74021200000018" lon="-1.7313700000000072">
        <ele>678.679</ele>
        <time>2022-08-25T08:41:43Z</time>
      </trkpt>
      <trkpt lat="42.74020000000018" lon="-1.7313800000000072">
        <ele>678.879</ele>
        <time>2022-08-25T08:41:44Z</time>
      </trkpt>
      <trkpt lat="42.74018900000018" lon="-1.7313860000000072">
        <ele>678.889</ele>
        <time>2022-08-25T08:41:45Z</time>
      </trkpt>
      <trkpt lat="42.740179000000175" lon="-1.7313920000000071">
        <ele>679.085</ele>
        <time>2022-08-25T08:41:46Z</time>
      </trkpt>
      <trkpt lat="42.740173000000176" lon="-1.7313990000000072">
        <ele>679.037</ele>
        <time>2022-08-25T08:41:47Z</time>
      </trkpt>
      <trkpt lat="42.74016400000018" lon="-1.7314090000000073">
        <ele>679.254</ele>
        <time>2022-08-25T08:41:48Z</time>
      </trkpt>
      <trkpt lat="42.74015500000018" lon="-1.7314250000000073">
        <ele>679.217</ele>
        <time>2022-08-25T08:41:49Z</time>
      </trkpt>
      <trkpt lat="42.74014300000018" lon="-1.7314390000000073">
        <ele>679.263</ele>
        <time>2022-08-25T08:41:50Z</time>
      </trkpt>
      <trkpt lat="42.74013000000018" lon="-1.7314520000000073">
        <ele>679.294</ele>
        <time>2022-08-25T08:41:51Z</time>
      </trkpt>
      <trkpt lat="42.74012200000018" lon="-1.7314600000000073">
        <ele>679.484</ele>
        <time>2022-08-25T08:41:52Z</time>
      </trkpt>
      <trkpt lat="42.74011500000018" lon="-1.7314740000000073">
        <ele>679.407</ele>
        <time>2022-08-25T08:41:53Z</time>
      </trkpt>
      <trkpt lat="42.74010600000018" lon="-1.7314890000000074">
        <ele>679.417</ele>
        <time>2022-08-25T08:41:54Z</time>
      </trkpt>
      <trkpt lat="42.74009700000018" lon="-1.7315040000000075">
        <ele>679.409</ele>
        <time>2022-08-25T08:41:55Z</time>
      </trkpt>
      <trkpt lat="42.74009200000018" lon="-1.7315160000000074">
        <ele>679.619</ele>
        <time>2022-08-25T08:41:56Z</time>
      </trkpt>
      <trkpt lat="42.740085000000185" lon="-1.7315290000000074">
        <ele>679.639</ele>
        <time>2022-08-25T08:41:57Z</time>
      </trkpt>
      <trkpt lat="42.74008100000019" lon="-1.7315430000000074">
        <ele>679.649</ele>
        <time>2022-08-25T08:41:58Z</time>
      </trkpt>
      <trkpt lat="42.74007300000019" lon="-1.7315530000000074">
        <ele>679.865</ele>
        <time>2022-08-25T08:41:59Z</time>
      </trkpt>
      <trkpt lat="42.74006700000019" lon="-1.7315640000000074">
        <ele>679.837</ele>
        <time>2022-08-25T08:42:00Z</time>
      </trkpt>
      <trkpt lat="42.74005900000019" lon="-1.7315730000000074">
        <ele>679.894</ele>
        <time>2022-08-25T08:42:01Z</time>
      </trkpt>
      <trkpt lat="42.740049000000184" lon="-1.7315880000000075">
        <ele>679.837</ele>
        <time>2022-08-25T08:42:02Z</time>
      </trkpt>
      <trkpt lat="42.74004100000018" lon="-1.7316070000000074">
        <ele>680.033</ele>
        <time>2022-08-25T08:42:03Z</time>
      </trkpt>
      <trkpt lat="42.740035000000184" lon="-1.7316240000000074">
        <ele>680.094</ele>
        <time>2022-08-25T08:42:04Z</time>
      </trkpt>
      <trkpt lat="42.740029000000185" lon="-1.7316480000000074">
        <ele>680.092</ele>
        <time>2022-08-25T08:42:05Z</time>
      </trkpt>
      <trkpt lat="42.73998000000019" lon="-1.7317440000000075">
        <ele>680.073</ele>
        <time>2022-08-25T08:42:09Z</time>
      </trkpt>
      <trkpt lat="42.73996500000019" lon="-1.7317740000000075">
        <ele>679.820</ele>
        <time>2022-08-25T08:42:10Z</time>
      </trkpt>
      <trkpt lat="42.73995700000019" lon="-1.7317880000000074">
        <ele>679.609</ele>
        <time>2022-08-25T08:42:11Z</time>
      </trkpt>
      <trkpt lat="42.73994500000019" lon="-1.7318040000000074">
        <ele>679.440</ele>
        <time>2022-08-25T08:42:12Z</time>
      </trkpt>
      <trkpt lat="42.73993000000019" lon="-1.7318170000000075">
        <ele>679.070</ele>
        <time>2022-08-25T08:42:13Z</time>
      </trkpt>
      <trkpt lat="42.739918000000195" lon="-1.7318230000000074">
        <ele>678.820</ele>
        <time>2022-08-25T08:42:14Z</time>
      </trkpt>
      <trkpt lat="42.7399060000002" lon="-1.7318280000000075">
        <ele>678.816</ele>
        <time>2022-08-25T08:42:15Z</time>
      </trkpt>
      <trkpt lat="42.739898000000196" lon="-1.7318320000000074">
        <ele>678.878</ele>
        <time>2022-08-25T08:42:16Z</time>
      </trkpt>
      <trkpt lat="42.739884000000195" lon="-1.7318380000000073">
        <ele>678.835</ele>
        <time>2022-08-25T08:42:17Z</time>
      </trkpt>
      <trkpt lat="42.7398130000002" lon="-1.7318870000000073">
        <ele>679.668</ele>
        <time>2022-08-25T08:42:23Z</time>
      </trkpt>
      <trkpt lat="42.7398040000002" lon="-1.7318950000000073">
        <ele>679.454</ele>
        <time>2022-08-25T08:42:24Z</time>
      </trkpt>
      <trkpt lat="42.7397960000002" lon="-1.7319010000000072">
        <ele>679.465</ele>
        <time>2022-08-25T08:42:25Z</time>
      </trkpt>
      <trkpt lat="42.739755000000194" lon="-1.7319350000000073">
        <ele>679.881</ele>
        <time>2022-08-25T08:42:29Z</time>
      </trkpt>
      <trkpt lat="42.739749000000195" lon="-1.7319440000000073">
        <ele>679.861</ele>
        <time>2022-08-25T08:42:30Z</time>
      </trkpt>
      <trkpt lat="42.7396750000002" lon="-1.7320550000000072">
        <ele>680.417</ele>
        <time>2022-08-25T08:42:38Z</time>
      </trkpt>
      <trkpt lat="42.7396690000002" lon="-1.7320650000000073">
        <ele>680.609</ele>
        <time>2022-08-25T08:42:39Z</time>
      </trkpt>
      <trkpt lat="42.7396630000002" lon="-1.7320800000000074">
        <ele>680.659</ele>
        <time>2022-08-25T08:42:40Z</time>
      </trkpt>
      <trkpt lat="42.739653000000196" lon="-1.7321020000000074">
        <ele>680.839</ele>
        <time>2022-08-25T08:42:41Z</time>
      </trkpt>
      <trkpt lat="42.7396460000002" lon="-1.7321180000000074">
        <ele>681.049</ele>
        <time>2022-08-25T08:42:42Z</time>
      </trkpt>
      <trkpt lat="42.7396440000002" lon="-1.7321320000000073">
        <ele>681.065</ele>
        <time>2022-08-25T08:42:43Z</time>
      </trkpt>
      <trkpt lat="42.739639000000196" lon="-1.7321440000000072">
        <ele>681.247</ele>
        <time>2022-08-25T08:42:44Z</time>
      </trkpt>
      <trkpt lat="42.739637000000194" lon="-1.7321560000000071">
        <ele>681.414</ele>
        <time>2022-08-25T08:42:45Z</time>
      </trkpt>
      <trkpt lat="42.73962900000019" lon="-1.7321740000000072">
        <ele>681.677</ele>
        <time>2022-08-25T08:42:46Z</time>
      </trkpt>
      <trkpt lat="42.739620000000194" lon="-1.7322000000000073">
        <ele>681.853</ele>
        <time>2022-08-25T08:42:48Z</time>
      </trkpt>
      <trkpt lat="42.7396190000002" lon="-1.7322110000000073">
        <ele>681.884</ele>
        <time>2022-08-25T08:42:49Z</time>
      </trkpt>
      <trkpt lat="42.7396180000002" lon="-1.7322240000000073">
        <ele>682.037</ele>
        <time>2022-08-25T08:42:50Z</time>
      </trkpt>
      <trkpt lat="42.7396140000002" lon="-1.7322360000000072">
        <ele>682.049</ele>
        <time>2022-08-25T08:42:51Z</time>
      </trkpt>
      <trkpt lat="42.7396080000002" lon="-1.7322500000000072">
        <ele>682.013</ele>
        <time>2022-08-25T08:42:52Z</time>
      </trkpt>
      <trkpt lat="42.7395970000002" lon="-1.7322750000000071">
        <ele>682.209</ele>
        <time>2022-08-25T08:42:54Z</time>
      </trkpt>
      <trkpt lat="42.7395840000002" lon="-1.7323260000000071">
        <ele>682.424</ele>
        <time>2022-08-25T08:42:57Z</time>
      </trkpt>
      <trkpt lat="42.7395790000002" lon="-1.7323520000000072">
        <ele>682.884</ele>
        <time>2022-08-25T08:42:59Z</time>
      </trkpt>
      <trkpt lat="42.7395650000002" lon="-1.7323980000000072">
        <ele>683.024</ele>
        <time>2022-08-25T08:43:02Z</time>
      </trkpt>
      <trkpt lat="42.739541000000195" lon="-1.7324730000000073">
        <ele>683.280</ele>
        <time>2022-08-25T08:43:07Z</time>
      </trkpt>
      <trkpt lat="42.739538000000195" lon="-1.7324920000000072">
        <ele>683.442</ele>
        <time>2022-08-25T08:43:08Z</time>
      </trkpt>
      <trkpt lat="42.739529000000196" lon="-1.7325230000000071">
        <ele>683.449</ele>
        <time>2022-08-25T08:43:10Z</time>
      </trkpt>
      <trkpt lat="42.739521000000195" lon="-1.7325380000000072">
        <ele>683.632</ele>
        <time>2022-08-25T08:43:11Z</time>
      </trkpt>
      <trkpt lat="42.7395030000002" lon="-1.7325970000000073">
        <ele>684.038</ele>
        <time>2022-08-25T08:43:15Z</time>
      </trkpt>
      <trkpt lat="42.739501000000196" lon="-1.7326090000000072">
        <ele>684.089</ele>
        <time>2022-08-25T08:43:16Z</time>
      </trkpt>
      <trkpt lat="42.7394640000002" lon="-1.7327120000000071">
        <ele>684.611</ele>
        <time>2022-08-25T08:43:22Z</time>
      </trkpt>
      <trkpt lat="42.7394600000002" lon="-1.7327350000000072">
        <ele>684.821</ele>
        <time>2022-08-25T08:43:23Z</time>
      </trkpt>
      <trkpt lat="42.7394260000002" lon="-1.7328250000000072">
        <ele>685.403</ele>
        <time>2022-08-25T08:43:28Z</time>
      </trkpt>
      <trkpt lat="42.7394080000002" lon="-1.7328630000000071">
        <ele>685.609</ele>
        <time>2022-08-25T08:43:30Z</time>
      </trkpt>
      <trkpt lat="42.739402000000204" lon="-1.7328780000000072">
        <ele>686.032</ele>
        <time>2022-08-25T08:43:31Z</time>
      </trkpt>
      <trkpt lat="42.7393970000002" lon="-1.7328900000000071">
        <ele>686.032</ele>
        <time>2022-08-25T08:43:32Z</time>
      </trkpt>
      <trkpt lat="42.7393920000002" lon="-1.7329050000000072">
        <ele>686.462</ele>
        <time>2022-08-25T08:43:33Z</time>
      </trkpt>
      <trkpt lat="42.739385000000205" lon="-1.7329240000000072">
        <ele>686.628</ele>
        <time>2022-08-25T08:43:34Z</time>
      </trkpt>
      <trkpt lat="42.7393800000002" lon="-1.7329390000000073">
        <ele>686.870</ele>
        <time>2022-08-25T08:43:35Z</time>
      </trkpt>
      <trkpt lat="42.739371000000205" lon="-1.7329560000000073">
        <ele>687.067</ele>
        <time>2022-08-25T08:43:36Z</time>
      </trkpt>
      <trkpt lat="42.73936700000021" lon="-1.7329680000000072">
        <ele>687.420</ele>
        <time>2022-08-25T08:43:37Z</time>
      </trkpt>
      <trkpt lat="42.73936100000021" lon="-1.7329840000000072">
        <ele>687.666</ele>
        <time>2022-08-25T08:43:38Z</time>
      </trkpt>
      <trkpt lat="42.73935500000021" lon="-1.7329980000000071">
        <ele>687.867</ele>
        <time>2022-08-25T08:43:39Z</time>
      </trkpt>
      <trkpt lat="42.73934700000021" lon="-1.733012000000007">
        <ele>688.098</ele>
        <time>2022-08-25T08:43:40Z</time>
      </trkpt>
      <trkpt lat="42.73934100000021" lon="-1.733026000000007">
        <ele>688.015</ele>
        <time>2022-08-25T08:43:41Z</time>
      </trkpt>
      <trkpt lat="42.73933700000021" lon="-1.733039000000007">
        <ele>688.226</ele>
        <time>2022-08-25T08:43:42Z</time>
      </trkpt>
      <trkpt lat="42.73932900000021" lon="-1.733058000000007">
        <ele>688.209</ele>
        <time>2022-08-25T08:43:43Z</time>
      </trkpt>
      <trkpt lat="42.73932300000021" lon="-1.7330730000000072">
        <ele>688.230</ele>
        <time>2022-08-25T08:43:44Z</time>
      </trkpt>
      <trkpt lat="42.739316000000215" lon="-1.7330880000000073">
        <ele>688.460</ele>
        <time>2022-08-25T08:43:45Z</time>
      </trkpt>
      <trkpt lat="42.739311000000214" lon="-1.7330990000000073">
        <ele>688.460</ele>
        <time>2022-08-25T08:43:46Z</time>
      </trkpt>
      <trkpt lat="42.73930400000022" lon="-1.7331120000000073">
        <ele>688.616</ele>
        <time>2022-08-25T08:43:47Z</time>
      </trkpt>
      <trkpt lat="42.739294000000214" lon="-1.7331290000000072">
        <ele>688.628</ele>
        <time>2022-08-25T08:43:48Z</time>
      </trkpt>
      <trkpt lat="42.73928600000021" lon="-1.7331440000000073">
        <ele>688.835</ele>
        <time>2022-08-25T08:43:49Z</time>
      </trkpt>
      <trkpt lat="42.73927900000022" lon="-1.7331560000000072">
        <ele>688.818</ele>
        <time>2022-08-25T08:43:50Z</time>
      </trkpt>
      <trkpt lat="42.73927300000022" lon="-1.7331670000000072">
        <ele>689.064</ele>
        <time>2022-08-25T08:43:51Z</time>
      </trkpt>
      <trkpt lat="42.73926400000022" lon="-1.7331820000000073">
        <ele>689.275</ele>
        <time>2022-08-25T08:43:52Z</time>
      </trkpt>
      <trkpt lat="42.73925300000022" lon="-1.7331970000000074">
        <ele>689.255</ele>
        <time>2022-08-25T08:43:53Z</time>
      </trkpt>
      <trkpt lat="42.739243000000215" lon="-1.7332130000000074">
        <ele>689.207</ele>
        <time>2022-08-25T08:43:54Z</time>
      </trkpt>
      <trkpt lat="42.73923300000021" lon="-1.7332280000000075">
        <ele>689.217</ele>
        <time>2022-08-25T08:43:55Z</time>
      </trkpt>
      <trkpt lat="42.73922500000021" lon="-1.7332400000000074">
        <ele>689.809</ele>
        <time>2022-08-25T08:43:56Z</time>
      </trkpt>
      <trkpt lat="42.73921300000021" lon="-1.7332580000000075">
        <ele>689.816</ele>
        <time>2022-08-25T08:43:57Z</time>
      </trkpt>
      <trkpt lat="42.739204000000214" lon="-1.7332710000000076">
        <ele>689.896</ele>
        <time>2022-08-25T08:43:58Z</time>
      </trkpt>
      <trkpt lat="42.73919400000021" lon="-1.7332870000000076">
        <ele>689.836</ele>
        <time>2022-08-25T08:43:59Z</time>
      </trkpt>
      <trkpt lat="42.739187000000214" lon="-1.7332990000000075">
        <ele>690.032</ele>
        <time>2022-08-25T08:44:00Z</time>
      </trkpt>
      <trkpt lat="42.73917700000021" lon="-1.7333120000000075">
        <ele>690.274</ele>
        <time>2022-08-25T08:44:01Z</time>
      </trkpt>
      <trkpt lat="42.73916400000021" lon="-1.7333340000000075">
        <ele>690.411</ele>
        <time>2022-08-25T08:44:02Z</time>
      </trkpt>
      <trkpt lat="42.73915700000021" lon="-1.7333470000000075">
        <ele>690.664</ele>
        <time>2022-08-25T08:44:03Z</time>
      </trkpt>
      <trkpt lat="42.739145000000214" lon="-1.7333680000000076">
        <ele>690.630</ele>
        <time>2022-08-25T08:44:04Z</time>
      </trkpt>
      <trkpt lat="42.739139000000215" lon="-1.7333810000000076">
        <ele>690.661</ele>
        <time>2022-08-25T08:44:05Z</time>
      </trkpt>
      <trkpt lat="42.73913200000022" lon="-1.7333970000000076">
        <ele>690.893</ele>
        <time>2022-08-25T08:44:06Z</time>
      </trkpt>
      <trkpt lat="42.73912100000022" lon="-1.7334190000000076">
        <ele>691.065</ele>
        <time>2022-08-25T08:44:07Z</time>
      </trkpt>
      <trkpt lat="42.73911200000022" lon="-1.7334340000000077">
        <ele>691.221</ele>
        <time>2022-08-25T08:44:08Z</time>
      </trkpt>
      <trkpt lat="42.739102000000216" lon="-1.7334450000000077">
        <ele>691.409</ele>
        <time>2022-08-25T08:44:09Z</time>
      </trkpt>
      <trkpt lat="42.739094000000215" lon="-1.7334540000000076">
        <ele>691.640</ele>
        <time>2022-08-25T08:44:10Z</time>
      </trkpt>
      <trkpt lat="42.73908100000021" lon="-1.7334670000000076">
        <ele>691.820</ele>
        <time>2022-08-25T08:44:11Z</time>
      </trkpt>
      <trkpt lat="42.73907100000021" lon="-1.7334790000000075">
        <ele>691.820</ele>
        <time>2022-08-25T08:44:12Z</time>
      </trkpt>
      <trkpt lat="42.73906200000021" lon="-1.7334930000000075">
        <ele>691.896</ele>
        <time>2022-08-25T08:44:13Z</time>
      </trkpt>
      <trkpt lat="42.73905300000021" lon="-1.7335070000000075">
        <ele>691.818</ele>
        <time>2022-08-25T08:44:14Z</time>
      </trkpt>
      <trkpt lat="42.73904300000021" lon="-1.7335220000000076">
        <ele>691.855</ele>
        <time>2022-08-25T08:44:15Z</time>
      </trkpt>
      <trkpt lat="42.73903500000021" lon="-1.7335330000000075">
        <ele>691.828</ele>
        <time>2022-08-25T08:44:16Z</time>
      </trkpt>
      <trkpt lat="42.73902300000021" lon="-1.7335490000000076">
        <ele>692.044</ele>
        <time>2022-08-25T08:44:17Z</time>
      </trkpt>
      <trkpt lat="42.73901100000021" lon="-1.7335620000000076">
        <ele>692.045</ele>
        <time>2022-08-25T08:44:18Z</time>
      </trkpt>
      <trkpt lat="42.73900200000021" lon="-1.7335750000000076">
        <ele>692.054</ele>
        <time>2022-08-25T08:44:19Z</time>
      </trkpt>
      <trkpt lat="42.73899400000021" lon="-1.7335850000000077">
        <ele>692.256</ele>
        <time>2022-08-25T08:44:20Z</time>
      </trkpt>
      <trkpt lat="42.73898300000021" lon="-1.7336000000000078">
        <ele>692.411</ele>
        <time>2022-08-25T08:44:21Z</time>
      </trkpt>
      <trkpt lat="42.73897000000021" lon="-1.733615000000008">
        <ele>692.409</ele>
        <time>2022-08-25T08:44:22Z</time>
      </trkpt>
      <trkpt lat="42.738960000000205" lon="-1.733631000000008">
        <ele>692.476</ele>
        <time>2022-08-25T08:44:23Z</time>
      </trkpt>
      <trkpt lat="42.738952000000204" lon="-1.7336430000000078">
        <ele>692.686</ele>
        <time>2022-08-25T08:44:24Z</time>
      </trkpt>
      <trkpt lat="42.738943000000205" lon="-1.733658000000008">
        <ele>692.676</ele>
        <time>2022-08-25T08:44:25Z</time>
      </trkpt>
      <trkpt lat="42.73893100000021" lon="-1.7336720000000079">
        <ele>692.692</ele>
        <time>2022-08-25T08:44:26Z</time>
      </trkpt>
      <trkpt lat="42.73891600000021" lon="-1.7336890000000078">
        <ele>692.684</ele>
        <time>2022-08-25T08:44:27Z</time>
      </trkpt>
      <trkpt lat="42.73890300000021" lon="-1.7337060000000077">
        <ele>692.651</ele>
        <time>2022-08-25T08:44:28Z</time>
      </trkpt>
      <trkpt lat="42.738890000000204" lon="-1.7337220000000078">
        <ele>692.674</ele>
        <time>2022-08-25T08:44:29Z</time>
      </trkpt>
      <trkpt lat="42.738853000000205" lon="-1.7337610000000077">
        <ele>692.650</ele>
        <time>2022-08-25T08:44:32Z</time>
      </trkpt>
      <trkpt lat="42.7388430000002" lon="-1.7337780000000076">
        <ele>692.621</ele>
        <time>2022-08-25T08:44:33Z</time>
      </trkpt>
      <trkpt lat="42.738836000000205" lon="-1.7337890000000076">
        <ele>692.612</ele>
        <time>2022-08-25T08:44:34Z</time>
      </trkpt>
      <trkpt lat="42.73882700000021" lon="-1.7338040000000077">
        <ele>692.632</ele>
        <time>2022-08-25T08:44:35Z</time>
      </trkpt>
      <trkpt lat="42.738814000000204" lon="-1.7338210000000076">
        <ele>692.605</ele>
        <time>2022-08-25T08:44:36Z</time>
      </trkpt>
      <trkpt lat="42.738788000000206" lon="-1.7338750000000076">
        <ele>692.609</ele>
        <time>2022-08-25T08:44:39Z</time>
      </trkpt>
      <trkpt lat="42.738763000000205" lon="-1.7339320000000076">
        <ele>692.832</ele>
        <time>2022-08-25T08:44:42Z</time>
      </trkpt>
      <trkpt lat="42.7387580000002" lon="-1.7339450000000076">
        <ele>693.062</ele>
        <time>2022-08-25T08:44:43Z</time>
      </trkpt>
      <trkpt lat="42.73875100000021" lon="-1.7339630000000077">
        <ele>693.072</ele>
        <time>2022-08-25T08:44:44Z</time>
      </trkpt>
      <trkpt lat="42.73874200000021" lon="-1.7339860000000078">
        <ele>693.048</ele>
        <time>2022-08-25T08:44:45Z</time>
      </trkpt>
      <trkpt lat="42.73872700000021" lon="-1.7340400000000078">
        <ele>693.430</ele>
        <time>2022-08-25T08:44:48Z</time>
      </trkpt>
      <trkpt lat="42.73869100000021" lon="-1.7341370000000078">
        <ele>693.637</ele>
        <time>2022-08-25T08:44:53Z</time>
      </trkpt>
      <trkpt lat="42.738681000000206" lon="-1.7341540000000077">
        <ele>693.660</ele>
        <time>2022-08-25T08:44:54Z</time>
      </trkpt>
      <trkpt lat="42.738670000000205" lon="-1.7341700000000078">
        <ele>693.676</ele>
        <time>2022-08-25T08:44:55Z</time>
      </trkpt>
      <trkpt lat="42.73866100000021" lon="-1.7341880000000078">
        <ele>693.627</ele>
        <time>2022-08-25T08:44:56Z</time>
      </trkpt>
      <trkpt lat="42.7386510000002" lon="-1.7342040000000079">
        <ele>693.652</ele>
        <time>2022-08-25T08:44:57Z</time>
      </trkpt>
      <trkpt lat="42.7385980000002" lon="-1.7342940000000078">
        <ele>693.853</ele>
        <time>2022-08-25T08:45:02Z</time>
      </trkpt>
      <trkpt lat="42.738589000000204" lon="-1.7343140000000077">
        <ele>693.808</ele>
        <time>2022-08-25T08:45:03Z</time>
      </trkpt>
      <trkpt lat="42.738583000000204" lon="-1.7343270000000077">
        <ele>694.009</ele>
        <time>2022-08-25T08:45:04Z</time>
      </trkpt>
      <trkpt lat="42.7385750000002" lon="-1.7343480000000078">
        <ele>694.276</ele>
        <time>2022-08-25T08:45:05Z</time>
      </trkpt>
      <trkpt lat="42.738571000000206" lon="-1.7343630000000079">
        <ele>694.276</ele>
        <time>2022-08-25T08:45:06Z</time>
      </trkpt>
      <trkpt lat="42.73856700000021" lon="-1.7343800000000078">
        <ele>694.496</ele>
        <time>2022-08-25T08:45:07Z</time>
      </trkpt>
      <trkpt lat="42.73855800000021" lon="-1.7343940000000078">
        <ele>694.452</ele>
        <time>2022-08-25T08:45:08Z</time>
      </trkpt>
      <trkpt lat="42.73854900000021" lon="-1.7344120000000078">
        <ele>694.684</ele>
        <time>2022-08-25T08:45:09Z</time>
      </trkpt>
      <trkpt lat="42.73850400000021" lon="-1.7344980000000079">
        <ele>694.831</ele>
        <time>2022-08-25T08:45:13Z</time>
      </trkpt>
      <trkpt lat="42.73849300000021" lon="-1.734519000000008">
        <ele>695.024</ele>
        <time>2022-08-25T08:45:14Z</time>
      </trkpt>
      <trkpt lat="42.73845200000021" lon="-1.7346010000000078">
        <ele>695.230</ele>
        <time>2022-08-25T08:45:18Z</time>
      </trkpt>
      <trkpt lat="42.73844100000021" lon="-1.7346210000000077">
        <ele>695.231</ele>
        <time>2022-08-25T08:45:19Z</time>
      </trkpt>
      <trkpt lat="42.73843300000021" lon="-1.7346440000000078">
        <ele>695.456</ele>
        <time>2022-08-25T08:45:20Z</time>
      </trkpt>
      <trkpt lat="42.73842900000021" lon="-1.7346660000000078">
        <ele>695.459</ele>
        <time>2022-08-25T08:45:21Z</time>
      </trkpt>
      <trkpt lat="42.73842500000021" lon="-1.7346820000000078">
        <ele>695.414</ele>
        <time>2022-08-25T08:45:22Z</time>
      </trkpt>
      <trkpt lat="42.73841700000021" lon="-1.7347020000000077">
        <ele>695.409</ele>
        <time>2022-08-25T08:45:23Z</time>
      </trkpt>
      <trkpt lat="42.73840700000021" lon="-1.7347250000000078">
        <ele>695.626</ele>
        <time>2022-08-25T08:45:24Z</time>
      </trkpt>
      <trkpt lat="42.73839800000021" lon="-1.7347450000000078">
        <ele>695.646</ele>
        <time>2022-08-25T08:45:25Z</time>
      </trkpt>
      <trkpt lat="42.73838300000021" lon="-1.7347800000000078">
        <ele>695.616</ele>
        <time>2022-08-25T08:45:27Z</time>
      </trkpt>
      <trkpt lat="42.738376000000216" lon="-1.7347990000000078">
        <ele>695.622</ele>
        <time>2022-08-25T08:45:28Z</time>
      </trkpt>
      <trkpt lat="42.73837000000022" lon="-1.7348200000000078">
        <ele>695.614</ele>
        <time>2022-08-25T08:45:29Z</time>
      </trkpt>
      <trkpt lat="42.73836400000022" lon="-1.7348400000000077">
        <ele>695.841</ele>
        <time>2022-08-25T08:45:30Z</time>
      </trkpt>
      <trkpt lat="42.73835500000022" lon="-1.7348760000000076">
        <ele>696.064</ele>
        <time>2022-08-25T08:45:32Z</time>
      </trkpt>
      <trkpt lat="42.73835000000022" lon="-1.7348930000000076">
        <ele>696.290</ele>
        <time>2022-08-25T08:45:33Z</time>
      </trkpt>
      <trkpt lat="42.73833300000022" lon="-1.7349520000000076">
        <ele>696.651</ele>
        <time>2022-08-25T08:45:36Z</time>
      </trkpt>
      <trkpt lat="42.738328000000216" lon="-1.7349650000000076">
        <ele>696.656</ele>
        <time>2022-08-25T08:45:37Z</time>
      </trkpt>
      <trkpt lat="42.73832200000022" lon="-1.7349820000000076">
        <ele>696.859</ele>
        <time>2022-08-25T08:45:38Z</time>
      </trkpt>
      <trkpt lat="42.738314000000216" lon="-1.7350030000000076">
        <ele>696.814</ele>
        <time>2022-08-25T08:45:39Z</time>
      </trkpt>
      <trkpt lat="42.73831000000022" lon="-1.7350160000000077">
        <ele>696.809</ele>
        <time>2022-08-25T08:45:40Z</time>
      </trkpt>
      <trkpt lat="42.73830500000022" lon="-1.7350290000000077">
        <ele>697.026</ele>
        <time>2022-08-25T08:45:41Z</time>
      </trkpt>
      <trkpt lat="42.738280000000216" lon="-1.7351000000000076">
        <ele>697.426</ele>
        <time>2022-08-25T08:45:45Z</time>
      </trkpt>
      <trkpt lat="42.73821800000022" lon="-1.7352530000000077">
        <ele>697.856</ele>
        <time>2022-08-25T08:45:52Z</time>
      </trkpt>
      <trkpt lat="42.73817800000022" lon="-1.7353310000000077">
        <ele>698.022</ele>
        <time>2022-08-25T08:45:55Z</time>
      </trkpt>
      <trkpt lat="42.73815200000022" lon="-1.7353790000000078">
        <ele>698.074</ele>
        <time>2022-08-25T08:45:57Z</time>
      </trkpt>
      <trkpt lat="42.73813900000022" lon="-1.7354020000000079">
        <ele>698.031</ele>
        <time>2022-08-25T08:45:58Z</time>
      </trkpt>
      <trkpt lat="42.73812500000022" lon="-1.7354290000000079">
        <ele>698.064</ele>
        <time>2022-08-25T08:45:59Z</time>
      </trkpt>
      <trkpt lat="42.738115000000214" lon="-1.7354490000000078">
        <ele>698.050</ele>
        <time>2022-08-25T08:46:00Z</time>
      </trkpt>
      <trkpt lat="42.738069000000216" lon="-1.7355590000000078">
        <ele>698.081</ele>
        <time>2022-08-25T08:46:04Z</time>
      </trkpt>
      <trkpt lat="42.73806200000022" lon="-1.735585000000008">
        <ele>697.822</ele>
        <time>2022-08-25T08:46:05Z</time>
      </trkpt>
      <trkpt lat="42.73805700000022" lon="-1.735604000000008">
        <ele>698.062</ele>
        <time>2022-08-25T08:46:06Z</time>
      </trkpt>
      <trkpt lat="42.73804600000022" lon="-1.735633000000008">
        <ele>697.808</ele>
        <time>2022-08-25T08:46:07Z</time>
      </trkpt>
      <trkpt lat="42.738038000000216" lon="-1.735659000000008">
        <ele>697.809</ele>
        <time>2022-08-25T08:46:08Z</time>
      </trkpt>
      <trkpt lat="42.73803100000022" lon="-1.735684000000008">
        <ele>698.093</ele>
        <time>2022-08-25T08:46:09Z</time>
      </trkpt>
      <trkpt lat="42.73802600000022" lon="-1.735702000000008">
        <ele>698.253</ele>
        <time>2022-08-25T08:46:10Z</time>
      </trkpt>
      <trkpt lat="42.73802100000022" lon="-1.735727000000008">
        <ele>698.283</ele>
        <time>2022-08-25T08:46:11Z</time>
      </trkpt>
      <trkpt lat="42.738005000000214" lon="-1.735817000000008">
        <ele>698.679</ele>
        <time>2022-08-25T08:46:14Z</time>
      </trkpt>
      <trkpt lat="42.73800300000021" lon="-1.735841000000008">
        <ele>698.471</ele>
        <time>2022-08-25T08:46:15Z</time>
      </trkpt>
      <trkpt lat="42.73799200000021" lon="-1.735929000000008">
        <ele>698.618</ele>
        <time>2022-08-25T08:46:18Z</time>
      </trkpt>
      <trkpt lat="42.73798400000021" lon="-1.735983000000008">
        <ele>698.861</ele>
        <time>2022-08-25T08:46:20Z</time>
      </trkpt>
      <trkpt lat="42.73798100000021" lon="-1.736015000000008">
        <ele>698.887</ele>
        <time>2022-08-25T08:46:21Z</time>
      </trkpt>
      <trkpt lat="42.73797800000021" lon="-1.736039000000008">
        <ele>699.058</ele>
        <time>2022-08-25T08:46:22Z</time>
      </trkpt>
      <trkpt lat="42.737971000000215" lon="-1.7360600000000082">
        <ele>699.012</ele>
        <time>2022-08-25T08:46:23Z</time>
      </trkpt>
      <trkpt lat="42.737968000000215" lon="-1.7360750000000083">
        <ele>699.232</ele>
        <time>2022-08-25T08:46:24Z</time>
      </trkpt>
      <trkpt lat="42.737963000000214" lon="-1.7360910000000083">
        <ele>699.805</ele>
        <time>2022-08-25T08:46:25Z</time>
      </trkpt>
      <trkpt lat="42.73795800000021" lon="-1.7361110000000082">
        <ele>700.009</ele>
        <time>2022-08-25T08:46:26Z</time>
      </trkpt>
      <trkpt lat="42.737957000000215" lon="-1.7361270000000082">
        <ele>700.432</ele>
        <time>2022-08-25T08:46:27Z</time>
      </trkpt>
      <trkpt lat="42.737954000000215" lon="-1.7361440000000081">
        <ele>700.622</ele>
        <time>2022-08-25T08:46:28Z</time>
      </trkpt>
      <trkpt lat="42.73795000000022" lon="-1.7361570000000082">
        <ele>700.852</ele>
        <time>2022-08-25T08:46:29Z</time>
      </trkpt>
      <trkpt lat="42.73794200000022" lon="-1.736174000000008">
        <ele>701.078</ele>
        <time>2022-08-25T08:46:30Z</time>
      </trkpt>
      <trkpt lat="42.737934000000216" lon="-1.7361950000000081">
        <ele>701.230</ele>
        <time>2022-08-25T08:46:31Z</time>
      </trkpt>
      <trkpt lat="42.737929000000214" lon="-1.7362190000000082">
        <ele>701.217</ele>
        <time>2022-08-25T08:46:32Z</time>
      </trkpt>
      <trkpt lat="42.737926000000215" lon="-1.7362410000000081">
        <ele>701.280</ele>
        <time>2022-08-25T08:46:33Z</time>
      </trkpt>
      <trkpt lat="42.73792200000022" lon="-1.736263000000008">
        <ele>701.236</ele>
        <time>2022-08-25T08:46:34Z</time>
      </trkpt>
      <trkpt lat="42.73791500000022" lon="-1.736280000000008">
        <ele>701.257</ele>
        <time>2022-08-25T08:46:35Z</time>
      </trkpt>
      <trkpt lat="42.73790700000022" lon="-1.736297000000008">
        <ele>701.457</ele>
        <time>2022-08-25T08:46:36Z</time>
      </trkpt>
      <trkpt lat="42.73789200000022" lon="-1.736321000000008">
        <ele>701.400</ele>
        <time>2022-08-25T08:46:37Z</time>
      </trkpt>
      <trkpt lat="42.737883000000224" lon="-1.736335000000008">
        <ele>701.420</ele>
        <time>2022-08-25T08:46:38Z</time>
      </trkpt>
      <trkpt lat="42.73787200000022" lon="-1.736353000000008">
        <ele>701.409</ele>
        <time>2022-08-25T08:46:39Z</time>
      </trkpt>
      <trkpt lat="42.73786500000023" lon="-1.736374000000008">
        <ele>701.426</ele>
        <time>2022-08-25T08:46:40Z</time>
      </trkpt>
      <trkpt lat="42.73786100000023" lon="-1.7363970000000082">
        <ele>701.446</ele>
        <time>2022-08-25T08:46:41Z</time>
      </trkpt>
      <trkpt lat="42.73785500000023" lon="-1.7364180000000082">
        <ele>701.696</ele>
        <time>2022-08-25T08:46:42Z</time>
      </trkpt>
      <trkpt lat="42.73785000000023" lon="-1.7364380000000081">
        <ele>701.862</ele>
        <time>2022-08-25T08:46:43Z</time>
      </trkpt>
      <trkpt lat="42.73784700000023" lon="-1.7364570000000081">
        <ele>702.264</ele>
        <time>2022-08-25T08:46:44Z</time>
      </trkpt>
      <trkpt lat="42.73784700000023" lon="-1.7364730000000081">
        <ele>702.211</ele>
        <time>2022-08-25T08:46:45Z</time>
      </trkpt>
      <trkpt lat="42.73784500000023" lon="-1.7364910000000082">
        <ele>702.674</ele>
        <time>2022-08-25T08:46:46Z</time>
      </trkpt>
      <trkpt lat="42.737843000000225" lon="-1.7365080000000082">
        <ele>702.860</ele>
        <time>2022-08-25T08:46:47Z</time>
      </trkpt>
      <trkpt lat="42.73784200000023" lon="-1.7365260000000082">
        <ele>703.061</ele>
        <time>2022-08-25T08:46:48Z</time>
      </trkpt>
      <trkpt lat="42.737840000000226" lon="-1.7365480000000082">
        <ele>703.264</ele>
        <time>2022-08-25T08:46:49Z</time>
      </trkpt>
      <trkpt lat="42.737837000000226" lon="-1.7365750000000082">
        <ele>703.606</ele>
        <time>2022-08-25T08:46:50Z</time>
      </trkpt>
      <trkpt lat="42.73783300000023" lon="-1.7365930000000083">
        <ele>703.816</ele>
        <time>2022-08-25T08:46:51Z</time>
      </trkpt>
      <trkpt lat="42.73783000000023" lon="-1.7366100000000082">
        <ele>703.809</ele>
        <time>2022-08-25T08:46:52Z</time>
      </trkpt>
      <trkpt lat="42.73782400000023" lon="-1.7366300000000081">
        <ele>704.057</ele>
        <time>2022-08-25T08:46:53Z</time>
      </trkpt>
      <trkpt lat="42.737817000000234" lon="-1.736655000000008">
        <ele>704.277</ele>
        <time>2022-08-25T08:46:54Z</time>
      </trkpt>
      <trkpt lat="42.737814000000235" lon="-1.736671000000008">
        <ele>704.267</ele>
        <time>2022-08-25T08:46:55Z</time>
      </trkpt>
      <trkpt lat="42.73780900000023" lon="-1.736690000000008">
        <ele>704.273</ele>
        <time>2022-08-25T08:46:56Z</time>
      </trkpt>
      <trkpt lat="42.73780400000023" lon="-1.736707000000008">
        <ele>704.425</ele>
        <time>2022-08-25T08:46:57Z</time>
      </trkpt>
      <trkpt lat="42.73779900000023" lon="-1.736728000000008">
        <ele>704.662</ele>
        <time>2022-08-25T08:46:58Z</time>
      </trkpt>
      <trkpt lat="42.73779300000023" lon="-1.736753000000008">
        <ele>704.875</ele>
        <time>2022-08-25T08:46:59Z</time>
      </trkpt>
      <trkpt lat="42.73778800000023" lon="-1.736773000000008">
        <ele>705.081</ele>
        <time>2022-08-25T08:47:00Z</time>
      </trkpt>
      <trkpt lat="42.73778200000023" lon="-1.7367930000000078">
        <ele>705.062</ele>
        <time>2022-08-25T08:47:01Z</time>
      </trkpt>
      <trkpt lat="42.73777900000023" lon="-1.7368110000000079">
        <ele>705.056</ele>
        <time>2022-08-25T08:47:02Z</time>
      </trkpt>
      <trkpt lat="42.73777800000023" lon="-1.7368250000000078">
        <ele>705.259</ele>
        <time>2022-08-25T08:47:03Z</time>
      </trkpt>
      <trkpt lat="42.73777600000023" lon="-1.7368440000000078">
        <ele>705.214</ele>
        <time>2022-08-25T08:47:04Z</time>
      </trkpt>
      <trkpt lat="42.73777300000023" lon="-1.736862000000008">
        <ele>705.409</ele>
        <time>2022-08-25T08:47:05Z</time>
      </trkpt>
      <trkpt lat="42.73777000000023" lon="-1.7368760000000079">
        <ele>705.646</ele>
        <time>2022-08-25T08:47:06Z</time>
      </trkpt>
      <trkpt lat="42.73776400000023" lon="-1.7368950000000078">
        <ele>705.886</ele>
        <time>2022-08-25T08:47:07Z</time>
      </trkpt>
      <trkpt lat="42.73775900000023" lon="-1.7369090000000078">
        <ele>705.896</ele>
        <time>2022-08-25T08:47:08Z</time>
      </trkpt>
      <trkpt lat="42.73774900000023" lon="-1.7369310000000078">
        <ele>706.082</ele>
        <time>2022-08-25T08:47:09Z</time>
      </trkpt>
      <trkpt lat="42.73774100000023" lon="-1.7369500000000078">
        <ele>706.024</ele>
        <time>2022-08-25T08:47:10Z</time>
      </trkpt>
      <trkpt lat="42.73773400000023" lon="-1.7369640000000077">
        <ele>706.221</ele>
        <time>2022-08-25T08:47:11Z</time>
      </trkpt>
      <trkpt lat="42.73772900000023" lon="-1.7369800000000077">
        <ele>706.284</ele>
        <time>2022-08-25T08:47:12Z</time>
      </trkpt>
      <trkpt lat="42.73772600000023" lon="-1.7369930000000078">
        <ele>706.230</ele>
        <time>2022-08-25T08:47:13Z</time>
      </trkpt>
      <trkpt lat="42.73772100000023" lon="-1.7370130000000077">
        <ele>706.461</ele>
        <time>2022-08-25T08:47:14Z</time>
      </trkpt>
      <trkpt lat="42.73771800000023" lon="-1.7370290000000077">
        <ele>706.628</ele>
        <time>2022-08-25T08:47:15Z</time>
      </trkpt>
      <trkpt lat="42.73771100000023" lon="-1.7370470000000078">
        <ele>706.689</ele>
        <time>2022-08-25T08:47:16Z</time>
      </trkpt>
      <trkpt lat="42.73770600000023" lon="-1.7370630000000078">
        <ele>706.817</ele>
        <time>2022-08-25T08:47:17Z</time>
      </trkpt>
      <trkpt lat="42.73770200000023" lon="-1.737078000000008">
        <ele>706.809</ele>
        <time>2022-08-25T08:47:18Z</time>
      </trkpt>
      <trkpt lat="42.73769700000023" lon="-1.7370950000000078">
        <ele>706.853</ele>
        <time>2022-08-25T08:47:19Z</time>
      </trkpt>
      <trkpt lat="42.737690000000235" lon="-1.7371110000000078">
        <ele>707.083</ele>
        <time>2022-08-25T08:47:20Z</time>
      </trkpt>
      <trkpt lat="42.737684000000236" lon="-1.7371300000000078">
        <ele>707.223</ele>
        <time>2022-08-25T08:47:21Z</time>
      </trkpt>
      <trkpt lat="42.73768100000024" lon="-1.7371520000000078">
        <ele>707.269</ele>
        <time>2022-08-25T08:47:22Z</time>
      </trkpt>
      <trkpt lat="42.73767700000024" lon="-1.7371740000000078">
        <ele>707.421</ele>
        <time>2022-08-25T08:47:23Z</time>
      </trkpt>
      <trkpt lat="42.73767300000024" lon="-1.7371910000000077">
        <ele>707.638</ele>
        <time>2022-08-25T08:47:24Z</time>
      </trkpt>
      <trkpt lat="42.73767100000024" lon="-1.7372060000000078">
        <ele>707.671</ele>
        <time>2022-08-25T08:47:25Z</time>
      </trkpt>
      <trkpt lat="42.73766800000024" lon="-1.7372190000000078">
        <ele>708.037</ele>
        <time>2022-08-25T08:47:26Z</time>
      </trkpt>
      <trkpt lat="42.73766700000024" lon="-1.7372320000000079">
        <ele>708.078</ele>
        <time>2022-08-25T08:47:27Z</time>
      </trkpt>
      <trkpt lat="42.73766700000024" lon="-1.737247000000008">
        <ele>708.232</ele>
        <time>2022-08-25T08:47:28Z</time>
      </trkpt>
      <trkpt lat="42.737664000000244" lon="-1.737263000000008">
        <ele>708.492</ele>
        <time>2022-08-25T08:47:29Z</time>
      </trkpt>
      <trkpt lat="42.73765900000024" lon="-1.737281000000008">
        <ele>708.211</ele>
        <time>2022-08-25T08:47:30Z</time>
      </trkpt>
      <trkpt lat="42.73765600000024" lon="-1.737295000000008">
        <ele>708.409</ele>
        <time>2022-08-25T08:47:31Z</time>
      </trkpt>
      <trkpt lat="42.737650000000244" lon="-1.737313000000008">
        <ele>708.444</ele>
        <time>2022-08-25T08:47:32Z</time>
      </trkpt>
      <trkpt lat="42.737644000000245" lon="-1.7373340000000081">
        <ele>708.664</ele>
        <time>2022-08-25T08:47:33Z</time>
      </trkpt>
      <trkpt lat="42.73763900000024" lon="-1.737351000000008">
        <ele>708.614</ele>
        <time>2022-08-25T08:47:34Z</time>
      </trkpt>
      <trkpt lat="42.737635000000246" lon="-1.7373660000000082">
        <ele>708.860</ele>
        <time>2022-08-25T08:47:35Z</time>
      </trkpt>
      <trkpt lat="42.73762900000025" lon="-1.737378000000008">
        <ele>708.892</ele>
        <time>2022-08-25T08:47:36Z</time>
      </trkpt>
      <trkpt lat="42.73762300000025" lon="-1.7373960000000082">
        <ele>709.059</ele>
        <time>2022-08-25T08:47:37Z</time>
      </trkpt>
      <trkpt lat="42.73761600000025" lon="-1.737416000000008">
        <ele>709.282</ele>
        <time>2022-08-25T08:47:38Z</time>
      </trkpt>
      <trkpt lat="42.73761000000025" lon="-1.737432000000008">
        <ele>709.248</ele>
        <time>2022-08-25T08:47:39Z</time>
      </trkpt>
      <trkpt lat="42.737606000000255" lon="-1.737443000000008">
        <ele>709.229</ele>
        <time>2022-08-25T08:47:40Z</time>
      </trkpt>
      <trkpt lat="42.737601000000254" lon="-1.737457000000008">
        <ele>709.282</ele>
        <time>2022-08-25T08:47:41Z</time>
      </trkpt>
      <trkpt lat="42.73759400000026" lon="-1.737474000000008">
        <ele>709.443</ele>
        <time>2022-08-25T08:47:42Z</time>
      </trkpt>
      <trkpt lat="42.73758800000026" lon="-1.737487000000008">
        <ele>709.417</ele>
        <time>2022-08-25T08:47:43Z</time>
      </trkpt>
      <trkpt lat="42.73757900000026" lon="-1.737503000000008">
        <ele>709.409</ele>
        <time>2022-08-25T08:47:44Z</time>
      </trkpt>
      <trkpt lat="42.73757300000026" lon="-1.7375180000000081">
        <ele>709.679</ele>
        <time>2022-08-25T08:47:45Z</time>
      </trkpt>
      <trkpt lat="42.73756700000026" lon="-1.737529000000008">
        <ele>709.619</ele>
        <time>2022-08-25T08:47:46Z</time>
      </trkpt>
      <trkpt lat="42.73755900000026" lon="-1.7375440000000082">
        <ele>709.659</ele>
        <time>2022-08-25T08:47:47Z</time>
      </trkpt>
      <trkpt lat="42.73755400000026" lon="-1.7375590000000083">
        <ele>709.675</ele>
        <time>2022-08-25T08:47:48Z</time>
      </trkpt>
      <trkpt lat="42.73754900000026" lon="-1.7375730000000082">
        <ele>709.877</ele>
        <time>2022-08-25T08:47:49Z</time>
      </trkpt>
      <trkpt lat="42.737547000000255" lon="-1.7375850000000082">
        <ele>709.824</ele>
        <time>2022-08-25T08:47:50Z</time>
      </trkpt>
      <trkpt lat="42.73754300000026" lon="-1.7376000000000082">
        <ele>709.847</ele>
        <time>2022-08-25T08:47:51Z</time>
      </trkpt>
      <trkpt lat="42.73753800000026" lon="-1.7376120000000082">
        <ele>709.823</ele>
        <time>2022-08-25T08:47:52Z</time>
      </trkpt>
      <trkpt lat="42.73753400000026" lon="-1.7376250000000082">
        <ele>710.064</ele>
        <time>2022-08-25T08:47:53Z</time>
      </trkpt>
      <trkpt lat="42.73752900000026" lon="-1.7376360000000082">
        <ele>710.037</ele>
        <time>2022-08-25T08:47:54Z</time>
      </trkpt>
      <trkpt lat="42.737505000000255" lon="-1.7377050000000083">
        <ele>710.249</ele>
        <time>2022-08-25T08:47:58Z</time>
      </trkpt>
      <trkpt lat="42.737502000000255" lon="-1.7377170000000082">
        <ele>710.213</ele>
        <time>2022-08-25T08:47:59Z</time>
      </trkpt>
      <trkpt lat="42.73748400000026" lon="-1.7377650000000082">
        <ele>710.409</ele>
        <time>2022-08-25T08:48:02Z</time>
      </trkpt>
      <trkpt lat="42.73747700000026" lon="-1.7377940000000083">
        <ele>710.824</ele>
        <time>2022-08-25T08:48:04Z</time>
      </trkpt>
      <trkpt lat="42.73747400000026" lon="-1.7378200000000084">
        <ele>710.844</ele>
        <time>2022-08-25T08:48:05Z</time>
      </trkpt>
      <trkpt lat="42.737467000000265" lon="-1.7378510000000083">
        <ele>711.054</ele>
        <time>2022-08-25T08:48:06Z</time>
      </trkpt>
      <trkpt lat="42.73745100000026" lon="-1.7379250000000082">
        <ele>711.430</ele>
        <time>2022-08-25T08:48:09Z</time>
      </trkpt>
      <trkpt lat="42.73743500000026" lon="-1.737996000000008">
        <ele>711.482</ele>
        <time>2022-08-25T08:48:11Z</time>
      </trkpt>
      <trkpt lat="42.73740800000026" lon="-1.738132000000008">
        <ele>711.869</ele>
        <time>2022-08-25T08:48:15Z</time>
      </trkpt>
      <trkpt lat="42.73740700000026" lon="-1.738157000000008">
        <ele>711.832</ele>
        <time>2022-08-25T08:48:16Z</time>
      </trkpt>
      <trkpt lat="42.73740500000026" lon="-1.738178000000008">
        <ele>712.068</ele>
        <time>2022-08-25T08:48:17Z</time>
      </trkpt>
      <trkpt lat="42.73740000000026" lon="-1.738190000000008">
        <ele>712.419</ele>
        <time>2022-08-25T08:48:18Z</time>
      </trkpt>
      <trkpt lat="42.73739700000026" lon="-1.738206000000008">
        <ele>712.484</ele>
        <time>2022-08-25T08:48:19Z</time>
      </trkpt>
      <trkpt lat="42.73738800000026" lon="-1.738230000000008">
        <ele>712.607</ele>
        <time>2022-08-25T08:48:20Z</time>
      </trkpt>
      <trkpt lat="42.73738100000026" lon="-1.738249000000008">
        <ele>712.617</ele>
        <time>2022-08-25T08:48:21Z</time>
      </trkpt>
      <trkpt lat="42.73737800000026" lon="-1.738265000000008">
        <ele>712.609</ele>
        <time>2022-08-25T08:48:22Z</time>
      </trkpt>
      <trkpt lat="42.73737600000026" lon="-1.738286000000008">
        <ele>712.659</ele>
        <time>2022-08-25T08:48:23Z</time>
      </trkpt>
      <trkpt lat="42.73737000000026" lon="-1.738309000000008">
        <ele>712.449</ele>
        <time>2022-08-25T08:48:24Z</time>
      </trkpt>
      <trkpt lat="42.737355000000264" lon="-1.7383540000000082">
        <ele>712.489</ele>
        <time>2022-08-25T08:48:26Z</time>
      </trkpt>
      <trkpt lat="42.73734700000026" lon="-1.7383720000000082">
        <ele>712.485</ele>
        <time>2022-08-25T08:48:27Z</time>
      </trkpt>
      <trkpt lat="42.737340000000266" lon="-1.7383950000000084">
        <ele>712.457</ele>
        <time>2022-08-25T08:48:28Z</time>
      </trkpt>
      <trkpt lat="42.73731300000026" lon="-1.7384780000000084">
        <ele>712.614</ele>
        <time>2022-08-25T08:48:31Z</time>
      </trkpt>
      <trkpt lat="42.73725400000026" lon="-1.7387400000000084">
        <ele>713.077</ele>
        <time>2022-08-25T08:48:40Z</time>
      </trkpt>
      <trkpt lat="42.73724600000026" lon="-1.7387600000000083">
        <ele>713.083</ele>
        <time>2022-08-25T08:48:41Z</time>
      </trkpt>
      <trkpt lat="42.73724300000026" lon="-1.7387710000000083">
        <ele>713.034</ele>
        <time>2022-08-25T08:48:42Z</time>
      </trkpt>
      <trkpt lat="42.73723800000026" lon="-1.7387860000000084">
        <ele>713.044</ele>
        <time>2022-08-25T08:48:43Z</time>
      </trkpt>
      <trkpt lat="42.737217000000264" lon="-1.7388330000000083">
        <ele>713.005</ele>
        <time>2022-08-25T08:48:45Z</time>
      </trkpt>
      <trkpt lat="42.73717100000027" lon="-1.7389270000000083">
        <ele>713.015</ele>
        <time>2022-08-25T08:48:49Z</time>
      </trkpt>
      <trkpt lat="42.737163000000265" lon="-1.7389430000000083">
        <ele>713.009</ele>
        <time>2022-08-25T08:48:50Z</time>
      </trkpt>
      <trkpt lat="42.737152000000265" lon="-1.7389620000000083">
        <ele>713.045</ele>
        <time>2022-08-25T08:48:51Z</time>
      </trkpt>
      <trkpt lat="42.737143000000266" lon="-1.7389790000000083">
        <ele>713.045</ele>
        <time>2022-08-25T08:48:52Z</time>
      </trkpt>
      <trkpt lat="42.737135000000265" lon="-1.7389950000000083">
        <ele>713.015</ele>
        <time>2022-08-25T08:48:53Z</time>
      </trkpt>
      <trkpt lat="42.73712500000026" lon="-1.7390140000000083">
        <ele>713.281</ele>
        <time>2022-08-25T08:48:54Z</time>
      </trkpt>
      <trkpt lat="42.73711700000026" lon="-1.7390300000000083">
        <ele>713.243</ele>
        <time>2022-08-25T08:48:55Z</time>
      </trkpt>
      <trkpt lat="42.73709100000026" lon="-1.7390750000000084">
        <ele>713.620</ele>
        <time>2022-08-25T08:48:58Z</time>
      </trkpt>
      <trkpt lat="42.737079000000264" lon="-1.7391030000000083">
        <ele>714.013</ele>
        <time>2022-08-25T08:49:00Z</time>
      </trkpt>
      <trkpt lat="42.73707100000026" lon="-1.7391180000000084">
        <ele>714.099</ele>
        <time>2022-08-25T08:49:01Z</time>
      </trkpt>
      <trkpt lat="42.73706400000027" lon="-1.7391290000000084">
        <ele>714.020</ele>
        <time>2022-08-25T08:49:02Z</time>
      </trkpt>
      <trkpt lat="42.73705400000026" lon="-1.7391460000000083">
        <ele>714.244</ele>
        <time>2022-08-25T08:49:03Z</time>
      </trkpt>
      <trkpt lat="42.737045000000265" lon="-1.7391590000000083">
        <ele>714.205</ele>
        <time>2022-08-25T08:49:04Z</time>
      </trkpt>
      <trkpt lat="42.73701000000027" lon="-1.7392080000000083">
        <ele>714.615</ele>
        <time>2022-08-25T08:49:08Z</time>
      </trkpt>
      <trkpt lat="42.73700400000027" lon="-1.7392190000000083">
        <ele>714.609</ele>
        <time>2022-08-25T08:49:09Z</time>
      </trkpt>
      <trkpt lat="42.73700000000027" lon="-1.7392320000000083">
        <ele>714.885</ele>
        <time>2022-08-25T08:49:10Z</time>
      </trkpt>
      <trkpt lat="42.73699700000027" lon="-1.7392400000000083">
        <ele>715.035</ele>
        <time>2022-08-25T08:49:11Z</time>
      </trkpt>
      <trkpt lat="42.736990000000276" lon="-1.7392500000000084">
        <ele>715.235</ele>
        <time>2022-08-25T08:49:12Z</time>
      </trkpt>
      <trkpt lat="42.736974000000274" lon="-1.7392640000000084">
        <ele>715.471</ele>
        <time>2022-08-25T08:49:13Z</time>
      </trkpt>
      <trkpt lat="42.73696600000027" lon="-1.7392740000000084">
        <ele>715.683</ele>
        <time>2022-08-25T08:49:14Z</time>
      </trkpt>
      <trkpt lat="42.73695800000027" lon="-1.7392860000000083">
        <ele>715.860</ele>
        <time>2022-08-25T08:49:15Z</time>
      </trkpt>
      <trkpt lat="42.73695300000027" lon="-1.7392970000000083">
        <ele>716.033</ele>
        <time>2022-08-25T08:49:16Z</time>
      </trkpt>
      <trkpt lat="42.73694000000027" lon="-1.7393100000000083">
        <ele>716.049</ele>
        <time>2022-08-25T08:49:17Z</time>
      </trkpt>
      <trkpt lat="42.736918000000266" lon="-1.7393300000000083">
        <ele>716.470</ele>
        <time>2022-08-25T08:49:19Z</time>
      </trkpt>
      <trkpt lat="42.73690800000026" lon="-1.7393440000000082">
        <ele>716.632</ele>
        <time>2022-08-25T08:49:20Z</time>
      </trkpt>
      <trkpt lat="42.736896000000264" lon="-1.7393610000000082">
        <ele>716.892</ele>
        <time>2022-08-25T08:49:21Z</time>
      </trkpt>
      <trkpt lat="42.73688100000027" lon="-1.7393760000000082">
        <ele>716.811</ele>
        <time>2022-08-25T08:49:22Z</time>
      </trkpt>
      <trkpt lat="42.73686400000027" lon="-1.7393880000000081">
        <ele>717.009</ele>
        <time>2022-08-25T08:49:23Z</time>
      </trkpt>
      <trkpt lat="42.736848000000265" lon="-1.7393990000000081">
        <ele>717.234</ele>
        <time>2022-08-25T08:49:24Z</time>
      </trkpt>
      <trkpt lat="42.73683800000026" lon="-1.7394070000000081">
        <ele>717.624</ele>
        <time>2022-08-25T08:49:25Z</time>
      </trkpt>
      <trkpt lat="42.73682800000026" lon="-1.7394170000000082">
        <ele>717.834</ele>
        <time>2022-08-25T08:49:26Z</time>
      </trkpt>
      <trkpt lat="42.736818000000255" lon="-1.7394310000000082">
        <ele>718.060</ele>
        <time>2022-08-25T08:49:27Z</time>
      </trkpt>
      <trkpt lat="42.73680900000026" lon="-1.739440000000008">
        <ele>718.282</ele>
        <time>2022-08-25T08:49:28Z</time>
      </trkpt>
      <trkpt lat="42.736798000000256" lon="-1.7394530000000081">
        <ele>718.489</ele>
        <time>2022-08-25T08:49:29Z</time>
      </trkpt>
      <trkpt lat="42.73678800000025" lon="-1.7394630000000082">
        <ele>718.832</ele>
        <time>2022-08-25T08:49:30Z</time>
      </trkpt>
      <trkpt lat="42.73677800000025" lon="-1.7394730000000083">
        <ele>718.858</ele>
        <time>2022-08-25T08:49:31Z</time>
      </trkpt>
      <trkpt lat="42.73676900000025" lon="-1.7394850000000082">
        <ele>719.049</ele>
        <time>2022-08-25T08:49:32Z</time>
      </trkpt>
      <trkpt lat="42.736762000000255" lon="-1.739494000000008">
        <ele>719.291</ele>
        <time>2022-08-25T08:49:33Z</time>
      </trkpt>
      <trkpt lat="42.736753000000256" lon="-1.739506000000008">
        <ele>719.281</ele>
        <time>2022-08-25T08:49:34Z</time>
      </trkpt>
      <trkpt lat="42.73674300000025" lon="-1.739519000000008">
        <ele>719.619</ele>
        <time>2022-08-25T08:49:35Z</time>
      </trkpt>
      <trkpt lat="42.73673200000025" lon="-1.7395340000000081">
        <ele>719.609</ele>
        <time>2022-08-25T08:49:36Z</time>
      </trkpt>
      <trkpt lat="42.736720000000254" lon="-1.739546000000008">
        <ele>719.880</ele>
        <time>2022-08-25T08:49:37Z</time>
      </trkpt>
      <trkpt lat="42.736711000000255" lon="-1.739556000000008">
        <ele>720.070</ele>
        <time>2022-08-25T08:49:38Z</time>
      </trkpt>
      <trkpt lat="42.73670100000025" lon="-1.739568000000008">
        <ele>720.280</ele>
        <time>2022-08-25T08:49:39Z</time>
      </trkpt>
      <trkpt lat="42.736694000000256" lon="-1.739578000000008">
        <ele>720.426</ele>
        <time>2022-08-25T08:49:40Z</time>
      </trkpt>
      <trkpt lat="42.736680000000256" lon="-1.7395930000000082">
        <ele>720.488</ele>
        <time>2022-08-25T08:49:41Z</time>
      </trkpt>
      <trkpt lat="42.73666800000026" lon="-1.739605000000008">
        <ele>720.625</ele>
        <time>2022-08-25T08:49:42Z</time>
      </trkpt>
      <trkpt lat="42.73665600000026" lon="-1.739618000000008">
        <ele>720.838</ele>
        <time>2022-08-25T08:49:43Z</time>
      </trkpt>
      <trkpt lat="42.736646000000256" lon="-1.7396280000000082">
        <ele>721.084</ele>
        <time>2022-08-25T08:49:44Z</time>
      </trkpt>
      <trkpt lat="42.736635000000256" lon="-1.7396440000000082">
        <ele>721.225</ele>
        <time>2022-08-25T08:49:45Z</time>
      </trkpt>
      <trkpt lat="42.73662500000025" lon="-1.739664000000008">
        <ele>721.217</ele>
        <time>2022-08-25T08:49:46Z</time>
      </trkpt>
      <trkpt lat="42.736616000000254" lon="-1.7396770000000081">
        <ele>721.487</ele>
        <time>2022-08-25T08:49:47Z</time>
      </trkpt>
      <trkpt lat="42.73660600000025" lon="-1.739691000000008">
        <ele>721.615</ele>
        <time>2022-08-25T08:49:48Z</time>
      </trkpt>
      <trkpt lat="42.73660000000025" lon="-1.739702000000008">
        <ele>721.809</ele>
        <time>2022-08-25T08:49:49Z</time>
      </trkpt>
      <trkpt lat="42.73659000000025" lon="-1.739716000000008">
        <ele>722.082</ele>
        <time>2022-08-25T08:49:50Z</time>
      </trkpt>
      <trkpt lat="42.73658300000025" lon="-1.739728000000008">
        <ele>722.022</ele>
        <time>2022-08-25T08:49:51Z</time>
      </trkpt>
      <trkpt lat="42.73657300000025" lon="-1.739738000000008">
        <ele>722.072</ele>
        <time>2022-08-25T08:49:52Z</time>
      </trkpt>
      <trkpt lat="42.73656500000025" lon="-1.739748000000008">
        <ele>722.468</ele>
        <time>2022-08-25T08:49:53Z</time>
      </trkpt>
      <trkpt lat="42.73655800000025" lon="-1.739757000000008">
        <ele>722.440</ele>
        <time>2022-08-25T08:49:54Z</time>
      </trkpt>
      <trkpt lat="42.73654900000025" lon="-1.739769000000008">
        <ele>722.447</ele>
        <time>2022-08-25T08:49:55Z</time>
      </trkpt>
      <trkpt lat="42.736540000000254" lon="-1.739782000000008">
        <ele>722.680</ele>
        <time>2022-08-25T08:49:56Z</time>
      </trkpt>
      <trkpt lat="42.736531000000255" lon="-1.7397910000000079">
        <ele>722.846</ele>
        <time>2022-08-25T08:49:57Z</time>
      </trkpt>
      <trkpt lat="42.73652100000025" lon="-1.7398000000000078">
        <ele>723.017</ele>
        <time>2022-08-25T08:49:58Z</time>
      </trkpt>
      <trkpt lat="42.73651600000025" lon="-1.7398070000000079">
        <ele>723.257</ele>
        <time>2022-08-25T08:49:59Z</time>
      </trkpt>
      <trkpt lat="42.73651000000025" lon="-1.739814000000008">
        <ele>723.200</ele>
        <time>2022-08-25T08:50:00Z</time>
      </trkpt>
      <trkpt lat="42.73650000000025" lon="-1.739823000000008">
        <ele>723.420</ele>
        <time>2022-08-25T08:50:01Z</time>
      </trkpt>
      <trkpt lat="42.73649500000025" lon="-1.7398290000000078">
        <ele>723.609</ele>
        <time>2022-08-25T08:50:02Z</time>
      </trkpt>
      <trkpt lat="42.736487000000245" lon="-1.739836000000008">
        <ele>723.826</ele>
        <time>2022-08-25T08:50:03Z</time>
      </trkpt>
      <trkpt lat="42.73647500000025" lon="-1.739846000000008">
        <ele>723.866</ele>
        <time>2022-08-25T08:50:04Z</time>
      </trkpt>
      <trkpt lat="42.736465000000244" lon="-1.739850000000008">
        <ele>723.836</ele>
        <time>2022-08-25T08:50:05Z</time>
      </trkpt>
      <trkpt lat="42.73645500000024" lon="-1.7398530000000079">
        <ele>724.072</ele>
        <time>2022-08-25T08:50:06Z</time>
      </trkpt>
      <trkpt lat="42.73644600000024" lon="-1.7398560000000078">
        <ele>724.044</ele>
        <time>2022-08-25T08:50:07Z</time>
      </trkpt>
      <trkpt lat="42.736437000000244" lon="-1.7398680000000077">
        <ele>724.081</ele>
        <time>2022-08-25T08:50:08Z</time>
      </trkpt>
      <trkpt lat="42.736428000000245" lon="-1.7398820000000077">
        <ele>724.084</ele>
        <time>2022-08-25T08:50:09Z</time>
      </trkpt>
      <trkpt lat="42.73641800000024" lon="-1.7398980000000077">
        <ele>724.210</ele>
        <time>2022-08-25T08:50:10Z</time>
      </trkpt>
      <trkpt lat="42.736414000000245" lon="-1.7399070000000076">
        <ele>724.411</ele>
        <time>2022-08-25T08:50:11Z</time>
      </trkpt>
      <trkpt lat="42.736414000000245" lon="-1.7399170000000077">
        <ele>724.476</ele>
        <time>2022-08-25T08:50:12Z</time>
      </trkpt>
      <trkpt lat="42.736411000000246" lon="-1.7399260000000076">
        <ele>724.490</ele>
        <time>2022-08-25T08:50:13Z</time>
      </trkpt>
      <trkpt lat="42.73640200000025" lon="-1.7399390000000077">
        <ele>724.419</ele>
        <time>2022-08-25T08:50:14Z</time>
      </trkpt>
      <trkpt lat="42.73639600000025" lon="-1.7399520000000077">
        <ele>724.609</ele>
        <time>2022-08-25T08:50:15Z</time>
      </trkpt>
      <trkpt lat="42.736394000000246" lon="-1.7399630000000077">
        <ele>724.658</ele>
        <time>2022-08-25T08:50:16Z</time>
      </trkpt>
      <trkpt lat="42.736389000000244" lon="-1.7399760000000077">
        <ele>724.668</ele>
        <time>2022-08-25T08:50:17Z</time>
      </trkpt>
      <trkpt lat="42.73638500000025" lon="-1.7399890000000078">
        <ele>724.838</ele>
        <time>2022-08-25T08:50:18Z</time>
      </trkpt>
      <trkpt lat="42.73637800000025" lon="-1.7400000000000078">
        <ele>724.854</ele>
        <time>2022-08-25T08:50:19Z</time>
      </trkpt>
      <trkpt lat="42.73637500000025" lon="-1.7400110000000077">
        <ele>725.056</ele>
        <time>2022-08-25T08:50:20Z</time>
      </trkpt>
      <trkpt lat="42.73637500000025" lon="-1.7400190000000078">
        <ele>725.023</ele>
        <time>2022-08-25T08:50:21Z</time>
      </trkpt>
      <trkpt lat="42.73637500000025" lon="-1.7400280000000077">
        <ele>725.066</ele>
        <time>2022-08-25T08:50:22Z</time>
      </trkpt>
      <trkpt lat="42.73637300000025" lon="-1.7400410000000077">
        <ele>725.042</ele>
        <time>2022-08-25T08:50:23Z</time>
      </trkpt>
      <trkpt lat="42.73637000000025" lon="-1.7400550000000077">
        <ele>725.273</ele>
        <time>2022-08-25T08:50:24Z</time>
      </trkpt>
      <trkpt lat="42.73636200000025" lon="-1.7400800000000076">
        <ele>725.282</ele>
        <time>2022-08-25T08:50:26Z</time>
      </trkpt>
      <trkpt lat="42.73635900000025" lon="-1.7400930000000077">
        <ele>725.443</ele>
        <time>2022-08-25T08:50:27Z</time>
      </trkpt>
      <trkpt lat="42.73635400000025" lon="-1.7401100000000076">
        <ele>725.417</ele>
        <time>2022-08-25T08:50:28Z</time>
      </trkpt>
      <trkpt lat="42.73633900000025" lon="-1.7401730000000075">
        <ele>725.609</ele>
        <time>2022-08-25T08:50:33Z</time>
      </trkpt>
      <trkpt lat="42.73633800000025" lon="-1.7401860000000076">
        <ele>725.889</ele>
        <time>2022-08-25T08:50:34Z</time>
      </trkpt>
      <trkpt lat="42.73633600000025" lon="-1.7401950000000075">
        <ele>725.829</ele>
        <time>2022-08-25T08:50:35Z</time>
      </trkpt>
      <trkpt lat="42.73632100000025" lon="-1.7402200000000074">
        <ele>726.049</ele>
        <time>2022-08-25T08:50:37Z</time>
      </trkpt>
      <trkpt lat="42.73631600000025" lon="-1.7402280000000074">
        <ele>726.015</ele>
        <time>2022-08-25T08:50:38Z</time>
      </trkpt>
      <trkpt lat="42.73631300000025" lon="-1.7402350000000075">
        <ele>726.077</ele>
        <time>2022-08-25T08:50:39Z</time>
      </trkpt>
      <trkpt lat="42.736306000000255" lon="-1.7402490000000075">
        <ele>726.254</ele>
        <time>2022-08-25T08:50:41Z</time>
      </trkpt>
      <trkpt lat="42.73630400000025" lon="-1.7402610000000074">
        <ele>726.297</ele>
        <time>2022-08-25T08:50:42Z</time>
      </trkpt>
      <trkpt lat="42.73628000000025" lon="-1.7403120000000074">
        <ele>726.853</ele>
        <time>2022-08-25T08:50:47Z</time>
      </trkpt>
      <trkpt lat="42.73628100000025" lon="-1.7403220000000075">
        <ele>727.044</ele>
        <time>2022-08-25T08:50:48Z</time>
      </trkpt>
      <trkpt lat="42.736282000000244" lon="-1.7403390000000074">
        <ele>727.057</ele>
        <time>2022-08-25T08:50:49Z</time>
      </trkpt>
      <trkpt lat="42.73628000000024" lon="-1.7403520000000074">
        <ele>727.200</ele>
        <time>2022-08-25T08:50:50Z</time>
      </trkpt>
      <trkpt lat="42.736273000000246" lon="-1.7403830000000073">
        <ele>727.420</ele>
        <time>2022-08-25T08:50:53Z</time>
      </trkpt>
      <trkpt lat="42.736268000000244" lon="-1.7403940000000073">
        <ele>727.409</ele>
        <time>2022-08-25T08:50:54Z</time>
      </trkpt>
      <trkpt lat="42.73626400000025" lon="-1.7404030000000072">
        <ele>727.626</ele>
        <time>2022-08-25T08:50:55Z</time>
      </trkpt>
      <trkpt lat="42.736242000000246" lon="-1.7404690000000071">
        <ele>727.896</ele>
        <time>2022-08-25T08:50:59Z</time>
      </trkpt>
      <trkpt lat="42.73622700000025" lon="-1.7405180000000071">
        <ele>728.236</ele>
        <time>2022-08-25T08:51:02Z</time>
      </trkpt>
      <trkpt lat="42.73622300000025" lon="-1.740530000000007">
        <ele>728.232</ele>
        <time>2022-08-25T08:51:03Z</time>
      </trkpt>
      <trkpt lat="42.73620700000025" lon="-1.740589000000007">
        <ele>729.064</ele>
        <time>2022-08-25T08:51:07Z</time>
      </trkpt>
      <trkpt lat="42.73620200000025" lon="-1.740600000000007">
        <ele>729.071</ele>
        <time>2022-08-25T08:51:08Z</time>
      </trkpt>
      <trkpt lat="42.73619500000025" lon="-1.740618000000007">
        <ele>729.014</ele>
        <time>2022-08-25T08:51:09Z</time>
      </trkpt>
      <trkpt lat="42.73617100000025" lon="-1.7406680000000072">
        <ele>729.480</ele>
        <time>2022-08-25T08:51:12Z</time>
      </trkpt>
      <trkpt lat="42.73616500000025" lon="-1.7406820000000072">
        <ele>729.661</ele>
        <time>2022-08-25T08:51:13Z</time>
      </trkpt>
      <trkpt lat="42.73615900000025" lon="-1.7406970000000073">
        <ele>729.837</ele>
        <time>2022-08-25T08:51:14Z</time>
      </trkpt>
      <trkpt lat="42.73615300000025" lon="-1.7407130000000073">
        <ele>730.049</ele>
        <time>2022-08-25T08:51:15Z</time>
      </trkpt>
      <trkpt lat="42.73615000000025" lon="-1.7407290000000073">
        <ele>730.213</ele>
        <time>2022-08-25T08:51:16Z</time>
      </trkpt>
      <trkpt lat="42.736146000000254" lon="-1.7407430000000073">
        <ele>730.409</ele>
        <time>2022-08-25T08:51:17Z</time>
      </trkpt>
      <trkpt lat="42.73614200000026" lon="-1.7407500000000073">
        <ele>730.624</ele>
        <time>2022-08-25T08:51:18Z</time>
      </trkpt>
      <trkpt lat="42.73613800000026" lon="-1.7407590000000073">
        <ele>730.894</ele>
        <time>2022-08-25T08:51:19Z</time>
      </trkpt>
      <trkpt lat="42.73613400000026" lon="-1.7407740000000074">
        <ele>730.864</ele>
        <time>2022-08-25T08:51:20Z</time>
      </trkpt>
      <trkpt lat="42.73613100000026" lon="-1.7407850000000074">
        <ele>730.820</ele>
        <time>2022-08-25T08:51:21Z</time>
      </trkpt>
      <trkpt lat="42.73612900000026" lon="-1.7408000000000075">
        <ele>731.032</ele>
        <time>2022-08-25T08:51:22Z</time>
      </trkpt>
      <trkpt lat="42.73612900000026" lon="-1.7408130000000075">
        <ele>731.059</ele>
        <time>2022-08-25T08:51:23Z</time>
      </trkpt>
      <trkpt lat="42.73612400000026" lon="-1.7408340000000075">
        <ele>731.042</ele>
        <time>2022-08-25T08:51:24Z</time>
      </trkpt>
      <trkpt lat="42.73611800000026" lon="-1.7408530000000075">
        <ele>731.078</ele>
        <time>2022-08-25T08:51:25Z</time>
      </trkpt>
      <trkpt lat="42.73611200000026" lon="-1.7408700000000075">
        <ele>731.269</ele>
        <time>2022-08-25T08:51:26Z</time>
      </trkpt>
      <trkpt lat="42.736108000000264" lon="-1.7408870000000074">
        <ele>731.459</ele>
        <time>2022-08-25T08:51:27Z</time>
      </trkpt>
      <trkpt lat="42.73610300000026" lon="-1.7408980000000074">
        <ele>731.803</ele>
        <time>2022-08-25T08:51:28Z</time>
      </trkpt>
      <trkpt lat="42.73609800000026" lon="-1.7409110000000074">
        <ele>731.823</ele>
        <time>2022-08-25T08:51:29Z</time>
      </trkpt>
      <trkpt lat="42.73609300000026" lon="-1.7409260000000075">
        <ele>732.009</ele>
        <time>2022-08-25T08:51:30Z</time>
      </trkpt>
      <trkpt lat="42.73608800000026" lon="-1.7409380000000074">
        <ele>732.226</ele>
        <time>2022-08-25T08:51:31Z</time>
      </trkpt>
      <trkpt lat="42.73608500000026" lon="-1.7409440000000074">
        <ele>732.276</ele>
        <time>2022-08-25T08:51:32Z</time>
      </trkpt>
      <trkpt lat="42.73608500000026" lon="-1.7409440000000074">
        <ele>732.476</ele>
        <time>2022-08-25T08:51:33Z</time>
      </trkpt>
      <trkpt lat="42.73608500000026" lon="-1.7409440000000074">
        <ele>734.612</ele>
        <time>2022-08-25T08:52:06Z</time>
      </trkpt>
      <trkpt lat="42.73608500000026" lon="-1.7409440000000074">
        <ele>734.624</ele>
        <time>2022-08-25T08:52:07Z</time>
      </trkpt>
      <trkpt lat="42.73608500000026" lon="-1.7409440000000074">
        <ele>734.851</ele>
        <time>2022-08-25T08:52:09Z</time>
      </trkpt>
      <trkpt lat="42.73608500000026" lon="-1.7409440000000074">
        <ele>734.834</ele>
        <time>2022-08-25T08:52:10Z</time>
      </trkpt>
      <trkpt lat="42.73606800000026" lon="-1.7409890000000074">
        <ele>735.650</ele>
        <time>2022-08-25T08:52:22Z</time>
      </trkpt>
      <trkpt lat="42.73606800000026" lon="-1.7409920000000074">
        <ele>735.651</ele>
        <time>2022-08-25T08:52:23Z</time>
      </trkpt>
      <trkpt lat="42.73606800000026" lon="-1.7409960000000073">
        <ele>735.879</ele>
        <time>2022-08-25T08:52:24Z</time>
      </trkpt>
      <trkpt lat="42.73606700000026" lon="-1.7410000000000072">
        <ele>735.805</ele>
        <time>2022-08-25T08:52:25Z</time>
      </trkpt>
      <trkpt lat="42.736060000000265" lon="-1.7410400000000072">
        <ele>736.625</ele>
        <time>2022-08-25T08:52:30Z</time>
      </trkpt>
      <trkpt lat="42.73605900000027" lon="-1.7410520000000071">
        <ele>736.809</ele>
        <time>2022-08-25T08:52:32Z</time>
      </trkpt>
      <trkpt lat="42.73605800000027" lon="-1.7410620000000072">
        <ele>737.078</ele>
        <time>2022-08-25T08:52:33Z</time>
      </trkpt>
      <trkpt lat="42.73605800000027" lon="-1.7410710000000071">
        <ele>737.098</ele>
        <time>2022-08-25T08:52:34Z</time>
      </trkpt>
      <trkpt lat="42.73605700000027" lon="-1.7410790000000071">
        <ele>737.248</ele>
        <time>2022-08-25T08:52:35Z</time>
      </trkpt>
      <trkpt lat="42.73605700000027" lon="-1.7410870000000072">
        <ele>737.214</ele>
        <time>2022-08-25T08:52:36Z</time>
      </trkpt>
      <trkpt lat="42.73605700000027" lon="-1.7410940000000072">
        <ele>737.436</ele>
        <time>2022-08-25T08:52:37Z</time>
      </trkpt>
      <trkpt lat="42.73605100000027" lon="-1.7411270000000072">
        <ele>737.853</ele>
        <time>2022-08-25T08:52:41Z</time>
      </trkpt>
      <trkpt lat="42.736048000000274" lon="-1.7411370000000073">
        <ele>737.886</ele>
        <time>2022-08-25T08:52:42Z</time>
      </trkpt>
      <trkpt lat="42.736047000000276" lon="-1.7411460000000072">
        <ele>738.042</ele>
        <time>2022-08-25T08:52:43Z</time>
      </trkpt>
      <trkpt lat="42.73604600000028" lon="-1.7411530000000073">
        <ele>738.223</ele>
        <time>2022-08-25T08:52:44Z</time>
      </trkpt>
      <trkpt lat="42.73604100000028" lon="-1.7411670000000072">
        <ele>738.486</ele>
        <time>2022-08-25T08:52:45Z</time>
      </trkpt>
      <trkpt lat="42.73603700000028" lon="-1.7411830000000073">
        <ele>738.660</ele>
        <time>2022-08-25T08:52:46Z</time>
      </trkpt>
      <trkpt lat="42.73603300000028" lon="-1.7411970000000072">
        <ele>738.626</ele>
        <time>2022-08-25T08:52:47Z</time>
      </trkpt>
      <trkpt lat="42.736029000000286" lon="-1.7412150000000073">
        <ele>738.809</ele>
        <time>2022-08-25T08:52:48Z</time>
      </trkpt>
      <trkpt lat="42.736024000000285" lon="-1.7412320000000072">
        <ele>739.069</ele>
        <time>2022-08-25T08:52:49Z</time>
      </trkpt>
      <trkpt lat="42.736018000000286" lon="-1.7412500000000073">
        <ele>739.089</ele>
        <time>2022-08-25T08:52:50Z</time>
      </trkpt>
      <trkpt lat="42.73601200000029" lon="-1.7412710000000073">
        <ele>739.239</ele>
        <time>2022-08-25T08:52:51Z</time>
      </trkpt>
      <trkpt lat="42.736007000000285" lon="-1.7412910000000072">
        <ele>739.285</ele>
        <time>2022-08-25T08:52:52Z</time>
      </trkpt>
      <trkpt lat="42.73600200000028" lon="-1.7413080000000072">
        <ele>739.467</ele>
        <time>2022-08-25T08:52:53Z</time>
      </trkpt>
      <trkpt lat="42.735998000000286" lon="-1.7413210000000072">
        <ele>739.484</ele>
        <time>2022-08-25T08:52:54Z</time>
      </trkpt>
      <trkpt lat="42.73599500000029" lon="-1.7413240000000072">
        <ele>739.687</ele>
        <time>2022-08-25T08:52:55Z</time>
      </trkpt>
      <trkpt lat="42.73599400000029" lon="-1.7413270000000072">
        <ele>739.643</ele>
        <time>2022-08-25T08:52:56Z</time>
      </trkpt>
      <trkpt lat="42.73599400000029" lon="-1.7413270000000072">
        <ele>739.674</ele>
        <time>2022-08-25T08:52:57Z</time>
      </trkpt>
      <trkpt lat="42.73599400000029" lon="-1.7413270000000072">
        <ele>739.827</ele>
        <time>2022-08-25T08:52:58Z</time>
      </trkpt>
      <trkpt lat="42.73599400000029" lon="-1.7413270000000072">
        <ele>739.868</ele>
        <time>2022-08-25T08:53:00Z</time>
      </trkpt>
      <trkpt lat="42.73599400000029" lon="-1.7413270000000072">
        <ele>740.014</ele>
        <time>2022-08-25T08:53:01Z</time>
      </trkpt>
      <trkpt lat="42.73599400000029" lon="-1.7413270000000072">
        <ele>740.009</ele>
        <time>2022-08-25T08:53:02Z</time>
      </trkpt>
      <trkpt lat="42.73599400000029" lon="-1.7413270000000072">
        <ele>740.033</ele>
        <time>2022-08-25T08:53:03Z</time>
      </trkpt>
      <trkpt lat="42.73599400000029" lon="-1.7413270000000072">
        <ele>740.263</ele>
        <time>2022-08-25T08:53:04Z</time>
      </trkpt>
      <trkpt lat="42.73599400000029" lon="-1.7413270000000072">
        <ele>740.293</ele>
        <time>2022-08-25T08:53:05Z</time>
      </trkpt>
      <trkpt lat="42.73599400000029" lon="-1.7413270000000072">
        <ele>740.279</ele>
        <time>2022-08-25T08:53:06Z</time>
      </trkpt>
      <trkpt lat="42.73599400000029" lon="-1.7413270000000072">
        <ele>740.421</ele>
        <time>2022-08-25T08:53:07Z</time>
      </trkpt>
      <trkpt lat="42.73599400000029" lon="-1.7413270000000072">
        <ele>740.478</ele>
        <time>2022-08-25T08:53:08Z</time>
      </trkpt>
      <trkpt lat="42.73599400000029" lon="-1.7413270000000072">
        <ele>741.051</ele>
        <time>2022-08-25T08:53:12Z</time>
      </trkpt>
      <trkpt lat="42.73599400000029" lon="-1.7413270000000072">
        <ele>741.087</ele>
        <time>2022-08-25T08:53:13Z</time>
      </trkpt>
      <trkpt lat="42.73599400000029" lon="-1.741339000000007">
        <ele>741.468</ele>
        <time>2022-08-25T08:53:16Z</time>
      </trkpt>
      <trkpt lat="42.73597300000029" lon="-1.741437000000007">
        <ele>742.881</ele>
        <time>2022-08-25T08:53:31Z</time>
      </trkpt>
      <trkpt lat="42.735972000000295" lon="-1.741441000000007">
        <ele>742.861</ele>
        <time>2022-08-25T08:53:32Z</time>
      </trkpt>
      <trkpt lat="42.735969000000296" lon="-1.741449000000007">
        <ele>742.817</ele>
        <time>2022-08-25T08:53:33Z</time>
      </trkpt>
      <trkpt lat="42.735969000000296" lon="-1.741449000000007">
        <ele>743.009</ele>
        <time>2022-08-25T08:53:34Z</time>
      </trkpt>
      <trkpt lat="42.735969000000296" lon="-1.741449000000007">
        <ele>743.039</ele>
        <time>2022-08-25T08:53:35Z</time>
      </trkpt>
      <trkpt lat="42.735969000000296" lon="-1.741449000000007">
        <ele>743.099</ele>
        <time>2022-08-25T08:53:36Z</time>
      </trkpt>
      <trkpt lat="42.735969000000296" lon="-1.741449000000007">
        <ele>743.259</ele>
        <time>2022-08-25T08:53:37Z</time>
      </trkpt>
      <trkpt lat="42.735969000000296" lon="-1.741449000000007">
        <ele>743.225</ele>
        <time>2022-08-25T08:53:39Z</time>
      </trkpt>
      <trkpt lat="42.735969000000296" lon="-1.741449000000007">
        <ele>743.237</ele>
        <time>2022-08-25T08:53:40Z</time>
      </trkpt>
      <trkpt lat="42.7359680000003" lon="-1.741457000000007">
        <ele>743.424</ele>
        <time>2022-08-25T08:53:41Z</time>
      </trkpt>
      <trkpt lat="42.7359590000003" lon="-1.7415250000000069">
        <ele>743.447</ele>
        <time>2022-08-25T08:53:44Z</time>
      </trkpt>
      <trkpt lat="42.7359550000003" lon="-1.7415770000000068">
        <ele>743.493</ele>
        <time>2022-08-25T08:53:46Z</time>
      </trkpt>
      <trkpt lat="42.7359550000003" lon="-1.7416210000000067">
        <ele>743.674</ele>
        <time>2022-08-25T08:53:48Z</time>
      </trkpt>
      <trkpt lat="42.7359520000003" lon="-1.7416410000000067">
        <ele>743.845</ele>
        <time>2022-08-25T08:53:49Z</time>
      </trkpt>
      <trkpt lat="42.7359490000003" lon="-1.7416570000000067">
        <ele>743.847</ele>
        <time>2022-08-25T08:53:50Z</time>
      </trkpt>
      <trkpt lat="42.735946000000304" lon="-1.7416670000000067">
        <ele>744.011</ele>
        <time>2022-08-25T08:53:51Z</time>
      </trkpt>
      <trkpt lat="42.7359410000003" lon="-1.7416840000000067">
        <ele>744.009</ele>
        <time>2022-08-25T08:53:52Z</time>
      </trkpt>
      <trkpt lat="42.7359390000003" lon="-1.7416980000000066">
        <ele>744.015</ele>
        <time>2022-08-25T08:53:53Z</time>
      </trkpt>
      <trkpt lat="42.7359350000003" lon="-1.7417050000000067">
        <ele>744.055</ele>
        <time>2022-08-25T08:53:54Z</time>
      </trkpt>
      <trkpt lat="42.735932000000304" lon="-1.7417120000000068">
        <ele>744.245</ele>
        <time>2022-08-25T08:53:55Z</time>
      </trkpt>
      <trkpt lat="42.735926000000305" lon="-1.7417200000000068">
        <ele>744.461</ele>
        <time>2022-08-25T08:53:56Z</time>
      </trkpt>
      <trkpt lat="42.73591900000031" lon="-1.7417360000000068">
        <ele>744.893</ele>
        <time>2022-08-25T08:53:59Z</time>
      </trkpt>
      <trkpt lat="42.73591600000031" lon="-1.7417440000000068">
        <ele>745.090</ele>
        <time>2022-08-25T08:54:00Z</time>
      </trkpt>
      <trkpt lat="42.73591300000031" lon="-1.741759000000007">
        <ele>745.233</ele>
        <time>2022-08-25T08:54:02Z</time>
      </trkpt>
      <trkpt lat="42.73591200000031" lon="-1.741767000000007">
        <ele>745.449</ele>
        <time>2022-08-25T08:54:03Z</time>
      </trkpt>
      <trkpt lat="42.735905000000315" lon="-1.741812000000007">
        <ele>746.050</ele>
        <time>2022-08-25T08:54:10Z</time>
      </trkpt>
      <trkpt lat="42.73590400000032" lon="-1.741817000000007">
        <ele>746.266</ele>
        <time>2022-08-25T08:54:11Z</time>
      </trkpt>
      <trkpt lat="42.73590400000032" lon="-1.741817000000007">
        <ele>746.629</ele>
        <time>2022-08-25T08:54:14Z</time>
      </trkpt>
      <trkpt lat="42.73590400000032" lon="-1.741817000000007">
        <ele>746.821</ele>
        <time>2022-08-25T08:54:15Z</time>
      </trkpt>
      <trkpt lat="42.73590400000032" lon="-1.741817000000007">
        <ele>747.209</ele>
        <time>2022-08-25T08:54:27Z</time>
      </trkpt>
      <trkpt lat="42.73590400000032" lon="-1.741817000000007">
        <ele>748.457</ele>
        <time>2022-08-25T08:54:33Z</time>
      </trkpt>
      <trkpt lat="42.73590400000032" lon="-1.741817000000007">
        <ele>748.647</ele>
        <time>2022-08-25T08:54:35Z</time>
      </trkpt>
      <trkpt lat="42.73590300000032" lon="-1.741828000000007">
        <ele>749.077</ele>
        <time>2022-08-25T08:54:38Z</time>
      </trkpt>
      <trkpt lat="42.73589400000032" lon="-1.741895000000007">
        <ele>749.263</ele>
        <time>2022-08-25T08:54:45Z</time>
      </trkpt>
      <trkpt lat="42.73589100000032" lon="-1.741920000000007">
        <ele>749.285</ele>
        <time>2022-08-25T08:54:46Z</time>
      </trkpt>
      <trkpt lat="42.73588600000032" lon="-1.741946000000007">
        <ele>749.222</ele>
        <time>2022-08-25T08:54:47Z</time>
      </trkpt>
      <trkpt lat="42.73586300000032" lon="-1.7421290000000071">
        <ele>749.685</ele>
        <time>2022-08-25T08:54:54Z</time>
      </trkpt>
      <trkpt lat="42.73586100000032" lon="-1.7421440000000072">
        <ele>749.861</ele>
        <time>2022-08-25T08:54:55Z</time>
      </trkpt>
      <trkpt lat="42.73585900000032" lon="-1.7421600000000073">
        <ele>750.282</ele>
        <time>2022-08-25T08:54:56Z</time>
      </trkpt>
      <trkpt lat="42.735857000000316" lon="-1.7421730000000073">
        <ele>750.275</ele>
        <time>2022-08-25T08:54:57Z</time>
      </trkpt>
      <trkpt lat="42.73585600000032" lon="-1.7421850000000072">
        <ele>750.428</ele>
        <time>2022-08-25T08:54:58Z</time>
      </trkpt>
      <trkpt lat="42.735854000000316" lon="-1.742197000000007">
        <ele>750.620</ele>
        <time>2022-08-25T08:54:59Z</time>
      </trkpt>
      <trkpt lat="42.735854000000316" lon="-1.7422040000000072">
        <ele>750.609</ele>
        <time>2022-08-25T08:55:00Z</time>
      </trkpt>
      <trkpt lat="42.735852000000314" lon="-1.7422190000000073">
        <ele>750.668</ele>
        <time>2022-08-25T08:55:01Z</time>
      </trkpt>
      <trkpt lat="42.735849000000314" lon="-1.7422310000000072">
        <ele>750.858</ele>
        <time>2022-08-25T08:55:02Z</time>
      </trkpt>
      <trkpt lat="42.735846000000315" lon="-1.7422640000000071">
        <ele>751.468</ele>
        <time>2022-08-25T08:55:05Z</time>
      </trkpt>
      <trkpt lat="42.73584700000031" lon="-1.742276000000007">
        <ele>752.084</ele>
        <time>2022-08-25T08:55:06Z</time>
      </trkpt>
      <trkpt lat="42.735846000000315" lon="-1.742288000000007">
        <ele>752.016</ele>
        <time>2022-08-25T08:55:07Z</time>
      </trkpt>
      <trkpt lat="42.735846000000315" lon="-1.7423000000000068">
        <ele>752.413</ele>
        <time>2022-08-25T08:55:08Z</time>
      </trkpt>
      <trkpt lat="42.73584200000032" lon="-1.7423120000000067">
        <ele>752.666</ele>
        <time>2022-08-25T08:55:09Z</time>
      </trkpt>
      <trkpt lat="42.735837000000316" lon="-1.7423260000000067">
        <ele>752.832</ele>
        <time>2022-08-25T08:55:10Z</time>
      </trkpt>
      <trkpt lat="42.73583600000032" lon="-1.7423360000000068">
        <ele>752.833</ele>
        <time>2022-08-25T08:55:11Z</time>
      </trkpt>
      <trkpt lat="42.735837000000316" lon="-1.7423450000000067">
        <ele>753.084</ele>
        <time>2022-08-25T08:55:12Z</time>
      </trkpt>
      <trkpt lat="42.735837000000316" lon="-1.7423600000000068">
        <ele>753.007</ele>
        <time>2022-08-25T08:55:13Z</time>
      </trkpt>
      <trkpt lat="42.735837000000316" lon="-1.7423690000000067">
        <ele>753.017</ele>
        <time>2022-08-25T08:55:14Z</time>
      </trkpt>
      <trkpt lat="42.735837000000316" lon="-1.7423780000000066">
        <ele>753.209</ele>
        <time>2022-08-25T08:55:15Z</time>
      </trkpt>
      <trkpt lat="42.735837000000316" lon="-1.7423860000000067">
        <ele>753.299</ele>
        <time>2022-08-25T08:55:16Z</time>
      </trkpt>
      <trkpt lat="42.735837000000316" lon="-1.7423910000000067">
        <ele>753.229</ele>
        <time>2022-08-25T08:55:17Z</time>
      </trkpt>
      <trkpt lat="42.73583600000032" lon="-1.7423940000000067">
        <ele>753.289</ele>
        <time>2022-08-25T08:55:18Z</time>
      </trkpt>
      <trkpt lat="42.73583400000032" lon="-1.7424000000000066">
        <ele>753.265</ele>
        <time>2022-08-25T08:55:19Z</time>
      </trkpt>
      <trkpt lat="42.735832000000315" lon="-1.7424020000000067">
        <ele>753.277</ele>
        <time>2022-08-25T08:55:20Z</time>
      </trkpt>
      <trkpt lat="42.73583100000032" lon="-1.7424070000000067">
        <ele>753.264</ele>
        <time>2022-08-25T08:55:21Z</time>
      </trkpt>
      <trkpt lat="42.73583100000032" lon="-1.7424120000000067">
        <ele>753.227</ele>
        <time>2022-08-25T08:55:22Z</time>
      </trkpt>
      <trkpt lat="42.735832000000315" lon="-1.7424150000000067">
        <ele>752.833</ele>
        <time>2022-08-25T08:55:59Z</time>
      </trkpt>
      <trkpt lat="42.73582500000032" lon="-1.7424830000000067">
        <ele>752.814</ele>
        <time>2022-08-25T08:56:02Z</time>
      </trkpt>
      <trkpt lat="42.73581300000032" lon="-1.7425210000000066">
        <ele>752.811</ele>
        <time>2022-08-25T08:56:04Z</time>
      </trkpt>
      <trkpt lat="42.73580500000032" lon="-1.7425330000000065">
        <ele>752.621</ele>
        <time>2022-08-25T08:56:05Z</time>
      </trkpt>
      <trkpt lat="42.73580200000032" lon="-1.7425390000000065">
        <ele>752.603</ele>
        <time>2022-08-25T08:56:06Z</time>
      </trkpt>
      <trkpt lat="42.73580800000032" lon="-1.7425570000000066">
        <ele>752.409</ele>
        <time>2022-08-25T08:56:09Z</time>
      </trkpt>
      <trkpt lat="42.735809000000316" lon="-1.7425620000000066">
        <ele>752.462</ele>
        <time>2022-08-25T08:56:10Z</time>
      </trkpt>
      <trkpt lat="42.735837000000316" lon="-1.7425790000000065">
        <ele>752.082</ele>
        <time>2022-08-25T08:56:20Z</time>
      </trkpt>
      <trkpt lat="42.73584200000032" lon="-1.7425960000000065">
        <ele>751.672</ele>
        <time>2022-08-25T08:56:24Z</time>
      </trkpt>
      <trkpt lat="42.73585300000032" lon="-1.7426280000000065">
        <ele>751.628</ele>
        <time>2022-08-25T08:57:58Z</time>
      </trkpt>
      <trkpt lat="42.735809000000316" lon="-1.7426370000000064">
        <ele>750.840</ele>
        <time>2022-08-25T08:58:03Z</time>
      </trkpt>
      <trkpt lat="42.73580200000032" lon="-1.7426350000000064">
        <ele>750.667</ele>
        <time>2022-08-25T08:58:04Z</time>
      </trkpt>
      <trkpt lat="42.73579800000032" lon="-1.7426360000000063">
        <ele>750.460</ele>
        <time>2022-08-25T08:58:05Z</time>
      </trkpt>
      <trkpt lat="42.73579800000032" lon="-1.7426390000000063">
        <ele>750.236</ele>
        <time>2022-08-25T08:58:08Z</time>
      </trkpt>
      <trkpt lat="42.73581000000032" lon="-1.7426400000000062">
        <ele>750.077</ele>
        <time>2022-08-25T08:58:11Z</time>
      </trkpt>
      <trkpt lat="42.73581400000032" lon="-1.7426400000000062">
        <ele>750.247</ele>
        <time>2022-08-25T08:58:12Z</time>
      </trkpt>
      <trkpt lat="42.735812000000315" lon="-1.7426770000000062">
        <ele>749.629</ele>
        <time>2022-08-25T09:01:07Z</time>
      </trkpt>
      <trkpt lat="42.735776000000314" lon="-1.7426870000000063">
        <ele>749.621</ele>
        <time>2022-08-25T09:01:10Z</time>
      </trkpt>
      <trkpt lat="42.73575100000031" lon="-1.7426690000000062">
        <ele>749.609</ele>
        <time>2022-08-25T09:01:13Z</time>
      </trkpt>
      <trkpt lat="42.735742000000315" lon="-1.7426610000000062">
        <ele>749.665</ele>
        <time>2022-08-25T09:01:14Z</time>
      </trkpt>
      <trkpt lat="42.73573700000031" lon="-1.7426530000000062">
        <ele>749.675</ele>
        <time>2022-08-25T09:01:15Z</time>
      </trkpt>
      <trkpt lat="42.735730000000316" lon="-1.7426440000000063">
        <ele>749.445</ele>
        <time>2022-08-25T09:01:16Z</time>
      </trkpt>
      <trkpt lat="42.735725000000315" lon="-1.7426390000000063">
        <ele>749.451</ele>
        <time>2022-08-25T09:01:17Z</time>
      </trkpt>
      <trkpt lat="42.73570600000031" lon="-1.7426400000000062">
        <ele>749.413</ele>
        <time>2022-08-25T09:01:19Z</time>
      </trkpt>
      <trkpt lat="42.735686000000314" lon="-1.7426810000000061">
        <ele>748.880</ele>
        <time>2022-08-25T09:01:36Z</time>
      </trkpt>
      <trkpt lat="42.735702000000316" lon="-1.742733000000006">
        <ele>748.823</ele>
        <time>2022-08-25T09:01:38Z</time>
      </trkpt>
      <trkpt lat="42.735742000000315" lon="-1.742969000000006">
        <ele>749.279</ele>
        <time>2022-08-25T09:01:44Z</time>
      </trkpt>
      <trkpt lat="42.73579100000031" lon="-1.743299000000006">
        <ele>748.850</ele>
        <time>2022-08-25T09:01:51Z</time>
      </trkpt>
      <trkpt lat="42.73579800000031" lon="-1.7433670000000059">
        <ele>748.662</ele>
        <time>2022-08-25T09:01:52Z</time>
      </trkpt>
      <trkpt lat="42.73580700000031" lon="-1.7434790000000058">
        <ele>748.483</ele>
        <time>2022-08-25T09:01:54Z</time>
      </trkpt>
      <trkpt lat="42.735842000000304" lon="-1.7436360000000057">
        <ele>748.011</ele>
        <time>2022-08-25T09:01:57Z</time>
      </trkpt>
      <trkpt lat="42.7358590000003" lon="-1.7437010000000057">
        <ele>747.809</ele>
        <time>2022-08-25T09:01:58Z</time>
      </trkpt>
      <trkpt lat="42.7358790000003" lon="-1.7438010000000057">
        <ele>747.637</ele>
        <time>2022-08-25T09:02:00Z</time>
      </trkpt>
      <trkpt lat="42.735915000000304" lon="-1.7441010000000057">
        <ele>746.857</ele>
        <time>2022-08-25T09:02:05Z</time>
      </trkpt>
      <trkpt lat="42.73592800000031" lon="-1.7442400000000056">
        <ele>746.617</ele>
        <time>2022-08-25T09:02:07Z</time>
      </trkpt>
      <trkpt lat="42.73598700000031" lon="-1.7446170000000056">
        <ele>746.013</ele>
        <time>2022-08-25T09:02:13Z</time>
      </trkpt>
      <trkpt lat="42.73599500000031" lon="-1.7447500000000056">
        <ele>745.485</ele>
        <time>2022-08-25T09:02:15Z</time>
      </trkpt>
      <trkpt lat="42.73603500000031" lon="-1.7450420000000055">
        <ele>745.052</ele>
        <time>2022-08-25T09:02:19Z</time>
      </trkpt>
      <trkpt lat="42.73609000000031" lon="-1.7454090000000055">
        <ele>744.655</ele>
        <time>2022-08-25T09:02:24Z</time>
      </trkpt>
      <trkpt lat="42.73613000000031" lon="-1.7458020000000056">
        <ele>743.851</ele>
        <time>2022-08-25T09:02:29Z</time>
      </trkpt>
      <trkpt lat="42.73614100000031" lon="-1.7458800000000056">
        <ele>743.422</ele>
        <time>2022-08-25T09:02:30Z</time>
      </trkpt>
      <trkpt lat="42.73616500000031" lon="-1.7463730000000057">
        <ele>741.853</ele>
        <time>2022-08-25T09:02:36Z</time>
      </trkpt>
      <trkpt lat="42.73616600000031" lon="-1.7464430000000057">
        <ele>741.604</ele>
        <time>2022-08-25T09:02:37Z</time>
      </trkpt>
      <trkpt lat="42.73616300000031" lon="-1.7471130000000057">
        <ele>740.814</ele>
        <time>2022-08-25T09:02:44Z</time>
      </trkpt>
      <trkpt lat="42.73622300000031" lon="-1.7477350000000056">
        <ele>739.609</ele>
        <time>2022-08-25T09:02:50Z</time>
      </trkpt>
      <trkpt lat="42.73636700000031" lon="-1.7482580000000056">
        <ele>738.466</ele>
        <time>2022-08-25T09:02:55Z</time>
      </trkpt>
      <trkpt lat="42.73643900000031" lon="-1.7484300000000057">
        <ele>737.496</ele>
        <time>2022-08-25T09:02:57Z</time>
      </trkpt>
      <trkpt lat="42.73661500000031" lon="-1.7488040000000058">
        <ele>736.426</ele>
        <time>2022-08-25T09:03:01Z</time>
      </trkpt>
      <trkpt lat="42.73665800000031" lon="-1.7488980000000058">
        <ele>736.022</ele>
        <time>2022-08-25T09:03:02Z</time>
      </trkpt>
      <trkpt lat="42.73670900000031" lon="-1.749008000000006">
        <ele>736.084</ele>
        <time>2022-08-25T09:03:03Z</time>
      </trkpt>
      <trkpt lat="42.73675300000031" lon="-1.749099000000006">
        <ele>735.861</ele>
        <time>2022-08-25T09:03:04Z</time>
      </trkpt>
      <trkpt lat="42.73686900000031" lon="-1.749356000000006">
        <ele>735.274</ele>
        <time>2022-08-25T09:03:07Z</time>
      </trkpt>
      <trkpt lat="42.73692000000031" lon="-1.749463000000006">
        <ele>734.820</ele>
        <time>2022-08-25T09:03:08Z</time>
      </trkpt>
      <trkpt lat="42.73703500000031" lon="-1.749713000000006">
        <ele>734.631</ele>
        <time>2022-08-25T09:03:11Z</time>
      </trkpt>
      <trkpt lat="42.73712200000031" lon="-1.749910000000006">
        <ele>734.296</ele>
        <time>2022-08-25T09:03:13Z</time>
      </trkpt>
      <trkpt lat="42.73715900000031" lon="-1.749999000000006">
        <ele>734.231</ele>
        <time>2022-08-25T09:03:14Z</time>
      </trkpt>
      <trkpt lat="42.73718800000031" lon="-1.750070000000006">
        <ele>733.824</ele>
        <time>2022-08-25T09:03:15Z</time>
      </trkpt>
      <trkpt lat="42.73722200000031" lon="-1.750157000000006">
        <ele>733.609</ele>
        <time>2022-08-25T09:03:16Z</time>
      </trkpt>
      <trkpt lat="42.73726200000031" lon="-1.750260000000006">
        <ele>733.440</ele>
        <time>2022-08-25T09:03:17Z</time>
      </trkpt>
      <trkpt lat="42.73729200000031" lon="-1.750343000000006">
        <ele>733.480</ele>
        <time>2022-08-25T09:03:18Z</time>
      </trkpt>
      <trkpt lat="42.73732200000031" lon="-1.750427000000006">
        <ele>733.410</ele>
        <time>2022-08-25T09:03:19Z</time>
      </trkpt>
      <trkpt lat="42.737346000000315" lon="-1.750492000000006">
        <ele>733.426</ele>
        <time>2022-08-25T09:03:20Z</time>
      </trkpt>
      <trkpt lat="42.737374000000315" lon="-1.7505740000000058">
        <ele>733.468</ele>
        <time>2022-08-25T09:03:21Z</time>
      </trkpt>
      <trkpt lat="42.73740600000031" lon="-1.7506720000000058">
        <ele>733.285</ele>
        <time>2022-08-25T09:03:22Z</time>
      </trkpt>
      <trkpt lat="42.737428000000314" lon="-1.7507560000000058">
        <ele>733.258</ele>
        <time>2022-08-25T09:03:23Z</time>
      </trkpt>
      <trkpt lat="42.737450000000315" lon="-1.7508390000000058">
        <ele>733.284</ele>
        <time>2022-08-25T09:03:24Z</time>
      </trkpt>
      <trkpt lat="42.73748800000032" lon="-1.7509920000000059">
        <ele>733.255</ele>
        <time>2022-08-25T09:03:26Z</time>
      </trkpt>
      <trkpt lat="42.737540000000315" lon="-1.7512540000000059">
        <ele>733.028</ele>
        <time>2022-08-25T09:03:29Z</time>
      </trkpt>
      <trkpt lat="42.73755900000032" lon="-1.7513390000000058">
        <ele>732.889</ele>
        <time>2022-08-25T09:03:30Z</time>
      </trkpt>
      <trkpt lat="42.73758600000032" lon="-1.7515300000000058">
        <ele>732.617</ele>
        <time>2022-08-25T09:03:32Z</time>
      </trkpt>
      <trkpt lat="42.73760100000032" lon="-1.7516110000000058">
        <ele>732.409</ele>
        <time>2022-08-25T09:03:33Z</time>
      </trkpt>
      <trkpt lat="42.73761200000032" lon="-1.751672000000006">
        <ele>732.443</ele>
        <time>2022-08-25T09:03:34Z</time>
      </trkpt>
      <trkpt lat="42.73762200000032" lon="-1.7517480000000059">
        <ele>732.473</ele>
        <time>2022-08-25T09:03:35Z</time>
      </trkpt>
      <trkpt lat="42.73764300000032" lon="-1.751836000000006">
        <ele>732.433</ele>
        <time>2022-08-25T09:03:36Z</time>
      </trkpt>
      <trkpt lat="42.737661000000315" lon="-1.7519070000000059">
        <ele>732.449</ele>
        <time>2022-08-25T09:03:37Z</time>
      </trkpt>
      <trkpt lat="42.737715000000314" lon="-1.752106000000006">
        <ele>732.481</ele>
        <time>2022-08-25T09:03:40Z</time>
      </trkpt>
      <trkpt lat="42.73773600000031" lon="-1.752189000000006">
        <ele>732.428</ele>
        <time>2022-08-25T09:03:41Z</time>
      </trkpt>
      <trkpt lat="42.73775500000031" lon="-1.752255000000006">
        <ele>732.241</ele>
        <time>2022-08-25T09:03:42Z</time>
      </trkpt>
      <trkpt lat="42.737774000000314" lon="-1.752316000000006">
        <ele>732.287</ele>
        <time>2022-08-25T09:03:43Z</time>
      </trkpt>
      <trkpt lat="42.73778600000031" lon="-1.752364000000006">
        <ele>732.218</ele>
        <time>2022-08-25T09:03:44Z</time>
      </trkpt>
      <trkpt lat="42.73780100000031" lon="-1.752421000000006">
        <ele>732.236</ele>
        <time>2022-08-25T09:03:45Z</time>
      </trkpt>
      <trkpt lat="42.73781900000031" lon="-1.752491000000006">
        <ele>732.217</ele>
        <time>2022-08-25T09:03:46Z</time>
      </trkpt>
      <trkpt lat="42.737845000000306" lon="-1.752611000000006">
        <ele>732.018</ele>
        <time>2022-08-25T09:03:48Z</time>
      </trkpt>
      <trkpt lat="42.73785500000031" lon="-1.7526550000000058">
        <ele>731.809</ele>
        <time>2022-08-25T09:03:49Z</time>
      </trkpt>
      <trkpt lat="42.73786800000031" lon="-1.7527120000000058">
        <ele>731.814</ele>
        <time>2022-08-25T09:03:50Z</time>
      </trkpt>
      <trkpt lat="42.73789900000031" lon="-1.7528390000000058">
        <ele>731.884</ele>
        <time>2022-08-25T09:03:52Z</time>
      </trkpt>
      <trkpt lat="42.737968000000315" lon="-1.7531440000000058">
        <ele>731.014</ele>
        <time>2022-08-25T09:03:57Z</time>
      </trkpt>
      <trkpt lat="42.73798000000031" lon="-1.7531950000000058">
        <ele>730.480</ele>
        <time>2022-08-25T09:03:58Z</time>
      </trkpt>
      <trkpt lat="42.73801100000031" lon="-1.7533440000000058">
        <ele>729.482</ele>
        <time>2022-08-25T09:04:00Z</time>
      </trkpt>
      <trkpt lat="42.738041000000315" lon="-1.7534850000000057">
        <ele>728.039</ele>
        <time>2022-08-25T09:04:02Z</time>
      </trkpt>
      <trkpt lat="42.738075000000315" lon="-1.7536080000000058">
        <ele>726.852</ele>
        <time>2022-08-25T09:04:04Z</time>
      </trkpt>
      <trkpt lat="42.73815000000032" lon="-1.7539080000000058">
        <ele>725.658</ele>
        <time>2022-08-25T09:04:08Z</time>
      </trkpt>
      <trkpt lat="42.738199000000314" lon="-1.7540940000000058">
        <ele>724.849</ele>
        <time>2022-08-25T09:04:10Z</time>
      </trkpt>
      <trkpt lat="42.738244000000314" lon="-1.7542560000000058">
        <ele>724.216</ele>
        <time>2022-08-25T09:04:12Z</time>
      </trkpt>
      <trkpt lat="42.73831900000032" lon="-1.7545700000000057">
        <ele>723.276</ele>
        <time>2022-08-25T09:04:15Z</time>
      </trkpt>
      <trkpt lat="42.738339000000316" lon="-1.7546760000000057">
        <ele>723.013</ele>
        <time>2022-08-25T09:04:16Z</time>
      </trkpt>
      <trkpt lat="42.73840200000031" lon="-1.7549900000000056">
        <ele>722.209</ele>
        <time>2022-08-25T09:04:19Z</time>
      </trkpt>
      <trkpt lat="42.73842500000031" lon="-1.7550850000000056">
        <ele>721.852</ele>
        <time>2022-08-25T09:04:20Z</time>
      </trkpt>
      <trkpt lat="42.738444000000314" lon="-1.7551590000000055">
        <ele>721.052</ele>
        <time>2022-08-25T09:04:21Z</time>
      </trkpt>
      <trkpt lat="42.73846700000031" lon="-1.7552510000000054">
        <ele>720.272</ele>
        <time>2022-08-25T09:04:22Z</time>
      </trkpt>
      <trkpt lat="42.738491000000316" lon="-1.7553580000000055">
        <ele>719.888</ele>
        <time>2022-08-25T09:04:23Z</time>
      </trkpt>
      <trkpt lat="42.738511000000315" lon="-1.7554420000000055">
        <ele>719.260</ele>
        <time>2022-08-25T09:04:24Z</time>
      </trkpt>
      <trkpt lat="42.73854700000032" lon="-1.7555980000000055">
        <ele>717.827</ele>
        <time>2022-08-25T09:04:26Z</time>
      </trkpt>
      <trkpt lat="42.73859200000032" lon="-1.7558020000000056">
        <ele>716.660</ele>
        <time>2022-08-25T09:04:28Z</time>
      </trkpt>
      <trkpt lat="42.73865600000032" lon="-1.7560830000000056">
        <ele>714.896</ele>
        <time>2022-08-25T09:04:31Z</time>
      </trkpt>
      <trkpt lat="42.73873500000032" lon="-1.7564180000000056">
        <ele>713.447</ele>
        <time>2022-08-25T09:04:34Z</time>
      </trkpt>
      <trkpt lat="42.73875800000032" lon="-1.7565270000000055">
        <ele>713.247</ele>
        <time>2022-08-25T09:04:35Z</time>
      </trkpt>
      <trkpt lat="42.73882700000032" lon="-1.7568360000000054">
        <ele>712.029</ele>
        <time>2022-08-25T09:04:38Z</time>
      </trkpt>
      <trkpt lat="42.73887100000032" lon="-1.7570680000000054">
        <ele>710.821</ele>
        <time>2022-08-25T09:04:40Z</time>
      </trkpt>
      <trkpt lat="42.73889700000032" lon="-1.7571820000000054">
        <ele>710.409</ele>
        <time>2022-08-25T09:04:41Z</time>
      </trkpt>
      <trkpt lat="42.73892500000032" lon="-1.7573200000000053">
        <ele>709.865</ele>
        <time>2022-08-25T09:04:42Z</time>
      </trkpt>
      <trkpt lat="42.73897500000032" lon="-1.7575510000000054">
        <ele>708.615</ele>
        <time>2022-08-25T09:04:44Z</time>
      </trkpt>
      <trkpt lat="42.739022000000325" lon="-1.7577580000000055">
        <ele>707.475</ele>
        <time>2022-08-25T09:04:46Z</time>
      </trkpt>
      <trkpt lat="42.739084000000325" lon="-1.7580060000000055">
        <ele>706.031</ele>
        <time>2022-08-25T09:04:48Z</time>
      </trkpt>
      <trkpt lat="42.73911100000033" lon="-1.7581170000000055">
        <ele>705.673</ele>
        <time>2022-08-25T09:04:49Z</time>
      </trkpt>
      <trkpt lat="42.73913100000033" lon="-1.7582060000000055">
        <ele>705.230</ele>
        <time>2022-08-25T09:04:50Z</time>
      </trkpt>
      <trkpt lat="42.73918600000033" lon="-1.7584520000000055">
        <ele>704.423</ele>
        <time>2022-08-25T09:04:52Z</time>
      </trkpt>
      <trkpt lat="42.73927000000033" lon="-1.7587730000000055">
        <ele>702.659</ele>
        <time>2022-08-25T09:04:55Z</time>
      </trkpt>
      <trkpt lat="42.73936700000033" lon="-1.7591490000000054">
        <ele>701.280</ele>
        <time>2022-08-25T09:04:58Z</time>
      </trkpt>
      <trkpt lat="42.739458000000326" lon="-1.7595040000000055">
        <ele>700.268</ele>
        <time>2022-08-25T09:05:01Z</time>
      </trkpt>
      <trkpt lat="42.73948200000033" lon="-1.7595950000000056">
        <ele>699.842</ele>
        <time>2022-08-25T09:05:02Z</time>
      </trkpt>
      <trkpt lat="42.73951800000033" lon="-1.7597330000000055">
        <ele>699.626</ele>
        <time>2022-08-25T09:05:03Z</time>
      </trkpt>
      <trkpt lat="42.739542000000334" lon="-1.7598240000000056">
        <ele>698.809</ele>
        <time>2022-08-25T09:05:04Z</time>
      </trkpt>
      <trkpt lat="42.73957200000034" lon="-1.7599390000000057">
        <ele>698.417</ele>
        <time>2022-08-25T09:05:05Z</time>
      </trkpt>
      <trkpt lat="42.739606000000336" lon="-1.7600770000000057">
        <ele>698.087</ele>
        <time>2022-08-25T09:05:06Z</time>
      </trkpt>
      <trkpt lat="42.73962700000033" lon="-1.7601690000000056">
        <ele>697.837</ele>
        <time>2022-08-25T09:05:07Z</time>
      </trkpt>
      <trkpt lat="42.73965800000033" lon="-1.7603030000000057">
        <ele>697.423</ele>
        <time>2022-08-25T09:05:08Z</time>
      </trkpt>
      <trkpt lat="42.739680000000334" lon="-1.7603900000000057">
        <ele>697.025</ele>
        <time>2022-08-25T09:05:09Z</time>
      </trkpt>
      <trkpt lat="42.73970700000034" lon="-1.7604960000000056">
        <ele>696.672</ele>
        <time>2022-08-25T09:05:10Z</time>
      </trkpt>
      <trkpt lat="42.73973800000034" lon="-1.7606230000000056">
        <ele>695.825</ele>
        <time>2022-08-25T09:05:11Z</time>
      </trkpt>
      <trkpt lat="42.739761000000335" lon="-1.7607310000000056">
        <ele>695.661</ele>
        <time>2022-08-25T09:05:12Z</time>
      </trkpt>
      <trkpt lat="42.73978500000034" lon="-1.7608370000000055">
        <ele>695.242</ele>
        <time>2022-08-25T09:05:13Z</time>
      </trkpt>
      <trkpt lat="42.73980500000034" lon="-1.7609210000000055">
        <ele>695.045</ele>
        <time>2022-08-25T09:05:14Z</time>
      </trkpt>
      <trkpt lat="42.73983300000034" lon="-1.7610240000000055">
        <ele>694.447</ele>
        <time>2022-08-25T09:05:15Z</time>
      </trkpt>
      <trkpt lat="42.739865000000336" lon="-1.7611480000000055">
        <ele>693.811</ele>
        <time>2022-08-25T09:05:16Z</time>
      </trkpt>
      <trkpt lat="42.73988900000034" lon="-1.7612480000000055">
        <ele>693.609</ele>
        <time>2022-08-25T09:05:17Z</time>
      </trkpt>
      <trkpt lat="42.73991200000034" lon="-1.7613480000000055">
        <ele>692.655</ele>
        <time>2022-08-25T09:05:18Z</time>
      </trkpt>
      <trkpt lat="42.73998500000034" lon="-1.7616570000000054">
        <ele>691.435</ele>
        <time>2022-08-25T09:05:21Z</time>
      </trkpt>
      <trkpt lat="42.740037000000335" lon="-1.7618410000000053">
        <ele>690.485</ele>
        <time>2022-08-25T09:05:23Z</time>
      </trkpt>
      <trkpt lat="42.74012800000033" lon="-1.7621730000000053">
        <ele>689.251</ele>
        <time>2022-08-25T09:05:26Z</time>
      </trkpt>
      <trkpt lat="42.74017300000033" lon="-1.7623670000000053">
        <ele>688.243</ele>
        <time>2022-08-25T09:05:28Z</time>
      </trkpt>
      <trkpt lat="42.74019900000033" lon="-1.7624740000000054">
        <ele>687.880</ele>
        <time>2022-08-25T09:05:29Z</time>
      </trkpt>
      <trkpt lat="42.74022900000033" lon="-1.7626060000000054">
        <ele>687.453</ele>
        <time>2022-08-25T09:05:30Z</time>
      </trkpt>
      <trkpt lat="42.74028000000033" lon="-1.7628300000000054">
        <ele>686.879</ele>
        <time>2022-08-25T09:05:32Z</time>
      </trkpt>
      <trkpt lat="42.74030100000033" lon="-1.7629180000000055">
        <ele>686.860</ele>
        <time>2022-08-25T09:05:33Z</time>
      </trkpt>
      <trkpt lat="42.74032400000033" lon="-1.7630260000000055">
        <ele>686.065</ele>
        <time>2022-08-25T09:05:34Z</time>
      </trkpt>
      <trkpt lat="42.74034800000033" lon="-1.7631560000000055">
        <ele>685.468</ele>
        <time>2022-08-25T09:05:35Z</time>
      </trkpt>
      <trkpt lat="42.740389000000334" lon="-1.7634600000000056">
        <ele>684.414</ele>
        <time>2022-08-25T09:05:38Z</time>
      </trkpt>
      <trkpt lat="42.740397000000335" lon="-1.7637090000000055">
        <ele>683.209</ele>
        <time>2022-08-25T09:05:40Z</time>
      </trkpt>
      <trkpt lat="42.740394000000336" lon="-1.7638220000000056">
        <ele>682.287</ele>
        <time>2022-08-25T09:05:41Z</time>
      </trkpt>
      <trkpt lat="42.74038700000034" lon="-1.7639100000000056">
        <ele>681.427</ele>
        <time>2022-08-25T09:05:42Z</time>
      </trkpt>
      <trkpt lat="42.74038000000034" lon="-1.7640110000000055">
        <ele>681.267</ele>
        <time>2022-08-25T09:05:43Z</time>
      </trkpt>
      <trkpt lat="42.740374000000344" lon="-1.7641050000000056">
        <ele>680.463</ele>
        <time>2022-08-25T09:05:44Z</time>
      </trkpt>
      <trkpt lat="42.740368000000345" lon="-1.7642110000000055">
        <ele>680.075</ele>
        <time>2022-08-25T09:05:45Z</time>
      </trkpt>
      <trkpt lat="42.74036100000035" lon="-1.7642850000000054">
        <ele>679.442</ele>
        <time>2022-08-25T09:05:46Z</time>
      </trkpt>
      <trkpt lat="42.74035300000035" lon="-1.7643410000000055">
        <ele>679.035</ele>
        <time>2022-08-25T09:05:47Z</time>
      </trkpt>
      <trkpt lat="42.740348000000346" lon="-1.7644070000000054">
        <ele>677.611</ele>
        <time>2022-08-25T09:05:48Z</time>
      </trkpt>
      <trkpt lat="42.740345000000346" lon="-1.7644780000000053">
        <ele>676.282</ele>
        <time>2022-08-25T09:05:49Z</time>
      </trkpt>
      <trkpt lat="42.74034400000035" lon="-1.7645170000000052">
        <ele>675.875</ele>
        <time>2022-08-25T09:05:50Z</time>
      </trkpt>
      <trkpt lat="42.74034600000035" lon="-1.7645710000000052">
        <ele>675.228</ele>
        <time>2022-08-25T09:05:51Z</time>
      </trkpt>
      <trkpt lat="42.74034900000035" lon="-1.7646050000000053">
        <ele>675.020</ele>
        <time>2022-08-25T09:05:52Z</time>
      </trkpt>
      <trkpt lat="42.74034900000035" lon="-1.7646420000000054">
        <ele>674.609</ele>
        <time>2022-08-25T09:05:53Z</time>
      </trkpt>
      <trkpt lat="42.74034600000035" lon="-1.7646680000000055">
        <ele>674.458</ele>
        <time>2022-08-25T09:05:54Z</time>
      </trkpt>
      <trkpt lat="42.74034100000035" lon="-1.7646940000000055">
        <ele>673.698</ele>
        <time>2022-08-25T09:05:55Z</time>
      </trkpt>
      <trkpt lat="42.74033800000035" lon="-1.7647010000000056">
        <ele>673.098</ele>
        <time>2022-08-25T09:05:56Z</time>
      </trkpt>
      <trkpt lat="42.74033100000035" lon="-1.7647040000000056">
        <ele>672.884</ele>
        <time>2022-08-25T09:05:57Z</time>
      </trkpt>
      <trkpt lat="42.74032300000035" lon="-1.7647040000000056">
        <ele>672.056</ele>
        <time>2022-08-25T09:05:58Z</time>
      </trkpt>
      <trkpt lat="42.74031000000035" lon="-1.7646940000000055">
        <ele>671.873</ele>
        <time>2022-08-25T09:05:59Z</time>
      </trkpt>
      <trkpt lat="42.74029400000035" lon="-1.7646860000000055">
        <ele>671.446</ele>
        <time>2022-08-25T09:06:00Z</time>
      </trkpt>
      <trkpt lat="42.74027600000035" lon="-1.7646940000000055">
        <ele>671.462</ele>
        <time>2022-08-25T09:06:01Z</time>
      </trkpt>
      <trkpt lat="42.74026200000035" lon="-1.7647120000000056">
        <ele>671.243</ele>
        <time>2022-08-25T09:06:02Z</time>
      </trkpt>
      <trkpt lat="42.74024100000035" lon="-1.7647440000000056">
        <ele>671.023</ele>
        <time>2022-08-25T09:06:03Z</time>
      </trkpt>
      <trkpt lat="42.740212000000355" lon="-1.7647870000000057">
        <ele>670.883</ele>
        <time>2022-08-25T09:06:04Z</time>
      </trkpt>
      <trkpt lat="42.74017900000035" lon="-1.7648190000000057">
        <ele>670.611</ele>
        <time>2022-08-25T09:06:05Z</time>
      </trkpt>
      <trkpt lat="42.740144000000356" lon="-1.7648390000000056">
        <ele>670.409</ele>
        <time>2022-08-25T09:06:06Z</time>
      </trkpt>
      <trkpt lat="42.740099000000356" lon="-1.7648590000000055">
        <ele>670.023</ele>
        <time>2022-08-25T09:06:07Z</time>
      </trkpt>
      <trkpt lat="42.74004400000035" lon="-1.7648730000000055">
        <ele>669.623</ele>
        <time>2022-08-25T09:06:08Z</time>
      </trkpt>
      <trkpt lat="42.73999600000035" lon="-1.7648800000000056">
        <ele>669.023</ele>
        <time>2022-08-25T09:06:09Z</time>
      </trkpt>
      <trkpt lat="42.739945000000354" lon="-1.7648820000000056">
        <ele>668.269</ele>
        <time>2022-08-25T09:06:10Z</time>
      </trkpt>
      <trkpt lat="42.73990900000035" lon="-1.7648800000000056">
        <ele>668.031</ele>
        <time>2022-08-25T09:06:11Z</time>
      </trkpt>
      <trkpt lat="42.739810000000354" lon="-1.7648780000000055">
        <ele>666.818</ele>
        <time>2022-08-25T09:06:13Z</time>
      </trkpt>
      <trkpt lat="42.739765000000354" lon="-1.7648780000000055">
        <ele>665.461</ele>
        <time>2022-08-25T09:06:14Z</time>
      </trkpt>
      <trkpt lat="42.73973000000036" lon="-1.7648780000000055">
        <ele>665.027</ele>
        <time>2022-08-25T09:06:15Z</time>
      </trkpt>
      <trkpt lat="42.739641000000354" lon="-1.7648790000000054">
        <ele>664.088</ele>
        <time>2022-08-25T09:06:17Z</time>
      </trkpt>
      <trkpt lat="42.739599000000354" lon="-1.7648770000000054">
        <ele>663.442</ele>
        <time>2022-08-25T09:06:18Z</time>
      </trkpt>
      <trkpt lat="42.739551000000354" lon="-1.7648780000000053">
        <ele>662.022</ele>
        <time>2022-08-25T09:06:19Z</time>
      </trkpt>
      <trkpt lat="42.739508000000356" lon="-1.7648830000000053">
        <ele>661.614</ele>
        <time>2022-08-25T09:06:20Z</time>
      </trkpt>
      <trkpt lat="42.739472000000355" lon="-1.7648900000000054">
        <ele>660.609</ele>
        <time>2022-08-25T09:06:21Z</time>
      </trkpt>
      <trkpt lat="42.73943300000035" lon="-1.7648940000000053">
        <ele>660.285</ele>
        <time>2022-08-25T09:06:22Z</time>
      </trkpt>
      <trkpt lat="42.73939500000035" lon="-1.7648970000000053">
        <ele>659.635</ele>
        <time>2022-08-25T09:06:23Z</time>
      </trkpt>
      <trkpt lat="42.739357000000346" lon="-1.7649040000000054">
        <ele>659.035</ele>
        <time>2022-08-25T09:06:24Z</time>
      </trkpt>
      <trkpt lat="42.73933900000035" lon="-1.7649100000000053">
        <ele>658.671</ele>
        <time>2022-08-25T09:06:25Z</time>
      </trkpt>
      <trkpt lat="42.73932000000035" lon="-1.7649150000000053">
        <ele>658.053</ele>
        <time>2022-08-25T09:06:26Z</time>
      </trkpt>
      <trkpt lat="42.73930000000035" lon="-1.7649220000000054">
        <ele>657.680</ele>
        <time>2022-08-25T09:06:27Z</time>
      </trkpt>
      <trkpt lat="42.73928600000035" lon="-1.7649250000000054">
        <ele>657.233</ele>
        <time>2022-08-25T09:06:28Z</time>
      </trkpt>
      <trkpt lat="42.73926400000035" lon="-1.7649370000000053">
        <ele>656.829</ele>
        <time>2022-08-25T09:06:29Z</time>
      </trkpt>
      <trkpt lat="42.739220000000344" lon="-1.7649800000000053">
        <ele>655.820</ele>
        <time>2022-08-25T09:06:31Z</time>
      </trkpt>
      <trkpt lat="42.739180000000346" lon="-1.7650080000000052">
        <ele>655.684</ele>
        <time>2022-08-25T09:06:32Z</time>
      </trkpt>
      <trkpt lat="42.73913400000035" lon="-1.7650300000000052">
        <ele>655.407</ele>
        <time>2022-08-25T09:06:33Z</time>
      </trkpt>
      <trkpt lat="42.73908500000035" lon="-1.7650390000000051">
        <ele>655.217</ele>
        <time>2022-08-25T09:06:34Z</time>
      </trkpt>
      <trkpt lat="42.73903500000035" lon="-1.7650390000000051">
        <ele>655.209</ele>
        <time>2022-08-25T09:06:35Z</time>
      </trkpt>
      <trkpt lat="42.73898400000035" lon="-1.765032000000005">
        <ele>655.099</ele>
        <time>2022-08-25T09:06:36Z</time>
      </trkpt>
      <trkpt lat="42.73893400000035" lon="-1.7650230000000051">
        <ele>654.619</ele>
        <time>2022-08-25T09:06:37Z</time>
      </trkpt>
      <trkpt lat="42.738879000000345" lon="-1.7650140000000052">
        <ele>654.069</ele>
        <time>2022-08-25T09:06:38Z</time>
      </trkpt>
      <trkpt lat="42.73863800000034" lon="-1.764964000000005">
        <ele>652.845</ele>
        <time>2022-08-25T09:06:42Z</time>
      </trkpt>
      <trkpt lat="42.738575000000345" lon="-1.7649500000000051">
        <ele>652.447</ele>
        <time>2022-08-25T09:06:43Z</time>
      </trkpt>
      <trkpt lat="42.738449000000344" lon="-1.7649170000000052">
        <ele>651.224</ele>
        <time>2022-08-25T09:06:45Z</time>
      </trkpt>
      <trkpt lat="42.73825900000034" lon="-1.7648510000000053">
        <ele>650.037</ele>
        <time>2022-08-25T09:06:48Z</time>
      </trkpt>
      <trkpt lat="42.73810600000034" lon="-1.7647880000000054">
        <ele>648.663</ele>
        <time>2022-08-25T09:06:50Z</time>
      </trkpt>
      <trkpt lat="42.737810000000344" lon="-1.7646180000000053">
        <ele>647.074</ele>
        <time>2022-08-25T09:06:54Z</time>
      </trkpt>
      <trkpt lat="42.737672000000344" lon="-1.7645220000000053">
        <ele>646.047</ele>
        <time>2022-08-25T09:06:56Z</time>
      </trkpt>
      <trkpt lat="42.737576000000345" lon="-1.7644530000000052">
        <ele>645.429</ele>
        <time>2022-08-25T09:06:57Z</time>
      </trkpt>
      <trkpt lat="42.73741200000035" lon="-1.7643330000000053">
        <ele>644.221</ele>
        <time>2022-08-25T09:06:59Z</time>
      </trkpt>
      <trkpt lat="42.737244000000345" lon="-1.7642200000000052">
        <ele>643.209</ele>
        <time>2022-08-25T09:07:01Z</time>
      </trkpt>
      <trkpt lat="42.73707100000035" lon="-1.7641130000000051">
        <ele>641.625</ele>
        <time>2022-08-25T09:07:03Z</time>
      </trkpt>
      <trkpt lat="42.73688800000035" lon="-1.7640230000000052">
        <ele>640.235</ele>
        <time>2022-08-25T09:07:05Z</time>
      </trkpt>
      <trkpt lat="42.73681400000035" lon="-1.7639920000000053">
        <ele>638.895</ele>
        <time>2022-08-25T09:07:06Z</time>
      </trkpt>
      <trkpt lat="42.736610000000354" lon="-1.7639170000000053">
        <ele>636.831</ele>
        <time>2022-08-25T09:07:08Z</time>
      </trkpt>
      <trkpt lat="42.73651500000035" lon="-1.7638870000000053">
        <ele>636.253</ele>
        <time>2022-08-25T09:07:09Z</time>
      </trkpt>
      <trkpt lat="42.73643900000035" lon="-1.7638630000000053">
        <ele>635.290</ele>
        <time>2022-08-25T09:07:10Z</time>
      </trkpt>
      <trkpt lat="42.736233000000354" lon="-1.7637980000000053">
        <ele>633.843</ele>
        <time>2022-08-25T09:07:12Z</time>
      </trkpt>
      <trkpt lat="42.73613900000036" lon="-1.7637690000000052">
        <ele>632.829</ele>
        <time>2022-08-25T09:07:13Z</time>
      </trkpt>
      <trkpt lat="42.73596300000035" lon="-1.7637160000000052">
        <ele>631.060</ele>
        <time>2022-08-25T09:07:15Z</time>
      </trkpt>
      <trkpt lat="42.735734000000356" lon="-1.7636510000000052">
        <ele>629.266</ele>
        <time>2022-08-25T09:07:17Z</time>
      </trkpt>
      <trkpt lat="42.73562400000036" lon="-1.7636200000000053">
        <ele>628.029</ele>
        <time>2022-08-25T09:07:18Z</time>
      </trkpt>
      <trkpt lat="42.73551400000036" lon="-1.7635910000000052">
        <ele>627.621</ele>
        <time>2022-08-25T09:07:19Z</time>
      </trkpt>
      <trkpt lat="42.73540300000036" lon="-1.7635630000000053">
        <ele>626.809</ele>
        <time>2022-08-25T09:07:20Z</time>
      </trkpt>
      <trkpt lat="42.73529500000036" lon="-1.7635390000000053">
        <ele>626.467</ele>
        <time>2022-08-25T09:07:21Z</time>
      </trkpt>
      <trkpt lat="42.73518800000036" lon="-1.7635160000000052">
        <ele>625.457</ele>
        <time>2022-08-25T09:07:22Z</time>
      </trkpt>
      <trkpt lat="42.73508400000036" lon="-1.7634950000000051">
        <ele>625.047</ele>
        <time>2022-08-25T09:07:23Z</time>
      </trkpt>
      <trkpt lat="42.734979000000365" lon="-1.7634760000000052">
        <ele>624.093</ele>
        <time>2022-08-25T09:07:24Z</time>
      </trkpt>
      <trkpt lat="42.73478700000037" lon="-1.7634520000000051">
        <ele>622.465</ele>
        <time>2022-08-25T09:07:26Z</time>
      </trkpt>
      <trkpt lat="42.73468000000037" lon="-1.7634430000000052">
        <ele>621.272</ele>
        <time>2022-08-25T09:07:27Z</time>
      </trkpt>
      <trkpt lat="42.734442000000364" lon="-1.7634270000000052">
        <ele>619.445</ele>
        <time>2022-08-25T09:07:29Z</time>
      </trkpt>
      <trkpt lat="42.73435900000037" lon="-1.7634260000000053">
        <ele>618.611</ele>
        <time>2022-08-25T09:07:30Z</time>
      </trkpt>
      <trkpt lat="42.734256000000364" lon="-1.7634270000000052">
        <ele>617.292</ele>
        <time>2022-08-25T09:07:31Z</time>
      </trkpt>
      <trkpt lat="42.734152000000364" lon="-1.7634300000000052">
        <ele>616.436</ele>
        <time>2022-08-25T09:07:32Z</time>
      </trkpt>
      <trkpt lat="42.73405200000036" lon="-1.763434000000005">
        <ele>615.817</ele>
        <time>2022-08-25T09:07:33Z</time>
      </trkpt>
      <trkpt lat="42.73395400000036" lon="-1.763439000000005">
        <ele>614.618</ele>
        <time>2022-08-25T09:07:34Z</time>
      </trkpt>
      <trkpt lat="42.73375600000036" lon="-1.763448000000005">
        <ele>612.409</ele>
        <time>2022-08-25T09:07:36Z</time>
      </trkpt>
      <trkpt lat="42.733659000000365" lon="-1.763453000000005">
        <ele>611.864</ele>
        <time>2022-08-25T09:07:37Z</time>
      </trkpt>
      <trkpt lat="42.733564000000364" lon="-1.763458000000005">
        <ele>610.864</ele>
        <time>2022-08-25T09:07:38Z</time>
      </trkpt>
      <trkpt lat="42.73347200000036" lon="-1.763463000000005">
        <ele>609.834</ele>
        <time>2022-08-25T09:07:39Z</time>
      </trkpt>
      <trkpt lat="42.73337700000036" lon="-1.763469000000005">
        <ele>609.460</ele>
        <time>2022-08-25T09:07:40Z</time>
      </trkpt>
      <trkpt lat="42.73328300000036" lon="-1.763475000000005">
        <ele>608.282</ele>
        <time>2022-08-25T09:07:41Z</time>
      </trkpt>
      <trkpt lat="42.73319000000036" lon="-1.763483000000005">
        <ele>607.879</ele>
        <time>2022-08-25T09:07:42Z</time>
      </trkpt>
      <trkpt lat="42.733096000000366" lon="-1.763493000000005">
        <ele>606.842</ele>
        <time>2022-08-25T09:07:43Z</time>
      </trkpt>
      <trkpt lat="42.732897000000364" lon="-1.763523000000005">
        <ele>605.048</ele>
        <time>2022-08-25T09:07:45Z</time>
      </trkpt>
      <trkpt lat="42.73268600000036" lon="-1.7635730000000052">
        <ele>603.639</ele>
        <time>2022-08-25T09:07:47Z</time>
      </trkpt>
      <trkpt lat="42.732581000000366" lon="-1.7636020000000052">
        <ele>602.236</ele>
        <time>2022-08-25T09:07:48Z</time>
      </trkpt>
      <trkpt lat="42.73237700000037" lon="-1.7636750000000052">
        <ele>600.417</ele>
        <time>2022-08-25T09:07:50Z</time>
      </trkpt>
      <trkpt lat="42.73217700000037" lon="-1.7637690000000052">
        <ele>598.818</ele>
        <time>2022-08-25T09:07:52Z</time>
      </trkpt>
      <trkpt lat="42.73207800000037" lon="-1.7638220000000053">
        <ele>597.809</ele>
        <time>2022-08-25T09:07:53Z</time>
      </trkpt>
      <trkpt lat="42.731981000000374" lon="-1.7638810000000054">
        <ele>597.264</ele>
        <time>2022-08-25T09:07:54Z</time>
      </trkpt>
      <trkpt lat="42.73179000000037" lon="-1.7640150000000054">
        <ele>595.684</ele>
        <time>2022-08-25T09:07:56Z</time>
      </trkpt>
      <trkpt lat="42.731696000000376" lon="-1.7640860000000054">
        <ele>594.064</ele>
        <time>2022-08-25T09:07:57Z</time>
      </trkpt>
      <trkpt lat="42.731606000000376" lon="-1.7641630000000055">
        <ele>593.440</ele>
        <time>2022-08-25T09:07:58Z</time>
      </trkpt>
      <trkpt lat="42.73151800000038" lon="-1.7642450000000054">
        <ele>592.072</ele>
        <time>2022-08-25T09:07:59Z</time>
      </trkpt>
      <trkpt lat="42.731432000000375" lon="-1.7643330000000055">
        <ele>590.829</ele>
        <time>2022-08-25T09:08:00Z</time>
      </trkpt>
      <trkpt lat="42.731260000000375" lon="-1.7645160000000055">
        <ele>589.062</ele>
        <time>2022-08-25T09:08:02Z</time>
      </trkpt>
      <trkpt lat="42.73109000000038" lon="-1.7647070000000056">
        <ele>587.258</ele>
        <time>2022-08-25T09:08:04Z</time>
      </trkpt>
      <trkpt lat="42.73100900000038" lon="-1.7648010000000056">
        <ele>586.279</ele>
        <time>2022-08-25T09:08:05Z</time>
      </trkpt>
      <trkpt lat="42.73093000000038" lon="-1.7648930000000056">
        <ele>585.457</ele>
        <time>2022-08-25T09:08:06Z</time>
      </trkpt>
      <trkpt lat="42.73085400000038" lon="-1.7649830000000055">
        <ele>584.200</ele>
        <time>2022-08-25T09:08:07Z</time>
      </trkpt>
      <trkpt lat="42.730779000000375" lon="-1.7650720000000055">
        <ele>583.620</ele>
        <time>2022-08-25T09:08:08Z</time>
      </trkpt>
      <trkpt lat="42.73070400000037" lon="-1.7651610000000055">
        <ele>582.009</ele>
        <time>2022-08-25T09:08:09Z</time>
      </trkpt>
      <trkpt lat="42.73061100000037" lon="-1.7652590000000055">
        <ele>581.436</ele>
        <time>2022-08-25T09:08:10Z</time>
      </trkpt>
      <trkpt lat="42.730548000000375" lon="-1.7653240000000054">
        <ele>580.236</ele>
        <time>2022-08-25T09:08:11Z</time>
      </trkpt>
      <trkpt lat="42.730469000000376" lon="-1.7654050000000054">
        <ele>578.856</ele>
        <time>2022-08-25T09:08:12Z</time>
      </trkpt>
      <trkpt lat="42.73030500000038" lon="-1.7655630000000055">
        <ele>577.272</ele>
        <time>2022-08-25T09:08:14Z</time>
      </trkpt>
      <trkpt lat="42.73013000000038" lon="-1.7657160000000056">
        <ele>575.444</ele>
        <time>2022-08-25T09:08:16Z</time>
      </trkpt>
      <trkpt lat="42.72993900000038" lon="-1.7658530000000057">
        <ele>574.011</ele>
        <time>2022-08-25T09:08:18Z</time>
      </trkpt>
      <trkpt lat="42.72973400000038" lon="-1.7659740000000057">
        <ele>572.494</ele>
        <time>2022-08-25T09:08:20Z</time>
      </trkpt>
      <trkpt lat="42.72962900000038" lon="-1.7660270000000058">
        <ele>571.660</ele>
        <time>2022-08-25T09:08:21Z</time>
      </trkpt>
      <trkpt lat="42.72952500000038" lon="-1.7660730000000058">
        <ele>571.031</ele>
        <time>2022-08-25T09:08:22Z</time>
      </trkpt>
      <trkpt lat="42.72942100000038" lon="-1.7661130000000058">
        <ele>570.044</ele>
        <time>2022-08-25T09:08:23Z</time>
      </trkpt>
      <trkpt lat="42.72931400000038" lon="-1.7661520000000057">
        <ele>569.405</ele>
        <time>2022-08-25T09:08:24Z</time>
      </trkpt>
      <trkpt lat="42.72920900000038" lon="-1.7661840000000057">
        <ele>568.415</ele>
        <time>2022-08-25T09:08:25Z</time>
      </trkpt>
      <trkpt lat="42.72910200000038" lon="-1.7662120000000057">
        <ele>567.009</ele>
        <time>2022-08-25T09:08:26Z</time>
      </trkpt>
      <trkpt lat="42.72888300000038" lon="-1.7662530000000056">
        <ele>565.415</ele>
        <time>2022-08-25T09:08:28Z</time>
      </trkpt>
      <trkpt lat="42.72866000000038" lon="-1.7662770000000056">
        <ele>563.835</ele>
        <time>2022-08-25T09:08:30Z</time>
      </trkpt>
      <trkpt lat="42.72854800000038" lon="-1.7662850000000057">
        <ele>563.285</ele>
        <time>2022-08-25T09:08:31Z</time>
      </trkpt>
      <trkpt lat="42.72841200000038" lon="-1.7662920000000057">
        <ele>562.041</ele>
        <time>2022-08-25T09:08:32Z</time>
      </trkpt>
      <trkpt lat="42.72832200000038" lon="-1.7662950000000057">
        <ele>560.863</ele>
        <time>2022-08-25T09:08:33Z</time>
      </trkpt>
      <trkpt lat="42.72821000000038" lon="-1.7663000000000058">
        <ele>560.280</ele>
        <time>2022-08-25T09:08:34Z</time>
      </trkpt>
      <trkpt lat="42.72809700000038" lon="-1.7663080000000058">
        <ele>559.213</ele>
        <time>2022-08-25T09:08:35Z</time>
      </trkpt>
      <trkpt lat="42.72785000000038" lon="-1.7663250000000057">
        <ele>557.639</ele>
        <time>2022-08-25T09:08:37Z</time>
      </trkpt>
      <trkpt lat="42.72774000000038" lon="-1.7663330000000057">
        <ele>557.260</ele>
        <time>2022-08-25T09:08:38Z</time>
      </trkpt>
      <trkpt lat="42.72765100000038" lon="-1.7663390000000057">
        <ele>556.699</ele>
        <time>2022-08-25T09:08:39Z</time>
      </trkpt>
      <trkpt lat="42.72754400000038" lon="-1.7663450000000056">
        <ele>555.807</ele>
        <time>2022-08-25T09:08:40Z</time>
      </trkpt>
      <trkpt lat="42.727441000000375" lon="-1.7663530000000056">
        <ele>555.027</ele>
        <time>2022-08-25T09:08:41Z</time>
      </trkpt>
      <trkpt lat="42.727348000000376" lon="-1.7663590000000056">
        <ele>553.809</ele>
        <time>2022-08-25T09:08:42Z</time>
      </trkpt>
      <trkpt lat="42.727258000000376" lon="-1.7663690000000056">
        <ele>553.230</ele>
        <time>2022-08-25T09:08:43Z</time>
      </trkpt>
      <trkpt lat="42.72716600000037" lon="-1.7663850000000056">
        <ele>552.430</ele>
        <time>2022-08-25T09:08:44Z</time>
      </trkpt>
      <trkpt lat="42.726963000000374" lon="-1.7664460000000057">
        <ele>550.840</ele>
        <time>2022-08-25T09:08:46Z</time>
      </trkpt>
      <trkpt lat="42.726892000000376" lon="-1.7664740000000057">
        <ele>550.046</ele>
        <time>2022-08-25T09:08:47Z</time>
      </trkpt>
      <trkpt lat="42.72680300000037" lon="-1.7665110000000057">
        <ele>549.658</ele>
        <time>2022-08-25T09:08:48Z</time>
      </trkpt>
      <trkpt lat="42.72671700000037" lon="-1.7665520000000057">
        <ele>548.815</ele>
        <time>2022-08-25T09:08:49Z</time>
      </trkpt>
      <trkpt lat="42.72663500000037" lon="-1.7665920000000057">
        <ele>548.458</ele>
        <time>2022-08-25T09:08:50Z</time>
      </trkpt>
      <trkpt lat="42.726555000000374" lon="-1.7666330000000057">
        <ele>547.864</ele>
        <time>2022-08-25T09:08:51Z</time>
      </trkpt>
      <trkpt lat="42.726392000000374" lon="-1.7667260000000056">
        <ele>547.025</ele>
        <time>2022-08-25T09:08:53Z</time>
      </trkpt>
      <trkpt lat="42.72622400000037" lon="-1.7668260000000056">
        <ele>545.813</ele>
        <time>2022-08-25T09:08:55Z</time>
      </trkpt>
      <trkpt lat="42.726141000000375" lon="-1.7668760000000057">
        <ele>545.043</ele>
        <time>2022-08-25T09:08:56Z</time>
      </trkpt>
      <trkpt lat="42.72605800000038" lon="-1.7669240000000057">
        <ele>544.807</ele>
        <time>2022-08-25T09:08:57Z</time>
      </trkpt>
      <trkpt lat="42.725980000000376" lon="-1.7669680000000056">
        <ele>544.009</ele>
        <time>2022-08-25T09:08:58Z</time>
      </trkpt>
      <trkpt lat="42.725902000000374" lon="-1.7670100000000057">
        <ele>543.672</ele>
        <time>2022-08-25T09:08:59Z</time>
      </trkpt>
      <trkpt lat="42.72582200000038" lon="-1.7670540000000057">
        <ele>542.642</ele>
        <time>2022-08-25T09:09:00Z</time>
      </trkpt>
      <trkpt lat="42.72572500000038" lon="-1.7671070000000058">
        <ele>541.462</ele>
        <time>2022-08-25T09:09:01Z</time>
      </trkpt>
      <trkpt lat="42.72555400000038" lon="-1.7671940000000057">
        <ele>540.058</ele>
        <time>2022-08-25T09:09:03Z</time>
      </trkpt>
      <trkpt lat="42.72539400000038" lon="-1.7672680000000056">
        <ele>538.890</ele>
        <time>2022-08-25T09:09:05Z</time>
      </trkpt>
      <trkpt lat="42.72520500000038" lon="-1.7673490000000056">
        <ele>537.447</ele>
        <time>2022-08-25T09:09:07Z</time>
      </trkpt>
      <trkpt lat="42.725012000000376" lon="-1.7674270000000056">
        <ele>536.650</ele>
        <time>2022-08-25T09:09:09Z</time>
      </trkpt>
      <trkpt lat="42.724917000000374" lon="-1.7674630000000056">
        <ele>535.836</ele>
        <time>2022-08-25T09:09:10Z</time>
      </trkpt>
      <trkpt lat="42.724723000000374" lon="-1.7675280000000055">
        <ele>534.077</ele>
        <time>2022-08-25T09:09:12Z</time>
      </trkpt>
      <trkpt lat="42.72451900000038" lon="-1.7675850000000055">
        <ele>532.683</ele>
        <time>2022-08-25T09:09:14Z</time>
      </trkpt>
      <trkpt lat="42.724410000000375" lon="-1.7676130000000054">
        <ele>531.625</ele>
        <time>2022-08-25T09:09:15Z</time>
      </trkpt>
      <trkpt lat="42.724300000000376" lon="-1.7676410000000053">
        <ele>531.217</ele>
        <time>2022-08-25T09:09:16Z</time>
      </trkpt>
      <trkpt lat="42.724188000000375" lon="-1.7676670000000054">
        <ele>530.209</ele>
        <time>2022-08-25T09:09:17Z</time>
      </trkpt>
      <trkpt lat="42.723951000000376" lon="-1.7677290000000054">
        <ele>529.029</ele>
        <time>2022-08-25T09:09:19Z</time>
      </trkpt>
      <trkpt lat="42.72383200000038" lon="-1.7677600000000053">
        <ele>527.659</ele>
        <time>2022-08-25T09:09:20Z</time>
      </trkpt>
      <trkpt lat="42.72356700000038" lon="-1.7678300000000053">
        <ele>525.639</ele>
        <time>2022-08-25T09:09:22Z</time>
      </trkpt>
      <trkpt lat="42.72334800000038" lon="-1.7678870000000053">
        <ele>523.435</ele>
        <time>2022-08-25T09:09:24Z</time>
      </trkpt>
      <trkpt lat="42.723104000000376" lon="-1.7679530000000052">
        <ele>522.477</ele>
        <time>2022-08-25T09:09:26Z</time>
      </trkpt>
      <trkpt lat="42.722983000000376" lon="-1.767984000000005">
        <ele>521.044</ele>
        <time>2022-08-25T09:09:27Z</time>
      </trkpt>
      <trkpt lat="42.722862000000376" lon="-1.7680160000000051">
        <ele>520.457</ele>
        <time>2022-08-25T09:09:29Z</time>
      </trkpt>
      <trkpt lat="42.72272100000038" lon="-1.7680540000000051">
        <ele>519.043</ele>
        <time>2022-08-25T09:09:30Z</time>
      </trkpt>
      <trkpt lat="42.72262800000038" lon="-1.768079000000005">
        <ele>518.664</ele>
        <time>2022-08-25T09:09:31Z</time>
      </trkpt>
      <trkpt lat="42.72251200000038" lon="-1.768110000000005">
        <ele>517.665</ele>
        <time>2022-08-25T09:09:32Z</time>
      </trkpt>
      <trkpt lat="42.72239900000038" lon="-1.768140000000005">
        <ele>517.068</ele>
        <time>2022-08-25T09:09:33Z</time>
      </trkpt>
      <trkpt lat="42.72228600000038" lon="-1.7681710000000048">
        <ele>516.014</ele>
        <time>2022-08-25T09:09:34Z</time>
      </trkpt>
      <trkpt lat="42.72217700000038" lon="-1.7682010000000048">
        <ele>514.809</ele>
        <time>2022-08-25T09:09:35Z</time>
      </trkpt>
      <trkpt lat="42.72207000000038" lon="-1.7682300000000049">
        <ele>514.017</ele>
        <time>2022-08-25T09:09:36Z</time>
      </trkpt>
      <trkpt lat="42.72196500000038" lon="-1.7682580000000048">
        <ele>512.857</ele>
        <time>2022-08-25T09:09:37Z</time>
      </trkpt>
      <trkpt lat="42.72186300000038" lon="-1.7682870000000048">
        <ele>512.227</ele>
        <time>2022-08-25T09:09:38Z</time>
      </trkpt>
      <trkpt lat="42.72176000000038" lon="-1.7683160000000049">
        <ele>510.843</ele>
        <time>2022-08-25T09:09:39Z</time>
      </trkpt>
      <trkpt lat="42.72152600000038" lon="-1.768385000000005">
        <ele>509.465</ele>
        <time>2022-08-25T09:09:41Z</time>
      </trkpt>
      <trkpt lat="42.72143900000038" lon="-1.768411000000005">
        <ele>508.012</ele>
        <time>2022-08-25T09:09:42Z</time>
      </trkpt>
      <trkpt lat="42.72121800000038" lon="-1.768477000000005">
        <ele>505.815</ele>
        <time>2022-08-25T09:09:44Z</time>
      </trkpt>
      <trkpt lat="42.72110700000038" lon="-1.768511000000005">
        <ele>505.251</ele>
        <time>2022-08-25T09:09:45Z</time>
      </trkpt>
      <trkpt lat="42.72100000000038" lon="-1.768544000000005">
        <ele>504.672</ele>
        <time>2022-08-25T09:09:46Z</time>
      </trkpt>
      <trkpt lat="42.72078700000038" lon="-1.768605000000005">
        <ele>503.247</ele>
        <time>2022-08-25T09:09:48Z</time>
      </trkpt>
      <trkpt lat="42.720577000000375" lon="-1.768668000000005">
        <ele>502.229</ele>
        <time>2022-08-25T09:09:50Z</time>
      </trkpt>
      <trkpt lat="42.720259000000375" lon="-1.768765000000005">
        <ele>500.621</ele>
        <time>2022-08-25T09:09:53Z</time>
      </trkpt>
      <trkpt lat="42.72004600000037" lon="-1.768827000000005">
        <ele>499.609</ele>
        <time>2022-08-25T09:09:55Z</time>
      </trkpt>
      <trkpt lat="42.719919000000374" lon="-1.768865000000005">
        <ele>499.275</ele>
        <time>2022-08-25T09:09:56Z</time>
      </trkpt>
      <trkpt lat="42.719837000000375" lon="-1.768890000000005">
        <ele>499.095</ele>
        <time>2022-08-25T09:09:57Z</time>
      </trkpt>
      <trkpt lat="42.71973700000037" lon="-1.7689260000000049">
        <ele>498.455</ele>
        <time>2022-08-25T09:09:58Z</time>
      </trkpt>
      <trkpt lat="42.71962200000037" lon="-1.768982000000005">
        <ele>498.061</ele>
        <time>2022-08-25T09:09:59Z</time>
      </trkpt>
      <trkpt lat="42.71955000000037" lon="-1.769032000000005">
        <ele>497.463</ele>
        <time>2022-08-25T09:10:00Z</time>
      </trkpt>
      <trkpt lat="42.71944300000037" lon="-1.769122000000005">
        <ele>496.860</ele>
        <time>2022-08-25T09:10:01Z</time>
      </trkpt>
      <trkpt lat="42.71929000000037" lon="-1.769268000000005">
        <ele>496.283</ele>
        <time>2022-08-25T09:10:03Z</time>
      </trkpt>
      <trkpt lat="42.71920600000037" lon="-1.769341000000005">
        <ele>496.079</ele>
        <time>2022-08-25T09:10:04Z</time>
      </trkpt>
      <trkpt lat="42.719103000000366" lon="-1.7694150000000048">
        <ele>495.620</ele>
        <time>2022-08-25T09:10:05Z</time>
      </trkpt>
      <trkpt lat="42.71903100000036" lon="-1.7694480000000048">
        <ele>495.638</ele>
        <time>2022-08-25T09:10:06Z</time>
      </trkpt>
      <trkpt lat="42.718845000000364" lon="-1.7694960000000048">
        <ele>494.470</ele>
        <time>2022-08-25T09:10:08Z</time>
      </trkpt>
      <trkpt lat="42.718445000000365" lon="-1.7694990000000048">
        <ele>493.017</ele>
        <time>2022-08-25T09:10:12Z</time>
      </trkpt>
      <trkpt lat="42.718270000000366" lon="-1.7695040000000049">
        <ele>492.609</ele>
        <time>2022-08-25T09:10:14Z</time>
      </trkpt>
      <trkpt lat="42.71818200000037" lon="-1.7695080000000047">
        <ele>492.434</ele>
        <time>2022-08-25T09:10:15Z</time>
      </trkpt>
      <trkpt lat="42.71779100000037" lon="-1.7695270000000047">
        <ele>491.884</ele>
        <time>2022-08-25T09:10:19Z</time>
      </trkpt>
      <trkpt lat="42.717702000000365" lon="-1.7695320000000048">
        <ele>491.664</ele>
        <time>2022-08-25T09:10:20Z</time>
      </trkpt>
      <trkpt lat="42.717615000000364" lon="-1.7695520000000047">
        <ele>491.230</ele>
        <time>2022-08-25T09:10:21Z</time>
      </trkpt>
      <trkpt lat="42.717530000000366" lon="-1.7695690000000046">
        <ele>491.052</ele>
        <time>2022-08-25T09:10:22Z</time>
      </trkpt>
      <trkpt lat="42.71744400000036" lon="-1.7695930000000046">
        <ele>490.869</ele>
        <time>2022-08-25T09:10:23Z</time>
      </trkpt>
      <trkpt lat="42.71736000000036" lon="-1.7696200000000046">
        <ele>490.852</ele>
        <time>2022-08-25T09:10:24Z</time>
      </trkpt>
      <trkpt lat="42.71727300000036" lon="-1.7696450000000046">
        <ele>490.638</ele>
        <time>2022-08-25T09:10:25Z</time>
      </trkpt>
      <trkpt lat="42.71717300000036" lon="-1.7696740000000046">
        <ele>490.649</ele>
        <time>2022-08-25T09:10:26Z</time>
      </trkpt>
      <trkpt lat="42.71709300000036" lon="-1.7696950000000047">
        <ele>490.412</ele>
        <time>2022-08-25T09:10:27Z</time>
      </trkpt>
      <trkpt lat="42.71702900000036" lon="-1.7697100000000048">
        <ele>490.432</ele>
        <time>2022-08-25T09:10:28Z</time>
      </trkpt>
      <trkpt lat="42.71695300000036" lon="-1.7697280000000049">
        <ele>490.205</ele>
        <time>2022-08-25T09:10:29Z</time>
      </trkpt>
      <trkpt lat="42.71687800000036" lon="-1.7697420000000048">
        <ele>490.209</ele>
        <time>2022-08-25T09:10:30Z</time>
      </trkpt>
      <trkpt lat="42.71680600000035" lon="-1.769757000000005">
        <ele>490.252</ele>
        <time>2022-08-25T09:10:31Z</time>
      </trkpt>
      <trkpt lat="42.716718000000355" lon="-1.7697710000000049">
        <ele>490.242</ele>
        <time>2022-08-25T09:10:32Z</time>
      </trkpt>
      <trkpt lat="42.71664400000036" lon="-1.769778000000005">
        <ele>490.292</ele>
        <time>2022-08-25T09:10:33Z</time>
      </trkpt>
      <trkpt lat="42.71658500000036" lon="-1.769784000000005">
        <ele>490.248</ele>
        <time>2022-08-25T09:10:34Z</time>
      </trkpt>
      <trkpt lat="42.71629800000036" lon="-1.769795000000005">
        <ele>490.260</ele>
        <time>2022-08-25T09:10:38Z</time>
      </trkpt>
      <trkpt lat="42.71571200000036" lon="-1.7697870000000049">
        <ele>490.667</ele>
        <time>2022-08-25T09:10:46Z</time>
      </trkpt>
      <trkpt lat="42.71541700000036" lon="-1.7698140000000049">
        <ele>490.630</ele>
        <time>2022-08-25T09:10:50Z</time>
      </trkpt>
      <trkpt lat="42.715272000000354" lon="-1.769840000000005">
        <ele>490.666</ele>
        <time>2022-08-25T09:10:52Z</time>
      </trkpt>
      <trkpt lat="42.71498100000036" lon="-1.769932000000005">
        <ele>489.827</ele>
        <time>2022-08-25T09:10:56Z</time>
      </trkpt>
      <trkpt lat="42.714906000000354" lon="-1.769965000000005">
        <ele>489.662</ele>
        <time>2022-08-25T09:10:57Z</time>
      </trkpt>
      <trkpt lat="42.714537000000355" lon="-1.770185000000005">
        <ele>488.483</ele>
        <time>2022-08-25T09:11:02Z</time>
      </trkpt>
      <trkpt lat="42.71446500000035" lon="-1.770239000000005">
        <ele>488.211</ele>
        <time>2022-08-25T09:11:03Z</time>
      </trkpt>
      <trkpt lat="42.71396100000035" lon="-1.770702000000005">
        <ele>487.609</ele>
        <time>2022-08-25T09:11:10Z</time>
      </trkpt>
      <trkpt lat="42.71389100000035" lon="-1.7707720000000051">
        <ele>487.467</ele>
        <time>2022-08-25T09:11:11Z</time>
      </trkpt>
      <trkpt lat="42.71382300000035" lon="-1.7708410000000052">
        <ele>487.447</ele>
        <time>2022-08-25T09:11:12Z</time>
      </trkpt>
      <trkpt lat="42.713755000000354" lon="-1.7709090000000052">
        <ele>487.027</ele>
        <time>2022-08-25T09:11:13Z</time>
      </trkpt>
      <trkpt lat="42.713552000000355" lon="-1.7711190000000052">
        <ele>485.463</ele>
        <time>2022-08-25T09:11:16Z</time>
      </trkpt>
      <trkpt lat="42.713414000000355" lon="-1.7712640000000053">
        <ele>484.425</ele>
        <time>2022-08-25T09:11:18Z</time>
      </trkpt>
      <trkpt lat="42.713274000000354" lon="-1.7714080000000052">
        <ele>482.832</ele>
        <time>2022-08-25T09:11:20Z</time>
      </trkpt>
      <trkpt lat="42.713209000000354" lon="-1.7714780000000052">
        <ele>482.455</ele>
        <time>2022-08-25T09:11:21Z</time>
      </trkpt>
      <trkpt lat="42.71314300000036" lon="-1.7715480000000052">
        <ele>481.611</ele>
        <time>2022-08-25T09:11:22Z</time>
      </trkpt>
      <trkpt lat="42.71307500000036" lon="-1.7716180000000052">
        <ele>480.492</ele>
        <time>2022-08-25T09:11:23Z</time>
      </trkpt>
      <trkpt lat="42.71300700000036" lon="-1.7716870000000053">
        <ele>480.065</ele>
        <time>2022-08-25T09:11:24Z</time>
      </trkpt>
      <trkpt lat="42.71293800000036" lon="-1.7717560000000054">
        <ele>479.068</ele>
        <time>2022-08-25T09:11:25Z</time>
      </trkpt>
      <trkpt lat="42.71278800000036" lon="-1.7719080000000054">
        <ele>477.414</ele>
        <time>2022-08-25T09:11:27Z</time>
      </trkpt>
      <trkpt lat="42.71273600000036" lon="-1.7719610000000054">
        <ele>477.009</ele>
        <time>2022-08-25T09:11:28Z</time>
      </trkpt>
      <trkpt lat="42.712670000000365" lon="-1.7720270000000053">
        <ele>476.217</ele>
        <time>2022-08-25T09:11:29Z</time>
      </trkpt>
      <trkpt lat="42.71253400000037" lon="-1.7721630000000053">
        <ele>475.237</ele>
        <time>2022-08-25T09:11:31Z</time>
      </trkpt>
      <trkpt lat="42.712391000000366" lon="-1.7723040000000052">
        <ele>474.077</ele>
        <time>2022-08-25T09:11:33Z</time>
      </trkpt>
      <trkpt lat="42.71231900000036" lon="-1.7723780000000051">
        <ele>473.243</ele>
        <time>2022-08-25T09:11:34Z</time>
      </trkpt>
      <trkpt lat="42.71224700000036" lon="-1.772452000000005">
        <ele>472.645</ele>
        <time>2022-08-25T09:11:35Z</time>
      </trkpt>
      <trkpt lat="42.71195300000036" lon="-1.772747000000005">
        <ele>470.262</ele>
        <time>2022-08-25T09:11:39Z</time>
      </trkpt>
      <trkpt lat="42.71188700000037" lon="-1.772817000000005">
        <ele>469.845</ele>
        <time>2022-08-25T09:11:40Z</time>
      </trkpt>
      <trkpt lat="42.71182200000037" lon="-1.772884000000005">
        <ele>468.461</ele>
        <time>2022-08-25T09:11:41Z</time>
      </trkpt>
      <trkpt lat="42.71175400000037" lon="-1.772947000000005">
        <ele>467.472</ele>
        <time>2022-08-25T09:11:42Z</time>
      </trkpt>
      <trkpt lat="42.71168600000037" lon="-1.773014000000005">
        <ele>467.078</ele>
        <time>2022-08-25T09:11:43Z</time>
      </trkpt>
      <trkpt lat="42.71154800000037" lon="-1.7731500000000049">
        <ele>465.833</ele>
        <time>2022-08-25T09:11:45Z</time>
      </trkpt>
      <trkpt lat="42.71133200000037" lon="-1.7733590000000048">
        <ele>464.026</ele>
        <time>2022-08-25T09:11:48Z</time>
      </trkpt>
      <trkpt lat="42.71118900000037" lon="-1.7735040000000049">
        <ele>462.809</ele>
        <time>2022-08-25T09:11:50Z</time>
      </trkpt>
      <trkpt lat="42.711100000000364" lon="-1.7735910000000048">
        <ele>462.058</ele>
        <time>2022-08-25T09:11:51Z</time>
      </trkpt>
      <trkpt lat="42.71104000000037" lon="-1.7736500000000048">
        <ele>461.858</ele>
        <time>2022-08-25T09:11:52Z</time>
      </trkpt>
      <trkpt lat="42.71081400000037" lon="-1.7738790000000049">
        <ele>460.428</ele>
        <time>2022-08-25T09:11:55Z</time>
      </trkpt>
      <trkpt lat="42.71058000000037" lon="-1.7741170000000048">
        <ele>458.684</ele>
        <time>2022-08-25T09:11:58Z</time>
      </trkpt>
      <trkpt lat="42.71042700000037" lon="-1.7742730000000049">
        <ele>457.686</ele>
        <time>2022-08-25T09:12:00Z</time>
      </trkpt>
      <trkpt lat="42.710336000000375" lon="-1.7743660000000048">
        <ele>456.833</ele>
        <time>2022-08-25T09:12:01Z</time>
      </trkpt>
      <trkpt lat="42.710274000000375" lon="-1.7744280000000048">
        <ele>456.056</ele>
        <time>2022-08-25T09:12:02Z</time>
      </trkpt>
      <trkpt lat="42.71003000000037" lon="-1.7746740000000047">
        <ele>454.232</ele>
        <time>2022-08-25T09:12:05Z</time>
      </trkpt>
      <trkpt lat="42.70994600000037" lon="-1.7747590000000046">
        <ele>453.613</ele>
        <time>2022-08-25T09:12:06Z</time>
      </trkpt>
      <trkpt lat="42.70986100000037" lon="-1.7748450000000047">
        <ele>452.683</ele>
        <time>2022-08-25T09:12:07Z</time>
      </trkpt>
      <trkpt lat="42.70969200000037" lon="-1.7750210000000046">
        <ele>451.025</ele>
        <time>2022-08-25T09:12:09Z</time>
      </trkpt>
      <trkpt lat="42.709520000000374" lon="-1.7751940000000046">
        <ele>450.017</ele>
        <time>2022-08-25T09:12:11Z</time>
      </trkpt>
      <trkpt lat="42.70943600000037" lon="-1.7752780000000046">
        <ele>449.209</ele>
        <time>2022-08-25T09:12:12Z</time>
      </trkpt>
      <trkpt lat="42.70935500000037" lon="-1.7753590000000046">
        <ele>448.829</ele>
        <time>2022-08-25T09:12:13Z</time>
      </trkpt>
      <trkpt lat="42.70919400000037" lon="-1.7755230000000046">
        <ele>448.269</ele>
        <time>2022-08-25T09:12:15Z</time>
      </trkpt>
      <trkpt lat="42.709117000000376" lon="-1.7756060000000047">
        <ele>447.839</ele>
        <time>2022-08-25T09:12:16Z</time>
      </trkpt>
      <trkpt lat="42.709039000000374" lon="-1.7756890000000047">
        <ele>447.475</ele>
        <time>2022-08-25T09:12:17Z</time>
      </trkpt>
      <trkpt lat="42.70888200000037" lon="-1.7758550000000048">
        <ele>446.837</ele>
        <time>2022-08-25T09:12:19Z</time>
      </trkpt>
      <trkpt lat="42.708619000000375" lon="-1.776127000000005">
        <ele>445.664</ele>
        <time>2022-08-25T09:12:22Z</time>
      </trkpt>
      <trkpt lat="42.70829900000037" lon="-1.7764490000000048">
        <ele>444.477</ele>
        <time>2022-08-25T09:12:26Z</time>
      </trkpt>
      <trkpt lat="42.70813100000037" lon="-1.7766190000000048">
        <ele>444.043</ele>
        <time>2022-08-25T09:12:28Z</time>
      </trkpt>
      <trkpt lat="42.707961000000374" lon="-1.776791000000005">
        <ele>443.274</ele>
        <time>2022-08-25T09:12:30Z</time>
      </trkpt>
      <trkpt lat="42.707876000000375" lon="-1.776877000000005">
        <ele>442.659</ele>
        <time>2022-08-25T09:12:31Z</time>
      </trkpt>
      <trkpt lat="42.70770800000037" lon="-1.777042000000005">
        <ele>442.203</ele>
        <time>2022-08-25T09:12:33Z</time>
      </trkpt>
      <trkpt lat="42.70754000000037" lon="-1.777208000000005">
        <ele>441.423</ele>
        <time>2022-08-25T09:12:35Z</time>
      </trkpt>
      <trkpt lat="42.70744000000037" lon="-1.777309000000005">
        <ele>440.809</ele>
        <time>2022-08-25T09:12:36Z</time>
      </trkpt>
      <trkpt lat="42.70721100000037" lon="-1.777544000000005">
        <ele>440.236</ele>
        <time>2022-08-25T09:12:39Z</time>
      </trkpt>
      <trkpt lat="42.70713000000037" lon="-1.7776280000000049">
        <ele>439.896</ele>
        <time>2022-08-25T09:12:40Z</time>
      </trkpt>
      <trkpt lat="42.70705000000037" lon="-1.7777120000000048">
        <ele>439.686</ele>
        <time>2022-08-25T09:12:41Z</time>
      </trkpt>
      <trkpt lat="42.706970000000375" lon="-1.777795000000005">
        <ele>439.472</ele>
        <time>2022-08-25T09:12:42Z</time>
      </trkpt>
      <trkpt lat="42.706891000000375" lon="-1.777876000000005">
        <ele>438.844</ele>
        <time>2022-08-25T09:12:43Z</time>
      </trkpt>
      <trkpt lat="42.70681400000038" lon="-1.777956000000005">
        <ele>438.661</ele>
        <time>2022-08-25T09:12:44Z</time>
      </trkpt>
      <trkpt lat="42.70674000000038" lon="-1.778039000000005">
        <ele>438.234</ele>
        <time>2022-08-25T09:12:45Z</time>
      </trkpt>
      <trkpt lat="42.70666400000038" lon="-1.7781160000000051">
        <ele>438.070</ele>
        <time>2022-08-25T09:12:46Z</time>
      </trkpt>
      <trkpt lat="42.70659000000038" lon="-1.778190000000005">
        <ele>437.621</ele>
        <time>2022-08-25T09:12:47Z</time>
      </trkpt>
      <trkpt lat="42.70651800000038" lon="-1.778265000000005">
        <ele>437.414</ele>
        <time>2022-08-25T09:12:48Z</time>
      </trkpt>
      <trkpt lat="42.70644800000038" lon="-1.7783370000000052">
        <ele>437.054</ele>
        <time>2022-08-25T09:12:49Z</time>
      </trkpt>
      <trkpt lat="42.706379000000375" lon="-1.7784070000000052">
        <ele>436.809</ele>
        <time>2022-08-25T09:12:50Z</time>
      </trkpt>
      <trkpt lat="42.70631000000037" lon="-1.7784790000000053">
        <ele>436.609</ele>
        <time>2022-08-25T09:12:51Z</time>
      </trkpt>
      <trkpt lat="42.70617300000037" lon="-1.7786210000000053">
        <ele>436.032</ele>
        <time>2022-08-25T09:12:53Z</time>
      </trkpt>
      <trkpt lat="42.70596800000037" lon="-1.7788300000000052">
        <ele>435.472</ele>
        <time>2022-08-25T09:12:56Z</time>
      </trkpt>
      <trkpt lat="42.70570000000037" lon="-1.7791050000000053">
        <ele>434.272</ele>
        <time>2022-08-25T09:13:00Z</time>
      </trkpt>
      <trkpt lat="42.70563300000037" lon="-1.7791740000000054">
        <ele>433.878</ele>
        <time>2022-08-25T09:13:01Z</time>
      </trkpt>
      <trkpt lat="42.705420000000366" lon="-1.7793910000000053">
        <ele>433.030</ele>
        <time>2022-08-25T09:13:04Z</time>
      </trkpt>
      <trkpt lat="42.70516000000037" lon="-1.7796510000000052">
        <ele>432.057</ele>
        <time>2022-08-25T09:13:08Z</time>
      </trkpt>
      <trkpt lat="42.70489000000037" lon="-1.7799260000000052">
        <ele>430.830</ele>
        <time>2022-08-25T09:13:12Z</time>
      </trkpt>
      <trkpt lat="42.70461900000037" lon="-1.7802020000000052">
        <ele>429.836</ele>
        <time>2022-08-25T09:13:16Z</time>
      </trkpt>
      <trkpt lat="42.70441200000037" lon="-1.7804120000000052">
        <ele>428.617</ele>
        <time>2022-08-25T09:13:19Z</time>
      </trkpt>
      <trkpt lat="42.70427100000037" lon="-1.7805530000000052">
        <ele>428.045</ele>
        <time>2022-08-25T09:13:21Z</time>
      </trkpt>
      <trkpt lat="42.704131000000366" lon="-1.7806960000000052">
        <ele>427.247</ele>
        <time>2022-08-25T09:13:23Z</time>
      </trkpt>
      <trkpt lat="42.70399200000037" lon="-1.7808380000000053">
        <ele>427.011</ele>
        <time>2022-08-25T09:13:25Z</time>
      </trkpt>
      <trkpt lat="42.70378400000037" lon="-1.7810500000000054">
        <ele>426.209</ele>
        <time>2022-08-25T09:13:28Z</time>
      </trkpt>
      <trkpt lat="42.70364300000037" lon="-1.7811890000000052">
        <ele>425.275</ele>
        <time>2022-08-25T09:13:30Z</time>
      </trkpt>
      <trkpt lat="42.70350300000037" lon="-1.7813290000000053">
        <ele>424.825</ele>
        <time>2022-08-25T09:13:32Z</time>
      </trkpt>
      <trkpt lat="42.70322600000037" lon="-1.7816060000000054">
        <ele>424.285</ele>
        <time>2022-08-25T09:13:36Z</time>
      </trkpt>
      <trkpt lat="42.70315600000037" lon="-1.7816740000000053">
        <ele>423.861</ele>
        <time>2022-08-25T09:13:37Z</time>
      </trkpt>
      <trkpt lat="42.70287600000037" lon="-1.7819600000000053">
        <ele>423.053</ele>
        <time>2022-08-25T09:13:41Z</time>
      </trkpt>
      <trkpt lat="42.70245800000037" lon="-1.7823890000000053">
        <ele>422.020</ele>
        <time>2022-08-25T09:13:47Z</time>
      </trkpt>
      <trkpt lat="42.70217200000037" lon="-1.7826780000000053">
        <ele>421.073</ele>
        <time>2022-08-25T09:13:51Z</time>
      </trkpt>
      <trkpt lat="42.701883000000365" lon="-1.7829720000000053">
        <ele>419.859</ele>
        <time>2022-08-25T09:13:55Z</time>
      </trkpt>
      <trkpt lat="42.70166400000036" lon="-1.7831980000000054">
        <ele>419.240</ele>
        <time>2022-08-25T09:13:58Z</time>
      </trkpt>
      <trkpt lat="42.701371000000364" lon="-1.7834930000000053">
        <ele>418.667</ele>
        <time>2022-08-25T09:14:02Z</time>
      </trkpt>
      <trkpt lat="42.70122800000036" lon="-1.7836390000000053">
        <ele>417.881</ele>
        <time>2022-08-25T09:14:04Z</time>
      </trkpt>
      <trkpt lat="42.701157000000364" lon="-1.7837100000000052">
        <ele>417.419</ele>
        <time>2022-08-25T09:14:05Z</time>
      </trkpt>
      <trkpt lat="42.701084000000364" lon="-1.7837810000000052">
        <ele>417.209</ele>
        <time>2022-08-25T09:14:06Z</time>
      </trkpt>
      <trkpt lat="42.70086800000036" lon="-1.7839910000000052">
        <ele>416.837</ele>
        <time>2022-08-25T09:14:09Z</time>
      </trkpt>
      <trkpt lat="42.700656000000365" lon="-1.7842000000000051">
        <ele>416.247</ele>
        <time>2022-08-25T09:14:12Z</time>
      </trkpt>
      <trkpt lat="42.700586000000364" lon="-1.7842720000000052">
        <ele>416.287</ele>
        <time>2022-08-25T09:14:13Z</time>
      </trkpt>
      <trkpt lat="42.70044600000036" lon="-1.7844140000000053">
        <ele>415.623</ele>
        <time>2022-08-25T09:14:15Z</time>
      </trkpt>
      <trkpt lat="42.70037700000036" lon="-1.7844830000000054">
        <ele>415.665</ele>
        <time>2022-08-25T09:14:16Z</time>
      </trkpt>
      <trkpt lat="42.700308000000355" lon="-1.7845520000000055">
        <ele>415.642</ele>
        <time>2022-08-25T09:14:17Z</time>
      </trkpt>
      <trkpt lat="42.70023900000035" lon="-1.7846200000000054">
        <ele>415.695</ele>
        <time>2022-08-25T09:14:18Z</time>
      </trkpt>
      <trkpt lat="42.70017200000035" lon="-1.7846880000000054">
        <ele>415.471</ele>
        <time>2022-08-25T09:14:19Z</time>
      </trkpt>
      <trkpt lat="42.70003900000035" lon="-1.7848220000000055">
        <ele>415.242</ele>
        <time>2022-08-25T09:14:21Z</time>
      </trkpt>
      <trkpt lat="42.69997400000035" lon="-1.7848900000000054">
        <ele>415.223</ele>
        <time>2022-08-25T09:14:22Z</time>
      </trkpt>
      <trkpt lat="42.69990900000035" lon="-1.7849570000000055">
        <ele>415.083</ele>
        <time>2022-08-25T09:14:23Z</time>
      </trkpt>
      <trkpt lat="42.699649000000356" lon="-1.7852240000000055">
        <ele>414.611</ele>
        <time>2022-08-25T09:14:27Z</time>
      </trkpt>
      <trkpt lat="42.699450000000354" lon="-1.7854220000000054">
        <ele>414.209</ele>
        <time>2022-08-25T09:14:30Z</time>
      </trkpt>
      <trkpt lat="42.69938400000036" lon="-1.7854870000000054">
        <ele>414.063</ele>
        <time>2022-08-25T09:14:31Z</time>
      </trkpt>
      <trkpt lat="42.699320000000355" lon="-1.7855510000000054">
        <ele>414.083</ele>
        <time>2022-08-25T09:14:32Z</time>
      </trkpt>
      <trkpt lat="42.699256000000354" lon="-1.7856140000000054">
        <ele>413.843</ele>
        <time>2022-08-25T09:14:33Z</time>
      </trkpt>
      <trkpt lat="42.69919200000035" lon="-1.7856760000000054">
        <ele>413.849</ele>
        <time>2022-08-25T09:14:34Z</time>
      </trkpt>
      <trkpt lat="42.698752000000354" lon="-1.7861330000000053">
        <ele>413.271</ele>
        <time>2022-08-25T09:14:41Z</time>
      </trkpt>
      <trkpt lat="42.698293000000355" lon="-1.7865910000000054">
        <ele>412.058</ele>
        <time>2022-08-25T09:14:48Z</time>
      </trkpt>
      <trkpt lat="42.69809200000036" lon="-1.7867970000000053">
        <ele>411.631</ele>
        <time>2022-08-25T09:14:51Z</time>
      </trkpt>
      <trkpt lat="42.69782100000036" lon="-1.7870670000000053">
        <ele>410.817</ele>
        <time>2022-08-25T09:14:55Z</time>
      </trkpt>
      <trkpt lat="42.69741500000036" lon="-1.7874730000000052">
        <ele>410.278</ele>
        <time>2022-08-25T09:15:01Z</time>
      </trkpt>
      <trkpt lat="42.69707100000036" lon="-1.7878140000000051">
        <ele>409.624</ele>
        <time>2022-08-25T09:15:06Z</time>
      </trkpt>
      <trkpt lat="42.69677100000036" lon="-1.7881070000000052">
        <ele>409.204</ele>
        <time>2022-08-25T09:15:10Z</time>
      </trkpt>
      <trkpt lat="42.69655000000036" lon="-1.7883180000000052">
        <ele>408.614</ele>
        <time>2022-08-25T09:15:13Z</time>
      </trkpt>
      <trkpt lat="42.69647600000036" lon="-1.7883860000000051">
        <ele>408.609</ele>
        <time>2022-08-25T09:15:14Z</time>
      </trkpt>
      <trkpt lat="42.696404000000356" lon="-1.788454000000005">
        <ele>408.443</ele>
        <time>2022-08-25T09:15:15Z</time>
      </trkpt>
      <trkpt lat="42.696346000000354" lon="-1.788509000000005">
        <ele>408.213</ele>
        <time>2022-08-25T09:15:16Z</time>
      </trkpt>
      <trkpt lat="42.696275000000355" lon="-1.788577000000005">
        <ele>408.263</ele>
        <time>2022-08-25T09:15:17Z</time>
      </trkpt>
      <trkpt lat="42.696047000000355" lon="-1.788790000000005">
        <ele>407.689</ele>
        <time>2022-08-25T09:15:20Z</time>
      </trkpt>
      <trkpt lat="42.69569700000036" lon="-1.789114000000005">
        <ele>406.491</ele>
        <time>2022-08-25T09:15:25Z</time>
      </trkpt>
      <trkpt lat="42.69546800000036" lon="-1.789326000000005">
        <ele>405.238</ele>
        <time>2022-08-25T09:15:28Z</time>
      </trkpt>
      <trkpt lat="42.695295000000364" lon="-1.789483000000005">
        <ele>404.641</ele>
        <time>2022-08-25T09:15:30Z</time>
      </trkpt>
      <trkpt lat="42.69521700000036" lon="-1.7895520000000051">
        <ele>404.437</ele>
        <time>2022-08-25T09:15:31Z</time>
      </trkpt>
      <trkpt lat="42.69515600000036" lon="-1.789607000000005">
        <ele>404.088</ele>
        <time>2022-08-25T09:15:32Z</time>
      </trkpt>
      <trkpt lat="42.69490900000036" lon="-1.789832000000005">
        <ele>402.888</ele>
        <time>2022-08-25T09:15:35Z</time>
      </trkpt>
      <trkpt lat="42.69483200000036" lon="-1.789900000000005">
        <ele>402.624</ele>
        <time>2022-08-25T09:15:36Z</time>
      </trkpt>
      <trkpt lat="42.69477100000036" lon="-1.789954000000005">
        <ele>402.026</ele>
        <time>2022-08-25T09:15:37Z</time>
      </trkpt>
      <trkpt lat="42.69469700000036" lon="-1.7900200000000048">
        <ele>401.809</ele>
        <time>2022-08-25T09:15:38Z</time>
      </trkpt>
      <trkpt lat="42.69462500000036" lon="-1.7900850000000048">
        <ele>401.099</ele>
        <time>2022-08-25T09:15:39Z</time>
      </trkpt>
      <trkpt lat="42.69454200000036" lon="-1.790154000000005">
        <ele>400.289</ele>
        <time>2022-08-25T09:15:40Z</time>
      </trkpt>
      <trkpt lat="42.694476000000364" lon="-1.7902010000000048">
        <ele>399.889</ele>
        <time>2022-08-25T09:15:41Z</time>
      </trkpt>
      <trkpt lat="42.69441200000036" lon="-1.7902380000000049">
        <ele>399.085</ele>
        <time>2022-08-25T09:15:42Z</time>
      </trkpt>
      <trkpt lat="42.69436200000036" lon="-1.7902570000000049">
        <ele>398.817</ele>
        <time>2022-08-25T09:15:43Z</time>
      </trkpt>
      <trkpt lat="42.69430000000036" lon="-1.7902740000000048">
        <ele>398.424</ele>
        <time>2022-08-25T09:15:44Z</time>
      </trkpt>
      <trkpt lat="42.694234000000364" lon="-1.7902830000000047">
        <ele>398.247</ele>
        <time>2022-08-25T09:15:45Z</time>
      </trkpt>
      <trkpt lat="42.69418700000036" lon="-1.7902850000000048">
        <ele>398.093</ele>
        <time>2022-08-25T09:15:46Z</time>
      </trkpt>
      <trkpt lat="42.694155000000364" lon="-1.7902860000000047">
        <ele>397.834</ele>
        <time>2022-08-25T09:15:47Z</time>
      </trkpt>
      <trkpt lat="42.69411700000036" lon="-1.7902920000000047">
        <ele>397.655</ele>
        <time>2022-08-25T09:15:48Z</time>
      </trkpt>
      <trkpt lat="42.694082000000364" lon="-1.7903070000000048">
        <ele>397.207</ele>
        <time>2022-08-25T09:15:49Z</time>
      </trkpt>
      <trkpt lat="42.69404900000036" lon="-1.7903320000000047">
        <ele>397.217</ele>
        <time>2022-08-25T09:15:50Z</time>
      </trkpt>
      <trkpt lat="42.69402600000036" lon="-1.7903540000000047">
        <ele>396.609</ele>
        <time>2022-08-25T09:15:51Z</time>
      </trkpt>
      <trkpt lat="42.69400700000036" lon="-1.7903790000000046">
        <ele>396.616</ele>
        <time>2022-08-25T09:15:52Z</time>
      </trkpt>
      <trkpt lat="42.69399600000036" lon="-1.7904010000000046">
        <ele>396.036</ele>
        <time>2022-08-25T09:15:53Z</time>
      </trkpt>
      <trkpt lat="42.69398800000036" lon="-1.7904320000000045">
        <ele>395.626</ele>
        <time>2022-08-25T09:15:54Z</time>
      </trkpt>
      <trkpt lat="42.69399100000036" lon="-1.7904690000000045">
        <ele>395.462</ele>
        <time>2022-08-25T09:15:55Z</time>
      </trkpt>
      <trkpt lat="42.693998000000356" lon="-1.7905040000000045">
        <ele>395.214</ele>
        <time>2022-08-25T09:15:56Z</time>
      </trkpt>
      <trkpt lat="42.694012000000356" lon="-1.7905690000000045">
        <ele>395.281</ele>
        <time>2022-08-25T09:15:58Z</time>
      </trkpt>
      <trkpt lat="42.69402200000036" lon="-1.7906090000000046">
        <ele>395.224</ele>
        <time>2022-08-25T09:15:59Z</time>
      </trkpt>
      <trkpt lat="42.69406600000036" lon="-1.7907760000000046">
        <ele>395.630</ele>
        <time>2022-08-25T09:16:03Z</time>
      </trkpt>
      <trkpt lat="42.69406700000036" lon="-1.7908870000000046">
        <ele>395.831</ele>
        <time>2022-08-25T09:16:05Z</time>
      </trkpt>
      <trkpt lat="42.69405400000036" lon="-1.7909440000000045">
        <ele>395.895</ele>
        <time>2022-08-25T09:16:06Z</time>
      </trkpt>
      <trkpt lat="42.69403700000036" lon="-1.7910000000000046">
        <ele>395.849</ele>
        <time>2022-08-25T09:16:07Z</time>
      </trkpt>
      <trkpt lat="42.69401700000036" lon="-1.7910400000000046">
        <ele>395.823</ele>
        <time>2022-08-25T09:16:08Z</time>
      </trkpt>
      <trkpt lat="42.693987000000355" lon="-1.7910860000000046">
        <ele>395.809</ele>
        <time>2022-08-25T09:16:09Z</time>
      </trkpt>
      <trkpt lat="42.69394300000035" lon="-1.7911300000000046">
        <ele>395.840</ele>
        <time>2022-08-25T09:16:10Z</time>
      </trkpt>
      <trkpt lat="42.69390200000035" lon="-1.7911550000000045">
        <ele>395.850</ele>
        <time>2022-08-25T09:16:11Z</time>
      </trkpt>
      <trkpt lat="42.69385800000035" lon="-1.7911720000000044">
        <ele>395.890</ele>
        <time>2022-08-25T09:16:12Z</time>
      </trkpt>
      <trkpt lat="42.69382100000035" lon="-1.7911750000000044">
        <ele>395.696</ele>
        <time>2022-08-25T09:16:13Z</time>
      </trkpt>
      <trkpt lat="42.69377500000035" lon="-1.7911720000000044">
        <ele>395.648</ele>
        <time>2022-08-25T09:16:14Z</time>
      </trkpt>
      <trkpt lat="42.69373000000035" lon="-1.7911620000000044">
        <ele>395.425</ele>
        <time>2022-08-25T09:16:15Z</time>
      </trkpt>
      <trkpt lat="42.69367400000035" lon="-1.7911440000000043">
        <ele>395.268</ele>
        <time>2022-08-25T09:16:16Z</time>
      </trkpt>
      <trkpt lat="42.69362600000035" lon="-1.7911320000000044">
        <ele>395.054</ele>
        <time>2022-08-25T09:16:17Z</time>
      </trkpt>
      <trkpt lat="42.69353600000035" lon="-1.7911330000000043">
        <ele>395.065</ele>
        <time>2022-08-25T09:16:19Z</time>
      </trkpt>
      <trkpt lat="42.69348400000035" lon="-1.7911460000000043">
        <ele>394.861</ele>
        <time>2022-08-25T09:16:20Z</time>
      </trkpt>
      <trkpt lat="42.69342600000035" lon="-1.7911770000000042">
        <ele>394.821</ele>
        <time>2022-08-25T09:16:21Z</time>
      </trkpt>
      <trkpt lat="42.69338100000035" lon="-1.7912130000000042">
        <ele>394.613</ele>
        <time>2022-08-25T09:16:22Z</time>
      </trkpt>
      <trkpt lat="42.69333900000035" lon="-1.7912530000000042">
        <ele>394.409</ele>
        <time>2022-08-25T09:16:23Z</time>
      </trkpt>
      <trkpt lat="42.69330500000035" lon="-1.791284000000004">
        <ele>394.287</ele>
        <time>2022-08-25T09:16:24Z</time>
      </trkpt>
      <trkpt lat="42.69294000000035" lon="-1.7916180000000042">
        <ele>393.637</ele>
        <time>2022-08-25T09:16:32Z</time>
      </trkpt>
      <trkpt lat="42.692896000000346" lon="-1.791659000000004">
        <ele>393.647</ele>
        <time>2022-08-25T09:16:33Z</time>
      </trkpt>
      <trkpt lat="42.692446000000345" lon="-1.792073000000004">
        <ele>393.223</ele>
        <time>2022-08-25T09:16:43Z</time>
      </trkpt>
      <trkpt lat="42.69240800000034" lon="-1.792108000000004">
        <ele>392.875</ele>
        <time>2022-08-25T09:16:44Z</time>
      </trkpt>
      <trkpt lat="42.69236100000034" lon="-1.792151000000004">
        <ele>392.892</ele>
        <time>2022-08-25T09:16:45Z</time>
      </trkpt>
      <trkpt lat="42.69221700000034" lon="-1.792276000000004">
        <ele>392.685</ele>
        <time>2022-08-25T09:16:48Z</time>
      </trkpt>
      <trkpt lat="42.69197000000034" lon="-1.792507000000004">
        <ele>392.231</ele>
        <time>2022-08-25T09:16:53Z</time>
      </trkpt>
      <trkpt lat="42.691535000000336" lon="-1.7929000000000042">
        <ele>391.632</ele>
        <time>2022-08-25T09:17:02Z</time>
      </trkpt>
      <trkpt lat="42.69105600000034" lon="-1.793341000000004">
        <ele>391.064</ele>
        <time>2022-08-25T09:17:11Z</time>
      </trkpt>
      <trkpt lat="42.690685000000336" lon="-1.7936830000000041">
        <ele>390.606</ele>
        <time>2022-08-25T09:17:18Z</time>
      </trkpt>
      <trkpt lat="42.690564000000336" lon="-1.7937900000000042">
        <ele>390.416</ele>
        <time>2022-08-25T09:17:20Z</time>
      </trkpt>
      <trkpt lat="42.69040900000034" lon="-1.7939330000000042">
        <ele>390.209</ele>
        <time>2022-08-25T09:17:23Z</time>
      </trkpt>
      <trkpt lat="42.69035500000034" lon="-1.7939840000000042">
        <ele>390.247</ele>
        <time>2022-08-25T09:17:24Z</time>
      </trkpt>
      <trkpt lat="42.690288000000336" lon="-1.7940410000000042">
        <ele>390.047</ele>
        <time>2022-08-25T09:17:25Z</time>
      </trkpt>
      <trkpt lat="42.69023600000034" lon="-1.7940900000000042">
        <ele>390.087</ele>
        <time>2022-08-25T09:17:26Z</time>
      </trkpt>
      <trkpt lat="42.69018500000034" lon="-1.7941400000000043">
        <ele>390.023</ele>
        <time>2022-08-25T09:17:27Z</time>
      </trkpt>
      <trkpt lat="42.69014400000034" lon="-1.7941790000000042">
        <ele>389.835</ele>
        <time>2022-08-25T09:17:28Z</time>
      </trkpt>
      <trkpt lat="42.69009300000034" lon="-1.794226000000004">
        <ele>389.872</ele>
        <time>2022-08-25T09:17:29Z</time>
      </trkpt>
      <trkpt lat="42.69003000000034" lon="-1.7942820000000042">
        <ele>389.875</ele>
        <time>2022-08-25T09:17:30Z</time>
      </trkpt>
      <trkpt lat="42.68992900000034" lon="-1.794375000000004">
        <ele>389.661</ele>
        <time>2022-08-25T09:17:32Z</time>
      </trkpt>
      <trkpt lat="42.68946800000034" lon="-1.794812000000004">
        <ele>388.872</ele>
        <time>2022-08-25T09:17:41Z</time>
      </trkpt>
      <trkpt lat="42.68941600000034" lon="-1.7948600000000041">
        <ele>388.658</ele>
        <time>2022-08-25T09:17:42Z</time>
      </trkpt>
      <trkpt lat="42.68930700000034" lon="-1.7949560000000042">
        <ele>388.452</ele>
        <time>2022-08-25T09:17:44Z</time>
      </trkpt>
      <trkpt lat="42.68895800000034" lon="-1.7952730000000041">
        <ele>387.817</ele>
        <time>2022-08-25T09:17:50Z</time>
      </trkpt>
      <trkpt lat="42.68890000000034" lon="-1.7953270000000041">
        <ele>387.809</ele>
        <time>2022-08-25T09:17:51Z</time>
      </trkpt>
      <trkpt lat="42.688853000000336" lon="-1.795371000000004">
        <ele>387.466</ele>
        <time>2022-08-25T09:17:52Z</time>
      </trkpt>
      <trkpt lat="42.68879500000033" lon="-1.795426000000004">
        <ele>387.486</ele>
        <time>2022-08-25T09:17:53Z</time>
      </trkpt>
      <trkpt lat="42.68841200000033" lon="-1.7957780000000039">
        <ele>387.096</ele>
        <time>2022-08-25T09:17:59Z</time>
      </trkpt>
      <trkpt lat="42.688155000000336" lon="-1.796009000000004">
        <ele>386.472</ele>
        <time>2022-08-25T09:18:03Z</time>
      </trkpt>
      <trkpt lat="42.688077000000334" lon="-1.7960830000000039">
        <ele>386.074</ele>
        <time>2022-08-25T09:18:04Z</time>
      </trkpt>
      <trkpt lat="42.687885000000335" lon="-1.796266000000004">
        <ele>385.631</ele>
        <time>2022-08-25T09:18:07Z</time>
      </trkpt>
      <trkpt lat="42.687820000000336" lon="-1.7963260000000039">
        <ele>385.444</ele>
        <time>2022-08-25T09:18:08Z</time>
      </trkpt>
      <trkpt lat="42.687758000000336" lon="-1.796382000000004">
        <ele>385.240</ele>
        <time>2022-08-25T09:18:09Z</time>
      </trkpt>
      <trkpt lat="42.68769600000034" lon="-1.796439000000004">
        <ele>385.261</ele>
        <time>2022-08-25T09:18:10Z</time>
      </trkpt>
      <trkpt lat="42.68763400000034" lon="-1.7964940000000038">
        <ele>385.239</ele>
        <time>2022-08-25T09:18:11Z</time>
      </trkpt>
      <trkpt lat="42.68757400000034" lon="-1.7965500000000039">
        <ele>385.201</ele>
        <time>2022-08-25T09:18:12Z</time>
      </trkpt>
      <trkpt lat="42.68751500000034" lon="-1.7966040000000039">
        <ele>385.221</ele>
        <time>2022-08-25T09:18:13Z</time>
      </trkpt>
      <trkpt lat="42.68727300000034" lon="-1.7968320000000038">
        <ele>384.809</ele>
        <time>2022-08-25T09:18:17Z</time>
      </trkpt>
      <trkpt lat="42.68721100000034" lon="-1.7968900000000037">
        <ele>384.444</ele>
        <time>2022-08-25T09:18:18Z</time>
      </trkpt>
      <trkpt lat="42.687091000000336" lon="-1.7970070000000036">
        <ele>384.234</ele>
        <time>2022-08-25T09:18:20Z</time>
      </trkpt>
      <trkpt lat="42.68679100000033" lon="-1.7972860000000035">
        <ele>383.864</ele>
        <time>2022-08-25T09:18:25Z</time>
      </trkpt>
      <trkpt lat="42.68673000000033" lon="-1.7973410000000034">
        <ele>383.680</ele>
        <time>2022-08-25T09:18:26Z</time>
      </trkpt>
      <trkpt lat="42.68654700000033" lon="-1.7975050000000035">
        <ele>383.292</ele>
        <time>2022-08-25T09:18:29Z</time>
      </trkpt>
      <trkpt lat="42.68604800000033" lon="-1.7979730000000034">
        <ele>382.629</ele>
        <time>2022-08-25T09:18:37Z</time>
      </trkpt>
      <trkpt lat="42.68571400000033" lon="-1.7982850000000035">
        <ele>382.452</ele>
        <time>2022-08-25T09:18:42Z</time>
      </trkpt>
      <trkpt lat="42.68559000000033" lon="-1.7983930000000035">
        <ele>382.058</ele>
        <time>2022-08-25T09:18:44Z</time>
      </trkpt>
      <trkpt lat="42.68529200000033" lon="-1.7986610000000034">
        <ele>381.269</ele>
        <time>2022-08-25T09:18:48Z</time>
      </trkpt>
      <trkpt lat="42.68492700000033" lon="-1.7989950000000035">
        <ele>380.078</ele>
        <time>2022-08-25T09:18:53Z</time>
      </trkpt>
      <trkpt lat="42.68477800000033" lon="-1.7991330000000034">
        <ele>379.633</ele>
        <time>2022-08-25T09:18:55Z</time>
      </trkpt>
      <trkpt lat="42.68447600000033" lon="-1.7994180000000035">
        <ele>379.026</ele>
        <time>2022-08-25T09:18:59Z</time>
      </trkpt>
      <trkpt lat="42.68424000000033" lon="-1.7996390000000035">
        <ele>377.809</ele>
        <time>2022-08-25T09:19:02Z</time>
      </trkpt>
      <trkpt lat="42.68399800000033" lon="-1.7998610000000035">
        <ele>377.228</ele>
        <time>2022-08-25T09:19:05Z</time>
      </trkpt>
      <trkpt lat="42.68383500000033" lon="-1.8000140000000036">
        <ele>376.688</ele>
        <time>2022-08-25T09:19:07Z</time>
      </trkpt>
      <trkpt lat="42.68358500000033" lon="-1.8002440000000035">
        <ele>375.278</ele>
        <time>2022-08-25T09:19:10Z</time>
      </trkpt>
      <trkpt lat="42.683172000000326" lon="-1.8006230000000034">
        <ele>374.034</ele>
        <time>2022-08-25T09:19:15Z</time>
      </trkpt>
      <trkpt lat="42.68309000000033" lon="-1.8006960000000034">
        <ele>373.876</ele>
        <time>2022-08-25T09:19:16Z</time>
      </trkpt>
      <trkpt lat="42.68284700000033" lon="-1.8009200000000034">
        <ele>372.863</ele>
        <time>2022-08-25T09:19:19Z</time>
      </trkpt>
      <trkpt lat="42.68260300000033" lon="-1.8011350000000035">
        <ele>371.856</ele>
        <time>2022-08-25T09:19:22Z</time>
      </trkpt>
      <trkpt lat="42.68228700000033" lon="-1.8014270000000034">
        <ele>370.652</ele>
        <time>2022-08-25T09:19:26Z</time>
      </trkpt>
      <trkpt lat="42.681897000000326" lon="-1.8017830000000035">
        <ele>369.673</ele>
        <time>2022-08-25T09:19:31Z</time>
      </trkpt>
      <trkpt lat="42.681822000000324" lon="-1.8018540000000034">
        <ele>369.424</ele>
        <time>2022-08-25T09:19:32Z</time>
      </trkpt>
      <trkpt lat="42.68167100000032" lon="-1.8019960000000035">
        <ele>369.004</ele>
        <time>2022-08-25T09:19:34Z</time>
      </trkpt>
      <trkpt lat="42.68151900000032" lon="-1.8021370000000034">
        <ele>368.414</ele>
        <time>2022-08-25T09:19:36Z</time>
      </trkpt>
      <trkpt lat="42.68144600000032" lon="-1.8022100000000034">
        <ele>368.209</ele>
        <time>2022-08-25T09:19:37Z</time>
      </trkpt>
      <trkpt lat="42.68129400000032" lon="-1.8023490000000033">
        <ele>367.823</ele>
        <time>2022-08-25T09:19:39Z</time>
      </trkpt>
      <trkpt lat="42.68122000000032" lon="-1.8024160000000033">
        <ele>367.633</ele>
        <time>2022-08-25T09:19:40Z</time>
      </trkpt>
      <trkpt lat="42.68114800000032" lon="-1.8024830000000034">
        <ele>367.223</ele>
        <time>2022-08-25T09:19:41Z</time>
      </trkpt>
      <trkpt lat="42.68107800000032" lon="-1.8025490000000033">
        <ele>367.269</ele>
        <time>2022-08-25T09:19:42Z</time>
      </trkpt>
      <trkpt lat="42.68093500000032" lon="-1.8026790000000033">
        <ele>366.621</ele>
        <time>2022-08-25T09:19:44Z</time>
      </trkpt>
      <trkpt lat="42.68086400000032" lon="-1.8027440000000032">
        <ele>366.428</ele>
        <time>2022-08-25T09:19:45Z</time>
      </trkpt>
      <trkpt lat="42.680795000000316" lon="-1.8028090000000032">
        <ele>366.211</ele>
        <time>2022-08-25T09:19:46Z</time>
      </trkpt>
      <trkpt lat="42.68072600000031" lon="-1.8028740000000032">
        <ele>366.277</ele>
        <time>2022-08-25T09:19:47Z</time>
      </trkpt>
      <trkpt lat="42.680658000000314" lon="-1.8029370000000031">
        <ele>366.028</ele>
        <time>2022-08-25T09:19:48Z</time>
      </trkpt>
      <trkpt lat="42.68059200000032" lon="-1.8029960000000032">
        <ele>365.876</ele>
        <time>2022-08-25T09:19:49Z</time>
      </trkpt>
      <trkpt lat="42.68052600000032" lon="-1.803056000000003">
        <ele>365.690</ele>
        <time>2022-08-25T09:19:50Z</time>
      </trkpt>
      <trkpt lat="42.68046100000032" lon="-1.8031170000000032">
        <ele>365.419</ele>
        <time>2022-08-25T09:19:51Z</time>
      </trkpt>
      <trkpt lat="42.680395000000324" lon="-1.8031760000000032">
        <ele>365.209</ele>
        <time>2022-08-25T09:19:52Z</time>
      </trkpt>
      <trkpt lat="42.680268000000325" lon="-1.8032930000000031">
        <ele>365.048</ele>
        <time>2022-08-25T09:19:54Z</time>
      </trkpt>
      <trkpt lat="42.68014200000032" lon="-1.803415000000003">
        <ele>364.838</ele>
        <time>2022-08-25T09:19:56Z</time>
      </trkpt>
      <trkpt lat="42.68008000000032" lon="-1.803470000000003">
        <ele>364.618</ele>
        <time>2022-08-25T09:19:57Z</time>
      </trkpt>
      <trkpt lat="42.680015000000324" lon="-1.803524000000003">
        <ele>364.254</ele>
        <time>2022-08-25T09:19:58Z</time>
      </trkpt>
      <trkpt lat="42.67989300000033" lon="-1.803632000000003">
        <ele>363.856</ele>
        <time>2022-08-25T09:20:00Z</time>
      </trkpt>
      <trkpt lat="42.679592000000326" lon="-1.803916000000003">
        <ele>362.873</ele>
        <time>2022-08-25T09:20:05Z</time>
      </trkpt>
      <trkpt lat="42.67921400000033" lon="-1.804288000000003">
        <ele>361.836</ele>
        <time>2022-08-25T09:20:11Z</time>
      </trkpt>
      <trkpt lat="42.679153000000326" lon="-1.804348000000003">
        <ele>361.692</ele>
        <time>2022-08-25T09:20:12Z</time>
      </trkpt>
      <trkpt lat="42.67909000000033" lon="-1.8044110000000029">
        <ele>361.463</ele>
        <time>2022-08-25T09:20:13Z</time>
      </trkpt>
      <trkpt lat="42.67902900000033" lon="-1.8044740000000028">
        <ele>361.283</ele>
        <time>2022-08-25T09:20:14Z</time>
      </trkpt>
      <trkpt lat="42.67890800000033" lon="-1.8045940000000027">
        <ele>361.225</ele>
        <time>2022-08-25T09:20:16Z</time>
      </trkpt>
      <trkpt lat="42.678847000000324" lon="-1.8046500000000028">
        <ele>361.017</ele>
        <time>2022-08-25T09:20:17Z</time>
      </trkpt>
      <trkpt lat="42.67860000000032" lon="-1.8048740000000028">
        <ele>360.809</ele>
        <time>2022-08-25T09:20:21Z</time>
      </trkpt>
      <trkpt lat="42.67814700000032" lon="-1.8052900000000027">
        <ele>360.279</ele>
        <time>2022-08-25T09:20:28Z</time>
      </trkpt>
      <trkpt lat="42.677952000000325" lon="-1.8054730000000028">
        <ele>359.879</ele>
        <time>2022-08-25T09:20:31Z</time>
      </trkpt>
      <trkpt lat="42.677834000000324" lon="-1.8055820000000027">
        <ele>359.859</ele>
        <time>2022-08-25T09:20:33Z</time>
      </trkpt>
      <trkpt lat="42.677507000000325" lon="-1.8058840000000027">
        <ele>359.485</ele>
        <time>2022-08-25T09:20:38Z</time>
      </trkpt>
      <trkpt lat="42.67731100000032" lon="-1.8060580000000026">
        <ele>359.267</ele>
        <time>2022-08-25T09:20:41Z</time>
      </trkpt>
      <trkpt lat="42.67718500000032" lon="-1.8061750000000025">
        <ele>359.214</ele>
        <time>2022-08-25T09:20:43Z</time>
      </trkpt>
      <trkpt lat="42.67697700000032" lon="-1.8063640000000025">
        <ele>359.097</ele>
        <time>2022-08-25T09:20:46Z</time>
      </trkpt>
      <trkpt lat="42.67692000000032" lon="-1.8064130000000025">
        <ele>358.873</ele>
        <time>2022-08-25T09:20:47Z</time>
      </trkpt>
      <trkpt lat="42.67688300000032" lon="-1.8064520000000024">
        <ele>358.614</ele>
        <time>2022-08-25T09:20:48Z</time>
      </trkpt>
      <trkpt lat="42.676866000000324" lon="-1.8064880000000023">
        <ele>358.464</ele>
        <time>2022-08-25T09:20:49Z</time>
      </trkpt>
      <trkpt lat="42.676860000000325" lon="-1.8065250000000024">
        <ele>358.206</ele>
        <time>2022-08-25T09:20:50Z</time>
      </trkpt>
      <trkpt lat="42.67685900000033" lon="-1.8065470000000023">
        <ele>358.216</ele>
        <time>2022-08-25T09:20:51Z</time>
      </trkpt>
      <trkpt lat="42.67684700000033" lon="-1.8065730000000024">
        <ele>357.609</ele>
        <time>2022-08-25T09:21:09Z</time>
      </trkpt>
      <trkpt lat="42.67683500000033" lon="-1.8065910000000025">
        <ele>357.627</ele>
        <time>2022-08-25T09:21:10Z</time>
      </trkpt>
      <trkpt lat="42.67678200000033" lon="-1.8066310000000025">
        <ele>357.637</ele>
        <time>2022-08-25T09:21:13Z</time>
      </trkpt>
      <trkpt lat="42.67675900000033" lon="-1.8066370000000025">
        <ele>357.677</ele>
        <time>2022-08-25T09:21:14Z</time>
      </trkpt>
      <trkpt lat="42.67673600000033" lon="-1.8066420000000025">
        <ele>357.643</ele>
        <time>2022-08-25T09:21:15Z</time>
      </trkpt>
      <trkpt lat="42.67670800000033" lon="-1.8066520000000026">
        <ele>357.465</ele>
        <time>2022-08-25T09:21:16Z</time>
      </trkpt>
      <trkpt lat="42.67669200000033" lon="-1.8066550000000026">
        <ele>357.482</ele>
        <time>2022-08-25T09:21:17Z</time>
      </trkpt>
      <trkpt lat="42.67667900000033" lon="-1.8066550000000026">
        <ele>357.235</ele>
        <time>2022-08-25T09:21:18Z</time>
      </trkpt>
      <trkpt lat="42.67667200000033" lon="-1.8066530000000025">
        <ele>357.221</ele>
        <time>2022-08-25T09:21:19Z</time>
      </trkpt>
      <trkpt lat="42.67664000000033" lon="-1.8066340000000025">
        <ele>357.012</ele>
        <time>2022-08-25T09:21:25Z</time>
      </trkpt>
      <trkpt lat="42.67656800000033" lon="-1.8065430000000025">
        <ele>357.232</ele>
        <time>2022-08-25T09:21:30Z</time>
      </trkpt>
      <trkpt lat="42.67656600000033" lon="-1.8065060000000024">
        <ele>357.292</ele>
        <time>2022-08-25T09:21:31Z</time>
      </trkpt>
      <trkpt lat="42.676553000000325" lon="-1.8062830000000023">
        <ele>357.211</ele>
        <time>2022-08-25T09:21:36Z</time>
      </trkpt>
      <trkpt lat="42.67649500000032" lon="-1.8061030000000022">
        <ele>356.809</ele>
        <time>2022-08-25T09:21:40Z</time>
      </trkpt>
      <trkpt lat="42.67647300000032" lon="-1.8060900000000022">
        <ele>356.844</ele>
        <time>2022-08-25T09:21:41Z</time>
      </trkpt>
      <trkpt lat="42.67645100000032" lon="-1.8060930000000022">
        <ele>356.484</ele>
        <time>2022-08-25T09:21:42Z</time>
      </trkpt>
      <trkpt lat="42.67643300000032" lon="-1.8061070000000021">
        <ele>356.484</ele>
        <time>2022-08-25T09:21:43Z</time>
      </trkpt>
      <trkpt lat="42.67642000000032" lon="-1.806127000000002">
        <ele>356.280</ele>
        <time>2022-08-25T09:21:44Z</time>
      </trkpt>
      <trkpt lat="42.67641600000032" lon="-1.806147000000002">
        <ele>356.082</ele>
        <time>2022-08-25T09:21:45Z</time>
      </trkpt>
      <trkpt lat="42.67641100000032" lon="-1.806169000000002">
        <ele>356.019</ele>
        <time>2022-08-25T09:21:46Z</time>
      </trkpt>
      <trkpt lat="42.676407000000324" lon="-1.806187000000002">
        <ele>355.852</ele>
        <time>2022-08-25T09:21:47Z</time>
      </trkpt>
      <trkpt lat="42.67640500000032" lon="-1.806201000000002">
        <ele>355.828</ele>
        <time>2022-08-25T09:21:48Z</time>
      </trkpt>
      <trkpt lat="42.67640300000032" lon="-1.8062130000000018">
        <ele>355.839</ele>
        <time>2022-08-25T09:21:49Z</time>
      </trkpt>
      <trkpt lat="42.67640200000032" lon="-1.8062250000000017">
        <ele>355.827</ele>
        <time>2022-08-25T09:21:50Z</time>
      </trkpt>
      <trkpt lat="42.67640300000032" lon="-1.8062350000000018">
        <ele>355.868</ele>
        <time>2022-08-25T09:21:51Z</time>
      </trkpt>
      <trkpt lat="42.67640300000032" lon="-1.8062480000000019">
        <ele>356.014</ele>
        <time>2022-08-25T09:21:52Z</time>
      </trkpt>
      <trkpt lat="42.67639300000032" lon="-1.8062840000000018">
        <ele>356.009</ele>
        <time>2022-08-25T09:21:54Z</time>
      </trkpt>
      <trkpt lat="42.67636700000032" lon="-1.8063800000000019">
        <ele>356.063</ele>
        <time>2022-08-25T09:21:58Z</time>
      </trkpt>
      <trkpt lat="42.67636400000032" lon="-1.806401000000002">
        <ele>356.243</ele>
        <time>2022-08-25T09:21:59Z</time>
      </trkpt>
      <trkpt lat="42.67636500000032" lon="-1.806414000000002">
        <ele>356.243</ele>
        <time>2022-08-25T09:22:00Z</time>
      </trkpt>
      <trkpt lat="42.67636700000032" lon="-1.806427000000002">
        <ele>356.479</ele>
        <time>2022-08-25T09:22:01Z</time>
      </trkpt>
      <trkpt lat="42.67637000000032" lon="-1.806438000000002">
        <ele>356.431</ele>
        <time>2022-08-25T09:22:02Z</time>
      </trkpt>
      <trkpt lat="42.67636900000032" lon="-1.806454000000002">
        <ele>356.448</ele>
        <time>2022-08-25T09:22:03Z</time>
      </trkpt>
      <trkpt lat="42.67632500000032" lon="-1.806513000000002">
        <ele>356.661</ele>
        <time>2022-08-25T09:22:07Z</time>
      </trkpt>
      <trkpt lat="42.676315000000315" lon="-1.806525000000002">
        <ele>356.697</ele>
        <time>2022-08-25T09:22:08Z</time>
      </trkpt>
      <trkpt lat="42.676307000000314" lon="-1.806538000000002">
        <ele>356.658</ele>
        <time>2022-08-25T09:22:09Z</time>
      </trkpt>
      <trkpt lat="42.67630200000031" lon="-1.806549000000002">
        <ele>356.888</ele>
        <time>2022-08-25T09:22:10Z</time>
      </trkpt>
      <trkpt lat="42.67629700000031" lon="-1.806563000000002">
        <ele>356.824</ele>
        <time>2022-08-25T09:22:11Z</time>
      </trkpt>
      <trkpt lat="42.67629200000031" lon="-1.8065800000000019">
        <ele>356.826</ele>
        <time>2022-08-25T09:22:12Z</time>
      </trkpt>
      <trkpt lat="42.67628600000031" lon="-1.8065940000000018">
        <ele>356.809</ele>
        <time>2022-08-25T09:22:13Z</time>
      </trkpt>
      <trkpt lat="42.67627300000031" lon="-1.8066080000000018">
        <ele>356.849</ele>
        <time>2022-08-25T09:22:14Z</time>
      </trkpt>
      <trkpt lat="42.676243000000305" lon="-1.8066270000000018">
        <ele>356.859</ele>
        <time>2022-08-25T09:22:16Z</time>
      </trkpt>
      <trkpt lat="42.6762300000003" lon="-1.8066360000000017">
        <ele>356.689</ele>
        <time>2022-08-25T09:22:17Z</time>
      </trkpt>
      <trkpt lat="42.6762190000003" lon="-1.8066460000000018">
        <ele>356.665</ele>
        <time>2022-08-25T09:22:18Z</time>
      </trkpt>
      <trkpt lat="42.6762100000003" lon="-1.8066610000000018">
        <ele>356.657</ele>
        <time>2022-08-25T09:22:19Z</time>
      </trkpt>
      <trkpt lat="42.6762000000003" lon="-1.806679000000002">
        <ele>356.434</ele>
        <time>2022-08-25T09:22:20Z</time>
      </trkpt>
      <trkpt lat="42.6761860000003" lon="-1.8066960000000019">
        <ele>356.427</ele>
        <time>2022-08-25T09:22:21Z</time>
      </trkpt>
      <trkpt lat="42.6761690000003" lon="-1.8066970000000018">
        <ele>356.453</ele>
        <time>2022-08-25T09:22:22Z</time>
      </trkpt>
      <trkpt lat="42.6761590000003" lon="-1.8066850000000019">
        <ele>356.424</ele>
        <time>2022-08-25T09:22:23Z</time>
      </trkpt>
      <trkpt lat="42.6761700000003" lon="-1.8066560000000018">
        <ele>356.226</ele>
        <time>2022-08-25T09:22:25Z</time>
      </trkpt>
      <trkpt lat="42.6761870000003" lon="-1.8066410000000017">
        <ele>356.247</ele>
        <time>2022-08-25T09:22:26Z</time>
      </trkpt>
      <trkpt lat="42.6762450000003" lon="-1.8065760000000017">
        <ele>356.211</ele>
        <time>2022-08-25T09:22:29Z</time>
      </trkpt>
      <trkpt lat="42.6762510000003" lon="-1.8065550000000017">
        <ele>356.409</ele>
        <time>2022-08-25T09:22:30Z</time>
      </trkpt>
      <trkpt lat="42.6762540000003" lon="-1.8065430000000018">
        <ele>356.413</ele>
        <time>2022-08-25T09:22:31Z</time>
      </trkpt>
      <trkpt lat="42.676193000000296" lon="-1.8064620000000018">
        <ele>354.253</ele>
        <time>2022-08-25T09:48:39Z</time>
      </trkpt>
      <trkpt lat="42.676205000000294" lon="-1.8064470000000017">
        <ele>354.643</ele>
        <time>2022-08-25T09:48:40Z</time>
      </trkpt>
      <trkpt lat="42.67620300000029" lon="-1.8066400000000018">
        <ele>354.429</ele>
        <time>2022-08-25T09:49:27Z</time>
      </trkpt>
      <trkpt lat="42.676115000000294" lon="-1.8067910000000018">
        <ele>354.271</ele>
        <time>2022-08-25T09:49:32Z</time>
      </trkpt>
      <trkpt lat="42.675954000000296" lon="-1.806952000000002">
        <ele>353.668</ele>
        <time>2022-08-25T09:49:38Z</time>
      </trkpt>
      <trkpt lat="42.67589600000029" lon="-1.8069900000000019">
        <ele>353.291</ele>
        <time>2022-08-25T09:49:40Z</time>
      </trkpt>
      <trkpt lat="42.67586900000029" lon="-1.8070100000000018">
        <ele>353.067</ele>
        <time>2022-08-25T09:49:41Z</time>
      </trkpt>
      <trkpt lat="42.67584200000029" lon="-1.8070280000000019">
        <ele>353.058</ele>
        <time>2022-08-25T09:49:42Z</time>
      </trkpt>
      <trkpt lat="42.67582100000029" lon="-1.8070470000000018">
        <ele>352.892</ele>
        <time>2022-08-25T09:49:43Z</time>
      </trkpt>
      <trkpt lat="42.67579700000029" lon="-1.807068000000002">
        <ele>352.873</ele>
        <time>2022-08-25T09:49:44Z</time>
      </trkpt>
      <trkpt lat="42.675767000000285" lon="-1.807091000000002">
        <ele>352.820</ele>
        <time>2022-08-25T09:49:45Z</time>
      </trkpt>
      <trkpt lat="42.67573700000028" lon="-1.807121000000002">
        <ele>352.809</ele>
        <time>2022-08-25T09:49:46Z</time>
      </trkpt>
      <trkpt lat="42.675711000000284" lon="-1.807154000000002">
        <ele>352.650</ele>
        <time>2022-08-25T09:49:47Z</time>
      </trkpt>
      <trkpt lat="42.67568900000028" lon="-1.807188000000002">
        <ele>352.650</ele>
        <time>2022-08-25T09:49:48Z</time>
      </trkpt>
      <trkpt lat="42.675671000000285" lon="-1.807219000000002">
        <ele>352.630</ele>
        <time>2022-08-25T09:49:49Z</time>
      </trkpt>
      <trkpt lat="42.675651000000286" lon="-1.807251000000002">
        <ele>352.636</ele>
        <time>2022-08-25T09:49:50Z</time>
      </trkpt>
      <trkpt lat="42.675632000000284" lon="-1.8072820000000018">
        <ele>352.448</ele>
        <time>2022-08-25T09:49:51Z</time>
      </trkpt>
      <trkpt lat="42.67561400000029" lon="-1.8073140000000019">
        <ele>352.415</ele>
        <time>2022-08-25T09:49:52Z</time>
      </trkpt>
      <trkpt lat="42.675598000000285" lon="-1.8073470000000018">
        <ele>352.438</ele>
        <time>2022-08-25T09:49:53Z</time>
      </trkpt>
      <trkpt lat="42.675581000000285" lon="-1.807381000000002">
        <ele>352.424</ele>
        <time>2022-08-25T09:49:54Z</time>
      </trkpt>
      <trkpt lat="42.675564000000286" lon="-1.8074140000000019">
        <ele>352.465</ele>
        <time>2022-08-25T09:49:55Z</time>
      </trkpt>
      <trkpt lat="42.675544000000286" lon="-1.8074440000000018">
        <ele>352.428</ele>
        <time>2022-08-25T09:49:56Z</time>
      </trkpt>
      <trkpt lat="42.67552400000029" lon="-1.8074740000000018">
        <ele>352.289</ele>
        <time>2022-08-25T09:49:57Z</time>
      </trkpt>
      <trkpt lat="42.67550600000029" lon="-1.8075030000000019">
        <ele>352.217</ele>
        <time>2022-08-25T09:49:58Z</time>
      </trkpt>
      <trkpt lat="42.67549100000029" lon="-1.8075300000000019">
        <ele>352.209</ele>
        <time>2022-08-25T09:49:59Z</time>
      </trkpt>
      <trkpt lat="42.67547700000029" lon="-1.8075540000000019">
        <ele>352.213</ele>
        <time>2022-08-25T09:50:00Z</time>
      </trkpt>
      <trkpt lat="42.675465000000294" lon="-1.8075790000000018">
        <ele>352.233</ele>
        <time>2022-08-25T09:50:01Z</time>
      </trkpt>
      <trkpt lat="42.675456000000295" lon="-1.8076040000000018">
        <ele>352.223</ele>
        <time>2022-08-25T09:50:02Z</time>
      </trkpt>
      <trkpt lat="42.6754490000003" lon="-1.8076220000000018">
        <ele>352.269</ele>
        <time>2022-08-25T09:50:03Z</time>
      </trkpt>
      <trkpt lat="42.6754380000003" lon="-1.8076430000000019">
        <ele>352.241</ele>
        <time>2022-08-25T09:50:04Z</time>
      </trkpt>
      <trkpt lat="42.675425000000295" lon="-1.8076730000000019">
        <ele>352.078</ele>
        <time>2022-08-25T09:50:05Z</time>
      </trkpt>
      <trkpt lat="42.67535000000029" lon="-1.8078090000000018">
        <ele>351.811</ele>
        <time>2022-08-25T09:50:09Z</time>
      </trkpt>
      <trkpt lat="42.675330000000294" lon="-1.8078380000000018">
        <ele>351.897</ele>
        <time>2022-08-25T09:50:10Z</time>
      </trkpt>
      <trkpt lat="42.67519000000029" lon="-1.8080440000000018">
        <ele>352.048</ele>
        <time>2022-08-25T09:50:16Z</time>
      </trkpt>
      <trkpt lat="42.675164000000294" lon="-1.8080770000000017">
        <ele>352.015</ele>
        <time>2022-08-25T09:50:17Z</time>
      </trkpt>
      <trkpt lat="42.67514000000029" lon="-1.8081100000000017">
        <ele>352.065</ele>
        <time>2022-08-25T09:50:18Z</time>
      </trkpt>
      <trkpt lat="42.67511600000029" lon="-1.8081410000000016">
        <ele>352.011</ele>
        <time>2022-08-25T09:50:19Z</time>
      </trkpt>
      <trkpt lat="42.675091000000286" lon="-1.8081730000000016">
        <ele>352.009</ele>
        <time>2022-08-25T09:50:20Z</time>
      </trkpt>
      <trkpt lat="42.675069000000285" lon="-1.8082030000000016">
        <ele>352.072</ele>
        <time>2022-08-25T09:50:21Z</time>
      </trkpt>
      <trkpt lat="42.67495000000029" lon="-1.8083760000000015">
        <ele>351.622</ele>
        <time>2022-08-25T09:50:26Z</time>
      </trkpt>
      <trkpt lat="42.674827000000285" lon="-1.8085540000000015">
        <ele>351.642</ele>
        <time>2022-08-25T09:50:31Z</time>
      </trkpt>
      <trkpt lat="42.674802000000284" lon="-1.8085900000000015">
        <ele>351.618</ele>
        <time>2022-08-25T09:50:32Z</time>
      </trkpt>
      <trkpt lat="42.67477800000028" lon="-1.8086230000000014">
        <ele>351.640</ele>
        <time>2022-08-25T09:50:33Z</time>
      </trkpt>
      <trkpt lat="42.67475400000028" lon="-1.8086600000000015">
        <ele>351.677</ele>
        <time>2022-08-25T09:50:34Z</time>
      </trkpt>
      <trkpt lat="42.674701000000276" lon="-1.8087310000000014">
        <ele>351.830</ele>
        <time>2022-08-25T09:50:36Z</time>
      </trkpt>
      <trkpt lat="42.674676000000275" lon="-1.8087660000000014">
        <ele>352.066</ele>
        <time>2022-08-25T09:50:37Z</time>
      </trkpt>
      <trkpt lat="42.674654000000274" lon="-1.8088000000000015">
        <ele>351.877</ele>
        <time>2022-08-25T09:50:38Z</time>
      </trkpt>
      <trkpt lat="42.67463500000027" lon="-1.8088320000000015">
        <ele>351.882</ele>
        <time>2022-08-25T09:50:39Z</time>
      </trkpt>
      <trkpt lat="42.674614000000275" lon="-1.8088620000000015">
        <ele>352.043</ele>
        <time>2022-08-25T09:50:40Z</time>
      </trkpt>
      <trkpt lat="42.674589000000275" lon="-1.8088930000000014">
        <ele>352.017</ele>
        <time>2022-08-25T09:50:41Z</time>
      </trkpt>
      <trkpt lat="42.67456700000027" lon="-1.8089220000000015">
        <ele>352.009</ele>
        <time>2022-08-25T09:50:42Z</time>
      </trkpt>
      <trkpt lat="42.674549000000276" lon="-1.8089510000000015">
        <ele>352.059</ele>
        <time>2022-08-25T09:50:43Z</time>
      </trkpt>
      <trkpt lat="42.674533000000274" lon="-1.8089780000000015">
        <ele>352.079</ele>
        <time>2022-08-25T09:50:44Z</time>
      </trkpt>
      <trkpt lat="42.67438700000027" lon="-1.8092070000000016">
        <ele>352.089</ele>
        <time>2022-08-25T09:50:51Z</time>
      </trkpt>
      <trkpt lat="42.67431100000027" lon="-1.8093170000000016">
        <ele>352.035</ele>
        <time>2022-08-25T09:50:54Z</time>
      </trkpt>
      <trkpt lat="42.674209000000275" lon="-1.8094610000000015">
        <ele>351.697</ele>
        <time>2022-08-25T09:50:58Z</time>
      </trkpt>
      <trkpt lat="42.67418000000028" lon="-1.8094970000000015">
        <ele>351.634</ele>
        <time>2022-08-25T09:50:59Z</time>
      </trkpt>
      <trkpt lat="42.67410100000028" lon="-1.8096010000000016">
        <ele>351.657</ele>
        <time>2022-08-25T09:51:02Z</time>
      </trkpt>
      <trkpt lat="42.674077000000274" lon="-1.8096350000000017">
        <ele>351.453</ele>
        <time>2022-08-25T09:51:03Z</time>
      </trkpt>
      <trkpt lat="42.674054000000275" lon="-1.8096690000000017">
        <ele>351.464</ele>
        <time>2022-08-25T09:51:04Z</time>
      </trkpt>
      <trkpt lat="42.674029000000274" lon="-1.8097050000000017">
        <ele>351.489</ele>
        <time>2022-08-25T09:51:05Z</time>
      </trkpt>
      <trkpt lat="42.674006000000276" lon="-1.8097400000000017">
        <ele>351.406</ele>
        <time>2022-08-25T09:51:06Z</time>
      </trkpt>
      <trkpt lat="42.67398300000028" lon="-1.8097710000000016">
        <ele>351.426</ele>
        <time>2022-08-25T09:51:07Z</time>
      </trkpt>
      <trkpt lat="42.67396200000028" lon="-1.8098030000000016">
        <ele>351.409</ele>
        <time>2022-08-25T09:51:08Z</time>
      </trkpt>
      <trkpt lat="42.67394100000028" lon="-1.8098330000000016">
        <ele>351.479</ele>
        <time>2022-08-25T09:51:09Z</time>
      </trkpt>
      <trkpt lat="42.67389400000028" lon="-1.8098950000000016">
        <ele>351.429</ele>
        <time>2022-08-25T09:51:11Z</time>
      </trkpt>
      <trkpt lat="42.67387200000028" lon="-1.8099250000000016">
        <ele>351.429</ele>
        <time>2022-08-25T09:51:12Z</time>
      </trkpt>
      <trkpt lat="42.67385200000028" lon="-1.8099550000000015">
        <ele>351.425</ele>
        <time>2022-08-25T09:51:13Z</time>
      </trkpt>
      <trkpt lat="42.67379800000028" lon="-1.8100500000000015">
        <ele>351.617</ele>
        <time>2022-08-25T09:51:16Z</time>
      </trkpt>
      <trkpt lat="42.67376200000028" lon="-1.8101130000000014">
        <ele>351.824</ele>
        <time>2022-08-25T09:51:18Z</time>
      </trkpt>
      <trkpt lat="42.67374700000028" lon="-1.8101460000000014">
        <ele>351.837</ele>
        <time>2022-08-25T09:51:19Z</time>
      </trkpt>
      <trkpt lat="42.67373300000028" lon="-1.8101770000000013">
        <ele>352.063</ele>
        <time>2022-08-25T09:51:20Z</time>
      </trkpt>
      <trkpt lat="42.673713000000284" lon="-1.8102060000000013">
        <ele>352.084</ele>
        <time>2022-08-25T09:51:21Z</time>
      </trkpt>
      <trkpt lat="42.673634000000284" lon="-1.8103000000000014">
        <ele>352.046</ele>
        <time>2022-08-25T09:51:24Z</time>
      </trkpt>
      <trkpt lat="42.67360900000028" lon="-1.8103270000000014">
        <ele>351.888</ele>
        <time>2022-08-25T09:51:25Z</time>
      </trkpt>
      <trkpt lat="42.67359000000028" lon="-1.8103510000000014">
        <ele>351.816</ele>
        <time>2022-08-25T09:51:26Z</time>
      </trkpt>
      <trkpt lat="42.67357400000028" lon="-1.8103700000000014">
        <ele>352.009</ele>
        <time>2022-08-25T09:51:27Z</time>
      </trkpt>
      <trkpt lat="42.67356300000028" lon="-1.8103810000000014">
        <ele>351.825</ele>
        <time>2022-08-25T09:51:28Z</time>
      </trkpt>
      <trkpt lat="42.67355700000028" lon="-1.8103860000000014">
        <ele>351.685</ele>
        <time>2022-08-25T09:51:29Z</time>
      </trkpt>
      <trkpt lat="42.67355300000028" lon="-1.8103910000000014">
        <ele>351.625</ele>
        <time>2022-08-25T09:51:30Z</time>
      </trkpt>
      <trkpt lat="42.67354700000028" lon="-1.8103940000000014">
        <ele>351.631</ele>
        <time>2022-08-25T09:51:31Z</time>
      </trkpt>
      <trkpt lat="42.67350600000028" lon="-1.8104060000000013">
        <ele>351.463</ele>
        <time>2022-08-25T09:51:35Z</time>
      </trkpt>
      <trkpt lat="42.67346800000028" lon="-1.8104040000000012">
        <ele>351.220</ele>
        <time>2022-08-25T09:51:37Z</time>
      </trkpt>
      <trkpt lat="42.67345300000028" lon="-1.8104010000000013">
        <ele>351.293</ele>
        <time>2022-08-25T09:51:38Z</time>
      </trkpt>
      <trkpt lat="42.67343800000028" lon="-1.8104040000000012">
        <ele>351.249</ele>
        <time>2022-08-25T09:51:39Z</time>
      </trkpt>
      <trkpt lat="42.67342700000028" lon="-1.8104040000000012">
        <ele>351.280</ele>
        <time>2022-08-25T09:51:40Z</time>
      </trkpt>
      <trkpt lat="42.67335500000028" lon="-1.8104220000000013">
        <ele>351.448</ele>
        <time>2022-08-25T09:55:11Z</time>
      </trkpt>
      <trkpt lat="42.673263000000276" lon="-1.8104070000000012">
        <ele>351.461</ele>
        <time>2022-08-25T09:55:15Z</time>
      </trkpt>
      <trkpt lat="42.67314900000027" lon="-1.8104300000000013">
        <ele>351.017</ele>
        <time>2022-08-25T09:55:19Z</time>
      </trkpt>
      <trkpt lat="42.673128000000276" lon="-1.8104610000000012">
        <ele>351.009</ele>
        <time>2022-08-25T09:55:20Z</time>
      </trkpt>
      <trkpt lat="42.67311000000028" lon="-1.8104880000000012">
        <ele>351.035</ele>
        <time>2022-08-25T09:55:21Z</time>
      </trkpt>
      <trkpt lat="42.67309100000028" lon="-1.8105110000000013">
        <ele>351.015</ele>
        <time>2022-08-25T09:55:22Z</time>
      </trkpt>
      <trkpt lat="42.67305900000028" lon="-1.8105600000000013">
        <ele>350.815</ele>
        <time>2022-08-25T09:55:24Z</time>
      </trkpt>
      <trkpt lat="42.67300600000028" lon="-1.8107050000000013">
        <ele>350.251</ele>
        <time>2022-08-25T09:55:28Z</time>
      </trkpt>
      <trkpt lat="42.67299100000028" lon="-1.8107510000000013">
        <ele>350.273</ele>
        <time>2022-08-25T09:55:29Z</time>
      </trkpt>
      <trkpt lat="42.67297400000028" lon="-1.8107980000000012">
        <ele>350.280</ele>
        <time>2022-08-25T09:55:30Z</time>
      </trkpt>
      <trkpt lat="42.67295200000028" lon="-1.8108480000000013">
        <ele>350.443</ele>
        <time>2022-08-25T09:55:31Z</time>
      </trkpt>
      <trkpt lat="42.67294700000028" lon="-1.8108930000000014">
        <ele>350.419</ele>
        <time>2022-08-25T09:55:32Z</time>
      </trkpt>
      <trkpt lat="42.672942000000276" lon="-1.8109320000000013">
        <ele>350.460</ele>
        <time>2022-08-25T09:55:33Z</time>
      </trkpt>
      <trkpt lat="42.67292900000027" lon="-1.8109690000000014">
        <ele>350.458</ele>
        <time>2022-08-25T09:55:34Z</time>
      </trkpt>
      <trkpt lat="42.672914000000276" lon="-1.8110080000000013">
        <ele>350.452</ele>
        <time>2022-08-25T09:55:35Z</time>
      </trkpt>
      <trkpt lat="42.67290200000028" lon="-1.8110430000000013">
        <ele>350.417</ele>
        <time>2022-08-25T09:55:36Z</time>
      </trkpt>
      <trkpt lat="42.67285400000028" lon="-1.8111930000000014">
        <ele>350.209</ele>
        <time>2022-08-25T09:55:40Z</time>
      </trkpt>
      <trkpt lat="42.67282600000028" lon="-1.8113200000000014">
        <ele>349.866</ele>
        <time>2022-08-25T09:55:43Z</time>
      </trkpt>
      <trkpt lat="42.67280000000028" lon="-1.8114070000000013">
        <ele>349.486</ele>
        <time>2022-08-25T09:55:45Z</time>
      </trkpt>
      <trkpt lat="42.67275300000028" lon="-1.8115360000000014">
        <ele>349.276</ele>
        <time>2022-08-25T09:55:48Z</time>
      </trkpt>
      <trkpt lat="42.67273900000028" lon="-1.8115790000000014">
        <ele>349.262</ele>
        <time>2022-08-25T09:55:49Z</time>
      </trkpt>
      <trkpt lat="42.67270700000028" lon="-1.8117590000000015">
        <ele>349.064</ele>
        <time>2022-08-25T09:55:53Z</time>
      </trkpt>
      <trkpt lat="42.67268000000028" lon="-1.8118410000000014">
        <ele>348.871</ele>
        <time>2022-08-25T09:55:55Z</time>
      </trkpt>
      <trkpt lat="42.67266500000028" lon="-1.8118840000000014">
        <ele>348.824</ele>
        <time>2022-08-25T09:55:56Z</time>
      </trkpt>
      <trkpt lat="42.672655000000276" lon="-1.8119300000000014">
        <ele>348.660</ele>
        <time>2022-08-25T09:55:57Z</time>
      </trkpt>
      <trkpt lat="42.67264300000028" lon="-1.8119770000000013">
        <ele>348.661</ele>
        <time>2022-08-25T09:55:58Z</time>
      </trkpt>
      <trkpt lat="42.67262800000028" lon="-1.8120670000000012">
        <ele>348.413</ele>
        <time>2022-08-25T09:56:00Z</time>
      </trkpt>
      <trkpt lat="42.67259000000028" lon="-1.8122230000000012">
        <ele>348.243</ele>
        <time>2022-08-25T09:56:04Z</time>
      </trkpt>
      <trkpt lat="42.67258100000028" lon="-1.8122540000000011">
        <ele>348.207</ele>
        <time>2022-08-25T09:56:05Z</time>
      </trkpt>
      <trkpt lat="42.67252800000028" lon="-1.8124500000000012">
        <ele>348.009</ele>
        <time>2022-08-25T09:56:11Z</time>
      </trkpt>
      <trkpt lat="42.67252500000028" lon="-1.8124940000000012">
        <ele>348.082</ele>
        <time>2022-08-25T09:56:12Z</time>
      </trkpt>
      <trkpt lat="42.672515000000274" lon="-1.812533000000001">
        <ele>348.022</ele>
        <time>2022-08-25T09:56:13Z</time>
      </trkpt>
      <trkpt lat="42.67250500000027" lon="-1.812568000000001">
        <ele>348.072</ele>
        <time>2022-08-25T09:56:14Z</time>
      </trkpt>
      <trkpt lat="42.67250400000027" lon="-1.8125890000000011">
        <ele>348.068</ele>
        <time>2022-08-25T09:56:15Z</time>
      </trkpt>
      <trkpt lat="42.67250200000027" lon="-1.812608000000001">
        <ele>347.840</ele>
        <time>2022-08-25T09:56:16Z</time>
      </trkpt>
      <trkpt lat="42.67250600000027" lon="-1.8126260000000012">
        <ele>347.837</ele>
        <time>2022-08-25T09:56:17Z</time>
      </trkpt>
      <trkpt lat="42.672504000000266" lon="-1.8126440000000013">
        <ele>347.880</ele>
        <time>2022-08-25T09:56:18Z</time>
      </trkpt>
      <trkpt lat="42.672496000000265" lon="-1.8126570000000013">
        <ele>347.826</ele>
        <time>2022-08-25T09:56:19Z</time>
      </trkpt>
      <trkpt lat="42.67248700000027" lon="-1.8126650000000013">
        <ele>347.847</ele>
        <time>2022-08-25T09:56:20Z</time>
      </trkpt>
      <trkpt lat="42.67248100000027" lon="-1.8127090000000012">
        <ele>347.862</ele>
        <time>2022-08-25T09:56:29Z</time>
      </trkpt>
      <trkpt lat="42.67247700000027" lon="-1.8127320000000013">
        <ele>347.883</ele>
        <time>2022-08-25T09:56:31Z</time>
      </trkpt>
      <trkpt lat="42.67244900000027" lon="-1.8128110000000013">
        <ele>347.811</ele>
        <time>2022-08-25T09:56:34Z</time>
      </trkpt>
      <trkpt lat="42.67243300000027" lon="-1.8128480000000013">
        <ele>347.609</ele>
        <time>2022-08-25T09:56:35Z</time>
      </trkpt>
      <trkpt lat="42.67241500000027" lon="-1.8128930000000014">
        <ele>347.637</ele>
        <time>2022-08-25T09:56:36Z</time>
      </trkpt>
      <trkpt lat="42.67238600000027" lon="-1.8130090000000014">
        <ele>347.637</ele>
        <time>2022-08-25T09:56:38Z</time>
      </trkpt>
      <trkpt lat="42.67240100000027" lon="-1.8130670000000013">
        <ele>347.637</ele>
        <time>2022-08-25T09:56:39Z</time>
      </trkpt>
      <trkpt lat="42.67239500000027" lon="-1.8131040000000014">
        <ele>347.473</ele>
        <time>2022-08-25T09:56:40Z</time>
      </trkpt>
      <trkpt lat="42.67239800000027" lon="-1.8131890000000013">
        <ele>347.425</ele>
        <time>2022-08-25T09:56:42Z</time>
      </trkpt>
      <trkpt lat="42.67239800000027" lon="-1.8133080000000013">
        <ele>347.482</ele>
        <time>2022-08-25T09:56:44Z</time>
      </trkpt>
      <trkpt lat="42.67237200000027" lon="-1.8133570000000012">
        <ele>347.485</ele>
        <time>2022-08-25T09:56:45Z</time>
      </trkpt>
      <trkpt lat="42.67228200000027" lon="-1.8134810000000012">
        <ele>347.491</ele>
        <time>2022-08-25T09:56:50Z</time>
      </trkpt>
      <trkpt lat="42.67226900000027" lon="-1.8135100000000013">
        <ele>347.472</ele>
        <time>2022-08-25T09:56:51Z</time>
      </trkpt>
      <trkpt lat="42.67226200000027" lon="-1.8135260000000013">
        <ele>347.488</ele>
        <time>2022-08-25T09:56:52Z</time>
      </trkpt>
      <trkpt lat="42.672256000000274" lon="-1.8135430000000012">
        <ele>347.424</ele>
        <time>2022-08-25T09:56:53Z</time>
      </trkpt>
      <trkpt lat="42.672230000000276" lon="-1.8136260000000013">
        <ele>347.426</ele>
        <time>2022-08-25T09:56:54Z</time>
      </trkpt>
      <trkpt lat="42.672233000000276" lon="-1.8136590000000012">
        <ele>347.409</ele>
        <time>2022-08-25T09:56:55Z</time>
      </trkpt>
      <trkpt lat="42.67222400000028" lon="-1.8137130000000012">
        <ele>347.219</ele>
        <time>2022-08-25T09:56:56Z</time>
      </trkpt>
      <trkpt lat="42.672219000000275" lon="-1.8137720000000013">
        <ele>347.299</ele>
        <time>2022-08-25T09:56:57Z</time>
      </trkpt>
      <trkpt lat="42.672214000000274" lon="-1.8138540000000012">
        <ele>347.229</ele>
        <time>2022-08-25T09:56:59Z</time>
      </trkpt>
      <trkpt lat="42.672202000000276" lon="-1.813936000000001">
        <ele>347.075</ele>
        <time>2022-08-25T09:57:02Z</time>
      </trkpt>
      <trkpt lat="42.67220300000027" lon="-1.8139700000000012">
        <ele>347.017</ele>
        <time>2022-08-25T09:57:03Z</time>
      </trkpt>
      <trkpt lat="42.67224100000028" lon="-1.8141530000000012">
        <ele>347.044</ele>
        <time>2022-08-25T09:57:06Z</time>
      </trkpt>
      <trkpt lat="42.67225800000028" lon="-1.8141850000000013">
        <ele>347.017</ele>
        <time>2022-08-25T09:57:07Z</time>
      </trkpt>
      <trkpt lat="42.67226500000027" lon="-1.8142200000000013">
        <ele>347.043</ele>
        <time>2022-08-25T09:57:08Z</time>
      </trkpt>
      <trkpt lat="42.67226300000027" lon="-1.8142700000000014">
        <ele>347.074</ele>
        <time>2022-08-25T09:57:09Z</time>
      </trkpt>
      <trkpt lat="42.67226900000027" lon="-1.8143240000000014">
        <ele>347.018</ele>
        <time>2022-08-25T09:57:10Z</time>
      </trkpt>
      <trkpt lat="42.67226500000027" lon="-1.8143900000000013">
        <ele>347.098</ele>
        <time>2022-08-25T09:57:11Z</time>
      </trkpt>
      <trkpt lat="42.67225800000028" lon="-1.8144210000000012">
        <ele>347.017</ele>
        <time>2022-08-25T09:57:12Z</time>
      </trkpt>
      <trkpt lat="42.67224900000028" lon="-1.8144510000000011">
        <ele>347.009</ele>
        <time>2022-08-25T09:57:13Z</time>
      </trkpt>
      <trkpt lat="42.672202000000276" lon="-1.8145260000000012">
        <ele>346.822</ele>
        <time>2022-08-25T09:57:15Z</time>
      </trkpt>
      <trkpt lat="42.672168000000276" lon="-1.8145590000000011">
        <ele>346.842</ele>
        <time>2022-08-25T09:57:16Z</time>
      </trkpt>
      <trkpt lat="42.672101000000275" lon="-1.8146990000000012">
        <ele>346.852</ele>
        <time>2022-08-25T09:57:19Z</time>
      </trkpt>
      <trkpt lat="42.672093000000274" lon="-1.8147230000000012">
        <ele>346.828</ele>
        <time>2022-08-25T09:57:20Z</time>
      </trkpt>
      <trkpt lat="42.67208900000028" lon="-1.8147470000000012">
        <ele>346.820</ele>
        <time>2022-08-25T09:57:21Z</time>
      </trkpt>
      <trkpt lat="42.67206600000028" lon="-1.8147740000000012">
        <ele>346.827</ele>
        <time>2022-08-25T09:57:22Z</time>
      </trkpt>
      <trkpt lat="42.67207200000028" lon="-1.8148210000000011">
        <ele>346.880</ele>
        <time>2022-08-25T09:57:23Z</time>
      </trkpt>
      <trkpt lat="42.672050000000276" lon="-1.8148960000000012">
        <ele>346.876</ele>
        <time>2022-08-25T09:57:25Z</time>
      </trkpt>
      <trkpt lat="42.672034000000274" lon="-1.8150090000000012">
        <ele>346.867</ele>
        <time>2022-08-25T09:57:27Z</time>
      </trkpt>
      <trkpt lat="42.672019000000276" lon="-1.8150560000000011">
        <ele>346.822</ele>
        <time>2022-08-25T09:57:28Z</time>
      </trkpt>
      <trkpt lat="42.67201200000028" lon="-1.8150930000000012">
        <ele>346.662</ele>
        <time>2022-08-25T09:57:29Z</time>
      </trkpt>
      <trkpt lat="42.67197700000028" lon="-1.8151310000000012">
        <ele>346.808</ele>
        <time>2022-08-25T09:57:30Z</time>
      </trkpt>
      <trkpt lat="42.671973000000285" lon="-1.8151710000000012">
        <ele>346.809</ele>
        <time>2022-08-25T09:57:31Z</time>
      </trkpt>
      <trkpt lat="42.67197700000028" lon="-1.8152000000000013">
        <ele>346.863</ele>
        <time>2022-08-25T09:57:32Z</time>
      </trkpt>
      <trkpt lat="42.67199200000028" lon="-1.8152710000000012">
        <ele>346.843</ele>
        <time>2022-08-25T09:57:34Z</time>
      </trkpt>
      <trkpt lat="42.67196200000028" lon="-1.8153970000000013">
        <ele>346.833</ele>
        <time>2022-08-25T09:57:38Z</time>
      </trkpt>
      <trkpt lat="42.67194700000028" lon="-1.8154350000000012">
        <ele>346.889</ele>
        <time>2022-08-25T09:57:39Z</time>
      </trkpt>
      <trkpt lat="42.67192700000028" lon="-1.8154850000000013">
        <ele>346.811</ele>
        <time>2022-08-25T09:57:41Z</time>
      </trkpt>
      <trkpt lat="42.671906000000284" lon="-1.8155950000000014">
        <ele>346.418</ele>
        <time>2022-08-25T09:57:45Z</time>
      </trkpt>
      <trkpt lat="42.671900000000285" lon="-1.8156900000000014">
        <ele>346.421</ele>
        <time>2022-08-25T09:57:47Z</time>
      </trkpt>
      <trkpt lat="42.67187900000029" lon="-1.8158640000000013">
        <ele>346.297</ele>
        <time>2022-08-25T09:57:52Z</time>
      </trkpt>
      <trkpt lat="42.67183900000029" lon="-1.8160340000000013">
        <ele>346.278</ele>
        <time>2022-08-25T09:57:57Z</time>
      </trkpt>
      <trkpt lat="42.67180500000029" lon="-1.8162000000000014">
        <ele>346.228</ele>
        <time>2022-08-25T09:58:01Z</time>
      </trkpt>
      <trkpt lat="42.67179700000029" lon="-1.8162540000000014">
        <ele>346.289</ele>
        <time>2022-08-25T09:58:02Z</time>
      </trkpt>
      <trkpt lat="42.67178500000029" lon="-1.8163020000000014">
        <ele>346.017</ele>
        <time>2022-08-25T09:58:03Z</time>
      </trkpt>
      <trkpt lat="42.67176600000029" lon="-1.8164070000000014">
        <ele>346.009</ele>
        <time>2022-08-25T09:58:05Z</time>
      </trkpt>
      <trkpt lat="42.671756000000286" lon="-1.8164510000000014">
        <ele>346.033</ele>
        <time>2022-08-25T09:58:06Z</time>
      </trkpt>
      <trkpt lat="42.67175000000029" lon="-1.8164850000000015">
        <ele>346.023</ele>
        <time>2022-08-25T09:58:07Z</time>
      </trkpt>
      <trkpt lat="42.671737000000284" lon="-1.8165330000000015">
        <ele>346.093</ele>
        <time>2022-08-25T09:58:08Z</time>
      </trkpt>
      <trkpt lat="42.671734000000285" lon="-1.8165680000000015">
        <ele>346.099</ele>
        <time>2022-08-25T09:58:09Z</time>
      </trkpt>
      <trkpt lat="42.67173000000029" lon="-1.8166030000000015">
        <ele>346.041</ele>
        <time>2022-08-25T09:58:10Z</time>
      </trkpt>
      <trkpt lat="42.67172600000029" lon="-1.8166470000000015">
        <ele>346.038</ele>
        <time>2022-08-25T09:58:11Z</time>
      </trkpt>
      <trkpt lat="42.67172100000029" lon="-1.8166770000000014">
        <ele>345.841</ele>
        <time>2022-08-25T09:58:12Z</time>
      </trkpt>
      <trkpt lat="42.67171400000029" lon="-1.8167080000000013">
        <ele>345.857</ele>
        <time>2022-08-25T09:58:13Z</time>
      </trkpt>
      <trkpt lat="42.67171100000029" lon="-1.8167380000000013">
        <ele>345.898</ele>
        <time>2022-08-25T09:58:14Z</time>
      </trkpt>
      <trkpt lat="42.671707000000296" lon="-1.8167730000000013">
        <ele>345.856</ele>
        <time>2022-08-25T09:58:15Z</time>
      </trkpt>
      <trkpt lat="42.6716950000003" lon="-1.8168050000000013">
        <ele>345.659</ele>
        <time>2022-08-25T09:58:16Z</time>
      </trkpt>
      <trkpt lat="42.6716830000003" lon="-1.8168400000000013">
        <ele>345.614</ele>
        <time>2022-08-25T09:58:17Z</time>
      </trkpt>
      <trkpt lat="42.6716490000003" lon="-1.8169950000000012">
        <ele>345.409</ele>
        <time>2022-08-25T09:58:21Z</time>
      </trkpt>
      <trkpt lat="42.6716330000003" lon="-1.8172170000000012">
        <ele>345.296</ele>
        <time>2022-08-25T09:58:26Z</time>
      </trkpt>
      <trkpt lat="42.6716150000003" lon="-1.8173110000000012">
        <ele>345.256</ele>
        <time>2022-08-25T09:58:28Z</time>
      </trkpt>
      <trkpt lat="42.6716010000003" lon="-1.8173590000000013">
        <ele>345.246</ele>
        <time>2022-08-25T09:58:29Z</time>
      </trkpt>
      <trkpt lat="42.6715820000003" lon="-1.8174660000000014">
        <ele>345.252</ele>
        <time>2022-08-25T09:58:31Z</time>
      </trkpt>
      <trkpt lat="42.6715750000003" lon="-1.8174900000000014">
        <ele>345.254</ele>
        <time>2022-08-25T09:58:32Z</time>
      </trkpt>
      <trkpt lat="42.6715590000003" lon="-1.8175420000000013">
        <ele>345.291</ele>
        <time>2022-08-25T09:58:33Z</time>
      </trkpt>
      <trkpt lat="42.6715360000003" lon="-1.8176020000000013">
        <ele>345.234</ele>
        <time>2022-08-25T09:58:34Z</time>
      </trkpt>
      <trkpt lat="42.6715400000003" lon="-1.8176250000000014">
        <ele>345.230</ele>
        <time>2022-08-25T09:58:35Z</time>
      </trkpt>
      <trkpt lat="42.671544000000296" lon="-1.8176420000000013">
        <ele>345.261</ele>
        <time>2022-08-25T09:58:36Z</time>
      </trkpt>
      <trkpt lat="42.671539000000294" lon="-1.8177000000000012">
        <ele>345.262</ele>
        <time>2022-08-25T09:58:38Z</time>
      </trkpt>
      <trkpt lat="42.671525000000294" lon="-1.8177760000000012">
        <ele>345.083</ele>
        <time>2022-08-25T09:58:41Z</time>
      </trkpt>
      <trkpt lat="42.67153100000029" lon="-1.817801000000001">
        <ele>345.011</ele>
        <time>2022-08-25T09:58:42Z</time>
      </trkpt>
      <trkpt lat="42.671539000000294" lon="-1.8178300000000012">
        <ele>345.009</ele>
        <time>2022-08-25T09:58:43Z</time>
      </trkpt>
      <trkpt lat="42.671544000000296" lon="-1.8178560000000012">
        <ele>345.037</ele>
        <time>2022-08-25T09:58:44Z</time>
      </trkpt>
      <trkpt lat="42.6715370000003" lon="-1.8178830000000012">
        <ele>345.077</ele>
        <time>2022-08-25T09:58:45Z</time>
      </trkpt>
      <trkpt lat="42.6715290000003" lon="-1.8179070000000013">
        <ele>345.027</ele>
        <time>2022-08-25T09:58:46Z</time>
      </trkpt>
      <trkpt lat="42.6715250000003" lon="-1.8179270000000012">
        <ele>345.033</ele>
        <time>2022-08-25T09:58:47Z</time>
      </trkpt>
      <trkpt lat="42.6715230000003" lon="-1.8179380000000012">
        <ele>345.275</ele>
        <time>2022-08-25T09:58:48Z</time>
      </trkpt>
      <trkpt lat="42.6715120000003" lon="-1.8179620000000012">
        <ele>345.292</ele>
        <time>2022-08-25T09:58:49Z</time>
      </trkpt>
      <trkpt lat="42.6715030000003" lon="-1.8179810000000012">
        <ele>345.265</ele>
        <time>2022-08-25T09:58:50Z</time>
      </trkpt>
      <trkpt lat="42.6714920000003" lon="-1.817993000000001">
        <ele>345.221</ele>
        <time>2022-08-25T09:58:51Z</time>
      </trkpt>
      <trkpt lat="42.6714780000003" lon="-1.818018000000001">
        <ele>345.282</ele>
        <time>2022-08-25T09:58:52Z</time>
      </trkpt>
      <trkpt lat="42.6714690000003" lon="-1.818038000000001">
        <ele>345.229</ele>
        <time>2022-08-25T09:58:53Z</time>
      </trkpt>
      <trkpt lat="42.6714610000003" lon="-1.8180850000000008">
        <ele>345.200</ele>
        <time>2022-08-25T09:58:55Z</time>
      </trkpt>
      <trkpt lat="42.6714450000003" lon="-1.818111000000001">
        <ele>345.220</ele>
        <time>2022-08-25T09:58:57Z</time>
      </trkpt>
      <trkpt lat="42.671415000000295" lon="-1.818148000000001">
        <ele>345.209</ele>
        <time>2022-08-25T09:58:58Z</time>
      </trkpt>
      <trkpt lat="42.6713970000003" lon="-1.818177000000001">
        <ele>345.263</ele>
        <time>2022-08-25T09:58:59Z</time>
      </trkpt>
      <trkpt lat="42.671342000000294" lon="-1.818295000000001">
        <ele>345.463</ele>
        <time>2022-08-25T09:59:03Z</time>
      </trkpt>
      <trkpt lat="42.67130900000029" lon="-1.8183810000000011">
        <ele>345.633</ele>
        <time>2022-08-25T09:59:06Z</time>
      </trkpt>
      <trkpt lat="42.67129500000029" lon="-1.818406000000001">
        <ele>345.619</ele>
        <time>2022-08-25T09:59:07Z</time>
      </trkpt>
      <trkpt lat="42.67128700000029" lon="-1.818439000000001">
        <ele>345.821</ele>
        <time>2022-08-25T09:59:08Z</time>
      </trkpt>
      <trkpt lat="42.67127800000029" lon="-1.818465000000001">
        <ele>346.068</ele>
        <time>2022-08-25T09:59:09Z</time>
      </trkpt>
      <trkpt lat="42.671266000000294" lon="-1.8184890000000011">
        <ele>346.211</ele>
        <time>2022-08-25T09:59:10Z</time>
      </trkpt>
      <trkpt lat="42.671254000000296" lon="-1.8185100000000012">
        <ele>346.837</ele>
        <time>2022-08-25T09:59:11Z</time>
      </trkpt>
      <trkpt lat="42.6712450000003" lon="-1.8185310000000012">
        <ele>347.078</ele>
        <time>2022-08-25T09:59:12Z</time>
      </trkpt>
      <trkpt lat="42.6712360000003" lon="-1.8185490000000013">
        <ele>347.632</ele>
        <time>2022-08-25T09:59:13Z</time>
      </trkpt>
      <trkpt lat="42.6712270000003" lon="-1.8185660000000012">
        <ele>347.892</ele>
        <time>2022-08-25T09:59:14Z</time>
      </trkpt>
      <trkpt lat="42.6712160000003" lon="-1.8185840000000013">
        <ele>348.011</ele>
        <time>2022-08-25T09:59:15Z</time>
      </trkpt>
      <trkpt lat="42.6712090000003" lon="-1.8186010000000012">
        <ele>348.209</ele>
        <time>2022-08-25T09:59:16Z</time>
      </trkpt>
      <trkpt lat="42.671203000000304" lon="-1.8186190000000013">
        <ele>348.264</ele>
        <time>2022-08-25T09:59:17Z</time>
      </trkpt>
      <trkpt lat="42.6711950000003" lon="-1.8186350000000013">
        <ele>348.434</ele>
        <time>2022-08-25T09:59:18Z</time>
      </trkpt>
      <trkpt lat="42.671189000000304" lon="-1.8186500000000014">
        <ele>348.454</ele>
        <time>2022-08-25T09:59:19Z</time>
      </trkpt>
      <trkpt lat="42.671183000000305" lon="-1.8186600000000015">
        <ele>348.630</ele>
        <time>2022-08-25T09:59:20Z</time>
      </trkpt>
      <trkpt lat="42.6711730000003" lon="-1.8186670000000016">
        <ele>348.682</ele>
        <time>2022-08-25T09:59:21Z</time>
      </trkpt>
      <trkpt lat="42.6711630000003" lon="-1.8186760000000015">
        <ele>348.619</ele>
        <time>2022-08-25T09:59:22Z</time>
      </trkpt>
      <trkpt lat="42.671125000000295" lon="-1.8187600000000015">
        <ele>348.822</ele>
        <time>2022-08-25T09:59:27Z</time>
      </trkpt>
      <trkpt lat="42.671071000000296" lon="-1.8188940000000016">
        <ele>349.078</ele>
        <time>2022-08-25T09:59:32Z</time>
      </trkpt>
      <trkpt lat="42.670996000000294" lon="-1.8190610000000016">
        <ele>348.029</ele>
        <time>2022-08-25T09:59:37Z</time>
      </trkpt>
      <trkpt lat="42.67098000000029" lon="-1.8190940000000015">
        <ele>347.889</ele>
        <time>2022-08-25T09:59:38Z</time>
      </trkpt>
      <trkpt lat="42.67096600000029" lon="-1.8191250000000014">
        <ele>347.606</ele>
        <time>2022-08-25T09:59:39Z</time>
      </trkpt>
      <trkpt lat="42.67095500000029" lon="-1.8191570000000015">
        <ele>347.426</ele>
        <time>2022-08-25T09:59:40Z</time>
      </trkpt>
      <trkpt lat="42.67094200000029" lon="-1.8191870000000014">
        <ele>347.209</ele>
        <time>2022-08-25T09:59:41Z</time>
      </trkpt>
      <trkpt lat="42.67093000000029" lon="-1.8192130000000015">
        <ele>347.059</ele>
        <time>2022-08-25T09:59:42Z</time>
      </trkpt>
      <trkpt lat="42.67087900000029" lon="-1.8193380000000015">
        <ele>346.429</ele>
        <time>2022-08-25T09:59:46Z</time>
      </trkpt>
      <trkpt lat="42.67086500000029" lon="-1.8193590000000015">
        <ele>346.019</ele>
        <time>2022-08-25T09:59:47Z</time>
      </trkpt>
      <trkpt lat="42.67084600000029" lon="-1.8193800000000016">
        <ele>346.085</ele>
        <time>2022-08-25T09:59:48Z</time>
      </trkpt>
      <trkpt lat="42.67082700000029" lon="-1.8193830000000015">
        <ele>345.847</ele>
        <time>2022-08-25T09:59:49Z</time>
      </trkpt>
      <trkpt lat="42.670811000000285" lon="-1.8193860000000015">
        <ele>345.824</ele>
        <time>2022-08-25T09:59:50Z</time>
      </trkpt>
      <trkpt lat="42.67079900000029" lon="-1.8193870000000014">
        <ele>345.647</ele>
        <time>2022-08-25T09:59:51Z</time>
      </trkpt>
      <trkpt lat="42.670786000000284" lon="-1.8193860000000015">
        <ele>345.453</ele>
        <time>2022-08-25T09:59:52Z</time>
      </trkpt>
      <trkpt lat="42.670774000000286" lon="-1.8193880000000016">
        <ele>345.414</ele>
        <time>2022-08-25T09:59:53Z</time>
      </trkpt>
      <trkpt lat="42.670757000000286" lon="-1.8193880000000016">
        <ele>345.468</ele>
        <time>2022-08-25T09:59:54Z</time>
      </trkpt>
      <trkpt lat="42.670735000000285" lon="-1.8193810000000015">
        <ele>345.442</ele>
        <time>2022-08-25T09:59:56Z</time>
      </trkpt>
      <trkpt lat="42.67072300000029" lon="-1.8193760000000014">
        <ele>345.426</ele>
        <time>2022-08-25T09:59:57Z</time>
      </trkpt>
      <trkpt lat="42.670611000000285" lon="-1.8193340000000013">
        <ele>345.409</ele>
        <time>2022-08-25T10:00:04Z</time>
      </trkpt>
      <trkpt lat="42.67051100000028" lon="-1.8193480000000013">
        <ele>345.647</ele>
        <time>2022-08-25T10:00:08Z</time>
      </trkpt>
      <trkpt lat="42.67029200000028" lon="-1.8193200000000014">
        <ele>345.457</ele>
        <time>2022-08-25T10:00:14Z</time>
      </trkpt>
      <trkpt lat="42.67025300000028" lon="-1.8193150000000013">
        <ele>345.437</ele>
        <time>2022-08-25T10:00:15Z</time>
      </trkpt>
      <trkpt lat="42.67018500000028" lon="-1.8193040000000014">
        <ele>345.263</ele>
        <time>2022-08-25T10:00:17Z</time>
      </trkpt>
      <trkpt lat="42.67015100000028" lon="-1.8192990000000013">
        <ele>345.035</ele>
        <time>2022-08-25T10:00:18Z</time>
      </trkpt>
      <trkpt lat="42.66996900000028" lon="-1.8192720000000013">
        <ele>344.882</ele>
        <time>2022-08-25T10:00:23Z</time>
      </trkpt>
      <trkpt lat="42.66993400000028" lon="-1.8192720000000013">
        <ele>344.875</ele>
        <time>2022-08-25T10:00:24Z</time>
      </trkpt>
      <trkpt lat="42.66990100000028" lon="-1.8192760000000012">
        <ele>344.831</ele>
        <time>2022-08-25T10:00:25Z</time>
      </trkpt>
      <trkpt lat="42.66987000000028" lon="-1.8192820000000012">
        <ele>344.642</ele>
        <time>2022-08-25T10:00:26Z</time>
      </trkpt>
      <trkpt lat="42.66984000000028" lon="-1.8192930000000012">
        <ele>344.648</ele>
        <time>2022-08-25T10:00:27Z</time>
      </trkpt>
      <trkpt lat="42.669813000000275" lon="-1.8193070000000011">
        <ele>344.461</ele>
        <time>2022-08-25T10:00:28Z</time>
      </trkpt>
      <trkpt lat="42.66978900000027" lon="-1.819324000000001">
        <ele>344.417</ele>
        <time>2022-08-25T10:00:29Z</time>
      </trkpt>
      <trkpt lat="42.66976700000027" lon="-1.819338000000001">
        <ele>344.209</ele>
        <time>2022-08-25T10:00:30Z</time>
      </trkpt>
      <trkpt lat="42.66974800000027" lon="-1.819342000000001">
        <ele>344.245</ele>
        <time>2022-08-25T10:00:31Z</time>
      </trkpt>
      <trkpt lat="42.66972800000027" lon="-1.819339000000001">
        <ele>344.275</ele>
        <time>2022-08-25T10:00:32Z</time>
      </trkpt>
      <trkpt lat="42.66971300000027" lon="-1.8193320000000008">
        <ele>344.225</ele>
        <time>2022-08-25T10:00:33Z</time>
      </trkpt>
      <trkpt lat="42.669706000000275" lon="-1.8193250000000007">
        <ele>344.231</ele>
        <time>2022-08-25T10:00:34Z</time>
      </trkpt>
      <trkpt lat="42.66970200000028" lon="-1.8193170000000007">
        <ele>344.223</ele>
        <time>2022-08-25T10:00:35Z</time>
      </trkpt>
      <trkpt lat="42.66970200000028" lon="-1.8193110000000008">
        <ele>344.220</ele>
        <time>2022-08-25T10:00:36Z</time>
      </trkpt>
      <trkpt lat="42.66970500000028" lon="-1.8193060000000008">
        <ele>344.243</ele>
        <time>2022-08-25T10:00:37Z</time>
      </trkpt>
      <trkpt lat="42.66969400000028" lon="-1.8192850000000007">
        <ele>344.429</ele>
        <time>2022-08-25T10:01:23Z</time>
      </trkpt>
      <trkpt lat="42.66967300000028" lon="-1.8192750000000006">
        <ele>344.470</ele>
        <time>2022-08-25T10:01:24Z</time>
      </trkpt>
      <trkpt lat="42.66964600000028" lon="-1.8192660000000007">
        <ele>344.464</ele>
        <time>2022-08-25T10:01:25Z</time>
      </trkpt>
      <trkpt lat="42.66956700000028" lon="-1.8192900000000007">
        <ele>344.406</ele>
        <time>2022-08-25T10:01:27Z</time>
      </trkpt>
      <trkpt lat="42.66952500000028" lon="-1.8193160000000008">
        <ele>344.416</ele>
        <time>2022-08-25T10:01:28Z</time>
      </trkpt>
      <trkpt lat="42.66941500000028" lon="-1.8194130000000008">
        <ele>344.409</ele>
        <time>2022-08-25T10:01:31Z</time>
      </trkpt>
      <trkpt lat="42.66938700000028" lon="-1.819442000000001">
        <ele>344.467</ele>
        <time>2022-08-25T10:01:32Z</time>
      </trkpt>
      <trkpt lat="42.66936100000028" lon="-1.819465000000001">
        <ele>344.227</ele>
        <time>2022-08-25T10:01:33Z</time>
      </trkpt>
      <trkpt lat="42.66933600000028" lon="-1.819480000000001">
        <ele>344.067</ele>
        <time>2022-08-25T10:01:34Z</time>
      </trkpt>
      <trkpt lat="42.66931300000028" lon="-1.8194900000000012">
        <ele>343.683</ele>
        <time>2022-08-25T10:01:35Z</time>
      </trkpt>
      <trkpt lat="42.66929100000028" lon="-1.819502000000001">
        <ele>343.675</ele>
        <time>2022-08-25T10:01:36Z</time>
      </trkpt>
      <trkpt lat="42.66926600000028" lon="-1.8195230000000011">
        <ele>343.482</ele>
        <time>2022-08-25T10:01:37Z</time>
      </trkpt>
      <trkpt lat="42.66920000000028" lon="-1.819669000000001">
        <ele>343.645</ele>
        <time>2022-08-25T10:01:41Z</time>
      </trkpt>
      <trkpt lat="42.66911300000028" lon="-1.819885000000001">
        <ele>343.831</ele>
        <time>2022-08-25T10:01:47Z</time>
      </trkpt>
      <trkpt lat="42.66904300000028" lon="-1.8201000000000012">
        <ele>344.042</ele>
        <time>2022-08-25T10:01:52Z</time>
      </trkpt>
      <trkpt lat="42.66903200000028" lon="-1.8201420000000013">
        <ele>344.023</ele>
        <time>2022-08-25T10:01:53Z</time>
      </trkpt>
      <trkpt lat="42.66902100000028" lon="-1.8201840000000014">
        <ele>344.083</ele>
        <time>2022-08-25T10:01:54Z</time>
      </trkpt>
      <trkpt lat="42.66901000000028" lon="-1.8202210000000014">
        <ele>344.011</ele>
        <time>2022-08-25T10:01:55Z</time>
      </trkpt>
      <trkpt lat="42.669005000000276" lon="-1.8202590000000014">
        <ele>344.009</ele>
        <time>2022-08-25T10:01:56Z</time>
      </trkpt>
      <trkpt lat="42.66897800000027" lon="-1.8203710000000013">
        <ele>344.283</ele>
        <time>2022-08-25T10:01:59Z</time>
      </trkpt>
      <trkpt lat="42.668949000000275" lon="-1.8204340000000012">
        <ele>344.453</ele>
        <time>2022-08-25T10:02:01Z</time>
      </trkpt>
      <trkpt lat="42.66893700000028" lon="-1.8204640000000012">
        <ele>344.483</ele>
        <time>2022-08-25T10:02:02Z</time>
      </trkpt>
      <trkpt lat="42.668926000000276" lon="-1.8205010000000013">
        <ele>344.659</ele>
        <time>2022-08-25T10:02:03Z</time>
      </trkpt>
      <trkpt lat="42.66890500000028" lon="-1.8205760000000013">
        <ele>344.641</ele>
        <time>2022-08-25T10:02:05Z</time>
      </trkpt>
      <trkpt lat="42.66889600000028" lon="-1.8206140000000013">
        <ele>344.838</ele>
        <time>2022-08-25T10:02:06Z</time>
      </trkpt>
      <trkpt lat="42.66888600000028" lon="-1.8206530000000012">
        <ele>344.851</ele>
        <time>2022-08-25T10:02:07Z</time>
      </trkpt>
      <trkpt lat="42.66885700000028" lon="-1.8207760000000013">
        <ele>345.097</ele>
        <time>2022-08-25T10:02:10Z</time>
      </trkpt>
      <trkpt lat="42.66883000000028" lon="-1.8208870000000013">
        <ele>345.298</ele>
        <time>2022-08-25T10:02:13Z</time>
      </trkpt>
      <trkpt lat="42.66875700000028" lon="-1.8210960000000012">
        <ele>345.297</ele>
        <time>2022-08-25T10:02:18Z</time>
      </trkpt>
      <trkpt lat="42.668738000000275" lon="-1.8211380000000013">
        <ele>345.223</ele>
        <time>2022-08-25T10:02:19Z</time>
      </trkpt>
      <trkpt lat="42.668721000000275" lon="-1.8211810000000013">
        <ele>345.225</ele>
        <time>2022-08-25T10:02:20Z</time>
      </trkpt>
      <trkpt lat="42.66861300000028" lon="-1.8214330000000012">
        <ele>345.209</ele>
        <time>2022-08-25T10:02:26Z</time>
      </trkpt>
      <trkpt lat="42.66859300000028" lon="-1.8214760000000012">
        <ele>345.480</ele>
        <time>2022-08-25T10:02:27Z</time>
      </trkpt>
      <trkpt lat="42.66850900000028" lon="-1.8216880000000013">
        <ele>345.270</ele>
        <time>2022-08-25T10:02:32Z</time>
      </trkpt>
      <trkpt lat="42.66847800000028" lon="-1.8217660000000013">
        <ele>345.280</ele>
        <time>2022-08-25T10:02:34Z</time>
      </trkpt>
      <trkpt lat="42.66846100000028" lon="-1.8218140000000014">
        <ele>345.256</ele>
        <time>2022-08-25T10:02:35Z</time>
      </trkpt>
      <trkpt lat="42.66844600000028" lon="-1.8218530000000013">
        <ele>345.268</ele>
        <time>2022-08-25T10:02:36Z</time>
      </trkpt>
      <trkpt lat="42.66843300000028" lon="-1.8218920000000012">
        <ele>345.235</ele>
        <time>2022-08-25T10:02:37Z</time>
      </trkpt>
      <trkpt lat="42.66842100000028" lon="-1.8219220000000012">
        <ele>345.448</ele>
        <time>2022-08-25T10:02:38Z</time>
      </trkpt>
      <trkpt lat="42.66840700000028" lon="-1.8219600000000011">
        <ele>345.444</ele>
        <time>2022-08-25T10:02:39Z</time>
      </trkpt>
      <trkpt lat="42.668394000000276" lon="-1.821996000000001">
        <ele>345.475</ele>
        <time>2022-08-25T10:02:40Z</time>
      </trkpt>
      <trkpt lat="42.668338000000276" lon="-1.8221540000000012">
        <ele>345.424</ele>
        <time>2022-08-25T10:02:44Z</time>
      </trkpt>
      <trkpt lat="42.66832900000028" lon="-1.822193000000001">
        <ele>345.404</ele>
        <time>2022-08-25T10:02:45Z</time>
      </trkpt>
      <trkpt lat="42.66830300000028" lon="-1.822279000000001">
        <ele>345.414</ele>
        <time>2022-08-25T10:02:47Z</time>
      </trkpt>
      <trkpt lat="42.66828400000028" lon="-1.822353000000001">
        <ele>345.409</ele>
        <time>2022-08-25T10:02:49Z</time>
      </trkpt>
      <trkpt lat="42.668274000000274" lon="-1.822393000000001">
        <ele>345.423</ele>
        <time>2022-08-25T10:02:50Z</time>
      </trkpt>
      <trkpt lat="42.66826300000027" lon="-1.822432000000001">
        <ele>345.483</ele>
        <time>2022-08-25T10:02:51Z</time>
      </trkpt>
      <trkpt lat="42.66820200000027" lon="-1.822593000000001">
        <ele>345.273</ele>
        <time>2022-08-25T10:02:55Z</time>
      </trkpt>
      <trkpt lat="42.66812400000027" lon="-1.822851000000001">
        <ele>345.049</ele>
        <time>2022-08-25T10:03:00Z</time>
      </trkpt>
      <trkpt lat="42.66811200000027" lon="-1.822909000000001">
        <ele>345.081</ele>
        <time>2022-08-25T10:03:01Z</time>
      </trkpt>
      <trkpt lat="42.66802300000027" lon="-1.823270000000001">
        <ele>344.428</ele>
        <time>2022-08-25T10:03:07Z</time>
      </trkpt>
      <trkpt lat="42.66800300000027" lon="-1.8233500000000011">
        <ele>344.011</ele>
        <time>2022-08-25T10:03:08Z</time>
      </trkpt>
      <trkpt lat="42.66796300000027" lon="-1.8235360000000012">
        <ele>343.477</ele>
        <time>2022-08-25T10:03:11Z</time>
      </trkpt>
      <trkpt lat="42.66794800000027" lon="-1.8236030000000012">
        <ele>343.428</ele>
        <time>2022-08-25T10:03:12Z</time>
      </trkpt>
      <trkpt lat="42.66792800000027" lon="-1.8236820000000011">
        <ele>343.427</ele>
        <time>2022-08-25T10:03:13Z</time>
      </trkpt>
      <trkpt lat="42.667879000000276" lon="-1.8238650000000012">
        <ele>343.268</ele>
        <time>2022-08-25T10:03:16Z</time>
      </trkpt>
      <trkpt lat="42.66785900000028" lon="-1.8239320000000012">
        <ele>343.214</ele>
        <time>2022-08-25T10:03:17Z</time>
      </trkpt>
      <trkpt lat="42.66783600000028" lon="-1.8240100000000012">
        <ele>343.009</ele>
        <time>2022-08-25T10:03:18Z</time>
      </trkpt>
      <trkpt lat="42.66781900000028" lon="-1.8240740000000013">
        <ele>343.053</ele>
        <time>2022-08-25T10:03:19Z</time>
      </trkpt>
      <trkpt lat="42.66780000000028" lon="-1.8241380000000014">
        <ele>343.073</ele>
        <time>2022-08-25T10:03:20Z</time>
      </trkpt>
      <trkpt lat="42.66778500000028" lon="-1.8241890000000014">
        <ele>343.063</ele>
        <time>2022-08-25T10:03:21Z</time>
      </trkpt>
      <trkpt lat="42.66767900000028" lon="-1.8244930000000015">
        <ele>342.829</ele>
        <time>2022-08-25T10:03:26Z</time>
      </trkpt>
      <trkpt lat="42.66758500000028" lon="-1.8247480000000014">
        <ele>342.881</ele>
        <time>2022-08-25T10:03:30Z</time>
      </trkpt>
      <trkpt lat="42.66754500000028" lon="-1.8248550000000014">
        <ele>342.658</ele>
        <time>2022-08-25T10:03:32Z</time>
      </trkpt>
      <trkpt lat="42.66752500000028" lon="-1.8249120000000014">
        <ele>342.631</ele>
        <time>2022-08-25T10:03:33Z</time>
      </trkpt>
      <trkpt lat="42.66750000000028" lon="-1.8249830000000014">
        <ele>342.637</ele>
        <time>2022-08-25T10:03:34Z</time>
      </trkpt>
      <trkpt lat="42.66748000000028" lon="-1.8250390000000014">
        <ele>342.668</ele>
        <time>2022-08-25T10:03:35Z</time>
      </trkpt>
      <trkpt lat="42.667462000000285" lon="-1.8250950000000015">
        <ele>342.666</ele>
        <time>2022-08-25T10:03:36Z</time>
      </trkpt>
      <trkpt lat="42.66744700000029" lon="-1.8251400000000015">
        <ele>342.429</ele>
        <time>2022-08-25T10:03:37Z</time>
      </trkpt>
      <trkpt lat="42.667428000000285" lon="-1.8251970000000015">
        <ele>342.221</ele>
        <time>2022-08-25T10:03:38Z</time>
      </trkpt>
      <trkpt lat="42.66738500000029" lon="-1.8253230000000016">
        <ele>342.009</ele>
        <time>2022-08-25T10:03:40Z</time>
      </trkpt>
      <trkpt lat="42.66725500000029" lon="-1.8257560000000015">
        <ele>341.867</ele>
        <time>2022-08-25T10:03:47Z</time>
      </trkpt>
      <trkpt lat="42.66723400000029" lon="-1.8258150000000015">
        <ele>341.687</ele>
        <time>2022-08-25T10:03:48Z</time>
      </trkpt>
      <trkpt lat="42.66721100000029" lon="-1.8258720000000015">
        <ele>341.657</ele>
        <time>2022-08-25T10:03:49Z</time>
      </trkpt>
      <trkpt lat="42.66718900000029" lon="-1.8259270000000014">
        <ele>341.653</ele>
        <time>2022-08-25T10:03:50Z</time>
      </trkpt>
      <trkpt lat="42.667047000000295" lon="-1.8262760000000013">
        <ele>341.425</ele>
        <time>2022-08-25T10:03:56Z</time>
      </trkpt>
      <trkpt lat="42.666999000000295" lon="-1.8263980000000013">
        <ele>341.272</ele>
        <time>2022-08-25T10:03:58Z</time>
      </trkpt>
      <trkpt lat="42.6669330000003" lon="-1.8265010000000013">
        <ele>341.225</ele>
        <time>2022-08-25T10:04:00Z</time>
      </trkpt>
      <trkpt lat="42.6668930000003" lon="-1.8265490000000013">
        <ele>341.061</ele>
        <time>2022-08-25T10:04:01Z</time>
      </trkpt>
      <trkpt lat="42.666810000000304" lon="-1.8266440000000013">
        <ele>341.082</ele>
        <time>2022-08-25T10:04:03Z</time>
      </trkpt>
      <trkpt lat="42.666745000000304" lon="-1.8267750000000014">
        <ele>340.627</ele>
        <time>2022-08-25T10:04:05Z</time>
      </trkpt>
      <trkpt lat="42.66673000000031" lon="-1.8268470000000014">
        <ele>340.468</ele>
        <time>2022-08-25T10:04:06Z</time>
      </trkpt>
      <trkpt lat="42.66672100000031" lon="-1.8269170000000015">
        <ele>340.414</ele>
        <time>2022-08-25T10:04:07Z</time>
      </trkpt>
      <trkpt lat="42.66672000000031" lon="-1.8269870000000015">
        <ele>340.209</ele>
        <time>2022-08-25T10:04:08Z</time>
      </trkpt>
      <trkpt lat="42.66672500000031" lon="-1.8270520000000015">
        <ele>340.273</ele>
        <time>2022-08-25T10:04:09Z</time>
      </trkpt>
      <trkpt lat="42.666730000000314" lon="-1.8271110000000015">
        <ele>340.083</ele>
        <time>2022-08-25T10:04:10Z</time>
      </trkpt>
      <trkpt lat="42.666732000000316" lon="-1.8271690000000014">
        <ele>340.073</ele>
        <time>2022-08-25T10:04:11Z</time>
      </trkpt>
      <trkpt lat="42.66672800000032" lon="-1.8272300000000015">
        <ele>340.079</ele>
        <time>2022-08-25T10:04:12Z</time>
      </trkpt>
      <trkpt lat="42.66671900000032" lon="-1.8272900000000014">
        <ele>340.491</ele>
        <time>2022-08-25T10:04:13Z</time>
      </trkpt>
      <trkpt lat="42.66670800000032" lon="-1.8273490000000014">
        <ele>340.498</ele>
        <time>2022-08-25T10:04:14Z</time>
      </trkpt>
      <trkpt lat="42.66666700000032" lon="-1.8275230000000013">
        <ele>340.651</ele>
        <time>2022-08-25T10:04:17Z</time>
      </trkpt>
      <trkpt lat="42.66665200000032" lon="-1.8275810000000012">
        <ele>340.627</ele>
        <time>2022-08-25T10:04:18Z</time>
      </trkpt>
      <trkpt lat="42.66663700000032" lon="-1.8276380000000012">
        <ele>340.668</ele>
        <time>2022-08-25T10:04:19Z</time>
      </trkpt>
      <trkpt lat="42.66661700000032" lon="-1.8277540000000012">
        <ele>340.287</ele>
        <time>2022-08-25T10:04:21Z</time>
      </trkpt>
      <trkpt lat="42.666605000000324" lon="-1.8278130000000012">
        <ele>340.242</ele>
        <time>2022-08-25T10:04:22Z</time>
      </trkpt>
      <trkpt lat="42.666593000000326" lon="-1.8278690000000013">
        <ele>340.226</ele>
        <time>2022-08-25T10:04:23Z</time>
      </trkpt>
      <trkpt lat="42.66658100000033" lon="-1.8279260000000013">
        <ele>340.209</ele>
        <time>2022-08-25T10:04:24Z</time>
      </trkpt>
      <trkpt lat="42.66656700000033" lon="-1.8279800000000013">
        <ele>340.049</ele>
        <time>2022-08-25T10:04:25Z</time>
      </trkpt>
      <trkpt lat="42.66655600000033" lon="-1.8280350000000012">
        <ele>340.019</ele>
        <time>2022-08-25T10:04:26Z</time>
      </trkpt>
      <trkpt lat="42.66652200000033" lon="-1.8281930000000013">
        <ele>340.089</ele>
        <time>2022-08-25T10:04:29Z</time>
      </trkpt>
      <trkpt lat="42.666512000000324" lon="-1.8282470000000013">
        <ele>340.085</ele>
        <time>2022-08-25T10:04:30Z</time>
      </trkpt>
      <trkpt lat="42.66649900000032" lon="-1.8282990000000012">
        <ele>340.077</ele>
        <time>2022-08-25T10:04:31Z</time>
      </trkpt>
      <trkpt lat="42.66647400000032" lon="-1.8284000000000011">
        <ele>340.264</ele>
        <time>2022-08-25T10:04:33Z</time>
      </trkpt>
      <trkpt lat="42.66642900000032" lon="-1.8285560000000012">
        <ele>340.857</ele>
        <time>2022-08-25T10:04:36Z</time>
      </trkpt>
      <trkpt lat="42.66634700000032" lon="-1.8288330000000013">
        <ele>340.863</ele>
        <time>2022-08-25T10:04:41Z</time>
      </trkpt>
      <trkpt lat="42.666329000000324" lon="-1.8288840000000013">
        <ele>340.874</ele>
        <time>2022-08-25T10:04:42Z</time>
      </trkpt>
      <trkpt lat="42.666312000000325" lon="-1.8289350000000013">
        <ele>340.673</ele>
        <time>2022-08-25T10:04:43Z</time>
      </trkpt>
      <trkpt lat="42.66622600000032" lon="-1.8291420000000014">
        <ele>340.285</ele>
        <time>2022-08-25T10:04:47Z</time>
      </trkpt>
      <trkpt lat="42.66619600000032" lon="-1.8291890000000013">
        <ele>340.213</ele>
        <time>2022-08-25T10:04:48Z</time>
      </trkpt>
      <trkpt lat="42.66606900000032" lon="-1.8293740000000014">
        <ele>339.809</ele>
        <time>2022-08-25T10:04:52Z</time>
      </trkpt>
      <trkpt lat="42.66603800000032" lon="-1.8294230000000014">
        <ele>339.828</ele>
        <time>2022-08-25T10:04:53Z</time>
      </trkpt>
      <trkpt lat="42.66600900000032" lon="-1.8294750000000013">
        <ele>339.888</ele>
        <time>2022-08-25T10:04:54Z</time>
      </trkpt>
      <trkpt lat="42.66597900000032" lon="-1.8295250000000014">
        <ele>339.838</ele>
        <time>2022-08-25T10:04:55Z</time>
      </trkpt>
      <trkpt lat="42.66594900000032" lon="-1.8295760000000014">
        <ele>339.864</ele>
        <time>2022-08-25T10:04:56Z</time>
      </trkpt>
      <trkpt lat="42.66592000000032" lon="-1.8296300000000014">
        <ele>339.896</ele>
        <time>2022-08-25T10:04:57Z</time>
      </trkpt>
      <trkpt lat="42.66589400000032" lon="-1.8296840000000014">
        <ele>339.833</ele>
        <time>2022-08-25T10:04:58Z</time>
      </trkpt>
      <trkpt lat="42.66587000000032" lon="-1.8297340000000015">
        <ele>339.886</ele>
        <time>2022-08-25T10:04:59Z</time>
      </trkpt>
      <trkpt lat="42.66584700000032" lon="-1.8297840000000016">
        <ele>339.862</ele>
        <time>2022-08-25T10:05:00Z</time>
      </trkpt>
      <trkpt lat="42.66582600000032" lon="-1.8298370000000017">
        <ele>339.873</ele>
        <time>2022-08-25T10:05:01Z</time>
      </trkpt>
      <trkpt lat="42.66580900000032" lon="-1.8298950000000016">
        <ele>339.866</ele>
        <time>2022-08-25T10:05:02Z</time>
      </trkpt>
      <trkpt lat="42.66578500000032" lon="-1.8300120000000015">
        <ele>339.829</ele>
        <time>2022-08-25T10:05:04Z</time>
      </trkpt>
      <trkpt lat="42.66577300000032" lon="-1.8300670000000014">
        <ele>339.821</ele>
        <time>2022-08-25T10:05:05Z</time>
      </trkpt>
      <trkpt lat="42.665758000000324" lon="-1.8301210000000014">
        <ele>339.609</ele>
        <time>2022-08-25T10:05:06Z</time>
      </trkpt>
      <trkpt lat="42.665746000000325" lon="-1.8301770000000015">
        <ele>339.657</ele>
        <time>2022-08-25T10:05:07Z</time>
      </trkpt>
      <trkpt lat="42.66573300000032" lon="-1.8302280000000015">
        <ele>339.447</ele>
        <time>2022-08-25T10:05:08Z</time>
      </trkpt>
      <trkpt lat="42.66572200000032" lon="-1.8302780000000016">
        <ele>339.447</ele>
        <time>2022-08-25T10:05:09Z</time>
      </trkpt>
      <trkpt lat="42.665710000000324" lon="-1.8303290000000016">
        <ele>339.453</ele>
        <time>2022-08-25T10:05:10Z</time>
      </trkpt>
      <trkpt lat="42.66568800000032" lon="-1.8304340000000017">
        <ele>339.435</ele>
        <time>2022-08-25T10:05:12Z</time>
      </trkpt>
      <trkpt lat="42.665681000000326" lon="-1.8304840000000018">
        <ele>339.442</ele>
        <time>2022-08-25T10:05:13Z</time>
      </trkpt>
      <trkpt lat="42.665673000000325" lon="-1.8305350000000018">
        <ele>339.625</ele>
        <time>2022-08-25T10:05:14Z</time>
      </trkpt>
      <trkpt lat="42.665665000000324" lon="-1.8305830000000018">
        <ele>339.641</ele>
        <time>2022-08-25T10:05:15Z</time>
      </trkpt>
      <trkpt lat="42.66565500000032" lon="-1.8306290000000018">
        <ele>339.632</ele>
        <time>2022-08-25T10:05:16Z</time>
      </trkpt>
      <trkpt lat="42.66564600000032" lon="-1.8306750000000018">
        <ele>339.625</ele>
        <time>2022-08-25T10:05:17Z</time>
      </trkpt>
      <trkpt lat="42.66557100000032" lon="-1.8310130000000018">
        <ele>339.826</ele>
        <time>2022-08-25T10:05:24Z</time>
      </trkpt>
      <trkpt lat="42.66555900000032" lon="-1.8310600000000017">
        <ele>339.808</ele>
        <time>2022-08-25T10:05:25Z</time>
      </trkpt>
      <trkpt lat="42.66554900000032" lon="-1.8311100000000018">
        <ele>339.809</ele>
        <time>2022-08-25T10:05:26Z</time>
      </trkpt>
      <trkpt lat="42.665426000000316" lon="-1.8314780000000017">
        <ele>340.273</ele>
        <time>2022-08-25T10:05:33Z</time>
      </trkpt>
      <trkpt lat="42.66532900000032" lon="-1.8317060000000016">
        <ele>340.073</ele>
        <time>2022-08-25T10:05:37Z</time>
      </trkpt>
      <trkpt lat="42.66530700000032" lon="-1.8317660000000016">
        <ele>340.053</ele>
        <time>2022-08-25T10:05:38Z</time>
      </trkpt>
      <trkpt lat="42.66528500000032" lon="-1.8318250000000016">
        <ele>339.829</ele>
        <time>2022-08-25T10:05:39Z</time>
      </trkpt>
      <trkpt lat="42.66526700000032" lon="-1.8318840000000016">
        <ele>339.821</ele>
        <time>2022-08-25T10:05:40Z</time>
      </trkpt>
      <trkpt lat="42.66525100000032" lon="-1.8319410000000016">
        <ele>339.878</ele>
        <time>2022-08-25T10:05:41Z</time>
      </trkpt>
      <trkpt lat="42.66521400000032" lon="-1.8320540000000016">
        <ele>339.861</ele>
        <time>2022-08-25T10:05:43Z</time>
      </trkpt>
      <trkpt lat="42.66514600000032" lon="-1.8322270000000016">
        <ele>339.427</ele>
        <time>2022-08-25T10:05:46Z</time>
      </trkpt>
      <trkpt lat="42.66513000000032" lon="-1.8322710000000015">
        <ele>339.488</ele>
        <time>2022-08-25T10:05:47Z</time>
      </trkpt>
      <trkpt lat="42.66511200000032" lon="-1.8323220000000016">
        <ele>339.443</ele>
        <time>2022-08-25T10:05:48Z</time>
      </trkpt>
      <trkpt lat="42.665091000000324" lon="-1.8323720000000017">
        <ele>339.264</ele>
        <time>2022-08-25T10:05:49Z</time>
      </trkpt>
      <trkpt lat="42.665017000000326" lon="-1.8325300000000018">
        <ele>339.210</ele>
        <time>2022-08-25T10:05:52Z</time>
      </trkpt>
      <trkpt lat="42.66499600000033" lon="-1.8325820000000017">
        <ele>339.209</ele>
        <time>2022-08-25T10:05:53Z</time>
      </trkpt>
      <trkpt lat="42.66497500000033" lon="-1.8326320000000018">
        <ele>339.235</ele>
        <time>2022-08-25T10:05:54Z</time>
      </trkpt>
      <trkpt lat="42.664954000000336" lon="-1.8326830000000018">
        <ele>339.265</ele>
        <time>2022-08-25T10:05:55Z</time>
      </trkpt>
      <trkpt lat="42.664932000000334" lon="-1.832733000000002">
        <ele>339.225</ele>
        <time>2022-08-25T10:05:56Z</time>
      </trkpt>
      <trkpt lat="42.66491000000033" lon="-1.832782000000002">
        <ele>339.041</ele>
        <time>2022-08-25T10:05:57Z</time>
      </trkpt>
      <trkpt lat="42.664889000000336" lon="-1.8328310000000019">
        <ele>339.013</ele>
        <time>2022-08-25T10:05:58Z</time>
      </trkpt>
      <trkpt lat="42.66486800000034" lon="-1.8328800000000018">
        <ele>339.050</ele>
        <time>2022-08-25T10:05:59Z</time>
      </trkpt>
      <trkpt lat="42.66480300000034" lon="-1.8330260000000018">
        <ele>339.013</ele>
        <time>2022-08-25T10:06:02Z</time>
      </trkpt>
      <trkpt lat="42.66476300000034" lon="-1.8331270000000017">
        <ele>339.029</ele>
        <time>2022-08-25T10:06:04Z</time>
      </trkpt>
      <trkpt lat="42.66473900000034" lon="-1.8331750000000018">
        <ele>339.050</ele>
        <time>2022-08-25T10:06:05Z</time>
      </trkpt>
      <trkpt lat="42.664715000000335" lon="-1.8332220000000017">
        <ele>339.069</ele>
        <time>2022-08-25T10:06:06Z</time>
      </trkpt>
      <trkpt lat="42.664687000000335" lon="-1.8332660000000016">
        <ele>339.004</ele>
        <time>2022-08-25T10:06:07Z</time>
      </trkpt>
      <trkpt lat="42.664664000000336" lon="-1.8333110000000017">
        <ele>339.024</ele>
        <time>2022-08-25T10:06:08Z</time>
      </trkpt>
      <trkpt lat="42.66464000000033" lon="-1.8333520000000016">
        <ele>339.009</ele>
        <time>2022-08-25T10:06:09Z</time>
      </trkpt>
      <trkpt lat="42.66459200000033" lon="-1.8334370000000015">
        <ele>339.087</ele>
        <time>2022-08-25T10:06:11Z</time>
      </trkpt>
      <trkpt lat="42.664569000000334" lon="-1.8334770000000016">
        <ele>339.037</ele>
        <time>2022-08-25T10:06:12Z</time>
      </trkpt>
      <trkpt lat="42.66454200000033" lon="-1.8335250000000016">
        <ele>339.077</ele>
        <time>2022-08-25T10:06:13Z</time>
      </trkpt>
      <trkpt lat="42.664524000000334" lon="-1.8335570000000017">
        <ele>339.073</ele>
        <time>2022-08-25T10:06:14Z</time>
      </trkpt>
      <trkpt lat="42.66444300000033" lon="-1.8337320000000017">
        <ele>338.835</ele>
        <time>2022-08-25T10:06:18Z</time>
      </trkpt>
      <trkpt lat="42.664428000000335" lon="-1.8337770000000018">
        <ele>338.872</ele>
        <time>2022-08-25T10:06:19Z</time>
      </trkpt>
      <trkpt lat="42.66441000000034" lon="-1.8338240000000017">
        <ele>338.855</ele>
        <time>2022-08-25T10:06:20Z</time>
      </trkpt>
      <trkpt lat="42.66435800000034" lon="-1.8339640000000017">
        <ele>338.891</ele>
        <time>2022-08-25T10:06:23Z</time>
      </trkpt>
      <trkpt lat="42.66433400000034" lon="-1.8340580000000017">
        <ele>339.042</ele>
        <time>2022-08-25T10:06:25Z</time>
      </trkpt>
      <trkpt lat="42.66432500000034" lon="-1.8341070000000017">
        <ele>339.054</ele>
        <time>2022-08-25T10:06:26Z</time>
      </trkpt>
      <trkpt lat="42.66431800000034" lon="-1.8341540000000016">
        <ele>339.256</ele>
        <time>2022-08-25T10:06:27Z</time>
      </trkpt>
      <trkpt lat="42.66431500000034" lon="-1.8342000000000016">
        <ele>339.611</ele>
        <time>2022-08-25T10:06:28Z</time>
      </trkpt>
      <trkpt lat="42.66431300000034" lon="-1.8342920000000016">
        <ele>339.809</ele>
        <time>2022-08-25T10:06:30Z</time>
      </trkpt>
      <trkpt lat="42.66431500000034" lon="-1.8343280000000015">
        <ele>340.026</ele>
        <time>2022-08-25T10:06:31Z</time>
      </trkpt>
      <trkpt lat="42.664314000000346" lon="-1.8343820000000015">
        <ele>340.086</ele>
        <time>2022-08-25T10:06:32Z</time>
      </trkpt>
      <trkpt lat="42.66431200000034" lon="-1.8344270000000016">
        <ele>340.246</ele>
        <time>2022-08-25T10:06:33Z</time>
      </trkpt>
      <trkpt lat="42.66430400000034" lon="-1.8345150000000017">
        <ele>340.422</ele>
        <time>2022-08-25T10:06:35Z</time>
      </trkpt>
      <trkpt lat="42.66430100000034" lon="-1.8345490000000018">
        <ele>340.684</ele>
        <time>2022-08-25T10:06:36Z</time>
      </trkpt>
      <trkpt lat="42.66429600000034" lon="-1.8346010000000017">
        <ele>340.871</ele>
        <time>2022-08-25T10:06:37Z</time>
      </trkpt>
      <trkpt lat="42.66429300000034" lon="-1.8346450000000016">
        <ele>340.864</ele>
        <time>2022-08-25T10:06:38Z</time>
      </trkpt>
      <trkpt lat="42.66428400000034" lon="-1.8347280000000017">
        <ele>340.880</ele>
        <time>2022-08-25T10:06:40Z</time>
      </trkpt>
      <trkpt lat="42.664280000000346" lon="-1.8347730000000018">
        <ele>340.821</ele>
        <time>2022-08-25T10:06:41Z</time>
      </trkpt>
      <trkpt lat="42.66423900000034" lon="-1.8350320000000018">
        <ele>340.876</ele>
        <time>2022-08-25T10:06:47Z</time>
      </trkpt>
      <trkpt lat="42.66422600000034" lon="-1.8351160000000017">
        <ele>341.090</ele>
        <time>2022-08-25T10:06:49Z</time>
      </trkpt>
      <trkpt lat="42.66420200000034" lon="-1.8352410000000017">
        <ele>341.219</ele>
        <time>2022-08-25T10:06:52Z</time>
      </trkpt>
      <trkpt lat="42.66418800000034" lon="-1.8353240000000017">
        <ele>341.609</ele>
        <time>2022-08-25T10:06:54Z</time>
      </trkpt>
      <trkpt lat="42.66418200000034" lon="-1.8353600000000017">
        <ele>341.838</ele>
        <time>2022-08-25T10:06:55Z</time>
      </trkpt>
      <trkpt lat="42.66417600000034" lon="-1.8353960000000016">
        <ele>341.848</ele>
        <time>2022-08-25T10:06:56Z</time>
      </trkpt>
      <trkpt lat="42.66416900000034" lon="-1.8354350000000015">
        <ele>342.078</ele>
        <time>2022-08-25T10:06:57Z</time>
      </trkpt>
      <trkpt lat="42.664165000000345" lon="-1.8354680000000014">
        <ele>342.024</ele>
        <time>2022-08-25T10:06:58Z</time>
      </trkpt>
      <trkpt lat="42.66414100000034" lon="-1.8356440000000014">
        <ele>342.416</ele>
        <time>2022-08-25T10:07:02Z</time>
      </trkpt>
      <trkpt lat="42.66412100000034" lon="-1.8357680000000014">
        <ele>342.653</ele>
        <time>2022-08-25T10:07:05Z</time>
      </trkpt>
      <trkpt lat="42.664117000000346" lon="-1.8358040000000013">
        <ele>342.656</ele>
        <time>2022-08-25T10:07:06Z</time>
      </trkpt>
      <trkpt lat="42.664114000000346" lon="-1.8358370000000013">
        <ele>342.672</ele>
        <time>2022-08-25T10:07:07Z</time>
      </trkpt>
      <trkpt lat="42.66411000000035" lon="-1.8358750000000013">
        <ele>342.673</ele>
        <time>2022-08-25T10:07:08Z</time>
      </trkpt>
      <trkpt lat="42.66409100000035" lon="-1.8360460000000012">
        <ele>342.827</ele>
        <time>2022-08-25T10:07:12Z</time>
      </trkpt>
      <trkpt lat="42.66408500000035" lon="-1.836085000000001">
        <ele>343.068</ele>
        <time>2022-08-25T10:07:13Z</time>
      </trkpt>
      <trkpt lat="42.66406400000035" lon="-1.836202000000001">
        <ele>343.014</ele>
        <time>2022-08-25T10:07:16Z</time>
      </trkpt>
      <trkpt lat="42.66403900000035" lon="-1.836420000000001">
        <ele>343.409</ele>
        <time>2022-08-25T10:07:21Z</time>
      </trkpt>
      <trkpt lat="42.66403000000035" lon="-1.8365110000000011">
        <ele>343.423</ele>
        <time>2022-08-25T10:07:23Z</time>
      </trkpt>
      <trkpt lat="42.664029000000355" lon="-1.8365540000000011">
        <ele>343.473</ele>
        <time>2022-08-25T10:07:24Z</time>
      </trkpt>
      <trkpt lat="42.66402700000035" lon="-1.8365970000000011">
        <ele>343.493</ele>
        <time>2022-08-25T10:07:25Z</time>
      </trkpt>
      <trkpt lat="42.66402500000035" lon="-1.8366370000000012">
        <ele>343.489</ele>
        <time>2022-08-25T10:07:26Z</time>
      </trkpt>
      <trkpt lat="42.66402200000035" lon="-1.8366790000000013">
        <ele>343.481</ele>
        <time>2022-08-25T10:07:27Z</time>
      </trkpt>
      <trkpt lat="42.66402000000035" lon="-1.8367200000000012">
        <ele>343.468</ele>
        <time>2022-08-25T10:07:28Z</time>
      </trkpt>
      <trkpt lat="42.66401700000035" lon="-1.8367630000000013">
        <ele>343.491</ele>
        <time>2022-08-25T10:07:29Z</time>
      </trkpt>
      <trkpt lat="42.66401600000035" lon="-1.8368030000000013">
        <ele>343.657</ele>
        <time>2022-08-25T10:07:30Z</time>
      </trkpt>
      <trkpt lat="42.664015000000354" lon="-1.8368440000000013">
        <ele>343.868</ele>
        <time>2022-08-25T10:07:31Z</time>
      </trkpt>
      <trkpt lat="42.664006000000356" lon="-1.8370510000000013">
        <ele>344.229</ele>
        <time>2022-08-25T10:07:36Z</time>
      </trkpt>
      <trkpt lat="42.664004000000354" lon="-1.8370890000000013">
        <ele>344.400</ele>
        <time>2022-08-25T10:07:37Z</time>
      </trkpt>
      <trkpt lat="42.664004000000354" lon="-1.8371270000000013">
        <ele>344.420</ele>
        <time>2022-08-25T10:07:38Z</time>
      </trkpt>
      <trkpt lat="42.664001000000354" lon="-1.8371650000000013">
        <ele>344.609</ele>
        <time>2022-08-25T10:07:39Z</time>
      </trkpt>
      <trkpt lat="42.66399300000035" lon="-1.8372440000000012">
        <ele>345.083</ele>
        <time>2022-08-25T10:07:41Z</time>
      </trkpt>
      <trkpt lat="42.663987000000354" lon="-1.8372810000000013">
        <ele>345.223</ele>
        <time>2022-08-25T10:07:42Z</time>
      </trkpt>
      <trkpt lat="42.66398200000035" lon="-1.8373140000000012">
        <ele>345.293</ele>
        <time>2022-08-25T10:07:43Z</time>
      </trkpt>
      <trkpt lat="42.66397400000035" lon="-1.8373490000000012">
        <ele>345.499</ele>
        <time>2022-08-25T10:07:44Z</time>
      </trkpt>
      <trkpt lat="42.66396400000035" lon="-1.8373810000000013">
        <ele>345.491</ele>
        <time>2022-08-25T10:07:45Z</time>
      </trkpt>
      <trkpt lat="42.663926000000345" lon="-1.8374630000000012">
        <ele>345.478</ele>
        <time>2022-08-25T10:07:48Z</time>
      </trkpt>
      <trkpt lat="42.66392400000034" lon="-1.8374760000000012">
        <ele>345.411</ele>
        <time>2022-08-25T10:07:49Z</time>
      </trkpt>
      <trkpt lat="42.66392700000034" lon="-1.8374820000000012">
        <ele>345.467</ele>
        <time>2022-08-25T10:07:50Z</time>
      </trkpt>
      <trkpt lat="42.66393400000034" lon="-1.837486000000001">
        <ele>345.438</ele>
        <time>2022-08-25T10:07:51Z</time>
      </trkpt>
      <trkpt lat="42.66394200000034" lon="-1.837491000000001">
        <ele>345.626</ele>
        <time>2022-08-25T10:07:52Z</time>
      </trkpt>
      <trkpt lat="42.66395200000034" lon="-1.8374960000000011">
        <ele>345.647</ele>
        <time>2022-08-25T10:07:53Z</time>
      </trkpt>
      <trkpt lat="42.66395800000034" lon="-1.8375010000000012">
        <ele>345.611</ele>
        <time>2022-08-25T10:07:54Z</time>
      </trkpt>
      <trkpt lat="42.663960000000344" lon="-1.8375060000000012">
        <ele>345.609</ele>
        <time>2022-08-25T10:07:55Z</time>
      </trkpt>
      <trkpt lat="42.663963000000344" lon="-1.837510000000001">
        <ele>345.673</ele>
        <time>2022-08-25T10:07:56Z</time>
      </trkpt>
      <trkpt lat="42.66396600000034" lon="-1.837516000000001">
        <ele>345.813</ele>
        <time>2022-08-25T10:07:57Z</time>
      </trkpt>
      <trkpt lat="42.66396900000034" lon="-1.837528000000001">
        <ele>345.893</ele>
        <time>2022-08-25T10:07:58Z</time>
      </trkpt>
      <trkpt lat="42.66397200000034" lon="-1.837544000000001">
        <ele>345.839</ele>
        <time>2022-08-25T10:07:59Z</time>
      </trkpt>
      <trkpt lat="42.66396200000034" lon="-1.837590000000001">
        <ele>346.061</ele>
        <time>2022-08-25T10:08:01Z</time>
      </trkpt>
      <trkpt lat="42.663907000000336" lon="-1.8377770000000009">
        <ele>346.058</ele>
        <time>2022-08-25T10:08:06Z</time>
      </trkpt>
      <trkpt lat="42.66380800000034" lon="-1.8380660000000009">
        <ele>346.231</ele>
        <time>2022-08-25T10:08:13Z</time>
      </trkpt>
      <trkpt lat="42.663719000000334" lon="-1.8382900000000009">
        <ele>346.697</ele>
        <time>2022-08-25T10:08:18Z</time>
      </trkpt>
      <trkpt lat="42.663688000000334" lon="-1.8383870000000009">
        <ele>346.428</ele>
        <time>2022-08-25T10:08:20Z</time>
      </trkpt>
      <trkpt lat="42.663674000000334" lon="-1.8384360000000008">
        <ele>346.277</ele>
        <time>2022-08-25T10:08:21Z</time>
      </trkpt>
      <trkpt lat="42.66365900000034" lon="-1.8384830000000008">
        <ele>346.261</ele>
        <time>2022-08-25T10:08:22Z</time>
      </trkpt>
      <trkpt lat="42.663648000000336" lon="-1.8385320000000007">
        <ele>346.427</ele>
        <time>2022-08-25T10:08:23Z</time>
      </trkpt>
      <trkpt lat="42.663631000000336" lon="-1.8386280000000008">
        <ele>346.209</ele>
        <time>2022-08-25T10:08:25Z</time>
      </trkpt>
      <trkpt lat="42.66362400000034" lon="-1.8386770000000008">
        <ele>346.058</ele>
        <time>2022-08-25T10:08:26Z</time>
      </trkpt>
      <trkpt lat="42.66362000000034" lon="-1.8387240000000007">
        <ele>346.088</ele>
        <time>2022-08-25T10:08:27Z</time>
      </trkpt>
      <trkpt lat="42.66361500000034" lon="-1.8387700000000007">
        <ele>346.028</ele>
        <time>2022-08-25T10:08:28Z</time>
      </trkpt>
      <trkpt lat="42.663611000000344" lon="-1.8388050000000007">
        <ele>346.024</ele>
        <time>2022-08-25T10:08:29Z</time>
      </trkpt>
      <trkpt lat="42.66360300000034" lon="-1.8388480000000007">
        <ele>346.036</ele>
        <time>2022-08-25T10:08:30Z</time>
      </trkpt>
      <trkpt lat="42.66359500000034" lon="-1.8388960000000008">
        <ele>346.093</ele>
        <time>2022-08-25T10:08:31Z</time>
      </trkpt>
      <trkpt lat="42.66359000000034" lon="-1.8389350000000007">
        <ele>346.056</ele>
        <time>2022-08-25T10:08:32Z</time>
      </trkpt>
      <trkpt lat="42.66358500000034" lon="-1.8389720000000007">
        <ele>346.232</ele>
        <time>2022-08-25T10:08:33Z</time>
      </trkpt>
      <trkpt lat="42.66358000000034" lon="-1.8390050000000007">
        <ele>346.483</ele>
        <time>2022-08-25T10:08:34Z</time>
      </trkpt>
      <trkpt lat="42.66357600000034" lon="-1.8390380000000006">
        <ele>346.465</ele>
        <time>2022-08-25T10:08:35Z</time>
      </trkpt>
      <trkpt lat="42.66357200000034" lon="-1.8390690000000005">
        <ele>346.468</ele>
        <time>2022-08-25T10:08:36Z</time>
      </trkpt>
      <trkpt lat="42.663571000000346" lon="-1.8391010000000005">
        <ele>346.614</ele>
        <time>2022-08-25T10:08:37Z</time>
      </trkpt>
      <trkpt lat="42.66356700000035" lon="-1.8391300000000006">
        <ele>346.609</ele>
        <time>2022-08-25T10:08:38Z</time>
      </trkpt>
      <trkpt lat="42.66356100000035" lon="-1.8391580000000005">
        <ele>346.847</ele>
        <time>2022-08-25T10:08:39Z</time>
      </trkpt>
      <trkpt lat="42.66355600000035" lon="-1.8392140000000006">
        <ele>347.257</ele>
        <time>2022-08-25T10:08:41Z</time>
      </trkpt>
      <trkpt lat="42.66355600000035" lon="-1.8392400000000007">
        <ele>347.647</ele>
        <time>2022-08-25T10:08:42Z</time>
      </trkpt>
      <trkpt lat="42.663563000000345" lon="-1.8393640000000007">
        <ele>348.483</ele>
        <time>2022-08-25T10:08:46Z</time>
      </trkpt>
      <trkpt lat="42.663563000000345" lon="-1.8393940000000006">
        <ele>348.645</ele>
        <time>2022-08-25T10:08:47Z</time>
      </trkpt>
      <trkpt lat="42.66356100000034" lon="-1.8394240000000006">
        <ele>348.682</ele>
        <time>2022-08-25T10:08:48Z</time>
      </trkpt>
      <trkpt lat="42.66355800000034" lon="-1.8394560000000006">
        <ele>348.895</ele>
        <time>2022-08-25T10:08:49Z</time>
      </trkpt>
      <trkpt lat="42.663552000000344" lon="-1.8394850000000007">
        <ele>349.061</ele>
        <time>2022-08-25T10:08:50Z</time>
      </trkpt>
      <trkpt lat="42.66354400000034" lon="-1.8396560000000006">
        <ele>349.272</ele>
        <time>2022-08-25T10:08:55Z</time>
      </trkpt>
      <trkpt lat="42.66354200000034" lon="-1.8396850000000007">
        <ele>349.292</ele>
        <time>2022-08-25T10:08:56Z</time>
      </trkpt>
      <trkpt lat="42.66354000000034" lon="-1.8397090000000007">
        <ele>349.273</ele>
        <time>2022-08-25T10:08:57Z</time>
      </trkpt>
      <trkpt lat="42.66353900000034" lon="-1.8397440000000007">
        <ele>349.220</ele>
        <time>2022-08-25T10:08:58Z</time>
      </trkpt>
      <trkpt lat="42.663538000000344" lon="-1.8397700000000008">
        <ele>349.409</ele>
        <time>2022-08-25T10:08:59Z</time>
      </trkpt>
      <trkpt lat="42.663537000000346" lon="-1.8397960000000009">
        <ele>349.290</ele>
        <time>2022-08-25T10:09:00Z</time>
      </trkpt>
      <trkpt lat="42.66353000000035" lon="-1.8398530000000008">
        <ele>349.680</ele>
        <time>2022-08-25T10:09:02Z</time>
      </trkpt>
      <trkpt lat="42.66350900000035" lon="-1.8399120000000009">
        <ele>349.880</ele>
        <time>2022-08-25T10:09:04Z</time>
      </trkpt>
      <trkpt lat="42.66349600000035" lon="-1.8399400000000008">
        <ele>349.836</ele>
        <time>2022-08-25T10:09:05Z</time>
      </trkpt>
      <trkpt lat="42.66343700000035" lon="-1.8400480000000008">
        <ele>350.088</ele>
        <time>2022-08-25T10:09:09Z</time>
      </trkpt>
      <trkpt lat="42.66334700000035" lon="-1.8401730000000007">
        <ele>350.485</ele>
        <time>2022-08-25T10:09:14Z</time>
      </trkpt>
      <trkpt lat="42.66319900000035" lon="-1.8403710000000006">
        <ele>350.228</ele>
        <time>2022-08-25T10:09:20Z</time>
      </trkpt>
      <trkpt lat="42.663180000000345" lon="-1.8404040000000006">
        <ele>350.224</ele>
        <time>2022-08-25T10:09:21Z</time>
      </trkpt>
      <trkpt lat="42.66304400000035" lon="-1.8406020000000005">
        <ele>348.625</ele>
        <time>2022-08-25T10:09:26Z</time>
      </trkpt>
      <trkpt lat="42.66285300000035" lon="-1.8408580000000005">
        <ele>347.424</ele>
        <time>2022-08-25T10:09:31Z</time>
      </trkpt>
      <trkpt lat="42.662814000000346" lon="-1.8409080000000007">
        <ele>347.204</ele>
        <time>2022-08-25T10:09:32Z</time>
      </trkpt>
      <trkpt lat="42.66277900000035" lon="-1.8409570000000006">
        <ele>346.614</ele>
        <time>2022-08-25T10:09:33Z</time>
      </trkpt>
      <trkpt lat="42.66270800000035" lon="-1.8410580000000005">
        <ele>346.209</ele>
        <time>2022-08-25T10:09:35Z</time>
      </trkpt>
      <trkpt lat="42.66255900000035" lon="-1.8412680000000006">
        <ele>345.883</ele>
        <time>2022-08-25T10:09:39Z</time>
      </trkpt>
      <trkpt lat="42.66252300000035" lon="-1.8413150000000005">
        <ele>345.673</ele>
        <time>2022-08-25T10:09:40Z</time>
      </trkpt>
      <trkpt lat="42.662479000000346" lon="-1.8413530000000005">
        <ele>345.473</ele>
        <time>2022-08-25T10:09:41Z</time>
      </trkpt>
      <trkpt lat="42.66238000000035" lon="-1.8414260000000005">
        <ele>345.289</ele>
        <time>2022-08-25T10:09:43Z</time>
      </trkpt>
      <trkpt lat="42.66233400000035" lon="-1.8414630000000005">
        <ele>345.211</ele>
        <time>2022-08-25T10:09:44Z</time>
      </trkpt>
      <trkpt lat="42.66229700000035" lon="-1.8414980000000005">
        <ele>345.688</ele>
        <time>2022-08-25T10:09:45Z</time>
      </trkpt>
      <trkpt lat="42.66226400000035" lon="-1.8415390000000005">
        <ele>345.411</ele>
        <time>2022-08-25T10:09:46Z</time>
      </trkpt>
      <trkpt lat="42.66216000000035" lon="-1.8416970000000006">
        <ele>345.637</ele>
        <time>2022-08-25T10:09:49Z</time>
      </trkpt>
      <trkpt lat="42.662130000000346" lon="-1.8417580000000007">
        <ele>345.868</ele>
        <time>2022-08-25T10:09:50Z</time>
      </trkpt>
      <trkpt lat="42.66207600000035" lon="-1.8418810000000008">
        <ele>346.063</ele>
        <time>2022-08-25T10:09:52Z</time>
      </trkpt>
      <trkpt lat="42.66193200000035" lon="-1.8422290000000008">
        <ele>345.844</ele>
        <time>2022-08-25T10:09:57Z</time>
      </trkpt>
      <trkpt lat="42.66183600000035" lon="-1.8424860000000007">
        <ele>345.218</ele>
        <time>2022-08-25T10:10:00Z</time>
      </trkpt>
      <trkpt lat="42.661812000000346" lon="-1.8425670000000007">
        <ele>345.009</ele>
        <time>2022-08-25T10:10:01Z</time>
      </trkpt>
      <trkpt lat="42.661790000000344" lon="-1.8426470000000008">
        <ele>344.487</ele>
        <time>2022-08-25T10:10:02Z</time>
      </trkpt>
      <trkpt lat="42.66177200000035" lon="-1.8427220000000009">
        <ele>344.257</ele>
        <time>2022-08-25T10:10:03Z</time>
      </trkpt>
      <trkpt lat="42.661756000000345" lon="-1.8427980000000008">
        <ele>344.027</ele>
        <time>2022-08-25T10:10:04Z</time>
      </trkpt>
      <trkpt lat="42.66174300000034" lon="-1.8428710000000008">
        <ele>343.823</ele>
        <time>2022-08-25T10:10:05Z</time>
      </trkpt>
      <trkpt lat="42.66173300000034" lon="-1.8429390000000008">
        <ele>344.085</ele>
        <time>2022-08-25T10:10:06Z</time>
      </trkpt>
      <trkpt lat="42.66172700000034" lon="-1.8430060000000008">
        <ele>344.042</ele>
        <time>2022-08-25T10:10:07Z</time>
      </trkpt>
      <trkpt lat="42.661720000000344" lon="-1.8430730000000008">
        <ele>343.865</ele>
        <time>2022-08-25T10:10:08Z</time>
      </trkpt>
      <trkpt lat="42.661714000000345" lon="-1.8431380000000008">
        <ele>344.051</ele>
        <time>2022-08-25T10:10:09Z</time>
      </trkpt>
      <trkpt lat="42.661708000000345" lon="-1.8432030000000008">
        <ele>344.052</ele>
        <time>2022-08-25T10:10:10Z</time>
      </trkpt>
      <trkpt lat="42.661703000000344" lon="-1.8432680000000008">
        <ele>344.072</ele>
        <time>2022-08-25T10:10:11Z</time>
      </trkpt>
      <trkpt lat="42.66169500000034" lon="-1.8433280000000007">
        <ele>344.013</ele>
        <time>2022-08-25T10:10:12Z</time>
      </trkpt>
      <trkpt lat="42.66168700000034" lon="-1.8433870000000008">
        <ele>344.214</ele>
        <time>2022-08-25T10:10:13Z</time>
      </trkpt>
      <trkpt lat="42.66167800000034" lon="-1.8434430000000008">
        <ele>344.209</ele>
        <time>2022-08-25T10:10:14Z</time>
      </trkpt>
      <trkpt lat="42.661604000000345" lon="-1.8437560000000008">
        <ele>344.278</ele>
        <time>2022-08-25T10:10:19Z</time>
      </trkpt>
      <trkpt lat="42.661570000000346" lon="-1.8438920000000008">
        <ele>344.288</ele>
        <time>2022-08-25T10:10:21Z</time>
      </trkpt>
      <trkpt lat="42.661463000000346" lon="-1.8442290000000008">
        <ele>344.058</ele>
        <time>2022-08-25T10:10:26Z</time>
      </trkpt>
      <trkpt lat="42.66144500000035" lon="-1.8442820000000009">
        <ele>344.084</ele>
        <time>2022-08-25T10:10:27Z</time>
      </trkpt>
      <trkpt lat="42.661421000000345" lon="-1.844346000000001">
        <ele>344.216</ele>
        <time>2022-08-25T10:10:28Z</time>
      </trkpt>
      <trkpt lat="42.661368000000344" lon="-1.844492000000001">
        <ele>344.023</ele>
        <time>2022-08-25T10:10:30Z</time>
      </trkpt>
      <trkpt lat="42.66131200000034" lon="-1.844683000000001">
        <ele>343.256</ele>
        <time>2022-08-25T10:10:33Z</time>
      </trkpt>
      <trkpt lat="42.661309000000344" lon="-1.8447570000000009">
        <ele>343.212</ele>
        <time>2022-08-25T10:10:34Z</time>
      </trkpt>
      <trkpt lat="42.66131600000034" lon="-1.844818000000001">
        <ele>343.263</ele>
        <time>2022-08-25T10:10:35Z</time>
      </trkpt>
      <trkpt lat="42.66137300000034" lon="-1.844986000000001">
        <ele>343.039</ele>
        <time>2022-08-25T10:10:38Z</time>
      </trkpt>
      <trkpt lat="42.66141300000034" lon="-1.8451240000000009">
        <ele>342.601</ele>
        <time>2022-08-25T10:10:40Z</time>
      </trkpt>
      <trkpt lat="42.66145200000034" lon="-1.845239000000001">
        <ele>342.421</ele>
        <time>2022-08-25T10:10:42Z</time>
      </trkpt>
      <trkpt lat="42.661504000000335" lon="-1.845357000000001">
        <ele>342.009</ele>
        <time>2022-08-25T10:10:44Z</time>
      </trkpt>
      <trkpt lat="42.66152300000034" lon="-1.845408000000001">
        <ele>341.864</ele>
        <time>2022-08-25T10:10:45Z</time>
      </trkpt>
      <trkpt lat="42.661535000000335" lon="-1.845430000000001">
        <ele>341.884</ele>
        <time>2022-08-25T10:10:46Z</time>
      </trkpt>
      <trkpt lat="42.661546000000335" lon="-1.845451000000001">
        <ele>341.684</ele>
        <time>2022-08-25T10:10:47Z</time>
      </trkpt>
      <trkpt lat="42.661554000000336" lon="-1.845465000000001">
        <ele>341.690</ele>
        <time>2022-08-25T10:10:48Z</time>
      </trkpt>
      <trkpt lat="42.661566000000334" lon="-1.845478000000001">
        <ele>341.662</ele>
        <time>2022-08-25T10:10:49Z</time>
      </trkpt>
      <trkpt lat="42.66157800000033" lon="-1.845491000000001">
        <ele>341.429</ele>
        <time>2022-08-25T10:10:50Z</time>
      </trkpt>
      <trkpt lat="42.66158400000033" lon="-1.845505000000001">
        <ele>341.462</ele>
        <time>2022-08-25T10:10:51Z</time>
      </trkpt>
      <trkpt lat="42.66159100000033" lon="-1.845517000000001">
        <ele>341.458</ele>
        <time>2022-08-25T10:10:52Z</time>
      </trkpt>
      <trkpt lat="42.66159900000033" lon="-1.8455260000000009">
        <ele>341.419</ele>
        <time>2022-08-25T10:10:53Z</time>
      </trkpt>
      <trkpt lat="42.66160800000033" lon="-1.845534000000001">
        <ele>341.498</ele>
        <time>2022-08-25T10:10:54Z</time>
      </trkpt>
      <trkpt lat="42.661620000000326" lon="-1.845541000000001">
        <ele>341.615</ele>
        <time>2022-08-25T10:10:55Z</time>
      </trkpt>
      <trkpt lat="42.66163600000033" lon="-1.845552000000001">
        <ele>341.826</ele>
        <time>2022-08-25T10:10:56Z</time>
      </trkpt>
      <trkpt lat="42.66165000000033" lon="-1.845567000000001">
        <ele>342.409</ele>
        <time>2022-08-25T10:10:57Z</time>
      </trkpt>
      <trkpt lat="42.66167400000033" lon="-1.8455850000000011">
        <ele>343.020</ele>
        <time>2022-08-25T10:10:59Z</time>
      </trkpt>
      <trkpt lat="42.66168300000033" lon="-1.845599000000001">
        <ele>343.450</ele>
        <time>2022-08-25T10:11:00Z</time>
      </trkpt>
      <trkpt lat="42.66169400000033" lon="-1.845611000000001">
        <ele>343.680</ele>
        <time>2022-08-25T10:11:01Z</time>
      </trkpt>
      <trkpt lat="42.661704000000334" lon="-1.845620000000001">
        <ele>344.086</ele>
        <time>2022-08-25T10:11:02Z</time>
      </trkpt>
      <trkpt lat="42.66171300000033" lon="-1.8456240000000008">
        <ele>344.028</ele>
        <time>2022-08-25T10:11:03Z</time>
      </trkpt>
      <trkpt lat="42.66172400000033" lon="-1.8456290000000009">
        <ele>344.635</ele>
        <time>2022-08-25T10:11:04Z</time>
      </trkpt>
      <trkpt lat="42.661735000000334" lon="-1.8456350000000008">
        <ele>345.038</ele>
        <time>2022-08-25T10:11:05Z</time>
      </trkpt>
      <trkpt lat="42.66174400000033" lon="-1.8456410000000008">
        <ele>345.254</ele>
        <time>2022-08-25T10:11:06Z</time>
      </trkpt>
      <trkpt lat="42.661754000000336" lon="-1.8456470000000007">
        <ele>345.475</ele>
        <time>2022-08-25T10:11:07Z</time>
      </trkpt>
      <trkpt lat="42.661768000000336" lon="-1.8456550000000007">
        <ele>345.652</ele>
        <time>2022-08-25T10:11:09Z</time>
      </trkpt>
      <trkpt lat="42.66177000000034" lon="-1.8456570000000008">
        <ele>345.653</ele>
        <time>2022-08-25T10:11:10Z</time>
      </trkpt>
      <trkpt lat="42.661782000000336" lon="-1.8456690000000007">
        <ele>345.808</ele>
        <time>2022-08-25T10:11:11Z</time>
      </trkpt>
      <trkpt lat="42.66179300000034" lon="-1.8456820000000007">
        <ele>345.809</ele>
        <time>2022-08-25T10:11:12Z</time>
      </trkpt>
      <trkpt lat="42.66180000000033" lon="-1.8456950000000008">
        <ele>346.046</ele>
        <time>2022-08-25T10:11:13Z</time>
      </trkpt>
      <trkpt lat="42.66180700000033" lon="-1.8457050000000008">
        <ele>346.286</ele>
        <time>2022-08-25T10:11:14Z</time>
      </trkpt>
      <trkpt lat="42.66184400000033" lon="-1.8457440000000007">
        <ele>346.666</ele>
        <time>2022-08-25T10:11:17Z</time>
      </trkpt>
      <trkpt lat="42.66185200000033" lon="-1.8457550000000007">
        <ele>346.842</ele>
        <time>2022-08-25T10:11:18Z</time>
      </trkpt>
      <trkpt lat="42.66186100000033" lon="-1.8457630000000007">
        <ele>347.074</ele>
        <time>2022-08-25T10:11:19Z</time>
      </trkpt>
      <trkpt lat="42.66187100000033" lon="-1.8457730000000008">
        <ele>347.061</ele>
        <time>2022-08-25T10:11:20Z</time>
      </trkpt>
      <trkpt lat="42.66192700000033" lon="-1.8458210000000008">
        <ele>347.834</ele>
        <time>2022-08-25T10:11:25Z</time>
      </trkpt>
      <trkpt lat="42.66193800000033" lon="-1.8458330000000007">
        <ele>348.030</ele>
        <time>2022-08-25T10:11:26Z</time>
      </trkpt>
      <trkpt lat="42.66196200000034" lon="-1.8458560000000008">
        <ele>348.281</ele>
        <time>2022-08-25T10:11:28Z</time>
      </trkpt>
      <trkpt lat="42.66197300000034" lon="-1.8458650000000008">
        <ele>348.272</ele>
        <time>2022-08-25T10:11:29Z</time>
      </trkpt>
      <trkpt lat="42.66200300000034" lon="-1.8458910000000008">
        <ele>349.413</ele>
        <time>2022-08-25T10:11:32Z</time>
      </trkpt>
      <trkpt lat="42.66203700000034" lon="-1.8459180000000008">
        <ele>350.414</ele>
        <time>2022-08-25T10:11:35Z</time>
      </trkpt>
      <trkpt lat="42.662055000000336" lon="-1.8459460000000008">
        <ele>350.809</ele>
        <time>2022-08-25T10:11:37Z</time>
      </trkpt>
      <trkpt lat="42.66206300000034" lon="-1.8459660000000007">
        <ele>351.248</ele>
        <time>2022-08-25T10:11:38Z</time>
      </trkpt>
      <trkpt lat="42.66207100000034" lon="-1.8459780000000006">
        <ele>351.488</ele>
        <time>2022-08-25T10:11:39Z</time>
      </trkpt>
      <trkpt lat="42.66207700000034" lon="-1.8459910000000006">
        <ele>351.638</ele>
        <time>2022-08-25T10:11:40Z</time>
      </trkpt>
      <trkpt lat="42.662092000000335" lon="-1.8460130000000006">
        <ele>352.044</ele>
        <time>2022-08-25T10:11:42Z</time>
      </trkpt>
      <trkpt lat="42.662123000000335" lon="-1.8460450000000006">
        <ele>352.476</ele>
        <time>2022-08-25T10:11:45Z</time>
      </trkpt>
      <trkpt lat="42.66212700000033" lon="-1.8460490000000005">
        <ele>352.473</ele>
        <time>2022-08-25T10:11:46Z</time>
      </trkpt>
      <trkpt lat="42.66214900000033" lon="-1.8460590000000006">
        <ele>352.816</ele>
        <time>2022-08-25T10:11:48Z</time>
      </trkpt>
      <trkpt lat="42.66215900000034" lon="-1.8460630000000005">
        <ele>353.032</ele>
        <time>2022-08-25T10:11:49Z</time>
      </trkpt>
      <trkpt lat="42.66218100000034" lon="-1.8460670000000003">
        <ele>353.453</ele>
        <time>2022-08-25T10:11:51Z</time>
      </trkpt>
      <trkpt lat="42.662221000000336" lon="-1.8460870000000003">
        <ele>353.695</ele>
        <time>2022-08-25T10:11:54Z</time>
      </trkpt>
      <trkpt lat="42.66223100000034" lon="-1.8460910000000001">
        <ele>353.849</ele>
        <time>2022-08-25T10:11:55Z</time>
      </trkpt>
      <trkpt lat="42.66224200000034" lon="-1.846092">
        <ele>353.823</ele>
        <time>2022-08-25T10:11:56Z</time>
      </trkpt>
      <trkpt lat="42.66224900000034" lon="-1.846096">
        <ele>354.009</ele>
        <time>2022-08-25T10:11:57Z</time>
      </trkpt>
      <trkpt lat="42.66225700000034" lon="-1.846106">
        <ele>354.040</ele>
        <time>2022-08-25T10:11:58Z</time>
      </trkpt>
      <trkpt lat="42.662266000000336" lon="-1.846111">
        <ele>354.270</ele>
        <time>2022-08-25T10:11:59Z</time>
      </trkpt>
      <trkpt lat="42.66227700000034" lon="-1.8461100000000001">
        <ele>354.220</ele>
        <time>2022-08-25T10:12:00Z</time>
      </trkpt>
      <trkpt lat="42.66228700000034" lon="-1.846108">
        <ele>354.686</ele>
        <time>2022-08-25T10:12:01Z</time>
      </trkpt>
      <trkpt lat="42.66229700000034" lon="-1.8461130000000001">
        <ele>354.888</ele>
        <time>2022-08-25T10:12:02Z</time>
      </trkpt>
      <trkpt lat="42.66230300000034" lon="-1.8461150000000002">
        <ele>355.045</ele>
        <time>2022-08-25T10:12:03Z</time>
      </trkpt>
      <trkpt lat="42.66233800000034" lon="-1.846151">
        <ele>355.688</ele>
        <time>2022-08-25T10:12:07Z</time>
      </trkpt>
      <trkpt lat="42.662345000000336" lon="-1.846159">
        <ele>355.864</ele>
        <time>2022-08-25T10:12:08Z</time>
      </trkpt>
      <trkpt lat="42.66235600000034" lon="-1.846165">
        <ele>356.245</ele>
        <time>2022-08-25T10:12:09Z</time>
      </trkpt>
      <trkpt lat="42.662374000000334" lon="-1.84617">
        <ele>356.218</ele>
        <time>2022-08-25T10:12:10Z</time>
      </trkpt>
      <trkpt lat="42.66240300000033" lon="-1.8461930000000002">
        <ele>356.698</ele>
        <time>2022-08-25T10:12:12Z</time>
      </trkpt>
      <trkpt lat="42.66243900000033" lon="-1.8462450000000001">
        <ele>357.217</ele>
        <time>2022-08-25T10:12:15Z</time>
      </trkpt>
      <trkpt lat="42.66245300000033" lon="-1.8462640000000001">
        <ele>357.409</ele>
        <time>2022-08-25T10:12:16Z</time>
      </trkpt>
      <trkpt lat="42.662463000000336" lon="-1.8462800000000001">
        <ele>357.682</ele>
        <time>2022-08-25T10:12:17Z</time>
      </trkpt>
      <trkpt lat="42.66252200000034" lon="-1.8463230000000002">
        <ele>358.242</ele>
        <time>2022-08-25T10:12:22Z</time>
      </trkpt>
      <trkpt lat="42.662531000000335" lon="-1.8463390000000002">
        <ele>358.252</ele>
        <time>2022-08-25T10:12:23Z</time>
      </trkpt>
      <trkpt lat="42.662556000000336" lon="-1.8463810000000003">
        <ele>358.458</ele>
        <time>2022-08-25T10:12:25Z</time>
      </trkpt>
      <trkpt lat="42.66257700000033" lon="-1.8464120000000002">
        <ele>358.680</ele>
        <time>2022-08-25T10:12:27Z</time>
      </trkpt>
      <trkpt lat="42.66258800000033" lon="-1.846424">
        <ele>358.867</ele>
        <time>2022-08-25T10:12:28Z</time>
      </trkpt>
      <trkpt lat="42.66263300000033" lon="-1.846475">
        <ele>359.280</ele>
        <time>2022-08-25T10:12:33Z</time>
      </trkpt>
      <trkpt lat="42.66265100000033" lon="-1.846505">
        <ele>359.426</ele>
        <time>2022-08-25T10:12:35Z</time>
      </trkpt>
      <trkpt lat="42.66268200000033" lon="-1.846541">
        <ele>359.837</ele>
        <time>2022-08-25T10:12:38Z</time>
      </trkpt>
      <trkpt lat="42.66268700000033" lon="-1.846548">
        <ele>359.882</ele>
        <time>2022-08-25T10:12:39Z</time>
      </trkpt>
      <trkpt lat="42.66269400000033" lon="-1.846557">
        <ele>360.043</ele>
        <time>2022-08-25T10:12:40Z</time>
      </trkpt>
      <trkpt lat="42.66270400000033" lon="-1.846566">
        <ele>360.017</ele>
        <time>2022-08-25T10:12:41Z</time>
      </trkpt>
      <trkpt lat="42.66271300000033" lon="-1.846576">
        <ele>360.009</ele>
        <time>2022-08-25T10:12:42Z</time>
      </trkpt>
      <trkpt lat="42.662723000000334" lon="-1.846582">
        <ele>360.229</ele>
        <time>2022-08-25T10:12:43Z</time>
      </trkpt>
      <trkpt lat="42.66273200000033" lon="-1.8465909999999999">
        <ele>360.249</ele>
        <time>2022-08-25T10:12:44Z</time>
      </trkpt>
      <trkpt lat="42.66274100000033" lon="-1.8465969999999998">
        <ele>360.439</ele>
        <time>2022-08-25T10:12:45Z</time>
      </trkpt>
      <trkpt lat="42.66275700000033" lon="-1.8466049999999998">
        <ele>360.415</ele>
        <time>2022-08-25T10:12:47Z</time>
      </trkpt>
      <trkpt lat="42.66276400000033" lon="-1.8466089999999997">
        <ele>360.487</ele>
        <time>2022-08-25T10:12:48Z</time>
      </trkpt>
      <trkpt lat="42.662771000000326" lon="-1.8466179999999996">
        <ele>360.494</ele>
        <time>2022-08-25T10:12:49Z</time>
      </trkpt>
      <trkpt lat="42.66278100000033" lon="-1.8466259999999997">
        <ele>360.437</ele>
        <time>2022-08-25T10:12:50Z</time>
      </trkpt>
      <trkpt lat="42.66279100000033" lon="-1.8466319999999996">
        <ele>360.613</ele>
        <time>2022-08-25T10:12:51Z</time>
      </trkpt>
      <trkpt lat="42.662801000000336" lon="-1.8466389999999997">
        <ele>360.624</ele>
        <time>2022-08-25T10:12:52Z</time>
      </trkpt>
      <trkpt lat="42.66281100000034" lon="-1.8466399999999996">
        <ele>360.867</ele>
        <time>2022-08-25T10:12:53Z</time>
      </trkpt>
      <trkpt lat="42.66282100000034" lon="-1.8466379999999996">
        <ele>360.881</ele>
        <time>2022-08-25T10:12:54Z</time>
      </trkpt>
      <trkpt lat="42.66286400000034" lon="-1.8466429999999996">
        <ele>361.219</ele>
        <time>2022-08-25T10:12:58Z</time>
      </trkpt>
      <trkpt lat="42.66287200000034" lon="-1.8466449999999996">
        <ele>361.409</ele>
        <time>2022-08-25T10:12:59Z</time>
      </trkpt>
      <trkpt lat="42.66288100000034" lon="-1.8466489999999995">
        <ele>361.497</ele>
        <time>2022-08-25T10:13:00Z</time>
      </trkpt>
      <trkpt lat="42.662888000000336" lon="-1.8466529999999994">
        <ele>361.647</ele>
        <time>2022-08-25T10:13:01Z</time>
      </trkpt>
      <trkpt lat="42.66289800000034" lon="-1.8466559999999994">
        <ele>361.687</ele>
        <time>2022-08-25T10:13:02Z</time>
      </trkpt>
      <trkpt lat="42.66292600000034" lon="-1.8466729999999993">
        <ele>362.033</ele>
        <time>2022-08-25T10:13:05Z</time>
      </trkpt>
      <trkpt lat="42.66294700000034" lon="-1.8466889999999994">
        <ele>362.435</ele>
        <time>2022-08-25T10:13:07Z</time>
      </trkpt>
      <trkpt lat="42.66295800000034" lon="-1.8466929999999993">
        <ele>362.862</ele>
        <time>2022-08-25T10:13:08Z</time>
      </trkpt>
      <trkpt lat="42.66299100000034" lon="-1.8467069999999992">
        <ele>363.615</ele>
        <time>2022-08-25T10:13:11Z</time>
      </trkpt>
      <trkpt lat="42.66300000000034" lon="-1.846710999999999">
        <ele>363.671</ele>
        <time>2022-08-25T10:13:12Z</time>
      </trkpt>
      <trkpt lat="42.66301000000034" lon="-1.8467179999999992">
        <ele>364.042</ele>
        <time>2022-08-25T10:13:13Z</time>
      </trkpt>
      <trkpt lat="42.66302100000034" lon="-1.846729999999999">
        <ele>364.476</ele>
        <time>2022-08-25T10:13:14Z</time>
      </trkpt>
      <trkpt lat="42.663093000000345" lon="-1.8467529999999992">
        <ele>365.290</ele>
        <time>2022-08-25T10:13:20Z</time>
      </trkpt>
      <trkpt lat="42.663101000000346" lon="-1.846756999999999">
        <ele>365.219</ele>
        <time>2022-08-25T10:13:21Z</time>
      </trkpt>
      <trkpt lat="42.663121000000345" lon="-1.846762999999999">
        <ele>365.209</ele>
        <time>2022-08-25T10:13:23Z</time>
      </trkpt>
      <trkpt lat="42.663132000000346" lon="-1.8467699999999991">
        <ele>365.448</ele>
        <time>2022-08-25T10:13:24Z</time>
      </trkpt>
      <trkpt lat="42.663144000000344" lon="-1.846773999999999">
        <ele>365.488</ele>
        <time>2022-08-25T10:13:25Z</time>
      </trkpt>
      <trkpt lat="42.66315300000034" lon="-1.846777999999999">
        <ele>365.628</ele>
        <time>2022-08-25T10:13:26Z</time>
      </trkpt>
      <trkpt lat="42.663158000000344" lon="-1.8467839999999989">
        <ele>365.614</ele>
        <time>2022-08-25T10:13:27Z</time>
      </trkpt>
      <trkpt lat="42.663163000000345" lon="-1.846790999999999">
        <ele>365.646</ele>
        <time>2022-08-25T10:13:28Z</time>
      </trkpt>
      <trkpt lat="42.66322400000035" lon="-1.846822999999999">
        <ele>366.283</ele>
        <time>2022-08-25T10:13:34Z</time>
      </trkpt>
      <trkpt lat="42.66330200000035" lon="-1.846890999999999">
        <ele>366.846</ele>
        <time>2022-08-25T10:13:41Z</time>
      </trkpt>
      <trkpt lat="42.66332400000035" lon="-1.846903999999999">
        <ele>366.862</ele>
        <time>2022-08-25T10:13:43Z</time>
      </trkpt>
      <trkpt lat="42.66339000000035" lon="-1.846942999999999">
        <ele>367.053</ele>
        <time>2022-08-25T10:13:48Z</time>
      </trkpt>
      <trkpt lat="42.66340400000035" lon="-1.8469549999999988">
        <ele>366.827</ele>
        <time>2022-08-25T10:13:49Z</time>
      </trkpt>
      <trkpt lat="42.66343200000035" lon="-1.8469749999999987">
        <ele>366.868</ele>
        <time>2022-08-25T10:13:51Z</time>
      </trkpt>
      <trkpt lat="42.66344200000035" lon="-1.8469799999999987">
        <ele>366.814</ele>
        <time>2022-08-25T10:13:52Z</time>
      </trkpt>
      <trkpt lat="42.66345400000035" lon="-1.8469849999999988">
        <ele>366.809</ele>
        <time>2022-08-25T10:13:53Z</time>
      </trkpt>
      <trkpt lat="42.663461000000346" lon="-1.8469889999999987">
        <ele>367.093</ele>
        <time>2022-08-25T10:13:54Z</time>
      </trkpt>
      <trkpt lat="42.66347200000035" lon="-1.8469969999999987">
        <ele>367.013</ele>
        <time>2022-08-25T10:13:55Z</time>
      </trkpt>
      <trkpt lat="42.66353100000035" lon="-1.8470149999999987">
        <ele>368.023</ele>
        <time>2022-08-25T10:14:00Z</time>
      </trkpt>
      <trkpt lat="42.663543000000345" lon="-1.8470209999999987">
        <ele>368.219</ele>
        <time>2022-08-25T10:14:01Z</time>
      </trkpt>
      <trkpt lat="42.663552000000344" lon="-1.8470299999999986">
        <ele>368.221</ele>
        <time>2022-08-25T10:14:02Z</time>
      </trkpt>
      <trkpt lat="42.66363200000034" lon="-1.8470609999999985">
        <ele>368.448</ele>
        <time>2022-08-25T10:14:08Z</time>
      </trkpt>
      <trkpt lat="42.66364100000034" lon="-1.8470579999999985">
        <ele>368.421</ele>
        <time>2022-08-25T10:14:09Z</time>
      </trkpt>
      <trkpt lat="42.66365300000034" lon="-1.8470489999999986">
        <ele>368.477</ele>
        <time>2022-08-25T10:14:10Z</time>
      </trkpt>
      <trkpt lat="42.663665000000336" lon="-1.8470439999999986">
        <ele>368.278</ele>
        <time>2022-08-25T10:14:11Z</time>
      </trkpt>
      <trkpt lat="42.66371200000034" lon="-1.8470249999999986">
        <ele>368.418</ele>
        <time>2022-08-25T10:14:15Z</time>
      </trkpt>
      <trkpt lat="42.66373700000034" lon="-1.8470289999999985">
        <ele>368.498</ele>
        <time>2022-08-25T10:14:17Z</time>
      </trkpt>
      <trkpt lat="42.66380400000034" lon="-1.8470439999999986">
        <ele>368.817</ele>
        <time>2022-08-25T10:14:22Z</time>
      </trkpt>
      <trkpt lat="42.66381900000034" lon="-1.8470499999999985">
        <ele>368.809</ele>
        <time>2022-08-25T10:14:23Z</time>
      </trkpt>
      <trkpt lat="42.66383300000034" lon="-1.8470549999999986">
        <ele>368.842</ele>
        <time>2022-08-25T10:14:24Z</time>
      </trkpt>
      <trkpt lat="42.663845000000336" lon="-1.8470619999999986">
        <ele>369.042</ele>
        <time>2022-08-25T10:14:25Z</time>
      </trkpt>
      <trkpt lat="42.66385500000034" lon="-1.8470729999999986">
        <ele>369.282</ele>
        <time>2022-08-25T10:14:26Z</time>
      </trkpt>
      <trkpt lat="42.66387100000034" lon="-1.8470829999999987">
        <ele>369.248</ele>
        <time>2022-08-25T10:14:27Z</time>
      </trkpt>
      <trkpt lat="42.66391000000034" lon="-1.8471029999999986">
        <ele>370.060</ele>
        <time>2022-08-25T10:14:30Z</time>
      </trkpt>
      <trkpt lat="42.66394400000034" lon="-1.8471299999999986">
        <ele>370.297</ele>
        <time>2022-08-25T10:14:33Z</time>
      </trkpt>
      <trkpt lat="42.66395300000034" lon="-1.8471369999999987">
        <ele>370.470</ele>
        <time>2022-08-25T10:14:34Z</time>
      </trkpt>
      <trkpt lat="42.663963000000344" lon="-1.8471469999999988">
        <ele>370.486</ele>
        <time>2022-08-25T10:14:35Z</time>
      </trkpt>
      <trkpt lat="42.66397500000034" lon="-1.8471559999999987">
        <ele>370.637</ele>
        <time>2022-08-25T10:14:36Z</time>
      </trkpt>
      <trkpt lat="42.66398300000034" lon="-1.8471659999999988">
        <ele>370.815</ele>
        <time>2022-08-25T10:14:37Z</time>
      </trkpt>
      <trkpt lat="42.66398900000034" lon="-1.8471729999999988">
        <ele>371.065</ele>
        <time>2022-08-25T10:14:38Z</time>
      </trkpt>
      <trkpt lat="42.66399700000034" lon="-1.8471809999999989">
        <ele>371.211</ele>
        <time>2022-08-25T10:14:39Z</time>
      </trkpt>
      <trkpt lat="42.66401100000034" lon="-1.8471919999999988">
        <ele>371.209</ele>
        <time>2022-08-25T10:14:40Z</time>
      </trkpt>
      <trkpt lat="42.66402300000034" lon="-1.847201999999999">
        <ele>371.412</ele>
        <time>2022-08-25T10:14:41Z</time>
      </trkpt>
      <trkpt lat="42.664033000000344" lon="-1.8472079999999989">
        <ele>371.482</ele>
        <time>2022-08-25T10:14:42Z</time>
      </trkpt>
      <trkpt lat="42.664098000000344" lon="-1.8472709999999988">
        <ele>372.472</ele>
        <time>2022-08-25T10:14:49Z</time>
      </trkpt>
      <trkpt lat="42.66410500000034" lon="-1.8472799999999987">
        <ele>372.438</ele>
        <time>2022-08-25T10:14:50Z</time>
      </trkpt>
      <trkpt lat="42.66410500000034" lon="-1.8472899999999988">
        <ele>372.660</ele>
        <time>2022-08-25T10:14:51Z</time>
      </trkpt>
      <trkpt lat="42.66412000000034" lon="-1.8473109999999988">
        <ele>373.037</ele>
        <time>2022-08-25T10:14:53Z</time>
      </trkpt>
      <trkpt lat="42.66414200000034" lon="-1.847333999999999">
        <ele>373.460</ele>
        <time>2022-08-25T10:14:55Z</time>
      </trkpt>
      <trkpt lat="42.66415100000034" lon="-1.847341999999999">
        <ele>373.816</ele>
        <time>2022-08-25T10:14:56Z</time>
      </trkpt>
      <trkpt lat="42.66416100000034" lon="-1.8473509999999989">
        <ele>374.037</ele>
        <time>2022-08-25T10:14:57Z</time>
      </trkpt>
      <trkpt lat="42.66416900000034" lon="-1.8473589999999989">
        <ele>374.295</ele>
        <time>2022-08-25T10:14:58Z</time>
      </trkpt>
      <trkpt lat="42.66417600000034" lon="-1.847365999999999">
        <ele>374.449</ele>
        <time>2022-08-25T10:14:59Z</time>
      </trkpt>
      <trkpt lat="42.664183000000335" lon="-1.847371999999999">
        <ele>374.423</ele>
        <time>2022-08-25T10:15:00Z</time>
      </trkpt>
      <trkpt lat="42.66420100000033" lon="-1.847386999999999">
        <ele>374.609</ele>
        <time>2022-08-25T10:15:02Z</time>
      </trkpt>
      <trkpt lat="42.66424700000033" lon="-1.847416999999999">
        <ele>375.070</ele>
        <time>2022-08-25T10:15:07Z</time>
      </trkpt>
      <trkpt lat="42.66425800000033" lon="-1.847423999999999">
        <ele>375.070</ele>
        <time>2022-08-25T10:15:08Z</time>
      </trkpt>
      <trkpt lat="42.664268000000334" lon="-1.847431999999999">
        <ele>375.270</ele>
        <time>2022-08-25T10:15:09Z</time>
      </trkpt>
      <trkpt lat="42.66427500000033" lon="-1.847440999999999">
        <ele>375.426</ele>
        <time>2022-08-25T10:15:10Z</time>
      </trkpt>
      <trkpt lat="42.66428500000033" lon="-1.847451999999999">
        <ele>375.478</ele>
        <time>2022-08-25T10:15:11Z</time>
      </trkpt>
      <trkpt lat="42.664293000000335" lon="-1.8474639999999989">
        <ele>375.445</ele>
        <time>2022-08-25T10:15:12Z</time>
      </trkpt>
      <trkpt lat="42.66430000000033" lon="-1.8474749999999989">
        <ele>375.458</ele>
        <time>2022-08-25T10:15:13Z</time>
      </trkpt>
      <trkpt lat="42.66433900000033" lon="-1.8475109999999988">
        <ele>376.234</ele>
        <time>2022-08-25T10:15:17Z</time>
      </trkpt>
      <trkpt lat="42.66434800000033" lon="-1.8475219999999988">
        <ele>376.635</ele>
        <time>2022-08-25T10:15:18Z</time>
      </trkpt>
      <trkpt lat="42.664358000000334" lon="-1.8475319999999988">
        <ele>376.822</ele>
        <time>2022-08-25T10:15:19Z</time>
      </trkpt>
      <trkpt lat="42.66436700000033" lon="-1.8475439999999987">
        <ele>377.262</ele>
        <time>2022-08-25T10:15:20Z</time>
      </trkpt>
      <trkpt lat="42.664377000000336" lon="-1.8475549999999987">
        <ele>377.608</ele>
        <time>2022-08-25T10:15:21Z</time>
      </trkpt>
      <trkpt lat="42.664400000000335" lon="-1.8475849999999987">
        <ele>378.009</ele>
        <time>2022-08-25T10:15:24Z</time>
      </trkpt>
      <trkpt lat="42.664408000000336" lon="-1.8475939999999986">
        <ele>378.283</ele>
        <time>2022-08-25T10:15:25Z</time>
      </trkpt>
      <trkpt lat="42.66441600000034" lon="-1.8476039999999987">
        <ele>378.473</ele>
        <time>2022-08-25T10:15:26Z</time>
      </trkpt>
      <trkpt lat="42.66442400000034" lon="-1.8476129999999986">
        <ele>378.493</ele>
        <time>2022-08-25T10:15:27Z</time>
      </trkpt>
      <trkpt lat="42.66443200000034" lon="-1.8476209999999986">
        <ele>378.449</ele>
        <time>2022-08-25T10:15:28Z</time>
      </trkpt>
      <trkpt lat="42.664439000000336" lon="-1.8476289999999986">
        <ele>378.441</ele>
        <time>2022-08-25T10:15:29Z</time>
      </trkpt>
      <trkpt lat="42.66444700000034" lon="-1.8476329999999985">
        <ele>378.638</ele>
        <time>2022-08-25T10:15:30Z</time>
      </trkpt>
      <trkpt lat="42.66447100000034" lon="-1.8476539999999986">
        <ele>379.071</ele>
        <time>2022-08-25T10:15:33Z</time>
      </trkpt>
      <trkpt lat="42.66447700000034" lon="-1.8476619999999986">
        <ele>379.067</ele>
        <time>2022-08-25T10:15:34Z</time>
      </trkpt>
      <trkpt lat="42.66448300000034" lon="-1.8476739999999985">
        <ele>379.058</ele>
        <time>2022-08-25T10:15:35Z</time>
      </trkpt>
      <trkpt lat="42.66448900000034" lon="-1.8476829999999984">
        <ele>379.093</ele>
        <time>2022-08-25T10:15:36Z</time>
      </trkpt>
      <trkpt lat="42.66450800000034" lon="-1.8477099999999984">
        <ele>379.665</ele>
        <time>2022-08-25T10:15:39Z</time>
      </trkpt>
      <trkpt lat="42.66451800000034" lon="-1.8477189999999983">
        <ele>379.821</ele>
        <time>2022-08-25T10:15:40Z</time>
      </trkpt>
      <trkpt lat="42.66453500000034" lon="-1.8477359999999983">
        <ele>380.009</ele>
        <time>2022-08-25T10:15:42Z</time>
      </trkpt>
      <trkpt lat="42.66460200000034" lon="-1.8478039999999982">
        <ele>380.640</ele>
        <time>2022-08-25T10:15:49Z</time>
      </trkpt>
      <trkpt lat="42.66461100000034" lon="-1.8478129999999982">
        <ele>380.870</ele>
        <time>2022-08-25T10:15:50Z</time>
      </trkpt>
      <trkpt lat="42.66462900000034" lon="-1.8478289999999982">
        <ele>381.040</ele>
        <time>2022-08-25T10:15:52Z</time>
      </trkpt>
      <trkpt lat="42.66465100000034" lon="-1.8478519999999983">
        <ele>381.276</ele>
        <time>2022-08-25T10:15:54Z</time>
      </trkpt>
      <trkpt lat="42.66466000000034" lon="-1.8478619999999983">
        <ele>381.448</ele>
        <time>2022-08-25T10:15:55Z</time>
      </trkpt>
      <trkpt lat="42.66467000000034" lon="-1.8478699999999983">
        <ele>381.695</ele>
        <time>2022-08-25T10:15:56Z</time>
      </trkpt>
      <trkpt lat="42.66472300000034" lon="-1.8479159999999983">
        <ele>382.028</ele>
        <time>2022-08-25T10:16:01Z</time>
      </trkpt>
      <trkpt lat="42.664762000000344" lon="-1.8479529999999984">
        <ele>382.464</ele>
        <time>2022-08-25T10:16:05Z</time>
      </trkpt>
      <trkpt lat="42.664770000000345" lon="-1.8479659999999984">
        <ele>382.635</ele>
        <time>2022-08-25T10:16:06Z</time>
      </trkpt>
      <trkpt lat="42.66480200000034" lon="-1.8479929999999984">
        <ele>383.075</ele>
        <time>2022-08-25T10:16:09Z</time>
      </trkpt>
      <trkpt lat="42.66486700000034" lon="-1.8480349999999985">
        <ele>383.628</ele>
        <time>2022-08-25T10:16:15Z</time>
      </trkpt>
      <trkpt lat="42.66487800000034" lon="-1.8480459999999985">
        <ele>383.620</ele>
        <time>2022-08-25T10:16:16Z</time>
      </trkpt>
      <trkpt lat="42.66488900000034" lon="-1.8480519999999985">
        <ele>383.609</ele>
        <time>2022-08-25T10:16:17Z</time>
      </trkpt>
      <trkpt lat="42.66491200000034" lon="-1.8480689999999984">
        <ele>383.868</ele>
        <time>2022-08-25T10:16:19Z</time>
      </trkpt>
      <trkpt lat="42.66492400000034" lon="-1.8480789999999985">
        <ele>383.878</ele>
        <time>2022-08-25T10:16:20Z</time>
      </trkpt>
      <trkpt lat="42.66494700000034" lon="-1.8480929999999984">
        <ele>383.888</ele>
        <time>2022-08-25T10:16:22Z</time>
      </trkpt>
      <trkpt lat="42.66495600000034" lon="-1.8480989999999984">
        <ele>383.844</ele>
        <time>2022-08-25T10:16:23Z</time>
      </trkpt>
      <trkpt lat="42.664965000000336" lon="-1.8481059999999985">
        <ele>384.056</ele>
        <time>2022-08-25T10:16:24Z</time>
      </trkpt>
      <trkpt lat="42.66497500000034" lon="-1.8481099999999984">
        <ele>384.083</ele>
        <time>2022-08-25T10:16:25Z</time>
      </trkpt>
      <trkpt lat="42.66498800000034" lon="-1.8481129999999983">
        <ele>384.286</ele>
        <time>2022-08-25T10:16:26Z</time>
      </trkpt>
      <trkpt lat="42.66501300000034" lon="-1.8481349999999983">
        <ele>384.472</ele>
        <time>2022-08-25T10:16:29Z</time>
      </trkpt>
      <trkpt lat="42.665021000000344" lon="-1.8481429999999983">
        <ele>384.463</ele>
        <time>2022-08-25T10:16:30Z</time>
      </trkpt>
      <trkpt lat="42.665032000000345" lon="-1.8481509999999983">
        <ele>384.431</ele>
        <time>2022-08-25T10:16:31Z</time>
      </trkpt>
      <trkpt lat="42.665043000000345" lon="-1.8481579999999984">
        <ele>384.661</ele>
        <time>2022-08-25T10:16:32Z</time>
      </trkpt>
      <trkpt lat="42.66506400000034" lon="-1.8481709999999985">
        <ele>385.007</ele>
        <time>2022-08-25T10:16:34Z</time>
      </trkpt>
      <trkpt lat="42.66507500000034" lon="-1.8481769999999984">
        <ele>385.409</ele>
        <time>2022-08-25T10:16:35Z</time>
      </trkpt>
      <trkpt lat="42.66509500000034" lon="-1.8481899999999984">
        <ele>385.814</ele>
        <time>2022-08-25T10:16:37Z</time>
      </trkpt>
      <trkpt lat="42.66510300000034" lon="-1.8481979999999985">
        <ele>386.074</ele>
        <time>2022-08-25T10:16:38Z</time>
      </trkpt>
      <trkpt lat="42.66514600000034" lon="-1.8482429999999985">
        <ele>386.614</ele>
        <time>2022-08-25T10:16:42Z</time>
      </trkpt>
      <trkpt lat="42.66516100000034" lon="-1.8482689999999986">
        <ele>387.010</ele>
        <time>2022-08-25T10:16:44Z</time>
      </trkpt>
      <trkpt lat="42.665193000000336" lon="-1.8483159999999985">
        <ele>387.692</ele>
        <time>2022-08-25T10:16:48Z</time>
      </trkpt>
      <trkpt lat="42.66520100000034" lon="-1.8483239999999985">
        <ele>388.019</ele>
        <time>2022-08-25T10:16:49Z</time>
      </trkpt>
      <trkpt lat="42.665227000000336" lon="-1.8483489999999985">
        <ele>388.822</ele>
        <time>2022-08-25T10:16:52Z</time>
      </trkpt>
      <trkpt lat="42.665236000000334" lon="-1.8483559999999986">
        <ele>388.838</ele>
        <time>2022-08-25T10:16:53Z</time>
      </trkpt>
      <trkpt lat="42.66524300000033" lon="-1.8483649999999985">
        <ele>389.039</ele>
        <time>2022-08-25T10:16:54Z</time>
      </trkpt>
      <trkpt lat="42.66525000000033" lon="-1.8483759999999985">
        <ele>389.048</ele>
        <time>2022-08-25T10:16:55Z</time>
      </trkpt>
      <trkpt lat="42.66525500000033" lon="-1.8483839999999985">
        <ele>389.261</ele>
        <time>2022-08-25T10:16:56Z</time>
      </trkpt>
      <trkpt lat="42.66526000000033" lon="-1.8483919999999985">
        <ele>389.417</ele>
        <time>2022-08-25T10:16:57Z</time>
      </trkpt>
      <trkpt lat="42.66526400000033" lon="-1.8483989999999986">
        <ele>389.409</ele>
        <time>2022-08-25T10:16:58Z</time>
      </trkpt>
      <trkpt lat="42.665270000000326" lon="-1.8484089999999986">
        <ele>389.615</ele>
        <time>2022-08-25T10:16:59Z</time>
      </trkpt>
      <trkpt lat="42.66527400000032" lon="-1.8484229999999986">
        <ele>389.825</ele>
        <time>2022-08-25T10:17:00Z</time>
      </trkpt>
      <trkpt lat="42.66527800000032" lon="-1.8484329999999987">
        <ele>389.855</ele>
        <time>2022-08-25T10:17:01Z</time>
      </trkpt>
      <trkpt lat="42.66529400000032" lon="-1.8484589999999987">
        <ele>390.231</ele>
        <time>2022-08-25T10:17:04Z</time>
      </trkpt>
      <trkpt lat="42.66531700000032" lon="-1.8484789999999987">
        <ele>391.073</ele>
        <time>2022-08-25T10:17:08Z</time>
      </trkpt>
      <trkpt lat="42.66532300000032" lon="-1.8484859999999987">
        <ele>391.210</ele>
        <time>2022-08-25T10:17:09Z</time>
      </trkpt>
      <trkpt lat="42.66533000000032" lon="-1.8484929999999988">
        <ele>391.253</ele>
        <time>2022-08-25T10:17:10Z</time>
      </trkpt>
      <trkpt lat="42.665337000000314" lon="-1.8485039999999988">
        <ele>391.479</ele>
        <time>2022-08-25T10:17:11Z</time>
      </trkpt>
      <trkpt lat="42.665382000000314" lon="-1.8485469999999988">
        <ele>392.220</ele>
        <time>2022-08-25T10:17:16Z</time>
      </trkpt>
      <trkpt lat="42.66540200000031" lon="-1.8485669999999987">
        <ele>392.611</ele>
        <time>2022-08-25T10:17:18Z</time>
      </trkpt>
      <trkpt lat="42.665410000000314" lon="-1.8485759999999987">
        <ele>392.821</ele>
        <time>2022-08-25T10:17:19Z</time>
      </trkpt>
      <trkpt lat="42.66542800000031" lon="-1.8485869999999986">
        <ele>393.403</ele>
        <time>2022-08-25T10:17:21Z</time>
      </trkpt>
      <trkpt lat="42.66543900000031" lon="-1.8485929999999986">
        <ele>393.609</ele>
        <time>2022-08-25T10:17:22Z</time>
      </trkpt>
      <trkpt lat="42.66545100000031" lon="-1.8485989999999985">
        <ele>394.082</ele>
        <time>2022-08-25T10:17:23Z</time>
      </trkpt>
      <trkpt lat="42.66547000000031" lon="-1.8486109999999984">
        <ele>395.062</ele>
        <time>2022-08-25T10:17:25Z</time>
      </trkpt>
      <trkpt lat="42.66547800000031" lon="-1.8486159999999985">
        <ele>395.212</ele>
        <time>2022-08-25T10:17:26Z</time>
      </trkpt>
      <trkpt lat="42.665488000000316" lon="-1.8486209999999985">
        <ele>395.658</ele>
        <time>2022-08-25T10:17:27Z</time>
      </trkpt>
      <trkpt lat="42.66549900000032" lon="-1.8486289999999985">
        <ele>395.870</ele>
        <time>2022-08-25T10:17:28Z</time>
      </trkpt>
      <trkpt lat="42.665508000000315" lon="-1.8486409999999984">
        <ele>396.027</ele>
        <time>2022-08-25T10:17:29Z</time>
      </trkpt>
      <trkpt lat="42.66552000000031" lon="-1.8486579999999984">
        <ele>396.490</ele>
        <time>2022-08-25T10:17:30Z</time>
      </trkpt>
      <trkpt lat="42.66555500000031" lon="-1.8486939999999983">
        <ele>397.226</ele>
        <time>2022-08-25T10:17:33Z</time>
      </trkpt>
      <trkpt lat="42.66556700000031" lon="-1.8487069999999983">
        <ele>397.277</ele>
        <time>2022-08-25T10:17:34Z</time>
      </trkpt>
      <trkpt lat="42.66557700000031" lon="-1.8487169999999984">
        <ele>397.643</ele>
        <time>2022-08-25T10:17:35Z</time>
      </trkpt>
      <trkpt lat="42.66558600000031" lon="-1.8487279999999984">
        <ele>397.864</ele>
        <time>2022-08-25T10:17:36Z</time>
      </trkpt>
      <trkpt lat="42.66560800000031" lon="-1.8487469999999984">
        <ele>398.210</ele>
        <time>2022-08-25T10:17:38Z</time>
      </trkpt>
      <trkpt lat="42.665618000000315" lon="-1.8487529999999983">
        <ele>398.409</ele>
        <time>2022-08-25T10:17:39Z</time>
      </trkpt>
      <trkpt lat="42.66563000000031" lon="-1.8487559999999983">
        <ele>398.865</ele>
        <time>2022-08-25T10:17:40Z</time>
      </trkpt>
      <trkpt lat="42.665640000000316" lon="-1.8487639999999983">
        <ele>399.025</ele>
        <time>2022-08-25T10:17:41Z</time>
      </trkpt>
      <trkpt lat="42.665654000000316" lon="-1.8487749999999983">
        <ele>399.275</ele>
        <time>2022-08-25T10:17:42Z</time>
      </trkpt>
      <trkpt lat="42.665660000000315" lon="-1.8487819999999984">
        <ele>399.431</ele>
        <time>2022-08-25T10:17:43Z</time>
      </trkpt>
      <trkpt lat="42.66566700000031" lon="-1.8487919999999984">
        <ele>399.653</ele>
        <time>2022-08-25T10:17:44Z</time>
      </trkpt>
      <trkpt lat="42.66567600000031" lon="-1.8488009999999984">
        <ele>399.820</ele>
        <time>2022-08-25T10:17:45Z</time>
      </trkpt>
      <trkpt lat="42.66568400000031" lon="-1.8488109999999984">
        <ele>400.043</ele>
        <time>2022-08-25T10:17:46Z</time>
      </trkpt>
      <trkpt lat="42.665697000000314" lon="-1.8488369999999985">
        <ele>400.439</ele>
        <time>2022-08-25T10:17:48Z</time>
      </trkpt>
      <trkpt lat="42.66570900000031" lon="-1.8488619999999985">
        <ele>400.640</ele>
        <time>2022-08-25T10:17:50Z</time>
      </trkpt>
      <trkpt lat="42.66571500000031" lon="-1.8488759999999984">
        <ele>400.835</ele>
        <time>2022-08-25T10:17:51Z</time>
      </trkpt>
      <trkpt lat="42.66572200000031" lon="-1.8488879999999983">
        <ele>401.086</ele>
        <time>2022-08-25T10:17:52Z</time>
      </trkpt>
      <trkpt lat="42.66572800000031" lon="-1.8488949999999984">
        <ele>401.214</ele>
        <time>2022-08-25T10:17:53Z</time>
      </trkpt>
      <trkpt lat="42.665737000000306" lon="-1.8489099999999985">
        <ele>401.409</ele>
        <time>2022-08-25T10:17:54Z</time>
      </trkpt>
      <trkpt lat="42.6657440000003" lon="-1.8489259999999985">
        <ele>401.484</ele>
        <time>2022-08-25T10:17:55Z</time>
      </trkpt>
      <trkpt lat="42.6657510000003" lon="-1.8489379999999984">
        <ele>401.824</ele>
        <time>2022-08-25T10:17:56Z</time>
      </trkpt>
      <trkpt lat="42.6657570000003" lon="-1.8489499999999983">
        <ele>402.254</ele>
        <time>2022-08-25T10:17:57Z</time>
      </trkpt>
      <trkpt lat="42.665761000000295" lon="-1.8489619999999982">
        <ele>402.210</ele>
        <time>2022-08-25T10:17:58Z</time>
      </trkpt>
      <trkpt lat="42.665766000000296" lon="-1.8489769999999983">
        <ele>402.422</ele>
        <time>2022-08-25T10:17:59Z</time>
      </trkpt>
      <trkpt lat="42.665767000000294" lon="-1.8489949999999984">
        <ele>402.429</ele>
        <time>2022-08-25T10:18:00Z</time>
      </trkpt>
      <trkpt lat="42.665769000000296" lon="-1.8490159999999984">
        <ele>402.882</ele>
        <time>2022-08-25T10:18:01Z</time>
      </trkpt>
      <trkpt lat="42.665772000000295" lon="-1.8490349999999984">
        <ele>403.038</ele>
        <time>2022-08-25T10:18:02Z</time>
      </trkpt>
      <trkpt lat="42.66577300000029" lon="-1.8490499999999985">
        <ele>403.299</ele>
        <time>2022-08-25T10:18:03Z</time>
      </trkpt>
      <trkpt lat="42.665778000000294" lon="-1.8490679999999986">
        <ele>403.453</ele>
        <time>2022-08-25T10:18:04Z</time>
      </trkpt>
      <trkpt lat="42.665783000000296" lon="-1.8490839999999986">
        <ele>403.604</ele>
        <time>2022-08-25T10:18:05Z</time>
      </trkpt>
      <trkpt lat="42.66578700000029" lon="-1.8490979999999986">
        <ele>403.614</ele>
        <time>2022-08-25T10:18:06Z</time>
      </trkpt>
      <trkpt lat="42.66578800000029" lon="-1.8491139999999986">
        <ele>403.809</ele>
        <time>2022-08-25T10:18:07Z</time>
      </trkpt>
      <trkpt lat="42.66579100000029" lon="-1.8491319999999987">
        <ele>403.826</ele>
        <time>2022-08-25T10:18:08Z</time>
      </trkpt>
      <trkpt lat="42.66579100000029" lon="-1.8491469999999988">
        <ele>404.046</ele>
        <time>2022-08-25T10:18:09Z</time>
      </trkpt>
      <trkpt lat="42.66579200000029" lon="-1.8491589999999987">
        <ele>404.026</ele>
        <time>2022-08-25T10:18:10Z</time>
      </trkpt>
      <trkpt lat="42.66579500000029" lon="-1.8491699999999986">
        <ele>404.232</ele>
        <time>2022-08-25T10:18:11Z</time>
      </trkpt>
      <trkpt lat="42.66579500000029" lon="-1.8491809999999986">
        <ele>404.424</ele>
        <time>2022-08-25T10:18:12Z</time>
      </trkpt>
      <trkpt lat="42.66579700000029" lon="-1.8491959999999987">
        <ele>404.441</ele>
        <time>2022-08-25T10:18:13Z</time>
      </trkpt>
      <trkpt lat="42.66579800000029" lon="-1.8492149999999987">
        <ele>404.624</ele>
        <time>2022-08-25T10:18:14Z</time>
      </trkpt>
      <trkpt lat="42.66580000000029" lon="-1.8492299999999988">
        <ele>404.830</ele>
        <time>2022-08-25T10:18:15Z</time>
      </trkpt>
      <trkpt lat="42.66580200000029" lon="-1.849244999999999">
        <ele>405.061</ele>
        <time>2022-08-25T10:18:16Z</time>
      </trkpt>
      <trkpt lat="42.66580600000029" lon="-1.8492619999999989">
        <ele>405.237</ele>
        <time>2022-08-25T10:18:17Z</time>
      </trkpt>
      <trkpt lat="42.66580800000029" lon="-1.849279999999999">
        <ele>405.449</ele>
        <time>2022-08-25T10:18:18Z</time>
      </trkpt>
      <trkpt lat="42.66580800000029" lon="-1.849294999999999">
        <ele>405.413</ele>
        <time>2022-08-25T10:18:19Z</time>
      </trkpt>
      <trkpt lat="42.66580900000029" lon="-1.849310999999999">
        <ele>405.609</ele>
        <time>2022-08-25T10:18:20Z</time>
      </trkpt>
      <trkpt lat="42.66580800000029" lon="-1.849329999999999">
        <ele>405.854</ele>
        <time>2022-08-25T10:18:21Z</time>
      </trkpt>
      <trkpt lat="42.66581100000029" lon="-1.849342999999999">
        <ele>405.814</ele>
        <time>2022-08-25T10:18:22Z</time>
      </trkpt>
      <trkpt lat="42.66581300000029" lon="-1.849354999999999">
        <ele>406.094</ele>
        <time>2022-08-25T10:18:23Z</time>
      </trkpt>
      <trkpt lat="42.66581300000029" lon="-1.849368999999999">
        <ele>406.030</ele>
        <time>2022-08-25T10:18:24Z</time>
      </trkpt>
      <trkpt lat="42.66581400000029" lon="-1.849383999999999">
        <ele>406.222</ele>
        <time>2022-08-25T10:18:25Z</time>
      </trkpt>
      <trkpt lat="42.66581600000029" lon="-1.849394999999999">
        <ele>406.229</ele>
        <time>2022-08-25T10:18:26Z</time>
      </trkpt>
      <trkpt lat="42.66581600000029" lon="-1.849407999999999">
        <ele>406.492</ele>
        <time>2022-08-25T10:18:27Z</time>
      </trkpt>
      <trkpt lat="42.66581700000029" lon="-1.8494149999999991">
        <ele>406.688</ele>
        <time>2022-08-25T10:18:28Z</time>
      </trkpt>
      <trkpt lat="42.665818000000286" lon="-1.8494179999999991">
        <ele>406.689</ele>
        <time>2022-08-25T10:18:29Z</time>
      </trkpt>
      <trkpt lat="42.665821000000285" lon="-1.8494309999999992">
        <ele>406.844</ele>
        <time>2022-08-25T10:18:30Z</time>
      </trkpt>
      <trkpt lat="42.66582300000029" lon="-1.8494439999999992">
        <ele>407.005</ele>
        <time>2022-08-25T10:18:31Z</time>
      </trkpt>
      <trkpt lat="42.66582500000029" lon="-1.849455999999999">
        <ele>407.015</ele>
        <time>2022-08-25T10:18:32Z</time>
      </trkpt>
      <trkpt lat="42.66582400000029" lon="-1.8494689999999991">
        <ele>407.209</ele>
        <time>2022-08-25T10:18:33Z</time>
      </trkpt>
      <trkpt lat="42.66582500000029" lon="-1.849480999999999">
        <ele>407.245</ele>
        <time>2022-08-25T10:18:34Z</time>
      </trkpt>
      <trkpt lat="42.66582700000029" lon="-1.849493999999999">
        <ele>407.255</ele>
        <time>2022-08-25T10:18:35Z</time>
      </trkpt>
      <trkpt lat="42.66582800000029" lon="-1.8495039999999991">
        <ele>407.485</ele>
        <time>2022-08-25T10:18:36Z</time>
      </trkpt>
      <trkpt lat="42.66583000000029" lon="-1.849512999999999">
        <ele>407.461</ele>
        <time>2022-08-25T10:18:37Z</time>
      </trkpt>
      <trkpt lat="42.66583300000029" lon="-1.849524999999999">
        <ele>407.433</ele>
        <time>2022-08-25T10:18:38Z</time>
      </trkpt>
      <trkpt lat="42.66583600000029" lon="-1.8495369999999989">
        <ele>407.630</ele>
        <time>2022-08-25T10:18:39Z</time>
      </trkpt>
      <trkpt lat="42.66583600000029" lon="-1.8495459999999988">
        <ele>407.853</ele>
        <time>2022-08-25T10:18:40Z</time>
      </trkpt>
      <trkpt lat="42.66583600000029" lon="-1.8495539999999988">
        <ele>407.899</ele>
        <time>2022-08-25T10:18:41Z</time>
      </trkpt>
      <trkpt lat="42.66583900000029" lon="-1.8495619999999988">
        <ele>408.030</ele>
        <time>2022-08-25T10:18:42Z</time>
      </trkpt>
      <trkpt lat="42.66584200000029" lon="-1.8495719999999989">
        <ele>408.012</ele>
        <time>2022-08-25T10:18:43Z</time>
      </trkpt>
      <trkpt lat="42.665846000000286" lon="-1.8495839999999988">
        <ele>408.232</ele>
        <time>2022-08-25T10:18:44Z</time>
      </trkpt>
      <trkpt lat="42.66585100000029" lon="-1.8495989999999989">
        <ele>408.205</ele>
        <time>2022-08-25T10:18:45Z</time>
      </trkpt>
      <trkpt lat="42.665852000000285" lon="-1.8496129999999988">
        <ele>408.409</ele>
        <time>2022-08-25T10:18:46Z</time>
      </trkpt>
      <trkpt lat="42.66585400000029" lon="-1.8496259999999989">
        <ele>408.622</ele>
        <time>2022-08-25T10:18:47Z</time>
      </trkpt>
      <trkpt lat="42.665858000000284" lon="-1.849640999999999">
        <ele>408.662</ele>
        <time>2022-08-25T10:18:48Z</time>
      </trkpt>
      <trkpt lat="42.66586200000028" lon="-1.849655999999999">
        <ele>409.072</ele>
        <time>2022-08-25T10:18:49Z</time>
      </trkpt>
      <trkpt lat="42.66586700000028" lon="-1.849671999999999">
        <ele>409.018</ele>
        <time>2022-08-25T10:18:50Z</time>
      </trkpt>
      <trkpt lat="42.66587300000028" lon="-1.849691999999999">
        <ele>409.490</ele>
        <time>2022-08-25T10:18:51Z</time>
      </trkpt>
      <trkpt lat="42.66587900000028" lon="-1.849713999999999">
        <ele>409.637</ele>
        <time>2022-08-25T10:18:52Z</time>
      </trkpt>
      <trkpt lat="42.66588500000028" lon="-1.8497259999999989">
        <ele>409.830</ele>
        <time>2022-08-25T10:18:53Z</time>
      </trkpt>
      <trkpt lat="42.66589000000028" lon="-1.8497399999999988">
        <ele>410.056</ele>
        <time>2022-08-25T10:18:54Z</time>
      </trkpt>
      <trkpt lat="42.66589600000028" lon="-1.8497569999999988">
        <ele>410.057</ele>
        <time>2022-08-25T10:18:55Z</time>
      </trkpt>
      <trkpt lat="42.66590000000028" lon="-1.8497749999999988">
        <ele>410.263</ele>
        <time>2022-08-25T10:18:56Z</time>
      </trkpt>
      <trkpt lat="42.66590200000028" lon="-1.849792999999999">
        <ele>410.244</ele>
        <time>2022-08-25T10:18:57Z</time>
      </trkpt>
      <trkpt lat="42.66590500000028" lon="-1.849810999999999">
        <ele>410.418</ele>
        <time>2022-08-25T10:18:58Z</time>
      </trkpt>
      <trkpt lat="42.66590800000028" lon="-1.849828999999999">
        <ele>410.609</ele>
        <time>2022-08-25T10:18:59Z</time>
      </trkpt>
      <trkpt lat="42.66591100000028" lon="-1.849848999999999">
        <ele>410.827</ele>
        <time>2022-08-25T10:19:00Z</time>
      </trkpt>
      <trkpt lat="42.66591400000028" lon="-1.8498689999999989">
        <ele>411.257</ele>
        <time>2022-08-25T10:19:01Z</time>
      </trkpt>
      <trkpt lat="42.665915000000275" lon="-1.849886999999999">
        <ele>411.487</ele>
        <time>2022-08-25T10:19:02Z</time>
      </trkpt>
      <trkpt lat="42.66591700000028" lon="-1.849904999999999">
        <ele>411.653</ele>
        <time>2022-08-25T10:19:03Z</time>
      </trkpt>
      <trkpt lat="42.66592200000028" lon="-1.849922999999999">
        <ele>411.855</ele>
        <time>2022-08-25T10:19:04Z</time>
      </trkpt>
      <trkpt lat="42.66592700000028" lon="-1.849942999999999">
        <ele>412.052</ele>
        <time>2022-08-25T10:19:05Z</time>
      </trkpt>
      <trkpt lat="42.66592900000028" lon="-1.849963999999999">
        <ele>412.255</ele>
        <time>2022-08-25T10:19:06Z</time>
      </trkpt>
      <trkpt lat="42.665931000000285" lon="-1.8499869999999992">
        <ele>412.421</ele>
        <time>2022-08-25T10:19:07Z</time>
      </trkpt>
      <trkpt lat="42.66593200000028" lon="-1.8500109999999992">
        <ele>412.652</ele>
        <time>2022-08-25T10:19:08Z</time>
      </trkpt>
      <trkpt lat="42.665931000000285" lon="-1.8500349999999992">
        <ele>412.688</ele>
        <time>2022-08-25T10:19:09Z</time>
      </trkpt>
      <trkpt lat="42.66593000000029" lon="-1.8500579999999993">
        <ele>413.024</ele>
        <time>2022-08-25T10:19:10Z</time>
      </trkpt>
      <trkpt lat="42.66593200000029" lon="-1.8500769999999993">
        <ele>413.426</ele>
        <time>2022-08-25T10:19:11Z</time>
      </trkpt>
      <trkpt lat="42.66593400000029" lon="-1.8500969999999992">
        <ele>413.609</ele>
        <time>2022-08-25T10:19:12Z</time>
      </trkpt>
      <trkpt lat="42.66593700000029" lon="-1.8501149999999993">
        <ele>413.699</ele>
        <time>2022-08-25T10:19:13Z</time>
      </trkpt>
      <trkpt lat="42.66594100000029" lon="-1.8501319999999992">
        <ele>413.839</ele>
        <time>2022-08-25T10:19:14Z</time>
      </trkpt>
      <trkpt lat="42.665945000000285" lon="-1.8501479999999992">
        <ele>414.029</ele>
        <time>2022-08-25T10:19:15Z</time>
      </trkpt>
      <trkpt lat="42.665948000000284" lon="-1.8501659999999993">
        <ele>414.225</ele>
        <time>2022-08-25T10:19:16Z</time>
      </trkpt>
      <trkpt lat="42.66595200000028" lon="-1.8501829999999992">
        <ele>414.477</ele>
        <time>2022-08-25T10:19:17Z</time>
      </trkpt>
      <trkpt lat="42.66595500000028" lon="-1.8502019999999992">
        <ele>414.634</ele>
        <time>2022-08-25T10:19:18Z</time>
      </trkpt>
      <trkpt lat="42.66595700000028" lon="-1.8502189999999992">
        <ele>414.877</ele>
        <time>2022-08-25T10:19:19Z</time>
      </trkpt>
      <trkpt lat="42.66596000000028" lon="-1.850235999999999">
        <ele>415.033</ele>
        <time>2022-08-25T10:19:20Z</time>
      </trkpt>
      <trkpt lat="42.665962000000285" lon="-1.8502539999999992">
        <ele>415.244</ele>
        <time>2022-08-25T10:19:21Z</time>
      </trkpt>
      <trkpt lat="42.66596100000029" lon="-1.8502689999999993">
        <ele>415.424</ele>
        <time>2022-08-25T10:19:22Z</time>
      </trkpt>
      <trkpt lat="42.66596100000029" lon="-1.8502829999999992">
        <ele>415.404</ele>
        <time>2022-08-25T10:19:23Z</time>
      </trkpt>
      <trkpt lat="42.66596300000029" lon="-1.8502979999999993">
        <ele>415.414</ele>
        <time>2022-08-25T10:19:24Z</time>
      </trkpt>
      <trkpt lat="42.66596400000029" lon="-1.8503089999999993">
        <ele>415.609</ele>
        <time>2022-08-25T10:19:25Z</time>
      </trkpt>
      <trkpt lat="42.665965000000284" lon="-1.8503209999999992">
        <ele>415.833</ele>
        <time>2022-08-25T10:19:26Z</time>
      </trkpt>
      <trkpt lat="42.665968000000284" lon="-1.8503339999999993">
        <ele>415.823</ele>
        <time>2022-08-25T10:19:27Z</time>
      </trkpt>
      <trkpt lat="42.66597200000028" lon="-1.8503469999999993">
        <ele>415.863</ele>
        <time>2022-08-25T10:19:28Z</time>
      </trkpt>
      <trkpt lat="42.66597600000028" lon="-1.8503619999999994">
        <ele>416.039</ele>
        <time>2022-08-25T10:19:29Z</time>
      </trkpt>
      <trkpt lat="42.665977000000275" lon="-1.8503759999999994">
        <ele>416.261</ele>
        <time>2022-08-25T10:19:30Z</time>
      </trkpt>
      <trkpt lat="42.66597900000028" lon="-1.8503929999999993">
        <ele>416.228</ele>
        <time>2022-08-25T10:19:31Z</time>
      </trkpt>
      <trkpt lat="42.66598100000028" lon="-1.8504069999999992">
        <ele>416.291</ele>
        <time>2022-08-25T10:19:32Z</time>
      </trkpt>
      <trkpt lat="42.66598300000028" lon="-1.8504229999999993">
        <ele>416.467</ele>
        <time>2022-08-25T10:19:33Z</time>
      </trkpt>
      <trkpt lat="42.66598400000028" lon="-1.8504399999999992">
        <ele>416.468</ele>
        <time>2022-08-25T10:19:34Z</time>
      </trkpt>
      <trkpt lat="42.66598600000028" lon="-1.8504579999999993">
        <ele>416.622</ele>
        <time>2022-08-25T10:19:35Z</time>
      </trkpt>
      <trkpt lat="42.66598700000028" lon="-1.8504749999999992">
        <ele>416.862</ele>
        <time>2022-08-25T10:19:36Z</time>
      </trkpt>
      <trkpt lat="42.665988000000276" lon="-1.8504909999999992">
        <ele>417.008</ele>
        <time>2022-08-25T10:19:37Z</time>
      </trkpt>
      <trkpt lat="42.66598900000027" lon="-1.8505059999999993">
        <ele>417.009</ele>
        <time>2022-08-25T10:19:38Z</time>
      </trkpt>
      <trkpt lat="42.66599000000027" lon="-1.8505199999999993">
        <ele>417.023</ele>
        <time>2022-08-25T10:19:39Z</time>
      </trkpt>
      <trkpt lat="42.66599400000027" lon="-1.8505349999999994">
        <ele>417.273</ele>
        <time>2022-08-25T10:19:40Z</time>
      </trkpt>
      <trkpt lat="42.66599400000027" lon="-1.8505519999999993">
        <ele>417.453</ele>
        <time>2022-08-25T10:19:41Z</time>
      </trkpt>
      <trkpt lat="42.66599700000027" lon="-1.8505679999999993">
        <ele>417.859</ele>
        <time>2022-08-25T10:19:42Z</time>
      </trkpt>
      <trkpt lat="42.66600200000027" lon="-1.8505829999999994">
        <ele>417.851</ele>
        <time>2022-08-25T10:19:43Z</time>
      </trkpt>
      <trkpt lat="42.66600800000027" lon="-1.8505969999999994">
        <ele>418.098</ele>
        <time>2022-08-25T10:19:44Z</time>
      </trkpt>
      <trkpt lat="42.66601300000027" lon="-1.8506089999999993">
        <ele>418.221</ele>
        <time>2022-08-25T10:19:45Z</time>
      </trkpt>
      <trkpt lat="42.66601700000027" lon="-1.8506219999999993">
        <ele>418.487</ele>
        <time>2022-08-25T10:19:46Z</time>
      </trkpt>
      <trkpt lat="42.66602100000026" lon="-1.8506339999999992">
        <ele>418.648</ele>
        <time>2022-08-25T10:19:47Z</time>
      </trkpt>
      <trkpt lat="42.66602400000026" lon="-1.8506469999999993">
        <ele>418.844</ele>
        <time>2022-08-25T10:19:48Z</time>
      </trkpt>
      <trkpt lat="42.666029000000265" lon="-1.8506609999999992">
        <ele>419.005</ele>
        <time>2022-08-25T10:19:49Z</time>
      </trkpt>
      <trkpt lat="42.666034000000266" lon="-1.8506719999999992">
        <ele>419.015</ele>
        <time>2022-08-25T10:19:50Z</time>
      </trkpt>
      <trkpt lat="42.66603800000026" lon="-1.850683999999999">
        <ele>419.209</ele>
        <time>2022-08-25T10:19:51Z</time>
      </trkpt>
      <trkpt lat="42.66604200000026" lon="-1.850695999999999">
        <ele>419.435</ele>
        <time>2022-08-25T10:19:52Z</time>
      </trkpt>
      <trkpt lat="42.66604700000026" lon="-1.850707999999999">
        <ele>419.635</ele>
        <time>2022-08-25T10:19:53Z</time>
      </trkpt>
      <trkpt lat="42.66605300000026" lon="-1.850720999999999">
        <ele>419.885</ele>
        <time>2022-08-25T10:19:54Z</time>
      </trkpt>
      <trkpt lat="42.66605500000026" lon="-1.850733999999999">
        <ele>419.881</ele>
        <time>2022-08-25T10:19:55Z</time>
      </trkpt>
      <trkpt lat="42.66605800000026" lon="-1.850747999999999">
        <ele>420.043</ele>
        <time>2022-08-25T10:19:56Z</time>
      </trkpt>
      <trkpt lat="42.66606100000026" lon="-1.8507599999999989">
        <ele>420.070</ele>
        <time>2022-08-25T10:19:57Z</time>
      </trkpt>
      <trkpt lat="42.66606500000026" lon="-1.8507719999999988">
        <ele>420.243</ele>
        <time>2022-08-25T10:19:58Z</time>
      </trkpt>
      <trkpt lat="42.66606800000026" lon="-1.8507849999999988">
        <ele>420.279</ele>
        <time>2022-08-25T10:19:59Z</time>
      </trkpt>
      <trkpt lat="42.66607300000026" lon="-1.8507959999999988">
        <ele>420.230</ele>
        <time>2022-08-25T10:20:00Z</time>
      </trkpt>
      <trkpt lat="42.66607800000026" lon="-1.8508079999999987">
        <ele>420.427</ele>
        <time>2022-08-25T10:20:01Z</time>
      </trkpt>
      <trkpt lat="42.66608300000026" lon="-1.8508169999999986">
        <ele>420.468</ele>
        <time>2022-08-25T10:20:02Z</time>
      </trkpt>
      <trkpt lat="42.66609000000026" lon="-1.8508319999999987">
        <ele>420.414</ele>
        <time>2022-08-25T10:20:03Z</time>
      </trkpt>
      <trkpt lat="42.66609800000026" lon="-1.8508419999999988">
        <ele>420.409</ele>
        <time>2022-08-25T10:20:04Z</time>
      </trkpt>
      <trkpt lat="42.66610400000026" lon="-1.8508509999999987">
        <ele>420.683</ele>
        <time>2022-08-25T10:20:05Z</time>
      </trkpt>
      <trkpt lat="42.66610800000026" lon="-1.8508649999999987">
        <ele>420.843</ele>
        <time>2022-08-25T10:20:06Z</time>
      </trkpt>
      <trkpt lat="42.66611000000026" lon="-1.8508749999999987">
        <ele>420.893</ele>
        <time>2022-08-25T10:20:07Z</time>
      </trkpt>
      <trkpt lat="42.66611200000026" lon="-1.8508829999999987">
        <ele>421.049</ele>
        <time>2022-08-25T10:20:08Z</time>
      </trkpt>
      <trkpt lat="42.66611800000026" lon="-1.8508929999999988">
        <ele>421.071</ele>
        <time>2022-08-25T10:20:09Z</time>
      </trkpt>
      <trkpt lat="42.66612300000026" lon="-1.8509059999999988">
        <ele>421.248</ele>
        <time>2022-08-25T10:20:10Z</time>
      </trkpt>
      <trkpt lat="42.66612900000026" lon="-1.8509189999999989">
        <ele>421.411</ele>
        <time>2022-08-25T10:20:11Z</time>
      </trkpt>
      <trkpt lat="42.66613500000026" lon="-1.850931999999999">
        <ele>421.687</ele>
        <time>2022-08-25T10:20:12Z</time>
      </trkpt>
      <trkpt lat="42.66613800000026" lon="-1.850944999999999">
        <ele>421.858</ele>
        <time>2022-08-25T10:20:13Z</time>
      </trkpt>
      <trkpt lat="42.66614000000026" lon="-1.850955999999999">
        <ele>421.879</ele>
        <time>2022-08-25T10:20:14Z</time>
      </trkpt>
      <trkpt lat="42.66614300000026" lon="-1.850970999999999">
        <ele>422.005</ele>
        <time>2022-08-25T10:20:15Z</time>
      </trkpt>
      <trkpt lat="42.66614600000026" lon="-1.850980999999999">
        <ele>422.225</ele>
        <time>2022-08-25T10:20:16Z</time>
      </trkpt>
      <trkpt lat="42.66615300000026" lon="-1.850992999999999">
        <ele>422.409</ele>
        <time>2022-08-25T10:20:17Z</time>
      </trkpt>
      <trkpt lat="42.666159000000256" lon="-1.851002999999999">
        <ele>422.638</ele>
        <time>2022-08-25T10:20:18Z</time>
      </trkpt>
      <trkpt lat="42.66616600000025" lon="-1.8510129999999991">
        <ele>422.638</ele>
        <time>2022-08-25T10:20:19Z</time>
      </trkpt>
      <trkpt lat="42.66617200000025" lon="-1.8510239999999991">
        <ele>422.618</ele>
        <time>2022-08-25T10:20:20Z</time>
      </trkpt>
      <trkpt lat="42.66617500000025" lon="-1.8510369999999992">
        <ele>422.864</ele>
        <time>2022-08-25T10:20:21Z</time>
      </trkpt>
      <trkpt lat="42.66617800000025" lon="-1.8510509999999991">
        <ele>422.896</ele>
        <time>2022-08-25T10:20:22Z</time>
      </trkpt>
      <trkpt lat="42.66618200000025" lon="-1.851062999999999">
        <ele>423.033</ele>
        <time>2022-08-25T10:20:23Z</time>
      </trkpt>
      <trkpt lat="42.66618800000025" lon="-1.851072999999999">
        <ele>423.266</ele>
        <time>2022-08-25T10:20:24Z</time>
      </trkpt>
      <trkpt lat="42.66619500000024" lon="-1.8510829999999991">
        <ele>423.492</ele>
        <time>2022-08-25T10:20:25Z</time>
      </trkpt>
      <trkpt lat="42.66620100000024" lon="-1.8510939999999991">
        <ele>423.453</ele>
        <time>2022-08-25T10:20:26Z</time>
      </trkpt>
      <trkpt lat="42.666206000000244" lon="-1.8511069999999992">
        <ele>423.445</ele>
        <time>2022-08-25T10:20:27Z</time>
      </trkpt>
      <trkpt lat="42.666211000000246" lon="-1.8511209999999991">
        <ele>423.647</ele>
        <time>2022-08-25T10:20:28Z</time>
      </trkpt>
      <trkpt lat="42.66621800000024" lon="-1.851134999999999">
        <ele>423.611</ele>
        <time>2022-08-25T10:20:29Z</time>
      </trkpt>
      <trkpt lat="42.66622600000024" lon="-1.851148999999999">
        <ele>423.809</ele>
        <time>2022-08-25T10:20:30Z</time>
      </trkpt>
      <trkpt lat="42.66623300000024" lon="-1.851161999999999">
        <ele>423.845</ele>
        <time>2022-08-25T10:20:31Z</time>
      </trkpt>
      <trkpt lat="42.66624100000024" lon="-1.8511719999999992">
        <ele>424.025</ele>
        <time>2022-08-25T10:20:32Z</time>
      </trkpt>
      <trkpt lat="42.66624800000024" lon="-1.8511819999999992">
        <ele>424.035</ele>
        <time>2022-08-25T10:20:33Z</time>
      </trkpt>
      <trkpt lat="42.66625100000024" lon="-1.8511889999999993">
        <ele>424.211</ele>
        <time>2022-08-25T10:20:34Z</time>
      </trkpt>
      <trkpt lat="42.66625400000024" lon="-1.8512009999999992">
        <ele>424.263</ele>
        <time>2022-08-25T10:20:35Z</time>
      </trkpt>
      <trkpt lat="42.66625900000024" lon="-1.8512109999999993">
        <ele>424.420</ele>
        <time>2022-08-25T10:20:36Z</time>
      </trkpt>
      <trkpt lat="42.66626400000024" lon="-1.8512229999999992">
        <ele>424.653</ele>
        <time>2022-08-25T10:20:37Z</time>
      </trkpt>
      <trkpt lat="42.66626800000024" lon="-1.851234999999999">
        <ele>424.639</ele>
        <time>2022-08-25T10:20:38Z</time>
      </trkpt>
      <trkpt lat="42.66627300000024" lon="-1.851246999999999">
        <ele>425.040</ele>
        <time>2022-08-25T10:20:39Z</time>
      </trkpt>
      <trkpt lat="42.666280000000235" lon="-1.851257999999999">
        <ele>425.064</ele>
        <time>2022-08-25T10:20:40Z</time>
      </trkpt>
      <trkpt lat="42.66628700000023" lon="-1.8512699999999989">
        <ele>425.206</ele>
        <time>2022-08-25T10:20:41Z</time>
      </trkpt>
      <trkpt lat="42.66629200000023" lon="-1.8512789999999988">
        <ele>425.216</ele>
        <time>2022-08-25T10:20:42Z</time>
      </trkpt>
      <trkpt lat="42.66629600000023" lon="-1.8512899999999988">
        <ele>425.409</ele>
        <time>2022-08-25T10:20:43Z</time>
      </trkpt>
      <trkpt lat="42.66630000000023" lon="-1.8512999999999988">
        <ele>425.477</ele>
        <time>2022-08-25T10:20:44Z</time>
      </trkpt>
      <trkpt lat="42.66630300000023" lon="-1.8513129999999989">
        <ele>425.617</ele>
        <time>2022-08-25T10:20:45Z</time>
      </trkpt>
      <trkpt lat="42.666306000000226" lon="-1.8513249999999988">
        <ele>425.627</ele>
        <time>2022-08-25T10:20:46Z</time>
      </trkpt>
      <trkpt lat="42.66630800000023" lon="-1.8513359999999988">
        <ele>425.663</ele>
        <time>2022-08-25T10:20:47Z</time>
      </trkpt>
      <trkpt lat="42.66631000000023" lon="-1.8513469999999987">
        <ele>425.855</ele>
        <time>2022-08-25T10:20:48Z</time>
      </trkpt>
      <trkpt lat="42.66631400000023" lon="-1.8513599999999988">
        <ele>426.052</ele>
        <time>2022-08-25T10:20:49Z</time>
      </trkpt>
      <trkpt lat="42.666318000000224" lon="-1.8513699999999988">
        <ele>426.085</ele>
        <time>2022-08-25T10:20:50Z</time>
      </trkpt>
      <trkpt lat="42.666323000000226" lon="-1.8513809999999988">
        <ele>426.231</ele>
        <time>2022-08-25T10:20:51Z</time>
      </trkpt>
      <trkpt lat="42.66632800000023" lon="-1.8513949999999988">
        <ele>426.452</ele>
        <time>2022-08-25T10:20:52Z</time>
      </trkpt>
      <trkpt lat="42.666335000000224" lon="-1.8514069999999987">
        <ele>426.482</ele>
        <time>2022-08-25T10:20:53Z</time>
      </trkpt>
      <trkpt lat="42.66634200000022" lon="-1.8514179999999987">
        <ele>426.443</ele>
        <time>2022-08-25T10:20:54Z</time>
      </trkpt>
      <trkpt lat="42.66634900000022" lon="-1.8514309999999987">
        <ele>426.617</ele>
        <time>2022-08-25T10:20:55Z</time>
      </trkpt>
      <trkpt lat="42.66635400000022" lon="-1.8514439999999988">
        <ele>426.809</ele>
        <time>2022-08-25T10:20:56Z</time>
      </trkpt>
      <trkpt lat="42.66635900000022" lon="-1.8514559999999987">
        <ele>426.879</ele>
        <time>2022-08-25T10:20:57Z</time>
      </trkpt>
      <trkpt lat="42.66636400000022" lon="-1.8514679999999986">
        <ele>427.079</ele>
        <time>2022-08-25T10:20:58Z</time>
      </trkpt>
      <trkpt lat="42.66637000000022" lon="-1.8514799999999985">
        <ele>427.069</ele>
        <time>2022-08-25T10:20:59Z</time>
      </trkpt>
      <trkpt lat="42.66637700000022" lon="-1.8514899999999985">
        <ele>427.265</ele>
        <time>2022-08-25T10:21:00Z</time>
      </trkpt>
      <trkpt lat="42.66638200000022" lon="-1.8514989999999985">
        <ele>427.447</ele>
        <time>2022-08-25T10:21:01Z</time>
      </trkpt>
      <trkpt lat="42.666389000000216" lon="-1.8515129999999984">
        <ele>427.674</ele>
        <time>2022-08-25T10:21:02Z</time>
      </trkpt>
      <trkpt lat="42.666395000000215" lon="-1.8515249999999983">
        <ele>427.847</ele>
        <time>2022-08-25T10:21:03Z</time>
      </trkpt>
      <trkpt lat="42.666401000000214" lon="-1.8515369999999982">
        <ele>428.083</ele>
        <time>2022-08-25T10:21:04Z</time>
      </trkpt>
      <trkpt lat="42.666409000000215" lon="-1.8515479999999982">
        <ele>428.264</ele>
        <time>2022-08-25T10:21:05Z</time>
      </trkpt>
      <trkpt lat="42.666414000000216" lon="-1.8515569999999981">
        <ele>428.442</ele>
        <time>2022-08-25T10:21:06Z</time>
      </trkpt>
      <trkpt lat="42.666420000000215" lon="-1.8515669999999982">
        <ele>428.822</ele>
        <time>2022-08-25T10:21:07Z</time>
      </trkpt>
      <trkpt lat="42.66642500000022" lon="-1.8515799999999982">
        <ele>429.014</ele>
        <time>2022-08-25T10:21:08Z</time>
      </trkpt>
      <trkpt lat="42.66643000000022" lon="-1.8515939999999982">
        <ele>429.009</ele>
        <time>2022-08-25T10:21:09Z</time>
      </trkpt>
      <trkpt lat="42.66643600000022" lon="-1.8516049999999982">
        <ele>429.425</ele>
        <time>2022-08-25T10:21:10Z</time>
      </trkpt>
      <trkpt lat="42.666440000000215" lon="-1.8516149999999982">
        <ele>429.655</ele>
        <time>2022-08-25T10:21:11Z</time>
      </trkpt>
      <trkpt lat="42.666446000000214" lon="-1.8516269999999981">
        <ele>429.865</ele>
        <time>2022-08-25T10:21:12Z</time>
      </trkpt>
      <trkpt lat="42.66645200000021" lon="-1.8516369999999982">
        <ele>430.071</ele>
        <time>2022-08-25T10:21:13Z</time>
      </trkpt>
      <trkpt lat="42.666460000000214" lon="-1.8516439999999983">
        <ele>430.013</ele>
        <time>2022-08-25T10:21:14Z</time>
      </trkpt>
      <trkpt lat="42.666468000000215" lon="-1.8516559999999982">
        <ele>430.210</ele>
        <time>2022-08-25T10:21:15Z</time>
      </trkpt>
      <trkpt lat="42.666476000000216" lon="-1.851667999999998">
        <ele>430.463</ele>
        <time>2022-08-25T10:21:16Z</time>
      </trkpt>
      <trkpt lat="42.666482000000215" lon="-1.8516829999999982">
        <ele>430.459</ele>
        <time>2022-08-25T10:21:17Z</time>
      </trkpt>
      <trkpt lat="42.666490000000216" lon="-1.8517009999999983">
        <ele>430.640</ele>
        <time>2022-08-25T10:21:18Z</time>
      </trkpt>
      <trkpt lat="42.66650000000022" lon="-1.8517159999999984">
        <ele>431.096</ele>
        <time>2022-08-25T10:21:19Z</time>
      </trkpt>
      <trkpt lat="42.66651000000022" lon="-1.8517269999999983">
        <ele>431.231</ele>
        <time>2022-08-25T10:21:20Z</time>
      </trkpt>
      <trkpt lat="42.66651600000022" lon="-1.8517359999999983">
        <ele>431.624</ele>
        <time>2022-08-25T10:21:21Z</time>
      </trkpt>
      <trkpt lat="42.66652200000022" lon="-1.8517469999999983">
        <ele>431.809</ele>
        <time>2022-08-25T10:21:22Z</time>
      </trkpt>
      <trkpt lat="42.66652800000022" lon="-1.8517599999999983">
        <ele>431.830</ele>
        <time>2022-08-25T10:21:23Z</time>
      </trkpt>
      <trkpt lat="42.66653100000022" lon="-1.8517729999999983">
        <ele>432.270</ele>
        <time>2022-08-25T10:21:24Z</time>
      </trkpt>
      <trkpt lat="42.666535000000216" lon="-1.8517859999999984">
        <ele>432.660</ele>
        <time>2022-08-25T10:21:25Z</time>
      </trkpt>
      <trkpt lat="42.66654200000021" lon="-1.8517979999999983">
        <ele>432.886</ele>
        <time>2022-08-25T10:21:26Z</time>
      </trkpt>
      <trkpt lat="42.66654900000021" lon="-1.8518099999999982">
        <ele>433.278</ele>
        <time>2022-08-25T10:21:27Z</time>
      </trkpt>
      <trkpt lat="42.66655700000021" lon="-1.8518229999999982">
        <ele>433.465</ele>
        <time>2022-08-25T10:21:28Z</time>
      </trkpt>
      <trkpt lat="42.66656400000021" lon="-1.8518339999999982">
        <ele>433.888</ele>
        <time>2022-08-25T10:21:29Z</time>
      </trkpt>
      <trkpt lat="42.666570000000206" lon="-1.8518469999999982">
        <ele>433.884</ele>
        <time>2022-08-25T10:21:30Z</time>
      </trkpt>
      <trkpt lat="42.666576000000205" lon="-1.8518579999999982">
        <ele>434.065</ele>
        <time>2022-08-25T10:21:31Z</time>
      </trkpt>
      <trkpt lat="42.66658100000021" lon="-1.8518729999999983">
        <ele>434.023</ele>
        <time>2022-08-25T10:21:32Z</time>
      </trkpt>
      <trkpt lat="42.666585000000204" lon="-1.8518929999999982">
        <ele>434.283</ele>
        <time>2022-08-25T10:21:33Z</time>
      </trkpt>
      <trkpt lat="42.6665890000002" lon="-1.8519099999999982">
        <ele>434.611</ele>
        <time>2022-08-25T10:21:34Z</time>
      </trkpt>
      <trkpt lat="42.6665900000002" lon="-1.8519249999999983">
        <ele>434.809</ele>
        <time>2022-08-25T10:21:35Z</time>
      </trkpt>
      <trkpt lat="42.6665930000002" lon="-1.8519419999999982">
        <ele>435.023</ele>
        <time>2022-08-25T10:21:36Z</time>
      </trkpt>
      <trkpt lat="42.6665980000002" lon="-1.8519599999999983">
        <ele>435.013</ele>
        <time>2022-08-25T10:21:37Z</time>
      </trkpt>
      <trkpt lat="42.6666000000002" lon="-1.8519749999999984">
        <ele>435.273</ele>
        <time>2022-08-25T10:21:38Z</time>
      </trkpt>
      <trkpt lat="42.6666060000002" lon="-1.8519899999999985">
        <ele>435.279</ele>
        <time>2022-08-25T10:21:39Z</time>
      </trkpt>
      <trkpt lat="42.6666120000002" lon="-1.8520049999999986">
        <ele>435.481</ele>
        <time>2022-08-25T10:21:40Z</time>
      </trkpt>
      <trkpt lat="42.6666180000002" lon="-1.8520209999999986">
        <ele>435.638</ele>
        <time>2022-08-25T10:21:41Z</time>
      </trkpt>
      <trkpt lat="42.6666230000002" lon="-1.8520379999999985">
        <ele>435.871</ele>
        <time>2022-08-25T10:21:42Z</time>
      </trkpt>
      <trkpt lat="42.6666270000002" lon="-1.8520519999999985">
        <ele>436.027</ele>
        <time>2022-08-25T10:21:43Z</time>
      </trkpt>
      <trkpt lat="42.6666300000002" lon="-1.8520629999999985">
        <ele>436.478</ele>
        <time>2022-08-25T10:21:44Z</time>
      </trkpt>
      <trkpt lat="42.666634000000194" lon="-1.8520819999999985">
        <ele>436.653</ele>
        <time>2022-08-25T10:21:45Z</time>
      </trkpt>
      <trkpt lat="42.66663800000019" lon="-1.8520999999999985">
        <ele>437.004</ele>
        <time>2022-08-25T10:21:46Z</time>
      </trkpt>
      <trkpt lat="42.66664100000019" lon="-1.8521159999999985">
        <ele>437.014</ele>
        <time>2022-08-25T10:21:47Z</time>
      </trkpt>
      <trkpt lat="42.66664500000019" lon="-1.8521319999999986">
        <ele>437.209</ele>
        <time>2022-08-25T10:21:48Z</time>
      </trkpt>
      <trkpt lat="42.66664800000019" lon="-1.8521449999999986">
        <ele>437.496</ele>
        <time>2022-08-25T10:21:49Z</time>
      </trkpt>
      <trkpt lat="42.66665300000019" lon="-1.8521569999999985">
        <ele>437.676</ele>
        <time>2022-08-25T10:21:50Z</time>
      </trkpt>
      <trkpt lat="42.666657000000185" lon="-1.8521729999999985">
        <ele>437.876</ele>
        <time>2022-08-25T10:21:51Z</time>
      </trkpt>
      <trkpt lat="42.66666200000019" lon="-1.8521879999999986">
        <ele>437.862</ele>
        <time>2022-08-25T10:21:52Z</time>
      </trkpt>
      <trkpt lat="42.66666700000019" lon="-1.8522019999999986">
        <ele>438.214</ele>
        <time>2022-08-25T10:21:53Z</time>
      </trkpt>
      <trkpt lat="42.666668000000186" lon="-1.8522169999999987">
        <ele>438.431</ele>
        <time>2022-08-25T10:21:54Z</time>
      </trkpt>
      <trkpt lat="42.66667000000019" lon="-1.8522299999999987">
        <ele>438.644</ele>
        <time>2022-08-25T10:21:55Z</time>
      </trkpt>
      <trkpt lat="42.66667200000019" lon="-1.8522439999999987">
        <ele>438.830</ele>
        <time>2022-08-25T10:21:56Z</time>
      </trkpt>
      <trkpt lat="42.66667700000019" lon="-1.8522569999999987">
        <ele>439.081</ele>
        <time>2022-08-25T10:21:57Z</time>
      </trkpt>
      <trkpt lat="42.66668100000019" lon="-1.8522649999999987">
        <ele>439.497</ele>
        <time>2022-08-25T10:21:58Z</time>
      </trkpt>
      <trkpt lat="42.666688000000185" lon="-1.8522829999999988">
        <ele>439.623</ele>
        <time>2022-08-25T10:21:59Z</time>
      </trkpt>
      <trkpt lat="42.666697000000184" lon="-1.8523019999999988">
        <ele>440.025</ele>
        <time>2022-08-25T10:22:00Z</time>
      </trkpt>
      <trkpt lat="42.66670600000018" lon="-1.8523189999999987">
        <ele>440.209</ele>
        <time>2022-08-25T10:22:01Z</time>
      </trkpt>
      <trkpt lat="42.66671300000018" lon="-1.8523289999999988">
        <ele>440.240</ele>
        <time>2022-08-25T10:22:02Z</time>
      </trkpt>
      <trkpt lat="42.66671600000018" lon="-1.8523389999999988">
        <ele>440.460</ele>
        <time>2022-08-25T10:22:03Z</time>
      </trkpt>
      <trkpt lat="42.66672100000018" lon="-1.8523549999999989">
        <ele>440.680</ele>
        <time>2022-08-25T10:22:04Z</time>
      </trkpt>
      <trkpt lat="42.66672700000018" lon="-1.852369999999999">
        <ele>440.856</ele>
        <time>2022-08-25T10:22:05Z</time>
      </trkpt>
      <trkpt lat="42.66673300000018" lon="-1.852387999999999">
        <ele>441.088</ele>
        <time>2022-08-25T10:22:06Z</time>
      </trkpt>
      <trkpt lat="42.66673900000018" lon="-1.8524029999999991">
        <ele>441.285</ele>
        <time>2022-08-25T10:22:07Z</time>
      </trkpt>
      <trkpt lat="42.666743000000174" lon="-1.8524159999999992">
        <ele>441.218</ele>
        <time>2022-08-25T10:22:08Z</time>
      </trkpt>
      <trkpt lat="42.666746000000174" lon="-1.852427999999999">
        <ele>441.474</ele>
        <time>2022-08-25T10:22:09Z</time>
      </trkpt>
      <trkpt lat="42.666748000000176" lon="-1.8524409999999991">
        <ele>441.455</ele>
        <time>2022-08-25T10:22:10Z</time>
      </trkpt>
      <trkpt lat="42.666751000000176" lon="-1.8524539999999992">
        <ele>441.664</ele>
        <time>2022-08-25T10:22:11Z</time>
      </trkpt>
      <trkpt lat="42.666751000000176" lon="-1.8524689999999993">
        <ele>441.606</ele>
        <time>2022-08-25T10:22:12Z</time>
      </trkpt>
      <trkpt lat="42.66675300000018" lon="-1.8524859999999992">
        <ele>441.616</ele>
        <time>2022-08-25T10:22:13Z</time>
      </trkpt>
      <trkpt lat="42.66675600000018" lon="-1.8525019999999992">
        <ele>441.609</ele>
        <time>2022-08-25T10:22:14Z</time>
      </trkpt>
      <trkpt lat="42.666760000000174" lon="-1.8525169999999993">
        <ele>441.667</ele>
        <time>2022-08-25T10:22:15Z</time>
      </trkpt>
      <trkpt lat="42.66676400000017" lon="-1.8525339999999992">
        <ele>441.857</ele>
        <time>2022-08-25T10:22:16Z</time>
      </trkpt>
      <trkpt lat="42.66677000000017" lon="-1.8525449999999992">
        <ele>442.087</ele>
        <time>2022-08-25T10:22:17Z</time>
      </trkpt>
      <trkpt lat="42.66677500000017" lon="-1.8525579999999993">
        <ele>442.233</ele>
        <time>2022-08-25T10:22:18Z</time>
      </trkpt>
      <trkpt lat="42.66678000000017" lon="-1.8525729999999994">
        <ele>442.445</ele>
        <time>2022-08-25T10:22:20Z</time>
      </trkpt>
      <trkpt lat="42.66678300000017" lon="-1.8525829999999994">
        <ele>442.632</ele>
        <time>2022-08-25T10:22:21Z</time>
      </trkpt>
      <trkpt lat="42.666785000000175" lon="-1.8525919999999994">
        <ele>442.655</ele>
        <time>2022-08-25T10:22:22Z</time>
      </trkpt>
      <trkpt lat="42.66678900000017" lon="-1.8526029999999993">
        <ele>442.861</ele>
        <time>2022-08-25T10:22:23Z</time>
      </trkpt>
      <trkpt lat="42.66679300000017" lon="-1.8526149999999992">
        <ele>442.832</ele>
        <time>2022-08-25T10:22:24Z</time>
      </trkpt>
      <trkpt lat="42.66679800000017" lon="-1.8526259999999992">
        <ele>443.084</ele>
        <time>2022-08-25T10:22:25Z</time>
      </trkpt>
      <trkpt lat="42.66680300000017" lon="-1.8526389999999993">
        <ele>443.207</ele>
        <time>2022-08-25T10:22:26Z</time>
      </trkpt>
      <trkpt lat="42.66680600000017" lon="-1.8526519999999993">
        <ele>443.417</ele>
        <time>2022-08-25T10:22:27Z</time>
      </trkpt>
      <trkpt lat="42.66680900000017" lon="-1.8526659999999993">
        <ele>443.409</ele>
        <time>2022-08-25T10:22:28Z</time>
      </trkpt>
      <trkpt lat="42.66681300000017" lon="-1.8526809999999994">
        <ele>443.489</ele>
        <time>2022-08-25T10:22:29Z</time>
      </trkpt>
      <trkpt lat="42.666817000000165" lon="-1.8526969999999994">
        <ele>443.679</ele>
        <time>2022-08-25T10:22:30Z</time>
      </trkpt>
      <trkpt lat="42.666820000000165" lon="-1.8527119999999995">
        <ele>443.699</ele>
        <time>2022-08-25T10:22:31Z</time>
      </trkpt>
      <trkpt lat="42.66682200000017" lon="-1.8527249999999995">
        <ele>443.815</ele>
        <time>2022-08-25T10:22:32Z</time>
      </trkpt>
      <trkpt lat="42.666825000000166" lon="-1.8527429999999996">
        <ele>444.047</ele>
        <time>2022-08-25T10:22:33Z</time>
      </trkpt>
      <trkpt lat="42.66682700000017" lon="-1.8527579999999997">
        <ele>444.224</ele>
        <time>2022-08-25T10:22:34Z</time>
      </trkpt>
      <trkpt lat="42.66682900000017" lon="-1.8527709999999997">
        <ele>444.457</ele>
        <time>2022-08-25T10:22:35Z</time>
      </trkpt>
      <trkpt lat="42.66683200000017" lon="-1.8527839999999998">
        <ele>444.623</ele>
        <time>2022-08-25T10:22:36Z</time>
      </trkpt>
      <trkpt lat="42.66683500000017" lon="-1.8527949999999997">
        <ele>444.864</ele>
        <time>2022-08-25T10:22:37Z</time>
      </trkpt>
      <trkpt lat="42.66683800000017" lon="-1.8528079999999998">
        <ele>445.066</ele>
        <time>2022-08-25T10:22:38Z</time>
      </trkpt>
      <trkpt lat="42.66684400000017" lon="-1.8528219999999997">
        <ele>445.229</ele>
        <time>2022-08-25T10:22:39Z</time>
      </trkpt>
      <trkpt lat="42.66684900000017" lon="-1.8528319999999998">
        <ele>445.221</ele>
        <time>2022-08-25T10:22:40Z</time>
      </trkpt>
      <trkpt lat="42.66685400000017" lon="-1.852839">
        <ele>445.409</ele>
        <time>2022-08-25T10:22:41Z</time>
      </trkpt>
      <trkpt lat="42.66686100000017" lon="-1.8528499999999999">
        <ele>445.657</ele>
        <time>2022-08-25T10:22:42Z</time>
      </trkpt>
      <trkpt lat="42.66686600000017" lon="-1.8528639999999998">
        <ele>445.657</ele>
        <time>2022-08-25T10:22:43Z</time>
      </trkpt>
      <trkpt lat="42.66687100000017" lon="-1.8528809999999998">
        <ele>445.837</ele>
        <time>2022-08-25T10:22:44Z</time>
      </trkpt>
      <trkpt lat="42.66687500000017" lon="-1.8528979999999997">
        <ele>446.053</ele>
        <time>2022-08-25T10:22:45Z</time>
      </trkpt>
      <trkpt lat="42.666879000000165" lon="-1.8529139999999997">
        <ele>446.285</ele>
        <time>2022-08-25T10:22:46Z</time>
      </trkpt>
      <trkpt lat="42.66688300000016" lon="-1.8529279999999997">
        <ele>446.422</ele>
        <time>2022-08-25T10:22:47Z</time>
      </trkpt>
      <trkpt lat="42.66688900000016" lon="-1.8529469999999997">
        <ele>446.655</ele>
        <time>2022-08-25T10:22:48Z</time>
      </trkpt>
      <trkpt lat="42.66689500000016" lon="-1.8529599999999997">
        <ele>446.821</ele>
        <time>2022-08-25T10:22:49Z</time>
      </trkpt>
      <trkpt lat="42.66690000000016" lon="-1.8529709999999997">
        <ele>447.032</ele>
        <time>2022-08-25T10:22:50Z</time>
      </trkpt>
      <trkpt lat="42.66690500000016" lon="-1.8529819999999997">
        <ele>447.277</ele>
        <time>2022-08-25T10:22:51Z</time>
      </trkpt>
      <trkpt lat="42.66691100000016" lon="-1.8529949999999997">
        <ele>447.461</ele>
        <time>2022-08-25T10:22:52Z</time>
      </trkpt>
      <trkpt lat="42.66691500000016" lon="-1.8530049999999998">
        <ele>447.427</ele>
        <time>2022-08-25T10:22:53Z</time>
      </trkpt>
      <trkpt lat="42.66692100000016" lon="-1.8530169999999997">
        <ele>447.609</ele>
        <time>2022-08-25T10:22:54Z</time>
      </trkpt>
      <trkpt lat="42.66692600000016" lon="-1.8530269999999998">
        <ele>447.838</ele>
        <time>2022-08-25T10:22:55Z</time>
      </trkpt>
      <trkpt lat="42.66693100000016" lon="-1.8530379999999997">
        <ele>448.248</ele>
        <time>2022-08-25T10:22:56Z</time>
      </trkpt>
      <trkpt lat="42.66693500000016" lon="-1.8530539999999998">
        <ele>448.248</ele>
        <time>2022-08-25T10:22:57Z</time>
      </trkpt>
      <trkpt lat="42.666939000000156" lon="-1.8530679999999997">
        <ele>448.444</ele>
        <time>2022-08-25T10:22:58Z</time>
      </trkpt>
      <trkpt lat="42.66694300000015" lon="-1.8530759999999997">
        <ele>448.646</ele>
        <time>2022-08-25T10:22:59Z</time>
      </trkpt>
      <trkpt lat="42.66695000000015" lon="-1.8530859999999998">
        <ele>448.883</ele>
        <time>2022-08-25T10:23:00Z</time>
      </trkpt>
      <trkpt lat="42.66695600000015" lon="-1.8530949999999997">
        <ele>449.066</ele>
        <time>2022-08-25T10:23:01Z</time>
      </trkpt>
      <trkpt lat="42.666963000000145" lon="-1.8531109999999997">
        <ele>449.482</ele>
        <time>2022-08-25T10:23:02Z</time>
      </trkpt>
      <trkpt lat="42.666971000000146" lon="-1.8531259999999998">
        <ele>450.033</ele>
        <time>2022-08-25T10:23:03Z</time>
      </trkpt>
      <trkpt lat="42.66697800000014" lon="-1.8531369999999998">
        <ele>450.465</ele>
        <time>2022-08-25T10:23:04Z</time>
      </trkpt>
      <trkpt lat="42.66698600000014" lon="-1.853152">
        <ele>450.468</ele>
        <time>2022-08-25T10:23:05Z</time>
      </trkpt>
      <trkpt lat="42.66699200000014" lon="-1.853163">
        <ele>450.814</ele>
        <time>2022-08-25T10:23:06Z</time>
      </trkpt>
      <trkpt lat="42.66699900000014" lon="-1.8531739999999999">
        <ele>451.009</ele>
        <time>2022-08-25T10:23:07Z</time>
      </trkpt>
      <trkpt lat="42.667006000000136" lon="-1.8531859999999998">
        <ele>451.497</ele>
        <time>2022-08-25T10:23:08Z</time>
      </trkpt>
      <trkpt lat="42.66701400000014" lon="-1.8531989999999998">
        <ele>451.417</ele>
        <time>2022-08-25T10:23:09Z</time>
      </trkpt>
      <trkpt lat="42.66702500000014" lon="-1.8532119999999999">
        <ele>452.047</ele>
        <time>2022-08-25T10:23:10Z</time>
      </trkpt>
      <trkpt lat="42.66703100000014" lon="-1.8532289999999998">
        <ele>452.843</ele>
        <time>2022-08-25T10:23:11Z</time>
      </trkpt>
      <trkpt lat="42.667034000000136" lon="-1.853244">
        <ele>453.085</ele>
        <time>2022-08-25T10:23:12Z</time>
      </trkpt>
      <trkpt lat="42.667037000000136" lon="-1.853254">
        <ele>453.422</ele>
        <time>2022-08-25T10:23:13Z</time>
      </trkpt>
      <trkpt lat="42.667043000000135" lon="-1.8532659999999999">
        <ele>453.465</ele>
        <time>2022-08-25T10:23:14Z</time>
      </trkpt>
      <trkpt lat="42.66705000000013" lon="-1.8532799999999998">
        <ele>453.861</ele>
        <time>2022-08-25T10:23:15Z</time>
      </trkpt>
      <trkpt lat="42.66705800000013" lon="-1.8532899999999999">
        <ele>454.092</ele>
        <time>2022-08-25T10:23:16Z</time>
      </trkpt>
      <trkpt lat="42.66706700000013" lon="-1.8532989999999998">
        <ele>454.616</ele>
        <time>2022-08-25T10:23:17Z</time>
      </trkpt>
      <trkpt lat="42.66707500000013" lon="-1.8533079999999997">
        <ele>455.076</ele>
        <time>2022-08-25T10:23:18Z</time>
      </trkpt>
      <trkpt lat="42.66708100000013" lon="-1.8533159999999997">
        <ele>455.413</ele>
        <time>2022-08-25T10:23:19Z</time>
      </trkpt>
      <trkpt lat="42.66708900000013" lon="-1.8533279999999996">
        <ele>455.809</ele>
        <time>2022-08-25T10:23:20Z</time>
      </trkpt>
      <trkpt lat="42.66709700000013" lon="-1.8533379999999997">
        <ele>456.282</ele>
        <time>2022-08-25T10:23:21Z</time>
      </trkpt>
      <trkpt lat="42.66710400000013" lon="-1.8533489999999997">
        <ele>456.812</ele>
        <time>2022-08-25T10:23:22Z</time>
      </trkpt>
      <trkpt lat="42.66711200000013" lon="-1.8533619999999997">
        <ele>457.042</ele>
        <time>2022-08-25T10:23:23Z</time>
      </trkpt>
      <trkpt lat="42.66711700000013" lon="-1.8533729999999997">
        <ele>457.268</ele>
        <time>2022-08-25T10:23:24Z</time>
      </trkpt>
      <trkpt lat="42.66712400000013" lon="-1.8533889999999997">
        <ele>457.440</ele>
        <time>2022-08-25T10:23:25Z</time>
      </trkpt>
      <trkpt lat="42.66713300000013" lon="-1.8533989999999998">
        <ele>457.667</ele>
        <time>2022-08-25T10:23:26Z</time>
      </trkpt>
      <trkpt lat="42.66714100000013" lon="-1.8534129999999998">
        <ele>457.850</ele>
        <time>2022-08-25T10:23:27Z</time>
      </trkpt>
      <trkpt lat="42.667148000000125" lon="-1.8534239999999997">
        <ele>458.076</ele>
        <time>2022-08-25T10:23:28Z</time>
      </trkpt>
      <trkpt lat="42.66715500000012" lon="-1.8534359999999996">
        <ele>458.477</ele>
        <time>2022-08-25T10:23:29Z</time>
      </trkpt>
      <trkpt lat="42.66716100000012" lon="-1.8534459999999997">
        <ele>459.068</ele>
        <time>2022-08-25T10:23:30Z</time>
      </trkpt>
      <trkpt lat="42.66716700000012" lon="-1.8534579999999996">
        <ele>459.242</ele>
        <time>2022-08-25T10:23:31Z</time>
      </trkpt>
      <trkpt lat="42.66717300000012" lon="-1.8534769999999996">
        <ele>459.426</ele>
        <time>2022-08-25T10:23:32Z</time>
      </trkpt>
      <trkpt lat="42.66717900000012" lon="-1.8534919999999997">
        <ele>459.409</ele>
        <time>2022-08-25T10:23:33Z</time>
      </trkpt>
      <trkpt lat="42.66718400000012" lon="-1.8535029999999997">
        <ele>459.817</ele>
        <time>2022-08-25T10:23:34Z</time>
      </trkpt>
      <trkpt lat="42.66718900000012" lon="-1.8535169999999996">
        <ele>460.037</ele>
        <time>2022-08-25T10:23:35Z</time>
      </trkpt>
      <trkpt lat="42.66718700000012" lon="-1.8535309999999996">
        <ele>460.057</ele>
        <time>2022-08-25T10:23:36Z</time>
      </trkpt>
      <trkpt lat="42.66718600000012" lon="-1.8535489999999997">
        <ele>460.253</ele>
        <time>2022-08-25T10:23:37Z</time>
      </trkpt>
      <trkpt lat="42.667188000000124" lon="-1.8535649999999997">
        <ele>460.445</ele>
        <time>2022-08-25T10:23:38Z</time>
      </trkpt>
      <trkpt lat="42.667193000000125" lon="-1.8535789999999996">
        <ele>460.472</ele>
        <time>2022-08-25T10:23:39Z</time>
      </trkpt>
      <trkpt lat="42.66719700000012" lon="-1.8535909999999995">
        <ele>460.625</ele>
        <time>2022-08-25T10:23:40Z</time>
      </trkpt>
      <trkpt lat="42.667202000000124" lon="-1.8536059999999996">
        <ele>460.621</ele>
        <time>2022-08-25T10:23:41Z</time>
      </trkpt>
      <trkpt lat="42.667207000000126" lon="-1.8536259999999996">
        <ele>460.832</ele>
        <time>2022-08-25T10:23:42Z</time>
      </trkpt>
      <trkpt lat="42.667210000000125" lon="-1.8536409999999997">
        <ele>460.845</ele>
        <time>2022-08-25T10:23:43Z</time>
      </trkpt>
      <trkpt lat="42.66721200000013" lon="-1.8536539999999997">
        <ele>461.047</ele>
        <time>2022-08-25T10:23:44Z</time>
      </trkpt>
      <trkpt lat="42.667216000000124" lon="-1.8536679999999996">
        <ele>461.011</ele>
        <time>2022-08-25T10:23:45Z</time>
      </trkpt>
      <trkpt lat="42.667216000000124" lon="-1.8536849999999996">
        <ele>461.009</ele>
        <time>2022-08-25T10:23:46Z</time>
      </trkpt>
      <trkpt lat="42.66722000000012" lon="-1.8536999999999997">
        <ele>461.255</ele>
        <time>2022-08-25T10:23:47Z</time>
      </trkpt>
      <trkpt lat="42.66722400000012" lon="-1.8537169999999996">
        <ele>461.065</ele>
        <time>2022-08-25T10:23:48Z</time>
      </trkpt>
      <trkpt lat="42.66722900000012" lon="-1.8537329999999996">
        <ele>461.285</ele>
        <time>2022-08-25T10:23:49Z</time>
      </trkpt>
      <trkpt lat="42.66723400000012" lon="-1.8537469999999996">
        <ele>461.491</ele>
        <time>2022-08-25T10:23:50Z</time>
      </trkpt>
      <trkpt lat="42.66724100000012" lon="-1.8537679999999996">
        <ele>461.683</ele>
        <time>2022-08-25T10:23:51Z</time>
      </trkpt>
      <trkpt lat="42.667248000000114" lon="-1.8537899999999996">
        <ele>461.670</ele>
        <time>2022-08-25T10:23:52Z</time>
      </trkpt>
      <trkpt lat="42.66725800000012" lon="-1.8538149999999995">
        <ele>461.633</ele>
        <time>2022-08-25T10:23:53Z</time>
      </trkpt>
      <trkpt lat="42.667262000000115" lon="-1.8538299999999996">
        <ele>461.829</ele>
        <time>2022-08-25T10:23:54Z</time>
      </trkpt>
      <trkpt lat="42.667265000000114" lon="-1.8538439999999996">
        <ele>462.020</ele>
        <time>2022-08-25T10:23:55Z</time>
      </trkpt>
      <trkpt lat="42.667267000000116" lon="-1.8538579999999996">
        <ele>462.056</ele>
        <time>2022-08-25T10:23:56Z</time>
      </trkpt>
      <trkpt lat="42.66727200000012" lon="-1.8538739999999996">
        <ele>462.259</ele>
        <time>2022-08-25T10:23:57Z</time>
      </trkpt>
      <trkpt lat="42.66727500000012" lon="-1.8538889999999997">
        <ele>462.214</ele>
        <time>2022-08-25T10:23:58Z</time>
      </trkpt>
      <trkpt lat="42.667281000000116" lon="-1.8539099999999997">
        <ele>462.409</ele>
        <time>2022-08-25T10:23:59Z</time>
      </trkpt>
      <trkpt lat="42.667287000000115" lon="-1.8539269999999997">
        <ele>462.446</ele>
        <time>2022-08-25T10:24:00Z</time>
      </trkpt>
      <trkpt lat="42.667290000000115" lon="-1.8539389999999996">
        <ele>462.436</ele>
        <time>2022-08-25T10:24:01Z</time>
      </trkpt>
      <trkpt lat="42.66729400000011" lon="-1.8539539999999997">
        <ele>462.486</ele>
        <time>2022-08-25T10:24:02Z</time>
      </trkpt>
      <trkpt lat="42.667296000000114" lon="-1.8539689999999998">
        <ele>462.422</ele>
        <time>2022-08-25T10:24:03Z</time>
      </trkpt>
      <trkpt lat="42.66729900000011" lon="-1.8539879999999997">
        <ele>462.654</ele>
        <time>2022-08-25T10:24:04Z</time>
      </trkpt>
      <trkpt lat="42.66730300000011" lon="-1.8540059999999998">
        <ele>462.621</ele>
        <time>2022-08-25T10:24:05Z</time>
      </trkpt>
      <trkpt lat="42.66730700000011" lon="-1.8540219999999998">
        <ele>462.664</ele>
        <time>2022-08-25T10:24:06Z</time>
      </trkpt>
      <trkpt lat="42.66730900000011" lon="-1.8540339999999997">
        <ele>462.810</ele>
        <time>2022-08-25T10:24:07Z</time>
      </trkpt>
      <trkpt lat="42.66731500000011" lon="-1.8540509999999997">
        <ele>462.861</ele>
        <time>2022-08-25T10:24:08Z</time>
      </trkpt>
      <trkpt lat="42.66732000000011" lon="-1.8540649999999996">
        <ele>462.843</ele>
        <time>2022-08-25T10:24:09Z</time>
      </trkpt>
      <trkpt lat="42.66732300000011" lon="-1.8540809999999996">
        <ele>462.864</ele>
        <time>2022-08-25T10:24:10Z</time>
      </trkpt>
      <trkpt lat="42.66732600000011" lon="-1.8540979999999996">
        <ele>463.010</ele>
        <time>2022-08-25T10:24:11Z</time>
      </trkpt>
      <trkpt lat="42.66734000000011" lon="-1.8541649999999996">
        <ele>463.209</ele>
        <time>2022-08-25T10:24:15Z</time>
      </trkpt>
      <trkpt lat="42.66734400000011" lon="-1.8541799999999997">
        <ele>463.235</ele>
        <time>2022-08-25T10:24:16Z</time>
      </trkpt>
      <trkpt lat="42.6673480000001" lon="-1.8541929999999998">
        <ele>463.215</ele>
        <time>2022-08-25T10:24:17Z</time>
      </trkpt>
      <trkpt lat="42.6673740000001" lon="-1.8542849999999997">
        <ele>463.425</ele>
        <time>2022-08-25T10:24:22Z</time>
      </trkpt>
      <trkpt lat="42.6673780000001" lon="-1.8543049999999996">
        <ele>463.671</ele>
        <time>2022-08-25T10:24:23Z</time>
      </trkpt>
      <trkpt lat="42.6674050000001" lon="-1.8544279999999997">
        <ele>463.823</ele>
        <time>2022-08-25T10:24:27Z</time>
      </trkpt>
      <trkpt lat="42.667443000000105" lon="-1.8546299999999998">
        <ele>464.460</ele>
        <time>2022-08-25T10:24:33Z</time>
      </trkpt>
      <trkpt lat="42.6674500000001" lon="-1.8546639999999999">
        <ele>464.643</ele>
        <time>2022-08-25T10:24:34Z</time>
      </trkpt>
      <trkpt lat="42.6674650000001" lon="-1.8547379999999998">
        <ele>464.839</ele>
        <time>2022-08-25T10:24:36Z</time>
      </trkpt>
      <trkpt lat="42.6674710000001" lon="-1.8547619999999998">
        <ele>465.010</ele>
        <time>2022-08-25T10:24:37Z</time>
      </trkpt>
      <trkpt lat="42.6674770000001" lon="-1.8547909999999999">
        <ele>465.273</ele>
        <time>2022-08-25T10:24:38Z</time>
      </trkpt>
      <trkpt lat="42.6674830000001" lon="-1.8548179999999999">
        <ele>465.485</ele>
        <time>2022-08-25T10:24:39Z</time>
      </trkpt>
      <trkpt lat="42.6674910000001" lon="-1.854844">
        <ele>465.613</ele>
        <time>2022-08-25T10:24:40Z</time>
      </trkpt>
      <trkpt lat="42.6674990000001" lon="-1.8548689999999999">
        <ele>465.809</ele>
        <time>2022-08-25T10:24:41Z</time>
      </trkpt>
      <trkpt lat="42.6675070000001" lon="-1.8548969999999998">
        <ele>466.048</ele>
        <time>2022-08-25T10:24:42Z</time>
      </trkpt>
      <trkpt lat="42.6675110000001" lon="-1.8549209999999998">
        <ele>466.028</ele>
        <time>2022-08-25T10:24:43Z</time>
      </trkpt>
      <trkpt lat="42.667515000000094" lon="-1.8549399999999998">
        <ele>466.058</ele>
        <time>2022-08-25T10:24:44Z</time>
      </trkpt>
      <trkpt lat="42.66751900000009" lon="-1.8549639999999998">
        <ele>466.064</ele>
        <time>2022-08-25T10:24:45Z</time>
      </trkpt>
      <trkpt lat="42.66752200000009" lon="-1.85499">
        <ele>466.046</ele>
        <time>2022-08-25T10:24:46Z</time>
      </trkpt>
      <trkpt lat="42.66753100000009" lon="-1.85502">
        <ele>466.233</ele>
        <time>2022-08-25T10:24:47Z</time>
      </trkpt>
      <trkpt lat="42.66754100000009" lon="-1.8550419999999999">
        <ele>466.246</ele>
        <time>2022-08-25T10:24:48Z</time>
      </trkpt>
      <trkpt lat="42.66754700000009" lon="-1.8550579999999999">
        <ele>466.632</ele>
        <time>2022-08-25T10:24:49Z</time>
      </trkpt>
      <trkpt lat="42.66755200000009" lon="-1.8550799999999998">
        <ele>466.813</ele>
        <time>2022-08-25T10:24:50Z</time>
      </trkpt>
      <trkpt lat="42.667557000000095" lon="-1.8551039999999999">
        <ele>467.237</ele>
        <time>2022-08-25T10:24:51Z</time>
      </trkpt>
      <trkpt lat="42.667562000000096" lon="-1.855133">
        <ele>467.249</ele>
        <time>2022-08-25T10:24:52Z</time>
      </trkpt>
      <trkpt lat="42.66756900000009" lon="-1.855154">
        <ele>467.213</ele>
        <time>2022-08-25T10:24:53Z</time>
      </trkpt>
      <trkpt lat="42.66757600000009" lon="-1.855176">
        <ele>467.409</ele>
        <time>2022-08-25T10:24:54Z</time>
      </trkpt>
      <trkpt lat="42.66758100000009" lon="-1.855198">
        <ele>467.494</ele>
        <time>2022-08-25T10:24:55Z</time>
      </trkpt>
      <trkpt lat="42.66758400000009" lon="-1.855216">
        <ele>467.494</ele>
        <time>2022-08-25T10:24:56Z</time>
      </trkpt>
      <trkpt lat="42.66759200000009" lon="-1.855243">
        <ele>467.634</ele>
        <time>2022-08-25T10:24:57Z</time>
      </trkpt>
      <trkpt lat="42.66759800000009" lon="-1.855264">
        <ele>467.640</ele>
        <time>2022-08-25T10:24:58Z</time>
      </trkpt>
      <trkpt lat="42.66760400000009" lon="-1.8552870000000001">
        <ele>467.612</ele>
        <time>2022-08-25T10:24:59Z</time>
      </trkpt>
      <trkpt lat="42.66760700000009" lon="-1.855304">
        <ele>467.879</ele>
        <time>2022-08-25T10:25:00Z</time>
      </trkpt>
      <trkpt lat="42.66760900000009" lon="-1.855326">
        <ele>467.852</ele>
        <time>2022-08-25T10:25:01Z</time>
      </trkpt>
      <trkpt lat="42.66761400000009" lon="-1.855347">
        <ele>467.858</ele>
        <time>2022-08-25T10:25:02Z</time>
      </trkpt>
      <trkpt lat="42.667624000000096" lon="-1.8553680000000001">
        <ele>468.089</ele>
        <time>2022-08-25T10:25:03Z</time>
      </trkpt>
      <trkpt lat="42.6676320000001" lon="-1.855382">
        <ele>468.064</ele>
        <time>2022-08-25T10:25:04Z</time>
      </trkpt>
      <trkpt lat="42.667639000000094" lon="-1.8554000000000002">
        <ele>468.006</ele>
        <time>2022-08-25T10:25:05Z</time>
      </trkpt>
      <trkpt lat="42.66764300000009" lon="-1.8554180000000002">
        <ele>468.016</ele>
        <time>2022-08-25T10:25:06Z</time>
      </trkpt>
      <trkpt lat="42.66764900000009" lon="-1.8554460000000002">
        <ele>468.209</ele>
        <time>2022-08-25T10:25:07Z</time>
      </trkpt>
      <trkpt lat="42.667656000000086" lon="-1.855482">
        <ele>468.237</ele>
        <time>2022-08-25T10:25:08Z</time>
      </trkpt>
      <trkpt lat="42.66766400000009" lon="-1.855513">
        <ele>468.227</ele>
        <time>2022-08-25T10:25:09Z</time>
      </trkpt>
      <trkpt lat="42.667671000000084" lon="-1.8555409999999999">
        <ele>468.247</ele>
        <time>2022-08-25T10:25:10Z</time>
      </trkpt>
      <trkpt lat="42.66767400000008" lon="-1.8555609999999998">
        <ele>468.453</ele>
        <time>2022-08-25T10:25:11Z</time>
      </trkpt>
      <trkpt lat="42.66768000000008" lon="-1.8555869999999999">
        <ele>468.645</ele>
        <time>2022-08-25T10:25:12Z</time>
      </trkpt>
      <trkpt lat="42.667685000000084" lon="-1.85561">
        <ele>468.872</ele>
        <time>2022-08-25T10:25:13Z</time>
      </trkpt>
      <trkpt lat="42.66769800000009" lon="-1.855664">
        <ele>469.055</ele>
        <time>2022-08-25T10:25:16Z</time>
      </trkpt>
      <trkpt lat="42.66769700000009" lon="-1.855677">
        <ele>469.041</ele>
        <time>2022-08-25T10:25:17Z</time>
      </trkpt>
      <trkpt lat="42.66769400000009" lon="-1.855685">
        <ele>469.292</ele>
        <time>2022-08-25T10:25:18Z</time>
      </trkpt>
      <trkpt lat="42.66768900000009" lon="-1.855693">
        <ele>469.264</ele>
        <time>2022-08-25T10:25:19Z</time>
      </trkpt>
      <trkpt lat="42.66768000000009" lon="-1.855704">
        <ele>469.206</ele>
        <time>2022-08-25T10:25:20Z</time>
      </trkpt>
      <trkpt lat="42.66767400000009" lon="-1.855708">
        <ele>469.216</ele>
        <time>2022-08-25T10:25:21Z</time>
      </trkpt>
      <trkpt lat="42.66767000000009" lon="-1.8557109999999999">
        <ele>469.209</ele>
        <time>2022-08-25T10:25:22Z</time>
      </trkpt>
      <trkpt lat="42.667664000000094" lon="-1.855683">
        <ele>469.047</ele>
        <time>2022-08-25T10:31:26Z</time>
      </trkpt>
      <trkpt lat="42.6676770000001" lon="-1.855708">
        <ele>469.057</ele>
        <time>2022-08-25T10:31:28Z</time>
      </trkpt>
      <trkpt lat="42.6676900000001" lon="-1.855727">
        <ele>469.277</ele>
        <time>2022-08-25T10:31:29Z</time>
      </trkpt>
      <trkpt lat="42.6677250000001" lon="-1.855799">
        <ele>469.423</ele>
        <time>2022-08-25T10:31:32Z</time>
      </trkpt>
      <trkpt lat="42.667734000000095" lon="-1.855823">
        <ele>469.485</ele>
        <time>2022-08-25T10:31:33Z</time>
      </trkpt>
      <trkpt lat="42.66774100000009" lon="-1.855847">
        <ele>469.462</ele>
        <time>2022-08-25T10:31:34Z</time>
      </trkpt>
      <trkpt lat="42.66774900000009" lon="-1.855873">
        <ele>469.695</ele>
        <time>2022-08-25T10:31:35Z</time>
      </trkpt>
      <trkpt lat="42.667757000000094" lon="-1.8558990000000002">
        <ele>469.831</ele>
        <time>2022-08-25T10:31:36Z</time>
      </trkpt>
      <trkpt lat="42.66776900000009" lon="-1.8559700000000001">
        <ele>470.052</ele>
        <time>2022-08-25T10:31:39Z</time>
      </trkpt>
      <trkpt lat="42.66777200000009" lon="-1.8559970000000001">
        <ele>470.038</ele>
        <time>2022-08-25T10:31:40Z</time>
      </trkpt>
      <trkpt lat="42.667771000000094" lon="-1.8560230000000002">
        <ele>470.070</ele>
        <time>2022-08-25T10:31:41Z</time>
      </trkpt>
      <trkpt lat="42.667776000000096" lon="-1.856089">
        <ele>470.217</ele>
        <time>2022-08-25T10:31:43Z</time>
      </trkpt>
      <trkpt lat="42.667810000000095" lon="-1.856306">
        <ele>469.809</ele>
        <time>2022-08-25T10:31:47Z</time>
      </trkpt>
      <trkpt lat="42.667835000000096" lon="-1.856449">
        <ele>468.844</ele>
        <time>2022-08-25T10:31:49Z</time>
      </trkpt>
      <trkpt lat="42.6678900000001" lon="-1.856677">
        <ele>467.874</ele>
        <time>2022-08-25T10:31:52Z</time>
      </trkpt>
      <trkpt lat="42.6679070000001" lon="-1.856755">
        <ele>467.674</ele>
        <time>2022-08-25T10:31:53Z</time>
      </trkpt>
      <trkpt lat="42.6679180000001" lon="-1.8568179999999999">
        <ele>467.680</ele>
        <time>2022-08-25T10:31:54Z</time>
      </trkpt>
      <trkpt lat="42.6679350000001" lon="-1.8569069999999999">
        <ele>467.452</ele>
        <time>2022-08-25T10:31:55Z</time>
      </trkpt>
      <trkpt lat="42.6679480000001" lon="-1.8569749999999998">
        <ele>467.289</ele>
        <time>2022-08-25T10:31:56Z</time>
      </trkpt>
      <trkpt lat="42.6679620000001" lon="-1.857036">
        <ele>467.032</ele>
        <time>2022-08-25T10:31:57Z</time>
      </trkpt>
      <trkpt lat="42.6679790000001" lon="-1.8570939999999998">
        <ele>466.818</ele>
        <time>2022-08-25T10:31:58Z</time>
      </trkpt>
      <trkpt lat="42.6679960000001" lon="-1.8571449999999998">
        <ele>466.449</ele>
        <time>2022-08-25T10:31:59Z</time>
      </trkpt>
      <trkpt lat="42.668012000000104" lon="-1.8571919999999997">
        <ele>466.217</ele>
        <time>2022-08-25T10:32:00Z</time>
      </trkpt>
      <trkpt lat="42.6680240000001" lon="-1.8572329999999997">
        <ele>466.087</ele>
        <time>2022-08-25T10:32:01Z</time>
      </trkpt>
      <trkpt lat="42.6680350000001" lon="-1.8572679999999997">
        <ele>465.815</ele>
        <time>2022-08-25T10:32:02Z</time>
      </trkpt>
      <trkpt lat="42.6680470000001" lon="-1.8572959999999996">
        <ele>465.809</ele>
        <time>2022-08-25T10:32:03Z</time>
      </trkpt>
      <trkpt lat="42.6680580000001" lon="-1.8573189999999997">
        <ele>465.632</ele>
        <time>2022-08-25T10:32:04Z</time>
      </trkpt>
      <trkpt lat="42.6680660000001" lon="-1.8573409999999997">
        <ele>465.622</ele>
        <time>2022-08-25T10:32:05Z</time>
      </trkpt>
      <trkpt lat="42.6680730000001" lon="-1.8573639999999998">
        <ele>465.652</ele>
        <time>2022-08-25T10:32:06Z</time>
      </trkpt>
      <trkpt lat="42.668080000000096" lon="-1.8573889999999997">
        <ele>465.488</ele>
        <time>2022-08-25T10:32:07Z</time>
      </trkpt>
      <trkpt lat="42.66809500000009" lon="-1.8574419999999998">
        <ele>465.620</ele>
        <time>2022-08-25T10:32:09Z</time>
      </trkpt>
      <trkpt lat="42.66811000000009" lon="-1.8574869999999999">
        <ele>465.687</ele>
        <time>2022-08-25T10:32:11Z</time>
      </trkpt>
      <trkpt lat="42.66811700000009" lon="-1.8575069999999998">
        <ele>465.840</ele>
        <time>2022-08-25T10:32:12Z</time>
      </trkpt>
      <trkpt lat="42.66812200000009" lon="-1.8575239999999997">
        <ele>466.076</ele>
        <time>2022-08-25T10:32:13Z</time>
      </trkpt>
      <trkpt lat="42.66812500000009" lon="-1.8575389999999998">
        <ele>466.227</ele>
        <time>2022-08-25T10:32:14Z</time>
      </trkpt>
      <trkpt lat="42.668129000000086" lon="-1.8575549999999998">
        <ele>466.683</ele>
        <time>2022-08-25T10:32:15Z</time>
      </trkpt>
      <trkpt lat="42.668135000000085" lon="-1.8575709999999999">
        <ele>467.025</ele>
        <time>2022-08-25T10:32:16Z</time>
      </trkpt>
      <trkpt lat="42.66813900000008" lon="-1.857589">
        <ele>467.217</ele>
        <time>2022-08-25T10:32:17Z</time>
      </trkpt>
      <trkpt lat="42.66814700000008" lon="-1.857602">
        <ele>467.409</ele>
        <time>2022-08-25T10:32:18Z</time>
      </trkpt>
      <trkpt lat="42.668157000000086" lon="-1.857626">
        <ele>467.679</ele>
        <time>2022-08-25T10:32:20Z</time>
      </trkpt>
      <trkpt lat="42.668157000000086" lon="-1.857636">
        <ele>467.869</ele>
        <time>2022-08-25T10:32:21Z</time>
      </trkpt>
      <trkpt lat="42.66816100000008" lon="-1.857648">
        <ele>467.849</ele>
        <time>2022-08-25T10:32:22Z</time>
      </trkpt>
      <trkpt lat="42.668166000000085" lon="-1.857661">
        <ele>468.035</ele>
        <time>2022-08-25T10:32:23Z</time>
      </trkpt>
      <trkpt lat="42.668171000000086" lon="-1.857674">
        <ele>468.067</ele>
        <time>2022-08-25T10:32:24Z</time>
      </trkpt>
      <trkpt lat="42.66819500000009" lon="-1.857709">
        <ele>468.444</ele>
        <time>2022-08-25T10:32:27Z</time>
      </trkpt>
      <trkpt lat="42.66820300000009" lon="-1.857722">
        <ele>468.827</ele>
        <time>2022-08-25T10:32:28Z</time>
      </trkpt>
      <trkpt lat="42.668213000000094" lon="-1.8577350000000001">
        <ele>468.823</ele>
        <time>2022-08-25T10:32:29Z</time>
      </trkpt>
      <trkpt lat="42.66821900000009" lon="-1.8577480000000002">
        <ele>469.284</ele>
        <time>2022-08-25T10:32:30Z</time>
      </trkpt>
      <trkpt lat="42.668224000000095" lon="-1.8577620000000001">
        <ele>469.469</ele>
        <time>2022-08-25T10:32:31Z</time>
      </trkpt>
      <trkpt lat="42.66823100000009" lon="-1.857774">
        <ele>469.604</ele>
        <time>2022-08-25T10:32:32Z</time>
      </trkpt>
      <trkpt lat="42.66824000000009" lon="-1.857785">
        <ele>469.624</ele>
        <time>2022-08-25T10:32:33Z</time>
      </trkpt>
      <trkpt lat="42.66824800000009" lon="-1.857796">
        <ele>469.609</ele>
        <time>2022-08-25T10:32:34Z</time>
      </trkpt>
      <trkpt lat="42.66825500000009" lon="-1.857808">
        <ele>469.847</ele>
        <time>2022-08-25T10:32:35Z</time>
      </trkpt>
      <trkpt lat="42.668262000000084" lon="-1.8578189999999999">
        <ele>470.067</ele>
        <time>2022-08-25T10:32:36Z</time>
      </trkpt>
      <trkpt lat="42.668270000000085" lon="-1.8578279999999998">
        <ele>470.247</ele>
        <time>2022-08-25T10:32:37Z</time>
      </trkpt>
      <trkpt lat="42.668278000000086" lon="-1.8578389999999998">
        <ele>470.223</ele>
        <time>2022-08-25T10:32:38Z</time>
      </trkpt>
      <trkpt lat="42.66828600000009" lon="-1.8578479999999997">
        <ele>470.645</ele>
        <time>2022-08-25T10:32:39Z</time>
      </trkpt>
      <trkpt lat="42.66829400000009" lon="-1.8578579999999998">
        <ele>471.022</ele>
        <time>2022-08-25T10:32:40Z</time>
      </trkpt>
      <trkpt lat="42.66830200000009" lon="-1.8578689999999998">
        <ele>471.085</ele>
        <time>2022-08-25T10:32:41Z</time>
      </trkpt>
      <trkpt lat="42.66830800000009" lon="-1.8578799999999998">
        <ele>471.291</ele>
        <time>2022-08-25T10:32:42Z</time>
      </trkpt>
      <trkpt lat="42.66831700000009" lon="-1.8578889999999997">
        <ele>471.422</ele>
        <time>2022-08-25T10:32:43Z</time>
      </trkpt>
      <trkpt lat="42.66832500000009" lon="-1.8578969999999997">
        <ele>471.637</ele>
        <time>2022-08-25T10:32:44Z</time>
      </trkpt>
      <trkpt lat="42.66833300000009" lon="-1.8579039999999998">
        <ele>471.849</ele>
        <time>2022-08-25T10:32:45Z</time>
      </trkpt>
      <trkpt lat="42.668340000000086" lon="-1.8579119999999998">
        <ele>471.813</ele>
        <time>2022-08-25T10:32:46Z</time>
      </trkpt>
      <trkpt lat="42.66834800000009" lon="-1.8579219999999999">
        <ele>472.009</ele>
        <time>2022-08-25T10:32:47Z</time>
      </trkpt>
      <trkpt lat="42.668354000000086" lon="-1.8579339999999998">
        <ele>472.284</ele>
        <time>2022-08-25T10:32:48Z</time>
      </trkpt>
      <trkpt lat="42.66836100000008" lon="-1.8579419999999998">
        <ele>472.474</ele>
        <time>2022-08-25T10:32:49Z</time>
      </trkpt>
      <trkpt lat="42.66836700000008" lon="-1.8579529999999997">
        <ele>472.444</ele>
        <time>2022-08-25T10:32:50Z</time>
      </trkpt>
      <trkpt lat="42.66837300000008" lon="-1.8579619999999997">
        <ele>472.620</ele>
        <time>2022-08-25T10:32:51Z</time>
      </trkpt>
      <trkpt lat="42.66838100000008" lon="-1.8579719999999997">
        <ele>472.642</ele>
        <time>2022-08-25T10:32:52Z</time>
      </trkpt>
      <trkpt lat="42.66839000000008" lon="-1.8579799999999997">
        <ele>472.639</ele>
        <time>2022-08-25T10:32:53Z</time>
      </trkpt>
      <trkpt lat="42.66839900000008" lon="-1.8579879999999998">
        <ele>472.842</ele>
        <time>2022-08-25T10:32:54Z</time>
      </trkpt>
      <trkpt lat="42.668406000000076" lon="-1.8579969999999997">
        <ele>472.898</ele>
        <time>2022-08-25T10:32:55Z</time>
      </trkpt>
      <trkpt lat="42.668412000000075" lon="-1.8580079999999997">
        <ele>473.049</ele>
        <time>2022-08-25T10:32:56Z</time>
      </trkpt>
      <trkpt lat="42.668420000000076" lon="-1.8580199999999996">
        <ele>473.034</ele>
        <time>2022-08-25T10:32:57Z</time>
      </trkpt>
      <trkpt lat="42.668429000000074" lon="-1.8580299999999996">
        <ele>473.055</ele>
        <time>2022-08-25T10:32:58Z</time>
      </trkpt>
      <trkpt lat="42.66843800000007" lon="-1.8580429999999997">
        <ele>473.210</ele>
        <time>2022-08-25T10:32:59Z</time>
      </trkpt>
      <trkpt lat="42.66844500000007" lon="-1.8580559999999997">
        <ele>473.209</ele>
        <time>2022-08-25T10:33:00Z</time>
      </trkpt>
      <trkpt lat="42.66845000000007" lon="-1.8580709999999998">
        <ele>473.264</ele>
        <time>2022-08-25T10:33:01Z</time>
      </trkpt>
      <trkpt lat="42.66845500000007" lon="-1.8580889999999999">
        <ele>473.234</ele>
        <time>2022-08-25T10:33:02Z</time>
      </trkpt>
      <trkpt lat="42.668460000000074" lon="-1.858105">
        <ele>473.424</ele>
        <time>2022-08-25T10:33:03Z</time>
      </trkpt>
      <trkpt lat="42.66846600000007" lon="-1.8581219999999998">
        <ele>473.430</ele>
        <time>2022-08-25T10:33:04Z</time>
      </trkpt>
      <trkpt lat="42.66847600000008" lon="-1.85814">
        <ele>473.462</ele>
        <time>2022-08-25T10:33:05Z</time>
      </trkpt>
      <trkpt lat="42.66848700000008" lon="-1.8581569999999998">
        <ele>473.419</ele>
        <time>2022-08-25T10:33:06Z</time>
      </trkpt>
      <trkpt lat="42.66849700000008" lon="-1.858175">
        <ele>473.432</ele>
        <time>2022-08-25T10:33:07Z</time>
      </trkpt>
      <trkpt lat="42.66850800000008" lon="-1.8581949999999998">
        <ele>473.488</ele>
        <time>2022-08-25T10:33:08Z</time>
      </trkpt>
      <trkpt lat="42.66851600000008" lon="-1.8582199999999998">
        <ele>473.489</ele>
        <time>2022-08-25T10:33:09Z</time>
      </trkpt>
      <trkpt lat="42.66852700000008" lon="-1.8582449999999997">
        <ele>473.471</ele>
        <time>2022-08-25T10:33:10Z</time>
      </trkpt>
      <trkpt lat="42.66853900000008" lon="-1.8582729999999996">
        <ele>473.441</ele>
        <time>2022-08-25T10:33:11Z</time>
      </trkpt>
      <trkpt lat="42.66862200000008" lon="-1.8584429999999996">
        <ele>473.015</ele>
        <time>2022-08-25T10:33:16Z</time>
      </trkpt>
      <trkpt lat="42.668662000000076" lon="-1.8585289999999997">
        <ele>473.009</ele>
        <time>2022-08-25T10:33:18Z</time>
      </trkpt>
      <trkpt lat="42.66874300000008" lon="-1.8586619999999996">
        <ele>472.658</ele>
        <time>2022-08-25T10:33:21Z</time>
      </trkpt>
      <trkpt lat="42.66880400000008" lon="-1.8587499999999997">
        <ele>472.288</ele>
        <time>2022-08-25T10:33:23Z</time>
      </trkpt>
      <trkpt lat="42.668825000000076" lon="-1.8587999999999998">
        <ele>472.248</ele>
        <time>2022-08-25T10:33:24Z</time>
      </trkpt>
      <trkpt lat="42.668837000000075" lon="-1.8588519999999997">
        <ele>471.874</ele>
        <time>2022-08-25T10:33:25Z</time>
      </trkpt>
      <trkpt lat="42.66884400000007" lon="-1.8588999999999998">
        <ele>471.896</ele>
        <time>2022-08-25T10:33:26Z</time>
      </trkpt>
      <trkpt lat="42.66884800000007" lon="-1.8589339999999999">
        <ele>471.473</ele>
        <time>2022-08-25T10:33:27Z</time>
      </trkpt>
      <trkpt lat="42.66884800000007" lon="-1.8589609999999999">
        <ele>471.286</ele>
        <time>2022-08-25T10:33:28Z</time>
      </trkpt>
      <trkpt lat="42.66885100000007" lon="-1.8589829999999998">
        <ele>471.072</ele>
        <time>2022-08-25T10:33:29Z</time>
      </trkpt>
      <trkpt lat="42.668855000000065" lon="-1.8589999999999998">
        <ele>470.893</ele>
        <time>2022-08-25T10:33:30Z</time>
      </trkpt>
      <trkpt lat="42.668858000000064" lon="-1.8590169999999997">
        <ele>470.877</ele>
        <time>2022-08-25T10:33:31Z</time>
      </trkpt>
      <trkpt lat="42.66886400000006" lon="-1.8590389999999997">
        <ele>470.261</ele>
        <time>2022-08-25T10:33:32Z</time>
      </trkpt>
      <trkpt lat="42.668886000000064" lon="-1.8590929999999997">
        <ele>470.027</ele>
        <time>2022-08-25T10:33:34Z</time>
      </trkpt>
      <trkpt lat="42.66892300000006" lon="-1.8591309999999996">
        <ele>469.809</ele>
        <time>2022-08-25T10:33:36Z</time>
      </trkpt>
      <trkpt lat="42.66894300000006" lon="-1.8591499999999996">
        <ele>469.878</ele>
        <time>2022-08-25T10:33:37Z</time>
      </trkpt>
      <trkpt lat="42.66896300000006" lon="-1.8591669999999996">
        <ele>469.848</ele>
        <time>2022-08-25T10:33:38Z</time>
      </trkpt>
      <trkpt lat="42.66900000000006" lon="-1.8592059999999995">
        <ele>469.888</ele>
        <time>2022-08-25T10:33:40Z</time>
      </trkpt>
      <trkpt lat="42.66904500000006" lon="-1.8592769999999994">
        <ele>469.494</ele>
        <time>2022-08-25T10:33:43Z</time>
      </trkpt>
      <trkpt lat="42.669055000000064" lon="-1.8592999999999995">
        <ele>469.446</ele>
        <time>2022-08-25T10:33:44Z</time>
      </trkpt>
      <trkpt lat="42.66906500000007" lon="-1.8593229999999996">
        <ele>469.423</ele>
        <time>2022-08-25T10:33:45Z</time>
      </trkpt>
      <trkpt lat="42.669072000000064" lon="-1.8593469999999996">
        <ele>469.496</ele>
        <time>2022-08-25T10:33:46Z</time>
      </trkpt>
      <trkpt lat="42.66907800000006" lon="-1.8593709999999997">
        <ele>469.232</ele>
        <time>2022-08-25T10:33:47Z</time>
      </trkpt>
      <trkpt lat="42.66909000000006" lon="-1.8593909999999996">
        <ele>469.053</ele>
        <time>2022-08-25T10:33:48Z</time>
      </trkpt>
      <trkpt lat="42.66910500000006" lon="-1.8594089999999996">
        <ele>468.847</ele>
        <time>2022-08-25T10:33:49Z</time>
      </trkpt>
      <trkpt lat="42.66912900000006" lon="-1.8594239999999997">
        <ele>468.629</ele>
        <time>2022-08-25T10:33:50Z</time>
      </trkpt>
      <trkpt lat="42.669159000000064" lon="-1.8594309999999998">
        <ele>468.421</ele>
        <time>2022-08-25T10:33:51Z</time>
      </trkpt>
      <trkpt lat="42.66919100000006" lon="-1.8594359999999999">
        <ele>468.409</ele>
        <time>2022-08-25T10:33:52Z</time>
      </trkpt>
      <trkpt lat="42.66922300000006" lon="-1.8594359999999999">
        <ele>468.245</ele>
        <time>2022-08-25T10:33:53Z</time>
      </trkpt>
      <trkpt lat="42.66924900000006" lon="-1.859433">
        <ele>468.035</ele>
        <time>2022-08-25T10:33:54Z</time>
      </trkpt>
      <trkpt lat="42.669275000000056" lon="-1.8594279999999999">
        <ele>468.015</ele>
        <time>2022-08-25T10:33:55Z</time>
      </trkpt>
      <trkpt lat="42.66929900000006" lon="-1.8594249999999999">
        <ele>468.091</ele>
        <time>2022-08-25T10:33:56Z</time>
      </trkpt>
      <trkpt lat="42.669320000000056" lon="-1.8594309999999998">
        <ele>468.093</ele>
        <time>2022-08-25T10:33:57Z</time>
      </trkpt>
      <trkpt lat="42.66933500000005" lon="-1.8594419999999998">
        <ele>468.010</ele>
        <time>2022-08-25T10:33:58Z</time>
      </trkpt>
      <trkpt lat="42.669343000000055" lon="-1.8594519999999999">
        <ele>468.013</ele>
        <time>2022-08-25T10:33:59Z</time>
      </trkpt>
      <trkpt lat="42.66935200000005" lon="-1.85947">
        <ele>468.079</ele>
        <time>2022-08-25T10:34:01Z</time>
      </trkpt>
      <trkpt lat="42.66935800000005" lon="-1.859494">
        <ele>468.020</ele>
        <time>2022-08-25T10:34:03Z</time>
      </trkpt>
      <trkpt lat="42.669337000000056" lon="-1.859564">
        <ele>467.028</ele>
        <time>2022-08-25T10:53:39Z</time>
      </trkpt>
      <trkpt lat="42.669303000000056" lon="-1.859685">
        <ele>466.289</ele>
        <time>2022-08-25T10:53:44Z</time>
      </trkpt>
      <trkpt lat="42.66930500000006" lon="-1.859707">
        <ele>466.017</ele>
        <time>2022-08-25T10:53:45Z</time>
      </trkpt>
      <trkpt lat="42.66929600000006" lon="-1.859722">
        <ele>465.409</ele>
        <time>2022-08-25T10:53:46Z</time>
      </trkpt>
      <trkpt lat="42.66927900000006" lon="-1.8597270000000001">
        <ele>465.483</ele>
        <time>2022-08-25T10:53:47Z</time>
      </trkpt>
      <trkpt lat="42.66926300000006" lon="-1.859706">
        <ele>465.053</ele>
        <time>2022-08-25T10:53:49Z</time>
      </trkpt>
      <trkpt lat="42.66926800000006" lon="-1.859699">
        <ele>465.033</ele>
        <time>2022-08-25T10:53:50Z</time>
      </trkpt>
      <trkpt lat="42.66927800000006" lon="-1.859699">
        <ele>465.049</ele>
        <time>2022-08-25T10:53:51Z</time>
      </trkpt>
      <trkpt lat="42.66929300000006" lon="-1.8597">
        <ele>465.051</ele>
        <time>2022-08-25T10:53:52Z</time>
      </trkpt>
      <trkpt lat="42.66931900000006" lon="-1.859696">
        <ele>465.218</ele>
        <time>2022-08-25T10:53:54Z</time>
      </trkpt>
      <trkpt lat="42.66932500000006" lon="-1.859696">
        <ele>465.261</ele>
        <time>2022-08-25T10:53:55Z</time>
      </trkpt>
      <trkpt lat="42.669332000000054" lon="-1.859695">
        <ele>465.227</ele>
        <time>2022-08-25T10:53:56Z</time>
      </trkpt>
      <trkpt lat="42.66933500000005" lon="-1.859688">
        <ele>465.478</ele>
        <time>2022-08-25T10:53:57Z</time>
      </trkpt>
      <trkpt lat="42.66933300000005" lon="-1.859683">
        <ele>465.434</ele>
        <time>2022-08-25T10:53:58Z</time>
      </trkpt>
      <trkpt lat="42.66933300000005" lon="-1.85968">
        <ele>465.655</ele>
        <time>2022-08-25T10:53:59Z</time>
      </trkpt>
      <trkpt lat="42.66934000000005" lon="-1.85967">
        <ele>465.810</ele>
        <time>2022-08-25T10:54:00Z</time>
      </trkpt>
      <trkpt lat="42.66934900000005" lon="-1.859657">
        <ele>465.809</ele>
        <time>2022-08-25T10:54:01Z</time>
      </trkpt>
      <trkpt lat="42.66936000000005" lon="-1.8596419999999998">
        <ele>466.244</ele>
        <time>2022-08-25T10:54:03Z</time>
      </trkpt>
      <trkpt lat="42.66936500000005" lon="-1.8596359999999998">
        <ele>466.224</ele>
        <time>2022-08-25T10:54:04Z</time>
      </trkpt>
      <trkpt lat="42.66937000000005" lon="-1.859632">
        <ele>466.434</ele>
        <time>2022-08-25T10:54:05Z</time>
      </trkpt>
      <trkpt lat="42.66932300000005" lon="-1.859685">
        <ele>466.640</ele>
        <time>2022-08-25T11:01:23Z</time>
      </trkpt>
      <trkpt lat="42.669296000000045" lon="-1.859737">
        <ele>466.442</ele>
        <time>2022-08-25T11:01:25Z</time>
      </trkpt>
      <trkpt lat="42.669291000000044" lon="-1.859783">
        <ele>466.439</ele>
        <time>2022-08-25T11:01:26Z</time>
      </trkpt>
      <trkpt lat="42.66929200000004" lon="-1.859837">
        <ele>466.232</ele>
        <time>2022-08-25T11:01:27Z</time>
      </trkpt>
      <trkpt lat="42.66929200000004" lon="-1.8598949999999999">
        <ele>466.048</ele>
        <time>2022-08-25T11:01:28Z</time>
      </trkpt>
      <trkpt lat="42.66928900000004" lon="-1.8599519999999998">
        <ele>465.879</ele>
        <time>2022-08-25T11:01:29Z</time>
      </trkpt>
      <trkpt lat="42.66928300000004" lon="-1.8600639999999997">
        <ele>465.271</ele>
        <time>2022-08-25T11:01:31Z</time>
      </trkpt>
      <trkpt lat="42.66927800000004" lon="-1.8601159999999997">
        <ele>464.641</ele>
        <time>2022-08-25T11:01:32Z</time>
      </trkpt>
      <trkpt lat="42.66925800000004" lon="-1.8602719999999997">
        <ele>463.815</ele>
        <time>2022-08-25T11:01:35Z</time>
      </trkpt>
      <trkpt lat="42.66924900000004" lon="-1.8603259999999997">
        <ele>463.609</ele>
        <time>2022-08-25T11:01:36Z</time>
      </trkpt>
      <trkpt lat="42.66923800000004" lon="-1.8603799999999997">
        <ele>463.048</ele>
        <time>2022-08-25T11:01:37Z</time>
      </trkpt>
      <trkpt lat="42.669226000000045" lon="-1.8604299999999998">
        <ele>462.848</ele>
        <time>2022-08-25T11:01:38Z</time>
      </trkpt>
      <trkpt lat="42.66921100000005" lon="-1.8604749999999999">
        <ele>462.428</ele>
        <time>2022-08-25T11:01:39Z</time>
      </trkpt>
      <trkpt lat="42.669198000000044" lon="-1.8605219999999998">
        <ele>462.214</ele>
        <time>2022-08-25T11:01:40Z</time>
      </trkpt>
      <trkpt lat="42.66919000000004" lon="-1.8605739999999997">
        <ele>462.086</ele>
        <time>2022-08-25T11:01:41Z</time>
      </trkpt>
      <trkpt lat="42.66918300000005" lon="-1.8606829999999996">
        <ele>461.683</ele>
        <time>2022-08-25T11:01:43Z</time>
      </trkpt>
      <trkpt lat="42.669181000000044" lon="-1.8607349999999996">
        <ele>460.896</ele>
        <time>2022-08-25T11:01:44Z</time>
      </trkpt>
      <trkpt lat="42.66917300000004" lon="-1.8607799999999997">
        <ele>460.432</ele>
        <time>2022-08-25T11:01:45Z</time>
      </trkpt>
      <trkpt lat="42.66916200000004" lon="-1.8608229999999997">
        <ele>459.693</ele>
        <time>2022-08-25T11:01:46Z</time>
      </trkpt>
      <trkpt lat="42.669156000000044" lon="-1.8608639999999996">
        <ele>459.074</ele>
        <time>2022-08-25T11:01:47Z</time>
      </trkpt>
      <trkpt lat="42.66915400000004" lon="-1.8609049999999996">
        <ele>458.856</ele>
        <time>2022-08-25T11:01:48Z</time>
      </trkpt>
      <trkpt lat="42.66915500000004" lon="-1.8609319999999996">
        <ele>458.421</ele>
        <time>2022-08-25T11:01:49Z</time>
      </trkpt>
      <trkpt lat="42.66915400000004" lon="-1.8609679999999995">
        <ele>458.009</ele>
        <time>2022-08-25T11:01:50Z</time>
      </trkpt>
      <trkpt lat="42.66915500000004" lon="-1.8610059999999995">
        <ele>457.868</ele>
        <time>2022-08-25T11:01:51Z</time>
      </trkpt>
      <trkpt lat="42.66915000000004" lon="-1.8610419999999994">
        <ele>457.848</ele>
        <time>2022-08-25T11:01:52Z</time>
      </trkpt>
      <trkpt lat="42.66915000000004" lon="-1.8610859999999994">
        <ele>457.448</ele>
        <time>2022-08-25T11:01:53Z</time>
      </trkpt>
      <trkpt lat="42.669151000000035" lon="-1.8611189999999993">
        <ele>456.824</ele>
        <time>2022-08-25T11:01:54Z</time>
      </trkpt>
      <trkpt lat="42.66915500000003" lon="-1.8611509999999993">
        <ele>456.676</ele>
        <time>2022-08-25T11:01:55Z</time>
      </trkpt>
      <trkpt lat="42.66916300000003" lon="-1.8612579999999994">
        <ele>455.653</ele>
        <time>2022-08-25T11:01:58Z</time>
      </trkpt>
      <trkpt lat="42.66916400000003" lon="-1.8612799999999994">
        <ele>455.486</ele>
        <time>2022-08-25T11:01:59Z</time>
      </trkpt>
      <trkpt lat="42.66916700000003" lon="-1.8613439999999994">
        <ele>454.682</ele>
        <time>2022-08-25T11:02:01Z</time>
      </trkpt>
      <trkpt lat="42.66917700000003" lon="-1.8614219999999995">
        <ele>454.073</ele>
        <time>2022-08-25T11:02:03Z</time>
      </trkpt>
      <trkpt lat="42.669171000000034" lon="-1.8614989999999996">
        <ele>453.616</ele>
        <time>2022-08-25T11:02:05Z</time>
      </trkpt>
      <trkpt lat="42.66916000000003" lon="-1.8615409999999997">
        <ele>453.476</ele>
        <time>2022-08-25T11:02:06Z</time>
      </trkpt>
      <trkpt lat="42.669159000000036" lon="-1.8615629999999996">
        <ele>453.013</ele>
        <time>2022-08-25T11:02:07Z</time>
      </trkpt>
      <trkpt lat="42.669143000000034" lon="-1.8616279999999996">
        <ele>452.209</ele>
        <time>2022-08-25T11:02:09Z</time>
      </trkpt>
      <trkpt lat="42.669027000000035" lon="-1.8618619999999997">
        <ele>451.272</ele>
        <time>2022-08-25T11:02:15Z</time>
      </trkpt>
      <trkpt lat="42.668977000000034" lon="-1.8619319999999997">
        <ele>450.882</ele>
        <time>2022-08-25T11:02:17Z</time>
      </trkpt>
      <trkpt lat="42.66895000000003" lon="-1.8620269999999997">
        <ele>450.642</ele>
        <time>2022-08-25T11:02:19Z</time>
      </trkpt>
      <trkpt lat="42.66894400000003" lon="-1.8620729999999996">
        <ele>450.438</ele>
        <time>2022-08-25T11:02:20Z</time>
      </trkpt>
      <trkpt lat="42.66893900000003" lon="-1.8621169999999996">
        <ele>450.460</ele>
        <time>2022-08-25T11:02:21Z</time>
      </trkpt>
      <trkpt lat="42.66894000000003" lon="-1.8621549999999996">
        <ele>450.287</ele>
        <time>2022-08-25T11:02:22Z</time>
      </trkpt>
      <trkpt lat="42.668944000000025" lon="-1.8621809999999996">
        <ele>450.220</ele>
        <time>2022-08-25T11:02:23Z</time>
      </trkpt>
      <trkpt lat="42.66894800000002" lon="-1.8621979999999996">
        <ele>450.066</ele>
        <time>2022-08-25T11:02:24Z</time>
      </trkpt>
      <trkpt lat="42.66895700000002" lon="-1.8622079999999996">
        <ele>450.027</ele>
        <time>2022-08-25T11:02:25Z</time>
      </trkpt>
      <trkpt lat="42.66897100000002" lon="-1.8622119999999995">
        <ele>449.823</ele>
        <time>2022-08-25T11:02:26Z</time>
      </trkpt>
      <trkpt lat="42.66898600000002" lon="-1.8622199999999995">
        <ele>449.883</ele>
        <time>2022-08-25T11:02:27Z</time>
      </trkpt>
      <trkpt lat="42.669001000000016" lon="-1.8622229999999995">
        <ele>449.811</ele>
        <time>2022-08-25T11:02:28Z</time>
      </trkpt>
      <trkpt lat="42.66902500000002" lon="-1.8622209999999995">
        <ele>449.609</ele>
        <time>2022-08-25T11:02:30Z</time>
      </trkpt>
      <trkpt lat="42.66903900000002" lon="-1.8622139999999994">
        <ele>449.463</ele>
        <time>2022-08-25T11:02:32Z</time>
      </trkpt>
      <trkpt lat="42.66905200000002" lon="-1.8622239999999994">
        <ele>449.293</ele>
        <time>2022-08-25T11:02:33Z</time>
      </trkpt>
      <trkpt lat="42.669071000000024" lon="-1.8622389999999995">
        <ele>449.413</ele>
        <time>2022-08-25T11:02:34Z</time>
      </trkpt>
      <trkpt lat="42.669084000000026" lon="-1.8622459999999996">
        <ele>449.279</ele>
        <time>2022-08-25T11:02:35Z</time>
      </trkpt>
      <trkpt lat="42.66909800000003" lon="-1.8622519999999996">
        <ele>449.251</ele>
        <time>2022-08-25T11:02:36Z</time>
      </trkpt>
      <trkpt lat="42.66910900000003" lon="-1.8622599999999996">
        <ele>449.268</ele>
        <time>2022-08-25T11:02:37Z</time>
      </trkpt>
      <trkpt lat="42.66911900000003" lon="-1.8622709999999996">
        <ele>449.081</ele>
        <time>2022-08-25T11:02:38Z</time>
      </trkpt>
      <trkpt lat="42.66913100000003" lon="-1.8622849999999995">
        <ele>449.077</ele>
        <time>2022-08-25T11:02:39Z</time>
      </trkpt>
      <trkpt lat="42.66914700000003" lon="-1.8622969999999994">
        <ele>449.058</ele>
        <time>2022-08-25T11:02:40Z</time>
      </trkpt>
      <trkpt lat="42.66917600000003" lon="-1.8623169999999993">
        <ele>448.825</ele>
        <time>2022-08-25T11:02:42Z</time>
      </trkpt>
      <trkpt lat="42.66918700000003" lon="-1.8623369999999992">
        <ele>449.026</ele>
        <time>2022-08-25T11:02:43Z</time>
      </trkpt>
      <trkpt lat="42.66919000000003" lon="-1.8623519999999993">
        <ele>449.008</ele>
        <time>2022-08-25T11:02:44Z</time>
      </trkpt>
      <trkpt lat="42.66919000000003" lon="-1.8623679999999994">
        <ele>449.209</ele>
        <time>2022-08-25T11:02:45Z</time>
      </trkpt>
      <trkpt lat="42.66918700000003" lon="-1.8623799999999993">
        <ele>449.253</ele>
        <time>2022-08-25T11:02:46Z</time>
      </trkpt>
      <trkpt lat="42.66913000000003" lon="-1.8623889999999992">
        <ele>449.243</ele>
        <time>2022-08-25T11:02:49Z</time>
      </trkpt>
      <trkpt lat="42.66910700000003" lon="-1.8623959999999993">
        <ele>449.223</ele>
        <time>2022-08-25T11:02:50Z</time>
      </trkpt>
      <trkpt lat="42.66908400000003" lon="-1.8624059999999993">
        <ele>449.259</ele>
        <time>2022-08-25T11:02:51Z</time>
      </trkpt>
      <trkpt lat="42.66906300000004" lon="-1.8624159999999994">
        <ele>449.421</ele>
        <time>2022-08-25T11:02:52Z</time>
      </trkpt>
      <trkpt lat="42.66899400000003" lon="-1.8624419999999995">
        <ele>449.268</ele>
        <time>2022-08-25T11:02:55Z</time>
      </trkpt>
      <trkpt lat="42.668976000000036" lon="-1.8624789999999996">
        <ele>449.021</ele>
        <time>2022-08-25T11:02:57Z</time>
      </trkpt>
      <trkpt lat="42.668962000000036" lon="-1.8625069999999995">
        <ele>449.047</ele>
        <time>2022-08-25T11:02:58Z</time>
      </trkpt>
      <trkpt lat="42.66894400000004" lon="-1.8625549999999995">
        <ele>449.048</ele>
        <time>2022-08-25T11:02:59Z</time>
      </trkpt>
      <trkpt lat="42.66893700000004" lon="-1.8625989999999994">
        <ele>449.019</ele>
        <time>2022-08-25T11:03:00Z</time>
      </trkpt>
      <trkpt lat="42.668936000000045" lon="-1.8626419999999995">
        <ele>449.009</ele>
        <time>2022-08-25T11:03:01Z</time>
      </trkpt>
      <trkpt lat="42.66893700000004" lon="-1.8626809999999994">
        <ele>448.819</ele>
        <time>2022-08-25T11:03:02Z</time>
      </trkpt>
      <trkpt lat="42.668936000000045" lon="-1.8627169999999993">
        <ele>448.809</ele>
        <time>2022-08-25T11:03:03Z</time>
      </trkpt>
      <trkpt lat="42.668936000000045" lon="-1.8627499999999992">
        <ele>448.812</ele>
        <time>2022-08-25T11:03:04Z</time>
      </trkpt>
      <trkpt lat="42.66893800000005" lon="-1.8627819999999993">
        <ele>448.832</ele>
        <time>2022-08-25T11:03:05Z</time>
      </trkpt>
      <trkpt lat="42.66893500000005" lon="-1.8628149999999992">
        <ele>448.832</ele>
        <time>2022-08-25T11:03:06Z</time>
      </trkpt>
      <trkpt lat="42.668933000000045" lon="-1.8628499999999992">
        <ele>448.888</ele>
        <time>2022-08-25T11:03:07Z</time>
      </trkpt>
      <trkpt lat="42.668928000000044" lon="-1.8629829999999992">
        <ele>449.030</ele>
        <time>2022-08-25T11:03:11Z</time>
      </trkpt>
      <trkpt lat="42.668922000000045" lon="-1.8630779999999991">
        <ele>449.087</ele>
        <time>2022-08-25T11:03:14Z</time>
      </trkpt>
      <trkpt lat="42.66891800000005" lon="-1.8631039999999992">
        <ele>449.080</ele>
        <time>2022-08-25T11:03:15Z</time>
      </trkpt>
      <trkpt lat="42.66891100000005" lon="-1.8631219999999993">
        <ele>449.036</ele>
        <time>2022-08-25T11:03:16Z</time>
      </trkpt>
      <trkpt lat="42.66890800000005" lon="-1.8631339999999992">
        <ele>449.087</ele>
        <time>2022-08-25T11:03:17Z</time>
      </trkpt>
      <trkpt lat="42.66890600000005" lon="-1.8631439999999992">
        <ele>449.032</ele>
        <time>2022-08-25T11:03:19Z</time>
      </trkpt>
      <trkpt lat="42.66890600000005" lon="-1.8631499999999992">
        <ele>449.092</ele>
        <time>2022-08-25T11:03:20Z</time>
      </trkpt>
      <trkpt lat="42.66891100000005" lon="-1.8631819999999992">
        <ele>448.811</ele>
        <time>2022-08-25T11:03:30Z</time>
      </trkpt>
      <trkpt lat="42.66891400000005" lon="-1.8632069999999992">
        <ele>448.809</ele>
        <time>2022-08-25T11:03:31Z</time>
      </trkpt>
      <trkpt lat="42.66890900000005" lon="-1.8632469999999992">
        <ele>448.844</ele>
        <time>2022-08-25T11:03:33Z</time>
      </trkpt>
      <trkpt lat="42.66890900000005" lon="-1.863250999999999">
        <ele>448.884</ele>
        <time>2022-08-25T11:03:40Z</time>
      </trkpt>
      <trkpt lat="42.66890900000005" lon="-1.863250999999999">
        <ele>448.864</ele>
        <time>2022-08-25T11:03:41Z</time>
      </trkpt>
      <trkpt lat="42.66888700000005" lon="-1.863310999999999">
        <ele>448.660</ele>
        <time>2022-08-25T11:03:45Z</time>
      </trkpt>
      <trkpt lat="42.66886700000005" lon="-1.863330999999999">
        <ele>448.612</ele>
        <time>2022-08-25T11:03:46Z</time>
      </trkpt>
      <trkpt lat="42.66884800000005" lon="-1.8633889999999989">
        <ele>448.619</ele>
        <time>2022-08-25T11:03:48Z</time>
      </trkpt>
      <trkpt lat="42.66885300000005" lon="-1.863425999999999">
        <ele>448.632</ele>
        <time>2022-08-25T11:03:49Z</time>
      </trkpt>
      <trkpt lat="42.66886100000005" lon="-1.863462999999999">
        <ele>448.628</ele>
        <time>2022-08-25T11:03:50Z</time>
      </trkpt>
      <trkpt lat="42.66886900000005" lon="-1.8634939999999989">
        <ele>448.639</ele>
        <time>2022-08-25T11:03:51Z</time>
      </trkpt>
      <trkpt lat="42.66887300000005" lon="-1.863522999999999">
        <ele>448.686</ele>
        <time>2022-08-25T11:03:52Z</time>
      </trkpt>
      <trkpt lat="42.668880000000044" lon="-1.863548999999999">
        <ele>448.660</ele>
        <time>2022-08-25T11:03:53Z</time>
      </trkpt>
      <trkpt lat="42.66888600000004" lon="-1.863569999999999">
        <ele>448.626</ele>
        <time>2022-08-25T11:03:54Z</time>
      </trkpt>
      <trkpt lat="42.668891000000045" lon="-1.8635959999999991">
        <ele>448.609</ele>
        <time>2022-08-25T11:03:55Z</time>
      </trkpt>
      <trkpt lat="42.668888000000045" lon="-1.863615999999999">
        <ele>448.669</ele>
        <time>2022-08-25T11:03:56Z</time>
      </trkpt>
      <trkpt lat="42.66888600000004" lon="-1.863620999999999">
        <ele>448.649</ele>
        <time>2022-08-25T11:03:57Z</time>
      </trkpt>
      <trkpt lat="42.66886900000004" lon="-1.863626999999999">
        <ele>448.439</ele>
        <time>2022-08-25T11:04:04Z</time>
      </trkpt>
      <trkpt lat="42.66886900000004" lon="-1.863626999999999">
        <ele>448.265</ele>
        <time>2022-08-25T11:04:05Z</time>
      </trkpt>
      <trkpt lat="42.66886100000004" lon="-1.863654999999999">
        <ele>448.247</ele>
        <time>2022-08-25T11:04:07Z</time>
      </trkpt>
      <trkpt lat="42.66886200000004" lon="-1.863662999999999">
        <ele>448.484</ele>
        <time>2022-08-25T11:04:08Z</time>
      </trkpt>
      <trkpt lat="42.66886500000004" lon="-1.8636669999999989">
        <ele>448.447</ele>
        <time>2022-08-25T11:04:09Z</time>
      </trkpt>
      <trkpt lat="42.66886500000004" lon="-1.8636669999999989">
        <ele>448.433</ele>
        <time>2022-08-25T11:04:10Z</time>
      </trkpt>
      <trkpt lat="42.66886500000004" lon="-1.8636669999999989">
        <ele>448.244</ele>
        <time>2022-08-25T11:04:11Z</time>
      </trkpt>
      <trkpt lat="42.66886300000004" lon="-1.8636679999999988">
        <ele>448.268</ele>
        <time>2022-08-25T11:04:12Z</time>
      </trkpt>
      <trkpt lat="42.668839000000034" lon="-1.8636789999999988">
        <ele>448.442</ele>
        <time>2022-08-25T11:04:13Z</time>
      </trkpt>
      <trkpt lat="42.66876900000003" lon="-1.8637029999999988">
        <ele>448.426</ele>
        <time>2022-08-25T11:04:16Z</time>
      </trkpt>
      <trkpt lat="42.66877000000003" lon="-1.8637299999999988">
        <ele>448.409</ele>
        <time>2022-08-25T11:04:17Z</time>
      </trkpt>
      <trkpt lat="42.66877100000003" lon="-1.8637579999999987">
        <ele>448.427</ele>
        <time>2022-08-25T11:04:18Z</time>
      </trkpt>
      <trkpt lat="42.66877400000003" lon="-1.8637879999999987">
        <ele>448.417</ele>
        <time>2022-08-25T11:04:19Z</time>
      </trkpt>
      <trkpt lat="42.66877100000003" lon="-1.8638469999999987">
        <ele>448.467</ele>
        <time>2022-08-25T11:04:20Z</time>
      </trkpt>
      <trkpt lat="42.66876200000003" lon="-1.8638779999999986">
        <ele>448.483</ele>
        <time>2022-08-25T11:04:21Z</time>
      </trkpt>
      <trkpt lat="42.66875300000003" lon="-1.8639009999999987">
        <ele>448.465</ele>
        <time>2022-08-25T11:04:22Z</time>
      </trkpt>
      <trkpt lat="42.66875300000003" lon="-1.8639119999999987">
        <ele>448.462</ele>
        <time>2022-08-25T11:04:23Z</time>
      </trkpt>
      <trkpt lat="42.66875200000003" lon="-1.8639189999999988">
        <ele>448.455</ele>
        <time>2022-08-25T11:04:24Z</time>
      </trkpt>
      <trkpt lat="42.66875200000003" lon="-1.8639259999999989">
        <ele>448.461</ele>
        <time>2022-08-25T11:04:25Z</time>
      </trkpt>
      <trkpt lat="42.668754000000035" lon="-1.8639269999999988">
        <ele>448.472</ele>
        <time>2022-08-25T11:04:26Z</time>
      </trkpt>
      <trkpt lat="42.668748000000036" lon="-1.8639369999999988">
        <ele>448.465</ele>
        <time>2022-08-25T11:04:29Z</time>
      </trkpt>
      <trkpt lat="42.668712000000035" lon="-1.864013999999999">
        <ele>448.468</ele>
        <time>2022-08-25T11:04:33Z</time>
      </trkpt>
      <trkpt lat="42.66870700000003" lon="-1.8640449999999988">
        <ele>448.414</ele>
        <time>2022-08-25T11:04:34Z</time>
      </trkpt>
      <trkpt lat="42.66871100000003" lon="-1.8641919999999987">
        <ele>448.409</ele>
        <time>2022-08-25T11:04:38Z</time>
      </trkpt>
      <trkpt lat="42.66872000000003" lon="-1.8643049999999988">
        <ele>448.647</ele>
        <time>2022-08-25T11:04:41Z</time>
      </trkpt>
      <trkpt lat="42.66873300000003" lon="-1.8643649999999987">
        <ele>448.877</ele>
        <time>2022-08-25T11:04:42Z</time>
      </trkpt>
      <trkpt lat="42.668746000000034" lon="-1.8644029999999987">
        <ele>448.867</ele>
        <time>2022-08-25T11:04:43Z</time>
      </trkpt>
      <trkpt lat="42.66875900000004" lon="-1.8644319999999988">
        <ele>448.873</ele>
        <time>2022-08-25T11:04:44Z</time>
      </trkpt>
      <trkpt lat="42.66876400000004" lon="-1.8644689999999988">
        <ele>448.885</ele>
        <time>2022-08-25T11:04:45Z</time>
      </trkpt>
      <trkpt lat="42.66877200000004" lon="-1.8645059999999989">
        <ele>449.052</ele>
        <time>2022-08-25T11:04:46Z</time>
      </trkpt>
      <trkpt lat="42.66876900000004" lon="-1.8645329999999989">
        <ele>449.015</ele>
        <time>2022-08-25T11:04:47Z</time>
      </trkpt>
      <trkpt lat="42.66875700000004" lon="-1.8645519999999989">
        <ele>449.021</ele>
        <time>2022-08-25T11:04:48Z</time>
      </trkpt>
      <trkpt lat="42.66873300000004" lon="-1.8645789999999989">
        <ele>449.022</ele>
        <time>2022-08-25T11:04:49Z</time>
      </trkpt>
      <trkpt lat="42.66872500000004" lon="-1.864607999999999">
        <ele>449.268</ele>
        <time>2022-08-25T11:04:50Z</time>
      </trkpt>
      <trkpt lat="42.66872100000004" lon="-1.8646389999999988">
        <ele>449.242</ele>
        <time>2022-08-25T11:04:51Z</time>
      </trkpt>
      <trkpt lat="42.66871900000004" lon="-1.8646699999999987">
        <ele>449.226</ele>
        <time>2022-08-25T11:04:52Z</time>
      </trkpt>
      <trkpt lat="42.66871800000004" lon="-1.8647029999999987">
        <ele>449.209</ele>
        <time>2022-08-25T11:04:53Z</time>
      </trkpt>
      <trkpt lat="42.668714000000044" lon="-1.8648859999999987">
        <ele>449.047</ele>
        <time>2022-08-25T11:04:57Z</time>
      </trkpt>
      <trkpt lat="42.66873200000004" lon="-1.8651639999999987">
        <ele>448.887</ele>
        <time>2022-08-25T11:05:03Z</time>
      </trkpt>
      <trkpt lat="42.66873700000004" lon="-1.8652099999999987">
        <ele>448.867</ele>
        <time>2022-08-25T11:05:04Z</time>
      </trkpt>
      <trkpt lat="42.66874000000004" lon="-1.8652559999999987">
        <ele>448.893</ele>
        <time>2022-08-25T11:05:05Z</time>
      </trkpt>
      <trkpt lat="42.668742000000044" lon="-1.8652999999999986">
        <ele>448.645</ele>
        <time>2022-08-25T11:05:06Z</time>
      </trkpt>
      <trkpt lat="42.668745000000044" lon="-1.8653439999999986">
        <ele>448.642</ele>
        <time>2022-08-25T11:05:07Z</time>
      </trkpt>
      <trkpt lat="42.66875100000004" lon="-1.8653869999999986">
        <ele>448.685</ele>
        <time>2022-08-25T11:05:08Z</time>
      </trkpt>
      <trkpt lat="42.66875800000004" lon="-1.8654279999999985">
        <ele>448.661</ele>
        <time>2022-08-25T11:05:09Z</time>
      </trkpt>
      <trkpt lat="42.668765000000036" lon="-1.8654699999999986">
        <ele>448.662</ele>
        <time>2022-08-25T11:05:10Z</time>
      </trkpt>
      <trkpt lat="42.668774000000035" lon="-1.8655559999999987">
        <ele>448.662</ele>
        <time>2022-08-25T11:05:12Z</time>
      </trkpt>
      <trkpt lat="42.66877800000003" lon="-1.8655999999999986">
        <ele>448.683</ele>
        <time>2022-08-25T11:05:13Z</time>
      </trkpt>
      <trkpt lat="42.66878300000003" lon="-1.8656409999999986">
        <ele>448.611</ele>
        <time>2022-08-25T11:05:14Z</time>
      </trkpt>
      <trkpt lat="42.668788000000035" lon="-1.8656829999999986">
        <ele>448.809</ele>
        <time>2022-08-25T11:05:15Z</time>
      </trkpt>
      <trkpt lat="42.668794000000034" lon="-1.8657239999999986">
        <ele>448.887</ele>
        <time>2022-08-25T11:05:16Z</time>
      </trkpt>
      <trkpt lat="42.66880000000003" lon="-1.8657619999999986">
        <ele>448.897</ele>
        <time>2022-08-25T11:05:17Z</time>
      </trkpt>
      <trkpt lat="42.668805000000035" lon="-1.8657999999999986">
        <ele>448.847</ele>
        <time>2022-08-25T11:05:18Z</time>
      </trkpt>
      <trkpt lat="42.668811000000034" lon="-1.8658329999999985">
        <ele>449.093</ele>
        <time>2022-08-25T11:05:19Z</time>
      </trkpt>
      <trkpt lat="42.66881700000003" lon="-1.8658669999999986">
        <ele>449.065</ele>
        <time>2022-08-25T11:05:20Z</time>
      </trkpt>
      <trkpt lat="42.668822000000034" lon="-1.8659029999999985">
        <ele>449.232</ele>
        <time>2022-08-25T11:05:21Z</time>
      </trkpt>
      <trkpt lat="42.66882600000003" lon="-1.8659399999999986">
        <ele>449.295</ele>
        <time>2022-08-25T11:05:22Z</time>
      </trkpt>
      <trkpt lat="42.66883000000003" lon="-1.8659749999999986">
        <ele>449.471</ele>
        <time>2022-08-25T11:05:23Z</time>
      </trkpt>
      <trkpt lat="42.66883500000003" lon="-1.8660089999999987">
        <ele>449.462</ele>
        <time>2022-08-25T11:05:24Z</time>
      </trkpt>
      <trkpt lat="42.66884100000003" lon="-1.8660429999999988">
        <ele>449.647</ele>
        <time>2022-08-25T11:05:25Z</time>
      </trkpt>
      <trkpt lat="42.66885300000003" lon="-1.8661109999999987">
        <ele>449.829</ele>
        <time>2022-08-25T11:05:27Z</time>
      </trkpt>
      <trkpt lat="42.668859000000026" lon="-1.8661429999999988">
        <ele>450.021</ele>
        <time>2022-08-25T11:05:28Z</time>
      </trkpt>
      <trkpt lat="42.66886700000003" lon="-1.8662099999999988">
        <ele>450.209</ele>
        <time>2022-08-25T11:05:30Z</time>
      </trkpt>
      <trkpt lat="42.66886900000003" lon="-1.8662419999999988">
        <ele>450.225</ele>
        <time>2022-08-25T11:05:31Z</time>
      </trkpt>
      <trkpt lat="42.66887200000003" lon="-1.866270999999999">
        <ele>450.255</ele>
        <time>2022-08-25T11:05:32Z</time>
      </trkpt>
      <trkpt lat="42.66887500000003" lon="-1.866299999999999">
        <ele>450.425</ele>
        <time>2022-08-25T11:05:33Z</time>
      </trkpt>
      <trkpt lat="42.66887800000003" lon="-1.8663309999999989">
        <ele>450.681</ele>
        <time>2022-08-25T11:05:34Z</time>
      </trkpt>
      <trkpt lat="42.66889200000003" lon="-1.8664199999999989">
        <ele>450.873</ele>
        <time>2022-08-25T11:05:37Z</time>
      </trkpt>
      <trkpt lat="42.66889700000003" lon="-1.8664469999999989">
        <ele>451.080</ele>
        <time>2022-08-25T11:05:38Z</time>
      </trkpt>
      <trkpt lat="42.66890100000003" lon="-1.866475999999999">
        <ele>451.233</ele>
        <time>2022-08-25T11:05:39Z</time>
      </trkpt>
      <trkpt lat="42.66890300000003" lon="-1.8665059999999989">
        <ele>451.259</ele>
        <time>2022-08-25T11:05:40Z</time>
      </trkpt>
      <trkpt lat="42.668907000000026" lon="-1.866534999999999">
        <ele>451.240</ele>
        <time>2022-08-25T11:05:41Z</time>
      </trkpt>
      <trkpt lat="42.668913000000025" lon="-1.866560999999999">
        <ele>451.459</ele>
        <time>2022-08-25T11:05:42Z</time>
      </trkpt>
      <trkpt lat="42.668918000000026" lon="-1.866586999999999">
        <ele>451.403</ele>
        <time>2022-08-25T11:05:43Z</time>
      </trkpt>
      <trkpt lat="42.66892300000003" lon="-1.8666129999999992">
        <ele>451.423</ele>
        <time>2022-08-25T11:05:44Z</time>
      </trkpt>
      <trkpt lat="42.668930000000024" lon="-1.8666899999999993">
        <ele>451.609</ele>
        <time>2022-08-25T11:05:47Z</time>
      </trkpt>
      <trkpt lat="42.66893400000002" lon="-1.8667719999999992">
        <ele>452.246</ele>
        <time>2022-08-25T11:05:50Z</time>
      </trkpt>
      <trkpt lat="42.66893600000002" lon="-1.8667989999999992">
        <ele>452.426</ele>
        <time>2022-08-25T11:05:51Z</time>
      </trkpt>
      <trkpt lat="42.66894300000002" lon="-1.8668489999999993">
        <ele>453.036</ele>
        <time>2022-08-25T11:05:53Z</time>
      </trkpt>
      <trkpt lat="42.66894600000002" lon="-1.8668719999999994">
        <ele>453.072</ele>
        <time>2022-08-25T11:05:54Z</time>
      </trkpt>
      <trkpt lat="42.66895100000002" lon="-1.8668959999999994">
        <ele>453.074</ele>
        <time>2022-08-25T11:05:55Z</time>
      </trkpt>
      <trkpt lat="42.66895300000002" lon="-1.8669199999999995">
        <ele>453.261</ele>
        <time>2022-08-25T11:05:56Z</time>
      </trkpt>
      <trkpt lat="42.668955000000025" lon="-1.8669429999999996">
        <ele>453.614</ele>
        <time>2022-08-25T11:05:57Z</time>
      </trkpt>
      <trkpt lat="42.66895900000002" lon="-1.8669669999999996">
        <ele>453.890</ele>
        <time>2022-08-25T11:05:58Z</time>
      </trkpt>
      <trkpt lat="42.66896300000002" lon="-1.8669909999999996">
        <ele>453.851</ele>
        <time>2022-08-25T11:05:59Z</time>
      </trkpt>
      <trkpt lat="42.66896500000002" lon="-1.8670139999999997">
        <ele>454.255</ele>
        <time>2022-08-25T11:06:00Z</time>
      </trkpt>
      <trkpt lat="42.66897000000002" lon="-1.8670389999999997">
        <ele>454.207</ele>
        <time>2022-08-25T11:06:01Z</time>
      </trkpt>
      <trkpt lat="42.66897400000002" lon="-1.8670639999999996">
        <ele>454.417</ele>
        <time>2022-08-25T11:06:02Z</time>
      </trkpt>
      <trkpt lat="42.66897800000002" lon="-1.8670859999999996">
        <ele>454.409</ele>
        <time>2022-08-25T11:06:03Z</time>
      </trkpt>
      <trkpt lat="42.668982000000014" lon="-1.8671089999999997">
        <ele>454.676</ele>
        <time>2022-08-25T11:06:04Z</time>
      </trkpt>
      <trkpt lat="42.66898600000001" lon="-1.8671339999999996">
        <ele>454.626</ele>
        <time>2022-08-25T11:06:05Z</time>
      </trkpt>
      <trkpt lat="42.66899000000001" lon="-1.8671579999999997">
        <ele>454.856</ele>
        <time>2022-08-25T11:06:06Z</time>
      </trkpt>
      <trkpt lat="42.66899500000001" lon="-1.8671819999999997">
        <ele>455.072</ele>
        <time>2022-08-25T11:06:07Z</time>
      </trkpt>
      <trkpt lat="42.66899800000001" lon="-1.8672029999999997">
        <ele>455.094</ele>
        <time>2022-08-25T11:06:08Z</time>
      </trkpt>
      <trkpt lat="42.66899900000001" lon="-1.8672259999999998">
        <ele>455.441</ele>
        <time>2022-08-25T11:06:09Z</time>
      </trkpt>
      <trkpt lat="42.66900100000001" lon="-1.867249">
        <ele>455.654</ele>
        <time>2022-08-25T11:06:10Z</time>
      </trkpt>
      <trkpt lat="42.66900300000001" lon="-1.867273">
        <ele>455.820</ele>
        <time>2022-08-25T11:06:11Z</time>
      </trkpt>
      <trkpt lat="42.66900600000001" lon="-1.867296">
        <ele>456.081</ele>
        <time>2022-08-25T11:06:12Z</time>
      </trkpt>
      <trkpt lat="42.66901100000001" lon="-1.867318">
        <ele>456.073</ele>
        <time>2022-08-25T11:06:13Z</time>
      </trkpt>
      <trkpt lat="42.66901600000001" lon="-1.867343">
        <ele>456.285</ele>
        <time>2022-08-25T11:06:14Z</time>
      </trkpt>
      <trkpt lat="42.669021000000015" lon="-1.867366">
        <ele>456.213</ele>
        <time>2022-08-25T11:06:15Z</time>
      </trkpt>
      <trkpt lat="42.669027000000014" lon="-1.86739">
        <ele>456.209</ele>
        <time>2022-08-25T11:06:16Z</time>
      </trkpt>
      <trkpt lat="42.66903100000001" lon="-1.8674140000000001">
        <ele>456.268</ele>
        <time>2022-08-25T11:06:17Z</time>
      </trkpt>
      <trkpt lat="42.66903600000001" lon="-1.8674400000000002">
        <ele>456.458</ele>
        <time>2022-08-25T11:06:18Z</time>
      </trkpt>
      <trkpt lat="42.66904000000001" lon="-1.8674670000000002">
        <ele>456.488</ele>
        <time>2022-08-25T11:06:19Z</time>
      </trkpt>
      <trkpt lat="42.66904400000001" lon="-1.8674960000000003">
        <ele>456.454</ele>
        <time>2022-08-25T11:06:20Z</time>
      </trkpt>
      <trkpt lat="42.669045000000004" lon="-1.8675220000000003">
        <ele>456.496</ele>
        <time>2022-08-25T11:06:21Z</time>
      </trkpt>
      <trkpt lat="42.669046" lon="-1.8675480000000004">
        <ele>456.663</ele>
        <time>2022-08-25T11:06:22Z</time>
      </trkpt>
      <trkpt lat="42.669049" lon="-1.8675750000000004">
        <ele>456.686</ele>
        <time>2022-08-25T11:06:23Z</time>
      </trkpt>
      <trkpt lat="42.669055" lon="-1.8676010000000005">
        <ele>456.612</ele>
        <time>2022-08-25T11:06:24Z</time>
      </trkpt>
      <trkpt lat="42.669064" lon="-1.8676290000000004">
        <ele>456.633</ele>
        <time>2022-08-25T11:06:25Z</time>
      </trkpt>
      <trkpt lat="42.669077" lon="-1.8676560000000004">
        <ele>456.698</ele>
        <time>2022-08-25T11:06:26Z</time>
      </trkpt>
      <trkpt lat="42.669090000000004" lon="-1.8676860000000004">
        <ele>456.615</ele>
        <time>2022-08-25T11:06:27Z</time>
      </trkpt>
      <trkpt lat="42.669102" lon="-1.8677280000000005">
        <ele>456.626</ele>
        <time>2022-08-25T11:06:28Z</time>
      </trkpt>
      <trkpt lat="42.669109" lon="-1.8677600000000005">
        <ele>456.609</ele>
        <time>2022-08-25T11:06:29Z</time>
      </trkpt>
      <trkpt lat="42.669114" lon="-1.8678080000000006">
        <ele>456.610</ele>
        <time>2022-08-25T11:06:30Z</time>
      </trkpt>
      <trkpt lat="42.669126" lon="-1.8678620000000006">
        <ele>456.690</ele>
        <time>2022-08-25T11:06:31Z</time>
      </trkpt>
      <trkpt lat="42.669183" lon="-1.8680360000000005">
        <ele>456.440</ele>
        <time>2022-08-25T11:06:34Z</time>
      </trkpt>
      <trkpt lat="42.669334" lon="-1.8685200000000004">
        <ele>455.456</ele>
        <time>2022-08-25T11:06:41Z</time>
      </trkpt>
      <trkpt lat="42.669368" lon="-1.8686790000000004">
        <ele>454.448</ele>
        <time>2022-08-25T11:06:43Z</time>
      </trkpt>
      <trkpt lat="42.669384" lon="-1.8687600000000004">
        <ele>454.295</ele>
        <time>2022-08-25T11:06:44Z</time>
      </trkpt>
      <trkpt lat="42.669401" lon="-1.8688580000000004">
        <ele>453.838</ele>
        <time>2022-08-25T11:06:45Z</time>
      </trkpt>
      <trkpt lat="42.669411000000004" lon="-1.8689220000000004">
        <ele>453.844</ele>
        <time>2022-08-25T11:06:46Z</time>
      </trkpt>
      <trkpt lat="42.66942100000001" lon="-1.8689980000000004">
        <ele>453.695</ele>
        <time>2022-08-25T11:06:47Z</time>
      </trkpt>
      <trkpt lat="42.669427000000006" lon="-1.8690690000000003">
        <ele>453.213</ele>
        <time>2022-08-25T11:06:48Z</time>
      </trkpt>
      <trkpt lat="42.669427000000006" lon="-1.8691360000000004">
        <ele>453.043</ele>
        <time>2022-08-25T11:06:49Z</time>
      </trkpt>
      <trkpt lat="42.669428" lon="-1.8692000000000004">
        <ele>453.007</ele>
        <time>2022-08-25T11:06:50Z</time>
      </trkpt>
      <trkpt lat="42.669426" lon="-1.8692610000000005">
        <ele>453.009</ele>
        <time>2022-08-25T11:06:51Z</time>
      </trkpt>
      <trkpt lat="42.669424" lon="-1.8693190000000004">
        <ele>453.472</ele>
        <time>2022-08-25T11:06:52Z</time>
      </trkpt>
      <trkpt lat="42.669424" lon="-1.8693770000000003">
        <ele>453.472</ele>
        <time>2022-08-25T11:06:53Z</time>
      </trkpt>
      <trkpt lat="42.669424" lon="-1.8694340000000003">
        <ele>453.482</ele>
        <time>2022-08-25T11:06:54Z</time>
      </trkpt>
      <trkpt lat="42.669425" lon="-1.8694890000000002">
        <ele>453.658</ele>
        <time>2022-08-25T11:06:55Z</time>
      </trkpt>
      <trkpt lat="42.66943" lon="-1.869544">
        <ele>454.080</ele>
        <time>2022-08-25T11:06:56Z</time>
      </trkpt>
      <trkpt lat="42.669430999999996" lon="-1.8695920000000001">
        <ele>454.087</ele>
        <time>2022-08-25T11:06:57Z</time>
      </trkpt>
      <trkpt lat="42.669422999999995" lon="-1.8696340000000002">
        <ele>454.080</ele>
        <time>2022-08-25T11:06:58Z</time>
      </trkpt>
      <trkpt lat="42.669411999999994" lon="-1.8696720000000002">
        <ele>454.236</ele>
        <time>2022-08-25T11:06:59Z</time>
      </trkpt>
      <trkpt lat="42.669397" lon="-1.8697070000000002">
        <ele>454.237</ele>
        <time>2022-08-25T11:07:00Z</time>
      </trkpt>
      <trkpt lat="42.669382999999996" lon="-1.8697430000000002">
        <ele>454.424</ele>
        <time>2022-08-25T11:07:01Z</time>
      </trkpt>
      <trkpt lat="42.669343999999995" lon="-1.8698910000000002">
        <ele>454.804</ele>
        <time>2022-08-25T11:07:04Z</time>
      </trkpt>
      <trkpt lat="42.66934" lon="-1.8700170000000003">
        <ele>455.214</ele>
        <time>2022-08-25T11:07:06Z</time>
      </trkpt>
      <trkpt lat="42.669346" lon="-1.8700740000000002">
        <ele>455.209</ele>
        <time>2022-08-25T11:07:07Z</time>
      </trkpt>
      <trkpt lat="42.669354" lon="-1.8701330000000003">
        <ele>455.473</ele>
        <time>2022-08-25T11:07:08Z</time>
      </trkpt>
      <trkpt lat="42.669377" lon="-1.8702390000000002">
        <ele>455.273</ele>
        <time>2022-08-25T11:07:10Z</time>
      </trkpt>
      <trkpt lat="42.669447" lon="-1.8704610000000002">
        <ele>455.073</ele>
        <time>2022-08-25T11:07:14Z</time>
      </trkpt>
      <trkpt lat="42.669509" lon="-1.8706330000000002">
        <ele>454.879</ele>
        <time>2022-08-25T11:07:17Z</time>
      </trkpt>
      <trkpt lat="42.66966" lon="-1.8710540000000002">
        <ele>454.231</ele>
        <time>2022-08-25T11:07:24Z</time>
      </trkpt>
      <trkpt lat="42.669799" lon="-1.8713720000000003">
        <ele>454.048</ele>
        <time>2022-08-25T11:07:29Z</time>
      </trkpt>
      <trkpt lat="42.669832" lon="-1.8714270000000002">
        <ele>454.071</ele>
        <time>2022-08-25T11:07:30Z</time>
      </trkpt>
      <trkpt lat="42.669864" lon="-1.8714790000000001">
        <ele>454.037</ele>
        <time>2022-08-25T11:07:31Z</time>
      </trkpt>
      <trkpt lat="42.669900999999996" lon="-1.871523">
        <ele>454.098</ele>
        <time>2022-08-25T11:07:32Z</time>
      </trkpt>
      <trkpt lat="42.669934999999995" lon="-1.871566">
        <ele>453.821</ele>
        <time>2022-08-25T11:07:33Z</time>
      </trkpt>
      <trkpt lat="42.669959" lon="-1.8716110000000001">
        <ele>453.641</ele>
        <time>2022-08-25T11:07:34Z</time>
      </trkpt>
      <trkpt lat="42.669975" lon="-1.8716620000000002">
        <ele>453.605</ele>
        <time>2022-08-25T11:07:35Z</time>
      </trkpt>
      <trkpt lat="42.669987" lon="-1.871717">
        <ele>453.609</ele>
        <time>2022-08-25T11:07:36Z</time>
      </trkpt>
      <trkpt lat="42.669997" lon="-1.871774">
        <ele>453.653</ele>
        <time>2022-08-25T11:07:37Z</time>
      </trkpt>
      <trkpt lat="42.670008" lon="-1.871833">
        <ele>453.283</ele>
        <time>2022-08-25T11:07:38Z</time>
      </trkpt>
      <trkpt lat="42.67002" lon="-1.87189">
        <ele>453.083</ele>
        <time>2022-08-25T11:07:39Z</time>
      </trkpt>
      <trkpt lat="42.670031" lon="-1.871945">
        <ele>453.039</ele>
        <time>2022-08-25T11:07:40Z</time>
      </trkpt>
      <trkpt lat="42.670039" lon="-1.871999">
        <ele>452.861</ele>
        <time>2022-08-25T11:07:41Z</time>
      </trkpt>
      <trkpt lat="42.670053" lon="-1.872061">
        <ele>452.898</ele>
        <time>2022-08-25T11:07:42Z</time>
      </trkpt>
      <trkpt lat="42.670061000000004" lon="-1.8720999999999999">
        <ele>452.881</ele>
        <time>2022-08-25T11:07:43Z</time>
      </trkpt>
      <trkpt lat="42.670072000000005" lon="-1.8721489999999998">
        <ele>452.687</ele>
        <time>2022-08-25T11:07:44Z</time>
      </trkpt>
      <trkpt lat="42.670084" lon="-1.8721959999999997">
        <ele>452.688</ele>
        <time>2022-08-25T11:07:45Z</time>
      </trkpt>
      <trkpt lat="42.670094000000006" lon="-1.8722429999999997">
        <ele>452.676</ele>
        <time>2022-08-25T11:07:46Z</time>
      </trkpt>
      <trkpt lat="42.67010500000001" lon="-1.8722869999999996">
        <ele>452.490</ele>
        <time>2022-08-25T11:07:47Z</time>
      </trkpt>
      <trkpt lat="42.67011500000001" lon="-1.8723309999999995">
        <ele>452.419</ele>
        <time>2022-08-25T11:07:48Z</time>
      </trkpt>
      <trkpt lat="42.67012700000001" lon="-1.8723719999999995">
        <ele>452.409</ele>
        <time>2022-08-25T11:07:49Z</time>
      </trkpt>
      <trkpt lat="42.67013700000001" lon="-1.8724099999999995">
        <ele>452.688</ele>
        <time>2022-08-25T11:07:50Z</time>
      </trkpt>
      <trkpt lat="42.67014600000001" lon="-1.8724459999999994">
        <ele>452.658</ele>
        <time>2022-08-25T11:07:51Z</time>
      </trkpt>
      <trkpt lat="42.670153000000006" lon="-1.8724829999999995">
        <ele>452.678</ele>
        <time>2022-08-25T11:07:52Z</time>
      </trkpt>
      <trkpt lat="42.670184000000006" lon="-1.8726029999999994">
        <ele>453.074</ele>
        <time>2022-08-25T11:07:55Z</time>
      </trkpt>
      <trkpt lat="42.670193000000005" lon="-1.8726449999999994">
        <ele>453.286</ele>
        <time>2022-08-25T11:07:56Z</time>
      </trkpt>
      <trkpt lat="42.6702" lon="-1.8726859999999994">
        <ele>453.243</ele>
        <time>2022-08-25T11:07:57Z</time>
      </trkpt>
      <trkpt lat="42.670216" lon="-1.8728089999999995">
        <ele>453.256</ele>
        <time>2022-08-25T11:08:00Z</time>
      </trkpt>
      <trkpt lat="42.670253" lon="-1.8729839999999995">
        <ele>452.852</ele>
        <time>2022-08-25T11:08:04Z</time>
      </trkpt>
      <trkpt lat="42.670389" lon="-1.8732159999999995">
        <ele>452.653</ele>
        <time>2022-08-25T11:08:10Z</time>
      </trkpt>
      <trkpt lat="42.670425" lon="-1.8732589999999996">
        <ele>452.614</ele>
        <time>2022-08-25T11:08:11Z</time>
      </trkpt>
      <trkpt lat="42.670516" lon="-1.8734459999999995">
        <ele>452.654</ele>
        <time>2022-08-25T11:08:15Z</time>
      </trkpt>
      <trkpt lat="42.670533999999996" lon="-1.8735019999999996">
        <ele>452.209</ele>
        <time>2022-08-25T11:08:16Z</time>
      </trkpt>
      <trkpt lat="42.670548999999994" lon="-1.8735579999999996">
        <ele>452.209</ele>
        <time>2022-08-25T11:08:17Z</time>
      </trkpt>
      <trkpt lat="42.670562999999994" lon="-1.8736149999999996">
        <ele>451.892</ele>
        <time>2022-08-25T11:08:18Z</time>
      </trkpt>
      <trkpt lat="42.670595999999996" lon="-1.8737939999999995">
        <ele>451.462</ele>
        <time>2022-08-25T11:08:21Z</time>
      </trkpt>
      <trkpt lat="42.670714" lon="-1.8742609999999995">
        <ele>450.872</ele>
        <time>2022-08-25T11:08:28Z</time>
      </trkpt>
      <trkpt lat="42.670736999999995" lon="-1.8743349999999994">
        <ele>450.648</ele>
        <time>2022-08-25T11:08:29Z</time>
      </trkpt>
      <trkpt lat="42.67078299999999" lon="-1.8744949999999994">
        <ele>449.640</ele>
        <time>2022-08-25T11:08:31Z</time>
      </trkpt>
      <trkpt lat="42.67080599999999" lon="-1.8745799999999992">
        <ele>449.027</ele>
        <time>2022-08-25T11:08:32Z</time>
      </trkpt>
      <trkpt lat="42.670843999999995" lon="-1.8747609999999992">
        <ele>448.430</ele>
        <time>2022-08-25T11:08:34Z</time>
      </trkpt>
      <trkpt lat="42.670857" lon="-1.8748539999999991">
        <ele>447.876</ele>
        <time>2022-08-25T11:08:35Z</time>
      </trkpt>
      <trkpt lat="42.670868" lon="-1.8749429999999991">
        <ele>447.857</ele>
        <time>2022-08-25T11:08:36Z</time>
      </trkpt>
      <trkpt lat="42.670878" lon="-1.8750319999999991">
        <ele>447.495</ele>
        <time>2022-08-25T11:08:37Z</time>
      </trkpt>
      <trkpt lat="42.670885" lon="-1.8751229999999992">
        <ele>447.249</ele>
        <time>2022-08-25T11:08:38Z</time>
      </trkpt>
      <trkpt lat="42.670895" lon="-1.8752109999999993">
        <ele>447.023</ele>
        <time>2022-08-25T11:08:39Z</time>
      </trkpt>
      <trkpt lat="42.670906" lon="-1.8752959999999992">
        <ele>446.809</ele>
        <time>2022-08-25T11:08:40Z</time>
      </trkpt>
      <trkpt lat="42.670918" lon="-1.8753799999999992">
        <ele>446.680</ele>
        <time>2022-08-25T11:08:41Z</time>
      </trkpt>
      <trkpt lat="42.670929" lon="-1.8754639999999991">
        <ele>446.260</ele>
        <time>2022-08-25T11:08:42Z</time>
      </trkpt>
      <trkpt lat="42.67094" lon="-1.875547999999999">
        <ele>446.050</ele>
        <time>2022-08-25T11:08:43Z</time>
      </trkpt>
      <trkpt lat="42.670951" lon="-1.875626999999999">
        <ele>445.866</ele>
        <time>2022-08-25T11:08:44Z</time>
      </trkpt>
      <trkpt lat="42.670962" lon="-1.875701999999999">
        <ele>445.438</ele>
        <time>2022-08-25T11:08:45Z</time>
      </trkpt>
      <trkpt lat="42.670977" lon="-1.8757739999999992">
        <ele>445.445</ele>
        <time>2022-08-25T11:08:46Z</time>
      </trkpt>
      <trkpt lat="42.670997" lon="-1.8758509999999993">
        <ele>445.298</ele>
        <time>2022-08-25T11:08:47Z</time>
      </trkpt>
      <trkpt lat="42.671012" lon="-1.8758959999999993">
        <ele>445.224</ele>
        <time>2022-08-25T11:08:48Z</time>
      </trkpt>
      <trkpt lat="42.671029" lon="-1.8759529999999993">
        <ele>445.055</ele>
        <time>2022-08-25T11:08:49Z</time>
      </trkpt>
      <trkpt lat="42.671045" lon="-1.8760069999999993">
        <ele>444.854</ele>
        <time>2022-08-25T11:08:50Z</time>
      </trkpt>
      <trkpt lat="42.671061" lon="-1.8760699999999992">
        <ele>445.056</ele>
        <time>2022-08-25T11:08:51Z</time>
      </trkpt>
      <trkpt lat="42.671071000000005" lon="-1.8761089999999991">
        <ele>444.811</ele>
        <time>2022-08-25T11:08:52Z</time>
      </trkpt>
      <trkpt lat="42.671089" lon="-1.8761699999999992">
        <ele>444.809</ele>
        <time>2022-08-25T11:08:53Z</time>
      </trkpt>
      <trkpt lat="42.671101" lon="-1.8762099999999993">
        <ele>444.666</ele>
        <time>2022-08-25T11:08:54Z</time>
      </trkpt>
      <trkpt lat="42.671116" lon="-1.8762619999999992">
        <ele>444.676</ele>
        <time>2022-08-25T11:08:55Z</time>
      </trkpt>
      <trkpt lat="42.67113" lon="-1.8763139999999991">
        <ele>444.676</ele>
        <time>2022-08-25T11:08:56Z</time>
      </trkpt>
      <trkpt lat="42.671143" lon="-1.8763639999999993">
        <ele>444.642</ele>
        <time>2022-08-25T11:08:57Z</time>
      </trkpt>
      <trkpt lat="42.671172" lon="-1.8764669999999992">
        <ele>444.664</ele>
        <time>2022-08-25T11:08:59Z</time>
      </trkpt>
      <trkpt lat="42.671185" lon="-1.8765139999999991">
        <ele>444.681</ele>
        <time>2022-08-25T11:09:00Z</time>
      </trkpt>
      <trkpt lat="42.671197" lon="-1.876560999999999">
        <ele>445.084</ele>
        <time>2022-08-25T11:09:01Z</time>
      </trkpt>
      <trkpt lat="42.671208" lon="-1.876604999999999">
        <ele>445.040</ele>
        <time>2022-08-25T11:09:02Z</time>
      </trkpt>
      <trkpt lat="42.671217" lon="-1.876648999999999">
        <ele>445.051</ele>
        <time>2022-08-25T11:09:03Z</time>
      </trkpt>
      <trkpt lat="42.67123" lon="-1.876790999999999">
        <ele>445.267</ele>
        <time>2022-08-25T11:09:06Z</time>
      </trkpt>
      <trkpt lat="42.671227" lon="-1.876843999999999">
        <ele>445.281</ele>
        <time>2022-08-25T11:09:07Z</time>
      </trkpt>
      <trkpt lat="42.671225" lon="-1.876878999999999">
        <ele>445.219</ele>
        <time>2022-08-25T11:09:08Z</time>
      </trkpt>
      <trkpt lat="42.67122" lon="-1.8769189999999991">
        <ele>445.409</ele>
        <time>2022-08-25T11:09:09Z</time>
      </trkpt>
      <trkpt lat="42.671197" lon="-1.8770369999999992">
        <ele>445.857</ele>
        <time>2022-08-25T11:09:12Z</time>
      </trkpt>
      <trkpt lat="42.671184" lon="-1.8770719999999992">
        <ele>445.437</ele>
        <time>2022-08-25T11:09:13Z</time>
      </trkpt>
      <trkpt lat="42.67117" lon="-1.877110999999999">
        <ele>445.437</ele>
        <time>2022-08-25T11:09:14Z</time>
      </trkpt>
      <trkpt lat="42.671152" lon="-1.8771779999999991">
        <ele>445.653</ele>
        <time>2022-08-25T11:09:16Z</time>
      </trkpt>
      <trkpt lat="42.671144" lon="-1.877202999999999">
        <ele>445.635</ele>
        <time>2022-08-25T11:09:17Z</time>
      </trkpt>
      <trkpt lat="42.671133999999995" lon="-1.877233999999999">
        <ele>445.832</ele>
        <time>2022-08-25T11:09:18Z</time>
      </trkpt>
      <trkpt lat="42.671125999999994" lon="-1.877263999999999">
        <ele>445.855</ele>
        <time>2022-08-25T11:09:19Z</time>
      </trkpt>
      <trkpt lat="42.67111799999999" lon="-1.8772949999999988">
        <ele>445.871</ele>
        <time>2022-08-25T11:09:20Z</time>
      </trkpt>
      <trkpt lat="42.671108999999994" lon="-1.8773229999999987">
        <ele>445.832</ele>
        <time>2022-08-25T11:09:21Z</time>
      </trkpt>
      <trkpt lat="42.671099999999996" lon="-1.8773519999999988">
        <ele>445.855</ele>
        <time>2022-08-25T11:09:22Z</time>
      </trkpt>
      <trkpt lat="42.671091" lon="-1.8773769999999987">
        <ele>445.807</ele>
        <time>2022-08-25T11:09:23Z</time>
      </trkpt>
      <trkpt lat="42.671085" lon="-1.8774019999999987">
        <ele>445.817</ele>
        <time>2022-08-25T11:09:24Z</time>
      </trkpt>
      <trkpt lat="42.671026" lon="-1.8776069999999987">
        <ele>445.609</ele>
        <time>2022-08-25T11:09:30Z</time>
      </trkpt>
      <trkpt lat="42.671009999999995" lon="-1.8776569999999988">
        <ele>445.666</ele>
        <time>2022-08-25T11:09:31Z</time>
      </trkpt>
      <trkpt lat="42.670959999999994" lon="-1.8778479999999989">
        <ele>445.036</ele>
        <time>2022-08-25T11:09:34Z</time>
      </trkpt>
      <trkpt lat="42.67094699999999" lon="-1.8779919999999988">
        <ele>444.656</ele>
        <time>2022-08-25T11:09:36Z</time>
      </trkpt>
      <trkpt lat="42.67094399999999" lon="-1.8781349999999988">
        <ele>444.412</ele>
        <time>2022-08-25T11:09:38Z</time>
      </trkpt>
      <trkpt lat="42.67094699999999" lon="-1.8782049999999988">
        <ele>444.484</ele>
        <time>2022-08-25T11:09:39Z</time>
      </trkpt>
      <trkpt lat="42.67095099999999" lon="-1.8782719999999988">
        <ele>444.261</ele>
        <time>2022-08-25T11:09:40Z</time>
      </trkpt>
      <trkpt lat="42.67095999999999" lon="-1.8783349999999988">
        <ele>444.224</ele>
        <time>2022-08-25T11:09:41Z</time>
      </trkpt>
      <trkpt lat="42.671005999999984" lon="-1.8785409999999987">
        <ele>443.850</ele>
        <time>2022-08-25T11:09:44Z</time>
      </trkpt>
      <trkpt lat="42.671022999999984" lon="-1.8786139999999987">
        <ele>443.411</ele>
        <time>2022-08-25T11:09:45Z</time>
      </trkpt>
      <trkpt lat="42.67103499999998" lon="-1.8786899999999986">
        <ele>442.888</ele>
        <time>2022-08-25T11:09:46Z</time>
      </trkpt>
      <trkpt lat="42.671092999999985" lon="-1.8790469999999986">
        <ele>441.824</ele>
        <time>2022-08-25T11:09:50Z</time>
      </trkpt>
      <trkpt lat="42.671117999999986" lon="-1.8792319999999987">
        <ele>440.826</ele>
        <time>2022-08-25T11:09:52Z</time>
      </trkpt>
      <trkpt lat="42.67113299999998" lon="-1.8793199999999988">
        <ele>440.009</ele>
        <time>2022-08-25T11:09:53Z</time>
      </trkpt>
      <trkpt lat="42.67114699999998" lon="-1.8794059999999988">
        <ele>439.679</ele>
        <time>2022-08-25T11:09:54Z</time>
      </trkpt>
      <trkpt lat="42.67116499999998" lon="-1.8794849999999987">
        <ele>439.419</ele>
        <time>2022-08-25T11:09:55Z</time>
      </trkpt>
      <trkpt lat="42.671188999999984" lon="-1.8795579999999987">
        <ele>439.279</ele>
        <time>2022-08-25T11:09:56Z</time>
      </trkpt>
      <trkpt lat="42.67121799999998" lon="-1.8796259999999987">
        <ele>439.085</ele>
        <time>2022-08-25T11:09:57Z</time>
      </trkpt>
      <trkpt lat="42.671247999999984" lon="-1.8796899999999988">
        <ele>438.887</ele>
        <time>2022-08-25T11:09:58Z</time>
      </trkpt>
      <trkpt lat="42.671278999999984" lon="-1.8797499999999987">
        <ele>438.814</ele>
        <time>2022-08-25T11:09:59Z</time>
      </trkpt>
      <trkpt lat="42.671309999999984" lon="-1.8798089999999987">
        <ele>438.857</ele>
        <time>2022-08-25T11:10:00Z</time>
      </trkpt>
      <trkpt lat="42.671342999999986" lon="-1.8798669999999986">
        <ele>438.873</ele>
        <time>2022-08-25T11:10:01Z</time>
      </trkpt>
      <trkpt lat="42.67137299999999" lon="-1.8799209999999986">
        <ele>438.864</ele>
        <time>2022-08-25T11:10:02Z</time>
      </trkpt>
      <trkpt lat="42.67140999999999" lon="-1.8799809999999986">
        <ele>438.825</ele>
        <time>2022-08-25T11:10:03Z</time>
      </trkpt>
      <trkpt lat="42.67143399999999" lon="-1.8800189999999986">
        <ele>439.026</ele>
        <time>2022-08-25T11:10:04Z</time>
      </trkpt>
      <trkpt lat="42.67146499999999" lon="-1.8800659999999985">
        <ele>439.208</ele>
        <time>2022-08-25T11:10:05Z</time>
      </trkpt>
      <trkpt lat="42.67149399999999" lon="-1.8801119999999985">
        <ele>439.409</ele>
        <time>2022-08-25T11:10:06Z</time>
      </trkpt>
      <trkpt lat="42.671522999999986" lon="-1.8801569999999985">
        <ele>439.443</ele>
        <time>2022-08-25T11:10:07Z</time>
      </trkpt>
      <trkpt lat="42.67155099999999" lon="-1.8801999999999985">
        <ele>439.433</ele>
        <time>2022-08-25T11:10:08Z</time>
      </trkpt>
      <trkpt lat="42.67157799999999" lon="-1.8802389999999984">
        <ele>439.483</ele>
        <time>2022-08-25T11:10:09Z</time>
      </trkpt>
      <trkpt lat="42.67160599999999" lon="-1.8802779999999983">
        <ele>439.669</ele>
        <time>2022-08-25T11:10:10Z</time>
      </trkpt>
      <trkpt lat="42.67163199999999" lon="-1.8803149999999984">
        <ele>439.661</ele>
        <time>2022-08-25T11:10:11Z</time>
      </trkpt>
      <trkpt lat="42.67165699999999" lon="-1.8803489999999985">
        <ele>439.628</ele>
        <time>2022-08-25T11:10:12Z</time>
      </trkpt>
      <trkpt lat="42.67168099999999" lon="-1.8803839999999985">
        <ele>439.611</ele>
        <time>2022-08-25T11:10:13Z</time>
      </trkpt>
      <trkpt lat="42.67170199999999" lon="-1.8804209999999986">
        <ele>439.867</ele>
        <time>2022-08-25T11:10:14Z</time>
      </trkpt>
      <trkpt lat="42.67171899999999" lon="-1.8804579999999986">
        <ele>440.068</ele>
        <time>2022-08-25T11:10:15Z</time>
      </trkpt>
      <trkpt lat="42.67173599999999" lon="-1.8804939999999986">
        <ele>440.068</ele>
        <time>2022-08-25T11:10:16Z</time>
      </trkpt>
      <trkpt lat="42.671750999999986" lon="-1.8805239999999985">
        <ele>440.242</ele>
        <time>2022-08-25T11:10:17Z</time>
      </trkpt>
      <trkpt lat="42.671764999999986" lon="-1.8805529999999986">
        <ele>440.426</ele>
        <time>2022-08-25T11:10:18Z</time>
      </trkpt>
      <trkpt lat="42.67177499999999" lon="-1.8805809999999985">
        <ele>440.409</ele>
        <time>2022-08-25T11:10:19Z</time>
      </trkpt>
      <trkpt lat="42.67178399999999" lon="-1.8806089999999984">
        <ele>440.667</ele>
        <time>2022-08-25T11:10:20Z</time>
      </trkpt>
      <trkpt lat="42.67179499999999" lon="-1.8806339999999984">
        <ele>440.637</ele>
        <time>2022-08-25T11:10:21Z</time>
      </trkpt>
      <trkpt lat="42.67183299999999" lon="-1.8807199999999984">
        <ele>440.827</ele>
        <time>2022-08-25T11:10:24Z</time>
      </trkpt>
      <trkpt lat="42.671845999999995" lon="-1.8807459999999985">
        <ele>441.083</ele>
        <time>2022-08-25T11:10:25Z</time>
      </trkpt>
      <trkpt lat="42.671862999999995" lon="-1.8807769999999984">
        <ele>441.255</ele>
        <time>2022-08-25T11:10:26Z</time>
      </trkpt>
      <trkpt lat="42.671969999999995" lon="-1.8809749999999983">
        <ele>441.622</ele>
        <time>2022-08-25T11:10:33Z</time>
      </trkpt>
      <trkpt lat="42.671989999999994" lon="-1.8810029999999982">
        <ele>441.635</ele>
        <time>2022-08-25T11:10:34Z</time>
      </trkpt>
      <trkpt lat="42.67202999999999" lon="-1.8810519999999982">
        <ele>441.681</ele>
        <time>2022-08-25T11:10:36Z</time>
      </trkpt>
      <trkpt lat="42.672070999999995" lon="-1.8810969999999982">
        <ele>441.862</ele>
        <time>2022-08-25T11:10:38Z</time>
      </trkpt>
      <trkpt lat="42.67209199999999" lon="-1.8811209999999983">
        <ele>441.898</ele>
        <time>2022-08-25T11:10:39Z</time>
      </trkpt>
      <trkpt lat="42.67211199999999" lon="-1.8811449999999983">
        <ele>441.815</ele>
        <time>2022-08-25T11:10:40Z</time>
      </trkpt>
      <trkpt lat="42.67213199999999" lon="-1.8811709999999984">
        <ele>441.826</ele>
        <time>2022-08-25T11:10:41Z</time>
      </trkpt>
      <trkpt lat="42.67224399999999" lon="-1.8812799999999983">
        <ele>442.409</ele>
        <time>2022-08-25T11:10:46Z</time>
      </trkpt>
      <trkpt lat="42.672304999999994" lon="-1.8813519999999984">
        <ele>443.070</ele>
        <time>2022-08-25T11:10:49Z</time>
      </trkpt>
      <trkpt lat="42.67232299999999" lon="-1.8813769999999983">
        <ele>443.080</ele>
        <time>2022-08-25T11:10:50Z</time>
      </trkpt>
      <trkpt lat="42.672400999999994" lon="-1.8814709999999983">
        <ele>443.470</ele>
        <time>2022-08-25T11:10:54Z</time>
      </trkpt>
      <trkpt lat="42.67242099999999" lon="-1.8814979999999983">
        <ele>443.426</ele>
        <time>2022-08-25T11:10:55Z</time>
      </trkpt>
      <trkpt lat="42.672461999999996" lon="-1.8815499999999983">
        <ele>443.648</ele>
        <time>2022-08-25T11:10:57Z</time>
      </trkpt>
      <trkpt lat="42.672481999999995" lon="-1.8815779999999982">
        <ele>443.675</ele>
        <time>2022-08-25T11:10:58Z</time>
      </trkpt>
      <trkpt lat="42.672599" lon="-1.8817259999999982">
        <ele>444.258</ele>
        <time>2022-08-25T11:11:04Z</time>
      </trkpt>
      <trkpt lat="42.67264" lon="-1.8817849999999983">
        <ele>444.454</ele>
        <time>2022-08-25T11:11:06Z</time>
      </trkpt>
      <trkpt lat="42.672739" lon="-1.8819309999999982">
        <ele>444.825</ele>
        <time>2022-08-25T11:11:11Z</time>
      </trkpt>
      <trkpt lat="42.672758" lon="-1.8819579999999982">
        <ele>445.036</ele>
        <time>2022-08-25T11:11:12Z</time>
      </trkpt>
      <trkpt lat="42.672782000000005" lon="-1.8819919999999983">
        <ele>445.017</ele>
        <time>2022-08-25T11:11:13Z</time>
      </trkpt>
      <trkpt lat="42.672817" lon="-1.8820439999999983">
        <ele>445.018</ele>
        <time>2022-08-25T11:11:15Z</time>
      </trkpt>
      <trkpt lat="42.672945" lon="-1.8822219999999983">
        <ele>445.209</ele>
        <time>2022-08-25T11:11:21Z</time>
      </trkpt>
      <trkpt lat="42.672965" lon="-1.8822489999999983">
        <ele>445.274</ele>
        <time>2022-08-25T11:11:22Z</time>
      </trkpt>
      <trkpt lat="42.672987" lon="-1.8822769999999982">
        <ele>445.484</ele>
        <time>2022-08-25T11:11:23Z</time>
      </trkpt>
      <trkpt lat="42.673025" lon="-1.882323999999998">
        <ele>445.864</ele>
        <time>2022-08-25T11:11:25Z</time>
      </trkpt>
      <trkpt lat="42.673048" lon="-1.882353999999998">
        <ele>446.090</ele>
        <time>2022-08-25T11:11:26Z</time>
      </trkpt>
      <trkpt lat="42.673068" lon="-1.882377999999998">
        <ele>446.472</ele>
        <time>2022-08-25T11:11:27Z</time>
      </trkpt>
      <trkpt lat="42.673128" lon="-1.8824499999999982">
        <ele>446.899</ele>
        <time>2022-08-25T11:11:30Z</time>
      </trkpt>
      <trkpt lat="42.673156999999996" lon="-1.8824749999999981">
        <ele>447.072</ele>
        <time>2022-08-25T11:11:31Z</time>
      </trkpt>
      <trkpt lat="42.67317499999999" lon="-1.882494999999998">
        <ele>447.248</ele>
        <time>2022-08-25T11:11:32Z</time>
      </trkpt>
      <trkpt lat="42.67318999999999" lon="-1.882513999999998">
        <ele>447.469</ele>
        <time>2022-08-25T11:11:33Z</time>
      </trkpt>
      <trkpt lat="42.673202999999994" lon="-1.882534999999998">
        <ele>447.442</ele>
        <time>2022-08-25T11:11:34Z</time>
      </trkpt>
      <trkpt lat="42.673210999999995" lon="-1.882554999999998">
        <ele>447.422</ele>
        <time>2022-08-25T11:11:35Z</time>
      </trkpt>
      <trkpt lat="42.67322299999999" lon="-1.882573999999998">
        <ele>447.614</ele>
        <time>2022-08-25T11:11:36Z</time>
      </trkpt>
      <trkpt lat="42.67323699999999" lon="-1.882592999999998">
        <ele>447.809</ele>
        <time>2022-08-25T11:11:37Z</time>
      </trkpt>
      <trkpt lat="42.673252999999995" lon="-1.8826129999999979">
        <ele>447.895</ele>
        <time>2022-08-25T11:11:38Z</time>
      </trkpt>
      <trkpt lat="42.67326799999999" lon="-1.882630999999998">
        <ele>447.855</ele>
        <time>2022-08-25T11:11:39Z</time>
      </trkpt>
      <trkpt lat="42.67328299999999" lon="-1.8826509999999979">
        <ele>447.855</ele>
        <time>2022-08-25T11:11:40Z</time>
      </trkpt>
      <trkpt lat="42.67329899999999" lon="-1.882673999999998">
        <ele>448.071</ele>
        <time>2022-08-25T11:11:41Z</time>
      </trkpt>
      <trkpt lat="42.67331599999999" lon="-1.882697999999998">
        <ele>448.223</ele>
        <time>2022-08-25T11:11:42Z</time>
      </trkpt>
      <trkpt lat="42.67333599999999" lon="-1.882718999999998">
        <ele>448.480</ele>
        <time>2022-08-25T11:11:43Z</time>
      </trkpt>
      <trkpt lat="42.67335699999999" lon="-1.882737999999998">
        <ele>448.633</ele>
        <time>2022-08-25T11:11:44Z</time>
      </trkpt>
      <trkpt lat="42.673377999999985" lon="-1.882755999999998">
        <ele>448.639</ele>
        <time>2022-08-25T11:11:45Z</time>
      </trkpt>
      <trkpt lat="42.67339899999998" lon="-1.882777999999998">
        <ele>448.890</ele>
        <time>2022-08-25T11:11:46Z</time>
      </trkpt>
      <trkpt lat="42.673417999999984" lon="-1.8827989999999981">
        <ele>449.064</ele>
        <time>2022-08-25T11:11:47Z</time>
      </trkpt>
      <trkpt lat="42.67343799999998" lon="-1.8828169999999982">
        <ele>449.206</ele>
        <time>2022-08-25T11:11:48Z</time>
      </trkpt>
      <trkpt lat="42.673453999999985" lon="-1.8828319999999983">
        <ele>449.416</ele>
        <time>2022-08-25T11:11:49Z</time>
      </trkpt>
      <trkpt lat="42.673479999999984" lon="-1.8828539999999983">
        <ele>449.409</ele>
        <time>2022-08-25T11:11:50Z</time>
      </trkpt>
      <trkpt lat="42.673501999999985" lon="-1.8828689999999983">
        <ele>449.647</ele>
        <time>2022-08-25T11:11:51Z</time>
      </trkpt>
      <trkpt lat="42.67351999999998" lon="-1.8828839999999984">
        <ele>449.687</ele>
        <time>2022-08-25T11:11:52Z</time>
      </trkpt>
      <trkpt lat="42.673538999999984" lon="-1.8828999999999985">
        <ele>449.637</ele>
        <time>2022-08-25T11:11:53Z</time>
      </trkpt>
      <trkpt lat="42.673557999999986" lon="-1.8829179999999985">
        <ele>449.623</ele>
        <time>2022-08-25T11:11:54Z</time>
      </trkpt>
      <trkpt lat="42.67357099999999" lon="-1.8829319999999985">
        <ele>449.695</ele>
        <time>2022-08-25T11:11:55Z</time>
      </trkpt>
      <trkpt lat="42.67359299999999" lon="-1.8829519999999984">
        <ele>449.622</ele>
        <time>2022-08-25T11:11:56Z</time>
      </trkpt>
      <trkpt lat="42.67361299999999" lon="-1.8829679999999984">
        <ele>449.675</ele>
        <time>2022-08-25T11:11:57Z</time>
      </trkpt>
      <trkpt lat="42.67362899999999" lon="-1.8829819999999984">
        <ele>449.631</ele>
        <time>2022-08-25T11:11:58Z</time>
      </trkpt>
      <trkpt lat="42.67364999999999" lon="-1.8829989999999983">
        <ele>449.682</ele>
        <time>2022-08-25T11:11:59Z</time>
      </trkpt>
      <trkpt lat="42.67367499999999" lon="-1.8830269999999982">
        <ele>449.649</ele>
        <time>2022-08-25T11:12:00Z</time>
      </trkpt>
      <trkpt lat="42.67369499999999" lon="-1.8830419999999983">
        <ele>449.602</ele>
        <time>2022-08-25T11:12:01Z</time>
      </trkpt>
      <trkpt lat="42.67371499999999" lon="-1.8830599999999984">
        <ele>449.622</ele>
        <time>2022-08-25T11:12:02Z</time>
      </trkpt>
      <trkpt lat="42.67373099999999" lon="-1.8830739999999984">
        <ele>449.809</ele>
        <time>2022-08-25T11:12:03Z</time>
      </trkpt>
      <trkpt lat="42.67379499999999" lon="-1.8831349999999984">
        <ele>450.065</ele>
        <time>2022-08-25T11:12:06Z</time>
      </trkpt>
      <trkpt lat="42.67381399999999" lon="-1.8831539999999984">
        <ele>450.025</ele>
        <time>2022-08-25T11:12:07Z</time>
      </trkpt>
      <trkpt lat="42.67383399999999" lon="-1.8831739999999983">
        <ele>450.465</ele>
        <time>2022-08-25T11:12:08Z</time>
      </trkpt>
      <trkpt lat="42.67386899999999" lon="-1.8832179999999983">
        <ele>450.881</ele>
        <time>2022-08-25T11:12:10Z</time>
      </trkpt>
      <trkpt lat="42.67388499999999" lon="-1.8832399999999982">
        <ele>450.813</ele>
        <time>2022-08-25T11:12:11Z</time>
      </trkpt>
      <trkpt lat="42.673900999999994" lon="-1.8832609999999983">
        <ele>451.040</ele>
        <time>2022-08-25T11:12:12Z</time>
      </trkpt>
      <trkpt lat="42.673916999999996" lon="-1.8832819999999983">
        <ele>451.253</ele>
        <time>2022-08-25T11:12:13Z</time>
      </trkpt>
      <trkpt lat="42.673930999999996" lon="-1.8833029999999984">
        <ele>451.439</ele>
        <time>2022-08-25T11:12:14Z</time>
      </trkpt>
      <trkpt lat="42.673945999999994" lon="-1.8833259999999985">
        <ele>451.680</ele>
        <time>2022-08-25T11:12:15Z</time>
      </trkpt>
      <trkpt lat="42.67396099999999" lon="-1.8833479999999985">
        <ele>451.625</ele>
        <time>2022-08-25T11:12:16Z</time>
      </trkpt>
      <trkpt lat="42.67397499999999" lon="-1.8833659999999985">
        <ele>451.826</ele>
        <time>2022-08-25T11:12:17Z</time>
      </trkpt>
      <trkpt lat="42.67398899999999" lon="-1.8833849999999985">
        <ele>451.808</ele>
        <time>2022-08-25T11:12:18Z</time>
      </trkpt>
      <trkpt lat="42.67400399999999" lon="-1.8834039999999985">
        <ele>451.809</ele>
        <time>2022-08-25T11:12:19Z</time>
      </trkpt>
      <trkpt lat="42.67401899999999" lon="-1.8834209999999985">
        <ele>452.273</ele>
        <time>2022-08-25T11:12:20Z</time>
      </trkpt>
      <trkpt lat="42.67402999999999" lon="-1.8834389999999985">
        <ele>452.253</ele>
        <time>2022-08-25T11:12:21Z</time>
      </trkpt>
      <trkpt lat="42.67404299999999" lon="-1.8834589999999984">
        <ele>452.423</ele>
        <time>2022-08-25T11:12:22Z</time>
      </trkpt>
      <trkpt lat="42.674052999999994" lon="-1.8834789999999983">
        <ele>452.449</ele>
        <time>2022-08-25T11:12:23Z</time>
      </trkpt>
      <trkpt lat="42.67406499999999" lon="-1.8834979999999983">
        <ele>452.671</ele>
        <time>2022-08-25T11:12:24Z</time>
      </trkpt>
      <trkpt lat="42.67407599999999" lon="-1.8835169999999983">
        <ele>452.838</ele>
        <time>2022-08-25T11:12:25Z</time>
      </trkpt>
      <trkpt lat="42.67408699999999" lon="-1.8835359999999983">
        <ele>452.891</ele>
        <time>2022-08-25T11:12:26Z</time>
      </trkpt>
      <trkpt lat="42.674097999999994" lon="-1.8835569999999984">
        <ele>453.087</ele>
        <time>2022-08-25T11:12:27Z</time>
      </trkpt>
      <trkpt lat="42.674108999999994" lon="-1.8835769999999983">
        <ele>453.038</ele>
        <time>2022-08-25T11:12:28Z</time>
      </trkpt>
      <trkpt lat="42.674119999999995" lon="-1.8835979999999983">
        <ele>453.083</ele>
        <time>2022-08-25T11:12:29Z</time>
      </trkpt>
      <trkpt lat="42.674130999999996" lon="-1.8836209999999984">
        <ele>453.025</ele>
        <time>2022-08-25T11:12:30Z</time>
      </trkpt>
      <trkpt lat="42.674142999999994" lon="-1.8836409999999983">
        <ele>453.017</ele>
        <time>2022-08-25T11:12:31Z</time>
      </trkpt>
      <trkpt lat="42.674153999999994" lon="-1.8836619999999984">
        <ele>453.009</ele>
        <time>2022-08-25T11:12:32Z</time>
      </trkpt>
      <trkpt lat="42.674161999999995" lon="-1.8836829999999984">
        <ele>453.049</ele>
        <time>2022-08-25T11:12:33Z</time>
      </trkpt>
      <trkpt lat="42.674170999999994" lon="-1.8837039999999985">
        <ele>453.079</ele>
        <time>2022-08-25T11:12:34Z</time>
      </trkpt>
      <trkpt lat="42.67417999999999" lon="-1.8837249999999985">
        <ele>453.049</ele>
        <time>2022-08-25T11:12:35Z</time>
      </trkpt>
      <trkpt lat="42.674187999999994" lon="-1.8837459999999986">
        <ele>453.035</ele>
        <time>2022-08-25T11:12:36Z</time>
      </trkpt>
      <trkpt lat="42.67419499999999" lon="-1.8837699999999986">
        <ele>453.057</ele>
        <time>2022-08-25T11:12:37Z</time>
      </trkpt>
      <trkpt lat="42.67421099999999" lon="-1.8838139999999985">
        <ele>453.234</ele>
        <time>2022-08-25T11:12:39Z</time>
      </trkpt>
      <trkpt lat="42.67421999999999" lon="-1.8838339999999985">
        <ele>453.257</ele>
        <time>2022-08-25T11:12:40Z</time>
      </trkpt>
      <trkpt lat="42.674291999999994" lon="-1.8841079999999986">
        <ele>453.663</ele>
        <time>2022-08-25T11:12:51Z</time>
      </trkpt>
      <trkpt lat="42.674299999999995" lon="-1.8841319999999986">
        <ele>453.634</ele>
        <time>2022-08-25T11:12:52Z</time>
      </trkpt>
      <trkpt lat="42.674316" lon="-1.8842089999999987">
        <ele>453.612</ele>
        <time>2022-08-25T11:12:55Z</time>
      </trkpt>
      <trkpt lat="42.674322" lon="-1.8842319999999988">
        <ele>453.832</ele>
        <time>2022-08-25T11:12:56Z</time>
      </trkpt>
      <trkpt lat="42.674327999999996" lon="-1.8842539999999988">
        <ele>454.005</ele>
        <time>2022-08-25T11:12:57Z</time>
      </trkpt>
      <trkpt lat="42.67434599999999" lon="-1.8843229999999989">
        <ele>454.409</ele>
        <time>2022-08-25T11:13:00Z</time>
      </trkpt>
      <trkpt lat="42.67435199999999" lon="-1.884348999999999">
        <ele>454.632</ele>
        <time>2022-08-25T11:13:01Z</time>
      </trkpt>
      <trkpt lat="42.67435899999999" lon="-1.8843739999999989">
        <ele>454.862</ele>
        <time>2022-08-25T11:13:02Z</time>
      </trkpt>
      <trkpt lat="42.67436899999999" lon="-1.884405999999999">
        <ele>455.262</ele>
        <time>2022-08-25T11:13:03Z</time>
      </trkpt>
      <trkpt lat="42.67437499999999" lon="-1.8844279999999989">
        <ele>455.488</ele>
        <time>2022-08-25T11:13:04Z</time>
      </trkpt>
      <trkpt lat="42.67437999999999" lon="-1.8844499999999988">
        <ele>456.090</ele>
        <time>2022-08-25T11:13:05Z</time>
      </trkpt>
      <trkpt lat="42.674398999999994" lon="-1.884494999999999">
        <ele>456.677</ele>
        <time>2022-08-25T11:13:07Z</time>
      </trkpt>
      <trkpt lat="42.674406999999995" lon="-1.8845169999999989">
        <ele>457.090</ele>
        <time>2022-08-25T11:13:08Z</time>
      </trkpt>
      <trkpt lat="42.674414999999996" lon="-1.8845389999999989">
        <ele>457.216</ele>
        <time>2022-08-25T11:13:09Z</time>
      </trkpt>
      <trkpt lat="42.674423" lon="-1.8845559999999988">
        <ele>457.427</ele>
        <time>2022-08-25T11:13:10Z</time>
      </trkpt>
      <trkpt lat="42.674429999999994" lon="-1.8845729999999987">
        <ele>457.466</ele>
        <time>2022-08-25T11:13:11Z</time>
      </trkpt>
      <trkpt lat="42.67443699999999" lon="-1.8845909999999988">
        <ele>457.429</ele>
        <time>2022-08-25T11:13:12Z</time>
      </trkpt>
      <trkpt lat="42.67444399999999" lon="-1.8846159999999987">
        <ele>457.421</ele>
        <time>2022-08-25T11:13:13Z</time>
      </trkpt>
      <trkpt lat="42.67445099999998" lon="-1.8846319999999988">
        <ele>457.609</ele>
        <time>2022-08-25T11:13:14Z</time>
      </trkpt>
      <trkpt lat="42.67445799999998" lon="-1.8846509999999987">
        <ele>457.637</ele>
        <time>2022-08-25T11:13:15Z</time>
      </trkpt>
      <trkpt lat="42.67446699999998" lon="-1.8846749999999988">
        <ele>457.877</ele>
        <time>2022-08-25T11:13:16Z</time>
      </trkpt>
      <trkpt lat="42.674473999999975" lon="-1.8846919999999987">
        <ele>457.837</ele>
        <time>2022-08-25T11:13:17Z</time>
      </trkpt>
      <trkpt lat="42.674482999999974" lon="-1.8847119999999986">
        <ele>457.893</ele>
        <time>2022-08-25T11:13:18Z</time>
      </trkpt>
      <trkpt lat="42.67449199999997" lon="-1.8847309999999986">
        <ele>457.885</ele>
        <time>2022-08-25T11:13:19Z</time>
      </trkpt>
      <trkpt lat="42.67450099999997" lon="-1.8847459999999987">
        <ele>457.862</ele>
        <time>2022-08-25T11:13:20Z</time>
      </trkpt>
      <trkpt lat="42.674510999999974" lon="-1.8847629999999986">
        <ele>458.015</ele>
        <time>2022-08-25T11:13:21Z</time>
      </trkpt>
      <trkpt lat="42.67452399999998" lon="-1.8847859999999987">
        <ele>458.031</ele>
        <time>2022-08-25T11:13:22Z</time>
      </trkpt>
      <trkpt lat="42.67452899999998" lon="-1.8848009999999988">
        <ele>458.292</ele>
        <time>2022-08-25T11:13:23Z</time>
      </trkpt>
      <trkpt lat="42.67453899999998" lon="-1.8848179999999988">
        <ele>458.415</ele>
        <time>2022-08-25T11:13:24Z</time>
      </trkpt>
      <trkpt lat="42.674548999999985" lon="-1.8848349999999987">
        <ele>458.465</ele>
        <time>2022-08-25T11:13:25Z</time>
      </trkpt>
      <trkpt lat="42.67455799999998" lon="-1.8848519999999986">
        <ele>458.411</ele>
        <time>2022-08-25T11:13:26Z</time>
      </trkpt>
      <trkpt lat="42.674568999999984" lon="-1.8848689999999986">
        <ele>458.609</ele>
        <time>2022-08-25T11:13:27Z</time>
      </trkpt>
      <trkpt lat="42.67457899999999" lon="-1.8848849999999986">
        <ele>458.852</ele>
        <time>2022-08-25T11:13:28Z</time>
      </trkpt>
      <trkpt lat="42.67458999999999" lon="-1.8849019999999985">
        <ele>459.222</ele>
        <time>2022-08-25T11:13:29Z</time>
      </trkpt>
      <trkpt lat="42.67460099999999" lon="-1.8849169999999986">
        <ele>459.272</ele>
        <time>2022-08-25T11:13:30Z</time>
      </trkpt>
      <trkpt lat="42.67461099999999" lon="-1.8849299999999987">
        <ele>459.458</ele>
        <time>2022-08-25T11:13:31Z</time>
      </trkpt>
      <trkpt lat="42.67461999999999" lon="-1.8849449999999988">
        <ele>459.430</ele>
        <time>2022-08-25T11:13:32Z</time>
      </trkpt>
      <trkpt lat="42.67462799999999" lon="-1.8849599999999989">
        <ele>459.697</ele>
        <time>2022-08-25T11:13:33Z</time>
      </trkpt>
      <trkpt lat="42.67463699999999" lon="-1.8849739999999988">
        <ele>459.850</ele>
        <time>2022-08-25T11:13:34Z</time>
      </trkpt>
      <trkpt lat="42.67464499999999" lon="-1.8849849999999988">
        <ele>459.856</ele>
        <time>2022-08-25T11:13:35Z</time>
      </trkpt>
      <trkpt lat="42.67465299999999" lon="-1.884999999999999">
        <ele>460.027</ele>
        <time>2022-08-25T11:13:36Z</time>
      </trkpt>
      <trkpt lat="42.67466099999999" lon="-1.885015999999999">
        <ele>460.298</ele>
        <time>2022-08-25T11:13:37Z</time>
      </trkpt>
      <trkpt lat="42.67466999999999" lon="-1.885033999999999">
        <ele>460.415</ele>
        <time>2022-08-25T11:13:38Z</time>
      </trkpt>
      <trkpt lat="42.67467599999999" lon="-1.885047999999999">
        <ele>460.626</ele>
        <time>2022-08-25T11:13:39Z</time>
      </trkpt>
      <trkpt lat="42.67468299999999" lon="-1.885062999999999">
        <ele>460.809</ele>
        <time>2022-08-25T11:13:40Z</time>
      </trkpt>
      <trkpt lat="42.67469099999999" lon="-1.8850779999999991">
        <ele>461.030</ele>
        <time>2022-08-25T11:13:41Z</time>
      </trkpt>
      <trkpt lat="42.674697999999985" lon="-1.8850929999999992">
        <ele>461.060</ele>
        <time>2022-08-25T11:13:42Z</time>
      </trkpt>
      <trkpt lat="42.67470499999998" lon="-1.8851069999999992">
        <ele>461.430</ele>
        <time>2022-08-25T11:13:43Z</time>
      </trkpt>
      <trkpt lat="42.67471299999998" lon="-1.8851209999999992">
        <ele>461.656</ele>
        <time>2022-08-25T11:13:44Z</time>
      </trkpt>
      <trkpt lat="42.67471899999998" lon="-1.8851349999999991">
        <ele>461.658</ele>
        <time>2022-08-25T11:13:45Z</time>
      </trkpt>
      <trkpt lat="42.67472499999998" lon="-1.8851509999999991">
        <ele>461.865</ele>
        <time>2022-08-25T11:13:46Z</time>
      </trkpt>
      <trkpt lat="42.67473099999998" lon="-1.885164999999999">
        <ele>461.878</ele>
        <time>2022-08-25T11:13:47Z</time>
      </trkpt>
      <trkpt lat="42.67473599999998" lon="-1.8851779999999991">
        <ele>462.034</ele>
        <time>2022-08-25T11:13:48Z</time>
      </trkpt>
      <trkpt lat="42.67474099999998" lon="-1.8851929999999992">
        <ele>462.095</ele>
        <time>2022-08-25T11:13:49Z</time>
      </trkpt>
      <trkpt lat="42.67474699999998" lon="-1.8852069999999992">
        <ele>462.283</ele>
        <time>2022-08-25T11:13:50Z</time>
      </trkpt>
      <trkpt lat="42.674751999999984" lon="-1.8852229999999992">
        <ele>462.425</ele>
        <time>2022-08-25T11:13:51Z</time>
      </trkpt>
      <trkpt lat="42.674756999999985" lon="-1.8852379999999993">
        <ele>462.417</ele>
        <time>2022-08-25T11:13:52Z</time>
      </trkpt>
      <trkpt lat="42.67476199999999" lon="-1.8852529999999994">
        <ele>462.609</ele>
        <time>2022-08-25T11:13:53Z</time>
      </trkpt>
      <trkpt lat="42.674770999999986" lon="-1.8852689999999994">
        <ele>462.649</ele>
        <time>2022-08-25T11:13:54Z</time>
      </trkpt>
      <trkpt lat="42.67477799999998" lon="-1.8852859999999994">
        <ele>462.649</ele>
        <time>2022-08-25T11:13:55Z</time>
      </trkpt>
      <trkpt lat="42.67478399999998" lon="-1.8853019999999994">
        <ele>462.889</ele>
        <time>2022-08-25T11:13:56Z</time>
      </trkpt>
      <trkpt lat="42.67478999999998" lon="-1.8853209999999994">
        <ele>462.855</ele>
        <time>2022-08-25T11:13:57Z</time>
      </trkpt>
      <trkpt lat="42.67479599999998" lon="-1.8853399999999993">
        <ele>463.077</ele>
        <time>2022-08-25T11:13:58Z</time>
      </trkpt>
      <trkpt lat="42.674802999999976" lon="-1.8853569999999993">
        <ele>463.034</ele>
        <time>2022-08-25T11:13:59Z</time>
      </trkpt>
      <trkpt lat="42.67480999999997" lon="-1.8853769999999992">
        <ele>463.227</ele>
        <time>2022-08-25T11:14:00Z</time>
      </trkpt>
      <trkpt lat="42.67481599999997" lon="-1.8853959999999992">
        <ele>463.273</ele>
        <time>2022-08-25T11:14:01Z</time>
      </trkpt>
      <trkpt lat="42.67482199999997" lon="-1.8854149999999992">
        <ele>463.254</ele>
        <time>2022-08-25T11:14:02Z</time>
      </trkpt>
      <trkpt lat="42.67482899999997" lon="-1.8854339999999992">
        <ele>463.426</ele>
        <time>2022-08-25T11:14:03Z</time>
      </trkpt>
      <trkpt lat="42.674835999999964" lon="-1.885453999999999">
        <ele>463.447</ele>
        <time>2022-08-25T11:14:04Z</time>
      </trkpt>
      <trkpt lat="42.674840999999965" lon="-1.885472999999999">
        <ele>463.411</ele>
        <time>2022-08-25T11:14:05Z</time>
      </trkpt>
      <trkpt lat="42.67484499999996" lon="-1.885491999999999">
        <ele>463.409</ele>
        <time>2022-08-25T11:14:06Z</time>
      </trkpt>
      <trkpt lat="42.67484799999996" lon="-1.885511999999999">
        <ele>463.643</ele>
        <time>2022-08-25T11:14:07Z</time>
      </trkpt>
      <trkpt lat="42.674849999999964" lon="-1.885537999999999">
        <ele>463.653</ele>
        <time>2022-08-25T11:14:08Z</time>
      </trkpt>
      <trkpt lat="42.674851999999966" lon="-1.885564999999999">
        <ele>463.893</ele>
        <time>2022-08-25T11:14:09Z</time>
      </trkpt>
      <trkpt lat="42.67485299999996" lon="-1.885591999999999">
        <ele>463.849</ele>
        <time>2022-08-25T11:14:10Z</time>
      </trkpt>
      <trkpt lat="42.67485599999996" lon="-1.885622999999999">
        <ele>463.841</ele>
        <time>2022-08-25T11:14:11Z</time>
      </trkpt>
      <trkpt lat="42.67485899999996" lon="-1.885651999999999">
        <ele>464.048</ele>
        <time>2022-08-25T11:14:12Z</time>
      </trkpt>
      <trkpt lat="42.67486799999996" lon="-1.885708999999999">
        <ele>464.021</ele>
        <time>2022-08-25T11:14:14Z</time>
      </trkpt>
      <trkpt lat="42.67491499999996" lon="-1.885880999999999">
        <ele>464.427</ele>
        <time>2022-08-25T11:14:19Z</time>
      </trkpt>
      <trkpt lat="42.674924999999966" lon="-1.885926999999999">
        <ele>464.638</ele>
        <time>2022-08-25T11:14:20Z</time>
      </trkpt>
      <trkpt lat="42.67493499999997" lon="-1.885964999999999">
        <ele>464.815</ele>
        <time>2022-08-25T11:14:21Z</time>
      </trkpt>
      <trkpt lat="42.67494399999997" lon="-1.886001999999999">
        <ele>465.065</ele>
        <time>2022-08-25T11:14:22Z</time>
      </trkpt>
      <trkpt lat="42.67494999999997" lon="-1.886028999999999">
        <ele>465.211</ele>
        <time>2022-08-25T11:14:23Z</time>
      </trkpt>
      <trkpt lat="42.67497799999997" lon="-1.8861389999999991">
        <ele>465.409</ele>
        <time>2022-08-25T11:14:26Z</time>
      </trkpt>
      <trkpt lat="42.674986999999966" lon="-1.8861809999999992">
        <ele>465.442</ele>
        <time>2022-08-25T11:14:27Z</time>
      </trkpt>
      <trkpt lat="42.675001999999964" lon="-1.8862449999999993">
        <ele>465.632</ele>
        <time>2022-08-25T11:14:29Z</time>
      </trkpt>
      <trkpt lat="42.67500599999996" lon="-1.8862779999999992">
        <ele>465.622</ele>
        <time>2022-08-25T11:14:30Z</time>
      </trkpt>
      <trkpt lat="42.67501499999996" lon="-1.8863149999999993">
        <ele>465.888</ele>
        <time>2022-08-25T11:14:31Z</time>
      </trkpt>
      <trkpt lat="42.67502299999996" lon="-1.8863469999999993">
        <ele>465.860</ele>
        <time>2022-08-25T11:14:32Z</time>
      </trkpt>
      <trkpt lat="42.67502399999996" lon="-1.8863719999999993">
        <ele>466.267</ele>
        <time>2022-08-25T11:14:33Z</time>
      </trkpt>
      <trkpt lat="42.67502699999996" lon="-1.8864029999999992">
        <ele>466.890</ele>
        <time>2022-08-25T11:14:34Z</time>
      </trkpt>
      <trkpt lat="42.67503299999996" lon="-1.8864329999999991">
        <ele>466.826</ele>
        <time>2022-08-25T11:14:35Z</time>
      </trkpt>
      <trkpt lat="42.675038999999956" lon="-1.8864619999999992">
        <ele>467.437</ele>
        <time>2022-08-25T11:14:36Z</time>
      </trkpt>
      <trkpt lat="42.675044999999955" lon="-1.8864909999999993">
        <ele>467.454</ele>
        <time>2022-08-25T11:14:37Z</time>
      </trkpt>
      <trkpt lat="42.675049999999956" lon="-1.8865179999999993">
        <ele>467.656</ele>
        <time>2022-08-25T11:14:38Z</time>
      </trkpt>
      <trkpt lat="42.675055999999955" lon="-1.8865459999999992">
        <ele>467.811</ele>
        <time>2022-08-25T11:14:39Z</time>
      </trkpt>
      <trkpt lat="42.67505999999995" lon="-1.8865779999999992">
        <ele>467.809</ele>
        <time>2022-08-25T11:14:40Z</time>
      </trkpt>
      <trkpt lat="42.67506699999995" lon="-1.8866159999999992">
        <ele>468.096</ele>
        <time>2022-08-25T11:14:41Z</time>
      </trkpt>
      <trkpt lat="42.675073999999945" lon="-1.8866479999999992">
        <ele>468.286</ele>
        <time>2022-08-25T11:14:42Z</time>
      </trkpt>
      <trkpt lat="42.675076999999945" lon="-1.8866709999999993">
        <ele>468.286</ele>
        <time>2022-08-25T11:14:43Z</time>
      </trkpt>
      <trkpt lat="42.675081999999946" lon="-1.8866999999999994">
        <ele>468.472</ele>
        <time>2022-08-25T11:14:44Z</time>
      </trkpt>
      <trkpt lat="42.67508899999994" lon="-1.8867269999999994">
        <ele>468.444</ele>
        <time>2022-08-25T11:14:45Z</time>
      </trkpt>
      <trkpt lat="42.675098999999946" lon="-1.8867609999999995">
        <ele>468.441</ele>
        <time>2022-08-25T11:14:46Z</time>
      </trkpt>
      <trkpt lat="42.67510399999995" lon="-1.8867849999999995">
        <ele>468.684</ele>
        <time>2022-08-25T11:14:47Z</time>
      </trkpt>
      <trkpt lat="42.67510899999995" lon="-1.8868199999999995">
        <ele>468.630</ele>
        <time>2022-08-25T11:14:48Z</time>
      </trkpt>
      <trkpt lat="42.675112999999946" lon="-1.8868419999999995">
        <ele>468.621</ele>
        <time>2022-08-25T11:14:49Z</time>
      </trkpt>
      <trkpt lat="42.67511799999995" lon="-1.8868709999999995">
        <ele>468.685</ele>
        <time>2022-08-25T11:14:50Z</time>
      </trkpt>
      <trkpt lat="42.67512399999995" lon="-1.8869089999999995">
        <ele>468.889</ele>
        <time>2022-08-25T11:14:51Z</time>
      </trkpt>
      <trkpt lat="42.67513199999995" lon="-1.8869389999999995">
        <ele>468.817</ele>
        <time>2022-08-25T11:14:52Z</time>
      </trkpt>
      <trkpt lat="42.67513999999995" lon="-1.8869679999999995">
        <ele>468.809</ele>
        <time>2022-08-25T11:14:53Z</time>
      </trkpt>
      <trkpt lat="42.675143999999946" lon="-1.8869999999999996">
        <ele>468.869</ele>
        <time>2022-08-25T11:14:54Z</time>
      </trkpt>
      <trkpt lat="42.67514899999995" lon="-1.8870259999999996">
        <ele>468.859</ele>
        <time>2022-08-25T11:14:55Z</time>
      </trkpt>
      <trkpt lat="42.67515699999995" lon="-1.8870649999999995">
        <ele>468.839</ele>
        <time>2022-08-25T11:14:56Z</time>
      </trkpt>
      <trkpt lat="42.675163999999945" lon="-1.8870979999999995">
        <ele>468.835</ele>
        <time>2022-08-25T11:14:57Z</time>
      </trkpt>
      <trkpt lat="42.67517199999995" lon="-1.8871309999999994">
        <ele>468.847</ele>
        <time>2022-08-25T11:14:58Z</time>
      </trkpt>
      <trkpt lat="42.67517699999995" lon="-1.8871629999999995">
        <ele>468.884</ele>
        <time>2022-08-25T11:14:59Z</time>
      </trkpt>
      <trkpt lat="42.675183999999945" lon="-1.8871899999999995">
        <ele>468.877</ele>
        <time>2022-08-25T11:15:00Z</time>
      </trkpt>
      <trkpt lat="42.67520199999994" lon="-1.8873049999999996">
        <ele>468.663</ele>
        <time>2022-08-25T11:15:03Z</time>
      </trkpt>
      <trkpt lat="42.675203999999944" lon="-1.8873409999999995">
        <ele>468.494</ele>
        <time>2022-08-25T11:15:04Z</time>
      </trkpt>
      <trkpt lat="42.67520699999994" lon="-1.8873749999999996">
        <ele>468.289</ele>
        <time>2022-08-25T11:15:05Z</time>
      </trkpt>
      <trkpt lat="42.67524399999994" lon="-1.8875349999999995">
        <ele>467.806</ele>
        <time>2022-08-25T11:15:10Z</time>
      </trkpt>
      <trkpt lat="42.675276999999944" lon="-1.8877059999999994">
        <ele>467.426</ele>
        <time>2022-08-25T11:15:15Z</time>
      </trkpt>
      <trkpt lat="42.675307999999944" lon="-1.8878209999999995">
        <ele>467.209</ele>
        <time>2022-08-25T11:15:18Z</time>
      </trkpt>
      <trkpt lat="42.67538799999994" lon="-1.8880429999999995">
        <ele>467.039</ele>
        <time>2022-08-25T11:15:24Z</time>
      </trkpt>
      <trkpt lat="42.675473999999944" lon="-1.8882129999999995">
        <ele>467.049</ele>
        <time>2022-08-25T11:15:29Z</time>
      </trkpt>
      <trkpt lat="42.675487999999945" lon="-1.8882469999999996">
        <ele>467.039</ele>
        <time>2022-08-25T11:15:30Z</time>
      </trkpt>
      <trkpt lat="42.675515999999945" lon="-1.8883179999999995">
        <ele>467.265</ele>
        <time>2022-08-25T11:15:32Z</time>
      </trkpt>
      <trkpt lat="42.675529999999945" lon="-1.8883549999999996">
        <ele>467.247</ele>
        <time>2022-08-25T11:15:33Z</time>
      </trkpt>
      <trkpt lat="42.67554499999994" lon="-1.8883909999999995">
        <ele>467.244</ele>
        <time>2022-08-25T11:15:34Z</time>
      </trkpt>
      <trkpt lat="42.67556799999994" lon="-1.8885059999999996">
        <ele>467.247</ele>
        <time>2022-08-25T11:15:37Z</time>
      </trkpt>
      <trkpt lat="42.67560799999994" lon="-1.8888739999999995">
        <ele>466.643</ele>
        <time>2022-08-25T11:15:45Z</time>
      </trkpt>
      <trkpt lat="42.67561499999994" lon="-1.8889209999999994">
        <ele>466.684</ele>
        <time>2022-08-25T11:15:46Z</time>
      </trkpt>
      <trkpt lat="42.67562499999994" lon="-1.8889639999999994">
        <ele>466.621</ele>
        <time>2022-08-25T11:15:47Z</time>
      </trkpt>
      <trkpt lat="42.67563099999994" lon="-1.8889939999999994">
        <ele>466.641</ele>
        <time>2022-08-25T11:15:48Z</time>
      </trkpt>
      <trkpt lat="42.67563599999994" lon="-1.8890289999999994">
        <ele>466.605</ele>
        <time>2022-08-25T11:15:49Z</time>
      </trkpt>
      <trkpt lat="42.67564799999994" lon="-1.8890659999999995">
        <ele>466.609</ele>
        <time>2022-08-25T11:15:50Z</time>
      </trkpt>
      <trkpt lat="42.67566099999994" lon="-1.8890929999999995">
        <ele>466.663</ele>
        <time>2022-08-25T11:15:51Z</time>
      </trkpt>
      <trkpt lat="42.67566099999994" lon="-1.8891199999999995">
        <ele>466.653</ele>
        <time>2022-08-25T11:15:52Z</time>
      </trkpt>
      <trkpt lat="42.67565299999994" lon="-1.8891479999999994">
        <ele>466.893</ele>
        <time>2022-08-25T11:15:53Z</time>
      </trkpt>
      <trkpt lat="42.67565199999994" lon="-1.8891719999999994">
        <ele>466.889</ele>
        <time>2022-08-25T11:15:54Z</time>
      </trkpt>
      <trkpt lat="42.675661999999946" lon="-1.8891969999999993">
        <ele>467.021</ele>
        <time>2022-08-25T11:15:55Z</time>
      </trkpt>
      <trkpt lat="42.67567799999995" lon="-1.8892139999999993">
        <ele>467.078</ele>
        <time>2022-08-25T11:15:56Z</time>
      </trkpt>
      <trkpt lat="42.675692999999946" lon="-1.8892289999999994">
        <ele>467.081</ele>
        <time>2022-08-25T11:15:57Z</time>
      </trkpt>
      <trkpt lat="42.675698999999945" lon="-1.8892449999999994">
        <ele>467.077</ele>
        <time>2022-08-25T11:15:58Z</time>
      </trkpt>
      <trkpt lat="42.67569699999994" lon="-1.8892599999999995">
        <ele>467.248</ele>
        <time>2022-08-25T11:15:59Z</time>
      </trkpt>
      <trkpt lat="42.67568299999994" lon="-1.8892679999999995">
        <ele>467.268</ele>
        <time>2022-08-25T11:16:00Z</time>
      </trkpt>
      <trkpt lat="42.67567199999994" lon="-1.8892719999999994">
        <ele>467.442</ele>
        <time>2022-08-25T11:16:01Z</time>
      </trkpt>
      <trkpt lat="42.67564699999994" lon="-1.8892729999999993">
        <ele>467.426</ele>
        <time>2022-08-25T11:16:03Z</time>
      </trkpt>
      <trkpt lat="42.67563199999994" lon="-1.8892759999999993">
        <ele>467.609</ele>
        <time>2022-08-25T11:16:04Z</time>
      </trkpt>
      <trkpt lat="42.675619999999945" lon="-1.8892819999999992">
        <ele>467.637</ele>
        <time>2022-08-25T11:16:05Z</time>
      </trkpt>
      <trkpt lat="42.67560999999994" lon="-1.8892939999999991">
        <ele>467.637</ele>
        <time>2022-08-25T11:16:06Z</time>
      </trkpt>
      <trkpt lat="42.67560799999994" lon="-1.889297999999999">
        <ele>467.627</ele>
        <time>2022-08-25T11:16:07Z</time>
      </trkpt>
      <trkpt lat="42.67560399999994" lon="-1.889301999999999">
        <ele>467.623</ele>
        <time>2022-08-25T11:16:08Z</time>
      </trkpt>
      <trkpt lat="42.67559699999995" lon="-1.889308999999999">
        <ele>467.615</ele>
        <time>2022-08-25T11:16:09Z</time>
      </trkpt>
      <trkpt lat="42.67558499999995" lon="-1.889315999999999">
        <ele>467.692</ele>
        <time>2022-08-25T11:16:10Z</time>
      </trkpt>
      <trkpt lat="42.675568999999946" lon="-1.8893239999999991">
        <ele>467.645</ele>
        <time>2022-08-25T11:16:11Z</time>
      </trkpt>
      <trkpt lat="42.675560999999945" lon="-1.889337999999999">
        <ele>467.621</ele>
        <time>2022-08-25T11:16:12Z</time>
      </trkpt>
      <trkpt lat="42.67555999999995" lon="-1.889345999999999">
        <ele>467.662</ele>
        <time>2022-08-25T11:16:13Z</time>
      </trkpt>
      <trkpt lat="42.67555999999995" lon="-1.889345999999999">
        <ele>467.688</ele>
        <time>2022-08-25T11:16:14Z</time>
      </trkpt>
      <trkpt lat="42.67558999999995" lon="-1.8893639999999992">
        <ele>468.024</ele>
        <time>2022-08-25T11:18:55Z</time>
      </trkpt>
      <trkpt lat="42.67558999999995" lon="-1.8893639999999992">
        <ele>468.026</ele>
        <time>2022-08-25T11:18:57Z</time>
      </trkpt>
      <trkpt lat="42.67558999999995" lon="-1.8893639999999992">
        <ele>468.009</ele>
        <time>2022-08-25T11:19:06Z</time>
      </trkpt>
      <trkpt lat="42.67558999999995" lon="-1.8893639999999992">
        <ele>468.099</ele>
        <time>2022-08-25T11:19:08Z</time>
      </trkpt>
      <trkpt lat="42.67558999999995" lon="-1.8893639999999992">
        <ele>468.039</ele>
        <time>2022-08-25T11:19:12Z</time>
      </trkpt>
      <trkpt lat="42.67558999999995" lon="-1.8894129999999991">
        <ele>470.639</ele>
        <time>2022-08-25T11:23:20Z</time>
      </trkpt>
      <trkpt lat="42.67559199999995" lon="-1.889437999999999">
        <ele>470.675</ele>
        <time>2022-08-25T11:23:21Z</time>
      </trkpt>
      <trkpt lat="42.67559199999995" lon="-1.889461999999999">
        <ele>470.427</ele>
        <time>2022-08-25T11:23:22Z</time>
      </trkpt>
      <trkpt lat="42.67558399999995" lon="-1.8894849999999992">
        <ele>470.414</ele>
        <time>2022-08-25T11:23:23Z</time>
      </trkpt>
      <trkpt lat="42.67553699999995" lon="-1.889674999999999">
        <ele>470.297</ele>
        <time>2022-08-25T11:23:30Z</time>
      </trkpt>
      <trkpt lat="42.67551999999995" lon="-1.889809999999999">
        <ele>470.473</ele>
        <time>2022-08-25T11:23:35Z</time>
      </trkpt>
      <trkpt lat="42.67552099999995" lon="-1.8898329999999992">
        <ele>470.634</ele>
        <time>2022-08-25T11:23:36Z</time>
      </trkpt>
      <trkpt lat="42.67552899999995" lon="-1.8898529999999991">
        <ele>470.656</ele>
        <time>2022-08-25T11:23:37Z</time>
      </trkpt>
      <trkpt lat="42.675535999999944" lon="-1.8898709999999992">
        <ele>470.859</ele>
        <time>2022-08-25T11:23:38Z</time>
      </trkpt>
      <trkpt lat="42.67554299999994" lon="-1.8898969999999993">
        <ele>471.214</ele>
        <time>2022-08-25T11:23:39Z</time>
      </trkpt>
      <trkpt lat="42.67554899999994" lon="-1.8899129999999993">
        <ele>471.209</ele>
        <time>2022-08-25T11:23:40Z</time>
      </trkpt>
      <trkpt lat="42.67555799999994" lon="-1.8899279999999994">
        <ele>471.686</ele>
        <time>2022-08-25T11:23:41Z</time>
      </trkpt>
      <trkpt lat="42.67556299999994" lon="-1.8899459999999995">
        <ele>471.666</ele>
        <time>2022-08-25T11:23:42Z</time>
      </trkpt>
      <trkpt lat="42.67557199999994" lon="-1.8899679999999994">
        <ele>471.886</ele>
        <time>2022-08-25T11:23:43Z</time>
      </trkpt>
      <trkpt lat="42.67557399999994" lon="-1.8899819999999994">
        <ele>472.032</ele>
        <time>2022-08-25T11:23:44Z</time>
      </trkpt>
      <trkpt lat="42.67558199999994" lon="-1.8899949999999994">
        <ele>472.254</ele>
        <time>2022-08-25T11:23:45Z</time>
      </trkpt>
      <trkpt lat="42.67559399999994" lon="-1.8900039999999994">
        <ele>472.261</ele>
        <time>2022-08-25T11:23:46Z</time>
      </trkpt>
      <trkpt lat="42.67560999999994" lon="-1.8900129999999993">
        <ele>472.434</ele>
        <time>2022-08-25T11:23:47Z</time>
      </trkpt>
      <trkpt lat="42.67562699999994" lon="-1.8900249999999992">
        <ele>472.440</ele>
        <time>2022-08-25T11:23:48Z</time>
      </trkpt>
      <trkpt lat="42.67564799999994" lon="-1.8900629999999992">
        <ele>473.071</ele>
        <time>2022-08-25T11:23:50Z</time>
      </trkpt>
      <trkpt lat="42.67564999999994" lon="-1.8900819999999992">
        <ele>473.075</ele>
        <time>2022-08-25T11:23:51Z</time>
      </trkpt>
      <trkpt lat="42.67565499999994" lon="-1.8900949999999992">
        <ele>473.228</ele>
        <time>2022-08-25T11:23:52Z</time>
      </trkpt>
      <trkpt lat="42.67566399999994" lon="-1.8900979999999992">
        <ele>473.420</ele>
        <time>2022-08-25T11:23:53Z</time>
      </trkpt>
      <trkpt lat="42.67567599999994" lon="-1.8901009999999991">
        <ele>473.609</ele>
        <time>2022-08-25T11:23:54Z</time>
      </trkpt>
      <trkpt lat="42.67568899999994" lon="-1.890114999999999">
        <ele>473.658</ele>
        <time>2022-08-25T11:23:55Z</time>
      </trkpt>
      <trkpt lat="42.67570099999994" lon="-1.890133999999999">
        <ele>473.898</ele>
        <time>2022-08-25T11:23:56Z</time>
      </trkpt>
      <trkpt lat="42.67571499999994" lon="-1.8901469999999991">
        <ele>474.078</ele>
        <time>2022-08-25T11:23:57Z</time>
      </trkpt>
      <trkpt lat="42.67572899999994" lon="-1.8901599999999992">
        <ele>474.294</ele>
        <time>2022-08-25T11:23:58Z</time>
      </trkpt>
      <trkpt lat="42.67574299999994" lon="-1.8901779999999992">
        <ele>474.226</ele>
        <time>2022-08-25T11:23:59Z</time>
      </trkpt>
      <trkpt lat="42.67575999999994" lon="-1.8901929999999993">
        <ele>474.473</ele>
        <time>2022-08-25T11:24:00Z</time>
      </trkpt>
      <trkpt lat="42.67577899999994" lon="-1.8902029999999994">
        <ele>474.456</ele>
        <time>2022-08-25T11:24:01Z</time>
      </trkpt>
      <trkpt lat="42.67579299999994" lon="-1.8902099999999995">
        <ele>474.652</ele>
        <time>2022-08-25T11:24:02Z</time>
      </trkpt>
      <trkpt lat="42.67582099999994" lon="-1.8902159999999995">
        <ele>475.423</ele>
        <time>2022-08-25T11:24:08Z</time>
      </trkpt>
      <trkpt lat="42.67582999999994" lon="-1.8902179999999995">
        <ele>475.484</ele>
        <time>2022-08-25T11:24:09Z</time>
      </trkpt>
      <trkpt lat="42.67583699999994" lon="-1.8902219999999994">
        <ele>475.607</ele>
        <time>2022-08-25T11:24:10Z</time>
      </trkpt>
      <trkpt lat="42.67584799999994" lon="-1.8902329999999994">
        <ele>475.617</ele>
        <time>2022-08-25T11:24:11Z</time>
      </trkpt>
      <trkpt lat="42.67585799999994" lon="-1.8902499999999993">
        <ele>475.809</ele>
        <time>2022-08-25T11:24:12Z</time>
      </trkpt>
      <trkpt lat="42.67586299999994" lon="-1.8902549999999994">
        <ele>475.839</ele>
        <time>2022-08-25T11:24:13Z</time>
      </trkpt>
      <trkpt lat="42.675872999999946" lon="-1.8902699999999995">
        <ele>475.859</ele>
        <time>2022-08-25T11:24:14Z</time>
      </trkpt>
      <trkpt lat="42.67588899999995" lon="-1.8902829999999995">
        <ele>476.069</ele>
        <time>2022-08-25T11:24:15Z</time>
      </trkpt>
      <trkpt lat="42.67589999999995" lon="-1.8902919999999994">
        <ele>476.045</ele>
        <time>2022-08-25T11:24:16Z</time>
      </trkpt>
      <trkpt lat="42.67591399999995" lon="-1.8903079999999994">
        <ele>476.097</ele>
        <time>2022-08-25T11:24:17Z</time>
      </trkpt>
      <trkpt lat="42.675931999999946" lon="-1.8903119999999993">
        <ele>476.054</ele>
        <time>2022-08-25T11:24:18Z</time>
      </trkpt>
      <trkpt lat="42.675943999999944" lon="-1.8903139999999994">
        <ele>476.267</ele>
        <time>2022-08-25T11:24:19Z</time>
      </trkpt>
      <trkpt lat="42.67595299999994" lon="-1.8903219999999994">
        <ele>476.253</ele>
        <time>2022-08-25T11:24:20Z</time>
      </trkpt>
      <trkpt lat="42.67595699999994" lon="-1.8903219999999994">
        <ele>476.484</ele>
        <time>2022-08-25T11:24:21Z</time>
      </trkpt>
      <trkpt lat="42.67596299999994" lon="-1.8903339999999993">
        <ele>476.477</ele>
        <time>2022-08-25T11:24:22Z</time>
      </trkpt>
      <trkpt lat="42.67596899999994" lon="-1.8903429999999992">
        <ele>476.461</ele>
        <time>2022-08-25T11:24:23Z</time>
      </trkpt>
      <trkpt lat="42.675975999999935" lon="-1.8903469999999991">
        <ele>476.627</ele>
        <time>2022-08-25T11:24:24Z</time>
      </trkpt>
      <trkpt lat="42.67598599999994" lon="-1.8903489999999992">
        <ele>476.609</ele>
        <time>2022-08-25T11:24:25Z</time>
      </trkpt>
      <trkpt lat="42.67600199999994" lon="-1.8903449999999993">
        <ele>476.698</ele>
        <time>2022-08-25T11:24:26Z</time>
      </trkpt>
      <trkpt lat="42.67602099999994" lon="-1.8903569999999992">
        <ele>476.858</ele>
        <time>2022-08-25T11:24:28Z</time>
      </trkpt>
      <trkpt lat="42.67602899999994" lon="-1.8903629999999991">
        <ele>477.238</ele>
        <time>2022-08-25T11:24:29Z</time>
      </trkpt>
      <trkpt lat="42.67603199999994" lon="-1.8903649999999992">
        <ele>477.464</ele>
        <time>2022-08-25T11:24:30Z</time>
      </trkpt>
      <trkpt lat="42.67603199999994" lon="-1.8903649999999992">
        <ele>477.686</ele>
        <time>2022-08-25T11:24:31Z</time>
      </trkpt>
      <trkpt lat="42.67603199999994" lon="-1.8903649999999992">
        <ele>478.053</ele>
        <time>2022-08-25T11:24:45Z</time>
      </trkpt>
      <trkpt lat="42.67603199999994" lon="-1.8903649999999992">
        <ele>478.086</ele>
        <time>2022-08-25T11:24:46Z</time>
      </trkpt>
      <trkpt lat="42.67603199999994" lon="-1.8903649999999992">
        <ele>478.042</ele>
        <time>2022-08-25T11:24:49Z</time>
      </trkpt>
      <trkpt lat="42.67603199999994" lon="-1.8903649999999992">
        <ele>478.073</ele>
        <time>2022-08-25T11:24:52Z</time>
      </trkpt>
      <trkpt lat="42.67603199999994" lon="-1.8903619999999992">
        <ele>478.096</ele>
        <time>2022-08-25T11:24:53Z</time>
      </trkpt>
      <trkpt lat="42.67603199999994" lon="-1.8903509999999992">
        <ele>478.031</ele>
        <time>2022-08-25T11:24:54Z</time>
      </trkpt>
      <trkpt lat="42.67603199999994" lon="-1.8903489999999992">
        <ele>477.824</ele>
        <time>2022-08-25T11:24:56Z</time>
      </trkpt>
      <trkpt lat="42.67603499999994" lon="-1.8903489999999992">
        <ele>477.809</ele>
        <time>2022-08-25T11:24:57Z</time>
      </trkpt>
      <trkpt lat="42.67604199999994" lon="-1.890352999999999">
        <ele>477.660</ele>
        <time>2022-08-25T11:24:58Z</time>
      </trkpt>
      <trkpt lat="42.67603999999994" lon="-1.890366999999999">
        <ele>477.420</ele>
        <time>2022-08-25T11:25:00Z</time>
      </trkpt>
      <trkpt lat="42.67603899999994" lon="-1.890394999999999">
        <ele>477.430</ele>
        <time>2022-08-25T11:25:02Z</time>
      </trkpt>
      <trkpt lat="42.67604099999994" lon="-1.890397999999999">
        <ele>477.426</ele>
        <time>2022-08-25T11:25:03Z</time>
      </trkpt>
      <trkpt lat="42.67604099999994" lon="-1.890397999999999">
        <ele>477.438</ele>
        <time>2022-08-25T11:25:04Z</time>
      </trkpt>
      <trkpt lat="42.67604099999994" lon="-1.890397999999999">
        <ele>477.465</ele>
        <time>2022-08-25T11:25:05Z</time>
      </trkpt>
      <trkpt lat="42.67604099999994" lon="-1.890397999999999">
        <ele>477.648</ele>
        <time>2022-08-25T11:25:06Z</time>
      </trkpt>
      <trkpt lat="42.67604099999994" lon="-1.890397999999999">
        <ele>477.854</ele>
        <time>2022-08-25T11:25:07Z</time>
      </trkpt>
      <trkpt lat="42.67604099999994" lon="-1.890397999999999">
        <ele>478.025</ele>
        <time>2022-08-25T11:25:08Z</time>
      </trkpt>
      <trkpt lat="42.67604099999994" lon="-1.890397999999999">
        <ele>478.052</ele>
        <time>2022-08-25T11:25:09Z</time>
      </trkpt>
      <trkpt lat="42.67604099999994" lon="-1.890402999999999">
        <ele>478.253</ele>
        <time>2022-08-25T11:25:10Z</time>
      </trkpt>
      <trkpt lat="42.67603299999994" lon="-1.890445999999999">
        <ele>478.608</ele>
        <time>2022-08-25T11:25:11Z</time>
      </trkpt>
      <trkpt lat="42.67602899999994" lon="-1.890475999999999">
        <ele>478.809</ele>
        <time>2022-08-25T11:25:12Z</time>
      </trkpt>
      <trkpt lat="42.676024999999946" lon="-1.890497999999999">
        <ele>479.256</ele>
        <time>2022-08-25T11:25:13Z</time>
      </trkpt>
      <trkpt lat="42.676022999999944" lon="-1.8905199999999989">
        <ele>479.436</ele>
        <time>2022-08-25T11:25:14Z</time>
      </trkpt>
      <trkpt lat="42.67602099999994" lon="-1.890540999999999">
        <ele>479.496</ele>
        <time>2022-08-25T11:25:15Z</time>
      </trkpt>
      <trkpt lat="42.67601899999994" lon="-1.8905689999999988">
        <ele>479.672</ele>
        <time>2022-08-25T11:25:16Z</time>
      </trkpt>
      <trkpt lat="42.67602099999994" lon="-1.890594999999999">
        <ele>479.844</ele>
        <time>2022-08-25T11:25:17Z</time>
      </trkpt>
      <trkpt lat="42.67602099999994" lon="-1.890620999999999">
        <ele>479.841</ele>
        <time>2022-08-25T11:25:18Z</time>
      </trkpt>
      <trkpt lat="42.676016999999945" lon="-1.890638999999999">
        <ele>480.044</ele>
        <time>2022-08-25T11:25:19Z</time>
      </trkpt>
      <trkpt lat="42.67601599999995" lon="-1.890649999999999">
        <ele>480.050</ele>
        <time>2022-08-25T11:25:20Z</time>
      </trkpt>
      <trkpt lat="42.676013999999945" lon="-1.890654999999999">
        <ele>480.271</ele>
        <time>2022-08-25T11:25:21Z</time>
      </trkpt>
      <trkpt lat="42.67600099999994" lon="-1.890663999999999">
        <ele>480.427</ele>
        <time>2022-08-25T11:25:23Z</time>
      </trkpt>
      <trkpt lat="42.675991999999944" lon="-1.890679999999999">
        <ele>480.468</ele>
        <time>2022-08-25T11:25:24Z</time>
      </trkpt>
      <trkpt lat="42.67598699999994" lon="-1.890696999999999">
        <ele>480.814</ele>
        <time>2022-08-25T11:25:25Z</time>
      </trkpt>
      <trkpt lat="42.675982999999945" lon="-1.890717999999999">
        <ele>481.009</ele>
        <time>2022-08-25T11:25:26Z</time>
      </trkpt>
      <trkpt lat="42.675977999999944" lon="-1.890746999999999">
        <ele>481.283</ele>
        <time>2022-08-25T11:25:27Z</time>
      </trkpt>
      <trkpt lat="42.67597599999994" lon="-1.8907649999999991">
        <ele>481.683</ele>
        <time>2022-08-25T11:25:28Z</time>
      </trkpt>
      <trkpt lat="42.675971999999945" lon="-1.8907779999999992">
        <ele>481.693</ele>
        <time>2022-08-25T11:25:29Z</time>
      </trkpt>
      <trkpt lat="42.67596999999994" lon="-1.8907909999999992">
        <ele>482.019</ele>
        <time>2022-08-25T11:25:30Z</time>
      </trkpt>
      <trkpt lat="42.675954999999945" lon="-1.8908079999999992">
        <ele>482.061</ele>
        <time>2022-08-25T11:25:31Z</time>
      </trkpt>
      <trkpt lat="42.675948999999946" lon="-1.8908129999999992">
        <ele>482.248</ele>
        <time>2022-08-25T11:25:32Z</time>
      </trkpt>
      <trkpt lat="42.675940999999945" lon="-1.8908229999999993">
        <ele>482.231</ele>
        <time>2022-08-25T11:25:33Z</time>
      </trkpt>
      <trkpt lat="42.675931999999946" lon="-1.8908279999999993">
        <ele>482.477</ele>
        <time>2022-08-25T11:25:34Z</time>
      </trkpt>
      <trkpt lat="42.67592199999994" lon="-1.8908349999999994">
        <ele>482.648</ele>
        <time>2022-08-25T11:25:35Z</time>
      </trkpt>
      <trkpt lat="42.675915999999944" lon="-1.8908449999999994">
        <ele>482.673</ele>
        <time>2022-08-25T11:25:36Z</time>
      </trkpt>
      <trkpt lat="42.67591199999995" lon="-1.8908559999999994">
        <ele>482.885</ele>
        <time>2022-08-25T11:25:37Z</time>
      </trkpt>
      <trkpt lat="42.67591099999995" lon="-1.8908659999999995">
        <ele>482.813</ele>
        <time>2022-08-25T11:25:38Z</time>
      </trkpt>
      <trkpt lat="42.67590999999995" lon="-1.8908799999999995">
        <ele>483.009</ele>
        <time>2022-08-25T11:25:39Z</time>
      </trkpt>
      <trkpt lat="42.675908999999955" lon="-1.8908909999999994">
        <ele>483.068</ele>
        <time>2022-08-25T11:25:40Z</time>
      </trkpt>
      <trkpt lat="42.67590699999995" lon="-1.8909019999999994">
        <ele>483.248</ele>
        <time>2022-08-25T11:25:41Z</time>
      </trkpt>
      <trkpt lat="42.67590399999995" lon="-1.8909089999999995">
        <ele>483.418</ele>
        <time>2022-08-25T11:25:42Z</time>
      </trkpt>
      <trkpt lat="42.67590099999995" lon="-1.8909189999999996">
        <ele>483.434</ele>
        <time>2022-08-25T11:25:43Z</time>
      </trkpt>
      <trkpt lat="42.67589899999995" lon="-1.8909329999999995">
        <ele>483.656</ele>
        <time>2022-08-25T11:25:44Z</time>
      </trkpt>
      <trkpt lat="42.67589299999995" lon="-1.8909499999999995">
        <ele>483.873</ele>
        <time>2022-08-25T11:25:45Z</time>
      </trkpt>
      <trkpt lat="42.675888999999955" lon="-1.8909589999999994">
        <ele>483.896</ele>
        <time>2022-08-25T11:25:46Z</time>
      </trkpt>
      <trkpt lat="42.675883999999954" lon="-1.8909689999999995">
        <ele>483.882</ele>
        <time>2022-08-25T11:25:47Z</time>
      </trkpt>
      <trkpt lat="42.675883999999954" lon="-1.8909779999999994">
        <ele>483.823</ele>
        <time>2022-08-25T11:25:48Z</time>
      </trkpt>
      <trkpt lat="42.675880999999954" lon="-1.8909869999999993">
        <ele>484.295</ele>
        <time>2022-08-25T11:25:49Z</time>
      </trkpt>
      <trkpt lat="42.67587399999996" lon="-1.8909979999999993">
        <ele>484.449</ele>
        <time>2022-08-25T11:25:50Z</time>
      </trkpt>
      <trkpt lat="42.675863999999955" lon="-1.8910109999999993">
        <ele>484.423</ele>
        <time>2022-08-25T11:25:51Z</time>
      </trkpt>
      <trkpt lat="42.67584899999996" lon="-1.8910239999999994">
        <ele>484.609</ele>
        <time>2022-08-25T11:25:52Z</time>
      </trkpt>
      <trkpt lat="42.675840999999956" lon="-1.8910339999999994">
        <ele>484.880</ele>
        <time>2022-08-25T11:25:53Z</time>
      </trkpt>
      <trkpt lat="42.67583499999996" lon="-1.8910429999999994">
        <ele>485.060</ele>
        <time>2022-08-25T11:25:54Z</time>
      </trkpt>
      <trkpt lat="42.675826999999956" lon="-1.8910569999999993">
        <ele>485.450</ele>
        <time>2022-08-25T11:25:55Z</time>
      </trkpt>
      <trkpt lat="42.67582499999995" lon="-1.8910609999999992">
        <ele>485.816</ele>
        <time>2022-08-25T11:25:56Z</time>
      </trkpt>
      <trkpt lat="42.67582099999996" lon="-1.8910679999999993">
        <ele>486.068</ele>
        <time>2022-08-25T11:25:57Z</time>
      </trkpt>
      <trkpt lat="42.675818999999954" lon="-1.8910839999999993">
        <ele>486.045</ele>
        <time>2022-08-25T11:25:58Z</time>
      </trkpt>
      <trkpt lat="42.67581699999995" lon="-1.8910949999999993">
        <ele>486.468</ele>
        <time>2022-08-25T11:25:59Z</time>
      </trkpt>
      <trkpt lat="42.67581199999995" lon="-1.8911039999999992">
        <ele>486.684</ele>
        <time>2022-08-25T11:26:00Z</time>
      </trkpt>
      <trkpt lat="42.675804999999954" lon="-1.8911149999999992">
        <ele>487.035</ele>
        <time>2022-08-25T11:26:01Z</time>
      </trkpt>
      <trkpt lat="42.675798999999955" lon="-1.8911219999999993">
        <ele>487.436</ele>
        <time>2022-08-25T11:26:02Z</time>
      </trkpt>
      <trkpt lat="42.67579199999996" lon="-1.8911299999999993">
        <ele>487.617</ele>
        <time>2022-08-25T11:26:03Z</time>
      </trkpt>
      <trkpt lat="42.67578999999996" lon="-1.8911439999999993">
        <ele>487.818</ele>
        <time>2022-08-25T11:26:04Z</time>
      </trkpt>
      <trkpt lat="42.67577999999995" lon="-1.8911609999999992">
        <ele>487.809</ele>
        <time>2022-08-25T11:26:05Z</time>
      </trkpt>
      <trkpt lat="42.67577299999996" lon="-1.8911739999999992">
        <ele>488.054</ele>
        <time>2022-08-25T11:26:06Z</time>
      </trkpt>
      <trkpt lat="42.675762999999954" lon="-1.8911819999999993">
        <ele>488.294</ele>
        <time>2022-08-25T11:26:07Z</time>
      </trkpt>
      <trkpt lat="42.67575499999995" lon="-1.8911899999999993">
        <ele>488.474</ele>
        <time>2022-08-25T11:26:08Z</time>
      </trkpt>
      <trkpt lat="42.675745999999954" lon="-1.8911909999999992">
        <ele>488.850</ele>
        <time>2022-08-25T11:26:09Z</time>
      </trkpt>
      <trkpt lat="42.67572799999996" lon="-1.8911869999999993">
        <ele>488.822</ele>
        <time>2022-08-25T11:26:10Z</time>
      </trkpt>
      <trkpt lat="42.67571099999996" lon="-1.8911799999999992">
        <ele>489.259</ele>
        <time>2022-08-25T11:26:11Z</time>
      </trkpt>
      <trkpt lat="42.675699999999956" lon="-1.8911789999999993">
        <ele>489.212</ele>
        <time>2022-08-25T11:26:12Z</time>
      </trkpt>
      <trkpt lat="42.675685999999956" lon="-1.8911889999999993">
        <ele>489.478</ele>
        <time>2022-08-25T11:26:13Z</time>
      </trkpt>
      <trkpt lat="42.675671999999956" lon="-1.8911989999999994">
        <ele>489.679</ele>
        <time>2022-08-25T11:26:14Z</time>
      </trkpt>
      <trkpt lat="42.67566199999995" lon="-1.8912019999999994">
        <ele>489.688</ele>
        <time>2022-08-25T11:26:15Z</time>
      </trkpt>
      <trkpt lat="42.67565199999995" lon="-1.8912079999999993">
        <ele>489.824</ele>
        <time>2022-08-25T11:26:16Z</time>
      </trkpt>
      <trkpt lat="42.67563499999995" lon="-1.8912139999999993">
        <ele>489.826</ele>
        <time>2022-08-25T11:26:17Z</time>
      </trkpt>
      <trkpt lat="42.67562099999995" lon="-1.8912099999999994">
        <ele>490.009</ele>
        <time>2022-08-25T11:26:18Z</time>
      </trkpt>
      <trkpt lat="42.67560499999995" lon="-1.8912149999999994">
        <ele>490.089</ele>
        <time>2022-08-25T11:26:19Z</time>
      </trkpt>
      <trkpt lat="42.67559599999995" lon="-1.8912179999999994">
        <ele>490.079</ele>
        <time>2022-08-25T11:26:20Z</time>
      </trkpt>
      <trkpt lat="42.67558999999995" lon="-1.8912209999999994">
        <ele>490.259</ele>
        <time>2022-08-25T11:26:21Z</time>
      </trkpt>
      <trkpt lat="42.67557999999995" lon="-1.8912309999999994">
        <ele>490.285</ele>
        <time>2022-08-25T11:26:22Z</time>
      </trkpt>
      <trkpt lat="42.67556799999995" lon="-1.8912419999999994">
        <ele>490.437</ele>
        <time>2022-08-25T11:26:23Z</time>
      </trkpt>
      <trkpt lat="42.67555099999995" lon="-1.8912509999999993">
        <ele>490.494</ele>
        <time>2022-08-25T11:26:24Z</time>
      </trkpt>
      <trkpt lat="42.67553499999995" lon="-1.8912539999999993">
        <ele>490.487</ele>
        <time>2022-08-25T11:26:25Z</time>
      </trkpt>
      <trkpt lat="42.675521999999944" lon="-1.8912519999999993">
        <ele>490.433</ele>
        <time>2022-08-25T11:26:26Z</time>
      </trkpt>
      <trkpt lat="42.675509999999946" lon="-1.8912589999999994">
        <ele>490.684</ele>
        <time>2022-08-25T11:26:27Z</time>
      </trkpt>
      <trkpt lat="42.675504999999944" lon="-1.8912659999999994">
        <ele>490.646</ele>
        <time>2022-08-25T11:26:28Z</time>
      </trkpt>
      <trkpt lat="42.675504999999944" lon="-1.8912659999999994">
        <ele>490.688</ele>
        <time>2022-08-25T11:26:29Z</time>
      </trkpt>
      <trkpt lat="42.675504999999944" lon="-1.8912659999999994">
        <ele>491.016</ele>
        <time>2022-08-25T11:26:42Z</time>
      </trkpt>
      <trkpt lat="42.675504999999944" lon="-1.8912659999999994">
        <ele>491.009</ele>
        <time>2022-08-25T11:26:43Z</time>
      </trkpt>
      <trkpt lat="42.675504999999944" lon="-1.8912659999999994">
        <ele>491.085</ele>
        <time>2022-08-25T11:26:44Z</time>
      </trkpt>
      <trkpt lat="42.67742799999994" lon="-1.8973429999999996">
        <ele>454.885</ele>
        <time>2022-08-25T11:53:37Z</time>
      </trkpt>
      <trkpt lat="42.677401999999944" lon="-1.8974369999999996">
        <ele>454.625</ele>
        <time>2022-08-25T11:53:38Z</time>
      </trkpt>
      <trkpt lat="42.677296999999946" lon="-1.8978429999999995">
        <ele>453.221</ele>
        <time>2022-08-25T11:53:42Z</time>
      </trkpt>
      <trkpt lat="42.677266999999944" lon="-1.8979519999999994">
        <ele>452.883</ele>
        <time>2022-08-25T11:53:43Z</time>
      </trkpt>
      <trkpt lat="42.677234999999946" lon="-1.8980649999999994">
        <ele>452.680</ele>
        <time>2022-08-25T11:53:44Z</time>
      </trkpt>
      <trkpt lat="42.67717299999995" lon="-1.8983029999999994">
        <ele>451.843</ele>
        <time>2022-08-25T11:53:46Z</time>
      </trkpt>
      <trkpt lat="42.677068999999946" lon="-1.8986879999999995">
        <ele>450.029</ele>
        <time>2022-08-25T11:53:49Z</time>
      </trkpt>
      <trkpt lat="42.67703099999994" lon="-1.8988249999999995">
        <ele>449.680</ele>
        <time>2022-08-25T11:53:50Z</time>
      </trkpt>
      <trkpt lat="42.676993999999944" lon="-1.8989619999999996">
        <ele>449.042</ele>
        <time>2022-08-25T11:53:51Z</time>
      </trkpt>
      <trkpt lat="42.676917999999944" lon="-1.8992459999999995">
        <ele>447.422</ele>
        <time>2022-08-25T11:53:53Z</time>
      </trkpt>
      <trkpt lat="42.67683799999995" lon="-1.8995359999999994">
        <ele>446.214</ele>
        <time>2022-08-25T11:53:55Z</time>
      </trkpt>
      <trkpt lat="42.676753999999946" lon="-1.8998289999999995">
        <ele>445.209</ele>
        <time>2022-08-25T11:53:57Z</time>
      </trkpt>
      <trkpt lat="42.676708999999946" lon="-1.8999749999999995">
        <ele>444.415</ele>
        <time>2022-08-25T11:53:58Z</time>
      </trkpt>
      <trkpt lat="42.676610999999944" lon="-1.9002599999999996">
        <ele>443.435</ele>
        <time>2022-08-25T11:54:00Z</time>
      </trkpt>
      <trkpt lat="42.67656099999994" lon="-1.9003999999999996">
        <ele>442.645</ele>
        <time>2022-08-25T11:54:01Z</time>
      </trkpt>
      <trkpt lat="42.67650999999994" lon="-1.9005399999999997">
        <ele>442.281</ele>
        <time>2022-08-25T11:54:02Z</time>
      </trkpt>
      <trkpt lat="42.67650999999994" lon="-1.9005399999999997">
        <ele>441.213</ele>
        <time>2022-08-25T11:54:03Z</time>
      </trkpt>
      <trkpt lat="42.67641299999995" lon="-1.9008169999999998">
        <ele>440.860</ele>
        <time>2022-08-25T11:54:04Z</time>
      </trkpt>
      <trkpt lat="42.67636499999995" lon="-1.9009529999999997">
        <ele>440.043</ele>
        <time>2022-08-25T11:54:05Z</time>
      </trkpt>
      <trkpt lat="42.67636499999995" lon="-1.9009529999999997">
        <ele>439.269</ele>
        <time>2022-08-25T11:54:06Z</time>
      </trkpt>
      <trkpt lat="42.67626899999995" lon="-1.9012189999999998">
        <ele>438.840</ele>
        <time>2022-08-25T11:54:07Z</time>
      </trkpt>
      <trkpt lat="42.67622299999995" lon="-1.9013509999999998">
        <ele>438.028</ele>
        <time>2022-08-25T11:54:08Z</time>
      </trkpt>
      <trkpt lat="42.67617999999995" lon="-1.9014769999999999">
        <ele>437.689</ele>
        <time>2022-08-25T11:54:09Z</time>
      </trkpt>
      <trkpt lat="42.676136999999954" lon="-1.901603">
        <ele>437.017</ele>
        <time>2022-08-25T11:54:10Z</time>
      </trkpt>
      <trkpt lat="42.67609399999996" lon="-1.901726">
        <ele>436.209</ele>
        <time>2022-08-25T11:54:11Z</time>
      </trkpt>
      <trkpt lat="42.67605099999996" lon="-1.90185">
        <ele>435.663</ele>
        <time>2022-08-25T11:54:12Z</time>
      </trkpt>
      <trkpt lat="42.67600799999996" lon="-1.901971">
        <ele>435.013</ele>
        <time>2022-08-25T11:54:13Z</time>
      </trkpt>
      <trkpt lat="42.67596799999996" lon="-1.90209">
        <ele>434.833</ele>
        <time>2022-08-25T11:54:14Z</time>
      </trkpt>
      <trkpt lat="42.67592699999996" lon="-1.9022080000000001">
        <ele>434.439</ele>
        <time>2022-08-25T11:54:15Z</time>
      </trkpt>
      <trkpt lat="42.675885999999956" lon="-1.9023240000000001">
        <ele>434.011</ele>
        <time>2022-08-25T11:54:16Z</time>
      </trkpt>
      <trkpt lat="42.67584599999996" lon="-1.902441">
        <ele>433.498</ele>
        <time>2022-08-25T11:54:17Z</time>
      </trkpt>
      <trkpt lat="42.67580599999996" lon="-1.902557">
        <ele>433.051</ele>
        <time>2022-08-25T11:54:18Z</time>
      </trkpt>
      <trkpt lat="42.67576699999996" lon="-1.902674">
        <ele>432.817</ele>
        <time>2022-08-25T11:54:19Z</time>
      </trkpt>
      <trkpt lat="42.675728999999954" lon="-1.90279">
        <ele>432.058</ele>
        <time>2022-08-25T11:54:20Z</time>
      </trkpt>
      <trkpt lat="42.675691999999955" lon="-1.902905">
        <ele>431.636</ele>
        <time>2022-08-25T11:54:21Z</time>
      </trkpt>
      <trkpt lat="42.675691999999955" lon="-1.902905">
        <ele>431.017</ele>
        <time>2022-08-25T11:54:22Z</time>
      </trkpt>
      <trkpt lat="42.67561499999996" lon="-1.903134">
        <ele>430.418</ele>
        <time>2022-08-25T11:54:23Z</time>
      </trkpt>
      <trkpt lat="42.67549899999996" lon="-1.903466">
        <ele>429.409</ele>
        <time>2022-08-25T11:54:26Z</time>
      </trkpt>
      <trkpt lat="42.67540999999996" lon="-1.9036810000000002">
        <ele>428.484</ele>
        <time>2022-08-25T11:54:28Z</time>
      </trkpt>
      <trkpt lat="42.67535799999996" lon="-1.9037880000000003">
        <ele>428.044</ele>
        <time>2022-08-25T11:54:29Z</time>
      </trkpt>
      <trkpt lat="42.67524399999996" lon="-1.9039940000000002">
        <ele>427.034</ele>
        <time>2022-08-25T11:54:31Z</time>
      </trkpt>
      <trkpt lat="42.67505799999996" lon="-1.9043040000000002">
        <ele>425.860</ele>
        <time>2022-08-25T11:54:34Z</time>
      </trkpt>
      <trkpt lat="42.674928999999956" lon="-1.9045100000000001">
        <ele>424.852</ele>
        <time>2022-08-25T11:54:36Z</time>
      </trkpt>
      <trkpt lat="42.67472499999996" lon="-1.904821">
        <ele>423.489</ele>
        <time>2022-08-25T11:54:39Z</time>
      </trkpt>
      <trkpt lat="42.67458499999996" lon="-1.9050250000000002">
        <ele>422.272</ele>
        <time>2022-08-25T11:54:41Z</time>
      </trkpt>
      <trkpt lat="42.674371999999956" lon="-1.9053370000000003">
        <ele>421.058</ele>
        <time>2022-08-25T11:54:44Z</time>
      </trkpt>
      <trkpt lat="42.674230999999956" lon="-1.9055530000000003">
        <ele>419.879</ele>
        <time>2022-08-25T11:54:46Z</time>
      </trkpt>
      <trkpt lat="42.674087999999955" lon="-1.9057760000000004">
        <ele>418.662</ele>
        <time>2022-08-25T11:54:48Z</time>
      </trkpt>
      <trkpt lat="42.67394899999996" lon="-1.9060020000000004">
        <ele>417.483</ele>
        <time>2022-08-25T11:54:50Z</time>
      </trkpt>
      <trkpt lat="42.673881999999956" lon="-1.9061160000000004">
        <ele>416.811</ele>
        <time>2022-08-25T11:54:51Z</time>
      </trkpt>
      <trkpt lat="42.673817999999955" lon="-1.9062320000000004">
        <ele>416.209</ele>
        <time>2022-08-25T11:54:52Z</time>
      </trkpt>
      <trkpt lat="42.67369899999996" lon="-1.9064660000000004">
        <ele>415.267</ele>
        <time>2022-08-25T11:54:54Z</time>
      </trkpt>
      <trkpt lat="42.67364399999995" lon="-1.9065850000000004">
        <ele>415.067</ele>
        <time>2022-08-25T11:54:55Z</time>
      </trkpt>
      <trkpt lat="42.673589999999955" lon="-1.9067050000000003">
        <ele>414.497</ele>
        <time>2022-08-25T11:54:56Z</time>
      </trkpt>
      <trkpt lat="42.673538999999955" lon="-1.9068240000000003">
        <ele>414.053</ele>
        <time>2022-08-25T11:54:57Z</time>
      </trkpt>
      <trkpt lat="42.67348999999996" lon="-1.9069440000000002">
        <ele>413.895</ele>
        <time>2022-08-25T11:54:58Z</time>
      </trkpt>
      <trkpt lat="42.673445999999956" lon="-1.9070670000000003">
        <ele>413.422</ele>
        <time>2022-08-25T11:54:59Z</time>
      </trkpt>
      <trkpt lat="42.67340499999995" lon="-1.9071900000000004">
        <ele>413.015</ele>
        <time>2022-08-25T11:55:00Z</time>
      </trkpt>
      <trkpt lat="42.673364999999954" lon="-1.9073130000000005">
        <ele>412.481</ele>
        <time>2022-08-25T11:55:01Z</time>
      </trkpt>
      <trkpt lat="42.67332699999995" lon="-1.9074370000000005">
        <ele>412.232</ele>
        <time>2022-08-25T11:55:02Z</time>
      </trkpt>
      <trkpt lat="42.67325599999995" lon="-1.9076960000000005">
        <ele>411.098</ele>
        <time>2022-08-25T11:55:04Z</time>
      </trkpt>
      <trkpt lat="42.67316999999995" lon="-1.9080920000000006">
        <ele>409.815</ele>
        <time>2022-08-25T11:55:07Z</time>
      </trkpt>
      <trkpt lat="42.673145999999946" lon="-1.9082240000000006">
        <ele>408.826</ele>
        <time>2022-08-25T11:55:08Z</time>
      </trkpt>
      <trkpt lat="42.67312499999995" lon="-1.9083560000000006">
        <ele>408.209</ele>
        <time>2022-08-25T11:55:09Z</time>
      </trkpt>
      <trkpt lat="42.67310599999995" lon="-1.9084860000000006">
        <ele>407.650</ele>
        <time>2022-08-25T11:55:10Z</time>
      </trkpt>
      <trkpt lat="42.67309099999995" lon="-1.9086160000000005">
        <ele>406.810</ele>
        <time>2022-08-25T11:55:11Z</time>
      </trkpt>
      <trkpt lat="42.673066999999946" lon="-1.9088810000000005">
        <ele>405.470</ele>
        <time>2022-08-25T11:55:13Z</time>
      </trkpt>
      <trkpt lat="42.673058999999945" lon="-1.9090140000000004">
        <ele>405.026</ele>
        <time>2022-08-25T11:55:14Z</time>
      </trkpt>
      <trkpt lat="42.673052999999946" lon="-1.9091500000000003">
        <ele>404.218</ele>
        <time>2022-08-25T11:55:15Z</time>
      </trkpt>
      <trkpt lat="42.67304899999995" lon="-1.9092830000000003">
        <ele>403.885</ele>
        <time>2022-08-25T11:55:16Z</time>
      </trkpt>
      <trkpt lat="42.67304599999995" lon="-1.9094150000000003">
        <ele>403.258</ele>
        <time>2022-08-25T11:55:17Z</time>
      </trkpt>
      <trkpt lat="42.67304699999995" lon="-1.9096780000000002">
        <ele>402.024</ele>
        <time>2022-08-25T11:55:19Z</time>
      </trkpt>
      <trkpt lat="42.673058999999945" lon="-1.9099420000000003">
        <ele>401.015</ele>
        <time>2022-08-25T11:55:21Z</time>
      </trkpt>
      <trkpt lat="42.673058999999945" lon="-1.9099420000000003">
        <ele>400.624</ele>
        <time>2022-08-25T11:55:22Z</time>
      </trkpt>
      <trkpt lat="42.673117999999945" lon="-1.9104710000000003">
        <ele>399.204</ele>
        <time>2022-08-25T11:55:25Z</time>
      </trkpt>
      <trkpt lat="42.67316099999994" lon="-1.9107360000000002">
        <ele>398.414</ele>
        <time>2022-08-25T11:55:27Z</time>
      </trkpt>
      <trkpt lat="42.67318499999995" lon="-1.9108680000000002">
        <ele>397.809</ele>
        <time>2022-08-25T11:55:28Z</time>
      </trkpt>
      <trkpt lat="42.67321199999995" lon="-1.9109980000000002">
        <ele>397.683</ele>
        <time>2022-08-25T11:55:29Z</time>
      </trkpt>
      <trkpt lat="42.67323799999995" lon="-1.9111300000000002">
        <ele>396.653</ele>
        <time>2022-08-25T11:55:30Z</time>
      </trkpt>
      <trkpt lat="42.67336099999995" lon="-1.9116480000000002">
        <ele>395.483</ele>
        <time>2022-08-25T11:55:34Z</time>
      </trkpt>
      <trkpt lat="42.67339299999995" lon="-1.9117760000000001">
        <ele>394.089</ele>
        <time>2022-08-25T11:55:35Z</time>
      </trkpt>
      <trkpt lat="42.67342599999995" lon="-1.9119000000000002">
        <ele>393.621</ele>
        <time>2022-08-25T11:55:36Z</time>
      </trkpt>
      <trkpt lat="42.67345799999995" lon="-1.9120240000000002">
        <ele>392.678</ele>
        <time>2022-08-25T11:55:37Z</time>
      </trkpt>
      <trkpt lat="42.67349099999995" lon="-1.9121450000000002">
        <ele>392.241</ele>
        <time>2022-08-25T11:55:38Z</time>
      </trkpt>
      <trkpt lat="42.673522999999946" lon="-1.9122660000000002">
        <ele>391.697</ele>
        <time>2022-08-25T11:55:39Z</time>
      </trkpt>
      <trkpt lat="42.67355499999994" lon="-1.9123840000000003">
        <ele>391.258</ele>
        <time>2022-08-25T11:55:40Z</time>
      </trkpt>
      <trkpt lat="42.67358599999994" lon="-1.9125030000000003">
        <ele>391.023</ele>
        <time>2022-08-25T11:55:41Z</time>
      </trkpt>
      <trkpt lat="42.67361699999994" lon="-1.9126200000000002">
        <ele>390.683</ele>
        <time>2022-08-25T11:55:42Z</time>
      </trkpt>
      <trkpt lat="42.67364899999994" lon="-1.912732">
        <ele>390.211</ele>
        <time>2022-08-25T11:55:43Z</time>
      </trkpt>
      <trkpt lat="42.67368299999994" lon="-1.912841">
        <ele>389.609</ele>
        <time>2022-08-25T11:55:44Z</time>
      </trkpt>
      <trkpt lat="42.67371699999994" lon="-1.91295">
        <ele>389.273</ele>
        <time>2022-08-25T11:55:45Z</time>
      </trkpt>
      <trkpt lat="42.67375099999994" lon="-1.9130559999999999">
        <ele>388.823</ele>
        <time>2022-08-25T11:55:46Z</time>
      </trkpt>
      <trkpt lat="42.673785999999936" lon="-1.9131589999999998">
        <ele>388.263</ele>
        <time>2022-08-25T11:55:47Z</time>
      </trkpt>
      <trkpt lat="42.67382199999994" lon="-1.913263">
        <ele>388.069</ele>
        <time>2022-08-25T11:55:48Z</time>
      </trkpt>
      <trkpt lat="42.67382199999994" lon="-1.913263">
        <ele>387.261</ele>
        <time>2022-08-25T11:55:49Z</time>
      </trkpt>
      <trkpt lat="42.67389199999994" lon="-1.913468">
        <ele>386.898</ele>
        <time>2022-08-25T11:55:50Z</time>
      </trkpt>
      <trkpt lat="42.67392499999994" lon="-1.913568">
        <ele>386.231</ele>
        <time>2022-08-25T11:55:51Z</time>
      </trkpt>
      <trkpt lat="42.67395699999994" lon="-1.9136659999999999">
        <ele>385.887</ele>
        <time>2022-08-25T11:55:52Z</time>
      </trkpt>
      <trkpt lat="42.67398399999994" lon="-1.9137659999999999">
        <ele>385.618</ele>
        <time>2022-08-25T11:55:53Z</time>
      </trkpt>
      <trkpt lat="42.67401299999994" lon="-1.9138589999999998">
        <ele>385.675</ele>
        <time>2022-08-25T11:55:54Z</time>
      </trkpt>
      <trkpt lat="42.67404099999994" lon="-1.9139519999999997">
        <ele>385.428</ele>
        <time>2022-08-25T11:55:55Z</time>
      </trkpt>
      <trkpt lat="42.674069999999936" lon="-1.9140459999999997">
        <ele>385.220</ele>
        <time>2022-08-25T11:55:56Z</time>
      </trkpt>
      <trkpt lat="42.67412899999994" lon="-1.9142369999999997">
        <ele>384.209</ele>
        <time>2022-08-25T11:55:58Z</time>
      </trkpt>
      <trkpt lat="42.67416199999994" lon="-1.9143309999999998">
        <ele>383.868</ele>
        <time>2022-08-25T11:55:59Z</time>
      </trkpt>
      <trkpt lat="42.674255999999936" lon="-1.9145969999999999">
        <ele>383.248</ele>
        <time>2022-08-25T11:56:02Z</time>
      </trkpt>
      <trkpt lat="42.67428599999994" lon="-1.9146859999999999">
        <ele>383.038</ele>
        <time>2022-08-25T11:56:03Z</time>
      </trkpt>
      <trkpt lat="42.67428599999994" lon="-1.9146859999999999">
        <ele>382.844</ele>
        <time>2022-08-25T11:56:04Z</time>
      </trkpt>
      <trkpt lat="42.67434499999994" lon="-1.914858">
        <ele>382.686</ele>
        <time>2022-08-25T11:56:05Z</time>
      </trkpt>
      <trkpt lat="42.67437499999994" lon="-1.914942">
        <ele>382.623</ele>
        <time>2022-08-25T11:56:06Z</time>
      </trkpt>
      <trkpt lat="42.674401999999944" lon="-1.915025">
        <ele>382.456</ele>
        <time>2022-08-25T11:56:07Z</time>
      </trkpt>
      <trkpt lat="42.67445399999994" lon="-1.915187">
        <ele>382.042</ele>
        <time>2022-08-25T11:56:09Z</time>
      </trkpt>
      <trkpt lat="42.67447899999994" lon="-1.915265">
        <ele>381.853</ele>
        <time>2022-08-25T11:56:10Z</time>
      </trkpt>
      <trkpt lat="42.674502999999945" lon="-1.91534">
        <ele>381.862</ele>
        <time>2022-08-25T11:56:11Z</time>
      </trkpt>
      <trkpt lat="42.674527999999945" lon="-1.915414">
        <ele>381.683</ele>
        <time>2022-08-25T11:56:12Z</time>
      </trkpt>
      <trkpt lat="42.674552999999946" lon="-1.915487">
        <ele>381.611</ele>
        <time>2022-08-25T11:56:13Z</time>
      </trkpt>
      <trkpt lat="42.67457699999995" lon="-1.915556">
        <ele>381.609</ele>
        <time>2022-08-25T11:56:14Z</time>
      </trkpt>
      <trkpt lat="42.67459899999995" lon="-1.915624">
        <ele>381.677</ele>
        <time>2022-08-25T11:56:15Z</time>
      </trkpt>
      <trkpt lat="42.67462099999995" lon="-1.915689">
        <ele>381.687</ele>
        <time>2022-08-25T11:56:16Z</time>
      </trkpt>
      <trkpt lat="42.67463799999995" lon="-1.915756">
        <ele>381.667</ele>
        <time>2022-08-25T11:56:17Z</time>
      </trkpt>
      <trkpt lat="42.67465899999995" lon="-1.915818">
        <ele>381.423</ele>
        <time>2022-08-25T11:56:18Z</time>
      </trkpt>
      <trkpt lat="42.67467899999995" lon="-1.915876">
        <ele>381.475</ele>
        <time>2022-08-25T11:56:19Z</time>
      </trkpt>
      <trkpt lat="42.67469899999995" lon="-1.9159309999999998">
        <ele>381.622</ele>
        <time>2022-08-25T11:56:20Z</time>
      </trkpt>
      <trkpt lat="42.674716999999944" lon="-1.915984">
        <ele>381.665</ele>
        <time>2022-08-25T11:56:21Z</time>
      </trkpt>
      <trkpt lat="42.67473299999995" lon="-1.916035">
        <ele>381.671</ele>
        <time>2022-08-25T11:56:22Z</time>
      </trkpt>
      <trkpt lat="42.674749999999946" lon="-1.916085">
        <ele>381.652</ele>
        <time>2022-08-25T11:56:23Z</time>
      </trkpt>
      <trkpt lat="42.67476599999995" lon="-1.916132">
        <ele>381.623</ele>
        <time>2022-08-25T11:56:24Z</time>
      </trkpt>
      <trkpt lat="42.67478299999995" lon="-1.916175">
        <ele>381.483</ele>
        <time>2022-08-25T11:56:25Z</time>
      </trkpt>
      <trkpt lat="42.67479999999995" lon="-1.916219">
        <ele>381.411</ele>
        <time>2022-08-25T11:56:26Z</time>
      </trkpt>
      <trkpt lat="42.674814999999946" lon="-1.9162629999999998">
        <ele>381.409</ele>
        <time>2022-08-25T11:56:27Z</time>
      </trkpt>
      <trkpt lat="42.674826999999944" lon="-1.916308">
        <ele>381.493</ele>
        <time>2022-08-25T11:56:28Z</time>
      </trkpt>
      <trkpt lat="42.67484199999994" lon="-1.91635">
        <ele>381.453</ele>
        <time>2022-08-25T11:56:29Z</time>
      </trkpt>
      <trkpt lat="42.674857999999944" lon="-1.916392">
        <ele>381.443</ele>
        <time>2022-08-25T11:56:30Z</time>
      </trkpt>
      <trkpt lat="42.674871999999944" lon="-1.9164340000000002">
        <ele>381.459</ele>
        <time>2022-08-25T11:56:31Z</time>
      </trkpt>
      <trkpt lat="42.674885999999944" lon="-1.916473">
        <ele>381.641</ele>
        <time>2022-08-25T11:56:32Z</time>
      </trkpt>
      <trkpt lat="42.674899999999944" lon="-1.9165130000000001">
        <ele>381.628</ele>
        <time>2022-08-25T11:56:33Z</time>
      </trkpt>
      <trkpt lat="42.674910999999945" lon="-1.916554">
        <ele>381.881</ele>
        <time>2022-08-25T11:56:34Z</time>
      </trkpt>
      <trkpt lat="42.67492299999994" lon="-1.9165940000000001">
        <ele>381.887</ele>
        <time>2022-08-25T11:56:35Z</time>
      </trkpt>
      <trkpt lat="42.67493699999994" lon="-1.9166310000000002">
        <ele>381.688</ele>
        <time>2022-08-25T11:56:36Z</time>
      </trkpt>
      <trkpt lat="42.67494899999994" lon="-1.9166670000000001">
        <ele>381.837</ele>
        <time>2022-08-25T11:56:37Z</time>
      </trkpt>
      <trkpt lat="42.67495799999994" lon="-1.9167040000000002">
        <ele>381.649</ele>
        <time>2022-08-25T11:56:38Z</time>
      </trkpt>
      <trkpt lat="42.67496799999994" lon="-1.9167420000000002">
        <ele>381.813</ele>
        <time>2022-08-25T11:56:39Z</time>
      </trkpt>
      <trkpt lat="42.67499599999994" lon="-1.9168060000000002">
        <ele>382.009</ele>
        <time>2022-08-25T11:56:41Z</time>
      </trkpt>
      <trkpt lat="42.675006999999944" lon="-1.9168370000000001">
        <ele>382.214</ele>
        <time>2022-08-25T11:56:42Z</time>
      </trkpt>
      <trkpt lat="42.67501899999994" lon="-1.916867">
        <ele>382.274</ele>
        <time>2022-08-25T11:56:43Z</time>
      </trkpt>
      <trkpt lat="42.675031999999945" lon="-1.9169040000000002">
        <ele>382.244</ele>
        <time>2022-08-25T11:56:44Z</time>
      </trkpt>
      <trkpt lat="42.67506399999994" lon="-1.9169880000000001">
        <ele>382.250</ele>
        <time>2022-08-25T11:56:47Z</time>
      </trkpt>
      <trkpt lat="42.675076999999945" lon="-1.917018">
        <ele>382.232</ele>
        <time>2022-08-25T11:56:48Z</time>
      </trkpt>
      <trkpt lat="42.67508699999995" lon="-1.917049">
        <ele>382.269</ele>
        <time>2022-08-25T11:56:49Z</time>
      </trkpt>
      <trkpt lat="42.67510599999995" lon="-1.917112">
        <ele>382.292</ele>
        <time>2022-08-25T11:56:51Z</time>
      </trkpt>
      <trkpt lat="42.67516399999995" lon="-1.917277">
        <ele>382.258</ele>
        <time>2022-08-25T11:56:56Z</time>
      </trkpt>
      <trkpt lat="42.67517599999995" lon="-1.9173099999999998">
        <ele>382.259</ele>
        <time>2022-08-25T11:56:57Z</time>
      </trkpt>
      <trkpt lat="42.67519899999995" lon="-1.9173779999999998">
        <ele>382.221</ele>
        <time>2022-08-25T11:56:59Z</time>
      </trkpt>
      <trkpt lat="42.67526699999995" lon="-1.9175839999999997">
        <ele>382.241</ele>
        <time>2022-08-25T11:57:05Z</time>
      </trkpt>
      <trkpt lat="42.67531099999995" lon="-1.9177189999999997">
        <ele>382.205</ele>
        <time>2022-08-25T11:57:09Z</time>
      </trkpt>
      <trkpt lat="42.675320999999954" lon="-1.9177519999999997">
        <ele>382.409</ele>
        <time>2022-08-25T11:57:10Z</time>
      </trkpt>
      <trkpt lat="42.675382999999954" lon="-1.9179439999999996">
        <ele>382.643</ele>
        <time>2022-08-25T11:57:15Z</time>
      </trkpt>
      <trkpt lat="42.67542299999995" lon="-1.9180549999999996">
        <ele>382.883</ele>
        <time>2022-08-25T11:57:18Z</time>
      </trkpt>
      <trkpt lat="42.67543799999995" lon="-1.9180909999999995">
        <ele>382.843</ele>
        <time>2022-08-25T11:57:19Z</time>
      </trkpt>
      <trkpt lat="42.67545099999995" lon="-1.9181269999999995">
        <ele>382.879</ele>
        <time>2022-08-25T11:57:20Z</time>
      </trkpt>
      <trkpt lat="42.67547899999995" lon="-1.9181959999999996">
        <ele>382.851</ele>
        <time>2022-08-25T11:57:22Z</time>
      </trkpt>
      <trkpt lat="42.675491999999956" lon="-1.9182319999999995">
        <ele>382.868</ele>
        <time>2022-08-25T11:57:23Z</time>
      </trkpt>
      <trkpt lat="42.675503999999954" lon="-1.9182659999999996">
        <ele>382.821</ele>
        <time>2022-08-25T11:57:24Z</time>
      </trkpt>
      <trkpt lat="42.675514999999955" lon="-1.9182999999999997">
        <ele>382.847</ele>
        <time>2022-08-25T11:57:25Z</time>
      </trkpt>
      <trkpt lat="42.675522999999956" lon="-1.9183369999999997">
        <ele>382.868</ele>
        <time>2022-08-25T11:57:26Z</time>
      </trkpt>
      <trkpt lat="42.67555799999995" lon="-1.9184439999999998">
        <ele>382.857</ele>
        <time>2022-08-25T11:57:29Z</time>
      </trkpt>
      <trkpt lat="42.675570999999955" lon="-1.9184789999999998">
        <ele>382.800</ele>
        <time>2022-08-25T11:57:31Z</time>
      </trkpt>
      <trkpt lat="42.675635999999955" lon="-1.9186609999999997">
        <ele>383.020</ele>
        <time>2022-08-25T11:57:35Z</time>
      </trkpt>
      <trkpt lat="42.675646999999955" lon="-1.9186979999999998">
        <ele>383.009</ele>
        <time>2022-08-25T11:57:36Z</time>
      </trkpt>
      <trkpt lat="42.67567099999996" lon="-1.9187699999999999">
        <ele>383.276</ele>
        <time>2022-08-25T11:57:38Z</time>
      </trkpt>
      <trkpt lat="42.67568099999996" lon="-1.9188029999999998">
        <ele>383.246</ele>
        <time>2022-08-25T11:57:39Z</time>
      </trkpt>
      <trkpt lat="42.67568899999996" lon="-1.9188399999999999">
        <ele>383.296</ele>
        <time>2022-08-25T11:57:40Z</time>
      </trkpt>
      <trkpt lat="42.675696999999964" lon="-1.9188709999999998">
        <ele>383.232</ele>
        <time>2022-08-25T11:57:41Z</time>
      </trkpt>
      <trkpt lat="42.67570999999997" lon="-1.9189049999999999">
        <ele>383.254</ele>
        <time>2022-08-25T11:57:42Z</time>
      </trkpt>
      <trkpt lat="42.67572099999997" lon="-1.9189349999999998">
        <ele>383.231</ele>
        <time>2022-08-25T11:57:43Z</time>
      </trkpt>
      <trkpt lat="42.67573399999997" lon="-1.9189729999999998">
        <ele>383.274</ele>
        <time>2022-08-25T11:57:44Z</time>
      </trkpt>
      <trkpt lat="42.67574299999997" lon="-1.918999">
        <ele>383.460</ele>
        <time>2022-08-25T11:57:45Z</time>
      </trkpt>
      <trkpt lat="42.67577599999997" lon="-1.91909">
        <ele>383.681</ele>
        <time>2022-08-25T11:57:48Z</time>
      </trkpt>
      <trkpt lat="42.675785999999974" lon="-1.91912">
        <ele>383.674</ele>
        <time>2022-08-25T11:57:49Z</time>
      </trkpt>
      <trkpt lat="42.675796999999974" lon="-1.9191509999999998">
        <ele>383.856</ele>
        <time>2022-08-25T11:57:50Z</time>
      </trkpt>
      <trkpt lat="42.675807999999975" lon="-1.9191809999999998">
        <ele>383.821</ele>
        <time>2022-08-25T11:57:51Z</time>
      </trkpt>
      <trkpt lat="42.67581999999997" lon="-1.9192099999999999">
        <ele>383.809</ele>
        <time>2022-08-25T11:57:52Z</time>
      </trkpt>
      <trkpt lat="42.675827999999974" lon="-1.9192399999999998">
        <ele>383.868</ele>
        <time>2022-08-25T11:57:53Z</time>
      </trkpt>
      <trkpt lat="42.67583399999997" lon="-1.9192719999999999">
        <ele>384.018</ele>
        <time>2022-08-25T11:57:54Z</time>
      </trkpt>
      <trkpt lat="42.67584099999997" lon="-1.9192999999999998">
        <ele>384.088</ele>
        <time>2022-08-25T11:57:55Z</time>
      </trkpt>
      <trkpt lat="42.67584999999997" lon="-1.9193259999999999">
        <ele>384.254</ele>
        <time>2022-08-25T11:57:56Z</time>
      </trkpt>
      <trkpt lat="42.67584999999997" lon="-1.9193259999999999">
        <ele>384.286</ele>
        <time>2022-08-25T11:57:57Z</time>
      </trkpt>
      <trkpt lat="42.67587499999997" lon="-1.9193769999999999">
        <ele>384.293</ele>
        <time>2022-08-25T11:57:58Z</time>
      </trkpt>
      <trkpt lat="42.67588599999997" lon="-1.9194039999999999">
        <ele>384.436</ele>
        <time>2022-08-25T11:57:59Z</time>
      </trkpt>
      <trkpt lat="42.67589299999997" lon="-1.9194349999999998">
        <ele>384.442</ele>
        <time>2022-08-25T11:58:00Z</time>
      </trkpt>
      <trkpt lat="42.67589999999996" lon="-1.9194669999999998">
        <ele>384.483</ele>
        <time>2022-08-25T11:58:01Z</time>
      </trkpt>
      <trkpt lat="42.675918999999965" lon="-1.9195619999999998">
        <ele>384.672</ele>
        <time>2022-08-25T11:58:04Z</time>
      </trkpt>
      <trkpt lat="42.67595899999996" lon="-1.9196409999999997">
        <ele>384.613</ele>
        <time>2022-08-25T11:58:07Z</time>
      </trkpt>
      <trkpt lat="42.67596899999997" lon="-1.9196649999999997">
        <ele>384.814</ele>
        <time>2022-08-25T11:58:08Z</time>
      </trkpt>
      <trkpt lat="42.67597599999996" lon="-1.9196889999999998">
        <ele>384.809</ele>
        <time>2022-08-25T11:58:09Z</time>
      </trkpt>
      <trkpt lat="42.675980999999965" lon="-1.9197159999999998">
        <ele>384.828</ele>
        <time>2022-08-25T11:58:10Z</time>
      </trkpt>
      <trkpt lat="42.676045999999964" lon="-1.9199279999999999">
        <ele>385.678</ele>
        <time>2022-08-25T11:58:18Z</time>
      </trkpt>
      <trkpt lat="42.676045999999964" lon="-1.9199279999999999">
        <ele>385.828</ele>
        <time>2022-08-25T11:58:19Z</time>
      </trkpt>
      <trkpt lat="42.67608099999996" lon="-1.920038">
        <ele>386.014</ele>
        <time>2022-08-25T11:58:22Z</time>
      </trkpt>
      <trkpt lat="42.67608599999996" lon="-1.920062">
        <ele>386.236</ele>
        <time>2022-08-25T11:58:23Z</time>
      </trkpt>
      <trkpt lat="42.67608999999996" lon="-1.920083">
        <ele>386.433</ele>
        <time>2022-08-25T11:58:24Z</time>
      </trkpt>
      <trkpt lat="42.676096999999956" lon="-1.920103">
        <ele>386.496</ele>
        <time>2022-08-25T11:58:25Z</time>
      </trkpt>
      <trkpt lat="42.676110999999956" lon="-1.920119">
        <ele>386.662</ele>
        <time>2022-08-25T11:58:26Z</time>
      </trkpt>
      <trkpt lat="42.676124999999956" lon="-1.9201359999999998">
        <ele>386.673</ele>
        <time>2022-08-25T11:58:27Z</time>
      </trkpt>
      <trkpt lat="42.67613599999996" lon="-1.9201559999999998">
        <ele>386.831</ele>
        <time>2022-08-25T11:58:28Z</time>
      </trkpt>
      <trkpt lat="42.67614299999995" lon="-1.9201759999999997">
        <ele>386.861</ele>
        <time>2022-08-25T11:58:29Z</time>
      </trkpt>
      <trkpt lat="42.676156999999954" lon="-1.9202199999999996">
        <ele>386.807</ele>
        <time>2022-08-25T11:58:31Z</time>
      </trkpt>
      <trkpt lat="42.67616699999996" lon="-1.9202439999999996">
        <ele>387.009</ele>
        <time>2022-08-25T11:58:32Z</time>
      </trkpt>
      <trkpt lat="42.67617999999996" lon="-1.9202669999999997">
        <ele>387.254</ele>
        <time>2022-08-25T11:58:33Z</time>
      </trkpt>
      <trkpt lat="42.67619599999996" lon="-1.9203159999999997">
        <ele>387.274</ele>
        <time>2022-08-25T11:58:35Z</time>
      </trkpt>
      <trkpt lat="42.67620399999996" lon="-1.9203379999999997">
        <ele>387.414</ele>
        <time>2022-08-25T11:58:36Z</time>
      </trkpt>
      <trkpt lat="42.676216999999966" lon="-1.9203889999999997">
        <ele>387.840</ele>
        <time>2022-08-25T11:58:39Z</time>
      </trkpt>
      <trkpt lat="42.676281999999965" lon="-1.9205819999999998">
        <ele>388.282</ele>
        <time>2022-08-25T11:58:45Z</time>
      </trkpt>
      <trkpt lat="42.67630099999997" lon="-1.9206399999999997">
        <ele>388.229</ele>
        <time>2022-08-25T11:58:47Z</time>
      </trkpt>
      <trkpt lat="42.676309999999965" lon="-1.9206619999999996">
        <ele>388.262</ele>
        <time>2022-08-25T11:58:48Z</time>
      </trkpt>
      <trkpt lat="42.676317999999966" lon="-1.9206869999999996">
        <ele>388.278</ele>
        <time>2022-08-25T11:58:49Z</time>
      </trkpt>
      <trkpt lat="42.67636699999996" lon="-1.9208479999999997">
        <ele>388.669</ele>
        <time>2022-08-25T11:58:56Z</time>
      </trkpt>
      <trkpt lat="42.67638499999996" lon="-1.9209359999999998">
        <ele>388.829</ele>
        <time>2022-08-25T11:58:58Z</time>
      </trkpt>
      <trkpt lat="42.67639899999996" lon="-1.9209979999999998">
        <ele>388.800</ele>
        <time>2022-08-25T11:59:00Z</time>
      </trkpt>
      <trkpt lat="42.67644499999996" lon="-1.9211519999999997">
        <ele>389.620</ele>
        <time>2022-08-25T11:59:05Z</time>
      </trkpt>
      <trkpt lat="42.67645299999996" lon="-1.9211829999999996">
        <ele>389.809</ele>
        <time>2022-08-25T11:59:06Z</time>
      </trkpt>
      <trkpt lat="42.67648699999996" lon="-1.9213039999999997">
        <ele>390.233</ele>
        <time>2022-08-25T11:59:10Z</time>
      </trkpt>
      <trkpt lat="42.676552999999956" lon="-1.9214789999999997">
        <ele>390.673</ele>
        <time>2022-08-25T11:59:16Z</time>
      </trkpt>
      <trkpt lat="42.67667899999996" lon="-1.9218059999999997">
        <ele>391.043</ele>
        <time>2022-08-25T11:59:27Z</time>
      </trkpt>
      <trkpt lat="42.67669599999996" lon="-1.9218719999999996">
        <ele>391.059</ele>
        <time>2022-08-25T11:59:29Z</time>
      </trkpt>
      <trkpt lat="42.67675399999996" lon="-1.9220239999999995">
        <ele>391.241</ele>
        <time>2022-08-25T11:59:34Z</time>
      </trkpt>
      <trkpt lat="42.67676699999996" lon="-1.9220559999999995">
        <ele>391.458</ele>
        <time>2022-08-25T11:59:35Z</time>
      </trkpt>
      <trkpt lat="42.676804999999966" lon="-1.9221499999999996">
        <ele>391.841</ele>
        <time>2022-08-25T11:59:38Z</time>
      </trkpt>
      <trkpt lat="42.676909999999964" lon="-1.9224479999999995">
        <ele>392.247</ele>
        <time>2022-08-25T11:59:47Z</time>
      </trkpt>
      <trkpt lat="42.676923999999964" lon="-1.9224769999999995">
        <ele>392.238</ele>
        <time>2022-08-25T11:59:48Z</time>
      </trkpt>
      <trkpt lat="42.67693699999997" lon="-1.9225049999999995">
        <ele>392.296</ele>
        <time>2022-08-25T11:59:49Z</time>
      </trkpt>
      <trkpt lat="42.67694799999997" lon="-1.9225349999999994">
        <ele>392.231</ele>
        <time>2022-08-25T11:59:50Z</time>
      </trkpt>
      <trkpt lat="42.677013999999964" lon="-1.9226799999999995">
        <ele>392.424</ele>
        <time>2022-08-25T11:59:55Z</time>
      </trkpt>
      <trkpt lat="42.677024999999965" lon="-1.9227079999999994">
        <ele>392.409</ele>
        <time>2022-08-25T11:59:56Z</time>
      </trkpt>
      <trkpt lat="42.67703499999997" lon="-1.9227349999999994">
        <ele>392.430</ele>
        <time>2022-08-25T11:59:57Z</time>
      </trkpt>
      <trkpt lat="42.677046999999966" lon="-1.9227609999999995">
        <ele>392.430</ele>
        <time>2022-08-25T11:59:58Z</time>
      </trkpt>
      <trkpt lat="42.67705999999997" lon="-1.9227869999999996">
        <ele>392.480</ele>
        <time>2022-08-25T11:59:59Z</time>
      </trkpt>
      <trkpt lat="42.67707199999997" lon="-1.9228139999999996">
        <ele>392.456</ele>
        <time>2022-08-25T12:00:00Z</time>
      </trkpt>
      <trkpt lat="42.67708199999997" lon="-1.9228409999999996">
        <ele>392.638</ele>
        <time>2022-08-25T12:00:01Z</time>
      </trkpt>
      <trkpt lat="42.67711699999997" lon="-1.9229189999999996">
        <ele>392.685</ele>
        <time>2022-08-25T12:00:04Z</time>
      </trkpt>
      <trkpt lat="42.677153999999966" lon="-1.9230019999999997">
        <ele>392.868</ele>
        <time>2022-08-25T12:00:07Z</time>
      </trkpt>
      <trkpt lat="42.677153999999966" lon="-1.9230019999999997">
        <ele>392.844</ele>
        <time>2022-08-25T12:00:08Z</time>
      </trkpt>
      <trkpt lat="42.67717899999997" lon="-1.9230519999999998">
        <ele>393.065</ele>
        <time>2022-08-25T12:00:09Z</time>
      </trkpt>
      <trkpt lat="42.67718899999997" lon="-1.9230799999999997">
        <ele>393.253</ele>
        <time>2022-08-25T12:00:10Z</time>
      </trkpt>
      <trkpt lat="42.67720199999997" lon="-1.9231029999999998">
        <ele>393.204</ele>
        <time>2022-08-25T12:00:11Z</time>
      </trkpt>
      <trkpt lat="42.67721699999997" lon="-1.9231229999999997">
        <ele>393.214</ele>
        <time>2022-08-25T12:00:12Z</time>
      </trkpt>
      <trkpt lat="42.67723199999997" lon="-1.9231439999999997">
        <ele>393.209</ele>
        <time>2022-08-25T12:00:13Z</time>
      </trkpt>
      <trkpt lat="42.677243999999966" lon="-1.9231669999999998">
        <ele>393.436</ele>
        <time>2022-08-25T12:00:14Z</time>
      </trkpt>
      <trkpt lat="42.677280999999965" lon="-1.9232029999999998">
        <ele>393.476</ele>
        <time>2022-08-25T12:00:16Z</time>
      </trkpt>
      <trkpt lat="42.677319999999966" lon="-1.9232319999999998">
        <ele>393.846</ele>
        <time>2022-08-25T12:00:18Z</time>
      </trkpt>
      <trkpt lat="42.67737499999997" lon="-1.9232829999999999">
        <ele>394.482</ele>
        <time>2022-08-25T12:00:21Z</time>
      </trkpt>
      <trkpt lat="42.67743099999997" lon="-1.923382">
        <ele>395.074</ele>
        <time>2022-08-25T12:00:25Z</time>
      </trkpt>
      <trkpt lat="42.67746099999997" lon="-1.923465">
        <ele>395.051</ele>
        <time>2022-08-25T12:00:28Z</time>
      </trkpt>
      <trkpt lat="42.677470999999976" lon="-1.92349">
        <ele>394.854</ele>
        <time>2022-08-25T12:00:29Z</time>
      </trkpt>
      <trkpt lat="42.67747799999997" lon="-1.923514">
        <ele>394.870</ele>
        <time>2022-08-25T12:00:30Z</time>
      </trkpt>
      <trkpt lat="42.67748599999997" lon="-1.923536">
        <ele>394.641</ele>
        <time>2022-08-25T12:00:31Z</time>
      </trkpt>
      <trkpt lat="42.677490999999975" lon="-1.923557">
        <ele>394.673</ele>
        <time>2022-08-25T12:00:32Z</time>
      </trkpt>
      <trkpt lat="42.677490999999975" lon="-1.923557">
        <ele>394.685</ele>
        <time>2022-08-25T12:00:33Z</time>
      </trkpt>
      <trkpt lat="42.67750699999998" lon="-1.923583">
        <ele>394.613</ele>
        <time>2022-08-25T12:00:34Z</time>
      </trkpt>
      <trkpt lat="42.67750899999998" lon="-1.923586">
        <ele>394.809</ele>
        <time>2022-08-25T12:00:35Z</time>
      </trkpt>
      <trkpt lat="42.67754099999998" lon="-1.923643">
        <ele>394.428</ele>
        <time>2022-08-25T12:00:43Z</time>
      </trkpt>
      <trkpt lat="42.67754099999998" lon="-1.923643">
        <ele>394.448</ele>
        <time>2022-08-25T12:00:44Z</time>
      </trkpt>
      <trkpt lat="42.677670999999975" lon="-1.923824">
        <ele>394.418</ele>
        <time>2022-08-25T12:00:49Z</time>
      </trkpt>
      <trkpt lat="42.677906999999976" lon="-1.9241409999999999">
        <ele>394.044</ele>
        <time>2022-08-25T12:00:57Z</time>
      </trkpt>
      <trkpt lat="42.678146999999974" lon="-1.9244709999999998">
        <ele>393.676</ele>
        <time>2022-08-25T12:01:04Z</time>
      </trkpt>
      <trkpt lat="42.67817899999997" lon="-1.924521">
        <ele>393.443</ele>
        <time>2022-08-25T12:01:05Z</time>
      </trkpt>
      <trkpt lat="42.678478999999975" lon="-1.925006">
        <ele>392.876</ele>
        <time>2022-08-25T12:01:14Z</time>
      </trkpt>
      <trkpt lat="42.678545999999976" lon="-1.925108">
        <ele>392.462</ele>
        <time>2022-08-25T12:01:16Z</time>
      </trkpt>
      <trkpt lat="42.67873099999998" lon="-1.925461">
        <ele>391.853</ele>
        <time>2022-08-25T12:01:22Z</time>
      </trkpt>
      <trkpt lat="42.67879199999998" lon="-1.9255920000000002">
        <ele>391.624</ele>
        <time>2022-08-25T12:01:24Z</time>
      </trkpt>
      <trkpt lat="42.67893699999998" lon="-1.9259180000000002">
        <ele>391.004</ele>
        <time>2022-08-25T12:01:29Z</time>
      </trkpt>
      <trkpt lat="42.678994999999986" lon="-1.9260470000000003">
        <ele>390.814</ele>
        <time>2022-08-25T12:01:31Z</time>
      </trkpt>
      <trkpt lat="42.679023999999984" lon="-1.9261150000000002">
        <ele>390.609</ele>
        <time>2022-08-25T12:01:32Z</time>
      </trkpt>
      <trkpt lat="42.67910999999999" lon="-1.9264030000000003">
        <ele>389.853</ele>
        <time>2022-08-25T12:01:36Z</time>
      </trkpt>
      <trkpt lat="42.67914799999999" lon="-1.9265400000000004">
        <ele>389.493</ele>
        <time>2022-08-25T12:01:38Z</time>
      </trkpt>
      <trkpt lat="42.67916599999999" lon="-1.9266080000000003">
        <ele>389.253</ele>
        <time>2022-08-25T12:01:39Z</time>
      </trkpt>
      <trkpt lat="42.67925199999999" lon="-1.9271170000000004">
        <ele>389.099</ele>
        <time>2022-08-25T12:01:46Z</time>
      </trkpt>
      <trkpt lat="42.67926699999999" lon="-1.9272630000000004">
        <ele>389.051</ele>
        <time>2022-08-25T12:01:48Z</time>
      </trkpt>
      <trkpt lat="42.67927499999999" lon="-1.9273320000000005">
        <ele>389.048</ele>
        <time>2022-08-25T12:01:49Z</time>
      </trkpt>
      <trkpt lat="42.67927799999999" lon="-1.9274030000000004">
        <ele>389.021</ele>
        <time>2022-08-25T12:01:50Z</time>
      </trkpt>
      <trkpt lat="42.679281999999986" lon="-1.9274740000000004">
        <ele>389.067</ele>
        <time>2022-08-25T12:01:51Z</time>
      </trkpt>
      <trkpt lat="42.67928399999999" lon="-1.9275460000000004">
        <ele>388.858</ele>
        <time>2022-08-25T12:01:52Z</time>
      </trkpt>
      <trkpt lat="42.679287999999985" lon="-1.9276110000000004">
        <ele>389.027</ele>
        <time>2022-08-25T12:01:53Z</time>
      </trkpt>
      <trkpt lat="42.67928899999998" lon="-1.9276740000000003">
        <ele>389.068</ele>
        <time>2022-08-25T12:01:54Z</time>
      </trkpt>
      <trkpt lat="42.679290999999985" lon="-1.9277350000000004">
        <ele>389.014</ele>
        <time>2022-08-25T12:01:55Z</time>
      </trkpt>
      <trkpt lat="42.67929499999998" lon="-1.9277940000000005">
        <ele>388.809</ele>
        <time>2022-08-25T12:01:56Z</time>
      </trkpt>
      <trkpt lat="42.67929899999998" lon="-1.9278490000000004">
        <ele>388.813</ele>
        <time>2022-08-25T12:01:57Z</time>
      </trkpt>
      <trkpt lat="42.67929699999998" lon="-1.9279080000000004">
        <ele>388.873</ele>
        <time>2022-08-25T12:01:58Z</time>
      </trkpt>
      <trkpt lat="42.67928999999998" lon="-1.9279690000000005">
        <ele>389.093</ele>
        <time>2022-08-25T12:01:59Z</time>
      </trkpt>
      <trkpt lat="42.67928899999998" lon="-1.9280270000000004">
        <ele>389.089</ele>
        <time>2022-08-25T12:02:00Z</time>
      </trkpt>
      <trkpt lat="42.679287999999985" lon="-1.9280830000000004">
        <ele>389.051</ele>
        <time>2022-08-25T12:02:01Z</time>
      </trkpt>
      <trkpt lat="42.67928599999998" lon="-1.9281390000000005">
        <ele>389.018</ele>
        <time>2022-08-25T12:02:02Z</time>
      </trkpt>
      <trkpt lat="42.679281999999986" lon="-1.9281940000000004">
        <ele>389.061</ele>
        <time>2022-08-25T12:02:03Z</time>
      </trkpt>
      <trkpt lat="42.67926999999999" lon="-1.9283530000000004">
        <ele>389.217</ele>
        <time>2022-08-25T12:02:06Z</time>
      </trkpt>
      <trkpt lat="42.67926399999999" lon="-1.9284070000000004">
        <ele>389.278</ele>
        <time>2022-08-25T12:02:07Z</time>
      </trkpt>
      <trkpt lat="42.67925899999999" lon="-1.9284540000000003">
        <ele>389.226</ele>
        <time>2022-08-25T12:02:08Z</time>
      </trkpt>
      <trkpt lat="42.679253999999986" lon="-1.9285000000000003">
        <ele>389.447</ele>
        <time>2022-08-25T12:02:09Z</time>
      </trkpt>
      <trkpt lat="42.67924799999999" lon="-1.9285520000000003">
        <ele>389.411</ele>
        <time>2022-08-25T12:02:10Z</time>
      </trkpt>
      <trkpt lat="42.679242999999985" lon="-1.9286010000000002">
        <ele>389.409</ele>
        <time>2022-08-25T12:02:11Z</time>
      </trkpt>
      <trkpt lat="42.67923099999999" lon="-1.9286460000000003">
        <ele>389.623</ele>
        <time>2022-08-25T12:02:12Z</time>
      </trkpt>
      <trkpt lat="42.67921999999999" lon="-1.9286940000000004">
        <ele>389.663</ele>
        <time>2022-08-25T12:02:13Z</time>
      </trkpt>
      <trkpt lat="42.67921399999999" lon="-1.9287450000000004">
        <ele>389.643</ele>
        <time>2022-08-25T12:02:14Z</time>
      </trkpt>
      <trkpt lat="42.679208999999986" lon="-1.9287930000000004">
        <ele>389.889</ele>
        <time>2022-08-25T12:02:15Z</time>
      </trkpt>
      <trkpt lat="42.679203999999984" lon="-1.9288390000000004">
        <ele>389.861</ele>
        <time>2022-08-25T12:02:16Z</time>
      </trkpt>
      <trkpt lat="42.67919399999998" lon="-1.9288900000000004">
        <ele>389.878</ele>
        <time>2022-08-25T12:02:17Z</time>
      </trkpt>
      <trkpt lat="42.67918499999998" lon="-1.9289360000000004">
        <ele>389.851</ele>
        <time>2022-08-25T12:02:18Z</time>
      </trkpt>
      <trkpt lat="42.679175999999984" lon="-1.9289820000000004">
        <ele>389.857</ele>
        <time>2022-08-25T12:02:19Z</time>
      </trkpt>
      <trkpt lat="42.67916899999999" lon="-1.9290250000000004">
        <ele>389.828</ele>
        <time>2022-08-25T12:02:20Z</time>
      </trkpt>
      <trkpt lat="42.67916899999999" lon="-1.9290250000000004">
        <ele>389.895</ele>
        <time>2022-08-25T12:02:21Z</time>
      </trkpt>
      <trkpt lat="42.67915199999999" lon="-1.9291090000000004">
        <ele>390.049</ele>
        <time>2022-08-25T12:02:22Z</time>
      </trkpt>
      <trkpt lat="42.67914099999999" lon="-1.9291510000000005">
        <ele>390.023</ele>
        <time>2022-08-25T12:02:23Z</time>
      </trkpt>
      <trkpt lat="42.67912999999999" lon="-1.9291920000000005">
        <ele>390.009</ele>
        <time>2022-08-25T12:02:24Z</time>
      </trkpt>
      <trkpt lat="42.67912099999999" lon="-1.9292310000000004">
        <ele>390.230</ele>
        <time>2022-08-25T12:02:25Z</time>
      </trkpt>
      <trkpt lat="42.67911199999999" lon="-1.9292700000000003">
        <ele>390.220</ele>
        <time>2022-08-25T12:02:26Z</time>
      </trkpt>
      <trkpt lat="42.67910299999999" lon="-1.9293110000000002">
        <ele>390.450</ele>
        <time>2022-08-25T12:02:27Z</time>
      </trkpt>
      <trkpt lat="42.679095999999994" lon="-1.9293510000000003">
        <ele>390.466</ele>
        <time>2022-08-25T12:02:28Z</time>
      </trkpt>
      <trkpt lat="42.67908599999999" lon="-1.9293900000000002">
        <ele>390.678</ele>
        <time>2022-08-25T12:02:29Z</time>
      </trkpt>
      <trkpt lat="42.67907699999999" lon="-1.9294280000000001">
        <ele>390.885</ele>
        <time>2022-08-25T12:02:30Z</time>
      </trkpt>
      <trkpt lat="42.67906699999999" lon="-1.9294660000000001">
        <ele>390.848</ele>
        <time>2022-08-25T12:02:31Z</time>
      </trkpt>
      <trkpt lat="42.67905499999999" lon="-1.9295030000000002">
        <ele>390.834</ele>
        <time>2022-08-25T12:02:32Z</time>
      </trkpt>
      <trkpt lat="42.67904899999999" lon="-1.9295370000000003">
        <ele>390.835</ele>
        <time>2022-08-25T12:02:33Z</time>
      </trkpt>
      <trkpt lat="42.679044999999995" lon="-1.9295720000000003">
        <ele>391.092</ele>
        <time>2022-08-25T12:02:34Z</time>
      </trkpt>
      <trkpt lat="42.679038999999996" lon="-1.9296060000000004">
        <ele>391.073</ele>
        <time>2022-08-25T12:02:35Z</time>
      </trkpt>
      <trkpt lat="42.678993" lon="-1.9297850000000003">
        <ele>391.420</ele>
        <time>2022-08-25T12:02:40Z</time>
      </trkpt>
      <trkpt lat="42.678964" lon="-1.9299330000000003">
        <ele>391.609</ele>
        <time>2022-08-25T12:02:44Z</time>
      </trkpt>
      <trkpt lat="42.678958" lon="-1.9299720000000002">
        <ele>391.850</ele>
        <time>2022-08-25T12:02:45Z</time>
      </trkpt>
      <trkpt lat="42.678925" lon="-1.9301570000000003">
        <ele>392.010</ele>
        <time>2022-08-25T12:02:50Z</time>
      </trkpt>
      <trkpt lat="42.678902" lon="-1.9302710000000003">
        <ele>392.040</ele>
        <time>2022-08-25T12:02:53Z</time>
      </trkpt>
      <trkpt lat="42.678877" lon="-1.9304250000000003">
        <ele>392.226</ele>
        <time>2022-08-25T12:02:57Z</time>
      </trkpt>
      <trkpt lat="42.678871" lon="-1.9304620000000003">
        <ele>392.248</ele>
        <time>2022-08-25T12:02:58Z</time>
      </trkpt>
      <trkpt lat="42.678866" lon="-1.9304980000000003">
        <ele>392.245</ele>
        <time>2022-08-25T12:02:59Z</time>
      </trkpt>
      <trkpt lat="42.678852" lon="-1.9305720000000002">
        <ele>392.488</ele>
        <time>2022-08-25T12:03:01Z</time>
      </trkpt>
      <trkpt lat="42.678848" lon="-1.9306070000000002">
        <ele>392.434</ele>
        <time>2022-08-25T12:03:02Z</time>
      </trkpt>
      <trkpt lat="42.678844000000005" lon="-1.9306370000000002">
        <ele>392.455</ele>
        <time>2022-08-25T12:03:03Z</time>
      </trkpt>
      <trkpt lat="42.67884000000001" lon="-1.9306690000000002">
        <ele>392.471</ele>
        <time>2022-08-25T12:03:04Z</time>
      </trkpt>
      <trkpt lat="42.67883600000001" lon="-1.9307010000000002">
        <ele>392.441</ele>
        <time>2022-08-25T12:03:05Z</time>
      </trkpt>
      <trkpt lat="42.67883100000001" lon="-1.9307330000000003">
        <ele>392.415</ele>
        <time>2022-08-25T12:03:06Z</time>
      </trkpt>
      <trkpt lat="42.67882500000001" lon="-1.9307660000000002">
        <ele>392.409</ele>
        <time>2022-08-25T12:03:07Z</time>
      </trkpt>
      <trkpt lat="42.67880500000001" lon="-1.9309780000000003">
        <ele>392.488</ele>
        <time>2022-08-25T12:03:13Z</time>
      </trkpt>
      <trkpt lat="42.678804000000014" lon="-1.9310930000000004">
        <ele>392.648</ele>
        <time>2022-08-25T12:03:16Z</time>
      </trkpt>
      <trkpt lat="42.678803000000016" lon="-1.9311290000000003">
        <ele>392.658</ele>
        <time>2022-08-25T12:03:17Z</time>
      </trkpt>
      <trkpt lat="42.678804000000014" lon="-1.9311620000000003">
        <ele>392.674</ele>
        <time>2022-08-25T12:03:18Z</time>
      </trkpt>
      <trkpt lat="42.67880500000001" lon="-1.9311930000000002">
        <ele>392.646</ele>
        <time>2022-08-25T12:03:19Z</time>
      </trkpt>
      <trkpt lat="42.67880300000001" lon="-1.9312250000000002">
        <ele>392.653</ele>
        <time>2022-08-25T12:03:20Z</time>
      </trkpt>
      <trkpt lat="42.67880000000001" lon="-1.931256">
        <ele>392.616</ele>
        <time>2022-08-25T12:03:21Z</time>
      </trkpt>
      <trkpt lat="42.67879800000001" lon="-1.931292">
        <ele>392.882</ele>
        <time>2022-08-25T12:03:22Z</time>
      </trkpt>
      <trkpt lat="42.67881200000001" lon="-1.93147">
        <ele>393.053</ele>
        <time>2022-08-25T12:03:27Z</time>
      </trkpt>
      <trkpt lat="42.678813000000005" lon="-1.931507">
        <ele>393.023</ele>
        <time>2022-08-25T12:03:28Z</time>
      </trkpt>
      <trkpt lat="42.678842" lon="-1.9319380000000002">
        <ele>393.883</ele>
        <time>2022-08-25T12:03:39Z</time>
      </trkpt>
      <trkpt lat="42.678843" lon="-1.931977">
        <ele>393.811</ele>
        <time>2022-08-25T12:03:40Z</time>
      </trkpt>
      <trkpt lat="42.678845" lon="-1.9320140000000001">
        <ele>393.809</ele>
        <time>2022-08-25T12:03:41Z</time>
      </trkpt>
      <trkpt lat="42.678847000000005" lon="-1.932053">
        <ele>394.033</ele>
        <time>2022-08-25T12:03:42Z</time>
      </trkpt>
      <trkpt lat="42.678851" lon="-1.932091">
        <ele>394.083</ele>
        <time>2022-08-25T12:03:43Z</time>
      </trkpt>
      <trkpt lat="42.67886" lon="-1.932201">
        <ele>394.433</ele>
        <time>2022-08-25T12:03:46Z</time>
      </trkpt>
      <trkpt lat="42.678867" lon="-1.932275">
        <ele>394.629</ele>
        <time>2022-08-25T12:03:48Z</time>
      </trkpt>
      <trkpt lat="42.678870999999994" lon="-1.932311">
        <ele>394.881</ele>
        <time>2022-08-25T12:03:49Z</time>
      </trkpt>
      <trkpt lat="42.67887399999999" lon="-1.9323499999999998">
        <ele>394.888</ele>
        <time>2022-08-25T12:03:50Z</time>
      </trkpt>
      <trkpt lat="42.67888099999999" lon="-1.9324209999999997">
        <ele>395.021</ele>
        <time>2022-08-25T12:03:52Z</time>
      </trkpt>
      <trkpt lat="42.67888499999999" lon="-1.9324579999999998">
        <ele>395.087</ele>
        <time>2022-08-25T12:03:53Z</time>
      </trkpt>
      <trkpt lat="42.67888699999999" lon="-1.9324929999999998">
        <ele>395.298</ele>
        <time>2022-08-25T12:03:54Z</time>
      </trkpt>
      <trkpt lat="42.67889299999999" lon="-1.9326109999999999">
        <ele>395.694</ele>
        <time>2022-08-25T12:03:57Z</time>
      </trkpt>
      <trkpt lat="42.67889599999999" lon="-1.9326459999999999">
        <ele>395.857</ele>
        <time>2022-08-25T12:03:58Z</time>
      </trkpt>
      <trkpt lat="42.678902999999984" lon="-1.932753">
        <ele>396.022</ele>
        <time>2022-08-25T12:04:01Z</time>
      </trkpt>
      <trkpt lat="42.67890699999998" lon="-1.932787">
        <ele>396.009</ele>
        <time>2022-08-25T12:04:02Z</time>
      </trkpt>
      <trkpt lat="42.67890999999998" lon="-1.93282">
        <ele>396.270</ele>
        <time>2022-08-25T12:04:03Z</time>
      </trkpt>
      <trkpt lat="42.67891199999998" lon="-1.932853">
        <ele>396.420</ele>
        <time>2022-08-25T12:04:04Z</time>
      </trkpt>
      <trkpt lat="42.67891299999998" lon="-1.93292">
        <ele>396.620</ele>
        <time>2022-08-25T12:04:06Z</time>
      </trkpt>
      <trkpt lat="42.67891899999998" lon="-1.933017">
        <ele>396.656</ele>
        <time>2022-08-25T12:04:09Z</time>
      </trkpt>
      <trkpt lat="42.67891899999998" lon="-1.933047">
        <ele>396.818</ele>
        <time>2022-08-25T12:04:10Z</time>
      </trkpt>
      <trkpt lat="42.67891999999998" lon="-1.9330749999999999">
        <ele>396.865</ele>
        <time>2022-08-25T12:04:11Z</time>
      </trkpt>
      <trkpt lat="42.67891999999998" lon="-1.9331049999999999">
        <ele>397.058</ele>
        <time>2022-08-25T12:04:12Z</time>
      </trkpt>
      <trkpt lat="42.67891999999998" lon="-1.9331359999999997">
        <ele>397.414</ele>
        <time>2022-08-25T12:04:13Z</time>
      </trkpt>
      <trkpt lat="42.67892199999998" lon="-1.9331669999999996">
        <ele>397.675</ele>
        <time>2022-08-25T12:04:14Z</time>
      </trkpt>
      <trkpt lat="42.678922999999976" lon="-1.9331949999999996">
        <ele>397.881</ele>
        <time>2022-08-25T12:04:15Z</time>
      </trkpt>
      <trkpt lat="42.678922999999976" lon="-1.9332209999999996">
        <ele>398.061</ele>
        <time>2022-08-25T12:04:16Z</time>
      </trkpt>
      <trkpt lat="42.67892199999998" lon="-1.9332469999999997">
        <ele>398.017</ele>
        <time>2022-08-25T12:04:17Z</time>
      </trkpt>
      <trkpt lat="42.67892199999998" lon="-1.9332749999999996">
        <ele>398.209</ele>
        <time>2022-08-25T12:04:18Z</time>
      </trkpt>
      <trkpt lat="42.67891899999998" lon="-1.9333049999999996">
        <ele>398.269</ele>
        <time>2022-08-25T12:04:19Z</time>
      </trkpt>
      <trkpt lat="42.67891899999998" lon="-1.9333319999999996">
        <ele>398.679</ele>
        <time>2022-08-25T12:04:20Z</time>
      </trkpt>
      <trkpt lat="42.67891799999998" lon="-1.9333599999999995">
        <ele>398.669</ele>
        <time>2022-08-25T12:04:21Z</time>
      </trkpt>
      <trkpt lat="42.67891899999998" lon="-1.9333879999999994">
        <ele>398.645</ele>
        <time>2022-08-25T12:04:22Z</time>
      </trkpt>
      <trkpt lat="42.67891799999998" lon="-1.9334149999999994">
        <ele>398.827</ele>
        <time>2022-08-25T12:04:23Z</time>
      </trkpt>
      <trkpt lat="42.678916999999984" lon="-1.9334409999999995">
        <ele>399.064</ele>
        <time>2022-08-25T12:04:24Z</time>
      </trkpt>
      <trkpt lat="42.67891799999998" lon="-1.9334679999999995">
        <ele>399.047</ele>
        <time>2022-08-25T12:04:25Z</time>
      </trkpt>
      <trkpt lat="42.67891899999998" lon="-1.9334949999999995">
        <ele>399.223</ele>
        <time>2022-08-25T12:04:26Z</time>
      </trkpt>
      <trkpt lat="42.67891999999998" lon="-1.9335219999999995">
        <ele>399.254</ele>
        <time>2022-08-25T12:04:27Z</time>
      </trkpt>
      <trkpt lat="42.67892199999998" lon="-1.9335449999999996">
        <ele>399.422</ele>
        <time>2022-08-25T12:04:28Z</time>
      </trkpt>
      <trkpt lat="42.67892199999998" lon="-1.9335699999999996">
        <ele>399.662</ele>
        <time>2022-08-25T12:04:29Z</time>
      </trkpt>
      <trkpt lat="42.67892199999998" lon="-1.9335959999999996">
        <ele>399.608</ele>
        <time>2022-08-25T12:04:30Z</time>
      </trkpt>
      <trkpt lat="42.67892099999998" lon="-1.9336269999999995">
        <ele>399.609</ele>
        <time>2022-08-25T12:04:31Z</time>
      </trkpt>
      <trkpt lat="42.67892199999998" lon="-1.9336569999999995">
        <ele>399.843</ele>
        <time>2022-08-25T12:04:32Z</time>
      </trkpt>
      <trkpt lat="42.67892399999998" lon="-1.9336859999999996">
        <ele>399.893</ele>
        <time>2022-08-25T12:04:33Z</time>
      </trkpt>
      <trkpt lat="42.67892499999998" lon="-1.9337139999999995">
        <ele>400.093</ele>
        <time>2022-08-25T12:04:34Z</time>
      </trkpt>
      <trkpt lat="42.67892699999998" lon="-1.9337399999999996">
        <ele>400.249</ele>
        <time>2022-08-25T12:04:35Z</time>
      </trkpt>
      <trkpt lat="42.67892799999998" lon="-1.9337649999999995">
        <ele>400.221</ele>
        <time>2022-08-25T12:04:36Z</time>
      </trkpt>
      <trkpt lat="42.67892699999998" lon="-1.9337899999999995">
        <ele>400.418</ele>
        <time>2022-08-25T12:04:37Z</time>
      </trkpt>
      <trkpt lat="42.67892499999998" lon="-1.9338089999999994">
        <ele>400.461</ele>
        <time>2022-08-25T12:04:38Z</time>
      </trkpt>
      <trkpt lat="42.67892399999998" lon="-1.9338309999999994">
        <ele>400.627</ele>
        <time>2022-08-25T12:04:39Z</time>
      </trkpt>
      <trkpt lat="42.67892399999998" lon="-1.9338529999999994">
        <ele>400.848</ele>
        <time>2022-08-25T12:04:40Z</time>
      </trkpt>
      <trkpt lat="42.67892499999998" lon="-1.9338719999999994">
        <ele>401.036</ele>
        <time>2022-08-25T12:04:41Z</time>
      </trkpt>
      <trkpt lat="42.678922999999976" lon="-1.9338919999999993">
        <ele>401.017</ele>
        <time>2022-08-25T12:04:42Z</time>
      </trkpt>
      <trkpt lat="42.67891899999998" lon="-1.9339119999999992">
        <ele>401.018</ele>
        <time>2022-08-25T12:04:43Z</time>
      </trkpt>
      <trkpt lat="42.67891799999998" lon="-1.9339339999999992">
        <ele>401.409</ele>
        <time>2022-08-25T12:04:44Z</time>
      </trkpt>
      <trkpt lat="42.67891799999998" lon="-1.9339569999999993">
        <ele>401.484</ele>
        <time>2022-08-25T12:04:45Z</time>
      </trkpt>
      <trkpt lat="42.67891799999998" lon="-1.9339809999999993">
        <ele>401.614</ele>
        <time>2022-08-25T12:04:46Z</time>
      </trkpt>
      <trkpt lat="42.67891599999998" lon="-1.9340069999999994">
        <ele>401.684</ele>
        <time>2022-08-25T12:04:47Z</time>
      </trkpt>
      <trkpt lat="42.67891199999998" lon="-1.9340299999999995">
        <ele>401.870</ele>
        <time>2022-08-25T12:04:48Z</time>
      </trkpt>
      <trkpt lat="42.67890999999998" lon="-1.9340489999999995">
        <ele>402.052</ele>
        <time>2022-08-25T12:04:49Z</time>
      </trkpt>
      <trkpt lat="42.67890899999998" lon="-1.9340709999999994">
        <ele>402.259</ele>
        <time>2022-08-25T12:04:50Z</time>
      </trkpt>
      <trkpt lat="42.67890699999998" lon="-1.9340959999999994">
        <ele>402.462</ele>
        <time>2022-08-25T12:04:51Z</time>
      </trkpt>
      <trkpt lat="42.67890699999998" lon="-1.9341179999999993">
        <ele>402.618</ele>
        <time>2022-08-25T12:04:52Z</time>
      </trkpt>
      <trkpt lat="42.678905999999984" lon="-1.9341399999999993">
        <ele>402.649</ele>
        <time>2022-08-25T12:04:53Z</time>
      </trkpt>
      <trkpt lat="42.678905999999984" lon="-1.9341659999999994">
        <ele>402.827</ele>
        <time>2022-08-25T12:04:54Z</time>
      </trkpt>
      <trkpt lat="42.67890399999998" lon="-1.9341909999999993">
        <ele>402.868</ele>
        <time>2022-08-25T12:04:55Z</time>
      </trkpt>
      <trkpt lat="42.67890199999998" lon="-1.9342139999999994">
        <ele>403.014</ele>
        <time>2022-08-25T12:04:56Z</time>
      </trkpt>
      <trkpt lat="42.67890199999998" lon="-1.9342379999999995">
        <ele>403.209</ele>
        <time>2022-08-25T12:04:57Z</time>
      </trkpt>
      <trkpt lat="42.67890099999998" lon="-1.9342579999999994">
        <ele>403.293</ele>
        <time>2022-08-25T12:04:58Z</time>
      </trkpt>
      <trkpt lat="42.67890099999998" lon="-1.9342809999999995">
        <ele>403.253</ele>
        <time>2022-08-25T12:04:59Z</time>
      </trkpt>
      <trkpt lat="42.678899999999985" lon="-1.9343039999999996">
        <ele>403.463</ele>
        <time>2022-08-25T12:05:00Z</time>
      </trkpt>
      <trkpt lat="42.678899999999985" lon="-1.9343229999999996">
        <ele>403.639</ele>
        <time>2022-08-25T12:05:01Z</time>
      </trkpt>
      <trkpt lat="42.678899999999985" lon="-1.9343439999999996">
        <ele>403.611</ele>
        <time>2022-08-25T12:05:02Z</time>
      </trkpt>
      <trkpt lat="42.67889599999999" lon="-1.9343639999999995">
        <ele>403.848</ele>
        <time>2022-08-25T12:05:03Z</time>
      </trkpt>
      <trkpt lat="42.678896999999985" lon="-1.9343899999999996">
        <ele>404.081</ele>
        <time>2022-08-25T12:05:04Z</time>
      </trkpt>
      <trkpt lat="42.67889899999999" lon="-1.9344139999999996">
        <ele>404.217</ele>
        <time>2022-08-25T12:05:05Z</time>
      </trkpt>
      <trkpt lat="42.67889799999999" lon="-1.9344379999999997">
        <ele>404.298</ele>
        <time>2022-08-25T12:05:06Z</time>
      </trkpt>
      <trkpt lat="42.67889399999999" lon="-1.9344609999999998">
        <ele>404.445</ele>
        <time>2022-08-25T12:05:07Z</time>
      </trkpt>
      <trkpt lat="42.67889099999999" lon="-1.9344809999999997">
        <ele>404.447</ele>
        <time>2022-08-25T12:05:08Z</time>
      </trkpt>
      <trkpt lat="42.67888799999999" lon="-1.9345049999999997">
        <ele>404.611</ele>
        <time>2022-08-25T12:05:09Z</time>
      </trkpt>
      <trkpt lat="42.67888599999999" lon="-1.9345289999999997">
        <ele>404.609</ele>
        <time>2022-08-25T12:05:10Z</time>
      </trkpt>
      <trkpt lat="42.678881999999994" lon="-1.9345499999999998">
        <ele>404.835</ele>
        <time>2022-08-25T12:05:11Z</time>
      </trkpt>
      <trkpt lat="42.67887999999999" lon="-1.9345699999999997">
        <ele>404.835</ele>
        <time>2022-08-25T12:05:12Z</time>
      </trkpt>
      <trkpt lat="42.67887799999999" lon="-1.9345879999999998">
        <ele>404.815</ele>
        <time>2022-08-25T12:05:13Z</time>
      </trkpt>
      <trkpt lat="42.67887599999999" lon="-1.9346099999999997">
        <ele>405.041</ele>
        <time>2022-08-25T12:05:14Z</time>
      </trkpt>
      <trkpt lat="42.678873999999986" lon="-1.9346329999999998">
        <ele>405.023</ele>
        <time>2022-08-25T12:05:15Z</time>
      </trkpt>
      <trkpt lat="42.678871999999984" lon="-1.934656">
        <ele>405.260</ele>
        <time>2022-08-25T12:05:16Z</time>
      </trkpt>
      <trkpt lat="42.67887099999999" lon="-1.934678">
        <ele>405.423</ele>
        <time>2022-08-25T12:05:17Z</time>
      </trkpt>
      <trkpt lat="42.678868999999985" lon="-1.934701">
        <ele>405.649</ele>
        <time>2022-08-25T12:05:18Z</time>
      </trkpt>
      <trkpt lat="42.67886799999999" lon="-1.934725">
        <ele>405.670</ele>
        <time>2022-08-25T12:05:19Z</time>
      </trkpt>
      <trkpt lat="42.678865999999985" lon="-1.934749">
        <ele>405.884</ele>
        <time>2022-08-25T12:05:20Z</time>
      </trkpt>
      <trkpt lat="42.67886499999999" lon="-1.93477">
        <ele>406.007</ele>
        <time>2022-08-25T12:05:21Z</time>
      </trkpt>
      <trkpt lat="42.67886499999999" lon="-1.9347930000000002">
        <ele>406.017</ele>
        <time>2022-08-25T12:05:22Z</time>
      </trkpt>
      <trkpt lat="42.678862999999986" lon="-1.9348150000000002">
        <ele>406.209</ele>
        <time>2022-08-25T12:05:23Z</time>
      </trkpt>
      <trkpt lat="42.678859999999986" lon="-1.9348390000000002">
        <ele>406.289</ele>
        <time>2022-08-25T12:05:24Z</time>
      </trkpt>
      <trkpt lat="42.678857999999984" lon="-1.9348640000000001">
        <ele>406.659</ele>
        <time>2022-08-25T12:05:25Z</time>
      </trkpt>
      <trkpt lat="42.67885599999998" lon="-1.934889">
        <ele>406.689</ele>
        <time>2022-08-25T12:05:26Z</time>
      </trkpt>
      <trkpt lat="42.67885399999998" lon="-1.934913">
        <ele>406.635</ele>
        <time>2022-08-25T12:05:27Z</time>
      </trkpt>
      <trkpt lat="42.67885199999998" lon="-1.9349370000000001">
        <ele>406.857</ele>
        <time>2022-08-25T12:05:28Z</time>
      </trkpt>
      <trkpt lat="42.67884899999998" lon="-1.9349610000000002">
        <ele>406.814</ele>
        <time>2022-08-25T12:05:29Z</time>
      </trkpt>
      <trkpt lat="42.67884599999998" lon="-1.9349840000000003">
        <ele>407.477</ele>
        <time>2022-08-25T12:05:30Z</time>
      </trkpt>
      <trkpt lat="42.67884499999998" lon="-1.9350080000000003">
        <ele>407.663</ele>
        <time>2022-08-25T12:05:31Z</time>
      </trkpt>
      <trkpt lat="42.67884299999998" lon="-1.9350330000000002">
        <ele>407.854</ele>
        <time>2022-08-25T12:05:32Z</time>
      </trkpt>
      <trkpt lat="42.67884099999998" lon="-1.9350620000000003">
        <ele>408.039</ele>
        <time>2022-08-25T12:05:33Z</time>
      </trkpt>
      <trkpt lat="42.67883999999998" lon="-1.9350820000000002">
        <ele>408.201</ele>
        <time>2022-08-25T12:05:34Z</time>
      </trkpt>
      <trkpt lat="42.67883599999998" lon="-1.9351050000000003">
        <ele>408.221</ele>
        <time>2022-08-25T12:05:35Z</time>
      </trkpt>
      <trkpt lat="42.67883299999998" lon="-1.9351290000000003">
        <ele>408.409</ele>
        <time>2022-08-25T12:05:36Z</time>
      </trkpt>
      <trkpt lat="42.678834999999985" lon="-1.9351540000000003">
        <ele>408.424</ele>
        <time>2022-08-25T12:05:37Z</time>
      </trkpt>
      <trkpt lat="42.678834999999985" lon="-1.9351770000000004">
        <ele>408.454</ele>
        <time>2022-08-25T12:05:38Z</time>
      </trkpt>
      <trkpt lat="42.67883399999999" lon="-1.9352010000000004">
        <ele>408.874</ele>
        <time>2022-08-25T12:05:39Z</time>
      </trkpt>
      <trkpt lat="42.678834999999985" lon="-1.9352220000000004">
        <ele>408.830</ele>
        <time>2022-08-25T12:05:40Z</time>
      </trkpt>
      <trkpt lat="42.678834999999985" lon="-1.9352430000000005">
        <ele>409.092</ele>
        <time>2022-08-25T12:05:41Z</time>
      </trkpt>
      <trkpt lat="42.67883399999999" lon="-1.9352670000000005">
        <ele>409.219</ele>
        <time>2022-08-25T12:05:42Z</time>
      </trkpt>
      <trkpt lat="42.67883399999999" lon="-1.9352900000000006">
        <ele>409.262</ele>
        <time>2022-08-25T12:05:43Z</time>
      </trkpt>
      <trkpt lat="42.67883399999999" lon="-1.9353130000000007">
        <ele>409.438</ele>
        <time>2022-08-25T12:05:44Z</time>
      </trkpt>
      <trkpt lat="42.67883299999999" lon="-1.9353370000000008">
        <ele>409.869</ele>
        <time>2022-08-25T12:05:45Z</time>
      </trkpt>
      <trkpt lat="42.67883199999999" lon="-1.9353590000000007">
        <ele>409.812</ele>
        <time>2022-08-25T12:05:46Z</time>
      </trkpt>
      <trkpt lat="42.67882999999999" lon="-1.9353810000000007">
        <ele>410.032</ele>
        <time>2022-08-25T12:05:47Z</time>
      </trkpt>
      <trkpt lat="42.67882799999999" lon="-1.9354030000000007">
        <ele>410.205</ele>
        <time>2022-08-25T12:05:48Z</time>
      </trkpt>
      <trkpt lat="42.67882599999999" lon="-1.9354260000000008">
        <ele>410.409</ele>
        <time>2022-08-25T12:05:49Z</time>
      </trkpt>
      <trkpt lat="42.678823999999985" lon="-1.9354490000000009">
        <ele>410.442</ele>
        <time>2022-08-25T12:05:50Z</time>
      </trkpt>
      <trkpt lat="42.67882199999998" lon="-1.935470000000001">
        <ele>410.842</ele>
        <time>2022-08-25T12:05:51Z</time>
      </trkpt>
      <trkpt lat="42.67881899999998" lon="-1.9354920000000009">
        <ele>411.032</ele>
        <time>2022-08-25T12:05:52Z</time>
      </trkpt>
      <trkpt lat="42.678817999999985" lon="-1.935513000000001">
        <ele>411.048</ele>
        <time>2022-08-25T12:05:53Z</time>
      </trkpt>
      <trkpt lat="42.67881599999998" lon="-1.935536000000001">
        <ele>411.240</ele>
        <time>2022-08-25T12:05:54Z</time>
      </trkpt>
      <trkpt lat="42.67881399999998" lon="-1.9355590000000011">
        <ele>411.287</ele>
        <time>2022-08-25T12:05:55Z</time>
      </trkpt>
      <trkpt lat="42.67881199999998" lon="-1.9355830000000012">
        <ele>411.470</ele>
        <time>2022-08-25T12:05:56Z</time>
      </trkpt>
      <trkpt lat="42.67880799999998" lon="-1.935608000000001">
        <ele>411.466</ele>
        <time>2022-08-25T12:05:57Z</time>
      </trkpt>
      <trkpt lat="42.67880599999998" lon="-1.9356320000000011">
        <ele>411.657</ele>
        <time>2022-08-25T12:05:58Z</time>
      </trkpt>
      <trkpt lat="42.67880599999998" lon="-1.9356560000000012">
        <ele>411.849</ele>
        <time>2022-08-25T12:05:59Z</time>
      </trkpt>
      <trkpt lat="42.67880499999998" lon="-1.9356790000000013">
        <ele>411.802</ele>
        <time>2022-08-25T12:06:00Z</time>
      </trkpt>
      <trkpt lat="42.67880499999998" lon="-1.9357030000000013">
        <ele>412.022</ele>
        <time>2022-08-25T12:06:01Z</time>
      </trkpt>
      <trkpt lat="42.67880199999998" lon="-1.9357270000000013">
        <ele>412.209</ele>
        <time>2022-08-25T12:06:02Z</time>
      </trkpt>
      <trkpt lat="42.67879699999998" lon="-1.9357510000000013">
        <ele>412.225</ele>
        <time>2022-08-25T12:06:03Z</time>
      </trkpt>
      <trkpt lat="42.67879499999998" lon="-1.9357730000000013">
        <ele>412.455</ele>
        <time>2022-08-25T12:06:04Z</time>
      </trkpt>
      <trkpt lat="42.67879399999998" lon="-1.9357960000000014">
        <ele>412.475</ele>
        <time>2022-08-25T12:06:05Z</time>
      </trkpt>
      <trkpt lat="42.67879399999998" lon="-1.9358210000000013">
        <ele>412.631</ele>
        <time>2022-08-25T12:06:06Z</time>
      </trkpt>
      <trkpt lat="42.67879399999998" lon="-1.9358480000000013">
        <ele>412.823</ele>
        <time>2022-08-25T12:06:07Z</time>
      </trkpt>
      <trkpt lat="42.678792999999985" lon="-1.9358710000000015">
        <ele>412.850</ele>
        <time>2022-08-25T12:06:08Z</time>
      </trkpt>
      <trkpt lat="42.67879099999998" lon="-1.9358930000000014">
        <ele>413.023</ele>
        <time>2022-08-25T12:06:09Z</time>
      </trkpt>
      <trkpt lat="42.678789999999985" lon="-1.9359140000000015">
        <ele>413.039</ele>
        <time>2022-08-25T12:06:10Z</time>
      </trkpt>
      <trkpt lat="42.67878899999999" lon="-1.9359350000000015">
        <ele>413.280</ele>
        <time>2022-08-25T12:06:11Z</time>
      </trkpt>
      <trkpt lat="42.67878899999999" lon="-1.9359590000000015">
        <ele>413.238</ele>
        <time>2022-08-25T12:06:12Z</time>
      </trkpt>
      <trkpt lat="42.678786999999986" lon="-1.9359840000000015">
        <ele>413.470</ele>
        <time>2022-08-25T12:06:13Z</time>
      </trkpt>
      <trkpt lat="42.678786999999986" lon="-1.9360090000000014">
        <ele>413.417</ele>
        <time>2022-08-25T12:06:14Z</time>
      </trkpt>
      <trkpt lat="42.67878299999999" lon="-1.9360360000000014">
        <ele>413.409</ele>
        <time>2022-08-25T12:06:15Z</time>
      </trkpt>
      <trkpt lat="42.67878299999999" lon="-1.9360620000000015">
        <ele>413.654</ele>
        <time>2022-08-25T12:06:16Z</time>
      </trkpt>
      <trkpt lat="42.67877999999999" lon="-1.9360870000000014">
        <ele>413.874</ele>
        <time>2022-08-25T12:06:17Z</time>
      </trkpt>
      <trkpt lat="42.67877799999999" lon="-1.9361110000000015">
        <ele>414.044</ele>
        <time>2022-08-25T12:06:18Z</time>
      </trkpt>
      <trkpt lat="42.67877799999999" lon="-1.9361320000000015">
        <ele>414.050</ele>
        <time>2022-08-25T12:06:19Z</time>
      </trkpt>
      <trkpt lat="42.67877799999999" lon="-1.9361540000000015">
        <ele>414.272</ele>
        <time>2022-08-25T12:06:20Z</time>
      </trkpt>
      <trkpt lat="42.67877799999999" lon="-1.9361770000000016">
        <ele>414.439</ele>
        <time>2022-08-25T12:06:21Z</time>
      </trkpt>
      <trkpt lat="42.67877799999999" lon="-1.9362010000000016">
        <ele>414.442</ele>
        <time>2022-08-25T12:06:22Z</time>
      </trkpt>
      <trkpt lat="42.67877499999999" lon="-1.9362240000000017">
        <ele>414.658</ele>
        <time>2022-08-25T12:06:23Z</time>
      </trkpt>
      <trkpt lat="42.67877399999999" lon="-1.9362470000000018">
        <ele>414.629</ele>
        <time>2022-08-25T12:06:24Z</time>
      </trkpt>
      <trkpt lat="42.67877199999999" lon="-1.936270000000002">
        <ele>414.855</ele>
        <time>2022-08-25T12:06:25Z</time>
      </trkpt>
      <trkpt lat="42.67876899999999" lon="-1.9362950000000019">
        <ele>414.807</ele>
        <time>2022-08-25T12:06:26Z</time>
      </trkpt>
      <trkpt lat="42.678766999999986" lon="-1.9363170000000018">
        <ele>415.017</ele>
        <time>2022-08-25T12:06:27Z</time>
      </trkpt>
      <trkpt lat="42.678764999999984" lon="-1.936340000000002">
        <ele>415.209</ele>
        <time>2022-08-25T12:06:28Z</time>
      </trkpt>
      <trkpt lat="42.67876399999999" lon="-1.936363000000002">
        <ele>415.226</ele>
        <time>2022-08-25T12:06:29Z</time>
      </trkpt>
      <trkpt lat="42.67876299999999" lon="-1.936385000000002">
        <ele>415.446</ele>
        <time>2022-08-25T12:06:30Z</time>
      </trkpt>
      <trkpt lat="42.67876199999999" lon="-1.936405000000002">
        <ele>415.426</ele>
        <time>2022-08-25T12:06:31Z</time>
      </trkpt>
      <trkpt lat="42.678760999999994" lon="-1.936431000000002">
        <ele>415.632</ele>
        <time>2022-08-25T12:06:32Z</time>
      </trkpt>
      <trkpt lat="42.678757999999995" lon="-1.936456000000002">
        <ele>415.834</ele>
        <time>2022-08-25T12:06:33Z</time>
      </trkpt>
      <trkpt lat="42.678754999999995" lon="-1.936480000000002">
        <ele>416.091</ele>
        <time>2022-08-25T12:06:34Z</time>
      </trkpt>
      <trkpt lat="42.678754" lon="-1.936501000000002">
        <ele>416.044</ele>
        <time>2022-08-25T12:06:35Z</time>
      </trkpt>
      <trkpt lat="42.678753" lon="-1.9365240000000021">
        <ele>416.040</ele>
        <time>2022-08-25T12:06:36Z</time>
      </trkpt>
      <trkpt lat="42.678751" lon="-1.936546000000002">
        <ele>416.281</ele>
        <time>2022-08-25T12:06:37Z</time>
      </trkpt>
      <trkpt lat="42.678746" lon="-1.936568000000002">
        <ele>416.265</ele>
        <time>2022-08-25T12:06:38Z</time>
      </trkpt>
      <trkpt lat="42.678746" lon="-1.9365910000000022">
        <ele>416.268</ele>
        <time>2022-08-25T12:06:39Z</time>
      </trkpt>
      <trkpt lat="42.678745" lon="-1.9366140000000023">
        <ele>416.414</ele>
        <time>2022-08-25T12:06:40Z</time>
      </trkpt>
      <trkpt lat="42.678743" lon="-1.9366320000000024">
        <ele>416.409</ele>
        <time>2022-08-25T12:06:41Z</time>
      </trkpt>
      <trkpt lat="42.678740999999995" lon="-1.9366530000000024">
        <ele>416.457</ele>
        <time>2022-08-25T12:06:42Z</time>
      </trkpt>
      <trkpt lat="42.678735999999994" lon="-1.9366740000000024">
        <ele>416.487</ele>
        <time>2022-08-25T12:06:43Z</time>
      </trkpt>
      <trkpt lat="42.678732999999994" lon="-1.9366950000000025">
        <ele>416.667</ele>
        <time>2022-08-25T12:06:44Z</time>
      </trkpt>
      <trkpt lat="42.67873099999999" lon="-1.9367180000000026">
        <ele>416.863</ele>
        <time>2022-08-25T12:06:45Z</time>
      </trkpt>
      <trkpt lat="42.678726999999995" lon="-1.9367440000000027">
        <ele>417.055</ele>
        <time>2022-08-25T12:06:46Z</time>
      </trkpt>
      <trkpt lat="42.678723" lon="-1.9367680000000027">
        <ele>417.072</ele>
        <time>2022-08-25T12:06:47Z</time>
      </trkpt>
      <trkpt lat="42.67872" lon="-1.9367920000000027">
        <ele>417.295</ele>
        <time>2022-08-25T12:06:48Z</time>
      </trkpt>
      <trkpt lat="42.678717" lon="-1.9368180000000028">
        <ele>417.241</ele>
        <time>2022-08-25T12:06:49Z</time>
      </trkpt>
      <trkpt lat="42.678714" lon="-1.9368430000000028">
        <ele>417.212</ele>
        <time>2022-08-25T12:06:50Z</time>
      </trkpt>
      <trkpt lat="42.678712" lon="-1.9368670000000028">
        <ele>417.416</ele>
        <time>2022-08-25T12:06:51Z</time>
      </trkpt>
      <trkpt lat="42.678709" lon="-1.9368890000000027">
        <ele>417.476</ele>
        <time>2022-08-25T12:06:52Z</time>
      </trkpt>
      <trkpt lat="42.678705" lon="-1.9369120000000029">
        <ele>417.413</ele>
        <time>2022-08-25T12:06:53Z</time>
      </trkpt>
      <trkpt lat="42.678701000000004" lon="-1.9369360000000029">
        <ele>417.609</ele>
        <time>2022-08-25T12:06:54Z</time>
      </trkpt>
      <trkpt lat="42.678687000000004" lon="-1.937030000000003">
        <ele>417.872</ele>
        <time>2022-08-25T12:06:58Z</time>
      </trkpt>
      <trkpt lat="42.678665" lon="-1.9372120000000028">
        <ele>418.082</ele>
        <time>2022-08-25T12:07:05Z</time>
      </trkpt>
      <trkpt lat="42.678659" lon="-1.9372630000000028">
        <ele>418.032</ele>
        <time>2022-08-25T12:07:07Z</time>
      </trkpt>
      <trkpt lat="42.678656000000004" lon="-1.9372850000000028">
        <ele>418.268</ele>
        <time>2022-08-25T12:07:08Z</time>
      </trkpt>
      <trkpt lat="42.678645" lon="-1.937338000000003">
        <ele>418.270</ele>
        <time>2022-08-25T12:07:10Z</time>
      </trkpt>
      <trkpt lat="42.678642" lon="-1.937362000000003">
        <ele>418.427</ele>
        <time>2022-08-25T12:07:11Z</time>
      </trkpt>
      <trkpt lat="42.678639000000004" lon="-1.937386000000003">
        <ele>418.430</ele>
        <time>2022-08-25T12:07:12Z</time>
      </trkpt>
      <trkpt lat="42.678617" lon="-1.937482000000003">
        <ele>418.476</ele>
        <time>2022-08-25T12:07:16Z</time>
      </trkpt>
      <trkpt lat="42.678596000000006" lon="-1.937601000000003">
        <ele>419.037</ele>
        <time>2022-08-25T12:07:21Z</time>
      </trkpt>
      <trkpt lat="42.67859200000001" lon="-1.9376240000000031">
        <ele>419.299</ele>
        <time>2022-08-25T12:07:22Z</time>
      </trkpt>
      <trkpt lat="42.67858700000001" lon="-1.9376470000000032">
        <ele>419.407</ele>
        <time>2022-08-25T12:07:23Z</time>
      </trkpt>
      <trkpt lat="42.67858400000001" lon="-1.9376700000000033">
        <ele>419.427</ele>
        <time>2022-08-25T12:07:24Z</time>
      </trkpt>
      <trkpt lat="42.678579000000006" lon="-1.9376930000000034">
        <ele>419.409</ele>
        <time>2022-08-25T12:07:25Z</time>
      </trkpt>
      <trkpt lat="42.67857000000001" lon="-1.9377150000000034">
        <ele>419.480</ele>
        <time>2022-08-25T12:07:26Z</time>
      </trkpt>
      <trkpt lat="42.67855200000001" lon="-1.9378320000000033">
        <ele>420.030</ele>
        <time>2022-08-25T12:07:31Z</time>
      </trkpt>
      <trkpt lat="42.67854700000001" lon="-1.9378550000000034">
        <ele>420.240</ele>
        <time>2022-08-25T12:07:32Z</time>
      </trkpt>
      <trkpt lat="42.67854200000001" lon="-1.9378730000000035">
        <ele>420.226</ele>
        <time>2022-08-25T12:07:33Z</time>
      </trkpt>
      <trkpt lat="42.67853500000001" lon="-1.9378960000000036">
        <ele>420.418</ele>
        <time>2022-08-25T12:07:34Z</time>
      </trkpt>
      <trkpt lat="42.67853000000001" lon="-1.9379150000000036">
        <ele>420.465</ele>
        <time>2022-08-25T12:07:35Z</time>
      </trkpt>
      <trkpt lat="42.67851600000001" lon="-1.9379780000000035">
        <ele>420.648</ele>
        <time>2022-08-25T12:07:38Z</time>
      </trkpt>
      <trkpt lat="42.67849600000001" lon="-1.9380680000000035">
        <ele>421.044</ele>
        <time>2022-08-25T12:07:42Z</time>
      </trkpt>
      <trkpt lat="42.67849200000001" lon="-1.9380880000000034">
        <ele>421.025</ele>
        <time>2022-08-25T12:07:43Z</time>
      </trkpt>
      <trkpt lat="42.678483000000014" lon="-1.9381230000000034">
        <ele>421.238</ele>
        <time>2022-08-25T12:07:45Z</time>
      </trkpt>
      <trkpt lat="42.67847800000001" lon="-1.9381440000000034">
        <ele>421.270</ele>
        <time>2022-08-25T12:07:46Z</time>
      </trkpt>
      <trkpt lat="42.67847200000001" lon="-1.9381640000000033">
        <ele>421.417</ele>
        <time>2022-08-25T12:07:47Z</time>
      </trkpt>
      <trkpt lat="42.678469000000014" lon="-1.9381830000000033">
        <ele>421.409</ele>
        <time>2022-08-25T12:07:48Z</time>
      </trkpt>
      <trkpt lat="42.67846400000001" lon="-1.9382260000000033">
        <ele>421.654</ele>
        <time>2022-08-25T12:07:50Z</time>
      </trkpt>
      <trkpt lat="42.67845600000001" lon="-1.9382510000000033">
        <ele>421.864</ele>
        <time>2022-08-25T12:07:51Z</time>
      </trkpt>
      <trkpt lat="42.67844500000001" lon="-1.9382960000000033">
        <ele>422.084</ele>
        <time>2022-08-25T12:07:53Z</time>
      </trkpt>
      <trkpt lat="42.67843100000001" lon="-1.9383630000000034">
        <ele>422.820</ele>
        <time>2022-08-25T12:07:56Z</time>
      </trkpt>
      <trkpt lat="42.67842700000001" lon="-1.9383850000000034">
        <ele>423.052</ele>
        <time>2022-08-25T12:07:57Z</time>
      </trkpt>
      <trkpt lat="42.678423000000016" lon="-1.9384070000000033">
        <ele>423.299</ele>
        <time>2022-08-25T12:07:58Z</time>
      </trkpt>
      <trkpt lat="42.67841700000002" lon="-1.9384290000000033">
        <ele>423.412</ele>
        <time>2022-08-25T12:07:59Z</time>
      </trkpt>
      <trkpt lat="42.67841100000002" lon="-1.9384510000000033">
        <ele>423.438</ele>
        <time>2022-08-25T12:08:00Z</time>
      </trkpt>
      <trkpt lat="42.67840500000002" lon="-1.9384720000000033">
        <ele>423.679</ele>
        <time>2022-08-25T12:08:01Z</time>
      </trkpt>
      <trkpt lat="42.67839900000002" lon="-1.9384920000000032">
        <ele>423.676</ele>
        <time>2022-08-25T12:08:02Z</time>
      </trkpt>
      <trkpt lat="42.67839400000002" lon="-1.9385110000000032">
        <ele>423.690</ele>
        <time>2022-08-25T12:08:03Z</time>
      </trkpt>
      <trkpt lat="42.67838900000002" lon="-1.9385310000000031">
        <ele>424.019</ele>
        <time>2022-08-25T12:08:04Z</time>
      </trkpt>
      <trkpt lat="42.678384000000015" lon="-1.938551000000003">
        <ele>424.009</ele>
        <time>2022-08-25T12:08:05Z</time>
      </trkpt>
      <trkpt lat="42.678378000000016" lon="-1.938572000000003">
        <ele>424.238</ele>
        <time>2022-08-25T12:08:06Z</time>
      </trkpt>
      <trkpt lat="42.678373000000015" lon="-1.938592000000003">
        <ele>424.218</ele>
        <time>2022-08-25T12:08:07Z</time>
      </trkpt>
      <trkpt lat="42.678367000000016" lon="-1.938610000000003">
        <ele>424.248</ele>
        <time>2022-08-25T12:08:08Z</time>
      </trkpt>
      <trkpt lat="42.678362000000014" lon="-1.938630000000003">
        <ele>424.444</ele>
        <time>2022-08-25T12:08:09Z</time>
      </trkpt>
      <trkpt lat="42.67835800000002" lon="-1.938653000000003">
        <ele>424.436</ele>
        <time>2022-08-25T12:08:10Z</time>
      </trkpt>
      <trkpt lat="42.67835100000002" lon="-1.938678000000003">
        <ele>424.453</ele>
        <time>2022-08-25T12:08:11Z</time>
      </trkpt>
      <trkpt lat="42.67834600000002" lon="-1.938699000000003">
        <ele>424.676</ele>
        <time>2022-08-25T12:08:12Z</time>
      </trkpt>
      <trkpt lat="42.67834200000002" lon="-1.938720000000003">
        <ele>424.682</ele>
        <time>2022-08-25T12:08:13Z</time>
      </trkpt>
      <trkpt lat="42.67833700000002" lon="-1.938742000000003">
        <ele>424.653</ele>
        <time>2022-08-25T12:08:14Z</time>
      </trkpt>
      <trkpt lat="42.67833200000002" lon="-1.938762000000003">
        <ele>424.875</ele>
        <time>2022-08-25T12:08:15Z</time>
      </trkpt>
      <trkpt lat="42.67832600000002" lon="-1.938782000000003">
        <ele>424.828</ele>
        <time>2022-08-25T12:08:16Z</time>
      </trkpt>
      <trkpt lat="42.67832100000002" lon="-1.9388020000000028">
        <ele>425.020</ele>
        <time>2022-08-25T12:08:17Z</time>
      </trkpt>
      <trkpt lat="42.67831700000002" lon="-1.9388200000000029">
        <ele>425.209</ele>
        <time>2022-08-25T12:08:18Z</time>
      </trkpt>
      <trkpt lat="42.67831200000002" lon="-1.938836000000003">
        <ele>425.248</ele>
        <time>2022-08-25T12:08:19Z</time>
      </trkpt>
      <trkpt lat="42.67830800000002" lon="-1.9388560000000028">
        <ele>425.818</ele>
        <time>2022-08-25T12:08:20Z</time>
      </trkpt>
      <trkpt lat="42.67830000000002" lon="-1.9388780000000028">
        <ele>426.018</ele>
        <time>2022-08-25T12:08:21Z</time>
      </trkpt>
      <trkpt lat="42.678293000000025" lon="-1.9388980000000027">
        <ele>426.094</ele>
        <time>2022-08-25T12:08:22Z</time>
      </trkpt>
      <trkpt lat="42.678287000000026" lon="-1.9389170000000027">
        <ele>426.276</ele>
        <time>2022-08-25T12:08:23Z</time>
      </trkpt>
      <trkpt lat="42.67828100000003" lon="-1.9389380000000027">
        <ele>426.233</ele>
        <time>2022-08-25T12:08:24Z</time>
      </trkpt>
      <trkpt lat="42.67827500000003" lon="-1.9389600000000027">
        <ele>426.416</ele>
        <time>2022-08-25T12:08:25Z</time>
      </trkpt>
      <trkpt lat="42.678270000000026" lon="-1.9389820000000026">
        <ele>426.442</ele>
        <time>2022-08-25T12:08:26Z</time>
      </trkpt>
      <trkpt lat="42.67826300000003" lon="-1.9390020000000026">
        <ele>426.683</ele>
        <time>2022-08-25T12:08:27Z</time>
      </trkpt>
      <trkpt lat="42.67825500000003" lon="-1.9390220000000025">
        <ele>426.662</ele>
        <time>2022-08-25T12:08:28Z</time>
      </trkpt>
      <trkpt lat="42.67824800000003" lon="-1.9390440000000024">
        <ele>426.683</ele>
        <time>2022-08-25T12:08:29Z</time>
      </trkpt>
      <trkpt lat="42.67823900000003" lon="-1.9390680000000025">
        <ele>426.611</ele>
        <time>2022-08-25T12:08:30Z</time>
      </trkpt>
      <trkpt lat="42.67823200000004" lon="-1.9390840000000025">
        <ele>426.609</ele>
        <time>2022-08-25T12:08:31Z</time>
      </trkpt>
      <trkpt lat="42.67822300000004" lon="-1.9391040000000024">
        <ele>426.867</ele>
        <time>2022-08-25T12:08:32Z</time>
      </trkpt>
      <trkpt lat="42.67821500000004" lon="-1.9391240000000023">
        <ele>426.867</ele>
        <time>2022-08-25T12:08:33Z</time>
      </trkpt>
      <trkpt lat="42.678204000000036" lon="-1.9391460000000023">
        <ele>427.037</ele>
        <time>2022-08-25T12:08:34Z</time>
      </trkpt>
      <trkpt lat="42.67819400000003" lon="-1.9391650000000022">
        <ele>427.263</ele>
        <time>2022-08-25T12:08:35Z</time>
      </trkpt>
      <trkpt lat="42.67818300000003" lon="-1.9391810000000023">
        <ele>427.225</ele>
        <time>2022-08-25T12:08:36Z</time>
      </trkpt>
      <trkpt lat="42.67817500000003" lon="-1.9391980000000022">
        <ele>427.292</ele>
        <time>2022-08-25T12:08:37Z</time>
      </trkpt>
      <trkpt lat="42.67816600000003" lon="-1.9392170000000022">
        <ele>427.255</ele>
        <time>2022-08-25T12:08:38Z</time>
      </trkpt>
      <trkpt lat="42.678157000000034" lon="-1.9392380000000022">
        <ele>427.421</ele>
        <time>2022-08-25T12:08:39Z</time>
      </trkpt>
      <trkpt lat="42.67814700000003" lon="-1.9392580000000021">
        <ele>427.682</ele>
        <time>2022-08-25T12:08:40Z</time>
      </trkpt>
      <trkpt lat="42.67807400000003" lon="-1.9393950000000022">
        <ele>428.651</ele>
        <time>2022-08-25T12:08:47Z</time>
      </trkpt>
      <trkpt lat="42.67806300000003" lon="-1.9394100000000023">
        <ele>428.601</ele>
        <time>2022-08-25T12:08:48Z</time>
      </trkpt>
      <trkpt lat="42.67804700000003" lon="-1.9394280000000024">
        <ele>428.611</ele>
        <time>2022-08-25T12:08:49Z</time>
      </trkpt>
      <trkpt lat="42.67803600000003" lon="-1.9394430000000025">
        <ele>428.809</ele>
        <time>2022-08-25T12:08:50Z</time>
      </trkpt>
      <trkpt lat="42.67802200000003" lon="-1.9394600000000024">
        <ele>428.846</ele>
        <time>2022-08-25T12:08:51Z</time>
      </trkpt>
      <trkpt lat="42.678009000000024" lon="-1.9394770000000023">
        <ele>428.866</ele>
        <time>2022-08-25T12:08:52Z</time>
      </trkpt>
      <trkpt lat="42.677997000000026" lon="-1.9394950000000024">
        <ele>429.026</ele>
        <time>2022-08-25T12:08:53Z</time>
      </trkpt>
      <trkpt lat="42.677986000000026" lon="-1.9395130000000025">
        <ele>429.022</ele>
        <time>2022-08-25T12:08:54Z</time>
      </trkpt>
      <trkpt lat="42.67797100000003" lon="-1.9395300000000024">
        <ele>429.064</ele>
        <time>2022-08-25T12:08:55Z</time>
      </trkpt>
      <trkpt lat="42.67796000000003" lon="-1.9395480000000025">
        <ele>429.251</ele>
        <time>2022-08-25T12:08:56Z</time>
      </trkpt>
      <trkpt lat="42.67795100000003" lon="-1.9395640000000025">
        <ele>429.274</ele>
        <time>2022-08-25T12:08:57Z</time>
      </trkpt>
      <trkpt lat="42.67794000000003" lon="-1.9395790000000026">
        <ele>429.430</ele>
        <time>2022-08-25T12:08:58Z</time>
      </trkpt>
      <trkpt lat="42.67792900000003" lon="-1.9395930000000026">
        <ele>429.451</ele>
        <time>2022-08-25T12:08:59Z</time>
      </trkpt>
      <trkpt lat="42.67791800000003" lon="-1.9396080000000027">
        <ele>429.485</ele>
        <time>2022-08-25T12:09:00Z</time>
      </trkpt>
      <trkpt lat="42.67790900000003" lon="-1.9396230000000028">
        <ele>429.689</ele>
        <time>2022-08-25T12:09:01Z</time>
      </trkpt>
      <trkpt lat="42.677899000000025" lon="-1.9396390000000028">
        <ele>429.617</ele>
        <time>2022-08-25T12:09:02Z</time>
      </trkpt>
      <trkpt lat="42.677829000000024" lon="-1.9397240000000027">
        <ele>430.609</ele>
        <time>2022-08-25T12:09:08Z</time>
      </trkpt>
      <trkpt lat="42.67781800000002" lon="-1.9397360000000026">
        <ele>430.699</ele>
        <time>2022-08-25T12:09:09Z</time>
      </trkpt>
      <trkpt lat="42.67780700000002" lon="-1.9397460000000026">
        <ele>430.649</ele>
        <time>2022-08-25T12:09:10Z</time>
      </trkpt>
      <trkpt lat="42.677784000000024" lon="-1.9397760000000026">
        <ele>430.859</ele>
        <time>2022-08-25T12:09:12Z</time>
      </trkpt>
      <trkpt lat="42.67777100000002" lon="-1.9397910000000027">
        <ele>430.885</ele>
        <time>2022-08-25T12:09:13Z</time>
      </trkpt>
      <trkpt lat="42.67775900000002" lon="-1.9398060000000028">
        <ele>430.827</ele>
        <time>2022-08-25T12:09:14Z</time>
      </trkpt>
      <trkpt lat="42.67773700000002" lon="-1.9398310000000027">
        <ele>431.034</ele>
        <time>2022-08-25T12:09:16Z</time>
      </trkpt>
      <trkpt lat="42.677725000000024" lon="-1.9398420000000027">
        <ele>431.037</ele>
        <time>2022-08-25T12:09:17Z</time>
      </trkpt>
      <trkpt lat="42.67767500000002" lon="-1.9398830000000027">
        <ele>431.273</ele>
        <time>2022-08-25T12:09:21Z</time>
      </trkpt>
      <trkpt lat="42.677663000000024" lon="-1.9398950000000026">
        <ele>431.484</ele>
        <time>2022-08-25T12:09:22Z</time>
      </trkpt>
      <trkpt lat="42.677651000000026" lon="-1.9399080000000026">
        <ele>431.627</ele>
        <time>2022-08-25T12:09:23Z</time>
      </trkpt>
      <trkpt lat="42.677640000000025" lon="-1.9399180000000027">
        <ele>431.668</ele>
        <time>2022-08-25T12:09:24Z</time>
      </trkpt>
      <trkpt lat="42.67762700000002" lon="-1.9399290000000027">
        <ele>431.614</ele>
        <time>2022-08-25T12:09:25Z</time>
      </trkpt>
      <trkpt lat="42.67761600000002" lon="-1.9399400000000027">
        <ele>431.609</ele>
        <time>2022-08-25T12:09:26Z</time>
      </trkpt>
      <trkpt lat="42.67760500000002" lon="-1.9399500000000027">
        <ele>431.673</ele>
        <time>2022-08-25T12:09:27Z</time>
      </trkpt>
      <trkpt lat="42.67759300000002" lon="-1.9399600000000028">
        <ele>431.823</ele>
        <time>2022-08-25T12:09:28Z</time>
      </trkpt>
      <trkpt lat="42.677513000000026" lon="-1.9400350000000028">
        <ele>432.673</ele>
        <time>2022-08-25T12:09:34Z</time>
      </trkpt>
      <trkpt lat="42.67750000000002" lon="-1.9400470000000027">
        <ele>432.819</ele>
        <time>2022-08-25T12:09:35Z</time>
      </trkpt>
      <trkpt lat="42.677488000000025" lon="-1.9400550000000027">
        <ele>432.891</ele>
        <time>2022-08-25T12:09:36Z</time>
      </trkpt>
      <trkpt lat="42.677474000000025" lon="-1.9400660000000027">
        <ele>433.038</ele>
        <time>2022-08-25T12:09:37Z</time>
      </trkpt>
      <trkpt lat="42.677463000000024" lon="-1.9400750000000027">
        <ele>433.061</ele>
        <time>2022-08-25T12:09:38Z</time>
      </trkpt>
      <trkpt lat="42.677452000000024" lon="-1.9400860000000026">
        <ele>433.087</ele>
        <time>2022-08-25T12:09:39Z</time>
      </trkpt>
      <trkpt lat="42.677440000000026" lon="-1.9400980000000025">
        <ele>433.068</ele>
        <time>2022-08-25T12:09:40Z</time>
      </trkpt>
      <trkpt lat="42.67743000000002" lon="-1.9401060000000026">
        <ele>433.025</ele>
        <time>2022-08-25T12:09:41Z</time>
      </trkpt>
      <trkpt lat="42.67741900000002" lon="-1.9401150000000025">
        <ele>433.026</ele>
        <time>2022-08-25T12:09:42Z</time>
      </trkpt>
      <trkpt lat="42.67737200000002" lon="-1.9401490000000026">
        <ele>433.208</ele>
        <time>2022-08-25T12:09:46Z</time>
      </trkpt>
      <trkpt lat="42.67736100000002" lon="-1.9401590000000026">
        <ele>433.209</ele>
        <time>2022-08-25T12:09:47Z</time>
      </trkpt>
      <trkpt lat="42.67727600000002" lon="-1.9402350000000026">
        <ele>433.853</ele>
        <time>2022-08-25T12:09:54Z</time>
      </trkpt>
      <trkpt lat="42.67726100000002" lon="-1.9402470000000025">
        <ele>433.823</ele>
        <time>2022-08-25T12:09:55Z</time>
      </trkpt>
      <trkpt lat="42.677218000000025" lon="-1.9402750000000024">
        <ele>434.043</ele>
        <time>2022-08-25T12:09:58Z</time>
      </trkpt>
      <trkpt lat="42.67720500000002" lon="-1.9402860000000024">
        <ele>434.229</ele>
        <time>2022-08-25T12:09:59Z</time>
      </trkpt>
      <trkpt lat="42.677193000000024" lon="-1.9402980000000023">
        <ele>434.281</ele>
        <time>2022-08-25T12:10:00Z</time>
      </trkpt>
      <trkpt lat="42.677133000000026" lon="-1.9403470000000023">
        <ele>434.618</ele>
        <time>2022-08-25T12:10:04Z</time>
      </trkpt>
      <trkpt lat="42.67710400000003" lon="-1.9403720000000022">
        <ele>435.031</ele>
        <time>2022-08-25T12:10:06Z</time>
      </trkpt>
      <trkpt lat="42.67700000000003" lon="-1.9404560000000022">
        <ele>435.487</ele>
        <time>2022-08-25T12:10:13Z</time>
      </trkpt>
      <trkpt lat="42.67698500000003" lon="-1.9404700000000021">
        <ele>435.438</ele>
        <time>2022-08-25T12:10:14Z</time>
      </trkpt>
      <trkpt lat="42.67697100000003" lon="-1.9404810000000021">
        <ele>435.666</ele>
        <time>2022-08-25T12:10:15Z</time>
      </trkpt>
      <trkpt lat="42.67695600000003" lon="-1.940492000000002">
        <ele>435.629</ele>
        <time>2022-08-25T12:10:16Z</time>
      </trkpt>
      <trkpt lat="42.676896000000035" lon="-1.9405350000000021">
        <ele>436.021</ele>
        <time>2022-08-25T12:10:20Z</time>
      </trkpt>
      <trkpt lat="42.67684700000004" lon="-1.9405750000000022">
        <ele>436.209</ele>
        <time>2022-08-25T12:10:23Z</time>
      </trkpt>
      <trkpt lat="42.67683600000004" lon="-1.9405830000000022">
        <ele>436.457</ele>
        <time>2022-08-25T12:10:24Z</time>
      </trkpt>
      <trkpt lat="42.67682200000004" lon="-1.9405940000000022">
        <ele>436.457</ele>
        <time>2022-08-25T12:10:25Z</time>
      </trkpt>
      <trkpt lat="42.676809000000034" lon="-1.9406100000000022">
        <ele>436.477</ele>
        <time>2022-08-25T12:10:26Z</time>
      </trkpt>
      <trkpt lat="42.676752000000036" lon="-1.9406590000000021">
        <ele>436.843</ele>
        <time>2022-08-25T12:10:30Z</time>
      </trkpt>
      <trkpt lat="42.676724000000036" lon="-1.9406830000000022">
        <ele>437.025</ele>
        <time>2022-08-25T12:10:32Z</time>
      </trkpt>
      <trkpt lat="42.676682000000035" lon="-1.9407210000000021">
        <ele>437.232</ele>
        <time>2022-08-25T12:10:35Z</time>
      </trkpt>
      <trkpt lat="42.67659100000004" lon="-1.9407940000000021">
        <ele>437.845</ele>
        <time>2022-08-25T12:10:41Z</time>
      </trkpt>
      <trkpt lat="42.67657600000004" lon="-1.940808000000002">
        <ele>437.811</ele>
        <time>2022-08-25T12:10:42Z</time>
      </trkpt>
      <trkpt lat="42.67653000000004" lon="-1.940852000000002">
        <ele>438.042</ele>
        <time>2022-08-25T12:10:45Z</time>
      </trkpt>
      <trkpt lat="42.676501000000044" lon="-1.9408750000000021">
        <ele>438.287</ele>
        <time>2022-08-25T12:10:47Z</time>
      </trkpt>
      <trkpt lat="42.67648600000005" lon="-1.9408880000000022">
        <ele>438.442</ele>
        <time>2022-08-25T12:10:48Z</time>
      </trkpt>
      <trkpt lat="42.67647100000005" lon="-1.9409030000000023">
        <ele>438.626</ele>
        <time>2022-08-25T12:10:49Z</time>
      </trkpt>
      <trkpt lat="42.67645700000005" lon="-1.9409160000000023">
        <ele>438.609</ele>
        <time>2022-08-25T12:10:50Z</time>
      </trkpt>
      <trkpt lat="42.67642900000005" lon="-1.9409460000000023">
        <ele>439.049</ele>
        <time>2022-08-25T12:10:52Z</time>
      </trkpt>
      <trkpt lat="42.676405000000045" lon="-1.9409760000000023">
        <ele>439.419</ele>
        <time>2022-08-25T12:10:54Z</time>
      </trkpt>
      <trkpt lat="42.676394000000045" lon="-1.9409890000000023">
        <ele>439.429</ele>
        <time>2022-08-25T12:10:55Z</time>
      </trkpt>
      <trkpt lat="42.67638400000004" lon="-1.9410010000000022">
        <ele>439.685</ele>
        <time>2022-08-25T12:10:56Z</time>
      </trkpt>
      <trkpt lat="42.67637100000004" lon="-1.9410120000000022">
        <ele>439.637</ele>
        <time>2022-08-25T12:10:57Z</time>
      </trkpt>
      <trkpt lat="42.67635700000004" lon="-1.9410260000000021">
        <ele>439.884</ele>
        <time>2022-08-25T12:10:58Z</time>
      </trkpt>
      <trkpt lat="42.67630800000004" lon="-1.9410800000000021">
        <ele>440.077</ele>
        <time>2022-08-25T12:11:02Z</time>
      </trkpt>
      <trkpt lat="42.67628200000004" lon="-1.941105000000002">
        <ele>440.273</ele>
        <time>2022-08-25T12:11:04Z</time>
      </trkpt>
      <trkpt lat="42.676259000000044" lon="-1.941132000000002">
        <ele>440.454</ele>
        <time>2022-08-25T12:11:06Z</time>
      </trkpt>
      <trkpt lat="42.676247000000046" lon="-1.941146000000002">
        <ele>440.491</ele>
        <time>2022-08-25T12:11:07Z</time>
      </trkpt>
      <trkpt lat="42.676233000000046" lon="-1.941160000000002">
        <ele>440.481</ele>
        <time>2022-08-25T12:11:08Z</time>
      </trkpt>
      <trkpt lat="42.676169000000044" lon="-1.941234000000002">
        <ele>440.819</ele>
        <time>2022-08-25T12:11:12Z</time>
      </trkpt>
      <trkpt lat="42.67614400000004" lon="-1.941276000000002">
        <ele>441.009</ele>
        <time>2022-08-25T12:11:14Z</time>
      </trkpt>
      <trkpt lat="42.67613400000004" lon="-1.941294000000002">
        <ele>441.020</ele>
        <time>2022-08-25T12:11:15Z</time>
      </trkpt>
      <trkpt lat="42.67612200000004" lon="-1.941308000000002">
        <ele>441.220</ele>
        <time>2022-08-25T12:11:16Z</time>
      </trkpt>
      <trkpt lat="42.676110000000044" lon="-1.9413230000000021">
        <ele>441.480</ele>
        <time>2022-08-25T12:11:17Z</time>
      </trkpt>
      <trkpt lat="42.676101000000045" lon="-1.941340000000002">
        <ele>441.476</ele>
        <time>2022-08-25T12:11:18Z</time>
      </trkpt>
      <trkpt lat="42.67609100000004" lon="-1.941356000000002">
        <ele>441.468</ele>
        <time>2022-08-25T12:11:19Z</time>
      </trkpt>
      <trkpt lat="42.67608300000004" lon="-1.9413690000000021">
        <ele>441.895</ele>
        <time>2022-08-25T12:11:20Z</time>
      </trkpt>
      <trkpt lat="42.67607300000004" lon="-1.9413850000000021">
        <ele>442.088</ele>
        <time>2022-08-25T12:11:21Z</time>
      </trkpt>
      <trkpt lat="42.67606500000004" lon="-1.941397000000002">
        <ele>442.074</ele>
        <time>2022-08-25T12:11:22Z</time>
      </trkpt>
      <trkpt lat="42.676055000000034" lon="-1.941409000000002">
        <ele>442.265</ele>
        <time>2022-08-25T12:11:23Z</time>
      </trkpt>
      <trkpt lat="42.67604500000003" lon="-1.941422000000002">
        <ele>442.256</ele>
        <time>2022-08-25T12:11:24Z</time>
      </trkpt>
      <trkpt lat="42.67603400000003" lon="-1.941436000000002">
        <ele>442.259</ele>
        <time>2022-08-25T12:11:25Z</time>
      </trkpt>
      <trkpt lat="42.67602300000003" lon="-1.941451000000002">
        <ele>442.414</ele>
        <time>2022-08-25T12:11:26Z</time>
      </trkpt>
      <trkpt lat="42.676013000000026" lon="-1.9414660000000021">
        <ele>442.609</ele>
        <time>2022-08-25T12:11:27Z</time>
      </trkpt>
      <trkpt lat="42.67600300000002" lon="-1.9414810000000022">
        <ele>442.826</ele>
        <time>2022-08-25T12:11:28Z</time>
      </trkpt>
      <trkpt lat="42.675994000000024" lon="-1.9414970000000022">
        <ele>442.856</ele>
        <time>2022-08-25T12:11:29Z</time>
      </trkpt>
      <trkpt lat="42.67598600000002" lon="-1.9415110000000022">
        <ele>442.876</ele>
        <time>2022-08-25T12:11:30Z</time>
      </trkpt>
      <trkpt lat="42.675977000000024" lon="-1.9415250000000022">
        <ele>443.032</ele>
        <time>2022-08-25T12:11:31Z</time>
      </trkpt>
      <trkpt lat="42.675966000000024" lon="-1.9415410000000022">
        <ele>443.064</ele>
        <time>2022-08-25T12:11:32Z</time>
      </trkpt>
      <trkpt lat="42.67595600000002" lon="-1.9415580000000021">
        <ele>443.051</ele>
        <time>2022-08-25T12:11:33Z</time>
      </trkpt>
      <trkpt lat="42.67594500000002" lon="-1.9415730000000022">
        <ele>443.284</ele>
        <time>2022-08-25T12:11:34Z</time>
      </trkpt>
      <trkpt lat="42.67593500000002" lon="-1.9415880000000023">
        <ele>443.250</ele>
        <time>2022-08-25T12:11:35Z</time>
      </trkpt>
      <trkpt lat="42.675927000000016" lon="-1.9416020000000023">
        <ele>443.481</ele>
        <time>2022-08-25T12:11:36Z</time>
      </trkpt>
      <trkpt lat="42.67591700000001" lon="-1.9416150000000023">
        <ele>443.622</ele>
        <time>2022-08-25T12:11:37Z</time>
      </trkpt>
      <trkpt lat="42.67590900000001" lon="-1.9416280000000024">
        <ele>443.862</ele>
        <time>2022-08-25T12:11:38Z</time>
      </trkpt>
      <trkpt lat="42.67590100000001" lon="-1.9416420000000023">
        <ele>443.808</ele>
        <time>2022-08-25T12:11:39Z</time>
      </trkpt>
      <trkpt lat="42.67589200000001" lon="-1.9416570000000024">
        <ele>443.809</ele>
        <time>2022-08-25T12:11:40Z</time>
      </trkpt>
      <trkpt lat="42.67588200000001" lon="-1.9416700000000024">
        <ele>444.073</ele>
        <time>2022-08-25T12:11:41Z</time>
      </trkpt>
      <trkpt lat="42.675872000000005" lon="-1.9416850000000025">
        <ele>444.053</ele>
        <time>2022-08-25T12:11:42Z</time>
      </trkpt>
      <trkpt lat="42.675861000000005" lon="-1.9416980000000026">
        <ele>444.223</ele>
        <time>2022-08-25T12:11:43Z</time>
      </trkpt>
      <trkpt lat="42.675850000000004" lon="-1.9417140000000026">
        <ele>444.289</ele>
        <time>2022-08-25T12:11:44Z</time>
      </trkpt>
      <trkpt lat="42.675842" lon="-1.9417310000000025">
        <ele>444.271</ele>
        <time>2022-08-25T12:11:45Z</time>
      </trkpt>
      <trkpt lat="42.675832" lon="-1.9417450000000025">
        <ele>444.478</ele>
        <time>2022-08-25T12:11:46Z</time>
      </trkpt>
      <trkpt lat="42.675821" lon="-1.9417610000000025">
        <ele>444.421</ele>
        <time>2022-08-25T12:11:47Z</time>
      </trkpt>
      <trkpt lat="42.675810999999996" lon="-1.9417790000000026">
        <ele>444.677</ele>
        <time>2022-08-25T12:11:48Z</time>
      </trkpt>
      <trkpt lat="42.675799" lon="-1.9417980000000026">
        <ele>444.688</ele>
        <time>2022-08-25T12:11:49Z</time>
      </trkpt>
      <trkpt lat="42.675788" lon="-1.9418170000000026">
        <ele>444.835</ele>
        <time>2022-08-25T12:11:50Z</time>
      </trkpt>
      <trkpt lat="42.675776" lon="-1.9418340000000025">
        <ele>444.886</ele>
        <time>2022-08-25T12:11:51Z</time>
      </trkpt>
      <trkpt lat="42.675765999999996" lon="-1.9418540000000024">
        <ele>444.814</ele>
        <time>2022-08-25T12:11:52Z</time>
      </trkpt>
      <trkpt lat="42.675754999999995" lon="-1.9418740000000023">
        <ele>445.009</ele>
        <time>2022-08-25T12:11:53Z</time>
      </trkpt>
      <trkpt lat="42.675695" lon="-1.9419770000000023">
        <ele>445.664</ele>
        <time>2022-08-25T12:11:58Z</time>
      </trkpt>
      <trkpt lat="42.675684" lon="-1.9419980000000023">
        <ele>445.844</ele>
        <time>2022-08-25T12:11:59Z</time>
      </trkpt>
      <trkpt lat="42.675673999999994" lon="-1.9420190000000024">
        <ele>445.864</ele>
        <time>2022-08-25T12:12:00Z</time>
      </trkpt>
      <trkpt lat="42.675664999999995" lon="-1.9420400000000024">
        <ele>446.050</ele>
        <time>2022-08-25T12:12:01Z</time>
      </trkpt>
      <trkpt lat="42.675653" lon="-1.9420620000000024">
        <ele>446.222</ele>
        <time>2022-08-25T12:12:02Z</time>
      </trkpt>
      <trkpt lat="42.675641999999996" lon="-1.9420830000000024">
        <ele>446.259</ele>
        <time>2022-08-25T12:12:03Z</time>
      </trkpt>
      <trkpt lat="42.67563199999999" lon="-1.9421040000000025">
        <ele>446.432</ele>
        <time>2022-08-25T12:12:04Z</time>
      </trkpt>
      <trkpt lat="42.67562199999999" lon="-1.9421260000000025">
        <ele>446.638</ele>
        <time>2022-08-25T12:12:05Z</time>
      </trkpt>
      <trkpt lat="42.67561399999999" lon="-1.9421480000000024">
        <ele>446.659</ele>
        <time>2022-08-25T12:12:06Z</time>
      </trkpt>
      <trkpt lat="42.67560499999999" lon="-1.9421690000000025">
        <ele>446.633</ele>
        <time>2022-08-25T12:12:07Z</time>
      </trkpt>
      <trkpt lat="42.67559699999999" lon="-1.9421890000000024">
        <ele>446.823</ele>
        <time>2022-08-25T12:12:08Z</time>
      </trkpt>
      <trkpt lat="42.675586999999986" lon="-1.9422100000000024">
        <ele>446.815</ele>
        <time>2022-08-25T12:12:09Z</time>
      </trkpt>
      <trkpt lat="42.67557699999998" lon="-1.9422290000000024">
        <ele>447.209</ele>
        <time>2022-08-25T12:12:10Z</time>
      </trkpt>
      <trkpt lat="42.67556899999998" lon="-1.9422490000000023">
        <ele>447.264</ele>
        <time>2022-08-25T12:12:11Z</time>
      </trkpt>
      <trkpt lat="42.67556099999998" lon="-1.9422670000000024">
        <ele>447.484</ele>
        <time>2022-08-25T12:12:12Z</time>
      </trkpt>
      <trkpt lat="42.67555299999998" lon="-1.9422860000000024">
        <ele>447.464</ele>
        <time>2022-08-25T12:12:13Z</time>
      </trkpt>
      <trkpt lat="42.67554499999998" lon="-1.9423050000000024">
        <ele>447.460</ele>
        <time>2022-08-25T12:12:14Z</time>
      </trkpt>
      <trkpt lat="42.67553799999998" lon="-1.9423260000000024">
        <ele>447.622</ele>
        <time>2022-08-25T12:12:15Z</time>
      </trkpt>
      <trkpt lat="42.67553199999998" lon="-1.9423490000000025">
        <ele>447.639</ele>
        <time>2022-08-25T12:12:16Z</time>
      </trkpt>
      <trkpt lat="42.675525999999984" lon="-1.9423730000000026">
        <ele>447.642</ele>
        <time>2022-08-25T12:12:17Z</time>
      </trkpt>
      <trkpt lat="42.67551799999998" lon="-1.9423960000000027">
        <ele>447.858</ele>
        <time>2022-08-25T12:12:18Z</time>
      </trkpt>
      <trkpt lat="42.67550799999998" lon="-1.9424190000000028">
        <ele>447.849</ele>
        <time>2022-08-25T12:12:19Z</time>
      </trkpt>
      <trkpt lat="42.675497999999976" lon="-1.9424410000000027">
        <ele>447.832</ele>
        <time>2022-08-25T12:12:20Z</time>
      </trkpt>
      <trkpt lat="42.67549099999998" lon="-1.9424610000000027">
        <ele>448.092</ele>
        <time>2022-08-25T12:12:21Z</time>
      </trkpt>
      <trkpt lat="42.67548499999998" lon="-1.9424830000000026">
        <ele>448.011</ele>
        <time>2022-08-25T12:12:22Z</time>
      </trkpt>
      <trkpt lat="42.67547999999998" lon="-1.9425050000000026">
        <ele>448.009</ele>
        <time>2022-08-25T12:12:23Z</time>
      </trkpt>
      <trkpt lat="42.67547599999998" lon="-1.9425270000000026">
        <ele>448.224</ele>
        <time>2022-08-25T12:12:24Z</time>
      </trkpt>
      <trkpt lat="42.67544599999998" lon="-1.9426380000000025">
        <ele>448.214</ele>
        <time>2022-08-25T12:12:29Z</time>
      </trkpt>
      <trkpt lat="42.67544099999998" lon="-1.9426600000000025">
        <ele>448.294</ele>
        <time>2022-08-25T12:12:30Z</time>
      </trkpt>
      <trkpt lat="42.675438999999976" lon="-1.9426810000000025">
        <ele>448.460</ele>
        <time>2022-08-25T12:12:31Z</time>
      </trkpt>
      <trkpt lat="42.675433999999974" lon="-1.9427000000000025">
        <ele>448.412</ele>
        <time>2022-08-25T12:12:32Z</time>
      </trkpt>
      <trkpt lat="42.67542699999998" lon="-1.9427190000000025">
        <ele>448.489</ele>
        <time>2022-08-25T12:12:33Z</time>
      </trkpt>
      <trkpt lat="42.67542299999998" lon="-1.9427360000000025">
        <ele>448.442</ele>
        <time>2022-08-25T12:12:34Z</time>
      </trkpt>
      <trkpt lat="42.67542099999998" lon="-1.9427530000000024">
        <ele>448.488</ele>
        <time>2022-08-25T12:12:35Z</time>
      </trkpt>
      <trkpt lat="42.67541999999998" lon="-1.9427690000000024">
        <ele>448.489</ele>
        <time>2022-08-25T12:12:36Z</time>
      </trkpt>
      <trkpt lat="42.67542099999998" lon="-1.9427870000000025">
        <ele>448.493</ele>
        <time>2022-08-25T12:12:37Z</time>
      </trkpt>
      <trkpt lat="42.67541999999998" lon="-1.9428050000000026">
        <ele>448.665</ele>
        <time>2022-08-25T12:12:38Z</time>
      </trkpt>
      <trkpt lat="42.675418999999984" lon="-1.9428210000000026">
        <ele>448.821</ele>
        <time>2022-08-25T12:12:39Z</time>
      </trkpt>
      <trkpt lat="42.67541699999998" lon="-1.9428420000000026">
        <ele>449.009</ele>
        <time>2022-08-25T12:12:42Z</time>
      </trkpt>
      <trkpt lat="42.675409999999985" lon="-1.9429120000000026">
        <ele>449.240</ele>
        <time>2022-08-25T12:13:03Z</time>
      </trkpt>
      <trkpt lat="42.67540899999999" lon="-1.9429440000000027">
        <ele>449.270</ele>
        <time>2022-08-25T12:13:04Z</time>
      </trkpt>
      <trkpt lat="42.675375999999986" lon="-1.9431830000000028">
        <ele>449.470</ele>
        <time>2022-08-25T12:13:10Z</time>
      </trkpt>
      <trkpt lat="42.67528999999998" lon="-1.9435230000000028">
        <ele>450.296</ele>
        <time>2022-08-25T12:13:18Z</time>
      </trkpt>
      <trkpt lat="42.67528499999998" lon="-1.9435670000000027">
        <ele>450.468</ele>
        <time>2022-08-25T12:13:19Z</time>
      </trkpt>
      <trkpt lat="42.67527999999998" lon="-1.9436090000000028">
        <ele>450.455</ele>
        <time>2022-08-25T12:13:20Z</time>
      </trkpt>
      <trkpt lat="42.67527299999998" lon="-1.9436530000000027">
        <ele>450.628</ele>
        <time>2022-08-25T12:13:21Z</time>
      </trkpt>
      <trkpt lat="42.67526299999998" lon="-1.9436960000000028">
        <ele>450.674</ele>
        <time>2022-08-25T12:13:22Z</time>
      </trkpt>
      <trkpt lat="42.67525399999998" lon="-1.9437370000000027">
        <ele>450.665</ele>
        <time>2022-08-25T12:13:23Z</time>
      </trkpt>
      <trkpt lat="42.675246999999985" lon="-1.9437780000000027">
        <ele>450.817</ele>
        <time>2022-08-25T12:13:24Z</time>
      </trkpt>
      <trkpt lat="42.675240999999986" lon="-1.9438170000000026">
        <ele>451.087</ele>
        <time>2022-08-25T12:13:25Z</time>
      </trkpt>
      <trkpt lat="42.67523399999999" lon="-1.9438550000000026">
        <ele>451.215</ele>
        <time>2022-08-25T12:13:26Z</time>
      </trkpt>
      <trkpt lat="42.67522799999999" lon="-1.9438900000000026">
        <ele>451.209</ele>
        <time>2022-08-25T12:13:27Z</time>
      </trkpt>
      <trkpt lat="42.67521999999999" lon="-1.9439220000000026">
        <ele>451.642</ele>
        <time>2022-08-25T12:13:28Z</time>
      </trkpt>
      <trkpt lat="42.67520899999999" lon="-1.9439540000000026">
        <ele>452.072</ele>
        <time>2022-08-25T12:13:29Z</time>
      </trkpt>
      <trkpt lat="42.67519699999999" lon="-1.9439870000000026">
        <ele>452.052</ele>
        <time>2022-08-25T12:13:30Z</time>
      </trkpt>
      <trkpt lat="42.67516299999999" lon="-1.9440930000000025">
        <ele>452.248</ele>
        <time>2022-08-25T12:13:33Z</time>
      </trkpt>
      <trkpt lat="42.67515199999999" lon="-1.9441290000000024">
        <ele>452.470</ele>
        <time>2022-08-25T12:13:34Z</time>
      </trkpt>
      <trkpt lat="42.67514099999999" lon="-1.9441640000000024">
        <ele>452.477</ele>
        <time>2022-08-25T12:13:35Z</time>
      </trkpt>
      <trkpt lat="42.67512799999999" lon="-1.9442000000000024">
        <ele>452.670</ele>
        <time>2022-08-25T12:13:36Z</time>
      </trkpt>
      <trkpt lat="42.675116999999986" lon="-1.9442370000000024">
        <ele>452.666</ele>
        <time>2022-08-25T12:13:37Z</time>
      </trkpt>
      <trkpt lat="42.675105999999985" lon="-1.9442740000000025">
        <ele>452.857</ele>
        <time>2022-08-25T12:13:38Z</time>
      </trkpt>
      <trkpt lat="42.67509599999998" lon="-1.9443110000000026">
        <ele>452.862</ele>
        <time>2022-08-25T12:13:39Z</time>
      </trkpt>
      <trkpt lat="42.67508299999998" lon="-1.9443470000000025">
        <ele>452.883</ele>
        <time>2022-08-25T12:13:40Z</time>
      </trkpt>
      <trkpt lat="42.67506999999998" lon="-1.9443810000000026">
        <ele>452.811</ele>
        <time>2022-08-25T12:13:41Z</time>
      </trkpt>
      <trkpt lat="42.675059999999974" lon="-1.9444160000000026">
        <ele>452.809</ele>
        <time>2022-08-25T12:13:42Z</time>
      </trkpt>
      <trkpt lat="42.67505199999997" lon="-1.9444490000000025">
        <ele>452.897</ele>
        <time>2022-08-25T12:13:43Z</time>
      </trkpt>
      <trkpt lat="42.67504399999997" lon="-1.9444810000000026">
        <ele>452.877</ele>
        <time>2022-08-25T12:13:44Z</time>
      </trkpt>
      <trkpt lat="42.67503499999997" lon="-1.9445090000000025">
        <ele>452.897</ele>
        <time>2022-08-25T12:13:45Z</time>
      </trkpt>
      <trkpt lat="42.675027999999976" lon="-1.9445350000000026">
        <ele>452.883</ele>
        <time>2022-08-25T12:13:46Z</time>
      </trkpt>
      <trkpt lat="42.67502199999998" lon="-1.9445600000000025">
        <ele>452.855</ele>
        <time>2022-08-25T12:13:47Z</time>
      </trkpt>
      <trkpt lat="42.67501499999998" lon="-1.9445830000000026">
        <ele>452.892</ele>
        <time>2022-08-25T12:13:48Z</time>
      </trkpt>
      <trkpt lat="42.67500999999998" lon="-1.9446030000000025">
        <ele>452.855</ele>
        <time>2022-08-25T12:13:49Z</time>
      </trkpt>
      <trkpt lat="42.67500499999998" lon="-1.9446120000000024">
        <ele>452.841</ele>
        <time>2022-08-25T12:13:50Z</time>
      </trkpt>
      <trkpt lat="42.675002999999975" lon="-1.9446170000000025">
        <ele>452.872</ele>
        <time>2022-08-25T12:13:51Z</time>
      </trkpt>
      <trkpt lat="42.675002999999975" lon="-1.9446170000000025">
        <ele>452.837</ele>
        <time>2022-08-25T12:13:52Z</time>
      </trkpt>
      <trkpt lat="42.674991999999975" lon="-1.9446350000000026">
        <ele>451.649</ele>
        <time>2022-08-25T12:14:36Z</time>
      </trkpt>
      <trkpt lat="42.674977999999975" lon="-1.9446580000000027">
        <ele>451.613</ele>
        <time>2022-08-25T12:14:37Z</time>
      </trkpt>
      <trkpt lat="42.67494599999998" lon="-1.9447220000000027">
        <ele>451.609</ele>
        <time>2022-08-25T12:14:40Z</time>
      </trkpt>
      <trkpt lat="42.674937999999976" lon="-1.9447400000000028">
        <ele>451.464</ele>
        <time>2022-08-25T12:14:41Z</time>
      </trkpt>
      <trkpt lat="42.67493099999998" lon="-1.9447560000000028">
        <ele>451.494</ele>
        <time>2022-08-25T12:14:42Z</time>
      </trkpt>
      <trkpt lat="42.67492199999998" lon="-1.9447690000000029">
        <ele>451.614</ele>
        <time>2022-08-25T12:14:43Z</time>
      </trkpt>
      <trkpt lat="42.67491699999998" lon="-1.944776000000003">
        <ele>451.640</ele>
        <time>2022-08-25T12:14:44Z</time>
      </trkpt>
      <trkpt lat="42.67491499999998" lon="-1.944776000000003">
        <ele>451.492</ele>
        <time>2022-08-25T12:16:00Z</time>
      </trkpt>
      <trkpt lat="42.674895999999976" lon="-1.944781000000003">
        <ele>451.439</ele>
        <time>2022-08-25T12:16:01Z</time>
      </trkpt>
      <trkpt lat="42.67480399999997" lon="-1.944870000000003">
        <ele>451.442</ele>
        <time>2022-08-25T12:16:05Z</time>
      </trkpt>
      <trkpt lat="42.67477099999997" lon="-1.944897000000003">
        <ele>451.448</ele>
        <time>2022-08-25T12:16:06Z</time>
      </trkpt>
      <trkpt lat="42.67471699999997" lon="-1.944931000000003">
        <ele>451.419</ele>
        <time>2022-08-25T12:16:08Z</time>
      </trkpt>
      <trkpt lat="42.67469699999997" lon="-1.944943000000003">
        <ele>451.234</ele>
        <time>2022-08-25T12:16:09Z</time>
      </trkpt>
      <trkpt lat="42.67467199999997" lon="-1.944956000000003">
        <ele>451.255</ele>
        <time>2022-08-25T12:16:10Z</time>
      </trkpt>
      <trkpt lat="42.674645999999974" lon="-1.944967000000003">
        <ele>451.210</ele>
        <time>2022-08-25T12:16:11Z</time>
      </trkpt>
      <trkpt lat="42.674591999999976" lon="-1.944990000000003">
        <ele>451.209</ele>
        <time>2022-08-25T12:16:13Z</time>
      </trkpt>
      <trkpt lat="42.67430699999998" lon="-1.945133000000003">
        <ele>451.224</ele>
        <time>2022-08-25T12:16:23Z</time>
      </trkpt>
      <trkpt lat="42.674054999999974" lon="-1.9452640000000032">
        <ele>451.064</ele>
        <time>2022-08-25T12:16:30Z</time>
      </trkpt>
      <trkpt lat="42.67399099999997" lon="-1.9452940000000032">
        <ele>451.084</ele>
        <time>2022-08-25T12:16:32Z</time>
      </trkpt>
      <trkpt lat="42.67392099999997" lon="-1.945333000000003">
        <ele>451.040</ele>
        <time>2022-08-25T12:16:34Z</time>
      </trkpt>
      <trkpt lat="42.67387999999997" lon="-1.945353000000003">
        <ele>451.272</ele>
        <time>2022-08-25T12:16:35Z</time>
      </trkpt>
      <trkpt lat="42.67385199999997" lon="-1.945369000000003">
        <ele>451.259</ele>
        <time>2022-08-25T12:16:36Z</time>
      </trkpt>
      <trkpt lat="42.673818999999966" lon="-1.945388000000003">
        <ele>451.262</ele>
        <time>2022-08-25T12:16:37Z</time>
      </trkpt>
      <trkpt lat="42.67378499999997" lon="-1.945404000000003">
        <ele>451.288</ele>
        <time>2022-08-25T12:16:38Z</time>
      </trkpt>
      <trkpt lat="42.67345799999997" lon="-1.945565000000003">
        <ele>451.669</ele>
        <time>2022-08-25T12:16:47Z</time>
      </trkpt>
      <trkpt lat="42.67314299999997" lon="-1.945760000000003">
        <ele>451.638</ele>
        <time>2022-08-25T12:16:55Z</time>
      </trkpt>
      <trkpt lat="42.67304599999997" lon="-1.945851000000003">
        <ele>451.670</ele>
        <time>2022-08-25T12:16:58Z</time>
      </trkpt>
      <trkpt lat="42.67300699999997" lon="-1.9458910000000031">
        <ele>451.617</ele>
        <time>2022-08-25T12:16:59Z</time>
      </trkpt>
      <trkpt lat="42.67297699999997" lon="-1.945924000000003">
        <ele>451.609</ele>
        <time>2022-08-25T12:17:00Z</time>
      </trkpt>
      <trkpt lat="42.672952999999964" lon="-1.945954000000003">
        <ele>451.664</ele>
        <time>2022-08-25T12:17:01Z</time>
      </trkpt>
      <trkpt lat="42.672921999999964" lon="-1.945998000000003">
        <ele>451.694</ele>
        <time>2022-08-25T12:17:02Z</time>
      </trkpt>
      <trkpt lat="42.672893999999964" lon="-1.946034000000003">
        <ele>451.824</ele>
        <time>2022-08-25T12:17:03Z</time>
      </trkpt>
      <trkpt lat="42.67287299999997" lon="-1.946063000000003">
        <ele>451.870</ele>
        <time>2022-08-25T12:17:04Z</time>
      </trkpt>
      <trkpt lat="42.672845999999964" lon="-1.9461020000000029">
        <ele>451.892</ele>
        <time>2022-08-25T12:17:05Z</time>
      </trkpt>
      <trkpt lat="42.67282099999996" lon="-1.946139000000003">
        <ele>451.879</ele>
        <time>2022-08-25T12:17:06Z</time>
      </trkpt>
      <trkpt lat="42.67279599999996" lon="-1.946174000000003">
        <ele>451.862</ele>
        <time>2022-08-25T12:17:07Z</time>
      </trkpt>
      <trkpt lat="42.672766999999965" lon="-1.946217000000003">
        <ele>452.028</ele>
        <time>2022-08-25T12:17:08Z</time>
      </trkpt>
      <trkpt lat="42.672746999999966" lon="-1.946251000000003">
        <ele>452.039</ele>
        <time>2022-08-25T12:17:09Z</time>
      </trkpt>
      <trkpt lat="42.67273099999996" lon="-1.946276000000003">
        <ele>452.232</ele>
        <time>2022-08-25T12:17:10Z</time>
      </trkpt>
      <trkpt lat="42.67270699999996" lon="-1.946313000000003">
        <ele>452.292</ele>
        <time>2022-08-25T12:17:11Z</time>
      </trkpt>
      <trkpt lat="42.67268799999996" lon="-1.9463420000000031">
        <ele>452.411</ele>
        <time>2022-08-25T12:17:12Z</time>
      </trkpt>
      <trkpt lat="42.672671999999956" lon="-1.9463680000000032">
        <ele>452.609</ele>
        <time>2022-08-25T12:17:13Z</time>
      </trkpt>
      <trkpt lat="42.672649999999955" lon="-1.9464010000000032">
        <ele>452.844</ele>
        <time>2022-08-25T12:17:14Z</time>
      </trkpt>
      <trkpt lat="42.67263099999995" lon="-1.9464310000000031">
        <ele>452.854</ele>
        <time>2022-08-25T12:17:15Z</time>
      </trkpt>
      <trkpt lat="42.67261199999995" lon="-1.9464600000000032">
        <ele>452.864</ele>
        <time>2022-08-25T12:17:16Z</time>
      </trkpt>
      <trkpt lat="42.67256999999995" lon="-1.9465250000000032">
        <ele>453.070</ele>
        <time>2022-08-25T12:17:18Z</time>
      </trkpt>
      <trkpt lat="42.67245699999995" lon="-1.9467000000000032">
        <ele>453.872</ele>
        <time>2022-08-25T12:17:24Z</time>
      </trkpt>
      <trkpt lat="42.67240999999995" lon="-1.9467690000000033">
        <ele>454.079</ele>
        <time>2022-08-25T12:17:26Z</time>
      </trkpt>
      <trkpt lat="42.67233199999995" lon="-1.9468900000000033">
        <ele>454.252</ele>
        <time>2022-08-25T12:17:30Z</time>
      </trkpt>
      <trkpt lat="42.67227199999995" lon="-1.9469740000000033">
        <ele>454.498</ele>
        <time>2022-08-25T12:17:33Z</time>
      </trkpt>
      <trkpt lat="42.67203999999995" lon="-1.9472550000000033">
        <ele>454.429</ele>
        <time>2022-08-25T12:17:41Z</time>
      </trkpt>
      <trkpt lat="42.671895999999954" lon="-1.9474350000000034">
        <ele>454.413</ele>
        <time>2022-08-25T12:17:46Z</time>
      </trkpt>
      <trkpt lat="42.671864999999954" lon="-1.9474700000000034">
        <ele>454.443</ele>
        <time>2022-08-25T12:17:47Z</time>
      </trkpt>
      <trkpt lat="42.671833999999954" lon="-1.9475040000000035">
        <ele>454.407</ele>
        <time>2022-08-25T12:17:48Z</time>
      </trkpt>
      <trkpt lat="42.67179899999996" lon="-1.9475460000000036">
        <ele>454.409</ele>
        <time>2022-08-25T12:17:49Z</time>
      </trkpt>
      <trkpt lat="42.67176999999996" lon="-1.9475790000000035">
        <ele>454.422</ele>
        <time>2022-08-25T12:17:50Z</time>
      </trkpt>
      <trkpt lat="42.67174699999996" lon="-1.9476040000000034">
        <ele>454.432</ele>
        <time>2022-08-25T12:17:51Z</time>
      </trkpt>
      <trkpt lat="42.67171799999996" lon="-1.9476370000000034">
        <ele>454.452</ele>
        <time>2022-08-25T12:17:52Z</time>
      </trkpt>
      <trkpt lat="42.67168699999996" lon="-1.9476780000000034">
        <ele>454.458</ele>
        <time>2022-08-25T12:17:53Z</time>
      </trkpt>
      <trkpt lat="42.671660999999965" lon="-1.9477110000000033">
        <ele>454.620</ele>
        <time>2022-08-25T12:17:54Z</time>
      </trkpt>
      <trkpt lat="42.67163999999997" lon="-1.9477340000000034">
        <ele>454.667</ele>
        <time>2022-08-25T12:17:55Z</time>
      </trkpt>
      <trkpt lat="42.67161699999997" lon="-1.9477630000000035">
        <ele>454.640</ele>
        <time>2022-08-25T12:17:56Z</time>
      </trkpt>
      <trkpt lat="42.67159399999997" lon="-1.9477870000000035">
        <ele>454.826</ele>
        <time>2022-08-25T12:17:57Z</time>
      </trkpt>
      <trkpt lat="42.671572999999974" lon="-1.9478100000000036">
        <ele>454.887</ele>
        <time>2022-08-25T12:17:58Z</time>
      </trkpt>
      <trkpt lat="42.67154899999997" lon="-1.9478390000000037">
        <ele>455.067</ele>
        <time>2022-08-25T12:17:59Z</time>
      </trkpt>
      <trkpt lat="42.67153499999997" lon="-1.9478590000000036">
        <ele>455.081</ele>
        <time>2022-08-25T12:18:00Z</time>
      </trkpt>
      <trkpt lat="42.67151699999997" lon="-1.9478810000000035">
        <ele>455.219</ele>
        <time>2022-08-25T12:18:01Z</time>
      </trkpt>
      <trkpt lat="42.67150299999997" lon="-1.9479010000000034">
        <ele>455.409</ele>
        <time>2022-08-25T12:18:02Z</time>
      </trkpt>
      <trkpt lat="42.67148599999997" lon="-1.9479220000000035">
        <ele>455.497</ele>
        <time>2022-08-25T12:18:03Z</time>
      </trkpt>
      <trkpt lat="42.67147499999997" lon="-1.9479370000000036">
        <ele>455.427</ele>
        <time>2022-08-25T12:18:04Z</time>
      </trkpt>
      <trkpt lat="42.67146099999997" lon="-1.9479580000000036">
        <ele>455.427</ele>
        <time>2022-08-25T12:18:05Z</time>
      </trkpt>
      <trkpt lat="42.671442999999975" lon="-1.9479820000000037">
        <ele>455.673</ele>
        <time>2022-08-25T12:18:06Z</time>
      </trkpt>
      <trkpt lat="42.67139699999998" lon="-1.9480380000000037">
        <ele>456.025</ele>
        <time>2022-08-25T12:18:09Z</time>
      </trkpt>
      <trkpt lat="42.67138199999998" lon="-1.9480550000000036">
        <ele>456.062</ele>
        <time>2022-08-25T12:18:10Z</time>
      </trkpt>
      <trkpt lat="42.67136299999998" lon="-1.9480750000000036">
        <ele>456.245</ele>
        <time>2022-08-25T12:18:11Z</time>
      </trkpt>
      <trkpt lat="42.671346999999976" lon="-1.9480920000000035">
        <ele>456.261</ele>
        <time>2022-08-25T12:18:12Z</time>
      </trkpt>
      <trkpt lat="42.671332999999976" lon="-1.9481060000000034">
        <ele>456.452</ele>
        <time>2022-08-25T12:18:13Z</time>
      </trkpt>
      <trkpt lat="42.671318999999976" lon="-1.9481220000000035">
        <ele>456.444</ele>
        <time>2022-08-25T12:18:14Z</time>
      </trkpt>
      <trkpt lat="42.67124499999998" lon="-1.9482160000000035">
        <ele>457.005</ele>
        <time>2022-08-25T12:18:19Z</time>
      </trkpt>
      <trkpt lat="42.67123099999998" lon="-1.9482330000000034">
        <ele>457.015</ele>
        <time>2022-08-25T12:18:20Z</time>
      </trkpt>
      <trkpt lat="42.67121899999998" lon="-1.9482510000000035">
        <ele>457.209</ele>
        <time>2022-08-25T12:18:21Z</time>
      </trkpt>
      <trkpt lat="42.67120599999998" lon="-1.9482690000000036">
        <ele>457.215</ele>
        <time>2022-08-25T12:18:22Z</time>
      </trkpt>
      <trkpt lat="42.671192999999974" lon="-1.9482870000000037">
        <ele>457.265</ele>
        <time>2022-08-25T12:18:23Z</time>
      </trkpt>
      <trkpt lat="42.67117999999997" lon="-1.9483040000000036">
        <ele>457.625</ele>
        <time>2022-08-25T12:18:24Z</time>
      </trkpt>
      <trkpt lat="42.67116299999997" lon="-1.9483210000000035">
        <ele>457.621</ele>
        <time>2022-08-25T12:18:25Z</time>
      </trkpt>
      <trkpt lat="42.67114999999997" lon="-1.9483330000000034">
        <ele>457.643</ele>
        <time>2022-08-25T12:18:26Z</time>
      </trkpt>
      <trkpt lat="42.671119999999966" lon="-1.9483630000000034">
        <ele>458.080</ele>
        <time>2022-08-25T12:18:28Z</time>
      </trkpt>
      <trkpt lat="42.671089999999964" lon="-1.9483990000000033">
        <ele>458.063</ele>
        <time>2022-08-25T12:18:30Z</time>
      </trkpt>
      <trkpt lat="42.671077999999966" lon="-1.9484140000000034">
        <ele>458.279</ele>
        <time>2022-08-25T12:18:31Z</time>
      </trkpt>
      <trkpt lat="42.67106899999997" lon="-1.9484260000000033">
        <ele>458.470</ele>
        <time>2022-08-25T12:18:32Z</time>
      </trkpt>
      <trkpt lat="42.67105499999997" lon="-1.9484410000000034">
        <ele>458.478</ele>
        <time>2022-08-25T12:18:33Z</time>
      </trkpt>
      <trkpt lat="42.671038999999965" lon="-1.9484580000000034">
        <ele>458.833</ele>
        <time>2022-08-25T12:18:34Z</time>
      </trkpt>
      <trkpt lat="42.671027999999964" lon="-1.9484710000000034">
        <ele>458.826</ele>
        <time>2022-08-25T12:18:35Z</time>
      </trkpt>
      <trkpt lat="42.67101299999997" lon="-1.9484880000000033">
        <ele>458.809</ele>
        <time>2022-08-25T12:18:36Z</time>
      </trkpt>
      <trkpt lat="42.671001999999966" lon="-1.9485030000000034">
        <ele>458.858</ele>
        <time>2022-08-25T12:18:37Z</time>
      </trkpt>
      <trkpt lat="42.67098999999997" lon="-1.9485220000000034">
        <ele>458.858</ele>
        <time>2022-08-25T12:18:38Z</time>
      </trkpt>
      <trkpt lat="42.67097899999997" lon="-1.9485430000000035">
        <ele>459.058</ele>
        <time>2022-08-25T12:18:39Z</time>
      </trkpt>
      <trkpt lat="42.67096799999997" lon="-1.9485650000000034">
        <ele>459.244</ele>
        <time>2022-08-25T12:18:40Z</time>
      </trkpt>
      <trkpt lat="42.670954999999964" lon="-1.9485820000000034">
        <ele>459.456</ele>
        <time>2022-08-25T12:18:41Z</time>
      </trkpt>
      <trkpt lat="42.67094199999996" lon="-1.9485970000000035">
        <ele>459.623</ele>
        <time>2022-08-25T12:18:42Z</time>
      </trkpt>
      <trkpt lat="42.67092699999996" lon="-1.9486170000000034">
        <ele>459.626</ele>
        <time>2022-08-25T12:18:43Z</time>
      </trkpt>
      <trkpt lat="42.670914999999965" lon="-1.9486340000000033">
        <ele>459.822</ele>
        <time>2022-08-25T12:18:44Z</time>
      </trkpt>
      <trkpt lat="42.67089999999997" lon="-1.9486540000000032">
        <ele>460.013</ele>
        <time>2022-08-25T12:18:45Z</time>
      </trkpt>
      <trkpt lat="42.67088899999997" lon="-1.9486670000000033">
        <ele>460.058</ele>
        <time>2022-08-25T12:18:46Z</time>
      </trkpt>
      <trkpt lat="42.670875999999964" lon="-1.9486820000000034">
        <ele>460.252</ele>
        <time>2022-08-25T12:18:47Z</time>
      </trkpt>
      <trkpt lat="42.670861999999964" lon="-1.9486960000000033">
        <ele>460.217</ele>
        <time>2022-08-25T12:18:48Z</time>
      </trkpt>
      <trkpt lat="42.670849999999966" lon="-1.9487080000000032">
        <ele>460.209</ele>
        <time>2022-08-25T12:18:49Z</time>
      </trkpt>
      <trkpt lat="42.67084299999997" lon="-1.9487190000000032">
        <ele>460.486</ele>
        <time>2022-08-25T12:18:50Z</time>
      </trkpt>
      <trkpt lat="42.67083399999997" lon="-1.9487320000000032">
        <ele>460.486</ele>
        <time>2022-08-25T12:18:51Z</time>
      </trkpt>
      <trkpt lat="42.67082499999997" lon="-1.9487460000000032">
        <ele>460.436</ele>
        <time>2022-08-25T12:18:52Z</time>
      </trkpt>
      <trkpt lat="42.670817999999976" lon="-1.948758000000003">
        <ele>460.612</ele>
        <time>2022-08-25T12:18:53Z</time>
      </trkpt>
      <trkpt lat="42.67080899999998" lon="-1.948769000000003">
        <ele>460.844</ele>
        <time>2022-08-25T12:18:54Z</time>
      </trkpt>
      <trkpt lat="42.670798999999974" lon="-1.948772000000003">
        <ele>461.041</ele>
        <time>2022-08-25T12:18:55Z</time>
      </trkpt>
      <trkpt lat="42.670786999999976" lon="-1.948778000000003">
        <ele>461.054</ele>
        <time>2022-08-25T12:18:56Z</time>
      </trkpt>
      <trkpt lat="42.670769999999976" lon="-1.948794000000003">
        <ele>461.270</ele>
        <time>2022-08-25T12:18:57Z</time>
      </trkpt>
      <trkpt lat="42.670758999999975" lon="-1.948808000000003">
        <ele>461.271</ele>
        <time>2022-08-25T12:18:58Z</time>
      </trkpt>
      <trkpt lat="42.67074899999997" lon="-1.948822000000003">
        <ele>461.466</ele>
        <time>2022-08-25T12:18:59Z</time>
      </trkpt>
      <trkpt lat="42.67073899999997" lon="-1.9488390000000029">
        <ele>461.429</ele>
        <time>2022-08-25T12:19:00Z</time>
      </trkpt>
      <trkpt lat="42.67072999999997" lon="-1.9488590000000028">
        <ele>461.621</ele>
        <time>2022-08-25T12:19:01Z</time>
      </trkpt>
      <trkpt lat="42.67071599999997" lon="-1.9488810000000028">
        <ele>461.809</ele>
        <time>2022-08-25T12:19:02Z</time>
      </trkpt>
      <trkpt lat="42.67070499999997" lon="-1.9489020000000028">
        <ele>461.857</ele>
        <time>2022-08-25T12:19:03Z</time>
      </trkpt>
      <trkpt lat="42.67069499999997" lon="-1.9489160000000028">
        <ele>461.847</ele>
        <time>2022-08-25T12:19:04Z</time>
      </trkpt>
      <trkpt lat="42.67068299999997" lon="-1.9489330000000027">
        <ele>461.887</ele>
        <time>2022-08-25T12:19:05Z</time>
      </trkpt>
      <trkpt lat="42.67067099999997" lon="-1.9489490000000027">
        <ele>462.043</ele>
        <time>2022-08-25T12:19:06Z</time>
      </trkpt>
      <trkpt lat="42.67065999999997" lon="-1.9489660000000026">
        <ele>462.055</ele>
        <time>2022-08-25T12:19:07Z</time>
      </trkpt>
      <trkpt lat="42.67064899999997" lon="-1.9489840000000027">
        <ele>462.272</ele>
        <time>2022-08-25T12:19:08Z</time>
      </trkpt>
      <trkpt lat="42.670635999999966" lon="-1.9490050000000028">
        <ele>462.435</ele>
        <time>2022-08-25T12:19:09Z</time>
      </trkpt>
      <trkpt lat="42.67062699999997" lon="-1.9490180000000028">
        <ele>462.471</ele>
        <time>2022-08-25T12:19:10Z</time>
      </trkpt>
      <trkpt lat="42.67061599999997" lon="-1.949033000000003">
        <ele>462.442</ele>
        <time>2022-08-25T12:19:11Z</time>
      </trkpt>
      <trkpt lat="42.67060199999997" lon="-1.9490500000000028">
        <ele>462.663</ele>
        <time>2022-08-25T12:19:12Z</time>
      </trkpt>
      <trkpt lat="42.670591999999964" lon="-1.949065000000003">
        <ele>462.644</ele>
        <time>2022-08-25T12:19:13Z</time>
      </trkpt>
      <trkpt lat="42.67058399999996" lon="-1.949078000000003">
        <ele>462.618</ele>
        <time>2022-08-25T12:19:14Z</time>
      </trkpt>
      <trkpt lat="42.670574999999964" lon="-1.949092000000003">
        <ele>462.609</ele>
        <time>2022-08-25T12:19:15Z</time>
      </trkpt>
      <trkpt lat="42.67056499999996" lon="-1.9491090000000029">
        <ele>462.817</ele>
        <time>2022-08-25T12:19:16Z</time>
      </trkpt>
      <trkpt lat="42.67055699999996" lon="-1.9491200000000029">
        <ele>462.837</ele>
        <time>2022-08-25T12:19:17Z</time>
      </trkpt>
      <trkpt lat="42.67054499999996" lon="-1.949135000000003">
        <ele>463.057</ele>
        <time>2022-08-25T12:19:18Z</time>
      </trkpt>
      <trkpt lat="42.670537999999965" lon="-1.949146000000003">
        <ele>463.213</ele>
        <time>2022-08-25T12:19:19Z</time>
      </trkpt>
      <trkpt lat="42.670526999999964" lon="-1.949160000000003">
        <ele>463.235</ele>
        <time>2022-08-25T12:19:20Z</time>
      </trkpt>
      <trkpt lat="42.670492999999965" lon="-1.949216000000003">
        <ele>463.682</ele>
        <time>2022-08-25T12:19:23Z</time>
      </trkpt>
      <trkpt lat="42.670483999999966" lon="-1.949229000000003">
        <ele>463.685</ele>
        <time>2022-08-25T12:19:24Z</time>
      </trkpt>
      <trkpt lat="42.67047399999996" lon="-1.949245000000003">
        <ele>463.861</ele>
        <time>2022-08-25T12:19:25Z</time>
      </trkpt>
      <trkpt lat="42.670464999999965" lon="-1.949259000000003">
        <ele>464.052</ele>
        <time>2022-08-25T12:19:26Z</time>
      </trkpt>
      <trkpt lat="42.670416999999965" lon="-1.949318000000003">
        <ele>464.463</ele>
        <time>2022-08-25T12:19:30Z</time>
      </trkpt>
      <trkpt lat="42.67039899999997" lon="-1.949339000000003">
        <ele>464.644</ele>
        <time>2022-08-25T12:19:32Z</time>
      </trkpt>
      <trkpt lat="42.67038999999997" lon="-1.949353000000003">
        <ele>464.618</ele>
        <time>2022-08-25T12:19:33Z</time>
      </trkpt>
      <trkpt lat="42.67038099999997" lon="-1.949370000000003">
        <ele>464.609</ele>
        <time>2022-08-25T12:19:34Z</time>
      </trkpt>
      <trkpt lat="42.67037299999997" lon="-1.949381000000003">
        <ele>464.857</ele>
        <time>2022-08-25T12:19:35Z</time>
      </trkpt>
      <trkpt lat="42.670362999999966" lon="-1.949397000000003">
        <ele>464.817</ele>
        <time>2022-08-25T12:19:36Z</time>
      </trkpt>
      <trkpt lat="42.67035299999996" lon="-1.9494140000000029">
        <ele>465.057</ele>
        <time>2022-08-25T12:19:37Z</time>
      </trkpt>
      <trkpt lat="42.67034599999997" lon="-1.949429000000003">
        <ele>465.233</ele>
        <time>2022-08-25T12:19:38Z</time>
      </trkpt>
      <trkpt lat="42.67033599999996" lon="-1.9494490000000029">
        <ele>465.455</ele>
        <time>2022-08-25T12:19:39Z</time>
      </trkpt>
      <trkpt lat="42.67033099999996" lon="-1.949462000000003">
        <ele>465.672</ele>
        <time>2022-08-25T12:19:40Z</time>
      </trkpt>
      <trkpt lat="42.67032199999996" lon="-1.949478000000003">
        <ele>465.685</ele>
        <time>2022-08-25T12:19:41Z</time>
      </trkpt>
      <trkpt lat="42.670309999999965" lon="-1.949493000000003">
        <ele>465.811</ele>
        <time>2022-08-25T12:19:42Z</time>
      </trkpt>
      <trkpt lat="42.67029999999996" lon="-1.949507000000003">
        <ele>466.032</ele>
        <time>2022-08-25T12:19:43Z</time>
      </trkpt>
      <trkpt lat="42.670292999999965" lon="-1.949525000000003">
        <ele>466.225</ele>
        <time>2022-08-25T12:19:44Z</time>
      </trkpt>
      <trkpt lat="42.67028399999997" lon="-1.9495430000000031">
        <ele>466.426</ele>
        <time>2022-08-25T12:19:45Z</time>
      </trkpt>
      <trkpt lat="42.67027799999997" lon="-1.9495590000000032">
        <ele>466.408</ele>
        <time>2022-08-25T12:19:46Z</time>
      </trkpt>
      <trkpt lat="42.67027199999997" lon="-1.9495720000000032">
        <ele>466.609</ele>
        <time>2022-08-25T12:19:47Z</time>
      </trkpt>
      <trkpt lat="42.670261999999965" lon="-1.9495890000000031">
        <ele>466.633</ele>
        <time>2022-08-25T12:19:48Z</time>
      </trkpt>
      <trkpt lat="42.67025199999996" lon="-1.949609000000003">
        <ele>466.873</ele>
        <time>2022-08-25T12:19:49Z</time>
      </trkpt>
      <trkpt lat="42.67024399999996" lon="-1.949625000000003">
        <ele>467.013</ele>
        <time>2022-08-25T12:19:50Z</time>
      </trkpt>
      <trkpt lat="42.670236999999965" lon="-1.9496350000000031">
        <ele>467.289</ele>
        <time>2022-08-25T12:19:51Z</time>
      </trkpt>
      <trkpt lat="42.67022899999996" lon="-1.949649000000003">
        <ele>467.481</ele>
        <time>2022-08-25T12:19:52Z</time>
      </trkpt>
      <trkpt lat="42.670219999999965" lon="-1.949671000000003">
        <ele>467.478</ele>
        <time>2022-08-25T12:19:53Z</time>
      </trkpt>
      <trkpt lat="42.67021499999996" lon="-1.9496860000000031">
        <ele>467.481</ele>
        <time>2022-08-25T12:19:54Z</time>
      </trkpt>
      <trkpt lat="42.67020199999996" lon="-1.9497090000000032">
        <ele>467.647</ele>
        <time>2022-08-25T12:19:55Z</time>
      </trkpt>
      <trkpt lat="42.67019399999996" lon="-1.9497240000000033">
        <ele>467.618</ele>
        <time>2022-08-25T12:19:56Z</time>
      </trkpt>
      <trkpt lat="42.67018099999996" lon="-1.9497400000000034">
        <ele>467.877</ele>
        <time>2022-08-25T12:19:57Z</time>
      </trkpt>
      <trkpt lat="42.670164999999955" lon="-1.9497620000000033">
        <ele>467.861</ele>
        <time>2022-08-25T12:19:58Z</time>
      </trkpt>
      <trkpt lat="42.67015499999995" lon="-1.9497840000000033">
        <ele>468.027</ele>
        <time>2022-08-25T12:19:59Z</time>
      </trkpt>
      <trkpt lat="42.67014699999995" lon="-1.9498020000000034">
        <ele>468.009</ele>
        <time>2022-08-25T12:20:00Z</time>
      </trkpt>
      <trkpt lat="42.67013699999995" lon="-1.9498230000000034">
        <ele>468.248</ele>
        <time>2022-08-25T12:20:01Z</time>
      </trkpt>
      <trkpt lat="42.67012599999995" lon="-1.9498480000000034">
        <ele>468.438</ele>
        <time>2022-08-25T12:20:02Z</time>
      </trkpt>
      <trkpt lat="42.670117999999945" lon="-1.9498640000000034">
        <ele>468.638</ele>
        <time>2022-08-25T12:20:03Z</time>
      </trkpt>
      <trkpt lat="42.670109999999944" lon="-1.9498840000000033">
        <ele>468.834</ele>
        <time>2022-08-25T12:20:04Z</time>
      </trkpt>
      <trkpt lat="42.67009999999994" lon="-1.9499030000000033">
        <ele>468.886</ele>
        <time>2022-08-25T12:20:05Z</time>
      </trkpt>
      <trkpt lat="42.67009099999994" lon="-1.9499220000000033">
        <ele>469.023</ele>
        <time>2022-08-25T12:20:06Z</time>
      </trkpt>
      <trkpt lat="42.67008099999994" lon="-1.9499430000000033">
        <ele>469.276</ele>
        <time>2022-08-25T12:20:07Z</time>
      </trkpt>
      <trkpt lat="42.67007199999994" lon="-1.9499600000000032">
        <ele>469.482</ele>
        <time>2022-08-25T12:20:08Z</time>
      </trkpt>
      <trkpt lat="42.67006599999994" lon="-1.9499770000000032">
        <ele>469.483</ele>
        <time>2022-08-25T12:20:09Z</time>
      </trkpt>
      <trkpt lat="42.67005799999994" lon="-1.9499960000000032">
        <ele>469.626</ele>
        <time>2022-08-25T12:20:10Z</time>
      </trkpt>
      <trkpt lat="42.67004599999994" lon="-1.9500210000000031">
        <ele>469.847</ele>
        <time>2022-08-25T12:20:11Z</time>
      </trkpt>
      <trkpt lat="42.670038999999946" lon="-1.950038000000003">
        <ele>469.811</ele>
        <time>2022-08-25T12:20:12Z</time>
      </trkpt>
      <trkpt lat="42.67002699999995" lon="-1.950063000000003">
        <ele>470.209</ele>
        <time>2022-08-25T12:20:13Z</time>
      </trkpt>
      <trkpt lat="42.67001799999995" lon="-1.950077000000003">
        <ele>470.443</ele>
        <time>2022-08-25T12:20:14Z</time>
      </trkpt>
      <trkpt lat="42.67000599999995" lon="-1.9500940000000029">
        <ele>470.663</ele>
        <time>2022-08-25T12:20:15Z</time>
      </trkpt>
      <trkpt lat="42.66999399999995" lon="-1.950118000000003">
        <ele>471.023</ele>
        <time>2022-08-25T12:20:16Z</time>
      </trkpt>
      <trkpt lat="42.669984999999954" lon="-1.9501380000000028">
        <ele>471.269</ele>
        <time>2022-08-25T12:20:17Z</time>
      </trkpt>
      <trkpt lat="42.66997799999996" lon="-1.9501540000000028">
        <ele>471.481</ele>
        <time>2022-08-25T12:20:18Z</time>
      </trkpt>
      <trkpt lat="42.66996699999996" lon="-1.9501780000000029">
        <ele>471.498</ele>
        <time>2022-08-25T12:20:19Z</time>
      </trkpt>
      <trkpt lat="42.669956999999954" lon="-1.950204000000003">
        <ele>471.691</ele>
        <time>2022-08-25T12:20:20Z</time>
      </trkpt>
      <trkpt lat="42.66994699999995" lon="-1.950227000000003">
        <ele>471.657</ele>
        <time>2022-08-25T12:20:21Z</time>
      </trkpt>
      <trkpt lat="42.66993599999995" lon="-1.950258000000003">
        <ele>471.818</ele>
        <time>2022-08-25T12:20:22Z</time>
      </trkpt>
      <trkpt lat="42.66992799999995" lon="-1.950276000000003">
        <ele>471.897</ele>
        <time>2022-08-25T12:20:23Z</time>
      </trkpt>
      <trkpt lat="42.669917999999946" lon="-1.950300000000003">
        <ele>472.023</ele>
        <time>2022-08-25T12:20:24Z</time>
      </trkpt>
      <trkpt lat="42.66990599999995" lon="-1.9503230000000031">
        <ele>472.025</ele>
        <time>2022-08-25T12:20:25Z</time>
      </trkpt>
      <trkpt lat="42.66989399999995" lon="-1.950345000000003">
        <ele>472.009</ele>
        <time>2022-08-25T12:20:26Z</time>
      </trkpt>
      <trkpt lat="42.66988099999995" lon="-1.950378000000003">
        <ele>472.230</ele>
        <time>2022-08-25T12:20:27Z</time>
      </trkpt>
      <trkpt lat="42.669869999999946" lon="-1.950405000000003">
        <ele>472.230</ele>
        <time>2022-08-25T12:20:28Z</time>
      </trkpt>
      <trkpt lat="42.669855999999946" lon="-1.950437000000003">
        <ele>472.250</ele>
        <time>2022-08-25T12:20:29Z</time>
      </trkpt>
      <trkpt lat="42.669844999999945" lon="-1.950467000000003">
        <ele>472.456</ele>
        <time>2022-08-25T12:20:30Z</time>
      </trkpt>
      <trkpt lat="42.66983299999995" lon="-1.950494000000003">
        <ele>472.638</ele>
        <time>2022-08-25T12:20:31Z</time>
      </trkpt>
      <trkpt lat="42.66981899999995" lon="-1.950529000000003">
        <ele>472.885</ele>
        <time>2022-08-25T12:20:32Z</time>
      </trkpt>
      <trkpt lat="42.669808999999944" lon="-1.950553000000003">
        <ele>472.898</ele>
        <time>2022-08-25T12:20:33Z</time>
      </trkpt>
      <trkpt lat="42.66979799999994" lon="-1.950583000000003">
        <ele>473.064</ele>
        <time>2022-08-25T12:20:34Z</time>
      </trkpt>
      <trkpt lat="42.669785999999945" lon="-1.9506170000000032">
        <ele>473.025</ele>
        <time>2022-08-25T12:20:35Z</time>
      </trkpt>
      <trkpt lat="42.66977599999994" lon="-1.950648000000003">
        <ele>473.214</ele>
        <time>2022-08-25T12:20:36Z</time>
      </trkpt>
      <trkpt lat="42.669768999999945" lon="-1.9506710000000032">
        <ele>473.254</ele>
        <time>2022-08-25T12:20:37Z</time>
      </trkpt>
      <trkpt lat="42.669757999999945" lon="-1.9507010000000031">
        <ele>473.409</ele>
        <time>2022-08-25T12:20:38Z</time>
      </trkpt>
      <trkpt lat="42.66974599999995" lon="-1.9507300000000032">
        <ele>473.409</ele>
        <time>2022-08-25T12:20:39Z</time>
      </trkpt>
      <trkpt lat="42.669734999999946" lon="-1.9507600000000032">
        <ele>473.412</ele>
        <time>2022-08-25T12:20:40Z</time>
      </trkpt>
      <trkpt lat="42.66972199999994" lon="-1.9508010000000031">
        <ele>473.652</ele>
        <time>2022-08-25T12:20:41Z</time>
      </trkpt>
      <trkpt lat="42.66971499999995" lon="-1.9508240000000032">
        <ele>473.692</ele>
        <time>2022-08-25T12:20:42Z</time>
      </trkpt>
      <trkpt lat="42.669704999999944" lon="-1.9508550000000031">
        <ele>473.818</ele>
        <time>2022-08-25T12:20:43Z</time>
      </trkpt>
      <trkpt lat="42.66969199999994" lon="-1.9508970000000032">
        <ele>473.870</ele>
        <time>2022-08-25T12:20:44Z</time>
      </trkpt>
      <trkpt lat="42.66967999999994" lon="-1.9509320000000032">
        <ele>473.857</ele>
        <time>2022-08-25T12:20:45Z</time>
      </trkpt>
      <trkpt lat="42.669670999999944" lon="-1.9509580000000033">
        <ele>473.860</ele>
        <time>2022-08-25T12:20:46Z</time>
      </trkpt>
      <trkpt lat="42.66965599999995" lon="-1.9509910000000033">
        <ele>473.826</ele>
        <time>2022-08-25T12:20:47Z</time>
      </trkpt>
      <trkpt lat="42.669636999999945" lon="-1.9510360000000033">
        <ele>473.847</ele>
        <time>2022-08-25T12:20:48Z</time>
      </trkpt>
      <trkpt lat="42.66962199999995" lon="-1.9510720000000032">
        <ele>473.869</ele>
        <time>2022-08-25T12:20:49Z</time>
      </trkpt>
      <trkpt lat="42.66960099999995" lon="-1.9511250000000033">
        <ele>474.004</ele>
        <time>2022-08-25T12:20:50Z</time>
      </trkpt>
      <trkpt lat="42.66955499999995" lon="-1.9512510000000034">
        <ele>474.224</ele>
        <time>2022-08-25T12:20:53Z</time>
      </trkpt>
      <trkpt lat="42.66952399999995" lon="-1.9513290000000034">
        <ele>474.209</ele>
        <time>2022-08-25T12:20:55Z</time>
      </trkpt>
      <trkpt lat="42.669486999999954" lon="-1.9514230000000035">
        <ele>474.477</ele>
        <time>2022-08-25T12:20:57Z</time>
      </trkpt>
      <trkpt lat="42.66947599999995" lon="-1.9514520000000035">
        <ele>474.487</ele>
        <time>2022-08-25T12:20:58Z</time>
      </trkpt>
      <trkpt lat="42.669460999999956" lon="-1.9514920000000036">
        <ele>474.467</ele>
        <time>2022-08-25T12:20:59Z</time>
      </trkpt>
      <trkpt lat="42.669452999999955" lon="-1.9515160000000036">
        <ele>474.643</ele>
        <time>2022-08-25T12:21:00Z</time>
      </trkpt>
      <trkpt lat="42.66943999999995" lon="-1.9515470000000035">
        <ele>474.665</ele>
        <time>2022-08-25T12:21:01Z</time>
      </trkpt>
      <trkpt lat="42.66941299999995" lon="-1.9516160000000036">
        <ele>475.022</ele>
        <time>2022-08-25T12:21:03Z</time>
      </trkpt>
      <trkpt lat="42.669385999999946" lon="-1.9516820000000035">
        <ele>475.275</ele>
        <time>2022-08-25T12:21:05Z</time>
      </trkpt>
      <trkpt lat="42.669315999999945" lon="-1.9518560000000034">
        <ele>475.411</ele>
        <time>2022-08-25T12:21:10Z</time>
      </trkpt>
      <trkpt lat="42.66930599999994" lon="-1.9518900000000035">
        <ele>475.662</ele>
        <time>2022-08-25T12:21:11Z</time>
      </trkpt>
      <trkpt lat="42.66929199999994" lon="-1.9519300000000035">
        <ele>475.834</ele>
        <time>2022-08-25T12:21:12Z</time>
      </trkpt>
      <trkpt lat="42.66928099999994" lon="-1.9519620000000035">
        <ele>475.855</ele>
        <time>2022-08-25T12:21:13Z</time>
      </trkpt>
      <trkpt lat="42.66925899999994" lon="-1.9520190000000035">
        <ele>475.810</ele>
        <time>2022-08-25T12:21:15Z</time>
      </trkpt>
      <trkpt lat="42.66922399999994" lon="-1.9521280000000034">
        <ele>476.209</ele>
        <time>2022-08-25T12:21:18Z</time>
      </trkpt>
      <trkpt lat="42.66918999999994" lon="-1.9522380000000035">
        <ele>476.434</ele>
        <time>2022-08-25T12:21:21Z</time>
      </trkpt>
      <trkpt lat="42.669166999999945" lon="-1.9523020000000035">
        <ele>476.674</ele>
        <time>2022-08-25T12:21:23Z</time>
      </trkpt>
      <trkpt lat="42.66914499999994" lon="-1.9523750000000035">
        <ele>476.894</ele>
        <time>2022-08-25T12:21:25Z</time>
      </trkpt>
      <trkpt lat="42.66912099999994" lon="-1.9524540000000035">
        <ele>477.080</ele>
        <time>2022-08-25T12:21:27Z</time>
      </trkpt>
      <trkpt lat="42.66910999999994" lon="-1.9524840000000034">
        <ele>477.282</ele>
        <time>2022-08-25T12:21:28Z</time>
      </trkpt>
      <trkpt lat="42.66909699999994" lon="-1.9525170000000034">
        <ele>477.469</ele>
        <time>2022-08-25T12:21:29Z</time>
      </trkpt>
      <trkpt lat="42.669086999999934" lon="-1.9525510000000035">
        <ele>477.462</ele>
        <time>2022-08-25T12:21:30Z</time>
      </trkpt>
      <trkpt lat="42.66907399999993" lon="-1.9525920000000034">
        <ele>477.618</ele>
        <time>2022-08-25T12:21:31Z</time>
      </trkpt>
      <trkpt lat="42.66906499999993" lon="-1.9526180000000035">
        <ele>477.849</ele>
        <time>2022-08-25T12:21:32Z</time>
      </trkpt>
      <trkpt lat="42.669015999999935" lon="-1.9527610000000035">
        <ele>478.448</ele>
        <time>2022-08-25T12:21:36Z</time>
      </trkpt>
      <trkpt lat="42.669004999999935" lon="-1.9527900000000036">
        <ele>478.661</ele>
        <time>2022-08-25T12:21:37Z</time>
      </trkpt>
      <trkpt lat="42.668990999999934" lon="-1.9528240000000037">
        <ele>478.817</ele>
        <time>2022-08-25T12:21:38Z</time>
      </trkpt>
      <trkpt lat="42.66897599999994" lon="-1.9528620000000037">
        <ele>478.809</ele>
        <time>2022-08-25T12:21:39Z</time>
      </trkpt>
      <trkpt lat="42.66896399999994" lon="-1.9528940000000037">
        <ele>479.035</ele>
        <time>2022-08-25T12:21:40Z</time>
      </trkpt>
      <trkpt lat="42.668950999999936" lon="-1.9529280000000038">
        <ele>479.225</ele>
        <time>2022-08-25T12:21:41Z</time>
      </trkpt>
      <trkpt lat="42.66893899999994" lon="-1.9529550000000038">
        <ele>479.425</ele>
        <time>2022-08-25T12:21:42Z</time>
      </trkpt>
      <trkpt lat="42.66892399999994" lon="-1.9529940000000037">
        <ele>479.621</ele>
        <time>2022-08-25T12:21:43Z</time>
      </trkpt>
      <trkpt lat="42.66891399999994" lon="-1.9530180000000037">
        <ele>479.653</ele>
        <time>2022-08-25T12:21:44Z</time>
      </trkpt>
      <trkpt lat="42.668897999999935" lon="-1.9530570000000036">
        <ele>479.870</ele>
        <time>2022-08-25T12:21:45Z</time>
      </trkpt>
      <trkpt lat="42.668888999999936" lon="-1.9530820000000035">
        <ele>479.893</ele>
        <time>2022-08-25T12:21:46Z</time>
      </trkpt>
      <trkpt lat="42.66887599999993" lon="-1.9531110000000036">
        <ele>480.019</ele>
        <time>2022-08-25T12:21:47Z</time>
      </trkpt>
      <trkpt lat="42.66886299999993" lon="-1.9531490000000036">
        <ele>480.050</ele>
        <time>2022-08-25T12:21:48Z</time>
      </trkpt>
      <trkpt lat="42.66885399999993" lon="-1.9531830000000037">
        <ele>480.045</ele>
        <time>2022-08-25T12:21:49Z</time>
      </trkpt>
      <trkpt lat="42.668846999999936" lon="-1.9532080000000036">
        <ele>480.247</ele>
        <time>2022-08-25T12:21:50Z</time>
      </trkpt>
      <trkpt lat="42.66883499999994" lon="-1.9532430000000036">
        <ele>480.211</ele>
        <time>2022-08-25T12:21:51Z</time>
      </trkpt>
      <trkpt lat="42.668821999999935" lon="-1.9532810000000036">
        <ele>480.209</ele>
        <time>2022-08-25T12:21:52Z</time>
      </trkpt>
      <trkpt lat="42.66881199999993" lon="-1.9533170000000035">
        <ele>480.435</ele>
        <time>2022-08-25T12:21:53Z</time>
      </trkpt>
      <trkpt lat="42.66879499999993" lon="-1.9533590000000036">
        <ele>480.475</ele>
        <time>2022-08-25T12:21:54Z</time>
      </trkpt>
      <trkpt lat="42.66878499999993" lon="-1.9533850000000037">
        <ele>480.465</ele>
        <time>2022-08-25T12:21:55Z</time>
      </trkpt>
      <trkpt lat="42.66877299999993" lon="-1.9534170000000037">
        <ele>480.641</ele>
        <time>2022-08-25T12:21:56Z</time>
      </trkpt>
      <trkpt lat="42.66875699999993" lon="-1.9534560000000036">
        <ele>480.673</ele>
        <time>2022-08-25T12:21:57Z</time>
      </trkpt>
      <trkpt lat="42.66874299999993" lon="-1.9534910000000036">
        <ele>480.670</ele>
        <time>2022-08-25T12:21:58Z</time>
      </trkpt>
      <trkpt lat="42.66873099999993" lon="-1.9535190000000036">
        <ele>480.613</ele>
        <time>2022-08-25T12:21:59Z</time>
      </trkpt>
      <trkpt lat="42.66871799999993" lon="-1.9535570000000035">
        <ele>480.629</ele>
        <time>2022-08-25T12:22:00Z</time>
      </trkpt>
      <trkpt lat="42.66870399999993" lon="-1.9535930000000035">
        <ele>480.610</ele>
        <time>2022-08-25T12:22:01Z</time>
      </trkpt>
      <trkpt lat="42.668690999999924" lon="-1.9536300000000035">
        <ele>480.849</ele>
        <time>2022-08-25T12:22:02Z</time>
      </trkpt>
      <trkpt lat="42.668650999999926" lon="-1.9537970000000036">
        <ele>481.002</ele>
        <time>2022-08-25T12:22:06Z</time>
      </trkpt>
      <trkpt lat="42.66862699999992" lon="-1.9538670000000036">
        <ele>481.222</ele>
        <time>2022-08-25T12:22:08Z</time>
      </trkpt>
      <trkpt lat="42.66861599999992" lon="-1.9539050000000036">
        <ele>481.209</ele>
        <time>2022-08-25T12:22:09Z</time>
      </trkpt>
      <trkpt lat="42.668603999999924" lon="-1.9539400000000036">
        <ele>481.225</ele>
        <time>2022-08-25T12:22:10Z</time>
      </trkpt>
      <trkpt lat="42.668589999999924" lon="-1.9539750000000036">
        <ele>481.475</ele>
        <time>2022-08-25T12:22:11Z</time>
      </trkpt>
      <trkpt lat="42.66854599999992" lon="-1.9541320000000035">
        <ele>481.625</ele>
        <time>2022-08-25T12:22:15Z</time>
      </trkpt>
      <trkpt lat="42.66853799999992" lon="-1.9541690000000036">
        <ele>481.681</ele>
        <time>2022-08-25T12:22:16Z</time>
      </trkpt>
      <trkpt lat="42.66852999999992" lon="-1.9541980000000037">
        <ele>481.633</ele>
        <time>2022-08-25T12:22:17Z</time>
      </trkpt>
      <trkpt lat="42.66851899999992" lon="-1.9542340000000036">
        <ele>481.620</ele>
        <time>2022-08-25T12:22:18Z</time>
      </trkpt>
      <trkpt lat="42.668488999999916" lon="-1.9543490000000037">
        <ele>481.853</ele>
        <time>2022-08-25T12:22:21Z</time>
      </trkpt>
      <trkpt lat="42.668443999999916" lon="-1.9544930000000036">
        <ele>482.089</ele>
        <time>2022-08-25T12:22:25Z</time>
      </trkpt>
      <trkpt lat="42.668412999999916" lon="-1.9546330000000036">
        <ele>482.260</ele>
        <time>2022-08-25T12:22:29Z</time>
      </trkpt>
      <trkpt lat="42.668412999999916" lon="-1.9546710000000036">
        <ele>482.467</ele>
        <time>2022-08-25T12:22:30Z</time>
      </trkpt>
      <trkpt lat="42.66841499999992" lon="-1.9547090000000036">
        <ele>482.481</ele>
        <time>2022-08-25T12:22:31Z</time>
      </trkpt>
      <trkpt lat="42.668423999999916" lon="-1.9547330000000036">
        <ele>482.419</ele>
        <time>2022-08-25T12:22:32Z</time>
      </trkpt>
      <trkpt lat="42.66843799999992" lon="-1.9547640000000035">
        <ele>482.409</ele>
        <time>2022-08-25T12:22:33Z</time>
      </trkpt>
      <trkpt lat="42.668455999999914" lon="-1.9547950000000034">
        <ele>482.437</ele>
        <time>2022-08-25T12:22:34Z</time>
      </trkpt>
      <trkpt lat="42.668474999999916" lon="-1.9548250000000034">
        <ele>482.477</ele>
        <time>2022-08-25T12:22:35Z</time>
      </trkpt>
      <trkpt lat="42.668494999999915" lon="-1.9548530000000033">
        <ele>482.487</ele>
        <time>2022-08-25T12:22:36Z</time>
      </trkpt>
      <trkpt lat="42.66851899999992" lon="-1.9548840000000032">
        <ele>482.443</ele>
        <time>2022-08-25T12:22:37Z</time>
      </trkpt>
      <trkpt lat="42.668567999999915" lon="-1.9549720000000033">
        <ele>482.675</ele>
        <time>2022-08-25T12:22:39Z</time>
      </trkpt>
      <trkpt lat="42.66861199999992" lon="-1.9551030000000034">
        <ele>482.432</ele>
        <time>2022-08-25T12:22:41Z</time>
      </trkpt>
      <trkpt lat="42.668612999999915" lon="-1.9552330000000033">
        <ele>482.465</ele>
        <time>2022-08-25T12:22:43Z</time>
      </trkpt>
      <trkpt lat="42.66859199999992" lon="-1.9553150000000032">
        <ele>482.481</ele>
        <time>2022-08-25T12:22:44Z</time>
      </trkpt>
      <trkpt lat="42.66856299999992" lon="-1.9553740000000033">
        <ele>482.232</ele>
        <time>2022-08-25T12:22:45Z</time>
      </trkpt>
      <trkpt lat="42.66853199999992" lon="-1.9554130000000032">
        <ele>482.037</ele>
        <time>2022-08-25T12:22:46Z</time>
      </trkpt>
      <trkpt lat="42.66849099999992" lon="-1.955452000000003">
        <ele>482.049</ele>
        <time>2022-08-25T12:22:47Z</time>
      </trkpt>
      <trkpt lat="42.66843899999992" lon="-1.955479000000003">
        <ele>481.813</ele>
        <time>2022-08-25T12:22:48Z</time>
      </trkpt>
      <trkpt lat="42.66840199999992" lon="-1.955484000000003">
        <ele>481.609</ele>
        <time>2022-08-25T12:22:49Z</time>
      </trkpt>
      <trkpt lat="42.66835199999992" lon="-1.955484000000003">
        <ele>481.624</ele>
        <time>2022-08-25T12:22:50Z</time>
      </trkpt>
      <trkpt lat="42.66831799999992" lon="-1.9554810000000031">
        <ele>481.664</ele>
        <time>2022-08-25T12:22:51Z</time>
      </trkpt>
      <trkpt lat="42.66827799999992" lon="-1.9554780000000032">
        <ele>481.684</ele>
        <time>2022-08-25T12:22:52Z</time>
      </trkpt>
      <trkpt lat="42.66822999999992" lon="-1.9554830000000032">
        <ele>481.660</ele>
        <time>2022-08-25T12:22:53Z</time>
      </trkpt>
      <trkpt lat="42.66816799999992" lon="-1.9555240000000031">
        <ele>481.672</ele>
        <time>2022-08-25T12:22:55Z</time>
      </trkpt>
      <trkpt lat="42.668121999999926" lon="-1.955622000000003">
        <ele>481.899</ele>
        <time>2022-08-25T12:22:57Z</time>
      </trkpt>
      <trkpt lat="42.668093999999925" lon="-1.955731000000003">
        <ele>481.852</ele>
        <time>2022-08-25T12:22:59Z</time>
      </trkpt>
      <trkpt lat="42.66808199999993" lon="-1.955775000000003">
        <ele>482.068</ele>
        <time>2022-08-25T12:23:00Z</time>
      </trkpt>
      <trkpt lat="42.667967999999924" lon="-1.956238000000003">
        <ele>482.649</ele>
        <time>2022-08-25T12:23:08Z</time>
      </trkpt>
      <trkpt lat="42.66793499999992" lon="-1.956354000000003">
        <ele>482.681</ele>
        <time>2022-08-25T12:23:10Z</time>
      </trkpt>
      <trkpt lat="42.667916999999925" lon="-1.956422000000003">
        <ele>482.661</ele>
        <time>2022-08-25T12:23:11Z</time>
      </trkpt>
      <trkpt lat="42.66786199999992" lon="-1.956646000000003">
        <ele>482.817</ele>
        <time>2022-08-25T12:23:15Z</time>
      </trkpt>
      <trkpt lat="42.66784499999992" lon="-1.956707000000003">
        <ele>482.809</ele>
        <time>2022-08-25T12:23:16Z</time>
      </trkpt>
      <trkpt lat="42.66780699999992" lon="-1.956837000000003">
        <ele>482.869</ele>
        <time>2022-08-25T12:23:18Z</time>
      </trkpt>
      <trkpt lat="42.667793999999915" lon="-1.956881000000003">
        <ele>482.849</ele>
        <time>2022-08-25T12:23:19Z</time>
      </trkpt>
      <trkpt lat="42.667731999999916" lon="-1.957161000000003">
        <ele>482.869</ele>
        <time>2022-08-25T12:23:24Z</time>
      </trkpt>
      <trkpt lat="42.66771899999991" lon="-1.957219000000003">
        <ele>482.835</ele>
        <time>2022-08-25T12:23:25Z</time>
      </trkpt>
      <trkpt lat="42.66770599999991" lon="-1.957280000000003">
        <ele>482.827</ele>
        <time>2022-08-25T12:23:26Z</time>
      </trkpt>
      <trkpt lat="42.66769099999991" lon="-1.9573490000000031">
        <ele>482.814</ele>
        <time>2022-08-25T12:23:27Z</time>
      </trkpt>
      <trkpt lat="42.667678999999914" lon="-1.957393000000003">
        <ele>482.877</ele>
        <time>2022-08-25T12:23:28Z</time>
      </trkpt>
      <trkpt lat="42.667664999999914" lon="-1.9574460000000031">
        <ele>482.863</ele>
        <time>2022-08-25T12:23:29Z</time>
      </trkpt>
      <trkpt lat="42.66764899999991" lon="-1.957503000000003">
        <ele>483.024</ele>
        <time>2022-08-25T12:23:30Z</time>
      </trkpt>
      <trkpt lat="42.667630999999915" lon="-1.957568000000003">
        <ele>483.028</ele>
        <time>2022-08-25T12:23:31Z</time>
      </trkpt>
      <trkpt lat="42.66758999999991" lon="-1.9577180000000032">
        <ele>483.089</ele>
        <time>2022-08-25T12:23:34Z</time>
      </trkpt>
      <trkpt lat="42.66756699999991" lon="-1.9578340000000032">
        <ele>483.017</ele>
        <time>2022-08-25T12:23:36Z</time>
      </trkpt>
      <trkpt lat="42.66755699999991" lon="-1.957889000000003">
        <ele>483.009</ele>
        <time>2022-08-25T12:23:37Z</time>
      </trkpt>
      <trkpt lat="42.66754299999991" lon="-1.9579480000000031">
        <ele>483.023</ele>
        <time>2022-08-25T12:23:38Z</time>
      </trkpt>
      <trkpt lat="42.66752799999991" lon="-1.958005000000003">
        <ele>482.813</ele>
        <time>2022-08-25T12:23:39Z</time>
      </trkpt>
      <trkpt lat="42.66751699999991" lon="-1.9580640000000031">
        <ele>482.833</ele>
        <time>2022-08-25T12:23:40Z</time>
      </trkpt>
      <trkpt lat="42.66750599999991" lon="-1.9581310000000032">
        <ele>482.879</ele>
        <time>2022-08-25T12:23:41Z</time>
      </trkpt>
      <trkpt lat="42.667498999999914" lon="-1.958175000000003">
        <ele>482.861</ele>
        <time>2022-08-25T12:23:42Z</time>
      </trkpt>
      <trkpt lat="42.66748599999991" lon="-1.9582390000000032">
        <ele>482.858</ele>
        <time>2022-08-25T12:23:43Z</time>
      </trkpt>
      <trkpt lat="42.66747399999991" lon="-1.9582890000000033">
        <ele>482.841</ele>
        <time>2022-08-25T12:23:44Z</time>
      </trkpt>
      <trkpt lat="42.667450999999915" lon="-1.9583860000000033">
        <ele>483.247</ele>
        <time>2022-08-25T12:23:46Z</time>
      </trkpt>
      <trkpt lat="42.667436999999914" lon="-1.9584380000000032">
        <ele>483.288</ele>
        <time>2022-08-25T12:23:47Z</time>
      </trkpt>
      <trkpt lat="42.667424999999916" lon="-1.9584880000000033">
        <ele>483.426</ele>
        <time>2022-08-25T12:23:48Z</time>
      </trkpt>
      <trkpt lat="42.66741299999992" lon="-1.9585380000000034">
        <ele>483.847</ele>
        <time>2022-08-25T12:23:49Z</time>
      </trkpt>
      <trkpt lat="42.667399999999915" lon="-1.9585980000000034">
        <ele>484.011</ele>
        <time>2022-08-25T12:23:50Z</time>
      </trkpt>
      <trkpt lat="42.667380999999914" lon="-1.9586880000000033">
        <ele>484.209</ele>
        <time>2022-08-25T12:23:52Z</time>
      </trkpt>
      <trkpt lat="42.667368999999916" lon="-1.9587340000000033">
        <ele>484.493</ele>
        <time>2022-08-25T12:23:53Z</time>
      </trkpt>
      <trkpt lat="42.66735699999992" lon="-1.9587760000000034">
        <ele>484.623</ele>
        <time>2022-08-25T12:23:54Z</time>
      </trkpt>
      <trkpt lat="42.66734499999992" lon="-1.9588190000000034">
        <ele>485.033</ele>
        <time>2022-08-25T12:23:55Z</time>
      </trkpt>
      <trkpt lat="42.66733599999992" lon="-1.9588600000000034">
        <ele>485.299</ele>
        <time>2022-08-25T12:23:56Z</time>
      </trkpt>
      <trkpt lat="42.66732499999992" lon="-1.9589020000000035">
        <ele>485.451</ele>
        <time>2022-08-25T12:23:57Z</time>
      </trkpt>
      <trkpt lat="42.66731599999992" lon="-1.9589430000000034">
        <ele>485.688</ele>
        <time>2022-08-25T12:23:58Z</time>
      </trkpt>
      <trkpt lat="42.66730399999992" lon="-1.9589830000000035">
        <ele>485.621</ele>
        <time>2022-08-25T12:23:59Z</time>
      </trkpt>
      <trkpt lat="42.66729399999992" lon="-1.9590250000000036">
        <ele>485.887</ele>
        <time>2022-08-25T12:24:00Z</time>
      </trkpt>
      <trkpt lat="42.66728299999992" lon="-1.9590630000000036">
        <ele>486.048</ele>
        <time>2022-08-25T12:24:01Z</time>
      </trkpt>
      <trkpt lat="42.66727499999992" lon="-1.9590990000000035">
        <ele>486.062</ele>
        <time>2022-08-25T12:24:02Z</time>
      </trkpt>
      <trkpt lat="42.667264999999915" lon="-1.9591370000000035">
        <ele>486.083</ele>
        <time>2022-08-25T12:24:03Z</time>
      </trkpt>
      <trkpt lat="42.66725599999992" lon="-1.9591750000000034">
        <ele>486.211</ele>
        <time>2022-08-25T12:24:04Z</time>
      </trkpt>
      <trkpt lat="42.66724899999992" lon="-1.9592120000000035">
        <ele>486.409</ele>
        <time>2022-08-25T12:24:05Z</time>
      </trkpt>
      <trkpt lat="42.66724199999992" lon="-1.9592490000000036">
        <ele>486.487</ele>
        <time>2022-08-25T12:24:06Z</time>
      </trkpt>
      <trkpt lat="42.667232999999925" lon="-1.9592850000000035">
        <ele>486.487</ele>
        <time>2022-08-25T12:24:07Z</time>
      </trkpt>
      <trkpt lat="42.667224999999924" lon="-1.9593240000000034">
        <ele>486.647</ele>
        <time>2022-08-25T12:24:08Z</time>
      </trkpt>
      <trkpt lat="42.667215999999925" lon="-1.9593700000000034">
        <ele>486.673</ele>
        <time>2022-08-25T12:24:09Z</time>
      </trkpt>
      <trkpt lat="42.667207999999924" lon="-1.9594010000000033">
        <ele>486.635</ele>
        <time>2022-08-25T12:24:10Z</time>
      </trkpt>
      <trkpt lat="42.66719999999992" lon="-1.9594380000000033">
        <ele>486.842</ele>
        <time>2022-08-25T12:24:11Z</time>
      </trkpt>
      <trkpt lat="42.667190999999924" lon="-1.9594820000000033">
        <ele>486.855</ele>
        <time>2022-08-25T12:24:12Z</time>
      </trkpt>
      <trkpt lat="42.667184999999925" lon="-1.9595090000000033">
        <ele>486.841</ele>
        <time>2022-08-25T12:24:13Z</time>
      </trkpt>
      <trkpt lat="42.667173999999925" lon="-1.9595430000000034">
        <ele>486.822</ele>
        <time>2022-08-25T12:24:14Z</time>
      </trkpt>
      <trkpt lat="42.667164999999926" lon="-1.9595780000000034">
        <ele>487.026</ele>
        <time>2022-08-25T12:24:15Z</time>
      </trkpt>
      <trkpt lat="42.667159999999924" lon="-1.9596120000000035">
        <ele>487.047</ele>
        <time>2022-08-25T12:24:16Z</time>
      </trkpt>
      <trkpt lat="42.667153999999925" lon="-1.9596460000000036">
        <ele>487.011</ele>
        <time>2022-08-25T12:24:17Z</time>
      </trkpt>
      <trkpt lat="42.66714499999993" lon="-1.9596860000000036">
        <ele>487.209</ele>
        <time>2022-08-25T12:24:18Z</time>
      </trkpt>
      <trkpt lat="42.667136999999926" lon="-1.9597140000000035">
        <ele>487.243</ele>
        <time>2022-08-25T12:24:19Z</time>
      </trkpt>
      <trkpt lat="42.66712999999993" lon="-1.9597490000000035">
        <ele>487.453</ele>
        <time>2022-08-25T12:24:20Z</time>
      </trkpt>
      <trkpt lat="42.66711899999993" lon="-1.9597860000000036">
        <ele>487.453</ele>
        <time>2022-08-25T12:24:21Z</time>
      </trkpt>
      <trkpt lat="42.66710999999993" lon="-1.9598180000000036">
        <ele>487.639</ele>
        <time>2022-08-25T12:24:22Z</time>
      </trkpt>
      <trkpt lat="42.66704199999993" lon="-1.9601050000000035">
        <ele>488.281</ele>
        <time>2022-08-25T12:24:30Z</time>
      </trkpt>
      <trkpt lat="42.66703099999993" lon="-1.9601450000000036">
        <ele>488.258</ele>
        <time>2022-08-25T12:24:31Z</time>
      </trkpt>
      <trkpt lat="42.66698899999993" lon="-1.9603160000000035">
        <ele>488.671</ele>
        <time>2022-08-25T12:24:35Z</time>
      </trkpt>
      <trkpt lat="42.66693399999993" lon="-1.9605620000000035">
        <ele>489.097</ele>
        <time>2022-08-25T12:24:41Z</time>
      </trkpt>
      <trkpt lat="42.66689399999993" lon="-1.9607410000000034">
        <ele>489.228</ele>
        <time>2022-08-25T12:24:45Z</time>
      </trkpt>
      <trkpt lat="42.66683799999993" lon="-1.9609720000000035">
        <ele>490.063</ele>
        <time>2022-08-25T12:24:50Z</time>
      </trkpt>
      <trkpt lat="42.66682399999993" lon="-1.9610330000000036">
        <ele>490.444</ele>
        <time>2022-08-25T12:24:51Z</time>
      </trkpt>
      <trkpt lat="42.66674199999993" lon="-1.9614460000000036">
        <ele>490.818</ele>
        <time>2022-08-25T12:24:59Z</time>
      </trkpt>
      <trkpt lat="42.66663399999993" lon="-1.9621090000000037">
        <ele>491.209</ele>
        <time>2022-08-25T12:25:11Z</time>
      </trkpt>
      <trkpt lat="42.66660799999993" lon="-1.9622760000000037">
        <ele>491.457</ele>
        <time>2022-08-25T12:25:14Z</time>
      </trkpt>
      <trkpt lat="42.666572999999936" lon="-1.9625490000000037">
        <ele>491.887</ele>
        <time>2022-08-25T12:25:19Z</time>
      </trkpt>
      <trkpt lat="42.66656399999994" lon="-1.9626010000000036">
        <ele>491.837</ele>
        <time>2022-08-25T12:25:20Z</time>
      </trkpt>
      <trkpt lat="42.66651499999994" lon="-1.9630740000000035">
        <ele>492.053</ele>
        <time>2022-08-25T12:25:28Z</time>
      </trkpt>
      <trkpt lat="42.66644799999994" lon="-1.9637730000000035">
        <ele>491.685</ele>
        <time>2022-08-25T12:25:39Z</time>
      </trkpt>
      <trkpt lat="42.66641999999994" lon="-1.9643980000000036">
        <ele>491.482</ele>
        <time>2022-08-25T12:25:48Z</time>
      </trkpt>
      <trkpt lat="42.66641899999994" lon="-1.9644810000000037">
        <ele>491.475</ele>
        <time>2022-08-25T12:25:49Z</time>
      </trkpt>
      <trkpt lat="42.66641799999994" lon="-1.9645350000000037">
        <ele>491.471</ele>
        <time>2022-08-25T12:25:50Z</time>
      </trkpt>
      <trkpt lat="42.66641899999994" lon="-1.9646180000000038">
        <ele>491.272</ele>
        <time>2022-08-25T12:25:51Z</time>
      </trkpt>
      <trkpt lat="42.66641899999994" lon="-1.9646750000000037">
        <ele>491.254</ele>
        <time>2022-08-25T12:25:52Z</time>
      </trkpt>
      <trkpt lat="42.66641699999994" lon="-1.9647430000000037">
        <ele>491.056</ele>
        <time>2022-08-25T12:25:53Z</time>
      </trkpt>
      <trkpt lat="42.66641599999994" lon="-1.9648110000000036">
        <ele>490.811</ele>
        <time>2022-08-25T12:25:54Z</time>
      </trkpt>
      <trkpt lat="42.666414999999944" lon="-1.9648910000000037">
        <ele>490.809</ele>
        <time>2022-08-25T12:25:55Z</time>
      </trkpt>
      <trkpt lat="42.66641299999994" lon="-1.9649430000000037">
        <ele>490.666</ele>
        <time>2022-08-25T12:25:56Z</time>
      </trkpt>
      <trkpt lat="42.666411999999944" lon="-1.9650070000000037">
        <ele>490.616</ele>
        <time>2022-08-25T12:25:57Z</time>
      </trkpt>
      <trkpt lat="42.66641099999995" lon="-1.9650700000000036">
        <ele>490.466</ele>
        <time>2022-08-25T12:25:58Z</time>
      </trkpt>
      <trkpt lat="42.666411999999944" lon="-1.9652670000000036">
        <ele>490.252</ele>
        <time>2022-08-25T12:26:01Z</time>
      </trkpt>
      <trkpt lat="42.66641299999994" lon="-1.9654660000000037">
        <ele>490.224</ele>
        <time>2022-08-25T12:26:04Z</time>
      </trkpt>
      <trkpt lat="42.66642099999994" lon="-1.9659730000000037">
        <ele>489.481</ele>
        <time>2022-08-25T12:26:11Z</time>
      </trkpt>
      <trkpt lat="42.66642199999994" lon="-1.9661280000000037">
        <ele>489.274</ele>
        <time>2022-08-25T12:26:13Z</time>
      </trkpt>
      <trkpt lat="42.66642999999994" lon="-1.9666950000000036">
        <ele>488.070</ele>
        <time>2022-08-25T12:26:20Z</time>
      </trkpt>
      <trkpt lat="42.66643099999994" lon="-1.9667770000000036">
        <ele>487.621</ele>
        <time>2022-08-25T12:26:21Z</time>
      </trkpt>
      <trkpt lat="42.666431999999936" lon="-1.9668590000000035">
        <ele>487.472</ele>
        <time>2022-08-25T12:26:22Z</time>
      </trkpt>
      <trkpt lat="42.66643399999994" lon="-1.9669400000000035">
        <ele>487.013</ele>
        <time>2022-08-25T12:26:23Z</time>
      </trkpt>
      <trkpt lat="42.66643899999994" lon="-1.9671090000000035">
        <ele>486.214</ele>
        <time>2022-08-25T12:26:25Z</time>
      </trkpt>
      <trkpt lat="42.66644099999994" lon="-1.9671910000000035">
        <ele>485.809</ele>
        <time>2022-08-25T12:26:26Z</time>
      </trkpt>
      <trkpt lat="42.66644199999994" lon="-1.9672730000000034">
        <ele>485.638</ele>
        <time>2022-08-25T12:26:27Z</time>
      </trkpt>
      <trkpt lat="42.66645199999994" lon="-1.9675260000000034">
        <ele>485.488</ele>
        <time>2022-08-25T12:26:30Z</time>
      </trkpt>
      <trkpt lat="42.666484999999945" lon="-1.9681380000000035">
        <ele>484.448</ele>
        <time>2022-08-25T12:26:37Z</time>
      </trkpt>
      <trkpt lat="42.66650099999995" lon="-1.9683850000000036">
        <ele>483.834</ele>
        <time>2022-08-25T12:26:40Z</time>
      </trkpt>
      <trkpt lat="42.66651499999995" lon="-1.9685820000000036">
        <ele>483.496</ele>
        <time>2022-08-25T12:26:42Z</time>
      </trkpt>
      <trkpt lat="42.666543999999945" lon="-1.9689330000000036">
        <ele>482.483</ele>
        <time>2022-08-25T12:26:46Z</time>
      </trkpt>
      <trkpt lat="42.66654899999995" lon="-1.9690020000000037">
        <ele>482.276</ele>
        <time>2022-08-25T12:26:47Z</time>
      </trkpt>
      <trkpt lat="42.66656199999995" lon="-1.9691730000000036">
        <ele>482.222</ele>
        <time>2022-08-25T12:26:49Z</time>
      </trkpt>
      <trkpt lat="42.66662499999995" lon="-1.9696970000000036">
        <ele>481.053</ele>
        <time>2022-08-25T12:26:55Z</time>
      </trkpt>
      <trkpt lat="42.66664899999995" lon="-1.9698680000000035">
        <ele>480.623</ele>
        <time>2022-08-25T12:26:57Z</time>
      </trkpt>
      <trkpt lat="42.66667099999995" lon="-1.9700260000000036">
        <ele>480.083</ele>
        <time>2022-08-25T12:26:59Z</time>
      </trkpt>
      <trkpt lat="42.66671699999995" lon="-1.9703830000000035">
        <ele>478.811</ele>
        <time>2022-08-25T12:27:03Z</time>
      </trkpt>
      <trkpt lat="42.66675599999995" lon="-1.9706690000000036">
        <ele>477.809</ele>
        <time>2022-08-25T12:27:06Z</time>
      </trkpt>
      <trkpt lat="42.66676399999995" lon="-1.9707380000000037">
        <ele>477.683</ele>
        <time>2022-08-25T12:27:07Z</time>
      </trkpt>
      <trkpt lat="42.666773999999954" lon="-1.9708220000000036">
        <ele>477.473</ele>
        <time>2022-08-25T12:27:08Z</time>
      </trkpt>
      <trkpt lat="42.66678699999996" lon="-1.9709260000000037">
        <ele>477.463</ele>
        <time>2022-08-25T12:27:09Z</time>
      </trkpt>
      <trkpt lat="42.66679799999996" lon="-1.9710110000000036">
        <ele>477.259</ele>
        <time>2022-08-25T12:27:10Z</time>
      </trkpt>
      <trkpt lat="42.66681999999996" lon="-1.9712500000000037">
        <ele>476.621</ele>
        <time>2022-08-25T12:27:13Z</time>
      </trkpt>
      <trkpt lat="42.666826999999955" lon="-1.9713340000000037">
        <ele>476.498</ele>
        <time>2022-08-25T12:27:14Z</time>
      </trkpt>
      <trkpt lat="42.66683199999996" lon="-1.9714200000000037">
        <ele>476.231</ele>
        <time>2022-08-25T12:27:15Z</time>
      </trkpt>
      <trkpt lat="42.66684199999996" lon="-1.9716910000000036">
        <ele>475.657</ele>
        <time>2022-08-25T12:27:18Z</time>
      </trkpt>
      <trkpt lat="42.66684299999996" lon="-1.9720120000000037">
        <ele>474.878</ele>
        <time>2022-08-25T12:27:22Z</time>
      </trkpt>
      <trkpt lat="42.66683599999996" lon="-1.9721160000000038">
        <ele>474.459</ele>
        <time>2022-08-25T12:27:23Z</time>
      </trkpt>
      <trkpt lat="42.66680499999996" lon="-1.9723410000000037">
        <ele>473.603</ele>
        <time>2022-08-25T12:27:26Z</time>
      </trkpt>
      <trkpt lat="42.666786999999964" lon="-1.9724340000000036">
        <ele>473.623</ele>
        <time>2022-08-25T12:27:27Z</time>
      </trkpt>
      <trkpt lat="42.666769999999964" lon="-1.9725070000000036">
        <ele>473.409</ele>
        <time>2022-08-25T12:27:28Z</time>
      </trkpt>
      <trkpt lat="42.66675199999997" lon="-1.9725780000000035">
        <ele>473.276</ele>
        <time>2022-08-25T12:27:29Z</time>
      </trkpt>
      <trkpt lat="42.666718999999965" lon="-1.9727090000000036">
        <ele>472.666</ele>
        <time>2022-08-25T12:27:31Z</time>
      </trkpt>
      <trkpt lat="42.666665999999964" lon="-1.9729350000000037">
        <ele>472.496</ele>
        <time>2022-08-25T12:27:34Z</time>
      </trkpt>
      <trkpt lat="42.66654899999996" lon="-1.9733420000000037">
        <ele>471.652</ele>
        <time>2022-08-25T12:27:39Z</time>
      </trkpt>
      <trkpt lat="42.66651899999996" lon="-1.9734270000000036">
        <ele>471.284</ele>
        <time>2022-08-25T12:27:40Z</time>
      </trkpt>
      <trkpt lat="42.66634699999996" lon="-1.9738570000000035">
        <ele>470.011</ele>
        <time>2022-08-25T12:27:45Z</time>
      </trkpt>
      <trkpt lat="42.66620799999996" lon="-1.9741560000000036">
        <ele>468.864</ele>
        <time>2022-08-25T12:27:48Z</time>
      </trkpt>
      <trkpt lat="42.666054999999965" lon="-1.9744370000000036">
        <ele>467.840</ele>
        <time>2022-08-25T12:27:51Z</time>
      </trkpt>
      <trkpt lat="42.66582199999996" lon="-1.9747850000000036">
        <ele>466.411</ele>
        <time>2022-08-25T12:27:55Z</time>
      </trkpt>
      <trkpt lat="42.66573499999996" lon="-1.9748860000000035">
        <ele>466.263</ele>
        <time>2022-08-25T12:27:56Z</time>
      </trkpt>
      <trkpt lat="42.665514999999964" lon="-1.9750850000000035">
        <ele>465.244</ele>
        <time>2022-08-25T12:27:59Z</time>
      </trkpt>
      <trkpt lat="42.66541399999996" lon="-1.9751550000000035">
        <ele>464.618</ele>
        <time>2022-08-25T12:28:00Z</time>
      </trkpt>
      <trkpt lat="42.665238999999964" lon="-1.9752490000000036">
        <ele>463.809</ele>
        <time>2022-08-25T12:28:02Z</time>
      </trkpt>
      <trkpt lat="42.66496499999997" lon="-1.9753540000000036">
        <ele>462.287</ele>
        <time>2022-08-25T12:28:05Z</time>
      </trkpt>
      <trkpt lat="42.66488599999997" lon="-1.9754000000000036">
        <ele>462.027</ele>
        <time>2022-08-25T12:28:06Z</time>
      </trkpt>
      <trkpt lat="42.664818999999966" lon="-1.9754610000000037">
        <ele>461.457</ele>
        <time>2022-08-25T12:28:07Z</time>
      </trkpt>
      <trkpt lat="42.66478199999997" lon="-1.9755160000000036">
        <ele>461.283</ele>
        <time>2022-08-25T12:28:08Z</time>
      </trkpt>
      <trkpt lat="42.664754999999964" lon="-1.9755880000000037">
        <ele>460.675</ele>
        <time>2022-08-25T12:28:09Z</time>
      </trkpt>
      <trkpt lat="42.664748999999965" lon="-1.9756620000000036">
        <ele>460.462</ele>
        <time>2022-08-25T12:28:10Z</time>
      </trkpt>
      <trkpt lat="42.66476399999996" lon="-1.9757420000000037">
        <ele>459.675</ele>
        <time>2022-08-25T12:28:11Z</time>
      </trkpt>
      <trkpt lat="42.66478499999996" lon="-1.9757780000000036">
        <ele>458.881</ele>
        <time>2022-08-25T12:28:12Z</time>
      </trkpt>
      <trkpt lat="42.66482199999996" lon="-1.9758060000000035">
        <ele>458.432</ele>
        <time>2022-08-25T12:28:13Z</time>
      </trkpt>
      <trkpt lat="42.66486899999996" lon="-1.9758170000000035">
        <ele>457.672</ele>
        <time>2022-08-25T12:28:14Z</time>
      </trkpt>
      <trkpt lat="42.66491499999996" lon="-1.9758320000000036">
        <ele>457.213</ele>
        <time>2022-08-25T12:28:15Z</time>
      </trkpt>
      <trkpt lat="42.66495699999996" lon="-1.9758610000000036">
        <ele>456.814</ele>
        <time>2022-08-25T12:28:16Z</time>
      </trkpt>
      <trkpt lat="42.66500099999996" lon="-1.9759090000000037">
        <ele>456.609</ele>
        <time>2022-08-25T12:28:17Z</time>
      </trkpt>
      <trkpt lat="42.66502399999996" lon="-1.9759500000000036">
        <ele>456.438</ele>
        <time>2022-08-25T12:28:18Z</time>
      </trkpt>
      <trkpt lat="42.66504899999996" lon="-1.9760220000000037">
        <ele>456.458</ele>
        <time>2022-08-25T12:28:19Z</time>
      </trkpt>
      <trkpt lat="42.66505999999996" lon="-1.9761630000000037">
        <ele>456.218</ele>
        <time>2022-08-25T12:28:21Z</time>
      </trkpt>
      <trkpt lat="42.66505999999996" lon="-1.9762370000000036">
        <ele>456.274</ele>
        <time>2022-08-25T12:28:22Z</time>
      </trkpt>
      <trkpt lat="42.66506299999996" lon="-1.9762990000000036">
        <ele>456.036</ele>
        <time>2022-08-25T12:28:23Z</time>
      </trkpt>
      <trkpt lat="42.66507699999996" lon="-1.9763970000000035">
        <ele>456.013</ele>
        <time>2022-08-25T12:28:24Z</time>
      </trkpt>
      <trkpt lat="42.66510299999996" lon="-1.9764790000000034">
        <ele>455.866</ele>
        <time>2022-08-25T12:28:25Z</time>
      </trkpt>
      <trkpt lat="42.66515599999996" lon="-1.9766180000000033">
        <ele>455.662</ele>
        <time>2022-08-25T12:28:27Z</time>
      </trkpt>
      <trkpt lat="42.66518199999996" lon="-1.9767230000000033">
        <ele>455.463</ele>
        <time>2022-08-25T12:28:28Z</time>
      </trkpt>
      <trkpt lat="42.66520799999996" lon="-1.9768120000000033">
        <ele>455.014</ele>
        <time>2022-08-25T12:28:29Z</time>
      </trkpt>
      <trkpt lat="42.665270999999954" lon="-1.9769710000000034">
        <ele>454.654</ele>
        <time>2022-08-25T12:28:31Z</time>
      </trkpt>
      <trkpt lat="42.665292999999956" lon="-1.9770340000000033">
        <ele>454.409</ele>
        <time>2022-08-25T12:28:32Z</time>
      </trkpt>
      <trkpt lat="42.66532499999995" lon="-1.9771200000000033">
        <ele>454.209</ele>
        <time>2022-08-25T12:28:33Z</time>
      </trkpt>
      <trkpt lat="42.66535099999995" lon="-1.9771870000000034">
        <ele>454.262</ele>
        <time>2022-08-25T12:28:34Z</time>
      </trkpt>
      <trkpt lat="42.665374999999955" lon="-1.9772470000000033">
        <ele>454.282</ele>
        <time>2022-08-25T12:28:35Z</time>
      </trkpt>
      <trkpt lat="42.665391999999954" lon="-1.9772940000000032">
        <ele>454.242</ele>
        <time>2022-08-25T12:28:36Z</time>
      </trkpt>
      <trkpt lat="42.665411999999954" lon="-1.9773490000000031">
        <ele>454.478</ele>
        <time>2022-08-25T12:28:37Z</time>
      </trkpt>
      <trkpt lat="42.66543599999996" lon="-1.9774080000000032">
        <ele>454.430</ele>
        <time>2022-08-25T12:28:38Z</time>
      </trkpt>
      <trkpt lat="42.66545299999996" lon="-1.9774540000000032">
        <ele>454.677</ele>
        <time>2022-08-25T12:28:39Z</time>
      </trkpt>
      <trkpt lat="42.665470999999954" lon="-1.977493000000003">
        <ele>454.830</ele>
        <time>2022-08-25T12:28:40Z</time>
      </trkpt>
      <trkpt lat="42.665481999999955" lon="-1.977525000000003">
        <ele>455.266</ele>
        <time>2022-08-25T12:28:41Z</time>
      </trkpt>
      <trkpt lat="42.66549799999996" lon="-1.977572000000003">
        <ele>455.437</ele>
        <time>2022-08-25T12:28:42Z</time>
      </trkpt>
      <trkpt lat="42.665512999999955" lon="-1.977606000000003">
        <ele>455.622</ele>
        <time>2022-08-25T12:28:43Z</time>
      </trkpt>
      <trkpt lat="42.66552599999996" lon="-1.9776400000000032">
        <ele>455.662</ele>
        <time>2022-08-25T12:28:44Z</time>
      </trkpt>
      <trkpt lat="42.66553699999996" lon="-1.9776660000000033">
        <ele>455.808</ele>
        <time>2022-08-25T12:28:45Z</time>
      </trkpt>
      <trkpt lat="42.665548999999956" lon="-1.9776990000000032">
        <ele>456.009</ele>
        <time>2022-08-25T12:28:46Z</time>
      </trkpt>
      <trkpt lat="42.66556499999996" lon="-1.9777370000000032">
        <ele>456.033</ele>
        <time>2022-08-25T12:28:47Z</time>
      </trkpt>
      <trkpt lat="42.66557799999996" lon="-1.977768000000003">
        <ele>456.423</ele>
        <time>2022-08-25T12:28:48Z</time>
      </trkpt>
      <trkpt lat="42.665590999999964" lon="-1.9777970000000031">
        <ele>456.453</ele>
        <time>2022-08-25T12:28:49Z</time>
      </trkpt>
      <trkpt lat="42.66560299999996" lon="-1.9778180000000032">
        <ele>456.629</ele>
        <time>2022-08-25T12:28:50Z</time>
      </trkpt>
      <trkpt lat="42.66561999999996" lon="-1.9778470000000032">
        <ele>456.681</ele>
        <time>2022-08-25T12:28:51Z</time>
      </trkpt>
      <trkpt lat="42.665632999999964" lon="-1.9778700000000033">
        <ele>456.858</ele>
        <time>2022-08-25T12:28:52Z</time>
      </trkpt>
      <trkpt lat="42.66564599999997" lon="-1.9778940000000034">
        <ele>456.851</ele>
        <time>2022-08-25T12:28:53Z</time>
      </trkpt>
      <trkpt lat="42.66565599999997" lon="-1.9779110000000033">
        <ele>457.067</ele>
        <time>2022-08-25T12:28:54Z</time>
      </trkpt>
      <trkpt lat="42.66566899999997" lon="-1.9779340000000034">
        <ele>457.278</ele>
        <time>2022-08-25T12:28:55Z</time>
      </trkpt>
      <trkpt lat="42.66568099999997" lon="-1.9779540000000033">
        <ele>457.284</ele>
        <time>2022-08-25T12:28:56Z</time>
      </trkpt>
      <trkpt lat="42.66571299999997" lon="-1.9779840000000033">
        <ele>457.407</ele>
        <time>2022-08-25T12:28:58Z</time>
      </trkpt>
      <trkpt lat="42.66572699999997" lon="-1.9779980000000033">
        <ele>457.417</ele>
        <time>2022-08-25T12:28:59Z</time>
      </trkpt>
      <trkpt lat="42.66574099999997" lon="-1.9780120000000032">
        <ele>457.409</ele>
        <time>2022-08-25T12:29:00Z</time>
      </trkpt>
      <trkpt lat="42.66575199999997" lon="-1.9780250000000033">
        <ele>457.649</ele>
        <time>2022-08-25T12:29:01Z</time>
      </trkpt>
      <trkpt lat="42.66575999999997" lon="-1.9780370000000032">
        <ele>457.629</ele>
        <time>2022-08-25T12:29:02Z</time>
      </trkpt>
      <trkpt lat="42.66576199999997" lon="-1.9780400000000031">
        <ele>457.639</ele>
        <time>2022-08-25T12:29:03Z</time>
      </trkpt>
      <trkpt lat="42.665783999999974" lon="-1.9781150000000032">
        <ele>457.445</ele>
        <time>2022-08-25T12:29:13Z</time>
      </trkpt>
      <trkpt lat="42.66578699999997" lon="-1.9782020000000031">
        <ele>457.467</ele>
        <time>2022-08-25T12:29:15Z</time>
      </trkpt>
      <trkpt lat="42.66578699999997" lon="-1.978251000000003">
        <ele>457.424</ele>
        <time>2022-08-25T12:29:16Z</time>
      </trkpt>
      <trkpt lat="42.665785999999976" lon="-1.9783040000000032">
        <ele>457.467</ele>
        <time>2022-08-25T12:29:17Z</time>
      </trkpt>
      <trkpt lat="42.66577999999998" lon="-1.978348000000003">
        <ele>457.443</ele>
        <time>2022-08-25T12:29:18Z</time>
      </trkpt>
      <trkpt lat="42.66575099999998" lon="-1.9785390000000032">
        <ele>457.484</ele>
        <time>2022-08-25T12:29:21Z</time>
      </trkpt>
      <trkpt lat="42.66568099999998" lon="-1.979020000000003">
        <ele>457.293</ele>
        <time>2022-08-25T12:29:29Z</time>
      </trkpt>
      <trkpt lat="42.66567199999998" lon="-1.9790840000000032">
        <ele>457.265</ele>
        <time>2022-08-25T12:29:30Z</time>
      </trkpt>
      <trkpt lat="42.66555599999998" lon="-1.9798160000000031">
        <ele>456.621</ele>
        <time>2022-08-25T12:29:41Z</time>
      </trkpt>
      <trkpt lat="42.665461999999984" lon="-1.9803720000000031">
        <ele>456.009</ele>
        <time>2022-08-25T12:29:48Z</time>
      </trkpt>
      <trkpt lat="42.665446999999986" lon="-1.980473000000003">
        <ele>455.820</ele>
        <time>2022-08-25T12:29:49Z</time>
      </trkpt>
      <trkpt lat="42.66536199999999" lon="-1.980995000000003">
        <ele>454.660</ele>
        <time>2022-08-25T12:29:55Z</time>
      </trkpt>
      <trkpt lat="42.66533099999999" lon="-1.981186000000003">
        <ele>454.460</ele>
        <time>2022-08-25T12:29:57Z</time>
      </trkpt>
      <trkpt lat="42.665263999999986" lon="-1.981606000000003">
        <ele>453.646</ele>
        <time>2022-08-25T12:30:01Z</time>
      </trkpt>
      <trkpt lat="42.665230999999984" lon="-1.9818100000000032">
        <ele>453.468</ele>
        <time>2022-08-25T12:30:03Z</time>
      </trkpt>
      <trkpt lat="42.665216999999984" lon="-1.9818900000000033">
        <ele>453.225</ele>
        <time>2022-08-25T12:30:04Z</time>
      </trkpt>
      <trkpt lat="42.66520099999998" lon="-1.9819860000000034">
        <ele>452.868</ele>
        <time>2022-08-25T12:30:05Z</time>
      </trkpt>
      <trkpt lat="42.665182999999985" lon="-1.9821000000000033">
        <ele>452.654</ele>
        <time>2022-08-25T12:30:06Z</time>
      </trkpt>
      <trkpt lat="42.66516999999998" lon="-1.9821940000000033">
        <ele>452.215</ele>
        <time>2022-08-25T12:30:07Z</time>
      </trkpt>
      <trkpt lat="42.66515699999998" lon="-1.9822880000000034">
        <ele>452.073</ele>
        <time>2022-08-25T12:30:08Z</time>
      </trkpt>
      <trkpt lat="42.665146999999976" lon="-1.9823620000000033">
        <ele>451.885</ele>
        <time>2022-08-25T12:30:09Z</time>
      </trkpt>
      <trkpt lat="42.66512899999998" lon="-1.9824730000000033">
        <ele>451.413</ele>
        <time>2022-08-25T12:30:10Z</time>
      </trkpt>
      <trkpt lat="42.66507299999998" lon="-1.9828230000000033">
        <ele>450.409</ele>
        <time>2022-08-25T12:30:14Z</time>
      </trkpt>
      <trkpt lat="42.665056999999976" lon="-1.9829320000000032">
        <ele>450.248</ele>
        <time>2022-08-25T12:30:15Z</time>
      </trkpt>
      <trkpt lat="42.66496299999998" lon="-1.9835660000000033">
        <ele>449.458</ele>
        <time>2022-08-25T12:30:22Z</time>
      </trkpt>
      <trkpt lat="42.66484799999998" lon="-1.9842780000000033">
        <ele>448.088</ele>
        <time>2022-08-25T12:30:29Z</time>
      </trkpt>
      <trkpt lat="42.664803999999975" lon="-1.9845660000000034">
        <ele>446.834</ele>
        <time>2022-08-25T12:30:32Z</time>
      </trkpt>
      <trkpt lat="42.664786999999976" lon="-1.9846720000000033">
        <ele>446.696</ele>
        <time>2022-08-25T12:30:33Z</time>
      </trkpt>
      <trkpt lat="42.66473599999998" lon="-1.9849950000000034">
        <ele>445.833</ele>
        <time>2022-08-25T12:30:36Z</time>
      </trkpt>
      <trkpt lat="42.664699999999975" lon="-1.9852120000000033">
        <ele>444.656</ele>
        <time>2022-08-25T12:30:38Z</time>
      </trkpt>
      <trkpt lat="42.664648999999976" lon="-1.9855420000000032">
        <ele>443.262</ele>
        <time>2022-08-25T12:30:41Z</time>
      </trkpt>
      <trkpt lat="42.664612999999974" lon="-1.9857760000000033">
        <ele>442.053</ele>
        <time>2022-08-25T12:30:43Z</time>
      </trkpt>
      <trkpt lat="42.66459699999997" lon="-1.9858790000000033">
        <ele>441.237</ele>
        <time>2022-08-25T12:30:44Z</time>
      </trkpt>
      <trkpt lat="42.664581999999974" lon="-1.9859790000000033">
        <ele>440.849</ele>
        <time>2022-08-25T12:30:45Z</time>
      </trkpt>
      <trkpt lat="42.66457199999997" lon="-1.9860570000000033">
        <ele>440.413</ele>
        <time>2022-08-25T12:30:46Z</time>
      </trkpt>
      <trkpt lat="42.664556999999974" lon="-1.9861500000000032">
        <ele>440.209</ele>
        <time>2022-08-25T12:30:47Z</time>
      </trkpt>
      <trkpt lat="42.664539999999974" lon="-1.9862600000000032">
        <ele>439.854</ele>
        <time>2022-08-25T12:30:48Z</time>
      </trkpt>
      <trkpt lat="42.664527999999976" lon="-1.9863500000000032">
        <ele>439.634</ele>
        <time>2022-08-25T12:30:49Z</time>
      </trkpt>
      <trkpt lat="42.66451499999997" lon="-1.9864360000000032">
        <ele>439.234</ele>
        <time>2022-08-25T12:30:50Z</time>
      </trkpt>
      <trkpt lat="42.66450499999997" lon="-1.9865040000000032">
        <ele>439.070</ele>
        <time>2022-08-25T12:30:51Z</time>
      </trkpt>
      <trkpt lat="42.66449099999997" lon="-1.986605000000003">
        <ele>439.072</ele>
        <time>2022-08-25T12:30:52Z</time>
      </trkpt>
      <trkpt lat="42.66447699999997" lon="-1.986691000000003">
        <ele>438.819</ele>
        <time>2022-08-25T12:30:53Z</time>
      </trkpt>
      <trkpt lat="42.66445999999997" lon="-1.986775000000003">
        <ele>438.622</ele>
        <time>2022-08-25T12:30:54Z</time>
      </trkpt>
      <trkpt lat="42.66444999999997" lon="-1.986841000000003">
        <ele>438.298</ele>
        <time>2022-08-25T12:30:55Z</time>
      </trkpt>
      <trkpt lat="42.664436999999964" lon="-1.986921000000003">
        <ele>438.089</ele>
        <time>2022-08-25T12:30:56Z</time>
      </trkpt>
      <trkpt lat="42.66434499999996" lon="-1.987502000000003">
        <ele>437.414</ele>
        <time>2022-08-25T12:31:03Z</time>
      </trkpt>
      <trkpt lat="42.66433199999996" lon="-1.987582000000003">
        <ele>437.454</ele>
        <time>2022-08-25T12:31:04Z</time>
      </trkpt>
      <trkpt lat="42.66431999999996" lon="-1.987663000000003">
        <ele>437.409</ele>
        <time>2022-08-25T12:31:05Z</time>
      </trkpt>
      <trkpt lat="42.66430899999996" lon="-1.9877430000000031">
        <ele>437.409</ele>
        <time>2022-08-25T12:31:06Z</time>
      </trkpt>
      <trkpt lat="42.66430099999996" lon="-1.9878190000000031">
        <ele>437.482</ele>
        <time>2022-08-25T12:31:07Z</time>
      </trkpt>
      <trkpt lat="42.66428999999996" lon="-1.987909000000003">
        <ele>437.272</ele>
        <time>2022-08-25T12:31:08Z</time>
      </trkpt>
      <trkpt lat="42.66426899999996" lon="-1.988048000000003">
        <ele>437.222</ele>
        <time>2022-08-25T12:31:10Z</time>
      </trkpt>
      <trkpt lat="42.66425299999996" lon="-1.988137000000003">
        <ele>437.238</ele>
        <time>2022-08-25T12:31:11Z</time>
      </trkpt>
      <trkpt lat="42.66424199999996" lon="-1.988207000000003">
        <ele>437.260</ele>
        <time>2022-08-25T12:31:12Z</time>
      </trkpt>
      <trkpt lat="42.66422999999996" lon="-1.988279000000003">
        <ele>437.247</ele>
        <time>2022-08-25T12:31:13Z</time>
      </trkpt>
      <trkpt lat="42.66421899999996" lon="-1.988350000000003">
        <ele>437.270</ele>
        <time>2022-08-25T12:31:14Z</time>
      </trkpt>
      <trkpt lat="42.66421099999996" lon="-1.988403000000003">
        <ele>437.236</ele>
        <time>2022-08-25T12:31:15Z</time>
      </trkpt>
      <trkpt lat="42.66419699999996" lon="-1.988481000000003">
        <ele>437.257</ele>
        <time>2022-08-25T12:31:16Z</time>
      </trkpt>
      <trkpt lat="42.66418599999996" lon="-1.988532000000003">
        <ele>437.474</ele>
        <time>2022-08-25T12:31:17Z</time>
      </trkpt>
      <trkpt lat="42.664169999999956" lon="-1.9886070000000031">
        <ele>437.456</ele>
        <time>2022-08-25T12:31:18Z</time>
      </trkpt>
      <trkpt lat="42.66415999999995" lon="-1.9886580000000031">
        <ele>437.621</ele>
        <time>2022-08-25T12:31:19Z</time>
      </trkpt>
      <trkpt lat="42.66414999999995" lon="-1.988721000000003">
        <ele>437.209</ele>
        <time>2022-08-25T12:31:20Z</time>
      </trkpt>
      <trkpt lat="42.664139999999946" lon="-1.988795000000003">
        <ele>437.288</ele>
        <time>2022-08-25T12:31:21Z</time>
      </trkpt>
      <trkpt lat="42.66411699999995" lon="-1.9889690000000029">
        <ele>437.228</ele>
        <time>2022-08-25T12:31:24Z</time>
      </trkpt>
      <trkpt lat="42.664027999999945" lon="-1.9895040000000028">
        <ele>436.478</ele>
        <time>2022-08-25T12:31:31Z</time>
      </trkpt>
      <trkpt lat="42.66401599999995" lon="-1.9895770000000028">
        <ele>436.274</ele>
        <time>2022-08-25T12:31:32Z</time>
      </trkpt>
      <trkpt lat="42.66394499999995" lon="-1.9900560000000027">
        <ele>435.226</ele>
        <time>2022-08-25T12:31:37Z</time>
      </trkpt>
      <trkpt lat="42.66391599999995" lon="-1.9902540000000026">
        <ele>434.863</ele>
        <time>2022-08-25T12:31:39Z</time>
      </trkpt>
      <trkpt lat="42.66388699999995" lon="-1.9904450000000027">
        <ele>434.436</ele>
        <time>2022-08-25T12:31:41Z</time>
      </trkpt>
      <trkpt lat="42.663874999999955" lon="-1.9905360000000027">
        <ele>434.442</ele>
        <time>2022-08-25T12:31:42Z</time>
      </trkpt>
      <trkpt lat="42.66386299999996" lon="-1.9906240000000028">
        <ele>434.073</ele>
        <time>2022-08-25T12:31:43Z</time>
      </trkpt>
      <trkpt lat="42.66385099999996" lon="-1.9907090000000027">
        <ele>433.887</ele>
        <time>2022-08-25T12:31:44Z</time>
      </trkpt>
      <trkpt lat="42.66383699999996" lon="-1.9907940000000026">
        <ele>433.642</ele>
        <time>2022-08-25T12:31:45Z</time>
      </trkpt>
      <trkpt lat="42.66382299999996" lon="-1.9908780000000026">
        <ele>433.026</ele>
        <time>2022-08-25T12:31:46Z</time>
      </trkpt>
      <trkpt lat="42.66381199999996" lon="-1.9909580000000027">
        <ele>432.809</ele>
        <time>2022-08-25T12:31:47Z</time>
      </trkpt>
      <trkpt lat="42.66379999999996" lon="-1.9910370000000026">
        <ele>432.629</ele>
        <time>2022-08-25T12:31:48Z</time>
      </trkpt>
      <trkpt lat="42.66378499999996" lon="-1.9911160000000026">
        <ele>432.479</ele>
        <time>2022-08-25T12:31:49Z</time>
      </trkpt>
      <trkpt lat="42.66376799999996" lon="-1.9911940000000026">
        <ele>432.439</ele>
        <time>2022-08-25T12:31:50Z</time>
      </trkpt>
      <trkpt lat="42.663676999999964" lon="-1.9915000000000025">
        <ele>431.875</ele>
        <time>2022-08-25T12:31:54Z</time>
      </trkpt>
      <trkpt lat="42.66365299999996" lon="-1.9915720000000026">
        <ele>431.667</ele>
        <time>2022-08-25T12:31:55Z</time>
      </trkpt>
      <trkpt lat="42.66362599999996" lon="-1.9916440000000026">
        <ele>431.454</ele>
        <time>2022-08-25T12:31:56Z</time>
      </trkpt>
      <trkpt lat="42.66359799999996" lon="-1.9917140000000026">
        <ele>431.427</ele>
        <time>2022-08-25T12:31:57Z</time>
      </trkpt>
      <trkpt lat="42.66357199999996" lon="-1.9917800000000025">
        <ele>431.253</ele>
        <time>2022-08-25T12:31:58Z</time>
      </trkpt>
      <trkpt lat="42.66354499999996" lon="-1.9918410000000026">
        <ele>431.234</ele>
        <time>2022-08-25T12:31:59Z</time>
      </trkpt>
      <trkpt lat="42.663519999999956" lon="-1.9919010000000026">
        <ele>431.256</ele>
        <time>2022-08-25T12:32:00Z</time>
      </trkpt>
      <trkpt lat="42.66349399999996" lon="-1.9919570000000026">
        <ele>431.059</ele>
        <time>2022-08-25T12:32:01Z</time>
      </trkpt>
      <trkpt lat="42.66346799999996" lon="-1.9920110000000026">
        <ele>431.014</ele>
        <time>2022-08-25T12:32:02Z</time>
      </trkpt>
      <trkpt lat="42.663440999999956" lon="-1.9920630000000026">
        <ele>431.009</ele>
        <time>2022-08-25T12:32:03Z</time>
      </trkpt>
      <trkpt lat="42.663410999999954" lon="-1.9921260000000025">
        <ele>431.026</ele>
        <time>2022-08-25T12:32:04Z</time>
      </trkpt>
      <trkpt lat="42.663390999999955" lon="-1.9921640000000025">
        <ele>431.266</ele>
        <time>2022-08-25T12:32:05Z</time>
      </trkpt>
      <trkpt lat="42.663367999999956" lon="-1.9922090000000026">
        <ele>431.226</ele>
        <time>2022-08-25T12:32:06Z</time>
      </trkpt>
      <trkpt lat="42.663345999999954" lon="-1.9922520000000026">
        <ele>431.262</ele>
        <time>2022-08-25T12:32:07Z</time>
      </trkpt>
      <trkpt lat="42.663319999999956" lon="-1.9923000000000026">
        <ele>431.224</ele>
        <time>2022-08-25T12:32:08Z</time>
      </trkpt>
      <trkpt lat="42.66330799999996" lon="-1.9923270000000026">
        <ele>431.291</ele>
        <time>2022-08-25T12:32:09Z</time>
      </trkpt>
      <trkpt lat="42.66328799999996" lon="-1.9923670000000027">
        <ele>431.494</ele>
        <time>2022-08-25T12:32:10Z</time>
      </trkpt>
      <trkpt lat="42.66327299999996" lon="-1.9923930000000027">
        <ele>431.460</ele>
        <time>2022-08-25T12:32:11Z</time>
      </trkpt>
      <trkpt lat="42.66325399999996" lon="-1.9924260000000027">
        <ele>431.651</ele>
        <time>2022-08-25T12:32:12Z</time>
      </trkpt>
      <trkpt lat="42.66323399999996" lon="-1.9924650000000026">
        <ele>431.863</ele>
        <time>2022-08-25T12:32:13Z</time>
      </trkpt>
      <trkpt lat="42.66321999999996" lon="-1.9924940000000027">
        <ele>432.044</ele>
        <time>2022-08-25T12:32:14Z</time>
      </trkpt>
      <trkpt lat="42.66321099999996" lon="-1.9925170000000028">
        <ele>432.218</ele>
        <time>2022-08-25T12:32:15Z</time>
      </trkpt>
      <trkpt lat="42.66319699999996" lon="-1.9925450000000027">
        <ele>432.209</ele>
        <time>2022-08-25T12:32:16Z</time>
      </trkpt>
      <trkpt lat="42.66318299999996" lon="-1.9925770000000027">
        <ele>432.457</ele>
        <time>2022-08-25T12:32:17Z</time>
      </trkpt>
      <trkpt lat="42.663175999999964" lon="-1.9925980000000028">
        <ele>432.437</ele>
        <time>2022-08-25T12:32:18Z</time>
      </trkpt>
      <trkpt lat="42.66316099999997" lon="-1.9926290000000026">
        <ele>432.467</ele>
        <time>2022-08-25T12:32:19Z</time>
      </trkpt>
      <trkpt lat="42.663149999999966" lon="-1.9926470000000027">
        <ele>432.633</ele>
        <time>2022-08-25T12:32:20Z</time>
      </trkpt>
      <trkpt lat="42.663133999999964" lon="-1.9926700000000028">
        <ele>432.865</ele>
        <time>2022-08-25T12:32:21Z</time>
      </trkpt>
      <trkpt lat="42.663116999999964" lon="-1.9926980000000027">
        <ele>433.062</ele>
        <time>2022-08-25T12:32:22Z</time>
      </trkpt>
      <trkpt lat="42.663102999999964" lon="-1.9927210000000029">
        <ele>433.075</ele>
        <time>2022-08-25T12:32:23Z</time>
      </trkpt>
      <trkpt lat="42.66309499999996" lon="-1.9927380000000028">
        <ele>433.231</ele>
        <time>2022-08-25T12:32:24Z</time>
      </trkpt>
      <trkpt lat="42.66308399999996" lon="-1.992761000000003">
        <ele>433.442</ele>
        <time>2022-08-25T12:32:25Z</time>
      </trkpt>
      <trkpt lat="42.663074999999964" lon="-1.992787000000003">
        <ele>433.666</ele>
        <time>2022-08-25T12:32:26Z</time>
      </trkpt>
      <trkpt lat="42.66306499999996" lon="-1.992812000000003">
        <ele>433.629</ele>
        <time>2022-08-25T12:32:27Z</time>
      </trkpt>
      <trkpt lat="42.66305599999996" lon="-1.9928340000000029">
        <ele>433.621</ele>
        <time>2022-08-25T12:32:28Z</time>
      </trkpt>
      <trkpt lat="42.663048999999965" lon="-1.9928560000000028">
        <ele>434.009</ele>
        <time>2022-08-25T12:32:29Z</time>
      </trkpt>
      <trkpt lat="42.663042999999966" lon="-1.9928780000000028">
        <ele>434.237</ele>
        <time>2022-08-25T12:32:30Z</time>
      </trkpt>
      <trkpt lat="42.663040999999964" lon="-1.9929000000000028">
        <ele>434.467</ele>
        <time>2022-08-25T12:32:31Z</time>
      </trkpt>
      <trkpt lat="42.66303899999996" lon="-1.9929230000000029">
        <ele>434.657</ele>
        <time>2022-08-25T12:32:32Z</time>
      </trkpt>
      <trkpt lat="42.663037999999965" lon="-1.992946000000003">
        <ele>434.643</ele>
        <time>2022-08-25T12:32:33Z</time>
      </trkpt>
      <trkpt lat="42.663037999999965" lon="-1.992971000000003">
        <ele>434.825</ele>
        <time>2022-08-25T12:32:34Z</time>
      </trkpt>
      <trkpt lat="42.663040999999964" lon="-1.992986000000003">
        <ele>435.022</ele>
        <time>2022-08-25T12:32:35Z</time>
      </trkpt>
      <trkpt lat="42.663042999999966" lon="-1.993004000000003">
        <ele>435.245</ele>
        <time>2022-08-25T12:32:36Z</time>
      </trkpt>
      <trkpt lat="42.663045999999966" lon="-1.9930280000000031">
        <ele>435.041</ele>
        <time>2022-08-25T12:32:37Z</time>
      </trkpt>
      <trkpt lat="42.663048999999965" lon="-1.993045000000003">
        <ele>435.472</ele>
        <time>2022-08-25T12:32:38Z</time>
      </trkpt>
      <trkpt lat="42.66305299999996" lon="-1.993057000000003">
        <ele>435.615</ele>
        <time>2022-08-25T12:32:39Z</time>
      </trkpt>
      <trkpt lat="42.663057999999964" lon="-1.993073000000003">
        <ele>435.865</ele>
        <time>2022-08-25T12:32:40Z</time>
      </trkpt>
      <trkpt lat="42.663062999999966" lon="-1.993093000000003">
        <ele>436.011</ele>
        <time>2022-08-25T12:32:41Z</time>
      </trkpt>
      <trkpt lat="42.66306199999997" lon="-1.9931070000000028">
        <ele>436.209</ele>
        <time>2022-08-25T12:32:42Z</time>
      </trkpt>
      <trkpt lat="42.66305699999997" lon="-1.9931270000000028">
        <ele>436.212</ele>
        <time>2022-08-25T12:32:43Z</time>
      </trkpt>
      <trkpt lat="42.66304999999997" lon="-1.9931350000000028">
        <ele>436.412</ele>
        <time>2022-08-25T12:32:44Z</time>
      </trkpt>
      <trkpt lat="42.66304199999997" lon="-1.9931420000000029">
        <ele>436.442</ele>
        <time>2022-08-25T12:32:45Z</time>
      </trkpt>
      <trkpt lat="42.66303299999997" lon="-1.9931480000000028">
        <ele>436.488</ele>
        <time>2022-08-25T12:32:46Z</time>
      </trkpt>
      <trkpt lat="42.66301999999997" lon="-1.9931590000000028">
        <ele>436.470</ele>
        <time>2022-08-25T12:32:47Z</time>
      </trkpt>
      <trkpt lat="42.663009999999964" lon="-1.9931730000000027">
        <ele>436.457</ele>
        <time>2022-08-25T12:32:48Z</time>
      </trkpt>
      <trkpt lat="42.66299499999997" lon="-1.9931940000000028">
        <ele>436.450</ele>
        <time>2022-08-25T12:32:49Z</time>
      </trkpt>
      <trkpt lat="42.662969999999966" lon="-1.993217000000003">
        <ele>436.686</ele>
        <time>2022-08-25T12:32:50Z</time>
      </trkpt>
      <trkpt lat="42.662947999999965" lon="-1.9932290000000028">
        <ele>436.647</ele>
        <time>2022-08-25T12:32:51Z</time>
      </trkpt>
      <trkpt lat="42.66291599999997" lon="-1.9932420000000028">
        <ele>436.628</ele>
        <time>2022-08-25T12:32:52Z</time>
      </trkpt>
      <trkpt lat="42.66289299999997" lon="-1.993249000000003">
        <ele>436.489</ele>
        <time>2022-08-25T12:32:53Z</time>
      </trkpt>
      <trkpt lat="42.66286399999997" lon="-1.9932610000000028">
        <ele>436.417</ele>
        <time>2022-08-25T12:32:54Z</time>
      </trkpt>
      <trkpt lat="42.66283399999997" lon="-1.9932820000000029">
        <ele>436.409</ele>
        <time>2022-08-25T12:32:55Z</time>
      </trkpt>
      <trkpt lat="42.66281099999997" lon="-1.993298000000003">
        <ele>436.613</ele>
        <time>2022-08-25T12:32:56Z</time>
      </trkpt>
      <trkpt lat="42.66279699999997" lon="-1.9933120000000029">
        <ele>436.643</ele>
        <time>2022-08-25T12:32:57Z</time>
      </trkpt>
      <trkpt lat="42.66277999999997" lon="-1.9933320000000028">
        <ele>436.643</ele>
        <time>2022-08-25T12:32:58Z</time>
      </trkpt>
      <trkpt lat="42.66276399999997" lon="-1.9933530000000028">
        <ele>436.619</ele>
        <time>2022-08-25T12:32:59Z</time>
      </trkpt>
      <trkpt lat="42.662750999999965" lon="-1.993376000000003">
        <ele>436.621</ele>
        <time>2022-08-25T12:33:00Z</time>
      </trkpt>
      <trkpt lat="42.662738999999966" lon="-1.993400000000003">
        <ele>436.838</ele>
        <time>2022-08-25T12:33:01Z</time>
      </trkpt>
      <trkpt lat="42.662727999999966" lon="-1.993421000000003">
        <ele>436.811</ele>
        <time>2022-08-25T12:33:02Z</time>
      </trkpt>
      <trkpt lat="42.662668999999966" lon="-1.993523000000003">
        <ele>436.837</ele>
        <time>2022-08-25T12:33:06Z</time>
      </trkpt>
      <trkpt lat="42.66263199999997" lon="-1.993596000000003">
        <ele>437.258</ele>
        <time>2022-08-25T12:33:09Z</time>
      </trkpt>
      <trkpt lat="42.66261999999997" lon="-1.9936220000000031">
        <ele>437.456</ele>
        <time>2022-08-25T12:33:10Z</time>
      </trkpt>
      <trkpt lat="42.662606999999966" lon="-1.993647000000003">
        <ele>437.459</ele>
        <time>2022-08-25T12:33:11Z</time>
      </trkpt>
      <trkpt lat="42.66258299999996" lon="-1.9936970000000032">
        <ele>437.414</ele>
        <time>2022-08-25T12:33:13Z</time>
      </trkpt>
      <trkpt lat="42.66256999999996" lon="-1.993725000000003">
        <ele>437.409</ele>
        <time>2022-08-25T12:33:14Z</time>
      </trkpt>
      <trkpt lat="42.66255699999996" lon="-1.9937510000000032">
        <ele>437.666</ele>
        <time>2022-08-25T12:33:15Z</time>
      </trkpt>
      <trkpt lat="42.66252899999996" lon="-1.9938000000000031">
        <ele>437.646</ele>
        <time>2022-08-25T12:33:17Z</time>
      </trkpt>
      <trkpt lat="42.662514999999956" lon="-1.993830000000003">
        <ele>437.816</ele>
        <time>2022-08-25T12:33:18Z</time>
      </trkpt>
      <trkpt lat="42.66250799999996" lon="-1.993849000000003">
        <ele>437.862</ele>
        <time>2022-08-25T12:33:19Z</time>
      </trkpt>
      <trkpt lat="42.66249399999996" lon="-1.993877000000003">
        <ele>438.024</ele>
        <time>2022-08-25T12:33:20Z</time>
      </trkpt>
      <trkpt lat="42.66248499999996" lon="-1.993895000000003">
        <ele>438.091</ele>
        <time>2022-08-25T12:33:21Z</time>
      </trkpt>
      <trkpt lat="42.66247299999996" lon="-1.9939180000000032">
        <ele>438.064</ele>
        <time>2022-08-25T12:33:22Z</time>
      </trkpt>
      <trkpt lat="42.66245899999996" lon="-1.9939430000000031">
        <ele>438.260</ele>
        <time>2022-08-25T12:33:23Z</time>
      </trkpt>
      <trkpt lat="42.662446999999965" lon="-1.9939660000000032">
        <ele>438.271</ele>
        <time>2022-08-25T12:33:24Z</time>
      </trkpt>
      <trkpt lat="42.66243699999996" lon="-1.9939850000000032">
        <ele>438.236</ele>
        <time>2022-08-25T12:33:25Z</time>
      </trkpt>
      <trkpt lat="42.66242399999996" lon="-1.9940090000000033">
        <ele>438.417</ele>
        <time>2022-08-25T12:33:26Z</time>
      </trkpt>
      <trkpt lat="42.66237599999996" lon="-1.9941370000000032">
        <ele>439.018</ele>
        <time>2022-08-25T12:33:31Z</time>
      </trkpt>
      <trkpt lat="42.662365999999956" lon="-1.994162000000003">
        <ele>439.009</ele>
        <time>2022-08-25T12:33:32Z</time>
      </trkpt>
      <trkpt lat="42.66235699999996" lon="-1.994182000000003">
        <ele>439.084</ele>
        <time>2022-08-25T12:33:33Z</time>
      </trkpt>
      <trkpt lat="42.66234599999996" lon="-1.994202000000003">
        <ele>439.214</ele>
        <time>2022-08-25T12:33:34Z</time>
      </trkpt>
      <trkpt lat="42.66233699999996" lon="-1.9942190000000029">
        <ele>439.244</ele>
        <time>2022-08-25T12:33:35Z</time>
      </trkpt>
      <trkpt lat="42.66232499999996" lon="-1.994240000000003">
        <ele>439.460</ele>
        <time>2022-08-25T12:33:36Z</time>
      </trkpt>
      <trkpt lat="42.66231399999996" lon="-1.9942570000000028">
        <ele>439.612</ele>
        <time>2022-08-25T12:33:37Z</time>
      </trkpt>
      <trkpt lat="42.66230199999996" lon="-1.9942730000000028">
        <ele>439.689</ele>
        <time>2022-08-25T12:33:38Z</time>
      </trkpt>
      <trkpt lat="42.66225799999996" lon="-1.9943650000000028">
        <ele>440.022</ele>
        <time>2022-08-25T12:33:42Z</time>
      </trkpt>
      <trkpt lat="42.66223699999996" lon="-1.9944090000000028">
        <ele>440.298</ele>
        <time>2022-08-25T12:33:44Z</time>
      </trkpt>
      <trkpt lat="42.662204999999965" lon="-1.9944880000000027">
        <ele>440.619</ele>
        <time>2022-08-25T12:33:47Z</time>
      </trkpt>
      <trkpt lat="42.66219199999996" lon="-1.9945120000000027">
        <ele>440.646</ele>
        <time>2022-08-25T12:33:48Z</time>
      </trkpt>
      <trkpt lat="42.66218399999996" lon="-1.9945300000000028">
        <ele>440.888</ele>
        <time>2022-08-25T12:33:49Z</time>
      </trkpt>
      <trkpt lat="42.662176999999964" lon="-1.9945560000000029">
        <ele>441.016</ele>
        <time>2022-08-25T12:33:50Z</time>
      </trkpt>
      <trkpt lat="42.66216899999996" lon="-1.9945830000000029">
        <ele>441.209</ele>
        <time>2022-08-25T12:33:51Z</time>
      </trkpt>
      <trkpt lat="42.662159999999965" lon="-1.9946080000000028">
        <ele>441.255</ele>
        <time>2022-08-25T12:33:52Z</time>
      </trkpt>
      <trkpt lat="42.662153999999965" lon="-1.9946320000000028">
        <ele>441.455</ele>
        <time>2022-08-25T12:33:53Z</time>
      </trkpt>
      <trkpt lat="42.662148999999964" lon="-1.9946560000000029">
        <ele>441.635</ele>
        <time>2022-08-25T12:33:54Z</time>
      </trkpt>
      <trkpt lat="42.662145999999964" lon="-1.9946780000000028">
        <ele>441.681</ele>
        <time>2022-08-25T12:33:55Z</time>
      </trkpt>
      <trkpt lat="42.662136999999966" lon="-1.9947050000000028">
        <ele>441.823</ele>
        <time>2022-08-25T12:33:56Z</time>
      </trkpt>
      <trkpt lat="42.66212699999996" lon="-1.9947290000000029">
        <ele>442.070</ele>
        <time>2022-08-25T12:33:57Z</time>
      </trkpt>
      <trkpt lat="42.662117999999964" lon="-1.994755000000003">
        <ele>442.063</ele>
        <time>2022-08-25T12:33:58Z</time>
      </trkpt>
      <trkpt lat="42.662111999999965" lon="-1.9947800000000029">
        <ele>442.269</ele>
        <time>2022-08-25T12:33:59Z</time>
      </trkpt>
      <trkpt lat="42.662103999999964" lon="-1.994809000000003">
        <ele>442.240</ele>
        <time>2022-08-25T12:34:00Z</time>
      </trkpt>
      <trkpt lat="42.662094999999965" lon="-1.994835000000003">
        <ele>442.229</ele>
        <time>2022-08-25T12:34:01Z</time>
      </trkpt>
      <trkpt lat="42.66208499999996" lon="-1.994862000000003">
        <ele>442.400</ele>
        <time>2022-08-25T12:34:02Z</time>
      </trkpt>
      <trkpt lat="42.66207899999996" lon="-1.994882000000003">
        <ele>442.620</ele>
        <time>2022-08-25T12:34:03Z</time>
      </trkpt>
      <trkpt lat="42.662072999999964" lon="-1.994908000000003">
        <ele>442.809</ele>
        <time>2022-08-25T12:34:04Z</time>
      </trkpt>
      <trkpt lat="42.66206799999996" lon="-1.994933000000003">
        <ele>442.873</ele>
        <time>2022-08-25T12:34:05Z</time>
      </trkpt>
      <trkpt lat="42.66206199999996" lon="-1.994959000000003">
        <ele>443.023</ele>
        <time>2022-08-25T12:34:06Z</time>
      </trkpt>
      <trkpt lat="42.66205999999996" lon="-1.9949820000000031">
        <ele>443.063</ele>
        <time>2022-08-25T12:34:07Z</time>
      </trkpt>
      <trkpt lat="42.66205699999996" lon="-1.9950010000000031">
        <ele>443.279</ele>
        <time>2022-08-25T12:34:08Z</time>
      </trkpt>
      <trkpt lat="42.66205499999996" lon="-1.9950250000000032">
        <ele>443.481</ele>
        <time>2022-08-25T12:34:09Z</time>
      </trkpt>
      <trkpt lat="42.66205299999996" lon="-1.9950540000000032">
        <ele>443.458</ele>
        <time>2022-08-25T12:34:10Z</time>
      </trkpt>
      <trkpt lat="42.662053999999955" lon="-1.9950740000000031">
        <ele>443.651</ele>
        <time>2022-08-25T12:34:11Z</time>
      </trkpt>
      <trkpt lat="42.66205599999996" lon="-1.9950970000000032">
        <ele>443.687</ele>
        <time>2022-08-25T12:34:12Z</time>
      </trkpt>
      <trkpt lat="42.662059999999954" lon="-1.9951180000000033">
        <ele>443.868</ele>
        <time>2022-08-25T12:34:13Z</time>
      </trkpt>
      <trkpt lat="42.66206399999995" lon="-1.9951410000000034">
        <ele>443.826</ele>
        <time>2022-08-25T12:34:14Z</time>
      </trkpt>
      <trkpt lat="42.66206799999995" lon="-1.9951640000000035">
        <ele>444.047</ele>
        <time>2022-08-25T12:34:15Z</time>
      </trkpt>
      <trkpt lat="42.662074999999945" lon="-1.9951930000000035">
        <ele>444.211</ele>
        <time>2022-08-25T12:34:16Z</time>
      </trkpt>
      <trkpt lat="42.662082999999946" lon="-1.9952120000000035">
        <ele>444.409</ele>
        <time>2022-08-25T12:34:17Z</time>
      </trkpt>
      <trkpt lat="42.662091999999944" lon="-1.9952340000000035">
        <ele>444.683</ele>
        <time>2022-08-25T12:34:18Z</time>
      </trkpt>
      <trkpt lat="42.66210399999994" lon="-1.9952580000000035">
        <ele>444.613</ele>
        <time>2022-08-25T12:34:19Z</time>
      </trkpt>
      <trkpt lat="42.662111999999944" lon="-1.9952810000000036">
        <ele>445.023</ele>
        <time>2022-08-25T12:34:20Z</time>
      </trkpt>
      <trkpt lat="42.66211499999994" lon="-1.9953030000000036">
        <ele>445.249</ele>
        <time>2022-08-25T12:34:21Z</time>
      </trkpt>
      <trkpt lat="42.66211299999994" lon="-1.9953300000000036">
        <ele>445.241</ele>
        <time>2022-08-25T12:34:22Z</time>
      </trkpt>
      <trkpt lat="42.66210399999994" lon="-1.9953600000000036">
        <ele>445.438</ele>
        <time>2022-08-25T12:34:23Z</time>
      </trkpt>
      <trkpt lat="42.66209299999994" lon="-1.9953810000000036">
        <ele>445.661</ele>
        <time>2022-08-25T12:34:24Z</time>
      </trkpt>
      <trkpt lat="42.66207699999994" lon="-1.9954090000000035">
        <ele>445.857</ele>
        <time>2022-08-25T12:34:25Z</time>
      </trkpt>
      <trkpt lat="42.66206599999994" lon="-1.9954260000000035">
        <ele>446.028</ele>
        <time>2022-08-25T12:34:26Z</time>
      </trkpt>
      <trkpt lat="42.66205099999994" lon="-1.9954510000000034">
        <ele>446.074</ele>
        <time>2022-08-25T12:34:27Z</time>
      </trkpt>
      <trkpt lat="42.66203399999994" lon="-1.9954810000000034">
        <ele>446.256</ele>
        <time>2022-08-25T12:34:28Z</time>
      </trkpt>
      <trkpt lat="42.66201999999994" lon="-1.9955100000000034">
        <ele>446.221</ele>
        <time>2022-08-25T12:34:29Z</time>
      </trkpt>
      <trkpt lat="42.66200799999994" lon="-1.9955340000000035">
        <ele>446.409</ele>
        <time>2022-08-25T12:34:30Z</time>
      </trkpt>
      <trkpt lat="42.66199399999994" lon="-1.9955660000000035">
        <ele>446.478</ele>
        <time>2022-08-25T12:34:31Z</time>
      </trkpt>
      <trkpt lat="42.66198299999994" lon="-1.9956000000000036">
        <ele>446.448</ele>
        <time>2022-08-25T12:34:32Z</time>
      </trkpt>
      <trkpt lat="42.66197199999994" lon="-1.9956340000000037">
        <ele>446.478</ele>
        <time>2022-08-25T12:34:33Z</time>
      </trkpt>
      <trkpt lat="42.66196299999994" lon="-1.9956710000000037">
        <ele>446.474</ele>
        <time>2022-08-25T12:34:34Z</time>
      </trkpt>
      <trkpt lat="42.661956999999944" lon="-1.9957080000000038">
        <ele>446.456</ele>
        <time>2022-08-25T12:34:35Z</time>
      </trkpt>
      <trkpt lat="42.66195599999995" lon="-1.9957450000000039">
        <ele>446.423</ele>
        <time>2022-08-25T12:34:36Z</time>
      </trkpt>
      <trkpt lat="42.661956999999944" lon="-1.9957840000000038">
        <ele>446.486</ele>
        <time>2022-08-25T12:34:37Z</time>
      </trkpt>
      <trkpt lat="42.661958999999946" lon="-1.9958220000000038">
        <ele>446.462</ele>
        <time>2022-08-25T12:34:38Z</time>
      </trkpt>
      <trkpt lat="42.661959999999944" lon="-1.9958650000000038">
        <ele>446.473</ele>
        <time>2022-08-25T12:34:39Z</time>
      </trkpt>
      <trkpt lat="42.661958999999946" lon="-1.9958920000000038">
        <ele>446.455</ele>
        <time>2022-08-25T12:34:40Z</time>
      </trkpt>
      <trkpt lat="42.66195799999995" lon="-1.9959260000000039">
        <ele>446.407</ele>
        <time>2022-08-25T12:34:41Z</time>
      </trkpt>
      <trkpt lat="42.66195499999995" lon="-1.995968000000004">
        <ele>446.417</ele>
        <time>2022-08-25T12:34:42Z</time>
      </trkpt>
      <trkpt lat="42.66195199999995" lon="-1.995997000000004">
        <ele>446.409</ele>
        <time>2022-08-25T12:34:43Z</time>
      </trkpt>
      <trkpt lat="42.66194899999995" lon="-1.996038000000004">
        <ele>446.446</ele>
        <time>2022-08-25T12:34:44Z</time>
      </trkpt>
      <trkpt lat="42.66194799999995" lon="-1.996067000000004">
        <ele>446.666</ele>
        <time>2022-08-25T12:34:45Z</time>
      </trkpt>
      <trkpt lat="42.66191799999995" lon="-1.996470000000004">
        <ele>446.826</ele>
        <time>2022-08-25T12:34:56Z</time>
      </trkpt>
      <trkpt lat="42.66191599999995" lon="-1.996511000000004">
        <ele>446.882</ele>
        <time>2022-08-25T12:34:57Z</time>
      </trkpt>
      <trkpt lat="42.66191199999995" lon="-1.996584000000004">
        <ele>447.054</ele>
        <time>2022-08-25T12:34:59Z</time>
      </trkpt>
      <trkpt lat="42.66190899999995" lon="-1.996621000000004">
        <ele>447.021</ele>
        <time>2022-08-25T12:35:00Z</time>
      </trkpt>
      <trkpt lat="42.66190399999995" lon="-1.996656000000004">
        <ele>447.084</ele>
        <time>2022-08-25T12:35:01Z</time>
      </trkpt>
      <trkpt lat="42.66189799999995" lon="-1.996698000000004">
        <ele>447.030</ele>
        <time>2022-08-25T12:35:02Z</time>
      </trkpt>
      <trkpt lat="42.661890999999954" lon="-1.9967590000000042">
        <ele>447.271</ele>
        <time>2022-08-25T12:35:04Z</time>
      </trkpt>
      <trkpt lat="42.661887999999955" lon="-1.9968020000000042">
        <ele>447.283</ele>
        <time>2022-08-25T12:35:05Z</time>
      </trkpt>
      <trkpt lat="42.661884999999955" lon="-1.996838000000004">
        <ele>447.225</ele>
        <time>2022-08-25T12:35:06Z</time>
      </trkpt>
      <trkpt lat="42.661870999999955" lon="-1.9970130000000041">
        <ele>447.417</ele>
        <time>2022-08-25T12:35:11Z</time>
      </trkpt>
      <trkpt lat="42.661867999999956" lon="-1.9971820000000042">
        <ele>447.409</ele>
        <time>2022-08-25T12:35:15Z</time>
      </trkpt>
      <trkpt lat="42.661865999999954" lon="-1.9972120000000042">
        <ele>447.489</ele>
        <time>2022-08-25T12:35:16Z</time>
      </trkpt>
      <trkpt lat="42.66186699999995" lon="-1.9972470000000042">
        <ele>447.429</ele>
        <time>2022-08-25T12:35:17Z</time>
      </trkpt>
      <trkpt lat="42.66186799999995" lon="-1.997278000000004">
        <ele>447.479</ele>
        <time>2022-08-25T12:35:18Z</time>
      </trkpt>
      <trkpt lat="42.66186699999995" lon="-1.997308000000004">
        <ele>447.485</ele>
        <time>2022-08-25T12:35:19Z</time>
      </trkpt>
      <trkpt lat="42.661865999999954" lon="-1.997506000000004">
        <ele>448.277</ele>
        <time>2022-08-25T12:35:24Z</time>
      </trkpt>
      <trkpt lat="42.66186399999995" lon="-1.997544000000004">
        <ele>448.664</ele>
        <time>2022-08-25T12:35:25Z</time>
      </trkpt>
      <trkpt lat="42.66186099999995" lon="-1.997579000000004">
        <ele>448.647</ele>
        <time>2022-08-25T12:35:26Z</time>
      </trkpt>
      <trkpt lat="42.66185899999995" lon="-1.997605000000004">
        <ele>448.823</ele>
        <time>2022-08-25T12:35:27Z</time>
      </trkpt>
      <trkpt lat="42.66185599999995" lon="-1.9976390000000042">
        <ele>449.084</ele>
        <time>2022-08-25T12:35:28Z</time>
      </trkpt>
      <trkpt lat="42.66185499999995" lon="-1.9976730000000043">
        <ele>449.214</ele>
        <time>2022-08-25T12:35:29Z</time>
      </trkpt>
      <trkpt lat="42.66185599999995" lon="-1.9977120000000042">
        <ele>449.454</ele>
        <time>2022-08-25T12:35:30Z</time>
      </trkpt>
      <trkpt lat="42.66185699999995" lon="-1.997745000000004">
        <ele>449.409</ele>
        <time>2022-08-25T12:35:31Z</time>
      </trkpt>
      <trkpt lat="42.661857999999945" lon="-1.9977710000000042">
        <ele>449.409</ele>
        <time>2022-08-25T12:35:32Z</time>
      </trkpt>
      <trkpt lat="42.66185599999994" lon="-1.9978410000000042">
        <ele>449.482</ele>
        <time>2022-08-25T12:35:34Z</time>
      </trkpt>
      <trkpt lat="42.661849999999944" lon="-1.9979930000000041">
        <ele>449.812</ele>
        <time>2022-08-25T12:35:39Z</time>
      </trkpt>
      <trkpt lat="42.661846999999945" lon="-1.998026000000004">
        <ele>449.872</ele>
        <time>2022-08-25T12:35:40Z</time>
      </trkpt>
      <trkpt lat="42.661835999999944" lon="-1.998186000000004">
        <ele>450.058</ele>
        <time>2022-08-25T12:35:45Z</time>
      </trkpt>
      <trkpt lat="42.66182899999995" lon="-1.998334000000004">
        <ele>450.480</ele>
        <time>2022-08-25T12:35:49Z</time>
      </trkpt>
      <trkpt lat="42.661832999999945" lon="-1.998535000000004">
        <ele>451.267</ele>
        <time>2022-08-25T12:35:55Z</time>
      </trkpt>
      <trkpt lat="42.661832999999945" lon="-1.998577000000004">
        <ele>451.250</ele>
        <time>2022-08-25T12:35:56Z</time>
      </trkpt>
      <trkpt lat="42.661835999999944" lon="-1.998644000000004">
        <ele>451.426</ele>
        <time>2022-08-25T12:35:58Z</time>
      </trkpt>
      <trkpt lat="42.661832999999945" lon="-1.998707000000004">
        <ele>451.627</ele>
        <time>2022-08-25T12:36:00Z</time>
      </trkpt>
      <trkpt lat="42.66182899999995" lon="-1.998788000000004">
        <ele>451.852</ele>
        <time>2022-08-25T12:36:02Z</time>
      </trkpt>
      <trkpt lat="42.66183099999995" lon="-1.998851000000004">
        <ele>452.053</ele>
        <time>2022-08-25T12:36:04Z</time>
      </trkpt>
      <trkpt lat="42.66183399999995" lon="-1.9988840000000039">
        <ele>452.208</ele>
        <time>2022-08-25T12:36:05Z</time>
      </trkpt>
      <trkpt lat="42.661837999999946" lon="-1.998956000000004">
        <ele>452.409</ele>
        <time>2022-08-25T12:36:07Z</time>
      </trkpt>
      <trkpt lat="42.661838999999944" lon="-1.998988000000004">
        <ele>452.686</ele>
        <time>2022-08-25T12:36:08Z</time>
      </trkpt>
      <trkpt lat="42.661838999999944" lon="-1.999014000000004">
        <ele>452.676</ele>
        <time>2022-08-25T12:36:09Z</time>
      </trkpt>
      <trkpt lat="42.661837999999946" lon="-1.999123000000004">
        <ele>453.066</ele>
        <time>2022-08-25T12:36:12Z</time>
      </trkpt>
      <trkpt lat="42.661837999999946" lon="-1.999152000000004">
        <ele>453.012</ele>
        <time>2022-08-25T12:36:13Z</time>
      </trkpt>
      <trkpt lat="42.66183699999995" lon="-1.999188000000004">
        <ele>453.094</ele>
        <time>2022-08-25T12:36:14Z</time>
      </trkpt>
      <trkpt lat="42.661837999999946" lon="-1.999232000000004">
        <ele>453.221</ele>
        <time>2022-08-25T12:36:15Z</time>
      </trkpt>
      <trkpt lat="42.66184199999994" lon="-1.999267000000004">
        <ele>453.274</ele>
        <time>2022-08-25T12:36:16Z</time>
      </trkpt>
      <trkpt lat="42.66184299999994" lon="-1.9993050000000039">
        <ele>453.430</ele>
        <time>2022-08-25T12:36:17Z</time>
      </trkpt>
      <trkpt lat="42.66184399999994" lon="-1.9993350000000039">
        <ele>453.481</ele>
        <time>2022-08-25T12:36:18Z</time>
      </trkpt>
      <trkpt lat="42.66184299999994" lon="-1.999375000000004">
        <ele>453.691</ele>
        <time>2022-08-25T12:36:19Z</time>
      </trkpt>
      <trkpt lat="42.66184299999994" lon="-1.999412000000004">
        <ele>453.881</ele>
        <time>2022-08-25T12:36:20Z</time>
      </trkpt>
      <trkpt lat="42.66184599999994" lon="-1.999450000000004">
        <ele>453.819</ele>
        <time>2022-08-25T12:36:21Z</time>
      </trkpt>
      <trkpt lat="42.66184699999994" lon="-1.9994890000000038">
        <ele>453.809</ele>
        <time>2022-08-25T12:36:22Z</time>
      </trkpt>
      <trkpt lat="42.66184699999994" lon="-1.9995280000000037">
        <ele>454.050</ele>
        <time>2022-08-25T12:36:23Z</time>
      </trkpt>
      <trkpt lat="42.66184699999994" lon="-1.9995740000000037">
        <ele>454.040</ele>
        <time>2022-08-25T12:36:24Z</time>
      </trkpt>
      <trkpt lat="42.661847999999935" lon="-1.9996040000000037">
        <ele>454.060</ele>
        <time>2022-08-25T12:36:25Z</time>
      </trkpt>
      <trkpt lat="42.66184599999993" lon="-1.9996520000000038">
        <ele>454.036</ele>
        <time>2022-08-25T12:36:26Z</time>
      </trkpt>
      <trkpt lat="42.66184599999993" lon="-1.9996820000000037">
        <ele>454.268</ele>
        <time>2022-08-25T12:36:27Z</time>
      </trkpt>
      <trkpt lat="42.66184899999993" lon="-1.9997180000000037">
        <ele>454.245</ele>
        <time>2022-08-25T12:36:28Z</time>
      </trkpt>
      <trkpt lat="42.66184899999993" lon="-1.9997610000000037">
        <ele>454.248</ele>
        <time>2022-08-25T12:36:29Z</time>
      </trkpt>
      <trkpt lat="42.66184899999993" lon="-1.9997970000000036">
        <ele>454.464</ele>
        <time>2022-08-25T12:36:30Z</time>
      </trkpt>
      <trkpt lat="42.66183899999993" lon="-1.9999150000000037">
        <ele>454.675</ele>
        <time>2022-08-25T12:36:33Z</time>
      </trkpt>
      <trkpt lat="42.66183799999993" lon="-2.000002000000004">
        <ele>454.827</ele>
        <time>2022-08-25T12:36:35Z</time>
      </trkpt>
      <trkpt lat="42.66183499999993" lon="-2.000184000000004">
        <ele>454.868</ele>
        <time>2022-08-25T12:36:39Z</time>
      </trkpt>
      <trkpt lat="42.66183599999993" lon="-2.000226000000004">
        <ele>455.014</ele>
        <time>2022-08-25T12:36:40Z</time>
      </trkpt>
      <trkpt lat="42.66183399999993" lon="-2.0002590000000042">
        <ele>455.009</ele>
        <time>2022-08-25T12:36:41Z</time>
      </trkpt>
      <trkpt lat="42.66182999999993" lon="-2.000303000000004">
        <ele>455.283</ele>
        <time>2022-08-25T12:36:42Z</time>
      </trkpt>
      <trkpt lat="42.66182499999993" lon="-2.000354000000004">
        <ele>455.263</ele>
        <time>2022-08-25T12:36:43Z</time>
      </trkpt>
      <trkpt lat="42.66181599999993" lon="-2.000575000000004">
        <ele>455.243</ele>
        <time>2022-08-25T12:36:48Z</time>
      </trkpt>
      <trkpt lat="42.66180099999993" lon="-2.000846000000004">
        <ele>455.259</ele>
        <time>2022-08-25T12:36:54Z</time>
      </trkpt>
      <trkpt lat="42.661794999999934" lon="-2.000941000000004">
        <ele>455.481</ele>
        <time>2022-08-25T12:36:56Z</time>
      </trkpt>
      <trkpt lat="42.661754999999935" lon="-2.001281000000004">
        <ele>455.668</ele>
        <time>2022-08-25T12:37:03Z</time>
      </trkpt>
      <trkpt lat="42.66170099999994" lon="-2.001771000000004">
        <ele>455.421</ele>
        <time>2022-08-25T12:37:12Z</time>
      </trkpt>
      <trkpt lat="42.661656999999934" lon="-2.0021720000000043">
        <ele>455.247</ele>
        <time>2022-08-25T12:37:19Z</time>
      </trkpt>
      <trkpt lat="42.66163799999993" lon="-2.002342000000004">
        <ele>455.058</ele>
        <time>2022-08-25T12:37:22Z</time>
      </trkpt>
      <trkpt lat="42.661557999999935" lon="-2.002964000000004">
        <ele>454.221</ele>
        <time>2022-08-25T12:37:31Z</time>
      </trkpt>
      <trkpt lat="42.66151099999993" lon="-2.003402000000004">
        <ele>453.441</ele>
        <time>2022-08-25T12:37:37Z</time>
      </trkpt>
      <trkpt lat="42.661487999999935" lon="-2.003672000000004">
        <ele>452.605</ele>
        <time>2022-08-25T12:37:40Z</time>
      </trkpt>
      <trkpt lat="42.661476999999934" lon="-2.003856000000004">
        <ele>452.409</ele>
        <time>2022-08-25T12:37:42Z</time>
      </trkpt>
      <trkpt lat="42.661481999999936" lon="-2.004235000000004">
        <ele>452.013</ele>
        <time>2022-08-25T12:37:46Z</time>
      </trkpt>
      <trkpt lat="42.661515999999935" lon="-2.004562000000004">
        <ele>451.443</ele>
        <time>2022-08-25T12:37:49Z</time>
      </trkpt>
      <trkpt lat="42.661602999999936" lon="-2.004972000000004">
        <ele>450.673</ele>
        <time>2022-08-25T12:37:53Z</time>
      </trkpt>
      <trkpt lat="42.661625999999934" lon="-2.005053000000004">
        <ele>450.059</ele>
        <time>2022-08-25T12:37:54Z</time>
      </trkpt>
      <trkpt lat="42.66176999999993" lon="-2.005471000000004">
        <ele>449.041</ele>
        <time>2022-08-25T12:37:58Z</time>
      </trkpt>
      <trkpt lat="42.661850999999935" lon="-2.005647000000004">
        <ele>448.248</ele>
        <time>2022-08-25T12:38:00Z</time>
      </trkpt>
      <trkpt lat="42.66189799999994" lon="-2.005744000000004">
        <ele>447.641</ele>
        <time>2022-08-25T12:38:01Z</time>
      </trkpt>
      <trkpt lat="42.662067999999934" lon="-2.006016000000004">
        <ele>445.627</ele>
        <time>2022-08-25T12:38:04Z</time>
      </trkpt>
      <trkpt lat="42.662145999999936" lon="-2.006118000000004">
        <ele>445.468</ele>
        <time>2022-08-25T12:38:05Z</time>
      </trkpt>
      <trkpt lat="42.662199999999935" lon="-2.006182000000004">
        <ele>444.635</ele>
        <time>2022-08-25T12:38:06Z</time>
      </trkpt>
      <trkpt lat="42.662334999999935" lon="-2.006345000000004">
        <ele>443.486</ele>
        <time>2022-08-25T12:38:08Z</time>
      </trkpt>
      <trkpt lat="42.66249099999993" lon="-2.006506000000004">
        <ele>442.014</ele>
        <time>2022-08-25T12:38:10Z</time>
      </trkpt>
      <trkpt lat="42.66256699999993" lon="-2.006572000000004">
        <ele>441.209</ele>
        <time>2022-08-25T12:38:11Z</time>
      </trkpt>
      <trkpt lat="42.66264799999993" lon="-2.0066310000000036">
        <ele>440.844</ele>
        <time>2022-08-25T12:38:12Z</time>
      </trkpt>
      <trkpt lat="42.662810999999934" lon="-2.0067380000000035">
        <ele>439.694</ele>
        <time>2022-08-25T12:38:14Z</time>
      </trkpt>
      <trkpt lat="42.66289099999993" lon="-2.0067850000000034">
        <ele>439.074</ele>
        <time>2022-08-25T12:38:15Z</time>
      </trkpt>
      <trkpt lat="42.66297299999993" lon="-2.0068240000000035">
        <ele>438.050</ele>
        <time>2022-08-25T12:38:16Z</time>
      </trkpt>
      <trkpt lat="42.66305299999993" lon="-2.0068600000000036">
        <ele>437.472</ele>
        <time>2022-08-25T12:38:17Z</time>
      </trkpt>
      <trkpt lat="42.66311699999993" lon="-2.0068860000000037">
        <ele>436.459</ele>
        <time>2022-08-25T12:38:18Z</time>
      </trkpt>
      <trkpt lat="42.66327799999993" lon="-2.0069450000000035">
        <ele>435.422</ele>
        <time>2022-08-25T12:38:20Z</time>
      </trkpt>
      <trkpt lat="42.663447999999924" lon="-2.0070030000000036">
        <ele>434.428</ele>
        <time>2022-08-25T12:38:22Z</time>
      </trkpt>
      <trkpt lat="42.66353599999992" lon="-2.0070320000000037">
        <ele>433.449</ele>
        <time>2022-08-25T12:38:23Z</time>
      </trkpt>
      <trkpt lat="42.663711999999926" lon="-2.0070910000000035">
        <ele>432.086</ele>
        <time>2022-08-25T12:38:25Z</time>
      </trkpt>
      <trkpt lat="42.66389099999993" lon="-2.0071500000000033">
        <ele>430.860</ele>
        <time>2022-08-25T12:38:27Z</time>
      </trkpt>
      <trkpt lat="42.66408699999993" lon="-2.007219000000003">
        <ele>429.626</ele>
        <time>2022-08-25T12:38:29Z</time>
      </trkpt>
      <trkpt lat="42.66415699999993" lon="-2.007241000000003">
        <ele>428.809</ele>
        <time>2022-08-25T12:38:30Z</time>
      </trkpt>
      <trkpt lat="42.664242999999935" lon="-2.0072670000000032">
        <ele>428.239</ele>
        <time>2022-08-25T12:38:31Z</time>
      </trkpt>
      <trkpt lat="42.66432599999993" lon="-2.0072940000000035">
        <ele>428.069</ele>
        <time>2022-08-25T12:38:32Z</time>
      </trkpt>
      <trkpt lat="42.66442399999993" lon="-2.0073280000000033">
        <ele>427.649</ele>
        <time>2022-08-25T12:38:33Z</time>
      </trkpt>
      <trkpt lat="42.66448599999993" lon="-2.0073560000000032">
        <ele>427.285</ele>
        <time>2022-08-25T12:38:34Z</time>
      </trkpt>
      <trkpt lat="42.664560999999935" lon="-2.007393000000003">
        <ele>426.637</ele>
        <time>2022-08-25T12:38:35Z</time>
      </trkpt>
      <trkpt lat="42.664633999999936" lon="-2.007432000000003">
        <ele>426.484</ele>
        <time>2022-08-25T12:38:36Z</time>
      </trkpt>
      <trkpt lat="42.66470099999994" lon="-2.0074740000000033">
        <ele>426.227</ele>
        <time>2022-08-25T12:38:37Z</time>
      </trkpt>
      <trkpt lat="42.66477899999994" lon="-2.0075250000000033">
        <ele>425.883</ele>
        <time>2022-08-25T12:38:38Z</time>
      </trkpt>
      <trkpt lat="42.66484099999994" lon="-2.0075700000000034">
        <ele>425.434</ele>
        <time>2022-08-25T12:38:39Z</time>
      </trkpt>
      <trkpt lat="42.66489099999994" lon="-2.0076070000000033">
        <ele>424.472</ele>
        <time>2022-08-25T12:38:40Z</time>
      </trkpt>
      <trkpt lat="42.66495199999994" lon="-2.0076530000000035">
        <ele>424.213</ele>
        <time>2022-08-25T12:38:41Z</time>
      </trkpt>
      <trkpt lat="42.665009999999945" lon="-2.0077020000000037">
        <ele>423.614</ele>
        <time>2022-08-25T12:38:42Z</time>
      </trkpt>
      <trkpt lat="42.665074999999945" lon="-2.0077650000000036">
        <ele>423.009</ele>
        <time>2022-08-25T12:38:43Z</time>
      </trkpt>
      <trkpt lat="42.66512999999995" lon="-2.0078120000000035">
        <ele>423.078</ele>
        <time>2022-08-25T12:38:44Z</time>
      </trkpt>
      <trkpt lat="42.66517399999995" lon="-2.0078480000000036">
        <ele>422.878</ele>
        <time>2022-08-25T12:38:45Z</time>
      </trkpt>
      <trkpt lat="42.66522699999995" lon="-2.007894000000004">
        <ele>422.888</ele>
        <time>2022-08-25T12:38:46Z</time>
      </trkpt>
      <trkpt lat="42.66528699999995" lon="-2.0079500000000037">
        <ele>422.824</ele>
        <time>2022-08-25T12:38:47Z</time>
      </trkpt>
      <trkpt lat="42.66533099999995" lon="-2.0079980000000037">
        <ele>422.636</ele>
        <time>2022-08-25T12:38:48Z</time>
      </trkpt>
      <trkpt lat="42.66536799999995" lon="-2.0080360000000037">
        <ele>422.633</ele>
        <time>2022-08-25T12:38:49Z</time>
      </trkpt>
      <trkpt lat="42.66541099999995" lon="-2.008082000000004">
        <ele>422.646</ele>
        <time>2022-08-25T12:38:50Z</time>
      </trkpt>
      <trkpt lat="42.66545499999995" lon="-2.008135000000004">
        <ele>422.652</ele>
        <time>2022-08-25T12:38:51Z</time>
      </trkpt>
      <trkpt lat="42.66550699999995" lon="-2.008196000000004">
        <ele>422.423</ele>
        <time>2022-08-25T12:38:52Z</time>
      </trkpt>
      <trkpt lat="42.66554599999995" lon="-2.0082430000000038">
        <ele>422.449</ele>
        <time>2022-08-25T12:38:53Z</time>
      </trkpt>
      <trkpt lat="42.66558399999995" lon="-2.008291000000004">
        <ele>422.402</ele>
        <time>2022-08-25T12:38:54Z</time>
      </trkpt>
      <trkpt lat="42.66561199999995" lon="-2.008327000000004">
        <ele>422.422</ele>
        <time>2022-08-25T12:38:55Z</time>
      </trkpt>
      <trkpt lat="42.665655999999956" lon="-2.008383000000004">
        <ele>422.409</ele>
        <time>2022-08-25T12:38:56Z</time>
      </trkpt>
      <trkpt lat="42.665689999999955" lon="-2.008428000000004">
        <ele>422.235</ele>
        <time>2022-08-25T12:38:57Z</time>
      </trkpt>
      <trkpt lat="42.665720999999955" lon="-2.008473000000004">
        <ele>422.245</ele>
        <time>2022-08-25T12:38:58Z</time>
      </trkpt>
      <trkpt lat="42.66574799999996" lon="-2.008521000000004">
        <ele>422.275</ele>
        <time>2022-08-25T12:38:59Z</time>
      </trkpt>
      <trkpt lat="42.66576699999996" lon="-2.008562000000004">
        <ele>422.251</ele>
        <time>2022-08-25T12:39:00Z</time>
      </trkpt>
      <trkpt lat="42.66579599999996" lon="-2.008627000000004">
        <ele>422.463</ele>
        <time>2022-08-25T12:39:01Z</time>
      </trkpt>
      <trkpt lat="42.66581799999996" lon="-2.008684000000004">
        <ele>422.420</ele>
        <time>2022-08-25T12:39:02Z</time>
      </trkpt>
      <trkpt lat="42.665838999999956" lon="-2.0087390000000043">
        <ele>422.473</ele>
        <time>2022-08-25T12:39:03Z</time>
      </trkpt>
      <trkpt lat="42.66585399999995" lon="-2.008782000000004">
        <ele>422.449</ele>
        <time>2022-08-25T12:39:04Z</time>
      </trkpt>
      <trkpt lat="42.66587199999995" lon="-2.008837000000004">
        <ele>422.270</ele>
        <time>2022-08-25T12:39:05Z</time>
      </trkpt>
      <trkpt lat="42.66588899999995" lon="-2.008906000000004">
        <ele>422.434</ele>
        <time>2022-08-25T12:39:06Z</time>
      </trkpt>
      <trkpt lat="42.66589899999995" lon="-2.008964000000004">
        <ele>422.455</ele>
        <time>2022-08-25T12:39:07Z</time>
      </trkpt>
      <trkpt lat="42.66592199999995" lon="-2.009204000000004">
        <ele>422.410</ele>
        <time>2022-08-25T12:39:11Z</time>
      </trkpt>
      <trkpt lat="42.66591899999995" lon="-2.009267000000004">
        <ele>422.409</ele>
        <time>2022-08-25T12:39:12Z</time>
      </trkpt>
      <trkpt lat="42.66589699999995" lon="-2.009629000000004">
        <ele>422.454</ele>
        <time>2022-08-25T12:39:18Z</time>
      </trkpt>
      <trkpt lat="42.66588099999995" lon="-2.009760000000004">
        <ele>422.254</ele>
        <time>2022-08-25T12:39:20Z</time>
      </trkpt>
      <trkpt lat="42.66587199999995" lon="-2.009825000000004">
        <ele>422.034</ele>
        <time>2022-08-25T12:39:21Z</time>
      </trkpt>
      <trkpt lat="42.66586199999995" lon="-2.0098890000000043">
        <ele>422.050</ele>
        <time>2022-08-25T12:39:22Z</time>
      </trkpt>
      <trkpt lat="42.66585799999995" lon="-2.009936000000004">
        <ele>422.062</ele>
        <time>2022-08-25T12:39:23Z</time>
      </trkpt>
      <trkpt lat="42.66585199999995" lon="-2.010005000000004">
        <ele>422.049</ele>
        <time>2022-08-25T12:39:24Z</time>
      </trkpt>
      <trkpt lat="42.665844999999955" lon="-2.010065000000004">
        <ele>422.072</ele>
        <time>2022-08-25T12:39:25Z</time>
      </trkpt>
      <trkpt lat="42.66584099999996" lon="-2.010124000000004">
        <ele>421.838</ele>
        <time>2022-08-25T12:39:26Z</time>
      </trkpt>
      <trkpt lat="42.665838999999956" lon="-2.0101800000000036">
        <ele>421.849</ele>
        <time>2022-08-25T12:39:27Z</time>
      </trkpt>
      <trkpt lat="42.665838999999956" lon="-2.0102240000000036">
        <ele>421.834</ele>
        <time>2022-08-25T12:39:28Z</time>
      </trkpt>
      <trkpt lat="42.665838999999956" lon="-2.0102790000000037">
        <ele>421.855</ele>
        <time>2022-08-25T12:39:29Z</time>
      </trkpt>
      <trkpt lat="42.66583199999996" lon="-2.0103960000000036">
        <ele>421.810</ele>
        <time>2022-08-25T12:39:31Z</time>
      </trkpt>
      <trkpt lat="42.66582899999996" lon="-2.0104400000000036">
        <ele>421.809</ele>
        <time>2022-08-25T12:39:32Z</time>
      </trkpt>
      <trkpt lat="42.66582399999996" lon="-2.0104940000000036">
        <ele>421.834</ele>
        <time>2022-08-25T12:39:33Z</time>
      </trkpt>
      <trkpt lat="42.66581699999996" lon="-2.0105560000000033">
        <ele>421.864</ele>
        <time>2022-08-25T12:39:34Z</time>
      </trkpt>
      <trkpt lat="42.66580699999996" lon="-2.0106600000000032">
        <ele>421.674</ele>
        <time>2022-08-25T12:39:36Z</time>
      </trkpt>
      <trkpt lat="42.66580399999996" lon="-2.0106990000000033">
        <ele>421.840</ele>
        <time>2022-08-25T12:39:37Z</time>
      </trkpt>
      <trkpt lat="42.66579799999996" lon="-2.010755000000003">
        <ele>421.882</ele>
        <time>2022-08-25T12:39:38Z</time>
      </trkpt>
      <trkpt lat="42.66579299999996" lon="-2.010802000000003">
        <ele>421.839</ele>
        <time>2022-08-25T12:39:39Z</time>
      </trkpt>
      <trkpt lat="42.66578499999996" lon="-2.0108830000000033">
        <ele>421.872</ele>
        <time>2022-08-25T12:39:41Z</time>
      </trkpt>
      <trkpt lat="42.66576499999996" lon="-2.010987000000003">
        <ele>422.018</ele>
        <time>2022-08-25T12:39:43Z</time>
      </trkpt>
      <trkpt lat="42.665754999999955" lon="-2.011030000000003">
        <ele>422.219</ele>
        <time>2022-08-25T12:39:44Z</time>
      </trkpt>
      <trkpt lat="42.665714999999956" lon="-2.011317000000003">
        <ele>422.284</ele>
        <time>2022-08-25T12:39:50Z</time>
      </trkpt>
      <trkpt lat="42.66571199999996" lon="-2.011351000000003">
        <ele>422.207</ele>
        <time>2022-08-25T12:39:51Z</time>
      </trkpt>
      <trkpt lat="42.665706999999955" lon="-2.011450000000003">
        <ele>422.217</ele>
        <time>2022-08-25T12:39:53Z</time>
      </trkpt>
      <trkpt lat="42.665706999999955" lon="-2.0114960000000033">
        <ele>422.209</ele>
        <time>2022-08-25T12:39:54Z</time>
      </trkpt>
      <trkpt lat="42.665703999999955" lon="-2.0115310000000033">
        <ele>422.059</ele>
        <time>2022-08-25T12:39:55Z</time>
      </trkpt>
      <trkpt lat="42.66570299999996" lon="-2.0115730000000034">
        <ele>422.089</ele>
        <time>2022-08-25T12:39:56Z</time>
      </trkpt>
      <trkpt lat="42.66569999999996" lon="-2.0116280000000035">
        <ele>422.099</ele>
        <time>2022-08-25T12:39:57Z</time>
      </trkpt>
      <trkpt lat="42.665697999999956" lon="-2.0116750000000034">
        <ele>422.075</ele>
        <time>2022-08-25T12:39:58Z</time>
      </trkpt>
      <trkpt lat="42.66567099999995" lon="-2.0120010000000033">
        <ele>422.057</ele>
        <time>2022-08-25T12:40:05Z</time>
      </trkpt>
      <trkpt lat="42.665661999999955" lon="-2.0120620000000033">
        <ele>422.054</ele>
        <time>2022-08-25T12:40:06Z</time>
      </trkpt>
      <trkpt lat="42.66565699999995" lon="-2.0121010000000035">
        <ele>422.287</ele>
        <time>2022-08-25T12:40:07Z</time>
      </trkpt>
      <trkpt lat="42.66565199999995" lon="-2.0121580000000034">
        <ele>422.213</ele>
        <time>2022-08-25T12:40:08Z</time>
      </trkpt>
      <trkpt lat="42.665650999999954" lon="-2.0121930000000035">
        <ele>422.244</ele>
        <time>2022-08-25T12:40:09Z</time>
      </trkpt>
      <trkpt lat="42.66564699999996" lon="-2.0122390000000037">
        <ele>422.254</ele>
        <time>2022-08-25T12:40:10Z</time>
      </trkpt>
      <trkpt lat="42.665638999999956" lon="-2.0122860000000036">
        <ele>422.256</ele>
        <time>2022-08-25T12:40:11Z</time>
      </trkpt>
      <trkpt lat="42.66563199999996" lon="-2.0123300000000035">
        <ele>422.211</ele>
        <time>2022-08-25T12:40:12Z</time>
      </trkpt>
      <trkpt lat="42.66562899999996" lon="-2.0123710000000035">
        <ele>422.209</ele>
        <time>2022-08-25T12:40:13Z</time>
      </trkpt>
      <trkpt lat="42.66562199999996" lon="-2.0124140000000033">
        <ele>422.456</ele>
        <time>2022-08-25T12:40:14Z</time>
      </trkpt>
      <trkpt lat="42.665609999999965" lon="-2.0124600000000035">
        <ele>422.416</ele>
        <time>2022-08-25T12:40:15Z</time>
      </trkpt>
      <trkpt lat="42.66558699999997" lon="-2.0125960000000034">
        <ele>422.436</ele>
        <time>2022-08-25T12:40:18Z</time>
      </trkpt>
      <trkpt lat="42.66558099999997" lon="-2.0126380000000035">
        <ele>422.432</ele>
        <time>2022-08-25T12:40:19Z</time>
      </trkpt>
      <trkpt lat="42.665572999999966" lon="-2.0127230000000034">
        <ele>422.614</ele>
        <time>2022-08-25T12:40:21Z</time>
      </trkpt>
      <trkpt lat="42.665556999999964" lon="-2.0128530000000033">
        <ele>423.091</ele>
        <time>2022-08-25T12:40:24Z</time>
      </trkpt>
      <trkpt lat="42.66555299999997" lon="-2.0128970000000033">
        <ele>423.064</ele>
        <time>2022-08-25T12:40:25Z</time>
      </trkpt>
      <trkpt lat="42.66555199999997" lon="-2.0129380000000032">
        <ele>423.240</ele>
        <time>2022-08-25T12:40:26Z</time>
      </trkpt>
      <trkpt lat="42.66554899999997" lon="-2.012981000000003">
        <ele>423.221</ele>
        <time>2022-08-25T12:40:27Z</time>
      </trkpt>
      <trkpt lat="42.66554699999997" lon="-2.013021000000003">
        <ele>423.448</ele>
        <time>2022-08-25T12:40:28Z</time>
      </trkpt>
      <trkpt lat="42.665544999999966" lon="-2.0130580000000027">
        <ele>423.461</ele>
        <time>2022-08-25T12:40:29Z</time>
      </trkpt>
      <trkpt lat="42.665542999999964" lon="-2.0130930000000027">
        <ele>423.417</ele>
        <time>2022-08-25T12:40:30Z</time>
      </trkpt>
      <trkpt lat="42.665536999999965" lon="-2.013132000000003">
        <ele>423.609</ele>
        <time>2022-08-25T12:40:31Z</time>
      </trkpt>
      <trkpt lat="42.66552499999997" lon="-2.0131760000000027">
        <ele>423.665</ele>
        <time>2022-08-25T12:40:32Z</time>
      </trkpt>
      <trkpt lat="42.665516999999966" lon="-2.0132200000000027">
        <ele>423.625</ele>
        <time>2022-08-25T12:40:33Z</time>
      </trkpt>
      <trkpt lat="42.665513999999966" lon="-2.0132550000000027">
        <ele>423.885</ele>
        <time>2022-08-25T12:40:34Z</time>
      </trkpt>
      <trkpt lat="42.66550999999997" lon="-2.0132900000000027">
        <ele>423.831</ele>
        <time>2022-08-25T12:40:35Z</time>
      </trkpt>
      <trkpt lat="42.66550499999997" lon="-2.013329000000003">
        <ele>423.883</ele>
        <time>2022-08-25T12:40:36Z</time>
      </trkpt>
      <trkpt lat="42.66549899999997" lon="-2.0134110000000027">
        <ele>423.870</ele>
        <time>2022-08-25T12:40:38Z</time>
      </trkpt>
      <trkpt lat="42.66550099999997" lon="-2.013447000000003">
        <ele>424.043</ele>
        <time>2022-08-25T12:40:39Z</time>
      </trkpt>
      <trkpt lat="42.66549899999997" lon="-2.013483000000003">
        <ele>424.279</ele>
        <time>2022-08-25T12:40:40Z</time>
      </trkpt>
      <trkpt lat="42.66549599999997" lon="-2.013520000000003">
        <ele>424.440</ele>
        <time>2022-08-25T12:40:41Z</time>
      </trkpt>
      <trkpt lat="42.66549299999997" lon="-2.013556000000003">
        <ele>424.466</ele>
        <time>2022-08-25T12:40:42Z</time>
      </trkpt>
      <trkpt lat="42.66548399999997" lon="-2.013594000000003">
        <ele>424.429</ele>
        <time>2022-08-25T12:40:43Z</time>
      </trkpt>
      <trkpt lat="42.66547599999997" lon="-2.013630000000003">
        <ele>424.421</ele>
        <time>2022-08-25T12:40:44Z</time>
      </trkpt>
      <trkpt lat="42.66546299999997" lon="-2.0136630000000033">
        <ele>424.609</ele>
        <time>2022-08-25T12:40:45Z</time>
      </trkpt>
      <trkpt lat="42.66544899999997" lon="-2.0136930000000035">
        <ele>424.657</ele>
        <time>2022-08-25T12:40:46Z</time>
      </trkpt>
      <trkpt lat="42.665390999999964" lon="-2.0138540000000034">
        <ele>425.017</ele>
        <time>2022-08-25T12:40:51Z</time>
      </trkpt>
      <trkpt lat="42.665361999999966" lon="-2.0139190000000036">
        <ele>425.457</ele>
        <time>2022-08-25T12:40:53Z</time>
      </trkpt>
      <trkpt lat="42.66528999999996" lon="-2.0141750000000034">
        <ele>426.213</ele>
        <time>2022-08-25T12:41:00Z</time>
      </trkpt>
      <trkpt lat="42.665271999999966" lon="-2.0142060000000033">
        <ele>426.285</ele>
        <time>2022-08-25T12:41:01Z</time>
      </trkpt>
      <trkpt lat="42.66511599999997" lon="-2.0145120000000034">
        <ele>426.632</ele>
        <time>2022-08-25T12:41:10Z</time>
      </trkpt>
      <trkpt lat="42.66491999999997" lon="-2.0148210000000035">
        <ele>426.625</ele>
        <time>2022-08-25T12:41:18Z</time>
      </trkpt>
      <trkpt lat="42.66472299999997" lon="-2.0151310000000033">
        <ele>426.671</ele>
        <time>2022-08-25T12:41:25Z</time>
      </trkpt>
      <trkpt lat="42.664630999999964" lon="-2.015298000000003">
        <ele>426.212</ele>
        <time>2022-08-25T12:41:28Z</time>
      </trkpt>
      <trkpt lat="42.664565999999965" lon="-2.0154960000000033">
        <ele>425.448</ele>
        <time>2022-08-25T12:41:31Z</time>
      </trkpt>
      <trkpt lat="42.66455399999997" lon="-2.015565000000003">
        <ele>425.261</ele>
        <time>2022-08-25T12:41:32Z</time>
      </trkpt>
      <trkpt lat="42.66454499999997" lon="-2.015632000000003">
        <ele>425.017</ele>
        <time>2022-08-25T12:41:33Z</time>
      </trkpt>
      <trkpt lat="42.66452199999997" lon="-2.015841000000003">
        <ele>424.409</ele>
        <time>2022-08-25T12:41:36Z</time>
      </trkpt>
      <trkpt lat="42.66451399999997" lon="-2.0159060000000033">
        <ele>424.455</ele>
        <time>2022-08-25T12:41:37Z</time>
      </trkpt>
      <trkpt lat="42.66450499999997" lon="-2.0159710000000035">
        <ele>424.265</ele>
        <time>2022-08-25T12:41:38Z</time>
      </trkpt>
      <trkpt lat="42.66449799999997" lon="-2.0160240000000034">
        <ele>424.255</ele>
        <time>2022-08-25T12:41:39Z</time>
      </trkpt>
      <trkpt lat="42.664491999999974" lon="-2.0161000000000033">
        <ele>424.231</ele>
        <time>2022-08-25T12:41:40Z</time>
      </trkpt>
      <trkpt lat="42.66448799999998" lon="-2.016162000000003">
        <ele>424.073</ele>
        <time>2022-08-25T12:41:41Z</time>
      </trkpt>
      <trkpt lat="42.66448499999998" lon="-2.016224000000003">
        <ele>424.070</ele>
        <time>2022-08-25T12:41:42Z</time>
      </trkpt>
      <trkpt lat="42.66447599999998" lon="-2.016336000000003">
        <ele>423.843</ele>
        <time>2022-08-25T12:41:44Z</time>
      </trkpt>
      <trkpt lat="42.664448999999976" lon="-2.016647000000003">
        <ele>423.659</ele>
        <time>2022-08-25T12:41:49Z</time>
      </trkpt>
      <trkpt lat="42.66444299999998" lon="-2.016718000000003">
        <ele>423.620</ele>
        <time>2022-08-25T12:41:50Z</time>
      </trkpt>
      <trkpt lat="42.66443599999998" lon="-2.016775000000003">
        <ele>423.676</ele>
        <time>2022-08-25T12:41:51Z</time>
      </trkpt>
      <trkpt lat="42.66443099999998" lon="-2.016833000000003">
        <ele>423.690</ele>
        <time>2022-08-25T12:41:52Z</time>
      </trkpt>
      <trkpt lat="42.66442699999998" lon="-2.0168780000000033">
        <ele>423.619</ele>
        <time>2022-08-25T12:41:53Z</time>
      </trkpt>
      <trkpt lat="42.66441799999998" lon="-2.016947000000003">
        <ele>423.609</ele>
        <time>2022-08-25T12:41:54Z</time>
      </trkpt>
      <trkpt lat="42.66441399999999" lon="-2.0169890000000033">
        <ele>423.688</ele>
        <time>2022-08-25T12:41:55Z</time>
      </trkpt>
      <trkpt lat="42.66440799999999" lon="-2.0170530000000033">
        <ele>423.628</ele>
        <time>2022-08-25T12:41:56Z</time>
      </trkpt>
      <trkpt lat="42.66440399999999" lon="-2.0170970000000032">
        <ele>423.668</ele>
        <time>2022-08-25T12:41:57Z</time>
      </trkpt>
      <trkpt lat="42.66439799999999" lon="-2.0171510000000032">
        <ele>423.654</ele>
        <time>2022-08-25T12:41:58Z</time>
      </trkpt>
      <trkpt lat="42.66438599999999" lon="-2.017442000000003">
        <ele>423.656</ele>
        <time>2022-08-25T12:42:03Z</time>
      </trkpt>
      <trkpt lat="42.66439999999999" lon="-2.017560000000003">
        <ele>423.673</ele>
        <time>2022-08-25T12:42:05Z</time>
      </trkpt>
      <trkpt lat="42.664424999999994" lon="-2.017731000000003">
        <ele>423.486</ele>
        <time>2022-08-25T12:42:08Z</time>
      </trkpt>
      <trkpt lat="42.664438" lon="-2.017785000000003">
        <ele>423.442</ele>
        <time>2022-08-25T12:42:09Z</time>
      </trkpt>
      <trkpt lat="42.664449" lon="-2.017840000000003">
        <ele>423.243</ele>
        <time>2022-08-25T12:42:10Z</time>
      </trkpt>
      <trkpt lat="42.664457999999996" lon="-2.0178820000000033">
        <ele>423.233</ele>
        <time>2022-08-25T12:42:11Z</time>
      </trkpt>
      <trkpt lat="42.664489999999994" lon="-2.0180040000000035">
        <ele>423.023</ele>
        <time>2022-08-25T12:42:13Z</time>
      </trkpt>
      <trkpt lat="42.66456099999999" lon="-2.0182250000000033">
        <ele>423.015</ele>
        <time>2022-08-25T12:42:17Z</time>
      </trkpt>
      <trkpt lat="42.66457899999999" lon="-2.0182790000000033">
        <ele>422.809</ele>
        <time>2022-08-25T12:42:18Z</time>
      </trkpt>
      <trkpt lat="42.66459599999999" lon="-2.0183330000000033">
        <ele>422.814</ele>
        <time>2022-08-25T12:42:19Z</time>
      </trkpt>
      <trkpt lat="42.664630999999986" lon="-2.0184260000000034">
        <ele>422.674</ele>
        <time>2022-08-25T12:42:21Z</time>
      </trkpt>
      <trkpt lat="42.66469099999998" lon="-2.018577000000003">
        <ele>422.684</ele>
        <time>2022-08-25T12:42:24Z</time>
      </trkpt>
      <trkpt lat="42.66471499999999" lon="-2.0186260000000034">
        <ele>422.650</ele>
        <time>2022-08-25T12:42:25Z</time>
      </trkpt>
      <trkpt lat="42.664827999999986" lon="-2.0188150000000036">
        <ele>422.292</ele>
        <time>2022-08-25T12:42:29Z</time>
      </trkpt>
      <trkpt lat="42.66488799999998" lon="-2.0189030000000034">
        <ele>422.289</ele>
        <time>2022-08-25T12:42:31Z</time>
      </trkpt>
      <trkpt lat="42.66491699999998" lon="-2.0189440000000034">
        <ele>422.222</ele>
        <time>2022-08-25T12:42:32Z</time>
      </trkpt>
      <trkpt lat="42.664943999999984" lon="-2.0189880000000033">
        <ele>422.258</ele>
        <time>2022-08-25T12:42:33Z</time>
      </trkpt>
      <trkpt lat="42.66496699999998" lon="-2.0190210000000035">
        <ele>422.239</ele>
        <time>2022-08-25T12:42:34Z</time>
      </trkpt>
      <trkpt lat="42.66499499999998" lon="-2.0190600000000036">
        <ele>422.278</ele>
        <time>2022-08-25T12:42:35Z</time>
      </trkpt>
      <trkpt lat="42.66508299999998" lon="-2.0191910000000037">
        <ele>422.433</ele>
        <time>2022-08-25T12:42:38Z</time>
      </trkpt>
      <trkpt lat="42.66516699999998" lon="-2.0193070000000035">
        <ele>422.626</ele>
        <time>2022-08-25T12:42:41Z</time>
      </trkpt>
      <trkpt lat="42.66522899999998" lon="-2.0193770000000035">
        <ele>422.809</ele>
        <time>2022-08-25T12:42:43Z</time>
      </trkpt>
      <trkpt lat="42.66525999999998" lon="-2.0194000000000036">
        <ele>423.018</ele>
        <time>2022-08-25T12:42:44Z</time>
      </trkpt>
      <trkpt lat="42.665295999999984" lon="-2.0194230000000037">
        <ele>423.078</ele>
        <time>2022-08-25T12:42:45Z</time>
      </trkpt>
      <trkpt lat="42.66531599999998" lon="-2.019446000000004">
        <ele>423.058</ele>
        <time>2022-08-25T12:42:46Z</time>
      </trkpt>
      <trkpt lat="42.66532799999998" lon="-2.019469000000004">
        <ele>423.014</ele>
        <time>2022-08-25T12:42:47Z</time>
      </trkpt>
      <trkpt lat="42.66533399999998" lon="-2.019486000000004">
        <ele>423.276</ele>
        <time>2022-08-25T12:42:48Z</time>
      </trkpt>
      <trkpt lat="42.66534199999998" lon="-2.019505000000004">
        <ele>423.233</ele>
        <time>2022-08-25T12:42:49Z</time>
      </trkpt>
      <trkpt lat="42.66534899999998" lon="-2.019526000000004">
        <ele>423.296</ele>
        <time>2022-08-25T12:42:50Z</time>
      </trkpt>
      <trkpt lat="42.66535699999998" lon="-2.019544000000004">
        <ele>423.272</ele>
        <time>2022-08-25T12:42:51Z</time>
      </trkpt>
      <trkpt lat="42.66536599999998" lon="-2.0195590000000037">
        <ele>423.283</ele>
        <time>2022-08-25T12:42:52Z</time>
      </trkpt>
      <trkpt lat="42.66537199999998" lon="-2.0195720000000037">
        <ele>423.296</ele>
        <time>2022-08-25T12:42:53Z</time>
      </trkpt>
      <trkpt lat="42.66543099999998" lon="-2.019662000000004">
        <ele>423.231</ele>
        <time>2022-08-25T12:42:57Z</time>
      </trkpt>
      <trkpt lat="42.66557099999998" lon="-2.0198330000000038">
        <ele>423.224</ele>
        <time>2022-08-25T12:43:03Z</time>
      </trkpt>
      <trkpt lat="42.66559299999998" lon="-2.0198580000000037">
        <ele>423.209</ele>
        <time>2022-08-25T12:43:04Z</time>
      </trkpt>
      <trkpt lat="42.66561999999998" lon="-2.0198900000000037">
        <ele>423.280</ele>
        <time>2022-08-25T12:43:05Z</time>
      </trkpt>
      <trkpt lat="42.66563799999998" lon="-2.0199110000000036">
        <ele>423.420</ele>
        <time>2022-08-25T12:43:06Z</time>
      </trkpt>
      <trkpt lat="42.66565999999998" lon="-2.0199370000000036">
        <ele>423.440</ele>
        <time>2022-08-25T12:43:07Z</time>
      </trkpt>
      <trkpt lat="42.66570699999998" lon="-2.0199970000000036">
        <ele>423.666</ele>
        <time>2022-08-25T12:43:09Z</time>
      </trkpt>
      <trkpt lat="42.66573099999999" lon="-2.0200250000000035">
        <ele>423.638</ele>
        <time>2022-08-25T12:43:10Z</time>
      </trkpt>
      <trkpt lat="42.66574799999999" lon="-2.0200460000000033">
        <ele>423.625</ele>
        <time>2022-08-25T12:43:11Z</time>
      </trkpt>
      <trkpt lat="42.66576999999999" lon="-2.0200690000000034">
        <ele>423.668</ele>
        <time>2022-08-25T12:43:12Z</time>
      </trkpt>
      <trkpt lat="42.665795999999986" lon="-2.0200960000000037">
        <ele>423.654</ele>
        <time>2022-08-25T12:43:13Z</time>
      </trkpt>
      <trkpt lat="42.66581699999998" lon="-2.020116000000004">
        <ele>423.675</ele>
        <time>2022-08-25T12:43:14Z</time>
      </trkpt>
      <trkpt lat="42.66587599999998" lon="-2.020181000000004">
        <ele>423.682</ele>
        <time>2022-08-25T12:43:17Z</time>
      </trkpt>
      <trkpt lat="42.665897999999984" lon="-2.020205000000004">
        <ele>423.643</ele>
        <time>2022-08-25T12:43:18Z</time>
      </trkpt>
      <trkpt lat="42.66591599999998" lon="-2.020235000000004">
        <ele>423.617</ele>
        <time>2022-08-25T12:43:19Z</time>
      </trkpt>
      <trkpt lat="42.66593099999998" lon="-2.020258000000004">
        <ele>423.409</ele>
        <time>2022-08-25T12:43:20Z</time>
      </trkpt>
      <trkpt lat="42.66594599999998" lon="-2.020281000000004">
        <ele>423.499</ele>
        <time>2022-08-25T12:43:21Z</time>
      </trkpt>
      <trkpt lat="42.665951999999976" lon="-2.020290000000004">
        <ele>423.439</ele>
        <time>2022-08-25T12:43:22Z</time>
      </trkpt>
      <trkpt lat="42.665979999999976" lon="-2.020330000000004">
        <ele>423.879</ele>
        <time>2022-08-25T12:47:18Z</time>
      </trkpt>
      <trkpt lat="42.666016999999975" lon="-2.020398000000004">
        <ele>423.845</ele>
        <time>2022-08-25T12:47:20Z</time>
      </trkpt>
      <trkpt lat="42.66609999999997" lon="-2.020572000000004">
        <ele>423.667</ele>
        <time>2022-08-25T12:47:25Z</time>
      </trkpt>
      <trkpt lat="42.66630599999997" lon="-2.020788000000004">
        <ele>423.664</ele>
        <time>2022-08-25T12:47:32Z</time>
      </trkpt>
      <trkpt lat="42.666495999999974" lon="-2.020937000000004">
        <ele>423.677</ele>
        <time>2022-08-25T12:47:38Z</time>
      </trkpt>
      <trkpt lat="42.666528999999976" lon="-2.020965000000004">
        <ele>423.663</ele>
        <time>2022-08-25T12:47:39Z</time>
      </trkpt>
      <trkpt lat="42.666714999999975" lon="-2.021074000000004">
        <ele>423.644</ele>
        <time>2022-08-25T12:47:45Z</time>
      </trkpt>
      <trkpt lat="42.66678099999997" lon="-2.021098000000004">
        <ele>423.455</ele>
        <time>2022-08-25T12:47:47Z</time>
      </trkpt>
      <trkpt lat="42.66687999999997" lon="-2.0211380000000037">
        <ele>423.407</ele>
        <time>2022-08-25T12:47:50Z</time>
      </trkpt>
      <trkpt lat="42.66694999999997" lon="-2.0211670000000037">
        <ele>423.417</ele>
        <time>2022-08-25T12:47:52Z</time>
      </trkpt>
      <trkpt lat="42.667063999999975" lon="-2.0212240000000037">
        <ele>423.209</ele>
        <time>2022-08-25T12:47:55Z</time>
      </trkpt>
      <trkpt lat="42.66709999999998" lon="-2.021238000000004">
        <ele>423.226</ele>
        <time>2022-08-25T12:47:56Z</time>
      </trkpt>
      <trkpt lat="42.667136999999975" lon="-2.021252000000004">
        <ele>423.216</ele>
        <time>2022-08-25T12:47:57Z</time>
      </trkpt>
      <trkpt lat="42.667173999999974" lon="-2.021269000000004">
        <ele>423.066</ele>
        <time>2022-08-25T12:47:58Z</time>
      </trkpt>
      <trkpt lat="42.667209999999976" lon="-2.0212820000000042">
        <ele>423.012</ele>
        <time>2022-08-25T12:47:59Z</time>
      </trkpt>
      <trkpt lat="42.66724799999998" lon="-2.0212960000000044">
        <ele>423.074</ele>
        <time>2022-08-25T12:48:00Z</time>
      </trkpt>
      <trkpt lat="42.66728399999998" lon="-2.0213100000000046">
        <ele>423.031</ele>
        <time>2022-08-25T12:48:01Z</time>
      </trkpt>
      <trkpt lat="42.66731999999998" lon="-2.021324000000005">
        <ele>423.054</ele>
        <time>2022-08-25T12:48:02Z</time>
      </trkpt>
      <trkpt lat="42.667355999999984" lon="-2.021338000000005">
        <ele>422.860</ele>
        <time>2022-08-25T12:48:03Z</time>
      </trkpt>
      <trkpt lat="42.66739099999998" lon="-2.021350000000005">
        <ele>422.881</ele>
        <time>2022-08-25T12:48:04Z</time>
      </trkpt>
      <trkpt lat="42.66742499999998" lon="-2.021364000000005">
        <ele>422.874</ele>
        <time>2022-08-25T12:48:05Z</time>
      </trkpt>
      <trkpt lat="42.66752699999998" lon="-2.0214100000000053">
        <ele>422.856</ele>
        <time>2022-08-25T12:48:08Z</time>
      </trkpt>
      <trkpt lat="42.667558999999976" lon="-2.0214260000000053">
        <ele>422.821</ele>
        <time>2022-08-25T12:48:09Z</time>
      </trkpt>
      <trkpt lat="42.66759399999997" lon="-2.0214460000000054">
        <ele>422.809</ele>
        <time>2022-08-25T12:48:10Z</time>
      </trkpt>
      <trkpt lat="42.667632999999974" lon="-2.0214590000000054">
        <ele>423.038</ele>
        <time>2022-08-25T12:48:11Z</time>
      </trkpt>
      <trkpt lat="42.66766999999997" lon="-2.0214730000000056">
        <ele>423.068</ele>
        <time>2022-08-25T12:48:12Z</time>
      </trkpt>
      <trkpt lat="42.66776599999997" lon="-2.0215160000000054">
        <ele>423.288</ele>
        <time>2022-08-25T12:48:15Z</time>
      </trkpt>
      <trkpt lat="42.66779799999997" lon="-2.0215290000000055">
        <ele>423.244</ele>
        <time>2022-08-25T12:48:16Z</time>
      </trkpt>
      <trkpt lat="42.66785799999997" lon="-2.0215550000000055">
        <ele>423.496</ele>
        <time>2022-08-25T12:48:18Z</time>
      </trkpt>
      <trkpt lat="42.66788599999997" lon="-2.0215680000000056">
        <ele>423.423</ele>
        <time>2022-08-25T12:48:19Z</time>
      </trkpt>
      <trkpt lat="42.668176999999964" lon="-2.0217180000000057">
        <ele>423.416</ele>
        <time>2022-08-25T12:48:28Z</time>
      </trkpt>
      <trkpt lat="42.66842299999996" lon="-2.021846000000006">
        <ele>423.462</ele>
        <time>2022-08-25T12:48:35Z</time>
      </trkpt>
      <trkpt lat="42.66845699999996" lon="-2.0218680000000058">
        <ele>423.423</ele>
        <time>2022-08-25T12:48:36Z</time>
      </trkpt>
      <trkpt lat="42.668497999999964" lon="-2.0218960000000057">
        <ele>423.427</ele>
        <time>2022-08-25T12:48:37Z</time>
      </trkpt>
      <trkpt lat="42.66852499999997" lon="-2.021913000000006">
        <ele>423.468</ele>
        <time>2022-08-25T12:48:38Z</time>
      </trkpt>
      <trkpt lat="42.668556999999964" lon="-2.021935000000006">
        <ele>423.414</ele>
        <time>2022-08-25T12:48:39Z</time>
      </trkpt>
      <trkpt lat="42.668787999999964" lon="-2.022076000000006">
        <ele>423.409</ele>
        <time>2022-08-25T12:48:46Z</time>
      </trkpt>
      <trkpt lat="42.668952999999966" lon="-2.022166000000006">
        <ele>423.473</ele>
        <time>2022-08-25T12:48:51Z</time>
      </trkpt>
      <trkpt lat="42.66898299999997" lon="-2.0221860000000063">
        <ele>423.433</ele>
        <time>2022-08-25T12:48:52Z</time>
      </trkpt>
      <trkpt lat="42.66901099999997" lon="-2.022204000000006">
        <ele>423.483</ele>
        <time>2022-08-25T12:48:53Z</time>
      </trkpt>
      <trkpt lat="42.66903699999997" lon="-2.022219000000006">
        <ele>423.429</ele>
        <time>2022-08-25T12:48:54Z</time>
      </trkpt>
      <trkpt lat="42.66910399999997" lon="-2.022256000000006">
        <ele>423.471</ele>
        <time>2022-08-25T12:48:56Z</time>
      </trkpt>
      <trkpt lat="42.66943599999997" lon="-2.022432000000006">
        <ele>423.218</ele>
        <time>2022-08-25T12:49:05Z</time>
      </trkpt>
      <trkpt lat="42.66946299999997" lon="-2.022448000000006">
        <ele>423.261</ele>
        <time>2022-08-25T12:49:06Z</time>
      </trkpt>
      <trkpt lat="42.66949799999997" lon="-2.022469000000006">
        <ele>423.257</ele>
        <time>2022-08-25T12:49:07Z</time>
      </trkpt>
      <trkpt lat="42.66953499999997" lon="-2.022492000000006">
        <ele>423.228</ele>
        <time>2022-08-25T12:49:08Z</time>
      </trkpt>
      <trkpt lat="42.669569999999965" lon="-2.022510000000006">
        <ele>423.084</ele>
        <time>2022-08-25T12:49:09Z</time>
      </trkpt>
      <trkpt lat="42.669670999999965" lon="-2.0225630000000057">
        <ele>423.007</ele>
        <time>2022-08-25T12:49:12Z</time>
      </trkpt>
      <trkpt lat="42.66974299999997" lon="-2.0226000000000055">
        <ele>423.217</ele>
        <time>2022-08-25T12:49:14Z</time>
      </trkpt>
      <trkpt lat="42.66981599999997" lon="-2.0226410000000055">
        <ele>423.209</ele>
        <time>2022-08-25T12:49:16Z</time>
      </trkpt>
      <trkpt lat="42.67008099999997" lon="-2.0227820000000056">
        <ele>423.479</ele>
        <time>2022-08-25T12:49:23Z</time>
      </trkpt>
      <trkpt lat="42.67011699999997" lon="-2.0228010000000056">
        <ele>423.439</ele>
        <time>2022-08-25T12:49:24Z</time>
      </trkpt>
      <trkpt lat="42.67015899999997" lon="-2.0228260000000056">
        <ele>423.489</ele>
        <time>2022-08-25T12:49:25Z</time>
      </trkpt>
      <trkpt lat="42.67021999999997" lon="-2.0228670000000055">
        <ele>423.435</ele>
        <time>2022-08-25T12:49:27Z</time>
      </trkpt>
      <trkpt lat="42.67028999999997" lon="-2.0229340000000056">
        <ele>423.497</ele>
        <time>2022-08-25T12:49:29Z</time>
      </trkpt>
      <trkpt lat="42.67032099999997" lon="-2.0229710000000054">
        <ele>423.434</ele>
        <time>2022-08-25T12:49:30Z</time>
      </trkpt>
      <trkpt lat="42.670347999999976" lon="-2.0230120000000054">
        <ele>423.647</ele>
        <time>2022-08-25T12:49:31Z</time>
      </trkpt>
      <trkpt lat="42.67036599999997" lon="-2.0230470000000054">
        <ele>423.673</ele>
        <time>2022-08-25T12:49:32Z</time>
      </trkpt>
      <trkpt lat="42.67038599999997" lon="-2.0230930000000056">
        <ele>423.654</ele>
        <time>2022-08-25T12:49:33Z</time>
      </trkpt>
      <trkpt lat="42.670418999999974" lon="-2.0231810000000054">
        <ele>423.673</ele>
        <time>2022-08-25T12:49:35Z</time>
      </trkpt>
      <trkpt lat="42.67046199999997" lon="-2.0232630000000054">
        <ele>423.685</ele>
        <time>2022-08-25T12:49:37Z</time>
      </trkpt>
      <trkpt lat="42.67048399999997" lon="-2.023306000000005">
        <ele>423.413</ele>
        <time>2022-08-25T12:49:38Z</time>
      </trkpt>
      <trkpt lat="42.67052699999997" lon="-2.023395000000005">
        <ele>423.409</ele>
        <time>2022-08-25T12:49:40Z</time>
      </trkpt>
      <trkpt lat="42.67054899999997" lon="-2.0234400000000052">
        <ele>423.258</ele>
        <time>2022-08-25T12:49:41Z</time>
      </trkpt>
      <trkpt lat="42.67064999999997" lon="-2.0237240000000054">
        <ele>422.828</ele>
        <time>2022-08-25T12:49:47Z</time>
      </trkpt>
      <trkpt lat="42.670679999999976" lon="-2.0238190000000054">
        <ele>422.868</ele>
        <time>2022-08-25T12:49:49Z</time>
      </trkpt>
      <trkpt lat="42.67070099999997" lon="-2.023862000000005">
        <ele>422.824</ele>
        <time>2022-08-25T12:49:50Z</time>
      </trkpt>
      <trkpt lat="42.670727999999976" lon="-2.023902000000005">
        <ele>422.886</ele>
        <time>2022-08-25T12:49:51Z</time>
      </trkpt>
      <trkpt lat="42.670755999999976" lon="-2.023928000000005">
        <ele>422.823</ele>
        <time>2022-08-25T12:49:52Z</time>
      </trkpt>
      <trkpt lat="42.670792999999975" lon="-2.023950000000005">
        <ele>422.876</ele>
        <time>2022-08-25T12:49:53Z</time>
      </trkpt>
      <trkpt lat="42.67082499999997" lon="-2.023968000000005">
        <ele>422.812</ele>
        <time>2022-08-25T12:49:54Z</time>
      </trkpt>
      <trkpt lat="42.67085399999997" lon="-2.023988000000005">
        <ele>422.873</ele>
        <time>2022-08-25T12:49:55Z</time>
      </trkpt>
      <trkpt lat="42.67089399999997" lon="-2.024051000000005">
        <ele>423.094</ele>
        <time>2022-08-25T12:49:57Z</time>
      </trkpt>
      <trkpt lat="42.67089999999997" lon="-2.024098000000005">
        <ele>422.657</ele>
        <time>2022-08-25T12:49:58Z</time>
      </trkpt>
      <trkpt lat="42.67087399999997" lon="-2.024238000000005">
        <ele>422.622</ele>
        <time>2022-08-25T12:50:01Z</time>
      </trkpt>
      <trkpt lat="42.67085299999997" lon="-2.024277000000005">
        <ele>422.809</ele>
        <time>2022-08-25T12:50:02Z</time>
      </trkpt>
      <trkpt lat="42.67082499999997" lon="-2.024308000000005">
        <ele>422.850</ele>
        <time>2022-08-25T12:50:03Z</time>
      </trkpt>
      <trkpt lat="42.670792999999975" lon="-2.024337000000005">
        <ele>422.840</ele>
        <time>2022-08-25T12:50:04Z</time>
      </trkpt>
      <trkpt lat="42.67076299999997" lon="-2.024364000000005">
        <ele>422.840</ele>
        <time>2022-08-25T12:50:05Z</time>
      </trkpt>
      <trkpt lat="42.670736999999974" lon="-2.024395000000005">
        <ele>422.876</ele>
        <time>2022-08-25T12:50:06Z</time>
      </trkpt>
      <trkpt lat="42.670696999999976" lon="-2.0244790000000052">
        <ele>422.838</ele>
        <time>2022-08-25T12:50:08Z</time>
      </trkpt>
      <trkpt lat="42.67068999999998" lon="-2.0245300000000053">
        <ele>422.835</ele>
        <time>2022-08-25T12:50:09Z</time>
      </trkpt>
      <trkpt lat="42.67069499999998" lon="-2.0245760000000055">
        <ele>422.828</ele>
        <time>2022-08-25T12:50:10Z</time>
      </trkpt>
      <trkpt lat="42.67069799999998" lon="-2.0246200000000054">
        <ele>422.814</ele>
        <time>2022-08-25T12:50:11Z</time>
      </trkpt>
      <trkpt lat="42.67070499999998" lon="-2.0246600000000052">
        <ele>422.895</ele>
        <time>2022-08-25T12:50:12Z</time>
      </trkpt>
      <trkpt lat="42.67071299999998" lon="-2.0246990000000054">
        <ele>422.881</ele>
        <time>2022-08-25T12:50:13Z</time>
      </trkpt>
      <trkpt lat="42.67071799999998" lon="-2.024736000000005">
        <ele>422.661</ele>
        <time>2022-08-25T12:50:14Z</time>
      </trkpt>
      <trkpt lat="42.67071899999998" lon="-2.024776000000005">
        <ele>422.617</ele>
        <time>2022-08-25T12:50:15Z</time>
      </trkpt>
      <trkpt lat="42.67071499999998" lon="-2.0248030000000052">
        <ele>422.409</ele>
        <time>2022-08-25T12:50:16Z</time>
      </trkpt>
      <trkpt lat="42.67070999999998" lon="-2.0248220000000052">
        <ele>422.449</ele>
        <time>2022-08-25T12:50:17Z</time>
      </trkpt>
      <trkpt lat="42.67070499999998" lon="-2.024840000000005">
        <ele>422.439</ele>
        <time>2022-08-25T12:50:18Z</time>
      </trkpt>
      <trkpt lat="42.67071499999998" lon="-2.024945000000005">
        <ele>422.299</ele>
        <time>2022-08-25T12:50:21Z</time>
      </trkpt>
      <trkpt lat="42.67071399999998" lon="-2.024980000000005">
        <ele>422.235</ele>
        <time>2022-08-25T12:50:22Z</time>
      </trkpt>
      <trkpt lat="42.67070599999998" lon="-2.025057000000005">
        <ele>422.047</ele>
        <time>2022-08-25T12:50:24Z</time>
      </trkpt>
      <trkpt lat="42.670673999999984" lon="-2.025183000000005">
        <ele>421.854</ele>
        <time>2022-08-25T12:50:27Z</time>
      </trkpt>
      <trkpt lat="42.670659999999984" lon="-2.025292000000005">
        <ele>421.857</ele>
        <time>2022-08-25T12:50:29Z</time>
      </trkpt>
      <trkpt lat="42.67065799999998" lon="-2.025402000000005">
        <ele>422.023</ele>
        <time>2022-08-25T12:50:31Z</time>
      </trkpt>
      <trkpt lat="42.67064499999998" lon="-2.025468000000005">
        <ele>422.034</ele>
        <time>2022-08-25T12:50:32Z</time>
      </trkpt>
      <trkpt lat="42.67065099999998" lon="-2.025528000000005">
        <ele>422.048</ele>
        <time>2022-08-25T12:50:33Z</time>
      </trkpt>
      <trkpt lat="42.670651999999976" lon="-2.025585000000005">
        <ele>422.061</ele>
        <time>2022-08-25T12:50:34Z</time>
      </trkpt>
      <trkpt lat="42.670651999999976" lon="-2.0256410000000047">
        <ele>422.017</ele>
        <time>2022-08-25T12:50:35Z</time>
      </trkpt>
      <trkpt lat="42.67065699999998" lon="-2.0256910000000046">
        <ele>422.009</ele>
        <time>2022-08-25T12:50:36Z</time>
      </trkpt>
      <trkpt lat="42.67065099999998" lon="-2.0257380000000045">
        <ele>422.255</ele>
        <time>2022-08-25T12:50:37Z</time>
      </trkpt>
      <trkpt lat="42.67064599999998" lon="-2.0257790000000044">
        <ele>422.495</ele>
        <time>2022-08-25T12:50:38Z</time>
      </trkpt>
      <trkpt lat="42.67063999999998" lon="-2.0258150000000046">
        <ele>422.485</ele>
        <time>2022-08-25T12:50:39Z</time>
      </trkpt>
      <trkpt lat="42.67064199999998" lon="-2.0258380000000047">
        <ele>422.641</ele>
        <time>2022-08-25T12:50:40Z</time>
      </trkpt>
      <trkpt lat="42.67064999999998" lon="-2.025858000000005">
        <ele>422.643</ele>
        <time>2022-08-25T12:50:41Z</time>
      </trkpt>
      <trkpt lat="42.67066599999998" lon="-2.025906000000005">
        <ele>422.880</ele>
        <time>2022-08-25T12:50:43Z</time>
      </trkpt>
      <trkpt lat="42.67066999999998" lon="-2.0259400000000047">
        <ele>422.863</ele>
        <time>2022-08-25T12:50:44Z</time>
      </trkpt>
      <trkpt lat="42.67067199999998" lon="-2.0259810000000047">
        <ele>422.839</ele>
        <time>2022-08-25T12:50:45Z</time>
      </trkpt>
      <trkpt lat="42.670681999999985" lon="-2.0260570000000047">
        <ele>423.030</ele>
        <time>2022-08-25T12:50:47Z</time>
      </trkpt>
      <trkpt lat="42.670692999999986" lon="-2.0261010000000046">
        <ele>423.075</ele>
        <time>2022-08-25T12:50:48Z</time>
      </trkpt>
      <trkpt lat="42.670698999999985" lon="-2.0261610000000045">
        <ele>423.228</ele>
        <time>2022-08-25T12:50:49Z</time>
      </trkpt>
      <trkpt lat="42.670709999999985" lon="-2.0262220000000046">
        <ele>423.420</ele>
        <time>2022-08-25T12:50:50Z</time>
      </trkpt>
      <trkpt lat="42.67070799999998" lon="-2.0262780000000045">
        <ele>423.409</ele>
        <time>2022-08-25T12:50:51Z</time>
      </trkpt>
      <trkpt lat="42.670687999999984" lon="-2.0263330000000046">
        <ele>423.618</ele>
        <time>2022-08-25T12:50:52Z</time>
      </trkpt>
      <trkpt lat="42.67067499999998" lon="-2.0263900000000046">
        <ele>423.688</ele>
        <time>2022-08-25T12:50:53Z</time>
      </trkpt>
      <trkpt lat="42.67066699999998" lon="-2.0264460000000044">
        <ele>423.658</ele>
        <time>2022-08-25T12:50:54Z</time>
      </trkpt>
      <trkpt lat="42.67065299999998" lon="-2.0265570000000044">
        <ele>423.684</ele>
        <time>2022-08-25T12:50:56Z</time>
      </trkpt>
      <trkpt lat="42.67064099999998" lon="-2.0266140000000044">
        <ele>423.616</ele>
        <time>2022-08-25T12:50:57Z</time>
      </trkpt>
      <trkpt lat="42.67062499999998" lon="-2.0266850000000045">
        <ele>423.673</ele>
        <time>2022-08-25T12:50:58Z</time>
      </trkpt>
      <trkpt lat="42.67064399999998" lon="-2.0268940000000044">
        <ele>423.476</ele>
        <time>2022-08-25T12:51:01Z</time>
      </trkpt>
      <trkpt lat="42.67065099999998" lon="-2.0269600000000043">
        <ele>423.232</ele>
        <time>2022-08-25T12:51:02Z</time>
      </trkpt>
      <trkpt lat="42.67064699999998" lon="-2.027019000000004">
        <ele>423.283</ele>
        <time>2022-08-25T12:51:03Z</time>
      </trkpt>
      <trkpt lat="42.67062999999998" lon="-2.027064000000004">
        <ele>423.242</ele>
        <time>2022-08-25T12:51:04Z</time>
      </trkpt>
      <trkpt lat="42.670597999999984" lon="-2.027126000000004">
        <ele>423.222</ele>
        <time>2022-08-25T12:51:06Z</time>
      </trkpt>
      <trkpt lat="42.67059599999998" lon="-2.027141000000004">
        <ele>423.214</ele>
        <time>2022-08-25T12:51:07Z</time>
      </trkpt>
      <trkpt lat="42.67059899999998" lon="-2.027161000000004">
        <ele>423.209</ele>
        <time>2022-08-25T12:51:08Z</time>
      </trkpt>
      <trkpt lat="42.67061099999998" lon="-2.027221000000004">
        <ele>423.055</ele>
        <time>2022-08-25T12:51:09Z</time>
      </trkpt>
      <trkpt lat="42.67062799999998" lon="-2.027273000000004">
        <ele>423.045</ele>
        <time>2022-08-25T12:51:10Z</time>
      </trkpt>
      <trkpt lat="42.67064199999998" lon="-2.027327000000004">
        <ele>423.235</ele>
        <time>2022-08-25T12:51:11Z</time>
      </trkpt>
      <trkpt lat="42.67065299999998" lon="-2.027381000000004">
        <ele>423.221</ele>
        <time>2022-08-25T12:51:12Z</time>
      </trkpt>
      <trkpt lat="42.67065899999998" lon="-2.0275160000000043">
        <ele>423.253</ele>
        <time>2022-08-25T12:51:16Z</time>
      </trkpt>
      <trkpt lat="42.67063799999998" lon="-2.027553000000004">
        <ele>423.240</ele>
        <time>2022-08-25T12:51:17Z</time>
      </trkpt>
      <trkpt lat="42.670616999999986" lon="-2.0275790000000042">
        <ele>423.273</ele>
        <time>2022-08-25T12:51:18Z</time>
      </trkpt>
      <trkpt lat="42.67059399999999" lon="-2.0276150000000044">
        <ele>423.259</ele>
        <time>2022-08-25T12:51:19Z</time>
      </trkpt>
      <trkpt lat="42.67058799999999" lon="-2.0276410000000045">
        <ele>423.250</ele>
        <time>2022-08-25T12:51:20Z</time>
      </trkpt>
      <trkpt lat="42.670591999999985" lon="-2.0276770000000046">
        <ele>423.435</ele>
        <time>2022-08-25T12:51:21Z</time>
      </trkpt>
      <trkpt lat="42.670594999999985" lon="-2.0276870000000047">
        <ele>423.486</ele>
        <time>2022-08-25T12:51:22Z</time>
      </trkpt>
      <trkpt lat="42.67058699999998" lon="-2.0277110000000045">
        <ele>423.614</ele>
        <time>2022-08-25T12:51:23Z</time>
      </trkpt>
      <trkpt lat="42.67057099999998" lon="-2.0277450000000043">
        <ele>423.809</ele>
        <time>2022-08-25T12:51:24Z</time>
      </trkpt>
      <trkpt lat="42.67056599999998" lon="-2.027801000000004">
        <ele>424.024</ele>
        <time>2022-08-25T12:51:25Z</time>
      </trkpt>
      <trkpt lat="42.67057799999998" lon="-2.0278590000000043">
        <ele>424.074</ele>
        <time>2022-08-25T12:51:26Z</time>
      </trkpt>
      <trkpt lat="42.67058599999998" lon="-2.0279190000000042">
        <ele>424.034</ele>
        <time>2022-08-25T12:51:27Z</time>
      </trkpt>
      <trkpt lat="42.67059799999998" lon="-2.027976000000004">
        <ele>424.080</ele>
        <time>2022-08-25T12:51:28Z</time>
      </trkpt>
      <trkpt lat="42.670601999999974" lon="-2.0280280000000044">
        <ele>424.212</ele>
        <time>2022-08-25T12:51:29Z</time>
      </trkpt>
      <trkpt lat="42.670601999999974" lon="-2.0280600000000044">
        <ele>424.239</ele>
        <time>2022-08-25T12:51:30Z</time>
      </trkpt>
      <trkpt lat="42.670601999999974" lon="-2.0280990000000045">
        <ele>424.452</ele>
        <time>2022-08-25T12:51:31Z</time>
      </trkpt>
      <trkpt lat="42.670603999999976" lon="-2.0281600000000046">
        <ele>424.428</ele>
        <time>2022-08-25T12:51:32Z</time>
      </trkpt>
      <trkpt lat="42.670617999999976" lon="-2.0282070000000045">
        <ele>424.889</ele>
        <time>2022-08-25T12:51:33Z</time>
      </trkpt>
      <trkpt lat="42.67062499999997" lon="-2.0282370000000047">
        <ele>424.886</ele>
        <time>2022-08-25T12:51:34Z</time>
      </trkpt>
      <trkpt lat="42.670620999999976" lon="-2.0282810000000047">
        <ele>425.060</ele>
        <time>2022-08-25T12:51:35Z</time>
      </trkpt>
      <trkpt lat="42.67058599999998" lon="-2.0283860000000047">
        <ele>425.426</ele>
        <time>2022-08-25T12:51:37Z</time>
      </trkpt>
      <trkpt lat="42.670606999999976" lon="-2.028432000000005">
        <ele>425.609</ele>
        <time>2022-08-25T12:51:38Z</time>
      </trkpt>
      <trkpt lat="42.670713999999975" lon="-2.028591000000005">
        <ele>425.869</ele>
        <time>2022-08-25T12:51:43Z</time>
      </trkpt>
      <trkpt lat="42.670789999999975" lon="-2.0287360000000048">
        <ele>425.879</ele>
        <time>2022-08-25T12:51:48Z</time>
      </trkpt>
      <trkpt lat="42.67079799999998" lon="-2.0287740000000047">
        <ele>425.669</ele>
        <time>2022-08-25T12:51:49Z</time>
      </trkpt>
      <trkpt lat="42.670806999999975" lon="-2.0288780000000046">
        <ele>425.465</ele>
        <time>2022-08-25T12:51:51Z</time>
      </trkpt>
      <trkpt lat="42.67081399999997" lon="-2.0289360000000047">
        <ele>424.827</ele>
        <time>2022-08-25T12:51:52Z</time>
      </trkpt>
      <trkpt lat="42.670815999999974" lon="-2.028988000000005">
        <ele>424.884</ele>
        <time>2022-08-25T12:51:53Z</time>
      </trkpt>
      <trkpt lat="42.67083899999997" lon="-2.029109000000005">
        <ele>424.627</ele>
        <time>2022-08-25T12:51:55Z</time>
      </trkpt>
      <trkpt lat="42.67085599999997" lon="-2.029167000000005">
        <ele>424.463</ele>
        <time>2022-08-25T12:51:56Z</time>
      </trkpt>
      <trkpt lat="42.67087299999997" lon="-2.029228000000005">
        <ele>424.214</ele>
        <time>2022-08-25T12:51:57Z</time>
      </trkpt>
      <trkpt lat="42.67089099999997" lon="-2.029292000000005">
        <ele>424.253</ele>
        <time>2022-08-25T12:51:58Z</time>
      </trkpt>
      <trkpt lat="42.67087999999997" lon="-2.0293340000000053">
        <ele>423.804</ele>
        <time>2022-08-25T12:51:59Z</time>
      </trkpt>
      <trkpt lat="42.670846999999966" lon="-2.0293970000000052">
        <ele>423.414</ele>
        <time>2022-08-25T12:52:00Z</time>
      </trkpt>
      <trkpt lat="42.67082699999997" lon="-2.0294990000000053">
        <ele>423.409</ele>
        <time>2022-08-25T12:52:01Z</time>
      </trkpt>
      <trkpt lat="42.67082599999997" lon="-2.029511000000005">
        <ele>423.286</ele>
        <time>2022-08-25T12:52:02Z</time>
      </trkpt>
      <trkpt lat="42.67082599999997" lon="-2.029511000000005">
        <ele>423.236</ele>
        <time>2022-08-25T12:52:03Z</time>
      </trkpt>
      <trkpt lat="42.67084399999997" lon="-2.029565000000005">
        <ele>423.036</ele>
        <time>2022-08-25T12:52:05Z</time>
      </trkpt>
      <trkpt lat="42.67085399999997" lon="-2.0296100000000052">
        <ele>422.842</ele>
        <time>2022-08-25T12:52:06Z</time>
      </trkpt>
      <trkpt lat="42.67085899999997" lon="-2.0296550000000053">
        <ele>422.674</ele>
        <time>2022-08-25T12:52:07Z</time>
      </trkpt>
      <trkpt lat="42.670860999999974" lon="-2.0297060000000053">
        <ele>422.631</ele>
        <time>2022-08-25T12:52:08Z</time>
      </trkpt>
      <trkpt lat="42.67087299999997" lon="-2.029743000000005">
        <ele>422.674</ele>
        <time>2022-08-25T12:52:09Z</time>
      </trkpt>
      <trkpt lat="42.67088999999997" lon="-2.0297910000000052">
        <ele>422.610</ele>
        <time>2022-08-25T12:52:10Z</time>
      </trkpt>
      <trkpt lat="42.67090499999997" lon="-2.0298360000000053">
        <ele>422.631</ele>
        <time>2022-08-25T12:52:11Z</time>
      </trkpt>
      <trkpt lat="42.67097399999997" lon="-2.0300790000000055">
        <ele>422.633</ele>
        <time>2022-08-25T12:52:14Z</time>
      </trkpt>
      <trkpt lat="42.67105699999997" lon="-2.0302420000000057">
        <ele>422.823</ele>
        <time>2022-08-25T12:52:17Z</time>
      </trkpt>
      <trkpt lat="42.67107399999997" lon="-2.0303020000000056">
        <ele>422.815</ele>
        <time>2022-08-25T12:52:18Z</time>
      </trkpt>
      <trkpt lat="42.671074999999966" lon="-2.0303240000000056">
        <ele>422.809</ele>
        <time>2022-08-25T12:52:19Z</time>
      </trkpt>
      <trkpt lat="42.671091999999966" lon="-2.0303550000000055">
        <ele>423.054</ele>
        <time>2022-08-25T12:52:20Z</time>
      </trkpt>
      <trkpt lat="42.67112399999996" lon="-2.0303880000000056">
        <ele>423.024</ele>
        <time>2022-08-25T12:52:21Z</time>
      </trkpt>
      <trkpt lat="42.67113399999997" lon="-2.0304270000000058">
        <ele>423.234</ele>
        <time>2022-08-25T12:52:22Z</time>
      </trkpt>
      <trkpt lat="42.671131999999965" lon="-2.0304840000000057">
        <ele>423.440</ele>
        <time>2022-08-25T12:52:23Z</time>
      </trkpt>
      <trkpt lat="42.671137999999964" lon="-2.0305510000000058">
        <ele>423.482</ele>
        <time>2022-08-25T12:52:24Z</time>
      </trkpt>
      <trkpt lat="42.67117299999996" lon="-2.0306080000000057">
        <ele>423.499</ele>
        <time>2022-08-25T12:52:25Z</time>
      </trkpt>
      <trkpt lat="42.67119099999996" lon="-2.0306480000000056">
        <ele>423.412</ele>
        <time>2022-08-25T12:52:26Z</time>
      </trkpt>
      <trkpt lat="42.67119599999996" lon="-2.0307600000000057">
        <ele>423.428</ele>
        <time>2022-08-25T12:52:29Z</time>
      </trkpt>
      <trkpt lat="42.67122299999996" lon="-2.0308030000000055">
        <ele>423.669</ele>
        <time>2022-08-25T12:52:30Z</time>
      </trkpt>
      <trkpt lat="42.67125699999996" lon="-2.0308240000000053">
        <ele>423.695</ele>
        <time>2022-08-25T12:52:31Z</time>
      </trkpt>
      <trkpt lat="42.67132699999996" lon="-2.0309200000000054">
        <ele>423.649</ele>
        <time>2022-08-25T12:52:33Z</time>
      </trkpt>
      <trkpt lat="42.67134399999996" lon="-2.0309500000000056">
        <ele>423.623</ele>
        <time>2022-08-25T12:52:34Z</time>
      </trkpt>
      <trkpt lat="42.671353999999965" lon="-2.0309850000000056">
        <ele>423.609</ele>
        <time>2022-08-25T12:52:35Z</time>
      </trkpt>
      <trkpt lat="42.67136099999996" lon="-2.0309970000000055">
        <ele>423.660</ele>
        <time>2022-08-25T12:52:36Z</time>
      </trkpt>
      <trkpt lat="42.67135899999996" lon="-2.0310040000000056">
        <ele>423.640</ele>
        <time>2022-08-25T12:52:37Z</time>
      </trkpt>
      <trkpt lat="42.67135199999996" lon="-2.0310570000000054">
        <ele>423.870</ele>
        <time>2022-08-25T12:52:39Z</time>
      </trkpt>
      <trkpt lat="42.671342999999965" lon="-2.0310910000000053">
        <ele>423.886</ele>
        <time>2022-08-25T12:52:40Z</time>
      </trkpt>
      <trkpt lat="42.67133799999996" lon="-2.0311210000000055">
        <ele>424.038</ele>
        <time>2022-08-25T12:52:41Z</time>
      </trkpt>
      <trkpt lat="42.671362999999964" lon="-2.0311980000000056">
        <ele>424.265</ele>
        <time>2022-08-25T12:52:43Z</time>
      </trkpt>
      <trkpt lat="42.67136599999996" lon="-2.0312390000000056">
        <ele>424.268</ele>
        <time>2022-08-25T12:52:44Z</time>
      </trkpt>
      <trkpt lat="42.67137599999997" lon="-2.0312810000000057">
        <ele>424.274</ele>
        <time>2022-08-25T12:52:45Z</time>
      </trkpt>
      <trkpt lat="42.67140099999997" lon="-2.0313370000000055">
        <ele>424.235</ele>
        <time>2022-08-25T12:52:46Z</time>
      </trkpt>
      <trkpt lat="42.67142599999997" lon="-2.0313810000000054">
        <ele>424.249</ele>
        <time>2022-08-25T12:52:47Z</time>
      </trkpt>
      <trkpt lat="42.67143999999997" lon="-2.0314220000000054">
        <ele>424.402</ele>
        <time>2022-08-25T12:52:48Z</time>
      </trkpt>
      <trkpt lat="42.67144199999997" lon="-2.0314520000000056">
        <ele>424.422</ele>
        <time>2022-08-25T12:52:49Z</time>
      </trkpt>
      <trkpt lat="42.67144399999997" lon="-2.0314560000000057">
        <ele>424.409</ele>
        <time>2022-08-25T12:52:50Z</time>
      </trkpt>
      <trkpt lat="42.67144399999997" lon="-2.0314650000000056">
        <ele>424.455</ele>
        <time>2022-08-25T12:52:51Z</time>
      </trkpt>
      <trkpt lat="42.67144999999997" lon="-2.0314740000000056">
        <ele>424.435</ele>
        <time>2022-08-25T12:52:52Z</time>
      </trkpt>
      <trkpt lat="42.67145499999997" lon="-2.0314920000000054">
        <ele>424.485</ele>
        <time>2022-08-25T12:52:53Z</time>
      </trkpt>
      <trkpt lat="42.671464999999976" lon="-2.0315450000000053">
        <ele>424.471</ele>
        <time>2022-08-25T12:52:55Z</time>
      </trkpt>
      <trkpt lat="42.67148599999997" lon="-2.0316540000000054">
        <ele>424.683</ele>
        <time>2022-08-25T12:52:58Z</time>
      </trkpt>
      <trkpt lat="42.671510999999974" lon="-2.0317010000000053">
        <ele>424.890</ele>
        <time>2022-08-25T12:52:59Z</time>
      </trkpt>
      <trkpt lat="42.671527999999974" lon="-2.0317420000000053">
        <ele>424.863</ele>
        <time>2022-08-25T12:53:00Z</time>
      </trkpt>
      <trkpt lat="42.67153499999997" lon="-2.031786000000005">
        <ele>424.839</ele>
        <time>2022-08-25T12:53:01Z</time>
      </trkpt>
      <trkpt lat="42.67153599999997" lon="-2.0318340000000052">
        <ele>424.870</ele>
        <time>2022-08-25T12:53:02Z</time>
      </trkpt>
      <trkpt lat="42.67155499999997" lon="-2.031919000000005">
        <ele>424.815</ele>
        <time>2022-08-25T12:53:03Z</time>
      </trkpt>
      <trkpt lat="42.67157799999997" lon="-2.0319800000000052">
        <ele>425.065</ele>
        <time>2022-08-25T12:53:04Z</time>
      </trkpt>
      <trkpt lat="42.67157699999997" lon="-2.032024000000005">
        <ele>425.011</ele>
        <time>2022-08-25T12:53:05Z</time>
      </trkpt>
      <trkpt lat="42.67156499999997" lon="-2.032052000000005">
        <ele>425.009</ele>
        <time>2022-08-25T12:53:06Z</time>
      </trkpt>
      <trkpt lat="42.671355999999975" lon="-2.032175000000005">
        <ele>424.622</ele>
        <time>2022-08-25T12:53:11Z</time>
      </trkpt>
      <trkpt lat="42.67132399999998" lon="-2.032184000000005">
        <ele>424.862</ele>
        <time>2022-08-25T12:53:12Z</time>
      </trkpt>
      <trkpt lat="42.67129199999998" lon="-2.032194000000005">
        <ele>424.832</ele>
        <time>2022-08-25T12:53:13Z</time>
      </trkpt>
      <trkpt lat="42.67128999999998" lon="-2.032220000000005">
        <ele>424.818</ele>
        <time>2022-08-25T12:53:14Z</time>
      </trkpt>
      <trkpt lat="42.671298999999976" lon="-2.032251000000005">
        <ele>424.810</ele>
        <time>2022-08-25T12:53:15Z</time>
      </trkpt>
      <trkpt lat="42.671296999999974" lon="-2.032257000000005">
        <ele>424.667</ele>
        <time>2022-08-25T12:53:16Z</time>
      </trkpt>
      <trkpt lat="42.671296999999974" lon="-2.0322690000000048">
        <ele>424.650</ele>
        <time>2022-08-25T12:53:17Z</time>
      </trkpt>
      <trkpt lat="42.67125899999997" lon="-2.0323040000000048">
        <ele>424.676</ele>
        <time>2022-08-25T12:53:20Z</time>
      </trkpt>
      <trkpt lat="42.67112399999997" lon="-2.0324020000000047">
        <ele>424.267</ele>
        <time>2022-08-25T12:53:25Z</time>
      </trkpt>
      <trkpt lat="42.67106899999997" lon="-2.0324430000000047">
        <ele>424.283</ele>
        <time>2022-08-25T12:53:27Z</time>
      </trkpt>
      <trkpt lat="42.67100699999997" lon="-2.0324770000000045">
        <ele>424.225</ele>
        <time>2022-08-25T12:53:29Z</time>
      </trkpt>
      <trkpt lat="42.67098099999997" lon="-2.0324960000000045">
        <ele>424.417</ele>
        <time>2022-08-25T12:53:30Z</time>
      </trkpt>
      <trkpt lat="42.67095599999997" lon="-2.0325150000000045">
        <ele>424.209</ele>
        <time>2022-08-25T12:53:31Z</time>
      </trkpt>
      <trkpt lat="42.67085699999997" lon="-2.0325970000000044">
        <ele>424.469</ele>
        <time>2022-08-25T12:53:35Z</time>
      </trkpt>
      <trkpt lat="42.67083499999997" lon="-2.0326190000000044">
        <ele>424.469</ele>
        <time>2022-08-25T12:53:36Z</time>
      </trkpt>
      <trkpt lat="42.67082099999997" lon="-2.0326370000000042">
        <ele>424.429</ele>
        <time>2022-08-25T12:53:37Z</time>
      </trkpt>
      <trkpt lat="42.670804999999966" lon="-2.032655000000004">
        <ele>424.455</ele>
        <time>2022-08-25T12:53:38Z</time>
      </trkpt>
      <trkpt lat="42.67078699999997" lon="-2.032668000000004">
        <ele>424.417</ele>
        <time>2022-08-25T12:53:39Z</time>
      </trkpt>
      <trkpt lat="42.670745999999966" lon="-2.032696000000004">
        <ele>424.674</ele>
        <time>2022-08-25T12:53:41Z</time>
      </trkpt>
      <trkpt lat="42.67072299999997" lon="-2.032709000000004">
        <ele>424.677</ele>
        <time>2022-08-25T12:53:42Z</time>
      </trkpt>
      <trkpt lat="42.67069999999997" lon="-2.0327230000000043">
        <ele>424.643</ele>
        <time>2022-08-25T12:53:43Z</time>
      </trkpt>
      <trkpt lat="42.670624999999966" lon="-2.0327720000000045">
        <ele>424.634</ele>
        <time>2022-08-25T12:53:46Z</time>
      </trkpt>
      <trkpt lat="42.670596999999965" lon="-2.0327830000000047">
        <ele>424.878</ele>
        <time>2022-08-25T12:53:47Z</time>
      </trkpt>
      <trkpt lat="42.67056699999996" lon="-2.0327990000000047">
        <ele>424.833</ele>
        <time>2022-08-25T12:53:48Z</time>
      </trkpt>
      <trkpt lat="42.67054199999996" lon="-2.0328140000000046">
        <ele>424.826</ele>
        <time>2022-08-25T12:53:49Z</time>
      </trkpt>
      <trkpt lat="42.67051699999996" lon="-2.0328280000000047">
        <ele>424.809</ele>
        <time>2022-08-25T12:53:50Z</time>
      </trkpt>
      <trkpt lat="42.67042799999996" lon="-2.032876000000005">
        <ele>424.638</ele>
        <time>2022-08-25T12:53:53Z</time>
      </trkpt>
      <trkpt lat="42.67039699999996" lon="-2.0329230000000047">
        <ele>424.638</ele>
        <time>2022-08-25T12:53:55Z</time>
      </trkpt>
      <trkpt lat="42.67039999999996" lon="-2.032953000000005">
        <ele>424.838</ele>
        <time>2022-08-25T12:53:56Z</time>
      </trkpt>
      <trkpt lat="42.67040499999996" lon="-2.032984000000005">
        <ele>424.864</ele>
        <time>2022-08-25T12:53:57Z</time>
      </trkpt>
      <trkpt lat="42.67040799999996" lon="-2.033014000000005">
        <ele>424.886</ele>
        <time>2022-08-25T12:53:58Z</time>
      </trkpt>
      <trkpt lat="42.67040899999996" lon="-2.033043000000005">
        <ele>425.043</ele>
        <time>2022-08-25T12:53:59Z</time>
      </trkpt>
      <trkpt lat="42.67040799999996" lon="-2.033069000000005">
        <ele>425.066</ele>
        <time>2022-08-25T12:54:00Z</time>
      </trkpt>
      <trkpt lat="42.67040799999996" lon="-2.033093000000005">
        <ele>425.042</ele>
        <time>2022-08-25T12:54:01Z</time>
      </trkpt>
      <trkpt lat="42.67040999999996" lon="-2.033126000000005">
        <ele>424.873</ele>
        <time>2022-08-25T12:54:02Z</time>
      </trkpt>
      <trkpt lat="42.67041499999996" lon="-2.0331590000000053">
        <ele>424.874</ele>
        <time>2022-08-25T12:54:03Z</time>
      </trkpt>
      <trkpt lat="42.67041599999996" lon="-2.0332160000000052">
        <ele>424.856</ele>
        <time>2022-08-25T12:54:05Z</time>
      </trkpt>
      <trkpt lat="42.67042699999996" lon="-2.0332360000000054">
        <ele>424.821</ele>
        <time>2022-08-25T12:54:06Z</time>
      </trkpt>
      <trkpt lat="42.67043299999996" lon="-2.0332530000000055">
        <ele>425.009</ele>
        <time>2022-08-25T12:54:07Z</time>
      </trkpt>
      <trkpt lat="42.67044199999996" lon="-2.0332730000000057">
        <ele>425.068</ele>
        <time>2022-08-25T12:54:08Z</time>
      </trkpt>
      <trkpt lat="42.67043699999996" lon="-2.0332890000000057">
        <ele>424.878</ele>
        <time>2022-08-25T12:54:09Z</time>
      </trkpt>
      <trkpt lat="42.67043099999996" lon="-2.033309000000006">
        <ele>424.888</ele>
        <time>2022-08-25T12:54:10Z</time>
      </trkpt>
      <trkpt lat="42.67043099999996" lon="-2.033326000000006">
        <ele>424.884</ele>
        <time>2022-08-25T12:54:11Z</time>
      </trkpt>
      <trkpt lat="42.67042399999996" lon="-2.033341000000006">
        <ele>425.066</ele>
        <time>2022-08-25T12:54:12Z</time>
      </trkpt>
      <trkpt lat="42.67041899999996" lon="-2.033360000000006">
        <ele>425.023</ele>
        <time>2022-08-25T12:54:13Z</time>
      </trkpt>
      <trkpt lat="42.67041699999996" lon="-2.033374000000006">
        <ele>425.076</ele>
        <time>2022-08-25T12:54:14Z</time>
      </trkpt>
      <trkpt lat="42.67041099999996" lon="-2.033387000000006">
        <ele>425.012</ele>
        <time>2022-08-25T12:54:17Z</time>
      </trkpt>
      <trkpt lat="42.67041099999996" lon="-2.033387000000006">
        <ele>425.033</ele>
        <time>2022-08-25T12:54:18Z</time>
      </trkpt>
      <trkpt lat="42.67041299999996" lon="-2.033387000000006">
        <ele>424.473</ele>
        <time>2022-08-25T12:54:52Z</time>
      </trkpt>
      <trkpt lat="42.67041399999996" lon="-2.033357000000006">
        <ele>424.485</ele>
        <time>2022-08-25T12:54:54Z</time>
      </trkpt>
      <trkpt lat="42.670414999999956" lon="-2.0333270000000057">
        <ele>424.413</ele>
        <time>2022-08-25T12:54:56Z</time>
      </trkpt>
      <trkpt lat="42.67041699999996" lon="-2.033319000000006">
        <ele>424.409</ele>
        <time>2022-08-25T12:54:57Z</time>
      </trkpt>
      <trkpt lat="42.67041699999996" lon="-2.033319000000006">
        <ele>424.418</ele>
        <time>2022-08-25T12:54:58Z</time>
      </trkpt>
      <trkpt lat="42.670414999999956" lon="-2.033303000000006">
        <ele>424.468</ele>
        <time>2022-08-25T12:55:00Z</time>
      </trkpt>
      <trkpt lat="42.67041399999996" lon="-2.033288000000006">
        <ele>424.448</ele>
        <time>2022-08-25T12:55:01Z</time>
      </trkpt>
      <trkpt lat="42.67040899999996" lon="-2.033258000000006">
        <ele>424.484</ele>
        <time>2022-08-25T12:55:03Z</time>
      </trkpt>
      <trkpt lat="42.67040599999996" lon="-2.0332410000000056">
        <ele>424.446</ele>
        <time>2022-08-25T12:55:04Z</time>
      </trkpt>
      <trkpt lat="42.67040299999996" lon="-2.0332310000000056">
        <ele>424.443</ele>
        <time>2022-08-25T12:55:05Z</time>
      </trkpt>
      <trkpt lat="42.67039599999996" lon="-2.0332280000000056">
        <ele>424.486</ele>
        <time>2022-08-25T12:55:06Z</time>
      </trkpt>
      <trkpt lat="42.67039299999996" lon="-2.0332250000000056">
        <ele>424.442</ele>
        <time>2022-08-25T12:55:07Z</time>
      </trkpt>
      <trkpt lat="42.67039299999996" lon="-2.0332230000000058">
        <ele>424.433</ele>
        <time>2022-08-25T12:55:08Z</time>
      </trkpt>
      <trkpt lat="42.67039299999996" lon="-2.0332230000000058">
        <ele>424.477</ele>
        <time>2022-08-25T12:55:09Z</time>
      </trkpt>
      <trkpt lat="42.670394999999964" lon="-2.0332190000000057">
        <ele>424.661</ele>
        <time>2022-08-25T12:55:14Z</time>
      </trkpt>
      <trkpt lat="42.670394999999964" lon="-2.033220000000006">
        <ele>424.627</ele>
        <time>2022-08-25T12:55:15Z</time>
      </trkpt>
      <trkpt lat="42.670396999999966" lon="-2.033224000000006">
        <ele>424.609</ele>
        <time>2022-08-25T12:55:16Z</time>
      </trkpt>
      <trkpt lat="42.670396999999966" lon="-2.033224000000006">
        <ele>424.698</ele>
        <time>2022-08-25T12:55:17Z</time>
      </trkpt>
      <trkpt lat="42.670396999999966" lon="-2.033224000000006">
        <ele>424.628</ele>
        <time>2022-08-25T12:55:18Z</time>
      </trkpt>
      <trkpt lat="42.67040099999996" lon="-2.033241000000006">
        <ele>424.668</ele>
        <time>2022-08-25T12:55:21Z</time>
      </trkpt>
      <trkpt lat="43.092558" lon="-1.302187">
        <ele>365.253</ele>
        <time>2022-08-23T16:26:29Z</time>
      </trkpt>
      <trkpt lat="43.09256499999999" lon="-1.302171">
        <ele>371.004</ele>
        <time>2022-08-23T16:26:30Z</time>
      </trkpt>
      <trkpt lat="43.09257199999999" lon="-1.302153">
        <ele>370.814</ele>
        <time>2022-08-23T16:26:31Z</time>
      </trkpt>
      <trkpt lat="43.09258699999999" lon="-1.3021319999999998">
        <ele>371.009</ele>
        <time>2022-08-23T16:26:32Z</time>
      </trkpt>
      <trkpt lat="43.09261499999999" lon="-1.3021049999999998">
        <ele>370.836</ele>
        <time>2022-08-23T16:26:33Z</time>
      </trkpt>
      <trkpt lat="43.09265099999999" lon="-1.3020749999999999">
        <ele>370.856</ele>
        <time>2022-08-23T16:26:34Z</time>
      </trkpt>
      <trkpt lat="43.09268999999999" lon="-1.3020409999999998">
        <ele>370.866</ele>
        <time>2022-08-23T16:26:35Z</time>
      </trkpt>
      <trkpt lat="43.092727999999994" lon="-1.3020039999999997">
        <ele>370.822</ele>
        <time>2022-08-23T16:26:36Z</time>
      </trkpt>
      <trkpt lat="43.09276299999999" lon="-1.3019639999999997">
        <ele>370.824</ele>
        <time>2022-08-23T16:26:37Z</time>
      </trkpt>
      <trkpt lat="43.09279299999999" lon="-1.3019259999999997">
        <ele>370.831</ele>
        <time>2022-08-23T16:26:38Z</time>
      </trkpt>
      <trkpt lat="43.09282799999999" lon="-1.3018859999999997">
        <ele>370.873</ele>
        <time>2022-08-23T16:26:39Z</time>
      </trkpt>
      <trkpt lat="43.09286399999999" lon="-1.3018409999999996">
        <ele>370.673</ele>
        <time>2022-08-23T16:26:40Z</time>
      </trkpt>
      <trkpt lat="43.09290099999999" lon="-1.3017919999999996">
        <ele>370.622</ele>
        <time>2022-08-23T16:26:41Z</time>
      </trkpt>
      <trkpt lat="43.09293799999999" lon="-1.3017369999999997">
        <ele>370.435</ele>
        <time>2022-08-23T16:26:42Z</time>
      </trkpt>
      <trkpt lat="43.09297499999999" lon="-1.3016779999999997">
        <ele>370.486</ele>
        <time>2022-08-23T16:26:43Z</time>
      </trkpt>
      <trkpt lat="43.09301099999999" lon="-1.3016129999999997">
        <ele>370.214</ele>
        <time>2022-08-23T16:26:44Z</time>
      </trkpt>
      <trkpt lat="43.09304999999999" lon="-1.3015379999999996">
        <ele>370.209</ele>
        <time>2022-08-23T16:26:45Z</time>
      </trkpt>
      <trkpt lat="43.093090999999994" lon="-1.3014579999999996">
        <ele>370.074</ele>
        <time>2022-08-23T16:26:46Z</time>
      </trkpt>
      <trkpt lat="43.09312799999999" lon="-1.3013729999999997">
        <ele>369.634</ele>
        <time>2022-08-23T16:26:47Z</time>
      </trkpt>
      <trkpt lat="43.09316299999999" lon="-1.3012859999999997">
        <ele>369.424</ele>
        <time>2022-08-23T16:26:48Z</time>
      </trkpt>
      <trkpt lat="43.09319499999999" lon="-1.3011999999999997">
        <ele>369.230</ele>
        <time>2022-08-23T16:26:49Z</time>
      </trkpt>
      <trkpt lat="43.093229999999984" lon="-1.3011169999999996">
        <ele>369.072</ele>
        <time>2022-08-23T16:26:50Z</time>
      </trkpt>
      <trkpt lat="43.093268999999985" lon="-1.3010379999999997">
        <ele>368.269</ele>
        <time>2022-08-23T16:26:51Z</time>
      </trkpt>
      <trkpt lat="43.09330199999999" lon="-1.3009529999999998">
        <ele>367.841</ele>
        <time>2022-08-23T16:26:52Z</time>
      </trkpt>
      <trkpt lat="43.09333199999999" lon="-1.3008629999999999">
        <ele>367.061</ele>
        <time>2022-08-23T16:26:53Z</time>
      </trkpt>
      <trkpt lat="43.09338499999999" lon="-1.3006779999999998">
        <ele>366.250</ele>
        <time>2022-08-23T16:26:55Z</time>
      </trkpt>
      <trkpt lat="43.09341099999999" lon="-1.3005869999999997">
        <ele>365.483</ele>
        <time>2022-08-23T16:26:56Z</time>
      </trkpt>
      <trkpt lat="43.09343999999999" lon="-1.3004949999999997">
        <ele>365.225</ele>
        <time>2022-08-23T16:26:57Z</time>
      </trkpt>
      <trkpt lat="43.093474999999984" lon="-1.3004059999999997">
        <ele>364.217</ele>
        <time>2022-08-23T16:26:58Z</time>
      </trkpt>
      <trkpt lat="43.09356099999999" lon="-1.3002159999999998">
        <ele>362.409</ele>
        <time>2022-08-23T16:27:00Z</time>
      </trkpt>
      <trkpt lat="43.093640999999984" lon="-1.3000289999999999">
        <ele>361.469</ele>
        <time>2022-08-23T16:27:02Z</time>
      </trkpt>
      <trkpt lat="43.09371799999998" lon="-1.2998159999999999">
        <ele>360.059</ele>
        <time>2022-08-23T16:27:04Z</time>
      </trkpt>
      <trkpt lat="43.09374699999998" lon="-1.2997269999999999">
        <ele>359.229</ele>
        <time>2022-08-23T16:27:05Z</time>
      </trkpt>
      <trkpt lat="43.09377799999998" lon="-1.2996159999999999">
        <ele>358.265</ele>
        <time>2022-08-23T16:27:06Z</time>
      </trkpt>
      <trkpt lat="43.09382399999998" lon="-1.2994839999999999">
        <ele>358.087</ele>
        <time>2022-08-23T16:27:07Z</time>
      </trkpt>
      <trkpt lat="43.09392999999998" lon="-1.299289">
        <ele>357.084</ele>
        <time>2022-08-23T16:27:09Z</time>
      </trkpt>
      <trkpt lat="43.093995999999976" lon="-1.299207">
        <ele>355.816</ele>
        <time>2022-08-23T16:27:10Z</time>
      </trkpt>
      <trkpt lat="43.094128999999974" lon="-1.299073">
        <ele>354.696</ele>
        <time>2022-08-23T16:27:12Z</time>
      </trkpt>
      <trkpt lat="43.09421699999997" lon="-1.298992">
        <ele>354.075</ele>
        <time>2022-08-23T16:27:13Z</time>
      </trkpt>
      <trkpt lat="43.094370999999974" lon="-1.298868">
        <ele>352.895</ele>
        <time>2022-08-23T16:27:15Z</time>
      </trkpt>
      <trkpt lat="43.09461899999997" lon="-1.298716">
        <ele>351.849</ele>
        <time>2022-08-23T16:27:18Z</time>
      </trkpt>
      <trkpt lat="43.09470399999997" lon="-1.298672">
        <ele>350.823</ele>
        <time>2022-08-23T16:27:19Z</time>
      </trkpt>
      <trkpt lat="43.09494899999997" lon="-1.298559">
        <ele>349.009</ele>
        <time>2022-08-23T16:27:22Z</time>
      </trkpt>
      <trkpt lat="43.095141999999974" lon="-1.2984660000000001">
        <ele>347.860</ele>
        <time>2022-08-23T16:27:24Z</time>
      </trkpt>
      <trkpt lat="43.09523099999998" lon="-1.298418">
        <ele>347.610</ele>
        <time>2022-08-23T16:27:25Z</time>
      </trkpt>
      <trkpt lat="43.095298999999976" lon="-1.298369">
        <ele>347.060</ele>
        <time>2022-08-23T16:27:26Z</time>
      </trkpt>
      <trkpt lat="43.095380999999975" lon="-1.298299">
        <ele>346.466</ele>
        <time>2022-08-23T16:27:27Z</time>
      </trkpt>
      <trkpt lat="43.09554299999998" lon="-1.2981500000000001">
        <ele>345.288</ele>
        <time>2022-08-23T16:27:29Z</time>
      </trkpt>
      <trkpt lat="43.09570499999998" lon="-1.2979930000000002">
        <ele>343.885</ele>
        <time>2022-08-23T16:27:31Z</time>
      </trkpt>
      <trkpt lat="43.09587099999998" lon="-1.2978300000000003">
        <ele>342.697</ele>
        <time>2022-08-23T16:27:33Z</time>
      </trkpt>
      <trkpt lat="43.09604299999998" lon="-1.2976710000000002">
        <ele>341.887</ele>
        <time>2022-08-23T16:27:35Z</time>
      </trkpt>
      <trkpt lat="43.09612699999998" lon="-1.2975920000000003">
        <ele>341.026</ele>
        <time>2022-08-23T16:27:36Z</time>
      </trkpt>
      <trkpt lat="43.09621399999998" lon="-1.2975240000000003">
        <ele>340.422</ele>
        <time>2022-08-23T16:27:37Z</time>
      </trkpt>
      <trkpt lat="43.096302999999985" lon="-1.2974690000000004">
        <ele>339.662</ele>
        <time>2022-08-23T16:27:38Z</time>
      </trkpt>
      <trkpt lat="43.09661599999998" lon="-1.2973520000000005">
        <ele>338.208</ele>
        <time>2022-08-23T16:27:41Z</time>
      </trkpt>
      <trkpt lat="43.09669599999998" lon="-1.2973230000000004">
        <ele>337.809</ele>
        <time>2022-08-23T16:27:42Z</time>
      </trkpt>
      <trkpt lat="43.09679299999998" lon="-1.2972890000000004">
        <ele>336.853</ele>
        <time>2022-08-23T16:27:43Z</time>
      </trkpt>
      <trkpt lat="43.096894999999975" lon="-1.2972380000000003">
        <ele>336.473</ele>
        <time>2022-08-23T16:27:44Z</time>
      </trkpt>
      <trkpt lat="43.096962999999974" lon="-1.2971890000000004">
        <ele>335.433</ele>
        <time>2022-08-23T16:27:45Z</time>
      </trkpt>
      <trkpt lat="43.09701099999997" lon="-1.2971330000000003">
        <ele>334.889</ele>
        <time>2022-08-23T16:27:46Z</time>
      </trkpt>
      <trkpt lat="43.097021999999974" lon="-1.2970820000000003">
        <ele>334.241</ele>
        <time>2022-08-23T16:27:47Z</time>
      </trkpt>
      <trkpt lat="43.09700899999997" lon="-1.2970140000000003">
        <ele>333.428</ele>
        <time>2022-08-23T16:27:48Z</time>
      </trkpt>
      <trkpt lat="43.09697299999997" lon="-1.2969510000000004">
        <ele>332.850</ele>
        <time>2022-08-23T16:27:49Z</time>
      </trkpt>
      <trkpt lat="43.09691599999997" lon="-1.2969080000000004">
        <ele>332.010</ele>
        <time>2022-08-23T16:27:50Z</time>
      </trkpt>
      <trkpt lat="43.09683499999997" lon="-1.2968950000000004">
        <ele>331.629</ele>
        <time>2022-08-23T16:27:51Z</time>
      </trkpt>
      <trkpt lat="43.09676699999997" lon="-1.2969160000000004">
        <ele>330.818</ele>
        <time>2022-08-23T16:27:52Z</time>
      </trkpt>
      <trkpt lat="43.09671299999997" lon="-1.2969530000000005">
        <ele>330.298</ele>
        <time>2022-08-23T16:27:53Z</time>
      </trkpt>
      <trkpt lat="43.09665099999997" lon="-1.2969970000000004">
        <ele>329.817</ele>
        <time>2022-08-23T16:27:54Z</time>
      </trkpt>
      <trkpt lat="43.09657899999997" lon="-1.2970460000000004">
        <ele>329.209</ele>
        <time>2022-08-23T16:27:55Z</time>
      </trkpt>
      <trkpt lat="43.09651999999997" lon="-1.2970790000000003">
        <ele>328.832</ele>
        <time>2022-08-23T16:27:56Z</time>
      </trkpt>
      <trkpt lat="43.09646299999997" lon="-1.2971100000000002">
        <ele>328.082</ele>
        <time>2022-08-23T16:27:57Z</time>
      </trkpt>
      <trkpt lat="43.096416999999974" lon="-1.2971290000000002">
        <ele>327.662</ele>
        <time>2022-08-23T16:27:58Z</time>
      </trkpt>
      <trkpt lat="43.09635899999997" lon="-1.2971390000000003">
        <ele>326.668</ele>
        <time>2022-08-23T16:27:59Z</time>
      </trkpt>
      <trkpt lat="43.09630799999997" lon="-1.2971160000000002">
        <ele>326.050</ele>
        <time>2022-08-23T16:28:00Z</time>
      </trkpt>
      <trkpt lat="43.09627199999997" lon="-1.2970800000000002">
        <ele>325.827</ele>
        <time>2022-08-23T16:28:01Z</time>
      </trkpt>
      <trkpt lat="43.09624999999997" lon="-1.2970220000000003">
        <ele>324.879</ele>
        <time>2022-08-23T16:28:02Z</time>
      </trkpt>
      <trkpt lat="43.09624699999997" lon="-1.2969580000000003">
        <ele>324.639</ele>
        <time>2022-08-23T16:28:03Z</time>
      </trkpt>
      <trkpt lat="43.096253999999966" lon="-1.2968960000000003">
        <ele>324.038</ele>
        <time>2022-08-23T16:28:04Z</time>
      </trkpt>
      <trkpt lat="43.09626399999997" lon="-1.2968320000000002">
        <ele>323.684</ele>
        <time>2022-08-23T16:28:05Z</time>
      </trkpt>
      <trkpt lat="43.09630799999997" lon="-1.2965840000000002">
        <ele>322.607</ele>
        <time>2022-08-23T16:28:08Z</time>
      </trkpt>
      <trkpt lat="43.09633699999997" lon="-1.2964360000000001">
        <ele>321.817</ele>
        <time>2022-08-23T16:28:10Z</time>
      </trkpt>
      <trkpt lat="43.09636699999997" lon="-1.2963710000000002">
        <ele>321.209</ele>
        <time>2022-08-23T16:28:11Z</time>
      </trkpt>
      <trkpt lat="43.09641299999997" lon="-1.2963240000000003">
        <ele>320.619</ele>
        <time>2022-08-23T16:28:12Z</time>
      </trkpt>
      <trkpt lat="43.09647099999997" lon="-1.2962960000000003">
        <ele>320.479</ele>
        <time>2022-08-23T16:28:13Z</time>
      </trkpt>
      <trkpt lat="43.09653299999997" lon="-1.2962930000000004">
        <ele>319.679</ele>
        <time>2022-08-23T16:28:14Z</time>
      </trkpt>
      <trkpt lat="43.09666499999997" lon="-1.2963470000000004">
        <ele>318.625</ele>
        <time>2022-08-23T16:28:16Z</time>
      </trkpt>
      <trkpt lat="43.09680399999997" lon="-1.2964630000000004">
        <ele>317.467</ele>
        <time>2022-08-23T16:28:18Z</time>
      </trkpt>
      <trkpt lat="43.09687899999997" lon="-1.2965270000000004">
        <ele>317.294</ele>
        <time>2022-08-23T16:28:19Z</time>
      </trkpt>
      <trkpt lat="43.09695499999997" lon="-1.2965920000000004">
        <ele>316.886</ele>
        <time>2022-08-23T16:28:20Z</time>
      </trkpt>
      <trkpt lat="43.097046999999975" lon="-1.2966720000000005">
        <ele>316.236</ele>
        <time>2022-08-23T16:28:21Z</time>
      </trkpt>
      <trkpt lat="43.097195999999975" lon="-1.2967830000000005">
        <ele>314.655</ele>
        <time>2022-08-23T16:28:23Z</time>
      </trkpt>
      <trkpt lat="43.097375999999976" lon="-1.2968840000000004">
        <ele>313.027</ele>
        <time>2022-08-23T16:28:25Z</time>
      </trkpt>
      <trkpt lat="43.09746799999998" lon="-1.2969270000000004">
        <ele>312.268</ele>
        <time>2022-08-23T16:28:26Z</time>
      </trkpt>
      <trkpt lat="43.097572999999976" lon="-1.2969740000000003">
        <ele>311.414</ele>
        <time>2022-08-23T16:28:27Z</time>
      </trkpt>
      <trkpt lat="43.09765299999997" lon="-1.2970090000000003">
        <ele>310.609</ele>
        <time>2022-08-23T16:28:28Z</time>
      </trkpt>
      <trkpt lat="43.097721999999976" lon="-1.2970350000000004">
        <ele>310.283</ele>
        <time>2022-08-23T16:28:29Z</time>
      </trkpt>
      <trkpt lat="43.097772999999975" lon="-1.2970420000000005">
        <ele>309.043</ele>
        <time>2022-08-23T16:28:30Z</time>
      </trkpt>
      <trkpt lat="43.09783099999998" lon="-1.2970280000000005">
        <ele>308.483</ele>
        <time>2022-08-23T16:28:31Z</time>
      </trkpt>
      <trkpt lat="43.097893999999975" lon="-1.2970020000000004">
        <ele>307.299</ele>
        <time>2022-08-23T16:28:32Z</time>
      </trkpt>
      <trkpt lat="43.09793199999998" lon="-1.2969640000000004">
        <ele>306.481</ele>
        <time>2022-08-23T16:28:33Z</time>
      </trkpt>
      <trkpt lat="43.09794299999998" lon="-1.2969010000000005">
        <ele>306.068</ele>
        <time>2022-08-23T16:28:34Z</time>
      </trkpt>
      <trkpt lat="43.09791199999998" lon="-1.2968440000000006">
        <ele>305.080</ele>
        <time>2022-08-23T16:28:35Z</time>
      </trkpt>
      <trkpt lat="43.09787499999998" lon="-1.2967710000000006">
        <ele>304.860</ele>
        <time>2022-08-23T16:28:36Z</time>
      </trkpt>
      <trkpt lat="43.09781899999998" lon="-1.2966950000000006">
        <ele>303.619</ele>
        <time>2022-08-23T16:28:37Z</time>
      </trkpt>
      <trkpt lat="43.097780999999976" lon="-1.2966450000000005">
        <ele>303.065</ele>
        <time>2022-08-23T16:28:38Z</time>
      </trkpt>
      <trkpt lat="43.09773299999998" lon="-1.2965640000000005">
        <ele>302.868</ele>
        <time>2022-08-23T16:28:39Z</time>
      </trkpt>
      <trkpt lat="43.097696999999975" lon="-1.2965080000000004">
        <ele>302.214</ele>
        <time>2022-08-23T16:28:40Z</time>
      </trkpt>
      <trkpt lat="43.09754999999998" lon="-1.2963020000000005">
        <ele>301.809</ele>
        <time>2022-08-23T16:28:43Z</time>
      </trkpt>
      <trkpt lat="43.097499999999975" lon="-1.2962420000000006">
        <ele>301.857</ele>
        <time>2022-08-23T16:28:44Z</time>
      </trkpt>
      <trkpt lat="43.097437999999975" lon="-1.2961670000000005">
        <ele>301.847</ele>
        <time>2022-08-23T16:28:45Z</time>
      </trkpt>
      <trkpt lat="43.097378999999975" lon="-1.2961110000000005">
        <ele>301.837</ele>
        <time>2022-08-23T16:28:46Z</time>
      </trkpt>
      <trkpt lat="43.097322999999975" lon="-1.2960520000000004">
        <ele>301.853</ele>
        <time>2022-08-23T16:28:47Z</time>
      </trkpt>
      <trkpt lat="43.097266999999974" lon="-1.2959860000000005">
        <ele>301.835</ele>
        <time>2022-08-23T16:28:48Z</time>
      </trkpt>
      <trkpt lat="43.09722899999997" lon="-1.2959160000000005">
        <ele>301.852</ele>
        <time>2022-08-23T16:28:49Z</time>
      </trkpt>
      <trkpt lat="43.09720599999997" lon="-1.2958290000000006">
        <ele>301.844</ele>
        <time>2022-08-23T16:28:50Z</time>
      </trkpt>
      <trkpt lat="43.097201999999974" lon="-1.2957600000000005">
        <ele>302.054</ele>
        <time>2022-08-23T16:28:51Z</time>
      </trkpt>
      <trkpt lat="43.097201999999974" lon="-1.2956770000000004">
        <ele>302.213</ele>
        <time>2022-08-23T16:28:52Z</time>
      </trkpt>
      <trkpt lat="43.097212999999975" lon="-1.2955950000000005">
        <ele>302.225</ele>
        <time>2022-08-23T16:28:53Z</time>
      </trkpt>
      <trkpt lat="43.09723199999998" lon="-1.2955080000000005">
        <ele>302.426</ele>
        <time>2022-08-23T16:28:54Z</time>
      </trkpt>
      <trkpt lat="43.09724599999998" lon="-1.2954300000000005">
        <ele>302.408</ele>
        <time>2022-08-23T16:28:55Z</time>
      </trkpt>
      <trkpt lat="43.09726499999998" lon="-1.2953750000000006">
        <ele>302.609</ele>
        <time>2022-08-23T16:28:56Z</time>
      </trkpt>
      <trkpt lat="43.097330999999976" lon="-1.2952630000000007">
        <ele>302.853</ele>
        <time>2022-08-23T16:28:58Z</time>
      </trkpt>
      <trkpt lat="43.09736699999998" lon="-1.2952190000000008">
        <ele>302.823</ele>
        <time>2022-08-23T16:28:59Z</time>
      </trkpt>
      <trkpt lat="43.09740099999998" lon="-1.2951730000000008">
        <ele>302.813</ele>
        <time>2022-08-23T16:29:00Z</time>
      </trkpt>
      <trkpt lat="43.09743899999998" lon="-1.2951290000000009">
        <ele>303.269</ele>
        <time>2022-08-23T16:29:01Z</time>
      </trkpt>
      <trkpt lat="43.09746399999998" lon="-1.295104000000001">
        <ele>303.231</ele>
        <time>2022-08-23T16:29:02Z</time>
      </trkpt>
      <trkpt lat="43.09749799999998" lon="-1.295069000000001">
        <ele>303.688</ele>
        <time>2022-08-23T16:29:03Z</time>
      </trkpt>
      <trkpt lat="43.09753899999998" lon="-1.2950320000000008">
        <ele>303.860</ele>
        <time>2022-08-23T16:29:04Z</time>
      </trkpt>
      <trkpt lat="43.097571999999985" lon="-1.294999000000001">
        <ele>304.090</ele>
        <time>2022-08-23T16:29:05Z</time>
      </trkpt>
      <trkpt lat="43.097605999999985" lon="-1.2949670000000009">
        <ele>304.239</ele>
        <time>2022-08-23T16:29:06Z</time>
      </trkpt>
      <trkpt lat="43.09763499999998" lon="-1.294945000000001">
        <ele>304.266</ele>
        <time>2022-08-23T16:29:07Z</time>
      </trkpt>
      <trkpt lat="43.097667999999985" lon="-1.294917000000001">
        <ele>304.429</ele>
        <time>2022-08-23T16:29:08Z</time>
      </trkpt>
      <trkpt lat="43.09773599999998" lon="-1.294854000000001">
        <ele>305.021</ele>
        <time>2022-08-23T16:29:10Z</time>
      </trkpt>
      <trkpt lat="43.09776799999998" lon="-1.294825000000001">
        <ele>305.209</ele>
        <time>2022-08-23T16:29:11Z</time>
      </trkpt>
      <trkpt lat="43.09782599999998" lon="-1.294785000000001">
        <ele>305.427</ele>
        <time>2022-08-23T16:29:13Z</time>
      </trkpt>
      <trkpt lat="43.09792799999998" lon="-1.294722000000001">
        <ele>306.247</ele>
        <time>2022-08-23T16:29:16Z</time>
      </trkpt>
      <trkpt lat="43.097960999999984" lon="-1.294705000000001">
        <ele>306.667</ele>
        <time>2022-08-23T16:29:17Z</time>
      </trkpt>
      <trkpt lat="43.09799599999998" lon="-1.294690000000001">
        <ele>306.883</ele>
        <time>2022-08-23T16:29:18Z</time>
      </trkpt>
      <trkpt lat="43.09802799999998" lon="-1.294674000000001">
        <ele>307.015</ele>
        <time>2022-08-23T16:29:19Z</time>
      </trkpt>
      <trkpt lat="43.098062999999975" lon="-1.294650000000001">
        <ele>307.012</ele>
        <time>2022-08-23T16:29:20Z</time>
      </trkpt>
      <trkpt lat="43.09809199999997" lon="-1.294634000000001">
        <ele>307.264</ele>
        <time>2022-08-23T16:29:21Z</time>
      </trkpt>
      <trkpt lat="43.09811799999997" lon="-1.2946190000000009">
        <ele>307.254</ele>
        <time>2022-08-23T16:29:22Z</time>
      </trkpt>
      <trkpt lat="43.098144999999974" lon="-1.294602000000001">
        <ele>307.483</ele>
        <time>2022-08-23T16:29:23Z</time>
      </trkpt>
      <trkpt lat="43.09817699999997" lon="-1.294585000000001">
        <ele>307.649</ele>
        <time>2022-08-23T16:29:24Z</time>
      </trkpt>
      <trkpt lat="43.09821699999997" lon="-1.294567000000001">
        <ele>307.802</ele>
        <time>2022-08-23T16:29:25Z</time>
      </trkpt>
      <trkpt lat="43.09825199999997" lon="-1.2945440000000008">
        <ele>308.222</ele>
        <time>2022-08-23T16:29:26Z</time>
      </trkpt>
      <trkpt lat="43.09827999999997" lon="-1.2945230000000008">
        <ele>308.409</ele>
        <time>2022-08-23T16:29:27Z</time>
      </trkpt>
      <trkpt lat="43.09831599999997" lon="-1.2944870000000008">
        <ele>308.635</ele>
        <time>2022-08-23T16:29:28Z</time>
      </trkpt>
      <trkpt lat="43.09834699999997" lon="-1.294456000000001">
        <ele>308.885</ele>
        <time>2022-08-23T16:29:29Z</time>
      </trkpt>
      <trkpt lat="43.098375999999966" lon="-1.294425000000001">
        <ele>308.875</ele>
        <time>2022-08-23T16:29:30Z</time>
      </trkpt>
      <trkpt lat="43.09840299999997" lon="-1.294391000000001">
        <ele>309.221</ele>
        <time>2022-08-23T16:29:31Z</time>
      </trkpt>
      <trkpt lat="43.09842599999997" lon="-1.294360000000001">
        <ele>309.243</ele>
        <time>2022-08-23T16:29:32Z</time>
      </trkpt>
      <trkpt lat="43.09845399999997" lon="-1.294326000000001">
        <ele>309.470</ele>
        <time>2022-08-23T16:29:33Z</time>
      </trkpt>
      <trkpt lat="43.09848099999997" lon="-1.294285000000001">
        <ele>309.432</ele>
        <time>2022-08-23T16:29:34Z</time>
      </trkpt>
      <trkpt lat="43.09851299999997" lon="-1.294239000000001">
        <ele>309.632</ele>
        <time>2022-08-23T16:29:35Z</time>
      </trkpt>
      <trkpt lat="43.09854699999997" lon="-1.294201000000001">
        <ele>310.051</ele>
        <time>2022-08-23T16:29:36Z</time>
      </trkpt>
      <trkpt lat="43.09858099999997" lon="-1.2941700000000012">
        <ele>310.268</ele>
        <time>2022-08-23T16:29:37Z</time>
      </trkpt>
      <trkpt lat="43.098612999999965" lon="-1.2941430000000012">
        <ele>310.442</ele>
        <time>2022-08-23T16:29:38Z</time>
      </trkpt>
      <trkpt lat="43.098648999999966" lon="-1.2941100000000012">
        <ele>310.626</ele>
        <time>2022-08-23T16:29:39Z</time>
      </trkpt>
      <trkpt lat="43.098679999999966" lon="-1.2940780000000012">
        <ele>310.809</ele>
        <time>2022-08-23T16:29:40Z</time>
      </trkpt>
      <trkpt lat="43.09870999999997" lon="-1.2940430000000012">
        <ele>311.077</ele>
        <time>2022-08-23T16:29:41Z</time>
      </trkpt>
      <trkpt lat="43.09874399999997" lon="-1.2940070000000012">
        <ele>311.077</ele>
        <time>2022-08-23T16:29:42Z</time>
      </trkpt>
      <trkpt lat="43.098772999999966" lon="-1.2939720000000012">
        <ele>311.287</ele>
        <time>2022-08-23T16:29:43Z</time>
      </trkpt>
      <trkpt lat="43.09879699999997" lon="-1.2939380000000011">
        <ele>311.233</ele>
        <time>2022-08-23T16:29:44Z</time>
      </trkpt>
      <trkpt lat="43.09883299999997" lon="-1.2938890000000012">
        <ele>311.675</ele>
        <time>2022-08-23T16:29:45Z</time>
      </trkpt>
      <trkpt lat="43.09886199999997" lon="-1.2938480000000012">
        <ele>311.852</ele>
        <time>2022-08-23T16:29:46Z</time>
      </trkpt>
      <trkpt lat="43.09889299999997" lon="-1.2938080000000012">
        <ele>311.874</ele>
        <time>2022-08-23T16:29:47Z</time>
      </trkpt>
      <trkpt lat="43.09892299999997" lon="-1.2937680000000011">
        <ele>312.014</ele>
        <time>2022-08-23T16:29:48Z</time>
      </trkpt>
      <trkpt lat="43.09894799999997" lon="-1.2937440000000011">
        <ele>312.083</ele>
        <time>2022-08-23T16:29:49Z</time>
      </trkpt>
      <trkpt lat="43.098980999999974" lon="-1.293710000000001">
        <ele>312.239</ele>
        <time>2022-08-23T16:29:50Z</time>
      </trkpt>
      <trkpt lat="43.099016999999975" lon="-1.293660000000001">
        <ele>312.401</ele>
        <time>2022-08-23T16:29:51Z</time>
      </trkpt>
      <trkpt lat="43.099050999999974" lon="-1.2936180000000008">
        <ele>312.621</ele>
        <time>2022-08-23T16:29:52Z</time>
      </trkpt>
      <trkpt lat="43.09907799999998" lon="-1.2935880000000008">
        <ele>312.809</ele>
        <time>2022-08-23T16:29:53Z</time>
      </trkpt>
      <trkpt lat="43.09911399999998" lon="-1.2935460000000008">
        <ele>312.844</ele>
        <time>2022-08-23T16:29:54Z</time>
      </trkpt>
      <trkpt lat="43.09914999999998" lon="-1.2935040000000007">
        <ele>313.064</ele>
        <time>2022-08-23T16:29:55Z</time>
      </trkpt>
      <trkpt lat="43.09918899999998" lon="-1.2934640000000006">
        <ele>313.064</ele>
        <time>2022-08-23T16:29:56Z</time>
      </trkpt>
      <trkpt lat="43.09923199999998" lon="-1.2934180000000006">
        <ele>313.260</ele>
        <time>2022-08-23T16:29:57Z</time>
      </trkpt>
      <trkpt lat="43.09927199999998" lon="-1.2933830000000006">
        <ele>313.292</ele>
        <time>2022-08-23T16:29:58Z</time>
      </trkpt>
      <trkpt lat="43.099317999999975" lon="-1.2933530000000006">
        <ele>313.229</ele>
        <time>2022-08-23T16:29:59Z</time>
      </trkpt>
      <trkpt lat="43.099356999999976" lon="-1.2933300000000005">
        <ele>313.221</ele>
        <time>2022-08-23T16:30:00Z</time>
      </trkpt>
      <trkpt lat="43.09940599999997" lon="-1.2933030000000005">
        <ele>313.241</ele>
        <time>2022-08-23T16:30:01Z</time>
      </trkpt>
      <trkpt lat="43.09945399999997" lon="-1.2932820000000005">
        <ele>313.280</ele>
        <time>2022-08-23T16:30:02Z</time>
      </trkpt>
      <trkpt lat="43.09950599999997" lon="-1.2932650000000006">
        <ele>313.259</ele>
        <time>2022-08-23T16:30:03Z</time>
      </trkpt>
      <trkpt lat="43.09956699999997" lon="-1.2932490000000005">
        <ele>313.203</ele>
        <time>2022-08-23T16:30:04Z</time>
      </trkpt>
      <trkpt lat="43.09960899999997" lon="-1.2932430000000006">
        <ele>313.223</ele>
        <time>2022-08-23T16:30:05Z</time>
      </trkpt>
      <trkpt lat="43.09966499999997" lon="-1.2932450000000006">
        <ele>313.209</ele>
        <time>2022-08-23T16:30:06Z</time>
      </trkpt>
      <trkpt lat="43.099737999999974" lon="-1.2932530000000007">
        <ele>313.276</ele>
        <time>2022-08-23T16:30:07Z</time>
      </trkpt>
      <trkpt lat="43.09979999999997" lon="-1.2932630000000007">
        <ele>313.286</ele>
        <time>2022-08-23T16:30:08Z</time>
      </trkpt>
      <trkpt lat="43.099863999999975" lon="-1.2932720000000006">
        <ele>313.086</ele>
        <time>2022-08-23T16:30:09Z</time>
      </trkpt>
      <trkpt lat="43.09991599999997" lon="-1.2932740000000007">
        <ele>313.052</ele>
        <time>2022-08-23T16:30:10Z</time>
      </trkpt>
      <trkpt lat="43.10004299999997" lon="-1.2932890000000008">
        <ele>312.844</ele>
        <time>2022-08-23T16:30:12Z</time>
      </trkpt>
      <trkpt lat="43.10011699999997" lon="-1.2932930000000007">
        <ele>312.861</ele>
        <time>2022-08-23T16:30:13Z</time>
      </trkpt>
      <trkpt lat="43.100517999999965" lon="-1.2933180000000006">
        <ele>312.023</ele>
        <time>2022-08-23T16:30:19Z</time>
      </trkpt>
      <trkpt lat="43.100655999999965" lon="-1.2932440000000007">
        <ele>312.033</ele>
        <time>2022-08-23T16:30:21Z</time>
      </trkpt>
      <trkpt lat="43.100714999999965" lon="-1.2931860000000008">
        <ele>311.812</ele>
        <time>2022-08-23T16:30:22Z</time>
      </trkpt>
      <trkpt lat="43.100771999999964" lon="-1.2931180000000009">
        <ele>311.669</ele>
        <time>2022-08-23T16:30:23Z</time>
      </trkpt>
      <trkpt lat="43.100824999999965" lon="-1.293047000000001">
        <ele>311.404</ele>
        <time>2022-08-23T16:30:24Z</time>
      </trkpt>
      <trkpt lat="43.100880999999966" lon="-1.292968000000001">
        <ele>311.024</ele>
        <time>2022-08-23T16:30:25Z</time>
      </trkpt>
      <trkpt lat="43.101004999999965" lon="-1.292799000000001">
        <ele>310.809</ele>
        <time>2022-08-23T16:30:27Z</time>
      </trkpt>
      <trkpt lat="43.101058999999964" lon="-1.2927190000000008">
        <ele>310.427</ele>
        <time>2022-08-23T16:30:28Z</time>
      </trkpt>
      <trkpt lat="43.101153999999966" lon="-1.2925420000000007">
        <ele>309.867</ele>
        <time>2022-08-23T16:30:30Z</time>
      </trkpt>
      <trkpt lat="43.10118599999996" lon="-1.2924400000000007">
        <ele>309.487</ele>
        <time>2022-08-23T16:30:31Z</time>
      </trkpt>
      <trkpt lat="43.101210999999964" lon="-1.2923360000000006">
        <ele>309.273</ele>
        <time>2022-08-23T16:30:32Z</time>
      </trkpt>
      <trkpt lat="43.10122799999996" lon="-1.2922320000000005">
        <ele>308.835</ele>
        <time>2022-08-23T16:30:33Z</time>
      </trkpt>
      <trkpt lat="43.10124299999996" lon="-1.2921270000000005">
        <ele>308.682</ele>
        <time>2022-08-23T16:30:34Z</time>
      </trkpt>
      <trkpt lat="43.10127899999996" lon="-1.2919210000000005">
        <ele>308.284</ele>
        <time>2022-08-23T16:30:36Z</time>
      </trkpt>
      <trkpt lat="43.10137999999996" lon="-1.2912970000000006">
        <ele>307.074</ele>
        <time>2022-08-23T16:30:42Z</time>
      </trkpt>
      <trkpt lat="43.10140099999996" lon="-1.2911950000000005">
        <ele>307.053</ele>
        <time>2022-08-23T16:30:43Z</time>
      </trkpt>
      <trkpt lat="43.10143099999996" lon="-1.2911000000000006">
        <ele>306.694</ele>
        <time>2022-08-23T16:30:44Z</time>
      </trkpt>
      <trkpt lat="43.10151899999996" lon="-1.2909330000000006">
        <ele>306.257</ele>
        <time>2022-08-23T16:30:46Z</time>
      </trkpt>
      <trkpt lat="43.10156599999996" lon="-1.2908770000000005">
        <ele>306.022</ele>
        <time>2022-08-23T16:30:47Z</time>
      </trkpt>
      <trkpt lat="43.101629999999965" lon="-1.2908170000000005">
        <ele>305.809</ele>
        <time>2022-08-23T16:30:48Z</time>
      </trkpt>
      <trkpt lat="43.10170199999997" lon="-1.2907760000000006">
        <ele>305.630</ele>
        <time>2022-08-23T16:30:49Z</time>
      </trkpt>
      <trkpt lat="43.10179399999997" lon="-1.2907460000000006">
        <ele>305.440</ele>
        <time>2022-08-23T16:30:50Z</time>
      </trkpt>
      <trkpt lat="43.10187499999997" lon="-1.2907370000000007">
        <ele>305.280</ele>
        <time>2022-08-23T16:30:51Z</time>
      </trkpt>
      <trkpt lat="43.10195699999997" lon="-1.2907320000000007">
        <ele>305.236</ele>
        <time>2022-08-23T16:30:52Z</time>
      </trkpt>
      <trkpt lat="43.10201999999997" lon="-1.2907280000000008">
        <ele>305.038</ele>
        <time>2022-08-23T16:30:53Z</time>
      </trkpt>
      <trkpt lat="43.10209799999997" lon="-1.2907250000000008">
        <ele>304.835</ele>
        <time>2022-08-23T16:30:54Z</time>
      </trkpt>
      <trkpt lat="43.10219099999997" lon="-1.2907190000000008">
        <ele>304.877</ele>
        <time>2022-08-23T16:30:55Z</time>
      </trkpt>
      <trkpt lat="43.10234299999997" lon="-1.290710000000001">
        <ele>304.467</ele>
        <time>2022-08-23T16:30:57Z</time>
      </trkpt>
      <trkpt lat="43.10240299999997" lon="-1.2907050000000009">
        <ele>304.246</ele>
        <time>2022-08-23T16:30:58Z</time>
      </trkpt>
      <trkpt lat="43.10247599999997" lon="-1.290699000000001">
        <ele>303.886</ele>
        <time>2022-08-23T16:30:59Z</time>
      </trkpt>
      <trkpt lat="43.10256299999997" lon="-1.290693000000001">
        <ele>303.860</ele>
        <time>2022-08-23T16:31:00Z</time>
      </trkpt>
      <trkpt lat="43.10262199999997" lon="-1.290689000000001">
        <ele>303.626</ele>
        <time>2022-08-23T16:31:01Z</time>
      </trkpt>
      <trkpt lat="43.10276899999997" lon="-1.290682000000001">
        <ele>303.409</ele>
        <time>2022-08-23T16:31:03Z</time>
      </trkpt>
      <trkpt lat="43.10285599999997" lon="-1.290681000000001">
        <ele>303.439</ele>
        <time>2022-08-23T16:31:04Z</time>
      </trkpt>
      <trkpt lat="43.102997999999964" lon="-1.2906770000000012">
        <ele>303.439</ele>
        <time>2022-08-23T16:31:06Z</time>
      </trkpt>
      <trkpt lat="43.103067999999965" lon="-1.2906670000000011">
        <ele>303.439</ele>
        <time>2022-08-23T16:31:07Z</time>
      </trkpt>
      <trkpt lat="43.103134999999966" lon="-1.290649000000001">
        <ele>303.445</ele>
        <time>2022-08-23T16:31:08Z</time>
      </trkpt>
      <trkpt lat="43.103199999999966" lon="-1.290622000000001">
        <ele>303.447</ele>
        <time>2022-08-23T16:31:09Z</time>
      </trkpt>
      <trkpt lat="43.10324999999997" lon="-1.290597000000001">
        <ele>303.414</ele>
        <time>2022-08-23T16:31:10Z</time>
      </trkpt>
      <trkpt lat="43.10332199999997" lon="-1.2905510000000011">
        <ele>303.476</ele>
        <time>2022-08-23T16:31:11Z</time>
      </trkpt>
      <trkpt lat="43.10356099999997" lon="-1.2903890000000011">
        <ele>303.686</ele>
        <time>2022-08-23T16:31:15Z</time>
      </trkpt>
      <trkpt lat="43.10361799999997" lon="-1.290346000000001">
        <ele>303.625</ele>
        <time>2022-08-23T16:31:16Z</time>
      </trkpt>
      <trkpt lat="43.10367199999997" lon="-1.290303000000001">
        <ele>303.658</ele>
        <time>2022-08-23T16:31:17Z</time>
      </trkpt>
      <trkpt lat="43.10372199999997" lon="-1.290253000000001">
        <ele>303.452</ele>
        <time>2022-08-23T16:31:18Z</time>
      </trkpt>
      <trkpt lat="43.103815999999966" lon="-1.290142000000001">
        <ele>303.217</ele>
        <time>2022-08-23T16:31:20Z</time>
      </trkpt>
      <trkpt lat="43.10389999999997" lon="-1.290046000000001">
        <ele>303.209</ele>
        <time>2022-08-23T16:31:22Z</time>
      </trkpt>
      <trkpt lat="43.10394499999997" lon="-1.2899900000000009">
        <ele>303.266</ele>
        <time>2022-08-23T16:31:23Z</time>
      </trkpt>
      <trkpt lat="43.10398699999997" lon="-1.2899330000000009">
        <ele>303.266</ele>
        <time>2022-08-23T16:31:24Z</time>
      </trkpt>
      <trkpt lat="43.10403499999997" lon="-1.289865000000001">
        <ele>303.256</ele>
        <time>2022-08-23T16:31:25Z</time>
      </trkpt>
      <trkpt lat="43.10414699999997" lon="-1.2897040000000008">
        <ele>303.272</ele>
        <time>2022-08-23T16:31:28Z</time>
      </trkpt>
      <trkpt lat="43.10425899999997" lon="-1.2895110000000007">
        <ele>303.224</ele>
        <time>2022-08-23T16:31:31Z</time>
      </trkpt>
      <trkpt lat="43.10432199999997" lon="-1.2893690000000007">
        <ele>303.281</ele>
        <time>2022-08-23T16:31:33Z</time>
      </trkpt>
      <trkpt lat="43.10438899999997" lon="-1.2892240000000006">
        <ele>303.273</ele>
        <time>2022-08-23T16:31:35Z</time>
      </trkpt>
      <trkpt lat="43.10452499999997" lon="-1.2889030000000006">
        <ele>303.063</ele>
        <time>2022-08-23T16:31:39Z</time>
      </trkpt>
      <trkpt lat="43.10464599999997" lon="-1.2885930000000005">
        <ele>302.872</ele>
        <time>2022-08-23T16:31:43Z</time>
      </trkpt>
      <trkpt lat="43.104702999999965" lon="-1.2884250000000006">
        <ele>302.859</ele>
        <time>2022-08-23T16:31:45Z</time>
      </trkpt>
      <trkpt lat="43.10473799999996" lon="-1.2883410000000006">
        <ele>302.803</ele>
        <time>2022-08-23T16:31:46Z</time>
      </trkpt>
      <trkpt lat="43.10480099999996" lon="-1.2881700000000007">
        <ele>302.623</ele>
        <time>2022-08-23T16:31:48Z</time>
      </trkpt>
      <trkpt lat="43.10482799999996" lon="-1.2880910000000008">
        <ele>302.609</ele>
        <time>2022-08-23T16:31:49Z</time>
      </trkpt>
      <trkpt lat="43.104854999999965" lon="-1.2880120000000008">
        <ele>302.626</ele>
        <time>2022-08-23T16:31:50Z</time>
      </trkpt>
      <trkpt lat="43.10488399999996" lon="-1.2879320000000007">
        <ele>302.626</ele>
        <time>2022-08-23T16:31:51Z</time>
      </trkpt>
      <trkpt lat="43.10491199999996" lon="-1.2878530000000008">
        <ele>302.446</ele>
        <time>2022-08-23T16:31:52Z</time>
      </trkpt>
      <trkpt lat="43.10497799999996" lon="-1.2876970000000008">
        <ele>302.422</ele>
        <time>2022-08-23T16:31:54Z</time>
      </trkpt>
      <trkpt lat="43.10524399999996" lon="-1.2871090000000007">
        <ele>301.684</ele>
        <time>2022-08-23T16:32:01Z</time>
      </trkpt>
      <trkpt lat="43.105290999999966" lon="-1.2870150000000007">
        <ele>301.411</ele>
        <time>2022-08-23T16:32:02Z</time>
      </trkpt>
      <trkpt lat="43.105470999999966" lon="-1.2867400000000007">
        <ele>300.633</ele>
        <time>2022-08-23T16:32:05Z</time>
      </trkpt>
      <trkpt lat="43.10553799999997" lon="-1.2866460000000006">
        <ele>300.233</ele>
        <time>2022-08-23T16:32:06Z</time>
      </trkpt>
      <trkpt lat="43.10568399999997" lon="-1.2864670000000007">
        <ele>299.062</ele>
        <time>2022-08-23T16:32:08Z</time>
      </trkpt>
      <trkpt lat="43.10583799999997" lon="-1.2862890000000007">
        <ele>297.861</ele>
        <time>2022-08-23T16:32:10Z</time>
      </trkpt>
      <trkpt lat="43.10598999999997" lon="-1.2861260000000008">
        <ele>296.421</ele>
        <time>2022-08-23T16:32:12Z</time>
      </trkpt>
      <trkpt lat="43.10617099999997" lon="-1.2860100000000008">
        <ele>295.413</ele>
        <time>2022-08-23T16:32:14Z</time>
      </trkpt>
      <trkpt lat="43.106267999999965" lon="-1.2859610000000008">
        <ele>295.009</ele>
        <time>2022-08-23T16:32:15Z</time>
      </trkpt>
      <trkpt lat="43.106467999999964" lon="-1.2858770000000008">
        <ele>294.057</ele>
        <time>2022-08-23T16:32:17Z</time>
      </trkpt>
      <trkpt lat="43.106667999999964" lon="-1.2857850000000008">
        <ele>292.287</ele>
        <time>2022-08-23T16:32:19Z</time>
      </trkpt>
      <trkpt lat="43.10676499999996" lon="-1.2857260000000008">
        <ele>291.887</ele>
        <time>2022-08-23T16:32:20Z</time>
      </trkpt>
      <trkpt lat="43.10685899999996" lon="-1.2856500000000008">
        <ele>291.023</ele>
        <time>2022-08-23T16:32:21Z</time>
      </trkpt>
      <trkpt lat="43.10703599999996" lon="-1.2854730000000008">
        <ele>289.685</ele>
        <time>2022-08-23T16:32:23Z</time>
      </trkpt>
      <trkpt lat="43.10711399999996" lon="-1.2853740000000007">
        <ele>289.232</ele>
        <time>2022-08-23T16:32:24Z</time>
      </trkpt>
      <trkpt lat="43.10719399999996" lon="-1.2852670000000006">
        <ele>288.414</ele>
        <time>2022-08-23T16:32:25Z</time>
      </trkpt>
      <trkpt lat="43.10742499999996" lon="-1.2849210000000006">
        <ele>286.454</ele>
        <time>2022-08-23T16:32:28Z</time>
      </trkpt>
      <trkpt lat="43.10749999999996" lon="-1.2847980000000006">
        <ele>285.863</ele>
        <time>2022-08-23T16:32:29Z</time>
      </trkpt>
      <trkpt lat="43.10757299999996" lon="-1.2846740000000005">
        <ele>285.296</ele>
        <time>2022-08-23T16:32:30Z</time>
      </trkpt>
      <trkpt lat="43.10772399999996" lon="-1.2844270000000004">
        <ele>283.431</ele>
        <time>2022-08-23T16:32:32Z</time>
      </trkpt>
      <trkpt lat="43.10787699999996" lon="-1.2841870000000004">
        <ele>282.024</ele>
        <time>2022-08-23T16:32:34Z</time>
      </trkpt>
      <trkpt lat="43.10803699999996" lon="-1.2839540000000005">
        <ele>280.609</ele>
        <time>2022-08-23T16:32:36Z</time>
      </trkpt>
      <trkpt lat="43.10811699999996" lon="-1.2838450000000006">
        <ele>279.890</ele>
        <time>2022-08-23T16:32:37Z</time>
      </trkpt>
      <trkpt lat="43.10819499999996" lon="-1.2837470000000006">
        <ele>279.280</ele>
        <time>2022-08-23T16:32:38Z</time>
      </trkpt>
      <trkpt lat="43.10827599999996" lon="-1.2836580000000006">
        <ele>278.060</ele>
        <time>2022-08-23T16:32:39Z</time>
      </trkpt>
      <trkpt lat="43.10835799999996" lon="-1.2835780000000006">
        <ele>276.876</ele>
        <time>2022-08-23T16:32:40Z</time>
      </trkpt>
      <trkpt lat="43.10843999999996" lon="-1.2835050000000006">
        <ele>276.298</ele>
        <time>2022-08-23T16:32:41Z</time>
      </trkpt>
      <trkpt lat="43.10853899999996" lon="-1.2834200000000007">
        <ele>275.225</ele>
        <time>2022-08-23T16:32:42Z</time>
      </trkpt>
      <trkpt lat="43.10869299999996" lon="-1.2832930000000007">
        <ele>273.857</ele>
        <time>2022-08-23T16:32:44Z</time>
      </trkpt>
      <trkpt lat="43.10886299999996" lon="-1.2831500000000007">
        <ele>272.267</ele>
        <time>2022-08-23T16:32:46Z</time>
      </trkpt>
      <trkpt lat="43.108944999999956" lon="-1.2830760000000008">
        <ele>271.246</ele>
        <time>2022-08-23T16:32:47Z</time>
      </trkpt>
      <trkpt lat="43.10902599999996" lon="-1.2829990000000007">
        <ele>270.638</ele>
        <time>2022-08-23T16:32:48Z</time>
      </trkpt>
      <trkpt lat="43.109102999999955" lon="-1.2829210000000006">
        <ele>269.670</ele>
        <time>2022-08-23T16:32:49Z</time>
      </trkpt>
      <trkpt lat="43.10917499999996" lon="-1.2828440000000005">
        <ele>269.217</ele>
        <time>2022-08-23T16:32:50Z</time>
      </trkpt>
      <trkpt lat="43.10923999999996" lon="-1.2827690000000005">
        <ele>268.609</ele>
        <time>2022-08-23T16:32:51Z</time>
      </trkpt>
      <trkpt lat="43.10929899999996" lon="-1.2827030000000006">
        <ele>267.624</ele>
        <time>2022-08-23T16:32:52Z</time>
      </trkpt>
      <trkpt lat="43.10935399999996" lon="-1.2826400000000007">
        <ele>267.244</ele>
        <time>2022-08-23T16:32:53Z</time>
      </trkpt>
      <trkpt lat="43.10939799999996" lon="-1.2825740000000008">
        <ele>266.444</ele>
        <time>2022-08-23T16:32:54Z</time>
      </trkpt>
      <trkpt lat="43.10942099999996" lon="-1.2824980000000008">
        <ele>266.060</ele>
        <time>2022-08-23T16:32:55Z</time>
      </trkpt>
      <trkpt lat="43.10942899999996" lon="-1.2823990000000007">
        <ele>265.422</ele>
        <time>2022-08-23T16:32:56Z</time>
      </trkpt>
      <trkpt lat="43.10942199999997" lon="-1.2823150000000008">
        <ele>264.889</ele>
        <time>2022-08-23T16:32:57Z</time>
      </trkpt>
      <trkpt lat="43.10941499999997" lon="-1.2822310000000008">
        <ele>264.291</ele>
        <time>2022-08-23T16:32:58Z</time>
      </trkpt>
      <trkpt lat="43.10943299999997" lon="-1.282084000000001">
        <ele>263.471</ele>
        <time>2022-08-23T16:33:00Z</time>
      </trkpt>
      <trkpt lat="43.10946599999997" lon="-1.282011000000001">
        <ele>262.830</ele>
        <time>2022-08-23T16:33:01Z</time>
      </trkpt>
      <trkpt lat="43.10951399999997" lon="-1.2819340000000008">
        <ele>262.825</ele>
        <time>2022-08-23T16:33:02Z</time>
      </trkpt>
      <trkpt lat="43.10954999999997" lon="-1.2818840000000007">
        <ele>262.426</ele>
        <time>2022-08-23T16:33:03Z</time>
      </trkpt>
      <trkpt lat="43.10959399999997" lon="-1.2818220000000007">
        <ele>262.408</ele>
        <time>2022-08-23T16:33:04Z</time>
      </trkpt>
      <trkpt lat="43.10963399999997" lon="-1.2817570000000007">
        <ele>262.209</ele>
        <time>2022-08-23T16:33:05Z</time>
      </trkpt>
      <trkpt lat="43.10966699999997" lon="-1.2816860000000008">
        <ele>261.863</ele>
        <time>2022-08-23T16:33:06Z</time>
      </trkpt>
      <trkpt lat="43.10968799999997" lon="-1.2816110000000007">
        <ele>261.873</ele>
        <time>2022-08-23T16:33:07Z</time>
      </trkpt>
      <trkpt lat="43.10969599999997" lon="-1.2815320000000008">
        <ele>261.473</ele>
        <time>2022-08-23T16:33:08Z</time>
      </trkpt>
      <trkpt lat="43.10970299999997" lon="-1.2814570000000007">
        <ele>261.419</ele>
        <time>2022-08-23T16:33:09Z</time>
      </trkpt>
      <trkpt lat="43.10970499999997" lon="-1.2813870000000007">
        <ele>261.281</ele>
        <time>2022-08-23T16:33:10Z</time>
      </trkpt>
      <trkpt lat="43.10970499999997" lon="-1.2813200000000007">
        <ele>261.238</ele>
        <time>2022-08-23T16:33:11Z</time>
      </trkpt>
      <trkpt lat="43.10970199999997" lon="-1.2812580000000007">
        <ele>261.280</ele>
        <time>2022-08-23T16:33:12Z</time>
      </trkpt>
      <trkpt lat="43.10968999999997" lon="-1.2812040000000007">
        <ele>261.010</ele>
        <time>2022-08-23T16:33:13Z</time>
      </trkpt>
      <trkpt lat="43.10967299999997" lon="-1.2811550000000007">
        <ele>261.089</ele>
        <time>2022-08-23T16:33:14Z</time>
      </trkpt>
      <trkpt lat="43.10965299999997" lon="-1.2811070000000007">
        <ele>261.036</ele>
        <time>2022-08-23T16:33:15Z</time>
      </trkpt>
      <trkpt lat="43.109643999999975" lon="-1.2810530000000007">
        <ele>261.017</ele>
        <time>2022-08-23T16:33:16Z</time>
      </trkpt>
      <trkpt lat="43.10965999999998" lon="-1.2809440000000007">
        <ele>260.818</ele>
        <time>2022-08-23T16:33:18Z</time>
      </trkpt>
      <trkpt lat="43.109682999999976" lon="-1.2808990000000007">
        <ele>260.809</ele>
        <time>2022-08-23T16:33:19Z</time>
      </trkpt>
      <trkpt lat="43.10970699999998" lon="-1.2808520000000008">
        <ele>260.894</ele>
        <time>2022-08-23T16:33:20Z</time>
      </trkpt>
      <trkpt lat="43.10973299999998" lon="-1.2808110000000008">
        <ele>260.874</ele>
        <time>2022-08-23T16:33:21Z</time>
      </trkpt>
      <trkpt lat="43.10976099999998" lon="-1.2807740000000007">
        <ele>260.864</ele>
        <time>2022-08-23T16:33:22Z</time>
      </trkpt>
      <trkpt lat="43.10985699999998" lon="-1.2806500000000007">
        <ele>260.850</ele>
        <time>2022-08-23T16:33:25Z</time>
      </trkpt>
      <trkpt lat="43.11002799999998" lon="-1.2804390000000008">
        <ele>260.832</ele>
        <time>2022-08-23T16:33:29Z</time>
      </trkpt>
      <trkpt lat="43.11006699999998" lon="-1.2803840000000009">
        <ele>260.819</ele>
        <time>2022-08-23T16:33:30Z</time>
      </trkpt>
      <trkpt lat="43.11009799999998" lon="-1.2803280000000008">
        <ele>260.831</ele>
        <time>2022-08-23T16:33:31Z</time>
      </trkpt>
      <trkpt lat="43.11012999999998" lon="-1.2802660000000008">
        <ele>260.821</ele>
        <time>2022-08-23T16:33:32Z</time>
      </trkpt>
      <trkpt lat="43.110161999999974" lon="-1.2801990000000008">
        <ele>260.650</ele>
        <time>2022-08-23T16:33:33Z</time>
      </trkpt>
      <trkpt lat="43.11024499999997" lon="-1.2799810000000007">
        <ele>260.064</ele>
        <time>2022-08-23T16:33:36Z</time>
      </trkpt>
      <trkpt lat="43.11030599999997" lon="-1.2798280000000006">
        <ele>259.606</ele>
        <time>2022-08-23T16:33:38Z</time>
      </trkpt>
      <trkpt lat="43.11038299999997" lon="-1.2796750000000006">
        <ele>259.416</ele>
        <time>2022-08-23T16:33:40Z</time>
      </trkpt>
      <trkpt lat="43.11047899999997" lon="-1.2795370000000006">
        <ele>259.209</ele>
        <time>2022-08-23T16:33:42Z</time>
      </trkpt>
      <trkpt lat="43.11058499999997" lon="-1.2793820000000007">
        <ele>259.067</ele>
        <time>2022-08-23T16:33:44Z</time>
      </trkpt>
      <trkpt lat="43.110653999999975" lon="-1.2792210000000006">
        <ele>258.267</ele>
        <time>2022-08-23T16:33:46Z</time>
      </trkpt>
      <trkpt lat="43.110715999999975" lon="-1.2790150000000007">
        <ele>257.027</ele>
        <time>2022-08-23T16:33:48Z</time>
      </trkpt>
      <trkpt lat="43.11077999999998" lon="-1.2788120000000007">
        <ele>256.223</ele>
        <time>2022-08-23T16:33:50Z</time>
      </trkpt>
      <trkpt lat="43.11081799999998" lon="-1.2787160000000006">
        <ele>256.045</ele>
        <time>2022-08-23T16:33:51Z</time>
      </trkpt>
      <trkpt lat="43.11085699999998" lon="-1.2786310000000007">
        <ele>255.652</ele>
        <time>2022-08-23T16:33:52Z</time>
      </trkpt>
      <trkpt lat="43.11090799999998" lon="-1.2785550000000008">
        <ele>255.434</ele>
        <time>2022-08-23T16:33:53Z</time>
      </trkpt>
      <trkpt lat="43.11096199999998" lon="-1.2784940000000007">
        <ele>255.224</ele>
        <time>2022-08-23T16:33:54Z</time>
      </trkpt>
      <trkpt lat="43.11101499999998" lon="-1.2784480000000007">
        <ele>255.253</ele>
        <time>2022-08-23T16:33:55Z</time>
      </trkpt>
      <trkpt lat="43.11107299999998" lon="-1.2784080000000007">
        <ele>255.225</ele>
        <time>2022-08-23T16:33:56Z</time>
      </trkpt>
      <trkpt lat="43.11113299999998" lon="-1.2783750000000007">
        <ele>255.226</ele>
        <time>2022-08-23T16:33:57Z</time>
      </trkpt>
      <trkpt lat="43.11119399999998" lon="-1.2783410000000006">
        <ele>255.008</ele>
        <time>2022-08-23T16:33:58Z</time>
      </trkpt>
      <trkpt lat="43.111254999999986" lon="-1.2783110000000006">
        <ele>255.209</ele>
        <time>2022-08-23T16:33:59Z</time>
      </trkpt>
      <trkpt lat="43.111361999999986" lon="-1.2782190000000007">
        <ele>255.273</ele>
        <time>2022-08-23T16:34:01Z</time>
      </trkpt>
      <trkpt lat="43.11141399999998" lon="-1.2781700000000007">
        <ele>255.223</ele>
        <time>2022-08-23T16:34:02Z</time>
      </trkpt>
      <trkpt lat="43.111460999999984" lon="-1.2781180000000008">
        <ele>255.223</ele>
        <time>2022-08-23T16:34:03Z</time>
      </trkpt>
      <trkpt lat="43.111508999999984" lon="-1.2780670000000007">
        <ele>255.489</ele>
        <time>2022-08-23T16:34:04Z</time>
      </trkpt>
      <trkpt lat="43.111553999999984" lon="-1.2780160000000007">
        <ele>255.421</ele>
        <time>2022-08-23T16:34:05Z</time>
      </trkpt>
      <trkpt lat="43.111595999999984" lon="-1.2779630000000006">
        <ele>255.428</ele>
        <time>2022-08-23T16:34:06Z</time>
      </trkpt>
      <trkpt lat="43.11163599999998" lon="-1.2779080000000007">
        <ele>255.620</ele>
        <time>2022-08-23T16:34:07Z</time>
      </trkpt>
      <trkpt lat="43.111719999999984" lon="-1.2777970000000007">
        <ele>255.650</ele>
        <time>2022-08-23T16:34:09Z</time>
      </trkpt>
      <trkpt lat="43.11175999999998" lon="-1.2777410000000007">
        <ele>255.829</ele>
        <time>2022-08-23T16:34:10Z</time>
      </trkpt>
      <trkpt lat="43.11179999999998" lon="-1.2776900000000007">
        <ele>256.037</ele>
        <time>2022-08-23T16:34:11Z</time>
      </trkpt>
      <trkpt lat="43.111837999999985" lon="-1.2776390000000006">
        <ele>256.049</ele>
        <time>2022-08-23T16:34:12Z</time>
      </trkpt>
      <trkpt lat="43.111876999999986" lon="-1.2775870000000007">
        <ele>256.213</ele>
        <time>2022-08-23T16:34:13Z</time>
      </trkpt>
      <trkpt lat="43.11191799999999" lon="-1.2775390000000006">
        <ele>256.409</ele>
        <time>2022-08-23T16:34:14Z</time>
      </trkpt>
      <trkpt lat="43.11195799999999" lon="-1.2774930000000007">
        <ele>256.664</ele>
        <time>2022-08-23T16:34:15Z</time>
      </trkpt>
      <trkpt lat="43.11199699999999" lon="-1.2774500000000006">
        <ele>256.694</ele>
        <time>2022-08-23T16:34:16Z</time>
      </trkpt>
      <trkpt lat="43.11203499999999" lon="-1.2774070000000006">
        <ele>256.854</ele>
        <time>2022-08-23T16:34:17Z</time>
      </trkpt>
      <trkpt lat="43.112072999999995" lon="-1.2773640000000006">
        <ele>256.860</ele>
        <time>2022-08-23T16:34:18Z</time>
      </trkpt>
      <trkpt lat="43.11210799999999" lon="-1.2773180000000006">
        <ele>256.842</ele>
        <time>2022-08-23T16:34:19Z</time>
      </trkpt>
      <trkpt lat="43.11214799999999" lon="-1.2772760000000005">
        <ele>257.269</ele>
        <time>2022-08-23T16:34:20Z</time>
      </trkpt>
      <trkpt lat="43.11223599999999" lon="-1.2771970000000006">
        <ele>257.451</ele>
        <time>2022-08-23T16:34:22Z</time>
      </trkpt>
      <trkpt lat="43.11252099999999" lon="-1.2769300000000006">
        <ele>257.431</ele>
        <time>2022-08-23T16:34:28Z</time>
      </trkpt>
      <trkpt lat="43.11257299999998" lon="-1.2768700000000006">
        <ele>257.270</ele>
        <time>2022-08-23T16:34:29Z</time>
      </trkpt>
      <trkpt lat="43.11261099999999" lon="-1.2768100000000007">
        <ele>257.227</ele>
        <time>2022-08-23T16:34:30Z</time>
      </trkpt>
      <trkpt lat="43.11264899999999" lon="-1.2767480000000007">
        <ele>257.068</ele>
        <time>2022-08-23T16:34:31Z</time>
      </trkpt>
      <trkpt lat="43.11268599999999" lon="-1.2766900000000008">
        <ele>256.814</ele>
        <time>2022-08-23T16:34:32Z</time>
      </trkpt>
      <trkpt lat="43.11278499999999" lon="-1.2764970000000007">
        <ele>256.609</ele>
        <time>2022-08-23T16:34:35Z</time>
      </trkpt>
      <trkpt lat="43.11281599999999" lon="-1.2764300000000006">
        <ele>256.693</ele>
        <time>2022-08-23T16:34:36Z</time>
      </trkpt>
      <trkpt lat="43.11286699999999" lon="-1.2762910000000007">
        <ele>256.853</ele>
        <time>2022-08-23T16:34:38Z</time>
      </trkpt>
      <trkpt lat="43.112887999999984" lon="-1.2762180000000007">
        <ele>256.823</ele>
        <time>2022-08-23T16:34:39Z</time>
      </trkpt>
      <trkpt lat="43.112903999999986" lon="-1.2761450000000008">
        <ele>256.849</ele>
        <time>2022-08-23T16:34:40Z</time>
      </trkpt>
      <trkpt lat="43.11291499999999" lon="-1.2760690000000008">
        <ele>257.041</ele>
        <time>2022-08-23T16:34:41Z</time>
      </trkpt>
      <trkpt lat="43.11293899999999" lon="-1.2758480000000008">
        <ele>257.418</ele>
        <time>2022-08-23T16:34:44Z</time>
      </trkpt>
      <trkpt lat="43.11294399999999" lon="-1.2757760000000007">
        <ele>257.470</ele>
        <time>2022-08-23T16:34:45Z</time>
      </trkpt>
      <trkpt lat="43.11294999999999" lon="-1.2757040000000006">
        <ele>257.430</ele>
        <time>2022-08-23T16:34:46Z</time>
      </trkpt>
      <trkpt lat="43.11295499999999" lon="-1.2756350000000005">
        <ele>257.619</ele>
        <time>2022-08-23T16:34:47Z</time>
      </trkpt>
      <trkpt lat="43.11296299999999" lon="-1.2755690000000006">
        <ele>257.633</ele>
        <time>2022-08-23T16:34:48Z</time>
      </trkpt>
      <trkpt lat="43.11296999999999" lon="-1.2755050000000006">
        <ele>257.823</ele>
        <time>2022-08-23T16:34:49Z</time>
      </trkpt>
      <trkpt lat="43.11297399999999" lon="-1.2754430000000005">
        <ele>258.015</ele>
        <time>2022-08-23T16:34:50Z</time>
      </trkpt>
      <trkpt lat="43.112977999999984" lon="-1.2753800000000006">
        <ele>258.009</ele>
        <time>2022-08-23T16:34:51Z</time>
      </trkpt>
      <trkpt lat="43.112996999999986" lon="-1.2752550000000007">
        <ele>258.434</ele>
        <time>2022-08-23T16:34:53Z</time>
      </trkpt>
      <trkpt lat="43.11302899999998" lon="-1.2750600000000007">
        <ele>259.464</ele>
        <time>2022-08-23T16:34:56Z</time>
      </trkpt>
      <trkpt lat="43.11307399999998" lon="-1.2748580000000007">
        <ele>259.444</ele>
        <time>2022-08-23T16:34:59Z</time>
      </trkpt>
      <trkpt lat="43.113089999999985" lon="-1.2747920000000008">
        <ele>259.650</ele>
        <time>2022-08-23T16:35:00Z</time>
      </trkpt>
      <trkpt lat="43.11310599999999" lon="-1.2747280000000007">
        <ele>259.672</ele>
        <time>2022-08-23T16:35:01Z</time>
      </trkpt>
      <trkpt lat="43.113120999999985" lon="-1.2746650000000008">
        <ele>259.639</ele>
        <time>2022-08-23T16:35:02Z</time>
      </trkpt>
      <trkpt lat="43.11313699999999" lon="-1.2746030000000008">
        <ele>259.891</ele>
        <time>2022-08-23T16:35:03Z</time>
      </trkpt>
      <trkpt lat="43.11315899999999" lon="-1.2745430000000009">
        <ele>259.831</ele>
        <time>2022-08-23T16:35:04Z</time>
      </trkpt>
      <trkpt lat="43.11318899999999" lon="-1.2744630000000008">
        <ele>260.080</ele>
        <time>2022-08-23T16:35:05Z</time>
      </trkpt>
      <trkpt lat="43.11320899999999" lon="-1.2744100000000007">
        <ele>260.271</ele>
        <time>2022-08-23T16:35:06Z</time>
      </trkpt>
      <trkpt lat="43.11323599999999" lon="-1.2743430000000007">
        <ele>260.441</ele>
        <time>2022-08-23T16:35:07Z</time>
      </trkpt>
      <trkpt lat="43.113262999999996" lon="-1.2742740000000006">
        <ele>260.615</ele>
        <time>2022-08-23T16:35:08Z</time>
      </trkpt>
      <trkpt lat="43.113293999999996" lon="-1.2742030000000006">
        <ele>260.609</ele>
        <time>2022-08-23T16:35:09Z</time>
      </trkpt>
      <trkpt lat="43.113333999999995" lon="-1.2741130000000007">
        <ele>260.688</ele>
        <time>2022-08-23T16:35:10Z</time>
      </trkpt>
      <trkpt lat="43.113361999999995" lon="-1.2740510000000007">
        <ele>260.688</ele>
        <time>2022-08-23T16:35:11Z</time>
      </trkpt>
      <trkpt lat="43.11339699999999" lon="-1.2739730000000007">
        <ele>260.698</ele>
        <time>2022-08-23T16:35:12Z</time>
      </trkpt>
      <trkpt lat="43.11343999999999" lon="-1.2738930000000006">
        <ele>260.674</ele>
        <time>2022-08-23T16:35:13Z</time>
      </trkpt>
      <trkpt lat="43.11350599999999" lon="-1.2738010000000006">
        <ele>260.666</ele>
        <time>2022-08-23T16:35:14Z</time>
      </trkpt>
      <trkpt lat="43.11356999999999" lon="-1.2737340000000006">
        <ele>260.283</ele>
        <time>2022-08-23T16:35:15Z</time>
      </trkpt>
      <trkpt lat="43.11362699999999" lon="-1.2736840000000005">
        <ele>260.065</ele>
        <time>2022-08-23T16:35:16Z</time>
      </trkpt>
      <trkpt lat="43.113697999999985" lon="-1.2736270000000005">
        <ele>259.625</ele>
        <time>2022-08-23T16:35:17Z</time>
      </trkpt>
      <trkpt lat="43.11377299999999" lon="-1.2735760000000005">
        <ele>259.274</ele>
        <time>2022-08-23T16:35:18Z</time>
      </trkpt>
      <trkpt lat="43.11387399999999" lon="-1.2735070000000004">
        <ele>258.664</ele>
        <time>2022-08-23T16:35:19Z</time>
      </trkpt>
      <trkpt lat="43.11394599999999" lon="-1.2734630000000005">
        <ele>258.406</ele>
        <time>2022-08-23T16:35:20Z</time>
      </trkpt>
      <trkpt lat="43.11412099999999" lon="-1.2733170000000005">
        <ele>257.416</ele>
        <time>2022-08-23T16:35:22Z</time>
      </trkpt>
      <trkpt lat="43.11447099999999" lon="-1.2730880000000004">
        <ele>256.009</ele>
        <time>2022-08-23T16:35:26Z</time>
      </trkpt>
      <trkpt lat="43.11473299999999" lon="-1.2730110000000003">
        <ele>255.097</ele>
        <time>2022-08-23T16:35:29Z</time>
      </trkpt>
      <trkpt lat="43.114842999999986" lon="-1.2730060000000003">
        <ele>254.617</ele>
        <time>2022-08-23T16:35:30Z</time>
      </trkpt>
      <trkpt lat="43.11512899999999" lon="-1.2729010000000003">
        <ele>253.477</ele>
        <time>2022-08-23T16:35:33Z</time>
      </trkpt>
      <trkpt lat="43.11522799999999" lon="-1.2728730000000004">
        <ele>253.283</ele>
        <time>2022-08-23T16:35:34Z</time>
      </trkpt>
      <trkpt lat="43.11534099999999" lon="-1.2728200000000003">
        <ele>252.655</ele>
        <time>2022-08-23T16:35:35Z</time>
      </trkpt>
      <trkpt lat="43.115425999999985" lon="-1.2727590000000002">
        <ele>252.022</ele>
        <time>2022-08-23T16:35:36Z</time>
      </trkpt>
      <trkpt lat="43.115504999999985" lon="-1.2726870000000001">
        <ele>251.834</ele>
        <time>2022-08-23T16:35:37Z</time>
      </trkpt>
      <trkpt lat="43.11556499999998" lon="-1.2726210000000002">
        <ele>251.074</ele>
        <time>2022-08-23T16:35:38Z</time>
      </trkpt>
      <trkpt lat="43.11563099999998" lon="-1.2725320000000002">
        <ele>250.653</ele>
        <time>2022-08-23T16:35:39Z</time>
      </trkpt>
      <trkpt lat="43.11569199999998" lon="-1.2724370000000003">
        <ele>250.091</ele>
        <time>2022-08-23T16:35:40Z</time>
      </trkpt>
      <trkpt lat="43.115749999999984" lon="-1.2723340000000003">
        <ele>250.081</ele>
        <time>2022-08-23T16:35:41Z</time>
      </trkpt>
      <trkpt lat="43.115802999999985" lon="-1.2722240000000002">
        <ele>249.419</ele>
        <time>2022-08-23T16:35:42Z</time>
      </trkpt>
      <trkpt lat="43.115895999999985" lon="-1.2720060000000002">
        <ele>248.809</ele>
        <time>2022-08-23T16:35:44Z</time>
      </trkpt>
      <trkpt lat="43.115948999999986" lon="-1.2718790000000002">
        <ele>248.630</ele>
        <time>2022-08-23T16:35:45Z</time>
      </trkpt>
      <trkpt lat="43.11598799999999" lon="-1.2717730000000003">
        <ele>248.420</ele>
        <time>2022-08-23T16:35:46Z</time>
      </trkpt>
      <trkpt lat="43.11606099999999" lon="-1.2715830000000004">
        <ele>247.860</ele>
        <time>2022-08-23T16:35:48Z</time>
      </trkpt>
      <trkpt lat="43.11609999999999" lon="-1.2714840000000003">
        <ele>247.876</ele>
        <time>2022-08-23T16:35:49Z</time>
      </trkpt>
      <trkpt lat="43.116134999999986" lon="-1.2713840000000003">
        <ele>247.658</ele>
        <time>2022-08-23T16:35:50Z</time>
      </trkpt>
      <trkpt lat="43.11625499999999" lon="-1.2709510000000004">
        <ele>247.275</ele>
        <time>2022-08-23T16:35:54Z</time>
      </trkpt>
      <trkpt lat="43.11633699999999" lon="-1.2707090000000003">
        <ele>247.077</ele>
        <time>2022-08-23T16:35:56Z</time>
      </trkpt>
      <trkpt lat="43.11638499999999" lon="-1.2706120000000003">
        <ele>247.077</ele>
        <time>2022-08-23T16:35:57Z</time>
      </trkpt>
      <trkpt lat="43.11643799999999" lon="-1.2705230000000003">
        <ele>246.826</ele>
        <time>2022-08-23T16:35:58Z</time>
      </trkpt>
      <trkpt lat="43.116483999999986" lon="-1.2704620000000002">
        <ele>246.263</ele>
        <time>2022-08-23T16:35:59Z</time>
      </trkpt>
      <trkpt lat="43.11654499999999" lon="-1.2703940000000002">
        <ele>246.044</ele>
        <time>2022-08-23T16:36:00Z</time>
      </trkpt>
      <trkpt lat="43.116607999999985" lon="-1.2703320000000002">
        <ele>245.418</ele>
        <time>2022-08-23T16:36:01Z</time>
      </trkpt>
      <trkpt lat="43.116736999999986" lon="-1.2702130000000003">
        <ele>244.609</ele>
        <time>2022-08-23T16:36:03Z</time>
      </trkpt>
      <trkpt lat="43.116804999999985" lon="-1.2701600000000002">
        <ele>244.497</ele>
        <time>2022-08-23T16:36:04Z</time>
      </trkpt>
      <trkpt lat="43.11703199999999" lon="-1.2700630000000002">
        <ele>244.077</ele>
        <time>2022-08-23T16:36:07Z</time>
      </trkpt>
      <trkpt lat="43.11726799999999" lon="-1.269999">
        <ele>243.227</ele>
        <time>2022-08-23T16:36:10Z</time>
      </trkpt>
      <trkpt lat="43.11734899999999" lon="-1.269981">
        <ele>243.073</ele>
        <time>2022-08-23T16:36:11Z</time>
      </trkpt>
      <trkpt lat="43.11742499999999" lon="-1.269958">
        <ele>242.885</ele>
        <time>2022-08-23T16:36:12Z</time>
      </trkpt>
      <trkpt lat="43.11752199999999" lon="-1.269931">
        <ele>242.642</ele>
        <time>2022-08-23T16:36:13Z</time>
      </trkpt>
      <trkpt lat="43.11759199999999" lon="-1.269909">
        <ele>242.694</ele>
        <time>2022-08-23T16:36:14Z</time>
      </trkpt>
      <trkpt lat="43.11766099999999" lon="-1.2698859999999998">
        <ele>242.244</ele>
        <time>2022-08-23T16:36:15Z</time>
      </trkpt>
      <trkpt lat="43.117957999999994" lon="-1.2698089999999997">
        <ele>241.453</ele>
        <time>2022-08-23T16:36:19Z</time>
      </trkpt>
      <trkpt lat="43.118016999999995" lon="-1.2697919999999998">
        <ele>241.266</ele>
        <time>2022-08-23T16:36:20Z</time>
      </trkpt>
      <trkpt lat="43.11810199999999" lon="-1.2697679999999998">
        <ele>241.229</ele>
        <time>2022-08-23T16:36:21Z</time>
      </trkpt>
      <trkpt lat="43.118154999999994" lon="-1.2697549999999997">
        <ele>241.021</ele>
        <time>2022-08-23T16:36:22Z</time>
      </trkpt>
      <trkpt lat="43.11822099999999" lon="-1.2697409999999998">
        <ele>241.009</ele>
        <time>2022-08-23T16:36:23Z</time>
      </trkpt>
      <trkpt lat="43.11829799999999" lon="-1.2697219999999998">
        <ele>241.097</ele>
        <time>2022-08-23T16:36:24Z</time>
      </trkpt>
      <trkpt lat="43.11834899999999" lon="-1.2697039999999997">
        <ele>241.087</ele>
        <time>2022-08-23T16:36:25Z</time>
      </trkpt>
      <trkpt lat="43.11840999999999" lon="-1.2696899999999998">
        <ele>241.017</ele>
        <time>2022-08-23T16:36:26Z</time>
      </trkpt>
      <trkpt lat="43.11846999999999" lon="-1.2696789999999998">
        <ele>241.223</ele>
        <time>2022-08-23T16:36:27Z</time>
      </trkpt>
      <trkpt lat="43.118712999999985" lon="-1.2696329999999998">
        <ele>241.475</ele>
        <time>2022-08-23T16:36:31Z</time>
      </trkpt>
      <trkpt lat="43.11884899999998" lon="-1.2696169999999998">
        <ele>241.632</ele>
        <time>2022-08-23T16:36:33Z</time>
      </trkpt>
      <trkpt lat="43.119103999999986" lon="-1.2696049999999999">
        <ele>242.044</ele>
        <time>2022-08-23T16:36:37Z</time>
      </trkpt>
      <trkpt lat="43.119300999999986" lon="-1.2695809999999998">
        <ele>242.274</ele>
        <time>2022-08-23T16:36:40Z</time>
      </trkpt>
      <trkpt lat="43.119416999999984" lon="-1.2695589999999999">
        <ele>242.243</ele>
        <time>2022-08-23T16:36:42Z</time>
      </trkpt>
      <trkpt lat="43.119480999999986" lon="-1.2695509999999999">
        <ele>242.414</ele>
        <time>2022-08-23T16:36:43Z</time>
      </trkpt>
      <trkpt lat="43.11954499999999" lon="-1.2695379999999998">
        <ele>242.654</ele>
        <time>2022-08-23T16:36:44Z</time>
      </trkpt>
      <trkpt lat="43.11960899999999" lon="-1.269526">
        <ele>242.609</ele>
        <time>2022-08-23T16:36:45Z</time>
      </trkpt>
      <trkpt lat="43.11966999999999" lon="-1.269517">
        <ele>242.609</ele>
        <time>2022-08-23T16:36:46Z</time>
      </trkpt>
      <trkpt lat="43.11973299999999" lon="-1.269506">
        <ele>242.642</ele>
        <time>2022-08-23T16:36:47Z</time>
      </trkpt>
      <trkpt lat="43.11979299999999" lon="-1.2694940000000001">
        <ele>242.892</ele>
        <time>2022-08-23T16:36:48Z</time>
      </trkpt>
      <trkpt lat="43.11985499999999" lon="-1.269481">
        <ele>242.872</ele>
        <time>2022-08-23T16:36:49Z</time>
      </trkpt>
      <trkpt lat="43.12003799999999" lon="-1.269455">
        <ele>243.048</ele>
        <time>2022-08-23T16:36:52Z</time>
      </trkpt>
      <trkpt lat="43.12009899999999" lon="-1.269445">
        <ele>243.090</ele>
        <time>2022-08-23T16:36:53Z</time>
      </trkpt>
      <trkpt lat="43.12028699999999" lon="-1.269414">
        <ele>243.217</ele>
        <time>2022-08-23T16:36:56Z</time>
      </trkpt>
      <trkpt lat="43.12042099999999" lon="-1.269407">
        <ele>243.289</ele>
        <time>2022-08-23T16:36:58Z</time>
      </trkpt>
      <trkpt lat="43.12058199999999" lon="-1.269414">
        <ele>243.269</ele>
        <time>2022-08-23T16:37:00Z</time>
      </trkpt>
      <trkpt lat="43.120712999999995" lon="-1.269465">
        <ele>243.028</ele>
        <time>2022-08-23T16:37:02Z</time>
      </trkpt>
      <trkpt lat="43.120788" lon="-1.269496">
        <ele>243.061</ele>
        <time>2022-08-23T16:37:03Z</time>
      </trkpt>
      <trkpt lat="43.120863" lon="-1.269529">
        <ele>242.821</ele>
        <time>2022-08-23T16:37:04Z</time>
      </trkpt>
      <trkpt lat="43.121182" lon="-1.2696749999999999">
        <ele>242.213</ele>
        <time>2022-08-23T16:37:08Z</time>
      </trkpt>
      <trkpt lat="43.121266" lon="-1.2697079999999998">
        <ele>241.609</ele>
        <time>2022-08-23T16:37:09Z</time>
      </trkpt>
      <trkpt lat="43.121536" lon="-1.2697979999999998">
        <ele>240.627</ele>
        <time>2022-08-23T16:37:12Z</time>
      </trkpt>
      <trkpt lat="43.121722" lon="-1.2698579999999997">
        <ele>239.637</ele>
        <time>2022-08-23T16:37:14Z</time>
      </trkpt>
      <trkpt lat="43.121812999999996" lon="-1.2698989999999997">
        <ele>239.287</ele>
        <time>2022-08-23T16:37:15Z</time>
      </trkpt>
      <trkpt lat="43.121897999999995" lon="-1.2699509999999996">
        <ele>238.693</ele>
        <time>2022-08-23T16:37:16Z</time>
      </trkpt>
      <trkpt lat="43.121981999999996" lon="-1.2700029999999995">
        <ele>237.815</ele>
        <time>2022-08-23T16:37:17Z</time>
      </trkpt>
      <trkpt lat="43.12206" lon="-1.2700529999999997">
        <ele>237.442</ele>
        <time>2022-08-23T16:37:18Z</time>
      </trkpt>
      <trkpt lat="43.122136999999995" lon="-1.2700999999999996">
        <ele>237.254</ele>
        <time>2022-08-23T16:37:19Z</time>
      </trkpt>
      <trkpt lat="43.122212" lon="-1.2701419999999997">
        <ele>237.054</ele>
        <time>2022-08-23T16:37:20Z</time>
      </trkpt>
      <trkpt lat="43.122282999999996" lon="-1.2701779999999996">
        <ele>237.043</ele>
        <time>2022-08-23T16:37:21Z</time>
      </trkpt>
      <trkpt lat="43.122364999999995" lon="-1.2702139999999995">
        <ele>237.081</ele>
        <time>2022-08-23T16:37:22Z</time>
      </trkpt>
      <trkpt lat="43.12242" lon="-1.2702259999999994">
        <ele>237.061</ele>
        <time>2022-08-23T16:37:23Z</time>
      </trkpt>
      <trkpt lat="43.12249" lon="-1.2702349999999993">
        <ele>237.017</ele>
        <time>2022-08-23T16:37:24Z</time>
      </trkpt>
      <trkpt lat="43.122559" lon="-1.2702409999999993">
        <ele>237.009</ele>
        <time>2022-08-23T16:37:25Z</time>
      </trkpt>
      <trkpt lat="43.122834000000005" lon="-1.2702119999999992">
        <ele>237.289</ele>
        <time>2022-08-23T16:37:29Z</time>
      </trkpt>
      <trkpt lat="43.122977000000006" lon="-1.2701789999999993">
        <ele>237.219</ele>
        <time>2022-08-23T16:37:31Z</time>
      </trkpt>
      <trkpt lat="43.123270000000005" lon="-1.2700719999999992">
        <ele>237.279</ele>
        <time>2022-08-23T16:37:35Z</time>
      </trkpt>
      <trkpt lat="43.123419000000005" lon="-1.2700039999999992">
        <ele>237.055</ele>
        <time>2022-08-23T16:37:37Z</time>
      </trkpt>
      <trkpt lat="43.123492000000006" lon="-1.2699749999999992">
        <ele>236.657</ele>
        <time>2022-08-23T16:37:38Z</time>
      </trkpt>
      <trkpt lat="43.123923000000005" lon="-1.2697989999999992">
        <ele>235.634</ele>
        <time>2022-08-23T16:37:44Z</time>
      </trkpt>
      <trkpt lat="43.123996000000005" lon="-1.2697699999999992">
        <ele>235.426</ele>
        <time>2022-08-23T16:37:45Z</time>
      </trkpt>
      <trkpt lat="43.124546" lon="-1.2695609999999993">
        <ele>234.436</ele>
        <time>2022-08-23T16:37:52Z</time>
      </trkpt>
      <trkpt lat="43.124626" lon="-1.2695309999999993">
        <ele>234.245</ele>
        <time>2022-08-23T16:37:53Z</time>
      </trkpt>
      <trkpt lat="43.124871999999996" lon="-1.2694309999999993">
        <ele>233.461</ele>
        <time>2022-08-23T16:37:56Z</time>
      </trkpt>
      <trkpt lat="43.125288" lon="-1.2692679999999994">
        <ele>232.421</ele>
        <time>2022-08-23T16:38:01Z</time>
      </trkpt>
      <trkpt lat="43.125457999999995" lon="-1.2691969999999995">
        <ele>231.813</ele>
        <time>2022-08-23T16:38:03Z</time>
      </trkpt>
      <trkpt lat="43.1258" lon="-1.2690659999999994">
        <ele>231.409</ele>
        <time>2022-08-23T16:38:07Z</time>
      </trkpt>
      <trkpt lat="43.125882" lon="-1.2690379999999994">
        <ele>231.267</ele>
        <time>2022-08-23T16:38:08Z</time>
      </trkpt>
      <trkpt lat="43.125961" lon="-1.2690059999999994">
        <ele>231.287</ele>
        <time>2022-08-23T16:38:09Z</time>
      </trkpt>
      <trkpt lat="43.126037" lon="-1.2689719999999993">
        <ele>231.087</ele>
        <time>2022-08-23T16:38:10Z</time>
      </trkpt>
      <trkpt lat="43.126104" lon="-1.2689339999999993">
        <ele>230.863</ele>
        <time>2022-08-23T16:38:11Z</time>
      </trkpt>
      <trkpt lat="43.126172" lon="-1.2688909999999993">
        <ele>230.835</ele>
        <time>2022-08-23T16:38:12Z</time>
      </trkpt>
      <trkpt lat="43.126534" lon="-1.2686859999999993">
        <ele>230.642</ele>
        <time>2022-08-23T16:38:17Z</time>
      </trkpt>
      <trkpt lat="43.126608" lon="-1.2686559999999993">
        <ele>230.624</ele>
        <time>2022-08-23T16:38:18Z</time>
      </trkpt>
      <trkpt lat="43.126915" lon="-1.2685649999999993">
        <ele>230.474</ele>
        <time>2022-08-23T16:38:22Z</time>
      </trkpt>
      <trkpt lat="43.12699" lon="-1.2685479999999993">
        <ele>230.433</ele>
        <time>2022-08-23T16:38:23Z</time>
      </trkpt>
      <trkpt lat="43.127141" lon="-1.2685209999999993">
        <ele>230.077</ele>
        <time>2022-08-23T16:38:25Z</time>
      </trkpt>
      <trkpt lat="43.127374" lon="-1.2684849999999994">
        <ele>229.661</ele>
        <time>2022-08-23T16:38:28Z</time>
      </trkpt>
      <trkpt lat="43.12745" lon="-1.2684679999999995">
        <ele>229.627</ele>
        <time>2022-08-23T16:38:29Z</time>
      </trkpt>
      <trkpt lat="43.127749" lon="-1.2683239999999996">
        <ele>229.209</ele>
        <time>2022-08-23T16:38:33Z</time>
      </trkpt>
      <trkpt lat="43.127907" lon="-1.2682599999999995">
        <ele>229.088</ele>
        <time>2022-08-23T16:38:35Z</time>
      </trkpt>
      <trkpt lat="43.128299" lon="-1.2680989999999994">
        <ele>228.628</ele>
        <time>2022-08-23T16:38:40Z</time>
      </trkpt>
      <trkpt lat="43.128448999999996" lon="-1.2680269999999993">
        <ele>228.438</ele>
        <time>2022-08-23T16:38:42Z</time>
      </trkpt>
      <trkpt lat="43.128518" lon="-1.2679929999999993">
        <ele>228.294</ele>
        <time>2022-08-23T16:38:43Z</time>
      </trkpt>
      <trkpt lat="43.128583" lon="-1.2679549999999993">
        <ele>228.216</ele>
        <time>2022-08-23T16:38:44Z</time>
      </trkpt>
      <trkpt lat="43.128717" lon="-1.2678639999999992">
        <ele>227.823</ele>
        <time>2022-08-23T16:38:46Z</time>
      </trkpt>
      <trkpt lat="43.128781000000004" lon="-1.2678129999999992">
        <ele>227.845</ele>
        <time>2022-08-23T16:38:47Z</time>
      </trkpt>
      <trkpt lat="43.128841" lon="-1.2677569999999991">
        <ele>227.695</ele>
        <time>2022-08-23T16:38:48Z</time>
      </trkpt>
      <trkpt lat="43.1289" lon="-1.267695999999999">
        <ele>227.624</ele>
        <time>2022-08-23T16:38:49Z</time>
      </trkpt>
      <trkpt lat="43.128954" lon="-1.2676299999999991">
        <ele>227.668</ele>
        <time>2022-08-23T16:38:50Z</time>
      </trkpt>
      <trkpt lat="43.129005" lon="-1.267562999999999">
        <ele>227.642</ele>
        <time>2022-08-23T16:38:51Z</time>
      </trkpt>
      <trkpt lat="43.129052" lon="-1.2674999999999992">
        <ele>227.626</ele>
        <time>2022-08-23T16:38:52Z</time>
      </trkpt>
      <trkpt lat="43.129099000000004" lon="-1.2674399999999992">
        <ele>227.609</ele>
        <time>2022-08-23T16:38:53Z</time>
      </trkpt>
      <trkpt lat="43.129148" lon="-1.2673839999999992">
        <ele>227.687</ele>
        <time>2022-08-23T16:38:54Z</time>
      </trkpt>
      <trkpt lat="43.129194" lon="-1.2673259999999993">
        <ele>227.827</ele>
        <time>2022-08-23T16:38:55Z</time>
      </trkpt>
      <trkpt lat="43.129242" lon="-1.2672729999999992">
        <ele>227.877</ele>
        <time>2022-08-23T16:38:56Z</time>
      </trkpt>
      <trkpt lat="43.129286" lon="-1.267222999999999">
        <ele>228.073</ele>
        <time>2022-08-23T16:38:57Z</time>
      </trkpt>
      <trkpt lat="43.129332" lon="-1.267182999999999">
        <ele>228.025</ele>
        <time>2022-08-23T16:38:58Z</time>
      </trkpt>
      <trkpt lat="43.129376" lon="-1.267142999999999">
        <ele>228.252</ele>
        <time>2022-08-23T16:38:59Z</time>
      </trkpt>
      <trkpt lat="43.129418" lon="-1.267118999999999">
        <ele>228.494</ele>
        <time>2022-08-23T16:39:00Z</time>
      </trkpt>
      <trkpt lat="43.129464" lon="-1.267099999999999">
        <ele>228.464</ele>
        <time>2022-08-23T16:39:01Z</time>
      </trkpt>
      <trkpt lat="43.129507" lon="-1.267076999999999">
        <ele>228.673</ele>
        <time>2022-08-23T16:39:02Z</time>
      </trkpt>
      <trkpt lat="43.129548" lon="-1.2670509999999988">
        <ele>228.834</ele>
        <time>2022-08-23T16:39:03Z</time>
      </trkpt>
      <trkpt lat="43.129585" lon="-1.267014999999999">
        <ele>229.255</ele>
        <time>2022-08-23T16:39:04Z</time>
      </trkpt>
      <trkpt lat="43.12963" lon="-1.2669909999999989">
        <ele>229.210</ele>
        <time>2022-08-23T16:39:05Z</time>
      </trkpt>
      <trkpt lat="43.129678999999996" lon="-1.2669649999999988">
        <ele>229.809</ele>
        <time>2022-08-23T16:39:06Z</time>
      </trkpt>
      <trkpt lat="43.129726" lon="-1.2669399999999988">
        <ele>230.274</ele>
        <time>2022-08-23T16:39:07Z</time>
      </trkpt>
      <trkpt lat="43.129877" lon="-1.266879999999999">
        <ele>230.854</ele>
        <time>2022-08-23T16:39:10Z</time>
      </trkpt>
      <trkpt lat="43.12994" lon="-1.2668699999999988">
        <ele>231.054</ele>
        <time>2022-08-23T16:39:11Z</time>
      </trkpt>
      <trkpt lat="43.130064999999995" lon="-1.2668379999999988">
        <ele>231.250</ele>
        <time>2022-08-23T16:39:13Z</time>
      </trkpt>
      <trkpt lat="43.130134" lon="-1.2668409999999988">
        <ele>231.242</ele>
        <time>2022-08-23T16:39:14Z</time>
      </trkpt>
      <trkpt lat="43.130198" lon="-1.2668229999999987">
        <ele>231.229</ele>
        <time>2022-08-23T16:39:15Z</time>
      </trkpt>
      <trkpt lat="43.130269" lon="-1.2667919999999988">
        <ele>231.231</ele>
        <time>2022-08-23T16:39:16Z</time>
      </trkpt>
      <trkpt lat="43.130345999999996" lon="-1.266736999999999">
        <ele>231.241</ele>
        <time>2022-08-23T16:39:17Z</time>
      </trkpt>
      <trkpt lat="43.130433" lon="-1.266716999999999">
        <ele>231.260</ele>
        <time>2022-08-23T16:39:18Z</time>
      </trkpt>
      <trkpt lat="43.130494999999996" lon="-1.266712999999999">
        <ele>231.096</ele>
        <time>2022-08-23T16:39:19Z</time>
      </trkpt>
      <trkpt lat="43.130573999999996" lon="-1.2666959999999992">
        <ele>230.831</ele>
        <time>2022-08-23T16:39:20Z</time>
      </trkpt>
      <trkpt lat="43.130646" lon="-1.266669999999999">
        <ele>230.624</ele>
        <time>2022-08-23T16:39:21Z</time>
      </trkpt>
      <trkpt lat="43.130716" lon="-1.2666689999999992">
        <ele>230.609</ele>
        <time>2022-08-23T16:39:22Z</time>
      </trkpt>
      <trkpt lat="43.130784" lon="-1.266672999999999">
        <ele>230.450</ele>
        <time>2022-08-23T16:39:23Z</time>
      </trkpt>
      <trkpt lat="43.130866999999995" lon="-1.2666609999999991">
        <ele>230.410</ele>
        <time>2022-08-23T16:39:24Z</time>
      </trkpt>
      <trkpt lat="43.13095499999999" lon="-1.2666689999999992">
        <ele>230.060</ele>
        <time>2022-08-23T16:39:25Z</time>
      </trkpt>
      <trkpt lat="43.13110399999999" lon="-1.266661999999999">
        <ele>229.616</ele>
        <time>2022-08-23T16:39:27Z</time>
      </trkpt>
      <trkpt lat="43.13118899999999" lon="-1.266623999999999">
        <ele>229.428</ele>
        <time>2022-08-23T16:39:28Z</time>
      </trkpt>
      <trkpt lat="43.131570999999994" lon="-1.266521999999999">
        <ele>229.055</ele>
        <time>2022-08-23T16:39:33Z</time>
      </trkpt>
      <trkpt lat="43.13180299999999" lon="-1.266432999999999">
        <ele>228.827</ele>
        <time>2022-08-23T16:39:36Z</time>
      </trkpt>
      <trkpt lat="43.13196099999999" lon="-1.266392999999999">
        <ele>228.847</ele>
        <time>2022-08-23T16:39:38Z</time>
      </trkpt>
      <trkpt lat="43.13212399999999" lon="-1.266388999999999">
        <ele>228.696</ele>
        <time>2022-08-23T16:39:40Z</time>
      </trkpt>
      <trkpt lat="43.13220099999999" lon="-1.266388999999999">
        <ele>228.642</ele>
        <time>2022-08-23T16:39:41Z</time>
      </trkpt>
      <trkpt lat="43.13227399999999" lon="-1.266391999999999">
        <ele>228.622</ele>
        <time>2022-08-23T16:39:42Z</time>
      </trkpt>
      <trkpt lat="43.13234099999999" lon="-1.266396999999999">
        <ele>228.614</ele>
        <time>2022-08-23T16:39:43Z</time>
      </trkpt>
      <trkpt lat="43.13240399999999" lon="-1.266399999999999">
        <ele>228.409</ele>
        <time>2022-08-23T16:39:44Z</time>
      </trkpt>
      <trkpt lat="43.13247299999999" lon="-1.2664049999999991">
        <ele>228.425</ele>
        <time>2022-08-23T16:39:45Z</time>
      </trkpt>
      <trkpt lat="43.13274399999999" lon="-1.2664369999999991">
        <ele>228.875</ele>
        <time>2022-08-23T16:39:49Z</time>
      </trkpt>
      <trkpt lat="43.13281099999999" lon="-1.266448999999999">
        <ele>229.095</ele>
        <time>2022-08-23T16:39:50Z</time>
      </trkpt>
      <trkpt lat="43.13287399999999" lon="-1.266464999999999">
        <ele>229.061</ele>
        <time>2022-08-23T16:39:51Z</time>
      </trkpt>
      <trkpt lat="43.13293299999999" lon="-1.266488999999999">
        <ele>229.073</ele>
        <time>2022-08-23T16:39:52Z</time>
      </trkpt>
      <trkpt lat="43.13299099999999" lon="-1.2665179999999991">
        <ele>229.220</ele>
        <time>2022-08-23T16:39:53Z</time>
      </trkpt>
      <trkpt lat="43.13304699999999" lon="-1.2665529999999992">
        <ele>229.292</ele>
        <time>2022-08-23T16:39:54Z</time>
      </trkpt>
      <trkpt lat="43.13310399999999" lon="-1.266593999999999">
        <ele>229.232</ele>
        <time>2022-08-23T16:39:55Z</time>
      </trkpt>
      <trkpt lat="43.13320999999999" lon="-1.2666799999999991">
        <ele>229.281</ele>
        <time>2022-08-23T16:39:57Z</time>
      </trkpt>
      <trkpt lat="43.13325899999999" lon="-1.266731999999999">
        <ele>229.496</ele>
        <time>2022-08-23T16:39:58Z</time>
      </trkpt>
      <trkpt lat="43.133304999999986" lon="-1.266785999999999">
        <ele>229.431</ele>
        <time>2022-08-23T16:39:59Z</time>
      </trkpt>
      <trkpt lat="43.133352999999985" lon="-1.2668389999999992">
        <ele>229.624</ele>
        <time>2022-08-23T16:40:00Z</time>
      </trkpt>
      <trkpt lat="43.13350699999999" lon="-1.266990999999999">
        <ele>229.809</ele>
        <time>2022-08-23T16:40:03Z</time>
      </trkpt>
      <trkpt lat="43.13356499999999" lon="-1.267026999999999">
        <ele>230.070</ele>
        <time>2022-08-23T16:40:04Z</time>
      </trkpt>
      <trkpt lat="43.13368099999999" lon="-1.267078999999999">
        <ele>230.250</ele>
        <time>2022-08-23T16:40:06Z</time>
      </trkpt>
      <trkpt lat="43.13373899999999" lon="-1.267097999999999">
        <ele>230.450</ele>
        <time>2022-08-23T16:40:07Z</time>
      </trkpt>
      <trkpt lat="43.133914999999995" lon="-1.267129999999999">
        <ele>230.836</ele>
        <time>2022-08-23T16:40:10Z</time>
      </trkpt>
      <trkpt lat="43.13403399999999" lon="-1.267135999999999">
        <ele>231.028</ele>
        <time>2022-08-23T16:40:12Z</time>
      </trkpt>
      <trkpt lat="43.13409099999999" lon="-1.267129999999999">
        <ele>231.015</ele>
        <time>2022-08-23T16:40:13Z</time>
      </trkpt>
      <trkpt lat="43.13420399999999" lon="-1.267092999999999">
        <ele>231.257</ele>
        <time>2022-08-23T16:40:15Z</time>
      </trkpt>
      <trkpt lat="43.13425799999999" lon="-1.2670609999999989">
        <ele>231.227</ele>
        <time>2022-08-23T16:40:16Z</time>
      </trkpt>
      <trkpt lat="43.13431099999999" lon="-1.2670179999999989">
        <ele>231.476</ele>
        <time>2022-08-23T16:40:17Z</time>
      </trkpt>
      <trkpt lat="43.13447399999999" lon="-1.266849999999999">
        <ele>231.473</ele>
        <time>2022-08-23T16:40:20Z</time>
      </trkpt>
      <trkpt lat="43.13452199999999" lon="-1.266776999999999">
        <ele>231.685</ele>
        <time>2022-08-23T16:40:21Z</time>
      </trkpt>
      <trkpt lat="43.13461399999999" lon="-1.266617999999999">
        <ele>231.413</ele>
        <time>2022-08-23T16:40:23Z</time>
      </trkpt>
      <trkpt lat="43.134691999999994" lon="-1.2664329999999988">
        <ele>231.209</ele>
        <time>2022-08-23T16:40:25Z</time>
      </trkpt>
      <trkpt lat="43.13472399999999" lon="-1.2663279999999988">
        <ele>231.058</ele>
        <time>2022-08-23T16:40:26Z</time>
      </trkpt>
      <trkpt lat="43.13484699999999" lon="-1.2657539999999987">
        <ele>229.848</ele>
        <time>2022-08-23T16:40:31Z</time>
      </trkpt>
      <trkpt lat="43.134871" lon="-1.2656319999999988">
        <ele>229.698</ele>
        <time>2022-08-23T16:40:32Z</time>
      </trkpt>
      <trkpt lat="43.134912" lon="-1.2653859999999988">
        <ele>228.444</ele>
        <time>2022-08-23T16:40:34Z</time>
      </trkpt>
      <trkpt lat="43.134931" lon="-1.265265999999999">
        <ele>228.236</ele>
        <time>2022-08-23T16:40:35Z</time>
      </trkpt>
      <trkpt lat="43.134955000000005" lon="-1.2651399999999988">
        <ele>227.623</ele>
        <time>2022-08-23T16:40:36Z</time>
      </trkpt>
      <trkpt lat="43.13498500000001" lon="-1.2650209999999988">
        <ele>227.085</ele>
        <time>2022-08-23T16:40:37Z</time>
      </trkpt>
      <trkpt lat="43.13502100000001" lon="-1.2649109999999988">
        <ele>226.885</ele>
        <time>2022-08-23T16:40:38Z</time>
      </trkpt>
      <trkpt lat="43.13506300000001" lon="-1.2648119999999987">
        <ele>226.274</ele>
        <time>2022-08-23T16:40:39Z</time>
      </trkpt>
      <trkpt lat="43.13510900000001" lon="-1.2647229999999987">
        <ele>225.855</ele>
        <time>2022-08-23T16:40:40Z</time>
      </trkpt>
      <trkpt lat="43.13515900000001" lon="-1.2646389999999987">
        <ele>225.407</ele>
        <time>2022-08-23T16:40:41Z</time>
      </trkpt>
      <trkpt lat="43.13522000000001" lon="-1.2645639999999987">
        <ele>225.017</ele>
        <time>2022-08-23T16:40:42Z</time>
      </trkpt>
      <trkpt lat="43.13528300000001" lon="-1.2644909999999987">
        <ele>224.809</ele>
        <time>2022-08-23T16:40:43Z</time>
      </trkpt>
      <trkpt lat="43.13535200000001" lon="-1.2644259999999987">
        <ele>224.646</ele>
        <time>2022-08-23T16:40:44Z</time>
      </trkpt>
      <trkpt lat="43.13543300000001" lon="-1.2643749999999987">
        <ele>224.466</ele>
        <time>2022-08-23T16:40:45Z</time>
      </trkpt>
      <trkpt lat="43.135520000000014" lon="-1.2643469999999988">
        <ele>224.276</ele>
        <time>2022-08-23T16:40:46Z</time>
      </trkpt>
      <trkpt lat="43.135612000000016" lon="-1.2643329999999988">
        <ele>224.082</ele>
        <time>2022-08-23T16:40:47Z</time>
      </trkpt>
      <trkpt lat="43.13570400000002" lon="-1.2643349999999989">
        <ele>223.894</ele>
        <time>2022-08-23T16:40:48Z</time>
      </trkpt>
      <trkpt lat="43.135798000000015" lon="-1.264355999999999">
        <ele>223.621</ele>
        <time>2022-08-23T16:40:49Z</time>
      </trkpt>
      <trkpt lat="43.13588900000001" lon="-1.264438999999999">
        <ele>222.843</ele>
        <time>2022-08-23T16:40:50Z</time>
      </trkpt>
      <trkpt lat="43.13598000000001" lon="-1.264486999999999">
        <ele>222.413</ele>
        <time>2022-08-23T16:40:51Z</time>
      </trkpt>
      <trkpt lat="43.13607000000001" lon="-1.264519999999999">
        <ele>221.692</ele>
        <time>2022-08-23T16:40:52Z</time>
      </trkpt>
      <trkpt lat="43.13616200000001" lon="-1.264530999999999">
        <ele>221.257</ele>
        <time>2022-08-23T16:40:53Z</time>
      </trkpt>
      <trkpt lat="43.13625800000001" lon="-1.264510999999999">
        <ele>220.200</ele>
        <time>2022-08-23T16:40:54Z</time>
      </trkpt>
      <trkpt lat="43.13635600000001" lon="-1.264467999999999">
        <ele>219.420</ele>
        <time>2022-08-23T16:40:55Z</time>
      </trkpt>
      <trkpt lat="43.13645300000001" lon="-1.264407999999999">
        <ele>219.009</ele>
        <time>2022-08-23T16:40:56Z</time>
      </trkpt>
      <trkpt lat="43.13654100000001" lon="-1.264346999999999">
        <ele>218.256</ele>
        <time>2022-08-23T16:40:57Z</time>
      </trkpt>
      <trkpt lat="43.13662200000001" lon="-1.264278999999999">
        <ele>217.876</ele>
        <time>2022-08-23T16:40:58Z</time>
      </trkpt>
      <trkpt lat="43.13670100000001" lon="-1.264209999999999">
        <ele>217.426</ele>
        <time>2022-08-23T16:40:59Z</time>
      </trkpt>
      <trkpt lat="43.13677600000001" lon="-1.264134999999999">
        <ele>217.282</ele>
        <time>2022-08-23T16:41:00Z</time>
      </trkpt>
      <trkpt lat="43.13722200000001" lon="-1.2636709999999989">
        <ele>216.664</ele>
        <time>2022-08-23T16:41:06Z</time>
      </trkpt>
      <trkpt lat="43.13738000000001" lon="-1.263523999999999">
        <ele>216.051</ele>
        <time>2022-08-23T16:41:08Z</time>
      </trkpt>
      <trkpt lat="43.13745500000001" lon="-1.263451999999999">
        <ele>215.683</ele>
        <time>2022-08-23T16:41:09Z</time>
      </trkpt>
      <trkpt lat="43.13753100000001" lon="-1.2633799999999988">
        <ele>215.443</ele>
        <time>2022-08-23T16:41:10Z</time>
      </trkpt>
      <trkpt lat="43.13760800000001" lon="-1.2633119999999989">
        <ele>215.252</ele>
        <time>2022-08-23T16:41:11Z</time>
      </trkpt>
      <trkpt lat="43.13768000000001" lon="-1.2632429999999988">
        <ele>215.067</ele>
        <time>2022-08-23T16:41:12Z</time>
      </trkpt>
      <trkpt lat="43.13775000000001" lon="-1.2631769999999989">
        <ele>215.081</ele>
        <time>2022-08-23T16:41:13Z</time>
      </trkpt>
      <trkpt lat="43.137819000000015" lon="-1.2631069999999989">
        <ele>214.819</ele>
        <time>2022-08-23T16:41:14Z</time>
      </trkpt>
      <trkpt lat="43.137889000000015" lon="-1.263038999999999">
        <ele>214.609</ele>
        <time>2022-08-23T16:41:15Z</time>
      </trkpt>
      <trkpt lat="43.137959000000016" lon="-1.262970999999999">
        <ele>214.687</ele>
        <time>2022-08-23T16:41:16Z</time>
      </trkpt>
      <trkpt lat="43.138030000000015" lon="-1.262906999999999">
        <ele>214.627</ele>
        <time>2022-08-23T16:41:17Z</time>
      </trkpt>
      <trkpt lat="43.138100000000016" lon="-1.262843999999999">
        <ele>214.447</ele>
        <time>2022-08-23T16:41:18Z</time>
      </trkpt>
      <trkpt lat="43.13830100000001" lon="-1.262645999999999">
        <ele>214.023</ele>
        <time>2022-08-23T16:41:21Z</time>
      </trkpt>
      <trkpt lat="43.138438000000015" lon="-1.2625099999999991">
        <ele>213.825</ele>
        <time>2022-08-23T16:41:23Z</time>
      </trkpt>
      <trkpt lat="43.13850700000002" lon="-1.2624419999999992">
        <ele>213.882</ele>
        <time>2022-08-23T16:41:24Z</time>
      </trkpt>
      <trkpt lat="43.13857500000002" lon="-1.2623749999999991">
        <ele>213.654</ele>
        <time>2022-08-23T16:41:25Z</time>
      </trkpt>
      <trkpt lat="43.13864200000002" lon="-1.2623099999999992">
        <ele>213.684</ele>
        <time>2022-08-23T16:41:26Z</time>
      </trkpt>
      <trkpt lat="43.13890900000002" lon="-1.2620459999999991">
        <ele>213.443</ele>
        <time>2022-08-23T16:41:30Z</time>
      </trkpt>
      <trkpt lat="43.13897300000002" lon="-1.2619809999999991">
        <ele>213.496</ele>
        <time>2022-08-23T16:41:31Z</time>
      </trkpt>
      <trkpt lat="43.13903700000002" lon="-1.261916999999999">
        <ele>213.431</ele>
        <time>2022-08-23T16:41:32Z</time>
      </trkpt>
      <trkpt lat="43.139168000000026" lon="-1.261800999999999">
        <ele>213.224</ele>
        <time>2022-08-23T16:41:34Z</time>
      </trkpt>
      <trkpt lat="43.13923700000003" lon="-1.261751999999999">
        <ele>213.009</ele>
        <time>2022-08-23T16:41:35Z</time>
      </trkpt>
      <trkpt lat="43.13938500000003" lon="-1.261670999999999">
        <ele>213.050</ele>
        <time>2022-08-23T16:41:37Z</time>
      </trkpt>
      <trkpt lat="43.13952600000003" lon="-1.261624999999999">
        <ele>212.860</ele>
        <time>2022-08-23T16:41:39Z</time>
      </trkpt>
      <trkpt lat="43.139598000000035" lon="-1.261606999999999">
        <ele>212.820</ele>
        <time>2022-08-23T16:41:40Z</time>
      </trkpt>
      <trkpt lat="43.13966900000003" lon="-1.261593999999999">
        <ele>212.836</ele>
        <time>2022-08-23T16:41:41Z</time>
      </trkpt>
      <trkpt lat="43.13973700000003" lon="-1.261588999999999">
        <ele>212.838</ele>
        <time>2022-08-23T16:41:42Z</time>
      </trkpt>
      <trkpt lat="43.139806000000036" lon="-1.261594999999999">
        <ele>212.815</ele>
        <time>2022-08-23T16:41:43Z</time>
      </trkpt>
      <trkpt lat="43.13987600000004" lon="-1.2616069999999988">
        <ele>212.857</ele>
        <time>2022-08-23T16:41:44Z</time>
      </trkpt>
      <trkpt lat="43.13994500000004" lon="-1.2616229999999988">
        <ele>212.827</ele>
        <time>2022-08-23T16:41:45Z</time>
      </trkpt>
      <trkpt lat="43.14001100000004" lon="-1.2616439999999989">
        <ele>213.066</ele>
        <time>2022-08-23T16:41:46Z</time>
      </trkpt>
      <trkpt lat="43.140079000000036" lon="-1.261659999999999">
        <ele>213.222</ele>
        <time>2022-08-23T16:41:47Z</time>
      </trkpt>
      <trkpt lat="43.14014600000004" lon="-1.261677999999999">
        <ele>213.262</ele>
        <time>2022-08-23T16:41:48Z</time>
      </trkpt>
      <trkpt lat="43.14021000000004" lon="-1.261701999999999">
        <ele>213.208</ele>
        <time>2022-08-23T16:41:49Z</time>
      </trkpt>
      <trkpt lat="43.14054200000004" lon="-1.261850999999999">
        <ele>213.409</ele>
        <time>2022-08-23T16:41:54Z</time>
      </trkpt>
      <trkpt lat="43.140985000000036" lon="-1.2620109999999989">
        <ele>213.253</ele>
        <time>2022-08-23T16:41:59Z</time>
      </trkpt>
      <trkpt lat="43.14114700000004" lon="-1.2620039999999988">
        <ele>212.683</ele>
        <time>2022-08-23T16:42:01Z</time>
      </trkpt>
      <trkpt lat="43.14124300000004" lon="-1.2619799999999988">
        <ele>212.223</ele>
        <time>2022-08-23T16:42:02Z</time>
      </trkpt>
      <trkpt lat="43.14133800000004" lon="-1.2619619999999987">
        <ele>211.849</ele>
        <time>2022-08-23T16:42:03Z</time>
      </trkpt>
      <trkpt lat="43.14143000000004" lon="-1.2619579999999988">
        <ele>211.471</ele>
        <time>2022-08-23T16:42:04Z</time>
      </trkpt>
      <trkpt lat="43.141522000000045" lon="-1.2619489999999989">
        <ele>210.628</ele>
        <time>2022-08-23T16:42:05Z</time>
      </trkpt>
      <trkpt lat="43.14161300000004" lon="-1.2619489999999989">
        <ele>210.280</ele>
        <time>2022-08-23T16:42:06Z</time>
      </trkpt>
      <trkpt lat="43.14170000000004" lon="-1.261944999999999">
        <ele>209.680</ele>
        <time>2022-08-23T16:42:07Z</time>
      </trkpt>
      <trkpt lat="43.141784000000044" lon="-1.261942999999999">
        <ele>209.429</ele>
        <time>2022-08-23T16:42:08Z</time>
      </trkpt>
      <trkpt lat="43.141865000000045" lon="-1.261936999999999">
        <ele>209.284</ele>
        <time>2022-08-23T16:42:09Z</time>
      </trkpt>
      <trkpt lat="43.14194000000005" lon="-1.261922999999999">
        <ele>208.807</ele>
        <time>2022-08-23T16:42:10Z</time>
      </trkpt>
      <trkpt lat="43.14201500000005" lon="-1.261905999999999">
        <ele>208.817</ele>
        <time>2022-08-23T16:42:11Z</time>
      </trkpt>
      <trkpt lat="43.14216400000005" lon="-1.261860999999999">
        <ele>208.809</ele>
        <time>2022-08-23T16:42:13Z</time>
      </trkpt>
      <trkpt lat="43.14237900000005" lon="-1.261750999999999">
        <ele>208.649</ele>
        <time>2022-08-23T16:42:16Z</time>
      </trkpt>
      <trkpt lat="43.14244800000005" lon="-1.261703999999999">
        <ele>208.649</ele>
        <time>2022-08-23T16:42:17Z</time>
      </trkpt>
      <trkpt lat="43.14253000000005" lon="-1.261644999999999">
        <ele>208.689</ele>
        <time>2022-08-23T16:42:18Z</time>
      </trkpt>
      <trkpt lat="43.14258200000005" lon="-1.261606999999999">
        <ele>208.625</ele>
        <time>2022-08-23T16:42:19Z</time>
      </trkpt>
      <trkpt lat="43.142844000000046" lon="-1.261414999999999">
        <ele>208.637</ele>
        <time>2022-08-23T16:42:23Z</time>
      </trkpt>
      <trkpt lat="43.142907000000044" lon="-1.261372999999999">
        <ele>208.654</ele>
        <time>2022-08-23T16:42:24Z</time>
      </trkpt>
      <trkpt lat="43.14296200000005" lon="-1.2613309999999989">
        <ele>208.656</ele>
        <time>2022-08-23T16:42:25Z</time>
      </trkpt>
      <trkpt lat="43.14300700000005" lon="-1.261281999999999">
        <ele>208.686</ele>
        <time>2022-08-23T16:42:26Z</time>
      </trkpt>
      <trkpt lat="43.14303800000005" lon="-1.2612339999999989">
        <ele>208.665</ele>
        <time>2022-08-23T16:42:27Z</time>
      </trkpt>
      <trkpt lat="43.143056000000044" lon="-1.261194999999999">
        <ele>208.688</ele>
        <time>2022-08-23T16:42:28Z</time>
      </trkpt>
      <trkpt lat="43.143067000000045" lon="-1.261174999999999">
        <ele>208.624</ele>
        <time>2022-08-23T16:42:29Z</time>
      </trkpt>
      <trkpt lat="43.14307100000004" lon="-1.261168999999999">
        <ele>208.426</ele>
        <time>2022-08-23T16:45:25Z</time>
      </trkpt>
      <trkpt lat="43.143073000000044" lon="-1.261169999999999">
        <ele>208.409</ele>
        <time>2022-08-23T16:45:26Z</time>
      </trkpt>
      <trkpt lat="43.14308600000005" lon="-1.261173999999999">
        <ele>208.429</ele>
        <time>2022-08-23T16:45:27Z</time>
      </trkpt>
      <trkpt lat="43.143095000000045" lon="-1.261175999999999">
        <ele>208.659</ele>
        <time>2022-08-23T16:45:34Z</time>
      </trkpt>
      <trkpt lat="43.14312800000005" lon="-1.261171999999999">
        <ele>208.629</ele>
        <time>2022-08-23T16:45:37Z</time>
      </trkpt>
      <trkpt lat="43.14319200000005" lon="-1.261139999999999">
        <ele>208.645</ele>
        <time>2022-08-23T16:45:39Z</time>
      </trkpt>
      <trkpt lat="43.143269000000046" lon="-1.261077999999999">
        <ele>208.677</ele>
        <time>2022-08-23T16:45:41Z</time>
      </trkpt>
      <trkpt lat="43.143317000000046" lon="-1.261043999999999">
        <ele>208.444</ele>
        <time>2022-08-23T16:45:42Z</time>
      </trkpt>
      <trkpt lat="43.14354700000005" lon="-1.260887999999999">
        <ele>208.466</ele>
        <time>2022-08-23T16:45:46Z</time>
      </trkpt>
      <trkpt lat="43.143587000000046" lon="-1.260857999999999">
        <ele>208.436</ele>
        <time>2022-08-23T16:45:47Z</time>
      </trkpt>
      <trkpt lat="43.143635000000046" lon="-1.260822999999999">
        <ele>208.265</ele>
        <time>2022-08-23T16:45:48Z</time>
      </trkpt>
      <trkpt lat="43.14368100000004" lon="-1.260784999999999">
        <ele>208.275</ele>
        <time>2022-08-23T16:45:49Z</time>
      </trkpt>
      <trkpt lat="43.143962000000045" lon="-1.2605239999999989">
        <ele>207.828</ele>
        <time>2022-08-23T16:45:55Z</time>
      </trkpt>
      <trkpt lat="43.144125000000045" lon="-1.2603379999999988">
        <ele>207.620</ele>
        <time>2022-08-23T16:45:58Z</time>
      </trkpt>
      <trkpt lat="43.144218000000045" lon="-1.2602149999999988">
        <ele>207.409</ele>
        <time>2022-08-23T16:46:00Z</time>
      </trkpt>
      <trkpt lat="43.144561000000046" lon="-1.2596419999999988">
        <ele>206.698</ele>
        <time>2022-08-23T16:46:07Z</time>
      </trkpt>
      <trkpt lat="43.144834000000046" lon="-1.2591699999999988">
        <ele>205.438</ele>
        <time>2022-08-23T16:46:12Z</time>
      </trkpt>
      <trkpt lat="43.14492300000005" lon="-1.2589919999999988">
        <ele>205.248</ele>
        <time>2022-08-23T16:46:14Z</time>
      </trkpt>
      <trkpt lat="43.14506600000005" lon="-1.2585229999999987">
        <ele>204.634</ele>
        <time>2022-08-23T16:46:18Z</time>
      </trkpt>
      <trkpt lat="43.14507900000005" lon="-1.2584299999999988">
        <ele>204.486</ele>
        <time>2022-08-23T16:46:19Z</time>
      </trkpt>
      <trkpt lat="43.145089000000056" lon="-1.2582929999999988">
        <ele>204.243</ele>
        <time>2022-08-23T16:46:20Z</time>
      </trkpt>
      <trkpt lat="43.14509100000006" lon="-1.2582059999999988">
        <ele>204.075</ele>
        <time>2022-08-23T16:46:21Z</time>
      </trkpt>
      <trkpt lat="43.145092000000055" lon="-1.2580979999999988">
        <ele>204.095</ele>
        <time>2022-08-23T16:46:22Z</time>
      </trkpt>
      <trkpt lat="43.14509300000005" lon="-1.2579689999999988">
        <ele>204.044</ele>
        <time>2022-08-23T16:46:23Z</time>
      </trkpt>
      <trkpt lat="43.14509600000005" lon="-1.2578869999999989">
        <ele>204.067</ele>
        <time>2022-08-23T16:46:24Z</time>
      </trkpt>
      <trkpt lat="43.14510400000005" lon="-1.257783999999999">
        <ele>204.081</ele>
        <time>2022-08-23T16:46:25Z</time>
      </trkpt>
      <trkpt lat="43.14511600000005" lon="-1.2576849999999988">
        <ele>204.019</ele>
        <time>2022-08-23T16:46:26Z</time>
      </trkpt>
      <trkpt lat="43.14513100000005" lon="-1.2575859999999988">
        <ele>204.009</ele>
        <time>2022-08-23T16:46:27Z</time>
      </trkpt>
      <trkpt lat="43.145152000000046" lon="-1.2574939999999988">
        <ele>204.277</ele>
        <time>2022-08-23T16:46:28Z</time>
      </trkpt>
      <trkpt lat="43.145178000000044" lon="-1.2574069999999988">
        <ele>204.427</ele>
        <time>2022-08-23T16:46:29Z</time>
      </trkpt>
      <trkpt lat="43.145209000000044" lon="-1.2573039999999989">
        <ele>204.467</ele>
        <time>2022-08-23T16:46:30Z</time>
      </trkpt>
      <trkpt lat="43.145256000000046" lon="-1.257156999999999">
        <ele>204.833</ele>
        <time>2022-08-23T16:46:32Z</time>
      </trkpt>
      <trkpt lat="43.145284000000046" lon="-1.257073999999999">
        <ele>204.815</ele>
        <time>2022-08-23T16:46:33Z</time>
      </trkpt>
      <trkpt lat="43.14531100000005" lon="-1.2569909999999989">
        <ele>205.042</ele>
        <time>2022-08-23T16:46:34Z</time>
      </trkpt>
      <trkpt lat="43.14533900000005" lon="-1.2569099999999989">
        <ele>205.244</ele>
        <time>2022-08-23T16:46:35Z</time>
      </trkpt>
      <trkpt lat="43.14536600000005" lon="-1.2568289999999989">
        <ele>205.464</ele>
        <time>2022-08-23T16:46:36Z</time>
      </trkpt>
      <trkpt lat="43.14539400000005" lon="-1.2567509999999988">
        <ele>205.433</ele>
        <time>2022-08-23T16:46:37Z</time>
      </trkpt>
      <trkpt lat="43.14542200000005" lon="-1.256671999999999">
        <ele>205.647</ele>
        <time>2022-08-23T16:46:38Z</time>
      </trkpt>
      <trkpt lat="43.145452000000056" lon="-1.256597999999999">
        <ele>205.629</ele>
        <time>2022-08-23T16:46:39Z</time>
      </trkpt>
      <trkpt lat="43.14548800000006" lon="-1.256528999999999">
        <ele>205.621</ele>
        <time>2022-08-23T16:46:40Z</time>
      </trkpt>
      <trkpt lat="43.14552900000006" lon="-1.2564649999999988">
        <ele>205.609</ele>
        <time>2022-08-23T16:46:41Z</time>
      </trkpt>
      <trkpt lat="43.14557500000006" lon="-1.2564059999999988">
        <ele>205.845</ele>
        <time>2022-08-23T16:46:42Z</time>
      </trkpt>
      <trkpt lat="43.14562600000006" lon="-1.2563569999999988">
        <ele>205.855</ele>
        <time>2022-08-23T16:46:43Z</time>
      </trkpt>
      <trkpt lat="43.145692000000054" lon="-1.2563119999999988">
        <ele>205.845</ele>
        <time>2022-08-23T16:46:44Z</time>
      </trkpt>
      <trkpt lat="43.145750000000056" lon="-1.2562879999999987">
        <ele>205.841</ele>
        <time>2022-08-23T16:46:45Z</time>
      </trkpt>
      <trkpt lat="43.145810000000054" lon="-1.2562719999999987">
        <ele>205.823</ele>
        <time>2022-08-23T16:46:46Z</time>
      </trkpt>
      <trkpt lat="43.145866000000055" lon="-1.2562649999999986">
        <ele>206.050</ele>
        <time>2022-08-23T16:46:47Z</time>
      </trkpt>
      <trkpt lat="43.145911000000055" lon="-1.2562619999999987">
        <ele>206.292</ele>
        <time>2022-08-23T16:46:48Z</time>
      </trkpt>
      <trkpt lat="43.14603600000005" lon="-1.2562459999999986">
        <ele>206.262</ele>
        <time>2022-08-23T16:46:50Z</time>
      </trkpt>
      <trkpt lat="43.14611500000005" lon="-1.2562149999999987">
        <ele>206.221</ele>
        <time>2022-08-23T16:46:51Z</time>
      </trkpt>
      <trkpt lat="43.14616500000005" lon="-1.2561809999999987">
        <ele>206.485</ele>
        <time>2022-08-23T16:46:52Z</time>
      </trkpt>
      <trkpt lat="43.14622400000005" lon="-1.2561279999999986">
        <ele>206.489</ele>
        <time>2022-08-23T16:46:53Z</time>
      </trkpt>
      <trkpt lat="43.146274000000055" lon="-1.2560629999999986">
        <ele>206.217</ele>
        <time>2022-08-23T16:46:54Z</time>
      </trkpt>
      <trkpt lat="43.14632600000005" lon="-1.2559869999999986">
        <ele>206.209</ele>
        <time>2022-08-23T16:46:55Z</time>
      </trkpt>
      <trkpt lat="43.14638000000005" lon="-1.2559049999999987">
        <ele>206.069</ele>
        <time>2022-08-23T16:46:56Z</time>
      </trkpt>
      <trkpt lat="43.14648700000005" lon="-1.2557339999999988">
        <ele>205.859</ele>
        <time>2022-08-23T16:46:58Z</time>
      </trkpt>
      <trkpt lat="43.14670000000005" lon="-1.2554089999999989">
        <ele>205.479</ele>
        <time>2022-08-23T16:47:02Z</time>
      </trkpt>
      <trkpt lat="43.146761000000055" lon="-1.2553399999999988">
        <ele>205.455</ele>
        <time>2022-08-23T16:47:03Z</time>
      </trkpt>
      <trkpt lat="43.14682700000005" lon="-1.2552759999999987">
        <ele>205.477</ele>
        <time>2022-08-23T16:47:04Z</time>
      </trkpt>
      <trkpt lat="43.14696700000005" lon="-1.2551649999999988">
        <ele>205.064</ele>
        <time>2022-08-23T16:47:06Z</time>
      </trkpt>
      <trkpt lat="43.14712000000005" lon="-1.2550629999999987">
        <ele>204.856</ele>
        <time>2022-08-23T16:47:08Z</time>
      </trkpt>
      <trkpt lat="43.14743300000005" lon="-1.2548799999999987">
        <ele>204.016</ele>
        <time>2022-08-23T16:47:12Z</time>
      </trkpt>
      <trkpt lat="43.14774700000005" lon="-1.2546969999999986">
        <ele>203.285</ele>
        <time>2022-08-23T16:47:16Z</time>
      </trkpt>
      <trkpt lat="43.147904000000054" lon="-1.2546039999999987">
        <ele>202.846</ele>
        <time>2022-08-23T16:47:18Z</time>
      </trkpt>
      <trkpt lat="43.14830500000005" lon="-1.2543729999999986">
        <ele>202.088</ele>
        <time>2022-08-23T16:47:23Z</time>
      </trkpt>
      <trkpt lat="43.14846300000005" lon="-1.2542799999999987">
        <ele>201.616</ele>
        <time>2022-08-23T16:47:25Z</time>
      </trkpt>
      <trkpt lat="43.14854200000005" lon="-1.2542349999999987">
        <ele>201.609</ele>
        <time>2022-08-23T16:47:26Z</time>
      </trkpt>
      <trkpt lat="43.14885400000005" lon="-1.2540519999999986">
        <ele>201.055</ele>
        <time>2022-08-23T16:47:30Z</time>
      </trkpt>
      <trkpt lat="43.14900800000005" lon="-1.2539599999999986">
        <ele>200.485</ele>
        <time>2022-08-23T16:47:32Z</time>
      </trkpt>
      <trkpt lat="43.149100000000054" lon="-1.2539059999999986">
        <ele>200.225</ele>
        <time>2022-08-23T16:47:33Z</time>
      </trkpt>
      <trkpt lat="43.14917400000005" lon="-1.2538629999999986">
        <ele>200.251</ele>
        <time>2022-08-23T16:47:34Z</time>
      </trkpt>
      <trkpt lat="43.14924800000005" lon="-1.2538249999999986">
        <ele>200.243</ele>
        <time>2022-08-23T16:47:35Z</time>
      </trkpt>
      <trkpt lat="43.14930200000005" lon="-1.2537989999999986">
        <ele>200.260</ele>
        <time>2022-08-23T16:47:36Z</time>
      </trkpt>
      <trkpt lat="43.149365000000046" lon="-1.2537749999999985">
        <ele>200.242</ele>
        <time>2022-08-23T16:47:37Z</time>
      </trkpt>
      <trkpt lat="43.14944200000004" lon="-1.2537609999999986">
        <ele>200.442</ele>
        <time>2022-08-23T16:47:38Z</time>
      </trkpt>
      <trkpt lat="43.14950800000004" lon="-1.2537509999999985">
        <ele>200.431</ele>
        <time>2022-08-23T16:47:39Z</time>
      </trkpt>
      <trkpt lat="43.14957000000004" lon="-1.2537459999999985">
        <ele>200.463</ele>
        <time>2022-08-23T16:47:40Z</time>
      </trkpt>
      <trkpt lat="43.14961400000004" lon="-1.2537469999999984">
        <ele>200.444</ele>
        <time>2022-08-23T16:47:41Z</time>
      </trkpt>
      <trkpt lat="43.14967100000004" lon="-1.2537519999999984">
        <ele>200.818</ele>
        <time>2022-08-23T16:47:42Z</time>
      </trkpt>
      <trkpt lat="43.14972700000004" lon="-1.2537579999999984">
        <ele>201.409</ele>
        <time>2022-08-23T16:47:43Z</time>
      </trkpt>
      <trkpt lat="43.14978100000004" lon="-1.2537699999999983">
        <ele>202.227</ele>
        <time>2022-08-23T16:47:44Z</time>
      </trkpt>
      <trkpt lat="43.14983700000004" lon="-1.2537779999999983">
        <ele>202.477</ele>
        <time>2022-08-23T16:47:45Z</time>
      </trkpt>
      <trkpt lat="43.14994500000004" lon="-1.2537869999999982">
        <ele>203.237</ele>
        <time>2022-08-23T16:47:47Z</time>
      </trkpt>
      <trkpt lat="43.15000000000004" lon="-1.2537749999999983">
        <ele>203.253</ele>
        <time>2022-08-23T16:47:48Z</time>
      </trkpt>
      <trkpt lat="43.15006000000004" lon="-1.2537489999999982">
        <ele>203.615</ele>
        <time>2022-08-23T16:47:49Z</time>
      </trkpt>
      <trkpt lat="43.15018100000004" lon="-1.2536469999999982">
        <ele>203.872</ele>
        <time>2022-08-23T16:47:51Z</time>
      </trkpt>
      <trkpt lat="43.15024000000004" lon="-1.2535639999999981">
        <ele>203.834</ele>
        <time>2022-08-23T16:47:52Z</time>
      </trkpt>
      <trkpt lat="43.15029900000004" lon="-1.253472999999998">
        <ele>203.844</ele>
        <time>2022-08-23T16:47:53Z</time>
      </trkpt>
      <trkpt lat="43.15042400000004" lon="-1.253275999999998">
        <ele>203.673</ele>
        <time>2022-08-23T16:47:55Z</time>
      </trkpt>
      <trkpt lat="43.150728000000036" lon="-1.252910999999998">
        <ele>202.056</ele>
        <time>2022-08-23T16:47:59Z</time>
      </trkpt>
      <trkpt lat="43.150807000000036" lon="-1.252827999999998">
        <ele>201.259</ele>
        <time>2022-08-23T16:48:00Z</time>
      </trkpt>
      <trkpt lat="43.150883000000036" lon="-1.2527459999999981">
        <ele>200.414</ele>
        <time>2022-08-23T16:48:01Z</time>
      </trkpt>
      <trkpt lat="43.15095800000004" lon="-1.252665999999998">
        <ele>200.209</ele>
        <time>2022-08-23T16:48:02Z</time>
      </trkpt>
      <trkpt lat="43.15103000000004" lon="-1.252587999999998">
        <ele>199.676</ele>
        <time>2022-08-23T16:48:03Z</time>
      </trkpt>
      <trkpt lat="43.151102000000044" lon="-1.252511999999998">
        <ele>199.446</ele>
        <time>2022-08-23T16:48:04Z</time>
      </trkpt>
      <trkpt lat="43.151175000000045" lon="-1.252438999999998">
        <ele>199.026</ele>
        <time>2022-08-23T16:48:05Z</time>
      </trkpt>
      <trkpt lat="43.151316000000044" lon="-1.2522899999999981">
        <ele>198.472</ele>
        <time>2022-08-23T16:48:07Z</time>
      </trkpt>
      <trkpt lat="43.15152800000004" lon="-1.252069999999998">
        <ele>197.474</ele>
        <time>2022-08-23T16:48:10Z</time>
      </trkpt>
      <trkpt lat="43.151741000000044" lon="-1.251853999999998">
        <ele>196.831</ele>
        <time>2022-08-23T16:48:13Z</time>
      </trkpt>
      <trkpt lat="43.151811000000045" lon="-1.251782999999998">
        <ele>196.863</ele>
        <time>2022-08-23T16:48:14Z</time>
      </trkpt>
      <trkpt lat="43.151878000000046" lon="-1.251713999999998">
        <ele>196.643</ele>
        <time>2022-08-23T16:48:15Z</time>
      </trkpt>
      <trkpt lat="43.15214500000005" lon="-1.251429999999998">
        <ele>195.872</ele>
        <time>2022-08-23T16:48:19Z</time>
      </trkpt>
      <trkpt lat="43.152348000000046" lon="-1.251216999999998">
        <ele>195.494</ele>
        <time>2022-08-23T16:48:22Z</time>
      </trkpt>
      <trkpt lat="43.152818000000046" lon="-1.250723999999998">
        <ele>194.857</ele>
        <time>2022-08-23T16:48:29Z</time>
      </trkpt>
      <trkpt lat="43.15295500000005" lon="-1.250582999999998">
        <ele>194.622</ele>
        <time>2022-08-23T16:48:31Z</time>
      </trkpt>
      <trkpt lat="43.15308400000005" lon="-1.250431999999998">
        <ele>194.209</ele>
        <time>2022-08-23T16:48:33Z</time>
      </trkpt>
      <trkpt lat="43.15321000000005" lon="-1.250275999999998">
        <ele>193.860</ele>
        <time>2022-08-23T16:48:35Z</time>
      </trkpt>
      <trkpt lat="43.15327300000005" lon="-1.250199999999998">
        <ele>193.860</ele>
        <time>2022-08-23T16:48:36Z</time>
      </trkpt>
      <trkpt lat="43.15333500000005" lon="-1.2501229999999979">
        <ele>193.680</ele>
        <time>2022-08-23T16:48:37Z</time>
      </trkpt>
      <trkpt lat="43.15339700000005" lon="-1.250051999999998">
        <ele>193.476</ele>
        <time>2022-08-23T16:48:38Z</time>
      </trkpt>
      <trkpt lat="43.15347200000005" lon="-1.249972999999998">
        <ele>193.278</ele>
        <time>2022-08-23T16:48:39Z</time>
      </trkpt>
      <trkpt lat="43.15352400000005" lon="-1.249929999999998">
        <ele>193.255</ele>
        <time>2022-08-23T16:48:40Z</time>
      </trkpt>
      <trkpt lat="43.15359400000005" lon="-1.249886999999998">
        <ele>193.267</ele>
        <time>2022-08-23T16:48:41Z</time>
      </trkpt>
      <trkpt lat="43.15387500000005" lon="-1.2497289999999979">
        <ele>193.017</ele>
        <time>2022-08-23T16:48:45Z</time>
      </trkpt>
      <trkpt lat="43.15394400000005" lon="-1.249689999999998">
        <ele>192.856</ele>
        <time>2022-08-23T16:48:46Z</time>
      </trkpt>
      <trkpt lat="43.15401500000005" lon="-1.249649999999998">
        <ele>192.846</ele>
        <time>2022-08-23T16:48:47Z</time>
      </trkpt>
      <trkpt lat="43.15409800000005" lon="-1.249602999999998">
        <ele>192.888</ele>
        <time>2022-08-23T16:48:48Z</time>
      </trkpt>
      <trkpt lat="43.15416700000005" lon="-1.249561999999998">
        <ele>192.816</ele>
        <time>2022-08-23T16:48:49Z</time>
      </trkpt>
      <trkpt lat="43.154236000000054" lon="-1.2495229999999982">
        <ele>192.809</ele>
        <time>2022-08-23T16:48:50Z</time>
      </trkpt>
      <trkpt lat="43.154292000000055" lon="-1.2494919999999983">
        <ele>192.835</ele>
        <time>2022-08-23T16:48:51Z</time>
      </trkpt>
      <trkpt lat="43.154357000000054" lon="-1.2494569999999983">
        <ele>192.835</ele>
        <time>2022-08-23T16:48:52Z</time>
      </trkpt>
      <trkpt lat="43.15443400000005" lon="-1.2494139999999982">
        <ele>192.885</ele>
        <time>2022-08-23T16:48:53Z</time>
      </trkpt>
      <trkpt lat="43.15475500000005" lon="-1.2492929999999982">
        <ele>192.661</ele>
        <time>2022-08-23T16:48:58Z</time>
      </trkpt>
      <trkpt lat="43.15498000000005" lon="-1.2492479999999981">
        <ele>192.633</ele>
        <time>2022-08-23T16:49:01Z</time>
      </trkpt>
      <trkpt lat="43.15505600000005" lon="-1.2492419999999982">
        <ele>192.620</ele>
        <time>2022-08-23T16:49:02Z</time>
      </trkpt>
      <trkpt lat="43.15513300000005" lon="-1.2492369999999982">
        <ele>192.612</ele>
        <time>2022-08-23T16:49:03Z</time>
      </trkpt>
      <trkpt lat="43.15520200000005" lon="-1.2492339999999982">
        <ele>192.412</ele>
        <time>2022-08-23T16:49:04Z</time>
      </trkpt>
      <trkpt lat="43.155269000000054" lon="-1.2492309999999982">
        <ele>192.421</ele>
        <time>2022-08-23T16:49:05Z</time>
      </trkpt>
      <trkpt lat="43.155333000000056" lon="-1.2492289999999981">
        <ele>192.225</ele>
        <time>2022-08-23T16:49:06Z</time>
      </trkpt>
      <trkpt lat="43.155395000000055" lon="-1.2492209999999981">
        <ele>192.226</ele>
        <time>2022-08-23T16:49:07Z</time>
      </trkpt>
      <trkpt lat="43.155454000000056" lon="-1.249213999999998">
        <ele>192.208</ele>
        <time>2022-08-23T16:49:08Z</time>
      </trkpt>
      <trkpt lat="43.155510000000056" lon="-1.2492049999999981">
        <ele>192.209</ele>
        <time>2022-08-23T16:49:09Z</time>
      </trkpt>
      <trkpt lat="43.15556500000006" lon="-1.2491959999999982">
        <ele>192.243</ele>
        <time>2022-08-23T16:49:10Z</time>
      </trkpt>
      <trkpt lat="43.15562100000006" lon="-1.2491839999999983">
        <ele>192.253</ele>
        <time>2022-08-23T16:49:11Z</time>
      </trkpt>
      <trkpt lat="43.15567500000006" lon="-1.2491709999999983">
        <ele>192.243</ele>
        <time>2022-08-23T16:49:12Z</time>
      </trkpt>
      <trkpt lat="43.15573100000006" lon="-1.2491609999999982">
        <ele>192.259</ele>
        <time>2022-08-23T16:49:13Z</time>
      </trkpt>
      <trkpt lat="43.15578700000006" lon="-1.2491579999999982">
        <ele>193.041</ele>
        <time>2022-08-23T16:49:14Z</time>
      </trkpt>
      <trkpt lat="43.155842000000064" lon="-1.2491579999999982">
        <ele>193.258</ele>
        <time>2022-08-23T16:49:15Z</time>
      </trkpt>
      <trkpt lat="43.155895000000065" lon="-1.249161999999998">
        <ele>193.480</ele>
        <time>2022-08-23T16:49:16Z</time>
      </trkpt>
      <trkpt lat="43.15611300000006" lon="-1.2491799999999982">
        <ele>194.480</ele>
        <time>2022-08-23T16:49:20Z</time>
      </trkpt>
      <trkpt lat="43.15616500000006" lon="-1.249191999999998">
        <ele>194.829</ele>
        <time>2022-08-23T16:49:21Z</time>
      </trkpt>
      <trkpt lat="43.156214000000055" lon="-1.2492049999999981">
        <ele>194.848</ele>
        <time>2022-08-23T16:49:22Z</time>
      </trkpt>
      <trkpt lat="43.156265000000054" lon="-1.2492179999999982">
        <ele>195.261</ele>
        <time>2022-08-23T16:49:23Z</time>
      </trkpt>
      <trkpt lat="43.156313000000054" lon="-1.2492289999999981">
        <ele>195.417</ele>
        <time>2022-08-23T16:49:24Z</time>
      </trkpt>
      <trkpt lat="43.156363000000056" lon="-1.249234999999998">
        <ele>195.609</ele>
        <time>2022-08-23T16:49:25Z</time>
      </trkpt>
      <trkpt lat="43.156411000000055" lon="-1.2492419999999982">
        <ele>196.075</ele>
        <time>2022-08-23T16:49:26Z</time>
      </trkpt>
      <trkpt lat="43.156504000000055" lon="-1.2492689999999982">
        <ele>196.225</ele>
        <time>2022-08-23T16:49:28Z</time>
      </trkpt>
      <trkpt lat="43.15655100000006" lon="-1.2492839999999983">
        <ele>196.625</ele>
        <time>2022-08-23T16:49:29Z</time>
      </trkpt>
      <trkpt lat="43.156600000000054" lon="-1.2492999999999983">
        <ele>197.041</ele>
        <time>2022-08-23T16:49:30Z</time>
      </trkpt>
      <trkpt lat="43.156650000000056" lon="-1.2493149999999984">
        <ele>197.453</ele>
        <time>2022-08-23T16:49:31Z</time>
      </trkpt>
      <trkpt lat="43.156701000000055" lon="-1.2493249999999985">
        <ele>197.820</ele>
        <time>2022-08-23T16:49:32Z</time>
      </trkpt>
      <trkpt lat="43.156754000000056" lon="-1.2493339999999984">
        <ele>198.072</ele>
        <time>2022-08-23T16:49:33Z</time>
      </trkpt>
      <trkpt lat="43.156808000000055" lon="-1.2493409999999985">
        <ele>198.242</ele>
        <time>2022-08-23T16:49:34Z</time>
      </trkpt>
      <trkpt lat="43.156862000000054" lon="-1.2493409999999985">
        <ele>198.461</ele>
        <time>2022-08-23T16:49:35Z</time>
      </trkpt>
      <trkpt lat="43.15691400000005" lon="-1.2493389999999984">
        <ele>198.433</ele>
        <time>2022-08-23T16:49:36Z</time>
      </trkpt>
      <trkpt lat="43.15696800000005" lon="-1.2493329999999985">
        <ele>198.823</ele>
        <time>2022-08-23T16:49:37Z</time>
      </trkpt>
      <trkpt lat="43.15702900000005" lon="-1.2493219999999985">
        <ele>198.815</ele>
        <time>2022-08-23T16:49:38Z</time>
      </trkpt>
      <trkpt lat="43.157070000000054" lon="-1.2493099999999986">
        <ele>199.209</ele>
        <time>2022-08-23T16:49:39Z</time>
      </trkpt>
      <trkpt lat="43.15711900000005" lon="-1.2492919999999985">
        <ele>199.274</ele>
        <time>2022-08-23T16:49:40Z</time>
      </trkpt>
      <trkpt lat="43.15717000000005" lon="-1.2492689999999984">
        <ele>199.274</ele>
        <time>2022-08-23T16:49:41Z</time>
      </trkpt>
      <trkpt lat="43.15723000000005" lon="-1.2492389999999984">
        <ele>199.654</ele>
        <time>2022-08-23T16:49:42Z</time>
      </trkpt>
      <trkpt lat="43.15726900000005" lon="-1.2492149999999984">
        <ele>199.670</ele>
        <time>2022-08-23T16:49:43Z</time>
      </trkpt>
      <trkpt lat="43.15731600000005" lon="-1.2491799999999984">
        <ele>199.822</ele>
        <time>2022-08-23T16:49:44Z</time>
      </trkpt>
      <trkpt lat="43.15736500000005" lon="-1.2491419999999984">
        <ele>199.869</ele>
        <time>2022-08-23T16:49:45Z</time>
      </trkpt>
      <trkpt lat="43.15741300000005" lon="-1.2490999999999983">
        <ele>200.081</ele>
        <time>2022-08-23T16:49:46Z</time>
      </trkpt>
      <trkpt lat="43.15745800000005" lon="-1.2490549999999983">
        <ele>200.441</ele>
        <time>2022-08-23T16:49:47Z</time>
      </trkpt>
      <trkpt lat="43.15750000000005" lon="-1.2490049999999981">
        <ele>200.410</ele>
        <time>2022-08-23T16:49:48Z</time>
      </trkpt>
      <trkpt lat="43.15753900000005" lon="-1.2489539999999981">
        <ele>200.411</ele>
        <time>2022-08-23T16:49:49Z</time>
      </trkpt>
      <trkpt lat="43.15757700000005" lon="-1.248897999999998">
        <ele>200.421</ele>
        <time>2022-08-23T16:49:50Z</time>
      </trkpt>
      <trkpt lat="43.15761200000005" lon="-1.248841999999998">
        <ele>200.603</ele>
        <time>2022-08-23T16:49:51Z</time>
      </trkpt>
      <trkpt lat="43.15764500000005" lon="-1.2487839999999981">
        <ele>200.609</ele>
        <time>2022-08-23T16:49:52Z</time>
      </trkpt>
      <trkpt lat="43.15767400000005" lon="-1.2487239999999982">
        <ele>200.692</ele>
        <time>2022-08-23T16:49:53Z</time>
      </trkpt>
      <trkpt lat="43.15770400000005" lon="-1.248651999999998">
        <ele>200.862</ele>
        <time>2022-08-23T16:49:54Z</time>
      </trkpt>
      <trkpt lat="43.157723000000054" lon="-1.248601999999998">
        <ele>200.832</ele>
        <time>2022-08-23T16:49:55Z</time>
      </trkpt>
      <trkpt lat="43.157742000000056" lon="-1.248541999999998">
        <ele>200.848</ele>
        <time>2022-08-23T16:49:56Z</time>
      </trkpt>
      <trkpt lat="43.157762000000055" lon="-1.2484839999999982">
        <ele>201.070</ele>
        <time>2022-08-23T16:49:57Z</time>
      </trkpt>
      <trkpt lat="43.157782000000054" lon="-1.248427999999998">
        <ele>201.487</ele>
        <time>2022-08-23T16:49:58Z</time>
      </trkpt>
      <trkpt lat="43.157804000000056" lon="-1.248371999999998">
        <ele>201.849</ele>
        <time>2022-08-23T16:49:59Z</time>
      </trkpt>
      <trkpt lat="43.15782600000006" lon="-1.248318999999998">
        <ele>202.099</ele>
        <time>2022-08-23T16:50:00Z</time>
      </trkpt>
      <trkpt lat="43.157849000000056" lon="-1.2482689999999979">
        <ele>202.448</ele>
        <time>2022-08-23T16:50:01Z</time>
      </trkpt>
      <trkpt lat="43.15787300000006" lon="-1.2482209999999978">
        <ele>202.678</ele>
        <time>2022-08-23T16:50:02Z</time>
      </trkpt>
      <trkpt lat="43.15790200000006" lon="-1.2481649999999977">
        <ele>203.033</ele>
        <time>2022-08-23T16:50:03Z</time>
      </trkpt>
      <trkpt lat="43.15792300000005" lon="-1.2481299999999977">
        <ele>203.226</ele>
        <time>2022-08-23T16:50:04Z</time>
      </trkpt>
      <trkpt lat="43.157950000000056" lon="-1.2480889999999978">
        <ele>203.409</ele>
        <time>2022-08-23T16:50:05Z</time>
      </trkpt>
      <trkpt lat="43.15797700000006" lon="-1.2480479999999978">
        <ele>203.678</ele>
        <time>2022-08-23T16:50:06Z</time>
      </trkpt>
      <trkpt lat="43.15800500000006" lon="-1.2480049999999978">
        <ele>203.888</ele>
        <time>2022-08-23T16:50:07Z</time>
      </trkpt>
      <trkpt lat="43.15803100000006" lon="-1.2479649999999978">
        <ele>204.298</ele>
        <time>2022-08-23T16:50:08Z</time>
      </trkpt>
      <trkpt lat="43.158060000000056" lon="-1.2479289999999978">
        <ele>204.494</ele>
        <time>2022-08-23T16:50:09Z</time>
      </trkpt>
      <trkpt lat="43.158086000000054" lon="-1.2478939999999978">
        <ele>204.876</ele>
        <time>2022-08-23T16:50:10Z</time>
      </trkpt>
      <trkpt lat="43.158108000000055" lon="-1.2478539999999978">
        <ele>205.093</ele>
        <time>2022-08-23T16:50:11Z</time>
      </trkpt>
      <trkpt lat="43.15813200000006" lon="-1.2478139999999978">
        <ele>205.485</ele>
        <time>2022-08-23T16:50:12Z</time>
      </trkpt>
      <trkpt lat="43.15815400000006" lon="-1.2477739999999977">
        <ele>205.815</ele>
        <time>2022-08-23T16:50:13Z</time>
      </trkpt>
      <trkpt lat="43.15818000000006" lon="-1.2477249999999978">
        <ele>205.884</ele>
        <time>2022-08-23T16:50:14Z</time>
      </trkpt>
      <trkpt lat="43.158198000000056" lon="-1.2476889999999978">
        <ele>206.084</ele>
        <time>2022-08-23T16:50:15Z</time>
      </trkpt>
      <trkpt lat="43.158223000000056" lon="-1.2476359999999977">
        <ele>206.407</ele>
        <time>2022-08-23T16:50:16Z</time>
      </trkpt>
      <trkpt lat="43.15823900000006" lon="-1.2475979999999978">
        <ele>206.817</ele>
        <time>2022-08-23T16:50:17Z</time>
      </trkpt>
      <trkpt lat="43.15826100000006" lon="-1.2475489999999978">
        <ele>206.809</ele>
        <time>2022-08-23T16:50:18Z</time>
      </trkpt>
      <trkpt lat="43.15828300000006" lon="-1.2474979999999978">
        <ele>207.049</ele>
        <time>2022-08-23T16:50:19Z</time>
      </trkpt>
      <trkpt lat="43.15830300000006" lon="-1.2474459999999978">
        <ele>207.019</ele>
        <time>2022-08-23T16:50:20Z</time>
      </trkpt>
      <trkpt lat="43.15832400000006" lon="-1.2473899999999978">
        <ele>207.259</ele>
        <time>2022-08-23T16:50:21Z</time>
      </trkpt>
      <trkpt lat="43.158347000000056" lon="-1.2473329999999978">
        <ele>207.225</ele>
        <time>2022-08-23T16:50:22Z</time>
      </trkpt>
      <trkpt lat="43.158370000000055" lon="-1.247274999999998">
        <ele>207.277</ele>
        <time>2022-08-23T16:50:23Z</time>
      </trkpt>
      <trkpt lat="43.158392000000056" lon="-1.2472139999999978">
        <ele>207.254</ele>
        <time>2022-08-23T16:50:24Z</time>
      </trkpt>
      <trkpt lat="43.158415000000055" lon="-1.247150999999998">
        <ele>207.466</ele>
        <time>2022-08-23T16:50:25Z</time>
      </trkpt>
      <trkpt lat="43.15844400000005" lon="-1.2470759999999979">
        <ele>207.436</ele>
        <time>2022-08-23T16:50:26Z</time>
      </trkpt>
      <trkpt lat="43.15846400000005" lon="-1.2470259999999977">
        <ele>207.485</ele>
        <time>2022-08-23T16:50:27Z</time>
      </trkpt>
      <trkpt lat="43.15848900000005" lon="-1.2469619999999977">
        <ele>207.434</ele>
        <time>2022-08-23T16:50:28Z</time>
      </trkpt>
      <trkpt lat="43.15851200000005" lon="-1.2468969999999977">
        <ele>207.655</ele>
        <time>2022-08-23T16:50:29Z</time>
      </trkpt>
      <trkpt lat="43.15854100000005" lon="-1.2468209999999977">
        <ele>207.610</ele>
        <time>2022-08-23T16:50:30Z</time>
      </trkpt>
      <trkpt lat="43.15856600000005" lon="-1.2467559999999978">
        <ele>207.609</ele>
        <time>2022-08-23T16:50:31Z</time>
      </trkpt>
      <trkpt lat="43.15858600000005" lon="-1.2467039999999978">
        <ele>207.654</ele>
        <time>2022-08-23T16:50:32Z</time>
      </trkpt>
      <trkpt lat="43.15861100000005" lon="-1.2466399999999977">
        <ele>207.684</ele>
        <time>2022-08-23T16:50:33Z</time>
      </trkpt>
      <trkpt lat="43.158635000000054" lon="-1.2465719999999978">
        <ele>207.874</ele>
        <time>2022-08-23T16:50:34Z</time>
      </trkpt>
      <trkpt lat="43.15866100000005" lon="-1.2465039999999978">
        <ele>207.890</ele>
        <time>2022-08-23T16:50:35Z</time>
      </trkpt>
      <trkpt lat="43.15868900000005" lon="-1.2464359999999979">
        <ele>207.872</ele>
        <time>2022-08-23T16:50:36Z</time>
      </trkpt>
      <trkpt lat="43.15871800000005" lon="-1.2463689999999978">
        <ele>207.849</ele>
        <time>2022-08-23T16:50:37Z</time>
      </trkpt>
      <trkpt lat="43.15874700000005" lon="-1.2463009999999979">
        <ele>207.841</ele>
        <time>2022-08-23T16:50:38Z</time>
      </trkpt>
      <trkpt lat="43.15877400000005" lon="-1.246235999999998">
        <ele>208.051</ele>
        <time>2022-08-23T16:50:39Z</time>
      </trkpt>
      <trkpt lat="43.158801000000054" lon="-1.2461669999999978">
        <ele>208.220</ele>
        <time>2022-08-23T16:50:40Z</time>
      </trkpt>
      <trkpt lat="43.158829000000054" lon="-1.2460989999999978">
        <ele>208.298</ele>
        <time>2022-08-23T16:50:41Z</time>
      </trkpt>
      <trkpt lat="43.158857000000054" lon="-1.246032999999998">
        <ele>208.215</ele>
        <time>2022-08-23T16:50:42Z</time>
      </trkpt>
      <trkpt lat="43.15888600000005" lon="-1.245967999999998">
        <ele>208.426</ele>
        <time>2022-08-23T16:50:43Z</time>
      </trkpt>
      <trkpt lat="43.158916000000055" lon="-1.245903999999998">
        <ele>208.409</ele>
        <time>2022-08-23T16:50:44Z</time>
      </trkpt>
      <trkpt lat="43.15897300000005" lon="-1.2457749999999979">
        <ele>208.460</ele>
        <time>2022-08-23T16:50:46Z</time>
      </trkpt>
      <trkpt lat="43.15901000000005" lon="-1.245700999999998">
        <ele>208.480</ele>
        <time>2022-08-23T16:50:47Z</time>
      </trkpt>
      <trkpt lat="43.15903300000005" lon="-1.245649999999998">
        <ele>208.450</ele>
        <time>2022-08-23T16:50:48Z</time>
      </trkpt>
      <trkpt lat="43.15906100000005" lon="-1.2455889999999978">
        <ele>208.456</ele>
        <time>2022-08-23T16:50:49Z</time>
      </trkpt>
      <trkpt lat="43.15908700000005" lon="-1.2455269999999978">
        <ele>208.688</ele>
        <time>2022-08-23T16:50:50Z</time>
      </trkpt>
      <trkpt lat="43.15911400000005" lon="-1.2454649999999978">
        <ele>208.635</ele>
        <time>2022-08-23T16:50:51Z</time>
      </trkpt>
      <trkpt lat="43.15914300000005" lon="-1.2454079999999979">
        <ele>208.867</ele>
        <time>2022-08-23T16:50:52Z</time>
      </trkpt>
      <trkpt lat="43.15929800000005" lon="-1.2451269999999979">
        <ele>209.467</ele>
        <time>2022-08-23T16:50:57Z</time>
      </trkpt>
      <trkpt lat="43.15941400000005" lon="-1.2449739999999978">
        <ele>209.686</ele>
        <time>2022-08-23T16:51:00Z</time>
      </trkpt>
      <trkpt lat="43.15945300000005" lon="-1.2449279999999978">
        <ele>209.648</ele>
        <time>2022-08-23T16:51:01Z</time>
      </trkpt>
      <trkpt lat="43.15949000000005" lon="-1.2448849999999978">
        <ele>209.661</ele>
        <time>2022-08-23T16:51:02Z</time>
      </trkpt>
      <trkpt lat="43.15952400000005" lon="-1.2448479999999977">
        <ele>209.617</ele>
        <time>2022-08-23T16:51:03Z</time>
      </trkpt>
      <trkpt lat="43.159559000000044" lon="-1.2448169999999978">
        <ele>209.609</ele>
        <time>2022-08-23T16:51:04Z</time>
      </trkpt>
      <trkpt lat="43.159598000000045" lon="-1.244783999999998">
        <ele>209.655</ele>
        <time>2022-08-23T16:51:05Z</time>
      </trkpt>
      <trkpt lat="43.15967900000005" lon="-1.2447229999999978">
        <ele>209.855</ele>
        <time>2022-08-23T16:51:07Z</time>
      </trkpt>
      <trkpt lat="43.15971700000005" lon="-1.2446989999999978">
        <ele>209.645</ele>
        <time>2022-08-23T16:51:08Z</time>
      </trkpt>
      <trkpt lat="43.15975700000005" lon="-1.2446739999999978">
        <ele>209.671</ele>
        <time>2022-08-23T16:51:09Z</time>
      </trkpt>
      <trkpt lat="43.15979700000005" lon="-1.2446479999999978">
        <ele>209.613</ele>
        <time>2022-08-23T16:51:10Z</time>
      </trkpt>
      <trkpt lat="43.15983600000005" lon="-1.2446269999999977">
        <ele>209.610</ele>
        <time>2022-08-23T16:51:11Z</time>
      </trkpt>
      <trkpt lat="43.16014800000005" lon="-1.2445259999999978">
        <ele>209.472</ele>
        <time>2022-08-23T16:51:18Z</time>
      </trkpt>
      <trkpt lat="43.16048600000005" lon="-1.2445279999999979">
        <ele>208.652</ele>
        <time>2022-08-23T16:51:24Z</time>
      </trkpt>
      <trkpt lat="43.160732000000046" lon="-1.2445579999999978">
        <ele>207.631</ele>
        <time>2022-08-23T16:51:28Z</time>
      </trkpt>
      <trkpt lat="43.16079800000004" lon="-1.2445659999999978">
        <ele>207.426</ele>
        <time>2022-08-23T16:51:29Z</time>
      </trkpt>
      <trkpt lat="43.16099600000004" lon="-1.2446059999999979">
        <ele>206.647</ele>
        <time>2022-08-23T16:51:32Z</time>
      </trkpt>
      <trkpt lat="43.16106500000004" lon="-1.2446149999999978">
        <ele>206.411</ele>
        <time>2022-08-23T16:51:33Z</time>
      </trkpt>
      <trkpt lat="43.161213000000046" lon="-1.2446309999999978">
        <ele>206.009</ele>
        <time>2022-08-23T16:51:35Z</time>
      </trkpt>
      <trkpt lat="43.161602000000045" lon="-1.244664999999998">
        <ele>205.293</ele>
        <time>2022-08-23T16:51:40Z</time>
      </trkpt>
      <trkpt lat="43.16182800000004" lon="-1.244688999999998">
        <ele>204.643</ele>
        <time>2022-08-23T16:51:43Z</time>
      </trkpt>
      <trkpt lat="43.161982000000044" lon="-1.244706999999998">
        <ele>204.013</ele>
        <time>2022-08-23T16:51:45Z</time>
      </trkpt>
      <trkpt lat="43.16222200000004" lon="-1.244725999999998">
        <ele>203.229</ele>
        <time>2022-08-23T16:51:48Z</time>
      </trkpt>
      <trkpt lat="43.162308000000046" lon="-1.244718999999998">
        <ele>203.061</ele>
        <time>2022-08-23T16:51:49Z</time>
      </trkpt>
      <trkpt lat="43.162393000000044" lon="-1.2446949999999979">
        <ele>202.898</ele>
        <time>2022-08-23T16:51:50Z</time>
      </trkpt>
      <trkpt lat="43.162550000000046" lon="-1.2445929999999978">
        <ele>201.840</ele>
        <time>2022-08-23T16:51:52Z</time>
      </trkpt>
      <trkpt lat="43.16262000000005" lon="-1.244521999999998">
        <ele>201.430</ele>
        <time>2022-08-23T16:51:53Z</time>
      </trkpt>
      <trkpt lat="43.162682000000046" lon="-1.2444359999999979">
        <ele>200.869</ele>
        <time>2022-08-23T16:51:54Z</time>
      </trkpt>
      <trkpt lat="43.162733000000046" lon="-1.2443359999999979">
        <ele>200.688</ele>
        <time>2022-08-23T16:51:55Z</time>
      </trkpt>
      <trkpt lat="43.16277600000004" lon="-1.244229999999998">
        <ele>200.024</ele>
        <time>2022-08-23T16:51:56Z</time>
      </trkpt>
      <trkpt lat="43.162812000000045" lon="-1.2441229999999979">
        <ele>199.826</ele>
        <time>2022-08-23T16:51:57Z</time>
      </trkpt>
      <trkpt lat="43.16284800000005" lon="-1.2440209999999978">
        <ele>199.209</ele>
        <time>2022-08-23T16:51:58Z</time>
      </trkpt>
      <trkpt lat="43.16288100000005" lon="-1.2439289999999978">
        <ele>198.829</ele>
        <time>2022-08-23T16:51:59Z</time>
      </trkpt>
      <trkpt lat="43.16290800000005" lon="-1.243846999999998">
        <ele>198.479</ele>
        <time>2022-08-23T16:52:00Z</time>
      </trkpt>
      <trkpt lat="43.16293300000005" lon="-1.2437719999999979">
        <ele>198.279</ele>
        <time>2022-08-23T16:52:01Z</time>
      </trkpt>
      <trkpt lat="43.163039000000055" lon="-1.2434329999999978">
        <ele>196.685</ele>
        <time>2022-08-23T16:52:05Z</time>
      </trkpt>
      <trkpt lat="43.163115000000055" lon="-1.2431589999999977">
        <ele>195.297</ele>
        <time>2022-08-23T16:52:08Z</time>
      </trkpt>
      <trkpt lat="43.163216000000055" lon="-1.2427659999999976">
        <ele>193.624</ele>
        <time>2022-08-23T16:52:12Z</time>
      </trkpt>
      <trkpt lat="43.16329700000006" lon="-1.2424569999999977">
        <ele>192.496</ele>
        <time>2022-08-23T16:52:15Z</time>
      </trkpt>
      <trkpt lat="43.16337800000006" lon="-1.2421359999999977">
        <ele>191.086</ele>
        <time>2022-08-23T16:52:18Z</time>
      </trkpt>
      <trkpt lat="43.163396000000056" lon="-1.2420219999999977">
        <ele>191.075</ele>
        <time>2022-08-23T16:52:19Z</time>
      </trkpt>
      <trkpt lat="43.16340900000006" lon="-1.2419039999999977">
        <ele>190.673</ele>
        <time>2022-08-23T16:52:20Z</time>
      </trkpt>
      <trkpt lat="43.16342200000006" lon="-1.2416619999999976">
        <ele>189.885</ele>
        <time>2022-08-23T16:52:22Z</time>
      </trkpt>
      <trkpt lat="43.16342300000006" lon="-1.2415429999999976">
        <ele>189.613</ele>
        <time>2022-08-23T16:52:23Z</time>
      </trkpt>
      <trkpt lat="43.16341600000006" lon="-1.2414269999999976">
        <ele>189.009</ele>
        <time>2022-08-23T16:52:24Z</time>
      </trkpt>
      <trkpt lat="43.163395000000065" lon="-1.2413139999999976">
        <ele>188.468</ele>
        <time>2022-08-23T16:52:25Z</time>
      </trkpt>
      <trkpt lat="43.163361000000066" lon="-1.2412059999999976">
        <ele>188.268</ele>
        <time>2022-08-23T16:52:26Z</time>
      </trkpt>
      <trkpt lat="43.16331500000007" lon="-1.2411059999999976">
        <ele>187.858</ele>
        <time>2022-08-23T16:52:27Z</time>
      </trkpt>
      <trkpt lat="43.16326900000007" lon="-1.2410119999999976">
        <ele>187.664</ele>
        <time>2022-08-23T16:52:28Z</time>
      </trkpt>
      <trkpt lat="43.16322500000007" lon="-1.2409229999999976">
        <ele>186.866</ele>
        <time>2022-08-23T16:52:29Z</time>
      </trkpt>
      <trkpt lat="43.16318200000007" lon="-1.2408369999999975">
        <ele>186.643</ele>
        <time>2022-08-23T16:52:30Z</time>
      </trkpt>
      <trkpt lat="43.16314400000007" lon="-1.2407559999999975">
        <ele>185.845</ele>
        <time>2022-08-23T16:52:31Z</time>
      </trkpt>
      <trkpt lat="43.16310700000007" lon="-1.2406779999999975">
        <ele>185.225</ele>
        <time>2022-08-23T16:52:32Z</time>
      </trkpt>
      <trkpt lat="43.16306700000007" lon="-1.2406029999999975">
        <ele>184.824</ele>
        <time>2022-08-23T16:52:33Z</time>
      </trkpt>
      <trkpt lat="43.16303000000007" lon="-1.2405309999999974">
        <ele>184.438</ele>
        <time>2022-08-23T16:52:34Z</time>
      </trkpt>
      <trkpt lat="43.16300000000007" lon="-1.2404589999999973">
        <ele>184.470</ele>
        <time>2022-08-23T16:52:35Z</time>
      </trkpt>
      <trkpt lat="43.16296800000007" lon="-1.2403959999999974">
        <ele>184.417</ele>
        <time>2022-08-23T16:52:36Z</time>
      </trkpt>
      <trkpt lat="43.16293500000007" lon="-1.2403509999999973">
        <ele>184.209</ele>
        <time>2022-08-23T16:52:37Z</time>
      </trkpt>
      <trkpt lat="43.16290400000007" lon="-1.2403249999999972">
        <ele>183.824</ele>
        <time>2022-08-23T16:52:38Z</time>
      </trkpt>
      <trkpt lat="43.16287800000007" lon="-1.2403129999999973">
        <ele>183.434</ele>
        <time>2022-08-23T16:52:39Z</time>
      </trkpt>
      <trkpt lat="43.16285800000007" lon="-1.2403069999999974">
        <ele>183.224</ele>
        <time>2022-08-23T16:52:40Z</time>
      </trkpt>
      <trkpt lat="43.16284500000007" lon="-1.2403009999999974">
        <ele>183.030</ele>
        <time>2022-08-23T16:52:41Z</time>
      </trkpt>
      <trkpt lat="43.16284200000007" lon="-1.2403019999999974">
        <ele>179.232</ele>
        <time>2022-08-23T16:56:58Z</time>
      </trkpt>
      <trkpt lat="43.16284200000007" lon="-1.2403019999999974">
        <ele>182.229</ele>
        <time>2022-08-23T16:56:59Z</time>
      </trkpt>
      <trkpt lat="43.162843000000066" lon="-1.2402999999999973">
        <ele>182.241</ele>
        <time>2022-08-23T16:57:00Z</time>
      </trkpt>
      <trkpt lat="43.162841000000064" lon="-1.2402849999999972">
        <ele>182.221</ele>
        <time>2022-08-23T16:57:01Z</time>
      </trkpt>
      <trkpt lat="43.16283700000007" lon="-1.2402659999999972">
        <ele>182.230</ele>
        <time>2022-08-23T16:57:02Z</time>
      </trkpt>
      <trkpt lat="43.162838000000065" lon="-1.2402409999999973">
        <ele>182.246</ele>
        <time>2022-08-23T16:57:03Z</time>
      </trkpt>
      <trkpt lat="43.162798000000066" lon="-1.2400369999999972">
        <ele>182.288</ele>
        <time>2022-08-23T16:57:09Z</time>
      </trkpt>
      <trkpt lat="43.16277500000007" lon="-1.2400089999999973">
        <ele>182.216</ele>
        <time>2022-08-23T16:57:10Z</time>
      </trkpt>
      <trkpt lat="43.16275200000007" lon="-1.2399799999999972">
        <ele>182.209</ele>
        <time>2022-08-23T16:57:11Z</time>
      </trkpt>
      <trkpt lat="43.16272700000007" lon="-1.2399529999999972">
        <ele>182.075</ele>
        <time>2022-08-23T16:57:12Z</time>
      </trkpt>
      <trkpt lat="43.162697000000065" lon="-1.2399119999999972">
        <ele>182.085</ele>
        <time>2022-08-23T16:57:13Z</time>
      </trkpt>
      <trkpt lat="43.162658000000064" lon="-1.2398409999999973">
        <ele>182.045</ele>
        <time>2022-08-23T16:57:15Z</time>
      </trkpt>
      <trkpt lat="43.16264000000007" lon="-1.2397999999999973">
        <ele>182.011</ele>
        <time>2022-08-23T16:57:16Z</time>
      </trkpt>
      <trkpt lat="43.16262200000007" lon="-1.2397629999999973">
        <ele>182.033</ele>
        <time>2022-08-23T16:57:17Z</time>
      </trkpt>
      <trkpt lat="43.16260300000007" lon="-1.2397299999999973">
        <ele>182.230</ele>
        <time>2022-08-23T16:57:18Z</time>
      </trkpt>
      <trkpt lat="43.16258400000007" lon="-1.2396989999999974">
        <ele>182.232</ele>
        <time>2022-08-23T16:57:19Z</time>
      </trkpt>
      <trkpt lat="43.162565000000065" lon="-1.2396689999999975">
        <ele>182.042</ele>
        <time>2022-08-23T16:57:20Z</time>
      </trkpt>
      <trkpt lat="43.162548000000065" lon="-1.2396409999999976">
        <ele>182.421</ele>
        <time>2022-08-23T16:57:21Z</time>
      </trkpt>
      <trkpt lat="43.16253300000007" lon="-1.2396099999999977">
        <ele>182.692</ele>
        <time>2022-08-23T16:57:22Z</time>
      </trkpt>
      <trkpt lat="43.162517000000065" lon="-1.2395799999999977">
        <ele>182.673</ele>
        <time>2022-08-23T16:57:23Z</time>
      </trkpt>
      <trkpt lat="43.16250200000007" lon="-1.2395519999999978">
        <ele>182.820</ele>
        <time>2022-08-23T16:57:24Z</time>
      </trkpt>
      <trkpt lat="43.16239200000007" lon="-1.2394199999999977">
        <ele>183.409</ele>
        <time>2022-08-23T16:57:29Z</time>
      </trkpt>
      <trkpt lat="43.16236600000007" lon="-1.2393949999999978">
        <ele>183.430</ele>
        <time>2022-08-23T16:57:30Z</time>
      </trkpt>
      <trkpt lat="43.16234300000007" lon="-1.2393759999999978">
        <ele>183.670</ele>
        <time>2022-08-23T16:57:31Z</time>
      </trkpt>
      <trkpt lat="43.16226700000007" lon="-1.239309999999998">
        <ele>183.650</ele>
        <time>2022-08-23T16:57:34Z</time>
      </trkpt>
      <trkpt lat="43.16224300000007" lon="-1.2392919999999978">
        <ele>183.616</ele>
        <time>2022-08-23T16:57:35Z</time>
      </trkpt>
      <trkpt lat="43.162171000000065" lon="-1.2392309999999978">
        <ele>183.838</ele>
        <time>2022-08-23T16:57:38Z</time>
      </trkpt>
      <trkpt lat="43.16214700000006" lon="-1.2392069999999977">
        <ele>183.875</ele>
        <time>2022-08-23T16:57:39Z</time>
      </trkpt>
      <trkpt lat="43.16204300000006" lon="-1.2391089999999978">
        <ele>183.687</ele>
        <time>2022-08-23T16:57:43Z</time>
      </trkpt>
      <trkpt lat="43.16201600000006" lon="-1.2390869999999978">
        <ele>183.627</ele>
        <time>2022-08-23T16:57:44Z</time>
      </trkpt>
      <trkpt lat="43.16198800000006" lon="-1.2390679999999978">
        <ele>183.626</ele>
        <time>2022-08-23T16:57:45Z</time>
      </trkpt>
      <trkpt lat="43.16196700000006" lon="-1.2390519999999978">
        <ele>183.657</ele>
        <time>2022-08-23T16:57:46Z</time>
      </trkpt>
      <trkpt lat="43.161949000000064" lon="-1.2390419999999978">
        <ele>183.600</ele>
        <time>2022-08-23T16:57:47Z</time>
      </trkpt>
      <trkpt lat="43.16193300000006" lon="-1.2390409999999978">
        <ele>183.620</ele>
        <time>2022-08-23T16:57:48Z</time>
      </trkpt>
      <trkpt lat="43.161918000000064" lon="-1.2390349999999979">
        <ele>183.609</ele>
        <time>2022-08-23T16:57:49Z</time>
      </trkpt>
      <trkpt lat="43.16187700000006" lon="-1.2389949999999978">
        <ele>183.446</ele>
        <time>2022-08-23T16:59:24Z</time>
      </trkpt>
      <trkpt lat="43.16186600000006" lon="-1.2389839999999979">
        <ele>183.486</ele>
        <time>2022-08-23T16:59:25Z</time>
      </trkpt>
      <trkpt lat="43.162496" lon="-1.237244">
        <ele>168.869</ele>
        <time>2022-08-24T06:15:10Z</time>
      </trkpt>
      <trkpt lat="43.162499999999994" lon="-1.23721">
        <ele>172.404</ele>
        <time>2022-08-24T06:15:39Z</time>
      </trkpt>
      <trkpt lat="43.16249199999999" lon="-1.2372159999999999">
        <ele>172.424</ele>
        <time>2022-08-24T06:15:41Z</time>
      </trkpt>
      <trkpt lat="43.16247499999999" lon="-1.2371819999999998">
        <ele>172.409</ele>
        <time>2022-08-24T06:23:29Z</time>
      </trkpt>
      <trkpt lat="43.16248199999999" lon="-1.2372099999999997">
        <ele>172.457</ele>
        <time>2022-08-24T06:23:33Z</time>
      </trkpt>
      <trkpt lat="43.16246899999999" lon="-1.2372169999999998">
        <ele>172.257</ele>
        <time>2022-08-24T06:23:34Z</time>
      </trkpt>
      <trkpt lat="43.162435999999985" lon="-1.2372249999999998">
        <ele>172.227</ele>
        <time>2022-08-24T06:23:35Z</time>
      </trkpt>
      <trkpt lat="43.16238999999999" lon="-1.2372359999999998">
        <ele>172.283</ele>
        <time>2022-08-24T06:23:36Z</time>
      </trkpt>
      <trkpt lat="43.162359999999985" lon="-1.2372449999999997">
        <ele>172.255</ele>
        <time>2022-08-24T06:23:37Z</time>
      </trkpt>
      <trkpt lat="43.16233299999998" lon="-1.2372509999999997">
        <ele>172.232</ele>
        <time>2022-08-24T06:23:38Z</time>
      </trkpt>
      <trkpt lat="43.16231299999998" lon="-1.2372599999999996">
        <ele>172.235</ele>
        <time>2022-08-24T06:23:39Z</time>
      </trkpt>
      <trkpt lat="43.162294999999986" lon="-1.2372709999999996">
        <ele>172.079</ele>
        <time>2022-08-24T06:23:40Z</time>
      </trkpt>
      <trkpt lat="43.16217099999999" lon="-1.2373279999999995">
        <ele>171.888</ele>
        <time>2022-08-24T06:23:45Z</time>
      </trkpt>
      <trkpt lat="43.162081999999984" lon="-1.2373809999999996">
        <ele>171.825</ele>
        <time>2022-08-24T06:23:48Z</time>
      </trkpt>
      <trkpt lat="43.16205799999998" lon="-1.2373899999999995">
        <ele>171.826</ele>
        <time>2022-08-24T06:23:49Z</time>
      </trkpt>
      <trkpt lat="43.16203399999998" lon="-1.2374019999999994">
        <ele>171.608</ele>
        <time>2022-08-24T06:23:50Z</time>
      </trkpt>
      <trkpt lat="43.16201299999998" lon="-1.2374159999999994">
        <ele>171.609</ele>
        <time>2022-08-24T06:23:51Z</time>
      </trkpt>
      <trkpt lat="43.16199299999998" lon="-1.2374249999999993">
        <ele>171.693</ele>
        <time>2022-08-24T06:23:52Z</time>
      </trkpt>
      <trkpt lat="43.16197899999998" lon="-1.2374319999999994">
        <ele>171.633</ele>
        <time>2022-08-24T06:23:53Z</time>
      </trkpt>
      <trkpt lat="43.16196999999998" lon="-1.2374369999999995">
        <ele>171.613</ele>
        <time>2022-08-24T06:23:54Z</time>
      </trkpt>
      <trkpt lat="43.161957999999984" lon="-1.2374469999999995">
        <ele>171.659</ele>
        <time>2022-08-24T06:23:55Z</time>
      </trkpt>
      <trkpt lat="43.161940999999985" lon="-1.2374609999999995">
        <ele>171.661</ele>
        <time>2022-08-24T06:23:56Z</time>
      </trkpt>
      <trkpt lat="43.16192199999998" lon="-1.2374709999999995">
        <ele>171.678</ele>
        <time>2022-08-24T06:23:57Z</time>
      </trkpt>
      <trkpt lat="43.16184899999998" lon="-1.2375069999999995">
        <ele>172.081</ele>
        <time>2022-08-24T06:24:01Z</time>
      </trkpt>
      <trkpt lat="43.161819999999985" lon="-1.2375149999999995">
        <ele>172.225</ele>
        <time>2022-08-24T06:24:02Z</time>
      </trkpt>
      <trkpt lat="43.161701999999984" lon="-1.2375849999999995">
        <ele>172.214</ele>
        <time>2022-08-24T06:24:07Z</time>
      </trkpt>
      <trkpt lat="43.161684999999984" lon="-1.2375959999999995">
        <ele>172.265</ele>
        <time>2022-08-24T06:24:08Z</time>
      </trkpt>
      <trkpt lat="43.16166999999999" lon="-1.2376089999999995">
        <ele>172.268</ele>
        <time>2022-08-24T06:24:09Z</time>
      </trkpt>
      <trkpt lat="43.16162699999999" lon="-1.2376459999999996">
        <ele>172.214</ele>
        <time>2022-08-24T06:24:11Z</time>
      </trkpt>
      <trkpt lat="43.161596999999986" lon="-1.2376629999999995">
        <ele>172.209</ele>
        <time>2022-08-24T06:24:12Z</time>
      </trkpt>
      <trkpt lat="43.16156999999998" lon="-1.2376759999999996">
        <ele>172.297</ele>
        <time>2022-08-24T06:24:13Z</time>
      </trkpt>
      <trkpt lat="43.16154299999998" lon="-1.2376919999999996">
        <ele>172.267</ele>
        <time>2022-08-24T06:24:14Z</time>
      </trkpt>
      <trkpt lat="43.16152399999998" lon="-1.2377039999999995">
        <ele>172.237</ele>
        <time>2022-08-24T06:24:15Z</time>
      </trkpt>
      <trkpt lat="43.16151799999998" lon="-1.2377199999999995">
        <ele>172.213</ele>
        <time>2022-08-24T06:24:16Z</time>
      </trkpt>
      <trkpt lat="43.16150699999998" lon="-1.2378059999999995">
        <ele>172.225</ele>
        <time>2022-08-24T06:24:18Z</time>
      </trkpt>
      <trkpt lat="43.16152099999998" lon="-1.2378439999999995">
        <ele>172.262</ele>
        <time>2022-08-24T06:24:19Z</time>
      </trkpt>
      <trkpt lat="43.16155399999998" lon="-1.2379569999999995">
        <ele>172.275</ele>
        <time>2022-08-24T06:24:22Z</time>
      </trkpt>
      <trkpt lat="43.16155699999998" lon="-1.2380089999999995">
        <ele>172.269</ele>
        <time>2022-08-24T06:24:23Z</time>
      </trkpt>
      <trkpt lat="43.16159299999998" lon="-1.2382429999999995">
        <ele>172.058</ele>
        <time>2022-08-24T06:24:28Z</time>
      </trkpt>
      <trkpt lat="43.16159299999998" lon="-1.2382959999999996">
        <ele>171.877</ele>
        <time>2022-08-24T06:24:29Z</time>
      </trkpt>
      <trkpt lat="43.161622999999985" lon="-1.2383929999999996">
        <ele>171.661</ele>
        <time>2022-08-24T06:24:31Z</time>
      </trkpt>
      <trkpt lat="43.161644999999986" lon="-1.2384409999999997">
        <ele>171.627</ele>
        <time>2022-08-24T06:24:32Z</time>
      </trkpt>
      <trkpt lat="43.16165499999999" lon="-1.2384789999999997">
        <ele>171.409</ele>
        <time>2022-08-24T06:24:33Z</time>
      </trkpt>
      <trkpt lat="43.161658999999986" lon="-1.2385049999999997">
        <ele>171.428</ele>
        <time>2022-08-24T06:24:34Z</time>
      </trkpt>
      <trkpt lat="43.161661999999986" lon="-1.2385339999999998">
        <ele>171.428</ele>
        <time>2022-08-24T06:24:35Z</time>
      </trkpt>
      <trkpt lat="43.16166899999998" lon="-1.2385619999999997">
        <ele>171.458</ele>
        <time>2022-08-24T06:24:36Z</time>
      </trkpt>
      <trkpt lat="43.161678999999985" lon="-1.2385909999999998">
        <ele>171.474</ele>
        <time>2022-08-24T06:24:37Z</time>
      </trkpt>
      <trkpt lat="43.161684999999984" lon="-1.2386209999999997">
        <ele>171.416</ele>
        <time>2022-08-24T06:24:38Z</time>
      </trkpt>
      <trkpt lat="43.16169499999999" lon="-1.2386469999999998">
        <ele>171.433</ele>
        <time>2022-08-24T06:24:39Z</time>
      </trkpt>
      <trkpt lat="43.161703999999986" lon="-1.2386759999999999">
        <ele>171.616</ele>
        <time>2022-08-24T06:24:40Z</time>
      </trkpt>
      <trkpt lat="43.161709999999985" lon="-1.2387089999999998">
        <ele>171.660</ele>
        <time>2022-08-24T06:24:41Z</time>
      </trkpt>
      <trkpt lat="43.16171699999998" lon="-1.238738">
        <ele>171.689</ele>
        <time>2022-08-24T06:24:42Z</time>
      </trkpt>
      <trkpt lat="43.16172299999998" lon="-1.2387629999999998">
        <ele>171.872</ele>
        <time>2022-08-24T06:24:43Z</time>
      </trkpt>
      <trkpt lat="43.16173199999998" lon="-1.2387799999999998">
        <ele>171.813</ele>
        <time>2022-08-24T06:24:44Z</time>
      </trkpt>
      <trkpt lat="43.16173999999998" lon="-1.2387959999999998">
        <ele>171.814</ele>
        <time>2022-08-24T06:24:45Z</time>
      </trkpt>
      <trkpt lat="43.16175599999998" lon="-1.2388389999999998">
        <ele>171.809</ele>
        <time>2022-08-24T06:24:47Z</time>
      </trkpt>
      <trkpt lat="43.16173699999998" lon="-1.2388849999999998">
        <ele>172.058</ele>
        <time>2022-08-24T06:24:49Z</time>
      </trkpt>
      <trkpt lat="43.16172199999998" lon="-1.2388979999999998">
        <ele>172.068</ele>
        <time>2022-08-24T06:24:50Z</time>
      </trkpt>
      <trkpt lat="43.16170099999999" lon="-1.2389059999999998">
        <ele>172.088</ele>
        <time>2022-08-24T06:24:51Z</time>
      </trkpt>
      <trkpt lat="43.16168099999999" lon="-1.2389089999999998">
        <ele>172.234</ele>
        <time>2022-08-24T06:24:52Z</time>
      </trkpt>
      <trkpt lat="43.16166699999999" lon="-1.2389109999999999">
        <ele>172.276</ele>
        <time>2022-08-24T06:24:53Z</time>
      </trkpt>
      <trkpt lat="43.161650999999985" lon="-1.2389149999999998">
        <ele>172.243</ele>
        <time>2022-08-24T06:24:54Z</time>
      </trkpt>
      <trkpt lat="43.16163299999999" lon="-1.2389179999999997">
        <ele>172.466</ele>
        <time>2022-08-24T06:24:55Z</time>
      </trkpt>
      <trkpt lat="43.16161599999999" lon="-1.2389219999999996">
        <ele>172.650</ele>
        <time>2022-08-24T06:24:56Z</time>
      </trkpt>
      <trkpt lat="43.16160099999999" lon="-1.2389259999999995">
        <ele>172.859</ele>
        <time>2022-08-24T06:24:57Z</time>
      </trkpt>
      <trkpt lat="43.16158799999999" lon="-1.2389279999999996">
        <ele>173.056</ele>
        <time>2022-08-24T06:24:58Z</time>
      </trkpt>
      <trkpt lat="43.16157599999999" lon="-1.2389319999999995">
        <ele>173.259</ele>
        <time>2022-08-24T06:24:59Z</time>
      </trkpt>
      <trkpt lat="43.16156299999999" lon="-1.2389339999999995">
        <ele>173.614</ele>
        <time>2022-08-24T06:25:00Z</time>
      </trkpt>
      <trkpt lat="43.16154799999999" lon="-1.2389389999999996">
        <ele>173.809</ele>
        <time>2022-08-24T06:25:01Z</time>
      </trkpt>
      <trkpt lat="43.161475999999986" lon="-1.2389619999999997">
        <ele>174.826</ele>
        <time>2022-08-24T06:25:06Z</time>
      </trkpt>
      <trkpt lat="43.161461999999986" lon="-1.2389709999999996">
        <ele>175.036</ele>
        <time>2022-08-24T06:25:07Z</time>
      </trkpt>
      <trkpt lat="43.16144699999999" lon="-1.2389769999999996">
        <ele>175.476</ele>
        <time>2022-08-24T06:25:08Z</time>
      </trkpt>
      <trkpt lat="43.16143499999999" lon="-1.2389859999999995">
        <ele>175.822</ele>
        <time>2022-08-24T06:25:09Z</time>
      </trkpt>
      <trkpt lat="43.16141899999999" lon="-1.2389939999999995">
        <ele>175.834</ele>
        <time>2022-08-24T06:25:10Z</time>
      </trkpt>
      <trkpt lat="43.16140499999999" lon="-1.2390019999999995">
        <ele>176.261</ele>
        <time>2022-08-24T06:25:11Z</time>
      </trkpt>
      <trkpt lat="43.16139399999999" lon="-1.2390059999999994">
        <ele>176.254</ele>
        <time>2022-08-24T06:25:12Z</time>
      </trkpt>
      <trkpt lat="43.161385999999986" lon="-1.2390109999999994">
        <ele>176.488</ele>
        <time>2022-08-24T06:25:13Z</time>
      </trkpt>
      <trkpt lat="43.16137699999999" lon="-1.2390179999999995">
        <ele>176.627</ele>
        <time>2022-08-24T06:25:14Z</time>
      </trkpt>
      <trkpt lat="43.161366999999984" lon="-1.2390269999999994">
        <ele>176.883</ele>
        <time>2022-08-24T06:25:15Z</time>
      </trkpt>
      <trkpt lat="43.16135399999998" lon="-1.2390379999999994">
        <ele>177.025</ele>
        <time>2022-08-24T06:25:16Z</time>
      </trkpt>
      <trkpt lat="43.161338999999984" lon="-1.2390489999999994">
        <ele>177.217</ele>
        <time>2022-08-24T06:25:17Z</time>
      </trkpt>
      <trkpt lat="43.161323999999986" lon="-1.2390629999999994">
        <ele>177.209</ele>
        <time>2022-08-24T06:25:18Z</time>
      </trkpt>
      <trkpt lat="43.16130899999999" lon="-1.2390749999999993">
        <ele>177.429</ele>
        <time>2022-08-24T06:25:19Z</time>
      </trkpt>
      <trkpt lat="43.16129499999999" lon="-1.2390849999999993">
        <ele>177.699</ele>
        <time>2022-08-24T06:25:20Z</time>
      </trkpt>
      <trkpt lat="43.16128099999999" lon="-1.2390939999999993">
        <ele>177.859</ele>
        <time>2022-08-24T06:25:21Z</time>
      </trkpt>
      <trkpt lat="43.16126899999999" lon="-1.2391049999999992">
        <ele>178.225</ele>
        <time>2022-08-24T06:25:22Z</time>
      </trkpt>
      <trkpt lat="43.16125699999999" lon="-1.2391159999999992">
        <ele>178.447</ele>
        <time>2022-08-24T06:25:23Z</time>
      </trkpt>
      <trkpt lat="43.16124399999999" lon="-1.2391279999999991">
        <ele>178.484</ele>
        <time>2022-08-24T06:25:24Z</time>
      </trkpt>
      <trkpt lat="43.16123099999999" lon="-1.239139999999999">
        <ele>178.657</ele>
        <time>2022-08-24T06:25:25Z</time>
      </trkpt>
      <trkpt lat="43.16121599999999" lon="-1.239151999999999">
        <ele>178.671</ele>
        <time>2022-08-24T06:25:26Z</time>
      </trkpt>
      <trkpt lat="43.16120199999999" lon="-1.239167999999999">
        <ele>179.040</ele>
        <time>2022-08-24T06:25:27Z</time>
      </trkpt>
      <trkpt lat="43.16118999999999" lon="-1.239180999999999">
        <ele>179.055</ele>
        <time>2022-08-24T06:25:28Z</time>
      </trkpt>
      <trkpt lat="43.16118099999999" lon="-1.2391929999999989">
        <ele>179.207</ele>
        <time>2022-08-24T06:25:29Z</time>
      </trkpt>
      <trkpt lat="43.16117199999999" lon="-1.2392069999999988">
        <ele>179.417</ele>
        <time>2022-08-24T06:25:30Z</time>
      </trkpt>
      <trkpt lat="43.161159999999995" lon="-1.2392189999999987">
        <ele>179.609</ele>
        <time>2022-08-24T06:25:31Z</time>
      </trkpt>
      <trkpt lat="43.16114699999999" lon="-1.2392339999999988">
        <ele>179.666</ele>
        <time>2022-08-24T06:25:32Z</time>
      </trkpt>
      <trkpt lat="43.16113299999999" lon="-1.2392459999999987">
        <ele>179.886</ele>
        <time>2022-08-24T06:25:33Z</time>
      </trkpt>
      <trkpt lat="43.16111599999999" lon="-1.2392559999999988">
        <ele>179.846</ele>
        <time>2022-08-24T06:25:34Z</time>
      </trkpt>
      <trkpt lat="43.16110299999999" lon="-1.2392689999999988">
        <ele>180.022</ele>
        <time>2022-08-24T06:25:35Z</time>
      </trkpt>
      <trkpt lat="43.16108999999999" lon="-1.2392859999999988">
        <ele>180.034</ele>
        <time>2022-08-24T06:25:36Z</time>
      </trkpt>
      <trkpt lat="43.16107499999999" lon="-1.2393039999999989">
        <ele>180.221</ele>
        <time>2022-08-24T06:25:37Z</time>
      </trkpt>
      <trkpt lat="43.16105699999999" lon="-1.2393199999999989">
        <ele>180.284</ele>
        <time>2022-08-24T06:25:38Z</time>
      </trkpt>
      <trkpt lat="43.16103699999999" lon="-1.2393359999999989">
        <ele>180.418</ele>
        <time>2022-08-24T06:25:39Z</time>
      </trkpt>
      <trkpt lat="43.16101799999999" lon="-1.239351999999999">
        <ele>180.447</ele>
        <time>2022-08-24T06:25:40Z</time>
      </trkpt>
      <trkpt lat="43.16099899999999" lon="-1.239361999999999">
        <ele>180.645</ele>
        <time>2022-08-24T06:25:41Z</time>
      </trkpt>
      <trkpt lat="43.16098499999999" lon="-1.239371999999999">
        <ele>180.647</ele>
        <time>2022-08-24T06:25:42Z</time>
      </trkpt>
      <trkpt lat="43.16096299999999" lon="-1.2393869999999991">
        <ele>180.811</ele>
        <time>2022-08-24T06:25:43Z</time>
      </trkpt>
      <trkpt lat="43.160943999999986" lon="-1.239400999999999">
        <ele>180.809</ele>
        <time>2022-08-24T06:25:44Z</time>
      </trkpt>
      <trkpt lat="43.16092299999999" lon="-1.2394109999999992">
        <ele>180.825</ele>
        <time>2022-08-24T06:25:45Z</time>
      </trkpt>
      <trkpt lat="43.16090199999999" lon="-1.239416999999999">
        <ele>180.875</ele>
        <time>2022-08-24T06:25:46Z</time>
      </trkpt>
      <trkpt lat="43.16087999999999" lon="-1.239420999999999">
        <ele>181.085</ele>
        <time>2022-08-24T06:25:47Z</time>
      </trkpt>
      <trkpt lat="43.16085999999999" lon="-1.239422999999999">
        <ele>181.071</ele>
        <time>2022-08-24T06:25:48Z</time>
      </trkpt>
      <trkpt lat="43.160833999999994" lon="-1.2394189999999992">
        <ele>181.043</ele>
        <time>2022-08-24T06:25:49Z</time>
      </trkpt>
      <trkpt lat="43.160813999999995" lon="-1.2394099999999992">
        <ele>181.070</ele>
        <time>2022-08-24T06:25:50Z</time>
      </trkpt>
      <trkpt lat="43.16079499999999" lon="-1.2393979999999993">
        <ele>181.283</ele>
        <time>2022-08-24T06:25:51Z</time>
      </trkpt>
      <trkpt lat="43.16077299999999" lon="-1.2393859999999994">
        <ele>181.227</ele>
        <time>2022-08-24T06:25:52Z</time>
      </trkpt>
      <trkpt lat="43.16075099999999" lon="-1.2393699999999994">
        <ele>181.426</ele>
        <time>2022-08-24T06:25:53Z</time>
      </trkpt>
      <trkpt lat="43.16073099999999" lon="-1.2393489999999994">
        <ele>181.486</ele>
        <time>2022-08-24T06:25:54Z</time>
      </trkpt>
      <trkpt lat="43.16071899999999" lon="-1.2393249999999993">
        <ele>181.860</ele>
        <time>2022-08-24T06:25:55Z</time>
      </trkpt>
      <trkpt lat="43.16070599999999" lon="-1.2392979999999993">
        <ele>181.826</ele>
        <time>2022-08-24T06:25:56Z</time>
      </trkpt>
      <trkpt lat="43.16069799999999" lon="-1.2392669999999995">
        <ele>181.809</ele>
        <time>2022-08-24T06:25:57Z</time>
      </trkpt>
      <trkpt lat="43.16069399999999" lon="-1.2392339999999995">
        <ele>181.869</ele>
        <time>2022-08-24T06:25:58Z</time>
      </trkpt>
      <trkpt lat="43.160684999999994" lon="-1.2391999999999994">
        <ele>182.069</ele>
        <time>2022-08-24T06:25:59Z</time>
      </trkpt>
      <trkpt lat="43.160624999999996" lon="-1.2389869999999994">
        <ele>182.099</ele>
        <time>2022-08-24T06:26:05Z</time>
      </trkpt>
      <trkpt lat="43.160605" lon="-1.2389189999999994">
        <ele>182.035</ele>
        <time>2022-08-24T06:26:07Z</time>
      </trkpt>
      <trkpt lat="43.160576999999996" lon="-1.2388569999999994">
        <ele>182.097</ele>
        <time>2022-08-24T06:26:09Z</time>
      </trkpt>
      <trkpt lat="43.160554999999995" lon="-1.2387969999999995">
        <ele>181.884</ele>
        <time>2022-08-24T06:26:11Z</time>
      </trkpt>
      <trkpt lat="43.16054499999999" lon="-1.2387719999999995">
        <ele>181.877</ele>
        <time>2022-08-24T06:26:12Z</time>
      </trkpt>
      <trkpt lat="43.16051799999999" lon="-1.2386679999999994">
        <ele>181.831</ele>
        <time>2022-08-24T06:26:15Z</time>
      </trkpt>
      <trkpt lat="43.160507999999986" lon="-1.2386319999999995">
        <ele>181.860</ele>
        <time>2022-08-24T06:26:16Z</time>
      </trkpt>
      <trkpt lat="43.160482999999985" lon="-1.2385659999999996">
        <ele>181.875</ele>
        <time>2022-08-24T06:26:18Z</time>
      </trkpt>
      <trkpt lat="43.160471999999984" lon="-1.2385419999999996">
        <ele>181.828</ele>
        <time>2022-08-24T06:26:19Z</time>
      </trkpt>
      <trkpt lat="43.16045899999998" lon="-1.2385039999999996">
        <ele>181.820</ele>
        <time>2022-08-24T06:26:20Z</time>
      </trkpt>
      <trkpt lat="43.16041999999998" lon="-1.2384529999999996">
        <ele>182.009</ele>
        <time>2022-08-24T06:26:22Z</time>
      </trkpt>
      <trkpt lat="43.16039999999998" lon="-1.2384419999999996">
        <ele>182.018</ele>
        <time>2022-08-24T06:26:23Z</time>
      </trkpt>
      <trkpt lat="43.160367999999984" lon="-1.2384289999999996">
        <ele>182.018</ele>
        <time>2022-08-24T06:26:24Z</time>
      </trkpt>
      <trkpt lat="43.16034399999998" lon="-1.2384259999999996">
        <ele>182.028</ele>
        <time>2022-08-24T06:26:25Z</time>
      </trkpt>
      <trkpt lat="43.16031999999998" lon="-1.2384259999999996">
        <ele>182.034</ele>
        <time>2022-08-24T06:26:26Z</time>
      </trkpt>
      <trkpt lat="43.160300999999976" lon="-1.2384329999999997">
        <ele>182.286</ele>
        <time>2022-08-24T06:26:27Z</time>
      </trkpt>
      <trkpt lat="43.160278999999974" lon="-1.2384459999999997">
        <ele>182.243</ele>
        <time>2022-08-24T06:26:28Z</time>
      </trkpt>
      <trkpt lat="43.160258999999975" lon="-1.2384599999999997">
        <ele>182.436</ele>
        <time>2022-08-24T06:26:29Z</time>
      </trkpt>
      <trkpt lat="43.16019499999997" lon="-1.2385079999999997">
        <ele>182.630</ele>
        <time>2022-08-24T06:26:32Z</time>
      </trkpt>
      <trkpt lat="43.16017799999997" lon="-1.2385179999999998">
        <ele>182.659</ele>
        <time>2022-08-24T06:26:33Z</time>
      </trkpt>
      <trkpt lat="43.16015299999997" lon="-1.2385349999999997">
        <ele>182.689</ele>
        <time>2022-08-24T06:26:34Z</time>
      </trkpt>
      <trkpt lat="43.16011499999997" lon="-1.2385659999999996">
        <ele>182.806</ele>
        <time>2022-08-24T06:26:36Z</time>
      </trkpt>
      <trkpt lat="43.16009799999997" lon="-1.2385779999999995">
        <ele>183.026</ele>
        <time>2022-08-24T06:26:37Z</time>
      </trkpt>
      <trkpt lat="43.16008099999997" lon="-1.2385869999999994">
        <ele>183.009</ele>
        <time>2022-08-24T06:26:38Z</time>
      </trkpt>
      <trkpt lat="43.16005599999997" lon="-1.2385999999999995">
        <ele>183.259</ele>
        <time>2022-08-24T06:26:39Z</time>
      </trkpt>
      <trkpt lat="43.16003699999997" lon="-1.2386139999999994">
        <ele>183.279</ele>
        <time>2022-08-24T06:26:40Z</time>
      </trkpt>
      <trkpt lat="43.16001699999997" lon="-1.2386259999999993">
        <ele>183.429</ele>
        <time>2022-08-24T06:26:41Z</time>
      </trkpt>
      <trkpt lat="43.159899999999965" lon="-1.2387049999999993">
        <ele>184.255</ele>
        <time>2022-08-24T06:26:47Z</time>
      </trkpt>
      <trkpt lat="43.15987899999997" lon="-1.2387239999999993">
        <ele>184.457</ele>
        <time>2022-08-24T06:26:48Z</time>
      </trkpt>
      <trkpt lat="43.159862999999966" lon="-1.2387369999999993">
        <ele>184.424</ele>
        <time>2022-08-24T06:26:49Z</time>
      </trkpt>
      <trkpt lat="43.15982299999997" lon="-1.2387699999999993">
        <ele>184.827</ele>
        <time>2022-08-24T06:26:51Z</time>
      </trkpt>
      <trkpt lat="43.15980299999997" lon="-1.2387859999999993">
        <ele>185.011</ele>
        <time>2022-08-24T06:26:52Z</time>
      </trkpt>
      <trkpt lat="43.15978499999997" lon="-1.2388049999999993">
        <ele>185.070</ele>
        <time>2022-08-24T06:26:53Z</time>
      </trkpt>
      <trkpt lat="43.15976799999997" lon="-1.2388199999999994">
        <ele>185.245</ele>
        <time>2022-08-24T06:26:54Z</time>
      </trkpt>
      <trkpt lat="43.15974799999997" lon="-1.2388319999999993">
        <ele>185.447</ele>
        <time>2022-08-24T06:26:55Z</time>
      </trkpt>
      <trkpt lat="43.15972499999997" lon="-1.2388449999999993">
        <ele>185.611</ele>
        <time>2022-08-24T06:26:56Z</time>
      </trkpt>
      <trkpt lat="43.159706999999976" lon="-1.2388589999999993">
        <ele>186.009</ele>
        <time>2022-08-24T06:26:57Z</time>
      </trkpt>
      <trkpt lat="43.159690999999974" lon="-1.2388729999999992">
        <ele>186.095</ele>
        <time>2022-08-24T06:26:58Z</time>
      </trkpt>
      <trkpt lat="43.15967199999997" lon="-1.2388859999999993">
        <ele>186.435</ele>
        <time>2022-08-24T06:26:59Z</time>
      </trkpt>
      <trkpt lat="43.159653999999975" lon="-1.2388959999999993">
        <ele>186.445</ele>
        <time>2022-08-24T06:27:00Z</time>
      </trkpt>
      <trkpt lat="43.15963499999997" lon="-1.2389049999999993">
        <ele>186.821</ele>
        <time>2022-08-24T06:27:01Z</time>
      </trkpt>
      <trkpt lat="43.159616999999976" lon="-1.2389129999999993">
        <ele>187.013</ele>
        <time>2022-08-24T06:27:02Z</time>
      </trkpt>
      <trkpt lat="43.159600999999974" lon="-1.2389189999999992">
        <ele>187.250</ele>
        <time>2022-08-24T06:27:03Z</time>
      </trkpt>
      <trkpt lat="43.159577999999975" lon="-1.2389259999999993">
        <ele>187.453</ele>
        <time>2022-08-24T06:27:04Z</time>
      </trkpt>
      <trkpt lat="43.15955399999997" lon="-1.2389289999999993">
        <ele>187.837</ele>
        <time>2022-08-24T06:27:05Z</time>
      </trkpt>
      <trkpt lat="43.15953199999997" lon="-1.2389289999999993">
        <ele>188.276</ele>
        <time>2022-08-24T06:27:06Z</time>
      </trkpt>
      <trkpt lat="43.15950299999997" lon="-1.2389279999999994">
        <ele>188.272</ele>
        <time>2022-08-24T06:27:07Z</time>
      </trkpt>
      <trkpt lat="43.15947899999997" lon="-1.2389239999999995">
        <ele>188.613</ele>
        <time>2022-08-24T06:27:08Z</time>
      </trkpt>
      <trkpt lat="43.15946199999997" lon="-1.2389219999999994">
        <ele>188.814</ele>
        <time>2022-08-24T06:27:09Z</time>
      </trkpt>
      <trkpt lat="43.15943699999997" lon="-1.2389179999999995">
        <ele>189.009</ele>
        <time>2022-08-24T06:27:10Z</time>
      </trkpt>
      <trkpt lat="43.159412999999965" lon="-1.2389149999999995">
        <ele>189.268</ele>
        <time>2022-08-24T06:27:11Z</time>
      </trkpt>
      <trkpt lat="43.159389999999966" lon="-1.2389149999999995">
        <ele>189.258</ele>
        <time>2022-08-24T06:27:12Z</time>
      </trkpt>
      <trkpt lat="43.159364999999966" lon="-1.2389119999999996">
        <ele>189.428</ele>
        <time>2022-08-24T06:27:13Z</time>
      </trkpt>
      <trkpt lat="43.159347999999966" lon="-1.2389039999999996">
        <ele>189.624</ele>
        <time>2022-08-24T06:27:14Z</time>
      </trkpt>
      <trkpt lat="43.15932799999997" lon="-1.2388969999999995">
        <ele>189.896</ele>
        <time>2022-08-24T06:27:15Z</time>
      </trkpt>
      <trkpt lat="43.159302999999966" lon="-1.2388919999999994">
        <ele>190.253</ele>
        <time>2022-08-24T06:27:16Z</time>
      </trkpt>
      <trkpt lat="43.15928299999997" lon="-1.2388879999999995">
        <ele>190.256</ele>
        <time>2022-08-24T06:27:17Z</time>
      </trkpt>
      <trkpt lat="43.159260999999965" lon="-1.2388849999999996">
        <ele>190.480</ele>
        <time>2022-08-24T06:27:18Z</time>
      </trkpt>
      <trkpt lat="43.159235999999964" lon="-1.2388839999999997">
        <ele>190.439</ele>
        <time>2022-08-24T06:27:19Z</time>
      </trkpt>
      <trkpt lat="43.159215999999965" lon="-1.2388859999999997">
        <ele>190.426</ele>
        <time>2022-08-24T06:27:20Z</time>
      </trkpt>
      <trkpt lat="43.15918899999996" lon="-1.2388859999999997">
        <ele>190.647</ele>
        <time>2022-08-24T06:27:21Z</time>
      </trkpt>
      <trkpt lat="43.15915899999996" lon="-1.2388859999999997">
        <ele>190.811</ele>
        <time>2022-08-24T06:27:22Z</time>
      </trkpt>
      <trkpt lat="43.15913499999996" lon="-1.2388879999999998">
        <ele>190.809</ele>
        <time>2022-08-24T06:27:23Z</time>
      </trkpt>
      <trkpt lat="43.159112999999955" lon="-1.2388929999999998">
        <ele>191.283</ele>
        <time>2022-08-24T06:27:24Z</time>
      </trkpt>
      <trkpt lat="43.15909499999996" lon="-1.2389">
        <ele>191.653</ele>
        <time>2022-08-24T06:27:25Z</time>
      </trkpt>
      <trkpt lat="43.15908299999996" lon="-1.2389039999999998">
        <ele>191.633</ele>
        <time>2022-08-24T06:27:26Z</time>
      </trkpt>
      <trkpt lat="43.15906299999996" lon="-1.2389119999999998">
        <ele>192.079</ele>
        <time>2022-08-24T06:27:27Z</time>
      </trkpt>
      <trkpt lat="43.15904699999996" lon="-1.2389219999999999">
        <ele>192.251</ele>
        <time>2022-08-24T06:27:28Z</time>
      </trkpt>
      <trkpt lat="43.15902799999996" lon="-1.2389339999999998">
        <ele>192.468</ele>
        <time>2022-08-24T06:27:29Z</time>
      </trkpt>
      <trkpt lat="43.159008999999955" lon="-1.2389469999999998">
        <ele>192.641</ele>
        <time>2022-08-24T06:27:30Z</time>
      </trkpt>
      <trkpt lat="43.15899099999996" lon="-1.2389579999999998">
        <ele>192.695</ele>
        <time>2022-08-24T06:27:31Z</time>
      </trkpt>
      <trkpt lat="43.158974999999955" lon="-1.2389709999999998">
        <ele>192.864</ele>
        <time>2022-08-24T06:27:32Z</time>
      </trkpt>
      <trkpt lat="43.158955999999954" lon="-1.238986">
        <ele>193.043</ele>
        <time>2022-08-24T06:27:33Z</time>
      </trkpt>
      <trkpt lat="43.15894199999995" lon="-1.2389979999999998">
        <ele>193.064</ele>
        <time>2022-08-24T06:27:34Z</time>
      </trkpt>
      <trkpt lat="43.158929999999955" lon="-1.2390109999999999">
        <ele>193.210</ele>
        <time>2022-08-24T06:27:35Z</time>
      </trkpt>
      <trkpt lat="43.158918999999955" lon="-1.2390219999999998">
        <ele>193.609</ele>
        <time>2022-08-24T06:27:36Z</time>
      </trkpt>
      <trkpt lat="43.158904999999955" lon="-1.2390389999999998">
        <ele>193.895</ele>
        <time>2022-08-24T06:27:37Z</time>
      </trkpt>
      <trkpt lat="43.15889199999995" lon="-1.2390509999999997">
        <ele>194.235</ele>
        <time>2022-08-24T06:27:38Z</time>
      </trkpt>
      <trkpt lat="43.15887499999995" lon="-1.2390639999999997">
        <ele>194.445</ele>
        <time>2022-08-24T06:27:39Z</time>
      </trkpt>
      <trkpt lat="43.15886499999995" lon="-1.2390749999999997">
        <ele>194.431</ele>
        <time>2022-08-24T06:27:40Z</time>
      </trkpt>
      <trkpt lat="43.15884999999995" lon="-1.2390849999999998">
        <ele>194.893</ele>
        <time>2022-08-24T06:27:41Z</time>
      </trkpt>
      <trkpt lat="43.15883299999995" lon="-1.2390939999999997">
        <ele>195.070</ele>
        <time>2022-08-24T06:27:42Z</time>
      </trkpt>
      <trkpt lat="43.15881599999995" lon="-1.2391079999999997">
        <ele>195.233</ele>
        <time>2022-08-24T06:27:43Z</time>
      </trkpt>
      <trkpt lat="43.158800999999954" lon="-1.2391219999999996">
        <ele>195.477</ele>
        <time>2022-08-24T06:27:44Z</time>
      </trkpt>
      <trkpt lat="43.158788999999956" lon="-1.2391339999999995">
        <ele>195.676</ele>
        <time>2022-08-24T06:27:45Z</time>
      </trkpt>
      <trkpt lat="43.158777999999955" lon="-1.2391439999999996">
        <ele>195.847</ele>
        <time>2022-08-24T06:27:46Z</time>
      </trkpt>
      <trkpt lat="43.15875999999996" lon="-1.2391599999999996">
        <ele>196.029</ele>
        <time>2022-08-24T06:27:47Z</time>
      </trkpt>
      <trkpt lat="43.15874299999996" lon="-1.2391709999999996">
        <ele>196.421</ele>
        <time>2022-08-24T06:27:48Z</time>
      </trkpt>
      <trkpt lat="43.15872499999996" lon="-1.2391839999999996">
        <ele>196.609</ele>
        <time>2022-08-24T06:27:49Z</time>
      </trkpt>
      <trkpt lat="43.15871199999996" lon="-1.2391909999999997">
        <ele>197.045</ele>
        <time>2022-08-24T06:27:50Z</time>
      </trkpt>
      <trkpt lat="43.158695999999956" lon="-1.2392049999999997">
        <ele>197.025</ele>
        <time>2022-08-24T06:27:51Z</time>
      </trkpt>
      <trkpt lat="43.158679999999954" lon="-1.2392149999999997">
        <ele>197.475</ele>
        <time>2022-08-24T06:27:52Z</time>
      </trkpt>
      <trkpt lat="43.15865899999996" lon="-1.2392269999999996">
        <ele>197.431</ele>
        <time>2022-08-24T06:27:53Z</time>
      </trkpt>
      <trkpt lat="43.158642999999955" lon="-1.2392419999999997">
        <ele>197.853</ele>
        <time>2022-08-24T06:27:54Z</time>
      </trkpt>
      <trkpt lat="43.158628999999955" lon="-1.2392549999999998">
        <ele>198.240</ele>
        <time>2022-08-24T06:27:55Z</time>
      </trkpt>
      <trkpt lat="43.15861699999996" lon="-1.2392659999999998">
        <ele>198.433</ele>
        <time>2022-08-24T06:27:56Z</time>
      </trkpt>
      <trkpt lat="43.15860199999996" lon="-1.2392759999999998">
        <ele>198.867</ele>
        <time>2022-08-24T06:27:57Z</time>
      </trkpt>
      <trkpt lat="43.15858699999996" lon="-1.2392899999999998">
        <ele>198.836</ele>
        <time>2022-08-24T06:27:58Z</time>
      </trkpt>
      <trkpt lat="43.15857499999996" lon="-1.2393029999999998">
        <ele>199.232</ele>
        <time>2022-08-24T06:27:59Z</time>
      </trkpt>
      <trkpt lat="43.158562999999965" lon="-1.239318">
        <ele>199.492</ele>
        <time>2022-08-24T06:28:00Z</time>
      </trkpt>
      <trkpt lat="43.15855099999997" lon="-1.2393299999999998">
        <ele>199.811</ele>
        <time>2022-08-24T06:28:01Z</time>
      </trkpt>
      <trkpt lat="43.158537999999965" lon="-1.2393409999999998">
        <ele>200.209</ele>
        <time>2022-08-24T06:28:02Z</time>
      </trkpt>
      <trkpt lat="43.158520999999965" lon="-1.2393569999999998">
        <ele>200.484</ele>
        <time>2022-08-24T06:28:03Z</time>
      </trkpt>
      <trkpt lat="43.15850899999997" lon="-1.2393729999999998">
        <ele>200.624</ele>
        <time>2022-08-24T06:28:04Z</time>
      </trkpt>
      <trkpt lat="43.158492999999964" lon="-1.2393859999999999">
        <ele>200.844</ele>
        <time>2022-08-24T06:28:05Z</time>
      </trkpt>
      <trkpt lat="43.15847699999996" lon="-1.2393949999999998">
        <ele>201.250</ele>
        <time>2022-08-24T06:28:06Z</time>
      </trkpt>
      <trkpt lat="43.15846399999996" lon="-1.2393989999999997">
        <ele>201.272</ele>
        <time>2022-08-24T06:28:07Z</time>
      </trkpt>
      <trkpt lat="43.15844499999996" lon="-1.2394079999999996">
        <ele>201.619</ele>
        <time>2022-08-24T06:28:08Z</time>
      </trkpt>
      <trkpt lat="43.15843099999996" lon="-1.2394179999999997">
        <ele>202.092</ele>
        <time>2022-08-24T06:28:09Z</time>
      </trkpt>
      <trkpt lat="43.158414999999955" lon="-1.2394289999999997">
        <ele>202.236</ele>
        <time>2022-08-24T06:28:10Z</time>
      </trkpt>
      <trkpt lat="43.15839899999995" lon="-1.2394349999999996">
        <ele>202.455</ele>
        <time>2022-08-24T06:28:11Z</time>
      </trkpt>
      <trkpt lat="43.158380999999956" lon="-1.2394399999999997">
        <ele>202.629</ele>
        <time>2022-08-24T06:28:12Z</time>
      </trkpt>
      <trkpt lat="43.15836599999996" lon="-1.2394399999999997">
        <ele>203.000</ele>
        <time>2022-08-24T06:28:13Z</time>
      </trkpt>
      <trkpt lat="43.15835199999996" lon="-1.2394459999999996">
        <ele>203.220</ele>
        <time>2022-08-24T06:28:14Z</time>
      </trkpt>
      <trkpt lat="43.158335999999956" lon="-1.2394549999999995">
        <ele>203.609</ele>
        <time>2022-08-24T06:28:15Z</time>
      </trkpt>
      <trkpt lat="43.158316999999954" lon="-1.2394609999999995">
        <ele>203.833</ele>
        <time>2022-08-24T06:28:16Z</time>
      </trkpt>
      <trkpt lat="43.158301999999956" lon="-1.2394659999999995">
        <ele>204.493</ele>
        <time>2022-08-24T06:28:17Z</time>
      </trkpt>
      <trkpt lat="43.15828499999996" lon="-1.2394699999999994">
        <ele>204.673</ele>
        <time>2022-08-24T06:28:18Z</time>
      </trkpt>
      <trkpt lat="43.158273999999956" lon="-1.2394749999999994">
        <ele>204.889</ele>
        <time>2022-08-24T06:28:19Z</time>
      </trkpt>
      <trkpt lat="43.158256999999956" lon="-1.2394779999999994">
        <ele>205.281</ele>
        <time>2022-08-24T06:28:20Z</time>
      </trkpt>
      <trkpt lat="43.15823999999996" lon="-1.2394779999999994">
        <ele>205.488</ele>
        <time>2022-08-24T06:28:21Z</time>
      </trkpt>
      <trkpt lat="43.15822799999996" lon="-1.2394769999999995">
        <ele>205.811</ele>
        <time>2022-08-24T06:28:22Z</time>
      </trkpt>
      <trkpt lat="43.15821399999996" lon="-1.2394739999999995">
        <ele>206.045</ele>
        <time>2022-08-24T06:28:23Z</time>
      </trkpt>
      <trkpt lat="43.15819999999996" lon="-1.2394729999999996">
        <ele>206.294</ele>
        <time>2022-08-24T06:28:24Z</time>
      </trkpt>
      <trkpt lat="43.158186999999955" lon="-1.2394789999999996">
        <ele>206.668</ele>
        <time>2022-08-24T06:28:25Z</time>
      </trkpt>
      <trkpt lat="43.158178999999954" lon="-1.2394839999999996">
        <ele>206.842</ele>
        <time>2022-08-24T06:28:26Z</time>
      </trkpt>
      <trkpt lat="43.158167999999954" lon="-1.2394899999999995">
        <ele>207.226</ele>
        <time>2022-08-24T06:28:27Z</time>
      </trkpt>
      <trkpt lat="43.15815799999995" lon="-1.2394919999999996">
        <ele>207.409</ele>
        <time>2022-08-24T06:28:28Z</time>
      </trkpt>
      <trkpt lat="43.15814299999995" lon="-1.2394919999999996">
        <ele>207.837</ele>
        <time>2022-08-24T06:28:29Z</time>
      </trkpt>
      <trkpt lat="43.158130999999955" lon="-1.2394899999999995">
        <ele>207.857</ele>
        <time>2022-08-24T06:28:30Z</time>
      </trkpt>
      <trkpt lat="43.15811599999996" lon="-1.2394839999999996">
        <ele>208.277</ele>
        <time>2022-08-24T06:28:31Z</time>
      </trkpt>
      <trkpt lat="43.158104999999956" lon="-1.2394839999999996">
        <ele>208.453</ele>
        <time>2022-08-24T06:28:32Z</time>
      </trkpt>
      <trkpt lat="43.15808999999996" lon="-1.2394859999999996">
        <ele>208.695</ele>
        <time>2022-08-24T06:28:33Z</time>
      </trkpt>
      <trkpt lat="43.15807799999996" lon="-1.2394869999999996">
        <ele>209.082</ele>
        <time>2022-08-24T06:28:34Z</time>
      </trkpt>
      <trkpt lat="43.15806699999996" lon="-1.2394879999999995">
        <ele>209.285</ele>
        <time>2022-08-24T06:28:35Z</time>
      </trkpt>
      <trkpt lat="43.15805599999996" lon="-1.2394889999999994">
        <ele>209.629</ele>
        <time>2022-08-24T06:28:36Z</time>
      </trkpt>
      <trkpt lat="43.15804899999996" lon="-1.2394909999999995">
        <ele>209.858</ele>
        <time>2022-08-24T06:28:37Z</time>
      </trkpt>
      <trkpt lat="43.15803799999996" lon="-1.2394949999999993">
        <ele>210.276</ele>
        <time>2022-08-24T06:28:38Z</time>
      </trkpt>
      <trkpt lat="43.158025999999964" lon="-1.2394979999999993">
        <ele>210.490</ele>
        <time>2022-08-24T06:28:39Z</time>
      </trkpt>
      <trkpt lat="43.15801499999996" lon="-1.2394989999999992">
        <ele>210.819</ele>
        <time>2022-08-24T06:28:40Z</time>
      </trkpt>
      <trkpt lat="43.15800499999996" lon="-1.2394979999999993">
        <ele>211.009</ele>
        <time>2022-08-24T06:28:41Z</time>
      </trkpt>
      <trkpt lat="43.15799699999996" lon="-1.2394969999999994">
        <ele>211.048</ele>
        <time>2022-08-24T06:28:42Z</time>
      </trkpt>
      <trkpt lat="43.15798499999996" lon="-1.2394959999999995">
        <ele>211.498</ele>
        <time>2022-08-24T06:28:43Z</time>
      </trkpt>
      <trkpt lat="43.15797699999996" lon="-1.2394909999999995">
        <ele>211.698</ele>
        <time>2022-08-24T06:28:44Z</time>
      </trkpt>
      <trkpt lat="43.15796899999996" lon="-1.2394869999999996">
        <ele>212.044</ele>
        <time>2022-08-24T06:28:45Z</time>
      </trkpt>
      <trkpt lat="43.15796099999996" lon="-1.2394879999999995">
        <ele>212.276</ele>
        <time>2022-08-24T06:28:46Z</time>
      </trkpt>
      <trkpt lat="43.157950999999954" lon="-1.2394919999999994">
        <ele>212.263</ele>
        <time>2022-08-24T06:28:47Z</time>
      </trkpt>
      <trkpt lat="43.157944999999955" lon="-1.2394959999999993">
        <ele>212.886</ele>
        <time>2022-08-24T06:28:48Z</time>
      </trkpt>
      <trkpt lat="43.15792999999996" lon="-1.2395019999999992">
        <ele>213.060</ele>
        <time>2022-08-24T06:28:49Z</time>
      </trkpt>
      <trkpt lat="43.157919999999955" lon="-1.2395049999999992">
        <ele>213.049</ele>
        <time>2022-08-24T06:28:50Z</time>
      </trkpt>
      <trkpt lat="43.157908999999954" lon="-1.2395109999999991">
        <ele>213.495</ele>
        <time>2022-08-24T06:28:51Z</time>
      </trkpt>
      <trkpt lat="43.15789799999995" lon="-1.2395159999999992">
        <ele>213.649</ele>
        <time>2022-08-24T06:28:52Z</time>
      </trkpt>
      <trkpt lat="43.157882999999956" lon="-1.2395239999999992">
        <ele>213.623</ele>
        <time>2022-08-24T06:28:53Z</time>
      </trkpt>
      <trkpt lat="43.15786799999996" lon="-1.2395309999999993">
        <ele>214.209</ele>
        <time>2022-08-24T06:28:54Z</time>
      </trkpt>
      <trkpt lat="43.157854999999955" lon="-1.2395389999999993">
        <ele>214.620</ele>
        <time>2022-08-24T06:28:55Z</time>
      </trkpt>
      <trkpt lat="43.157843999999955" lon="-1.2395419999999993">
        <ele>214.620</ele>
        <time>2022-08-24T06:28:56Z</time>
      </trkpt>
      <trkpt lat="43.15782899999996" lon="-1.2395419999999993">
        <ele>214.830</ele>
        <time>2022-08-24T06:28:57Z</time>
      </trkpt>
      <trkpt lat="43.15781499999996" lon="-1.2395399999999992">
        <ele>214.876</ele>
        <time>2022-08-24T06:28:58Z</time>
      </trkpt>
      <trkpt lat="43.15780099999996" lon="-1.2395449999999992">
        <ele>215.488</ele>
        <time>2022-08-24T06:28:59Z</time>
      </trkpt>
      <trkpt lat="43.157786999999956" lon="-1.2395449999999992">
        <ele>215.495</ele>
        <time>2022-08-24T06:29:00Z</time>
      </trkpt>
      <trkpt lat="43.157775999999956" lon="-1.2395459999999991">
        <ele>215.648</ele>
        <time>2022-08-24T06:29:01Z</time>
      </trkpt>
      <trkpt lat="43.15776399999996" lon="-1.2395429999999992">
        <ele>216.242</ele>
        <time>2022-08-24T06:29:02Z</time>
      </trkpt>
      <trkpt lat="43.157750999999955" lon="-1.2395479999999992">
        <ele>216.251</ele>
        <time>2022-08-24T06:29:03Z</time>
      </trkpt>
      <trkpt lat="43.157736999999955" lon="-1.239551999999999">
        <ele>216.653</ele>
        <time>2022-08-24T06:29:04Z</time>
      </trkpt>
      <trkpt lat="43.15772499999996" lon="-1.239555999999999">
        <ele>216.804</ele>
        <time>2022-08-24T06:29:05Z</time>
      </trkpt>
      <trkpt lat="43.157710999999956" lon="-1.239558999999999">
        <ele>216.814</ele>
        <time>2022-08-24T06:29:06Z</time>
      </trkpt>
      <trkpt lat="43.157694999999954" lon="-1.239561999999999">
        <ele>217.209</ele>
        <time>2022-08-24T06:29:07Z</time>
      </trkpt>
      <trkpt lat="43.15768499999995" lon="-1.2395629999999989">
        <ele>217.426</ele>
        <time>2022-08-24T06:29:08Z</time>
      </trkpt>
      <trkpt lat="43.15766999999995" lon="-1.2395669999999988">
        <ele>217.426</ele>
        <time>2022-08-24T06:29:09Z</time>
      </trkpt>
      <trkpt lat="43.157651999999956" lon="-1.2395699999999987">
        <ele>218.066</ele>
        <time>2022-08-24T06:29:10Z</time>
      </trkpt>
      <trkpt lat="43.15763899999995" lon="-1.2395709999999986">
        <ele>218.252</ele>
        <time>2022-08-24T06:29:11Z</time>
      </trkpt>
      <trkpt lat="43.15762499999995" lon="-1.2395689999999986">
        <ele>218.294</ele>
        <time>2022-08-24T06:29:12Z</time>
      </trkpt>
      <trkpt lat="43.15761199999995" lon="-1.2395689999999986">
        <ele>218.681</ele>
        <time>2022-08-24T06:29:13Z</time>
      </trkpt>
      <trkpt lat="43.15760199999995" lon="-1.2395729999999985">
        <ele>218.824</ele>
        <time>2022-08-24T06:29:14Z</time>
      </trkpt>
      <trkpt lat="43.15759099999995" lon="-1.2395809999999985">
        <ele>219.458</ele>
        <time>2022-08-24T06:29:15Z</time>
      </trkpt>
      <trkpt lat="43.15757899999995" lon="-1.2395889999999985">
        <ele>219.657</ele>
        <time>2022-08-24T06:29:16Z</time>
      </trkpt>
      <trkpt lat="43.157565999999946" lon="-1.2395959999999986">
        <ele>220.072</ele>
        <time>2022-08-24T06:29:17Z</time>
      </trkpt>
      <trkpt lat="43.15755599999994" lon="-1.2396039999999986">
        <ele>220.413</ele>
        <time>2022-08-24T06:29:18Z</time>
      </trkpt>
      <trkpt lat="43.15754599999994" lon="-1.2396119999999986">
        <ele>220.414</ele>
        <time>2022-08-24T06:29:19Z</time>
      </trkpt>
      <trkpt lat="43.15753499999994" lon="-1.2396149999999986">
        <ele>220.609</ele>
        <time>2022-08-24T06:29:20Z</time>
      </trkpt>
      <trkpt lat="43.15752399999994" lon="-1.2396189999999985">
        <ele>220.898</ele>
        <time>2022-08-24T06:29:21Z</time>
      </trkpt>
      <trkpt lat="43.15751599999994" lon="-1.2396239999999985">
        <ele>221.258</ele>
        <time>2022-08-24T06:29:22Z</time>
      </trkpt>
      <trkpt lat="43.15750899999994" lon="-1.2396359999999984">
        <ele>221.438</ele>
        <time>2022-08-24T06:29:23Z</time>
      </trkpt>
      <trkpt lat="43.15750399999994" lon="-1.2396469999999984">
        <ele>221.874</ele>
        <time>2022-08-24T06:29:24Z</time>
      </trkpt>
      <trkpt lat="43.15749499999994" lon="-1.2396619999999985">
        <ele>222.076</ele>
        <time>2022-08-24T06:29:25Z</time>
      </trkpt>
      <trkpt lat="43.157487999999944" lon="-1.2396719999999986">
        <ele>222.013</ele>
        <time>2022-08-24T06:29:26Z</time>
      </trkpt>
      <trkpt lat="43.157481999999945" lon="-1.2396809999999985">
        <ele>222.236</ele>
        <time>2022-08-24T06:29:27Z</time>
      </trkpt>
      <trkpt lat="43.15747799999995" lon="-1.2396879999999986">
        <ele>222.270</ele>
        <time>2022-08-24T06:29:28Z</time>
      </trkpt>
      <trkpt lat="43.15747099999995" lon="-1.2396949999999987">
        <ele>222.619</ele>
        <time>2022-08-24T06:29:29Z</time>
      </trkpt>
      <trkpt lat="43.15746099999995" lon="-1.2397049999999987">
        <ele>222.853</ele>
        <time>2022-08-24T06:29:30Z</time>
      </trkpt>
      <trkpt lat="43.15745199999995" lon="-1.2397139999999987">
        <ele>223.004</ele>
        <time>2022-08-24T06:29:31Z</time>
      </trkpt>
      <trkpt lat="43.15744299999995" lon="-1.2397219999999987">
        <ele>223.214</ele>
        <time>2022-08-24T06:29:32Z</time>
      </trkpt>
      <trkpt lat="43.157435999999954" lon="-1.2397299999999987">
        <ele>223.209</ele>
        <time>2022-08-24T06:29:33Z</time>
      </trkpt>
      <trkpt lat="43.157424999999954" lon="-1.2397409999999986">
        <ele>223.466</ele>
        <time>2022-08-24T06:29:34Z</time>
      </trkpt>
      <trkpt lat="43.15742099999996" lon="-1.2397489999999987">
        <ele>223.436</ele>
        <time>2022-08-24T06:29:35Z</time>
      </trkpt>
      <trkpt lat="43.15741699999996" lon="-1.2397589999999987">
        <ele>223.856</ele>
        <time>2022-08-24T06:29:36Z</time>
      </trkpt>
      <trkpt lat="43.15741199999996" lon="-1.2397579999999988">
        <ele>224.042</ele>
        <time>2022-08-24T06:29:38Z</time>
      </trkpt>
      <trkpt lat="43.15740899999996" lon="-1.2397609999999988">
        <ele>224.224</ele>
        <time>2022-08-24T06:29:39Z</time>
      </trkpt>
      <trkpt lat="43.15740199999996" lon="-1.2397649999999987">
        <ele>224.431</ele>
        <time>2022-08-24T06:29:40Z</time>
      </trkpt>
      <trkpt lat="43.15739099999996" lon="-1.2397679999999986">
        <ele>224.414</ele>
        <time>2022-08-24T06:29:41Z</time>
      </trkpt>
      <trkpt lat="43.15738199999996" lon="-1.2397689999999986">
        <ele>224.628</ele>
        <time>2022-08-24T06:29:42Z</time>
      </trkpt>
      <trkpt lat="43.157369999999965" lon="-1.2397709999999986">
        <ele>224.637</ele>
        <time>2022-08-24T06:29:43Z</time>
      </trkpt>
      <trkpt lat="43.157358999999964" lon="-1.2397749999999985">
        <ele>224.663</ele>
        <time>2022-08-24T06:29:44Z</time>
      </trkpt>
      <trkpt lat="43.157344999999964" lon="-1.2397779999999985">
        <ele>224.844</ele>
        <time>2022-08-24T06:29:45Z</time>
      </trkpt>
      <trkpt lat="43.157327999999964" lon="-1.2397809999999985">
        <ele>224.818</ele>
        <time>2022-08-24T06:29:46Z</time>
      </trkpt>
      <trkpt lat="43.157315999999966" lon="-1.2397859999999985">
        <ele>225.009</ele>
        <time>2022-08-24T06:29:47Z</time>
      </trkpt>
      <trkpt lat="43.15730399999997" lon="-1.2397929999999986">
        <ele>225.067</ele>
        <time>2022-08-24T06:29:48Z</time>
      </trkpt>
      <trkpt lat="43.15729199999997" lon="-1.2397959999999986">
        <ele>225.247</ele>
        <time>2022-08-24T06:29:49Z</time>
      </trkpt>
      <trkpt lat="43.15727899999997" lon="-1.2397979999999986">
        <ele>225.437</ele>
        <time>2022-08-24T06:29:50Z</time>
      </trkpt>
      <trkpt lat="43.157265999999964" lon="-1.2397969999999987">
        <ele>225.623</ele>
        <time>2022-08-24T06:29:51Z</time>
      </trkpt>
      <trkpt lat="43.157256999999966" lon="-1.2397969999999987">
        <ele>225.825</ele>
        <time>2022-08-24T06:29:52Z</time>
      </trkpt>
      <trkpt lat="43.157248999999965" lon="-1.2397969999999987">
        <ele>225.852</ele>
        <time>2022-08-24T06:29:53Z</time>
      </trkpt>
      <trkpt lat="43.157237999999964" lon="-1.2397979999999986">
        <ele>225.855</ele>
        <time>2022-08-24T06:29:54Z</time>
      </trkpt>
      <trkpt lat="43.15722799999996" lon="-1.2398029999999987">
        <ele>226.029</ele>
        <time>2022-08-24T06:29:55Z</time>
      </trkpt>
      <trkpt lat="43.15721699999996" lon="-1.2398129999999987">
        <ele>226.098</ele>
        <time>2022-08-24T06:29:56Z</time>
      </trkpt>
      <trkpt lat="43.15720599999996" lon="-1.2398159999999987">
        <ele>226.294</ele>
        <time>2022-08-24T06:29:57Z</time>
      </trkpt>
      <trkpt lat="43.15719899999996" lon="-1.2398189999999987">
        <ele>226.257</ele>
        <time>2022-08-24T06:29:58Z</time>
      </trkpt>
      <trkpt lat="43.157186999999965" lon="-1.2398279999999986">
        <ele>226.222</ele>
        <time>2022-08-24T06:29:59Z</time>
      </trkpt>
      <trkpt lat="43.157178999999964" lon="-1.2398349999999987">
        <ele>226.409</ele>
        <time>2022-08-24T06:30:00Z</time>
      </trkpt>
      <trkpt lat="43.15717099999996" lon="-1.2398379999999987">
        <ele>226.670</ele>
        <time>2022-08-24T06:30:01Z</time>
      </trkpt>
      <trkpt lat="43.15715999999996" lon="-1.2398409999999986">
        <ele>226.670</ele>
        <time>2022-08-24T06:30:02Z</time>
      </trkpt>
      <trkpt lat="43.157147999999964" lon="-1.2398479999999987">
        <ele>226.670</ele>
        <time>2022-08-24T06:30:03Z</time>
      </trkpt>
      <trkpt lat="43.15713699999996" lon="-1.2398529999999988">
        <ele>226.816</ele>
        <time>2022-08-24T06:30:04Z</time>
      </trkpt>
      <trkpt lat="43.15712599999996" lon="-1.2398539999999987">
        <ele>226.858</ele>
        <time>2022-08-24T06:30:05Z</time>
      </trkpt>
      <trkpt lat="43.15711599999996" lon="-1.2398539999999987">
        <ele>226.845</ele>
        <time>2022-08-24T06:30:06Z</time>
      </trkpt>
      <trkpt lat="43.157105999999956" lon="-1.2398549999999986">
        <ele>226.848</ele>
        <time>2022-08-24T06:30:07Z</time>
      </trkpt>
      <trkpt lat="43.15709599999995" lon="-1.2398539999999987">
        <ele>226.852</ele>
        <time>2022-08-24T06:30:08Z</time>
      </trkpt>
      <trkpt lat="43.157086999999954" lon="-1.2398579999999986">
        <ele>226.831</ele>
        <time>2022-08-24T06:30:09Z</time>
      </trkpt>
      <trkpt lat="43.157077999999956" lon="-1.2398649999999987">
        <ele>226.811</ele>
        <time>2022-08-24T06:30:10Z</time>
      </trkpt>
      <trkpt lat="43.157069999999955" lon="-1.2398749999999987">
        <ele>226.821</ele>
        <time>2022-08-24T06:30:11Z</time>
      </trkpt>
      <trkpt lat="43.15705399999995" lon="-1.2398829999999987">
        <ele>226.803</ele>
        <time>2022-08-24T06:30:12Z</time>
      </trkpt>
      <trkpt lat="43.157041999999954" lon="-1.2398849999999988">
        <ele>226.809</ele>
        <time>2022-08-24T06:30:13Z</time>
      </trkpt>
      <trkpt lat="43.15702599999995" lon="-1.2398829999999987">
        <ele>226.872</ele>
        <time>2022-08-24T06:30:14Z</time>
      </trkpt>
      <trkpt lat="43.157013999999954" lon="-1.2398819999999988">
        <ele>227.022</ele>
        <time>2022-08-24T06:30:15Z</time>
      </trkpt>
      <trkpt lat="43.156993999999955" lon="-1.2398819999999988">
        <ele>227.092</ele>
        <time>2022-08-24T06:30:16Z</time>
      </trkpt>
      <trkpt lat="43.156962999999955" lon="-1.2398919999999989">
        <ele>227.028</ele>
        <time>2022-08-24T06:30:18Z</time>
      </trkpt>
      <trkpt lat="43.156951999999954" lon="-1.239896999999999">
        <ele>227.040</ele>
        <time>2022-08-24T06:30:19Z</time>
      </trkpt>
      <trkpt lat="43.156942999999956" lon="-1.239903999999999">
        <ele>227.047</ele>
        <time>2022-08-24T06:30:20Z</time>
      </trkpt>
      <trkpt lat="43.15691099999996" lon="-1.239917999999999">
        <ele>227.070</ele>
        <time>2022-08-24T06:30:23Z</time>
      </trkpt>
      <trkpt lat="43.15684799999996" lon="-1.2399379999999989">
        <ele>227.214</ele>
        <time>2022-08-24T06:30:27Z</time>
      </trkpt>
      <trkpt lat="43.15681499999996" lon="-1.239961999999999">
        <ele>227.273</ele>
        <time>2022-08-24T06:30:30Z</time>
      </trkpt>
      <trkpt lat="43.15673999999996" lon="-1.2399899999999988">
        <ele>227.498</ele>
        <time>2022-08-24T06:30:34Z</time>
      </trkpt>
      <trkpt lat="43.15672499999996" lon="-1.239996999999999">
        <ele>227.415</ele>
        <time>2022-08-24T06:30:35Z</time>
      </trkpt>
      <trkpt lat="43.15670699999996" lon="-1.240004999999999">
        <ele>227.626</ele>
        <time>2022-08-24T06:30:36Z</time>
      </trkpt>
      <trkpt lat="43.15657999999996" lon="-1.240050999999999">
        <ele>227.809</ele>
        <time>2022-08-24T06:30:42Z</time>
      </trkpt>
      <trkpt lat="43.156519999999965" lon="-1.240077999999999">
        <ele>228.080</ele>
        <time>2022-08-24T06:30:45Z</time>
      </trkpt>
      <trkpt lat="43.15650499999997" lon="-1.240087999999999">
        <ele>228.060</ele>
        <time>2022-08-24T06:30:46Z</time>
      </trkpt>
      <trkpt lat="43.156437999999966" lon="-1.240120999999999">
        <ele>228.470</ele>
        <time>2022-08-24T06:30:49Z</time>
      </trkpt>
      <trkpt lat="43.156418999999964" lon="-1.2401269999999989">
        <ele>228.676</ele>
        <time>2022-08-24T06:30:50Z</time>
      </trkpt>
      <trkpt lat="43.15639399999996" lon="-1.240136999999999">
        <ele>228.848</ele>
        <time>2022-08-24T06:30:51Z</time>
      </trkpt>
      <trkpt lat="43.15635199999996" lon="-1.240152999999999">
        <ele>228.835</ele>
        <time>2022-08-24T06:30:53Z</time>
      </trkpt>
      <trkpt lat="43.15621699999996" lon="-1.240257999999999">
        <ele>229.458</ele>
        <time>2022-08-24T06:31:00Z</time>
      </trkpt>
      <trkpt lat="43.15618399999996" lon="-1.240282999999999">
        <ele>229.642</ele>
        <time>2022-08-24T06:31:02Z</time>
      </trkpt>
      <trkpt lat="43.15611899999996" lon="-1.240330999999999">
        <ele>229.821</ele>
        <time>2022-08-24T06:31:05Z</time>
      </trkpt>
      <trkpt lat="43.15609699999996" lon="-1.240347999999999">
        <ele>229.885</ele>
        <time>2022-08-24T06:31:06Z</time>
      </trkpt>
      <trkpt lat="43.15607799999996" lon="-1.2403649999999988">
        <ele>230.089</ele>
        <time>2022-08-24T06:31:07Z</time>
      </trkpt>
      <trkpt lat="43.156058999999956" lon="-1.240379999999999">
        <ele>230.017</ele>
        <time>2022-08-24T06:31:08Z</time>
      </trkpt>
      <trkpt lat="43.15604099999996" lon="-1.240392999999999">
        <ele>230.009</ele>
        <time>2022-08-24T06:31:09Z</time>
      </trkpt>
      <trkpt lat="43.15602499999996" lon="-1.240405999999999">
        <ele>230.299</ele>
        <time>2022-08-24T06:31:10Z</time>
      </trkpt>
      <trkpt lat="43.156008999999955" lon="-1.240418999999999">
        <ele>230.219</ele>
        <time>2022-08-24T06:31:11Z</time>
      </trkpt>
      <trkpt lat="43.15591699999995" lon="-1.240503999999999">
        <ele>230.669</ele>
        <time>2022-08-24T06:31:16Z</time>
      </trkpt>
      <trkpt lat="43.15588399999995" lon="-1.240524999999999">
        <ele>230.865</ele>
        <time>2022-08-24T06:31:18Z</time>
      </trkpt>
      <trkpt lat="43.15586599999995" lon="-1.240540999999999">
        <ele>230.867</ele>
        <time>2022-08-24T06:31:19Z</time>
      </trkpt>
      <trkpt lat="43.15585299999995" lon="-1.240554999999999">
        <ele>231.054</ele>
        <time>2022-08-24T06:31:20Z</time>
      </trkpt>
      <trkpt lat="43.15582399999995" lon="-1.240586999999999">
        <ele>231.487</ele>
        <time>2022-08-24T06:31:22Z</time>
      </trkpt>
      <trkpt lat="43.155771999999956" lon="-1.240632999999999">
        <ele>231.861</ele>
        <time>2022-08-24T06:31:25Z</time>
      </trkpt>
      <trkpt lat="43.15567799999996" lon="-1.240719999999999">
        <ele>232.610</ele>
        <time>2022-08-24T06:31:30Z</time>
      </trkpt>
      <trkpt lat="43.15565899999996" lon="-1.2407369999999989">
        <ele>232.882</ele>
        <time>2022-08-24T06:31:31Z</time>
      </trkpt>
      <trkpt lat="43.155639999999956" lon="-1.2407569999999988">
        <ele>233.043</ele>
        <time>2022-08-24T06:31:32Z</time>
      </trkpt>
      <trkpt lat="43.155622999999956" lon="-1.2407749999999989">
        <ele>233.217</ele>
        <time>2022-08-24T06:31:33Z</time>
      </trkpt>
      <trkpt lat="43.15560499999996" lon="-1.240792999999999">
        <ele>233.609</ele>
        <time>2022-08-24T06:31:34Z</time>
      </trkpt>
      <trkpt lat="43.15558999999996" lon="-1.240810999999999">
        <ele>233.829</ele>
        <time>2022-08-24T06:31:35Z</time>
      </trkpt>
      <trkpt lat="43.155571999999964" lon="-1.240827999999999">
        <ele>234.089</ele>
        <time>2022-08-24T06:31:36Z</time>
      </trkpt>
      <trkpt lat="43.15555299999996" lon="-1.2408449999999989">
        <ele>234.079</ele>
        <time>2022-08-24T06:31:37Z</time>
      </trkpt>
      <trkpt lat="43.15554499999996" lon="-1.2408639999999989">
        <ele>234.465</ele>
        <time>2022-08-24T06:31:38Z</time>
      </trkpt>
      <trkpt lat="43.15554299999996" lon="-1.2408829999999988">
        <ele>234.677</ele>
        <time>2022-08-24T06:31:39Z</time>
      </trkpt>
      <trkpt lat="43.15553799999996" lon="-1.2408989999999989">
        <ele>234.824</ele>
        <time>2022-08-24T06:31:40Z</time>
      </trkpt>
      <trkpt lat="43.155524999999955" lon="-1.240908999999999">
        <ele>235.467</ele>
        <time>2022-08-24T06:31:41Z</time>
      </trkpt>
      <trkpt lat="43.15550999999996" lon="-1.2409129999999988">
        <ele>235.411</ele>
        <time>2022-08-24T06:31:42Z</time>
      </trkpt>
      <trkpt lat="43.15550099999996" lon="-1.2409139999999987">
        <ele>235.640</ele>
        <time>2022-08-24T06:31:43Z</time>
      </trkpt>
      <trkpt lat="43.15551199999996" lon="-1.2409599999999987">
        <ele>236.649</ele>
        <time>2022-08-24T06:31:58Z</time>
      </trkpt>
      <trkpt lat="43.15551199999996" lon="-1.2409699999999988">
        <ele>236.602</ele>
        <time>2022-08-24T06:31:59Z</time>
      </trkpt>
      <trkpt lat="43.15550799999996" lon="-1.2409809999999988">
        <ele>236.622</ele>
        <time>2022-08-24T06:32:00Z</time>
      </trkpt>
      <trkpt lat="43.15550499999996" lon="-1.2409889999999988">
        <ele>236.609</ele>
        <time>2022-08-24T06:32:01Z</time>
      </trkpt>
      <trkpt lat="43.155503999999965" lon="-1.2409919999999988">
        <ele>236.825</ele>
        <time>2022-08-24T06:32:02Z</time>
      </trkpt>
      <trkpt lat="43.15549899999996" lon="-1.2409919999999988">
        <ele>236.835</ele>
        <time>2022-08-24T06:32:03Z</time>
      </trkpt>
      <trkpt lat="43.155497999999966" lon="-1.2409929999999987">
        <ele>237.095</ele>
        <time>2022-08-24T06:32:04Z</time>
      </trkpt>
      <trkpt lat="43.155492999999964" lon="-1.2409949999999987">
        <ele>237.041</ele>
        <time>2022-08-24T06:32:05Z</time>
      </trkpt>
      <trkpt lat="43.155486999999965" lon="-1.2409949999999987">
        <ele>237.223</ele>
        <time>2022-08-24T06:32:06Z</time>
      </trkpt>
      <trkpt lat="43.155481999999964" lon="-1.2409889999999988">
        <ele>237.210</ele>
        <time>2022-08-24T06:32:07Z</time>
      </trkpt>
      <trkpt lat="43.15547699999996" lon="-1.2409869999999987">
        <ele>237.423</ele>
        <time>2022-08-24T06:32:08Z</time>
      </trkpt>
      <trkpt lat="43.15547099999996" lon="-1.2409839999999988">
        <ele>237.437</ele>
        <time>2022-08-24T06:32:09Z</time>
      </trkpt>
      <trkpt lat="43.155481999999964" lon="-1.2409949999999987">
        <ele>237.656</ele>
        <time>2022-08-24T06:35:33Z</time>
      </trkpt>
      <trkpt lat="43.15548499999996" lon="-1.2410049999999988">
        <ele>237.686</ele>
        <time>2022-08-24T06:35:34Z</time>
      </trkpt>
      <trkpt lat="43.15549199999996" lon="-1.2410129999999988">
        <ele>237.660</ele>
        <time>2022-08-24T06:35:35Z</time>
      </trkpt>
      <trkpt lat="43.15554899999996" lon="-1.2410189999999988">
        <ele>237.626</ele>
        <time>2022-08-24T06:35:39Z</time>
      </trkpt>
      <trkpt lat="43.15556499999996" lon="-1.2410209999999988">
        <ele>237.609</ele>
        <time>2022-08-24T06:35:40Z</time>
      </trkpt>
      <trkpt lat="43.15558599999996" lon="-1.241027999999999">
        <ele>237.659</ele>
        <time>2022-08-24T06:35:41Z</time>
      </trkpt>
      <trkpt lat="43.15568399999996" lon="-1.241037999999999">
        <ele>237.469</ele>
        <time>2022-08-24T06:35:45Z</time>
      </trkpt>
      <trkpt lat="43.155749999999955" lon="-1.241056999999999">
        <ele>237.229</ele>
        <time>2022-08-24T06:35:47Z</time>
      </trkpt>
      <trkpt lat="43.155878999999956" lon="-1.241085999999999">
        <ele>237.085</ele>
        <time>2022-08-24T06:35:50Z</time>
      </trkpt>
      <trkpt lat="43.155957999999956" lon="-1.241094999999999">
        <ele>236.457</ele>
        <time>2022-08-24T06:35:52Z</time>
      </trkpt>
      <trkpt lat="43.155997999999954" lon="-1.241100999999999">
        <ele>236.474</ele>
        <time>2022-08-24T06:35:53Z</time>
      </trkpt>
      <trkpt lat="43.15608399999996" lon="-1.2411129999999988">
        <ele>236.047</ele>
        <time>2022-08-24T06:35:55Z</time>
      </trkpt>
      <trkpt lat="43.156126999999955" lon="-1.2411189999999988">
        <ele>235.621</ele>
        <time>2022-08-24T06:35:56Z</time>
      </trkpt>
      <trkpt lat="43.156166999999954" lon="-1.2411279999999987">
        <ele>235.440</ele>
        <time>2022-08-24T06:35:57Z</time>
      </trkpt>
      <trkpt lat="43.15620399999995" lon="-1.2411409999999987">
        <ele>235.083</ele>
        <time>2022-08-24T06:35:58Z</time>
      </trkpt>
      <trkpt lat="43.15623299999995" lon="-1.2411599999999987">
        <ele>234.825</ele>
        <time>2022-08-24T06:35:59Z</time>
      </trkpt>
      <trkpt lat="43.15624499999995" lon="-1.2411749999999988">
        <ele>234.617</ele>
        <time>2022-08-24T06:36:00Z</time>
      </trkpt>
      <trkpt lat="43.15624699999995" lon="-1.2411879999999988">
        <ele>234.009</ele>
        <time>2022-08-24T06:36:01Z</time>
      </trkpt>
      <trkpt lat="43.15624399999995" lon="-1.2411909999999988">
        <ele>234.089</ele>
        <time>2022-08-24T06:36:02Z</time>
      </trkpt>
      <trkpt lat="43.156239999999954" lon="-1.2411929999999989">
        <ele>233.899</ele>
        <time>2022-08-24T06:36:03Z</time>
      </trkpt>
      <trkpt lat="43.15623499999995" lon="-1.2411939999999988">
        <ele>233.669</ele>
        <time>2022-08-24T06:36:04Z</time>
      </trkpt>
      <trkpt lat="43.15622699999995" lon="-1.2411929999999989">
        <ele>233.655</ele>
        <time>2022-08-24T06:36:05Z</time>
      </trkpt>
      <trkpt lat="43.15621899999995" lon="-1.241188999999999">
        <ele>233.467</ele>
        <time>2022-08-24T06:36:06Z</time>
      </trkpt>
      <trkpt lat="43.15621499999995" lon="-1.241180999999999">
        <ele>233.434</ele>
        <time>2022-08-24T06:36:07Z</time>
      </trkpt>
      <trkpt lat="43.156210999999956" lon="-1.241177999999999">
        <ele>233.457</ele>
        <time>2022-08-24T06:36:08Z</time>
      </trkpt>
      <trkpt lat="43.15620399999996" lon="-1.241172999999999">
        <ele>233.461</ele>
        <time>2022-08-24T06:36:09Z</time>
      </trkpt>
      <trkpt lat="43.15615399999996" lon="-1.241174999999999">
        <ele>233.280</ele>
        <time>2022-08-24T06:36:13Z</time>
      </trkpt>
      <trkpt lat="43.15613299999996" lon="-1.241166999999999">
        <ele>233.456</ele>
        <time>2022-08-24T06:36:14Z</time>
      </trkpt>
      <trkpt lat="43.156114999999964" lon="-1.241157999999999">
        <ele>233.459</ele>
        <time>2022-08-24T06:36:15Z</time>
      </trkpt>
      <trkpt lat="43.15594399999996" lon="-1.241130999999999">
        <ele>233.614</ele>
        <time>2022-08-24T06:36:20Z</time>
      </trkpt>
      <trkpt lat="43.155908999999966" lon="-1.2411249999999991">
        <ele>233.809</ele>
        <time>2022-08-24T06:36:21Z</time>
      </trkpt>
      <trkpt lat="43.155877999999966" lon="-1.2411189999999992">
        <ele>234.256</ele>
        <time>2022-08-24T06:36:22Z</time>
      </trkpt>
      <trkpt lat="43.155846999999966" lon="-1.2411169999999991">
        <ele>234.446</ele>
        <time>2022-08-24T06:36:23Z</time>
      </trkpt>
      <trkpt lat="43.155815999999966" lon="-1.241109999999999">
        <ele>234.856</ele>
        <time>2022-08-24T06:36:24Z</time>
      </trkpt>
      <trkpt lat="43.15578899999996" lon="-1.241103999999999">
        <ele>235.012</ele>
        <time>2022-08-24T06:36:25Z</time>
      </trkpt>
      <trkpt lat="43.155765999999964" lon="-1.241098999999999">
        <ele>235.274</ele>
        <time>2022-08-24T06:36:26Z</time>
      </trkpt>
      <trkpt lat="43.15574399999996" lon="-1.241093999999999">
        <ele>235.441</ele>
        <time>2022-08-24T06:36:27Z</time>
      </trkpt>
      <trkpt lat="43.155720999999964" lon="-1.241087999999999">
        <ele>235.864</ele>
        <time>2022-08-24T06:36:28Z</time>
      </trkpt>
      <trkpt lat="43.15569899999996" lon="-1.241085999999999">
        <ele>236.048</ele>
        <time>2022-08-24T06:36:29Z</time>
      </trkpt>
      <trkpt lat="43.155680999999966" lon="-1.241079999999999">
        <ele>236.287</ele>
        <time>2022-08-24T06:36:30Z</time>
      </trkpt>
      <trkpt lat="43.155661999999964" lon="-1.241077999999999">
        <ele>236.496</ele>
        <time>2022-08-24T06:36:31Z</time>
      </trkpt>
      <trkpt lat="43.155638999999965" lon="-1.241072999999999">
        <ele>236.431</ele>
        <time>2022-08-24T06:36:32Z</time>
      </trkpt>
      <trkpt lat="43.15561799999997" lon="-1.241063999999999">
        <ele>236.624</ele>
        <time>2022-08-24T06:36:33Z</time>
      </trkpt>
      <trkpt lat="43.155525999999966" lon="-1.2410389999999991">
        <ele>237.209</ele>
        <time>2022-08-24T06:36:37Z</time>
      </trkpt>
      <trkpt lat="43.15549999999997" lon="-1.241033999999999">
        <ele>237.480</ele>
        <time>2022-08-24T06:36:38Z</time>
      </trkpt>
      <trkpt lat="43.15547399999997" lon="-1.2410299999999992">
        <ele>237.630</ele>
        <time>2022-08-24T06:36:39Z</time>
      </trkpt>
      <trkpt lat="43.15544699999997" lon="-1.2410289999999993">
        <ele>237.650</ele>
        <time>2022-08-24T06:36:40Z</time>
      </trkpt>
      <trkpt lat="43.15542399999997" lon="-1.2410239999999992">
        <ele>237.876</ele>
        <time>2022-08-24T06:36:41Z</time>
      </trkpt>
      <trkpt lat="43.15539599999997" lon="-1.2410189999999992">
        <ele>237.898</ele>
        <time>2022-08-24T06:36:42Z</time>
      </trkpt>
      <trkpt lat="43.155376999999966" lon="-1.2410159999999992">
        <ele>237.895</ele>
        <time>2022-08-24T06:36:43Z</time>
      </trkpt>
      <trkpt lat="43.155351999999965" lon="-1.2410169999999991">
        <ele>237.848</ele>
        <time>2022-08-24T06:36:44Z</time>
      </trkpt>
      <trkpt lat="43.15532799999996" lon="-1.2410199999999991">
        <ele>238.062</ele>
        <time>2022-08-24T06:36:45Z</time>
      </trkpt>
      <trkpt lat="43.15530499999996" lon="-1.241025999999999">
        <ele>238.061</ele>
        <time>2022-08-24T06:36:46Z</time>
      </trkpt>
      <trkpt lat="43.155278999999965" lon="-1.241031999999999">
        <ele>238.258</ele>
        <time>2022-08-24T06:36:47Z</time>
      </trkpt>
      <trkpt lat="43.15526399999997" lon="-1.241037999999999">
        <ele>238.252</ele>
        <time>2022-08-24T06:36:48Z</time>
      </trkpt>
      <trkpt lat="43.155244999999965" lon="-1.241044999999999">
        <ele>238.217</ele>
        <time>2022-08-24T06:36:49Z</time>
      </trkpt>
      <trkpt lat="43.15521899999997" lon="-1.2410519999999992">
        <ele>238.609</ele>
        <time>2022-08-24T06:36:50Z</time>
      </trkpt>
      <trkpt lat="43.155202999999965" lon="-1.241055999999999">
        <ele>238.616</ele>
        <time>2022-08-24T06:36:51Z</time>
      </trkpt>
      <trkpt lat="43.15518799999997" lon="-1.241063999999999">
        <ele>238.816</ele>
        <time>2022-08-24T06:36:52Z</time>
      </trkpt>
      <trkpt lat="43.15517099999997" lon="-1.2410709999999991">
        <ele>238.826</ele>
        <time>2022-08-24T06:36:53Z</time>
      </trkpt>
      <trkpt lat="43.15515399999997" lon="-1.241076999999999">
        <ele>239.062</ele>
        <time>2022-08-24T06:36:54Z</time>
      </trkpt>
      <trkpt lat="43.15513599999997" lon="-1.2410839999999992">
        <ele>239.024</ele>
        <time>2022-08-24T06:36:55Z</time>
      </trkpt>
      <trkpt lat="43.15511899999997" lon="-1.2410919999999992">
        <ele>239.481</ele>
        <time>2022-08-24T06:36:56Z</time>
      </trkpt>
      <trkpt lat="43.15510499999997" lon="-1.2410999999999992">
        <ele>239.854</ele>
        <time>2022-08-24T06:36:57Z</time>
      </trkpt>
      <trkpt lat="43.15508999999997" lon="-1.2411049999999992">
        <ele>240.088</ele>
        <time>2022-08-24T06:36:58Z</time>
      </trkpt>
      <trkpt lat="43.15507399999997" lon="-1.2411099999999993">
        <ele>240.247</ele>
        <time>2022-08-24T06:36:59Z</time>
      </trkpt>
      <trkpt lat="43.15505899999997" lon="-1.2411179999999993">
        <ele>240.468</ele>
        <time>2022-08-24T06:37:00Z</time>
      </trkpt>
      <trkpt lat="43.15504499999997" lon="-1.2411279999999993">
        <ele>240.842</ele>
        <time>2022-08-24T06:37:01Z</time>
      </trkpt>
      <trkpt lat="43.15503099999997" lon="-1.2411379999999994">
        <ele>240.826</ele>
        <time>2022-08-24T06:37:02Z</time>
      </trkpt>
      <trkpt lat="43.15501199999997" lon="-1.2411459999999994">
        <ele>241.209</ele>
        <time>2022-08-24T06:37:03Z</time>
      </trkpt>
      <trkpt lat="43.15499599999997" lon="-1.2411589999999995">
        <ele>241.267</ele>
        <time>2022-08-24T06:37:04Z</time>
      </trkpt>
      <trkpt lat="43.15497899999997" lon="-1.2411639999999995">
        <ele>241.447</ele>
        <time>2022-08-24T06:37:05Z</time>
      </trkpt>
      <trkpt lat="43.154965999999966" lon="-1.2411709999999996">
        <ele>241.867</ele>
        <time>2022-08-24T06:37:06Z</time>
      </trkpt>
      <trkpt lat="43.15495099999997" lon="-1.2411799999999995">
        <ele>242.083</ele>
        <time>2022-08-24T06:37:07Z</time>
      </trkpt>
      <trkpt lat="43.15493399999997" lon="-1.2411879999999995">
        <ele>242.255</ele>
        <time>2022-08-24T06:37:08Z</time>
      </trkpt>
      <trkpt lat="43.15491499999997" lon="-1.2411949999999996">
        <ele>242.432</ele>
        <time>2022-08-24T06:37:09Z</time>
      </trkpt>
      <trkpt lat="43.15489399999997" lon="-1.2412009999999996">
        <ele>242.885</ele>
        <time>2022-08-24T06:37:10Z</time>
      </trkpt>
      <trkpt lat="43.15488299999997" lon="-1.2412069999999995">
        <ele>243.079</ele>
        <time>2022-08-24T06:37:11Z</time>
      </trkpt>
      <trkpt lat="43.15486699999997" lon="-1.2412109999999994">
        <ele>243.278</ele>
        <time>2022-08-24T06:37:12Z</time>
      </trkpt>
      <trkpt lat="43.15485199999997" lon="-1.2412139999999994">
        <ele>243.432</ele>
        <time>2022-08-24T06:37:13Z</time>
      </trkpt>
      <trkpt lat="43.15483599999997" lon="-1.2412189999999994">
        <ele>243.892</ele>
        <time>2022-08-24T06:37:14Z</time>
      </trkpt>
      <trkpt lat="43.154819999999965" lon="-1.2412229999999993">
        <ele>244.011</ele>
        <time>2022-08-24T06:37:15Z</time>
      </trkpt>
      <trkpt lat="43.154802999999966" lon="-1.2412279999999993">
        <ele>244.209</ele>
        <time>2022-08-24T06:37:16Z</time>
      </trkpt>
      <trkpt lat="43.154785999999966" lon="-1.2412329999999994">
        <ele>244.444</ele>
        <time>2022-08-24T06:37:17Z</time>
      </trkpt>
      <trkpt lat="43.15477099999997" lon="-1.2412389999999993">
        <ele>244.484</ele>
        <time>2022-08-24T06:37:18Z</time>
      </trkpt>
      <trkpt lat="43.15475299999997" lon="-1.2412449999999993">
        <ele>244.644</ele>
        <time>2022-08-24T06:37:19Z</time>
      </trkpt>
      <trkpt lat="43.15473699999997" lon="-1.2412549999999993">
        <ele>244.830</ele>
        <time>2022-08-24T06:37:20Z</time>
      </trkpt>
      <trkpt lat="43.15472099999997" lon="-1.2412619999999994">
        <ele>245.022</ele>
        <time>2022-08-24T06:37:21Z</time>
      </trkpt>
      <trkpt lat="43.154706999999966" lon="-1.2412709999999993">
        <ele>245.429</ele>
        <time>2022-08-24T06:37:22Z</time>
      </trkpt>
      <trkpt lat="43.15468899999997" lon="-1.2412829999999992">
        <ele>245.652</ele>
        <time>2022-08-24T06:37:23Z</time>
      </trkpt>
      <trkpt lat="43.15467299999997" lon="-1.2412939999999992">
        <ele>245.836</ele>
        <time>2022-08-24T06:37:24Z</time>
      </trkpt>
      <trkpt lat="43.15465599999997" lon="-1.2413049999999992">
        <ele>246.035</ele>
        <time>2022-08-24T06:37:25Z</time>
      </trkpt>
      <trkpt lat="43.15464199999997" lon="-1.2413119999999993">
        <ele>246.462</ele>
        <time>2022-08-24T06:37:26Z</time>
      </trkpt>
      <trkpt lat="43.154622999999965" lon="-1.2413219999999994">
        <ele>246.883</ele>
        <time>2022-08-24T06:37:27Z</time>
      </trkpt>
      <trkpt lat="43.154605999999966" lon="-1.2413319999999994">
        <ele>246.811</ele>
        <time>2022-08-24T06:37:28Z</time>
      </trkpt>
      <trkpt lat="43.154591999999965" lon="-1.2413389999999995">
        <ele>247.209</ele>
        <time>2022-08-24T06:37:29Z</time>
      </trkpt>
      <trkpt lat="43.15457999999997" lon="-1.2413469999999995">
        <ele>247.457</ele>
        <time>2022-08-24T06:37:30Z</time>
      </trkpt>
      <trkpt lat="43.154566999999965" lon="-1.2413519999999996">
        <ele>247.667</ele>
        <time>2022-08-24T06:37:31Z</time>
      </trkpt>
      <trkpt lat="43.154552999999964" lon="-1.2413559999999995">
        <ele>247.887</ele>
        <time>2022-08-24T06:37:32Z</time>
      </trkpt>
      <trkpt lat="43.154538999999964" lon="-1.2413599999999994">
        <ele>248.253</ele>
        <time>2022-08-24T06:37:33Z</time>
      </trkpt>
      <trkpt lat="43.154524999999964" lon="-1.2413679999999994">
        <ele>248.665</ele>
        <time>2022-08-24T06:37:34Z</time>
      </trkpt>
      <trkpt lat="43.154509999999966" lon="-1.2413779999999994">
        <ele>248.872</ele>
        <time>2022-08-24T06:37:35Z</time>
      </trkpt>
      <trkpt lat="43.15449299999997" lon="-1.2413849999999995">
        <ele>249.045</ele>
        <time>2022-08-24T06:37:36Z</time>
      </trkpt>
      <trkpt lat="43.15447899999997" lon="-1.2413939999999994">
        <ele>249.089</ele>
        <time>2022-08-24T06:37:37Z</time>
      </trkpt>
      <trkpt lat="43.154465999999964" lon="-1.2414009999999995">
        <ele>249.488</ele>
        <time>2022-08-24T06:37:38Z</time>
      </trkpt>
      <trkpt lat="43.154445999999965" lon="-1.2414059999999996">
        <ele>249.682</ele>
        <time>2022-08-24T06:37:39Z</time>
      </trkpt>
      <trkpt lat="43.15442699999996" lon="-1.2414119999999995">
        <ele>250.043</ele>
        <time>2022-08-24T06:37:40Z</time>
      </trkpt>
      <trkpt lat="43.154408999999966" lon="-1.2414239999999994">
        <ele>250.017</ele>
        <time>2022-08-24T06:37:41Z</time>
      </trkpt>
      <trkpt lat="43.154383999999965" lon="-1.2414349999999994">
        <ele>250.209</ele>
        <time>2022-08-24T06:37:42Z</time>
      </trkpt>
      <trkpt lat="43.15436599999997" lon="-1.2414439999999993">
        <ele>250.479</ele>
        <time>2022-08-24T06:37:43Z</time>
      </trkpt>
      <trkpt lat="43.15434899999997" lon="-1.2414499999999993">
        <ele>250.669</ele>
        <time>2022-08-24T06:37:44Z</time>
      </trkpt>
      <trkpt lat="43.15432799999997" lon="-1.2414609999999993">
        <ele>250.859</ele>
        <time>2022-08-24T06:37:45Z</time>
      </trkpt>
      <trkpt lat="43.154306999999974" lon="-1.2414699999999992">
        <ele>251.055</ele>
        <time>2022-08-24T06:37:46Z</time>
      </trkpt>
      <trkpt lat="43.15428599999998" lon="-1.2414799999999993">
        <ele>251.287</ele>
        <time>2022-08-24T06:37:47Z</time>
      </trkpt>
      <trkpt lat="43.154266999999976" lon="-1.2414929999999993">
        <ele>251.294</ele>
        <time>2022-08-24T06:37:48Z</time>
      </trkpt>
      <trkpt lat="43.15424899999998" lon="-1.2415029999999994">
        <ele>251.647</ele>
        <time>2022-08-24T06:37:49Z</time>
      </trkpt>
      <trkpt lat="43.15423299999998" lon="-1.2415099999999994">
        <ele>252.051</ele>
        <time>2022-08-24T06:37:50Z</time>
      </trkpt>
      <trkpt lat="43.15421499999998" lon="-1.2415189999999994">
        <ele>252.020</ele>
        <time>2022-08-24T06:37:51Z</time>
      </trkpt>
      <trkpt lat="43.15419699999998" lon="-1.2415289999999994">
        <ele>252.685</ele>
        <time>2022-08-24T06:37:52Z</time>
      </trkpt>
      <trkpt lat="43.15418099999998" lon="-1.2415339999999995">
        <ele>252.689</ele>
        <time>2022-08-24T06:37:53Z</time>
      </trkpt>
      <trkpt lat="43.15416299999998" lon="-1.2415409999999996">
        <ele>252.817</ele>
        <time>2022-08-24T06:37:54Z</time>
      </trkpt>
      <trkpt lat="43.154144999999986" lon="-1.2415469999999995">
        <ele>253.009</ele>
        <time>2022-08-24T06:37:55Z</time>
      </trkpt>
      <trkpt lat="43.15412699999999" lon="-1.2415509999999994">
        <ele>253.249</ele>
        <time>2022-08-24T06:37:56Z</time>
      </trkpt>
      <trkpt lat="43.154110999999986" lon="-1.2415619999999994">
        <ele>253.429</ele>
        <time>2022-08-24T06:37:57Z</time>
      </trkpt>
      <trkpt lat="43.15409599999999" lon="-1.2415759999999993">
        <ele>253.429</ele>
        <time>2022-08-24T06:37:58Z</time>
      </trkpt>
      <trkpt lat="43.15407699999999" lon="-1.2415839999999994">
        <ele>253.845</ele>
        <time>2022-08-24T06:37:59Z</time>
      </trkpt>
      <trkpt lat="43.15405899999999" lon="-1.2415939999999994">
        <ele>254.037</ele>
        <time>2022-08-24T06:38:00Z</time>
      </trkpt>
      <trkpt lat="43.15404299999999" lon="-1.2416009999999995">
        <ele>254.274</ele>
        <time>2022-08-24T06:38:01Z</time>
      </trkpt>
      <trkpt lat="43.154023999999986" lon="-1.2416099999999994">
        <ele>254.447</ele>
        <time>2022-08-24T06:38:02Z</time>
      </trkpt>
      <trkpt lat="43.154004999999984" lon="-1.2416209999999994">
        <ele>254.631</ele>
        <time>2022-08-24T06:38:03Z</time>
      </trkpt>
      <trkpt lat="43.15398699999999" lon="-1.2416299999999993">
        <ele>254.810</ele>
        <time>2022-08-24T06:38:04Z</time>
      </trkpt>
      <trkpt lat="43.15396999999999" lon="-1.2416389999999993">
        <ele>254.827</ele>
        <time>2022-08-24T06:38:05Z</time>
      </trkpt>
      <trkpt lat="43.15395199999999" lon="-1.2416449999999992">
        <ele>255.468</ele>
        <time>2022-08-24T06:38:06Z</time>
      </trkpt>
      <trkpt lat="43.15393499999999" lon="-1.2416499999999993">
        <ele>255.414</ele>
        <time>2022-08-24T06:38:07Z</time>
      </trkpt>
      <trkpt lat="43.15391899999999" lon="-1.2416569999999993">
        <ele>256.009</ele>
        <time>2022-08-24T06:38:08Z</time>
      </trkpt>
      <trkpt lat="43.153902999999985" lon="-1.2416619999999994">
        <ele>256.093</ele>
        <time>2022-08-24T06:38:09Z</time>
      </trkpt>
      <trkpt lat="43.15388999999998" lon="-1.2416669999999994">
        <ele>256.443</ele>
        <time>2022-08-24T06:38:10Z</time>
      </trkpt>
      <trkpt lat="43.15386999999998" lon="-1.2416749999999994">
        <ele>256.643</ele>
        <time>2022-08-24T06:38:11Z</time>
      </trkpt>
      <trkpt lat="43.153851999999986" lon="-1.2416809999999994">
        <ele>256.829</ele>
        <time>2022-08-24T06:38:12Z</time>
      </trkpt>
      <trkpt lat="43.15383499999999" lon="-1.2416869999999993">
        <ele>257.251</ele>
        <time>2022-08-24T06:38:13Z</time>
      </trkpt>
      <trkpt lat="43.15381699999999" lon="-1.2416909999999992">
        <ele>257.458</ele>
        <time>2022-08-24T06:38:14Z</time>
      </trkpt>
      <trkpt lat="43.15380199999999" lon="-1.2416939999999992">
        <ele>257.821</ele>
        <time>2022-08-24T06:38:15Z</time>
      </trkpt>
      <trkpt lat="43.15378499999999" lon="-1.2416999999999991">
        <ele>258.085</ele>
        <time>2022-08-24T06:38:16Z</time>
      </trkpt>
      <trkpt lat="43.15376799999999" lon="-1.241705999999999">
        <ele>258.224</ele>
        <time>2022-08-24T06:38:17Z</time>
      </trkpt>
      <trkpt lat="43.15374899999999" lon="-1.241709999999999">
        <ele>258.462</ele>
        <time>2022-08-24T06:38:18Z</time>
      </trkpt>
      <trkpt lat="43.153727999999994" lon="-1.241710999999999">
        <ele>258.683</ele>
        <time>2022-08-24T06:38:19Z</time>
      </trkpt>
      <trkpt lat="43.153707999999995" lon="-1.241710999999999">
        <ele>259.011</ele>
        <time>2022-08-24T06:38:20Z</time>
      </trkpt>
      <trkpt lat="43.153687999999995" lon="-1.2417119999999988">
        <ele>259.009</ele>
        <time>2022-08-24T06:38:21Z</time>
      </trkpt>
      <trkpt lat="43.15367" lon="-1.2417179999999988">
        <ele>259.427</ele>
        <time>2022-08-24T06:38:22Z</time>
      </trkpt>
      <trkpt lat="43.153652" lon="-1.2417219999999987">
        <ele>259.447</ele>
        <time>2022-08-24T06:38:23Z</time>
      </trkpt>
      <trkpt lat="43.153634000000004" lon="-1.2417209999999987">
        <ele>259.867</ele>
        <time>2022-08-24T06:38:24Z</time>
      </trkpt>
      <trkpt lat="43.153612" lon="-1.2417199999999988">
        <ele>259.813</ele>
        <time>2022-08-24T06:38:25Z</time>
      </trkpt>
      <trkpt lat="43.153595" lon="-1.2417219999999989">
        <ele>260.025</ele>
        <time>2022-08-24T06:38:26Z</time>
      </trkpt>
      <trkpt lat="43.153579" lon="-1.2417219999999989">
        <ele>260.092</ele>
        <time>2022-08-24T06:38:27Z</time>
      </trkpt>
      <trkpt lat="43.153563" lon="-1.241720999999999">
        <ele>260.225</ele>
        <time>2022-08-24T06:38:28Z</time>
      </trkpt>
      <trkpt lat="43.153549999999996" lon="-1.241718999999999">
        <ele>260.269</ele>
        <time>2022-08-24T06:38:29Z</time>
      </trkpt>
      <trkpt lat="43.153529" lon="-1.241715999999999">
        <ele>260.458</ele>
        <time>2022-08-24T06:38:30Z</time>
      </trkpt>
      <trkpt lat="43.153511" lon="-1.2417169999999988">
        <ele>260.667</ele>
        <time>2022-08-24T06:38:31Z</time>
      </trkpt>
      <trkpt lat="43.153497" lon="-1.2417289999999988">
        <ele>260.681</ele>
        <time>2022-08-24T06:38:32Z</time>
      </trkpt>
      <trkpt lat="43.153482000000004" lon="-1.2417359999999988">
        <ele>261.019</ele>
        <time>2022-08-24T06:38:33Z</time>
      </trkpt>
      <trkpt lat="43.15346" lon="-1.241745999999999">
        <ele>261.209</ele>
        <time>2022-08-24T06:38:34Z</time>
      </trkpt>
      <trkpt lat="43.15344" lon="-1.2417579999999988">
        <ele>261.277</ele>
        <time>2022-08-24T06:38:35Z</time>
      </trkpt>
      <trkpt lat="43.153420000000004" lon="-1.241764999999999">
        <ele>261.457</ele>
        <time>2022-08-24T06:38:36Z</time>
      </trkpt>
      <trkpt lat="43.153400000000005" lon="-1.241774999999999">
        <ele>261.427</ele>
        <time>2022-08-24T06:38:37Z</time>
      </trkpt>
      <trkpt lat="43.15338200000001" lon="-1.241782999999999">
        <ele>261.823</ele>
        <time>2022-08-24T06:38:38Z</time>
      </trkpt>
      <trkpt lat="43.153363000000006" lon="-1.241795999999999">
        <ele>261.835</ele>
        <time>2022-08-24T06:38:39Z</time>
      </trkpt>
      <trkpt lat="43.15334300000001" lon="-1.241808999999999">
        <ele>262.022</ele>
        <time>2022-08-24T06:38:40Z</time>
      </trkpt>
      <trkpt lat="43.15332200000001" lon="-1.241819999999999">
        <ele>262.235</ele>
        <time>2022-08-24T06:38:41Z</time>
      </trkpt>
      <trkpt lat="43.15329800000001" lon="-1.241832999999999">
        <ele>262.239</ele>
        <time>2022-08-24T06:38:42Z</time>
      </trkpt>
      <trkpt lat="43.153276000000005" lon="-1.2418429999999991">
        <ele>262.448</ele>
        <time>2022-08-24T06:38:43Z</time>
      </trkpt>
      <trkpt lat="43.153257" lon="-1.241848999999999">
        <ele>262.662</ele>
        <time>2022-08-24T06:38:44Z</time>
      </trkpt>
      <trkpt lat="43.153237000000004" lon="-1.241856999999999">
        <ele>262.883</ele>
        <time>2022-08-24T06:38:45Z</time>
      </trkpt>
      <trkpt lat="43.153218" lon="-1.2418619999999991">
        <ele>263.011</ele>
        <time>2022-08-24T06:38:46Z</time>
      </trkpt>
      <trkpt lat="43.153203000000005" lon="-1.2418669999999992">
        <ele>263.209</ele>
        <time>2022-08-24T06:38:47Z</time>
      </trkpt>
      <trkpt lat="43.153186000000005" lon="-1.2418689999999992">
        <ele>263.447</ele>
        <time>2022-08-24T06:38:48Z</time>
      </trkpt>
      <trkpt lat="43.15317" lon="-1.2418739999999993">
        <ele>263.427</ele>
        <time>2022-08-24T06:38:49Z</time>
      </trkpt>
      <trkpt lat="43.153149000000006" lon="-1.2418799999999992">
        <ele>263.837</ele>
        <time>2022-08-24T06:38:50Z</time>
      </trkpt>
      <trkpt lat="43.15312900000001" lon="-1.2418859999999992">
        <ele>263.843</ele>
        <time>2022-08-24T06:38:51Z</time>
      </trkpt>
      <trkpt lat="43.15311200000001" lon="-1.241891999999999">
        <ele>264.055</ele>
        <time>2022-08-24T06:38:52Z</time>
      </trkpt>
      <trkpt lat="43.15309400000001" lon="-1.2418989999999992">
        <ele>264.052</ele>
        <time>2022-08-24T06:38:53Z</time>
      </trkpt>
      <trkpt lat="43.15307700000001" lon="-1.2419059999999993">
        <ele>264.225</ele>
        <time>2022-08-24T06:38:54Z</time>
      </trkpt>
      <trkpt lat="43.15306000000001" lon="-1.2419139999999993">
        <ele>264.459</ele>
        <time>2022-08-24T06:38:55Z</time>
      </trkpt>
      <trkpt lat="43.15304200000001" lon="-1.2419249999999993">
        <ele>264.688</ele>
        <time>2022-08-24T06:38:56Z</time>
      </trkpt>
      <trkpt lat="43.153027000000016" lon="-1.2419319999999994">
        <ele>264.878</ele>
        <time>2022-08-24T06:38:57Z</time>
      </trkpt>
      <trkpt lat="43.153010000000016" lon="-1.2419389999999995">
        <ele>264.833</ele>
        <time>2022-08-24T06:38:58Z</time>
      </trkpt>
      <trkpt lat="43.152993000000016" lon="-1.2419429999999994">
        <ele>265.026</ele>
        <time>2022-08-24T06:38:59Z</time>
      </trkpt>
      <trkpt lat="43.15297300000002" lon="-1.2419459999999993">
        <ele>265.209</ele>
        <time>2022-08-24T06:39:00Z</time>
      </trkpt>
      <trkpt lat="43.152957000000015" lon="-1.2419519999999993">
        <ele>265.228</ele>
        <time>2022-08-24T06:39:01Z</time>
      </trkpt>
      <trkpt lat="43.15294200000002" lon="-1.2419579999999992">
        <ele>265.458</ele>
        <time>2022-08-24T06:39:02Z</time>
      </trkpt>
      <trkpt lat="43.15292700000002" lon="-1.2419669999999992">
        <ele>265.428</ele>
        <time>2022-08-24T06:39:03Z</time>
      </trkpt>
      <trkpt lat="43.15291400000002" lon="-1.241975999999999">
        <ele>265.444</ele>
        <time>2022-08-24T06:39:04Z</time>
      </trkpt>
      <trkpt lat="43.15288600000002" lon="-1.2419859999999991">
        <ele>265.466</ele>
        <time>2022-08-24T06:39:38Z</time>
      </trkpt>
      <trkpt lat="43.152864000000015" lon="-1.241989999999999">
        <ele>265.473</ele>
        <time>2022-08-24T06:39:39Z</time>
      </trkpt>
      <trkpt lat="43.15270500000002" lon="-1.242025999999999">
        <ele>265.286</ele>
        <time>2022-08-24T06:39:44Z</time>
      </trkpt>
      <trkpt lat="43.15245500000002" lon="-1.2420999999999989">
        <ele>264.480</ele>
        <time>2022-08-24T06:39:49Z</time>
      </trkpt>
      <trkpt lat="43.15225800000002" lon="-1.242166999999999">
        <ele>264.069</ele>
        <time>2022-08-24T06:39:52Z</time>
      </trkpt>
      <trkpt lat="43.152115000000016" lon="-1.242227999999999">
        <ele>263.437</ele>
        <time>2022-08-24T06:39:54Z</time>
      </trkpt>
      <trkpt lat="43.15204100000002" lon="-1.242261999999999">
        <ele>262.849</ele>
        <time>2022-08-24T06:39:55Z</time>
      </trkpt>
      <trkpt lat="43.15173300000002" lon="-1.2424229999999992">
        <ele>261.413</ele>
        <time>2022-08-24T06:39:59Z</time>
      </trkpt>
      <trkpt lat="43.15164900000002" lon="-1.2424689999999992">
        <ele>261.209</ele>
        <time>2022-08-24T06:40:00Z</time>
      </trkpt>
      <trkpt lat="43.15148100000002" lon="-1.2425649999999993">
        <ele>260.074</ele>
        <time>2022-08-24T06:40:02Z</time>
      </trkpt>
      <trkpt lat="43.15123000000002" lon="-1.2427019999999993">
        <ele>258.824</ele>
        <time>2022-08-24T06:40:05Z</time>
      </trkpt>
      <trkpt lat="43.15114000000002" lon="-1.2427359999999994">
        <ele>258.494</ele>
        <time>2022-08-24T06:40:06Z</time>
      </trkpt>
      <trkpt lat="43.15105000000002" lon="-1.2427579999999994">
        <ele>258.040</ele>
        <time>2022-08-24T06:40:07Z</time>
      </trkpt>
      <trkpt lat="43.15096100000002" lon="-1.2427769999999994">
        <ele>257.862</ele>
        <time>2022-08-24T06:40:08Z</time>
      </trkpt>
      <trkpt lat="43.150880000000015" lon="-1.2427929999999994">
        <ele>257.089</ele>
        <time>2022-08-24T06:40:09Z</time>
      </trkpt>
      <trkpt lat="43.150801000000016" lon="-1.2428069999999993">
        <ele>256.892</ele>
        <time>2022-08-24T06:40:10Z</time>
      </trkpt>
      <trkpt lat="43.15072600000001" lon="-1.2428229999999993">
        <ele>256.296</ele>
        <time>2022-08-24T06:40:11Z</time>
      </trkpt>
      <trkpt lat="43.150655000000015" lon="-1.2428319999999993">
        <ele>256.035</ele>
        <time>2022-08-24T06:40:12Z</time>
      </trkpt>
      <trkpt lat="43.150587000000016" lon="-1.2428409999999992">
        <ele>255.642</ele>
        <time>2022-08-24T06:40:13Z</time>
      </trkpt>
      <trkpt lat="43.15052100000002" lon="-1.2428419999999991">
        <ele>255.422</ele>
        <time>2022-08-24T06:40:14Z</time>
      </trkpt>
      <trkpt lat="43.15045600000002" lon="-1.2428409999999992">
        <ele>255.214</ele>
        <time>2022-08-24T06:40:15Z</time>
      </trkpt>
      <trkpt lat="43.15039300000002" lon="-1.2428309999999991">
        <ele>255.209</ele>
        <time>2022-08-24T06:40:16Z</time>
      </trkpt>
      <trkpt lat="43.15033200000002" lon="-1.242812999999999">
        <ele>255.025</ele>
        <time>2022-08-24T06:40:17Z</time>
      </trkpt>
      <trkpt lat="43.15027200000002" lon="-1.242789999999999">
        <ele>255.025</ele>
        <time>2022-08-24T06:40:18Z</time>
      </trkpt>
      <trkpt lat="43.15021300000002" lon="-1.242765999999999">
        <ele>255.035</ele>
        <time>2022-08-24T06:40:19Z</time>
      </trkpt>
      <trkpt lat="43.15015500000002" lon="-1.2427429999999988">
        <ele>255.231</ele>
        <time>2022-08-24T06:40:20Z</time>
      </trkpt>
      <trkpt lat="43.15009800000002" lon="-1.242722999999999">
        <ele>255.283</ele>
        <time>2022-08-24T06:40:21Z</time>
      </trkpt>
      <trkpt lat="43.15004300000002" lon="-1.242703999999999">
        <ele>255.420</ele>
        <time>2022-08-24T06:40:22Z</time>
      </trkpt>
      <trkpt lat="43.14998900000002" lon="-1.242684999999999">
        <ele>255.473</ele>
        <time>2022-08-24T06:40:23Z</time>
      </trkpt>
      <trkpt lat="43.14993900000002" lon="-1.242664999999999">
        <ele>255.497</ele>
        <time>2022-08-24T06:40:24Z</time>
      </trkpt>
      <trkpt lat="43.14989100000002" lon="-1.242641999999999">
        <ele>255.446</ele>
        <time>2022-08-24T06:40:25Z</time>
      </trkpt>
      <trkpt lat="43.14984500000002" lon="-1.242622999999999">
        <ele>255.425</ele>
        <time>2022-08-24T06:40:26Z</time>
      </trkpt>
      <trkpt lat="43.14980100000002" lon="-1.242602999999999">
        <ele>255.426</ele>
        <time>2022-08-24T06:40:27Z</time>
      </trkpt>
      <trkpt lat="43.149760000000015" lon="-1.242586999999999">
        <ele>255.408</ele>
        <time>2022-08-24T06:40:28Z</time>
      </trkpt>
      <trkpt lat="43.14972200000001" lon="-1.242575999999999">
        <ele>255.609</ele>
        <time>2022-08-24T06:40:29Z</time>
      </trkpt>
      <trkpt lat="43.14968500000001" lon="-1.242568999999999">
        <ele>255.683</ele>
        <time>2022-08-24T06:40:30Z</time>
      </trkpt>
      <trkpt lat="43.14965100000001" lon="-1.242562999999999">
        <ele>255.693</ele>
        <time>2022-08-24T06:40:31Z</time>
      </trkpt>
      <trkpt lat="43.14961800000001" lon="-1.242557999999999">
        <ele>255.633</ele>
        <time>2022-08-24T06:40:32Z</time>
      </trkpt>
      <trkpt lat="43.14958500000001" lon="-1.242552999999999">
        <ele>255.879</ele>
        <time>2022-08-24T06:40:33Z</time>
      </trkpt>
      <trkpt lat="43.14955300000001" lon="-1.242546999999999">
        <ele>255.861</ele>
        <time>2022-08-24T06:40:34Z</time>
      </trkpt>
      <trkpt lat="43.14948900000001" lon="-1.242535999999999">
        <ele>255.858</ele>
        <time>2022-08-24T06:40:36Z</time>
      </trkpt>
      <trkpt lat="43.14932100000001" lon="-1.242541999999999">
        <ele>256.481</ele>
        <time>2022-08-24T06:40:41Z</time>
      </trkpt>
      <trkpt lat="43.14925300000001" lon="-1.242548999999999">
        <ele>256.675</ele>
        <time>2022-08-24T06:40:43Z</time>
      </trkpt>
      <trkpt lat="43.14922100000001" lon="-1.242553999999999">
        <ele>256.684</ele>
        <time>2022-08-24T06:40:44Z</time>
      </trkpt>
      <trkpt lat="43.14919000000001" lon="-1.242555999999999">
        <ele>256.622</ele>
        <time>2022-08-24T06:40:45Z</time>
      </trkpt>
      <trkpt lat="43.14916200000001" lon="-1.242553999999999">
        <ele>256.662</ele>
        <time>2022-08-24T06:40:46Z</time>
      </trkpt>
      <trkpt lat="43.14913300000001" lon="-1.242555999999999">
        <ele>256.808</ele>
        <time>2022-08-24T06:40:47Z</time>
      </trkpt>
      <trkpt lat="43.149039000000016" lon="-1.2425499999999992">
        <ele>256.809</ele>
        <time>2022-08-24T06:40:50Z</time>
      </trkpt>
      <trkpt lat="43.14890900000002" lon="-1.2425199999999992">
        <ele>256.863</ele>
        <time>2022-08-24T06:40:54Z</time>
      </trkpt>
      <trkpt lat="43.14887500000002" lon="-1.2425189999999993">
        <ele>256.853</ele>
        <time>2022-08-24T06:40:55Z</time>
      </trkpt>
      <trkpt lat="43.14884100000002" lon="-1.2425159999999993">
        <ele>256.823</ele>
        <time>2022-08-24T06:40:56Z</time>
      </trkpt>
      <trkpt lat="43.148811000000016" lon="-1.2425079999999993">
        <ele>256.839</ele>
        <time>2022-08-24T06:40:57Z</time>
      </trkpt>
      <trkpt lat="43.14877900000002" lon="-1.2424999999999993">
        <ele>256.861</ele>
        <time>2022-08-24T06:40:58Z</time>
      </trkpt>
      <trkpt lat="43.14868500000002" lon="-1.2424859999999993">
        <ele>256.878</ele>
        <time>2022-08-24T06:41:01Z</time>
      </trkpt>
      <trkpt lat="43.14862400000002" lon="-1.2424709999999992">
        <ele>257.041</ele>
        <time>2022-08-24T06:41:03Z</time>
      </trkpt>
      <trkpt lat="43.14859100000002" lon="-1.2424649999999993">
        <ele>257.075</ele>
        <time>2022-08-24T06:41:04Z</time>
      </trkpt>
      <trkpt lat="43.14855900000002" lon="-1.2424599999999992">
        <ele>257.034</ele>
        <time>2022-08-24T06:41:05Z</time>
      </trkpt>
      <trkpt lat="43.14850000000002" lon="-1.2424579999999992">
        <ele>257.268</ele>
        <time>2022-08-24T06:41:07Z</time>
      </trkpt>
      <trkpt lat="43.14847200000002" lon="-1.2424569999999993">
        <ele>257.242</ele>
        <time>2022-08-24T06:41:08Z</time>
      </trkpt>
      <trkpt lat="43.14844500000002" lon="-1.2424539999999993">
        <ele>257.426</ele>
        <time>2022-08-24T06:41:09Z</time>
      </trkpt>
      <trkpt lat="43.148418000000014" lon="-1.2424519999999992">
        <ele>257.409</ele>
        <time>2022-08-24T06:41:10Z</time>
      </trkpt>
      <trkpt lat="43.148367000000015" lon="-1.2424519999999992">
        <ele>257.667</ele>
        <time>2022-08-24T06:41:12Z</time>
      </trkpt>
      <trkpt lat="43.14834000000001" lon="-1.2424519999999992">
        <ele>257.827</ele>
        <time>2022-08-24T06:41:13Z</time>
      </trkpt>
      <trkpt lat="43.148311000000014" lon="-1.2424549999999992">
        <ele>257.847</ele>
        <time>2022-08-24T06:41:14Z</time>
      </trkpt>
      <trkpt lat="43.148285000000016" lon="-1.2424559999999991">
        <ele>258.033</ele>
        <time>2022-08-24T06:41:15Z</time>
      </trkpt>
      <trkpt lat="43.148263000000014" lon="-1.242456999999999">
        <ele>258.235</ele>
        <time>2022-08-24T06:41:16Z</time>
      </trkpt>
      <trkpt lat="43.14824100000001" lon="-1.242454999999999">
        <ele>258.482</ele>
        <time>2022-08-24T06:41:17Z</time>
      </trkpt>
      <trkpt lat="43.148220000000016" lon="-1.242455999999999">
        <ele>258.665</ele>
        <time>2022-08-24T06:41:18Z</time>
      </trkpt>
      <trkpt lat="43.148201000000014" lon="-1.2424589999999989">
        <ele>258.689</ele>
        <time>2022-08-24T06:41:19Z</time>
      </trkpt>
      <trkpt lat="43.14818300000002" lon="-1.2424589999999989">
        <ele>259.068</ele>
        <time>2022-08-24T06:41:20Z</time>
      </trkpt>
      <trkpt lat="43.14816200000002" lon="-1.2424589999999989">
        <ele>259.084</ele>
        <time>2022-08-24T06:41:21Z</time>
      </trkpt>
      <trkpt lat="43.14814900000002" lon="-1.2424669999999989">
        <ele>259.407</ele>
        <time>2022-08-24T06:41:22Z</time>
      </trkpt>
      <trkpt lat="43.148136000000015" lon="-1.2424759999999988">
        <ele>259.617</ele>
        <time>2022-08-24T06:41:23Z</time>
      </trkpt>
      <trkpt lat="43.14812100000002" lon="-1.2424819999999988">
        <ele>259.609</ele>
        <time>2022-08-24T06:41:24Z</time>
      </trkpt>
      <trkpt lat="43.14810700000002" lon="-1.2424859999999986">
        <ele>260.099</ele>
        <time>2022-08-24T06:41:25Z</time>
      </trkpt>
      <trkpt lat="43.14809300000002" lon="-1.2424909999999987">
        <ele>260.229</ele>
        <time>2022-08-24T06:41:26Z</time>
      </trkpt>
      <trkpt lat="43.14807900000002" lon="-1.2424989999999987">
        <ele>260.449</ele>
        <time>2022-08-24T06:41:27Z</time>
      </trkpt>
      <trkpt lat="43.14806500000002" lon="-1.2425049999999986">
        <ele>260.695</ele>
        <time>2022-08-24T06:41:28Z</time>
      </trkpt>
      <trkpt lat="43.14804800000002" lon="-1.2425109999999986">
        <ele>261.037</ele>
        <time>2022-08-24T06:41:29Z</time>
      </trkpt>
      <trkpt lat="43.14803000000002" lon="-1.2425179999999987">
        <ele>261.244</ele>
        <time>2022-08-24T06:41:30Z</time>
      </trkpt>
      <trkpt lat="43.14801500000002" lon="-1.2425249999999988">
        <ele>261.647</ele>
        <time>2022-08-24T06:41:31Z</time>
      </trkpt>
      <trkpt lat="43.14799600000002" lon="-1.2425309999999987">
        <ele>261.851</ele>
        <time>2022-08-24T06:41:32Z</time>
      </trkpt>
      <trkpt lat="43.14797800000002" lon="-1.2425359999999988">
        <ele>262.020</ele>
        <time>2022-08-24T06:41:33Z</time>
      </trkpt>
      <trkpt lat="43.14795900000002" lon="-1.2425409999999988">
        <ele>262.487</ele>
        <time>2022-08-24T06:41:34Z</time>
      </trkpt>
      <trkpt lat="43.14794200000002" lon="-1.2425439999999988">
        <ele>262.642</ele>
        <time>2022-08-24T06:41:35Z</time>
      </trkpt>
      <trkpt lat="43.14792300000002" lon="-1.2425459999999988">
        <ele>262.826</ele>
        <time>2022-08-24T06:41:36Z</time>
      </trkpt>
      <trkpt lat="43.14790500000002" lon="-1.2425479999999989">
        <ele>263.009</ele>
        <time>2022-08-24T06:41:37Z</time>
      </trkpt>
      <trkpt lat="43.147887000000026" lon="-1.242552999999999">
        <ele>263.279</ele>
        <time>2022-08-24T06:41:38Z</time>
      </trkpt>
      <trkpt lat="43.14786900000003" lon="-1.242554999999999">
        <ele>263.439</ele>
        <time>2022-08-24T06:41:39Z</time>
      </trkpt>
      <trkpt lat="43.14785000000003" lon="-1.242554999999999">
        <ele>263.439</ele>
        <time>2022-08-24T06:41:40Z</time>
      </trkpt>
      <trkpt lat="43.14783300000003" lon="-1.242560999999999">
        <ele>263.655</ele>
        <time>2022-08-24T06:41:41Z</time>
      </trkpt>
      <trkpt lat="43.147811000000026" lon="-1.242562999999999">
        <ele>263.897</ele>
        <time>2022-08-24T06:41:42Z</time>
      </trkpt>
      <trkpt lat="43.14779300000003" lon="-1.242565999999999">
        <ele>264.064</ele>
        <time>2022-08-24T06:41:43Z</time>
      </trkpt>
      <trkpt lat="43.14777500000003" lon="-1.242567999999999">
        <ele>264.257</ele>
        <time>2022-08-24T06:41:44Z</time>
      </trkpt>
      <trkpt lat="43.14775800000003" lon="-1.242568999999999">
        <ele>264.421</ele>
        <time>2022-08-24T06:41:45Z</time>
      </trkpt>
      <trkpt lat="43.14774200000003" lon="-1.2425669999999989">
        <ele>264.630</ele>
        <time>2022-08-24T06:41:46Z</time>
      </trkpt>
      <trkpt lat="43.14772500000003" lon="-1.2425699999999988">
        <ele>264.884</ele>
        <time>2022-08-24T06:41:47Z</time>
      </trkpt>
      <trkpt lat="43.14770500000003" lon="-1.242571999999999">
        <ele>265.207</ele>
        <time>2022-08-24T06:41:48Z</time>
      </trkpt>
      <trkpt lat="43.147684000000034" lon="-1.2425729999999988">
        <ele>265.217</ele>
        <time>2022-08-24T06:41:49Z</time>
      </trkpt>
      <trkpt lat="43.14767000000003" lon="-1.2425739999999987">
        <ele>265.409</ele>
        <time>2022-08-24T06:41:50Z</time>
      </trkpt>
      <trkpt lat="43.14765100000003" lon="-1.2425729999999988">
        <ele>265.649</ele>
        <time>2022-08-24T06:41:51Z</time>
      </trkpt>
      <trkpt lat="43.147633000000035" lon="-1.2425729999999988">
        <ele>265.829</ele>
        <time>2022-08-24T06:41:52Z</time>
      </trkpt>
      <trkpt lat="43.14761500000004" lon="-1.2425709999999988">
        <ele>266.289</ele>
        <time>2022-08-24T06:41:53Z</time>
      </trkpt>
      <trkpt lat="43.14759800000004" lon="-1.2425679999999988">
        <ele>266.465</ele>
        <time>2022-08-24T06:41:54Z</time>
      </trkpt>
      <trkpt lat="43.14758000000004" lon="-1.2425679999999988">
        <ele>266.657</ele>
        <time>2022-08-24T06:41:55Z</time>
      </trkpt>
      <trkpt lat="43.14756300000004" lon="-1.242563999999999">
        <ele>266.644</ele>
        <time>2022-08-24T06:41:56Z</time>
      </trkpt>
      <trkpt lat="43.14754000000004" lon="-1.2425619999999988">
        <ele>266.867</ele>
        <time>2022-08-24T06:41:57Z</time>
      </trkpt>
      <trkpt lat="43.147522000000045" lon="-1.242557999999999">
        <ele>266.871</ele>
        <time>2022-08-24T06:41:58Z</time>
      </trkpt>
      <trkpt lat="43.14750400000005" lon="-1.242556999999999">
        <ele>267.080</ele>
        <time>2022-08-24T06:41:59Z</time>
      </trkpt>
      <trkpt lat="43.14748600000005" lon="-1.242555999999999">
        <ele>267.064</ele>
        <time>2022-08-24T06:42:00Z</time>
      </trkpt>
      <trkpt lat="43.14747000000005" lon="-1.242555999999999">
        <ele>267.206</ele>
        <time>2022-08-24T06:42:01Z</time>
      </trkpt>
      <trkpt lat="43.147454000000046" lon="-1.242550999999999">
        <ele>267.416</ele>
        <time>2022-08-24T06:42:02Z</time>
      </trkpt>
      <trkpt lat="43.147437000000046" lon="-1.242547999999999">
        <ele>267.609</ele>
        <time>2022-08-24T06:42:03Z</time>
      </trkpt>
      <trkpt lat="43.147418000000044" lon="-1.2425469999999992">
        <ele>268.067</ele>
        <time>2022-08-24T06:42:04Z</time>
      </trkpt>
      <trkpt lat="43.14740000000005" lon="-1.2425449999999991">
        <ele>268.047</ele>
        <time>2022-08-24T06:42:05Z</time>
      </trkpt>
      <trkpt lat="43.147381000000046" lon="-1.2425439999999992">
        <ele>268.457</ele>
        <time>2022-08-24T06:42:06Z</time>
      </trkpt>
      <trkpt lat="43.147364000000046" lon="-1.2425399999999993">
        <ele>268.473</ele>
        <time>2022-08-24T06:42:07Z</time>
      </trkpt>
      <trkpt lat="43.14734900000005" lon="-1.2425369999999993">
        <ele>268.845</ele>
        <time>2022-08-24T06:42:08Z</time>
      </trkpt>
      <trkpt lat="43.147330000000046" lon="-1.2425329999999994">
        <ele>269.052</ele>
        <time>2022-08-24T06:42:09Z</time>
      </trkpt>
      <trkpt lat="43.147311000000045" lon="-1.2425229999999994">
        <ele>269.075</ele>
        <time>2022-08-24T06:42:10Z</time>
      </trkpt>
      <trkpt lat="43.147294000000045" lon="-1.2425159999999993">
        <ele>269.249</ele>
        <time>2022-08-24T06:42:11Z</time>
      </trkpt>
      <trkpt lat="43.14727800000004" lon="-1.2425139999999992">
        <ele>269.258</ele>
        <time>2022-08-24T06:42:12Z</time>
      </trkpt>
      <trkpt lat="43.14726200000004" lon="-1.2425109999999993">
        <ele>269.484</ele>
        <time>2022-08-24T06:42:13Z</time>
      </trkpt>
      <trkpt lat="43.14724600000004" lon="-1.2425089999999992">
        <ele>269.607</ele>
        <time>2022-08-24T06:42:14Z</time>
      </trkpt>
      <trkpt lat="43.14722800000004" lon="-1.2425009999999992">
        <ele>269.817</ele>
        <time>2022-08-24T06:42:15Z</time>
      </trkpt>
      <trkpt lat="43.14721300000004" lon="-1.2424949999999992">
        <ele>270.009</ele>
        <time>2022-08-24T06:42:16Z</time>
      </trkpt>
      <trkpt lat="43.14719900000004" lon="-1.2424879999999991">
        <ele>270.299</ele>
        <time>2022-08-24T06:42:17Z</time>
      </trkpt>
      <trkpt lat="43.14718200000004" lon="-1.242485999999999">
        <ele>270.479</ele>
        <time>2022-08-24T06:42:18Z</time>
      </trkpt>
      <trkpt lat="43.147167000000046" lon="-1.2424829999999991">
        <ele>270.459</ele>
        <time>2022-08-24T06:42:19Z</time>
      </trkpt>
      <trkpt lat="43.147150000000046" lon="-1.242474999999999">
        <ele>270.635</ele>
        <time>2022-08-24T06:42:20Z</time>
      </trkpt>
      <trkpt lat="43.14713500000005" lon="-1.2424689999999992">
        <ele>270.827</ele>
        <time>2022-08-24T06:42:21Z</time>
      </trkpt>
      <trkpt lat="43.14712000000005" lon="-1.2424599999999992">
        <ele>271.264</ele>
        <time>2022-08-24T06:42:22Z</time>
      </trkpt>
      <trkpt lat="43.14710400000005" lon="-1.2424519999999992">
        <ele>271.257</ele>
        <time>2022-08-24T06:42:23Z</time>
      </trkpt>
      <trkpt lat="43.14708900000005" lon="-1.2424439999999992">
        <ele>271.691</ele>
        <time>2022-08-24T06:42:24Z</time>
      </trkpt>
      <trkpt lat="43.14707300000005" lon="-1.2424369999999991">
        <ele>271.870</ele>
        <time>2022-08-24T06:42:25Z</time>
      </trkpt>
      <trkpt lat="43.14705600000005" lon="-1.242429999999999">
        <ele>272.074</ele>
        <time>2022-08-24T06:42:26Z</time>
      </trkpt>
      <trkpt lat="43.14704000000005" lon="-1.242423999999999">
        <ele>272.456</ele>
        <time>2022-08-24T06:42:27Z</time>
      </trkpt>
      <trkpt lat="43.147024000000044" lon="-1.2424179999999991">
        <ele>272.421</ele>
        <time>2022-08-24T06:42:28Z</time>
      </trkpt>
      <trkpt lat="43.14700800000004" lon="-1.242412999999999">
        <ele>272.609</ele>
        <time>2022-08-24T06:42:29Z</time>
      </trkpt>
      <trkpt lat="43.14699200000004" lon="-1.2424069999999992">
        <ele>272.858</ele>
        <time>2022-08-24T06:42:30Z</time>
      </trkpt>
      <trkpt lat="43.14697500000004" lon="-1.2423989999999991">
        <ele>273.048</ele>
        <time>2022-08-24T06:42:31Z</time>
      </trkpt>
      <trkpt lat="43.14696100000004" lon="-1.2423869999999992">
        <ele>273.488</ele>
        <time>2022-08-24T06:42:32Z</time>
      </trkpt>
      <trkpt lat="43.14694500000004" lon="-1.2423739999999992">
        <ele>273.464</ele>
        <time>2022-08-24T06:42:33Z</time>
      </trkpt>
      <trkpt lat="43.146929000000036" lon="-1.2423659999999992">
        <ele>273.686</ele>
        <time>2022-08-24T06:42:34Z</time>
      </trkpt>
      <trkpt lat="43.14691400000004" lon="-1.2423609999999992">
        <ele>274.053</ele>
        <time>2022-08-24T06:42:35Z</time>
      </trkpt>
      <trkpt lat="43.14690000000004" lon="-1.2423529999999992">
        <ele>274.226</ele>
        <time>2022-08-24T06:42:36Z</time>
      </trkpt>
      <trkpt lat="43.14688300000004" lon="-1.2423419999999992">
        <ele>274.240</ele>
        <time>2022-08-24T06:42:37Z</time>
      </trkpt>
      <trkpt lat="43.14686900000004" lon="-1.242331999999999">
        <ele>274.489</ele>
        <time>2022-08-24T06:42:38Z</time>
      </trkpt>
      <trkpt lat="43.14685500000004" lon="-1.242324999999999">
        <ele>274.631</ele>
        <time>2022-08-24T06:42:39Z</time>
      </trkpt>
      <trkpt lat="43.14684000000004" lon="-1.242316999999999">
        <ele>274.661</ele>
        <time>2022-08-24T06:42:40Z</time>
      </trkpt>
      <trkpt lat="43.14682500000004" lon="-1.242310999999999">
        <ele>274.807</ele>
        <time>2022-08-24T06:42:41Z</time>
      </trkpt>
      <trkpt lat="43.146810000000045" lon="-1.2422989999999992">
        <ele>274.809</ele>
        <time>2022-08-24T06:42:42Z</time>
      </trkpt>
      <trkpt lat="43.146796000000045" lon="-1.242288999999999">
        <ele>275.244</ele>
        <time>2022-08-24T06:42:43Z</time>
      </trkpt>
      <trkpt lat="43.146782000000044" lon="-1.2422829999999991">
        <ele>275.264</ele>
        <time>2022-08-24T06:42:44Z</time>
      </trkpt>
      <trkpt lat="43.146770000000046" lon="-1.2422739999999992">
        <ele>275.424</ele>
        <time>2022-08-24T06:42:45Z</time>
      </trkpt>
      <trkpt lat="43.14675700000004" lon="-1.2422669999999991">
        <ele>275.680</ele>
        <time>2022-08-24T06:42:46Z</time>
      </trkpt>
      <trkpt lat="43.14674300000004" lon="-1.242253999999999">
        <ele>275.652</ele>
        <time>2022-08-24T06:42:47Z</time>
      </trkpt>
      <trkpt lat="43.14672900000004" lon="-1.242242999999999">
        <ele>275.829</ele>
        <time>2022-08-24T06:42:48Z</time>
      </trkpt>
      <trkpt lat="43.14671500000004" lon="-1.2422339999999992">
        <ele>275.882</ele>
        <time>2022-08-24T06:42:49Z</time>
      </trkpt>
      <trkpt lat="43.146703000000045" lon="-1.242223999999999">
        <ele>276.046</ele>
        <time>2022-08-24T06:42:50Z</time>
      </trkpt>
      <trkpt lat="43.14668700000004" lon="-1.242210999999999">
        <ele>276.055</ele>
        <time>2022-08-24T06:42:51Z</time>
      </trkpt>
      <trkpt lat="43.146672000000045" lon="-1.2421989999999992">
        <ele>276.273</ele>
        <time>2022-08-24T06:42:52Z</time>
      </trkpt>
      <trkpt lat="43.14665600000004" lon="-1.2421859999999991">
        <ele>276.285</ele>
        <time>2022-08-24T06:42:53Z</time>
      </trkpt>
      <trkpt lat="43.14664000000004" lon="-1.2421769999999992">
        <ele>276.413</ele>
        <time>2022-08-24T06:42:54Z</time>
      </trkpt>
      <trkpt lat="43.14662100000004" lon="-1.2421709999999992">
        <ele>276.609</ele>
        <time>2022-08-24T06:42:55Z</time>
      </trkpt>
      <trkpt lat="43.14660000000004" lon="-1.2421659999999992">
        <ele>276.898</ele>
        <time>2022-08-24T06:42:56Z</time>
      </trkpt>
      <trkpt lat="43.14657800000004" lon="-1.2421589999999991">
        <ele>277.028</ele>
        <time>2022-08-24T06:42:57Z</time>
      </trkpt>
      <trkpt lat="43.14655900000004" lon="-1.2421499999999992">
        <ele>277.278</ele>
        <time>2022-08-24T06:42:58Z</time>
      </trkpt>
      <trkpt lat="43.14654100000004" lon="-1.242134999999999">
        <ele>277.464</ele>
        <time>2022-08-24T06:42:59Z</time>
      </trkpt>
      <trkpt lat="43.14652400000004" lon="-1.242115999999999">
        <ele>277.686</ele>
        <time>2022-08-24T06:43:00Z</time>
      </trkpt>
      <trkpt lat="43.146506000000045" lon="-1.2421039999999992">
        <ele>278.043</ele>
        <time>2022-08-24T06:43:01Z</time>
      </trkpt>
      <trkpt lat="43.14648800000005" lon="-1.2420989999999992">
        <ele>278.236</ele>
        <time>2022-08-24T06:43:02Z</time>
      </trkpt>
      <trkpt lat="43.14647000000005" lon="-1.2420849999999992">
        <ele>278.270</ele>
        <time>2022-08-24T06:43:03Z</time>
      </trkpt>
      <trkpt lat="43.14645200000005" lon="-1.2420619999999991">
        <ele>278.679</ele>
        <time>2022-08-24T06:43:04Z</time>
      </trkpt>
      <trkpt lat="43.146434000000056" lon="-1.242040999999999">
        <ele>278.676</ele>
        <time>2022-08-24T06:43:05Z</time>
      </trkpt>
      <trkpt lat="43.14641900000006" lon="-1.242018999999999">
        <ele>278.890</ele>
        <time>2022-08-24T06:43:06Z</time>
      </trkpt>
      <trkpt lat="43.146403000000056" lon="-1.241997999999999">
        <ele>278.819</ele>
        <time>2022-08-24T06:43:07Z</time>
      </trkpt>
      <trkpt lat="43.14638800000006" lon="-1.241976999999999">
        <ele>279.009</ele>
        <time>2022-08-24T06:43:08Z</time>
      </trkpt>
      <trkpt lat="43.14637000000006" lon="-1.241956999999999">
        <ele>279.238</ele>
        <time>2022-08-24T06:43:09Z</time>
      </trkpt>
      <trkpt lat="43.14635400000006" lon="-1.241938999999999">
        <ele>279.458</ele>
        <time>2022-08-24T06:43:10Z</time>
      </trkpt>
      <trkpt lat="43.14634000000006" lon="-1.241920999999999">
        <ele>279.618</ele>
        <time>2022-08-24T06:43:11Z</time>
      </trkpt>
      <trkpt lat="43.14632600000006" lon="-1.2419029999999989">
        <ele>279.664</ele>
        <time>2022-08-24T06:43:12Z</time>
      </trkpt>
      <trkpt lat="43.146313000000056" lon="-1.241882999999999">
        <ele>279.896</ele>
        <time>2022-08-24T06:43:13Z</time>
      </trkpt>
      <trkpt lat="43.14630000000005" lon="-1.241863999999999">
        <ele>279.843</ele>
        <time>2022-08-24T06:43:14Z</time>
      </trkpt>
      <trkpt lat="43.14628400000005" lon="-1.241847999999999">
        <ele>280.076</ele>
        <time>2022-08-24T06:43:15Z</time>
      </trkpt>
      <trkpt lat="43.14627000000005" lon="-1.2418299999999989">
        <ele>280.220</ele>
        <time>2022-08-24T06:43:16Z</time>
      </trkpt>
      <trkpt lat="43.14625500000005" lon="-1.241812999999999">
        <ele>280.439</ele>
        <time>2022-08-24T06:43:17Z</time>
      </trkpt>
      <trkpt lat="43.146240000000056" lon="-1.2417979999999988">
        <ele>280.437</ele>
        <time>2022-08-24T06:43:18Z</time>
      </trkpt>
      <trkpt lat="43.14622700000005" lon="-1.2417799999999988">
        <ele>280.649</ele>
        <time>2022-08-24T06:43:19Z</time>
      </trkpt>
      <trkpt lat="43.14621400000005" lon="-1.2417599999999989">
        <ele>280.613</ele>
        <time>2022-08-24T06:43:20Z</time>
      </trkpt>
      <trkpt lat="43.14620100000005" lon="-1.2417419999999988">
        <ele>280.809</ele>
        <time>2022-08-24T06:43:21Z</time>
      </trkpt>
      <trkpt lat="43.14618600000005" lon="-1.2417259999999988">
        <ele>281.034</ele>
        <time>2022-08-24T06:43:22Z</time>
      </trkpt>
      <trkpt lat="43.14617200000005" lon="-1.2417099999999988">
        <ele>281.064</ele>
        <time>2022-08-24T06:43:23Z</time>
      </trkpt>
      <trkpt lat="43.14615700000005" lon="-1.2416929999999988">
        <ele>281.254</ele>
        <time>2022-08-24T06:43:24Z</time>
      </trkpt>
      <trkpt lat="43.14614300000005" lon="-1.2416749999999988">
        <ele>281.280</ele>
        <time>2022-08-24T06:43:25Z</time>
      </trkpt>
      <trkpt lat="43.14612700000005" lon="-1.2416569999999987">
        <ele>281.492</ele>
        <time>2022-08-24T06:43:26Z</time>
      </trkpt>
      <trkpt lat="43.14611200000005" lon="-1.2416399999999987">
        <ele>281.479</ele>
        <time>2022-08-24T06:43:27Z</time>
      </trkpt>
      <trkpt lat="43.146097000000054" lon="-1.2416199999999988">
        <ele>281.432</ele>
        <time>2022-08-24T06:43:28Z</time>
      </trkpt>
      <trkpt lat="43.14608400000005" lon="-1.2416009999999988">
        <ele>281.676</ele>
        <time>2022-08-24T06:43:29Z</time>
      </trkpt>
      <trkpt lat="43.14606700000005" lon="-1.241580999999999">
        <ele>281.675</ele>
        <time>2022-08-24T06:43:30Z</time>
      </trkpt>
      <trkpt lat="43.146049000000055" lon="-1.241558999999999">
        <ele>281.651</ele>
        <time>2022-08-24T06:43:31Z</time>
      </trkpt>
      <trkpt lat="43.146032000000055" lon="-1.241534999999999">
        <ele>281.601</ele>
        <time>2022-08-24T06:43:32Z</time>
      </trkpt>
      <trkpt lat="43.146015000000055" lon="-1.2415119999999988">
        <ele>281.811</ele>
        <time>2022-08-24T06:43:33Z</time>
      </trkpt>
      <trkpt lat="43.145998000000056" lon="-1.241486999999999">
        <ele>281.809</ele>
        <time>2022-08-24T06:43:34Z</time>
      </trkpt>
      <trkpt lat="43.145979000000054" lon="-1.2414659999999988">
        <ele>281.866</ele>
        <time>2022-08-24T06:43:35Z</time>
      </trkpt>
      <trkpt lat="43.145962000000054" lon="-1.2414479999999988">
        <ele>281.696</ele>
        <time>2022-08-24T06:43:36Z</time>
      </trkpt>
      <trkpt lat="43.145948000000054" lon="-1.2414289999999988">
        <ele>281.896</ele>
        <time>2022-08-24T06:43:37Z</time>
      </trkpt>
      <trkpt lat="43.145934000000054" lon="-1.2414099999999988">
        <ele>282.052</ele>
        <time>2022-08-24T06:43:38Z</time>
      </trkpt>
      <trkpt lat="43.145917000000054" lon="-1.2413939999999988">
        <ele>282.064</ele>
        <time>2022-08-24T06:43:39Z</time>
      </trkpt>
      <trkpt lat="43.14590100000005" lon="-1.2413749999999988">
        <ele>282.251</ele>
        <time>2022-08-24T06:43:40Z</time>
      </trkpt>
      <trkpt lat="43.145886000000054" lon="-1.2413539999999987">
        <ele>283.084</ele>
        <time>2022-08-24T06:43:41Z</time>
      </trkpt>
      <trkpt lat="43.14587300000005" lon="-1.2413349999999987">
        <ele>283.448</ele>
        <time>2022-08-24T06:43:42Z</time>
      </trkpt>
      <trkpt lat="43.145844000000054" lon="-1.2412979999999987">
        <ele>283.887</ele>
        <time>2022-08-24T06:43:44Z</time>
      </trkpt>
      <trkpt lat="43.145827000000054" lon="-1.2412779999999988">
        <ele>283.872</ele>
        <time>2022-08-24T06:43:45Z</time>
      </trkpt>
      <trkpt lat="43.145812000000056" lon="-1.2412619999999988">
        <ele>283.813</ele>
        <time>2022-08-24T06:43:46Z</time>
      </trkpt>
      <trkpt lat="43.14579700000006" lon="-1.2412459999999987">
        <ele>283.814</ele>
        <time>2022-08-24T06:43:47Z</time>
      </trkpt>
      <trkpt lat="43.14578300000006" lon="-1.2412319999999988">
        <ele>284.009</ele>
        <time>2022-08-24T06:43:48Z</time>
      </trkpt>
      <trkpt lat="43.14576900000006" lon="-1.2412189999999987">
        <ele>284.078</ele>
        <time>2022-08-24T06:43:49Z</time>
      </trkpt>
      <trkpt lat="43.14575400000006" lon="-1.2412009999999987">
        <ele>284.028</ele>
        <time>2022-08-24T06:43:50Z</time>
      </trkpt>
      <trkpt lat="43.14573900000006" lon="-1.2411809999999988">
        <ele>284.058</ele>
        <time>2022-08-24T06:43:51Z</time>
      </trkpt>
      <trkpt lat="43.14572200000006" lon="-1.2411619999999988">
        <ele>284.064</ele>
        <time>2022-08-24T06:43:52Z</time>
      </trkpt>
      <trkpt lat="43.14570600000006" lon="-1.2411409999999987">
        <ele>284.066</ele>
        <time>2022-08-24T06:43:53Z</time>
      </trkpt>
      <trkpt lat="43.14569000000006" lon="-1.2411219999999987">
        <ele>284.213</ele>
        <time>2022-08-24T06:43:54Z</time>
      </trkpt>
      <trkpt lat="43.14567400000006" lon="-1.2411019999999988">
        <ele>284.226</ele>
        <time>2022-08-24T06:43:55Z</time>
      </trkpt>
      <trkpt lat="43.145658000000054" lon="-1.2410839999999987">
        <ele>284.220</ele>
        <time>2022-08-24T06:43:56Z</time>
      </trkpt>
      <trkpt lat="43.145644000000054" lon="-1.2410679999999987">
        <ele>284.419</ele>
        <time>2022-08-24T06:43:57Z</time>
      </trkpt>
      <trkpt lat="43.14562800000005" lon="-1.2410499999999987">
        <ele>284.454</ele>
        <time>2022-08-24T06:43:58Z</time>
      </trkpt>
      <trkpt lat="43.14561400000005" lon="-1.2410289999999986">
        <ele>284.656</ele>
        <time>2022-08-24T06:43:59Z</time>
      </trkpt>
      <trkpt lat="43.14560100000005" lon="-1.2410109999999985">
        <ele>284.611</ele>
        <time>2022-08-24T06:44:00Z</time>
      </trkpt>
      <trkpt lat="43.14558600000005" lon="-1.2409979999999985">
        <ele>284.609</ele>
        <time>2022-08-24T06:44:01Z</time>
      </trkpt>
      <trkpt lat="43.14557200000005" lon="-1.2409839999999985">
        <ele>284.856</ele>
        <time>2022-08-24T06:44:02Z</time>
      </trkpt>
      <trkpt lat="43.14555700000005" lon="-1.2409679999999985">
        <ele>284.876</ele>
        <time>2022-08-24T06:44:03Z</time>
      </trkpt>
      <trkpt lat="43.145520000000054" lon="-1.2409399999999986">
        <ele>285.026</ele>
        <time>2022-08-24T06:44:05Z</time>
      </trkpt>
      <trkpt lat="43.14550400000005" lon="-1.2409219999999985">
        <ele>285.052</ele>
        <time>2022-08-24T06:44:06Z</time>
      </trkpt>
      <trkpt lat="43.14548800000005" lon="-1.2409049999999986">
        <ele>285.054</ele>
        <time>2022-08-24T06:44:07Z</time>
      </trkpt>
      <trkpt lat="43.14544000000005" lon="-1.2408609999999987">
        <ele>285.261</ele>
        <time>2022-08-24T06:44:10Z</time>
      </trkpt>
      <trkpt lat="43.14542400000005" lon="-1.2408409999999988">
        <ele>285.454</ele>
        <time>2022-08-24T06:44:11Z</time>
      </trkpt>
      <trkpt lat="43.14538900000005" lon="-1.2408049999999988">
        <ele>285.488</ele>
        <time>2022-08-24T06:44:13Z</time>
      </trkpt>
      <trkpt lat="43.14537300000005" lon="-1.2407909999999989">
        <ele>285.667</ele>
        <time>2022-08-24T06:44:14Z</time>
      </trkpt>
      <trkpt lat="43.14532800000005" lon="-1.2407479999999989">
        <ele>285.897</ele>
        <time>2022-08-24T06:44:17Z</time>
      </trkpt>
      <trkpt lat="43.14527600000005" lon="-1.240703999999999">
        <ele>286.023</ele>
        <time>2022-08-24T06:44:20Z</time>
      </trkpt>
      <trkpt lat="43.14525900000005" lon="-1.2406889999999988">
        <ele>286.025</ele>
        <time>2022-08-24T06:44:21Z</time>
      </trkpt>
      <trkpt lat="43.14522500000005" lon="-1.240657999999999">
        <ele>286.209</ele>
        <time>2022-08-24T06:44:23Z</time>
      </trkpt>
      <trkpt lat="43.145207000000056" lon="-1.240641999999999">
        <ele>286.290</ele>
        <time>2022-08-24T06:44:24Z</time>
      </trkpt>
      <trkpt lat="43.145174000000054" lon="-1.2406179999999989">
        <ele>286.430</ele>
        <time>2022-08-24T06:44:26Z</time>
      </trkpt>
      <trkpt lat="43.145157000000054" lon="-1.240603999999999">
        <ele>286.620</ele>
        <time>2022-08-24T06:44:27Z</time>
      </trkpt>
      <trkpt lat="43.14514200000006" lon="-1.2405889999999988">
        <ele>286.676</ele>
        <time>2022-08-24T06:44:28Z</time>
      </trkpt>
      <trkpt lat="43.145123000000055" lon="-1.2405739999999987">
        <ele>286.688</ele>
        <time>2022-08-24T06:44:29Z</time>
      </trkpt>
      <trkpt lat="43.145089000000056" lon="-1.2405479999999987">
        <ele>286.885</ele>
        <time>2022-08-24T06:44:31Z</time>
      </trkpt>
      <trkpt lat="43.14499000000006" lon="-1.2404719999999987">
        <ele>287.238</ele>
        <time>2022-08-24T06:44:37Z</time>
      </trkpt>
      <trkpt lat="43.144974000000055" lon="-1.2404579999999987">
        <ele>287.442</ele>
        <time>2022-08-24T06:44:38Z</time>
      </trkpt>
      <trkpt lat="43.144870000000054" lon="-1.2403879999999987">
        <ele>287.821</ele>
        <time>2022-08-24T06:44:44Z</time>
      </trkpt>
      <trkpt lat="43.14485100000005" lon="-1.2403789999999988">
        <ele>288.088</ele>
        <time>2022-08-24T06:44:45Z</time>
      </trkpt>
      <trkpt lat="43.14483200000005" lon="-1.2403679999999988">
        <ele>288.024</ele>
        <time>2022-08-24T06:44:46Z</time>
      </trkpt>
      <trkpt lat="43.14479800000005" lon="-1.2403489999999988">
        <ele>288.226</ele>
        <time>2022-08-24T06:44:48Z</time>
      </trkpt>
      <trkpt lat="43.14478100000005" lon="-1.2403409999999988">
        <ele>288.409</ele>
        <time>2022-08-24T06:44:49Z</time>
      </trkpt>
      <trkpt lat="43.14474500000005" lon="-1.2403249999999988">
        <ele>288.439</ele>
        <time>2022-08-24T06:44:51Z</time>
      </trkpt>
      <trkpt lat="43.14467700000005" lon="-1.240285999999999">
        <ele>289.289</ele>
        <time>2022-08-24T06:44:55Z</time>
      </trkpt>
      <trkpt lat="43.14466000000005" lon="-1.2402759999999988">
        <ele>289.269</ele>
        <time>2022-08-24T06:44:56Z</time>
      </trkpt>
      <trkpt lat="43.14464400000005" lon="-1.2402689999999987">
        <ele>289.635</ele>
        <time>2022-08-24T06:44:57Z</time>
      </trkpt>
      <trkpt lat="43.14462800000005" lon="-1.2402609999999987">
        <ele>289.637</ele>
        <time>2022-08-24T06:44:58Z</time>
      </trkpt>
      <trkpt lat="43.14461300000005" lon="-1.2402579999999988">
        <ele>289.844</ele>
        <time>2022-08-24T06:44:59Z</time>
      </trkpt>
      <trkpt lat="43.14460000000005" lon="-1.2402529999999987">
        <ele>290.077</ele>
        <time>2022-08-24T06:45:00Z</time>
      </trkpt>
      <trkpt lat="43.14458600000005" lon="-1.2402439999999988">
        <ele>290.261</ele>
        <time>2022-08-24T06:45:01Z</time>
      </trkpt>
      <trkpt lat="43.14457100000005" lon="-1.2402349999999989">
        <ele>290.290</ele>
        <time>2022-08-24T06:45:02Z</time>
      </trkpt>
      <trkpt lat="43.14455400000005" lon="-1.240225999999999">
        <ele>290.423</ele>
        <time>2022-08-24T06:45:03Z</time>
      </trkpt>
      <trkpt lat="43.14452200000005" lon="-1.2402109999999988">
        <ele>290.683</ele>
        <time>2022-08-24T06:45:04Z</time>
      </trkpt>
      <trkpt lat="43.14452200000005" lon="-1.2402109999999988">
        <ele>290.611</ele>
        <time>2022-08-24T06:45:05Z</time>
      </trkpt>
      <trkpt lat="43.14448800000005" lon="-1.2401949999999988">
        <ele>291.009</ele>
        <time>2022-08-24T06:45:06Z</time>
      </trkpt>
      <trkpt lat="43.14448800000005" lon="-1.2401949999999988">
        <ele>291.063</ele>
        <time>2022-08-24T06:45:07Z</time>
      </trkpt>
      <trkpt lat="43.144453000000055" lon="-1.2401789999999988">
        <ele>291.483</ele>
        <time>2022-08-24T06:45:08Z</time>
      </trkpt>
      <trkpt lat="43.144434000000054" lon="-1.2401769999999988">
        <ele>291.473</ele>
        <time>2022-08-24T06:45:09Z</time>
      </trkpt>
      <trkpt lat="43.144434000000054" lon="-1.2401769999999988">
        <ele>291.689</ele>
        <time>2022-08-24T06:45:10Z</time>
      </trkpt>
      <trkpt lat="43.144397000000055" lon="-1.2401659999999988">
        <ele>291.691</ele>
        <time>2022-08-24T06:45:11Z</time>
      </trkpt>
      <trkpt lat="43.144397000000055" lon="-1.2401659999999988">
        <ele>291.838</ele>
        <time>2022-08-24T06:45:12Z</time>
      </trkpt>
      <trkpt lat="43.144360000000056" lon="-1.2401579999999988">
        <ele>292.061</ele>
        <time>2022-08-24T06:45:13Z</time>
      </trkpt>
      <trkpt lat="43.14433900000006" lon="-1.2401529999999987">
        <ele>292.025</ele>
        <time>2022-08-24T06:45:14Z</time>
      </trkpt>
      <trkpt lat="43.14432000000006" lon="-1.2401479999999987">
        <ele>292.274</ele>
        <time>2022-08-24T06:45:15Z</time>
      </trkpt>
      <trkpt lat="43.144298000000056" lon="-1.2401479999999987">
        <ele>292.218</ele>
        <time>2022-08-24T06:45:16Z</time>
      </trkpt>
      <trkpt lat="43.14427800000006" lon="-1.2401479999999987">
        <ele>292.498</ele>
        <time>2022-08-24T06:45:17Z</time>
      </trkpt>
      <trkpt lat="43.14426000000006" lon="-1.2401469999999988">
        <ele>292.617</ele>
        <time>2022-08-24T06:45:18Z</time>
      </trkpt>
      <trkpt lat="43.14423900000006" lon="-1.2401459999999989">
        <ele>292.609</ele>
        <time>2022-08-24T06:45:19Z</time>
      </trkpt>
      <trkpt lat="43.144218000000066" lon="-1.2401489999999988">
        <ele>292.832</ele>
        <time>2022-08-24T06:45:20Z</time>
      </trkpt>
      <trkpt lat="43.144199000000064" lon="-1.2401549999999988">
        <ele>292.832</ele>
        <time>2022-08-24T06:45:21Z</time>
      </trkpt>
      <trkpt lat="43.14418300000006" lon="-1.2401619999999989">
        <ele>293.032</ele>
        <time>2022-08-24T06:45:22Z</time>
      </trkpt>
      <trkpt lat="43.14418300000006" lon="-1.2401619999999989">
        <ele>293.058</ele>
        <time>2022-08-24T06:45:23Z</time>
      </trkpt>
      <trkpt lat="43.14416000000006" lon="-1.2401809999999989">
        <ele>293.060</ele>
        <time>2022-08-24T06:45:24Z</time>
      </trkpt>
      <trkpt lat="43.14414600000006" lon="-1.240190999999999">
        <ele>293.287</ele>
        <time>2022-08-24T06:45:25Z</time>
      </trkpt>
      <trkpt lat="43.14413200000006" lon="-1.240198999999999">
        <ele>293.270</ele>
        <time>2022-08-24T06:45:26Z</time>
      </trkpt>
      <trkpt lat="43.14412200000006" lon="-1.240204999999999">
        <ele>293.234</ele>
        <time>2022-08-24T06:45:27Z</time>
      </trkpt>
      <trkpt lat="43.14411000000006" lon="-1.240206999999999">
        <ele>293.223</ele>
        <time>2022-08-24T06:45:28Z</time>
      </trkpt>
      <trkpt lat="43.14409700000006" lon="-1.240209999999999">
        <ele>293.472</ele>
        <time>2022-08-24T06:45:29Z</time>
      </trkpt>
      <trkpt lat="43.14409700000006" lon="-1.240209999999999">
        <ele>293.413</ele>
        <time>2022-08-24T06:45:30Z</time>
      </trkpt>
      <trkpt lat="43.14408000000006" lon="-1.2402219999999988">
        <ele>293.614</ele>
        <time>2022-08-24T06:45:31Z</time>
      </trkpt>
      <trkpt lat="43.14405400000006" lon="-1.240247999999999">
        <ele>293.609</ele>
        <time>2022-08-24T06:45:32Z</time>
      </trkpt>
      <trkpt lat="43.14404000000006" lon="-1.240257999999999">
        <ele>293.668</ele>
        <time>2022-08-24T06:45:33Z</time>
      </trkpt>
      <trkpt lat="43.144022000000064" lon="-1.240267999999999">
        <ele>293.848</ele>
        <time>2022-08-24T06:45:34Z</time>
      </trkpt>
      <trkpt lat="43.144005000000064" lon="-1.240277999999999">
        <ele>293.828</ele>
        <time>2022-08-24T06:45:35Z</time>
      </trkpt>
      <trkpt lat="43.14398900000006" lon="-1.2402909999999991">
        <ele>293.884</ele>
        <time>2022-08-24T06:45:36Z</time>
      </trkpt>
      <trkpt lat="43.14397000000006" lon="-1.240304999999999">
        <ele>293.846</ele>
        <time>2022-08-24T06:45:37Z</time>
      </trkpt>
      <trkpt lat="43.14386200000006" lon="-1.2403849999999992">
        <ele>294.423</ele>
        <time>2022-08-24T06:45:43Z</time>
      </trkpt>
      <trkpt lat="43.14380900000006" lon="-1.2404389999999992">
        <ele>294.836</ele>
        <time>2022-08-24T06:45:46Z</time>
      </trkpt>
      <trkpt lat="43.14376200000006" lon="-1.2404929999999992">
        <ele>295.280</ele>
        <time>2022-08-24T06:45:49Z</time>
      </trkpt>
      <trkpt lat="43.14373300000006" lon="-1.2405299999999992">
        <ele>295.239</ele>
        <time>2022-08-24T06:45:51Z</time>
      </trkpt>
      <trkpt lat="43.14373300000006" lon="-1.2405299999999992">
        <ele>295.497</ele>
        <time>2022-08-24T06:45:52Z</time>
      </trkpt>
      <trkpt lat="43.143670000000064" lon="-1.2406009999999992">
        <ele>295.823</ele>
        <time>2022-08-24T06:45:55Z</time>
      </trkpt>
      <trkpt lat="43.143658000000066" lon="-1.2406109999999992">
        <ele>295.825</ele>
        <time>2022-08-24T06:45:56Z</time>
      </trkpt>
      <trkpt lat="43.14359500000007" lon="-1.2406759999999992">
        <ele>296.609</ele>
        <time>2022-08-24T06:46:01Z</time>
      </trkpt>
      <trkpt lat="43.14353000000007" lon="-1.2407559999999993">
        <ele>297.070</ele>
        <time>2022-08-24T06:46:04Z</time>
      </trkpt>
      <trkpt lat="43.14351500000007" lon="-1.2407719999999993">
        <ele>297.080</ele>
        <time>2022-08-24T06:46:05Z</time>
      </trkpt>
      <trkpt lat="43.14350200000007" lon="-1.2407909999999993">
        <ele>297.410</ele>
        <time>2022-08-24T06:46:06Z</time>
      </trkpt>
      <trkpt lat="43.143489000000066" lon="-1.2408099999999993">
        <ele>297.636</ele>
        <time>2022-08-24T06:46:07Z</time>
      </trkpt>
      <trkpt lat="43.14347200000007" lon="-1.2408309999999994">
        <ele>298.098</ele>
        <time>2022-08-24T06:46:08Z</time>
      </trkpt>
      <trkpt lat="43.14346000000007" lon="-1.2408439999999994">
        <ele>298.215</ele>
        <time>2022-08-24T06:46:09Z</time>
      </trkpt>
      <trkpt lat="43.14344500000007" lon="-1.2408589999999995">
        <ele>298.438</ele>
        <time>2022-08-24T06:46:10Z</time>
      </trkpt>
      <trkpt lat="43.14343200000007" lon="-1.2408719999999995">
        <ele>298.622</ele>
        <time>2022-08-24T06:46:11Z</time>
      </trkpt>
      <trkpt lat="43.14342000000007" lon="-1.2408859999999995">
        <ele>298.871</ele>
        <time>2022-08-24T06:46:12Z</time>
      </trkpt>
      <trkpt lat="43.14340400000007" lon="-1.2408999999999994">
        <ele>299.058</ele>
        <time>2022-08-24T06:46:13Z</time>
      </trkpt>
      <trkpt lat="43.14339200000007" lon="-1.2409099999999995">
        <ele>299.252</ele>
        <time>2022-08-24T06:46:14Z</time>
      </trkpt>
      <trkpt lat="43.14339200000007" lon="-1.2409099999999995">
        <ele>299.617</ele>
        <time>2022-08-24T06:46:15Z</time>
      </trkpt>
      <trkpt lat="43.14336500000007" lon="-1.2409319999999995">
        <ele>299.809</ele>
        <time>2022-08-24T06:46:16Z</time>
      </trkpt>
      <trkpt lat="43.14335000000007" lon="-1.2409409999999994">
        <ele>300.096</ele>
        <time>2022-08-24T06:46:17Z</time>
      </trkpt>
      <trkpt lat="43.14335000000007" lon="-1.2409409999999994">
        <ele>300.866</ele>
        <time>2022-08-24T06:46:18Z</time>
      </trkpt>
      <trkpt lat="43.143326000000066" lon="-1.2409649999999994">
        <ele>301.026</ele>
        <time>2022-08-24T06:46:19Z</time>
      </trkpt>
      <trkpt lat="43.14331400000007" lon="-1.2409759999999994">
        <ele>301.282</ele>
        <time>2022-08-24T06:46:20Z</time>
      </trkpt>
      <trkpt lat="43.14331400000007" lon="-1.2409759999999994">
        <ele>301.484</ele>
        <time>2022-08-24T06:46:21Z</time>
      </trkpt>
      <trkpt lat="43.14328500000007" lon="-1.2409959999999993">
        <ele>301.891</ele>
        <time>2022-08-24T06:46:22Z</time>
      </trkpt>
      <trkpt lat="43.14328500000007" lon="-1.2409959999999993">
        <ele>302.074</ele>
        <time>2022-08-24T06:46:23Z</time>
      </trkpt>
      <trkpt lat="43.14327000000007" lon="-1.2410079999999992">
        <ele>302.218</ele>
        <time>2022-08-24T06:46:24Z</time>
      </trkpt>
      <trkpt lat="43.143241000000074" lon="-1.2410379999999992">
        <ele>302.437</ele>
        <time>2022-08-24T06:46:25Z</time>
      </trkpt>
      <trkpt lat="43.143227000000074" lon="-1.2410519999999992">
        <ele>302.653</ele>
        <time>2022-08-24T06:46:26Z</time>
      </trkpt>
      <trkpt lat="43.143227000000074" lon="-1.2410519999999992">
        <ele>302.804</ele>
        <time>2022-08-24T06:46:27Z</time>
      </trkpt>
      <trkpt lat="43.14319700000007" lon="-1.2410789999999992">
        <ele>303.014</ele>
        <time>2022-08-24T06:46:28Z</time>
      </trkpt>
      <trkpt lat="43.14318400000007" lon="-1.241090999999999">
        <ele>303.209</ele>
        <time>2022-08-24T06:46:29Z</time>
      </trkpt>
      <trkpt lat="43.14318400000007" lon="-1.241090999999999">
        <ele>303.246</ele>
        <time>2022-08-24T06:46:30Z</time>
      </trkpt>
      <trkpt lat="43.14315900000007" lon="-1.241115999999999">
        <ele>303.426</ele>
        <time>2022-08-24T06:46:31Z</time>
      </trkpt>
      <trkpt lat="43.14314500000007" lon="-1.241129999999999">
        <ele>303.626</ele>
        <time>2022-08-24T06:46:32Z</time>
      </trkpt>
      <trkpt lat="43.14313100000007" lon="-1.2411419999999989">
        <ele>303.642</ele>
        <time>2022-08-24T06:46:33Z</time>
      </trkpt>
      <trkpt lat="43.14311300000007" lon="-1.241156999999999">
        <ele>303.824</ele>
        <time>2022-08-24T06:46:34Z</time>
      </trkpt>
      <trkpt lat="43.14310200000007" lon="-1.241164999999999">
        <ele>304.061</ele>
        <time>2022-08-24T06:46:35Z</time>
      </trkpt>
      <trkpt lat="43.14308800000007" lon="-1.241174999999999">
        <ele>304.264</ele>
        <time>2022-08-24T06:46:36Z</time>
      </trkpt>
      <trkpt lat="43.14307300000007" lon="-1.241182999999999">
        <ele>304.488</ele>
        <time>2022-08-24T06:46:37Z</time>
      </trkpt>
      <trkpt lat="43.14307300000007" lon="-1.241182999999999">
        <ele>304.667</ele>
        <time>2022-08-24T06:46:38Z</time>
      </trkpt>
      <trkpt lat="43.14304500000007" lon="-1.241209999999999">
        <ele>304.834</ele>
        <time>2022-08-24T06:46:39Z</time>
      </trkpt>
      <trkpt lat="43.143030000000074" lon="-1.241226999999999">
        <ele>305.055</ele>
        <time>2022-08-24T06:46:40Z</time>
      </trkpt>
      <trkpt lat="43.14301900000007" lon="-1.241237999999999">
        <ele>305.210</ele>
        <time>2022-08-24T06:46:41Z</time>
      </trkpt>
      <trkpt lat="43.143007000000075" lon="-1.2412499999999989">
        <ele>305.409</ele>
        <time>2022-08-24T06:46:42Z</time>
      </trkpt>
      <trkpt lat="43.142996000000075" lon="-1.2412619999999988">
        <ele>305.684</ele>
        <time>2022-08-24T06:46:43Z</time>
      </trkpt>
      <trkpt lat="43.142996000000075" lon="-1.2412619999999988">
        <ele>305.854</ele>
        <time>2022-08-24T06:46:44Z</time>
      </trkpt>
      <trkpt lat="43.14297400000007" lon="-1.2412799999999988">
        <ele>306.084</ele>
        <time>2022-08-24T06:46:45Z</time>
      </trkpt>
      <trkpt lat="43.14296100000007" lon="-1.2412879999999988">
        <ele>306.030</ele>
        <time>2022-08-24T06:46:46Z</time>
      </trkpt>
      <trkpt lat="43.14296100000007" lon="-1.2412879999999988">
        <ele>306.232</ele>
        <time>2022-08-24T06:46:47Z</time>
      </trkpt>
      <trkpt lat="43.14293800000007" lon="-1.2413149999999988">
        <ele>306.449</ele>
        <time>2022-08-24T06:46:48Z</time>
      </trkpt>
      <trkpt lat="43.142926000000074" lon="-1.2413289999999988">
        <ele>306.662</ele>
        <time>2022-08-24T06:46:49Z</time>
      </trkpt>
      <trkpt lat="43.142926000000074" lon="-1.2413289999999988">
        <ele>306.816</ele>
        <time>2022-08-24T06:46:50Z</time>
      </trkpt>
      <trkpt lat="43.14289600000007" lon="-1.2413539999999987">
        <ele>307.055</ele>
        <time>2022-08-24T06:46:51Z</time>
      </trkpt>
      <trkpt lat="43.142881000000074" lon="-1.2413669999999988">
        <ele>307.063</ele>
        <time>2022-08-24T06:46:52Z</time>
      </trkpt>
      <trkpt lat="43.14286800000007" lon="-1.2413779999999988">
        <ele>307.244</ele>
        <time>2022-08-24T06:46:53Z</time>
      </trkpt>
      <trkpt lat="43.14285300000007" lon="-1.2413909999999988">
        <ele>307.418</ele>
        <time>2022-08-24T06:46:54Z</time>
      </trkpt>
      <trkpt lat="43.14283700000007" lon="-1.2414009999999989">
        <ele>307.409</ele>
        <time>2022-08-24T06:46:55Z</time>
      </trkpt>
      <trkpt lat="43.14282200000007" lon="-1.2414099999999988">
        <ele>307.837</ele>
        <time>2022-08-24T06:46:56Z</time>
      </trkpt>
      <trkpt lat="43.142807000000076" lon="-1.2414189999999987">
        <ele>308.027</ele>
        <time>2022-08-24T06:46:57Z</time>
      </trkpt>
      <trkpt lat="43.142791000000074" lon="-1.2414289999999988">
        <ele>308.067</ele>
        <time>2022-08-24T06:46:58Z</time>
      </trkpt>
      <trkpt lat="43.142774000000074" lon="-1.2414339999999988">
        <ele>308.243</ele>
        <time>2022-08-24T06:46:59Z</time>
      </trkpt>
      <trkpt lat="43.14275600000008" lon="-1.2414389999999988">
        <ele>308.255</ele>
        <time>2022-08-24T06:47:00Z</time>
      </trkpt>
      <trkpt lat="43.14275600000008" lon="-1.2414389999999988">
        <ele>308.282</ele>
        <time>2022-08-24T06:47:01Z</time>
      </trkpt>
      <trkpt lat="43.142726000000074" lon="-1.241456999999999">
        <ele>308.465</ele>
        <time>2022-08-24T06:47:02Z</time>
      </trkpt>
      <trkpt lat="43.14271000000007" lon="-1.241464999999999">
        <ele>308.649</ele>
        <time>2022-08-24T06:47:03Z</time>
      </trkpt>
      <trkpt lat="43.14269300000007" lon="-1.241469999999999">
        <ele>308.848</ele>
        <time>2022-08-24T06:47:04Z</time>
      </trkpt>
      <trkpt lat="43.142678000000075" lon="-1.241475999999999">
        <ele>309.079</ele>
        <time>2022-08-24T06:47:05Z</time>
      </trkpt>
      <trkpt lat="43.142664000000075" lon="-1.241483999999999">
        <ele>309.205</ele>
        <time>2022-08-24T06:47:06Z</time>
      </trkpt>
      <trkpt lat="43.142664000000075" lon="-1.241483999999999">
        <ele>309.225</ele>
        <time>2022-08-24T06:47:07Z</time>
      </trkpt>
      <trkpt lat="43.142630000000075" lon="-1.2414959999999988">
        <ele>309.409</ele>
        <time>2022-08-24T06:47:08Z</time>
      </trkpt>
      <trkpt lat="43.14261400000007" lon="-1.2414979999999989">
        <ele>309.448</ele>
        <time>2022-08-24T06:47:09Z</time>
      </trkpt>
      <trkpt lat="43.14261400000007" lon="-1.2414979999999989">
        <ele>309.628</ele>
        <time>2022-08-24T06:47:10Z</time>
      </trkpt>
      <trkpt lat="43.14258100000007" lon="-1.241502999999999">
        <ele>309.658</ele>
        <time>2022-08-24T06:47:11Z</time>
      </trkpt>
      <trkpt lat="43.142563000000074" lon="-1.2415069999999988">
        <ele>310.074</ele>
        <time>2022-08-24T06:47:12Z</time>
      </trkpt>
      <trkpt lat="43.14254500000008" lon="-1.2415099999999988">
        <ele>310.236</ele>
        <time>2022-08-24T06:47:13Z</time>
      </trkpt>
      <trkpt lat="43.14252700000008" lon="-1.2415119999999988">
        <ele>310.233</ele>
        <time>2022-08-24T06:47:14Z</time>
      </trkpt>
      <trkpt lat="43.14252700000008" lon="-1.2415119999999988">
        <ele>310.436</ele>
        <time>2022-08-24T06:47:15Z</time>
      </trkpt>
      <trkpt lat="43.14249000000008" lon="-1.241518999999999">
        <ele>310.410</ele>
        <time>2022-08-24T06:47:16Z</time>
      </trkpt>
      <trkpt lat="43.14247100000008" lon="-1.241523999999999">
        <ele>310.659</ele>
        <time>2022-08-24T06:47:17Z</time>
      </trkpt>
      <trkpt lat="43.14245100000008" lon="-1.241526999999999">
        <ele>310.835</ele>
        <time>2022-08-24T06:47:18Z</time>
      </trkpt>
      <trkpt lat="43.14243100000008" lon="-1.2415279999999989">
        <ele>310.886</ele>
        <time>2022-08-24T06:47:19Z</time>
      </trkpt>
      <trkpt lat="43.14241200000008" lon="-1.2415289999999988">
        <ele>311.014</ele>
        <time>2022-08-24T06:47:20Z</time>
      </trkpt>
      <trkpt lat="43.14241200000008" lon="-1.2415289999999988">
        <ele>311.209</ele>
        <time>2022-08-24T06:47:21Z</time>
      </trkpt>
      <trkpt lat="43.14237600000008" lon="-1.2415339999999988">
        <ele>311.464</ele>
        <time>2022-08-24T06:47:22Z</time>
      </trkpt>
      <trkpt lat="43.14237600000008" lon="-1.2415339999999988">
        <ele>311.684</ele>
        <time>2022-08-24T06:47:23Z</time>
      </trkpt>
      <trkpt lat="43.142357000000075" lon="-1.2415359999999989">
        <ele>311.634</ele>
        <time>2022-08-24T06:47:24Z</time>
      </trkpt>
      <trkpt lat="43.14232200000008" lon="-1.241534999999999">
        <ele>311.830</ele>
        <time>2022-08-24T06:47:25Z</time>
      </trkpt>
      <trkpt lat="43.14230500000008" lon="-1.241533999999999">
        <ele>312.072</ele>
        <time>2022-08-24T06:47:26Z</time>
      </trkpt>
      <trkpt lat="43.14228800000008" lon="-1.241535999999999">
        <ele>312.269</ele>
        <time>2022-08-24T06:47:27Z</time>
      </trkpt>
      <trkpt lat="43.14227100000008" lon="-1.241533999999999">
        <ele>312.282</ele>
        <time>2022-08-24T06:47:28Z</time>
      </trkpt>
      <trkpt lat="43.14225300000008" lon="-1.241533999999999">
        <ele>312.226</ele>
        <time>2022-08-24T06:47:29Z</time>
      </trkpt>
      <trkpt lat="43.142235000000085" lon="-1.241533999999999">
        <ele>312.245</ele>
        <time>2022-08-24T06:47:30Z</time>
      </trkpt>
      <trkpt lat="43.14221600000008" lon="-1.241534999999999">
        <ele>312.427</ele>
        <time>2022-08-24T06:47:31Z</time>
      </trkpt>
      <trkpt lat="43.142198000000086" lon="-1.2415329999999989">
        <ele>312.468</ele>
        <time>2022-08-24T06:47:32Z</time>
      </trkpt>
      <trkpt lat="43.142179000000084" lon="-1.2415329999999989">
        <ele>312.614</ele>
        <time>2022-08-24T06:47:33Z</time>
      </trkpt>
      <trkpt lat="43.142162000000084" lon="-1.2415309999999988">
        <ele>312.609</ele>
        <time>2022-08-24T06:47:34Z</time>
      </trkpt>
      <trkpt lat="43.14214400000009" lon="-1.2415309999999988">
        <ele>312.883</ele>
        <time>2022-08-24T06:47:35Z</time>
      </trkpt>
      <trkpt lat="43.142125000000085" lon="-1.241529999999999">
        <ele>313.023</ele>
        <time>2022-08-24T06:47:36Z</time>
      </trkpt>
      <trkpt lat="43.14210700000009" lon="-1.241526999999999">
        <ele>313.043</ele>
        <time>2022-08-24T06:47:37Z</time>
      </trkpt>
      <trkpt lat="43.14210700000009" lon="-1.241526999999999">
        <ele>313.059</ele>
        <time>2022-08-24T06:47:38Z</time>
      </trkpt>
      <trkpt lat="43.14206700000009" lon="-1.241518999999999">
        <ele>313.051</ele>
        <time>2022-08-24T06:47:39Z</time>
      </trkpt>
      <trkpt lat="43.14204700000009" lon="-1.241514999999999">
        <ele>313.278</ele>
        <time>2022-08-24T06:47:40Z</time>
      </trkpt>
      <trkpt lat="43.14202700000009" lon="-1.2415109999999991">
        <ele>313.241</ele>
        <time>2022-08-24T06:47:41Z</time>
      </trkpt>
      <trkpt lat="43.14200500000009" lon="-1.241505999999999">
        <ele>313.435</ele>
        <time>2022-08-24T06:47:42Z</time>
      </trkpt>
      <trkpt lat="43.14198400000009" lon="-1.2415029999999991">
        <ele>313.444</ele>
        <time>2022-08-24T06:47:43Z</time>
      </trkpt>
      <trkpt lat="43.141964000000094" lon="-1.241500999999999">
        <ele>313.443</ele>
        <time>2022-08-24T06:47:44Z</time>
      </trkpt>
      <trkpt lat="43.141944000000095" lon="-1.241497999999999">
        <ele>313.664</ele>
        <time>2022-08-24T06:47:45Z</time>
      </trkpt>
      <trkpt lat="43.14192500000009" lon="-1.2414949999999991">
        <ele>313.610</ele>
        <time>2022-08-24T06:47:46Z</time>
      </trkpt>
      <trkpt lat="43.14190600000009" lon="-1.2414909999999992">
        <ele>313.609</ele>
        <time>2022-08-24T06:47:47Z</time>
      </trkpt>
      <trkpt lat="43.14189000000009" lon="-1.2414879999999993">
        <ele>313.665</ele>
        <time>2022-08-24T06:47:48Z</time>
      </trkpt>
      <trkpt lat="43.14187200000009" lon="-1.2414869999999993">
        <ele>313.655</ele>
        <time>2022-08-24T06:47:49Z</time>
      </trkpt>
      <trkpt lat="43.14183000000009" lon="-1.2414769999999993">
        <ele>313.855</ele>
        <time>2022-08-24T06:47:52Z</time>
      </trkpt>
      <trkpt lat="43.14181500000009" lon="-1.2414739999999993">
        <ele>314.021</ele>
        <time>2022-08-24T06:47:53Z</time>
      </trkpt>
      <trkpt lat="43.1417940000001" lon="-1.2414759999999994">
        <ele>314.033</ele>
        <time>2022-08-24T06:47:54Z</time>
      </trkpt>
      <trkpt lat="43.1417790000001" lon="-1.2414769999999993">
        <ele>314.040</ele>
        <time>2022-08-24T06:47:55Z</time>
      </trkpt>
      <trkpt lat="43.1417650000001" lon="-1.2414719999999992">
        <ele>314.293</ele>
        <time>2022-08-24T06:47:56Z</time>
      </trkpt>
      <trkpt lat="43.1417570000001" lon="-1.2414659999999993">
        <ele>314.277</ele>
        <time>2022-08-24T06:47:57Z</time>
      </trkpt>
      <trkpt lat="43.1417420000001" lon="-1.2414619999999994">
        <ele>314.466</ele>
        <time>2022-08-24T06:47:59Z</time>
      </trkpt>
      <trkpt lat="43.1417380000001" lon="-1.2414609999999995">
        <ele>314.843</ele>
        <time>2022-08-24T06:48:27Z</time>
      </trkpt>
      <trkpt lat="43.1416930000001" lon="-1.2414549999999995">
        <ele>315.064</ele>
        <time>2022-08-24T06:48:29Z</time>
      </trkpt>
      <trkpt lat="43.141557000000105" lon="-1.2414259999999995">
        <ele>315.210</ele>
        <time>2022-08-24T06:48:34Z</time>
      </trkpt>
      <trkpt lat="43.141366000000104" lon="-1.2413739999999995">
        <ele>315.809</ele>
        <time>2022-08-24T06:48:39Z</time>
      </trkpt>
      <trkpt lat="43.14133100000011" lon="-1.2413699999999996">
        <ele>316.285</ele>
        <time>2022-08-24T06:48:40Z</time>
      </trkpt>
      <trkpt lat="43.14130200000011" lon="-1.2413619999999996">
        <ele>316.425</ele>
        <time>2022-08-24T06:48:41Z</time>
      </trkpt>
      <trkpt lat="43.14127200000011" lon="-1.2413499999999997">
        <ele>316.835</ele>
        <time>2022-08-24T06:48:42Z</time>
      </trkpt>
      <trkpt lat="43.14123800000011" lon="-1.2413409999999998">
        <ele>317.041</ele>
        <time>2022-08-24T06:48:43Z</time>
      </trkpt>
      <trkpt lat="43.14120700000011" lon="-1.2413319999999999">
        <ele>317.233</ele>
        <time>2022-08-24T06:48:44Z</time>
      </trkpt>
      <trkpt lat="43.14117600000011" lon="-1.2413219999999998">
        <ele>317.480</ele>
        <time>2022-08-24T06:48:45Z</time>
      </trkpt>
      <trkpt lat="43.14105800000011" lon="-1.2412789999999998">
        <ele>318.023</ele>
        <time>2022-08-24T06:48:49Z</time>
      </trkpt>
      <trkpt lat="43.14102600000011" lon="-1.2412629999999998">
        <ele>318.247</ele>
        <time>2022-08-24T06:48:50Z</time>
      </trkpt>
      <trkpt lat="43.14099700000011" lon="-1.2412469999999998">
        <ele>318.466</ele>
        <time>2022-08-24T06:48:51Z</time>
      </trkpt>
      <trkpt lat="43.140962000000115" lon="-1.2412259999999997">
        <ele>318.694</ele>
        <time>2022-08-24T06:48:52Z</time>
      </trkpt>
      <trkpt lat="43.140962000000115" lon="-1.2412259999999997">
        <ele>318.657</ele>
        <time>2022-08-24T06:48:53Z</time>
      </trkpt>
      <trkpt lat="43.140912000000114" lon="-1.2411819999999998">
        <ele>318.822</ele>
        <time>2022-08-24T06:48:54Z</time>
      </trkpt>
      <trkpt lat="43.14089100000012" lon="-1.2411539999999999">
        <ele>319.009</ele>
        <time>2022-08-24T06:48:55Z</time>
      </trkpt>
      <trkpt lat="43.14086500000012" lon="-1.241137">
        <ele>319.060</ele>
        <time>2022-08-24T06:48:56Z</time>
      </trkpt>
      <trkpt lat="43.140838000000116" lon="-1.2411159999999999">
        <ele>319.240</ele>
        <time>2022-08-24T06:48:57Z</time>
      </trkpt>
      <trkpt lat="43.14080900000012" lon="-1.241096">
        <ele>319.210</ele>
        <time>2022-08-24T06:48:58Z</time>
      </trkpt>
      <trkpt lat="43.14078300000012" lon="-1.241078">
        <ele>319.646</ele>
        <time>2022-08-24T06:48:59Z</time>
      </trkpt>
      <trkpt lat="43.14075600000012" lon="-1.2410599999999998">
        <ele>319.648</ele>
        <time>2022-08-24T06:49:00Z</time>
      </trkpt>
      <trkpt lat="43.140726000000114" lon="-1.2410379999999999">
        <ele>319.875</ele>
        <time>2022-08-24T06:49:01Z</time>
      </trkpt>
      <trkpt lat="43.14070200000011" lon="-1.241013">
        <ele>319.898</ele>
        <time>2022-08-24T06:49:02Z</time>
      </trkpt>
      <trkpt lat="43.14067600000011" lon="-1.2409919999999999">
        <ele>319.842</ele>
        <time>2022-08-24T06:49:03Z</time>
      </trkpt>
      <trkpt lat="43.14064800000011" lon="-1.240978">
        <ele>320.051</ele>
        <time>2022-08-24T06:49:04Z</time>
      </trkpt>
      <trkpt lat="43.14062100000011" lon="-1.2409629999999998">
        <ele>320.257</ele>
        <time>2022-08-24T06:49:05Z</time>
      </trkpt>
      <trkpt lat="43.14059600000011" lon="-1.2409519999999998">
        <ele>320.600</ele>
        <time>2022-08-24T06:49:06Z</time>
      </trkpt>
      <trkpt lat="43.14059600000011" lon="-1.2409519999999998">
        <ele>320.620</ele>
        <time>2022-08-24T06:49:07Z</time>
      </trkpt>
      <trkpt lat="43.140541000000105" lon="-1.2409169999999998">
        <ele>320.809</ele>
        <time>2022-08-24T06:49:08Z</time>
      </trkpt>
      <trkpt lat="43.14051200000011" lon="-1.2408959999999998">
        <ele>320.816</ele>
        <time>2022-08-24T06:49:09Z</time>
      </trkpt>
      <trkpt lat="43.14051200000011" lon="-1.2408959999999998">
        <ele>321.096</ele>
        <time>2022-08-24T06:49:10Z</time>
      </trkpt>
      <trkpt lat="43.140451000000105" lon="-1.2408429999999997">
        <ele>321.076</ele>
        <time>2022-08-24T06:49:11Z</time>
      </trkpt>
      <trkpt lat="43.1404180000001" lon="-1.2408109999999997">
        <ele>321.082</ele>
        <time>2022-08-24T06:49:12Z</time>
      </trkpt>
      <trkpt lat="43.1404180000001" lon="-1.2408109999999997">
        <ele>321.034</ele>
        <time>2022-08-24T06:49:13Z</time>
      </trkpt>
      <trkpt lat="43.140344000000105" lon="-1.2407529999999998">
        <ele>321.041</ele>
        <time>2022-08-24T06:49:14Z</time>
      </trkpt>
      <trkpt lat="43.14030700000011" lon="-1.2407279999999998">
        <ele>321.064</ele>
        <time>2022-08-24T06:49:15Z</time>
      </trkpt>
      <trkpt lat="43.14030700000011" lon="-1.2407279999999998">
        <ele>321.098</ele>
        <time>2022-08-24T06:49:16Z</time>
      </trkpt>
      <trkpt lat="43.14022500000011" lon="-1.240665">
        <ele>321.027</ele>
        <time>2022-08-24T06:49:17Z</time>
      </trkpt>
      <trkpt lat="43.14018300000011" lon="-1.240629">
        <ele>321.023</ele>
        <time>2022-08-24T06:49:18Z</time>
      </trkpt>
      <trkpt lat="43.14014000000011" lon="-1.240588">
        <ele>321.083</ele>
        <time>2022-08-24T06:49:19Z</time>
      </trkpt>
      <trkpt lat="43.140099000000106" lon="-1.240545">
        <ele>321.011</ele>
        <time>2022-08-24T06:49:20Z</time>
      </trkpt>
      <trkpt lat="43.14005600000011" lon="-1.240502">
        <ele>321.009</ele>
        <time>2022-08-24T06:49:21Z</time>
      </trkpt>
      <trkpt lat="43.14001400000011" lon="-1.240462">
        <ele>321.063</ele>
        <time>2022-08-24T06:49:22Z</time>
      </trkpt>
      <trkpt lat="43.139973000000104" lon="-1.240424">
        <ele>320.883</ele>
        <time>2022-08-24T06:49:23Z</time>
      </trkpt>
      <trkpt lat="43.139610000000104" lon="-1.240043">
        <ele>320.073</ele>
        <time>2022-08-24T06:49:31Z</time>
      </trkpt>
      <trkpt lat="43.139404000000106" lon="-1.2398150000000001">
        <ele>319.489</ele>
        <time>2022-08-24T06:49:35Z</time>
      </trkpt>
      <trkpt lat="43.139294000000106" lon="-1.2397090000000002">
        <ele>318.871</ele>
        <time>2022-08-24T06:49:37Z</time>
      </trkpt>
      <trkpt lat="43.13924000000011" lon="-1.2396600000000002">
        <ele>318.678</ele>
        <time>2022-08-24T06:49:38Z</time>
      </trkpt>
      <trkpt lat="43.139187000000106" lon="-1.2396120000000002">
        <ele>318.421</ele>
        <time>2022-08-24T06:49:39Z</time>
      </trkpt>
      <trkpt lat="43.13913300000011" lon="-1.2395680000000002">
        <ele>318.485</ele>
        <time>2022-08-24T06:49:40Z</time>
      </trkpt>
      <trkpt lat="43.13908100000011" lon="-1.2395280000000002">
        <ele>318.254</ele>
        <time>2022-08-24T06:49:41Z</time>
      </trkpt>
      <trkpt lat="43.139029000000114" lon="-1.2394890000000003">
        <ele>318.244</ele>
        <time>2022-08-24T06:49:42Z</time>
      </trkpt>
      <trkpt lat="43.13898000000012" lon="-1.2394500000000004">
        <ele>318.005</ele>
        <time>2022-08-24T06:49:43Z</time>
      </trkpt>
      <trkpt lat="43.13898000000012" lon="-1.2394500000000004">
        <ele>318.015</ele>
        <time>2022-08-24T06:49:44Z</time>
      </trkpt>
      <trkpt lat="43.138885000000116" lon="-1.2393770000000004">
        <ele>317.809</ele>
        <time>2022-08-24T06:49:45Z</time>
      </trkpt>
      <trkpt lat="43.138750000000115" lon="-1.2392760000000005">
        <ele>317.685</ele>
        <time>2022-08-24T06:49:48Z</time>
      </trkpt>
      <trkpt lat="43.13872300000011" lon="-1.2392580000000004">
        <ele>317.655</ele>
        <time>2022-08-24T06:49:49Z</time>
      </trkpt>
      <trkpt lat="43.13869500000011" lon="-1.2392370000000004">
        <ele>317.675</ele>
        <time>2022-08-24T06:49:50Z</time>
      </trkpt>
      <trkpt lat="43.13854600000011" lon="-1.2391470000000004">
        <ele>317.461</ele>
        <time>2022-08-24T06:49:54Z</time>
      </trkpt>
      <trkpt lat="43.138503000000114" lon="-1.2391280000000005">
        <ele>317.483</ele>
        <time>2022-08-24T06:49:55Z</time>
      </trkpt>
      <trkpt lat="43.138232000000116" lon="-1.2390360000000005">
        <ele>316.840</ele>
        <time>2022-08-24T06:50:01Z</time>
      </trkpt>
      <trkpt lat="43.138190000000115" lon="-1.2390200000000005">
        <ele>316.823</ele>
        <time>2022-08-24T06:50:02Z</time>
      </trkpt>
      <trkpt lat="43.13814700000012" lon="-1.2390070000000004">
        <ele>316.827</ele>
        <time>2022-08-24T06:50:03Z</time>
      </trkpt>
      <trkpt lat="43.138103000000115" lon="-1.2389960000000004">
        <ele>316.866</ele>
        <time>2022-08-24T06:50:04Z</time>
      </trkpt>
      <trkpt lat="43.13796400000012" lon="-1.2389690000000004">
        <ele>316.873</ele>
        <time>2022-08-24T06:50:07Z</time>
      </trkpt>
      <trkpt lat="43.137669000000116" lon="-1.2389240000000004">
        <ele>316.885</ele>
        <time>2022-08-24T06:50:13Z</time>
      </trkpt>
      <trkpt lat="43.137622000000114" lon="-1.2389190000000003">
        <ele>316.613</ele>
        <time>2022-08-24T06:50:14Z</time>
      </trkpt>
      <trkpt lat="43.13757500000011" lon="-1.2389140000000003">
        <ele>316.609</ele>
        <time>2022-08-24T06:50:15Z</time>
      </trkpt>
      <trkpt lat="43.137529000000114" lon="-1.2389070000000002">
        <ele>316.678</ele>
        <time>2022-08-24T06:50:16Z</time>
      </trkpt>
      <trkpt lat="43.137529000000114" lon="-1.2389070000000002">
        <ele>316.488</ele>
        <time>2022-08-24T06:50:17Z</time>
      </trkpt>
      <trkpt lat="43.137444000000116" lon="-1.2388810000000001">
        <ele>316.448</ele>
        <time>2022-08-24T06:50:18Z</time>
      </trkpt>
      <trkpt lat="43.137402000000115" lon="-1.2388640000000002">
        <ele>316.274</ele>
        <time>2022-08-24T06:50:19Z</time>
      </trkpt>
      <trkpt lat="43.137363000000114" lon="-1.2388460000000001">
        <ele>316.216</ele>
        <time>2022-08-24T06:50:20Z</time>
      </trkpt>
      <trkpt lat="43.13732700000011" lon="-1.2388290000000002">
        <ele>316.283</ele>
        <time>2022-08-24T06:50:21Z</time>
      </trkpt>
      <trkpt lat="43.13729400000011" lon="-1.2388130000000002">
        <ele>316.216</ele>
        <time>2022-08-24T06:50:22Z</time>
      </trkpt>
      <trkpt lat="43.13729400000011" lon="-1.2388130000000002">
        <ele>316.280</ele>
        <time>2022-08-24T06:50:23Z</time>
      </trkpt>
      <trkpt lat="43.13722600000011" lon="-1.2387700000000001">
        <ele>316.269</ele>
        <time>2022-08-24T06:50:24Z</time>
      </trkpt>
      <trkpt lat="43.137200000000114" lon="-1.2387540000000001">
        <ele>316.285</ele>
        <time>2022-08-24T06:50:25Z</time>
      </trkpt>
      <trkpt lat="43.137200000000114" lon="-1.2387540000000001">
        <ele>316.489</ele>
        <time>2022-08-24T06:50:26Z</time>
      </trkpt>
      <trkpt lat="43.13715300000011" lon="-1.238733">
        <ele>316.617</ele>
        <time>2022-08-24T06:50:27Z</time>
      </trkpt>
      <trkpt lat="43.13712700000011" lon="-1.2387190000000001">
        <ele>316.809</ele>
        <time>2022-08-24T06:50:28Z</time>
      </trkpt>
      <trkpt lat="43.137098000000115" lon="-1.238703">
        <ele>317.039</ele>
        <time>2022-08-24T06:50:29Z</time>
      </trkpt>
      <trkpt lat="43.137042000000115" lon="-1.238666">
        <ele>317.489</ele>
        <time>2022-08-24T06:50:31Z</time>
      </trkpt>
      <trkpt lat="43.137014000000114" lon="-1.238644">
        <ele>317.689</ele>
        <time>2022-08-24T06:50:32Z</time>
      </trkpt>
      <trkpt lat="43.13698200000012" lon="-1.2386110000000001">
        <ele>317.895</ele>
        <time>2022-08-24T06:50:33Z</time>
      </trkpt>
      <trkpt lat="43.13696200000012" lon="-1.23859">
        <ele>318.047</ele>
        <time>2022-08-24T06:50:34Z</time>
      </trkpt>
      <trkpt lat="43.13693700000012" lon="-1.238566">
        <ele>318.224</ele>
        <time>2022-08-24T06:50:35Z</time>
      </trkpt>
      <trkpt lat="43.13691300000011" lon="-1.238542">
        <ele>318.467</ele>
        <time>2022-08-24T06:50:36Z</time>
      </trkpt>
      <trkpt lat="43.13688800000011" lon="-1.238515">
        <ele>318.611</ele>
        <time>2022-08-24T06:50:37Z</time>
      </trkpt>
      <trkpt lat="43.13681600000011" lon="-1.238415">
        <ele>319.420</ele>
        <time>2022-08-24T06:50:41Z</time>
      </trkpt>
      <trkpt lat="43.13678800000011" lon="-1.238397">
        <ele>319.687</ele>
        <time>2022-08-24T06:50:42Z</time>
      </trkpt>
      <trkpt lat="43.13675800000011" lon="-1.23838">
        <ele>319.642</ele>
        <time>2022-08-24T06:50:43Z</time>
      </trkpt>
      <trkpt lat="43.13673000000011" lon="-1.238362">
        <ele>320.026</ele>
        <time>2022-08-24T06:50:44Z</time>
      </trkpt>
      <trkpt lat="43.13669800000011" lon="-1.2383469999999999">
        <ele>320.209</ele>
        <time>2022-08-24T06:50:45Z</time>
      </trkpt>
      <trkpt lat="43.13665900000011" lon="-1.2383319999999998">
        <ele>320.289</ele>
        <time>2022-08-24T06:50:46Z</time>
      </trkpt>
      <trkpt lat="43.136612000000106" lon="-1.2383129999999998">
        <ele>320.489</ele>
        <time>2022-08-24T06:50:47Z</time>
      </trkpt>
      <trkpt lat="43.136556000000105" lon="-1.2382939999999998">
        <ele>320.429</ele>
        <time>2022-08-24T06:50:48Z</time>
      </trkpt>
      <trkpt lat="43.1364980000001" lon="-1.2382769999999999">
        <ele>320.475</ele>
        <time>2022-08-24T06:50:49Z</time>
      </trkpt>
      <trkpt lat="43.1364400000001" lon="-1.2382589999999998">
        <ele>320.277</ele>
        <time>2022-08-24T06:50:50Z</time>
      </trkpt>
      <trkpt lat="43.1363830000001" lon="-1.2382419999999998">
        <ele>320.254</ele>
        <time>2022-08-24T06:50:51Z</time>
      </trkpt>
      <trkpt lat="43.1363290000001" lon="-1.238225">
        <ele>320.247</ele>
        <time>2022-08-24T06:50:52Z</time>
      </trkpt>
      <trkpt lat="43.136280000000106" lon="-1.2382">
        <ele>319.821</ele>
        <time>2022-08-24T06:50:53Z</time>
      </trkpt>
      <trkpt lat="43.136280000000106" lon="-1.2382">
        <ele>319.640</ele>
        <time>2022-08-24T06:50:54Z</time>
      </trkpt>
      <trkpt lat="43.136193000000105" lon="-1.238163">
        <ele>319.427</ele>
        <time>2022-08-24T06:50:55Z</time>
      </trkpt>
      <trkpt lat="43.1361520000001" lon="-1.2381499999999999">
        <ele>319.468</ele>
        <time>2022-08-24T06:50:56Z</time>
      </trkpt>
      <trkpt lat="43.1361520000001" lon="-1.2381499999999999">
        <ele>319.414</ele>
        <time>2022-08-24T06:50:57Z</time>
      </trkpt>
      <trkpt lat="43.136072000000105" lon="-1.2381309999999999">
        <ele>319.209</ele>
        <time>2022-08-24T06:50:58Z</time>
      </trkpt>
      <trkpt lat="43.1360310000001" lon="-1.238127">
        <ele>319.253</ele>
        <time>2022-08-24T06:50:59Z</time>
      </trkpt>
      <trkpt lat="43.1360310000001" lon="-1.238127">
        <ele>319.263</ele>
        <time>2022-08-24T06:51:00Z</time>
      </trkpt>
      <trkpt lat="43.1359550000001" lon="-1.238118">
        <ele>319.213</ele>
        <time>2022-08-24T06:51:01Z</time>
      </trkpt>
      <trkpt lat="43.135920000000105" lon="-1.238116">
        <ele>319.259</ele>
        <time>2022-08-24T06:51:02Z</time>
      </trkpt>
      <trkpt lat="43.135920000000105" lon="-1.238116">
        <ele>319.221</ele>
        <time>2022-08-24T06:51:03Z</time>
      </trkpt>
      <trkpt lat="43.13584900000011" lon="-1.238108">
        <ele>319.288</ele>
        <time>2022-08-24T06:51:04Z</time>
      </trkpt>
      <trkpt lat="43.13581400000011" lon="-1.238101">
        <ele>319.831</ele>
        <time>2022-08-24T06:51:05Z</time>
      </trkpt>
      <trkpt lat="43.13577900000011" lon="-1.2381019999999998">
        <ele>320.095</ele>
        <time>2022-08-24T06:51:06Z</time>
      </trkpt>
      <trkpt lat="43.13570900000011" lon="-1.2381019999999998">
        <ele>320.434</ele>
        <time>2022-08-24T06:51:08Z</time>
      </trkpt>
      <trkpt lat="43.135677000000115" lon="-1.2381079999999998">
        <ele>320.633</ele>
        <time>2022-08-24T06:51:09Z</time>
      </trkpt>
      <trkpt lat="43.135638000000114" lon="-1.2381139999999997">
        <ele>320.823</ele>
        <time>2022-08-24T06:51:10Z</time>
      </trkpt>
      <trkpt lat="43.13561300000011" lon="-1.2381179999999996">
        <ele>321.015</ele>
        <time>2022-08-24T06:51:11Z</time>
      </trkpt>
      <trkpt lat="43.135584000000115" lon="-1.2381189999999995">
        <ele>321.209</ele>
        <time>2022-08-24T06:51:12Z</time>
      </trkpt>
      <trkpt lat="43.13555200000012" lon="-1.2381219999999995">
        <ele>321.424</ele>
        <time>2022-08-24T06:51:13Z</time>
      </trkpt>
      <trkpt lat="43.13552300000012" lon="-1.2381279999999995">
        <ele>321.874</ele>
        <time>2022-08-24T06:51:14Z</time>
      </trkpt>
      <trkpt lat="43.13549600000012" lon="-1.2381309999999994">
        <ele>322.064</ele>
        <time>2022-08-24T06:51:15Z</time>
      </trkpt>
      <trkpt lat="43.135469000000114" lon="-1.2381339999999994">
        <ele>322.250</ele>
        <time>2022-08-24T06:51:16Z</time>
      </trkpt>
      <trkpt lat="43.135469000000114" lon="-1.2381339999999994">
        <ele>322.442</ele>
        <time>2022-08-24T06:51:17Z</time>
      </trkpt>
      <trkpt lat="43.135421000000115" lon="-1.2381329999999995">
        <ele>322.649</ele>
        <time>2022-08-24T06:51:18Z</time>
      </trkpt>
      <trkpt lat="43.135395000000116" lon="-1.2381309999999994">
        <ele>322.882</ele>
        <time>2022-08-24T06:51:19Z</time>
      </trkpt>
      <trkpt lat="43.135370000000115" lon="-1.2381319999999993">
        <ele>323.066</ele>
        <time>2022-08-24T06:51:20Z</time>
      </trkpt>
      <trkpt lat="43.13534100000012" lon="-1.2381329999999993">
        <ele>323.065</ele>
        <time>2022-08-24T06:51:21Z</time>
      </trkpt>
      <trkpt lat="43.135311000000115" lon="-1.2381359999999992">
        <ele>323.046</ele>
        <time>2022-08-24T06:51:22Z</time>
      </trkpt>
      <trkpt lat="43.13528100000011" lon="-1.2381349999999993">
        <ele>323.288</ele>
        <time>2022-08-24T06:51:23Z</time>
      </trkpt>
      <trkpt lat="43.135249000000115" lon="-1.2381319999999993">
        <ele>323.416</ele>
        <time>2022-08-24T06:51:24Z</time>
      </trkpt>
      <trkpt lat="43.135218000000116" lon="-1.2381269999999993">
        <ele>323.609</ele>
        <time>2022-08-24T06:51:25Z</time>
      </trkpt>
      <trkpt lat="43.135218000000116" lon="-1.2381269999999993">
        <ele>323.645</ele>
        <time>2022-08-24T06:51:26Z</time>
      </trkpt>
      <trkpt lat="43.135154000000114" lon="-1.2381129999999994">
        <ele>323.615</ele>
        <time>2022-08-24T06:51:27Z</time>
      </trkpt>
      <trkpt lat="43.135154000000114" lon="-1.2381129999999994">
        <ele>323.895</ele>
        <time>2022-08-24T06:51:28Z</time>
      </trkpt>
      <trkpt lat="43.13508400000011" lon="-1.2380999999999993">
        <ele>323.831</ele>
        <time>2022-08-24T06:51:29Z</time>
      </trkpt>
      <trkpt lat="43.135049000000116" lon="-1.2380919999999993">
        <ele>323.873</ele>
        <time>2022-08-24T06:51:30Z</time>
      </trkpt>
      <trkpt lat="43.135049000000116" lon="-1.2380919999999993">
        <ele>323.870</ele>
        <time>2022-08-24T06:51:31Z</time>
      </trkpt>
      <trkpt lat="43.134982000000115" lon="-1.2380839999999993">
        <ele>323.883</ele>
        <time>2022-08-24T06:51:32Z</time>
      </trkpt>
      <trkpt lat="43.13495000000012" lon="-1.2380779999999993">
        <ele>323.827</ele>
        <time>2022-08-24T06:51:33Z</time>
      </trkpt>
      <trkpt lat="43.13491800000012" lon="-1.2380729999999993">
        <ele>323.846</ele>
        <time>2022-08-24T06:51:34Z</time>
      </trkpt>
      <trkpt lat="43.13488700000012" lon="-1.2380669999999994">
        <ele>323.883</ele>
        <time>2022-08-24T06:51:35Z</time>
      </trkpt>
      <trkpt lat="43.13488700000012" lon="-1.2380669999999994">
        <ele>323.825</ele>
        <time>2022-08-24T06:51:36Z</time>
      </trkpt>
      <trkpt lat="43.13482500000012" lon="-1.2380689999999994">
        <ele>323.817</ele>
        <time>2022-08-24T06:51:37Z</time>
      </trkpt>
      <trkpt lat="43.13479700000012" lon="-1.2380709999999995">
        <ele>323.809</ele>
        <time>2022-08-24T06:51:38Z</time>
      </trkpt>
      <trkpt lat="43.13479700000012" lon="-1.2380709999999995">
        <ele>323.829</ele>
        <time>2022-08-24T06:51:39Z</time>
      </trkpt>
      <trkpt lat="43.13475200000012" lon="-1.2380809999999995">
        <ele>324.299</ele>
        <time>2022-08-24T06:51:40Z</time>
      </trkpt>
      <trkpt lat="43.13473300000012" lon="-1.2380909999999996">
        <ele>324.289</ele>
        <time>2022-08-24T06:51:41Z</time>
      </trkpt>
      <trkpt lat="43.13471000000012" lon="-1.2381039999999996">
        <ele>324.455</ele>
        <time>2022-08-24T06:51:42Z</time>
      </trkpt>
      <trkpt lat="43.134686000000116" lon="-1.2381239999999996">
        <ele>324.667</ele>
        <time>2022-08-24T06:51:43Z</time>
      </trkpt>
      <trkpt lat="43.134548000000116" lon="-1.2382799999999996">
        <ele>324.844</ele>
        <time>2022-08-24T06:51:48Z</time>
      </trkpt>
      <trkpt lat="43.13451600000012" lon="-1.2383219999999997">
        <ele>324.857</ele>
        <time>2022-08-24T06:51:49Z</time>
      </trkpt>
      <trkpt lat="43.13435700000012" lon="-1.2385429999999997">
        <ele>324.671</ele>
        <time>2022-08-24T06:51:54Z</time>
      </trkpt>
      <trkpt lat="43.13432600000012" lon="-1.2385949999999997">
        <ele>324.640</ele>
        <time>2022-08-24T06:51:55Z</time>
      </trkpt>
      <trkpt lat="43.13425000000012" lon="-1.2387019999999997">
        <ele>324.443</ele>
        <time>2022-08-24T06:51:57Z</time>
      </trkpt>
      <trkpt lat="43.13416000000012" lon="-1.2387949999999996">
        <ele>324.464</ele>
        <time>2022-08-24T06:51:59Z</time>
      </trkpt>
      <trkpt lat="43.13411600000012" lon="-1.2388339999999995">
        <ele>324.210</ele>
        <time>2022-08-24T06:52:00Z</time>
      </trkpt>
      <trkpt lat="43.13407100000012" lon="-1.2388679999999996">
        <ele>323.809</ele>
        <time>2022-08-24T06:52:01Z</time>
      </trkpt>
      <trkpt lat="43.13402600000012" lon="-1.2388919999999997">
        <ele>323.855</ele>
        <time>2022-08-24T06:52:02Z</time>
      </trkpt>
      <trkpt lat="43.13397800000012" lon="-1.2389089999999996">
        <ele>323.645</ele>
        <time>2022-08-24T06:52:03Z</time>
      </trkpt>
      <trkpt lat="43.13393100000012" lon="-1.2389169999999996">
        <ele>323.675</ele>
        <time>2022-08-24T06:52:04Z</time>
      </trkpt>
      <trkpt lat="43.13393100000012" lon="-1.2389169999999996">
        <ele>323.671</ele>
        <time>2022-08-24T06:52:05Z</time>
      </trkpt>
      <trkpt lat="43.13384600000012" lon="-1.2389249999999996">
        <ele>323.453</ele>
        <time>2022-08-24T06:52:06Z</time>
      </trkpt>
      <trkpt lat="43.13380200000012" lon="-1.2389209999999997">
        <ele>323.450</ele>
        <time>2022-08-24T06:52:07Z</time>
      </trkpt>
      <trkpt lat="43.13375900000012" lon="-1.2389149999999998">
        <ele>323.473</ele>
        <time>2022-08-24T06:52:08Z</time>
      </trkpt>
      <trkpt lat="43.13375900000012" lon="-1.2389149999999998">
        <ele>323.457</ele>
        <time>2022-08-24T06:52:09Z</time>
      </trkpt>
      <trkpt lat="43.13371900000012" lon="-1.2389069999999998">
        <ele>323.456</ele>
        <time>2022-08-24T06:52:10Z</time>
      </trkpt>
      <trkpt lat="43.13364200000012" lon="-1.2388869999999998">
        <ele>323.474</ele>
        <time>2022-08-24T06:52:11Z</time>
      </trkpt>
      <trkpt lat="43.133602000000124" lon="-1.238878">
        <ele>323.456</ele>
        <time>2022-08-24T06:52:12Z</time>
      </trkpt>
      <trkpt lat="43.13356600000012" lon="-1.2388629999999998">
        <ele>323.421</ele>
        <time>2022-08-24T06:52:13Z</time>
      </trkpt>
      <trkpt lat="43.13353000000012" lon="-1.2388469999999998">
        <ele>323.409</ele>
        <time>2022-08-24T06:52:14Z</time>
      </trkpt>
      <trkpt lat="43.13349600000012" lon="-1.2388259999999998">
        <ele>323.448</ele>
        <time>2022-08-24T06:52:15Z</time>
      </trkpt>
      <trkpt lat="43.13346200000012" lon="-1.2388019999999997">
        <ele>323.698</ele>
        <time>2022-08-24T06:52:16Z</time>
      </trkpt>
      <trkpt lat="43.133427000000125" lon="-1.2387749999999997">
        <ele>323.488</ele>
        <time>2022-08-24T06:52:17Z</time>
      </trkpt>
      <trkpt lat="43.133363000000124" lon="-1.2387149999999998">
        <ele>323.474</ele>
        <time>2022-08-24T06:52:19Z</time>
      </trkpt>
      <trkpt lat="43.133363000000124" lon="-1.2387149999999998">
        <ele>323.446</ele>
        <time>2022-08-24T06:52:20Z</time>
      </trkpt>
      <trkpt lat="43.13331000000012" lon="-1.2386479999999997">
        <ele>323.653</ele>
        <time>2022-08-24T06:52:21Z</time>
      </trkpt>
      <trkpt lat="43.13328600000012" lon="-1.2386179999999998">
        <ele>323.686</ele>
        <time>2022-08-24T06:52:22Z</time>
      </trkpt>
      <trkpt lat="43.13326400000012" lon="-1.2385899999999999">
        <ele>323.830</ele>
        <time>2022-08-24T06:52:23Z</time>
      </trkpt>
      <trkpt lat="43.133245000000116" lon="-1.238565">
        <ele>324.069</ele>
        <time>2022-08-24T06:52:24Z</time>
      </trkpt>
      <trkpt lat="43.13322500000012" lon="-1.238535">
        <ele>324.292</ele>
        <time>2022-08-24T06:52:25Z</time>
      </trkpt>
      <trkpt lat="43.13322500000012" lon="-1.238535">
        <ele>324.473</ele>
        <time>2022-08-24T06:52:26Z</time>
      </trkpt>
      <trkpt lat="43.133186000000116" lon="-1.238483">
        <ele>324.420</ele>
        <time>2022-08-24T06:52:27Z</time>
      </trkpt>
      <trkpt lat="43.13316800000012" lon="-1.238455">
        <ele>324.609</ele>
        <time>2022-08-24T06:52:28Z</time>
      </trkpt>
      <trkpt lat="43.13316800000012" lon="-1.238455">
        <ele>324.640</ele>
        <time>2022-08-24T06:52:29Z</time>
      </trkpt>
      <trkpt lat="43.13312900000012" lon="-1.238407">
        <ele>324.840</ele>
        <time>2022-08-24T06:52:30Z</time>
      </trkpt>
      <trkpt lat="43.13310900000012" lon="-1.238382">
        <ele>324.820</ele>
        <time>2022-08-24T06:52:31Z</time>
      </trkpt>
      <trkpt lat="43.13309000000012" lon="-1.238361">
        <ele>325.276</ele>
        <time>2022-08-24T06:52:32Z</time>
      </trkpt>
      <trkpt lat="43.13307200000012" lon="-1.238342">
        <ele>325.288</ele>
        <time>2022-08-24T06:52:33Z</time>
      </trkpt>
      <trkpt lat="43.13307200000012" lon="-1.238342">
        <ele>325.445</ele>
        <time>2022-08-24T06:52:34Z</time>
      </trkpt>
      <trkpt lat="43.13303500000012" lon="-1.238324">
        <ele>325.668</ele>
        <time>2022-08-24T06:52:35Z</time>
      </trkpt>
      <trkpt lat="43.13301800000012" lon="-1.238316">
        <ele>325.882</ele>
        <time>2022-08-24T06:52:36Z</time>
      </trkpt>
      <trkpt lat="43.13300300000012" lon="-1.238311">
        <ele>326.061</ele>
        <time>2022-08-24T06:52:37Z</time>
      </trkpt>
      <trkpt lat="43.13298600000012" lon="-1.238306">
        <ele>326.215</ele>
        <time>2022-08-24T06:52:38Z</time>
      </trkpt>
      <trkpt lat="43.13298600000012" lon="-1.238306">
        <ele>326.465</ele>
        <time>2022-08-24T06:52:39Z</time>
      </trkpt>
      <trkpt lat="43.132938000000124" lon="-1.2382989999999998">
        <ele>327.011</ele>
        <time>2022-08-24T06:52:41Z</time>
      </trkpt>
      <trkpt lat="43.132921000000124" lon="-1.2383039999999998">
        <ele>327.209</ele>
        <time>2022-08-24T06:52:42Z</time>
      </trkpt>
      <trkpt lat="43.132904000000124" lon="-1.2383079999999997">
        <ele>327.452</ele>
        <time>2022-08-24T06:52:43Z</time>
      </trkpt>
      <trkpt lat="43.132890000000124" lon="-1.2383079999999997">
        <ele>327.822</ele>
        <time>2022-08-24T06:52:44Z</time>
      </trkpt>
      <trkpt lat="43.132873000000124" lon="-1.2383129999999998">
        <ele>328.022</ele>
        <time>2022-08-24T06:52:45Z</time>
      </trkpt>
      <trkpt lat="43.13285700000012" lon="-1.2383179999999998">
        <ele>328.438</ele>
        <time>2022-08-24T06:52:46Z</time>
      </trkpt>
      <trkpt lat="43.13284100000012" lon="-1.2383229999999998">
        <ele>328.860</ele>
        <time>2022-08-24T06:52:47Z</time>
      </trkpt>
      <trkpt lat="43.13282600000012" lon="-1.238325">
        <ele>328.827</ele>
        <time>2022-08-24T06:52:48Z</time>
      </trkpt>
      <trkpt lat="43.13281200000012" lon="-1.2383339999999998">
        <ele>329.040</ele>
        <time>2022-08-24T06:52:49Z</time>
      </trkpt>
      <trkpt lat="43.132797000000124" lon="-1.2383419999999998">
        <ele>329.274</ele>
        <time>2022-08-24T06:52:50Z</time>
      </trkpt>
      <trkpt lat="43.132783000000124" lon="-1.2383499999999998">
        <ele>329.493</ele>
        <time>2022-08-24T06:52:51Z</time>
      </trkpt>
      <trkpt lat="43.132769000000124" lon="-1.2383549999999999">
        <ele>329.621</ele>
        <time>2022-08-24T06:52:52Z</time>
      </trkpt>
      <trkpt lat="43.13275600000012" lon="-1.2383629999999999">
        <ele>330.041</ele>
        <time>2022-08-24T06:52:53Z</time>
      </trkpt>
      <trkpt lat="43.132741000000124" lon="-1.23837">
        <ele>330.205</ele>
        <time>2022-08-24T06:52:54Z</time>
      </trkpt>
      <trkpt lat="43.13272700000012" lon="-1.238375">
        <ele>330.409</ele>
        <time>2022-08-24T06:52:55Z</time>
      </trkpt>
      <trkpt lat="43.13271300000012" lon="-1.238381">
        <ele>330.813</ele>
        <time>2022-08-24T06:52:56Z</time>
      </trkpt>
      <trkpt lat="43.13269900000012" lon="-1.238386">
        <ele>331.043</ele>
        <time>2022-08-24T06:52:57Z</time>
      </trkpt>
      <trkpt lat="43.13268300000012" lon="-1.238392">
        <ele>331.263</ele>
        <time>2022-08-24T06:52:58Z</time>
      </trkpt>
      <trkpt lat="43.13266700000012" lon="-1.2384">
        <ele>331.479</ele>
        <time>2022-08-24T06:52:59Z</time>
      </trkpt>
      <trkpt lat="43.132651000000116" lon="-1.238405">
        <ele>331.831</ele>
        <time>2022-08-24T06:53:00Z</time>
      </trkpt>
      <trkpt lat="43.132635000000114" lon="-1.23841">
        <ele>331.848</ele>
        <time>2022-08-24T06:53:01Z</time>
      </trkpt>
      <trkpt lat="43.13261600000011" lon="-1.238417">
        <ele>332.281</ele>
        <time>2022-08-24T06:53:02Z</time>
      </trkpt>
      <trkpt lat="43.13261600000011" lon="-1.238417">
        <ele>332.485</ele>
        <time>2022-08-24T06:53:03Z</time>
      </trkpt>
      <trkpt lat="43.13258300000011" lon="-1.238425">
        <ele>332.454</ele>
        <time>2022-08-24T06:53:04Z</time>
      </trkpt>
      <trkpt lat="43.13256900000011" lon="-1.2384300000000001">
        <ele>332.871</ele>
        <time>2022-08-24T06:53:05Z</time>
      </trkpt>
      <trkpt lat="43.13255400000011" lon="-1.2384320000000002">
        <ele>332.841</ele>
        <time>2022-08-24T06:53:06Z</time>
      </trkpt>
      <trkpt lat="43.13254100000011" lon="-1.2384370000000002">
        <ele>333.015</ele>
        <time>2022-08-24T06:53:07Z</time>
      </trkpt>
      <trkpt lat="43.13252700000011" lon="-1.2384450000000002">
        <ele>333.209</ele>
        <time>2022-08-24T06:53:08Z</time>
      </trkpt>
      <trkpt lat="43.13251100000011" lon="-1.2384550000000003">
        <ele>333.458</ele>
        <time>2022-08-24T06:53:09Z</time>
      </trkpt>
      <trkpt lat="43.13251100000011" lon="-1.2384550000000003">
        <ele>333.878</ele>
        <time>2022-08-24T06:53:10Z</time>
      </trkpt>
      <trkpt lat="43.132495000000105" lon="-1.2384650000000004">
        <ele>334.058</ele>
        <time>2022-08-24T06:53:11Z</time>
      </trkpt>
      <trkpt lat="43.13246300000011" lon="-1.2384860000000004">
        <ele>334.254</ele>
        <time>2022-08-24T06:53:12Z</time>
      </trkpt>
      <trkpt lat="43.13244900000011" lon="-1.2384940000000004">
        <ele>334.296</ele>
        <time>2022-08-24T06:53:13Z</time>
      </trkpt>
      <trkpt lat="43.13243700000011" lon="-1.2385070000000005">
        <ele>334.623</ele>
        <time>2022-08-24T06:53:14Z</time>
      </trkpt>
      <trkpt lat="43.13242300000011" lon="-1.2385210000000004">
        <ele>334.876</ele>
        <time>2022-08-24T06:53:15Z</time>
      </trkpt>
      <trkpt lat="43.13241100000011" lon="-1.2385360000000005">
        <ele>335.250</ele>
        <time>2022-08-24T06:53:16Z</time>
      </trkpt>
      <trkpt lat="43.13239900000011" lon="-1.2385480000000004">
        <ele>335.669</ele>
        <time>2022-08-24T06:53:17Z</time>
      </trkpt>
      <trkpt lat="43.13238500000011" lon="-1.2385570000000004">
        <ele>335.628</ele>
        <time>2022-08-24T06:53:18Z</time>
      </trkpt>
      <trkpt lat="43.132370000000115" lon="-1.2385670000000004">
        <ele>335.889</ele>
        <time>2022-08-24T06:53:19Z</time>
      </trkpt>
      <trkpt lat="43.13235500000012" lon="-1.2385770000000005">
        <ele>336.017</ele>
        <time>2022-08-24T06:53:20Z</time>
      </trkpt>
      <trkpt lat="43.13234000000012" lon="-1.2385890000000004">
        <ele>336.209</ele>
        <time>2022-08-24T06:53:21Z</time>
      </trkpt>
      <trkpt lat="43.13234000000012" lon="-1.2385890000000004">
        <ele>336.453</ele>
        <time>2022-08-24T06:53:22Z</time>
      </trkpt>
      <trkpt lat="43.13230700000012" lon="-1.2386190000000004">
        <ele>336.873</ele>
        <time>2022-08-24T06:53:23Z</time>
      </trkpt>
      <trkpt lat="43.13229000000012" lon="-1.2386360000000003">
        <ele>336.883</ele>
        <time>2022-08-24T06:53:24Z</time>
      </trkpt>
      <trkpt lat="43.13229000000012" lon="-1.2386360000000003">
        <ele>337.069</ele>
        <time>2022-08-24T06:53:25Z</time>
      </trkpt>
      <trkpt lat="43.132260000000116" lon="-1.2386680000000003">
        <ele>337.261</ele>
        <time>2022-08-24T06:53:26Z</time>
      </trkpt>
      <trkpt lat="43.13224500000012" lon="-1.2386830000000004">
        <ele>337.248</ele>
        <time>2022-08-24T06:53:27Z</time>
      </trkpt>
      <trkpt lat="43.132229000000116" lon="-1.2386970000000004">
        <ele>337.441</ele>
        <time>2022-08-24T06:53:28Z</time>
      </trkpt>
      <trkpt lat="43.13221400000012" lon="-1.2387110000000003">
        <ele>337.625</ele>
        <time>2022-08-24T06:53:29Z</time>
      </trkpt>
      <trkpt lat="43.13220000000012" lon="-1.2387230000000002">
        <ele>337.694</ele>
        <time>2022-08-24T06:53:30Z</time>
      </trkpt>
      <trkpt lat="43.13217800000012" lon="-1.2387390000000003">
        <ele>337.854</ele>
        <time>2022-08-24T06:53:31Z</time>
      </trkpt>
      <trkpt lat="43.132162000000115" lon="-1.2387540000000004">
        <ele>337.856</ele>
        <time>2022-08-24T06:53:32Z</time>
      </trkpt>
      <trkpt lat="43.13214900000011" lon="-1.2387670000000004">
        <ele>338.011</ele>
        <time>2022-08-24T06:53:33Z</time>
      </trkpt>
      <trkpt lat="43.13213300000011" lon="-1.2387860000000004">
        <ele>338.209</ele>
        <time>2022-08-24T06:53:34Z</time>
      </trkpt>
      <trkpt lat="43.13212000000011" lon="-1.2387990000000004">
        <ele>338.436</ele>
        <time>2022-08-24T06:53:35Z</time>
      </trkpt>
      <trkpt lat="43.132109000000106" lon="-1.2388110000000003">
        <ele>338.436</ele>
        <time>2022-08-24T06:53:36Z</time>
      </trkpt>
      <trkpt lat="43.132098000000106" lon="-1.2388260000000004">
        <ele>338.466</ele>
        <time>2022-08-24T06:53:37Z</time>
      </trkpt>
      <trkpt lat="43.132084000000106" lon="-1.2388390000000005">
        <ele>338.642</ele>
        <time>2022-08-24T06:53:38Z</time>
      </trkpt>
      <trkpt lat="43.132070000000105" lon="-1.2388510000000004">
        <ele>338.684</ele>
        <time>2022-08-24T06:53:39Z</time>
      </trkpt>
      <trkpt lat="43.13205500000011" lon="-1.2388670000000004">
        <ele>338.851</ele>
        <time>2022-08-24T06:53:40Z</time>
      </trkpt>
      <trkpt lat="43.13204100000011" lon="-1.2388850000000005">
        <ele>338.874</ele>
        <time>2022-08-24T06:53:41Z</time>
      </trkpt>
      <trkpt lat="43.13203000000011" lon="-1.2389040000000004">
        <ele>339.028</ele>
        <time>2022-08-24T06:53:42Z</time>
      </trkpt>
      <trkpt lat="43.132020000000104" lon="-1.2389230000000004">
        <ele>339.047</ele>
        <time>2022-08-24T06:53:43Z</time>
      </trkpt>
      <trkpt lat="43.1320070000001" lon="-1.2389420000000004">
        <ele>339.028</ele>
        <time>2022-08-24T06:53:44Z</time>
      </trkpt>
      <trkpt lat="43.1320070000001" lon="-1.2389420000000004">
        <ele>339.289</ele>
        <time>2022-08-24T06:53:45Z</time>
      </trkpt>
      <trkpt lat="43.1319800000001" lon="-1.2389770000000004">
        <ele>339.217</ele>
        <time>2022-08-24T06:53:46Z</time>
      </trkpt>
      <trkpt lat="43.1319620000001" lon="-1.2389920000000005">
        <ele>339.209</ele>
        <time>2022-08-24T06:53:47Z</time>
      </trkpt>
      <trkpt lat="43.131944000000104" lon="-1.2390100000000006">
        <ele>339.443</ele>
        <time>2022-08-24T06:53:48Z</time>
      </trkpt>
      <trkpt lat="43.131927000000104" lon="-1.2390270000000005">
        <ele>339.463</ele>
        <time>2022-08-24T06:53:49Z</time>
      </trkpt>
      <trkpt lat="43.1319110000001" lon="-1.2390450000000006">
        <ele>339.683</ele>
        <time>2022-08-24T06:53:50Z</time>
      </trkpt>
      <trkpt lat="43.1318910000001" lon="-1.2390630000000007">
        <ele>339.669</ele>
        <time>2022-08-24T06:53:51Z</time>
      </trkpt>
      <trkpt lat="43.1318690000001" lon="-1.2390790000000007">
        <ele>339.681</ele>
        <time>2022-08-24T06:53:52Z</time>
      </trkpt>
      <trkpt lat="43.131848000000105" lon="-1.2390930000000007">
        <ele>339.868</ele>
        <time>2022-08-24T06:53:53Z</time>
      </trkpt>
      <trkpt lat="43.131825000000106" lon="-1.2391070000000006">
        <ele>339.871</ele>
        <time>2022-08-24T06:53:54Z</time>
      </trkpt>
      <trkpt lat="43.13180200000011" lon="-1.2391180000000006">
        <ele>339.875</ele>
        <time>2022-08-24T06:53:55Z</time>
      </trkpt>
      <trkpt lat="43.131780000000106" lon="-1.2391300000000005">
        <ele>339.814</ele>
        <time>2022-08-24T06:53:56Z</time>
      </trkpt>
      <trkpt lat="43.131758000000104" lon="-1.2391380000000005">
        <ele>339.827</ele>
        <time>2022-08-24T06:53:57Z</time>
      </trkpt>
      <trkpt lat="43.131758000000104" lon="-1.2391380000000005">
        <ele>339.868</ele>
        <time>2022-08-24T06:53:58Z</time>
      </trkpt>
      <trkpt lat="43.13157700000011" lon="-1.2392330000000005">
        <ele>340.014</ele>
        <time>2022-08-24T06:54:04Z</time>
      </trkpt>
      <trkpt lat="43.13157700000011" lon="-1.2392330000000005">
        <ele>340.009</ele>
        <time>2022-08-24T06:54:05Z</time>
      </trkpt>
      <trkpt lat="43.13152500000011" lon="-1.2392570000000005">
        <ele>340.033</ele>
        <time>2022-08-24T06:54:06Z</time>
      </trkpt>
      <trkpt lat="43.13150000000011" lon="-1.2392710000000005">
        <ele>340.063</ele>
        <time>2022-08-24T06:54:07Z</time>
      </trkpt>
      <trkpt lat="43.13147700000011" lon="-1.2392870000000005">
        <ele>340.063</ele>
        <time>2022-08-24T06:54:08Z</time>
      </trkpt>
      <trkpt lat="43.13145200000011" lon="-1.2393060000000005">
        <ele>340.239</ele>
        <time>2022-08-24T06:54:10Z</time>
      </trkpt>
      <trkpt lat="43.13136300000011" lon="-1.2393820000000004">
        <ele>340.281</ele>
        <time>2022-08-24T06:54:13Z</time>
      </trkpt>
      <trkpt lat="43.131341000000106" lon="-1.2394010000000004">
        <ele>340.228</ele>
        <time>2022-08-24T06:54:14Z</time>
      </trkpt>
      <trkpt lat="43.13132000000011" lon="-1.2394260000000004">
        <ele>340.241</ele>
        <time>2022-08-24T06:54:15Z</time>
      </trkpt>
      <trkpt lat="43.13121400000011" lon="-1.2395730000000003">
        <ele>340.665</ele>
        <time>2022-08-24T06:54:21Z</time>
      </trkpt>
      <trkpt lat="43.13117700000011" lon="-1.2396300000000002">
        <ele>340.634</ele>
        <time>2022-08-24T06:54:22Z</time>
      </trkpt>
      <trkpt lat="43.13111700000011" lon="-1.2397170000000002">
        <ele>340.823</ele>
        <time>2022-08-24T06:54:25Z</time>
      </trkpt>
      <trkpt lat="43.13109900000011" lon="-1.239745">
        <ele>341.083</ele>
        <time>2022-08-24T06:54:26Z</time>
      </trkpt>
      <trkpt lat="43.13108200000011" lon="-1.239776">
        <ele>341.211</ele>
        <time>2022-08-24T06:54:27Z</time>
      </trkpt>
      <trkpt lat="43.131064000000116" lon="-1.23981">
        <ele>341.209</ele>
        <time>2022-08-24T06:54:28Z</time>
      </trkpt>
      <trkpt lat="43.13105100000011" lon="-1.239829">
        <ele>341.473</ele>
        <time>2022-08-24T06:54:29Z</time>
      </trkpt>
      <trkpt lat="43.13103700000011" lon="-1.239853">
        <ele>341.453</ele>
        <time>2022-08-24T06:54:30Z</time>
      </trkpt>
      <trkpt lat="43.13102400000011" lon="-1.2398770000000001">
        <ele>341.453</ele>
        <time>2022-08-24T06:54:31Z</time>
      </trkpt>
      <trkpt lat="43.13101300000011" lon="-1.2399000000000002">
        <ele>341.659</ele>
        <time>2022-08-24T06:54:32Z</time>
      </trkpt>
      <trkpt lat="43.13099900000011" lon="-1.2399220000000002">
        <ele>341.821</ele>
        <time>2022-08-24T06:54:33Z</time>
      </trkpt>
      <trkpt lat="43.13098300000011" lon="-1.2399450000000003">
        <ele>341.858</ele>
        <time>2022-08-24T06:54:34Z</time>
      </trkpt>
      <trkpt lat="43.130956000000104" lon="-1.2399830000000003">
        <ele>342.211</ele>
        <time>2022-08-24T06:54:36Z</time>
      </trkpt>
      <trkpt lat="43.130944000000106" lon="-1.2400070000000003">
        <ele>342.485</ele>
        <time>2022-08-24T06:54:37Z</time>
      </trkpt>
      <trkpt lat="43.1309030000001" lon="-1.2400730000000002">
        <ele>342.824</ele>
        <time>2022-08-24T06:54:40Z</time>
      </trkpt>
      <trkpt lat="43.1308560000001" lon="-1.240139">
        <ele>343.082</ele>
        <time>2022-08-24T06:54:43Z</time>
      </trkpt>
      <trkpt lat="43.1308120000001" lon="-1.24021">
        <ele>343.243</ele>
        <time>2022-08-24T06:54:46Z</time>
      </trkpt>
      <trkpt lat="43.1307970000001" lon="-1.240234">
        <ele>343.217</ele>
        <time>2022-08-24T06:54:47Z</time>
      </trkpt>
      <trkpt lat="43.1307840000001" lon="-1.240261">
        <ele>343.409</ele>
        <time>2022-08-24T06:54:48Z</time>
      </trkpt>
      <trkpt lat="43.1307720000001" lon="-1.240288">
        <ele>343.449</ele>
        <time>2022-08-24T06:54:49Z</time>
      </trkpt>
      <trkpt lat="43.1307630000001" lon="-1.240316">
        <ele>343.669</ele>
        <time>2022-08-24T06:54:50Z</time>
      </trkpt>
      <trkpt lat="43.1307550000001" lon="-1.240342">
        <ele>343.679</ele>
        <time>2022-08-24T06:54:51Z</time>
      </trkpt>
      <trkpt lat="43.1307450000001" lon="-1.240369">
        <ele>343.665</ele>
        <time>2022-08-24T06:54:52Z</time>
      </trkpt>
      <trkpt lat="43.130737000000096" lon="-1.240397">
        <ele>343.647</ele>
        <time>2022-08-24T06:54:53Z</time>
      </trkpt>
      <trkpt lat="43.1307160000001" lon="-1.240484">
        <ele>343.874</ele>
        <time>2022-08-24T06:54:56Z</time>
      </trkpt>
      <trkpt lat="43.1307100000001" lon="-1.24051">
        <ele>343.817</ele>
        <time>2022-08-24T06:54:57Z</time>
      </trkpt>
      <trkpt lat="43.1307030000001" lon="-1.240537">
        <ele>343.861</ele>
        <time>2022-08-24T06:54:58Z</time>
      </trkpt>
      <trkpt lat="43.13069900000011" lon="-1.240562">
        <ele>343.860</ele>
        <time>2022-08-24T06:54:59Z</time>
      </trkpt>
      <trkpt lat="43.13069300000011" lon="-1.240588">
        <ele>343.893</ele>
        <time>2022-08-24T06:55:00Z</time>
      </trkpt>
      <trkpt lat="43.13068700000011" lon="-1.240613">
        <ele>344.065</ele>
        <time>2022-08-24T06:55:01Z</time>
      </trkpt>
      <trkpt lat="43.13068000000011" lon="-1.240639">
        <ele>344.021</ele>
        <time>2022-08-24T06:55:02Z</time>
      </trkpt>
      <trkpt lat="43.13067400000011" lon="-1.240663">
        <ele>344.209</ele>
        <time>2022-08-24T06:55:03Z</time>
      </trkpt>
      <trkpt lat="43.13067400000011" lon="-1.240663">
        <ele>344.240</ele>
        <time>2022-08-24T06:55:04Z</time>
      </trkpt>
      <trkpt lat="43.13065800000011" lon="-1.240712">
        <ele>344.470</ele>
        <time>2022-08-24T06:55:05Z</time>
      </trkpt>
      <trkpt lat="43.13064300000011" lon="-1.24076">
        <ele>344.470</ele>
        <time>2022-08-24T06:55:07Z</time>
      </trkpt>
      <trkpt lat="43.130637000000114" lon="-1.240779">
        <ele>344.696</ele>
        <time>2022-08-24T06:55:08Z</time>
      </trkpt>
      <trkpt lat="43.13063300000012" lon="-1.2407970000000001">
        <ele>344.868</ele>
        <time>2022-08-24T06:55:09Z</time>
      </trkpt>
      <trkpt lat="43.130628000000115" lon="-1.2408150000000002">
        <ele>345.075</ele>
        <time>2022-08-24T06:55:10Z</time>
      </trkpt>
      <trkpt lat="43.130623000000114" lon="-1.2408320000000002">
        <ele>345.028</ele>
        <time>2022-08-24T06:55:11Z</time>
      </trkpt>
      <trkpt lat="43.13061800000011" lon="-1.2408640000000002">
        <ele>345.412</ele>
        <time>2022-08-24T06:55:13Z</time>
      </trkpt>
      <trkpt lat="43.13061200000011" lon="-1.2408830000000002">
        <ele>345.661</ele>
        <time>2022-08-24T06:55:14Z</time>
      </trkpt>
      <trkpt lat="43.130606000000114" lon="-1.2409040000000002">
        <ele>345.885</ele>
        <time>2022-08-24T06:55:15Z</time>
      </trkpt>
      <trkpt lat="43.130591000000116" lon="-1.2409410000000003">
        <ele>346.689</ele>
        <time>2022-08-24T06:55:17Z</time>
      </trkpt>
      <trkpt lat="43.13058100000011" lon="-1.2409580000000002">
        <ele>347.017</ele>
        <time>2022-08-24T06:55:18Z</time>
      </trkpt>
      <trkpt lat="43.13057400000012" lon="-1.2409760000000003">
        <ele>347.409</ele>
        <time>2022-08-24T06:55:19Z</time>
      </trkpt>
      <trkpt lat="43.13056700000012" lon="-1.2409890000000003">
        <ele>347.629</ele>
        <time>2022-08-24T06:55:20Z</time>
      </trkpt>
      <trkpt lat="43.13055600000012" lon="-1.2410060000000003">
        <ele>348.059</ele>
        <time>2022-08-24T06:55:21Z</time>
      </trkpt>
      <trkpt lat="43.13054500000012" lon="-1.2410220000000003">
        <ele>348.049</ele>
        <time>2022-08-24T06:55:22Z</time>
      </trkpt>
      <trkpt lat="43.13053400000012" lon="-1.2410360000000003">
        <ele>348.415</ele>
        <time>2022-08-24T06:55:23Z</time>
      </trkpt>
      <trkpt lat="43.130524000000115" lon="-1.2410520000000003">
        <ele>348.637</ele>
        <time>2022-08-24T06:55:24Z</time>
      </trkpt>
      <trkpt lat="43.130515000000116" lon="-1.2410700000000003">
        <ele>349.094</ele>
        <time>2022-08-24T06:55:25Z</time>
      </trkpt>
      <trkpt lat="43.13050500000011" lon="-1.2410860000000004">
        <ele>349.457</ele>
        <time>2022-08-24T06:55:26Z</time>
      </trkpt>
      <trkpt lat="43.13050500000011" lon="-1.2410860000000004">
        <ele>349.621</ele>
        <time>2022-08-24T06:55:27Z</time>
      </trkpt>
      <trkpt lat="43.130484000000116" lon="-1.2411180000000004">
        <ele>349.830</ele>
        <time>2022-08-24T06:55:28Z</time>
      </trkpt>
      <trkpt lat="43.13047400000011" lon="-1.2411350000000003">
        <ele>350.072</ele>
        <time>2022-08-24T06:55:29Z</time>
      </trkpt>
      <trkpt lat="43.13046400000011" lon="-1.2411490000000003">
        <ele>350.413</ele>
        <time>2022-08-24T06:55:30Z</time>
      </trkpt>
      <trkpt lat="43.13045600000011" lon="-1.2411650000000003">
        <ele>350.414</ele>
        <time>2022-08-24T06:55:31Z</time>
      </trkpt>
      <trkpt lat="43.13044700000011" lon="-1.2411810000000003">
        <ele>350.809</ele>
        <time>2022-08-24T06:55:32Z</time>
      </trkpt>
      <trkpt lat="43.13043500000011" lon="-1.2411970000000003">
        <ele>351.288</ele>
        <time>2022-08-24T06:55:33Z</time>
      </trkpt>
      <trkpt lat="43.13042100000011" lon="-1.2412140000000003">
        <ele>351.488</ele>
        <time>2022-08-24T06:55:34Z</time>
      </trkpt>
      <trkpt lat="43.13040500000011" lon="-1.2412330000000003">
        <ele>351.628</ele>
        <time>2022-08-24T06:55:35Z</time>
      </trkpt>
      <trkpt lat="43.13038800000011" lon="-1.2412510000000003">
        <ele>351.864</ele>
        <time>2022-08-24T06:55:36Z</time>
      </trkpt>
      <trkpt lat="43.13036600000011" lon="-1.2412700000000003">
        <ele>351.886</ele>
        <time>2022-08-24T06:55:37Z</time>
      </trkpt>
      <trkpt lat="43.13034300000011" lon="-1.2412900000000002">
        <ele>351.893</ele>
        <time>2022-08-24T06:55:38Z</time>
      </trkpt>
      <trkpt lat="43.13031900000011" lon="-1.2413140000000003">
        <ele>352.036</ele>
        <time>2022-08-24T06:55:39Z</time>
      </trkpt>
      <trkpt lat="43.1302950000001" lon="-1.2413370000000004">
        <ele>352.250</ele>
        <time>2022-08-24T06:55:40Z</time>
      </trkpt>
      <trkpt lat="43.130269000000105" lon="-1.2413580000000004">
        <ele>352.289</ele>
        <time>2022-08-24T06:55:41Z</time>
      </trkpt>
      <trkpt lat="43.1302420000001" lon="-1.2413790000000005">
        <ele>352.247</ele>
        <time>2022-08-24T06:55:42Z</time>
      </trkpt>
      <trkpt lat="43.1302150000001" lon="-1.2414000000000005">
        <ele>352.229</ele>
        <time>2022-08-24T06:55:43Z</time>
      </trkpt>
      <trkpt lat="43.130188000000096" lon="-1.2414200000000004">
        <ele>352.021</ele>
        <time>2022-08-24T06:55:44Z</time>
      </trkpt>
      <trkpt lat="43.130160000000096" lon="-1.2414410000000005">
        <ele>351.809</ele>
        <time>2022-08-24T06:55:45Z</time>
      </trkpt>
      <trkpt lat="43.130135000000095" lon="-1.2414610000000004">
        <ele>351.835</ele>
        <time>2022-08-24T06:55:46Z</time>
      </trkpt>
      <trkpt lat="43.13011100000009" lon="-1.2414790000000004">
        <ele>351.865</ele>
        <time>2022-08-24T06:55:47Z</time>
      </trkpt>
      <trkpt lat="43.13008900000009" lon="-1.2415000000000005">
        <ele>351.865</ele>
        <time>2022-08-24T06:55:48Z</time>
      </trkpt>
      <trkpt lat="43.13006600000009" lon="-1.2415190000000005">
        <ele>351.831</ele>
        <time>2022-08-24T06:55:49Z</time>
      </trkpt>
      <trkpt lat="43.130045000000095" lon="-1.2415330000000004">
        <ele>351.833</ele>
        <time>2022-08-24T06:55:50Z</time>
      </trkpt>
      <trkpt lat="43.13002600000009" lon="-1.2415440000000004">
        <ele>351.820</ele>
        <time>2022-08-24T06:55:51Z</time>
      </trkpt>
      <trkpt lat="43.13000900000009" lon="-1.2415520000000004">
        <ele>351.853</ele>
        <time>2022-08-24T06:55:52Z</time>
      </trkpt>
      <trkpt lat="43.129992000000094" lon="-1.2415590000000005">
        <ele>351.847</ele>
        <time>2022-08-24T06:55:53Z</time>
      </trkpt>
      <trkpt lat="43.129975000000094" lon="-1.2415730000000005">
        <ele>351.856</ele>
        <time>2022-08-24T06:55:54Z</time>
      </trkpt>
      <trkpt lat="43.12996200000009" lon="-1.2415930000000004">
        <ele>351.855</ele>
        <time>2022-08-24T06:55:55Z</time>
      </trkpt>
      <trkpt lat="43.12990800000009" lon="-1.2416450000000003">
        <ele>351.807</ele>
        <time>2022-08-24T06:55:58Z</time>
      </trkpt>
      <trkpt lat="43.12989100000009" lon="-1.2416580000000004">
        <ele>351.817</ele>
        <time>2022-08-24T06:55:59Z</time>
      </trkpt>
      <trkpt lat="43.129876000000095" lon="-1.2416730000000005">
        <ele>351.809</ele>
        <time>2022-08-24T06:56:00Z</time>
      </trkpt>
      <trkpt lat="43.1298610000001" lon="-1.2416880000000006">
        <ele>351.886</ele>
        <time>2022-08-24T06:56:01Z</time>
      </trkpt>
      <trkpt lat="43.1298460000001" lon="-1.2417040000000006">
        <ele>351.886</ele>
        <time>2022-08-24T06:56:02Z</time>
      </trkpt>
      <trkpt lat="43.1298040000001" lon="-1.2417660000000006">
        <ele>352.086</ele>
        <time>2022-08-24T06:56:05Z</time>
      </trkpt>
      <trkpt lat="43.1297760000001" lon="-1.2418070000000005">
        <ele>352.052</ele>
        <time>2022-08-24T06:56:07Z</time>
      </trkpt>
      <trkpt lat="43.1297340000001" lon="-1.2419000000000004">
        <ele>352.074</ele>
        <time>2022-08-24T06:56:11Z</time>
      </trkpt>
      <trkpt lat="43.1297260000001" lon="-1.2419220000000004">
        <ele>352.061</ele>
        <time>2022-08-24T06:56:12Z</time>
      </trkpt>
      <trkpt lat="43.1297190000001" lon="-1.2419430000000005">
        <ele>352.074</ele>
        <time>2022-08-24T06:56:13Z</time>
      </trkpt>
      <trkpt lat="43.1297130000001" lon="-1.2419650000000004">
        <ele>352.088</ele>
        <time>2022-08-24T06:56:14Z</time>
      </trkpt>
      <trkpt lat="43.1297050000001" lon="-1.2419870000000004">
        <ele>352.057</ele>
        <time>2022-08-24T06:56:15Z</time>
      </trkpt>
      <trkpt lat="43.1296970000001" lon="-1.2420060000000004">
        <ele>352.245</ele>
        <time>2022-08-24T06:56:16Z</time>
      </trkpt>
      <trkpt lat="43.1296710000001" lon="-1.2420670000000005">
        <ele>352.247</ele>
        <time>2022-08-24T06:56:19Z</time>
      </trkpt>
      <trkpt lat="43.1296630000001" lon="-1.2420840000000004">
        <ele>352.211</ele>
        <time>2022-08-24T06:56:20Z</time>
      </trkpt>
      <trkpt lat="43.1296480000001" lon="-1.2421240000000004">
        <ele>352.409</ele>
        <time>2022-08-24T06:56:22Z</time>
      </trkpt>
      <trkpt lat="43.129641000000106" lon="-1.2421450000000005">
        <ele>352.425</ele>
        <time>2022-08-24T06:56:23Z</time>
      </trkpt>
      <trkpt lat="43.1296140000001" lon="-1.2422080000000004">
        <ele>352.885</ele>
        <time>2022-08-24T06:56:26Z</time>
      </trkpt>
      <trkpt lat="43.1295870000001" lon="-1.2423010000000003">
        <ele>353.215</ele>
        <time>2022-08-24T06:56:30Z</time>
      </trkpt>
      <trkpt lat="43.1295820000001" lon="-1.2423240000000004">
        <ele>353.421</ele>
        <time>2022-08-24T06:56:31Z</time>
      </trkpt>
      <trkpt lat="43.1295760000001" lon="-1.2423470000000005">
        <ele>353.673</ele>
        <time>2022-08-24T06:56:32Z</time>
      </trkpt>
      <trkpt lat="43.1295690000001" lon="-1.2423690000000005">
        <ele>354.010</ele>
        <time>2022-08-24T06:56:33Z</time>
      </trkpt>
      <trkpt lat="43.1295590000001" lon="-1.2424100000000005">
        <ele>354.453</ele>
        <time>2022-08-24T06:56:36Z</time>
      </trkpt>
      <trkpt lat="43.1295540000001" lon="-1.2424500000000005">
        <ele>354.827</ele>
        <time>2022-08-24T06:56:37Z</time>
      </trkpt>
      <trkpt lat="43.1295310000001" lon="-1.2425320000000004">
        <ele>356.036</ele>
        <time>2022-08-24T06:56:41Z</time>
      </trkpt>
      <trkpt lat="43.1295280000001" lon="-1.2425510000000004">
        <ele>356.442</ele>
        <time>2022-08-24T06:56:42Z</time>
      </trkpt>
      <trkpt lat="43.1295230000001" lon="-1.2425670000000004">
        <ele>356.422</ele>
        <time>2022-08-24T06:56:43Z</time>
      </trkpt>
      <trkpt lat="43.1295150000001" lon="-1.2425820000000005">
        <ele>356.814</ele>
        <time>2022-08-24T06:56:44Z</time>
      </trkpt>
      <trkpt lat="43.1295090000001" lon="-1.2425980000000005">
        <ele>357.009</ele>
        <time>2022-08-24T06:56:45Z</time>
      </trkpt>
      <trkpt lat="43.1295030000001" lon="-1.2426170000000005">
        <ele>357.275</ele>
        <time>2022-08-24T06:56:46Z</time>
      </trkpt>
      <trkpt lat="43.1294980000001" lon="-1.2426360000000005">
        <ele>357.685</ele>
        <time>2022-08-24T06:56:47Z</time>
      </trkpt>
      <trkpt lat="43.1294950000001" lon="-1.2426550000000005">
        <ele>357.825</ele>
        <time>2022-08-24T06:56:48Z</time>
      </trkpt>
      <trkpt lat="43.129493000000096" lon="-1.2426720000000004">
        <ele>358.221</ele>
        <time>2022-08-24T06:56:49Z</time>
      </trkpt>
      <trkpt lat="43.129493000000096" lon="-1.2426870000000005">
        <ele>358.453</ele>
        <time>2022-08-24T06:56:50Z</time>
      </trkpt>
      <trkpt lat="43.129493000000096" lon="-1.2427020000000006">
        <ele>358.840</ele>
        <time>2022-08-24T06:56:51Z</time>
      </trkpt>
      <trkpt lat="43.1294900000001" lon="-1.2427170000000007">
        <ele>358.823</ele>
        <time>2022-08-24T06:56:52Z</time>
      </trkpt>
      <trkpt lat="43.1294890000001" lon="-1.2427330000000008">
        <ele>359.487</ele>
        <time>2022-08-24T06:56:53Z</time>
      </trkpt>
      <trkpt lat="43.1294890000001" lon="-1.2427500000000007">
        <ele>359.866</ele>
        <time>2022-08-24T06:56:54Z</time>
      </trkpt>
      <trkpt lat="43.1294890000001" lon="-1.2427500000000007">
        <ele>360.049</ele>
        <time>2022-08-24T06:56:55Z</time>
      </trkpt>
      <trkpt lat="43.1294860000001" lon="-1.2427850000000007">
        <ele>360.202</ele>
        <time>2022-08-24T06:56:56Z</time>
      </trkpt>
      <trkpt lat="43.1294850000001" lon="-1.2428020000000006">
        <ele>360.422</ele>
        <time>2022-08-24T06:56:57Z</time>
      </trkpt>
      <trkpt lat="43.1294850000001" lon="-1.2428190000000006">
        <ele>360.809</ele>
        <time>2022-08-24T06:56:58Z</time>
      </trkpt>
      <trkpt lat="43.1294830000001" lon="-1.2428350000000006">
        <ele>361.035</ele>
        <time>2022-08-24T06:56:59Z</time>
      </trkpt>
      <trkpt lat="43.1294790000001" lon="-1.2428530000000007">
        <ele>361.265</ele>
        <time>2022-08-24T06:57:00Z</time>
      </trkpt>
      <trkpt lat="43.129478000000105" lon="-1.2428690000000007">
        <ele>361.255</ele>
        <time>2022-08-24T06:57:01Z</time>
      </trkpt>
      <trkpt lat="43.129478000000105" lon="-1.2428850000000007">
        <ele>361.611</ele>
        <time>2022-08-24T06:57:02Z</time>
      </trkpt>
      <trkpt lat="43.129478000000105" lon="-1.2429000000000008">
        <ele>362.083</ele>
        <time>2022-08-24T06:57:03Z</time>
      </trkpt>
      <trkpt lat="43.1294790000001" lon="-1.2429140000000007">
        <ele>362.250</ele>
        <time>2022-08-24T06:57:04Z</time>
      </trkpt>
      <trkpt lat="43.1294820000001" lon="-1.2429260000000006">
        <ele>362.493</ele>
        <time>2022-08-24T06:57:05Z</time>
      </trkpt>
      <trkpt lat="43.1294830000001" lon="-1.2429400000000006">
        <ele>362.617</ele>
        <time>2022-08-24T06:57:06Z</time>
      </trkpt>
      <trkpt lat="43.1294800000001" lon="-1.2429540000000006">
        <ele>363.096</ele>
        <time>2022-08-24T06:57:07Z</time>
      </trkpt>
      <trkpt lat="43.1294810000001" lon="-1.2429700000000006">
        <ele>363.098</ele>
        <time>2022-08-24T06:57:08Z</time>
      </trkpt>
      <trkpt lat="43.1294830000001" lon="-1.2429830000000006">
        <ele>363.415</ele>
        <time>2022-08-24T06:57:09Z</time>
      </trkpt>
      <trkpt lat="43.1294860000001" lon="-1.2429920000000005">
        <ele>363.626</ele>
        <time>2022-08-24T06:57:10Z</time>
      </trkpt>
      <trkpt lat="43.1294910000001" lon="-1.2430050000000006">
        <ele>363.809</ele>
        <time>2022-08-24T06:57:11Z</time>
      </trkpt>
      <trkpt lat="43.1294970000001" lon="-1.2430230000000007">
        <ele>364.080</ele>
        <time>2022-08-24T06:57:12Z</time>
      </trkpt>
      <trkpt lat="43.1295010000001" lon="-1.2430410000000007">
        <ele>364.240</ele>
        <time>2022-08-24T06:57:13Z</time>
      </trkpt>
      <trkpt lat="43.1295010000001" lon="-1.2430580000000007">
        <ele>364.420</ele>
        <time>2022-08-24T06:57:14Z</time>
      </trkpt>
      <trkpt lat="43.1295010000001" lon="-1.2430750000000006">
        <ele>364.616</ele>
        <time>2022-08-24T06:57:15Z</time>
      </trkpt>
      <trkpt lat="43.1295040000001" lon="-1.2430900000000007">
        <ele>364.858</ele>
        <time>2022-08-24T06:57:16Z</time>
      </trkpt>
      <trkpt lat="43.1295090000001" lon="-1.2431050000000008">
        <ele>365.025</ele>
        <time>2022-08-24T06:57:17Z</time>
      </trkpt>
      <trkpt lat="43.1295150000001" lon="-1.2431220000000007">
        <ele>365.088</ele>
        <time>2022-08-24T06:57:18Z</time>
      </trkpt>
      <trkpt lat="43.129519000000094" lon="-1.2431380000000007">
        <ele>365.432</ele>
        <time>2022-08-24T06:57:19Z</time>
      </trkpt>
      <trkpt lat="43.129521000000096" lon="-1.2431550000000007">
        <ele>365.641</ele>
        <time>2022-08-24T06:57:20Z</time>
      </trkpt>
      <trkpt lat="43.129524000000096" lon="-1.2431750000000006">
        <ele>366.055</ele>
        <time>2022-08-24T06:57:21Z</time>
      </trkpt>
      <trkpt lat="43.12952800000009" lon="-1.2431950000000005">
        <ele>366.207</ele>
        <time>2022-08-24T06:57:22Z</time>
      </trkpt>
      <trkpt lat="43.12953200000009" lon="-1.2432100000000006">
        <ele>366.417</ele>
        <time>2022-08-24T06:57:23Z</time>
      </trkpt>
      <trkpt lat="43.12953200000009" lon="-1.2432100000000006">
        <ele>366.809</ele>
        <time>2022-08-24T06:57:24Z</time>
      </trkpt>
      <trkpt lat="43.12954300000009" lon="-1.2432380000000005">
        <ele>367.076</ele>
        <time>2022-08-24T06:57:25Z</time>
      </trkpt>
      <trkpt lat="43.12955000000009" lon="-1.2432520000000005">
        <ele>367.426</ele>
        <time>2022-08-24T06:57:26Z</time>
      </trkpt>
      <trkpt lat="43.129557000000084" lon="-1.2432680000000005">
        <ele>367.696</ele>
        <time>2022-08-24T06:57:27Z</time>
      </trkpt>
      <trkpt lat="43.129562000000085" lon="-1.2432840000000005">
        <ele>367.892</ele>
        <time>2022-08-24T06:57:28Z</time>
      </trkpt>
      <trkpt lat="43.12956400000009" lon="-1.2433010000000004">
        <ele>368.034</ele>
        <time>2022-08-24T06:57:29Z</time>
      </trkpt>
      <trkpt lat="43.12956700000009" lon="-1.2433170000000004">
        <ele>368.241</ele>
        <time>2022-08-24T06:57:30Z</time>
      </trkpt>
      <trkpt lat="43.129571000000084" lon="-1.2433350000000005">
        <ele>368.624</ele>
        <time>2022-08-24T06:57:31Z</time>
      </trkpt>
      <trkpt lat="43.129576000000085" lon="-1.2433540000000005">
        <ele>368.868</ele>
        <time>2022-08-24T06:57:32Z</time>
      </trkpt>
      <trkpt lat="43.12958000000008" lon="-1.2433750000000006">
        <ele>369.247</ele>
        <time>2022-08-24T06:57:33Z</time>
      </trkpt>
      <trkpt lat="43.12958600000008" lon="-1.2433910000000006">
        <ele>369.222</ele>
        <time>2022-08-24T06:57:34Z</time>
      </trkpt>
      <trkpt lat="43.12959000000008" lon="-1.2434080000000005">
        <ele>369.662</ele>
        <time>2022-08-24T06:57:35Z</time>
      </trkpt>
      <trkpt lat="43.12959800000008" lon="-1.2434230000000006">
        <ele>369.608</ele>
        <time>2022-08-24T06:57:36Z</time>
      </trkpt>
      <trkpt lat="43.12960800000008" lon="-1.2434370000000006">
        <ele>370.009</ele>
        <time>2022-08-24T06:57:37Z</time>
      </trkpt>
      <trkpt lat="43.12961700000008" lon="-1.2434510000000005">
        <ele>370.243</ele>
        <time>2022-08-24T06:57:38Z</time>
      </trkpt>
      <trkpt lat="43.129627000000085" lon="-1.2434680000000005">
        <ele>370.643</ele>
        <time>2022-08-24T06:57:39Z</time>
      </trkpt>
      <trkpt lat="43.129632000000086" lon="-1.2434830000000006">
        <ele>371.013</ele>
        <time>2022-08-24T06:57:40Z</time>
      </trkpt>
      <trkpt lat="43.12963600000008" lon="-1.2434990000000006">
        <ele>371.229</ele>
        <time>2022-08-24T06:57:41Z</time>
      </trkpt>
      <trkpt lat="43.12964300000008" lon="-1.2435110000000005">
        <ele>371.481</ele>
        <time>2022-08-24T06:57:42Z</time>
      </trkpt>
      <trkpt lat="43.12964600000008" lon="-1.2435290000000006">
        <ele>371.698</ele>
        <time>2022-08-24T06:57:43Z</time>
      </trkpt>
      <trkpt lat="43.12965100000008" lon="-1.2435450000000006">
        <ele>371.691</ele>
        <time>2022-08-24T06:57:44Z</time>
      </trkpt>
      <trkpt lat="43.12965800000008" lon="-1.2435600000000007">
        <ele>371.875</ele>
        <time>2022-08-24T06:57:45Z</time>
      </trkpt>
      <trkpt lat="43.12966300000008" lon="-1.2435750000000008">
        <ele>371.844</ele>
        <time>2022-08-24T06:57:46Z</time>
      </trkpt>
      <trkpt lat="43.12967100000008" lon="-1.2435970000000007">
        <ele>372.244</ele>
        <time>2022-08-24T06:57:47Z</time>
      </trkpt>
      <trkpt lat="43.12967800000008" lon="-1.2436140000000007">
        <ele>372.205</ele>
        <time>2022-08-24T06:57:48Z</time>
      </trkpt>
      <trkpt lat="43.12967800000008" lon="-1.2436140000000007">
        <ele>372.615</ele>
        <time>2022-08-24T06:57:49Z</time>
      </trkpt>
      <trkpt lat="43.129690000000075" lon="-1.2436470000000006">
        <ele>372.809</ele>
        <time>2022-08-24T06:57:50Z</time>
      </trkpt>
      <trkpt lat="43.129693000000074" lon="-1.2436620000000007">
        <ele>373.045</ele>
        <time>2022-08-24T06:57:51Z</time>
      </trkpt>
      <trkpt lat="43.129695000000076" lon="-1.2436790000000006">
        <ele>373.035</ele>
        <time>2022-08-24T06:57:52Z</time>
      </trkpt>
      <trkpt lat="43.12970000000008" lon="-1.2436970000000007">
        <ele>373.465</ele>
        <time>2022-08-24T06:57:53Z</time>
      </trkpt>
      <trkpt lat="43.129707000000074" lon="-1.2437150000000008">
        <ele>373.621</ele>
        <time>2022-08-24T06:57:54Z</time>
      </trkpt>
      <trkpt lat="43.129715000000076" lon="-1.2437320000000007">
        <ele>373.893</ele>
        <time>2022-08-24T06:57:55Z</time>
      </trkpt>
      <trkpt lat="43.12972000000008" lon="-1.2437510000000007">
        <ele>374.080</ele>
        <time>2022-08-24T06:57:56Z</time>
      </trkpt>
      <trkpt lat="43.129724000000074" lon="-1.2437690000000008">
        <ele>374.023</ele>
        <time>2022-08-24T06:57:57Z</time>
      </trkpt>
      <trkpt lat="43.12973000000007" lon="-1.2437850000000008">
        <ele>374.287</ele>
        <time>2022-08-24T06:57:58Z</time>
      </trkpt>
      <trkpt lat="43.12973700000007" lon="-1.243800000000001">
        <ele>374.446</ele>
        <time>2022-08-24T06:57:59Z</time>
      </trkpt>
      <trkpt lat="43.12974600000007" lon="-1.2438120000000008">
        <ele>374.848</ele>
        <time>2022-08-24T06:58:00Z</time>
      </trkpt>
      <trkpt lat="43.12975600000007" lon="-1.2438250000000008">
        <ele>375.061</ele>
        <time>2022-08-24T06:58:01Z</time>
      </trkpt>
      <trkpt lat="43.12976400000007" lon="-1.243843000000001">
        <ele>375.217</ele>
        <time>2022-08-24T06:58:02Z</time>
      </trkpt>
      <trkpt lat="43.12976800000007" lon="-1.2438600000000009">
        <ele>375.409</ele>
        <time>2022-08-24T06:58:03Z</time>
      </trkpt>
      <trkpt lat="43.12977400000007" lon="-1.243878000000001">
        <ele>375.675</ele>
        <time>2022-08-24T06:58:04Z</time>
      </trkpt>
      <trkpt lat="43.12977600000007" lon="-1.2438980000000008">
        <ele>375.675</ele>
        <time>2022-08-24T06:58:05Z</time>
      </trkpt>
      <trkpt lat="43.12977600000007" lon="-1.2438980000000008">
        <ele>375.685</ele>
        <time>2022-08-24T06:58:06Z</time>
      </trkpt>
      <trkpt lat="43.12978400000007" lon="-1.243935000000001">
        <ele>375.841</ele>
        <time>2022-08-24T06:58:07Z</time>
      </trkpt>
      <trkpt lat="43.12979000000007" lon="-1.2439490000000009">
        <ele>376.023</ele>
        <time>2022-08-24T06:58:08Z</time>
      </trkpt>
      <trkpt lat="43.12979900000007" lon="-1.2439610000000008">
        <ele>376.270</ele>
        <time>2022-08-24T06:58:09Z</time>
      </trkpt>
      <trkpt lat="43.12980800000007" lon="-1.2439740000000008">
        <ele>376.263</ele>
        <time>2022-08-24T06:58:10Z</time>
      </trkpt>
      <trkpt lat="43.12981400000007" lon="-1.2439900000000008">
        <ele>376.257</ele>
        <time>2022-08-24T06:58:11Z</time>
      </trkpt>
      <trkpt lat="43.129820000000066" lon="-1.244005000000001">
        <ele>376.446</ele>
        <time>2022-08-24T06:58:12Z</time>
      </trkpt>
      <trkpt lat="43.129826000000065" lon="-1.2440220000000008">
        <ele>376.646</ele>
        <time>2022-08-24T06:58:13Z</time>
      </trkpt>
      <trkpt lat="43.12983300000006" lon="-1.2440380000000009">
        <ele>376.688</ele>
        <time>2022-08-24T06:58:14Z</time>
      </trkpt>
      <trkpt lat="43.12984100000006" lon="-1.244051000000001">
        <ele>376.816</ele>
        <time>2022-08-24T06:58:15Z</time>
      </trkpt>
      <trkpt lat="43.12985000000006" lon="-1.244066000000001">
        <ele>376.809</ele>
        <time>2022-08-24T06:58:16Z</time>
      </trkpt>
      <trkpt lat="43.12985500000006" lon="-1.244086000000001">
        <ele>376.835</ele>
        <time>2022-08-24T06:58:17Z</time>
      </trkpt>
      <trkpt lat="43.12986100000006" lon="-1.2441060000000008">
        <ele>376.875</ele>
        <time>2022-08-24T06:58:18Z</time>
      </trkpt>
      <trkpt lat="43.12986700000006" lon="-1.2441260000000007">
        <ele>377.035</ele>
        <time>2022-08-24T06:58:19Z</time>
      </trkpt>
      <trkpt lat="43.12987500000006" lon="-1.2441440000000008">
        <ele>377.261</ele>
        <time>2022-08-24T06:58:20Z</time>
      </trkpt>
      <trkpt lat="43.12988300000006" lon="-1.244159000000001">
        <ele>377.433</ele>
        <time>2022-08-24T06:58:21Z</time>
      </trkpt>
      <trkpt lat="43.129891000000065" lon="-1.244177000000001">
        <ele>377.430</ele>
        <time>2022-08-24T06:58:22Z</time>
      </trkpt>
      <trkpt lat="43.129897000000064" lon="-1.244195000000001">
        <ele>377.653</ele>
        <time>2022-08-24T06:58:23Z</time>
      </trkpt>
      <trkpt lat="43.12990300000006" lon="-1.2442130000000011">
        <ele>377.687</ele>
        <time>2022-08-24T06:58:24Z</time>
      </trkpt>
      <trkpt lat="43.12990700000006" lon="-1.2442310000000012">
        <ele>377.846</ele>
        <time>2022-08-24T06:58:25Z</time>
      </trkpt>
      <trkpt lat="43.129914000000056" lon="-1.2442460000000013">
        <ele>378.094</ele>
        <time>2022-08-24T06:58:26Z</time>
      </trkpt>
      <trkpt lat="43.12992100000005" lon="-1.2442630000000012">
        <ele>378.057</ele>
        <time>2022-08-24T06:58:27Z</time>
      </trkpt>
      <trkpt lat="43.12993000000005" lon="-1.2442760000000013">
        <ele>378.222</ele>
        <time>2022-08-24T06:58:28Z</time>
      </trkpt>
      <trkpt lat="43.129940000000055" lon="-1.2442900000000012">
        <ele>378.209</ele>
        <time>2022-08-24T06:58:29Z</time>
      </trkpt>
      <trkpt lat="43.12995200000005" lon="-1.2443050000000013">
        <ele>378.410</ele>
        <time>2022-08-24T06:58:30Z</time>
      </trkpt>
      <trkpt lat="43.12996300000005" lon="-1.2443240000000013">
        <ele>378.880</ele>
        <time>2022-08-24T06:58:31Z</time>
      </trkpt>
      <trkpt lat="43.12997200000005" lon="-1.2443470000000014">
        <ele>378.880</ele>
        <time>2022-08-24T06:58:32Z</time>
      </trkpt>
      <trkpt lat="43.12997900000005" lon="-1.2443710000000014">
        <ele>378.816</ele>
        <time>2022-08-24T06:58:33Z</time>
      </trkpt>
      <trkpt lat="43.12998500000005" lon="-1.2443960000000014">
        <ele>379.088</ele>
        <time>2022-08-24T06:58:34Z</time>
      </trkpt>
      <trkpt lat="43.12999300000005" lon="-1.2444170000000014">
        <ele>379.045</ele>
        <time>2022-08-24T06:58:35Z</time>
      </trkpt>
      <trkpt lat="43.13000400000005" lon="-1.2444380000000015">
        <ele>379.058</ele>
        <time>2022-08-24T06:58:36Z</time>
      </trkpt>
      <trkpt lat="43.13001600000005" lon="-1.2444550000000014">
        <ele>379.222</ele>
        <time>2022-08-24T06:58:37Z</time>
      </trkpt>
      <trkpt lat="43.13002700000005" lon="-1.2444730000000015">
        <ele>379.471</ele>
        <time>2022-08-24T06:58:38Z</time>
      </trkpt>
      <trkpt lat="43.13003700000005" lon="-1.2444920000000015">
        <ele>379.464</ele>
        <time>2022-08-24T06:58:39Z</time>
      </trkpt>
      <trkpt lat="43.13004600000005" lon="-1.2445100000000016">
        <ele>379.606</ele>
        <time>2022-08-24T06:58:40Z</time>
      </trkpt>
      <trkpt lat="43.130053000000046" lon="-1.2445290000000016">
        <ele>379.616</ele>
        <time>2022-08-24T06:58:41Z</time>
      </trkpt>
      <trkpt lat="43.13005700000004" lon="-1.2445480000000015">
        <ele>379.809</ele>
        <time>2022-08-24T06:58:42Z</time>
      </trkpt>
      <trkpt lat="43.13006400000004" lon="-1.2445650000000015">
        <ele>379.857</ele>
        <time>2022-08-24T06:58:43Z</time>
      </trkpt>
      <trkpt lat="43.13007100000004" lon="-1.2445810000000015">
        <ele>380.097</ele>
        <time>2022-08-24T06:58:44Z</time>
      </trkpt>
      <trkpt lat="43.13007800000003" lon="-1.2445940000000015">
        <ele>380.287</ele>
        <time>2022-08-24T06:58:45Z</time>
      </trkpt>
      <trkpt lat="43.13008500000003" lon="-1.2446070000000016">
        <ele>380.243</ele>
        <time>2022-08-24T06:58:46Z</time>
      </trkpt>
      <trkpt lat="43.13009300000003" lon="-1.2446230000000016">
        <ele>380.455</ele>
        <time>2022-08-24T06:58:47Z</time>
      </trkpt>
      <trkpt lat="43.13010000000003" lon="-1.2446350000000015">
        <ele>380.442</ele>
        <time>2022-08-24T06:58:48Z</time>
      </trkpt>
      <trkpt lat="43.130109000000026" lon="-1.2446480000000015">
        <ele>380.685</ele>
        <time>2022-08-24T06:58:49Z</time>
      </trkpt>
      <trkpt lat="43.13011600000002" lon="-1.2446660000000016">
        <ele>380.699</ele>
        <time>2022-08-24T06:58:50Z</time>
      </trkpt>
      <trkpt lat="43.13012300000002" lon="-1.2446830000000015">
        <ele>380.668</ele>
        <time>2022-08-24T06:58:51Z</time>
      </trkpt>
      <trkpt lat="43.13013300000002" lon="-1.2446970000000015">
        <ele>380.876</ele>
        <time>2022-08-24T06:58:52Z</time>
      </trkpt>
      <trkpt lat="43.130143000000025" lon="-1.2447110000000015">
        <ele>381.090</ele>
        <time>2022-08-24T06:58:53Z</time>
      </trkpt>
      <trkpt lat="43.130152000000024" lon="-1.2447240000000015">
        <ele>381.019</ele>
        <time>2022-08-24T06:58:54Z</time>
      </trkpt>
      <trkpt lat="43.13016200000003" lon="-1.2447380000000015">
        <ele>381.009</ele>
        <time>2022-08-24T06:58:55Z</time>
      </trkpt>
      <trkpt lat="43.13017000000003" lon="-1.2447520000000014">
        <ele>381.288</ele>
        <time>2022-08-24T06:58:56Z</time>
      </trkpt>
      <trkpt lat="43.13017900000003" lon="-1.2447650000000015">
        <ele>381.248</ele>
        <time>2022-08-24T06:58:57Z</time>
      </trkpt>
      <trkpt lat="43.13019000000003" lon="-1.2447770000000014">
        <ele>381.458</ele>
        <time>2022-08-24T06:58:58Z</time>
      </trkpt>
      <trkpt lat="43.13020000000003" lon="-1.2447930000000014">
        <ele>381.624</ele>
        <time>2022-08-24T06:58:59Z</time>
      </trkpt>
      <trkpt lat="43.13020800000003" lon="-1.2448090000000014">
        <ele>381.636</ele>
        <time>2022-08-24T06:59:00Z</time>
      </trkpt>
      <trkpt lat="43.13021700000003" lon="-1.2448250000000014">
        <ele>381.613</ele>
        <time>2022-08-24T06:59:01Z</time>
      </trkpt>
      <trkpt lat="43.13022600000003" lon="-1.2448370000000013">
        <ele>381.856</ele>
        <time>2022-08-24T06:59:02Z</time>
      </trkpt>
      <trkpt lat="43.13023500000003" lon="-1.2448520000000014">
        <ele>381.830</ele>
        <time>2022-08-24T06:59:03Z</time>
      </trkpt>
      <trkpt lat="43.130244000000026" lon="-1.2448640000000013">
        <ele>381.829</ele>
        <time>2022-08-24T06:59:04Z</time>
      </trkpt>
      <trkpt lat="43.130253000000025" lon="-1.2448760000000012">
        <ele>382.025</ele>
        <time>2022-08-24T06:59:05Z</time>
      </trkpt>
      <trkpt lat="43.130259000000024" lon="-1.2448890000000012">
        <ele>382.226</ele>
        <time>2022-08-24T06:59:06Z</time>
      </trkpt>
      <trkpt lat="43.130267000000025" lon="-1.2448990000000013">
        <ele>382.608</ele>
        <time>2022-08-24T06:59:07Z</time>
      </trkpt>
      <trkpt lat="43.13027600000002" lon="-1.2449100000000013">
        <ele>383.009</ele>
        <time>2022-08-24T06:59:08Z</time>
      </trkpt>
      <trkpt lat="43.130284000000024" lon="-1.2449220000000012">
        <ele>383.043</ele>
        <time>2022-08-24T06:59:09Z</time>
      </trkpt>
      <trkpt lat="43.130292000000026" lon="-1.2449360000000012">
        <ele>383.453</ele>
        <time>2022-08-24T06:59:10Z</time>
      </trkpt>
      <trkpt lat="43.13030200000003" lon="-1.2449510000000013">
        <ele>383.653</ele>
        <time>2022-08-24T06:59:11Z</time>
      </trkpt>
      <trkpt lat="43.13031200000003" lon="-1.2449660000000013">
        <ele>383.639</ele>
        <time>2022-08-24T06:59:12Z</time>
      </trkpt>
      <trkpt lat="43.13031900000003" lon="-1.2449760000000014">
        <ele>383.861</ele>
        <time>2022-08-24T06:59:13Z</time>
      </trkpt>
      <trkpt lat="43.13032900000003" lon="-1.2449850000000013">
        <ele>384.098</ele>
        <time>2022-08-24T06:59:14Z</time>
      </trkpt>
      <trkpt lat="43.13033600000003" lon="-1.2449990000000013">
        <ele>384.281</ele>
        <time>2022-08-24T06:59:15Z</time>
      </trkpt>
      <trkpt lat="43.13034400000003" lon="-1.2450110000000012">
        <ele>384.255</ele>
        <time>2022-08-24T06:59:16Z</time>
      </trkpt>
      <trkpt lat="43.13035200000003" lon="-1.245023000000001">
        <ele>384.634</ele>
        <time>2022-08-24T06:59:17Z</time>
      </trkpt>
      <trkpt lat="43.13036100000003" lon="-1.2450380000000012">
        <ele>384.645</ele>
        <time>2022-08-24T06:59:18Z</time>
      </trkpt>
      <trkpt lat="43.13036700000003" lon="-1.2450520000000012">
        <ele>385.047</ele>
        <time>2022-08-24T06:59:19Z</time>
      </trkpt>
      <trkpt lat="43.13037300000003" lon="-1.2450670000000013">
        <ele>385.211</ele>
        <time>2022-08-24T06:59:20Z</time>
      </trkpt>
      <trkpt lat="43.13037500000003" lon="-1.2450810000000012">
        <ele>385.209</ele>
        <time>2022-08-24T06:59:21Z</time>
      </trkpt>
      <trkpt lat="43.13037800000003" lon="-1.2450970000000012">
        <ele>385.675</ele>
        <time>2022-08-24T06:59:22Z</time>
      </trkpt>
      <trkpt lat="43.13038300000003" lon="-1.2451130000000012">
        <ele>385.685</ele>
        <time>2022-08-24T06:59:23Z</time>
      </trkpt>
      <trkpt lat="43.13038300000003" lon="-1.2451130000000012">
        <ele>386.025</ele>
        <time>2022-08-24T06:59:24Z</time>
      </trkpt>
      <trkpt lat="43.13039700000003" lon="-1.2451400000000012">
        <ele>386.251</ele>
        <time>2022-08-24T06:59:25Z</time>
      </trkpt>
      <trkpt lat="43.13040300000003" lon="-1.2451640000000013">
        <ele>386.473</ele>
        <time>2022-08-24T06:59:26Z</time>
      </trkpt>
      <trkpt lat="43.13040700000003" lon="-1.2451830000000013">
        <ele>386.610</ele>
        <time>2022-08-24T06:59:27Z</time>
      </trkpt>
      <trkpt lat="43.13041200000003" lon="-1.2452020000000013">
        <ele>386.843</ele>
        <time>2022-08-24T06:59:28Z</time>
      </trkpt>
      <trkpt lat="43.13041500000003" lon="-1.2452180000000013">
        <ele>387.297</ele>
        <time>2022-08-24T06:59:29Z</time>
      </trkpt>
      <trkpt lat="43.13041700000003" lon="-1.2452370000000013">
        <ele>387.226</ele>
        <time>2022-08-24T06:59:30Z</time>
      </trkpt>
      <trkpt lat="43.13041300000003" lon="-1.2452550000000013">
        <ele>387.488</ele>
        <time>2022-08-24T06:59:31Z</time>
      </trkpt>
      <trkpt lat="43.13040500000003" lon="-1.2452710000000013">
        <ele>387.424</ele>
        <time>2022-08-24T06:59:32Z</time>
      </trkpt>
      <trkpt lat="43.13039300000003" lon="-1.2452810000000014">
        <ele>387.826</ele>
        <time>2022-08-24T06:59:33Z</time>
      </trkpt>
      <trkpt lat="43.13038000000003" lon="-1.2452850000000013">
        <ele>388.009</ele>
        <time>2022-08-24T06:59:34Z</time>
      </trkpt>
      <trkpt lat="43.13037000000003" lon="-1.2452880000000013">
        <ele>388.479</ele>
        <time>2022-08-24T06:59:35Z</time>
      </trkpt>
      <trkpt lat="43.13036100000003" lon="-1.2452900000000013">
        <ele>388.679</ele>
        <time>2022-08-24T06:59:36Z</time>
      </trkpt>
      <trkpt lat="43.13034900000003" lon="-1.2452890000000014">
        <ele>388.639</ele>
        <time>2022-08-24T06:59:37Z</time>
      </trkpt>
      <trkpt lat="43.13033600000003" lon="-1.2452850000000015">
        <ele>388.875</ele>
        <time>2022-08-24T06:59:38Z</time>
      </trkpt>
      <trkpt lat="43.13032900000003" lon="-1.2452840000000016">
        <ele>389.037</ele>
        <time>2022-08-24T06:59:39Z</time>
      </trkpt>
      <trkpt lat="43.13032900000003" lon="-1.2452840000000016">
        <ele>389.284</ele>
        <time>2022-08-24T06:59:40Z</time>
      </trkpt>
      <trkpt lat="43.13031200000003" lon="-1.2452790000000016">
        <ele>389.237</ele>
        <time>2022-08-24T06:59:41Z</time>
      </trkpt>
      <trkpt lat="43.13029600000003" lon="-1.2452680000000016">
        <ele>389.471</ele>
        <time>2022-08-24T06:59:42Z</time>
      </trkpt>
      <trkpt lat="43.13029600000003" lon="-1.2452680000000016">
        <ele>389.650</ele>
        <time>2022-08-24T06:59:43Z</time>
      </trkpt>
      <trkpt lat="43.13027400000003" lon="-1.2452450000000015">
        <ele>389.812</ele>
        <time>2022-08-24T06:59:44Z</time>
      </trkpt>
      <trkpt lat="43.13026700000003" lon="-1.2452360000000016">
        <ele>390.032</ele>
        <time>2022-08-24T06:59:45Z</time>
      </trkpt>
      <trkpt lat="43.130255000000034" lon="-1.2452240000000017">
        <ele>390.205</ele>
        <time>2022-08-24T06:59:46Z</time>
      </trkpt>
      <trkpt lat="43.130241000000034" lon="-1.2452080000000016">
        <ele>390.409</ele>
        <time>2022-08-24T06:59:47Z</time>
      </trkpt>
      <trkpt lat="43.13022700000003" lon="-1.2451960000000017">
        <ele>390.462</ele>
        <time>2022-08-24T06:59:48Z</time>
      </trkpt>
      <trkpt lat="43.13021400000003" lon="-1.2451840000000018">
        <ele>390.682</ele>
        <time>2022-08-24T06:59:49Z</time>
      </trkpt>
      <trkpt lat="43.13020300000003" lon="-1.2451740000000018">
        <ele>390.812</ele>
        <time>2022-08-24T06:59:50Z</time>
      </trkpt>
      <trkpt lat="43.13019100000003" lon="-1.2451610000000017">
        <ele>391.068</ele>
        <time>2022-08-24T06:59:51Z</time>
      </trkpt>
      <trkpt lat="43.130179000000034" lon="-1.2451500000000018">
        <ele>391.260</ele>
        <time>2022-08-24T06:59:52Z</time>
      </trkpt>
      <trkpt lat="43.13016900000003" lon="-1.2451440000000018">
        <ele>391.267</ele>
        <time>2022-08-24T06:59:53Z</time>
      </trkpt>
      <trkpt lat="43.13016000000003" lon="-1.2451350000000019">
        <ele>391.420</ele>
        <time>2022-08-24T06:59:54Z</time>
      </trkpt>
      <trkpt lat="43.13014700000003" lon="-1.245126000000002">
        <ele>391.624</ele>
        <time>2022-08-24T06:59:55Z</time>
      </trkpt>
      <trkpt lat="43.13013200000003" lon="-1.245118000000002">
        <ele>391.843</ele>
        <time>2022-08-24T06:59:56Z</time>
      </trkpt>
      <trkpt lat="43.13012100000003" lon="-1.245110000000002">
        <ele>392.073</ele>
        <time>2022-08-24T06:59:57Z</time>
      </trkpt>
      <trkpt lat="43.13010500000003" lon="-1.245101000000002">
        <ele>392.285</ele>
        <time>2022-08-24T06:59:58Z</time>
      </trkpt>
      <trkpt lat="43.13008700000003" lon="-1.245088000000002">
        <ele>392.213</ele>
        <time>2022-08-24T06:59:59Z</time>
      </trkpt>
      <trkpt lat="43.13007300000003" lon="-1.245078000000002">
        <ele>392.209</ele>
        <time>2022-08-24T07:00:00Z</time>
      </trkpt>
      <trkpt lat="43.13005900000003" lon="-1.245070000000002">
        <ele>392.458</ele>
        <time>2022-08-24T07:00:01Z</time>
      </trkpt>
      <trkpt lat="43.13004600000003" lon="-1.2450650000000019">
        <ele>392.668</ele>
        <time>2022-08-24T07:00:02Z</time>
      </trkpt>
      <trkpt lat="43.13003400000003" lon="-1.2450580000000018">
        <ele>393.048</ele>
        <time>2022-08-24T07:00:03Z</time>
      </trkpt>
      <trkpt lat="43.13002300000003" lon="-1.2450520000000018">
        <ele>393.024</ele>
        <time>2022-08-24T07:00:04Z</time>
      </trkpt>
      <trkpt lat="43.13001300000003" lon="-1.2450470000000018">
        <ele>393.226</ele>
        <time>2022-08-24T07:00:05Z</time>
      </trkpt>
      <trkpt lat="43.13000300000002" lon="-1.2450390000000018">
        <ele>393.493</ele>
        <time>2022-08-24T07:00:06Z</time>
      </trkpt>
      <trkpt lat="43.12999300000002" lon="-1.2450320000000017">
        <ele>393.676</ele>
        <time>2022-08-24T07:00:07Z</time>
      </trkpt>
      <trkpt lat="43.12997900000002" lon="-1.2450240000000017">
        <ele>393.860</ele>
        <time>2022-08-24T07:00:08Z</time>
      </trkpt>
      <trkpt lat="43.12996600000002" lon="-1.2450180000000017">
        <ele>393.879</ele>
        <time>2022-08-24T07:00:09Z</time>
      </trkpt>
      <trkpt lat="43.12995200000002" lon="-1.2450140000000018">
        <ele>394.268</ele>
        <time>2022-08-24T07:00:10Z</time>
      </trkpt>
      <trkpt lat="43.129939000000014" lon="-1.2450110000000019">
        <ele>394.242</ele>
        <time>2022-08-24T07:00:11Z</time>
      </trkpt>
      <trkpt lat="43.12992900000001" lon="-1.245007000000002">
        <ele>394.426</ele>
        <time>2022-08-24T07:00:12Z</time>
      </trkpt>
      <trkpt lat="43.12992100000001" lon="-1.245006000000002">
        <ele>394.409</ele>
        <time>2022-08-24T07:00:13Z</time>
      </trkpt>
      <trkpt lat="43.12991300000001" lon="-1.245003000000002">
        <ele>394.677</ele>
        <time>2022-08-24T07:00:14Z</time>
      </trkpt>
      <trkpt lat="43.129900000000006" lon="-1.244998000000002">
        <ele>394.887</ele>
        <time>2022-08-24T07:00:15Z</time>
      </trkpt>
      <trkpt lat="43.12988300000001" lon="-1.244991000000002">
        <ele>394.897</ele>
        <time>2022-08-24T07:00:16Z</time>
      </trkpt>
      <trkpt lat="43.12986600000001" lon="-1.244983000000002">
        <ele>395.253</ele>
        <time>2022-08-24T07:00:17Z</time>
      </trkpt>
      <trkpt lat="43.12985200000001" lon="-1.244978000000002">
        <ele>395.415</ele>
        <time>2022-08-24T07:00:18Z</time>
      </trkpt>
      <trkpt lat="43.129841000000006" lon="-1.244972000000002">
        <ele>395.682</ele>
        <time>2022-08-24T07:00:19Z</time>
      </trkpt>
      <trkpt lat="43.129824000000006" lon="-1.244964000000002">
        <ele>396.045</ele>
        <time>2022-08-24T07:00:20Z</time>
      </trkpt>
      <trkpt lat="43.12980900000001" lon="-1.244954000000002">
        <ele>396.049</ele>
        <time>2022-08-24T07:00:21Z</time>
      </trkpt>
      <trkpt lat="43.12979000000001" lon="-1.244943000000002">
        <ele>396.468</ele>
        <time>2022-08-24T07:00:22Z</time>
      </trkpt>
      <trkpt lat="43.12976200000001" lon="-1.2449380000000019">
        <ele>396.436</ele>
        <time>2022-08-24T07:00:23Z</time>
      </trkpt>
      <trkpt lat="43.12973100000001" lon="-1.244926000000002">
        <ele>396.817</ele>
        <time>2022-08-24T07:00:24Z</time>
      </trkpt>
      <trkpt lat="43.12971400000001" lon="-1.244915000000002">
        <ele>396.818</ele>
        <time>2022-08-24T07:00:25Z</time>
      </trkpt>
      <trkpt lat="43.129701000000004" lon="-1.244905000000002">
        <ele>397.009</ele>
        <time>2022-08-24T07:00:26Z</time>
      </trkpt>
      <trkpt lat="43.12968600000001" lon="-1.244894000000002">
        <ele>397.234</ele>
        <time>2022-08-24T07:00:27Z</time>
      </trkpt>
      <trkpt lat="43.129673000000004" lon="-1.244885000000002">
        <ele>397.494</ele>
        <time>2022-08-24T07:00:28Z</time>
      </trkpt>
      <trkpt lat="43.12965500000001" lon="-1.244879000000002">
        <ele>397.614</ele>
        <time>2022-08-24T07:00:29Z</time>
      </trkpt>
      <trkpt lat="43.129636000000005" lon="-1.2448730000000021">
        <ele>397.820</ele>
        <time>2022-08-24T07:00:30Z</time>
      </trkpt>
      <trkpt lat="43.129636000000005" lon="-1.2448730000000021">
        <ele>398.092</ele>
        <time>2022-08-24T07:00:31Z</time>
      </trkpt>
      <trkpt lat="43.129611000000004" lon="-1.244857000000002">
        <ele>398.069</ele>
        <time>2022-08-24T07:00:32Z</time>
      </trkpt>
      <trkpt lat="43.12960400000001" lon="-1.2448460000000021">
        <ele>398.422</ele>
        <time>2022-08-24T07:00:33Z</time>
      </trkpt>
      <trkpt lat="43.129582000000006" lon="-1.2448320000000022">
        <ele>398.686</ele>
        <time>2022-08-24T07:00:34Z</time>
      </trkpt>
      <trkpt lat="43.12955900000001" lon="-1.2448210000000022">
        <ele>398.875</ele>
        <time>2022-08-24T07:00:35Z</time>
      </trkpt>
      <trkpt lat="43.12953800000001" lon="-1.2448100000000022">
        <ele>399.055</ele>
        <time>2022-08-24T07:00:36Z</time>
      </trkpt>
      <trkpt lat="43.12951200000001" lon="-1.2447890000000021">
        <ele>399.207</ele>
        <time>2022-08-24T07:00:37Z</time>
      </trkpt>
      <trkpt lat="43.12948500000001" lon="-1.2447780000000022">
        <ele>399.417</ele>
        <time>2022-08-24T07:00:38Z</time>
      </trkpt>
      <trkpt lat="43.12946500000001" lon="-1.244782000000002">
        <ele>399.609</ele>
        <time>2022-08-24T07:00:39Z</time>
      </trkpt>
      <trkpt lat="43.12945400000001" lon="-1.244777000000002">
        <ele>399.846</ele>
        <time>2022-08-24T07:00:40Z</time>
      </trkpt>
      <trkpt lat="43.12944500000001" lon="-1.244769000000002">
        <ele>400.246</ele>
        <time>2022-08-24T07:00:41Z</time>
      </trkpt>
      <trkpt lat="43.12943100000001" lon="-1.244759000000002">
        <ele>400.426</ele>
        <time>2022-08-24T07:00:42Z</time>
      </trkpt>
      <trkpt lat="43.12942300000001" lon="-1.244746000000002">
        <ele>400.642</ele>
        <time>2022-08-24T07:00:43Z</time>
      </trkpt>
      <trkpt lat="43.12941100000001" lon="-1.2447360000000018">
        <ele>400.864</ele>
        <time>2022-08-24T07:00:44Z</time>
      </trkpt>
      <trkpt lat="43.12939800000001" lon="-1.2447310000000018">
        <ele>401.071</ele>
        <time>2022-08-24T07:00:45Z</time>
      </trkpt>
      <trkpt lat="43.12938100000001" lon="-1.2447200000000018">
        <ele>401.054</ele>
        <time>2022-08-24T07:00:46Z</time>
      </trkpt>
      <trkpt lat="43.12936500000001" lon="-1.2447130000000017">
        <ele>401.458</ele>
        <time>2022-08-24T07:00:47Z</time>
      </trkpt>
      <trkpt lat="43.12935100000001" lon="-1.2447080000000017">
        <ele>401.447</ele>
        <time>2022-08-24T07:00:48Z</time>
      </trkpt>
      <trkpt lat="43.129340000000006" lon="-1.2447020000000018">
        <ele>401.662</ele>
        <time>2022-08-24T07:00:49Z</time>
      </trkpt>
      <trkpt lat="43.129329000000006" lon="-1.2446990000000018">
        <ele>401.883</ele>
        <time>2022-08-24T07:00:50Z</time>
      </trkpt>
      <trkpt lat="43.129319" lon="-1.2446950000000019">
        <ele>401.811</ele>
        <time>2022-08-24T07:00:51Z</time>
      </trkpt>
      <trkpt lat="43.129308" lon="-1.2446950000000019">
        <ele>401.809</ele>
        <time>2022-08-24T07:00:52Z</time>
      </trkpt>
      <trkpt lat="43.129298" lon="-1.244694000000002">
        <ele>402.037</ele>
        <time>2022-08-24T07:00:53Z</time>
      </trkpt>
      <trkpt lat="43.129284" lon="-1.244689000000002">
        <ele>402.227</ele>
        <time>2022-08-24T07:00:54Z</time>
      </trkpt>
      <trkpt lat="43.129273999999995" lon="-1.244685000000002">
        <ele>402.427</ele>
        <time>2022-08-24T07:00:55Z</time>
      </trkpt>
      <trkpt lat="43.129262999999995" lon="-1.244683000000002">
        <ele>402.853</ele>
        <time>2022-08-24T07:00:56Z</time>
      </trkpt>
      <trkpt lat="43.129262999999995" lon="-1.244683000000002">
        <ele>403.025</ele>
        <time>2022-08-24T07:00:57Z</time>
      </trkpt>
      <trkpt lat="43.12924399999999" lon="-1.244676000000002">
        <ele>403.292</ele>
        <time>2022-08-24T07:00:58Z</time>
      </trkpt>
      <trkpt lat="43.12923599999999" lon="-1.244675000000002">
        <ele>403.485</ele>
        <time>2022-08-24T07:00:59Z</time>
      </trkpt>
      <trkpt lat="43.12922499999999" lon="-1.244670000000002">
        <ele>403.459</ele>
        <time>2022-08-24T07:01:00Z</time>
      </trkpt>
      <trkpt lat="43.12921199999999" lon="-1.2446630000000019">
        <ele>403.688</ele>
        <time>2022-08-24T07:01:01Z</time>
      </trkpt>
      <trkpt lat="43.12919499999999" lon="-1.244654000000002">
        <ele>403.648</ele>
        <time>2022-08-24T07:01:02Z</time>
      </trkpt>
      <trkpt lat="43.12917999999999" lon="-1.244648000000002">
        <ele>403.861</ele>
        <time>2022-08-24T07:01:03Z</time>
      </trkpt>
      <trkpt lat="43.12916799999999" lon="-1.244646000000002">
        <ele>404.217</ele>
        <time>2022-08-24T07:01:04Z</time>
      </trkpt>
      <trkpt lat="43.12915399999999" lon="-1.244645000000002">
        <ele>404.209</ele>
        <time>2022-08-24T07:01:05Z</time>
      </trkpt>
      <trkpt lat="43.129138999999995" lon="-1.244643000000002">
        <ele>404.435</ele>
        <time>2022-08-24T07:01:06Z</time>
      </trkpt>
      <trkpt lat="43.12912599999999" lon="-1.2446410000000019">
        <ele>404.645</ele>
        <time>2022-08-24T07:01:07Z</time>
      </trkpt>
      <trkpt lat="43.129113999999994" lon="-1.2446390000000018">
        <ele>404.865</ele>
        <time>2022-08-24T07:01:08Z</time>
      </trkpt>
      <trkpt lat="43.129096999999994" lon="-1.2446340000000018">
        <ele>404.811</ele>
        <time>2022-08-24T07:01:09Z</time>
      </trkpt>
      <trkpt lat="43.129084999999996" lon="-1.2446270000000017">
        <ele>405.043</ele>
        <time>2022-08-24T07:01:10Z</time>
      </trkpt>
      <trkpt lat="43.129084999999996" lon="-1.2446270000000017">
        <ele>405.430</ele>
        <time>2022-08-24T07:01:11Z</time>
      </trkpt>
      <trkpt lat="43.129062" lon="-1.2446110000000017">
        <ele>405.623</ele>
        <time>2022-08-24T07:01:12Z</time>
      </trkpt>
      <trkpt lat="43.129051999999994" lon="-1.2446090000000016">
        <ele>405.887</ele>
        <time>2022-08-24T07:01:13Z</time>
      </trkpt>
      <trkpt lat="43.129037999999994" lon="-1.2446080000000017">
        <ele>405.836</ele>
        <time>2022-08-24T07:01:14Z</time>
      </trkpt>
      <trkpt lat="43.12902499999999" lon="-1.2446060000000017">
        <ele>406.012</ele>
        <time>2022-08-24T07:01:15Z</time>
      </trkpt>
      <trkpt lat="43.12901199999999" lon="-1.2446010000000016">
        <ele>406.032</ele>
        <time>2022-08-24T07:01:16Z</time>
      </trkpt>
      <trkpt lat="43.12899999999999" lon="-1.2445950000000017">
        <ele>406.205</ele>
        <time>2022-08-24T07:01:17Z</time>
      </trkpt>
      <trkpt lat="43.12898899999999" lon="-1.2445910000000018">
        <ele>406.409</ele>
        <time>2022-08-24T07:01:18Z</time>
      </trkpt>
      <trkpt lat="43.12897599999999" lon="-1.2445870000000019">
        <ele>406.482</ele>
        <time>2022-08-24T07:01:19Z</time>
      </trkpt>
      <trkpt lat="43.128962999999985" lon="-1.2445820000000019">
        <ele>406.632</ele>
        <time>2022-08-24T07:01:20Z</time>
      </trkpt>
      <trkpt lat="43.12895099999999" lon="-1.2445790000000019">
        <ele>406.832</ele>
        <time>2022-08-24T07:01:21Z</time>
      </trkpt>
      <trkpt lat="43.128939999999986" lon="-1.244573000000002">
        <ele>406.838</ele>
        <time>2022-08-24T07:01:22Z</time>
      </trkpt>
      <trkpt lat="43.128928999999985" lon="-1.2445710000000019">
        <ele>407.010</ele>
        <time>2022-08-24T07:01:23Z</time>
      </trkpt>
      <trkpt lat="43.128917999999985" lon="-1.244567000000002">
        <ele>407.027</ele>
        <time>2022-08-24T07:01:24Z</time>
      </trkpt>
      <trkpt lat="43.128905999999986" lon="-1.244563000000002">
        <ele>407.280</ele>
        <time>2022-08-24T07:01:25Z</time>
      </trkpt>
      <trkpt lat="43.12889399999999" lon="-1.2445620000000022">
        <ele>407.234</ele>
        <time>2022-08-24T07:01:26Z</time>
      </trkpt>
      <trkpt lat="43.128883999999985" lon="-1.2445590000000022">
        <ele>407.443</ele>
        <time>2022-08-24T07:01:27Z</time>
      </trkpt>
      <trkpt lat="43.128872999999984" lon="-1.2445580000000023">
        <ele>407.477</ele>
        <time>2022-08-24T07:01:28Z</time>
      </trkpt>
      <trkpt lat="43.12885999999998" lon="-1.2445550000000023">
        <ele>407.661</ele>
        <time>2022-08-24T07:01:29Z</time>
      </trkpt>
      <trkpt lat="43.12884699999998" lon="-1.2445480000000022">
        <ele>407.627</ele>
        <time>2022-08-24T07:01:30Z</time>
      </trkpt>
      <trkpt lat="43.12883299999998" lon="-1.2445340000000022">
        <ele>407.809</ele>
        <time>2022-08-24T07:01:31Z</time>
      </trkpt>
      <trkpt lat="43.12882199999998" lon="-1.2445180000000022">
        <ele>408.038</ele>
        <time>2022-08-24T07:01:32Z</time>
      </trkpt>
      <trkpt lat="43.12881099999998" lon="-1.2445060000000023">
        <ele>408.248</ele>
        <time>2022-08-24T07:01:33Z</time>
      </trkpt>
      <trkpt lat="43.128794999999975" lon="-1.2444990000000022">
        <ele>408.428</ele>
        <time>2022-08-24T07:01:34Z</time>
      </trkpt>
      <trkpt lat="43.12877999999998" lon="-1.2444970000000022">
        <ele>408.694</ele>
        <time>2022-08-24T07:01:35Z</time>
      </trkpt>
      <trkpt lat="43.12876799999998" lon="-1.2444990000000022">
        <ele>408.696</ele>
        <time>2022-08-24T07:01:36Z</time>
      </trkpt>
      <trkpt lat="43.12875499999998" lon="-1.2445050000000022">
        <ele>408.813</ele>
        <time>2022-08-24T07:01:37Z</time>
      </trkpt>
      <trkpt lat="43.128743999999976" lon="-1.2445050000000022">
        <ele>409.086</ele>
        <time>2022-08-24T07:01:38Z</time>
      </trkpt>
      <trkpt lat="43.12873199999998" lon="-1.2445020000000022">
        <ele>409.070</ele>
        <time>2022-08-24T07:01:39Z</time>
      </trkpt>
      <trkpt lat="43.12871799999998" lon="-1.2445000000000022">
        <ele>409.269</ele>
        <time>2022-08-24T07:01:40Z</time>
      </trkpt>
      <trkpt lat="43.12870699999998" lon="-1.244490000000002">
        <ele>409.457</ele>
        <time>2022-08-24T07:01:41Z</time>
      </trkpt>
      <trkpt lat="43.12869499999998" lon="-1.2444810000000022">
        <ele>409.400</ele>
        <time>2022-08-24T07:01:42Z</time>
      </trkpt>
      <trkpt lat="43.12868399999998" lon="-1.244471000000002">
        <ele>409.620</ele>
        <time>2022-08-24T07:01:43Z</time>
      </trkpt>
      <trkpt lat="43.128673999999975" lon="-1.2444600000000021">
        <ele>409.609</ele>
        <time>2022-08-24T07:01:44Z</time>
      </trkpt>
      <trkpt lat="43.128662999999975" lon="-1.2444510000000022">
        <ele>409.836</ele>
        <time>2022-08-24T07:01:45Z</time>
      </trkpt>
      <trkpt lat="43.12864999999997" lon="-1.2444510000000022">
        <ele>410.016</ele>
        <time>2022-08-24T07:01:46Z</time>
      </trkpt>
      <trkpt lat="43.12863899999997" lon="-1.2444530000000023">
        <ele>410.066</ele>
        <time>2022-08-24T07:01:47Z</time>
      </trkpt>
      <trkpt lat="43.12863099999997" lon="-1.2444530000000023">
        <ele>410.262</ele>
        <time>2022-08-24T07:01:48Z</time>
      </trkpt>
      <trkpt lat="43.12862199999997" lon="-1.2444520000000023">
        <ele>410.464</ele>
        <time>2022-08-24T07:01:49Z</time>
      </trkpt>
      <trkpt lat="43.12861099999997" lon="-1.2444470000000023">
        <ele>410.621</ele>
        <time>2022-08-24T07:01:50Z</time>
      </trkpt>
      <trkpt lat="43.12859699999997" lon="-1.2444450000000022">
        <ele>410.644</ele>
        <time>2022-08-24T07:01:51Z</time>
      </trkpt>
      <trkpt lat="43.12858199999997" lon="-1.2444380000000022">
        <ele>410.658</ele>
        <time>2022-08-24T07:01:52Z</time>
      </trkpt>
      <trkpt lat="43.12856899999997" lon="-1.2444300000000021">
        <ele>410.857</ele>
        <time>2022-08-24T07:01:53Z</time>
      </trkpt>
      <trkpt lat="43.12855799999997" lon="-1.2444160000000022">
        <ele>411.029</ele>
        <time>2022-08-24T07:01:54Z</time>
      </trkpt>
      <trkpt lat="43.12854899999997" lon="-1.2444060000000021">
        <ele>411.200</ele>
        <time>2022-08-24T07:01:55Z</time>
      </trkpt>
      <trkpt lat="43.12853799999997" lon="-1.2443950000000021">
        <ele>411.220</ele>
        <time>2022-08-24T07:01:56Z</time>
      </trkpt>
      <trkpt lat="43.12852699999997" lon="-1.244390000000002">
        <ele>411.409</ele>
        <time>2022-08-24T07:01:57Z</time>
      </trkpt>
      <trkpt lat="43.12851599999997" lon="-1.2443840000000022">
        <ele>411.633</ele>
        <time>2022-08-24T07:01:58Z</time>
      </trkpt>
      <trkpt lat="43.12850199999997" lon="-1.2443810000000022">
        <ele>411.823</ele>
        <time>2022-08-24T07:01:59Z</time>
      </trkpt>
      <trkpt lat="43.12849099999997" lon="-1.2443750000000022">
        <ele>412.263</ele>
        <time>2022-08-24T07:02:00Z</time>
      </trkpt>
      <trkpt lat="43.12847899999997" lon="-1.2443710000000023">
        <ele>412.419</ele>
        <time>2022-08-24T07:02:01Z</time>
      </trkpt>
      <trkpt lat="43.12846599999997" lon="-1.2443720000000023">
        <ele>412.661</ele>
        <time>2022-08-24T07:02:02Z</time>
      </trkpt>
      <trkpt lat="43.128452999999965" lon="-1.2443660000000023">
        <ele>412.488</ele>
        <time>2022-08-24T07:02:03Z</time>
      </trkpt>
      <trkpt lat="43.128441999999964" lon="-1.2443630000000023">
        <ele>412.851</ele>
        <time>2022-08-24T07:02:04Z</time>
      </trkpt>
      <trkpt lat="43.128429999999966" lon="-1.2443580000000023">
        <ele>412.865</ele>
        <time>2022-08-24T07:02:05Z</time>
      </trkpt>
      <trkpt lat="43.12841999999996" lon="-1.2443580000000023">
        <ele>413.054</ele>
        <time>2022-08-24T07:02:06Z</time>
      </trkpt>
      <trkpt lat="43.12840999999996" lon="-1.2443590000000022">
        <ele>413.256</ele>
        <time>2022-08-24T07:02:07Z</time>
      </trkpt>
      <trkpt lat="43.12839899999996" lon="-1.2443580000000023">
        <ele>413.659</ele>
        <time>2022-08-24T07:02:08Z</time>
      </trkpt>
      <trkpt lat="43.128385999999956" lon="-1.2443570000000024">
        <ele>413.814</ele>
        <time>2022-08-24T07:02:09Z</time>
      </trkpt>
      <trkpt lat="43.128371999999956" lon="-1.2443520000000023">
        <ele>414.009</ele>
        <time>2022-08-24T07:02:10Z</time>
      </trkpt>
      <trkpt lat="43.12835999999996" lon="-1.2443450000000023">
        <ele>414.466</ele>
        <time>2022-08-24T07:02:11Z</time>
      </trkpt>
      <trkpt lat="43.12834799999996" lon="-1.2443400000000022">
        <ele>414.696</ele>
        <time>2022-08-24T07:02:12Z</time>
      </trkpt>
      <trkpt lat="43.12833499999996" lon="-1.2443340000000023">
        <ele>414.876</ele>
        <time>2022-08-24T07:02:13Z</time>
      </trkpt>
      <trkpt lat="43.12832399999996" lon="-1.2443330000000024">
        <ele>415.022</ele>
        <time>2022-08-24T07:02:14Z</time>
      </trkpt>
      <trkpt lat="43.12831399999995" lon="-1.2443170000000023">
        <ele>415.484</ele>
        <time>2022-08-24T07:02:15Z</time>
      </trkpt>
      <trkpt lat="43.12830099999995" lon="-1.2443120000000023">
        <ele>415.661</ele>
        <time>2022-08-24T07:02:16Z</time>
      </trkpt>
      <trkpt lat="43.12828999999995" lon="-1.2443100000000022">
        <ele>415.664</ele>
        <time>2022-08-24T07:02:17Z</time>
      </trkpt>
      <trkpt lat="43.12827499999995" lon="-1.2443040000000023">
        <ele>416.028</ele>
        <time>2022-08-24T07:02:18Z</time>
      </trkpt>
      <trkpt lat="43.128259999999955" lon="-1.2443000000000024">
        <ele>416.297</ele>
        <time>2022-08-24T07:02:19Z</time>
      </trkpt>
      <trkpt lat="43.12824699999995" lon="-1.2442980000000023">
        <ele>416.451</ele>
        <time>2022-08-24T07:02:20Z</time>
      </trkpt>
      <trkpt lat="43.12824699999995" lon="-1.2442980000000023">
        <ele>416.601</ele>
        <time>2022-08-24T07:02:21Z</time>
      </trkpt>
      <trkpt lat="43.12821899999995" lon="-1.2442930000000023">
        <ele>416.811</ele>
        <time>2022-08-24T07:02:22Z</time>
      </trkpt>
      <trkpt lat="43.12820999999995" lon="-1.2442880000000023">
        <ele>417.009</ele>
        <time>2022-08-24T07:02:23Z</time>
      </trkpt>
      <trkpt lat="43.12819899999995" lon="-1.2442850000000023">
        <ele>417.286</ele>
        <time>2022-08-24T07:02:24Z</time>
      </trkpt>
      <trkpt lat="43.128183999999955" lon="-1.2442820000000023">
        <ele>417.436</ele>
        <time>2022-08-24T07:02:25Z</time>
      </trkpt>
      <trkpt lat="43.12816599999996" lon="-1.2442840000000024">
        <ele>417.436</ele>
        <time>2022-08-24T07:02:26Z</time>
      </trkpt>
      <trkpt lat="43.12815199999996" lon="-1.2442820000000023">
        <ele>417.662</ele>
        <time>2022-08-24T07:02:27Z</time>
      </trkpt>
      <trkpt lat="43.12813799999996" lon="-1.2442750000000022">
        <ele>417.884</ele>
        <time>2022-08-24T07:02:28Z</time>
      </trkpt>
      <trkpt lat="43.12812399999996" lon="-1.2442680000000022">
        <ele>418.231</ele>
        <time>2022-08-24T07:02:29Z</time>
      </trkpt>
      <trkpt lat="43.12810999999996" lon="-1.2442710000000021">
        <ele>418.484</ele>
        <time>2022-08-24T07:02:30Z</time>
      </trkpt>
      <trkpt lat="43.128098999999956" lon="-1.2442710000000021">
        <ele>418.688</ele>
        <time>2022-08-24T07:02:31Z</time>
      </trkpt>
      <trkpt lat="43.128082999999954" lon="-1.2442670000000022">
        <ele>418.827</ele>
        <time>2022-08-24T07:02:32Z</time>
      </trkpt>
      <trkpt lat="43.128070999999956" lon="-1.2442600000000021">
        <ele>419.027</ele>
        <time>2022-08-24T07:02:33Z</time>
      </trkpt>
      <trkpt lat="43.12805799999995" lon="-1.2442570000000022">
        <ele>419.468</ele>
        <time>2022-08-24T07:02:34Z</time>
      </trkpt>
      <trkpt lat="43.12805799999995" lon="-1.2442570000000022">
        <ele>419.414</ele>
        <time>2022-08-24T07:02:35Z</time>
      </trkpt>
      <trkpt lat="43.12803099999995" lon="-1.244250000000002">
        <ele>419.609</ele>
        <time>2022-08-24T07:02:36Z</time>
      </trkpt>
      <trkpt lat="43.12801899999995" lon="-1.244247000000002">
        <ele>420.083</ele>
        <time>2022-08-24T07:02:37Z</time>
      </trkpt>
      <trkpt lat="43.12800799999995" lon="-1.2442440000000021">
        <ele>420.093</ele>
        <time>2022-08-24T07:02:38Z</time>
      </trkpt>
      <trkpt lat="43.12799799999995" lon="-1.2442430000000022">
        <ele>420.483</ele>
        <time>2022-08-24T07:02:39Z</time>
      </trkpt>
      <trkpt lat="43.12798899999995" lon="-1.2442510000000022">
        <ele>420.679</ele>
        <time>2022-08-24T07:02:40Z</time>
      </trkpt>
      <trkpt lat="43.12797699999995" lon="-1.2442560000000022">
        <ele>420.881</ele>
        <time>2022-08-24T07:02:41Z</time>
      </trkpt>
      <trkpt lat="43.12796499999995" lon="-1.2442560000000022">
        <ele>420.888</ele>
        <time>2022-08-24T07:02:42Z</time>
      </trkpt>
      <trkpt lat="43.12795399999995" lon="-1.2442580000000023">
        <ele>421.281</ele>
        <time>2022-08-24T07:02:43Z</time>
      </trkpt>
      <trkpt lat="43.12794099999995" lon="-1.2442570000000024">
        <ele>421.425</ele>
        <time>2022-08-24T07:02:44Z</time>
      </trkpt>
      <trkpt lat="43.12792599999995" lon="-1.2442540000000024">
        <ele>421.444</ele>
        <time>2022-08-24T07:02:45Z</time>
      </trkpt>
      <trkpt lat="43.127910999999955" lon="-1.2442500000000025">
        <ele>421.834</ele>
        <time>2022-08-24T07:02:46Z</time>
      </trkpt>
      <trkpt lat="43.127896999999955" lon="-1.2442430000000024">
        <ele>422.055</ele>
        <time>2022-08-24T07:02:47Z</time>
      </trkpt>
      <trkpt lat="43.127896999999955" lon="-1.2442430000000024">
        <ele>422.410</ele>
        <time>2022-08-24T07:02:48Z</time>
      </trkpt>
      <trkpt lat="43.12786799999996" lon="-1.2442340000000025">
        <ele>422.409</ele>
        <time>2022-08-24T07:02:49Z</time>
      </trkpt>
      <trkpt lat="43.127856999999956" lon="-1.2442350000000024">
        <ele>422.884</ele>
        <time>2022-08-24T07:02:50Z</time>
      </trkpt>
      <trkpt lat="43.12784499999996" lon="-1.2442370000000025">
        <ele>423.294</ele>
        <time>2022-08-24T07:02:51Z</time>
      </trkpt>
      <trkpt lat="43.12783699999996" lon="-1.2442290000000025">
        <ele>423.274</ele>
        <time>2022-08-24T07:02:52Z</time>
      </trkpt>
      <trkpt lat="43.12782799999996" lon="-1.2442220000000024">
        <ele>423.660</ele>
        <time>2022-08-24T07:02:53Z</time>
      </trkpt>
      <trkpt lat="43.12782799999996" lon="-1.2442220000000024">
        <ele>423.862</ele>
        <time>2022-08-24T07:02:54Z</time>
      </trkpt>
      <trkpt lat="43.12780899999996" lon="-1.2442210000000025">
        <ele>424.079</ele>
        <time>2022-08-24T07:02:55Z</time>
      </trkpt>
      <trkpt lat="43.127797999999956" lon="-1.2442220000000024">
        <ele>424.262</ele>
        <time>2022-08-24T07:02:56Z</time>
      </trkpt>
      <trkpt lat="43.12778799999995" lon="-1.2442230000000023">
        <ele>424.426</ele>
        <time>2022-08-24T07:02:57Z</time>
      </trkpt>
      <trkpt lat="43.127772999999955" lon="-1.2442250000000024">
        <ele>424.835</ele>
        <time>2022-08-24T07:02:58Z</time>
      </trkpt>
      <trkpt lat="43.12776099999996" lon="-1.2442210000000025">
        <ele>425.078</ele>
        <time>2022-08-24T07:02:59Z</time>
      </trkpt>
      <trkpt lat="43.127755999999955" lon="-1.2442200000000025">
        <ele>425.233</ele>
        <time>2022-08-24T07:03:00Z</time>
      </trkpt>
      <trkpt lat="43.12775399999995" lon="-1.2442100000000025">
        <ele>425.426</ele>
        <time>2022-08-24T07:03:01Z</time>
      </trkpt>
      <trkpt lat="43.127744999999955" lon="-1.2442050000000024">
        <ele>425.609</ele>
        <time>2022-08-24T07:03:02Z</time>
      </trkpt>
      <trkpt lat="43.12773199999995" lon="-1.2442000000000024">
        <ele>425.678</ele>
        <time>2022-08-24T07:03:03Z</time>
      </trkpt>
      <trkpt lat="43.12771899999995" lon="-1.2442020000000025">
        <ele>425.878</ele>
        <time>2022-08-24T07:03:04Z</time>
      </trkpt>
      <trkpt lat="43.12771099999995" lon="-1.2442110000000024">
        <ele>426.238</ele>
        <time>2022-08-24T07:03:05Z</time>
      </trkpt>
      <trkpt lat="43.12770199999995" lon="-1.2442210000000025">
        <ele>426.284</ele>
        <time>2022-08-24T07:03:06Z</time>
      </trkpt>
      <trkpt lat="43.127691999999946" lon="-1.2442300000000024">
        <ele>426.686</ele>
        <time>2022-08-24T07:03:07Z</time>
      </trkpt>
      <trkpt lat="43.12768199999994" lon="-1.2442310000000023">
        <ele>426.813</ele>
        <time>2022-08-24T07:03:08Z</time>
      </trkpt>
      <trkpt lat="43.12767499999995" lon="-1.2442210000000022">
        <ele>427.076</ele>
        <time>2022-08-24T07:03:09Z</time>
      </trkpt>
      <trkpt lat="43.127663999999946" lon="-1.2442140000000022">
        <ele>427.220</ele>
        <time>2022-08-24T07:03:10Z</time>
      </trkpt>
      <trkpt lat="43.12764899999995" lon="-1.2442080000000022">
        <ele>427.419</ele>
        <time>2022-08-24T07:03:11Z</time>
      </trkpt>
      <trkpt lat="43.12763499999995" lon="-1.2442070000000023">
        <ele>427.887</ele>
        <time>2022-08-24T07:03:12Z</time>
      </trkpt>
      <trkpt lat="43.127621999999946" lon="-1.2442160000000022">
        <ele>428.042</ele>
        <time>2022-08-24T07:03:13Z</time>
      </trkpt>
      <trkpt lat="43.127610999999945" lon="-1.2442270000000022">
        <ele>428.226</ele>
        <time>2022-08-24T07:03:14Z</time>
      </trkpt>
      <trkpt lat="43.12760399999995" lon="-1.2442360000000021">
        <ele>428.409</ele>
        <time>2022-08-24T07:03:15Z</time>
      </trkpt>
      <trkpt lat="43.12760399999995" lon="-1.2442360000000021">
        <ele>428.629</ele>
        <time>2022-08-24T07:03:16Z</time>
      </trkpt>
      <trkpt lat="43.12757799999995" lon="-1.244231000000002">
        <ele>428.699</ele>
        <time>2022-08-24T07:03:17Z</time>
      </trkpt>
      <trkpt lat="43.12756299999995" lon="-1.2442220000000022">
        <ele>428.859</ele>
        <time>2022-08-24T07:03:18Z</time>
      </trkpt>
      <trkpt lat="43.127547999999955" lon="-1.2442140000000022">
        <ele>429.035</ele>
        <time>2022-08-24T07:03:19Z</time>
      </trkpt>
      <trkpt lat="43.12753299999996" lon="-1.2442080000000022">
        <ele>429.247</ele>
        <time>2022-08-24T07:03:20Z</time>
      </trkpt>
      <trkpt lat="43.127521999999956" lon="-1.2442110000000022">
        <ele>429.444</ele>
        <time>2022-08-24T07:03:21Z</time>
      </trkpt>
      <trkpt lat="43.12751499999996" lon="-1.2442180000000023">
        <ele>429.627</ele>
        <time>2022-08-24T07:03:22Z</time>
      </trkpt>
      <trkpt lat="43.12750899999996" lon="-1.2442270000000022">
        <ele>430.061</ele>
        <time>2022-08-24T07:03:23Z</time>
      </trkpt>
      <trkpt lat="43.12749599999996" lon="-1.2442300000000022">
        <ele>430.060</ele>
        <time>2022-08-24T07:03:24Z</time>
      </trkpt>
      <trkpt lat="43.127482999999955" lon="-1.2442300000000022">
        <ele>430.434</ele>
        <time>2022-08-24T07:03:25Z</time>
      </trkpt>
      <trkpt lat="43.127471999999955" lon="-1.244231000000002">
        <ele>430.655</ele>
        <time>2022-08-24T07:03:26Z</time>
      </trkpt>
      <trkpt lat="43.127460999999954" lon="-1.244235000000002">
        <ele>430.810</ele>
        <time>2022-08-24T07:03:27Z</time>
      </trkpt>
      <trkpt lat="43.127448999999956" lon="-1.244242000000002">
        <ele>431.009</ele>
        <time>2022-08-24T07:03:28Z</time>
      </trkpt>
      <trkpt lat="43.12743899999995" lon="-1.244248000000002">
        <ele>431.434</ele>
        <time>2022-08-24T07:03:29Z</time>
      </trkpt>
      <trkpt lat="43.12742799999995" lon="-1.244251000000002">
        <ele>431.664</ele>
        <time>2022-08-24T07:03:30Z</time>
      </trkpt>
      <trkpt lat="43.12741699999995" lon="-1.244252000000002">
        <ele>432.034</ele>
        <time>2022-08-24T07:03:31Z</time>
      </trkpt>
      <trkpt lat="43.12740399999995" lon="-1.2442500000000019">
        <ele>432.480</ele>
        <time>2022-08-24T07:03:32Z</time>
      </trkpt>
      <trkpt lat="43.12738899999995" lon="-1.244249000000002">
        <ele>432.672</ele>
        <time>2022-08-24T07:03:33Z</time>
      </trkpt>
      <trkpt lat="43.12737599999995" lon="-1.244248000000002">
        <ele>432.839</ele>
        <time>2022-08-24T07:03:34Z</time>
      </trkpt>
      <trkpt lat="43.12736699999995" lon="-1.244254000000002">
        <ele>433.252</ele>
        <time>2022-08-24T07:03:35Z</time>
      </trkpt>
      <trkpt lat="43.12735599999995" lon="-1.244259000000002">
        <ele>433.436</ele>
        <time>2022-08-24T07:03:36Z</time>
      </trkpt>
      <trkpt lat="43.12734799999995" lon="-1.244266000000002">
        <ele>433.625</ele>
        <time>2022-08-24T07:03:37Z</time>
      </trkpt>
      <trkpt lat="43.12734099999995" lon="-1.244269000000002">
        <ele>433.814</ele>
        <time>2022-08-24T07:03:38Z</time>
      </trkpt>
      <trkpt lat="43.12733099999995" lon="-1.244266000000002">
        <ele>434.054</ele>
        <time>2022-08-24T07:03:39Z</time>
      </trkpt>
      <trkpt lat="43.12731899999995" lon="-1.2442620000000022">
        <ele>434.209</ele>
        <time>2022-08-24T07:03:40Z</time>
      </trkpt>
      <trkpt lat="43.12730499999995" lon="-1.2442620000000022">
        <ele>434.209</ele>
        <time>2022-08-24T07:03:41Z</time>
      </trkpt>
      <trkpt lat="43.12729499999995" lon="-1.2442630000000021">
        <ele>434.662</ele>
        <time>2022-08-24T07:03:42Z</time>
      </trkpt>
      <trkpt lat="43.12728599999995" lon="-1.244267000000002">
        <ele>434.862</ele>
        <time>2022-08-24T07:03:43Z</time>
      </trkpt>
      <trkpt lat="43.12727499999995" lon="-1.244268000000002">
        <ele>434.882</ele>
        <time>2022-08-24T07:03:44Z</time>
      </trkpt>
      <trkpt lat="43.12726699999995" lon="-1.2442720000000018">
        <ele>435.028</ele>
        <time>2022-08-24T07:03:45Z</time>
      </trkpt>
      <trkpt lat="43.12725499999995" lon="-1.2442720000000018">
        <ele>435.220</ele>
        <time>2022-08-24T07:03:46Z</time>
      </trkpt>
      <trkpt lat="43.12724599999995" lon="-1.2442670000000018">
        <ele>435.447</ele>
        <time>2022-08-24T07:03:47Z</time>
      </trkpt>
      <trkpt lat="43.12723399999995" lon="-1.2442690000000018">
        <ele>435.640</ele>
        <time>2022-08-24T07:03:48Z</time>
      </trkpt>
      <trkpt lat="43.12722299999995" lon="-1.2442740000000019">
        <ele>435.844</ele>
        <time>2022-08-24T07:03:49Z</time>
      </trkpt>
      <trkpt lat="43.12721199999995" lon="-1.2442770000000019">
        <ele>436.043</ele>
        <time>2022-08-24T07:03:50Z</time>
      </trkpt>
      <trkpt lat="43.12720099999995" lon="-1.2442800000000018">
        <ele>436.273</ele>
        <time>2022-08-24T07:03:51Z</time>
      </trkpt>
      <trkpt lat="43.12718999999995" lon="-1.2442820000000019">
        <ele>436.485</ele>
        <time>2022-08-24T07:03:52Z</time>
      </trkpt>
      <trkpt lat="43.12717799999995" lon="-1.244279000000002">
        <ele>436.613</ele>
        <time>2022-08-24T07:03:53Z</time>
      </trkpt>
      <trkpt lat="43.12716399999995" lon="-1.244279000000002">
        <ele>436.809</ele>
        <time>2022-08-24T07:03:54Z</time>
      </trkpt>
      <trkpt lat="43.12715099999995" lon="-1.244278000000002">
        <ele>437.288</ele>
        <time>2022-08-24T07:03:55Z</time>
      </trkpt>
      <trkpt lat="43.12713999999995" lon="-1.244275000000002">
        <ele>437.488</ele>
        <time>2022-08-24T07:03:56Z</time>
      </trkpt>
      <trkpt lat="43.12713099999995" lon="-1.2442710000000021">
        <ele>437.488</ele>
        <time>2022-08-24T07:03:57Z</time>
      </trkpt>
      <trkpt lat="43.12711899999995" lon="-1.244269000000002">
        <ele>437.634</ele>
        <time>2022-08-24T07:03:58Z</time>
      </trkpt>
      <trkpt lat="43.12710699999995" lon="-1.244269000000002">
        <ele>437.816</ele>
        <time>2022-08-24T07:03:59Z</time>
      </trkpt>
      <trkpt lat="43.127094999999954" lon="-1.244267000000002">
        <ele>438.263</ele>
        <time>2022-08-24T07:04:00Z</time>
      </trkpt>
      <trkpt lat="43.127094999999954" lon="-1.244267000000002">
        <ele>438.286</ele>
        <time>2022-08-24T07:04:01Z</time>
      </trkpt>
      <trkpt lat="43.12706799999995" lon="-1.244268000000002">
        <ele>438.660</ele>
        <time>2022-08-24T07:04:02Z</time>
      </trkpt>
      <trkpt lat="43.12705799999995" lon="-1.244270000000002">
        <ele>439.039</ele>
        <time>2022-08-24T07:04:03Z</time>
      </trkpt>
      <trkpt lat="43.12704999999995" lon="-1.244272000000002">
        <ele>439.282</ele>
        <time>2022-08-24T07:04:04Z</time>
      </trkpt>
      <trkpt lat="43.127039999999944" lon="-1.244278000000002">
        <ele>439.643</ele>
        <time>2022-08-24T07:04:05Z</time>
      </trkpt>
      <trkpt lat="43.12702899999994" lon="-1.244280000000002">
        <ele>439.817</ele>
        <time>2022-08-24T07:04:06Z</time>
      </trkpt>
      <trkpt lat="43.127019999999945" lon="-1.2442790000000021">
        <ele>440.009</ele>
        <time>2022-08-24T07:04:07Z</time>
      </trkpt>
      <trkpt lat="43.127011999999944" lon="-1.244277000000002">
        <ele>440.089</ele>
        <time>2022-08-24T07:04:08Z</time>
      </trkpt>
      <trkpt lat="43.127005999999945" lon="-1.2442710000000021">
        <ele>440.279</ele>
        <time>2022-08-24T07:04:09Z</time>
      </trkpt>
      <trkpt lat="43.126996999999946" lon="-1.244264000000002">
        <ele>440.489</ele>
        <time>2022-08-24T07:04:10Z</time>
      </trkpt>
      <trkpt lat="43.126985999999945" lon="-1.244259000000002">
        <ele>440.485</ele>
        <time>2022-08-24T07:04:11Z</time>
      </trkpt>
      <trkpt lat="43.12697599999994" lon="-1.244261000000002">
        <ele>440.647</ele>
        <time>2022-08-24T07:04:12Z</time>
      </trkpt>
      <trkpt lat="43.126968999999946" lon="-1.2442680000000022">
        <ele>440.844</ele>
        <time>2022-08-24T07:04:13Z</time>
      </trkpt>
      <trkpt lat="43.12696199999995" lon="-1.2442760000000022">
        <ele>441.047</ele>
        <time>2022-08-24T07:04:14Z</time>
      </trkpt>
      <trkpt lat="43.12695499999995" lon="-1.2442840000000022">
        <ele>441.081</ele>
        <time>2022-08-24T07:04:15Z</time>
      </trkpt>
      <trkpt lat="43.12694699999995" lon="-1.244288000000002">
        <ele>441.430</ele>
        <time>2022-08-24T07:04:16Z</time>
      </trkpt>
      <trkpt lat="43.12693799999995" lon="-1.2442900000000021">
        <ele>441.422</ele>
        <time>2022-08-24T07:04:17Z</time>
      </trkpt>
      <trkpt lat="43.12692699999995" lon="-1.2442890000000022">
        <ele>441.662</ele>
        <time>2022-08-24T07:04:18Z</time>
      </trkpt>
      <trkpt lat="43.12691699999995" lon="-1.2442850000000023">
        <ele>441.608</ele>
        <time>2022-08-24T07:04:19Z</time>
      </trkpt>
      <trkpt lat="43.126906999999946" lon="-1.2442750000000022">
        <ele>441.609</ele>
        <time>2022-08-24T07:04:20Z</time>
      </trkpt>
      <trkpt lat="43.12689799999995" lon="-1.2442660000000023">
        <ele>441.883</ele>
        <time>2022-08-24T07:04:21Z</time>
      </trkpt>
      <trkpt lat="43.12688899999995" lon="-1.2442580000000023">
        <ele>441.843</ele>
        <time>2022-08-24T07:04:22Z</time>
      </trkpt>
      <trkpt lat="43.12688099999995" lon="-1.2442610000000023">
        <ele>442.063</ele>
        <time>2022-08-24T07:04:23Z</time>
      </trkpt>
      <trkpt lat="43.12687399999995" lon="-1.2442660000000023">
        <ele>442.489</ele>
        <time>2022-08-24T07:04:24Z</time>
      </trkpt>
      <trkpt lat="43.126869999999954" lon="-1.2442780000000022">
        <ele>442.651</ele>
        <time>2022-08-24T07:04:25Z</time>
      </trkpt>
      <trkpt lat="43.126863999999955" lon="-1.2442900000000021">
        <ele>442.868</ele>
        <time>2022-08-24T07:04:26Z</time>
      </trkpt>
      <trkpt lat="43.12685699999996" lon="-1.244301000000002">
        <ele>443.071</ele>
        <time>2022-08-24T07:04:27Z</time>
      </trkpt>
      <trkpt lat="43.126846999999955" lon="-1.244305000000002">
        <ele>443.075</ele>
        <time>2022-08-24T07:04:28Z</time>
      </trkpt>
      <trkpt lat="43.12683799999996" lon="-1.244300000000002">
        <ele>443.294</ele>
        <time>2022-08-24T07:04:29Z</time>
      </trkpt>
      <trkpt lat="43.12682599999996" lon="-1.2442930000000019">
        <ele>443.288</ele>
        <time>2022-08-24T07:04:30Z</time>
      </trkpt>
      <trkpt lat="43.12681499999996" lon="-1.244284000000002">
        <ele>443.424</ele>
        <time>2022-08-24T07:04:31Z</time>
      </trkpt>
      <trkpt lat="43.126801999999955" lon="-1.244279000000002">
        <ele>443.426</ele>
        <time>2022-08-24T07:04:32Z</time>
      </trkpt>
      <trkpt lat="43.12678999999996" lon="-1.2442800000000018">
        <ele>443.409</ele>
        <time>2022-08-24T07:04:33Z</time>
      </trkpt>
      <trkpt lat="43.12677899999996" lon="-1.2442880000000018">
        <ele>443.679</ele>
        <time>2022-08-24T07:04:34Z</time>
      </trkpt>
      <trkpt lat="43.12676699999996" lon="-1.2442920000000017">
        <ele>443.879</ele>
        <time>2022-08-24T07:04:35Z</time>
      </trkpt>
      <trkpt lat="43.12675799999996" lon="-1.2442990000000018">
        <ele>443.879</ele>
        <time>2022-08-24T07:04:36Z</time>
      </trkpt>
      <trkpt lat="43.12674499999996" lon="-1.2443050000000018">
        <ele>444.035</ele>
        <time>2022-08-24T07:04:37Z</time>
      </trkpt>
      <trkpt lat="43.126733999999956" lon="-1.2443080000000017">
        <ele>444.267</ele>
        <time>2022-08-24T07:04:38Z</time>
      </trkpt>
      <trkpt lat="43.126722999999956" lon="-1.2443100000000018">
        <ele>444.224</ele>
        <time>2022-08-24T07:04:39Z</time>
      </trkpt>
      <trkpt lat="43.12671399999996" lon="-1.2443130000000018">
        <ele>444.487</ele>
        <time>2022-08-24T07:04:40Z</time>
      </trkpt>
      <trkpt lat="43.126703999999954" lon="-1.2443130000000018">
        <ele>444.421</ele>
        <time>2022-08-24T07:04:41Z</time>
      </trkpt>
      <trkpt lat="43.126691999999956" lon="-1.2443170000000017">
        <ele>444.890</ele>
        <time>2022-08-24T07:04:42Z</time>
      </trkpt>
      <trkpt lat="43.12667999999996" lon="-1.2443240000000018">
        <ele>445.064</ele>
        <time>2022-08-24T07:04:43Z</time>
      </trkpt>
      <trkpt lat="43.12666799999996" lon="-1.2443310000000019">
        <ele>445.206</ele>
        <time>2022-08-24T07:04:44Z</time>
      </trkpt>
      <trkpt lat="43.12665599999996" lon="-1.2443340000000018">
        <ele>445.416</ele>
        <time>2022-08-24T07:04:45Z</time>
      </trkpt>
      <trkpt lat="43.12664199999996" lon="-1.2443350000000017">
        <ele>445.409</ele>
        <time>2022-08-24T07:04:46Z</time>
      </trkpt>
      <trkpt lat="43.12663099999996" lon="-1.2443370000000018">
        <ele>445.687</ele>
        <time>2022-08-24T07:04:47Z</time>
      </trkpt>
      <trkpt lat="43.12661999999996" lon="-1.2443390000000019">
        <ele>445.637</ele>
        <time>2022-08-24T07:04:48Z</time>
      </trkpt>
      <trkpt lat="43.12660899999996" lon="-1.244341000000002">
        <ele>445.857</ele>
        <time>2022-08-24T07:04:49Z</time>
      </trkpt>
      <trkpt lat="43.12659999999996" lon="-1.2443450000000018">
        <ele>446.013</ele>
        <time>2022-08-24T07:04:50Z</time>
      </trkpt>
      <trkpt lat="43.12659099999996" lon="-1.2443500000000018">
        <ele>446.235</ele>
        <time>2022-08-24T07:04:51Z</time>
      </trkpt>
      <trkpt lat="43.12658099999996" lon="-1.2443540000000017">
        <ele>446.422</ele>
        <time>2022-08-24T07:04:52Z</time>
      </trkpt>
      <trkpt lat="43.126570999999956" lon="-1.2443560000000018">
        <ele>446.665</ele>
        <time>2022-08-24T07:04:53Z</time>
      </trkpt>
      <trkpt lat="43.12656199999996" lon="-1.2443580000000019">
        <ele>446.639</ele>
        <time>2022-08-24T07:04:54Z</time>
      </trkpt>
      <trkpt lat="43.12655099999996" lon="-1.2443580000000019">
        <ele>446.818</ele>
        <time>2022-08-24T07:04:55Z</time>
      </trkpt>
      <trkpt lat="43.12654099999995" lon="-1.2443560000000018">
        <ele>447.066</ele>
        <time>2022-08-24T07:04:56Z</time>
      </trkpt>
      <trkpt lat="43.12653099999995" lon="-1.2443540000000017">
        <ele>447.229</ele>
        <time>2022-08-24T07:04:57Z</time>
      </trkpt>
      <trkpt lat="43.12651999999995" lon="-1.2443550000000017">
        <ele>447.421</ele>
        <time>2022-08-24T07:04:58Z</time>
      </trkpt>
      <trkpt lat="43.12650899999995" lon="-1.2443570000000017">
        <ele>447.609</ele>
        <time>2022-08-24T07:04:59Z</time>
      </trkpt>
      <trkpt lat="43.12649799999995" lon="-1.2443620000000017">
        <ele>447.897</ele>
        <time>2022-08-24T07:05:00Z</time>
      </trkpt>
      <trkpt lat="43.126487999999945" lon="-1.2443690000000018">
        <ele>448.047</ele>
        <time>2022-08-24T07:05:01Z</time>
      </trkpt>
      <trkpt lat="43.12647799999994" lon="-1.2443770000000018">
        <ele>448.087</ele>
        <time>2022-08-24T07:05:02Z</time>
      </trkpt>
      <trkpt lat="43.12646799999994" lon="-1.2443820000000019">
        <ele>448.243</ele>
        <time>2022-08-24T07:05:03Z</time>
      </trkpt>
      <trkpt lat="43.126457999999936" lon="-1.2443850000000019">
        <ele>448.265</ele>
        <time>2022-08-24T07:05:04Z</time>
      </trkpt>
      <trkpt lat="43.126449999999934" lon="-1.2443890000000017">
        <ele>448.652</ele>
        <time>2022-08-24T07:05:05Z</time>
      </trkpt>
      <trkpt lat="43.126438999999934" lon="-1.2443910000000018">
        <ele>448.815</ele>
        <time>2022-08-24T07:05:06Z</time>
      </trkpt>
      <trkpt lat="43.12642899999993" lon="-1.2443970000000018">
        <ele>448.839</ele>
        <time>2022-08-24T07:05:07Z</time>
      </trkpt>
      <trkpt lat="43.12641999999993" lon="-1.2444040000000018">
        <ele>448.848</ele>
        <time>2022-08-24T07:05:08Z</time>
      </trkpt>
      <trkpt lat="43.12640899999993" lon="-1.2444090000000019">
        <ele>449.074</ele>
        <time>2022-08-24T07:05:09Z</time>
      </trkpt>
      <trkpt lat="43.12639999999993" lon="-1.2444130000000018">
        <ele>449.256</ele>
        <time>2022-08-24T07:05:10Z</time>
      </trkpt>
      <trkpt lat="43.126392999999936" lon="-1.2444160000000017">
        <ele>449.421</ele>
        <time>2022-08-24T07:05:11Z</time>
      </trkpt>
      <trkpt lat="43.12638399999994" lon="-1.2444200000000016">
        <ele>449.609</ele>
        <time>2022-08-24T07:05:12Z</time>
      </trkpt>
      <trkpt lat="43.12637699999994" lon="-1.2444270000000017">
        <ele>450.068</ele>
        <time>2022-08-24T07:05:13Z</time>
      </trkpt>
      <trkpt lat="43.12636599999994" lon="-1.2444310000000016">
        <ele>450.288</ele>
        <time>2022-08-24T07:05:14Z</time>
      </trkpt>
      <trkpt lat="43.12635399999994" lon="-1.2444350000000015">
        <ele>450.248</ele>
        <time>2022-08-24T07:05:15Z</time>
      </trkpt>
      <trkpt lat="43.12634299999994" lon="-1.2444420000000016">
        <ele>450.464</ele>
        <time>2022-08-24T07:05:16Z</time>
      </trkpt>
      <trkpt lat="43.12633299999994" lon="-1.2444490000000017">
        <ele>450.626</ele>
        <time>2022-08-24T07:05:17Z</time>
      </trkpt>
      <trkpt lat="43.12632099999994" lon="-1.2444520000000017">
        <ele>450.663</ele>
        <time>2022-08-24T07:05:18Z</time>
      </trkpt>
      <trkpt lat="43.12630899999994" lon="-1.2444570000000017">
        <ele>450.866</ele>
        <time>2022-08-24T07:05:19Z</time>
      </trkpt>
      <trkpt lat="43.12630899999994" lon="-1.2444570000000017">
        <ele>451.070</ele>
        <time>2022-08-24T07:05:20Z</time>
      </trkpt>
      <trkpt lat="43.12628899999994" lon="-1.2444680000000017">
        <ele>451.239</ele>
        <time>2022-08-24T07:05:21Z</time>
      </trkpt>
      <trkpt lat="43.12627899999994" lon="-1.2444720000000016">
        <ele>451.638</ele>
        <time>2022-08-24T07:05:22Z</time>
      </trkpt>
      <trkpt lat="43.12626899999994" lon="-1.2444790000000017">
        <ele>451.670</ele>
        <time>2022-08-24T07:05:23Z</time>
      </trkpt>
      <trkpt lat="43.12625899999993" lon="-1.2444870000000017">
        <ele>451.817</ele>
        <time>2022-08-24T07:05:24Z</time>
      </trkpt>
      <trkpt lat="43.12624899999993" lon="-1.2444930000000016">
        <ele>451.809</ele>
        <time>2022-08-24T07:05:25Z</time>
      </trkpt>
      <trkpt lat="43.12623999999993" lon="-1.2444920000000017">
        <ele>452.274</ele>
        <time>2022-08-24T07:05:26Z</time>
      </trkpt>
      <trkpt lat="43.126227999999934" lon="-1.2444930000000016">
        <ele>452.244</ele>
        <time>2022-08-24T07:05:27Z</time>
      </trkpt>
      <trkpt lat="43.12621699999993" lon="-1.2444960000000016">
        <ele>452.664</ele>
        <time>2022-08-24T07:05:28Z</time>
      </trkpt>
      <trkpt lat="43.12620699999993" lon="-1.2444990000000016">
        <ele>452.870</ele>
        <time>2022-08-24T07:05:29Z</time>
      </trkpt>
      <trkpt lat="43.12619699999993" lon="-1.2445040000000016">
        <ele>452.852</ele>
        <time>2022-08-24T07:05:30Z</time>
      </trkpt>
      <trkpt lat="43.12618699999992" lon="-1.2445100000000016">
        <ele>453.069</ele>
        <time>2022-08-24T07:05:31Z</time>
      </trkpt>
      <trkpt lat="43.12617699999992" lon="-1.2445130000000015">
        <ele>453.272</ele>
        <time>2022-08-24T07:05:32Z</time>
      </trkpt>
      <trkpt lat="43.12616699999992" lon="-1.2445180000000016">
        <ele>453.286</ele>
        <time>2022-08-24T07:05:33Z</time>
      </trkpt>
      <trkpt lat="43.12615799999992" lon="-1.2445230000000016">
        <ele>453.445</ele>
        <time>2022-08-24T07:05:34Z</time>
      </trkpt>
      <trkpt lat="43.12614899999992" lon="-1.2445300000000017">
        <ele>453.445</ele>
        <time>2022-08-24T07:05:35Z</time>
      </trkpt>
      <trkpt lat="43.12613999999992" lon="-1.2445380000000017">
        <ele>453.847</ele>
        <time>2022-08-24T07:05:36Z</time>
      </trkpt>
      <trkpt lat="43.12613099999992" lon="-1.2445460000000017">
        <ele>453.811</ele>
        <time>2022-08-24T07:05:37Z</time>
      </trkpt>
      <trkpt lat="43.12612099999992" lon="-1.2445530000000018">
        <ele>454.009</ele>
        <time>2022-08-24T07:05:38Z</time>
      </trkpt>
      <trkpt lat="43.126110999999916" lon="-1.2445580000000018">
        <ele>454.275</ele>
        <time>2022-08-24T07:05:39Z</time>
      </trkpt>
      <trkpt lat="43.12610099999991" lon="-1.2445600000000019">
        <ele>454.485</ele>
        <time>2022-08-24T07:05:40Z</time>
      </trkpt>
      <trkpt lat="43.12608999999991" lon="-1.244562000000002">
        <ele>454.685</ele>
        <time>2022-08-24T07:05:41Z</time>
      </trkpt>
      <trkpt lat="43.12608399999991" lon="-1.2445710000000019">
        <ele>454.871</ele>
        <time>2022-08-24T07:05:42Z</time>
      </trkpt>
      <trkpt lat="43.12607299999991" lon="-1.2445830000000018">
        <ele>455.023</ele>
        <time>2022-08-24T07:05:43Z</time>
      </trkpt>
      <trkpt lat="43.12606299999991" lon="-1.2445910000000018">
        <ele>455.230</ele>
        <time>2022-08-24T07:05:44Z</time>
      </trkpt>
      <trkpt lat="43.12605299999991" lon="-1.2445970000000017">
        <ele>455.443</ele>
        <time>2022-08-24T07:05:45Z</time>
      </trkpt>
      <trkpt lat="43.126041999999906" lon="-1.2446000000000017">
        <ele>455.437</ele>
        <time>2022-08-24T07:05:46Z</time>
      </trkpt>
      <trkpt lat="43.1260319999999" lon="-1.2446030000000017">
        <ele>455.666</ele>
        <time>2022-08-24T07:05:47Z</time>
      </trkpt>
      <trkpt lat="43.126019999999905" lon="-1.2446020000000018">
        <ele>455.659</ele>
        <time>2022-08-24T07:05:48Z</time>
      </trkpt>
      <trkpt lat="43.1260099999999" lon="-1.2445990000000018">
        <ele>455.803</ele>
        <time>2022-08-24T07:05:49Z</time>
      </trkpt>
      <trkpt lat="43.1259989999999" lon="-1.2445970000000017">
        <ele>456.223</ele>
        <time>2022-08-24T07:05:50Z</time>
      </trkpt>
      <trkpt lat="43.1259879999999" lon="-1.2445950000000017">
        <ele>456.209</ele>
        <time>2022-08-24T07:05:51Z</time>
      </trkpt>
      <trkpt lat="43.1259779999999" lon="-1.2445950000000017">
        <ele>456.466</ele>
        <time>2022-08-24T07:05:52Z</time>
      </trkpt>
      <trkpt lat="43.125969999999896" lon="-1.2446040000000016">
        <ele>456.466</ele>
        <time>2022-08-24T07:05:53Z</time>
      </trkpt>
      <trkpt lat="43.12595999999989" lon="-1.2446090000000016">
        <ele>456.626</ele>
        <time>2022-08-24T07:05:54Z</time>
      </trkpt>
      <trkpt lat="43.12594999999989" lon="-1.2446140000000017">
        <ele>456.842</ele>
        <time>2022-08-24T07:05:55Z</time>
      </trkpt>
      <trkpt lat="43.12594099999989" lon="-1.2446190000000017">
        <ele>457.074</ele>
        <time>2022-08-24T07:05:56Z</time>
      </trkpt>
      <trkpt lat="43.125933999999894" lon="-1.2446250000000016">
        <ele>457.441</ele>
        <time>2022-08-24T07:05:57Z</time>
      </trkpt>
      <trkpt lat="43.12592599999989" lon="-1.2446260000000016">
        <ele>457.484</ele>
        <time>2022-08-24T07:05:58Z</time>
      </trkpt>
      <trkpt lat="43.1259189999999" lon="-1.2446270000000015">
        <ele>457.648</ele>
        <time>2022-08-24T07:05:59Z</time>
      </trkpt>
      <trkpt lat="43.125910999999896" lon="-1.2446250000000014">
        <ele>457.687</ele>
        <time>2022-08-24T07:06:00Z</time>
      </trkpt>
      <trkpt lat="43.12590099999989" lon="-1.2446200000000014">
        <ele>458.052</ele>
        <time>2022-08-24T07:06:01Z</time>
      </trkpt>
      <trkpt lat="43.125891999999894" lon="-1.2446150000000014">
        <ele>458.053</ele>
        <time>2022-08-24T07:06:02Z</time>
      </trkpt>
      <trkpt lat="43.125879999999896" lon="-1.2446090000000014">
        <ele>458.208</ele>
        <time>2022-08-24T07:06:03Z</time>
      </trkpt>
      <trkpt lat="43.12586999999989" lon="-1.2446030000000015">
        <ele>458.409</ele>
        <time>2022-08-24T07:06:04Z</time>
      </trkpt>
      <trkpt lat="43.12585899999989" lon="-1.2446000000000015">
        <ele>458.436</ele>
        <time>2022-08-24T07:06:05Z</time>
      </trkpt>
      <trkpt lat="43.125846999999894" lon="-1.2446010000000014">
        <ele>458.646</ele>
        <time>2022-08-24T07:06:06Z</time>
      </trkpt>
      <trkpt lat="43.12583699999989" lon="-1.2446040000000014">
        <ele>458.876</ele>
        <time>2022-08-24T07:06:07Z</time>
      </trkpt>
      <trkpt lat="43.125829999999894" lon="-1.2446120000000014">
        <ele>459.022</ele>
        <time>2022-08-24T07:06:08Z</time>
      </trkpt>
      <trkpt lat="43.1258229999999" lon="-1.2446200000000014">
        <ele>459.244</ele>
        <time>2022-08-24T07:06:09Z</time>
      </trkpt>
      <trkpt lat="43.1258139999999" lon="-1.2446250000000014">
        <ele>459.251</ele>
        <time>2022-08-24T07:06:10Z</time>
      </trkpt>
      <trkpt lat="43.1257999999999" lon="-1.2446290000000013">
        <ele>459.424</ele>
        <time>2022-08-24T07:06:11Z</time>
      </trkpt>
      <trkpt lat="43.1257889999999" lon="-1.2446250000000014">
        <ele>459.628</ele>
        <time>2022-08-24T07:06:12Z</time>
      </trkpt>
      <trkpt lat="43.125778999999895" lon="-1.2446220000000014">
        <ele>459.817</ele>
        <time>2022-08-24T07:06:13Z</time>
      </trkpt>
      <trkpt lat="43.1257669999999" lon="-1.2446150000000014">
        <ele>460.094</ele>
        <time>2022-08-24T07:06:14Z</time>
      </trkpt>
      <trkpt lat="43.12575699999989" lon="-1.2446160000000013">
        <ele>460.257</ele>
        <time>2022-08-24T07:06:15Z</time>
      </trkpt>
      <trkpt lat="43.125747999999895" lon="-1.2446250000000012">
        <ele>460.222</ele>
        <time>2022-08-24T07:06:16Z</time>
      </trkpt>
      <trkpt lat="43.125747999999895" lon="-1.2446250000000012">
        <ele>460.409</ele>
        <time>2022-08-24T07:06:17Z</time>
      </trkpt>
      <trkpt lat="43.1257269999999" lon="-1.2446410000000012">
        <ele>460.670</ele>
        <time>2022-08-24T07:06:18Z</time>
      </trkpt>
      <trkpt lat="43.1257159999999" lon="-1.2446420000000011">
        <ele>460.880</ele>
        <time>2022-08-24T07:06:19Z</time>
      </trkpt>
      <trkpt lat="43.1257019999999" lon="-1.244646000000001">
        <ele>461.030</ele>
        <time>2022-08-24T07:06:20Z</time>
      </trkpt>
      <trkpt lat="43.125688999999895" lon="-1.244644000000001">
        <ele>461.246</ele>
        <time>2022-08-24T07:06:21Z</time>
      </trkpt>
      <trkpt lat="43.1256739999999" lon="-1.244642000000001">
        <ele>461.438</ele>
        <time>2022-08-24T07:06:22Z</time>
      </trkpt>
      <trkpt lat="43.125657999999895" lon="-1.2446400000000009">
        <ele>461.655</ele>
        <time>2022-08-24T07:06:23Z</time>
      </trkpt>
      <trkpt lat="43.1256459999999" lon="-1.2446430000000008">
        <ele>462.068</ele>
        <time>2022-08-24T07:06:24Z</time>
      </trkpt>
      <trkpt lat="43.1256309999999" lon="-1.244645000000001">
        <ele>462.662</ele>
        <time>2022-08-24T07:06:25Z</time>
      </trkpt>
      <trkpt lat="43.1256199999999" lon="-1.244644000000001">
        <ele>462.861</ele>
        <time>2022-08-24T07:06:26Z</time>
      </trkpt>
      <trkpt lat="43.1256029999999" lon="-1.244638000000001">
        <ele>463.062</ele>
        <time>2022-08-24T07:06:27Z</time>
      </trkpt>
      <trkpt lat="43.1255909999999" lon="-1.244637000000001">
        <ele>463.283</ele>
        <time>2022-08-24T07:06:28Z</time>
      </trkpt>
      <trkpt lat="43.1255769999999" lon="-1.244640000000001">
        <ele>463.411</ele>
        <time>2022-08-24T07:06:29Z</time>
      </trkpt>
      <trkpt lat="43.1255619999999" lon="-1.244649000000001">
        <ele>463.609</ele>
        <time>2022-08-24T07:06:30Z</time>
      </trkpt>
      <trkpt lat="43.125546999999905" lon="-1.244657000000001">
        <ele>463.897</ele>
        <time>2022-08-24T07:06:31Z</time>
      </trkpt>
      <trkpt lat="43.125532999999905" lon="-1.244660000000001">
        <ele>464.257</ele>
        <time>2022-08-24T07:06:32Z</time>
      </trkpt>
      <trkpt lat="43.125515999999905" lon="-1.244663000000001">
        <ele>464.427</ele>
        <time>2022-08-24T07:06:33Z</time>
      </trkpt>
      <trkpt lat="43.125501999999905" lon="-1.244665000000001">
        <ele>464.633</ele>
        <time>2022-08-24T07:06:34Z</time>
      </trkpt>
      <trkpt lat="43.12548999999991" lon="-1.244664000000001">
        <ele>465.075</ele>
        <time>2022-08-24T07:06:35Z</time>
      </trkpt>
      <trkpt lat="43.12548999999991" lon="-1.244664000000001">
        <ele>465.432</ele>
        <time>2022-08-24T07:06:36Z</time>
      </trkpt>
      <trkpt lat="43.12546699999991" lon="-1.244670000000001">
        <ele>465.655</ele>
        <time>2022-08-24T07:06:37Z</time>
      </trkpt>
      <trkpt lat="43.12545499999991" lon="-1.2446660000000012">
        <ele>466.049</ele>
        <time>2022-08-24T07:06:38Z</time>
      </trkpt>
      <trkpt lat="43.12544299999991" lon="-1.2446610000000011">
        <ele>466.218</ele>
        <time>2022-08-24T07:06:39Z</time>
      </trkpt>
      <trkpt lat="43.12543299999991" lon="-1.244664000000001">
        <ele>466.443</ele>
        <time>2022-08-24T07:06:40Z</time>
      </trkpt>
      <trkpt lat="43.12542499999991" lon="-1.244668000000001">
        <ele>466.864</ele>
        <time>2022-08-24T07:06:41Z</time>
      </trkpt>
      <trkpt lat="43.12541599999991" lon="-1.244671000000001">
        <ele>466.810</ele>
        <time>2022-08-24T07:06:42Z</time>
      </trkpt>
      <trkpt lat="43.125405999999906" lon="-1.2446750000000009">
        <ele>467.209</ele>
        <time>2022-08-24T07:06:43Z</time>
      </trkpt>
      <trkpt lat="43.12539399999991" lon="-1.244674000000001">
        <ele>467.255</ele>
        <time>2022-08-24T07:06:44Z</time>
      </trkpt>
      <trkpt lat="43.12538499999991" lon="-1.244676000000001">
        <ele>467.455</ele>
        <time>2022-08-24T07:06:45Z</time>
      </trkpt>
      <trkpt lat="43.125374999999906" lon="-1.244676000000001">
        <ele>467.685</ele>
        <time>2022-08-24T07:06:46Z</time>
      </trkpt>
      <trkpt lat="43.125366999999905" lon="-1.244676000000001">
        <ele>467.851</ele>
        <time>2022-08-24T07:06:47Z</time>
      </trkpt>
      <trkpt lat="43.12535499999991" lon="-1.244680000000001">
        <ele>468.283</ele>
        <time>2022-08-24T07:06:48Z</time>
      </trkpt>
      <trkpt lat="43.12534299999991" lon="-1.2446860000000008">
        <ele>468.460</ele>
        <time>2022-08-24T07:06:49Z</time>
      </trkpt>
      <trkpt lat="43.12532899999991" lon="-1.2446950000000008">
        <ele>468.633</ele>
        <time>2022-08-24T07:06:50Z</time>
      </trkpt>
      <trkpt lat="43.12531699999991" lon="-1.2447040000000007">
        <ele>468.837</ele>
        <time>2022-08-24T07:06:51Z</time>
      </trkpt>
      <trkpt lat="43.12530699999991" lon="-1.2447090000000007">
        <ele>469.076</ele>
        <time>2022-08-24T07:06:52Z</time>
      </trkpt>
      <trkpt lat="43.125293999999904" lon="-1.2447100000000006">
        <ele>469.224</ele>
        <time>2022-08-24T07:06:53Z</time>
      </trkpt>
      <trkpt lat="43.125282999999904" lon="-1.2447120000000007">
        <ele>469.204</ele>
        <time>2022-08-24T07:06:54Z</time>
      </trkpt>
      <trkpt lat="43.1252729999999" lon="-1.2447140000000008">
        <ele>469.414</ele>
        <time>2022-08-24T07:06:55Z</time>
      </trkpt>
      <trkpt lat="43.1252619999999" lon="-1.2447160000000008">
        <ele>469.609</ele>
        <time>2022-08-24T07:06:56Z</time>
      </trkpt>
      <trkpt lat="43.1252509999999" lon="-1.244715000000001">
        <ele>469.643</ele>
        <time>2022-08-24T07:06:57Z</time>
      </trkpt>
      <trkpt lat="43.125240999999896" lon="-1.244711000000001">
        <ele>469.833</ele>
        <time>2022-08-24T07:06:58Z</time>
      </trkpt>
      <trkpt lat="43.12523099999989" lon="-1.244706000000001">
        <ele>470.073</ele>
        <time>2022-08-24T07:06:59Z</time>
      </trkpt>
      <trkpt lat="43.12522099999989" lon="-1.2446990000000009">
        <ele>470.239</ele>
        <time>2022-08-24T07:07:00Z</time>
      </trkpt>
      <trkpt lat="43.12521099999989" lon="-1.2446910000000009">
        <ele>470.471</ele>
        <time>2022-08-24T07:07:01Z</time>
      </trkpt>
      <trkpt lat="43.125199999999886" lon="-1.244688000000001">
        <ele>470.648</ele>
        <time>2022-08-24T07:07:02Z</time>
      </trkpt>
      <trkpt lat="43.125188999999885" lon="-1.244685000000001">
        <ele>470.631</ele>
        <time>2022-08-24T07:07:03Z</time>
      </trkpt>
      <trkpt lat="43.125177999999885" lon="-1.2446860000000008">
        <ele>470.875</ele>
        <time>2022-08-24T07:07:04Z</time>
      </trkpt>
      <trkpt lat="43.12517099999989" lon="-1.2446910000000009">
        <ele>471.084</ele>
        <time>2022-08-24T07:07:05Z</time>
      </trkpt>
      <trkpt lat="43.125165999999886" lon="-1.2446940000000009">
        <ele>471.434</ele>
        <time>2022-08-24T07:07:06Z</time>
      </trkpt>
      <trkpt lat="43.12515899999989" lon="-1.2446970000000008">
        <ele>471.655</ele>
        <time>2022-08-24T07:07:07Z</time>
      </trkpt>
      <trkpt lat="43.12514599999989" lon="-1.2446980000000007">
        <ele>471.610</ele>
        <time>2022-08-24T07:07:08Z</time>
      </trkpt>
      <trkpt lat="43.12513199999989" lon="-1.2447020000000006">
        <ele>471.809</ele>
        <time>2022-08-24T07:07:09Z</time>
      </trkpt>
      <trkpt lat="43.125121999999884" lon="-1.2447020000000006">
        <ele>472.044</ele>
        <time>2022-08-24T07:07:10Z</time>
      </trkpt>
      <trkpt lat="43.125112999999885" lon="-1.2447040000000007">
        <ele>472.434</ele>
        <time>2022-08-24T07:07:11Z</time>
      </trkpt>
      <trkpt lat="43.12510399999989" lon="-1.2447100000000006">
        <ele>472.464</ele>
        <time>2022-08-24T07:07:12Z</time>
      </trkpt>
      <trkpt lat="43.12509199999989" lon="-1.2447140000000005">
        <ele>472.890</ele>
        <time>2022-08-24T07:07:13Z</time>
      </trkpt>
      <trkpt lat="43.125081999999885" lon="-1.2447180000000004">
        <ele>473.022</ele>
        <time>2022-08-24T07:07:14Z</time>
      </trkpt>
      <trkpt lat="43.12506999999989" lon="-1.2447190000000004">
        <ele>473.229</ele>
        <time>2022-08-24T07:07:15Z</time>
      </trkpt>
      <trkpt lat="43.12505899999989" lon="-1.2447180000000004">
        <ele>473.282</ele>
        <time>2022-08-24T07:07:16Z</time>
      </trkpt>
      <trkpt lat="43.12504699999989" lon="-1.2447100000000004">
        <ele>473.466</ele>
        <time>2022-08-24T07:07:17Z</time>
      </trkpt>
      <trkpt lat="43.12503299999989" lon="-1.2447070000000005">
        <ele>473.685</ele>
        <time>2022-08-24T07:07:18Z</time>
      </trkpt>
      <trkpt lat="43.12501899999989" lon="-1.2447060000000005">
        <ele>473.839</ele>
        <time>2022-08-24T07:07:19Z</time>
      </trkpt>
      <trkpt lat="43.12500999999989" lon="-1.2447090000000005">
        <ele>473.801</ele>
        <time>2022-08-24T07:07:20Z</time>
      </trkpt>
      <trkpt lat="43.12500199999989" lon="-1.2447090000000005">
        <ele>474.221</ele>
        <time>2022-08-24T07:07:21Z</time>
      </trkpt>
      <trkpt lat="43.12499499999989" lon="-1.2447080000000006">
        <ele>474.409</ele>
        <time>2022-08-24T07:07:22Z</time>
      </trkpt>
      <trkpt lat="43.124987999999895" lon="-1.2447030000000006">
        <ele>474.684</ele>
        <time>2022-08-24T07:07:23Z</time>
      </trkpt>
      <trkpt lat="43.12497799999989" lon="-1.2446960000000005">
        <ele>474.654</ele>
        <time>2022-08-24T07:07:24Z</time>
      </trkpt>
      <trkpt lat="43.12496399999989" lon="-1.2446940000000004">
        <ele>475.034</ele>
        <time>2022-08-24T07:07:25Z</time>
      </trkpt>
      <trkpt lat="43.124951999999894" lon="-1.2446990000000004">
        <ele>475.070</ele>
        <time>2022-08-24T07:07:26Z</time>
      </trkpt>
      <trkpt lat="43.12494099999989" lon="-1.2447040000000005">
        <ele>475.442</ele>
        <time>2022-08-24T07:07:27Z</time>
      </trkpt>
      <trkpt lat="43.12494099999989" lon="-1.2447040000000005">
        <ele>475.889</ele>
        <time>2022-08-24T07:07:28Z</time>
      </trkpt>
      <trkpt lat="43.12491899999989" lon="-1.2447190000000006">
        <ele>476.012</ele>
        <time>2022-08-24T07:07:29Z</time>
      </trkpt>
      <trkpt lat="43.12490899999989" lon="-1.2447250000000005">
        <ele>476.296</ele>
        <time>2022-08-24T07:07:30Z</time>
      </trkpt>
      <trkpt lat="43.12489999999989" lon="-1.2447320000000006">
        <ele>476.475</ele>
        <time>2022-08-24T07:07:31Z</time>
      </trkpt>
      <trkpt lat="43.12489199999989" lon="-1.2447420000000007">
        <ele>476.843</ele>
        <time>2022-08-24T07:07:32Z</time>
      </trkpt>
      <trkpt lat="43.12488399999989" lon="-1.2447520000000007">
        <ele>476.864</ele>
        <time>2022-08-24T07:07:33Z</time>
      </trkpt>
      <trkpt lat="43.124873999999885" lon="-1.2447600000000008">
        <ele>477.010</ele>
        <time>2022-08-24T07:07:34Z</time>
      </trkpt>
      <trkpt lat="43.124864999999886" lon="-1.2447630000000007">
        <ele>477.009</ele>
        <time>2022-08-24T07:07:35Z</time>
      </trkpt>
      <trkpt lat="43.12485599999989" lon="-1.2447670000000006">
        <ele>477.245</ele>
        <time>2022-08-24T07:07:36Z</time>
      </trkpt>
      <trkpt lat="43.124845999999884" lon="-1.2447740000000007">
        <ele>477.475</ele>
        <time>2022-08-24T07:07:37Z</time>
      </trkpt>
      <trkpt lat="43.124836999999886" lon="-1.2447820000000007">
        <ele>477.425</ele>
        <time>2022-08-24T07:07:38Z</time>
      </trkpt>
      <trkpt lat="43.124828999999885" lon="-1.2447870000000008">
        <ele>477.831</ele>
        <time>2022-08-24T07:07:39Z</time>
      </trkpt>
      <trkpt lat="43.12481899999988" lon="-1.2447910000000006">
        <ele>478.023</ele>
        <time>2022-08-24T07:07:40Z</time>
      </trkpt>
      <trkpt lat="43.12480599999988" lon="-1.2447950000000005">
        <ele>478.250</ele>
        <time>2022-08-24T07:07:41Z</time>
      </trkpt>
      <trkpt lat="43.124795999999876" lon="-1.2448010000000005">
        <ele>478.433</ele>
        <time>2022-08-24T07:07:42Z</time>
      </trkpt>
      <trkpt lat="43.124784999999875" lon="-1.2448040000000005">
        <ele>478.427</ele>
        <time>2022-08-24T07:07:43Z</time>
      </trkpt>
      <trkpt lat="43.124773999999874" lon="-1.2448010000000005">
        <ele>478.496</ele>
        <time>2022-08-24T07:07:44Z</time>
      </trkpt>
      <trkpt lat="43.124764999999876" lon="-1.2447970000000006">
        <ele>478.613</ele>
        <time>2022-08-24T07:07:45Z</time>
      </trkpt>
      <trkpt lat="43.12475299999988" lon="-1.2448030000000005">
        <ele>479.043</ele>
        <time>2022-08-24T07:07:46Z</time>
      </trkpt>
      <trkpt lat="43.124739999999875" lon="-1.2448120000000005">
        <ele>479.007</ele>
        <time>2022-08-24T07:07:47Z</time>
      </trkpt>
      <trkpt lat="43.12472499999988" lon="-1.2448190000000006">
        <ele>479.209</ele>
        <time>2022-08-24T07:07:48Z</time>
      </trkpt>
      <trkpt lat="43.12471399999988" lon="-1.2448270000000006">
        <ele>479.482</ele>
        <time>2022-08-24T07:07:49Z</time>
      </trkpt>
      <trkpt lat="43.12470499999988" lon="-1.2448390000000005">
        <ele>479.412</ele>
        <time>2022-08-24T07:07:50Z</time>
      </trkpt>
      <trkpt lat="43.12469699999988" lon="-1.2448490000000005">
        <ele>479.872</ele>
        <time>2022-08-24T07:07:51Z</time>
      </trkpt>
      <trkpt lat="43.124688999999876" lon="-1.2448570000000005">
        <ele>479.898</ele>
        <time>2022-08-24T07:07:52Z</time>
      </trkpt>
      <trkpt lat="43.124680999999875" lon="-1.2448630000000005">
        <ele>480.010</ele>
        <time>2022-08-24T07:07:53Z</time>
      </trkpt>
      <trkpt lat="43.124671999999876" lon="-1.2448660000000005">
        <ele>480.257</ele>
        <time>2022-08-24T07:07:54Z</time>
      </trkpt>
      <trkpt lat="43.12466299999988" lon="-1.2448670000000004">
        <ele>480.230</ele>
        <time>2022-08-24T07:07:55Z</time>
      </trkpt>
      <trkpt lat="43.12465199999988" lon="-1.2448670000000004">
        <ele>480.254</ele>
        <time>2022-08-24T07:07:56Z</time>
      </trkpt>
      <trkpt lat="43.124641999999874" lon="-1.2448690000000004">
        <ele>480.453</ele>
        <time>2022-08-24T07:07:57Z</time>
      </trkpt>
      <trkpt lat="43.12463099999987" lon="-1.2448740000000005">
        <ele>480.472</ele>
        <time>2022-08-24T07:07:58Z</time>
      </trkpt>
      <trkpt lat="43.124624999999874" lon="-1.2448810000000006">
        <ele>480.613</ele>
        <time>2022-08-24T07:07:59Z</time>
      </trkpt>
      <trkpt lat="43.124615999999875" lon="-1.2448910000000006">
        <ele>480.614</ele>
        <time>2022-08-24T07:08:00Z</time>
      </trkpt>
      <trkpt lat="43.12460699999988" lon="-1.2449000000000006">
        <ele>480.809</ele>
        <time>2022-08-24T07:08:01Z</time>
      </trkpt>
      <trkpt lat="43.12459799999988" lon="-1.2449080000000006">
        <ele>480.868</ele>
        <time>2022-08-24T07:08:02Z</time>
      </trkpt>
      <trkpt lat="43.12458699999988" lon="-1.2449150000000007">
        <ele>481.028</ele>
        <time>2022-08-24T07:08:03Z</time>
      </trkpt>
      <trkpt lat="43.124576999999874" lon="-1.2449200000000007">
        <ele>481.028</ele>
        <time>2022-08-24T07:08:04Z</time>
      </trkpt>
      <trkpt lat="43.124567999999876" lon="-1.2449240000000006">
        <ele>481.264</ele>
        <time>2022-08-24T07:08:05Z</time>
      </trkpt>
      <trkpt lat="43.12455899999988" lon="-1.2449260000000006">
        <ele>481.256</ele>
        <time>2022-08-24T07:08:06Z</time>
      </trkpt>
      <trkpt lat="43.12454699999988" lon="-1.2449220000000008">
        <ele>481.413</ele>
        <time>2022-08-24T07:08:07Z</time>
      </trkpt>
      <trkpt lat="43.124533999999876" lon="-1.2449220000000008">
        <ele>481.656</ele>
        <time>2022-08-24T07:08:08Z</time>
      </trkpt>
      <trkpt lat="43.12452099999987" lon="-1.2449210000000008">
        <ele>481.620</ele>
        <time>2022-08-24T07:08:09Z</time>
      </trkpt>
      <trkpt lat="43.124508999999875" lon="-1.2449240000000008">
        <ele>482.079</ele>
        <time>2022-08-24T07:08:10Z</time>
      </trkpt>
      <trkpt lat="43.12449599999987" lon="-1.2449270000000008">
        <ele>482.027</ele>
        <time>2022-08-24T07:08:11Z</time>
      </trkpt>
      <trkpt lat="43.124486999999874" lon="-1.2449260000000009">
        <ele>482.268</ele>
        <time>2022-08-24T07:08:12Z</time>
      </trkpt>
      <trkpt lat="43.12447699999987" lon="-1.2449270000000008">
        <ele>482.414</ele>
        <time>2022-08-24T07:08:13Z</time>
      </trkpt>
      <trkpt lat="43.12446799999987" lon="-1.2449290000000008">
        <ele>482.609</ele>
        <time>2022-08-24T07:08:14Z</time>
      </trkpt>
      <trkpt lat="43.12445799999987" lon="-1.2449320000000008">
        <ele>482.893</ele>
        <time>2022-08-24T07:08:15Z</time>
      </trkpt>
      <trkpt lat="43.12444599999987" lon="-1.2449360000000007">
        <ele>483.093</ele>
        <time>2022-08-24T07:08:16Z</time>
      </trkpt>
      <trkpt lat="43.12443599999987" lon="-1.2449400000000006">
        <ele>483.223</ele>
        <time>2022-08-24T07:08:17Z</time>
      </trkpt>
      <trkpt lat="43.12442899999987" lon="-1.2449430000000006">
        <ele>483.429</ele>
        <time>2022-08-24T07:08:18Z</time>
      </trkpt>
      <trkpt lat="43.12441899999987" lon="-1.2449450000000006">
        <ele>483.841</ele>
        <time>2022-08-24T07:08:19Z</time>
      </trkpt>
      <trkpt lat="43.124408999999865" lon="-1.2449450000000006">
        <ele>483.858</ele>
        <time>2022-08-24T07:08:20Z</time>
      </trkpt>
      <trkpt lat="43.12439899999986" lon="-1.2449450000000006">
        <ele>484.051</ele>
        <time>2022-08-24T07:08:21Z</time>
      </trkpt>
      <trkpt lat="43.124386999999864" lon="-1.2449470000000007">
        <ele>484.255</ele>
        <time>2022-08-24T07:08:22Z</time>
      </trkpt>
      <trkpt lat="43.124371999999866" lon="-1.2449500000000007">
        <ele>484.224</ele>
        <time>2022-08-24T07:08:23Z</time>
      </trkpt>
      <trkpt lat="43.12435999999987" lon="-1.2449570000000008">
        <ele>484.623</ele>
        <time>2022-08-24T07:08:24Z</time>
      </trkpt>
      <trkpt lat="43.12434899999987" lon="-1.2449580000000007">
        <ele>484.683</ele>
        <time>2022-08-24T07:08:25Z</time>
      </trkpt>
      <trkpt lat="43.12433699999987" lon="-1.2449590000000006">
        <ele>485.011</ele>
        <time>2022-08-24T07:08:26Z</time>
      </trkpt>
      <trkpt lat="43.12432899999987" lon="-1.2449610000000007">
        <ele>485.009</ele>
        <time>2022-08-24T07:08:27Z</time>
      </trkpt>
      <trkpt lat="43.12432099999987" lon="-1.2449640000000006">
        <ele>485.483</ele>
        <time>2022-08-24T07:08:28Z</time>
      </trkpt>
      <trkpt lat="43.124312999999866" lon="-1.2449640000000006">
        <ele>485.843</ele>
        <time>2022-08-24T07:08:29Z</time>
      </trkpt>
      <trkpt lat="43.12430299999986" lon="-1.2449650000000005">
        <ele>485.883</ele>
        <time>2022-08-24T07:08:30Z</time>
      </trkpt>
      <trkpt lat="43.124290999999864" lon="-1.2449660000000005">
        <ele>486.069</ele>
        <time>2022-08-24T07:08:31Z</time>
      </trkpt>
      <trkpt lat="43.124281999999866" lon="-1.2449690000000004">
        <ele>486.241</ele>
        <time>2022-08-24T07:08:32Z</time>
      </trkpt>
      <trkpt lat="43.124273999999865" lon="-1.2449730000000003">
        <ele>486.698</ele>
        <time>2022-08-24T07:08:33Z</time>
      </trkpt>
      <trkpt lat="43.124265999999864" lon="-1.2449790000000003">
        <ele>487.051</ele>
        <time>2022-08-24T07:08:34Z</time>
      </trkpt>
      <trkpt lat="43.12425799999986" lon="-1.2449890000000003">
        <ele>487.475</ele>
        <time>2022-08-24T07:08:35Z</time>
      </trkpt>
      <trkpt lat="43.12424999999986" lon="-1.2450000000000003">
        <ele>487.694</ele>
        <time>2022-08-24T07:08:36Z</time>
      </trkpt>
      <trkpt lat="43.12424199999986" lon="-1.2450060000000003">
        <ele>487.685</ele>
        <time>2022-08-24T07:08:37Z</time>
      </trkpt>
      <trkpt lat="43.12423699999986" lon="-1.2450100000000002">
        <ele>487.889</ele>
        <time>2022-08-24T07:08:38Z</time>
      </trkpt>
      <trkpt lat="43.12422999999986" lon="-1.2450170000000003">
        <ele>488.017</ele>
        <time>2022-08-24T07:08:39Z</time>
      </trkpt>
      <trkpt lat="43.124220999999864" lon="-1.2450280000000002">
        <ele>488.009</ele>
        <time>2022-08-24T07:08:40Z</time>
      </trkpt>
      <trkpt lat="43.12421099999986" lon="-1.2450390000000002">
        <ele>488.269</ele>
        <time>2022-08-24T07:08:41Z</time>
      </trkpt>
      <trkpt lat="43.12419999999986" lon="-1.2450440000000003">
        <ele>488.669</ele>
        <time>2022-08-24T07:08:42Z</time>
      </trkpt>
      <trkpt lat="43.12418499999986" lon="-1.2450520000000003">
        <ele>488.879</ele>
        <time>2022-08-24T07:08:43Z</time>
      </trkpt>
      <trkpt lat="43.124169999999864" lon="-1.2450550000000002">
        <ele>489.025</ele>
        <time>2022-08-24T07:08:44Z</time>
      </trkpt>
      <trkpt lat="43.124155999999864" lon="-1.2450580000000002">
        <ele>489.687</ele>
        <time>2022-08-24T07:08:45Z</time>
      </trkpt>
      <trkpt lat="43.124146999999866" lon="-1.2450620000000001">
        <ele>489.824</ele>
        <time>2022-08-24T07:08:46Z</time>
      </trkpt>
      <trkpt lat="43.12413799999987" lon="-1.2450640000000002">
        <ele>490.097</ele>
        <time>2022-08-24T07:08:47Z</time>
      </trkpt>
      <trkpt lat="43.12412899999987" lon="-1.2450670000000001">
        <ele>490.211</ele>
        <time>2022-08-24T07:08:48Z</time>
      </trkpt>
      <trkpt lat="43.12411799999987" lon="-1.245071">
        <ele>490.230</ele>
        <time>2022-08-24T07:08:49Z</time>
      </trkpt>
      <trkpt lat="43.124104999999865" lon="-1.245068">
        <ele>490.624</ele>
        <time>2022-08-24T07:08:50Z</time>
      </trkpt>
      <trkpt lat="43.124090999999865" lon="-1.2450620000000001">
        <ele>490.604</ele>
        <time>2022-08-24T07:08:51Z</time>
      </trkpt>
      <trkpt lat="43.12407899999987" lon="-1.245055">
        <ele>490.814</ele>
        <time>2022-08-24T07:08:52Z</time>
      </trkpt>
      <trkpt lat="43.12406999999987" lon="-1.2450510000000001">
        <ele>490.809</ele>
        <time>2022-08-24T07:08:53Z</time>
      </trkpt>
      <trkpt lat="43.124059999999865" lon="-1.2450450000000002">
        <ele>491.033</ele>
        <time>2022-08-24T07:08:54Z</time>
      </trkpt>
      <trkpt lat="43.12404799999987" lon="-1.2450450000000002">
        <ele>491.223</ele>
        <time>2022-08-24T07:08:55Z</time>
      </trkpt>
      <trkpt lat="43.124036999999866" lon="-1.2450520000000003">
        <ele>491.683</ele>
        <time>2022-08-24T07:08:56Z</time>
      </trkpt>
      <trkpt lat="43.12402799999987" lon="-1.2450580000000002">
        <ele>491.819</ele>
        <time>2022-08-24T07:08:57Z</time>
      </trkpt>
      <trkpt lat="43.12402199999987" lon="-1.2450560000000002">
        <ele>492.081</ele>
        <time>2022-08-24T07:08:58Z</time>
      </trkpt>
      <trkpt lat="43.12401599999987" lon="-1.2450500000000002">
        <ele>492.438</ele>
        <time>2022-08-24T07:08:59Z</time>
      </trkpt>
      <trkpt lat="43.124005999999866" lon="-1.2450420000000002">
        <ele>492.431</ele>
        <time>2022-08-24T07:09:00Z</time>
      </trkpt>
      <trkpt lat="43.12399699999987" lon="-1.2450360000000003">
        <ele>492.845</ele>
        <time>2022-08-24T07:09:01Z</time>
      </trkpt>
      <trkpt lat="43.12398799999987" lon="-1.2450280000000002">
        <ele>493.074</ele>
        <time>2022-08-24T07:09:02Z</time>
      </trkpt>
      <trkpt lat="43.123977999999866" lon="-1.2450240000000004">
        <ele>493.243</ele>
        <time>2022-08-24T07:09:03Z</time>
      </trkpt>
      <trkpt lat="43.12396499999986" lon="-1.2450220000000003">
        <ele>493.464</ele>
        <time>2022-08-24T07:09:04Z</time>
      </trkpt>
      <trkpt lat="43.12395499999986" lon="-1.2450210000000004">
        <ele>493.610</ele>
        <time>2022-08-24T07:09:05Z</time>
      </trkpt>
      <trkpt lat="43.12394499999986" lon="-1.2450180000000004">
        <ele>493.809</ele>
        <time>2022-08-24T07:09:06Z</time>
      </trkpt>
      <trkpt lat="43.123931999999854" lon="-1.2450140000000005">
        <ele>494.255</ele>
        <time>2022-08-24T07:09:07Z</time>
      </trkpt>
      <trkpt lat="43.12391899999985" lon="-1.2450100000000006">
        <ele>494.445</ele>
        <time>2022-08-24T07:09:08Z</time>
      </trkpt>
      <trkpt lat="43.12390599999985" lon="-1.2450050000000006">
        <ele>494.685</ele>
        <time>2022-08-24T07:09:09Z</time>
      </trkpt>
      <trkpt lat="43.123895999999846" lon="-1.2450000000000006">
        <ele>494.861</ele>
        <time>2022-08-24T07:09:10Z</time>
      </trkpt>
      <trkpt lat="43.12388399999985" lon="-1.2449930000000005">
        <ele>495.063</ele>
        <time>2022-08-24T07:09:11Z</time>
      </trkpt>
      <trkpt lat="43.123873999999844" lon="-1.2449850000000005">
        <ele>495.050</ele>
        <time>2022-08-24T07:09:12Z</time>
      </trkpt>
      <trkpt lat="43.123864999999846" lon="-1.2449770000000004">
        <ele>495.213</ele>
        <time>2022-08-24T07:09:13Z</time>
      </trkpt>
      <trkpt lat="43.123859999999844" lon="-1.2449640000000004">
        <ele>495.687</ele>
        <time>2022-08-24T07:09:14Z</time>
      </trkpt>
      <trkpt lat="43.12385499999984" lon="-1.2449510000000004">
        <ele>495.816</ele>
        <time>2022-08-24T07:09:15Z</time>
      </trkpt>
      <trkpt lat="43.12384999999984" lon="-1.2449400000000004">
        <ele>496.024</ele>
        <time>2022-08-24T07:09:16Z</time>
      </trkpt>
      <trkpt lat="43.12384199999984" lon="-1.2449360000000005">
        <ele>496.404</ele>
        <time>2022-08-24T07:09:17Z</time>
      </trkpt>
      <trkpt lat="43.12383599999984" lon="-1.2449340000000004">
        <ele>496.614</ele>
        <time>2022-08-24T07:09:18Z</time>
      </trkpt>
      <trkpt lat="43.12382799999984" lon="-1.2449300000000005">
        <ele>496.809</ele>
        <time>2022-08-24T07:09:19Z</time>
      </trkpt>
      <trkpt lat="43.12381899999984" lon="-1.2449290000000006">
        <ele>497.063</ele>
        <time>2022-08-24T07:09:20Z</time>
      </trkpt>
      <trkpt lat="43.123811999999845" lon="-1.2449230000000007">
        <ele>497.273</ele>
        <time>2022-08-24T07:09:21Z</time>
      </trkpt>
      <trkpt lat="43.123802999999846" lon="-1.2449210000000006">
        <ele>497.423</ele>
        <time>2022-08-24T07:09:22Z</time>
      </trkpt>
      <trkpt lat="43.12379599999985" lon="-1.2449170000000007">
        <ele>497.689</ele>
        <time>2022-08-24T07:09:23Z</time>
      </trkpt>
      <trkpt lat="43.12378799999985" lon="-1.2449170000000007">
        <ele>497.861</ele>
        <time>2022-08-24T07:09:24Z</time>
      </trkpt>
      <trkpt lat="43.12378499999985" lon="-1.2449130000000008">
        <ele>498.278</ele>
        <time>2022-08-24T07:09:25Z</time>
      </trkpt>
      <trkpt lat="43.12377899999985" lon="-1.244909000000001">
        <ele>498.241</ele>
        <time>2022-08-24T07:09:26Z</time>
      </trkpt>
      <trkpt lat="43.12376999999985" lon="-1.244906000000001">
        <ele>498.435</ele>
        <time>2022-08-24T07:09:27Z</time>
      </trkpt>
      <trkpt lat="43.12376199999985" lon="-1.244901000000001">
        <ele>498.454</ele>
        <time>2022-08-24T07:09:28Z</time>
      </trkpt>
      <trkpt lat="43.12375399999985" lon="-1.244901000000001">
        <ele>498.678</ele>
        <time>2022-08-24T07:09:29Z</time>
      </trkpt>
      <trkpt lat="43.12374699999985" lon="-1.244896000000001">
        <ele>498.833</ele>
        <time>2022-08-24T07:09:30Z</time>
      </trkpt>
      <trkpt lat="43.123739999999856" lon="-1.2448880000000009">
        <ele>498.826</ele>
        <time>2022-08-24T07:09:31Z</time>
      </trkpt>
      <trkpt lat="43.12372999999985" lon="-1.244887000000001">
        <ele>499.009</ele>
        <time>2022-08-24T07:09:32Z</time>
      </trkpt>
      <trkpt lat="43.123720999999854" lon="-1.244884000000001">
        <ele>499.268</ele>
        <time>2022-08-24T07:09:33Z</time>
      </trkpt>
      <trkpt lat="43.123711999999855" lon="-1.244878000000001">
        <ele>499.448</ele>
        <time>2022-08-24T07:09:34Z</time>
      </trkpt>
      <trkpt lat="43.12369999999986" lon="-1.2448740000000011">
        <ele>499.638</ele>
        <time>2022-08-24T07:09:35Z</time>
      </trkpt>
      <trkpt lat="43.12368899999986" lon="-1.2448710000000012">
        <ele>499.874</ele>
        <time>2022-08-24T07:09:36Z</time>
      </trkpt>
      <trkpt lat="43.12367699999986" lon="-1.2448690000000011">
        <ele>499.876</ele>
        <time>2022-08-24T07:09:37Z</time>
      </trkpt>
      <trkpt lat="43.123666999999855" lon="-1.2448660000000011">
        <ele>500.213</ele>
        <time>2022-08-24T07:09:38Z</time>
      </trkpt>
      <trkpt lat="43.12365799999986" lon="-1.2448600000000012">
        <ele>500.446</ele>
        <time>2022-08-24T07:09:39Z</time>
      </trkpt>
      <trkpt lat="43.12364599999986" lon="-1.2448580000000011">
        <ele>500.420</ele>
        <time>2022-08-24T07:09:40Z</time>
      </trkpt>
      <trkpt lat="43.123635999999856" lon="-1.244856000000001">
        <ele>500.829</ele>
        <time>2022-08-24T07:09:41Z</time>
      </trkpt>
      <trkpt lat="43.12362599999985" lon="-1.244856000000001">
        <ele>501.075</ele>
        <time>2022-08-24T07:09:42Z</time>
      </trkpt>
      <trkpt lat="43.12361599999985" lon="-1.2448520000000012">
        <ele>501.228</ele>
        <time>2022-08-24T07:09:43Z</time>
      </trkpt>
      <trkpt lat="43.12360499999985" lon="-1.244845000000001">
        <ele>501.620</ele>
        <time>2022-08-24T07:09:44Z</time>
      </trkpt>
      <trkpt lat="43.12359799999985" lon="-1.244838000000001">
        <ele>501.809</ele>
        <time>2022-08-24T07:09:45Z</time>
      </trkpt>
      <trkpt lat="43.123590999999855" lon="-1.244827000000001">
        <ele>502.258</ele>
        <time>2022-08-24T07:09:46Z</time>
      </trkpt>
      <trkpt lat="43.12358099999985" lon="-1.244817000000001">
        <ele>502.458</ele>
        <time>2022-08-24T07:09:47Z</time>
      </trkpt>
      <trkpt lat="43.12356799999985" lon="-1.244809000000001">
        <ele>502.668</ele>
        <time>2022-08-24T07:09:48Z</time>
      </trkpt>
      <trkpt lat="43.12354999999985" lon="-1.244806000000001">
        <ele>502.664</ele>
        <time>2022-08-24T07:09:49Z</time>
      </trkpt>
      <trkpt lat="43.123531999999855" lon="-1.244808000000001">
        <ele>503.016</ele>
        <time>2022-08-24T07:09:50Z</time>
      </trkpt>
      <trkpt lat="43.123517999999855" lon="-1.244809000000001">
        <ele>503.243</ele>
        <time>2022-08-24T07:09:51Z</time>
      </trkpt>
      <trkpt lat="43.123506999999854" lon="-1.2448070000000009">
        <ele>503.416</ele>
        <time>2022-08-24T07:09:52Z</time>
      </trkpt>
      <trkpt lat="43.12349699999985" lon="-1.244803000000001">
        <ele>503.680</ele>
        <time>2022-08-24T07:09:53Z</time>
      </trkpt>
      <trkpt lat="43.12348499999985" lon="-1.244803000000001">
        <ele>503.619</ele>
        <time>2022-08-24T07:09:54Z</time>
      </trkpt>
      <trkpt lat="43.12347399999985" lon="-1.244803000000001">
        <ele>504.044</ele>
        <time>2022-08-24T07:09:55Z</time>
      </trkpt>
      <trkpt lat="43.123461999999854" lon="-1.244798000000001">
        <ele>504.005</ele>
        <time>2022-08-24T07:09:56Z</time>
      </trkpt>
      <trkpt lat="43.12345199999985" lon="-1.244797000000001">
        <ele>504.415</ele>
        <time>2022-08-24T07:09:57Z</time>
      </trkpt>
      <trkpt lat="43.12344199999985" lon="-1.244795000000001">
        <ele>504.609</ele>
        <time>2022-08-24T07:09:58Z</time>
      </trkpt>
      <trkpt lat="43.12343499999985" lon="-1.244788000000001">
        <ele>504.875</ele>
        <time>2022-08-24T07:09:59Z</time>
      </trkpt>
      <trkpt lat="43.12342599999985" lon="-1.244785000000001">
        <ele>505.085</ele>
        <time>2022-08-24T07:10:00Z</time>
      </trkpt>
      <trkpt lat="43.12341599999985" lon="-1.244782000000001">
        <ele>505.295</ele>
        <time>2022-08-24T07:10:01Z</time>
      </trkpt>
      <trkpt lat="43.12340599999985" lon="-1.244778000000001">
        <ele>505.451</ele>
        <time>2022-08-24T07:10:02Z</time>
      </trkpt>
      <trkpt lat="43.12339599999984" lon="-1.244771000000001">
        <ele>505.433</ele>
        <time>2022-08-24T07:10:03Z</time>
      </trkpt>
      <trkpt lat="43.123386999999845" lon="-1.244767000000001">
        <ele>505.850</ele>
        <time>2022-08-24T07:10:04Z</time>
      </trkpt>
      <trkpt lat="43.123378999999844" lon="-1.2447660000000011">
        <ele>506.043</ele>
        <time>2022-08-24T07:10:05Z</time>
      </trkpt>
      <trkpt lat="43.123369999999845" lon="-1.2447630000000012">
        <ele>506.287</ele>
        <time>2022-08-24T07:10:06Z</time>
      </trkpt>
      <trkpt lat="43.123369999999845" lon="-1.2447630000000012">
        <ele>506.456</ele>
        <time>2022-08-24T07:10:07Z</time>
      </trkpt>
      <trkpt lat="43.123349999999846" lon="-1.244753000000001">
        <ele>506.488</ele>
        <time>2022-08-24T07:10:08Z</time>
      </trkpt>
      <trkpt lat="43.123341999999845" lon="-1.244751000000001">
        <ele>506.824</ele>
        <time>2022-08-24T07:10:09Z</time>
      </trkpt>
      <trkpt lat="43.12333399999984" lon="-1.2447500000000011">
        <ele>506.826</ele>
        <time>2022-08-24T07:10:10Z</time>
      </trkpt>
      <trkpt lat="43.12332699999985" lon="-1.2447490000000012">
        <ele>507.009</ele>
        <time>2022-08-24T07:10:11Z</time>
      </trkpt>
      <trkpt lat="43.12331799999985" lon="-1.2447460000000012">
        <ele>507.489</ele>
        <time>2022-08-24T07:10:12Z</time>
      </trkpt>
      <trkpt lat="43.12330999999985" lon="-1.2447420000000013">
        <ele>507.479</ele>
        <time>2022-08-24T07:10:13Z</time>
      </trkpt>
      <trkpt lat="43.123299999999844" lon="-1.2447380000000015">
        <ele>507.699</ele>
        <time>2022-08-24T07:10:14Z</time>
      </trkpt>
      <trkpt lat="43.12328999999984" lon="-1.2447370000000015">
        <ele>507.825</ele>
        <time>2022-08-24T07:10:15Z</time>
      </trkpt>
      <trkpt lat="43.123282999999844" lon="-1.2447350000000015">
        <ele>508.297</ele>
        <time>2022-08-24T07:10:16Z</time>
      </trkpt>
      <trkpt lat="43.123271999999844" lon="-1.2447320000000015">
        <ele>508.474</ele>
        <time>2022-08-24T07:10:17Z</time>
      </trkpt>
      <trkpt lat="43.12326399999984" lon="-1.2447330000000014">
        <ele>508.617</ele>
        <time>2022-08-24T07:10:18Z</time>
      </trkpt>
      <trkpt lat="43.12325599999984" lon="-1.2447310000000014">
        <ele>508.881</ele>
        <time>2022-08-24T07:10:19Z</time>
      </trkpt>
      <trkpt lat="43.123248999999845" lon="-1.2447300000000014">
        <ele>508.830</ele>
        <time>2022-08-24T07:10:20Z</time>
      </trkpt>
      <trkpt lat="43.12324199999985" lon="-1.2447270000000015">
        <ele>509.049</ele>
        <time>2022-08-24T07:10:21Z</time>
      </trkpt>
      <trkpt lat="43.123231999999845" lon="-1.2447220000000014">
        <ele>509.202</ele>
        <time>2022-08-24T07:10:22Z</time>
      </trkpt>
      <trkpt lat="43.12322299999985" lon="-1.2447220000000014">
        <ele>509.422</ele>
        <time>2022-08-24T07:10:23Z</time>
      </trkpt>
      <trkpt lat="43.12321299999984" lon="-1.2447210000000015">
        <ele>509.609</ele>
        <time>2022-08-24T07:10:24Z</time>
      </trkpt>
      <trkpt lat="43.12320499999984" lon="-1.2447190000000015">
        <ele>509.685</ele>
        <time>2022-08-24T07:10:25Z</time>
      </trkpt>
      <trkpt lat="43.12319699999984" lon="-1.2447200000000014">
        <ele>509.885</ele>
        <time>2022-08-24T07:10:26Z</time>
      </trkpt>
      <trkpt lat="43.12318599999984" lon="-1.2447120000000014">
        <ele>510.035</ele>
        <time>2022-08-24T07:10:27Z</time>
      </trkpt>
      <trkpt lat="43.12317599999984" lon="-1.2447080000000015">
        <ele>510.271</ele>
        <time>2022-08-24T07:10:28Z</time>
      </trkpt>
      <trkpt lat="43.12316699999984" lon="-1.2447010000000014">
        <ele>510.253</ele>
        <time>2022-08-24T07:10:29Z</time>
      </trkpt>
      <trkpt lat="43.12315899999984" lon="-1.2446940000000013">
        <ele>510.430</ele>
        <time>2022-08-24T07:10:30Z</time>
      </trkpt>
      <trkpt lat="43.12315099999984" lon="-1.2446890000000013">
        <ele>510.433</ele>
        <time>2022-08-24T07:10:31Z</time>
      </trkpt>
      <trkpt lat="43.12314199999984" lon="-1.2446840000000012">
        <ele>510.687</ele>
        <time>2022-08-24T07:10:32Z</time>
      </trkpt>
      <trkpt lat="43.123131999999835" lon="-1.2446770000000011">
        <ele>510.836</ele>
        <time>2022-08-24T07:10:33Z</time>
      </trkpt>
      <trkpt lat="43.123120999999834" lon="-1.244670000000001">
        <ele>510.882</ele>
        <time>2022-08-24T07:10:34Z</time>
      </trkpt>
      <trkpt lat="43.12311299999983" lon="-1.244665000000001">
        <ele>511.043</ele>
        <time>2022-08-24T07:10:35Z</time>
      </trkpt>
      <trkpt lat="43.12310599999984" lon="-1.244656000000001">
        <ele>511.017</ele>
        <time>2022-08-24T07:10:36Z</time>
      </trkpt>
      <trkpt lat="43.123097999999835" lon="-1.2446500000000011">
        <ele>511.209</ele>
        <time>2022-08-24T07:10:37Z</time>
      </trkpt>
      <trkpt lat="43.123089999999834" lon="-1.2446450000000011">
        <ele>511.259</ele>
        <time>2022-08-24T07:10:38Z</time>
      </trkpt>
      <trkpt lat="43.123078999999834" lon="-1.244638000000001">
        <ele>511.489</ele>
        <time>2022-08-24T07:10:39Z</time>
      </trkpt>
      <trkpt lat="43.12307099999983" lon="-1.2446260000000011">
        <ele>511.669</ele>
        <time>2022-08-24T07:10:40Z</time>
      </trkpt>
      <trkpt lat="43.12306499999983" lon="-1.2446170000000012">
        <ele>511.665</ele>
        <time>2022-08-24T07:10:41Z</time>
      </trkpt>
      <trkpt lat="43.123055999999835" lon="-1.2446070000000011">
        <ele>511.847</ele>
        <time>2022-08-24T07:10:42Z</time>
      </trkpt>
      <trkpt lat="43.123052999999835" lon="-1.244602000000001">
        <ele>512.074</ele>
        <time>2022-08-24T07:10:43Z</time>
      </trkpt>
      <trkpt lat="43.123058999999834" lon="-1.244597000000001">
        <ele>512.417</ele>
        <time>2022-08-24T07:16:03Z</time>
      </trkpt>
      <trkpt lat="43.123058999999834" lon="-1.244597000000001">
        <ele>512.431</ele>
        <time>2022-08-24T07:16:04Z</time>
      </trkpt>
      <trkpt lat="43.12305699999983" lon="-1.2445930000000012">
        <ele>513.270</ele>
        <time>2022-08-24T07:16:13Z</time>
      </trkpt>
      <trkpt lat="43.12303299999983" lon="-1.244559000000001">
        <ele>513.263</ele>
        <time>2022-08-24T07:16:15Z</time>
      </trkpt>
      <trkpt lat="43.12302899999983" lon="-1.244544000000001">
        <ele>513.244</ele>
        <time>2022-08-24T07:16:16Z</time>
      </trkpt>
      <trkpt lat="43.123033999999834" lon="-1.244536000000001">
        <ele>513.218</ele>
        <time>2022-08-24T07:16:17Z</time>
      </trkpt>
      <trkpt lat="43.12304599999983" lon="-1.244552000000001">
        <ele>513.209</ele>
        <time>2022-08-24T07:16:20Z</time>
      </trkpt>
      <trkpt lat="43.12304999999983" lon="-1.244558000000001">
        <ele>513.277</ele>
        <time>2022-08-24T07:16:21Z</time>
      </trkpt>
      <trkpt lat="43.12305199999983" lon="-1.2445620000000008">
        <ele>513.297</ele>
        <time>2022-08-24T07:16:22Z</time>
      </trkpt>
      <trkpt lat="43.12305199999983" lon="-1.2445710000000008">
        <ele>513.217</ele>
        <time>2022-08-24T07:16:23Z</time>
      </trkpt>
      <trkpt lat="43.12305499999983" lon="-1.2445830000000007">
        <ele>513.273</ele>
        <time>2022-08-24T07:16:24Z</time>
      </trkpt>
      <trkpt lat="43.12305799999983" lon="-1.2445990000000007">
        <ele>513.265</ele>
        <time>2022-08-24T07:16:25Z</time>
      </trkpt>
      <trkpt lat="43.12305899999983" lon="-1.2446130000000006">
        <ele>513.262</ele>
        <time>2022-08-24T07:16:26Z</time>
      </trkpt>
      <trkpt lat="43.123056999999825" lon="-1.2446310000000007">
        <ele>513.255</ele>
        <time>2022-08-24T07:16:27Z</time>
      </trkpt>
      <trkpt lat="43.123050999999826" lon="-1.2446450000000007">
        <ele>513.249</ele>
        <time>2022-08-24T07:16:28Z</time>
      </trkpt>
      <trkpt lat="43.123042999999825" lon="-1.2446540000000006">
        <ele>513.228</ele>
        <time>2022-08-24T07:16:29Z</time>
      </trkpt>
      <trkpt lat="43.12303099999983" lon="-1.2446540000000006">
        <ele>513.247</ele>
        <time>2022-08-24T07:16:30Z</time>
      </trkpt>
      <trkpt lat="43.122997999999825" lon="-1.2446240000000006">
        <ele>513.429</ele>
        <time>2022-08-24T07:16:33Z</time>
      </trkpt>
      <trkpt lat="43.12295799999983" lon="-1.2445940000000006">
        <ele>513.621</ele>
        <time>2022-08-24T07:16:36Z</time>
      </trkpt>
      <trkpt lat="43.122946999999826" lon="-1.2445890000000006">
        <ele>513.609</ele>
        <time>2022-08-24T07:16:37Z</time>
      </trkpt>
      <trkpt lat="43.12293799999983" lon="-1.2445840000000006">
        <ele>514.035</ele>
        <time>2022-08-24T07:16:38Z</time>
      </trkpt>
      <trkpt lat="43.12292699999983" lon="-1.2445790000000005">
        <ele>514.075</ele>
        <time>2022-08-24T07:16:39Z</time>
      </trkpt>
      <trkpt lat="43.12291499999983" lon="-1.2445740000000005">
        <ele>514.485</ele>
        <time>2022-08-24T07:16:40Z</time>
      </trkpt>
      <trkpt lat="43.12290399999983" lon="-1.2445690000000005">
        <ele>514.631</ele>
        <time>2022-08-24T07:16:41Z</time>
      </trkpt>
      <trkpt lat="43.12288999999983" lon="-1.2445620000000004">
        <ele>515.073</ele>
        <time>2022-08-24T07:16:42Z</time>
      </trkpt>
      <trkpt lat="43.122876999999825" lon="-1.2445570000000004">
        <ele>515.250</ele>
        <time>2022-08-24T07:16:43Z</time>
      </trkpt>
      <trkpt lat="43.12286199999983" lon="-1.2445510000000004">
        <ele>515.473</ele>
        <time>2022-08-24T07:16:44Z</time>
      </trkpt>
      <trkpt lat="43.12282499999983" lon="-1.2445360000000003">
        <ele>516.487</ele>
        <time>2022-08-24T07:16:47Z</time>
      </trkpt>
      <trkpt lat="43.12281299999983" lon="-1.2445280000000003">
        <ele>516.696</ele>
        <time>2022-08-24T07:16:48Z</time>
      </trkpt>
      <trkpt lat="43.12279899999983" lon="-1.2445170000000003">
        <ele>516.852</ele>
        <time>2022-08-24T07:16:49Z</time>
      </trkpt>
      <trkpt lat="43.12278499999983" lon="-1.2445060000000003">
        <ele>517.253</ele>
        <time>2022-08-24T07:16:50Z</time>
      </trkpt>
      <trkpt lat="43.12277299999983" lon="-1.2444970000000004">
        <ele>517.408</ele>
        <time>2022-08-24T07:16:51Z</time>
      </trkpt>
      <trkpt lat="43.122760999999834" lon="-1.2444890000000004">
        <ele>517.409</ele>
        <time>2022-08-24T07:16:52Z</time>
      </trkpt>
      <trkpt lat="43.12274999999983" lon="-1.2444860000000004">
        <ele>517.616</ele>
        <time>2022-08-24T07:16:53Z</time>
      </trkpt>
      <trkpt lat="43.12274199999983" lon="-1.2444830000000004">
        <ele>518.026</ele>
        <time>2022-08-24T07:16:54Z</time>
      </trkpt>
      <trkpt lat="43.12273299999983" lon="-1.2444730000000004">
        <ele>518.236</ele>
        <time>2022-08-24T07:16:55Z</time>
      </trkpt>
      <trkpt lat="43.122723999999835" lon="-1.2444610000000005">
        <ele>518.482</ele>
        <time>2022-08-24T07:16:56Z</time>
      </trkpt>
      <trkpt lat="43.12271399999983" lon="-1.2444510000000004">
        <ele>518.624</ele>
        <time>2022-08-24T07:16:57Z</time>
      </trkpt>
      <trkpt lat="43.12270399999983" lon="-1.2444420000000005">
        <ele>518.661</ele>
        <time>2022-08-24T07:16:58Z</time>
      </trkpt>
      <trkpt lat="43.12269499999983" lon="-1.2444330000000006">
        <ele>519.024</ele>
        <time>2022-08-24T07:16:59Z</time>
      </trkpt>
      <trkpt lat="43.12268699999983" lon="-1.2444170000000006">
        <ele>519.228</ele>
        <time>2022-08-24T07:17:00Z</time>
      </trkpt>
      <trkpt lat="43.122676999999825" lon="-1.2444030000000006">
        <ele>519.627</ele>
        <time>2022-08-24T07:17:01Z</time>
      </trkpt>
      <trkpt lat="43.12266799999983" lon="-1.2443960000000005">
        <ele>519.824</ele>
        <time>2022-08-24T07:17:02Z</time>
      </trkpt>
      <trkpt lat="43.122656999999826" lon="-1.2443920000000006">
        <ele>520.204</ele>
        <time>2022-08-24T07:17:03Z</time>
      </trkpt>
      <trkpt lat="43.122645999999826" lon="-1.2443840000000006">
        <ele>520.614</ele>
        <time>2022-08-24T07:17:04Z</time>
      </trkpt>
      <trkpt lat="43.122639999999826" lon="-1.2443740000000005">
        <ele>520.609</ele>
        <time>2022-08-24T07:17:05Z</time>
      </trkpt>
      <trkpt lat="43.122631999999825" lon="-1.2443600000000006">
        <ele>520.863</ele>
        <time>2022-08-24T07:17:06Z</time>
      </trkpt>
      <trkpt lat="43.12262199999982" lon="-1.2443480000000007">
        <ele>521.043</ele>
        <time>2022-08-24T07:17:07Z</time>
      </trkpt>
      <trkpt lat="43.122612999999824" lon="-1.2443360000000008">
        <ele>521.033</ele>
        <time>2022-08-24T07:17:08Z</time>
      </trkpt>
      <trkpt lat="43.122606999999824" lon="-1.2443300000000008">
        <ele>521.259</ele>
        <time>2022-08-24T07:17:09Z</time>
      </trkpt>
      <trkpt lat="43.122597999999826" lon="-1.2443250000000008">
        <ele>521.491</ele>
        <time>2022-08-24T07:17:10Z</time>
      </trkpt>
      <trkpt lat="43.12258799999982" lon="-1.2443160000000009">
        <ele>521.838</ele>
        <time>2022-08-24T07:17:11Z</time>
      </trkpt>
      <trkpt lat="43.122575999999825" lon="-1.2443080000000009">
        <ele>522.061</ele>
        <time>2022-08-24T07:17:12Z</time>
      </trkpt>
      <trkpt lat="43.122564999999824" lon="-1.2442980000000008">
        <ele>522.445</ele>
        <time>2022-08-24T07:17:13Z</time>
      </trkpt>
      <trkpt lat="43.12255399999982" lon="-1.2442880000000007">
        <ele>522.444</ele>
        <time>2022-08-24T07:17:14Z</time>
      </trkpt>
      <trkpt lat="43.12254299999982" lon="-1.2442780000000007">
        <ele>522.663</ele>
        <time>2022-08-24T07:17:15Z</time>
      </trkpt>
      <trkpt lat="43.12253299999982" lon="-1.2442710000000006">
        <ele>523.044</ele>
        <time>2022-08-24T07:17:16Z</time>
      </trkpt>
      <trkpt lat="43.12252399999982" lon="-1.2442630000000006">
        <ele>523.218</ele>
        <time>2022-08-24T07:17:17Z</time>
      </trkpt>
      <trkpt lat="43.12251399999982" lon="-1.2442540000000006">
        <ele>523.409</ele>
        <time>2022-08-24T07:17:18Z</time>
      </trkpt>
      <trkpt lat="43.12250499999982" lon="-1.2442470000000005">
        <ele>523.677</ele>
        <time>2022-08-24T07:17:19Z</time>
      </trkpt>
      <trkpt lat="43.12249699999982" lon="-1.2442380000000006">
        <ele>523.857</ele>
        <time>2022-08-24T07:17:20Z</time>
      </trkpt>
      <trkpt lat="43.122491999999816" lon="-1.2442270000000006">
        <ele>524.057</ele>
        <time>2022-08-24T07:17:21Z</time>
      </trkpt>
      <trkpt lat="43.12248599999982" lon="-1.2442120000000005">
        <ele>524.223</ele>
        <time>2022-08-24T07:17:22Z</time>
      </trkpt>
      <trkpt lat="43.122477999999816" lon="-1.2442000000000006">
        <ele>524.485</ele>
        <time>2022-08-24T07:17:23Z</time>
      </trkpt>
      <trkpt lat="43.12246899999982" lon="-1.2441920000000006">
        <ele>524.652</ele>
        <time>2022-08-24T07:17:24Z</time>
      </trkpt>
      <trkpt lat="43.12245999999982" lon="-1.2441840000000006">
        <ele>525.035</ele>
        <time>2022-08-24T07:17:25Z</time>
      </trkpt>
      <trkpt lat="43.12245399999982" lon="-1.2441780000000007">
        <ele>525.019</ele>
        <time>2022-08-24T07:17:26Z</time>
      </trkpt>
      <trkpt lat="43.12244499999982" lon="-1.2441730000000006">
        <ele>525.268</ele>
        <time>2022-08-24T07:17:27Z</time>
      </trkpt>
      <trkpt lat="43.12243699999982" lon="-1.2441640000000007">
        <ele>525.471</ele>
        <time>2022-08-24T07:17:28Z</time>
      </trkpt>
      <trkpt lat="43.122429999999824" lon="-1.2441550000000008">
        <ele>525.641</ele>
        <time>2022-08-24T07:17:29Z</time>
      </trkpt>
      <trkpt lat="43.12241999999982" lon="-1.2441470000000008">
        <ele>525.815</ele>
        <time>2022-08-24T07:17:30Z</time>
      </trkpt>
      <trkpt lat="43.12240999999982" lon="-1.2441420000000007">
        <ele>525.809</ele>
        <time>2022-08-24T07:17:31Z</time>
      </trkpt>
      <trkpt lat="43.122396999999815" lon="-1.2441350000000007">
        <ele>526.048</ele>
        <time>2022-08-24T07:17:32Z</time>
      </trkpt>
      <trkpt lat="43.122387999999816" lon="-1.2441280000000006">
        <ele>526.228</ele>
        <time>2022-08-24T07:17:33Z</time>
      </trkpt>
      <trkpt lat="43.12238099999982" lon="-1.2441180000000005">
        <ele>526.428</ele>
        <time>2022-08-24T07:17:34Z</time>
      </trkpt>
      <trkpt lat="43.12237399999982" lon="-1.2441080000000004">
        <ele>526.464</ele>
        <time>2022-08-24T07:17:35Z</time>
      </trkpt>
      <trkpt lat="43.122364999999824" lon="-1.2441010000000003">
        <ele>526.636</ele>
        <time>2022-08-24T07:17:36Z</time>
      </trkpt>
      <trkpt lat="43.122355999999826" lon="-1.2440960000000003">
        <ele>527.063</ele>
        <time>2022-08-24T07:17:37Z</time>
      </trkpt>
      <trkpt lat="43.12234599999982" lon="-1.2440930000000003">
        <ele>527.076</ele>
        <time>2022-08-24T07:17:38Z</time>
      </trkpt>
      <trkpt lat="43.12233599999982" lon="-1.2440880000000003">
        <ele>527.270</ele>
        <time>2022-08-24T07:17:39Z</time>
      </trkpt>
      <trkpt lat="43.12232699999982" lon="-1.2440790000000004">
        <ele>527.439</ele>
        <time>2022-08-24T07:17:40Z</time>
      </trkpt>
      <trkpt lat="43.12231799999982" lon="-1.2440710000000004">
        <ele>527.627</ele>
        <time>2022-08-24T07:17:41Z</time>
      </trkpt>
      <trkpt lat="43.12230699999982" lon="-1.2440650000000004">
        <ele>527.868</ele>
        <time>2022-08-24T07:17:42Z</time>
      </trkpt>
      <trkpt lat="43.12229699999982" lon="-1.2440590000000005">
        <ele>528.014</ele>
        <time>2022-08-24T07:17:43Z</time>
      </trkpt>
      <trkpt lat="43.12228799999982" lon="-1.2440540000000004">
        <ele>528.209</ele>
        <time>2022-08-24T07:17:44Z</time>
      </trkpt>
      <trkpt lat="43.12227899999982" lon="-1.2440500000000005">
        <ele>528.233</ele>
        <time>2022-08-24T07:17:45Z</time>
      </trkpt>
      <trkpt lat="43.12226899999982" lon="-1.2440460000000007">
        <ele>528.693</ele>
        <time>2022-08-24T07:17:46Z</time>
      </trkpt>
      <trkpt lat="43.12226099999982" lon="-1.2440410000000006">
        <ele>528.673</ele>
        <time>2022-08-24T07:17:47Z</time>
      </trkpt>
      <trkpt lat="43.12225399999982" lon="-1.2440330000000006">
        <ele>528.829</ele>
        <time>2022-08-24T07:17:48Z</time>
      </trkpt>
      <trkpt lat="43.12224599999982" lon="-1.2440250000000006">
        <ele>529.021</ele>
        <time>2022-08-24T07:17:49Z</time>
      </trkpt>
      <trkpt lat="43.12223699999982" lon="-1.2440190000000007">
        <ele>529.288</ele>
        <time>2022-08-24T07:17:50Z</time>
      </trkpt>
      <trkpt lat="43.12222799999982" lon="-1.2440160000000007">
        <ele>529.471</ele>
        <time>2022-08-24T07:17:51Z</time>
      </trkpt>
      <trkpt lat="43.12221799999982" lon="-1.2440150000000008">
        <ele>529.665</ele>
        <time>2022-08-24T07:17:52Z</time>
      </trkpt>
      <trkpt lat="43.122207999999816" lon="-1.2440110000000009">
        <ele>529.654</ele>
        <time>2022-08-24T07:17:53Z</time>
      </trkpt>
      <trkpt lat="43.122196999999815" lon="-1.2440060000000008">
        <ele>529.862</ele>
        <time>2022-08-24T07:17:54Z</time>
      </trkpt>
      <trkpt lat="43.122185999999814" lon="-1.2440030000000009">
        <ele>529.883</ele>
        <time>2022-08-24T07:17:55Z</time>
      </trkpt>
      <trkpt lat="43.122176999999816" lon="-1.2439980000000008">
        <ele>530.011</ele>
        <time>2022-08-24T07:17:56Z</time>
      </trkpt>
      <trkpt lat="43.12216799999982" lon="-1.2439920000000009">
        <ele>530.009</ele>
        <time>2022-08-24T07:17:57Z</time>
      </trkpt>
      <trkpt lat="43.122157999999814" lon="-1.2439850000000008">
        <ele>530.427</ele>
        <time>2022-08-24T07:17:58Z</time>
      </trkpt>
      <trkpt lat="43.122148999999816" lon="-1.2439800000000008">
        <ele>530.687</ele>
        <time>2022-08-24T07:17:59Z</time>
      </trkpt>
      <trkpt lat="43.12213899999981" lon="-1.2439740000000008">
        <ele>531.067</ele>
        <time>2022-08-24T07:18:00Z</time>
      </trkpt>
      <trkpt lat="43.122126999999814" lon="-1.2439680000000009">
        <ele>531.033</ele>
        <time>2022-08-24T07:18:01Z</time>
      </trkpt>
      <trkpt lat="43.122115999999814" lon="-1.243964000000001">
        <ele>531.285</ele>
        <time>2022-08-24T07:18:02Z</time>
      </trkpt>
      <trkpt lat="43.12210799999981" lon="-1.243958000000001">
        <ele>531.282</ele>
        <time>2022-08-24T07:18:03Z</time>
      </trkpt>
      <trkpt lat="43.12210199999981" lon="-1.243951000000001">
        <ele>531.465</ele>
        <time>2022-08-24T07:18:04Z</time>
      </trkpt>
      <trkpt lat="43.12209399999981" lon="-1.2439440000000008">
        <ele>531.669</ele>
        <time>2022-08-24T07:18:05Z</time>
      </trkpt>
      <trkpt lat="43.12208399999981" lon="-1.2439380000000009">
        <ele>531.678</ele>
        <time>2022-08-24T07:18:06Z</time>
      </trkpt>
      <trkpt lat="43.12207299999981" lon="-1.2439310000000008">
        <ele>531.826</ele>
        <time>2022-08-24T07:18:07Z</time>
      </trkpt>
      <trkpt lat="43.12206199999981" lon="-1.2439230000000008">
        <ele>531.847</ele>
        <time>2022-08-24T07:18:08Z</time>
      </trkpt>
      <trkpt lat="43.12205399999981" lon="-1.2439230000000008">
        <ele>532.011</ele>
        <time>2022-08-24T07:18:09Z</time>
      </trkpt>
      <trkpt lat="43.122045999999806" lon="-1.2439230000000008">
        <ele>532.209</ele>
        <time>2022-08-24T07:18:10Z</time>
      </trkpt>
      <trkpt lat="43.122037999999804" lon="-1.2439190000000009">
        <ele>532.433</ele>
        <time>2022-08-24T07:18:11Z</time>
      </trkpt>
      <trkpt lat="43.1220279999998" lon="-1.2439120000000008">
        <ele>532.653</ele>
        <time>2022-08-24T07:18:12Z</time>
      </trkpt>
      <trkpt lat="43.1220149999998" lon="-1.2439060000000008">
        <ele>532.663</ele>
        <time>2022-08-24T07:18:13Z</time>
      </trkpt>
      <trkpt lat="43.1220039999998" lon="-1.2439010000000008">
        <ele>532.839</ele>
        <time>2022-08-24T07:18:14Z</time>
      </trkpt>
      <trkpt lat="43.1219929999998" lon="-1.2438940000000007">
        <ele>532.831</ele>
        <time>2022-08-24T07:18:15Z</time>
      </trkpt>
      <trkpt lat="43.1219819999998" lon="-1.2438850000000008">
        <ele>533.088</ele>
        <time>2022-08-24T07:18:16Z</time>
      </trkpt>
      <trkpt lat="43.1219729999998" lon="-1.243873000000001">
        <ele>533.281</ele>
        <time>2022-08-24T07:18:17Z</time>
      </trkpt>
      <trkpt lat="43.1219619999998" lon="-1.243861000000001">
        <ele>533.455</ele>
        <time>2022-08-24T07:18:18Z</time>
      </trkpt>
      <trkpt lat="43.1219509999998" lon="-1.243851000000001">
        <ele>533.474</ele>
        <time>2022-08-24T07:18:19Z</time>
      </trkpt>
      <trkpt lat="43.121937999999794" lon="-1.2438440000000008">
        <ele>533.614</ele>
        <time>2022-08-24T07:18:20Z</time>
      </trkpt>
      <trkpt lat="43.12192499999979" lon="-1.2438380000000009">
        <ele>534.054</ele>
        <time>2022-08-24T07:18:21Z</time>
      </trkpt>
      <trkpt lat="43.12191299999979" lon="-1.243835000000001">
        <ele>534.009</ele>
        <time>2022-08-24T07:18:22Z</time>
      </trkpt>
      <trkpt lat="43.121900999999795" lon="-1.2438300000000009">
        <ele>534.409</ele>
        <time>2022-08-24T07:18:23Z</time>
      </trkpt>
      <trkpt lat="43.1218919999998" lon="-1.2438250000000008">
        <ele>534.432</ele>
        <time>2022-08-24T07:18:24Z</time>
      </trkpt>
      <trkpt lat="43.1218799999998" lon="-1.2438180000000008">
        <ele>534.682</ele>
        <time>2022-08-24T07:18:25Z</time>
      </trkpt>
      <trkpt lat="43.1218649999998" lon="-1.2438130000000007">
        <ele>534.882</ele>
        <time>2022-08-24T07:18:26Z</time>
      </trkpt>
      <trkpt lat="43.1218569999998" lon="-1.2438090000000008">
        <ele>535.088</ele>
        <time>2022-08-24T07:18:27Z</time>
      </trkpt>
      <trkpt lat="43.1218479999998" lon="-1.2438010000000008">
        <ele>535.240</ele>
        <time>2022-08-24T07:18:28Z</time>
      </trkpt>
      <trkpt lat="43.1218389999998" lon="-1.2437930000000008">
        <ele>535.437</ele>
        <time>2022-08-24T07:18:29Z</time>
      </trkpt>
      <trkpt lat="43.1218289999998" lon="-1.2437870000000009">
        <ele>535.440</ele>
        <time>2022-08-24T07:18:30Z</time>
      </trkpt>
      <trkpt lat="43.1218149999998" lon="-1.2437800000000008">
        <ele>535.624</ele>
        <time>2022-08-24T07:18:31Z</time>
      </trkpt>
      <trkpt lat="43.1218039999998" lon="-1.2437760000000009">
        <ele>535.853</ele>
        <time>2022-08-24T07:18:32Z</time>
      </trkpt>
      <trkpt lat="43.1217919999998" lon="-1.243773000000001">
        <ele>536.023</ele>
        <time>2022-08-24T07:18:33Z</time>
      </trkpt>
      <trkpt lat="43.1217799999998" lon="-1.243770000000001">
        <ele>536.083</ele>
        <time>2022-08-24T07:18:34Z</time>
      </trkpt>
      <trkpt lat="43.1217659999998" lon="-1.2437680000000009">
        <ele>536.411</ele>
        <time>2022-08-24T07:18:35Z</time>
      </trkpt>
      <trkpt lat="43.1217529999998" lon="-1.243767000000001">
        <ele>536.409</ele>
        <time>2022-08-24T07:18:36Z</time>
      </trkpt>
      <trkpt lat="43.1217419999998" lon="-1.243762000000001">
        <ele>536.893</ele>
        <time>2022-08-24T07:18:37Z</time>
      </trkpt>
      <trkpt lat="43.1217309999998" lon="-1.243757000000001">
        <ele>536.853</ele>
        <time>2022-08-24T07:18:38Z</time>
      </trkpt>
      <trkpt lat="43.1217199999998" lon="-1.2437550000000008">
        <ele>537.093</ele>
        <time>2022-08-24T07:18:39Z</time>
      </trkpt>
      <trkpt lat="43.121709999999794" lon="-1.2437600000000009">
        <ele>537.439</ele>
        <time>2022-08-24T07:18:40Z</time>
      </trkpt>
      <trkpt lat="43.121697999999796" lon="-1.243767000000001">
        <ele>537.491</ele>
        <time>2022-08-24T07:18:41Z</time>
      </trkpt>
      <trkpt lat="43.121689999999795" lon="-1.243772000000001">
        <ele>537.828</ele>
        <time>2022-08-24T07:18:42Z</time>
      </trkpt>
      <trkpt lat="43.121678999999794" lon="-1.243777000000001">
        <ele>538.041</ele>
        <time>2022-08-24T07:18:43Z</time>
      </trkpt>
      <trkpt lat="43.121664999999794" lon="-1.243780000000001">
        <ele>538.265</ele>
        <time>2022-08-24T07:18:44Z</time>
      </trkpt>
      <trkpt lat="43.121655999999795" lon="-1.243785000000001">
        <ele>538.274</ele>
        <time>2022-08-24T07:18:45Z</time>
      </trkpt>
      <trkpt lat="43.12164599999979" lon="-1.243794000000001">
        <ele>538.479</ele>
        <time>2022-08-24T07:18:46Z</time>
      </trkpt>
      <trkpt lat="43.121638999999796" lon="-1.243802000000001">
        <ele>538.805</ele>
        <time>2022-08-24T07:18:47Z</time>
      </trkpt>
      <trkpt lat="43.12162899999979" lon="-1.2438110000000009">
        <ele>539.025</ele>
        <time>2022-08-24T07:18:48Z</time>
      </trkpt>
      <trkpt lat="43.12161499999979" lon="-1.243821000000001">
        <ele>539.209</ele>
        <time>2022-08-24T07:18:49Z</time>
      </trkpt>
      <trkpt lat="43.12160199999979" lon="-1.243832000000001">
        <ele>539.278</ele>
        <time>2022-08-24T07:18:50Z</time>
      </trkpt>
      <trkpt lat="43.12159299999979" lon="-1.243846000000001">
        <ele>539.658</ele>
        <time>2022-08-24T07:18:51Z</time>
      </trkpt>
      <trkpt lat="43.12158499999979" lon="-1.2438580000000008">
        <ele>539.688</ele>
        <time>2022-08-24T07:18:52Z</time>
      </trkpt>
      <trkpt lat="43.12157499999979" lon="-1.2438720000000008">
        <ele>540.014</ele>
        <time>2022-08-24T07:18:53Z</time>
      </trkpt>
      <trkpt lat="43.121564999999784" lon="-1.2438880000000008">
        <ele>540.266</ele>
        <time>2022-08-24T07:18:54Z</time>
      </trkpt>
      <trkpt lat="43.12155699999978" lon="-1.2439040000000008">
        <ele>540.293</ele>
        <time>2022-08-24T07:18:55Z</time>
      </trkpt>
      <trkpt lat="43.12154899999978" lon="-1.2439170000000008">
        <ele>540.476</ele>
        <time>2022-08-24T07:18:56Z</time>
      </trkpt>
      <trkpt lat="43.12153999999978" lon="-1.2439250000000008">
        <ele>540.440</ele>
        <time>2022-08-24T07:18:57Z</time>
      </trkpt>
      <trkpt lat="43.121530999999784" lon="-1.243935000000001">
        <ele>540.689</ele>
        <time>2022-08-24T07:18:58Z</time>
      </trkpt>
      <trkpt lat="43.121518999999786" lon="-1.243954000000001">
        <ele>540.879</ele>
        <time>2022-08-24T07:18:59Z</time>
      </trkpt>
      <trkpt lat="43.12151199999979" lon="-1.2439710000000008">
        <ele>541.005</ele>
        <time>2022-08-24T07:19:00Z</time>
      </trkpt>
      <trkpt lat="43.12150399999979" lon="-1.2439850000000008">
        <ele>541.225</ele>
        <time>2022-08-24T07:19:01Z</time>
      </trkpt>
      <trkpt lat="43.12149499999979" lon="-1.2439980000000008">
        <ele>541.609</ele>
        <time>2022-08-24T07:19:02Z</time>
      </trkpt>
      <trkpt lat="43.12148699999979" lon="-1.2440120000000008">
        <ele>541.858</ele>
        <time>2022-08-24T07:19:03Z</time>
      </trkpt>
      <trkpt lat="43.121476999999786" lon="-1.2440300000000009">
        <ele>542.058</ele>
        <time>2022-08-24T07:19:04Z</time>
      </trkpt>
      <trkpt lat="43.12146799999979" lon="-1.244048000000001">
        <ele>542.218</ele>
        <time>2022-08-24T07:19:05Z</time>
      </trkpt>
      <trkpt lat="43.121457999999784" lon="-1.2440680000000008">
        <ele>542.254</ele>
        <time>2022-08-24T07:19:06Z</time>
      </trkpt>
      <trkpt lat="43.12144499999978" lon="-1.2440840000000009">
        <ele>542.426</ele>
        <time>2022-08-24T07:19:07Z</time>
      </trkpt>
      <trkpt lat="43.12143099999978" lon="-1.2441000000000009">
        <ele>542.453</ele>
        <time>2022-08-24T07:19:08Z</time>
      </trkpt>
      <trkpt lat="43.12141999999978" lon="-1.2441200000000008">
        <ele>542.466</ele>
        <time>2022-08-24T07:19:09Z</time>
      </trkpt>
      <trkpt lat="43.12141099999978" lon="-1.2441360000000008">
        <ele>542.670</ele>
        <time>2022-08-24T07:19:10Z</time>
      </trkpt>
      <trkpt lat="43.12140299999978" lon="-1.2441500000000008">
        <ele>542.689</ele>
        <time>2022-08-24T07:19:11Z</time>
      </trkpt>
      <trkpt lat="43.121395999999784" lon="-1.2441620000000007">
        <ele>542.667</ele>
        <time>2022-08-24T07:19:12Z</time>
      </trkpt>
      <trkpt lat="43.12138799999978" lon="-1.2441680000000006">
        <ele>542.681</ele>
        <time>2022-08-24T07:19:13Z</time>
      </trkpt>
      <trkpt lat="43.121378999999784" lon="-1.2441730000000006">
        <ele>542.619</ele>
        <time>2022-08-24T07:19:14Z</time>
      </trkpt>
      <trkpt lat="43.121366999999786" lon="-1.2441810000000006">
        <ele>542.609</ele>
        <time>2022-08-24T07:19:15Z</time>
      </trkpt>
      <trkpt lat="43.12135399999978" lon="-1.2441920000000006">
        <ele>542.627</ele>
        <time>2022-08-24T07:19:16Z</time>
      </trkpt>
      <trkpt lat="43.12133999999978" lon="-1.2442010000000006">
        <ele>542.647</ele>
        <time>2022-08-24T07:19:17Z</time>
      </trkpt>
      <trkpt lat="43.121324999999786" lon="-1.2442110000000006">
        <ele>542.637</ele>
        <time>2022-08-24T07:19:18Z</time>
      </trkpt>
      <trkpt lat="43.12130999999979" lon="-1.2442220000000006">
        <ele>542.613</ele>
        <time>2022-08-24T07:19:19Z</time>
      </trkpt>
      <trkpt lat="43.12129599999979" lon="-1.2442330000000006">
        <ele>542.625</ele>
        <time>2022-08-24T07:19:20Z</time>
      </trkpt>
      <trkpt lat="43.12128399999979" lon="-1.2442400000000007">
        <ele>542.642</ele>
        <time>2022-08-24T07:19:21Z</time>
      </trkpt>
      <trkpt lat="43.12127299999979" lon="-1.2442500000000007">
        <ele>542.685</ele>
        <time>2022-08-24T07:19:22Z</time>
      </trkpt>
      <trkpt lat="43.12126399999979" lon="-1.2442600000000008">
        <ele>542.689</ele>
        <time>2022-08-24T07:19:23Z</time>
      </trkpt>
      <trkpt lat="43.121256999999794" lon="-1.2442700000000009">
        <ele>542.858</ele>
        <time>2022-08-24T07:19:24Z</time>
      </trkpt>
      <trkpt lat="43.1212529999998" lon="-1.244277000000001">
        <ele>542.814</ele>
        <time>2022-08-24T07:19:25Z</time>
      </trkpt>
      <trkpt lat="43.1212489999998" lon="-1.244283000000001">
        <ele>542.854</ele>
        <time>2022-08-24T07:19:26Z</time>
      </trkpt>
      <trkpt lat="43.1212429999998" lon="-1.244288000000001">
        <ele>542.809</ele>
        <time>2022-08-24T07:19:27Z</time>
      </trkpt>
      <trkpt lat="43.1212339999998" lon="-1.244288000000001">
        <ele>542.809</ele>
        <time>2022-08-24T07:19:28Z</time>
      </trkpt>
      <trkpt lat="43.121224999999804" lon="-1.244287000000001">
        <ele>542.832</ele>
        <time>2022-08-24T07:19:29Z</time>
      </trkpt>
      <trkpt lat="43.1212149999998" lon="-1.244287000000001">
        <ele>542.842</ele>
        <time>2022-08-24T07:19:30Z</time>
      </trkpt>
      <trkpt lat="43.1211999999998" lon="-1.244289000000001">
        <ele>542.852</ele>
        <time>2022-08-24T07:19:32Z</time>
      </trkpt>
      <trkpt lat="43.1211899999998" lon="-1.2442960000000012">
        <ele>542.858</ele>
        <time>2022-08-24T07:19:33Z</time>
      </trkpt>
      <trkpt lat="43.1211789999998" lon="-1.2443040000000012">
        <ele>542.880</ele>
        <time>2022-08-24T07:19:34Z</time>
      </trkpt>
      <trkpt lat="43.121165999999796" lon="-1.2443120000000012">
        <ele>542.827</ele>
        <time>2022-08-24T07:19:35Z</time>
      </trkpt>
      <trkpt lat="43.1211259999998" lon="-1.2443390000000012">
        <ele>543.070</ele>
        <time>2022-08-24T07:19:38Z</time>
      </trkpt>
      <trkpt lat="43.121115999999795" lon="-1.2443470000000012">
        <ele>543.024</ele>
        <time>2022-08-24T07:19:39Z</time>
      </trkpt>
      <trkpt lat="43.1211039999998" lon="-1.2443540000000013">
        <ele>543.043</ele>
        <time>2022-08-24T07:19:40Z</time>
      </trkpt>
      <trkpt lat="43.121090999999794" lon="-1.2443590000000013">
        <ele>543.082</ele>
        <time>2022-08-24T07:19:41Z</time>
      </trkpt>
      <trkpt lat="43.12105799999979" lon="-1.2443630000000012">
        <ele>543.043</ele>
        <time>2022-08-24T07:19:43Z</time>
      </trkpt>
      <trkpt lat="43.12103899999979" lon="-1.2443690000000012">
        <ele>543.217</ele>
        <time>2022-08-24T07:19:44Z</time>
      </trkpt>
      <trkpt lat="43.12101999999979" lon="-1.2443760000000013">
        <ele>543.409</ele>
        <time>2022-08-24T07:19:45Z</time>
      </trkpt>
      <trkpt lat="43.12096799999979" lon="-1.2443930000000012">
        <ele>543.629</ele>
        <time>2022-08-24T07:19:48Z</time>
      </trkpt>
      <trkpt lat="43.12093499999979" lon="-1.2444020000000011">
        <ele>543.699</ele>
        <time>2022-08-24T07:19:50Z</time>
      </trkpt>
      <trkpt lat="43.12091899999979" lon="-1.2444040000000012">
        <ele>543.849</ele>
        <time>2022-08-24T07:19:51Z</time>
      </trkpt>
      <trkpt lat="43.120902999999785" lon="-1.2444100000000011">
        <ele>543.865</ele>
        <time>2022-08-24T07:19:52Z</time>
      </trkpt>
      <trkpt lat="43.120832999999784" lon="-1.2444370000000011">
        <ele>544.277</ele>
        <time>2022-08-24T07:19:56Z</time>
      </trkpt>
      <trkpt lat="43.120812999999785" lon="-1.244440000000001">
        <ele>544.464</ele>
        <time>2022-08-24T07:19:57Z</time>
      </trkpt>
      <trkpt lat="43.12077499999978" lon="-1.2444450000000011">
        <ele>544.687</ele>
        <time>2022-08-24T07:19:59Z</time>
      </trkpt>
      <trkpt lat="43.12073799999978" lon="-1.244454000000001">
        <ele>544.841</ele>
        <time>2022-08-24T07:20:01Z</time>
      </trkpt>
      <trkpt lat="43.12068799999978" lon="-1.244474000000001">
        <ele>545.450</ele>
        <time>2022-08-24T07:20:04Z</time>
      </trkpt>
      <trkpt lat="43.12067199999978" lon="-1.244479000000001">
        <ele>545.422</ele>
        <time>2022-08-24T07:20:05Z</time>
      </trkpt>
      <trkpt lat="43.12065599999978" lon="-1.244482000000001">
        <ele>545.662</ele>
        <time>2022-08-24T07:20:06Z</time>
      </trkpt>
      <trkpt lat="43.120639999999774" lon="-1.244484000000001">
        <ele>545.608</ele>
        <time>2022-08-24T07:20:07Z</time>
      </trkpt>
      <trkpt lat="43.120622999999775" lon="-1.244490000000001">
        <ele>545.809</ele>
        <time>2022-08-24T07:20:08Z</time>
      </trkpt>
      <trkpt lat="43.12059099999978" lon="-1.244498000000001">
        <ele>546.043</ele>
        <time>2022-08-24T07:20:10Z</time>
      </trkpt>
      <trkpt lat="43.120560999999775" lon="-1.244505000000001">
        <ele>546.253</ele>
        <time>2022-08-24T07:20:12Z</time>
      </trkpt>
      <trkpt lat="43.120546999999775" lon="-1.244509000000001">
        <ele>546.423</ele>
        <time>2022-08-24T07:20:13Z</time>
      </trkpt>
      <trkpt lat="43.12053399999977" lon="-1.2445130000000009">
        <ele>546.479</ele>
        <time>2022-08-24T07:20:14Z</time>
      </trkpt>
      <trkpt lat="43.12051999999977" lon="-1.2445130000000009">
        <ele>546.481</ele>
        <time>2022-08-24T07:20:15Z</time>
      </trkpt>
      <trkpt lat="43.12050399999977" lon="-1.244512000000001">
        <ele>546.658</ele>
        <time>2022-08-24T07:20:16Z</time>
      </trkpt>
      <trkpt lat="43.12048999999977" lon="-1.244512000000001">
        <ele>546.871</ele>
        <time>2022-08-24T07:20:17Z</time>
      </trkpt>
      <trkpt lat="43.12047699999977" lon="-1.244514000000001">
        <ele>547.035</ele>
        <time>2022-08-24T07:20:18Z</time>
      </trkpt>
      <trkpt lat="43.120463999999764" lon="-1.244518000000001">
        <ele>547.024</ele>
        <time>2022-08-24T07:20:19Z</time>
      </trkpt>
      <trkpt lat="43.120449999999764" lon="-1.2445190000000008">
        <ele>547.217</ele>
        <time>2022-08-24T07:20:20Z</time>
      </trkpt>
      <trkpt lat="43.12043699999976" lon="-1.244518000000001">
        <ele>547.487</ele>
        <time>2022-08-24T07:20:21Z</time>
      </trkpt>
      <trkpt lat="43.12042199999976" lon="-1.244515000000001">
        <ele>547.415</ele>
        <time>2022-08-24T07:20:22Z</time>
      </trkpt>
      <trkpt lat="43.120406999999766" lon="-1.244512000000001">
        <ele>547.609</ele>
        <time>2022-08-24T07:20:23Z</time>
      </trkpt>
      <trkpt lat="43.12039099999976" lon="-1.244511000000001">
        <ele>547.852</ele>
        <time>2022-08-24T07:20:24Z</time>
      </trkpt>
      <trkpt lat="43.12037199999976" lon="-1.244512000000001">
        <ele>548.072</ele>
        <time>2022-08-24T07:20:25Z</time>
      </trkpt>
      <trkpt lat="43.12035199999976" lon="-1.244512000000001">
        <ele>548.212</ele>
        <time>2022-08-24T07:20:26Z</time>
      </trkpt>
      <trkpt lat="43.12033299999976" lon="-1.244510000000001">
        <ele>549.068</ele>
        <time>2022-08-24T07:20:27Z</time>
      </trkpt>
      <trkpt lat="43.12031499999976" lon="-1.2445080000000008">
        <ele>549.460</ele>
        <time>2022-08-24T07:20:28Z</time>
      </trkpt>
      <trkpt lat="43.120296999999766" lon="-1.2445060000000008">
        <ele>549.437</ele>
        <time>2022-08-24T07:20:29Z</time>
      </trkpt>
      <trkpt lat="43.12027899999977" lon="-1.2445040000000007">
        <ele>549.620</ele>
        <time>2022-08-24T07:20:30Z</time>
      </trkpt>
      <trkpt lat="43.12026099999977" lon="-1.2445020000000007">
        <ele>549.674</ele>
        <time>2022-08-24T07:20:31Z</time>
      </trkpt>
      <trkpt lat="43.12024399999977" lon="-1.2444970000000006">
        <ele>549.883</ele>
        <time>2022-08-24T07:20:32Z</time>
      </trkpt>
      <trkpt lat="43.12022999999977" lon="-1.2444900000000005">
        <ele>550.048</ele>
        <time>2022-08-24T07:20:33Z</time>
      </trkpt>
      <trkpt lat="43.120214999999774" lon="-1.2444860000000006">
        <ele>550.261</ele>
        <time>2022-08-24T07:20:34Z</time>
      </trkpt>
      <trkpt lat="43.12019999999978" lon="-1.2444810000000006">
        <ele>550.417</ele>
        <time>2022-08-24T07:20:35Z</time>
      </trkpt>
      <trkpt lat="43.12018499999978" lon="-1.2444750000000007">
        <ele>550.609</ele>
        <time>2022-08-24T07:20:36Z</time>
      </trkpt>
      <trkpt lat="43.12017099999978" lon="-1.2444680000000006">
        <ele>550.855</ele>
        <time>2022-08-24T07:20:37Z</time>
      </trkpt>
      <trkpt lat="43.12015699999978" lon="-1.2444640000000007">
        <ele>551.035</ele>
        <time>2022-08-24T07:20:38Z</time>
      </trkpt>
      <trkpt lat="43.12014299999978" lon="-1.2444590000000006">
        <ele>551.495</ele>
        <time>2022-08-24T07:20:39Z</time>
      </trkpt>
      <trkpt lat="43.120129999999776" lon="-1.2444560000000007">
        <ele>551.421</ele>
        <time>2022-08-24T07:20:40Z</time>
      </trkpt>
      <trkpt lat="43.120115999999776" lon="-1.2444520000000008">
        <ele>551.653</ele>
        <time>2022-08-24T07:20:41Z</time>
      </trkpt>
      <trkpt lat="43.12010099999978" lon="-1.2444440000000008">
        <ele>551.820</ele>
        <time>2022-08-24T07:20:42Z</time>
      </trkpt>
      <trkpt lat="43.12008699999978" lon="-1.2444360000000008">
        <ele>552.023</ele>
        <time>2022-08-24T07:20:43Z</time>
      </trkpt>
      <trkpt lat="43.120073999999775" lon="-1.2444250000000008">
        <ele>552.227</ele>
        <time>2022-08-24T07:20:44Z</time>
      </trkpt>
      <trkpt lat="43.12006199999978" lon="-1.2444180000000007">
        <ele>552.496</ele>
        <time>2022-08-24T07:20:45Z</time>
      </trkpt>
      <trkpt lat="43.12004799999978" lon="-1.2444130000000007">
        <ele>552.678</ele>
        <time>2022-08-24T07:20:46Z</time>
      </trkpt>
      <trkpt lat="43.12003399999978" lon="-1.2444070000000007">
        <ele>552.833</ele>
        <time>2022-08-24T07:20:47Z</time>
      </trkpt>
      <trkpt lat="43.120019999999776" lon="-1.2443980000000008">
        <ele>553.026</ele>
        <time>2022-08-24T07:20:48Z</time>
      </trkpt>
      <trkpt lat="43.12000799999978" lon="-1.2443930000000007">
        <ele>553.209</ele>
        <time>2022-08-24T07:20:49Z</time>
      </trkpt>
      <trkpt lat="43.11999299999978" lon="-1.2443900000000008">
        <ele>553.458</ele>
        <time>2022-08-24T07:20:50Z</time>
      </trkpt>
      <trkpt lat="43.11997999999978" lon="-1.2443830000000007">
        <ele>553.448</ele>
        <time>2022-08-24T07:20:51Z</time>
      </trkpt>
      <trkpt lat="43.11996599999978" lon="-1.2443750000000007">
        <ele>553.688</ele>
        <time>2022-08-24T07:20:52Z</time>
      </trkpt>
      <trkpt lat="43.11995099999978" lon="-1.2443660000000007">
        <ele>553.824</ele>
        <time>2022-08-24T07:20:53Z</time>
      </trkpt>
      <trkpt lat="43.11993999999978" lon="-1.2443570000000008">
        <ele>554.056</ele>
        <time>2022-08-24T07:20:54Z</time>
      </trkpt>
      <trkpt lat="43.11992699999978" lon="-1.244348000000001">
        <ele>554.073</ele>
        <time>2022-08-24T07:20:55Z</time>
      </trkpt>
      <trkpt lat="43.119913999999774" lon="-1.2443410000000008">
        <ele>554.256</ele>
        <time>2022-08-24T07:20:56Z</time>
      </trkpt>
      <trkpt lat="43.119899999999774" lon="-1.2443350000000009">
        <ele>554.440</ele>
        <time>2022-08-24T07:20:57Z</time>
      </trkpt>
      <trkpt lat="43.119885999999774" lon="-1.244329000000001">
        <ele>554.699</ele>
        <time>2022-08-24T07:20:58Z</time>
      </trkpt>
      <trkpt lat="43.11987499999977" lon="-1.244321000000001">
        <ele>554.654</ele>
        <time>2022-08-24T07:20:59Z</time>
      </trkpt>
      <trkpt lat="43.11985899999977" lon="-1.2443140000000008">
        <ele>555.056</ele>
        <time>2022-08-24T07:21:00Z</time>
      </trkpt>
      <trkpt lat="43.11984899999977" lon="-1.2443060000000008">
        <ele>555.011</ele>
        <time>2022-08-24T07:21:01Z</time>
      </trkpt>
      <trkpt lat="43.11983799999977" lon="-1.2442960000000007">
        <ele>555.409</ele>
        <time>2022-08-24T07:21:02Z</time>
      </trkpt>
      <trkpt lat="43.11982599999977" lon="-1.2442880000000007">
        <ele>555.486</ele>
        <time>2022-08-24T07:21:03Z</time>
      </trkpt>
      <trkpt lat="43.119815999999766" lon="-1.2442810000000006">
        <ele>555.426</ele>
        <time>2022-08-24T07:21:04Z</time>
      </trkpt>
      <trkpt lat="43.11980599999976" lon="-1.2442730000000006">
        <ele>555.836</ele>
        <time>2022-08-24T07:21:05Z</time>
      </trkpt>
      <trkpt lat="43.11979599999976" lon="-1.2442670000000007">
        <ele>555.882</ele>
        <time>2022-08-24T07:21:06Z</time>
      </trkpt>
      <trkpt lat="43.119785999999756" lon="-1.2442620000000006">
        <ele>556.234</ele>
        <time>2022-08-24T07:21:07Z</time>
      </trkpt>
      <trkpt lat="43.11977599999975" lon="-1.2442610000000007">
        <ele>556.291</ele>
        <time>2022-08-24T07:21:08Z</time>
      </trkpt>
      <trkpt lat="43.119763999999755" lon="-1.2442540000000006">
        <ele>556.444</ele>
        <time>2022-08-24T07:21:09Z</time>
      </trkpt>
      <trkpt lat="43.11975199999976" lon="-1.2442470000000005">
        <ele>556.628</ele>
        <time>2022-08-24T07:21:10Z</time>
      </trkpt>
      <trkpt lat="43.119740999999756" lon="-1.2442410000000006">
        <ele>556.877</ele>
        <time>2022-08-24T07:21:11Z</time>
      </trkpt>
      <trkpt lat="43.11973099999975" lon="-1.2442370000000007">
        <ele>556.887</ele>
        <time>2022-08-24T07:21:12Z</time>
      </trkpt>
      <trkpt lat="43.119721999999754" lon="-1.2442300000000006">
        <ele>557.042</ele>
        <time>2022-08-24T07:21:13Z</time>
      </trkpt>
      <trkpt lat="43.11971199999975" lon="-1.2442180000000007">
        <ele>557.226</ele>
        <time>2022-08-24T07:21:14Z</time>
      </trkpt>
      <trkpt lat="43.11970199999975" lon="-1.2442080000000006">
        <ele>557.409</ele>
        <time>2022-08-24T07:21:15Z</time>
      </trkpt>
      <trkpt lat="43.119691999999745" lon="-1.2442010000000006">
        <ele>557.439</ele>
        <time>2022-08-24T07:21:16Z</time>
      </trkpt>
      <trkpt lat="43.119680999999744" lon="-1.2441980000000006">
        <ele>557.659</ele>
        <time>2022-08-24T07:21:17Z</time>
      </trkpt>
      <trkpt lat="43.11966999999974" lon="-1.2441920000000006">
        <ele>557.839</ele>
        <time>2022-08-24T07:21:18Z</time>
      </trkpt>
      <trkpt lat="43.119657999999745" lon="-1.2441830000000007">
        <ele>558.085</ele>
        <time>2022-08-24T07:21:19Z</time>
      </trkpt>
      <trkpt lat="43.11964599999975" lon="-1.2441700000000007">
        <ele>558.057</ele>
        <time>2022-08-24T07:21:20Z</time>
      </trkpt>
      <trkpt lat="43.11963499999975" lon="-1.2441570000000006">
        <ele>558.264</ele>
        <time>2022-08-24T07:21:21Z</time>
      </trkpt>
      <trkpt lat="43.119623999999746" lon="-1.2441440000000006">
        <ele>558.267</ele>
        <time>2022-08-24T07:21:22Z</time>
      </trkpt>
      <trkpt lat="43.119612999999745" lon="-1.2441360000000006">
        <ele>558.471</ele>
        <time>2022-08-24T07:21:23Z</time>
      </trkpt>
      <trkpt lat="43.11959999999974" lon="-1.2441310000000005">
        <ele>558.670</ele>
        <time>2022-08-24T07:21:24Z</time>
      </trkpt>
      <trkpt lat="43.119584999999745" lon="-1.2441220000000006">
        <ele>558.676</ele>
        <time>2022-08-24T07:21:25Z</time>
      </trkpt>
      <trkpt lat="43.11957299999975" lon="-1.2441100000000007">
        <ele>558.890</ele>
        <time>2022-08-24T07:21:26Z</time>
      </trkpt>
      <trkpt lat="43.11956399999975" lon="-1.2440980000000008">
        <ele>558.819</ele>
        <time>2022-08-24T07:21:27Z</time>
      </trkpt>
      <trkpt lat="43.11955499999975" lon="-1.2440840000000009">
        <ele>559.009</ele>
        <time>2022-08-24T07:21:28Z</time>
      </trkpt>
      <trkpt lat="43.11954399999975" lon="-1.244070000000001">
        <ele>559.428</ele>
        <time>2022-08-24T07:21:29Z</time>
      </trkpt>
      <trkpt lat="43.11953699999975" lon="-1.244058000000001">
        <ele>559.858</ele>
        <time>2022-08-24T07:21:30Z</time>
      </trkpt>
      <trkpt lat="43.119527999999754" lon="-1.244050000000001">
        <ele>560.028</ele>
        <time>2022-08-24T07:21:31Z</time>
      </trkpt>
      <trkpt lat="43.11951699999975" lon="-1.244042000000001">
        <ele>560.064</ele>
        <time>2022-08-24T07:21:32Z</time>
      </trkpt>
      <trkpt lat="43.11950699999975" lon="-1.244034000000001">
        <ele>560.236</ele>
        <time>2022-08-24T07:21:33Z</time>
      </trkpt>
      <trkpt lat="43.11949599999975" lon="-1.244026000000001">
        <ele>560.463</ele>
        <time>2022-08-24T07:21:34Z</time>
      </trkpt>
      <trkpt lat="43.11948499999975" lon="-1.244022000000001">
        <ele>561.066</ele>
        <time>2022-08-24T07:21:35Z</time>
      </trkpt>
      <trkpt lat="43.11947599999975" lon="-1.244020000000001">
        <ele>561.210</ele>
        <time>2022-08-24T07:21:36Z</time>
      </trkpt>
      <trkpt lat="43.11946299999975" lon="-1.244013000000001">
        <ele>561.669</ele>
        <time>2022-08-24T07:21:37Z</time>
      </trkpt>
      <trkpt lat="43.119452999999744" lon="-1.244004000000001">
        <ele>561.815</ele>
        <time>2022-08-24T07:21:38Z</time>
      </trkpt>
      <trkpt lat="43.119446999999745" lon="-1.243996000000001">
        <ele>561.865</ele>
        <time>2022-08-24T07:21:39Z</time>
      </trkpt>
      <trkpt lat="43.11944299999975" lon="-1.243982000000001">
        <ele>561.811</ele>
        <time>2022-08-24T07:21:40Z</time>
      </trkpt>
      <trkpt lat="43.11943599999975" lon="-1.2439700000000011">
        <ele>562.009</ele>
        <time>2022-08-24T07:21:41Z</time>
      </trkpt>
      <trkpt lat="43.11942999999975" lon="-1.2439620000000011">
        <ele>562.272</ele>
        <time>2022-08-24T07:21:42Z</time>
      </trkpt>
      <trkpt lat="43.11941999999975" lon="-1.2439540000000011">
        <ele>562.852</ele>
        <time>2022-08-24T07:21:43Z</time>
      </trkpt>
      <trkpt lat="43.11941199999975" lon="-1.2439480000000012">
        <ele>562.872</ele>
        <time>2022-08-24T07:21:44Z</time>
      </trkpt>
      <trkpt lat="43.119401999999745" lon="-1.2439430000000011">
        <ele>563.258</ele>
        <time>2022-08-24T07:21:45Z</time>
      </trkpt>
      <trkpt lat="43.119393999999744" lon="-1.2439390000000012">
        <ele>563.220</ele>
        <time>2022-08-24T07:21:46Z</time>
      </trkpt>
      <trkpt lat="43.11938599999974" lon="-1.2439310000000012">
        <ele>563.477</ele>
        <time>2022-08-24T07:21:47Z</time>
      </trkpt>
      <trkpt lat="43.119378999999746" lon="-1.2439180000000012">
        <ele>563.670</ele>
        <time>2022-08-24T07:21:48Z</time>
      </trkpt>
      <trkpt lat="43.11937199999975" lon="-1.2439100000000012">
        <ele>563.894</ele>
        <time>2022-08-24T07:21:49Z</time>
      </trkpt>
      <trkpt lat="43.11936399999975" lon="-1.2439040000000012">
        <ele>564.043</ele>
        <time>2022-08-24T07:21:50Z</time>
      </trkpt>
      <trkpt lat="43.11935599999975" lon="-1.2438970000000011">
        <ele>564.243</ele>
        <time>2022-08-24T07:21:51Z</time>
      </trkpt>
      <trkpt lat="43.119350999999746" lon="-1.2438890000000011">
        <ele>564.464</ele>
        <time>2022-08-24T07:21:52Z</time>
      </trkpt>
      <trkpt lat="43.119342999999745" lon="-1.2438810000000011">
        <ele>564.410</ele>
        <time>2022-08-24T07:21:53Z</time>
      </trkpt>
      <trkpt lat="43.119333999999746" lon="-1.2438720000000012">
        <ele>564.609</ele>
        <time>2022-08-24T07:21:54Z</time>
      </trkpt>
      <trkpt lat="43.119325999999745" lon="-1.2438630000000013">
        <ele>564.835</ele>
        <time>2022-08-24T07:21:55Z</time>
      </trkpt>
      <trkpt lat="43.119319999999746" lon="-1.2438550000000013">
        <ele>565.035</ele>
        <time>2022-08-24T07:21:56Z</time>
      </trkpt>
      <trkpt lat="43.11931299999975" lon="-1.2438480000000012">
        <ele>565.285</ele>
        <time>2022-08-24T07:21:57Z</time>
      </trkpt>
      <trkpt lat="43.11930599999975" lon="-1.2438400000000012">
        <ele>565.251</ele>
        <time>2022-08-24T07:21:58Z</time>
      </trkpt>
      <trkpt lat="43.11930099999975" lon="-1.2438280000000013">
        <ele>565.423</ele>
        <time>2022-08-24T07:21:59Z</time>
      </trkpt>
      <trkpt lat="43.119296999999754" lon="-1.2438170000000013">
        <ele>565.420</ele>
        <time>2022-08-24T07:22:00Z</time>
      </trkpt>
      <trkpt lat="43.11928999999976" lon="-1.2438090000000013">
        <ele>565.673</ele>
        <time>2022-08-24T07:22:01Z</time>
      </trkpt>
      <trkpt lat="43.11928199999976" lon="-1.2438030000000013">
        <ele>565.877</ele>
        <time>2022-08-24T07:22:02Z</time>
      </trkpt>
      <trkpt lat="43.119273999999756" lon="-1.2437990000000014">
        <ele>566.026</ele>
        <time>2022-08-24T07:22:03Z</time>
      </trkpt>
      <trkpt lat="43.11926499999976" lon="-1.2437920000000013">
        <ele>566.266</ele>
        <time>2022-08-24T07:22:04Z</time>
      </trkpt>
      <trkpt lat="43.119256999999756" lon="-1.2437840000000013">
        <ele>566.229</ele>
        <time>2022-08-24T07:22:05Z</time>
      </trkpt>
      <trkpt lat="43.11925099999976" lon="-1.2437760000000013">
        <ele>566.621</ele>
        <time>2022-08-24T07:22:06Z</time>
      </trkpt>
      <trkpt lat="43.11924399999976" lon="-1.2437690000000012">
        <ele>566.809</ele>
        <time>2022-08-24T07:22:07Z</time>
      </trkpt>
      <trkpt lat="43.11923599999976" lon="-1.2437600000000013">
        <ele>567.057</ele>
        <time>2022-08-24T07:22:08Z</time>
      </trkpt>
      <trkpt lat="43.11922899999976" lon="-1.2437500000000012">
        <ele>567.017</ele>
        <time>2022-08-24T07:22:09Z</time>
      </trkpt>
      <trkpt lat="43.119222999999764" lon="-1.2437360000000013">
        <ele>567.267</ele>
        <time>2022-08-24T07:22:10Z</time>
      </trkpt>
      <trkpt lat="43.11921799999976" lon="-1.2437210000000012">
        <ele>567.463</ele>
        <time>2022-08-24T07:22:11Z</time>
      </trkpt>
      <trkpt lat="43.119210999999765" lon="-1.2437070000000012">
        <ele>567.845</ele>
        <time>2022-08-24T07:22:12Z</time>
      </trkpt>
      <trkpt lat="43.11920399999977" lon="-1.2436910000000012">
        <ele>568.052</ele>
        <time>2022-08-24T07:22:13Z</time>
      </trkpt>
      <trkpt lat="43.11919599999977" lon="-1.2436790000000013">
        <ele>568.095</ele>
        <time>2022-08-24T07:22:14Z</time>
      </trkpt>
      <trkpt lat="43.119185999999765" lon="-1.2436680000000013">
        <ele>568.039</ele>
        <time>2022-08-24T07:22:15Z</time>
      </trkpt>
      <trkpt lat="43.119176999999766" lon="-1.2436600000000013">
        <ele>568.268</ele>
        <time>2022-08-24T07:22:16Z</time>
      </trkpt>
      <trkpt lat="43.119168999999765" lon="-1.2436520000000013">
        <ele>568.449</ele>
        <time>2022-08-24T07:22:17Z</time>
      </trkpt>
      <trkpt lat="43.11916199999977" lon="-1.2436450000000012">
        <ele>568.602</ele>
        <time>2022-08-24T07:22:18Z</time>
      </trkpt>
      <trkpt lat="43.11915399999977" lon="-1.2436370000000012">
        <ele>568.622</ele>
        <time>2022-08-24T07:22:19Z</time>
      </trkpt>
      <trkpt lat="43.11914699999977" lon="-1.2436260000000012">
        <ele>569.009</ele>
        <time>2022-08-24T07:22:20Z</time>
      </trkpt>
      <trkpt lat="43.119139999999774" lon="-1.2436180000000012">
        <ele>569.015</ele>
        <time>2022-08-24T07:22:21Z</time>
      </trkpt>
      <trkpt lat="43.11913199999977" lon="-1.2436110000000011">
        <ele>569.225</ele>
        <time>2022-08-24T07:22:22Z</time>
      </trkpt>
      <trkpt lat="43.119122999999774" lon="-1.2436050000000012">
        <ele>569.495</ele>
        <time>2022-08-24T07:22:23Z</time>
      </trkpt>
      <trkpt lat="43.11911499999977" lon="-1.2435960000000013">
        <ele>569.641</ele>
        <time>2022-08-24T07:22:24Z</time>
      </trkpt>
      <trkpt lat="43.11910699999977" lon="-1.2435870000000013">
        <ele>569.823</ele>
        <time>2022-08-24T07:22:25Z</time>
      </trkpt>
      <trkpt lat="43.11909899999977" lon="-1.2435790000000013">
        <ele>570.090</ele>
        <time>2022-08-24T07:22:26Z</time>
      </trkpt>
      <trkpt lat="43.119091999999775" lon="-1.2435690000000013">
        <ele>570.073</ele>
        <time>2022-08-24T07:22:27Z</time>
      </trkpt>
      <trkpt lat="43.119085999999776" lon="-1.2435540000000012">
        <ele>570.287</ele>
        <time>2022-08-24T07:22:28Z</time>
      </trkpt>
      <trkpt lat="43.11907999999978" lon="-1.2435400000000012">
        <ele>570.276</ele>
        <time>2022-08-24T07:22:29Z</time>
      </trkpt>
      <trkpt lat="43.11907099999978" lon="-1.2435290000000012">
        <ele>570.464</ele>
        <time>2022-08-24T07:22:30Z</time>
      </trkpt>
      <trkpt lat="43.119060999999775" lon="-1.2435200000000013">
        <ele>570.606</ele>
        <time>2022-08-24T07:22:31Z</time>
      </trkpt>
      <trkpt lat="43.119051999999776" lon="-1.2435110000000014">
        <ele>570.816</ele>
        <time>2022-08-24T07:22:32Z</time>
      </trkpt>
      <trkpt lat="43.119040999999775" lon="-1.2435030000000014">
        <ele>571.009</ele>
        <time>2022-08-24T07:22:33Z</time>
      </trkpt>
      <trkpt lat="43.11903099999977" lon="-1.2434910000000015">
        <ele>571.297</ele>
        <time>2022-08-24T07:22:34Z</time>
      </trkpt>
      <trkpt lat="43.11902599999977" lon="-1.2434820000000015">
        <ele>571.247</ele>
        <time>2022-08-24T07:22:35Z</time>
      </trkpt>
      <trkpt lat="43.119018999999774" lon="-1.2434730000000016">
        <ele>571.687</ele>
        <time>2022-08-24T07:22:36Z</time>
      </trkpt>
      <trkpt lat="43.11901099999977" lon="-1.2434640000000017">
        <ele>571.683</ele>
        <time>2022-08-24T07:22:37Z</time>
      </trkpt>
      <trkpt lat="43.11900399999978" lon="-1.2434520000000018">
        <ele>571.885</ele>
        <time>2022-08-24T07:22:38Z</time>
      </trkpt>
      <trkpt lat="43.11899799999978" lon="-1.2434390000000017">
        <ele>572.022</ele>
        <time>2022-08-24T07:22:39Z</time>
      </trkpt>
      <trkpt lat="43.11899099999978" lon="-1.2434290000000017">
        <ele>572.275</ele>
        <time>2022-08-24T07:22:40Z</time>
      </trkpt>
      <trkpt lat="43.11898199999978" lon="-1.2434200000000017">
        <ele>572.449</ele>
        <time>2022-08-24T07:22:41Z</time>
      </trkpt>
      <trkpt lat="43.11897199999978" lon="-1.2434110000000018">
        <ele>572.418</ele>
        <time>2022-08-24T07:22:42Z</time>
      </trkpt>
      <trkpt lat="43.11896099999978" lon="-1.2434030000000018">
        <ele>572.694</ele>
        <time>2022-08-24T07:22:43Z</time>
      </trkpt>
      <trkpt lat="43.11894899999978" lon="-1.2433940000000019">
        <ele>572.657</ele>
        <time>2022-08-24T07:22:44Z</time>
      </trkpt>
      <trkpt lat="43.11893699999978" lon="-1.243380000000002">
        <ele>572.822</ele>
        <time>2022-08-24T07:22:45Z</time>
      </trkpt>
      <trkpt lat="43.11892899999978" lon="-1.243371000000002">
        <ele>573.009</ele>
        <time>2022-08-24T07:22:46Z</time>
      </trkpt>
      <trkpt lat="43.11892099999978" lon="-1.243363000000002">
        <ele>573.270</ele>
        <time>2022-08-24T07:22:47Z</time>
      </trkpt>
      <trkpt lat="43.11891099999978" lon="-1.243356000000002">
        <ele>573.640</ele>
        <time>2022-08-24T07:22:48Z</time>
      </trkpt>
      <trkpt lat="43.118902999999776" lon="-1.243347000000002">
        <ele>573.660</ele>
        <time>2022-08-24T07:22:49Z</time>
      </trkpt>
      <trkpt lat="43.11889599999978" lon="-1.243335000000002">
        <ele>573.836</ele>
        <time>2022-08-24T07:22:50Z</time>
      </trkpt>
      <trkpt lat="43.11888999999978" lon="-1.2433230000000022">
        <ele>573.878</ele>
        <time>2022-08-24T07:22:51Z</time>
      </trkpt>
      <trkpt lat="43.11888199999978" lon="-1.2433120000000022">
        <ele>574.045</ele>
        <time>2022-08-24T07:22:52Z</time>
      </trkpt>
      <trkpt lat="43.11887299999978" lon="-1.2433040000000022">
        <ele>574.498</ele>
        <time>2022-08-24T07:22:53Z</time>
      </trkpt>
      <trkpt lat="43.11886299999978" lon="-1.2432960000000022">
        <ele>574.432</ele>
        <time>2022-08-24T07:22:54Z</time>
      </trkpt>
      <trkpt lat="43.118852999999774" lon="-1.243289000000002">
        <ele>574.661</ele>
        <time>2022-08-24T07:22:55Z</time>
      </trkpt>
      <trkpt lat="43.118843999999775" lon="-1.243282000000002">
        <ele>574.834</ele>
        <time>2022-08-24T07:22:56Z</time>
      </trkpt>
      <trkpt lat="43.11883499999978" lon="-1.243273000000002">
        <ele>574.855</ele>
        <time>2022-08-24T07:22:57Z</time>
      </trkpt>
      <trkpt lat="43.11882799999978" lon="-1.243263000000002">
        <ele>575.010</ele>
        <time>2022-08-24T07:22:58Z</time>
      </trkpt>
      <trkpt lat="43.11882199999978" lon="-1.243254000000002">
        <ele>575.209</ele>
        <time>2022-08-24T07:22:59Z</time>
      </trkpt>
      <trkpt lat="43.11881399999978" lon="-1.243247000000002">
        <ele>575.224</ele>
        <time>2022-08-24T07:23:00Z</time>
      </trkpt>
      <trkpt lat="43.11880299999978" lon="-1.243240000000002">
        <ele>575.214</ele>
        <time>2022-08-24T07:23:01Z</time>
      </trkpt>
      <trkpt lat="43.11879399999978" lon="-1.2432300000000018">
        <ele>575.484</ele>
        <time>2022-08-24T07:23:02Z</time>
      </trkpt>
      <trkpt lat="43.118786999999784" lon="-1.2432220000000018">
        <ele>575.650</ele>
        <time>2022-08-24T07:23:03Z</time>
      </trkpt>
      <trkpt lat="43.11877699999978" lon="-1.2432150000000017">
        <ele>575.812</ele>
        <time>2022-08-24T07:23:04Z</time>
      </trkpt>
      <trkpt lat="43.11876899999978" lon="-1.2432040000000018">
        <ele>575.899</ele>
        <time>2022-08-24T07:23:05Z</time>
      </trkpt>
      <trkpt lat="43.11875899999978" lon="-1.2431900000000018">
        <ele>576.282</ele>
        <time>2022-08-24T07:23:06Z</time>
      </trkpt>
      <trkpt lat="43.118745999999774" lon="-1.2431730000000019">
        <ele>576.046</ele>
        <time>2022-08-24T07:23:07Z</time>
      </trkpt>
      <trkpt lat="43.11873299999977" lon="-1.2431570000000018">
        <ele>576.445</ele>
        <time>2022-08-24T07:23:08Z</time>
      </trkpt>
      <trkpt lat="43.118717999999774" lon="-1.2431440000000018">
        <ele>576.676</ele>
        <time>2022-08-24T07:23:09Z</time>
      </trkpt>
      <trkpt lat="43.11870499999977" lon="-1.2431270000000019">
        <ele>576.690</ele>
        <time>2022-08-24T07:23:10Z</time>
      </trkpt>
      <trkpt lat="43.11869399999977" lon="-1.2431090000000018">
        <ele>576.819</ele>
        <time>2022-08-24T07:23:11Z</time>
      </trkpt>
      <trkpt lat="43.11868399999977" lon="-1.2430960000000018">
        <ele>576.809</ele>
        <time>2022-08-24T07:23:12Z</time>
      </trkpt>
      <trkpt lat="43.118670999999765" lon="-1.2430850000000018">
        <ele>577.038</ele>
        <time>2022-08-24T07:23:13Z</time>
      </trkpt>
      <trkpt lat="43.11865899999977" lon="-1.2430740000000018">
        <ele>577.428</ele>
        <time>2022-08-24T07:23:14Z</time>
      </trkpt>
      <trkpt lat="43.11864699999977" lon="-1.2430650000000019">
        <ele>577.438</ele>
        <time>2022-08-24T07:23:15Z</time>
      </trkpt>
      <trkpt lat="43.11863499999977" lon="-1.2430540000000019">
        <ele>577.624</ele>
        <time>2022-08-24T07:23:16Z</time>
      </trkpt>
      <trkpt lat="43.11862599999977" lon="-1.243040000000002">
        <ele>577.836</ele>
        <time>2022-08-24T07:23:17Z</time>
      </trkpt>
      <trkpt lat="43.11861599999977" lon="-1.243028000000002">
        <ele>578.023</ele>
        <time>2022-08-24T07:23:18Z</time>
      </trkpt>
      <trkpt lat="43.11860499999977" lon="-1.243017000000002">
        <ele>578.286</ele>
        <time>2022-08-24T07:23:19Z</time>
      </trkpt>
      <trkpt lat="43.11859599999977" lon="-1.2430080000000021">
        <ele>578.450</ele>
        <time>2022-08-24T07:23:20Z</time>
      </trkpt>
      <trkpt lat="43.11858699999977" lon="-1.242998000000002">
        <ele>578.879</ele>
        <time>2022-08-24T07:23:21Z</time>
      </trkpt>
      <trkpt lat="43.118579999999774" lon="-1.242985000000002">
        <ele>579.033</ele>
        <time>2022-08-24T07:23:22Z</time>
      </trkpt>
      <trkpt lat="43.118570999999775" lon="-1.242972000000002">
        <ele>579.223</ele>
        <time>2022-08-24T07:23:23Z</time>
      </trkpt>
      <trkpt lat="43.118559999999775" lon="-1.242960000000002">
        <ele>579.415</ele>
        <time>2022-08-24T07:23:24Z</time>
      </trkpt>
      <trkpt lat="43.11854999999977" lon="-1.242953000000002">
        <ele>579.409</ele>
        <time>2022-08-24T07:23:25Z</time>
      </trkpt>
      <trkpt lat="43.11854199999977" lon="-1.242945000000002">
        <ele>579.614</ele>
        <time>2022-08-24T07:23:26Z</time>
      </trkpt>
      <trkpt lat="43.11853199999977" lon="-1.242933000000002">
        <ele>579.684</ele>
        <time>2022-08-24T07:23:27Z</time>
      </trkpt>
      <trkpt lat="43.11852299999977" lon="-1.242923000000002">
        <ele>579.874</ele>
        <time>2022-08-24T07:23:28Z</time>
      </trkpt>
      <trkpt lat="43.11851399999977" lon="-1.242914000000002">
        <ele>580.040</ele>
        <time>2022-08-24T07:23:29Z</time>
      </trkpt>
      <trkpt lat="43.11850499999977" lon="-1.242903000000002">
        <ele>580.082</ele>
        <time>2022-08-24T07:23:30Z</time>
      </trkpt>
      <trkpt lat="43.11849399999977" lon="-1.2428910000000022">
        <ele>580.279</ele>
        <time>2022-08-24T07:23:31Z</time>
      </trkpt>
      <trkpt lat="43.11848599999977" lon="-1.2428820000000023">
        <ele>580.412</ele>
        <time>2022-08-24T07:23:32Z</time>
      </trkpt>
      <trkpt lat="43.11847699999977" lon="-1.2428720000000022">
        <ele>580.426</ele>
        <time>2022-08-24T07:23:33Z</time>
      </trkpt>
      <trkpt lat="43.11846899999977" lon="-1.2428640000000022">
        <ele>580.625</ele>
        <time>2022-08-24T07:23:34Z</time>
      </trkpt>
      <trkpt lat="43.11846099999977" lon="-1.2428550000000023">
        <ele>580.896</ele>
        <time>2022-08-24T07:23:35Z</time>
      </trkpt>
      <trkpt lat="43.11845499999977" lon="-1.2428450000000022">
        <ele>581.031</ele>
        <time>2022-08-24T07:23:36Z</time>
      </trkpt>
      <trkpt lat="43.11844999999977" lon="-1.2428320000000022">
        <ele>581.024</ele>
        <time>2022-08-24T07:23:37Z</time>
      </trkpt>
      <trkpt lat="43.11844099999977" lon="-1.2428210000000022">
        <ele>581.209</ele>
        <time>2022-08-24T07:23:38Z</time>
      </trkpt>
      <trkpt lat="43.11843199999977" lon="-1.242811000000002">
        <ele>581.490</ele>
        <time>2022-08-24T07:23:39Z</time>
      </trkpt>
      <trkpt lat="43.118424999999775" lon="-1.242801000000002">
        <ele>581.660</ele>
        <time>2022-08-24T07:23:40Z</time>
      </trkpt>
      <trkpt lat="43.11841699999977" lon="-1.2427920000000021">
        <ele>581.880</ele>
        <time>2022-08-24T07:23:41Z</time>
      </trkpt>
      <trkpt lat="43.11840899999977" lon="-1.242782000000002">
        <ele>581.886</ele>
        <time>2022-08-24T07:23:42Z</time>
      </trkpt>
      <trkpt lat="43.11839899999977" lon="-1.242771000000002">
        <ele>582.098</ele>
        <time>2022-08-24T07:23:43Z</time>
      </trkpt>
      <trkpt lat="43.11838699999977" lon="-1.242758000000002">
        <ele>582.015</ele>
        <time>2022-08-24T07:23:44Z</time>
      </trkpt>
      <trkpt lat="43.11837499999977" lon="-1.2427460000000021">
        <ele>582.288</ele>
        <time>2022-08-24T07:23:45Z</time>
      </trkpt>
      <trkpt lat="43.11836499999977" lon="-1.242736000000002">
        <ele>582.282</ele>
        <time>2022-08-24T07:23:46Z</time>
      </trkpt>
      <trkpt lat="43.11835399999977" lon="-1.242726000000002">
        <ele>582.491</ele>
        <time>2022-08-24T07:23:47Z</time>
      </trkpt>
      <trkpt lat="43.118343999999766" lon="-1.242714000000002">
        <ele>582.655</ele>
        <time>2022-08-24T07:23:48Z</time>
      </trkpt>
      <trkpt lat="43.11833199999977" lon="-1.2427000000000021">
        <ele>582.607</ele>
        <time>2022-08-24T07:23:49Z</time>
      </trkpt>
      <trkpt lat="43.11831999999977" lon="-1.2426880000000022">
        <ele>582.817</ele>
        <time>2022-08-24T07:23:50Z</time>
      </trkpt>
      <trkpt lat="43.11830899999977" lon="-1.2426780000000022">
        <ele>582.809</ele>
        <time>2022-08-24T07:23:51Z</time>
      </trkpt>
      <trkpt lat="43.11829999999977" lon="-1.242671000000002">
        <ele>582.866</ele>
        <time>2022-08-24T07:23:52Z</time>
      </trkpt>
      <trkpt lat="43.118292999999774" lon="-1.242661000000002">
        <ele>583.236</ele>
        <time>2022-08-24T07:23:53Z</time>
      </trkpt>
      <trkpt lat="43.11828799999977" lon="-1.242647000000002">
        <ele>583.276</ele>
        <time>2022-08-24T07:23:54Z</time>
      </trkpt>
      <trkpt lat="43.11827999999977" lon="-1.242628000000002">
        <ele>583.622</ele>
        <time>2022-08-24T07:23:55Z</time>
      </trkpt>
      <trkpt lat="43.11827499999977" lon="-1.242613000000002">
        <ele>583.844</ele>
        <time>2022-08-24T07:23:56Z</time>
      </trkpt>
      <trkpt lat="43.11826899999977" lon="-1.242599000000002">
        <ele>584.071</ele>
        <time>2022-08-24T07:23:57Z</time>
      </trkpt>
      <trkpt lat="43.11825999999977" lon="-1.242588000000002">
        <ele>584.284</ele>
        <time>2022-08-24T07:23:58Z</time>
      </trkpt>
      <trkpt lat="43.11825199999977" lon="-1.242577000000002">
        <ele>584.298</ele>
        <time>2022-08-24T07:23:59Z</time>
      </trkpt>
      <trkpt lat="43.11824199999977" lon="-1.2425650000000021">
        <ele>584.487</ele>
        <time>2022-08-24T07:24:00Z</time>
      </trkpt>
      <trkpt lat="43.11823299999977" lon="-1.242555000000002">
        <ele>584.494</ele>
        <time>2022-08-24T07:24:01Z</time>
      </trkpt>
      <trkpt lat="43.118222999999766" lon="-1.242545000000002">
        <ele>584.657</ele>
        <time>2022-08-24T07:24:02Z</time>
      </trkpt>
      <trkpt lat="43.11821299999976" lon="-1.242536000000002">
        <ele>585.022</ele>
        <time>2022-08-24T07:24:03Z</time>
      </trkpt>
      <trkpt lat="43.11820499999976" lon="-1.242525000000002">
        <ele>585.009</ele>
        <time>2022-08-24T07:24:04Z</time>
      </trkpt>
      <trkpt lat="43.118197999999765" lon="-1.242512000000002">
        <ele>585.460</ele>
        <time>2022-08-24T07:24:05Z</time>
      </trkpt>
      <trkpt lat="43.118191999999766" lon="-1.242499000000002">
        <ele>585.440</ele>
        <time>2022-08-24T07:24:06Z</time>
      </trkpt>
      <trkpt lat="43.11818499999977" lon="-1.242485000000002">
        <ele>585.690</ele>
        <time>2022-08-24T07:24:07Z</time>
      </trkpt>
      <trkpt lat="43.11817599999977" lon="-1.2424730000000022">
        <ele>585.646</ele>
        <time>2022-08-24T07:24:08Z</time>
      </trkpt>
      <trkpt lat="43.11816799999977" lon="-1.2424620000000022">
        <ele>585.838</ele>
        <time>2022-08-24T07:24:09Z</time>
      </trkpt>
      <trkpt lat="43.11815899999977" lon="-1.2424530000000023">
        <ele>586.065</ele>
        <time>2022-08-24T07:24:10Z</time>
      </trkpt>
      <trkpt lat="43.11814899999977" lon="-1.2424420000000023">
        <ele>586.058</ele>
        <time>2022-08-24T07:24:11Z</time>
      </trkpt>
      <trkpt lat="43.118138999999765" lon="-1.2424300000000024">
        <ele>586.232</ele>
        <time>2022-08-24T07:24:12Z</time>
      </trkpt>
      <trkpt lat="43.11812899999976" lon="-1.2424200000000023">
        <ele>586.281</ele>
        <time>2022-08-24T07:24:13Z</time>
      </trkpt>
      <trkpt lat="43.11811699999976" lon="-1.2424080000000024">
        <ele>586.451</ele>
        <time>2022-08-24T07:24:14Z</time>
      </trkpt>
      <trkpt lat="43.11810699999976" lon="-1.2423950000000024">
        <ele>586.601</ele>
        <time>2022-08-24T07:24:15Z</time>
      </trkpt>
      <trkpt lat="43.118099999999764" lon="-1.2423820000000023">
        <ele>586.811</ele>
        <time>2022-08-24T07:24:16Z</time>
      </trkpt>
      <trkpt lat="43.11809299999977" lon="-1.2423660000000023">
        <ele>587.009</ele>
        <time>2022-08-24T07:24:17Z</time>
      </trkpt>
      <trkpt lat="43.118084999999766" lon="-1.2423500000000023">
        <ele>587.036</ele>
        <time>2022-08-24T07:24:18Z</time>
      </trkpt>
      <trkpt lat="43.11807299999977" lon="-1.2423370000000022">
        <ele>587.276</ele>
        <time>2022-08-24T07:24:19Z</time>
      </trkpt>
      <trkpt lat="43.118059999999765" lon="-1.2423310000000023">
        <ele>587.286</ele>
        <time>2022-08-24T07:24:20Z</time>
      </trkpt>
      <trkpt lat="43.118045999999765" lon="-1.2423250000000023">
        <ele>587.442</ele>
        <time>2022-08-24T07:24:21Z</time>
      </trkpt>
      <trkpt lat="43.11803299999976" lon="-1.2423140000000024">
        <ele>587.484</ele>
        <time>2022-08-24T07:24:22Z</time>
      </trkpt>
      <trkpt lat="43.11802299999976" lon="-1.2423020000000025">
        <ele>587.651</ele>
        <time>2022-08-24T07:24:23Z</time>
      </trkpt>
      <trkpt lat="43.11801399999976" lon="-1.2422880000000025">
        <ele>587.834</ele>
        <time>2022-08-24T07:24:24Z</time>
      </trkpt>
      <trkpt lat="43.11800499999976" lon="-1.2422740000000025">
        <ele>587.888</ele>
        <time>2022-08-24T07:24:25Z</time>
      </trkpt>
      <trkpt lat="43.11799699999976" lon="-1.2422600000000026">
        <ele>588.237</ele>
        <time>2022-08-24T07:24:26Z</time>
      </trkpt>
      <trkpt lat="43.11798799999976" lon="-1.2422440000000026">
        <ele>588.239</ele>
        <time>2022-08-24T07:24:27Z</time>
      </trkpt>
      <trkpt lat="43.11797799999976" lon="-1.2422330000000026">
        <ele>588.401</ele>
        <time>2022-08-24T07:24:28Z</time>
      </trkpt>
      <trkpt lat="43.11796399999976" lon="-1.2422240000000027">
        <ele>588.621</ele>
        <time>2022-08-24T07:24:29Z</time>
      </trkpt>
      <trkpt lat="43.117953999999756" lon="-1.2422130000000027">
        <ele>588.609</ele>
        <time>2022-08-24T07:24:30Z</time>
      </trkpt>
      <trkpt lat="43.11794499999976" lon="-1.2422000000000026">
        <ele>589.034</ele>
        <time>2022-08-24T07:24:31Z</time>
      </trkpt>
      <trkpt lat="43.117934999999754" lon="-1.2421860000000027">
        <ele>589.024</ele>
        <time>2022-08-24T07:24:32Z</time>
      </trkpt>
      <trkpt lat="43.117925999999756" lon="-1.2421730000000026">
        <ele>589.244</ele>
        <time>2022-08-24T07:24:33Z</time>
      </trkpt>
      <trkpt lat="43.117914999999755" lon="-1.2421610000000027">
        <ele>589.420</ele>
        <time>2022-08-24T07:24:34Z</time>
      </trkpt>
      <trkpt lat="43.11790299999976" lon="-1.2421500000000028">
        <ele>589.672</ele>
        <time>2022-08-24T07:24:35Z</time>
      </trkpt>
      <trkpt lat="43.117891999999756" lon="-1.2421380000000029">
        <ele>589.619</ele>
        <time>2022-08-24T07:24:36Z</time>
      </trkpt>
      <trkpt lat="43.117880999999755" lon="-1.2421250000000028">
        <ele>589.882</ele>
        <time>2022-08-24T07:24:37Z</time>
      </trkpt>
      <trkpt lat="43.11787099999975" lon="-1.242113000000003">
        <ele>589.866</ele>
        <time>2022-08-24T07:24:38Z</time>
      </trkpt>
      <trkpt lat="43.11786099999975" lon="-1.2421000000000029">
        <ele>590.015</ele>
        <time>2022-08-24T07:24:39Z</time>
      </trkpt>
      <trkpt lat="43.11784999999975" lon="-1.2420870000000028">
        <ele>590.274</ele>
        <time>2022-08-24T07:24:40Z</time>
      </trkpt>
      <trkpt lat="43.11783799999975" lon="-1.2420740000000028">
        <ele>590.256</ele>
        <time>2022-08-24T07:24:41Z</time>
      </trkpt>
      <trkpt lat="43.11782899999975" lon="-1.2420610000000027">
        <ele>590.421</ele>
        <time>2022-08-24T07:24:42Z</time>
      </trkpt>
      <trkpt lat="43.11781899999975" lon="-1.2420490000000028">
        <ele>590.609</ele>
        <time>2022-08-24T07:24:43Z</time>
      </trkpt>
      <trkpt lat="43.11781099999975" lon="-1.2420340000000027">
        <ele>590.818</ele>
        <time>2022-08-24T07:24:44Z</time>
      </trkpt>
      <trkpt lat="43.117802999999746" lon="-1.2420190000000026">
        <ele>591.048</ele>
        <time>2022-08-24T07:24:45Z</time>
      </trkpt>
      <trkpt lat="43.11779599999975" lon="-1.2420030000000026">
        <ele>591.238</ele>
        <time>2022-08-24T07:24:46Z</time>
      </trkpt>
      <trkpt lat="43.11778799999975" lon="-1.2419870000000026">
        <ele>591.264</ele>
        <time>2022-08-24T07:24:47Z</time>
      </trkpt>
      <trkpt lat="43.11777899999975" lon="-1.2419740000000026">
        <ele>591.476</ele>
        <time>2022-08-24T07:24:48Z</time>
      </trkpt>
      <trkpt lat="43.11776799999975" lon="-1.2419660000000026">
        <ele>591.653</ele>
        <time>2022-08-24T07:24:49Z</time>
      </trkpt>
      <trkpt lat="43.11775699999975" lon="-1.2419620000000027">
        <ele>591.686</ele>
        <time>2022-08-24T07:24:50Z</time>
      </trkpt>
      <trkpt lat="43.11774599999975" lon="-1.2419570000000026">
        <ele>591.840</ele>
        <time>2022-08-24T07:24:51Z</time>
      </trkpt>
      <trkpt lat="43.117735999999745" lon="-1.2419500000000026">
        <ele>592.029</ele>
        <time>2022-08-24T07:24:52Z</time>
      </trkpt>
      <trkpt lat="43.11772599999974" lon="-1.2419400000000025">
        <ele>592.056</ele>
        <time>2022-08-24T07:24:53Z</time>
      </trkpt>
      <trkpt lat="43.11771599999974" lon="-1.2419310000000026">
        <ele>592.259</ele>
        <time>2022-08-24T07:24:54Z</time>
      </trkpt>
      <trkpt lat="43.117705999999735" lon="-1.2419200000000026">
        <ele>592.414</ele>
        <time>2022-08-24T07:24:55Z</time>
      </trkpt>
      <trkpt lat="43.11769599999973" lon="-1.2419090000000026">
        <ele>592.409</ele>
        <time>2022-08-24T07:24:56Z</time>
      </trkpt>
      <trkpt lat="43.117683999999734" lon="-1.2418990000000025">
        <ele>592.676</ele>
        <time>2022-08-24T07:24:57Z</time>
      </trkpt>
      <trkpt lat="43.11766899999974" lon="-1.2418880000000025">
        <ele>592.856</ele>
        <time>2022-08-24T07:24:58Z</time>
      </trkpt>
      <trkpt lat="43.117654999999736" lon="-1.2418790000000026">
        <ele>593.026</ele>
        <time>2022-08-24T07:24:59Z</time>
      </trkpt>
      <trkpt lat="43.117641999999734" lon="-1.2418680000000026">
        <ele>593.092</ele>
        <time>2022-08-24T07:25:00Z</time>
      </trkpt>
      <trkpt lat="43.11763099999973" lon="-1.2418570000000027">
        <ele>593.264</ele>
        <time>2022-08-24T07:25:01Z</time>
      </trkpt>
      <trkpt lat="43.11761699999973" lon="-1.2418480000000027">
        <ele>593.261</ele>
        <time>2022-08-24T07:25:02Z</time>
      </trkpt>
      <trkpt lat="43.117601999999735" lon="-1.2418420000000028">
        <ele>593.234</ele>
        <time>2022-08-24T07:25:03Z</time>
      </trkpt>
      <trkpt lat="43.117590999999734" lon="-1.2418340000000028">
        <ele>593.498</ele>
        <time>2022-08-24T07:25:04Z</time>
      </trkpt>
      <trkpt lat="43.11758099999973" lon="-1.2418260000000028">
        <ele>593.627</ele>
        <time>2022-08-24T07:25:05Z</time>
      </trkpt>
      <trkpt lat="43.11757199999973" lon="-1.2418190000000027">
        <ele>593.642</ele>
        <time>2022-08-24T07:25:06Z</time>
      </trkpt>
      <trkpt lat="43.11756199999973" lon="-1.2418090000000026">
        <ele>593.822</ele>
        <time>2022-08-24T07:25:07Z</time>
      </trkpt>
      <trkpt lat="43.117551999999726" lon="-1.2418010000000026">
        <ele>594.214</ele>
        <time>2022-08-24T07:25:08Z</time>
      </trkpt>
      <trkpt lat="43.11754199999972" lon="-1.2417930000000026">
        <ele>594.209</ele>
        <time>2022-08-24T07:25:09Z</time>
      </trkpt>
      <trkpt lat="43.117532999999725" lon="-1.2417820000000026">
        <ele>594.495</ele>
        <time>2022-08-24T07:25:10Z</time>
      </trkpt>
      <trkpt lat="43.117523999999726" lon="-1.2417720000000025">
        <ele>594.665</ele>
        <time>2022-08-24T07:25:11Z</time>
      </trkpt>
      <trkpt lat="43.117512999999725" lon="-1.2417630000000026">
        <ele>594.865</ele>
        <time>2022-08-24T07:25:12Z</time>
      </trkpt>
      <trkpt lat="43.11750099999973" lon="-1.2417550000000026">
        <ele>594.881</ele>
        <time>2022-08-24T07:25:13Z</time>
      </trkpt>
      <trkpt lat="43.11748899999973" lon="-1.2417470000000026">
        <ele>595.023</ele>
        <time>2022-08-24T07:25:14Z</time>
      </trkpt>
      <trkpt lat="43.11747699999973" lon="-1.2417410000000026">
        <ele>595.260</ele>
        <time>2022-08-24T07:25:15Z</time>
      </trkpt>
      <trkpt lat="43.11746199999973" lon="-1.2417350000000027">
        <ele>595.213</ele>
        <time>2022-08-24T07:25:16Z</time>
      </trkpt>
      <trkpt lat="43.117446999999736" lon="-1.2417280000000026">
        <ele>595.447</ele>
        <time>2022-08-24T07:25:17Z</time>
      </trkpt>
      <trkpt lat="43.11743499999974" lon="-1.2417170000000026">
        <ele>595.626</ele>
        <time>2022-08-24T07:25:18Z</time>
      </trkpt>
      <trkpt lat="43.11742399999974" lon="-1.2417050000000027">
        <ele>595.665</ele>
        <time>2022-08-24T07:25:19Z</time>
      </trkpt>
      <trkpt lat="43.117413999999734" lon="-1.2416920000000027">
        <ele>595.868</ele>
        <time>2022-08-24T07:25:20Z</time>
      </trkpt>
      <trkpt lat="43.117401999999736" lon="-1.2416790000000026">
        <ele>596.014</ele>
        <time>2022-08-24T07:25:21Z</time>
      </trkpt>
      <trkpt lat="43.117387999999735" lon="-1.2416660000000026">
        <ele>596.209</ele>
        <time>2022-08-24T07:25:22Z</time>
      </trkpt>
      <trkpt lat="43.11737599999974" lon="-1.2416570000000027">
        <ele>596.227</ele>
        <time>2022-08-24T07:25:23Z</time>
      </trkpt>
      <trkpt lat="43.11736499999974" lon="-1.2416490000000027">
        <ele>596.697</ele>
        <time>2022-08-24T07:25:24Z</time>
      </trkpt>
      <trkpt lat="43.117353999999736" lon="-1.2416470000000026">
        <ele>596.837</ele>
        <time>2022-08-24T07:25:25Z</time>
      </trkpt>
      <trkpt lat="43.117339999999736" lon="-1.2416500000000026">
        <ele>597.293</ele>
        <time>2022-08-24T07:25:26Z</time>
      </trkpt>
      <trkpt lat="43.11732699999973" lon="-1.2416510000000025">
        <ele>597.425</ele>
        <time>2022-08-24T07:25:27Z</time>
      </trkpt>
      <trkpt lat="43.117314999999735" lon="-1.2416510000000025">
        <ele>597.432</ele>
        <time>2022-08-24T07:25:28Z</time>
      </trkpt>
      <trkpt lat="43.11730299999974" lon="-1.2416450000000026">
        <ele>597.845</ele>
        <time>2022-08-24T07:25:29Z</time>
      </trkpt>
      <trkpt lat="43.117291999999736" lon="-1.2416400000000025">
        <ele>597.879</ele>
        <time>2022-08-24T07:25:30Z</time>
      </trkpt>
      <trkpt lat="43.11727999999974" lon="-1.2416390000000026">
        <ele>598.258</ele>
        <time>2022-08-24T07:25:31Z</time>
      </trkpt>
      <trkpt lat="43.117266999999735" lon="-1.2416410000000027">
        <ele>598.484</ele>
        <time>2022-08-24T07:25:32Z</time>
      </trkpt>
      <trkpt lat="43.117255999999735" lon="-1.2416430000000027">
        <ele>598.607</ele>
        <time>2022-08-24T07:25:33Z</time>
      </trkpt>
      <trkpt lat="43.11724299999973" lon="-1.2416430000000027">
        <ele>598.817</ele>
        <time>2022-08-24T07:25:34Z</time>
      </trkpt>
      <trkpt lat="43.11723299999973" lon="-1.2416420000000028">
        <ele>599.009</ele>
        <time>2022-08-24T07:25:35Z</time>
      </trkpt>
      <trkpt lat="43.11722199999973" lon="-1.241638000000003">
        <ele>599.299</ele>
        <time>2022-08-24T07:25:36Z</time>
      </trkpt>
      <trkpt lat="43.11721299999973" lon="-1.241638000000003">
        <ele>599.249</ele>
        <time>2022-08-24T07:25:37Z</time>
      </trkpt>
      <trkpt lat="43.117202999999726" lon="-1.2416390000000028">
        <ele>599.449</ele>
        <time>2022-08-24T07:25:38Z</time>
      </trkpt>
      <trkpt lat="43.117191999999726" lon="-1.2416400000000027">
        <ele>599.635</ele>
        <time>2022-08-24T07:25:39Z</time>
      </trkpt>
      <trkpt lat="43.11718199999972" lon="-1.2416420000000028">
        <ele>599.827</ele>
        <time>2022-08-24T07:25:40Z</time>
      </trkpt>
      <trkpt lat="43.11717199999972" lon="-1.241649000000003">
        <ele>599.864</ele>
        <time>2022-08-24T07:25:41Z</time>
      </trkpt>
      <trkpt lat="43.117161999999716" lon="-1.241654000000003">
        <ele>600.057</ele>
        <time>2022-08-24T07:25:42Z</time>
      </trkpt>
      <trkpt lat="43.11715199999971" lon="-1.241657000000003">
        <ele>600.241</ele>
        <time>2022-08-24T07:25:43Z</time>
      </trkpt>
      <trkpt lat="43.117139999999715" lon="-1.2416600000000029">
        <ele>600.250</ele>
        <time>2022-08-24T07:25:44Z</time>
      </trkpt>
      <trkpt lat="43.117128999999714" lon="-1.2416640000000028">
        <ele>600.446</ele>
        <time>2022-08-24T07:25:45Z</time>
      </trkpt>
      <trkpt lat="43.117117999999714" lon="-1.2416660000000028">
        <ele>600.688</ele>
        <time>2022-08-24T07:25:46Z</time>
      </trkpt>
      <trkpt lat="43.117105999999715" lon="-1.2416690000000028">
        <ele>600.616</ele>
        <time>2022-08-24T07:25:47Z</time>
      </trkpt>
      <trkpt lat="43.117094999999715" lon="-1.2416730000000027">
        <ele>600.809</ele>
        <time>2022-08-24T07:25:48Z</time>
      </trkpt>
      <trkpt lat="43.11708299999972" lon="-1.2416760000000027">
        <ele>600.845</ele>
        <time>2022-08-24T07:25:49Z</time>
      </trkpt>
      <trkpt lat="43.11707099999972" lon="-1.2416810000000027">
        <ele>601.285</ele>
        <time>2022-08-24T07:25:50Z</time>
      </trkpt>
      <trkpt lat="43.11705899999972" lon="-1.2416830000000028">
        <ele>601.245</ele>
        <time>2022-08-24T07:25:51Z</time>
      </trkpt>
      <trkpt lat="43.11704499999972" lon="-1.2416810000000027">
        <ele>601.641</ele>
        <time>2022-08-24T07:25:52Z</time>
      </trkpt>
      <trkpt lat="43.11703399999972" lon="-1.2416820000000026">
        <ele>601.653</ele>
        <time>2022-08-24T07:25:53Z</time>
      </trkpt>
      <trkpt lat="43.11702199999972" lon="-1.2416840000000027">
        <ele>601.860</ele>
        <time>2022-08-24T07:25:54Z</time>
      </trkpt>
      <trkpt lat="43.11700999999972" lon="-1.2416890000000027">
        <ele>601.833</ele>
        <time>2022-08-24T07:25:55Z</time>
      </trkpt>
      <trkpt lat="43.11699899999972" lon="-1.2416950000000027">
        <ele>602.077</ele>
        <time>2022-08-24T07:25:56Z</time>
      </trkpt>
      <trkpt lat="43.11698799999972" lon="-1.2416990000000026">
        <ele>602.066</ele>
        <time>2022-08-24T07:25:57Z</time>
      </trkpt>
      <trkpt lat="43.11697799999972" lon="-1.2417040000000026">
        <ele>602.231</ele>
        <time>2022-08-24T07:25:58Z</time>
      </trkpt>
      <trkpt lat="43.11696699999972" lon="-1.2417080000000025">
        <ele>602.461</ele>
        <time>2022-08-24T07:25:59Z</time>
      </trkpt>
      <trkpt lat="43.11695299999972" lon="-1.2417090000000024">
        <ele>602.407</ele>
        <time>2022-08-24T07:26:00Z</time>
      </trkpt>
      <trkpt lat="43.116939999999715" lon="-1.2417090000000024">
        <ele>602.609</ele>
        <time>2022-08-24T07:26:01Z</time>
      </trkpt>
      <trkpt lat="43.11692999999971" lon="-1.2417120000000024">
        <ele>602.664</ele>
        <time>2022-08-24T07:26:02Z</time>
      </trkpt>
      <trkpt lat="43.11691999999971" lon="-1.2417140000000024">
        <ele>602.684</ele>
        <time>2022-08-24T07:26:03Z</time>
      </trkpt>
      <trkpt lat="43.11691099999971" lon="-1.2417180000000023">
        <ele>602.844</ele>
        <time>2022-08-24T07:26:04Z</time>
      </trkpt>
      <trkpt lat="43.11690099999971" lon="-1.2417230000000024">
        <ele>602.860</ele>
        <time>2022-08-24T07:26:05Z</time>
      </trkpt>
      <trkpt lat="43.11688899999971" lon="-1.2417310000000024">
        <ele>603.012</ele>
        <time>2022-08-24T07:26:06Z</time>
      </trkpt>
      <trkpt lat="43.11688099999971" lon="-1.2417330000000024">
        <ele>603.269</ele>
        <time>2022-08-24T07:26:07Z</time>
      </trkpt>
      <trkpt lat="43.116867999999705" lon="-1.2417350000000025">
        <ele>603.062</ele>
        <time>2022-08-24T07:26:08Z</time>
      </trkpt>
      <trkpt lat="43.1168579999997" lon="-1.2417380000000025">
        <ele>603.256</ele>
        <time>2022-08-24T07:26:09Z</time>
      </trkpt>
      <trkpt lat="43.1168469999997" lon="-1.2417380000000025">
        <ele>603.285</ele>
        <time>2022-08-24T07:26:10Z</time>
      </trkpt>
      <trkpt lat="43.1168329999997" lon="-1.2417370000000025">
        <ele>603.287</ele>
        <time>2022-08-24T07:26:11Z</time>
      </trkpt>
      <trkpt lat="43.116817999999704" lon="-1.2417400000000025">
        <ele>603.442</ele>
        <time>2022-08-24T07:26:12Z</time>
      </trkpt>
      <trkpt lat="43.1168049999997" lon="-1.2417470000000026">
        <ele>603.426</ele>
        <time>2022-08-24T07:26:13Z</time>
      </trkpt>
      <trkpt lat="43.1167929999997" lon="-1.2417510000000025">
        <ele>603.409</ele>
        <time>2022-08-24T07:26:14Z</time>
      </trkpt>
      <trkpt lat="43.1167819999997" lon="-1.2417560000000025">
        <ele>603.879</ele>
        <time>2022-08-24T07:26:15Z</time>
      </trkpt>
      <trkpt lat="43.116769999999704" lon="-1.2417600000000024">
        <ele>604.089</ele>
        <time>2022-08-24T07:26:16Z</time>
      </trkpt>
      <trkpt lat="43.1167589999997" lon="-1.2417620000000025">
        <ele>604.029</ele>
        <time>2022-08-24T07:26:17Z</time>
      </trkpt>
      <trkpt lat="43.11675199999971" lon="-1.2417570000000024">
        <ele>604.255</ele>
        <time>2022-08-24T07:26:18Z</time>
      </trkpt>
      <trkpt lat="43.11673799999971" lon="-1.2417540000000025">
        <ele>604.257</ele>
        <time>2022-08-24T07:26:19Z</time>
      </trkpt>
      <trkpt lat="43.1167279999997" lon="-1.2417550000000024">
        <ele>604.424</ele>
        <time>2022-08-24T07:26:20Z</time>
      </trkpt>
      <trkpt lat="43.1167199999997" lon="-1.2417600000000024">
        <ele>604.447</ele>
        <time>2022-08-24T07:26:21Z</time>
      </trkpt>
      <trkpt lat="43.116707999999704" lon="-1.2417650000000025">
        <ele>604.481</ele>
        <time>2022-08-24T07:26:22Z</time>
      </trkpt>
      <trkpt lat="43.116695999999706" lon="-1.2417660000000024">
        <ele>604.620</ele>
        <time>2022-08-24T07:26:23Z</time>
      </trkpt>
      <trkpt lat="43.116684999999705" lon="-1.2417640000000023">
        <ele>604.682</ele>
        <time>2022-08-24T07:26:24Z</time>
      </trkpt>
      <trkpt lat="43.1166719999997" lon="-1.2417610000000023">
        <ele>604.843</ele>
        <time>2022-08-24T07:26:25Z</time>
      </trkpt>
      <trkpt lat="43.1166619999997" lon="-1.2417620000000023">
        <ele>604.817</ele>
        <time>2022-08-24T07:26:26Z</time>
      </trkpt>
      <trkpt lat="43.1166529999997" lon="-1.2417650000000022">
        <ele>604.809</ele>
        <time>2022-08-24T07:26:27Z</time>
      </trkpt>
      <trkpt lat="43.1166419999997" lon="-1.2417650000000022">
        <ele>605.079</ele>
        <time>2022-08-24T07:26:28Z</time>
      </trkpt>
      <trkpt lat="43.1166289999997" lon="-1.2417620000000023">
        <ele>605.079</ele>
        <time>2022-08-24T07:26:29Z</time>
      </trkpt>
      <trkpt lat="43.1166199999997" lon="-1.2417630000000022">
        <ele>605.289</ele>
        <time>2022-08-24T07:26:30Z</time>
      </trkpt>
      <trkpt lat="43.1166049999997" lon="-1.2417630000000022">
        <ele>605.485</ele>
        <time>2022-08-24T07:26:31Z</time>
      </trkpt>
      <trkpt lat="43.1165949999997" lon="-1.2417630000000022">
        <ele>605.657</ele>
        <time>2022-08-24T07:26:32Z</time>
      </trkpt>
      <trkpt lat="43.1165839999997" lon="-1.2417580000000021">
        <ele>605.684</ele>
        <time>2022-08-24T07:26:33Z</time>
      </trkpt>
      <trkpt lat="43.1165729999997" lon="-1.2417540000000022">
        <ele>605.867</ele>
        <time>2022-08-24T07:26:34Z</time>
      </trkpt>
      <trkpt lat="43.116562999999694" lon="-1.2417540000000022">
        <ele>606.071</ele>
        <time>2022-08-24T07:26:35Z</time>
      </trkpt>
      <trkpt lat="43.11655299999969" lon="-1.2417550000000022">
        <ele>606.080</ele>
        <time>2022-08-24T07:26:36Z</time>
      </trkpt>
      <trkpt lat="43.11654399999969" lon="-1.241756000000002">
        <ele>606.485</ele>
        <time>2022-08-24T07:26:37Z</time>
      </trkpt>
      <trkpt lat="43.11653499999969" lon="-1.241754000000002">
        <ele>606.489</ele>
        <time>2022-08-24T07:26:38Z</time>
      </trkpt>
      <trkpt lat="43.1165279999997" lon="-1.241757000000002">
        <ele>606.617</ele>
        <time>2022-08-24T07:26:39Z</time>
      </trkpt>
      <trkpt lat="43.116519999999696" lon="-1.241759000000002">
        <ele>606.609</ele>
        <time>2022-08-24T07:26:40Z</time>
      </trkpt>
      <trkpt lat="43.116514999999694" lon="-1.241759000000002">
        <ele>606.879</ele>
        <time>2022-08-24T07:26:41Z</time>
      </trkpt>
      <trkpt lat="43.1165079999997" lon="-1.2417580000000021">
        <ele>606.849</ele>
        <time>2022-08-24T07:26:42Z</time>
      </trkpt>
      <trkpt lat="43.1164989999997" lon="-1.241759000000002">
        <ele>607.049</ele>
        <time>2022-08-24T07:26:43Z</time>
      </trkpt>
      <trkpt lat="43.1164899999997" lon="-1.241762000000002">
        <ele>607.425</ele>
        <time>2022-08-24T07:26:44Z</time>
      </trkpt>
      <trkpt lat="43.1164819999997" lon="-1.2417580000000021">
        <ele>607.497</ele>
        <time>2022-08-24T07:26:45Z</time>
      </trkpt>
      <trkpt lat="43.1164729999997" lon="-1.2417500000000021">
        <ele>607.664</ele>
        <time>2022-08-24T07:26:46Z</time>
      </trkpt>
      <trkpt lat="43.1164649999997" lon="-1.2417460000000022">
        <ele>607.667</ele>
        <time>2022-08-24T07:26:47Z</time>
      </trkpt>
      <trkpt lat="43.1164539999997" lon="-1.2417430000000023">
        <ele>607.811</ele>
        <time>2022-08-24T07:26:48Z</time>
      </trkpt>
      <trkpt lat="43.1164429999997" lon="-1.2417420000000023">
        <ele>607.820</ele>
        <time>2022-08-24T07:26:49Z</time>
      </trkpt>
      <trkpt lat="43.1164339999997" lon="-1.2417450000000023">
        <ele>608.028</ele>
        <time>2022-08-24T07:26:50Z</time>
      </trkpt>
      <trkpt lat="43.1164259999997" lon="-1.2417510000000023">
        <ele>608.089</ele>
        <time>2022-08-24T07:26:51Z</time>
      </trkpt>
      <trkpt lat="43.116415999999695" lon="-1.2417550000000022">
        <ele>608.217</ele>
        <time>2022-08-24T07:26:52Z</time>
      </trkpt>
      <trkpt lat="43.11640599999969" lon="-1.2417550000000022">
        <ele>608.409</ele>
        <time>2022-08-24T07:26:53Z</time>
      </trkpt>
      <trkpt lat="43.11639599999969" lon="-1.2417600000000022">
        <ele>608.633</ele>
        <time>2022-08-24T07:26:54Z</time>
      </trkpt>
      <trkpt lat="43.11638799999969" lon="-1.2417610000000021">
        <ele>608.683</ele>
        <time>2022-08-24T07:26:55Z</time>
      </trkpt>
      <trkpt lat="43.11637899999969" lon="-1.2417600000000022">
        <ele>608.633</ele>
        <time>2022-08-24T07:26:56Z</time>
      </trkpt>
      <trkpt lat="43.11636799999969" lon="-1.2417580000000021">
        <ele>608.889</ele>
        <time>2022-08-24T07:26:57Z</time>
      </trkpt>
      <trkpt lat="43.11635599999969" lon="-1.2417540000000022">
        <ele>608.851</ele>
        <time>2022-08-24T07:26:58Z</time>
      </trkpt>
      <trkpt lat="43.116348999999694" lon="-1.2417530000000023">
        <ele>609.028</ele>
        <time>2022-08-24T07:26:59Z</time>
      </trkpt>
      <trkpt lat="43.11633599999969" lon="-1.2417540000000022">
        <ele>609.441</ele>
        <time>2022-08-24T07:27:00Z</time>
      </trkpt>
      <trkpt lat="43.11632499999969" lon="-1.2417560000000023">
        <ele>609.415</ele>
        <time>2022-08-24T07:27:01Z</time>
      </trkpt>
      <trkpt lat="43.11631399999969" lon="-1.2417590000000023">
        <ele>609.624</ele>
        <time>2022-08-24T07:27:02Z</time>
      </trkpt>
      <trkpt lat="43.11630299999969" lon="-1.2417620000000023">
        <ele>609.872</ele>
        <time>2022-08-24T07:27:03Z</time>
      </trkpt>
      <trkpt lat="43.116292999999686" lon="-1.2417640000000023">
        <ele>610.013</ele>
        <time>2022-08-24T07:27:04Z</time>
      </trkpt>
      <trkpt lat="43.11628099999969" lon="-1.2417650000000022">
        <ele>610.014</ele>
        <time>2022-08-24T07:27:05Z</time>
      </trkpt>
      <trkpt lat="43.116270999999685" lon="-1.2417620000000023">
        <ele>610.209</ele>
        <time>2022-08-24T07:27:06Z</time>
      </trkpt>
      <trkpt lat="43.11626099999968" lon="-1.2417580000000024">
        <ele>610.498</ele>
        <time>2022-08-24T07:27:07Z</time>
      </trkpt>
      <trkpt lat="43.11625199999968" lon="-1.2417570000000024">
        <ele>610.648</ele>
        <time>2022-08-24T07:27:08Z</time>
      </trkpt>
      <trkpt lat="43.11624199999968" lon="-1.2417560000000025">
        <ele>610.868</ele>
        <time>2022-08-24T07:27:09Z</time>
      </trkpt>
      <trkpt lat="43.11623299999968" lon="-1.2417550000000026">
        <ele>610.824</ele>
        <time>2022-08-24T07:27:10Z</time>
      </trkpt>
      <trkpt lat="43.11622299999968" lon="-1.2417550000000026">
        <ele>611.046</ele>
        <time>2022-08-24T07:27:11Z</time>
      </trkpt>
      <trkpt lat="43.11621199999968" lon="-1.2417560000000025">
        <ele>611.073</ele>
        <time>2022-08-24T07:27:12Z</time>
      </trkpt>
      <trkpt lat="43.11620099999968" lon="-1.2417540000000025">
        <ele>611.226</ele>
        <time>2022-08-24T07:27:13Z</time>
      </trkpt>
      <trkpt lat="43.116190999999674" lon="-1.2417520000000024">
        <ele>611.440</ele>
        <time>2022-08-24T07:27:14Z</time>
      </trkpt>
      <trkpt lat="43.11617999999967" lon="-1.2417510000000025">
        <ele>611.449</ele>
        <time>2022-08-24T07:27:15Z</time>
      </trkpt>
      <trkpt lat="43.116167999999675" lon="-1.2417530000000025">
        <ele>611.642</ele>
        <time>2022-08-24T07:27:16Z</time>
      </trkpt>
      <trkpt lat="43.11615599999968" lon="-1.2417560000000025">
        <ele>611.822</ele>
        <time>2022-08-24T07:27:17Z</time>
      </trkpt>
      <trkpt lat="43.116144999999676" lon="-1.2417610000000026">
        <ele>611.814</ele>
        <time>2022-08-24T07:27:18Z</time>
      </trkpt>
      <trkpt lat="43.11613199999967" lon="-1.2417620000000025">
        <ele>612.009</ele>
        <time>2022-08-24T07:27:19Z</time>
      </trkpt>
      <trkpt lat="43.11612099999967" lon="-1.2417560000000025">
        <ele>612.265</ele>
        <time>2022-08-24T07:27:20Z</time>
      </trkpt>
      <trkpt lat="43.11610799999967" lon="-1.2417510000000025">
        <ele>612.455</ele>
        <time>2022-08-24T07:27:21Z</time>
      </trkpt>
      <trkpt lat="43.11609799999967" lon="-1.2417530000000025">
        <ele>612.615</ele>
        <time>2022-08-24T07:27:22Z</time>
      </trkpt>
      <trkpt lat="43.116087999999664" lon="-1.2417550000000026">
        <ele>612.861</ele>
        <time>2022-08-24T07:27:23Z</time>
      </trkpt>
      <trkpt lat="43.11607799999966" lon="-1.2417570000000027">
        <ele>612.823</ele>
        <time>2022-08-24T07:27:24Z</time>
      </trkpt>
      <trkpt lat="43.11606799999966" lon="-1.2417540000000027">
        <ele>613.080</ele>
        <time>2022-08-24T07:27:25Z</time>
      </trkpt>
      <trkpt lat="43.11605899999966" lon="-1.2417490000000027">
        <ele>613.043</ele>
        <time>2022-08-24T07:27:26Z</time>
      </trkpt>
      <trkpt lat="43.11604999999966" lon="-1.2417470000000026">
        <ele>613.247</ele>
        <time>2022-08-24T07:27:27Z</time>
      </trkpt>
      <trkpt lat="43.11604099999966" lon="-1.2417460000000027">
        <ele>613.286</ele>
        <time>2022-08-24T07:27:28Z</time>
      </trkpt>
      <trkpt lat="43.11603199999966" lon="-1.2417440000000026">
        <ele>613.484</ele>
        <time>2022-08-24T07:27:29Z</time>
      </trkpt>
      <trkpt lat="43.116022999999664" lon="-1.2417450000000025">
        <ele>613.607</ele>
        <time>2022-08-24T07:27:30Z</time>
      </trkpt>
      <trkpt lat="43.116013999999666" lon="-1.2417470000000026">
        <ele>613.817</ele>
        <time>2022-08-24T07:27:31Z</time>
      </trkpt>
      <trkpt lat="43.11600399999966" lon="-1.2417490000000027">
        <ele>614.009</ele>
        <time>2022-08-24T07:27:32Z</time>
      </trkpt>
      <trkpt lat="43.11600399999966" lon="-1.2417490000000027">
        <ele>614.029</ele>
        <time>2022-08-24T07:27:33Z</time>
      </trkpt>
      <trkpt lat="43.115985999999666" lon="-1.2417500000000026">
        <ele>614.279</ele>
        <time>2022-08-24T07:27:34Z</time>
      </trkpt>
      <trkpt lat="43.11597299999966" lon="-1.2417520000000026">
        <ele>614.229</ele>
        <time>2022-08-24T07:27:35Z</time>
      </trkpt>
      <trkpt lat="43.115965999999666" lon="-1.2417530000000025">
        <ele>614.435</ele>
        <time>2022-08-24T07:27:36Z</time>
      </trkpt>
      <trkpt lat="43.11595099999967" lon="-1.2417480000000025">
        <ele>614.627</ele>
        <time>2022-08-24T07:27:37Z</time>
      </trkpt>
      <trkpt lat="43.11593999999967" lon="-1.2417420000000026">
        <ele>614.614</ele>
        <time>2022-08-24T07:27:38Z</time>
      </trkpt>
      <trkpt lat="43.11593099999967" lon="-1.2417410000000026">
        <ele>614.827</ele>
        <time>2022-08-24T07:27:39Z</time>
      </trkpt>
      <trkpt lat="43.11591999999967" lon="-1.2417430000000027">
        <ele>614.871</ele>
        <time>2022-08-24T07:27:40Z</time>
      </trkpt>
      <trkpt lat="43.11591199999967" lon="-1.2417430000000027">
        <ele>615.040</ele>
        <time>2022-08-24T07:27:41Z</time>
      </trkpt>
      <trkpt lat="43.115898999999665" lon="-1.2417400000000027">
        <ele>615.226</ele>
        <time>2022-08-24T07:27:42Z</time>
      </trkpt>
      <trkpt lat="43.11588899999966" lon="-1.2417390000000028">
        <ele>615.247</ele>
        <time>2022-08-24T07:27:43Z</time>
      </trkpt>
      <trkpt lat="43.11587799999966" lon="-1.2417400000000027">
        <ele>615.411</ele>
        <time>2022-08-24T07:27:44Z</time>
      </trkpt>
      <trkpt lat="43.11586699999966" lon="-1.2417400000000027">
        <ele>615.409</ele>
        <time>2022-08-24T07:27:45Z</time>
      </trkpt>
      <trkpt lat="43.11585699999966" lon="-1.2417410000000026">
        <ele>615.683</ele>
        <time>2022-08-24T07:27:46Z</time>
      </trkpt>
      <trkpt lat="43.11584599999966" lon="-1.2417430000000027">
        <ele>615.663</ele>
        <time>2022-08-24T07:27:47Z</time>
      </trkpt>
      <trkpt lat="43.11583599999965" lon="-1.2417480000000027">
        <ele>616.063</ele>
        <time>2022-08-24T07:27:48Z</time>
      </trkpt>
      <trkpt lat="43.11582599999965" lon="-1.2417520000000026">
        <ele>616.049</ele>
        <time>2022-08-24T07:27:49Z</time>
      </trkpt>
      <trkpt lat="43.11581599999965" lon="-1.2417540000000027">
        <ele>616.251</ele>
        <time>2022-08-24T07:27:50Z</time>
      </trkpt>
      <trkpt lat="43.115804999999646" lon="-1.2417530000000028">
        <ele>616.428</ele>
        <time>2022-08-24T07:27:51Z</time>
      </trkpt>
      <trkpt lat="43.11579599999965" lon="-1.2417510000000027">
        <ele>616.411</ele>
        <time>2022-08-24T07:27:52Z</time>
      </trkpt>
      <trkpt lat="43.11578699999965" lon="-1.2417470000000028">
        <ele>616.685</ele>
        <time>2022-08-24T07:27:53Z</time>
      </trkpt>
      <trkpt lat="43.11577599999965" lon="-1.2417450000000028">
        <ele>616.894</ele>
        <time>2022-08-24T07:27:54Z</time>
      </trkpt>
      <trkpt lat="43.11576399999965" lon="-1.2417450000000028">
        <ele>616.823</ele>
        <time>2022-08-24T07:27:55Z</time>
      </trkpt>
      <trkpt lat="43.11575299999965" lon="-1.2417460000000027">
        <ele>617.083</ele>
        <time>2022-08-24T07:27:56Z</time>
      </trkpt>
      <trkpt lat="43.11574199999965" lon="-1.2417490000000027">
        <ele>617.211</ele>
        <time>2022-08-24T07:27:57Z</time>
      </trkpt>
      <trkpt lat="43.11572999999965" lon="-1.2417510000000027">
        <ele>617.409</ele>
        <time>2022-08-24T07:27:58Z</time>
      </trkpt>
      <trkpt lat="43.11571999999965" lon="-1.2417500000000028">
        <ele>617.493</ele>
        <time>2022-08-24T07:27:59Z</time>
      </trkpt>
      <trkpt lat="43.115709999999645" lon="-1.2417480000000027">
        <ele>617.633</ele>
        <time>2022-08-24T07:28:00Z</time>
      </trkpt>
      <trkpt lat="43.115700999999646" lon="-1.2417490000000027">
        <ele>617.883</ele>
        <time>2022-08-24T07:28:01Z</time>
      </trkpt>
      <trkpt lat="43.11569399999965" lon="-1.2417500000000026">
        <ele>617.869</ele>
        <time>2022-08-24T07:28:02Z</time>
      </trkpt>
      <trkpt lat="43.11568299999965" lon="-1.2417480000000025">
        <ele>618.091</ele>
        <time>2022-08-24T07:28:03Z</time>
      </trkpt>
      <trkpt lat="43.115672999999646" lon="-1.2417450000000025">
        <ele>618.238</ele>
        <time>2022-08-24T07:28:04Z</time>
      </trkpt>
      <trkpt lat="43.11566299999964" lon="-1.2417450000000025">
        <ele>618.251</ele>
        <time>2022-08-24T07:28:05Z</time>
      </trkpt>
      <trkpt lat="43.115653999999644" lon="-1.2417450000000025">
        <ele>618.475</ele>
        <time>2022-08-24T07:28:06Z</time>
      </trkpt>
      <trkpt lat="43.115644999999645" lon="-1.2417450000000025">
        <ele>618.634</ele>
        <time>2022-08-24T07:28:07Z</time>
      </trkpt>
      <trkpt lat="43.115636999999644" lon="-1.2417500000000026">
        <ele>618.683</ele>
        <time>2022-08-24T07:28:08Z</time>
      </trkpt>
      <trkpt lat="43.115627999999646" lon="-1.2417510000000025">
        <ele>618.825</ele>
        <time>2022-08-24T07:28:09Z</time>
      </trkpt>
      <trkpt lat="43.115613999999646" lon="-1.2417500000000026">
        <ele>618.817</ele>
        <time>2022-08-24T07:28:10Z</time>
      </trkpt>
      <trkpt lat="43.115602999999645" lon="-1.2417490000000027">
        <ele>618.809</ele>
        <time>2022-08-24T07:28:11Z</time>
      </trkpt>
      <trkpt lat="43.115593999999646" lon="-1.2417520000000026">
        <ele>619.079</ele>
        <time>2022-08-24T07:28:12Z</time>
      </trkpt>
      <trkpt lat="43.115579999999646" lon="-1.2417510000000027">
        <ele>619.059</ele>
        <time>2022-08-24T07:28:13Z</time>
      </trkpt>
      <trkpt lat="43.11556999999964" lon="-1.2417490000000027">
        <ele>619.469</ele>
        <time>2022-08-24T07:28:14Z</time>
      </trkpt>
      <trkpt lat="43.115557999999645" lon="-1.2417480000000027">
        <ele>619.415</ele>
        <time>2022-08-24T07:28:15Z</time>
      </trkpt>
      <trkpt lat="43.115546999999644" lon="-1.2417470000000028">
        <ele>619.667</ele>
        <time>2022-08-24T07:28:16Z</time>
      </trkpt>
      <trkpt lat="43.11553599999964" lon="-1.2417470000000028">
        <ele>619.814</ele>
        <time>2022-08-24T07:28:17Z</time>
      </trkpt>
      <trkpt lat="43.115526999999645" lon="-1.2417470000000028">
        <ele>619.877</ele>
        <time>2022-08-24T07:28:18Z</time>
      </trkpt>
      <trkpt lat="43.11551699999964" lon="-1.2417470000000028">
        <ele>620.071</ele>
        <time>2022-08-24T07:28:19Z</time>
      </trkpt>
      <trkpt lat="43.11550699999964" lon="-1.241746000000003">
        <ele>620.260</ele>
        <time>2022-08-24T07:28:20Z</time>
      </trkpt>
      <trkpt lat="43.11549799999964" lon="-1.2417440000000028">
        <ele>620.074</ele>
        <time>2022-08-24T07:28:21Z</time>
      </trkpt>
      <trkpt lat="43.11548899999964" lon="-1.241740000000003">
        <ele>620.056</ele>
        <time>2022-08-24T07:28:22Z</time>
      </trkpt>
      <trkpt lat="43.11547899999964" lon="-1.241738000000003">
        <ele>620.221</ele>
        <time>2022-08-24T07:28:23Z</time>
      </trkpt>
      <trkpt lat="43.11546799999964" lon="-1.2417410000000029">
        <ele>620.209</ele>
        <time>2022-08-24T07:28:24Z</time>
      </trkpt>
      <trkpt lat="43.11545699999964" lon="-1.2417420000000028">
        <ele>620.478</ele>
        <time>2022-08-24T07:28:25Z</time>
      </trkpt>
      <trkpt lat="43.115448999999636" lon="-1.2417430000000027">
        <ele>620.648</ele>
        <time>2022-08-24T07:28:26Z</time>
      </trkpt>
      <trkpt lat="43.11543999999964" lon="-1.2417420000000028">
        <ele>620.638</ele>
        <time>2022-08-24T07:28:27Z</time>
      </trkpt>
      <trkpt lat="43.11543099999964" lon="-1.2417400000000027">
        <ele>620.834</ele>
        <time>2022-08-24T07:28:28Z</time>
      </trkpt>
      <trkpt lat="43.11541999999964" lon="-1.2417370000000028">
        <ele>620.836</ele>
        <time>2022-08-24T07:28:29Z</time>
      </trkpt>
      <trkpt lat="43.11540899999964" lon="-1.2417360000000028">
        <ele>621.043</ele>
        <time>2022-08-24T07:28:30Z</time>
      </trkpt>
      <trkpt lat="43.115398999999634" lon="-1.2417370000000028">
        <ele>621.236</ele>
        <time>2022-08-24T07:28:31Z</time>
      </trkpt>
      <trkpt lat="43.115389999999636" lon="-1.2417380000000027">
        <ele>621.220</ele>
        <time>2022-08-24T07:28:32Z</time>
      </trkpt>
      <trkpt lat="43.11537999999963" lon="-1.2417390000000026">
        <ele>621.439</ele>
        <time>2022-08-24T07:28:33Z</time>
      </trkpt>
      <trkpt lat="43.11536899999963" lon="-1.2417410000000026">
        <ele>621.476</ele>
        <time>2022-08-24T07:28:34Z</time>
      </trkpt>
      <trkpt lat="43.115356999999634" lon="-1.2417420000000026">
        <ele>621.690</ele>
        <time>2022-08-24T07:28:35Z</time>
      </trkpt>
      <trkpt lat="43.11534399999963" lon="-1.2417410000000026">
        <ele>621.819</ele>
        <time>2022-08-24T07:28:36Z</time>
      </trkpt>
      <trkpt lat="43.11533199999963" lon="-1.2417410000000026">
        <ele>622.009</ele>
        <time>2022-08-24T07:28:37Z</time>
      </trkpt>
      <trkpt lat="43.115322999999634" lon="-1.2417440000000026">
        <ele>622.048</ele>
        <time>2022-08-24T07:28:38Z</time>
      </trkpt>
      <trkpt lat="43.11531299999963" lon="-1.2417440000000026">
        <ele>622.238</ele>
        <time>2022-08-24T07:28:39Z</time>
      </trkpt>
      <trkpt lat="43.11530199999963" lon="-1.2417450000000025">
        <ele>622.288</ele>
        <time>2022-08-24T07:28:40Z</time>
      </trkpt>
      <trkpt lat="43.11528899999963" lon="-1.2417470000000026">
        <ele>622.294</ele>
        <time>2022-08-24T07:28:41Z</time>
      </trkpt>
      <trkpt lat="43.115275999999625" lon="-1.2417510000000025">
        <ele>622.446</ele>
        <time>2022-08-24T07:28:42Z</time>
      </trkpt>
      <trkpt lat="43.11526599999962" lon="-1.2417550000000024">
        <ele>622.453</ele>
        <time>2022-08-24T07:28:43Z</time>
      </trkpt>
      <trkpt lat="43.11525599999962" lon="-1.2417560000000023">
        <ele>622.686</ele>
        <time>2022-08-24T07:28:44Z</time>
      </trkpt>
      <trkpt lat="43.11524099999962" lon="-1.2417540000000022">
        <ele>622.840</ele>
        <time>2022-08-24T07:28:45Z</time>
      </trkpt>
      <trkpt lat="43.11522799999962" lon="-1.2417530000000023">
        <ele>623.069</ele>
        <time>2022-08-24T07:28:46Z</time>
      </trkpt>
      <trkpt lat="43.11521599999962" lon="-1.2417520000000024">
        <ele>623.255</ele>
        <time>2022-08-24T07:28:47Z</time>
      </trkpt>
      <trkpt lat="43.11520599999962" lon="-1.2417510000000025">
        <ele>623.207</ele>
        <time>2022-08-24T07:28:48Z</time>
      </trkpt>
      <trkpt lat="43.115192999999614" lon="-1.2417490000000024">
        <ele>623.417</ele>
        <time>2022-08-24T07:28:49Z</time>
      </trkpt>
      <trkpt lat="43.115180999999616" lon="-1.2417440000000024">
        <ele>623.409</ele>
        <time>2022-08-24T07:28:50Z</time>
      </trkpt>
      <trkpt lat="43.115169999999615" lon="-1.2417410000000024">
        <ele>623.696</ele>
        <time>2022-08-24T07:28:51Z</time>
      </trkpt>
      <trkpt lat="43.115158999999615" lon="-1.2417410000000024">
        <ele>623.656</ele>
        <time>2022-08-24T07:28:52Z</time>
      </trkpt>
      <trkpt lat="43.115147999999614" lon="-1.2417420000000023">
        <ele>623.896</ele>
        <time>2022-08-24T07:28:53Z</time>
      </trkpt>
      <trkpt lat="43.11513699999961" lon="-1.2417410000000024">
        <ele>624.082</ele>
        <time>2022-08-24T07:28:54Z</time>
      </trkpt>
      <trkpt lat="43.11512699999961" lon="-1.2417440000000024">
        <ele>624.064</ele>
        <time>2022-08-24T07:28:55Z</time>
      </trkpt>
      <trkpt lat="43.11511599999961" lon="-1.2417490000000024">
        <ele>624.241</ele>
        <time>2022-08-24T07:28:56Z</time>
      </trkpt>
      <trkpt lat="43.11510299999961" lon="-1.2417550000000024">
        <ele>624.264</ele>
        <time>2022-08-24T07:28:57Z</time>
      </trkpt>
      <trkpt lat="43.11509099999961" lon="-1.2417590000000023">
        <ele>624.458</ele>
        <time>2022-08-24T07:28:58Z</time>
      </trkpt>
      <trkpt lat="43.11507699999961" lon="-1.2417630000000022">
        <ele>624.687</ele>
        <time>2022-08-24T07:28:59Z</time>
      </trkpt>
      <trkpt lat="43.11506199999961" lon="-1.241767000000002">
        <ele>624.678</ele>
        <time>2022-08-24T07:29:00Z</time>
      </trkpt>
      <trkpt lat="43.11504899999961" lon="-1.241768000000002">
        <ele>624.833</ele>
        <time>2022-08-24T07:29:01Z</time>
      </trkpt>
      <trkpt lat="43.115035999999606" lon="-1.241768000000002">
        <ele>625.026</ele>
        <time>2022-08-24T07:29:02Z</time>
      </trkpt>
      <trkpt lat="43.11502399999961" lon="-1.241769000000002">
        <ele>625.409</ele>
        <time>2022-08-24T07:29:03Z</time>
      </trkpt>
      <trkpt lat="43.11501199999961" lon="-1.241771000000002">
        <ele>625.238</ele>
        <time>2022-08-24T07:29:04Z</time>
      </trkpt>
      <trkpt lat="43.11499999999961" lon="-1.241774000000002">
        <ele>625.438</ele>
        <time>2022-08-24T07:29:05Z</time>
      </trkpt>
      <trkpt lat="43.11498799999961" lon="-1.241777000000002">
        <ele>625.428</ele>
        <time>2022-08-24T07:29:06Z</time>
      </trkpt>
      <trkpt lat="43.114975999999615" lon="-1.2417810000000018">
        <ele>625.674</ele>
        <time>2022-08-24T07:29:07Z</time>
      </trkpt>
      <trkpt lat="43.114964999999614" lon="-1.2417840000000018">
        <ele>625.846</ele>
        <time>2022-08-24T07:29:08Z</time>
      </trkpt>
      <trkpt lat="43.11495499999961" lon="-1.2417850000000017">
        <ele>626.023</ele>
        <time>2022-08-24T07:29:09Z</time>
      </trkpt>
      <trkpt lat="43.11494599999961" lon="-1.2417820000000017">
        <ele>626.416</ele>
        <time>2022-08-24T07:29:10Z</time>
      </trkpt>
      <trkpt lat="43.11493499999961" lon="-1.2417760000000018">
        <ele>626.460</ele>
        <time>2022-08-24T07:29:11Z</time>
      </trkpt>
      <trkpt lat="43.114919999999614" lon="-1.2417730000000018">
        <ele>626.639</ele>
        <time>2022-08-24T07:29:12Z</time>
      </trkpt>
      <trkpt lat="43.114905999999614" lon="-1.2417740000000017">
        <ele>626.618</ele>
        <time>2022-08-24T07:29:13Z</time>
      </trkpt>
      <trkpt lat="43.114893999999616" lon="-1.2417780000000016">
        <ele>626.898</ele>
        <time>2022-08-24T07:29:14Z</time>
      </trkpt>
      <trkpt lat="43.11488099999961" lon="-1.2417820000000015">
        <ele>627.217</ele>
        <time>2022-08-24T07:29:15Z</time>
      </trkpt>
      <trkpt lat="43.11486999999961" lon="-1.2417830000000014">
        <ele>627.409</ele>
        <time>2022-08-24T07:29:16Z</time>
      </trkpt>
      <trkpt lat="43.11485999999961" lon="-1.2417820000000015">
        <ele>627.672</ele>
        <time>2022-08-24T07:29:17Z</time>
      </trkpt>
      <trkpt lat="43.114849999999606" lon="-1.2417820000000015">
        <ele>627.882</ele>
        <time>2022-08-24T07:29:18Z</time>
      </trkpt>
      <trkpt lat="43.114835999999606" lon="-1.2417800000000014">
        <ele>628.052</ele>
        <time>2022-08-24T07:29:19Z</time>
      </trkpt>
      <trkpt lat="43.114819999999604" lon="-1.2417780000000014">
        <ele>628.098</ele>
        <time>2022-08-24T07:29:20Z</time>
      </trkpt>
      <trkpt lat="43.1148089999996" lon="-1.2417810000000014">
        <ele>628.240</ele>
        <time>2022-08-24T07:29:21Z</time>
      </trkpt>
      <trkpt lat="43.114796999999605" lon="-1.2417850000000012">
        <ele>628.447</ele>
        <time>2022-08-24T07:29:22Z</time>
      </trkpt>
      <trkpt lat="43.1147869999996" lon="-1.2417880000000012">
        <ele>628.660</ele>
        <time>2022-08-24T07:29:23Z</time>
      </trkpt>
      <trkpt lat="43.1147739999996" lon="-1.2417910000000012">
        <ele>628.894</ele>
        <time>2022-08-24T07:29:24Z</time>
      </trkpt>
      <trkpt lat="43.114760999999596" lon="-1.2417910000000012">
        <ele>628.823</ele>
        <time>2022-08-24T07:29:25Z</time>
      </trkpt>
      <trkpt lat="43.114749999999596" lon="-1.2417900000000013">
        <ele>629.082</ele>
        <time>2022-08-24T07:29:26Z</time>
      </trkpt>
      <trkpt lat="43.1147379999996" lon="-1.2417920000000013">
        <ele>629.043</ele>
        <time>2022-08-24T07:29:27Z</time>
      </trkpt>
      <trkpt lat="43.1147269999996" lon="-1.2417950000000013">
        <ele>629.217</ele>
        <time>2022-08-24T07:29:28Z</time>
      </trkpt>
      <trkpt lat="43.114713999999594" lon="-1.2417990000000012">
        <ele>629.409</ele>
        <time>2022-08-24T07:29:29Z</time>
      </trkpt>
      <trkpt lat="43.114702999999594" lon="-1.2418020000000012">
        <ele>629.429</ele>
        <time>2022-08-24T07:29:30Z</time>
      </trkpt>
      <trkpt lat="43.11469199999959" lon="-1.2418020000000012">
        <ele>629.699</ele>
        <time>2022-08-24T07:29:31Z</time>
      </trkpt>
      <trkpt lat="43.11468399999959" lon="-1.2417990000000012">
        <ele>629.819</ele>
        <time>2022-08-24T07:29:32Z</time>
      </trkpt>
      <trkpt lat="43.11467499999959" lon="-1.2417990000000012">
        <ele>630.035</ele>
        <time>2022-08-24T07:29:33Z</time>
      </trkpt>
      <trkpt lat="43.11466199999959" lon="-1.2418040000000012">
        <ele>630.277</ele>
        <time>2022-08-24T07:29:34Z</time>
      </trkpt>
      <trkpt lat="43.11464399999959" lon="-1.2418120000000012">
        <ele>630.424</ele>
        <time>2022-08-24T07:29:35Z</time>
      </trkpt>
      <trkpt lat="43.114628999999596" lon="-1.2418180000000012">
        <ele>630.657</ele>
        <time>2022-08-24T07:29:36Z</time>
      </trkpt>
      <trkpt lat="43.1146139999996" lon="-1.241822000000001">
        <ele>630.631</ele>
        <time>2022-08-24T07:29:37Z</time>
      </trkpt>
      <trkpt lat="43.1145999999996" lon="-1.241830000000001">
        <ele>630.880</ele>
        <time>2022-08-24T07:29:38Z</time>
      </trkpt>
      <trkpt lat="43.114586999999595" lon="-1.241836000000001">
        <ele>631.065</ele>
        <time>2022-08-24T07:29:39Z</time>
      </trkpt>
      <trkpt lat="43.11457699999959" lon="-1.241841000000001">
        <ele>631.468</ele>
        <time>2022-08-24T07:29:40Z</time>
      </trkpt>
      <trkpt lat="43.114561999999594" lon="-1.241841000000001">
        <ele>631.414</ele>
        <time>2022-08-24T07:29:41Z</time>
      </trkpt>
      <trkpt lat="43.114544999999595" lon="-1.2418400000000012">
        <ele>631.809</ele>
        <time>2022-08-24T07:29:42Z</time>
      </trkpt>
      <trkpt lat="43.1145299999996" lon="-1.2418390000000012">
        <ele>632.247</ele>
        <time>2022-08-24T07:29:43Z</time>
      </trkpt>
      <trkpt lat="43.1145149999996" lon="-1.2418390000000012">
        <ele>632.237</ele>
        <time>2022-08-24T07:29:44Z</time>
      </trkpt>
      <trkpt lat="43.1145029999996" lon="-1.2418420000000012">
        <ele>632.427</ele>
        <time>2022-08-24T07:29:45Z</time>
      </trkpt>
      <trkpt lat="43.1144919999996" lon="-1.2418470000000013">
        <ele>632.443</ele>
        <time>2022-08-24T07:29:46Z</time>
      </trkpt>
      <trkpt lat="43.1144789999996" lon="-1.2418520000000013">
        <ele>632.875</ele>
        <time>2022-08-24T07:29:47Z</time>
      </trkpt>
      <trkpt lat="43.114465999999595" lon="-1.2418540000000013">
        <ele>632.832</ele>
        <time>2022-08-24T07:29:48Z</time>
      </trkpt>
      <trkpt lat="43.114457999999594" lon="-1.2418560000000014">
        <ele>633.025</ele>
        <time>2022-08-24T07:29:49Z</time>
      </trkpt>
      <trkpt lat="43.114448999999595" lon="-1.2418570000000013">
        <ele>633.059</ele>
        <time>2022-08-24T07:29:50Z</time>
      </trkpt>
      <trkpt lat="43.1144399999996" lon="-1.2418580000000012">
        <ele>633.678</ele>
        <time>2022-08-24T07:29:51Z</time>
      </trkpt>
      <trkpt lat="43.1144279999996" lon="-1.2418570000000013">
        <ele>633.833</ele>
        <time>2022-08-24T07:29:52Z</time>
      </trkpt>
      <trkpt lat="43.1144159999996" lon="-1.2418540000000013">
        <ele>633.823</ele>
        <time>2022-08-24T07:29:53Z</time>
      </trkpt>
      <trkpt lat="43.1144039999996" lon="-1.2418460000000013">
        <ele>634.015</ele>
        <time>2022-08-24T07:29:54Z</time>
      </trkpt>
      <trkpt lat="43.1143939999996" lon="-1.2418400000000014">
        <ele>634.209</ele>
        <time>2022-08-24T07:29:55Z</time>
      </trkpt>
      <trkpt lat="43.114383999999596" lon="-1.2418360000000015">
        <ele>634.654</ele>
        <time>2022-08-24T07:29:56Z</time>
      </trkpt>
      <trkpt lat="43.11437399999959" lon="-1.2418320000000016">
        <ele>634.844</ele>
        <time>2022-08-24T07:29:57Z</time>
      </trkpt>
      <trkpt lat="43.11436599999959" lon="-1.2418330000000015">
        <ele>634.884</ele>
        <time>2022-08-24T07:29:58Z</time>
      </trkpt>
      <trkpt lat="43.114353999999594" lon="-1.2418310000000015">
        <ele>635.030</ele>
        <time>2022-08-24T07:29:59Z</time>
      </trkpt>
      <trkpt lat="43.1143469999996" lon="-1.2418280000000015">
        <ele>635.262</ele>
        <time>2022-08-24T07:30:00Z</time>
      </trkpt>
      <trkpt lat="43.114338999999596" lon="-1.2418210000000014">
        <ele>635.449</ele>
        <time>2022-08-24T07:30:01Z</time>
      </trkpt>
      <trkpt lat="43.1143299999996" lon="-1.2418170000000015">
        <ele>635.462</ele>
        <time>2022-08-24T07:30:02Z</time>
      </trkpt>
      <trkpt lat="43.1143209999996" lon="-1.2418170000000015">
        <ele>635.666</ele>
        <time>2022-08-24T07:30:03Z</time>
      </trkpt>
      <trkpt lat="43.1143149999996" lon="-1.2418110000000016">
        <ele>635.655</ele>
        <time>2022-08-24T07:30:04Z</time>
      </trkpt>
      <trkpt lat="43.1143049999996" lon="-1.2418090000000015">
        <ele>635.856</ele>
        <time>2022-08-24T07:30:05Z</time>
      </trkpt>
      <trkpt lat="43.114293999999596" lon="-1.2418070000000014">
        <ele>635.859</ele>
        <time>2022-08-24T07:30:06Z</time>
      </trkpt>
      <trkpt lat="43.1142849999996" lon="-1.2418070000000014">
        <ele>635.814</ele>
        <time>2022-08-24T07:30:07Z</time>
      </trkpt>
      <trkpt lat="43.1142739999996" lon="-1.2418120000000015">
        <ele>636.009</ele>
        <time>2022-08-24T07:30:08Z</time>
      </trkpt>
      <trkpt lat="43.114263999999594" lon="-1.2418170000000015">
        <ele>636.086</ele>
        <time>2022-08-24T07:30:09Z</time>
      </trkpt>
      <trkpt lat="43.11425899999959" lon="-1.2418190000000016">
        <ele>636.036</ele>
        <time>2022-08-24T07:30:10Z</time>
      </trkpt>
      <trkpt lat="43.11425299999959" lon="-1.2418160000000016">
        <ele>636.836</ele>
        <time>2022-08-24T07:31:22Z</time>
      </trkpt>
      <trkpt lat="43.11425299999959" lon="-1.2418160000000016">
        <ele>636.862</ele>
        <time>2022-08-24T07:31:26Z</time>
      </trkpt>
      <trkpt lat="43.114254999999595" lon="-1.2418130000000016">
        <ele>636.824</ele>
        <time>2022-08-24T07:31:27Z</time>
      </trkpt>
      <trkpt lat="43.11428699999959" lon="-1.2417760000000015">
        <ele>636.611</ele>
        <time>2022-08-24T07:31:45Z</time>
      </trkpt>
      <trkpt lat="43.11432099999959" lon="-1.2417490000000015">
        <ele>636.684</ele>
        <time>2022-08-24T07:31:47Z</time>
      </trkpt>
      <trkpt lat="43.114412999999594" lon="-1.2416810000000016">
        <ele>636.678</ele>
        <time>2022-08-24T07:31:53Z</time>
      </trkpt>
      <trkpt lat="43.11442799999959" lon="-1.2416680000000015">
        <ele>636.817</ele>
        <time>2022-08-24T07:31:54Z</time>
      </trkpt>
      <trkpt lat="43.11446199999959" lon="-1.2416600000000015">
        <ele>636.875</ele>
        <time>2022-08-24T07:31:56Z</time>
      </trkpt>
      <trkpt lat="43.11452199999959" lon="-1.2416340000000015">
        <ele>637.628</ele>
        <time>2022-08-24T07:32:00Z</time>
      </trkpt>
      <trkpt lat="43.11453599999959" lon="-1.2416300000000016">
        <ele>637.820</ele>
        <time>2022-08-24T07:32:01Z</time>
      </trkpt>
      <trkpt lat="43.11454999999959" lon="-1.2416270000000016">
        <ele>638.009</ele>
        <time>2022-08-24T07:32:02Z</time>
      </trkpt>
      <trkpt lat="43.11459299999959" lon="-1.2416060000000015">
        <ele>638.628</ele>
        <time>2022-08-24T07:32:05Z</time>
      </trkpt>
      <trkpt lat="43.11460599999959" lon="-1.2415970000000016">
        <ele>639.058</ele>
        <time>2022-08-24T07:32:06Z</time>
      </trkpt>
      <trkpt lat="43.11461999999959" lon="-1.2415900000000015">
        <ele>639.278</ele>
        <time>2022-08-24T07:32:07Z</time>
      </trkpt>
      <trkpt lat="43.11463499999959" lon="-1.2415830000000014">
        <ele>639.274</ele>
        <time>2022-08-24T07:32:08Z</time>
      </trkpt>
      <trkpt lat="43.11470399999959" lon="-1.2415590000000014">
        <ele>639.896</ele>
        <time>2022-08-24T07:32:12Z</time>
      </trkpt>
      <trkpt lat="43.11472199999959" lon="-1.2415500000000015">
        <ele>640.233</ele>
        <time>2022-08-24T07:32:13Z</time>
      </trkpt>
      <trkpt lat="43.11473799999959" lon="-1.2415360000000015">
        <ele>640.466</ele>
        <time>2022-08-24T07:32:14Z</time>
      </trkpt>
      <trkpt lat="43.11475399999959" lon="-1.2415220000000016">
        <ele>640.680</ele>
        <time>2022-08-24T07:32:15Z</time>
      </trkpt>
      <trkpt lat="43.11477199999959" lon="-1.2415120000000015">
        <ele>640.649</ele>
        <time>2022-08-24T07:32:16Z</time>
      </trkpt>
      <trkpt lat="43.11478999999959" lon="-1.2414990000000015">
        <ele>640.823</ele>
        <time>2022-08-24T07:32:17Z</time>
      </trkpt>
      <trkpt lat="43.114807999999584" lon="-1.2414870000000016">
        <ele>641.283</ele>
        <time>2022-08-24T07:32:18Z</time>
      </trkpt>
      <trkpt lat="43.11482599999958" lon="-1.2414780000000016">
        <ele>641.211</ele>
        <time>2022-08-24T07:32:19Z</time>
      </trkpt>
      <trkpt lat="43.11484699999958" lon="-1.2414700000000016">
        <ele>641.409</ele>
        <time>2022-08-24T07:32:20Z</time>
      </trkpt>
      <trkpt lat="43.11486699999958" lon="-1.2414610000000017">
        <ele>641.413</ele>
        <time>2022-08-24T07:32:21Z</time>
      </trkpt>
      <trkpt lat="43.11488699999958" lon="-1.2414520000000018">
        <ele>642.063</ele>
        <time>2022-08-24T07:32:22Z</time>
      </trkpt>
      <trkpt lat="43.11490599999958" lon="-1.2414420000000017">
        <ele>642.493</ele>
        <time>2022-08-24T07:32:23Z</time>
      </trkpt>
      <trkpt lat="43.114920999999576" lon="-1.2414280000000018">
        <ele>642.469</ele>
        <time>2022-08-24T07:32:24Z</time>
      </trkpt>
      <trkpt lat="43.114932999999574" lon="-1.2414210000000017">
        <ele>642.621</ele>
        <time>2022-08-24T07:32:25Z</time>
      </trkpt>
      <trkpt lat="43.114954999999576" lon="-1.2414130000000017">
        <ele>642.848</ele>
        <time>2022-08-24T07:32:26Z</time>
      </trkpt>
      <trkpt lat="43.114979999999576" lon="-1.2413950000000016">
        <ele>643.261</ele>
        <time>2022-08-24T07:32:27Z</time>
      </trkpt>
      <trkpt lat="43.11499899999958" lon="-1.2413790000000016">
        <ele>643.295</ele>
        <time>2022-08-24T07:32:28Z</time>
      </trkpt>
      <trkpt lat="43.115016999999575" lon="-1.2413650000000016">
        <ele>643.664</ele>
        <time>2022-08-24T07:32:29Z</time>
      </trkpt>
      <trkpt lat="43.115039999999574" lon="-1.2413500000000015">
        <ele>644.244</ele>
        <time>2022-08-24T07:32:30Z</time>
      </trkpt>
      <trkpt lat="43.115058999999576" lon="-1.2413380000000016">
        <ele>644.205</ele>
        <time>2022-08-24T07:32:31Z</time>
      </trkpt>
      <trkpt lat="43.11507699999957" lon="-1.2413290000000017">
        <ele>644.615</ele>
        <time>2022-08-24T07:32:32Z</time>
      </trkpt>
      <trkpt lat="43.115092999999575" lon="-1.2413220000000016">
        <ele>644.809</ele>
        <time>2022-08-24T07:32:33Z</time>
      </trkpt>
      <trkpt lat="43.115109999999575" lon="-1.2413170000000016">
        <ele>645.065</ele>
        <time>2022-08-24T07:32:34Z</time>
      </trkpt>
      <trkpt lat="43.115126999999575" lon="-1.2413100000000015">
        <ele>645.295</ele>
        <time>2022-08-24T07:32:35Z</time>
      </trkpt>
      <trkpt lat="43.115146999999574" lon="-1.2412980000000016">
        <ele>645.435</ele>
        <time>2022-08-24T07:32:36Z</time>
      </trkpt>
      <trkpt lat="43.115162999999576" lon="-1.2412930000000015">
        <ele>645.841</ele>
        <time>2022-08-24T07:32:37Z</time>
      </trkpt>
      <trkpt lat="43.115177999999574" lon="-1.2412860000000014">
        <ele>646.023</ele>
        <time>2022-08-24T07:32:38Z</time>
      </trkpt>
      <trkpt lat="43.115193999999576" lon="-1.2412780000000014">
        <ele>646.030</ele>
        <time>2022-08-24T07:32:39Z</time>
      </trkpt>
      <trkpt lat="43.115205999999574" lon="-1.2412730000000014">
        <ele>646.233</ele>
        <time>2022-08-24T07:32:40Z</time>
      </trkpt>
      <trkpt lat="43.115219999999574" lon="-1.2412650000000014">
        <ele>646.617</ele>
        <time>2022-08-24T07:32:41Z</time>
      </trkpt>
      <trkpt lat="43.11523499999957" lon="-1.2412550000000013">
        <ele>646.646</ele>
        <time>2022-08-24T07:32:42Z</time>
      </trkpt>
      <trkpt lat="43.115253999999574" lon="-1.2412480000000012">
        <ele>647.064</ele>
        <time>2022-08-24T07:32:43Z</time>
      </trkpt>
      <trkpt lat="43.115270999999574" lon="-1.2412440000000013">
        <ele>647.006</ele>
        <time>2022-08-24T07:32:44Z</time>
      </trkpt>
      <trkpt lat="43.11528899999957" lon="-1.2412430000000014">
        <ele>647.416</ele>
        <time>2022-08-24T07:32:45Z</time>
      </trkpt>
      <trkpt lat="43.11530599999957" lon="-1.2412420000000015">
        <ele>647.609</ele>
        <time>2022-08-24T07:32:46Z</time>
      </trkpt>
      <trkpt lat="43.11532099999957" lon="-1.2412390000000015">
        <ele>647.897</ele>
        <time>2022-08-24T07:32:47Z</time>
      </trkpt>
      <trkpt lat="43.11533399999957" lon="-1.2412320000000014">
        <ele>648.097</ele>
        <time>2022-08-24T07:32:48Z</time>
      </trkpt>
      <trkpt lat="43.11534799999957" lon="-1.2412280000000016">
        <ele>648.057</ele>
        <time>2022-08-24T07:32:49Z</time>
      </trkpt>
      <trkpt lat="43.11535999999957" lon="-1.2412230000000015">
        <ele>648.253</ele>
        <time>2022-08-24T07:32:50Z</time>
      </trkpt>
      <trkpt lat="43.11537199999957" lon="-1.2412190000000016">
        <ele>648.455</ele>
        <time>2022-08-24T07:32:51Z</time>
      </trkpt>
      <trkpt lat="43.11538599999957" lon="-1.2412150000000017">
        <ele>648.632</ele>
        <time>2022-08-24T07:32:52Z</time>
      </trkpt>
      <trkpt lat="43.115397999999566" lon="-1.2412130000000017">
        <ele>648.835</ele>
        <time>2022-08-24T07:32:53Z</time>
      </trkpt>
      <trkpt lat="43.115408999999566" lon="-1.2412060000000016">
        <ele>649.089</ele>
        <time>2022-08-24T07:32:54Z</time>
      </trkpt>
      <trkpt lat="43.115420999999564" lon="-1.2412000000000016">
        <ele>649.468</ele>
        <time>2022-08-24T07:32:55Z</time>
      </trkpt>
      <trkpt lat="43.11543399999957" lon="-1.2411980000000016">
        <ele>649.431</ele>
        <time>2022-08-24T07:32:56Z</time>
      </trkpt>
      <trkpt lat="43.11544699999957" lon="-1.2411960000000015">
        <ele>649.661</ele>
        <time>2022-08-24T07:32:57Z</time>
      </trkpt>
      <trkpt lat="43.11546099999957" lon="-1.2411870000000016">
        <ele>649.807</ele>
        <time>2022-08-24T07:32:58Z</time>
      </trkpt>
      <trkpt lat="43.11547399999957" lon="-1.2411750000000017">
        <ele>650.009</ele>
        <time>2022-08-24T07:32:59Z</time>
      </trkpt>
      <trkpt lat="43.115486999999575" lon="-1.2411670000000017">
        <ele>650.294</ele>
        <time>2022-08-24T07:33:00Z</time>
      </trkpt>
      <trkpt lat="43.115500999999576" lon="-1.2411620000000017">
        <ele>650.424</ele>
        <time>2022-08-24T07:33:01Z</time>
      </trkpt>
      <trkpt lat="43.11551399999958" lon="-1.2411590000000017">
        <ele>650.684</ele>
        <time>2022-08-24T07:33:02Z</time>
      </trkpt>
      <trkpt lat="43.115525999999576" lon="-1.2411530000000017">
        <ele>650.690</ele>
        <time>2022-08-24T07:33:03Z</time>
      </trkpt>
      <trkpt lat="43.115540999999574" lon="-1.2411480000000017">
        <ele>651.032</ele>
        <time>2022-08-24T07:33:04Z</time>
      </trkpt>
      <trkpt lat="43.11555299999957" lon="-1.2411430000000017">
        <ele>651.049</ele>
        <time>2022-08-24T07:33:05Z</time>
      </trkpt>
      <trkpt lat="43.11556399999957" lon="-1.2411390000000018">
        <ele>651.432</ele>
        <time>2022-08-24T07:33:06Z</time>
      </trkpt>
      <trkpt lat="43.11557499999957" lon="-1.2411330000000018">
        <ele>651.676</ele>
        <time>2022-08-24T07:33:07Z</time>
      </trkpt>
      <trkpt lat="43.115585999999574" lon="-1.2411250000000018">
        <ele>651.865</ele>
        <time>2022-08-24T07:33:08Z</time>
      </trkpt>
      <trkpt lat="43.115596999999575" lon="-1.2411190000000019">
        <ele>652.045</ele>
        <time>2022-08-24T07:33:09Z</time>
      </trkpt>
      <trkpt lat="43.11560699999958" lon="-1.2411120000000018">
        <ele>652.047</ele>
        <time>2022-08-24T07:33:10Z</time>
      </trkpt>
      <trkpt lat="43.11561999999958" lon="-1.2411010000000018">
        <ele>652.211</ele>
        <time>2022-08-24T07:33:11Z</time>
      </trkpt>
      <trkpt lat="43.11563499999958" lon="-1.2410900000000018">
        <ele>652.409</ele>
        <time>2022-08-24T07:33:12Z</time>
      </trkpt>
      <trkpt lat="43.11565099999958" lon="-1.2410820000000018">
        <ele>652.455</ele>
        <time>2022-08-24T07:33:13Z</time>
      </trkpt>
      <trkpt lat="43.11566499999958" lon="-1.2410790000000018">
        <ele>652.655</ele>
        <time>2022-08-24T07:33:14Z</time>
      </trkpt>
      <trkpt lat="43.11567799999958" lon="-1.2410770000000018">
        <ele>652.845</ele>
        <time>2022-08-24T07:33:15Z</time>
      </trkpt>
      <trkpt lat="43.115688999999584" lon="-1.2410740000000018">
        <ele>653.041</ele>
        <time>2022-08-24T07:33:16Z</time>
      </trkpt>
      <trkpt lat="43.115699999999585" lon="-1.2410750000000017">
        <ele>653.283</ele>
        <time>2022-08-24T07:33:17Z</time>
      </trkpt>
      <trkpt lat="43.11570899999958" lon="-1.2410750000000017">
        <ele>653.410</ele>
        <time>2022-08-24T07:33:18Z</time>
      </trkpt>
      <trkpt lat="43.115719999999584" lon="-1.2410700000000017">
        <ele>653.663</ele>
        <time>2022-08-24T07:33:19Z</time>
      </trkpt>
      <trkpt lat="43.115730999999585" lon="-1.2410630000000016">
        <ele>653.837</ele>
        <time>2022-08-24T07:33:20Z</time>
      </trkpt>
      <trkpt lat="43.11574299999958" lon="-1.2410570000000016">
        <ele>654.036</ele>
        <time>2022-08-24T07:33:21Z</time>
      </trkpt>
      <trkpt lat="43.115755999999585" lon="-1.2410530000000017">
        <ele>654.299</ele>
        <time>2022-08-24T07:33:22Z</time>
      </trkpt>
      <trkpt lat="43.115766999999586" lon="-1.2410490000000018">
        <ele>654.207</ele>
        <time>2022-08-24T07:33:23Z</time>
      </trkpt>
      <trkpt lat="43.11577699999959" lon="-1.241043000000002">
        <ele>654.427</ele>
        <time>2022-08-24T07:33:24Z</time>
      </trkpt>
      <trkpt lat="43.11578699999959" lon="-1.241037000000002">
        <ele>654.609</ele>
        <time>2022-08-24T07:33:25Z</time>
      </trkpt>
      <trkpt lat="43.11579799999959" lon="-1.241032000000002">
        <ele>654.640</ele>
        <time>2022-08-24T07:33:26Z</time>
      </trkpt>
      <trkpt lat="43.11581299999959" lon="-1.241029000000002">
        <ele>654.840</ele>
        <time>2022-08-24T07:33:27Z</time>
      </trkpt>
      <trkpt lat="43.11582399999959" lon="-1.241021000000002">
        <ele>655.050</ele>
        <time>2022-08-24T07:33:28Z</time>
      </trkpt>
      <trkpt lat="43.11583499999959" lon="-1.241016000000002">
        <ele>655.246</ele>
        <time>2022-08-24T07:33:29Z</time>
      </trkpt>
      <trkpt lat="43.11584699999959" lon="-1.241010000000002">
        <ele>655.428</ele>
        <time>2022-08-24T07:33:30Z</time>
      </trkpt>
      <trkpt lat="43.11585799999959" lon="-1.241005000000002">
        <ele>655.475</ele>
        <time>2022-08-24T07:33:31Z</time>
      </trkpt>
      <trkpt lat="43.115867999999594" lon="-1.241001000000002">
        <ele>655.828</ele>
        <time>2022-08-24T07:33:32Z</time>
      </trkpt>
      <trkpt lat="43.11587999999959" lon="-1.240996000000002">
        <ele>656.082</ele>
        <time>2022-08-24T07:33:33Z</time>
      </trkpt>
      <trkpt lat="43.11589399999959" lon="-1.240991000000002">
        <ele>656.231</ele>
        <time>2022-08-24T07:33:34Z</time>
      </trkpt>
      <trkpt lat="43.11590899999959" lon="-1.240987000000002">
        <ele>656.499</ele>
        <time>2022-08-24T07:33:35Z</time>
      </trkpt>
      <trkpt lat="43.11592099999959" lon="-1.240982000000002">
        <ele>656.607</ele>
        <time>2022-08-24T07:33:36Z</time>
      </trkpt>
      <trkpt lat="43.11593199999959" lon="-1.240975000000002">
        <ele>656.827</ele>
        <time>2022-08-24T07:33:37Z</time>
      </trkpt>
      <trkpt lat="43.11594499999959" lon="-1.240970000000002">
        <ele>657.009</ele>
        <time>2022-08-24T07:33:38Z</time>
      </trkpt>
      <trkpt lat="43.11595699999959" lon="-1.240964000000002">
        <ele>657.230</ele>
        <time>2022-08-24T07:33:39Z</time>
      </trkpt>
      <trkpt lat="43.11596899999959" lon="-1.240956000000002">
        <ele>657.290</ele>
        <time>2022-08-24T07:33:40Z</time>
      </trkpt>
      <trkpt lat="43.115983999999585" lon="-1.240947000000002">
        <ele>657.640</ele>
        <time>2022-08-24T07:33:41Z</time>
      </trkpt>
      <trkpt lat="43.11599999999959" lon="-1.240942000000002">
        <ele>657.676</ele>
        <time>2022-08-24T07:33:42Z</time>
      </trkpt>
      <trkpt lat="43.116011999999586" lon="-1.240934000000002">
        <ele>657.848</ele>
        <time>2022-08-24T07:33:43Z</time>
      </trkpt>
      <trkpt lat="43.11602699999958" lon="-1.240926000000002">
        <ele>658.055</ele>
        <time>2022-08-24T07:33:44Z</time>
      </trkpt>
      <trkpt lat="43.11604399999958" lon="-1.240918000000002">
        <ele>658.098</ele>
        <time>2022-08-24T07:33:45Z</time>
      </trkpt>
      <trkpt lat="43.116062999999585" lon="-1.240908000000002">
        <ele>658.432</ele>
        <time>2022-08-24T07:33:46Z</time>
      </trkpt>
      <trkpt lat="43.11608199999959" lon="-1.240899000000002">
        <ele>658.421</ele>
        <time>2022-08-24T07:33:47Z</time>
      </trkpt>
      <trkpt lat="43.11610099999959" lon="-1.240889000000002">
        <ele>658.678</ele>
        <time>2022-08-24T07:33:48Z</time>
      </trkpt>
      <trkpt lat="43.11611699999959" lon="-1.2408790000000018">
        <ele>658.633</ele>
        <time>2022-08-24T07:33:49Z</time>
      </trkpt>
      <trkpt lat="43.11613599999959" lon="-1.240867000000002">
        <ele>658.826</ele>
        <time>2022-08-24T07:33:50Z</time>
      </trkpt>
      <trkpt lat="43.116151999999595" lon="-1.240855000000002">
        <ele>659.209</ele>
        <time>2022-08-24T07:33:51Z</time>
      </trkpt>
      <trkpt lat="43.1161679999996" lon="-1.2408430000000021">
        <ele>659.278</ele>
        <time>2022-08-24T07:33:52Z</time>
      </trkpt>
      <trkpt lat="43.116182999999594" lon="-1.2408310000000022">
        <ele>659.638</ele>
        <time>2022-08-24T07:33:53Z</time>
      </trkpt>
      <trkpt lat="43.1161959999996" lon="-1.2408220000000023">
        <ele>659.638</ele>
        <time>2022-08-24T07:33:54Z</time>
      </trkpt>
      <trkpt lat="43.1162089999996" lon="-1.2408140000000023">
        <ele>660.084</ele>
        <time>2022-08-24T07:33:55Z</time>
      </trkpt>
      <trkpt lat="43.1162249999996" lon="-1.2408060000000023">
        <ele>660.286</ele>
        <time>2022-08-24T07:33:56Z</time>
      </trkpt>
      <trkpt lat="43.116237999999605" lon="-1.2408030000000023">
        <ele>660.683</ele>
        <time>2022-08-24T07:33:57Z</time>
      </trkpt>
      <trkpt lat="43.116248999999605" lon="-1.2408000000000023">
        <ele>660.876</ele>
        <time>2022-08-24T07:33:58Z</time>
      </trkpt>
      <trkpt lat="43.11625899999961" lon="-1.2407950000000023">
        <ele>661.280</ele>
        <time>2022-08-24T07:33:59Z</time>
      </trkpt>
      <trkpt lat="43.11627199999961" lon="-1.2407880000000022">
        <ele>661.439</ele>
        <time>2022-08-24T07:34:00Z</time>
      </trkpt>
      <trkpt lat="43.11628299999961" lon="-1.2407830000000022">
        <ele>661.429</ele>
        <time>2022-08-24T07:34:01Z</time>
      </trkpt>
      <trkpt lat="43.116295999999615" lon="-1.2407780000000022">
        <ele>661.600</ele>
        <time>2022-08-24T07:34:02Z</time>
      </trkpt>
      <trkpt lat="43.116309999999615" lon="-1.2407740000000023">
        <ele>661.820</ele>
        <time>2022-08-24T07:34:03Z</time>
      </trkpt>
      <trkpt lat="43.116323999999615" lon="-1.2407690000000022">
        <ele>662.009</ele>
        <time>2022-08-24T07:34:04Z</time>
      </trkpt>
      <trkpt lat="43.116334999999616" lon="-1.2407590000000022">
        <ele>662.063</ele>
        <time>2022-08-24T07:34:05Z</time>
      </trkpt>
      <trkpt lat="43.11634499999962" lon="-1.2407480000000022">
        <ele>662.223</ele>
        <time>2022-08-24T07:34:06Z</time>
      </trkpt>
      <trkpt lat="43.11635899999962" lon="-1.240741000000002">
        <ele>662.673</ele>
        <time>2022-08-24T07:34:07Z</time>
      </trkpt>
      <trkpt lat="43.11637499999962" lon="-1.240731000000002">
        <ele>662.689</ele>
        <time>2022-08-24T07:34:08Z</time>
      </trkpt>
      <trkpt lat="43.11638999999962" lon="-1.240722000000002">
        <ele>662.841</ele>
        <time>2022-08-24T07:34:09Z</time>
      </trkpt>
      <trkpt lat="43.11640499999962" lon="-1.2407130000000022">
        <ele>663.068</ele>
        <time>2022-08-24T07:34:10Z</time>
      </trkpt>
      <trkpt lat="43.116416999999615" lon="-1.2407010000000023">
        <ele>663.051</ele>
        <time>2022-08-24T07:34:11Z</time>
      </trkpt>
      <trkpt lat="43.11642899999961" lon="-1.2406940000000022">
        <ele>663.255</ele>
        <time>2022-08-24T07:34:12Z</time>
      </trkpt>
      <trkpt lat="43.11644099999961" lon="-1.2406860000000022">
        <ele>663.244</ele>
        <time>2022-08-24T07:34:13Z</time>
      </trkpt>
      <trkpt lat="43.116453999999614" lon="-1.2406800000000022">
        <ele>663.233</ele>
        <time>2022-08-24T07:34:14Z</time>
      </trkpt>
      <trkpt lat="43.116466999999616" lon="-1.2406720000000022">
        <ele>663.423</ele>
        <time>2022-08-24T07:34:15Z</time>
      </trkpt>
      <trkpt lat="43.11648099999962" lon="-1.2406630000000023">
        <ele>663.415</ele>
        <time>2022-08-24T07:34:16Z</time>
      </trkpt>
      <trkpt lat="43.11649499999962" lon="-1.2406560000000022">
        <ele>663.609</ele>
        <time>2022-08-24T07:34:17Z</time>
      </trkpt>
      <trkpt lat="43.11650799999962" lon="-1.2406460000000021">
        <ele>663.864</ele>
        <time>2022-08-24T07:34:18Z</time>
      </trkpt>
      <trkpt lat="43.11651999999962" lon="-1.2406350000000022">
        <ele>663.874</ele>
        <time>2022-08-24T07:34:19Z</time>
      </trkpt>
      <trkpt lat="43.11653099999962" lon="-1.2406300000000021">
        <ele>664.214</ele>
        <time>2022-08-24T07:34:20Z</time>
      </trkpt>
      <trkpt lat="43.11653999999962" lon="-1.240620000000002">
        <ele>664.460</ele>
        <time>2022-08-24T07:34:21Z</time>
      </trkpt>
      <trkpt lat="43.11654999999962" lon="-1.240609000000002">
        <ele>664.472</ele>
        <time>2022-08-24T07:34:22Z</time>
      </trkpt>
      <trkpt lat="43.11655899999962" lon="-1.240594000000002">
        <ele>664.619</ele>
        <time>2022-08-24T07:34:23Z</time>
      </trkpt>
      <trkpt lat="43.11656999999962" lon="-1.240581000000002">
        <ele>664.672</ele>
        <time>2022-08-24T07:34:24Z</time>
      </trkpt>
      <trkpt lat="43.11658199999962" lon="-1.240568000000002">
        <ele>664.826</ele>
        <time>2022-08-24T07:34:25Z</time>
      </trkpt>
      <trkpt lat="43.11659499999962" lon="-1.2405610000000018">
        <ele>664.845</ele>
        <time>2022-08-24T07:34:26Z</time>
      </trkpt>
      <trkpt lat="43.11660799999962" lon="-1.240557000000002">
        <ele>665.222</ele>
        <time>2022-08-24T07:34:27Z</time>
      </trkpt>
      <trkpt lat="43.11661999999962" lon="-1.240551000000002">
        <ele>665.262</ele>
        <time>2022-08-24T07:34:28Z</time>
      </trkpt>
      <trkpt lat="43.11663499999962" lon="-1.240546000000002">
        <ele>665.208</ele>
        <time>2022-08-24T07:34:29Z</time>
      </trkpt>
      <trkpt lat="43.11664599999962" lon="-1.2405390000000018">
        <ele>665.409</ele>
        <time>2022-08-24T07:34:30Z</time>
      </trkpt>
      <trkpt lat="43.11665699999962" lon="-1.240530000000002">
        <ele>665.443</ele>
        <time>2022-08-24T07:34:31Z</time>
      </trkpt>
      <trkpt lat="43.11666899999962" lon="-1.240522000000002">
        <ele>665.483</ele>
        <time>2022-08-24T07:34:32Z</time>
      </trkpt>
      <trkpt lat="43.11667999999962" lon="-1.240513000000002">
        <ele>665.843</ele>
        <time>2022-08-24T07:34:33Z</time>
      </trkpt>
      <trkpt lat="43.11668999999962" lon="-1.240505000000002">
        <ele>665.889</ele>
        <time>2022-08-24T07:34:34Z</time>
      </trkpt>
      <trkpt lat="43.11670099999962" lon="-1.240496000000002">
        <ele>666.031</ele>
        <time>2022-08-24T07:34:35Z</time>
      </trkpt>
      <trkpt lat="43.11671199999962" lon="-1.240486000000002">
        <ele>666.068</ele>
        <time>2022-08-24T07:34:36Z</time>
      </trkpt>
      <trkpt lat="43.116721999999626" lon="-1.240477000000002">
        <ele>666.021</ele>
        <time>2022-08-24T07:34:37Z</time>
      </trkpt>
      <trkpt lat="43.11673199999963" lon="-1.2404680000000021">
        <ele>666.265</ele>
        <time>2022-08-24T07:34:38Z</time>
      </trkpt>
      <trkpt lat="43.11674299999963" lon="-1.2404620000000022">
        <ele>666.484</ele>
        <time>2022-08-24T07:34:39Z</time>
      </trkpt>
      <trkpt lat="43.11675399999963" lon="-1.2404560000000022">
        <ele>666.479</ele>
        <time>2022-08-24T07:34:40Z</time>
      </trkpt>
      <trkpt lat="43.11676499999963" lon="-1.2404510000000022">
        <ele>666.605</ele>
        <time>2022-08-24T07:34:41Z</time>
      </trkpt>
      <trkpt lat="43.11677699999963" lon="-1.2404480000000022">
        <ele>666.825</ele>
        <time>2022-08-24T07:34:42Z</time>
      </trkpt>
      <trkpt lat="43.11678799999963" lon="-1.2404430000000022">
        <ele>667.009</ele>
        <time>2022-08-24T07:34:43Z</time>
      </trkpt>
      <trkpt lat="43.11679899999963" lon="-1.2404340000000023">
        <ele>667.298</ele>
        <time>2022-08-24T07:34:44Z</time>
      </trkpt>
      <trkpt lat="43.11680799999963" lon="-1.2404240000000022">
        <ele>667.288</ele>
        <time>2022-08-24T07:34:45Z</time>
      </trkpt>
      <trkpt lat="43.11681699999963" lon="-1.2404130000000022">
        <ele>667.668</ele>
        <time>2022-08-24T07:34:46Z</time>
      </trkpt>
      <trkpt lat="43.11682799999963" lon="-1.2404060000000021">
        <ele>667.644</ele>
        <time>2022-08-24T07:34:47Z</time>
      </trkpt>
      <trkpt lat="43.11683699999963" lon="-1.240396000000002">
        <ele>667.826</ele>
        <time>2022-08-24T07:34:48Z</time>
      </trkpt>
      <trkpt lat="43.116848999999625" lon="-1.240388000000002">
        <ele>668.043</ele>
        <time>2022-08-24T07:34:49Z</time>
      </trkpt>
      <trkpt lat="43.11685899999963" lon="-1.240381000000002">
        <ele>668.026</ele>
        <time>2022-08-24T07:34:50Z</time>
      </trkpt>
      <trkpt lat="43.11686999999963" lon="-1.240377000000002">
        <ele>668.420</ele>
        <time>2022-08-24T07:34:51Z</time>
      </trkpt>
      <trkpt lat="43.11688399999963" lon="-1.240369000000002">
        <ele>668.429</ele>
        <time>2022-08-24T07:34:52Z</time>
      </trkpt>
      <trkpt lat="43.11689799999963" lon="-1.2403600000000021">
        <ele>668.635</ele>
        <time>2022-08-24T07:34:53Z</time>
      </trkpt>
      <trkpt lat="43.11691099999963" lon="-1.240350000000002">
        <ele>668.686</ele>
        <time>2022-08-24T07:34:54Z</time>
      </trkpt>
      <trkpt lat="43.11692499999963" lon="-1.2403440000000021">
        <ele>668.814</ele>
        <time>2022-08-24T07:34:55Z</time>
      </trkpt>
      <trkpt lat="43.11693599999963" lon="-1.2403330000000021">
        <ele>669.209</ele>
        <time>2022-08-24T07:34:56Z</time>
      </trkpt>
      <trkpt lat="43.11693599999963" lon="-1.2403330000000021">
        <ele>669.224</ele>
        <time>2022-08-24T07:34:57Z</time>
      </trkpt>
      <trkpt lat="43.116960999999634" lon="-1.240318000000002">
        <ele>669.674</ele>
        <time>2022-08-24T07:34:58Z</time>
      </trkpt>
      <trkpt lat="43.11697899999963" lon="-1.2403060000000021">
        <ele>669.644</ele>
        <time>2022-08-24T07:34:59Z</time>
      </trkpt>
      <trkpt lat="43.11698999999963" lon="-1.2402940000000022">
        <ele>669.880</ele>
        <time>2022-08-24T07:35:00Z</time>
      </trkpt>
      <trkpt lat="43.11699899999963" lon="-1.2402830000000022">
        <ele>670.012</ele>
        <time>2022-08-24T07:35:01Z</time>
      </trkpt>
      <trkpt lat="43.11700399999963" lon="-1.2402770000000023">
        <ele>670.289</ele>
        <time>2022-08-24T07:35:02Z</time>
      </trkpt>
      <trkpt lat="43.117013999999635" lon="-1.2402680000000024">
        <ele>670.222</ele>
        <time>2022-08-24T07:35:03Z</time>
      </trkpt>
      <trkpt lat="43.11702699999964" lon="-1.2402590000000024">
        <ele>670.686</ele>
        <time>2022-08-24T07:35:04Z</time>
      </trkpt>
      <trkpt lat="43.11703999999964" lon="-1.2402500000000025">
        <ele>670.865</ele>
        <time>2022-08-24T07:35:05Z</time>
      </trkpt>
      <trkpt lat="43.11705399999964" lon="-1.2402400000000025">
        <ele>671.051</ele>
        <time>2022-08-24T07:35:06Z</time>
      </trkpt>
      <trkpt lat="43.11706599999964" lon="-1.2402330000000024">
        <ele>671.001</ele>
        <time>2022-08-24T07:35:07Z</time>
      </trkpt>
      <trkpt lat="43.11707899999964" lon="-1.2402230000000023">
        <ele>671.211</ele>
        <time>2022-08-24T07:35:08Z</time>
      </trkpt>
      <trkpt lat="43.11709299999964" lon="-1.2402160000000022">
        <ele>671.609</ele>
        <time>2022-08-24T07:35:09Z</time>
      </trkpt>
      <trkpt lat="43.117108999999644" lon="-1.2402110000000022">
        <ele>671.826</ele>
        <time>2022-08-24T07:35:10Z</time>
      </trkpt>
      <trkpt lat="43.11712199999965" lon="-1.2402030000000022">
        <ele>672.036</ele>
        <time>2022-08-24T07:35:11Z</time>
      </trkpt>
      <trkpt lat="43.11713499999965" lon="-1.2401890000000022">
        <ele>672.286</ele>
        <time>2022-08-24T07:35:12Z</time>
      </trkpt>
      <trkpt lat="43.11714399999965" lon="-1.2401810000000022">
        <ele>672.442</ele>
        <time>2022-08-24T07:35:13Z</time>
      </trkpt>
      <trkpt lat="43.117155999999646" lon="-1.2401760000000022">
        <ele>672.874</ele>
        <time>2022-08-24T07:35:14Z</time>
      </trkpt>
      <trkpt lat="43.11716699999965" lon="-1.2401680000000022">
        <ele>672.881</ele>
        <time>2022-08-24T07:35:15Z</time>
      </trkpt>
      <trkpt lat="43.11718099999965" lon="-1.2401590000000022">
        <ele>673.294</ele>
        <time>2022-08-24T07:35:16Z</time>
      </trkpt>
      <trkpt lat="43.117192999999645" lon="-1.2401520000000021">
        <ele>673.478</ele>
        <time>2022-08-24T07:35:17Z</time>
      </trkpt>
      <trkpt lat="43.11720599999965" lon="-1.2401460000000022">
        <ele>673.627</ele>
        <time>2022-08-24T07:35:18Z</time>
      </trkpt>
      <trkpt lat="43.117220999999645" lon="-1.2401410000000022">
        <ele>673.661</ele>
        <time>2022-08-24T07:35:19Z</time>
      </trkpt>
      <trkpt lat="43.117234999999646" lon="-1.2401350000000022">
        <ele>673.821</ele>
        <time>2022-08-24T07:35:20Z</time>
      </trkpt>
      <trkpt lat="43.11725299999964" lon="-1.2401270000000022">
        <ele>674.013</ele>
        <time>2022-08-24T07:35:21Z</time>
      </trkpt>
      <trkpt lat="43.11726499999964" lon="-1.2401190000000022">
        <ele>674.209</ele>
        <time>2022-08-24T07:35:22Z</time>
      </trkpt>
      <trkpt lat="43.11727599999964" lon="-1.2401110000000022">
        <ele>674.487</ele>
        <time>2022-08-24T07:35:23Z</time>
      </trkpt>
      <trkpt lat="43.11728799999964" lon="-1.2401060000000022">
        <ele>674.467</ele>
        <time>2022-08-24T07:35:24Z</time>
      </trkpt>
      <trkpt lat="43.11729999999964" lon="-1.2401010000000021">
        <ele>674.817</ele>
        <time>2022-08-24T07:35:25Z</time>
      </trkpt>
      <trkpt lat="43.117311999999636" lon="-1.2400970000000022">
        <ele>675.083</ele>
        <time>2022-08-24T07:35:26Z</time>
      </trkpt>
      <trkpt lat="43.11732199999964" lon="-1.2400910000000023">
        <ele>675.225</ele>
        <time>2022-08-24T07:35:27Z</time>
      </trkpt>
      <trkpt lat="43.11733699999964" lon="-1.2400870000000024">
        <ele>675.492</ele>
        <time>2022-08-24T07:35:28Z</time>
      </trkpt>
      <trkpt lat="43.117348999999635" lon="-1.2400810000000024">
        <ele>675.415</ele>
        <time>2022-08-24T07:35:29Z</time>
      </trkpt>
      <trkpt lat="43.11734799999964" lon="-1.2400690000000025">
        <ele>675.449</ele>
        <time>2022-08-24T07:35:30Z</time>
      </trkpt>
      <trkpt lat="43.11734699999964" lon="-1.2400600000000026">
        <ele>675.628</ele>
        <time>2022-08-24T07:35:31Z</time>
      </trkpt>
      <trkpt lat="43.11735799999964" lon="-1.2400570000000026">
        <ele>675.863</ele>
        <time>2022-08-24T07:35:32Z</time>
      </trkpt>
      <trkpt lat="43.11737199999964" lon="-1.2400550000000026">
        <ele>676.044</ele>
        <time>2022-08-24T07:35:33Z</time>
      </trkpt>
      <trkpt lat="43.11738599999964" lon="-1.2400510000000027">
        <ele>676.018</ele>
        <time>2022-08-24T07:35:34Z</time>
      </trkpt>
      <trkpt lat="43.11740099999964" lon="-1.2400410000000026">
        <ele>676.409</ele>
        <time>2022-08-24T07:35:35Z</time>
      </trkpt>
      <trkpt lat="43.11741499999964" lon="-1.2400360000000026">
        <ele>676.427</ele>
        <time>2022-08-24T07:35:36Z</time>
      </trkpt>
      <trkpt lat="43.11742799999964" lon="-1.2400330000000026">
        <ele>676.877</ele>
        <time>2022-08-24T07:35:37Z</time>
      </trkpt>
      <trkpt lat="43.11743899999964" lon="-1.2400310000000025">
        <ele>676.867</ele>
        <time>2022-08-24T07:35:38Z</time>
      </trkpt>
      <trkpt lat="43.117451999999645" lon="-1.2400260000000025">
        <ele>677.263</ele>
        <time>2022-08-24T07:35:39Z</time>
      </trkpt>
      <trkpt lat="43.11746399999964" lon="-1.2400180000000025">
        <ele>677.435</ele>
        <time>2022-08-24T07:35:40Z</time>
      </trkpt>
      <trkpt lat="43.117476999999646" lon="-1.2400130000000025">
        <ele>677.462</ele>
        <time>2022-08-24T07:35:41Z</time>
      </trkpt>
      <trkpt lat="43.117487999999646" lon="-1.2400060000000024">
        <ele>677.835</ele>
        <time>2022-08-24T07:35:42Z</time>
      </trkpt>
      <trkpt lat="43.11749899999965" lon="-1.2400020000000025">
        <ele>678.019</ele>
        <time>2022-08-24T07:35:43Z</time>
      </trkpt>
      <trkpt lat="43.11751199999965" lon="-1.2399990000000025">
        <ele>678.218</ele>
        <time>2022-08-24T07:35:44Z</time>
      </trkpt>
      <trkpt lat="43.11752299999965" lon="-1.2399940000000025">
        <ele>678.233</ele>
        <time>2022-08-24T07:35:45Z</time>
      </trkpt>
      <trkpt lat="43.11753499999965" lon="-1.2399920000000024">
        <ele>678.423</ele>
        <time>2022-08-24T07:35:46Z</time>
      </trkpt>
      <trkpt lat="43.11754799999965" lon="-1.2399910000000025">
        <ele>678.815</ele>
        <time>2022-08-24T07:35:47Z</time>
      </trkpt>
      <trkpt lat="43.11756199999965" lon="-1.2399890000000025">
        <ele>679.009</ele>
        <time>2022-08-24T07:35:48Z</time>
      </trkpt>
      <trkpt lat="43.11757399999965" lon="-1.2399840000000024">
        <ele>679.054</ele>
        <time>2022-08-24T07:35:49Z</time>
      </trkpt>
      <trkpt lat="43.11758499999965" lon="-1.2399820000000024">
        <ele>679.254</ele>
        <time>2022-08-24T07:35:50Z</time>
      </trkpt>
      <trkpt lat="43.11759799999965" lon="-1.2399850000000023">
        <ele>679.474</ele>
        <time>2022-08-24T07:35:51Z</time>
      </trkpt>
      <trkpt lat="43.117607999999656" lon="-1.2399800000000023">
        <ele>679.620</ele>
        <time>2022-08-24T07:35:52Z</time>
      </trkpt>
      <trkpt lat="43.11761899999966" lon="-1.2399720000000023">
        <ele>679.882</ele>
        <time>2022-08-24T07:35:53Z</time>
      </trkpt>
      <trkpt lat="43.11763299999966" lon="-1.2399660000000023">
        <ele>679.879</ele>
        <time>2022-08-24T07:35:54Z</time>
      </trkpt>
      <trkpt lat="43.11764899999966" lon="-1.2399630000000024">
        <ele>680.242</ele>
        <time>2022-08-24T07:35:55Z</time>
      </trkpt>
      <trkpt lat="43.11766199999966" lon="-1.2399570000000024">
        <ele>680.456</ele>
        <time>2022-08-24T07:35:56Z</time>
      </trkpt>
      <trkpt lat="43.11767399999966" lon="-1.2399490000000024">
        <ele>680.455</ele>
        <time>2022-08-24T07:35:57Z</time>
      </trkpt>
      <trkpt lat="43.11768799999966" lon="-1.2399460000000024">
        <ele>680.666</ele>
        <time>2022-08-24T07:35:58Z</time>
      </trkpt>
      <trkpt lat="43.11770199999966" lon="-1.2399400000000025">
        <ele>680.829</ele>
        <time>2022-08-24T07:35:59Z</time>
      </trkpt>
      <trkpt lat="43.11771599999966" lon="-1.2399340000000025">
        <ele>681.021</ele>
        <time>2022-08-24T07:36:00Z</time>
      </trkpt>
      <trkpt lat="43.11772999999966" lon="-1.2399310000000026">
        <ele>681.209</ele>
        <time>2022-08-24T07:36:01Z</time>
      </trkpt>
      <trkpt lat="43.11773699999966" lon="-1.2399260000000025">
        <ele>681.427</ele>
        <time>2022-08-24T07:36:02Z</time>
      </trkpt>
      <trkpt lat="43.117742999999656" lon="-1.2399160000000025">
        <ele>681.427</ele>
        <time>2022-08-24T07:36:03Z</time>
      </trkpt>
      <trkpt lat="43.117754999999654" lon="-1.2399080000000025">
        <ele>681.697</ele>
        <time>2022-08-24T07:36:04Z</time>
      </trkpt>
      <trkpt lat="43.11776699999965" lon="-1.2399010000000024">
        <ele>681.853</ele>
        <time>2022-08-24T07:36:05Z</time>
      </trkpt>
      <trkpt lat="43.11777899999965" lon="-1.2398970000000025">
        <ele>681.835</ele>
        <time>2022-08-24T07:36:06Z</time>
      </trkpt>
      <trkpt lat="43.11778999999965" lon="-1.2398910000000025">
        <ele>682.212</ele>
        <time>2022-08-24T07:36:07Z</time>
      </trkpt>
      <trkpt lat="43.117802999999654" lon="-1.2398840000000024">
        <ele>682.215</ele>
        <time>2022-08-24T07:36:08Z</time>
      </trkpt>
      <trkpt lat="43.11781299999966" lon="-1.2398760000000024">
        <ele>682.479</ele>
        <time>2022-08-24T07:36:09Z</time>
      </trkpt>
      <trkpt lat="43.11782299999966" lon="-1.2398660000000024">
        <ele>682.618</ele>
        <time>2022-08-24T07:36:10Z</time>
      </trkpt>
      <trkpt lat="43.11783299999966" lon="-1.2398580000000023">
        <ele>682.682</ele>
        <time>2022-08-24T07:36:11Z</time>
      </trkpt>
      <trkpt lat="43.11784199999966" lon="-1.2398480000000023">
        <ele>682.843</ele>
        <time>2022-08-24T07:36:12Z</time>
      </trkpt>
      <trkpt lat="43.11785099999966" lon="-1.2398390000000024">
        <ele>683.017</ele>
        <time>2022-08-24T07:36:13Z</time>
      </trkpt>
      <trkpt lat="43.11785999999966" lon="-1.2398290000000023">
        <ele>683.209</ele>
        <time>2022-08-24T07:36:14Z</time>
      </trkpt>
      <trkpt lat="43.11786899999966" lon="-1.2398180000000023">
        <ele>683.239</ele>
        <time>2022-08-24T07:36:15Z</time>
      </trkpt>
      <trkpt lat="43.11787699999966" lon="-1.2398070000000023">
        <ele>683.289</ele>
        <time>2022-08-24T07:36:16Z</time>
      </trkpt>
      <trkpt lat="43.11788199999966" lon="-1.2397990000000023">
        <ele>683.659</ele>
        <time>2022-08-24T07:36:17Z</time>
      </trkpt>
      <trkpt lat="43.11788999999966" lon="-1.2397910000000023">
        <ele>683.875</ele>
        <time>2022-08-24T07:36:18Z</time>
      </trkpt>
      <trkpt lat="43.11789599999966" lon="-1.2397800000000023">
        <ele>684.067</ele>
        <time>2022-08-24T07:36:19Z</time>
      </trkpt>
      <trkpt lat="43.11790299999966" lon="-1.2397680000000024">
        <ele>684.244</ele>
        <time>2022-08-24T07:36:20Z</time>
      </trkpt>
      <trkpt lat="43.117909999999654" lon="-1.2397540000000025">
        <ele>684.227</ele>
        <time>2022-08-24T07:36:21Z</time>
      </trkpt>
      <trkpt lat="43.11791599999965" lon="-1.2397410000000024">
        <ele>684.461</ele>
        <time>2022-08-24T07:36:22Z</time>
      </trkpt>
      <trkpt lat="43.11792499999965" lon="-1.2397300000000024">
        <ele>684.470</ele>
        <time>2022-08-24T07:36:23Z</time>
      </trkpt>
      <trkpt lat="43.11793599999965" lon="-1.2397200000000024">
        <ele>684.856</ele>
        <time>2022-08-24T07:36:24Z</time>
      </trkpt>
      <trkpt lat="43.117945999999655" lon="-1.2397060000000024">
        <ele>684.859</ele>
        <time>2022-08-24T07:36:25Z</time>
      </trkpt>
      <trkpt lat="43.11795599999966" lon="-1.2396910000000023">
        <ele>685.014</ele>
        <time>2022-08-24T07:36:26Z</time>
      </trkpt>
      <trkpt lat="43.117962999999655" lon="-1.2396750000000023">
        <ele>685.009</ele>
        <time>2022-08-24T07:36:27Z</time>
      </trkpt>
      <trkpt lat="43.117970999999656" lon="-1.2396590000000023">
        <ele>685.246</ele>
        <time>2022-08-24T07:36:28Z</time>
      </trkpt>
      <trkpt lat="43.11798099999966" lon="-1.2396380000000022">
        <ele>685.256</ele>
        <time>2022-08-24T07:36:29Z</time>
      </trkpt>
      <trkpt lat="43.11798899999966" lon="-1.2396180000000023">
        <ele>685.256</ele>
        <time>2022-08-24T07:36:30Z</time>
      </trkpt>
      <trkpt lat="43.11799799999966" lon="-1.2395950000000022">
        <ele>685.492</ele>
        <time>2022-08-24T07:36:31Z</time>
      </trkpt>
      <trkpt lat="43.118001999999656" lon="-1.2395780000000023">
        <ele>685.634</ele>
        <time>2022-08-24T07:36:32Z</time>
      </trkpt>
      <trkpt lat="43.118004999999656" lon="-1.2395610000000024">
        <ele>686.041</ele>
        <time>2022-08-24T07:36:33Z</time>
      </trkpt>
      <trkpt lat="43.118010999999655" lon="-1.2395460000000023">
        <ele>686.284</ele>
        <time>2022-08-24T07:36:34Z</time>
      </trkpt>
      <trkpt lat="43.11801499999965" lon="-1.2395330000000022">
        <ele>686.418</ele>
        <time>2022-08-24T07:36:35Z</time>
      </trkpt>
      <trkpt lat="43.11802199999965" lon="-1.2395160000000023">
        <ele>686.647</ele>
        <time>2022-08-24T07:36:36Z</time>
      </trkpt>
      <trkpt lat="43.11802699999965" lon="-1.2395010000000022">
        <ele>686.867</ele>
        <time>2022-08-24T07:36:37Z</time>
      </trkpt>
      <trkpt lat="43.11803299999965" lon="-1.2394890000000023">
        <ele>686.881</ele>
        <time>2022-08-24T07:36:38Z</time>
      </trkpt>
      <trkpt lat="43.11803799999965" lon="-1.2394720000000023">
        <ele>687.219</ele>
        <time>2022-08-24T07:36:39Z</time>
      </trkpt>
      <trkpt lat="43.11804099999965" lon="-1.2394570000000023">
        <ele>687.609</ele>
        <time>2022-08-24T07:36:40Z</time>
      </trkpt>
      <trkpt lat="43.11804399999965" lon="-1.2394440000000022">
        <ele>687.867</ele>
        <time>2022-08-24T07:36:41Z</time>
      </trkpt>
      <trkpt lat="43.11804399999965" lon="-1.2394440000000022">
        <ele>688.087</ele>
        <time>2022-08-24T07:36:42Z</time>
      </trkpt>
      <trkpt lat="43.11805399999965" lon="-1.2394130000000023">
        <ele>688.277</ele>
        <time>2022-08-24T07:36:43Z</time>
      </trkpt>
      <trkpt lat="43.11805799999965" lon="-1.2393980000000022">
        <ele>688.453</ele>
        <time>2022-08-24T07:36:44Z</time>
      </trkpt>
      <trkpt lat="43.11806199999965" lon="-1.2393820000000022">
        <ele>688.455</ele>
        <time>2022-08-24T07:36:45Z</time>
      </trkpt>
      <trkpt lat="43.11806699999965" lon="-1.239367000000002">
        <ele>688.662</ele>
        <time>2022-08-24T07:36:46Z</time>
      </trkpt>
      <trkpt lat="43.11807199999965" lon="-1.239349000000002">
        <ele>688.855</ele>
        <time>2022-08-24T07:36:47Z</time>
      </trkpt>
      <trkpt lat="43.11807699999965" lon="-1.239336000000002">
        <ele>688.899</ele>
        <time>2022-08-24T07:36:48Z</time>
      </trkpt>
      <trkpt lat="43.11807999999965" lon="-1.239316000000002">
        <ele>689.088</ele>
        <time>2022-08-24T07:36:49Z</time>
      </trkpt>
      <trkpt lat="43.11808199999965" lon="-1.2392940000000021">
        <ele>689.227</ele>
        <time>2022-08-24T07:36:50Z</time>
      </trkpt>
      <trkpt lat="43.11808299999965" lon="-1.239271000000002">
        <ele>689.468</ele>
        <time>2022-08-24T07:36:51Z</time>
      </trkpt>
      <trkpt lat="43.11808499999965" lon="-1.239259000000002">
        <ele>689.614</ele>
        <time>2022-08-24T07:36:52Z</time>
      </trkpt>
      <trkpt lat="43.11808799999965" lon="-1.239244000000002">
        <ele>689.809</ele>
        <time>2022-08-24T07:36:53Z</time>
      </trkpt>
      <trkpt lat="43.11808799999965" lon="-1.239244000000002">
        <ele>690.033</ele>
        <time>2022-08-24T07:36:54Z</time>
      </trkpt>
      <trkpt lat="43.11809399999965" lon="-1.239209000000002">
        <ele>690.253</ele>
        <time>2022-08-24T07:36:55Z</time>
      </trkpt>
      <trkpt lat="43.11809499999965" lon="-1.239190000000002">
        <ele>690.253</ele>
        <time>2022-08-24T07:36:56Z</time>
      </trkpt>
      <trkpt lat="43.11809499999965" lon="-1.239179000000002">
        <ele>690.499</ele>
        <time>2022-08-24T07:36:57Z</time>
      </trkpt>
      <trkpt lat="43.11809499999965" lon="-1.2391670000000021">
        <ele>690.611</ele>
        <time>2022-08-24T07:36:58Z</time>
      </trkpt>
      <trkpt lat="43.11809699999965" lon="-1.2391470000000022">
        <ele>690.818</ele>
        <time>2022-08-24T07:36:59Z</time>
      </trkpt>
      <trkpt lat="43.11809699999965" lon="-1.2391340000000022">
        <ele>691.021</ele>
        <time>2022-08-24T07:37:00Z</time>
      </trkpt>
      <trkpt lat="43.11809599999965" lon="-1.2391180000000022">
        <ele>691.425</ele>
        <time>2022-08-24T07:37:01Z</time>
      </trkpt>
      <trkpt lat="43.118094999999656" lon="-1.2391040000000022">
        <ele>691.624</ele>
        <time>2022-08-24T07:37:02Z</time>
      </trkpt>
      <trkpt lat="43.11809699999966" lon="-1.2390920000000023">
        <ele>691.884</ele>
        <time>2022-08-24T07:37:03Z</time>
      </trkpt>
      <trkpt lat="43.118100999999655" lon="-1.2390760000000023">
        <ele>692.007</ele>
        <time>2022-08-24T07:37:04Z</time>
      </trkpt>
      <trkpt lat="43.11810299999966" lon="-1.2390590000000024">
        <ele>692.217</ele>
        <time>2022-08-24T07:37:05Z</time>
      </trkpt>
      <trkpt lat="43.118103999999654" lon="-1.2390470000000025">
        <ele>692.409</ele>
        <time>2022-08-24T07:37:06Z</time>
      </trkpt>
      <trkpt lat="43.118103999999654" lon="-1.2390320000000024">
        <ele>692.649</ele>
        <time>2022-08-24T07:37:07Z</time>
      </trkpt>
      <trkpt lat="43.118105999999656" lon="-1.2390210000000024">
        <ele>693.039</ele>
        <time>2022-08-24T07:37:08Z</time>
      </trkpt>
      <trkpt lat="43.11810799999966" lon="-1.2390080000000023">
        <ele>693.289</ele>
        <time>2022-08-24T07:37:09Z</time>
      </trkpt>
      <trkpt lat="43.11810699999966" lon="-1.2389940000000024">
        <ele>693.225</ele>
        <time>2022-08-24T07:37:10Z</time>
      </trkpt>
      <trkpt lat="43.11810199999966" lon="-1.2389810000000023">
        <ele>693.447</ele>
        <time>2022-08-24T07:37:11Z</time>
      </trkpt>
      <trkpt lat="43.11809799999966" lon="-1.2389700000000023">
        <ele>693.454</ele>
        <time>2022-08-24T07:37:12Z</time>
      </trkpt>
      <trkpt lat="43.118096999999665" lon="-1.2389560000000024">
        <ele>693.657</ele>
        <time>2022-08-24T07:37:13Z</time>
      </trkpt>
      <trkpt lat="43.118096999999665" lon="-1.2389420000000024">
        <ele>693.831</ele>
        <time>2022-08-24T07:37:14Z</time>
      </trkpt>
      <trkpt lat="43.11809499999966" lon="-1.2389280000000025">
        <ele>694.070</ele>
        <time>2022-08-24T07:37:15Z</time>
      </trkpt>
      <trkpt lat="43.11808999999966" lon="-1.2389130000000024">
        <ele>694.069</ele>
        <time>2022-08-24T07:37:16Z</time>
      </trkpt>
      <trkpt lat="43.11808499999966" lon="-1.2389000000000023">
        <ele>694.404</ele>
        <time>2022-08-24T07:37:17Z</time>
      </trkpt>
      <trkpt lat="43.11808199999966" lon="-1.2388870000000023">
        <ele>694.424</ele>
        <time>2022-08-24T07:37:18Z</time>
      </trkpt>
      <trkpt lat="43.11807599999966" lon="-1.2388740000000023">
        <ele>694.609</ele>
        <time>2022-08-24T07:37:19Z</time>
      </trkpt>
      <trkpt lat="43.11806999999966" lon="-1.2388630000000023">
        <ele>694.877</ele>
        <time>2022-08-24T07:37:20Z</time>
      </trkpt>
      <trkpt lat="43.11806499999966" lon="-1.2388490000000023">
        <ele>695.037</ele>
        <time>2022-08-24T07:37:21Z</time>
      </trkpt>
      <trkpt lat="43.11805699999966" lon="-1.2388310000000022">
        <ele>695.467</ele>
        <time>2022-08-24T07:37:22Z</time>
      </trkpt>
      <trkpt lat="43.11804999999966" lon="-1.2388150000000022">
        <ele>695.623</ele>
        <time>2022-08-24T07:37:23Z</time>
      </trkpt>
      <trkpt lat="43.118042999999666" lon="-1.2388000000000021">
        <ele>696.025</ele>
        <time>2022-08-24T07:37:24Z</time>
      </trkpt>
      <trkpt lat="43.118037999999665" lon="-1.2387810000000021">
        <ele>696.252</ele>
        <time>2022-08-24T07:37:25Z</time>
      </trkpt>
      <trkpt lat="43.11803399999967" lon="-1.2387640000000022">
        <ele>696.445</ele>
        <time>2022-08-24T07:37:26Z</time>
      </trkpt>
      <trkpt lat="43.11803099999967" lon="-1.2387510000000022">
        <ele>696.419</ele>
        <time>2022-08-24T07:37:27Z</time>
      </trkpt>
      <trkpt lat="43.11802399999967" lon="-1.2387370000000022">
        <ele>696.678</ele>
        <time>2022-08-24T07:37:28Z</time>
      </trkpt>
      <trkpt lat="43.11801599999967" lon="-1.2387250000000023">
        <ele>697.091</ele>
        <time>2022-08-24T07:37:29Z</time>
      </trkpt>
      <trkpt lat="43.11800699999967" lon="-1.2387130000000024">
        <ele>697.081</ele>
        <time>2022-08-24T07:37:30Z</time>
      </trkpt>
      <trkpt lat="43.11799899999967" lon="-1.2387020000000024">
        <ele>697.419</ele>
        <time>2022-08-24T07:37:31Z</time>
      </trkpt>
      <trkpt lat="43.11798999999967" lon="-1.2386930000000025">
        <ele>697.609</ele>
        <time>2022-08-24T07:37:32Z</time>
      </trkpt>
      <trkpt lat="43.11798099999967" lon="-1.2386810000000026">
        <ele>698.060</ele>
        <time>2022-08-24T07:37:33Z</time>
      </trkpt>
      <trkpt lat="43.117971999999675" lon="-1.2386670000000026">
        <ele>698.060</ele>
        <time>2022-08-24T07:37:34Z</time>
      </trkpt>
      <trkpt lat="43.117965999999676" lon="-1.2386530000000027">
        <ele>698.260</ele>
        <time>2022-08-24T07:37:35Z</time>
      </trkpt>
      <trkpt lat="43.117963999999674" lon="-1.2386370000000027">
        <ele>698.486</ele>
        <time>2022-08-24T07:37:36Z</time>
      </trkpt>
      <trkpt lat="43.117960999999674" lon="-1.2386210000000026">
        <ele>698.858</ele>
        <time>2022-08-24T07:37:37Z</time>
      </trkpt>
      <trkpt lat="43.11795599999967" lon="-1.2386080000000026">
        <ele>699.085</ele>
        <time>2022-08-24T07:37:38Z</time>
      </trkpt>
      <trkpt lat="43.11794799999967" lon="-1.2386010000000025">
        <ele>699.258</ele>
        <time>2022-08-24T07:37:39Z</time>
      </trkpt>
      <trkpt lat="43.11794199999967" lon="-1.2385960000000025">
        <ele>699.672</ele>
        <time>2022-08-24T07:37:40Z</time>
      </trkpt>
      <trkpt lat="43.117932999999674" lon="-1.2385880000000025">
        <ele>699.671</ele>
        <time>2022-08-24T07:37:41Z</time>
      </trkpt>
      <trkpt lat="43.11792499999967" lon="-1.2385770000000025">
        <ele>700.052</ele>
        <time>2022-08-24T07:37:42Z</time>
      </trkpt>
      <trkpt lat="43.117917999999676" lon="-1.2385680000000026">
        <ele>700.053</ele>
        <time>2022-08-24T07:37:43Z</time>
      </trkpt>
      <trkpt lat="43.11791199999968" lon="-1.2385570000000026">
        <ele>700.208</ele>
        <time>2022-08-24T07:37:44Z</time>
      </trkpt>
      <trkpt lat="43.117903999999676" lon="-1.2385460000000026">
        <ele>700.609</ele>
        <time>2022-08-24T07:37:45Z</time>
      </trkpt>
      <trkpt lat="43.11789699999968" lon="-1.2385350000000026">
        <ele>700.686</ele>
        <time>2022-08-24T07:37:46Z</time>
      </trkpt>
      <trkpt lat="43.11789199999968" lon="-1.2385240000000026">
        <ele>700.826</ele>
        <time>2022-08-24T07:37:47Z</time>
      </trkpt>
      <trkpt lat="43.11788499999968" lon="-1.2385120000000027">
        <ele>701.036</ele>
        <time>2022-08-24T07:37:48Z</time>
      </trkpt>
      <trkpt lat="43.11787999999968" lon="-1.2385030000000028">
        <ele>701.232</ele>
        <time>2022-08-24T07:37:49Z</time>
      </trkpt>
      <trkpt lat="43.11787099999968" lon="-1.2384930000000027">
        <ele>701.274</ele>
        <time>2022-08-24T07:37:50Z</time>
      </trkpt>
      <trkpt lat="43.11787099999968" lon="-1.2384930000000027">
        <ele>701.641</ele>
        <time>2022-08-24T07:37:51Z</time>
      </trkpt>
      <trkpt lat="43.11785599999968" lon="-1.2384790000000028">
        <ele>701.844</ele>
        <time>2022-08-24T07:37:52Z</time>
      </trkpt>
      <trkpt lat="43.11784899999969" lon="-1.2384680000000028">
        <ele>702.068</ele>
        <time>2022-08-24T07:37:53Z</time>
      </trkpt>
      <trkpt lat="43.11784299999969" lon="-1.2384560000000029">
        <ele>702.247</ele>
        <time>2022-08-24T07:37:54Z</time>
      </trkpt>
      <trkpt lat="43.11783699999969" lon="-1.2384460000000028">
        <ele>702.247</ele>
        <time>2022-08-24T07:37:55Z</time>
      </trkpt>
      <trkpt lat="43.11782999999969" lon="-1.238434000000003">
        <ele>702.429</ele>
        <time>2022-08-24T07:37:56Z</time>
      </trkpt>
      <trkpt lat="43.11782399999969" lon="-1.238426000000003">
        <ele>702.621</ele>
        <time>2022-08-24T07:37:57Z</time>
      </trkpt>
      <trkpt lat="43.1178169999997" lon="-1.2384190000000028">
        <ele>702.809</ele>
        <time>2022-08-24T07:37:58Z</time>
      </trkpt>
      <trkpt lat="43.117808999999696" lon="-1.2384140000000028">
        <ele>703.055</ele>
        <time>2022-08-24T07:37:59Z</time>
      </trkpt>
      <trkpt lat="43.117797999999695" lon="-1.2384090000000028">
        <ele>703.255</ele>
        <time>2022-08-24T07:38:00Z</time>
      </trkpt>
      <trkpt lat="43.1177909999997" lon="-1.2384000000000028">
        <ele>703.445</ele>
        <time>2022-08-24T07:38:01Z</time>
      </trkpt>
      <trkpt lat="43.1177849999997" lon="-1.2383920000000028">
        <ele>703.671</ele>
        <time>2022-08-24T07:38:02Z</time>
      </trkpt>
      <trkpt lat="43.117774999999696" lon="-1.2383810000000028">
        <ele>703.843</ele>
        <time>2022-08-24T07:38:03Z</time>
      </trkpt>
      <trkpt lat="43.117774999999696" lon="-1.2383810000000028">
        <ele>704.010</ele>
        <time>2022-08-24T07:38:04Z</time>
      </trkpt>
      <trkpt lat="43.1177579999997" lon="-1.238356000000003">
        <ele>704.253</ele>
        <time>2022-08-24T07:38:05Z</time>
      </trkpt>
      <trkpt lat="43.1177489999997" lon="-1.238344000000003">
        <ele>704.427</ele>
        <time>2022-08-24T07:38:06Z</time>
      </trkpt>
      <trkpt lat="43.1177409999997" lon="-1.238335000000003">
        <ele>704.656</ele>
        <time>2022-08-24T07:38:07Z</time>
      </trkpt>
      <trkpt lat="43.1177409999997" lon="-1.238335000000003">
        <ele>704.846</ele>
        <time>2022-08-24T07:38:08Z</time>
      </trkpt>
      <trkpt lat="43.1177209999997" lon="-1.238319000000003">
        <ele>705.088</ele>
        <time>2022-08-24T07:38:09Z</time>
      </trkpt>
      <trkpt lat="43.117710999999694" lon="-1.238316000000003">
        <ele>705.216</ele>
        <time>2022-08-24T07:38:10Z</time>
      </trkpt>
      <trkpt lat="43.117699999999694" lon="-1.2383150000000032">
        <ele>705.409</ele>
        <time>2022-08-24T07:38:11Z</time>
      </trkpt>
      <trkpt lat="43.11768999999969" lon="-1.238313000000003">
        <ele>705.675</ele>
        <time>2022-08-24T07:38:12Z</time>
      </trkpt>
      <trkpt lat="43.11768099999969" lon="-1.238311000000003">
        <ele>705.895</ele>
        <time>2022-08-24T07:38:13Z</time>
      </trkpt>
      <trkpt lat="43.11767199999969" lon="-1.2383070000000032">
        <ele>705.835</ele>
        <time>2022-08-24T07:38:14Z</time>
      </trkpt>
      <trkpt lat="43.11766399999969" lon="-1.238305000000003">
        <ele>706.421</ele>
        <time>2022-08-24T07:38:15Z</time>
      </trkpt>
      <trkpt lat="43.117654999999694" lon="-1.2383010000000032">
        <ele>706.623</ele>
        <time>2022-08-24T07:38:16Z</time>
      </trkpt>
      <trkpt lat="43.1176479999997" lon="-1.2382960000000032">
        <ele>707.050</ele>
        <time>2022-08-24T07:38:17Z</time>
      </trkpt>
      <trkpt lat="43.1176419999997" lon="-1.2382930000000032">
        <ele>707.223</ele>
        <time>2022-08-24T07:38:18Z</time>
      </trkpt>
      <trkpt lat="43.1176309999997" lon="-1.2382930000000032">
        <ele>707.467</ele>
        <time>2022-08-24T07:38:19Z</time>
      </trkpt>
      <trkpt lat="43.1176219999997" lon="-1.2383030000000033">
        <ele>707.856</ele>
        <time>2022-08-24T07:38:20Z</time>
      </trkpt>
      <trkpt lat="43.1176179999997" lon="-1.2383200000000032">
        <ele>708.055</ele>
        <time>2022-08-24T07:38:21Z</time>
      </trkpt>
      <trkpt lat="43.1176179999997" lon="-1.238340000000003">
        <ele>708.007</ele>
        <time>2022-08-24T07:38:22Z</time>
      </trkpt>
      <trkpt lat="43.1176219999997" lon="-1.238360000000003">
        <ele>708.217</ele>
        <time>2022-08-24T07:38:23Z</time>
      </trkpt>
      <trkpt lat="43.1176309999997" lon="-1.238374000000003">
        <ele>708.209</ele>
        <time>2022-08-24T07:38:24Z</time>
      </trkpt>
      <trkpt lat="43.1176439999997" lon="-1.238384000000003">
        <ele>708.256</ele>
        <time>2022-08-24T07:38:25Z</time>
      </trkpt>
      <trkpt lat="43.1176509999997" lon="-1.238388000000003">
        <ele>708.296</ele>
        <time>2022-08-24T07:38:26Z</time>
      </trkpt>
      <trkpt lat="43.117654999999694" lon="-1.238384000000003">
        <ele>708.646</ele>
        <time>2022-08-24T07:38:42Z</time>
      </trkpt>
      <trkpt lat="43.117656999999696" lon="-1.238365000000003">
        <ele>708.662</ele>
        <time>2022-08-24T07:38:43Z</time>
      </trkpt>
      <trkpt lat="43.117659999999695" lon="-1.2383450000000031">
        <ele>708.674</ele>
        <time>2022-08-24T07:38:44Z</time>
      </trkpt>
      <trkpt lat="43.117653999999696" lon="-1.2382850000000032">
        <ele>708.421</ele>
        <time>2022-08-24T07:38:47Z</time>
      </trkpt>
      <trkpt lat="43.11764399999969" lon="-1.2382750000000031">
        <ele>708.494</ele>
        <time>2022-08-24T07:38:48Z</time>
      </trkpt>
      <trkpt lat="43.11762999999969" lon="-1.2382740000000032">
        <ele>708.438</ele>
        <time>2022-08-24T07:38:49Z</time>
      </trkpt>
      <trkpt lat="43.117614999999695" lon="-1.2382720000000031">
        <ele>708.427</ele>
        <time>2022-08-24T07:38:50Z</time>
      </trkpt>
      <trkpt lat="43.1175859999997" lon="-1.2382630000000032">
        <ele>708.296</ele>
        <time>2022-08-24T07:38:52Z</time>
      </trkpt>
      <trkpt lat="43.117572999999695" lon="-1.2382570000000033">
        <ele>708.431</ele>
        <time>2022-08-24T07:38:53Z</time>
      </trkpt>
      <trkpt lat="43.11755999999969" lon="-1.2382500000000032">
        <ele>708.424</ele>
        <time>2022-08-24T07:38:54Z</time>
      </trkpt>
      <trkpt lat="43.11754999999969" lon="-1.2382460000000033">
        <ele>708.409</ele>
        <time>2022-08-24T07:38:55Z</time>
      </trkpt>
      <trkpt lat="43.11753899999969" lon="-1.2382440000000032">
        <ele>708.650</ele>
        <time>2022-08-24T07:38:56Z</time>
      </trkpt>
      <trkpt lat="43.11751399999969" lon="-1.2382450000000031">
        <ele>709.060</ele>
        <time>2022-08-24T07:38:58Z</time>
      </trkpt>
      <trkpt lat="43.117477999999686" lon="-1.2382400000000031">
        <ele>710.010</ele>
        <time>2022-08-24T07:39:01Z</time>
      </trkpt>
      <trkpt lat="43.117463999999686" lon="-1.2382360000000032">
        <ele>710.226</ele>
        <time>2022-08-24T07:39:02Z</time>
      </trkpt>
      <trkpt lat="43.11745399999968" lon="-1.2382350000000033">
        <ele>710.438</ele>
        <time>2022-08-24T07:39:03Z</time>
      </trkpt>
      <trkpt lat="43.11744099999968" lon="-1.2382330000000032">
        <ele>710.895</ele>
        <time>2022-08-24T07:39:04Z</time>
      </trkpt>
      <trkpt lat="43.11743299999968" lon="-1.2382310000000032">
        <ele>711.068</ele>
        <time>2022-08-24T07:39:05Z</time>
      </trkpt>
      <trkpt lat="43.11742099999968" lon="-1.2382230000000032">
        <ele>711.252</ele>
        <time>2022-08-24T07:39:06Z</time>
      </trkpt>
      <trkpt lat="43.11739799999968" lon="-1.2382110000000033">
        <ele>711.831</ele>
        <time>2022-08-24T07:39:08Z</time>
      </trkpt>
      <trkpt lat="43.11738499999968" lon="-1.2382120000000032">
        <ele>712.098</ele>
        <time>2022-08-24T07:39:09Z</time>
      </trkpt>
      <trkpt lat="43.11737299999968" lon="-1.2382070000000032">
        <ele>712.415</ele>
        <time>2022-08-24T07:39:10Z</time>
      </trkpt>
      <trkpt lat="43.11736499999968" lon="-1.2381990000000032">
        <ele>712.626</ele>
        <time>2022-08-24T07:39:11Z</time>
      </trkpt>
      <trkpt lat="43.11735299999968" lon="-1.238189000000003">
        <ele>712.809</ele>
        <time>2022-08-24T07:39:12Z</time>
      </trkpt>
      <trkpt lat="43.11734199999968" lon="-1.2381860000000031">
        <ele>713.050</ele>
        <time>2022-08-24T07:39:13Z</time>
      </trkpt>
      <trkpt lat="43.11732999999968" lon="-1.238184000000003">
        <ele>713.070</ele>
        <time>2022-08-24T07:39:14Z</time>
      </trkpt>
      <trkpt lat="43.11731999999968" lon="-1.2381860000000031">
        <ele>713.450</ele>
        <time>2022-08-24T07:39:15Z</time>
      </trkpt>
      <trkpt lat="43.11730699999968" lon="-1.238187000000003">
        <ele>713.656</ele>
        <time>2022-08-24T07:39:16Z</time>
      </trkpt>
      <trkpt lat="43.11729299999968" lon="-1.238181000000003">
        <ele>714.238</ele>
        <time>2022-08-24T07:39:17Z</time>
      </trkpt>
      <trkpt lat="43.117281999999676" lon="-1.2381770000000032">
        <ele>714.495</ele>
        <time>2022-08-24T07:39:18Z</time>
      </trkpt>
      <trkpt lat="43.117270999999675" lon="-1.2381760000000033">
        <ele>714.618</ele>
        <time>2022-08-24T07:39:19Z</time>
      </trkpt>
      <trkpt lat="43.11726199999968" lon="-1.2381740000000032">
        <ele>715.072</ele>
        <time>2022-08-24T07:39:20Z</time>
      </trkpt>
      <trkpt lat="43.117248999999674" lon="-1.2381690000000032">
        <ele>715.091</ele>
        <time>2022-08-24T07:39:21Z</time>
      </trkpt>
      <trkpt lat="43.11724099999967" lon="-1.2381640000000032">
        <ele>715.298</ele>
        <time>2022-08-24T07:39:22Z</time>
      </trkpt>
      <trkpt lat="43.11723099999967" lon="-1.238157000000003">
        <ele>715.215</ele>
        <time>2022-08-24T07:39:23Z</time>
      </trkpt>
      <trkpt lat="43.11722299999967" lon="-1.2381530000000032">
        <ele>715.426</ele>
        <time>2022-08-24T07:39:24Z</time>
      </trkpt>
      <trkpt lat="43.11721799999967" lon="-1.2381500000000032">
        <ele>715.609</ele>
        <time>2022-08-24T07:39:25Z</time>
      </trkpt>
      <trkpt lat="43.117207999999664" lon="-1.2381470000000032">
        <ele>715.830</ele>
        <time>2022-08-24T07:39:26Z</time>
      </trkpt>
      <trkpt lat="43.117198999999665" lon="-1.2381450000000032">
        <ele>716.050</ele>
        <time>2022-08-24T07:39:27Z</time>
      </trkpt>
      <trkpt lat="43.117187999999665" lon="-1.238138000000003">
        <ele>716.210</ele>
        <time>2022-08-24T07:39:28Z</time>
      </trkpt>
      <trkpt lat="43.11717499999966" lon="-1.2381320000000031">
        <ele>716.226</ele>
        <time>2022-08-24T07:39:29Z</time>
      </trkpt>
      <trkpt lat="43.11716399999966" lon="-1.238125000000003">
        <ele>716.238</ele>
        <time>2022-08-24T07:39:30Z</time>
      </trkpt>
      <trkpt lat="43.11715799999966" lon="-1.238122000000003">
        <ele>716.415</ele>
        <time>2022-08-24T07:39:31Z</time>
      </trkpt>
      <trkpt lat="43.11714399999966" lon="-1.238117000000003">
        <ele>716.698</ele>
        <time>2022-08-24T07:39:32Z</time>
      </trkpt>
      <trkpt lat="43.11713299999966" lon="-1.2381130000000031">
        <ele>716.862</ele>
        <time>2022-08-24T07:39:33Z</time>
      </trkpt>
      <trkpt lat="43.11712499999966" lon="-1.2381090000000032">
        <ele>717.031</ele>
        <time>2022-08-24T07:39:34Z</time>
      </trkpt>
      <trkpt lat="43.11711899999966" lon="-1.2381060000000033">
        <ele>717.085</ele>
        <time>2022-08-24T07:39:35Z</time>
      </trkpt>
      <trkpt lat="43.117114999999664" lon="-1.2381030000000033">
        <ele>717.489</ele>
        <time>2022-08-24T07:39:36Z</time>
      </trkpt>
      <trkpt lat="43.11710799999967" lon="-1.2380980000000033">
        <ele>717.417</ele>
        <time>2022-08-24T07:39:37Z</time>
      </trkpt>
      <trkpt lat="43.117097999999665" lon="-1.2380940000000034">
        <ele>717.609</ele>
        <time>2022-08-24T07:39:38Z</time>
      </trkpt>
      <trkpt lat="43.117086999999664" lon="-1.2380880000000034">
        <ele>717.839</ele>
        <time>2022-08-24T07:39:39Z</time>
      </trkpt>
      <trkpt lat="43.11707399999966" lon="-1.2380830000000034">
        <ele>718.099</ele>
        <time>2022-08-24T07:39:40Z</time>
      </trkpt>
      <trkpt lat="43.117066999999665" lon="-1.2380800000000034">
        <ele>718.239</ele>
        <time>2022-08-24T07:39:41Z</time>
      </trkpt>
      <trkpt lat="43.11705399999966" lon="-1.2380770000000034">
        <ele>718.455</ele>
        <time>2022-08-24T07:39:42Z</time>
      </trkpt>
      <trkpt lat="43.11704099999966" lon="-1.2380750000000034">
        <ele>718.487</ele>
        <time>2022-08-24T07:39:43Z</time>
      </trkpt>
      <trkpt lat="43.11704099999966" lon="-1.2380750000000034">
        <ele>718.674</ele>
        <time>2022-08-24T07:39:44Z</time>
      </trkpt>
      <trkpt lat="43.11701599999966" lon="-1.2380650000000033">
        <ele>718.887</ele>
        <time>2022-08-24T07:39:45Z</time>
      </trkpt>
      <trkpt lat="43.11700399999966" lon="-1.2380600000000033">
        <ele>719.041</ele>
        <time>2022-08-24T07:39:46Z</time>
      </trkpt>
      <trkpt lat="43.11698699999966" lon="-1.2380500000000032">
        <ele>719.070</ele>
        <time>2022-08-24T07:39:47Z</time>
      </trkpt>
      <trkpt lat="43.11696899999966" lon="-1.2380410000000033">
        <ele>719.473</ele>
        <time>2022-08-24T07:39:48Z</time>
      </trkpt>
      <trkpt lat="43.11694999999966" lon="-1.2380340000000032">
        <ele>719.685</ele>
        <time>2022-08-24T07:39:49Z</time>
      </trkpt>
      <trkpt lat="43.116934999999664" lon="-1.2380300000000033">
        <ele>719.813</ele>
        <time>2022-08-24T07:39:50Z</time>
      </trkpt>
      <trkpt lat="43.116922999999666" lon="-1.2380240000000033">
        <ele>720.009</ele>
        <time>2022-08-24T07:39:51Z</time>
      </trkpt>
      <trkpt lat="43.11691099999967" lon="-1.2380170000000033">
        <ele>720.238</ele>
        <time>2022-08-24T07:39:52Z</time>
      </trkpt>
      <trkpt lat="43.11689899999967" lon="-1.2380070000000032">
        <ele>720.468</ele>
        <time>2022-08-24T07:39:53Z</time>
      </trkpt>
      <trkpt lat="43.11688999999967" lon="-1.2379970000000031">
        <ele>720.688</ele>
        <time>2022-08-24T07:39:54Z</time>
      </trkpt>
      <trkpt lat="43.11687699999967" lon="-1.2379890000000031">
        <ele>720.864</ele>
        <time>2022-08-24T07:39:55Z</time>
      </trkpt>
      <trkpt lat="43.11686899999967" lon="-1.237979000000003">
        <ele>721.056</ele>
        <time>2022-08-24T07:39:56Z</time>
      </trkpt>
      <trkpt lat="43.116860999999666" lon="-1.237971000000003">
        <ele>721.473</ele>
        <time>2022-08-24T07:39:57Z</time>
      </trkpt>
      <trkpt lat="43.11685099999966" lon="-1.237965000000003">
        <ele>721.686</ele>
        <time>2022-08-24T07:39:58Z</time>
      </trkpt>
      <trkpt lat="43.11683999999966" lon="-1.237965000000003">
        <ele>721.850</ele>
        <time>2022-08-24T07:39:59Z</time>
      </trkpt>
      <trkpt lat="43.11682899999966" lon="-1.237963000000003">
        <ele>722.269</ele>
        <time>2022-08-24T07:40:00Z</time>
      </trkpt>
      <trkpt lat="43.11681999999966" lon="-1.237958000000003">
        <ele>722.258</ele>
        <time>2022-08-24T07:40:01Z</time>
      </trkpt>
      <trkpt lat="43.11680999999966" lon="-1.237953000000003">
        <ele>722.452</ele>
        <time>2022-08-24T07:40:02Z</time>
      </trkpt>
      <trkpt lat="43.11679899999966" lon="-1.237950000000003">
        <ele>722.617</ele>
        <time>2022-08-24T07:40:03Z</time>
      </trkpt>
      <trkpt lat="43.11678999999966" lon="-1.237946000000003">
        <ele>722.809</ele>
        <time>2022-08-24T07:40:04Z</time>
      </trkpt>
      <trkpt lat="43.11678099999966" lon="-1.2379420000000032">
        <ele>722.846</ele>
        <time>2022-08-24T07:40:05Z</time>
      </trkpt>
      <trkpt lat="43.11677099999966" lon="-1.2379350000000031">
        <ele>723.266</ele>
        <time>2022-08-24T07:40:06Z</time>
      </trkpt>
      <trkpt lat="43.11675999999966" lon="-1.237927000000003">
        <ele>723.476</ele>
        <time>2022-08-24T07:40:07Z</time>
      </trkpt>
      <trkpt lat="43.11675099999966" lon="-1.2379240000000031">
        <ele>723.422</ele>
        <time>2022-08-24T07:40:08Z</time>
      </trkpt>
      <trkpt lat="43.11674399999966" lon="-1.2379230000000032">
        <ele>723.884</ele>
        <time>2022-08-24T07:40:09Z</time>
      </trkpt>
      <trkpt lat="43.11676399999966" lon="-1.2379210000000032">
        <ele>724.041</ele>
        <time>2022-08-24T07:40:10Z</time>
      </trkpt>
      <trkpt lat="43.116762999999665" lon="-1.2379170000000033">
        <ele>724.264</ele>
        <time>2022-08-24T07:40:11Z</time>
      </trkpt>
      <trkpt lat="43.116753999999666" lon="-1.2379140000000033">
        <ele>724.488</ele>
        <time>2022-08-24T07:40:12Z</time>
      </trkpt>
      <trkpt lat="43.116742999999666" lon="-1.2379070000000032">
        <ele>724.437</ele>
        <time>2022-08-24T07:40:13Z</time>
      </trkpt>
      <trkpt lat="43.11673399999967" lon="-1.237911000000003">
        <ele>724.675</ele>
        <time>2022-08-24T07:40:14Z</time>
      </trkpt>
      <trkpt lat="43.11672999999967" lon="-1.2379100000000032">
        <ele>724.828</ele>
        <time>2022-08-24T07:40:15Z</time>
      </trkpt>
      <trkpt lat="43.11672099999967" lon="-1.237911000000003">
        <ele>725.020</ele>
        <time>2022-08-24T07:40:16Z</time>
      </trkpt>
      <trkpt lat="43.11671099999967" lon="-1.2379100000000032">
        <ele>725.009</ele>
        <time>2022-08-24T07:40:17Z</time>
      </trkpt>
      <trkpt lat="43.116700999999665" lon="-1.2379060000000033">
        <ele>725.428</ele>
        <time>2022-08-24T07:40:18Z</time>
      </trkpt>
      <trkpt lat="43.116689999999664" lon="-1.2379040000000032">
        <ele>725.418</ele>
        <time>2022-08-24T07:40:19Z</time>
      </trkpt>
      <trkpt lat="43.11667999999966" lon="-1.2378990000000032">
        <ele>725.638</ele>
        <time>2022-08-24T07:40:20Z</time>
      </trkpt>
      <trkpt lat="43.11667199999966" lon="-1.2378940000000032">
        <ele>725.834</ele>
        <time>2022-08-24T07:40:21Z</time>
      </trkpt>
      <trkpt lat="43.11666099999966" lon="-1.2378860000000032">
        <ele>726.066</ele>
        <time>2022-08-24T07:40:22Z</time>
      </trkpt>
      <trkpt lat="43.11664099999966" lon="-1.2378780000000031">
        <ele>726.213</ele>
        <time>2022-08-24T07:40:23Z</time>
      </trkpt>
      <trkpt lat="43.11662599999966" lon="-1.237868000000003">
        <ele>726.466</ele>
        <time>2022-08-24T07:40:24Z</time>
      </trkpt>
      <trkpt lat="43.11661299999966" lon="-1.237860000000003">
        <ele>726.670</ele>
        <time>2022-08-24T07:40:25Z</time>
      </trkpt>
      <trkpt lat="43.11660099999966" lon="-1.2378540000000031">
        <ele>726.629</ele>
        <time>2022-08-24T07:40:26Z</time>
      </trkpt>
      <trkpt lat="43.116593999999665" lon="-1.2378450000000032">
        <ele>727.083</ele>
        <time>2022-08-24T07:40:27Z</time>
      </trkpt>
      <trkpt lat="43.11657899999967" lon="-1.2378410000000033">
        <ele>727.225</ele>
        <time>2022-08-24T07:40:28Z</time>
      </trkpt>
      <trkpt lat="43.11655899999967" lon="-1.2378380000000033">
        <ele>727.417</ele>
        <time>2022-08-24T07:40:29Z</time>
      </trkpt>
      <trkpt lat="43.11654499999967" lon="-1.2378330000000033">
        <ele>727.609</ele>
        <time>2022-08-24T07:40:30Z</time>
      </trkpt>
      <trkpt lat="43.11652799999967" lon="-1.2378270000000033">
        <ele>727.839</ele>
        <time>2022-08-24T07:40:31Z</time>
      </trkpt>
      <trkpt lat="43.116511999999666" lon="-1.2378260000000034">
        <ele>728.089</ele>
        <time>2022-08-24T07:40:32Z</time>
      </trkpt>
      <trkpt lat="43.11649199999967" lon="-1.2378210000000034">
        <ele>728.089</ele>
        <time>2022-08-24T07:40:33Z</time>
      </trkpt>
      <trkpt lat="43.11648299999967" lon="-1.2378130000000034">
        <ele>728.235</ele>
        <time>2022-08-24T07:40:34Z</time>
      </trkpt>
      <trkpt lat="43.11647399999967" lon="-1.2378110000000033">
        <ele>728.667</ele>
        <time>2022-08-24T07:40:35Z</time>
      </trkpt>
      <trkpt lat="43.11646499999967" lon="-1.2378110000000033">
        <ele>728.884</ele>
        <time>2022-08-24T07:40:36Z</time>
      </trkpt>
      <trkpt lat="43.11645499999967" lon="-1.2378080000000034">
        <ele>729.067</ele>
        <time>2022-08-24T07:40:37Z</time>
      </trkpt>
      <trkpt lat="43.11644399999967" lon="-1.2378040000000035">
        <ele>729.291</ele>
        <time>2022-08-24T07:40:38Z</time>
      </trkpt>
      <trkpt lat="43.11642299999967" lon="-1.2378060000000035">
        <ele>729.440</ele>
        <time>2022-08-24T07:40:39Z</time>
      </trkpt>
      <trkpt lat="43.11641199999967" lon="-1.2378030000000035">
        <ele>729.695</ele>
        <time>2022-08-24T07:40:40Z</time>
      </trkpt>
      <trkpt lat="43.11640499999967" lon="-1.2378000000000036">
        <ele>729.849</ele>
        <time>2022-08-24T07:40:41Z</time>
      </trkpt>
      <trkpt lat="43.116387999999674" lon="-1.2377940000000036">
        <ele>730.223</ele>
        <time>2022-08-24T07:40:42Z</time>
      </trkpt>
      <trkpt lat="43.116375999999676" lon="-1.2377900000000037">
        <ele>730.209</ele>
        <time>2022-08-24T07:40:43Z</time>
      </trkpt>
      <trkpt lat="43.116364999999675" lon="-1.2377860000000038">
        <ele>730.490</ele>
        <time>2022-08-24T07:40:44Z</time>
      </trkpt>
      <trkpt lat="43.116353999999674" lon="-1.2377780000000038">
        <ele>730.480</ele>
        <time>2022-08-24T07:40:45Z</time>
      </trkpt>
      <trkpt lat="43.116344999999676" lon="-1.2377720000000039">
        <ele>730.640</ele>
        <time>2022-08-24T07:40:46Z</time>
      </trkpt>
      <trkpt lat="43.116333999999675" lon="-1.2377670000000038">
        <ele>730.886</ele>
        <time>2022-08-24T07:40:47Z</time>
      </trkpt>
      <trkpt lat="43.116322999999674" lon="-1.2377610000000039">
        <ele>731.278</ele>
        <time>2022-08-24T07:40:48Z</time>
      </trkpt>
      <trkpt lat="43.116311999999674" lon="-1.237750000000004">
        <ele>731.655</ele>
        <time>2022-08-24T07:40:49Z</time>
      </trkpt>
      <trkpt lat="43.11630099999967" lon="-1.2377430000000038">
        <ele>731.818</ele>
        <time>2022-08-24T07:40:50Z</time>
      </trkpt>
      <trkpt lat="43.116294999999674" lon="-1.237742000000004">
        <ele>732.052</ele>
        <time>2022-08-24T07:40:51Z</time>
      </trkpt>
      <trkpt lat="43.116285999999675" lon="-1.2377400000000038">
        <ele>732.221</ele>
        <time>2022-08-24T07:40:52Z</time>
      </trkpt>
      <trkpt lat="43.116271999999675" lon="-1.2377370000000039">
        <ele>732.618</ele>
        <time>2022-08-24T07:40:53Z</time>
      </trkpt>
      <trkpt lat="43.116251999999676" lon="-1.2377340000000039">
        <ele>732.898</ele>
        <time>2022-08-24T07:40:54Z</time>
      </trkpt>
      <trkpt lat="43.11623699999968" lon="-1.2377290000000039">
        <ele>733.017</ele>
        <time>2022-08-24T07:40:55Z</time>
      </trkpt>
      <trkpt lat="43.11622599999968" lon="-1.2377190000000038">
        <ele>733.409</ele>
        <time>2022-08-24T07:40:56Z</time>
      </trkpt>
      <trkpt lat="43.116212999999675" lon="-1.2377160000000038">
        <ele>733.432</ele>
        <time>2022-08-24T07:40:57Z</time>
      </trkpt>
      <trkpt lat="43.116195999999675" lon="-1.2377100000000039">
        <ele>733.842</ele>
        <time>2022-08-24T07:40:58Z</time>
      </trkpt>
      <trkpt lat="43.116181999999675" lon="-1.2377080000000038">
        <ele>733.852</ele>
        <time>2022-08-24T07:40:59Z</time>
      </trkpt>
      <trkpt lat="43.11616999999968" lon="-1.2377030000000038">
        <ele>734.288</ele>
        <time>2022-08-24T07:41:00Z</time>
      </trkpt>
      <trkpt lat="43.11615799999968" lon="-1.2376940000000038">
        <ele>734.290</ele>
        <time>2022-08-24T07:41:01Z</time>
      </trkpt>
      <trkpt lat="43.11614699999968" lon="-1.237690000000004">
        <ele>734.297</ele>
        <time>2022-08-24T07:41:02Z</time>
      </trkpt>
      <trkpt lat="43.11613499999968" lon="-1.237679000000004">
        <ele>734.650</ele>
        <time>2022-08-24T07:41:03Z</time>
      </trkpt>
      <trkpt lat="43.11612599999968" lon="-1.237676000000004">
        <ele>734.654</ele>
        <time>2022-08-24T07:41:04Z</time>
      </trkpt>
      <trkpt lat="43.11611399999968" lon="-1.237671000000004">
        <ele>734.893</ele>
        <time>2022-08-24T07:41:05Z</time>
      </trkpt>
      <trkpt lat="43.11610299999968" lon="-1.237661000000004">
        <ele>735.092</ele>
        <time>2022-08-24T07:41:06Z</time>
      </trkpt>
      <trkpt lat="43.11609299999968" lon="-1.2376560000000039">
        <ele>735.273</ele>
        <time>2022-08-24T07:41:07Z</time>
      </trkpt>
      <trkpt lat="43.11607999999968" lon="-1.237652000000004">
        <ele>735.220</ele>
        <time>2022-08-24T07:41:08Z</time>
      </trkpt>
      <trkpt lat="43.116068999999676" lon="-1.237650000000004">
        <ele>735.409</ele>
        <time>2022-08-24T07:41:09Z</time>
      </trkpt>
      <trkpt lat="43.11606199999968" lon="-1.237652000000004">
        <ele>735.820</ele>
        <time>2022-08-24T07:41:10Z</time>
      </trkpt>
      <trkpt lat="43.11605399999968" lon="-1.237660000000004">
        <ele>736.060</ele>
        <time>2022-08-24T07:41:11Z</time>
      </trkpt>
      <trkpt lat="43.116043999999675" lon="-1.237662000000004">
        <ele>736.250</ele>
        <time>2022-08-24T07:41:12Z</time>
      </trkpt>
      <trkpt lat="43.11603499999968" lon="-1.237665000000004">
        <ele>736.256</ele>
        <time>2022-08-24T07:41:13Z</time>
      </trkpt>
      <trkpt lat="43.116024999999674" lon="-1.237670000000004">
        <ele>736.448</ele>
        <time>2022-08-24T07:41:14Z</time>
      </trkpt>
      <trkpt lat="43.11601499999967" lon="-1.237670000000004">
        <ele>736.665</ele>
        <time>2022-08-24T07:41:15Z</time>
      </trkpt>
      <trkpt lat="43.11600699999967" lon="-1.2376660000000042">
        <ele>736.888</ele>
        <time>2022-08-24T07:41:16Z</time>
      </trkpt>
      <trkpt lat="43.11599899999967" lon="-1.2376630000000042">
        <ele>737.072</ele>
        <time>2022-08-24T07:41:17Z</time>
      </trkpt>
      <trkpt lat="43.11599099999967" lon="-1.2376600000000042">
        <ele>737.021</ele>
        <time>2022-08-24T07:41:18Z</time>
      </trkpt>
      <trkpt lat="43.11597899999967" lon="-1.2376580000000041">
        <ele>737.258</ele>
        <time>2022-08-24T07:41:19Z</time>
      </trkpt>
      <trkpt lat="43.11596999999967" lon="-1.2376610000000041">
        <ele>737.252</ele>
        <time>2022-08-24T07:41:20Z</time>
      </trkpt>
      <trkpt lat="43.11596099999967" lon="-1.237664000000004">
        <ele>737.417</ele>
        <time>2022-08-24T07:41:21Z</time>
      </trkpt>
      <trkpt lat="43.11595199999967" lon="-1.237659000000004">
        <ele>737.409</ele>
        <time>2022-08-24T07:41:22Z</time>
      </trkpt>
      <trkpt lat="43.115939999999675" lon="-1.237653000000004">
        <ele>737.656</ele>
        <time>2022-08-24T07:41:23Z</time>
      </trkpt>
      <trkpt lat="43.11592999999967" lon="-1.237643000000004">
        <ele>737.826</ele>
        <time>2022-08-24T07:41:24Z</time>
      </trkpt>
      <trkpt lat="43.11591999999967" lon="-1.237635000000004">
        <ele>738.026</ele>
        <time>2022-08-24T07:41:25Z</time>
      </trkpt>
      <trkpt lat="43.11591199999967" lon="-1.237633000000004">
        <ele>738.072</ele>
        <time>2022-08-24T07:41:26Z</time>
      </trkpt>
      <trkpt lat="43.11590399999967" lon="-1.237630000000004">
        <ele>738.264</ele>
        <time>2022-08-24T07:41:27Z</time>
      </trkpt>
      <trkpt lat="43.115895999999665" lon="-1.237631000000004">
        <ele>738.461</ele>
        <time>2022-08-24T07:41:28Z</time>
      </trkpt>
      <trkpt lat="43.11588699999967" lon="-1.2376290000000039">
        <ele>738.434</ele>
        <time>2022-08-24T07:41:29Z</time>
      </trkpt>
      <trkpt lat="43.115876999999664" lon="-1.237628000000004">
        <ele>738.638</ele>
        <time>2022-08-24T07:41:30Z</time>
      </trkpt>
      <trkpt lat="43.11586699999966" lon="-1.237628000000004">
        <ele>738.827</ele>
        <time>2022-08-24T07:41:31Z</time>
      </trkpt>
      <trkpt lat="43.11585699999966" lon="-1.237631000000004">
        <ele>739.068</ele>
        <time>2022-08-24T07:41:32Z</time>
      </trkpt>
      <trkpt lat="43.115846999999654" lon="-1.2376290000000039">
        <ele>739.242</ele>
        <time>2022-08-24T07:41:33Z</time>
      </trkpt>
      <trkpt lat="43.11583599999965" lon="-1.237625000000004">
        <ele>739.426</ele>
        <time>2022-08-24T07:41:34Z</time>
      </trkpt>
      <trkpt lat="43.11582299999965" lon="-1.237615000000004">
        <ele>739.609</ele>
        <time>2022-08-24T07:41:35Z</time>
      </trkpt>
      <trkpt lat="43.11581099999965" lon="-1.237615000000004">
        <ele>739.637</ele>
        <time>2022-08-24T07:41:36Z</time>
      </trkpt>
      <trkpt lat="43.11579999999965" lon="-1.237615000000004">
        <ele>739.847</ele>
        <time>2022-08-24T07:41:37Z</time>
      </trkpt>
      <trkpt lat="43.11578899999965" lon="-1.2376190000000038">
        <ele>740.077</ele>
        <time>2022-08-24T07:41:38Z</time>
      </trkpt>
      <trkpt lat="43.11577599999965" lon="-1.2376220000000038">
        <ele>740.233</ele>
        <time>2022-08-24T07:41:39Z</time>
      </trkpt>
      <trkpt lat="43.11576399999965" lon="-1.2376240000000038">
        <ele>740.245</ele>
        <time>2022-08-24T07:41:40Z</time>
      </trkpt>
      <trkpt lat="43.11574999999965" lon="-1.2376240000000038">
        <ele>740.452</ele>
        <time>2022-08-24T07:41:41Z</time>
      </trkpt>
      <trkpt lat="43.11573799999965" lon="-1.2376220000000038">
        <ele>740.665</ele>
        <time>2022-08-24T07:41:42Z</time>
      </trkpt>
      <trkpt lat="43.11572499999965" lon="-1.2376180000000039">
        <ele>740.889</ele>
        <time>2022-08-24T07:41:43Z</time>
      </trkpt>
      <trkpt lat="43.11571199999965" lon="-1.237615000000004">
        <ele>740.868</ele>
        <time>2022-08-24T07:41:44Z</time>
      </trkpt>
      <trkpt lat="43.115698999999644" lon="-1.237612000000004">
        <ele>741.267</ele>
        <time>2022-08-24T07:41:45Z</time>
      </trkpt>
      <trkpt lat="43.11568799999964" lon="-1.237606000000004">
        <ele>741.481</ele>
        <time>2022-08-24T07:41:46Z</time>
      </trkpt>
      <trkpt lat="43.115675999999645" lon="-1.237601000000004">
        <ele>741.619</ele>
        <time>2022-08-24T07:41:47Z</time>
      </trkpt>
      <trkpt lat="43.11566299999964" lon="-1.237597000000004">
        <ele>741.809</ele>
        <time>2022-08-24T07:41:48Z</time>
      </trkpt>
      <trkpt lat="43.11564899999964" lon="-1.237595000000004">
        <ele>742.017</ele>
        <time>2022-08-24T07:41:49Z</time>
      </trkpt>
      <trkpt lat="43.115636999999644" lon="-1.237598000000004">
        <ele>742.217</ele>
        <time>2022-08-24T07:41:50Z</time>
      </trkpt>
      <trkpt lat="43.115624999999646" lon="-1.237601000000004">
        <ele>742.487</ele>
        <time>2022-08-24T07:41:51Z</time>
      </trkpt>
      <trkpt lat="43.115613999999646" lon="-1.237604000000004">
        <ele>742.893</ele>
        <time>2022-08-24T07:41:52Z</time>
      </trkpt>
      <trkpt lat="43.115599999999645" lon="-1.2376080000000038">
        <ele>743.045</ele>
        <time>2022-08-24T07:41:53Z</time>
      </trkpt>
      <trkpt lat="43.11558799999965" lon="-1.2376110000000038">
        <ele>743.432</ele>
        <time>2022-08-24T07:41:54Z</time>
      </trkpt>
      <trkpt lat="43.11557599999965" lon="-1.2376140000000038">
        <ele>743.485</ele>
        <time>2022-08-24T07:41:55Z</time>
      </trkpt>
      <trkpt lat="43.11556399999965" lon="-1.2376100000000039">
        <ele>743.679</ele>
        <time>2022-08-24T07:41:56Z</time>
      </trkpt>
      <trkpt lat="43.11554999999965" lon="-1.2376050000000038">
        <ele>743.638</ele>
        <time>2022-08-24T07:41:57Z</time>
      </trkpt>
      <trkpt lat="43.11553499999965" lon="-1.2376000000000038">
        <ele>743.847</ele>
        <time>2022-08-24T07:41:58Z</time>
      </trkpt>
      <trkpt lat="43.11552199999965" lon="-1.2375930000000037">
        <ele>743.829</ele>
        <time>2022-08-24T07:41:59Z</time>
      </trkpt>
      <trkpt lat="43.11550499999965" lon="-1.2375820000000037">
        <ele>744.021</ele>
        <time>2022-08-24T07:42:00Z</time>
      </trkpt>
      <trkpt lat="43.11549499999965" lon="-1.2375770000000037">
        <ele>744.209</ele>
        <time>2022-08-24T07:42:01Z</time>
      </trkpt>
      <trkpt lat="43.11548399999965" lon="-1.2375720000000037">
        <ele>744.685</ele>
        <time>2022-08-24T07:42:02Z</time>
      </trkpt>
      <trkpt lat="43.115473999999644" lon="-1.2375690000000037">
        <ele>744.865</ele>
        <time>2022-08-24T07:42:03Z</time>
      </trkpt>
      <trkpt lat="43.115464999999645" lon="-1.2375650000000038">
        <ele>744.835</ele>
        <time>2022-08-24T07:42:04Z</time>
      </trkpt>
      <trkpt lat="43.11544999999965" lon="-1.2375620000000038">
        <ele>745.271</ele>
        <time>2022-08-24T07:42:05Z</time>
      </trkpt>
      <trkpt lat="43.11543499999965" lon="-1.2375620000000038">
        <ele>745.463</ele>
        <time>2022-08-24T07:42:06Z</time>
      </trkpt>
      <trkpt lat="43.11542199999965" lon="-1.2375620000000038">
        <ele>745.670</ele>
        <time>2022-08-24T07:42:07Z</time>
      </trkpt>
      <trkpt lat="43.11540799999965" lon="-1.2375620000000038">
        <ele>745.823</ele>
        <time>2022-08-24T07:42:08Z</time>
      </trkpt>
      <trkpt lat="43.115397999999644" lon="-1.237561000000004">
        <ele>746.067</ele>
        <time>2022-08-24T07:42:09Z</time>
      </trkpt>
      <trkpt lat="43.11538499999964" lon="-1.2375590000000039">
        <ele>746.266</ele>
        <time>2022-08-24T07:42:10Z</time>
      </trkpt>
      <trkpt lat="43.11537499999964" lon="-1.237561000000004">
        <ele>746.238</ele>
        <time>2022-08-24T07:42:11Z</time>
      </trkpt>
      <trkpt lat="43.11536599999964" lon="-1.2375620000000038">
        <ele>746.470</ele>
        <time>2022-08-24T07:42:12Z</time>
      </trkpt>
      <trkpt lat="43.11535899999964" lon="-1.2375640000000039">
        <ele>746.817</ele>
        <time>2022-08-24T07:42:13Z</time>
      </trkpt>
      <trkpt lat="43.11534799999964" lon="-1.2375650000000038">
        <ele>747.009</ele>
        <time>2022-08-24T07:42:14Z</time>
      </trkpt>
      <trkpt lat="43.115335999999644" lon="-1.2375670000000039">
        <ele>747.274</ele>
        <time>2022-08-24T07:42:15Z</time>
      </trkpt>
      <trkpt lat="43.11532299999964" lon="-1.2375650000000038">
        <ele>747.454</ele>
        <time>2022-08-24T07:42:16Z</time>
      </trkpt>
      <trkpt lat="43.11531199999964" lon="-1.2375680000000038">
        <ele>747.644</ele>
        <time>2022-08-24T07:42:17Z</time>
      </trkpt>
      <trkpt lat="43.11531199999964" lon="-1.2375680000000038">
        <ele>747.860</ele>
        <time>2022-08-24T07:42:18Z</time>
      </trkpt>
      <trkpt lat="43.11528999999964" lon="-1.2375670000000039">
        <ele>747.872</ele>
        <time>2022-08-24T07:42:19Z</time>
      </trkpt>
      <trkpt lat="43.11527799999964" lon="-1.2375670000000039">
        <ele>747.839</ele>
        <time>2022-08-24T07:42:20Z</time>
      </trkpt>
      <trkpt lat="43.11526399999964" lon="-1.237566000000004">
        <ele>748.042</ele>
        <time>2022-08-24T07:42:21Z</time>
      </trkpt>
      <trkpt lat="43.11525199999964" lon="-1.2375640000000039">
        <ele>748.256</ele>
        <time>2022-08-24T07:42:22Z</time>
      </trkpt>
      <trkpt lat="43.115239999999645" lon="-1.237561000000004">
        <ele>748.415</ele>
        <time>2022-08-24T07:42:23Z</time>
      </trkpt>
      <trkpt lat="43.11522999999964" lon="-1.2375560000000039">
        <ele>748.657</ele>
        <time>2022-08-24T07:42:24Z</time>
      </trkpt>
      <trkpt lat="43.11521999999964" lon="-1.2375540000000038">
        <ele>748.800</ele>
        <time>2022-08-24T07:42:25Z</time>
      </trkpt>
      <trkpt lat="43.11521099999964" lon="-1.2375550000000037">
        <ele>749.220</ele>
        <time>2022-08-24T07:42:26Z</time>
      </trkpt>
      <trkpt lat="43.11519999999964" lon="-1.2375550000000037">
        <ele>749.409</ele>
        <time>2022-08-24T07:42:27Z</time>
      </trkpt>
      <trkpt lat="43.11519999999964" lon="-1.2375550000000037">
        <ele>749.616</ele>
        <time>2022-08-24T07:42:28Z</time>
      </trkpt>
      <trkpt lat="43.11518099999964" lon="-1.2375510000000038">
        <ele>749.836</ele>
        <time>2022-08-24T07:42:29Z</time>
      </trkpt>
      <trkpt lat="43.115170999999634" lon="-1.2375510000000038">
        <ele>750.026</ele>
        <time>2022-08-24T07:42:30Z</time>
      </trkpt>
      <trkpt lat="43.115156999999634" lon="-1.2375510000000038">
        <ele>750.242</ele>
        <time>2022-08-24T07:42:31Z</time>
      </trkpt>
      <trkpt lat="43.115156999999634" lon="-1.2375510000000038">
        <ele>750.444</ele>
        <time>2022-08-24T07:42:32Z</time>
      </trkpt>
      <trkpt lat="43.115133999999635" lon="-1.2375480000000039">
        <ele>750.461</ele>
        <time>2022-08-24T07:42:33Z</time>
      </trkpt>
      <trkpt lat="43.115122999999635" lon="-1.237550000000004">
        <ele>750.664</ele>
        <time>2022-08-24T07:42:34Z</time>
      </trkpt>
      <trkpt lat="43.115111999999634" lon="-1.2375540000000038">
        <ele>750.868</ele>
        <time>2022-08-24T07:42:35Z</time>
      </trkpt>
      <trkpt lat="43.115099999999636" lon="-1.2375560000000039">
        <ele>751.087</ele>
        <time>2022-08-24T07:42:36Z</time>
      </trkpt>
      <trkpt lat="43.11508799999964" lon="-1.237558000000004">
        <ele>751.056</ele>
        <time>2022-08-24T07:42:37Z</time>
      </trkpt>
      <trkpt lat="43.11508799999964" lon="-1.237558000000004">
        <ele>751.459</ele>
        <time>2022-08-24T07:42:38Z</time>
      </trkpt>
      <trkpt lat="43.11506799999964" lon="-1.2375640000000039">
        <ele>751.414</ele>
        <time>2022-08-24T07:42:39Z</time>
      </trkpt>
      <trkpt lat="43.11505399999964" lon="-1.2375680000000038">
        <ele>751.809</ele>
        <time>2022-08-24T07:42:40Z</time>
      </trkpt>
      <trkpt lat="43.115043999999635" lon="-1.2375710000000038">
        <ele>752.266</ele>
        <time>2022-08-24T07:42:41Z</time>
      </trkpt>
      <trkpt lat="43.115032999999634" lon="-1.2375760000000038">
        <ele>752.226</ele>
        <time>2022-08-24T07:42:42Z</time>
      </trkpt>
      <trkpt lat="43.115021999999634" lon="-1.2375760000000038">
        <ele>752.416</ele>
        <time>2022-08-24T07:42:43Z</time>
      </trkpt>
      <trkpt lat="43.115012999999635" lon="-1.2375740000000037">
        <ele>752.682</ele>
        <time>2022-08-24T07:42:44Z</time>
      </trkpt>
      <trkpt lat="43.115001999999635" lon="-1.2375730000000038">
        <ele>752.824</ele>
        <time>2022-08-24T07:42:45Z</time>
      </trkpt>
      <trkpt lat="43.11498599999963" lon="-1.237572000000004">
        <ele>753.071</ele>
        <time>2022-08-24T07:42:46Z</time>
      </trkpt>
      <trkpt lat="43.11497199999963" lon="-1.2375750000000039">
        <ele>753.264</ele>
        <time>2022-08-24T07:42:47Z</time>
      </trkpt>
      <trkpt lat="43.11495899999963" lon="-1.2375760000000038">
        <ele>753.448</ele>
        <time>2022-08-24T07:42:48Z</time>
      </trkpt>
      <trkpt lat="43.11495899999963" lon="-1.2375760000000038">
        <ele>753.657</ele>
        <time>2022-08-24T07:42:49Z</time>
      </trkpt>
      <trkpt lat="43.11493099999963" lon="-1.2375750000000039">
        <ele>754.034</ele>
        <time>2022-08-24T07:42:50Z</time>
      </trkpt>
      <trkpt lat="43.114920999999626" lon="-1.2375790000000038">
        <ele>754.055</ele>
        <time>2022-08-24T07:42:51Z</time>
      </trkpt>
      <trkpt lat="43.114906999999626" lon="-1.2375800000000037">
        <ele>754.010</ele>
        <time>2022-08-24T07:42:52Z</time>
      </trkpt>
      <trkpt lat="43.114892999999626" lon="-1.2375800000000037">
        <ele>754.409</ele>
        <time>2022-08-24T07:42:53Z</time>
      </trkpt>
      <trkpt lat="43.114878999999625" lon="-1.2375790000000038">
        <ele>754.834</ele>
        <time>2022-08-24T07:42:54Z</time>
      </trkpt>
      <trkpt lat="43.114864999999625" lon="-1.2375800000000037">
        <ele>755.074</ele>
        <time>2022-08-24T07:42:55Z</time>
      </trkpt>
      <trkpt lat="43.114864999999625" lon="-1.2375800000000037">
        <ele>755.244</ele>
        <time>2022-08-24T07:42:56Z</time>
      </trkpt>
      <trkpt lat="43.11483799999962" lon="-1.2375800000000037">
        <ele>755.450</ele>
        <time>2022-08-24T07:42:57Z</time>
      </trkpt>
      <trkpt lat="43.11482699999962" lon="-1.2375820000000037">
        <ele>755.412</ele>
        <time>2022-08-24T07:42:58Z</time>
      </trkpt>
      <trkpt lat="43.11481499999962" lon="-1.2375880000000037">
        <ele>755.829</ele>
        <time>2022-08-24T07:42:59Z</time>
      </trkpt>
      <trkpt lat="43.11480199999962" lon="-1.2375930000000037">
        <ele>756.082</ele>
        <time>2022-08-24T07:43:00Z</time>
      </trkpt>
      <trkpt lat="43.11479099999962" lon="-1.2375970000000036">
        <ele>756.066</ele>
        <time>2022-08-24T07:43:01Z</time>
      </trkpt>
      <trkpt lat="43.11477899999962" lon="-1.2376000000000036">
        <ele>756.285</ele>
        <time>2022-08-24T07:43:02Z</time>
      </trkpt>
      <trkpt lat="43.114766999999624" lon="-1.2376050000000036">
        <ele>756.433</ele>
        <time>2022-08-24T07:43:03Z</time>
      </trkpt>
      <trkpt lat="43.11475399999962" lon="-1.2376070000000037">
        <ele>756.423</ele>
        <time>2022-08-24T07:43:04Z</time>
      </trkpt>
      <trkpt lat="43.114738999999624" lon="-1.2376080000000036">
        <ele>756.615</ele>
        <time>2022-08-24T07:43:05Z</time>
      </trkpt>
      <trkpt lat="43.11472499999962" lon="-1.2376100000000037">
        <ele>756.809</ele>
        <time>2022-08-24T07:43:06Z</time>
      </trkpt>
      <trkpt lat="43.11471199999962" lon="-1.2376160000000036">
        <ele>757.044</ele>
        <time>2022-08-24T07:43:07Z</time>
      </trkpt>
      <trkpt lat="43.11469899999962" lon="-1.2376160000000036">
        <ele>757.264</ele>
        <time>2022-08-24T07:43:08Z</time>
      </trkpt>
      <trkpt lat="43.114682999999616" lon="-1.2376160000000036">
        <ele>757.284</ele>
        <time>2022-08-24T07:43:09Z</time>
      </trkpt>
      <trkpt lat="43.114668999999616" lon="-1.2376160000000036">
        <ele>757.430</ele>
        <time>2022-08-24T07:43:10Z</time>
      </trkpt>
      <trkpt lat="43.11465399999962" lon="-1.2376150000000037">
        <ele>757.462</ele>
        <time>2022-08-24T07:43:11Z</time>
      </trkpt>
      <trkpt lat="43.114640999999615" lon="-1.2376140000000038">
        <ele>757.639</ele>
        <time>2022-08-24T07:43:12Z</time>
      </trkpt>
      <trkpt lat="43.11462899999962" lon="-1.2376160000000038">
        <ele>757.862</ele>
        <time>2022-08-24T07:43:13Z</time>
      </trkpt>
      <trkpt lat="43.11461699999962" lon="-1.2376180000000039">
        <ele>757.866</ele>
        <time>2022-08-24T07:43:14Z</time>
      </trkpt>
      <trkpt lat="43.11460599999962" lon="-1.237620000000004">
        <ele>758.035</ele>
        <time>2022-08-24T07:43:15Z</time>
      </trkpt>
      <trkpt lat="43.114595999999615" lon="-1.237623000000004">
        <ele>758.267</ele>
        <time>2022-08-24T07:43:16Z</time>
      </trkpt>
      <trkpt lat="43.114460999999615" lon="-1.2376320000000038">
        <ele>761.481</ele>
        <time>2022-08-24T07:57:29Z</time>
      </trkpt>
      <trkpt lat="43.114429999999615" lon="-1.237655000000004">
        <ele>761.619</ele>
        <time>2022-08-24T07:57:31Z</time>
      </trkpt>
      <trkpt lat="43.114418999999614" lon="-1.2376670000000038">
        <ele>761.609</ele>
        <time>2022-08-24T07:57:32Z</time>
      </trkpt>
      <trkpt lat="43.114404999999614" lon="-1.2376730000000038">
        <ele>761.887</ele>
        <time>2022-08-24T07:57:33Z</time>
      </trkpt>
      <trkpt lat="43.114392999999616" lon="-1.2376800000000039">
        <ele>762.057</ele>
        <time>2022-08-24T07:57:34Z</time>
      </trkpt>
      <trkpt lat="43.11437499999962" lon="-1.2376800000000039">
        <ele>762.287</ele>
        <time>2022-08-24T07:57:35Z</time>
      </trkpt>
      <trkpt lat="43.11436099999962" lon="-1.237682000000004">
        <ele>762.693</ele>
        <time>2022-08-24T07:57:36Z</time>
      </trkpt>
      <trkpt lat="43.11434599999962" lon="-1.237681000000004">
        <ele>762.875</ele>
        <time>2022-08-24T07:57:37Z</time>
      </trkpt>
      <trkpt lat="43.11431199999962" lon="-1.237676000000004">
        <ele>763.492</ele>
        <time>2022-08-24T07:57:39Z</time>
      </trkpt>
      <trkpt lat="43.11428499999962" lon="-1.237677000000004">
        <ele>763.845</ele>
        <time>2022-08-24T07:57:41Z</time>
      </trkpt>
      <trkpt lat="43.11426799999962" lon="-1.237679000000004">
        <ele>764.079</ele>
        <time>2022-08-24T07:57:42Z</time>
      </trkpt>
      <trkpt lat="43.114254999999616" lon="-1.2376800000000039">
        <ele>764.258</ele>
        <time>2022-08-24T07:57:43Z</time>
      </trkpt>
      <trkpt lat="43.11423999999962" lon="-1.2376800000000039">
        <ele>764.443</ele>
        <time>2022-08-24T07:57:44Z</time>
      </trkpt>
      <trkpt lat="43.11422799999962" lon="-1.237676000000004">
        <ele>764.464</ele>
        <time>2022-08-24T07:57:45Z</time>
      </trkpt>
      <trkpt lat="43.11421899999962" lon="-1.237671000000004">
        <ele>764.610</ele>
        <time>2022-08-24T07:57:46Z</time>
      </trkpt>
      <trkpt lat="43.114206999999624" lon="-1.237666000000004">
        <ele>764.609</ele>
        <time>2022-08-24T07:57:47Z</time>
      </trkpt>
      <trkpt lat="43.114194999999626" lon="-1.237661000000004">
        <ele>764.815</ele>
        <time>2022-08-24T07:57:48Z</time>
      </trkpt>
      <trkpt lat="43.11418499999962" lon="-1.237657000000004">
        <ele>765.075</ele>
        <time>2022-08-24T07:57:49Z</time>
      </trkpt>
      <trkpt lat="43.114175999999624" lon="-1.237658000000004">
        <ele>765.265</ele>
        <time>2022-08-24T07:57:50Z</time>
      </trkpt>
      <trkpt lat="43.11416499999962" lon="-1.237661000000004">
        <ele>765.681</ele>
        <time>2022-08-24T07:57:51Z</time>
      </trkpt>
      <trkpt lat="43.11415399999962" lon="-1.2376620000000038">
        <ele>765.623</ele>
        <time>2022-08-24T07:57:52Z</time>
      </trkpt>
      <trkpt lat="43.11413999999962" lon="-1.2376600000000038">
        <ele>766.060</ele>
        <time>2022-08-24T07:57:53Z</time>
      </trkpt>
      <trkpt lat="43.11413199999962" lon="-1.2376580000000037">
        <ele>766.043</ele>
        <time>2022-08-24T07:57:54Z</time>
      </trkpt>
      <trkpt lat="43.11412199999962" lon="-1.2376550000000037">
        <ele>766.257</ele>
        <time>2022-08-24T07:57:55Z</time>
      </trkpt>
      <trkpt lat="43.114111999999615" lon="-1.2376510000000038">
        <ele>766.486</ele>
        <time>2022-08-24T07:57:56Z</time>
      </trkpt>
      <trkpt lat="43.114097999999615" lon="-1.2376440000000037">
        <ele>766.613</ele>
        <time>2022-08-24T07:57:57Z</time>
      </trkpt>
      <trkpt lat="43.11408499999961" lon="-1.2376400000000038">
        <ele>766.643</ele>
        <time>2022-08-24T07:57:58Z</time>
      </trkpt>
      <trkpt lat="43.11407199999961" lon="-1.2376370000000039">
        <ele>766.807</ele>
        <time>2022-08-24T07:57:59Z</time>
      </trkpt>
      <trkpt lat="43.11405999999961" lon="-1.2376300000000038">
        <ele>767.009</ele>
        <time>2022-08-24T07:58:00Z</time>
      </trkpt>
      <trkpt lat="43.11404799999961" lon="-1.2376230000000037">
        <ele>767.062</ele>
        <time>2022-08-24T07:58:01Z</time>
      </trkpt>
      <trkpt lat="43.11403699999961" lon="-1.2376200000000037">
        <ele>767.272</ele>
        <time>2022-08-24T07:58:02Z</time>
      </trkpt>
      <trkpt lat="43.11402399999961" lon="-1.2376190000000038">
        <ele>767.482</ele>
        <time>2022-08-24T07:58:03Z</time>
      </trkpt>
      <trkpt lat="43.11400999999961" lon="-1.2376180000000039">
        <ele>767.698</ele>
        <time>2022-08-24T07:58:04Z</time>
      </trkpt>
      <trkpt lat="43.11399699999961" lon="-1.2376160000000038">
        <ele>767.650</ele>
        <time>2022-08-24T07:58:05Z</time>
      </trkpt>
      <trkpt lat="43.11398299999961" lon="-1.2376130000000038">
        <ele>767.877</ele>
        <time>2022-08-24T07:58:06Z</time>
      </trkpt>
      <trkpt lat="43.113971999999606" lon="-1.2376100000000039">
        <ele>768.080</ele>
        <time>2022-08-24T07:58:07Z</time>
      </trkpt>
      <trkpt lat="43.113960999999605" lon="-1.2376050000000038">
        <ele>768.244</ele>
        <time>2022-08-24T07:58:08Z</time>
      </trkpt>
      <trkpt lat="43.11394899999961" lon="-1.237599000000004">
        <ele>768.463</ele>
        <time>2022-08-24T07:58:09Z</time>
      </trkpt>
      <trkpt lat="43.11393999999961" lon="-1.2375910000000039">
        <ele>768.631</ele>
        <time>2022-08-24T07:58:10Z</time>
      </trkpt>
      <trkpt lat="43.11392799999961" lon="-1.2375860000000038">
        <ele>768.861</ele>
        <time>2022-08-24T07:58:11Z</time>
      </trkpt>
      <trkpt lat="43.11391699999961" lon="-1.2375840000000038">
        <ele>769.007</ele>
        <time>2022-08-24T07:58:12Z</time>
      </trkpt>
      <trkpt lat="43.11390599999961" lon="-1.2375830000000039">
        <ele>769.209</ele>
        <time>2022-08-24T07:58:13Z</time>
      </trkpt>
      <trkpt lat="43.11389499999961" lon="-1.2375840000000038">
        <ele>769.264</ele>
        <time>2022-08-24T07:58:14Z</time>
      </trkpt>
      <trkpt lat="43.11388399999961" lon="-1.2375820000000037">
        <ele>769.474</ele>
        <time>2022-08-24T07:58:15Z</time>
      </trkpt>
      <trkpt lat="43.113870999999605" lon="-1.2375770000000037">
        <ele>769.644</ele>
        <time>2022-08-24T07:58:16Z</time>
      </trkpt>
      <trkpt lat="43.113856999999605" lon="-1.2375710000000038">
        <ele>770.070</ele>
        <time>2022-08-24T07:58:17Z</time>
      </trkpt>
      <trkpt lat="43.1138439999996" lon="-1.2375660000000037">
        <ele>770.062</ele>
        <time>2022-08-24T07:58:18Z</time>
      </trkpt>
      <trkpt lat="43.1138309999996" lon="-1.2375620000000038">
        <ele>770.279</ele>
        <time>2022-08-24T07:58:19Z</time>
      </trkpt>
      <trkpt lat="43.1138189999996" lon="-1.2375570000000038">
        <ele>770.442</ele>
        <time>2022-08-24T07:58:20Z</time>
      </trkpt>
      <trkpt lat="43.1138059999996" lon="-1.237553000000004">
        <ele>770.436</ele>
        <time>2022-08-24T07:58:21Z</time>
      </trkpt>
      <trkpt lat="43.1137949999996" lon="-1.237550000000004">
        <ele>770.675</ele>
        <time>2022-08-24T07:58:22Z</time>
      </trkpt>
      <trkpt lat="43.113784999999595" lon="-1.2375480000000039">
        <ele>770.873</ele>
        <time>2022-08-24T07:58:23Z</time>
      </trkpt>
      <trkpt lat="43.113770999999595" lon="-1.2375410000000038">
        <ele>770.885</ele>
        <time>2022-08-24T07:58:24Z</time>
      </trkpt>
      <trkpt lat="43.1137589999996" lon="-1.2375330000000038">
        <ele>771.013</ele>
        <time>2022-08-24T07:58:25Z</time>
      </trkpt>
      <trkpt lat="43.113747999999596" lon="-1.2375270000000038">
        <ele>771.009</ele>
        <time>2022-08-24T07:58:26Z</time>
      </trkpt>
      <trkpt lat="43.113733999999596" lon="-1.2375210000000039">
        <ele>771.278</ele>
        <time>2022-08-24T07:58:27Z</time>
      </trkpt>
      <trkpt lat="43.113717999999594" lon="-1.2375160000000038">
        <ele>771.288</ele>
        <time>2022-08-24T07:58:28Z</time>
      </trkpt>
      <trkpt lat="43.113702999999596" lon="-1.2375140000000038">
        <ele>771.268</ele>
        <time>2022-08-24T07:58:29Z</time>
      </trkpt>
      <trkpt lat="43.113686999999594" lon="-1.2375130000000039">
        <ele>771.414</ele>
        <time>2022-08-24T07:58:30Z</time>
      </trkpt>
      <trkpt lat="43.113677999999595" lon="-1.2375100000000039">
        <ele>771.666</ele>
        <time>2022-08-24T07:58:31Z</time>
      </trkpt>
      <trkpt lat="43.113666999999595" lon="-1.2375030000000038">
        <ele>771.823</ele>
        <time>2022-08-24T07:58:32Z</time>
      </trkpt>
      <trkpt lat="43.1136519999996" lon="-1.2374950000000038">
        <ele>772.036</ele>
        <time>2022-08-24T07:58:33Z</time>
      </trkpt>
      <trkpt lat="43.113640999999596" lon="-1.2374890000000038">
        <ele>772.410</ele>
        <time>2022-08-24T07:58:34Z</time>
      </trkpt>
      <trkpt lat="43.11363099999959" lon="-1.2374870000000038">
        <ele>772.489</ele>
        <time>2022-08-24T07:58:35Z</time>
      </trkpt>
      <trkpt lat="43.11362299999959" lon="-1.2374850000000037">
        <ele>772.841</ele>
        <time>2022-08-24T07:58:36Z</time>
      </trkpt>
      <trkpt lat="43.11361399999959" lon="-1.2374860000000036">
        <ele>773.081</ele>
        <time>2022-08-24T07:58:37Z</time>
      </trkpt>
      <trkpt lat="43.113601999999595" lon="-1.2374850000000037">
        <ele>773.009</ele>
        <time>2022-08-24T07:58:38Z</time>
      </trkpt>
      <trkpt lat="43.1135899999996" lon="-1.2374830000000037">
        <ele>773.209</ele>
        <time>2022-08-24T07:58:39Z</time>
      </trkpt>
      <trkpt lat="43.113578999999596" lon="-1.2374800000000037">
        <ele>773.455</ele>
        <time>2022-08-24T07:58:40Z</time>
      </trkpt>
      <trkpt lat="43.11356899999959" lon="-1.2374750000000037">
        <ele>773.625</ele>
        <time>2022-08-24T07:58:41Z</time>
      </trkpt>
      <trkpt lat="43.113556999999595" lon="-1.2374670000000036">
        <ele>773.835</ele>
        <time>2022-08-24T07:58:42Z</time>
      </trkpt>
      <trkpt lat="43.1135449999996" lon="-1.2374610000000037">
        <ele>773.831</ele>
        <time>2022-08-24T07:58:43Z</time>
      </trkpt>
      <trkpt lat="43.113533999999596" lon="-1.2374550000000037">
        <ele>774.233</ele>
        <time>2022-08-24T07:58:44Z</time>
      </trkpt>
      <trkpt lat="43.113522999999596" lon="-1.2374460000000038">
        <ele>774.270</ele>
        <time>2022-08-24T07:58:45Z</time>
      </trkpt>
      <trkpt lat="43.1135109999996" lon="-1.2374390000000037">
        <ele>774.433</ele>
        <time>2022-08-24T07:58:46Z</time>
      </trkpt>
      <trkpt lat="43.113497999999595" lon="-1.2374340000000037">
        <ele>774.677</ele>
        <time>2022-08-24T07:58:47Z</time>
      </trkpt>
      <trkpt lat="43.11348499999959" lon="-1.2374310000000037">
        <ele>774.876</ele>
        <time>2022-08-24T07:58:48Z</time>
      </trkpt>
      <trkpt lat="43.11348199999959" lon="-1.2374250000000038">
        <ele>775.066</ele>
        <time>2022-08-24T07:58:49Z</time>
      </trkpt>
      <trkpt lat="43.11346899999959" lon="-1.2374230000000037">
        <ele>775.229</ele>
        <time>2022-08-24T07:58:50Z</time>
      </trkpt>
      <trkpt lat="43.11345599999959" lon="-1.2374190000000038">
        <ele>775.421</ele>
        <time>2022-08-24T07:58:51Z</time>
      </trkpt>
      <trkpt lat="43.113439999999585" lon="-1.2374140000000038">
        <ele>775.409</ele>
        <time>2022-08-24T07:58:52Z</time>
      </trkpt>
      <trkpt lat="43.113422999999585" lon="-1.2374070000000037">
        <ele>775.677</ele>
        <time>2022-08-24T07:58:53Z</time>
      </trkpt>
      <trkpt lat="43.11340799999959" lon="-1.2374010000000037">
        <ele>775.897</ele>
        <time>2022-08-24T07:58:54Z</time>
      </trkpt>
      <trkpt lat="43.11339299999959" lon="-1.2373940000000037">
        <ele>776.047</ele>
        <time>2022-08-24T07:58:55Z</time>
      </trkpt>
      <trkpt lat="43.11337999999959" lon="-1.2373860000000036">
        <ele>776.273</ele>
        <time>2022-08-24T07:58:56Z</time>
      </trkpt>
      <trkpt lat="43.11336799999959" lon="-1.2373740000000037">
        <ele>776.435</ele>
        <time>2022-08-24T07:58:57Z</time>
      </trkpt>
      <trkpt lat="43.11335399999959" lon="-1.2373650000000038">
        <ele>776.662</ele>
        <time>2022-08-24T07:58:58Z</time>
      </trkpt>
      <trkpt lat="43.11333899999959" lon="-1.237356000000004">
        <ele>776.875</ele>
        <time>2022-08-24T07:58:59Z</time>
      </trkpt>
      <trkpt lat="43.113323999999594" lon="-1.237352000000004">
        <ele>777.059</ele>
        <time>2022-08-24T07:59:00Z</time>
      </trkpt>
      <trkpt lat="43.113311999999596" lon="-1.2373480000000041">
        <ele>777.018</ele>
        <time>2022-08-24T07:59:01Z</time>
      </trkpt>
      <trkpt lat="43.11329599999959" lon="-1.2373420000000042">
        <ele>777.238</ele>
        <time>2022-08-24T07:59:02Z</time>
      </trkpt>
      <trkpt lat="43.11327999999959" lon="-1.237332000000004">
        <ele>777.470</ele>
        <time>2022-08-24T07:59:03Z</time>
      </trkpt>
      <trkpt lat="43.11325999999959" lon="-1.237325000000004">
        <ele>777.417</ele>
        <time>2022-08-24T07:59:04Z</time>
      </trkpt>
      <trkpt lat="43.11324599999959" lon="-1.237320000000004">
        <ele>777.609</ele>
        <time>2022-08-24T07:59:05Z</time>
      </trkpt>
      <trkpt lat="43.11323199999959" lon="-1.237316000000004">
        <ele>778.234</ele>
        <time>2022-08-24T07:59:06Z</time>
      </trkpt>
      <trkpt lat="43.11321499999959" lon="-1.237311000000004">
        <ele>778.254</ele>
        <time>2022-08-24T07:59:07Z</time>
      </trkpt>
      <trkpt lat="43.113196999999595" lon="-1.237305000000004">
        <ele>778.424</ele>
        <time>2022-08-24T07:59:08Z</time>
      </trkpt>
      <trkpt lat="43.113179999999595" lon="-1.2372990000000041">
        <ele>778.630</ele>
        <time>2022-08-24T07:59:09Z</time>
      </trkpt>
      <trkpt lat="43.1131619999996" lon="-1.2372940000000041">
        <ele>778.852</ele>
        <time>2022-08-24T07:59:10Z</time>
      </trkpt>
      <trkpt lat="43.1131439999996" lon="-1.2372880000000042">
        <ele>779.039</ele>
        <time>2022-08-24T07:59:11Z</time>
      </trkpt>
      <trkpt lat="43.1131289999996" lon="-1.237286000000004">
        <ele>779.272</ele>
        <time>2022-08-24T07:59:12Z</time>
      </trkpt>
      <trkpt lat="43.1131119999996" lon="-1.237284000000004">
        <ele>779.496</ele>
        <time>2022-08-24T07:59:13Z</time>
      </trkpt>
      <trkpt lat="43.113093999999606" lon="-1.237279000000004">
        <ele>779.665</ele>
        <time>2022-08-24T07:59:14Z</time>
      </trkpt>
      <trkpt lat="43.1130809999996" lon="-1.2372750000000041">
        <ele>779.831</ele>
        <time>2022-08-24T07:59:15Z</time>
      </trkpt>
      <trkpt lat="43.113062999999606" lon="-1.237270000000004">
        <ele>780.061</ele>
        <time>2022-08-24T07:59:16Z</time>
      </trkpt>
      <trkpt lat="43.113051999999605" lon="-1.2372640000000041">
        <ele>780.207</ele>
        <time>2022-08-24T07:59:17Z</time>
      </trkpt>
      <trkpt lat="43.1130389999996" lon="-1.2372580000000042">
        <ele>780.409</ele>
        <time>2022-08-24T07:59:18Z</time>
      </trkpt>
      <trkpt lat="43.1130229999996" lon="-1.2372520000000042">
        <ele>780.634</ele>
        <time>2022-08-24T07:59:19Z</time>
      </trkpt>
      <trkpt lat="43.1130079999996" lon="-1.2372470000000042">
        <ele>780.814</ele>
        <time>2022-08-24T07:59:20Z</time>
      </trkpt>
      <trkpt lat="43.1129909999996" lon="-1.2372450000000041">
        <ele>781.074</ele>
        <time>2022-08-24T07:59:21Z</time>
      </trkpt>
      <trkpt lat="43.1129749999996" lon="-1.237243000000004">
        <ele>781.260</ele>
        <time>2022-08-24T07:59:22Z</time>
      </trkpt>
      <trkpt lat="43.1129629999996" lon="-1.2372420000000042">
        <ele>781.482</ele>
        <time>2022-08-24T07:59:23Z</time>
      </trkpt>
      <trkpt lat="43.112944999999605" lon="-1.2372450000000041">
        <ele>781.479</ele>
        <time>2022-08-24T07:59:24Z</time>
      </trkpt>
      <trkpt lat="43.11292999999961" lon="-1.2372470000000042">
        <ele>781.652</ele>
        <time>2022-08-24T07:59:25Z</time>
      </trkpt>
      <trkpt lat="43.112913999999606" lon="-1.2372430000000043">
        <ele>781.616</ele>
        <time>2022-08-24T07:59:26Z</time>
      </trkpt>
      <trkpt lat="43.112902999999605" lon="-1.2372370000000044">
        <ele>781.875</ele>
        <time>2022-08-24T07:59:27Z</time>
      </trkpt>
      <trkpt lat="43.11288799999961" lon="-1.2372290000000044">
        <ele>782.033</ele>
        <time>2022-08-24T07:59:28Z</time>
      </trkpt>
      <trkpt lat="43.112871999999605" lon="-1.2372230000000044">
        <ele>782.223</ele>
        <time>2022-08-24T07:59:29Z</time>
      </trkpt>
      <trkpt lat="43.11285699999961" lon="-1.2372210000000043">
        <ele>782.415</ele>
        <time>2022-08-24T07:59:30Z</time>
      </trkpt>
      <trkpt lat="43.11283899999961" lon="-1.2372200000000044">
        <ele>782.409</ele>
        <time>2022-08-24T07:59:31Z</time>
      </trkpt>
      <trkpt lat="43.11282299999961" lon="-1.2372210000000043">
        <ele>782.864</ele>
        <time>2022-08-24T07:59:32Z</time>
      </trkpt>
      <trkpt lat="43.112809999999605" lon="-1.2372190000000043">
        <ele>782.854</ele>
        <time>2022-08-24T07:59:33Z</time>
      </trkpt>
      <trkpt lat="43.1127939999996" lon="-1.2372140000000043">
        <ele>783.274</ele>
        <time>2022-08-24T07:59:34Z</time>
      </trkpt>
      <trkpt lat="43.1127749999996" lon="-1.2372110000000043">
        <ele>783.480</ele>
        <time>2022-08-24T07:59:35Z</time>
      </trkpt>
      <trkpt lat="43.1127529999996" lon="-1.2372080000000043">
        <ele>783.412</ele>
        <time>2022-08-24T07:59:36Z</time>
      </trkpt>
      <trkpt lat="43.1127349999996" lon="-1.2372070000000044">
        <ele>783.649</ele>
        <time>2022-08-24T07:59:37Z</time>
      </trkpt>
      <trkpt lat="43.1127209999996" lon="-1.2372090000000044">
        <ele>783.662</ele>
        <time>2022-08-24T07:59:38Z</time>
      </trkpt>
      <trkpt lat="43.1127049999996" lon="-1.2372110000000045">
        <ele>783.836</ele>
        <time>2022-08-24T07:59:39Z</time>
      </trkpt>
      <trkpt lat="43.1126869999996" lon="-1.2372150000000044">
        <ele>783.825</ele>
        <time>2022-08-24T07:59:40Z</time>
      </trkpt>
      <trkpt lat="43.112674999999605" lon="-1.2372170000000045">
        <ele>784.064</ele>
        <time>2022-08-24T07:59:41Z</time>
      </trkpt>
      <trkpt lat="43.112660999999605" lon="-1.2372170000000045">
        <ele>784.206</ele>
        <time>2022-08-24T07:59:42Z</time>
      </trkpt>
      <trkpt lat="43.1126449999996" lon="-1.2372170000000045">
        <ele>784.216</ele>
        <time>2022-08-24T07:59:43Z</time>
      </trkpt>
      <trkpt lat="43.1126279999996" lon="-1.2372170000000045">
        <ele>784.609</ele>
        <time>2022-08-24T07:59:44Z</time>
      </trkpt>
      <trkpt lat="43.1126109999996" lon="-1.2372170000000045">
        <ele>784.677</ele>
        <time>2022-08-24T07:59:45Z</time>
      </trkpt>
      <trkpt lat="43.1125939999996" lon="-1.2372170000000045">
        <ele>784.837</ele>
        <time>2022-08-24T07:59:46Z</time>
      </trkpt>
      <trkpt lat="43.112573999999604" lon="-1.2372150000000044">
        <ele>785.097</ele>
        <time>2022-08-24T07:59:47Z</time>
      </trkpt>
      <trkpt lat="43.1125609999996" lon="-1.2372160000000043">
        <ele>785.053</ele>
        <time>2022-08-24T07:59:48Z</time>
      </trkpt>
      <trkpt lat="43.112545999999604" lon="-1.2372160000000043">
        <ele>785.245</ele>
        <time>2022-08-24T07:59:49Z</time>
      </trkpt>
      <trkpt lat="43.112530999999606" lon="-1.2372180000000044">
        <ele>785.242</ele>
        <time>2022-08-24T07:59:50Z</time>
      </trkpt>
      <trkpt lat="43.11251399999961" lon="-1.2372170000000045">
        <ele>785.475</ele>
        <time>2022-08-24T07:59:51Z</time>
      </trkpt>
      <trkpt lat="43.11249699999961" lon="-1.2372200000000044">
        <ele>785.689</ele>
        <time>2022-08-24T07:59:52Z</time>
      </trkpt>
      <trkpt lat="43.112477999999605" lon="-1.2372210000000043">
        <ele>785.858</ele>
        <time>2022-08-24T07:59:53Z</time>
      </trkpt>
      <trkpt lat="43.1124619999996" lon="-1.2372200000000044">
        <ele>786.017</ele>
        <time>2022-08-24T07:59:54Z</time>
      </trkpt>
      <trkpt lat="43.1124449999996" lon="-1.2372200000000044">
        <ele>786.087</ele>
        <time>2022-08-24T07:59:55Z</time>
      </trkpt>
      <trkpt lat="43.1124259999996" lon="-1.2372240000000043">
        <ele>786.215</ele>
        <time>2022-08-24T07:59:56Z</time>
      </trkpt>
      <trkpt lat="43.1124089999996" lon="-1.2372290000000044">
        <ele>786.209</ele>
        <time>2022-08-24T07:59:57Z</time>
      </trkpt>
      <trkpt lat="43.1123919999996" lon="-1.2372330000000042">
        <ele>786.682</ele>
        <time>2022-08-24T07:59:58Z</time>
      </trkpt>
      <trkpt lat="43.1123759999996" lon="-1.2372390000000042">
        <ele>786.622</ele>
        <time>2022-08-24T07:59:59Z</time>
      </trkpt>
      <trkpt lat="43.1123569999996" lon="-1.2372460000000043">
        <ele>786.892</ele>
        <time>2022-08-24T08:00:00Z</time>
      </trkpt>
      <trkpt lat="43.1123389999996" lon="-1.2372540000000043">
        <ele>787.018</ele>
        <time>2022-08-24T08:00:01Z</time>
      </trkpt>
      <trkpt lat="43.1123219999996" lon="-1.2372650000000043">
        <ele>786.830</ele>
        <time>2022-08-24T08:00:02Z</time>
      </trkpt>
      <trkpt lat="43.112300999999604" lon="-1.2372770000000042">
        <ele>786.847</ele>
        <time>2022-08-24T08:00:03Z</time>
      </trkpt>
      <trkpt lat="43.11227999999961" lon="-1.237286000000004">
        <ele>787.010</ele>
        <time>2022-08-24T08:00:04Z</time>
      </trkpt>
      <trkpt lat="43.11225499999961" lon="-1.237298000000004">
        <ele>787.054</ele>
        <time>2022-08-24T08:00:05Z</time>
      </trkpt>
      <trkpt lat="43.112229999999606" lon="-1.237316000000004">
        <ele>787.033</ele>
        <time>2022-08-24T08:00:06Z</time>
      </trkpt>
      <trkpt lat="43.1122029999996" lon="-1.237336000000004">
        <ele>787.286</ele>
        <time>2022-08-24T08:00:07Z</time>
      </trkpt>
      <trkpt lat="43.112170999999606" lon="-1.237358000000004">
        <ele>787.260</ele>
        <time>2022-08-24T08:00:08Z</time>
      </trkpt>
      <trkpt lat="43.112134999999604" lon="-1.237381000000004">
        <ele>787.026</ele>
        <time>2022-08-24T08:00:09Z</time>
      </trkpt>
      <trkpt lat="43.1120939999996" lon="-1.237405000000004">
        <ele>787.009</ele>
        <time>2022-08-24T08:00:10Z</time>
      </trkpt>
      <trkpt lat="43.1120489999996" lon="-1.237433000000004">
        <ele>787.059</ele>
        <time>2022-08-24T08:00:11Z</time>
      </trkpt>
      <trkpt lat="43.1120019999996" lon="-1.237464000000004">
        <ele>787.049</ele>
        <time>2022-08-24T08:00:12Z</time>
      </trkpt>
      <trkpt lat="43.1119509999996" lon="-1.2374950000000038">
        <ele>787.099</ele>
        <time>2022-08-24T08:00:13Z</time>
      </trkpt>
      <trkpt lat="43.1118979999996" lon="-1.2375260000000037">
        <ele>787.025</ele>
        <time>2022-08-24T08:00:14Z</time>
      </trkpt>
      <trkpt lat="43.111842999999595" lon="-1.2375580000000037">
        <ele>786.837</ele>
        <time>2022-08-24T08:00:15Z</time>
      </trkpt>
      <trkpt lat="43.11178499999959" lon="-1.2375910000000037">
        <ele>786.884</ele>
        <time>2022-08-24T08:00:16Z</time>
      </trkpt>
      <trkpt lat="43.11165899999959" lon="-1.2376650000000036">
        <ele>786.297</ele>
        <time>2022-08-24T08:00:18Z</time>
      </trkpt>
      <trkpt lat="43.111305999999594" lon="-1.2378690000000037">
        <ele>785.251</ele>
        <time>2022-08-24T08:00:24Z</time>
      </trkpt>
      <trkpt lat="43.111305999999594" lon="-1.2378690000000037">
        <ele>785.080</ele>
        <time>2022-08-24T08:00:25Z</time>
      </trkpt>
      <trkpt lat="43.1109219999996" lon="-1.2380360000000037">
        <ele>784.294</ele>
        <time>2022-08-24T08:00:30Z</time>
      </trkpt>
      <trkpt lat="43.1107919999996" lon="-1.2380640000000036">
        <ele>783.657</ele>
        <time>2022-08-24T08:00:32Z</time>
      </trkpt>
      <trkpt lat="43.1106249999996" lon="-1.2380880000000036">
        <ele>783.222</ele>
        <time>2022-08-24T08:00:34Z</time>
      </trkpt>
      <trkpt lat="43.1102469999996" lon="-1.2381320000000036">
        <ele>781.809</ele>
        <time>2022-08-24T08:00:39Z</time>
      </trkpt>
      <trkpt lat="43.110167999999604" lon="-1.2381450000000036">
        <ele>781.230</ele>
        <time>2022-08-24T08:00:40Z</time>
      </trkpt>
      <trkpt lat="43.110091999999604" lon="-1.2381630000000037">
        <ele>781.020</ele>
        <time>2022-08-24T08:00:41Z</time>
      </trkpt>
      <trkpt lat="43.1100189999996" lon="-1.2381860000000038">
        <ele>780.880</ele>
        <time>2022-08-24T08:00:42Z</time>
      </trkpt>
      <trkpt lat="43.1099469999996" lon="-1.2382130000000038">
        <ele>780.646</ele>
        <time>2022-08-24T08:00:43Z</time>
      </trkpt>
      <trkpt lat="43.1098619999996" lon="-1.2382450000000038">
        <ele>780.038</ele>
        <time>2022-08-24T08:00:44Z</time>
      </trkpt>
      <trkpt lat="43.1097939999996" lon="-1.2382740000000039">
        <ele>779.665</ele>
        <time>2022-08-24T08:00:45Z</time>
      </trkpt>
      <trkpt lat="43.109728999999604" lon="-1.2383050000000038">
        <ele>779.678</ele>
        <time>2022-08-24T08:00:46Z</time>
      </trkpt>
      <trkpt lat="43.1096789999996" lon="-1.2383310000000038">
        <ele>779.432</ele>
        <time>2022-08-24T08:00:47Z</time>
      </trkpt>
      <trkpt lat="43.1096179999996" lon="-1.238368000000004">
        <ele>779.251</ele>
        <time>2022-08-24T08:00:48Z</time>
      </trkpt>
      <trkpt lat="43.1095469999996" lon="-1.2384150000000038">
        <ele>779.247</ele>
        <time>2022-08-24T08:00:49Z</time>
      </trkpt>
      <trkpt lat="43.1094909999996" lon="-1.2384530000000038">
        <ele>779.029</ele>
        <time>2022-08-24T08:00:50Z</time>
      </trkpt>
      <trkpt lat="43.1094379999996" lon="-1.2384910000000038">
        <ele>778.621</ele>
        <time>2022-08-24T08:00:51Z</time>
      </trkpt>
      <trkpt lat="43.1093959999996" lon="-1.2385220000000037">
        <ele>778.609</ele>
        <time>2022-08-24T08:00:52Z</time>
      </trkpt>
      <trkpt lat="43.1093479999996" lon="-1.2385620000000037">
        <ele>778.675</ele>
        <time>2022-08-24T08:00:53Z</time>
      </trkpt>
      <trkpt lat="43.109292999999596" lon="-1.2386130000000037">
        <ele>778.475</ele>
        <time>2022-08-24T08:00:54Z</time>
      </trkpt>
      <trkpt lat="43.1092499999996" lon="-1.2386610000000038">
        <ele>778.425</ele>
        <time>2022-08-24T08:00:55Z</time>
      </trkpt>
      <trkpt lat="43.1091669999996" lon="-1.2387620000000037">
        <ele>778.471</ele>
        <time>2022-08-24T08:00:57Z</time>
      </trkpt>
      <trkpt lat="43.1088999999996" lon="-1.2391150000000037">
        <ele>778.613</ele>
        <time>2022-08-24T08:01:02Z</time>
      </trkpt>
      <trkpt lat="43.1088619999996" lon="-1.2391630000000038">
        <ele>778.860</ele>
        <time>2022-08-24T08:01:03Z</time>
      </trkpt>
      <trkpt lat="43.1088339999996" lon="-1.2391920000000038">
        <ele>778.873</ele>
        <time>2022-08-24T08:01:04Z</time>
      </trkpt>
      <trkpt lat="43.108851999999594" lon="-1.2391850000000038">
        <ele>779.027</ele>
        <time>2022-08-24T08:01:19Z</time>
      </trkpt>
      <trkpt lat="43.108856999999595" lon="-1.2391900000000038">
        <ele>779.046</ele>
        <time>2022-08-24T08:01:20Z</time>
      </trkpt>
      <trkpt lat="43.1088139999996" lon="-1.2391870000000038">
        <ele>778.053</ele>
        <time>2022-08-24T08:17:03Z</time>
      </trkpt>
      <trkpt lat="43.108786999999595" lon="-1.239194000000004">
        <ele>778.004</ele>
        <time>2022-08-24T08:17:05Z</time>
      </trkpt>
      <trkpt lat="43.10866399999959" lon="-1.239204000000004">
        <ele>778.214</ele>
        <time>2022-08-24T08:17:10Z</time>
      </trkpt>
      <trkpt lat="43.10864399999959" lon="-1.239211000000004">
        <ele>778.609</ele>
        <time>2022-08-24T08:17:11Z</time>
      </trkpt>
      <trkpt lat="43.10862699999959" lon="-1.239217000000004">
        <ele>778.656</ele>
        <time>2022-08-24T08:17:12Z</time>
      </trkpt>
      <trkpt lat="43.10861399999959" lon="-1.239220000000004">
        <ele>778.896</ele>
        <time>2022-08-24T08:17:13Z</time>
      </trkpt>
      <trkpt lat="43.10860399999959" lon="-1.239219000000004">
        <ele>778.876</ele>
        <time>2022-08-24T08:17:14Z</time>
      </trkpt>
      <trkpt lat="43.10858899999959" lon="-1.239222000000004">
        <ele>779.272</ele>
        <time>2022-08-24T08:17:15Z</time>
      </trkpt>
      <trkpt lat="43.10857499999959" lon="-1.239224000000004">
        <ele>779.454</ele>
        <time>2022-08-24T08:17:16Z</time>
      </trkpt>
      <trkpt lat="43.10856099999959" lon="-1.239228000000004">
        <ele>779.461</ele>
        <time>2022-08-24T08:17:17Z</time>
      </trkpt>
      <trkpt lat="43.10854299999959" lon="-1.239235000000004">
        <ele>779.814</ele>
        <time>2022-08-24T08:17:18Z</time>
      </trkpt>
      <trkpt lat="43.10852599999959" lon="-1.2392420000000042">
        <ele>780.028</ele>
        <time>2022-08-24T08:17:19Z</time>
      </trkpt>
      <trkpt lat="43.10850899999959" lon="-1.2392480000000041">
        <ele>780.277</ele>
        <time>2022-08-24T08:17:20Z</time>
      </trkpt>
      <trkpt lat="43.10849599999959" lon="-1.2392530000000042">
        <ele>780.447</ele>
        <time>2022-08-24T08:17:21Z</time>
      </trkpt>
      <trkpt lat="43.10846499999959" lon="-1.2392580000000042">
        <ele>780.829</ele>
        <time>2022-08-24T08:17:23Z</time>
      </trkpt>
      <trkpt lat="43.10844899999959" lon="-1.2392560000000041">
        <ele>780.821</ele>
        <time>2022-08-24T08:17:24Z</time>
      </trkpt>
      <trkpt lat="43.10843199999959" lon="-1.239257000000004">
        <ele>780.809</ele>
        <time>2022-08-24T08:17:25Z</time>
      </trkpt>
      <trkpt lat="43.108415999999586" lon="-1.239258000000004">
        <ele>781.055</ele>
        <time>2022-08-24T08:17:26Z</time>
      </trkpt>
      <trkpt lat="43.10840099999959" lon="-1.239263000000004">
        <ele>781.275</ele>
        <time>2022-08-24T08:17:27Z</time>
      </trkpt>
      <trkpt lat="43.10838599999959" lon="-1.239269000000004">
        <ele>781.445</ele>
        <time>2022-08-24T08:17:28Z</time>
      </trkpt>
      <trkpt lat="43.10837099999959" lon="-1.239274000000004">
        <ele>781.651</ele>
        <time>2022-08-24T08:17:29Z</time>
      </trkpt>
      <trkpt lat="43.10835699999959" lon="-1.239280000000004">
        <ele>781.663</ele>
        <time>2022-08-24T08:17:30Z</time>
      </trkpt>
      <trkpt lat="43.108344999999595" lon="-1.239285000000004">
        <ele>781.880</ele>
        <time>2022-08-24T08:17:31Z</time>
      </trkpt>
      <trkpt lat="43.1083299999996" lon="-1.239293000000004">
        <ele>782.053</ele>
        <time>2022-08-24T08:17:32Z</time>
      </trkpt>
      <trkpt lat="43.1083149999996" lon="-1.239299000000004">
        <ele>782.087</ele>
        <time>2022-08-24T08:17:33Z</time>
      </trkpt>
      <trkpt lat="43.1083029999996" lon="-1.239306000000004">
        <ele>782.296</ele>
        <time>2022-08-24T08:17:34Z</time>
      </trkpt>
      <trkpt lat="43.1082899999996" lon="-1.239313000000004">
        <ele>782.444</ele>
        <time>2022-08-24T08:17:35Z</time>
      </trkpt>
      <trkpt lat="43.1082779999996" lon="-1.239319000000004">
        <ele>782.405</ele>
        <time>2022-08-24T08:17:36Z</time>
      </trkpt>
      <trkpt lat="43.1082649999996" lon="-1.239323000000004">
        <ele>782.415</ele>
        <time>2022-08-24T08:17:37Z</time>
      </trkpt>
      <trkpt lat="43.108251999999595" lon="-1.239326000000004">
        <ele>782.609</ele>
        <time>2022-08-24T08:17:38Z</time>
      </trkpt>
      <trkpt lat="43.10823899999959" lon="-1.2393300000000038">
        <ele>782.835</ele>
        <time>2022-08-24T08:17:39Z</time>
      </trkpt>
      <trkpt lat="43.10822599999959" lon="-1.2393350000000039">
        <ele>783.035</ele>
        <time>2022-08-24T08:17:40Z</time>
      </trkpt>
      <trkpt lat="43.10821199999959" lon="-1.2393400000000039">
        <ele>783.235</ele>
        <time>2022-08-24T08:17:41Z</time>
      </trkpt>
      <trkpt lat="43.10819999999959" lon="-1.2393490000000038">
        <ele>783.261</ele>
        <time>2022-08-24T08:17:42Z</time>
      </trkpt>
      <trkpt lat="43.10818699999959" lon="-1.2393600000000038">
        <ele>783.423</ele>
        <time>2022-08-24T08:17:43Z</time>
      </trkpt>
      <trkpt lat="43.10817599999959" lon="-1.2393660000000037">
        <ele>783.480</ele>
        <time>2022-08-24T08:17:44Z</time>
      </trkpt>
      <trkpt lat="43.10815899999959" lon="-1.2393730000000038">
        <ele>783.683</ele>
        <time>2022-08-24T08:17:45Z</time>
      </trkpt>
      <trkpt lat="43.108145999999586" lon="-1.239383000000004">
        <ele>783.847</ele>
        <time>2022-08-24T08:17:46Z</time>
      </trkpt>
      <trkpt lat="43.10813299999958" lon="-1.239391000000004">
        <ele>784.036</ele>
        <time>2022-08-24T08:17:47Z</time>
      </trkpt>
      <trkpt lat="43.10811899999958" lon="-1.239396000000004">
        <ele>784.023</ele>
        <time>2022-08-24T08:17:48Z</time>
      </trkpt>
      <trkpt lat="43.108103999999585" lon="-1.2394000000000038">
        <ele>784.283</ele>
        <time>2022-08-24T08:17:49Z</time>
      </trkpt>
      <trkpt lat="43.108086999999585" lon="-1.239402000000004">
        <ele>784.411</ele>
        <time>2022-08-24T08:17:50Z</time>
      </trkpt>
      <trkpt lat="43.108072999999585" lon="-1.239404000000004">
        <ele>784.409</ele>
        <time>2022-08-24T08:17:51Z</time>
      </trkpt>
      <trkpt lat="43.10806099999959" lon="-1.2394080000000038">
        <ele>784.683</ele>
        <time>2022-08-24T08:17:52Z</time>
      </trkpt>
      <trkpt lat="43.108047999999584" lon="-1.2394170000000038">
        <ele>784.643</ele>
        <time>2022-08-24T08:17:53Z</time>
      </trkpt>
      <trkpt lat="43.10803799999958" lon="-1.2394240000000039">
        <ele>784.873</ele>
        <time>2022-08-24T08:17:54Z</time>
      </trkpt>
      <trkpt lat="43.108022999999584" lon="-1.239431000000004">
        <ele>785.059</ele>
        <time>2022-08-24T08:17:55Z</time>
      </trkpt>
      <trkpt lat="43.10800699999958" lon="-1.239430000000004">
        <ele>785.291</ele>
        <time>2022-08-24T08:17:56Z</time>
      </trkpt>
      <trkpt lat="43.10799399999958" lon="-1.239427000000004">
        <ele>785.238</ele>
        <time>2022-08-24T08:17:57Z</time>
      </trkpt>
      <trkpt lat="43.10797899999958" lon="-1.239428000000004">
        <ele>785.431</ele>
        <time>2022-08-24T08:17:58Z</time>
      </trkpt>
      <trkpt lat="43.107960999999584" lon="-1.2394290000000039">
        <ele>785.675</ele>
        <time>2022-08-24T08:17:59Z</time>
      </trkpt>
      <trkpt lat="43.10794299999959" lon="-1.2394300000000038">
        <ele>785.654</ele>
        <time>2022-08-24T08:18:00Z</time>
      </trkpt>
      <trkpt lat="43.10792799999959" lon="-1.2394330000000038">
        <ele>785.867</ele>
        <time>2022-08-24T08:18:01Z</time>
      </trkpt>
      <trkpt lat="43.10791199999959" lon="-1.2394360000000038">
        <ele>786.081</ele>
        <time>2022-08-24T08:18:02Z</time>
      </trkpt>
      <trkpt lat="43.10789699999959" lon="-1.2394370000000037">
        <ele>786.219</ele>
        <time>2022-08-24T08:18:03Z</time>
      </trkpt>
      <trkpt lat="43.107883999999586" lon="-1.2394380000000036">
        <ele>786.409</ele>
        <time>2022-08-24T08:18:04Z</time>
      </trkpt>
      <trkpt lat="43.107869999999586" lon="-1.2394430000000036">
        <ele>786.457</ele>
        <time>2022-08-24T08:18:05Z</time>
      </trkpt>
      <trkpt lat="43.10785499999959" lon="-1.2394500000000037">
        <ele>786.687</ele>
        <time>2022-08-24T08:18:06Z</time>
      </trkpt>
      <trkpt lat="43.107841999999586" lon="-1.2394570000000038">
        <ele>786.897</ele>
        <time>2022-08-24T08:18:07Z</time>
      </trkpt>
      <trkpt lat="43.10782899999958" lon="-1.2394600000000038">
        <ele>787.093</ele>
        <time>2022-08-24T08:18:08Z</time>
      </trkpt>
      <trkpt lat="43.107813999999586" lon="-1.2394630000000038">
        <ele>787.025</ele>
        <time>2022-08-24T08:18:09Z</time>
      </trkpt>
      <trkpt lat="43.10780199999959" lon="-1.2394600000000038">
        <ele>787.282</ele>
        <time>2022-08-24T08:18:10Z</time>
      </trkpt>
      <trkpt lat="43.10778999999959" lon="-1.2394610000000037">
        <ele>787.485</ele>
        <time>2022-08-24T08:18:11Z</time>
      </trkpt>
      <trkpt lat="43.10777699999959" lon="-1.2394620000000036">
        <ele>787.649</ele>
        <time>2022-08-24T08:18:12Z</time>
      </trkpt>
      <trkpt lat="43.10776499999959" lon="-1.2394600000000036">
        <ele>787.448</ele>
        <time>2022-08-24T08:18:13Z</time>
      </trkpt>
      <trkpt lat="43.107751999999586" lon="-1.2394590000000036">
        <ele>787.629</ele>
        <time>2022-08-24T08:18:14Z</time>
      </trkpt>
      <trkpt lat="43.10773999999959" lon="-1.2394580000000037">
        <ele>787.800</ele>
        <time>2022-08-24T08:18:15Z</time>
      </trkpt>
      <trkpt lat="43.107726999999585" lon="-1.2394570000000038">
        <ele>788.020</ele>
        <time>2022-08-24T08:18:16Z</time>
      </trkpt>
      <trkpt lat="43.107712999999585" lon="-1.2394600000000038">
        <ele>788.209</ele>
        <time>2022-08-24T08:18:17Z</time>
      </trkpt>
      <trkpt lat="43.10770299999958" lon="-1.2394600000000038">
        <ele>788.493</ele>
        <time>2022-08-24T08:18:18Z</time>
      </trkpt>
      <trkpt lat="43.10768999999958" lon="-1.2394590000000039">
        <ele>788.693</ele>
        <time>2022-08-24T08:18:19Z</time>
      </trkpt>
      <trkpt lat="43.107676999999576" lon="-1.2394600000000038">
        <ele>788.853</ele>
        <time>2022-08-24T08:18:20Z</time>
      </trkpt>
      <trkpt lat="43.10766399999957" lon="-1.2394590000000039">
        <ele>789.089</ele>
        <time>2022-08-24T08:18:21Z</time>
      </trkpt>
      <trkpt lat="43.107651999999575" lon="-1.2394560000000039">
        <ele>789.221</ele>
        <time>2022-08-24T08:18:22Z</time>
      </trkpt>
      <trkpt lat="43.107637999999575" lon="-1.2394540000000038">
        <ele>789.488</ele>
        <time>2022-08-24T08:18:23Z</time>
      </trkpt>
      <trkpt lat="43.107623999999575" lon="-1.2394540000000038">
        <ele>789.891</ele>
        <time>2022-08-24T08:18:24Z</time>
      </trkpt>
      <trkpt lat="43.10761099999957" lon="-1.2394570000000038">
        <ele>789.875</ele>
        <time>2022-08-24T08:18:25Z</time>
      </trkpt>
      <trkpt lat="43.107598999999574" lon="-1.2394550000000037">
        <ele>790.214</ele>
        <time>2022-08-24T08:18:26Z</time>
      </trkpt>
      <trkpt lat="43.107586999999576" lon="-1.2394550000000037">
        <ele>790.288</ele>
        <time>2022-08-24T08:18:27Z</time>
      </trkpt>
      <trkpt lat="43.107575999999575" lon="-1.2394570000000038">
        <ele>790.624</ele>
        <time>2022-08-24T08:18:28Z</time>
      </trkpt>
      <trkpt lat="43.10756399999958" lon="-1.2394540000000038">
        <ele>790.826</ele>
        <time>2022-08-24T08:18:29Z</time>
      </trkpt>
      <trkpt lat="43.10754899999958" lon="-1.2394510000000039">
        <ele>790.809</ele>
        <time>2022-08-24T08:18:30Z</time>
      </trkpt>
      <trkpt lat="43.10753499999958" lon="-1.239447000000004">
        <ele>791.049</ele>
        <time>2022-08-24T08:18:31Z</time>
      </trkpt>
      <trkpt lat="43.10751999999958" lon="-1.239446000000004">
        <ele>791.079</ele>
        <time>2022-08-24T08:18:32Z</time>
      </trkpt>
      <trkpt lat="43.10750699999958" lon="-1.239443000000004">
        <ele>791.239</ele>
        <time>2022-08-24T08:18:33Z</time>
      </trkpt>
      <trkpt lat="43.10749599999958" lon="-1.2394420000000042">
        <ele>791.475</ele>
        <time>2022-08-24T08:18:34Z</time>
      </trkpt>
      <trkpt lat="43.10748499999958" lon="-1.2394450000000041">
        <ele>791.667</ele>
        <time>2022-08-24T08:18:35Z</time>
      </trkpt>
      <trkpt lat="43.10747099999958" lon="-1.2394470000000042">
        <ele>792.024</ele>
        <time>2022-08-24T08:18:36Z</time>
      </trkpt>
      <trkpt lat="43.10745699999958" lon="-1.2394440000000042">
        <ele>792.057</ele>
        <time>2022-08-24T08:18:37Z</time>
      </trkpt>
      <trkpt lat="43.10744199999958" lon="-1.2394410000000042">
        <ele>792.481</ele>
        <time>2022-08-24T08:18:38Z</time>
      </trkpt>
      <trkpt lat="43.10742699999958" lon="-1.2394370000000043">
        <ele>792.660</ele>
        <time>2022-08-24T08:18:39Z</time>
      </trkpt>
      <trkpt lat="43.107411999999584" lon="-1.2394330000000044">
        <ele>792.883</ele>
        <time>2022-08-24T08:18:40Z</time>
      </trkpt>
      <trkpt lat="43.10739899999958" lon="-1.2394310000000044">
        <ele>793.225</ele>
        <time>2022-08-24T08:18:41Z</time>
      </trkpt>
      <trkpt lat="43.10738599999958" lon="-1.2394300000000045">
        <ele>793.217</ele>
        <time>2022-08-24T08:18:42Z</time>
      </trkpt>
      <trkpt lat="43.10737099999958" lon="-1.2394280000000044">
        <ele>793.609</ele>
        <time>2022-08-24T08:18:43Z</time>
      </trkpt>
      <trkpt lat="43.107355999999584" lon="-1.2394310000000044">
        <ele>793.879</ele>
        <time>2022-08-24T08:18:44Z</time>
      </trkpt>
      <trkpt lat="43.107340999999586" lon="-1.2394300000000045">
        <ele>794.069</ele>
        <time>2022-08-24T08:18:45Z</time>
      </trkpt>
      <trkpt lat="43.10732599999959" lon="-1.2394310000000044">
        <ele>794.469</ele>
        <time>2022-08-24T08:18:46Z</time>
      </trkpt>
      <trkpt lat="43.10731399999959" lon="-1.2394310000000044">
        <ele>794.465</ele>
        <time>2022-08-24T08:18:47Z</time>
      </trkpt>
      <trkpt lat="43.10729999999959" lon="-1.2394320000000043">
        <ele>794.877</ele>
        <time>2022-08-24T08:18:48Z</time>
      </trkpt>
      <trkpt lat="43.10728599999959" lon="-1.2394280000000044">
        <ele>795.054</ele>
        <time>2022-08-24T08:18:49Z</time>
      </trkpt>
      <trkpt lat="43.10727399999959" lon="-1.2394210000000043">
        <ele>795.277</ele>
        <time>2022-08-24T08:18:50Z</time>
      </trkpt>
      <trkpt lat="43.10726399999959" lon="-1.2394160000000043">
        <ele>795.421</ele>
        <time>2022-08-24T08:18:51Z</time>
      </trkpt>
      <trkpt lat="43.107253999999585" lon="-1.2394140000000042">
        <ele>795.640</ele>
        <time>2022-08-24T08:18:52Z</time>
      </trkpt>
      <trkpt lat="43.107242999999585" lon="-1.2394090000000042">
        <ele>795.873</ele>
        <time>2022-08-24T08:18:53Z</time>
      </trkpt>
      <trkpt lat="43.10723299999958" lon="-1.2394030000000043">
        <ele>796.085</ele>
        <time>2022-08-24T08:18:54Z</time>
      </trkpt>
      <trkpt lat="43.10722099999958" lon="-1.2394020000000043">
        <ele>796.413</ele>
        <time>2022-08-24T08:18:55Z</time>
      </trkpt>
      <trkpt lat="43.107211999999585" lon="-1.2393990000000044">
        <ele>796.609</ele>
        <time>2022-08-24T08:18:56Z</time>
      </trkpt>
      <trkpt lat="43.107202999999586" lon="-1.2393990000000044">
        <ele>796.878</ele>
        <time>2022-08-24T08:18:57Z</time>
      </trkpt>
      <trkpt lat="43.10719099999959" lon="-1.2393990000000044">
        <ele>797.038</ele>
        <time>2022-08-24T08:18:58Z</time>
      </trkpt>
      <trkpt lat="43.107180999999585" lon="-1.2393970000000043">
        <ele>797.058</ele>
        <time>2022-08-24T08:18:59Z</time>
      </trkpt>
      <trkpt lat="43.10716899999959" lon="-1.2393930000000044">
        <ele>797.434</ele>
        <time>2022-08-24T08:19:00Z</time>
      </trkpt>
      <trkpt lat="43.107157999999586" lon="-1.2393910000000044">
        <ele>797.436</ele>
        <time>2022-08-24T08:19:01Z</time>
      </trkpt>
      <trkpt lat="43.10714899999959" lon="-1.2393910000000044">
        <ele>797.613</ele>
        <time>2022-08-24T08:19:02Z</time>
      </trkpt>
      <trkpt lat="43.10713699999959" lon="-1.2393910000000044">
        <ele>797.866</ele>
        <time>2022-08-24T08:19:03Z</time>
      </trkpt>
      <trkpt lat="43.10712299999959" lon="-1.2393890000000043">
        <ele>797.830</ele>
        <time>2022-08-24T08:19:04Z</time>
      </trkpt>
      <trkpt lat="43.10710899999959" lon="-1.2393830000000043">
        <ele>798.049</ele>
        <time>2022-08-24T08:19:05Z</time>
      </trkpt>
      <trkpt lat="43.107098999999586" lon="-1.2393850000000044">
        <ele>798.221</ele>
        <time>2022-08-24T08:19:06Z</time>
      </trkpt>
      <trkpt lat="43.10709199999959" lon="-1.2393830000000043">
        <ele>798.441</ele>
        <time>2022-08-24T08:19:07Z</time>
      </trkpt>
      <trkpt lat="43.10708099999959" lon="-1.2393860000000043">
        <ele>798.605</ele>
        <time>2022-08-24T08:19:08Z</time>
      </trkpt>
      <trkpt lat="43.10706899999959" lon="-1.2393870000000042">
        <ele>799.009</ele>
        <time>2022-08-24T08:19:09Z</time>
      </trkpt>
      <trkpt lat="43.10705499999959" lon="-1.2393880000000042">
        <ele>799.283</ele>
        <time>2022-08-24T08:19:10Z</time>
      </trkpt>
      <trkpt lat="43.10704299999959" lon="-1.2393880000000042">
        <ele>799.453</ele>
        <time>2022-08-24T08:19:11Z</time>
      </trkpt>
      <trkpt lat="43.107030999999594" lon="-1.239389000000004">
        <ele>799.613</ele>
        <time>2022-08-24T08:19:12Z</time>
      </trkpt>
      <trkpt lat="43.10702599999959" lon="-1.239386000000004">
        <ele>799.869</ele>
        <time>2022-08-24T08:19:13Z</time>
      </trkpt>
      <trkpt lat="43.10701199999959" lon="-1.2393850000000042">
        <ele>799.841</ele>
        <time>2022-08-24T08:19:14Z</time>
      </trkpt>
      <trkpt lat="43.10700099999959" lon="-1.2393850000000042">
        <ele>800.018</ele>
        <time>2022-08-24T08:19:15Z</time>
      </trkpt>
      <trkpt lat="43.10698999999959" lon="-1.2393850000000042">
        <ele>800.061</ele>
        <time>2022-08-24T08:19:16Z</time>
      </trkpt>
      <trkpt lat="43.10697999999959" lon="-1.2393840000000043">
        <ele>800.255</ele>
        <time>2022-08-24T08:19:17Z</time>
      </trkpt>
      <trkpt lat="43.10697399999959" lon="-1.2393850000000042">
        <ele>800.484</ele>
        <time>2022-08-24T08:19:18Z</time>
      </trkpt>
      <trkpt lat="43.10696699999959" lon="-1.2393900000000042">
        <ele>800.843</ele>
        <time>2022-08-24T08:19:19Z</time>
      </trkpt>
      <trkpt lat="43.10695699999959" lon="-1.239394000000004">
        <ele>800.864</ele>
        <time>2022-08-24T08:19:20Z</time>
      </trkpt>
      <trkpt lat="43.106946999999586" lon="-1.239395000000004">
        <ele>800.810</ele>
        <time>2022-08-24T08:19:21Z</time>
      </trkpt>
      <trkpt lat="43.10693399999958" lon="-1.239390000000004">
        <ele>801.009</ele>
        <time>2022-08-24T08:19:22Z</time>
      </trkpt>
      <trkpt lat="43.106921999999585" lon="-1.239387000000004">
        <ele>801.255</ele>
        <time>2022-08-24T08:19:23Z</time>
      </trkpt>
      <trkpt lat="43.10690999999959" lon="-1.239391000000004">
        <ele>801.465</ele>
        <time>2022-08-24T08:19:24Z</time>
      </trkpt>
      <trkpt lat="43.106896999999584" lon="-1.2393970000000039">
        <ele>801.485</ele>
        <time>2022-08-24T08:19:25Z</time>
      </trkpt>
      <trkpt lat="43.10688699999958" lon="-1.239402000000004">
        <ele>801.871</ele>
        <time>2022-08-24T08:19:26Z</time>
      </trkpt>
      <trkpt lat="43.10687699999958" lon="-1.239409000000004">
        <ele>801.853</ele>
        <time>2022-08-24T08:19:27Z</time>
      </trkpt>
      <trkpt lat="43.10686499999958" lon="-1.239415000000004">
        <ele>802.040</ele>
        <time>2022-08-24T08:19:28Z</time>
      </trkpt>
      <trkpt lat="43.10685099999958" lon="-1.239418000000004">
        <ele>802.433</ele>
        <time>2022-08-24T08:19:29Z</time>
      </trkpt>
      <trkpt lat="43.10683699999958" lon="-1.2394210000000039">
        <ele>802.667</ele>
        <time>2022-08-24T08:19:30Z</time>
      </trkpt>
      <trkpt lat="43.10682799999958" lon="-1.239423000000004">
        <ele>803.076</ele>
        <time>2022-08-24T08:19:31Z</time>
      </trkpt>
      <trkpt lat="43.10681799999958" lon="-1.239418000000004">
        <ele>803.235</ele>
        <time>2022-08-24T08:19:32Z</time>
      </trkpt>
      <trkpt lat="43.10680299999958" lon="-1.2394160000000038">
        <ele>803.286</ele>
        <time>2022-08-24T08:19:33Z</time>
      </trkpt>
      <trkpt lat="43.10679099999958" lon="-1.2394160000000038">
        <ele>803.414</ele>
        <time>2022-08-24T08:19:34Z</time>
      </trkpt>
      <trkpt lat="43.10677699999958" lon="-1.2394210000000039">
        <ele>803.609</ele>
        <time>2022-08-24T08:19:35Z</time>
      </trkpt>
      <trkpt lat="43.10676399999958" lon="-1.2394250000000038">
        <ele>803.864</ele>
        <time>2022-08-24T08:19:36Z</time>
      </trkpt>
      <trkpt lat="43.10675299999958" lon="-1.2394320000000039">
        <ele>804.254</ele>
        <time>2022-08-24T08:19:37Z</time>
      </trkpt>
      <trkpt lat="43.106742999999575" lon="-1.2394330000000038">
        <ele>804.264</ele>
        <time>2022-08-24T08:19:38Z</time>
      </trkpt>
      <trkpt lat="43.10673099999958" lon="-1.2394400000000039">
        <ele>804.490</ele>
        <time>2022-08-24T08:19:39Z</time>
      </trkpt>
      <trkpt lat="43.10671999999958" lon="-1.2394460000000038">
        <ele>804.672</ele>
        <time>2022-08-24T08:19:40Z</time>
      </trkpt>
      <trkpt lat="43.10670799999958" lon="-1.2394480000000039">
        <ele>804.629</ele>
        <time>2022-08-24T08:19:41Z</time>
      </trkpt>
      <trkpt lat="43.10669699999958" lon="-1.2394490000000038">
        <ele>804.892</ele>
        <time>2022-08-24T08:19:42Z</time>
      </trkpt>
      <trkpt lat="43.106683999999575" lon="-1.2394530000000037">
        <ele>805.066</ele>
        <time>2022-08-24T08:19:43Z</time>
      </trkpt>
      <trkpt lat="43.10667099999957" lon="-1.2394610000000037">
        <ele>805.445</ele>
        <time>2022-08-24T08:19:44Z</time>
      </trkpt>
      <trkpt lat="43.106658999999574" lon="-1.2394630000000038">
        <ele>805.285</ele>
        <time>2022-08-24T08:19:45Z</time>
      </trkpt>
      <trkpt lat="43.10664599999957" lon="-1.2394670000000036">
        <ele>805.489</ele>
        <time>2022-08-24T08:19:46Z</time>
      </trkpt>
      <trkpt lat="43.10663399999957" lon="-1.2394700000000036">
        <ele>805.617</ele>
        <time>2022-08-24T08:19:47Z</time>
      </trkpt>
      <trkpt lat="43.106624999999575" lon="-1.2394660000000037">
        <ele>805.609</ele>
        <time>2022-08-24T08:19:48Z</time>
      </trkpt>
      <trkpt lat="43.10661199999957" lon="-1.2394620000000038">
        <ele>805.689</ele>
        <time>2022-08-24T08:19:49Z</time>
      </trkpt>
      <trkpt lat="43.106599999999574" lon="-1.2394590000000039">
        <ele>805.859</ele>
        <time>2022-08-24T08:19:50Z</time>
      </trkpt>
      <trkpt lat="43.106587999999576" lon="-1.2394560000000039">
        <ele>806.029</ele>
        <time>2022-08-24T08:19:51Z</time>
      </trkpt>
      <trkpt lat="43.106576999999575" lon="-1.239455000000004">
        <ele>806.035</ele>
        <time>2022-08-24T08:19:52Z</time>
      </trkpt>
      <trkpt lat="43.10656699999957" lon="-1.239443000000004">
        <ele>806.247</ele>
        <time>2022-08-24T08:19:53Z</time>
      </trkpt>
      <trkpt lat="43.10655699999957" lon="-1.239427000000004">
        <ele>806.444</ele>
        <time>2022-08-24T08:19:54Z</time>
      </trkpt>
      <trkpt lat="43.106543999999566" lon="-1.2394150000000042">
        <ele>806.457</ele>
        <time>2022-08-24T08:19:55Z</time>
      </trkpt>
      <trkpt lat="43.10653199999957" lon="-1.2394060000000042">
        <ele>806.691</ele>
        <time>2022-08-24T08:19:56Z</time>
      </trkpt>
      <trkpt lat="43.10652399999957" lon="-1.2393970000000043">
        <ele>806.670</ele>
        <time>2022-08-24T08:19:57Z</time>
      </trkpt>
      <trkpt lat="43.106512999999566" lon="-1.2393870000000042">
        <ele>806.876</ele>
        <time>2022-08-24T08:19:58Z</time>
      </trkpt>
      <trkpt lat="43.10650099999957" lon="-1.2393740000000042">
        <ele>806.890</ele>
        <time>2022-08-24T08:19:59Z</time>
      </trkpt>
      <trkpt lat="43.10649299999957" lon="-1.239359000000004">
        <ele>806.819</ele>
        <time>2022-08-24T08:20:00Z</time>
      </trkpt>
      <trkpt lat="43.10648399999957" lon="-1.2393450000000041">
        <ele>807.009</ele>
        <time>2022-08-24T08:20:01Z</time>
      </trkpt>
      <trkpt lat="43.10647499999957" lon="-1.2393250000000042">
        <ele>807.228</ele>
        <time>2022-08-24T08:20:02Z</time>
      </trkpt>
      <trkpt lat="43.10647199999957" lon="-1.2393150000000042">
        <ele>807.228</ele>
        <time>2022-08-24T08:20:03Z</time>
      </trkpt>
      <trkpt lat="43.10647199999957" lon="-1.239308000000004">
        <ele>807.498</ele>
        <time>2022-08-24T08:20:04Z</time>
      </trkpt>
      <trkpt lat="43.10646999999957" lon="-1.2392910000000041">
        <ele>807.644</ele>
        <time>2022-08-24T08:20:05Z</time>
      </trkpt>
      <trkpt lat="43.10646899999957" lon="-1.239273000000004">
        <ele>808.026</ele>
        <time>2022-08-24T08:20:06Z</time>
      </trkpt>
      <trkpt lat="43.10646399999957" lon="-1.239257000000004">
        <ele>808.223</ele>
        <time>2022-08-24T08:20:07Z</time>
      </trkpt>
      <trkpt lat="43.10645699999957" lon="-1.239242000000004">
        <ele>808.426</ele>
        <time>2022-08-24T08:20:08Z</time>
      </trkpt>
      <trkpt lat="43.106449999999576" lon="-1.239225000000004">
        <ele>808.440</ele>
        <time>2022-08-24T08:20:09Z</time>
      </trkpt>
      <trkpt lat="43.10644399999958" lon="-1.239205000000004">
        <ele>808.639</ele>
        <time>2022-08-24T08:20:10Z</time>
      </trkpt>
      <trkpt lat="43.106435999999576" lon="-1.2391860000000041">
        <ele>808.824</ele>
        <time>2022-08-24T08:20:11Z</time>
      </trkpt>
      <trkpt lat="43.10643699999957" lon="-1.239163000000004">
        <ele>808.804</ele>
        <time>2022-08-24T08:20:12Z</time>
      </trkpt>
      <trkpt lat="43.106441999999575" lon="-1.239141000000004">
        <ele>809.014</ele>
        <time>2022-08-24T08:20:13Z</time>
      </trkpt>
      <trkpt lat="43.10644399999958" lon="-1.239119000000004">
        <ele>809.209</ele>
        <time>2022-08-24T08:20:14Z</time>
      </trkpt>
      <trkpt lat="43.10645099999957" lon="-1.239090000000004">
        <ele>809.243</ele>
        <time>2022-08-24T08:20:15Z</time>
      </trkpt>
      <trkpt lat="43.10645199999957" lon="-1.239065000000004">
        <ele>809.423</ele>
        <time>2022-08-24T08:20:16Z</time>
      </trkpt>
      <trkpt lat="43.10645299999957" lon="-1.239036000000004">
        <ele>809.653</ele>
        <time>2022-08-24T08:20:17Z</time>
      </trkpt>
      <trkpt lat="43.10645299999957" lon="-1.239013000000004">
        <ele>809.689</ele>
        <time>2022-08-24T08:20:18Z</time>
      </trkpt>
      <trkpt lat="43.10644899999957" lon="-1.2389950000000038">
        <ele>809.861</ele>
        <time>2022-08-24T08:20:19Z</time>
      </trkpt>
      <trkpt lat="43.106447999999574" lon="-1.2389730000000039">
        <ele>810.078</ele>
        <time>2022-08-24T08:20:20Z</time>
      </trkpt>
      <trkpt lat="43.10644599999957" lon="-1.238953000000004">
        <ele>810.221</ele>
        <time>2022-08-24T08:20:21Z</time>
      </trkpt>
      <trkpt lat="43.10644299999957" lon="-1.238928000000004">
        <ele>810.475</ele>
        <time>2022-08-24T08:20:22Z</time>
      </trkpt>
      <trkpt lat="43.10644299999957" lon="-1.2389080000000041">
        <ele>810.624</ele>
        <time>2022-08-24T08:20:23Z</time>
      </trkpt>
      <trkpt lat="43.106444999999574" lon="-1.238885000000004">
        <ele>810.842</ele>
        <time>2022-08-24T08:20:24Z</time>
      </trkpt>
      <trkpt lat="43.10644299999957" lon="-1.238866000000004">
        <ele>811.022</ele>
        <time>2022-08-24T08:20:25Z</time>
      </trkpt>
      <trkpt lat="43.106441999999575" lon="-1.238845000000004">
        <ele>811.014</ele>
        <time>2022-08-24T08:20:26Z</time>
      </trkpt>
      <trkpt lat="43.106438999999575" lon="-1.2388300000000039">
        <ele>811.209</ele>
        <time>2022-08-24T08:20:27Z</time>
      </trkpt>
      <trkpt lat="43.10643799999958" lon="-1.238805000000004">
        <ele>811.475</ele>
        <time>2022-08-24T08:20:28Z</time>
      </trkpt>
      <trkpt lat="43.10643999999958" lon="-1.238781000000004">
        <ele>811.625</ele>
        <time>2022-08-24T08:20:29Z</time>
      </trkpt>
      <trkpt lat="43.10644099999958" lon="-1.238756000000004">
        <ele>812.045</ele>
        <time>2022-08-24T08:20:30Z</time>
      </trkpt>
      <trkpt lat="43.10643799999958" lon="-1.238735000000004">
        <ele>812.051</ele>
        <time>2022-08-24T08:20:31Z</time>
      </trkpt>
      <trkpt lat="43.106435999999576" lon="-1.238715000000004">
        <ele>812.243</ele>
        <time>2022-08-24T08:20:32Z</time>
      </trkpt>
      <trkpt lat="43.106435999999576" lon="-1.238692000000004">
        <ele>812.280</ele>
        <time>2022-08-24T08:20:33Z</time>
      </trkpt>
      <trkpt lat="43.106432999999576" lon="-1.2386690000000038">
        <ele>812.453</ele>
        <time>2022-08-24T08:20:34Z</time>
      </trkpt>
      <trkpt lat="43.10642899999958" lon="-1.2386480000000037">
        <ele>812.647</ele>
        <time>2022-08-24T08:20:35Z</time>
      </trkpt>
      <trkpt lat="43.10642499999958" lon="-1.2386270000000037">
        <ele>812.876</ele>
        <time>2022-08-24T08:20:36Z</time>
      </trkpt>
      <trkpt lat="43.106420999999585" lon="-1.2386030000000037">
        <ele>812.859</ele>
        <time>2022-08-24T08:20:37Z</time>
      </trkpt>
      <trkpt lat="43.10641699999959" lon="-1.2385780000000037">
        <ele>813.003</ele>
        <time>2022-08-24T08:20:38Z</time>
      </trkpt>
      <trkpt lat="43.10641199999959" lon="-1.2385580000000038">
        <ele>813.023</ele>
        <time>2022-08-24T08:20:39Z</time>
      </trkpt>
      <trkpt lat="43.10641099999959" lon="-1.2385350000000037">
        <ele>813.009</ele>
        <time>2022-08-24T08:20:40Z</time>
      </trkpt>
      <trkpt lat="43.10640399999959" lon="-1.2385160000000037">
        <ele>813.216</ele>
        <time>2022-08-24T08:20:41Z</time>
      </trkpt>
      <trkpt lat="43.106402999999595" lon="-1.2384930000000036">
        <ele>813.446</ele>
        <time>2022-08-24T08:20:42Z</time>
      </trkpt>
      <trkpt lat="43.1064019999996" lon="-1.2384710000000037">
        <ele>813.446</ele>
        <time>2022-08-24T08:20:43Z</time>
      </trkpt>
      <trkpt lat="43.1064019999996" lon="-1.2384440000000037">
        <ele>813.842</ele>
        <time>2022-08-24T08:20:44Z</time>
      </trkpt>
      <trkpt lat="43.1063979999996" lon="-1.2384250000000037">
        <ele>814.284</ele>
        <time>2022-08-24T08:20:45Z</time>
      </trkpt>
      <trkpt lat="43.1063919999996" lon="-1.2384050000000038">
        <ele>814.461</ele>
        <time>2022-08-24T08:20:46Z</time>
      </trkpt>
      <trkpt lat="43.1063929999996" lon="-1.2383870000000037">
        <ele>814.674</ele>
        <time>2022-08-24T08:20:47Z</time>
      </trkpt>
      <trkpt lat="43.1063919999996" lon="-1.2383650000000037">
        <ele>814.648</ele>
        <time>2022-08-24T08:20:48Z</time>
      </trkpt>
      <trkpt lat="43.106390999999604" lon="-1.2383430000000037">
        <ele>814.867</ele>
        <time>2022-08-24T08:20:49Z</time>
      </trkpt>
      <trkpt lat="43.10638699999961" lon="-1.2383180000000038">
        <ele>814.891</ele>
        <time>2022-08-24T08:20:50Z</time>
      </trkpt>
      <trkpt lat="43.10638399999961" lon="-1.2382960000000038">
        <ele>815.081</ele>
        <time>2022-08-24T08:20:51Z</time>
      </trkpt>
      <trkpt lat="43.10638099999961" lon="-1.238279000000004">
        <ele>815.019</ele>
        <time>2022-08-24T08:20:52Z</time>
      </trkpt>
      <trkpt lat="43.10637799999961" lon="-1.238257000000004">
        <ele>815.209</ele>
        <time>2022-08-24T08:20:53Z</time>
      </trkpt>
      <trkpt lat="43.10637299999961" lon="-1.238236000000004">
        <ele>815.230</ele>
        <time>2022-08-24T08:20:54Z</time>
      </trkpt>
      <trkpt lat="43.10636899999961" lon="-1.238216000000004">
        <ele>815.460</ele>
        <time>2022-08-24T08:20:55Z</time>
      </trkpt>
      <trkpt lat="43.10636199999961" lon="-1.2381930000000039">
        <ele>815.430</ele>
        <time>2022-08-24T08:20:56Z</time>
      </trkpt>
      <trkpt lat="43.10636299999961" lon="-1.2381740000000039">
        <ele>815.656</ele>
        <time>2022-08-24T08:20:57Z</time>
      </trkpt>
      <trkpt lat="43.10635399999961" lon="-1.2381560000000038">
        <ele>815.828</ele>
        <time>2022-08-24T08:20:58Z</time>
      </trkpt>
      <trkpt lat="43.10634399999961" lon="-1.2381400000000038">
        <ele>816.095</ele>
        <time>2022-08-24T08:20:59Z</time>
      </trkpt>
      <trkpt lat="43.10633499999961" lon="-1.2381170000000037">
        <ele>816.298</ele>
        <time>2022-08-24T08:21:00Z</time>
      </trkpt>
      <trkpt lat="43.10632899999961" lon="-1.2380950000000037">
        <ele>816.482</ele>
        <time>2022-08-24T08:21:01Z</time>
      </trkpt>
      <trkpt lat="43.10632099999961" lon="-1.2380770000000036">
        <ele>816.461</ele>
        <time>2022-08-24T08:21:02Z</time>
      </trkpt>
      <trkpt lat="43.106313999999614" lon="-1.2380670000000036">
        <ele>816.452</ele>
        <time>2022-08-24T08:21:03Z</time>
      </trkpt>
      <trkpt lat="43.106301999999616" lon="-1.2380540000000035">
        <ele>816.653</ele>
        <time>2022-08-24T08:21:04Z</time>
      </trkpt>
      <trkpt lat="43.106287999999616" lon="-1.2380440000000035">
        <ele>816.608</ele>
        <time>2022-08-24T08:21:05Z</time>
      </trkpt>
      <trkpt lat="43.10627199999961" lon="-1.2380280000000035">
        <ele>817.009</ele>
        <time>2022-08-24T08:21:06Z</time>
      </trkpt>
      <trkpt lat="43.10625899999961" lon="-1.2380140000000035">
        <ele>817.026</ele>
        <time>2022-08-24T08:21:07Z</time>
      </trkpt>
      <trkpt lat="43.10624999999961" lon="-1.2380040000000034">
        <ele>817.446</ele>
        <time>2022-08-24T08:21:08Z</time>
      </trkpt>
      <trkpt lat="43.106234999999614" lon="-1.2379920000000035">
        <ele>817.676</ele>
        <time>2022-08-24T08:21:09Z</time>
      </trkpt>
      <trkpt lat="43.10621599999961" lon="-1.2379810000000036">
        <ele>817.662</ele>
        <time>2022-08-24T08:21:10Z</time>
      </trkpt>
      <trkpt lat="43.106200999999615" lon="-1.2379730000000035">
        <ele>817.824</ele>
        <time>2022-08-24T08:21:11Z</time>
      </trkpt>
      <trkpt lat="43.10618799999961" lon="-1.2379660000000035">
        <ele>817.851</ele>
        <time>2022-08-24T08:21:12Z</time>
      </trkpt>
      <trkpt lat="43.10617799999961" lon="-1.2379600000000035">
        <ele>818.064</ele>
        <time>2022-08-24T08:21:13Z</time>
      </trkpt>
      <trkpt lat="43.10616299999961" lon="-1.2379560000000036">
        <ele>818.218</ele>
        <time>2022-08-24T08:21:14Z</time>
      </trkpt>
      <trkpt lat="43.10614899999961" lon="-1.2379500000000037">
        <ele>818.417</ele>
        <time>2022-08-24T08:21:15Z</time>
      </trkpt>
      <trkpt lat="43.10613299999961" lon="-1.2379400000000036">
        <ele>818.875</ele>
        <time>2022-08-24T08:21:16Z</time>
      </trkpt>
      <trkpt lat="43.10612099999961" lon="-1.2379310000000037">
        <ele>818.828</ele>
        <time>2022-08-24T08:21:17Z</time>
      </trkpt>
      <trkpt lat="43.10610699999961" lon="-1.2379220000000037">
        <ele>819.020</ele>
        <time>2022-08-24T08:21:18Z</time>
      </trkpt>
      <trkpt lat="43.10608999999961" lon="-1.2379160000000038">
        <ele>819.209</ele>
        <time>2022-08-24T08:21:19Z</time>
      </trkpt>
      <trkpt lat="43.10607499999961" lon="-1.2379140000000037">
        <ele>819.438</ele>
        <time>2022-08-24T08:21:20Z</time>
      </trkpt>
      <trkpt lat="43.10606099999961" lon="-1.2379100000000038">
        <ele>819.668</ele>
        <time>2022-08-24T08:21:21Z</time>
      </trkpt>
      <trkpt lat="43.10604499999961" lon="-1.237906000000004">
        <ele>819.858</ele>
        <time>2022-08-24T08:21:22Z</time>
      </trkpt>
      <trkpt lat="43.10603499999961" lon="-1.237903000000004">
        <ele>820.084</ele>
        <time>2022-08-24T08:21:23Z</time>
      </trkpt>
      <trkpt lat="43.10602299999961" lon="-1.237899000000004">
        <ele>820.046</ele>
        <time>2022-08-24T08:21:24Z</time>
      </trkpt>
      <trkpt lat="43.10600899999961" lon="-1.237896000000004">
        <ele>820.483</ele>
        <time>2022-08-24T08:21:25Z</time>
      </trkpt>
      <trkpt lat="43.10599299999961" lon="-1.2378950000000042">
        <ele>820.696</ele>
        <time>2022-08-24T08:21:26Z</time>
      </trkpt>
      <trkpt lat="43.105979999999605" lon="-1.237896000000004">
        <ele>820.630</ele>
        <time>2022-08-24T08:21:27Z</time>
      </trkpt>
      <trkpt lat="43.1059699999996" lon="-1.2378920000000042">
        <ele>821.029</ele>
        <time>2022-08-24T08:21:28Z</time>
      </trkpt>
      <trkpt lat="43.1059569999996" lon="-1.2378900000000042">
        <ele>821.298</ele>
        <time>2022-08-24T08:21:29Z</time>
      </trkpt>
      <trkpt lat="43.105943999999596" lon="-1.237891000000004">
        <ele>821.215</ele>
        <time>2022-08-24T08:21:30Z</time>
      </trkpt>
      <trkpt lat="43.1059289999996" lon="-1.2378930000000041">
        <ele>821.626</ele>
        <time>2022-08-24T08:21:31Z</time>
      </trkpt>
      <trkpt lat="43.105915999999596" lon="-1.2378920000000042">
        <ele>821.809</ele>
        <time>2022-08-24T08:21:32Z</time>
      </trkpt>
      <trkpt lat="43.105901999999595" lon="-1.2378910000000043">
        <ele>822.050</ele>
        <time>2022-08-24T08:21:33Z</time>
      </trkpt>
      <trkpt lat="43.105890999999595" lon="-1.2378890000000042">
        <ele>822.050</ele>
        <time>2022-08-24T08:21:34Z</time>
      </trkpt>
      <trkpt lat="43.10587199999959" lon="-1.2378890000000042">
        <ele>822.280</ele>
        <time>2022-08-24T08:21:35Z</time>
      </trkpt>
      <trkpt lat="43.10586199999959" lon="-1.2378920000000042">
        <ele>822.236</ele>
        <time>2022-08-24T08:21:36Z</time>
      </trkpt>
      <trkpt lat="43.10584199999959" lon="-1.2378980000000042">
        <ele>822.428</ele>
        <time>2022-08-24T08:21:37Z</time>
      </trkpt>
      <trkpt lat="43.10582599999959" lon="-1.237899000000004">
        <ele>822.675</ele>
        <time>2022-08-24T08:21:38Z</time>
      </trkpt>
      <trkpt lat="43.10581399999959" lon="-1.237899000000004">
        <ele>822.688</ele>
        <time>2022-08-24T08:21:39Z</time>
      </trkpt>
      <trkpt lat="43.10580199999959" lon="-1.237899000000004">
        <ele>822.862</ele>
        <time>2022-08-24T08:21:40Z</time>
      </trkpt>
      <trkpt lat="43.10578899999959" lon="-1.237903000000004">
        <ele>823.031</ele>
        <time>2022-08-24T08:21:41Z</time>
      </trkpt>
      <trkpt lat="43.10577199999959" lon="-1.237906000000004">
        <ele>823.481</ele>
        <time>2022-08-24T08:21:42Z</time>
      </trkpt>
      <trkpt lat="43.10575899999959" lon="-1.237909000000004">
        <ele>823.661</ele>
        <time>2022-08-24T08:21:43Z</time>
      </trkpt>
      <trkpt lat="43.10574699999959" lon="-1.2379100000000038">
        <ele>823.817</ele>
        <time>2022-08-24T08:21:44Z</time>
      </trkpt>
      <trkpt lat="43.10573299999959" lon="-1.2379140000000037">
        <ele>824.009</ele>
        <time>2022-08-24T08:21:45Z</time>
      </trkpt>
      <trkpt lat="43.10571899999959" lon="-1.2379190000000038">
        <ele>824.029</ele>
        <time>2022-08-24T08:21:46Z</time>
      </trkpt>
      <trkpt lat="43.10569999999959" lon="-1.2379270000000038">
        <ele>824.269</ele>
        <time>2022-08-24T08:21:47Z</time>
      </trkpt>
      <trkpt lat="43.10568499999959" lon="-1.2379340000000039">
        <ele>824.619</ele>
        <time>2022-08-24T08:21:48Z</time>
      </trkpt>
      <trkpt lat="43.10567099999959" lon="-1.237939000000004">
        <ele>824.675</ele>
        <time>2022-08-24T08:21:49Z</time>
      </trkpt>
      <trkpt lat="43.10565899999959" lon="-1.2379450000000038">
        <ele>824.817</ele>
        <time>2022-08-24T08:21:50Z</time>
      </trkpt>
      <trkpt lat="43.10564899999959" lon="-1.2379500000000039">
        <ele>825.074</ele>
        <time>2022-08-24T08:21:51Z</time>
      </trkpt>
      <trkpt lat="43.10563499999959" lon="-1.2379560000000038">
        <ele>825.227</ele>
        <time>2022-08-24T08:21:52Z</time>
      </trkpt>
      <trkpt lat="43.10562099999959" lon="-1.2379620000000038">
        <ele>825.251</ele>
        <time>2022-08-24T08:21:53Z</time>
      </trkpt>
      <trkpt lat="43.105607999999584" lon="-1.2379700000000038">
        <ele>825.460</ele>
        <time>2022-08-24T08:21:54Z</time>
      </trkpt>
      <trkpt lat="43.105596999999584" lon="-1.2379760000000037">
        <ele>825.612</ele>
        <time>2022-08-24T08:21:55Z</time>
      </trkpt>
      <trkpt lat="43.10558399999958" lon="-1.2379820000000037">
        <ele>825.632</ele>
        <time>2022-08-24T08:21:56Z</time>
      </trkpt>
      <trkpt lat="43.10557199999958" lon="-1.2379910000000036">
        <ele>825.805</ele>
        <time>2022-08-24T08:21:57Z</time>
      </trkpt>
      <trkpt lat="43.10555799999958" lon="-1.2380060000000037">
        <ele>825.809</ele>
        <time>2022-08-24T08:21:58Z</time>
      </trkpt>
      <trkpt lat="43.10554699999958" lon="-1.2380170000000037">
        <ele>826.272</ele>
        <time>2022-08-24T08:21:59Z</time>
      </trkpt>
      <trkpt lat="43.10554099999958" lon="-1.2380240000000038">
        <ele>826.432</ele>
        <time>2022-08-24T08:22:00Z</time>
      </trkpt>
      <trkpt lat="43.10552799999958" lon="-1.2380350000000038">
        <ele>826.642</ele>
        <time>2022-08-24T08:22:01Z</time>
      </trkpt>
      <trkpt lat="43.10551699999958" lon="-1.2380430000000038">
        <ele>826.898</ele>
        <time>2022-08-24T08:22:02Z</time>
      </trkpt>
      <trkpt lat="43.10550399999958" lon="-1.2380550000000037">
        <ele>827.020</ele>
        <time>2022-08-24T08:22:03Z</time>
      </trkpt>
      <trkpt lat="43.105493999999574" lon="-1.2380650000000037">
        <ele>827.257</ele>
        <time>2022-08-24T08:22:04Z</time>
      </trkpt>
      <trkpt lat="43.105481999999576" lon="-1.2380750000000038">
        <ele>827.440</ele>
        <time>2022-08-24T08:22:05Z</time>
      </trkpt>
      <trkpt lat="43.10547199999957" lon="-1.2380840000000037">
        <ele>827.684</ele>
        <time>2022-08-24T08:22:06Z</time>
      </trkpt>
      <trkpt lat="43.10545899999957" lon="-1.2380950000000037">
        <ele>827.863</ele>
        <time>2022-08-24T08:22:07Z</time>
      </trkpt>
      <trkpt lat="43.10544699999957" lon="-1.2381100000000038">
        <ele>828.086</ele>
        <time>2022-08-24T08:22:08Z</time>
      </trkpt>
      <trkpt lat="43.10543599999957" lon="-1.2381200000000039">
        <ele>828.260</ele>
        <time>2022-08-24T08:22:09Z</time>
      </trkpt>
      <trkpt lat="43.10542599999957" lon="-1.2381310000000039">
        <ele>828.226</ele>
        <time>2022-08-24T08:22:10Z</time>
      </trkpt>
      <trkpt lat="43.10541499999957" lon="-1.238141000000004">
        <ele>828.409</ele>
        <time>2022-08-24T08:22:11Z</time>
      </trkpt>
      <trkpt lat="43.10540399999957" lon="-1.2381530000000038">
        <ele>828.459</ele>
        <time>2022-08-24T08:22:12Z</time>
      </trkpt>
      <trkpt lat="43.105392999999566" lon="-1.2381650000000037">
        <ele>828.489</ele>
        <time>2022-08-24T08:22:13Z</time>
      </trkpt>
      <trkpt lat="43.10537999999956" lon="-1.2381780000000038">
        <ele>828.699</ele>
        <time>2022-08-24T08:22:14Z</time>
      </trkpt>
      <trkpt lat="43.10537199999956" lon="-1.2381850000000039">
        <ele>828.885</ele>
        <time>2022-08-24T08:22:15Z</time>
      </trkpt>
      <trkpt lat="43.10536099999956" lon="-1.2381990000000038">
        <ele>828.847</ele>
        <time>2022-08-24T08:22:16Z</time>
      </trkpt>
      <trkpt lat="43.10534999999956" lon="-1.238214000000004">
        <ele>829.094</ele>
        <time>2022-08-24T08:22:17Z</time>
      </trkpt>
      <trkpt lat="43.10533699999956" lon="-1.238227000000004">
        <ele>829.057</ele>
        <time>2022-08-24T08:22:18Z</time>
      </trkpt>
      <trkpt lat="43.10532299999956" lon="-1.238242000000004">
        <ele>829.241</ele>
        <time>2022-08-24T08:22:19Z</time>
      </trkpt>
      <trkpt lat="43.10531099999956" lon="-1.238254000000004">
        <ele>829.280</ele>
        <time>2022-08-24T08:22:20Z</time>
      </trkpt>
      <trkpt lat="43.10530099999956" lon="-1.238268000000004">
        <ele>829.472</ele>
        <time>2022-08-24T08:22:21Z</time>
      </trkpt>
      <trkpt lat="43.10529399999956" lon="-1.238279000000004">
        <ele>829.613</ele>
        <time>2022-08-24T08:22:22Z</time>
      </trkpt>
      <trkpt lat="43.10528299999956" lon="-1.2382910000000038">
        <ele>829.814</ele>
        <time>2022-08-24T08:22:23Z</time>
      </trkpt>
      <trkpt lat="43.10526899999956" lon="-1.2383070000000038">
        <ele>829.809</ele>
        <time>2022-08-24T08:22:24Z</time>
      </trkpt>
      <trkpt lat="43.10525599999956" lon="-1.2383200000000039">
        <ele>829.828</ele>
        <time>2022-08-24T08:22:25Z</time>
      </trkpt>
      <trkpt lat="43.105244999999556" lon="-1.2383310000000038">
        <ele>830.228</ele>
        <time>2022-08-24T08:22:26Z</time>
      </trkpt>
      <trkpt lat="43.10523599999956" lon="-1.2383420000000038">
        <ele>830.228</ele>
        <time>2022-08-24T08:22:27Z</time>
      </trkpt>
      <trkpt lat="43.10522399999956" lon="-1.2383560000000038">
        <ele>830.494</ele>
        <time>2022-08-24T08:22:28Z</time>
      </trkpt>
      <trkpt lat="43.10520899999956" lon="-1.2383740000000039">
        <ele>830.636</ele>
        <time>2022-08-24T08:22:29Z</time>
      </trkpt>
      <trkpt lat="43.10519499999956" lon="-1.2383880000000038">
        <ele>830.883</ele>
        <time>2022-08-24T08:22:30Z</time>
      </trkpt>
      <trkpt lat="43.10518199999956" lon="-1.2384010000000039">
        <ele>830.826</ele>
        <time>2022-08-24T08:22:31Z</time>
      </trkpt>
      <trkpt lat="43.10517099999956" lon="-1.2384150000000038">
        <ele>830.820</ele>
        <time>2022-08-24T08:22:32Z</time>
      </trkpt>
      <trkpt lat="43.10516299999956" lon="-1.2384240000000037">
        <ele>830.869</ele>
        <time>2022-08-24T08:22:33Z</time>
      </trkpt>
      <trkpt lat="43.105152999999554" lon="-1.2384370000000038">
        <ele>831.055</ele>
        <time>2022-08-24T08:22:34Z</time>
      </trkpt>
      <trkpt lat="43.105140999999556" lon="-1.2384520000000039">
        <ele>831.007</ele>
        <time>2022-08-24T08:22:35Z</time>
      </trkpt>
      <trkpt lat="43.10513099999955" lon="-1.238465000000004">
        <ele>831.217</ele>
        <time>2022-08-24T08:22:36Z</time>
      </trkpt>
      <trkpt lat="43.10511999999955" lon="-1.238478000000004">
        <ele>831.409</ele>
        <time>2022-08-24T08:22:37Z</time>
      </trkpt>
      <trkpt lat="43.10510899999955" lon="-1.238488000000004">
        <ele>831.476</ele>
        <time>2022-08-24T08:22:38Z</time>
      </trkpt>
      <trkpt lat="43.10509599999955" lon="-1.238500000000004">
        <ele>831.426</ele>
        <time>2022-08-24T08:22:39Z</time>
      </trkpt>
      <trkpt lat="43.10508199999955" lon="-1.2385120000000038">
        <ele>831.626</ele>
        <time>2022-08-24T08:22:40Z</time>
      </trkpt>
      <trkpt lat="43.10506699999955" lon="-1.2385280000000038">
        <ele>831.822</ele>
        <time>2022-08-24T08:22:41Z</time>
      </trkpt>
      <trkpt lat="43.10505799999955" lon="-1.238538000000004">
        <ele>831.884</ele>
        <time>2022-08-24T08:22:42Z</time>
      </trkpt>
      <trkpt lat="43.105045999999554" lon="-1.238551000000004">
        <ele>832.011</ele>
        <time>2022-08-24T08:22:43Z</time>
      </trkpt>
      <trkpt lat="43.10503299999955" lon="-1.2385630000000039">
        <ele>832.074</ele>
        <time>2022-08-24T08:22:44Z</time>
      </trkpt>
      <trkpt lat="43.10502399999955" lon="-1.2385770000000038">
        <ele>832.498</ele>
        <time>2022-08-24T08:22:45Z</time>
      </trkpt>
      <trkpt lat="43.10501099999955" lon="-1.2385970000000037">
        <ele>832.657</ele>
        <time>2022-08-24T08:22:46Z</time>
      </trkpt>
      <trkpt lat="43.10500099999955" lon="-1.2386130000000037">
        <ele>832.634</ele>
        <time>2022-08-24T08:22:47Z</time>
      </trkpt>
      <trkpt lat="43.10498699999955" lon="-1.2386280000000038">
        <ele>832.655</ele>
        <time>2022-08-24T08:22:48Z</time>
      </trkpt>
      <trkpt lat="43.10497699999954" lon="-1.238638000000004">
        <ele>832.810</ele>
        <time>2022-08-24T08:22:49Z</time>
      </trkpt>
      <trkpt lat="43.104964999999545" lon="-1.238651000000004">
        <ele>832.809</ele>
        <time>2022-08-24T08:22:50Z</time>
      </trkpt>
      <trkpt lat="43.104947999999546" lon="-1.238669000000004">
        <ele>832.834</ele>
        <time>2022-08-24T08:22:51Z</time>
      </trkpt>
      <trkpt lat="43.10493799999954" lon="-1.238683000000004">
        <ele>833.244</ele>
        <time>2022-08-24T08:22:52Z</time>
      </trkpt>
      <trkpt lat="43.10492399999954" lon="-1.238700000000004">
        <ele>833.294</ele>
        <time>2022-08-24T08:22:53Z</time>
      </trkpt>
      <trkpt lat="43.10491099999954" lon="-1.2387120000000038">
        <ele>833.450</ele>
        <time>2022-08-24T08:22:54Z</time>
      </trkpt>
      <trkpt lat="43.10489699999954" lon="-1.2387280000000038">
        <ele>833.462</ele>
        <time>2022-08-24T08:22:55Z</time>
      </trkpt>
      <trkpt lat="43.10487899999954" lon="-1.238746000000004">
        <ele>833.649</ele>
        <time>2022-08-24T08:22:56Z</time>
      </trkpt>
      <trkpt lat="43.10486499999954" lon="-1.2387630000000038">
        <ele>833.642</ele>
        <time>2022-08-24T08:22:57Z</time>
      </trkpt>
      <trkpt lat="43.10485199999954" lon="-1.2387800000000038">
        <ele>833.856</ele>
        <time>2022-08-24T08:22:58Z</time>
      </trkpt>
      <trkpt lat="43.10483799999954" lon="-1.2387970000000037">
        <ele>834.075</ele>
        <time>2022-08-24T08:22:59Z</time>
      </trkpt>
      <trkpt lat="43.10482099999954" lon="-1.2388140000000036">
        <ele>834.234</ele>
        <time>2022-08-24T08:23:00Z</time>
      </trkpt>
      <trkpt lat="43.10480499999954" lon="-1.2388300000000037">
        <ele>834.255</ele>
        <time>2022-08-24T08:23:01Z</time>
      </trkpt>
      <trkpt lat="43.10479099999954" lon="-1.2388460000000037">
        <ele>834.410</ele>
        <time>2022-08-24T08:23:02Z</time>
      </trkpt>
      <trkpt lat="43.104777999999534" lon="-1.2388630000000036">
        <ele>834.609</ele>
        <time>2022-08-24T08:23:03Z</time>
      </trkpt>
      <trkpt lat="43.104763999999534" lon="-1.2388810000000037">
        <ele>834.614</ele>
        <time>2022-08-24T08:23:04Z</time>
      </trkpt>
      <trkpt lat="43.10474799999953" lon="-1.2388990000000037">
        <ele>834.684</ele>
        <time>2022-08-24T08:23:05Z</time>
      </trkpt>
      <trkpt lat="43.10473099999953" lon="-1.2389140000000038">
        <ele>834.844</ele>
        <time>2022-08-24T08:23:06Z</time>
      </trkpt>
      <trkpt lat="43.10471699999953" lon="-1.238929000000004">
        <ele>834.880</ele>
        <time>2022-08-24T08:23:07Z</time>
      </trkpt>
      <trkpt lat="43.104704999999534" lon="-1.238944000000004">
        <ele>834.892</ele>
        <time>2022-08-24T08:23:08Z</time>
      </trkpt>
      <trkpt lat="43.104689999999536" lon="-1.2389590000000041">
        <ele>835.089</ele>
        <time>2022-08-24T08:23:09Z</time>
      </trkpt>
      <trkpt lat="43.104678999999535" lon="-1.2389750000000042">
        <ele>835.052</ele>
        <time>2022-08-24T08:23:10Z</time>
      </trkpt>
      <trkpt lat="43.104664999999535" lon="-1.2389910000000042">
        <ele>835.076</ele>
        <time>2022-08-24T08:23:11Z</time>
      </trkpt>
      <trkpt lat="43.10464999999954" lon="-1.2390060000000043">
        <ele>835.485</ele>
        <time>2022-08-24T08:23:12Z</time>
      </trkpt>
      <trkpt lat="43.104633999999535" lon="-1.2390250000000043">
        <ele>835.436</ele>
        <time>2022-08-24T08:23:13Z</time>
      </trkpt>
      <trkpt lat="43.10462199999954" lon="-1.2390420000000042">
        <ele>835.617</ele>
        <time>2022-08-24T08:23:14Z</time>
      </trkpt>
      <trkpt lat="43.104608999999535" lon="-1.2390590000000041">
        <ele>835.618</ele>
        <time>2022-08-24T08:23:15Z</time>
      </trkpt>
      <trkpt lat="43.104597999999534" lon="-1.2390750000000041">
        <ele>835.609</ele>
        <time>2022-08-24T08:23:16Z</time>
      </trkpt>
      <trkpt lat="43.104582999999536" lon="-1.239092000000004">
        <ele>835.874</ele>
        <time>2022-08-24T08:23:17Z</time>
      </trkpt>
      <trkpt lat="43.104566999999534" lon="-1.239108000000004">
        <ele>835.814</ele>
        <time>2022-08-24T08:23:18Z</time>
      </trkpt>
      <trkpt lat="43.104551999999536" lon="-1.239122000000004">
        <ele>836.054</ele>
        <time>2022-08-24T08:23:19Z</time>
      </trkpt>
      <trkpt lat="43.104535999999534" lon="-1.239138000000004">
        <ele>836.040</ele>
        <time>2022-08-24T08:23:20Z</time>
      </trkpt>
      <trkpt lat="43.10452299999953" lon="-1.239157000000004">
        <ele>836.022</ele>
        <time>2022-08-24T08:23:21Z</time>
      </trkpt>
      <trkpt lat="43.10450999999953" lon="-1.239177000000004">
        <ele>836.279</ele>
        <time>2022-08-24T08:23:22Z</time>
      </trkpt>
      <trkpt lat="43.10449799999953" lon="-1.239195000000004">
        <ele>836.232</ele>
        <time>2022-08-24T08:23:23Z</time>
      </trkpt>
      <trkpt lat="43.10448399999953" lon="-1.239214000000004">
        <ele>836.486</ele>
        <time>2022-08-24T08:23:24Z</time>
      </trkpt>
      <trkpt lat="43.10446899999953" lon="-1.239233000000004">
        <ele>836.465</ele>
        <time>2022-08-24T08:23:25Z</time>
      </trkpt>
      <trkpt lat="43.10443599999953" lon="-1.239274000000004">
        <ele>836.677</ele>
        <time>2022-08-24T08:23:27Z</time>
      </trkpt>
      <trkpt lat="43.10434399999953" lon="-1.239374000000004">
        <ele>836.861</ele>
        <time>2022-08-24T08:23:32Z</time>
      </trkpt>
      <trkpt lat="43.10432499999953" lon="-1.239393000000004">
        <ele>836.827</ele>
        <time>2022-08-24T08:23:33Z</time>
      </trkpt>
      <trkpt lat="43.104201999999525" lon="-1.239508000000004">
        <ele>837.209</ele>
        <time>2022-08-24T08:23:39Z</time>
      </trkpt>
      <trkpt lat="43.10418099999953" lon="-1.239524000000004">
        <ele>837.278</ele>
        <time>2022-08-24T08:23:40Z</time>
      </trkpt>
      <trkpt lat="43.10415999999953" lon="-1.239537000000004">
        <ele>837.238</ele>
        <time>2022-08-24T08:23:41Z</time>
      </trkpt>
      <trkpt lat="43.104141999999534" lon="-1.2395500000000041">
        <ele>837.248</ele>
        <time>2022-08-24T08:23:42Z</time>
      </trkpt>
      <trkpt lat="43.104051999999534" lon="-1.2396200000000042">
        <ele>837.294</ele>
        <time>2022-08-24T08:23:46Z</time>
      </trkpt>
      <trkpt lat="43.104031999999535" lon="-1.2396390000000042">
        <ele>837.256</ele>
        <time>2022-08-24T08:23:47Z</time>
      </trkpt>
      <trkpt lat="43.104011999999535" lon="-1.2396540000000043">
        <ele>837.423</ele>
        <time>2022-08-24T08:23:48Z</time>
      </trkpt>
      <trkpt lat="43.10399099999954" lon="-1.2396680000000042">
        <ele>837.446</ele>
        <time>2022-08-24T08:23:49Z</time>
      </trkpt>
      <trkpt lat="43.10397099999954" lon="-1.2396830000000043">
        <ele>837.840</ele>
        <time>2022-08-24T08:23:50Z</time>
      </trkpt>
      <trkpt lat="43.10394999999954" lon="-1.2396940000000043">
        <ele>837.679</ele>
        <time>2022-08-24T08:23:51Z</time>
      </trkpt>
      <trkpt lat="43.10392799999954" lon="-1.2397060000000042">
        <ele>837.612</ele>
        <time>2022-08-24T08:23:52Z</time>
      </trkpt>
      <trkpt lat="43.103906999999545" lon="-1.2397210000000043">
        <ele>837.832</ele>
        <time>2022-08-24T08:23:53Z</time>
      </trkpt>
      <trkpt lat="43.10382899999954" lon="-1.2397690000000043">
        <ele>838.005</ele>
        <time>2022-08-24T08:23:57Z</time>
      </trkpt>
      <trkpt lat="43.10380899999954" lon="-1.2397800000000043">
        <ele>838.209</ele>
        <time>2022-08-24T08:23:58Z</time>
      </trkpt>
      <trkpt lat="43.10378799999955" lon="-1.2397900000000044">
        <ele>838.292</ele>
        <time>2022-08-24T08:23:59Z</time>
      </trkpt>
      <trkpt lat="43.10377099999955" lon="-1.2397990000000043">
        <ele>838.472</ele>
        <time>2022-08-24T08:24:00Z</time>
      </trkpt>
      <trkpt lat="43.10372599999955" lon="-1.2398200000000044">
        <ele>838.442</ele>
        <time>2022-08-24T08:24:02Z</time>
      </trkpt>
      <trkpt lat="43.10368599999955" lon="-1.2398370000000043">
        <ele>838.658</ele>
        <time>2022-08-24T08:24:04Z</time>
      </trkpt>
      <trkpt lat="43.10366399999955" lon="-1.2398460000000042">
        <ele>838.860</ele>
        <time>2022-08-24T08:24:05Z</time>
      </trkpt>
      <trkpt lat="43.10364299999955" lon="-1.2398530000000043">
        <ele>838.887</ele>
        <time>2022-08-24T08:24:06Z</time>
      </trkpt>
      <trkpt lat="43.10362099999955" lon="-1.2398610000000043">
        <ele>839.060</ele>
        <time>2022-08-24T08:24:07Z</time>
      </trkpt>
      <trkpt lat="43.10360099999955" lon="-1.2398680000000044">
        <ele>839.094</ele>
        <time>2022-08-24T08:24:08Z</time>
      </trkpt>
      <trkpt lat="43.10358199999955" lon="-1.2398740000000044">
        <ele>839.273</ele>
        <time>2022-08-24T08:24:09Z</time>
      </trkpt>
      <trkpt lat="43.103548999999546" lon="-1.2398790000000044">
        <ele>839.454</ele>
        <time>2022-08-24T08:24:10Z</time>
      </trkpt>
      <trkpt lat="43.10349799999955" lon="-1.2398820000000044">
        <ele>839.456</ele>
        <time>2022-08-24T08:24:12Z</time>
      </trkpt>
      <trkpt lat="43.10347999999955" lon="-1.2398870000000044">
        <ele>839.611</ele>
        <time>2022-08-24T08:24:13Z</time>
      </trkpt>
      <trkpt lat="43.10346599999955" lon="-1.2398920000000044">
        <ele>839.809</ele>
        <time>2022-08-24T08:24:14Z</time>
      </trkpt>
      <trkpt lat="43.10341799999955" lon="-1.2399160000000045">
        <ele>840.296</ele>
        <time>2022-08-24T08:24:17Z</time>
      </trkpt>
      <trkpt lat="43.10340199999955" lon="-1.2399220000000044">
        <ele>840.256</ele>
        <time>2022-08-24T08:24:18Z</time>
      </trkpt>
      <trkpt lat="43.103371999999545" lon="-1.2399330000000044">
        <ele>840.456</ele>
        <time>2022-08-24T08:24:20Z</time>
      </trkpt>
      <trkpt lat="43.10335699999955" lon="-1.2399350000000045">
        <ele>840.872</ele>
        <time>2022-08-24T08:24:21Z</time>
      </trkpt>
      <trkpt lat="43.10333999999955" lon="-1.2399380000000044">
        <ele>841.084</ele>
        <time>2022-08-24T08:24:22Z</time>
      </trkpt>
      <trkpt lat="43.103323999999546" lon="-1.2399370000000045">
        <ele>841.251</ele>
        <time>2022-08-24T08:24:23Z</time>
      </trkpt>
      <trkpt lat="43.103306999999546" lon="-1.2399350000000045">
        <ele>841.464</ele>
        <time>2022-08-24T08:24:24Z</time>
      </trkpt>
      <trkpt lat="43.10328899999955" lon="-1.2399390000000043">
        <ele>841.438</ele>
        <time>2022-08-24T08:24:25Z</time>
      </trkpt>
      <trkpt lat="43.10327399999955" lon="-1.2399440000000044">
        <ele>841.647</ele>
        <time>2022-08-24T08:24:26Z</time>
      </trkpt>
      <trkpt lat="43.103258999999554" lon="-1.2399510000000045">
        <ele>841.843</ele>
        <time>2022-08-24T08:24:27Z</time>
      </trkpt>
      <trkpt lat="43.103241999999554" lon="-1.2399550000000044">
        <ele>841.864</ele>
        <time>2022-08-24T08:24:28Z</time>
      </trkpt>
      <trkpt lat="43.103227999999554" lon="-1.2399610000000043">
        <ele>842.010</ele>
        <time>2022-08-24T08:24:29Z</time>
      </trkpt>
      <trkpt lat="43.103212999999556" lon="-1.2399660000000043">
        <ele>842.209</ele>
        <time>2022-08-24T08:24:30Z</time>
      </trkpt>
      <trkpt lat="43.10319999999955" lon="-1.2399710000000044">
        <ele>842.445</ele>
        <time>2022-08-24T08:24:31Z</time>
      </trkpt>
      <trkpt lat="43.103184999999556" lon="-1.2399730000000044">
        <ele>842.615</ele>
        <time>2022-08-24T08:24:32Z</time>
      </trkpt>
      <trkpt lat="43.103162999999554" lon="-1.2399750000000045">
        <ele>842.815</ele>
        <time>2022-08-24T08:24:33Z</time>
      </trkpt>
      <trkpt lat="43.10314399999955" lon="-1.2399770000000045">
        <ele>843.031</ele>
        <time>2022-08-24T08:24:34Z</time>
      </trkpt>
      <trkpt lat="43.103125999999556" lon="-1.2399770000000045">
        <ele>843.063</ele>
        <time>2022-08-24T08:24:35Z</time>
      </trkpt>
      <trkpt lat="43.10311599999955" lon="-1.2399770000000045">
        <ele>843.460</ele>
        <time>2022-08-24T08:24:36Z</time>
      </trkpt>
      <trkpt lat="43.103097999999555" lon="-1.2399750000000045">
        <ele>843.443</ele>
        <time>2022-08-24T08:24:37Z</time>
      </trkpt>
      <trkpt lat="43.10308899999956" lon="-1.2399740000000046">
        <ele>843.697</ele>
        <time>2022-08-24T08:24:38Z</time>
      </trkpt>
      <trkpt lat="43.103074999999556" lon="-1.2399720000000045">
        <ele>843.816</ele>
        <time>2022-08-24T08:24:39Z</time>
      </trkpt>
      <trkpt lat="43.10305799999956" lon="-1.2399720000000045">
        <ele>844.074</ele>
        <time>2022-08-24T08:24:40Z</time>
      </trkpt>
      <trkpt lat="43.103044999999554" lon="-1.2399740000000046">
        <ele>844.256</ele>
        <time>2022-08-24T08:24:41Z</time>
      </trkpt>
      <trkpt lat="43.103029999999556" lon="-1.2399760000000046">
        <ele>844.221</ele>
        <time>2022-08-24T08:24:42Z</time>
      </trkpt>
      <trkpt lat="43.103013999999554" lon="-1.2399740000000046">
        <ele>844.609</ele>
        <time>2022-08-24T08:24:43Z</time>
      </trkpt>
      <trkpt lat="43.102993999999555" lon="-1.2399670000000045">
        <ele>844.858</ele>
        <time>2022-08-24T08:24:44Z</time>
      </trkpt>
      <trkpt lat="43.10298199999956" lon="-1.2399550000000046">
        <ele>845.078</ele>
        <time>2022-08-24T08:24:45Z</time>
      </trkpt>
      <trkpt lat="43.10296699999956" lon="-1.2399470000000046">
        <ele>845.428</ele>
        <time>2022-08-24T08:24:46Z</time>
      </trkpt>
      <trkpt lat="43.10295499999956" lon="-1.2399490000000046">
        <ele>845.654</ele>
        <time>2022-08-24T08:24:47Z</time>
      </trkpt>
      <trkpt lat="43.10293999999956" lon="-1.2399510000000047">
        <ele>845.876</ele>
        <time>2022-08-24T08:24:48Z</time>
      </trkpt>
      <trkpt lat="43.102921999999566" lon="-1.2399480000000047">
        <ele>846.043</ele>
        <time>2022-08-24T08:24:49Z</time>
      </trkpt>
      <trkpt lat="43.102905999999564" lon="-1.2399390000000048">
        <ele>846.236</ele>
        <time>2022-08-24T08:24:50Z</time>
      </trkpt>
      <trkpt lat="43.102890999999566" lon="-1.2399300000000049">
        <ele>846.650</ele>
        <time>2022-08-24T08:24:51Z</time>
      </trkpt>
      <trkpt lat="43.10287899999957" lon="-1.2399250000000048">
        <ele>846.619</ele>
        <time>2022-08-24T08:24:52Z</time>
      </trkpt>
      <trkpt lat="43.10286699999957" lon="-1.2399180000000047">
        <ele>846.886</ele>
        <time>2022-08-24T08:24:53Z</time>
      </trkpt>
      <trkpt lat="43.10285499999957" lon="-1.2399110000000046">
        <ele>847.060</ele>
        <time>2022-08-24T08:24:54Z</time>
      </trkpt>
      <trkpt lat="43.10283799999957" lon="-1.2399060000000046">
        <ele>847.226</ele>
        <time>2022-08-24T08:24:55Z</time>
      </trkpt>
      <trkpt lat="43.102822999999574" lon="-1.2398990000000045">
        <ele>847.609</ele>
        <time>2022-08-24T08:24:56Z</time>
      </trkpt>
      <trkpt lat="43.102811999999574" lon="-1.2398960000000046">
        <ele>847.819</ele>
        <time>2022-08-24T08:24:57Z</time>
      </trkpt>
      <trkpt lat="43.10279899999957" lon="-1.2398910000000045">
        <ele>847.899</ele>
        <time>2022-08-24T08:24:58Z</time>
      </trkpt>
      <trkpt lat="43.10278599999957" lon="-1.2398880000000045">
        <ele>848.089</ele>
        <time>2022-08-24T08:24:59Z</time>
      </trkpt>
      <trkpt lat="43.102769999999566" lon="-1.2398830000000045">
        <ele>848.025</ele>
        <time>2022-08-24T08:25:00Z</time>
      </trkpt>
      <trkpt lat="43.102758999999566" lon="-1.2398770000000046">
        <ele>848.277</ele>
        <time>2022-08-24T08:25:01Z</time>
      </trkpt>
      <trkpt lat="43.102744999999565" lon="-1.2398740000000046">
        <ele>848.474</ele>
        <time>2022-08-24T08:25:02Z</time>
      </trkpt>
      <trkpt lat="43.10273199999956" lon="-1.2398700000000047">
        <ele>848.847</ele>
        <time>2022-08-24T08:25:03Z</time>
      </trkpt>
      <trkpt lat="43.102719999999564" lon="-1.2398660000000048">
        <ele>849.021</ele>
        <time>2022-08-24T08:25:04Z</time>
      </trkpt>
      <trkpt lat="43.10270199999957" lon="-1.2398590000000047">
        <ele>849.250</ele>
        <time>2022-08-24T08:25:05Z</time>
      </trkpt>
      <trkpt lat="43.10268699999957" lon="-1.2398550000000048">
        <ele>849.257</ele>
        <time>2022-08-24T08:25:06Z</time>
      </trkpt>
      <trkpt lat="43.10267199999957" lon="-1.239851000000005">
        <ele>849.400</ele>
        <time>2022-08-24T08:25:07Z</time>
      </trkpt>
      <trkpt lat="43.10265899999957" lon="-1.239848000000005">
        <ele>849.620</ele>
        <time>2022-08-24T08:25:08Z</time>
      </trkpt>
      <trkpt lat="43.10264299999957" lon="-1.239845000000005">
        <ele>849.809</ele>
        <time>2022-08-24T08:25:09Z</time>
      </trkpt>
      <trkpt lat="43.10262799999957" lon="-1.239842000000005">
        <ele>850.066</ele>
        <time>2022-08-24T08:25:10Z</time>
      </trkpt>
      <trkpt lat="43.10261599999957" lon="-1.239838000000005">
        <ele>850.236</ele>
        <time>2022-08-24T08:25:11Z</time>
      </trkpt>
      <trkpt lat="43.10259999999957" lon="-1.239838000000005">
        <ele>850.466</ele>
        <time>2022-08-24T08:25:12Z</time>
      </trkpt>
      <trkpt lat="43.10258799999957" lon="-1.2398370000000052">
        <ele>850.652</ele>
        <time>2022-08-24T08:25:13Z</time>
      </trkpt>
      <trkpt lat="43.10257899999957" lon="-1.2398330000000053">
        <ele>851.064</ele>
        <time>2022-08-24T08:25:14Z</time>
      </trkpt>
      <trkpt lat="43.10256599999957" lon="-1.2398260000000052">
        <ele>851.271</ele>
        <time>2022-08-24T08:25:15Z</time>
      </trkpt>
      <trkpt lat="43.10254999999957" lon="-1.2398180000000052">
        <ele>851.414</ele>
        <time>2022-08-24T08:25:16Z</time>
      </trkpt>
      <trkpt lat="43.102536999999565" lon="-1.2398170000000053">
        <ele>851.458</ele>
        <time>2022-08-24T08:25:17Z</time>
      </trkpt>
      <trkpt lat="43.10252199999957" lon="-1.2398160000000054">
        <ele>851.677</ele>
        <time>2022-08-24T08:25:18Z</time>
      </trkpt>
      <trkpt lat="43.102510999999566" lon="-1.2398150000000054">
        <ele>852.074</ele>
        <time>2022-08-24T08:25:19Z</time>
      </trkpt>
      <trkpt lat="43.102496999999566" lon="-1.2398120000000055">
        <ele>852.256</ele>
        <time>2022-08-24T08:25:20Z</time>
      </trkpt>
      <trkpt lat="43.10247899999957" lon="-1.2398100000000054">
        <ele>852.221</ele>
        <time>2022-08-24T08:25:21Z</time>
      </trkpt>
      <trkpt lat="43.10246499999957" lon="-1.2398090000000055">
        <ele>852.409</ele>
        <time>2022-08-24T08:25:22Z</time>
      </trkpt>
      <trkpt lat="43.102451999999566" lon="-1.2398100000000054">
        <ele>852.428</ele>
        <time>2022-08-24T08:25:23Z</time>
      </trkpt>
      <trkpt lat="43.102440999999565" lon="-1.2398100000000054">
        <ele>852.628</ele>
        <time>2022-08-24T08:25:24Z</time>
      </trkpt>
      <trkpt lat="43.102426999999565" lon="-1.2398090000000055">
        <ele>852.828</ele>
        <time>2022-08-24T08:25:25Z</time>
      </trkpt>
      <trkpt lat="43.102415999999565" lon="-1.2398060000000055">
        <ele>853.044</ele>
        <time>2022-08-24T08:25:26Z</time>
      </trkpt>
      <trkpt lat="43.10240299999956" lon="-1.2398040000000055">
        <ele>853.216</ele>
        <time>2022-08-24T08:25:27Z</time>
      </trkpt>
      <trkpt lat="43.102390999999564" lon="-1.2398040000000055">
        <ele>853.263</ele>
        <time>2022-08-24T08:25:28Z</time>
      </trkpt>
      <trkpt lat="43.102378999999566" lon="-1.2398030000000055">
        <ele>853.456</ele>
        <time>2022-08-24T08:25:29Z</time>
      </trkpt>
      <trkpt lat="43.102370999999565" lon="-1.2398030000000055">
        <ele>853.480</ele>
        <time>2022-08-24T08:25:30Z</time>
      </trkpt>
      <trkpt lat="43.102359999999564" lon="-1.2398030000000055">
        <ele>853.889</ele>
        <time>2022-08-24T08:25:31Z</time>
      </trkpt>
      <trkpt lat="43.10234899999956" lon="-1.2398000000000056">
        <ele>853.836</ele>
        <time>2022-08-24T08:25:32Z</time>
      </trkpt>
      <trkpt lat="43.10233899999956" lon="-1.2398020000000056">
        <ele>854.017</ele>
        <time>2022-08-24T08:25:33Z</time>
      </trkpt>
      <trkpt lat="43.10232699999956" lon="-1.2398030000000055">
        <ele>854.018</ele>
        <time>2022-08-24T08:25:34Z</time>
      </trkpt>
      <trkpt lat="43.10231599999956" lon="-1.2398040000000055">
        <ele>854.209</ele>
        <time>2022-08-24T08:25:35Z</time>
      </trkpt>
      <trkpt lat="43.10230299999956" lon="-1.2398050000000054">
        <ele>854.284</ele>
        <time>2022-08-24T08:25:36Z</time>
      </trkpt>
      <trkpt lat="43.102286999999556" lon="-1.2398080000000054">
        <ele>854.254</ele>
        <time>2022-08-24T08:25:37Z</time>
      </trkpt>
      <trkpt lat="43.102272999999556" lon="-1.2398150000000054">
        <ele>854.414</ele>
        <time>2022-08-24T08:25:38Z</time>
      </trkpt>
      <trkpt lat="43.102258999999556" lon="-1.2398230000000054">
        <ele>854.460</ele>
        <time>2022-08-24T08:25:39Z</time>
      </trkpt>
      <trkpt lat="43.10224699999956" lon="-1.2398280000000055">
        <ele>854.652</ele>
        <time>2022-08-24T08:25:40Z</time>
      </trkpt>
      <trkpt lat="43.10223299999956" lon="-1.2398350000000056">
        <ele>854.689</ele>
        <time>2022-08-24T08:25:41Z</time>
      </trkpt>
      <trkpt lat="43.102219999999555" lon="-1.2398430000000056">
        <ele>854.882</ele>
        <time>2022-08-24T08:25:42Z</time>
      </trkpt>
      <trkpt lat="43.10220499999956" lon="-1.2398530000000056">
        <ele>854.886</ele>
        <time>2022-08-24T08:25:43Z</time>
      </trkpt>
      <trkpt lat="43.10219099999956" lon="-1.2398580000000057">
        <ele>855.065</ele>
        <time>2022-08-24T08:25:44Z</time>
      </trkpt>
      <trkpt lat="43.10217699999956" lon="-1.2398610000000057">
        <ele>855.096</ele>
        <time>2022-08-24T08:25:45Z</time>
      </trkpt>
      <trkpt lat="43.10216299999956" lon="-1.2398640000000056">
        <ele>855.231</ele>
        <time>2022-08-24T08:25:46Z</time>
      </trkpt>
      <trkpt lat="43.102146999999555" lon="-1.2398650000000055">
        <ele>855.224</ele>
        <time>2022-08-24T08:25:47Z</time>
      </trkpt>
      <trkpt lat="43.102134999999556" lon="-1.2398680000000055">
        <ele>855.409</ele>
        <time>2022-08-24T08:25:48Z</time>
      </trkpt>
      <trkpt lat="43.10211999999956" lon="-1.2398740000000055">
        <ele>855.480</ele>
        <time>2022-08-24T08:25:49Z</time>
      </trkpt>
      <trkpt lat="43.10210499999956" lon="-1.2398790000000055">
        <ele>855.420</ele>
        <time>2022-08-24T08:25:50Z</time>
      </trkpt>
      <trkpt lat="43.10208999999956" lon="-1.2398800000000054">
        <ele>855.640</ele>
        <time>2022-08-24T08:25:51Z</time>
      </trkpt>
      <trkpt lat="43.10207399999956" lon="-1.2398810000000053">
        <ele>855.646</ele>
        <time>2022-08-24T08:25:52Z</time>
      </trkpt>
      <trkpt lat="43.10205499999956" lon="-1.2398840000000053">
        <ele>855.628</ele>
        <time>2022-08-24T08:25:53Z</time>
      </trkpt>
      <trkpt lat="43.10203999999956" lon="-1.2398880000000052">
        <ele>855.845</ele>
        <time>2022-08-24T08:25:54Z</time>
      </trkpt>
      <trkpt lat="43.10202399999956" lon="-1.239892000000005">
        <ele>855.888</ele>
        <time>2022-08-24T08:25:55Z</time>
      </trkpt>
      <trkpt lat="43.10200899999956" lon="-1.239896000000005">
        <ele>856.052</ele>
        <time>2022-08-24T08:25:56Z</time>
      </trkpt>
      <trkpt lat="43.101990999999565" lon="-1.239903000000005">
        <ele>856.061</ele>
        <time>2022-08-24T08:25:57Z</time>
      </trkpt>
      <trkpt lat="43.101976999999565" lon="-1.2399050000000051">
        <ele>856.272</ele>
        <time>2022-08-24T08:25:58Z</time>
      </trkpt>
      <trkpt lat="43.10196099999956" lon="-1.2399080000000051">
        <ele>856.213</ele>
        <time>2022-08-24T08:25:59Z</time>
      </trkpt>
      <trkpt lat="43.10194699999956" lon="-1.239912000000005">
        <ele>856.414</ele>
        <time>2022-08-24T08:26:00Z</time>
      </trkpt>
      <trkpt lat="43.10192999999956" lon="-1.239918000000005">
        <ele>856.609</ele>
        <time>2022-08-24T08:26:01Z</time>
      </trkpt>
      <trkpt lat="43.10180899999956" lon="-1.2399490000000049">
        <ele>857.238</ele>
        <time>2022-08-24T08:26:08Z</time>
      </trkpt>
      <trkpt lat="43.101790999999565" lon="-1.239948000000005">
        <ele>857.258</ele>
        <time>2022-08-24T08:26:09Z</time>
      </trkpt>
      <trkpt lat="43.10177299999957" lon="-1.239950000000005">
        <ele>857.428</ele>
        <time>2022-08-24T08:26:10Z</time>
      </trkpt>
      <trkpt lat="43.10175799999957" lon="-1.239951000000005">
        <ele>857.444</ele>
        <time>2022-08-24T08:26:11Z</time>
      </trkpt>
      <trkpt lat="43.10170999999957" lon="-1.239958000000005">
        <ele>857.836</ele>
        <time>2022-08-24T08:26:14Z</time>
      </trkpt>
      <trkpt lat="43.10169499999957" lon="-1.239963000000005">
        <ele>857.823</ele>
        <time>2022-08-24T08:26:15Z</time>
      </trkpt>
      <trkpt lat="43.101679999999575" lon="-1.239964000000005">
        <ele>857.846</ele>
        <time>2022-08-24T08:26:16Z</time>
      </trkpt>
      <trkpt lat="43.10166799999958" lon="-1.2399650000000049">
        <ele>858.060</ele>
        <time>2022-08-24T08:26:17Z</time>
      </trkpt>
      <trkpt lat="43.10163699999958" lon="-1.2399650000000049">
        <ele>858.289</ele>
        <time>2022-08-24T08:26:19Z</time>
      </trkpt>
      <trkpt lat="43.10161999999958" lon="-1.239964000000005">
        <ele>858.438</ele>
        <time>2022-08-24T08:26:20Z</time>
      </trkpt>
      <trkpt lat="43.10158499999958" lon="-1.239970000000005">
        <ele>858.470</ele>
        <time>2022-08-24T08:26:22Z</time>
      </trkpt>
      <trkpt lat="43.10155499999958" lon="-1.239978000000005">
        <ele>858.617</ele>
        <time>2022-08-24T08:26:24Z</time>
      </trkpt>
      <trkpt lat="43.10147399999958" lon="-1.240002000000005">
        <ele>859.009</ele>
        <time>2022-08-24T08:26:29Z</time>
      </trkpt>
      <trkpt lat="43.101440999999575" lon="-1.2400060000000048">
        <ele>859.294</ele>
        <time>2022-08-24T08:26:31Z</time>
      </trkpt>
      <trkpt lat="43.101389999999576" lon="-1.2400120000000048">
        <ele>859.454</ele>
        <time>2022-08-24T08:26:34Z</time>
      </trkpt>
      <trkpt lat="43.10137399999957" lon="-1.2400190000000049">
        <ele>859.664</ele>
        <time>2022-08-24T08:26:35Z</time>
      </trkpt>
      <trkpt lat="43.101358999999576" lon="-1.2400250000000048">
        <ele>859.610</ele>
        <time>2022-08-24T08:26:36Z</time>
      </trkpt>
      <trkpt lat="43.101271999999575" lon="-1.2400360000000048">
        <ele>860.482</ele>
        <time>2022-08-24T08:26:41Z</time>
      </trkpt>
      <trkpt lat="43.10125999999958" lon="-1.2400400000000047">
        <ele>860.699</ele>
        <time>2022-08-24T08:26:42Z</time>
      </trkpt>
      <trkpt lat="43.10121199999958" lon="-1.2400560000000047">
        <ele>861.092</ele>
        <time>2022-08-24T08:26:45Z</time>
      </trkpt>
      <trkpt lat="43.10119699999958" lon="-1.2400650000000046">
        <ele>861.216</ele>
        <time>2022-08-24T08:26:46Z</time>
      </trkpt>
      <trkpt lat="43.10118099999958" lon="-1.2400720000000047">
        <ele>861.275</ele>
        <time>2022-08-24T08:26:47Z</time>
      </trkpt>
      <trkpt lat="43.10116699999958" lon="-1.2400780000000047">
        <ele>861.263</ele>
        <time>2022-08-24T08:26:48Z</time>
      </trkpt>
      <trkpt lat="43.101150999999575" lon="-1.2400830000000047">
        <ele>861.244</ele>
        <time>2022-08-24T08:26:49Z</time>
      </trkpt>
      <trkpt lat="43.10113799999957" lon="-1.2400870000000046">
        <ele>861.418</ele>
        <time>2022-08-24T08:26:50Z</time>
      </trkpt>
      <trkpt lat="43.101122999999575" lon="-1.2400920000000046">
        <ele>861.409</ele>
        <time>2022-08-24T08:26:51Z</time>
      </trkpt>
      <trkpt lat="43.101105999999575" lon="-1.2401010000000046">
        <ele>861.497</ele>
        <time>2022-08-24T08:26:52Z</time>
      </trkpt>
      <trkpt lat="43.10109099999958" lon="-1.2401110000000046">
        <ele>861.647</ele>
        <time>2022-08-24T08:26:53Z</time>
      </trkpt>
      <trkpt lat="43.10107399999958" lon="-1.2401170000000046">
        <ele>861.687</ele>
        <time>2022-08-24T08:26:54Z</time>
      </trkpt>
      <trkpt lat="43.101057999999576" lon="-1.2401250000000046">
        <ele>861.643</ele>
        <time>2022-08-24T08:26:55Z</time>
      </trkpt>
      <trkpt lat="43.10103999999958" lon="-1.2401350000000047">
        <ele>861.815</ele>
        <time>2022-08-24T08:26:56Z</time>
      </trkpt>
      <trkpt lat="43.10102099999958" lon="-1.2401430000000047">
        <ele>861.862</ele>
        <time>2022-08-24T08:26:57Z</time>
      </trkpt>
      <trkpt lat="43.10100299999958" lon="-1.2401490000000046">
        <ele>861.845</ele>
        <time>2022-08-24T08:26:58Z</time>
      </trkpt>
      <trkpt lat="43.10098499999958" lon="-1.2401570000000046">
        <ele>861.819</ele>
        <time>2022-08-24T08:26:59Z</time>
      </trkpt>
      <trkpt lat="43.10091799999958" lon="-1.2401800000000047">
        <ele>862.428</ele>
        <time>2022-08-24T08:27:03Z</time>
      </trkpt>
      <trkpt lat="43.10090199999958" lon="-1.2401920000000046">
        <ele>862.669</ele>
        <time>2022-08-24T08:27:04Z</time>
      </trkpt>
      <trkpt lat="43.10088199999958" lon="-1.2402070000000047">
        <ele>862.804</ele>
        <time>2022-08-24T08:27:05Z</time>
      </trkpt>
      <trkpt lat="43.10083399999958" lon="-1.2402310000000047">
        <ele>863.024</ele>
        <time>2022-08-24T08:27:08Z</time>
      </trkpt>
      <trkpt lat="43.10081899999958" lon="-1.2402390000000048">
        <ele>863.009</ele>
        <time>2022-08-24T08:27:09Z</time>
      </trkpt>
      <trkpt lat="43.100803999999584" lon="-1.2402440000000048">
        <ele>863.257</ele>
        <time>2022-08-24T08:27:10Z</time>
      </trkpt>
      <trkpt lat="43.10078799999958" lon="-1.2402470000000048">
        <ele>863.277</ele>
        <time>2022-08-24T08:27:11Z</time>
      </trkpt>
      <trkpt lat="43.10077199999958" lon="-1.2402550000000048">
        <ele>863.217</ele>
        <time>2022-08-24T08:27:12Z</time>
      </trkpt>
      <trkpt lat="43.10075599999958" lon="-1.2402660000000048">
        <ele>863.423</ele>
        <time>2022-08-24T08:27:13Z</time>
      </trkpt>
      <trkpt lat="43.100739999999576" lon="-1.2402730000000048">
        <ele>863.475</ele>
        <time>2022-08-24T08:27:14Z</time>
      </trkpt>
      <trkpt lat="43.10069299999957" lon="-1.240294000000005">
        <ele>863.822</ele>
        <time>2022-08-24T08:27:17Z</time>
      </trkpt>
      <trkpt lat="43.100677999999576" lon="-1.2403030000000048">
        <ele>863.865</ele>
        <time>2022-08-24T08:27:18Z</time>
      </trkpt>
      <trkpt lat="43.10066299999958" lon="-1.240310000000005">
        <ele>863.899</ele>
        <time>2022-08-24T08:27:19Z</time>
      </trkpt>
      <trkpt lat="43.10056699999958" lon="-1.240345000000005">
        <ele>864.268</ele>
        <time>2022-08-24T08:27:25Z</time>
      </trkpt>
      <trkpt lat="43.10055199999958" lon="-1.240352000000005">
        <ele>864.472</ele>
        <time>2022-08-24T08:27:26Z</time>
      </trkpt>
      <trkpt lat="43.10053599999958" lon="-1.240359000000005">
        <ele>864.413</ele>
        <time>2022-08-24T08:27:27Z</time>
      </trkpt>
      <trkpt lat="43.10045799999958" lon="-1.240398000000005">
        <ele>864.814</ele>
        <time>2022-08-24T08:27:32Z</time>
      </trkpt>
      <trkpt lat="43.10044099999958" lon="-1.240405000000005">
        <ele>864.809</ele>
        <time>2022-08-24T08:27:33Z</time>
      </trkpt>
      <trkpt lat="43.10042299999958" lon="-1.2404120000000052">
        <ele>864.828</ele>
        <time>2022-08-24T08:27:34Z</time>
      </trkpt>
      <trkpt lat="43.10033899999958" lon="-1.2404460000000053">
        <ele>865.278</ele>
        <time>2022-08-24T08:27:39Z</time>
      </trkpt>
      <trkpt lat="43.10032299999958" lon="-1.2404530000000054">
        <ele>865.428</ele>
        <time>2022-08-24T08:27:40Z</time>
      </trkpt>
      <trkpt lat="43.10030899999958" lon="-1.2404580000000054">
        <ele>865.634</ele>
        <time>2022-08-24T08:27:41Z</time>
      </trkpt>
      <trkpt lat="43.10026799999957" lon="-1.2404820000000054">
        <ele>865.896</ele>
        <time>2022-08-24T08:27:44Z</time>
      </trkpt>
      <trkpt lat="43.100216999999574" lon="-1.2405110000000055">
        <ele>866.083</ele>
        <time>2022-08-24T08:27:47Z</time>
      </trkpt>
      <trkpt lat="43.10020199999958" lon="-1.2405150000000054">
        <ele>866.246</ele>
        <time>2022-08-24T08:27:48Z</time>
      </trkpt>
      <trkpt lat="43.100134999999575" lon="-1.2405440000000054">
        <ele>866.260</ele>
        <time>2022-08-24T08:27:52Z</time>
      </trkpt>
      <trkpt lat="43.10011999999958" lon="-1.2405470000000054">
        <ele>866.439</ele>
        <time>2022-08-24T08:27:53Z</time>
      </trkpt>
      <trkpt lat="43.10009699999958" lon="-1.2405550000000054">
        <ele>866.467</ele>
        <time>2022-08-24T08:27:54Z</time>
      </trkpt>
      <trkpt lat="43.10007899999958" lon="-1.2405660000000054">
        <ele>866.481</ele>
        <time>2022-08-24T08:27:55Z</time>
      </trkpt>
      <trkpt lat="43.100063999999584" lon="-1.2405750000000053">
        <ele>866.619</ele>
        <time>2022-08-24T08:27:56Z</time>
      </trkpt>
      <trkpt lat="43.100032999999584" lon="-1.2405910000000053">
        <ele>866.809</ele>
        <time>2022-08-24T08:27:58Z</time>
      </trkpt>
      <trkpt lat="43.099998999999585" lon="-1.2406060000000054">
        <ele>867.287</ele>
        <time>2022-08-24T08:28:00Z</time>
      </trkpt>
      <trkpt lat="43.09992399999958" lon="-1.2406290000000055">
        <ele>867.627</ele>
        <time>2022-08-24T08:28:05Z</time>
      </trkpt>
      <trkpt lat="43.099905999999585" lon="-1.2406350000000055">
        <ele>867.877</ele>
        <time>2022-08-24T08:28:06Z</time>
      </trkpt>
      <trkpt lat="43.099869999999584" lon="-1.2406410000000054">
        <ele>868.073</ele>
        <time>2022-08-24T08:28:08Z</time>
      </trkpt>
      <trkpt lat="43.099852999999584" lon="-1.2406470000000054">
        <ele>868.055</ele>
        <time>2022-08-24T08:28:09Z</time>
      </trkpt>
      <trkpt lat="43.09982099999959" lon="-1.2406590000000053">
        <ele>868.232</ele>
        <time>2022-08-24T08:28:11Z</time>
      </trkpt>
      <trkpt lat="43.09976899999959" lon="-1.2406800000000053">
        <ele>869.065</ele>
        <time>2022-08-24T08:28:14Z</time>
      </trkpt>
      <trkpt lat="43.09975299999959" lon="-1.2406870000000054">
        <ele>869.299</ele>
        <time>2022-08-24T08:28:15Z</time>
      </trkpt>
      <trkpt lat="43.09973799999959" lon="-1.2406950000000054">
        <ele>869.238</ele>
        <time>2022-08-24T08:28:16Z</time>
      </trkpt>
      <trkpt lat="43.09971799999959" lon="-1.2406980000000054">
        <ele>869.428</ele>
        <time>2022-08-24T08:28:17Z</time>
      </trkpt>
      <trkpt lat="43.099699999999594" lon="-1.2407010000000054">
        <ele>869.689</ele>
        <time>2022-08-24T08:28:18Z</time>
      </trkpt>
      <trkpt lat="43.099682999999594" lon="-1.2407040000000054">
        <ele>869.617</ele>
        <time>2022-08-24T08:28:19Z</time>
      </trkpt>
      <trkpt lat="43.09966099999959" lon="-1.2407110000000054">
        <ele>869.609</ele>
        <time>2022-08-24T08:28:20Z</time>
      </trkpt>
      <trkpt lat="43.09964699999959" lon="-1.2407160000000055">
        <ele>869.853</ele>
        <time>2022-08-24T08:28:21Z</time>
      </trkpt>
      <trkpt lat="43.09962799999959" lon="-1.2407180000000055">
        <ele>870.063</ele>
        <time>2022-08-24T08:28:22Z</time>
      </trkpt>
      <trkpt lat="43.09960999999959" lon="-1.2407210000000055">
        <ele>870.283</ele>
        <time>2022-08-24T08:28:23Z</time>
      </trkpt>
      <trkpt lat="43.09959099999959" lon="-1.2407270000000055">
        <ele>870.279</ele>
        <time>2022-08-24T08:28:24Z</time>
      </trkpt>
      <trkpt lat="43.09957399999959" lon="-1.2407350000000055">
        <ele>870.471</ele>
        <time>2022-08-24T08:28:25Z</time>
      </trkpt>
      <trkpt lat="43.09955699999959" lon="-1.2407390000000054">
        <ele>870.688</ele>
        <time>2022-08-24T08:28:26Z</time>
      </trkpt>
      <trkpt lat="43.099538999999595" lon="-1.2407410000000054">
        <ele>870.671</ele>
        <time>2022-08-24T08:28:27Z</time>
      </trkpt>
      <trkpt lat="43.099521999999595" lon="-1.2407430000000055">
        <ele>870.825</ele>
        <time>2022-08-24T08:28:28Z</time>
      </trkpt>
      <trkpt lat="43.09950599999959" lon="-1.2407490000000054">
        <ele>870.844</ele>
        <time>2022-08-24T08:28:29Z</time>
      </trkpt>
      <trkpt lat="43.09948899999959" lon="-1.2407510000000055">
        <ele>871.236</ele>
        <time>2022-08-24T08:28:30Z</time>
      </trkpt>
      <trkpt lat="43.099473999999596" lon="-1.2407550000000054">
        <ele>871.217</ele>
        <time>2022-08-24T08:28:31Z</time>
      </trkpt>
      <trkpt lat="43.09946099999959" lon="-1.2407560000000053">
        <ele>871.418</ele>
        <time>2022-08-24T08:28:32Z</time>
      </trkpt>
      <trkpt lat="43.099445999999595" lon="-1.2407560000000053">
        <ele>871.609</ele>
        <time>2022-08-24T08:28:33Z</time>
      </trkpt>
      <trkpt lat="43.09942999999959" lon="-1.2407540000000052">
        <ele>871.684</ele>
        <time>2022-08-24T08:28:34Z</time>
      </trkpt>
      <trkpt lat="43.099411999999596" lon="-1.2407520000000052">
        <ele>871.824</ele>
        <time>2022-08-24T08:28:35Z</time>
      </trkpt>
      <trkpt lat="43.099394999999596" lon="-1.2407550000000052">
        <ele>871.814</ele>
        <time>2022-08-24T08:28:36Z</time>
      </trkpt>
      <trkpt lat="43.099380999999596" lon="-1.240759000000005">
        <ele>872.250</ele>
        <time>2022-08-24T08:28:37Z</time>
      </trkpt>
      <trkpt lat="43.099366999999596" lon="-1.240762000000005">
        <ele>872.232</ele>
        <time>2022-08-24T08:28:38Z</time>
      </trkpt>
      <trkpt lat="43.0993519999996" lon="-1.240768000000005">
        <ele>872.499</ele>
        <time>2022-08-24T08:28:39Z</time>
      </trkpt>
      <trkpt lat="43.099338999999596" lon="-1.240768000000005">
        <ele>872.442</ele>
        <time>2022-08-24T08:28:40Z</time>
      </trkpt>
      <trkpt lat="43.0993239999996" lon="-1.240770000000005">
        <ele>872.636</ele>
        <time>2022-08-24T08:28:41Z</time>
      </trkpt>
      <trkpt lat="43.0993059999996" lon="-1.240775000000005">
        <ele>872.865</ele>
        <time>2022-08-24T08:28:42Z</time>
      </trkpt>
      <trkpt lat="43.0992939999996" lon="-1.240781000000005">
        <ele>872.866</ele>
        <time>2022-08-24T08:28:43Z</time>
      </trkpt>
      <trkpt lat="43.099278999999605" lon="-1.240789000000005">
        <ele>872.829</ele>
        <time>2022-08-24T08:28:44Z</time>
      </trkpt>
      <trkpt lat="43.09926399999961" lon="-1.240795000000005">
        <ele>873.021</ele>
        <time>2022-08-24T08:28:45Z</time>
      </trkpt>
      <trkpt lat="43.099247999999605" lon="-1.240797000000005">
        <ele>873.209</ele>
        <time>2022-08-24T08:28:46Z</time>
      </trkpt>
      <trkpt lat="43.099230999999605" lon="-1.240800000000005">
        <ele>873.627</ele>
        <time>2022-08-24T08:28:47Z</time>
      </trkpt>
      <trkpt lat="43.0992119999996" lon="-1.240805000000005">
        <ele>873.627</ele>
        <time>2022-08-24T08:28:48Z</time>
      </trkpt>
      <trkpt lat="43.0991959999996" lon="-1.240810000000005">
        <ele>873.837</ele>
        <time>2022-08-24T08:28:49Z</time>
      </trkpt>
      <trkpt lat="43.099180999999604" lon="-1.240815000000005">
        <ele>874.053</ele>
        <time>2022-08-24T08:28:50Z</time>
      </trkpt>
      <trkpt lat="43.099165999999606" lon="-1.240824000000005">
        <ele>874.225</ele>
        <time>2022-08-24T08:28:51Z</time>
      </trkpt>
      <trkpt lat="43.0991529999996" lon="-1.2408310000000051">
        <ele>874.222</ele>
        <time>2022-08-24T08:28:52Z</time>
      </trkpt>
      <trkpt lat="43.0991339999996" lon="-1.2408390000000051">
        <ele>874.235</ele>
        <time>2022-08-24T08:28:53Z</time>
      </trkpt>
      <trkpt lat="43.0991169999996" lon="-1.2408440000000052">
        <ele>874.479</ele>
        <time>2022-08-24T08:28:54Z</time>
      </trkpt>
      <trkpt lat="43.099098999999605" lon="-1.2408470000000051">
        <ele>874.468</ele>
        <time>2022-08-24T08:28:55Z</time>
      </trkpt>
      <trkpt lat="43.09908699999961" lon="-1.240853000000005">
        <ele>874.654</ele>
        <time>2022-08-24T08:28:56Z</time>
      </trkpt>
      <trkpt lat="43.09907199999961" lon="-1.240865000000005">
        <ele>874.656</ele>
        <time>2022-08-24T08:28:57Z</time>
      </trkpt>
      <trkpt lat="43.09905499999961" lon="-1.240873000000005">
        <ele>874.811</ele>
        <time>2022-08-24T08:28:58Z</time>
      </trkpt>
      <trkpt lat="43.09903999999961" lon="-1.240881000000005">
        <ele>875.009</ele>
        <time>2022-08-24T08:28:59Z</time>
      </trkpt>
      <trkpt lat="43.09903999999961" lon="-1.240881000000005">
        <ele>875.076</ele>
        <time>2022-08-24T08:29:00Z</time>
      </trkpt>
      <trkpt lat="43.09900399999961" lon="-1.240896000000005">
        <ele>875.226</ele>
        <time>2022-08-24T08:29:01Z</time>
      </trkpt>
      <trkpt lat="43.09898599999961" lon="-1.2409040000000051">
        <ele>875.226</ele>
        <time>2022-08-24T08:29:02Z</time>
      </trkpt>
      <trkpt lat="43.09896899999961" lon="-1.2409090000000051">
        <ele>875.432</ele>
        <time>2022-08-24T08:29:03Z</time>
      </trkpt>
      <trkpt lat="43.098950999999616" lon="-1.2409160000000052">
        <ele>875.624</ele>
        <time>2022-08-24T08:29:04Z</time>
      </trkpt>
      <trkpt lat="43.098933999999616" lon="-1.2409230000000053">
        <ele>875.841</ele>
        <time>2022-08-24T08:29:05Z</time>
      </trkpt>
      <trkpt lat="43.09891699999962" lon="-1.2409310000000053">
        <ele>876.064</ele>
        <time>2022-08-24T08:29:06Z</time>
      </trkpt>
      <trkpt lat="43.09889899999962" lon="-1.2409390000000053">
        <ele>876.088</ele>
        <time>2022-08-24T08:29:07Z</time>
      </trkpt>
      <trkpt lat="43.09888299999962" lon="-1.2409440000000054">
        <ele>876.247</ele>
        <time>2022-08-24T08:29:08Z</time>
      </trkpt>
      <trkpt lat="43.09886599999962" lon="-1.2409540000000054">
        <ele>876.492</ele>
        <time>2022-08-24T08:29:09Z</time>
      </trkpt>
      <trkpt lat="43.09884299999962" lon="-1.2409630000000054">
        <ele>876.673</ele>
        <time>2022-08-24T08:29:10Z</time>
      </trkpt>
      <trkpt lat="43.09882799999962" lon="-1.2409690000000053">
        <ele>876.820</ele>
        <time>2022-08-24T08:29:11Z</time>
      </trkpt>
      <trkpt lat="43.09881099999962" lon="-1.2409740000000054">
        <ele>877.009</ele>
        <time>2022-08-24T08:29:12Z</time>
      </trkpt>
      <trkpt lat="43.09879599999962" lon="-1.2409790000000054">
        <ele>877.270</ele>
        <time>2022-08-24T08:29:13Z</time>
      </trkpt>
      <trkpt lat="43.098778999999624" lon="-1.2409850000000053">
        <ele>877.270</ele>
        <time>2022-08-24T08:29:14Z</time>
      </trkpt>
      <trkpt lat="43.09875999999962" lon="-1.2409920000000054">
        <ele>877.660</ele>
        <time>2022-08-24T08:29:15Z</time>
      </trkpt>
      <trkpt lat="43.09874299999962" lon="-1.2409950000000054">
        <ele>877.616</ele>
        <time>2022-08-24T08:29:16Z</time>
      </trkpt>
      <trkpt lat="43.09872599999962" lon="-1.2409990000000053">
        <ele>877.838</ele>
        <time>2022-08-24T08:29:17Z</time>
      </trkpt>
      <trkpt lat="43.098713999999624" lon="-1.2410060000000054">
        <ele>878.075</ele>
        <time>2022-08-24T08:29:18Z</time>
      </trkpt>
      <trkpt lat="43.09869799999962" lon="-1.2410100000000053">
        <ele>878.218</ele>
        <time>2022-08-24T08:29:19Z</time>
      </trkpt>
      <trkpt lat="43.09868199999962" lon="-1.2410140000000052">
        <ele>878.622</ele>
        <time>2022-08-24T08:29:20Z</time>
      </trkpt>
      <trkpt lat="43.09866399999962" lon="-1.2410160000000052">
        <ele>878.851</ele>
        <time>2022-08-24T08:29:21Z</time>
      </trkpt>
      <trkpt lat="43.09864999999962" lon="-1.2410200000000051">
        <ele>879.088</ele>
        <time>2022-08-24T08:29:22Z</time>
      </trkpt>
      <trkpt lat="43.098637999999625" lon="-1.241026000000005">
        <ele>879.224</ele>
        <time>2022-08-24T08:29:23Z</time>
      </trkpt>
      <trkpt lat="43.098617999999625" lon="-1.2410410000000052">
        <ele>879.226</ele>
        <time>2022-08-24T08:29:24Z</time>
      </trkpt>
      <trkpt lat="43.098600999999626" lon="-1.2410460000000052">
        <ele>879.409</ele>
        <time>2022-08-24T08:29:25Z</time>
      </trkpt>
      <trkpt lat="43.098586999999625" lon="-1.241050000000005">
        <ele>879.669</ele>
        <time>2022-08-24T08:29:26Z</time>
      </trkpt>
      <trkpt lat="43.09857399999962" lon="-1.241051000000005">
        <ele>879.869</ele>
        <time>2022-08-24T08:29:27Z</time>
      </trkpt>
      <trkpt lat="43.09856399999962" lon="-1.241053000000005">
        <ele>880.069</ele>
        <time>2022-08-24T08:29:28Z</time>
      </trkpt>
      <trkpt lat="43.09854999999962" lon="-1.2410550000000051">
        <ele>880.235</ele>
        <time>2022-08-24T08:29:29Z</time>
      </trkpt>
      <trkpt lat="43.09852999999962" lon="-1.2410570000000052">
        <ele>880.437</ele>
        <time>2022-08-24T08:29:30Z</time>
      </trkpt>
      <trkpt lat="43.09851599999962" lon="-1.2410620000000052">
        <ele>880.474</ele>
        <time>2022-08-24T08:29:31Z</time>
      </trkpt>
      <trkpt lat="43.09850199999962" lon="-1.2410690000000053">
        <ele>880.857</ele>
        <time>2022-08-24T08:29:32Z</time>
      </trkpt>
      <trkpt lat="43.09849099999962" lon="-1.2410710000000054">
        <ele>881.041</ele>
        <time>2022-08-24T08:29:33Z</time>
      </trkpt>
      <trkpt lat="43.09847699999962" lon="-1.2410760000000054">
        <ele>881.270</ele>
        <time>2022-08-24T08:29:34Z</time>
      </trkpt>
      <trkpt lat="43.098463999999616" lon="-1.2410800000000053">
        <ele>881.435</ele>
        <time>2022-08-24T08:29:35Z</time>
      </trkpt>
      <trkpt lat="43.09845199999962" lon="-1.2410850000000053">
        <ele>881.686</ele>
        <time>2022-08-24T08:29:36Z</time>
      </trkpt>
      <trkpt lat="43.09843999999962" lon="-1.2410910000000053">
        <ele>881.814</ele>
        <time>2022-08-24T08:29:37Z</time>
      </trkpt>
      <trkpt lat="43.09842899999962" lon="-1.2410950000000052">
        <ele>881.809</ele>
        <time>2022-08-24T08:29:38Z</time>
      </trkpt>
      <trkpt lat="43.09841599999962" lon="-1.2411000000000052">
        <ele>882.064</ele>
        <time>2022-08-24T08:29:39Z</time>
      </trkpt>
      <trkpt lat="43.09839899999962" lon="-1.241104000000005">
        <ele>882.224</ele>
        <time>2022-08-24T08:29:40Z</time>
      </trkpt>
      <trkpt lat="43.09838099999962" lon="-1.241104000000005">
        <ele>882.484</ele>
        <time>2022-08-24T08:29:41Z</time>
      </trkpt>
      <trkpt lat="43.09836999999962" lon="-1.241107000000005">
        <ele>882.450</ele>
        <time>2022-08-24T08:29:42Z</time>
      </trkpt>
      <trkpt lat="43.09835599999962" lon="-1.241113000000005">
        <ele>882.622</ele>
        <time>2022-08-24T08:29:43Z</time>
      </trkpt>
      <trkpt lat="43.09834399999962" lon="-1.241119000000005">
        <ele>882.649</ele>
        <time>2022-08-24T08:29:44Z</time>
      </trkpt>
      <trkpt lat="43.09832999999962" lon="-1.241124000000005">
        <ele>882.632</ele>
        <time>2022-08-24T08:29:45Z</time>
      </trkpt>
      <trkpt lat="43.09831799999962" lon="-1.241130000000005">
        <ele>882.856</ele>
        <time>2022-08-24T08:29:46Z</time>
      </trkpt>
      <trkpt lat="43.09830699999962" lon="-1.241130000000005">
        <ele>883.065</ele>
        <time>2022-08-24T08:29:47Z</time>
      </trkpt>
      <trkpt lat="43.098291999999624" lon="-1.241135000000005">
        <ele>883.088</ele>
        <time>2022-08-24T08:29:48Z</time>
      </trkpt>
      <trkpt lat="43.09827399999963" lon="-1.2411390000000049">
        <ele>883.424</ele>
        <time>2022-08-24T08:29:49Z</time>
      </trkpt>
      <trkpt lat="43.098257999999625" lon="-1.2411470000000049">
        <ele>883.426</ele>
        <time>2022-08-24T08:29:50Z</time>
      </trkpt>
      <trkpt lat="43.09824299999963" lon="-1.2411560000000048">
        <ele>883.809</ele>
        <time>2022-08-24T08:29:51Z</time>
      </trkpt>
      <trkpt lat="43.09822499999963" lon="-1.2411640000000048">
        <ele>884.079</ele>
        <time>2022-08-24T08:29:52Z</time>
      </trkpt>
      <trkpt lat="43.09821599999963" lon="-1.2411700000000048">
        <ele>884.229</ele>
        <time>2022-08-24T08:29:53Z</time>
      </trkpt>
      <trkpt lat="43.09820199999963" lon="-1.2411800000000048">
        <ele>884.689</ele>
        <time>2022-08-24T08:29:54Z</time>
      </trkpt>
      <trkpt lat="43.09818999999963" lon="-1.241190000000005">
        <ele>884.885</ele>
        <time>2022-08-24T08:29:55Z</time>
      </trkpt>
      <trkpt lat="43.098174999999635" lon="-1.2411990000000048">
        <ele>885.297</ele>
        <time>2022-08-24T08:29:56Z</time>
      </trkpt>
      <trkpt lat="43.098160999999635" lon="-1.241209000000005">
        <ele>885.294</ele>
        <time>2022-08-24T08:29:57Z</time>
      </trkpt>
      <trkpt lat="43.098149999999634" lon="-1.241219000000005">
        <ele>885.627</ele>
        <time>2022-08-24T08:29:58Z</time>
      </trkpt>
      <trkpt lat="43.098149999999634" lon="-1.241219000000005">
        <ele>885.881</ele>
        <time>2022-08-24T08:29:59Z</time>
      </trkpt>
      <trkpt lat="43.098132999999635" lon="-1.241241000000005">
        <ele>886.060</ele>
        <time>2022-08-24T08:30:00Z</time>
      </trkpt>
      <trkpt lat="43.09812599999964" lon="-1.241248000000005">
        <ele>886.226</ele>
        <time>2022-08-24T08:30:01Z</time>
      </trkpt>
      <trkpt lat="43.09811399999964" lon="-1.241253000000005">
        <ele>886.247</ele>
        <time>2022-08-24T08:30:02Z</time>
      </trkpt>
      <trkpt lat="43.09810199999964" lon="-1.241255000000005">
        <ele>886.411</ele>
        <time>2022-08-24T08:30:03Z</time>
      </trkpt>
      <trkpt lat="43.098089999999644" lon="-1.2412510000000052">
        <ele>886.609</ele>
        <time>2022-08-24T08:30:04Z</time>
      </trkpt>
      <trkpt lat="43.09807099999964" lon="-1.2412460000000052">
        <ele>886.883</ele>
        <time>2022-08-24T08:30:05Z</time>
      </trkpt>
      <trkpt lat="43.098058999999644" lon="-1.2412510000000052">
        <ele>886.823</ele>
        <time>2022-08-24T08:30:06Z</time>
      </trkpt>
      <trkpt lat="43.09804899999964" lon="-1.2412630000000051">
        <ele>887.093</ele>
        <time>2022-08-24T08:30:07Z</time>
      </trkpt>
      <trkpt lat="43.09803999999964" lon="-1.241277000000005">
        <ele>887.249</ele>
        <time>2022-08-24T08:30:08Z</time>
      </trkpt>
      <trkpt lat="43.09802999999964" lon="-1.2412870000000051">
        <ele>887.441</ele>
        <time>2022-08-24T08:30:09Z</time>
      </trkpt>
      <trkpt lat="43.09802099999964" lon="-1.241293000000005">
        <ele>887.638</ele>
        <time>2022-08-24T08:30:10Z</time>
      </trkpt>
      <trkpt lat="43.09801199999964" lon="-1.241302000000005">
        <ele>888.061</ele>
        <time>2022-08-24T08:30:11Z</time>
      </trkpt>
      <trkpt lat="43.09800299999964" lon="-1.241309000000005">
        <ele>888.285</ele>
        <time>2022-08-24T08:30:12Z</time>
      </trkpt>
      <trkpt lat="43.09799199999964" lon="-1.2413140000000051">
        <ele>888.274</ele>
        <time>2022-08-24T08:30:13Z</time>
      </trkpt>
      <trkpt lat="43.09798099999964" lon="-1.241320000000005">
        <ele>888.434</ele>
        <time>2022-08-24T08:30:14Z</time>
      </trkpt>
      <trkpt lat="43.09796699999964" lon="-1.241328000000005">
        <ele>888.455</ele>
        <time>2022-08-24T08:30:15Z</time>
      </trkpt>
      <trkpt lat="43.097954999999644" lon="-1.241334000000005">
        <ele>888.610</ele>
        <time>2022-08-24T08:30:16Z</time>
      </trkpt>
      <trkpt lat="43.097942999999646" lon="-1.241339000000005">
        <ele>888.609</ele>
        <time>2022-08-24T08:30:17Z</time>
      </trkpt>
      <trkpt lat="43.09793299999964" lon="-1.241343000000005">
        <ele>888.824</ele>
        <time>2022-08-24T08:30:18Z</time>
      </trkpt>
      <trkpt lat="43.097923999999644" lon="-1.241348000000005">
        <ele>889.024</ele>
        <time>2022-08-24T08:30:19Z</time>
      </trkpt>
      <trkpt lat="43.09791599999964" lon="-1.241356000000005">
        <ele>889.274</ele>
        <time>2022-08-24T08:30:20Z</time>
      </trkpt>
      <trkpt lat="43.09790799999964" lon="-1.241369000000005">
        <ele>889.230</ele>
        <time>2022-08-24T08:30:21Z</time>
      </trkpt>
      <trkpt lat="43.09789799999964" lon="-1.2413760000000051">
        <ele>889.632</ele>
        <time>2022-08-24T08:30:22Z</time>
      </trkpt>
      <trkpt lat="43.09788099999964" lon="-1.241374000000005">
        <ele>889.879</ele>
        <time>2022-08-24T08:30:23Z</time>
      </trkpt>
      <trkpt lat="43.09786999999964" lon="-1.241377000000005">
        <ele>889.842</ele>
        <time>2022-08-24T08:30:24Z</time>
      </trkpt>
      <trkpt lat="43.09786199999964" lon="-1.2413790000000051">
        <ele>890.096</ele>
        <time>2022-08-24T08:30:25Z</time>
      </trkpt>
      <trkpt lat="43.09784999999964" lon="-1.241383000000005">
        <ele>890.265</ele>
        <time>2022-08-24T08:30:26Z</time>
      </trkpt>
      <trkpt lat="43.09783599999964" lon="-1.241390000000005">
        <ele>890.466</ele>
        <time>2022-08-24T08:30:27Z</time>
      </trkpt>
      <trkpt lat="43.09782499999964" lon="-1.2413950000000051">
        <ele>890.629</ele>
        <time>2022-08-24T08:30:28Z</time>
      </trkpt>
      <trkpt lat="43.09781299999964" lon="-1.241398000000005">
        <ele>890.621</ele>
        <time>2022-08-24T08:30:29Z</time>
      </trkpt>
      <trkpt lat="43.09780099999964" lon="-1.241402000000005">
        <ele>890.809</ele>
        <time>2022-08-24T08:30:30Z</time>
      </trkpt>
      <trkpt lat="43.09778899999964" lon="-1.241407000000005">
        <ele>890.857</ele>
        <time>2022-08-24T08:30:31Z</time>
      </trkpt>
      <trkpt lat="43.09777599999964" lon="-1.241409000000005">
        <ele>891.077</ele>
        <time>2022-08-24T08:30:32Z</time>
      </trkpt>
      <trkpt lat="43.09776699999964" lon="-1.2414110000000051">
        <ele>891.287</ele>
        <time>2022-08-24T08:30:33Z</time>
      </trkpt>
      <trkpt lat="43.09775399999964" lon="-1.2414140000000051">
        <ele>891.433</ele>
        <time>2022-08-24T08:30:34Z</time>
      </trkpt>
      <trkpt lat="43.09774299999964" lon="-1.241415000000005">
        <ele>891.645</ele>
        <time>2022-08-24T08:30:35Z</time>
      </trkpt>
      <trkpt lat="43.09773099999964" lon="-1.2414140000000051">
        <ele>891.612</ele>
        <time>2022-08-24T08:30:36Z</time>
      </trkpt>
      <trkpt lat="43.09771899999964" lon="-1.2414140000000051">
        <ele>892.065</ele>
        <time>2022-08-24T08:30:37Z</time>
      </trkpt>
      <trkpt lat="43.09770499999964" lon="-1.241417000000005">
        <ele>892.029</ele>
        <time>2022-08-24T08:30:38Z</time>
      </trkpt>
      <trkpt lat="43.09769199999964" lon="-1.241420000000005">
        <ele>892.488</ele>
        <time>2022-08-24T08:30:39Z</time>
      </trkpt>
      <trkpt lat="43.09768099999964" lon="-1.2414190000000052">
        <ele>892.643</ele>
        <time>2022-08-24T08:30:40Z</time>
      </trkpt>
      <trkpt lat="43.09766899999964" lon="-1.2414190000000052">
        <ele>892.664</ele>
        <time>2022-08-24T08:30:41Z</time>
      </trkpt>
      <trkpt lat="43.09765599999964" lon="-1.241420000000005">
        <ele>892.610</ele>
        <time>2022-08-24T08:30:42Z</time>
      </trkpt>
      <trkpt lat="43.09764699999964" lon="-1.241421000000005">
        <ele>892.609</ele>
        <time>2022-08-24T08:30:43Z</time>
      </trkpt>
      <trkpt lat="43.09763599999964" lon="-1.2414250000000049">
        <ele>892.875</ele>
        <time>2022-08-24T08:30:44Z</time>
      </trkpt>
      <trkpt lat="43.09762499999964" lon="-1.2414290000000048">
        <ele>893.035</ele>
        <time>2022-08-24T08:30:45Z</time>
      </trkpt>
      <trkpt lat="43.097614999999635" lon="-1.2414300000000047">
        <ele>893.415</ele>
        <time>2022-08-24T08:30:46Z</time>
      </trkpt>
      <trkpt lat="43.09760199999963" lon="-1.2414250000000047">
        <ele>893.671</ele>
        <time>2022-08-24T08:30:47Z</time>
      </trkpt>
      <trkpt lat="43.09759099999963" lon="-1.2414230000000046">
        <ele>893.843</ele>
        <time>2022-08-24T08:30:48Z</time>
      </trkpt>
      <trkpt lat="43.09757999999963" lon="-1.2414200000000046">
        <ele>894.070</ele>
        <time>2022-08-24T08:30:49Z</time>
      </trkpt>
      <trkpt lat="43.09757199999963" lon="-1.2414190000000047">
        <ele>894.053</ele>
        <time>2022-08-24T08:30:50Z</time>
      </trkpt>
      <trkpt lat="43.09755999999963" lon="-1.2414230000000046">
        <ele>894.287</ele>
        <time>2022-08-24T08:30:51Z</time>
      </trkpt>
      <trkpt lat="43.09755099999963" lon="-1.2414210000000045">
        <ele>894.466</ele>
        <time>2022-08-24T08:30:52Z</time>
      </trkpt>
      <trkpt lat="43.09754099999963" lon="-1.2414160000000045">
        <ele>894.641</ele>
        <time>2022-08-24T08:30:53Z</time>
      </trkpt>
      <trkpt lat="43.09752999999963" lon="-1.2414110000000045">
        <ele>894.881</ele>
        <time>2022-08-24T08:30:54Z</time>
      </trkpt>
      <trkpt lat="43.09751699999963" lon="-1.2414110000000045">
        <ele>894.809</ele>
        <time>2022-08-24T08:30:55Z</time>
      </trkpt>
      <trkpt lat="43.09750799999963" lon="-1.2414150000000044">
        <ele>895.009</ele>
        <time>2022-08-24T08:30:56Z</time>
      </trkpt>
      <trkpt lat="43.09749699999963" lon="-1.2414190000000043">
        <ele>895.215</ele>
        <time>2022-08-24T08:30:57Z</time>
      </trkpt>
      <trkpt lat="43.09748799999963" lon="-1.2414250000000042">
        <ele>895.485</ele>
        <time>2022-08-24T08:30:58Z</time>
      </trkpt>
      <trkpt lat="43.09747999999963" lon="-1.2414320000000043">
        <ele>895.685</ele>
        <time>2022-08-24T08:30:59Z</time>
      </trkpt>
      <trkpt lat="43.09747099999963" lon="-1.2414370000000043">
        <ele>895.641</ele>
        <time>2022-08-24T08:31:00Z</time>
      </trkpt>
      <trkpt lat="43.097460999999626" lon="-1.2414420000000044">
        <ele>895.853</ele>
        <time>2022-08-24T08:31:01Z</time>
      </trkpt>
      <trkpt lat="43.097449999999625" lon="-1.2414400000000043">
        <ele>895.830</ele>
        <time>2022-08-24T08:31:02Z</time>
      </trkpt>
      <trkpt lat="43.09743999999962" lon="-1.2414280000000044">
        <ele>896.033</ele>
        <time>2022-08-24T08:31:03Z</time>
      </trkpt>
      <trkpt lat="43.09742999999962" lon="-1.2414240000000045">
        <ele>896.287</ele>
        <time>2022-08-24T08:31:04Z</time>
      </trkpt>
      <trkpt lat="43.09741799999962" lon="-1.2414250000000044">
        <ele>896.476</ele>
        <time>2022-08-24T08:31:05Z</time>
      </trkpt>
      <trkpt lat="43.09741199999962" lon="-1.2414290000000043">
        <ele>896.675</ele>
        <time>2022-08-24T08:31:06Z</time>
      </trkpt>
      <trkpt lat="43.09740399999962" lon="-1.2414380000000043">
        <ele>896.628</ele>
        <time>2022-08-24T08:31:07Z</time>
      </trkpt>
      <trkpt lat="43.097399999999624" lon="-1.2414440000000042">
        <ele>897.020</ele>
        <time>2022-08-24T08:31:08Z</time>
      </trkpt>
      <trkpt lat="43.097399999999624" lon="-1.2414450000000041">
        <ele>897.209</ele>
        <time>2022-08-24T08:31:09Z</time>
      </trkpt>
      <trkpt lat="43.09739299999963" lon="-1.2414470000000042">
        <ele>897.488</ele>
        <time>2022-08-24T08:31:10Z</time>
      </trkpt>
      <trkpt lat="43.097384999999626" lon="-1.2414550000000042">
        <ele>897.658</ele>
        <time>2022-08-24T08:31:11Z</time>
      </trkpt>
      <trkpt lat="43.097376999999625" lon="-1.2414630000000042">
        <ele>897.628</ele>
        <time>2022-08-24T08:31:12Z</time>
      </trkpt>
      <trkpt lat="43.097368999999624" lon="-1.2414690000000042">
        <ele>897.864</ele>
        <time>2022-08-24T08:31:13Z</time>
      </trkpt>
      <trkpt lat="43.09736099999962" lon="-1.2414740000000042">
        <ele>897.836</ele>
        <time>2022-08-24T08:31:14Z</time>
      </trkpt>
      <trkpt lat="43.097351999999624" lon="-1.2414790000000042">
        <ele>898.023</ele>
        <time>2022-08-24T08:31:15Z</time>
      </trkpt>
      <trkpt lat="43.09734199999962" lon="-1.2414810000000043">
        <ele>897.886</ele>
        <time>2022-08-24T08:31:16Z</time>
      </trkpt>
      <trkpt lat="43.09733299999962" lon="-1.2414840000000043">
        <ele>898.030</ele>
        <time>2022-08-24T08:31:17Z</time>
      </trkpt>
      <trkpt lat="43.097323999999624" lon="-1.2414900000000042">
        <ele>898.059</ele>
        <time>2022-08-24T08:31:18Z</time>
      </trkpt>
      <trkpt lat="43.09731399999962" lon="-1.2414980000000042">
        <ele>898.268</ele>
        <time>2022-08-24T08:31:19Z</time>
      </trkpt>
      <trkpt lat="43.09730499999962" lon="-1.2415060000000042">
        <ele>898.242</ele>
        <time>2022-08-24T08:31:20Z</time>
      </trkpt>
      <trkpt lat="43.09729499999962" lon="-1.2415080000000043">
        <ele>898.226</ele>
        <time>2022-08-24T08:31:21Z</time>
      </trkpt>
      <trkpt lat="43.09728599999962" lon="-1.2415110000000043">
        <ele>898.609</ele>
        <time>2022-08-24T08:31:22Z</time>
      </trkpt>
      <trkpt lat="43.09727399999962" lon="-1.2415130000000043">
        <ele>898.677</ele>
        <time>2022-08-24T08:31:23Z</time>
      </trkpt>
      <trkpt lat="43.09727399999962" lon="-1.2415130000000043">
        <ele>898.677</ele>
        <time>2022-08-24T08:31:24Z</time>
      </trkpt>
      <trkpt lat="43.09724999999962" lon="-1.2415210000000043">
        <ele>899.077</ele>
        <time>2022-08-24T08:31:25Z</time>
      </trkpt>
      <trkpt lat="43.097239999999616" lon="-1.2415290000000043">
        <ele>899.083</ele>
        <time>2022-08-24T08:31:26Z</time>
      </trkpt>
      <trkpt lat="43.09723099999962" lon="-1.2415370000000043">
        <ele>899.255</ele>
        <time>2022-08-24T08:31:27Z</time>
      </trkpt>
      <trkpt lat="43.09722399999962" lon="-1.2415480000000043">
        <ele>899.472</ele>
        <time>2022-08-24T08:31:28Z</time>
      </trkpt>
      <trkpt lat="43.09721599999962" lon="-1.2415570000000042">
        <ele>899.685</ele>
        <time>2022-08-24T08:31:29Z</time>
      </trkpt>
      <trkpt lat="43.09720799999962" lon="-1.2415650000000042">
        <ele>899.839</ele>
        <time>2022-08-24T08:31:30Z</time>
      </trkpt>
      <trkpt lat="43.09719999999962" lon="-1.2415730000000043">
        <ele>900.058</ele>
        <time>2022-08-24T08:31:31Z</time>
      </trkpt>
      <trkpt lat="43.097189999999614" lon="-1.2415790000000042">
        <ele>900.067</ele>
        <time>2022-08-24T08:31:32Z</time>
      </trkpt>
      <trkpt lat="43.09717999999961" lon="-1.2415800000000041">
        <ele>900.281</ele>
        <time>2022-08-24T08:31:33Z</time>
      </trkpt>
      <trkpt lat="43.09716899999961" lon="-1.241578000000004">
        <ele>900.419</ele>
        <time>2022-08-24T08:31:34Z</time>
      </trkpt>
      <trkpt lat="43.09715699999961" lon="-1.241579000000004">
        <ele>900.609</ele>
        <time>2022-08-24T08:31:35Z</time>
      </trkpt>
      <trkpt lat="43.09714299999961" lon="-1.241582000000004">
        <ele>900.627</ele>
        <time>2022-08-24T08:31:36Z</time>
      </trkpt>
      <trkpt lat="43.09713299999961" lon="-1.241587000000004">
        <ele>900.827</ele>
        <time>2022-08-24T08:31:37Z</time>
      </trkpt>
      <trkpt lat="43.09712199999961" lon="-1.241597000000004">
        <ele>900.897</ele>
        <time>2022-08-24T08:31:38Z</time>
      </trkpt>
      <trkpt lat="43.09711399999961" lon="-1.2416070000000041">
        <ele>901.013</ele>
        <time>2022-08-24T08:31:39Z</time>
      </trkpt>
      <trkpt lat="43.09711399999961" lon="-1.2416070000000041">
        <ele>901.235</ele>
        <time>2022-08-24T08:31:40Z</time>
      </trkpt>
      <trkpt lat="43.097097999999605" lon="-1.241627000000004">
        <ele>901.242</ele>
        <time>2022-08-24T08:31:41Z</time>
      </trkpt>
      <trkpt lat="43.097086999999604" lon="-1.241636000000004">
        <ele>901.465</ele>
        <time>2022-08-24T08:31:42Z</time>
      </trkpt>
      <trkpt lat="43.0970759999996" lon="-1.2416400000000039">
        <ele>901.489</ele>
        <time>2022-08-24T08:31:43Z</time>
      </trkpt>
      <trkpt lat="43.0970659999996" lon="-1.2416450000000039">
        <ele>901.438</ele>
        <time>2022-08-24T08:31:44Z</time>
      </trkpt>
      <trkpt lat="43.0970559999996" lon="-1.241652000000004">
        <ele>901.671</ele>
        <time>2022-08-24T08:31:45Z</time>
      </trkpt>
      <trkpt lat="43.0970469999996" lon="-1.241662000000004">
        <ele>901.641</ele>
        <time>2022-08-24T08:31:46Z</time>
      </trkpt>
      <trkpt lat="43.0970389999996" lon="-1.241672000000004">
        <ele>901.815</ele>
        <time>2022-08-24T08:31:47Z</time>
      </trkpt>
      <trkpt lat="43.0970269999996" lon="-1.2416820000000042">
        <ele>902.009</ele>
        <time>2022-08-24T08:31:48Z</time>
      </trkpt>
      <trkpt lat="43.097016999999596" lon="-1.2416890000000043">
        <ele>902.238</ele>
        <time>2022-08-24T08:31:49Z</time>
      </trkpt>
      <trkpt lat="43.09700699999959" lon="-1.2416930000000042">
        <ele>902.238</ele>
        <time>2022-08-24T08:31:50Z</time>
      </trkpt>
      <trkpt lat="43.09699899999959" lon="-1.241697000000004">
        <ele>902.468</ele>
        <time>2022-08-24T08:31:51Z</time>
      </trkpt>
      <trkpt lat="43.09698899999959" lon="-1.241701000000004">
        <ele>902.484</ele>
        <time>2022-08-24T08:31:52Z</time>
      </trkpt>
      <trkpt lat="43.096975999999586" lon="-1.241708000000004">
        <ele>902.446</ele>
        <time>2022-08-24T08:31:53Z</time>
      </trkpt>
      <trkpt lat="43.09696299999958" lon="-1.2417150000000041">
        <ele>902.693</ele>
        <time>2022-08-24T08:31:54Z</time>
      </trkpt>
      <trkpt lat="43.09695199999958" lon="-1.241719000000004">
        <ele>902.856</ele>
        <time>2022-08-24T08:31:55Z</time>
      </trkpt>
      <trkpt lat="43.09694699999958" lon="-1.241721000000004">
        <ele>903.050</ele>
        <time>2022-08-24T08:31:56Z</time>
      </trkpt>
      <trkpt lat="43.09693599999958" lon="-1.241726000000004">
        <ele>903.249</ele>
        <time>2022-08-24T08:31:57Z</time>
      </trkpt>
      <trkpt lat="43.09692699999958" lon="-1.2417340000000041">
        <ele>903.672</ele>
        <time>2022-08-24T08:31:58Z</time>
      </trkpt>
      <trkpt lat="43.09691599999958" lon="-1.241745000000004">
        <ele>903.613</ele>
        <time>2022-08-24T08:31:59Z</time>
      </trkpt>
      <trkpt lat="43.09690699999958" lon="-1.241749000000004">
        <ele>903.814</ele>
        <time>2022-08-24T08:32:00Z</time>
      </trkpt>
      <trkpt lat="43.096891999999585" lon="-1.2417530000000039">
        <ele>904.009</ele>
        <time>2022-08-24T08:32:01Z</time>
      </trkpt>
      <trkpt lat="43.096882999999586" lon="-1.241752000000004">
        <ele>904.018</ele>
        <time>2022-08-24T08:32:02Z</time>
      </trkpt>
      <trkpt lat="43.09687099999959" lon="-1.241749000000004">
        <ele>904.288</ele>
        <time>2022-08-24T08:32:03Z</time>
      </trkpt>
      <trkpt lat="43.09685999999959" lon="-1.241752000000004">
        <ele>904.468</ele>
        <time>2022-08-24T08:32:04Z</time>
      </trkpt>
      <trkpt lat="43.09685099999959" lon="-1.241758000000004">
        <ele>904.644</ele>
        <time>2022-08-24T08:32:05Z</time>
      </trkpt>
      <trkpt lat="43.09684499999959" lon="-1.241765000000004">
        <ele>904.826</ele>
        <time>2022-08-24T08:32:06Z</time>
      </trkpt>
      <trkpt lat="43.09683499999959" lon="-1.241771000000004">
        <ele>904.853</ele>
        <time>2022-08-24T08:32:07Z</time>
      </trkpt>
      <trkpt lat="43.09682299999959" lon="-1.241777000000004">
        <ele>905.076</ele>
        <time>2022-08-24T08:32:08Z</time>
      </trkpt>
      <trkpt lat="43.09680799999959" lon="-1.2417800000000039">
        <ele>905.060</ele>
        <time>2022-08-24T08:32:09Z</time>
      </trkpt>
      <trkpt lat="43.09679799999959" lon="-1.2417810000000038">
        <ele>905.229</ele>
        <time>2022-08-24T08:32:10Z</time>
      </trkpt>
      <trkpt lat="43.096787999999584" lon="-1.2417860000000038">
        <ele>905.482</ele>
        <time>2022-08-24T08:32:11Z</time>
      </trkpt>
      <trkpt lat="43.09678099999959" lon="-1.2417870000000037">
        <ele>905.643</ele>
        <time>2022-08-24T08:32:12Z</time>
      </trkpt>
      <trkpt lat="43.096770999999585" lon="-1.2417900000000037">
        <ele>905.617</ele>
        <time>2022-08-24T08:32:13Z</time>
      </trkpt>
      <trkpt lat="43.09675899999959" lon="-1.2417920000000038">
        <ele>905.609</ele>
        <time>2022-08-24T08:32:14Z</time>
      </trkpt>
      <trkpt lat="43.096745999999584" lon="-1.2417950000000038">
        <ele>905.889</ele>
        <time>2022-08-24T08:32:15Z</time>
      </trkpt>
      <trkpt lat="43.09673599999958" lon="-1.2417990000000036">
        <ele>906.039</ele>
        <time>2022-08-24T08:32:16Z</time>
      </trkpt>
      <trkpt lat="43.09672799999958" lon="-1.2418030000000035">
        <ele>906.269</ele>
        <time>2022-08-24T08:32:17Z</time>
      </trkpt>
      <trkpt lat="43.09671699999958" lon="-1.2418080000000036">
        <ele>906.265</ele>
        <time>2022-08-24T08:32:18Z</time>
      </trkpt>
      <trkpt lat="43.09670299999958" lon="-1.2418160000000036">
        <ele>906.237</ele>
        <time>2022-08-24T08:32:19Z</time>
      </trkpt>
      <trkpt lat="43.09669199999958" lon="-1.2418210000000036">
        <ele>906.474</ele>
        <time>2022-08-24T08:32:20Z</time>
      </trkpt>
      <trkpt lat="43.09668499999958" lon="-1.2418230000000037">
        <ele>906.447</ele>
        <time>2022-08-24T08:32:21Z</time>
      </trkpt>
      <trkpt lat="43.09667299999958" lon="-1.2418270000000036">
        <ele>906.821</ele>
        <time>2022-08-24T08:32:22Z</time>
      </trkpt>
      <trkpt lat="43.09665899999958" lon="-1.2418310000000035">
        <ele>906.810</ele>
        <time>2022-08-24T08:32:23Z</time>
      </trkpt>
      <trkpt lat="43.09664799999958" lon="-1.2418360000000035">
        <ele>907.025</ele>
        <time>2022-08-24T08:32:24Z</time>
      </trkpt>
      <trkpt lat="43.09663199999958" lon="-1.2418420000000034">
        <ele>907.226</ele>
        <time>2022-08-24T08:32:25Z</time>
      </trkpt>
      <trkpt lat="43.09661799999958" lon="-1.2418500000000035">
        <ele>907.208</ele>
        <time>2022-08-24T08:32:26Z</time>
      </trkpt>
      <trkpt lat="43.09660899999958" lon="-1.2418530000000034">
        <ele>907.409</ele>
        <time>2022-08-24T08:32:27Z</time>
      </trkpt>
      <trkpt lat="43.09659599999958" lon="-1.2418540000000033">
        <ele>907.663</ele>
        <time>2022-08-24T08:32:28Z</time>
      </trkpt>
      <trkpt lat="43.09657599999958" lon="-1.2418560000000034">
        <ele>907.673</ele>
        <time>2022-08-24T08:32:29Z</time>
      </trkpt>
      <trkpt lat="43.09656199999958" lon="-1.2418640000000034">
        <ele>907.883</ele>
        <time>2022-08-24T08:32:30Z</time>
      </trkpt>
      <trkpt lat="43.096551999999576" lon="-1.2418690000000034">
        <ele>908.039</ele>
        <time>2022-08-24T08:32:31Z</time>
      </trkpt>
      <trkpt lat="43.096537999999576" lon="-1.2418710000000035">
        <ele>908.081</ele>
        <time>2022-08-24T08:32:32Z</time>
      </trkpt>
      <trkpt lat="43.096523999999576" lon="-1.2418750000000034">
        <ele>908.238</ele>
        <time>2022-08-24T08:32:33Z</time>
      </trkpt>
      <trkpt lat="43.096507999999574" lon="-1.2418820000000035">
        <ele>908.451</ele>
        <time>2022-08-24T08:32:34Z</time>
      </trkpt>
      <trkpt lat="43.09649399999957" lon="-1.2418850000000035">
        <ele>908.675</ele>
        <time>2022-08-24T08:32:35Z</time>
      </trkpt>
      <trkpt lat="43.096481999999575" lon="-1.2418890000000034">
        <ele>908.624</ele>
        <time>2022-08-24T08:32:36Z</time>
      </trkpt>
      <trkpt lat="43.09647199999957" lon="-1.2418950000000033">
        <ele>908.827</ele>
        <time>2022-08-24T08:32:37Z</time>
      </trkpt>
      <trkpt lat="43.09645799999957" lon="-1.2419030000000033">
        <ele>909.068</ele>
        <time>2022-08-24T08:32:38Z</time>
      </trkpt>
      <trkpt lat="43.09644199999957" lon="-1.2419090000000033">
        <ele>909.214</ele>
        <time>2022-08-24T08:32:39Z</time>
      </trkpt>
      <trkpt lat="43.09642899999957" lon="-1.2419110000000033">
        <ele>909.209</ele>
        <time>2022-08-24T08:32:40Z</time>
      </trkpt>
      <trkpt lat="43.096415999999564" lon="-1.2419130000000034">
        <ele>909.413</ele>
        <time>2022-08-24T08:32:41Z</time>
      </trkpt>
      <trkpt lat="43.09640599999956" lon="-1.2419160000000034">
        <ele>909.623</ele>
        <time>2022-08-24T08:32:42Z</time>
      </trkpt>
      <trkpt lat="43.09639299999956" lon="-1.2419200000000032">
        <ele>909.623</ele>
        <time>2022-08-24T08:32:43Z</time>
      </trkpt>
      <trkpt lat="43.09637799999956" lon="-1.2419250000000033">
        <ele>910.069</ele>
        <time>2022-08-24T08:32:44Z</time>
      </trkpt>
      <trkpt lat="43.09636699999956" lon="-1.2419310000000032">
        <ele>910.061</ele>
        <time>2022-08-24T08:32:45Z</time>
      </trkpt>
      <trkpt lat="43.09635399999956" lon="-1.2419350000000031">
        <ele>910.058</ele>
        <time>2022-08-24T08:32:46Z</time>
      </trkpt>
      <trkpt lat="43.096343999999554" lon="-1.2419370000000032">
        <ele>910.441</ele>
        <time>2022-08-24T08:32:47Z</time>
      </trkpt>
      <trkpt lat="43.09633099999955" lon="-1.2419400000000032">
        <ele>910.645</ele>
        <time>2022-08-24T08:32:48Z</time>
      </trkpt>
      <trkpt lat="43.09631399999955" lon="-1.2419480000000032">
        <ele>910.814</ele>
        <time>2022-08-24T08:32:49Z</time>
      </trkpt>
      <trkpt lat="43.09630099999955" lon="-1.2419560000000032">
        <ele>911.063</ele>
        <time>2022-08-24T08:32:50Z</time>
      </trkpt>
      <trkpt lat="43.09628899999955" lon="-1.2419640000000032">
        <ele>911.044</ele>
        <time>2022-08-24T08:32:51Z</time>
      </trkpt>
      <trkpt lat="43.09628099999955" lon="-1.2419670000000032">
        <ele>911.218</ele>
        <time>2022-08-24T08:32:52Z</time>
      </trkpt>
      <trkpt lat="43.09626799999955" lon="-1.2419720000000032">
        <ele>911.209</ele>
        <time>2022-08-24T08:32:53Z</time>
      </trkpt>
      <trkpt lat="43.096251999999545" lon="-1.2419790000000033">
        <ele>911.687</ele>
        <time>2022-08-24T08:32:54Z</time>
      </trkpt>
      <trkpt lat="43.09623999999955" lon="-1.2419810000000033">
        <ele>911.687</ele>
        <time>2022-08-24T08:32:55Z</time>
      </trkpt>
      <trkpt lat="43.09622599999955" lon="-1.2419820000000033">
        <ele>911.897</ele>
        <time>2022-08-24T08:32:56Z</time>
      </trkpt>
      <trkpt lat="43.096214999999546" lon="-1.2419840000000033">
        <ele>911.883</ele>
        <time>2022-08-24T08:32:57Z</time>
      </trkpt>
      <trkpt lat="43.09620299999955" lon="-1.2419900000000033">
        <ele>912.025</ele>
        <time>2022-08-24T08:32:58Z</time>
      </trkpt>
      <trkpt lat="43.096189999999545" lon="-1.2419980000000033">
        <ele>912.452</ele>
        <time>2022-08-24T08:32:59Z</time>
      </trkpt>
      <trkpt lat="43.09618099999955" lon="-1.2420070000000032">
        <ele>912.655</ele>
        <time>2022-08-24T08:33:00Z</time>
      </trkpt>
      <trkpt lat="43.09617099999954" lon="-1.2420130000000031">
        <ele>912.839</ele>
        <time>2022-08-24T08:33:01Z</time>
      </trkpt>
      <trkpt lat="43.09616299999954" lon="-1.242017000000003">
        <ele>912.878</ele>
        <time>2022-08-24T08:33:02Z</time>
      </trkpt>
      <trkpt lat="43.09614999999954" lon="-1.242020000000003">
        <ele>912.881</ele>
        <time>2022-08-24T08:33:03Z</time>
      </trkpt>
      <trkpt lat="43.09613399999954" lon="-1.242022000000003">
        <ele>913.061</ele>
        <time>2022-08-24T08:33:04Z</time>
      </trkpt>
      <trkpt lat="43.09612299999954" lon="-1.242028000000003">
        <ele>913.217</ele>
        <time>2022-08-24T08:33:05Z</time>
      </trkpt>
      <trkpt lat="43.096112999999534" lon="-1.242038000000003">
        <ele>913.209</ele>
        <time>2022-08-24T08:33:06Z</time>
      </trkpt>
      <trkpt lat="43.09610599999954" lon="-1.2420450000000032">
        <ele>913.239</ele>
        <time>2022-08-24T08:33:07Z</time>
      </trkpt>
      <trkpt lat="43.09609699999954" lon="-1.2420520000000033">
        <ele>913.489</ele>
        <time>2022-08-24T08:33:08Z</time>
      </trkpt>
      <trkpt lat="43.096083999999536" lon="-1.2420580000000032">
        <ele>913.639</ele>
        <time>2022-08-24T08:33:09Z</time>
      </trkpt>
      <trkpt lat="43.09607099999953" lon="-1.2420650000000033">
        <ele>914.035</ele>
        <time>2022-08-24T08:33:10Z</time>
      </trkpt>
      <trkpt lat="43.09605799999953" lon="-1.2420740000000032">
        <ele>914.477</ele>
        <time>2022-08-24T08:33:11Z</time>
      </trkpt>
      <trkpt lat="43.09605199999953" lon="-1.2420780000000031">
        <ele>914.664</ele>
        <time>2022-08-24T08:33:12Z</time>
      </trkpt>
      <trkpt lat="43.09604099999953" lon="-1.2420830000000032">
        <ele>914.837</ele>
        <time>2022-08-24T08:33:13Z</time>
      </trkpt>
      <trkpt lat="43.09602999999953" lon="-1.242087000000003">
        <ele>914.831</ele>
        <time>2022-08-24T08:33:14Z</time>
      </trkpt>
      <trkpt lat="43.09601999999953" lon="-1.242091000000003">
        <ele>915.050</ele>
        <time>2022-08-24T08:33:15Z</time>
      </trkpt>
      <trkpt lat="43.096006999999524" lon="-1.2420950000000028">
        <ele>915.214</ele>
        <time>2022-08-24T08:33:16Z</time>
      </trkpt>
      <trkpt lat="43.09599699999952" lon="-1.2420980000000028">
        <ele>915.654</ele>
        <time>2022-08-24T08:33:17Z</time>
      </trkpt>
      <trkpt lat="43.09598399999952" lon="-1.2421010000000028">
        <ele>916.009</ele>
        <time>2022-08-24T08:33:18Z</time>
      </trkpt>
      <trkpt lat="43.09596699999952" lon="-1.2421080000000029">
        <ele>916.009</ele>
        <time>2022-08-24T08:33:19Z</time>
      </trkpt>
      <trkpt lat="43.095953999999516" lon="-1.242115000000003">
        <ele>916.422</ele>
        <time>2022-08-24T08:33:20Z</time>
      </trkpt>
      <trkpt lat="43.09594399999951" lon="-1.242118000000003">
        <ele>916.482</ele>
        <time>2022-08-24T08:33:21Z</time>
      </trkpt>
      <trkpt lat="43.09593399999951" lon="-1.242125000000003">
        <ele>916.442</ele>
        <time>2022-08-24T08:33:22Z</time>
      </trkpt>
      <trkpt lat="43.09592299999951" lon="-1.242133000000003">
        <ele>916.848</ele>
        <time>2022-08-24T08:33:23Z</time>
      </trkpt>
      <trkpt lat="43.09591199999951" lon="-1.2421400000000031">
        <ele>917.010</ele>
        <time>2022-08-24T08:33:24Z</time>
      </trkpt>
      <trkpt lat="43.09590099999951" lon="-1.242144000000003">
        <ele>917.067</ele>
        <time>2022-08-24T08:33:25Z</time>
      </trkpt>
      <trkpt lat="43.09588999999951" lon="-1.242149000000003">
        <ele>917.280</ele>
        <time>2022-08-24T08:33:26Z</time>
      </trkpt>
      <trkpt lat="43.095879999999504" lon="-1.2421510000000031">
        <ele>917.444</ele>
        <time>2022-08-24T08:33:27Z</time>
      </trkpt>
      <trkpt lat="43.0958689999995" lon="-1.242155000000003">
        <ele>917.413</ele>
        <time>2022-08-24T08:33:28Z</time>
      </trkpt>
      <trkpt lat="43.0958559999995" lon="-1.242164000000003">
        <ele>917.613</ele>
        <time>2022-08-24T08:33:29Z</time>
      </trkpt>
      <trkpt lat="43.0958439999995" lon="-1.2421730000000029">
        <ele>918.043</ele>
        <time>2022-08-24T08:33:30Z</time>
      </trkpt>
      <trkpt lat="43.095836999999506" lon="-1.2421840000000028">
        <ele>918.007</ele>
        <time>2022-08-24T08:33:31Z</time>
      </trkpt>
      <trkpt lat="43.0958269999995" lon="-1.2421890000000029">
        <ele>918.209</ele>
        <time>2022-08-24T08:33:32Z</time>
      </trkpt>
      <trkpt lat="43.0958159999995" lon="-1.2421930000000028">
        <ele>918.492</ele>
        <time>2022-08-24T08:33:33Z</time>
      </trkpt>
      <trkpt lat="43.095803999999504" lon="-1.2421950000000028">
        <ele>918.622</ele>
        <time>2022-08-24T08:33:34Z</time>
      </trkpt>
      <trkpt lat="43.095791999999506" lon="-1.2421980000000028">
        <ele>918.842</ele>
        <time>2022-08-24T08:33:35Z</time>
      </trkpt>
      <trkpt lat="43.09578299999951" lon="-1.242205000000003">
        <ele>919.058</ele>
        <time>2022-08-24T08:33:36Z</time>
      </trkpt>
      <trkpt lat="43.09577399999951" lon="-1.242215000000003">
        <ele>919.230</ele>
        <time>2022-08-24T08:33:37Z</time>
      </trkpt>
      <trkpt lat="43.09576299999951" lon="-1.242223000000003">
        <ele>919.237</ele>
        <time>2022-08-24T08:33:38Z</time>
      </trkpt>
      <trkpt lat="43.09575099999951" lon="-1.242226000000003">
        <ele>919.470</ele>
        <time>2022-08-24T08:33:39Z</time>
      </trkpt>
      <trkpt lat="43.09574299999951" lon="-1.2422300000000028">
        <ele>919.464</ele>
        <time>2022-08-24T08:33:40Z</time>
      </trkpt>
      <trkpt lat="43.09573499999951" lon="-1.2422360000000028">
        <ele>919.473</ele>
        <time>2022-08-24T08:33:41Z</time>
      </trkpt>
      <trkpt lat="43.095726999999506" lon="-1.2422440000000028">
        <ele>919.692</ele>
        <time>2022-08-24T08:33:42Z</time>
      </trkpt>
      <trkpt lat="43.09571799999951" lon="-1.2422500000000027">
        <ele>919.673</ele>
        <time>2022-08-24T08:33:43Z</time>
      </trkpt>
      <trkpt lat="43.09570599999951" lon="-1.2422560000000027">
        <ele>919.820</ele>
        <time>2022-08-24T08:33:44Z</time>
      </trkpt>
      <trkpt lat="43.09569699999951" lon="-1.2422620000000026">
        <ele>920.009</ele>
        <time>2022-08-24T08:33:45Z</time>
      </trkpt>
      <trkpt lat="43.09568899999951" lon="-1.2422650000000026">
        <ele>920.210</ele>
        <time>2022-08-24T08:33:46Z</time>
      </trkpt>
      <trkpt lat="43.09567799999951" lon="-1.2422690000000025">
        <ele>920.420</ele>
        <time>2022-08-24T08:33:47Z</time>
      </trkpt>
      <trkpt lat="43.09566599999951" lon="-1.2422710000000026">
        <ele>920.430</ele>
        <time>2022-08-24T08:33:48Z</time>
      </trkpt>
      <trkpt lat="43.09565299999951" lon="-1.2422760000000026">
        <ele>920.886</ele>
        <time>2022-08-24T08:33:49Z</time>
      </trkpt>
      <trkpt lat="43.095642999999505" lon="-1.2422820000000026">
        <ele>920.898</ele>
        <time>2022-08-24T08:33:50Z</time>
      </trkpt>
      <trkpt lat="43.09563399999951" lon="-1.2422870000000026">
        <ele>921.275</ele>
        <time>2022-08-24T08:33:51Z</time>
      </trkpt>
      <trkpt lat="43.09562199999951" lon="-1.2422920000000026">
        <ele>921.258</ele>
        <time>2022-08-24T08:33:52Z</time>
      </trkpt>
      <trkpt lat="43.09560999999951" lon="-1.2422990000000027">
        <ele>921.422</ele>
        <time>2022-08-24T08:33:53Z</time>
      </trkpt>
      <trkpt lat="43.09559999999951" lon="-1.2423080000000026">
        <ele>921.481</ele>
        <time>2022-08-24T08:33:54Z</time>
      </trkpt>
      <trkpt lat="43.09558799999951" lon="-1.2423160000000026">
        <ele>921.657</ele>
        <time>2022-08-24T08:33:55Z</time>
      </trkpt>
      <trkpt lat="43.095577999999506" lon="-1.2423210000000027">
        <ele>921.800</ele>
        <time>2022-08-24T08:33:56Z</time>
      </trkpt>
      <trkpt lat="43.0955679999995" lon="-1.2423230000000027">
        <ele>921.820</ele>
        <time>2022-08-24T08:33:57Z</time>
      </trkpt>
      <trkpt lat="43.095552999999505" lon="-1.2423260000000027">
        <ele>922.009</ele>
        <time>2022-08-24T08:33:58Z</time>
      </trkpt>
      <trkpt lat="43.0955339999995" lon="-1.2423310000000027">
        <ele>922.236</ele>
        <time>2022-08-24T08:33:59Z</time>
      </trkpt>
      <trkpt lat="43.0955209999995" lon="-1.2423390000000027">
        <ele>922.466</ele>
        <time>2022-08-24T08:34:00Z</time>
      </trkpt>
      <trkpt lat="43.0955119999995" lon="-1.2423480000000027">
        <ele>922.646</ele>
        <time>2022-08-24T08:34:01Z</time>
      </trkpt>
      <trkpt lat="43.0955039999995" lon="-1.2423570000000026">
        <ele>922.632</ele>
        <time>2022-08-24T08:34:02Z</time>
      </trkpt>
      <trkpt lat="43.0954939999995" lon="-1.2423660000000025">
        <ele>923.034</ele>
        <time>2022-08-24T08:34:03Z</time>
      </trkpt>
      <trkpt lat="43.095480999999495" lon="-1.2423730000000026">
        <ele>923.071</ele>
        <time>2022-08-24T08:34:04Z</time>
      </trkpt>
      <trkpt lat="43.09546799999949" lon="-1.2423760000000026">
        <ele>923.224</ele>
        <time>2022-08-24T08:34:05Z</time>
      </trkpt>
      <trkpt lat="43.09545699999949" lon="-1.2423770000000025">
        <ele>923.448</ele>
        <time>2022-08-24T08:34:06Z</time>
      </trkpt>
      <trkpt lat="43.09544099999949" lon="-1.2423770000000025">
        <ele>923.687</ele>
        <time>2022-08-24T08:34:07Z</time>
      </trkpt>
      <trkpt lat="43.09542499999949" lon="-1.2423780000000024">
        <ele>923.866</ele>
        <time>2022-08-24T08:34:08Z</time>
      </trkpt>
      <trkpt lat="43.095405999999485" lon="-1.2423830000000025">
        <ele>924.029</ele>
        <time>2022-08-24T08:34:09Z</time>
      </trkpt>
      <trkpt lat="43.09538999999948" lon="-1.2423870000000024">
        <ele>924.221</ele>
        <time>2022-08-24T08:34:10Z</time>
      </trkpt>
      <trkpt lat="43.09537899999948" lon="-1.2423860000000024">
        <ele>924.409</ele>
        <time>2022-08-24T08:34:11Z</time>
      </trkpt>
      <trkpt lat="43.095366999999484" lon="-1.2423840000000024">
        <ele>924.447</ele>
        <time>2022-08-24T08:34:12Z</time>
      </trkpt>
      <trkpt lat="43.095355999999484" lon="-1.2423840000000024">
        <ele>924.827</ele>
        <time>2022-08-24T08:34:13Z</time>
      </trkpt>
      <trkpt lat="43.095341999999484" lon="-1.2423840000000024">
        <ele>925.027</ele>
        <time>2022-08-24T08:34:14Z</time>
      </trkpt>
      <trkpt lat="43.09532899999948" lon="-1.2423860000000024">
        <ele>925.223</ele>
        <time>2022-08-24T08:34:15Z</time>
      </trkpt>
      <trkpt lat="43.09531699999948" lon="-1.2423860000000024">
        <ele>925.235</ele>
        <time>2022-08-24T08:34:16Z</time>
      </trkpt>
      <trkpt lat="43.09530299999948" lon="-1.2423880000000025">
        <ele>925.482</ele>
        <time>2022-08-24T08:34:17Z</time>
      </trkpt>
      <trkpt lat="43.09529199999948" lon="-1.2423930000000025">
        <ele>925.835</ele>
        <time>2022-08-24T08:34:18Z</time>
      </trkpt>
      <trkpt lat="43.09527899999948" lon="-1.2423960000000025">
        <ele>926.089</ele>
        <time>2022-08-24T08:34:19Z</time>
      </trkpt>
      <trkpt lat="43.09526399999948" lon="-1.2423980000000026">
        <ele>926.258</ele>
        <time>2022-08-24T08:34:20Z</time>
      </trkpt>
      <trkpt lat="43.09525299999948" lon="-1.2423990000000025">
        <ele>926.296</ele>
        <time>2022-08-24T08:34:21Z</time>
      </trkpt>
      <trkpt lat="43.09523999999948" lon="-1.2423970000000024">
        <ele>926.631</ele>
        <time>2022-08-24T08:34:22Z</time>
      </trkpt>
      <trkpt lat="43.09522599999948" lon="-1.2423980000000023">
        <ele>926.824</ele>
        <time>2022-08-24T08:34:23Z</time>
      </trkpt>
      <trkpt lat="43.09521399999948" lon="-1.2423990000000023">
        <ele>926.809</ele>
        <time>2022-08-24T08:34:24Z</time>
      </trkpt>
      <trkpt lat="43.09520299999948" lon="-1.2423990000000023">
        <ele>927.070</ele>
        <time>2022-08-24T08:34:25Z</time>
      </trkpt>
      <trkpt lat="43.09519599999948" lon="-1.2424030000000021">
        <ele>927.070</ele>
        <time>2022-08-24T08:34:26Z</time>
      </trkpt>
      <trkpt lat="43.095180999999485" lon="-1.2424050000000022">
        <ele>927.230</ele>
        <time>2022-08-24T08:34:27Z</time>
      </trkpt>
      <trkpt lat="43.09516599999949" lon="-1.2424060000000021">
        <ele>927.436</ele>
        <time>2022-08-24T08:34:28Z</time>
      </trkpt>
      <trkpt lat="43.09515199999949" lon="-1.2424050000000022">
        <ele>927.678</ele>
        <time>2022-08-24T08:34:29Z</time>
      </trkpt>
      <trkpt lat="43.09513999999949" lon="-1.2424050000000022">
        <ele>927.865</ele>
        <time>2022-08-24T08:34:30Z</time>
      </trkpt>
      <trkpt lat="43.09512899999949" lon="-1.2424060000000021">
        <ele>927.888</ele>
        <time>2022-08-24T08:34:31Z</time>
      </trkpt>
      <trkpt lat="43.095115999999486" lon="-1.2424060000000021">
        <ele>928.032</ele>
        <time>2022-08-24T08:34:32Z</time>
      </trkpt>
      <trkpt lat="43.095104999999485" lon="-1.2424030000000021">
        <ele>928.241</ele>
        <time>2022-08-24T08:34:33Z</time>
      </trkpt>
      <trkpt lat="43.09509299999949" lon="-1.2423990000000023">
        <ele>928.429</ele>
        <time>2022-08-24T08:34:34Z</time>
      </trkpt>
      <trkpt lat="43.095081999999486" lon="-1.2423950000000024">
        <ele>928.600</ele>
        <time>2022-08-24T08:34:35Z</time>
      </trkpt>
      <trkpt lat="43.095076999999485" lon="-1.2423930000000023">
        <ele>928.620</ele>
        <time>2022-08-24T08:34:36Z</time>
      </trkpt>
      <trkpt lat="43.09506699999948" lon="-1.2423940000000022">
        <ele>928.809</ele>
        <time>2022-08-24T08:34:37Z</time>
      </trkpt>
      <trkpt lat="43.09505599999948" lon="-1.2423970000000022">
        <ele>929.033</ele>
        <time>2022-08-24T08:34:38Z</time>
      </trkpt>
      <trkpt lat="43.09504099999948" lon="-1.2423980000000021">
        <ele>929.223</ele>
        <time>2022-08-24T08:34:39Z</time>
      </trkpt>
      <trkpt lat="43.095028999999485" lon="-1.2424000000000022">
        <ele>929.213</ele>
        <time>2022-08-24T08:34:40Z</time>
      </trkpt>
      <trkpt lat="43.09502199999949" lon="-1.2424000000000022">
        <ele>929.499</ele>
        <time>2022-08-24T08:34:41Z</time>
      </trkpt>
      <trkpt lat="43.095011999999485" lon="-1.2423990000000023">
        <ele>929.651</ele>
        <time>2022-08-24T08:34:42Z</time>
      </trkpt>
      <trkpt lat="43.09500199999948" lon="-1.2423950000000024">
        <ele>929.668</ele>
        <time>2022-08-24T08:34:43Z</time>
      </trkpt>
      <trkpt lat="43.09498899999948" lon="-1.2423910000000025">
        <ele>929.631</ele>
        <time>2022-08-24T08:34:44Z</time>
      </trkpt>
      <trkpt lat="43.09497599999948" lon="-1.2423890000000024">
        <ele>929.865</ele>
        <time>2022-08-24T08:34:45Z</time>
      </trkpt>
      <trkpt lat="43.094967999999476" lon="-1.2423840000000024">
        <ele>930.044</ele>
        <time>2022-08-24T08:34:46Z</time>
      </trkpt>
      <trkpt lat="43.094956999999475" lon="-1.2423770000000023">
        <ele>930.211</ele>
        <time>2022-08-24T08:34:47Z</time>
      </trkpt>
      <trkpt lat="43.09494399999947" lon="-1.2423720000000023">
        <ele>930.421</ele>
        <time>2022-08-24T08:34:48Z</time>
      </trkpt>
      <trkpt lat="43.09493899999947" lon="-1.2423710000000023">
        <ele>930.803</ele>
        <time>2022-08-24T08:34:49Z</time>
      </trkpt>
      <trkpt lat="43.09492799999947" lon="-1.2423700000000024">
        <ele>930.809</ele>
        <time>2022-08-24T08:34:50Z</time>
      </trkpt>
      <trkpt lat="43.09491599999947" lon="-1.2423680000000024">
        <ele>931.022</ele>
        <time>2022-08-24T08:34:51Z</time>
      </trkpt>
      <trkpt lat="43.09490499999947" lon="-1.2423670000000024">
        <ele>931.242</ele>
        <time>2022-08-24T08:34:52Z</time>
      </trkpt>
      <trkpt lat="43.09489299999947" lon="-1.2423670000000024">
        <ele>931.222</ele>
        <time>2022-08-24T08:34:53Z</time>
      </trkpt>
      <trkpt lat="43.09488199999947" lon="-1.2423660000000025">
        <ele>931.428</ele>
        <time>2022-08-24T08:34:54Z</time>
      </trkpt>
      <trkpt lat="43.094869999999474" lon="-1.2423630000000025">
        <ele>931.660</ele>
        <time>2022-08-24T08:34:55Z</time>
      </trkpt>
      <trkpt lat="43.094860999999476" lon="-1.2423600000000026">
        <ele>931.877</ele>
        <time>2022-08-24T08:34:56Z</time>
      </trkpt>
      <trkpt lat="43.09484899999948" lon="-1.2423600000000026">
        <ele>932.020</ele>
        <time>2022-08-24T08:34:57Z</time>
      </trkpt>
      <trkpt lat="43.09483799999948" lon="-1.2423600000000026">
        <ele>932.254</ele>
        <time>2022-08-24T08:34:58Z</time>
      </trkpt>
      <trkpt lat="43.094827999999474" lon="-1.2423550000000025">
        <ele>932.283</ele>
        <time>2022-08-24T08:34:59Z</time>
      </trkpt>
      <trkpt lat="43.09481499999947" lon="-1.2423540000000026">
        <ele>932.486</ele>
        <time>2022-08-24T08:35:00Z</time>
      </trkpt>
      <trkpt lat="43.09480199999947" lon="-1.2423520000000026">
        <ele>932.460</ele>
        <time>2022-08-24T08:35:01Z</time>
      </trkpt>
      <trkpt lat="43.094791999999465" lon="-1.2423460000000026">
        <ele>932.626</ele>
        <time>2022-08-24T08:35:02Z</time>
      </trkpt>
      <trkpt lat="43.094777999999465" lon="-1.2423390000000025">
        <ele>932.609</ele>
        <time>2022-08-24T08:35:03Z</time>
      </trkpt>
      <trkpt lat="43.09476499999946" lon="-1.2423400000000024">
        <ele>932.699</ele>
        <time>2022-08-24T08:35:04Z</time>
      </trkpt>
      <trkpt lat="43.09475099999946" lon="-1.2423420000000025">
        <ele>932.839</ele>
        <time>2022-08-24T08:35:05Z</time>
      </trkpt>
      <trkpt lat="43.094738999999464" lon="-1.2423450000000025">
        <ele>933.069</ele>
        <time>2022-08-24T08:35:06Z</time>
      </trkpt>
      <trkpt lat="43.094726999999466" lon="-1.2423450000000025">
        <ele>933.295</ele>
        <time>2022-08-24T08:35:07Z</time>
      </trkpt>
      <trkpt lat="43.094715999999465" lon="-1.2423430000000024">
        <ele>933.487</ele>
        <time>2022-08-24T08:35:08Z</time>
      </trkpt>
      <trkpt lat="43.09470599999946" lon="-1.2423420000000025">
        <ele>933.484</ele>
        <time>2022-08-24T08:35:09Z</time>
      </trkpt>
      <trkpt lat="43.09469499999946" lon="-1.2423410000000026">
        <ele>933.647</ele>
        <time>2022-08-24T08:35:10Z</time>
      </trkpt>
      <trkpt lat="43.09468199999946" lon="-1.2423410000000026">
        <ele>933.851</ele>
        <time>2022-08-24T08:35:11Z</time>
      </trkpt>
      <trkpt lat="43.09467099999946" lon="-1.2423420000000025">
        <ele>933.820</ele>
        <time>2022-08-24T08:35:12Z</time>
      </trkpt>
      <trkpt lat="43.09465399999946" lon="-1.2423410000000026">
        <ele>934.089</ele>
        <time>2022-08-24T08:35:13Z</time>
      </trkpt>
      <trkpt lat="43.09464199999946" lon="-1.2423400000000027">
        <ele>934.006</ele>
        <time>2022-08-24T08:35:14Z</time>
      </trkpt>
      <trkpt lat="43.09462999999946" lon="-1.2423400000000027">
        <ele>934.226</ele>
        <time>2022-08-24T08:35:15Z</time>
      </trkpt>
      <trkpt lat="43.09461899999946" lon="-1.2423380000000026">
        <ele>934.409</ele>
        <time>2022-08-24T08:35:16Z</time>
      </trkpt>
      <trkpt lat="43.09460899999946" lon="-1.2423360000000025">
        <ele>934.629</ele>
        <time>2022-08-24T08:35:17Z</time>
      </trkpt>
      <trkpt lat="43.09459699999946" lon="-1.2423350000000026">
        <ele>934.619</ele>
        <time>2022-08-24T08:35:18Z</time>
      </trkpt>
      <trkpt lat="43.09458299999946" lon="-1.2423350000000026">
        <ele>934.879</ele>
        <time>2022-08-24T08:35:19Z</time>
      </trkpt>
      <trkpt lat="43.09457199999946" lon="-1.2423310000000027">
        <ele>935.045</ele>
        <time>2022-08-24T08:35:20Z</time>
      </trkpt>
      <trkpt lat="43.09455899999946" lon="-1.2423320000000027">
        <ele>935.237</ele>
        <time>2022-08-24T08:35:21Z</time>
      </trkpt>
      <trkpt lat="43.09454899999945" lon="-1.2423320000000027">
        <ele>935.214</ele>
        <time>2022-08-24T08:35:22Z</time>
      </trkpt>
      <trkpt lat="43.094536999999455" lon="-1.2423300000000026">
        <ele>935.497</ele>
        <time>2022-08-24T08:35:23Z</time>
      </trkpt>
      <trkpt lat="43.09452499999946" lon="-1.2423280000000025">
        <ele>935.671</ele>
        <time>2022-08-24T08:35:24Z</time>
      </trkpt>
      <trkpt lat="43.09451099999946" lon="-1.2423280000000025">
        <ele>935.860</ele>
        <time>2022-08-24T08:35:25Z</time>
      </trkpt>
      <trkpt lat="43.09450699999946" lon="-1.2423260000000025">
        <ele>935.865</ele>
        <time>2022-08-24T08:35:26Z</time>
      </trkpt>
      <trkpt lat="43.09449499999946" lon="-1.2423250000000026">
        <ele>936.068</ele>
        <time>2022-08-24T08:35:27Z</time>
      </trkpt>
      <trkpt lat="43.094482999999464" lon="-1.2423220000000026">
        <ele>936.214</ele>
        <time>2022-08-24T08:35:28Z</time>
      </trkpt>
      <trkpt lat="43.09447299999946" lon="-1.2423240000000026">
        <ele>936.409</ele>
        <time>2022-08-24T08:35:29Z</time>
      </trkpt>
      <trkpt lat="43.09445899999946" lon="-1.2423260000000027">
        <ele>936.887</ele>
        <time>2022-08-24T08:35:30Z</time>
      </trkpt>
      <trkpt lat="43.09444799999946" lon="-1.2423270000000026">
        <ele>936.837</ele>
        <time>2022-08-24T08:35:31Z</time>
      </trkpt>
      <trkpt lat="43.09443399999946" lon="-1.2423300000000026">
        <ele>937.027</ele>
        <time>2022-08-24T08:35:32Z</time>
      </trkpt>
      <trkpt lat="43.09442299999946" lon="-1.2423320000000027">
        <ele>937.443</ele>
        <time>2022-08-24T08:35:33Z</time>
      </trkpt>
      <trkpt lat="43.09440899999946" lon="-1.2423330000000026">
        <ele>937.615</ele>
        <time>2022-08-24T08:35:34Z</time>
      </trkpt>
      <trkpt lat="43.09439399999946" lon="-1.2423310000000025">
        <ele>937.692</ele>
        <time>2022-08-24T08:35:35Z</time>
      </trkpt>
      <trkpt lat="43.09438099999946" lon="-1.2423310000000025">
        <ele>937.815</ele>
        <time>2022-08-24T08:35:36Z</time>
      </trkpt>
      <trkpt lat="43.09436899999946" lon="-1.2423320000000024">
        <ele>937.899</ele>
        <time>2022-08-24T08:35:37Z</time>
      </trkpt>
      <trkpt lat="43.09435699999946" lon="-1.2423340000000025">
        <ele>938.048</ele>
        <time>2022-08-24T08:35:38Z</time>
      </trkpt>
      <trkpt lat="43.094341999999465" lon="-1.2423340000000025">
        <ele>938.417</ele>
        <time>2022-08-24T08:35:39Z</time>
      </trkpt>
      <trkpt lat="43.094327999999464" lon="-1.2423340000000025">
        <ele>938.487</ele>
        <time>2022-08-24T08:35:40Z</time>
      </trkpt>
      <trkpt lat="43.094315999999466" lon="-1.2423380000000024">
        <ele>938.815</ele>
        <time>2022-08-24T08:35:41Z</time>
      </trkpt>
      <trkpt lat="43.09430099999947" lon="-1.2423430000000024">
        <ele>939.209</ele>
        <time>2022-08-24T08:35:42Z</time>
      </trkpt>
      <trkpt lat="43.094290999999465" lon="-1.2423460000000024">
        <ele>939.442</ele>
        <time>2022-08-24T08:35:43Z</time>
      </trkpt>
      <trkpt lat="43.09428099999946" lon="-1.2423480000000025">
        <ele>939.832</ele>
        <time>2022-08-24T08:35:44Z</time>
      </trkpt>
      <trkpt lat="43.09426999999946" lon="-1.2423520000000023">
        <ele>940.072</ele>
        <time>2022-08-24T08:35:45Z</time>
      </trkpt>
      <trkpt lat="43.09425699999946" lon="-1.2423540000000024">
        <ele>940.058</ele>
        <time>2022-08-24T08:35:46Z</time>
      </trkpt>
      <trkpt lat="43.094243999999456" lon="-1.2423580000000023">
        <ele>940.040</ele>
        <time>2022-08-24T08:35:47Z</time>
      </trkpt>
      <trkpt lat="43.09423199999946" lon="-1.2423610000000023">
        <ele>940.267</ele>
        <time>2022-08-24T08:35:48Z</time>
      </trkpt>
      <trkpt lat="43.094221999999455" lon="-1.2423640000000022">
        <ele>940.460</ele>
        <time>2022-08-24T08:35:49Z</time>
      </trkpt>
      <trkpt lat="43.094212999999456" lon="-1.2423670000000022">
        <ele>940.644</ele>
        <time>2022-08-24T08:35:50Z</time>
      </trkpt>
      <trkpt lat="43.094201999999456" lon="-1.2423680000000021">
        <ele>940.683</ele>
        <time>2022-08-24T08:35:51Z</time>
      </trkpt>
      <trkpt lat="43.09419499999946" lon="-1.2423700000000022">
        <ele>940.879</ele>
        <time>2022-08-24T08:35:52Z</time>
      </trkpt>
      <trkpt lat="43.094181999999456" lon="-1.2423750000000022">
        <ele>940.805</ele>
        <time>2022-08-24T08:35:53Z</time>
      </trkpt>
      <trkpt lat="43.09416499999946" lon="-1.2423810000000022">
        <ele>941.225</ele>
        <time>2022-08-24T08:35:54Z</time>
      </trkpt>
      <trkpt lat="43.094151999999454" lon="-1.2423810000000022">
        <ele>941.209</ele>
        <time>2022-08-24T08:35:55Z</time>
      </trkpt>
      <trkpt lat="43.094139999999456" lon="-1.242382000000002">
        <ele>941.448</ele>
        <time>2022-08-24T08:35:56Z</time>
      </trkpt>
      <trkpt lat="43.09412699999945" lon="-1.2423870000000021">
        <ele>941.668</ele>
        <time>2022-08-24T08:35:57Z</time>
      </trkpt>
      <trkpt lat="43.094114999999455" lon="-1.242390000000002">
        <ele>941.688</ele>
        <time>2022-08-24T08:35:58Z</time>
      </trkpt>
      <trkpt lat="43.09410199999945" lon="-1.242391000000002">
        <ele>941.834</ele>
        <time>2022-08-24T08:35:59Z</time>
      </trkpt>
      <trkpt lat="43.09408899999945" lon="-1.242389000000002">
        <ele>942.046</ele>
        <time>2022-08-24T08:36:00Z</time>
      </trkpt>
      <trkpt lat="43.09407699999945" lon="-1.242386000000002">
        <ele>942.463</ele>
        <time>2022-08-24T08:36:01Z</time>
      </trkpt>
      <trkpt lat="43.09406299999945" lon="-1.242387000000002">
        <ele>942.476</ele>
        <time>2022-08-24T08:36:02Z</time>
      </trkpt>
      <trkpt lat="43.09405199999945" lon="-1.242392000000002">
        <ele>942.680</ele>
        <time>2022-08-24T08:36:03Z</time>
      </trkpt>
      <trkpt lat="43.09403999999945" lon="-1.242397000000002">
        <ele>942.629</ele>
        <time>2022-08-24T08:36:04Z</time>
      </trkpt>
      <trkpt lat="43.09402599999945" lon="-1.242403000000002">
        <ele>943.045</ele>
        <time>2022-08-24T08:36:05Z</time>
      </trkpt>
      <trkpt lat="43.09401599999945" lon="-1.2424070000000018">
        <ele>943.247</ele>
        <time>2022-08-24T08:36:06Z</time>
      </trkpt>
      <trkpt lat="43.09400499999945" lon="-1.2424100000000018">
        <ele>943.211</ele>
        <time>2022-08-24T08:36:07Z</time>
      </trkpt>
      <trkpt lat="43.093994999999445" lon="-1.2424120000000018">
        <ele>943.609</ele>
        <time>2022-08-24T08:36:08Z</time>
      </trkpt>
      <trkpt lat="43.093980999999445" lon="-1.2424130000000018">
        <ele>943.655</ele>
        <time>2022-08-24T08:36:09Z</time>
      </trkpt>
      <trkpt lat="43.09396499999944" lon="-1.2424190000000017">
        <ele>943.855</ele>
        <time>2022-08-24T08:36:10Z</time>
      </trkpt>
      <trkpt lat="43.09395399999944" lon="-1.2424260000000018">
        <ele>943.815</ele>
        <time>2022-08-24T08:36:11Z</time>
      </trkpt>
      <trkpt lat="43.09393999999944" lon="-1.2424300000000017">
        <ele>944.021</ele>
        <time>2022-08-24T08:36:12Z</time>
      </trkpt>
      <trkpt lat="43.09392699999944" lon="-1.2424380000000017">
        <ele>944.243</ele>
        <time>2022-08-24T08:36:13Z</time>
      </trkpt>
      <trkpt lat="43.093916999999436" lon="-1.2424410000000017">
        <ele>944.210</ele>
        <time>2022-08-24T08:36:14Z</time>
      </trkpt>
      <trkpt lat="43.09390499999944" lon="-1.2424460000000017">
        <ele>944.443</ele>
        <time>2022-08-24T08:36:15Z</time>
      </trkpt>
      <trkpt lat="43.09388999999944" lon="-1.2424540000000017">
        <ele>944.627</ele>
        <time>2022-08-24T08:36:16Z</time>
      </trkpt>
      <trkpt lat="43.09388199999944" lon="-1.2424600000000017">
        <ele>944.636</ele>
        <time>2022-08-24T08:36:17Z</time>
      </trkpt>
      <trkpt lat="43.09386899999944" lon="-1.2424640000000016">
        <ele>944.835</ele>
        <time>2022-08-24T08:36:18Z</time>
      </trkpt>
      <trkpt lat="43.093857999999436" lon="-1.2424640000000016">
        <ele>945.086</ele>
        <time>2022-08-24T08:36:19Z</time>
      </trkpt>
      <trkpt lat="43.093846999999435" lon="-1.2424640000000016">
        <ele>945.214</ele>
        <time>2022-08-24T08:36:20Z</time>
      </trkpt>
      <trkpt lat="43.09383499999944" lon="-1.2424680000000015">
        <ele>945.209</ele>
        <time>2022-08-24T08:36:21Z</time>
      </trkpt>
      <trkpt lat="43.09381999999944" lon="-1.2424770000000014">
        <ele>945.474</ele>
        <time>2022-08-24T08:36:22Z</time>
      </trkpt>
      <trkpt lat="43.09380699999944" lon="-1.2424840000000015">
        <ele>945.434</ele>
        <time>2022-08-24T08:36:23Z</time>
      </trkpt>
      <trkpt lat="43.09379199999944" lon="-1.2424900000000014">
        <ele>945.614</ele>
        <time>2022-08-24T08:36:24Z</time>
      </trkpt>
      <trkpt lat="43.09377499999944" lon="-1.2424950000000015">
        <ele>945.860</ele>
        <time>2022-08-24T08:36:25Z</time>
      </trkpt>
      <trkpt lat="43.09375899999944" lon="-1.2425060000000014">
        <ele>946.052</ele>
        <time>2022-08-24T08:36:26Z</time>
      </trkpt>
      <trkpt lat="43.093745999999435" lon="-1.2425120000000014">
        <ele>946.229</ele>
        <time>2022-08-24T08:36:27Z</time>
      </trkpt>
      <trkpt lat="43.093734999999434" lon="-1.2425140000000015">
        <ele>946.482</ele>
        <time>2022-08-24T08:36:28Z</time>
      </trkpt>
      <trkpt lat="43.09372999999943" lon="-1.2425150000000014">
        <ele>946.416</ele>
        <time>2022-08-24T08:36:29Z</time>
      </trkpt>
      <trkpt lat="43.09371599999943" lon="-1.2425200000000014">
        <ele>946.675</ele>
        <time>2022-08-24T08:36:30Z</time>
      </trkpt>
      <trkpt lat="43.09370299999943" lon="-1.2425250000000014">
        <ele>946.665</ele>
        <time>2022-08-24T08:36:31Z</time>
      </trkpt>
      <trkpt lat="43.09369099999943" lon="-1.2425290000000013">
        <ele>946.868</ele>
        <time>2022-08-24T08:36:32Z</time>
      </trkpt>
      <trkpt lat="43.09367799999943" lon="-1.2425350000000013">
        <ele>946.814</ele>
        <time>2022-08-24T08:36:33Z</time>
      </trkpt>
      <trkpt lat="43.09366599999943" lon="-1.2425400000000013">
        <ele>947.009</ele>
        <time>2022-08-24T08:36:34Z</time>
      </trkpt>
      <trkpt lat="43.09364899999943" lon="-1.2425460000000013">
        <ele>947.027</ele>
        <time>2022-08-24T08:36:35Z</time>
      </trkpt>
      <trkpt lat="43.09363599999943" lon="-1.2425520000000012">
        <ele>947.287</ele>
        <time>2022-08-24T08:36:36Z</time>
      </trkpt>
      <trkpt lat="43.09362099999943" lon="-1.2425590000000013">
        <ele>947.617</ele>
        <time>2022-08-24T08:36:37Z</time>
      </trkpt>
      <trkpt lat="43.09360799999943" lon="-1.2425640000000013">
        <ele>947.693</ele>
        <time>2022-08-24T08:36:38Z</time>
      </trkpt>
      <trkpt lat="43.09360799999943" lon="-1.2425640000000013">
        <ele>947.825</ele>
        <time>2022-08-24T08:36:39Z</time>
      </trkpt>
      <trkpt lat="43.09359699999943" lon="-1.2425690000000014">
        <ele>948.062</ele>
        <time>2022-08-24T08:36:40Z</time>
      </trkpt>
      <trkpt lat="43.093580999999425" lon="-1.2425740000000014">
        <ele>948.245</ele>
        <time>2022-08-24T08:36:41Z</time>
      </trkpt>
      <trkpt lat="43.09356899999943" lon="-1.2425810000000015">
        <ele>948.239</ele>
        <time>2022-08-24T08:36:42Z</time>
      </trkpt>
      <trkpt lat="43.09355499999943" lon="-1.2425870000000014">
        <ele>948.478</ele>
        <time>2022-08-24T08:36:43Z</time>
      </trkpt>
      <trkpt lat="43.093538999999424" lon="-1.2425900000000014">
        <ele>948.816</ele>
        <time>2022-08-24T08:36:44Z</time>
      </trkpt>
      <trkpt lat="43.093526999999426" lon="-1.2425940000000013">
        <ele>948.876</ele>
        <time>2022-08-24T08:36:45Z</time>
      </trkpt>
      <trkpt lat="43.093509999999426" lon="-1.2426070000000013">
        <ele>949.013</ele>
        <time>2022-08-24T08:36:46Z</time>
      </trkpt>
      <trkpt lat="43.09349799999943" lon="-1.2426170000000014">
        <ele>949.009</ele>
        <time>2022-08-24T08:36:47Z</time>
      </trkpt>
      <trkpt lat="43.09348299999943" lon="-1.2426300000000015">
        <ele>949.482</ele>
        <time>2022-08-24T08:36:48Z</time>
      </trkpt>
      <trkpt lat="43.09346699999943" lon="-1.2426470000000014">
        <ele>949.422</ele>
        <time>2022-08-24T08:36:49Z</time>
      </trkpt>
      <trkpt lat="43.093453999999426" lon="-1.2426580000000014">
        <ele>949.692</ele>
        <time>2022-08-24T08:36:50Z</time>
      </trkpt>
      <trkpt lat="43.09343599999943" lon="-1.2426690000000014">
        <ele>949.638</ele>
        <time>2022-08-24T08:36:51Z</time>
      </trkpt>
      <trkpt lat="43.09342199999943" lon="-1.2426760000000014">
        <ele>949.810</ele>
        <time>2022-08-24T08:36:52Z</time>
      </trkpt>
      <trkpt lat="43.09340699999943" lon="-1.2426830000000015">
        <ele>950.037</ele>
        <time>2022-08-24T08:36:53Z</time>
      </trkpt>
      <trkpt lat="43.09339599999943" lon="-1.2426900000000016">
        <ele>950.040</ele>
        <time>2022-08-24T08:36:54Z</time>
      </trkpt>
      <trkpt lat="43.09338099999943" lon="-1.2426970000000017">
        <ele>950.264</ele>
        <time>2022-08-24T08:36:55Z</time>
      </trkpt>
      <trkpt lat="43.093365999999435" lon="-1.2427060000000016">
        <ele>950.263</ele>
        <time>2022-08-24T08:36:56Z</time>
      </trkpt>
      <trkpt lat="43.093351999999435" lon="-1.2427160000000017">
        <ele>950.267</ele>
        <time>2022-08-24T08:36:57Z</time>
      </trkpt>
      <trkpt lat="43.093339999999436" lon="-1.2427210000000017">
        <ele>950.481</ele>
        <time>2022-08-24T08:36:58Z</time>
      </trkpt>
      <trkpt lat="43.093325999999436" lon="-1.2427250000000016">
        <ele>950.419</ele>
        <time>2022-08-24T08:36:59Z</time>
      </trkpt>
      <trkpt lat="43.093311999999436" lon="-1.2427310000000016">
        <ele>950.609</ele>
        <time>2022-08-24T08:37:00Z</time>
      </trkpt>
      <trkpt lat="43.09329899999943" lon="-1.2427420000000016">
        <ele>950.827</ele>
        <time>2022-08-24T08:37:01Z</time>
      </trkpt>
      <trkpt lat="43.093283999999436" lon="-1.2427490000000017">
        <ele>951.077</ele>
        <time>2022-08-24T08:37:02Z</time>
      </trkpt>
      <trkpt lat="43.09327099999943" lon="-1.2427560000000017">
        <ele>951.267</ele>
        <time>2022-08-24T08:37:03Z</time>
      </trkpt>
      <trkpt lat="43.09325799999943" lon="-1.2427650000000017">
        <ele>951.453</ele>
        <time>2022-08-24T08:37:04Z</time>
      </trkpt>
      <trkpt lat="43.09324799999943" lon="-1.2427720000000018">
        <ele>951.665</ele>
        <time>2022-08-24T08:37:05Z</time>
      </trkpt>
      <trkpt lat="43.09323399999943" lon="-1.2427790000000019">
        <ele>951.862</ele>
        <time>2022-08-24T08:37:06Z</time>
      </trkpt>
      <trkpt lat="43.093220999999424" lon="-1.2427880000000018">
        <ele>952.065</ele>
        <time>2022-08-24T08:37:07Z</time>
      </trkpt>
      <trkpt lat="43.093206999999424" lon="-1.2427970000000017">
        <ele>952.239</ele>
        <time>2022-08-24T08:37:08Z</time>
      </trkpt>
      <trkpt lat="43.09319399999942" lon="-1.2428050000000017">
        <ele>952.288</ele>
        <time>2022-08-24T08:37:09Z</time>
      </trkpt>
      <trkpt lat="43.093178999999424" lon="-1.2428130000000017">
        <ele>952.271</ele>
        <time>2022-08-24T08:37:10Z</time>
      </trkpt>
      <trkpt lat="43.09316599999942" lon="-1.2428210000000017">
        <ele>952.441</ele>
        <time>2022-08-24T08:37:11Z</time>
      </trkpt>
      <trkpt lat="43.09314999999942" lon="-1.2428290000000017">
        <ele>952.415</ele>
        <time>2022-08-24T08:37:12Z</time>
      </trkpt>
      <trkpt lat="43.09313199999942" lon="-1.2428390000000018">
        <ele>952.409</ele>
        <time>2022-08-24T08:37:13Z</time>
      </trkpt>
      <trkpt lat="43.09312099999942" lon="-1.2428450000000018">
        <ele>952.678</ele>
        <time>2022-08-24T08:37:14Z</time>
      </trkpt>
      <trkpt lat="43.09310599999942" lon="-1.2428540000000017">
        <ele>952.878</ele>
        <time>2022-08-24T08:37:15Z</time>
      </trkpt>
      <trkpt lat="43.09309299999942" lon="-1.2428630000000016">
        <ele>952.888</ele>
        <time>2022-08-24T08:37:16Z</time>
      </trkpt>
      <trkpt lat="43.09307799999942" lon="-1.2428730000000017">
        <ele>953.034</ele>
        <time>2022-08-24T08:37:17Z</time>
      </trkpt>
      <trkpt lat="43.09305899999942" lon="-1.2428830000000017">
        <ele>953.066</ele>
        <time>2022-08-24T08:37:18Z</time>
      </trkpt>
      <trkpt lat="43.093037999999424" lon="-1.2428910000000017">
        <ele>953.083</ele>
        <time>2022-08-24T08:37:19Z</time>
      </trkpt>
      <trkpt lat="43.09302199999942" lon="-1.2428940000000017">
        <ele>953.216</ele>
        <time>2022-08-24T08:37:20Z</time>
      </trkpt>
      <trkpt lat="43.093003999999425" lon="-1.2429030000000016">
        <ele>953.430</ele>
        <time>2022-08-24T08:37:21Z</time>
      </trkpt>
      <trkpt lat="43.09298899999943" lon="-1.2429070000000015">
        <ele>953.439</ele>
        <time>2022-08-24T08:37:22Z</time>
      </trkpt>
      <trkpt lat="43.092972999999425" lon="-1.2429140000000016">
        <ele>953.643</ele>
        <time>2022-08-24T08:37:23Z</time>
      </trkpt>
      <trkpt lat="43.092958999999425" lon="-1.2429190000000017">
        <ele>953.864</ele>
        <time>2022-08-24T08:37:24Z</time>
      </trkpt>
      <trkpt lat="43.09294099999943" lon="-1.2429270000000017">
        <ele>953.810</ele>
        <time>2022-08-24T08:37:25Z</time>
      </trkpt>
      <trkpt lat="43.09292599999943" lon="-1.2429370000000017">
        <ele>954.009</ele>
        <time>2022-08-24T08:37:26Z</time>
      </trkpt>
      <trkpt lat="43.09291199999943" lon="-1.2429450000000017">
        <ele>954.225</ele>
        <time>2022-08-24T08:37:27Z</time>
      </trkpt>
      <trkpt lat="43.09289799999943" lon="-1.2429560000000017">
        <ele>954.495</ele>
        <time>2022-08-24T08:37:28Z</time>
      </trkpt>
      <trkpt lat="43.09288199999943" lon="-1.2429700000000017">
        <ele>954.455</ele>
        <time>2022-08-24T08:37:29Z</time>
      </trkpt>
      <trkpt lat="43.09286999999943" lon="-1.2429800000000018">
        <ele>954.431</ele>
        <time>2022-08-24T08:37:30Z</time>
      </trkpt>
      <trkpt lat="43.09285599999943" lon="-1.2429910000000017">
        <ele>954.643</ele>
        <time>2022-08-24T08:37:31Z</time>
      </trkpt>
      <trkpt lat="43.09284199999943" lon="-1.2430020000000017">
        <ele>954.880</ele>
        <time>2022-08-24T08:37:32Z</time>
      </trkpt>
      <trkpt lat="43.09282799999943" lon="-1.2430130000000017">
        <ele>954.833</ele>
        <time>2022-08-24T08:37:33Z</time>
      </trkpt>
      <trkpt lat="43.09281199999943" lon="-1.2430250000000016">
        <ele>954.827</ele>
        <time>2022-08-24T08:37:34Z</time>
      </trkpt>
      <trkpt lat="43.09279699999943" lon="-1.2430360000000016">
        <ele>955.036</ele>
        <time>2022-08-24T08:37:35Z</time>
      </trkpt>
      <trkpt lat="43.09277999999943" lon="-1.2430430000000017">
        <ele>955.084</ele>
        <time>2022-08-24T08:37:36Z</time>
      </trkpt>
      <trkpt lat="43.09276399999943" lon="-1.2430490000000016">
        <ele>955.207</ele>
        <time>2022-08-24T08:37:37Z</time>
      </trkpt>
      <trkpt lat="43.092744999999425" lon="-1.2430600000000016">
        <ele>955.417</ele>
        <time>2022-08-24T08:37:38Z</time>
      </trkpt>
      <trkpt lat="43.09272599999942" lon="-1.2430740000000016">
        <ele>955.409</ele>
        <time>2022-08-24T08:37:39Z</time>
      </trkpt>
      <trkpt lat="43.092707999999426" lon="-1.2430870000000016">
        <ele>955.459</ele>
        <time>2022-08-24T08:37:40Z</time>
      </trkpt>
      <trkpt lat="43.09269299999943" lon="-1.2430980000000016">
        <ele>955.679</ele>
        <time>2022-08-24T08:37:41Z</time>
      </trkpt>
      <trkpt lat="43.09267899999943" lon="-1.2431100000000015">
        <ele>955.649</ele>
        <time>2022-08-24T08:37:42Z</time>
      </trkpt>
      <trkpt lat="43.092662999999426" lon="-1.2431240000000015">
        <ele>955.635</ele>
        <time>2022-08-24T08:37:43Z</time>
      </trkpt>
      <trkpt lat="43.09264799999943" lon="-1.2431340000000015">
        <ele>955.857</ele>
        <time>2022-08-24T08:37:44Z</time>
      </trkpt>
      <trkpt lat="43.09263299999943" lon="-1.2431410000000016">
        <ele>955.834</ele>
        <time>2022-08-24T08:37:45Z</time>
      </trkpt>
      <trkpt lat="43.09261999999943" lon="-1.2431520000000016">
        <ele>956.087</ele>
        <time>2022-08-24T08:37:46Z</time>
      </trkpt>
      <trkpt lat="43.09260499999943" lon="-1.2431610000000015">
        <ele>956.061</ele>
        <time>2022-08-24T08:37:47Z</time>
      </trkpt>
      <trkpt lat="43.09259199999943" lon="-1.2431750000000015">
        <ele>956.270</ele>
        <time>2022-08-24T08:37:48Z</time>
      </trkpt>
      <trkpt lat="43.09257799999943" lon="-1.2431870000000014">
        <ele>956.278</ele>
        <time>2022-08-24T08:37:49Z</time>
      </trkpt>
      <trkpt lat="43.09256299999943" lon="-1.2431980000000014">
        <ele>956.233</ele>
        <time>2022-08-24T08:37:50Z</time>
      </trkpt>
      <trkpt lat="43.09254699999943" lon="-1.2432070000000013">
        <ele>956.626</ele>
        <time>2022-08-24T08:37:51Z</time>
      </trkpt>
      <trkpt lat="43.09254299999943" lon="-1.2432130000000012">
        <ele>956.609</ele>
        <time>2022-08-24T08:37:52Z</time>
      </trkpt>
      <trkpt lat="43.09253099999943" lon="-1.2432220000000012">
        <ele>956.888</ele>
        <time>2022-08-24T08:37:53Z</time>
      </trkpt>
      <trkpt lat="43.09251699999943" lon="-1.2432350000000012">
        <ele>956.838</ele>
        <time>2022-08-24T08:37:54Z</time>
      </trkpt>
      <trkpt lat="43.09250399999943" lon="-1.243247000000001">
        <ele>957.068</ele>
        <time>2022-08-24T08:37:55Z</time>
      </trkpt>
      <trkpt lat="43.09249199999943" lon="-1.2432600000000011">
        <ele>957.014</ele>
        <time>2022-08-24T08:37:56Z</time>
      </trkpt>
      <trkpt lat="43.09247999999943" lon="-1.2432730000000012">
        <ele>957.216</ele>
        <time>2022-08-24T08:37:57Z</time>
      </trkpt>
      <trkpt lat="43.09246699999943" lon="-1.243285000000001">
        <ele>957.433</ele>
        <time>2022-08-24T08:37:58Z</time>
      </trkpt>
      <trkpt lat="43.09245499999943" lon="-1.243296000000001">
        <ele>957.426</ele>
        <time>2022-08-24T08:37:59Z</time>
      </trkpt>
      <trkpt lat="43.09244499999943" lon="-1.243305000000001">
        <ele>957.660</ele>
        <time>2022-08-24T08:38:00Z</time>
      </trkpt>
      <trkpt lat="43.09243599999943" lon="-1.243312000000001">
        <ele>957.829</ele>
        <time>2022-08-24T08:38:01Z</time>
      </trkpt>
      <trkpt lat="43.09242499999943" lon="-1.243320000000001">
        <ele>958.051</ele>
        <time>2022-08-24T08:38:02Z</time>
      </trkpt>
      <trkpt lat="43.09241399999943" lon="-1.243331000000001">
        <ele>958.201</ele>
        <time>2022-08-24T08:38:03Z</time>
      </trkpt>
      <trkpt lat="43.09240299999943" lon="-1.243340000000001">
        <ele>958.411</ele>
        <time>2022-08-24T08:38:04Z</time>
      </trkpt>
      <trkpt lat="43.09239099999943" lon="-1.243350000000001">
        <ele>958.409</ele>
        <time>2022-08-24T08:38:05Z</time>
      </trkpt>
      <trkpt lat="43.09237999999943" lon="-1.243359000000001">
        <ele>958.656</ele>
        <time>2022-08-24T08:38:06Z</time>
      </trkpt>
      <trkpt lat="43.09236799999943" lon="-1.243371000000001">
        <ele>958.666</ele>
        <time>2022-08-24T08:38:07Z</time>
      </trkpt>
      <trkpt lat="43.092355999999434" lon="-1.243381000000001">
        <ele>958.686</ele>
        <time>2022-08-24T08:38:08Z</time>
      </trkpt>
      <trkpt lat="43.09234299999943" lon="-1.243392000000001">
        <ele>958.672</ele>
        <time>2022-08-24T08:38:09Z</time>
      </trkpt>
      <trkpt lat="43.09233199999943" lon="-1.2434040000000008">
        <ele>958.834</ele>
        <time>2022-08-24T08:38:10Z</time>
      </trkpt>
      <trkpt lat="43.09232199999943" lon="-1.2434160000000007">
        <ele>958.841</ele>
        <time>2022-08-24T08:38:11Z</time>
      </trkpt>
      <trkpt lat="43.09231299999943" lon="-1.2434280000000006">
        <ele>959.064</ele>
        <time>2022-08-24T08:38:12Z</time>
      </trkpt>
      <trkpt lat="43.09230199999943" lon="-1.2434410000000007">
        <ele>959.258</ele>
        <time>2022-08-24T08:38:13Z</time>
      </trkpt>
      <trkpt lat="43.09228999999943" lon="-1.2434520000000007">
        <ele>959.237</ele>
        <time>2022-08-24T08:38:14Z</time>
      </trkpt>
      <trkpt lat="43.09227799999943" lon="-1.2434620000000007">
        <ele>959.466</ele>
        <time>2022-08-24T08:38:15Z</time>
      </trkpt>
      <trkpt lat="43.09226799999943" lon="-1.2434710000000007">
        <ele>959.429</ele>
        <time>2022-08-24T08:38:16Z</time>
      </trkpt>
      <trkpt lat="43.09225399999943" lon="-1.2434840000000007">
        <ele>959.621</ele>
        <time>2022-08-24T08:38:17Z</time>
      </trkpt>
      <trkpt lat="43.092243999999425" lon="-1.2434940000000008">
        <ele>959.609</ele>
        <time>2022-08-24T08:38:18Z</time>
      </trkpt>
      <trkpt lat="43.09223399999942" lon="-1.2435040000000008">
        <ele>959.887</ele>
        <time>2022-08-24T08:38:19Z</time>
      </trkpt>
      <trkpt lat="43.09222299999942" lon="-1.2435150000000008">
        <ele>959.827</ele>
        <time>2022-08-24T08:38:20Z</time>
      </trkpt>
      <trkpt lat="43.09221399999942" lon="-1.2435240000000007">
        <ele>960.267</ele>
        <time>2022-08-24T08:38:21Z</time>
      </trkpt>
      <trkpt lat="43.09220299999942" lon="-1.2435370000000008">
        <ele>960.273</ele>
        <time>2022-08-24T08:38:22Z</time>
      </trkpt>
      <trkpt lat="43.092187999999425" lon="-1.2435500000000008">
        <ele>960.485</ele>
        <time>2022-08-24T08:38:23Z</time>
      </trkpt>
      <trkpt lat="43.09217799999942" lon="-1.243557000000001">
        <ele>960.432</ele>
        <time>2022-08-24T08:38:24Z</time>
      </trkpt>
      <trkpt lat="43.09216199999942" lon="-1.243565000000001">
        <ele>960.635</ele>
        <time>2022-08-24T08:38:25Z</time>
      </trkpt>
      <trkpt lat="43.09214699999942" lon="-1.243575000000001">
        <ele>960.649</ele>
        <time>2022-08-24T08:38:26Z</time>
      </trkpt>
      <trkpt lat="43.09213299999942" lon="-1.243583000000001">
        <ele>960.838</ele>
        <time>2022-08-24T08:38:27Z</time>
      </trkpt>
      <trkpt lat="43.09211999999942" lon="-1.243589000000001">
        <ele>961.078</ele>
        <time>2022-08-24T08:38:28Z</time>
      </trkpt>
      <trkpt lat="43.092106999999416" lon="-1.243597000000001">
        <ele>961.233</ele>
        <time>2022-08-24T08:38:29Z</time>
      </trkpt>
      <trkpt lat="43.09209399999941" lon="-1.243610000000001">
        <ele>961.426</ele>
        <time>2022-08-24T08:38:30Z</time>
      </trkpt>
      <trkpt lat="43.09208099999941" lon="-1.243626000000001">
        <ele>961.609</ele>
        <time>2022-08-24T08:38:31Z</time>
      </trkpt>
      <trkpt lat="43.09206899999941" lon="-1.243641000000001">
        <ele>961.848</ele>
        <time>2022-08-24T08:38:32Z</time>
      </trkpt>
      <trkpt lat="43.092056999999414" lon="-1.243655000000001">
        <ele>962.238</ele>
        <time>2022-08-24T08:38:33Z</time>
      </trkpt>
      <trkpt lat="43.092044999999416" lon="-1.2436650000000011">
        <ele>962.428</ele>
        <time>2022-08-24T08:38:34Z</time>
      </trkpt>
      <trkpt lat="43.09203299999942" lon="-1.2436750000000012">
        <ele>962.684</ele>
        <time>2022-08-24T08:38:35Z</time>
      </trkpt>
      <trkpt lat="43.09202099999942" lon="-1.2436820000000013">
        <ele>963.046</ele>
        <time>2022-08-24T08:38:36Z</time>
      </trkpt>
      <trkpt lat="43.09201299999942" lon="-1.2436870000000013">
        <ele>963.273</ele>
        <time>2022-08-24T08:38:37Z</time>
      </trkpt>
      <trkpt lat="43.09200199999942" lon="-1.2436950000000013">
        <ele>963.886</ele>
        <time>2022-08-24T08:38:38Z</time>
      </trkpt>
      <trkpt lat="43.09199699999942" lon="-1.2437000000000014">
        <ele>963.870</ele>
        <time>2022-08-24T08:38:39Z</time>
      </trkpt>
      <trkpt lat="43.09198499999942" lon="-1.2437070000000015">
        <ele>964.269</ele>
        <time>2022-08-24T08:38:40Z</time>
      </trkpt>
      <trkpt lat="43.09197699999942" lon="-1.2437150000000015">
        <ele>964.224</ele>
        <time>2022-08-24T08:38:41Z</time>
      </trkpt>
      <trkpt lat="43.09196999999942" lon="-1.2437240000000014">
        <ele>964.404</ele>
        <time>2022-08-24T08:38:42Z</time>
      </trkpt>
      <trkpt lat="43.09195699999942" lon="-1.2437340000000014">
        <ele>964.414</ele>
        <time>2022-08-24T08:38:43Z</time>
      </trkpt>
      <trkpt lat="43.091943999999415" lon="-1.2437430000000014">
        <ele>964.409</ele>
        <time>2022-08-24T08:38:44Z</time>
      </trkpt>
      <trkpt lat="43.09193099999941" lon="-1.2437490000000013">
        <ele>964.623</ele>
        <time>2022-08-24T08:38:45Z</time>
      </trkpt>
      <trkpt lat="43.09191399999941" lon="-1.2437560000000014">
        <ele>964.693</ele>
        <time>2022-08-24T08:38:46Z</time>
      </trkpt>
      <trkpt lat="43.09189699999941" lon="-1.2437660000000015">
        <ele>964.633</ele>
        <time>2022-08-24T08:38:47Z</time>
      </trkpt>
      <trkpt lat="43.09188399999941" lon="-1.2437730000000016">
        <ele>964.629</ele>
        <time>2022-08-24T08:38:48Z</time>
      </trkpt>
      <trkpt lat="43.09187099999941" lon="-1.2437810000000016">
        <ele>964.651</ele>
        <time>2022-08-24T08:38:49Z</time>
      </trkpt>
      <trkpt lat="43.091857999999405" lon="-1.2437870000000015">
        <ele>964.878</ele>
        <time>2022-08-24T08:38:50Z</time>
      </trkpt>
      <trkpt lat="43.091846999999404" lon="-1.2437920000000016">
        <ele>964.861</ele>
        <time>2022-08-24T08:38:51Z</time>
      </trkpt>
      <trkpt lat="43.091835999999404" lon="-1.2437990000000017">
        <ele>965.085</ele>
        <time>2022-08-24T08:38:52Z</time>
      </trkpt>
      <trkpt lat="43.0918199999994" lon="-1.2438110000000016">
        <ele>965.054</ele>
        <time>2022-08-24T08:38:53Z</time>
      </trkpt>
      <trkpt lat="43.0918099999994" lon="-1.2438180000000016">
        <ele>965.032</ele>
        <time>2022-08-24T08:38:54Z</time>
      </trkpt>
      <trkpt lat="43.0917949999994" lon="-1.2438280000000017">
        <ele>965.292</ele>
        <time>2022-08-24T08:38:55Z</time>
      </trkpt>
      <trkpt lat="43.0917819999994" lon="-1.2438350000000018">
        <ele>965.211</ele>
        <time>2022-08-24T08:38:56Z</time>
      </trkpt>
      <trkpt lat="43.091768999999395" lon="-1.2438430000000018">
        <ele>965.409</ele>
        <time>2022-08-24T08:38:57Z</time>
      </trkpt>
      <trkpt lat="43.091754999999395" lon="-1.2438510000000018">
        <ele>965.454</ele>
        <time>2022-08-24T08:38:58Z</time>
      </trkpt>
      <trkpt lat="43.0917399999994" lon="-1.2438640000000019">
        <ele>965.654</ele>
        <time>2022-08-24T08:38:59Z</time>
      </trkpt>
      <trkpt lat="43.0917259999994" lon="-1.2438750000000018">
        <ele>965.884</ele>
        <time>2022-08-24T08:39:00Z</time>
      </trkpt>
      <trkpt lat="43.0917139999994" lon="-1.2438800000000019">
        <ele>965.830</ele>
        <time>2022-08-24T08:39:01Z</time>
      </trkpt>
      <trkpt lat="43.0916999999994" lon="-1.243885000000002">
        <ele>966.022</ele>
        <time>2022-08-24T08:39:02Z</time>
      </trkpt>
      <trkpt lat="43.0916859999994" lon="-1.2438910000000019">
        <ele>966.029</ele>
        <time>2022-08-24T08:39:03Z</time>
      </trkpt>
      <trkpt lat="43.0916719999994" lon="-1.2438970000000018">
        <ele>966.282</ele>
        <time>2022-08-24T08:39:04Z</time>
      </trkpt>
      <trkpt lat="43.0916599999994" lon="-1.2439020000000018">
        <ele>966.436</ele>
        <time>2022-08-24T08:39:05Z</time>
      </trkpt>
      <trkpt lat="43.0916479999994" lon="-1.2439060000000017">
        <ele>966.495</ele>
        <time>2022-08-24T08:39:06Z</time>
      </trkpt>
      <trkpt lat="43.0916349999994" lon="-1.2439150000000017">
        <ele>966.646</ele>
        <time>2022-08-24T08:39:07Z</time>
      </trkpt>
      <trkpt lat="43.0916199999994" lon="-1.2439250000000017">
        <ele>966.688</ele>
        <time>2022-08-24T08:39:08Z</time>
      </trkpt>
      <trkpt lat="43.0916069999994" lon="-1.2439340000000016">
        <ele>966.616</ele>
        <time>2022-08-24T08:39:09Z</time>
      </trkpt>
      <trkpt lat="43.0915919999994" lon="-1.2439480000000016">
        <ele>966.609</ele>
        <time>2022-08-24T08:39:10Z</time>
      </trkpt>
      <trkpt lat="43.091576999999404" lon="-1.2439560000000016">
        <ele>966.875</ele>
        <time>2022-08-24T08:39:11Z</time>
      </trkpt>
      <trkpt lat="43.0915639999994" lon="-1.2439620000000016">
        <ele>966.855</ele>
        <time>2022-08-24T08:39:12Z</time>
      </trkpt>
      <trkpt lat="43.0915519999994" lon="-1.2439680000000015">
        <ele>967.025</ele>
        <time>2022-08-24T08:39:13Z</time>
      </trkpt>
      <trkpt lat="43.0915379999994" lon="-1.2439720000000014">
        <ele>967.081</ele>
        <time>2022-08-24T08:39:14Z</time>
      </trkpt>
      <trkpt lat="43.0915249999994" lon="-1.2439740000000015">
        <ele>967.263</ele>
        <time>2022-08-24T08:39:15Z</time>
      </trkpt>
      <trkpt lat="43.0915079999994" lon="-1.2439770000000014">
        <ele>967.480</ele>
        <time>2022-08-24T08:39:16Z</time>
      </trkpt>
      <trkpt lat="43.0914929999994" lon="-1.2439800000000014">
        <ele>967.643</ele>
        <time>2022-08-24T08:39:17Z</time>
      </trkpt>
      <trkpt lat="43.091480999999405" lon="-1.2439870000000015">
        <ele>967.697</ele>
        <time>2022-08-24T08:39:18Z</time>
      </trkpt>
      <trkpt lat="43.091466999999405" lon="-1.2439920000000015">
        <ele>967.856</ele>
        <time>2022-08-24T08:39:19Z</time>
      </trkpt>
      <trkpt lat="43.09145199999941" lon="-1.2439980000000015">
        <ele>967.828</ele>
        <time>2022-08-24T08:39:20Z</time>
      </trkpt>
      <trkpt lat="43.09143699999941" lon="-1.2440050000000016">
        <ele>967.889</ele>
        <time>2022-08-24T08:39:21Z</time>
      </trkpt>
      <trkpt lat="43.09142299999941" lon="-1.2440090000000015">
        <ele>968.017</ele>
        <time>2022-08-24T08:39:22Z</time>
      </trkpt>
      <trkpt lat="43.09140999999941" lon="-1.2440140000000015">
        <ele>968.409</ele>
        <time>2022-08-24T08:39:23Z</time>
      </trkpt>
      <trkpt lat="43.09139499999941" lon="-1.2440200000000015">
        <ele>968.823</ele>
        <time>2022-08-24T08:39:24Z</time>
      </trkpt>
      <trkpt lat="43.091381999999406" lon="-1.2440240000000014">
        <ele>969.023</ele>
        <time>2022-08-24T08:39:25Z</time>
      </trkpt>
      <trkpt lat="43.09136699999941" lon="-1.2440290000000014">
        <ele>969.433</ele>
        <time>2022-08-24T08:39:26Z</time>
      </trkpt>
      <trkpt lat="43.09135199999941" lon="-1.2440360000000015">
        <ele>969.469</ele>
        <time>2022-08-24T08:39:27Z</time>
      </trkpt>
      <trkpt lat="43.09133799999941" lon="-1.2440450000000014">
        <ele>969.671</ele>
        <time>2022-08-24T08:39:28Z</time>
      </trkpt>
      <trkpt lat="43.09132299999941" lon="-1.2440530000000014">
        <ele>970.048</ele>
        <time>2022-08-24T08:39:29Z</time>
      </trkpt>
      <trkpt lat="43.09130999999941" lon="-1.2440580000000014">
        <ele>970.051</ele>
        <time>2022-08-24T08:39:30Z</time>
      </trkpt>
      <trkpt lat="43.09129899999941" lon="-1.2440560000000014">
        <ele>970.285</ele>
        <time>2022-08-24T08:39:31Z</time>
      </trkpt>
      <trkpt lat="43.09128499999941" lon="-1.2440590000000014">
        <ele>970.254</ele>
        <time>2022-08-24T08:39:32Z</time>
      </trkpt>
      <trkpt lat="43.09127099999941" lon="-1.2440650000000013">
        <ele>970.454</ele>
        <time>2022-08-24T08:39:33Z</time>
      </trkpt>
      <trkpt lat="43.09125599999941" lon="-1.2440740000000012">
        <ele>970.456</ele>
        <time>2022-08-24T08:39:34Z</time>
      </trkpt>
      <trkpt lat="43.091240999999414" lon="-1.2440810000000013">
        <ele>970.411</ele>
        <time>2022-08-24T08:39:35Z</time>
      </trkpt>
      <trkpt lat="43.091226999999414" lon="-1.2440810000000013">
        <ele>970.409</ele>
        <time>2022-08-24T08:39:36Z</time>
      </trkpt>
      <trkpt lat="43.091211999999416" lon="-1.2440880000000014">
        <ele>970.646</ele>
        <time>2022-08-24T08:39:37Z</time>
      </trkpt>
      <trkpt lat="43.09119699999942" lon="-1.2440950000000015">
        <ele>970.686</ele>
        <time>2022-08-24T08:39:38Z</time>
      </trkpt>
      <trkpt lat="43.09118299999942" lon="-1.2441010000000015">
        <ele>970.696</ele>
        <time>2022-08-24T08:39:39Z</time>
      </trkpt>
      <trkpt lat="43.091169999999416" lon="-1.2441080000000015">
        <ele>970.682</ele>
        <time>2022-08-24T08:39:40Z</time>
      </trkpt>
      <trkpt lat="43.091155999999415" lon="-1.2441140000000015">
        <ele>970.634</ele>
        <time>2022-08-24T08:39:41Z</time>
      </trkpt>
      <trkpt lat="43.09114099999942" lon="-1.2441180000000014">
        <ele>970.861</ele>
        <time>2022-08-24T08:39:42Z</time>
      </trkpt>
      <trkpt lat="43.09112699999942" lon="-1.2441220000000013">
        <ele>970.874</ele>
        <time>2022-08-24T08:39:43Z</time>
      </trkpt>
      <trkpt lat="43.09111299999942" lon="-1.2441230000000012">
        <ele>971.098</ele>
        <time>2022-08-24T08:39:44Z</time>
      </trkpt>
      <trkpt lat="43.09110099999942" lon="-1.2441250000000013">
        <ele>971.227</ele>
        <time>2022-08-24T08:39:45Z</time>
      </trkpt>
      <trkpt lat="43.09108699999942" lon="-1.2441270000000013">
        <ele>971.235</ele>
        <time>2022-08-24T08:39:46Z</time>
      </trkpt>
      <trkpt lat="43.09107199999942" lon="-1.2441320000000013">
        <ele>971.286</ele>
        <time>2022-08-24T08:39:47Z</time>
      </trkpt>
      <trkpt lat="43.09105799999942" lon="-1.2441360000000012">
        <ele>971.414</ele>
        <time>2022-08-24T08:39:48Z</time>
      </trkpt>
      <trkpt lat="43.09104799999942" lon="-1.2441400000000011">
        <ele>971.409</ele>
        <time>2022-08-24T08:39:49Z</time>
      </trkpt>
      <trkpt lat="43.09103099999942" lon="-1.2441480000000011">
        <ele>971.634</ele>
        <time>2022-08-24T08:39:50Z</time>
      </trkpt>
      <trkpt lat="43.09101699999942" lon="-1.2441500000000012">
        <ele>971.654</ele>
        <time>2022-08-24T08:39:51Z</time>
      </trkpt>
      <trkpt lat="43.09100199999942" lon="-1.2441560000000011">
        <ele>971.834</ele>
        <time>2022-08-24T08:39:52Z</time>
      </trkpt>
      <trkpt lat="43.09098699999942" lon="-1.2441630000000012">
        <ele>971.870</ele>
        <time>2022-08-24T08:39:53Z</time>
      </trkpt>
      <trkpt lat="43.090971999999425" lon="-1.2441740000000012">
        <ele>972.022</ele>
        <time>2022-08-24T08:39:54Z</time>
      </trkpt>
      <trkpt lat="43.09095399999943" lon="-1.2441830000000011">
        <ele>972.099</ele>
        <time>2022-08-24T08:39:55Z</time>
      </trkpt>
      <trkpt lat="43.090937999999426" lon="-1.244187000000001">
        <ele>972.082</ele>
        <time>2022-08-24T08:39:56Z</time>
      </trkpt>
      <trkpt lat="43.09092299999943" lon="-1.244193000000001">
        <ele>972.256</ele>
        <time>2022-08-24T08:39:57Z</time>
      </trkpt>
      <trkpt lat="43.09088099999943" lon="-1.244199000000001">
        <ele>972.825</ele>
        <time>2022-08-24T08:40:00Z</time>
      </trkpt>
      <trkpt lat="43.090858999999426" lon="-1.244199000000001">
        <ele>973.016</ele>
        <time>2022-08-24T08:40:02Z</time>
      </trkpt>
      <trkpt lat="43.090844999999426" lon="-1.244199000000001">
        <ele>973.276</ele>
        <time>2022-08-24T08:40:03Z</time>
      </trkpt>
      <trkpt lat="43.09082999999943" lon="-1.244201000000001">
        <ele>973.413</ele>
        <time>2022-08-24T08:40:04Z</time>
      </trkpt>
      <trkpt lat="43.09081599999943" lon="-1.244203000000001">
        <ele>973.409</ele>
        <time>2022-08-24T08:40:05Z</time>
      </trkpt>
      <trkpt lat="43.09080199999943" lon="-1.2442050000000011">
        <ele>973.682</ele>
        <time>2022-08-24T08:40:06Z</time>
      </trkpt>
      <trkpt lat="43.09078799999943" lon="-1.2442070000000012">
        <ele>973.852</ele>
        <time>2022-08-24T08:40:07Z</time>
      </trkpt>
      <trkpt lat="43.09077399999943" lon="-1.2442100000000011">
        <ele>974.062</ele>
        <time>2022-08-24T08:40:08Z</time>
      </trkpt>
      <trkpt lat="43.090760999999425" lon="-1.2442130000000011">
        <ele>974.218</ele>
        <time>2022-08-24T08:40:09Z</time>
      </trkpt>
      <trkpt lat="43.09074599999943" lon="-1.2442210000000011">
        <ele>974.490</ele>
        <time>2022-08-24T08:40:10Z</time>
      </trkpt>
      <trkpt lat="43.09073099999943" lon="-1.244224000000001">
        <ele>974.637</ele>
        <time>2022-08-24T08:40:11Z</time>
      </trkpt>
      <trkpt lat="43.09071499999943" lon="-1.244228000000001">
        <ele>974.610</ele>
        <time>2022-08-24T08:40:12Z</time>
      </trkpt>
      <trkpt lat="43.090698999999425" lon="-1.244233000000001">
        <ele>974.874</ele>
        <time>2022-08-24T08:40:13Z</time>
      </trkpt>
      <trkpt lat="43.090684999999425" lon="-1.244236000000001">
        <ele>974.833</ele>
        <time>2022-08-24T08:40:14Z</time>
      </trkpt>
      <trkpt lat="43.090670999999425" lon="-1.244239000000001">
        <ele>975.089</ele>
        <time>2022-08-24T08:40:15Z</time>
      </trkpt>
      <trkpt lat="43.09065299999943" lon="-1.244242000000001">
        <ele>975.006</ele>
        <time>2022-08-24T08:40:16Z</time>
      </trkpt>
      <trkpt lat="43.090636999999425" lon="-1.244244000000001">
        <ele>975.026</ele>
        <time>2022-08-24T08:40:17Z</time>
      </trkpt>
      <trkpt lat="43.090622999999425" lon="-1.244244000000001">
        <ele>975.209</ele>
        <time>2022-08-24T08:40:18Z</time>
      </trkpt>
      <trkpt lat="43.090608999999425" lon="-1.244246000000001">
        <ele>975.249</ele>
        <time>2022-08-24T08:40:19Z</time>
      </trkpt>
      <trkpt lat="43.090594999999425" lon="-1.244249000000001">
        <ele>975.239</ele>
        <time>2022-08-24T08:40:20Z</time>
      </trkpt>
      <trkpt lat="43.09057899999942" lon="-1.244254000000001">
        <ele>975.429</ele>
        <time>2022-08-24T08:40:21Z</time>
      </trkpt>
      <trkpt lat="43.090563999999425" lon="-1.2442590000000011">
        <ele>975.415</ele>
        <time>2022-08-24T08:40:22Z</time>
      </trkpt>
      <trkpt lat="43.09055099999942" lon="-1.2442610000000012">
        <ele>975.657</ele>
        <time>2022-08-24T08:40:23Z</time>
      </trkpt>
      <trkpt lat="43.090535999999425" lon="-1.2442630000000012">
        <ele>975.684</ele>
        <time>2022-08-24T08:40:24Z</time>
      </trkpt>
      <trkpt lat="43.09052099999943" lon="-1.2442640000000011">
        <ele>975.867</ele>
        <time>2022-08-24T08:40:25Z</time>
      </trkpt>
      <trkpt lat="43.090507999999424" lon="-1.2442630000000012">
        <ele>975.851</ele>
        <time>2022-08-24T08:40:26Z</time>
      </trkpt>
      <trkpt lat="43.09049299999943" lon="-1.2442640000000011">
        <ele>975.850</ele>
        <time>2022-08-24T08:40:27Z</time>
      </trkpt>
      <trkpt lat="43.09047799999943" lon="-1.244265000000001">
        <ele>976.055</ele>
        <time>2022-08-24T08:40:28Z</time>
      </trkpt>
      <trkpt lat="43.09046399999943" lon="-1.244265000000001">
        <ele>976.207</ele>
        <time>2022-08-24T08:40:29Z</time>
      </trkpt>
      <trkpt lat="43.09044699999943" lon="-1.244273000000001">
        <ele>976.417</ele>
        <time>2022-08-24T08:40:30Z</time>
      </trkpt>
      <trkpt lat="43.09042999999943" lon="-1.244278000000001">
        <ele>976.609</ele>
        <time>2022-08-24T08:40:31Z</time>
      </trkpt>
      <trkpt lat="43.09041299999943" lon="-1.244284000000001">
        <ele>976.836</ele>
        <time>2022-08-24T08:40:32Z</time>
      </trkpt>
      <trkpt lat="43.09039599999943" lon="-1.2442860000000011">
        <ele>977.086</ele>
        <time>2022-08-24T08:40:33Z</time>
      </trkpt>
      <trkpt lat="43.09037999999943" lon="-1.244287000000001">
        <ele>977.226</ele>
        <time>2022-08-24T08:40:34Z</time>
      </trkpt>
      <trkpt lat="43.09036599999943" lon="-1.244287000000001">
        <ele>977.442</ele>
        <time>2022-08-24T08:40:35Z</time>
      </trkpt>
      <trkpt lat="43.09034899999943" lon="-1.244288000000001">
        <ele>977.424</ele>
        <time>2022-08-24T08:40:36Z</time>
      </trkpt>
      <trkpt lat="43.090332999999426" lon="-1.244290000000001">
        <ele>977.681</ele>
        <time>2022-08-24T08:40:37Z</time>
      </trkpt>
      <trkpt lat="43.09031699999942" lon="-1.244291000000001">
        <ele>977.874</ele>
        <time>2022-08-24T08:40:38Z</time>
      </trkpt>
      <trkpt lat="43.090301999999426" lon="-1.2442920000000008">
        <ele>978.028</ele>
        <time>2022-08-24T08:40:39Z</time>
      </trkpt>
      <trkpt lat="43.090284999999426" lon="-1.2442920000000008">
        <ele>978.277</ele>
        <time>2022-08-24T08:40:40Z</time>
      </trkpt>
      <trkpt lat="43.09026399999943" lon="-1.2442980000000008">
        <ele>978.221</ele>
        <time>2022-08-24T08:40:41Z</time>
      </trkpt>
      <trkpt lat="43.09024699999943" lon="-1.2442990000000007">
        <ele>978.441</ele>
        <time>2022-08-24T08:40:42Z</time>
      </trkpt>
      <trkpt lat="43.09022999999943" lon="-1.2443020000000007">
        <ele>978.605</ele>
        <time>2022-08-24T08:40:43Z</time>
      </trkpt>
      <trkpt lat="43.09021499999943" lon="-1.2443040000000007">
        <ele>978.609</ele>
        <time>2022-08-24T08:40:44Z</time>
      </trkpt>
      <trkpt lat="43.09019899999943" lon="-1.2443030000000008">
        <ele>978.613</ele>
        <time>2022-08-24T08:40:45Z</time>
      </trkpt>
      <trkpt lat="43.09018299999943" lon="-1.2443030000000008">
        <ele>978.843</ele>
        <time>2022-08-24T08:40:46Z</time>
      </trkpt>
      <trkpt lat="43.09016499999943" lon="-1.2443010000000008">
        <ele>978.863</ele>
        <time>2022-08-24T08:40:47Z</time>
      </trkpt>
      <trkpt lat="43.09015099999943" lon="-1.2442980000000008">
        <ele>978.859</ele>
        <time>2022-08-24T08:40:48Z</time>
      </trkpt>
      <trkpt lat="43.09013399999943" lon="-1.2442960000000007">
        <ele>979.051</ele>
        <time>2022-08-24T08:40:49Z</time>
      </trkpt>
      <trkpt lat="43.09011799999943" lon="-1.2442940000000007">
        <ele>979.028</ele>
        <time>2022-08-24T08:40:50Z</time>
      </trkpt>
      <trkpt lat="43.090101999999426" lon="-1.2442930000000008">
        <ele>979.021</ele>
        <time>2022-08-24T08:40:51Z</time>
      </trkpt>
      <trkpt lat="43.090084999999426" lon="-1.2442950000000008">
        <ele>979.045</ele>
        <time>2022-08-24T08:40:52Z</time>
      </trkpt>
      <trkpt lat="43.09006799999943" lon="-1.2442970000000009">
        <ele>979.054</ele>
        <time>2022-08-24T08:40:53Z</time>
      </trkpt>
      <trkpt lat="43.090051999999424" lon="-1.244299000000001">
        <ele>979.038</ele>
        <time>2022-08-24T08:40:54Z</time>
      </trkpt>
      <trkpt lat="43.09003699999943" lon="-1.244301000000001">
        <ele>979.270</ele>
        <time>2022-08-24T08:40:55Z</time>
      </trkpt>
      <trkpt lat="43.09002299999943" lon="-1.244302000000001">
        <ele>979.417</ele>
        <time>2022-08-24T08:40:56Z</time>
      </trkpt>
      <trkpt lat="43.09000899999943" lon="-1.244304000000001">
        <ele>979.609</ele>
        <time>2022-08-24T08:40:57Z</time>
      </trkpt>
      <trkpt lat="43.08999199999943" lon="-1.244309000000001">
        <ele>979.694</ele>
        <time>2022-08-24T08:40:58Z</time>
      </trkpt>
      <trkpt lat="43.08997799999943" lon="-1.244313000000001">
        <ele>979.854</ele>
        <time>2022-08-24T08:40:59Z</time>
      </trkpt>
      <trkpt lat="43.08996299999943" lon="-1.2443140000000008">
        <ele>979.834</ele>
        <time>2022-08-24T08:41:00Z</time>
      </trkpt>
      <trkpt lat="43.08994699999943" lon="-1.2443160000000009">
        <ele>980.290</ele>
        <time>2022-08-24T08:41:01Z</time>
      </trkpt>
      <trkpt lat="43.08992999999943" lon="-1.2443160000000009">
        <ele>980.632</ele>
        <time>2022-08-24T08:41:02Z</time>
      </trkpt>
      <trkpt lat="43.08991299999943" lon="-1.2443170000000008">
        <ele>980.679</ele>
        <time>2022-08-24T08:41:03Z</time>
      </trkpt>
      <trkpt lat="43.08989799999943" lon="-1.2443170000000008">
        <ele>980.842</ele>
        <time>2022-08-24T08:41:04Z</time>
      </trkpt>
      <trkpt lat="43.08988199999943" lon="-1.2443180000000007">
        <ele>980.856</ele>
        <time>2022-08-24T08:41:05Z</time>
      </trkpt>
      <trkpt lat="43.08986499999943" lon="-1.2443230000000007">
        <ele>980.865</ele>
        <time>2022-08-24T08:41:06Z</time>
      </trkpt>
      <trkpt lat="43.08984999999943" lon="-1.2443250000000008">
        <ele>980.824</ele>
        <time>2022-08-24T08:41:07Z</time>
      </trkpt>
      <trkpt lat="43.08983299999943" lon="-1.2443280000000008">
        <ele>980.804</ele>
        <time>2022-08-24T08:41:08Z</time>
      </trkpt>
      <trkpt lat="43.08981499999943" lon="-1.2443340000000007">
        <ele>980.814</ele>
        <time>2022-08-24T08:41:09Z</time>
      </trkpt>
      <trkpt lat="43.089794999999434" lon="-1.2443380000000006">
        <ele>980.809</ele>
        <time>2022-08-24T08:41:10Z</time>
      </trkpt>
      <trkpt lat="43.08977699999944" lon="-1.2443410000000006">
        <ele>980.873</ele>
        <time>2022-08-24T08:41:11Z</time>
      </trkpt>
      <trkpt lat="43.08976199999944" lon="-1.2443430000000006">
        <ele>980.853</ele>
        <time>2022-08-24T08:41:12Z</time>
      </trkpt>
      <trkpt lat="43.08974499999944" lon="-1.2443460000000006">
        <ele>980.693</ele>
        <time>2022-08-24T08:41:13Z</time>
      </trkpt>
      <trkpt lat="43.08972999999944" lon="-1.2443510000000007">
        <ele>980.679</ele>
        <time>2022-08-24T08:41:14Z</time>
      </trkpt>
      <trkpt lat="43.089711999999444" lon="-1.2443590000000007">
        <ele>980.671</ele>
        <time>2022-08-24T08:41:15Z</time>
      </trkpt>
      <trkpt lat="43.08969599999944" lon="-1.2443670000000007">
        <ele>980.638</ele>
        <time>2022-08-24T08:41:16Z</time>
      </trkpt>
      <trkpt lat="43.08967899999944" lon="-1.2443720000000007">
        <ele>980.621</ele>
        <time>2022-08-24T08:41:17Z</time>
      </trkpt>
      <trkpt lat="43.08963099999944" lon="-1.2443930000000007">
        <ele>980.625</ele>
        <time>2022-08-24T08:41:20Z</time>
      </trkpt>
      <trkpt lat="43.089562999999444" lon="-1.2444390000000007">
        <ele>980.694</ele>
        <time>2022-08-24T08:41:24Z</time>
      </trkpt>
      <trkpt lat="43.089545999999444" lon="-1.2444500000000007">
        <ele>980.634</ele>
        <time>2022-08-24T08:41:25Z</time>
      </trkpt>
      <trkpt lat="43.089528999999445" lon="-1.2444590000000006">
        <ele>980.655</ele>
        <time>2022-08-24T08:41:26Z</time>
      </trkpt>
      <trkpt lat="43.089514999999444" lon="-1.2444680000000006">
        <ele>980.610</ele>
        <time>2022-08-24T08:41:27Z</time>
      </trkpt>
      <trkpt lat="43.08949599999944" lon="-1.2444780000000006">
        <ele>980.609</ele>
        <time>2022-08-24T08:41:28Z</time>
      </trkpt>
      <trkpt lat="43.08948199999944" lon="-1.2444850000000007">
        <ele>980.674</ele>
        <time>2022-08-24T08:41:29Z</time>
      </trkpt>
      <trkpt lat="43.08942299999944" lon="-1.2445130000000006">
        <ele>980.854</ele>
        <time>2022-08-24T08:41:32Z</time>
      </trkpt>
      <trkpt lat="43.08940699999944" lon="-1.2445210000000007">
        <ele>981.024</ele>
        <time>2022-08-24T08:41:33Z</time>
      </trkpt>
      <trkpt lat="43.08939099999944" lon="-1.2445250000000005">
        <ele>980.850</ele>
        <time>2022-08-24T08:41:34Z</time>
      </trkpt>
      <trkpt lat="43.08937399999944" lon="-1.2445310000000005">
        <ele>980.862</ele>
        <time>2022-08-24T08:41:35Z</time>
      </trkpt>
      <trkpt lat="43.08935699999944" lon="-1.2445370000000004">
        <ele>981.069</ele>
        <time>2022-08-24T08:41:36Z</time>
      </trkpt>
      <trkpt lat="43.089298999999436" lon="-1.2445690000000005">
        <ele>981.492</ele>
        <time>2022-08-24T08:41:40Z</time>
      </trkpt>
      <trkpt lat="43.089259999999435" lon="-1.2446100000000004">
        <ele>981.636</ele>
        <time>2022-08-24T08:41:43Z</time>
      </trkpt>
      <trkpt lat="43.08924499999944" lon="-1.2446260000000005">
        <ele>981.885</ele>
        <time>2022-08-24T08:41:44Z</time>
      </trkpt>
      <trkpt lat="43.08923099999944" lon="-1.2446400000000004">
        <ele>982.042</ele>
        <time>2022-08-24T08:41:45Z</time>
      </trkpt>
      <trkpt lat="43.08921599999944" lon="-1.2446560000000004">
        <ele>982.022</ele>
        <time>2022-08-24T08:41:46Z</time>
      </trkpt>
      <trkpt lat="43.089205999999436" lon="-1.2446690000000005">
        <ele>982.014</ele>
        <time>2022-08-24T08:41:47Z</time>
      </trkpt>
      <trkpt lat="43.08913699999943" lon="-1.2447390000000005">
        <ele>982.409</ele>
        <time>2022-08-24T08:41:53Z</time>
      </trkpt>
      <trkpt lat="43.08911699999943" lon="-1.2447640000000004">
        <ele>982.835</ele>
        <time>2022-08-24T08:41:55Z</time>
      </trkpt>
      <trkpt lat="43.089104999999435" lon="-1.2447740000000005">
        <ele>983.085</ele>
        <time>2022-08-24T08:41:56Z</time>
      </trkpt>
      <trkpt lat="43.089093999999434" lon="-1.2447880000000004">
        <ele>983.095</ele>
        <time>2022-08-24T08:41:57Z</time>
      </trkpt>
      <trkpt lat="43.089082999999434" lon="-1.2448020000000004">
        <ele>983.281</ele>
        <time>2022-08-24T08:41:58Z</time>
      </trkpt>
      <trkpt lat="43.08904999999943" lon="-1.2448380000000003">
        <ele>983.643</ele>
        <time>2022-08-24T08:42:01Z</time>
      </trkpt>
      <trkpt lat="43.08903699999943" lon="-1.2448480000000004">
        <ele>983.660</ele>
        <time>2022-08-24T08:42:02Z</time>
      </trkpt>
      <trkpt lat="43.08893899999943" lon="-1.2449280000000005">
        <ele>984.463</ele>
        <time>2022-08-24T08:42:09Z</time>
      </trkpt>
      <trkpt lat="43.08892699999943" lon="-1.2449410000000005">
        <ele>984.647</ele>
        <time>2022-08-24T08:42:10Z</time>
      </trkpt>
      <trkpt lat="43.08891499999943" lon="-1.2449550000000005">
        <ele>985.026</ele>
        <time>2022-08-24T08:42:11Z</time>
      </trkpt>
      <trkpt lat="43.08890299999943" lon="-1.2449690000000004">
        <ele>984.847</ele>
        <time>2022-08-24T08:42:12Z</time>
      </trkpt>
      <trkpt lat="43.088890999999435" lon="-1.2449810000000003">
        <ele>985.029</ele>
        <time>2022-08-24T08:42:13Z</time>
      </trkpt>
      <trkpt lat="43.08887799999943" lon="-1.2449930000000002">
        <ele>985.221</ele>
        <time>2022-08-24T08:42:14Z</time>
      </trkpt>
      <trkpt lat="43.08886799999943" lon="-1.2450020000000002">
        <ele>985.209</ele>
        <time>2022-08-24T08:42:15Z</time>
      </trkpt>
      <trkpt lat="43.08885299999943" lon="-1.245019">
        <ele>985.295</ele>
        <time>2022-08-24T08:42:16Z</time>
      </trkpt>
      <trkpt lat="43.08884399999943" lon="-1.2450290000000002">
        <ele>985.475</ele>
        <time>2022-08-24T08:42:17Z</time>
      </trkpt>
      <trkpt lat="43.088831999999435" lon="-1.245041">
        <ele>985.435</ele>
        <time>2022-08-24T08:42:18Z</time>
      </trkpt>
      <trkpt lat="43.08882299999944" lon="-1.245053">
        <ele>985.461</ele>
        <time>2022-08-24T08:42:19Z</time>
      </trkpt>
      <trkpt lat="43.088817999999435" lon="-1.245064">
        <ele>985.643</ele>
        <time>2022-08-24T08:42:20Z</time>
      </trkpt>
      <trkpt lat="43.08880599999944" lon="-1.245077">
        <ele>985.670</ele>
        <time>2022-08-24T08:42:21Z</time>
      </trkpt>
      <trkpt lat="43.08879099999944" lon="-1.245089">
        <ele>985.843</ele>
        <time>2022-08-24T08:42:22Z</time>
      </trkpt>
      <trkpt lat="43.08877799999944" lon="-1.245102">
        <ele>985.817</ele>
        <time>2022-08-24T08:42:23Z</time>
      </trkpt>
      <trkpt lat="43.08876599999944" lon="-1.245117">
        <ele>986.086</ele>
        <time>2022-08-24T08:42:24Z</time>
      </trkpt>
      <trkpt lat="43.08875399999944" lon="-1.24513">
        <ele>986.049</ele>
        <time>2022-08-24T08:42:25Z</time>
      </trkpt>
      <trkpt lat="43.08874199999944" lon="-1.245142">
        <ele>986.202</ele>
        <time>2022-08-24T08:42:26Z</time>
      </trkpt>
      <trkpt lat="43.08872599999944" lon="-1.245156">
        <ele>986.422</ele>
        <time>2022-08-24T08:42:27Z</time>
      </trkpt>
      <trkpt lat="43.08871399999944" lon="-1.245167">
        <ele>986.409</ele>
        <time>2022-08-24T08:42:28Z</time>
      </trkpt>
      <trkpt lat="43.08870099999944" lon="-1.245175">
        <ele>986.655</ele>
        <time>2022-08-24T08:42:29Z</time>
      </trkpt>
      <trkpt lat="43.08868899999944" lon="-1.2451869999999998">
        <ele>986.845</ele>
        <time>2022-08-24T08:42:30Z</time>
      </trkpt>
      <trkpt lat="43.08867699999944" lon="-1.2452009999999998">
        <ele>986.835</ele>
        <time>2022-08-24T08:42:31Z</time>
      </trkpt>
      <trkpt lat="43.088661999999445" lon="-1.2452149999999997">
        <ele>986.871</ele>
        <time>2022-08-24T08:42:32Z</time>
      </trkpt>
      <trkpt lat="43.08864999999945" lon="-1.2452279999999998">
        <ele>987.063</ele>
        <time>2022-08-24T08:42:33Z</time>
      </trkpt>
      <trkpt lat="43.088636999999444" lon="-1.2452399999999997">
        <ele>986.870</ele>
        <time>2022-08-24T08:42:34Z</time>
      </trkpt>
      <trkpt lat="43.08862399999944" lon="-1.2452529999999997">
        <ele>987.023</ele>
        <time>2022-08-24T08:42:35Z</time>
      </trkpt>
      <trkpt lat="43.08861399999944" lon="-1.2452679999999998">
        <ele>987.047</ele>
        <time>2022-08-24T08:42:36Z</time>
      </trkpt>
      <trkpt lat="43.088603999999435" lon="-1.2452849999999998">
        <ele>987.226</ele>
        <time>2022-08-24T08:42:37Z</time>
      </trkpt>
      <trkpt lat="43.08859399999943" lon="-1.2452999999999999">
        <ele>987.426</ele>
        <time>2022-08-24T08:42:38Z</time>
      </trkpt>
      <trkpt lat="43.088581999999434" lon="-1.245313">
        <ele>987.647</ele>
        <time>2022-08-24T08:42:39Z</time>
      </trkpt>
      <trkpt lat="43.08856899999943" lon="-1.2453269999999999">
        <ele>987.611</ele>
        <time>2022-08-24T08:42:40Z</time>
      </trkpt>
      <trkpt lat="43.08855899999943" lon="-1.2453409999999998">
        <ele>987.809</ele>
        <time>2022-08-24T08:42:41Z</time>
      </trkpt>
      <trkpt lat="43.08855199999943" lon="-1.2453569999999998">
        <ele>988.023</ele>
        <time>2022-08-24T08:42:42Z</time>
      </trkpt>
      <trkpt lat="43.08853899999943" lon="-1.2453789999999998">
        <ele>988.073</ele>
        <time>2022-08-24T08:42:43Z</time>
      </trkpt>
      <trkpt lat="43.08852999999943" lon="-1.2453979999999998">
        <ele>988.073</ele>
        <time>2022-08-24T08:42:44Z</time>
      </trkpt>
      <trkpt lat="43.08851899999943" lon="-1.2454179999999997">
        <ele>988.079</ele>
        <time>2022-08-24T08:42:45Z</time>
      </trkpt>
      <trkpt lat="43.088508999999426" lon="-1.2454379999999996">
        <ele>988.261</ele>
        <time>2022-08-24T08:42:46Z</time>
      </trkpt>
      <trkpt lat="43.088497999999426" lon="-1.2454589999999996">
        <ele>988.458</ele>
        <time>2022-08-24T08:42:47Z</time>
      </trkpt>
      <trkpt lat="43.08849199999943" lon="-1.2454799999999997">
        <ele>988.631</ele>
        <time>2022-08-24T08:42:48Z</time>
      </trkpt>
      <trkpt lat="43.08848799999943" lon="-1.2455009999999997">
        <ele>988.615</ele>
        <time>2022-08-24T08:42:49Z</time>
      </trkpt>
      <trkpt lat="43.08848899999943" lon="-1.2455219999999998">
        <ele>988.644</ele>
        <time>2022-08-24T08:42:50Z</time>
      </trkpt>
      <trkpt lat="43.088494999999426" lon="-1.2455429999999998">
        <ele>988.886</ele>
        <time>2022-08-24T08:42:51Z</time>
      </trkpt>
      <trkpt lat="43.08850499999943" lon="-1.245561">
        <ele>989.060</ele>
        <time>2022-08-24T08:42:52Z</time>
      </trkpt>
      <trkpt lat="43.08851299999943" lon="-1.2455779999999999">
        <ele>989.226</ele>
        <time>2022-08-24T08:42:53Z</time>
      </trkpt>
      <trkpt lat="43.08852599999943" lon="-1.245591">
        <ele>989.209</ele>
        <time>2022-08-24T08:42:54Z</time>
      </trkpt>
      <trkpt lat="43.088535999999436" lon="-1.245606">
        <ele>989.279</ele>
        <time>2022-08-24T08:42:55Z</time>
      </trkpt>
      <trkpt lat="43.088544999999435" lon="-1.245618">
        <ele>989.679</ele>
        <time>2022-08-24T08:42:56Z</time>
      </trkpt>
      <trkpt lat="43.08855799999944" lon="-1.245626">
        <ele>989.689</ele>
        <time>2022-08-24T08:42:57Z</time>
      </trkpt>
      <trkpt lat="43.08857399999944" lon="-1.2456319999999999">
        <ele>989.845</ele>
        <time>2022-08-24T08:42:58Z</time>
      </trkpt>
      <trkpt lat="43.08859099999944" lon="-1.245634">
        <ele>989.857</ele>
        <time>2022-08-24T08:42:59Z</time>
      </trkpt>
      <trkpt lat="43.08860599999944" lon="-1.245636">
        <ele>990.084</ele>
        <time>2022-08-24T08:43:00Z</time>
      </trkpt>
      <trkpt lat="43.088620999999435" lon="-1.2456399999999999">
        <ele>990.497</ele>
        <time>2022-08-24T08:43:01Z</time>
      </trkpt>
      <trkpt lat="43.088640999999434" lon="-1.2456429999999998">
        <ele>990.631</ele>
        <time>2022-08-24T08:43:02Z</time>
      </trkpt>
      <trkpt lat="43.088654999999434" lon="-1.2456469999999997">
        <ele>990.840</ele>
        <time>2022-08-24T08:43:03Z</time>
      </trkpt>
      <trkpt lat="43.08867099999944" lon="-1.2456509999999996">
        <ele>991.079</ele>
        <time>2022-08-24T08:43:04Z</time>
      </trkpt>
      <trkpt lat="43.08868499999944" lon="-1.2456569999999996">
        <ele>991.205</ele>
        <time>2022-08-24T08:43:05Z</time>
      </trkpt>
      <trkpt lat="43.08869899999944" lon="-1.2456619999999996">
        <ele>991.225</ele>
        <time>2022-08-24T08:43:06Z</time>
      </trkpt>
      <trkpt lat="43.08871199999944" lon="-1.2456689999999997">
        <ele>991.409</ele>
        <time>2022-08-24T08:43:07Z</time>
      </trkpt>
      <trkpt lat="43.08872599999944" lon="-1.2456749999999996">
        <ele>991.668</ele>
        <time>2022-08-24T08:43:08Z</time>
      </trkpt>
      <trkpt lat="43.08873999999944" lon="-1.2456809999999996">
        <ele>991.878</ele>
        <time>2022-08-24T08:43:09Z</time>
      </trkpt>
      <trkpt lat="43.08875399999944" lon="-1.2456879999999997">
        <ele>992.068</ele>
        <time>2022-08-24T08:43:10Z</time>
      </trkpt>
      <trkpt lat="43.08877099999944" lon="-1.2456949999999998">
        <ele>992.084</ele>
        <time>2022-08-24T08:43:11Z</time>
      </trkpt>
      <trkpt lat="43.08878699999944" lon="-1.2457009999999997">
        <ele>992.446</ele>
        <time>2022-08-24T08:43:12Z</time>
      </trkpt>
      <trkpt lat="43.088802999999444" lon="-1.2457069999999997">
        <ele>992.433</ele>
        <time>2022-08-24T08:43:13Z</time>
      </trkpt>
      <trkpt lat="43.088816999999445" lon="-1.2457149999999997">
        <ele>992.426</ele>
        <time>2022-08-24T08:43:14Z</time>
      </trkpt>
      <trkpt lat="43.08883199999944" lon="-1.2457219999999998">
        <ele>992.450</ele>
        <time>2022-08-24T08:43:15Z</time>
      </trkpt>
      <trkpt lat="43.08884699999944" lon="-1.2457269999999998">
        <ele>992.629</ele>
        <time>2022-08-24T08:43:16Z</time>
      </trkpt>
      <trkpt lat="43.08885899999944" lon="-1.2457319999999998">
        <ele>992.663</ele>
        <time>2022-08-24T08:43:17Z</time>
      </trkpt>
      <trkpt lat="43.08886999999944" lon="-1.2457429999999998">
        <ele>992.844</ele>
        <time>2022-08-24T08:43:18Z</time>
      </trkpt>
      <trkpt lat="43.08887899999944" lon="-1.2457549999999997">
        <ele>993.218</ele>
        <time>2022-08-24T08:43:19Z</time>
      </trkpt>
      <trkpt lat="43.08888999999944" lon="-1.2457639999999996">
        <ele>993.409</ele>
        <time>2022-08-24T08:43:20Z</time>
      </trkpt>
      <trkpt lat="43.08889899999944" lon="-1.2457729999999996">
        <ele>993.647</ele>
        <time>2022-08-24T08:43:21Z</time>
      </trkpt>
      <trkpt lat="43.08890699999944" lon="-1.2457879999999997">
        <ele>993.827</ele>
        <time>2022-08-24T08:43:22Z</time>
      </trkpt>
      <trkpt lat="43.088913999999434" lon="-1.2458039999999997">
        <ele>993.837</ele>
        <time>2022-08-24T08:43:23Z</time>
      </trkpt>
      <trkpt lat="43.08892299999943" lon="-1.2458159999999996">
        <ele>994.213</ele>
        <time>2022-08-24T08:43:24Z</time>
      </trkpt>
      <trkpt lat="43.088932999999436" lon="-1.2458279999999995">
        <ele>994.225</ele>
        <time>2022-08-24T08:43:25Z</time>
      </trkpt>
      <trkpt lat="43.088944999999434" lon="-1.2458389999999995">
        <ele>994.462</ele>
        <time>2022-08-24T08:43:26Z</time>
      </trkpt>
      <trkpt lat="43.088955999999435" lon="-1.2458539999999996">
        <ele>994.445</ele>
        <time>2022-08-24T08:43:27Z</time>
      </trkpt>
      <trkpt lat="43.088961999999434" lon="-1.2458689999999997">
        <ele>994.639</ele>
        <time>2022-08-24T08:43:28Z</time>
      </trkpt>
      <trkpt lat="43.088969999999435" lon="-1.2458819999999997">
        <ele>994.838</ele>
        <time>2022-08-24T08:43:29Z</time>
      </trkpt>
      <trkpt lat="43.088980999999436" lon="-1.2458909999999996">
        <ele>995.073</ele>
        <time>2022-08-24T08:43:30Z</time>
      </trkpt>
      <trkpt lat="43.088989999999434" lon="-1.2458999999999996">
        <ele>995.285</ele>
        <time>2022-08-24T08:43:31Z</time>
      </trkpt>
      <trkpt lat="43.08899899999943" lon="-1.2459099999999996">
        <ele>995.613</ele>
        <time>2022-08-24T08:43:32Z</time>
      </trkpt>
      <trkpt lat="43.08900999999943" lon="-1.2459229999999997">
        <ele>995.609</ele>
        <time>2022-08-24T08:43:33Z</time>
      </trkpt>
      <trkpt lat="43.08901899999943" lon="-1.2459349999999996">
        <ele>995.658</ele>
        <time>2022-08-24T08:43:34Z</time>
      </trkpt>
      <trkpt lat="43.08902999999943" lon="-1.2459519999999995">
        <ele>995.898</ele>
        <time>2022-08-24T08:43:35Z</time>
      </trkpt>
      <trkpt lat="43.089034999999434" lon="-1.2459649999999995">
        <ele>995.848</ele>
        <time>2022-08-24T08:43:36Z</time>
      </trkpt>
      <trkpt lat="43.089042999999435" lon="-1.2459799999999996">
        <ele>995.864</ele>
        <time>2022-08-24T08:43:37Z</time>
      </trkpt>
      <trkpt lat="43.089050999999436" lon="-1.2459959999999997">
        <ele>996.036</ele>
        <time>2022-08-24T08:43:38Z</time>
      </trkpt>
      <trkpt lat="43.08905899999944" lon="-1.2460139999999997">
        <ele>996.023</ele>
        <time>2022-08-24T08:43:39Z</time>
      </trkpt>
      <trkpt lat="43.08906499999944" lon="-1.2460289999999998">
        <ele>996.066</ele>
        <time>2022-08-24T08:43:40Z</time>
      </trkpt>
      <trkpt lat="43.089070999999436" lon="-1.2460449999999998">
        <ele>996.220</ele>
        <time>2022-08-24T08:43:41Z</time>
      </trkpt>
      <trkpt lat="43.08907899999944" lon="-1.24606">
        <ele>996.469</ele>
        <time>2022-08-24T08:43:42Z</time>
      </trkpt>
      <trkpt lat="43.08908399999944" lon="-1.2460719999999998">
        <ele>996.639</ele>
        <time>2022-08-24T08:43:43Z</time>
      </trkpt>
      <trkpt lat="43.089090999999435" lon="-1.246087">
        <ele>996.801</ele>
        <time>2022-08-24T08:43:44Z</time>
      </trkpt>
      <trkpt lat="43.08910099999944" lon="-1.246106">
        <ele>996.821</ele>
        <time>2022-08-24T08:43:45Z</time>
      </trkpt>
      <trkpt lat="43.089107999999435" lon="-1.246117">
        <ele>997.009</ele>
        <time>2022-08-24T08:43:46Z</time>
      </trkpt>
      <trkpt lat="43.08911799999944" lon="-1.246135">
        <ele>997.234</ele>
        <time>2022-08-24T08:43:47Z</time>
      </trkpt>
      <trkpt lat="43.089129999999436" lon="-1.246148">
        <ele>997.444</ele>
        <time>2022-08-24T08:43:48Z</time>
      </trkpt>
      <trkpt lat="43.08913199999944" lon="-1.246166">
        <ele>997.644</ele>
        <time>2022-08-24T08:43:49Z</time>
      </trkpt>
      <trkpt lat="43.08914099999944" lon="-1.2461810000000002">
        <ele>998.040</ele>
        <time>2022-08-24T08:43:50Z</time>
      </trkpt>
      <trkpt lat="43.08914799999943" lon="-1.2461950000000002">
        <ele>998.282</ele>
        <time>2022-08-24T08:43:51Z</time>
      </trkpt>
      <trkpt lat="43.08915199999943" lon="-1.2462100000000003">
        <ele>998.249</ele>
        <time>2022-08-24T08:43:52Z</time>
      </trkpt>
      <trkpt lat="43.08915699999943" lon="-1.2462230000000003">
        <ele>998.442</ele>
        <time>2022-08-24T08:43:53Z</time>
      </trkpt>
      <trkpt lat="43.08916599999943" lon="-1.2462380000000004">
        <ele>998.676</ele>
        <time>2022-08-24T08:43:54Z</time>
      </trkpt>
      <trkpt lat="43.08917899999943" lon="-1.2462500000000003">
        <ele>998.855</ele>
        <time>2022-08-24T08:43:55Z</time>
      </trkpt>
      <trkpt lat="43.089189999999434" lon="-1.2462570000000004">
        <ele>999.088</ele>
        <time>2022-08-24T08:43:56Z</time>
      </trkpt>
      <trkpt lat="43.089203999999434" lon="-1.2462640000000005">
        <ele>999.224</ele>
        <time>2022-08-24T08:43:57Z</time>
      </trkpt>
      <trkpt lat="43.08921399999944" lon="-1.2462720000000005">
        <ele>999.426</ele>
        <time>2022-08-24T08:43:58Z</time>
      </trkpt>
      <trkpt lat="43.08922799999944" lon="-1.2462810000000004">
        <ele>999.409</ele>
        <time>2022-08-24T08:43:59Z</time>
      </trkpt>
      <trkpt lat="43.089242999999435" lon="-1.2462910000000005">
        <ele>999.689</ele>
        <time>2022-08-24T08:44:00Z</time>
      </trkpt>
      <trkpt lat="43.08925299999944" lon="-1.2463020000000005">
        <ele>999.629</ele>
        <time>2022-08-24T08:44:01Z</time>
      </trkpt>
      <trkpt lat="43.08926599999944" lon="-1.2463090000000006">
        <ele>999.889</ele>
        <time>2022-08-24T08:44:02Z</time>
      </trkpt>
      <trkpt lat="43.08927699999944" lon="-1.2463140000000006">
        <ele>1000.225</ele>
        <time>2022-08-24T08:44:03Z</time>
      </trkpt>
      <trkpt lat="43.089289999999444" lon="-1.2463210000000007">
        <ele>1000.217</ele>
        <time>2022-08-24T08:44:04Z</time>
      </trkpt>
      <trkpt lat="43.08930299999945" lon="-1.2463300000000006">
        <ele>1000.214</ele>
        <time>2022-08-24T08:44:05Z</time>
      </trkpt>
      <trkpt lat="43.089314999999445" lon="-1.2463360000000006">
        <ele>1000.437</ele>
        <time>2022-08-24T08:44:06Z</time>
      </trkpt>
      <trkpt lat="43.089328999999445" lon="-1.2463460000000006">
        <ele>1000.621</ele>
        <time>2022-08-24T08:44:07Z</time>
      </trkpt>
      <trkpt lat="43.08934199999945" lon="-1.2463550000000005">
        <ele>1000.650</ele>
        <time>2022-08-24T08:44:08Z</time>
      </trkpt>
      <trkpt lat="43.08935899999945" lon="-1.2463650000000006">
        <ele>1000.867</ele>
        <time>2022-08-24T08:44:09Z</time>
      </trkpt>
      <trkpt lat="43.08937199999945" lon="-1.2463760000000006">
        <ele>1001.081</ele>
        <time>2022-08-24T08:44:10Z</time>
      </trkpt>
      <trkpt lat="43.08938499999945" lon="-1.2463860000000007">
        <ele>1001.219</ele>
        <time>2022-08-24T08:44:11Z</time>
      </trkpt>
      <trkpt lat="43.089397999999456" lon="-1.2463950000000006">
        <ele>1001.409</ele>
        <time>2022-08-24T08:44:12Z</time>
      </trkpt>
      <trkpt lat="43.089409999999454" lon="-1.2464060000000006">
        <ele>1001.427</ele>
        <time>2022-08-24T08:44:13Z</time>
      </trkpt>
      <trkpt lat="43.089420999999454" lon="-1.2464170000000006">
        <ele>1001.677</ele>
        <time>2022-08-24T08:44:14Z</time>
      </trkpt>
      <trkpt lat="43.08943399999946" lon="-1.2464260000000005">
        <ele>1001.817</ele>
        <time>2022-08-24T08:44:15Z</time>
      </trkpt>
      <trkpt lat="43.08944499999946" lon="-1.2464330000000006">
        <ele>1002.063</ele>
        <time>2022-08-24T08:44:16Z</time>
      </trkpt>
      <trkpt lat="43.08945599999946" lon="-1.2464420000000005">
        <ele>1002.285</ele>
        <time>2022-08-24T08:44:17Z</time>
      </trkpt>
      <trkpt lat="43.08946799999946" lon="-1.2464550000000005">
        <ele>1002.242</ele>
        <time>2022-08-24T08:44:18Z</time>
      </trkpt>
      <trkpt lat="43.089476999999455" lon="-1.2464650000000006">
        <ele>1002.425</ele>
        <time>2022-08-24T08:44:19Z</time>
      </trkpt>
      <trkpt lat="43.089485999999454" lon="-1.2464770000000005">
        <ele>1002.449</ele>
        <time>2022-08-24T08:44:20Z</time>
      </trkpt>
      <trkpt lat="43.089490999999455" lon="-1.2464890000000004">
        <ele>1002.638</ele>
        <time>2022-08-24T08:44:21Z</time>
      </trkpt>
      <trkpt lat="43.089501999999456" lon="-1.2465030000000004">
        <ele>1003.063</ele>
        <time>2022-08-24T08:44:22Z</time>
      </trkpt>
      <trkpt lat="43.08950999999946" lon="-1.2465170000000003">
        <ele>1003.044</ele>
        <time>2022-08-24T08:44:23Z</time>
      </trkpt>
      <trkpt lat="43.08951799999946" lon="-1.2465310000000003">
        <ele>1003.218</ele>
        <time>2022-08-24T08:44:24Z</time>
      </trkpt>
      <trkpt lat="43.08952599999946" lon="-1.2465470000000003">
        <ele>1003.209</ele>
        <time>2022-08-24T08:44:25Z</time>
      </trkpt>
      <trkpt lat="43.08953499999946" lon="-1.2465670000000002">
        <ele>1003.487</ele>
        <time>2022-08-24T08:44:26Z</time>
      </trkpt>
      <trkpt lat="43.089538999999455" lon="-1.2465840000000001">
        <ele>1003.867</ele>
        <time>2022-08-24T08:44:27Z</time>
      </trkpt>
      <trkpt lat="43.08954299999945" lon="-1.2465970000000002">
        <ele>1003.867</ele>
        <time>2022-08-24T08:44:28Z</time>
      </trkpt>
      <trkpt lat="43.08954599999945" lon="-1.2466120000000003">
        <ele>1004.233</ele>
        <time>2022-08-24T08:44:29Z</time>
      </trkpt>
      <trkpt lat="43.08954999999945" lon="-1.2466260000000002">
        <ele>1004.485</ele>
        <time>2022-08-24T08:44:30Z</time>
      </trkpt>
      <trkpt lat="43.08954899999945" lon="-1.2466430000000002">
        <ele>1004.842</ele>
        <time>2022-08-24T08:44:31Z</time>
      </trkpt>
      <trkpt lat="43.08954599999945" lon="-1.24666">
        <ele>1005.055</ele>
        <time>2022-08-24T08:44:32Z</time>
      </trkpt>
      <trkpt lat="43.08954399999945" lon="-1.2466730000000001">
        <ele>1005.429</ele>
        <time>2022-08-24T08:44:33Z</time>
      </trkpt>
      <trkpt lat="43.08954099999945" lon="-1.246687">
        <ele>1005.678</ele>
        <time>2022-08-24T08:44:34Z</time>
      </trkpt>
      <trkpt lat="43.08953799999945" lon="-1.246701">
        <ele>1005.642</ele>
        <time>2022-08-24T08:44:35Z</time>
      </trkpt>
      <trkpt lat="43.08953399999945" lon="-1.2467190000000001">
        <ele>1005.822</ele>
        <time>2022-08-24T08:44:36Z</time>
      </trkpt>
      <trkpt lat="43.089527999999454" lon="-1.2467350000000001">
        <ele>1006.014</ele>
        <time>2022-08-24T08:44:37Z</time>
      </trkpt>
      <trkpt lat="43.089524999999455" lon="-1.2467480000000002">
        <ele>1006.209</ele>
        <time>2022-08-24T08:44:38Z</time>
      </trkpt>
      <trkpt lat="43.08952299999945" lon="-1.2467650000000001">
        <ele>1006.485</ele>
        <time>2022-08-24T08:44:39Z</time>
      </trkpt>
      <trkpt lat="43.08952299999945" lon="-1.2467840000000001">
        <ele>1006.615</ele>
        <time>2022-08-24T08:44:40Z</time>
      </trkpt>
      <trkpt lat="43.08952299999945" lon="-1.246806">
        <ele>1006.865</ele>
        <time>2022-08-24T08:44:41Z</time>
      </trkpt>
      <trkpt lat="43.08952399999945" lon="-1.246822">
        <ele>1007.051</ele>
        <time>2022-08-24T08:44:42Z</time>
      </trkpt>
      <trkpt lat="43.08952299999945" lon="-1.246834">
        <ele>1007.253</ele>
        <time>2022-08-24T08:44:43Z</time>
      </trkpt>
      <trkpt lat="43.08952099999945" lon="-1.246846">
        <ele>1007.290</ele>
        <time>2022-08-24T08:44:44Z</time>
      </trkpt>
      <trkpt lat="43.089516999999454" lon="-1.2468629999999998">
        <ele>1007.413</ele>
        <time>2022-08-24T08:44:45Z</time>
      </trkpt>
      <trkpt lat="43.08951299999946" lon="-1.246881">
        <ele>1007.647</ele>
        <time>2022-08-24T08:44:46Z</time>
      </trkpt>
      <trkpt lat="43.08951299999946" lon="-1.2468979999999998">
        <ele>1007.656</ele>
        <time>2022-08-24T08:44:47Z</time>
      </trkpt>
      <trkpt lat="43.08951299999946" lon="-1.246916">
        <ele>1007.882</ele>
        <time>2022-08-24T08:44:48Z</time>
      </trkpt>
      <trkpt lat="43.089513999999454" lon="-1.2469329999999998">
        <ele>1007.843</ele>
        <time>2022-08-24T08:44:49Z</time>
      </trkpt>
      <trkpt lat="43.089513999999454" lon="-1.2469439999999998">
        <ele>1008.017</ele>
        <time>2022-08-24T08:44:50Z</time>
      </trkpt>
      <trkpt lat="43.089516999999454" lon="-1.2469609999999998">
        <ele>1008.009</ele>
        <time>2022-08-24T08:44:51Z</time>
      </trkpt>
      <trkpt lat="43.089521999999455" lon="-1.2469729999999997">
        <ele>1008.069</ele>
        <time>2022-08-24T08:44:52Z</time>
      </trkpt>
      <trkpt lat="43.089524999999455" lon="-1.2469829999999997">
        <ele>1008.279</ele>
        <time>2022-08-24T08:44:53Z</time>
      </trkpt>
      <trkpt lat="43.08952599999945" lon="-1.2469909999999997">
        <ele>1008.279</ele>
        <time>2022-08-24T08:44:54Z</time>
      </trkpt>
      <trkpt lat="43.08951799999945" lon="-1.2470049999999997">
        <ele>1009.015</ele>
        <time>2022-08-24T08:48:35Z</time>
      </trkpt>
      <trkpt lat="43.08944599999945" lon="-1.2470029999999996">
        <ele>1009.237</ele>
        <time>2022-08-24T08:48:40Z</time>
      </trkpt>
      <trkpt lat="43.089432999999445" lon="-1.2470029999999996">
        <ele>1009.214</ele>
        <time>2022-08-24T08:48:41Z</time>
      </trkpt>
      <trkpt lat="43.089418999999445" lon="-1.2470059999999996">
        <ele>1009.687</ele>
        <time>2022-08-24T08:48:42Z</time>
      </trkpt>
      <trkpt lat="43.089404999999445" lon="-1.2470049999999997">
        <ele>1009.871</ele>
        <time>2022-08-24T08:48:43Z</time>
      </trkpt>
      <trkpt lat="43.08938999999945" lon="-1.2470019999999997">
        <ele>1010.020</ele>
        <time>2022-08-24T08:48:44Z</time>
      </trkpt>
      <trkpt lat="43.08937599999945" lon="-1.2470019999999997">
        <ele>1010.242</ele>
        <time>2022-08-24T08:48:45Z</time>
      </trkpt>
      <trkpt lat="43.08933599999945" lon="-1.2470239999999997">
        <ele>1010.222</ele>
        <time>2022-08-24T08:48:48Z</time>
      </trkpt>
      <trkpt lat="43.08932199999945" lon="-1.2470329999999996">
        <ele>1010.214</ele>
        <time>2022-08-24T08:48:49Z</time>
      </trkpt>
      <trkpt lat="43.08929299999945" lon="-1.2470509999999997">
        <ele>1010.209</ele>
        <time>2022-08-24T08:48:51Z</time>
      </trkpt>
      <trkpt lat="43.08928099999945" lon="-1.2470659999999998">
        <ele>1010.245</ele>
        <time>2022-08-24T08:48:52Z</time>
      </trkpt>
      <trkpt lat="43.08925299999945" lon="-1.2470899999999998">
        <ele>1010.045</ele>
        <time>2022-08-24T08:48:54Z</time>
      </trkpt>
      <trkpt lat="43.08919399999945" lon="-1.2471469999999998">
        <ele>1010.075</ele>
        <time>2022-08-24T08:48:58Z</time>
      </trkpt>
      <trkpt lat="43.089178999999454" lon="-1.2471589999999997">
        <ele>1010.251</ele>
        <time>2022-08-24T08:48:59Z</time>
      </trkpt>
      <trkpt lat="43.08916399999946" lon="-1.2471679999999996">
        <ele>1010.253</ele>
        <time>2022-08-24T08:49:00Z</time>
      </trkpt>
      <trkpt lat="43.089150999999454" lon="-1.2471779999999997">
        <ele>1010.280</ele>
        <time>2022-08-24T08:49:01Z</time>
      </trkpt>
      <trkpt lat="43.08913999999945" lon="-1.2471899999999996">
        <ele>1010.653</ele>
        <time>2022-08-24T08:49:02Z</time>
      </trkpt>
      <trkpt lat="43.08912699999945" lon="-1.2472009999999996">
        <ele>1010.627</ele>
        <time>2022-08-24T08:49:03Z</time>
      </trkpt>
      <trkpt lat="43.08911499999945" lon="-1.2472129999999995">
        <ele>1010.836</ele>
        <time>2022-08-24T08:49:04Z</time>
      </trkpt>
      <trkpt lat="43.089102999999454" lon="-1.2472219999999994">
        <ele>1010.851</ele>
        <time>2022-08-24T08:49:05Z</time>
      </trkpt>
      <trkpt lat="43.08906199999945" lon="-1.2472659999999993">
        <ele>1011.201</ele>
        <time>2022-08-24T08:49:09Z</time>
      </trkpt>
      <trkpt lat="43.08905299999945" lon="-1.2472779999999992">
        <ele>1011.211</ele>
        <time>2022-08-24T08:49:10Z</time>
      </trkpt>
      <trkpt lat="43.089029999999454" lon="-1.2473009999999993">
        <ele>1011.409</ele>
        <time>2022-08-24T08:49:12Z</time>
      </trkpt>
      <trkpt lat="43.08895499999945" lon="-1.2473799999999993">
        <ele>1011.846</ele>
        <time>2022-08-24T08:49:18Z</time>
      </trkpt>
      <trkpt lat="43.088922999999454" lon="-1.2474169999999993">
        <ele>1012.296</ele>
        <time>2022-08-24T08:49:21Z</time>
      </trkpt>
      <trkpt lat="43.08891199999945" lon="-1.2474309999999993">
        <ele>1012.286</ele>
        <time>2022-08-24T08:49:22Z</time>
      </trkpt>
      <trkpt lat="43.08885899999945" lon="-1.2474879999999993">
        <ele>1012.652</ele>
        <time>2022-08-24T08:49:26Z</time>
      </trkpt>
      <trkpt lat="43.088837999999456" lon="-1.2475159999999992">
        <ele>1012.834</ele>
        <time>2022-08-24T08:49:28Z</time>
      </trkpt>
      <trkpt lat="43.08882799999945" lon="-1.2475319999999992">
        <ele>1012.841</ele>
        <time>2022-08-24T08:49:29Z</time>
      </trkpt>
      <trkpt lat="43.08881799999945" lon="-1.2475489999999991">
        <ele>1012.844</ele>
        <time>2022-08-24T08:49:30Z</time>
      </trkpt>
      <trkpt lat="43.088790999999446" lon="-1.2475989999999992">
        <ele>1013.068</ele>
        <time>2022-08-24T08:49:33Z</time>
      </trkpt>
      <trkpt lat="43.08877899999945" lon="-1.2476139999999993">
        <ele>1013.027</ele>
        <time>2022-08-24T08:49:34Z</time>
      </trkpt>
      <trkpt lat="43.088768999999445" lon="-1.2476279999999993">
        <ele>1013.259</ele>
        <time>2022-08-24T08:49:35Z</time>
      </trkpt>
      <trkpt lat="43.088746999999444" lon="-1.2476619999999994">
        <ele>1013.203</ele>
        <time>2022-08-24T08:49:37Z</time>
      </trkpt>
      <trkpt lat="43.088737999999445" lon="-1.2476779999999994">
        <ele>1013.423</ele>
        <time>2022-08-24T08:49:38Z</time>
      </trkpt>
      <trkpt lat="43.08871099999944" lon="-1.2477209999999994">
        <ele>1013.409</ele>
        <time>2022-08-24T08:49:41Z</time>
      </trkpt>
      <trkpt lat="43.08869999999944" lon="-1.2477339999999995">
        <ele>1013.436</ele>
        <time>2022-08-24T08:49:42Z</time>
      </trkpt>
      <trkpt lat="43.088667999999444" lon="-1.2477999999999994">
        <ele>1014.226</ele>
        <time>2022-08-24T08:49:46Z</time>
      </trkpt>
      <trkpt lat="43.08865799999944" lon="-1.2478149999999995">
        <ele>1014.666</ele>
        <time>2022-08-24T08:49:47Z</time>
      </trkpt>
      <trkpt lat="43.08861199999944" lon="-1.2478899999999995">
        <ele>1015.272</ele>
        <time>2022-08-24T08:49:52Z</time>
      </trkpt>
      <trkpt lat="43.088599999999445" lon="-1.2479099999999994">
        <ele>1015.254</ele>
        <time>2022-08-24T08:49:53Z</time>
      </trkpt>
      <trkpt lat="43.08859099999945" lon="-1.2479229999999994">
        <ele>1015.251</ele>
        <time>2022-08-24T08:49:54Z</time>
      </trkpt>
      <trkpt lat="43.088580999999444" lon="-1.2479379999999995">
        <ele>1015.254</ele>
        <time>2022-08-24T08:49:55Z</time>
      </trkpt>
      <trkpt lat="43.088571999999445" lon="-1.2479569999999995">
        <ele>1015.268</ele>
        <time>2022-08-24T08:49:56Z</time>
      </trkpt>
      <trkpt lat="43.088562999999446" lon="-1.2479729999999996">
        <ele>1015.287</ele>
        <time>2022-08-24T08:49:57Z</time>
      </trkpt>
      <trkpt lat="43.08855299999944" lon="-1.2479919999999995">
        <ele>1015.226</ele>
        <time>2022-08-24T08:49:58Z</time>
      </trkpt>
      <trkpt lat="43.088543999999445" lon="-1.2480109999999995">
        <ele>1015.247</ele>
        <time>2022-08-24T08:49:59Z</time>
      </trkpt>
      <trkpt lat="43.088532999999444" lon="-1.2480289999999996">
        <ele>1015.411</ele>
        <time>2022-08-24T08:50:00Z</time>
      </trkpt>
      <trkpt lat="43.088523999999445" lon="-1.2480449999999996">
        <ele>1015.609</ele>
        <time>2022-08-24T08:50:01Z</time>
      </trkpt>
      <trkpt lat="43.088512999999445" lon="-1.2480629999999997">
        <ele>1015.863</ele>
        <time>2022-08-24T08:50:02Z</time>
      </trkpt>
      <trkpt lat="43.088501999999444" lon="-1.2480779999999998">
        <ele>1016.283</ele>
        <time>2022-08-24T08:50:03Z</time>
      </trkpt>
      <trkpt lat="43.08849099999944" lon="-1.2480939999999998">
        <ele>1016.243</ele>
        <time>2022-08-24T08:50:04Z</time>
      </trkpt>
      <trkpt lat="43.08848299999944" lon="-1.248109">
        <ele>1016.679</ele>
        <time>2022-08-24T08:50:05Z</time>
      </trkpt>
      <trkpt lat="43.088475999999446" lon="-1.248124">
        <ele>1016.831</ele>
        <time>2022-08-24T08:50:06Z</time>
      </trkpt>
      <trkpt lat="43.088464999999445" lon="-1.24814">
        <ele>1017.038</ele>
        <time>2022-08-24T08:50:07Z</time>
      </trkpt>
      <trkpt lat="43.08845299999945" lon="-1.248156">
        <ele>1017.021</ele>
        <time>2022-08-24T08:50:08Z</time>
      </trkpt>
      <trkpt lat="43.08844099999945" lon="-1.248172">
        <ele>1017.245</ele>
        <time>2022-08-24T08:50:09Z</time>
      </trkpt>
      <trkpt lat="43.08842899999945" lon="-1.248188">
        <ele>1017.244</ele>
        <time>2022-08-24T08:50:10Z</time>
      </trkpt>
      <trkpt lat="43.08841899999945" lon="-1.248204">
        <ele>1017.287</ele>
        <time>2022-08-24T08:50:11Z</time>
      </trkpt>
      <trkpt lat="43.08841099999945" lon="-1.248218">
        <ele>1017.642</ele>
        <time>2022-08-24T08:50:12Z</time>
      </trkpt>
      <trkpt lat="43.08839899999945" lon="-1.2482330000000001">
        <ele>1017.826</ele>
        <time>2022-08-24T08:50:13Z</time>
      </trkpt>
      <trkpt lat="43.08838499999945" lon="-1.2482480000000002">
        <ele>1017.809</ele>
        <time>2022-08-24T08:50:14Z</time>
      </trkpt>
      <trkpt lat="43.088374999999445" lon="-1.2482620000000002">
        <ele>1018.039</ele>
        <time>2022-08-24T08:50:15Z</time>
      </trkpt>
      <trkpt lat="43.08836299999945" lon="-1.2482780000000002">
        <ele>1018.079</ele>
        <time>2022-08-24T08:50:16Z</time>
      </trkpt>
      <trkpt lat="43.08835099999945" lon="-1.2482910000000003">
        <ele>1018.299</ele>
        <time>2022-08-24T08:50:17Z</time>
      </trkpt>
      <trkpt lat="43.08833999999945" lon="-1.2483020000000002">
        <ele>1018.485</ele>
        <time>2022-08-24T08:50:18Z</time>
      </trkpt>
      <trkpt lat="43.08832899999945" lon="-1.2483150000000003">
        <ele>1018.647</ele>
        <time>2022-08-24T08:50:19Z</time>
      </trkpt>
      <trkpt lat="43.08831999999945" lon="-1.2483300000000004">
        <ele>1018.814</ele>
        <time>2022-08-24T08:50:20Z</time>
      </trkpt>
      <trkpt lat="43.088309999999446" lon="-1.2483420000000003">
        <ele>1018.837</ele>
        <time>2022-08-24T08:50:21Z</time>
      </trkpt>
      <trkpt lat="43.088298999999445" lon="-1.2483560000000002">
        <ele>1019.031</ele>
        <time>2022-08-24T08:50:22Z</time>
      </trkpt>
      <trkpt lat="43.08828699999945" lon="-1.2483720000000003">
        <ele>1019.030</ele>
        <time>2022-08-24T08:50:23Z</time>
      </trkpt>
      <trkpt lat="43.088276999999444" lon="-1.2483850000000003">
        <ele>1019.412</ele>
        <time>2022-08-24T08:50:24Z</time>
      </trkpt>
      <trkpt lat="43.088264999999446" lon="-1.2483980000000003">
        <ele>1019.432</ele>
        <time>2022-08-24T08:50:25Z</time>
      </trkpt>
      <trkpt lat="43.08825299999945" lon="-1.2484110000000004">
        <ele>1019.605</ele>
        <time>2022-08-24T08:50:26Z</time>
      </trkpt>
      <trkpt lat="43.088242999999444" lon="-1.2484230000000003">
        <ele>1019.809</ele>
        <time>2022-08-24T08:50:27Z</time>
      </trkpt>
      <trkpt lat="43.088233999999446" lon="-1.2484330000000003">
        <ele>1019.862</ele>
        <time>2022-08-24T08:50:28Z</time>
      </trkpt>
      <trkpt lat="43.08822499999945" lon="-1.2484460000000004">
        <ele>1019.852</ele>
        <time>2022-08-24T08:50:29Z</time>
      </trkpt>
      <trkpt lat="43.088216999999446" lon="-1.2484600000000003">
        <ele>1019.822</ele>
        <time>2022-08-24T08:50:30Z</time>
      </trkpt>
      <trkpt lat="43.08820799999945" lon="-1.2484750000000004">
        <ele>1020.098</ele>
        <time>2022-08-24T08:50:31Z</time>
      </trkpt>
      <trkpt lat="43.08819899999945" lon="-1.2484900000000005">
        <ele>1020.020</ele>
        <time>2022-08-24T08:50:32Z</time>
      </trkpt>
      <trkpt lat="43.08818699999945" lon="-1.2485040000000005">
        <ele>1020.297</ele>
        <time>2022-08-24T08:50:33Z</time>
      </trkpt>
      <trkpt lat="43.08817499999945" lon="-1.2485160000000004">
        <ele>1020.280</ele>
        <time>2022-08-24T08:50:34Z</time>
      </trkpt>
      <trkpt lat="43.08816099999945" lon="-1.2485310000000005">
        <ele>1020.234</ele>
        <time>2022-08-24T08:50:35Z</time>
      </trkpt>
      <trkpt lat="43.088153999999456" lon="-1.2485480000000004">
        <ele>1020.483</ele>
        <time>2022-08-24T08:50:36Z</time>
      </trkpt>
      <trkpt lat="43.08814699999946" lon="-1.2485630000000005">
        <ele>1020.473</ele>
        <time>2022-08-24T08:50:37Z</time>
      </trkpt>
      <trkpt lat="43.08813999999946" lon="-1.2485760000000006">
        <ele>1020.685</ele>
        <time>2022-08-24T08:50:38Z</time>
      </trkpt>
      <trkpt lat="43.08813199999946" lon="-1.2485910000000007">
        <ele>1020.613</ele>
        <time>2022-08-24T08:50:39Z</time>
      </trkpt>
      <trkpt lat="43.08812399999946" lon="-1.2486030000000006">
        <ele>1020.809</ele>
        <time>2022-08-24T08:50:40Z</time>
      </trkpt>
      <trkpt lat="43.08811399999946" lon="-1.2486160000000006">
        <ele>1020.878</ele>
        <time>2022-08-24T08:50:41Z</time>
      </trkpt>
      <trkpt lat="43.088105999999456" lon="-1.2486310000000007">
        <ele>1021.078</ele>
        <time>2022-08-24T08:50:42Z</time>
      </trkpt>
      <trkpt lat="43.08809899999946" lon="-1.2486470000000007">
        <ele>1021.018</ele>
        <time>2022-08-24T08:50:43Z</time>
      </trkpt>
      <trkpt lat="43.08809099999946" lon="-1.2486630000000007">
        <ele>1021.084</ele>
        <time>2022-08-24T08:50:44Z</time>
      </trkpt>
      <trkpt lat="43.088080999999455" lon="-1.2486770000000007">
        <ele>1021.266</ele>
        <time>2022-08-24T08:50:45Z</time>
      </trkpt>
      <trkpt lat="43.08807099999945" lon="-1.2486900000000007">
        <ele>1021.463</ele>
        <time>2022-08-24T08:50:46Z</time>
      </trkpt>
      <trkpt lat="43.088061999999454" lon="-1.2487030000000008">
        <ele>1021.486</ele>
        <time>2022-08-24T08:50:47Z</time>
      </trkpt>
      <trkpt lat="43.08805399999945" lon="-1.2487190000000008">
        <ele>1021.660</ele>
        <time>2022-08-24T08:50:48Z</time>
      </trkpt>
      <trkpt lat="43.088046999999456" lon="-1.2487310000000007">
        <ele>1021.659</ele>
        <time>2022-08-24T08:50:49Z</time>
      </trkpt>
      <trkpt lat="43.08803999999946" lon="-1.2487430000000006">
        <ele>1021.856</ele>
        <time>2022-08-24T08:50:50Z</time>
      </trkpt>
      <trkpt lat="43.08803299999946" lon="-1.2487560000000006">
        <ele>1021.859</ele>
        <time>2022-08-24T08:50:51Z</time>
      </trkpt>
      <trkpt lat="43.08802499999946" lon="-1.2487720000000007">
        <ele>1022.014</ele>
        <time>2022-08-24T08:50:52Z</time>
      </trkpt>
      <trkpt lat="43.08801999999946" lon="-1.2487880000000007">
        <ele>1022.209</ele>
        <time>2022-08-24T08:50:53Z</time>
      </trkpt>
      <trkpt lat="43.08801499999946" lon="-1.2488030000000008">
        <ele>1022.256</ele>
        <time>2022-08-24T08:50:54Z</time>
      </trkpt>
      <trkpt lat="43.08800799999946" lon="-1.2488200000000007">
        <ele>1022.436</ele>
        <time>2022-08-24T08:50:55Z</time>
      </trkpt>
      <trkpt lat="43.08799999999946" lon="-1.2488340000000007">
        <ele>1022.426</ele>
        <time>2022-08-24T08:50:56Z</time>
      </trkpt>
      <trkpt lat="43.08799399999946" lon="-1.2488500000000007">
        <ele>1022.472</ele>
        <time>2022-08-24T08:50:57Z</time>
      </trkpt>
      <trkpt lat="43.08798499999946" lon="-1.2488670000000006">
        <ele>1022.644</ele>
        <time>2022-08-24T08:50:58Z</time>
      </trkpt>
      <trkpt lat="43.087975999999465" lon="-1.2488870000000005">
        <ele>1022.641</ele>
        <time>2022-08-24T08:50:59Z</time>
      </trkpt>
      <trkpt lat="43.087969999999466" lon="-1.2489080000000006">
        <ele>1022.864</ele>
        <time>2022-08-24T08:51:00Z</time>
      </trkpt>
      <trkpt lat="43.087961999999465" lon="-1.2489300000000005">
        <ele>1022.898</ele>
        <time>2022-08-24T08:51:01Z</time>
      </trkpt>
      <trkpt lat="43.087952999999466" lon="-1.2489520000000005">
        <ele>1023.067</ele>
        <time>2022-08-24T08:51:02Z</time>
      </trkpt>
      <trkpt lat="43.087944999999465" lon="-1.2489740000000005">
        <ele>1023.253</ele>
        <time>2022-08-24T08:51:03Z</time>
      </trkpt>
      <trkpt lat="43.087935999999466" lon="-1.2489990000000004">
        <ele>1023.404</ele>
        <time>2022-08-24T08:51:04Z</time>
      </trkpt>
      <trkpt lat="43.08792599999946" lon="-1.2490220000000005">
        <ele>1023.614</ele>
        <time>2022-08-24T08:51:05Z</time>
      </trkpt>
      <trkpt lat="43.08791499999946" lon="-1.2490470000000005">
        <ele>1023.809</ele>
        <time>2022-08-24T08:51:06Z</time>
      </trkpt>
      <trkpt lat="43.08790699999946" lon="-1.2490700000000006">
        <ele>1024.276</ele>
        <time>2022-08-24T08:51:07Z</time>
      </trkpt>
      <trkpt lat="43.08789699999946" lon="-1.2490930000000007">
        <ele>1024.426</ele>
        <time>2022-08-24T08:51:08Z</time>
      </trkpt>
      <trkpt lat="43.08788599999946" lon="-1.2491170000000007">
        <ele>1024.446</ele>
        <time>2022-08-24T08:51:09Z</time>
      </trkpt>
      <trkpt lat="43.087877999999456" lon="-1.2491410000000007">
        <ele>1024.632</ele>
        <time>2022-08-24T08:51:10Z</time>
      </trkpt>
      <trkpt lat="43.087869999999455" lon="-1.2491600000000007">
        <ele>1024.894</ele>
        <time>2022-08-24T08:51:11Z</time>
      </trkpt>
      <trkpt lat="43.08786099999946" lon="-1.2491840000000007">
        <ele>1025.231</ele>
        <time>2022-08-24T08:51:12Z</time>
      </trkpt>
      <trkpt lat="43.087852999999456" lon="-1.2492080000000008">
        <ele>1025.494</ele>
        <time>2022-08-24T08:51:13Z</time>
      </trkpt>
      <trkpt lat="43.087844999999454" lon="-1.2492300000000007">
        <ele>1025.638</ele>
        <time>2022-08-24T08:51:14Z</time>
      </trkpt>
      <trkpt lat="43.087835999999456" lon="-1.2492530000000008">
        <ele>1025.837</ele>
        <time>2022-08-24T08:51:15Z</time>
      </trkpt>
      <trkpt lat="43.087832999999456" lon="-1.2492740000000009">
        <ele>1026.061</ele>
        <time>2022-08-24T08:51:16Z</time>
      </trkpt>
      <trkpt lat="43.087824999999455" lon="-1.2492960000000009">
        <ele>1026.021</ele>
        <time>2022-08-24T08:51:17Z</time>
      </trkpt>
      <trkpt lat="43.087813999999454" lon="-1.249317000000001">
        <ele>1026.213</ele>
        <time>2022-08-24T08:51:18Z</time>
      </trkpt>
      <trkpt lat="43.087807999999455" lon="-1.249338000000001">
        <ele>1026.409</ele>
        <time>2022-08-24T08:51:19Z</time>
      </trkpt>
      <trkpt lat="43.087802999999454" lon="-1.249360000000001">
        <ele>1026.447</ele>
        <time>2022-08-24T08:51:20Z</time>
      </trkpt>
      <trkpt lat="43.087796999999455" lon="-1.249383000000001">
        <ele>1026.627</ele>
        <time>2022-08-24T08:51:21Z</time>
      </trkpt>
      <trkpt lat="43.08778999999946" lon="-1.249403000000001">
        <ele>1026.627</ele>
        <time>2022-08-24T08:51:22Z</time>
      </trkpt>
      <trkpt lat="43.08778299999946" lon="-1.249424000000001">
        <ele>1026.863</ele>
        <time>2022-08-24T08:51:23Z</time>
      </trkpt>
      <trkpt lat="43.08777699999946" lon="-1.2494440000000009">
        <ele>1026.885</ele>
        <time>2022-08-24T08:51:24Z</time>
      </trkpt>
      <trkpt lat="43.087769999999466" lon="-1.249465000000001">
        <ele>1027.032</ele>
        <time>2022-08-24T08:51:25Z</time>
      </trkpt>
      <trkpt lat="43.08776299999947" lon="-1.249484000000001">
        <ele>1027.275</ele>
        <time>2022-08-24T08:51:26Z</time>
      </trkpt>
      <trkpt lat="43.08775499999947" lon="-1.249502000000001">
        <ele>1027.229</ele>
        <time>2022-08-24T08:51:27Z</time>
      </trkpt>
      <trkpt lat="43.08774599999947" lon="-1.249518000000001">
        <ele>1027.448</ele>
        <time>2022-08-24T08:51:28Z</time>
      </trkpt>
      <trkpt lat="43.08773799999947" lon="-1.249532000000001">
        <ele>1027.471</ele>
        <time>2022-08-24T08:51:29Z</time>
      </trkpt>
      <trkpt lat="43.08772699999947" lon="-1.249546000000001">
        <ele>1027.441</ele>
        <time>2022-08-24T08:51:30Z</time>
      </trkpt>
      <trkpt lat="43.087716999999465" lon="-1.249559000000001">
        <ele>1027.615</ele>
        <time>2022-08-24T08:51:31Z</time>
      </trkpt>
      <trkpt lat="43.087707999999466" lon="-1.249575000000001">
        <ele>1027.609</ele>
        <time>2022-08-24T08:51:32Z</time>
      </trkpt>
      <trkpt lat="43.08769899999947" lon="-1.249589000000001">
        <ele>1028.098</ele>
        <time>2022-08-24T08:51:33Z</time>
      </trkpt>
      <trkpt lat="43.08769099999947" lon="-1.249603000000001">
        <ele>1027.818</ele>
        <time>2022-08-24T08:51:34Z</time>
      </trkpt>
      <trkpt lat="43.08768399999947" lon="-1.249618000000001">
        <ele>1028.048</ele>
        <time>2022-08-24T08:51:35Z</time>
      </trkpt>
      <trkpt lat="43.08767899999947" lon="-1.249631000000001">
        <ele>1028.224</ele>
        <time>2022-08-24T08:51:36Z</time>
      </trkpt>
      <trkpt lat="43.08767099999947" lon="-1.249648000000001">
        <ele>1028.216</ele>
        <time>2022-08-24T08:51:37Z</time>
      </trkpt>
      <trkpt lat="43.087665999999466" lon="-1.249664000000001">
        <ele>1028.293</ele>
        <time>2022-08-24T08:51:38Z</time>
      </trkpt>
      <trkpt lat="43.08765999999947" lon="-1.249680000000001">
        <ele>1028.496</ele>
        <time>2022-08-24T08:51:39Z</time>
      </trkpt>
      <trkpt lat="43.087654999999465" lon="-1.249699000000001">
        <ele>1028.650</ele>
        <time>2022-08-24T08:51:40Z</time>
      </trkpt>
      <trkpt lat="43.08764799999947" lon="-1.249718000000001">
        <ele>1028.679</ele>
        <time>2022-08-24T08:51:41Z</time>
      </trkpt>
      <trkpt lat="43.08763899999947" lon="-1.249735000000001">
        <ele>1028.838</ele>
        <time>2022-08-24T08:51:42Z</time>
      </trkpt>
      <trkpt lat="43.08762599999947" lon="-1.249750000000001">
        <ele>1029.070</ele>
        <time>2022-08-24T08:51:43Z</time>
      </trkpt>
      <trkpt lat="43.087615999999464" lon="-1.249763000000001">
        <ele>1029.017</ele>
        <time>2022-08-24T08:51:44Z</time>
      </trkpt>
      <trkpt lat="43.08760299999946" lon="-1.249780000000001">
        <ele>1029.209</ele>
        <time>2022-08-24T08:51:45Z</time>
      </trkpt>
      <trkpt lat="43.08759199999946" lon="-1.249798000000001">
        <ele>1029.444</ele>
        <time>2022-08-24T08:51:46Z</time>
      </trkpt>
      <trkpt lat="43.08757999999946" lon="-1.2498130000000012">
        <ele>1029.614</ele>
        <time>2022-08-24T08:51:47Z</time>
      </trkpt>
      <trkpt lat="43.087567999999465" lon="-1.249825000000001">
        <ele>1029.634</ele>
        <time>2022-08-24T08:51:48Z</time>
      </trkpt>
      <trkpt lat="43.087553999999464" lon="-1.249839000000001">
        <ele>1029.630</ele>
        <time>2022-08-24T08:51:49Z</time>
      </trkpt>
      <trkpt lat="43.087541999999466" lon="-1.249852000000001">
        <ele>1029.882</ele>
        <time>2022-08-24T08:51:50Z</time>
      </trkpt>
      <trkpt lat="43.087530999999466" lon="-1.249866000000001">
        <ele>1030.059</ele>
        <time>2022-08-24T08:51:51Z</time>
      </trkpt>
      <trkpt lat="43.08752099999946" lon="-1.249880000000001">
        <ele>1030.232</ele>
        <time>2022-08-24T08:51:52Z</time>
      </trkpt>
      <trkpt lat="43.087508999999464" lon="-1.249895000000001">
        <ele>1030.266</ele>
        <time>2022-08-24T08:51:53Z</time>
      </trkpt>
      <trkpt lat="43.08749599999946" lon="-1.2499080000000011">
        <ele>1030.485</ele>
        <time>2022-08-24T08:51:54Z</time>
      </trkpt>
      <trkpt lat="43.08748399999946" lon="-1.2499160000000011">
        <ele>1030.473</ele>
        <time>2022-08-24T08:51:55Z</time>
      </trkpt>
      <trkpt lat="43.08747099999946" lon="-1.2499260000000012">
        <ele>1030.885</ele>
        <time>2022-08-24T08:51:56Z</time>
      </trkpt>
      <trkpt lat="43.08745699999946" lon="-1.2499370000000012">
        <ele>1031.013</ele>
        <time>2022-08-24T08:51:57Z</time>
      </trkpt>
      <trkpt lat="43.08744399999946" lon="-1.2499480000000012">
        <ele>1031.209</ele>
        <time>2022-08-24T08:51:58Z</time>
      </trkpt>
      <trkpt lat="43.08742999999946" lon="-1.249960000000001">
        <ele>1031.478</ele>
        <time>2022-08-24T08:51:59Z</time>
      </trkpt>
      <trkpt lat="43.08741599999946" lon="-1.249972000000001">
        <ele>1031.678</ele>
        <time>2022-08-24T08:52:00Z</time>
      </trkpt>
      <trkpt lat="43.08740099999946" lon="-1.249982000000001">
        <ele>1031.828</ele>
        <time>2022-08-24T08:52:01Z</time>
      </trkpt>
      <trkpt lat="43.08738599999946" lon="-1.249988000000001">
        <ele>1032.054</ele>
        <time>2022-08-24T08:52:02Z</time>
      </trkpt>
      <trkpt lat="43.08737299999946" lon="-1.249991000000001">
        <ele>1032.446</ele>
        <time>2022-08-24T08:52:03Z</time>
      </trkpt>
      <trkpt lat="43.08736199999946" lon="-1.249996000000001">
        <ele>1032.663</ele>
        <time>2022-08-24T08:52:04Z</time>
      </trkpt>
      <trkpt lat="43.08734799999946" lon="-1.2500000000000009">
        <ele>1032.626</ele>
        <time>2022-08-24T08:52:05Z</time>
      </trkpt>
      <trkpt lat="43.08733699999946" lon="-1.2500060000000008">
        <ele>1032.890</ele>
        <time>2022-08-24T08:52:06Z</time>
      </trkpt>
      <trkpt lat="43.087323999999455" lon="-1.250013000000001">
        <ele>1032.859</ele>
        <time>2022-08-24T08:52:07Z</time>
      </trkpt>
      <trkpt lat="43.087306999999456" lon="-1.250021000000001">
        <ele>1033.052</ele>
        <time>2022-08-24T08:52:08Z</time>
      </trkpt>
      <trkpt lat="43.087292999999455" lon="-1.250023000000001">
        <ele>1033.253</ele>
        <time>2022-08-24T08:52:09Z</time>
      </trkpt>
      <trkpt lat="43.08727999999945" lon="-1.250029000000001">
        <ele>1033.408</ele>
        <time>2022-08-24T08:52:10Z</time>
      </trkpt>
      <trkpt lat="43.08726899999945" lon="-1.250034000000001">
        <ele>1033.609</ele>
        <time>2022-08-24T08:52:11Z</time>
      </trkpt>
      <trkpt lat="43.08725799999945" lon="-1.250040000000001">
        <ele>1033.686</ele>
        <time>2022-08-24T08:52:12Z</time>
      </trkpt>
      <trkpt lat="43.087242999999454" lon="-1.250047000000001">
        <ele>1033.696</ele>
        <time>2022-08-24T08:52:13Z</time>
      </trkpt>
      <trkpt lat="43.08722899999945" lon="-1.250049000000001">
        <ele>1033.846</ele>
        <time>2022-08-24T08:52:14Z</time>
      </trkpt>
      <trkpt lat="43.08721299999945" lon="-1.250050000000001">
        <ele>1033.832</ele>
        <time>2022-08-24T08:52:15Z</time>
      </trkpt>
      <trkpt lat="43.08719599999945" lon="-1.250055000000001">
        <ele>1034.054</ele>
        <time>2022-08-24T08:52:16Z</time>
      </trkpt>
      <trkpt lat="43.087180999999454" lon="-1.250060000000001">
        <ele>1034.251</ele>
        <time>2022-08-24T08:52:17Z</time>
      </trkpt>
      <trkpt lat="43.087165999999456" lon="-1.250064000000001">
        <ele>1034.444</ele>
        <time>2022-08-24T08:52:18Z</time>
      </trkpt>
      <trkpt lat="43.087152999999454" lon="-1.250069000000001">
        <ele>1034.678</ele>
        <time>2022-08-24T08:52:19Z</time>
      </trkpt>
      <trkpt lat="43.087140999999455" lon="-1.2500730000000009">
        <ele>1034.637</ele>
        <time>2022-08-24T08:52:20Z</time>
      </trkpt>
      <trkpt lat="43.08712899999946" lon="-1.2500770000000008">
        <ele>1034.827</ele>
        <time>2022-08-24T08:52:21Z</time>
      </trkpt>
      <trkpt lat="43.08711399999946" lon="-1.2500780000000007">
        <ele>1035.068</ele>
        <time>2022-08-24T08:52:22Z</time>
      </trkpt>
      <trkpt lat="43.08709699999946" lon="-1.2500800000000007">
        <ele>1035.014</ele>
        <time>2022-08-24T08:52:23Z</time>
      </trkpt>
      <trkpt lat="43.08708199999946" lon="-1.2500820000000008">
        <ele>1035.009</ele>
        <time>2022-08-24T08:52:24Z</time>
      </trkpt>
      <trkpt lat="43.08706599999946" lon="-1.2500840000000009">
        <ele>1035.273</ele>
        <time>2022-08-24T08:52:25Z</time>
      </trkpt>
      <trkpt lat="43.08705399999946" lon="-1.2500870000000008">
        <ele>1035.213</ele>
        <time>2022-08-24T08:52:26Z</time>
      </trkpt>
      <trkpt lat="43.087038999999464" lon="-1.2500900000000008">
        <ele>1035.223</ele>
        <time>2022-08-24T08:52:27Z</time>
      </trkpt>
      <trkpt lat="43.087024999999464" lon="-1.2500960000000008">
        <ele>1035.259</ele>
        <time>2022-08-24T08:52:28Z</time>
      </trkpt>
      <trkpt lat="43.087010999999464" lon="-1.2501010000000008">
        <ele>1035.461</ele>
        <time>2022-08-24T08:52:29Z</time>
      </trkpt>
      <trkpt lat="43.08699499999946" lon="-1.2501060000000008">
        <ele>1035.488</ele>
        <time>2022-08-24T08:52:30Z</time>
      </trkpt>
      <trkpt lat="43.086979999999464" lon="-1.2501070000000007">
        <ele>1035.411</ele>
        <time>2022-08-24T08:52:31Z</time>
      </trkpt>
      <trkpt lat="43.08696199999947" lon="-1.2501110000000006">
        <ele>1035.615</ele>
        <time>2022-08-24T08:52:32Z</time>
      </trkpt>
      <trkpt lat="43.086945999999465" lon="-1.2501150000000005">
        <ele>1035.624</ele>
        <time>2022-08-24T08:52:33Z</time>
      </trkpt>
      <trkpt lat="43.086928999999465" lon="-1.2501180000000005">
        <ele>1035.857</ele>
        <time>2022-08-24T08:52:34Z</time>
      </trkpt>
      <trkpt lat="43.08691099999947" lon="-1.2501230000000005">
        <ele>1036.000</ele>
        <time>2022-08-24T08:52:35Z</time>
      </trkpt>
      <trkpt lat="43.08689399999947" lon="-1.2501250000000006">
        <ele>1036.220</ele>
        <time>2022-08-24T08:52:36Z</time>
      </trkpt>
      <trkpt lat="43.08687899999947" lon="-1.2501280000000006">
        <ele>1036.409</ele>
        <time>2022-08-24T08:52:37Z</time>
      </trkpt>
      <trkpt lat="43.08686399999947" lon="-1.2501330000000006">
        <ele>1036.616</ele>
        <time>2022-08-24T08:52:38Z</time>
      </trkpt>
      <trkpt lat="43.08684799999947" lon="-1.2501390000000006">
        <ele>1036.866</ele>
        <time>2022-08-24T08:52:39Z</time>
      </trkpt>
      <trkpt lat="43.08683399999947" lon="-1.2501400000000005">
        <ele>1037.026</ele>
        <time>2022-08-24T08:52:40Z</time>
      </trkpt>
      <trkpt lat="43.08681899999947" lon="-1.2501410000000004">
        <ele>1037.462</ele>
        <time>2022-08-24T08:52:41Z</time>
      </trkpt>
      <trkpt lat="43.086806999999474" lon="-1.2501410000000004">
        <ele>1037.624</ele>
        <time>2022-08-24T08:52:42Z</time>
      </trkpt>
      <trkpt lat="43.086786999999475" lon="-1.2501450000000003">
        <ele>1037.671</ele>
        <time>2022-08-24T08:52:43Z</time>
      </trkpt>
      <trkpt lat="43.086769999999476" lon="-1.2501510000000002">
        <ele>1037.824</ele>
        <time>2022-08-24T08:52:44Z</time>
      </trkpt>
      <trkpt lat="43.08675499999948" lon="-1.2501570000000002">
        <ele>1037.888</ele>
        <time>2022-08-24T08:52:45Z</time>
      </trkpt>
      <trkpt lat="43.086741999999475" lon="-1.2501650000000002">
        <ele>1038.017</ele>
        <time>2022-08-24T08:52:46Z</time>
      </trkpt>
      <trkpt lat="43.08672899999947" lon="-1.2501720000000003">
        <ele>1038.031</ele>
        <time>2022-08-24T08:52:47Z</time>
      </trkpt>
      <trkpt lat="43.08671499999947" lon="-1.2501780000000002">
        <ele>1038.061</ele>
        <time>2022-08-24T08:52:48Z</time>
      </trkpt>
      <trkpt lat="43.086699999999475" lon="-1.2501890000000002">
        <ele>1038.207</ele>
        <time>2022-08-24T08:52:49Z</time>
      </trkpt>
      <trkpt lat="43.08668399999947" lon="-1.2501960000000003">
        <ele>1038.209</ele>
        <time>2022-08-24T08:52:50Z</time>
      </trkpt>
      <trkpt lat="43.08666999999947" lon="-1.2502020000000003">
        <ele>1038.464</ele>
        <time>2022-08-24T08:52:51Z</time>
      </trkpt>
      <trkpt lat="43.08665399999947" lon="-1.2502080000000002">
        <ele>1038.674</ele>
        <time>2022-08-24T08:52:52Z</time>
      </trkpt>
      <trkpt lat="43.08663899999947" lon="-1.2502180000000003">
        <ele>1038.864</ele>
        <time>2022-08-24T08:52:53Z</time>
      </trkpt>
      <trkpt lat="43.08662599999947" lon="-1.2502280000000003">
        <ele>1039.050</ele>
        <time>2022-08-24T08:52:54Z</time>
      </trkpt>
      <trkpt lat="43.08661199999947" lon="-1.2502410000000004">
        <ele>1039.292</ele>
        <time>2022-08-24T08:52:55Z</time>
      </trkpt>
      <trkpt lat="43.08659999999947" lon="-1.2502540000000004">
        <ele>1039.469</ele>
        <time>2022-08-24T08:52:56Z</time>
      </trkpt>
      <trkpt lat="43.08658799999947" lon="-1.2502640000000005">
        <ele>1039.412</ele>
        <time>2022-08-24T08:52:57Z</time>
      </trkpt>
      <trkpt lat="43.086575999999475" lon="-1.2502720000000005">
        <ele>1039.646</ele>
        <time>2022-08-24T08:52:58Z</time>
      </trkpt>
      <trkpt lat="43.08656399999948" lon="-1.2502800000000005">
        <ele>1039.855</ele>
        <time>2022-08-24T08:52:59Z</time>
      </trkpt>
      <trkpt lat="43.086550999999474" lon="-1.2502880000000005">
        <ele>1040.044</ele>
        <time>2022-08-24T08:53:00Z</time>
      </trkpt>
      <trkpt lat="43.086536999999474" lon="-1.2503010000000006">
        <ele>1040.005</ele>
        <time>2022-08-24T08:53:01Z</time>
      </trkpt>
      <trkpt lat="43.08652399999947" lon="-1.2503140000000006">
        <ele>1040.215</ele>
        <time>2022-08-24T08:53:02Z</time>
      </trkpt>
      <trkpt lat="43.08650999999947" lon="-1.2503250000000006">
        <ele>1040.409</ele>
        <time>2022-08-24T08:53:03Z</time>
      </trkpt>
      <trkpt lat="43.08649899999947" lon="-1.2503370000000005">
        <ele>1040.455</ele>
        <time>2022-08-24T08:53:04Z</time>
      </trkpt>
      <trkpt lat="43.08648899999947" lon="-1.2503520000000006">
        <ele>1041.085</ele>
        <time>2022-08-24T08:53:05Z</time>
      </trkpt>
      <trkpt lat="43.08647799999947" lon="-1.2503670000000007">
        <ele>1041.235</ele>
        <time>2022-08-24T08:53:06Z</time>
      </trkpt>
      <trkpt lat="43.08646899999947" lon="-1.2503830000000007">
        <ele>1041.271</ele>
        <time>2022-08-24T08:53:07Z</time>
      </trkpt>
      <trkpt lat="43.086458999999465" lon="-1.2503980000000008">
        <ele>1041.633</ele>
        <time>2022-08-24T08:53:08Z</time>
      </trkpt>
      <trkpt lat="43.08644899999946" lon="-1.2504110000000008">
        <ele>1041.810</ele>
        <time>2022-08-24T08:53:09Z</time>
      </trkpt>
      <trkpt lat="43.08643799999946" lon="-1.2504280000000008">
        <ele>1042.073</ele>
        <time>2022-08-24T08:53:10Z</time>
      </trkpt>
      <trkpt lat="43.08642599999946" lon="-1.2504450000000007">
        <ele>1042.037</ele>
        <time>2022-08-24T08:53:11Z</time>
      </trkpt>
      <trkpt lat="43.086416999999464" lon="-1.2504590000000007">
        <ele>1042.236</ele>
        <time>2022-08-24T08:53:12Z</time>
      </trkpt>
      <trkpt lat="43.08640699999946" lon="-1.2504760000000006">
        <ele>1042.477</ele>
        <time>2022-08-24T08:53:13Z</time>
      </trkpt>
      <trkpt lat="43.08639699999946" lon="-1.2504920000000006">
        <ele>1042.861</ele>
        <time>2022-08-24T08:53:14Z</time>
      </trkpt>
      <trkpt lat="43.086386999999455" lon="-1.2505080000000006">
        <ele>1043.027</ele>
        <time>2022-08-24T08:53:15Z</time>
      </trkpt>
      <trkpt lat="43.08637499999946" lon="-1.2505240000000006">
        <ele>1043.209</ele>
        <time>2022-08-24T08:53:16Z</time>
      </trkpt>
      <trkpt lat="43.08636299999946" lon="-1.2505440000000005">
        <ele>1043.498</ele>
        <time>2022-08-24T08:53:17Z</time>
      </trkpt>
      <trkpt lat="43.08635399999946" lon="-1.2505640000000005">
        <ele>1043.648</ele>
        <time>2022-08-24T08:53:18Z</time>
      </trkpt>
      <trkpt lat="43.08634599999946" lon="-1.2505820000000005">
        <ele>1043.838</ele>
        <time>2022-08-24T08:53:19Z</time>
      </trkpt>
      <trkpt lat="43.08633499999946" lon="-1.2506010000000005">
        <ele>1044.234</ele>
        <time>2022-08-24T08:53:20Z</time>
      </trkpt>
      <trkpt lat="43.08632399999946" lon="-1.2506180000000005">
        <ele>1044.276</ele>
        <time>2022-08-24T08:53:21Z</time>
      </trkpt>
      <trkpt lat="43.08631599999946" lon="-1.2506350000000004">
        <ele>1044.433</ele>
        <time>2022-08-24T08:53:22Z</time>
      </trkpt>
      <trkpt lat="43.08630599999945" lon="-1.2506530000000005">
        <ele>1044.426</ele>
        <time>2022-08-24T08:53:23Z</time>
      </trkpt>
      <trkpt lat="43.08629799999945" lon="-1.2506690000000005">
        <ele>1044.630</ele>
        <time>2022-08-24T08:53:24Z</time>
      </trkpt>
      <trkpt lat="43.08628799999945" lon="-1.2506880000000005">
        <ele>1044.689</ele>
        <time>2022-08-24T08:53:25Z</time>
      </trkpt>
      <trkpt lat="43.08628299999945" lon="-1.2507040000000005">
        <ele>1044.666</ele>
        <time>2022-08-24T08:53:26Z</time>
      </trkpt>
      <trkpt lat="43.08627899999945" lon="-1.2507190000000006">
        <ele>1044.829</ele>
        <time>2022-08-24T08:53:27Z</time>
      </trkpt>
      <trkpt lat="43.08627099999945" lon="-1.2507340000000007">
        <ele>1044.821</ele>
        <time>2022-08-24T08:53:28Z</time>
      </trkpt>
      <trkpt lat="43.08625999999945" lon="-1.2507480000000006">
        <ele>1045.009</ele>
        <time>2022-08-24T08:53:29Z</time>
      </trkpt>
      <trkpt lat="43.08624899999945" lon="-1.2507650000000006">
        <ele>1045.057</ele>
        <time>2022-08-24T08:53:30Z</time>
      </trkpt>
      <trkpt lat="43.086238999999445" lon="-1.2507830000000006">
        <ele>1045.257</ele>
        <time>2022-08-24T08:53:31Z</time>
      </trkpt>
      <trkpt lat="43.086230999999444" lon="-1.2508030000000006">
        <ele>1045.277</ele>
        <time>2022-08-24T08:53:32Z</time>
      </trkpt>
      <trkpt lat="43.08622399999945" lon="-1.2508200000000005">
        <ele>1045.623</ele>
        <time>2022-08-24T08:53:33Z</time>
      </trkpt>
      <trkpt lat="43.08621499999945" lon="-1.2508400000000004">
        <ele>1045.865</ele>
        <time>2022-08-24T08:53:34Z</time>
      </trkpt>
      <trkpt lat="43.08620599999945" lon="-1.2508570000000003">
        <ele>1045.832</ele>
        <time>2022-08-24T08:53:35Z</time>
      </trkpt>
      <trkpt lat="43.08619599999945" lon="-1.2508690000000002">
        <ele>1046.085</ele>
        <time>2022-08-24T08:53:36Z</time>
      </trkpt>
      <trkpt lat="43.086185999999444" lon="-1.2508830000000002">
        <ele>1046.039</ele>
        <time>2022-08-24T08:53:37Z</time>
      </trkpt>
      <trkpt lat="43.08617599999944" lon="-1.2508990000000002">
        <ele>1046.228</ele>
        <time>2022-08-24T08:53:38Z</time>
      </trkpt>
      <trkpt lat="43.08616599999944" lon="-1.2509180000000002">
        <ele>1046.673</ele>
        <time>2022-08-24T08:53:39Z</time>
      </trkpt>
      <trkpt lat="43.08615999999944" lon="-1.2509360000000003">
        <ele>1046.685</ele>
        <time>2022-08-24T08:53:40Z</time>
      </trkpt>
      <trkpt lat="43.08615399999944" lon="-1.2509520000000003">
        <ele>1046.813</ele>
        <time>2022-08-24T08:53:41Z</time>
      </trkpt>
      <trkpt lat="43.086143999999436" lon="-1.2509690000000002">
        <ele>1046.609</ele>
        <time>2022-08-24T08:53:42Z</time>
      </trkpt>
      <trkpt lat="43.08613699999944" lon="-1.2509860000000002">
        <ele>1046.828</ele>
        <time>2022-08-24T08:53:43Z</time>
      </trkpt>
      <trkpt lat="43.08613099999944" lon="-1.2510040000000002">
        <ele>1047.078</ele>
        <time>2022-08-24T08:53:44Z</time>
      </trkpt>
      <trkpt lat="43.08612099999944" lon="-1.2510220000000003">
        <ele>1047.248</ele>
        <time>2022-08-24T08:53:45Z</time>
      </trkpt>
      <trkpt lat="43.08611199999944" lon="-1.2510380000000003">
        <ele>1047.484</ele>
        <time>2022-08-24T08:53:46Z</time>
      </trkpt>
      <trkpt lat="43.08610399999944" lon="-1.2510530000000004">
        <ele>1047.486</ele>
        <time>2022-08-24T08:53:47Z</time>
      </trkpt>
      <trkpt lat="43.086093999999434" lon="-1.2510690000000004">
        <ele>1047.633</ele>
        <time>2022-08-24T08:53:48Z</time>
      </trkpt>
      <trkpt lat="43.08608599999943" lon="-1.2510850000000004">
        <ele>1047.656</ele>
        <time>2022-08-24T08:53:49Z</time>
      </trkpt>
      <trkpt lat="43.08607899999944" lon="-1.2511030000000005">
        <ele>1047.860</ele>
        <time>2022-08-24T08:53:50Z</time>
      </trkpt>
      <trkpt lat="43.08607199999944" lon="-1.2511210000000006">
        <ele>1047.849</ele>
        <time>2022-08-24T08:53:51Z</time>
      </trkpt>
      <trkpt lat="43.08606299999944" lon="-1.2511390000000007">
        <ele>1048.284</ele>
        <time>2022-08-24T08:53:52Z</time>
      </trkpt>
      <trkpt lat="43.08605399999944" lon="-1.2511580000000007">
        <ele>1048.407</ele>
        <time>2022-08-24T08:53:53Z</time>
      </trkpt>
      <trkpt lat="43.086044999999444" lon="-1.2511760000000007">
        <ele>1048.617</ele>
        <time>2022-08-24T08:53:54Z</time>
      </trkpt>
      <trkpt lat="43.086033999999444" lon="-1.2511910000000008">
        <ele>1048.809</ele>
        <time>2022-08-24T08:53:55Z</time>
      </trkpt>
      <trkpt lat="43.08601999999944" lon="-1.2512070000000008">
        <ele>1049.059</ele>
        <time>2022-08-24T08:53:56Z</time>
      </trkpt>
      <trkpt lat="43.08600899999944" lon="-1.2512210000000008">
        <ele>1049.259</ele>
        <time>2022-08-24T08:53:57Z</time>
      </trkpt>
      <trkpt lat="43.085999999999444" lon="-1.251236000000001">
        <ele>1049.469</ele>
        <time>2022-08-24T08:53:58Z</time>
      </trkpt>
      <trkpt lat="43.085993999999445" lon="-1.251251000000001">
        <ele>1049.475</ele>
        <time>2022-08-24T08:53:59Z</time>
      </trkpt>
      <trkpt lat="43.08598699999945" lon="-1.251271000000001">
        <ele>1049.677</ele>
        <time>2022-08-24T08:54:00Z</time>
      </trkpt>
      <trkpt lat="43.08598199999945" lon="-1.251289000000001">
        <ele>1049.854</ele>
        <time>2022-08-24T08:54:01Z</time>
      </trkpt>
      <trkpt lat="43.08597599999945" lon="-1.251306000000001">
        <ele>1049.827</ele>
        <time>2022-08-24T08:54:02Z</time>
      </trkpt>
      <trkpt lat="43.08596999999945" lon="-1.2513230000000009">
        <ele>1050.031</ele>
        <time>2022-08-24T08:54:03Z</time>
      </trkpt>
      <trkpt lat="43.08596099999945" lon="-1.251336000000001">
        <ele>1050.440</ele>
        <time>2022-08-24T08:54:04Z</time>
      </trkpt>
      <trkpt lat="43.08595599999945" lon="-1.2513500000000009">
        <ele>1050.845</ele>
        <time>2022-08-24T08:54:05Z</time>
      </trkpt>
      <trkpt lat="43.08594999999945" lon="-1.2513720000000008">
        <ele>1050.847</ele>
        <time>2022-08-24T08:54:06Z</time>
      </trkpt>
      <trkpt lat="43.08594299999945" lon="-1.2513910000000008">
        <ele>1051.011</ele>
        <time>2022-08-24T08:54:07Z</time>
      </trkpt>
      <trkpt lat="43.085936999999454" lon="-1.2514110000000007">
        <ele>1051.209</ele>
        <time>2022-08-24T08:54:08Z</time>
      </trkpt>
      <trkpt lat="43.085930999999455" lon="-1.2514300000000007">
        <ele>1051.475</ele>
        <time>2022-08-24T08:54:09Z</time>
      </trkpt>
      <trkpt lat="43.08592399999946" lon="-1.2514500000000006">
        <ele>1051.885</ele>
        <time>2022-08-24T08:54:10Z</time>
      </trkpt>
      <trkpt lat="43.08591799999946" lon="-1.2514670000000006">
        <ele>1052.265</ele>
        <time>2022-08-24T08:54:11Z</time>
      </trkpt>
      <trkpt lat="43.08591199999946" lon="-1.2514820000000006">
        <ele>1052.671</ele>
        <time>2022-08-24T08:54:12Z</time>
      </trkpt>
      <trkpt lat="43.08590399999946" lon="-1.2515000000000007">
        <ele>1052.633</ele>
        <time>2022-08-24T08:54:13Z</time>
      </trkpt>
      <trkpt lat="43.08589799999946" lon="-1.2515180000000008">
        <ele>1053.030</ele>
        <time>2022-08-24T08:54:14Z</time>
      </trkpt>
      <trkpt lat="43.085890999999464" lon="-1.2515380000000007">
        <ele>1053.253</ele>
        <time>2022-08-24T08:54:15Z</time>
      </trkpt>
      <trkpt lat="43.085881999999465" lon="-1.2515550000000006">
        <ele>1053.277</ele>
        <time>2022-08-24T08:54:16Z</time>
      </trkpt>
      <trkpt lat="43.08587199999946" lon="-1.2515710000000007">
        <ele>1053.486</ele>
        <time>2022-08-24T08:54:17Z</time>
      </trkpt>
      <trkpt lat="43.08586299999946" lon="-1.2515850000000006">
        <ele>1053.686</ele>
        <time>2022-08-24T08:54:18Z</time>
      </trkpt>
      <trkpt lat="43.08584999999946" lon="-1.2516020000000005">
        <ele>1053.860</ele>
        <time>2022-08-24T08:54:19Z</time>
      </trkpt>
      <trkpt lat="43.08583999999946" lon="-1.2516180000000006">
        <ele>1053.826</ele>
        <time>2022-08-24T08:54:20Z</time>
      </trkpt>
      <trkpt lat="43.085831999999456" lon="-1.2516330000000007">
        <ele>1053.809</ele>
        <time>2022-08-24T08:54:21Z</time>
      </trkpt>
      <trkpt lat="43.085823999999455" lon="-1.2516470000000006">
        <ele>1054.039</ele>
        <time>2022-08-24T08:54:22Z</time>
      </trkpt>
      <trkpt lat="43.085815999999454" lon="-1.2516580000000006">
        <ele>1054.019</ele>
        <time>2022-08-24T08:54:23Z</time>
      </trkpt>
      <trkpt lat="43.08580499999945" lon="-1.2516700000000005">
        <ele>1054.299</ele>
        <time>2022-08-24T08:54:24Z</time>
      </trkpt>
      <trkpt lat="43.085792999999455" lon="-1.2516810000000005">
        <ele>1054.245</ele>
        <time>2022-08-24T08:54:25Z</time>
      </trkpt>
      <trkpt lat="43.08578299999945" lon="-1.2516920000000005">
        <ele>1054.637</ele>
        <time>2022-08-24T08:54:26Z</time>
      </trkpt>
      <trkpt lat="43.08577199999945" lon="-1.2517040000000004">
        <ele>1054.684</ele>
        <time>2022-08-24T08:54:27Z</time>
      </trkpt>
      <trkpt lat="43.085764999999455" lon="-1.2517110000000005">
        <ele>1054.897</ele>
        <time>2022-08-24T08:54:28Z</time>
      </trkpt>
      <trkpt lat="43.085753999999454" lon="-1.2517190000000005">
        <ele>1055.031</ele>
        <time>2022-08-24T08:54:29Z</time>
      </trkpt>
      <trkpt lat="43.085739999999454" lon="-1.2517260000000006">
        <ele>1055.020</ele>
        <time>2022-08-24T08:54:30Z</time>
      </trkpt>
      <trkpt lat="43.085727999999456" lon="-1.2517320000000005">
        <ele>1055.412</ele>
        <time>2022-08-24T08:54:31Z</time>
      </trkpt>
      <trkpt lat="43.085710999999456" lon="-1.2517360000000004">
        <ele>1055.432</ele>
        <time>2022-08-24T08:54:32Z</time>
      </trkpt>
      <trkpt lat="43.08570099999945" lon="-1.2517380000000005">
        <ele>1055.605</ele>
        <time>2022-08-24T08:54:33Z</time>
      </trkpt>
      <trkpt lat="43.08568699999945" lon="-1.2517400000000005">
        <ele>1055.809</ele>
        <time>2022-08-24T08:54:34Z</time>
      </trkpt>
      <trkpt lat="43.08566999999945" lon="-1.2517510000000005">
        <ele>1056.052</ele>
        <time>2022-08-24T08:54:35Z</time>
      </trkpt>
      <trkpt lat="43.08565699999945" lon="-1.2517590000000005">
        <ele>1056.242</ele>
        <time>2022-08-24T08:54:36Z</time>
      </trkpt>
      <trkpt lat="43.08564399999945" lon="-1.2517680000000004">
        <ele>1056.482</ele>
        <time>2022-08-24T08:54:37Z</time>
      </trkpt>
      <trkpt lat="43.08563699999945" lon="-1.2517750000000005">
        <ele>1056.678</ele>
        <time>2022-08-24T08:54:38Z</time>
      </trkpt>
      <trkpt lat="43.08562099999945" lon="-1.2517870000000004">
        <ele>1056.880</ele>
        <time>2022-08-24T08:54:39Z</time>
      </trkpt>
      <trkpt lat="43.08560399999945" lon="-1.2518000000000005">
        <ele>1057.087</ele>
        <time>2022-08-24T08:54:40Z</time>
      </trkpt>
      <trkpt lat="43.08558799999945" lon="-1.2518090000000004">
        <ele>1057.240</ele>
        <time>2022-08-24T08:54:41Z</time>
      </trkpt>
      <trkpt lat="43.085571999999445" lon="-1.2518130000000003">
        <ele>1057.464</ele>
        <time>2022-08-24T08:54:42Z</time>
      </trkpt>
      <trkpt lat="43.08555599999944" lon="-1.2518190000000002">
        <ele>1057.663</ele>
        <time>2022-08-24T08:54:43Z</time>
      </trkpt>
      <trkpt lat="43.08554199999944" lon="-1.2518270000000002">
        <ele>1057.873</ele>
        <time>2022-08-24T08:54:44Z</time>
      </trkpt>
      <trkpt lat="43.085526999999445" lon="-1.2518350000000003">
        <ele>1057.885</ele>
        <time>2022-08-24T08:54:45Z</time>
      </trkpt>
      <trkpt lat="43.08551099999944" lon="-1.2518400000000003">
        <ele>1057.813</ele>
        <time>2022-08-24T08:54:46Z</time>
      </trkpt>
      <trkpt lat="43.08549399999944" lon="-1.2518480000000003">
        <ele>1057.809</ele>
        <time>2022-08-24T08:54:47Z</time>
      </trkpt>
      <trkpt lat="43.085478999999445" lon="-1.2518580000000004">
        <ele>1058.088</ele>
        <time>2022-08-24T08:54:48Z</time>
      </trkpt>
      <trkpt lat="43.08546299999944" lon="-1.2518670000000003">
        <ele>1058.088</ele>
        <time>2022-08-24T08:54:49Z</time>
      </trkpt>
      <trkpt lat="43.08544999999944" lon="-1.2518720000000003">
        <ele>1058.088</ele>
        <time>2022-08-24T08:54:50Z</time>
      </trkpt>
      <trkpt lat="43.08543299999944" lon="-1.2518810000000002">
        <ele>1058.024</ele>
        <time>2022-08-24T08:54:51Z</time>
      </trkpt>
      <trkpt lat="43.08541999999944" lon="-1.2518910000000003">
        <ele>1058.226</ele>
        <time>2022-08-24T08:54:52Z</time>
      </trkpt>
      <trkpt lat="43.08540799999944" lon="-1.2518970000000003">
        <ele>1058.223</ele>
        <time>2022-08-24T08:54:53Z</time>
      </trkpt>
      <trkpt lat="43.08539499999944" lon="-1.2519010000000002">
        <ele>1058.626</ele>
        <time>2022-08-24T08:54:54Z</time>
      </trkpt>
      <trkpt lat="43.085381999999434" lon="-1.251907">
        <ele>1058.620</ele>
        <time>2022-08-24T08:54:55Z</time>
      </trkpt>
      <trkpt lat="43.085361999999435" lon="-1.251921">
        <ele>1058.829</ele>
        <time>2022-08-24T08:54:56Z</time>
      </trkpt>
      <trkpt lat="43.085347999999435" lon="-1.251934">
        <ele>1059.075</ele>
        <time>2022-08-24T08:54:57Z</time>
      </trkpt>
      <trkpt lat="43.08533299999944" lon="-1.2519440000000002">
        <ele>1059.028</ele>
        <time>2022-08-24T08:54:58Z</time>
      </trkpt>
      <trkpt lat="43.08531799999944" lon="-1.2519520000000002">
        <ele>1059.220</ele>
        <time>2022-08-24T08:54:59Z</time>
      </trkpt>
      <trkpt lat="43.08530699999944" lon="-1.2519580000000001">
        <ele>1059.209</ele>
        <time>2022-08-24T08:55:00Z</time>
      </trkpt>
      <trkpt lat="43.08528999999944" lon="-1.2519680000000002">
        <ele>1059.468</ele>
        <time>2022-08-24T08:55:01Z</time>
      </trkpt>
      <trkpt lat="43.08527399999944" lon="-1.2519770000000001">
        <ele>1059.688</ele>
        <time>2022-08-24T08:55:02Z</time>
      </trkpt>
      <trkpt lat="43.08525699999944" lon="-1.2519850000000001">
        <ele>1059.668</ele>
        <time>2022-08-24T08:55:03Z</time>
      </trkpt>
      <trkpt lat="43.08524199999944" lon="-1.251991">
        <ele>1059.854</ele>
        <time>2022-08-24T08:55:04Z</time>
      </trkpt>
      <trkpt lat="43.08522899999944" lon="-1.251997">
        <ele>1059.836</ele>
        <time>2022-08-24T08:55:05Z</time>
      </trkpt>
      <trkpt lat="43.08521099999944" lon="-1.252005">
        <ele>1059.853</ele>
        <time>2022-08-24T08:55:06Z</time>
      </trkpt>
      <trkpt lat="43.08519499999944" lon="-1.252013">
        <ele>1060.096</ele>
        <time>2022-08-24T08:55:07Z</time>
      </trkpt>
      <trkpt lat="43.08518099999944" lon="-1.252021">
        <ele>1060.460</ele>
        <time>2022-08-24T08:55:08Z</time>
      </trkpt>
      <trkpt lat="43.085167999999435" lon="-1.252027">
        <ele>1060.649</ele>
        <time>2022-08-24T08:55:09Z</time>
      </trkpt>
      <trkpt lat="43.08515199999943" lon="-1.252034">
        <ele>1060.858</ele>
        <time>2022-08-24T08:55:10Z</time>
      </trkpt>
      <trkpt lat="43.08513299999943" lon="-1.2520410000000002">
        <ele>1061.252</ele>
        <time>2022-08-24T08:55:11Z</time>
      </trkpt>
      <trkpt lat="43.08511699999943" lon="-1.2520490000000002">
        <ele>1061.217</ele>
        <time>2022-08-24T08:55:12Z</time>
      </trkpt>
      <trkpt lat="43.08509699999943" lon="-1.2520560000000003">
        <ele>1061.409</ele>
        <time>2022-08-24T08:55:13Z</time>
      </trkpt>
      <trkpt lat="43.08508099999943" lon="-1.2520610000000003">
        <ele>1061.876</ele>
        <time>2022-08-24T08:55:14Z</time>
      </trkpt>
      <trkpt lat="43.085061999999425" lon="-1.2520660000000003">
        <ele>1061.816</ele>
        <time>2022-08-24T08:55:15Z</time>
      </trkpt>
      <trkpt lat="43.08504099999943" lon="-1.2520730000000004">
        <ele>1062.036</ele>
        <time>2022-08-24T08:55:16Z</time>
      </trkpt>
      <trkpt lat="43.08502399999943" lon="-1.2520810000000004">
        <ele>1062.062</ele>
        <time>2022-08-24T08:55:17Z</time>
      </trkpt>
      <trkpt lat="43.08500499999943" lon="-1.2520890000000005">
        <ele>1062.264</ele>
        <time>2022-08-24T08:55:18Z</time>
      </trkpt>
      <trkpt lat="43.08498999999943" lon="-1.2520940000000005">
        <ele>1062.241</ele>
        <time>2022-08-24T08:55:19Z</time>
      </trkpt>
      <trkpt lat="43.08497099999943" lon="-1.2521010000000006">
        <ele>1062.254</ele>
        <time>2022-08-24T08:55:20Z</time>
      </trkpt>
      <trkpt lat="43.08495099999943" lon="-1.2521060000000006">
        <ele>1062.468</ele>
        <time>2022-08-24T08:55:21Z</time>
      </trkpt>
      <trkpt lat="43.08492499999943" lon="-1.2521130000000007">
        <ele>1062.447</ele>
        <time>2022-08-24T08:55:22Z</time>
      </trkpt>
      <trkpt lat="43.08490299999943" lon="-1.2521190000000006">
        <ele>1062.495</ele>
        <time>2022-08-24T08:55:23Z</time>
      </trkpt>
      <trkpt lat="43.08487999999943" lon="-1.2521240000000007">
        <ele>1062.449</ele>
        <time>2022-08-24T08:55:24Z</time>
      </trkpt>
      <trkpt lat="43.08486099999943" lon="-1.2521290000000007">
        <ele>1062.423</ele>
        <time>2022-08-24T08:55:25Z</time>
      </trkpt>
      <trkpt lat="43.08483799999943" lon="-1.2521350000000007">
        <ele>1062.409</ele>
        <time>2022-08-24T08:55:26Z</time>
      </trkpt>
      <trkpt lat="43.08480899999943" lon="-1.2521420000000008">
        <ele>1062.460</ele>
        <time>2022-08-24T08:55:27Z</time>
      </trkpt>
      <trkpt lat="43.08478699999943" lon="-1.2521480000000007">
        <ele>1062.680</ele>
        <time>2022-08-24T08:55:28Z</time>
      </trkpt>
      <trkpt lat="43.08476299999943" lon="-1.2521540000000007">
        <ele>1062.630</ele>
        <time>2022-08-24T08:55:29Z</time>
      </trkpt>
      <trkpt lat="43.08474299999943" lon="-1.2521590000000007">
        <ele>1062.666</ele>
        <time>2022-08-24T08:55:30Z</time>
      </trkpt>
      <trkpt lat="43.08471799999943" lon="-1.2521620000000007">
        <ele>1062.678</ele>
        <time>2022-08-24T08:55:31Z</time>
      </trkpt>
      <trkpt lat="43.084684999999425" lon="-1.2521640000000007">
        <ele>1062.855</ele>
        <time>2022-08-24T08:55:32Z</time>
      </trkpt>
      <trkpt lat="43.08465799999942" lon="-1.2521640000000007">
        <ele>1063.068</ele>
        <time>2022-08-24T08:55:33Z</time>
      </trkpt>
      <trkpt lat="43.08463299999942" lon="-1.2521650000000006">
        <ele>1063.022</ele>
        <time>2022-08-24T08:55:34Z</time>
      </trkpt>
      <trkpt lat="43.08461299999942" lon="-1.2521670000000007">
        <ele>1063.071</ele>
        <time>2022-08-24T08:55:35Z</time>
      </trkpt>
      <trkpt lat="43.08455499999942" lon="-1.2521640000000007">
        <ele>1063.266</ele>
        <time>2022-08-24T08:55:37Z</time>
      </trkpt>
      <trkpt lat="43.08450299999942" lon="-1.2521620000000007">
        <ele>1063.429</ele>
        <time>2022-08-24T08:55:39Z</time>
      </trkpt>
      <trkpt lat="43.084397999999425" lon="-1.2521490000000006">
        <ele>1063.621</ele>
        <time>2022-08-24T08:55:43Z</time>
      </trkpt>
      <trkpt lat="43.08437399999942" lon="-1.2521440000000006">
        <ele>1063.609</ele>
        <time>2022-08-24T08:55:44Z</time>
      </trkpt>
      <trkpt lat="43.08435199999942" lon="-1.2521420000000005">
        <ele>1063.657</ele>
        <time>2022-08-24T08:55:45Z</time>
      </trkpt>
      <trkpt lat="43.08410699999942" lon="-1.2521110000000006">
        <ele>1063.447</ele>
        <time>2022-08-24T08:55:53Z</time>
      </trkpt>
      <trkpt lat="43.08407699999942" lon="-1.2521020000000007">
        <ele>1063.257</ele>
        <time>2022-08-24T08:55:54Z</time>
      </trkpt>
      <trkpt lat="43.08401499999942" lon="-1.2520970000000007">
        <ele>1063.253</ele>
        <time>2022-08-24T08:55:56Z</time>
      </trkpt>
      <trkpt lat="43.083925999999416" lon="-1.2520750000000007">
        <ele>1063.065</ele>
        <time>2022-08-24T08:55:59Z</time>
      </trkpt>
      <trkpt lat="43.08389699999942" lon="-1.2520640000000007">
        <ele>1063.042</ele>
        <time>2022-08-24T08:56:00Z</time>
      </trkpt>
      <trkpt lat="43.08386799999942" lon="-1.2520550000000008">
        <ele>1062.825</ele>
        <time>2022-08-24T08:56:01Z</time>
      </trkpt>
      <trkpt lat="43.08383999999942" lon="-1.2520460000000009">
        <ele>1062.849</ele>
        <time>2022-08-24T08:56:02Z</time>
      </trkpt>
      <trkpt lat="43.08381299999942" lon="-1.252037000000001">
        <ele>1062.828</ele>
        <time>2022-08-24T08:56:03Z</time>
      </trkpt>
      <trkpt lat="43.083785999999414" lon="-1.252028000000001">
        <ele>1062.832</ele>
        <time>2022-08-24T08:56:04Z</time>
      </trkpt>
      <trkpt lat="43.08375899999941" lon="-1.252020000000001">
        <ele>1062.892</ele>
        <time>2022-08-24T08:56:05Z</time>
      </trkpt>
      <trkpt lat="43.08373099999941" lon="-1.252013000000001">
        <ele>1062.811</ele>
        <time>2022-08-24T08:56:06Z</time>
      </trkpt>
      <trkpt lat="43.08364899999941" lon="-1.251994000000001">
        <ele>1062.809</ele>
        <time>2022-08-24T08:56:09Z</time>
      </trkpt>
      <trkpt lat="43.08362299999941" lon="-1.251985000000001">
        <ele>1063.014</ele>
        <time>2022-08-24T08:56:10Z</time>
      </trkpt>
      <trkpt lat="43.08359599999941" lon="-1.251978000000001">
        <ele>1063.044</ele>
        <time>2022-08-24T08:56:11Z</time>
      </trkpt>
      <trkpt lat="43.08356799999941" lon="-1.251975000000001">
        <ele>1063.044</ele>
        <time>2022-08-24T08:56:12Z</time>
      </trkpt>
      <trkpt lat="43.08354099999941" lon="-1.251970000000001">
        <ele>1063.070</ele>
        <time>2022-08-24T08:56:13Z</time>
      </trkpt>
      <trkpt lat="43.08351499999941" lon="-1.2519650000000009">
        <ele>1063.052</ele>
        <time>2022-08-24T08:56:14Z</time>
      </trkpt>
      <trkpt lat="43.08340799999941" lon="-1.2519410000000009">
        <ele>1063.069</ele>
        <time>2022-08-24T08:56:18Z</time>
      </trkpt>
      <trkpt lat="43.08337999999941" lon="-1.251935000000001">
        <ele>1063.022</ele>
        <time>2022-08-24T08:56:19Z</time>
      </trkpt>
      <trkpt lat="43.083352999999406" lon="-1.2519330000000009">
        <ele>1063.066</ele>
        <time>2022-08-24T08:56:20Z</time>
      </trkpt>
      <trkpt lat="43.083217999999405" lon="-1.251927000000001">
        <ele>1063.265</ele>
        <time>2022-08-24T08:56:25Z</time>
      </trkpt>
      <trkpt lat="43.0831909999994" lon="-1.251929000000001">
        <ele>1063.424</ele>
        <time>2022-08-24T08:56:26Z</time>
      </trkpt>
      <trkpt lat="43.0830529999994" lon="-1.251942000000001">
        <ele>1063.604</ele>
        <time>2022-08-24T08:56:31Z</time>
      </trkpt>
      <trkpt lat="43.083026999999404" lon="-1.251942000000001">
        <ele>1063.614</ele>
        <time>2022-08-24T08:56:32Z</time>
      </trkpt>
      <trkpt lat="43.08300599999941" lon="-1.251943000000001">
        <ele>1063.609</ele>
        <time>2022-08-24T08:56:33Z</time>
      </trkpt>
      <trkpt lat="43.082975999999405" lon="-1.251945000000001">
        <ele>1063.873</ele>
        <time>2022-08-24T08:56:34Z</time>
      </trkpt>
      <trkpt lat="43.08294999999941" lon="-1.251946000000001">
        <ele>1063.833</ele>
        <time>2022-08-24T08:56:35Z</time>
      </trkpt>
      <trkpt lat="43.08289899999941" lon="-1.2519580000000008">
        <ele>1063.883</ele>
        <time>2022-08-24T08:56:37Z</time>
      </trkpt>
      <trkpt lat="43.08287299999941" lon="-1.2519620000000007">
        <ele>1064.019</ele>
        <time>2022-08-24T08:56:38Z</time>
      </trkpt>
      <trkpt lat="43.08282099999941" lon="-1.2519710000000006">
        <ele>1064.061</ele>
        <time>2022-08-24T08:56:40Z</time>
      </trkpt>
      <trkpt lat="43.08279699999941" lon="-1.2519740000000006">
        <ele>1064.258</ele>
        <time>2022-08-24T08:56:41Z</time>
      </trkpt>
      <trkpt lat="43.08272299999941" lon="-1.2519810000000007">
        <ele>1064.481</ele>
        <time>2022-08-24T08:56:44Z</time>
      </trkpt>
      <trkpt lat="43.08269699999941" lon="-1.2519850000000006">
        <ele>1064.475</ele>
        <time>2022-08-24T08:56:45Z</time>
      </trkpt>
      <trkpt lat="43.082673999999415" lon="-1.2519860000000005">
        <ele>1064.624</ele>
        <time>2022-08-24T08:56:46Z</time>
      </trkpt>
      <trkpt lat="43.08264999999941" lon="-1.2519870000000004">
        <ele>1064.687</ele>
        <time>2022-08-24T08:56:47Z</time>
      </trkpt>
      <trkpt lat="43.082600999999414" lon="-1.2519900000000004">
        <ele>1064.842</ele>
        <time>2022-08-24T08:56:49Z</time>
      </trkpt>
      <trkpt lat="43.08252299999941" lon="-1.2519940000000003">
        <ele>1065.026</ele>
        <time>2022-08-24T08:56:52Z</time>
      </trkpt>
      <trkpt lat="43.08231799999941" lon="-1.2519690000000003">
        <ele>1065.809</ele>
        <time>2022-08-24T08:57:00Z</time>
      </trkpt>
      <trkpt lat="43.08228999999941" lon="-1.2519680000000004">
        <ele>1065.669</ele>
        <time>2022-08-24T08:57:01Z</time>
      </trkpt>
      <trkpt lat="43.08226299999941" lon="-1.2519680000000004">
        <ele>1065.819</ele>
        <time>2022-08-24T08:57:02Z</time>
      </trkpt>
      <trkpt lat="43.08223699999941" lon="-1.2519680000000004">
        <ele>1065.829</ele>
        <time>2022-08-24T08:57:03Z</time>
      </trkpt>
      <trkpt lat="43.08221199999941" lon="-1.2519680000000004">
        <ele>1066.045</ele>
        <time>2022-08-24T08:57:04Z</time>
      </trkpt>
      <trkpt lat="43.08218599999941" lon="-1.2519650000000004">
        <ele>1066.027</ele>
        <time>2022-08-24T08:57:05Z</time>
      </trkpt>
      <trkpt lat="43.08213499999941" lon="-1.2519580000000003">
        <ele>1066.274</ele>
        <time>2022-08-24T08:57:07Z</time>
      </trkpt>
      <trkpt lat="43.08208099999941" lon="-1.2519590000000003">
        <ele>1066.227</ele>
        <time>2022-08-24T08:57:09Z</time>
      </trkpt>
      <trkpt lat="43.08199399999941" lon="-1.2519610000000003">
        <ele>1066.431</ele>
        <time>2022-08-24T08:57:12Z</time>
      </trkpt>
      <trkpt lat="43.08193899999941" lon="-1.2519540000000002">
        <ele>1066.450</ele>
        <time>2022-08-24T08:57:14Z</time>
      </trkpt>
      <trkpt lat="43.08185699999941" lon="-1.2519560000000003">
        <ele>1066.642</ele>
        <time>2022-08-24T08:57:17Z</time>
      </trkpt>
      <trkpt lat="43.081832999999406" lon="-1.2519560000000003">
        <ele>1066.622</ele>
        <time>2022-08-24T08:57:18Z</time>
      </trkpt>
      <trkpt lat="43.0818089999994" lon="-1.2519550000000004">
        <ele>1066.614</ele>
        <time>2022-08-24T08:57:19Z</time>
      </trkpt>
      <trkpt lat="43.081782999999405" lon="-1.2519550000000004">
        <ele>1066.809</ele>
        <time>2022-08-24T08:57:20Z</time>
      </trkpt>
      <trkpt lat="43.081756999999406" lon="-1.2519560000000003">
        <ele>1066.845</ele>
        <time>2022-08-24T08:57:21Z</time>
      </trkpt>
      <trkpt lat="43.081737999999405" lon="-1.2519550000000004">
        <ele>1067.035</ele>
        <time>2022-08-24T08:57:22Z</time>
      </trkpt>
      <trkpt lat="43.0816879999994" lon="-1.2519460000000004">
        <ele>1067.015</ele>
        <time>2022-08-24T08:57:24Z</time>
      </trkpt>
      <trkpt lat="43.0816379999994" lon="-1.2519440000000004">
        <ele>1067.011</ele>
        <time>2022-08-24T08:57:26Z</time>
      </trkpt>
      <trkpt lat="43.0816119999994" lon="-1.2519450000000003">
        <ele>1067.023</ele>
        <time>2022-08-24T08:57:27Z</time>
      </trkpt>
      <trkpt lat="43.0815949999994" lon="-1.2519480000000003">
        <ele>1067.050</ele>
        <time>2022-08-24T08:57:28Z</time>
      </trkpt>
      <trkpt lat="43.081574999999404" lon="-1.2519480000000003">
        <ele>1066.873</ele>
        <time>2022-08-24T08:57:29Z</time>
      </trkpt>
      <trkpt lat="43.081554999999405" lon="-1.2519450000000003">
        <ele>1066.667</ele>
        <time>2022-08-24T08:57:30Z</time>
      </trkpt>
      <trkpt lat="43.0815359999994" lon="-1.2519390000000004">
        <ele>1066.656</ele>
        <time>2022-08-24T08:57:31Z</time>
      </trkpt>
      <trkpt lat="43.081515999999404" lon="-1.2519300000000004">
        <ele>1066.442</ele>
        <time>2022-08-24T08:57:32Z</time>
      </trkpt>
      <trkpt lat="43.081498999999404" lon="-1.2519240000000005">
        <ele>1066.422</ele>
        <time>2022-08-24T08:57:33Z</time>
      </trkpt>
      <trkpt lat="43.08148099999941" lon="-1.2519210000000005">
        <ele>1066.414</ele>
        <time>2022-08-24T08:57:34Z</time>
      </trkpt>
      <trkpt lat="43.08141799999941" lon="-1.2519160000000005">
        <ele>1066.209</ele>
        <time>2022-08-24T08:57:37Z</time>
      </trkpt>
      <trkpt lat="43.08139899999941" lon="-1.2519250000000004">
        <ele>1066.275</ele>
        <time>2022-08-24T08:57:38Z</time>
      </trkpt>
      <trkpt lat="43.08138099999941" lon="-1.2519360000000004">
        <ele>1066.295</ele>
        <time>2022-08-24T08:57:39Z</time>
      </trkpt>
      <trkpt lat="43.08136799999941" lon="-1.2519360000000004">
        <ele>1066.275</ele>
        <time>2022-08-24T08:57:40Z</time>
      </trkpt>
      <trkpt lat="43.08130499999941" lon="-1.2519260000000003">
        <ele>1066.631</ele>
        <time>2022-08-24T08:57:43Z</time>
      </trkpt>
      <trkpt lat="43.08129299999941" lon="-1.2519210000000003">
        <ele>1066.663</ele>
        <time>2022-08-24T08:57:44Z</time>
      </trkpt>
      <trkpt lat="43.08127699999941" lon="-1.2519140000000002">
        <ele>1066.830</ele>
        <time>2022-08-24T08:57:45Z</time>
      </trkpt>
      <trkpt lat="43.08125899999941" lon="-1.2519080000000002">
        <ele>1067.053</ele>
        <time>2022-08-24T08:57:46Z</time>
      </trkpt>
      <trkpt lat="43.081246999999415" lon="-1.2519060000000002">
        <ele>1067.087</ele>
        <time>2022-08-24T08:57:47Z</time>
      </trkpt>
      <trkpt lat="43.081229999999415" lon="-1.251907">
        <ele>1067.096</ele>
        <time>2022-08-24T08:57:48Z</time>
      </trkpt>
      <trkpt lat="43.081173999999415" lon="-1.251902">
        <ele>1067.098</ele>
        <time>2022-08-24T08:57:51Z</time>
      </trkpt>
      <trkpt lat="43.08115599999942" lon="-1.251899">
        <ele>1067.215</ele>
        <time>2022-08-24T08:57:52Z</time>
      </trkpt>
      <trkpt lat="43.08113499999942" lon="-1.2518980000000002">
        <ele>1067.226</ele>
        <time>2022-08-24T08:57:53Z</time>
      </trkpt>
      <trkpt lat="43.08111499999942" lon="-1.2519030000000002">
        <ele>1067.409</ele>
        <time>2022-08-24T08:57:54Z</time>
      </trkpt>
      <trkpt lat="43.08110199999942" lon="-1.2519040000000001">
        <ele>1067.620</ele>
        <time>2022-08-24T08:57:55Z</time>
      </trkpt>
      <trkpt lat="43.08108699999942" lon="-1.251902">
        <ele>1067.670</ele>
        <time>2022-08-24T08:57:56Z</time>
      </trkpt>
      <trkpt lat="43.081051999999424" lon="-1.2518930000000001">
        <ele>1068.450</ele>
        <time>2022-08-24T08:57:58Z</time>
      </trkpt>
      <trkpt lat="43.081037999999424" lon="-1.251891">
        <ele>1068.676</ele>
        <time>2022-08-24T08:57:59Z</time>
      </trkpt>
      <trkpt lat="43.08099399999942" lon="-1.251878">
        <ele>1069.048</ele>
        <time>2022-08-24T08:58:02Z</time>
      </trkpt>
      <trkpt lat="43.080975999999424" lon="-1.2518770000000001">
        <ele>1069.015</ele>
        <time>2022-08-24T08:58:03Z</time>
      </trkpt>
      <trkpt lat="43.080949999999426" lon="-1.2518770000000001">
        <ele>1069.088</ele>
        <time>2022-08-24T08:58:05Z</time>
      </trkpt>
      <trkpt lat="43.08094099999943" lon="-1.2518760000000002">
        <ele>1069.052</ele>
        <time>2022-08-24T08:58:06Z</time>
      </trkpt>
      <trkpt lat="43.080930999999424" lon="-1.2518750000000003">
        <ele>1069.061</ele>
        <time>2022-08-24T08:58:07Z</time>
      </trkpt>
      <trkpt lat="43.08091999999942" lon="-1.2518730000000002">
        <ele>1069.031</ele>
        <time>2022-08-24T08:58:08Z</time>
      </trkpt>
      <trkpt lat="43.080901999999426" lon="-1.2518680000000002">
        <ele>1069.061</ele>
        <time>2022-08-24T08:58:09Z</time>
      </trkpt>
      <trkpt lat="43.080888999999424" lon="-1.2518680000000002">
        <ele>1069.007</ele>
        <time>2022-08-24T08:58:10Z</time>
      </trkpt>
      <trkpt lat="43.08087799999942" lon="-1.2518730000000002">
        <ele>1069.009</ele>
        <time>2022-08-24T08:58:11Z</time>
      </trkpt>
      <trkpt lat="43.08086499999942" lon="-1.2518770000000001">
        <ele>1069.044</ele>
        <time>2022-08-24T08:58:12Z</time>
      </trkpt>
      <trkpt lat="43.08085199999942" lon="-1.2518820000000002">
        <ele>1069.244</ele>
        <time>2022-08-24T08:58:13Z</time>
      </trkpt>
      <trkpt lat="43.08084299999942" lon="-1.251886">
        <ele>1069.424</ele>
        <time>2022-08-24T08:58:14Z</time>
      </trkpt>
      <trkpt lat="43.08097399999942" lon="-1.251946">
        <ele>1067.860</ele>
        <time>2022-08-24T09:08:07Z</time>
      </trkpt>
      <trkpt lat="43.08100299999942" lon="-1.251965">
        <ele>1067.882</ele>
        <time>2022-08-24T09:08:08Z</time>
      </trkpt>
      <trkpt lat="43.08100299999942" lon="-1.251965">
        <ele>1067.889</ele>
        <time>2022-08-24T09:08:09Z</time>
      </trkpt>
      <trkpt lat="43.08102899999942" lon="-1.251987">
        <ele>1067.662</ele>
        <time>2022-08-24T09:08:10Z</time>
      </trkpt>
      <trkpt lat="43.08107899999942" lon="-1.252025">
        <ele>1067.436</ele>
        <time>2022-08-24T09:08:11Z</time>
      </trkpt>
      <trkpt lat="43.08110199999942" lon="-1.2520419999999999">
        <ele>1067.275</ele>
        <time>2022-08-24T09:08:12Z</time>
      </trkpt>
      <trkpt lat="43.08112899999942" lon="-1.2520559999999998">
        <ele>1067.055</ele>
        <time>2022-08-24T09:08:13Z</time>
      </trkpt>
      <trkpt lat="43.08115999999942" lon="-1.2520759999999997">
        <ele>1066.807</ele>
        <time>2022-08-24T09:08:14Z</time>
      </trkpt>
      <trkpt lat="43.081259999999425" lon="-1.2521589999999998">
        <ele>1066.217</ele>
        <time>2022-08-24T09:08:17Z</time>
      </trkpt>
      <trkpt lat="43.081270999999425" lon="-1.2522029999999997">
        <ele>1066.209</ele>
        <time>2022-08-24T09:08:18Z</time>
      </trkpt>
      <trkpt lat="43.081270999999425" lon="-1.2522029999999997">
        <ele>1066.216</ele>
        <time>2022-08-24T09:08:19Z</time>
      </trkpt>
      <trkpt lat="43.08125499999942" lon="-1.2522839999999997">
        <ele>1066.226</ele>
        <time>2022-08-24T09:08:20Z</time>
      </trkpt>
      <trkpt lat="43.081250999999426" lon="-1.2523199999999997">
        <ele>1066.246</ele>
        <time>2022-08-24T09:08:21Z</time>
      </trkpt>
      <trkpt lat="43.08124799999943" lon="-1.2523529999999996">
        <ele>1066.252</ele>
        <time>2022-08-24T09:08:22Z</time>
      </trkpt>
      <trkpt lat="43.081242999999425" lon="-1.2523839999999995">
        <ele>1066.284</ele>
        <time>2022-08-24T09:08:23Z</time>
      </trkpt>
      <trkpt lat="43.08123799999942" lon="-1.2524169999999994">
        <ele>1066.221</ele>
        <time>2022-08-24T09:08:24Z</time>
      </trkpt>
      <trkpt lat="43.081225999999425" lon="-1.2525179999999994">
        <ele>1067.074</ele>
        <time>2022-08-24T09:08:27Z</time>
      </trkpt>
      <trkpt lat="43.081222999999426" lon="-1.2525499999999994">
        <ele>1067.278</ele>
        <time>2022-08-24T09:08:28Z</time>
      </trkpt>
      <trkpt lat="43.08121899999943" lon="-1.2525789999999994">
        <ele>1067.667</ele>
        <time>2022-08-24T09:08:29Z</time>
      </trkpt>
      <trkpt lat="43.08121399999943" lon="-1.2526089999999994">
        <ele>1068.064</ele>
        <time>2022-08-24T09:08:30Z</time>
      </trkpt>
      <trkpt lat="43.08120999999943" lon="-1.2526359999999994">
        <ele>1068.006</ele>
        <time>2022-08-24T09:08:31Z</time>
      </trkpt>
      <trkpt lat="43.08120599999943" lon="-1.2526619999999995">
        <ele>1068.416</ele>
        <time>2022-08-24T09:08:32Z</time>
      </trkpt>
      <trkpt lat="43.08120599999943" lon="-1.2526619999999995">
        <ele>1068.409</ele>
        <time>2022-08-24T09:08:33Z</time>
      </trkpt>
      <trkpt lat="43.08119799999943" lon="-1.2527109999999995">
        <ele>1068.817</ele>
        <time>2022-08-24T09:08:34Z</time>
      </trkpt>
      <trkpt lat="43.08119299999943" lon="-1.2527379999999995">
        <ele>1068.847</ele>
        <time>2022-08-24T09:08:35Z</time>
      </trkpt>
      <trkpt lat="43.08118799999943" lon="-1.2527649999999995">
        <ele>1069.047</ele>
        <time>2022-08-24T09:08:36Z</time>
      </trkpt>
      <trkpt lat="43.08118699999943" lon="-1.2527889999999995">
        <ele>1069.253</ele>
        <time>2022-08-24T09:08:37Z</time>
      </trkpt>
      <trkpt lat="43.08118499999943" lon="-1.2528139999999994">
        <ele>1069.415</ele>
        <time>2022-08-24T09:08:38Z</time>
      </trkpt>
      <trkpt lat="43.08117699999943" lon="-1.2528629999999994">
        <ele>1069.672</ele>
        <time>2022-08-24T09:08:40Z</time>
      </trkpt>
      <trkpt lat="43.081166999999425" lon="-1.2529179999999993">
        <ele>1069.665</ele>
        <time>2022-08-24T09:08:42Z</time>
      </trkpt>
      <trkpt lat="43.08115999999943" lon="-1.2529459999999992">
        <ele>1069.859</ele>
        <time>2022-08-24T09:08:43Z</time>
      </trkpt>
      <trkpt lat="43.08115499999943" lon="-1.2529709999999992">
        <ele>1070.248</ele>
        <time>2022-08-24T09:08:44Z</time>
      </trkpt>
      <trkpt lat="43.081149999999425" lon="-1.252995999999999">
        <ele>1070.261</ele>
        <time>2022-08-24T09:08:45Z</time>
      </trkpt>
      <trkpt lat="43.08114299999943" lon="-1.253020999999999">
        <ele>1070.421</ele>
        <time>2022-08-24T09:08:46Z</time>
      </trkpt>
      <trkpt lat="43.08114299999943" lon="-1.253020999999999">
        <ele>1070.613</ele>
        <time>2022-08-24T09:08:47Z</time>
      </trkpt>
      <trkpt lat="43.08112699999943" lon="-1.2530709999999992">
        <ele>1070.609</ele>
        <time>2022-08-24T09:08:48Z</time>
      </trkpt>
      <trkpt lat="43.08112099999943" lon="-1.2530939999999993">
        <ele>1070.877</ele>
        <time>2022-08-24T09:08:49Z</time>
      </trkpt>
      <trkpt lat="43.08111499999943" lon="-1.2531189999999992">
        <ele>1070.887</ele>
        <time>2022-08-24T09:08:50Z</time>
      </trkpt>
      <trkpt lat="43.08110999999943" lon="-1.2531429999999992">
        <ele>1071.037</ele>
        <time>2022-08-24T09:08:51Z</time>
      </trkpt>
      <trkpt lat="43.08110099999943" lon="-1.2531659999999993">
        <ele>1071.013</ele>
        <time>2022-08-24T09:08:52Z</time>
      </trkpt>
      <trkpt lat="43.08109299999943" lon="-1.2531879999999993">
        <ele>1071.235</ele>
        <time>2022-08-24T09:08:53Z</time>
      </trkpt>
      <trkpt lat="43.08108399999943" lon="-1.2532089999999994">
        <ele>1071.432</ele>
        <time>2022-08-24T09:08:54Z</time>
      </trkpt>
      <trkpt lat="43.081073999999425" lon="-1.2532309999999993">
        <ele>1071.865</ele>
        <time>2022-08-24T09:08:55Z</time>
      </trkpt>
      <trkpt lat="43.08106499999943" lon="-1.2532539999999994">
        <ele>1072.039</ele>
        <time>2022-08-24T09:08:56Z</time>
      </trkpt>
      <trkpt lat="43.081053999999426" lon="-1.2532749999999995">
        <ele>1072.278</ele>
        <time>2022-08-24T09:08:57Z</time>
      </trkpt>
      <trkpt lat="43.08104399999942" lon="-1.2532959999999995">
        <ele>1072.645</ele>
        <time>2022-08-24T09:08:58Z</time>
      </trkpt>
      <trkpt lat="43.08103699999943" lon="-1.2533169999999996">
        <ele>1073.047</ele>
        <time>2022-08-24T09:08:59Z</time>
      </trkpt>
      <trkpt lat="43.08102999999943" lon="-1.2533399999999997">
        <ele>1073.411</ele>
        <time>2022-08-24T09:09:00Z</time>
      </trkpt>
      <trkpt lat="43.08102999999943" lon="-1.2533399999999997">
        <ele>1073.409</ele>
        <time>2022-08-24T09:09:01Z</time>
      </trkpt>
      <trkpt lat="43.08101699999943" lon="-1.2533809999999996">
        <ele>1074.025</ele>
        <time>2022-08-24T09:09:02Z</time>
      </trkpt>
      <trkpt lat="43.08100599999943" lon="-1.2534039999999997">
        <ele>1074.495</ele>
        <time>2022-08-24T09:09:03Z</time>
      </trkpt>
      <trkpt lat="43.080997999999425" lon="-1.2534279999999998">
        <ele>1074.425</ele>
        <time>2022-08-24T09:09:04Z</time>
      </trkpt>
      <trkpt lat="43.080991999999426" lon="-1.2534509999999999">
        <ele>1074.661</ele>
        <time>2022-08-24T09:09:05Z</time>
      </trkpt>
      <trkpt lat="43.08098499999943" lon="-1.253474">
        <ele>1074.863</ele>
        <time>2022-08-24T09:09:06Z</time>
      </trkpt>
      <trkpt lat="43.08098499999943" lon="-1.253474">
        <ele>1074.830</ele>
        <time>2022-08-24T09:09:07Z</time>
      </trkpt>
      <trkpt lat="43.08097099999943" lon="-1.253517">
        <ele>1074.873</ele>
        <time>2022-08-24T09:09:08Z</time>
      </trkpt>
      <trkpt lat="43.08096299999943" lon="-1.25354">
        <ele>1075.067</ele>
        <time>2022-08-24T09:09:09Z</time>
      </trkpt>
      <trkpt lat="43.08096299999943" lon="-1.25354">
        <ele>1075.026</ele>
        <time>2022-08-24T09:09:10Z</time>
      </trkpt>
      <trkpt lat="43.08094599999943" lon="-1.253586">
        <ele>1075.023</ele>
        <time>2022-08-24T09:09:11Z</time>
      </trkpt>
      <trkpt lat="43.08093699999943" lon="-1.253608">
        <ele>1075.083</ele>
        <time>2022-08-24T09:09:12Z</time>
      </trkpt>
      <trkpt lat="43.08092799999943" lon="-1.253629">
        <ele>1075.011</ele>
        <time>2022-08-24T09:09:13Z</time>
      </trkpt>
      <trkpt lat="43.08091899999943" lon="-1.253651">
        <ele>1075.009</ele>
        <time>2022-08-24T09:09:14Z</time>
      </trkpt>
      <trkpt lat="43.08091899999943" lon="-1.253651">
        <ele>1075.293</ele>
        <time>2022-08-24T09:09:15Z</time>
      </trkpt>
      <trkpt lat="43.080900999999436" lon="-1.253689">
        <ele>1075.263</ele>
        <time>2022-08-24T09:09:16Z</time>
      </trkpt>
      <trkpt lat="43.08089099999943" lon="-1.25371">
        <ele>1075.663</ele>
        <time>2022-08-24T09:09:17Z</time>
      </trkpt>
      <trkpt lat="43.080881999999434" lon="-1.2537330000000002">
        <ele>1075.879</ele>
        <time>2022-08-24T09:09:18Z</time>
      </trkpt>
      <trkpt lat="43.08087399999943" lon="-1.2537570000000002">
        <ele>1076.051</ele>
        <time>2022-08-24T09:09:19Z</time>
      </trkpt>
      <trkpt lat="43.08086699999944" lon="-1.2537800000000003">
        <ele>1076.058</ele>
        <time>2022-08-24T09:09:20Z</time>
      </trkpt>
      <trkpt lat="43.080858999999435" lon="-1.2538030000000004">
        <ele>1076.451</ele>
        <time>2022-08-24T09:09:21Z</time>
      </trkpt>
      <trkpt lat="43.08084999999944" lon="-1.2538240000000005">
        <ele>1076.645</ele>
        <time>2022-08-24T09:09:22Z</time>
      </trkpt>
      <trkpt lat="43.080841999999436" lon="-1.2538460000000005">
        <ele>1076.894</ele>
        <time>2022-08-24T09:09:23Z</time>
      </trkpt>
      <trkpt lat="43.08083499999944" lon="-1.2538660000000004">
        <ele>1077.099</ele>
        <time>2022-08-24T09:09:24Z</time>
      </trkpt>
      <trkpt lat="43.08082999999944" lon="-1.2538860000000003">
        <ele>1077.207</ele>
        <time>2022-08-24T09:09:25Z</time>
      </trkpt>
      <trkpt lat="43.08082299999944" lon="-1.2539060000000002">
        <ele>1077.227</ele>
        <time>2022-08-24T09:09:26Z</time>
      </trkpt>
      <trkpt lat="43.08081299999944" lon="-1.253926">
        <ele>1077.409</ele>
        <time>2022-08-24T09:09:27Z</time>
      </trkpt>
      <trkpt lat="43.080802999999435" lon="-1.253946">
        <ele>1077.430</ele>
        <time>2022-08-24T09:09:28Z</time>
      </trkpt>
      <trkpt lat="43.080802999999435" lon="-1.253946">
        <ele>1077.810</ele>
        <time>2022-08-24T09:09:29Z</time>
      </trkpt>
      <trkpt lat="43.080788999999434" lon="-1.253985">
        <ele>1078.020</ele>
        <time>2022-08-24T09:09:30Z</time>
      </trkpt>
      <trkpt lat="43.08078399999943" lon="-1.2540049999999998">
        <ele>1078.646</ele>
        <time>2022-08-24T09:09:31Z</time>
      </trkpt>
      <trkpt lat="43.080779999999436" lon="-1.2540259999999999">
        <ele>1078.888</ele>
        <time>2022-08-24T09:09:32Z</time>
      </trkpt>
      <trkpt lat="43.08077299999944" lon="-1.254047">
        <ele>1079.035</ele>
        <time>2022-08-24T09:09:33Z</time>
      </trkpt>
      <trkpt lat="43.08076499999944" lon="-1.254068">
        <ele>1079.298</ele>
        <time>2022-08-24T09:09:34Z</time>
      </trkpt>
      <trkpt lat="43.08075799999944" lon="-1.254089">
        <ele>1079.432</ele>
        <time>2022-08-24T09:09:35Z</time>
      </trkpt>
      <trkpt lat="43.08074999999944" lon="-1.2541120000000001">
        <ele>1079.681</ele>
        <time>2022-08-24T09:09:36Z</time>
      </trkpt>
      <trkpt lat="43.080742999999444" lon="-1.2541330000000002">
        <ele>1079.678</ele>
        <time>2022-08-24T09:09:37Z</time>
      </trkpt>
      <trkpt lat="43.080742999999444" lon="-1.2541330000000002">
        <ele>1080.033</ele>
        <time>2022-08-24T09:09:38Z</time>
      </trkpt>
      <trkpt lat="43.08072699999944" lon="-1.2541750000000003">
        <ele>1080.026</ele>
        <time>2022-08-24T09:09:39Z</time>
      </trkpt>
      <trkpt lat="43.080719999999445" lon="-1.2541970000000002">
        <ele>1080.209</ele>
        <time>2022-08-24T09:09:40Z</time>
      </trkpt>
      <trkpt lat="43.08071299999945" lon="-1.2542180000000003">
        <ele>1080.418</ele>
        <time>2022-08-24T09:09:41Z</time>
      </trkpt>
      <trkpt lat="43.08070599999945" lon="-1.2542410000000004">
        <ele>1080.498</ele>
        <time>2022-08-24T09:09:42Z</time>
      </trkpt>
      <trkpt lat="43.08070099999945" lon="-1.2542630000000003">
        <ele>1080.638</ele>
        <time>2022-08-24T09:09:43Z</time>
      </trkpt>
      <trkpt lat="43.08069499999945" lon="-1.2542860000000005">
        <ele>1080.644</ele>
        <time>2022-08-24T09:09:44Z</time>
      </trkpt>
      <trkpt lat="43.08068699999945" lon="-1.2543060000000004">
        <ele>1080.616</ele>
        <time>2022-08-24T09:09:45Z</time>
      </trkpt>
      <trkpt lat="43.08067799999945" lon="-1.2543260000000003">
        <ele>1080.863</ele>
        <time>2022-08-24T09:09:46Z</time>
      </trkpt>
      <trkpt lat="43.080673999999455" lon="-1.2543460000000002">
        <ele>1080.816</ele>
        <time>2022-08-24T09:09:47Z</time>
      </trkpt>
      <trkpt lat="43.08066999999946" lon="-1.2543650000000002">
        <ele>1080.890</ele>
        <time>2022-08-24T09:09:48Z</time>
      </trkpt>
      <trkpt lat="43.08066399999946" lon="-1.254385">
        <ele>1080.829</ele>
        <time>2022-08-24T09:09:49Z</time>
      </trkpt>
      <trkpt lat="43.08065899999946" lon="-1.2544060000000001">
        <ele>1081.078</ele>
        <time>2022-08-24T09:09:50Z</time>
      </trkpt>
      <trkpt lat="43.080653999999456" lon="-1.254426">
        <ele>1081.033</ele>
        <time>2022-08-24T09:09:51Z</time>
      </trkpt>
      <trkpt lat="43.080653999999456" lon="-1.254426">
        <ele>1081.226</ele>
        <time>2022-08-24T09:09:52Z</time>
      </trkpt>
      <trkpt lat="43.08064399999945" lon="-1.254465">
        <ele>1081.409</ele>
        <time>2022-08-24T09:09:53Z</time>
      </trkpt>
      <trkpt lat="43.08064099999945" lon="-1.254487">
        <ele>1081.438</ele>
        <time>2022-08-24T09:09:54Z</time>
      </trkpt>
      <trkpt lat="43.08063799999945" lon="-1.254508">
        <ele>1081.448</ele>
        <time>2022-08-24T09:09:55Z</time>
      </trkpt>
      <trkpt lat="43.080631999999454" lon="-1.25453">
        <ele>1081.688</ele>
        <time>2022-08-24T09:09:56Z</time>
      </trkpt>
      <trkpt lat="43.080625999999455" lon="-1.254552">
        <ele>1081.674</ele>
        <time>2022-08-24T09:09:57Z</time>
      </trkpt>
      <trkpt lat="43.080619999999456" lon="-1.2545739999999999">
        <ele>1081.696</ele>
        <time>2022-08-24T09:09:58Z</time>
      </trkpt>
      <trkpt lat="43.08061299999946" lon="-1.254595">
        <ele>1081.823</ele>
        <time>2022-08-24T09:09:59Z</time>
      </trkpt>
      <trkpt lat="43.08060599999946" lon="-1.254616">
        <ele>1081.836</ele>
        <time>2022-08-24T09:10:00Z</time>
      </trkpt>
      <trkpt lat="43.08060099999946" lon="-1.254637">
        <ele>1082.090</ele>
        <time>2022-08-24T09:10:01Z</time>
      </trkpt>
      <trkpt lat="43.08059599999946" lon="-1.254658">
        <ele>1082.269</ele>
        <time>2022-08-24T09:10:02Z</time>
      </trkpt>
      <trkpt lat="43.08059599999946" lon="-1.254658">
        <ele>1082.284</ele>
        <time>2022-08-24T09:10:03Z</time>
      </trkpt>
      <trkpt lat="43.08058199999946" lon="-1.254697">
        <ele>1082.407</ele>
        <time>2022-08-24T09:10:04Z</time>
      </trkpt>
      <trkpt lat="43.08057399999946" lon="-1.2547169999999999">
        <ele>1082.417</ele>
        <time>2022-08-24T09:10:05Z</time>
      </trkpt>
      <trkpt lat="43.08057399999946" lon="-1.2547169999999999">
        <ele>1082.809</ele>
        <time>2022-08-24T09:10:06Z</time>
      </trkpt>
      <trkpt lat="43.080560999999456" lon="-1.254759">
        <ele>1083.029</ele>
        <time>2022-08-24T09:10:07Z</time>
      </trkpt>
      <trkpt lat="43.080555999999454" lon="-1.254778">
        <ele>1083.079</ele>
        <time>2022-08-24T09:10:08Z</time>
      </trkpt>
      <trkpt lat="43.080549999999455" lon="-1.254797">
        <ele>1083.279</ele>
        <time>2022-08-24T09:10:09Z</time>
      </trkpt>
      <trkpt lat="43.080541999999454" lon="-1.254818">
        <ele>1083.475</ele>
        <time>2022-08-24T09:10:10Z</time>
      </trkpt>
      <trkpt lat="43.08053499999946" lon="-1.254838">
        <ele>1083.627</ele>
        <time>2022-08-24T09:10:11Z</time>
      </trkpt>
      <trkpt lat="43.08052599999946" lon="-1.254859">
        <ele>1084.074</ele>
        <time>2022-08-24T09:10:12Z</time>
      </trkpt>
      <trkpt lat="43.08051699999946" lon="-1.254878">
        <ele>1084.047</ele>
        <time>2022-08-24T09:10:13Z</time>
      </trkpt>
      <trkpt lat="43.080509999999464" lon="-1.2548979999999998">
        <ele>1084.031</ele>
        <time>2022-08-24T09:10:14Z</time>
      </trkpt>
      <trkpt lat="43.080503999999465" lon="-1.254919">
        <ele>1084.240</ele>
        <time>2022-08-24T09:10:15Z</time>
      </trkpt>
      <trkpt lat="43.08049699999947" lon="-1.2549389999999998">
        <ele>1084.458</ele>
        <time>2022-08-24T09:10:16Z</time>
      </trkpt>
      <trkpt lat="43.08049099999947" lon="-1.2549589999999997">
        <ele>1084.452</ele>
        <time>2022-08-24T09:10:17Z</time>
      </trkpt>
      <trkpt lat="43.08048399999947" lon="-1.2549789999999996">
        <ele>1084.617</ele>
        <time>2022-08-24T09:10:18Z</time>
      </trkpt>
      <trkpt lat="43.080476999999476" lon="-1.2549969999999997">
        <ele>1084.809</ele>
        <time>2022-08-24T09:10:19Z</time>
      </trkpt>
      <trkpt lat="43.080476999999476" lon="-1.2549969999999997">
        <ele>1084.826</ele>
        <time>2022-08-24T09:10:20Z</time>
      </trkpt>
      <trkpt lat="43.080462999999476" lon="-1.2550329999999996">
        <ele>1084.886</ele>
        <time>2022-08-24T09:10:21Z</time>
      </trkpt>
      <trkpt lat="43.080454999999475" lon="-1.2550489999999996">
        <ele>1084.856</ele>
        <time>2022-08-24T09:10:22Z</time>
      </trkpt>
      <trkpt lat="43.080446999999474" lon="-1.2550669999999997">
        <ele>1085.052</ele>
        <time>2022-08-24T09:10:23Z</time>
      </trkpt>
      <trkpt lat="43.08043599999947" lon="-1.2550839999999996">
        <ele>1085.054</ele>
        <time>2022-08-24T09:10:24Z</time>
      </trkpt>
      <trkpt lat="43.08042599999947" lon="-1.2551029999999996">
        <ele>1085.071</ele>
        <time>2022-08-24T09:10:25Z</time>
      </trkpt>
      <trkpt lat="43.08041699999947" lon="-1.2551219999999996">
        <ele>1085.284</ele>
        <time>2022-08-24T09:10:26Z</time>
      </trkpt>
      <trkpt lat="43.080409999999475" lon="-1.2551389999999996">
        <ele>1085.248</ele>
        <time>2022-08-24T09:10:27Z</time>
      </trkpt>
      <trkpt lat="43.080400999999476" lon="-1.2551549999999996">
        <ele>1085.457</ele>
        <time>2022-08-24T09:10:28Z</time>
      </trkpt>
      <trkpt lat="43.080392999999475" lon="-1.2551699999999997">
        <ele>1085.482</ele>
        <time>2022-08-24T09:10:29Z</time>
      </trkpt>
      <trkpt lat="43.080381999999474" lon="-1.2551879999999997">
        <ele>1085.643</ele>
        <time>2022-08-24T09:10:30Z</time>
      </trkpt>
      <trkpt lat="43.08037399999947" lon="-1.2552039999999998">
        <ele>1086.017</ele>
        <time>2022-08-24T09:10:31Z</time>
      </trkpt>
      <trkpt lat="43.080364999999475" lon="-1.2552179999999997">
        <ele>1086.209</ele>
        <time>2022-08-24T09:10:32Z</time>
      </trkpt>
      <trkpt lat="43.080355999999476" lon="-1.2552299999999996">
        <ele>1086.289</ele>
        <time>2022-08-24T09:10:33Z</time>
      </trkpt>
      <trkpt lat="43.08034599999947" lon="-1.2552409999999996">
        <ele>1086.459</ele>
        <time>2022-08-24T09:10:34Z</time>
      </trkpt>
      <trkpt lat="43.08033599999947" lon="-1.2552539999999996">
        <ele>1086.829</ele>
        <time>2022-08-24T09:10:35Z</time>
      </trkpt>
      <trkpt lat="43.08032699999947" lon="-1.2552699999999997">
        <ele>1087.045</ele>
        <time>2022-08-24T09:10:36Z</time>
      </trkpt>
      <trkpt lat="43.08031699999947" lon="-1.2552859999999997">
        <ele>1087.257</ele>
        <time>2022-08-24T09:10:37Z</time>
      </trkpt>
      <trkpt lat="43.080306999999465" lon="-1.2553029999999996">
        <ele>1087.494</ele>
        <time>2022-08-24T09:10:38Z</time>
      </trkpt>
      <trkpt lat="43.080298999999464" lon="-1.2553189999999996">
        <ele>1087.687</ele>
        <time>2022-08-24T09:10:39Z</time>
      </trkpt>
      <trkpt lat="43.08029199999947" lon="-1.2553339999999997">
        <ele>1087.811</ele>
        <time>2022-08-24T09:10:40Z</time>
      </trkpt>
      <trkpt lat="43.080283999999466" lon="-1.2553489999999998">
        <ele>1087.870</ele>
        <time>2022-08-24T09:10:41Z</time>
      </trkpt>
      <trkpt lat="43.08027499999947" lon="-1.2553609999999997">
        <ele>1088.227</ele>
        <time>2022-08-24T09:10:42Z</time>
      </trkpt>
      <trkpt lat="43.08027499999947" lon="-1.2553609999999997">
        <ele>1088.468</ele>
        <time>2022-08-24T09:10:43Z</time>
      </trkpt>
      <trkpt lat="43.080250999999464" lon="-1.2553839999999998">
        <ele>1088.814</ele>
        <time>2022-08-24T09:10:44Z</time>
      </trkpt>
      <trkpt lat="43.08023799999946" lon="-1.255399">
        <ele>1088.809</ele>
        <time>2022-08-24T09:10:45Z</time>
      </trkpt>
      <trkpt lat="43.08022399999946" lon="-1.255413">
        <ele>1089.033</ele>
        <time>2022-08-24T09:10:46Z</time>
      </trkpt>
      <trkpt lat="43.08021099999946" lon="-1.255428">
        <ele>1089.273</ele>
        <time>2022-08-24T09:10:47Z</time>
      </trkpt>
      <trkpt lat="43.08021099999946" lon="-1.255428">
        <ele>1089.273</ele>
        <time>2022-08-24T09:10:48Z</time>
      </trkpt>
      <trkpt lat="43.08018999999946" lon="-1.255465">
        <ele>1089.659</ele>
        <time>2022-08-24T09:10:49Z</time>
      </trkpt>
      <trkpt lat="43.08017999999946" lon="-1.255484">
        <ele>1089.621</ele>
        <time>2022-08-24T09:10:50Z</time>
      </trkpt>
      <trkpt lat="43.080169999999455" lon="-1.2555020000000001">
        <ele>1090.018</ele>
        <time>2022-08-24T09:10:51Z</time>
      </trkpt>
      <trkpt lat="43.080161999999454" lon="-1.2555200000000002">
        <ele>1090.481</ele>
        <time>2022-08-24T09:10:52Z</time>
      </trkpt>
      <trkpt lat="43.08015199999945" lon="-1.2555390000000002">
        <ele>1090.445</ele>
        <time>2022-08-24T09:10:53Z</time>
      </trkpt>
      <trkpt lat="43.08014099999945" lon="-1.2555580000000002">
        <ele>1090.644</ele>
        <time>2022-08-24T09:10:54Z</time>
      </trkpt>
      <trkpt lat="43.08013099999945" lon="-1.2555730000000003">
        <ele>1090.845</ele>
        <time>2022-08-24T09:10:55Z</time>
      </trkpt>
      <trkpt lat="43.080120999999444" lon="-1.2555870000000002">
        <ele>1091.047</ele>
        <time>2022-08-24T09:10:56Z</time>
      </trkpt>
      <trkpt lat="43.08010999999944" lon="-1.2556040000000002">
        <ele>1091.011</ele>
        <time>2022-08-24T09:10:57Z</time>
      </trkpt>
      <trkpt lat="43.08009999999944" lon="-1.255621">
        <ele>1091.209</ele>
        <time>2022-08-24T09:10:58Z</time>
      </trkpt>
      <trkpt lat="43.08009099999944" lon="-1.255638">
        <ele>1091.285</ele>
        <time>2022-08-24T09:10:59Z</time>
      </trkpt>
      <trkpt lat="43.08008099999944" lon="-1.255656">
        <ele>1091.485</ele>
        <time>2022-08-24T09:11:00Z</time>
      </trkpt>
      <trkpt lat="43.08006999999944" lon="-1.25567">
        <ele>1091.635</ele>
        <time>2022-08-24T09:11:01Z</time>
      </trkpt>
      <trkpt lat="43.08006099999944" lon="-1.255684">
        <ele>1091.631</ele>
        <time>2022-08-24T09:11:02Z</time>
      </trkpt>
      <trkpt lat="43.080050999999436" lon="-1.255698">
        <ele>1091.893</ele>
        <time>2022-08-24T09:11:03Z</time>
      </trkpt>
      <trkpt lat="43.08004099999943" lon="-1.255712">
        <ele>1092.010</ele>
        <time>2022-08-24T09:11:04Z</time>
      </trkpt>
      <trkpt lat="43.08003099999943" lon="-1.255725">
        <ele>1092.253</ele>
        <time>2022-08-24T09:11:05Z</time>
      </trkpt>
      <trkpt lat="43.08002099999943" lon="-1.255743">
        <ele>1092.257</ele>
        <time>2022-08-24T09:11:06Z</time>
      </trkpt>
      <trkpt lat="43.08001199999943" lon="-1.2557610000000001">
        <ele>1092.476</ele>
        <time>2022-08-24T09:11:07Z</time>
      </trkpt>
      <trkpt lat="43.08001199999943" lon="-1.2557610000000001">
        <ele>1092.885</ele>
        <time>2022-08-24T09:11:08Z</time>
      </trkpt>
      <trkpt lat="43.07999499999943" lon="-1.255792">
        <ele>1093.089</ele>
        <time>2022-08-24T09:11:09Z</time>
      </trkpt>
      <trkpt lat="43.07998299999943" lon="-1.255808">
        <ele>1093.217</ele>
        <time>2022-08-24T09:11:10Z</time>
      </trkpt>
      <trkpt lat="43.07998299999943" lon="-1.255808">
        <ele>1093.409</ele>
        <time>2022-08-24T09:11:11Z</time>
      </trkpt>
      <trkpt lat="43.07996599999943" lon="-1.255841">
        <ele>1093.689</ele>
        <time>2022-08-24T09:11:12Z</time>
      </trkpt>
      <trkpt lat="43.079958999999434" lon="-1.255855">
        <ele>1094.029</ele>
        <time>2022-08-24T09:11:13Z</time>
      </trkpt>
      <trkpt lat="43.079958999999434" lon="-1.255855">
        <ele>1094.299</ele>
        <time>2022-08-24T09:11:14Z</time>
      </trkpt>
      <trkpt lat="43.079943999999436" lon="-1.255882">
        <ele>1094.635</ele>
        <time>2022-08-24T09:11:15Z</time>
      </trkpt>
      <trkpt lat="43.07993499999944" lon="-1.255898">
        <ele>1094.837</ele>
        <time>2022-08-24T09:11:16Z</time>
      </trkpt>
      <trkpt lat="43.07992699999944" lon="-1.255915">
        <ele>1095.024</ele>
        <time>2022-08-24T09:11:17Z</time>
      </trkpt>
      <trkpt lat="43.07991799999944" lon="-1.255931">
        <ele>1095.287</ele>
        <time>2022-08-24T09:11:18Z</time>
      </trkpt>
      <trkpt lat="43.07990899999944" lon="-1.255947">
        <ele>1095.441</ele>
        <time>2022-08-24T09:11:19Z</time>
      </trkpt>
      <trkpt lat="43.079898999999436" lon="-1.2559639999999999">
        <ele>1095.640</ele>
        <time>2022-08-24T09:11:20Z</time>
      </trkpt>
      <trkpt lat="43.07988999999944" lon="-1.255979">
        <ele>1095.824</ele>
        <time>2022-08-24T09:11:21Z</time>
      </trkpt>
      <trkpt lat="43.07987599999944" lon="-1.255995">
        <ele>1096.004</ele>
        <time>2022-08-24T09:11:22Z</time>
      </trkpt>
      <trkpt lat="43.07986399999944" lon="-1.256011">
        <ele>1096.014</ele>
        <time>2022-08-24T09:11:23Z</time>
      </trkpt>
      <trkpt lat="43.07985299999944" lon="-1.256029">
        <ele>1096.009</ele>
        <time>2022-08-24T09:11:24Z</time>
      </trkpt>
      <trkpt lat="43.07984599999944" lon="-1.2560470000000001">
        <ele>1096.273</ele>
        <time>2022-08-24T09:11:25Z</time>
      </trkpt>
      <trkpt lat="43.07983799999944" lon="-1.2560650000000002">
        <ele>1096.223</ele>
        <time>2022-08-24T09:11:26Z</time>
      </trkpt>
      <trkpt lat="43.07982899999944" lon="-1.2560800000000003">
        <ele>1096.473</ele>
        <time>2022-08-24T09:11:27Z</time>
      </trkpt>
      <trkpt lat="43.079819999999444" lon="-1.2560940000000003">
        <ele>1096.429</ele>
        <time>2022-08-24T09:11:28Z</time>
      </trkpt>
      <trkpt lat="43.07980999999944" lon="-1.2561090000000004">
        <ele>1096.461</ele>
        <time>2022-08-24T09:11:29Z</time>
      </trkpt>
      <trkpt lat="43.07979999999944" lon="-1.2561240000000005">
        <ele>1096.488</ele>
        <time>2022-08-24T09:11:30Z</time>
      </trkpt>
      <trkpt lat="43.07978899999944" lon="-1.2561350000000004">
        <ele>1096.411</ele>
        <time>2022-08-24T09:11:31Z</time>
      </trkpt>
      <trkpt lat="43.079777999999436" lon="-1.2561490000000004">
        <ele>1096.485</ele>
        <time>2022-08-24T09:11:32Z</time>
      </trkpt>
      <trkpt lat="43.07976899999944" lon="-1.2561670000000005">
        <ele>1096.454</ele>
        <time>2022-08-24T09:11:33Z</time>
      </trkpt>
      <trkpt lat="43.079758999999434" lon="-1.2561850000000006">
        <ele>1096.467</ele>
        <time>2022-08-24T09:11:34Z</time>
      </trkpt>
      <trkpt lat="43.07974899999943" lon="-1.2562020000000005">
        <ele>1096.481</ele>
        <time>2022-08-24T09:11:35Z</time>
      </trkpt>
      <trkpt lat="43.07973999999943" lon="-1.2562180000000005">
        <ele>1096.619</ele>
        <time>2022-08-24T09:11:36Z</time>
      </trkpt>
      <trkpt lat="43.07972999999943" lon="-1.2562350000000004">
        <ele>1096.809</ele>
        <time>2022-08-24T09:11:37Z</time>
      </trkpt>
      <trkpt lat="43.079719999999426" lon="-1.2562520000000004">
        <ele>1097.027</ele>
        <time>2022-08-24T09:11:38Z</time>
      </trkpt>
      <trkpt lat="43.07971299999943" lon="-1.2562670000000005">
        <ele>1097.677</ele>
        <time>2022-08-24T09:11:39Z</time>
      </trkpt>
      <trkpt lat="43.07970299999943" lon="-1.2562800000000005">
        <ele>1097.827</ele>
        <time>2022-08-24T09:11:40Z</time>
      </trkpt>
      <trkpt lat="43.07969299999942" lon="-1.2562930000000005">
        <ele>1098.033</ele>
        <time>2022-08-24T09:11:41Z</time>
      </trkpt>
      <trkpt lat="43.07968299999942" lon="-1.2563100000000005">
        <ele>1098.285</ele>
        <time>2022-08-24T09:11:42Z</time>
      </trkpt>
      <trkpt lat="43.07967299999942" lon="-1.2563240000000004">
        <ele>1098.652</ele>
        <time>2022-08-24T09:11:43Z</time>
      </trkpt>
      <trkpt lat="43.07966399999942" lon="-1.2563420000000005">
        <ele>1099.075</ele>
        <time>2022-08-24T09:11:44Z</time>
      </trkpt>
      <trkpt lat="43.07965799999942" lon="-1.2563620000000004">
        <ele>1099.019</ele>
        <time>2022-08-24T09:11:45Z</time>
      </trkpt>
      <trkpt lat="43.07964999999942" lon="-1.2563830000000005">
        <ele>1099.238</ele>
        <time>2022-08-24T09:11:46Z</time>
      </trkpt>
      <trkpt lat="43.07964599999942" lon="-1.2563990000000005">
        <ele>1099.436</ele>
        <time>2022-08-24T09:11:47Z</time>
      </trkpt>
      <trkpt lat="43.079641999999424" lon="-1.2564150000000005">
        <ele>1099.417</ele>
        <time>2022-08-24T09:11:48Z</time>
      </trkpt>
      <trkpt lat="43.07963499999943" lon="-1.2564310000000005">
        <ele>1099.618</ele>
        <time>2022-08-24T09:11:49Z</time>
      </trkpt>
      <trkpt lat="43.07963199999943" lon="-1.2564490000000006">
        <ele>1099.609</ele>
        <time>2022-08-24T09:11:50Z</time>
      </trkpt>
      <trkpt lat="43.079629999999426" lon="-1.2564670000000007">
        <ele>1099.674</ele>
        <time>2022-08-24T09:11:51Z</time>
      </trkpt>
      <trkpt lat="43.07962699999943" lon="-1.2564880000000007">
        <ele>1099.624</ele>
        <time>2022-08-24T09:11:52Z</time>
      </trkpt>
      <trkpt lat="43.07962099999943" lon="-1.2565080000000006">
        <ele>1099.624</ele>
        <time>2022-08-24T09:11:53Z</time>
      </trkpt>
      <trkpt lat="43.079615999999426" lon="-1.2565280000000005">
        <ele>1099.660</ele>
        <time>2022-08-24T09:11:54Z</time>
      </trkpt>
      <trkpt lat="43.07961199999943" lon="-1.2565490000000006">
        <ele>1099.442</ele>
        <time>2022-08-24T09:11:55Z</time>
      </trkpt>
      <trkpt lat="43.07960999999943" lon="-1.2565680000000006">
        <ele>1099.469</ele>
        <time>2022-08-24T09:11:56Z</time>
      </trkpt>
      <trkpt lat="43.07960599999943" lon="-1.2565900000000005">
        <ele>1099.432</ele>
        <time>2022-08-24T09:11:57Z</time>
      </trkpt>
      <trkpt lat="43.07960599999943" lon="-1.2566120000000005">
        <ele>1099.466</ele>
        <time>2022-08-24T09:11:58Z</time>
      </trkpt>
      <trkpt lat="43.07960699999943" lon="-1.2566320000000004">
        <ele>1099.475</ele>
        <time>2022-08-24T09:11:59Z</time>
      </trkpt>
      <trkpt lat="43.07960599999943" lon="-1.2566540000000004">
        <ele>1099.435</ele>
        <time>2022-08-24T09:12:00Z</time>
      </trkpt>
      <trkpt lat="43.07960699999943" lon="-1.2566780000000004">
        <ele>1099.486</ele>
        <time>2022-08-24T09:12:01Z</time>
      </trkpt>
      <trkpt lat="43.079607999999425" lon="-1.2567030000000003">
        <ele>1099.614</ele>
        <time>2022-08-24T09:12:02Z</time>
      </trkpt>
      <trkpt lat="43.079610999999424" lon="-1.2567270000000004">
        <ele>1099.409</ele>
        <time>2022-08-24T09:12:03Z</time>
      </trkpt>
      <trkpt lat="43.079635999999425" lon="-1.2567680000000003">
        <ele>1099.434</ele>
        <time>2022-08-24T09:12:05Z</time>
      </trkpt>
      <trkpt lat="43.07965099999942" lon="-1.2567880000000002">
        <ele>1099.464</ele>
        <time>2022-08-24T09:12:06Z</time>
      </trkpt>
      <trkpt lat="43.07966499999942" lon="-1.2568060000000003">
        <ele>1099.474</ele>
        <time>2022-08-24T09:12:07Z</time>
      </trkpt>
      <trkpt lat="43.079680999999425" lon="-1.2568230000000002">
        <ele>1099.420</ele>
        <time>2022-08-24T09:12:08Z</time>
      </trkpt>
      <trkpt lat="43.07969599999942" lon="-1.2568380000000003">
        <ele>1099.442</ele>
        <time>2022-08-24T09:12:09Z</time>
      </trkpt>
      <trkpt lat="43.079728999999425" lon="-1.2568600000000003">
        <ele>1099.669</ele>
        <time>2022-08-24T09:12:11Z</time>
      </trkpt>
      <trkpt lat="43.07974499999943" lon="-1.2568690000000002">
        <ele>1099.682</ele>
        <time>2022-08-24T09:12:12Z</time>
      </trkpt>
      <trkpt lat="43.079759999999425" lon="-1.2568780000000002">
        <ele>1099.686</ele>
        <time>2022-08-24T09:12:13Z</time>
      </trkpt>
      <trkpt lat="43.07978999999943" lon="-1.2569000000000001">
        <ele>1099.875</ele>
        <time>2022-08-24T09:12:15Z</time>
      </trkpt>
      <trkpt lat="43.079886999999424" lon="-1.256982">
        <ele>1100.259</ele>
        <time>2022-08-24T09:12:21Z</time>
      </trkpt>
      <trkpt lat="43.07990199999942" lon="-1.256994">
        <ele>1100.403</ele>
        <time>2022-08-24T09:12:22Z</time>
      </trkpt>
      <trkpt lat="43.07991399999942" lon="-1.25701">
        <ele>1100.423</ele>
        <time>2022-08-24T09:12:23Z</time>
      </trkpt>
      <trkpt lat="43.07995699999942" lon="-1.257063">
        <ele>1100.809</ele>
        <time>2022-08-24T09:12:26Z</time>
      </trkpt>
      <trkpt lat="43.079979999999416" lon="-1.2571">
        <ele>1101.046</ele>
        <time>2022-08-24T09:12:28Z</time>
      </trkpt>
      <trkpt lat="43.079991999999415" lon="-1.2571210000000002">
        <ele>1101.226</ele>
        <time>2022-08-24T09:12:29Z</time>
      </trkpt>
      <trkpt lat="43.08000199999942" lon="-1.257141">
        <ele>1101.276</ele>
        <time>2022-08-24T09:12:30Z</time>
      </trkpt>
      <trkpt lat="43.08002599999942" lon="-1.257181">
        <ele>1101.462</ele>
        <time>2022-08-24T09:12:32Z</time>
      </trkpt>
      <trkpt lat="43.080038999999424" lon="-1.2572040000000002">
        <ele>1101.674</ele>
        <time>2022-08-24T09:12:34Z</time>
      </trkpt>
      <trkpt lat="43.08006199999942" lon="-1.2572510000000001">
        <ele>1101.891</ele>
        <time>2022-08-24T09:12:35Z</time>
      </trkpt>
      <trkpt lat="43.080099999999426" lon="-1.2573280000000002">
        <ele>1102.864</ele>
        <time>2022-08-24T09:12:38Z</time>
      </trkpt>
      <trkpt lat="43.08011299999943" lon="-1.2573570000000003">
        <ele>1103.288</ele>
        <time>2022-08-24T09:12:40Z</time>
      </trkpt>
      <trkpt lat="43.08013699999943" lon="-1.2574170000000002">
        <ele>1103.467</ele>
        <time>2022-08-24T09:12:41Z</time>
      </trkpt>
      <trkpt lat="43.08014599999943" lon="-1.2574490000000003">
        <ele>1103.691</ele>
        <time>2022-08-24T09:12:42Z</time>
      </trkpt>
      <trkpt lat="43.08015399999943" lon="-1.2574780000000003">
        <ele>1103.881</ele>
        <time>2022-08-24T09:12:43Z</time>
      </trkpt>
      <trkpt lat="43.08015899999943" lon="-1.2575070000000004">
        <ele>1104.019</ele>
        <time>2022-08-24T09:12:44Z</time>
      </trkpt>
      <trkpt lat="43.08016499999943" lon="-1.2575360000000004">
        <ele>1104.209</ele>
        <time>2022-08-24T09:12:45Z</time>
      </trkpt>
      <trkpt lat="43.08016799999943" lon="-1.2575680000000005">
        <ele>1104.420</ele>
        <time>2022-08-24T09:12:46Z</time>
      </trkpt>
      <trkpt lat="43.080169999999434" lon="-1.2576020000000006">
        <ele>1104.690</ele>
        <time>2022-08-24T09:12:47Z</time>
      </trkpt>
      <trkpt lat="43.080169999999434" lon="-1.2576360000000006">
        <ele>1104.830</ele>
        <time>2022-08-24T09:12:48Z</time>
      </trkpt>
      <trkpt lat="43.08017099999943" lon="-1.2576700000000007">
        <ele>1104.816</ele>
        <time>2022-08-24T09:12:49Z</time>
      </trkpt>
      <trkpt lat="43.08017199999943" lon="-1.2577010000000006">
        <ele>1105.238</ele>
        <time>2022-08-24T09:12:50Z</time>
      </trkpt>
      <trkpt lat="43.08017299999943" lon="-1.2577290000000005">
        <ele>1105.235</ele>
        <time>2022-08-24T09:12:51Z</time>
      </trkpt>
      <trkpt lat="43.08017299999943" lon="-1.2577580000000006">
        <ele>1105.418</ele>
        <time>2022-08-24T09:12:52Z</time>
      </trkpt>
      <trkpt lat="43.08017499999943" lon="-1.2577850000000006">
        <ele>1105.662</ele>
        <time>2022-08-24T09:12:53Z</time>
      </trkpt>
      <trkpt lat="43.080175999999426" lon="-1.2578150000000006">
        <ele>1105.631</ele>
        <time>2022-08-24T09:12:54Z</time>
      </trkpt>
      <trkpt lat="43.080178999999426" lon="-1.2578450000000005">
        <ele>1105.896</ele>
        <time>2022-08-24T09:12:55Z</time>
      </trkpt>
      <trkpt lat="43.08017999999942" lon="-1.2578790000000006">
        <ele>1105.831</ele>
        <time>2022-08-24T09:12:56Z</time>
      </trkpt>
      <trkpt lat="43.08018099999942" lon="-1.2579160000000007">
        <ele>1105.824</ele>
        <time>2022-08-24T09:12:57Z</time>
      </trkpt>
      <trkpt lat="43.08018299999942" lon="-1.2579560000000007">
        <ele>1106.009</ele>
        <time>2022-08-24T09:12:58Z</time>
      </trkpt>
      <trkpt lat="43.08018699999942" lon="-1.2579970000000007">
        <ele>1106.060</ele>
        <time>2022-08-24T09:12:59Z</time>
      </trkpt>
      <trkpt lat="43.08018999999942" lon="-1.2580400000000007">
        <ele>1106.070</ele>
        <time>2022-08-24T09:13:00Z</time>
      </trkpt>
      <trkpt lat="43.08019199999942" lon="-1.2580850000000008">
        <ele>1106.060</ele>
        <time>2022-08-24T09:13:01Z</time>
      </trkpt>
      <trkpt lat="43.08019399999942" lon="-1.2581300000000009">
        <ele>1106.096</ele>
        <time>2022-08-24T09:13:02Z</time>
      </trkpt>
      <trkpt lat="43.080192999999426" lon="-1.258178000000001">
        <ele>1106.048</ele>
        <time>2022-08-24T09:13:03Z</time>
      </trkpt>
      <trkpt lat="43.08019199999943" lon="-1.258229000000001">
        <ele>1106.085</ele>
        <time>2022-08-24T09:13:04Z</time>
      </trkpt>
      <trkpt lat="43.08018799999943" lon="-1.258285000000001">
        <ele>1106.018</ele>
        <time>2022-08-24T09:13:05Z</time>
      </trkpt>
      <trkpt lat="43.08018199999943" lon="-1.258337000000001">
        <ele>1106.052</ele>
        <time>2022-08-24T09:13:06Z</time>
      </trkpt>
      <trkpt lat="43.080174999999436" lon="-1.2583840000000008">
        <ele>1105.841</ele>
        <time>2022-08-24T09:13:07Z</time>
      </trkpt>
      <trkpt lat="43.08016899999944" lon="-1.2584320000000009">
        <ele>1105.834</ele>
        <time>2022-08-24T09:13:08Z</time>
      </trkpt>
      <trkpt lat="43.080160999999435" lon="-1.258483000000001">
        <ele>1105.855</ele>
        <time>2022-08-24T09:13:09Z</time>
      </trkpt>
      <trkpt lat="43.080146999999435" lon="-1.2585400000000009">
        <ele>1105.810</ele>
        <time>2022-08-24T09:13:10Z</time>
      </trkpt>
      <trkpt lat="43.08012799999943" lon="-1.2585980000000008">
        <ele>1105.609</ele>
        <time>2022-08-24T09:13:11Z</time>
      </trkpt>
      <trkpt lat="43.08012799999943" lon="-1.2585980000000008">
        <ele>1105.694</ele>
        <time>2022-08-24T09:13:12Z</time>
      </trkpt>
      <trkpt lat="43.08005499999943" lon="-1.2587720000000007">
        <ele>1105.454</ele>
        <time>2022-08-24T09:13:14Z</time>
      </trkpt>
      <trkpt lat="43.08005499999943" lon="-1.2587720000000007">
        <ele>1105.274</ele>
        <time>2022-08-24T09:13:15Z</time>
      </trkpt>
      <trkpt lat="43.07997999999943" lon="-1.2589370000000006">
        <ele>1104.850</ele>
        <time>2022-08-24T09:13:18Z</time>
      </trkpt>
      <trkpt lat="43.07992999999943" lon="-1.2590560000000006">
        <ele>1104.452</ele>
        <time>2022-08-24T09:13:19Z</time>
      </trkpt>
      <trkpt lat="43.07990399999943" lon="-1.2591150000000007">
        <ele>1104.289</ele>
        <time>2022-08-24T09:13:20Z</time>
      </trkpt>
      <trkpt lat="43.07987799999943" lon="-1.2591750000000006">
        <ele>1103.472</ele>
        <time>2022-08-24T09:13:21Z</time>
      </trkpt>
      <trkpt lat="43.07981899999943" lon="-1.2593010000000007">
        <ele>1102.226</ele>
        <time>2022-08-24T09:13:23Z</time>
      </trkpt>
      <trkpt lat="43.07975099999943" lon="-1.2594280000000007">
        <ele>1100.865</ele>
        <time>2022-08-24T09:13:25Z</time>
      </trkpt>
      <trkpt lat="43.07962499999943" lon="-1.2596100000000006">
        <ele>1099.226</ele>
        <time>2022-08-24T09:13:28Z</time>
      </trkpt>
      <trkpt lat="43.07952699999943" lon="-1.2597340000000006">
        <ele>1098.247</ele>
        <time>2022-08-24T09:13:30Z</time>
      </trkpt>
      <trkpt lat="43.07947699999943" lon="-1.2597950000000007">
        <ele>1098.011</ele>
        <time>2022-08-24T09:13:31Z</time>
      </trkpt>
      <trkpt lat="43.079370999999426" lon="-1.2599160000000007">
        <ele>1096.809</ele>
        <time>2022-08-24T09:13:33Z</time>
      </trkpt>
      <trkpt lat="43.079171999999424" lon="-1.2601730000000007">
        <ele>1095.423</ele>
        <time>2022-08-24T09:13:37Z</time>
      </trkpt>
      <trkpt lat="43.07912799999942" lon="-1.2602420000000008">
        <ele>1094.683</ele>
        <time>2022-08-24T09:13:38Z</time>
      </trkpt>
      <trkpt lat="43.07907699999942" lon="-1.2603260000000007">
        <ele>1094.413</ele>
        <time>2022-08-24T09:13:39Z</time>
      </trkpt>
      <trkpt lat="43.07895599999942" lon="-1.2605310000000007">
        <ele>1093.239</ele>
        <time>2022-08-24T09:13:42Z</time>
      </trkpt>
      <trkpt lat="43.07880999999942" lon="-1.2607730000000008">
        <ele>1091.851</ele>
        <time>2022-08-24T09:13:45Z</time>
      </trkpt>
      <trkpt lat="43.07870099999942" lon="-1.260939000000001">
        <ele>1091.038</ele>
        <time>2022-08-24T09:13:47Z</time>
      </trkpt>
      <trkpt lat="43.07864299999942" lon="-1.2610240000000008">
        <ele>1090.691</ele>
        <time>2022-08-24T09:13:48Z</time>
      </trkpt>
      <trkpt lat="43.078524999999416" lon="-1.2611910000000008">
        <ele>1089.425</ele>
        <time>2022-08-24T09:13:50Z</time>
      </trkpt>
      <trkpt lat="43.07846499999942" lon="-1.2612760000000007">
        <ele>1088.224</ele>
        <time>2022-08-24T09:13:51Z</time>
      </trkpt>
      <trkpt lat="43.07833999999942" lon="-1.2614520000000007">
        <ele>1087.065</ele>
        <time>2022-08-24T09:13:53Z</time>
      </trkpt>
      <trkpt lat="43.07827899999942" lon="-1.2615420000000006">
        <ele>1086.468</ele>
        <time>2022-08-24T09:13:54Z</time>
      </trkpt>
      <trkpt lat="43.07822099999942" lon="-1.2616380000000007">
        <ele>1086.014</ele>
        <time>2022-08-24T09:13:55Z</time>
      </trkpt>
      <trkpt lat="43.07810999999942" lon="-1.2618330000000006">
        <ele>1084.809</ele>
        <time>2022-08-24T09:13:57Z</time>
      </trkpt>
      <trkpt lat="43.07805499999942" lon="-1.2619290000000007">
        <ele>1084.657</ele>
        <time>2022-08-24T09:13:58Z</time>
      </trkpt>
      <trkpt lat="43.07800299999942" lon="-1.2620210000000007">
        <ele>1084.227</ele>
        <time>2022-08-24T09:13:59Z</time>
      </trkpt>
      <trkpt lat="43.07795199999942" lon="-1.2621070000000008">
        <ele>1083.867</ele>
        <time>2022-08-24T09:14:00Z</time>
      </trkpt>
      <trkpt lat="43.077902999999424" lon="-1.2621860000000007">
        <ele>1083.233</ele>
        <time>2022-08-24T09:14:01Z</time>
      </trkpt>
      <trkpt lat="43.07785599999942" lon="-1.2622590000000007">
        <ele>1083.225</ele>
        <time>2022-08-24T09:14:02Z</time>
      </trkpt>
      <trkpt lat="43.07780899999942" lon="-1.2623270000000006">
        <ele>1083.022</ele>
        <time>2022-08-24T09:14:03Z</time>
      </trkpt>
      <trkpt lat="43.07776399999942" lon="-1.2623870000000006">
        <ele>1083.055</ele>
        <time>2022-08-24T09:14:04Z</time>
      </trkpt>
      <trkpt lat="43.07771999999942" lon="-1.2624390000000005">
        <ele>1083.059</ele>
        <time>2022-08-24T09:14:05Z</time>
      </trkpt>
      <trkpt lat="43.077677999999416" lon="-1.2624850000000005">
        <ele>1083.078</ele>
        <time>2022-08-24T09:14:06Z</time>
      </trkpt>
      <trkpt lat="43.077632999999416" lon="-1.2625320000000004">
        <ele>1083.071</ele>
        <time>2022-08-24T09:14:07Z</time>
      </trkpt>
      <trkpt lat="43.07760399999942" lon="-1.2625580000000005">
        <ele>1083.241</ele>
        <time>2022-08-24T09:14:08Z</time>
      </trkpt>
      <trkpt lat="43.07756899999942" lon="-1.2625900000000005">
        <ele>1083.415</ele>
        <time>2022-08-24T09:14:09Z</time>
      </trkpt>
      <trkpt lat="43.077536999999424" lon="-1.2626200000000005">
        <ele>1084.009</ele>
        <time>2022-08-24T09:14:10Z</time>
      </trkpt>
      <trkpt lat="43.07750499999943" lon="-1.2626480000000004">
        <ele>1084.278</ele>
        <time>2022-08-24T09:14:11Z</time>
      </trkpt>
      <trkpt lat="43.07747299999943" lon="-1.2626740000000005">
        <ele>1084.438</ele>
        <time>2022-08-24T09:14:12Z</time>
      </trkpt>
      <trkpt lat="43.07744099999943" lon="-1.2627020000000004">
        <ele>1084.838</ele>
        <time>2022-08-24T09:14:13Z</time>
      </trkpt>
      <trkpt lat="43.07740999999943" lon="-1.2627290000000004">
        <ele>1085.044</ele>
        <time>2022-08-24T09:14:14Z</time>
      </trkpt>
      <trkpt lat="43.077377999999435" lon="-1.2627520000000005">
        <ele>1085.486</ele>
        <time>2022-08-24T09:14:15Z</time>
      </trkpt>
      <trkpt lat="43.07734799999943" lon="-1.2627740000000005">
        <ele>1085.633</ele>
        <time>2022-08-24T09:14:16Z</time>
      </trkpt>
      <trkpt lat="43.07731499999943" lon="-1.2627960000000005">
        <ele>1085.866</ele>
        <time>2022-08-24T09:14:17Z</time>
      </trkpt>
      <trkpt lat="43.07728199999943" lon="-1.2628160000000004">
        <ele>1086.030</ele>
        <time>2022-08-24T09:14:18Z</time>
      </trkpt>
      <trkpt lat="43.07724699999943" lon="-1.2628320000000004">
        <ele>1086.259</ele>
        <time>2022-08-24T09:14:19Z</time>
      </trkpt>
      <trkpt lat="43.077214999999434" lon="-1.2628490000000003">
        <ele>1086.484</ele>
        <time>2022-08-24T09:14:20Z</time>
      </trkpt>
      <trkpt lat="43.07718299999944" lon="-1.2628640000000004">
        <ele>1086.407</ele>
        <time>2022-08-24T09:14:21Z</time>
      </trkpt>
      <trkpt lat="43.07714899999944" lon="-1.2628810000000004">
        <ele>1086.617</ele>
        <time>2022-08-24T09:14:22Z</time>
      </trkpt>
      <trkpt lat="43.07708299999944" lon="-1.2629170000000003">
        <ele>1086.809</ele>
        <time>2022-08-24T09:14:24Z</time>
      </trkpt>
      <trkpt lat="43.07700699999944" lon="-1.2629490000000003">
        <ele>1087.249</ele>
        <time>2022-08-24T09:14:26Z</time>
      </trkpt>
      <trkpt lat="43.07694199999944" lon="-1.2629740000000003">
        <ele>1087.099</ele>
        <time>2022-08-24T09:14:28Z</time>
      </trkpt>
      <trkpt lat="43.07687499999944" lon="-1.2630040000000002">
        <ele>1086.649</ele>
        <time>2022-08-24T09:14:30Z</time>
      </trkpt>
      <trkpt lat="43.07684199999944" lon="-1.2630160000000001">
        <ele>1086.485</ele>
        <time>2022-08-24T09:14:31Z</time>
      </trkpt>
      <trkpt lat="43.076808999999436" lon="-1.2630290000000002">
        <ele>1086.247</ele>
        <time>2022-08-24T09:14:32Z</time>
      </trkpt>
      <trkpt lat="43.076808999999436" lon="-1.2630290000000002">
        <ele>1086.224</ele>
        <time>2022-08-24T09:14:33Z</time>
      </trkpt>
      <trkpt lat="43.076749999999436" lon="-1.2630550000000003">
        <ele>1086.247</ele>
        <time>2022-08-24T09:14:34Z</time>
      </trkpt>
      <trkpt lat="43.07672299999943" lon="-1.2630690000000002">
        <ele>1086.061</ele>
        <time>2022-08-24T09:14:35Z</time>
      </trkpt>
      <trkpt lat="43.07669499999943" lon="-1.2630820000000003">
        <ele>1086.010</ele>
        <time>2022-08-24T09:14:36Z</time>
      </trkpt>
      <trkpt lat="43.076668999999434" lon="-1.2630920000000003">
        <ele>1085.618</ele>
        <time>2022-08-24T09:14:37Z</time>
      </trkpt>
      <trkpt lat="43.07664399999943" lon="-1.2630970000000004">
        <ele>1085.698</ele>
        <time>2022-08-24T09:14:38Z</time>
      </trkpt>
      <trkpt lat="43.07662299999944" lon="-1.2631060000000003">
        <ele>1085.217</ele>
        <time>2022-08-24T09:14:39Z</time>
      </trkpt>
      <trkpt lat="43.07659699999944" lon="-1.2631150000000002">
        <ele>1085.209</ele>
        <time>2022-08-24T09:14:40Z</time>
      </trkpt>
      <trkpt lat="43.07657099999944" lon="-1.2631240000000001">
        <ele>1085.212</ele>
        <time>2022-08-24T09:14:41Z</time>
      </trkpt>
      <trkpt lat="43.07654699999944" lon="-1.26313">
        <ele>1085.092</ele>
        <time>2022-08-24T09:14:42Z</time>
      </trkpt>
      <trkpt lat="43.07652599999944" lon="-1.2631320000000001">
        <ele>1085.032</ele>
        <time>2022-08-24T09:14:43Z</time>
      </trkpt>
      <trkpt lat="43.07650199999944" lon="-1.2631370000000002">
        <ele>1084.888</ele>
        <time>2022-08-24T09:14:44Z</time>
      </trkpt>
      <trkpt lat="43.07637799999944" lon="-1.263173">
        <ele>1084.280</ele>
        <time>2022-08-24T09:14:49Z</time>
      </trkpt>
      <trkpt lat="43.076352999999436" lon="-1.263174">
        <ele>1084.217</ele>
        <time>2022-08-24T09:14:50Z</time>
      </trkpt>
      <trkpt lat="43.07627599999944" lon="-1.263181">
        <ele>1084.260</ele>
        <time>2022-08-24T09:14:53Z</time>
      </trkpt>
      <trkpt lat="43.076251999999435" lon="-1.2631880000000002">
        <ele>1084.294</ele>
        <time>2022-08-24T09:14:54Z</time>
      </trkpt>
      <trkpt lat="43.07622899999944" lon="-1.2631960000000002">
        <ele>1084.273</ele>
        <time>2022-08-24T09:14:55Z</time>
      </trkpt>
      <trkpt lat="43.07620499999943" lon="-1.2632020000000002">
        <ele>1084.472</ele>
        <time>2022-08-24T09:14:56Z</time>
      </trkpt>
      <trkpt lat="43.07618099999943" lon="-1.2632050000000001">
        <ele>1084.413</ele>
        <time>2022-08-24T09:14:57Z</time>
      </trkpt>
      <trkpt lat="43.07615799999943" lon="-1.263209">
        <ele>1084.414</ele>
        <time>2022-08-24T09:14:58Z</time>
      </trkpt>
      <trkpt lat="43.07593599999943" lon="-1.263261">
        <ele>1084.609</ele>
        <time>2022-08-24T09:15:06Z</time>
      </trkpt>
      <trkpt lat="43.07590499999943" lon="-1.263271">
        <ele>1084.838</ele>
        <time>2022-08-24T09:15:07Z</time>
      </trkpt>
      <trkpt lat="43.07587599999943" lon="-1.263279">
        <ele>1084.888</ele>
        <time>2022-08-24T09:15:08Z</time>
      </trkpt>
      <trkpt lat="43.07579199999943" lon="-1.263319">
        <ele>1084.888</ele>
        <time>2022-08-24T09:15:11Z</time>
      </trkpt>
      <trkpt lat="43.07576799999943" lon="-1.2633340000000002">
        <ele>1085.224</ele>
        <time>2022-08-24T09:15:12Z</time>
      </trkpt>
      <trkpt lat="43.075743999999425" lon="-1.263354">
        <ele>1085.246</ele>
        <time>2022-08-24T09:15:13Z</time>
      </trkpt>
      <trkpt lat="43.075720999999426" lon="-1.2633770000000002">
        <ele>1085.663</ele>
        <time>2022-08-24T09:15:14Z</time>
      </trkpt>
      <trkpt lat="43.07569799999943" lon="-1.2634010000000002">
        <ele>1085.836</ele>
        <time>2022-08-24T09:15:15Z</time>
      </trkpt>
      <trkpt lat="43.07567699999943" lon="-1.2634260000000002">
        <ele>1086.220</ele>
        <time>2022-08-24T09:15:16Z</time>
      </trkpt>
      <trkpt lat="43.07565699999943" lon="-1.2634520000000002">
        <ele>1086.889</ele>
        <time>2022-08-24T09:15:17Z</time>
      </trkpt>
      <trkpt lat="43.07561699999943" lon="-1.2635040000000002">
        <ele>1087.463</ele>
        <time>2022-08-24T09:15:19Z</time>
      </trkpt>
      <trkpt lat="43.07555499999943" lon="-1.263586">
        <ele>1088.044</ele>
        <time>2022-08-24T09:15:22Z</time>
      </trkpt>
      <trkpt lat="43.075534999999434" lon="-1.263614">
        <ele>1088.218</ele>
        <time>2022-08-24T09:15:23Z</time>
      </trkpt>
      <trkpt lat="43.075534999999434" lon="-1.263614">
        <ele>1088.209</ele>
        <time>2022-08-24T09:15:24Z</time>
      </trkpt>
      <trkpt lat="43.07549699999943" lon="-1.263669">
        <ele>1088.297</ele>
        <time>2022-08-24T09:15:25Z</time>
      </trkpt>
      <trkpt lat="43.07547799999943" lon="-1.2636969999999998">
        <ele>1088.287</ele>
        <time>2022-08-24T09:15:26Z</time>
      </trkpt>
      <trkpt lat="43.07547799999943" lon="-1.2636969999999998">
        <ele>1088.277</ele>
        <time>2022-08-24T09:15:27Z</time>
      </trkpt>
      <trkpt lat="43.07544299999943" lon="-1.2637509999999998">
        <ele>1088.293</ele>
        <time>2022-08-24T09:15:28Z</time>
      </trkpt>
      <trkpt lat="43.07542599999943" lon="-1.2637749999999999">
        <ele>1088.225</ele>
        <time>2022-08-24T09:15:29Z</time>
      </trkpt>
      <trkpt lat="43.07542599999943" lon="-1.2637749999999999">
        <ele>1088.042</ele>
        <time>2022-08-24T09:15:30Z</time>
      </trkpt>
      <trkpt lat="43.075393999999434" lon="-1.2638219999999998">
        <ele>1087.855</ele>
        <time>2022-08-24T09:15:31Z</time>
      </trkpt>
      <trkpt lat="43.075381999999436" lon="-1.2638459999999998">
        <ele>1087.699</ele>
        <time>2022-08-24T09:15:32Z</time>
      </trkpt>
      <trkpt lat="43.075367999999436" lon="-1.263869">
        <ele>1087.418</ele>
        <time>2022-08-24T09:15:33Z</time>
      </trkpt>
      <trkpt lat="43.07535299999944" lon="-1.2638889999999998">
        <ele>1087.225</ele>
        <time>2022-08-24T09:15:34Z</time>
      </trkpt>
      <trkpt lat="43.075339999999436" lon="-1.263904">
        <ele>1087.026</ele>
        <time>2022-08-24T09:15:35Z</time>
      </trkpt>
      <trkpt lat="43.075334999999434" lon="-1.263911">
        <ele>1086.808</ele>
        <time>2022-08-24T09:15:36Z</time>
      </trkpt>
      <trkpt lat="43.07529899999943" lon="-1.263955">
        <ele>1084.409</ele>
        <time>2022-08-24T09:16:54Z</time>
      </trkpt>
      <trkpt lat="43.07522099999943" lon="-1.264077">
        <ele>1084.633</ele>
        <time>2022-08-24T09:16:59Z</time>
      </trkpt>
      <trkpt lat="43.07519899999943" lon="-1.264114">
        <ele>1084.883</ele>
        <time>2022-08-24T09:17:01Z</time>
      </trkpt>
      <trkpt lat="43.07518999999943" lon="-1.264131">
        <ele>1085.073</ele>
        <time>2022-08-24T09:17:02Z</time>
      </trkpt>
      <trkpt lat="43.07516799999943" lon="-1.2641689999999999">
        <ele>1085.299</ele>
        <time>2022-08-24T09:17:04Z</time>
      </trkpt>
      <trkpt lat="43.07515599999943" lon="-1.2641889999999998">
        <ele>1085.651</ele>
        <time>2022-08-24T09:17:05Z</time>
      </trkpt>
      <trkpt lat="43.07514499999943" lon="-1.2642069999999999">
        <ele>1086.038</ele>
        <time>2022-08-24T09:17:06Z</time>
      </trkpt>
      <trkpt lat="43.07513099999943" lon="-1.2642239999999998">
        <ele>1086.061</ele>
        <time>2022-08-24T09:17:07Z</time>
      </trkpt>
      <trkpt lat="43.07508099999943" lon="-1.2643059999999997">
        <ele>1086.425</ele>
        <time>2022-08-24T09:17:11Z</time>
      </trkpt>
      <trkpt lat="43.075070999999426" lon="-1.2643259999999996">
        <ele>1086.614</ele>
        <time>2022-08-24T09:17:12Z</time>
      </trkpt>
      <trkpt lat="43.075059999999425" lon="-1.2643429999999996">
        <ele>1086.643</ele>
        <time>2022-08-24T09:17:13Z</time>
      </trkpt>
      <trkpt lat="43.07504699999942" lon="-1.2643589999999996">
        <ele>1086.664</ele>
        <time>2022-08-24T09:17:14Z</time>
      </trkpt>
      <trkpt lat="43.07503699999942" lon="-1.2643759999999995">
        <ele>1086.610</ele>
        <time>2022-08-24T09:17:15Z</time>
      </trkpt>
      <trkpt lat="43.07502499999942" lon="-1.2643919999999995">
        <ele>1086.609</ele>
        <time>2022-08-24T09:17:16Z</time>
      </trkpt>
      <trkpt lat="43.07501099999942" lon="-1.2644059999999995">
        <ele>1086.665</ele>
        <time>2022-08-24T09:17:17Z</time>
      </trkpt>
      <trkpt lat="43.07499899999942" lon="-1.2644229999999994">
        <ele>1086.645</ele>
        <time>2022-08-24T09:17:18Z</time>
      </trkpt>
      <trkpt lat="43.074975999999424" lon="-1.2644629999999994">
        <ele>1086.895</ele>
        <time>2022-08-24T09:17:20Z</time>
      </trkpt>
      <trkpt lat="43.07488399999942" lon="-1.2646279999999994">
        <ele>1087.081</ele>
        <time>2022-08-24T09:17:28Z</time>
      </trkpt>
      <trkpt lat="43.07483899999942" lon="-1.2647099999999993">
        <ele>1087.023</ele>
        <time>2022-08-24T09:17:32Z</time>
      </trkpt>
      <trkpt lat="43.07482799999942" lon="-1.2647279999999994">
        <ele>1087.040</ele>
        <time>2022-08-24T09:17:33Z</time>
      </trkpt>
      <trkpt lat="43.07480599999942" lon="-1.2647699999999995">
        <ele>1087.063</ele>
        <time>2022-08-24T09:17:35Z</time>
      </trkpt>
      <trkpt lat="43.07479799999942" lon="-1.2647909999999996">
        <ele>1087.057</ele>
        <time>2022-08-24T09:17:36Z</time>
      </trkpt>
      <trkpt lat="43.07478699999942" lon="-1.2648129999999995">
        <ele>1087.046</ele>
        <time>2022-08-24T09:17:37Z</time>
      </trkpt>
      <trkpt lat="43.07477499999942" lon="-1.2648359999999996">
        <ele>1087.077</ele>
        <time>2022-08-24T09:17:38Z</time>
      </trkpt>
      <trkpt lat="43.07471799999942" lon="-1.2649409999999996">
        <ele>1087.261</ele>
        <time>2022-08-24T09:17:43Z</time>
      </trkpt>
      <trkpt lat="43.07470599999942" lon="-1.2649609999999996">
        <ele>1087.227</ele>
        <time>2022-08-24T09:17:44Z</time>
      </trkpt>
      <trkpt lat="43.07469499999942" lon="-1.2649809999999995">
        <ele>1087.209</ele>
        <time>2022-08-24T09:17:45Z</time>
      </trkpt>
      <trkpt lat="43.07468499999942" lon="-1.2650009999999994">
        <ele>1087.488</ele>
        <time>2022-08-24T09:17:46Z</time>
      </trkpt>
      <trkpt lat="43.07467499999942" lon="-1.2650229999999993">
        <ele>1087.448</ele>
        <time>2022-08-24T09:17:47Z</time>
      </trkpt>
      <trkpt lat="43.07466499999941" lon="-1.2650449999999993">
        <ele>1087.418</ele>
        <time>2022-08-24T09:17:48Z</time>
      </trkpt>
      <trkpt lat="43.074644999999414" lon="-1.2650919999999992">
        <ele>1087.674</ele>
        <time>2022-08-24T09:17:50Z</time>
      </trkpt>
      <trkpt lat="43.07463499999941" lon="-1.2651149999999993">
        <ele>1087.656</ele>
        <time>2022-08-24T09:17:51Z</time>
      </trkpt>
      <trkpt lat="43.074602999999414" lon="-1.2651759999999994">
        <ele>1088.093</ele>
        <time>2022-08-24T09:17:54Z</time>
      </trkpt>
      <trkpt lat="43.074570999999416" lon="-1.2652359999999994">
        <ele>1088.466</ele>
        <time>2022-08-24T09:17:57Z</time>
      </trkpt>
      <trkpt lat="43.074559999999416" lon="-1.2652569999999994">
        <ele>1088.640</ele>
        <time>2022-08-24T09:17:58Z</time>
      </trkpt>
      <trkpt lat="43.074525999999416" lon="-1.2653159999999994">
        <ele>1088.619</ele>
        <time>2022-08-24T09:18:01Z</time>
      </trkpt>
      <trkpt lat="43.074503999999415" lon="-1.2653579999999995">
        <ele>1088.856</ele>
        <time>2022-08-24T09:18:03Z</time>
      </trkpt>
      <trkpt lat="43.07449399999941" lon="-1.2653779999999994">
        <ele>1089.059</ele>
        <time>2022-08-24T09:18:04Z</time>
      </trkpt>
      <trkpt lat="43.07448099999941" lon="-1.2653989999999995">
        <ele>1089.214</ele>
        <time>2022-08-24T09:18:05Z</time>
      </trkpt>
      <trkpt lat="43.07447199999941" lon="-1.2654119999999995">
        <ele>1089.209</ele>
        <time>2022-08-24T09:18:06Z</time>
      </trkpt>
      <trkpt lat="43.07445899999941" lon="-1.2654299999999996">
        <ele>1089.226</ele>
        <time>2022-08-24T09:18:07Z</time>
      </trkpt>
      <trkpt lat="43.074436999999406" lon="-1.2654709999999996">
        <ele>1089.436</ele>
        <time>2022-08-24T09:18:09Z</time>
      </trkpt>
      <trkpt lat="43.07442799999941" lon="-1.2654899999999996">
        <ele>1089.626</ele>
        <time>2022-08-24T09:18:10Z</time>
      </trkpt>
      <trkpt lat="43.07441899999941" lon="-1.2655079999999996">
        <ele>1089.882</ele>
        <time>2022-08-24T09:18:11Z</time>
      </trkpt>
      <trkpt lat="43.07436999999941" lon="-1.2656069999999997">
        <ele>1090.484</ele>
        <time>2022-08-24T09:18:16Z</time>
      </trkpt>
      <trkpt lat="43.074357999999414" lon="-1.2656259999999997">
        <ele>1090.671</ele>
        <time>2022-08-24T09:18:17Z</time>
      </trkpt>
      <trkpt lat="43.074348999999415" lon="-1.2656449999999997">
        <ele>1090.654</ele>
        <time>2022-08-24T09:18:18Z</time>
      </trkpt>
      <trkpt lat="43.07433899999941" lon="-1.2656629999999998">
        <ele>1090.878</ele>
        <time>2022-08-24T09:18:19Z</time>
      </trkpt>
      <trkpt lat="43.074326999999414" lon="-1.2656839999999998">
        <ele>1090.847</ele>
        <time>2022-08-24T09:18:20Z</time>
      </trkpt>
      <trkpt lat="43.074317999999415" lon="-1.2657059999999998">
        <ele>1091.083</ele>
        <time>2022-08-24T09:18:21Z</time>
      </trkpt>
      <trkpt lat="43.07430899999942" lon="-1.2657279999999997">
        <ele>1091.425</ele>
        <time>2022-08-24T09:18:22Z</time>
      </trkpt>
      <trkpt lat="43.074298999999414" lon="-1.2657479999999997">
        <ele>1091.617</ele>
        <time>2022-08-24T09:18:23Z</time>
      </trkpt>
      <trkpt lat="43.074289999999415" lon="-1.2657669999999996">
        <ele>1091.809</ele>
        <time>2022-08-24T09:18:24Z</time>
      </trkpt>
      <trkpt lat="43.074278999999414" lon="-1.2657859999999996">
        <ele>1092.059</ele>
        <time>2022-08-24T09:18:25Z</time>
      </trkpt>
      <trkpt lat="43.074269999999416" lon="-1.2658059999999995">
        <ele>1092.029</ele>
        <time>2022-08-24T09:18:26Z</time>
      </trkpt>
      <trkpt lat="43.07425999999941" lon="-1.2658259999999995">
        <ele>1092.029</ele>
        <time>2022-08-24T09:18:27Z</time>
      </trkpt>
      <trkpt lat="43.07425199999941" lon="-1.2658479999999994">
        <ele>1092.215</ele>
        <time>2022-08-24T09:18:28Z</time>
      </trkpt>
      <trkpt lat="43.07424099999941" lon="-1.2658689999999995">
        <ele>1092.437</ele>
        <time>2022-08-24T09:18:29Z</time>
      </trkpt>
      <trkpt lat="43.07423099999941" lon="-1.2658889999999994">
        <ele>1092.484</ele>
        <time>2022-08-24T09:18:30Z</time>
      </trkpt>
      <trkpt lat="43.074220999999405" lon="-1.2659079999999994">
        <ele>1092.667</ele>
        <time>2022-08-24T09:18:31Z</time>
      </trkpt>
      <trkpt lat="43.0742129999994" lon="-1.2659279999999993">
        <ele>1092.861</ele>
        <time>2022-08-24T09:18:32Z</time>
      </trkpt>
      <trkpt lat="43.0742029999994" lon="-1.2659489999999993">
        <ele>1093.020</ele>
        <time>2022-08-24T09:18:33Z</time>
      </trkpt>
      <trkpt lat="43.0741949999994" lon="-1.2659689999999992">
        <ele>1093.057</ele>
        <time>2022-08-24T09:18:34Z</time>
      </trkpt>
      <trkpt lat="43.074184999999396" lon="-1.2659909999999992">
        <ele>1093.400</ele>
        <time>2022-08-24T09:18:35Z</time>
      </trkpt>
      <trkpt lat="43.074173999999395" lon="-1.2660129999999992">
        <ele>1093.620</ele>
        <time>2022-08-24T09:18:36Z</time>
      </trkpt>
      <trkpt lat="43.074162999999395" lon="-1.2660319999999992">
        <ele>1093.609</ele>
        <time>2022-08-24T09:18:37Z</time>
      </trkpt>
      <trkpt lat="43.07415299999939" lon="-1.2660509999999991">
        <ele>1093.836</ele>
        <time>2022-08-24T09:18:38Z</time>
      </trkpt>
      <trkpt lat="43.07414499999939" lon="-1.2660719999999992">
        <ele>1094.066</ele>
        <time>2022-08-24T09:18:39Z</time>
      </trkpt>
      <trkpt lat="43.074137999999394" lon="-1.2660899999999993">
        <ele>1094.066</ele>
        <time>2022-08-24T09:18:40Z</time>
      </trkpt>
      <trkpt lat="43.0741309999994" lon="-1.2661079999999993">
        <ele>1094.072</ele>
        <time>2022-08-24T09:18:41Z</time>
      </trkpt>
      <trkpt lat="43.0741249999994" lon="-1.2661259999999994">
        <ele>1094.294</ele>
        <time>2022-08-24T09:18:42Z</time>
      </trkpt>
      <trkpt lat="43.0741179999994" lon="-1.2661449999999994">
        <ele>1094.231</ele>
        <time>2022-08-24T09:18:43Z</time>
      </trkpt>
      <trkpt lat="43.0741089999994" lon="-1.2661649999999993">
        <ele>1094.294</ele>
        <time>2022-08-24T09:18:44Z</time>
      </trkpt>
      <trkpt lat="43.0740989999994" lon="-1.2661849999999992">
        <ele>1094.278</ele>
        <time>2022-08-24T09:18:45Z</time>
      </trkpt>
      <trkpt lat="43.0740879999994" lon="-1.2662029999999993">
        <ele>1094.487</ele>
        <time>2022-08-24T09:18:46Z</time>
      </trkpt>
      <trkpt lat="43.0740799999994" lon="-1.2662179999999994">
        <ele>1094.431</ele>
        <time>2022-08-24T09:18:47Z</time>
      </trkpt>
      <trkpt lat="43.074069999999395" lon="-1.2662329999999995">
        <ele>1094.661</ele>
        <time>2022-08-24T09:18:48Z</time>
      </trkpt>
      <trkpt lat="43.07405999999939" lon="-1.2662479999999996">
        <ele>1094.807</ele>
        <time>2022-08-24T09:18:49Z</time>
      </trkpt>
      <trkpt lat="43.07404599999939" lon="-1.2662659999999997">
        <ele>1095.009</ele>
        <time>2022-08-24T09:18:50Z</time>
      </trkpt>
      <trkpt lat="43.07403699999939" lon="-1.2662839999999997">
        <ele>1095.084</ele>
        <time>2022-08-24T09:18:51Z</time>
      </trkpt>
      <trkpt lat="43.07402699999939" lon="-1.2662969999999998">
        <ele>1095.244</ele>
        <time>2022-08-24T09:18:52Z</time>
      </trkpt>
      <trkpt lat="43.07401699999939" lon="-1.2663109999999997">
        <ele>1095.224</ele>
        <time>2022-08-24T09:18:53Z</time>
      </trkpt>
      <trkpt lat="43.074005999999386" lon="-1.2663239999999998">
        <ele>1095.450</ele>
        <time>2022-08-24T09:18:54Z</time>
      </trkpt>
      <trkpt lat="43.073991999999386" lon="-1.2663369999999998">
        <ele>1095.692</ele>
        <time>2022-08-24T09:18:55Z</time>
      </trkpt>
      <trkpt lat="43.07397999999939" lon="-1.2663479999999998">
        <ele>1095.849</ele>
        <time>2022-08-24T09:18:56Z</time>
      </trkpt>
      <trkpt lat="43.07397099999939" lon="-1.2663599999999997">
        <ele>1095.822</ele>
        <time>2022-08-24T09:18:57Z</time>
      </trkpt>
      <trkpt lat="43.073960999999386" lon="-1.2663729999999997">
        <ele>1096.076</ele>
        <time>2022-08-24T09:18:58Z</time>
      </trkpt>
      <trkpt lat="43.073949999999385" lon="-1.2663859999999998">
        <ele>1096.085</ele>
        <time>2022-08-24T09:18:59Z</time>
      </trkpt>
      <trkpt lat="43.07393499999939" lon="-1.2663989999999998">
        <ele>1096.062</ele>
        <time>2022-08-24T09:19:00Z</time>
      </trkpt>
      <trkpt lat="43.07392099999939" lon="-1.2664079999999998">
        <ele>1096.483</ele>
        <time>2022-08-24T09:19:01Z</time>
      </trkpt>
      <trkpt lat="43.07390699999939" lon="-1.2664169999999997">
        <ele>1096.811</ele>
        <time>2022-08-24T09:19:02Z</time>
      </trkpt>
      <trkpt lat="43.07389499999939" lon="-1.2664269999999997">
        <ele>1097.009</ele>
        <time>2022-08-24T09:19:03Z</time>
      </trkpt>
      <trkpt lat="43.07388399999939" lon="-1.2664369999999998">
        <ele>1097.487</ele>
        <time>2022-08-24T09:19:04Z</time>
      </trkpt>
      <trkpt lat="43.07387199999939" lon="-1.2664459999999997">
        <ele>1097.447</ele>
        <time>2022-08-24T09:19:05Z</time>
      </trkpt>
      <trkpt lat="43.07385999999939" lon="-1.2664539999999997">
        <ele>1097.667</ele>
        <time>2022-08-24T09:19:06Z</time>
      </trkpt>
      <trkpt lat="43.07384599999939" lon="-1.2664609999999998">
        <ele>1097.833</ele>
        <time>2022-08-24T09:19:07Z</time>
      </trkpt>
      <trkpt lat="43.07383199999939" lon="-1.266468">
        <ele>1097.865</ele>
        <time>2022-08-24T09:19:08Z</time>
      </trkpt>
      <trkpt lat="43.07383199999939" lon="-1.266468">
        <ele>1097.832</ele>
        <time>2022-08-24T09:19:09Z</time>
      </trkpt>
      <trkpt lat="43.07380099999939" lon="-1.266483">
        <ele>1098.035</ele>
        <time>2022-08-24T09:19:10Z</time>
      </trkpt>
      <trkpt lat="43.07378699999939" lon="-1.266488">
        <ele>1098.249</ele>
        <time>2022-08-24T09:19:11Z</time>
      </trkpt>
      <trkpt lat="43.07377399999939" lon="-1.266494">
        <ele>1098.448</ele>
        <time>2022-08-24T09:19:12Z</time>
      </trkpt>
      <trkpt lat="43.07376099999939" lon="-1.2665">
        <ele>1098.638</ele>
        <time>2022-08-24T09:19:13Z</time>
      </trkpt>
      <trkpt lat="43.07374599999939" lon="-1.266505">
        <ele>1099.070</ele>
        <time>2022-08-24T09:19:14Z</time>
      </trkpt>
      <trkpt lat="43.07372999999939" lon="-1.2665089999999999">
        <ele>1099.217</ele>
        <time>2022-08-24T09:19:15Z</time>
      </trkpt>
      <trkpt lat="43.073713999999384" lon="-1.2665149999999998">
        <ele>1099.409</ele>
        <time>2022-08-24T09:19:16Z</time>
      </trkpt>
      <trkpt lat="43.07369799999938" lon="-1.2665199999999999">
        <ele>1099.684</ele>
        <time>2022-08-24T09:19:17Z</time>
      </trkpt>
      <trkpt lat="43.073682999999384" lon="-1.266527">
        <ele>1099.644</ele>
        <time>2022-08-24T09:19:18Z</time>
      </trkpt>
      <trkpt lat="43.07366799999939" lon="-1.2665359999999999">
        <ele>1100.044</ele>
        <time>2022-08-24T09:19:19Z</time>
      </trkpt>
      <trkpt lat="43.07365599999939" lon="-1.266544">
        <ele>1100.440</ele>
        <time>2022-08-24T09:19:20Z</time>
      </trkpt>
      <trkpt lat="43.07364099999939" lon="-1.266551">
        <ele>1100.442</ele>
        <time>2022-08-24T09:19:21Z</time>
      </trkpt>
      <trkpt lat="43.07362499999939" lon="-1.266556">
        <ele>1100.889</ele>
        <time>2022-08-24T09:19:22Z</time>
      </trkpt>
      <trkpt lat="43.07360699999939" lon="-1.26656">
        <ele>1101.022</ele>
        <time>2022-08-24T09:19:23Z</time>
      </trkpt>
      <trkpt lat="43.07359099999939" lon="-1.266565">
        <ele>1101.086</ele>
        <time>2022-08-24T09:19:24Z</time>
      </trkpt>
      <trkpt lat="43.07357499999939" lon="-1.2665739999999999">
        <ele>1101.035</ele>
        <time>2022-08-24T09:19:25Z</time>
      </trkpt>
      <trkpt lat="43.073558999999385" lon="-1.2665819999999999">
        <ele>1101.475</ele>
        <time>2022-08-24T09:19:26Z</time>
      </trkpt>
      <trkpt lat="43.07354399999939" lon="-1.266587">
        <ele>1101.628</ele>
        <time>2022-08-24T09:19:27Z</time>
      </trkpt>
      <trkpt lat="43.07352599999939" lon="-1.266592">
        <ele>1101.820</ele>
        <time>2022-08-24T09:19:28Z</time>
      </trkpt>
      <trkpt lat="43.07351099999939" lon="-1.266597">
        <ele>1102.009</ele>
        <time>2022-08-24T09:19:29Z</time>
      </trkpt>
      <trkpt lat="43.07349399999939" lon="-1.266604">
        <ele>1102.238</ele>
        <time>2022-08-24T09:19:30Z</time>
      </trkpt>
      <trkpt lat="43.073478999999395" lon="-1.266609">
        <ele>1102.488</ele>
        <time>2022-08-24T09:19:31Z</time>
      </trkpt>
      <trkpt lat="43.073461999999395" lon="-1.266615">
        <ele>1102.628</ele>
        <time>2022-08-24T09:19:32Z</time>
      </trkpt>
      <trkpt lat="43.07344599999939" lon="-1.266619">
        <ele>1102.854</ele>
        <time>2022-08-24T09:19:33Z</time>
      </trkpt>
      <trkpt lat="43.07342999999939" lon="-1.266622">
        <ele>1103.056</ele>
        <time>2022-08-24T09:19:34Z</time>
      </trkpt>
      <trkpt lat="43.07341399999939" lon="-1.2666279999999999">
        <ele>1103.233</ele>
        <time>2022-08-24T09:19:35Z</time>
      </trkpt>
      <trkpt lat="43.073400999999386" lon="-1.2666319999999998">
        <ele>1103.446</ele>
        <time>2022-08-24T09:19:36Z</time>
      </trkpt>
      <trkpt lat="43.073384999999384" lon="-1.2666389999999998">
        <ele>1103.690</ele>
        <time>2022-08-24T09:19:37Z</time>
      </trkpt>
      <trkpt lat="43.07336899999938" lon="-1.2666429999999997">
        <ele>1103.849</ele>
        <time>2022-08-24T09:19:38Z</time>
      </trkpt>
      <trkpt lat="43.07335599999938" lon="-1.2666439999999997">
        <ele>1104.055</ele>
        <time>2022-08-24T09:19:39Z</time>
      </trkpt>
      <trkpt lat="43.07334199999938" lon="-1.2666459999999997">
        <ele>1104.207</ele>
        <time>2022-08-24T09:19:40Z</time>
      </trkpt>
      <trkpt lat="43.07332699999938" lon="-1.2666509999999997">
        <ele>1104.217</ele>
        <time>2022-08-24T09:19:41Z</time>
      </trkpt>
      <trkpt lat="43.07331099999938" lon="-1.2666569999999997">
        <ele>1104.409</ele>
        <time>2022-08-24T09:19:42Z</time>
      </trkpt>
      <trkpt lat="43.07329699999938" lon="-1.2666619999999997">
        <ele>1104.416</ele>
        <time>2022-08-24T09:19:43Z</time>
      </trkpt>
      <trkpt lat="43.073283999999376" lon="-1.2666649999999997">
        <ele>1104.686</ele>
        <time>2022-08-24T09:19:44Z</time>
      </trkpt>
      <trkpt lat="43.073269999999376" lon="-1.2666709999999997">
        <ele>1104.836</ele>
        <time>2022-08-24T09:19:45Z</time>
      </trkpt>
      <trkpt lat="43.07325399999937" lon="-1.2666779999999997">
        <ele>1104.852</ele>
        <time>2022-08-24T09:19:46Z</time>
      </trkpt>
      <trkpt lat="43.073236999999374" lon="-1.2666839999999997">
        <ele>1105.064</ele>
        <time>2022-08-24T09:19:47Z</time>
      </trkpt>
      <trkpt lat="43.073218999999376" lon="-1.2666879999999996">
        <ele>1105.291</ele>
        <time>2022-08-24T09:19:48Z</time>
      </trkpt>
      <trkpt lat="43.073218999999376" lon="-1.2666879999999996">
        <ele>1105.424</ele>
        <time>2022-08-24T09:19:49Z</time>
      </trkpt>
      <trkpt lat="43.07318799999938" lon="-1.2666959999999996">
        <ele>1105.458</ele>
        <time>2022-08-24T09:19:50Z</time>
      </trkpt>
      <trkpt lat="43.073171999999374" lon="-1.2666999999999995">
        <ele>1105.637</ele>
        <time>2022-08-24T09:19:51Z</time>
      </trkpt>
      <trkpt lat="43.07315599999937" lon="-1.2667059999999994">
        <ele>1105.839</ele>
        <time>2022-08-24T09:19:52Z</time>
      </trkpt>
      <trkpt lat="43.07313899999937" lon="-1.2667119999999994">
        <ele>1106.001</ele>
        <time>2022-08-24T09:19:53Z</time>
      </trkpt>
      <trkpt lat="43.07312299999937" lon="-1.2667169999999994">
        <ele>1106.021</ele>
        <time>2022-08-24T09:19:54Z</time>
      </trkpt>
      <trkpt lat="43.07310499999937" lon="-1.2667229999999994">
        <ele>1106.209</ele>
        <time>2022-08-24T09:19:55Z</time>
      </trkpt>
      <trkpt lat="43.073089999999375" lon="-1.2667279999999994">
        <ele>1106.484</ele>
        <time>2022-08-24T09:19:56Z</time>
      </trkpt>
      <trkpt lat="43.07307699999937" lon="-1.2667319999999993">
        <ele>1106.434</ele>
        <time>2022-08-24T09:19:57Z</time>
      </trkpt>
      <trkpt lat="43.073058999999375" lon="-1.2667359999999992">
        <ele>1106.624</ele>
        <time>2022-08-24T09:19:58Z</time>
      </trkpt>
      <trkpt lat="43.073041999999376" lon="-1.2667409999999992">
        <ele>1106.680</ele>
        <time>2022-08-24T09:19:59Z</time>
      </trkpt>
      <trkpt lat="43.07302699999938" lon="-1.2667479999999993">
        <ele>1106.832</ele>
        <time>2022-08-24T09:20:00Z</time>
      </trkpt>
      <trkpt lat="43.07301199999938" lon="-1.2667519999999992">
        <ele>1106.869</ele>
        <time>2022-08-24T09:20:01Z</time>
      </trkpt>
      <trkpt lat="43.07299399999938" lon="-1.2667519999999992">
        <ele>1107.052</ele>
        <time>2022-08-24T09:20:02Z</time>
      </trkpt>
      <trkpt lat="43.072975999999386" lon="-1.2667519999999992">
        <ele>1107.256</ele>
        <time>2022-08-24T09:20:03Z</time>
      </trkpt>
      <trkpt lat="43.072958999999386" lon="-1.2667539999999993">
        <ele>1107.255</ele>
        <time>2022-08-24T09:20:04Z</time>
      </trkpt>
      <trkpt lat="43.07294099999939" lon="-1.2667569999999992">
        <ele>1107.444</ele>
        <time>2022-08-24T09:20:05Z</time>
      </trkpt>
      <trkpt lat="43.07292199999939" lon="-1.2667599999999992">
        <ele>1107.605</ele>
        <time>2022-08-24T09:20:06Z</time>
      </trkpt>
      <trkpt lat="43.072902999999386" lon="-1.2667619999999993">
        <ele>1107.815</ele>
        <time>2022-08-24T09:20:07Z</time>
      </trkpt>
      <trkpt lat="43.07288699999938" lon="-1.2667649999999993">
        <ele>1108.009</ele>
        <time>2022-08-24T09:20:08Z</time>
      </trkpt>
      <trkpt lat="43.072871999999386" lon="-1.2667659999999992">
        <ele>1108.045</ele>
        <time>2022-08-24T09:20:09Z</time>
      </trkpt>
      <trkpt lat="43.072854999999386" lon="-1.2667639999999991">
        <ele>1108.255</ele>
        <time>2022-08-24T09:20:10Z</time>
      </trkpt>
      <trkpt lat="43.072840999999386" lon="-1.2667639999999991">
        <ele>1108.475</ele>
        <time>2022-08-24T09:20:11Z</time>
      </trkpt>
      <trkpt lat="43.072823999999386" lon="-1.2667639999999991">
        <ele>1108.481</ele>
        <time>2022-08-24T09:20:12Z</time>
      </trkpt>
      <trkpt lat="43.072807999999384" lon="-1.2667629999999992">
        <ele>1108.633</ele>
        <time>2022-08-24T09:20:13Z</time>
      </trkpt>
      <trkpt lat="43.07278999999939" lon="-1.2667639999999991">
        <ele>1108.610</ele>
        <time>2022-08-24T09:20:14Z</time>
      </trkpt>
      <trkpt lat="43.07277299999939" lon="-1.2667659999999992">
        <ele>1109.023</ele>
        <time>2022-08-24T09:20:15Z</time>
      </trkpt>
      <trkpt lat="43.07275499999939" lon="-1.2667639999999991">
        <ele>1109.077</ele>
        <time>2022-08-24T09:20:16Z</time>
      </trkpt>
      <trkpt lat="43.07273699999939" lon="-1.2667629999999992">
        <ele>1109.286</ele>
        <time>2022-08-24T09:20:17Z</time>
      </trkpt>
      <trkpt lat="43.072718999999395" lon="-1.2667629999999992">
        <ele>1109.242</ele>
        <time>2022-08-24T09:20:18Z</time>
      </trkpt>
      <trkpt lat="43.072701999999396" lon="-1.2667619999999993">
        <ele>1109.222</ele>
        <time>2022-08-24T09:20:19Z</time>
      </trkpt>
      <trkpt lat="43.0726839999994" lon="-1.2667589999999993">
        <ele>1109.414</ele>
        <time>2022-08-24T09:20:20Z</time>
      </trkpt>
      <trkpt lat="43.0726669999994" lon="-1.2667559999999993">
        <ele>1109.409</ele>
        <time>2022-08-24T09:20:21Z</time>
      </trkpt>
      <trkpt lat="43.0726469999994" lon="-1.2667549999999994">
        <ele>1109.635</ele>
        <time>2022-08-24T09:20:22Z</time>
      </trkpt>
      <trkpt lat="43.0726279999994" lon="-1.2667529999999994">
        <ele>1109.665</ele>
        <time>2022-08-24T09:20:23Z</time>
      </trkpt>
      <trkpt lat="43.072608999999396" lon="-1.2667489999999995">
        <ele>1109.835</ele>
        <time>2022-08-24T09:20:24Z</time>
      </trkpt>
      <trkpt lat="43.0725889999994" lon="-1.2667469999999994">
        <ele>1110.241</ele>
        <time>2022-08-24T09:20:25Z</time>
      </trkpt>
      <trkpt lat="43.0725719999994" lon="-1.2667439999999994">
        <ele>1110.053</ele>
        <time>2022-08-24T09:20:26Z</time>
      </trkpt>
      <trkpt lat="43.0725539999994" lon="-1.2667399999999995">
        <ele>1110.290</ele>
        <time>2022-08-24T09:20:27Z</time>
      </trkpt>
      <trkpt lat="43.0725379999994" lon="-1.2667379999999995">
        <ele>1110.023</ele>
        <time>2022-08-24T09:20:28Z</time>
      </trkpt>
      <trkpt lat="43.0725209999994" lon="-1.2667329999999994">
        <ele>1110.447</ele>
        <time>2022-08-24T09:20:29Z</time>
      </trkpt>
      <trkpt lat="43.0725059999994" lon="-1.2667259999999994">
        <ele>1110.466</ele>
        <time>2022-08-24T09:20:30Z</time>
      </trkpt>
      <trkpt lat="43.0724909999994" lon="-1.2667209999999993">
        <ele>1110.658</ele>
        <time>2022-08-24T09:20:31Z</time>
      </trkpt>
      <trkpt lat="43.0724749999994" lon="-1.2667159999999993">
        <ele>1110.852</ele>
        <time>2022-08-24T09:20:32Z</time>
      </trkpt>
      <trkpt lat="43.0724579999994" lon="-1.2667129999999993">
        <ele>1110.817</ele>
        <time>2022-08-24T09:20:33Z</time>
      </trkpt>
      <trkpt lat="43.0724419999994" lon="-1.2667109999999993">
        <ele>1111.009</ele>
        <time>2022-08-24T09:20:34Z</time>
      </trkpt>
      <trkpt lat="43.0724239999994" lon="-1.2667079999999993">
        <ele>1111.066</ele>
        <time>2022-08-24T09:20:35Z</time>
      </trkpt>
      <trkpt lat="43.072405999999404" lon="-1.2667039999999994">
        <ele>1111.276</ele>
        <time>2022-08-24T09:20:36Z</time>
      </trkpt>
      <trkpt lat="43.072388999999404" lon="-1.2666999999999995">
        <ele>1111.466</ele>
        <time>2022-08-24T09:20:37Z</time>
      </trkpt>
      <trkpt lat="43.0723729999994" lon="-1.2666919999999995">
        <ele>1111.662</ele>
        <time>2022-08-24T09:20:38Z</time>
      </trkpt>
      <trkpt lat="43.0723559999994" lon="-1.2666849999999994">
        <ele>1111.884</ele>
        <time>2022-08-24T09:20:39Z</time>
      </trkpt>
      <trkpt lat="43.0723389999994" lon="-1.2666819999999994">
        <ele>1111.821</ele>
        <time>2022-08-24T09:20:40Z</time>
      </trkpt>
      <trkpt lat="43.072320999999405" lon="-1.2666809999999995">
        <ele>1112.074</ele>
        <time>2022-08-24T09:20:41Z</time>
      </trkpt>
      <trkpt lat="43.07230299999941" lon="-1.2666769999999996">
        <ele>1112.028</ele>
        <time>2022-08-24T09:20:42Z</time>
      </trkpt>
      <trkpt lat="43.07228599999941" lon="-1.2666709999999997">
        <ele>1112.097</ele>
        <time>2022-08-24T09:20:43Z</time>
      </trkpt>
      <trkpt lat="43.07226899999941" lon="-1.2666649999999997">
        <ele>1112.257</ele>
        <time>2022-08-24T09:20:44Z</time>
      </trkpt>
      <trkpt lat="43.07225099999941" lon="-1.2666599999999997">
        <ele>1112.200</ele>
        <time>2022-08-24T09:20:45Z</time>
      </trkpt>
      <trkpt lat="43.07223399999941" lon="-1.2666569999999997">
        <ele>1112.220</ele>
        <time>2022-08-24T09:20:46Z</time>
      </trkpt>
      <trkpt lat="43.07221799999941" lon="-1.2666529999999998">
        <ele>1112.409</ele>
        <time>2022-08-24T09:20:47Z</time>
      </trkpt>
      <trkpt lat="43.07219999999941" lon="-1.2666479999999998">
        <ele>1112.486</ele>
        <time>2022-08-24T09:20:48Z</time>
      </trkpt>
      <trkpt lat="43.072184999999415" lon="-1.2666429999999997">
        <ele>1112.626</ele>
        <time>2022-08-24T09:20:49Z</time>
      </trkpt>
      <trkpt lat="43.07216899999941" lon="-1.2666389999999998">
        <ele>1112.696</ele>
        <time>2022-08-24T09:20:50Z</time>
      </trkpt>
      <trkpt lat="43.07215199999941" lon="-1.2666339999999998">
        <ele>1112.882</ele>
        <time>2022-08-24T09:20:51Z</time>
      </trkpt>
      <trkpt lat="43.07213299999941" lon="-1.2666309999999998">
        <ele>1113.044</ele>
        <time>2022-08-24T09:20:52Z</time>
      </trkpt>
      <trkpt lat="43.07211299999941" lon="-1.2666289999999998">
        <ele>1113.081</ele>
        <time>2022-08-24T09:20:53Z</time>
      </trkpt>
      <trkpt lat="43.07209599999941" lon="-1.2666269999999997">
        <ele>1113.284</ele>
        <time>2022-08-24T09:20:54Z</time>
      </trkpt>
      <trkpt lat="43.07207999999941" lon="-1.2666219999999997">
        <ele>1113.468</ele>
        <time>2022-08-24T09:20:55Z</time>
      </trkpt>
      <trkpt lat="43.07206299999941" lon="-1.2666169999999997">
        <ele>1113.627</ele>
        <time>2022-08-24T09:20:56Z</time>
      </trkpt>
      <trkpt lat="43.07204499999941" lon="-1.2666129999999998">
        <ele>1113.872</ele>
        <time>2022-08-24T09:20:57Z</time>
      </trkpt>
      <trkpt lat="43.072024999999414" lon="-1.2666079999999997">
        <ele>1113.813</ele>
        <time>2022-08-24T09:20:58Z</time>
      </trkpt>
      <trkpt lat="43.07200699999942" lon="-1.2666049999999998">
        <ele>1114.014</ele>
        <time>2022-08-24T09:20:59Z</time>
      </trkpt>
      <trkpt lat="43.07198899999942" lon="-1.2665989999999998">
        <ele>1114.009</ele>
        <time>2022-08-24T09:21:00Z</time>
      </trkpt>
      <trkpt lat="43.07197099999942" lon="-1.266595">
        <ele>1114.038</ele>
        <time>2022-08-24T09:21:01Z</time>
      </trkpt>
      <trkpt lat="43.07195399999942" lon="-1.2665899999999999">
        <ele>1114.268</ele>
        <time>2022-08-24T09:21:02Z</time>
      </trkpt>
      <trkpt lat="43.071935999999425" lon="-1.266587">
        <ele>1114.488</ele>
        <time>2022-08-24T09:21:03Z</time>
      </trkpt>
      <trkpt lat="43.07191799999943" lon="-1.2665849999999998">
        <ele>1114.464</ele>
        <time>2022-08-24T09:21:04Z</time>
      </trkpt>
      <trkpt lat="43.07190099999943" lon="-1.266587">
        <ele>1114.436</ele>
        <time>2022-08-24T09:21:05Z</time>
      </trkpt>
      <trkpt lat="43.07188299999943" lon="-1.266587">
        <ele>1114.683</ele>
        <time>2022-08-24T09:21:06Z</time>
      </trkpt>
      <trkpt lat="43.07186599999943" lon="-1.266584">
        <ele>1114.676</ele>
        <time>2022-08-24T09:21:07Z</time>
      </trkpt>
      <trkpt lat="43.071850999999434" lon="-1.2665819999999999">
        <ele>1114.830</ele>
        <time>2022-08-24T09:21:08Z</time>
      </trkpt>
      <trkpt lat="43.07183499999943" lon="-1.266584">
        <ele>1114.849</ele>
        <time>2022-08-24T09:21:09Z</time>
      </trkpt>
      <trkpt lat="43.07181799999943" lon="-1.266583">
        <ele>1115.046</ele>
        <time>2022-08-24T09:21:10Z</time>
      </trkpt>
      <trkpt lat="43.07180199999943" lon="-1.266582">
        <ele>1114.888</ele>
        <time>2022-08-24T09:21:11Z</time>
      </trkpt>
      <trkpt lat="43.07178499999943" lon="-1.26658">
        <ele>1115.016</ele>
        <time>2022-08-24T09:21:12Z</time>
      </trkpt>
      <trkpt lat="43.07176599999943" lon="-1.2665790000000001">
        <ele>1115.009</ele>
        <time>2022-08-24T09:21:13Z</time>
      </trkpt>
      <trkpt lat="43.07174799999943" lon="-1.26658">
        <ele>1115.455</ele>
        <time>2022-08-24T09:21:14Z</time>
      </trkpt>
      <trkpt lat="43.071729999999434" lon="-1.266583">
        <ele>1115.635</ele>
        <time>2022-08-24T09:21:15Z</time>
      </trkpt>
      <trkpt lat="43.071712999999434" lon="-1.266584">
        <ele>1115.875</ele>
        <time>2022-08-24T09:21:16Z</time>
      </trkpt>
      <trkpt lat="43.071695999999434" lon="-1.2665849999999998">
        <ele>1116.091</ele>
        <time>2022-08-24T09:21:17Z</time>
      </trkpt>
      <trkpt lat="43.07167799999944" lon="-1.266584">
        <ele>1116.033</ele>
        <time>2022-08-24T09:21:18Z</time>
      </trkpt>
      <trkpt lat="43.071658999999435" lon="-1.26658">
        <ele>1116.410</ele>
        <time>2022-08-24T09:21:19Z</time>
      </trkpt>
      <trkpt lat="43.07164299999943" lon="-1.266581">
        <ele>1116.473</ele>
        <time>2022-08-24T09:21:20Z</time>
      </trkpt>
      <trkpt lat="43.07162599999943" lon="-1.266584">
        <ele>1116.617</ele>
        <time>2022-08-24T09:21:21Z</time>
      </trkpt>
      <trkpt lat="43.071607999999436" lon="-1.2665849999999998">
        <ele>1116.696</ele>
        <time>2022-08-24T09:21:22Z</time>
      </trkpt>
      <trkpt lat="43.07159099999944" lon="-1.2665889999999997">
        <ele>1116.643</ele>
        <time>2022-08-24T09:21:23Z</time>
      </trkpt>
      <trkpt lat="43.071574999999434" lon="-1.2665949999999997">
        <ele>1116.664</ele>
        <time>2022-08-24T09:21:24Z</time>
      </trkpt>
      <trkpt lat="43.07155899999943" lon="-1.2665989999999996">
        <ele>1116.810</ele>
        <time>2022-08-24T09:21:25Z</time>
      </trkpt>
      <trkpt lat="43.07154199999943" lon="-1.2665999999999995">
        <ele>1116.809</ele>
        <time>2022-08-24T09:21:26Z</time>
      </trkpt>
      <trkpt lat="43.07152499999943" lon="-1.2666009999999994">
        <ele>1116.845</ele>
        <time>2022-08-24T09:21:27Z</time>
      </trkpt>
      <trkpt lat="43.07150799999943" lon="-1.2666029999999995">
        <ele>1116.855</ele>
        <time>2022-08-24T09:21:28Z</time>
      </trkpt>
      <trkpt lat="43.071489999999436" lon="-1.2666059999999995">
        <ele>1116.825</ele>
        <time>2022-08-24T09:21:29Z</time>
      </trkpt>
      <trkpt lat="43.071472999999436" lon="-1.2666109999999995">
        <ele>1117.031</ele>
        <time>2022-08-24T09:21:30Z</time>
      </trkpt>
      <trkpt lat="43.071455999999436" lon="-1.2666179999999996">
        <ele>1117.013</ele>
        <time>2022-08-24T09:21:31Z</time>
      </trkpt>
      <trkpt lat="43.071439999999434" lon="-1.2666239999999995">
        <ele>1117.070</ele>
        <time>2022-08-24T09:21:32Z</time>
      </trkpt>
      <trkpt lat="43.07142399999943" lon="-1.2666279999999994">
        <ele>1117.083</ele>
        <time>2022-08-24T09:21:33Z</time>
      </trkpt>
      <trkpt lat="43.07140799999943" lon="-1.2666329999999995">
        <ele>1117.277</ele>
        <time>2022-08-24T09:21:34Z</time>
      </trkpt>
      <trkpt lat="43.07139299999943" lon="-1.2666389999999994">
        <ele>1117.286</ele>
        <time>2022-08-24T09:21:35Z</time>
      </trkpt>
      <trkpt lat="43.07137699999943" lon="-1.2666469999999994">
        <ele>1117.467</ele>
        <time>2022-08-24T09:21:36Z</time>
      </trkpt>
      <trkpt lat="43.07136099999943" lon="-1.2666559999999993">
        <ele>1117.481</ele>
        <time>2022-08-24T09:21:37Z</time>
      </trkpt>
      <trkpt lat="43.07126499999943" lon="-1.2667049999999993">
        <ele>1118.419</ele>
        <time>2022-08-24T09:21:43Z</time>
      </trkpt>
      <trkpt lat="43.07124999999943" lon="-1.2667189999999993">
        <ele>1118.609</ele>
        <time>2022-08-24T09:21:44Z</time>
      </trkpt>
      <trkpt lat="43.07123799999943" lon="-1.2667349999999993">
        <ele>1118.837</ele>
        <time>2022-08-24T09:21:45Z</time>
      </trkpt>
      <trkpt lat="43.07122499999943" lon="-1.2667479999999993">
        <ele>1119.097</ele>
        <time>2022-08-24T09:21:46Z</time>
      </trkpt>
      <trkpt lat="43.07121099999943" lon="-1.2667579999999994">
        <ele>1119.447</ele>
        <time>2022-08-24T09:21:47Z</time>
      </trkpt>
      <trkpt lat="43.07119799999943" lon="-1.2667679999999995">
        <ele>1119.853</ele>
        <time>2022-08-24T09:21:48Z</time>
      </trkpt>
      <trkpt lat="43.07118599999943" lon="-1.2667779999999995">
        <ele>1120.075</ele>
        <time>2022-08-24T09:21:49Z</time>
      </trkpt>
      <trkpt lat="43.07117399999943" lon="-1.2667909999999996">
        <ele>1120.252</ele>
        <time>2022-08-24T09:21:50Z</time>
      </trkpt>
      <trkpt lat="43.07116399999943" lon="-1.2668059999999997">
        <ele>1120.245</ele>
        <time>2022-08-24T09:21:51Z</time>
      </trkpt>
      <trkpt lat="43.07115299999943" lon="-1.2668239999999997">
        <ele>1120.289</ele>
        <time>2022-08-24T09:21:52Z</time>
      </trkpt>
      <trkpt lat="43.07114399999943" lon="-1.2668409999999997">
        <ele>1120.428</ele>
        <time>2022-08-24T09:21:53Z</time>
      </trkpt>
      <trkpt lat="43.07113699999943" lon="-1.2668619999999997">
        <ele>1120.654</ele>
        <time>2022-08-24T09:21:54Z</time>
      </trkpt>
      <trkpt lat="43.07113099999943" lon="-1.2668819999999996">
        <ele>1120.856</ele>
        <time>2022-08-24T09:21:55Z</time>
      </trkpt>
      <trkpt lat="43.071124999999434" lon="-1.2669009999999996">
        <ele>1120.811</ele>
        <time>2022-08-24T09:21:56Z</time>
      </trkpt>
      <trkpt lat="43.071115999999435" lon="-1.2669199999999996">
        <ele>1121.009</ele>
        <time>2022-08-24T09:21:57Z</time>
      </trkpt>
      <trkpt lat="43.07110699999944" lon="-1.2669379999999997">
        <ele>1121.066</ele>
        <time>2022-08-24T09:21:58Z</time>
      </trkpt>
      <trkpt lat="43.07109999999944" lon="-1.2669569999999997">
        <ele>1121.296</ele>
        <time>2022-08-24T09:21:59Z</time>
      </trkpt>
      <trkpt lat="43.07109599999944" lon="-1.2669749999999997">
        <ele>1121.446</ele>
        <time>2022-08-24T09:22:00Z</time>
      </trkpt>
      <trkpt lat="43.071094999999445" lon="-1.2669929999999998">
        <ele>1121.422</ele>
        <time>2022-08-24T09:22:01Z</time>
      </trkpt>
      <trkpt lat="43.07109299999944" lon="-1.2670119999999998">
        <ele>1121.654</ele>
        <time>2022-08-24T09:22:02Z</time>
      </trkpt>
      <trkpt lat="43.071091999999446" lon="-1.2670319999999997">
        <ele>1121.861</ele>
        <time>2022-08-24T09:22:03Z</time>
      </trkpt>
      <trkpt lat="43.071088999999446" lon="-1.2670519999999996">
        <ele>1122.274</ele>
        <time>2022-08-24T09:22:04Z</time>
      </trkpt>
      <trkpt lat="43.071086999999444" lon="-1.2670719999999995">
        <ele>1122.278</ele>
        <time>2022-08-24T09:22:05Z</time>
      </trkpt>
      <trkpt lat="43.071083999999445" lon="-1.2670899999999996">
        <ele>1122.457</ele>
        <time>2022-08-24T09:22:06Z</time>
      </trkpt>
      <trkpt lat="43.07108199999944" lon="-1.2671089999999996">
        <ele>1122.696</ele>
        <time>2022-08-24T09:22:07Z</time>
      </trkpt>
      <trkpt lat="43.071083999999445" lon="-1.2671289999999995">
        <ele>1122.831</ele>
        <time>2022-08-24T09:22:08Z</time>
      </trkpt>
      <trkpt lat="43.07108799999944" lon="-1.2671479999999995">
        <ele>1123.024</ele>
        <time>2022-08-24T09:22:09Z</time>
      </trkpt>
      <trkpt lat="43.07109299999944" lon="-1.2671669999999995">
        <ele>1123.009</ele>
        <time>2022-08-24T09:22:10Z</time>
      </trkpt>
      <trkpt lat="43.071094999999445" lon="-1.2671889999999995">
        <ele>1123.270</ele>
        <time>2022-08-24T09:22:11Z</time>
      </trkpt>
      <trkpt lat="43.07109599999944" lon="-1.2672039999999996">
        <ele>1123.460</ele>
        <time>2022-08-24T09:22:12Z</time>
      </trkpt>
      <trkpt lat="43.071097999999445" lon="-1.2672259999999995">
        <ele>1123.670</ele>
        <time>2022-08-24T09:22:13Z</time>
      </trkpt>
      <trkpt lat="43.07109999999945" lon="-1.2672449999999995">
        <ele>1123.866</ele>
        <time>2022-08-24T09:22:14Z</time>
      </trkpt>
      <trkpt lat="43.071103999999444" lon="-1.2672649999999994">
        <ele>1123.858</ele>
        <time>2022-08-24T09:22:15Z</time>
      </trkpt>
      <trkpt lat="43.07110499999944" lon="-1.2672849999999993">
        <ele>1124.075</ele>
        <time>2022-08-24T09:22:16Z</time>
      </trkpt>
      <trkpt lat="43.07110899999944" lon="-1.2673069999999993">
        <ele>1124.278</ele>
        <time>2022-08-24T09:22:17Z</time>
      </trkpt>
      <trkpt lat="43.07111099999944" lon="-1.2673269999999992">
        <ele>1124.452</ele>
        <time>2022-08-24T09:22:18Z</time>
      </trkpt>
      <trkpt lat="43.07111399999944" lon="-1.2673449999999993">
        <ele>1124.441</ele>
        <time>2022-08-24T09:22:19Z</time>
      </trkpt>
      <trkpt lat="43.07111499999944" lon="-1.2673639999999993">
        <ele>1124.648</ele>
        <time>2022-08-24T09:22:20Z</time>
      </trkpt>
      <trkpt lat="43.071115999999435" lon="-1.2673829999999993">
        <ele>1124.861</ele>
        <time>2022-08-24T09:22:21Z</time>
      </trkpt>
      <trkpt lat="43.071115999999435" lon="-1.2674049999999992">
        <ele>1125.017</ele>
        <time>2022-08-24T09:22:22Z</time>
      </trkpt>
      <trkpt lat="43.07111699999943" lon="-1.2674239999999992">
        <ele>1125.009</ele>
        <time>2022-08-24T09:22:23Z</time>
      </trkpt>
      <trkpt lat="43.07112099999943" lon="-1.2674429999999992">
        <ele>1125.235</ele>
        <time>2022-08-24T09:22:24Z</time>
      </trkpt>
      <trkpt lat="43.07112699999943" lon="-1.2674599999999991">
        <ele>1125.265</ele>
        <time>2022-08-24T09:22:25Z</time>
      </trkpt>
      <trkpt lat="43.07112999999943" lon="-1.267479999999999">
        <ele>1125.435</ele>
        <time>2022-08-24T09:22:26Z</time>
      </trkpt>
      <trkpt lat="43.071133999999425" lon="-1.267498999999999">
        <ele>1125.451</ele>
        <time>2022-08-24T09:22:27Z</time>
      </trkpt>
      <trkpt lat="43.07113599999943" lon="-1.267519999999999">
        <ele>1125.673</ele>
        <time>2022-08-24T09:22:28Z</time>
      </trkpt>
      <trkpt lat="43.07113499999943" lon="-1.267541999999999">
        <ele>1125.830</ele>
        <time>2022-08-24T09:22:29Z</time>
      </trkpt>
      <trkpt lat="43.07113599999943" lon="-1.2675649999999992">
        <ele>1126.073</ele>
        <time>2022-08-24T09:22:30Z</time>
      </trkpt>
      <trkpt lat="43.07113799999943" lon="-1.2675869999999991">
        <ele>1126.017</ele>
        <time>2022-08-24T09:22:31Z</time>
      </trkpt>
      <trkpt lat="43.07114299999943" lon="-1.267608999999999">
        <ele>1126.256</ele>
        <time>2022-08-24T09:22:32Z</time>
      </trkpt>
      <trkpt lat="43.07114699999943" lon="-1.2676319999999992">
        <ele>1126.475</ele>
        <time>2022-08-24T09:22:33Z</time>
      </trkpt>
      <trkpt lat="43.07114699999943" lon="-1.2676549999999993">
        <ele>1126.428</ele>
        <time>2022-08-24T09:22:34Z</time>
      </trkpt>
      <trkpt lat="43.07114599999943" lon="-1.2676779999999994">
        <ele>1126.620</ele>
        <time>2022-08-24T09:22:35Z</time>
      </trkpt>
      <trkpt lat="43.07114899999943" lon="-1.2676999999999994">
        <ele>1126.809</ele>
        <time>2022-08-24T09:22:36Z</time>
      </trkpt>
      <trkpt lat="43.07115399999943" lon="-1.2677199999999993">
        <ele>1126.888</ele>
        <time>2022-08-24T09:22:37Z</time>
      </trkpt>
      <trkpt lat="43.07115799999943" lon="-1.2677409999999993">
        <ele>1127.018</ele>
        <time>2022-08-24T09:22:38Z</time>
      </trkpt>
      <trkpt lat="43.071158999999426" lon="-1.2677629999999993">
        <ele>1127.098</ele>
        <time>2022-08-24T09:22:39Z</time>
      </trkpt>
      <trkpt lat="43.07116299999942" lon="-1.2677839999999994">
        <ele>1127.464</ele>
        <time>2022-08-24T09:22:40Z</time>
      </trkpt>
      <trkpt lat="43.07116599999942" lon="-1.2678059999999993">
        <ele>1127.496</ele>
        <time>2022-08-24T09:22:41Z</time>
      </trkpt>
      <trkpt lat="43.07116999999942" lon="-1.2678289999999994">
        <ele>1127.683</ele>
        <time>2022-08-24T09:22:42Z</time>
      </trkpt>
      <trkpt lat="43.07117099999942" lon="-1.2678529999999995">
        <ele>1127.876</ele>
        <time>2022-08-24T09:22:43Z</time>
      </trkpt>
      <trkpt lat="43.07117299999942" lon="-1.2678749999999994">
        <ele>1127.820</ele>
        <time>2022-08-24T09:22:44Z</time>
      </trkpt>
      <trkpt lat="43.07117399999942" lon="-1.2678969999999994">
        <ele>1128.069</ele>
        <time>2022-08-24T09:22:45Z</time>
      </trkpt>
      <trkpt lat="43.07117399999942" lon="-1.2679159999999994">
        <ele>1128.065</ele>
        <time>2022-08-24T09:22:46Z</time>
      </trkpt>
      <trkpt lat="43.07117399999942" lon="-1.2679399999999994">
        <ele>1128.468</ele>
        <time>2022-08-24T09:22:47Z</time>
      </trkpt>
      <trkpt lat="43.07117099999942" lon="-1.2679639999999994">
        <ele>1128.614</ele>
        <time>2022-08-24T09:22:48Z</time>
      </trkpt>
      <trkpt lat="43.071171999999414" lon="-1.2679869999999995">
        <ele>1129.009</ele>
        <time>2022-08-24T09:22:49Z</time>
      </trkpt>
      <trkpt lat="43.07117299999941" lon="-1.2680089999999995">
        <ele>1129.257</ele>
        <time>2022-08-24T09:22:50Z</time>
      </trkpt>
      <trkpt lat="43.07116999999941" lon="-1.2680349999999996">
        <ele>1129.457</ele>
        <time>2022-08-24T09:22:51Z</time>
      </trkpt>
      <trkpt lat="43.07116999999941" lon="-1.2680629999999995">
        <ele>1129.897</ele>
        <time>2022-08-24T09:22:52Z</time>
      </trkpt>
      <trkpt lat="43.07116999999941" lon="-1.2680919999999996">
        <ele>1129.873</ele>
        <time>2022-08-24T09:22:53Z</time>
      </trkpt>
      <trkpt lat="43.071168999999415" lon="-1.2681199999999995">
        <ele>1130.095</ele>
        <time>2022-08-24T09:22:54Z</time>
      </trkpt>
      <trkpt lat="43.071168999999415" lon="-1.2681449999999994">
        <ele>1130.242</ele>
        <time>2022-08-24T09:22:55Z</time>
      </trkpt>
      <trkpt lat="43.071168999999415" lon="-1.2681689999999994">
        <ele>1130.625</ele>
        <time>2022-08-24T09:22:56Z</time>
      </trkpt>
      <trkpt lat="43.07116799999942" lon="-1.2681919999999995">
        <ele>1130.839</ele>
        <time>2022-08-24T09:22:57Z</time>
      </trkpt>
      <trkpt lat="43.07116699999942" lon="-1.2682129999999996">
        <ele>1131.028</ele>
        <time>2022-08-24T09:22:58Z</time>
      </trkpt>
      <trkpt lat="43.07116499999942" lon="-1.2682339999999996">
        <ele>1131.286</ele>
        <time>2022-08-24T09:22:59Z</time>
      </trkpt>
      <trkpt lat="43.07116099999942" lon="-1.2682549999999997">
        <ele>1131.460</ele>
        <time>2022-08-24T09:23:00Z</time>
      </trkpt>
      <trkpt lat="43.07116099999942" lon="-1.2682759999999997">
        <ele>1131.626</ele>
        <time>2022-08-24T09:23:01Z</time>
      </trkpt>
      <trkpt lat="43.07116099999942" lon="-1.2682969999999998">
        <ele>1131.809</ele>
        <time>2022-08-24T09:23:02Z</time>
      </trkpt>
      <trkpt lat="43.07115799999942" lon="-1.2683179999999998">
        <ele>1132.029</ele>
        <time>2022-08-24T09:23:03Z</time>
      </trkpt>
      <trkpt lat="43.07115299999942" lon="-1.268341">
        <ele>1132.269</ele>
        <time>2022-08-24T09:23:04Z</time>
      </trkpt>
      <trkpt lat="43.07114999999942" lon="-1.268362">
        <ele>1132.289</ele>
        <time>2022-08-24T09:23:05Z</time>
      </trkpt>
      <trkpt lat="43.07114899999942" lon="-1.268381">
        <ele>1132.425</ele>
        <time>2022-08-24T09:23:06Z</time>
      </trkpt>
      <trkpt lat="43.07114999999942" lon="-1.268401">
        <ele>1132.497</ele>
        <time>2022-08-24T09:23:07Z</time>
      </trkpt>
      <trkpt lat="43.07114599999942" lon="-1.2684199999999999">
        <ele>1132.624</ele>
        <time>2022-08-24T09:23:08Z</time>
      </trkpt>
      <trkpt lat="43.071142999999424" lon="-1.268438">
        <ele>1132.637</ele>
        <time>2022-08-24T09:23:09Z</time>
      </trkpt>
      <trkpt lat="43.07113899999943" lon="-1.2684549999999999">
        <ele>1132.811</ele>
        <time>2022-08-24T09:23:10Z</time>
      </trkpt>
      <trkpt lat="43.07113499999943" lon="-1.268473">
        <ele>1133.070</ele>
        <time>2022-08-24T09:23:11Z</time>
      </trkpt>
      <trkpt lat="43.07113199999943" lon="-1.268489">
        <ele>1133.041</ele>
        <time>2022-08-24T09:23:12Z</time>
      </trkpt>
      <trkpt lat="43.07112999999943" lon="-1.268505">
        <ele>1133.281</ele>
        <time>2022-08-24T09:23:13Z</time>
      </trkpt>
      <trkpt lat="43.07112999999943" lon="-1.26852">
        <ele>1133.409</ele>
        <time>2022-08-24T09:23:14Z</time>
      </trkpt>
      <trkpt lat="43.07112599999943" lon="-1.268536">
        <ele>1133.609</ele>
        <time>2022-08-24T09:23:15Z</time>
      </trkpt>
      <trkpt lat="43.07112299999943" lon="-1.2685510000000002">
        <ele>1133.635</ele>
        <time>2022-08-24T09:23:16Z</time>
      </trkpt>
      <trkpt lat="43.07111999999943" lon="-1.2685680000000001">
        <ele>1133.815</ele>
        <time>2022-08-24T09:23:17Z</time>
      </trkpt>
      <trkpt lat="43.07111699999943" lon="-1.268582">
        <ele>1134.065</ele>
        <time>2022-08-24T09:23:18Z</time>
      </trkpt>
      <trkpt lat="43.07111099999943" lon="-1.268596">
        <ele>1134.061</ele>
        <time>2022-08-24T09:23:19Z</time>
      </trkpt>
      <trkpt lat="43.07110699999944" lon="-1.268609">
        <ele>1134.213</ele>
        <time>2022-08-24T09:23:20Z</time>
      </trkpt>
      <trkpt lat="43.07110399999944" lon="-1.2686250000000001">
        <ele>1134.220</ele>
        <time>2022-08-24T09:23:21Z</time>
      </trkpt>
      <trkpt lat="43.07109999999944" lon="-1.2686400000000002">
        <ele>1134.643</ele>
        <time>2022-08-24T09:23:22Z</time>
      </trkpt>
      <trkpt lat="43.07109599999944" lon="-1.2686570000000001">
        <ele>1135.077</ele>
        <time>2022-08-24T09:23:23Z</time>
      </trkpt>
      <trkpt lat="43.07109399999944" lon="-1.2686700000000002">
        <ele>1135.256</ele>
        <time>2022-08-24T09:23:24Z</time>
      </trkpt>
      <trkpt lat="43.07108899999944" lon="-1.2686840000000001">
        <ele>1135.299</ele>
        <time>2022-08-24T09:23:25Z</time>
      </trkpt>
      <trkpt lat="43.07108399999944" lon="-1.2687020000000002">
        <ele>1135.407</ele>
        <time>2022-08-24T09:23:26Z</time>
      </trkpt>
      <trkpt lat="43.07107799999944" lon="-1.2687210000000002">
        <ele>1136.027</ele>
        <time>2022-08-24T09:23:27Z</time>
      </trkpt>
      <trkpt lat="43.07107099999944" lon="-1.2687380000000001">
        <ele>1136.209</ele>
        <time>2022-08-24T09:23:28Z</time>
      </trkpt>
      <trkpt lat="43.07106299999944" lon="-1.26876">
        <ele>1136.450</ele>
        <time>2022-08-24T09:23:29Z</time>
      </trkpt>
      <trkpt lat="43.07105799999944" lon="-1.2687810000000002">
        <ele>1136.660</ele>
        <time>2022-08-24T09:23:30Z</time>
      </trkpt>
      <trkpt lat="43.07105099999944" lon="-1.268801">
        <ele>1136.640</ele>
        <time>2022-08-24T09:23:31Z</time>
      </trkpt>
      <trkpt lat="43.071043999999446" lon="-1.26882">
        <ele>1137.026</ele>
        <time>2022-08-24T09:23:32Z</time>
      </trkpt>
      <trkpt lat="43.07103499999945" lon="-1.268841">
        <ele>1137.268</ele>
        <time>2022-08-24T09:23:33Z</time>
      </trkpt>
      <trkpt lat="43.07102799999945" lon="-1.26886">
        <ele>1137.435</ele>
        <time>2022-08-24T09:23:34Z</time>
      </trkpt>
      <trkpt lat="43.071020999999455" lon="-1.268877">
        <ele>1137.418</ele>
        <time>2022-08-24T09:23:35Z</time>
      </trkpt>
      <trkpt lat="43.07101099999945" lon="-1.268894">
        <ele>1137.662</ele>
        <time>2022-08-24T09:23:36Z</time>
      </trkpt>
      <trkpt lat="43.07100199999945" lon="-1.268911">
        <ele>1137.681</ele>
        <time>2022-08-24T09:23:37Z</time>
      </trkpt>
      <trkpt lat="43.070994999999456" lon="-1.268929">
        <ele>1137.862</ele>
        <time>2022-08-24T09:23:38Z</time>
      </trkpt>
      <trkpt lat="43.07098499999945" lon="-1.268948">
        <ele>1137.883</ele>
        <time>2022-08-24T09:23:39Z</time>
      </trkpt>
      <trkpt lat="43.07097399999945" lon="-1.268965">
        <ele>1137.811</ele>
        <time>2022-08-24T09:23:40Z</time>
      </trkpt>
      <trkpt lat="43.07096399999945" lon="-1.268981">
        <ele>1138.009</ele>
        <time>2022-08-24T09:23:41Z</time>
      </trkpt>
      <trkpt lat="43.070953999999446" lon="-1.2689979999999998">
        <ele>1138.247</ele>
        <time>2022-08-24T09:23:42Z</time>
      </trkpt>
      <trkpt lat="43.070942999999446" lon="-1.2690139999999999">
        <ele>1138.227</ele>
        <time>2022-08-24T09:23:43Z</time>
      </trkpt>
      <trkpt lat="43.07092999999944" lon="-1.269029">
        <ele>1138.427</ele>
        <time>2022-08-24T09:23:44Z</time>
      </trkpt>
      <trkpt lat="43.07091699999944" lon="-1.269044">
        <ele>1138.413</ele>
        <time>2022-08-24T09:23:45Z</time>
      </trkpt>
      <trkpt lat="43.07090299999944" lon="-1.269057">
        <ele>1138.655</ele>
        <time>2022-08-24T09:23:46Z</time>
      </trkpt>
      <trkpt lat="43.07088799999944" lon="-1.269069">
        <ele>1138.662</ele>
        <time>2022-08-24T09:23:47Z</time>
      </trkpt>
      <trkpt lat="43.070872999999445" lon="-1.269082">
        <ele>1138.835</ele>
        <time>2022-08-24T09:23:48Z</time>
      </trkpt>
      <trkpt lat="43.07085699999944" lon="-1.269092">
        <ele>1138.869</ele>
        <time>2022-08-24T09:23:49Z</time>
      </trkpt>
      <trkpt lat="43.070841999999445" lon="-1.269101">
        <ele>1139.068</ele>
        <time>2022-08-24T09:23:50Z</time>
      </trkpt>
      <trkpt lat="43.070824999999445" lon="-1.26911">
        <ele>1139.066</ele>
        <time>2022-08-24T09:23:51Z</time>
      </trkpt>
      <trkpt lat="43.070810999999445" lon="-1.269121">
        <ele>1139.029</ele>
        <time>2022-08-24T09:23:52Z</time>
      </trkpt>
      <trkpt lat="43.07079899999945" lon="-1.269134">
        <ele>1139.221</ele>
        <time>2022-08-24T09:23:53Z</time>
      </trkpt>
      <trkpt lat="43.07078499999945" lon="-1.2691459999999999">
        <ele>1139.409</ele>
        <time>2022-08-24T09:23:54Z</time>
      </trkpt>
      <trkpt lat="43.070770999999446" lon="-1.2691499999999998">
        <ele>1139.487</ele>
        <time>2022-08-24T09:23:55Z</time>
      </trkpt>
      <trkpt lat="43.070754999999444" lon="-1.2691549999999998">
        <ele>1139.457</ele>
        <time>2022-08-24T09:23:56Z</time>
      </trkpt>
      <trkpt lat="43.07073899999944" lon="-1.269162">
        <ele>1139.687</ele>
        <time>2022-08-24T09:23:57Z</time>
      </trkpt>
      <trkpt lat="43.07072499999944" lon="-1.269172">
        <ele>1139.643</ele>
        <time>2022-08-24T09:23:58Z</time>
      </trkpt>
      <trkpt lat="43.070709999999444" lon="-1.269181">
        <ele>1139.665</ele>
        <time>2022-08-24T09:23:59Z</time>
      </trkpt>
      <trkpt lat="43.070694999999446" lon="-1.269188">
        <ele>1139.642</ele>
        <time>2022-08-24T09:24:00Z</time>
      </trkpt>
      <trkpt lat="43.070680999999446" lon="-1.269194">
        <ele>1139.625</ele>
        <time>2022-08-24T09:24:01Z</time>
      </trkpt>
      <trkpt lat="43.070666999999446" lon="-1.269201">
        <ele>1139.859</ele>
        <time>2022-08-24T09:24:02Z</time>
      </trkpt>
      <trkpt lat="43.070652999999446" lon="-1.269207">
        <ele>1140.058</ele>
        <time>2022-08-24T09:24:03Z</time>
      </trkpt>
      <trkpt lat="43.07063999999944" lon="-1.269213">
        <ele>1140.014</ele>
        <time>2022-08-24T09:24:04Z</time>
      </trkpt>
      <trkpt lat="43.07062899999944" lon="-1.2692219999999999">
        <ele>1140.254</ele>
        <time>2022-08-24T09:24:05Z</time>
      </trkpt>
      <trkpt lat="43.07062099999944" lon="-1.269232">
        <ele>1140.409</ele>
        <time>2022-08-24T09:24:06Z</time>
      </trkpt>
      <trkpt lat="43.070605999999444" lon="-1.2692379999999999">
        <ele>1140.409</ele>
        <time>2022-08-24T09:24:07Z</time>
      </trkpt>
      <trkpt lat="43.07058999999944" lon="-1.2692419999999998">
        <ele>1140.692</ele>
        <time>2022-08-24T09:24:08Z</time>
      </trkpt>
      <trkpt lat="43.070574999999444" lon="-1.2692489999999998">
        <ele>1140.872</ele>
        <time>2022-08-24T09:24:09Z</time>
      </trkpt>
      <trkpt lat="43.070559999999446" lon="-1.2692549999999998">
        <ele>1140.832</ele>
        <time>2022-08-24T09:24:10Z</time>
      </trkpt>
      <trkpt lat="43.07054499999945" lon="-1.2692569999999999">
        <ele>1141.028</ele>
        <time>2022-08-24T09:24:11Z</time>
      </trkpt>
      <trkpt lat="43.070528999999446" lon="-1.2692649999999999">
        <ele>1141.090</ele>
        <time>2022-08-24T09:24:12Z</time>
      </trkpt>
      <trkpt lat="43.070509999999445" lon="-1.2692729999999999">
        <ele>1141.267</ele>
        <time>2022-08-24T09:24:13Z</time>
      </trkpt>
      <trkpt lat="43.070486999999446" lon="-1.26928">
        <ele>1141.670</ele>
        <time>2022-08-24T09:24:14Z</time>
      </trkpt>
      <trkpt lat="43.07046399999945" lon="-1.269289">
        <ele>1141.884</ele>
        <time>2022-08-24T09:24:15Z</time>
      </trkpt>
      <trkpt lat="43.07044099999945" lon="-1.2692979999999998">
        <ele>1141.853</ele>
        <time>2022-08-24T09:24:16Z</time>
      </trkpt>
      <trkpt lat="43.07041999999945" lon="-1.2693039999999998">
        <ele>1142.074</ele>
        <time>2022-08-24T09:24:17Z</time>
      </trkpt>
      <trkpt lat="43.070398999999455" lon="-1.2693099999999997">
        <ele>1142.256</ele>
        <time>2022-08-24T09:24:18Z</time>
      </trkpt>
      <trkpt lat="43.070381999999455" lon="-1.2693159999999997">
        <ele>1142.421</ele>
        <time>2022-08-24T09:24:19Z</time>
      </trkpt>
      <trkpt lat="43.07036599999945" lon="-1.2693179999999997">
        <ele>1142.609</ele>
        <time>2022-08-24T09:24:20Z</time>
      </trkpt>
      <trkpt lat="43.07034899999945" lon="-1.2693179999999997">
        <ele>1143.228</ele>
        <time>2022-08-24T09:24:21Z</time>
      </trkpt>
      <trkpt lat="43.07033199999945" lon="-1.2693199999999998">
        <ele>1143.628</ele>
        <time>2022-08-24T09:24:22Z</time>
      </trkpt>
      <trkpt lat="43.070313999999456" lon="-1.2693239999999997">
        <ele>1143.878</ele>
        <time>2022-08-24T09:24:23Z</time>
      </trkpt>
      <trkpt lat="43.070294999999454" lon="-1.2693259999999997">
        <ele>1144.244</ele>
        <time>2022-08-24T09:24:24Z</time>
      </trkpt>
      <trkpt lat="43.07027299999945" lon="-1.2693279999999998">
        <ele>1144.296</ele>
        <time>2022-08-24T09:24:25Z</time>
      </trkpt>
      <trkpt lat="43.070252999999454" lon="-1.2693309999999998">
        <ele>1144.453</ele>
        <time>2022-08-24T09:24:26Z</time>
      </trkpt>
      <trkpt lat="43.07023399999945" lon="-1.2693319999999997">
        <ele>1144.836</ele>
        <time>2022-08-24T09:24:27Z</time>
      </trkpt>
      <trkpt lat="43.07020999999945" lon="-1.2693349999999997">
        <ele>1144.840</ele>
        <time>2022-08-24T09:24:28Z</time>
      </trkpt>
      <trkpt lat="43.07018699999945" lon="-1.2693379999999996">
        <ele>1145.079</ele>
        <time>2022-08-24T09:24:29Z</time>
      </trkpt>
      <trkpt lat="43.07016599999945" lon="-1.2693409999999996">
        <ele>1145.258</ele>
        <time>2022-08-24T09:24:30Z</time>
      </trkpt>
      <trkpt lat="43.070150999999456" lon="-1.2693429999999997">
        <ele>1145.252</ele>
        <time>2022-08-24T09:24:31Z</time>
      </trkpt>
      <trkpt lat="43.07013799999945" lon="-1.2693459999999996">
        <ele>1145.417</ele>
        <time>2022-08-24T09:24:32Z</time>
      </trkpt>
      <trkpt lat="43.070125999999455" lon="-1.2693489999999996">
        <ele>1146.009</ele>
        <time>2022-08-24T09:24:33Z</time>
      </trkpt>
      <trkpt lat="43.070114999999454" lon="-1.2693509999999997">
        <ele>1146.416</ele>
        <time>2022-08-24T09:24:34Z</time>
      </trkpt>
      <trkpt lat="43.070102999999456" lon="-1.2693529999999997">
        <ele>1146.676</ele>
        <time>2022-08-24T09:24:35Z</time>
      </trkpt>
      <trkpt lat="43.07008799999946" lon="-1.2693569999999996">
        <ele>1146.666</ele>
        <time>2022-08-24T09:24:36Z</time>
      </trkpt>
      <trkpt lat="43.070074999999456" lon="-1.2693579999999995">
        <ele>1147.032</ele>
        <time>2022-08-24T09:24:37Z</time>
      </trkpt>
      <trkpt lat="43.07005999999946" lon="-1.2693609999999995">
        <ele>1147.474</ele>
        <time>2022-08-24T09:24:38Z</time>
      </trkpt>
      <trkpt lat="43.070046999999455" lon="-1.2693629999999996">
        <ele>1147.661</ele>
        <time>2022-08-24T09:24:39Z</time>
      </trkpt>
      <trkpt lat="43.070032999999455" lon="-1.2693629999999996">
        <ele>1147.884</ele>
        <time>2022-08-24T09:24:40Z</time>
      </trkpt>
      <trkpt lat="43.07001999999945" lon="-1.2693619999999997">
        <ele>1147.868</ele>
        <time>2022-08-24T09:24:41Z</time>
      </trkpt>
      <trkpt lat="43.07000699999945" lon="-1.2693629999999996">
        <ele>1147.847</ele>
        <time>2022-08-24T09:24:42Z</time>
      </trkpt>
      <trkpt lat="43.06999299999945" lon="-1.2693629999999996">
        <ele>1147.836</ele>
        <time>2022-08-24T09:24:43Z</time>
      </trkpt>
      <trkpt lat="43.06997999999945" lon="-1.2693619999999997">
        <ele>1148.017</ele>
        <time>2022-08-24T09:24:44Z</time>
      </trkpt>
      <trkpt lat="43.069966999999444" lon="-1.2693599999999996">
        <ele>1148.218</ele>
        <time>2022-08-24T09:24:45Z</time>
      </trkpt>
      <trkpt lat="43.06995099999944" lon="-1.2693589999999997">
        <ele>1148.209</ele>
        <time>2022-08-24T09:24:46Z</time>
      </trkpt>
      <trkpt lat="43.069935999999444" lon="-1.2693589999999997">
        <ele>1148.284</ele>
        <time>2022-08-24T09:24:47Z</time>
      </trkpt>
      <trkpt lat="43.069918999999445" lon="-1.2693559999999997">
        <ele>1148.474</ele>
        <time>2022-08-24T09:24:48Z</time>
      </trkpt>
      <trkpt lat="43.069904999999444" lon="-1.2693579999999998">
        <ele>1148.644</ele>
        <time>2022-08-24T09:24:49Z</time>
      </trkpt>
      <trkpt lat="43.069890999999444" lon="-1.2693619999999997">
        <ele>1148.860</ele>
        <time>2022-08-24T09:24:50Z</time>
      </trkpt>
      <trkpt lat="43.069876999999444" lon="-1.2693659999999996">
        <ele>1148.862</ele>
        <time>2022-08-24T09:24:51Z</time>
      </trkpt>
      <trkpt lat="43.069862999999444" lon="-1.2693679999999996">
        <ele>1149.069</ele>
        <time>2022-08-24T09:24:52Z</time>
      </trkpt>
      <trkpt lat="43.069847999999446" lon="-1.2693699999999997">
        <ele>1149.222</ele>
        <time>2022-08-24T09:24:53Z</time>
      </trkpt>
      <trkpt lat="43.069833999999446" lon="-1.2693689999999997">
        <ele>1149.226</ele>
        <time>2022-08-24T09:24:54Z</time>
      </trkpt>
      <trkpt lat="43.06981899999945" lon="-1.2693659999999998">
        <ele>1149.495</ele>
        <time>2022-08-24T09:24:55Z</time>
      </trkpt>
      <trkpt lat="43.06980399999945" lon="-1.2693619999999999">
        <ele>1149.422</ele>
        <time>2022-08-24T09:24:56Z</time>
      </trkpt>
      <trkpt lat="43.06978899999945" lon="-1.2693569999999998">
        <ele>1149.662</ele>
        <time>2022-08-24T09:24:57Z</time>
      </trkpt>
      <trkpt lat="43.06977599999945" lon="-1.269356">
        <ele>1149.808</ele>
        <time>2022-08-24T09:24:58Z</time>
      </trkpt>
      <trkpt lat="43.06976099999945" lon="-1.269356">
        <ele>1150.009</ele>
        <time>2022-08-24T09:24:59Z</time>
      </trkpt>
      <trkpt lat="43.069745999999455" lon="-1.269356">
        <ele>1150.243</ele>
        <time>2022-08-24T09:25:00Z</time>
      </trkpt>
      <trkpt lat="43.06972999999945" lon="-1.2693539999999999">
        <ele>1150.433</ele>
        <time>2022-08-24T09:25:01Z</time>
      </trkpt>
      <trkpt lat="43.06971299999945" lon="-1.269356">
        <ele>1150.673</ele>
        <time>2022-08-24T09:25:02Z</time>
      </trkpt>
      <trkpt lat="43.06969899999945" lon="-1.26935">
        <ele>1150.829</ele>
        <time>2022-08-24T09:25:03Z</time>
      </trkpt>
      <trkpt lat="43.06968599999945" lon="-1.269346">
        <ele>1151.031</ele>
        <time>2022-08-24T09:25:04Z</time>
      </trkpt>
      <trkpt lat="43.06967299999945" lon="-1.2693420000000002">
        <ele>1151.268</ele>
        <time>2022-08-24T09:25:05Z</time>
      </trkpt>
      <trkpt lat="43.06965799999945" lon="-1.2693390000000002">
        <ele>1151.261</ele>
        <time>2022-08-24T09:25:06Z</time>
      </trkpt>
      <trkpt lat="43.06964199999945" lon="-1.2693350000000003">
        <ele>1151.495</ele>
        <time>2022-08-24T09:25:07Z</time>
      </trkpt>
      <trkpt lat="43.06962699999945" lon="-1.2693330000000003">
        <ele>1151.664</ele>
        <time>2022-08-24T09:25:08Z</time>
      </trkpt>
      <trkpt lat="43.06961199999945" lon="-1.2693340000000002">
        <ele>1151.858</ele>
        <time>2022-08-24T09:25:09Z</time>
      </trkpt>
      <trkpt lat="43.069596999999455" lon="-1.2693310000000002">
        <ele>1151.852</ele>
        <time>2022-08-24T09:25:10Z</time>
      </trkpt>
      <trkpt lat="43.069582999999454" lon="-1.2693270000000003">
        <ele>1152.017</ele>
        <time>2022-08-24T09:25:11Z</time>
      </trkpt>
      <trkpt lat="43.06956799999946" lon="-1.2693230000000004">
        <ele>1152.209</ele>
        <time>2022-08-24T09:25:12Z</time>
      </trkpt>
      <trkpt lat="43.06955099999946" lon="-1.2693200000000004">
        <ele>1152.436</ele>
        <time>2022-08-24T09:25:13Z</time>
      </trkpt>
      <trkpt lat="43.06953399999946" lon="-1.2693180000000004">
        <ele>1152.686</ele>
        <time>2022-08-24T09:25:14Z</time>
      </trkpt>
      <trkpt lat="43.06951599999946" lon="-1.2693120000000004">
        <ele>1152.656</ele>
        <time>2022-08-24T09:25:15Z</time>
      </trkpt>
      <trkpt lat="43.06949599999946" lon="-1.2693070000000004">
        <ele>1152.832</ele>
        <time>2022-08-24T09:25:16Z</time>
      </trkpt>
      <trkpt lat="43.069477999999464" lon="-1.2692990000000004">
        <ele>1153.024</ele>
        <time>2022-08-24T09:25:17Z</time>
      </trkpt>
      <trkpt lat="43.069460999999464" lon="-1.2692910000000004">
        <ele>1153.421</ele>
        <time>2022-08-24T09:25:18Z</time>
      </trkpt>
      <trkpt lat="43.06944299999947" lon="-1.2692860000000004">
        <ele>1153.634</ele>
        <time>2022-08-24T09:25:19Z</time>
      </trkpt>
      <trkpt lat="43.06942299999947" lon="-1.2692840000000003">
        <ele>1153.688</ele>
        <time>2022-08-24T09:25:20Z</time>
      </trkpt>
      <trkpt lat="43.06940199999947" lon="-1.2692820000000002">
        <ele>1153.647</ele>
        <time>2022-08-24T09:25:21Z</time>
      </trkpt>
      <trkpt lat="43.069380999999474" lon="-1.2692790000000003">
        <ele>1153.683</ele>
        <time>2022-08-24T09:25:22Z</time>
      </trkpt>
      <trkpt lat="43.06936199999947" lon="-1.2692790000000003">
        <ele>1153.625</ele>
        <time>2022-08-24T09:25:23Z</time>
      </trkpt>
      <trkpt lat="43.06934299999947" lon="-1.2692770000000002">
        <ele>1153.617</ele>
        <time>2022-08-24T09:25:24Z</time>
      </trkpt>
      <trkpt lat="43.06932399999947" lon="-1.2692710000000003">
        <ele>1153.609</ele>
        <time>2022-08-24T09:25:25Z</time>
      </trkpt>
      <trkpt lat="43.06930499999947" lon="-1.2692660000000002">
        <ele>1153.839</ele>
        <time>2022-08-24T09:25:26Z</time>
      </trkpt>
      <trkpt lat="43.069285999999465" lon="-1.2692610000000002">
        <ele>1153.869</ele>
        <time>2022-08-24T09:25:27Z</time>
      </trkpt>
      <trkpt lat="43.069265999999466" lon="-1.2692550000000002">
        <ele>1154.039</ele>
        <time>2022-08-24T09:25:28Z</time>
      </trkpt>
      <trkpt lat="43.069246999999464" lon="-1.2692510000000004">
        <ele>1154.015</ele>
        <time>2022-08-24T09:25:29Z</time>
      </trkpt>
      <trkpt lat="43.069226999999465" lon="-1.2692480000000004">
        <ele>1154.257</ele>
        <time>2022-08-24T09:25:30Z</time>
      </trkpt>
      <trkpt lat="43.069206999999466" lon="-1.2692450000000004">
        <ele>1154.424</ele>
        <time>2022-08-24T09:25:31Z</time>
      </trkpt>
      <trkpt lat="43.06918599999947" lon="-1.2692410000000005">
        <ele>1154.867</ele>
        <time>2022-08-24T09:25:32Z</time>
      </trkpt>
      <trkpt lat="43.06916599999947" lon="-1.2692360000000005">
        <ele>1155.031</ele>
        <time>2022-08-24T09:25:33Z</time>
      </trkpt>
      <trkpt lat="43.06914499999947" lon="-1.2692300000000005">
        <ele>1155.040</ele>
        <time>2022-08-24T09:25:34Z</time>
      </trkpt>
      <trkpt lat="43.069123999999476" lon="-1.2692230000000004">
        <ele>1155.224</ele>
        <time>2022-08-24T09:25:35Z</time>
      </trkpt>
      <trkpt lat="43.06910299999948" lon="-1.2692170000000005">
        <ele>1155.404</ele>
        <time>2022-08-24T09:25:36Z</time>
      </trkpt>
      <trkpt lat="43.06908299999948" lon="-1.2692130000000006">
        <ele>1155.614</ele>
        <time>2022-08-24T09:25:37Z</time>
      </trkpt>
      <trkpt lat="43.069061999999484" lon="-1.2692110000000005">
        <ele>1155.809</ele>
        <time>2022-08-24T09:25:38Z</time>
      </trkpt>
      <trkpt lat="43.06903999999948" lon="-1.2692070000000006">
        <ele>1155.863</ele>
        <time>2022-08-24T09:25:39Z</time>
      </trkpt>
      <trkpt lat="43.069018999999486" lon="-1.2692040000000007">
        <ele>1156.033</ele>
        <time>2022-08-24T09:25:40Z</time>
      </trkpt>
      <trkpt lat="43.068998999999486" lon="-1.2692000000000008">
        <ele>1156.293</ele>
        <time>2022-08-24T09:25:41Z</time>
      </trkpt>
      <trkpt lat="43.068979999999485" lon="-1.2691990000000009">
        <ele>1156.279</ele>
        <time>2022-08-24T09:25:42Z</time>
      </trkpt>
      <trkpt lat="43.06896099999948" lon="-1.2691940000000008">
        <ele>1156.441</ele>
        <time>2022-08-24T09:25:43Z</time>
      </trkpt>
      <trkpt lat="43.068939999999486" lon="-1.2691890000000008">
        <ele>1156.438</ele>
        <time>2022-08-24T09:25:44Z</time>
      </trkpt>
      <trkpt lat="43.06891999999949" lon="-1.269185000000001">
        <ele>1156.681</ele>
        <time>2022-08-24T09:25:45Z</time>
      </trkpt>
      <trkpt lat="43.06889999999949" lon="-1.269181000000001">
        <ele>1156.825</ele>
        <time>2022-08-24T09:25:46Z</time>
      </trkpt>
      <trkpt lat="43.06887999999949" lon="-1.269178000000001">
        <ele>1157.014</ele>
        <time>2022-08-24T09:25:47Z</time>
      </trkpt>
      <trkpt lat="43.06885899999949" lon="-1.269178000000001">
        <ele>1157.074</ele>
        <time>2022-08-24T09:25:48Z</time>
      </trkpt>
      <trkpt lat="43.06883899999949" lon="-1.269172000000001">
        <ele>1157.456</ele>
        <time>2022-08-24T09:25:49Z</time>
      </trkpt>
      <trkpt lat="43.068815999999494" lon="-1.2691680000000012">
        <ele>1157.621</ele>
        <time>2022-08-24T09:25:50Z</time>
      </trkpt>
      <trkpt lat="43.068792999999495" lon="-1.2691660000000011">
        <ele>1157.809</ele>
        <time>2022-08-24T09:25:51Z</time>
      </trkpt>
      <trkpt lat="43.068770999999494" lon="-1.269161000000001">
        <ele>1158.088</ele>
        <time>2022-08-24T09:25:52Z</time>
      </trkpt>
      <trkpt lat="43.0687499999995" lon="-1.2691570000000012">
        <ele>1158.248</ele>
        <time>2022-08-24T09:25:53Z</time>
      </trkpt>
      <trkpt lat="43.0687289999995" lon="-1.2691510000000013">
        <ele>1158.228</ele>
        <time>2022-08-24T09:25:54Z</time>
      </trkpt>
      <trkpt lat="43.0687079999995" lon="-1.2691440000000012">
        <ele>1158.294</ele>
        <time>2022-08-24T09:25:55Z</time>
      </trkpt>
      <trkpt lat="43.06868699999951" lon="-1.2691380000000012">
        <ele>1158.236</ele>
        <time>2022-08-24T09:25:56Z</time>
      </trkpt>
      <trkpt lat="43.06866599999951" lon="-1.2691320000000013">
        <ele>1158.263</ele>
        <time>2022-08-24T09:25:57Z</time>
      </trkpt>
      <trkpt lat="43.06864699999951" lon="-1.2691270000000012">
        <ele>1158.236</ele>
        <time>2022-08-24T09:25:58Z</time>
      </trkpt>
      <trkpt lat="43.06862599999951" lon="-1.2691240000000013">
        <ele>1158.250</ele>
        <time>2022-08-24T09:25:59Z</time>
      </trkpt>
      <trkpt lat="43.068604999999515" lon="-1.2691190000000012">
        <ele>1158.229</ele>
        <time>2022-08-24T09:26:00Z</time>
      </trkpt>
      <trkpt lat="43.06858599999951" lon="-1.2691120000000011">
        <ele>1158.258</ele>
        <time>2022-08-24T09:26:01Z</time>
      </trkpt>
      <trkpt lat="43.068565999999514" lon="-1.2691060000000012">
        <ele>1158.052</ele>
        <time>2022-08-24T09:26:02Z</time>
      </trkpt>
      <trkpt lat="43.068545999999515" lon="-1.2691000000000012">
        <ele>1158.217</ele>
        <time>2022-08-24T09:26:03Z</time>
      </trkpt>
      <trkpt lat="43.068522999999516" lon="-1.2690930000000011">
        <ele>1158.209</ele>
        <time>2022-08-24T09:26:04Z</time>
      </trkpt>
      <trkpt lat="43.068494999999515" lon="-1.2690840000000012">
        <ele>1158.286</ele>
        <time>2022-08-24T09:26:05Z</time>
      </trkpt>
      <trkpt lat="43.068466999999515" lon="-1.2690790000000012">
        <ele>1158.286</ele>
        <time>2022-08-24T09:26:06Z</time>
      </trkpt>
      <trkpt lat="43.068438999999515" lon="-1.2690750000000013">
        <ele>1158.246</ele>
        <time>2022-08-24T09:26:07Z</time>
      </trkpt>
      <trkpt lat="43.06840999999952" lon="-1.2690690000000013">
        <ele>1158.472</ele>
        <time>2022-08-24T09:26:08Z</time>
      </trkpt>
      <trkpt lat="43.06835299999952" lon="-1.2690570000000014">
        <ele>1158.854</ele>
        <time>2022-08-24T09:26:10Z</time>
      </trkpt>
      <trkpt lat="43.06832499999952" lon="-1.2690470000000014">
        <ele>1159.031</ele>
        <time>2022-08-24T09:26:11Z</time>
      </trkpt>
      <trkpt lat="43.06829899999952" lon="-1.2690370000000013">
        <ele>1159.074</ele>
        <time>2022-08-24T09:26:12Z</time>
      </trkpt>
      <trkpt lat="43.06827499999952" lon="-1.2690270000000012">
        <ele>1159.268</ele>
        <time>2022-08-24T09:26:13Z</time>
      </trkpt>
      <trkpt lat="43.06825099999951" lon="-1.2690190000000012">
        <ele>1159.467</ele>
        <time>2022-08-24T09:26:14Z</time>
      </trkpt>
      <trkpt lat="43.06822699999951" lon="-1.2690080000000012">
        <ele>1159.863</ele>
        <time>2022-08-24T09:26:15Z</time>
      </trkpt>
      <trkpt lat="43.06820299999951" lon="-1.2689950000000012">
        <ele>1160.244</ele>
        <time>2022-08-24T09:26:16Z</time>
      </trkpt>
      <trkpt lat="43.06815499999951" lon="-1.2689710000000012">
        <ele>1160.818</ele>
        <time>2022-08-24T09:26:18Z</time>
      </trkpt>
      <trkpt lat="43.06813199999951" lon="-1.2689570000000012">
        <ele>1160.809</ele>
        <time>2022-08-24T09:26:19Z</time>
      </trkpt>
      <trkpt lat="43.06811099999951" lon="-1.2689420000000011">
        <ele>1161.047</ele>
        <time>2022-08-24T09:26:20Z</time>
      </trkpt>
      <trkpt lat="43.06809199999951" lon="-1.2689230000000011">
        <ele>1161.087</ele>
        <time>2022-08-24T09:26:21Z</time>
      </trkpt>
      <trkpt lat="43.06807299999951" lon="-1.268905000000001">
        <ele>1161.497</ele>
        <time>2022-08-24T09:26:22Z</time>
      </trkpt>
      <trkpt lat="43.068053999999506" lon="-1.2688880000000011">
        <ele>1161.433</ele>
        <time>2022-08-24T09:26:23Z</time>
      </trkpt>
      <trkpt lat="43.06803399999951" lon="-1.268872000000001">
        <ele>1161.845</ele>
        <time>2022-08-24T09:26:24Z</time>
      </trkpt>
      <trkpt lat="43.068014999999505" lon="-1.268856000000001">
        <ele>1162.252</ele>
        <time>2022-08-24T09:26:25Z</time>
      </trkpt>
      <trkpt lat="43.067997999999506" lon="-1.268840000000001">
        <ele>1162.495</ele>
        <time>2022-08-24T09:26:26Z</time>
      </trkpt>
      <trkpt lat="43.06798299999951" lon="-1.268824000000001">
        <ele>1162.869</ele>
        <time>2022-08-24T09:26:27Z</time>
      </trkpt>
      <trkpt lat="43.067966999999506" lon="-1.268808000000001">
        <ele>1163.258</ele>
        <time>2022-08-24T09:26:28Z</time>
      </trkpt>
      <trkpt lat="43.06795199999951" lon="-1.268793000000001">
        <ele>1163.459</ele>
        <time>2022-08-24T09:26:29Z</time>
      </trkpt>
      <trkpt lat="43.06793799999951" lon="-1.268773000000001">
        <ele>1163.603</ele>
        <time>2022-08-24T09:26:30Z</time>
      </trkpt>
      <trkpt lat="43.067924999999505" lon="-1.268751000000001">
        <ele>1164.023</ele>
        <time>2022-08-24T09:26:31Z</time>
      </trkpt>
      <trkpt lat="43.0679119999995" lon="-1.268730000000001">
        <ele>1164.209</ele>
        <time>2022-08-24T09:26:32Z</time>
      </trkpt>
      <trkpt lat="43.0678979999995" lon="-1.268706000000001">
        <ele>1164.476</ele>
        <time>2022-08-24T09:26:33Z</time>
      </trkpt>
      <trkpt lat="43.067882999999505" lon="-1.268679000000001">
        <ele>1164.636</ele>
        <time>2022-08-24T09:26:34Z</time>
      </trkpt>
      <trkpt lat="43.067868999999504" lon="-1.268652000000001">
        <ele>1164.856</ele>
        <time>2022-08-24T09:26:35Z</time>
      </trkpt>
      <trkpt lat="43.0678559999995" lon="-1.268625000000001">
        <ele>1165.232</ele>
        <time>2022-08-24T09:26:36Z</time>
      </trkpt>
      <trkpt lat="43.0678429999995" lon="-1.268598000000001">
        <ele>1165.454</ele>
        <time>2022-08-24T09:26:37Z</time>
      </trkpt>
      <trkpt lat="43.0678289999995" lon="-1.268570000000001">
        <ele>1165.891</ele>
        <time>2022-08-24T09:26:38Z</time>
      </trkpt>
      <trkpt lat="43.0678149999995" lon="-1.2685390000000012">
        <ele>1165.874</ele>
        <time>2022-08-24T09:26:39Z</time>
      </trkpt>
      <trkpt lat="43.067801999999496" lon="-1.2685070000000012">
        <ele>1165.828</ele>
        <time>2022-08-24T09:26:40Z</time>
      </trkpt>
      <trkpt lat="43.067785999999494" lon="-1.2684740000000012">
        <ele>1165.887</ele>
        <time>2022-08-24T09:26:41Z</time>
      </trkpt>
      <trkpt lat="43.06776999999949" lon="-1.2684410000000013">
        <ele>1165.868</ele>
        <time>2022-08-24T09:26:42Z</time>
      </trkpt>
      <trkpt lat="43.06775599999949" lon="-1.2684070000000012">
        <ele>1165.442</ele>
        <time>2022-08-24T09:26:43Z</time>
      </trkpt>
      <trkpt lat="43.06774299999949" lon="-1.268370000000001">
        <ele>1165.226</ele>
        <time>2022-08-24T09:26:44Z</time>
      </trkpt>
      <trkpt lat="43.067729999999486" lon="-1.2683310000000012">
        <ele>1165.009</ele>
        <time>2022-08-24T09:26:45Z</time>
      </trkpt>
      <trkpt lat="43.06771499999949" lon="-1.2682910000000012">
        <ele>1164.647</ele>
        <time>2022-08-24T09:26:46Z</time>
      </trkpt>
      <trkpt lat="43.06769999999949" lon="-1.268249000000001">
        <ele>1164.447</ele>
        <time>2022-08-24T09:26:47Z</time>
      </trkpt>
      <trkpt lat="43.06768099999949" lon="-1.268206000000001">
        <ele>1164.467</ele>
        <time>2022-08-24T09:26:48Z</time>
      </trkpt>
      <trkpt lat="43.06765799999949" lon="-1.268161000000001">
        <ele>1164.433</ele>
        <time>2022-08-24T09:26:49Z</time>
      </trkpt>
      <trkpt lat="43.06763299999949" lon="-1.268114000000001">
        <ele>1164.415</ele>
        <time>2022-08-24T09:26:50Z</time>
      </trkpt>
      <trkpt lat="43.06760299999949" lon="-1.268066000000001">
        <ele>1164.442</ele>
        <time>2022-08-24T09:26:51Z</time>
      </trkpt>
      <trkpt lat="43.06756899999949" lon="-1.268020000000001">
        <ele>1164.435</ele>
        <time>2022-08-24T09:26:52Z</time>
      </trkpt>
      <trkpt lat="43.067530999999484" lon="-1.267974000000001">
        <ele>1164.429</ele>
        <time>2022-08-24T09:26:53Z</time>
      </trkpt>
      <trkpt lat="43.06744699999948" lon="-1.267878000000001">
        <ele>1164.248</ele>
        <time>2022-08-24T09:26:55Z</time>
      </trkpt>
      <trkpt lat="43.06739899999948" lon="-1.267832000000001">
        <ele>1164.065</ele>
        <time>2022-08-24T09:26:56Z</time>
      </trkpt>
      <trkpt lat="43.067349999999486" lon="-1.267792000000001">
        <ele>1163.468</ele>
        <time>2022-08-24T09:26:57Z</time>
      </trkpt>
      <trkpt lat="43.06730099999949" lon="-1.2677580000000008">
        <ele>1162.414</ele>
        <time>2022-08-24T09:26:58Z</time>
      </trkpt>
      <trkpt lat="43.06719499999949" lon="-1.2677010000000009">
        <ele>1161.409</ele>
        <time>2022-08-24T09:27:00Z</time>
      </trkpt>
      <trkpt lat="43.06714399999949" lon="-1.2676740000000009">
        <ele>1160.847</ele>
        <time>2022-08-24T09:27:01Z</time>
      </trkpt>
      <trkpt lat="43.067093999999486" lon="-1.2676500000000008">
        <ele>1160.277</ele>
        <time>2022-08-24T09:27:02Z</time>
      </trkpt>
      <trkpt lat="43.067045999999486" lon="-1.2676310000000008">
        <ele>1159.427</ele>
        <time>2022-08-24T09:27:03Z</time>
      </trkpt>
      <trkpt lat="43.06700199999948" lon="-1.2676120000000008">
        <ele>1159.023</ele>
        <time>2022-08-24T09:27:04Z</time>
      </trkpt>
      <trkpt lat="43.06695999999948" lon="-1.2675960000000008">
        <ele>1158.275</ele>
        <time>2022-08-24T09:27:05Z</time>
      </trkpt>
      <trkpt lat="43.06692399999948" lon="-1.2675800000000008">
        <ele>1158.082</ele>
        <time>2022-08-24T09:27:06Z</time>
      </trkpt>
      <trkpt lat="43.06688999999948" lon="-1.2675650000000007">
        <ele>1157.635</ele>
        <time>2022-08-24T09:27:07Z</time>
      </trkpt>
      <trkpt lat="43.06685399999948" lon="-1.2675500000000006">
        <ele>1157.469</ele>
        <time>2022-08-24T09:27:08Z</time>
      </trkpt>
      <trkpt lat="43.06681999999948" lon="-1.2675400000000006">
        <ele>1157.228</ele>
        <time>2022-08-24T09:27:09Z</time>
      </trkpt>
      <trkpt lat="43.066784999999484" lon="-1.2675330000000005">
        <ele>1157.069</ele>
        <time>2022-08-24T09:27:10Z</time>
      </trkpt>
      <trkpt lat="43.06674899999948" lon="-1.2675270000000005">
        <ele>1156.804</ele>
        <time>2022-08-24T09:27:11Z</time>
      </trkpt>
      <trkpt lat="43.06671599999948" lon="-1.2675160000000005">
        <ele>1156.624</ele>
        <time>2022-08-24T09:27:12Z</time>
      </trkpt>
      <trkpt lat="43.06665099999948" lon="-1.2674930000000004">
        <ele>1156.409</ele>
        <time>2022-08-24T09:27:14Z</time>
      </trkpt>
      <trkpt lat="43.066618999999484" lon="-1.2674820000000004">
        <ele>1156.487</ele>
        <time>2022-08-24T09:27:15Z</time>
      </trkpt>
      <trkpt lat="43.066550999999485" lon="-1.2674540000000005">
        <ele>1156.247</ele>
        <time>2022-08-24T09:27:17Z</time>
      </trkpt>
      <trkpt lat="43.06651799999948" lon="-1.2674470000000004">
        <ele>1156.227</ele>
        <time>2022-08-24T09:27:18Z</time>
      </trkpt>
      <trkpt lat="43.066488999999486" lon="-1.2674410000000005">
        <ele>1156.453</ele>
        <time>2022-08-24T09:27:19Z</time>
      </trkpt>
      <trkpt lat="43.066460999999485" lon="-1.2674360000000005">
        <ele>1156.425</ele>
        <time>2022-08-24T09:27:20Z</time>
      </trkpt>
      <trkpt lat="43.066432999999485" lon="-1.2674330000000005">
        <ele>1156.642</ele>
        <time>2022-08-24T09:27:21Z</time>
      </trkpt>
      <trkpt lat="43.066404999999484" lon="-1.2674270000000005">
        <ele>1156.885</ele>
        <time>2022-08-24T09:27:22Z</time>
      </trkpt>
      <trkpt lat="43.06632099999948" lon="-1.2674030000000005">
        <ele>1156.879</ele>
        <time>2022-08-24T09:27:25Z</time>
      </trkpt>
      <trkpt lat="43.06629299999948" lon="-1.2673960000000004">
        <ele>1157.088</ele>
        <time>2022-08-24T09:27:26Z</time>
      </trkpt>
      <trkpt lat="43.06626599999948" lon="-1.2673940000000004">
        <ele>1157.056</ele>
        <time>2022-08-24T09:27:27Z</time>
      </trkpt>
      <trkpt lat="43.06624099999948" lon="-1.2673930000000004">
        <ele>1157.259</ele>
        <time>2022-08-24T09:27:28Z</time>
      </trkpt>
      <trkpt lat="43.06621499999948" lon="-1.2673860000000003">
        <ele>1157.414</ele>
        <time>2022-08-24T09:27:29Z</time>
      </trkpt>
      <trkpt lat="43.06618799999948" lon="-1.2673780000000003">
        <ele>1157.409</ele>
        <time>2022-08-24T09:27:30Z</time>
      </trkpt>
      <trkpt lat="43.06608299999948" lon="-1.2673460000000003">
        <ele>1157.426</ele>
        <time>2022-08-24T09:27:34Z</time>
      </trkpt>
      <trkpt lat="43.06585699999948" lon="-1.2672920000000003">
        <ele>1157.666</ele>
        <time>2022-08-24T09:27:42Z</time>
      </trkpt>
      <trkpt lat="43.06580199999948" lon="-1.2672780000000003">
        <ele>1157.676</ele>
        <time>2022-08-24T09:27:44Z</time>
      </trkpt>
      <trkpt lat="43.06556199999948" lon="-1.2671990000000004">
        <ele>1157.652</ele>
        <time>2022-08-24T09:27:52Z</time>
      </trkpt>
      <trkpt lat="43.06553099999948" lon="-1.2671890000000003">
        <ele>1157.644</ele>
        <time>2022-08-24T09:27:53Z</time>
      </trkpt>
      <trkpt lat="43.06550199999948" lon="-1.2671780000000004">
        <ele>1157.671</ele>
        <time>2022-08-24T09:27:54Z</time>
      </trkpt>
      <trkpt lat="43.06547199999948" lon="-1.2671670000000004">
        <ele>1157.664</ele>
        <time>2022-08-24T09:27:55Z</time>
      </trkpt>
      <trkpt lat="43.06538399999948" lon="-1.2671390000000005">
        <ele>1157.828</ele>
        <time>2022-08-24T09:27:58Z</time>
      </trkpt>
      <trkpt lat="43.06535699999948" lon="-1.2671310000000005">
        <ele>1157.837</ele>
        <time>2022-08-24T09:27:59Z</time>
      </trkpt>
      <trkpt lat="43.06533099999948" lon="-1.2671240000000004">
        <ele>1157.862</ele>
        <time>2022-08-24T09:28:00Z</time>
      </trkpt>
      <trkpt lat="43.06530599999948" lon="-1.2671140000000003">
        <ele>1157.883</ele>
        <time>2022-08-24T09:28:01Z</time>
      </trkpt>
      <trkpt lat="43.06527999999948" lon="-1.2671080000000003">
        <ele>1157.811</ele>
        <time>2022-08-24T09:28:02Z</time>
      </trkpt>
      <trkpt lat="43.06525499999948" lon="-1.2671030000000003">
        <ele>1157.809</ele>
        <time>2022-08-24T09:28:03Z</time>
      </trkpt>
      <trkpt lat="43.065205999999485" lon="-1.2670910000000004">
        <ele>1157.857</ele>
        <time>2022-08-24T09:28:05Z</time>
      </trkpt>
      <trkpt lat="43.065179999999486" lon="-1.2670840000000003">
        <ele>1158.057</ele>
        <time>2022-08-24T09:28:06Z</time>
      </trkpt>
      <trkpt lat="43.065076999999484" lon="-1.2670430000000004">
        <ele>1157.857</ele>
        <time>2022-08-24T09:28:10Z</time>
      </trkpt>
      <trkpt lat="43.06502499999949" lon="-1.2670230000000005">
        <ele>1157.873</ele>
        <time>2022-08-24T09:28:12Z</time>
      </trkpt>
      <trkpt lat="43.06500199999949" lon="-1.2670120000000005">
        <ele>1157.845</ele>
        <time>2022-08-24T09:28:13Z</time>
      </trkpt>
      <trkpt lat="43.06497899999949" lon="-1.2670030000000005">
        <ele>1157.862</ele>
        <time>2022-08-24T09:28:14Z</time>
      </trkpt>
      <trkpt lat="43.06495799999949" lon="-1.2669910000000006">
        <ele>1157.665</ele>
        <time>2022-08-24T09:28:15Z</time>
      </trkpt>
      <trkpt lat="43.06493899999949" lon="-1.2669780000000006">
        <ele>1157.699</ele>
        <time>2022-08-24T09:28:16Z</time>
      </trkpt>
      <trkpt lat="43.06491899999949" lon="-1.2669660000000007">
        <ele>1157.468</ele>
        <time>2022-08-24T09:28:17Z</time>
      </trkpt>
      <trkpt lat="43.06490299999949" lon="-1.2669590000000006">
        <ele>1157.433</ele>
        <time>2022-08-24T09:28:18Z</time>
      </trkpt>
      <trkpt lat="43.06488999999949" lon="-1.2669580000000007">
        <ele>1157.423</ele>
        <time>2022-08-24T09:28:19Z</time>
      </trkpt>
      <trkpt lat="43.06487599999949" lon="-1.2669570000000008">
        <ele>1157.215</ele>
        <time>2022-08-24T09:28:20Z</time>
      </trkpt>
      <trkpt lat="43.06486099999949" lon="-1.2669540000000008">
        <ele>1157.209</ele>
        <time>2022-08-24T09:28:21Z</time>
      </trkpt>
      <trkpt lat="43.06484399999949" lon="-1.2669480000000009">
        <ele>1157.254</ele>
        <time>2022-08-24T09:28:22Z</time>
      </trkpt>
      <trkpt lat="43.06481099999949" lon="-1.266936000000001">
        <ele>1157.024</ele>
        <time>2022-08-24T09:28:24Z</time>
      </trkpt>
      <trkpt lat="43.06474799999949" lon="-1.2669020000000009">
        <ele>1157.054</ele>
        <time>2022-08-24T09:28:28Z</time>
      </trkpt>
      <trkpt lat="43.06468999999949" lon="-1.266882000000001">
        <ele>1157.280</ele>
        <time>2022-08-24T09:28:31Z</time>
      </trkpt>
      <trkpt lat="43.06451699999949" lon="-1.266797000000001">
        <ele>1158.072</ele>
        <time>2022-08-24T09:28:39Z</time>
      </trkpt>
      <trkpt lat="43.064495999999494" lon="-1.266790000000001">
        <ele>1158.049</ele>
        <time>2022-08-24T09:28:40Z</time>
      </trkpt>
      <trkpt lat="43.06447699999949" lon="-1.266785000000001">
        <ele>1158.242</ele>
        <time>2022-08-24T09:28:41Z</time>
      </trkpt>
      <trkpt lat="43.06445799999949" lon="-1.266779000000001">
        <ele>1158.246</ele>
        <time>2022-08-24T09:28:42Z</time>
      </trkpt>
      <trkpt lat="43.064436999999494" lon="-1.266770000000001">
        <ele>1158.285</ele>
        <time>2022-08-24T09:28:43Z</time>
      </trkpt>
      <trkpt lat="43.06439899999949" lon="-1.2667530000000011">
        <ele>1158.492</ele>
        <time>2022-08-24T09:28:45Z</time>
      </trkpt>
      <trkpt lat="43.06438099999949" lon="-1.2667450000000011">
        <ele>1158.473</ele>
        <time>2022-08-24T09:28:46Z</time>
      </trkpt>
      <trkpt lat="43.06436499999949" lon="-1.2667370000000011">
        <ele>1158.420</ele>
        <time>2022-08-24T09:28:47Z</time>
      </trkpt>
      <trkpt lat="43.06434799999949" lon="-1.266727000000001">
        <ele>1158.609</ele>
        <time>2022-08-24T09:28:48Z</time>
      </trkpt>
      <trkpt lat="43.064329999999494" lon="-1.266720000000001">
        <ele>1158.610</ele>
        <time>2022-08-24T09:28:49Z</time>
      </trkpt>
      <trkpt lat="43.064312999999494" lon="-1.266711000000001">
        <ele>1158.610</ele>
        <time>2022-08-24T09:28:50Z</time>
      </trkpt>
      <trkpt lat="43.0642049999995" lon="-1.266669000000001">
        <ele>1158.820</ele>
        <time>2022-08-24T09:28:56Z</time>
      </trkpt>
      <trkpt lat="43.064188999999494" lon="-1.266661000000001">
        <ele>1158.846</ele>
        <time>2022-08-24T09:28:57Z</time>
      </trkpt>
      <trkpt lat="43.0641709999995" lon="-1.2666540000000008">
        <ele>1159.078</ele>
        <time>2022-08-24T09:28:58Z</time>
      </trkpt>
      <trkpt lat="43.0641529999995" lon="-1.2666460000000008">
        <ele>1159.015</ele>
        <time>2022-08-24T09:28:59Z</time>
      </trkpt>
      <trkpt lat="43.0641219999995" lon="-1.2666320000000009">
        <ele>1159.278</ele>
        <time>2022-08-24T09:29:01Z</time>
      </trkpt>
      <trkpt lat="43.0641059999995" lon="-1.266626000000001">
        <ele>1159.292</ele>
        <time>2022-08-24T09:29:02Z</time>
      </trkpt>
      <trkpt lat="43.0640909999995" lon="-1.266618000000001">
        <ele>1159.221</ele>
        <time>2022-08-24T09:29:03Z</time>
      </trkpt>
      <trkpt lat="43.0640159999995" lon="-1.2665940000000009">
        <ele>1159.457</ele>
        <time>2022-08-24T09:29:07Z</time>
      </trkpt>
      <trkpt lat="43.0638149999995" lon="-1.266531000000001">
        <ele>1159.400</ele>
        <time>2022-08-24T09:29:16Z</time>
      </trkpt>
      <trkpt lat="43.0637689999995" lon="-1.266515000000001">
        <ele>1159.620</ele>
        <time>2022-08-24T09:29:18Z</time>
      </trkpt>
      <trkpt lat="43.0637449999995" lon="-1.2665080000000009">
        <ele>1160.009</ele>
        <time>2022-08-24T09:29:19Z</time>
      </trkpt>
      <trkpt lat="43.0637249999995" lon="-1.2665010000000008">
        <ele>1160.286</ele>
        <time>2022-08-24T09:29:20Z</time>
      </trkpt>
      <trkpt lat="43.0637029999995" lon="-1.2664940000000007">
        <ele>1160.426</ele>
        <time>2022-08-24T09:29:21Z</time>
      </trkpt>
      <trkpt lat="43.0636769999995" lon="-1.2664900000000008">
        <ele>1160.446</ele>
        <time>2022-08-24T09:29:22Z</time>
      </trkpt>
      <trkpt lat="43.0635619999995" lon="-1.2664770000000007">
        <ele>1160.622</ele>
        <time>2022-08-24T09:29:26Z</time>
      </trkpt>
      <trkpt lat="43.0633479999995" lon="-1.2664700000000007">
        <ele>1160.434</ele>
        <time>2022-08-24T09:29:33Z</time>
      </trkpt>
      <trkpt lat="43.0632159999995" lon="-1.2664970000000007">
        <ele>1160.271</ele>
        <time>2022-08-24T09:29:37Z</time>
      </trkpt>
      <trkpt lat="43.0630459999995" lon="-1.2665490000000006">
        <ele>1159.844</ele>
        <time>2022-08-24T09:29:42Z</time>
      </trkpt>
      <trkpt lat="43.0629429999995" lon="-1.2665880000000005">
        <ele>1159.658</ele>
        <time>2022-08-24T09:29:45Z</time>
      </trkpt>
      <trkpt lat="43.0628339999995" lon="-1.2666300000000006">
        <ele>1159.287</ele>
        <time>2022-08-24T09:29:48Z</time>
      </trkpt>
      <trkpt lat="43.062727999999495" lon="-1.2666680000000006">
        <ele>1159.078</ele>
        <time>2022-08-24T09:29:51Z</time>
      </trkpt>
      <trkpt lat="43.06265899999949" lon="-1.2666880000000005">
        <ele>1158.833</ele>
        <time>2022-08-24T09:29:53Z</time>
      </trkpt>
      <trkpt lat="43.06262599999949" lon="-1.2667010000000005">
        <ele>1158.426</ele>
        <time>2022-08-24T09:29:54Z</time>
      </trkpt>
      <trkpt lat="43.06259199999949" lon="-1.2667110000000006">
        <ele>1158.409</ele>
        <time>2022-08-24T09:29:55Z</time>
      </trkpt>
      <trkpt lat="43.06255999999949" lon="-1.2667230000000005">
        <ele>1158.438</ele>
        <time>2022-08-24T09:29:56Z</time>
      </trkpt>
      <trkpt lat="43.062525999999494" lon="-1.2667350000000004">
        <ele>1158.058</ele>
        <time>2022-08-24T09:29:57Z</time>
      </trkpt>
      <trkpt lat="43.06249299999949" lon="-1.2667450000000005">
        <ele>1158.018</ele>
        <time>2022-08-24T09:29:58Z</time>
      </trkpt>
      <trkpt lat="43.062460999999495" lon="-1.2667540000000004">
        <ele>1158.044</ele>
        <time>2022-08-24T09:29:59Z</time>
      </trkpt>
      <trkpt lat="43.0624259999995" lon="-1.2667630000000003">
        <ele>1157.876</ele>
        <time>2022-08-24T09:30:00Z</time>
      </trkpt>
      <trkpt lat="43.0623939999995" lon="-1.2667710000000003">
        <ele>1157.883</ele>
        <time>2022-08-24T09:30:01Z</time>
      </trkpt>
      <trkpt lat="43.0623639999995" lon="-1.2667800000000002">
        <ele>1157.466</ele>
        <time>2022-08-24T09:30:02Z</time>
      </trkpt>
      <trkpt lat="43.062333999999495" lon="-1.2667890000000002">
        <ele>1157.270</ele>
        <time>2022-08-24T09:30:03Z</time>
      </trkpt>
      <trkpt lat="43.06230399999949" lon="-1.2667960000000003">
        <ele>1157.289</ele>
        <time>2022-08-24T09:30:04Z</time>
      </trkpt>
      <trkpt lat="43.06227399999949" lon="-1.2668050000000002">
        <ele>1157.253</ele>
        <time>2022-08-24T09:30:05Z</time>
      </trkpt>
      <trkpt lat="43.06224499999949" lon="-1.266814">
        <ele>1157.204</ele>
        <time>2022-08-24T09:30:06Z</time>
      </trkpt>
      <trkpt lat="43.06221799999949" lon="-1.2668210000000002">
        <ele>1157.214</ele>
        <time>2022-08-24T09:30:07Z</time>
      </trkpt>
      <trkpt lat="43.06219199999949" lon="-1.2668270000000001">
        <ele>1157.209</ele>
        <time>2022-08-24T09:30:08Z</time>
      </trkpt>
      <trkpt lat="43.06216599999949" lon="-1.2668320000000002">
        <ele>1157.046</ele>
        <time>2022-08-24T09:30:09Z</time>
      </trkpt>
      <trkpt lat="43.06214199999949" lon="-1.2668390000000003">
        <ele>1157.046</ele>
        <time>2022-08-24T09:30:10Z</time>
      </trkpt>
      <trkpt lat="43.06211999999949" lon="-1.2668440000000003">
        <ele>1157.056</ele>
        <time>2022-08-24T09:30:11Z</time>
      </trkpt>
      <trkpt lat="43.06209899999949" lon="-1.2668490000000003">
        <ele>1157.042</ele>
        <time>2022-08-24T09:30:12Z</time>
      </trkpt>
      <trkpt lat="43.06207699999949" lon="-1.2668550000000003">
        <ele>1157.044</ele>
        <time>2022-08-24T09:30:13Z</time>
      </trkpt>
      <trkpt lat="43.06205499999949" lon="-1.2668600000000003">
        <ele>1157.231</ele>
        <time>2022-08-24T09:30:14Z</time>
      </trkpt>
      <trkpt lat="43.06203299999949" lon="-1.2668650000000004">
        <ele>1157.284</ele>
        <time>2022-08-24T09:30:15Z</time>
      </trkpt>
      <trkpt lat="43.06200999999949" lon="-1.2668710000000003">
        <ele>1157.248</ele>
        <time>2022-08-24T09:30:16Z</time>
      </trkpt>
      <trkpt lat="43.06198999999949" lon="-1.2668780000000004">
        <ele>1157.437</ele>
        <time>2022-08-24T09:30:17Z</time>
      </trkpt>
      <trkpt lat="43.06196999999949" lon="-1.2668860000000004">
        <ele>1157.623</ele>
        <time>2022-08-24T09:30:18Z</time>
      </trkpt>
      <trkpt lat="43.06195199999949" lon="-1.2668950000000003">
        <ele>1157.883</ele>
        <time>2022-08-24T09:30:19Z</time>
      </trkpt>
      <trkpt lat="43.06193299999949" lon="-1.2669020000000004">
        <ele>1158.211</ele>
        <time>2022-08-24T09:30:20Z</time>
      </trkpt>
      <trkpt lat="43.06191299999949" lon="-1.2669080000000004">
        <ele>1158.609</ele>
        <time>2022-08-24T09:30:21Z</time>
      </trkpt>
      <trkpt lat="43.06187699999949" lon="-1.2669270000000004">
        <ele>1159.013</ele>
        <time>2022-08-24T09:30:23Z</time>
      </trkpt>
      <trkpt lat="43.06185999999949" lon="-1.2669360000000003">
        <ele>1159.223</ele>
        <time>2022-08-24T09:30:24Z</time>
      </trkpt>
      <trkpt lat="43.061844999999494" lon="-1.2669450000000002">
        <ele>1159.273</ele>
        <time>2022-08-24T09:30:25Z</time>
      </trkpt>
      <trkpt lat="43.061827999999494" lon="-1.2669520000000003">
        <ele>1159.299</ele>
        <time>2022-08-24T09:30:26Z</time>
      </trkpt>
      <trkpt lat="43.06181199999949" lon="-1.2669610000000002">
        <ele>1159.441</ele>
        <time>2022-08-24T09:30:27Z</time>
      </trkpt>
      <trkpt lat="43.06179299999949" lon="-1.2669740000000003">
        <ele>1159.698</ele>
        <time>2022-08-24T09:30:28Z</time>
      </trkpt>
      <trkpt lat="43.06177699999949" lon="-1.2669860000000002">
        <ele>1159.631</ele>
        <time>2022-08-24T09:30:29Z</time>
      </trkpt>
      <trkpt lat="43.06175999999949" lon="-1.2670050000000002">
        <ele>1159.855</ele>
        <time>2022-08-24T09:30:30Z</time>
      </trkpt>
      <trkpt lat="43.06172799999949" lon="-1.2670400000000002">
        <ele>1160.044</ele>
        <time>2022-08-24T09:30:32Z</time>
      </trkpt>
      <trkpt lat="43.06171499999949" lon="-1.2670580000000002">
        <ele>1160.039</ele>
        <time>2022-08-24T09:30:33Z</time>
      </trkpt>
      <trkpt lat="43.06170599999949" lon="-1.2670790000000003">
        <ele>1160.001</ele>
        <time>2022-08-24T09:30:34Z</time>
      </trkpt>
      <trkpt lat="43.061695999999486" lon="-1.2671000000000003">
        <ele>1160.221</ele>
        <time>2022-08-24T09:30:35Z</time>
      </trkpt>
      <trkpt lat="43.06168399999949" lon="-1.2671210000000004">
        <ele>1160.209</ele>
        <time>2022-08-24T09:30:36Z</time>
      </trkpt>
      <trkpt lat="43.06167299999949" lon="-1.2671440000000005">
        <ele>1160.844</ele>
        <time>2022-08-24T09:30:37Z</time>
      </trkpt>
      <trkpt lat="43.061662999999484" lon="-1.2671650000000005">
        <ele>1161.074</ele>
        <time>2022-08-24T09:30:38Z</time>
      </trkpt>
      <trkpt lat="43.061653999999486" lon="-1.2671870000000005">
        <ele>1161.484</ele>
        <time>2022-08-24T09:30:39Z</time>
      </trkpt>
      <trkpt lat="43.06164699999949" lon="-1.2672080000000006">
        <ele>1161.680</ele>
        <time>2022-08-24T09:30:40Z</time>
      </trkpt>
      <trkpt lat="43.06163899999949" lon="-1.2672280000000005">
        <ele>1162.072</ele>
        <time>2022-08-24T09:30:41Z</time>
      </trkpt>
      <trkpt lat="43.06162999999949" lon="-1.2672490000000005">
        <ele>1162.019</ele>
        <time>2022-08-24T09:30:42Z</time>
      </trkpt>
      <trkpt lat="43.06162099999949" lon="-1.2672710000000005">
        <ele>1162.242</ele>
        <time>2022-08-24T09:30:43Z</time>
      </trkpt>
      <trkpt lat="43.061613999999494" lon="-1.2672950000000005">
        <ele>1162.276</ele>
        <time>2022-08-24T09:30:44Z</time>
      </trkpt>
      <trkpt lat="43.06160899999949" lon="-1.2673200000000004">
        <ele>1162.295</ele>
        <time>2022-08-24T09:30:45Z</time>
      </trkpt>
      <trkpt lat="43.06159899999949" lon="-1.2673440000000005">
        <ele>1162.413</ele>
        <time>2022-08-24T09:30:46Z</time>
      </trkpt>
      <trkpt lat="43.06158999999949" lon="-1.2673660000000004">
        <ele>1162.443</ele>
        <time>2022-08-24T09:30:47Z</time>
      </trkpt>
      <trkpt lat="43.06158199999949" lon="-1.2673890000000005">
        <ele>1162.607</ele>
        <time>2022-08-24T09:30:48Z</time>
      </trkpt>
      <trkpt lat="43.06157499999949" lon="-1.2674130000000006">
        <ele>1163.009</ele>
        <time>2022-08-24T09:30:49Z</time>
      </trkpt>
      <trkpt lat="43.0615679999995" lon="-1.2674360000000007">
        <ele>1163.052</ele>
        <time>2022-08-24T09:30:50Z</time>
      </trkpt>
      <trkpt lat="43.0615609999995" lon="-1.2674610000000006">
        <ele>1163.282</ele>
        <time>2022-08-24T09:30:51Z</time>
      </trkpt>
      <trkpt lat="43.0615559999995" lon="-1.2674850000000006">
        <ele>1163.222</ele>
        <time>2022-08-24T09:30:52Z</time>
      </trkpt>
      <trkpt lat="43.0615539999995" lon="-1.2675090000000007">
        <ele>1163.448</ele>
        <time>2022-08-24T09:30:53Z</time>
      </trkpt>
      <trkpt lat="43.0615529999995" lon="-1.2675310000000006">
        <ele>1163.430</ele>
        <time>2022-08-24T09:30:54Z</time>
      </trkpt>
      <trkpt lat="43.0615529999995" lon="-1.2675480000000006">
        <ele>1163.447</ele>
        <time>2022-08-24T09:30:55Z</time>
      </trkpt>
      <trkpt lat="43.0615489999995" lon="-1.2675640000000006">
        <ele>1163.660</ele>
        <time>2022-08-24T09:30:56Z</time>
      </trkpt>
      <trkpt lat="43.061541999999505" lon="-1.2675810000000005">
        <ele>1163.644</ele>
        <time>2022-08-24T09:30:57Z</time>
      </trkpt>
      <trkpt lat="43.06153499999951" lon="-1.2675990000000006">
        <ele>1163.683</ele>
        <time>2022-08-24T09:30:58Z</time>
      </trkpt>
      <trkpt lat="43.06152899999951" lon="-1.2676200000000006">
        <ele>1163.893</ele>
        <time>2022-08-24T09:30:59Z</time>
      </trkpt>
      <trkpt lat="43.06152599999951" lon="-1.2676410000000007">
        <ele>1164.065</ele>
        <time>2022-08-24T09:31:00Z</time>
      </trkpt>
      <trkpt lat="43.06152599999951" lon="-1.2676630000000007">
        <ele>1164.021</ele>
        <time>2022-08-24T09:31:01Z</time>
      </trkpt>
      <trkpt lat="43.06152399999951" lon="-1.2676840000000007">
        <ele>1164.209</ele>
        <time>2022-08-24T09:31:02Z</time>
      </trkpt>
      <trkpt lat="43.06151999999951" lon="-1.2677060000000007">
        <ele>1164.230</ele>
        <time>2022-08-24T09:31:03Z</time>
      </trkpt>
      <trkpt lat="43.06151499999951" lon="-1.2677270000000007">
        <ele>1164.460</ele>
        <time>2022-08-24T09:31:04Z</time>
      </trkpt>
      <trkpt lat="43.06151299999951" lon="-1.2677450000000008">
        <ele>1164.470</ele>
        <time>2022-08-24T09:31:05Z</time>
      </trkpt>
      <trkpt lat="43.06150999999951" lon="-1.2677620000000007">
        <ele>1164.676</ele>
        <time>2022-08-24T09:31:06Z</time>
      </trkpt>
      <trkpt lat="43.06150499999951" lon="-1.2677800000000008">
        <ele>1164.868</ele>
        <time>2022-08-24T09:31:07Z</time>
      </trkpt>
      <trkpt lat="43.061499999999505" lon="-1.2677980000000009">
        <ele>1164.835</ele>
        <time>2022-08-24T09:31:08Z</time>
      </trkpt>
      <trkpt lat="43.06149599999951" lon="-1.2678180000000008">
        <ele>1165.018</ele>
        <time>2022-08-24T09:31:09Z</time>
      </trkpt>
      <trkpt lat="43.06149199999951" lon="-1.2678370000000008">
        <ele>1165.072</ele>
        <time>2022-08-24T09:31:10Z</time>
      </trkpt>
      <trkpt lat="43.06148999999951" lon="-1.2678550000000008">
        <ele>1165.251</ele>
        <time>2022-08-24T09:31:11Z</time>
      </trkpt>
      <trkpt lat="43.06148899999951" lon="-1.2678670000000007">
        <ele>1165.248</ele>
        <time>2022-08-24T09:31:12Z</time>
      </trkpt>
      <trkpt lat="43.06148399999951" lon="-1.2678790000000006">
        <ele>1165.461</ele>
        <time>2022-08-24T09:31:13Z</time>
      </trkpt>
      <trkpt lat="43.06147699999951" lon="-1.2678940000000007">
        <ele>1165.617</ele>
        <time>2022-08-24T09:31:14Z</time>
      </trkpt>
      <trkpt lat="43.061470999999514" lon="-1.2679120000000008">
        <ele>1165.609</ele>
        <time>2022-08-24T09:31:15Z</time>
      </trkpt>
      <trkpt lat="43.06146599999951" lon="-1.2679320000000007">
        <ele>1165.635</ele>
        <time>2022-08-24T09:31:16Z</time>
      </trkpt>
      <trkpt lat="43.061464999999515" lon="-1.2679520000000006">
        <ele>1165.895</ele>
        <time>2022-08-24T09:31:17Z</time>
      </trkpt>
      <trkpt lat="43.061461999999516" lon="-1.2679700000000007">
        <ele>1166.045</ele>
        <time>2022-08-24T09:31:18Z</time>
      </trkpt>
      <trkpt lat="43.06145499999952" lon="-1.2679840000000007">
        <ele>1166.651</ele>
        <time>2022-08-24T09:31:19Z</time>
      </trkpt>
      <trkpt lat="43.06144799999952" lon="-1.2679970000000007">
        <ele>1167.043</ele>
        <time>2022-08-24T09:31:20Z</time>
      </trkpt>
      <trkpt lat="43.06143999999952" lon="-1.2680100000000007">
        <ele>1167.040</ele>
        <time>2022-08-24T09:31:21Z</time>
      </trkpt>
      <trkpt lat="43.06142999999952" lon="-1.2680200000000008">
        <ele>1167.483</ele>
        <time>2022-08-24T09:31:22Z</time>
      </trkpt>
      <trkpt lat="43.061419999999515" lon="-1.2680290000000007">
        <ele>1167.497</ele>
        <time>2022-08-24T09:31:23Z</time>
      </trkpt>
      <trkpt lat="43.061408999999514" lon="-1.2680350000000007">
        <ele>1167.886</ele>
        <time>2022-08-24T09:31:24Z</time>
      </trkpt>
      <trkpt lat="43.061397999999514" lon="-1.2680390000000006">
        <ele>1167.865</ele>
        <time>2022-08-24T09:31:25Z</time>
      </trkpt>
      <trkpt lat="43.06138699999951" lon="-1.2680410000000006">
        <ele>1168.068</ele>
        <time>2022-08-24T09:31:26Z</time>
      </trkpt>
      <trkpt lat="43.06138199999951" lon="-1.2680410000000006">
        <ele>1168.214</ele>
        <time>2022-08-24T09:31:27Z</time>
      </trkpt>
      <trkpt lat="43.06138199999951" lon="-1.2680410000000006">
        <ele>1167.209</ele>
        <time>2022-08-24T09:32:31Z</time>
      </trkpt>
      <trkpt lat="43.061380999999514" lon="-1.2680420000000006">
        <ele>1167.267</ele>
        <time>2022-08-24T09:32:32Z</time>
      </trkpt>
      <trkpt lat="43.061352999999514" lon="-1.2680520000000006">
        <ele>1167.287</ele>
        <time>2022-08-24T09:32:55Z</time>
      </trkpt>
      <trkpt lat="43.06135399999951" lon="-1.2680520000000006">
        <ele>1167.267</ele>
        <time>2022-08-24T09:32:57Z</time>
      </trkpt>
      <trkpt lat="43.06135499999951" lon="-1.2680620000000007">
        <ele>1167.233</ele>
        <time>2022-08-24T09:32:58Z</time>
      </trkpt>
      <trkpt lat="43.061355999999506" lon="-1.2680700000000007">
        <ele>1167.275</ele>
        <time>2022-08-24T09:32:59Z</time>
      </trkpt>
      <trkpt lat="43.061356999999504" lon="-1.2680800000000008">
        <ele>1167.232</ele>
        <time>2022-08-24T09:33:00Z</time>
      </trkpt>
      <trkpt lat="43.0613549999995" lon="-1.2680890000000007">
        <ele>1167.265</ele>
        <time>2022-08-24T09:33:01Z</time>
      </trkpt>
      <trkpt lat="43.061353999999504" lon="-1.2680970000000007">
        <ele>1167.279</ele>
        <time>2022-08-24T09:33:02Z</time>
      </trkpt>
      <trkpt lat="43.0613519999995" lon="-1.2681070000000008">
        <ele>1167.448</ele>
        <time>2022-08-24T09:33:03Z</time>
      </trkpt>
      <trkpt lat="43.0613549999995" lon="-1.2681320000000007">
        <ele>1167.432</ele>
        <time>2022-08-24T09:33:05Z</time>
      </trkpt>
      <trkpt lat="43.061356999999504" lon="-1.2681410000000006">
        <ele>1167.492</ele>
        <time>2022-08-24T09:33:06Z</time>
      </trkpt>
      <trkpt lat="43.061358999999506" lon="-1.2682140000000006">
        <ele>1169.211</ele>
        <time>2022-08-24T09:43:04Z</time>
      </trkpt>
      <trkpt lat="43.061344999999505" lon="-1.2682300000000006">
        <ele>1169.409</ele>
        <time>2022-08-24T09:43:05Z</time>
      </trkpt>
      <trkpt lat="43.0613119999995" lon="-1.2682600000000006">
        <ele>1170.254</ele>
        <time>2022-08-24T09:43:07Z</time>
      </trkpt>
      <trkpt lat="43.061296999999506" lon="-1.2682730000000006">
        <ele>1171.074</ele>
        <time>2022-08-24T09:43:08Z</time>
      </trkpt>
      <trkpt lat="43.061285999999505" lon="-1.2682830000000007">
        <ele>1171.684</ele>
        <time>2022-08-24T09:43:09Z</time>
      </trkpt>
      <trkpt lat="43.061274999999505" lon="-1.2682950000000006">
        <ele>1171.820</ele>
        <time>2022-08-24T09:43:10Z</time>
      </trkpt>
      <trkpt lat="43.061263999999504" lon="-1.2683050000000007">
        <ele>1172.072</ele>
        <time>2022-08-24T09:43:11Z</time>
      </trkpt>
      <trkpt lat="43.0612509999995" lon="-1.2683140000000006">
        <ele>1172.499</ele>
        <time>2022-08-24T09:43:12Z</time>
      </trkpt>
      <trkpt lat="43.0612369999995" lon="-1.2683210000000007">
        <ele>1172.652</ele>
        <time>2022-08-24T09:43:13Z</time>
      </trkpt>
      <trkpt lat="43.0612199999995" lon="-1.2683270000000006">
        <ele>1172.836</ele>
        <time>2022-08-24T09:43:14Z</time>
      </trkpt>
      <trkpt lat="43.0612039999995" lon="-1.2683340000000007">
        <ele>1173.025</ele>
        <time>2022-08-24T09:43:15Z</time>
      </trkpt>
      <trkpt lat="43.0611889999995" lon="-1.2683410000000008">
        <ele>1173.484</ele>
        <time>2022-08-24T09:43:16Z</time>
      </trkpt>
      <trkpt lat="43.061173999999504" lon="-1.2683460000000009">
        <ele>1173.607</ele>
        <time>2022-08-24T09:43:17Z</time>
      </trkpt>
      <trkpt lat="43.061158999999506" lon="-1.268351000000001">
        <ele>1173.817</ele>
        <time>2022-08-24T09:43:18Z</time>
      </trkpt>
      <trkpt lat="43.06114399999951" lon="-1.2683540000000009">
        <ele>1173.809</ele>
        <time>2022-08-24T09:43:19Z</time>
      </trkpt>
      <trkpt lat="43.06112899999951" lon="-1.2683540000000009">
        <ele>1174.069</ele>
        <time>2022-08-24T09:43:20Z</time>
      </trkpt>
      <trkpt lat="43.06111399999951" lon="-1.268350000000001">
        <ele>1174.029</ele>
        <time>2022-08-24T09:43:21Z</time>
      </trkpt>
      <trkpt lat="43.06109699999951" lon="-1.268346000000001">
        <ele>1174.029</ele>
        <time>2022-08-24T09:43:22Z</time>
      </trkpt>
      <trkpt lat="43.061081999999516" lon="-1.268341000000001">
        <ele>1174.275</ele>
        <time>2022-08-24T09:43:23Z</time>
      </trkpt>
      <trkpt lat="43.06106699999952" lon="-1.268335000000001">
        <ele>1174.227</ele>
        <time>2022-08-24T09:43:24Z</time>
      </trkpt>
      <trkpt lat="43.06105199999952" lon="-1.2683320000000011">
        <ele>1174.284</ele>
        <time>2022-08-24T09:43:25Z</time>
      </trkpt>
      <trkpt lat="43.06103699999952" lon="-1.2683310000000012">
        <ele>1174.457</ele>
        <time>2022-08-24T09:43:26Z</time>
      </trkpt>
      <trkpt lat="43.06102299999952" lon="-1.2683310000000012">
        <ele>1174.471</ele>
        <time>2022-08-24T09:43:27Z</time>
      </trkpt>
      <trkpt lat="43.06100899999952" lon="-1.2683310000000012">
        <ele>1174.480</ele>
        <time>2022-08-24T09:43:28Z</time>
      </trkpt>
      <trkpt lat="43.06099299999952" lon="-1.2683300000000013">
        <ele>1174.416</ele>
        <time>2022-08-24T09:43:29Z</time>
      </trkpt>
      <trkpt lat="43.06097999999952" lon="-1.2683300000000013">
        <ele>1174.676</ele>
        <time>2022-08-24T09:43:30Z</time>
      </trkpt>
      <trkpt lat="43.06096599999952" lon="-1.2683310000000012">
        <ele>1174.613</ele>
        <time>2022-08-24T09:43:31Z</time>
      </trkpt>
      <trkpt lat="43.060952999999515" lon="-1.2683310000000012">
        <ele>1174.609</ele>
        <time>2022-08-24T09:43:32Z</time>
      </trkpt>
      <trkpt lat="43.06093999999951" lon="-1.2683260000000012">
        <ele>1174.662</ele>
        <time>2022-08-24T09:43:33Z</time>
      </trkpt>
      <trkpt lat="43.06092699999951" lon="-1.268319000000001">
        <ele>1174.642</ele>
        <time>2022-08-24T09:43:34Z</time>
      </trkpt>
      <trkpt lat="43.06091299999951" lon="-1.268316000000001">
        <ele>1174.642</ele>
        <time>2022-08-24T09:43:35Z</time>
      </trkpt>
      <trkpt lat="43.060899999999506" lon="-1.2683130000000011">
        <ele>1174.888</ele>
        <time>2022-08-24T09:43:36Z</time>
      </trkpt>
      <trkpt lat="43.060886999999504" lon="-1.2683100000000012">
        <ele>1174.840</ele>
        <time>2022-08-24T09:43:37Z</time>
      </trkpt>
      <trkpt lat="43.060874999999506" lon="-1.2683050000000011">
        <ele>1174.837</ele>
        <time>2022-08-24T09:43:38Z</time>
      </trkpt>
      <trkpt lat="43.06086299999951" lon="-1.2683050000000011">
        <ele>1175.040</ele>
        <time>2022-08-24T09:43:39Z</time>
      </trkpt>
      <trkpt lat="43.06085099999951" lon="-1.268303000000001">
        <ele>1175.254</ele>
        <time>2022-08-24T09:43:40Z</time>
      </trkpt>
      <trkpt lat="43.06083899999951" lon="-1.268301000000001">
        <ele>1175.293</ele>
        <time>2022-08-24T09:43:41Z</time>
      </trkpt>
      <trkpt lat="43.06082499999951" lon="-1.268298000000001">
        <ele>1175.227</ele>
        <time>2022-08-24T09:43:42Z</time>
      </trkpt>
      <trkpt lat="43.06081099999951" lon="-1.2682970000000011">
        <ele>1175.468</ele>
        <time>2022-08-24T09:43:43Z</time>
      </trkpt>
      <trkpt lat="43.06073199999951" lon="-1.268292000000001">
        <ele>1175.814</ele>
        <time>2022-08-24T09:43:48Z</time>
      </trkpt>
      <trkpt lat="43.060716999999514" lon="-1.268287000000001">
        <ele>1175.809</ele>
        <time>2022-08-24T09:43:49Z</time>
      </trkpt>
      <trkpt lat="43.060654999999514" lon="-1.268268000000001">
        <ele>1176.423</ele>
        <time>2022-08-24T09:43:53Z</time>
      </trkpt>
      <trkpt lat="43.060606999999514" lon="-1.268266000000001">
        <ele>1176.843</ele>
        <time>2022-08-24T09:43:56Z</time>
      </trkpt>
      <trkpt lat="43.06059399999951" lon="-1.268265000000001">
        <ele>1177.073</ele>
        <time>2022-08-24T09:43:57Z</time>
      </trkpt>
      <trkpt lat="43.060578999999514" lon="-1.268265000000001">
        <ele>1177.099</ele>
        <time>2022-08-24T09:43:58Z</time>
      </trkpt>
      <trkpt lat="43.060566999999516" lon="-1.268262000000001">
        <ele>1177.221</ele>
        <time>2022-08-24T09:43:59Z</time>
      </trkpt>
      <trkpt lat="43.06055399999951" lon="-1.2682590000000011">
        <ele>1177.468</ele>
        <time>2022-08-24T09:44:00Z</time>
      </trkpt>
      <trkpt lat="43.060521999999516" lon="-1.268262000000001">
        <ele>1177.841</ele>
        <time>2022-08-24T09:44:02Z</time>
      </trkpt>
      <trkpt lat="43.060507999999516" lon="-1.268263000000001">
        <ele>1177.865</ele>
        <time>2022-08-24T09:44:03Z</time>
      </trkpt>
      <trkpt lat="43.06049599999952" lon="-1.2682590000000011">
        <ele>1178.074</ele>
        <time>2022-08-24T09:44:04Z</time>
      </trkpt>
      <trkpt lat="43.06048099999952" lon="-1.268254000000001">
        <ele>1178.259</ele>
        <time>2022-08-24T09:44:05Z</time>
      </trkpt>
      <trkpt lat="43.06046599999952" lon="-1.2682510000000011">
        <ele>1178.403</ele>
        <time>2022-08-24T09:44:06Z</time>
      </trkpt>
      <trkpt lat="43.06045199999952" lon="-1.2682470000000012">
        <ele>1178.823</ele>
        <time>2022-08-24T09:44:07Z</time>
      </trkpt>
      <trkpt lat="43.06043799999952" lon="-1.2682450000000012">
        <ele>1178.809</ele>
        <time>2022-08-24T09:44:08Z</time>
      </trkpt>
      <trkpt lat="43.06042499999952" lon="-1.2682430000000011">
        <ele>1179.236</ele>
        <time>2022-08-24T09:44:09Z</time>
      </trkpt>
      <trkpt lat="43.060411999999516" lon="-1.268246000000001">
        <ele>1179.226</ele>
        <time>2022-08-24T09:44:10Z</time>
      </trkpt>
      <trkpt lat="43.060397999999516" lon="-1.268247000000001">
        <ele>1179.456</ele>
        <time>2022-08-24T09:44:11Z</time>
      </trkpt>
      <trkpt lat="43.060383999999516" lon="-1.268246000000001">
        <ele>1179.652</ele>
        <time>2022-08-24T09:44:12Z</time>
      </trkpt>
      <trkpt lat="43.060372999999515" lon="-1.268238000000001">
        <ele>1179.894</ele>
        <time>2022-08-24T09:44:13Z</time>
      </trkpt>
      <trkpt lat="43.06036299999951" lon="-1.268227000000001">
        <ele>1179.841</ele>
        <time>2022-08-24T09:44:14Z</time>
      </trkpt>
      <trkpt lat="43.06034999999951" lon="-1.268220000000001">
        <ele>1179.854</ele>
        <time>2022-08-24T09:44:15Z</time>
      </trkpt>
      <trkpt lat="43.06033699999951" lon="-1.2682160000000011">
        <ele>1179.888</ele>
        <time>2022-08-24T09:44:16Z</time>
      </trkpt>
      <trkpt lat="43.06032299999951" lon="-1.268219000000001">
        <ele>1180.067</ele>
        <time>2022-08-24T09:44:17Z</time>
      </trkpt>
      <trkpt lat="43.060309999999504" lon="-1.268222000000001">
        <ele>1180.069</ele>
        <time>2022-08-24T09:44:18Z</time>
      </trkpt>
      <trkpt lat="43.060295999999504" lon="-1.268223000000001">
        <ele>1180.004</ele>
        <time>2022-08-24T09:44:19Z</time>
      </trkpt>
      <trkpt lat="43.0602829999995" lon="-1.268219000000001">
        <ele>1180.024</ele>
        <time>2022-08-24T09:44:20Z</time>
      </trkpt>
      <trkpt lat="43.0602699999995" lon="-1.2682100000000012">
        <ele>1180.009</ele>
        <time>2022-08-24T09:44:21Z</time>
      </trkpt>
      <trkpt lat="43.0602549999995" lon="-1.2682050000000011">
        <ele>1180.287</ele>
        <time>2022-08-24T09:44:22Z</time>
      </trkpt>
      <trkpt lat="43.0602389999995" lon="-1.268203000000001">
        <ele>1180.247</ele>
        <time>2022-08-24T09:44:23Z</time>
      </trkpt>
      <trkpt lat="43.0602249999995" lon="-1.268201000000001">
        <ele>1180.427</ele>
        <time>2022-08-24T09:44:24Z</time>
      </trkpt>
      <trkpt lat="43.0602109999995" lon="-1.268198000000001">
        <ele>1180.473</ele>
        <time>2022-08-24T09:44:25Z</time>
      </trkpt>
      <trkpt lat="43.0601969999995" lon="-1.268192000000001">
        <ele>1180.645</ele>
        <time>2022-08-24T09:44:26Z</time>
      </trkpt>
      <trkpt lat="43.0601849999995" lon="-1.2681890000000011">
        <ele>1180.872</ele>
        <time>2022-08-24T09:44:27Z</time>
      </trkpt>
      <trkpt lat="43.0601669999995" lon="-1.2681890000000011">
        <ele>1181.065</ele>
        <time>2022-08-24T09:44:28Z</time>
      </trkpt>
      <trkpt lat="43.0601559999995" lon="-1.2681880000000012">
        <ele>1181.089</ele>
        <time>2022-08-24T09:44:29Z</time>
      </trkpt>
      <trkpt lat="43.060143999999504" lon="-1.2681810000000011">
        <ele>1181.268</ele>
        <time>2022-08-24T09:44:30Z</time>
      </trkpt>
      <trkpt lat="43.0601309999995" lon="-1.2681770000000012">
        <ele>1181.432</ele>
        <time>2022-08-24T09:44:31Z</time>
      </trkpt>
      <trkpt lat="43.0601169999995" lon="-1.2681750000000012">
        <ele>1181.492</ele>
        <time>2022-08-24T09:44:32Z</time>
      </trkpt>
      <trkpt lat="43.0601049999995" lon="-1.2681720000000012">
        <ele>1181.411</ele>
        <time>2022-08-24T09:44:33Z</time>
      </trkpt>
      <trkpt lat="43.0600919999995" lon="-1.2681710000000013">
        <ele>1181.409</ele>
        <time>2022-08-24T09:44:34Z</time>
      </trkpt>
      <trkpt lat="43.0600789999995" lon="-1.2681690000000012">
        <ele>1182.084</ele>
        <time>2022-08-24T09:44:35Z</time>
      </trkpt>
      <trkpt lat="43.0600649999995" lon="-1.2681700000000011">
        <ele>1182.264</ele>
        <time>2022-08-24T09:44:36Z</time>
      </trkpt>
      <trkpt lat="43.0600529999995" lon="-1.2681660000000012">
        <ele>1182.284</ele>
        <time>2022-08-24T09:44:37Z</time>
      </trkpt>
      <trkpt lat="43.0600409999995" lon="-1.2681600000000013">
        <ele>1182.490</ele>
        <time>2022-08-24T09:44:38Z</time>
      </trkpt>
      <trkpt lat="43.0600279999995" lon="-1.2681570000000013">
        <ele>1182.642</ele>
        <time>2022-08-24T09:44:39Z</time>
      </trkpt>
      <trkpt lat="43.0600139999995" lon="-1.2681540000000013">
        <ele>1182.639</ele>
        <time>2022-08-24T09:44:40Z</time>
      </trkpt>
      <trkpt lat="43.0599989999995" lon="-1.2681490000000013">
        <ele>1182.822</ele>
        <time>2022-08-24T09:44:41Z</time>
      </trkpt>
      <trkpt lat="43.0599839999995" lon="-1.2681450000000014">
        <ele>1182.896</ele>
        <time>2022-08-24T09:44:42Z</time>
      </trkpt>
      <trkpt lat="43.0599679999995" lon="-1.2681440000000015">
        <ele>1183.255</ele>
        <time>2022-08-24T09:44:43Z</time>
      </trkpt>
      <trkpt lat="43.0599539999995" lon="-1.2681400000000016">
        <ele>1183.285</ele>
        <time>2022-08-24T09:44:44Z</time>
      </trkpt>
      <trkpt lat="43.0599399999995" lon="-1.2681360000000017">
        <ele>1183.489</ele>
        <time>2022-08-24T09:44:45Z</time>
      </trkpt>
      <trkpt lat="43.0599259999995" lon="-1.2681340000000016">
        <ele>1183.617</ele>
        <time>2022-08-24T09:44:46Z</time>
      </trkpt>
      <trkpt lat="43.0599129999995" lon="-1.2681310000000017">
        <ele>1183.809</ele>
        <time>2022-08-24T09:44:47Z</time>
      </trkpt>
      <trkpt lat="43.0598989999995" lon="-1.2681270000000018">
        <ele>1184.069</ele>
        <time>2022-08-24T09:44:48Z</time>
      </trkpt>
      <trkpt lat="43.0598849999995" lon="-1.2681240000000018">
        <ele>1184.089</ele>
        <time>2022-08-24T09:44:49Z</time>
      </trkpt>
      <trkpt lat="43.0598709999995" lon="-1.2681190000000018">
        <ele>1184.219</ele>
        <time>2022-08-24T09:44:50Z</time>
      </trkpt>
      <trkpt lat="43.059857999999494" lon="-1.2681150000000019">
        <ele>1184.265</ele>
        <time>2022-08-24T09:44:51Z</time>
      </trkpt>
      <trkpt lat="43.05984499999949" lon="-1.268114000000002">
        <ele>1184.477</ele>
        <time>2022-08-24T09:44:52Z</time>
      </trkpt>
      <trkpt lat="43.05983099999949" lon="-1.268112000000002">
        <ele>1184.414</ele>
        <time>2022-08-24T09:44:53Z</time>
      </trkpt>
      <trkpt lat="43.05981799999949" lon="-1.2681050000000018">
        <ele>1184.897</ele>
        <time>2022-08-24T09:44:54Z</time>
      </trkpt>
      <trkpt lat="43.059804999999486" lon="-1.2680980000000017">
        <ele>1184.891</ele>
        <time>2022-08-24T09:44:55Z</time>
      </trkpt>
      <trkpt lat="43.05979499999948" lon="-1.2680880000000017">
        <ele>1185.060</ele>
        <time>2022-08-24T09:44:56Z</time>
      </trkpt>
      <trkpt lat="43.05978199999948" lon="-1.2680800000000017">
        <ele>1185.227</ele>
        <time>2022-08-24T09:44:57Z</time>
      </trkpt>
      <trkpt lat="43.05976799999948" lon="-1.2680740000000017">
        <ele>1185.268</ele>
        <time>2022-08-24T09:44:58Z</time>
      </trkpt>
      <trkpt lat="43.05975399999948" lon="-1.2680690000000017">
        <ele>1185.414</ele>
        <time>2022-08-24T09:44:59Z</time>
      </trkpt>
      <trkpt lat="43.05974099999948" lon="-1.2680610000000017">
        <ele>1185.409</ele>
        <time>2022-08-24T09:45:00Z</time>
      </trkpt>
      <trkpt lat="43.059727999999474" lon="-1.2680510000000016">
        <ele>1185.473</ele>
        <time>2022-08-24T09:45:01Z</time>
      </trkpt>
      <trkpt lat="43.05971499999947" lon="-1.2680410000000015">
        <ele>1185.613</ele>
        <time>2022-08-24T09:45:02Z</time>
      </trkpt>
      <trkpt lat="43.05970199999947" lon="-1.2680310000000015">
        <ele>1185.613</ele>
        <time>2022-08-24T09:45:03Z</time>
      </trkpt>
      <trkpt lat="43.05968799999947" lon="-1.2680210000000014">
        <ele>1185.819</ele>
        <time>2022-08-24T09:45:04Z</time>
      </trkpt>
      <trkpt lat="43.059674999999466" lon="-1.2680140000000013">
        <ele>1185.811</ele>
        <time>2022-08-24T09:45:05Z</time>
      </trkpt>
      <trkpt lat="43.059663999999465" lon="-1.2680030000000013">
        <ele>1186.278</ele>
        <time>2022-08-24T09:45:06Z</time>
      </trkpt>
      <trkpt lat="43.05965199999947" lon="-1.2679930000000013">
        <ele>1186.451</ele>
        <time>2022-08-24T09:45:07Z</time>
      </trkpt>
      <trkpt lat="43.05963999999947" lon="-1.2679850000000012">
        <ele>1186.475</ele>
        <time>2022-08-24T09:45:08Z</time>
      </trkpt>
      <trkpt lat="43.059626999999466" lon="-1.2679760000000013">
        <ele>1186.664</ele>
        <time>2022-08-24T09:45:09Z</time>
      </trkpt>
      <trkpt lat="43.059615999999465" lon="-1.2679650000000013">
        <ele>1186.411</ele>
        <time>2022-08-24T09:45:10Z</time>
      </trkpt>
      <trkpt lat="43.05960399999947" lon="-1.2679540000000014">
        <ele>1186.621</ele>
        <time>2022-08-24T09:45:11Z</time>
      </trkpt>
      <trkpt lat="43.059590999999465" lon="-1.2679420000000015">
        <ele>1186.603</ele>
        <time>2022-08-24T09:45:12Z</time>
      </trkpt>
      <trkpt lat="43.05958099999946" lon="-1.2679320000000014">
        <ele>1186.809</ele>
        <time>2022-08-24T09:45:13Z</time>
      </trkpt>
      <trkpt lat="43.05957099999946" lon="-1.2679230000000015">
        <ele>1187.072</ele>
        <time>2022-08-24T09:45:14Z</time>
      </trkpt>
      <trkpt lat="43.059560999999455" lon="-1.2679130000000014">
        <ele>1187.082</ele>
        <time>2022-08-24T09:45:15Z</time>
      </trkpt>
      <trkpt lat="43.059549999999454" lon="-1.2679040000000015">
        <ele>1187.222</ele>
        <time>2022-08-24T09:45:16Z</time>
      </trkpt>
      <trkpt lat="43.05953999999945" lon="-1.2678950000000015">
        <ele>1187.428</ele>
        <time>2022-08-24T09:45:17Z</time>
      </trkpt>
      <trkpt lat="43.05952799999945" lon="-1.2678870000000015">
        <ele>1187.470</ele>
        <time>2022-08-24T09:45:18Z</time>
      </trkpt>
      <trkpt lat="43.059515999999455" lon="-1.2678780000000016">
        <ele>1187.657</ele>
        <time>2022-08-24T09:45:19Z</time>
      </trkpt>
      <trkpt lat="43.059504999999454" lon="-1.2678650000000016">
        <ele>1187.860</ele>
        <time>2022-08-24T09:45:20Z</time>
      </trkpt>
      <trkpt lat="43.05949199999945" lon="-1.2678540000000016">
        <ele>1188.054</ele>
        <time>2022-08-24T09:45:21Z</time>
      </trkpt>
      <trkpt lat="43.05947999999945" lon="-1.2678460000000016">
        <ele>1188.073</ele>
        <time>2022-08-24T09:45:22Z</time>
      </trkpt>
      <trkpt lat="43.059467999999455" lon="-1.2678360000000015">
        <ele>1188.037</ele>
        <time>2022-08-24T09:45:23Z</time>
      </trkpt>
      <trkpt lat="43.05945599999946" lon="-1.2678230000000015">
        <ele>1188.249</ele>
        <time>2022-08-24T09:45:24Z</time>
      </trkpt>
      <trkpt lat="43.05944099999946" lon="-1.2678120000000015">
        <ele>1188.413</ele>
        <time>2022-08-24T09:45:25Z</time>
      </trkpt>
      <trkpt lat="43.05942599999946" lon="-1.2678020000000014">
        <ele>1188.609</ele>
        <time>2022-08-24T09:45:26Z</time>
      </trkpt>
      <trkpt lat="43.05941299999946" lon="-1.2677900000000015">
        <ele>1188.684</ele>
        <time>2022-08-24T09:45:27Z</time>
      </trkpt>
      <trkpt lat="43.05939899999946" lon="-1.2677780000000016">
        <ele>1188.864</ele>
        <time>2022-08-24T09:45:28Z</time>
      </trkpt>
      <trkpt lat="43.05938399999946" lon="-1.2677660000000017">
        <ele>1188.884</ele>
        <time>2022-08-24T09:45:29Z</time>
      </trkpt>
      <trkpt lat="43.05937199999946" lon="-1.2677550000000017">
        <ele>1188.850</ele>
        <time>2022-08-24T09:45:30Z</time>
      </trkpt>
      <trkpt lat="43.05935899999946" lon="-1.2677430000000018">
        <ele>1189.042</ele>
        <time>2022-08-24T09:45:31Z</time>
      </trkpt>
      <trkpt lat="43.05934499999946" lon="-1.2677320000000019">
        <ele>1189.039</ele>
        <time>2022-08-24T09:45:32Z</time>
      </trkpt>
      <trkpt lat="43.05933299999946" lon="-1.2677240000000018">
        <ele>1189.222</ele>
        <time>2022-08-24T09:45:33Z</time>
      </trkpt>
      <trkpt lat="43.05931999999946" lon="-1.267715000000002">
        <ele>1189.416</ele>
        <time>2022-08-24T09:45:34Z</time>
      </trkpt>
      <trkpt lat="43.05930599999946" lon="-1.267704000000002">
        <ele>1189.615</ele>
        <time>2022-08-24T09:45:35Z</time>
      </trkpt>
      <trkpt lat="43.05929399999946" lon="-1.267695000000002">
        <ele>1189.884</ele>
        <time>2022-08-24T09:45:36Z</time>
      </trkpt>
      <trkpt lat="43.05928299999946" lon="-1.267686000000002">
        <ele>1190.007</ele>
        <time>2022-08-24T09:45:37Z</time>
      </trkpt>
      <trkpt lat="43.05926999999946" lon="-1.267676000000002">
        <ele>1190.217</ele>
        <time>2022-08-24T09:45:38Z</time>
      </trkpt>
      <trkpt lat="43.05925499999946" lon="-1.267663000000002">
        <ele>1190.209</ele>
        <time>2022-08-24T09:45:39Z</time>
      </trkpt>
      <trkpt lat="43.05924499999946" lon="-1.267653000000002">
        <ele>1190.429</ele>
        <time>2022-08-24T09:45:40Z</time>
      </trkpt>
      <trkpt lat="43.059225999999455" lon="-1.267642000000002">
        <ele>1190.439</ele>
        <time>2022-08-24T09:45:41Z</time>
      </trkpt>
      <trkpt lat="43.059208999999456" lon="-1.267633000000002">
        <ele>1190.479</ele>
        <time>2022-08-24T09:45:42Z</time>
      </trkpt>
      <trkpt lat="43.059194999999455" lon="-1.267626000000002">
        <ele>1190.485</ele>
        <time>2022-08-24T09:45:43Z</time>
      </trkpt>
      <trkpt lat="43.05917699999946" lon="-1.267614000000002">
        <ele>1190.427</ele>
        <time>2022-08-24T09:45:44Z</time>
      </trkpt>
      <trkpt lat="43.059160999999456" lon="-1.2676020000000021">
        <ele>1190.414</ele>
        <time>2022-08-24T09:45:45Z</time>
      </trkpt>
      <trkpt lat="43.05914899999946" lon="-1.267594000000002">
        <ele>1190.477</ele>
        <time>2022-08-24T09:45:46Z</time>
      </trkpt>
      <trkpt lat="43.05913499999946" lon="-1.2675850000000022">
        <ele>1190.281</ele>
        <time>2022-08-24T09:45:47Z</time>
      </trkpt>
      <trkpt lat="43.059118999999455" lon="-1.2675760000000023">
        <ele>1190.240</ele>
        <time>2022-08-24T09:45:48Z</time>
      </trkpt>
      <trkpt lat="43.05910399999946" lon="-1.2675670000000023">
        <ele>1190.225</ele>
        <time>2022-08-24T09:45:49Z</time>
      </trkpt>
      <trkpt lat="43.059084999999456" lon="-1.2675560000000023">
        <ele>1190.226</ele>
        <time>2022-08-24T09:45:50Z</time>
      </trkpt>
      <trkpt lat="43.059068999999454" lon="-1.2675490000000023">
        <ele>1190.208</ele>
        <time>2022-08-24T09:45:51Z</time>
      </trkpt>
      <trkpt lat="43.05905599999945" lon="-1.2675450000000024">
        <ele>1190.009</ele>
        <time>2022-08-24T09:45:52Z</time>
      </trkpt>
      <trkpt lat="43.05903599999945" lon="-1.2675380000000023">
        <ele>1190.043</ele>
        <time>2022-08-24T09:45:53Z</time>
      </trkpt>
      <trkpt lat="43.05898799999945" lon="-1.2675280000000022">
        <ele>1190.043</ele>
        <time>2022-08-24T09:45:56Z</time>
      </trkpt>
      <trkpt lat="43.05897399999945" lon="-1.2675250000000022">
        <ele>1190.063</ele>
        <time>2022-08-24T09:45:57Z</time>
      </trkpt>
      <trkpt lat="43.05895999999945" lon="-1.2675230000000022">
        <ele>1190.069</ele>
        <time>2022-08-24T09:45:58Z</time>
      </trkpt>
      <trkpt lat="43.058941999999455" lon="-1.2675190000000023">
        <ele>1189.881</ele>
        <time>2022-08-24T09:45:59Z</time>
      </trkpt>
      <trkpt lat="43.05892599999945" lon="-1.2675160000000023">
        <ele>1189.848</ele>
        <time>2022-08-24T09:46:00Z</time>
      </trkpt>
      <trkpt lat="43.05891299999945" lon="-1.2675130000000023">
        <ele>1189.871</ele>
        <time>2022-08-24T09:46:01Z</time>
      </trkpt>
      <trkpt lat="43.05889499999945" lon="-1.2675080000000023">
        <ele>1189.665</ele>
        <time>2022-08-24T09:46:02Z</time>
      </trkpt>
      <trkpt lat="43.058873999999456" lon="-1.2674880000000024">
        <ele>1189.824</ele>
        <time>2022-08-24T09:46:04Z</time>
      </trkpt>
      <trkpt lat="43.05885899999946" lon="-1.2674760000000025">
        <ele>1189.818</ele>
        <time>2022-08-24T09:46:05Z</time>
      </trkpt>
      <trkpt lat="43.058842999999456" lon="-1.2674680000000025">
        <ele>1190.098</ele>
        <time>2022-08-24T09:46:06Z</time>
      </trkpt>
      <trkpt lat="43.05880899999946" lon="-1.2674560000000026">
        <ele>1190.017</ele>
        <time>2022-08-24T09:46:08Z</time>
      </trkpt>
      <trkpt lat="43.05875199999946" lon="-1.2674190000000025">
        <ele>1190.009</ele>
        <time>2022-08-24T09:46:12Z</time>
      </trkpt>
      <trkpt lat="43.05871499999946" lon="-1.2673940000000026">
        <ele>1190.452</ele>
        <time>2022-08-24T09:46:15Z</time>
      </trkpt>
      <trkpt lat="43.05870399999946" lon="-1.2673820000000027">
        <ele>1190.422</ele>
        <time>2022-08-24T09:46:16Z</time>
      </trkpt>
      <trkpt lat="43.058676999999456" lon="-1.2673600000000027">
        <ele>1190.622</ele>
        <time>2022-08-24T09:46:18Z</time>
      </trkpt>
      <trkpt lat="43.05866699999945" lon="-1.2673520000000027">
        <ele>1190.628</ele>
        <time>2022-08-24T09:46:19Z</time>
      </trkpt>
      <trkpt lat="43.05864999999945" lon="-1.2673430000000028">
        <ele>1190.660</ele>
        <time>2022-08-24T09:46:20Z</time>
      </trkpt>
      <trkpt lat="43.05862499999945" lon="-1.2673280000000027">
        <ele>1190.857</ele>
        <time>2022-08-24T09:46:22Z</time>
      </trkpt>
      <trkpt lat="43.05861499999945" lon="-1.2673170000000027">
        <ele>1190.810</ele>
        <time>2022-08-24T09:46:23Z</time>
      </trkpt>
      <trkpt lat="43.05860399999945" lon="-1.2673060000000027">
        <ele>1190.884</ele>
        <time>2022-08-24T09:46:24Z</time>
      </trkpt>
      <trkpt lat="43.058576999999445" lon="-1.2672840000000027">
        <ele>1191.063</ele>
        <time>2022-08-24T09:46:26Z</time>
      </trkpt>
      <trkpt lat="43.05856399999944" lon="-1.2672770000000027">
        <ele>1191.243</ele>
        <time>2022-08-24T09:46:27Z</time>
      </trkpt>
      <trkpt lat="43.05855399999944" lon="-1.2672720000000026">
        <ele>1191.264</ele>
        <time>2022-08-24T09:46:28Z</time>
      </trkpt>
      <trkpt lat="43.05850399999944" lon="-1.2672480000000026">
        <ele>1191.610</ele>
        <time>2022-08-24T09:46:32Z</time>
      </trkpt>
      <trkpt lat="43.05841299999944" lon="-1.2671890000000026">
        <ele>1192.609</ele>
        <time>2022-08-24T09:46:39Z</time>
      </trkpt>
      <trkpt lat="43.05839899999944" lon="-1.2671820000000025">
        <ele>1192.645</ele>
        <time>2022-08-24T09:46:40Z</time>
      </trkpt>
      <trkpt lat="43.05838799999944" lon="-1.2671780000000026">
        <ele>1192.865</ele>
        <time>2022-08-24T09:46:41Z</time>
      </trkpt>
      <trkpt lat="43.05837599999944" lon="-1.2671740000000027">
        <ele>1193.075</ele>
        <time>2022-08-24T09:46:42Z</time>
      </trkpt>
      <trkpt lat="43.05836499999944" lon="-1.2671710000000027">
        <ele>1193.261</ele>
        <time>2022-08-24T09:46:43Z</time>
      </trkpt>
      <trkpt lat="43.05835499999944" lon="-1.2671660000000027">
        <ele>1193.663</ele>
        <time>2022-08-24T09:46:44Z</time>
      </trkpt>
      <trkpt lat="43.058341999999435" lon="-1.2671630000000027">
        <ele>1193.810</ele>
        <time>2022-08-24T09:46:45Z</time>
      </trkpt>
      <trkpt lat="43.058333999999434" lon="-1.2671610000000026">
        <ele>1194.083</ele>
        <time>2022-08-24T09:46:46Z</time>
      </trkpt>
      <trkpt lat="43.058321999999436" lon="-1.2671570000000028">
        <ele>1194.237</ele>
        <time>2022-08-24T09:46:47Z</time>
      </trkpt>
      <trkpt lat="43.058307999999435" lon="-1.2671530000000029">
        <ele>1194.426</ele>
        <time>2022-08-24T09:46:48Z</time>
      </trkpt>
      <trkpt lat="43.05829599999944" lon="-1.2671480000000028">
        <ele>1194.677</ele>
        <time>2022-08-24T09:46:49Z</time>
      </trkpt>
      <trkpt lat="43.05828699999944" lon="-1.2671450000000029">
        <ele>1194.861</ele>
        <time>2022-08-24T09:46:50Z</time>
      </trkpt>
      <trkpt lat="43.05827499999944" lon="-1.2671420000000029">
        <ele>1195.027</ele>
        <time>2022-08-24T09:46:51Z</time>
      </trkpt>
      <trkpt lat="43.05826099999944" lon="-1.267138000000003">
        <ele>1195.009</ele>
        <time>2022-08-24T09:46:52Z</time>
      </trkpt>
      <trkpt lat="43.05824799999944" lon="-1.267135000000003">
        <ele>1195.248</ele>
        <time>2022-08-24T09:46:53Z</time>
      </trkpt>
      <trkpt lat="43.05823699999944" lon="-1.267128000000003">
        <ele>1195.248</ele>
        <time>2022-08-24T09:46:54Z</time>
      </trkpt>
      <trkpt lat="43.058228999999436" lon="-1.2671230000000029">
        <ele>1195.498</ele>
        <time>2022-08-24T09:46:55Z</time>
      </trkpt>
      <trkpt lat="43.058212999999434" lon="-1.2671160000000028">
        <ele>1195.474</ele>
        <time>2022-08-24T09:46:56Z</time>
      </trkpt>
      <trkpt lat="43.05820299999943" lon="-1.267112000000003">
        <ele>1195.456</ele>
        <time>2022-08-24T09:46:57Z</time>
      </trkpt>
      <trkpt lat="43.05818799999943" lon="-1.267106000000003">
        <ele>1195.423</ele>
        <time>2022-08-24T09:46:58Z</time>
      </trkpt>
      <trkpt lat="43.05817999999943" lon="-1.267103000000003">
        <ele>1195.436</ele>
        <time>2022-08-24T09:46:59Z</time>
      </trkpt>
      <trkpt lat="43.05816899999943" lon="-1.267097000000003">
        <ele>1195.690</ele>
        <time>2022-08-24T09:47:00Z</time>
      </trkpt>
      <trkpt lat="43.05815699999943" lon="-1.267090000000003">
        <ele>1195.639</ele>
        <time>2022-08-24T09:47:01Z</time>
      </trkpt>
      <trkpt lat="43.05814599999943" lon="-1.2670830000000028">
        <ele>1195.841</ele>
        <time>2022-08-24T09:47:02Z</time>
      </trkpt>
      <trkpt lat="43.058133999999434" lon="-1.2670760000000028">
        <ele>1195.881</ele>
        <time>2022-08-24T09:47:03Z</time>
      </trkpt>
      <trkpt lat="43.05812599999943" lon="-1.2670710000000027">
        <ele>1195.809</ele>
        <time>2022-08-24T09:47:04Z</time>
      </trkpt>
      <trkpt lat="43.05811499999943" lon="-1.2670650000000028">
        <ele>1196.009</ele>
        <time>2022-08-24T09:47:05Z</time>
      </trkpt>
      <trkpt lat="43.05810399999943" lon="-1.2670570000000028">
        <ele>1196.075</ele>
        <time>2022-08-24T09:47:06Z</time>
      </trkpt>
      <trkpt lat="43.05809399999943" lon="-1.2670520000000027">
        <ele>1196.235</ele>
        <time>2022-08-24T09:47:07Z</time>
      </trkpt>
      <trkpt lat="43.05808299999943" lon="-1.2670480000000028">
        <ele>1196.465</ele>
        <time>2022-08-24T09:47:08Z</time>
      </trkpt>
      <trkpt lat="43.05807399999943" lon="-1.2670460000000028">
        <ele>1196.481</ele>
        <time>2022-08-24T09:47:09Z</time>
      </trkpt>
      <trkpt lat="43.05805799999943" lon="-1.2670410000000027">
        <ele>1196.623</ele>
        <time>2022-08-24T09:47:10Z</time>
      </trkpt>
      <trkpt lat="43.058047999999424" lon="-1.2670390000000027">
        <ele>1196.860</ele>
        <time>2022-08-24T09:47:11Z</time>
      </trkpt>
      <trkpt lat="43.05803199999942" lon="-1.2670350000000028">
        <ele>1196.823</ele>
        <time>2022-08-24T09:47:12Z</time>
      </trkpt>
      <trkpt lat="43.05802199999942" lon="-1.267031000000003">
        <ele>1197.037</ele>
        <time>2022-08-24T09:47:13Z</time>
      </trkpt>
      <trkpt lat="43.058008999999416" lon="-1.2670260000000029">
        <ele>1197.096</ele>
        <time>2022-08-24T09:47:14Z</time>
      </trkpt>
      <trkpt lat="43.057991999999416" lon="-1.2670210000000028">
        <ele>1197.037</ele>
        <time>2022-08-24T09:47:15Z</time>
      </trkpt>
      <trkpt lat="43.05797999999942" lon="-1.2670190000000028">
        <ele>1197.249</ele>
        <time>2022-08-24T09:47:16Z</time>
      </trkpt>
      <trkpt lat="43.05796499999942" lon="-1.2670140000000027">
        <ele>1197.413</ele>
        <time>2022-08-24T09:47:17Z</time>
      </trkpt>
      <trkpt lat="43.05795099999942" lon="-1.2670080000000028">
        <ele>1197.409</ele>
        <time>2022-08-24T09:47:18Z</time>
      </trkpt>
      <trkpt lat="43.05793699999942" lon="-1.2670010000000027">
        <ele>1197.654</ele>
        <time>2022-08-24T09:47:19Z</time>
      </trkpt>
      <trkpt lat="43.05792199999942" lon="-1.2669940000000026">
        <ele>1197.864</ele>
        <time>2022-08-24T09:47:20Z</time>
      </trkpt>
      <trkpt lat="43.057909999999424" lon="-1.2669870000000025">
        <ele>1197.834</ele>
        <time>2022-08-24T09:47:21Z</time>
      </trkpt>
      <trkpt lat="43.05789899999942" lon="-1.2669800000000024">
        <ele>1197.840</ele>
        <time>2022-08-24T09:47:22Z</time>
      </trkpt>
      <trkpt lat="43.05788499999942" lon="-1.2669760000000025">
        <ele>1197.842</ele>
        <time>2022-08-24T09:47:23Z</time>
      </trkpt>
      <trkpt lat="43.05787199999942" lon="-1.2669710000000025">
        <ele>1198.079</ele>
        <time>2022-08-24T09:47:24Z</time>
      </trkpt>
      <trkpt lat="43.05785999999942" lon="-1.2669640000000024">
        <ele>1198.032</ele>
        <time>2022-08-24T09:47:25Z</time>
      </trkpt>
      <trkpt lat="43.05784399999942" lon="-1.2669540000000024">
        <ele>1198.086</ele>
        <time>2022-08-24T09:47:26Z</time>
      </trkpt>
      <trkpt lat="43.05783299999942" lon="-1.2669470000000023">
        <ele>1198.235</ele>
        <time>2022-08-24T09:47:27Z</time>
      </trkpt>
      <trkpt lat="43.05781799999942" lon="-1.2669410000000023">
        <ele>1198.247</ele>
        <time>2022-08-24T09:47:28Z</time>
      </trkpt>
      <trkpt lat="43.05780399999942" lon="-1.2669350000000024">
        <ele>1198.429</ele>
        <time>2022-08-24T09:47:29Z</time>
      </trkpt>
      <trkpt lat="43.05778999999942" lon="-1.2669290000000024">
        <ele>1198.421</ele>
        <time>2022-08-24T09:47:30Z</time>
      </trkpt>
      <trkpt lat="43.05775099999942" lon="-1.2669090000000025">
        <ele>1199.009</ele>
        <time>2022-08-24T09:47:33Z</time>
      </trkpt>
      <trkpt lat="43.05773799999942" lon="-1.2669020000000024">
        <ele>1199.465</ele>
        <time>2022-08-24T09:47:34Z</time>
      </trkpt>
      <trkpt lat="43.05772599999942" lon="-1.2668920000000023">
        <ele>1199.485</ele>
        <time>2022-08-24T09:47:35Z</time>
      </trkpt>
      <trkpt lat="43.05771399999942" lon="-1.2668800000000024">
        <ele>1199.645</ele>
        <time>2022-08-24T09:47:36Z</time>
      </trkpt>
      <trkpt lat="43.05770199999942" lon="-1.2668710000000025">
        <ele>1199.671</ele>
        <time>2022-08-24T09:47:37Z</time>
      </trkpt>
      <trkpt lat="43.057686999999426" lon="-1.2668630000000025">
        <ele>1199.633</ele>
        <time>2022-08-24T09:47:38Z</time>
      </trkpt>
      <trkpt lat="43.05767499999943" lon="-1.2668560000000024">
        <ele>1199.890</ele>
        <time>2022-08-24T09:47:39Z</time>
      </trkpt>
      <trkpt lat="43.057664999999425" lon="-1.2668510000000024">
        <ele>1199.833</ele>
        <time>2022-08-24T09:47:40Z</time>
      </trkpt>
      <trkpt lat="43.057652999999426" lon="-1.2668440000000023">
        <ele>1200.077</ele>
        <time>2022-08-24T09:47:41Z</time>
      </trkpt>
      <trkpt lat="43.05764099999943" lon="-1.2668390000000023">
        <ele>1200.246</ele>
        <time>2022-08-24T09:47:42Z</time>
      </trkpt>
      <trkpt lat="43.05762899999943" lon="-1.2668310000000023">
        <ele>1200.243</ele>
        <time>2022-08-24T09:47:43Z</time>
      </trkpt>
      <trkpt lat="43.05761599999943" lon="-1.2668250000000023">
        <ele>1200.464</ele>
        <time>2022-08-24T09:47:44Z</time>
      </trkpt>
      <trkpt lat="43.05760399999943" lon="-1.2668200000000023">
        <ele>1200.410</ele>
        <time>2022-08-24T09:47:45Z</time>
      </trkpt>
      <trkpt lat="43.05758999999943" lon="-1.2668180000000022">
        <ele>1200.609</ele>
        <time>2022-08-24T09:47:46Z</time>
      </trkpt>
      <trkpt lat="43.05757699999943" lon="-1.2668130000000022">
        <ele>1200.625</ele>
        <time>2022-08-24T09:47:47Z</time>
      </trkpt>
      <trkpt lat="43.05756699999942" lon="-1.266806000000002">
        <ele>1200.695</ele>
        <time>2022-08-24T09:47:48Z</time>
      </trkpt>
      <trkpt lat="43.05755599999942" lon="-1.266796000000002">
        <ele>1200.645</ele>
        <time>2022-08-24T09:47:49Z</time>
      </trkpt>
      <trkpt lat="43.05754499999942" lon="-1.266786000000002">
        <ele>1200.841</ele>
        <time>2022-08-24T09:47:50Z</time>
      </trkpt>
      <trkpt lat="43.05753399999942" lon="-1.266776000000002">
        <ele>1201.043</ele>
        <time>2022-08-24T09:47:51Z</time>
      </trkpt>
      <trkpt lat="43.05752299999942" lon="-1.266767000000002">
        <ele>1201.050</ele>
        <time>2022-08-24T09:47:52Z</time>
      </trkpt>
      <trkpt lat="43.05751199999942" lon="-1.266761000000002">
        <ele>1201.413</ele>
        <time>2022-08-24T09:47:53Z</time>
      </trkpt>
      <trkpt lat="43.05749799999942" lon="-1.266758000000002">
        <ele>1201.667</ele>
        <time>2022-08-24T09:47:54Z</time>
      </trkpt>
      <trkpt lat="43.05748899999942" lon="-1.2667570000000021">
        <ele>1201.856</ele>
        <time>2022-08-24T09:47:55Z</time>
      </trkpt>
      <trkpt lat="43.05747799999942" lon="-1.2667530000000022">
        <ele>1201.829</ele>
        <time>2022-08-24T09:47:56Z</time>
      </trkpt>
      <trkpt lat="43.05746699999942" lon="-1.2667470000000023">
        <ele>1202.000</ele>
        <time>2022-08-24T09:47:57Z</time>
      </trkpt>
      <trkpt lat="43.05745299999942" lon="-1.2667400000000022">
        <ele>1202.220</ele>
        <time>2022-08-24T09:47:58Z</time>
      </trkpt>
      <trkpt lat="43.05744299999942" lon="-1.2667320000000022">
        <ele>1202.209</ele>
        <time>2022-08-24T09:47:59Z</time>
      </trkpt>
      <trkpt lat="43.057434999999415" lon="-1.2667260000000022">
        <ele>1202.453</ele>
        <time>2022-08-24T09:48:00Z</time>
      </trkpt>
      <trkpt lat="43.05742599999942" lon="-1.2667200000000023">
        <ele>1202.483</ele>
        <time>2022-08-24T09:48:01Z</time>
      </trkpt>
      <trkpt lat="43.057414999999416" lon="-1.2667160000000024">
        <ele>1202.693</ele>
        <time>2022-08-24T09:48:02Z</time>
      </trkpt>
      <trkpt lat="43.05740499999941" lon="-1.2667110000000024">
        <ele>1202.659</ele>
        <time>2022-08-24T09:48:03Z</time>
      </trkpt>
      <trkpt lat="43.05739399999941" lon="-1.2667050000000024">
        <ele>1202.641</ele>
        <time>2022-08-24T09:48:04Z</time>
      </trkpt>
      <trkpt lat="43.05738399999941" lon="-1.2666980000000023">
        <ele>1202.868</ele>
        <time>2022-08-24T09:48:05Z</time>
      </trkpt>
      <trkpt lat="43.05737299999941" lon="-1.2666890000000024">
        <ele>1203.091</ele>
        <time>2022-08-24T09:48:06Z</time>
      </trkpt>
      <trkpt lat="43.05736199999941" lon="-1.2666810000000024">
        <ele>1203.055</ele>
        <time>2022-08-24T09:48:07Z</time>
      </trkpt>
      <trkpt lat="43.057351999999405" lon="-1.2666730000000024">
        <ele>1203.224</ele>
        <time>2022-08-24T09:48:08Z</time>
      </trkpt>
      <trkpt lat="43.0573419999994" lon="-1.2666650000000024">
        <ele>1203.227</ele>
        <time>2022-08-24T09:48:09Z</time>
      </trkpt>
      <trkpt lat="43.0573329999994" lon="-1.2666570000000024">
        <ele>1203.268</ele>
        <time>2022-08-24T09:48:10Z</time>
      </trkpt>
      <trkpt lat="43.057323999999404" lon="-1.2666490000000024">
        <ele>1203.414</ele>
        <time>2022-08-24T09:48:11Z</time>
      </trkpt>
      <trkpt lat="43.05731699999941" lon="-1.2666430000000024">
        <ele>1203.609</ele>
        <time>2022-08-24T09:48:12Z</time>
      </trkpt>
      <trkpt lat="43.05730599999941" lon="-1.2666350000000024">
        <ele>1203.623</ele>
        <time>2022-08-24T09:48:13Z</time>
      </trkpt>
      <trkpt lat="43.05729499999941" lon="-1.2666300000000024">
        <ele>1203.873</ele>
        <time>2022-08-24T09:48:14Z</time>
      </trkpt>
      <trkpt lat="43.05728799999941" lon="-1.2666240000000024">
        <ele>1204.083</ele>
        <time>2022-08-24T09:48:15Z</time>
      </trkpt>
      <trkpt lat="43.05728099999941" lon="-1.2666170000000023">
        <ele>1204.269</ele>
        <time>2022-08-24T09:48:16Z</time>
      </trkpt>
      <trkpt lat="43.05727099999941" lon="-1.2666060000000023">
        <ele>1204.461</ele>
        <time>2022-08-24T09:48:17Z</time>
      </trkpt>
      <trkpt lat="43.05726199999941" lon="-1.2665980000000023">
        <ele>1204.628</ele>
        <time>2022-08-24T09:48:18Z</time>
      </trkpt>
      <trkpt lat="43.057254999999415" lon="-1.2665900000000023">
        <ele>1204.851</ele>
        <time>2022-08-24T09:48:19Z</time>
      </trkpt>
      <trkpt lat="43.05724199999941" lon="-1.2665840000000024">
        <ele>1204.825</ele>
        <time>2022-08-24T09:48:20Z</time>
      </trkpt>
      <trkpt lat="43.05722799999941" lon="-1.2665770000000023">
        <ele>1205.284</ele>
        <time>2022-08-24T09:48:21Z</time>
      </trkpt>
      <trkpt lat="43.05721799999941" lon="-1.2665720000000023">
        <ele>1205.236</ele>
        <time>2022-08-24T09:48:22Z</time>
      </trkpt>
      <trkpt lat="43.05720599999941" lon="-1.2665670000000022">
        <ele>1205.617</ele>
        <time>2022-08-24T09:48:23Z</time>
      </trkpt>
      <trkpt lat="43.05719199999941" lon="-1.2665610000000023">
        <ele>1206.018</ele>
        <time>2022-08-24T09:48:24Z</time>
      </trkpt>
      <trkpt lat="43.05717799999941" lon="-1.2665520000000023">
        <ele>1206.209</ele>
        <time>2022-08-24T09:48:25Z</time>
      </trkpt>
      <trkpt lat="43.05716499999941" lon="-1.2665430000000024">
        <ele>1206.634</ele>
        <time>2022-08-24T09:48:26Z</time>
      </trkpt>
      <trkpt lat="43.057154999999405" lon="-1.2665380000000024">
        <ele>1206.664</ele>
        <time>2022-08-24T09:48:27Z</time>
      </trkpt>
      <trkpt lat="43.05714299999941" lon="-1.2665310000000023">
        <ele>1206.834</ele>
        <time>2022-08-24T09:48:28Z</time>
      </trkpt>
      <trkpt lat="43.05712899999941" lon="-1.2665250000000023">
        <ele>1206.820</ele>
        <time>2022-08-24T09:48:29Z</time>
      </trkpt>
      <trkpt lat="43.057120999999405" lon="-1.2665220000000024">
        <ele>1207.092</ele>
        <time>2022-08-24T09:48:30Z</time>
      </trkpt>
      <trkpt lat="43.05710899999941" lon="-1.2665130000000024">
        <ele>1207.079</ele>
        <time>2022-08-24T09:48:31Z</time>
      </trkpt>
      <trkpt lat="43.05709999999941" lon="-1.2665080000000024">
        <ele>1207.242</ele>
        <time>2022-08-24T09:48:32Z</time>
      </trkpt>
      <trkpt lat="43.05708899999941" lon="-1.2665020000000025">
        <ele>1207.416</ele>
        <time>2022-08-24T09:48:33Z</time>
      </trkpt>
      <trkpt lat="43.05707399999941" lon="-1.2664940000000025">
        <ele>1207.485</ele>
        <time>2022-08-24T09:48:34Z</time>
      </trkpt>
      <trkpt lat="43.05706399999941" lon="-1.2664900000000026">
        <ele>1207.474</ele>
        <time>2022-08-24T09:48:35Z</time>
      </trkpt>
      <trkpt lat="43.05705199999941" lon="-1.2664860000000027">
        <ele>1207.456</ele>
        <time>2022-08-24T09:48:36Z</time>
      </trkpt>
      <trkpt lat="43.05703999999941" lon="-1.2664830000000027">
        <ele>1207.621</ele>
        <time>2022-08-24T09:48:37Z</time>
      </trkpt>
      <trkpt lat="43.05702799999941" lon="-1.2664760000000026">
        <ele>1207.809</ele>
        <time>2022-08-24T09:48:38Z</time>
      </trkpt>
      <trkpt lat="43.057018999999414" lon="-1.2664720000000027">
        <ele>1208.018</ele>
        <time>2022-08-24T09:48:39Z</time>
      </trkpt>
      <trkpt lat="43.05700399999942" lon="-1.2664680000000028">
        <ele>1208.068</ele>
        <time>2022-08-24T09:48:40Z</time>
      </trkpt>
      <trkpt lat="43.05699399999941" lon="-1.266467000000003">
        <ele>1208.068</ele>
        <time>2022-08-24T09:48:41Z</time>
      </trkpt>
      <trkpt lat="43.056981999999415" lon="-1.2664680000000028">
        <ele>1208.034</ele>
        <time>2022-08-24T09:48:42Z</time>
      </trkpt>
      <trkpt lat="43.05696699999942" lon="-1.2664680000000028">
        <ele>1208.026</ele>
        <time>2022-08-24T09:48:43Z</time>
      </trkpt>
      <trkpt lat="43.05695599999942" lon="-1.266467000000003">
        <ele>1208.283</ele>
        <time>2022-08-24T09:48:44Z</time>
      </trkpt>
      <trkpt lat="43.056942999999414" lon="-1.266463000000003">
        <ele>1208.266</ele>
        <time>2022-08-24T09:48:45Z</time>
      </trkpt>
      <trkpt lat="43.05692999999941" lon="-1.266456000000003">
        <ele>1208.470</ele>
        <time>2022-08-24T09:48:46Z</time>
      </trkpt>
      <trkpt lat="43.05691799999941" lon="-1.266450000000003">
        <ele>1208.429</ele>
        <time>2022-08-24T09:48:47Z</time>
      </trkpt>
      <trkpt lat="43.056905999999415" lon="-1.266448000000003">
        <ele>1208.673</ele>
        <time>2022-08-24T09:48:48Z</time>
      </trkpt>
      <trkpt lat="43.05689299999941" lon="-1.266447000000003">
        <ele>1208.885</ele>
        <time>2022-08-24T09:48:49Z</time>
      </trkpt>
      <trkpt lat="43.05687999999941" lon="-1.266446000000003">
        <ele>1209.013</ele>
        <time>2022-08-24T09:48:50Z</time>
      </trkpt>
      <trkpt lat="43.05687099999941" lon="-1.266447000000003">
        <ele>1209.209</ele>
        <time>2022-08-24T09:48:51Z</time>
      </trkpt>
      <trkpt lat="43.05685899999941" lon="-1.266449000000003">
        <ele>1209.418</ele>
        <time>2022-08-24T09:48:52Z</time>
      </trkpt>
      <trkpt lat="43.056846999999415" lon="-1.2664480000000031">
        <ele>1209.498</ele>
        <time>2022-08-24T09:48:53Z</time>
      </trkpt>
      <trkpt lat="43.05683099999941" lon="-1.266443000000003">
        <ele>1210.088</ele>
        <time>2022-08-24T09:48:54Z</time>
      </trkpt>
      <trkpt lat="43.05681999999941" lon="-1.2664400000000031">
        <ele>1210.264</ele>
        <time>2022-08-24T09:48:55Z</time>
      </trkpt>
      <trkpt lat="43.05680699999941" lon="-1.2664370000000031">
        <ele>1210.486</ele>
        <time>2022-08-24T09:48:56Z</time>
      </trkpt>
      <trkpt lat="43.05679399999941" lon="-1.266432000000003">
        <ele>1210.433</ele>
        <time>2022-08-24T09:48:57Z</time>
      </trkpt>
      <trkpt lat="43.0567839999994" lon="-1.2664290000000031">
        <ele>1210.616</ele>
        <time>2022-08-24T09:48:58Z</time>
      </trkpt>
      <trkpt lat="43.0567709999994" lon="-1.2664230000000032">
        <ele>1210.630</ele>
        <time>2022-08-24T09:48:59Z</time>
      </trkpt>
      <trkpt lat="43.0567609999994" lon="-1.2664200000000032">
        <ele>1210.689</ele>
        <time>2022-08-24T09:49:00Z</time>
      </trkpt>
      <trkpt lat="43.0567499999994" lon="-1.2664160000000033">
        <ele>1210.812</ele>
        <time>2022-08-24T09:49:01Z</time>
      </trkpt>
      <trkpt lat="43.0567359999994" lon="-1.2664130000000033">
        <ele>1210.832</ele>
        <time>2022-08-24T09:49:02Z</time>
      </trkpt>
      <trkpt lat="43.0567239999994" lon="-1.2664110000000033">
        <ele>1211.005</ele>
        <time>2022-08-24T09:49:03Z</time>
      </trkpt>
      <trkpt lat="43.056713999999396" lon="-1.2664060000000033">
        <ele>1211.209</ele>
        <time>2022-08-24T09:49:04Z</time>
      </trkpt>
      <trkpt lat="43.056699999999395" lon="-1.2664010000000032">
        <ele>1211.472</ele>
        <time>2022-08-24T09:49:05Z</time>
      </trkpt>
      <trkpt lat="43.056685999999395" lon="-1.2663940000000031">
        <ele>1211.692</ele>
        <time>2022-08-24T09:49:06Z</time>
      </trkpt>
      <trkpt lat="43.05667299999939" lon="-1.266387000000003">
        <ele>1211.612</ele>
        <time>2022-08-24T09:49:07Z</time>
      </trkpt>
      <trkpt lat="43.056660999999394" lon="-1.266374000000003">
        <ele>1211.818</ele>
        <time>2022-08-24T09:49:08Z</time>
      </trkpt>
      <trkpt lat="43.05665099999939" lon="-1.266360000000003">
        <ele>1212.020</ele>
        <time>2022-08-24T09:49:09Z</time>
      </trkpt>
      <trkpt lat="43.056643999999395" lon="-1.266352000000003">
        <ele>1212.087</ele>
        <time>2022-08-24T09:49:10Z</time>
      </trkpt>
      <trkpt lat="43.056632999999394" lon="-1.266343000000003">
        <ele>1212.280</ele>
        <time>2022-08-24T09:49:11Z</time>
      </trkpt>
      <trkpt lat="43.056620999999396" lon="-1.2663370000000032">
        <ele>1212.224</ele>
        <time>2022-08-24T09:49:12Z</time>
      </trkpt>
      <trkpt lat="43.056612999999395" lon="-1.2663340000000032">
        <ele>1212.443</ele>
        <time>2022-08-24T09:49:13Z</time>
      </trkpt>
      <trkpt lat="43.056601999999394" lon="-1.266327000000003">
        <ele>1212.642</ele>
        <time>2022-08-24T09:49:14Z</time>
      </trkpt>
      <trkpt lat="43.05658899999939" lon="-1.266320000000003">
        <ele>1212.822</ele>
        <time>2022-08-24T09:49:15Z</time>
      </trkpt>
      <trkpt lat="43.05657599999939" lon="-1.266312000000003">
        <ele>1213.014</ele>
        <time>2022-08-24T09:49:16Z</time>
      </trkpt>
      <trkpt lat="43.05656499999939" lon="-1.266310000000003">
        <ele>1213.209</ele>
        <time>2022-08-24T09:49:17Z</time>
      </trkpt>
      <trkpt lat="43.05655299999939" lon="-1.266306000000003">
        <ele>1213.235</ele>
        <time>2022-08-24T09:49:18Z</time>
      </trkpt>
      <trkpt lat="43.05654499999939" lon="-1.266301000000003">
        <ele>1213.235</ele>
        <time>2022-08-24T09:49:19Z</time>
      </trkpt>
      <trkpt lat="43.05653099999939" lon="-1.266293000000003">
        <ele>1213.445</ele>
        <time>2022-08-24T09:49:20Z</time>
      </trkpt>
      <trkpt lat="43.056520999999385" lon="-1.266286000000003">
        <ele>1213.411</ele>
        <time>2022-08-24T09:49:21Z</time>
      </trkpt>
      <trkpt lat="43.056509999999385" lon="-1.2662810000000029">
        <ele>1213.693</ele>
        <time>2022-08-24T09:49:22Z</time>
      </trkpt>
      <trkpt lat="43.056501999999384" lon="-1.266278000000003">
        <ele>1213.870</ele>
        <time>2022-08-24T09:49:23Z</time>
      </trkpt>
      <trkpt lat="43.05649099999938" lon="-1.266272000000003">
        <ele>1214.053</ele>
        <time>2022-08-24T09:49:24Z</time>
      </trkpt>
      <trkpt lat="43.05647999999938" lon="-1.266264000000003">
        <ele>1214.467</ele>
        <time>2022-08-24T09:49:25Z</time>
      </trkpt>
      <trkpt lat="43.05646699999938" lon="-1.266259000000003">
        <ele>1214.696</ele>
        <time>2022-08-24T09:49:26Z</time>
      </trkpt>
      <trkpt lat="43.05645299999938" lon="-1.266258000000003">
        <ele>1214.677</ele>
        <time>2022-08-24T09:49:27Z</time>
      </trkpt>
      <trkpt lat="43.05644199999938" lon="-1.266256000000003">
        <ele>1214.861</ele>
        <time>2022-08-24T09:49:28Z</time>
      </trkpt>
      <trkpt lat="43.05643399999938" lon="-1.266248000000003">
        <ele>1214.827</ele>
        <time>2022-08-24T09:49:29Z</time>
      </trkpt>
      <trkpt lat="43.056423999999375" lon="-1.2662410000000028">
        <ele>1215.009</ele>
        <time>2022-08-24T09:49:30Z</time>
      </trkpt>
      <trkpt lat="43.056411999999376" lon="-1.2662390000000028">
        <ele>1215.038</ele>
        <time>2022-08-24T09:49:31Z</time>
      </trkpt>
      <trkpt lat="43.05640299999938" lon="-1.2662380000000029">
        <ele>1215.288</ele>
        <time>2022-08-24T09:49:32Z</time>
      </trkpt>
      <trkpt lat="43.05639499999938" lon="-1.2662390000000028">
        <ele>1215.218</ele>
        <time>2022-08-24T09:49:33Z</time>
      </trkpt>
      <trkpt lat="43.05637999999938" lon="-1.2662430000000027">
        <ele>1215.474</ele>
        <time>2022-08-24T09:49:34Z</time>
      </trkpt>
      <trkpt lat="43.05636899999938" lon="-1.2662450000000027">
        <ele>1215.486</ele>
        <time>2022-08-24T09:49:35Z</time>
      </trkpt>
      <trkpt lat="43.05635699999938" lon="-1.2662420000000028">
        <ele>1215.463</ele>
        <time>2022-08-24T09:49:36Z</time>
      </trkpt>
      <trkpt lat="43.05635099999938" lon="-1.2662350000000027">
        <ele>1215.616</ele>
        <time>2022-08-24T09:49:37Z</time>
      </trkpt>
      <trkpt lat="43.05634299999938" lon="-1.2662250000000026">
        <ele>1215.820</ele>
        <time>2022-08-24T09:49:38Z</time>
      </trkpt>
      <trkpt lat="43.05633099999938" lon="-1.2662190000000026">
        <ele>1216.049</ele>
        <time>2022-08-24T09:49:39Z</time>
      </trkpt>
      <trkpt lat="43.056318999999384" lon="-1.2662200000000026">
        <ele>1216.072</ele>
        <time>2022-08-24T09:49:40Z</time>
      </trkpt>
      <trkpt lat="43.05630899999938" lon="-1.2662280000000026">
        <ele>1216.213</ele>
        <time>2022-08-24T09:49:41Z</time>
      </trkpt>
      <trkpt lat="43.05629899999938" lon="-1.2662400000000025">
        <ele>1216.414</ele>
        <time>2022-08-24T09:49:42Z</time>
      </trkpt>
      <trkpt lat="43.05628699999938" lon="-1.2662430000000024">
        <ele>1216.609</ele>
        <time>2022-08-24T09:49:43Z</time>
      </trkpt>
      <trkpt lat="43.05627499999938" lon="-1.2662410000000024">
        <ele>1216.858</ele>
        <time>2022-08-24T09:49:44Z</time>
      </trkpt>
      <trkpt lat="43.056253999999385" lon="-1.2662350000000024">
        <ele>1216.868</ele>
        <time>2022-08-24T09:49:45Z</time>
      </trkpt>
      <trkpt lat="43.056239999999384" lon="-1.2662310000000025">
        <ele>1217.248</ele>
        <time>2022-08-24T09:49:46Z</time>
      </trkpt>
      <trkpt lat="43.05622199999939" lon="-1.2662270000000027">
        <ele>1217.634</ele>
        <time>2022-08-24T09:49:47Z</time>
      </trkpt>
      <trkpt lat="43.05620499999939" lon="-1.2662240000000027">
        <ele>1217.876</ele>
        <time>2022-08-24T09:49:48Z</time>
      </trkpt>
      <trkpt lat="43.056188999999385" lon="-1.2662200000000028">
        <ele>1218.243</ele>
        <time>2022-08-24T09:49:49Z</time>
      </trkpt>
      <trkpt lat="43.05617299999938" lon="-1.2662170000000028">
        <ele>1218.296</ele>
        <time>2022-08-24T09:49:50Z</time>
      </trkpt>
      <trkpt lat="43.056157999999385" lon="-1.2662150000000028">
        <ele>1218.630</ele>
        <time>2022-08-24T09:49:51Z</time>
      </trkpt>
      <trkpt lat="43.05614299999939" lon="-1.2662130000000027">
        <ele>1218.689</ele>
        <time>2022-08-24T09:49:52Z</time>
      </trkpt>
      <trkpt lat="43.05612899999939" lon="-1.2662120000000028">
        <ele>1219.086</ele>
        <time>2022-08-24T09:49:53Z</time>
      </trkpt>
      <trkpt lat="43.05611499999939" lon="-1.2662070000000027">
        <ele>1219.460</ele>
        <time>2022-08-24T09:49:54Z</time>
      </trkpt>
      <trkpt lat="43.056104999999384" lon="-1.2661990000000027">
        <ele>1219.626</ele>
        <time>2022-08-24T09:49:55Z</time>
      </trkpt>
      <trkpt lat="43.056095999999386" lon="-1.2661910000000027">
        <ele>1219.809</ele>
        <time>2022-08-24T09:49:56Z</time>
      </trkpt>
      <trkpt lat="43.05607999999938" lon="-1.2661810000000027">
        <ele>1220.069</ele>
        <time>2022-08-24T09:49:57Z</time>
      </trkpt>
      <trkpt lat="43.05606699999938" lon="-1.2661770000000028">
        <ele>1220.439</ele>
        <time>2022-08-24T09:49:58Z</time>
      </trkpt>
      <trkpt lat="43.05605199999938" lon="-1.2661760000000029">
        <ele>1220.299</ele>
        <time>2022-08-24T09:49:59Z</time>
      </trkpt>
      <trkpt lat="43.05604199999938" lon="-1.266175000000003">
        <ele>1220.675</ele>
        <time>2022-08-24T09:50:00Z</time>
      </trkpt>
      <trkpt lat="43.05602999999938" lon="-1.266172000000003">
        <ele>1220.857</ele>
        <time>2022-08-24T09:50:01Z</time>
      </trkpt>
      <trkpt lat="43.05601899999938" lon="-1.2661650000000029">
        <ele>1221.054</ele>
        <time>2022-08-24T09:50:02Z</time>
      </trkpt>
      <trkpt lat="43.05600699999938" lon="-1.2661570000000029">
        <ele>1221.227</ele>
        <time>2022-08-24T09:50:03Z</time>
      </trkpt>
      <trkpt lat="43.05599599999938" lon="-1.2661500000000028">
        <ele>1221.291</ele>
        <time>2022-08-24T09:50:04Z</time>
      </trkpt>
      <trkpt lat="43.055986999999384" lon="-1.2661460000000029">
        <ele>1221.660</ele>
        <time>2022-08-24T09:50:05Z</time>
      </trkpt>
      <trkpt lat="43.05596799999938" lon="-1.2661390000000028">
        <ele>1221.866</ele>
        <time>2022-08-24T09:50:06Z</time>
      </trkpt>
      <trkpt lat="43.05595499999938" lon="-1.2661330000000028">
        <ele>1222.029</ele>
        <time>2022-08-24T09:50:07Z</time>
      </trkpt>
      <trkpt lat="43.05594999999938" lon="-1.2661260000000027">
        <ele>1222.021</ele>
        <time>2022-08-24T09:50:08Z</time>
      </trkpt>
      <trkpt lat="43.05594699999938" lon="-1.2661210000000027">
        <ele>1222.409</ele>
        <time>2022-08-24T09:50:10Z</time>
      </trkpt>
      <trkpt lat="43.05594399999938" lon="-1.2661110000000027">
        <ele>1222.487</ele>
        <time>2022-08-24T09:50:11Z</time>
      </trkpt>
      <trkpt lat="43.055944999999376" lon="-1.2660970000000027">
        <ele>1222.487</ele>
        <time>2022-08-24T09:50:12Z</time>
      </trkpt>
      <trkpt lat="43.055941999999376" lon="-1.2660770000000028">
        <ele>1222.687</ele>
        <time>2022-08-24T09:50:13Z</time>
      </trkpt>
      <trkpt lat="43.055936999999375" lon="-1.2660630000000028">
        <ele>1222.653</ele>
        <time>2022-08-24T09:50:14Z</time>
      </trkpt>
      <trkpt lat="43.055928999999374" lon="-1.2660450000000028">
        <ele>1222.835</ele>
        <time>2022-08-24T09:50:15Z</time>
      </trkpt>
      <trkpt lat="43.05591899999937" lon="-1.2660210000000027">
        <ele>1222.892</ele>
        <time>2022-08-24T09:50:16Z</time>
      </trkpt>
      <trkpt lat="43.05590899999937" lon="-1.2660010000000028">
        <ele>1222.885</ele>
        <time>2022-08-24T09:50:17Z</time>
      </trkpt>
      <trkpt lat="43.055898999999364" lon="-1.265989000000003">
        <ele>1222.849</ele>
        <time>2022-08-24T09:50:18Z</time>
      </trkpt>
      <trkpt lat="43.05589199999937" lon="-1.265985000000003">
        <ele>1222.648</ele>
        <time>2022-08-24T09:50:19Z</time>
      </trkpt>
      <trkpt lat="43.05588299999937" lon="-1.265979000000003">
        <ele>1222.635</ele>
        <time>2022-08-24T09:50:20Z</time>
      </trkpt>
      <trkpt lat="43.05587099999937" lon="-1.2659730000000031">
        <ele>1222.686</ele>
        <time>2022-08-24T09:50:21Z</time>
      </trkpt>
      <trkpt lat="43.05586099999937" lon="-1.2659700000000031">
        <ele>1222.614</ele>
        <time>2022-08-24T09:50:22Z</time>
      </trkpt>
      <trkpt lat="43.055847999999365" lon="-1.2659670000000032">
        <ele>1222.609</ele>
        <time>2022-08-24T09:50:23Z</time>
      </trkpt>
      <trkpt lat="43.055833999999365" lon="-1.2659630000000033">
        <ele>1222.684</ele>
        <time>2022-08-24T09:50:24Z</time>
      </trkpt>
      <trkpt lat="43.05582199999937" lon="-1.2659550000000033">
        <ele>1222.664</ele>
        <time>2022-08-24T09:50:25Z</time>
      </trkpt>
      <trkpt lat="43.055810999999366" lon="-1.2659470000000033">
        <ele>1222.674</ele>
        <time>2022-08-24T09:50:26Z</time>
      </trkpt>
      <trkpt lat="43.05580099999936" lon="-1.2659370000000032">
        <ele>1222.450</ele>
        <time>2022-08-24T09:50:27Z</time>
      </trkpt>
      <trkpt lat="43.05579099999936" lon="-1.2659280000000033">
        <ele>1222.632</ele>
        <time>2022-08-24T09:50:28Z</time>
      </trkpt>
      <trkpt lat="43.05578099999936" lon="-1.2659190000000033">
        <ele>1222.659</ele>
        <time>2022-08-24T09:50:29Z</time>
      </trkpt>
      <trkpt lat="43.05573599999936" lon="-1.2658960000000032">
        <ele>1223.082</ele>
        <time>2022-08-24T09:50:33Z</time>
      </trkpt>
      <trkpt lat="43.05572699999936" lon="-1.2658920000000033">
        <ele>1222.896</ele>
        <time>2022-08-24T09:50:34Z</time>
      </trkpt>
      <trkpt lat="43.055716999999355" lon="-1.2658850000000033">
        <ele>1222.825</ele>
        <time>2022-08-24T09:50:35Z</time>
      </trkpt>
      <trkpt lat="43.055705999999354" lon="-1.2658800000000032">
        <ele>1223.031</ele>
        <time>2022-08-24T09:50:36Z</time>
      </trkpt>
      <trkpt lat="43.055685999999355" lon="-1.2658680000000033">
        <ele>1223.261</ele>
        <time>2022-08-24T09:50:38Z</time>
      </trkpt>
      <trkpt lat="43.05566799999936" lon="-1.2658530000000032">
        <ele>1223.407</ele>
        <time>2022-08-24T09:50:40Z</time>
      </trkpt>
      <trkpt lat="43.05565999999936" lon="-1.2658430000000032">
        <ele>1223.609</ele>
        <time>2022-08-24T09:50:41Z</time>
      </trkpt>
      <trkpt lat="43.055651999999355" lon="-1.2658340000000032">
        <ele>1223.874</ele>
        <time>2022-08-24T09:50:42Z</time>
      </trkpt>
      <trkpt lat="43.05564199999935" lon="-1.2658270000000031">
        <ele>1224.044</ele>
        <time>2022-08-24T09:50:43Z</time>
      </trkpt>
      <trkpt lat="43.05560599999935" lon="-1.265806000000003">
        <ele>1224.454</ele>
        <time>2022-08-24T09:50:46Z</time>
      </trkpt>
      <trkpt lat="43.05556299999935" lon="-1.265780000000003">
        <ele>1224.850</ele>
        <time>2022-08-24T09:50:50Z</time>
      </trkpt>
      <trkpt lat="43.05555299999935" lon="-1.265774000000003">
        <ele>1225.042</ele>
        <time>2022-08-24T09:50:51Z</time>
      </trkpt>
      <trkpt lat="43.05554199999935" lon="-1.2657680000000031">
        <ele>1225.249</ele>
        <time>2022-08-24T09:50:52Z</time>
      </trkpt>
      <trkpt lat="43.05552099999935" lon="-1.265761000000003">
        <ele>1225.432</ele>
        <time>2022-08-24T09:50:54Z</time>
      </trkpt>
      <trkpt lat="43.05550999999935" lon="-1.265754000000003">
        <ele>1225.666</ele>
        <time>2022-08-24T09:50:55Z</time>
      </trkpt>
      <trkpt lat="43.05550199999935" lon="-1.265743000000003">
        <ele>1225.625</ele>
        <time>2022-08-24T09:50:56Z</time>
      </trkpt>
      <trkpt lat="43.055494999999354" lon="-1.265730000000003">
        <ele>1226.062</ele>
        <time>2022-08-24T09:50:57Z</time>
      </trkpt>
      <trkpt lat="43.05548799999936" lon="-1.2657200000000028">
        <ele>1226.283</ele>
        <time>2022-08-24T09:50:58Z</time>
      </trkpt>
      <trkpt lat="43.055477999999354" lon="-1.2657100000000028">
        <ele>1226.211</ele>
        <time>2022-08-24T09:50:59Z</time>
      </trkpt>
      <trkpt lat="43.055466999999354" lon="-1.2657040000000028">
        <ele>1226.409</ele>
        <time>2022-08-24T09:51:00Z</time>
      </trkpt>
      <trkpt lat="43.05545699999935" lon="-1.2657010000000029">
        <ele>1226.647</ele>
        <time>2022-08-24T09:51:01Z</time>
      </trkpt>
      <trkpt lat="43.05544799999935" lon="-1.2656960000000028">
        <ele>1226.897</ele>
        <time>2022-08-24T09:51:02Z</time>
      </trkpt>
      <trkpt lat="43.05543999999935" lon="-1.2656930000000028">
        <ele>1226.857</ele>
        <time>2022-08-24T09:51:03Z</time>
      </trkpt>
      <trkpt lat="43.05542699999935" lon="-1.265687000000003">
        <ele>1227.063</ele>
        <time>2022-08-24T09:51:04Z</time>
      </trkpt>
      <trkpt lat="43.05541799999935" lon="-1.2656820000000029">
        <ele>1227.085</ele>
        <time>2022-08-24T09:51:05Z</time>
      </trkpt>
      <trkpt lat="43.05540899999935" lon="-1.265676000000003">
        <ele>1227.062</ele>
        <time>2022-08-24T09:51:06Z</time>
      </trkpt>
      <trkpt lat="43.055401999999354" lon="-1.265670000000003">
        <ele>1227.275</ele>
        <time>2022-08-24T09:51:07Z</time>
      </trkpt>
      <trkpt lat="43.055392999999356" lon="-1.265665000000003">
        <ele>1227.619</ele>
        <time>2022-08-24T09:51:08Z</time>
      </trkpt>
      <trkpt lat="43.055381999999355" lon="-1.265657000000003">
        <ele>1227.638</ele>
        <time>2022-08-24T09:51:09Z</time>
      </trkpt>
      <trkpt lat="43.05537199999935" lon="-1.2656500000000028">
        <ele>1227.694</ele>
        <time>2022-08-24T09:51:10Z</time>
      </trkpt>
      <trkpt lat="43.05536199999935" lon="-1.2656440000000029">
        <ele>1227.857</ele>
        <time>2022-08-24T09:51:11Z</time>
      </trkpt>
      <trkpt lat="43.05535499999935" lon="-1.265640000000003">
        <ele>1227.822</ele>
        <time>2022-08-24T09:51:12Z</time>
      </trkpt>
      <trkpt lat="43.05534499999935" lon="-1.265632000000003">
        <ele>1228.009</ele>
        <time>2022-08-24T09:51:13Z</time>
      </trkpt>
      <trkpt lat="43.05533399999935" lon="-1.265620000000003">
        <ele>1228.050</ele>
        <time>2022-08-24T09:51:14Z</time>
      </trkpt>
      <trkpt lat="43.05532499999935" lon="-1.2656110000000032">
        <ele>1228.260</ele>
        <time>2022-08-24T09:51:15Z</time>
      </trkpt>
      <trkpt lat="43.05531499999935" lon="-1.2656030000000031">
        <ele>1228.250</ele>
        <time>2022-08-24T09:51:16Z</time>
      </trkpt>
      <trkpt lat="43.055306999999345" lon="-1.2655970000000032">
        <ele>1228.446</ele>
        <time>2022-08-24T09:51:17Z</time>
      </trkpt>
      <trkpt lat="43.055295999999345" lon="-1.2655920000000032">
        <ele>1228.488</ele>
        <time>2022-08-24T09:51:18Z</time>
      </trkpt>
      <trkpt lat="43.055284999999344" lon="-1.2655870000000031">
        <ele>1228.625</ele>
        <time>2022-08-24T09:51:19Z</time>
      </trkpt>
      <trkpt lat="43.055272999999346" lon="-1.2655890000000032">
        <ele>1228.858</ele>
        <time>2022-08-24T09:51:20Z</time>
      </trkpt>
      <trkpt lat="43.05526299999934" lon="-1.2655960000000033">
        <ele>1228.832</ele>
        <time>2022-08-24T09:51:21Z</time>
      </trkpt>
      <trkpt lat="43.05525499999934" lon="-1.2656020000000032">
        <ele>1228.851</ele>
        <time>2022-08-24T09:51:22Z</time>
      </trkpt>
      <trkpt lat="43.05524099999934" lon="-1.2656110000000032">
        <ele>1229.033</ele>
        <time>2022-08-24T09:51:23Z</time>
      </trkpt>
      <trkpt lat="43.05523499999934" lon="-1.265620000000003">
        <ele>1229.223</ele>
        <time>2022-08-24T09:51:24Z</time>
      </trkpt>
      <trkpt lat="43.055230999999345" lon="-1.2656330000000031">
        <ele>1229.415</ele>
        <time>2022-08-24T09:51:25Z</time>
      </trkpt>
      <trkpt lat="43.05522699999935" lon="-1.2656460000000032">
        <ele>1229.809</ele>
        <time>2022-08-24T09:51:26Z</time>
      </trkpt>
      <trkpt lat="43.05522199999935" lon="-1.2656650000000031">
        <ele>1230.024</ele>
        <time>2022-08-24T09:51:27Z</time>
      </trkpt>
      <trkpt lat="43.05522199999935" lon="-1.265685000000003">
        <ele>1230.284</ele>
        <time>2022-08-24T09:51:28Z</time>
      </trkpt>
      <trkpt lat="43.055222999999344" lon="-1.265699000000003">
        <ele>1230.254</ele>
        <time>2022-08-24T09:51:29Z</time>
      </trkpt>
      <trkpt lat="43.055224999999346" lon="-1.2657140000000031">
        <ele>1230.460</ele>
        <time>2022-08-24T09:51:30Z</time>
      </trkpt>
      <trkpt lat="43.05522699999935" lon="-1.2657240000000032">
        <ele>1230.622</ele>
        <time>2022-08-24T09:51:31Z</time>
      </trkpt>
      <trkpt lat="43.055227999999346" lon="-1.2657390000000033">
        <ele>1230.659</ele>
        <time>2022-08-24T09:51:32Z</time>
      </trkpt>
      <trkpt lat="43.05522899999934" lon="-1.2657540000000034">
        <ele>1230.652</ele>
        <time>2022-08-24T09:51:33Z</time>
      </trkpt>
      <trkpt lat="43.05522999999934" lon="-1.2657700000000034">
        <ele>1230.646</ele>
        <time>2022-08-24T09:51:34Z</time>
      </trkpt>
      <trkpt lat="43.05523099999934" lon="-1.2657850000000035">
        <ele>1230.835</ele>
        <time>2022-08-24T09:51:35Z</time>
      </trkpt>
      <trkpt lat="43.055228999999336" lon="-1.2658020000000034">
        <ele>1230.887</ele>
        <time>2022-08-24T09:51:36Z</time>
      </trkpt>
      <trkpt lat="43.05522799999934" lon="-1.2658150000000035">
        <ele>1231.042</ele>
        <time>2022-08-24T09:51:37Z</time>
      </trkpt>
      <trkpt lat="43.05522999999934" lon="-1.2658280000000035">
        <ele>1231.226</ele>
        <time>2022-08-24T09:51:38Z</time>
      </trkpt>
      <trkpt lat="43.05523399999934" lon="-1.2658420000000035">
        <ele>1231.209</ele>
        <time>2022-08-24T09:51:39Z</time>
      </trkpt>
      <trkpt lat="43.055234999999335" lon="-1.2658610000000035">
        <ele>1231.249</ele>
        <time>2022-08-24T09:51:40Z</time>
      </trkpt>
      <trkpt lat="43.05523399999934" lon="-1.2658730000000034">
        <ele>1231.259</ele>
        <time>2022-08-24T09:51:41Z</time>
      </trkpt>
      <trkpt lat="43.05523299999934" lon="-1.2658860000000034">
        <ele>1231.479</ele>
        <time>2022-08-24T09:51:42Z</time>
      </trkpt>
      <trkpt lat="43.05523399999934" lon="-1.2659000000000034">
        <ele>1231.425</ele>
        <time>2022-08-24T09:51:43Z</time>
      </trkpt>
      <trkpt lat="43.055234999999335" lon="-1.2659140000000033">
        <ele>1231.627</ele>
        <time>2022-08-24T09:51:44Z</time>
      </trkpt>
      <trkpt lat="43.055231999999336" lon="-1.2659280000000033">
        <ele>1232.084</ele>
        <time>2022-08-24T09:51:45Z</time>
      </trkpt>
      <trkpt lat="43.05522799999934" lon="-1.2659410000000033">
        <ele>1232.047</ele>
        <time>2022-08-24T09:51:46Z</time>
      </trkpt>
      <trkpt lat="43.05522699999934" lon="-1.2659560000000034">
        <ele>1232.241</ele>
        <time>2022-08-24T09:51:47Z</time>
      </trkpt>
      <trkpt lat="43.05522899999934" lon="-1.2659710000000035">
        <ele>1232.450</ele>
        <time>2022-08-24T09:51:48Z</time>
      </trkpt>
      <trkpt lat="43.05523299999934" lon="-1.2659880000000034">
        <ele>1232.653</ele>
        <time>2022-08-24T09:51:49Z</time>
      </trkpt>
      <trkpt lat="43.05523699999934" lon="-1.2660050000000034">
        <ele>1232.604</ele>
        <time>2022-08-24T09:51:50Z</time>
      </trkpt>
      <trkpt lat="43.05524199999934" lon="-1.2660180000000034">
        <ele>1232.814</ele>
        <time>2022-08-24T09:51:51Z</time>
      </trkpt>
      <trkpt lat="43.055245999999336" lon="-1.2660320000000034">
        <ele>1233.009</ele>
        <time>2022-08-24T09:51:52Z</time>
      </trkpt>
      <trkpt lat="43.055248999999336" lon="-1.2660480000000034">
        <ele>1233.236</ele>
        <time>2022-08-24T09:51:53Z</time>
      </trkpt>
      <trkpt lat="43.055251999999335" lon="-1.2660610000000034">
        <ele>1233.426</ele>
        <time>2022-08-24T09:51:54Z</time>
      </trkpt>
      <trkpt lat="43.055251999999335" lon="-1.2660740000000035">
        <ele>1233.636</ele>
        <time>2022-08-24T09:51:55Z</time>
      </trkpt>
      <trkpt lat="43.05525299999933" lon="-1.2660880000000034">
        <ele>1233.652</ele>
        <time>2022-08-24T09:51:56Z</time>
      </trkpt>
      <trkpt lat="43.05525299999933" lon="-1.2661010000000035">
        <ele>1233.864</ele>
        <time>2022-08-24T09:51:57Z</time>
      </trkpt>
      <trkpt lat="43.05525399999933" lon="-1.2661150000000034">
        <ele>1234.021</ele>
        <time>2022-08-24T09:51:58Z</time>
      </trkpt>
      <trkpt lat="43.05525199999933" lon="-1.2661270000000033">
        <ele>1234.264</ele>
        <time>2022-08-24T09:51:59Z</time>
      </trkpt>
      <trkpt lat="43.05524899999933" lon="-1.2661390000000032">
        <ele>1234.458</ele>
        <time>2022-08-24T09:52:00Z</time>
      </trkpt>
      <trkpt lat="43.05524399999933" lon="-1.2661520000000033">
        <ele>1234.627</ele>
        <time>2022-08-24T09:52:01Z</time>
      </trkpt>
      <trkpt lat="43.055238999999325" lon="-1.2661640000000032">
        <ele>1235.077</ele>
        <time>2022-08-24T09:52:02Z</time>
      </trkpt>
      <trkpt lat="43.055232999999326" lon="-1.2661750000000032">
        <ele>1235.261</ele>
        <time>2022-08-24T09:52:03Z</time>
      </trkpt>
      <trkpt lat="43.05522699999933" lon="-1.266184000000003">
        <ele>1235.427</ele>
        <time>2022-08-24T09:52:04Z</time>
      </trkpt>
      <trkpt lat="43.05522399999933" lon="-1.266192000000003">
        <ele>1235.609</ele>
        <time>2022-08-24T09:52:05Z</time>
      </trkpt>
      <trkpt lat="43.055218999999326" lon="-1.266204000000003">
        <ele>1236.278</ele>
        <time>2022-08-24T09:52:06Z</time>
      </trkpt>
      <trkpt lat="43.05521499999933" lon="-1.266217000000003">
        <ele>1236.458</ele>
        <time>2022-08-24T09:52:07Z</time>
      </trkpt>
      <trkpt lat="43.05520799999933" lon="-1.266229000000003">
        <ele>1236.688</ele>
        <time>2022-08-24T09:52:08Z</time>
      </trkpt>
      <trkpt lat="43.05519999999933" lon="-1.266237000000003">
        <ele>1237.094</ele>
        <time>2022-08-24T09:52:09Z</time>
      </trkpt>
      <trkpt lat="43.055192999999335" lon="-1.266243000000003">
        <ele>1237.476</ele>
        <time>2022-08-24T09:52:10Z</time>
      </trkpt>
      <trkpt lat="43.055184999999334" lon="-1.2662490000000028">
        <ele>1237.683</ele>
        <time>2022-08-24T09:52:11Z</time>
      </trkpt>
      <trkpt lat="43.05517799999934" lon="-1.2662600000000028">
        <ele>1237.846</ele>
        <time>2022-08-24T09:52:12Z</time>
      </trkpt>
      <trkpt lat="43.05517099999934" lon="-1.2662740000000028">
        <ele>1238.270</ele>
        <time>2022-08-24T09:52:13Z</time>
      </trkpt>
      <trkpt lat="43.05516099999934" lon="-1.2662850000000028">
        <ele>1238.419</ele>
        <time>2022-08-24T09:52:14Z</time>
      </trkpt>
      <trkpt lat="43.055150999999334" lon="-1.2662950000000028">
        <ele>1238.659</ele>
        <time>2022-08-24T09:52:15Z</time>
      </trkpt>
      <trkpt lat="43.055141999999336" lon="-1.2663040000000028">
        <ele>1238.803</ele>
        <time>2022-08-24T09:52:16Z</time>
      </trkpt>
      <trkpt lat="43.05513199999933" lon="-1.2663140000000028">
        <ele>1238.823</ele>
        <time>2022-08-24T09:52:17Z</time>
      </trkpt>
      <trkpt lat="43.05512099999933" lon="-1.266329000000003">
        <ele>1239.209</ele>
        <time>2022-08-24T09:52:18Z</time>
      </trkpt>
      <trkpt lat="43.055113999999335" lon="-1.266342000000003">
        <ele>1239.476</ele>
        <time>2022-08-24T09:52:19Z</time>
      </trkpt>
      <trkpt lat="43.055105999999334" lon="-1.266351000000003">
        <ele>1239.646</ele>
        <time>2022-08-24T09:52:20Z</time>
      </trkpt>
      <trkpt lat="43.055096999999336" lon="-1.2663650000000028">
        <ele>1239.856</ele>
        <time>2022-08-24T09:52:21Z</time>
      </trkpt>
      <trkpt lat="43.05508799999934" lon="-1.266378000000003">
        <ele>1240.042</ele>
        <time>2022-08-24T09:52:22Z</time>
      </trkpt>
      <trkpt lat="43.055076999999336" lon="-1.2663920000000028">
        <ele>1240.234</ele>
        <time>2022-08-24T09:52:23Z</time>
      </trkpt>
      <trkpt lat="43.05506699999933" lon="-1.2664040000000027">
        <ele>1240.491</ele>
        <time>2022-08-24T09:52:24Z</time>
      </trkpt>
      <trkpt lat="43.05505899999933" lon="-1.2664190000000028">
        <ele>1240.644</ele>
        <time>2022-08-24T09:52:25Z</time>
      </trkpt>
      <trkpt lat="43.05504999999933" lon="-1.2664330000000028">
        <ele>1241.038</ele>
        <time>2022-08-24T09:52:26Z</time>
      </trkpt>
      <trkpt lat="43.055040999999335" lon="-1.2664470000000028">
        <ele>1241.447</ele>
        <time>2022-08-24T09:52:27Z</time>
      </trkpt>
      <trkpt lat="43.055032999999334" lon="-1.2664600000000028">
        <ele>1241.452</ele>
        <time>2022-08-24T09:52:28Z</time>
      </trkpt>
      <trkpt lat="43.05502199999933" lon="-1.2664700000000029">
        <ele>1241.853</ele>
        <time>2022-08-24T09:52:29Z</time>
      </trkpt>
      <trkpt lat="43.05501199999933" lon="-1.266480000000003">
        <ele>1242.208</ele>
        <time>2022-08-24T09:52:30Z</time>
      </trkpt>
      <trkpt lat="43.05500199999933" lon="-1.266490000000003">
        <ele>1242.409</ele>
        <time>2022-08-24T09:52:31Z</time>
      </trkpt>
      <trkpt lat="43.054993999999326" lon="-1.266500000000003">
        <ele>1242.636</ele>
        <time>2022-08-24T09:52:32Z</time>
      </trkpt>
      <trkpt lat="43.054985999999325" lon="-1.2665100000000031">
        <ele>1243.016</ele>
        <time>2022-08-24T09:52:33Z</time>
      </trkpt>
      <trkpt lat="43.054979999999325" lon="-1.2665170000000032">
        <ele>1243.456</ele>
        <time>2022-08-24T09:52:34Z</time>
      </trkpt>
      <trkpt lat="43.054971999999324" lon="-1.2665250000000032">
        <ele>1243.822</ele>
        <time>2022-08-24T09:52:35Z</time>
      </trkpt>
      <trkpt lat="43.05496699999932" lon="-1.2665300000000033">
        <ele>1244.024</ele>
        <time>2022-08-24T09:52:36Z</time>
      </trkpt>
      <trkpt lat="43.054965999999325" lon="-1.2665390000000032">
        <ele>1246.211</ele>
        <time>2022-08-24T09:53:13Z</time>
      </trkpt>
      <trkpt lat="43.05496699999932" lon="-1.2665470000000032">
        <ele>1246.294</ele>
        <time>2022-08-24T09:53:15Z</time>
      </trkpt>
      <trkpt lat="43.054965999999325" lon="-1.2665470000000032">
        <ele>1247.688</ele>
        <time>2022-08-24T09:53:26Z</time>
      </trkpt>
      <trkpt lat="43.05496399999932" lon="-1.2665540000000033">
        <ele>1247.447</ele>
        <time>2022-08-24T09:53:27Z</time>
      </trkpt>
      <trkpt lat="43.054937999999325" lon="-1.2666090000000032">
        <ele>1247.646</ele>
        <time>2022-08-24T09:53:31Z</time>
      </trkpt>
      <trkpt lat="43.05493299999932" lon="-1.2666200000000032">
        <ele>1247.888</ele>
        <time>2022-08-24T09:53:32Z</time>
      </trkpt>
      <trkpt lat="43.05492499999932" lon="-1.2666470000000032">
        <ele>1248.016</ele>
        <time>2022-08-24T09:53:34Z</time>
      </trkpt>
      <trkpt lat="43.05488699999932" lon="-1.2667230000000032">
        <ele>1248.409</ele>
        <time>2022-08-24T09:53:42Z</time>
      </trkpt>
      <trkpt lat="43.05488099999932" lon="-1.2667340000000031">
        <ele>1248.455</ele>
        <time>2022-08-24T09:53:43Z</time>
      </trkpt>
      <trkpt lat="43.05487699999932" lon="-1.2667450000000031">
        <ele>1248.675</ele>
        <time>2022-08-24T09:53:44Z</time>
      </trkpt>
      <trkpt lat="43.05484599999932" lon="-1.266783000000003">
        <ele>1248.885</ele>
        <time>2022-08-24T09:53:49Z</time>
      </trkpt>
      <trkpt lat="43.05483799999932" lon="-1.266784000000003">
        <ele>1249.051</ele>
        <time>2022-08-24T09:53:50Z</time>
      </trkpt>
      <trkpt lat="43.05483499999932" lon="-1.266784000000003">
        <ele>1249.253</ele>
        <time>2022-08-24T09:53:51Z</time>
      </trkpt>
      <trkpt lat="43.05483499999932" lon="-1.266784000000003">
        <ele>1249.450</ele>
        <time>2022-08-24T09:53:52Z</time>
      </trkpt>
      <trkpt lat="43.05483499999932" lon="-1.266784000000003">
        <ele>1249.453</ele>
        <time>2022-08-24T09:53:53Z</time>
      </trkpt>
      <trkpt lat="43.05481499999932" lon="-1.266797000000003">
        <ele>1249.467</ele>
        <time>2022-08-24T09:54:19Z</time>
      </trkpt>
      <trkpt lat="43.05476799999932" lon="-1.2668120000000032">
        <ele>1249.646</ele>
        <time>2022-08-24T09:54:23Z</time>
      </trkpt>
      <trkpt lat="43.05472999999932" lon="-1.2668200000000032">
        <ele>1249.629</ele>
        <time>2022-08-24T09:54:27Z</time>
      </trkpt>
      <trkpt lat="43.054721999999316" lon="-1.266821000000003">
        <ele>1249.600</ele>
        <time>2022-08-24T09:54:28Z</time>
      </trkpt>
      <trkpt lat="43.054713999999315" lon="-1.266822000000003">
        <ele>1249.620</ele>
        <time>2022-08-24T09:54:29Z</time>
      </trkpt>
      <trkpt lat="43.05468699999931" lon="-1.266825000000003">
        <ele>1249.809</ele>
        <time>2022-08-24T09:54:33Z</time>
      </trkpt>
      <trkpt lat="43.054654999999315" lon="-1.266834000000003">
        <ele>1249.883</ele>
        <time>2022-08-24T09:54:37Z</time>
      </trkpt>
      <trkpt lat="43.054645999999316" lon="-1.266836000000003">
        <ele>1249.813</ele>
        <time>2022-08-24T09:54:38Z</time>
      </trkpt>
      <trkpt lat="43.05463699999932" lon="-1.2668400000000029">
        <ele>1250.013</ele>
        <time>2022-08-24T09:54:39Z</time>
      </trkpt>
      <trkpt lat="43.05462799999932" lon="-1.266842000000003">
        <ele>1250.229</ele>
        <time>2022-08-24T09:54:40Z</time>
      </trkpt>
      <trkpt lat="43.05461999999932" lon="-1.266842000000003">
        <ele>1250.491</ele>
        <time>2022-08-24T09:54:41Z</time>
      </trkpt>
      <trkpt lat="43.05461199999932" lon="-1.2668430000000028">
        <ele>1250.488</ele>
        <time>2022-08-24T09:54:42Z</time>
      </trkpt>
      <trkpt lat="43.05460599999932" lon="-1.2668440000000027">
        <ele>1250.451</ele>
        <time>2022-08-24T09:54:43Z</time>
      </trkpt>
      <trkpt lat="43.05459699999932" lon="-1.2668450000000027">
        <ele>1250.625</ele>
        <time>2022-08-24T09:54:44Z</time>
      </trkpt>
      <trkpt lat="43.05459099999932" lon="-1.2668460000000026">
        <ele>1250.654</ele>
        <time>2022-08-24T09:54:45Z</time>
      </trkpt>
      <trkpt lat="43.05458299999932" lon="-1.2668480000000026">
        <ele>1250.843</ele>
        <time>2022-08-24T09:54:46Z</time>
      </trkpt>
      <trkpt lat="43.05457599999932" lon="-1.2668500000000027">
        <ele>1250.864</ele>
        <time>2022-08-24T09:54:47Z</time>
      </trkpt>
      <trkpt lat="43.054568999999326" lon="-1.2668500000000027">
        <ele>1250.810</ele>
        <time>2022-08-24T09:54:48Z</time>
      </trkpt>
      <trkpt lat="43.05455999999933" lon="-1.2668520000000028">
        <ele>1250.809</ele>
        <time>2022-08-24T09:54:49Z</time>
      </trkpt>
      <trkpt lat="43.054551999999326" lon="-1.2668540000000028">
        <ele>1251.065</ele>
        <time>2022-08-24T09:54:50Z</time>
      </trkpt>
      <trkpt lat="43.05454599999933" lon="-1.2668550000000027">
        <ele>1251.055</ele>
        <time>2022-08-24T09:54:51Z</time>
      </trkpt>
      <trkpt lat="43.05453999999933" lon="-1.2668560000000026">
        <ele>1251.095</ele>
        <time>2022-08-24T09:54:52Z</time>
      </trkpt>
      <trkpt lat="43.05453299999933" lon="-1.2668590000000026">
        <ele>1251.071</ele>
        <time>2022-08-24T09:54:53Z</time>
      </trkpt>
      <trkpt lat="43.054525999999335" lon="-1.2668640000000027">
        <ele>1251.063</ele>
        <time>2022-08-24T09:54:54Z</time>
      </trkpt>
      <trkpt lat="43.05451899999934" lon="-1.2668690000000027">
        <ele>1251.080</ele>
        <time>2022-08-24T09:54:55Z</time>
      </trkpt>
      <trkpt lat="43.05451099999934" lon="-1.2668710000000027">
        <ele>1251.093</ele>
        <time>2022-08-24T09:54:56Z</time>
      </trkpt>
      <trkpt lat="43.05449899999934" lon="-1.2668770000000027">
        <ele>1251.087</ele>
        <time>2022-08-24T09:54:57Z</time>
      </trkpt>
      <trkpt lat="43.05449199999934" lon="-1.2668800000000027">
        <ele>1251.076</ele>
        <time>2022-08-24T09:54:58Z</time>
      </trkpt>
      <trkpt lat="43.05446999999934" lon="-1.2668910000000027">
        <ele>1250.264</ele>
        <time>2022-08-24T09:55:08Z</time>
      </trkpt>
      <trkpt lat="43.05438099999934" lon="-1.2669250000000027">
        <ele>1249.806</ele>
        <time>2022-08-24T09:55:12Z</time>
      </trkpt>
      <trkpt lat="43.05431099999934" lon="-1.2669590000000028">
        <ele>1250.016</ele>
        <time>2022-08-24T09:55:14Z</time>
      </trkpt>
      <trkpt lat="43.054204999999335" lon="-1.2670250000000027">
        <ele>1250.009</ele>
        <time>2022-08-24T09:55:17Z</time>
      </trkpt>
      <trkpt lat="43.05416999999934" lon="-1.2670410000000027">
        <ele>1249.847</ele>
        <time>2022-08-24T09:55:18Z</time>
      </trkpt>
      <trkpt lat="43.05397899999934" lon="-1.2671320000000028">
        <ele>1249.227</ele>
        <time>2022-08-24T09:55:23Z</time>
      </trkpt>
      <trkpt lat="43.053939999999336" lon="-1.2671480000000028">
        <ele>1249.077</ele>
        <time>2022-08-24T09:55:24Z</time>
      </trkpt>
      <trkpt lat="43.05389999999934" lon="-1.267166000000003">
        <ele>1248.683</ele>
        <time>2022-08-24T09:55:25Z</time>
      </trkpt>
      <trkpt lat="43.05386899999934" lon="-1.2671780000000028">
        <ele>1248.495</ele>
        <time>2022-08-24T09:55:26Z</time>
      </trkpt>
      <trkpt lat="43.05382299999934" lon="-1.2671970000000028">
        <ele>1248.222</ele>
        <time>2022-08-24T09:55:27Z</time>
      </trkpt>
      <trkpt lat="43.05378699999934" lon="-1.2672110000000028">
        <ele>1248.085</ele>
        <time>2022-08-24T09:55:28Z</time>
      </trkpt>
      <trkpt lat="43.05375299999934" lon="-1.2672250000000027">
        <ele>1247.829</ele>
        <time>2022-08-24T09:55:29Z</time>
      </trkpt>
      <trkpt lat="43.05371999999934" lon="-1.2672410000000027">
        <ele>1247.638</ele>
        <time>2022-08-24T09:55:30Z</time>
      </trkpt>
      <trkpt lat="43.053686999999336" lon="-1.2672550000000027">
        <ele>1247.689</ele>
        <time>2022-08-24T09:55:31Z</time>
      </trkpt>
      <trkpt lat="43.05365199999934" lon="-1.2672690000000026">
        <ele>1247.406</ele>
        <time>2022-08-24T09:55:32Z</time>
      </trkpt>
      <trkpt lat="43.05361999999934" lon="-1.2672830000000026">
        <ele>1247.426</ele>
        <time>2022-08-24T09:55:33Z</time>
      </trkpt>
      <trkpt lat="43.05358899999934" lon="-1.2672950000000025">
        <ele>1247.209</ele>
        <time>2022-08-24T09:55:34Z</time>
      </trkpt>
      <trkpt lat="43.05355899999934" lon="-1.2673070000000024">
        <ele>1247.219</ele>
        <time>2022-08-24T09:55:35Z</time>
      </trkpt>
      <trkpt lat="43.05352999999934" lon="-1.2673200000000024">
        <ele>1247.029</ele>
        <time>2022-08-24T09:55:36Z</time>
      </trkpt>
      <trkpt lat="43.05347099999934" lon="-1.2673430000000026">
        <ele>1247.089</ele>
        <time>2022-08-24T09:55:38Z</time>
      </trkpt>
      <trkpt lat="43.05337999999934" lon="-1.2673800000000026">
        <ele>1247.035</ele>
        <time>2022-08-24T09:55:41Z</time>
      </trkpt>
      <trkpt lat="43.05335299999934" lon="-1.2673870000000027">
        <ele>1247.027</ele>
        <time>2022-08-24T09:55:42Z</time>
      </trkpt>
      <trkpt lat="43.05332699999934" lon="-1.2673910000000026">
        <ele>1247.054</ele>
        <time>2022-08-24T09:55:43Z</time>
      </trkpt>
      <trkpt lat="43.05330299999934" lon="-1.2673990000000026">
        <ele>1246.687</ele>
        <time>2022-08-24T09:55:44Z</time>
      </trkpt>
      <trkpt lat="43.05327699999934" lon="-1.2674050000000026">
        <ele>1246.671</ele>
        <time>2022-08-24T09:55:45Z</time>
      </trkpt>
      <trkpt lat="43.05325199999934" lon="-1.2674090000000025">
        <ele>1246.670</ele>
        <time>2022-08-24T09:55:46Z</time>
      </trkpt>
      <trkpt lat="43.053227999999336" lon="-1.2674140000000025">
        <ele>1246.651</ele>
        <time>2022-08-24T09:55:47Z</time>
      </trkpt>
      <trkpt lat="43.053202999999336" lon="-1.2674180000000024">
        <ele>1246.601</ele>
        <time>2022-08-24T09:55:48Z</time>
      </trkpt>
      <trkpt lat="43.05315399999934" lon="-1.2674260000000024">
        <ele>1246.611</ele>
        <time>2022-08-24T09:55:50Z</time>
      </trkpt>
      <trkpt lat="43.05313099999934" lon="-1.2674280000000024">
        <ele>1246.609</ele>
        <time>2022-08-24T09:55:51Z</time>
      </trkpt>
      <trkpt lat="43.05310799999934" lon="-1.2674310000000024">
        <ele>1246.686</ele>
        <time>2022-08-24T09:55:52Z</time>
      </trkpt>
      <trkpt lat="43.05308799999934" lon="-1.2674380000000025">
        <ele>1246.456</ele>
        <time>2022-08-24T09:55:53Z</time>
      </trkpt>
      <trkpt lat="43.05306899999934" lon="-1.2674440000000025">
        <ele>1246.436</ele>
        <time>2022-08-24T09:55:54Z</time>
      </trkpt>
      <trkpt lat="43.05304699999934" lon="-1.2674480000000024">
        <ele>1246.682</ele>
        <time>2022-08-24T09:55:55Z</time>
      </trkpt>
      <trkpt lat="43.05302499999934" lon="-1.2674490000000023">
        <ele>1246.834</ele>
        <time>2022-08-24T09:55:56Z</time>
      </trkpt>
      <trkpt lat="43.05300399999934" lon="-1.2674480000000024">
        <ele>1246.831</ele>
        <time>2022-08-24T09:55:57Z</time>
      </trkpt>
      <trkpt lat="43.05298499999934" lon="-1.2674440000000025">
        <ele>1246.864</ele>
        <time>2022-08-24T09:55:58Z</time>
      </trkpt>
      <trkpt lat="43.05296699999934" lon="-1.2674420000000024">
        <ele>1247.058</ele>
        <time>2022-08-24T09:55:59Z</time>
      </trkpt>
      <trkpt lat="43.052948999999344" lon="-1.2674430000000023">
        <ele>1247.077</ele>
        <time>2022-08-24T09:56:00Z</time>
      </trkpt>
      <trkpt lat="43.05293099999935" lon="-1.2674440000000022">
        <ele>1247.225</ele>
        <time>2022-08-24T09:56:01Z</time>
      </trkpt>
      <trkpt lat="43.052892999999344" lon="-1.2674500000000022">
        <ele>1247.626</ele>
        <time>2022-08-24T09:56:03Z</time>
      </trkpt>
      <trkpt lat="43.05281199999934" lon="-1.2674750000000021">
        <ele>1247.808</ele>
        <time>2022-08-24T09:56:06Z</time>
      </trkpt>
      <trkpt lat="43.05271599999934" lon="-1.2674990000000022">
        <ele>1247.809</ele>
        <time>2022-08-24T09:56:09Z</time>
      </trkpt>
      <trkpt lat="43.05268499999934" lon="-1.267511000000002">
        <ele>1247.893</ele>
        <time>2022-08-24T09:56:10Z</time>
      </trkpt>
      <trkpt lat="43.05258199999934" lon="-1.2675610000000022">
        <ele>1246.893</ele>
        <time>2022-08-24T09:56:13Z</time>
      </trkpt>
      <trkpt lat="43.05255299999934" lon="-1.2675740000000022">
        <ele>1246.443</ele>
        <time>2022-08-24T09:56:14Z</time>
      </trkpt>
      <trkpt lat="43.05252499999934" lon="-1.2675850000000022">
        <ele>1246.279</ele>
        <time>2022-08-24T09:56:15Z</time>
      </trkpt>
      <trkpt lat="43.052492999999345" lon="-1.2676000000000023">
        <ele>1246.061</ele>
        <time>2022-08-24T09:56:16Z</time>
      </trkpt>
      <trkpt lat="43.05239299999934" lon="-1.2676390000000022">
        <ele>1245.468</ele>
        <time>2022-08-24T09:56:19Z</time>
      </trkpt>
      <trkpt lat="43.05235899999934" lon="-1.2676460000000023">
        <ele>1245.241</ele>
        <time>2022-08-24T09:56:20Z</time>
      </trkpt>
      <trkpt lat="43.052326999999345" lon="-1.2676490000000022">
        <ele>1244.835</ele>
        <time>2022-08-24T09:56:21Z</time>
      </trkpt>
      <trkpt lat="43.05229699999934" lon="-1.2676480000000023">
        <ele>1244.894</ele>
        <time>2022-08-24T09:56:22Z</time>
      </trkpt>
      <trkpt lat="43.05226699999934" lon="-1.2676470000000024">
        <ele>1244.672</ele>
        <time>2022-08-24T09:56:23Z</time>
      </trkpt>
      <trkpt lat="43.05223499999934" lon="-1.2676480000000023">
        <ele>1244.413</ele>
        <time>2022-08-24T09:56:24Z</time>
      </trkpt>
      <trkpt lat="43.05220199999934" lon="-1.2676490000000022">
        <ele>1244.214</ele>
        <time>2022-08-24T09:56:25Z</time>
      </trkpt>
      <trkpt lat="43.05211099999934" lon="-1.2676620000000023">
        <ele>1243.209</ele>
        <time>2022-08-24T09:56:28Z</time>
      </trkpt>
      <trkpt lat="43.05207699999934" lon="-1.2676690000000024">
        <ele>1243.098</ele>
        <time>2022-08-24T09:56:29Z</time>
      </trkpt>
      <trkpt lat="43.05193199999934" lon="-1.2676910000000023">
        <ele>1242.668</ele>
        <time>2022-08-24T09:56:33Z</time>
      </trkpt>
      <trkpt lat="43.05189799999934" lon="-1.2676980000000024">
        <ele>1242.488</ele>
        <time>2022-08-24T09:56:34Z</time>
      </trkpt>
      <trkpt lat="43.05179299999934" lon="-1.2677500000000024">
        <ele>1242.234</ele>
        <time>2022-08-24T09:56:37Z</time>
      </trkpt>
      <trkpt lat="43.05175999999934" lon="-1.2677600000000024">
        <ele>1242.046</ele>
        <time>2022-08-24T09:56:38Z</time>
      </trkpt>
      <trkpt lat="43.05172599999934" lon="-1.2677660000000024">
        <ele>1242.023</ele>
        <time>2022-08-24T09:56:39Z</time>
      </trkpt>
      <trkpt lat="43.05169499999934" lon="-1.2677720000000023">
        <ele>1241.856</ele>
        <time>2022-08-24T09:56:40Z</time>
      </trkpt>
      <trkpt lat="43.05166699999934" lon="-1.2677800000000023">
        <ele>1241.880</ele>
        <time>2022-08-24T09:56:41Z</time>
      </trkpt>
      <trkpt lat="43.05164099999934" lon="-1.2677840000000022">
        <ele>1241.839</ele>
        <time>2022-08-24T09:56:42Z</time>
      </trkpt>
      <trkpt lat="43.051617999999344" lon="-1.2677920000000023">
        <ele>1242.016</ele>
        <time>2022-08-24T09:56:43Z</time>
      </trkpt>
      <trkpt lat="43.05150699999935" lon="-1.2678440000000022">
        <ele>1242.476</ele>
        <time>2022-08-24T09:56:47Z</time>
      </trkpt>
      <trkpt lat="43.05148099999935" lon="-1.2678510000000023">
        <ele>1242.813</ele>
        <time>2022-08-24T09:56:48Z</time>
      </trkpt>
      <trkpt lat="43.05145799999935" lon="-1.2678600000000022">
        <ele>1243.009</ele>
        <time>2022-08-24T09:56:49Z</time>
      </trkpt>
      <trkpt lat="43.05143599999935" lon="-1.2678730000000022">
        <ele>1243.282</ele>
        <time>2022-08-24T09:56:50Z</time>
      </trkpt>
      <trkpt lat="43.05130599999935" lon="-1.2679390000000021">
        <ele>1243.622</ele>
        <time>2022-08-24T09:56:55Z</time>
      </trkpt>
      <trkpt lat="43.05127699999935" lon="-1.2679440000000022">
        <ele>1243.682</ele>
        <time>2022-08-24T09:56:56Z</time>
      </trkpt>
      <trkpt lat="43.05125199999935" lon="-1.2679510000000023">
        <ele>1243.648</ele>
        <time>2022-08-24T09:56:57Z</time>
      </trkpt>
      <trkpt lat="43.05122899999935" lon="-1.2679540000000022">
        <ele>1243.650</ele>
        <time>2022-08-24T09:56:58Z</time>
      </trkpt>
      <trkpt lat="43.05120899999935" lon="-1.2679490000000022">
        <ele>1243.877</ele>
        <time>2022-08-24T09:56:59Z</time>
      </trkpt>
      <trkpt lat="43.05118799999936" lon="-1.2679470000000022">
        <ele>1244.070</ele>
        <time>2022-08-24T09:57:00Z</time>
      </trkpt>
      <trkpt lat="43.05116699999936" lon="-1.267951000000002">
        <ele>1244.044</ele>
        <time>2022-08-24T09:57:01Z</time>
      </trkpt>
      <trkpt lat="43.05114499999936" lon="-1.2679610000000021">
        <ele>1244.263</ele>
        <time>2022-08-24T09:57:02Z</time>
      </trkpt>
      <trkpt lat="43.05112599999936" lon="-1.267967000000002">
        <ele>1244.257</ele>
        <time>2022-08-24T09:57:03Z</time>
      </trkpt>
      <trkpt lat="43.051109999999355" lon="-1.267972000000002">
        <ele>1244.400</ele>
        <time>2022-08-24T09:57:04Z</time>
      </trkpt>
      <trkpt lat="43.05109399999935" lon="-1.267976000000002">
        <ele>1244.420</ele>
        <time>2022-08-24T09:57:05Z</time>
      </trkpt>
      <trkpt lat="43.051078999999355" lon="-1.267979000000002">
        <ele>1244.609</ele>
        <time>2022-08-24T09:57:06Z</time>
      </trkpt>
      <trkpt lat="43.05106399999936" lon="-1.267984000000002">
        <ele>1244.656</ele>
        <time>2022-08-24T09:57:07Z</time>
      </trkpt>
      <trkpt lat="43.05104899999936" lon="-1.267990000000002">
        <ele>1244.666</ele>
        <time>2022-08-24T09:57:08Z</time>
      </trkpt>
      <trkpt lat="43.05103299999936" lon="-1.267995000000002">
        <ele>1244.866</ele>
        <time>2022-08-24T09:57:09Z</time>
      </trkpt>
      <trkpt lat="43.05100099999936" lon="-1.268009000000002">
        <ele>1245.052</ele>
        <time>2022-08-24T09:57:11Z</time>
      </trkpt>
      <trkpt lat="43.05089699999936" lon="-1.268069000000002">
        <ele>1245.884</ele>
        <time>2022-08-24T09:57:16Z</time>
      </trkpt>
      <trkpt lat="43.050841999999356" lon="-1.2681210000000018">
        <ele>1246.011</ele>
        <time>2022-08-24T09:57:18Z</time>
      </trkpt>
      <trkpt lat="43.05081499999935" lon="-1.2681530000000019">
        <ele>1246.074</ele>
        <time>2022-08-24T09:57:19Z</time>
      </trkpt>
      <trkpt lat="43.05079299999935" lon="-1.2681880000000019">
        <ele>1246.058</ele>
        <time>2022-08-24T09:57:20Z</time>
      </trkpt>
      <trkpt lat="43.05077699999935" lon="-1.2682240000000018">
        <ele>1246.077</ele>
        <time>2022-08-24T09:57:21Z</time>
      </trkpt>
      <trkpt lat="43.05075799999935" lon="-1.2682550000000017">
        <ele>1246.053</ele>
        <time>2022-08-24T09:57:22Z</time>
      </trkpt>
      <trkpt lat="43.05073599999935" lon="-1.2682780000000018">
        <ele>1246.004</ele>
        <time>2022-08-24T09:57:23Z</time>
      </trkpt>
      <trkpt lat="43.050713999999346" lon="-1.2682920000000018">
        <ele>1246.014</ele>
        <time>2022-08-24T09:57:24Z</time>
      </trkpt>
      <trkpt lat="43.050691999999344" lon="-1.2683030000000017">
        <ele>1246.009</ele>
        <time>2022-08-24T09:57:25Z</time>
      </trkpt>
      <trkpt lat="43.050671999999345" lon="-1.2683110000000017">
        <ele>1246.066</ele>
        <time>2022-08-24T09:57:26Z</time>
      </trkpt>
      <trkpt lat="43.05065099999935" lon="-1.2683150000000016">
        <ele>1246.246</ele>
        <time>2022-08-24T09:57:27Z</time>
      </trkpt>
      <trkpt lat="43.05063199999935" lon="-1.2683200000000017">
        <ele>1246.256</ele>
        <time>2022-08-24T09:57:28Z</time>
      </trkpt>
      <trkpt lat="43.05061399999935" lon="-1.2683290000000016">
        <ele>1246.482</ele>
        <time>2022-08-24T09:57:29Z</time>
      </trkpt>
      <trkpt lat="43.05059799999935" lon="-1.2683380000000015">
        <ele>1246.414</ele>
        <time>2022-08-24T09:57:30Z</time>
      </trkpt>
      <trkpt lat="43.05058299999935" lon="-1.2683460000000015">
        <ele>1246.651</ele>
        <time>2022-08-24T09:57:31Z</time>
      </trkpt>
      <trkpt lat="43.05056699999935" lon="-1.2683510000000016">
        <ele>1247.024</ele>
        <time>2022-08-24T09:57:32Z</time>
      </trkpt>
      <trkpt lat="43.05055199999935" lon="-1.2683580000000017">
        <ele>1247.028</ele>
        <time>2022-08-24T09:57:33Z</time>
      </trkpt>
      <trkpt lat="43.05053399999935" lon="-1.2683640000000016">
        <ele>1247.257</ele>
        <time>2022-08-24T09:57:34Z</time>
      </trkpt>
      <trkpt lat="43.05051799999935" lon="-1.2683720000000016">
        <ele>1247.222</ele>
        <time>2022-08-24T09:57:35Z</time>
      </trkpt>
      <trkpt lat="43.05049299999935" lon="-1.2683940000000016">
        <ele>1247.662</ele>
        <time>2022-08-24T09:57:37Z</time>
      </trkpt>
      <trkpt lat="43.05048099999935" lon="-1.2684080000000015">
        <ele>1247.808</ele>
        <time>2022-08-24T09:57:38Z</time>
      </trkpt>
      <trkpt lat="43.05047099999935" lon="-1.2684220000000015">
        <ele>1248.009</ele>
        <time>2022-08-24T09:57:39Z</time>
      </trkpt>
      <trkpt lat="43.05045999999935" lon="-1.2684300000000015">
        <ele>1248.273</ele>
        <time>2022-08-24T09:57:40Z</time>
      </trkpt>
      <trkpt lat="43.05043399999935" lon="-1.2684300000000015">
        <ele>1248.653</ele>
        <time>2022-08-24T09:57:42Z</time>
      </trkpt>
      <trkpt lat="43.05041899999935" lon="-1.2684240000000016">
        <ele>1248.863</ele>
        <time>2022-08-24T09:57:43Z</time>
      </trkpt>
      <trkpt lat="43.05040499999935" lon="-1.2684170000000015">
        <ele>1249.239</ele>
        <time>2022-08-24T09:57:44Z</time>
      </trkpt>
      <trkpt lat="43.05039099999935" lon="-1.2684110000000015">
        <ele>1249.841</ele>
        <time>2022-08-24T09:57:45Z</time>
      </trkpt>
      <trkpt lat="43.05037699999935" lon="-1.2684040000000014">
        <ele>1250.058</ele>
        <time>2022-08-24T09:57:46Z</time>
      </trkpt>
      <trkpt lat="43.05036099999935" lon="-1.2683970000000013">
        <ele>1250.211</ele>
        <time>2022-08-24T09:57:47Z</time>
      </trkpt>
      <trkpt lat="43.05034999999935" lon="-1.2683890000000013">
        <ele>1250.425</ele>
        <time>2022-08-24T09:57:48Z</time>
      </trkpt>
      <trkpt lat="43.05033799999935" lon="-1.2683780000000013">
        <ele>1250.664</ele>
        <time>2022-08-24T09:57:49Z</time>
      </trkpt>
      <trkpt lat="43.05032699999935" lon="-1.2683680000000013">
        <ele>1250.637</ele>
        <time>2022-08-24T09:57:50Z</time>
      </trkpt>
      <trkpt lat="43.050316999999346" lon="-1.2683550000000012">
        <ele>1251.049</ele>
        <time>2022-08-24T09:57:51Z</time>
      </trkpt>
      <trkpt lat="43.050305999999345" lon="-1.2683450000000012">
        <ele>1251.213</ele>
        <time>2022-08-24T09:57:52Z</time>
      </trkpt>
      <trkpt lat="43.05029399999935" lon="-1.268335000000001">
        <ele>1251.409</ele>
        <time>2022-08-24T09:57:53Z</time>
      </trkpt>
      <trkpt lat="43.05028299999935" lon="-1.2683260000000012">
        <ele>1251.474</ele>
        <time>2022-08-24T09:57:54Z</time>
      </trkpt>
      <trkpt lat="43.050269999999344" lon="-1.268319000000001">
        <ele>1251.684</ele>
        <time>2022-08-24T09:57:55Z</time>
      </trkpt>
      <trkpt lat="43.05025999999934" lon="-1.268311000000001">
        <ele>1251.874</ele>
        <time>2022-08-24T09:57:56Z</time>
      </trkpt>
      <trkpt lat="43.05024999999934" lon="-1.268304000000001">
        <ele>1252.240</ele>
        <time>2022-08-24T09:57:57Z</time>
      </trkpt>
      <trkpt lat="43.05023799999934" lon="-1.268300000000001">
        <ele>1252.482</ele>
        <time>2022-08-24T09:57:58Z</time>
      </trkpt>
      <trkpt lat="43.05022699999934" lon="-1.268293000000001">
        <ele>1252.889</ele>
        <time>2022-08-24T09:57:59Z</time>
      </trkpt>
      <trkpt lat="43.050216999999336" lon="-1.268285000000001">
        <ele>1252.662</ele>
        <time>2022-08-24T09:58:00Z</time>
      </trkpt>
      <trkpt lat="43.05020699999933" lon="-1.268278000000001">
        <ele>1253.096</ele>
        <time>2022-08-24T09:58:01Z</time>
      </trkpt>
      <trkpt lat="43.05019699999933" lon="-1.268272000000001">
        <ele>1253.235</ele>
        <time>2022-08-24T09:58:02Z</time>
      </trkpt>
      <trkpt lat="43.05018599999933" lon="-1.2682620000000009">
        <ele>1253.438</ele>
        <time>2022-08-24T09:58:03Z</time>
      </trkpt>
      <trkpt lat="43.05017499999933" lon="-1.268250000000001">
        <ele>1253.670</ele>
        <time>2022-08-24T09:58:04Z</time>
      </trkpt>
      <trkpt lat="43.05016399999933" lon="-1.268238000000001">
        <ele>1253.617</ele>
        <time>2022-08-24T09:58:05Z</time>
      </trkpt>
      <trkpt lat="43.05015299999933" lon="-1.268227000000001">
        <ele>1253.609</ele>
        <time>2022-08-24T09:58:06Z</time>
      </trkpt>
      <trkpt lat="43.050139999999324" lon="-1.268222000000001">
        <ele>1253.844</ele>
        <time>2022-08-24T09:58:07Z</time>
      </trkpt>
      <trkpt lat="43.05012899999932" lon="-1.268215000000001">
        <ele>1253.844</ele>
        <time>2022-08-24T09:58:08Z</time>
      </trkpt>
      <trkpt lat="43.050116999999325" lon="-1.268206000000001">
        <ele>1254.074</ele>
        <time>2022-08-24T09:58:09Z</time>
      </trkpt>
      <trkpt lat="43.05010499999933" lon="-1.268193000000001">
        <ele>1254.030</ele>
        <time>2022-08-24T09:58:10Z</time>
      </trkpt>
      <trkpt lat="43.050094999999324" lon="-1.268183000000001">
        <ele>1254.252</ele>
        <time>2022-08-24T09:58:11Z</time>
      </trkpt>
      <trkpt lat="43.05008399999932" lon="-1.268175000000001">
        <ele>1254.279</ele>
        <time>2022-08-24T09:58:12Z</time>
      </trkpt>
      <trkpt lat="43.050071999999325" lon="-1.2681680000000009">
        <ele>1254.662</ele>
        <time>2022-08-24T09:58:13Z</time>
      </trkpt>
      <trkpt lat="43.05006199999932" lon="-1.268159000000001">
        <ele>1254.616</ele>
        <time>2022-08-24T09:58:14Z</time>
      </trkpt>
      <trkpt lat="43.05005199999932" lon="-1.2681490000000009">
        <ele>1254.875</ele>
        <time>2022-08-24T09:58:15Z</time>
      </trkpt>
      <trkpt lat="43.05004099999932" lon="-1.268140000000001">
        <ele>1255.087</ele>
        <time>2022-08-24T09:58:16Z</time>
      </trkpt>
      <trkpt lat="43.05002999999932" lon="-1.268132000000001">
        <ele>1255.242</ele>
        <time>2022-08-24T09:58:17Z</time>
      </trkpt>
      <trkpt lat="43.05001899999932" lon="-1.268123000000001">
        <ele>1255.426</ele>
        <time>2022-08-24T09:58:18Z</time>
      </trkpt>
      <trkpt lat="43.050007999999316" lon="-1.268115000000001">
        <ele>1255.609</ele>
        <time>2022-08-24T09:58:19Z</time>
      </trkpt>
      <trkpt lat="43.049996999999316" lon="-1.268104000000001">
        <ele>1255.849</ele>
        <time>2022-08-24T09:58:20Z</time>
      </trkpt>
      <trkpt lat="43.049985999999315" lon="-1.268092000000001">
        <ele>1255.869</ele>
        <time>2022-08-24T09:58:21Z</time>
      </trkpt>
      <trkpt lat="43.04997299999931" lon="-1.2680830000000012">
        <ele>1256.029</ele>
        <time>2022-08-24T09:58:22Z</time>
      </trkpt>
      <trkpt lat="43.049960999999314" lon="-1.2680730000000011">
        <ele>1256.255</ele>
        <time>2022-08-24T09:58:23Z</time>
      </trkpt>
      <trkpt lat="43.04994799999931" lon="-1.268063000000001">
        <ele>1256.267</ele>
        <time>2022-08-24T09:58:24Z</time>
      </trkpt>
      <trkpt lat="43.04993599999931" lon="-1.268053000000001">
        <ele>1256.224</ele>
        <time>2022-08-24T09:58:25Z</time>
      </trkpt>
      <trkpt lat="43.04992499999931" lon="-1.268043000000001">
        <ele>1256.247</ele>
        <time>2022-08-24T09:58:26Z</time>
      </trkpt>
      <trkpt lat="43.04991399999931" lon="-1.268031000000001">
        <ele>1256.231</ele>
        <time>2022-08-24T09:58:27Z</time>
      </trkpt>
      <trkpt lat="43.04990399999931" lon="-1.268017000000001">
        <ele>1256.440</ele>
        <time>2022-08-24T09:58:28Z</time>
      </trkpt>
      <trkpt lat="43.04989199999931" lon="-1.2680050000000012">
        <ele>1256.477</ele>
        <time>2022-08-24T09:58:29Z</time>
      </trkpt>
      <trkpt lat="43.04988199999931" lon="-1.2679920000000011">
        <ele>1256.461</ele>
        <time>2022-08-24T09:58:30Z</time>
      </trkpt>
      <trkpt lat="43.049871999999304" lon="-1.2679800000000012">
        <ele>1256.427</ele>
        <time>2022-08-24T09:58:31Z</time>
      </trkpt>
      <trkpt lat="43.0498619999993" lon="-1.2679690000000012">
        <ele>1256.409</ele>
        <time>2022-08-24T09:58:32Z</time>
      </trkpt>
      <trkpt lat="43.0498529999993" lon="-1.2679560000000012">
        <ele>1256.418</ele>
        <time>2022-08-24T09:58:33Z</time>
      </trkpt>
      <trkpt lat="43.0498449999993" lon="-1.2679390000000013">
        <ele>1256.458</ele>
        <time>2022-08-24T09:58:34Z</time>
      </trkpt>
      <trkpt lat="43.0498389999993" lon="-1.2679220000000013">
        <ele>1256.478</ele>
        <time>2022-08-24T09:58:35Z</time>
      </trkpt>
      <trkpt lat="43.049831999999306" lon="-1.2679040000000013">
        <ele>1256.624</ele>
        <time>2022-08-24T09:58:36Z</time>
      </trkpt>
      <trkpt lat="43.04982299999931" lon="-1.2678850000000013">
        <ele>1256.626</ele>
        <time>2022-08-24T09:58:37Z</time>
      </trkpt>
      <trkpt lat="43.04981399999931" lon="-1.2678660000000013">
        <ele>1256.873</ele>
        <time>2022-08-24T09:58:38Z</time>
      </trkpt>
      <trkpt lat="43.04980599999931" lon="-1.2678470000000013">
        <ele>1256.856</ele>
        <time>2022-08-24T09:58:39Z</time>
      </trkpt>
      <trkpt lat="43.04979099999931" lon="-1.2678070000000012">
        <ele>1256.860</ele>
        <time>2022-08-24T09:58:41Z</time>
      </trkpt>
      <trkpt lat="43.04976199999931" lon="-1.2677190000000012">
        <ele>1256.829</ele>
        <time>2022-08-24T09:58:45Z</time>
      </trkpt>
      <trkpt lat="43.04975199999931" lon="-1.2676970000000012">
        <ele>1256.858</ele>
        <time>2022-08-24T09:58:46Z</time>
      </trkpt>
      <trkpt lat="43.04972399999931" lon="-1.2676300000000011">
        <ele>1257.052</ele>
        <time>2022-08-24T09:58:49Z</time>
      </trkpt>
      <trkpt lat="43.04970699999931" lon="-1.2675810000000012">
        <ele>1257.017</ele>
        <time>2022-08-24T09:58:51Z</time>
      </trkpt>
      <trkpt lat="43.049696999999306" lon="-1.2675570000000012">
        <ele>1257.009</ele>
        <time>2022-08-24T09:58:52Z</time>
      </trkpt>
      <trkpt lat="43.049677999999304" lon="-1.267509000000001">
        <ele>1257.236</ele>
        <time>2022-08-24T09:58:54Z</time>
      </trkpt>
      <trkpt lat="43.049626999999305" lon="-1.2674110000000012">
        <ele>1257.496</ele>
        <time>2022-08-24T09:58:58Z</time>
      </trkpt>
      <trkpt lat="43.04956399999931" lon="-1.267312000000001">
        <ele>1257.666</ele>
        <time>2022-08-24T09:59:02Z</time>
      </trkpt>
      <trkpt lat="43.049547999999305" lon="-1.2672870000000012">
        <ele>1257.662</ele>
        <time>2022-08-24T09:59:03Z</time>
      </trkpt>
      <trkpt lat="43.04953299999931" lon="-1.2672630000000011">
        <ele>1257.644</ele>
        <time>2022-08-24T09:59:04Z</time>
      </trkpt>
      <trkpt lat="43.04950099999931" lon="-1.2672160000000012">
        <ele>1257.681</ele>
        <time>2022-08-24T09:59:06Z</time>
      </trkpt>
      <trkpt lat="43.04948799999931" lon="-1.2671930000000011">
        <ele>1257.474</ele>
        <time>2022-08-24T09:59:07Z</time>
      </trkpt>
      <trkpt lat="43.04947599999931" lon="-1.2671680000000012">
        <ele>1257.458</ele>
        <time>2022-08-24T09:59:08Z</time>
      </trkpt>
      <trkpt lat="43.04946099999931" lon="-1.2671440000000012">
        <ele>1257.457</ele>
        <time>2022-08-24T09:59:09Z</time>
      </trkpt>
      <trkpt lat="43.049380999999315" lon="-1.2670190000000012">
        <ele>1257.632</ele>
        <time>2022-08-24T09:59:14Z</time>
      </trkpt>
      <trkpt lat="43.049366999999314" lon="-1.2669940000000013">
        <ele>1257.692</ele>
        <time>2022-08-24T09:59:15Z</time>
      </trkpt>
      <trkpt lat="43.04935199999932" lon="-1.2669690000000013">
        <ele>1257.611</ele>
        <time>2022-08-24T09:59:16Z</time>
      </trkpt>
      <trkpt lat="43.04933699999932" lon="-1.2669460000000012">
        <ele>1257.609</ele>
        <time>2022-08-24T09:59:17Z</time>
      </trkpt>
      <trkpt lat="43.04932099999932" lon="-1.2669230000000011">
        <ele>1257.684</ele>
        <time>2022-08-24T09:59:18Z</time>
      </trkpt>
      <trkpt lat="43.049304999999315" lon="-1.266900000000001">
        <ele>1257.644</ele>
        <time>2022-08-24T09:59:19Z</time>
      </trkpt>
      <trkpt lat="43.049287999999315" lon="-1.266879000000001">
        <ele>1257.634</ele>
        <time>2022-08-24T09:59:20Z</time>
      </trkpt>
      <trkpt lat="43.04925599999932" lon="-1.266836000000001">
        <ele>1257.660</ele>
        <time>2022-08-24T09:59:22Z</time>
      </trkpt>
      <trkpt lat="43.04924099999932" lon="-1.266814000000001">
        <ele>1257.842</ele>
        <time>2022-08-24T09:59:23Z</time>
      </trkpt>
      <trkpt lat="43.04921199999932" lon="-1.266774000000001">
        <ele>1257.889</ele>
        <time>2022-08-24T09:59:25Z</time>
      </trkpt>
      <trkpt lat="43.049196999999324" lon="-1.266753000000001">
        <ele>1257.832</ele>
        <time>2022-08-24T09:59:26Z</time>
      </trkpt>
      <trkpt lat="43.04916099999932" lon="-1.266707000000001">
        <ele>1257.876</ele>
        <time>2022-08-24T09:59:28Z</time>
      </trkpt>
      <trkpt lat="43.04897899999932" lon="-1.2664810000000009">
        <ele>1258.045</ele>
        <time>2022-08-24T09:59:38Z</time>
      </trkpt>
      <trkpt lat="43.04894099999932" lon="-1.266434000000001">
        <ele>1258.036</ele>
        <time>2022-08-24T09:59:40Z</time>
      </trkpt>
      <trkpt lat="43.04892299999932" lon="-1.266412000000001">
        <ele>1258.417</ele>
        <time>2022-08-24T09:59:41Z</time>
      </trkpt>
      <trkpt lat="43.04890699999932" lon="-1.266392000000001">
        <ele>1258.418</ele>
        <time>2022-08-24T09:59:42Z</time>
      </trkpt>
      <trkpt lat="43.04888999999932" lon="-1.266371000000001">
        <ele>1258.409</ele>
        <time>2022-08-24T09:59:43Z</time>
      </trkpt>
      <trkpt lat="43.04887299999932" lon="-1.266353000000001">
        <ele>1258.474</ele>
        <time>2022-08-24T09:59:44Z</time>
      </trkpt>
      <trkpt lat="43.04885799999932" lon="-1.2663350000000009">
        <ele>1258.474</ele>
        <time>2022-08-24T09:59:45Z</time>
      </trkpt>
      <trkpt lat="43.04884599999932" lon="-1.266318000000001">
        <ele>1258.464</ele>
        <time>2022-08-24T09:59:46Z</time>
      </trkpt>
      <trkpt lat="43.04883299999932" lon="-1.266301000000001">
        <ele>1258.480</ele>
        <time>2022-08-24T09:59:47Z</time>
      </trkpt>
      <trkpt lat="43.04882099999932" lon="-1.266285000000001">
        <ele>1258.422</ele>
        <time>2022-08-24T09:59:48Z</time>
      </trkpt>
      <trkpt lat="43.04880999999932" lon="-1.266271000000001">
        <ele>1258.449</ele>
        <time>2022-08-24T09:59:49Z</time>
      </trkpt>
      <trkpt lat="43.04880099999932" lon="-1.266260000000001">
        <ele>1258.642</ele>
        <time>2022-08-24T09:59:50Z</time>
      </trkpt>
      <trkpt lat="43.04879099999932" lon="-1.266246000000001">
        <ele>1258.646</ele>
        <time>2022-08-24T09:59:51Z</time>
      </trkpt>
      <trkpt lat="43.04877999999932" lon="-1.266231000000001">
        <ele>1258.685</ele>
        <time>2022-08-24T09:59:52Z</time>
      </trkpt>
      <trkpt lat="43.04876499999932" lon="-1.266211000000001">
        <ele>1258.634</ele>
        <time>2022-08-24T09:59:53Z</time>
      </trkpt>
      <trkpt lat="43.04871899999932" lon="-1.266142000000001">
        <ele>1258.855</ele>
        <time>2022-08-24T09:59:56Z</time>
      </trkpt>
      <trkpt lat="43.048605999999324" lon="-1.265989000000001">
        <ele>1259.010</ele>
        <time>2022-08-24T10:00:02Z</time>
      </trkpt>
      <trkpt lat="43.04858799999933" lon="-1.2659680000000009">
        <ele>1259.209</ele>
        <time>2022-08-24T10:00:03Z</time>
      </trkpt>
      <trkpt lat="43.04857599999933" lon="-1.265943000000001">
        <ele>1259.254</ele>
        <time>2022-08-24T10:00:04Z</time>
      </trkpt>
      <trkpt lat="43.04856299999933" lon="-1.2659200000000008">
        <ele>1259.284</ele>
        <time>2022-08-24T10:00:05Z</time>
      </trkpt>
      <trkpt lat="43.04854799999933" lon="-1.2658990000000008">
        <ele>1259.234</ele>
        <time>2022-08-24T10:00:06Z</time>
      </trkpt>
      <trkpt lat="43.04851099999933" lon="-1.2658560000000008">
        <ele>1259.430</ele>
        <time>2022-08-24T10:00:08Z</time>
      </trkpt>
      <trkpt lat="43.04848799999933" lon="-1.2658400000000007">
        <ele>1259.692</ele>
        <time>2022-08-24T10:00:09Z</time>
      </trkpt>
      <trkpt lat="43.048466999999334" lon="-1.2658230000000008">
        <ele>1259.649</ele>
        <time>2022-08-24T10:00:10Z</time>
      </trkpt>
      <trkpt lat="43.04844599999934" lon="-1.2658080000000007">
        <ele>1259.862</ele>
        <time>2022-08-24T10:00:11Z</time>
      </trkpt>
      <trkpt lat="43.04842499999934" lon="-1.2657910000000008">
        <ele>1259.896</ele>
        <time>2022-08-24T10:00:12Z</time>
      </trkpt>
      <trkpt lat="43.048341999999344" lon="-1.2657200000000008">
        <ele>1260.475</ele>
        <time>2022-08-24T10:00:16Z</time>
      </trkpt>
      <trkpt lat="43.04831999999934" lon="-1.2657010000000009">
        <ele>1260.415</ele>
        <time>2022-08-24T10:00:17Z</time>
      </trkpt>
      <trkpt lat="43.048251999999344" lon="-1.2656400000000008">
        <ele>1260.465</ele>
        <time>2022-08-24T10:00:20Z</time>
      </trkpt>
      <trkpt lat="43.04820499999934" lon="-1.2656020000000008">
        <ele>1260.411</ele>
        <time>2022-08-24T10:00:22Z</time>
      </trkpt>
      <trkpt lat="43.04818199999934" lon="-1.2655840000000007">
        <ele>1260.609</ele>
        <time>2022-08-24T10:00:23Z</time>
      </trkpt>
      <trkpt lat="43.04815999999934" lon="-1.2655680000000007">
        <ele>1260.662</ele>
        <time>2022-08-24T10:00:24Z</time>
      </trkpt>
      <trkpt lat="43.04813799999934" lon="-1.2655530000000006">
        <ele>1260.852</ele>
        <time>2022-08-24T10:00:25Z</time>
      </trkpt>
      <trkpt lat="43.04811799999934" lon="-1.2655390000000006">
        <ele>1260.822</ele>
        <time>2022-08-24T10:00:26Z</time>
      </trkpt>
      <trkpt lat="43.048096999999345" lon="-1.2655280000000007">
        <ele>1261.068</ele>
        <time>2022-08-24T10:00:27Z</time>
      </trkpt>
      <trkpt lat="43.04807899999935" lon="-1.2655140000000007">
        <ele>1261.040</ele>
        <time>2022-08-24T10:00:28Z</time>
      </trkpt>
      <trkpt lat="43.04806199999935" lon="-1.2655010000000007">
        <ele>1261.077</ele>
        <time>2022-08-24T10:00:29Z</time>
      </trkpt>
      <trkpt lat="43.04804799999935" lon="-1.2654880000000006">
        <ele>1261.020</ele>
        <time>2022-08-24T10:00:30Z</time>
      </trkpt>
      <trkpt lat="43.048034999999345" lon="-1.2654740000000007">
        <ele>1261.294</ele>
        <time>2022-08-24T10:00:31Z</time>
      </trkpt>
      <trkpt lat="43.04802299999935" lon="-1.2654620000000008">
        <ele>1261.473</ele>
        <time>2022-08-24T10:00:32Z</time>
      </trkpt>
      <trkpt lat="43.04800899999935" lon="-1.2654550000000007">
        <ele>1261.414</ele>
        <time>2022-08-24T10:00:33Z</time>
      </trkpt>
      <trkpt lat="43.047992999999344" lon="-1.2654470000000007">
        <ele>1261.454</ele>
        <time>2022-08-24T10:00:34Z</time>
      </trkpt>
      <trkpt lat="43.047978999999344" lon="-1.2654390000000006">
        <ele>1261.209</ele>
        <time>2022-08-24T10:00:35Z</time>
      </trkpt>
      <trkpt lat="43.047966999999346" lon="-1.2654310000000006">
        <ele>1261.209</ele>
        <time>2022-08-24T10:00:36Z</time>
      </trkpt>
      <trkpt lat="43.04795699999934" lon="-1.2654230000000006">
        <ele>1261.222</ele>
        <time>2022-08-24T10:00:37Z</time>
      </trkpt>
      <trkpt lat="43.047944999999345" lon="-1.2654140000000007">
        <ele>1261.282</ele>
        <time>2022-08-24T10:00:38Z</time>
      </trkpt>
      <trkpt lat="43.04793499999934" lon="-1.2654100000000008">
        <ele>1261.232</ele>
        <time>2022-08-24T10:00:39Z</time>
      </trkpt>
      <trkpt lat="43.04792499999934" lon="-1.265406000000001">
        <ele>1261.068</ele>
        <time>2022-08-24T10:00:40Z</time>
      </trkpt>
      <trkpt lat="43.04791799999934" lon="-1.2654010000000009">
        <ele>1261.030</ele>
        <time>2022-08-24T10:00:41Z</time>
      </trkpt>
      <trkpt lat="43.04790899999934" lon="-1.265398000000001">
        <ele>1261.057</ele>
        <time>2022-08-24T10:00:42Z</time>
      </trkpt>
      <trkpt lat="43.04790099999934" lon="-1.265389000000001">
        <ele>1261.060</ele>
        <time>2022-08-24T10:00:43Z</time>
      </trkpt>
      <trkpt lat="43.04789599999934" lon="-1.265378000000001">
        <ele>1261.084</ele>
        <time>2022-08-24T10:00:44Z</time>
      </trkpt>
      <trkpt lat="43.04788699999934" lon="-1.265370000000001">
        <ele>1261.093</ele>
        <time>2022-08-24T10:00:45Z</time>
      </trkpt>
      <trkpt lat="43.047874999999344" lon="-1.265362000000001">
        <ele>1261.075</ele>
        <time>2022-08-24T10:00:46Z</time>
      </trkpt>
      <trkpt lat="43.047848999999346" lon="-1.265346000000001">
        <ele>1261.028</ele>
        <time>2022-08-24T10:00:48Z</time>
      </trkpt>
      <trkpt lat="43.04782799999935" lon="-1.265333000000001">
        <ele>1261.220</ele>
        <time>2022-08-24T10:00:49Z</time>
      </trkpt>
      <trkpt lat="43.04775799999935" lon="-1.265293000000001">
        <ele>1261.409</ele>
        <time>2022-08-24T10:00:52Z</time>
      </trkpt>
      <trkpt lat="43.047612999999345" lon="-1.2651910000000008">
        <ele>1261.628</ele>
        <time>2022-08-24T10:00:58Z</time>
      </trkpt>
      <trkpt lat="43.047589999999346" lon="-1.2651760000000007">
        <ele>1261.858</ele>
        <time>2022-08-24T10:00:59Z</time>
      </trkpt>
      <trkpt lat="43.047525999999344" lon="-1.2651290000000008">
        <ele>1261.878</ele>
        <time>2022-08-24T10:01:02Z</time>
      </trkpt>
      <trkpt lat="43.047502999999345" lon="-1.2651160000000008">
        <ele>1262.074</ele>
        <time>2022-08-24T10:01:03Z</time>
      </trkpt>
      <trkpt lat="43.04747999999935" lon="-1.2651010000000007">
        <ele>1262.076</ele>
        <time>2022-08-24T10:01:04Z</time>
      </trkpt>
      <trkpt lat="43.04745899999935" lon="-1.2650880000000007">
        <ele>1262.283</ele>
        <time>2022-08-24T10:01:05Z</time>
      </trkpt>
      <trkpt lat="43.04743899999935" lon="-1.2650770000000007">
        <ele>1262.296</ele>
        <time>2022-08-24T10:01:06Z</time>
      </trkpt>
      <trkpt lat="43.04741999999935" lon="-1.2650650000000008">
        <ele>1262.280</ele>
        <time>2022-08-24T10:01:07Z</time>
      </trkpt>
      <trkpt lat="43.04740099999935" lon="-1.2650520000000007">
        <ele>1262.429</ele>
        <time>2022-08-24T10:01:08Z</time>
      </trkpt>
      <trkpt lat="43.04733499999935" lon="-1.2650150000000007">
        <ele>1262.866</ele>
        <time>2022-08-24T10:01:11Z</time>
      </trkpt>
      <trkpt lat="43.04729299999935" lon="-1.2649960000000007">
        <ele>1263.029</ele>
        <time>2022-08-24T10:01:13Z</time>
      </trkpt>
      <trkpt lat="43.04726699999935" lon="-1.2649810000000006">
        <ele>1263.221</ele>
        <time>2022-08-24T10:01:14Z</time>
      </trkpt>
      <trkpt lat="43.04721399999935" lon="-1.2649500000000007">
        <ele>1263.209</ele>
        <time>2022-08-24T10:01:16Z</time>
      </trkpt>
      <trkpt lat="43.04719199999935" lon="-1.2649420000000007">
        <ele>1263.687</ele>
        <time>2022-08-24T10:01:17Z</time>
      </trkpt>
      <trkpt lat="43.04717099999935" lon="-1.2649340000000007">
        <ele>1263.677</ele>
        <time>2022-08-24T10:01:18Z</time>
      </trkpt>
      <trkpt lat="43.047152999999355" lon="-1.2649220000000008">
        <ele>1264.067</ele>
        <time>2022-08-24T10:01:19Z</time>
      </trkpt>
      <trkpt lat="43.04713499999936" lon="-1.2649080000000008">
        <ele>1264.033</ele>
        <time>2022-08-24T10:01:20Z</time>
      </trkpt>
      <trkpt lat="43.047110999999354" lon="-1.2648970000000008">
        <ele>1264.015</ele>
        <time>2022-08-24T10:01:21Z</time>
      </trkpt>
      <trkpt lat="43.04708999999936" lon="-1.264885000000001">
        <ele>1264.012</ele>
        <time>2022-08-24T10:01:22Z</time>
      </trkpt>
      <trkpt lat="43.047073999999355" lon="-1.264876000000001">
        <ele>1264.295</ele>
        <time>2022-08-24T10:01:23Z</time>
      </trkpt>
      <trkpt lat="43.047053999999356" lon="-1.264863000000001">
        <ele>1264.289</ele>
        <time>2022-08-24T10:01:24Z</time>
      </trkpt>
      <trkpt lat="43.04703699999936" lon="-1.2648480000000009">
        <ele>1264.428</ele>
        <time>2022-08-24T10:01:25Z</time>
      </trkpt>
      <trkpt lat="43.047022999999356" lon="-1.2648350000000008">
        <ele>1264.471</ele>
        <time>2022-08-24T10:01:26Z</time>
      </trkpt>
      <trkpt lat="43.04700799999936" lon="-1.2648240000000008">
        <ele>1264.641</ele>
        <time>2022-08-24T10:01:27Z</time>
      </trkpt>
      <trkpt lat="43.04698899999936" lon="-1.2648140000000008">
        <ele>1264.415</ele>
        <time>2022-08-24T10:01:28Z</time>
      </trkpt>
      <trkpt lat="43.046975999999354" lon="-1.2648040000000007">
        <ele>1264.609</ele>
        <time>2022-08-24T10:01:29Z</time>
      </trkpt>
      <trkpt lat="43.04695799999936" lon="-1.2647880000000007">
        <ele>1264.838</ele>
        <time>2022-08-24T10:01:30Z</time>
      </trkpt>
      <trkpt lat="43.04694399999936" lon="-1.2647820000000007">
        <ele>1264.878</ele>
        <time>2022-08-24T10:01:31Z</time>
      </trkpt>
      <trkpt lat="43.04692899999936" lon="-1.2647710000000008">
        <ele>1265.068</ele>
        <time>2022-08-24T10:01:32Z</time>
      </trkpt>
      <trkpt lat="43.04691499999936" lon="-1.2647660000000007">
        <ele>1265.224</ele>
        <time>2022-08-24T10:01:33Z</time>
      </trkpt>
      <trkpt lat="43.04691199999936" lon="-1.2647610000000007">
        <ele>1265.236</ele>
        <time>2022-08-24T10:01:34Z</time>
      </trkpt>
      <trkpt lat="43.04689499999936" lon="-1.2647380000000006">
        <ele>1264.893</ele>
        <time>2022-08-24T10:03:46Z</time>
      </trkpt>
      <trkpt lat="43.04689499999936" lon="-1.2647380000000006">
        <ele>1264.846</ele>
        <time>2022-08-24T10:03:47Z</time>
      </trkpt>
      <trkpt lat="43.04689499999936" lon="-1.2647380000000006">
        <ele>1264.840</ele>
        <time>2022-08-24T10:03:48Z</time>
      </trkpt>
      <trkpt lat="43.04689499999936" lon="-1.2647380000000006">
        <ele>1264.849</ele>
        <time>2022-08-24T10:03:49Z</time>
      </trkpt>
      <trkpt lat="43.04689299999936" lon="-1.2647390000000005">
        <ele>1264.866</ele>
        <time>2022-08-24T10:03:50Z</time>
      </trkpt>
      <trkpt lat="43.046876999999355" lon="-1.2647410000000006">
        <ele>1264.629</ele>
        <time>2022-08-24T10:03:51Z</time>
      </trkpt>
      <trkpt lat="43.046842999999356" lon="-1.2647540000000006">
        <ele>1264.621</ele>
        <time>2022-08-24T10:03:53Z</time>
      </trkpt>
      <trkpt lat="43.04683599999936" lon="-1.2647600000000006">
        <ele>1264.409</ele>
        <time>2022-08-24T10:03:54Z</time>
      </trkpt>
      <trkpt lat="43.04683299999936" lon="-1.2647610000000005">
        <ele>1264.287</ele>
        <time>2022-08-24T10:04:00Z</time>
      </trkpt>
      <trkpt lat="43.04681699999936" lon="-1.2647600000000006">
        <ele>1264.217</ele>
        <time>2022-08-24T10:04:01Z</time>
      </trkpt>
      <trkpt lat="43.04666499999936" lon="-1.2647690000000005">
        <ele>1264.657</ele>
        <time>2022-08-24T10:04:08Z</time>
      </trkpt>
      <trkpt lat="43.04660899999936" lon="-1.2647680000000006">
        <ele>1264.613</ele>
        <time>2022-08-24T10:04:10Z</time>
      </trkpt>
      <trkpt lat="43.04652599999936" lon="-1.2647600000000006">
        <ele>1264.695</ele>
        <time>2022-08-24T10:04:14Z</time>
      </trkpt>
      <trkpt lat="43.04645399999936" lon="-1.2647600000000006">
        <ele>1264.452</ele>
        <time>2022-08-24T10:04:17Z</time>
      </trkpt>
      <trkpt lat="43.04643099999936" lon="-1.2647570000000006">
        <ele>1264.425</ele>
        <time>2022-08-24T10:04:18Z</time>
      </trkpt>
      <trkpt lat="43.04635399999936" lon="-1.2647580000000005">
        <ele>1264.229</ele>
        <time>2022-08-24T10:04:21Z</time>
      </trkpt>
      <trkpt lat="43.04632799999936" lon="-1.2647600000000006">
        <ele>1264.228</ele>
        <time>2022-08-24T10:04:22Z</time>
      </trkpt>
      <trkpt lat="43.04630099999936" lon="-1.2647620000000006">
        <ele>1264.222</ele>
        <time>2022-08-24T10:04:23Z</time>
      </trkpt>
      <trkpt lat="43.04627499999936" lon="-1.2647630000000005">
        <ele>1264.262</ele>
        <time>2022-08-24T10:04:24Z</time>
      </trkpt>
      <trkpt lat="43.04624799999936" lon="-1.2647610000000005">
        <ele>1264.208</ele>
        <time>2022-08-24T10:04:25Z</time>
      </trkpt>
      <trkpt lat="43.046175999999356" lon="-1.2647680000000006">
        <ele>1264.609</ele>
        <time>2022-08-24T10:04:28Z</time>
      </trkpt>
      <trkpt lat="43.046153999999355" lon="-1.2647710000000005">
        <ele>1265.013</ele>
        <time>2022-08-24T10:04:29Z</time>
      </trkpt>
      <trkpt lat="43.04613299999936" lon="-1.2647710000000005">
        <ele>1265.043</ele>
        <time>2022-08-24T10:04:30Z</time>
      </trkpt>
      <trkpt lat="43.04611299999936" lon="-1.2647730000000006">
        <ele>1265.243</ele>
        <time>2022-08-24T10:04:31Z</time>
      </trkpt>
      <trkpt lat="43.04609399999936" lon="-1.2647730000000006">
        <ele>1265.229</ele>
        <time>2022-08-24T10:04:32Z</time>
      </trkpt>
      <trkpt lat="43.04607699999936" lon="-1.2647710000000005">
        <ele>1265.241</ele>
        <time>2022-08-24T10:04:33Z</time>
      </trkpt>
      <trkpt lat="43.046057999999356" lon="-1.2647720000000005">
        <ele>1265.248</ele>
        <time>2022-08-24T10:04:34Z</time>
      </trkpt>
      <trkpt lat="43.045992999999356" lon="-1.2647850000000005">
        <ele>1265.241</ele>
        <time>2022-08-24T10:04:37Z</time>
      </trkpt>
      <trkpt lat="43.04597199999936" lon="-1.2647840000000006">
        <ele>1265.245</ele>
        <time>2022-08-24T10:04:38Z</time>
      </trkpt>
      <trkpt lat="43.04595199999936" lon="-1.2647800000000007">
        <ele>1265.274</ele>
        <time>2022-08-24T10:04:39Z</time>
      </trkpt>
      <trkpt lat="43.04593699999936" lon="-1.2647810000000006">
        <ele>1265.046</ele>
        <time>2022-08-24T10:04:40Z</time>
      </trkpt>
      <trkpt lat="43.045921999999365" lon="-1.2647850000000005">
        <ele>1265.088</ele>
        <time>2022-08-24T10:04:41Z</time>
      </trkpt>
      <trkpt lat="43.04590599999936" lon="-1.2647850000000005">
        <ele>1265.016</ele>
        <time>2022-08-24T10:04:42Z</time>
      </trkpt>
      <trkpt lat="43.04588999999936" lon="-1.2647890000000004">
        <ele>1265.209</ele>
        <time>2022-08-24T10:04:43Z</time>
      </trkpt>
      <trkpt lat="43.04587499999936" lon="-1.2647950000000003">
        <ele>1265.245</ele>
        <time>2022-08-24T10:04:44Z</time>
      </trkpt>
      <trkpt lat="43.04585899999936" lon="-1.2647990000000002">
        <ele>1265.425</ele>
        <time>2022-08-24T10:04:45Z</time>
      </trkpt>
      <trkpt lat="43.04576999999936" lon="-1.2648180000000002">
        <ele>1266.055</ele>
        <time>2022-08-24T10:04:50Z</time>
      </trkpt>
      <trkpt lat="43.045756999999355" lon="-1.2648210000000002">
        <ele>1266.021</ele>
        <time>2022-08-24T10:04:51Z</time>
      </trkpt>
      <trkpt lat="43.04574199999936" lon="-1.2648240000000002">
        <ele>1266.253</ele>
        <time>2022-08-24T10:04:52Z</time>
      </trkpt>
      <trkpt lat="43.04572799999936" lon="-1.2648290000000002">
        <ele>1266.240</ele>
        <time>2022-08-24T10:04:53Z</time>
      </trkpt>
      <trkpt lat="43.04571399999936" lon="-1.2648310000000003">
        <ele>1266.893</ele>
        <time>2022-08-24T10:04:54Z</time>
      </trkpt>
      <trkpt lat="43.045700999999355" lon="-1.2648360000000003">
        <ele>1267.267</ele>
        <time>2022-08-24T10:04:55Z</time>
      </trkpt>
      <trkpt lat="43.04563199999935" lon="-1.2648510000000004">
        <ele>1267.846</ele>
        <time>2022-08-24T10:04:59Z</time>
      </trkpt>
      <trkpt lat="43.04559599999935" lon="-1.2648610000000005">
        <ele>1268.244</ele>
        <time>2022-08-24T10:05:01Z</time>
      </trkpt>
      <trkpt lat="43.04557699999935" lon="-1.2648620000000004">
        <ele>1268.205</ele>
        <time>2022-08-24T10:05:02Z</time>
      </trkpt>
      <trkpt lat="43.04555999999935" lon="-1.2648620000000004">
        <ele>1268.415</ele>
        <time>2022-08-24T10:05:03Z</time>
      </trkpt>
      <trkpt lat="43.04554599999935" lon="-1.2648610000000005">
        <ele>1268.409</ele>
        <time>2022-08-24T10:05:04Z</time>
      </trkpt>
      <trkpt lat="43.04553199999935" lon="-1.2648630000000005">
        <ele>1268.475</ele>
        <time>2022-08-24T10:05:05Z</time>
      </trkpt>
      <trkpt lat="43.04551699999935" lon="-1.2648660000000005">
        <ele>1268.645</ele>
        <time>2022-08-24T10:05:06Z</time>
      </trkpt>
      <trkpt lat="43.04550299999935" lon="-1.2648680000000005">
        <ele>1268.655</ele>
        <time>2022-08-24T10:05:07Z</time>
      </trkpt>
      <trkpt lat="43.04548699999935" lon="-1.2648710000000005">
        <ele>1268.671</ele>
        <time>2022-08-24T10:05:08Z</time>
      </trkpt>
      <trkpt lat="43.045473999999345" lon="-1.2648690000000005">
        <ele>1268.813</ele>
        <time>2022-08-24T10:05:09Z</time>
      </trkpt>
      <trkpt lat="43.045456999999345" lon="-1.2648650000000006">
        <ele>1269.040</ele>
        <time>2022-08-24T10:05:10Z</time>
      </trkpt>
      <trkpt lat="43.045436999999346" lon="-1.2648620000000006">
        <ele>1269.283</ele>
        <time>2022-08-24T10:05:11Z</time>
      </trkpt>
      <trkpt lat="43.045420999999344" lon="-1.2648610000000007">
        <ele>1269.427</ele>
        <time>2022-08-24T10:05:12Z</time>
      </trkpt>
      <trkpt lat="43.045406999999344" lon="-1.2648620000000006">
        <ele>1269.646</ele>
        <time>2022-08-24T10:05:13Z</time>
      </trkpt>
      <trkpt lat="43.045394999999345" lon="-1.2648630000000005">
        <ele>1269.886</ele>
        <time>2022-08-24T10:05:14Z</time>
      </trkpt>
      <trkpt lat="43.04538199999934" lon="-1.2648660000000005">
        <ele>1269.860</ele>
        <time>2022-08-24T10:05:15Z</time>
      </trkpt>
      <trkpt lat="43.045369999999345" lon="-1.2648710000000005">
        <ele>1270.026</ele>
        <time>2022-08-24T10:05:16Z</time>
      </trkpt>
      <trkpt lat="43.04535499999935" lon="-1.2648760000000006">
        <ele>1270.009</ele>
        <time>2022-08-24T10:05:17Z</time>
      </trkpt>
      <trkpt lat="43.045343999999346" lon="-1.2648800000000004">
        <ele>1270.249</ele>
        <time>2022-08-24T10:05:18Z</time>
      </trkpt>
      <trkpt lat="43.04533199999935" lon="-1.2648880000000005">
        <ele>1270.439</ele>
        <time>2022-08-24T10:05:19Z</time>
      </trkpt>
      <trkpt lat="43.045321999999345" lon="-1.2648970000000004">
        <ele>1270.629</ele>
        <time>2022-08-24T10:05:20Z</time>
      </trkpt>
      <trkpt lat="43.04531299999935" lon="-1.2649070000000004">
        <ele>1271.085</ele>
        <time>2022-08-24T10:05:21Z</time>
      </trkpt>
      <trkpt lat="43.04530699999935" lon="-1.2649170000000005">
        <ele>1271.077</ele>
        <time>2022-08-24T10:05:22Z</time>
      </trkpt>
      <trkpt lat="43.04529999999935" lon="-1.2649270000000006">
        <ele>1271.244</ele>
        <time>2022-08-24T10:05:23Z</time>
      </trkpt>
      <trkpt lat="43.045292999999354" lon="-1.2649380000000006">
        <ele>1271.447</ele>
        <time>2022-08-24T10:05:24Z</time>
      </trkpt>
      <trkpt lat="43.04528599999936" lon="-1.2649500000000005">
        <ele>1271.651</ele>
        <time>2022-08-24T10:05:25Z</time>
      </trkpt>
      <trkpt lat="43.045275999999355" lon="-1.2649600000000005">
        <ele>1271.870</ele>
        <time>2022-08-24T10:05:26Z</time>
      </trkpt>
      <trkpt lat="43.045266999999356" lon="-1.2649720000000004">
        <ele>1271.883</ele>
        <time>2022-08-24T10:05:27Z</time>
      </trkpt>
      <trkpt lat="43.045255999999355" lon="-1.2649830000000004">
        <ele>1272.025</ele>
        <time>2022-08-24T10:05:28Z</time>
      </trkpt>
      <trkpt lat="43.045241999999355" lon="-1.2649950000000003">
        <ele>1272.017</ele>
        <time>2022-08-24T10:05:29Z</time>
      </trkpt>
      <trkpt lat="43.04523299999936" lon="-1.2650070000000002">
        <ele>1272.209</ele>
        <time>2022-08-24T10:05:30Z</time>
      </trkpt>
      <trkpt lat="43.045221999999356" lon="-1.2650200000000003">
        <ele>1272.429</ele>
        <time>2022-08-24T10:05:31Z</time>
      </trkpt>
      <trkpt lat="43.045213999999355" lon="-1.2650350000000004">
        <ele>1272.479</ele>
        <time>2022-08-24T10:05:32Z</time>
      </trkpt>
      <trkpt lat="43.045204999999356" lon="-1.2650490000000003">
        <ele>1272.859</ele>
        <time>2022-08-24T10:05:33Z</time>
      </trkpt>
      <trkpt lat="43.04519599999936" lon="-1.2650620000000004">
        <ele>1273.075</ele>
        <time>2022-08-24T10:05:34Z</time>
      </trkpt>
      <trkpt lat="43.04518699999936" lon="-1.2650770000000005">
        <ele>1273.297</ele>
        <time>2022-08-24T10:05:35Z</time>
      </trkpt>
      <trkpt lat="43.04517799999936" lon="-1.2650910000000004">
        <ele>1273.254</ele>
        <time>2022-08-24T10:05:36Z</time>
      </trkpt>
      <trkpt lat="43.04516799999936" lon="-1.2651050000000004">
        <ele>1273.477</ele>
        <time>2022-08-24T10:05:37Z</time>
      </trkpt>
      <trkpt lat="43.04515899999936" lon="-1.2651170000000003">
        <ele>1273.471</ele>
        <time>2022-08-24T10:05:38Z</time>
      </trkpt>
      <trkpt lat="43.04514999999936" lon="-1.2651300000000003">
        <ele>1273.470</ele>
        <time>2022-08-24T10:05:39Z</time>
      </trkpt>
      <trkpt lat="43.04514199999936" lon="-1.2651430000000004">
        <ele>1273.863</ele>
        <time>2022-08-24T10:05:40Z</time>
      </trkpt>
      <trkpt lat="43.045131999999356" lon="-1.2651560000000004">
        <ele>1273.844</ele>
        <time>2022-08-24T10:05:41Z</time>
      </trkpt>
      <trkpt lat="43.04512599999936" lon="-1.2651720000000004">
        <ele>1274.018</ele>
        <time>2022-08-24T10:05:42Z</time>
      </trkpt>
      <trkpt lat="43.045115999999354" lon="-1.2651830000000004">
        <ele>1274.009</ele>
        <time>2022-08-24T10:05:43Z</time>
      </trkpt>
      <trkpt lat="43.045106999999355" lon="-1.2651930000000005">
        <ele>1274.297</ele>
        <time>2022-08-24T10:05:44Z</time>
      </trkpt>
      <trkpt lat="43.045097999999356" lon="-1.2652040000000004">
        <ele>1274.657</ele>
        <time>2022-08-24T10:05:45Z</time>
      </trkpt>
      <trkpt lat="43.04508799999935" lon="-1.2652150000000004">
        <ele>1274.887</ele>
        <time>2022-08-24T10:05:46Z</time>
      </trkpt>
      <trkpt lat="43.04507699999935" lon="-1.2652300000000005">
        <ele>1274.853</ele>
        <time>2022-08-24T10:05:47Z</time>
      </trkpt>
      <trkpt lat="43.04506599999935" lon="-1.2652420000000004">
        <ele>1275.045</ele>
        <time>2022-08-24T10:05:48Z</time>
      </trkpt>
      <trkpt lat="43.04505599999935" lon="-1.2652540000000003">
        <ele>1275.052</ele>
        <time>2022-08-24T10:05:49Z</time>
      </trkpt>
      <trkpt lat="43.045042999999346" lon="-1.2652650000000003">
        <ele>1275.055</ele>
        <time>2022-08-24T10:05:50Z</time>
      </trkpt>
      <trkpt lat="43.045031999999345" lon="-1.2652750000000004">
        <ele>1275.039</ele>
        <time>2022-08-24T10:05:51Z</time>
      </trkpt>
      <trkpt lat="43.04502299999935" lon="-1.2652840000000003">
        <ele>1275.298</ele>
        <time>2022-08-24T10:05:52Z</time>
      </trkpt>
      <trkpt lat="43.04501099999935" lon="-1.2652940000000004">
        <ele>1275.456</ele>
        <time>2022-08-24T10:05:53Z</time>
      </trkpt>
      <trkpt lat="43.044997999999346" lon="-1.2653070000000004">
        <ele>1275.659</ele>
        <time>2022-08-24T10:05:54Z</time>
      </trkpt>
      <trkpt lat="43.044986999999345" lon="-1.2653210000000004">
        <ele>1275.614</ele>
        <time>2022-08-24T10:05:55Z</time>
      </trkpt>
      <trkpt lat="43.04497499999935" lon="-1.2653330000000003">
        <ele>1275.809</ele>
        <time>2022-08-24T10:05:56Z</time>
      </trkpt>
      <trkpt lat="43.044964999999344" lon="-1.2653480000000004">
        <ele>1275.896</ele>
        <time>2022-08-24T10:05:57Z</time>
      </trkpt>
      <trkpt lat="43.04495399999934" lon="-1.2653640000000004">
        <ele>1276.086</ele>
        <time>2022-08-24T10:05:58Z</time>
      </trkpt>
      <trkpt lat="43.044941999999345" lon="-1.2653820000000005">
        <ele>1276.086</ele>
        <time>2022-08-24T10:05:59Z</time>
      </trkpt>
      <trkpt lat="43.044930999999345" lon="-1.2653960000000004">
        <ele>1276.282</ele>
        <time>2022-08-24T10:06:00Z</time>
      </trkpt>
      <trkpt lat="43.04491799999934" lon="-1.2654100000000004">
        <ele>1276.234</ele>
        <time>2022-08-24T10:06:01Z</time>
      </trkpt>
      <trkpt lat="43.04490499999934" lon="-1.2654300000000003">
        <ele>1276.421</ele>
        <time>2022-08-24T10:06:02Z</time>
      </trkpt>
      <trkpt lat="43.04489399999934" lon="-1.2654480000000004">
        <ele>1276.444</ele>
        <time>2022-08-24T10:06:03Z</time>
      </trkpt>
      <trkpt lat="43.044880999999336" lon="-1.2654630000000004">
        <ele>1276.488</ele>
        <time>2022-08-24T10:06:04Z</time>
      </trkpt>
      <trkpt lat="43.044869999999335" lon="-1.2654770000000004">
        <ele>1276.657</ele>
        <time>2022-08-24T10:06:05Z</time>
      </trkpt>
      <trkpt lat="43.04485999999933" lon="-1.2654910000000004">
        <ele>1276.892</ele>
        <time>2022-08-24T10:06:06Z</time>
      </trkpt>
      <trkpt lat="43.04485099999933" lon="-1.2655050000000003">
        <ele>1276.873</ele>
        <time>2022-08-24T10:06:07Z</time>
      </trkpt>
      <trkpt lat="43.04484299999933" lon="-1.2655180000000004">
        <ele>1277.220</ele>
        <time>2022-08-24T10:06:08Z</time>
      </trkpt>
      <trkpt lat="43.044833999999334" lon="-1.2655330000000005">
        <ele>1277.209</ele>
        <time>2022-08-24T10:06:09Z</time>
      </trkpt>
      <trkpt lat="43.04482299999933" lon="-1.2655470000000004">
        <ele>1277.440</ele>
        <time>2022-08-24T10:06:10Z</time>
      </trkpt>
      <trkpt lat="43.044813999999334" lon="-1.2655590000000003">
        <ele>1277.480</ele>
        <time>2022-08-24T10:06:11Z</time>
      </trkpt>
      <trkpt lat="43.04480399999933" lon="-1.2655720000000004">
        <ele>1277.450</ele>
        <time>2022-08-24T10:06:12Z</time>
      </trkpt>
      <trkpt lat="43.04479399999933" lon="-1.2655800000000004">
        <ele>1277.666</ele>
        <time>2022-08-24T10:06:13Z</time>
      </trkpt>
      <trkpt lat="43.04478699999933" lon="-1.2655890000000003">
        <ele>1277.688</ele>
        <time>2022-08-24T10:06:14Z</time>
      </trkpt>
      <trkpt lat="43.04477799999933" lon="-1.2656010000000002">
        <ele>1277.825</ele>
        <time>2022-08-24T10:06:15Z</time>
      </trkpt>
      <trkpt lat="43.044770999999336" lon="-1.2656150000000002">
        <ele>1278.048</ele>
        <time>2022-08-24T10:06:16Z</time>
      </trkpt>
      <trkpt lat="43.044762999999335" lon="-1.265627">
        <ele>1278.272</ele>
        <time>2022-08-24T10:06:17Z</time>
      </trkpt>
      <trkpt lat="43.04475599999934" lon="-1.265643">
        <ele>1278.411</ele>
        <time>2022-08-24T10:06:18Z</time>
      </trkpt>
      <trkpt lat="43.04475099999934" lon="-1.265665">
        <ele>1278.478</ele>
        <time>2022-08-24T10:06:19Z</time>
      </trkpt>
      <trkpt lat="43.04474399999934" lon="-1.265689">
        <ele>1278.433</ele>
        <time>2022-08-24T10:06:20Z</time>
      </trkpt>
      <trkpt lat="43.04473499999934" lon="-1.265711">
        <ele>1278.426</ele>
        <time>2022-08-24T10:06:21Z</time>
      </trkpt>
      <trkpt lat="43.044727999999346" lon="-1.265736">
        <ele>1278.609</ele>
        <time>2022-08-24T10:06:22Z</time>
      </trkpt>
      <trkpt lat="43.04471899999935" lon="-1.26576">
        <ele>1278.638</ele>
        <time>2022-08-24T10:06:23Z</time>
      </trkpt>
      <trkpt lat="43.04471299999935" lon="-1.265788">
        <ele>1278.838</ele>
        <time>2022-08-24T10:06:24Z</time>
      </trkpt>
      <trkpt lat="43.04470999999935" lon="-1.2658179999999999">
        <ele>1278.888</ele>
        <time>2022-08-24T10:06:25Z</time>
      </trkpt>
      <trkpt lat="43.044707999999346" lon="-1.2658449999999999">
        <ele>1279.034</ele>
        <time>2022-08-24T10:06:26Z</time>
      </trkpt>
      <trkpt lat="43.044702999999345" lon="-1.2658719999999999">
        <ele>1279.076</ele>
        <time>2022-08-24T10:06:27Z</time>
      </trkpt>
      <trkpt lat="43.044696999999346" lon="-1.2658969999999998">
        <ele>1279.073</ele>
        <time>2022-08-24T10:06:28Z</time>
      </trkpt>
      <trkpt lat="43.04469099999935" lon="-1.2659239999999998">
        <ele>1279.056</ele>
        <time>2022-08-24T10:06:29Z</time>
      </trkpt>
      <trkpt lat="43.04468499999935" lon="-1.2659549999999997">
        <ele>1279.080</ele>
        <time>2022-08-24T10:06:30Z</time>
      </trkpt>
      <trkpt lat="43.04468199999935" lon="-1.2659879999999997">
        <ele>1279.079</ele>
        <time>2022-08-24T10:06:31Z</time>
      </trkpt>
      <trkpt lat="43.04468199999935" lon="-1.2660229999999997">
        <ele>1279.033</ele>
        <time>2022-08-24T10:06:32Z</time>
      </trkpt>
      <trkpt lat="43.04468199999935" lon="-1.2660589999999996">
        <ele>1279.023</ele>
        <time>2022-08-24T10:06:33Z</time>
      </trkpt>
      <trkpt lat="43.044679999999346" lon="-1.2660969999999996">
        <ele>1279.015</ele>
        <time>2022-08-24T10:06:34Z</time>
      </trkpt>
      <trkpt lat="43.04467299999935" lon="-1.2662009999999997">
        <ele>1279.009</ele>
        <time>2022-08-24T10:06:37Z</time>
      </trkpt>
      <trkpt lat="43.04467099999935" lon="-1.2662349999999998">
        <ele>1279.284</ele>
        <time>2022-08-24T10:06:38Z</time>
      </trkpt>
      <trkpt lat="43.04466799999935" lon="-1.2662999999999998">
        <ele>1279.454</ele>
        <time>2022-08-24T10:06:40Z</time>
      </trkpt>
      <trkpt lat="43.044668999999345" lon="-1.2663319999999998">
        <ele>1279.444</ele>
        <time>2022-08-24T10:06:41Z</time>
      </trkpt>
      <trkpt lat="43.044668999999345" lon="-1.2663609999999998">
        <ele>1279.430</ele>
        <time>2022-08-24T10:06:42Z</time>
      </trkpt>
      <trkpt lat="43.04466799999935" lon="-1.2663879999999998">
        <ele>1279.442</ele>
        <time>2022-08-24T10:06:43Z</time>
      </trkpt>
      <trkpt lat="43.04466499999935" lon="-1.2664129999999998">
        <ele>1279.629</ele>
        <time>2022-08-24T10:06:44Z</time>
      </trkpt>
      <trkpt lat="43.04465999999935" lon="-1.2664399999999998">
        <ele>1279.652</ele>
        <time>2022-08-24T10:06:45Z</time>
      </trkpt>
      <trkpt lat="43.044648999999346" lon="-1.2664869999999997">
        <ele>1279.876</ele>
        <time>2022-08-24T10:06:47Z</time>
      </trkpt>
      <trkpt lat="43.04463899999934" lon="-1.2665069999999996">
        <ele>1280.085</ele>
        <time>2022-08-24T10:06:48Z</time>
      </trkpt>
      <trkpt lat="43.04459699999934" lon="-1.2665779999999995">
        <ele>1280.272</ele>
        <time>2022-08-24T10:06:51Z</time>
      </trkpt>
      <trkpt lat="43.04458399999934" lon="-1.2666009999999996">
        <ele>1280.213</ele>
        <time>2022-08-24T10:06:52Z</time>
      </trkpt>
      <trkpt lat="43.04453299999934" lon="-1.2666969999999997">
        <ele>1280.214</ele>
        <time>2022-08-24T10:06:56Z</time>
      </trkpt>
      <trkpt lat="43.04449199999934" lon="-1.2667829999999998">
        <ele>1279.209</ele>
        <time>2022-08-24T10:06:59Z</time>
      </trkpt>
      <trkpt lat="43.04447099999934" lon="-1.2668419999999998">
        <ele>1278.878</ele>
        <time>2022-08-24T10:07:01Z</time>
      </trkpt>
      <trkpt lat="43.04446099999934" lon="-1.2668679999999999">
        <ele>1278.658</ele>
        <time>2022-08-24T10:07:02Z</time>
      </trkpt>
      <trkpt lat="43.044452999999336" lon="-1.266892">
        <ele>1278.248</ele>
        <time>2022-08-24T10:07:03Z</time>
      </trkpt>
      <trkpt lat="43.044444999999335" lon="-1.2669139999999999">
        <ele>1278.024</ele>
        <time>2022-08-24T10:07:04Z</time>
      </trkpt>
      <trkpt lat="43.044438999999336" lon="-1.2669339999999998">
        <ele>1277.486</ele>
        <time>2022-08-24T10:07:05Z</time>
      </trkpt>
      <trkpt lat="43.044430999999335" lon="-1.2669589999999997">
        <ele>1277.013</ele>
        <time>2022-08-24T10:07:06Z</time>
      </trkpt>
      <trkpt lat="43.044419999999334" lon="-1.2669899999999996">
        <ele>1276.626</ele>
        <time>2022-08-24T10:07:07Z</time>
      </trkpt>
      <trkpt lat="43.044388999999335" lon="-1.2670579999999996">
        <ele>1276.270</ele>
        <time>2022-08-24T10:07:09Z</time>
      </trkpt>
      <trkpt lat="43.04433099999933" lon="-1.2671919999999997">
        <ele>1275.889</ele>
        <time>2022-08-24T10:07:12Z</time>
      </trkpt>
      <trkpt lat="43.04430699999933" lon="-1.2672409999999996">
        <ele>1275.822</ele>
        <time>2022-08-24T10:07:13Z</time>
      </trkpt>
      <trkpt lat="43.04425399999933" lon="-1.2673469999999996">
        <ele>1275.462</ele>
        <time>2022-08-24T10:07:15Z</time>
      </trkpt>
      <trkpt lat="43.04411599999933" lon="-1.2676149999999995">
        <ele>1275.208</ele>
        <time>2022-08-24T10:07:20Z</time>
      </trkpt>
      <trkpt lat="43.044079999999326" lon="-1.2676739999999995">
        <ele>1275.209</ele>
        <time>2022-08-24T10:07:21Z</time>
      </trkpt>
      <trkpt lat="43.04401699999933" lon="-1.2677719999999995">
        <ele>1275.453</ele>
        <time>2022-08-24T10:07:23Z</time>
      </trkpt>
      <trkpt lat="43.04396999999933" lon="-1.2678799999999995">
        <ele>1275.453</ele>
        <time>2022-08-24T10:07:25Z</time>
      </trkpt>
      <trkpt lat="43.04394899999933" lon="-1.2679159999999994">
        <ele>1275.443</ele>
        <time>2022-08-24T10:07:26Z</time>
      </trkpt>
      <trkpt lat="43.04390599999933" lon="-1.2680059999999993">
        <ele>1275.689</ele>
        <time>2022-08-24T10:07:28Z</time>
      </trkpt>
      <trkpt lat="43.04388899999933" lon="-1.2680539999999993">
        <ele>1275.641</ele>
        <time>2022-08-24T10:07:29Z</time>
      </trkpt>
      <trkpt lat="43.04386599999933" lon="-1.2681059999999993">
        <ele>1275.628</ele>
        <time>2022-08-24T10:07:30Z</time>
      </trkpt>
      <trkpt lat="43.043848999999334" lon="-1.2681409999999993">
        <ele>1275.471</ele>
        <time>2022-08-24T10:07:31Z</time>
      </trkpt>
      <trkpt lat="43.04382999999933" lon="-1.2681809999999993">
        <ele>1275.475</ele>
        <time>2022-08-24T10:07:32Z</time>
      </trkpt>
      <trkpt lat="43.04381299999933" lon="-1.2682179999999994">
        <ele>1275.474</ele>
        <time>2022-08-24T10:07:33Z</time>
      </trkpt>
      <trkpt lat="43.04379899999933" lon="-1.2682509999999994">
        <ele>1275.627</ele>
        <time>2022-08-24T10:07:34Z</time>
      </trkpt>
      <trkpt lat="43.043783999999334" lon="-1.2682869999999993">
        <ele>1275.668</ele>
        <time>2022-08-24T10:07:35Z</time>
      </trkpt>
      <trkpt lat="43.04377399999933" lon="-1.2683219999999993">
        <ele>1275.814</ele>
        <time>2022-08-24T10:07:36Z</time>
      </trkpt>
      <trkpt lat="43.04376199999933" lon="-1.2683589999999993">
        <ele>1275.809</ele>
        <time>2022-08-24T10:07:37Z</time>
      </trkpt>
      <trkpt lat="43.04375399999933" lon="-1.2683959999999994">
        <ele>1276.013</ele>
        <time>2022-08-24T10:07:38Z</time>
      </trkpt>
      <trkpt lat="43.043738999999334" lon="-1.2684309999999994">
        <ele>1276.033</ele>
        <time>2022-08-24T10:07:39Z</time>
      </trkpt>
      <trkpt lat="43.04371699999933" lon="-1.2684679999999995">
        <ele>1276.033</ele>
        <time>2022-08-24T10:07:40Z</time>
      </trkpt>
      <trkpt lat="43.043698999999336" lon="-1.2685099999999996">
        <ele>1276.029</ele>
        <time>2022-08-24T10:07:41Z</time>
      </trkpt>
      <trkpt lat="43.04367899999934" lon="-1.2685529999999996">
        <ele>1276.221</ele>
        <time>2022-08-24T10:07:42Z</time>
      </trkpt>
      <trkpt lat="43.04365799999934" lon="-1.2685939999999996">
        <ele>1276.448</ele>
        <time>2022-08-24T10:07:43Z</time>
      </trkpt>
      <trkpt lat="43.04363599999934" lon="-1.2686369999999996">
        <ele>1276.421</ele>
        <time>2022-08-24T10:07:44Z</time>
      </trkpt>
      <trkpt lat="43.04361299999934" lon="-1.2686789999999997">
        <ele>1276.625</ele>
        <time>2022-08-24T10:07:45Z</time>
      </trkpt>
      <trkpt lat="43.04359899999934" lon="-1.2687229999999996">
        <ele>1276.874</ele>
        <time>2022-08-24T10:07:46Z</time>
      </trkpt>
      <trkpt lat="43.04359299999934" lon="-1.2687549999999996">
        <ele>1276.838</ele>
        <time>2022-08-24T10:07:47Z</time>
      </trkpt>
      <trkpt lat="43.04357999999934" lon="-1.2688129999999995">
        <ele>1277.070</ele>
        <time>2022-08-24T10:07:49Z</time>
      </trkpt>
      <trkpt lat="43.04354899999934" lon="-1.2688519999999994">
        <ele>1277.217</ele>
        <time>2022-08-24T10:07:50Z</time>
      </trkpt>
      <trkpt lat="43.04353399999934" lon="-1.2688819999999994">
        <ele>1277.409</ele>
        <time>2022-08-24T10:07:51Z</time>
      </trkpt>
      <trkpt lat="43.04347999999934" lon="-1.2690669999999995">
        <ele>1278.454</ele>
        <time>2022-08-24T10:07:55Z</time>
      </trkpt>
      <trkpt lat="43.04347399999934" lon="-1.2691069999999995">
        <ele>1278.684</ele>
        <time>2022-08-24T10:07:56Z</time>
      </trkpt>
      <trkpt lat="43.043452999999346" lon="-1.2691519999999996">
        <ele>1278.684</ele>
        <time>2022-08-24T10:07:57Z</time>
      </trkpt>
      <trkpt lat="43.04343199999935" lon="-1.2692299999999996">
        <ele>1278.670</ele>
        <time>2022-08-24T10:07:59Z</time>
      </trkpt>
      <trkpt lat="43.043418999999346" lon="-1.2692819999999996">
        <ele>1278.862</ele>
        <time>2022-08-24T10:08:00Z</time>
      </trkpt>
      <trkpt lat="43.04341299999935" lon="-1.2693209999999995">
        <ele>1278.859</ele>
        <time>2022-08-24T10:08:01Z</time>
      </trkpt>
      <trkpt lat="43.04338699999935" lon="-1.2693879999999995">
        <ele>1279.022</ele>
        <time>2022-08-24T10:08:02Z</time>
      </trkpt>
      <trkpt lat="43.04335399999935" lon="-1.2694389999999995">
        <ele>1279.086</ele>
        <time>2022-08-24T10:08:03Z</time>
      </trkpt>
      <trkpt lat="43.043331999999346" lon="-1.2694959999999995">
        <ele>1279.085</ele>
        <time>2022-08-24T10:08:04Z</time>
      </trkpt>
      <trkpt lat="43.04331699999935" lon="-1.2695549999999995">
        <ele>1279.223</ele>
        <time>2022-08-24T10:08:05Z</time>
      </trkpt>
      <trkpt lat="43.04330599999935" lon="-1.2696249999999996">
        <ele>1279.283</ele>
        <time>2022-08-24T10:08:06Z</time>
      </trkpt>
      <trkpt lat="43.04329099999935" lon="-1.2697069999999995">
        <ele>1279.011</ele>
        <time>2022-08-24T10:08:07Z</time>
      </trkpt>
      <trkpt lat="43.04327799999935" lon="-1.2697609999999995">
        <ele>1279.009</ele>
        <time>2022-08-24T10:08:08Z</time>
      </trkpt>
      <trkpt lat="43.043261999999345" lon="-1.2698249999999995">
        <ele>1278.833</ele>
        <time>2022-08-24T10:08:09Z</time>
      </trkpt>
      <trkpt lat="43.04323199999934" lon="-1.2698829999999994">
        <ele>1278.833</ele>
        <time>2022-08-24T10:08:10Z</time>
      </trkpt>
      <trkpt lat="43.04321899999934" lon="-1.2699409999999993">
        <ele>1278.883</ele>
        <time>2022-08-24T10:08:11Z</time>
      </trkpt>
      <trkpt lat="43.04320399999934" lon="-1.2699979999999993">
        <ele>1278.689</ele>
        <time>2022-08-24T10:08:12Z</time>
      </trkpt>
      <trkpt lat="43.04319599999934" lon="-1.2700589999999994">
        <ele>1278.481</ele>
        <time>2022-08-24T10:08:13Z</time>
      </trkpt>
      <trkpt lat="43.04318499999934" lon="-1.2701399999999994">
        <ele>1278.298</ele>
        <time>2022-08-24T10:08:14Z</time>
      </trkpt>
      <trkpt lat="43.04314599999934" lon="-1.2703709999999995">
        <ele>1277.231</ele>
        <time>2022-08-24T10:08:17Z</time>
      </trkpt>
      <trkpt lat="43.04313399999934" lon="-1.2704299999999995">
        <ele>1276.695</ele>
        <time>2022-08-24T10:08:18Z</time>
      </trkpt>
      <trkpt lat="43.04311499999934" lon="-1.2704869999999995">
        <ele>1275.844</ele>
        <time>2022-08-24T10:08:19Z</time>
      </trkpt>
      <trkpt lat="43.04309899999934" lon="-1.2705379999999995">
        <ele>1275.492</ele>
        <time>2022-08-24T10:08:20Z</time>
      </trkpt>
      <trkpt lat="43.043079999999335" lon="-1.2705799999999996">
        <ele>1275.073</ele>
        <time>2022-08-24T10:08:21Z</time>
      </trkpt>
      <trkpt lat="43.04305699999934" lon="-1.2706309999999996">
        <ele>1274.820</ele>
        <time>2022-08-24T10:08:22Z</time>
      </trkpt>
      <trkpt lat="43.043029999999334" lon="-1.2706869999999997">
        <ele>1274.609</ele>
        <time>2022-08-24T10:08:23Z</time>
      </trkpt>
      <trkpt lat="43.04300499999933" lon="-1.2708239999999997">
        <ele>1274.440</ele>
        <time>2022-08-24T10:08:25Z</time>
      </trkpt>
      <trkpt lat="43.042984999999334" lon="-1.2709589999999997">
        <ele>1274.070</ele>
        <time>2022-08-24T10:08:27Z</time>
      </trkpt>
      <trkpt lat="43.04295799999933" lon="-1.2710169999999996">
        <ele>1273.690</ele>
        <time>2022-08-24T10:08:28Z</time>
      </trkpt>
      <trkpt lat="43.04293499999933" lon="-1.2710779999999997">
        <ele>1273.476</ele>
        <time>2022-08-24T10:08:29Z</time>
      </trkpt>
      <trkpt lat="43.04291499999933" lon="-1.2711349999999997">
        <ele>1273.248</ele>
        <time>2022-08-24T10:08:30Z</time>
      </trkpt>
      <trkpt lat="43.042908999999334" lon="-1.2712029999999996">
        <ele>1273.095</ele>
        <time>2022-08-24T10:08:31Z</time>
      </trkpt>
      <trkpt lat="43.04290399999933" lon="-1.2712529999999997">
        <ele>1273.038</ele>
        <time>2022-08-24T10:08:32Z</time>
      </trkpt>
      <trkpt lat="43.04288999999933" lon="-1.2712969999999997">
        <ele>1273.022</ele>
        <time>2022-08-24T10:08:33Z</time>
      </trkpt>
      <trkpt lat="43.04283599999933" lon="-1.2714149999999997">
        <ele>1273.031</ele>
        <time>2022-08-24T10:08:35Z</time>
      </trkpt>
      <trkpt lat="43.042834999999336" lon="-1.2715029999999998">
        <ele>1273.056</ele>
        <time>2022-08-24T10:08:36Z</time>
      </trkpt>
      <trkpt lat="43.042832999999334" lon="-1.2715489999999998">
        <ele>1273.059</ele>
        <time>2022-08-24T10:08:37Z</time>
      </trkpt>
      <trkpt lat="43.042832999999334" lon="-1.2715799999999997">
        <ele>1272.814</ele>
        <time>2022-08-24T10:08:38Z</time>
      </trkpt>
      <trkpt lat="43.04281999999933" lon="-1.2716509999999996">
        <ele>1272.809</ele>
        <time>2022-08-24T10:08:40Z</time>
      </trkpt>
      <trkpt lat="43.04280699999933" lon="-1.2716899999999995">
        <ele>1272.626</ele>
        <time>2022-08-24T10:08:41Z</time>
      </trkpt>
      <trkpt lat="43.04279299999933" lon="-1.2717309999999995">
        <ele>1272.446</ele>
        <time>2022-08-24T10:08:42Z</time>
      </trkpt>
      <trkpt lat="43.04277599999933" lon="-1.2717729999999996">
        <ele>1271.836</ele>
        <time>2022-08-24T10:08:43Z</time>
      </trkpt>
      <trkpt lat="43.04276199999933" lon="-1.2718159999999996">
        <ele>1271.622</ele>
        <time>2022-08-24T10:08:44Z</time>
      </trkpt>
      <trkpt lat="43.04275299999933" lon="-1.2718669999999996">
        <ele>1271.274</ele>
        <time>2022-08-24T10:08:45Z</time>
      </trkpt>
      <trkpt lat="43.04275299999933" lon="-1.2718999999999996">
        <ele>1271.061</ele>
        <time>2022-08-24T10:08:46Z</time>
      </trkpt>
      <trkpt lat="43.04275099999933" lon="-1.2719349999999996">
        <ele>1270.454</ele>
        <time>2022-08-24T10:08:47Z</time>
      </trkpt>
      <trkpt lat="43.04275099999933" lon="-1.2719649999999996">
        <ele>1270.458</ele>
        <time>2022-08-24T10:08:48Z</time>
      </trkpt>
      <trkpt lat="43.042751999999325" lon="-1.2719989999999997">
        <ele>1270.087</ele>
        <time>2022-08-24T10:08:49Z</time>
      </trkpt>
      <trkpt lat="43.04274499999933" lon="-1.2720409999999998">
        <ele>1269.849</ele>
        <time>2022-08-24T10:08:50Z</time>
      </trkpt>
      <trkpt lat="43.04273299999933" lon="-1.2720779999999998">
        <ele>1269.602</ele>
        <time>2022-08-24T10:08:51Z</time>
      </trkpt>
      <trkpt lat="43.04272299999933" lon="-1.2721149999999999">
        <ele>1269.422</ele>
        <time>2022-08-24T10:08:52Z</time>
      </trkpt>
      <trkpt lat="43.04271399999933" lon="-1.272168">
        <ele>1269.209</ele>
        <time>2022-08-24T10:08:53Z</time>
      </trkpt>
      <trkpt lat="43.04270599999933" lon="-1.272202">
        <ele>1269.055</ele>
        <time>2022-08-24T10:08:54Z</time>
      </trkpt>
      <trkpt lat="43.042703999999326" lon="-1.2722310000000001">
        <ele>1268.835</ele>
        <time>2022-08-24T10:08:55Z</time>
      </trkpt>
      <trkpt lat="43.04270599999933" lon="-1.2722580000000001">
        <ele>1268.215</ele>
        <time>2022-08-24T10:08:56Z</time>
      </trkpt>
      <trkpt lat="43.04270899999933" lon="-1.272353">
        <ele>1268.041</ele>
        <time>2022-08-24T10:08:58Z</time>
      </trkpt>
      <trkpt lat="43.04270899999933" lon="-1.272513">
        <ele>1266.453</ele>
        <time>2022-08-24T10:09:02Z</time>
      </trkpt>
      <trkpt lat="43.04270599999933" lon="-1.272689">
        <ele>1265.660</ele>
        <time>2022-08-24T10:09:05Z</time>
      </trkpt>
      <trkpt lat="43.042695999999324" lon="-1.27274">
        <ele>1265.023</ele>
        <time>2022-08-24T10:09:06Z</time>
      </trkpt>
      <trkpt lat="43.042684999999324" lon="-1.2727979999999999">
        <ele>1264.847</ele>
        <time>2022-08-24T10:09:07Z</time>
      </trkpt>
      <trkpt lat="43.04266399999933" lon="-1.2728689999999998">
        <ele>1264.686</ele>
        <time>2022-08-24T10:09:08Z</time>
      </trkpt>
      <trkpt lat="43.042661999999325" lon="-1.2729399999999997">
        <ele>1264.247</ele>
        <time>2022-08-24T10:09:09Z</time>
      </trkpt>
      <trkpt lat="43.04263599999933" lon="-1.2730969999999997">
        <ele>1263.829</ele>
        <time>2022-08-24T10:09:11Z</time>
      </trkpt>
      <trkpt lat="43.04258699999933" lon="-1.2732349999999997">
        <ele>1263.221</ele>
        <time>2022-08-24T10:09:13Z</time>
      </trkpt>
      <trkpt lat="43.04257999999933" lon="-1.2732969999999997">
        <ele>1263.009</ele>
        <time>2022-08-24T10:09:14Z</time>
      </trkpt>
      <trkpt lat="43.04254999999933" lon="-1.2733489999999996">
        <ele>1262.635</ele>
        <time>2022-08-24T10:09:15Z</time>
      </trkpt>
      <trkpt lat="43.04254199999933" lon="-1.2734059999999996">
        <ele>1261.865</ele>
        <time>2022-08-24T10:09:16Z</time>
      </trkpt>
      <trkpt lat="43.04254499999933" lon="-1.2734589999999997">
        <ele>1261.425</ele>
        <time>2022-08-24T10:09:17Z</time>
      </trkpt>
      <trkpt lat="43.042534999999326" lon="-1.2735039999999997">
        <ele>1260.821</ele>
        <time>2022-08-24T10:09:18Z</time>
      </trkpt>
      <trkpt lat="43.042529999999324" lon="-1.2735469999999998">
        <ele>1260.813</ele>
        <time>2022-08-24T10:09:19Z</time>
      </trkpt>
      <trkpt lat="43.042523999999325" lon="-1.2735809999999999">
        <ele>1260.860</ele>
        <time>2022-08-24T10:09:20Z</time>
      </trkpt>
      <trkpt lat="43.04250899999933" lon="-1.2736319999999999">
        <ele>1260.423</ele>
        <time>2022-08-24T10:09:21Z</time>
      </trkpt>
      <trkpt lat="43.04250199999933" lon="-1.2736939999999999">
        <ele>1260.237</ele>
        <time>2022-08-24T10:09:22Z</time>
      </trkpt>
      <trkpt lat="43.04248499999933" lon="-1.273763">
        <ele>1260.266</ele>
        <time>2022-08-24T10:09:23Z</time>
      </trkpt>
      <trkpt lat="43.04245999999933" lon="-1.273827">
        <ele>1260.086</ele>
        <time>2022-08-24T10:09:24Z</time>
      </trkpt>
      <trkpt lat="43.04243799999933" lon="-1.273881">
        <ele>1260.060</ele>
        <time>2022-08-24T10:09:25Z</time>
      </trkpt>
      <trkpt lat="43.04243099999933" lon="-1.273936">
        <ele>1260.026</ele>
        <time>2022-08-24T10:09:26Z</time>
      </trkpt>
      <trkpt lat="43.042412999999335" lon="-1.273982">
        <ele>1259.809</ele>
        <time>2022-08-24T10:09:27Z</time>
      </trkpt>
      <trkpt lat="43.04239499999934" lon="-1.274027">
        <ele>1259.699</ele>
        <time>2022-08-24T10:09:28Z</time>
      </trkpt>
      <trkpt lat="43.04237299999934" lon="-1.274078">
        <ele>1259.449</ele>
        <time>2022-08-24T10:09:29Z</time>
      </trkpt>
      <trkpt lat="43.04237199999934" lon="-1.2740960000000001">
        <ele>1259.289</ele>
        <time>2022-08-24T10:09:30Z</time>
      </trkpt>
      <trkpt lat="43.04237799999934" lon="-1.2741330000000002">
        <ele>1259.025</ele>
        <time>2022-08-24T10:09:31Z</time>
      </trkpt>
      <trkpt lat="43.042378999999336" lon="-1.2741650000000002">
        <ele>1258.677</ele>
        <time>2022-08-24T10:09:32Z</time>
      </trkpt>
      <trkpt lat="43.042376999999334" lon="-1.2742100000000003">
        <ele>1258.234</ele>
        <time>2022-08-24T10:09:33Z</time>
      </trkpt>
      <trkpt lat="43.042367999999335" lon="-1.2742570000000002">
        <ele>1257.657</ele>
        <time>2022-08-24T10:09:34Z</time>
      </trkpt>
      <trkpt lat="43.04236899999933" lon="-1.2742840000000002">
        <ele>1256.851</ele>
        <time>2022-08-24T10:09:35Z</time>
      </trkpt>
      <trkpt lat="43.042347999999336" lon="-1.2743590000000002">
        <ele>1256.250</ele>
        <time>2022-08-24T10:09:37Z</time>
      </trkpt>
      <trkpt lat="43.04233799999933" lon="-1.2743850000000003">
        <ele>1256.024</ele>
        <time>2022-08-24T10:09:38Z</time>
      </trkpt>
      <trkpt lat="43.04232699999933" lon="-1.2744190000000004">
        <ele>1255.604</ele>
        <time>2022-08-24T10:09:39Z</time>
      </trkpt>
      <trkpt lat="43.04230699999933" lon="-1.2744680000000004">
        <ele>1255.414</ele>
        <time>2022-08-24T10:09:40Z</time>
      </trkpt>
      <trkpt lat="43.04227599999933" lon="-1.2745590000000004">
        <ele>1254.609</ele>
        <time>2022-08-24T10:09:42Z</time>
      </trkpt>
      <trkpt lat="43.04224599999933" lon="-1.2747060000000003">
        <ele>1253.823</ele>
        <time>2022-08-24T10:09:45Z</time>
      </trkpt>
      <trkpt lat="43.04223599999933" lon="-1.2747580000000003">
        <ele>1253.853</ele>
        <time>2022-08-24T10:09:46Z</time>
      </trkpt>
      <trkpt lat="43.04221299999933" lon="-1.2748130000000002">
        <ele>1253.253</ele>
        <time>2022-08-24T10:09:47Z</time>
      </trkpt>
      <trkpt lat="43.04220599999933" lon="-1.2748770000000003">
        <ele>1253.079</ele>
        <time>2022-08-24T10:09:48Z</time>
      </trkpt>
      <trkpt lat="43.04221199999933" lon="-1.2749280000000003">
        <ele>1252.681</ele>
        <time>2022-08-24T10:09:49Z</time>
      </trkpt>
      <trkpt lat="43.042210999999334" lon="-1.2749750000000002">
        <ele>1252.268</ele>
        <time>2022-08-24T10:09:50Z</time>
      </trkpt>
      <trkpt lat="43.04221499999933" lon="-1.275014">
        <ele>1251.861</ele>
        <time>2022-08-24T10:09:51Z</time>
      </trkpt>
      <trkpt lat="43.042196999999334" lon="-1.27509">
        <ele>1251.225</ele>
        <time>2022-08-24T10:09:52Z</time>
      </trkpt>
      <trkpt lat="43.042165999999334" lon="-1.27516">
        <ele>1250.834</ele>
        <time>2022-08-24T10:09:53Z</time>
      </trkpt>
      <trkpt lat="43.042139999999335" lon="-1.2752210000000002">
        <ele>1250.673</ele>
        <time>2022-08-24T10:09:54Z</time>
      </trkpt>
      <trkpt lat="43.04212499999934" lon="-1.2752960000000002">
        <ele>1250.485</ele>
        <time>2022-08-24T10:09:55Z</time>
      </trkpt>
      <trkpt lat="43.042108999999336" lon="-1.2753560000000002">
        <ele>1250.413</ele>
        <time>2022-08-24T10:09:56Z</time>
      </trkpt>
      <trkpt lat="43.042088999999336" lon="-1.2754090000000002">
        <ele>1250.209</ele>
        <time>2022-08-24T10:09:57Z</time>
      </trkpt>
      <trkpt lat="43.04206599999934" lon="-1.2754450000000002">
        <ele>1250.048</ele>
        <time>2022-08-24T10:09:58Z</time>
      </trkpt>
      <trkpt lat="43.04206799999934" lon="-1.2754960000000002">
        <ele>1250.038</ele>
        <time>2022-08-24T10:09:59Z</time>
      </trkpt>
      <trkpt lat="43.04207299999934" lon="-1.275524">
        <ele>1249.688</ele>
        <time>2022-08-24T10:10:00Z</time>
      </trkpt>
      <trkpt lat="43.04207799999934" lon="-1.27556">
        <ele>1249.414</ele>
        <time>2022-08-24T10:10:01Z</time>
      </trkpt>
      <trkpt lat="43.04208199999934" lon="-1.275615">
        <ele>1249.216</ele>
        <time>2022-08-24T10:10:02Z</time>
      </trkpt>
      <trkpt lat="43.04204999999934" lon="-1.27565">
        <ele>1249.023</ele>
        <time>2022-08-24T10:10:03Z</time>
      </trkpt>
      <trkpt lat="43.042045999999345" lon="-1.275695">
        <ele>1249.066</ele>
        <time>2022-08-24T10:10:04Z</time>
      </trkpt>
      <trkpt lat="43.04203699999935" lon="-1.275739">
        <ele>1248.850</ele>
        <time>2022-08-24T10:10:05Z</time>
      </trkpt>
      <trkpt lat="43.042031999999345" lon="-1.275777">
        <ele>1248.889</ele>
        <time>2022-08-24T10:10:06Z</time>
      </trkpt>
      <trkpt lat="43.042034999999345" lon="-1.2758099999999999">
        <ele>1249.053</ele>
        <time>2022-08-24T10:10:07Z</time>
      </trkpt>
      <trkpt lat="43.042034999999345" lon="-1.275836">
        <ele>1249.004</ele>
        <time>2022-08-24T10:10:08Z</time>
      </trkpt>
      <trkpt lat="43.042031999999345" lon="-1.275862">
        <ele>1249.014</ele>
        <time>2022-08-24T10:10:09Z</time>
      </trkpt>
      <trkpt lat="43.04202499999935" lon="-1.275898">
        <ele>1249.009</ele>
        <time>2022-08-24T10:10:10Z</time>
      </trkpt>
      <trkpt lat="43.04201299999935" lon="-1.2759369999999999">
        <ele>1249.026</ele>
        <time>2022-08-24T10:10:11Z</time>
      </trkpt>
      <trkpt lat="43.042005999999354" lon="-1.2759649999999998">
        <ele>1249.236</ele>
        <time>2022-08-24T10:10:12Z</time>
      </trkpt>
      <trkpt lat="43.041999999999355" lon="-1.2759869999999998">
        <ele>1249.646</ele>
        <time>2022-08-24T10:10:13Z</time>
      </trkpt>
      <trkpt lat="43.04199299999936" lon="-1.2760129999999998">
        <ele>1249.652</ele>
        <time>2022-08-24T10:10:14Z</time>
      </trkpt>
      <trkpt lat="43.04197399999936" lon="-1.2760869999999997">
        <ele>1249.634</ele>
        <time>2022-08-24T10:10:16Z</time>
      </trkpt>
      <trkpt lat="43.04193999999936" lon="-1.2762549999999997">
        <ele>1250.011</ele>
        <time>2022-08-24T10:10:20Z</time>
      </trkpt>
      <trkpt lat="43.04193399999936" lon="-1.2762869999999997">
        <ele>1249.854</ele>
        <time>2022-08-24T10:10:21Z</time>
      </trkpt>
      <trkpt lat="43.04193099999936" lon="-1.2763079999999998">
        <ele>1250.028</ele>
        <time>2022-08-24T10:10:22Z</time>
      </trkpt>
      <trkpt lat="43.04192499999936" lon="-1.2763309999999999">
        <ele>1250.267</ele>
        <time>2022-08-24T10:10:23Z</time>
      </trkpt>
      <trkpt lat="43.04192699999936" lon="-1.27636">
        <ele>1250.424</ele>
        <time>2022-08-24T10:10:24Z</time>
      </trkpt>
      <trkpt lat="43.04191399999936" lon="-1.2764">
        <ele>1250.404</ele>
        <time>2022-08-24T10:10:25Z</time>
      </trkpt>
      <trkpt lat="43.04190699999936" lon="-1.276428">
        <ele>1250.614</ele>
        <time>2022-08-24T10:10:26Z</time>
      </trkpt>
      <trkpt lat="43.04189599999936" lon="-1.276457">
        <ele>1250.609</ele>
        <time>2022-08-24T10:10:27Z</time>
      </trkpt>
      <trkpt lat="43.041891999999365" lon="-1.276487">
        <ele>1250.843</ele>
        <time>2022-08-24T10:10:28Z</time>
      </trkpt>
      <trkpt lat="43.041883999999364" lon="-1.276544">
        <ele>1251.043</ele>
        <time>2022-08-24T10:10:30Z</time>
      </trkpt>
      <trkpt lat="43.04186599999937" lon="-1.276616">
        <ele>1251.023</ele>
        <time>2022-08-24T10:10:32Z</time>
      </trkpt>
      <trkpt lat="43.04184899999937" lon="-1.276678">
        <ele>1251.049</ele>
        <time>2022-08-24T10:10:34Z</time>
      </trkpt>
      <trkpt lat="43.04181199999937" lon="-1.276865">
        <ele>1251.031</ele>
        <time>2022-08-24T10:10:39Z</time>
      </trkpt>
      <trkpt lat="43.04178899999937" lon="-1.2769059999999999">
        <ele>1251.248</ele>
        <time>2022-08-24T10:10:40Z</time>
      </trkpt>
      <trkpt lat="43.04177799999937" lon="-1.2769449999999998">
        <ele>1251.231</ele>
        <time>2022-08-24T10:10:41Z</time>
      </trkpt>
      <trkpt lat="43.04177499999937" lon="-1.2769759999999997">
        <ele>1251.235</ele>
        <time>2022-08-24T10:10:42Z</time>
      </trkpt>
      <trkpt lat="43.04176699999937" lon="-1.2769969999999997">
        <ele>1251.234</ele>
        <time>2022-08-24T10:10:43Z</time>
      </trkpt>
      <trkpt lat="43.04175899999937" lon="-1.2770149999999998">
        <ele>1251.265</ele>
        <time>2022-08-24T10:10:44Z</time>
      </trkpt>
      <trkpt lat="43.04174099999937" lon="-1.277065">
        <ele>1251.268</ele>
        <time>2022-08-24T10:10:46Z</time>
      </trkpt>
      <trkpt lat="43.04174299999937" lon="-1.2771839999999999">
        <ele>1251.214</ele>
        <time>2022-08-24T10:10:50Z</time>
      </trkpt>
      <trkpt lat="43.04174099999937" lon="-1.277208">
        <ele>1251.209</ele>
        <time>2022-08-24T10:10:51Z</time>
      </trkpt>
      <trkpt lat="43.04172699999937" lon="-1.277267">
        <ele>1251.057</ele>
        <time>2022-08-24T10:10:53Z</time>
      </trkpt>
      <trkpt lat="43.04171799999937" lon="-1.277299">
        <ele>1251.077</ele>
        <time>2022-08-24T10:10:54Z</time>
      </trkpt>
      <trkpt lat="43.04169799999937" lon="-1.2773539999999999">
        <ele>1251.287</ele>
        <time>2022-08-24T10:10:56Z</time>
      </trkpt>
      <trkpt lat="43.04168499999937" lon="-1.277386">
        <ele>1251.493</ele>
        <time>2022-08-24T10:10:57Z</time>
      </trkpt>
      <trkpt lat="43.04166599999937" lon="-1.2774219999999998">
        <ele>1251.475</ele>
        <time>2022-08-24T10:10:58Z</time>
      </trkpt>
      <trkpt lat="43.041641999999364" lon="-1.2774539999999999">
        <ele>1251.662</ele>
        <time>2022-08-24T10:10:59Z</time>
      </trkpt>
      <trkpt lat="43.04158899999936" lon="-1.277502">
        <ele>1252.045</ele>
        <time>2022-08-24T10:11:01Z</time>
      </trkpt>
      <trkpt lat="43.04156699999936" lon="-1.2775219999999998">
        <ele>1252.239</ele>
        <time>2022-08-24T10:11:02Z</time>
      </trkpt>
      <trkpt lat="43.041545999999364" lon="-1.2775389999999998">
        <ele>1252.458</ele>
        <time>2022-08-24T10:11:03Z</time>
      </trkpt>
      <trkpt lat="43.04152799999937" lon="-1.2775519999999998">
        <ele>1252.622</ele>
        <time>2022-08-24T10:11:04Z</time>
      </trkpt>
      <trkpt lat="43.04151299999937" lon="-1.2775689999999997">
        <ele>1253.062</ele>
        <time>2022-08-24T10:11:05Z</time>
      </trkpt>
      <trkpt lat="43.04149799999937" lon="-1.2775919999999998">
        <ele>1253.208</ele>
        <time>2022-08-24T10:11:06Z</time>
      </trkpt>
      <trkpt lat="43.04148199999937" lon="-1.2776079999999999">
        <ele>1253.809</ele>
        <time>2022-08-24T10:11:07Z</time>
      </trkpt>
      <trkpt lat="43.04146599999937" lon="-1.2776249999999998">
        <ele>1254.013</ele>
        <time>2022-08-24T10:11:08Z</time>
      </trkpt>
      <trkpt lat="43.04145199999937" lon="-1.2776399999999999">
        <ele>1254.283</ele>
        <time>2022-08-24T10:11:09Z</time>
      </trkpt>
      <trkpt lat="43.04144599999937" lon="-1.277656">
        <ele>1254.633</ele>
        <time>2022-08-24T10:11:10Z</time>
      </trkpt>
      <trkpt lat="43.04143699999937" lon="-1.2776729999999998">
        <ele>1255.029</ele>
        <time>2022-08-24T10:11:11Z</time>
      </trkpt>
      <trkpt lat="43.04142499999937" lon="-1.2776859999999999">
        <ele>1255.081</ele>
        <time>2022-08-24T10:11:12Z</time>
      </trkpt>
      <trkpt lat="43.04140899999937" lon="-1.277696">
        <ele>1255.218</ele>
        <time>2022-08-24T10:11:13Z</time>
      </trkpt>
      <trkpt lat="43.04139099999937" lon="-1.2777079999999998">
        <ele>1255.211</ele>
        <time>2022-08-24T10:11:14Z</time>
      </trkpt>
      <trkpt lat="43.04138499999937" lon="-1.277729">
        <ele>1255.265</ele>
        <time>2022-08-24T10:11:15Z</time>
      </trkpt>
      <trkpt lat="43.041378999999374" lon="-1.277745">
        <ele>1255.454</ele>
        <time>2022-08-24T10:11:16Z</time>
      </trkpt>
      <trkpt lat="43.04136099999938" lon="-1.277758">
        <ele>1255.485</ele>
        <time>2022-08-24T10:11:17Z</time>
      </trkpt>
      <trkpt lat="43.04134599999938" lon="-1.277777">
        <ele>1255.889</ele>
        <time>2022-08-24T10:11:18Z</time>
      </trkpt>
      <trkpt lat="43.04133799999938" lon="-1.277791">
        <ele>1255.817</ele>
        <time>2022-08-24T10:11:19Z</time>
      </trkpt>
      <trkpt lat="43.04133099999938" lon="-1.2777969999999998">
        <ele>1255.809</ele>
        <time>2022-08-24T10:11:20Z</time>
      </trkpt>
      <trkpt lat="43.04132899999938" lon="-1.2778189999999998">
        <ele>1256.079</ele>
        <time>2022-08-24T10:11:21Z</time>
      </trkpt>
      <trkpt lat="43.04131799999938" lon="-1.2778459999999998">
        <ele>1256.289</ele>
        <time>2022-08-24T10:11:22Z</time>
      </trkpt>
      <trkpt lat="43.04130599999938" lon="-1.277861">
        <ele>1256.469</ele>
        <time>2022-08-24T10:11:23Z</time>
      </trkpt>
      <trkpt lat="43.041298999999384" lon="-1.2778749999999999">
        <ele>1256.495</ele>
        <time>2022-08-24T10:11:24Z</time>
      </trkpt>
      <trkpt lat="43.04129999999938" lon="-1.277893">
        <ele>1256.437</ele>
        <time>2022-08-24T10:11:25Z</time>
      </trkpt>
      <trkpt lat="43.04128699999938" lon="-1.27792">
        <ele>1256.654</ele>
        <time>2022-08-24T10:11:26Z</time>
      </trkpt>
      <trkpt lat="43.041276999999376" lon="-1.277934">
        <ele>1256.887</ele>
        <time>2022-08-24T10:11:27Z</time>
      </trkpt>
      <trkpt lat="43.041271999999374" lon="-1.277961">
        <ele>1257.071</ele>
        <time>2022-08-24T10:11:28Z</time>
      </trkpt>
      <trkpt lat="43.04126399999937" lon="-1.277977">
        <ele>1257.280</ele>
        <time>2022-08-24T10:11:29Z</time>
      </trkpt>
      <trkpt lat="43.04125399999937" lon="-1.277993">
        <ele>1257.497</ele>
        <time>2022-08-24T10:11:30Z</time>
      </trkpt>
      <trkpt lat="43.04124299999937" lon="-1.278012">
        <ele>1257.423</ele>
        <time>2022-08-24T10:11:31Z</time>
      </trkpt>
      <trkpt lat="43.04123599999937" lon="-1.278031">
        <ele>1257.625</ele>
        <time>2022-08-24T10:11:32Z</time>
      </trkpt>
      <trkpt lat="43.04122999999937" lon="-1.278049">
        <ele>1257.809</ele>
        <time>2022-08-24T10:11:33Z</time>
      </trkpt>
      <trkpt lat="43.04122499999937" lon="-1.278069">
        <ele>1257.870</ele>
        <time>2022-08-24T10:11:34Z</time>
      </trkpt>
      <trkpt lat="43.04122299999937" lon="-1.2780909999999999">
        <ele>1258.020</ele>
        <time>2022-08-24T10:11:35Z</time>
      </trkpt>
      <trkpt lat="43.04121599999937" lon="-1.278117">
        <ele>1258.060</ele>
        <time>2022-08-24T10:11:36Z</time>
      </trkpt>
      <trkpt lat="43.04120299999937" lon="-1.278147">
        <ele>1258.066</ele>
        <time>2022-08-24T10:11:37Z</time>
      </trkpt>
      <trkpt lat="43.04119099999937" lon="-1.2781749999999998">
        <ele>1258.078</ele>
        <time>2022-08-24T10:11:38Z</time>
      </trkpt>
      <trkpt lat="43.041181999999374" lon="-1.2782059999999997">
        <ele>1258.085</ele>
        <time>2022-08-24T10:11:39Z</time>
      </trkpt>
      <trkpt lat="43.04116899999937" lon="-1.2782349999999998">
        <ele>1258.068</ele>
        <time>2022-08-24T10:11:40Z</time>
      </trkpt>
      <trkpt lat="43.04115599999937" lon="-1.2782659999999997">
        <ele>1258.022</ele>
        <time>2022-08-24T10:11:41Z</time>
      </trkpt>
      <trkpt lat="43.04114099999937" lon="-1.2783009999999997">
        <ele>1257.861</ele>
        <time>2022-08-24T10:11:42Z</time>
      </trkpt>
      <trkpt lat="43.04112699999937" lon="-1.2783389999999997">
        <ele>1257.888</ele>
        <time>2022-08-24T10:11:43Z</time>
      </trkpt>
      <trkpt lat="43.04111299999937" lon="-1.2783769999999997">
        <ele>1257.424</ele>
        <time>2022-08-24T10:11:44Z</time>
      </trkpt>
      <trkpt lat="43.04109799999937" lon="-1.2784139999999997">
        <ele>1257.226</ele>
        <time>2022-08-24T10:11:45Z</time>
      </trkpt>
      <trkpt lat="43.041082999999375" lon="-1.2784479999999998">
        <ele>1257.009</ele>
        <time>2022-08-24T10:11:46Z</time>
      </trkpt>
      <trkpt lat="43.041071999999374" lon="-1.2784779999999998">
        <ele>1256.879</ele>
        <time>2022-08-24T10:11:47Z</time>
      </trkpt>
      <trkpt lat="43.04106199999937" lon="-1.2785089999999997">
        <ele>1256.879</ele>
        <time>2022-08-24T10:11:48Z</time>
      </trkpt>
      <trkpt lat="43.041054999999375" lon="-1.2785359999999997">
        <ele>1256.649</ele>
        <time>2022-08-24T10:11:49Z</time>
      </trkpt>
      <trkpt lat="43.041046999999374" lon="-1.2785589999999998">
        <ele>1256.615</ele>
        <time>2022-08-24T10:11:50Z</time>
      </trkpt>
      <trkpt lat="43.041040999999375" lon="-1.2785829999999998">
        <ele>1256.437</ele>
        <time>2022-08-24T10:11:51Z</time>
      </trkpt>
      <trkpt lat="43.04102899999938" lon="-1.2786209999999998">
        <ele>1256.024</ele>
        <time>2022-08-24T10:11:53Z</time>
      </trkpt>
      <trkpt lat="43.04102499999938" lon="-1.2786429999999998">
        <ele>1255.817</ele>
        <time>2022-08-24T10:11:54Z</time>
      </trkpt>
      <trkpt lat="43.04101599999938" lon="-1.2786679999999997">
        <ele>1255.631</ele>
        <time>2022-08-24T10:11:55Z</time>
      </trkpt>
      <trkpt lat="43.04096299999938" lon="-1.2787649999999997">
        <ele>1255.260</ele>
        <time>2022-08-24T10:11:58Z</time>
      </trkpt>
      <trkpt lat="43.04094399999938" lon="-1.2787969999999997">
        <ele>1255.065</ele>
        <time>2022-08-24T10:11:59Z</time>
      </trkpt>
      <trkpt lat="43.040927999999376" lon="-1.2788289999999998">
        <ele>1255.068</ele>
        <time>2022-08-24T10:12:00Z</time>
      </trkpt>
      <trkpt lat="43.040908999999374" lon="-1.2788939999999998">
        <ele>1254.414</ele>
        <time>2022-08-24T10:12:02Z</time>
      </trkpt>
      <trkpt lat="43.04090199999938" lon="-1.2789219999999997">
        <ele>1254.209</ele>
        <time>2022-08-24T10:12:03Z</time>
      </trkpt>
      <trkpt lat="43.04088799999938" lon="-1.2789489999999997">
        <ele>1254.027</ele>
        <time>2022-08-24T10:12:04Z</time>
      </trkpt>
      <trkpt lat="43.04087299999938" lon="-1.2789759999999997">
        <ele>1253.267</ele>
        <time>2022-08-24T10:12:05Z</time>
      </trkpt>
      <trkpt lat="43.04080899999938" lon="-1.2791329999999996">
        <ele>1252.447</ele>
        <time>2022-08-24T10:12:10Z</time>
      </trkpt>
      <trkpt lat="43.04079199999938" lon="-1.2791829999999997">
        <ele>1252.233</ele>
        <time>2022-08-24T10:12:11Z</time>
      </trkpt>
      <trkpt lat="43.04077199999938" lon="-1.2792649999999997">
        <ele>1252.025</ele>
        <time>2022-08-24T10:12:13Z</time>
      </trkpt>
      <trkpt lat="43.04073599999938" lon="-1.2793709999999996">
        <ele>1251.822</ele>
        <time>2022-08-24T10:12:15Z</time>
      </trkpt>
      <trkpt lat="43.04070199999938" lon="-1.2794809999999996">
        <ele>1251.655</ele>
        <time>2022-08-24T10:12:17Z</time>
      </trkpt>
      <trkpt lat="43.040663999999374" lon="-1.2796299999999996">
        <ele>1251.659</ele>
        <time>2022-08-24T10:12:19Z</time>
      </trkpt>
      <trkpt lat="43.04064499999937" lon="-1.2796939999999997">
        <ele>1251.648</ele>
        <time>2022-08-24T10:12:20Z</time>
      </trkpt>
      <trkpt lat="43.04062799999937" lon="-1.2797619999999996">
        <ele>1251.624</ele>
        <time>2022-08-24T10:12:21Z</time>
      </trkpt>
      <trkpt lat="43.040604999999374" lon="-1.2798349999999996">
        <ele>1251.604</ele>
        <time>2022-08-24T10:12:22Z</time>
      </trkpt>
      <trkpt lat="43.04059399999937" lon="-1.2799049999999996">
        <ele>1251.614</ele>
        <time>2022-08-24T10:12:23Z</time>
      </trkpt>
      <trkpt lat="43.04058399999937" lon="-1.2799729999999996">
        <ele>1251.609</ele>
        <time>2022-08-24T10:12:24Z</time>
      </trkpt>
      <trkpt lat="43.04056799999937" lon="-1.2800209999999996">
        <ele>1251.643</ele>
        <time>2022-08-24T10:12:25Z</time>
      </trkpt>
      <trkpt lat="43.04054799999937" lon="-1.2800639999999996">
        <ele>1251.623</ele>
        <time>2022-08-24T10:12:26Z</time>
      </trkpt>
      <trkpt lat="43.04052299999937" lon="-1.2801729999999996">
        <ele>1251.223</ele>
        <time>2022-08-24T10:12:28Z</time>
      </trkpt>
      <trkpt lat="43.040520999999366" lon="-1.2802409999999995">
        <ele>1250.869</ele>
        <time>2022-08-24T10:12:29Z</time>
      </trkpt>
      <trkpt lat="43.040518999999364" lon="-1.2802859999999996">
        <ele>1250.471</ele>
        <time>2022-08-24T10:12:30Z</time>
      </trkpt>
      <trkpt lat="43.04051099999936" lon="-1.2803389999999997">
        <ele>1250.088</ele>
        <time>2022-08-24T10:12:31Z</time>
      </trkpt>
      <trkpt lat="43.04049999999936" lon="-1.2804149999999996">
        <ele>1249.631</ele>
        <time>2022-08-24T10:12:32Z</time>
      </trkpt>
      <trkpt lat="43.04045299999936" lon="-1.2806419999999996">
        <ele>1249.025</ele>
        <time>2022-08-24T10:12:35Z</time>
      </trkpt>
      <trkpt lat="43.04042399999936" lon="-1.2807259999999996">
        <ele>1248.874</ele>
        <time>2022-08-24T10:12:36Z</time>
      </trkpt>
      <trkpt lat="43.04039899999936" lon="-1.2807919999999995">
        <ele>1248.447</ele>
        <time>2022-08-24T10:12:37Z</time>
      </trkpt>
      <trkpt lat="43.04034899999936" lon="-1.2809109999999995">
        <ele>1247.629</ele>
        <time>2022-08-24T10:12:39Z</time>
      </trkpt>
      <trkpt lat="43.040324999999356" lon="-1.2809709999999994">
        <ele>1247.621</ele>
        <time>2022-08-24T10:12:40Z</time>
      </trkpt>
      <trkpt lat="43.040305999999354" lon="-1.2810219999999994">
        <ele>1247.409</ele>
        <time>2022-08-24T10:12:41Z</time>
      </trkpt>
      <trkpt lat="43.04027699999936" lon="-1.2810779999999995">
        <ele>1247.255</ele>
        <time>2022-08-24T10:12:42Z</time>
      </trkpt>
      <trkpt lat="43.040254999999355" lon="-1.2811249999999994">
        <ele>1247.245</ele>
        <time>2022-08-24T10:12:43Z</time>
      </trkpt>
      <trkpt lat="43.04023699999936" lon="-1.2811669999999995">
        <ele>1247.245</ele>
        <time>2022-08-24T10:12:44Z</time>
      </trkpt>
      <trkpt lat="43.04021899999936" lon="-1.2812099999999995">
        <ele>1247.031</ele>
        <time>2022-08-24T10:12:45Z</time>
      </trkpt>
      <trkpt lat="43.04019599999936" lon="-1.2812529999999995">
        <ele>1247.023</ele>
        <time>2022-08-24T10:12:46Z</time>
      </trkpt>
      <trkpt lat="43.04014499999936" lon="-1.2813399999999995">
        <ele>1246.850</ele>
        <time>2022-08-24T10:12:48Z</time>
      </trkpt>
      <trkpt lat="43.040059999999364" lon="-1.2814799999999995">
        <ele>1246.623</ele>
        <time>2022-08-24T10:12:51Z</time>
      </trkpt>
      <trkpt lat="43.040022999999366" lon="-1.2815209999999995">
        <ele>1246.237</ele>
        <time>2022-08-24T10:12:52Z</time>
      </trkpt>
      <trkpt lat="43.039988999999366" lon="-1.2815619999999994">
        <ele>1246.026</ele>
        <time>2022-08-24T10:12:53Z</time>
      </trkpt>
      <trkpt lat="43.039958999999364" lon="-1.2815999999999994">
        <ele>1246.097</ele>
        <time>2022-08-24T10:12:54Z</time>
      </trkpt>
      <trkpt lat="43.039935999999365" lon="-1.2816379999999994">
        <ele>1245.823</ele>
        <time>2022-08-24T10:12:55Z</time>
      </trkpt>
      <trkpt lat="43.03990399999937" lon="-1.2816729999999994">
        <ele>1245.825</ele>
        <time>2022-08-24T10:12:56Z</time>
      </trkpt>
      <trkpt lat="43.039870999999366" lon="-1.2817029999999994">
        <ele>1245.609</ele>
        <time>2022-08-24T10:12:57Z</time>
      </trkpt>
      <trkpt lat="43.039848999999364" lon="-1.2817339999999993">
        <ele>1245.460</ele>
        <time>2022-08-24T10:12:58Z</time>
      </trkpt>
      <trkpt lat="43.03982499999936" lon="-1.2817629999999993">
        <ele>1245.420</ele>
        <time>2022-08-24T10:12:59Z</time>
      </trkpt>
      <trkpt lat="43.03979799999936" lon="-1.2817959999999993">
        <ele>1245.250</ele>
        <time>2022-08-24T10:13:00Z</time>
      </trkpt>
      <trkpt lat="43.039773999999355" lon="-1.2818289999999992">
        <ele>1245.076</ele>
        <time>2022-08-24T10:13:01Z</time>
      </trkpt>
      <trkpt lat="43.03974999999935" lon="-1.2818539999999992">
        <ele>1244.878</ele>
        <time>2022-08-24T10:13:02Z</time>
      </trkpt>
      <trkpt lat="43.03973399999935" lon="-1.2818799999999992">
        <ele>1244.865</ele>
        <time>2022-08-24T10:13:03Z</time>
      </trkpt>
      <trkpt lat="43.03972299999935" lon="-1.2819039999999993">
        <ele>1244.428</ele>
        <time>2022-08-24T10:13:04Z</time>
      </trkpt>
      <trkpt lat="43.03967299999935" lon="-1.2819839999999993">
        <ele>1244.062</ele>
        <time>2022-08-24T10:13:07Z</time>
      </trkpt>
      <trkpt lat="43.039656999999345" lon="-1.2820079999999994">
        <ele>1244.031</ele>
        <time>2022-08-24T10:13:08Z</time>
      </trkpt>
      <trkpt lat="43.03963799999934" lon="-1.2820319999999994">
        <ele>1244.054</ele>
        <time>2022-08-24T10:13:09Z</time>
      </trkpt>
      <trkpt lat="43.03962199999934" lon="-1.2820529999999994">
        <ele>1244.056</ele>
        <time>2022-08-24T10:13:10Z</time>
      </trkpt>
      <trkpt lat="43.03960899999934" lon="-1.2820779999999994">
        <ele>1244.011</ele>
        <time>2022-08-24T10:13:11Z</time>
      </trkpt>
      <trkpt lat="43.03959699999934" lon="-1.2820919999999993">
        <ele>1244.009</ele>
        <time>2022-08-24T10:13:12Z</time>
      </trkpt>
      <trkpt lat="43.03958599999934" lon="-1.2821079999999994">
        <ele>1244.086</ele>
        <time>2022-08-24T10:13:13Z</time>
      </trkpt>
      <trkpt lat="43.039572999999336" lon="-1.2821289999999994">
        <ele>1244.016</ele>
        <time>2022-08-24T10:13:14Z</time>
      </trkpt>
      <trkpt lat="43.03955199999934" lon="-1.2821549999999995">
        <ele>1244.066</ele>
        <time>2022-08-24T10:13:15Z</time>
      </trkpt>
      <trkpt lat="43.03953599999934" lon="-1.2821739999999995">
        <ele>1244.272</ele>
        <time>2022-08-24T10:13:16Z</time>
      </trkpt>
      <trkpt lat="43.039511999999334" lon="-1.2821919999999996">
        <ele>1244.294</ele>
        <time>2022-08-24T10:13:17Z</time>
      </trkpt>
      <trkpt lat="43.03948199999933" lon="-1.2822069999999997">
        <ele>1244.441</ele>
        <time>2022-08-24T10:13:18Z</time>
      </trkpt>
      <trkpt lat="43.03945399999933" lon="-1.2822149999999997">
        <ele>1244.684</ele>
        <time>2022-08-24T10:13:19Z</time>
      </trkpt>
      <trkpt lat="43.03940999999933" lon="-1.2822319999999996">
        <ele>1244.878</ele>
        <time>2022-08-24T10:13:21Z</time>
      </trkpt>
      <trkpt lat="43.03939199999933" lon="-1.2822329999999995">
        <ele>1245.097</ele>
        <time>2022-08-24T10:13:22Z</time>
      </trkpt>
      <trkpt lat="43.03936599999933" lon="-1.2822299999999995">
        <ele>1245.444</ele>
        <time>2022-08-24T10:13:23Z</time>
      </trkpt>
      <trkpt lat="43.039345999999334" lon="-1.2822199999999995">
        <ele>1245.605</ele>
        <time>2022-08-24T10:13:24Z</time>
      </trkpt>
      <trkpt lat="43.039331999999334" lon="-1.2822129999999994">
        <ele>1245.815</ele>
        <time>2022-08-24T10:13:25Z</time>
      </trkpt>
      <trkpt lat="43.03931599999933" lon="-1.2822099999999994">
        <ele>1245.809</ele>
        <time>2022-08-24T10:13:26Z</time>
      </trkpt>
      <trkpt lat="43.03930299999933" lon="-1.2822099999999994">
        <ele>1246.065</ele>
        <time>2022-08-24T10:13:27Z</time>
      </trkpt>
      <trkpt lat="43.03928899999933" lon="-1.2822099999999994">
        <ele>1246.295</ele>
        <time>2022-08-24T10:13:28Z</time>
      </trkpt>
      <trkpt lat="43.03927399999933" lon="-1.2822109999999993">
        <ele>1246.475</ele>
        <time>2022-08-24T10:13:29Z</time>
      </trkpt>
      <trkpt lat="43.03925899999933" lon="-1.2822079999999993">
        <ele>1247.051</ele>
        <time>2022-08-24T10:13:30Z</time>
      </trkpt>
      <trkpt lat="43.03924599999933" lon="-1.2822069999999994">
        <ele>1247.253</ele>
        <time>2022-08-24T10:13:31Z</time>
      </trkpt>
      <trkpt lat="43.03923199999933" lon="-1.2822079999999993">
        <ele>1247.620</ele>
        <time>2022-08-24T10:13:32Z</time>
      </trkpt>
      <trkpt lat="43.039148999999334" lon="-1.2822319999999994">
        <ele>1248.213</ele>
        <time>2022-08-24T10:13:36Z</time>
      </trkpt>
      <trkpt lat="43.03910999999933" lon="-1.2822489999999993">
        <ele>1248.297</ele>
        <time>2022-08-24T10:13:37Z</time>
      </trkpt>
      <trkpt lat="43.03906599999933" lon="-1.2822729999999993">
        <ele>1248.256</ele>
        <time>2022-08-24T10:13:38Z</time>
      </trkpt>
      <trkpt lat="43.03902299999933" lon="-1.2822959999999994">
        <ele>1248.288</ele>
        <time>2022-08-24T10:13:39Z</time>
      </trkpt>
      <trkpt lat="43.03898499999933" lon="-1.2823179999999994">
        <ele>1247.824</ele>
        <time>2022-08-24T10:13:40Z</time>
      </trkpt>
      <trkpt lat="43.03895399999933" lon="-1.2823419999999994">
        <ele>1247.826</ele>
        <time>2022-08-24T10:13:41Z</time>
      </trkpt>
      <trkpt lat="43.038926999999326" lon="-1.2823689999999994">
        <ele>1247.609</ele>
        <time>2022-08-24T10:13:42Z</time>
      </trkpt>
      <trkpt lat="43.038904999999325" lon="-1.2823989999999994">
        <ele>1247.669</ele>
        <time>2022-08-24T10:13:43Z</time>
      </trkpt>
      <trkpt lat="43.038881999999326" lon="-1.2824329999999995">
        <ele>1247.459</ele>
        <time>2022-08-24T10:13:44Z</time>
      </trkpt>
      <trkpt lat="43.03886199999933" lon="-1.2824679999999995">
        <ele>1247.429</ele>
        <time>2022-08-24T10:13:45Z</time>
      </trkpt>
      <trkpt lat="43.03884199999933" lon="-1.2825049999999996">
        <ele>1247.275</ele>
        <time>2022-08-24T10:13:46Z</time>
      </trkpt>
      <trkpt lat="43.03882099999933" lon="-1.2825439999999995">
        <ele>1247.087</ele>
        <time>2022-08-24T10:13:47Z</time>
      </trkpt>
      <trkpt lat="43.038802999999334" lon="-1.2825819999999994">
        <ele>1247.074</ele>
        <time>2022-08-24T10:13:48Z</time>
      </trkpt>
      <trkpt lat="43.038742999999336" lon="-1.2826889999999995">
        <ele>1246.817</ele>
        <time>2022-08-24T10:13:51Z</time>
      </trkpt>
      <trkpt lat="43.038723999999334" lon="-1.2827219999999995">
        <ele>1246.421</ele>
        <time>2022-08-24T10:13:52Z</time>
      </trkpt>
      <trkpt lat="43.03868599999933" lon="-1.2827979999999994">
        <ele>1246.410</ele>
        <time>2022-08-24T10:13:54Z</time>
      </trkpt>
      <trkpt lat="43.03866799999933" lon="-1.2828339999999994">
        <ele>1246.448</ele>
        <time>2022-08-24T10:13:55Z</time>
      </trkpt>
      <trkpt lat="43.038652999999336" lon="-1.2828659999999994">
        <ele>1246.461</ele>
        <time>2022-08-24T10:13:56Z</time>
      </trkpt>
      <trkpt lat="43.038635999999336" lon="-1.2828989999999993">
        <ele>1246.417</ele>
        <time>2022-08-24T10:13:57Z</time>
      </trkpt>
      <trkpt lat="43.038619999999334" lon="-1.2829299999999992">
        <ele>1246.409</ele>
        <time>2022-08-24T10:13:58Z</time>
      </trkpt>
      <trkpt lat="43.038587999999336" lon="-1.2829919999999992">
        <ele>1246.475</ele>
        <time>2022-08-24T10:14:00Z</time>
      </trkpt>
      <trkpt lat="43.038571999999334" lon="-1.2830219999999992">
        <ele>1246.655</ele>
        <time>2022-08-24T10:14:01Z</time>
      </trkpt>
      <trkpt lat="43.03855699999934" lon="-1.2830539999999993">
        <ele>1246.625</ele>
        <time>2022-08-24T10:14:02Z</time>
      </trkpt>
      <trkpt lat="43.03854499999934" lon="-1.2830819999999992">
        <ele>1246.871</ele>
        <time>2022-08-24T10:14:03Z</time>
      </trkpt>
      <trkpt lat="43.03853299999934" lon="-1.2831089999999992">
        <ele>1246.833</ele>
        <time>2022-08-24T10:14:04Z</time>
      </trkpt>
      <trkpt lat="43.03852399999934" lon="-1.2831379999999992">
        <ele>1246.840</ele>
        <time>2022-08-24T10:14:05Z</time>
      </trkpt>
      <trkpt lat="43.03851899999934" lon="-1.2831679999999992">
        <ele>1246.863</ele>
        <time>2022-08-24T10:14:06Z</time>
      </trkpt>
      <trkpt lat="43.03851199999934" lon="-1.2831939999999993">
        <ele>1247.077</ele>
        <time>2022-08-24T10:14:07Z</time>
      </trkpt>
      <trkpt lat="43.03850199999934" lon="-1.2832219999999992">
        <ele>1247.236</ele>
        <time>2022-08-24T10:14:08Z</time>
      </trkpt>
      <trkpt lat="43.03849299999934" lon="-1.2832509999999993">
        <ele>1247.277</ele>
        <time>2022-08-24T10:14:09Z</time>
      </trkpt>
      <trkpt lat="43.03848799999934" lon="-1.2832769999999993">
        <ele>1247.461</ele>
        <time>2022-08-24T10:14:10Z</time>
      </trkpt>
      <trkpt lat="43.03848299999934" lon="-1.2832969999999992">
        <ele>1247.427</ele>
        <time>2022-08-24T10:14:11Z</time>
      </trkpt>
      <trkpt lat="43.03847599999934" lon="-1.2833129999999993">
        <ele>1247.609</ele>
        <time>2022-08-24T10:14:12Z</time>
      </trkpt>
      <trkpt lat="43.03847399999934" lon="-1.2833359999999994">
        <ele>1247.668</ele>
        <time>2022-08-24T10:14:13Z</time>
      </trkpt>
      <trkpt lat="43.03847299999934" lon="-1.2833569999999994">
        <ele>1247.888</ele>
        <time>2022-08-24T10:14:14Z</time>
      </trkpt>
      <trkpt lat="43.03846999999934" lon="-1.2833749999999995">
        <ele>1248.028</ele>
        <time>2022-08-24T10:14:15Z</time>
      </trkpt>
      <trkpt lat="43.038465999999346" lon="-1.2833969999999995">
        <ele>1248.264</ele>
        <time>2022-08-24T10:14:16Z</time>
      </trkpt>
      <trkpt lat="43.038463999999344" lon="-1.2834129999999995">
        <ele>1248.626</ele>
        <time>2022-08-24T10:14:17Z</time>
      </trkpt>
      <trkpt lat="43.038460999999344" lon="-1.2834259999999995">
        <ele>1249.023</ele>
        <time>2022-08-24T10:14:18Z</time>
      </trkpt>
      <trkpt lat="43.03845299999934" lon="-1.2834429999999994">
        <ele>1249.086</ele>
        <time>2022-08-24T10:14:19Z</time>
      </trkpt>
      <trkpt lat="43.038449999999344" lon="-1.2834629999999994">
        <ele>1249.030</ele>
        <time>2022-08-24T10:14:20Z</time>
      </trkpt>
      <trkpt lat="43.03844499999934" lon="-1.2834789999999994">
        <ele>1249.249</ele>
        <time>2022-08-24T10:14:21Z</time>
      </trkpt>
      <trkpt lat="43.03843099999934" lon="-1.2834989999999993">
        <ele>1249.274</ele>
        <time>2022-08-24T10:14:22Z</time>
      </trkpt>
      <trkpt lat="43.03841799999934" lon="-1.2835149999999993">
        <ele>1249.456</ele>
        <time>2022-08-24T10:14:23Z</time>
      </trkpt>
      <trkpt lat="43.03841399999934" lon="-1.2835289999999993">
        <ele>1249.421</ele>
        <time>2022-08-24T10:14:24Z</time>
      </trkpt>
      <trkpt lat="43.038412999999345" lon="-1.2835389999999993">
        <ele>1249.609</ele>
        <time>2022-08-24T10:14:25Z</time>
      </trkpt>
      <trkpt lat="43.03840599999935" lon="-1.2835489999999994">
        <ele>1249.688</ele>
        <time>2022-08-24T10:14:26Z</time>
      </trkpt>
      <trkpt lat="43.03839799999935" lon="-1.2835609999999993">
        <ele>1249.818</ele>
        <time>2022-08-24T10:14:27Z</time>
      </trkpt>
      <trkpt lat="43.038392999999346" lon="-1.2835759999999994">
        <ele>1250.058</ele>
        <time>2022-08-24T10:14:28Z</time>
      </trkpt>
      <trkpt lat="43.038392999999346" lon="-1.2835899999999993">
        <ele>1250.294</ele>
        <time>2022-08-24T10:14:29Z</time>
      </trkpt>
      <trkpt lat="43.03838399999935" lon="-1.2836039999999993">
        <ele>1250.226</ele>
        <time>2022-08-24T10:14:30Z</time>
      </trkpt>
      <trkpt lat="43.038370999999344" lon="-1.2836239999999992">
        <ele>1250.243</ele>
        <time>2022-08-24T10:14:31Z</time>
      </trkpt>
      <trkpt lat="43.038359999999344" lon="-1.2836469999999993">
        <ele>1250.456</ele>
        <time>2022-08-24T10:14:32Z</time>
      </trkpt>
      <trkpt lat="43.03835799999934" lon="-1.2836619999999994">
        <ele>1250.430</ele>
        <time>2022-08-24T10:14:33Z</time>
      </trkpt>
      <trkpt lat="43.038356999999344" lon="-1.2836669999999994">
        <ele>1250.659</ele>
        <time>2022-08-24T10:14:34Z</time>
      </trkpt>
      <trkpt lat="43.038356999999344" lon="-1.2836779999999994">
        <ele>1250.826</ele>
        <time>2022-08-24T10:14:35Z</time>
      </trkpt>
      <trkpt lat="43.03834899999934" lon="-1.2836879999999995">
        <ele>1251.047</ele>
        <time>2022-08-24T10:14:36Z</time>
      </trkpt>
      <trkpt lat="43.038350999999345" lon="-1.2837059999999996">
        <ele>1251.211</ele>
        <time>2022-08-24T10:14:37Z</time>
      </trkpt>
      <trkpt lat="43.03834599999934" lon="-1.2837229999999995">
        <ele>1251.409</ele>
        <time>2022-08-24T10:14:38Z</time>
      </trkpt>
      <trkpt lat="43.038347999999345" lon="-1.2837339999999995">
        <ele>1251.483</ele>
        <time>2022-08-24T10:14:39Z</time>
      </trkpt>
      <trkpt lat="43.038356999999344" lon="-1.2837489999999996">
        <ele>1251.433</ele>
        <time>2022-08-24T10:14:40Z</time>
      </trkpt>
      <trkpt lat="43.03836099999934" lon="-1.2837619999999996">
        <ele>1251.673</ele>
        <time>2022-08-24T10:14:41Z</time>
      </trkpt>
      <trkpt lat="43.03836199999934" lon="-1.2837729999999996">
        <ele>1251.839</ele>
        <time>2022-08-24T10:14:42Z</time>
      </trkpt>
      <trkpt lat="43.03835799999934" lon="-1.2837849999999995">
        <ele>1252.031</ele>
        <time>2022-08-24T10:14:43Z</time>
      </trkpt>
      <trkpt lat="43.03834599999934" lon="-1.2838019999999994">
        <ele>1252.228</ele>
        <time>2022-08-24T10:14:44Z</time>
      </trkpt>
      <trkpt lat="43.038341999999346" lon="-1.2838199999999995">
        <ele>1252.481</ele>
        <time>2022-08-24T10:14:45Z</time>
      </trkpt>
      <trkpt lat="43.03834099999935" lon="-1.2838349999999996">
        <ele>1252.665</ele>
        <time>2022-08-24T10:14:46Z</time>
      </trkpt>
      <trkpt lat="43.03833999999935" lon="-1.2838509999999996">
        <ele>1252.614</ele>
        <time>2022-08-24T10:14:47Z</time>
      </trkpt>
      <trkpt lat="43.038335999999354" lon="-1.2838679999999996">
        <ele>1252.877</ele>
        <time>2022-08-24T10:14:48Z</time>
      </trkpt>
      <trkpt lat="43.03833699999935" lon="-1.2838869999999996">
        <ele>1252.861</ele>
        <time>2022-08-24T10:14:49Z</time>
      </trkpt>
      <trkpt lat="43.03834199999935" lon="-1.2839069999999995">
        <ele>1253.227</ele>
        <time>2022-08-24T10:14:50Z</time>
      </trkpt>
      <trkpt lat="43.03833999999935" lon="-1.2839239999999994">
        <ele>1253.209</ele>
        <time>2022-08-24T10:14:51Z</time>
      </trkpt>
      <trkpt lat="43.03833699999935" lon="-1.2839429999999994">
        <ele>1253.438</ele>
        <time>2022-08-24T10:14:52Z</time>
      </trkpt>
      <trkpt lat="43.03832699999935" lon="-1.2839689999999995">
        <ele>1253.648</ele>
        <time>2022-08-24T10:14:53Z</time>
      </trkpt>
      <trkpt lat="43.03831599999935" lon="-1.2839859999999994">
        <ele>1253.638</ele>
        <time>2022-08-24T10:14:54Z</time>
      </trkpt>
      <trkpt lat="43.03830399999935" lon="-1.2839989999999994">
        <ele>1253.884</ele>
        <time>2022-08-24T10:14:55Z</time>
      </trkpt>
      <trkpt lat="43.03830199999935" lon="-1.2840089999999995">
        <ele>1253.826</ele>
        <time>2022-08-24T10:14:56Z</time>
      </trkpt>
      <trkpt lat="43.03829899999935" lon="-1.2840239999999996">
        <ele>1254.043</ele>
        <time>2022-08-24T10:14:57Z</time>
      </trkpt>
      <trkpt lat="43.03829499999935" lon="-1.2840439999999995">
        <ele>1254.276</ele>
        <time>2022-08-24T10:14:58Z</time>
      </trkpt>
      <trkpt lat="43.03829199999935" lon="-1.2840649999999996">
        <ele>1254.420</ele>
        <time>2022-08-24T10:14:59Z</time>
      </trkpt>
      <trkpt lat="43.03828899999935" lon="-1.2840859999999996">
        <ele>1254.699</ele>
        <time>2022-08-24T10:15:00Z</time>
      </trkpt>
      <trkpt lat="43.038284999999355" lon="-1.2841129999999996">
        <ele>1254.625</ele>
        <time>2022-08-24T10:15:01Z</time>
      </trkpt>
      <trkpt lat="43.038276999999354" lon="-1.2841349999999996">
        <ele>1254.826</ele>
        <time>2022-08-24T10:15:02Z</time>
      </trkpt>
      <trkpt lat="43.03826399999935" lon="-1.2841599999999995">
        <ele>1254.808</ele>
        <time>2022-08-24T10:15:03Z</time>
      </trkpt>
      <trkpt lat="43.03825099999935" lon="-1.2841759999999995">
        <ele>1255.209</ele>
        <time>2022-08-24T10:15:04Z</time>
      </trkpt>
      <trkpt lat="43.03825099999935" lon="-1.2841949999999995">
        <ele>1255.253</ele>
        <time>2022-08-24T10:15:05Z</time>
      </trkpt>
      <trkpt lat="43.03824199999935" lon="-1.2842139999999995">
        <ele>1255.263</ele>
        <time>2022-08-24T10:15:06Z</time>
      </trkpt>
      <trkpt lat="43.03824299999935" lon="-1.2842319999999996">
        <ele>1255.443</ele>
        <time>2022-08-24T10:15:07Z</time>
      </trkpt>
      <trkpt lat="43.038246999999345" lon="-1.2842489999999995">
        <ele>1255.499</ele>
        <time>2022-08-24T10:15:08Z</time>
      </trkpt>
      <trkpt lat="43.038243999999345" lon="-1.2842679999999995">
        <ele>1255.631</ele>
        <time>2022-08-24T10:15:09Z</time>
      </trkpt>
      <trkpt lat="43.038252999999344" lon="-1.2842799999999994">
        <ele>1255.628</ele>
        <time>2022-08-24T10:15:10Z</time>
      </trkpt>
      <trkpt lat="43.038257999999345" lon="-1.2842899999999995">
        <ele>1255.841</ele>
        <time>2022-08-24T10:15:11Z</time>
      </trkpt>
      <trkpt lat="43.03825899999934" lon="-1.2843049999999996">
        <ele>1255.885</ele>
        <time>2022-08-24T10:15:12Z</time>
      </trkpt>
      <trkpt lat="43.03825699999934" lon="-1.2843219999999995">
        <ele>1256.014</ele>
        <time>2022-08-24T10:15:13Z</time>
      </trkpt>
      <trkpt lat="43.038252999999344" lon="-1.2843359999999995">
        <ele>1256.447</ele>
        <time>2022-08-24T10:15:14Z</time>
      </trkpt>
      <trkpt lat="43.038246999999345" lon="-1.2843519999999995">
        <ele>1256.429</ele>
        <time>2022-08-24T10:15:15Z</time>
      </trkpt>
      <trkpt lat="43.03823999999935" lon="-1.2843739999999995">
        <ele>1256.421</ele>
        <time>2022-08-24T10:15:16Z</time>
      </trkpt>
      <trkpt lat="43.03823199999935" lon="-1.2843899999999995">
        <ele>1256.609</ele>
        <time>2022-08-24T10:15:17Z</time>
      </trkpt>
      <trkpt lat="43.03822799999935" lon="-1.2844119999999994">
        <ele>1256.675</ele>
        <time>2022-08-24T10:15:18Z</time>
      </trkpt>
      <trkpt lat="43.03821999999935" lon="-1.2844279999999995">
        <ele>1256.635</ele>
        <time>2022-08-24T10:15:19Z</time>
      </trkpt>
      <trkpt lat="43.03821999999935" lon="-1.2844479999999994">
        <ele>1256.645</ele>
        <time>2022-08-24T10:15:20Z</time>
      </trkpt>
      <trkpt lat="43.03821699999935" lon="-1.2844659999999994">
        <ele>1256.831</ele>
        <time>2022-08-24T10:15:21Z</time>
      </trkpt>
      <trkpt lat="43.03821299999935" lon="-1.2844859999999994">
        <ele>1256.863</ele>
        <time>2022-08-24T10:15:22Z</time>
      </trkpt>
      <trkpt lat="43.038211999999355" lon="-1.2844979999999993">
        <ele>1257.060</ele>
        <time>2022-08-24T10:15:23Z</time>
      </trkpt>
      <trkpt lat="43.03820699999935" lon="-1.2845129999999993">
        <ele>1257.263</ele>
        <time>2022-08-24T10:15:24Z</time>
      </trkpt>
      <trkpt lat="43.038203999999354" lon="-1.2845279999999994">
        <ele>1257.267</ele>
        <time>2022-08-24T10:15:25Z</time>
      </trkpt>
      <trkpt lat="43.038203999999354" lon="-1.2845409999999995">
        <ele>1257.696</ele>
        <time>2022-08-24T10:15:26Z</time>
      </trkpt>
      <trkpt lat="43.038203999999354" lon="-1.2845539999999995">
        <ele>1257.887</ele>
        <time>2022-08-24T10:15:27Z</time>
      </trkpt>
      <trkpt lat="43.038202999999356" lon="-1.2845669999999996">
        <ele>1257.842</ele>
        <time>2022-08-24T10:15:28Z</time>
      </trkpt>
      <trkpt lat="43.038200999999354" lon="-1.2845789999999995">
        <ele>1258.026</ele>
        <time>2022-08-24T10:15:29Z</time>
      </trkpt>
      <trkpt lat="43.038200999999354" lon="-1.2845929999999994">
        <ele>1258.409</ele>
        <time>2022-08-24T10:15:30Z</time>
      </trkpt>
      <trkpt lat="43.03820499999935" lon="-1.2846049999999993">
        <ele>1258.419</ele>
        <time>2022-08-24T10:15:31Z</time>
      </trkpt>
      <trkpt lat="43.03821099999935" lon="-1.2846159999999993">
        <ele>1258.869</ele>
        <time>2022-08-24T10:15:32Z</time>
      </trkpt>
      <trkpt lat="43.03821299999935" lon="-1.2846259999999994">
        <ele>1259.079</ele>
        <time>2022-08-24T10:15:33Z</time>
      </trkpt>
      <trkpt lat="43.03821099999935" lon="-1.2846399999999993">
        <ele>1259.055</ele>
        <time>2022-08-24T10:15:34Z</time>
      </trkpt>
      <trkpt lat="43.03821299999935" lon="-1.2846479999999993">
        <ele>1259.267</ele>
        <time>2022-08-24T10:15:35Z</time>
      </trkpt>
      <trkpt lat="43.038208999999355" lon="-1.2846509999999993">
        <ele>1259.434</ele>
        <time>2022-08-24T10:15:36Z</time>
      </trkpt>
      <trkpt lat="43.03820699999935" lon="-1.2846699999999993">
        <ele>1259.667</ele>
        <time>2022-08-24T10:15:37Z</time>
      </trkpt>
      <trkpt lat="43.038205999999356" lon="-1.2846869999999992">
        <ele>1259.671</ele>
        <time>2022-08-24T10:15:38Z</time>
      </trkpt>
      <trkpt lat="43.03820499999936" lon="-1.2847049999999993">
        <ele>1259.840</ele>
        <time>2022-08-24T10:15:39Z</time>
      </trkpt>
      <trkpt lat="43.03820399999936" lon="-1.2847249999999992">
        <ele>1260.015</ele>
        <time>2022-08-24T10:15:40Z</time>
      </trkpt>
      <trkpt lat="43.03820299999936" lon="-1.2847399999999993">
        <ele>1260.065</ele>
        <time>2022-08-24T10:15:41Z</time>
      </trkpt>
      <trkpt lat="43.03819799999936" lon="-1.2847539999999993">
        <ele>1260.011</ele>
        <time>2022-08-24T10:15:42Z</time>
      </trkpt>
      <trkpt lat="43.038193999999365" lon="-1.2847669999999993">
        <ele>1260.009</ele>
        <time>2022-08-24T10:15:43Z</time>
      </trkpt>
      <trkpt lat="43.038193999999365" lon="-1.2847819999999994">
        <ele>1260.252</ele>
        <time>2022-08-24T10:15:44Z</time>
      </trkpt>
      <trkpt lat="43.03819299999937" lon="-1.2847959999999994">
        <ele>1260.232</ele>
        <time>2022-08-24T10:15:45Z</time>
      </trkpt>
      <trkpt lat="43.03818099999937" lon="-1.2848109999999995">
        <ele>1260.432</ele>
        <time>2022-08-24T10:15:46Z</time>
      </trkpt>
      <trkpt lat="43.03817599999937" lon="-1.2848259999999996">
        <ele>1260.458</ele>
        <time>2022-08-24T10:15:47Z</time>
      </trkpt>
      <trkpt lat="43.038173999999366" lon="-1.2848389999999996">
        <ele>1260.650</ele>
        <time>2022-08-24T10:15:48Z</time>
      </trkpt>
      <trkpt lat="43.038173999999366" lon="-1.2848539999999997">
        <ele>1261.047</ele>
        <time>2022-08-24T10:15:49Z</time>
      </trkpt>
      <trkpt lat="43.038176999999365" lon="-1.2848629999999996">
        <ele>1261.060</ele>
        <time>2022-08-24T10:15:50Z</time>
      </trkpt>
      <trkpt lat="43.038173999999366" lon="-1.2848759999999997">
        <ele>1261.274</ele>
        <time>2022-08-24T10:15:51Z</time>
      </trkpt>
      <trkpt lat="43.03817199999936" lon="-1.2848849999999996">
        <ele>1261.483</ele>
        <time>2022-08-24T10:15:52Z</time>
      </trkpt>
      <trkpt lat="43.038168999999364" lon="-1.2848899999999996">
        <ele>1261.456</ele>
        <time>2022-08-24T10:15:53Z</time>
      </trkpt>
      <trkpt lat="43.03816499999937" lon="-1.2849039999999996">
        <ele>1261.659</ele>
        <time>2022-08-24T10:15:54Z</time>
      </trkpt>
      <trkpt lat="43.03816399999937" lon="-1.2849199999999996">
        <ele>1261.814</ele>
        <time>2022-08-24T10:15:55Z</time>
      </trkpt>
      <trkpt lat="43.03816399999937" lon="-1.2849329999999997">
        <ele>1262.009</ele>
        <time>2022-08-24T10:15:56Z</time>
      </trkpt>
      <trkpt lat="43.03816299999937" lon="-1.2849449999999996">
        <ele>1262.096</ele>
        <time>2022-08-24T10:15:57Z</time>
      </trkpt>
      <trkpt lat="43.03815999999937" lon="-1.2849599999999997">
        <ele>1262.256</ele>
        <time>2022-08-24T10:15:58Z</time>
      </trkpt>
      <trkpt lat="43.03815199999937" lon="-1.2849749999999998">
        <ele>1262.436</ele>
        <time>2022-08-24T10:15:59Z</time>
      </trkpt>
      <trkpt lat="43.038147999999374" lon="-1.2849909999999998">
        <ele>1262.632</ele>
        <time>2022-08-24T10:16:00Z</time>
      </trkpt>
      <trkpt lat="43.03814399999938" lon="-1.2850099999999998">
        <ele>1262.664</ele>
        <time>2022-08-24T10:16:01Z</time>
      </trkpt>
      <trkpt lat="43.038130999999375" lon="-1.2850279999999998">
        <ele>1262.881</ele>
        <time>2022-08-24T10:16:02Z</time>
      </trkpt>
      <trkpt lat="43.038127999999375" lon="-1.2850419999999998">
        <ele>1263.024</ele>
        <time>2022-08-24T10:16:03Z</time>
      </trkpt>
      <trkpt lat="43.03811899999938" lon="-1.285057">
        <ele>1263.278</ele>
        <time>2022-08-24T10:16:04Z</time>
      </trkpt>
      <trkpt lat="43.038116999999374" lon="-1.2850739999999998">
        <ele>1263.457</ele>
        <time>2022-08-24T10:16:05Z</time>
      </trkpt>
      <trkpt lat="43.03811799999937" lon="-1.2850859999999997">
        <ele>1263.851</ele>
        <time>2022-08-24T10:16:06Z</time>
      </trkpt>
      <trkpt lat="43.03811899999937" lon="-1.2850979999999996">
        <ele>1263.801</ele>
        <time>2022-08-24T10:16:07Z</time>
      </trkpt>
      <trkpt lat="43.03811699999937" lon="-1.2851089999999996">
        <ele>1264.011</ele>
        <time>2022-08-24T10:16:08Z</time>
      </trkpt>
      <trkpt lat="43.03811599999937" lon="-1.2851229999999996">
        <ele>1264.009</ele>
        <time>2022-08-24T10:16:09Z</time>
      </trkpt>
      <trkpt lat="43.03811299999937" lon="-1.2851389999999996">
        <ele>1264.026</ele>
        <time>2022-08-24T10:16:10Z</time>
      </trkpt>
      <trkpt lat="43.03811299999937" lon="-1.2851529999999995">
        <ele>1264.246</ele>
        <time>2022-08-24T10:16:11Z</time>
      </trkpt>
      <trkpt lat="43.03811199999937" lon="-1.2851649999999994">
        <ele>1264.446</ele>
        <time>2022-08-24T10:16:12Z</time>
      </trkpt>
      <trkpt lat="43.03811199999937" lon="-1.2851759999999994">
        <ele>1264.622</ele>
        <time>2022-08-24T10:16:13Z</time>
      </trkpt>
      <trkpt lat="43.038110999999375" lon="-1.2851859999999995">
        <ele>1264.634</ele>
        <time>2022-08-24T10:16:14Z</time>
      </trkpt>
      <trkpt lat="43.03810699999938" lon="-1.2851979999999994">
        <ele>1264.861</ele>
        <time>2022-08-24T10:16:15Z</time>
      </trkpt>
      <trkpt lat="43.038107999999376" lon="-1.2852089999999994">
        <ele>1264.864</ele>
        <time>2022-08-24T10:16:16Z</time>
      </trkpt>
      <trkpt lat="43.038110999999375" lon="-1.2852209999999993">
        <ele>1265.048</ele>
        <time>2022-08-24T10:16:17Z</time>
      </trkpt>
      <trkpt lat="43.03810699999938" lon="-1.2852369999999993">
        <ele>1265.017</ele>
        <time>2022-08-24T10:16:18Z</time>
      </trkpt>
      <trkpt lat="43.03810199999938" lon="-1.2852519999999994">
        <ele>1265.299</ele>
        <time>2022-08-24T10:16:19Z</time>
      </trkpt>
      <trkpt lat="43.038096999999375" lon="-1.2852659999999994">
        <ele>1265.207</ele>
        <time>2022-08-24T10:16:20Z</time>
      </trkpt>
      <trkpt lat="43.03808999999938" lon="-1.2852849999999993">
        <ele>1265.227</ele>
        <time>2022-08-24T10:16:21Z</time>
      </trkpt>
      <trkpt lat="43.03808599999938" lon="-1.2853039999999993">
        <ele>1265.409</ele>
        <time>2022-08-24T10:16:22Z</time>
      </trkpt>
      <trkpt lat="43.038084999999384" lon="-1.2853209999999993">
        <ele>1265.440</ele>
        <time>2022-08-24T10:16:23Z</time>
      </trkpt>
      <trkpt lat="43.03807799999939" lon="-1.2853409999999992">
        <ele>1265.470</ele>
        <time>2022-08-24T10:16:24Z</time>
      </trkpt>
      <trkpt lat="43.03807099999939" lon="-1.2853559999999993">
        <ele>1265.670</ele>
        <time>2022-08-24T10:16:25Z</time>
      </trkpt>
      <trkpt lat="43.03806899999939" lon="-1.2853729999999992">
        <ele>1265.886</ele>
        <time>2022-08-24T10:16:26Z</time>
      </trkpt>
      <trkpt lat="43.03806799999939" lon="-1.2853899999999991">
        <ele>1266.018</ele>
        <time>2022-08-24T10:16:27Z</time>
      </trkpt>
      <trkpt lat="43.03806599999939" lon="-1.285406999999999">
        <ele>1266.065</ele>
        <time>2022-08-24T10:16:28Z</time>
      </trkpt>
      <trkpt lat="43.03806399999939" lon="-1.2854199999999991">
        <ele>1266.268</ele>
        <time>2022-08-24T10:16:29Z</time>
      </trkpt>
      <trkpt lat="43.03806399999939" lon="-1.285430999999999">
        <ele>1266.282</ele>
        <time>2022-08-24T10:16:30Z</time>
      </trkpt>
      <trkpt lat="43.03806699999939" lon="-1.2854469999999991">
        <ele>1266.471</ele>
        <time>2022-08-24T10:16:31Z</time>
      </trkpt>
      <trkpt lat="43.03805999999939" lon="-1.285468999999999">
        <ele>1266.458</ele>
        <time>2022-08-24T10:16:32Z</time>
      </trkpt>
      <trkpt lat="43.03805599999939" lon="-1.285488999999999">
        <ele>1266.652</ele>
        <time>2022-08-24T10:16:33Z</time>
      </trkpt>
      <trkpt lat="43.038052999999394" lon="-1.285507999999999">
        <ele>1266.617</ele>
        <time>2022-08-24T10:16:35Z</time>
      </trkpt>
      <trkpt lat="43.0380459999994" lon="-1.285527999999999">
        <ele>1266.609</ele>
        <time>2022-08-24T10:16:36Z</time>
      </trkpt>
      <trkpt lat="43.0380389999994" lon="-1.2855449999999988">
        <ele>1266.896</ele>
        <time>2022-08-24T10:16:37Z</time>
      </trkpt>
      <trkpt lat="43.038031999999404" lon="-1.2855689999999989">
        <ele>1267.046</ele>
        <time>2022-08-24T10:16:38Z</time>
      </trkpt>
      <trkpt lat="43.0380269999994" lon="-1.2855969999999988">
        <ele>1267.026</ele>
        <time>2022-08-24T10:16:39Z</time>
      </trkpt>
      <trkpt lat="43.038014999999405" lon="-1.2856249999999987">
        <ele>1267.232</ele>
        <time>2022-08-24T10:16:40Z</time>
      </trkpt>
      <trkpt lat="43.038008999999406" lon="-1.2856559999999986">
        <ele>1267.264</ele>
        <time>2022-08-24T10:16:41Z</time>
      </trkpt>
      <trkpt lat="43.03800799999941" lon="-1.2856839999999985">
        <ele>1267.451</ele>
        <time>2022-08-24T10:16:42Z</time>
      </trkpt>
      <trkpt lat="43.03800699999941" lon="-1.2857109999999985">
        <ele>1267.434</ele>
        <time>2022-08-24T10:16:43Z</time>
      </trkpt>
      <trkpt lat="43.03800099999941" lon="-1.2857389999999984">
        <ele>1267.458</ele>
        <time>2022-08-24T10:16:44Z</time>
      </trkpt>
      <trkpt lat="43.037996999999415" lon="-1.2857629999999984">
        <ele>1267.477</ele>
        <time>2022-08-24T10:16:45Z</time>
      </trkpt>
      <trkpt lat="43.037987999999416" lon="-1.2857869999999985">
        <ele>1267.643</ele>
        <time>2022-08-24T10:16:46Z</time>
      </trkpt>
      <trkpt lat="43.03797899999942" lon="-1.2858059999999985">
        <ele>1267.664</ele>
        <time>2022-08-24T10:16:47Z</time>
      </trkpt>
      <trkpt lat="43.037973999999416" lon="-1.2858299999999985">
        <ele>1267.610</ele>
        <time>2022-08-24T10:16:48Z</time>
      </trkpt>
      <trkpt lat="43.03796499999942" lon="-1.2858549999999984">
        <ele>1267.609</ele>
        <time>2022-08-24T10:16:49Z</time>
      </trkpt>
      <trkpt lat="43.037956999999416" lon="-1.2858839999999985">
        <ele>1267.625</ele>
        <time>2022-08-24T10:16:50Z</time>
      </trkpt>
      <trkpt lat="43.037956999999416" lon="-1.2859129999999985">
        <ele>1267.855</ele>
        <time>2022-08-24T10:16:51Z</time>
      </trkpt>
      <trkpt lat="43.037945999999415" lon="-1.2859489999999985">
        <ele>1267.885</ele>
        <time>2022-08-24T10:16:52Z</time>
      </trkpt>
      <trkpt lat="43.03794199999942" lon="-1.2860169999999984">
        <ele>1268.021</ele>
        <time>2022-08-24T10:16:54Z</time>
      </trkpt>
      <trkpt lat="43.03793899999942" lon="-1.2860539999999985">
        <ele>1268.013</ele>
        <time>2022-08-24T10:16:55Z</time>
      </trkpt>
      <trkpt lat="43.03793199999942" lon="-1.2861259999999985">
        <ele>1268.420</ele>
        <time>2022-08-24T10:16:57Z</time>
      </trkpt>
      <trkpt lat="43.03792999999942" lon="-1.2861689999999986">
        <ele>1268.413</ele>
        <time>2022-08-24T10:16:58Z</time>
      </trkpt>
      <trkpt lat="43.03790699999942" lon="-1.2862519999999986">
        <ele>1268.617</ele>
        <time>2022-08-24T10:17:00Z</time>
      </trkpt>
      <trkpt lat="43.03788999999942" lon="-1.2862959999999986">
        <ele>1268.836</ele>
        <time>2022-08-24T10:17:01Z</time>
      </trkpt>
      <trkpt lat="43.037871999999425" lon="-1.2863389999999986">
        <ele>1268.865</ele>
        <time>2022-08-24T10:17:02Z</time>
      </trkpt>
      <trkpt lat="43.03785699999943" lon="-1.2863669999999985">
        <ele>1269.068</ele>
        <time>2022-08-24T10:17:03Z</time>
      </trkpt>
      <trkpt lat="43.03786399999942" lon="-1.2864169999999986">
        <ele>1269.214</ele>
        <time>2022-08-24T10:17:05Z</time>
      </trkpt>
      <trkpt lat="43.03785599999942" lon="-1.2864649999999986">
        <ele>1269.209</ele>
        <time>2022-08-24T10:17:06Z</time>
      </trkpt>
      <trkpt lat="43.03784199999942" lon="-1.2864989999999987">
        <ele>1269.287</ele>
        <time>2022-08-24T10:17:07Z</time>
      </trkpt>
      <trkpt lat="43.03783399999942" lon="-1.2865299999999986">
        <ele>1269.457</ele>
        <time>2022-08-24T10:17:08Z</time>
      </trkpt>
      <trkpt lat="43.03782799999942" lon="-1.2866139999999986">
        <ele>1269.257</ele>
        <time>2022-08-24T10:17:10Z</time>
      </trkpt>
      <trkpt lat="43.03780299999942" lon="-1.2867499999999985">
        <ele>1269.473</ele>
        <time>2022-08-24T10:17:14Z</time>
      </trkpt>
      <trkpt lat="43.03779099999942" lon="-1.2868109999999986">
        <ele>1269.445</ele>
        <time>2022-08-24T10:17:16Z</time>
      </trkpt>
      <trkpt lat="43.03778799999942" lon="-1.2868359999999985">
        <ele>1269.432</ele>
        <time>2022-08-24T10:17:17Z</time>
      </trkpt>
      <trkpt lat="43.03778399999943" lon="-1.2868619999999986">
        <ele>1269.485</ele>
        <time>2022-08-24T10:17:18Z</time>
      </trkpt>
      <trkpt lat="43.03775799999943" lon="-1.2869559999999987">
        <ele>1269.279</ele>
        <time>2022-08-24T10:17:22Z</time>
      </trkpt>
      <trkpt lat="43.03775199999943" lon="-1.2869759999999986">
        <ele>1269.248</ele>
        <time>2022-08-24T10:17:23Z</time>
      </trkpt>
      <trkpt lat="43.03768599999943" lon="-1.2872049999999986">
        <ele>1269.228</ele>
        <time>2022-08-24T10:17:30Z</time>
      </trkpt>
      <trkpt lat="43.03766199999943" lon="-1.2873639999999986">
        <ele>1268.489</ele>
        <time>2022-08-24T10:17:34Z</time>
      </trkpt>
      <trkpt lat="43.03764299999943" lon="-1.2874359999999987">
        <ele>1268.217</ele>
        <time>2022-08-24T10:17:36Z</time>
      </trkpt>
      <trkpt lat="43.037632999999424" lon="-1.2874679999999987">
        <ele>1268.009</ele>
        <time>2022-08-24T10:17:37Z</time>
      </trkpt>
      <trkpt lat="43.03762199999942" lon="-1.2874999999999988">
        <ele>1267.673</ele>
        <time>2022-08-24T10:17:38Z</time>
      </trkpt>
      <trkpt lat="43.03760299999942" lon="-1.2875659999999987">
        <ele>1267.453</ele>
        <time>2022-08-24T10:17:40Z</time>
      </trkpt>
      <trkpt lat="43.03757899999942" lon="-1.2876329999999987">
        <ele>1267.223</ele>
        <time>2022-08-24T10:17:42Z</time>
      </trkpt>
      <trkpt lat="43.03756699999942" lon="-1.2876639999999986">
        <ele>1267.299</ele>
        <time>2022-08-24T10:17:43Z</time>
      </trkpt>
      <trkpt lat="43.03755599999942" lon="-1.2876899999999987">
        <ele>1267.221</ele>
        <time>2022-08-24T10:17:44Z</time>
      </trkpt>
      <trkpt lat="43.03754699999942" lon="-1.2877139999999987">
        <ele>1267.248</ele>
        <time>2022-08-24T10:17:45Z</time>
      </trkpt>
      <trkpt lat="43.03753499999942" lon="-1.2877399999999988">
        <ele>1267.231</ele>
        <time>2022-08-24T10:17:46Z</time>
      </trkpt>
      <trkpt lat="43.037522999999425" lon="-1.2877659999999989">
        <ele>1267.465</ele>
        <time>2022-08-24T10:17:47Z</time>
      </trkpt>
      <trkpt lat="43.03751499999942" lon="-1.2877909999999988">
        <ele>1267.674</ele>
        <time>2022-08-24T10:17:48Z</time>
      </trkpt>
      <trkpt lat="43.037505999999425" lon="-1.2878149999999988">
        <ele>1267.652</ele>
        <time>2022-08-24T10:17:49Z</time>
      </trkpt>
      <trkpt lat="43.037497999999424" lon="-1.287837999999999">
        <ele>1268.053</ele>
        <time>2022-08-24T10:17:50Z</time>
      </trkpt>
      <trkpt lat="43.03748999999942" lon="-1.287858999999999">
        <ele>1268.608</ele>
        <time>2022-08-24T10:17:51Z</time>
      </trkpt>
      <trkpt lat="43.03748499999942" lon="-1.287879999999999">
        <ele>1268.809</ele>
        <time>2022-08-24T10:17:52Z</time>
      </trkpt>
      <trkpt lat="43.03747999999942" lon="-1.287900999999999">
        <ele>1269.256</ele>
        <time>2022-08-24T10:17:53Z</time>
      </trkpt>
      <trkpt lat="43.03747699999942" lon="-1.287919999999999">
        <ele>1269.286</ele>
        <time>2022-08-24T10:17:54Z</time>
      </trkpt>
      <trkpt lat="43.03747099999942" lon="-1.2879409999999991">
        <ele>1269.876</ele>
        <time>2022-08-24T10:17:55Z</time>
      </trkpt>
      <trkpt lat="43.03746299999942" lon="-1.2879839999999991">
        <ele>1270.482</ele>
        <time>2022-08-24T10:17:57Z</time>
      </trkpt>
      <trkpt lat="43.03744999999942" lon="-1.2880459999999991">
        <ele>1271.054</ele>
        <time>2022-08-24T10:18:00Z</time>
      </trkpt>
      <trkpt lat="43.03744299999942" lon="-1.2880639999999992">
        <ele>1271.241</ele>
        <time>2022-08-24T10:18:01Z</time>
      </trkpt>
      <trkpt lat="43.03743499999942" lon="-1.2880789999999993">
        <ele>1271.464</ele>
        <time>2022-08-24T10:18:02Z</time>
      </trkpt>
      <trkpt lat="43.03742699999942" lon="-1.2880909999999992">
        <ele>1271.468</ele>
        <time>2022-08-24T10:18:03Z</time>
      </trkpt>
      <trkpt lat="43.03742099999942" lon="-1.2881059999999993">
        <ele>1271.847</ele>
        <time>2022-08-24T10:18:04Z</time>
      </trkpt>
      <trkpt lat="43.03741499999942" lon="-1.2881209999999994">
        <ele>1272.023</ele>
        <time>2022-08-24T10:18:05Z</time>
      </trkpt>
      <trkpt lat="43.03740999999942" lon="-1.2881369999999994">
        <ele>1272.283</ele>
        <time>2022-08-24T10:18:06Z</time>
      </trkpt>
      <trkpt lat="43.03740499999942" lon="-1.2881549999999995">
        <ele>1272.411</ele>
        <time>2022-08-24T10:18:07Z</time>
      </trkpt>
      <trkpt lat="43.03740199999942" lon="-1.2881709999999995">
        <ele>1272.409</ele>
        <time>2022-08-24T10:18:08Z</time>
      </trkpt>
      <trkpt lat="43.03739499999942" lon="-1.2881869999999995">
        <ele>1272.853</ele>
        <time>2022-08-24T10:18:09Z</time>
      </trkpt>
      <trkpt lat="43.03738899999942" lon="-1.2881999999999996">
        <ele>1273.043</ele>
        <time>2022-08-24T10:18:10Z</time>
      </trkpt>
      <trkpt lat="43.03738099999942" lon="-1.2882159999999996">
        <ele>1273.063</ele>
        <time>2022-08-24T10:18:11Z</time>
      </trkpt>
      <trkpt lat="43.037376999999424" lon="-1.2882339999999997">
        <ele>1273.459</ele>
        <time>2022-08-24T10:18:12Z</time>
      </trkpt>
      <trkpt lat="43.03737299999943" lon="-1.2882509999999996">
        <ele>1273.621</ele>
        <time>2022-08-24T10:18:13Z</time>
      </trkpt>
      <trkpt lat="43.03736899999943" lon="-1.2882699999999996">
        <ele>1273.688</ele>
        <time>2022-08-24T10:18:14Z</time>
      </trkpt>
      <trkpt lat="43.03736599999943" lon="-1.2882859999999996">
        <ele>1273.831</ele>
        <time>2022-08-24T10:18:15Z</time>
      </trkpt>
      <trkpt lat="43.03736499999943" lon="-1.2882979999999995">
        <ele>1273.855</ele>
        <time>2022-08-24T10:18:16Z</time>
      </trkpt>
      <trkpt lat="43.03736499999943" lon="-1.2883139999999995">
        <ele>1274.054</ele>
        <time>2022-08-24T10:18:17Z</time>
      </trkpt>
      <trkpt lat="43.03736299999943" lon="-1.2883299999999995">
        <ele>1274.052</ele>
        <time>2022-08-24T10:18:18Z</time>
      </trkpt>
      <trkpt lat="43.037355999999434" lon="-1.2883459999999995">
        <ele>1274.253</ele>
        <time>2022-08-24T10:18:19Z</time>
      </trkpt>
      <trkpt lat="43.037349999999435" lon="-1.2883619999999996">
        <ele>1274.208</ele>
        <time>2022-08-24T10:18:20Z</time>
      </trkpt>
      <trkpt lat="43.037341999999434" lon="-1.2883769999999997">
        <ele>1274.409</ele>
        <time>2022-08-24T10:18:21Z</time>
      </trkpt>
      <trkpt lat="43.03733699999943" lon="-1.2883899999999997">
        <ele>1274.486</ele>
        <time>2022-08-24T10:18:22Z</time>
      </trkpt>
      <trkpt lat="43.03733499999943" lon="-1.2884059999999997">
        <ele>1274.656</ele>
        <time>2022-08-24T10:18:23Z</time>
      </trkpt>
      <trkpt lat="43.03733199999943" lon="-1.2884189999999998">
        <ele>1274.856</ele>
        <time>2022-08-24T10:18:24Z</time>
      </trkpt>
      <trkpt lat="43.03733099999943" lon="-1.2884319999999998">
        <ele>1275.032</ele>
        <time>2022-08-24T10:18:25Z</time>
      </trkpt>
      <trkpt lat="43.037327999999434" lon="-1.2884439999999997">
        <ele>1275.284</ele>
        <time>2022-08-24T10:18:26Z</time>
      </trkpt>
      <trkpt lat="43.03732099999944" lon="-1.2884579999999997">
        <ele>1275.411</ele>
        <time>2022-08-24T10:18:27Z</time>
      </trkpt>
      <trkpt lat="43.037315999999436" lon="-1.2884699999999996">
        <ele>1275.694</ele>
        <time>2022-08-24T10:18:28Z</time>
      </trkpt>
      <trkpt lat="43.03730999999944" lon="-1.2884819999999995">
        <ele>1275.868</ele>
        <time>2022-08-24T10:18:29Z</time>
      </trkpt>
      <trkpt lat="43.037301999999436" lon="-1.2884969999999996">
        <ele>1275.837</ele>
        <time>2022-08-24T10:18:30Z</time>
      </trkpt>
      <trkpt lat="43.037290999999435" lon="-1.2885139999999995">
        <ele>1276.293</ele>
        <time>2022-08-24T10:18:31Z</time>
      </trkpt>
      <trkpt lat="43.03728099999943" lon="-1.2885329999999995">
        <ele>1276.465</ele>
        <time>2022-08-24T10:18:32Z</time>
      </trkpt>
      <trkpt lat="43.03727299999943" lon="-1.2885439999999995">
        <ele>1276.621</ele>
        <time>2022-08-24T10:18:33Z</time>
      </trkpt>
      <trkpt lat="43.03726399999943" lon="-1.2885589999999996">
        <ele>1276.609</ele>
        <time>2022-08-24T10:18:34Z</time>
      </trkpt>
      <trkpt lat="43.037256999999435" lon="-1.2885759999999995">
        <ele>1276.860</ele>
        <time>2022-08-24T10:18:35Z</time>
      </trkpt>
      <trkpt lat="43.037250999999436" lon="-1.2885969999999995">
        <ele>1276.850</ele>
        <time>2022-08-24T10:18:36Z</time>
      </trkpt>
      <trkpt lat="43.03724499999944" lon="-1.2886189999999995">
        <ele>1277.080</ele>
        <time>2022-08-24T10:18:37Z</time>
      </trkpt>
      <trkpt lat="43.03723899999944" lon="-1.2886399999999996">
        <ele>1277.066</ele>
        <time>2022-08-24T10:18:38Z</time>
      </trkpt>
      <trkpt lat="43.03723299999944" lon="-1.2886649999999995">
        <ele>1277.028</ele>
        <time>2022-08-24T10:18:39Z</time>
      </trkpt>
      <trkpt lat="43.03722399999944" lon="-1.2886889999999995">
        <ele>1277.025</ele>
        <time>2022-08-24T10:18:40Z</time>
      </trkpt>
      <trkpt lat="43.03720899999944" lon="-1.2887119999999996">
        <ele>1277.288</ele>
        <time>2022-08-24T10:18:41Z</time>
      </trkpt>
      <trkpt lat="43.03719899999944" lon="-1.2887309999999996">
        <ele>1277.262</ele>
        <time>2022-08-24T10:18:42Z</time>
      </trkpt>
      <trkpt lat="43.03718899999944" lon="-1.2887459999999997">
        <ele>1277.461</ele>
        <time>2022-08-24T10:18:43Z</time>
      </trkpt>
      <trkpt lat="43.037174999999436" lon="-1.2887649999999997">
        <ele>1277.694</ele>
        <time>2022-08-24T10:18:44Z</time>
      </trkpt>
      <trkpt lat="43.03716299999944" lon="-1.2887859999999998">
        <ele>1277.857</ele>
        <time>2022-08-24T10:18:45Z</time>
      </trkpt>
      <trkpt lat="43.037152999999435" lon="-1.2888099999999998">
        <ele>1277.822</ele>
        <time>2022-08-24T10:18:46Z</time>
      </trkpt>
      <trkpt lat="43.037141999999434" lon="-1.2888269999999997">
        <ele>1278.009</ele>
        <time>2022-08-24T10:18:47Z</time>
      </trkpt>
      <trkpt lat="43.037130999999434" lon="-1.2888459999999997">
        <ele>1278.030</ele>
        <time>2022-08-24T10:18:48Z</time>
      </trkpt>
      <trkpt lat="43.03712099999943" lon="-1.2888599999999997">
        <ele>1278.030</ele>
        <time>2022-08-24T10:18:49Z</time>
      </trkpt>
      <trkpt lat="43.03710899999943" lon="-1.2888769999999996">
        <ele>1278.030</ele>
        <time>2022-08-24T10:18:50Z</time>
      </trkpt>
      <trkpt lat="43.03709799999943" lon="-1.2888939999999995">
        <ele>1278.026</ele>
        <time>2022-08-24T10:18:51Z</time>
      </trkpt>
      <trkpt lat="43.03708499999943" lon="-1.2889159999999995">
        <ele>1278.058</ele>
        <time>2022-08-24T10:18:52Z</time>
      </trkpt>
      <trkpt lat="43.03707599999943" lon="-1.2889349999999995">
        <ele>1278.235</ele>
        <time>2022-08-24T10:18:53Z</time>
      </trkpt>
      <trkpt lat="43.03706699999943" lon="-1.2889489999999995">
        <ele>1278.288</ele>
        <time>2022-08-24T10:18:54Z</time>
      </trkpt>
      <trkpt lat="43.037054999999434" lon="-1.2889659999999994">
        <ele>1278.262</ele>
        <time>2022-08-24T10:18:55Z</time>
      </trkpt>
      <trkpt lat="43.03704199999943" lon="-1.2889879999999994">
        <ele>1278.281</ele>
        <time>2022-08-24T10:18:56Z</time>
      </trkpt>
      <trkpt lat="43.03702799999943" lon="-1.2890139999999994">
        <ele>1278.238</ele>
        <time>2022-08-24T10:18:57Z</time>
      </trkpt>
      <trkpt lat="43.03701599999943" lon="-1.2890349999999995">
        <ele>1278.270</ele>
        <time>2022-08-24T10:18:58Z</time>
      </trkpt>
      <trkpt lat="43.03700499999943" lon="-1.2890549999999994">
        <ele>1278.217</ele>
        <time>2022-08-24T10:18:59Z</time>
      </trkpt>
      <trkpt lat="43.036997999999436" lon="-1.2890709999999994">
        <ele>1278.209</ele>
        <time>2022-08-24T10:19:00Z</time>
      </trkpt>
      <trkpt lat="43.03697999999944" lon="-1.2891119999999994">
        <ele>1278.224</ele>
        <time>2022-08-24T10:19:02Z</time>
      </trkpt>
      <trkpt lat="43.03697199999944" lon="-1.2891339999999993">
        <ele>1278.214</ele>
        <time>2022-08-24T10:19:03Z</time>
      </trkpt>
      <trkpt lat="43.03695499999944" lon="-1.2891749999999993">
        <ele>1278.244</ele>
        <time>2022-08-24T10:19:05Z</time>
      </trkpt>
      <trkpt lat="43.03694699999944" lon="-1.2891939999999993">
        <ele>1278.020</ele>
        <time>2022-08-24T10:19:06Z</time>
      </trkpt>
      <trkpt lat="43.03693799999944" lon="-1.2892159999999993">
        <ele>1278.042</ele>
        <time>2022-08-24T10:19:07Z</time>
      </trkpt>
      <trkpt lat="43.03691499999944" lon="-1.2892819999999992">
        <ele>1278.079</ele>
        <time>2022-08-24T10:19:10Z</time>
      </trkpt>
      <trkpt lat="43.03690099999944" lon="-1.289322999999999">
        <ele>1278.042</ele>
        <time>2022-08-24T10:19:12Z</time>
      </trkpt>
      <trkpt lat="43.03689599999944" lon="-1.2893489999999992">
        <ele>1277.826</ele>
        <time>2022-08-24T10:19:13Z</time>
      </trkpt>
      <trkpt lat="43.03689199999944" lon="-1.2893699999999992">
        <ele>1277.845</ele>
        <time>2022-08-24T10:19:14Z</time>
      </trkpt>
      <trkpt lat="43.03688599999944" lon="-1.2893919999999992">
        <ele>1278.044</ele>
        <time>2022-08-24T10:19:15Z</time>
      </trkpt>
      <trkpt lat="43.03687999999944" lon="-1.2894089999999991">
        <ele>1278.005</ele>
        <time>2022-08-24T10:19:16Z</time>
      </trkpt>
      <trkpt lat="43.036861999999445" lon="-1.289479999999999">
        <ele>1277.815</ele>
        <time>2022-08-24T10:19:19Z</time>
      </trkpt>
      <trkpt lat="43.03685799999945" lon="-1.2895009999999991">
        <ele>1277.809</ele>
        <time>2022-08-24T10:19:20Z</time>
      </trkpt>
      <trkpt lat="43.03685399999945" lon="-1.2895169999999991">
        <ele>1277.865</ele>
        <time>2022-08-24T10:19:21Z</time>
      </trkpt>
      <trkpt lat="43.03684899999945" lon="-1.289538999999999">
        <ele>1277.855</ele>
        <time>2022-08-24T10:19:22Z</time>
      </trkpt>
      <trkpt lat="43.03684299999945" lon="-1.289563999999999">
        <ele>1277.875</ele>
        <time>2022-08-24T10:19:23Z</time>
      </trkpt>
      <trkpt lat="43.03683899999945" lon="-1.289583999999999">
        <ele>1277.881</ele>
        <time>2022-08-24T10:19:24Z</time>
      </trkpt>
      <trkpt lat="43.03683399999945" lon="-1.289602999999999">
        <ele>1277.823</ele>
        <time>2022-08-24T10:19:25Z</time>
      </trkpt>
      <trkpt lat="43.03683099999945" lon="-1.289618999999999">
        <ele>1277.850</ele>
        <time>2022-08-24T10:19:26Z</time>
      </trkpt>
      <trkpt lat="43.03682599999945" lon="-1.289637999999999">
        <ele>1277.663</ele>
        <time>2022-08-24T10:19:27Z</time>
      </trkpt>
      <trkpt lat="43.03680799999945" lon="-1.289712999999999">
        <ele>1277.677</ele>
        <time>2022-08-24T10:19:31Z</time>
      </trkpt>
      <trkpt lat="43.03680399999946" lon="-1.289733999999999">
        <ele>1277.636</ele>
        <time>2022-08-24T10:19:32Z</time>
      </trkpt>
      <trkpt lat="43.03679999999946" lon="-1.289752999999999">
        <ele>1277.656</ele>
        <time>2022-08-24T10:19:33Z</time>
      </trkpt>
      <trkpt lat="43.03679399999946" lon="-1.2897759999999991">
        <ele>1277.859</ele>
        <time>2022-08-24T10:19:34Z</time>
      </trkpt>
      <trkpt lat="43.03678199999946" lon="-1.2898319999999992">
        <ele>1277.814</ele>
        <time>2022-08-24T10:19:37Z</time>
      </trkpt>
      <trkpt lat="43.03677599999946" lon="-1.2898499999999993">
        <ele>1278.009</ele>
        <time>2022-08-24T10:19:38Z</time>
      </trkpt>
      <trkpt lat="43.03676899999947" lon="-1.2898699999999992">
        <ele>1278.236</ele>
        <time>2022-08-24T10:19:39Z</time>
      </trkpt>
      <trkpt lat="43.036763999999465" lon="-1.2898859999999992">
        <ele>1278.286</ele>
        <time>2022-08-24T10:19:40Z</time>
      </trkpt>
      <trkpt lat="43.03675899999946" lon="-1.2899019999999992">
        <ele>1278.456</ele>
        <time>2022-08-24T10:19:41Z</time>
      </trkpt>
      <trkpt lat="43.03674899999946" lon="-1.2900009999999993">
        <ele>1278.852</ele>
        <time>2022-08-24T10:19:46Z</time>
      </trkpt>
      <trkpt lat="43.03674599999946" lon="-1.2900169999999993">
        <ele>1279.064</ele>
        <time>2022-08-24T10:19:47Z</time>
      </trkpt>
      <trkpt lat="43.03674299999946" lon="-1.2900369999999992">
        <ele>1279.041</ele>
        <time>2022-08-24T10:19:48Z</time>
      </trkpt>
      <trkpt lat="43.03673399999946" lon="-1.2901039999999993">
        <ele>1279.034</ele>
        <time>2022-08-24T10:19:51Z</time>
      </trkpt>
      <trkpt lat="43.03673099999946" lon="-1.2901199999999993">
        <ele>1279.028</ele>
        <time>2022-08-24T10:19:52Z</time>
      </trkpt>
      <trkpt lat="43.036726999999466" lon="-1.2901329999999993">
        <ele>1279.037</ele>
        <time>2022-08-24T10:19:53Z</time>
      </trkpt>
      <trkpt lat="43.03672299999947" lon="-1.2901489999999993">
        <ele>1279.215</ele>
        <time>2022-08-24T10:19:54Z</time>
      </trkpt>
      <trkpt lat="43.03671899999947" lon="-1.2901689999999992">
        <ele>1279.265</ele>
        <time>2022-08-24T10:19:55Z</time>
      </trkpt>
      <trkpt lat="43.03671699999947" lon="-1.2901839999999993">
        <ele>1279.411</ele>
        <time>2022-08-24T10:19:56Z</time>
      </trkpt>
      <trkpt lat="43.03671299999947" lon="-1.2901989999999994">
        <ele>1279.409</ele>
        <time>2022-08-24T10:19:57Z</time>
      </trkpt>
      <trkpt lat="43.036706999999474" lon="-1.2902119999999995">
        <ele>1279.662</ele>
        <time>2022-08-24T10:19:58Z</time>
      </trkpt>
      <trkpt lat="43.036703999999474" lon="-1.2902239999999994">
        <ele>1279.642</ele>
        <time>2022-08-24T10:19:59Z</time>
      </trkpt>
      <trkpt lat="43.036694999999476" lon="-1.2902389999999995">
        <ele>1279.812</ele>
        <time>2022-08-24T10:20:00Z</time>
      </trkpt>
      <trkpt lat="43.03668899999948" lon="-1.2902549999999995">
        <ele>1279.868</ele>
        <time>2022-08-24T10:20:01Z</time>
      </trkpt>
      <trkpt lat="43.03668599999948" lon="-1.2902689999999994">
        <ele>1280.050</ele>
        <time>2022-08-24T10:20:02Z</time>
      </trkpt>
      <trkpt lat="43.036683999999475" lon="-1.2902819999999995">
        <ele>1280.277</ele>
        <time>2022-08-24T10:20:03Z</time>
      </trkpt>
      <trkpt lat="43.03667699999948" lon="-1.2903169999999995">
        <ele>1280.480</ele>
        <time>2022-08-24T10:20:05Z</time>
      </trkpt>
      <trkpt lat="43.03667099999948" lon="-1.2903349999999996">
        <ele>1280.464</ele>
        <time>2022-08-24T10:20:06Z</time>
      </trkpt>
      <trkpt lat="43.03666399999948" lon="-1.2903469999999995">
        <ele>1280.673</ele>
        <time>2022-08-24T10:20:07Z</time>
      </trkpt>
      <trkpt lat="43.036657999999484" lon="-1.2903579999999994">
        <ele>1280.643</ele>
        <time>2022-08-24T10:20:08Z</time>
      </trkpt>
      <trkpt lat="43.03665299999948" lon="-1.2903689999999994">
        <ele>1281.064</ele>
        <time>2022-08-24T10:20:09Z</time>
      </trkpt>
      <trkpt lat="43.03664499999948" lon="-1.2903929999999995">
        <ele>1281.210</ele>
        <time>2022-08-24T10:20:11Z</time>
      </trkpt>
      <trkpt lat="43.036623999999485" lon="-1.2904269999999995">
        <ele>1282.009</ele>
        <time>2022-08-24T10:20:14Z</time>
      </trkpt>
      <trkpt lat="43.03661999999949" lon="-1.2904389999999994">
        <ele>1282.255</ele>
        <time>2022-08-24T10:20:15Z</time>
      </trkpt>
      <trkpt lat="43.036614999999486" lon="-1.2904559999999994">
        <ele>1282.655</ele>
        <time>2022-08-24T10:20:16Z</time>
      </trkpt>
      <trkpt lat="43.036609999999484" lon="-1.2904689999999994">
        <ele>1282.845</ele>
        <time>2022-08-24T10:20:17Z</time>
      </trkpt>
      <trkpt lat="43.036600999999486" lon="-1.2904799999999994">
        <ele>1283.051</ele>
        <time>2022-08-24T10:20:18Z</time>
      </trkpt>
      <trkpt lat="43.03659199999949" lon="-1.2904909999999994">
        <ele>1283.053</ele>
        <time>2022-08-24T10:20:19Z</time>
      </trkpt>
      <trkpt lat="43.03658499999949" lon="-1.2905029999999993">
        <ele>1283.230</ele>
        <time>2022-08-24T10:20:20Z</time>
      </trkpt>
      <trkpt lat="43.03657599999949" lon="-1.2905189999999993">
        <ele>1283.683</ele>
        <time>2022-08-24T10:20:21Z</time>
      </trkpt>
      <trkpt lat="43.03656699999949" lon="-1.2905319999999993">
        <ele>1283.697</ele>
        <time>2022-08-24T10:20:22Z</time>
      </trkpt>
      <trkpt lat="43.0365599999995" lon="-1.2905439999999992">
        <ele>1283.826</ele>
        <time>2022-08-24T10:20:23Z</time>
      </trkpt>
      <trkpt lat="43.036551999999496" lon="-1.2905559999999991">
        <ele>1284.063</ele>
        <time>2022-08-24T10:20:24Z</time>
      </trkpt>
      <trkpt lat="43.036546999999494" lon="-1.2905659999999992">
        <ele>1284.044</ele>
        <time>2022-08-24T10:20:25Z</time>
      </trkpt>
      <trkpt lat="43.036537999999496" lon="-1.2905779999999991">
        <ele>1284.218</ele>
        <time>2022-08-24T10:20:26Z</time>
      </trkpt>
      <trkpt lat="43.0365289999995" lon="-1.2905879999999992">
        <ele>1284.209</ele>
        <time>2022-08-24T10:20:27Z</time>
      </trkpt>
      <trkpt lat="43.0365199999995" lon="-1.2905949999999993">
        <ele>1284.297</ele>
        <time>2022-08-24T10:20:28Z</time>
      </trkpt>
      <trkpt lat="43.0365149999995" lon="-1.2906049999999993">
        <ele>1284.227</ele>
        <time>2022-08-24T10:20:29Z</time>
      </trkpt>
      <trkpt lat="43.0365079999995" lon="-1.2906149999999994">
        <ele>1284.257</ele>
        <time>2022-08-24T10:20:30Z</time>
      </trkpt>
      <trkpt lat="43.0364999999995" lon="-1.2906239999999993">
        <ele>1284.273</ele>
        <time>2022-08-24T10:20:31Z</time>
      </trkpt>
      <trkpt lat="43.0364919999995" lon="-1.2906339999999994">
        <ele>1284.275</ele>
        <time>2022-08-24T10:20:32Z</time>
      </trkpt>
      <trkpt lat="43.0364879999995" lon="-1.2906439999999995">
        <ele>1284.232</ele>
        <time>2022-08-24T10:20:33Z</time>
      </trkpt>
      <trkpt lat="43.0364849999995" lon="-1.2906509999999995">
        <ele>1284.245</ele>
        <time>2022-08-24T10:20:34Z</time>
      </trkpt>
      <trkpt lat="43.0364819999995" lon="-1.2906509999999995">
        <ele>1285.889</ele>
        <time>2022-08-24T10:21:12Z</time>
      </trkpt>
      <trkpt lat="43.036474999999506" lon="-1.2906649999999995">
        <ele>1285.898</ele>
        <time>2022-08-24T10:21:14Z</time>
      </trkpt>
      <trkpt lat="43.03646799999951" lon="-1.2906739999999994">
        <ele>1285.833</ele>
        <time>2022-08-24T10:21:17Z</time>
      </trkpt>
      <trkpt lat="43.03646799999951" lon="-1.2906739999999994">
        <ele>1286.023</ele>
        <time>2022-08-24T10:21:18Z</time>
      </trkpt>
      <trkpt lat="43.03646799999951" lon="-1.2906739999999994">
        <ele>1286.015</ele>
        <time>2022-08-24T10:21:19Z</time>
      </trkpt>
      <trkpt lat="43.03646799999951" lon="-1.2906739999999994">
        <ele>1286.009</ele>
        <time>2022-08-24T10:21:20Z</time>
      </trkpt>
      <trkpt lat="43.03646799999951" lon="-1.2906739999999994">
        <ele>1286.074</ele>
        <time>2022-08-24T10:21:21Z</time>
      </trkpt>
      <trkpt lat="43.03646799999951" lon="-1.2906749999999994">
        <ele>1286.064</ele>
        <time>2022-08-24T10:21:22Z</time>
      </trkpt>
      <trkpt lat="43.03644499999951" lon="-1.2907219999999993">
        <ele>1286.874</ele>
        <time>2022-08-24T10:21:29Z</time>
      </trkpt>
      <trkpt lat="43.03644099999951" lon="-1.2907289999999993">
        <ele>1287.020</ele>
        <time>2022-08-24T10:21:30Z</time>
      </trkpt>
      <trkpt lat="43.036405999999516" lon="-1.2907949999999992">
        <ele>1287.672</ele>
        <time>2022-08-24T10:21:34Z</time>
      </trkpt>
      <trkpt lat="43.03639699999952" lon="-1.2908139999999992">
        <ele>1287.649</ele>
        <time>2022-08-24T10:21:35Z</time>
      </trkpt>
      <trkpt lat="43.03638899999952" lon="-1.2908309999999992">
        <ele>1287.662</ele>
        <time>2022-08-24T10:21:36Z</time>
      </trkpt>
      <trkpt lat="43.03638199999952" lon="-1.290847999999999">
        <ele>1287.886</ele>
        <time>2022-08-24T10:21:37Z</time>
      </trkpt>
      <trkpt lat="43.03637399999952" lon="-1.290866999999999">
        <ele>1287.815</ele>
        <time>2022-08-24T10:21:38Z</time>
      </trkpt>
      <trkpt lat="43.03636499999952" lon="-1.2908879999999991">
        <ele>1287.882</ele>
        <time>2022-08-24T10:21:39Z</time>
      </trkpt>
      <trkpt lat="43.03635999999952" lon="-1.2909199999999992">
        <ele>1287.843</ele>
        <time>2022-08-24T10:21:41Z</time>
      </trkpt>
      <trkpt lat="43.03635799999952" lon="-1.2909269999999993">
        <ele>1287.817</ele>
        <time>2022-08-24T10:21:42Z</time>
      </trkpt>
      <trkpt lat="43.03635399999952" lon="-1.2909349999999993">
        <ele>1287.809</ele>
        <time>2022-08-24T10:21:43Z</time>
      </trkpt>
      <trkpt lat="43.03635099999952" lon="-1.2909429999999993">
        <ele>1288.069</ele>
        <time>2022-08-24T10:21:44Z</time>
      </trkpt>
      <trkpt lat="43.03634799999952" lon="-1.2909489999999992">
        <ele>1288.099</ele>
        <time>2022-08-24T10:21:45Z</time>
      </trkpt>
      <trkpt lat="43.03634499999952" lon="-1.2909559999999993">
        <ele>1288.029</ele>
        <time>2022-08-24T10:21:46Z</time>
      </trkpt>
      <trkpt lat="43.036343999999524" lon="-1.2909599999999992">
        <ele>1288.215</ele>
        <time>2022-08-24T10:21:47Z</time>
      </trkpt>
      <trkpt lat="43.03633699999953" lon="-1.2909619999999993">
        <ele>1288.217</ele>
        <time>2022-08-24T10:21:49Z</time>
      </trkpt>
      <trkpt lat="43.036331999999526" lon="-1.2909669999999993">
        <ele>1288.454</ele>
        <time>2022-08-24T10:21:50Z</time>
      </trkpt>
      <trkpt lat="43.03632499999953" lon="-1.2909839999999992">
        <ele>1288.627</ele>
        <time>2022-08-24T10:21:52Z</time>
      </trkpt>
      <trkpt lat="43.03632099999953" lon="-1.2909919999999993">
        <ele>1288.681</ele>
        <time>2022-08-24T10:21:53Z</time>
      </trkpt>
      <trkpt lat="43.036316999999535" lon="-1.2910059999999992">
        <ele>1288.870</ele>
        <time>2022-08-24T10:21:56Z</time>
      </trkpt>
      <trkpt lat="43.03630999999954" lon="-1.291017999999999">
        <ele>1288.859</ele>
        <time>2022-08-24T10:21:58Z</time>
      </trkpt>
      <trkpt lat="43.03629099999954" lon="-1.2910439999999992">
        <ele>1289.203</ele>
        <time>2022-08-24T10:22:02Z</time>
      </trkpt>
      <trkpt lat="43.03627599999954" lon="-1.2910789999999992">
        <ele>1289.823</ele>
        <time>2022-08-24T10:22:08Z</time>
      </trkpt>
      <trkpt lat="43.03627499999954" lon="-1.2910809999999993">
        <ele>1290.009</ele>
        <time>2022-08-24T10:22:09Z</time>
      </trkpt>
      <trkpt lat="43.036253999999545" lon="-1.2911259999999993">
        <ele>1290.476</ele>
        <time>2022-08-24T10:22:16Z</time>
      </trkpt>
      <trkpt lat="43.036250999999545" lon="-1.2911329999999994">
        <ele>1290.476</ele>
        <time>2022-08-24T10:22:17Z</time>
      </trkpt>
      <trkpt lat="43.036247999999546" lon="-1.2911359999999994">
        <ele>1290.636</ele>
        <time>2022-08-24T10:22:18Z</time>
      </trkpt>
      <trkpt lat="43.03624699999955" lon="-1.2911389999999994">
        <ele>1290.622</ele>
        <time>2022-08-24T10:22:19Z</time>
      </trkpt>
      <trkpt lat="43.03624299999955" lon="-1.2911459999999995">
        <ele>1290.614</ele>
        <time>2022-08-24T10:22:20Z</time>
      </trkpt>
      <trkpt lat="43.036238999999554" lon="-1.2911539999999995">
        <ele>1290.691</ele>
        <time>2022-08-24T10:22:21Z</time>
      </trkpt>
      <trkpt lat="43.03623499999956" lon="-1.2911639999999995">
        <ele>1290.634</ele>
        <time>2022-08-24T10:22:23Z</time>
      </trkpt>
      <trkpt lat="43.03623499999956" lon="-1.2911639999999995">
        <ele>1291.428</ele>
        <time>2022-08-24T10:22:37Z</time>
      </trkpt>
      <trkpt lat="43.036232999999555" lon="-1.2911679999999994">
        <ele>1291.427</ele>
        <time>2022-08-24T10:22:40Z</time>
      </trkpt>
      <trkpt lat="43.03617499999955" lon="-1.2912699999999995">
        <ele>1291.439</ele>
        <time>2022-08-24T10:22:46Z</time>
      </trkpt>
      <trkpt lat="43.03614499999955" lon="-1.2913289999999995">
        <ele>1291.801</ele>
        <time>2022-08-24T10:22:49Z</time>
      </trkpt>
      <trkpt lat="43.03613899999955" lon="-1.2913429999999995">
        <ele>1292.021</ele>
        <time>2022-08-24T10:22:50Z</time>
      </trkpt>
      <trkpt lat="43.036134999999554" lon="-1.2913609999999995">
        <ele>1292.009</ele>
        <time>2022-08-24T10:22:51Z</time>
      </trkpt>
      <trkpt lat="43.03612699999955" lon="-1.2913799999999995">
        <ele>1292.474</ele>
        <time>2022-08-24T10:22:52Z</time>
      </trkpt>
      <trkpt lat="43.03611599999955" lon="-1.2914059999999996">
        <ele>1293.074</ele>
        <time>2022-08-24T10:22:54Z</time>
      </trkpt>
      <trkpt lat="43.036111999999555" lon="-1.2914149999999995">
        <ele>1293.244</ele>
        <time>2022-08-24T10:22:55Z</time>
      </trkpt>
      <trkpt lat="43.036100999999555" lon="-1.2914269999999994">
        <ele>1293.280</ele>
        <time>2022-08-24T10:22:56Z</time>
      </trkpt>
      <trkpt lat="43.03609099999955" lon="-1.2914439999999994">
        <ele>1293.252</ele>
        <time>2022-08-24T10:22:57Z</time>
      </trkpt>
      <trkpt lat="43.03608199999955" lon="-1.2914579999999993">
        <ele>1293.669</ele>
        <time>2022-08-24T10:22:58Z</time>
      </trkpt>
      <trkpt lat="43.036075999999554" lon="-1.2914749999999993">
        <ele>1293.892</ele>
        <time>2022-08-24T10:22:59Z</time>
      </trkpt>
      <trkpt lat="43.036060999999556" lon="-1.2915009999999993">
        <ele>1294.246</ele>
        <time>2022-08-24T10:23:01Z</time>
      </trkpt>
      <trkpt lat="43.03605699999956" lon="-1.2915129999999992">
        <ele>1294.485</ele>
        <time>2022-08-24T10:23:02Z</time>
      </trkpt>
      <trkpt lat="43.03604999999956" lon="-1.2915199999999993">
        <ele>1294.683</ele>
        <time>2022-08-24T10:23:03Z</time>
      </trkpt>
      <trkpt lat="43.03603999999956" lon="-1.2915269999999994">
        <ele>1294.625</ele>
        <time>2022-08-24T10:23:04Z</time>
      </trkpt>
      <trkpt lat="43.03603499999956" lon="-1.2915379999999994">
        <ele>1294.817</ele>
        <time>2022-08-24T10:23:05Z</time>
      </trkpt>
      <trkpt lat="43.036029999999556" lon="-1.2915509999999994">
        <ele>1295.209</ele>
        <time>2022-08-24T10:23:06Z</time>
      </trkpt>
      <trkpt lat="43.03602399999956" lon="-1.2915629999999994">
        <ele>1295.259</ele>
        <time>2022-08-24T10:23:07Z</time>
      </trkpt>
      <trkpt lat="43.036010999999554" lon="-1.2915729999999994">
        <ele>1295.499</ele>
        <time>2022-08-24T10:23:08Z</time>
      </trkpt>
      <trkpt lat="43.035999999999554" lon="-1.2915809999999994">
        <ele>1295.699</ele>
        <time>2022-08-24T10:23:09Z</time>
      </trkpt>
      <trkpt lat="43.035990999999555" lon="-1.2915899999999993">
        <ele>1295.845</ele>
        <time>2022-08-24T10:23:10Z</time>
      </trkpt>
      <trkpt lat="43.03598599999955" lon="-1.2915989999999993">
        <ele>1296.237</ele>
        <time>2022-08-24T10:23:11Z</time>
      </trkpt>
      <trkpt lat="43.035979999999554" lon="-1.2916099999999993">
        <ele>1296.484</ele>
        <time>2022-08-24T10:23:12Z</time>
      </trkpt>
      <trkpt lat="43.035976999999555" lon="-1.2916229999999993">
        <ele>1296.437</ele>
        <time>2022-08-24T10:23:13Z</time>
      </trkpt>
      <trkpt lat="43.035968999999554" lon="-1.2916359999999993">
        <ele>1296.631</ele>
        <time>2022-08-24T10:23:14Z</time>
      </trkpt>
      <trkpt lat="43.03596099999955" lon="-1.2916479999999992">
        <ele>1296.840</ele>
        <time>2022-08-24T10:23:15Z</time>
      </trkpt>
      <trkpt lat="43.03595099999955" lon="-1.2916569999999992">
        <ele>1297.493</ele>
        <time>2022-08-24T10:23:16Z</time>
      </trkpt>
      <trkpt lat="43.03593999999955" lon="-1.2916649999999992">
        <ele>1297.865</ele>
        <time>2022-08-24T10:23:17Z</time>
      </trkpt>
      <trkpt lat="43.035929999999546" lon="-1.2916709999999991">
        <ele>1298.021</ele>
        <time>2022-08-24T10:23:18Z</time>
      </trkpt>
      <trkpt lat="43.03592299999955" lon="-1.291679999999999">
        <ele>1298.209</ele>
        <time>2022-08-24T10:23:19Z</time>
      </trkpt>
      <trkpt lat="43.035912999999546" lon="-1.291688999999999">
        <ele>1298.440</ele>
        <time>2022-08-24T10:23:20Z</time>
      </trkpt>
      <trkpt lat="43.035901999999545" lon="-1.291693999999999">
        <ele>1298.460</ele>
        <time>2022-08-24T10:23:21Z</time>
      </trkpt>
      <trkpt lat="43.035890999999545" lon="-1.291700999999999">
        <ele>1298.620</ele>
        <time>2022-08-24T10:23:22Z</time>
      </trkpt>
      <trkpt lat="43.03587799999954" lon="-1.291709999999999">
        <ele>1298.636</ele>
        <time>2022-08-24T10:23:23Z</time>
      </trkpt>
      <trkpt lat="43.035865999999544" lon="-1.291715999999999">
        <ele>1298.888</ele>
        <time>2022-08-24T10:23:24Z</time>
      </trkpt>
      <trkpt lat="43.035856999999545" lon="-1.2917199999999989">
        <ele>1298.625</ele>
        <time>2022-08-24T10:23:25Z</time>
      </trkpt>
      <trkpt lat="43.03584799999955" lon="-1.291724999999999">
        <ele>1299.098</ele>
        <time>2022-08-24T10:23:26Z</time>
      </trkpt>
      <trkpt lat="43.03583899999955" lon="-1.291726999999999">
        <ele>1299.012</ele>
        <time>2022-08-24T10:23:27Z</time>
      </trkpt>
      <trkpt lat="43.03583099999955" lon="-1.291733999999999">
        <ele>1299.231</ele>
        <time>2022-08-24T10:23:28Z</time>
      </trkpt>
      <trkpt lat="43.035819999999546" lon="-1.291742999999999">
        <ele>1299.075</ele>
        <time>2022-08-24T10:23:29Z</time>
      </trkpt>
      <trkpt lat="43.03580799999955" lon="-1.2917469999999989">
        <ele>1299.028</ele>
        <time>2022-08-24T10:23:30Z</time>
      </trkpt>
      <trkpt lat="43.035797999999545" lon="-1.2917479999999988">
        <ele>1299.020</ele>
        <time>2022-08-24T10:23:31Z</time>
      </trkpt>
      <trkpt lat="43.03578599999955" lon="-1.2917469999999989">
        <ele>1299.009</ele>
        <time>2022-08-24T10:23:32Z</time>
      </trkpt>
      <trkpt lat="43.035774999999546" lon="-1.2917509999999988">
        <ele>1299.288</ele>
        <time>2022-08-24T10:23:33Z</time>
      </trkpt>
      <trkpt lat="43.03576499999954" lon="-1.2917519999999987">
        <ele>1299.418</ele>
        <time>2022-08-24T10:23:34Z</time>
      </trkpt>
      <trkpt lat="43.035755999999544" lon="-1.2917539999999987">
        <ele>1299.428</ele>
        <time>2022-08-24T10:23:35Z</time>
      </trkpt>
      <trkpt lat="43.035746999999546" lon="-1.2917569999999987">
        <ele>1299.664</ele>
        <time>2022-08-24T10:23:36Z</time>
      </trkpt>
      <trkpt lat="43.03573499999955" lon="-1.2917599999999987">
        <ele>1299.876</ele>
        <time>2022-08-24T10:23:37Z</time>
      </trkpt>
      <trkpt lat="43.03572599999955" lon="-1.2917649999999987">
        <ele>1300.073</ele>
        <time>2022-08-24T10:23:38Z</time>
      </trkpt>
      <trkpt lat="43.03571399999955" lon="-1.2917699999999988">
        <ele>1300.246</ele>
        <time>2022-08-24T10:23:39Z</time>
      </trkpt>
      <trkpt lat="43.03570099999955" lon="-1.2917759999999987">
        <ele>1300.420</ele>
        <time>2022-08-24T10:23:40Z</time>
      </trkpt>
      <trkpt lat="43.03568899999955" lon="-1.2917809999999987">
        <ele>1300.459</ele>
        <time>2022-08-24T10:23:41Z</time>
      </trkpt>
      <trkpt lat="43.03567999999955" lon="-1.2917859999999988">
        <ele>1300.667</ele>
        <time>2022-08-24T10:23:42Z</time>
      </trkpt>
      <trkpt lat="43.03567399999955" lon="-1.2917889999999987">
        <ele>1300.881</ele>
        <time>2022-08-24T10:23:43Z</time>
      </trkpt>
      <trkpt lat="43.03566399999955" lon="-1.2917949999999987">
        <ele>1301.019</ele>
        <time>2022-08-24T10:23:44Z</time>
      </trkpt>
      <trkpt lat="43.03565199999955" lon="-1.2918029999999987">
        <ele>1301.409</ele>
        <time>2022-08-24T10:23:45Z</time>
      </trkpt>
      <trkpt lat="43.03563899999955" lon="-1.2918079999999987">
        <ele>1301.437</ele>
        <time>2022-08-24T10:23:46Z</time>
      </trkpt>
      <trkpt lat="43.03563099999955" lon="-1.2918099999999988">
        <ele>1301.637</ele>
        <time>2022-08-24T10:23:47Z</time>
      </trkpt>
      <trkpt lat="43.03562399999955" lon="-1.2918119999999989">
        <ele>1301.887</ele>
        <time>2022-08-24T10:23:48Z</time>
      </trkpt>
      <trkpt lat="43.03561599999955" lon="-1.2918159999999987">
        <ele>1302.023</ele>
        <time>2022-08-24T10:23:49Z</time>
      </trkpt>
      <trkpt lat="43.03560699999955" lon="-1.2918229999999988">
        <ele>1302.485</ele>
        <time>2022-08-24T10:23:50Z</time>
      </trkpt>
      <trkpt lat="43.035599999999555" lon="-1.291829999999999">
        <ele>1302.632</ele>
        <time>2022-08-24T10:23:51Z</time>
      </trkpt>
      <trkpt lat="43.03559299999956" lon="-1.291836999999999">
        <ele>1302.625</ele>
        <time>2022-08-24T10:23:52Z</time>
      </trkpt>
      <trkpt lat="43.03558599999956" lon="-1.291841999999999">
        <ele>1302.849</ele>
        <time>2022-08-24T10:23:53Z</time>
      </trkpt>
      <trkpt lat="43.03557999999956" lon="-1.291849999999999">
        <ele>1302.868</ele>
        <time>2022-08-24T10:23:54Z</time>
      </trkpt>
      <trkpt lat="43.035572999999566" lon="-1.291853999999999">
        <ele>1303.053</ele>
        <time>2022-08-24T10:23:55Z</time>
      </trkpt>
      <trkpt lat="43.03556299999956" lon="-1.291855999999999">
        <ele>1303.204</ele>
        <time>2022-08-24T10:23:56Z</time>
      </trkpt>
      <trkpt lat="43.03555499999956" lon="-1.291858999999999">
        <ele>1303.214</ele>
        <time>2022-08-24T10:23:57Z</time>
      </trkpt>
      <trkpt lat="43.03554499999956" lon="-1.291859999999999">
        <ele>1303.209</ele>
        <time>2022-08-24T10:23:58Z</time>
      </trkpt>
      <trkpt lat="43.03553699999956" lon="-1.291859999999999">
        <ele>1303.466</ele>
        <time>2022-08-24T10:23:59Z</time>
      </trkpt>
      <trkpt lat="43.035526999999554" lon="-1.291864999999999">
        <ele>1303.666</ele>
        <time>2022-08-24T10:24:00Z</time>
      </trkpt>
      <trkpt lat="43.03551699999955" lon="-1.2918689999999988">
        <ele>1303.696</ele>
        <time>2022-08-24T10:24:01Z</time>
      </trkpt>
      <trkpt lat="43.03550899999955" lon="-1.2918739999999989">
        <ele>1303.692</ele>
        <time>2022-08-24T10:24:02Z</time>
      </trkpt>
      <trkpt lat="43.03549699999955" lon="-1.2918749999999988">
        <ele>1303.824</ele>
        <time>2022-08-24T10:24:03Z</time>
      </trkpt>
      <trkpt lat="43.03548699999955" lon="-1.2918769999999988">
        <ele>1303.831</ele>
        <time>2022-08-24T10:24:04Z</time>
      </trkpt>
      <trkpt lat="43.03547599999955" lon="-1.2918779999999987">
        <ele>1304.074</ele>
        <time>2022-08-24T10:24:05Z</time>
      </trkpt>
      <trkpt lat="43.035465999999545" lon="-1.2918779999999987">
        <ele>1304.238</ele>
        <time>2022-08-24T10:24:06Z</time>
      </trkpt>
      <trkpt lat="43.035456999999546" lon="-1.2918749999999988">
        <ele>1304.217</ele>
        <time>2022-08-24T10:24:07Z</time>
      </trkpt>
      <trkpt lat="43.03544799999955" lon="-1.2918709999999989">
        <ele>1304.473</ele>
        <time>2022-08-24T10:24:08Z</time>
      </trkpt>
      <trkpt lat="43.03543899999955" lon="-1.2918719999999988">
        <ele>1304.885</ele>
        <time>2022-08-24T10:24:09Z</time>
      </trkpt>
      <trkpt lat="43.035428999999546" lon="-1.2918729999999987">
        <ele>1304.813</ele>
        <time>2022-08-24T10:24:10Z</time>
      </trkpt>
      <trkpt lat="43.03541699999955" lon="-1.2918729999999987">
        <ele>1305.209</ele>
        <time>2022-08-24T10:24:11Z</time>
      </trkpt>
      <trkpt lat="43.03540899999955" lon="-1.2918709999999987">
        <ele>1305.498</ele>
        <time>2022-08-24T10:24:12Z</time>
      </trkpt>
      <trkpt lat="43.035400999999545" lon="-1.2918699999999987">
        <ele>1305.638</ele>
        <time>2022-08-24T10:24:13Z</time>
      </trkpt>
      <trkpt lat="43.035392999999544" lon="-1.2918699999999987">
        <ele>1305.838</ele>
        <time>2022-08-24T10:24:14Z</time>
      </trkpt>
      <trkpt lat="43.035380999999546" lon="-1.2918699999999987">
        <ele>1305.864</ele>
        <time>2022-08-24T10:24:15Z</time>
      </trkpt>
      <trkpt lat="43.03536899999955" lon="-1.2918689999999988">
        <ele>1306.026</ele>
        <time>2022-08-24T10:24:16Z</time>
      </trkpt>
      <trkpt lat="43.03535799999955" lon="-1.291864999999999">
        <ele>1306.013</ele>
        <time>2022-08-24T10:24:17Z</time>
      </trkpt>
      <trkpt lat="43.03534899999955" lon="-1.291859999999999">
        <ele>1306.076</ele>
        <time>2022-08-24T10:24:18Z</time>
      </trkpt>
      <trkpt lat="43.03534099999955" lon="-1.2918579999999988">
        <ele>1306.240</ele>
        <time>2022-08-24T10:24:19Z</time>
      </trkpt>
      <trkpt lat="43.035330999999545" lon="-1.2918529999999988">
        <ele>1306.259</ele>
        <time>2022-08-24T10:24:20Z</time>
      </trkpt>
      <trkpt lat="43.035321999999546" lon="-1.291840999999999">
        <ele>1306.488</ele>
        <time>2022-08-24T10:24:21Z</time>
      </trkpt>
      <trkpt lat="43.035313999999545" lon="-1.2918309999999988">
        <ele>1306.624</ele>
        <time>2022-08-24T10:24:22Z</time>
      </trkpt>
      <trkpt lat="43.03530899999954" lon="-1.291821999999999">
        <ele>1306.826</ele>
        <time>2022-08-24T10:24:23Z</time>
      </trkpt>
      <trkpt lat="43.03530199999955" lon="-1.291812999999999">
        <ele>1306.809</ele>
        <time>2022-08-24T10:24:24Z</time>
      </trkpt>
      <trkpt lat="43.03529599999955" lon="-1.291798999999999">
        <ele>1307.259</ele>
        <time>2022-08-24T10:24:25Z</time>
      </trkpt>
      <trkpt lat="43.03528999999955" lon="-1.291789999999999">
        <ele>1307.439</ele>
        <time>2022-08-24T10:24:26Z</time>
      </trkpt>
      <trkpt lat="43.03528399999955" lon="-1.2917809999999992">
        <ele>1307.659</ele>
        <time>2022-08-24T10:24:27Z</time>
      </trkpt>
      <trkpt lat="43.03527699999955" lon="-1.2917669999999992">
        <ele>1307.835</ele>
        <time>2022-08-24T10:24:28Z</time>
      </trkpt>
      <trkpt lat="43.035270999999554" lon="-1.2917549999999993">
        <ele>1308.017</ele>
        <time>2022-08-24T10:24:29Z</time>
      </trkpt>
      <trkpt lat="43.03526399999956" lon="-1.2917449999999993">
        <ele>1308.244</ele>
        <time>2022-08-24T10:24:30Z</time>
      </trkpt>
      <trkpt lat="43.035258999999556" lon="-1.2917299999999992">
        <ele>1308.227</ele>
        <time>2022-08-24T10:24:31Z</time>
      </trkpt>
      <trkpt lat="43.035250999999555" lon="-1.291714999999999">
        <ele>1308.471</ele>
        <time>2022-08-24T10:24:32Z</time>
      </trkpt>
      <trkpt lat="43.035244999999556" lon="-1.291704999999999">
        <ele>1308.480</ele>
        <time>2022-08-24T10:24:33Z</time>
      </trkpt>
      <trkpt lat="43.03523499999955" lon="-1.291693999999999">
        <ele>1308.468</ele>
        <time>2022-08-24T10:24:34Z</time>
      </trkpt>
      <trkpt lat="43.03522899999955" lon="-1.291678999999999">
        <ele>1308.642</ele>
        <time>2022-08-24T10:24:35Z</time>
      </trkpt>
      <trkpt lat="43.03522099999955" lon="-1.291664999999999">
        <ele>1308.626</ele>
        <time>2022-08-24T10:24:36Z</time>
      </trkpt>
      <trkpt lat="43.035211999999554" lon="-1.291647999999999">
        <ele>1308.609</ele>
        <time>2022-08-24T10:24:37Z</time>
      </trkpt>
      <trkpt lat="43.03520499999956" lon="-1.2916359999999991">
        <ele>1308.687</ele>
        <time>2022-08-24T10:24:38Z</time>
      </trkpt>
      <trkpt lat="43.03519899999956" lon="-1.2916249999999991">
        <ele>1308.627</ele>
        <time>2022-08-24T10:24:39Z</time>
      </trkpt>
      <trkpt lat="43.03519299999956" lon="-1.2916159999999992">
        <ele>1308.677</ele>
        <time>2022-08-24T10:24:40Z</time>
      </trkpt>
      <trkpt lat="43.03518799999956" lon="-1.2916029999999992">
        <ele>1308.643</ele>
        <time>2022-08-24T10:24:41Z</time>
      </trkpt>
      <trkpt lat="43.03518199999956" lon="-1.2915869999999992">
        <ele>1308.815</ele>
        <time>2022-08-24T10:24:42Z</time>
      </trkpt>
      <trkpt lat="43.03517699999956" lon="-1.2915749999999993">
        <ele>1308.842</ele>
        <time>2022-08-24T10:24:43Z</time>
      </trkpt>
      <trkpt lat="43.03516799999956" lon="-1.2915639999999993">
        <ele>1308.875</ele>
        <time>2022-08-24T10:24:44Z</time>
      </trkpt>
      <trkpt lat="43.03515899999956" lon="-1.2915499999999993">
        <ele>1308.849</ele>
        <time>2022-08-24T10:24:45Z</time>
      </trkpt>
      <trkpt lat="43.03515299999956" lon="-1.2915389999999993">
        <ele>1309.078</ele>
        <time>2022-08-24T10:24:46Z</time>
      </trkpt>
      <trkpt lat="43.03514499999956" lon="-1.2915259999999993">
        <ele>1309.043</ele>
        <time>2022-08-24T10:24:47Z</time>
      </trkpt>
      <trkpt lat="43.03513799999956" lon="-1.2915199999999993">
        <ele>1309.064</ele>
        <time>2022-08-24T10:24:48Z</time>
      </trkpt>
      <trkpt lat="43.035131999999564" lon="-1.2915109999999994">
        <ele>1309.010</ele>
        <time>2022-08-24T10:24:49Z</time>
      </trkpt>
      <trkpt lat="43.03512399999956" lon="-1.2915009999999993">
        <ele>1309.209</ele>
        <time>2022-08-24T10:24:50Z</time>
      </trkpt>
      <trkpt lat="43.035117999999564" lon="-1.2914949999999994">
        <ele>1309.455</ele>
        <time>2022-08-24T10:24:51Z</time>
      </trkpt>
      <trkpt lat="43.035108999999565" lon="-1.2914789999999994">
        <ele>1309.695</ele>
        <time>2022-08-24T10:24:52Z</time>
      </trkpt>
      <trkpt lat="43.035102999999566" lon="-1.2914639999999993">
        <ele>1310.015</ele>
        <time>2022-08-24T10:24:53Z</time>
      </trkpt>
      <trkpt lat="43.03509599999957" lon="-1.2914479999999993">
        <ele>1310.251</ele>
        <time>2022-08-24T10:24:54Z</time>
      </trkpt>
      <trkpt lat="43.03508799999957" lon="-1.2914329999999992">
        <ele>1310.473</ele>
        <time>2022-08-24T10:24:55Z</time>
      </trkpt>
      <trkpt lat="43.03507099999957" lon="-1.291398999999999">
        <ele>1310.870</ele>
        <time>2022-08-24T10:24:57Z</time>
      </trkpt>
      <trkpt lat="43.03506599999957" lon="-1.291383999999999">
        <ele>1311.063</ele>
        <time>2022-08-24T10:24:58Z</time>
      </trkpt>
      <trkpt lat="43.03505999999957" lon="-1.291370999999999">
        <ele>1311.077</ele>
        <time>2022-08-24T10:24:59Z</time>
      </trkpt>
      <trkpt lat="43.03505399999957" lon="-1.291357999999999">
        <ele>1311.086</ele>
        <time>2022-08-24T10:25:00Z</time>
      </trkpt>
      <trkpt lat="43.03504699999957" lon="-1.2913429999999988">
        <ele>1311.056</ele>
        <time>2022-08-24T10:25:01Z</time>
      </trkpt>
      <trkpt lat="43.035037999999574" lon="-1.2913269999999988">
        <ele>1311.059</ele>
        <time>2022-08-24T10:25:02Z</time>
      </trkpt>
      <trkpt lat="43.035031999999575" lon="-1.2913119999999987">
        <ele>1311.014</ele>
        <time>2022-08-24T10:25:03Z</time>
      </trkpt>
      <trkpt lat="43.03502499999958" lon="-1.2912979999999987">
        <ele>1311.209</ele>
        <time>2022-08-24T10:25:04Z</time>
      </trkpt>
      <trkpt lat="43.03501899999958" lon="-1.2912809999999988">
        <ele>1311.216</ele>
        <time>2022-08-24T10:25:05Z</time>
      </trkpt>
      <trkpt lat="43.03501499999958" lon="-1.291268999999999">
        <ele>1311.446</ele>
        <time>2022-08-24T10:25:06Z</time>
      </trkpt>
      <trkpt lat="43.03500399999958" lon="-1.291256999999999">
        <ele>1311.626</ele>
        <time>2022-08-24T10:25:07Z</time>
      </trkpt>
      <trkpt lat="43.03499599999958" lon="-1.291244999999999">
        <ele>1311.822</ele>
        <time>2022-08-24T10:25:08Z</time>
      </trkpt>
      <trkpt lat="43.03498799999958" lon="-1.291229999999999">
        <ele>1311.834</ele>
        <time>2022-08-24T10:25:09Z</time>
      </trkpt>
      <trkpt lat="43.03498199999958" lon="-1.291215999999999">
        <ele>1312.021</ele>
        <time>2022-08-24T10:25:10Z</time>
      </trkpt>
      <trkpt lat="43.034974999999584" lon="-1.291192999999999">
        <ele>1312.084</ele>
        <time>2022-08-24T10:25:11Z</time>
      </trkpt>
      <trkpt lat="43.03496999999958" lon="-1.291173999999999">
        <ele>1312.238</ele>
        <time>2022-08-24T10:25:12Z</time>
      </trkpt>
      <trkpt lat="43.03496399999958" lon="-1.291159999999999">
        <ele>1312.477</ele>
        <time>2022-08-24T10:25:13Z</time>
      </trkpt>
      <trkpt lat="43.03495699999959" lon="-1.2911449999999989">
        <ele>1312.464</ele>
        <time>2022-08-24T10:25:14Z</time>
      </trkpt>
      <trkpt lat="43.03495099999959" lon="-1.2911289999999989">
        <ele>1312.606</ele>
        <time>2022-08-24T10:25:15Z</time>
      </trkpt>
      <trkpt lat="43.03494799999959" lon="-1.291116999999999">
        <ele>1312.616</ele>
        <time>2022-08-24T10:25:16Z</time>
      </trkpt>
      <trkpt lat="43.034942999999586" lon="-1.291099999999999">
        <ele>1312.609</ele>
        <time>2022-08-24T10:25:17Z</time>
      </trkpt>
      <trkpt lat="43.03493599999959" lon="-1.291088999999999">
        <ele>1313.057</ele>
        <time>2022-08-24T10:25:18Z</time>
      </trkpt>
      <trkpt lat="43.03492699999959" lon="-1.2910799999999991">
        <ele>1313.247</ele>
        <time>2022-08-24T10:25:19Z</time>
      </trkpt>
      <trkpt lat="43.034919999999595" lon="-1.2910709999999992">
        <ele>1313.437</ele>
        <time>2022-08-24T10:25:20Z</time>
      </trkpt>
      <trkpt lat="43.034913999999596" lon="-1.291055999999999">
        <ele>1313.643</ele>
        <time>2022-08-24T10:25:21Z</time>
      </trkpt>
      <trkpt lat="43.0349069999996" lon="-1.291040999999999">
        <ele>1313.445</ele>
        <time>2022-08-24T10:25:22Z</time>
      </trkpt>
      <trkpt lat="43.0348989999996" lon="-1.291031999999999">
        <ele>1313.832</ele>
        <time>2022-08-24T10:25:23Z</time>
      </trkpt>
      <trkpt lat="43.0348929999996" lon="-1.291018999999999">
        <ele>1313.855</ele>
        <time>2022-08-24T10:25:24Z</time>
      </trkpt>
      <trkpt lat="43.0348869999996" lon="-1.2910069999999991">
        <ele>1314.239</ele>
        <time>2022-08-24T10:25:25Z</time>
      </trkpt>
      <trkpt lat="43.0348819999996" lon="-1.2909929999999992">
        <ele>1314.068</ele>
        <time>2022-08-24T10:25:26Z</time>
      </trkpt>
      <trkpt lat="43.0348729999996" lon="-1.2909789999999992">
        <ele>1314.237</ele>
        <time>2022-08-24T10:25:27Z</time>
      </trkpt>
      <trkpt lat="43.0348639999996" lon="-1.2909699999999993">
        <ele>1314.449</ele>
        <time>2022-08-24T10:25:28Z</time>
      </trkpt>
      <trkpt lat="43.0348559999996" lon="-1.2909619999999993">
        <ele>1314.613</ele>
        <time>2022-08-24T10:25:29Z</time>
      </trkpt>
      <trkpt lat="43.0348499999996" lon="-1.2909529999999994">
        <ele>1315.009</ele>
        <time>2022-08-24T10:25:30Z</time>
      </trkpt>
      <trkpt lat="43.0348409999996" lon="-1.2909479999999993">
        <ele>1315.464</ele>
        <time>2022-08-24T10:25:31Z</time>
      </trkpt>
      <trkpt lat="43.0348309999996" lon="-1.2909429999999993">
        <ele>1315.654</ele>
        <time>2022-08-24T10:25:32Z</time>
      </trkpt>
      <trkpt lat="43.034820999999596" lon="-1.2909399999999993">
        <ele>1315.844</ele>
        <time>2022-08-24T10:25:33Z</time>
      </trkpt>
      <trkpt lat="43.03481099999959" lon="-1.2909379999999993">
        <ele>1316.220</ele>
        <time>2022-08-24T10:25:34Z</time>
      </trkpt>
      <trkpt lat="43.03480299999959" lon="-1.2909359999999992">
        <ele>1316.252</ele>
        <time>2022-08-24T10:25:35Z</time>
      </trkpt>
      <trkpt lat="43.03479299999959" lon="-1.2909319999999993">
        <ele>1316.089</ele>
        <time>2022-08-24T10:25:36Z</time>
      </trkpt>
      <trkpt lat="43.034779999999586" lon="-1.2909299999999992">
        <ele>1316.432</ele>
        <time>2022-08-24T10:25:37Z</time>
      </trkpt>
      <trkpt lat="43.03476699999958" lon="-1.2909359999999992">
        <ele>1316.496</ele>
        <time>2022-08-24T10:25:38Z</time>
      </trkpt>
      <trkpt lat="43.03475599999958" lon="-1.2909439999999992">
        <ele>1316.445</ele>
        <time>2022-08-24T10:25:39Z</time>
      </trkpt>
      <trkpt lat="43.03474799999958" lon="-1.2909489999999992">
        <ele>1316.445</ele>
        <time>2022-08-24T10:25:40Z</time>
      </trkpt>
      <trkpt lat="43.03473699999958" lon="-1.2909579999999992">
        <ele>1316.647</ele>
        <time>2022-08-24T10:25:41Z</time>
      </trkpt>
      <trkpt lat="43.03472499999958" lon="-1.2909719999999991">
        <ele>1316.611</ele>
        <time>2022-08-24T10:25:42Z</time>
      </trkpt>
      <trkpt lat="43.03471399999958" lon="-1.2909849999999992">
        <ele>1316.609</ele>
        <time>2022-08-24T10:25:43Z</time>
      </trkpt>
      <trkpt lat="43.03470399999958" lon="-1.290996999999999">
        <ele>1317.055</ele>
        <time>2022-08-24T10:25:44Z</time>
      </trkpt>
      <trkpt lat="43.03469699999958" lon="-1.291007999999999">
        <ele>1317.055</ele>
        <time>2022-08-24T10:25:45Z</time>
      </trkpt>
      <trkpt lat="43.03468799999958" lon="-1.291019999999999">
        <ele>1317.075</ele>
        <time>2022-08-24T10:25:46Z</time>
      </trkpt>
      <trkpt lat="43.03467799999958" lon="-1.291033999999999">
        <ele>1317.271</ele>
        <time>2022-08-24T10:25:47Z</time>
      </trkpt>
      <trkpt lat="43.03467199999958" lon="-1.291043999999999">
        <ele>1317.233</ele>
        <time>2022-08-24T10:25:48Z</time>
      </trkpt>
      <trkpt lat="43.03466299999958" lon="-1.291059999999999">
        <ele>1317.460</ele>
        <time>2022-08-24T10:25:49Z</time>
      </trkpt>
      <trkpt lat="43.03465799999958" lon="-1.2910719999999989">
        <ele>1317.443</ele>
        <time>2022-08-24T10:25:50Z</time>
      </trkpt>
      <trkpt lat="43.03465199999958" lon="-1.2910829999999989">
        <ele>1317.257</ele>
        <time>2022-08-24T10:25:51Z</time>
      </trkpt>
      <trkpt lat="43.034644999999585" lon="-1.2910989999999989">
        <ele>1317.246</ele>
        <time>2022-08-24T10:25:52Z</time>
      </trkpt>
      <trkpt lat="43.03464099999959" lon="-1.291113999999999">
        <ele>1317.273</ele>
        <time>2022-08-24T10:25:53Z</time>
      </trkpt>
      <trkpt lat="43.03463599999959" lon="-1.291128999999999">
        <ele>1317.285</ele>
        <time>2022-08-24T10:25:54Z</time>
      </trkpt>
      <trkpt lat="43.034633999999585" lon="-1.291140999999999">
        <ele>1317.213</ele>
        <time>2022-08-24T10:25:55Z</time>
      </trkpt>
      <trkpt lat="43.03462699999959" lon="-1.291155999999999">
        <ele>1317.009</ele>
        <time>2022-08-24T10:25:56Z</time>
      </trkpt>
      <trkpt lat="43.03461799999959" lon="-1.291174999999999">
        <ele>1317.088</ele>
        <time>2022-08-24T10:25:57Z</time>
      </trkpt>
      <trkpt lat="43.03460799999959" lon="-1.291207999999999">
        <ele>1317.028</ele>
        <time>2022-08-24T10:25:59Z</time>
      </trkpt>
      <trkpt lat="43.03460399999959" lon="-1.291223999999999">
        <ele>1317.038</ele>
        <time>2022-08-24T10:26:00Z</time>
      </trkpt>
      <trkpt lat="43.03460099999959" lon="-1.2912469999999991">
        <ele>1317.084</ele>
        <time>2022-08-24T10:26:01Z</time>
      </trkpt>
      <trkpt lat="43.03459599999959" lon="-1.291271999999999">
        <ele>1317.076</ele>
        <time>2022-08-24T10:26:02Z</time>
      </trkpt>
      <trkpt lat="43.034593999999586" lon="-1.2912899999999992">
        <ele>1317.043</ele>
        <time>2022-08-24T10:26:03Z</time>
      </trkpt>
      <trkpt lat="43.034591999999584" lon="-1.291306999999999">
        <ele>1317.066</ele>
        <time>2022-08-24T10:26:04Z</time>
      </trkpt>
      <trkpt lat="43.034585999999585" lon="-1.2913199999999991">
        <ele>1317.040</ele>
        <time>2022-08-24T10:26:05Z</time>
      </trkpt>
      <trkpt lat="43.034580999999584" lon="-1.2913359999999992">
        <ele>1317.069</ele>
        <time>2022-08-24T10:26:06Z</time>
      </trkpt>
      <trkpt lat="43.03457299999958" lon="-1.291355999999999">
        <ele>1317.267</ele>
        <time>2022-08-24T10:26:07Z</time>
      </trkpt>
      <trkpt lat="43.034565999999586" lon="-1.2913739999999991">
        <ele>1317.281</ele>
        <time>2022-08-24T10:26:08Z</time>
      </trkpt>
      <trkpt lat="43.034560999999584" lon="-1.2913899999999991">
        <ele>1317.219</ele>
        <time>2022-08-24T10:26:09Z</time>
      </trkpt>
      <trkpt lat="43.03455699999959" lon="-1.291401999999999">
        <ele>1317.409</ele>
        <time>2022-08-24T10:26:10Z</time>
      </trkpt>
      <trkpt lat="43.03455299999959" lon="-1.291420999999999">
        <ele>1317.467</ele>
        <time>2022-08-24T10:26:11Z</time>
      </trkpt>
      <trkpt lat="43.03454899999959" lon="-1.291436999999999">
        <ele>1317.477</ele>
        <time>2022-08-24T10:26:12Z</time>
      </trkpt>
      <trkpt lat="43.034545999999594" lon="-1.291450999999999">
        <ele>1317.457</ele>
        <time>2022-08-24T10:26:13Z</time>
      </trkpt>
      <trkpt lat="43.0345419999996" lon="-1.291462999999999">
        <ele>1317.663</ele>
        <time>2022-08-24T10:26:14Z</time>
      </trkpt>
      <trkpt lat="43.034536999999595" lon="-1.2914719999999988">
        <ele>1317.815</ele>
        <time>2022-08-24T10:26:15Z</time>
      </trkpt>
      <trkpt lat="43.034530999999596" lon="-1.2914889999999988">
        <ele>1317.862</ele>
        <time>2022-08-24T10:26:16Z</time>
      </trkpt>
      <trkpt lat="43.034502999999596" lon="-1.2915779999999988">
        <ele>1318.485</ele>
        <time>2022-08-24T10:26:21Z</time>
      </trkpt>
      <trkpt lat="43.0344959999996" lon="-1.2915959999999989">
        <ele>1318.669</ele>
        <time>2022-08-24T10:26:22Z</time>
      </trkpt>
      <trkpt lat="43.0344899999996" lon="-1.2916099999999988">
        <ele>1319.038</ele>
        <time>2022-08-24T10:26:23Z</time>
      </trkpt>
      <trkpt lat="43.0344849999996" lon="-1.2916239999999988">
        <ele>1319.277</ele>
        <time>2022-08-24T10:26:24Z</time>
      </trkpt>
      <trkpt lat="43.0344809999996" lon="-1.2916339999999988">
        <ele>1319.461</ele>
        <time>2022-08-24T10:26:25Z</time>
      </trkpt>
      <trkpt lat="43.034459999999605" lon="-1.291683999999999">
        <ele>1320.027</ele>
        <time>2022-08-24T10:26:28Z</time>
      </trkpt>
      <trkpt lat="43.03443899999961" lon="-1.291710999999999">
        <ele>1320.409</ele>
        <time>2022-08-24T10:26:30Z</time>
      </trkpt>
      <trkpt lat="43.03443199999961" lon="-1.2917199999999989">
        <ele>1320.868</ele>
        <time>2022-08-24T10:26:31Z</time>
      </trkpt>
      <trkpt lat="43.03442299999961" lon="-1.2917309999999989">
        <ele>1321.018</ele>
        <time>2022-08-24T10:26:32Z</time>
      </trkpt>
      <trkpt lat="43.034413999999614" lon="-1.291737999999999">
        <ele>1321.278</ele>
        <time>2022-08-24T10:26:33Z</time>
      </trkpt>
      <trkpt lat="43.03440099999961" lon="-1.2917419999999988">
        <ele>1321.474</ele>
        <time>2022-08-24T10:26:34Z</time>
      </trkpt>
      <trkpt lat="43.034388999999614" lon="-1.2917459999999987">
        <ele>1321.636</ele>
        <time>2022-08-24T10:26:35Z</time>
      </trkpt>
      <trkpt lat="43.03437799999961" lon="-1.2917499999999986">
        <ele>1321.873</ele>
        <time>2022-08-24T10:26:36Z</time>
      </trkpt>
      <trkpt lat="43.034368999999614" lon="-1.2917489999999987">
        <ele>1322.056</ele>
        <time>2022-08-24T10:26:37Z</time>
      </trkpt>
      <trkpt lat="43.03436099999961" lon="-1.2917509999999988">
        <ele>1322.020</ele>
        <time>2022-08-24T10:26:38Z</time>
      </trkpt>
      <trkpt lat="43.034348999999615" lon="-1.2917529999999988">
        <ele>1322.039</ele>
        <time>2022-08-24T10:26:39Z</time>
      </trkpt>
      <trkpt lat="43.03433699999962" lon="-1.2917569999999987">
        <ele>1322.278</ele>
        <time>2022-08-24T10:26:40Z</time>
      </trkpt>
      <trkpt lat="43.034326999999614" lon="-1.2917619999999987">
        <ele>1322.233</ele>
        <time>2022-08-24T10:26:41Z</time>
      </trkpt>
      <trkpt lat="43.03431599999961" lon="-1.2917669999999988">
        <ele>1322.226</ele>
        <time>2022-08-24T10:26:42Z</time>
      </trkpt>
      <trkpt lat="43.03430599999961" lon="-1.2917719999999988">
        <ele>1322.209</ele>
        <time>2022-08-24T10:26:43Z</time>
      </trkpt>
      <trkpt lat="43.03429099999961" lon="-1.2917749999999988">
        <ele>1322.238</ele>
        <time>2022-08-24T10:26:44Z</time>
      </trkpt>
      <trkpt lat="43.034278999999614" lon="-1.2917769999999988">
        <ele>1322.278</ele>
        <time>2022-08-24T10:26:45Z</time>
      </trkpt>
      <trkpt lat="43.034267999999614" lon="-1.2917809999999987">
        <ele>1322.248</ele>
        <time>2022-08-24T10:26:46Z</time>
      </trkpt>
      <trkpt lat="43.03425699999961" lon="-1.2917829999999988">
        <ele>1322.284</ele>
        <time>2022-08-24T10:26:47Z</time>
      </trkpt>
      <trkpt lat="43.03424599999961" lon="-1.2917859999999988">
        <ele>1322.286</ele>
        <time>2022-08-24T10:26:48Z</time>
      </trkpt>
      <trkpt lat="43.03423299999961" lon="-1.2917919999999987">
        <ele>1322.453</ele>
        <time>2022-08-24T10:26:49Z</time>
      </trkpt>
      <trkpt lat="43.03422099999961" lon="-1.2917969999999988">
        <ele>1322.436</ele>
        <time>2022-08-24T10:26:50Z</time>
      </trkpt>
      <trkpt lat="43.03420899999961" lon="-1.2917989999999988">
        <ele>1322.490</ele>
        <time>2022-08-24T10:26:51Z</time>
      </trkpt>
      <trkpt lat="43.034196999999615" lon="-1.2918049999999988">
        <ele>1322.489</ele>
        <time>2022-08-24T10:26:52Z</time>
      </trkpt>
      <trkpt lat="43.034182999999615" lon="-1.2918089999999987">
        <ele>1322.647</ele>
        <time>2022-08-24T10:26:53Z</time>
      </trkpt>
      <trkpt lat="43.03417399999962" lon="-1.2918119999999986">
        <ele>1322.829</ele>
        <time>2022-08-24T10:26:54Z</time>
      </trkpt>
      <trkpt lat="43.034168999999615" lon="-1.2918129999999985">
        <ele>1322.821</ele>
        <time>2022-08-24T10:26:55Z</time>
      </trkpt>
      <trkpt lat="43.03416699999961" lon="-1.2918129999999985">
        <ele>1324.009</ele>
        <time>2022-08-24T10:27:39Z</time>
      </trkpt>
      <trkpt lat="43.034157999999614" lon="-1.2918169999999984">
        <ele>1324.095</ele>
        <time>2022-08-24T10:27:40Z</time>
      </trkpt>
      <trkpt lat="43.03414799999961" lon="-1.2918189999999985">
        <ele>1324.215</ele>
        <time>2022-08-24T10:27:41Z</time>
      </trkpt>
      <trkpt lat="43.03407599999961" lon="-1.2918329999999985">
        <ele>1324.285</ele>
        <time>2022-08-24T10:27:47Z</time>
      </trkpt>
      <trkpt lat="43.03403099999961" lon="-1.2918409999999985">
        <ele>1324.271</ele>
        <time>2022-08-24T10:27:50Z</time>
      </trkpt>
      <trkpt lat="43.03392899999961" lon="-1.2918519999999984">
        <ele>1323.853</ele>
        <time>2022-08-24T10:27:56Z</time>
      </trkpt>
      <trkpt lat="43.03391199999961" lon="-1.2918509999999985">
        <ele>1323.810</ele>
        <time>2022-08-24T10:27:57Z</time>
      </trkpt>
      <trkpt lat="43.03389499999961" lon="-1.2918489999999985">
        <ele>1323.893</ele>
        <time>2022-08-24T10:27:58Z</time>
      </trkpt>
      <trkpt lat="43.03380299999961" lon="-1.2918369999999986">
        <ele>1323.687</ele>
        <time>2022-08-24T10:28:03Z</time>
      </trkpt>
      <trkpt lat="43.03375099999961" lon="-1.2918219999999985">
        <ele>1323.866</ele>
        <time>2022-08-24T10:28:06Z</time>
      </trkpt>
      <trkpt lat="43.03373699999961" lon="-1.2918189999999985">
        <ele>1323.866</ele>
        <time>2022-08-24T10:28:07Z</time>
      </trkpt>
      <trkpt lat="43.033721999999614" lon="-1.2918119999999984">
        <ele>1323.829</ele>
        <time>2022-08-24T10:28:08Z</time>
      </trkpt>
      <trkpt lat="43.03370799999961" lon="-1.2918079999999985">
        <ele>1324.021</ele>
        <time>2022-08-24T10:28:09Z</time>
      </trkpt>
      <trkpt lat="43.033678999999616" lon="-1.2918069999999986">
        <ele>1324.009</ele>
        <time>2022-08-24T10:28:11Z</time>
      </trkpt>
      <trkpt lat="43.03366399999962" lon="-1.2918039999999986">
        <ele>1324.037</ele>
        <time>2022-08-24T10:28:12Z</time>
      </trkpt>
      <trkpt lat="43.03362999999962" lon="-1.2917999999999987">
        <ele>1324.227</ele>
        <time>2022-08-24T10:28:14Z</time>
      </trkpt>
      <trkpt lat="43.03361299999962" lon="-1.2917959999999988">
        <ele>1324.447</ele>
        <time>2022-08-24T10:28:15Z</time>
      </trkpt>
      <trkpt lat="43.033599999999616" lon="-1.2917939999999988">
        <ele>1324.433</ele>
        <time>2022-08-24T10:28:16Z</time>
      </trkpt>
      <trkpt lat="43.03358699999961" lon="-1.2917919999999987">
        <ele>1324.645</ele>
        <time>2022-08-24T10:28:17Z</time>
      </trkpt>
      <trkpt lat="43.03357299999961" lon="-1.2917889999999987">
        <ele>1324.852</ele>
        <time>2022-08-24T10:28:18Z</time>
      </trkpt>
      <trkpt lat="43.03355899999961" lon="-1.2917869999999987">
        <ele>1324.875</ele>
        <time>2022-08-24T10:28:19Z</time>
      </trkpt>
      <trkpt lat="43.033524999999614" lon="-1.2917799999999986">
        <ele>1325.089</ele>
        <time>2022-08-24T10:28:22Z</time>
      </trkpt>
      <trkpt lat="43.03350899999961" lon="-1.2917829999999986">
        <ele>1325.028</ele>
        <time>2022-08-24T10:28:23Z</time>
      </trkpt>
      <trkpt lat="43.033493999999614" lon="-1.2917809999999985">
        <ele>1325.256</ele>
        <time>2022-08-24T10:28:24Z</time>
      </trkpt>
      <trkpt lat="43.03340999999961" lon="-1.2917549999999984">
        <ele>1325.259</ele>
        <time>2022-08-24T10:28:28Z</time>
      </trkpt>
      <trkpt lat="43.03333699999961" lon="-1.2917279999999984">
        <ele>1325.414</ele>
        <time>2022-08-24T10:28:31Z</time>
      </trkpt>
      <trkpt lat="43.03328399999961" lon="-1.2917109999999985">
        <ele>1325.409</ele>
        <time>2022-08-24T10:28:33Z</time>
      </trkpt>
      <trkpt lat="43.03325999999961" lon="-1.2917099999999986">
        <ele>1325.626</ele>
        <time>2022-08-24T10:28:34Z</time>
      </trkpt>
      <trkpt lat="43.03323199999961" lon="-1.2917089999999987">
        <ele>1325.666</ele>
        <time>2022-08-24T10:28:35Z</time>
      </trkpt>
      <trkpt lat="43.033204999999604" lon="-1.2917109999999987">
        <ele>1325.836</ele>
        <time>2022-08-24T10:28:36Z</time>
      </trkpt>
      <trkpt lat="43.033187999999605" lon="-1.2917129999999988">
        <ele>1325.882</ele>
        <time>2022-08-24T10:28:37Z</time>
      </trkpt>
      <trkpt lat="43.033162999999604" lon="-1.2917149999999988">
        <ele>1326.084</ele>
        <time>2022-08-24T10:28:38Z</time>
      </trkpt>
      <trkpt lat="43.033133999999606" lon="-1.291713999999999">
        <ele>1326.081</ele>
        <time>2022-08-24T10:28:39Z</time>
      </trkpt>
      <trkpt lat="43.0331099999996" lon="-1.2917199999999989">
        <ele>1326.084</ele>
        <time>2022-08-24T10:28:40Z</time>
      </trkpt>
      <trkpt lat="43.0330879999996" lon="-1.2917239999999988">
        <ele>1326.238</ele>
        <time>2022-08-24T10:28:41Z</time>
      </trkpt>
      <trkpt lat="43.0330649999996" lon="-1.2917169999999987">
        <ele>1326.437</ele>
        <time>2022-08-24T10:28:42Z</time>
      </trkpt>
      <trkpt lat="43.033049999999605" lon="-1.2917129999999988">
        <ele>1326.815</ele>
        <time>2022-08-24T10:28:43Z</time>
      </trkpt>
      <trkpt lat="43.0330309999996" lon="-1.2917139999999987">
        <ele>1327.065</ele>
        <time>2022-08-24T10:28:44Z</time>
      </trkpt>
      <trkpt lat="43.0330119999996" lon="-1.2917189999999987">
        <ele>1327.211</ele>
        <time>2022-08-24T10:28:45Z</time>
      </trkpt>
      <trkpt lat="43.032993999999604" lon="-1.2917169999999987">
        <ele>1327.609</ele>
        <time>2022-08-24T10:28:46Z</time>
      </trkpt>
      <trkpt lat="43.03297599999961" lon="-1.2917209999999986">
        <ele>1327.892</ele>
        <time>2022-08-24T10:28:47Z</time>
      </trkpt>
      <trkpt lat="43.03296099999961" lon="-1.2917239999999985">
        <ele>1328.092</ele>
        <time>2022-08-24T10:28:48Z</time>
      </trkpt>
      <trkpt lat="43.03294699999961" lon="-1.2917289999999986">
        <ele>1328.222</ele>
        <time>2022-08-24T10:28:49Z</time>
      </trkpt>
      <trkpt lat="43.03292699999961" lon="-1.2917339999999986">
        <ele>1328.258</ele>
        <time>2022-08-24T10:28:50Z</time>
      </trkpt>
      <trkpt lat="43.03291099999961" lon="-1.2917399999999986">
        <ele>1328.460</ele>
        <time>2022-08-24T10:28:51Z</time>
      </trkpt>
      <trkpt lat="43.032897999999605" lon="-1.2917509999999985">
        <ele>1328.657</ele>
        <time>2022-08-24T10:28:52Z</time>
      </trkpt>
      <trkpt lat="43.0328849999996" lon="-1.2917619999999985">
        <ele>1328.830</ele>
        <time>2022-08-24T10:28:53Z</time>
      </trkpt>
      <trkpt lat="43.032872999999604" lon="-1.2917709999999984">
        <ele>1328.864</ele>
        <time>2022-08-24T10:28:54Z</time>
      </trkpt>
      <trkpt lat="43.03285799999961" lon="-1.2917809999999985">
        <ele>1329.053</ele>
        <time>2022-08-24T10:28:55Z</time>
      </trkpt>
      <trkpt lat="43.032844999999604" lon="-1.2917879999999986">
        <ele>1329.217</ele>
        <time>2022-08-24T10:28:56Z</time>
      </trkpt>
      <trkpt lat="43.032835999999605" lon="-1.2917979999999987">
        <ele>1329.487</ele>
        <time>2022-08-24T10:28:57Z</time>
      </trkpt>
      <trkpt lat="43.032827999999604" lon="-1.2918089999999987">
        <ele>1329.615</ele>
        <time>2022-08-24T10:28:58Z</time>
      </trkpt>
      <trkpt lat="43.0328169999996" lon="-1.2918219999999987">
        <ele>1329.609</ele>
        <time>2022-08-24T10:28:59Z</time>
      </trkpt>
      <trkpt lat="43.0328059999996" lon="-1.2918329999999987">
        <ele>1330.242</ele>
        <time>2022-08-24T10:29:00Z</time>
      </trkpt>
      <trkpt lat="43.0327949999996" lon="-1.2918449999999986">
        <ele>1330.482</ele>
        <time>2022-08-24T10:29:01Z</time>
      </trkpt>
      <trkpt lat="43.0327849999996" lon="-1.2918529999999986">
        <ele>1330.822</ele>
        <time>2022-08-24T10:29:02Z</time>
      </trkpt>
      <trkpt lat="43.0327779999996" lon="-1.2918569999999985">
        <ele>1331.018</ele>
        <time>2022-08-24T10:29:03Z</time>
      </trkpt>
      <trkpt lat="43.0327679999996" lon="-1.2918659999999984">
        <ele>1331.030</ele>
        <time>2022-08-24T10:29:04Z</time>
      </trkpt>
      <trkpt lat="43.032757999999596" lon="-1.2918749999999983">
        <ele>1331.447</ele>
        <time>2022-08-24T10:29:05Z</time>
      </trkpt>
      <trkpt lat="43.032749999999595" lon="-1.2918869999999982">
        <ele>1331.440</ele>
        <time>2022-08-24T10:29:06Z</time>
      </trkpt>
      <trkpt lat="43.032741999999594" lon="-1.2918959999999982">
        <ele>1331.634</ele>
        <time>2022-08-24T10:29:07Z</time>
      </trkpt>
      <trkpt lat="43.03273199999959" lon="-1.2919039999999982">
        <ele>1331.873</ele>
        <time>2022-08-24T10:29:08Z</time>
      </trkpt>
      <trkpt lat="43.03272199999959" lon="-1.2919109999999983">
        <ele>1331.868</ele>
        <time>2022-08-24T10:29:09Z</time>
      </trkpt>
      <trkpt lat="43.03271299999959" lon="-1.2919139999999982">
        <ele>1332.042</ele>
        <time>2022-08-24T10:29:10Z</time>
      </trkpt>
      <trkpt lat="43.03270399999959" lon="-1.2919209999999983">
        <ele>1332.026</ele>
        <time>2022-08-24T10:29:11Z</time>
      </trkpt>
      <trkpt lat="43.03269499999959" lon="-1.2919259999999984">
        <ele>1332.209</ele>
        <time>2022-08-24T10:29:12Z</time>
      </trkpt>
      <trkpt lat="43.03268699999959" lon="-1.2919279999999984">
        <ele>1332.447</ele>
        <time>2022-08-24T10:29:13Z</time>
      </trkpt>
      <trkpt lat="43.03267799999959" lon="-1.2919339999999984">
        <ele>1332.457</ele>
        <time>2022-08-24T10:29:14Z</time>
      </trkpt>
      <trkpt lat="43.03266899999959" lon="-1.2919409999999985">
        <ele>1332.667</ele>
        <time>2022-08-24T10:29:15Z</time>
      </trkpt>
      <trkpt lat="43.03265799999959" lon="-1.2919459999999985">
        <ele>1332.673</ele>
        <time>2022-08-24T10:29:16Z</time>
      </trkpt>
      <trkpt lat="43.03264499999959" lon="-1.2919519999999984">
        <ele>1332.645</ele>
        <time>2022-08-24T10:29:17Z</time>
      </trkpt>
      <trkpt lat="43.03263299999959" lon="-1.2919599999999984">
        <ele>1332.692</ele>
        <time>2022-08-24T10:29:18Z</time>
      </trkpt>
      <trkpt lat="43.03262499999959" lon="-1.2919689999999984">
        <ele>1332.825</ele>
        <time>2022-08-24T10:29:19Z</time>
      </trkpt>
      <trkpt lat="43.032617999999594" lon="-1.2919769999999984">
        <ele>1332.819</ele>
        <time>2022-08-24T10:29:20Z</time>
      </trkpt>
      <trkpt lat="43.032611999999595" lon="-1.2919869999999984">
        <ele>1333.288</ele>
        <time>2022-08-24T10:29:21Z</time>
      </trkpt>
      <trkpt lat="43.0326079999996" lon="-1.2919939999999985">
        <ele>1333.214</ele>
        <time>2022-08-24T10:29:22Z</time>
      </trkpt>
      <trkpt lat="43.0326029999996" lon="-1.2919999999999985">
        <ele>1333.454</ele>
        <time>2022-08-24T10:29:23Z</time>
      </trkpt>
      <trkpt lat="43.032597999999595" lon="-1.2920079999999985">
        <ele>1333.409</ele>
        <time>2022-08-24T10:29:24Z</time>
      </trkpt>
      <trkpt lat="43.032591999999596" lon="-1.2920159999999985">
        <ele>1333.409</ele>
        <time>2022-08-24T10:29:25Z</time>
      </trkpt>
      <trkpt lat="43.0325849999996" lon="-1.2920229999999986">
        <ele>1333.862</ele>
        <time>2022-08-24T10:29:26Z</time>
      </trkpt>
      <trkpt lat="43.0325789999996" lon="-1.2920299999999987">
        <ele>1334.082</ele>
        <time>2022-08-24T10:29:27Z</time>
      </trkpt>
      <trkpt lat="43.0325729999996" lon="-1.2920409999999987">
        <ele>1334.232</ele>
        <time>2022-08-24T10:29:28Z</time>
      </trkpt>
      <trkpt lat="43.0325649999996" lon="-1.2920469999999986">
        <ele>1334.288</ele>
        <time>2022-08-24T10:29:29Z</time>
      </trkpt>
      <trkpt lat="43.0325599999996" lon="-1.2920539999999987">
        <ele>1334.230</ele>
        <time>2022-08-24T10:29:30Z</time>
      </trkpt>
      <trkpt lat="43.0325509999996" lon="-1.2920599999999987">
        <ele>1334.467</ele>
        <time>2022-08-24T10:29:31Z</time>
      </trkpt>
      <trkpt lat="43.032543999999604" lon="-1.2920679999999987">
        <ele>1334.450</ele>
        <time>2022-08-24T10:29:32Z</time>
      </trkpt>
      <trkpt lat="43.03253699999961" lon="-1.2920709999999986">
        <ele>1334.864</ele>
        <time>2022-08-24T10:29:33Z</time>
      </trkpt>
      <trkpt lat="43.032528999999606" lon="-1.2920749999999985">
        <ele>1334.873</ele>
        <time>2022-08-24T10:29:34Z</time>
      </trkpt>
      <trkpt lat="43.03251699999961" lon="-1.2920829999999985">
        <ele>1335.022</ele>
        <time>2022-08-24T10:29:35Z</time>
      </trkpt>
      <trkpt lat="43.03250799999961" lon="-1.2920929999999986">
        <ele>1335.062</ele>
        <time>2022-08-24T10:29:36Z</time>
      </trkpt>
      <trkpt lat="43.03250099999961" lon="-1.2921039999999986">
        <ele>1335.208</ele>
        <time>2022-08-24T10:29:37Z</time>
      </trkpt>
      <trkpt lat="43.032493999999616" lon="-1.2921159999999985">
        <ele>1335.209</ele>
        <time>2022-08-24T10:29:38Z</time>
      </trkpt>
      <trkpt lat="43.03248499999962" lon="-1.2921239999999985">
        <ele>1335.243</ele>
        <time>2022-08-24T10:29:39Z</time>
      </trkpt>
      <trkpt lat="43.032474999999614" lon="-1.2921339999999986">
        <ele>1335.453</ele>
        <time>2022-08-24T10:29:40Z</time>
      </trkpt>
      <trkpt lat="43.03246699999961" lon="-1.2921499999999986">
        <ele>1335.433</ele>
        <time>2022-08-24T10:29:41Z</time>
      </trkpt>
      <trkpt lat="43.03246199999961" lon="-1.2921599999999986">
        <ele>1335.459</ele>
        <time>2022-08-24T10:29:42Z</time>
      </trkpt>
      <trkpt lat="43.03245199999961" lon="-1.2921739999999986">
        <ele>1335.611</ele>
        <time>2022-08-24T10:29:43Z</time>
      </trkpt>
      <trkpt lat="43.032441999999605" lon="-1.2921789999999986">
        <ele>1335.688</ele>
        <time>2022-08-24T10:29:44Z</time>
      </trkpt>
      <trkpt lat="43.03243299999961" lon="-1.2921889999999987">
        <ele>1335.631</ele>
        <time>2022-08-24T10:29:45Z</time>
      </trkpt>
      <trkpt lat="43.03242699999961" lon="-1.2922039999999988">
        <ele>1335.845</ele>
        <time>2022-08-24T10:29:46Z</time>
      </trkpt>
      <trkpt lat="43.03241799999961" lon="-1.2922139999999989">
        <ele>1336.024</ele>
        <time>2022-08-24T10:29:47Z</time>
      </trkpt>
      <trkpt lat="43.03240999999961" lon="-1.2922229999999988">
        <ele>1336.287</ele>
        <time>2022-08-24T10:29:48Z</time>
      </trkpt>
      <trkpt lat="43.03240199999961" lon="-1.2922309999999988">
        <ele>1336.442</ele>
        <time>2022-08-24T10:29:49Z</time>
      </trkpt>
      <trkpt lat="43.032391999999604" lon="-1.2922359999999988">
        <ele>1336.426</ele>
        <time>2022-08-24T10:29:50Z</time>
      </trkpt>
      <trkpt lat="43.032379999999606" lon="-1.292245999999999">
        <ele>1336.609</ele>
        <time>2022-08-24T10:29:51Z</time>
      </trkpt>
      <trkpt lat="43.03237099999961" lon="-1.292255999999999">
        <ele>1336.879</ele>
        <time>2022-08-24T10:29:52Z</time>
      </trkpt>
      <trkpt lat="43.032359999999606" lon="-1.2922649999999989">
        <ele>1337.019</ele>
        <time>2022-08-24T10:29:53Z</time>
      </trkpt>
      <trkpt lat="43.032345999999606" lon="-1.292269999999999">
        <ele>1337.049</ele>
        <time>2022-08-24T10:29:54Z</time>
      </trkpt>
      <trkpt lat="43.0323359999996" lon="-1.292282999999999">
        <ele>1337.265</ele>
        <time>2022-08-24T10:29:55Z</time>
      </trkpt>
      <trkpt lat="43.0323279999996" lon="-1.292295999999999">
        <ele>1337.297</ele>
        <time>2022-08-24T10:29:56Z</time>
      </trkpt>
      <trkpt lat="43.0323199999996" lon="-1.292307999999999">
        <ele>1337.444</ele>
        <time>2022-08-24T10:29:57Z</time>
      </trkpt>
      <trkpt lat="43.0323109999996" lon="-1.292320999999999">
        <ele>1337.487</ele>
        <time>2022-08-24T10:29:58Z</time>
      </trkpt>
      <trkpt lat="43.0323029999996" lon="-1.292328999999999">
        <ele>1337.621</ele>
        <time>2022-08-24T10:29:59Z</time>
      </trkpt>
      <trkpt lat="43.0322919999996" lon="-1.292338999999999">
        <ele>1337.850</ele>
        <time>2022-08-24T10:30:00Z</time>
      </trkpt>
      <trkpt lat="43.0322879999996" lon="-1.292346999999999">
        <ele>1337.874</ele>
        <time>2022-08-24T10:30:01Z</time>
      </trkpt>
      <trkpt lat="43.032284999999604" lon="-1.292345999999999">
        <ele>1338.056</ele>
        <time>2022-08-24T10:30:02Z</time>
      </trkpt>
      <trkpt lat="43.032278999999605" lon="-1.2923539999999991">
        <ele>1338.021</ele>
        <time>2022-08-24T10:30:03Z</time>
      </trkpt>
      <trkpt lat="43.032269999999606" lon="-1.292367999999999">
        <ele>1338.209</ele>
        <time>2022-08-24T10:30:04Z</time>
      </trkpt>
      <trkpt lat="43.03226299999961" lon="-1.292379999999999">
        <ele>1338.278</ele>
        <time>2022-08-24T10:30:05Z</time>
      </trkpt>
      <trkpt lat="43.03225699999961" lon="-1.292390999999999">
        <ele>1338.498</ele>
        <time>2022-08-24T10:30:06Z</time>
      </trkpt>
      <trkpt lat="43.03224899999961" lon="-1.292401999999999">
        <ele>1338.868</ele>
        <time>2022-08-24T10:30:07Z</time>
      </trkpt>
      <trkpt lat="43.03224399999961" lon="-1.292415999999999">
        <ele>1339.044</ele>
        <time>2022-08-24T10:30:08Z</time>
      </trkpt>
      <trkpt lat="43.032230999999605" lon="-1.292422999999999">
        <ele>1339.256</ele>
        <time>2022-08-24T10:30:09Z</time>
      </trkpt>
      <trkpt lat="43.0322179999996" lon="-1.292429999999999">
        <ele>1339.493</ele>
        <time>2022-08-24T10:30:10Z</time>
      </trkpt>
      <trkpt lat="43.0322069999996" lon="-1.2924369999999992">
        <ele>1339.826</ele>
        <time>2022-08-24T10:30:11Z</time>
      </trkpt>
      <trkpt lat="43.032194999999604" lon="-1.2924509999999991">
        <ele>1339.870</ele>
        <time>2022-08-24T10:30:12Z</time>
      </trkpt>
      <trkpt lat="43.0321849999996" lon="-1.2924619999999991">
        <ele>1340.089</ele>
        <time>2022-08-24T10:30:13Z</time>
      </trkpt>
      <trkpt lat="43.0321749999996" lon="-1.2924699999999991">
        <ele>1340.231</ele>
        <time>2022-08-24T10:30:14Z</time>
      </trkpt>
      <trkpt lat="43.032166999999596" lon="-1.292478999999999">
        <ele>1340.461</ele>
        <time>2022-08-24T10:30:15Z</time>
      </trkpt>
      <trkpt lat="43.0321579999996" lon="-1.292488999999999">
        <ele>1340.607</ele>
        <time>2022-08-24T10:30:16Z</time>
      </trkpt>
      <trkpt lat="43.032147999999594" lon="-1.2924989999999992">
        <ele>1340.609</ele>
        <time>2022-08-24T10:30:17Z</time>
      </trkpt>
      <trkpt lat="43.0321329999996" lon="-1.292507999999999">
        <ele>1340.874</ele>
        <time>2022-08-24T10:30:18Z</time>
      </trkpt>
      <trkpt lat="43.032119999999594" lon="-1.292519999999999">
        <ele>1341.024</ele>
        <time>2022-08-24T10:30:19Z</time>
      </trkpt>
      <trkpt lat="43.032107999999596" lon="-1.292530999999999">
        <ele>1341.254</ele>
        <time>2022-08-24T10:30:20Z</time>
      </trkpt>
      <trkpt lat="43.032096999999595" lon="-1.292541999999999">
        <ele>1341.270</ele>
        <time>2022-08-24T10:30:21Z</time>
      </trkpt>
      <trkpt lat="43.032088999999594" lon="-1.2925539999999989">
        <ele>1341.462</ele>
        <time>2022-08-24T10:30:22Z</time>
      </trkpt>
      <trkpt lat="43.032079999999596" lon="-1.2925649999999989">
        <ele>1341.659</ele>
        <time>2022-08-24T10:30:23Z</time>
      </trkpt>
      <trkpt lat="43.0320729999996" lon="-1.292574999999999">
        <ele>1341.832</ele>
        <time>2022-08-24T10:30:24Z</time>
      </trkpt>
      <trkpt lat="43.0320609999996" lon="-1.292579999999999">
        <ele>1342.026</ele>
        <time>2022-08-24T10:30:25Z</time>
      </trkpt>
      <trkpt lat="43.0320479999996" lon="-1.292584999999999">
        <ele>1342.295</ele>
        <time>2022-08-24T10:30:26Z</time>
      </trkpt>
      <trkpt lat="43.032031999999596" lon="-1.292584999999999">
        <ele>1342.491</ele>
        <time>2022-08-24T10:30:27Z</time>
      </trkpt>
      <trkpt lat="43.03201899999959" lon="-1.292583999999999">
        <ele>1342.481</ele>
        <time>2022-08-24T10:30:28Z</time>
      </trkpt>
      <trkpt lat="43.03200599999959" lon="-1.292586999999999">
        <ele>1342.419</ele>
        <time>2022-08-24T10:30:29Z</time>
      </trkpt>
      <trkpt lat="43.03199599999959" lon="-1.292592999999999">
        <ele>1343.009</ele>
        <time>2022-08-24T10:30:30Z</time>
      </trkpt>
      <trkpt lat="43.03198699999959" lon="-1.2925969999999989">
        <ele>1343.220</ele>
        <time>2022-08-24T10:30:31Z</time>
      </trkpt>
      <trkpt lat="43.03197899999959" lon="-1.2926029999999988">
        <ele>1343.620</ele>
        <time>2022-08-24T10:30:32Z</time>
      </trkpt>
      <trkpt lat="43.03197199999959" lon="-1.2926119999999988">
        <ele>1344.090</ele>
        <time>2022-08-24T10:30:33Z</time>
      </trkpt>
      <trkpt lat="43.03196599999959" lon="-1.2926209999999987">
        <ele>1344.036</ele>
        <time>2022-08-24T10:30:34Z</time>
      </trkpt>
      <trkpt lat="43.03195799999959" lon="-1.2926299999999986">
        <ele>1344.258</ele>
        <time>2022-08-24T10:30:35Z</time>
      </trkpt>
      <trkpt lat="43.031950999999594" lon="-1.2926429999999987">
        <ele>1344.265</ele>
        <time>2022-08-24T10:30:36Z</time>
      </trkpt>
      <trkpt lat="43.03194099999959" lon="-1.2926549999999986">
        <ele>1344.278</ele>
        <time>2022-08-24T10:30:37Z</time>
      </trkpt>
      <trkpt lat="43.03193299999959" lon="-1.2926649999999986">
        <ele>1344.682</ele>
        <time>2022-08-24T10:30:38Z</time>
      </trkpt>
      <trkpt lat="43.031925999999594" lon="-1.2926779999999987">
        <ele>1344.611</ele>
        <time>2022-08-24T10:30:39Z</time>
      </trkpt>
      <trkpt lat="43.0319189999996" lon="-1.2926899999999986">
        <ele>1344.845</ele>
        <time>2022-08-24T10:30:40Z</time>
      </trkpt>
      <trkpt lat="43.0319099999996" lon="-1.2927009999999985">
        <ele>1345.047</ele>
        <time>2022-08-24T10:30:41Z</time>
      </trkpt>
      <trkpt lat="43.0319009999996" lon="-1.2927139999999986">
        <ele>1345.211</ele>
        <time>2022-08-24T10:30:42Z</time>
      </trkpt>
      <trkpt lat="43.0318929999996" lon="-1.2927209999999987">
        <ele>1345.209</ele>
        <time>2022-08-24T10:30:43Z</time>
      </trkpt>
      <trkpt lat="43.031882999999596" lon="-1.2927269999999986">
        <ele>1345.665</ele>
        <time>2022-08-24T10:30:44Z</time>
      </trkpt>
      <trkpt lat="43.0318709999996" lon="-1.2927349999999986">
        <ele>1345.875</ele>
        <time>2022-08-24T10:30:45Z</time>
      </trkpt>
      <trkpt lat="43.031860999999594" lon="-1.2927439999999986">
        <ele>1346.055</ele>
        <time>2022-08-24T10:30:46Z</time>
      </trkpt>
      <trkpt lat="43.03185099999959" lon="-1.2927549999999985">
        <ele>1346.291</ele>
        <time>2022-08-24T10:30:47Z</time>
      </trkpt>
      <trkpt lat="43.031843999999595" lon="-1.2927709999999986">
        <ele>1346.253</ele>
        <time>2022-08-24T10:30:48Z</time>
      </trkpt>
      <trkpt lat="43.031834999999596" lon="-1.2927819999999985">
        <ele>1346.610</ele>
        <time>2022-08-24T10:30:49Z</time>
      </trkpt>
      <trkpt lat="43.031826999999595" lon="-1.2927919999999986">
        <ele>1346.653</ele>
        <time>2022-08-24T10:30:50Z</time>
      </trkpt>
      <trkpt lat="43.03182499999959" lon="-1.2928029999999986">
        <ele>1346.867</ele>
        <time>2022-08-24T10:30:51Z</time>
      </trkpt>
      <trkpt lat="43.03182199999959" lon="-1.2928199999999985">
        <ele>1347.246</ele>
        <time>2022-08-24T10:30:52Z</time>
      </trkpt>
      <trkpt lat="43.031817999999596" lon="-1.2928329999999986">
        <ele>1347.264</ele>
        <time>2022-08-24T10:30:53Z</time>
      </trkpt>
      <trkpt lat="43.0318119999996" lon="-1.2928419999999985">
        <ele>1347.406</ele>
        <time>2022-08-24T10:30:54Z</time>
      </trkpt>
      <trkpt lat="43.031806999999596" lon="-1.2928519999999986">
        <ele>1347.616</ele>
        <time>2022-08-24T10:30:55Z</time>
      </trkpt>
      <trkpt lat="43.0317979999996" lon="-1.2928579999999985">
        <ele>1347.809</ele>
        <time>2022-08-24T10:30:56Z</time>
      </trkpt>
      <trkpt lat="43.031787999999594" lon="-1.2928649999999986">
        <ele>1348.067</ele>
        <time>2022-08-24T10:30:57Z</time>
      </trkpt>
      <trkpt lat="43.031781999999595" lon="-1.2928759999999986">
        <ele>1348.017</ele>
        <time>2022-08-24T10:30:58Z</time>
      </trkpt>
      <trkpt lat="43.0317779999996" lon="-1.2928799999999985">
        <ele>1348.227</ele>
        <time>2022-08-24T10:30:59Z</time>
      </trkpt>
      <trkpt lat="43.031772999999596" lon="-1.2928889999999984">
        <ele>1348.223</ele>
        <time>2022-08-24T10:31:00Z</time>
      </trkpt>
      <trkpt lat="43.0317669999996" lon="-1.2928959999999985">
        <ele>1348.445</ele>
        <time>2022-08-24T10:31:01Z</time>
      </trkpt>
      <trkpt lat="43.031758999999596" lon="-1.2929099999999984">
        <ele>1348.462</ele>
        <time>2022-08-24T10:31:02Z</time>
      </trkpt>
      <trkpt lat="43.0317519999996" lon="-1.2929199999999985">
        <ele>1348.635</ele>
        <time>2022-08-24T10:31:03Z</time>
      </trkpt>
      <trkpt lat="43.031741999999596" lon="-1.2929299999999986">
        <ele>1349.069</ele>
        <time>2022-08-24T10:31:04Z</time>
      </trkpt>
      <trkpt lat="43.031733999999595" lon="-1.2929359999999985">
        <ele>1349.098</ele>
        <time>2022-08-24T10:31:05Z</time>
      </trkpt>
      <trkpt lat="43.031728999999594" lon="-1.2929449999999985">
        <ele>1349.224</ele>
        <time>2022-08-24T10:31:06Z</time>
      </trkpt>
      <trkpt lat="43.031719999999595" lon="-1.2929479999999984">
        <ele>1349.204</ele>
        <time>2022-08-24T10:31:07Z</time>
      </trkpt>
      <trkpt lat="43.0317159999996" lon="-1.2929549999999985">
        <ele>1349.414</ele>
        <time>2022-08-24T10:31:08Z</time>
      </trkpt>
      <trkpt lat="43.031713999999596" lon="-1.2929629999999985">
        <ele>1349.609</ele>
        <time>2022-08-24T10:31:09Z</time>
      </trkpt>
      <trkpt lat="43.0317129999996" lon="-1.2929749999999984">
        <ele>1349.893</ele>
        <time>2022-08-24T10:31:10Z</time>
      </trkpt>
      <trkpt lat="43.0317089999996" lon="-1.2929819999999985">
        <ele>1349.873</ele>
        <time>2022-08-24T10:31:11Z</time>
      </trkpt>
      <trkpt lat="43.0317029999996" lon="-1.2929889999999986">
        <ele>1350.023</ele>
        <time>2022-08-24T10:31:12Z</time>
      </trkpt>
      <trkpt lat="43.0316949999996" lon="-1.2929949999999986">
        <ele>1350.299</ele>
        <time>2022-08-24T10:31:13Z</time>
      </trkpt>
      <trkpt lat="43.0316889999996" lon="-1.2930029999999986">
        <ele>1350.261</ele>
        <time>2022-08-24T10:31:14Z</time>
      </trkpt>
      <trkpt lat="43.031679999999604" lon="-1.2930109999999986">
        <ele>1350.238</ele>
        <time>2022-08-24T10:31:15Z</time>
      </trkpt>
      <trkpt lat="43.0316669999996" lon="-1.2930159999999986">
        <ele>1350.421</ele>
        <time>2022-08-24T10:31:16Z</time>
      </trkpt>
      <trkpt lat="43.0316589999996" lon="-1.2930249999999985">
        <ele>1350.445</ele>
        <time>2022-08-24T10:31:17Z</time>
      </trkpt>
      <trkpt lat="43.0316529999996" lon="-1.2930339999999985">
        <ele>1350.664</ele>
        <time>2022-08-24T10:31:18Z</time>
      </trkpt>
      <trkpt lat="43.0316479999996" lon="-1.2930419999999985">
        <ele>1350.633</ele>
        <time>2022-08-24T10:31:19Z</time>
      </trkpt>
      <trkpt lat="43.0316439999996" lon="-1.2930489999999986">
        <ele>1350.623</ele>
        <time>2022-08-24T10:31:20Z</time>
      </trkpt>
      <trkpt lat="43.0316339999996" lon="-1.2930579999999985">
        <ele>1350.815</ele>
        <time>2022-08-24T10:31:21Z</time>
      </trkpt>
      <trkpt lat="43.0316259999996" lon="-1.2930669999999984">
        <ele>1350.809</ele>
        <time>2022-08-24T10:31:22Z</time>
      </trkpt>
      <trkpt lat="43.031620999999596" lon="-1.2930769999999985">
        <ele>1351.044</ele>
        <time>2022-08-24T10:31:23Z</time>
      </trkpt>
      <trkpt lat="43.0316139999996" lon="-1.2930869999999985">
        <ele>1351.254</ele>
        <time>2022-08-24T10:31:24Z</time>
      </trkpt>
      <trkpt lat="43.0316089999996" lon="-1.2930959999999985">
        <ele>1351.414</ele>
        <time>2022-08-24T10:31:25Z</time>
      </trkpt>
      <trkpt lat="43.0316039999996" lon="-1.2931029999999986">
        <ele>1351.430</ele>
        <time>2022-08-24T10:31:26Z</time>
      </trkpt>
      <trkpt lat="43.0315979999996" lon="-1.2931129999999986">
        <ele>1351.632</ele>
        <time>2022-08-24T10:31:27Z</time>
      </trkpt>
      <trkpt lat="43.0315909999996" lon="-1.2931239999999986">
        <ele>1351.659</ele>
        <time>2022-08-24T10:31:28Z</time>
      </trkpt>
      <trkpt lat="43.0315849999996" lon="-1.2931369999999986">
        <ele>1351.822</ele>
        <time>2022-08-24T10:31:29Z</time>
      </trkpt>
      <trkpt lat="43.0315769999996" lon="-1.2931499999999987">
        <ele>1352.066</ele>
        <time>2022-08-24T10:31:30Z</time>
      </trkpt>
      <trkpt lat="43.031572999999604" lon="-1.2931659999999987">
        <ele>1352.035</ele>
        <time>2022-08-24T10:31:31Z</time>
      </trkpt>
      <trkpt lat="43.0315679999996" lon="-1.2931799999999987">
        <ele>1352.216</ele>
        <time>2022-08-24T10:31:32Z</time>
      </trkpt>
      <trkpt lat="43.031560999999606" lon="-1.2931909999999986">
        <ele>1352.276</ele>
        <time>2022-08-24T10:31:33Z</time>
      </trkpt>
      <trkpt lat="43.03155399999961" lon="-1.2932019999999986">
        <ele>1352.413</ele>
        <time>2022-08-24T10:31:34Z</time>
      </trkpt>
      <trkpt lat="43.03154799999961" lon="-1.2932109999999986">
        <ele>1352.409</ele>
        <time>2022-08-24T10:31:35Z</time>
      </trkpt>
      <trkpt lat="43.03153999999961" lon="-1.2932169999999985">
        <ele>1352.472</ele>
        <time>2022-08-24T10:31:36Z</time>
      </trkpt>
      <trkpt lat="43.03153399999961" lon="-1.2932289999999984">
        <ele>1352.422</ele>
        <time>2022-08-24T10:31:37Z</time>
      </trkpt>
      <trkpt lat="43.03152999999961" lon="-1.2932439999999985">
        <ele>1352.472</ele>
        <time>2022-08-24T10:31:38Z</time>
      </trkpt>
      <trkpt lat="43.03152499999961" lon="-1.2932549999999985">
        <ele>1352.698</ele>
        <time>2022-08-24T10:31:39Z</time>
      </trkpt>
      <trkpt lat="43.03151599999961" lon="-1.2932639999999984">
        <ele>1352.670</ele>
        <time>2022-08-24T10:31:40Z</time>
      </trkpt>
      <trkpt lat="43.031506999999614" lon="-1.2932709999999985">
        <ele>1352.667</ele>
        <time>2022-08-24T10:31:41Z</time>
      </trkpt>
      <trkpt lat="43.031497999999615" lon="-1.2932779999999986">
        <ele>1352.840</ele>
        <time>2022-08-24T10:31:42Z</time>
      </trkpt>
      <trkpt lat="43.03149099999962" lon="-1.2932849999999987">
        <ele>1352.884</ele>
        <time>2022-08-24T10:31:43Z</time>
      </trkpt>
      <trkpt lat="43.031480999999616" lon="-1.2932929999999987">
        <ele>1353.083</ele>
        <time>2022-08-24T10:31:44Z</time>
      </trkpt>
      <trkpt lat="43.03147399999962" lon="-1.2933019999999986">
        <ele>1353.039</ele>
        <time>2022-08-24T10:31:45Z</time>
      </trkpt>
      <trkpt lat="43.03146099999962" lon="-1.2933189999999986">
        <ele>1353.401</ele>
        <time>2022-08-24T10:31:47Z</time>
      </trkpt>
      <trkpt lat="43.031449999999616" lon="-1.2933229999999984">
        <ele>1353.621</ele>
        <time>2022-08-24T10:31:48Z</time>
      </trkpt>
      <trkpt lat="43.031441999999615" lon="-1.2933319999999984">
        <ele>1353.609</ele>
        <time>2022-08-24T10:31:49Z</time>
      </trkpt>
      <trkpt lat="43.03142999999962" lon="-1.2933509999999984">
        <ele>1353.874</ele>
        <time>2022-08-24T10:31:51Z</time>
      </trkpt>
      <trkpt lat="43.03141299999962" lon="-1.2933749999999984">
        <ele>1353.864</ele>
        <time>2022-08-24T10:31:53Z</time>
      </trkpt>
      <trkpt lat="43.03140399999962" lon="-1.2933839999999983">
        <ele>1354.024</ele>
        <time>2022-08-24T10:31:54Z</time>
      </trkpt>
      <trkpt lat="43.03139599999962" lon="-1.2933939999999984">
        <ele>1354.060</ele>
        <time>2022-08-24T10:31:55Z</time>
      </trkpt>
      <trkpt lat="43.031371999999614" lon="-1.2934179999999984">
        <ele>1354.252</ele>
        <time>2022-08-24T10:31:58Z</time>
      </trkpt>
      <trkpt lat="43.03136699999961" lon="-1.2934269999999983">
        <ele>1354.429</ele>
        <time>2022-08-24T10:31:59Z</time>
      </trkpt>
      <trkpt lat="43.03132499999961" lon="-1.2934709999999983">
        <ele>1354.872</ele>
        <time>2022-08-24T10:32:04Z</time>
      </trkpt>
      <trkpt lat="43.031317999999615" lon="-1.2934769999999982">
        <ele>1355.046</ele>
        <time>2022-08-24T10:32:05Z</time>
      </trkpt>
      <trkpt lat="43.03131099999962" lon="-1.2934849999999982">
        <ele>1355.045</ele>
        <time>2022-08-24T10:32:06Z</time>
      </trkpt>
      <trkpt lat="43.03128999999962" lon="-1.2935059999999983">
        <ele>1355.272</ele>
        <time>2022-08-24T10:32:08Z</time>
      </trkpt>
      <trkpt lat="43.031229999999624" lon="-1.2935689999999982">
        <ele>1355.813</ele>
        <time>2022-08-24T10:32:15Z</time>
      </trkpt>
      <trkpt lat="43.03117199999962" lon="-1.2936169999999982">
        <ele>1356.214</ele>
        <time>2022-08-24T10:32:20Z</time>
      </trkpt>
      <trkpt lat="43.03116099999962" lon="-1.2936279999999982">
        <ele>1356.409</ele>
        <time>2022-08-24T10:32:21Z</time>
      </trkpt>
      <trkpt lat="43.03114099999962" lon="-1.2936509999999983">
        <ele>1356.488</ele>
        <time>2022-08-24T10:32:23Z</time>
      </trkpt>
      <trkpt lat="43.03105499999962" lon="-1.2937449999999984">
        <ele>1357.288</ele>
        <time>2022-08-24T10:32:31Z</time>
      </trkpt>
      <trkpt lat="43.03101599999962" lon="-1.2937869999999985">
        <ele>1357.478</ele>
        <time>2022-08-24T10:32:33Z</time>
      </trkpt>
      <trkpt lat="43.03096799999962" lon="-1.2938479999999986">
        <ele>1357.684</ele>
        <time>2022-08-24T10:32:36Z</time>
      </trkpt>
      <trkpt lat="43.030954999999615" lon="-1.2938689999999986">
        <ele>1357.646</ele>
        <time>2022-08-24T10:32:37Z</time>
      </trkpt>
      <trkpt lat="43.030940999999615" lon="-1.2938949999999987">
        <ele>1357.883</ele>
        <time>2022-08-24T10:32:38Z</time>
      </trkpt>
      <trkpt lat="43.03092899999962" lon="-1.2939159999999987">
        <ele>1358.076</ele>
        <time>2022-08-24T10:32:39Z</time>
      </trkpt>
      <trkpt lat="43.03091399999962" lon="-1.2939349999999987">
        <ele>1358.050</ele>
        <time>2022-08-24T10:32:40Z</time>
      </trkpt>
      <trkpt lat="43.03090199999962" lon="-1.2939499999999988">
        <ele>1358.269</ele>
        <time>2022-08-24T10:32:41Z</time>
      </trkpt>
      <trkpt lat="43.030869999999624" lon="-1.294026999999999">
        <ele>1358.432</ele>
        <time>2022-08-24T10:32:44Z</time>
      </trkpt>
      <trkpt lat="43.030854999999626" lon="-1.294076999999999">
        <ele>1358.492</ele>
        <time>2022-08-24T10:32:46Z</time>
      </trkpt>
      <trkpt lat="43.03083199999963" lon="-1.294238999999999">
        <ele>1359.011</ele>
        <time>2022-08-24T10:32:51Z</time>
      </trkpt>
      <trkpt lat="43.030829999999625" lon="-1.294278999999999">
        <ele>1359.409</ele>
        <time>2022-08-24T10:32:52Z</time>
      </trkpt>
      <trkpt lat="43.03082299999963" lon="-1.294354999999999">
        <ele>1359.664</ele>
        <time>2022-08-24T10:32:54Z</time>
      </trkpt>
      <trkpt lat="43.03081799999963" lon="-1.294385999999999">
        <ele>1359.654</ele>
        <time>2022-08-24T10:32:55Z</time>
      </trkpt>
      <trkpt lat="43.03081399999963" lon="-1.294417999999999">
        <ele>1359.694</ele>
        <time>2022-08-24T10:32:56Z</time>
      </trkpt>
      <trkpt lat="43.03081099999963" lon="-1.294447999999999">
        <ele>1359.630</ele>
        <time>2022-08-24T10:32:57Z</time>
      </trkpt>
      <trkpt lat="43.03080899999963" lon="-1.2944729999999989">
        <ele>1359.852</ele>
        <time>2022-08-24T10:32:58Z</time>
      </trkpt>
      <trkpt lat="43.03080499999963" lon="-1.294512999999999">
        <ele>1359.859</ele>
        <time>2022-08-24T10:32:59Z</time>
      </trkpt>
      <trkpt lat="43.030800999999634" lon="-1.294544999999999">
        <ele>1359.682</ele>
        <time>2022-08-24T10:33:00Z</time>
      </trkpt>
      <trkpt lat="43.030794999999635" lon="-1.294571999999999">
        <ele>1359.656</ele>
        <time>2022-08-24T10:33:01Z</time>
      </trkpt>
      <trkpt lat="43.03079299999963" lon="-1.2945919999999989">
        <ele>1359.675</ele>
        <time>2022-08-24T10:33:02Z</time>
      </trkpt>
      <trkpt lat="43.030788999999636" lon="-1.2946139999999988">
        <ele>1359.653</ele>
        <time>2022-08-24T10:33:03Z</time>
      </trkpt>
      <trkpt lat="43.030777999999636" lon="-1.2946689999999987">
        <ele>1359.404</ele>
        <time>2022-08-24T10:33:05Z</time>
      </trkpt>
      <trkpt lat="43.03075699999964" lon="-1.2947439999999988">
        <ele>1359.414</ele>
        <time>2022-08-24T10:33:08Z</time>
      </trkpt>
      <trkpt lat="43.03074899999964" lon="-1.2947709999999988">
        <ele>1359.609</ele>
        <time>2022-08-24T10:33:09Z</time>
      </trkpt>
      <trkpt lat="43.03074199999964" lon="-1.2947949999999988">
        <ele>1359.676</ele>
        <time>2022-08-24T10:33:10Z</time>
      </trkpt>
      <trkpt lat="43.030734999999645" lon="-1.294817999999999">
        <ele>1359.676</ele>
        <time>2022-08-24T10:33:11Z</time>
      </trkpt>
      <trkpt lat="43.03073099999965" lon="-1.294838999999999">
        <ele>1359.646</ele>
        <time>2022-08-24T10:33:12Z</time>
      </trkpt>
      <trkpt lat="43.03072199999965" lon="-1.2948699999999989">
        <ele>1359.842</ele>
        <time>2022-08-24T10:33:13Z</time>
      </trkpt>
      <trkpt lat="43.030697999999646" lon="-1.2949679999999988">
        <ele>1360.094</ele>
        <time>2022-08-24T10:33:17Z</time>
      </trkpt>
      <trkpt lat="43.030695999999644" lon="-1.2949889999999988">
        <ele>1360.441</ele>
        <time>2022-08-24T10:33:18Z</time>
      </trkpt>
      <trkpt lat="43.030697999999646" lon="-1.295006999999999">
        <ele>1360.614</ele>
        <time>2022-08-24T10:33:19Z</time>
      </trkpt>
      <trkpt lat="43.03069199999965" lon="-1.295024999999999">
        <ele>1360.898</ele>
        <time>2022-08-24T10:33:20Z</time>
      </trkpt>
      <trkpt lat="43.030683999999646" lon="-1.295044999999999">
        <ele>1361.077</ele>
        <time>2022-08-24T10:33:21Z</time>
      </trkpt>
      <trkpt lat="43.03067399999964" lon="-1.295060999999999">
        <ele>1361.082</ele>
        <time>2022-08-24T10:33:22Z</time>
      </trkpt>
      <trkpt lat="43.030661999999644" lon="-1.2950809999999988">
        <ele>1361.243</ele>
        <time>2022-08-24T10:33:23Z</time>
      </trkpt>
      <trkpt lat="43.03064899999964" lon="-1.2950999999999988">
        <ele>1361.217</ele>
        <time>2022-08-24T10:33:24Z</time>
      </trkpt>
      <trkpt lat="43.03062399999964" lon="-1.2951359999999987">
        <ele>1361.409</ele>
        <time>2022-08-24T10:33:26Z</time>
      </trkpt>
      <trkpt lat="43.03060999999964" lon="-1.2951509999999988">
        <ele>1361.659</ele>
        <time>2022-08-24T10:33:27Z</time>
      </trkpt>
      <trkpt lat="43.03045499999964" lon="-1.295319999999999">
        <ele>1361.829</ele>
        <time>2022-08-24T10:33:36Z</time>
      </trkpt>
      <trkpt lat="43.03035299999964" lon="-1.295470999999999">
        <ele>1361.849</ele>
        <time>2022-08-24T10:33:42Z</time>
      </trkpt>
      <trkpt lat="43.03018799999964" lon="-1.2957529999999988">
        <ele>1361.285</ele>
        <time>2022-08-24T10:33:50Z</time>
      </trkpt>
      <trkpt lat="43.03016399999964" lon="-1.295786999999999">
        <ele>1361.097</ele>
        <time>2022-08-24T10:33:51Z</time>
      </trkpt>
      <trkpt lat="43.030121999999636" lon="-1.295851999999999">
        <ele>1361.084</ele>
        <time>2022-08-24T10:33:53Z</time>
      </trkpt>
      <trkpt lat="43.03007599999964" lon="-1.295907999999999">
        <ele>1361.037</ele>
        <time>2022-08-24T10:33:55Z</time>
      </trkpt>
      <trkpt lat="43.03005299999964" lon="-1.295933999999999">
        <ele>1361.041</ele>
        <time>2022-08-24T10:33:56Z</time>
      </trkpt>
      <trkpt lat="43.03003199999964" lon="-1.295958999999999">
        <ele>1361.090</ele>
        <time>2022-08-24T10:33:57Z</time>
      </trkpt>
      <trkpt lat="43.03001099999965" lon="-1.295980999999999">
        <ele>1361.034</ele>
        <time>2022-08-24T10:33:58Z</time>
      </trkpt>
      <trkpt lat="43.02999399999965" lon="-1.295995999999999">
        <ele>1361.055</ele>
        <time>2022-08-24T10:33:59Z</time>
      </trkpt>
      <trkpt lat="43.029971999999646" lon="-1.296017999999999">
        <ele>1361.010</ele>
        <time>2022-08-24T10:34:00Z</time>
      </trkpt>
      <trkpt lat="43.02995399999965" lon="-1.296035999999999">
        <ele>1361.009</ele>
        <time>2022-08-24T10:34:01Z</time>
      </trkpt>
      <trkpt lat="43.02993399999965" lon="-1.296047999999999">
        <ele>1361.024</ele>
        <time>2022-08-24T10:34:02Z</time>
      </trkpt>
      <trkpt lat="43.02991399999965" lon="-1.296056999999999">
        <ele>1361.294</ele>
        <time>2022-08-24T10:34:03Z</time>
      </trkpt>
      <trkpt lat="43.02989799999965" lon="-1.296066999999999">
        <ele>1361.264</ele>
        <time>2022-08-24T10:34:04Z</time>
      </trkpt>
      <trkpt lat="43.02988299999965" lon="-1.2960789999999989">
        <ele>1361.240</ele>
        <time>2022-08-24T10:34:05Z</time>
      </trkpt>
      <trkpt lat="43.02986899999965" lon="-1.2960909999999988">
        <ele>1361.492</ele>
        <time>2022-08-24T10:34:06Z</time>
      </trkpt>
      <trkpt lat="43.02985699999965" lon="-1.2961019999999988">
        <ele>1361.639</ele>
        <time>2022-08-24T10:34:07Z</time>
      </trkpt>
      <trkpt lat="43.02984299999965" lon="-1.2961109999999987">
        <ele>1361.872</ele>
        <time>2022-08-24T10:34:08Z</time>
      </trkpt>
      <trkpt lat="43.02982899999965" lon="-1.2961229999999986">
        <ele>1362.046</ele>
        <time>2022-08-24T10:34:09Z</time>
      </trkpt>
      <trkpt lat="43.02981699999965" lon="-1.2961339999999986">
        <ele>1362.035</ele>
        <time>2022-08-24T10:34:10Z</time>
      </trkpt>
      <trkpt lat="43.02976099999965" lon="-1.2961559999999985">
        <ele>1362.453</ele>
        <time>2022-08-24T10:34:13Z</time>
      </trkpt>
      <trkpt lat="43.029745999999655" lon="-1.2961599999999984">
        <ele>1362.404</ele>
        <time>2022-08-24T10:34:14Z</time>
      </trkpt>
      <trkpt lat="43.02973299999965" lon="-1.2961619999999985">
        <ele>1362.814</ele>
        <time>2022-08-24T10:34:15Z</time>
      </trkpt>
      <trkpt lat="43.029717999999654" lon="-1.2961639999999985">
        <ele>1363.009</ele>
        <time>2022-08-24T10:34:16Z</time>
      </trkpt>
      <trkpt lat="43.029703999999654" lon="-1.2961659999999986">
        <ele>1363.046</ele>
        <time>2022-08-24T10:34:17Z</time>
      </trkpt>
      <trkpt lat="43.029658999999654" lon="-1.2961689999999986">
        <ele>1363.836</ele>
        <time>2022-08-24T10:34:20Z</time>
      </trkpt>
      <trkpt lat="43.029638999999655" lon="-1.2961669999999985">
        <ele>1364.066</ele>
        <time>2022-08-24T10:34:21Z</time>
      </trkpt>
      <trkpt lat="43.02962399999966" lon="-1.2961649999999985">
        <ele>1364.422</ele>
        <time>2022-08-24T10:34:22Z</time>
      </trkpt>
      <trkpt lat="43.02960999999966" lon="-1.2961659999999984">
        <ele>1364.814</ele>
        <time>2022-08-24T10:34:23Z</time>
      </trkpt>
      <trkpt lat="43.02959599999966" lon="-1.2961669999999983">
        <ele>1364.811</ele>
        <time>2022-08-24T10:34:24Z</time>
      </trkpt>
      <trkpt lat="43.02958199999966" lon="-1.2961699999999983">
        <ele>1365.024</ele>
        <time>2022-08-24T10:34:25Z</time>
      </trkpt>
      <trkpt lat="43.02956699999966" lon="-1.2961719999999983">
        <ele>1365.228</ele>
        <time>2022-08-24T10:34:26Z</time>
      </trkpt>
      <trkpt lat="43.029553999999656" lon="-1.2961749999999983">
        <ele>1365.477</ele>
        <time>2022-08-24T10:34:27Z</time>
      </trkpt>
      <trkpt lat="43.029539999999656" lon="-1.2961759999999982">
        <ele>1365.647</ele>
        <time>2022-08-24T10:34:28Z</time>
      </trkpt>
      <trkpt lat="43.029523999999654" lon="-1.2961709999999982">
        <ele>1365.829</ele>
        <time>2022-08-24T10:34:29Z</time>
      </trkpt>
      <trkpt lat="43.029509999999654" lon="-1.2961709999999982">
        <ele>1366.021</ele>
        <time>2022-08-24T10:34:30Z</time>
      </trkpt>
      <trkpt lat="43.029494999999656" lon="-1.2961709999999982">
        <ele>1366.009</ele>
        <time>2022-08-24T10:34:31Z</time>
      </trkpt>
      <trkpt lat="43.02947999999966" lon="-1.2961699999999983">
        <ele>1366.295</ele>
        <time>2022-08-24T10:34:32Z</time>
      </trkpt>
      <trkpt lat="43.029469999999655" lon="-1.2961699999999983">
        <ele>1366.475</ele>
        <time>2022-08-24T10:34:33Z</time>
      </trkpt>
      <trkpt lat="43.029455999999655" lon="-1.2961699999999983">
        <ele>1366.685</ele>
        <time>2022-08-24T10:34:34Z</time>
      </trkpt>
      <trkpt lat="43.02943799999966" lon="-1.2961709999999982">
        <ele>1366.611</ele>
        <time>2022-08-24T10:34:35Z</time>
      </trkpt>
      <trkpt lat="43.02942399999966" lon="-1.296174999999998">
        <ele>1366.623</ele>
        <time>2022-08-24T10:34:36Z</time>
      </trkpt>
      <trkpt lat="43.029410999999655" lon="-1.296177999999998">
        <ele>1366.840</ele>
        <time>2022-08-24T10:34:37Z</time>
      </trkpt>
      <trkpt lat="43.029399999999654" lon="-1.296180999999998">
        <ele>1366.823</ele>
        <time>2022-08-24T10:34:38Z</time>
      </trkpt>
      <trkpt lat="43.029390999999656" lon="-1.296184999999998">
        <ele>1366.857</ele>
        <time>2022-08-24T10:34:39Z</time>
      </trkpt>
      <trkpt lat="43.02938099999965" lon="-1.2961889999999978">
        <ele>1366.846</ele>
        <time>2022-08-24T10:34:40Z</time>
      </trkpt>
      <trkpt lat="43.029368999999654" lon="-1.2961909999999979">
        <ele>1367.049</ele>
        <time>2022-08-24T10:34:41Z</time>
      </trkpt>
      <trkpt lat="43.02935599999965" lon="-1.2961889999999978">
        <ele>1367.202</ele>
        <time>2022-08-24T10:34:42Z</time>
      </trkpt>
      <trkpt lat="43.02934299999965" lon="-1.2961869999999978">
        <ele>1367.422</ele>
        <time>2022-08-24T10:34:43Z</time>
      </trkpt>
      <trkpt lat="43.02932799999965" lon="-1.2961869999999978">
        <ele>1367.409</ele>
        <time>2022-08-24T10:34:44Z</time>
      </trkpt>
      <trkpt lat="43.02931399999965" lon="-1.2961889999999978">
        <ele>1367.445</ele>
        <time>2022-08-24T10:34:45Z</time>
      </trkpt>
      <trkpt lat="43.02930199999965" lon="-1.2961919999999978">
        <ele>1367.695</ele>
        <time>2022-08-24T10:34:46Z</time>
      </trkpt>
      <trkpt lat="43.02928899999965" lon="-1.2961979999999977">
        <ele>1367.655</ele>
        <time>2022-08-24T10:34:47Z</time>
      </trkpt>
      <trkpt lat="43.02927299999965" lon="-1.2961969999999978">
        <ele>1367.671</ele>
        <time>2022-08-24T10:34:48Z</time>
      </trkpt>
      <trkpt lat="43.02925899999965" lon="-1.2961919999999978">
        <ele>1367.843</ele>
        <time>2022-08-24T10:34:49Z</time>
      </trkpt>
      <trkpt lat="43.02924799999965" lon="-1.296187999999998">
        <ele>1367.870</ele>
        <time>2022-08-24T10:34:50Z</time>
      </trkpt>
      <trkpt lat="43.02923699999965" lon="-1.296186999999998">
        <ele>1368.033</ele>
        <time>2022-08-24T10:34:51Z</time>
      </trkpt>
      <trkpt lat="43.02921899999965" lon="-1.296186999999998">
        <ele>1368.087</ele>
        <time>2022-08-24T10:34:52Z</time>
      </trkpt>
      <trkpt lat="43.02920399999965" lon="-1.296186999999998">
        <ele>1368.296</ele>
        <time>2022-08-24T10:34:53Z</time>
      </trkpt>
      <trkpt lat="43.029188999999654" lon="-1.296181999999998">
        <ele>1368.225</ele>
        <time>2022-08-24T10:34:54Z</time>
      </trkpt>
      <trkpt lat="43.02917399999966" lon="-1.296180999999998">
        <ele>1368.426</ele>
        <time>2022-08-24T10:34:55Z</time>
      </trkpt>
      <trkpt lat="43.029157999999654" lon="-1.2961799999999981">
        <ele>1368.608</ele>
        <time>2022-08-24T10:34:56Z</time>
      </trkpt>
      <trkpt lat="43.02914199999965" lon="-1.2961769999999981">
        <ele>1368.809</ele>
        <time>2022-08-24T10:34:57Z</time>
      </trkpt>
      <trkpt lat="43.029126999999654" lon="-1.2961759999999982">
        <ele>1368.863</ele>
        <time>2022-08-24T10:34:58Z</time>
      </trkpt>
      <trkpt lat="43.02910899999966" lon="-1.2961709999999982">
        <ele>1368.863</ele>
        <time>2022-08-24T10:34:59Z</time>
      </trkpt>
      <trkpt lat="43.02909799999966" lon="-1.2961669999999983">
        <ele>1369.073</ele>
        <time>2022-08-24T10:35:00Z</time>
      </trkpt>
      <trkpt lat="43.02908099999966" lon="-1.2961609999999983">
        <ele>1369.039</ele>
        <time>2022-08-24T10:35:01Z</time>
      </trkpt>
      <trkpt lat="43.029064999999655" lon="-1.2961589999999983">
        <ele>1369.251</ele>
        <time>2022-08-24T10:35:02Z</time>
      </trkpt>
      <trkpt lat="43.02904899999965" lon="-1.2961529999999983">
        <ele>1369.258</ele>
        <time>2022-08-24T10:35:03Z</time>
      </trkpt>
      <trkpt lat="43.029036999999654" lon="-1.2961459999999982">
        <ele>1369.271</ele>
        <time>2022-08-24T10:35:04Z</time>
      </trkpt>
      <trkpt lat="43.02902099999965" lon="-1.2961389999999982">
        <ele>1369.255</ele>
        <time>2022-08-24T10:35:05Z</time>
      </trkpt>
      <trkpt lat="43.02900499999965" lon="-1.2961349999999983">
        <ele>1369.434</ele>
        <time>2022-08-24T10:35:06Z</time>
      </trkpt>
      <trkpt lat="43.02898199999965" lon="-1.2961299999999982">
        <ele>1369.488</ele>
        <time>2022-08-24T10:35:07Z</time>
      </trkpt>
      <trkpt lat="43.028963999999654" lon="-1.2961249999999982">
        <ele>1369.424</ele>
        <time>2022-08-24T10:35:08Z</time>
      </trkpt>
      <trkpt lat="43.02894799999965" lon="-1.2961219999999982">
        <ele>1369.426</ele>
        <time>2022-08-24T10:35:09Z</time>
      </trkpt>
      <trkpt lat="43.02892799999965" lon="-1.2961189999999982">
        <ele>1369.409</ele>
        <time>2022-08-24T10:35:10Z</time>
      </trkpt>
      <trkpt lat="43.02891099999965" lon="-1.2961149999999984">
        <ele>1369.439</ele>
        <time>2022-08-24T10:35:11Z</time>
      </trkpt>
      <trkpt lat="43.02888899999965" lon="-1.2961079999999983">
        <ele>1369.449</ele>
        <time>2022-08-24T10:35:12Z</time>
      </trkpt>
      <trkpt lat="43.02886999999965" lon="-1.2961029999999982">
        <ele>1369.459</ele>
        <time>2022-08-24T10:35:13Z</time>
      </trkpt>
      <trkpt lat="43.02885299999965" lon="-1.2960979999999982">
        <ele>1369.425</ele>
        <time>2022-08-24T10:35:14Z</time>
      </trkpt>
      <trkpt lat="43.02883899999965" lon="-1.2960949999999982">
        <ele>1369.427</ele>
        <time>2022-08-24T10:35:15Z</time>
      </trkpt>
      <trkpt lat="43.02878099999965" lon="-1.2960749999999983">
        <ele>1369.634</ele>
        <time>2022-08-24T10:35:18Z</time>
      </trkpt>
      <trkpt lat="43.02876299999965" lon="-1.2960699999999983">
        <ele>1369.657</ele>
        <time>2022-08-24T10:35:19Z</time>
      </trkpt>
      <trkpt lat="43.02871299999965" lon="-1.2960519999999982">
        <ele>1370.011</ele>
        <time>2022-08-24T10:35:22Z</time>
      </trkpt>
      <trkpt lat="43.028696999999646" lon="-1.2960459999999983">
        <ele>1370.020</ele>
        <time>2022-08-24T10:35:23Z</time>
      </trkpt>
      <trkpt lat="43.028660999999644" lon="-1.2960339999999984">
        <ele>1370.255</ele>
        <time>2022-08-24T10:35:25Z</time>
      </trkpt>
      <trkpt lat="43.02863999999965" lon="-1.2960259999999983">
        <ele>1370.407</ele>
        <time>2022-08-24T10:35:26Z</time>
      </trkpt>
      <trkpt lat="43.02850699999965" lon="-1.2959719999999983">
        <ele>1370.817</ele>
        <time>2022-08-24T10:35:33Z</time>
      </trkpt>
      <trkpt lat="43.02848699999965" lon="-1.2959619999999983">
        <ele>1370.609</ele>
        <time>2022-08-24T10:35:34Z</time>
      </trkpt>
      <trkpt lat="43.02827599999965" lon="-1.2958879999999984">
        <ele>1370.826</ele>
        <time>2022-08-24T10:35:42Z</time>
      </trkpt>
      <trkpt lat="43.02824999999965" lon="-1.2958769999999984">
        <ele>1370.836</ele>
        <time>2022-08-24T10:35:43Z</time>
      </trkpt>
      <trkpt lat="43.02822599999965" lon="-1.2958629999999984">
        <ele>1370.896</ele>
        <time>2022-08-24T10:35:44Z</time>
      </trkpt>
      <trkpt lat="43.02820099999965" lon="-1.2958499999999984">
        <ele>1370.842</ele>
        <time>2022-08-24T10:35:45Z</time>
      </trkpt>
      <trkpt lat="43.02817499999965" lon="-1.2958379999999985">
        <ele>1370.864</ele>
        <time>2022-08-24T10:35:46Z</time>
      </trkpt>
      <trkpt lat="43.02814999999965" lon="-1.2958269999999985">
        <ele>1371.081</ele>
        <time>2022-08-24T10:35:47Z</time>
      </trkpt>
      <trkpt lat="43.028125999999645" lon="-1.2958179999999986">
        <ele>1370.844</ele>
        <time>2022-08-24T10:35:48Z</time>
      </trkpt>
      <trkpt lat="43.027965999999644" lon="-1.2957299999999985">
        <ele>1370.848</ele>
        <time>2022-08-24T10:35:54Z</time>
      </trkpt>
      <trkpt lat="43.02791299999964" lon="-1.2957009999999984">
        <ele>1370.477</ele>
        <time>2022-08-24T10:35:56Z</time>
      </trkpt>
      <trkpt lat="43.02788799999964" lon="-1.2956889999999985">
        <ele>1370.416</ele>
        <time>2022-08-24T10:35:57Z</time>
      </trkpt>
      <trkpt lat="43.02786499999964" lon="-1.2956759999999985">
        <ele>1370.476</ele>
        <time>2022-08-24T10:35:58Z</time>
      </trkpt>
      <trkpt lat="43.02783999999964" lon="-1.2956649999999985">
        <ele>1370.213</ele>
        <time>2022-08-24T10:35:59Z</time>
      </trkpt>
      <trkpt lat="43.02776799999964" lon="-1.2956319999999986">
        <ele>1370.009</ele>
        <time>2022-08-24T10:36:02Z</time>
      </trkpt>
      <trkpt lat="43.02773999999964" lon="-1.2956199999999987">
        <ele>1370.032</ele>
        <time>2022-08-24T10:36:03Z</time>
      </trkpt>
      <trkpt lat="43.02771799999964" lon="-1.2956129999999986">
        <ele>1369.852</ele>
        <time>2022-08-24T10:36:04Z</time>
      </trkpt>
      <trkpt lat="43.02769799999964" lon="-1.2956049999999986">
        <ele>1369.832</ele>
        <time>2022-08-24T10:36:05Z</time>
      </trkpt>
      <trkpt lat="43.02768299999964" lon="-1.2955989999999986">
        <ele>1369.838</ele>
        <time>2022-08-24T10:36:06Z</time>
      </trkpt>
      <trkpt lat="43.027664999999644" lon="-1.2955919999999985">
        <ele>1369.850</ele>
        <time>2022-08-24T10:36:07Z</time>
      </trkpt>
      <trkpt lat="43.02764399999965" lon="-1.2955839999999985">
        <ele>1369.817</ele>
        <time>2022-08-24T10:36:08Z</time>
      </trkpt>
      <trkpt lat="43.02762399999965" lon="-1.2955769999999984">
        <ele>1369.880</ele>
        <time>2022-08-24T10:36:09Z</time>
      </trkpt>
      <trkpt lat="43.02760599999965" lon="-1.2955689999999984">
        <ele>1369.824</ele>
        <time>2022-08-24T10:36:10Z</time>
      </trkpt>
      <trkpt lat="43.02759199999965" lon="-1.2955649999999985">
        <ele>1369.823</ele>
        <time>2022-08-24T10:36:11Z</time>
      </trkpt>
      <trkpt lat="43.02757499999965" lon="-1.2955569999999985">
        <ele>1370.086</ele>
        <time>2022-08-24T10:36:12Z</time>
      </trkpt>
      <trkpt lat="43.027553999999654" lon="-1.2955479999999986">
        <ele>1370.060</ele>
        <time>2022-08-24T10:36:13Z</time>
      </trkpt>
      <trkpt lat="43.02753799999965" lon="-1.2955429999999986">
        <ele>1370.226</ele>
        <time>2022-08-24T10:36:14Z</time>
      </trkpt>
      <trkpt lat="43.02752499999965" lon="-1.2955409999999985">
        <ele>1370.209</ele>
        <time>2022-08-24T10:36:15Z</time>
      </trkpt>
      <trkpt lat="43.02751699999965" lon="-1.2955369999999986">
        <ele>1370.279</ele>
        <time>2022-08-24T10:36:16Z</time>
      </trkpt>
      <trkpt lat="43.02750599999965" lon="-1.2955309999999987">
        <ele>1370.249</ele>
        <time>2022-08-24T10:36:17Z</time>
      </trkpt>
      <trkpt lat="43.02749399999965" lon="-1.2955239999999986">
        <ele>1370.249</ele>
        <time>2022-08-24T10:36:18Z</time>
      </trkpt>
      <trkpt lat="43.027466999999646" lon="-1.2955039999999987">
        <ele>1370.225</ele>
        <time>2022-08-24T10:36:20Z</time>
      </trkpt>
      <trkpt lat="43.02741199999964" lon="-1.2954949999999987">
        <ele>1370.277</ele>
        <time>2022-08-24T10:36:23Z</time>
      </trkpt>
      <trkpt lat="43.027329999999644" lon="-1.2954719999999986">
        <ele>1370.454</ele>
        <time>2022-08-24T10:36:27Z</time>
      </trkpt>
      <trkpt lat="43.027272999999646" lon="-1.2954609999999986">
        <ele>1370.477</ele>
        <time>2022-08-24T10:36:29Z</time>
      </trkpt>
      <trkpt lat="43.02725299999965" lon="-1.2954569999999987">
        <ele>1370.431</ele>
        <time>2022-08-24T10:36:30Z</time>
      </trkpt>
      <trkpt lat="43.027238999999646" lon="-1.2954519999999987">
        <ele>1370.680</ele>
        <time>2022-08-24T10:36:31Z</time>
      </trkpt>
      <trkpt lat="43.02721499999964" lon="-1.2954429999999988">
        <ele>1370.832</ele>
        <time>2022-08-24T10:36:32Z</time>
      </trkpt>
      <trkpt lat="43.027196999999646" lon="-1.295438999999999">
        <ele>1371.092</ele>
        <time>2022-08-24T10:36:33Z</time>
      </trkpt>
      <trkpt lat="43.02717699999965" lon="-1.2954339999999989">
        <ele>1371.011</ele>
        <time>2022-08-24T10:36:34Z</time>
      </trkpt>
      <trkpt lat="43.02715899999965" lon="-1.2954259999999989">
        <ele>1371.009</ele>
        <time>2022-08-24T10:36:35Z</time>
      </trkpt>
      <trkpt lat="43.02714199999965" lon="-1.295416999999999">
        <ele>1371.064</ele>
        <time>2022-08-24T10:36:36Z</time>
      </trkpt>
      <trkpt lat="43.02712799999965" lon="-1.295407999999999">
        <ele>1371.484</ele>
        <time>2022-08-24T10:36:37Z</time>
      </trkpt>
      <trkpt lat="43.02711299999965" lon="-1.295399999999999">
        <ele>1371.864</ele>
        <time>2022-08-24T10:36:38Z</time>
      </trkpt>
      <trkpt lat="43.02709699999965" lon="-1.295390999999999">
        <ele>1371.830</ele>
        <time>2022-08-24T10:36:39Z</time>
      </trkpt>
      <trkpt lat="43.02708399999965" lon="-1.295388999999999">
        <ele>1372.072</ele>
        <time>2022-08-24T10:36:40Z</time>
      </trkpt>
      <trkpt lat="43.027070999999644" lon="-1.295385999999999">
        <ele>1372.039</ele>
        <time>2022-08-24T10:36:41Z</time>
      </trkpt>
      <trkpt lat="43.02706099999964" lon="-1.2953849999999991">
        <ele>1372.292</ele>
        <time>2022-08-24T10:36:42Z</time>
      </trkpt>
      <trkpt lat="43.02704599999964" lon="-1.2953849999999991">
        <ele>1372.256</ele>
        <time>2022-08-24T10:36:43Z</time>
      </trkpt>
      <trkpt lat="43.027028999999644" lon="-1.2953789999999992">
        <ele>1372.225</ele>
        <time>2022-08-24T10:36:44Z</time>
      </trkpt>
      <trkpt lat="43.027013999999646" lon="-1.295368999999999">
        <ele>1372.426</ele>
        <time>2022-08-24T10:36:45Z</time>
      </trkpt>
      <trkpt lat="43.026999999999646" lon="-1.295363999999999">
        <ele>1372.447</ele>
        <time>2022-08-24T10:36:46Z</time>
      </trkpt>
      <trkpt lat="43.026971999999645" lon="-1.2953659999999991">
        <ele>1372.611</ele>
        <time>2022-08-24T10:36:48Z</time>
      </trkpt>
      <trkpt lat="43.02695399999965" lon="-1.295368999999999">
        <ele>1372.809</ele>
        <time>2022-08-24T10:36:49Z</time>
      </trkpt>
      <trkpt lat="43.02693899999965" lon="-1.2953679999999992">
        <ele>1373.053</ele>
        <time>2022-08-24T10:36:50Z</time>
      </trkpt>
      <trkpt lat="43.02692299999965" lon="-1.2953649999999992">
        <ele>1373.253</ele>
        <time>2022-08-24T10:36:51Z</time>
      </trkpt>
      <trkpt lat="43.02687799999965" lon="-1.2953559999999993">
        <ele>1373.673</ele>
        <time>2022-08-24T10:36:54Z</time>
      </trkpt>
      <trkpt lat="43.02686399999965" lon="-1.2953519999999994">
        <ele>1373.619</ele>
        <time>2022-08-24T10:36:55Z</time>
      </trkpt>
      <trkpt lat="43.02684999999965" lon="-1.2953489999999994">
        <ele>1374.041</ele>
        <time>2022-08-24T10:36:56Z</time>
      </trkpt>
      <trkpt lat="43.02683499999965" lon="-1.2953469999999994">
        <ele>1374.248</ele>
        <time>2022-08-24T10:36:57Z</time>
      </trkpt>
      <trkpt lat="43.02682399999965" lon="-1.2953469999999994">
        <ele>1374.231</ele>
        <time>2022-08-24T10:36:58Z</time>
      </trkpt>
      <trkpt lat="43.02680599999965" lon="-1.2953479999999993">
        <ele>1374.485</ele>
        <time>2022-08-24T10:36:59Z</time>
      </trkpt>
      <trkpt lat="43.026790999999655" lon="-1.2953469999999994">
        <ele>1374.464</ele>
        <time>2022-08-24T10:37:00Z</time>
      </trkpt>
      <trkpt lat="43.02677799999965" lon="-1.2953449999999993">
        <ele>1374.621</ele>
        <time>2022-08-24T10:37:01Z</time>
      </trkpt>
      <trkpt lat="43.02676499999965" lon="-1.2953439999999994">
        <ele>1374.641</ele>
        <time>2022-08-24T10:37:02Z</time>
      </trkpt>
      <trkpt lat="43.02675199999965" lon="-1.2953449999999993">
        <ele>1374.605</ele>
        <time>2022-08-24T10:37:03Z</time>
      </trkpt>
      <trkpt lat="43.026738999999644" lon="-1.2953439999999994">
        <ele>1374.809</ele>
        <time>2022-08-24T10:37:04Z</time>
      </trkpt>
      <trkpt lat="43.02672599999964" lon="-1.2953409999999994">
        <ele>1375.083</ele>
        <time>2022-08-24T10:37:05Z</time>
      </trkpt>
      <trkpt lat="43.02671099999964" lon="-1.2953379999999994">
        <ele>1375.463</ele>
        <time>2022-08-24T10:37:06Z</time>
      </trkpt>
      <trkpt lat="43.026698999999645" lon="-1.2953309999999993">
        <ele>1375.493</ele>
        <time>2022-08-24T10:37:07Z</time>
      </trkpt>
      <trkpt lat="43.02668299999964" lon="-1.2953299999999994">
        <ele>1375.639</ele>
        <time>2022-08-24T10:37:08Z</time>
      </trkpt>
      <trkpt lat="43.02666999999964" lon="-1.2953299999999994">
        <ele>1375.851</ele>
        <time>2022-08-24T10:37:09Z</time>
      </trkpt>
      <trkpt lat="43.02665899999964" lon="-1.2953299999999994">
        <ele>1376.088</ele>
        <time>2022-08-24T10:37:10Z</time>
      </trkpt>
      <trkpt lat="43.02664699999964" lon="-1.2953289999999995">
        <ele>1376.061</ele>
        <time>2022-08-24T10:37:11Z</time>
      </trkpt>
      <trkpt lat="43.02663299999964" lon="-1.2953289999999995">
        <ele>1376.085</ele>
        <time>2022-08-24T10:37:12Z</time>
      </trkpt>
      <trkpt lat="43.02662399999964" lon="-1.2953279999999996">
        <ele>1376.254</ele>
        <time>2022-08-24T10:37:13Z</time>
      </trkpt>
      <trkpt lat="43.02661299999964" lon="-1.2953279999999996">
        <ele>1376.483</ele>
        <time>2022-08-24T10:37:14Z</time>
      </trkpt>
      <trkpt lat="43.026597999999645" lon="-1.2953289999999995">
        <ele>1376.625</ele>
        <time>2022-08-24T10:37:15Z</time>
      </trkpt>
      <trkpt lat="43.02658499999964" lon="-1.2953279999999996">
        <ele>1377.017</ele>
        <time>2022-08-24T10:37:16Z</time>
      </trkpt>
      <trkpt lat="43.02657399999964" lon="-1.2953269999999997">
        <ele>1377.009</ele>
        <time>2022-08-24T10:37:17Z</time>
      </trkpt>
      <trkpt lat="43.02656099999964" lon="-1.2953249999999996">
        <ele>1377.229</ele>
        <time>2022-08-24T10:37:18Z</time>
      </trkpt>
      <trkpt lat="43.026547999999636" lon="-1.2953239999999997">
        <ele>1377.259</ele>
        <time>2022-08-24T10:37:19Z</time>
      </trkpt>
      <trkpt lat="43.026533999999636" lon="-1.2953199999999998">
        <ele>1377.439</ele>
        <time>2022-08-24T10:37:20Z</time>
      </trkpt>
      <trkpt lat="43.02651899999964" lon="-1.2953179999999997">
        <ele>1377.495</ele>
        <time>2022-08-24T10:37:21Z</time>
      </trkpt>
      <trkpt lat="43.02650799999964" lon="-1.2953199999999998">
        <ele>1377.647</ele>
        <time>2022-08-24T10:37:22Z</time>
      </trkpt>
      <trkpt lat="43.026497999999634" lon="-1.2953209999999997">
        <ele>1377.624</ele>
        <time>2022-08-24T10:37:23Z</time>
      </trkpt>
      <trkpt lat="43.026486999999634" lon="-1.2953229999999998">
        <ele>1377.847</ele>
        <time>2022-08-24T10:37:24Z</time>
      </trkpt>
      <trkpt lat="43.026469999999634" lon="-1.2953289999999997">
        <ele>1378.081</ele>
        <time>2022-08-24T10:37:25Z</time>
      </trkpt>
      <trkpt lat="43.026457999999636" lon="-1.2953299999999996">
        <ele>1378.060</ele>
        <time>2022-08-24T10:37:26Z</time>
      </trkpt>
      <trkpt lat="43.02644499999963" lon="-1.2953309999999996">
        <ele>1378.247</ele>
        <time>2022-08-24T10:37:27Z</time>
      </trkpt>
      <trkpt lat="43.02643399999963" lon="-1.2953309999999996">
        <ele>1378.229</ele>
        <time>2022-08-24T10:37:28Z</time>
      </trkpt>
      <trkpt lat="43.02641999999963" lon="-1.2953359999999996">
        <ele>1378.421</ele>
        <time>2022-08-24T10:37:29Z</time>
      </trkpt>
      <trkpt lat="43.02640399999963" lon="-1.2953419999999995">
        <ele>1378.409</ele>
        <time>2022-08-24T10:37:30Z</time>
      </trkpt>
      <trkpt lat="43.02639199999963" lon="-1.2953459999999994">
        <ele>1378.695</ele>
        <time>2022-08-24T10:37:31Z</time>
      </trkpt>
      <trkpt lat="43.02637799999963" lon="-1.2953499999999993">
        <ele>1378.655</ele>
        <time>2022-08-24T10:37:32Z</time>
      </trkpt>
      <trkpt lat="43.02636799999963" lon="-1.2953529999999993">
        <ele>1378.865</ele>
        <time>2022-08-24T10:37:33Z</time>
      </trkpt>
      <trkpt lat="43.02635399999963" lon="-1.2953589999999993">
        <ele>1378.651</ele>
        <time>2022-08-24T10:37:34Z</time>
      </trkpt>
      <trkpt lat="43.02633899999963" lon="-1.2953649999999992">
        <ele>1379.033</ele>
        <time>2022-08-24T10:37:35Z</time>
      </trkpt>
      <trkpt lat="43.02632699999963" lon="-1.2953709999999992">
        <ele>1379.050</ele>
        <time>2022-08-24T10:37:36Z</time>
      </trkpt>
      <trkpt lat="43.02631299999963" lon="-1.295374999999999">
        <ele>1379.233</ele>
        <time>2022-08-24T10:37:37Z</time>
      </trkpt>
      <trkpt lat="43.026300999999634" lon="-1.295378999999999">
        <ele>1379.477</ele>
        <time>2022-08-24T10:37:38Z</time>
      </trkpt>
      <trkpt lat="43.02628799999963" lon="-1.295384999999999">
        <ele>1379.656</ele>
        <time>2022-08-24T10:37:39Z</time>
      </trkpt>
      <trkpt lat="43.02627699999963" lon="-1.295391999999999">
        <ele>1380.083</ele>
        <time>2022-08-24T10:37:40Z</time>
      </trkpt>
      <trkpt lat="43.02626299999963" lon="-1.295399999999999">
        <ele>1380.225</ele>
        <time>2022-08-24T10:37:41Z</time>
      </trkpt>
      <trkpt lat="43.02625499999963" lon="-1.295404999999999">
        <ele>1380.217</ele>
        <time>2022-08-24T10:37:42Z</time>
      </trkpt>
      <trkpt lat="43.026244999999626" lon="-1.295408999999999">
        <ele>1380.409</ele>
        <time>2022-08-24T10:37:43Z</time>
      </trkpt>
      <trkpt lat="43.02623299999963" lon="-1.295411999999999">
        <ele>1380.679</ele>
        <time>2022-08-24T10:37:44Z</time>
      </trkpt>
      <trkpt lat="43.026222999999625" lon="-1.295419999999999">
        <ele>1380.649</ele>
        <time>2022-08-24T10:37:45Z</time>
      </trkpt>
      <trkpt lat="43.02620999999962" lon="-1.295437999999999">
        <ele>1380.869</ele>
        <time>2022-08-24T10:37:46Z</time>
      </trkpt>
      <trkpt lat="43.026202999999626" lon="-1.295453999999999">
        <ele>1380.845</ele>
        <time>2022-08-24T10:37:47Z</time>
      </trkpt>
      <trkpt lat="43.02619599999963" lon="-1.295468999999999">
        <ele>1381.047</ele>
        <time>2022-08-24T10:37:48Z</time>
      </trkpt>
      <trkpt lat="43.02618399999963" lon="-1.295484999999999">
        <ele>1381.254</ele>
        <time>2022-08-24T10:37:49Z</time>
      </trkpt>
      <trkpt lat="43.02616799999963" lon="-1.2954999999999992">
        <ele>1381.237</ele>
        <time>2022-08-24T10:37:50Z</time>
      </trkpt>
      <trkpt lat="43.02615299999963" lon="-1.2955219999999992">
        <ele>1381.251</ele>
        <time>2022-08-24T10:37:51Z</time>
      </trkpt>
      <trkpt lat="43.02614399999963" lon="-1.2955439999999991">
        <ele>1381.230</ele>
        <time>2022-08-24T10:37:52Z</time>
      </trkpt>
      <trkpt lat="43.02613899999963" lon="-1.2955649999999992">
        <ele>1381.278</ele>
        <time>2022-08-24T10:37:53Z</time>
      </trkpt>
      <trkpt lat="43.026134999999634" lon="-1.2955809999999992">
        <ele>1381.233</ele>
        <time>2022-08-24T10:37:54Z</time>
      </trkpt>
      <trkpt lat="43.02613299999963" lon="-1.2956019999999993">
        <ele>1381.226</ele>
        <time>2022-08-24T10:37:55Z</time>
      </trkpt>
      <trkpt lat="43.026128999999635" lon="-1.2956209999999992">
        <ele>1381.009</ele>
        <time>2022-08-24T10:37:56Z</time>
      </trkpt>
      <trkpt lat="43.026125999999635" lon="-1.2956279999999993">
        <ele>1380.878</ele>
        <time>2022-08-24T10:37:57Z</time>
      </trkpt>
      <trkpt lat="43.02612399999963" lon="-1.2956319999999992">
        <ele>1380.068</ele>
        <time>2022-08-24T10:43:12Z</time>
      </trkpt>
      <trkpt lat="43.026119999999636" lon="-1.2956309999999993">
        <ele>1380.018</ele>
        <time>2022-08-24T10:43:13Z</time>
      </trkpt>
      <trkpt lat="43.02599599999964" lon="-1.2956399999999992">
        <ele>1379.824</ele>
        <time>2022-08-24T10:43:17Z</time>
      </trkpt>
      <trkpt lat="43.02593399999964" lon="-1.2956949999999992">
        <ele>1379.486</ele>
        <time>2022-08-24T10:43:19Z</time>
      </trkpt>
      <trkpt lat="43.025906999999634" lon="-1.2957239999999992">
        <ele>1379.283</ele>
        <time>2022-08-24T10:43:20Z</time>
      </trkpt>
      <trkpt lat="43.02588199999963" lon="-1.2957509999999992">
        <ele>1379.056</ele>
        <time>2022-08-24T10:43:21Z</time>
      </trkpt>
      <trkpt lat="43.02585999999963" lon="-1.2957749999999992">
        <ele>1378.880</ele>
        <time>2022-08-24T10:43:22Z</time>
      </trkpt>
      <trkpt lat="43.02584299999963" lon="-1.2957999999999992">
        <ele>1378.639</ele>
        <time>2022-08-24T10:43:23Z</time>
      </trkpt>
      <trkpt lat="43.025824999999635" lon="-1.2958259999999993">
        <ele>1378.241</ele>
        <time>2022-08-24T10:43:24Z</time>
      </trkpt>
      <trkpt lat="43.02578699999963" lon="-1.2958749999999992">
        <ele>1377.481</ele>
        <time>2022-08-24T10:43:26Z</time>
      </trkpt>
      <trkpt lat="43.02574499999963" lon="-1.2959209999999992">
        <ele>1376.609</ele>
        <time>2022-08-24T10:43:28Z</time>
      </trkpt>
      <trkpt lat="43.02572599999963" lon="-1.2959429999999992">
        <ele>1376.209</ele>
        <time>2022-08-24T10:43:29Z</time>
      </trkpt>
      <trkpt lat="43.02570499999963" lon="-1.2959639999999992">
        <ele>1376.045</ele>
        <time>2022-08-24T10:43:30Z</time>
      </trkpt>
      <trkpt lat="43.025658999999635" lon="-1.2960039999999993">
        <ele>1375.295</ele>
        <time>2022-08-24T10:43:32Z</time>
      </trkpt>
      <trkpt lat="43.025636999999634" lon="-1.2960209999999992">
        <ele>1374.695</ele>
        <time>2022-08-24T10:43:33Z</time>
      </trkpt>
      <trkpt lat="43.02558399999963" lon="-1.2960549999999993">
        <ele>1373.861</ele>
        <time>2022-08-24T10:43:35Z</time>
      </trkpt>
      <trkpt lat="43.025531999999636" lon="-1.2960879999999992">
        <ele>1373.453</ele>
        <time>2022-08-24T10:43:37Z</time>
      </trkpt>
      <trkpt lat="43.025506999999635" lon="-1.2961049999999992">
        <ele>1372.860</ele>
        <time>2022-08-24T10:43:38Z</time>
      </trkpt>
      <trkpt lat="43.02548099999964" lon="-1.2961209999999992">
        <ele>1372.613</ele>
        <time>2022-08-24T10:43:39Z</time>
      </trkpt>
      <trkpt lat="43.02542999999964" lon="-1.2961529999999992">
        <ele>1372.497</ele>
        <time>2022-08-24T10:43:41Z</time>
      </trkpt>
      <trkpt lat="43.025405999999634" lon="-1.2961719999999992">
        <ele>1372.056</ele>
        <time>2022-08-24T10:43:42Z</time>
      </trkpt>
      <trkpt lat="43.025379999999636" lon="-1.2961889999999991">
        <ele>1371.054</ele>
        <time>2022-08-24T10:43:43Z</time>
      </trkpt>
      <trkpt lat="43.02529699999964" lon="-1.2962399999999992">
        <ele>1369.856</ele>
        <time>2022-08-24T10:43:46Z</time>
      </trkpt>
      <trkpt lat="43.02526999999964" lon="-1.2962539999999991">
        <ele>1369.411</ele>
        <time>2022-08-24T10:43:47Z</time>
      </trkpt>
      <trkpt lat="43.025244999999636" lon="-1.2962669999999992">
        <ele>1368.609</ele>
        <time>2022-08-24T10:43:48Z</time>
      </trkpt>
      <trkpt lat="43.02522399999964" lon="-1.296278999999999">
        <ele>1368.236</ele>
        <time>2022-08-24T10:43:49Z</time>
      </trkpt>
      <trkpt lat="43.02517299999964" lon="-1.296295999999999">
        <ele>1367.246</ele>
        <time>2022-08-24T10:43:51Z</time>
      </trkpt>
      <trkpt lat="43.02514799999964" lon="-1.296300999999999">
        <ele>1366.686</ele>
        <time>2022-08-24T10:43:52Z</time>
      </trkpt>
      <trkpt lat="43.02509399999964" lon="-1.296309999999999">
        <ele>1366.042</ele>
        <time>2022-08-24T10:43:54Z</time>
      </trkpt>
      <trkpt lat="43.02506499999964" lon="-1.2963109999999989">
        <ele>1365.864</ele>
        <time>2022-08-24T10:43:55Z</time>
      </trkpt>
      <trkpt lat="43.02497199999964" lon="-1.2963119999999988">
        <ele>1364.831</ele>
        <time>2022-08-24T10:43:58Z</time>
      </trkpt>
      <trkpt lat="43.02488799999964" lon="-1.2963069999999988">
        <ele>1363.624</ele>
        <time>2022-08-24T10:44:01Z</time>
      </trkpt>
      <trkpt lat="43.02486099999964" lon="-1.2963039999999988">
        <ele>1362.898</ele>
        <time>2022-08-24T10:44:02Z</time>
      </trkpt>
      <trkpt lat="43.02483599999964" lon="-1.296299999999999">
        <ele>1362.687</ele>
        <time>2022-08-24T10:44:03Z</time>
      </trkpt>
      <trkpt lat="43.02481299999964" lon="-1.296307999999999">
        <ele>1361.648</ele>
        <time>2022-08-24T10:44:04Z</time>
      </trkpt>
      <trkpt lat="43.02479499999964" lon="-1.296328999999999">
        <ele>1361.461</ele>
        <time>2022-08-24T10:44:05Z</time>
      </trkpt>
      <trkpt lat="43.02478499999964" lon="-1.296358999999999">
        <ele>1361.017</ele>
        <time>2022-08-24T10:44:06Z</time>
      </trkpt>
      <trkpt lat="43.02478799999964" lon="-1.296390999999999">
        <ele>1360.409</ele>
        <time>2022-08-24T10:44:07Z</time>
      </trkpt>
      <trkpt lat="43.024794999999635" lon="-1.296419999999999">
        <ele>1360.045</ele>
        <time>2022-08-24T10:44:08Z</time>
      </trkpt>
      <trkpt lat="43.02480999999963" lon="-1.2964429999999991">
        <ele>1359.655</ele>
        <time>2022-08-24T10:44:09Z</time>
      </trkpt>
      <trkpt lat="43.02485799999963" lon="-1.296473999999999">
        <ele>1359.075</ele>
        <time>2022-08-24T10:44:11Z</time>
      </trkpt>
      <trkpt lat="43.02491999999963" lon="-1.2964889999999991">
        <ele>1358.421</ele>
        <time>2022-08-24T10:44:13Z</time>
      </trkpt>
      <trkpt lat="43.02495499999963" lon="-1.2964939999999991">
        <ele>1358.283</ele>
        <time>2022-08-24T10:44:14Z</time>
      </trkpt>
      <trkpt lat="43.02502599999963" lon="-1.296497999999999">
        <ele>1357.850</ele>
        <time>2022-08-24T10:44:16Z</time>
      </trkpt>
      <trkpt lat="43.02506499999963" lon="-1.296501999999999">
        <ele>1357.423</ele>
        <time>2022-08-24T10:44:17Z</time>
      </trkpt>
      <trkpt lat="43.02510499999963" lon="-1.296504999999999">
        <ele>1356.867</ele>
        <time>2022-08-24T10:44:18Z</time>
      </trkpt>
      <trkpt lat="43.02531599999963" lon="-1.296514999999999">
        <ele>1355.416</ele>
        <time>2022-08-24T10:44:23Z</time>
      </trkpt>
      <trkpt lat="43.025414999999626" lon="-1.296515999999999">
        <ele>1355.256</ele>
        <time>2022-08-24T10:44:25Z</time>
      </trkpt>
      <trkpt lat="43.02545899999963" lon="-1.296517999999999">
        <ele>1355.259</ele>
        <time>2022-08-24T10:44:26Z</time>
      </trkpt>
      <trkpt lat="43.02549899999963" lon="-1.296520999999999">
        <ele>1355.214</ele>
        <time>2022-08-24T10:44:27Z</time>
      </trkpt>
      <trkpt lat="43.02553799999963" lon="-1.296523999999999">
        <ele>1355.209</ele>
        <time>2022-08-24T10:44:28Z</time>
      </trkpt>
      <trkpt lat="43.02557699999963" lon="-1.2965279999999988">
        <ele>1354.866</ele>
        <time>2022-08-24T10:44:29Z</time>
      </trkpt>
      <trkpt lat="43.02561499999963" lon="-1.2965289999999987">
        <ele>1354.826</ele>
        <time>2022-08-24T10:44:30Z</time>
      </trkpt>
      <trkpt lat="43.02565399999963" lon="-1.2965259999999987">
        <ele>1354.826</ele>
        <time>2022-08-24T10:44:31Z</time>
      </trkpt>
      <trkpt lat="43.025734999999635" lon="-1.2965159999999987">
        <ele>1354.442</ele>
        <time>2022-08-24T10:44:33Z</time>
      </trkpt>
      <trkpt lat="43.02577299999964" lon="-1.2965099999999987">
        <ele>1354.434</ele>
        <time>2022-08-24T10:44:34Z</time>
      </trkpt>
      <trkpt lat="43.02580899999964" lon="-1.2965039999999988">
        <ele>1354.441</ele>
        <time>2022-08-24T10:44:35Z</time>
      </trkpt>
      <trkpt lat="43.02584499999964" lon="-1.2965029999999989">
        <ele>1354.494</ele>
        <time>2022-08-24T10:44:36Z</time>
      </trkpt>
      <trkpt lat="43.02587699999964" lon="-1.296504999999999">
        <ele>1354.298</ele>
        <time>2022-08-24T10:44:37Z</time>
      </trkpt>
      <trkpt lat="43.02593699999964" lon="-1.296511999999999">
        <ele>1354.257</ele>
        <time>2022-08-24T10:44:39Z</time>
      </trkpt>
      <trkpt lat="43.025965999999634" lon="-1.296537999999999">
        <ele>1354.229</ele>
        <time>2022-08-24T10:44:40Z</time>
      </trkpt>
      <trkpt lat="43.02599599999964" lon="-1.296572999999999">
        <ele>1354.200</ele>
        <time>2022-08-24T10:44:41Z</time>
      </trkpt>
      <trkpt lat="43.02602399999964" lon="-1.2966099999999992">
        <ele>1354.220</ele>
        <time>2022-08-24T10:44:42Z</time>
      </trkpt>
      <trkpt lat="43.02605099999964" lon="-1.2966479999999991">
        <ele>1354.209</ele>
        <time>2022-08-24T10:44:43Z</time>
      </trkpt>
      <trkpt lat="43.02611899999964" lon="-1.296759999999999">
        <ele>1354.053</ele>
        <time>2022-08-24T10:44:46Z</time>
      </trkpt>
      <trkpt lat="43.02613599999964" lon="-1.296794999999999">
        <ele>1353.233</ele>
        <time>2022-08-24T10:44:47Z</time>
      </trkpt>
      <trkpt lat="43.026150999999636" lon="-1.296831999999999">
        <ele>1353.023</ele>
        <time>2022-08-24T10:44:48Z</time>
      </trkpt>
      <trkpt lat="43.02617299999964" lon="-1.2969099999999991">
        <ele>1352.099</ele>
        <time>2022-08-24T10:44:50Z</time>
      </trkpt>
      <trkpt lat="43.026181999999636" lon="-1.296956999999999">
        <ele>1351.861</ele>
        <time>2022-08-24T10:44:51Z</time>
      </trkpt>
      <trkpt lat="43.026195999999636" lon="-1.296996999999999">
        <ele>1351.478</ele>
        <time>2022-08-24T10:44:52Z</time>
      </trkpt>
      <trkpt lat="43.026213999999634" lon="-1.297032999999999">
        <ele>1351.261</ele>
        <time>2022-08-24T10:44:53Z</time>
      </trkpt>
      <trkpt lat="43.02623499999963" lon="-1.297079999999999">
        <ele>1350.615</ele>
        <time>2022-08-24T10:44:54Z</time>
      </trkpt>
      <trkpt lat="43.02626399999963" lon="-1.297132999999999">
        <ele>1350.484</ele>
        <time>2022-08-24T10:44:55Z</time>
      </trkpt>
      <trkpt lat="43.02632299999963" lon="-1.297241999999999">
        <ele>1349.226</ele>
        <time>2022-08-24T10:44:57Z</time>
      </trkpt>
      <trkpt lat="43.026351999999626" lon="-1.2973019999999988">
        <ele>1349.047</ele>
        <time>2022-08-24T10:44:58Z</time>
      </trkpt>
      <trkpt lat="43.026383999999624" lon="-1.2973559999999988">
        <ele>1348.411</ele>
        <time>2022-08-24T10:44:59Z</time>
      </trkpt>
      <trkpt lat="43.02641499999962" lon="-1.2974029999999988">
        <ele>1348.209</ele>
        <time>2022-08-24T10:45:00Z</time>
      </trkpt>
      <trkpt lat="43.02644599999962" lon="-1.2974549999999987">
        <ele>1347.493</ele>
        <time>2022-08-24T10:45:01Z</time>
      </trkpt>
      <trkpt lat="43.02646599999962" lon="-1.2974999999999988">
        <ele>1346.883</ele>
        <time>2022-08-24T10:45:02Z</time>
      </trkpt>
      <trkpt lat="43.02649699999962" lon="-1.2975509999999988">
        <ele>1346.623</ele>
        <time>2022-08-24T10:45:03Z</time>
      </trkpt>
      <trkpt lat="43.02651699999962" lon="-1.2975939999999988">
        <ele>1346.079</ele>
        <time>2022-08-24T10:45:04Z</time>
      </trkpt>
      <trkpt lat="43.02653499999962" lon="-1.2976229999999989">
        <ele>1345.841</ele>
        <time>2022-08-24T10:45:05Z</time>
      </trkpt>
      <trkpt lat="43.02655699999962" lon="-1.2976539999999988">
        <ele>1345.228</ele>
        <time>2022-08-24T10:45:06Z</time>
      </trkpt>
      <trkpt lat="43.02659299999962" lon="-1.2976939999999988">
        <ele>1345.071</ele>
        <time>2022-08-24T10:45:07Z</time>
      </trkpt>
      <trkpt lat="43.026622999999624" lon="-1.2977349999999988">
        <ele>1344.425</ele>
        <time>2022-08-24T10:45:08Z</time>
      </trkpt>
      <trkpt lat="43.02676199999962" lon="-1.2978819999999986">
        <ele>1343.244</ele>
        <time>2022-08-24T10:45:11Z</time>
      </trkpt>
      <trkpt lat="43.02680999999962" lon="-1.2979519999999987">
        <ele>1341.825</ele>
        <time>2022-08-24T10:45:13Z</time>
      </trkpt>
      <trkpt lat="43.02689699999962" lon="-1.2980839999999987">
        <ele>1340.426</ele>
        <time>2022-08-24T10:45:16Z</time>
      </trkpt>
      <trkpt lat="43.02692599999962" lon="-1.2981189999999987">
        <ele>1340.008</ele>
        <time>2022-08-24T10:45:17Z</time>
      </trkpt>
      <trkpt lat="43.02700699999962" lon="-1.2982099999999988">
        <ele>1339.209</ele>
        <time>2022-08-24T10:45:19Z</time>
      </trkpt>
      <trkpt lat="43.027047999999624" lon="-1.2982539999999987">
        <ele>1337.833</ele>
        <time>2022-08-24T10:45:20Z</time>
      </trkpt>
      <trkpt lat="43.02708799999962" lon="-1.2982979999999986">
        <ele>1336.853</ele>
        <time>2022-08-24T10:45:21Z</time>
      </trkpt>
      <trkpt lat="43.027117999999625" lon="-1.2983329999999986">
        <ele>1336.433</ele>
        <time>2022-08-24T10:45:22Z</time>
      </trkpt>
      <trkpt lat="43.027151999999624" lon="-1.2983759999999986">
        <ele>1335.499</ele>
        <time>2022-08-24T10:45:23Z</time>
      </trkpt>
      <trkpt lat="43.02722899999962" lon="-1.2984809999999987">
        <ele>1334.261</ele>
        <time>2022-08-24T10:45:25Z</time>
      </trkpt>
      <trkpt lat="43.027297999999625" lon="-1.2985809999999987">
        <ele>1332.628</ele>
        <time>2022-08-24T10:45:27Z</time>
      </trkpt>
      <trkpt lat="43.02733399999963" lon="-1.2986319999999987">
        <ele>1331.631</ele>
        <time>2022-08-24T10:45:28Z</time>
      </trkpt>
      <trkpt lat="43.02736499999963" lon="-1.2986829999999987">
        <ele>1331.255</ele>
        <time>2022-08-24T10:45:29Z</time>
      </trkpt>
      <trkpt lat="43.02739299999963" lon="-1.2987319999999987">
        <ele>1330.854</ele>
        <time>2022-08-24T10:45:30Z</time>
      </trkpt>
      <trkpt lat="43.02741799999963" lon="-1.2987819999999988">
        <ele>1330.227</ele>
        <time>2022-08-24T10:45:31Z</time>
      </trkpt>
      <trkpt lat="43.02743699999963" lon="-1.2988319999999989">
        <ele>1329.668</ele>
        <time>2022-08-24T10:45:32Z</time>
      </trkpt>
      <trkpt lat="43.02745399999963" lon="-1.2989479999999989">
        <ele>1329.214</ele>
        <time>2022-08-24T10:45:34Z</time>
      </trkpt>
      <trkpt lat="43.02745899999963" lon="-1.2990159999999988">
        <ele>1328.809</ele>
        <time>2022-08-24T10:45:35Z</time>
      </trkpt>
      <trkpt lat="43.027468999999634" lon="-1.2990809999999988">
        <ele>1328.663</ele>
        <time>2022-08-24T10:45:36Z</time>
      </trkpt>
      <trkpt lat="43.02747799999963" lon="-1.2991539999999988">
        <ele>1328.463</ele>
        <time>2022-08-24T10:45:37Z</time>
      </trkpt>
      <trkpt lat="43.027490999999635" lon="-1.2993059999999987">
        <ele>1327.673</ele>
        <time>2022-08-24T10:45:39Z</time>
      </trkpt>
      <trkpt lat="43.02750099999964" lon="-1.2994489999999987">
        <ele>1326.269</ele>
        <time>2022-08-24T10:45:41Z</time>
      </trkpt>
      <trkpt lat="43.02750599999964" lon="-1.2995139999999987">
        <ele>1325.621</ele>
        <time>2022-08-24T10:45:42Z</time>
      </trkpt>
      <trkpt lat="43.02751099999964" lon="-1.2995789999999987">
        <ele>1325.278</ele>
        <time>2022-08-24T10:45:43Z</time>
      </trkpt>
      <trkpt lat="43.02751599999964" lon="-1.2996429999999988">
        <ele>1324.411</ele>
        <time>2022-08-24T10:45:44Z</time>
      </trkpt>
      <trkpt lat="43.02751999999964" lon="-1.2997039999999989">
        <ele>1324.045</ele>
        <time>2022-08-24T10:45:45Z</time>
      </trkpt>
      <trkpt lat="43.02752199999964" lon="-1.299756999999999">
        <ele>1323.424</ele>
        <time>2022-08-24T10:45:46Z</time>
      </trkpt>
      <trkpt lat="43.02752499999964" lon="-1.299979999999999">
        <ele>1322.259</ele>
        <time>2022-08-24T10:45:49Z</time>
      </trkpt>
      <trkpt lat="43.027520999999645" lon="-1.300047999999999">
        <ele>1321.803</ele>
        <time>2022-08-24T10:45:50Z</time>
      </trkpt>
      <trkpt lat="43.02751999999965" lon="-1.300115999999999">
        <ele>1321.023</ele>
        <time>2022-08-24T10:45:51Z</time>
      </trkpt>
      <trkpt lat="43.02751599999965" lon="-1.300335999999999">
        <ele>1319.609</ele>
        <time>2022-08-24T10:45:54Z</time>
      </trkpt>
      <trkpt lat="43.02751699999965" lon="-1.300394999999999">
        <ele>1319.056</ele>
        <time>2022-08-24T10:45:55Z</time>
      </trkpt>
      <trkpt lat="43.02751599999965" lon="-1.300468999999999">
        <ele>1318.296</ele>
        <time>2022-08-24T10:45:56Z</time>
      </trkpt>
      <trkpt lat="43.02751499999965" lon="-1.300551999999999">
        <ele>1318.066</ele>
        <time>2022-08-24T10:45:57Z</time>
      </trkpt>
      <trkpt lat="43.027510999999656" lon="-1.300619999999999">
        <ele>1317.032</ele>
        <time>2022-08-24T10:45:58Z</time>
      </trkpt>
      <trkpt lat="43.027507999999656" lon="-1.300687999999999">
        <ele>1316.274</ele>
        <time>2022-08-24T10:45:59Z</time>
      </trkpt>
      <trkpt lat="43.027505999999654" lon="-1.300736999999999">
        <ele>1316.081</ele>
        <time>2022-08-24T10:46:00Z</time>
      </trkpt>
      <trkpt lat="43.027499999999655" lon="-1.300797999999999">
        <ele>1315.224</ele>
        <time>2022-08-24T10:46:01Z</time>
      </trkpt>
      <trkpt lat="43.02749299999966" lon="-1.300867999999999">
        <ele>1314.668</ele>
        <time>2022-08-24T10:46:02Z</time>
      </trkpt>
      <trkpt lat="43.02747299999966" lon="-1.300997999999999">
        <ele>1313.417</ele>
        <time>2022-08-24T10:46:04Z</time>
      </trkpt>
      <trkpt lat="43.02745399999966" lon="-1.301133999999999">
        <ele>1312.624</ele>
        <time>2022-08-24T10:46:06Z</time>
      </trkpt>
      <trkpt lat="43.027443999999655" lon="-1.3011989999999989">
        <ele>1312.404</ele>
        <time>2022-08-24T10:46:07Z</time>
      </trkpt>
      <trkpt lat="43.027418999999654" lon="-1.3013319999999988">
        <ele>1311.014</ele>
        <time>2022-08-24T10:46:09Z</time>
      </trkpt>
      <trkpt lat="43.02740599999965" lon="-1.3013979999999987">
        <ele>1310.009</ele>
        <time>2022-08-24T10:46:10Z</time>
      </trkpt>
      <trkpt lat="43.02738899999965" lon="-1.3014669999999988">
        <ele>1309.423</ele>
        <time>2022-08-24T10:46:11Z</time>
      </trkpt>
      <trkpt lat="43.02736099999965" lon="-1.3016119999999989">
        <ele>1308.273</ele>
        <time>2022-08-24T10:46:13Z</time>
      </trkpt>
      <trkpt lat="43.02734799999965" lon="-1.3016749999999988">
        <ele>1308.063</ele>
        <time>2022-08-24T10:46:14Z</time>
      </trkpt>
      <trkpt lat="43.027331999999646" lon="-1.3017299999999987">
        <ele>1307.689</ele>
        <time>2022-08-24T10:46:15Z</time>
      </trkpt>
      <trkpt lat="43.02731699999965" lon="-1.3017829999999988">
        <ele>1307.241</ele>
        <time>2022-08-24T10:46:16Z</time>
      </trkpt>
      <trkpt lat="43.02730199999965" lon="-1.3018399999999988">
        <ele>1306.258</ele>
        <time>2022-08-24T10:46:17Z</time>
      </trkpt>
      <trkpt lat="43.02728699999965" lon="-1.3018969999999987">
        <ele>1305.451</ele>
        <time>2022-08-24T10:46:18Z</time>
      </trkpt>
      <trkpt lat="43.02727299999965" lon="-1.3019479999999988">
        <ele>1305.035</ele>
        <time>2022-08-24T10:46:19Z</time>
      </trkpt>
      <trkpt lat="43.02724299999965" lon="-1.3020599999999987">
        <ele>1304.014</ele>
        <time>2022-08-24T10:46:21Z</time>
      </trkpt>
      <trkpt lat="43.02721499999965" lon="-1.3021879999999986">
        <ele>1302.866</ele>
        <time>2022-08-24T10:46:23Z</time>
      </trkpt>
      <trkpt lat="43.02718899999965" lon="-1.3023279999999986">
        <ele>1301.029</ele>
        <time>2022-08-24T10:46:25Z</time>
      </trkpt>
      <trkpt lat="43.02716399999965" lon="-1.3024809999999987">
        <ele>1299.221</ele>
        <time>2022-08-24T10:46:27Z</time>
      </trkpt>
      <trkpt lat="43.02714399999965" lon="-1.3026349999999987">
        <ele>1297.209</ele>
        <time>2022-08-24T10:46:29Z</time>
      </trkpt>
      <trkpt lat="43.027128999999654" lon="-1.3027109999999986">
        <ele>1296.067</ele>
        <time>2022-08-24T10:46:30Z</time>
      </trkpt>
      <trkpt lat="43.02711099999966" lon="-1.3027839999999986">
        <ele>1295.467</ele>
        <time>2022-08-24T10:46:31Z</time>
      </trkpt>
      <trkpt lat="43.02709599999966" lon="-1.3028529999999987">
        <ele>1294.667</ele>
        <time>2022-08-24T10:46:32Z</time>
      </trkpt>
      <trkpt lat="43.02708399999966" lon="-1.3029099999999987">
        <ele>1294.683</ele>
        <time>2022-08-24T10:46:33Z</time>
      </trkpt>
      <trkpt lat="43.02707199999966" lon="-1.3029589999999986">
        <ele>1294.215</ele>
        <time>2022-08-24T10:46:34Z</time>
      </trkpt>
      <trkpt lat="43.02705899999966" lon="-1.3030029999999986">
        <ele>1294.022</ele>
        <time>2022-08-24T10:46:35Z</time>
      </trkpt>
      <trkpt lat="43.02704799999966" lon="-1.3030409999999986">
        <ele>1293.635</ele>
        <time>2022-08-24T10:46:36Z</time>
      </trkpt>
      <trkpt lat="43.02704099999966" lon="-1.3030769999999985">
        <ele>1292.829</ele>
        <time>2022-08-24T10:46:37Z</time>
      </trkpt>
      <trkpt lat="43.02702999999966" lon="-1.3031109999999986">
        <ele>1292.678</ele>
        <time>2022-08-24T10:46:38Z</time>
      </trkpt>
      <trkpt lat="43.02702399999966" lon="-1.3031409999999986">
        <ele>1292.447</ele>
        <time>2022-08-24T10:46:39Z</time>
      </trkpt>
      <trkpt lat="43.02699099999966" lon="-1.3032649999999986">
        <ele>1291.029</ele>
        <time>2022-08-24T10:46:42Z</time>
      </trkpt>
      <trkpt lat="43.026941999999664" lon="-1.3034309999999987">
        <ele>1289.821</ele>
        <time>2022-08-24T10:46:45Z</time>
      </trkpt>
      <trkpt lat="43.02691699999966" lon="-1.3035349999999988">
        <ele>1288.809</ele>
        <time>2022-08-24T10:46:47Z</time>
      </trkpt>
      <trkpt lat="43.02690399999966" lon="-1.3035899999999987">
        <ele>1288.015</ele>
        <time>2022-08-24T10:46:48Z</time>
      </trkpt>
      <trkpt lat="43.02689199999966" lon="-1.3036429999999988">
        <ele>1287.685</ele>
        <time>2022-08-24T10:46:49Z</time>
      </trkpt>
      <trkpt lat="43.026882999999664" lon="-1.3037019999999988">
        <ele>1287.065</ele>
        <time>2022-08-24T10:46:50Z</time>
      </trkpt>
      <trkpt lat="43.026876999999665" lon="-1.3037449999999988">
        <ele>1286.661</ele>
        <time>2022-08-24T10:46:51Z</time>
      </trkpt>
      <trkpt lat="43.026870999999666" lon="-1.303778999999999">
        <ele>1286.243</ele>
        <time>2022-08-24T10:46:52Z</time>
      </trkpt>
      <trkpt lat="43.026867999999666" lon="-1.303801999999999">
        <ele>1285.840</ele>
        <time>2022-08-24T10:46:53Z</time>
      </trkpt>
      <trkpt lat="43.02686499999967" lon="-1.303828999999999">
        <ele>1285.683</ele>
        <time>2022-08-24T10:46:54Z</time>
      </trkpt>
      <trkpt lat="43.02685799999967" lon="-1.303858999999999">
        <ele>1285.447</ele>
        <time>2022-08-24T10:46:55Z</time>
      </trkpt>
      <trkpt lat="43.02684599999967" lon="-1.303885999999999">
        <ele>1285.236</ele>
        <time>2022-08-24T10:46:56Z</time>
      </trkpt>
      <trkpt lat="43.026833999999674" lon="-1.303907999999999">
        <ele>1285.252</ele>
        <time>2022-08-24T10:46:57Z</time>
      </trkpt>
      <trkpt lat="43.026824999999675" lon="-1.3039199999999989">
        <ele>1285.253</ele>
        <time>2022-08-24T10:46:58Z</time>
      </trkpt>
      <trkpt lat="43.026813999999675" lon="-1.303940999999999">
        <ele>1285.208</ele>
        <time>2022-08-24T10:46:59Z</time>
      </trkpt>
      <trkpt lat="43.026804999999676" lon="-1.3039609999999988">
        <ele>1285.209</ele>
        <time>2022-08-24T10:47:00Z</time>
      </trkpt>
      <trkpt lat="43.026706999999675" lon="-1.3041499999999988">
        <ele>1285.426</ele>
        <time>2022-08-24T10:47:08Z</time>
      </trkpt>
      <trkpt lat="43.02669199999968" lon="-1.3041709999999989">
        <ele>1285.456</ele>
        <time>2022-08-24T10:47:09Z</time>
      </trkpt>
      <trkpt lat="43.02667799999968" lon="-1.3041929999999988">
        <ele>1284.646</ele>
        <time>2022-08-24T10:47:10Z</time>
      </trkpt>
      <trkpt lat="43.026664999999674" lon="-1.3042139999999989">
        <ele>1284.232</ele>
        <time>2022-08-24T10:47:11Z</time>
      </trkpt>
      <trkpt lat="43.02665199999967" lon="-1.3042329999999989">
        <ele>1283.824</ele>
        <time>2022-08-24T10:47:12Z</time>
      </trkpt>
      <trkpt lat="43.02663899999967" lon="-1.3042499999999988">
        <ele>1283.431</ele>
        <time>2022-08-24T10:47:13Z</time>
      </trkpt>
      <trkpt lat="43.02660199999967" lon="-1.3042879999999988">
        <ele>1281.824</ele>
        <time>2022-08-24T10:47:15Z</time>
      </trkpt>
      <trkpt lat="43.02658499999967" lon="-1.3043129999999987">
        <ele>1281.478</ele>
        <time>2022-08-24T10:47:16Z</time>
      </trkpt>
      <trkpt lat="43.02657699999967" lon="-1.3043409999999986">
        <ele>1280.887</ele>
        <time>2022-08-24T10:47:17Z</time>
      </trkpt>
      <trkpt lat="43.02657299999967" lon="-1.3043739999999986">
        <ele>1280.682</ele>
        <time>2022-08-24T10:47:18Z</time>
      </trkpt>
      <trkpt lat="43.026571999999675" lon="-1.3044119999999986">
        <ele>1280.043</ele>
        <time>2022-08-24T10:47:19Z</time>
      </trkpt>
      <trkpt lat="43.02657299999967" lon="-1.3044509999999985">
        <ele>1279.817</ele>
        <time>2022-08-24T10:47:20Z</time>
      </trkpt>
      <trkpt lat="43.026571999999675" lon="-1.3044919999999984">
        <ele>1279.409</ele>
        <time>2022-08-24T10:47:21Z</time>
      </trkpt>
      <trkpt lat="43.02657099999968" lon="-1.3045769999999983">
        <ele>1278.269</ele>
        <time>2022-08-24T10:47:23Z</time>
      </trkpt>
      <trkpt lat="43.02655599999968" lon="-1.3046629999999984">
        <ele>1276.649</ele>
        <time>2022-08-24T10:47:25Z</time>
      </trkpt>
      <trkpt lat="43.02654399999968" lon="-1.3047029999999984">
        <ele>1275.679</ele>
        <time>2022-08-24T10:47:26Z</time>
      </trkpt>
      <trkpt lat="43.02653099999968" lon="-1.3047389999999983">
        <ele>1275.085</ele>
        <time>2022-08-24T10:47:27Z</time>
      </trkpt>
      <trkpt lat="43.02651499999968" lon="-1.3047729999999984">
        <ele>1274.087</ele>
        <time>2022-08-24T10:47:28Z</time>
      </trkpt>
      <trkpt lat="43.026498999999674" lon="-1.3048029999999984">
        <ele>1272.864</ele>
        <time>2022-08-24T10:47:29Z</time>
      </trkpt>
      <trkpt lat="43.02648299999967" lon="-1.3048339999999983">
        <ele>1272.427</ele>
        <time>2022-08-24T10:47:30Z</time>
      </trkpt>
      <trkpt lat="43.026470999999674" lon="-1.3048589999999982">
        <ele>1272.071</ele>
        <time>2022-08-24T10:47:31Z</time>
      </trkpt>
      <trkpt lat="43.02645999999967" lon="-1.3048759999999981">
        <ele>1271.870</ele>
        <time>2022-08-24T10:47:32Z</time>
      </trkpt>
      <trkpt lat="43.02645199999967" lon="-1.304889999999998">
        <ele>1271.262</ele>
        <time>2022-08-24T10:47:33Z</time>
      </trkpt>
      <trkpt lat="43.02643899999967" lon="-1.304922999999998">
        <ele>1267.683</ele>
        <time>2022-08-24T10:48:03Z</time>
      </trkpt>
      <trkpt lat="43.02636199999967" lon="-1.305111999999998">
        <ele>1267.211</ele>
        <time>2022-08-24T10:48:08Z</time>
      </trkpt>
      <trkpt lat="43.02634799999967" lon="-1.3051489999999981">
        <ele>1267.209</ele>
        <time>2022-08-24T10:48:09Z</time>
      </trkpt>
      <trkpt lat="43.02631999999967" lon="-1.3052299999999981">
        <ele>1266.617</ele>
        <time>2022-08-24T10:48:11Z</time>
      </trkpt>
      <trkpt lat="43.02630299999967" lon="-1.305267999999998">
        <ele>1266.237</ele>
        <time>2022-08-24T10:48:12Z</time>
      </trkpt>
      <trkpt lat="43.02628699999967" lon="-1.305303999999998">
        <ele>1265.837</ele>
        <time>2022-08-24T10:48:13Z</time>
      </trkpt>
      <trkpt lat="43.02626899999967" lon="-1.305337999999998">
        <ele>1265.293</ele>
        <time>2022-08-24T10:48:14Z</time>
      </trkpt>
      <trkpt lat="43.026233999999675" lon="-1.3053999999999981">
        <ele>1264.275</ele>
        <time>2022-08-24T10:48:16Z</time>
      </trkpt>
      <trkpt lat="43.026213999999676" lon="-1.3054339999999982">
        <ele>1263.882</ele>
        <time>2022-08-24T10:48:17Z</time>
      </trkpt>
      <trkpt lat="43.02617299999967" lon="-1.3054979999999983">
        <ele>1263.695</ele>
        <time>2022-08-24T10:48:19Z</time>
      </trkpt>
      <trkpt lat="43.02613099999967" lon="-1.3055649999999983">
        <ele>1263.089</ele>
        <time>2022-08-24T10:48:21Z</time>
      </trkpt>
      <trkpt lat="43.02606599999967" lon="-1.3056899999999982">
        <ele>1262.428</ele>
        <time>2022-08-24T10:48:24Z</time>
      </trkpt>
      <trkpt lat="43.02603799999967" lon="-1.3057939999999983">
        <ele>1261.859</ele>
        <time>2022-08-24T10:48:26Z</time>
      </trkpt>
      <trkpt lat="43.02602199999967" lon="-1.3059029999999983">
        <ele>1260.803</ele>
        <time>2022-08-24T10:48:28Z</time>
      </trkpt>
      <trkpt lat="43.02601599999967" lon="-1.3059529999999984">
        <ele>1259.623</ele>
        <time>2022-08-24T10:48:29Z</time>
      </trkpt>
      <trkpt lat="43.026008999999675" lon="-1.3059999999999983">
        <ele>1259.009</ele>
        <time>2022-08-24T10:48:30Z</time>
      </trkpt>
      <trkpt lat="43.026000999999674" lon="-1.3060429999999983">
        <ele>1258.446</ele>
        <time>2022-08-24T10:48:31Z</time>
      </trkpt>
      <trkpt lat="43.02599099999967" lon="-1.3060789999999982">
        <ele>1258.226</ele>
        <time>2022-08-24T10:48:32Z</time>
      </trkpt>
      <trkpt lat="43.02598099999967" lon="-1.3061129999999983">
        <ele>1257.436</ele>
        <time>2022-08-24T10:48:33Z</time>
      </trkpt>
      <trkpt lat="43.02596599999967" lon="-1.3061479999999983">
        <ele>1257.092</ele>
        <time>2022-08-24T10:48:34Z</time>
      </trkpt>
      <trkpt lat="43.02593999999967" lon="-1.3061799999999983">
        <ele>1256.624</ele>
        <time>2022-08-24T10:48:35Z</time>
      </trkpt>
      <trkpt lat="43.02590299999967" lon="-1.3062049999999983">
        <ele>1256.051</ele>
        <time>2022-08-24T10:48:36Z</time>
      </trkpt>
      <trkpt lat="43.02586199999967" lon="-1.3062219999999982">
        <ele>1255.874</ele>
        <time>2022-08-24T10:48:37Z</time>
      </trkpt>
      <trkpt lat="43.02582199999967" lon="-1.3062309999999981">
        <ele>1255.498</ele>
        <time>2022-08-24T10:48:38Z</time>
      </trkpt>
      <trkpt lat="43.02578099999967" lon="-1.306239999999998">
        <ele>1255.247</ele>
        <time>2022-08-24T10:48:39Z</time>
      </trkpt>
      <trkpt lat="43.02573799999967" lon="-1.3062549999999982">
        <ele>1255.029</ele>
        <time>2022-08-24T10:48:40Z</time>
      </trkpt>
      <trkpt lat="43.02569599999967" lon="-1.3062649999999982">
        <ele>1255.000</ele>
        <time>2022-08-24T10:48:41Z</time>
      </trkpt>
      <trkpt lat="43.02565299999967" lon="-1.3062739999999982">
        <ele>1254.820</ele>
        <time>2022-08-24T10:48:42Z</time>
      </trkpt>
      <trkpt lat="43.02551499999967" lon="-1.3063039999999981">
        <ele>1254.009</ele>
        <time>2022-08-24T10:48:45Z</time>
      </trkpt>
      <trkpt lat="43.02547499999967" lon="-1.3063009999999982">
        <ele>1253.883</ele>
        <time>2022-08-24T10:48:46Z</time>
      </trkpt>
      <trkpt lat="43.02544199999967" lon="-1.3062969999999983">
        <ele>1253.023</ele>
        <time>2022-08-24T10:48:47Z</time>
      </trkpt>
      <trkpt lat="43.02541799999967" lon="-1.3062949999999982">
        <ele>1252.263</ele>
        <time>2022-08-24T10:48:48Z</time>
      </trkpt>
      <trkpt lat="43.02540599999967" lon="-1.3062929999999982">
        <ele>1249.639</ele>
        <time>2022-08-24T10:48:52Z</time>
      </trkpt>
      <trkpt lat="43.02536699999967" lon="-1.3062929999999982">
        <ele>1248.641</ele>
        <time>2022-08-24T10:48:54Z</time>
      </trkpt>
      <trkpt lat="43.02533299999967" lon="-1.306293999999998">
        <ele>1248.268</ele>
        <time>2022-08-24T10:48:55Z</time>
      </trkpt>
      <trkpt lat="43.02526999999967" lon="-1.306312999999998">
        <ele>1247.861</ele>
        <time>2022-08-24T10:48:57Z</time>
      </trkpt>
      <trkpt lat="43.025248999999675" lon="-1.306336999999998">
        <ele>1247.865</ele>
        <time>2022-08-24T10:48:58Z</time>
      </trkpt>
      <trkpt lat="43.02523699999968" lon="-1.306364999999998">
        <ele>1247.884</ele>
        <time>2022-08-24T10:48:59Z</time>
      </trkpt>
      <trkpt lat="43.02523099999968" lon="-1.306391999999998">
        <ele>1247.658</ele>
        <time>2022-08-24T10:49:00Z</time>
      </trkpt>
      <trkpt lat="43.025231999999676" lon="-1.306418999999998">
        <ele>1247.652</ele>
        <time>2022-08-24T10:49:01Z</time>
      </trkpt>
      <trkpt lat="43.02523599999967" lon="-1.306446999999998">
        <ele>1247.417</ele>
        <time>2022-08-24T10:49:02Z</time>
      </trkpt>
      <trkpt lat="43.02524799999967" lon="-1.3064779999999978">
        <ele>1247.209</ele>
        <time>2022-08-24T10:49:03Z</time>
      </trkpt>
      <trkpt lat="43.02528199999967" lon="-1.3065349999999978">
        <ele>1247.226</ele>
        <time>2022-08-24T10:49:05Z</time>
      </trkpt>
      <trkpt lat="43.02530499999967" lon="-1.3065709999999977">
        <ele>1246.486</ele>
        <time>2022-08-24T10:49:06Z</time>
      </trkpt>
      <trkpt lat="43.02533299999967" lon="-1.3066109999999977">
        <ele>1245.256</ele>
        <time>2022-08-24T10:49:07Z</time>
      </trkpt>
      <trkpt lat="43.02539599999967" lon="-1.3066999999999978">
        <ele>1244.252</ele>
        <time>2022-08-24T10:49:09Z</time>
      </trkpt>
      <trkpt lat="43.02546299999967" lon="-1.3067919999999977">
        <ele>1243.264</ele>
        <time>2022-08-24T10:49:11Z</time>
      </trkpt>
      <trkpt lat="43.025536999999666" lon="-1.3068799999999978">
        <ele>1242.041</ele>
        <time>2022-08-24T10:49:13Z</time>
      </trkpt>
      <trkpt lat="43.025573999999665" lon="-1.3069199999999979">
        <ele>1241.014</ele>
        <time>2022-08-24T10:49:14Z</time>
      </trkpt>
      <trkpt lat="43.025610999999664" lon="-1.3069589999999978">
        <ele>1240.438</ele>
        <time>2022-08-24T10:49:15Z</time>
      </trkpt>
      <trkpt lat="43.02564899999967" lon="-1.3069939999999978">
        <ele>1239.437</ele>
        <time>2022-08-24T10:49:16Z</time>
      </trkpt>
      <trkpt lat="43.025685999999666" lon="-1.3070239999999977">
        <ele>1239.285</ele>
        <time>2022-08-24T10:49:17Z</time>
      </trkpt>
      <trkpt lat="43.02572199999967" lon="-1.3070519999999977">
        <ele>1238.489</ele>
        <time>2022-08-24T10:49:18Z</time>
      </trkpt>
      <trkpt lat="43.025753999999665" lon="-1.3070729999999977">
        <ele>1237.817</ele>
        <time>2022-08-24T10:49:19Z</time>
      </trkpt>
      <trkpt lat="43.02577999999966" lon="-1.3070909999999978">
        <ele>1237.609</ele>
        <time>2022-08-24T10:49:20Z</time>
      </trkpt>
      <trkpt lat="43.02580599999966" lon="-1.3071099999999978">
        <ele>1236.869</ele>
        <time>2022-08-24T10:49:21Z</time>
      </trkpt>
      <trkpt lat="43.02583199999966" lon="-1.3071349999999977">
        <ele>1236.659</ele>
        <time>2022-08-24T10:49:22Z</time>
      </trkpt>
      <trkpt lat="43.02586699999966" lon="-1.3071999999999977">
        <ele>1235.249</ele>
        <time>2022-08-24T10:49:24Z</time>
      </trkpt>
      <trkpt lat="43.025875999999656" lon="-1.3072369999999978">
        <ele>1234.475</ele>
        <time>2022-08-24T10:49:25Z</time>
      </trkpt>
      <trkpt lat="43.02587799999966" lon="-1.3072799999999978">
        <ele>1234.087</ele>
        <time>2022-08-24T10:49:26Z</time>
      </trkpt>
      <trkpt lat="43.02587399999966" lon="-1.3073259999999978">
        <ele>1233.874</ele>
        <time>2022-08-24T10:49:27Z</time>
      </trkpt>
      <trkpt lat="43.02586399999966" lon="-1.3073689999999978">
        <ele>1233.417</ele>
        <time>2022-08-24T10:49:28Z</time>
      </trkpt>
      <trkpt lat="43.02585199999966" lon="-1.3074209999999977">
        <ele>1233.421</ele>
        <time>2022-08-24T10:49:29Z</time>
      </trkpt>
      <trkpt lat="43.02584799999966" lon="-1.3074569999999976">
        <ele>1233.220</ele>
        <time>2022-08-24T10:49:30Z</time>
      </trkpt>
      <trkpt lat="43.02584599999966" lon="-1.3075019999999977">
        <ele>1233.063</ele>
        <time>2022-08-24T10:49:31Z</time>
      </trkpt>
      <trkpt lat="43.02584499999966" lon="-1.3075379999999976">
        <ele>1232.844</ele>
        <time>2022-08-24T10:49:32Z</time>
      </trkpt>
      <trkpt lat="43.02584199999966" lon="-1.3075689999999975">
        <ele>1232.418</ele>
        <time>2022-08-24T10:49:33Z</time>
      </trkpt>
      <trkpt lat="43.02583999999966" lon="-1.3076009999999976">
        <ele>1232.209</ele>
        <time>2022-08-24T10:49:34Z</time>
      </trkpt>
      <trkpt lat="43.02583999999966" lon="-1.3076319999999975">
        <ele>1231.867</ele>
        <time>2022-08-24T10:49:35Z</time>
      </trkpt>
      <trkpt lat="43.02583699999966" lon="-1.3076589999999975">
        <ele>1231.677</ele>
        <time>2022-08-24T10:49:36Z</time>
      </trkpt>
      <trkpt lat="43.02583399999966" lon="-1.3076819999999976">
        <ele>1230.447</ele>
        <time>2022-08-24T10:49:37Z</time>
      </trkpt>
      <trkpt lat="43.02582899999966" lon="-1.3077059999999976">
        <ele>1229.693</ele>
        <time>2022-08-24T10:49:38Z</time>
      </trkpt>
      <trkpt lat="43.025824999999664" lon="-1.3077299999999976">
        <ele>1229.035</ele>
        <time>2022-08-24T10:49:39Z</time>
      </trkpt>
      <trkpt lat="43.02581799999967" lon="-1.3077799999999977">
        <ele>1228.032</ele>
        <time>2022-08-24T10:49:41Z</time>
      </trkpt>
      <trkpt lat="43.02581499999967" lon="-1.3078009999999978">
        <ele>1227.685</ele>
        <time>2022-08-24T10:49:42Z</time>
      </trkpt>
      <trkpt lat="43.02580299999967" lon="-1.3078529999999977">
        <ele>1227.099</ele>
        <time>2022-08-24T10:49:44Z</time>
      </trkpt>
      <trkpt lat="43.02580199999967" lon="-1.3078769999999977">
        <ele>1226.088</ele>
        <time>2022-08-24T10:49:45Z</time>
      </trkpt>
      <trkpt lat="43.02580299999967" lon="-1.3078999999999978">
        <ele>1225.663</ele>
        <time>2022-08-24T10:49:46Z</time>
      </trkpt>
      <trkpt lat="43.02579999999967" lon="-1.3079349999999978">
        <ele>1225.244</ele>
        <time>2022-08-24T10:49:47Z</time>
      </trkpt>
      <trkpt lat="43.02579199999967" lon="-1.3079619999999978">
        <ele>1225.218</ele>
        <time>2022-08-24T10:49:48Z</time>
      </trkpt>
      <trkpt lat="43.02577499999967" lon="-1.308011999999998">
        <ele>1224.409</ele>
        <time>2022-08-24T10:49:50Z</time>
      </trkpt>
      <trkpt lat="43.025764999999666" lon="-1.308043999999998">
        <ele>1224.237</ele>
        <time>2022-08-24T10:49:51Z</time>
      </trkpt>
      <trkpt lat="43.02575799999967" lon="-1.308067999999998">
        <ele>1223.887</ele>
        <time>2022-08-24T10:49:52Z</time>
      </trkpt>
      <trkpt lat="43.02573899999967" lon="-1.308122999999998">
        <ele>1223.257</ele>
        <time>2022-08-24T10:49:54Z</time>
      </trkpt>
      <trkpt lat="43.02570999999967" lon="-1.308216999999998">
        <ele>1221.873</ele>
        <time>2022-08-24T10:49:57Z</time>
      </trkpt>
      <trkpt lat="43.02570199999967" lon="-1.3082449999999979">
        <ele>1221.635</ele>
        <time>2022-08-24T10:49:58Z</time>
      </trkpt>
      <trkpt lat="43.02569099999967" lon="-1.3082719999999979">
        <ele>1221.252</ele>
        <time>2022-08-24T10:49:59Z</time>
      </trkpt>
      <trkpt lat="43.02568299999967" lon="-1.3082999999999978">
        <ele>1221.065</ele>
        <time>2022-08-24T10:50:00Z</time>
      </trkpt>
      <trkpt lat="43.02567399999967" lon="-1.3083329999999977">
        <ele>1220.819</ele>
        <time>2022-08-24T10:50:01Z</time>
      </trkpt>
      <trkpt lat="43.025646999999665" lon="-1.3084149999999977">
        <ele>1219.668</ele>
        <time>2022-08-24T10:50:04Z</time>
      </trkpt>
      <trkpt lat="43.025632999999665" lon="-1.3084369999999976">
        <ele>1219.467</ele>
        <time>2022-08-24T10:50:05Z</time>
      </trkpt>
      <trkpt lat="43.025618999999665" lon="-1.3084619999999976">
        <ele>1218.881</ele>
        <time>2022-08-24T10:50:06Z</time>
      </trkpt>
      <trkpt lat="43.025601999999665" lon="-1.3084909999999976">
        <ele>1218.419</ele>
        <time>2022-08-24T10:50:07Z</time>
      </trkpt>
      <trkpt lat="43.02556099999966" lon="-1.3085489999999975">
        <ele>1217.209</ele>
        <time>2022-08-24T10:50:09Z</time>
      </trkpt>
      <trkpt lat="43.025517999999664" lon="-1.3086099999999976">
        <ele>1216.287</ele>
        <time>2022-08-24T10:50:11Z</time>
      </trkpt>
      <trkpt lat="43.02549899999966" lon="-1.3086369999999976">
        <ele>1215.817</ele>
        <time>2022-08-24T10:50:12Z</time>
      </trkpt>
      <trkpt lat="43.02548299999966" lon="-1.3086679999999975">
        <ele>1215.077</ele>
        <time>2022-08-24T10:50:13Z</time>
      </trkpt>
      <trkpt lat="43.02547499999966" lon="-1.3086889999999975">
        <ele>1214.623</ele>
        <time>2022-08-24T10:50:14Z</time>
      </trkpt>
      <trkpt lat="43.02546599999966" lon="-1.3087159999999975">
        <ele>1213.675</ele>
        <time>2022-08-24T10:50:15Z</time>
      </trkpt>
      <trkpt lat="43.02545399999966" lon="-1.3087429999999975">
        <ele>1212.482</ele>
        <time>2022-08-24T10:50:16Z</time>
      </trkpt>
      <trkpt lat="43.025413999999664" lon="-1.3088009999999974">
        <ele>1211.065</ele>
        <time>2022-08-24T10:50:18Z</time>
      </trkpt>
      <trkpt lat="43.02539199999966" lon="-1.3088339999999974">
        <ele>1210.669</ele>
        <time>2022-08-24T10:50:19Z</time>
      </trkpt>
      <trkpt lat="43.02538199999966" lon="-1.3088519999999975">
        <ele>1209.858</ele>
        <time>2022-08-24T10:50:20Z</time>
      </trkpt>
      <trkpt lat="43.02535699999966" lon="-1.3089219999999975">
        <ele>1208.636</ele>
        <time>2022-08-24T10:50:22Z</time>
      </trkpt>
      <trkpt lat="43.025318999999655" lon="-1.3090849999999974">
        <ele>1207.217</ele>
        <time>2022-08-24T10:50:25Z</time>
      </trkpt>
      <trkpt lat="43.02525599999966" lon="-1.3092679999999974">
        <ele>1205.618</ele>
        <time>2022-08-24T10:50:28Z</time>
      </trkpt>
      <trkpt lat="43.02523599999966" lon="-1.3093269999999975">
        <ele>1205.209</ele>
        <time>2022-08-24T10:50:29Z</time>
      </trkpt>
      <trkpt lat="43.025191999999656" lon="-1.3094469999999974">
        <ele>1204.484</ele>
        <time>2022-08-24T10:50:31Z</time>
      </trkpt>
      <trkpt lat="43.02517199999966" lon="-1.3095089999999974">
        <ele>1204.274</ele>
        <time>2022-08-24T10:50:32Z</time>
      </trkpt>
      <trkpt lat="43.025129999999656" lon="-1.3096379999999974">
        <ele>1203.234</ele>
        <time>2022-08-24T10:50:34Z</time>
      </trkpt>
      <trkpt lat="43.025087999999656" lon="-1.3097979999999974">
        <ele>1202.070</ele>
        <time>2022-08-24T10:50:36Z</time>
      </trkpt>
      <trkpt lat="43.02506699999966" lon="-1.3098679999999974">
        <ele>1201.472</ele>
        <time>2022-08-24T10:50:37Z</time>
      </trkpt>
      <trkpt lat="43.02504999999966" lon="-1.3099349999999974">
        <ele>1200.869</ele>
        <time>2022-08-24T10:50:38Z</time>
      </trkpt>
      <trkpt lat="43.02503699999966" lon="-1.3099889999999974">
        <ele>1199.832</ele>
        <time>2022-08-24T10:50:39Z</time>
      </trkpt>
      <trkpt lat="43.025020999999654" lon="-1.3100489999999974">
        <ele>1199.056</ele>
        <time>2022-08-24T10:50:40Z</time>
      </trkpt>
      <trkpt lat="43.025009999999654" lon="-1.3101089999999973">
        <ele>1198.495</ele>
        <time>2022-08-24T10:50:41Z</time>
      </trkpt>
      <trkpt lat="43.02500499999965" lon="-1.3101689999999973">
        <ele>1196.882</ele>
        <time>2022-08-24T10:50:42Z</time>
      </trkpt>
      <trkpt lat="43.02500199999965" lon="-1.3102389999999973">
        <ele>1196.243</ele>
        <time>2022-08-24T10:50:43Z</time>
      </trkpt>
      <trkpt lat="43.025000999999655" lon="-1.3102849999999973">
        <ele>1195.417</ele>
        <time>2022-08-24T10:50:44Z</time>
      </trkpt>
      <trkpt lat="43.025003999999655" lon="-1.3104149999999972">
        <ele>1194.209</ele>
        <time>2022-08-24T10:50:46Z</time>
      </trkpt>
      <trkpt lat="43.025008999999656" lon="-1.3105479999999972">
        <ele>1193.029</ele>
        <time>2022-08-24T10:50:48Z</time>
      </trkpt>
      <trkpt lat="43.025009999999654" lon="-1.3105989999999972">
        <ele>1192.659</ele>
        <time>2022-08-24T10:50:49Z</time>
      </trkpt>
      <trkpt lat="43.025014999999655" lon="-1.3107439999999972">
        <ele>1191.459</ele>
        <time>2022-08-24T10:50:51Z</time>
      </trkpt>
      <trkpt lat="43.02502199999965" lon="-1.3108639999999971">
        <ele>1190.275</ele>
        <time>2022-08-24T10:50:53Z</time>
      </trkpt>
      <trkpt lat="43.02502899999965" lon="-1.311077999999997">
        <ele>1188.687</ele>
        <time>2022-08-24T10:50:56Z</time>
      </trkpt>
      <trkpt lat="43.02502599999965" lon="-1.3112309999999971">
        <ele>1187.624</ele>
        <time>2022-08-24T10:50:58Z</time>
      </trkpt>
      <trkpt lat="43.02502199999965" lon="-1.3113079999999973">
        <ele>1186.687</ele>
        <time>2022-08-24T10:50:59Z</time>
      </trkpt>
      <trkpt lat="43.02501599999965" lon="-1.3114729999999972">
        <ele>1185.031</ele>
        <time>2022-08-24T10:51:01Z</time>
      </trkpt>
      <trkpt lat="43.02501599999965" lon="-1.3116499999999973">
        <ele>1183.690</ele>
        <time>2022-08-24T10:51:03Z</time>
      </trkpt>
      <trkpt lat="43.02502499999965" lon="-1.3117879999999973">
        <ele>1182.087</ele>
        <time>2022-08-24T10:51:05Z</time>
      </trkpt>
      <trkpt lat="43.02503699999965" lon="-1.3118689999999973">
        <ele>1180.842</ele>
        <time>2022-08-24T10:51:06Z</time>
      </trkpt>
      <trkpt lat="43.02506499999965" lon="-1.3120409999999973">
        <ele>1179.626</ele>
        <time>2022-08-24T10:51:08Z</time>
      </trkpt>
      <trkpt lat="43.02507599999965" lon="-1.3122059999999973">
        <ele>1178.409</ele>
        <time>2022-08-24T10:51:10Z</time>
      </trkpt>
      <trkpt lat="43.02508299999965" lon="-1.3122859999999974">
        <ele>1178.039</ele>
        <time>2022-08-24T10:51:11Z</time>
      </trkpt>
      <trkpt lat="43.02507999999965" lon="-1.3123809999999974">
        <ele>1176.869</ele>
        <time>2022-08-24T10:51:12Z</time>
      </trkpt>
      <trkpt lat="43.025069999999644" lon="-1.3124729999999973">
        <ele>1175.629</ele>
        <time>2022-08-24T10:51:13Z</time>
      </trkpt>
      <trkpt lat="43.02505099999964" lon="-1.3126609999999974">
        <ele>1174.875</ele>
        <time>2022-08-24T10:51:15Z</time>
      </trkpt>
      <trkpt lat="43.02503999999964" lon="-1.3127549999999975">
        <ele>1174.257</ele>
        <time>2022-08-24T10:51:16Z</time>
      </trkpt>
      <trkpt lat="43.02503799999964" lon="-1.3128409999999975">
        <ele>1172.684</ele>
        <time>2022-08-24T10:51:17Z</time>
      </trkpt>
      <trkpt lat="43.02503199999964" lon="-1.3129069999999974">
        <ele>1171.667</ele>
        <time>2022-08-24T10:51:18Z</time>
      </trkpt>
      <trkpt lat="43.02500399999964" lon="-1.3130179999999974">
        <ele>1170.861</ele>
        <time>2022-08-24T10:51:19Z</time>
      </trkpt>
      <trkpt lat="43.02498899999964" lon="-1.3131599999999974">
        <ele>1169.870</ele>
        <time>2022-08-24T10:51:20Z</time>
      </trkpt>
      <trkpt lat="43.02496899999964" lon="-1.3132739999999974">
        <ele>1169.694</ele>
        <time>2022-08-24T10:51:21Z</time>
      </trkpt>
      <trkpt lat="43.024959999999645" lon="-1.3133529999999973">
        <ele>1169.257</ele>
        <time>2022-08-24T10:51:22Z</time>
      </trkpt>
      <trkpt lat="43.024956999999645" lon="-1.3134399999999973">
        <ele>1168.422</ele>
        <time>2022-08-24T10:51:23Z</time>
      </trkpt>
      <trkpt lat="43.02494799999965" lon="-1.3135359999999974">
        <ele>1167.209</ele>
        <time>2022-08-24T10:51:24Z</time>
      </trkpt>
      <trkpt lat="43.02493899999965" lon="-1.3136099999999973">
        <ele>1166.240</ele>
        <time>2022-08-24T10:51:25Z</time>
      </trkpt>
      <trkpt lat="43.02492099999965" lon="-1.3136879999999973">
        <ele>1165.650</ele>
        <time>2022-08-24T10:51:26Z</time>
      </trkpt>
      <trkpt lat="43.02490499999965" lon="-1.3137369999999973">
        <ele>1164.630</ele>
        <time>2022-08-24T10:51:27Z</time>
      </trkpt>
      <trkpt lat="43.02488999999965" lon="-1.3138019999999972">
        <ele>1164.036</ele>
        <time>2022-08-24T10:51:28Z</time>
      </trkpt>
      <trkpt lat="43.02485999999965" lon="-1.3139309999999973">
        <ele>1162.228</ele>
        <time>2022-08-24T10:51:30Z</time>
      </trkpt>
      <trkpt lat="43.02481499999965" lon="-1.3139719999999973">
        <ele>1161.685</ele>
        <time>2022-08-24T10:51:31Z</time>
      </trkpt>
      <trkpt lat="43.02477199999965" lon="-1.3139849999999973">
        <ele>1160.888</ele>
        <time>2022-08-24T10:51:32Z</time>
      </trkpt>
      <trkpt lat="43.02471299999965" lon="-1.3139789999999973">
        <ele>1160.472</ele>
        <time>2022-08-24T10:51:33Z</time>
      </trkpt>
      <trkpt lat="43.02467099999965" lon="-1.3139609999999973">
        <ele>1159.621</ele>
        <time>2022-08-24T10:51:34Z</time>
      </trkpt>
      <trkpt lat="43.02462799999965" lon="-1.3139029999999974">
        <ele>1159.447</ele>
        <time>2022-08-24T10:51:35Z</time>
      </trkpt>
      <trkpt lat="43.02460899999965" lon="-1.3137929999999973">
        <ele>1158.429</ele>
        <time>2022-08-24T10:51:37Z</time>
      </trkpt>
      <trkpt lat="43.02461899999965" lon="-1.3135749999999973">
        <ele>1157.621</ele>
        <time>2022-08-24T10:51:40Z</time>
      </trkpt>
      <trkpt lat="43.02462299999965" lon="-1.3135049999999973">
        <ele>1157.009</ele>
        <time>2022-08-24T10:51:41Z</time>
      </trkpt>
      <trkpt lat="43.02462599999965" lon="-1.3134379999999972">
        <ele>1156.875</ele>
        <time>2022-08-24T10:51:42Z</time>
      </trkpt>
      <trkpt lat="43.02462599999965" lon="-1.3133849999999971">
        <ele>1156.645</ele>
        <time>2022-08-24T10:51:43Z</time>
      </trkpt>
      <trkpt lat="43.02462599999965" lon="-1.3133249999999972">
        <ele>1156.425</ele>
        <time>2022-08-24T10:51:44Z</time>
      </trkpt>
      <trkpt lat="43.02463199999965" lon="-1.3131949999999972">
        <ele>1155.891</ele>
        <time>2022-08-24T10:51:46Z</time>
      </trkpt>
      <trkpt lat="43.024632999999646" lon="-1.3131329999999972">
        <ele>1155.623</ele>
        <time>2022-08-24T10:51:47Z</time>
      </trkpt>
      <trkpt lat="43.02463499999965" lon="-1.3130769999999972">
        <ele>1155.450</ele>
        <time>2022-08-24T10:51:48Z</time>
      </trkpt>
      <trkpt lat="43.02463799999965" lon="-1.313023999999997">
        <ele>1155.243</ele>
        <time>2022-08-24T10:51:49Z</time>
      </trkpt>
      <trkpt lat="43.02464099999965" lon="-1.3129849999999972">
        <ele>1155.077</ele>
        <time>2022-08-24T10:51:50Z</time>
      </trkpt>
      <trkpt lat="43.02463999999965" lon="-1.3129549999999972">
        <ele>1154.436</ele>
        <time>2022-08-24T10:51:51Z</time>
      </trkpt>
      <trkpt lat="43.02463399999965" lon="-1.3129269999999973">
        <ele>1154.276</ele>
        <time>2022-08-24T10:51:52Z</time>
      </trkpt>
      <trkpt lat="43.02462099999965" lon="-1.3129039999999972">
        <ele>1154.090</ele>
        <time>2022-08-24T10:51:53Z</time>
      </trkpt>
      <trkpt lat="43.02457899999965" lon="-1.3129069999999972">
        <ele>1153.219</ele>
        <time>2022-08-24T10:51:55Z</time>
      </trkpt>
      <trkpt lat="43.024551999999645" lon="-1.3129369999999971">
        <ele>1152.609</ele>
        <time>2022-08-24T10:51:56Z</time>
      </trkpt>
      <trkpt lat="43.024489999999645" lon="-1.3130309999999972">
        <ele>1151.848</ele>
        <time>2022-08-24T10:51:58Z</time>
      </trkpt>
      <trkpt lat="43.02445499999965" lon="-1.3130979999999972">
        <ele>1151.438</ele>
        <time>2022-08-24T10:51:59Z</time>
      </trkpt>
      <trkpt lat="43.02441899999965" lon="-1.3131629999999972">
        <ele>1150.888</ele>
        <time>2022-08-24T10:52:00Z</time>
      </trkpt>
      <trkpt lat="43.02438399999965" lon="-1.3132249999999972">
        <ele>1150.454</ele>
        <time>2022-08-24T10:52:01Z</time>
      </trkpt>
      <trkpt lat="43.02434799999965" lon="-1.3132879999999971">
        <ele>1149.476</ele>
        <time>2022-08-24T10:52:02Z</time>
      </trkpt>
      <trkpt lat="43.02430899999965" lon="-1.313345999999997">
        <ele>1148.473</ele>
        <time>2022-08-24T10:52:03Z</time>
      </trkpt>
      <trkpt lat="43.02422699999965" lon="-1.313444999999997">
        <ele>1147.276</ele>
        <time>2022-08-24T10:52:05Z</time>
      </trkpt>
      <trkpt lat="43.02418399999965" lon="-1.313487999999997">
        <ele>1146.850</ele>
        <time>2022-08-24T10:52:06Z</time>
      </trkpt>
      <trkpt lat="43.02414199999965" lon="-1.313523999999997">
        <ele>1145.849</ele>
        <time>2022-08-24T10:52:07Z</time>
      </trkpt>
      <trkpt lat="43.024100999999646" lon="-1.313553999999997">
        <ele>1145.663</ele>
        <time>2022-08-24T10:52:08Z</time>
      </trkpt>
      <trkpt lat="43.02405999999964" lon="-1.313578999999997">
        <ele>1145.444</ele>
        <time>2022-08-24T10:52:09Z</time>
      </trkpt>
      <trkpt lat="43.02402099999964" lon="-1.313604999999997">
        <ele>1144.818</ele>
        <time>2022-08-24T10:52:10Z</time>
      </trkpt>
      <trkpt lat="43.023943999999645" lon="-1.313650999999997">
        <ele>1144.209</ele>
        <time>2022-08-24T10:52:12Z</time>
      </trkpt>
      <trkpt lat="43.02390899999965" lon="-1.313670999999997">
        <ele>1143.897</ele>
        <time>2022-08-24T10:52:13Z</time>
      </trkpt>
      <trkpt lat="43.023878999999646" lon="-1.313685999999997">
        <ele>1143.087</ele>
        <time>2022-08-24T10:52:14Z</time>
      </trkpt>
      <trkpt lat="43.02384699999965" lon="-1.313699999999997">
        <ele>1142.867</ele>
        <time>2022-08-24T10:52:15Z</time>
      </trkpt>
      <trkpt lat="43.023813999999646" lon="-1.313714999999997">
        <ele>1142.633</ele>
        <time>2022-08-24T10:52:16Z</time>
      </trkpt>
      <trkpt lat="43.023777999999645" lon="-1.313728999999997">
        <ele>1142.495</ele>
        <time>2022-08-24T10:52:17Z</time>
      </trkpt>
      <trkpt lat="43.023740999999646" lon="-1.313742999999997">
        <ele>1142.262</ele>
        <time>2022-08-24T10:52:18Z</time>
      </trkpt>
      <trkpt lat="43.02370399999965" lon="-1.313752999999997">
        <ele>1142.035</ele>
        <time>2022-08-24T10:52:19Z</time>
      </trkpt>
      <trkpt lat="43.02362999999965" lon="-1.313772999999997">
        <ele>1141.079</ele>
        <time>2022-08-24T10:52:21Z</time>
      </trkpt>
      <trkpt lat="43.02359399999965" lon="-1.313789999999997">
        <ele>1140.288</ele>
        <time>2022-08-24T10:52:22Z</time>
      </trkpt>
      <trkpt lat="43.023557999999646" lon="-1.313813999999997">
        <ele>1139.835</ele>
        <time>2022-08-24T10:52:23Z</time>
      </trkpt>
      <trkpt lat="43.02352399999965" lon="-1.3138529999999968">
        <ele>1138.886</ele>
        <time>2022-08-24T10:52:24Z</time>
      </trkpt>
      <trkpt lat="43.02348999999965" lon="-1.3138939999999968">
        <ele>1138.414</ele>
        <time>2022-08-24T10:52:25Z</time>
      </trkpt>
      <trkpt lat="43.023459999999645" lon="-1.3139359999999969">
        <ele>1137.409</ele>
        <time>2022-08-24T10:52:26Z</time>
      </trkpt>
      <trkpt lat="43.02343099999965" lon="-1.313983999999997">
        <ele>1136.884</ele>
        <time>2022-08-24T10:52:27Z</time>
      </trkpt>
      <trkpt lat="43.023405999999646" lon="-1.314028999999997">
        <ele>1136.834</ele>
        <time>2022-08-24T10:52:28Z</time>
      </trkpt>
      <trkpt lat="43.02338299999965" lon="-1.314082999999997">
        <ele>1136.034</ele>
        <time>2022-08-24T10:52:29Z</time>
      </trkpt>
      <trkpt lat="43.02336499999965" lon="-1.314143999999997">
        <ele>1135.450</ele>
        <time>2022-08-24T10:52:30Z</time>
      </trkpt>
      <trkpt lat="43.02335299999965" lon="-1.314209999999997">
        <ele>1133.632</ele>
        <time>2022-08-24T10:52:31Z</time>
      </trkpt>
      <trkpt lat="43.023348999999655" lon="-1.314277999999997">
        <ele>1133.019</ele>
        <time>2022-08-24T10:52:32Z</time>
      </trkpt>
      <trkpt lat="43.023348999999655" lon="-1.314349999999997">
        <ele>1132.062</ele>
        <time>2022-08-24T10:52:33Z</time>
      </trkpt>
      <trkpt lat="43.023348999999655" lon="-1.314424999999997">
        <ele>1131.426</ele>
        <time>2022-08-24T10:52:34Z</time>
      </trkpt>
      <trkpt lat="43.02334499999966" lon="-1.3145049999999971">
        <ele>1131.035</ele>
        <time>2022-08-24T10:52:35Z</time>
      </trkpt>
      <trkpt lat="43.02330799999966" lon="-1.314753999999997">
        <ele>1129.657</ele>
        <time>2022-08-24T10:52:38Z</time>
      </trkpt>
      <trkpt lat="43.02329599999966" lon="-1.314838999999997">
        <ele>1128.800</ele>
        <time>2022-08-24T10:52:39Z</time>
      </trkpt>
      <trkpt lat="43.02328299999966" lon="-1.314925999999997">
        <ele>1128.420</ele>
        <time>2022-08-24T10:52:40Z</time>
      </trkpt>
      <trkpt lat="43.02324899999966" lon="-1.315106999999997">
        <ele>1127.409</ele>
        <time>2022-08-24T10:52:42Z</time>
      </trkpt>
      <trkpt lat="43.023204999999656" lon="-1.315387999999997">
        <ele>1126.066</ele>
        <time>2022-08-24T10:52:45Z</time>
      </trkpt>
      <trkpt lat="43.02319599999966" lon="-1.315481999999997">
        <ele>1125.276</ele>
        <time>2022-08-24T10:52:46Z</time>
      </trkpt>
      <trkpt lat="43.02319199999966" lon="-1.3155769999999969">
        <ele>1124.846</ele>
        <time>2022-08-24T10:52:47Z</time>
      </trkpt>
      <trkpt lat="43.02318699999966" lon="-1.315667999999997">
        <ele>1123.872</ele>
        <time>2022-08-24T10:52:48Z</time>
      </trkpt>
      <trkpt lat="43.02317899999966" lon="-1.315751999999997">
        <ele>1123.234</ele>
        <time>2022-08-24T10:52:49Z</time>
      </trkpt>
      <trkpt lat="43.02317299999966" lon="-1.315834999999997">
        <ele>1121.451</ele>
        <time>2022-08-24T10:52:50Z</time>
      </trkpt>
      <trkpt lat="43.02316899999966" lon="-1.315918999999997">
        <ele>1120.644</ele>
        <time>2022-08-24T10:52:51Z</time>
      </trkpt>
      <trkpt lat="43.023164999999665" lon="-1.3160009999999969">
        <ele>1119.888</ele>
        <time>2022-08-24T10:52:52Z</time>
      </trkpt>
      <trkpt lat="43.02316099999967" lon="-1.3160709999999969">
        <ele>1119.057</ele>
        <time>2022-08-24T10:52:53Z</time>
      </trkpt>
      <trkpt lat="43.023158999999666" lon="-1.3161289999999968">
        <ele>1118.891</ele>
        <time>2022-08-24T10:52:54Z</time>
      </trkpt>
      <trkpt lat="43.02315999999966" lon="-1.3161749999999968">
        <ele>1118.281</ele>
        <time>2022-08-24T10:52:55Z</time>
      </trkpt>
      <trkpt lat="43.02316099999966" lon="-1.3162159999999967">
        <ele>1117.619</ele>
        <time>2022-08-24T10:52:56Z</time>
      </trkpt>
      <trkpt lat="43.02316799999966" lon="-1.3162529999999968">
        <ele>1116.009</ele>
        <time>2022-08-24T10:52:57Z</time>
      </trkpt>
      <trkpt lat="43.02318099999966" lon="-1.3163349999999967">
        <ele>1114.870</ele>
        <time>2022-08-24T10:52:59Z</time>
      </trkpt>
      <trkpt lat="43.02317999999966" lon="-1.3163749999999967">
        <ele>1114.080</ele>
        <time>2022-08-24T10:53:00Z</time>
      </trkpt>
      <trkpt lat="43.023164999999665" lon="-1.3164129999999967">
        <ele>1113.810</ele>
        <time>2022-08-24T10:53:01Z</time>
      </trkpt>
      <trkpt lat="43.023130999999665" lon="-1.3164409999999966">
        <ele>1113.456</ele>
        <time>2022-08-24T10:53:02Z</time>
      </trkpt>
      <trkpt lat="43.02303899999966" lon="-1.3164569999999967">
        <ele>1112.628</ele>
        <time>2022-08-24T10:53:04Z</time>
      </trkpt>
      <trkpt lat="43.022925999999664" lon="-1.3164359999999966">
        <ele>1111.885</ele>
        <time>2022-08-24T10:53:06Z</time>
      </trkpt>
      <trkpt lat="43.022863999999664" lon="-1.3164319999999967">
        <ele>1111.448</ele>
        <time>2022-08-24T10:53:07Z</time>
      </trkpt>
      <trkpt lat="43.022804999999664" lon="-1.3164369999999967">
        <ele>1111.232</ele>
        <time>2022-08-24T10:53:08Z</time>
      </trkpt>
      <trkpt lat="43.02261999999966" lon="-1.3164899999999968">
        <ele>1110.231</ele>
        <time>2022-08-24T10:53:11Z</time>
      </trkpt>
      <trkpt lat="43.02256099999966" lon="-1.3165069999999968">
        <ele>1109.863</ele>
        <time>2022-08-24T10:53:12Z</time>
      </trkpt>
      <trkpt lat="43.022503999999664" lon="-1.3165229999999968">
        <ele>1109.444</ele>
        <time>2022-08-24T10:53:13Z</time>
      </trkpt>
      <trkpt lat="43.02244799999966" lon="-1.3165389999999968">
        <ele>1109.018</ele>
        <time>2022-08-24T10:53:14Z</time>
      </trkpt>
      <trkpt lat="43.02239599999967" lon="-1.3165569999999969">
        <ele>1108.609</ele>
        <time>2022-08-24T10:53:15Z</time>
      </trkpt>
      <trkpt lat="43.022351999999664" lon="-1.3165759999999969">
        <ele>1108.027</ele>
        <time>2022-08-24T10:53:16Z</time>
      </trkpt>
      <trkpt lat="43.022314999999665" lon="-1.3165959999999968">
        <ele>1107.437</ele>
        <time>2022-08-24T10:53:17Z</time>
      </trkpt>
      <trkpt lat="43.02227899999966" lon="-1.3166129999999967">
        <ele>1107.087</ele>
        <time>2022-08-24T10:53:18Z</time>
      </trkpt>
      <trkpt lat="43.022244999999664" lon="-1.3166239999999967">
        <ele>1106.673</ele>
        <time>2022-08-24T10:53:19Z</time>
      </trkpt>
      <trkpt lat="43.022218999999666" lon="-1.3166329999999966">
        <ele>1106.425</ele>
        <time>2022-08-24T10:53:20Z</time>
      </trkpt>
      <trkpt lat="43.02216999999967" lon="-1.3166569999999966">
        <ele>1106.052</ele>
        <time>2022-08-24T10:53:22Z</time>
      </trkpt>
      <trkpt lat="43.02212799999967" lon="-1.3166709999999966">
        <ele>1105.665</ele>
        <time>2022-08-24T10:53:23Z</time>
      </trkpt>
      <trkpt lat="43.02208599999967" lon="-1.3166819999999966">
        <ele>1105.229</ele>
        <time>2022-08-24T10:53:24Z</time>
      </trkpt>
      <trkpt lat="43.02199599999967" lon="-1.3167109999999966">
        <ele>1104.658</ele>
        <time>2022-08-24T10:53:26Z</time>
      </trkpt>
      <trkpt lat="43.02194999999967" lon="-1.3167239999999967">
        <ele>1104.473</ele>
        <time>2022-08-24T10:53:27Z</time>
      </trkpt>
      <trkpt lat="43.02189499999967" lon="-1.3167339999999967">
        <ele>1104.085</ele>
        <time>2022-08-24T10:53:28Z</time>
      </trkpt>
      <trkpt lat="43.02176399999966" lon="-1.3167569999999968">
        <ele>1103.813</ele>
        <time>2022-08-24T10:53:30Z</time>
      </trkpt>
      <trkpt lat="43.02157399999966" lon="-1.3168029999999968">
        <ele>1103.409</ele>
        <time>2022-08-24T10:53:33Z</time>
      </trkpt>
      <trkpt lat="43.02151099999966" lon="-1.3168229999999967">
        <ele>1103.278</ele>
        <time>2022-08-24T10:53:34Z</time>
      </trkpt>
      <trkpt lat="43.02144899999966" lon="-1.3168419999999967">
        <ele>1102.868</ele>
        <time>2022-08-24T10:53:35Z</time>
      </trkpt>
      <trkpt lat="43.02138799999966" lon="-1.3168519999999968">
        <ele>1102.868</ele>
        <time>2022-08-24T10:53:36Z</time>
      </trkpt>
      <trkpt lat="43.02133299999966" lon="-1.316858999999997">
        <ele>1102.644</ele>
        <time>2022-08-24T10:53:37Z</time>
      </trkpt>
      <trkpt lat="43.02128099999966" lon="-1.3168649999999968">
        <ele>1102.236</ele>
        <time>2022-08-24T10:53:38Z</time>
      </trkpt>
      <trkpt lat="43.02123599999966" lon="-1.3168659999999968">
        <ele>1102.043</ele>
        <time>2022-08-24T10:53:39Z</time>
      </trkpt>
      <trkpt lat="43.02119199999966" lon="-1.3168719999999967">
        <ele>1101.856</ele>
        <time>2022-08-24T10:53:40Z</time>
      </trkpt>
      <trkpt lat="43.02114299999966" lon="-1.3168779999999967">
        <ele>1101.610</ele>
        <time>2022-08-24T10:53:41Z</time>
      </trkpt>
      <trkpt lat="43.02089199999966" lon="-1.3169219999999966">
        <ele>1100.849</ele>
        <time>2022-08-24T10:53:45Z</time>
      </trkpt>
      <trkpt lat="43.02082799999966" lon="-1.3169359999999966">
        <ele>1100.822</ele>
        <time>2022-08-24T10:53:46Z</time>
      </trkpt>
      <trkpt lat="43.02076999999966" lon="-1.3169489999999966">
        <ele>1100.662</ele>
        <time>2022-08-24T10:53:47Z</time>
      </trkpt>
      <trkpt lat="43.020714999999655" lon="-1.3169679999999966">
        <ele>1100.008</ele>
        <time>2022-08-24T10:53:48Z</time>
      </trkpt>
      <trkpt lat="43.02066299999966" lon="-1.3169919999999966">
        <ele>1099.809</ele>
        <time>2022-08-24T10:53:49Z</time>
      </trkpt>
      <trkpt lat="43.02061399999966" lon="-1.3170219999999966">
        <ele>1099.453</ele>
        <time>2022-08-24T10:53:50Z</time>
      </trkpt>
      <trkpt lat="43.02056399999966" lon="-1.3170579999999965">
        <ele>1099.263</ele>
        <time>2022-08-24T10:53:51Z</time>
      </trkpt>
      <trkpt lat="43.02051499999966" lon="-1.3171039999999965">
        <ele>1099.043</ele>
        <time>2022-08-24T10:53:52Z</time>
      </trkpt>
      <trkpt lat="43.02046799999966" lon="-1.3171549999999965">
        <ele>1098.859</ele>
        <time>2022-08-24T10:53:53Z</time>
      </trkpt>
      <trkpt lat="43.02042199999966" lon="-1.3172059999999965">
        <ele>1098.041</ele>
        <time>2022-08-24T10:53:54Z</time>
      </trkpt>
      <trkpt lat="43.02037699999966" lon="-1.3172529999999965">
        <ele>1097.668</ele>
        <time>2022-08-24T10:53:55Z</time>
      </trkpt>
      <trkpt lat="43.02033499999966" lon="-1.3173019999999964">
        <ele>1097.421</ele>
        <time>2022-08-24T10:53:56Z</time>
      </trkpt>
      <trkpt lat="43.02030099999966" lon="-1.3173519999999965">
        <ele>1096.655</ele>
        <time>2022-08-24T10:53:57Z</time>
      </trkpt>
      <trkpt lat="43.02027299999966" lon="-1.3174019999999966">
        <ele>1096.034</ele>
        <time>2022-08-24T10:53:58Z</time>
      </trkpt>
      <trkpt lat="43.02025399999966" lon="-1.3174559999999966">
        <ele>1095.465</ele>
        <time>2022-08-24T10:53:59Z</time>
      </trkpt>
      <trkpt lat="43.02024399999966" lon="-1.3175129999999966">
        <ele>1094.268</ele>
        <time>2022-08-24T10:54:00Z</time>
      </trkpt>
      <trkpt lat="43.020247999999654" lon="-1.3175709999999965">
        <ele>1093.614</ele>
        <time>2022-08-24T10:54:01Z</time>
      </trkpt>
      <trkpt lat="43.02026099999966" lon="-1.3176209999999966">
        <ele>1092.809</ele>
        <time>2022-08-24T10:54:02Z</time>
      </trkpt>
      <trkpt lat="43.02027999999966" lon="-1.3176659999999967">
        <ele>1092.637</ele>
        <time>2022-08-24T10:54:03Z</time>
      </trkpt>
      <trkpt lat="43.02029999999966" lon="-1.3177029999999967">
        <ele>1092.417</ele>
        <time>2022-08-24T10:54:04Z</time>
      </trkpt>
      <trkpt lat="43.020317999999655" lon="-1.3177339999999966">
        <ele>1092.267</ele>
        <time>2022-08-24T10:54:05Z</time>
      </trkpt>
      <trkpt lat="43.02033699999966" lon="-1.3177609999999966">
        <ele>1092.093</ele>
        <time>2022-08-24T10:54:06Z</time>
      </trkpt>
      <trkpt lat="43.02037799999966" lon="-1.3178139999999967">
        <ele>1091.855</ele>
        <time>2022-08-24T10:54:08Z</time>
      </trkpt>
      <trkpt lat="43.02040299999966" lon="-1.3178499999999966">
        <ele>1091.882</ele>
        <time>2022-08-24T10:54:09Z</time>
      </trkpt>
      <trkpt lat="43.02052099999966" lon="-1.3180029999999967">
        <ele>1091.835</ele>
        <time>2022-08-24T10:54:13Z</time>
      </trkpt>
      <trkpt lat="43.02055499999966" lon="-1.3180359999999967">
        <ele>1091.849</ele>
        <time>2022-08-24T10:54:14Z</time>
      </trkpt>
      <trkpt lat="43.020671999999664" lon="-1.3181319999999968">
        <ele>1091.678</ele>
        <time>2022-08-24T10:54:17Z</time>
      </trkpt>
      <trkpt lat="43.02071199999966" lon="-1.3181509999999967">
        <ele>1091.664</ele>
        <time>2022-08-24T10:54:18Z</time>
      </trkpt>
      <trkpt lat="43.02075399999966" lon="-1.3181569999999967">
        <ele>1091.606</ele>
        <time>2022-08-24T10:54:19Z</time>
      </trkpt>
      <trkpt lat="43.02079399999966" lon="-1.3181539999999967">
        <ele>1091.416</ele>
        <time>2022-08-24T10:54:20Z</time>
      </trkpt>
      <trkpt lat="43.020834999999664" lon="-1.3181519999999967">
        <ele>1091.009</ele>
        <time>2022-08-24T10:54:21Z</time>
      </trkpt>
      <trkpt lat="43.02087299999967" lon="-1.3181619999999967">
        <ele>1090.817</ele>
        <time>2022-08-24T10:54:22Z</time>
      </trkpt>
      <trkpt lat="43.02090899999967" lon="-1.3181829999999968">
        <ele>1090.427</ele>
        <time>2022-08-24T10:54:23Z</time>
      </trkpt>
      <trkpt lat="43.02093899999967" lon="-1.3182119999999968">
        <ele>1090.267</ele>
        <time>2022-08-24T10:54:24Z</time>
      </trkpt>
      <trkpt lat="43.020954999999674" lon="-1.318248999999997">
        <ele>1090.023</ele>
        <time>2022-08-24T10:54:25Z</time>
      </trkpt>
      <trkpt lat="43.020954999999674" lon="-1.318291999999997">
        <ele>1089.885</ele>
        <time>2022-08-24T10:54:26Z</time>
      </trkpt>
      <trkpt lat="43.02094399999967" lon="-1.318331999999997">
        <ele>1089.662</ele>
        <time>2022-08-24T10:54:27Z</time>
      </trkpt>
      <trkpt lat="43.020917999999675" lon="-1.3183629999999968">
        <ele>1089.495</ele>
        <time>2022-08-24T10:54:28Z</time>
      </trkpt>
      <trkpt lat="43.02088199999967" lon="-1.3183819999999968">
        <ele>1089.479</ele>
        <time>2022-08-24T10:54:29Z</time>
      </trkpt>
      <trkpt lat="43.020841999999675" lon="-1.3183879999999968">
        <ele>1089.248</ele>
        <time>2022-08-24T10:54:30Z</time>
      </trkpt>
      <trkpt lat="43.02079799999967" lon="-1.3183899999999968">
        <ele>1089.076</ele>
        <time>2022-08-24T10:54:31Z</time>
      </trkpt>
      <trkpt lat="43.02074999999967" lon="-1.318388999999997">
        <ele>1089.090</ele>
        <time>2022-08-24T10:54:32Z</time>
      </trkpt>
      <trkpt lat="43.020700999999676" lon="-1.3183899999999968">
        <ele>1088.819</ele>
        <time>2022-08-24T10:54:33Z</time>
      </trkpt>
      <trkpt lat="43.02059499999967" lon="-1.318377999999997">
        <ele>1088.609</ele>
        <time>2022-08-24T10:54:35Z</time>
      </trkpt>
      <trkpt lat="43.02047799999967" lon="-1.3183549999999968">
        <ele>1087.828</ele>
        <time>2022-08-24T10:54:37Z</time>
      </trkpt>
      <trkpt lat="43.02041799999967" lon="-1.3183289999999968">
        <ele>1087.258</ele>
        <time>2022-08-24T10:54:38Z</time>
      </trkpt>
      <trkpt lat="43.02030299999967" lon="-1.3182469999999968">
        <ele>1086.088</ele>
        <time>2022-08-24T10:54:40Z</time>
      </trkpt>
      <trkpt lat="43.02013199999967" lon="-1.3180979999999969">
        <ele>1084.824</ele>
        <time>2022-08-24T10:54:43Z</time>
      </trkpt>
      <trkpt lat="43.02000499999967" lon="-1.317996999999997">
        <ele>1083.646</ele>
        <time>2022-08-24T10:54:45Z</time>
      </trkpt>
      <trkpt lat="43.01993999999967" lon="-1.317945999999997">
        <ele>1083.283</ele>
        <time>2022-08-24T10:54:46Z</time>
      </trkpt>
      <trkpt lat="43.019876999999674" lon="-1.317894999999997">
        <ele>1082.846</ele>
        <time>2022-08-24T10:54:47Z</time>
      </trkpt>
      <trkpt lat="43.01981899999967" lon="-1.317842999999997">
        <ele>1082.410</ele>
        <time>2022-08-24T10:54:48Z</time>
      </trkpt>
      <trkpt lat="43.01977099999967" lon="-1.317796999999997">
        <ele>1082.059</ele>
        <time>2022-08-24T10:54:49Z</time>
      </trkpt>
      <trkpt lat="43.019727999999674" lon="-1.317758999999997">
        <ele>1081.425</ele>
        <time>2022-08-24T10:54:50Z</time>
      </trkpt>
      <trkpt lat="43.019687999999675" lon="-1.317724999999997">
        <ele>1080.426</ele>
        <time>2022-08-24T10:54:51Z</time>
      </trkpt>
      <trkpt lat="43.01964799999968" lon="-1.317694999999997">
        <ele>1079.608</ele>
        <time>2022-08-24T10:54:52Z</time>
      </trkpt>
      <trkpt lat="43.01960999999967" lon="-1.317669999999997">
        <ele>1079.409</ele>
        <time>2022-08-24T10:54:53Z</time>
      </trkpt>
      <trkpt lat="43.01957199999967" lon="-1.317650999999997">
        <ele>1078.853</ele>
        <time>2022-08-24T10:54:54Z</time>
      </trkpt>
      <trkpt lat="43.019533999999666" lon="-1.317642999999997">
        <ele>1078.283</ele>
        <time>2022-08-24T10:54:55Z</time>
      </trkpt>
      <trkpt lat="43.01949699999967" lon="-1.317654999999997">
        <ele>1077.453</ele>
        <time>2022-08-24T10:54:56Z</time>
      </trkpt>
      <trkpt lat="43.01946899999967" lon="-1.3176879999999969">
        <ele>1076.429</ele>
        <time>2022-08-24T10:54:57Z</time>
      </trkpt>
      <trkpt lat="43.019452999999665" lon="-1.3177319999999968">
        <ele>1076.261</ele>
        <time>2022-08-24T10:54:58Z</time>
      </trkpt>
      <trkpt lat="43.01945199999967" lon="-1.3177829999999968">
        <ele>1075.638</ele>
        <time>2022-08-24T10:54:59Z</time>
      </trkpt>
      <trkpt lat="43.01947099999967" lon="-1.317827999999997">
        <ele>1075.441</ele>
        <time>2022-08-24T10:55:00Z</time>
      </trkpt>
      <trkpt lat="43.01954199999967" lon="-1.3179019999999968">
        <ele>1074.825</ele>
        <time>2022-08-24T10:55:02Z</time>
      </trkpt>
      <trkpt lat="43.01958399999967" lon="-1.3179309999999969">
        <ele>1074.484</ele>
        <time>2022-08-24T10:55:03Z</time>
      </trkpt>
      <trkpt lat="43.019626999999666" lon="-1.317964999999997">
        <ele>1074.222</ele>
        <time>2022-08-24T10:55:04Z</time>
      </trkpt>
      <trkpt lat="43.01967099999967" lon="-1.3180039999999968">
        <ele>1074.062</ele>
        <time>2022-08-24T10:55:05Z</time>
      </trkpt>
      <trkpt lat="43.01976099999967" lon="-1.3180969999999967">
        <ele>1073.608</ele>
        <time>2022-08-24T10:55:07Z</time>
      </trkpt>
      <trkpt lat="43.019806999999666" lon="-1.3181479999999968">
        <ele>1073.209</ele>
        <time>2022-08-24T10:55:08Z</time>
      </trkpt>
      <trkpt lat="43.02002199999966" lon="-1.3184269999999967">
        <ele>1072.243</ele>
        <time>2022-08-24T10:55:13Z</time>
      </trkpt>
      <trkpt lat="43.02005999999967" lon="-1.3184889999999967">
        <ele>1071.853</ele>
        <time>2022-08-24T10:55:14Z</time>
      </trkpt>
      <trkpt lat="43.020096999999666" lon="-1.3185549999999966">
        <ele>1071.043</ele>
        <time>2022-08-24T10:55:15Z</time>
      </trkpt>
      <trkpt lat="43.02013199999966" lon="-1.3186269999999967">
        <ele>1070.439</ele>
        <time>2022-08-24T10:55:16Z</time>
      </trkpt>
      <trkpt lat="43.020186999999666" lon="-1.3187959999999967">
        <ele>1069.841</ele>
        <time>2022-08-24T10:55:18Z</time>
      </trkpt>
      <trkpt lat="43.02021399999967" lon="-1.3188799999999967">
        <ele>1069.678</ele>
        <time>2022-08-24T10:55:19Z</time>
      </trkpt>
      <trkpt lat="43.02023699999967" lon="-1.3189559999999967">
        <ele>1069.081</ele>
        <time>2022-08-24T10:55:20Z</time>
      </trkpt>
      <trkpt lat="43.02025599999967" lon="-1.3190279999999968">
        <ele>1068.675</ele>
        <time>2022-08-24T10:55:21Z</time>
      </trkpt>
      <trkpt lat="43.02027799999967" lon="-1.3190989999999967">
        <ele>1068.074</ele>
        <time>2022-08-24T10:55:22Z</time>
      </trkpt>
      <trkpt lat="43.02030699999967" lon="-1.3191679999999968">
        <ele>1067.875</ele>
        <time>2022-08-24T10:55:23Z</time>
      </trkpt>
      <trkpt lat="43.020335999999666" lon="-1.3192319999999969">
        <ele>1067.228</ele>
        <time>2022-08-24T10:55:24Z</time>
      </trkpt>
      <trkpt lat="43.02040199999966" lon="-1.319362999999997">
        <ele>1066.820</ele>
        <time>2022-08-24T10:55:26Z</time>
      </trkpt>
      <trkpt lat="43.020516999999664" lon="-1.319556999999997">
        <ele>1065.609</ele>
        <time>2022-08-24T10:55:29Z</time>
      </trkpt>
      <trkpt lat="43.020586999999665" lon="-1.319685999999997">
        <ele>1064.238</ele>
        <time>2022-08-24T10:55:31Z</time>
      </trkpt>
      <trkpt lat="43.020662999999665" lon="-1.319806999999997">
        <ele>1063.048</ele>
        <time>2022-08-24T10:55:33Z</time>
      </trkpt>
      <trkpt lat="43.020755999999665" lon="-1.319919999999997">
        <ele>1061.268</ele>
        <time>2022-08-24T10:55:35Z</time>
      </trkpt>
      <trkpt lat="43.02079699999967" lon="-1.319968999999997">
        <ele>1061.064</ele>
        <time>2022-08-24T10:55:36Z</time>
      </trkpt>
      <trkpt lat="43.02083499999967" lon="-1.3200139999999971">
        <ele>1060.636</ele>
        <time>2022-08-24T10:55:37Z</time>
      </trkpt>
      <trkpt lat="43.02087099999967" lon="-1.3200569999999971">
        <ele>1060.293</ele>
        <time>2022-08-24T10:55:38Z</time>
      </trkpt>
      <trkpt lat="43.020903999999675" lon="-1.3201019999999972">
        <ele>1059.856</ele>
        <time>2022-08-24T10:55:39Z</time>
      </trkpt>
      <trkpt lat="43.02092999999967" lon="-1.3201469999999973">
        <ele>1059.460</ele>
        <time>2022-08-24T10:55:40Z</time>
      </trkpt>
      <trkpt lat="43.020948999999675" lon="-1.3201939999999972">
        <ele>1058.429</ele>
        <time>2022-08-24T10:55:41Z</time>
      </trkpt>
      <trkpt lat="43.02095799999967" lon="-1.3202429999999972">
        <ele>1057.652</ele>
        <time>2022-08-24T10:55:42Z</time>
      </trkpt>
      <trkpt lat="43.02095899999967" lon="-1.3202959999999972">
        <ele>1057.253</ele>
        <time>2022-08-24T10:55:43Z</time>
      </trkpt>
      <trkpt lat="43.02094799999967" lon="-1.3203489999999973">
        <ele>1056.808</ele>
        <time>2022-08-24T10:55:44Z</time>
      </trkpt>
      <trkpt lat="43.02091899999967" lon="-1.3203939999999974">
        <ele>1056.609</ele>
        <time>2022-08-24T10:55:45Z</time>
      </trkpt>
      <trkpt lat="43.02087699999967" lon="-1.3204339999999974">
        <ele>1056.286</ele>
        <time>2022-08-24T10:55:46Z</time>
      </trkpt>
      <trkpt lat="43.020793999999675" lon="-1.3205119999999975">
        <ele>1055.286</ele>
        <time>2022-08-24T10:55:48Z</time>
      </trkpt>
      <trkpt lat="43.020751999999675" lon="-1.3205539999999976">
        <ele>1055.066</ele>
        <time>2022-08-24T10:55:49Z</time>
      </trkpt>
      <trkpt lat="43.02067199999968" lon="-1.3206539999999976">
        <ele>1054.422</ele>
        <time>2022-08-24T10:55:51Z</time>
      </trkpt>
      <trkpt lat="43.020638999999676" lon="-1.3207109999999975">
        <ele>1054.274</ele>
        <time>2022-08-24T10:55:52Z</time>
      </trkpt>
      <trkpt lat="43.02061299999968" lon="-1.3207679999999975">
        <ele>1054.041</ele>
        <time>2022-08-24T10:55:53Z</time>
      </trkpt>
      <trkpt lat="43.02058699999968" lon="-1.3208229999999974">
        <ele>1053.844</ele>
        <time>2022-08-24T10:55:54Z</time>
      </trkpt>
      <trkpt lat="43.020500999999676" lon="-1.3210169999999974">
        <ele>1053.278</ele>
        <time>2022-08-24T10:55:57Z</time>
      </trkpt>
      <trkpt lat="43.02046599999968" lon="-1.3210769999999974">
        <ele>1052.697</ele>
        <time>2022-08-24T10:55:58Z</time>
      </trkpt>
      <trkpt lat="43.02043499999968" lon="-1.3211289999999973">
        <ele>1051.838</ele>
        <time>2022-08-24T10:55:59Z</time>
      </trkpt>
      <trkpt lat="43.02040099999968" lon="-1.3211759999999972">
        <ele>1051.670</ele>
        <time>2022-08-24T10:56:00Z</time>
      </trkpt>
      <trkpt lat="43.02036899999968" lon="-1.3212209999999973">
        <ele>1051.217</ele>
        <time>2022-08-24T10:56:01Z</time>
      </trkpt>
      <trkpt lat="43.02033899999968" lon="-1.3212669999999973">
        <ele>1051.009</ele>
        <time>2022-08-24T10:56:02Z</time>
      </trkpt>
      <trkpt lat="43.02031299999968" lon="-1.3213169999999974">
        <ele>1050.644</ele>
        <time>2022-08-24T10:56:03Z</time>
      </trkpt>
      <trkpt lat="43.02028899999968" lon="-1.3213619999999975">
        <ele>1050.454</ele>
        <time>2022-08-24T10:56:04Z</time>
      </trkpt>
      <trkpt lat="43.02026599999968" lon="-1.3214019999999975">
        <ele>1049.444</ele>
        <time>2022-08-24T10:56:05Z</time>
      </trkpt>
      <trkpt lat="43.02024699999968" lon="-1.3214379999999974">
        <ele>1048.440</ele>
        <time>2022-08-24T10:56:06Z</time>
      </trkpt>
      <trkpt lat="43.02022999999968" lon="-1.3214789999999974">
        <ele>1048.272</ele>
        <time>2022-08-24T10:56:07Z</time>
      </trkpt>
      <trkpt lat="43.02021799999968" lon="-1.3215189999999974">
        <ele>1047.619</ele>
        <time>2022-08-24T10:56:08Z</time>
      </trkpt>
      <trkpt lat="43.02021199999968" lon="-1.3215519999999974">
        <ele>1047.422</ele>
        <time>2022-08-24T10:56:09Z</time>
      </trkpt>
      <trkpt lat="43.020207999999684" lon="-1.3215919999999974">
        <ele>1047.076</ele>
        <time>2022-08-24T10:56:10Z</time>
      </trkpt>
      <trkpt lat="43.020204999999685" lon="-1.3216389999999973">
        <ele>1046.865</ele>
        <time>2022-08-24T10:56:11Z</time>
      </trkpt>
      <trkpt lat="43.02020699999969" lon="-1.3216869999999974">
        <ele>1046.442</ele>
        <time>2022-08-24T10:56:12Z</time>
      </trkpt>
      <trkpt lat="43.020212999999686" lon="-1.3217869999999974">
        <ele>1045.822</ele>
        <time>2022-08-24T10:56:14Z</time>
      </trkpt>
      <trkpt lat="43.02021499999969" lon="-1.3218389999999973">
        <ele>1045.214</ele>
        <time>2022-08-24T10:56:15Z</time>
      </trkpt>
      <trkpt lat="43.02021799999969" lon="-1.3218839999999974">
        <ele>1044.809</ele>
        <time>2022-08-24T10:56:16Z</time>
      </trkpt>
      <trkpt lat="43.02021999999969" lon="-1.3219279999999973">
        <ele>1043.815</ele>
        <time>2022-08-24T10:56:17Z</time>
      </trkpt>
      <trkpt lat="43.02021999999969" lon="-1.3219729999999974">
        <ele>1043.025</ele>
        <time>2022-08-24T10:56:18Z</time>
      </trkpt>
      <trkpt lat="43.02022199999969" lon="-1.3220539999999974">
        <ele>1041.835</ele>
        <time>2022-08-24T10:56:20Z</time>
      </trkpt>
      <trkpt lat="43.02022599999969" lon="-1.3220849999999973">
        <ele>1041.661</ele>
        <time>2022-08-24T10:56:21Z</time>
      </trkpt>
      <trkpt lat="43.02023399999969" lon="-1.3221119999999973">
        <ele>1040.883</ele>
        <time>2022-08-24T10:56:22Z</time>
      </trkpt>
      <trkpt lat="43.02024499999969" lon="-1.3221399999999972">
        <ele>1040.660</ele>
        <time>2022-08-24T10:56:23Z</time>
      </trkpt>
      <trkpt lat="43.02025099999969" lon="-1.3221749999999972">
        <ele>1040.473</ele>
        <time>2022-08-24T10:56:24Z</time>
      </trkpt>
      <trkpt lat="43.02028899999969" lon="-1.3222919999999971">
        <ele>1040.047</ele>
        <time>2022-08-24T10:56:27Z</time>
      </trkpt>
      <trkpt lat="43.02031499999969" lon="-1.3223829999999972">
        <ele>1039.846</ele>
        <time>2022-08-24T10:56:29Z</time>
      </trkpt>
      <trkpt lat="43.02033399999969" lon="-1.3224809999999971">
        <ele>1039.283</ele>
        <time>2022-08-24T10:56:31Z</time>
      </trkpt>
      <trkpt lat="43.020338999999694" lon="-1.3225309999999972">
        <ele>1038.625</ele>
        <time>2022-08-24T10:56:32Z</time>
      </trkpt>
      <trkpt lat="43.020335999999695" lon="-1.3225799999999972">
        <ele>1038.617</ele>
        <time>2022-08-24T10:56:33Z</time>
      </trkpt>
      <trkpt lat="43.0203099999997" lon="-1.3227419999999972">
        <ele>1037.409</ele>
        <time>2022-08-24T10:56:36Z</time>
      </trkpt>
      <trkpt lat="43.020265999999694" lon="-1.3229449999999972">
        <ele>1036.629</ele>
        <time>2022-08-24T10:56:39Z</time>
      </trkpt>
      <trkpt lat="43.0202479999997" lon="-1.3230169999999972">
        <ele>1036.479</ele>
        <time>2022-08-24T10:56:40Z</time>
      </trkpt>
      <trkpt lat="43.0202139999997" lon="-1.3231579999999972">
        <ele>1035.889</ele>
        <time>2022-08-24T10:56:42Z</time>
      </trkpt>
      <trkpt lat="43.0201999999997" lon="-1.3232219999999972">
        <ele>1035.065</ele>
        <time>2022-08-24T10:56:43Z</time>
      </trkpt>
      <trkpt lat="43.0201929999997" lon="-1.3232899999999972">
        <ele>1034.857</ele>
        <time>2022-08-24T10:56:44Z</time>
      </trkpt>
      <trkpt lat="43.0201929999997" lon="-1.323363999999997">
        <ele>1034.444</ele>
        <time>2022-08-24T10:56:45Z</time>
      </trkpt>
      <trkpt lat="43.0201949999997" lon="-1.323436999999997">
        <ele>1033.847</ele>
        <time>2022-08-24T10:56:46Z</time>
      </trkpt>
      <trkpt lat="43.020196999999705" lon="-1.323507999999997">
        <ele>1033.661</ele>
        <time>2022-08-24T10:56:47Z</time>
      </trkpt>
      <trkpt lat="43.02019299999971" lon="-1.323661999999997">
        <ele>1032.850</ele>
        <time>2022-08-24T10:56:49Z</time>
      </trkpt>
      <trkpt lat="43.02018099999971" lon="-1.323742999999997">
        <ele>1032.016</ele>
        <time>2022-08-24T10:56:50Z</time>
      </trkpt>
      <trkpt lat="43.02016199999971" lon="-1.323813999999997">
        <ele>1031.476</ele>
        <time>2022-08-24T10:56:51Z</time>
      </trkpt>
      <trkpt lat="43.020142999999706" lon="-1.323874999999997">
        <ele>1031.213</ele>
        <time>2022-08-24T10:56:52Z</time>
      </trkpt>
      <trkpt lat="43.02012799999971" lon="-1.323925999999997">
        <ele>1030.609</ele>
        <time>2022-08-24T10:56:53Z</time>
      </trkpt>
      <trkpt lat="43.02011999999971" lon="-1.3239679999999971">
        <ele>1030.232</ele>
        <time>2022-08-24T10:56:54Z</time>
      </trkpt>
      <trkpt lat="43.020126999999704" lon="-1.3240019999999972">
        <ele>1030.082</ele>
        <time>2022-08-24T10:56:55Z</time>
      </trkpt>
      <trkpt lat="43.020148999999705" lon="-1.3240259999999973">
        <ele>1029.652</ele>
        <time>2022-08-24T10:56:56Z</time>
      </trkpt>
      <trkpt lat="43.02017899999971" lon="-1.3240399999999972">
        <ele>1029.638</ele>
        <time>2022-08-24T10:56:57Z</time>
      </trkpt>
      <trkpt lat="43.020210999999705" lon="-1.3240509999999972">
        <ele>1029.690</ele>
        <time>2022-08-24T10:56:58Z</time>
      </trkpt>
      <trkpt lat="43.0202399999997" lon="-1.3240659999999973">
        <ele>1029.647</ele>
        <time>2022-08-24T10:56:59Z</time>
      </trkpt>
      <trkpt lat="43.0202709999997" lon="-1.3240769999999973">
        <ele>1029.690</ele>
        <time>2022-08-24T10:57:00Z</time>
      </trkpt>
      <trkpt lat="43.0202999999997" lon="-1.3240939999999972">
        <ele>1029.624</ele>
        <time>2022-08-24T10:57:01Z</time>
      </trkpt>
      <trkpt lat="43.0203249999997" lon="-1.3241109999999972">
        <ele>1029.873</ele>
        <time>2022-08-24T10:57:02Z</time>
      </trkpt>
      <trkpt lat="43.0203479999997" lon="-1.324130999999997">
        <ele>1029.878</ele>
        <time>2022-08-24T10:57:03Z</time>
      </trkpt>
      <trkpt lat="43.0203739999997" lon="-1.324146999999997">
        <ele>1029.833</ele>
        <time>2022-08-24T10:57:04Z</time>
      </trkpt>
      <trkpt lat="43.0203939999997" lon="-1.324160999999997">
        <ele>1030.026</ele>
        <time>2022-08-24T10:57:05Z</time>
      </trkpt>
      <trkpt lat="43.020408999999695" lon="-1.324176999999997">
        <ele>1030.009</ele>
        <time>2022-08-24T10:57:06Z</time>
      </trkpt>
      <trkpt lat="43.020416999999696" lon="-1.3241949999999971">
        <ele>1030.028</ele>
        <time>2022-08-24T10:57:07Z</time>
      </trkpt>
      <trkpt lat="43.0204159999997" lon="-1.3242109999999971">
        <ele>1030.278</ele>
        <time>2022-08-24T10:57:08Z</time>
      </trkpt>
      <trkpt lat="43.0204069999997" lon="-1.3242129999999972">
        <ele>1030.488</ele>
        <time>2022-08-24T10:57:09Z</time>
      </trkpt>
      <trkpt lat="43.0203949999997" lon="-1.3242089999999973">
        <ele>1030.434</ele>
        <time>2022-08-24T10:57:10Z</time>
      </trkpt>
      <trkpt lat="43.020382999999704" lon="-1.3242039999999973">
        <ele>1030.636</ele>
        <time>2022-08-24T10:57:11Z</time>
      </trkpt>
      <trkpt lat="43.02037599999971" lon="-1.3242019999999972">
        <ele>1030.683</ele>
        <time>2022-08-24T10:57:12Z</time>
      </trkpt>
      <trkpt lat="43.02037599999971" lon="-1.3241999999999972">
        <ele>1030.846</ele>
        <time>2022-08-24T10:57:36Z</time>
      </trkpt>
      <trkpt lat="43.020376999999705" lon="-1.3241939999999972">
        <ele>1030.840</ele>
        <time>2022-08-24T10:57:37Z</time>
      </trkpt>
      <trkpt lat="43.020373999999705" lon="-1.3241769999999973">
        <ele>1030.629</ele>
        <time>2022-08-24T10:57:59Z</time>
      </trkpt>
      <trkpt lat="43.0203499999997" lon="-1.3241539999999972">
        <ele>1030.478</ele>
        <time>2022-08-24T10:58:01Z</time>
      </trkpt>
      <trkpt lat="43.0202809999997" lon="-1.3241189999999972">
        <ele>1030.433</ele>
        <time>2022-08-24T10:58:04Z</time>
      </trkpt>
      <trkpt lat="43.020253999999696" lon="-1.324103999999997">
        <ele>1030.426</ele>
        <time>2022-08-24T10:58:05Z</time>
      </trkpt>
      <trkpt lat="43.02022699999969" lon="-1.324085999999997">
        <ele>1030.409</ele>
        <time>2022-08-24T10:58:06Z</time>
      </trkpt>
      <trkpt lat="43.02010299999969" lon="-1.324002999999997">
        <ele>1030.438</ele>
        <time>2022-08-24T10:58:10Z</time>
      </trkpt>
      <trkpt lat="43.020017999999695" lon="-1.323971999999997">
        <ele>1030.288</ele>
        <time>2022-08-24T10:58:12Z</time>
      </trkpt>
      <trkpt lat="43.01992899999969" lon="-1.3239599999999971">
        <ele>1029.838</ele>
        <time>2022-08-24T10:58:14Z</time>
      </trkpt>
      <trkpt lat="43.01989099999969" lon="-1.3239619999999972">
        <ele>1029.634</ele>
        <time>2022-08-24T10:58:15Z</time>
      </trkpt>
      <trkpt lat="43.01986499999969" lon="-1.3239639999999973">
        <ele>1029.256</ele>
        <time>2022-08-24T10:58:16Z</time>
      </trkpt>
      <trkpt lat="43.01984899999969" lon="-1.3239649999999972">
        <ele>1028.883</ele>
        <time>2022-08-24T10:58:17Z</time>
      </trkpt>
      <trkpt lat="43.01983799999969" lon="-1.3239639999999973">
        <ele>1028.696</ele>
        <time>2022-08-24T10:58:18Z</time>
      </trkpt>
      <trkpt lat="43.019824999999685" lon="-1.3239659999999973">
        <ele>1028.430</ele>
        <time>2022-08-24T10:58:19Z</time>
      </trkpt>
      <trkpt lat="43.019753999999686" lon="-1.3239809999999974">
        <ele>1028.239</ele>
        <time>2022-08-24T10:58:22Z</time>
      </trkpt>
      <trkpt lat="43.019675999999684" lon="-1.3239709999999973">
        <ele>1028.074</ele>
        <time>2022-08-24T10:58:24Z</time>
      </trkpt>
      <trkpt lat="43.019632999999686" lon="-1.3239479999999972">
        <ele>1028.056</ele>
        <time>2022-08-24T10:58:25Z</time>
      </trkpt>
      <trkpt lat="43.01958999999969" lon="-1.3239189999999972">
        <ele>1027.821</ele>
        <time>2022-08-24T10:58:26Z</time>
      </trkpt>
      <trkpt lat="43.01954699999969" lon="-1.3238819999999971">
        <ele>1027.809</ele>
        <time>2022-08-24T10:58:27Z</time>
      </trkpt>
      <trkpt lat="43.01949799999969" lon="-1.323849999999997">
        <ele>1027.688</ele>
        <time>2022-08-24T10:58:28Z</time>
      </trkpt>
      <trkpt lat="43.019448999999696" lon="-1.3238189999999972">
        <ele>1027.688</ele>
        <time>2022-08-24T10:58:29Z</time>
      </trkpt>
      <trkpt lat="43.0194029999997" lon="-1.3237919999999972">
        <ele>1027.278</ele>
        <time>2022-08-24T10:58:30Z</time>
      </trkpt>
      <trkpt lat="43.0193639999997" lon="-1.3237659999999971">
        <ele>1026.834</ele>
        <time>2022-08-24T10:58:31Z</time>
      </trkpt>
      <trkpt lat="43.0193269999997" lon="-1.3237409999999972">
        <ele>1026.616</ele>
        <time>2022-08-24T10:58:32Z</time>
      </trkpt>
      <trkpt lat="43.0192869999997" lon="-1.3237209999999973">
        <ele>1026.233</ele>
        <time>2022-08-24T10:58:33Z</time>
      </trkpt>
      <trkpt lat="43.0191609999997" lon="-1.3236769999999973">
        <ele>1025.266</ele>
        <time>2022-08-24T10:58:36Z</time>
      </trkpt>
      <trkpt lat="43.0191179999997" lon="-1.3236609999999973">
        <ele>1025.250</ele>
        <time>2022-08-24T10:58:37Z</time>
      </trkpt>
      <trkpt lat="43.0190769999997" lon="-1.3236459999999972">
        <ele>1024.869</ele>
        <time>2022-08-24T10:58:38Z</time>
      </trkpt>
      <trkpt lat="43.0190369999997" lon="-1.3236329999999972">
        <ele>1024.677</ele>
        <time>2022-08-24T10:58:39Z</time>
      </trkpt>
      <trkpt lat="43.0189999999997" lon="-1.3236219999999972">
        <ele>1024.261</ele>
        <time>2022-08-24T10:58:40Z</time>
      </trkpt>
      <trkpt lat="43.018961999999696" lon="-1.3236109999999972">
        <ele>1024.027</ele>
        <time>2022-08-24T10:58:41Z</time>
      </trkpt>
      <trkpt lat="43.0188789999997" lon="-1.3235859999999973">
        <ele>1023.009</ele>
        <time>2022-08-24T10:58:43Z</time>
      </trkpt>
      <trkpt lat="43.0188349999997" lon="-1.3235759999999972">
        <ele>1023.038</ele>
        <time>2022-08-24T10:58:44Z</time>
      </trkpt>
      <trkpt lat="43.018700999999695" lon="-1.3235489999999972">
        <ele>1021.818</ele>
        <time>2022-08-24T10:58:47Z</time>
      </trkpt>
      <trkpt lat="43.01865399999969" lon="-1.3235379999999972">
        <ele>1021.648</ele>
        <time>2022-08-24T10:58:48Z</time>
      </trkpt>
      <trkpt lat="43.01844699999969" lon="-1.3234939999999973">
        <ele>1020.464</ele>
        <time>2022-08-24T10:58:52Z</time>
      </trkpt>
      <trkpt lat="43.01833599999969" lon="-1.3234729999999972">
        <ele>1019.446</ele>
        <time>2022-08-24T10:58:54Z</time>
      </trkpt>
      <trkpt lat="43.01827499999969" lon="-1.3234619999999973">
        <ele>1019.023</ele>
        <time>2022-08-24T10:58:55Z</time>
      </trkpt>
      <trkpt lat="43.01800199999969" lon="-1.3234129999999973">
        <ele>1018.046</ele>
        <time>2022-08-24T10:58:59Z</time>
      </trkpt>
      <trkpt lat="43.01793699999969" lon="-1.3233979999999972">
        <ele>1017.660</ele>
        <time>2022-08-24T10:59:00Z</time>
      </trkpt>
      <trkpt lat="43.01787499999969" lon="-1.3233809999999973">
        <ele>1017.059</ele>
        <time>2022-08-24T10:59:01Z</time>
      </trkpt>
      <trkpt lat="43.017811999999694" lon="-1.3233719999999973">
        <ele>1016.424</ele>
        <time>2022-08-24T10:59:02Z</time>
      </trkpt>
      <trkpt lat="43.0176839999997" lon="-1.3233399999999973">
        <ele>1015.404</ele>
        <time>2022-08-24T10:59:04Z</time>
      </trkpt>
      <trkpt lat="43.017622999999695" lon="-1.3233199999999974">
        <ele>1015.014</ele>
        <time>2022-08-24T10:59:05Z</time>
      </trkpt>
      <trkpt lat="43.01743499999969" lon="-1.3232589999999973">
        <ele>1013.809</ele>
        <time>2022-08-24T10:59:08Z</time>
      </trkpt>
      <trkpt lat="43.01722799999969" lon="-1.3231609999999974">
        <ele>1012.433</ele>
        <time>2022-08-24T10:59:11Z</time>
      </trkpt>
      <trkpt lat="43.01708799999969" lon="-1.3230769999999974">
        <ele>1011.613</ele>
        <time>2022-08-24T10:59:13Z</time>
      </trkpt>
      <trkpt lat="43.017018999999685" lon="-1.3230329999999975">
        <ele>1011.273</ele>
        <time>2022-08-24T10:59:14Z</time>
      </trkpt>
      <trkpt lat="43.01685099999968" lon="-1.3229379999999975">
        <ele>1010.449</ele>
        <time>2022-08-24T10:59:16Z</time>
      </trkpt>
      <trkpt lat="43.01671599999968" lon="-1.3228069999999974">
        <ele>1009.621</ele>
        <time>2022-08-24T10:59:18Z</time>
      </trkpt>
      <trkpt lat="43.01662599999968" lon="-1.3226519999999975">
        <ele>1008.638</ele>
        <time>2022-08-24T10:59:20Z</time>
      </trkpt>
      <trkpt lat="43.016571999999684" lon="-1.3225419999999974">
        <ele>1008.071</ele>
        <time>2022-08-24T10:59:21Z</time>
      </trkpt>
      <trkpt lat="43.016542999999686" lon="-1.3224629999999975">
        <ele>1007.865</ele>
        <time>2022-08-24T10:59:22Z</time>
      </trkpt>
      <trkpt lat="43.01649999999969" lon="-1.3223669999999974">
        <ele>1006.874</ele>
        <time>2022-08-24T10:59:23Z</time>
      </trkpt>
      <trkpt lat="43.016427999999685" lon="-1.3221589999999974">
        <ele>1006.242</ele>
        <time>2022-08-24T10:59:25Z</time>
      </trkpt>
      <trkpt lat="43.01640199999969" lon="-1.3220489999999974">
        <ele>1005.222</ele>
        <time>2022-08-24T10:59:26Z</time>
      </trkpt>
      <trkpt lat="43.01633299999968" lon="-1.3216959999999973">
        <ele>1004.014</ele>
        <time>2022-08-24T10:59:29Z</time>
      </trkpt>
      <trkpt lat="43.016286999999686" lon="-1.3215519999999974">
        <ele>1003.409</ele>
        <time>2022-08-24T10:59:30Z</time>
      </trkpt>
      <trkpt lat="43.016250999999684" lon="-1.3214569999999974">
        <ele>1003.075</ele>
        <time>2022-08-24T10:59:31Z</time>
      </trkpt>
      <trkpt lat="43.01613599999968" lon="-1.3212319999999975">
        <ele>1001.255</ele>
        <time>2022-08-24T10:59:33Z</time>
      </trkpt>
      <trkpt lat="43.01599799999968" lon="-1.3210289999999976">
        <ele>999.825</ele>
        <time>2022-08-24T10:59:35Z</time>
      </trkpt>
      <trkpt lat="43.01592599999968" lon="-1.3209399999999976">
        <ele>999.471</ele>
        <time>2022-08-24T10:59:36Z</time>
      </trkpt>
      <trkpt lat="43.01584699999968" lon="-1.3208339999999976">
        <ele>998.233</ele>
        <time>2022-08-24T10:59:37Z</time>
      </trkpt>
      <trkpt lat="43.01579699999968" lon="-1.3207669999999976">
        <ele>998.080</ele>
        <time>2022-08-24T10:59:38Z</time>
      </trkpt>
      <trkpt lat="43.01573899999968" lon="-1.3206839999999975">
        <ele>997.613</ele>
        <time>2022-08-24T10:59:39Z</time>
      </trkpt>
      <trkpt lat="43.01567899999968" lon="-1.3206079999999976">
        <ele>996.087</ele>
        <time>2022-08-24T10:59:40Z</time>
      </trkpt>
      <trkpt lat="43.01562299999968" lon="-1.3205389999999975">
        <ele>995.276</ele>
        <time>2022-08-24T10:59:41Z</time>
      </trkpt>
      <trkpt lat="43.01556699999968" lon="-1.3204779999999974">
        <ele>994.023</ele>
        <time>2022-08-24T10:59:42Z</time>
      </trkpt>
      <trkpt lat="43.01552099999968" lon="-1.3204149999999975">
        <ele>993.283</ele>
        <time>2022-08-24T10:59:43Z</time>
      </trkpt>
      <trkpt lat="43.01547299999968" lon="-1.3203559999999974">
        <ele>992.211</ele>
        <time>2022-08-24T10:59:44Z</time>
      </trkpt>
      <trkpt lat="43.01541799999968" lon="-1.3202939999999974">
        <ele>991.409</ele>
        <time>2022-08-24T10:59:45Z</time>
      </trkpt>
      <trkpt lat="43.015362999999674" lon="-1.3202259999999975">
        <ele>991.043</ele>
        <time>2022-08-24T10:59:46Z</time>
      </trkpt>
      <trkpt lat="43.015235999999675" lon="-1.3200839999999974">
        <ele>989.623</ele>
        <time>2022-08-24T10:59:48Z</time>
      </trkpt>
      <trkpt lat="43.01511299999967" lon="-1.3199399999999974">
        <ele>988.453</ele>
        <time>2022-08-24T10:59:50Z</time>
      </trkpt>
      <trkpt lat="43.01497599999967" lon="-1.3197769999999975">
        <ele>987.229</ele>
        <time>2022-08-24T10:59:52Z</time>
      </trkpt>
      <trkpt lat="43.014757999999674" lon="-1.3195599999999976">
        <ele>985.881</ele>
        <time>2022-08-24T10:59:55Z</time>
      </trkpt>
      <trkpt lat="43.01467999999967" lon="-1.3194879999999976">
        <ele>984.628</ele>
        <time>2022-08-24T10:59:56Z</time>
      </trkpt>
      <trkpt lat="43.01453099999967" lon="-1.3193769999999976">
        <ele>983.431</ele>
        <time>2022-08-24T10:59:58Z</time>
      </trkpt>
      <trkpt lat="43.014346999999674" lon="-1.3192969999999975">
        <ele>982.275</ele>
        <time>2022-08-24T11:00:00Z</time>
      </trkpt>
      <trkpt lat="43.01415399999967" lon="-1.3192629999999974">
        <ele>981.064</ele>
        <time>2022-08-24T11:00:02Z</time>
      </trkpt>
      <trkpt lat="43.01405499999967" lon="-1.3192499999999974">
        <ele>980.436</ele>
        <time>2022-08-24T11:00:03Z</time>
      </trkpt>
      <trkpt lat="43.013839999999675" lon="-1.3192519999999974">
        <ele>979.617</ele>
        <time>2022-08-24T11:00:05Z</time>
      </trkpt>
      <trkpt lat="43.01366199999968" lon="-1.3192709999999974">
        <ele>978.618</ele>
        <time>2022-08-24T11:00:07Z</time>
      </trkpt>
      <trkpt lat="43.013560999999676" lon="-1.3192789999999974">
        <ele>977.409</ele>
        <time>2022-08-24T11:00:08Z</time>
      </trkpt>
      <trkpt lat="43.01333199999968" lon="-1.3193139999999974">
        <ele>975.864</ele>
        <time>2022-08-24T11:00:10Z</time>
      </trkpt>
      <trkpt lat="43.01322799999968" lon="-1.3193369999999975">
        <ele>974.614</ele>
        <time>2022-08-24T11:00:11Z</time>
      </trkpt>
      <trkpt lat="43.013037999999675" lon="-1.3193819999999976">
        <ele>972.864</ele>
        <time>2022-08-24T11:00:13Z</time>
      </trkpt>
      <trkpt lat="43.012826999999675" lon="-1.3194349999999977">
        <ele>971.220</ele>
        <time>2022-08-24T11:00:15Z</time>
      </trkpt>
      <trkpt lat="43.012612999999675" lon="-1.3194889999999977">
        <ele>970.062</ele>
        <time>2022-08-24T11:00:17Z</time>
      </trkpt>
      <trkpt lat="43.01251099999968" lon="-1.3195219999999976">
        <ele>968.849</ele>
        <time>2022-08-24T11:00:18Z</time>
      </trkpt>
      <trkpt lat="43.01231399999968" lon="-1.3196019999999977">
        <ele>967.472</ele>
        <time>2022-08-24T11:00:20Z</time>
      </trkpt>
      <trkpt lat="43.012218999999675" lon="-1.3196499999999978">
        <ele>967.076</ele>
        <time>2022-08-24T11:00:21Z</time>
      </trkpt>
      <trkpt lat="43.01212799999968" lon="-1.3196969999999977">
        <ele>965.895</ele>
        <time>2022-08-24T11:00:22Z</time>
      </trkpt>
      <trkpt lat="43.01203699999968" lon="-1.3197339999999977">
        <ele>965.087</ele>
        <time>2022-08-24T11:00:23Z</time>
      </trkpt>
      <trkpt lat="43.01194399999968" lon="-1.3197529999999977">
        <ele>964.642</ele>
        <time>2022-08-24T11:00:24Z</time>
      </trkpt>
      <trkpt lat="43.01184799999968" lon="-1.3197529999999977">
        <ele>963.826</ele>
        <time>2022-08-24T11:00:25Z</time>
      </trkpt>
      <trkpt lat="43.01173199999968" lon="-1.3197369999999977">
        <ele>963.209</ele>
        <time>2022-08-24T11:00:26Z</time>
      </trkpt>
      <trkpt lat="43.01165399999968" lon="-1.3197219999999976">
        <ele>962.849</ele>
        <time>2022-08-24T11:00:27Z</time>
      </trkpt>
      <trkpt lat="43.01155999999968" lon="-1.3196939999999977">
        <ele>961.869</ele>
        <time>2022-08-24T11:00:28Z</time>
      </trkpt>
      <trkpt lat="43.01136699999968" lon="-1.3196659999999978">
        <ele>960.459</ele>
        <time>2022-08-24T11:00:30Z</time>
      </trkpt>
      <trkpt lat="43.01125399999968" lon="-1.3196499999999978">
        <ele>960.295</ele>
        <time>2022-08-24T11:00:31Z</time>
      </trkpt>
      <trkpt lat="43.01118099999968" lon="-1.3196439999999978">
        <ele>959.427</ele>
        <time>2022-08-24T11:00:32Z</time>
      </trkpt>
      <trkpt lat="43.01108999999968" lon="-1.3196409999999978">
        <ele>959.284</ele>
        <time>2022-08-24T11:00:33Z</time>
      </trkpt>
      <trkpt lat="43.011001999999685" lon="-1.3196549999999978">
        <ele>958.667</ele>
        <time>2022-08-24T11:00:34Z</time>
      </trkpt>
      <trkpt lat="43.01089699999969" lon="-1.3196829999999977">
        <ele>958.081</ele>
        <time>2022-08-24T11:00:35Z</time>
      </trkpt>
      <trkpt lat="43.01081399999969" lon="-1.3197229999999978">
        <ele>957.270</ele>
        <time>2022-08-24T11:00:36Z</time>
      </trkpt>
      <trkpt lat="43.01074999999969" lon="-1.3197669999999977">
        <ele>956.087</ele>
        <time>2022-08-24T11:00:37Z</time>
      </trkpt>
      <trkpt lat="43.01067099999969" lon="-1.3198189999999976">
        <ele>955.642</ele>
        <time>2022-08-24T11:00:38Z</time>
      </trkpt>
      <trkpt lat="43.010570999999686" lon="-1.3198769999999975">
        <ele>954.226</ele>
        <time>2022-08-24T11:00:39Z</time>
      </trkpt>
      <trkpt lat="43.01049099999969" lon="-1.3199389999999975">
        <ele>953.809</ele>
        <time>2022-08-24T11:00:40Z</time>
      </trkpt>
      <trkpt lat="43.01043099999969" lon="-1.3199899999999976">
        <ele>952.879</ele>
        <time>2022-08-24T11:00:41Z</time>
      </trkpt>
      <trkpt lat="43.01035999999969" lon="-1.3200639999999975">
        <ele>952.039</ele>
        <time>2022-08-24T11:00:42Z</time>
      </trkpt>
      <trkpt lat="43.01029599999969" lon="-1.3201759999999974">
        <ele>951.689</ele>
        <time>2022-08-24T11:00:43Z</time>
      </trkpt>
      <trkpt lat="43.01025899999969" lon="-1.3202879999999972">
        <ele>950.685</ele>
        <time>2022-08-24T11:00:44Z</time>
      </trkpt>
      <trkpt lat="43.01022899999969" lon="-1.3204079999999971">
        <ele>950.287</ele>
        <time>2022-08-24T11:00:45Z</time>
      </trkpt>
      <trkpt lat="43.01021199999969" lon="-1.3205149999999972">
        <ele>949.064</ele>
        <time>2022-08-24T11:00:46Z</time>
      </trkpt>
      <trkpt lat="43.01018599999969" lon="-1.3206399999999971">
        <ele>948.077</ele>
        <time>2022-08-24T11:00:47Z</time>
      </trkpt>
      <trkpt lat="43.01013599999969" lon="-1.320778999999997">
        <ele>947.651</ele>
        <time>2022-08-24T11:00:48Z</time>
      </trkpt>
      <trkpt lat="43.01008299999969" lon="-1.320878999999997">
        <ele>946.850</ele>
        <time>2022-08-24T11:00:49Z</time>
      </trkpt>
      <trkpt lat="43.01001599999969" lon="-1.320958999999997">
        <ele>946.418</ele>
        <time>2022-08-24T11:00:50Z</time>
      </trkpt>
      <trkpt lat="43.00996199999969" lon="-1.321018999999997">
        <ele>945.898</ele>
        <time>2022-08-24T11:00:51Z</time>
      </trkpt>
      <trkpt lat="43.00988199999969" lon="-1.3210749999999971">
        <ele>945.617</ele>
        <time>2022-08-24T11:00:52Z</time>
      </trkpt>
      <trkpt lat="43.009787999999695" lon="-1.3211179999999971">
        <ele>945.209</ele>
        <time>2022-08-24T11:00:53Z</time>
      </trkpt>
      <trkpt lat="43.009711999999695" lon="-1.321158999999997">
        <ele>945.032</ele>
        <time>2022-08-24T11:00:54Z</time>
      </trkpt>
      <trkpt lat="43.009649999999695" lon="-1.3212229999999971">
        <ele>945.082</ele>
        <time>2022-08-24T11:00:55Z</time>
      </trkpt>
      <trkpt lat="43.0096069999997" lon="-1.3212899999999972">
        <ele>944.852</ele>
        <time>2022-08-24T11:00:56Z</time>
      </trkpt>
      <trkpt lat="43.0095669999997" lon="-1.3213789999999972">
        <ele>944.828</ele>
        <time>2022-08-24T11:00:57Z</time>
      </trkpt>
      <trkpt lat="43.0095379999997" lon="-1.3214769999999971">
        <ele>944.650</ele>
        <time>2022-08-24T11:00:58Z</time>
      </trkpt>
      <trkpt lat="43.009516999999704" lon="-1.3215789999999972">
        <ele>944.467</ele>
        <time>2022-08-24T11:00:59Z</time>
      </trkpt>
      <trkpt lat="43.00951299999971" lon="-1.3216829999999973">
        <ele>944.490</ele>
        <time>2022-08-24T11:01:00Z</time>
      </trkpt>
      <trkpt lat="43.009527999999705" lon="-1.3217819999999973">
        <ele>943.854</ele>
        <time>2022-08-24T11:01:01Z</time>
      </trkpt>
      <trkpt lat="43.0095539999997" lon="-1.3218819999999973">
        <ele>943.833</ele>
        <time>2022-08-24T11:01:02Z</time>
      </trkpt>
      <trkpt lat="43.009583999999705" lon="-1.3219769999999973">
        <ele>943.065</ele>
        <time>2022-08-24T11:01:03Z</time>
      </trkpt>
      <trkpt lat="43.0096129999997" lon="-1.3220699999999972">
        <ele>942.868</ele>
        <time>2022-08-24T11:01:04Z</time>
      </trkpt>
      <trkpt lat="43.0096219999997" lon="-1.3221589999999972">
        <ele>942.414</ele>
        <time>2022-08-24T11:01:05Z</time>
      </trkpt>
      <trkpt lat="43.0096139999997" lon="-1.3222259999999972">
        <ele>941.809</ele>
        <time>2022-08-24T11:01:06Z</time>
      </trkpt>
      <trkpt lat="43.0095829999997" lon="-1.3222649999999971">
        <ele>941.817</ele>
        <time>2022-08-24T11:01:07Z</time>
      </trkpt>
      <trkpt lat="43.0095379999997" lon="-1.3222639999999972">
        <ele>941.467</ele>
        <time>2022-08-24T11:01:08Z</time>
      </trkpt>
      <trkpt lat="43.0094679999997" lon="-1.3221749999999972">
        <ele>941.067</ele>
        <time>2022-08-24T11:01:10Z</time>
      </trkpt>
      <trkpt lat="43.0094389999997" lon="-1.3220969999999972">
        <ele>941.023</ele>
        <time>2022-08-24T11:01:11Z</time>
      </trkpt>
      <trkpt lat="43.009375999999705" lon="-1.3219259999999973">
        <ele>940.485</ele>
        <time>2022-08-24T11:01:13Z</time>
      </trkpt>
      <trkpt lat="43.0093429999997" lon="-1.3218379999999972">
        <ele>940.242</ele>
        <time>2022-08-24T11:01:14Z</time>
      </trkpt>
      <trkpt lat="43.0093149999997" lon="-1.3217459999999972">
        <ele>940.085</ele>
        <time>2022-08-24T11:01:15Z</time>
      </trkpt>
      <trkpt lat="43.0092809999997" lon="-1.3216529999999973">
        <ele>939.879</ele>
        <time>2022-08-24T11:01:16Z</time>
      </trkpt>
      <trkpt lat="43.0092249999997" lon="-1.3214539999999972">
        <ele>939.288</ele>
        <time>2022-08-24T11:01:18Z</time>
      </trkpt>
      <trkpt lat="43.009209999999705" lon="-1.3213539999999973">
        <ele>939.079</ele>
        <time>2022-08-24T11:01:19Z</time>
      </trkpt>
      <trkpt lat="43.00920299999971" lon="-1.3212599999999972">
        <ele>938.605</ele>
        <time>2022-08-24T11:01:20Z</time>
      </trkpt>
      <trkpt lat="43.009200999999706" lon="-1.3211709999999972">
        <ele>938.425</ele>
        <time>2022-08-24T11:01:21Z</time>
      </trkpt>
      <trkpt lat="43.009200999999706" lon="-1.3210899999999972">
        <ele>938.009</ele>
        <time>2022-08-24T11:01:22Z</time>
      </trkpt>
      <trkpt lat="43.009206999999705" lon="-1.3210139999999972">
        <ele>937.868</ele>
        <time>2022-08-24T11:01:23Z</time>
      </trkpt>
      <trkpt lat="43.009212999999704" lon="-1.3209459999999973">
        <ele>937.238</ele>
        <time>2022-08-24T11:01:24Z</time>
      </trkpt>
      <trkpt lat="43.009257999999704" lon="-1.3207259999999972">
        <ele>936.228</ele>
        <time>2022-08-24T11:01:27Z</time>
      </trkpt>
      <trkpt lat="43.00926799999971" lon="-1.3206689999999972">
        <ele>936.064</ele>
        <time>2022-08-24T11:01:28Z</time>
      </trkpt>
      <trkpt lat="43.00927599999971" lon="-1.3206239999999971">
        <ele>935.426</ele>
        <time>2022-08-24T11:01:29Z</time>
      </trkpt>
      <trkpt lat="43.009279999999706" lon="-1.320599999999997">
        <ele>935.033</ele>
        <time>2022-08-24T11:01:30Z</time>
      </trkpt>
      <trkpt lat="43.009349999999706" lon="-1.320624999999997">
        <ele>934.876</ele>
        <time>2022-08-24T11:26:15Z</time>
      </trkpt>
      <trkpt lat="43.009335999999706" lon="-1.320613999999997">
        <ele>935.270</ele>
        <time>2022-08-24T11:26:16Z</time>
      </trkpt>
      <trkpt lat="43.009291999999704" lon="-1.320592999999997">
        <ele>936.449</ele>
        <time>2022-08-24T11:27:58Z</time>
      </trkpt>
      <trkpt lat="43.0093209999997" lon="-1.320610999999997">
        <ele>936.688</ele>
        <time>2022-08-24T11:28:00Z</time>
      </trkpt>
      <trkpt lat="43.0093289999997" lon="-1.320605999999997">
        <ele>936.624</ele>
        <time>2022-08-24T11:28:01Z</time>
      </trkpt>
      <trkpt lat="43.009330999999705" lon="-1.3205969999999971">
        <ele>936.626</ele>
        <time>2022-08-24T11:28:02Z</time>
      </trkpt>
      <trkpt lat="43.00934399999971" lon="-1.320613999999997">
        <ele>936.809</ele>
        <time>2022-08-24T12:07:20Z</time>
      </trkpt>
      <trkpt lat="43.009330999999705" lon="-1.320594999999997">
        <ele>936.869</ele>
        <time>2022-08-24T12:07:22Z</time>
      </trkpt>
      <trkpt lat="43.0088759999997" lon="-1.320320999999997">
        <ele>938.079</ele>
        <time>2022-08-24T12:07:41Z</time>
      </trkpt>
      <trkpt lat="43.0088539999997" lon="-1.320311999999997">
        <ele>938.039</ele>
        <time>2022-08-24T12:07:42Z</time>
      </trkpt>
      <trkpt lat="43.0092689999997" lon="-1.320532999999997">
        <ele>937.655</ele>
        <time>2022-08-24T12:08:03Z</time>
      </trkpt>
      <trkpt lat="43.0094739999997" lon="-1.3206159999999971">
        <ele>937.837</ele>
        <time>2022-08-24T12:08:08Z</time>
      </trkpt>
      <trkpt lat="43.0094699999997" lon="-1.3206339999999972">
        <ele>937.864</ele>
        <time>2022-08-24T12:08:09Z</time>
      </trkpt>
      <trkpt lat="43.0088409999997" lon="-1.3203019999999972">
        <ele>937.427</ele>
        <time>2022-08-24T12:08:22Z</time>
      </trkpt>
      <trkpt lat="43.0088829999997" lon="-1.3203109999999971">
        <ele>937.471</ele>
        <time>2022-08-24T12:08:23Z</time>
      </trkpt>
      <trkpt lat="43.0092879999997" lon="-1.320613999999997">
        <ele>937.220</ele>
        <time>2022-08-24T12:08:44Z</time>
      </trkpt>
      <trkpt lat="43.0092919999997" lon="-1.320610999999997">
        <ele>937.251</ele>
        <time>2022-08-24T12:08:45Z</time>
      </trkpt>
      <trkpt lat="43.009632999999695" lon="-1.3199919999999972">
        <ele>935.001</ele>
        <time>2022-08-24T12:28:21Z</time>
      </trkpt>
      <trkpt lat="43.00970999999969" lon="-1.3199779999999972">
        <ele>935.211</ele>
        <time>2022-08-24T12:28:26Z</time>
      </trkpt>
      <trkpt lat="43.00975199999969" lon="-1.3199419999999973">
        <ele>935.209</ele>
        <time>2022-08-24T12:28:29Z</time>
      </trkpt>
      <trkpt lat="43.009779999999694" lon="-1.3199269999999972">
        <ele>935.496</ele>
        <time>2022-08-24T12:28:31Z</time>
      </trkpt>
      <trkpt lat="43.009792999999696" lon="-1.3199189999999972">
        <ele>935.466</ele>
        <time>2022-08-24T12:28:32Z</time>
      </trkpt>
      <trkpt lat="43.009804999999695" lon="-1.3199149999999973">
        <ele>935.476</ele>
        <time>2022-08-24T12:28:33Z</time>
      </trkpt>
      <trkpt lat="43.00980899999969" lon="-1.3199039999999973">
        <ele>935.442</ele>
        <time>2022-08-24T12:28:35Z</time>
      </trkpt>
      <trkpt lat="43.009807999999694" lon="-1.3199019999999972">
        <ele>935.464</ele>
        <time>2022-08-24T12:28:36Z</time>
      </trkpt>
      <trkpt lat="43.009812999999696" lon="-1.3199029999999972">
        <ele>935.481</ele>
        <time>2022-08-24T12:28:37Z</time>
      </trkpt>
      <trkpt lat="43.0098149999997" lon="-1.3199169999999971">
        <ele>935.454</ele>
        <time>2022-08-24T12:28:38Z</time>
      </trkpt>
      <trkpt lat="43.0098249999997" lon="-1.319911999999997">
        <ele>935.428</ele>
        <time>2022-08-24T12:28:39Z</time>
      </trkpt>
      <trkpt lat="43.0098619999997" lon="-1.3198869999999971">
        <ele>935.477</ele>
        <time>2022-08-24T12:28:42Z</time>
      </trkpt>
      <trkpt lat="43.0098669999997" lon="-1.3198819999999971">
        <ele>935.676</ele>
        <time>2022-08-24T12:28:43Z</time>
      </trkpt>
      <trkpt lat="43.0098749999997" lon="-1.3198649999999972">
        <ele>935.890</ele>
        <time>2022-08-24T12:28:44Z</time>
      </trkpt>
      <trkpt lat="43.0098789999997" lon="-1.3198529999999973">
        <ele>935.819</ele>
        <time>2022-08-24T12:28:45Z</time>
      </trkpt>
      <trkpt lat="43.0098729999997" lon="-1.3198439999999974">
        <ele>936.009</ele>
        <time>2022-08-24T12:28:46Z</time>
      </trkpt>
      <trkpt lat="43.0098579999997" lon="-1.3198359999999973">
        <ele>936.228</ele>
        <time>2022-08-24T12:28:47Z</time>
      </trkpt>
      <trkpt lat="43.0098669999997" lon="-1.3197309999999973">
        <ele>936.668</ele>
        <time>2022-08-24T12:28:53Z</time>
      </trkpt>
      <trkpt lat="43.0100099999997" lon="-1.3196389999999973">
        <ele>936.628</ele>
        <time>2022-08-24T12:28:55Z</time>
      </trkpt>
      <trkpt lat="43.010031999999704" lon="-1.3196259999999973">
        <ele>936.214</ele>
        <time>2022-08-24T12:28:56Z</time>
      </trkpt>
      <trkpt lat="43.0100689999997" lon="-1.3195949999999974">
        <ele>936.286</ele>
        <time>2022-08-24T12:28:57Z</time>
      </trkpt>
      <trkpt lat="43.0101029999997" lon="-1.3195679999999974">
        <ele>936.253</ele>
        <time>2022-08-24T12:28:58Z</time>
      </trkpt>
      <trkpt lat="43.010124999999704" lon="-1.3195539999999975">
        <ele>936.296</ele>
        <time>2022-08-24T12:28:59Z</time>
      </trkpt>
      <trkpt lat="43.010163999999705" lon="-1.3195239999999975">
        <ele>936.050</ele>
        <time>2022-08-24T12:29:01Z</time>
      </trkpt>
      <trkpt lat="43.0101819999997" lon="-1.3195049999999975">
        <ele>936.099</ele>
        <time>2022-08-24T12:29:02Z</time>
      </trkpt>
      <trkpt lat="43.0102309999997" lon="-1.3194369999999975">
        <ele>935.297</ele>
        <time>2022-08-24T12:29:06Z</time>
      </trkpt>
      <trkpt lat="43.0102749999997" lon="-1.3193969999999975">
        <ele>935.023</ele>
        <time>2022-08-24T12:29:08Z</time>
      </trkpt>
      <trkpt lat="43.0102939999997" lon="-1.3193879999999976">
        <ele>935.025</ele>
        <time>2022-08-24T12:29:09Z</time>
      </trkpt>
      <trkpt lat="43.0103139999997" lon="-1.3193789999999976">
        <ele>934.609</ele>
        <time>2022-08-24T12:29:10Z</time>
      </trkpt>
      <trkpt lat="43.010329999999705" lon="-1.3193719999999975">
        <ele>934.620</ele>
        <time>2022-08-24T12:29:11Z</time>
      </trkpt>
      <trkpt lat="43.01033999999971" lon="-1.3193619999999975">
        <ele>934.650</ele>
        <time>2022-08-24T12:29:12Z</time>
      </trkpt>
      <trkpt lat="43.01035099999971" lon="-1.3193499999999976">
        <ele>934.630</ele>
        <time>2022-08-24T12:29:13Z</time>
      </trkpt>
      <trkpt lat="43.01035599999971" lon="-1.3193479999999975">
        <ele>934.456</ele>
        <time>2022-08-24T12:29:14Z</time>
      </trkpt>
      <trkpt lat="43.01035499999971" lon="-1.3193539999999975">
        <ele>934.488</ele>
        <time>2022-08-24T12:29:15Z</time>
      </trkpt>
      <trkpt lat="43.010353999999715" lon="-1.3193579999999974">
        <ele>934.455</ele>
        <time>2022-08-24T12:29:16Z</time>
      </trkpt>
      <trkpt lat="43.01035499999971" lon="-1.3193619999999973">
        <ele>934.448</ele>
        <time>2022-08-24T12:29:17Z</time>
      </trkpt>
      <trkpt lat="43.01035599999971" lon="-1.3193689999999973">
        <ele>934.432</ele>
        <time>2022-08-24T12:29:18Z</time>
      </trkpt>
      <trkpt lat="43.01035799999971" lon="-1.3193839999999974">
        <ele>934.461</ele>
        <time>2022-08-24T12:29:19Z</time>
      </trkpt>
      <trkpt lat="43.01036399999971" lon="-1.3193949999999974">
        <ele>934.423</ele>
        <time>2022-08-24T12:29:20Z</time>
      </trkpt>
      <trkpt lat="43.01025099999971" lon="-1.3196379999999974">
        <ele>933.083</ele>
        <time>2022-08-24T12:32:33Z</time>
      </trkpt>
      <trkpt lat="43.010246999999715" lon="-1.3196449999999975">
        <ele>933.211</ele>
        <time>2022-08-24T12:32:34Z</time>
      </trkpt>
      <trkpt lat="43.01023099999971" lon="-1.3196479999999975">
        <ele>933.409</ele>
        <time>2022-08-24T12:32:37Z</time>
      </trkpt>
      <trkpt lat="43.010243999999716" lon="-1.3195149999999976">
        <ele>934.053</ele>
        <time>2022-08-24T12:34:42Z</time>
      </trkpt>
      <trkpt lat="43.01024299999972" lon="-1.3195129999999975">
        <ele>934.023</ele>
        <time>2022-08-24T12:34:43Z</time>
      </trkpt>
      <trkpt lat="43.01026299999972" lon="-1.3193919999999975">
        <ele>934.693</ele>
        <time>2022-08-24T12:35:51Z</time>
      </trkpt>
      <trkpt lat="43.01025199999972" lon="-1.3193909999999975">
        <ele>934.689</ele>
        <time>2022-08-24T12:35:53Z</time>
      </trkpt>
      <trkpt lat="43.01024299999972" lon="-1.3194019999999975">
        <ele>934.651</ele>
        <time>2022-08-24T12:35:54Z</time>
      </trkpt>
      <trkpt lat="43.01022499999972" lon="-1.3194259999999975">
        <ele>934.418</ele>
        <time>2022-08-24T12:35:56Z</time>
      </trkpt>
      <trkpt lat="43.01021699999972" lon="-1.3194339999999976">
        <ele>934.231</ele>
        <time>2022-08-24T12:35:57Z</time>
      </trkpt>
      <trkpt lat="43.01020699999972" lon="-1.3194389999999976">
        <ele>934.235</ele>
        <time>2022-08-24T12:35:58Z</time>
      </trkpt>
      <trkpt lat="43.01019299999972" lon="-1.3194449999999975">
        <ele>934.264</ele>
        <time>2022-08-24T12:35:59Z</time>
      </trkpt>
      <trkpt lat="43.01017499999972" lon="-1.3194699999999975">
        <ele>934.238</ele>
        <time>2022-08-24T12:36:01Z</time>
      </trkpt>
      <trkpt lat="43.01016199999972" lon="-1.3194889999999975">
        <ele>934.470</ele>
        <time>2022-08-24T12:36:03Z</time>
      </trkpt>
      <trkpt lat="43.010156999999715" lon="-1.3194949999999974">
        <ele>934.417</ele>
        <time>2022-08-24T12:36:04Z</time>
      </trkpt>
      <trkpt lat="43.010145999999715" lon="-1.3195149999999973">
        <ele>934.609</ele>
        <time>2022-08-24T12:36:06Z</time>
      </trkpt>
      <trkpt lat="43.010139999999716" lon="-1.3195249999999974">
        <ele>934.624</ele>
        <time>2022-08-24T12:36:07Z</time>
      </trkpt>
      <trkpt lat="43.01012199999972" lon="-1.3195439999999974">
        <ele>934.824</ele>
        <time>2022-08-24T12:36:09Z</time>
      </trkpt>
      <trkpt lat="43.01011399999972" lon="-1.3195509999999975">
        <ele>934.844</ele>
        <time>2022-08-24T12:36:10Z</time>
      </trkpt>
      <trkpt lat="43.010108999999716" lon="-1.3195559999999975">
        <ele>935.070</ele>
        <time>2022-08-24T12:36:11Z</time>
      </trkpt>
      <trkpt lat="43.01009899999971" lon="-1.3195679999999974">
        <ele>935.022</ele>
        <time>2022-08-24T12:36:12Z</time>
      </trkpt>
      <trkpt lat="43.010091999999716" lon="-1.3195779999999975">
        <ele>935.079</ele>
        <time>2022-08-24T12:36:13Z</time>
      </trkpt>
      <trkpt lat="43.01008899999972" lon="-1.3195849999999976">
        <ele>935.082</ele>
        <time>2022-08-24T12:36:14Z</time>
      </trkpt>
      <trkpt lat="43.01008499999972" lon="-1.3195889999999975">
        <ele>935.056</ele>
        <time>2022-08-24T12:36:15Z</time>
      </trkpt>
      <trkpt lat="43.01008599999972" lon="-1.3196219999999974">
        <ele>936.025</ele>
        <time>2022-08-24T12:36:24Z</time>
      </trkpt>
      <trkpt lat="43.01009599999972" lon="-1.3196239999999975">
        <ele>936.023</ele>
        <time>2022-08-24T12:36:25Z</time>
      </trkpt>
      <trkpt lat="43.01011599999972" lon="-1.3196229999999975">
        <ele>936.083</ele>
        <time>2022-08-24T12:36:26Z</time>
      </trkpt>
      <trkpt lat="43.01014399999972" lon="-1.3196339999999975">
        <ele>936.011</ele>
        <time>2022-08-24T12:36:28Z</time>
      </trkpt>
      <trkpt lat="43.01015999999972" lon="-1.3196339999999975">
        <ele>936.009</ele>
        <time>2022-08-24T12:36:29Z</time>
      </trkpt>
      <trkpt lat="43.01017399999972" lon="-1.3196339999999975">
        <ele>936.063</ele>
        <time>2022-08-24T12:36:30Z</time>
      </trkpt>
      <trkpt lat="43.01019099999972" lon="-1.3196329999999976">
        <ele>936.053</ele>
        <time>2022-08-24T12:36:31Z</time>
      </trkpt>
      <trkpt lat="43.01019999999972" lon="-1.3196299999999976">
        <ele>936.223</ele>
        <time>2022-08-24T12:36:32Z</time>
      </trkpt>
      <trkpt lat="43.01021199999972" lon="-1.3196189999999977">
        <ele>936.279</ele>
        <time>2022-08-24T12:36:33Z</time>
      </trkpt>
      <trkpt lat="43.01021999999972" lon="-1.3196059999999976">
        <ele>936.221</ele>
        <time>2022-08-24T12:36:34Z</time>
      </trkpt>
      <trkpt lat="43.01020799999972" lon="-1.3195339999999975">
        <ele>936.238</ele>
        <time>2022-08-24T12:36:38Z</time>
      </trkpt>
      <trkpt lat="43.010200999999725" lon="-1.3195269999999975">
        <ele>936.281</ele>
        <time>2022-08-24T12:36:39Z</time>
      </trkpt>
      <trkpt lat="43.010191999999726" lon="-1.3195269999999975">
        <ele>936.075</ele>
        <time>2022-08-24T12:36:40Z</time>
      </trkpt>
      <trkpt lat="43.01018199999972" lon="-1.3195309999999973">
        <ele>936.074</ele>
        <time>2022-08-24T12:36:41Z</time>
      </trkpt>
      <trkpt lat="43.01017399999972" lon="-1.3195379999999974">
        <ele>936.095</ele>
        <time>2022-08-24T12:36:42Z</time>
      </trkpt>
      <trkpt lat="43.010161999999724" lon="-1.3195489999999974">
        <ele>936.049</ele>
        <time>2022-08-24T12:36:43Z</time>
      </trkpt>
      <trkpt lat="43.01013199999972" lon="-1.3195689999999973">
        <ele>936.023</ele>
        <time>2022-08-24T12:36:46Z</time>
      </trkpt>
      <trkpt lat="43.010124999999725" lon="-1.3195759999999974">
        <ele>936.009</ele>
        <time>2022-08-24T12:36:47Z</time>
      </trkpt>
      <trkpt lat="43.010124999999725" lon="-1.3195799999999973">
        <ele>936.050</ele>
        <time>2022-08-24T12:36:48Z</time>
      </trkpt>
      <trkpt lat="43.01012299999972" lon="-1.3195779999999973">
        <ele>936.090</ele>
        <time>2022-08-24T12:36:49Z</time>
      </trkpt>
      <trkpt lat="43.01010599999972" lon="-1.3195879999999973">
        <ele>936.070</ele>
        <time>2022-08-24T12:36:51Z</time>
      </trkpt>
      <trkpt lat="43.010110999999725" lon="-1.3195879999999973">
        <ele>936.096</ele>
        <time>2022-08-24T12:36:52Z</time>
      </trkpt>
      <trkpt lat="43.01011999999972" lon="-1.3195879999999973">
        <ele>936.278</ele>
        <time>2022-08-24T12:36:53Z</time>
      </trkpt>
      <trkpt lat="43.00989899999972" lon="-1.3196849999999973">
        <ele>937.215</ele>
        <time>2022-08-24T12:37:03Z</time>
      </trkpt>
      <trkpt lat="43.00986199999972" lon="-1.3196769999999973">
        <ele>937.088</ele>
        <time>2022-08-24T12:37:04Z</time>
      </trkpt>
      <trkpt lat="43.00978099999972" lon="-1.3197639999999973">
        <ele>936.892</ele>
        <time>2022-08-24T12:37:09Z</time>
      </trkpt>
      <trkpt lat="43.00974899999972" lon="-1.3198209999999972">
        <ele>936.841</ele>
        <time>2022-08-24T12:37:10Z</time>
      </trkpt>
      <trkpt lat="43.00972099999972" lon="-1.3198649999999972">
        <ele>936.642</ele>
        <time>2022-08-24T12:37:11Z</time>
      </trkpt>
      <trkpt lat="43.00968999999972" lon="-1.3198749999999972">
        <ele>936.422</ele>
        <time>2022-08-24T12:37:12Z</time>
      </trkpt>
      <trkpt lat="43.009668999999725" lon="-1.3198839999999972">
        <ele>936.214</ele>
        <time>2022-08-24T12:37:13Z</time>
      </trkpt>
      <trkpt lat="43.009651999999726" lon="-1.3198969999999972">
        <ele>936.209</ele>
        <time>2022-08-24T12:37:14Z</time>
      </trkpt>
      <trkpt lat="43.009626999999725" lon="-1.3199179999999973">
        <ele>936.245</ele>
        <time>2022-08-24T12:37:15Z</time>
      </trkpt>
      <trkpt lat="43.00961399999972" lon="-1.3199329999999974">
        <ele>936.065</ele>
        <time>2022-08-24T12:37:16Z</time>
      </trkpt>
      <trkpt lat="43.009612999999725" lon="-1.3199509999999974">
        <ele>936.085</ele>
        <time>2022-08-24T12:37:17Z</time>
      </trkpt>
      <trkpt lat="43.00962799999972" lon="-1.3199609999999975">
        <ele>936.031</ele>
        <time>2022-08-24T12:37:18Z</time>
      </trkpt>
      <trkpt lat="43.00964499999972" lon="-1.3199479999999975">
        <ele>935.823</ele>
        <time>2022-08-24T12:37:19Z</time>
      </trkpt>
      <trkpt lat="43.009353999999725" lon="-1.3197719999999975">
        <ele>935.430</ele>
        <time>2022-08-24T12:37:23Z</time>
      </trkpt>
      <trkpt lat="43.00933899999973" lon="-1.3197449999999975">
        <ele>935.253</ele>
        <time>2022-08-24T12:37:24Z</time>
      </trkpt>
      <trkpt lat="43.009246999999725" lon="-1.3197929999999976">
        <ele>935.057</ele>
        <time>2022-08-24T12:37:25Z</time>
      </trkpt>
      <trkpt lat="43.009277999999725" lon="-1.3197629999999976">
        <ele>935.086</ele>
        <time>2022-08-24T12:37:27Z</time>
      </trkpt>
      <trkpt lat="43.00927099999973" lon="-1.3197579999999975">
        <ele>935.094</ele>
        <time>2022-08-24T12:37:28Z</time>
      </trkpt>
      <trkpt lat="43.00925899999973" lon="-1.3197539999999977">
        <ele>935.057</ele>
        <time>2022-08-24T12:37:29Z</time>
      </trkpt>
      <trkpt lat="43.00924699999973" lon="-1.3197499999999978">
        <ele>935.022</ele>
        <time>2022-08-24T12:37:30Z</time>
      </trkpt>
      <trkpt lat="43.00923299999973" lon="-1.3197499999999978">
        <ele>935.009</ele>
        <time>2022-08-24T12:37:31Z</time>
      </trkpt>
      <trkpt lat="43.00920899999973" lon="-1.3197389999999978">
        <ele>934.890</ele>
        <time>2022-08-24T12:37:33Z</time>
      </trkpt>
      <trkpt lat="43.009206999999726" lon="-1.3197239999999977">
        <ele>934.830</ele>
        <time>2022-08-24T12:37:34Z</time>
      </trkpt>
      <trkpt lat="43.00921399999972" lon="-1.3197049999999977">
        <ele>934.820</ele>
        <time>2022-08-24T12:37:35Z</time>
      </trkpt>
      <trkpt lat="43.00921999999972" lon="-1.3196929999999978">
        <ele>934.836</ele>
        <time>2022-08-24T12:37:36Z</time>
      </trkpt>
      <trkpt lat="43.00923199999972" lon="-1.3196809999999979">
        <ele>934.648</ele>
        <time>2022-08-24T12:37:37Z</time>
      </trkpt>
      <trkpt lat="43.00924599999972" lon="-1.319674999999998">
        <ele>934.695</ele>
        <time>2022-08-24T12:37:38Z</time>
      </trkpt>
      <trkpt lat="43.00926199999972" lon="-1.319676999999998">
        <ele>934.698</ele>
        <time>2022-08-24T12:37:39Z</time>
      </trkpt>
      <trkpt lat="43.00927999999972" lon="-1.319683999999998">
        <ele>934.682</ele>
        <time>2022-08-24T12:37:40Z</time>
      </trkpt>
      <trkpt lat="43.00930799999972" lon="-1.319700999999998">
        <ele>934.671</ele>
        <time>2022-08-24T12:37:42Z</time>
      </trkpt>
      <trkpt lat="43.00932299999972" lon="-1.319708999999998">
        <ele>934.654</ele>
        <time>2022-08-24T12:37:43Z</time>
      </trkpt>
      <trkpt lat="43.009343999999714" lon="-1.319716999999998">
        <ele>934.656</ele>
        <time>2022-08-24T12:37:44Z</time>
      </trkpt>
      <trkpt lat="43.009362999999716" lon="-1.319718999999998">
        <ele>934.611</ele>
        <time>2022-08-24T12:37:45Z</time>
      </trkpt>
      <trkpt lat="43.009391999999714" lon="-1.319707999999998">
        <ele>934.809</ele>
        <time>2022-08-24T12:37:47Z</time>
      </trkpt>
      <trkpt lat="43.00940399999971" lon="-1.319705999999998">
        <ele>934.836</ele>
        <time>2022-08-24T12:37:48Z</time>
      </trkpt>
      <trkpt lat="43.009416999999715" lon="-1.3197049999999981">
        <ele>934.896</ele>
        <time>2022-08-24T12:37:49Z</time>
      </trkpt>
      <trkpt lat="43.00944299999971" lon="-1.3197009999999982">
        <ele>934.846</ele>
        <time>2022-08-24T12:37:51Z</time>
      </trkpt>
      <trkpt lat="43.009453999999714" lon="-1.3197029999999983">
        <ele>935.052</ele>
        <time>2022-08-24T12:37:52Z</time>
      </trkpt>
      <trkpt lat="43.00946399999972" lon="-1.3197039999999982">
        <ele>935.054</ele>
        <time>2022-08-24T12:37:53Z</time>
      </trkpt>
      <trkpt lat="43.009467999999714" lon="-1.3197019999999982">
        <ele>935.281</ele>
        <time>2022-08-24T12:37:54Z</time>
      </trkpt>
      <trkpt lat="43.009467999999714" lon="-1.3196989999999982">
        <ele>935.454</ele>
        <time>2022-08-24T12:37:55Z</time>
      </trkpt>
      <trkpt lat="43.00921599999971" lon="-1.3197559999999982">
        <ele>936.078</ele>
        <time>2022-08-24T12:42:04Z</time>
      </trkpt>
      <trkpt lat="43.00925599999971" lon="-1.319732999999998">
        <ele>935.877</ele>
        <time>2022-08-24T12:42:09Z</time>
      </trkpt>
      <trkpt lat="43.00912399999971" lon="-1.3197669999999981">
        <ele>935.444</ele>
        <time>2022-08-24T12:42:14Z</time>
      </trkpt>
      <trkpt lat="43.00907399999971" lon="-1.3197739999999982">
        <ele>935.205</ele>
        <time>2022-08-24T12:42:15Z</time>
      </trkpt>
      <trkpt lat="43.009037999999705" lon="-1.3197839999999983">
        <ele>935.015</ele>
        <time>2022-08-24T12:42:16Z</time>
      </trkpt>
      <trkpt lat="43.009001999999704" lon="-1.3197989999999984">
        <ele>934.809</ele>
        <time>2022-08-24T12:42:17Z</time>
      </trkpt>
      <trkpt lat="43.0089659999997" lon="-1.3198119999999984">
        <ele>934.645</ele>
        <time>2022-08-24T12:42:18Z</time>
      </trkpt>
      <trkpt lat="43.0089049999997" lon="-1.3198379999999985">
        <ele>934.615</ele>
        <time>2022-08-24T12:42:20Z</time>
      </trkpt>
      <trkpt lat="43.0088779999997" lon="-1.3198379999999985">
        <ele>934.655</ele>
        <time>2022-08-24T12:42:21Z</time>
      </trkpt>
      <trkpt lat="43.0088519999997" lon="-1.3198359999999985">
        <ele>934.481</ele>
        <time>2022-08-24T12:42:22Z</time>
      </trkpt>
      <trkpt lat="43.0088259999997" lon="-1.3198359999999985">
        <ele>934.433</ele>
        <time>2022-08-24T12:42:23Z</time>
      </trkpt>
      <trkpt lat="43.0088069999997" lon="-1.3198339999999984">
        <ele>934.250</ele>
        <time>2022-08-24T12:42:24Z</time>
      </trkpt>
      <trkpt lat="43.0087839999997" lon="-1.3198339999999984">
        <ele>934.243</ele>
        <time>2022-08-24T12:42:25Z</time>
      </trkpt>
      <trkpt lat="43.0087629999997" lon="-1.3198309999999984">
        <ele>933.877</ele>
        <time>2022-08-24T12:42:26Z</time>
      </trkpt>
      <trkpt lat="43.0087439999997" lon="-1.3198309999999984">
        <ele>933.686</ele>
        <time>2022-08-24T12:42:27Z</time>
      </trkpt>
      <trkpt lat="43.0087269999997" lon="-1.3198269999999985">
        <ele>933.638</ele>
        <time>2022-08-24T12:42:28Z</time>
      </trkpt>
      <trkpt lat="43.0087069999997" lon="-1.3198199999999984">
        <ele>933.470</ele>
        <time>2022-08-24T12:42:29Z</time>
      </trkpt>
      <trkpt lat="43.0086679999997" lon="-1.3197929999999984">
        <ele>933.217</ele>
        <time>2022-08-24T12:42:31Z</time>
      </trkpt>
      <trkpt lat="43.0086459999997" lon="-1.3197779999999983">
        <ele>933.209</ele>
        <time>2022-08-24T12:42:32Z</time>
      </trkpt>
      <trkpt lat="43.0085789999997" lon="-1.3197149999999984">
        <ele>933.044</ele>
        <time>2022-08-24T12:42:35Z</time>
      </trkpt>
      <trkpt lat="43.0085569999997" lon="-1.3196979999999985">
        <ele>933.084</ele>
        <time>2022-08-24T12:42:36Z</time>
      </trkpt>
      <trkpt lat="43.008537999999696" lon="-1.3196829999999984">
        <ele>933.014</ele>
        <time>2022-08-24T12:42:37Z</time>
      </trkpt>
      <trkpt lat="43.008523999999696" lon="-1.3196739999999985">
        <ele>932.810</ele>
        <time>2022-08-24T12:42:38Z</time>
      </trkpt>
      <trkpt lat="43.00851399999969" lon="-1.3196699999999986">
        <ele>932.282</ele>
        <time>2022-08-24T12:42:39Z</time>
      </trkpt>
      <trkpt lat="43.00851999999969" lon="-1.3196789999999985">
        <ele>931.079</ele>
        <time>2022-08-24T12:42:52Z</time>
      </trkpt>
      <trkpt lat="43.00850299999969" lon="-1.3197179999999984">
        <ele>930.832</ele>
        <time>2022-08-24T12:42:54Z</time>
      </trkpt>
      <trkpt lat="43.00848699999969" lon="-1.3197929999999984">
        <ele>930.856</ele>
        <time>2022-08-24T12:42:57Z</time>
      </trkpt>
      <trkpt lat="43.00844999999969" lon="-1.3198139999999985">
        <ele>930.685</ele>
        <time>2022-08-24T12:42:59Z</time>
      </trkpt>
      <trkpt lat="43.00843099999969" lon="-1.3198089999999985">
        <ele>930.664</ele>
        <time>2022-08-24T12:43:00Z</time>
      </trkpt>
      <trkpt lat="43.00841199999969" lon="-1.3198039999999984">
        <ele>930.606</ele>
        <time>2022-08-24T12:43:01Z</time>
      </trkpt>
      <trkpt lat="43.008305999999685" lon="-1.3197559999999984">
        <ele>930.416</ele>
        <time>2022-08-24T12:43:06Z</time>
      </trkpt>
      <trkpt lat="43.008285999999686" lon="-1.3197499999999984">
        <ele>930.409</ele>
        <time>2022-08-24T12:43:07Z</time>
      </trkpt>
      <trkpt lat="43.00807299999968" lon="-1.3196569999999985">
        <ele>930.237</ele>
        <time>2022-08-24T12:43:15Z</time>
      </trkpt>
      <trkpt lat="43.00792799999968" lon="-1.3196109999999985">
        <ele>930.067</ele>
        <time>2022-08-24T12:43:19Z</time>
      </trkpt>
      <trkpt lat="43.007889999999676" lon="-1.3196019999999986">
        <ele>930.087</ele>
        <time>2022-08-24T12:43:20Z</time>
      </trkpt>
      <trkpt lat="43.007811999999674" lon="-1.3195799999999986">
        <ele>929.673</ele>
        <time>2022-08-24T12:43:22Z</time>
      </trkpt>
      <trkpt lat="43.00765799999967" lon="-1.3195389999999987">
        <ele>928.875</ele>
        <time>2022-08-24T12:43:26Z</time>
      </trkpt>
      <trkpt lat="43.007580999999675" lon="-1.3195219999999988">
        <ele>928.452</ele>
        <time>2022-08-24T12:43:28Z</time>
      </trkpt>
      <trkpt lat="43.00753499999968" lon="-1.3195059999999987">
        <ele>928.075</ele>
        <time>2022-08-24T12:43:29Z</time>
      </trkpt>
      <trkpt lat="43.00746499999968" lon="-1.3194909999999986">
        <ele>927.869</ele>
        <time>2022-08-24T12:43:31Z</time>
      </trkpt>
      <trkpt lat="43.007172999999675" lon="-1.3194239999999986">
        <ele>927.258</ele>
        <time>2022-08-24T12:43:38Z</time>
      </trkpt>
      <trkpt lat="43.00713199999967" lon="-1.3194159999999986">
        <ele>926.868</ele>
        <time>2022-08-24T12:43:39Z</time>
      </trkpt>
      <trkpt lat="43.00708199999967" lon="-1.3194089999999985">
        <ele>926.642</ele>
        <time>2022-08-24T12:43:40Z</time>
      </trkpt>
      <trkpt lat="43.00698399999967" lon="-1.3193979999999985">
        <ele>926.226</ele>
        <time>2022-08-24T12:43:42Z</time>
      </trkpt>
      <trkpt lat="43.00693399999967" lon="-1.3193939999999986">
        <ele>926.009</ele>
        <time>2022-08-24T12:43:43Z</time>
      </trkpt>
      <trkpt lat="43.006886999999665" lon="-1.3193889999999986">
        <ele>925.877</ele>
        <time>2022-08-24T12:43:44Z</time>
      </trkpt>
      <trkpt lat="43.006844999999664" lon="-1.3193839999999986">
        <ele>925.647</ele>
        <time>2022-08-24T12:43:45Z</time>
      </trkpt>
      <trkpt lat="43.00680999999967" lon="-1.3193819999999985">
        <ele>925.617</ele>
        <time>2022-08-24T12:43:46Z</time>
      </trkpt>
      <trkpt lat="43.00668899999967" lon="-1.3193639999999984">
        <ele>925.283</ele>
        <time>2022-08-24T12:43:49Z</time>
      </trkpt>
      <trkpt lat="43.006647999999664" lon="-1.3193509999999984">
        <ele>925.285</ele>
        <time>2022-08-24T12:43:50Z</time>
      </trkpt>
      <trkpt lat="43.00661299999967" lon="-1.3193399999999984">
        <ele>925.052</ele>
        <time>2022-08-24T12:43:51Z</time>
      </trkpt>
      <trkpt lat="43.006576999999666" lon="-1.3193329999999983">
        <ele>925.085</ele>
        <time>2022-08-24T12:43:52Z</time>
      </trkpt>
      <trkpt lat="43.00654499999967" lon="-1.3193289999999984">
        <ele>925.029</ele>
        <time>2022-08-24T12:43:53Z</time>
      </trkpt>
      <trkpt lat="43.00651399999967" lon="-1.3193259999999984">
        <ele>924.868</ele>
        <time>2022-08-24T12:43:54Z</time>
      </trkpt>
      <trkpt lat="43.00648199999967" lon="-1.3193319999999984">
        <ele>924.839</ele>
        <time>2022-08-24T12:43:55Z</time>
      </trkpt>
      <trkpt lat="43.00645399999967" lon="-1.3193359999999983">
        <ele>924.601</ele>
        <time>2022-08-24T12:43:56Z</time>
      </trkpt>
      <trkpt lat="43.00642599999967" lon="-1.3193329999999983">
        <ele>924.621</ele>
        <time>2022-08-24T12:43:57Z</time>
      </trkpt>
      <trkpt lat="43.00636399999967" lon="-1.3193259999999982">
        <ele>924.409</ele>
        <time>2022-08-24T12:43:59Z</time>
      </trkpt>
      <trkpt lat="43.00632299999967" lon="-1.3193279999999983">
        <ele>924.264</ele>
        <time>2022-08-24T12:44:00Z</time>
      </trkpt>
      <trkpt lat="43.00623999999967" lon="-1.3193409999999983">
        <ele>924.014</ele>
        <time>2022-08-24T12:44:02Z</time>
      </trkpt>
      <trkpt lat="43.00619199999967" lon="-1.3193449999999982">
        <ele>923.894</ele>
        <time>2022-08-24T12:44:03Z</time>
      </trkpt>
      <trkpt lat="43.00613299999967" lon="-1.3193519999999983">
        <ele>923.610</ele>
        <time>2022-08-24T12:44:04Z</time>
      </trkpt>
      <trkpt lat="43.00609599999967" lon="-1.3193539999999984">
        <ele>923.672</ele>
        <time>2022-08-24T12:44:05Z</time>
      </trkpt>
      <trkpt lat="43.00606299999967" lon="-1.3193529999999984">
        <ele>923.619</ele>
        <time>2022-08-24T12:44:06Z</time>
      </trkpt>
      <trkpt lat="43.00603099999967" lon="-1.3193529999999984">
        <ele>923.442</ele>
        <time>2022-08-24T12:44:07Z</time>
      </trkpt>
      <trkpt lat="43.005962999999674" lon="-1.3193409999999985">
        <ele>923.236</ele>
        <time>2022-08-24T12:44:09Z</time>
      </trkpt>
      <trkpt lat="43.005936999999676" lon="-1.3193329999999985">
        <ele>923.055</ele>
        <time>2022-08-24T12:44:10Z</time>
      </trkpt>
      <trkpt lat="43.00590799999968" lon="-1.3193229999999985">
        <ele>923.059</ele>
        <time>2022-08-24T12:44:11Z</time>
      </trkpt>
      <trkpt lat="43.00588599999968" lon="-1.3193249999999985">
        <ele>922.803</ele>
        <time>2022-08-24T12:44:12Z</time>
      </trkpt>
      <trkpt lat="43.00586799999968" lon="-1.3193179999999984">
        <ele>922.623</ele>
        <time>2022-08-24T12:44:13Z</time>
      </trkpt>
      <trkpt lat="43.00585199999968" lon="-1.3193169999999985">
        <ele>922.609</ele>
        <time>2022-08-24T12:44:14Z</time>
      </trkpt>
      <trkpt lat="43.00583499999968" lon="-1.3193139999999985">
        <ele>922.626</ele>
        <time>2022-08-24T12:44:15Z</time>
      </trkpt>
      <trkpt lat="43.005784999999676" lon="-1.3193299999999986">
        <ele>922.046</ele>
        <time>2022-08-24T12:44:17Z</time>
      </trkpt>
      <trkpt lat="43.005753999999676" lon="-1.3193379999999986">
        <ele>922.096</ele>
        <time>2022-08-24T12:44:18Z</time>
      </trkpt>
      <trkpt lat="43.005686999999675" lon="-1.3193389999999985">
        <ele>921.822</ele>
        <time>2022-08-24T12:44:20Z</time>
      </trkpt>
      <trkpt lat="43.005646999999676" lon="-1.3193359999999985">
        <ele>921.644</ele>
        <time>2022-08-24T12:44:22Z</time>
      </trkpt>
      <trkpt lat="43.00556999999968" lon="-1.3193539999999986">
        <ele>921.441</ele>
        <time>2022-08-24T12:44:24Z</time>
      </trkpt>
      <trkpt lat="43.00553799999968" lon="-1.3193749999999986">
        <ele>921.224</ele>
        <time>2022-08-24T12:44:25Z</time>
      </trkpt>
      <trkpt lat="43.00548499999968" lon="-1.3194159999999986">
        <ele>921.038</ele>
        <time>2022-08-24T12:44:26Z</time>
      </trkpt>
      <trkpt lat="43.00542999999968" lon="-1.3194409999999985">
        <ele>921.087</ele>
        <time>2022-08-24T12:44:27Z</time>
      </trkpt>
      <trkpt lat="43.005374999999674" lon="-1.3194559999999986">
        <ele>921.067</ele>
        <time>2022-08-24T12:44:28Z</time>
      </trkpt>
      <trkpt lat="43.005328999999676" lon="-1.3194609999999987">
        <ele>921.081</ele>
        <time>2022-08-24T12:44:29Z</time>
      </trkpt>
      <trkpt lat="43.005227999999676" lon="-1.3194909999999986">
        <ele>921.019</ele>
        <time>2022-08-24T12:44:32Z</time>
      </trkpt>
      <trkpt lat="43.00521299999968" lon="-1.3194989999999986">
        <ele>921.009</ele>
        <time>2022-08-24T12:44:33Z</time>
      </trkpt>
      <trkpt lat="43.00518799999968" lon="-1.3195189999999986">
        <ele>921.027</ele>
        <time>2022-08-24T12:44:34Z</time>
      </trkpt>
      <trkpt lat="43.00515299999968" lon="-1.3195419999999987">
        <ele>921.097</ele>
        <time>2022-08-24T12:44:35Z</time>
      </trkpt>
      <trkpt lat="43.00512499999968" lon="-1.3195449999999986">
        <ele>921.077</ele>
        <time>2022-08-24T12:44:36Z</time>
      </trkpt>
      <trkpt lat="43.00507799999968" lon="-1.3195719999999986">
        <ele>920.823</ele>
        <time>2022-08-24T12:44:38Z</time>
      </trkpt>
      <trkpt lat="43.00502099999968" lon="-1.3196289999999986">
        <ele>920.875</ele>
        <time>2022-08-24T12:44:40Z</time>
      </trkpt>
      <trkpt lat="43.00497599999968" lon="-1.3196649999999985">
        <ele>920.612</ele>
        <time>2022-08-24T12:44:41Z</time>
      </trkpt>
      <trkpt lat="43.00494699999968" lon="-1.3196859999999986">
        <ele>920.645</ele>
        <time>2022-08-24T12:44:42Z</time>
      </trkpt>
      <trkpt lat="43.00485799999968" lon="-1.3197549999999987">
        <ele>920.489</ele>
        <time>2022-08-24T12:44:45Z</time>
      </trkpt>
      <trkpt lat="43.00477799999968" lon="-1.3198149999999986">
        <ele>920.468</ele>
        <time>2022-08-24T12:44:47Z</time>
      </trkpt>
      <trkpt lat="43.00471899999968" lon="-1.3198629999999987">
        <ele>920.483</ele>
        <time>2022-08-24T12:44:49Z</time>
      </trkpt>
      <trkpt lat="43.00468799999968" lon="-1.3198849999999986">
        <ele>920.425</ele>
        <time>2022-08-24T12:44:50Z</time>
      </trkpt>
      <trkpt lat="43.00462099999968" lon="-1.3199429999999985">
        <ele>920.217</ele>
        <time>2022-08-24T12:44:52Z</time>
      </trkpt>
      <trkpt lat="43.00459699999968" lon="-1.3199629999999984">
        <ele>920.209</ele>
        <time>2022-08-24T12:44:53Z</time>
      </trkpt>
      <trkpt lat="43.004465999999674" lon="-1.3200179999999984">
        <ele>919.639</ele>
        <time>2022-08-24T12:44:56Z</time>
      </trkpt>
      <trkpt lat="43.00442699999967" lon="-1.3200169999999984">
        <ele>919.429</ele>
        <time>2022-08-24T12:44:57Z</time>
      </trkpt>
      <trkpt lat="43.00440299999967" lon="-1.3200189999999985">
        <ele>919.289</ele>
        <time>2022-08-24T12:44:58Z</time>
      </trkpt>
      <trkpt lat="43.00436799999967" lon="-1.3200399999999985">
        <ele>919.245</ele>
        <time>2022-08-24T12:44:59Z</time>
      </trkpt>
      <trkpt lat="43.00434099999967" lon="-1.3200619999999985">
        <ele>919.257</ele>
        <time>2022-08-24T12:45:00Z</time>
      </trkpt>
      <trkpt lat="43.00425199999967" lon="-1.3201209999999985">
        <ele>919.014</ele>
        <time>2022-08-24T12:45:03Z</time>
      </trkpt>
      <trkpt lat="43.00409699999967" lon="-1.3201999999999985">
        <ele>919.297</ele>
        <time>2022-08-24T12:45:06Z</time>
      </trkpt>
      <trkpt lat="43.00400999999967" lon="-1.3202399999999985">
        <ele>919.081</ele>
        <time>2022-08-24T12:45:08Z</time>
      </trkpt>
      <trkpt lat="43.00394199999967" lon="-1.3202719999999986">
        <ele>919.020</ele>
        <time>2022-08-24T12:45:10Z</time>
      </trkpt>
      <trkpt lat="43.00385999999967" lon="-1.3203379999999985">
        <ele>918.632</ele>
        <time>2022-08-24T12:45:12Z</time>
      </trkpt>
      <trkpt lat="43.00378499999967" lon="-1.3203939999999985">
        <ele>918.092</ele>
        <time>2022-08-24T12:45:14Z</time>
      </trkpt>
      <trkpt lat="43.003703999999665" lon="-1.3204509999999985">
        <ele>918.011</ele>
        <time>2022-08-24T12:45:16Z</time>
      </trkpt>
      <trkpt lat="43.00360699999967" lon="-1.3205099999999985">
        <ele>917.409</ele>
        <time>2022-08-24T12:45:18Z</time>
      </trkpt>
      <trkpt lat="43.003551999999665" lon="-1.3205329999999986">
        <ele>917.244</ele>
        <time>2022-08-24T12:45:19Z</time>
      </trkpt>
      <trkpt lat="43.00351399999966" lon="-1.3205509999999987">
        <ele>917.064</ele>
        <time>2022-08-24T12:45:20Z</time>
      </trkpt>
      <trkpt lat="43.003467999999664" lon="-1.3205759999999986">
        <ele>917.074</ele>
        <time>2022-08-24T12:45:21Z</time>
      </trkpt>
      <trkpt lat="43.00335899999966" lon="-1.3206299999999986">
        <ele>917.060</ele>
        <time>2022-08-24T12:45:23Z</time>
      </trkpt>
      <trkpt lat="43.00333099999966" lon="-1.3206159999999987">
        <ele>917.042</ele>
        <time>2022-08-24T12:45:24Z</time>
      </trkpt>
      <trkpt lat="43.00329799999966" lon="-1.3206289999999987">
        <ele>917.059</ele>
        <time>2022-08-24T12:45:25Z</time>
      </trkpt>
      <trkpt lat="43.00324599999966" lon="-1.3206799999999987">
        <ele>917.062</ele>
        <time>2022-08-24T12:45:26Z</time>
      </trkpt>
      <trkpt lat="43.003205999999665" lon="-1.3207469999999988">
        <ele>917.066</ele>
        <time>2022-08-24T12:45:27Z</time>
      </trkpt>
      <trkpt lat="43.00315399999967" lon="-1.3208239999999989">
        <ele>916.845</ele>
        <time>2022-08-24T12:45:29Z</time>
      </trkpt>
      <trkpt lat="43.00312899999967" lon="-1.320865999999999">
        <ele>916.628</ele>
        <time>2022-08-24T12:45:30Z</time>
      </trkpt>
      <trkpt lat="43.00309799999967" lon="-1.320935999999999">
        <ele>916.489</ele>
        <time>2022-08-24T12:45:31Z</time>
      </trkpt>
      <trkpt lat="43.003067999999665" lon="-1.320988999999999">
        <ele>916.217</ele>
        <time>2022-08-24T12:45:32Z</time>
      </trkpt>
      <trkpt lat="43.003033999999666" lon="-1.321019999999999">
        <ele>916.009</ele>
        <time>2022-08-24T12:45:33Z</time>
      </trkpt>
      <trkpt lat="43.002994999999665" lon="-1.321045999999999">
        <ele>916.063</ele>
        <time>2022-08-24T12:45:34Z</time>
      </trkpt>
      <trkpt lat="43.002893999999664" lon="-1.321166999999999">
        <ele>915.663</ele>
        <time>2022-08-24T12:45:37Z</time>
      </trkpt>
      <trkpt lat="43.00287199999966" lon="-1.321212999999999">
        <ele>915.623</ele>
        <time>2022-08-24T12:45:38Z</time>
      </trkpt>
      <trkpt lat="43.00283499999966" lon="-1.321258999999999">
        <ele>915.289</ele>
        <time>2022-08-24T12:45:39Z</time>
      </trkpt>
      <trkpt lat="43.00277399999966" lon="-1.321315999999999">
        <ele>915.021</ele>
        <time>2022-08-24T12:45:40Z</time>
      </trkpt>
      <trkpt lat="43.00267599999966" lon="-1.321451999999999">
        <ele>914.868</ele>
        <time>2022-08-24T12:45:42Z</time>
      </trkpt>
      <trkpt lat="43.00264799999966" lon="-1.321505999999999">
        <ele>914.631</ele>
        <time>2022-08-24T12:45:43Z</time>
      </trkpt>
      <trkpt lat="43.00262299999966" lon="-1.3215689999999989">
        <ele>914.485</ele>
        <time>2022-08-24T12:45:44Z</time>
      </trkpt>
      <trkpt lat="43.00254599999966" lon="-1.321719999999999">
        <ele>913.884</ele>
        <time>2022-08-24T12:45:46Z</time>
      </trkpt>
      <trkpt lat="43.00252399999966" lon="-1.321761999999999">
        <ele>913.249</ele>
        <time>2022-08-24T12:45:47Z</time>
      </trkpt>
      <trkpt lat="43.00250499999966" lon="-1.321824999999999">
        <ele>913.002</ele>
        <time>2022-08-24T12:45:48Z</time>
      </trkpt>
      <trkpt lat="43.00246199999966" lon="-1.3218929999999989">
        <ele>912.822</ele>
        <time>2022-08-24T12:45:49Z</time>
      </trkpt>
      <trkpt lat="43.00242799999966" lon="-1.3219559999999988">
        <ele>912.609</ele>
        <time>2022-08-24T12:45:50Z</time>
      </trkpt>
      <trkpt lat="43.00238799999966" lon="-1.3220029999999987">
        <ele>912.045</ele>
        <time>2022-08-24T12:45:51Z</time>
      </trkpt>
      <trkpt lat="43.00236399999966" lon="-1.3220379999999987">
        <ele>911.825</ele>
        <time>2022-08-24T12:45:52Z</time>
      </trkpt>
      <trkpt lat="43.00232699999966" lon="-1.3220949999999987">
        <ele>911.635</ele>
        <time>2022-08-24T12:45:53Z</time>
      </trkpt>
      <trkpt lat="43.00229099999966" lon="-1.3221479999999988">
        <ele>911.491</ele>
        <time>2022-08-24T12:45:54Z</time>
      </trkpt>
      <trkpt lat="43.00227099999966" lon="-1.3221719999999988">
        <ele>911.263</ele>
        <time>2022-08-24T12:45:55Z</time>
      </trkpt>
      <trkpt lat="43.00224099999966" lon="-1.3222049999999987">
        <ele>910.610</ele>
        <time>2022-08-24T12:45:56Z</time>
      </trkpt>
      <trkpt lat="43.00221299999966" lon="-1.3222589999999987">
        <ele>910.443</ele>
        <time>2022-08-24T12:45:57Z</time>
      </trkpt>
      <trkpt lat="43.002187999999656" lon="-1.3223219999999987">
        <ele>910.087</ele>
        <time>2022-08-24T12:45:58Z</time>
      </trkpt>
      <trkpt lat="43.00215099999966" lon="-1.3223939999999987">
        <ele>909.876</ele>
        <time>2022-08-24T12:45:59Z</time>
      </trkpt>
      <trkpt lat="43.00212999999966" lon="-1.3224529999999988">
        <ele>909.638</ele>
        <time>2022-08-24T12:46:00Z</time>
      </trkpt>
      <trkpt lat="43.00209399999966" lon="-1.3225259999999988">
        <ele>909.670</ele>
        <time>2022-08-24T12:46:01Z</time>
      </trkpt>
      <trkpt lat="43.00206899999966" lon="-1.3225849999999988">
        <ele>909.617</ele>
        <time>2022-08-24T12:46:02Z</time>
      </trkpt>
      <trkpt lat="43.00206799999966" lon="-1.3226169999999988">
        <ele>909.609</ele>
        <time>2022-08-24T12:46:03Z</time>
      </trkpt>
      <trkpt lat="43.00205999999966" lon="-1.3226539999999989">
        <ele>909.694</ele>
        <time>2022-08-24T12:46:04Z</time>
      </trkpt>
      <trkpt lat="43.00205699999966" lon="-1.322717999999999">
        <ele>909.654</ele>
        <time>2022-08-24T12:46:05Z</time>
      </trkpt>
      <trkpt lat="43.00206799999966" lon="-1.322750999999999">
        <ele>909.464</ele>
        <time>2022-08-24T12:46:06Z</time>
      </trkpt>
      <trkpt lat="43.00207099999966" lon="-1.3228079999999989">
        <ele>909.430</ele>
        <time>2022-08-24T12:46:07Z</time>
      </trkpt>
      <trkpt lat="43.002046999999656" lon="-1.3228759999999988">
        <ele>909.632</ele>
        <time>2022-08-24T12:46:08Z</time>
      </trkpt>
      <trkpt lat="43.002032999999656" lon="-1.3229589999999989">
        <ele>909.679</ele>
        <time>2022-08-24T12:46:09Z</time>
      </trkpt>
      <trkpt lat="43.00200099999966" lon="-1.323027999999999">
        <ele>909.672</ele>
        <time>2022-08-24T12:46:10Z</time>
      </trkpt>
      <trkpt lat="43.00198199999966" lon="-1.323081999999999">
        <ele>909.646</ele>
        <time>2022-08-24T12:46:11Z</time>
      </trkpt>
      <trkpt lat="43.00195399999966" lon="-1.323132999999999">
        <ele>909.675</ele>
        <time>2022-08-24T12:46:12Z</time>
      </trkpt>
      <trkpt lat="43.001945999999656" lon="-1.323229999999999">
        <ele>909.463</ele>
        <time>2022-08-24T12:46:14Z</time>
      </trkpt>
      <trkpt lat="43.001937999999654" lon="-1.323272999999999">
        <ele>909.244</ele>
        <time>2022-08-24T12:46:15Z</time>
      </trkpt>
      <trkpt lat="43.001914999999656" lon="-1.323370999999999">
        <ele>909.218</ele>
        <time>2022-08-24T12:46:18Z</time>
      </trkpt>
      <trkpt lat="43.00187199999966" lon="-1.323403999999999">
        <ele>909.209</ele>
        <time>2022-08-24T12:46:19Z</time>
      </trkpt>
      <trkpt lat="43.00181999999966" lon="-1.323445999999999">
        <ele>909.217</ele>
        <time>2022-08-24T12:46:20Z</time>
      </trkpt>
      <trkpt lat="43.00180499999966" lon="-1.323492999999999">
        <ele>909.217</ele>
        <time>2022-08-24T12:46:21Z</time>
      </trkpt>
      <trkpt lat="43.00177999999966" lon="-1.323557999999999">
        <ele>909.047</ele>
        <time>2022-08-24T12:46:23Z</time>
      </trkpt>
      <trkpt lat="43.00176699999966" lon="-1.3235859999999988">
        <ele>909.083</ele>
        <time>2022-08-24T12:46:24Z</time>
      </trkpt>
      <trkpt lat="43.00173399999966" lon="-1.323684999999999">
        <ele>909.045</ele>
        <time>2022-08-24T12:46:26Z</time>
      </trkpt>
      <trkpt lat="43.00167099999966" lon="-1.323834999999999">
        <ele>909.022</ele>
        <time>2022-08-24T12:46:28Z</time>
      </trkpt>
      <trkpt lat="43.00166599999966" lon="-1.323898999999999">
        <ele>909.085</ele>
        <time>2022-08-24T12:46:29Z</time>
      </trkpt>
      <trkpt lat="43.00165799999966" lon="-1.324003999999999">
        <ele>908.889</ele>
        <time>2022-08-24T12:46:31Z</time>
      </trkpt>
      <trkpt lat="43.00165099999966" lon="-1.3240809999999992">
        <ele>908.898</ele>
        <time>2022-08-24T12:46:32Z</time>
      </trkpt>
      <trkpt lat="43.001632999999664" lon="-1.3241679999999991">
        <ele>908.852</ele>
        <time>2022-08-24T12:46:33Z</time>
      </trkpt>
      <trkpt lat="43.00161499999967" lon="-1.324273999999999">
        <ele>908.253</ele>
        <time>2022-08-24T12:46:35Z</time>
      </trkpt>
      <trkpt lat="43.00153299999967" lon="-1.3244509999999992">
        <ele>908.008</ele>
        <time>2022-08-24T12:46:38Z</time>
      </trkpt>
      <trkpt lat="43.001508999999665" lon="-1.3245179999999992">
        <ele>907.809</ele>
        <time>2022-08-24T12:46:39Z</time>
      </trkpt>
      <trkpt lat="43.001446999999665" lon="-1.3246039999999992">
        <ele>907.886</ele>
        <time>2022-08-24T12:46:40Z</time>
      </trkpt>
      <trkpt lat="43.001401999999665" lon="-1.3246729999999993">
        <ele>907.686</ele>
        <time>2022-08-24T12:46:41Z</time>
      </trkpt>
      <trkpt lat="43.001367999999665" lon="-1.3247309999999992">
        <ele>907.426</ele>
        <time>2022-08-24T12:46:42Z</time>
      </trkpt>
      <trkpt lat="43.001345999999664" lon="-1.3247829999999992">
        <ele>907.442</ele>
        <time>2022-08-24T12:46:43Z</time>
      </trkpt>
      <trkpt lat="43.001322999999665" lon="-1.3248289999999991">
        <ele>907.094</ele>
        <time>2022-08-24T12:46:44Z</time>
      </trkpt>
      <trkpt lat="43.00127099999967" lon="-1.3249849999999992">
        <ele>906.651</ele>
        <time>2022-08-24T12:46:47Z</time>
      </trkpt>
      <trkpt lat="43.001240999999666" lon="-1.3250389999999992">
        <ele>906.654</ele>
        <time>2022-08-24T12:46:48Z</time>
      </trkpt>
      <trkpt lat="43.00118599999966" lon="-1.3250919999999993">
        <ele>906.818</ele>
        <time>2022-08-24T12:46:49Z</time>
      </trkpt>
      <trkpt lat="43.00113099999966" lon="-1.3251369999999993">
        <ele>906.837</ele>
        <time>2022-08-24T12:46:50Z</time>
      </trkpt>
      <trkpt lat="43.00110599999966" lon="-1.3251669999999993">
        <ele>906.645</ele>
        <time>2022-08-24T12:46:51Z</time>
      </trkpt>
      <trkpt lat="43.00109099999966" lon="-1.3251989999999993">
        <ele>906.647</ele>
        <time>2022-08-24T12:46:52Z</time>
      </trkpt>
      <trkpt lat="43.001069999999665" lon="-1.3252239999999993">
        <ele>906.411</ele>
        <time>2022-08-24T12:46:53Z</time>
      </trkpt>
      <trkpt lat="43.001046999999666" lon="-1.3252459999999993">
        <ele>906.409</ele>
        <time>2022-08-24T12:46:54Z</time>
      </trkpt>
      <trkpt lat="43.000970999999666" lon="-1.3253289999999993">
        <ele>906.435</ele>
        <time>2022-08-24T12:46:56Z</time>
      </trkpt>
      <trkpt lat="43.00088499999966" lon="-1.3254359999999994">
        <ele>906.275</ele>
        <time>2022-08-24T12:46:58Z</time>
      </trkpt>
      <trkpt lat="43.00078199999966" lon="-1.3256069999999993">
        <ele>906.055</ele>
        <time>2022-08-24T12:47:01Z</time>
      </trkpt>
      <trkpt lat="43.00075099999966" lon="-1.3256539999999992">
        <ele>906.021</ele>
        <time>2022-08-24T12:47:02Z</time>
      </trkpt>
      <trkpt lat="43.00067799999966" lon="-1.3257649999999992">
        <ele>905.683</ele>
        <time>2022-08-24T12:47:04Z</time>
      </trkpt>
      <trkpt lat="43.00064599999966" lon="-1.3258049999999992">
        <ele>905.210</ele>
        <time>2022-08-24T12:47:05Z</time>
      </trkpt>
      <trkpt lat="43.000619999999664" lon="-1.3258509999999992">
        <ele>905.253</ele>
        <time>2022-08-24T12:47:06Z</time>
      </trkpt>
      <trkpt lat="43.00061199999966" lon="-1.3258949999999992">
        <ele>905.277</ele>
        <time>2022-08-24T12:47:07Z</time>
      </trkpt>
      <trkpt lat="43.000596999999665" lon="-1.3259439999999991">
        <ele>905.056</ele>
        <time>2022-08-24T12:47:08Z</time>
      </trkpt>
      <trkpt lat="43.00058399999966" lon="-1.3259949999999991">
        <ele>905.033</ele>
        <time>2022-08-24T12:47:09Z</time>
      </trkpt>
      <trkpt lat="43.00056399999966" lon="-1.3260459999999992">
        <ele>905.023</ele>
        <time>2022-08-24T12:47:10Z</time>
      </trkpt>
      <trkpt lat="43.00046399999966" lon="-1.3261749999999992">
        <ele>905.215</ele>
        <time>2022-08-24T12:47:13Z</time>
      </trkpt>
      <trkpt lat="43.00044799999966" lon="-1.3262109999999991">
        <ele>905.009</ele>
        <time>2022-08-24T12:47:14Z</time>
      </trkpt>
      <trkpt lat="43.000437999999654" lon="-1.3262449999999992">
        <ele>904.844</ele>
        <time>2022-08-24T12:47:15Z</time>
      </trkpt>
      <trkpt lat="43.00041099999965" lon="-1.3262999999999991">
        <ele>904.644</ele>
        <time>2022-08-24T12:47:16Z</time>
      </trkpt>
      <trkpt lat="43.000389999999655" lon="-1.3263589999999992">
        <ele>904.644</ele>
        <time>2022-08-24T12:47:17Z</time>
      </trkpt>
      <trkpt lat="43.00039399999965" lon="-1.326386999999999">
        <ele>904.480</ele>
        <time>2022-08-24T12:47:18Z</time>
      </trkpt>
      <trkpt lat="43.00037499999965" lon="-1.3264319999999992">
        <ele>904.422</ele>
        <time>2022-08-24T12:47:19Z</time>
      </trkpt>
      <trkpt lat="43.00025699999965" lon="-1.3266399999999992">
        <ele>903.869</ele>
        <time>2022-08-24T12:47:22Z</time>
      </trkpt>
      <trkpt lat="43.00018499999965" lon="-1.3267559999999992">
        <ele>903.682</ele>
        <time>2022-08-24T12:47:24Z</time>
      </trkpt>
      <trkpt lat="43.00016699999965" lon="-1.3268179999999992">
        <ele>903.646</ele>
        <time>2022-08-24T12:47:25Z</time>
      </trkpt>
      <trkpt lat="43.000142999999646" lon="-1.326891999999999">
        <ele>903.465</ele>
        <time>2022-08-24T12:47:26Z</time>
      </trkpt>
      <trkpt lat="43.00009899999964" lon="-1.327078999999999">
        <ele>903.246</ele>
        <time>2022-08-24T12:47:29Z</time>
      </trkpt>
      <trkpt lat="43.000078999999644" lon="-1.327156999999999">
        <ele>903.088</ele>
        <time>2022-08-24T12:47:30Z</time>
      </trkpt>
      <trkpt lat="43.00003799999964" lon="-1.3272449999999991">
        <ele>902.816</ele>
        <time>2022-08-24T12:47:31Z</time>
      </trkpt>
      <trkpt lat="42.99999299999964" lon="-1.327307999999999">
        <ele>902.409</ele>
        <time>2022-08-24T12:47:32Z</time>
      </trkpt>
      <trkpt lat="42.99994299999964" lon="-1.327364999999999">
        <ele>902.495</ele>
        <time>2022-08-24T12:47:33Z</time>
      </trkpt>
      <trkpt lat="42.99990899999964" lon="-1.327391999999999">
        <ele>902.295</ele>
        <time>2022-08-24T12:47:34Z</time>
      </trkpt>
      <trkpt lat="42.99988399999964" lon="-1.327405999999999">
        <ele>902.285</ele>
        <time>2022-08-24T12:47:35Z</time>
      </trkpt>
      <trkpt lat="42.99984799999964" lon="-1.327438999999999">
        <ele>902.031</ele>
        <time>2022-08-24T12:47:36Z</time>
      </trkpt>
      <trkpt lat="42.99981599999964" lon="-1.3274589999999988">
        <ele>902.043</ele>
        <time>2022-08-24T12:47:37Z</time>
      </trkpt>
      <trkpt lat="42.99978099999964" lon="-1.327468999999999">
        <ele>902.070</ele>
        <time>2022-08-24T12:47:38Z</time>
      </trkpt>
      <trkpt lat="42.99976499999964" lon="-1.3274779999999988">
        <ele>902.083</ele>
        <time>2022-08-24T12:47:39Z</time>
      </trkpt>
      <trkpt lat="42.99974999999964" lon="-1.327495999999999">
        <ele>902.017</ele>
        <time>2022-08-24T12:47:40Z</time>
      </trkpt>
      <trkpt lat="42.999715999999644" lon="-1.3275159999999988">
        <ele>902.026</ele>
        <time>2022-08-24T12:47:41Z</time>
      </trkpt>
      <trkpt lat="42.99968599999964" lon="-1.327530999999999">
        <ele>902.028</ele>
        <time>2022-08-24T12:47:42Z</time>
      </trkpt>
      <trkpt lat="42.99964499999964" lon="-1.327519999999999">
        <ele>902.289</ele>
        <time>2022-08-24T12:47:43Z</time>
      </trkpt>
      <trkpt lat="42.99961299999964" lon="-1.3274969999999988">
        <ele>902.217</ele>
        <time>2022-08-24T12:47:44Z</time>
      </trkpt>
      <trkpt lat="42.99957599999964" lon="-1.327487999999999">
        <ele>902.409</ele>
        <time>2022-08-24T12:47:45Z</time>
      </trkpt>
      <trkpt lat="42.99953999999964" lon="-1.3274719999999989">
        <ele>902.483</ele>
        <time>2022-08-24T12:47:46Z</time>
      </trkpt>
      <trkpt lat="42.99949299999964" lon="-1.3274699999999988">
        <ele>902.453</ele>
        <time>2022-08-24T12:47:47Z</time>
      </trkpt>
      <trkpt lat="42.999423999999635" lon="-1.3274809999999988">
        <ele>902.413</ele>
        <time>2022-08-24T12:47:48Z</time>
      </trkpt>
      <trkpt lat="42.999378999999635" lon="-1.3274939999999988">
        <ele>902.429</ele>
        <time>2022-08-24T12:47:49Z</time>
      </trkpt>
      <trkpt lat="42.99932499999964" lon="-1.327514999999999">
        <ele>902.451</ele>
        <time>2022-08-24T12:47:50Z</time>
      </trkpt>
      <trkpt lat="42.99928499999964" lon="-1.3275319999999988">
        <ele>902.438</ele>
        <time>2022-08-24T12:47:51Z</time>
      </trkpt>
      <trkpt lat="42.99907299999964" lon="-1.327608999999999">
        <ele>902.251</ele>
        <time>2022-08-24T12:47:56Z</time>
      </trkpt>
      <trkpt lat="42.99895699999964" lon="-1.327629999999999">
        <ele>901.495</ele>
        <time>2022-08-24T12:47:58Z</time>
      </trkpt>
      <trkpt lat="42.99881399999964" lon="-1.327661999999999">
        <ele>901.224</ele>
        <time>2022-08-24T12:48:01Z</time>
      </trkpt>
      <trkpt lat="42.99877399999964" lon="-1.327686999999999">
        <ele>901.289</ele>
        <time>2022-08-24T12:48:02Z</time>
      </trkpt>
      <trkpt lat="42.99873599999964" lon="-1.327712999999999">
        <ele>901.206</ele>
        <time>2022-08-24T12:48:03Z</time>
      </trkpt>
      <trkpt lat="42.99865399999964" lon="-1.327766999999999">
        <ele>901.226</ele>
        <time>2022-08-24T12:48:04Z</time>
      </trkpt>
      <trkpt lat="42.99858099999964" lon="-1.327806999999999">
        <ele>901.209</ele>
        <time>2022-08-24T12:48:05Z</time>
      </trkpt>
      <trkpt lat="42.99852799999964" lon="-1.327834999999999">
        <ele>901.019</ele>
        <time>2022-08-24T12:48:06Z</time>
      </trkpt>
      <trkpt lat="42.998489999999634" lon="-1.327847999999999">
        <ele>901.049</ele>
        <time>2022-08-24T12:48:07Z</time>
      </trkpt>
      <trkpt lat="42.998444999999634" lon="-1.3278549999999991">
        <ele>900.869</ele>
        <time>2022-08-24T12:48:08Z</time>
      </trkpt>
      <trkpt lat="42.998390999999636" lon="-1.3278779999999992">
        <ele>900.665</ele>
        <time>2022-08-24T12:48:09Z</time>
      </trkpt>
      <trkpt lat="42.998359999999636" lon="-1.3278999999999992">
        <ele>900.417</ele>
        <time>2022-08-24T12:48:10Z</time>
      </trkpt>
      <trkpt lat="42.99832799999964" lon="-1.3279239999999992">
        <ele>900.464</ele>
        <time>2022-08-24T12:48:11Z</time>
      </trkpt>
      <trkpt lat="42.99828499999964" lon="-1.3279539999999992">
        <ele>900.467</ele>
        <time>2022-08-24T12:48:12Z</time>
      </trkpt>
      <trkpt lat="42.998232999999644" lon="-1.3279799999999993">
        <ele>900.411</ele>
        <time>2022-08-24T12:48:13Z</time>
      </trkpt>
      <trkpt lat="42.99816299999964" lon="-1.3279989999999993">
        <ele>900.260</ele>
        <time>2022-08-24T12:48:14Z</time>
      </trkpt>
      <trkpt lat="42.99811299999964" lon="-1.3280089999999993">
        <ele>900.247</ele>
        <time>2022-08-24T12:48:15Z</time>
      </trkpt>
      <trkpt lat="42.99805499999964" lon="-1.3280429999999994">
        <ele>900.029</ele>
        <time>2022-08-24T12:48:16Z</time>
      </trkpt>
      <trkpt lat="42.99801599999964" lon="-1.3280789999999993">
        <ele>900.021</ele>
        <time>2022-08-24T12:48:17Z</time>
      </trkpt>
      <trkpt lat="42.99799099999964" lon="-1.3281009999999993">
        <ele>899.609</ele>
        <time>2022-08-24T12:48:18Z</time>
      </trkpt>
      <trkpt lat="42.997917999999636" lon="-1.3281429999999994">
        <ele>899.425</ele>
        <time>2022-08-24T12:48:20Z</time>
      </trkpt>
      <trkpt lat="42.99786099999964" lon="-1.3281849999999995">
        <ele>899.495</ele>
        <time>2022-08-24T12:48:21Z</time>
      </trkpt>
      <trkpt lat="42.99781299999964" lon="-1.3282239999999994">
        <ele>899.065</ele>
        <time>2022-08-24T12:48:22Z</time>
      </trkpt>
      <trkpt lat="42.99775699999964" lon="-1.3282739999999995">
        <ele>899.041</ele>
        <time>2022-08-24T12:48:23Z</time>
      </trkpt>
      <trkpt lat="42.997706999999636" lon="-1.3283119999999995">
        <ele>899.033</ele>
        <time>2022-08-24T12:48:24Z</time>
      </trkpt>
      <trkpt lat="42.99766699999964" lon="-1.3283289999999994">
        <ele>898.820</ele>
        <time>2022-08-24T12:48:25Z</time>
      </trkpt>
      <trkpt lat="42.99762999999964" lon="-1.3283559999999994">
        <ele>898.823</ele>
        <time>2022-08-24T12:48:26Z</time>
      </trkpt>
      <trkpt lat="42.997602999999636" lon="-1.3283879999999995">
        <ele>898.637</ele>
        <time>2022-08-24T12:48:27Z</time>
      </trkpt>
      <trkpt lat="42.997588999999635" lon="-1.3284329999999995">
        <ele>898.666</ele>
        <time>2022-08-24T12:48:28Z</time>
      </trkpt>
      <trkpt lat="42.997571999999636" lon="-1.3284719999999994">
        <ele>898.422</ele>
        <time>2022-08-24T12:48:29Z</time>
      </trkpt>
      <trkpt lat="42.997537999999636" lon="-1.3285059999999995">
        <ele>898.462</ele>
        <time>2022-08-24T12:48:30Z</time>
      </trkpt>
      <trkpt lat="42.997495999999636" lon="-1.3285239999999996">
        <ele>898.208</ele>
        <time>2022-08-24T12:48:31Z</time>
      </trkpt>
      <trkpt lat="42.99746899999963" lon="-1.3285429999999996">
        <ele>898.009</ele>
        <time>2022-08-24T12:48:32Z</time>
      </trkpt>
      <trkpt lat="42.99742799999963" lon="-1.3285739999999995">
        <ele>898.083</ele>
        <time>2022-08-24T12:48:33Z</time>
      </trkpt>
      <trkpt lat="42.99737399999963" lon="-1.3286329999999995">
        <ele>897.883</ele>
        <time>2022-08-24T12:48:34Z</time>
      </trkpt>
      <trkpt lat="42.99724999999963" lon="-1.3287659999999994">
        <ele>897.673</ele>
        <time>2022-08-24T12:48:37Z</time>
      </trkpt>
      <trkpt lat="42.99722199999963" lon="-1.3288099999999994">
        <ele>897.689</ele>
        <time>2022-08-24T12:48:38Z</time>
      </trkpt>
      <trkpt lat="42.997175999999634" lon="-1.3288989999999994">
        <ele>897.631</ele>
        <time>2022-08-24T12:48:40Z</time>
      </trkpt>
      <trkpt lat="42.997149999999635" lon="-1.3289459999999993">
        <ele>897.458</ele>
        <time>2022-08-24T12:48:41Z</time>
      </trkpt>
      <trkpt lat="42.99713199999964" lon="-1.3289959999999994">
        <ele>897.231</ele>
        <time>2022-08-24T12:48:42Z</time>
      </trkpt>
      <trkpt lat="42.99711799999964" lon="-1.3290569999999995">
        <ele>897.085</ele>
        <time>2022-08-24T12:48:43Z</time>
      </trkpt>
      <trkpt lat="42.997098999999636" lon="-1.3291209999999996">
        <ele>896.644</ele>
        <time>2022-08-24T12:48:44Z</time>
      </trkpt>
      <trkpt lat="42.99706499999964" lon="-1.3291969999999995">
        <ele>896.467</ele>
        <time>2022-08-24T12:48:45Z</time>
      </trkpt>
      <trkpt lat="42.99703899999964" lon="-1.3292469999999996">
        <ele>896.081</ele>
        <time>2022-08-24T12:48:46Z</time>
      </trkpt>
      <trkpt lat="42.99697399999964" lon="-1.3294599999999996">
        <ele>895.419</ele>
        <time>2022-08-24T12:48:49Z</time>
      </trkpt>
      <trkpt lat="42.99692499999964" lon="-1.3296029999999996">
        <ele>895.209</ele>
        <time>2022-08-24T12:48:51Z</time>
      </trkpt>
      <trkpt lat="42.99689799999964" lon="-1.3296729999999997">
        <ele>895.237</ele>
        <time>2022-08-24T12:48:52Z</time>
      </trkpt>
      <trkpt lat="42.99686399999964" lon="-1.3297419999999998">
        <ele>895.047</ele>
        <time>2022-08-24T12:48:53Z</time>
      </trkpt>
      <trkpt lat="42.99684599999964" lon="-1.3297789999999998">
        <ele>894.657</ele>
        <time>2022-08-24T12:48:54Z</time>
      </trkpt>
      <trkpt lat="42.99683199999964" lon="-1.3298199999999998">
        <ele>894.273</ele>
        <time>2022-08-24T12:48:55Z</time>
      </trkpt>
      <trkpt lat="42.99680799999964" lon="-1.3298879999999997">
        <ele>893.835</ele>
        <time>2022-08-24T12:48:56Z</time>
      </trkpt>
      <trkpt lat="42.99679199999964" lon="-1.3299549999999998">
        <ele>893.872</ele>
        <time>2022-08-24T12:48:57Z</time>
      </trkpt>
      <trkpt lat="42.99675799999964" lon="-1.3300509999999999">
        <ele>893.285</ele>
        <time>2022-08-24T12:48:58Z</time>
      </trkpt>
      <trkpt lat="42.996702999999634" lon="-1.3301599999999998">
        <ele>893.079</ele>
        <time>2022-08-24T12:48:59Z</time>
      </trkpt>
      <trkpt lat="42.996634999999635" lon="-1.3302399999999999">
        <ele>892.668</ele>
        <time>2022-08-24T12:49:00Z</time>
      </trkpt>
      <trkpt lat="42.996583999999636" lon="-1.3302979999999998">
        <ele>892.615</ele>
        <time>2022-08-24T12:49:01Z</time>
      </trkpt>
      <trkpt lat="42.996539999999634" lon="-1.3303409999999998">
        <ele>892.665</ele>
        <time>2022-08-24T12:49:02Z</time>
      </trkpt>
      <trkpt lat="42.996488999999634" lon="-1.3303689999999997">
        <ele>892.211</ele>
        <time>2022-08-24T12:49:03Z</time>
      </trkpt>
      <trkpt lat="42.99643999999964" lon="-1.3303819999999997">
        <ele>892.009</ele>
        <time>2022-08-24T12:49:04Z</time>
      </trkpt>
      <trkpt lat="42.996392999999635" lon="-1.3303839999999998">
        <ele>891.852</ele>
        <time>2022-08-24T12:49:05Z</time>
      </trkpt>
      <trkpt lat="42.996344999999636" lon="-1.33038">
        <ele>891.692</ele>
        <time>2022-08-24T12:49:06Z</time>
      </trkpt>
      <trkpt lat="42.996296999999636" lon="-1.330369">
        <ele>891.052</ele>
        <time>2022-08-24T12:49:07Z</time>
      </trkpt>
      <trkpt lat="42.99624199999963" lon="-1.33036">
        <ele>890.678</ele>
        <time>2022-08-24T12:49:08Z</time>
      </trkpt>
      <trkpt lat="42.996085999999636" lon="-1.330336">
        <ele>889.890</ele>
        <time>2022-08-24T12:49:11Z</time>
      </trkpt>
      <trkpt lat="42.996029999999635" lon="-1.330325">
        <ele>889.677</ele>
        <time>2022-08-24T12:49:12Z</time>
      </trkpt>
      <trkpt lat="42.995694999999635" lon="-1.330222">
        <ele>888.850</ele>
        <time>2022-08-24T12:49:18Z</time>
      </trkpt>
      <trkpt lat="42.99564099999964" lon="-1.330205">
        <ele>888.694</ele>
        <time>2022-08-24T12:49:19Z</time>
      </trkpt>
      <trkpt lat="42.99558699999964" lon="-1.330189">
        <ele>888.673</ele>
        <time>2022-08-24T12:49:20Z</time>
      </trkpt>
      <trkpt lat="42.99553399999964" lon="-1.330173">
        <ele>888.617</ele>
        <time>2022-08-24T12:49:21Z</time>
      </trkpt>
      <trkpt lat="42.99548199999964" lon="-1.330158">
        <ele>888.687</ele>
        <time>2022-08-24T12:49:22Z</time>
      </trkpt>
      <trkpt lat="42.99543099999964" lon="-1.3301429999999999">
        <ele>888.615</ele>
        <time>2022-08-24T12:49:23Z</time>
      </trkpt>
      <trkpt lat="42.99538099999964" lon="-1.3301279999999998">
        <ele>888.409</ele>
        <time>2022-08-24T12:49:24Z</time>
      </trkpt>
      <trkpt lat="42.99533199999964" lon="-1.3301159999999999">
        <ele>888.482</ele>
        <time>2022-08-24T12:49:25Z</time>
      </trkpt>
      <trkpt lat="42.99527399999964" lon="-1.3301029999999998">
        <ele>888.492</ele>
        <time>2022-08-24T12:49:26Z</time>
      </trkpt>
      <trkpt lat="42.99523499999964" lon="-1.3300929999999997">
        <ele>888.452</ele>
        <time>2022-08-24T12:49:27Z</time>
      </trkpt>
      <trkpt lat="42.99518499999964" lon="-1.3300799999999997">
        <ele>888.468</ele>
        <time>2022-08-24T12:49:28Z</time>
      </trkpt>
      <trkpt lat="42.99512799999964" lon="-1.3300689999999997">
        <ele>888.610</ele>
        <time>2022-08-24T12:49:29Z</time>
      </trkpt>
      <trkpt lat="42.99509399999964" lon="-1.3300619999999996">
        <ele>888.667</ele>
        <time>2022-08-24T12:49:30Z</time>
      </trkpt>
      <trkpt lat="42.995052999999636" lon="-1.3300559999999997">
        <ele>888.630</ele>
        <time>2022-08-24T12:49:31Z</time>
      </trkpt>
      <trkpt lat="42.99501299999964" lon="-1.3300419999999997">
        <ele>888.844</ele>
        <time>2022-08-24T12:49:32Z</time>
      </trkpt>
      <trkpt lat="42.994974999999634" lon="-1.3300299999999998">
        <ele>888.823</ele>
        <time>2022-08-24T12:49:33Z</time>
      </trkpt>
      <trkpt lat="42.994932999999634" lon="-1.3300159999999999">
        <ele>889.266</ele>
        <time>2022-08-24T12:49:34Z</time>
      </trkpt>
      <trkpt lat="42.99490499999963" lon="-1.3300079999999999">
        <ele>889.429</ele>
        <time>2022-08-24T12:49:35Z</time>
      </trkpt>
      <trkpt lat="42.994794999999634" lon="-1.329988">
        <ele>889.621</ele>
        <time>2022-08-24T12:49:38Z</time>
      </trkpt>
      <trkpt lat="42.994636999999635" lon="-1.329933">
        <ele>889.809</ele>
        <time>2022-08-24T12:49:42Z</time>
      </trkpt>
      <trkpt lat="42.994515999999635" lon="-1.329903">
        <ele>889.837</ele>
        <time>2022-08-24T12:49:45Z</time>
      </trkpt>
      <trkpt lat="42.99448599999963" lon="-1.329897">
        <ele>889.827</ele>
        <time>2022-08-24T12:49:46Z</time>
      </trkpt>
      <trkpt lat="42.99444799999963" lon="-1.329889">
        <ele>889.847</ele>
        <time>2022-08-24T12:49:47Z</time>
      </trkpt>
      <trkpt lat="42.99441199999963" lon="-1.329882">
        <ele>889.843</ele>
        <time>2022-08-24T12:49:48Z</time>
      </trkpt>
      <trkpt lat="42.994375999999626" lon="-1.329874">
        <ele>889.825</ele>
        <time>2022-08-24T12:49:49Z</time>
      </trkpt>
      <trkpt lat="42.994336999999625" lon="-1.329865">
        <ele>889.832</ele>
        <time>2022-08-24T12:49:50Z</time>
      </trkpt>
      <trkpt lat="42.99431599999963" lon="-1.329855">
        <ele>889.645</ele>
        <time>2022-08-24T12:49:51Z</time>
      </trkpt>
      <trkpt lat="42.994291999999625" lon="-1.329844">
        <ele>889.649</ele>
        <time>2022-08-24T12:49:52Z</time>
      </trkpt>
      <trkpt lat="42.99426799999962" lon="-1.329829">
        <ele>889.698</ele>
        <time>2022-08-24T12:49:53Z</time>
      </trkpt>
      <trkpt lat="42.99424499999962" lon="-1.3298109999999999">
        <ele>889.653</ele>
        <time>2022-08-24T12:49:54Z</time>
      </trkpt>
      <trkpt lat="42.99422299999962" lon="-1.3297959999999998">
        <ele>889.604</ele>
        <time>2022-08-24T12:49:55Z</time>
      </trkpt>
      <trkpt lat="42.99420299999962" lon="-1.3297829999999997">
        <ele>889.614</ele>
        <time>2022-08-24T12:49:56Z</time>
      </trkpt>
      <trkpt lat="42.99418299999962" lon="-1.3297659999999998">
        <ele>889.609</ele>
        <time>2022-08-24T12:49:57Z</time>
      </trkpt>
      <trkpt lat="42.99417299999962" lon="-1.3297509999999997">
        <ele>889.456</ele>
        <time>2022-08-24T12:49:58Z</time>
      </trkpt>
      <trkpt lat="42.99415899999962" lon="-1.3297289999999997">
        <ele>889.426</ele>
        <time>2022-08-24T12:49:59Z</time>
      </trkpt>
      <trkpt lat="42.99405499999962" lon="-1.3295749999999997">
        <ele>889.296</ele>
        <time>2022-08-24T12:50:05Z</time>
      </trkpt>
      <trkpt lat="42.99402999999962" lon="-1.3295609999999998">
        <ele>889.242</ele>
        <time>2022-08-24T12:50:06Z</time>
      </trkpt>
      <trkpt lat="42.99400099999962" lon="-1.3295609999999998">
        <ele>889.234</ele>
        <time>2022-08-24T12:50:07Z</time>
      </trkpt>
      <trkpt lat="42.99397099999962" lon="-1.3295769999999998">
        <ele>889.271</ele>
        <time>2022-08-24T12:50:08Z</time>
      </trkpt>
      <trkpt lat="42.99390799999962" lon="-1.3296279999999998">
        <ele>889.254</ele>
        <time>2022-08-24T12:50:10Z</time>
      </trkpt>
      <trkpt lat="42.99387399999962" lon="-1.3296629999999998">
        <ele>889.068</ele>
        <time>2022-08-24T12:50:11Z</time>
      </trkpt>
      <trkpt lat="42.99383699999962" lon="-1.3296979999999998">
        <ele>889.067</ele>
        <time>2022-08-24T12:50:12Z</time>
      </trkpt>
      <trkpt lat="42.99375599999962" lon="-1.3297739999999998">
        <ele>888.843</ele>
        <time>2022-08-24T12:50:14Z</time>
      </trkpt>
      <trkpt lat="42.99371499999962" lon="-1.3298119999999998">
        <ele>888.864</ele>
        <time>2022-08-24T12:50:15Z</time>
      </trkpt>
      <trkpt lat="42.99338899999962" lon="-1.3301279999999998">
        <ele>888.010</ele>
        <time>2022-08-24T12:50:23Z</time>
      </trkpt>
      <trkpt lat="42.99324499999962" lon="-1.3302679999999998">
        <ele>887.809</ele>
        <time>2022-08-24T12:50:26Z</time>
      </trkpt>
      <trkpt lat="42.99301299999962" lon="-1.3304949999999998">
        <ele>887.025</ele>
        <time>2022-08-24T12:50:31Z</time>
      </trkpt>
      <trkpt lat="42.99289899999962" lon="-1.3306089999999997">
        <ele>886.655</ele>
        <time>2022-08-24T12:50:33Z</time>
      </trkpt>
      <trkpt lat="42.99263899999962" lon="-1.3308639999999996">
        <ele>885.625</ele>
        <time>2022-08-24T12:50:38Z</time>
      </trkpt>
      <trkpt lat="42.99247499999962" lon="-1.3310469999999996">
        <ele>885.041</ele>
        <time>2022-08-24T12:50:41Z</time>
      </trkpt>
      <trkpt lat="42.992428999999625" lon="-1.3311029999999997">
        <ele>884.823</ele>
        <time>2022-08-24T12:50:42Z</time>
      </trkpt>
      <trkpt lat="42.992394999999625" lon="-1.3311469999999996">
        <ele>884.660</ele>
        <time>2022-08-24T12:50:43Z</time>
      </trkpt>
      <trkpt lat="42.99237399999963" lon="-1.3311849999999996">
        <ele>884.443</ele>
        <time>2022-08-24T12:50:44Z</time>
      </trkpt>
      <trkpt lat="42.99235699999963" lon="-1.3312189999999997">
        <ele>883.847</ele>
        <time>2022-08-24T12:50:45Z</time>
      </trkpt>
      <trkpt lat="42.99233899999963" lon="-1.3312509999999997">
        <ele>883.696</ele>
        <time>2022-08-24T12:50:46Z</time>
      </trkpt>
      <trkpt lat="42.99232799999963" lon="-1.3312679999999997">
        <ele>883.424</ele>
        <time>2022-08-24T12:50:47Z</time>
      </trkpt>
      <trkpt lat="42.99231299999963" lon="-1.3312929999999996">
        <ele>883.204</ele>
        <time>2022-08-24T12:50:48Z</time>
      </trkpt>
      <trkpt lat="42.99229999999963" lon="-1.3313159999999997">
        <ele>883.014</ele>
        <time>2022-08-24T12:50:49Z</time>
      </trkpt>
      <trkpt lat="42.99228699999963" lon="-1.3313369999999998">
        <ele>882.809</ele>
        <time>2022-08-24T12:50:50Z</time>
      </trkpt>
      <trkpt lat="42.99226999999963" lon="-1.3313479999999998">
        <ele>882.633</ele>
        <time>2022-08-24T12:50:51Z</time>
      </trkpt>
      <trkpt lat="42.992256999999626" lon="-1.3313379999999997">
        <ele>882.443</ele>
        <time>2022-08-24T12:50:52Z</time>
      </trkpt>
      <trkpt lat="42.99225299999963" lon="-1.3313159999999997">
        <ele>882.253</ele>
        <time>2022-08-24T12:50:53Z</time>
      </trkpt>
      <trkpt lat="42.99225799999963" lon="-1.3312919999999997">
        <ele>882.259</ele>
        <time>2022-08-24T12:50:54Z</time>
      </trkpt>
      <trkpt lat="42.99226499999963" lon="-1.3312689999999996">
        <ele>882.081</ele>
        <time>2022-08-24T12:50:55Z</time>
      </trkpt>
      <trkpt lat="42.992270999999626" lon="-1.3312369999999996">
        <ele>882.018</ele>
        <time>2022-08-24T12:50:56Z</time>
      </trkpt>
      <trkpt lat="42.99225299999963" lon="-1.3310229999999996">
        <ele>882.061</ele>
        <time>2022-08-24T12:51:01Z</time>
      </trkpt>
      <trkpt lat="42.99223599999963" lon="-1.3309839999999997">
        <ele>882.035</ele>
        <time>2022-08-24T12:51:02Z</time>
      </trkpt>
      <trkpt lat="42.99221399999963" lon="-1.3309399999999998">
        <ele>882.044</ele>
        <time>2022-08-24T12:51:03Z</time>
      </trkpt>
      <trkpt lat="42.992197999999625" lon="-1.3309129999999998">
        <ele>882.063</ele>
        <time>2022-08-24T12:51:04Z</time>
      </trkpt>
      <trkpt lat="42.992175999999624" lon="-1.330882">
        <ele>882.044</ele>
        <time>2022-08-24T12:51:05Z</time>
      </trkpt>
      <trkpt lat="42.992152999999625" lon="-1.330854">
        <ele>882.018</ele>
        <time>2022-08-24T12:51:06Z</time>
      </trkpt>
      <trkpt lat="42.99213199999963" lon="-1.330826">
        <ele>882.209</ele>
        <time>2022-08-24T12:51:07Z</time>
      </trkpt>
      <trkpt lat="42.99207799999963" lon="-1.330778">
        <ele>882.457</ele>
        <time>2022-08-24T12:51:09Z</time>
      </trkpt>
      <trkpt lat="42.99202399999963" lon="-1.330764">
        <ele>882.637</ele>
        <time>2022-08-24T12:51:11Z</time>
      </trkpt>
      <trkpt lat="42.99198699999963" lon="-1.330777">
        <ele>882.837</ele>
        <time>2022-08-24T12:51:12Z</time>
      </trkpt>
      <trkpt lat="42.99189699999963" lon="-1.3308550000000001">
        <ele>883.223</ele>
        <time>2022-08-24T12:51:15Z</time>
      </trkpt>
      <trkpt lat="42.991864999999635" lon="-1.330885">
        <ele>883.235</ele>
        <time>2022-08-24T12:51:16Z</time>
      </trkpt>
      <trkpt lat="42.99175599999963" lon="-1.3309980000000001">
        <ele>883.432</ele>
        <time>2022-08-24T12:51:19Z</time>
      </trkpt>
      <trkpt lat="42.99152799999963" lon="-1.3312700000000002">
        <ele>883.075</ele>
        <time>2022-08-24T12:51:26Z</time>
      </trkpt>
      <trkpt lat="42.991487999999634" lon="-1.3313210000000002">
        <ele>883.259</ele>
        <time>2022-08-24T12:51:27Z</time>
      </trkpt>
      <trkpt lat="42.99129699999963" lon="-1.3315630000000003">
        <ele>883.238</ele>
        <time>2022-08-24T12:51:33Z</time>
      </trkpt>
      <trkpt lat="42.991262999999634" lon="-1.3316060000000003">
        <ele>883.257</ele>
        <time>2022-08-24T12:51:34Z</time>
      </trkpt>
      <trkpt lat="42.99122099999963" lon="-1.3316520000000003">
        <ele>883.200</ele>
        <time>2022-08-24T12:51:35Z</time>
      </trkpt>
      <trkpt lat="42.99096899999963" lon="-1.3320210000000003">
        <ele>883.220</ele>
        <time>2022-08-24T12:51:43Z</time>
      </trkpt>
      <trkpt lat="42.99093499999963" lon="-1.3320610000000004">
        <ele>883.209</ele>
        <time>2022-08-24T12:51:44Z</time>
      </trkpt>
      <trkpt lat="42.99090299999963" lon="-1.3321070000000004">
        <ele>883.046</ele>
        <time>2022-08-24T12:51:45Z</time>
      </trkpt>
      <trkpt lat="42.99084499999963" lon="-1.3322010000000004">
        <ele>883.056</ele>
        <time>2022-08-24T12:51:47Z</time>
      </trkpt>
      <trkpt lat="42.99078499999963" lon="-1.3322920000000005">
        <ele>882.836</ele>
        <time>2022-08-24T12:51:49Z</time>
      </trkpt>
      <trkpt lat="42.99054599999963" lon="-1.3326250000000004">
        <ele>882.242</ele>
        <time>2022-08-24T12:51:56Z</time>
      </trkpt>
      <trkpt lat="42.99051599999963" lon="-1.3326670000000005">
        <ele>882.064</ele>
        <time>2022-08-24T12:51:57Z</time>
      </trkpt>
      <trkpt lat="42.99048899999963" lon="-1.3327100000000005">
        <ele>881.831</ele>
        <time>2022-08-24T12:51:58Z</time>
      </trkpt>
      <trkpt lat="42.990461999999624" lon="-1.3327510000000005">
        <ele>881.854</ele>
        <time>2022-08-24T12:51:59Z</time>
      </trkpt>
      <trkpt lat="42.99043499999962" lon="-1.3327950000000004">
        <ele>881.618</ele>
        <time>2022-08-24T12:52:00Z</time>
      </trkpt>
      <trkpt lat="42.99033999999962" lon="-1.3329190000000004">
        <ele>881.457</ele>
        <time>2022-08-24T12:52:03Z</time>
      </trkpt>
      <trkpt lat="42.99011699999962" lon="-1.3332630000000003">
        <ele>881.256</ele>
        <time>2022-08-24T12:52:10Z</time>
      </trkpt>
      <trkpt lat="42.99008399999962" lon="-1.3333120000000003">
        <ele>881.059</ele>
        <time>2022-08-24T12:52:11Z</time>
      </trkpt>
      <trkpt lat="42.98994999999962" lon="-1.3334990000000002">
        <ele>880.814</ele>
        <time>2022-08-24T12:52:15Z</time>
      </trkpt>
      <trkpt lat="42.98991799999962" lon="-1.3335460000000001">
        <ele>880.809</ele>
        <time>2022-08-24T12:52:16Z</time>
      </trkpt>
      <trkpt lat="42.98984699999962" lon="-1.333633">
        <ele>880.636</ele>
        <time>2022-08-24T12:52:18Z</time>
      </trkpt>
      <trkpt lat="42.98963699999962" lon="-1.333915">
        <ele>880.436</ele>
        <time>2022-08-24T12:52:24Z</time>
      </trkpt>
      <trkpt lat="42.98960299999962" lon="-1.333965">
        <ele>880.446</ele>
        <time>2022-08-24T12:52:25Z</time>
      </trkpt>
      <trkpt lat="42.989496999999616" lon="-1.334117">
        <ele>880.262</ele>
        <time>2022-08-24T12:52:28Z</time>
      </trkpt>
      <trkpt lat="42.98946499999962" lon="-1.334167">
        <ele>880.074</ele>
        <time>2022-08-24T12:52:29Z</time>
      </trkpt>
      <trkpt lat="42.98943399999962" lon="-1.3342180000000001">
        <ele>880.041</ele>
        <time>2022-08-24T12:52:30Z</time>
      </trkpt>
      <trkpt lat="42.98939899999962" lon="-1.334267">
        <ele>879.684</ele>
        <time>2022-08-24T12:52:31Z</time>
      </trkpt>
      <trkpt lat="42.98936599999962" lon="-1.3343120000000002">
        <ele>879.678</ele>
        <time>2022-08-24T12:52:32Z</time>
      </trkpt>
      <trkpt lat="42.98933199999962" lon="-1.3343580000000002">
        <ele>879.477</ele>
        <time>2022-08-24T12:52:33Z</time>
      </trkpt>
      <trkpt lat="42.98929799999962" lon="-1.3344040000000001">
        <ele>879.445</ele>
        <time>2022-08-24T12:52:34Z</time>
      </trkpt>
      <trkpt lat="42.98926699999962" lon="-1.3344470000000002">
        <ele>879.247</ele>
        <time>2022-08-24T12:52:35Z</time>
      </trkpt>
      <trkpt lat="42.989234999999624" lon="-1.3344850000000001">
        <ele>879.211</ele>
        <time>2022-08-24T12:52:36Z</time>
      </trkpt>
      <trkpt lat="42.98908199999963" lon="-1.3347220000000002">
        <ele>879.209</ele>
        <time>2022-08-24T12:52:41Z</time>
      </trkpt>
      <trkpt lat="42.98905099999963" lon="-1.3347740000000001">
        <ele>879.225</ele>
        <time>2022-08-24T12:52:42Z</time>
      </trkpt>
      <trkpt lat="42.98903099999963" lon="-1.334821">
        <ele>879.025</ele>
        <time>2022-08-24T12:52:43Z</time>
      </trkpt>
      <trkpt lat="42.98901899999963" lon="-1.334862">
        <ele>879.225</ele>
        <time>2022-08-24T12:52:44Z</time>
      </trkpt>
      <trkpt lat="42.98901499999963" lon="-1.3349">
        <ele>879.041</ele>
        <time>2022-08-24T12:52:45Z</time>
      </trkpt>
      <trkpt lat="42.98901199999963" lon="-1.3349309999999999">
        <ele>879.013</ele>
        <time>2022-08-24T12:52:46Z</time>
      </trkpt>
      <trkpt lat="42.988999999999635" lon="-1.334952">
        <ele>878.830</ele>
        <time>2022-08-24T12:52:47Z</time>
      </trkpt>
      <trkpt lat="42.98898099999963" lon="-1.334968">
        <ele>878.843</ele>
        <time>2022-08-24T12:52:48Z</time>
      </trkpt>
      <trkpt lat="42.98895899999963" lon="-1.334981">
        <ele>878.887</ele>
        <time>2022-08-24T12:52:49Z</time>
      </trkpt>
      <trkpt lat="42.98882699999963" lon="-1.3351279999999999">
        <ele>878.666</ele>
        <time>2022-08-24T12:52:55Z</time>
      </trkpt>
      <trkpt lat="42.98881399999963" lon="-1.335168">
        <ele>878.633</ele>
        <time>2022-08-24T12:52:56Z</time>
      </trkpt>
      <trkpt lat="42.98880699999963" lon="-1.335213">
        <ele>878.623</ele>
        <time>2022-08-24T12:52:57Z</time>
      </trkpt>
      <trkpt lat="42.98880499999963" lon="-1.335261">
        <ele>878.615</ele>
        <time>2022-08-24T12:52:58Z</time>
      </trkpt>
      <trkpt lat="42.98880599999963" lon="-1.33531">
        <ele>878.609</ele>
        <time>2022-08-24T12:52:59Z</time>
      </trkpt>
      <trkpt lat="42.98880799999963" lon="-1.335357">
        <ele>878.634</ele>
        <time>2022-08-24T12:53:00Z</time>
      </trkpt>
      <trkpt lat="42.98880999999963" lon="-1.3354009999999998">
        <ele>878.434</ele>
        <time>2022-08-24T12:53:01Z</time>
      </trkpt>
      <trkpt lat="42.98881499999963" lon="-1.335443">
        <ele>878.454</ele>
        <time>2022-08-24T12:53:02Z</time>
      </trkpt>
      <trkpt lat="42.98882699999963" lon="-1.335478">
        <ele>878.440</ele>
        <time>2022-08-24T12:53:03Z</time>
      </trkpt>
      <trkpt lat="42.98884099999963" lon="-1.3355089999999998">
        <ele>878.422</ele>
        <time>2022-08-24T12:53:04Z</time>
      </trkpt>
      <trkpt lat="42.98885299999963" lon="-1.3355369999999998">
        <ele>878.469</ele>
        <time>2022-08-24T12:53:05Z</time>
      </trkpt>
      <trkpt lat="42.98886499999963" lon="-1.3355629999999998">
        <ele>878.412</ele>
        <time>2022-08-24T12:53:06Z</time>
      </trkpt>
      <trkpt lat="42.988882999999625" lon="-1.3355829999999997">
        <ele>878.836</ele>
        <time>2022-08-24T12:53:07Z</time>
      </trkpt>
      <trkpt lat="42.98890399999962" lon="-1.3355969999999997">
        <ele>879.045</ele>
        <time>2022-08-24T12:53:08Z</time>
      </trkpt>
      <trkpt lat="42.98891299999962" lon="-1.3356129999999997">
        <ele>879.454</ele>
        <time>2022-08-24T12:53:09Z</time>
      </trkpt>
      <trkpt lat="42.98891699999962" lon="-1.3356209999999997">
        <ele>879.656</ele>
        <time>2022-08-24T12:53:10Z</time>
      </trkpt>
      <trkpt lat="42.988911999999615" lon="-1.3356149999999998">
        <ele>879.611</ele>
        <time>2022-08-24T12:53:11Z</time>
      </trkpt>
      <trkpt lat="42.98890799999962" lon="-1.3356069999999998">
        <ele>879.609</ele>
        <time>2022-08-24T12:53:12Z</time>
      </trkpt>
      <trkpt lat="42.98889899999962" lon="-1.3355939999999997">
        <ele>879.656</ele>
        <time>2022-08-24T12:53:13Z</time>
      </trkpt>
      <trkpt lat="42.98887399999962" lon="-1.3355689999999998">
        <ele>879.436</ele>
        <time>2022-08-24T12:53:15Z</time>
      </trkpt>
      <trkpt lat="42.98884899999962" lon="-1.335511">
        <ele>879.236</ele>
        <time>2022-08-24T12:53:17Z</time>
      </trkpt>
      <trkpt lat="42.988838999999615" lon="-1.335462">
        <ele>879.082</ele>
        <time>2022-08-24T12:53:18Z</time>
      </trkpt>
      <trkpt lat="42.98883199999962" lon="-1.335402">
        <ele>879.244</ele>
        <time>2022-08-24T12:53:19Z</time>
      </trkpt>
      <trkpt lat="42.988835999999615" lon="-1.335339">
        <ele>879.081</ele>
        <time>2022-08-24T12:53:20Z</time>
      </trkpt>
      <trkpt lat="42.988841999999615" lon="-1.335264">
        <ele>879.094</ele>
        <time>2022-08-24T12:53:21Z</time>
      </trkpt>
      <trkpt lat="42.988849999999616" lon="-1.335205">
        <ele>879.078</ele>
        <time>2022-08-24T12:53:22Z</time>
      </trkpt>
      <trkpt lat="42.98885499999962" lon="-1.335154">
        <ele>879.067</ele>
        <time>2022-08-24T12:53:23Z</time>
      </trkpt>
      <trkpt lat="42.98886499999962" lon="-1.335105">
        <ele>878.861</ele>
        <time>2022-08-24T12:53:24Z</time>
      </trkpt>
      <trkpt lat="42.98887799999962" lon="-1.335073">
        <ele>878.821</ele>
        <time>2022-08-24T12:53:25Z</time>
      </trkpt>
      <trkpt lat="42.988890999999626" lon="-1.335038">
        <ele>878.813</ele>
        <time>2022-08-24T12:53:26Z</time>
      </trkpt>
      <trkpt lat="42.98890599999962" lon="-1.335">
        <ele>878.809</ele>
        <time>2022-08-24T12:53:27Z</time>
      </trkpt>
      <trkpt lat="42.988919999999624" lon="-1.334968">
        <ele>878.817</ele>
        <time>2022-08-24T12:53:28Z</time>
      </trkpt>
      <trkpt lat="42.98893499999962" lon="-1.33494">
        <ele>878.687</ele>
        <time>2022-08-24T12:53:29Z</time>
      </trkpt>
      <trkpt lat="42.98894999999962" lon="-1.334911">
        <ele>878.657</ele>
        <time>2022-08-24T12:53:30Z</time>
      </trkpt>
      <trkpt lat="42.98895799999962" lon="-1.334886">
        <ele>878.653</ele>
        <time>2022-08-24T12:53:31Z</time>
      </trkpt>
      <trkpt lat="42.98895899999962" lon="-1.334861">
        <ele>878.625</ele>
        <time>2022-08-24T12:53:32Z</time>
      </trkpt>
      <trkpt lat="42.988959999999615" lon="-1.3348330000000002">
        <ele>878.622</ele>
        <time>2022-08-24T12:53:33Z</time>
      </trkpt>
      <trkpt lat="42.98895499999961" lon="-1.3348030000000002">
        <ele>878.635</ele>
        <time>2022-08-24T12:53:34Z</time>
      </trkpt>
      <trkpt lat="42.98894799999962" lon="-1.3347860000000003">
        <ele>878.629</ele>
        <time>2022-08-24T12:53:35Z</time>
      </trkpt>
      <trkpt lat="42.98894099999962" lon="-1.3347710000000002">
        <ele>878.648</ele>
        <time>2022-08-24T12:53:36Z</time>
      </trkpt>
      <trkpt lat="42.98893499999962" lon="-1.3347590000000003">
        <ele>878.657</ele>
        <time>2022-08-24T12:53:37Z</time>
      </trkpt>
      <trkpt lat="42.98893299999962" lon="-1.3347520000000002">
        <ele>878.400</ele>
        <time>2022-08-24T12:53:58Z</time>
      </trkpt>
      <trkpt lat="42.98894699999962" lon="-1.334745">
        <ele>878.420</ele>
        <time>2022-08-24T12:53:59Z</time>
      </trkpt>
      <trkpt lat="42.98896299999962" lon="-1.334748">
        <ele>878.409</ele>
        <time>2022-08-24T12:54:00Z</time>
      </trkpt>
      <trkpt lat="42.98901999999962" lon="-1.334848">
        <ele>878.426</ele>
        <time>2022-08-24T12:54:04Z</time>
      </trkpt>
      <trkpt lat="42.98903099999962" lon="-1.33488">
        <ele>878.476</ele>
        <time>2022-08-24T12:54:05Z</time>
      </trkpt>
      <trkpt lat="42.98904399999962" lon="-1.334913">
        <ele>878.476</ele>
        <time>2022-08-24T12:54:06Z</time>
      </trkpt>
      <trkpt lat="42.98915199999962" lon="-1.335137">
        <ele>878.832</ele>
        <time>2022-08-24T12:54:12Z</time>
      </trkpt>
      <trkpt lat="42.98917099999962" lon="-1.335166">
        <ele>878.854</ele>
        <time>2022-08-24T12:54:13Z</time>
      </trkpt>
      <trkpt lat="42.989186999999625" lon="-1.335201">
        <ele>878.881</ele>
        <time>2022-08-24T12:54:14Z</time>
      </trkpt>
      <trkpt lat="42.989200999999625" lon="-1.335237">
        <ele>879.024</ele>
        <time>2022-08-24T12:54:15Z</time>
      </trkpt>
      <trkpt lat="42.989217999999624" lon="-1.33527">
        <ele>879.068</ele>
        <time>2022-08-24T12:54:16Z</time>
      </trkpt>
      <trkpt lat="42.989237999999624" lon="-1.335302">
        <ele>879.027</ele>
        <time>2022-08-24T12:54:17Z</time>
      </trkpt>
      <trkpt lat="42.989253999999626" lon="-1.3353329999999999">
        <ele>879.243</ele>
        <time>2022-08-24T12:54:18Z</time>
      </trkpt>
      <trkpt lat="42.989267999999626" lon="-1.335365">
        <ele>879.464</ele>
        <time>2022-08-24T12:54:19Z</time>
      </trkpt>
      <trkpt lat="42.989279999999624" lon="-1.335397">
        <ele>879.610</ele>
        <time>2022-08-24T12:54:20Z</time>
      </trkpt>
      <trkpt lat="42.98929599999963" lon="-1.33543">
        <ele>879.809</ele>
        <time>2022-08-24T12:54:21Z</time>
      </trkpt>
      <trkpt lat="42.989304999999625" lon="-1.3354609999999998">
        <ele>879.875</ele>
        <time>2022-08-24T12:54:22Z</time>
      </trkpt>
      <trkpt lat="42.989312999999626" lon="-1.3355349999999997">
        <ele>880.015</ele>
        <time>2022-08-24T12:54:24Z</time>
      </trkpt>
      <trkpt lat="42.98931199999963" lon="-1.3355729999999997">
        <ele>880.065</ele>
        <time>2022-08-24T12:54:25Z</time>
      </trkpt>
      <trkpt lat="42.98931499999963" lon="-1.3356079999999997">
        <ele>880.011</ele>
        <time>2022-08-24T12:54:26Z</time>
      </trkpt>
      <trkpt lat="42.989332999999625" lon="-1.3356709999999996">
        <ele>880.273</ele>
        <time>2022-08-24T12:54:28Z</time>
      </trkpt>
      <trkpt lat="42.989346999999626" lon="-1.3356989999999995">
        <ele>880.260</ele>
        <time>2022-08-24T12:54:29Z</time>
      </trkpt>
      <trkpt lat="42.98935499999963" lon="-1.3357259999999995">
        <ele>880.463</ele>
        <time>2022-08-24T12:54:30Z</time>
      </trkpt>
      <trkpt lat="42.98935999999963" lon="-1.3357509999999995">
        <ele>880.247</ele>
        <time>2022-08-24T12:54:31Z</time>
      </trkpt>
      <trkpt lat="42.989357999999626" lon="-1.3357749999999995">
        <ele>880.276</ele>
        <time>2022-08-24T12:54:32Z</time>
      </trkpt>
      <trkpt lat="42.98934899999963" lon="-1.3358019999999995">
        <ele>880.257</ele>
        <time>2022-08-24T12:54:33Z</time>
      </trkpt>
      <trkpt lat="42.989293999999624" lon="-1.3358819999999996">
        <ele>880.000</ele>
        <time>2022-08-24T12:54:36Z</time>
      </trkpt>
      <trkpt lat="42.989265999999624" lon="-1.3358989999999995">
        <ele>880.020</ele>
        <time>2022-08-24T12:54:37Z</time>
      </trkpt>
      <trkpt lat="42.98922999999962" lon="-1.3359189999999994">
        <ele>879.809</ele>
        <time>2022-08-24T12:54:38Z</time>
      </trkpt>
      <trkpt lat="42.98912599999962" lon="-1.3359939999999995">
        <ele>879.826</ele>
        <time>2022-08-24T12:54:41Z</time>
      </trkpt>
      <trkpt lat="42.98904699999962" lon="-1.3360629999999996">
        <ele>879.636</ele>
        <time>2022-08-24T12:54:43Z</time>
      </trkpt>
      <trkpt lat="42.98896299999962" lon="-1.3361259999999995">
        <ele>879.466</ele>
        <time>2022-08-24T12:54:45Z</time>
      </trkpt>
      <trkpt lat="42.98884699999962" lon="-1.3362159999999994">
        <ele>879.252</ele>
        <time>2022-08-24T12:54:48Z</time>
      </trkpt>
      <trkpt lat="42.98875999999962" lon="-1.3362729999999994">
        <ele>879.034</ele>
        <time>2022-08-24T12:54:50Z</time>
      </trkpt>
      <trkpt lat="42.988589999999625" lon="-1.3363729999999994">
        <ele>878.651</ele>
        <time>2022-08-24T12:54:54Z</time>
      </trkpt>
      <trkpt lat="42.98854599999962" lon="-1.3363969999999994">
        <ele>878.464</ele>
        <time>2022-08-24T12:54:55Z</time>
      </trkpt>
      <trkpt lat="42.988505999999624" lon="-1.3364169999999993">
        <ele>878.448</ele>
        <time>2022-08-24T12:54:56Z</time>
      </trkpt>
      <trkpt lat="42.98846699999962" lon="-1.3364379999999993">
        <ele>878.267</ele>
        <time>2022-08-24T12:54:57Z</time>
      </trkpt>
      <trkpt lat="42.98843399999962" lon="-1.3364509999999994">
        <ele>878.233</ele>
        <time>2022-08-24T12:54:58Z</time>
      </trkpt>
      <trkpt lat="42.988415999999624" lon="-1.3364709999999993">
        <ele>878.023</ele>
        <time>2022-08-24T12:54:59Z</time>
      </trkpt>
      <trkpt lat="42.98841199999963" lon="-1.3364989999999992">
        <ele>878.015</ele>
        <time>2022-08-24T12:55:00Z</time>
      </trkpt>
      <trkpt lat="42.988417999999626" lon="-1.3365259999999992">
        <ele>877.809</ele>
        <time>2022-08-24T12:55:01Z</time>
      </trkpt>
      <trkpt lat="42.98845099999963" lon="-1.3366619999999991">
        <ele>877.474</ele>
        <time>2022-08-24T12:55:05Z</time>
      </trkpt>
      <trkpt lat="42.98845899999963" lon="-1.3366969999999991">
        <ele>877.464</ele>
        <time>2022-08-24T12:55:06Z</time>
      </trkpt>
      <trkpt lat="42.98846699999963" lon="-1.3367309999999992">
        <ele>877.424</ele>
        <time>2022-08-24T12:55:07Z</time>
      </trkpt>
      <trkpt lat="42.98847499999963" lon="-1.3367629999999993">
        <ele>877.230</ele>
        <time>2022-08-24T12:55:08Z</time>
      </trkpt>
      <trkpt lat="42.98848299999963" lon="-1.3367909999999992">
        <ele>876.852</ele>
        <time>2022-08-24T12:55:09Z</time>
      </trkpt>
      <trkpt lat="42.98848899999963" lon="-1.3368119999999992">
        <ele>876.689</ele>
        <time>2022-08-24T12:55:10Z</time>
      </trkpt>
      <trkpt lat="42.98849499999963" lon="-1.3368429999999991">
        <ele>876.222</ele>
        <time>2022-08-24T12:55:11Z</time>
      </trkpt>
      <trkpt lat="42.98850199999963" lon="-1.3368849999999992">
        <ele>876.256</ele>
        <time>2022-08-24T12:55:12Z</time>
      </trkpt>
      <trkpt lat="42.98853599999963" lon="-1.3370039999999992">
        <ele>875.225</ele>
        <time>2022-08-24T12:55:15Z</time>
      </trkpt>
      <trkpt lat="42.98854599999963" lon="-1.3370469999999992">
        <ele>874.884</ele>
        <time>2022-08-24T12:55:16Z</time>
      </trkpt>
      <trkpt lat="42.98855599999963" lon="-1.3370839999999993">
        <ele>874.607</ele>
        <time>2022-08-24T12:55:17Z</time>
      </trkpt>
      <trkpt lat="42.988557999999635" lon="-1.3371159999999993">
        <ele>873.417</ele>
        <time>2022-08-24T12:55:18Z</time>
      </trkpt>
      <trkpt lat="42.988557999999635" lon="-1.3371449999999994">
        <ele>872.809</ele>
        <time>2022-08-24T12:55:19Z</time>
      </trkpt>
      <trkpt lat="42.988554999999636" lon="-1.3371749999999993">
        <ele>872.039</ele>
        <time>2022-08-24T12:55:20Z</time>
      </trkpt>
      <trkpt lat="42.98854599999964" lon="-1.3372059999999992">
        <ele>871.679</ele>
        <time>2022-08-24T12:55:21Z</time>
      </trkpt>
      <trkpt lat="42.98853699999964" lon="-1.3372339999999991">
        <ele>871.279</ele>
        <time>2022-08-24T12:55:22Z</time>
      </trkpt>
      <trkpt lat="42.988526999999635" lon="-1.3372579999999992">
        <ele>870.465</ele>
        <time>2022-08-24T12:55:23Z</time>
      </trkpt>
      <trkpt lat="42.988512999999635" lon="-1.337304999999999">
        <ele>870.267</ele>
        <time>2022-08-24T12:55:24Z</time>
      </trkpt>
      <trkpt lat="42.988512999999635" lon="-1.337304999999999">
        <ele>869.654</ele>
        <time>2022-08-24T12:55:25Z</time>
      </trkpt>
      <trkpt lat="42.98850599999964" lon="-1.337374999999999">
        <ele>869.227</ele>
        <time>2022-08-24T12:55:27Z</time>
      </trkpt>
      <trkpt lat="42.988509999999636" lon="-1.3375059999999992">
        <ele>868.871</ele>
        <time>2022-08-24T12:55:30Z</time>
      </trkpt>
      <trkpt lat="42.988520999999636" lon="-1.337587999999999">
        <ele>868.660</ele>
        <time>2022-08-24T12:55:31Z</time>
      </trkpt>
      <trkpt lat="42.988520999999636" lon="-1.337587999999999">
        <ele>868.269</ele>
        <time>2022-08-24T12:55:32Z</time>
      </trkpt>
      <trkpt lat="42.98853099999964" lon="-1.337644999999999">
        <ele>867.804</ele>
        <time>2022-08-24T12:55:33Z</time>
      </trkpt>
      <trkpt lat="42.98853499999964" lon="-1.3376679999999992">
        <ele>867.424</ele>
        <time>2022-08-24T12:55:34Z</time>
      </trkpt>
      <trkpt lat="42.988540999999636" lon="-1.3376939999999993">
        <ele>867.209</ele>
        <time>2022-08-24T12:55:35Z</time>
      </trkpt>
      <trkpt lat="42.988549999999634" lon="-1.3377209999999993">
        <ele>867.047</ele>
        <time>2022-08-24T12:55:36Z</time>
      </trkpt>
      <trkpt lat="42.988566999999634" lon="-1.3377739999999994">
        <ele>866.877</ele>
        <time>2022-08-24T12:55:38Z</time>
      </trkpt>
      <trkpt lat="42.988577999999634" lon="-1.3377989999999993">
        <ele>866.687</ele>
        <time>2022-08-24T12:55:39Z</time>
      </trkpt>
      <trkpt lat="42.98859099999964" lon="-1.3378309999999993">
        <ele>866.263</ele>
        <time>2022-08-24T12:55:41Z</time>
      </trkpt>
      <trkpt lat="42.98860999999964" lon="-1.3379199999999993">
        <ele>866.225</ele>
        <time>2022-08-24T12:55:42Z</time>
      </trkpt>
      <trkpt lat="42.98863999999964" lon="-1.3380889999999994">
        <ele>865.872</ele>
        <time>2022-08-24T12:55:45Z</time>
      </trkpt>
      <trkpt lat="42.98867299999964" lon="-1.3384329999999993">
        <ele>865.655</ele>
        <time>2022-08-24T12:55:51Z</time>
      </trkpt>
      <trkpt lat="42.988677999999645" lon="-1.3384969999999994">
        <ele>865.829</ele>
        <time>2022-08-24T12:55:52Z</time>
      </trkpt>
      <trkpt lat="42.98870199999965" lon="-1.3387439999999995">
        <ele>866.028</ele>
        <time>2022-08-24T12:55:56Z</time>
      </trkpt>
      <trkpt lat="42.98871099999965" lon="-1.3387969999999996">
        <ele>866.093</ele>
        <time>2022-08-24T12:55:57Z</time>
      </trkpt>
      <trkpt lat="42.988722999999645" lon="-1.3388509999999996">
        <ele>866.065</ele>
        <time>2022-08-24T12:55:58Z</time>
      </trkpt>
      <trkpt lat="42.988731999999644" lon="-1.3389079999999995">
        <ele>866.221</ele>
        <time>2022-08-24T12:55:59Z</time>
      </trkpt>
      <trkpt lat="42.988744999999646" lon="-1.3389579999999996">
        <ele>866.209</ele>
        <time>2022-08-24T12:56:00Z</time>
      </trkpt>
      <trkpt lat="42.98876299999964" lon="-1.3390019999999996">
        <ele>866.220</ele>
        <time>2022-08-24T12:56:01Z</time>
      </trkpt>
      <trkpt lat="42.988781999999645" lon="-1.3390479999999996">
        <ele>866.280</ele>
        <time>2022-08-24T12:56:02Z</time>
      </trkpt>
      <trkpt lat="42.98879999999964" lon="-1.3390969999999995">
        <ele>866.240</ele>
        <time>2022-08-24T12:56:03Z</time>
      </trkpt>
      <trkpt lat="42.98881799999964" lon="-1.3391459999999995">
        <ele>866.226</ele>
        <time>2022-08-24T12:56:04Z</time>
      </trkpt>
      <trkpt lat="42.98883599999964" lon="-1.3391899999999994">
        <ele>866.238</ele>
        <time>2022-08-24T12:56:05Z</time>
      </trkpt>
      <trkpt lat="42.988850999999634" lon="-1.3392349999999995">
        <ele>866.435</ele>
        <time>2022-08-24T12:56:06Z</time>
      </trkpt>
      <trkpt lat="42.98885799999963" lon="-1.3392769999999996">
        <ele>866.478</ele>
        <time>2022-08-24T12:56:07Z</time>
      </trkpt>
      <trkpt lat="42.98886599999963" lon="-1.3393139999999997">
        <ele>866.612</ele>
        <time>2022-08-24T12:56:08Z</time>
      </trkpt>
      <trkpt lat="42.98887799999963" lon="-1.3393509999999997">
        <ele>866.661</ele>
        <time>2022-08-24T12:56:09Z</time>
      </trkpt>
      <trkpt lat="42.98889499999963" lon="-1.3393929999999998">
        <ele>866.855</ele>
        <time>2022-08-24T12:56:10Z</time>
      </trkpt>
      <trkpt lat="42.98890899999963" lon="-1.3394359999999998">
        <ele>867.007</ele>
        <time>2022-08-24T12:56:11Z</time>
      </trkpt>
      <trkpt lat="42.98891999999963" lon="-1.3394739999999998">
        <ele>867.017</ele>
        <time>2022-08-24T12:56:12Z</time>
      </trkpt>
      <trkpt lat="42.98893099999963" lon="-1.3395119999999998">
        <ele>867.209</ele>
        <time>2022-08-24T12:56:13Z</time>
      </trkpt>
      <trkpt lat="42.98895399999963" lon="-1.3396169999999998">
        <ele>867.476</ele>
        <time>2022-08-24T12:56:15Z</time>
      </trkpt>
      <trkpt lat="42.98905699999963" lon="-1.339924">
        <ele>868.046</ele>
        <time>2022-08-24T12:56:23Z</time>
      </trkpt>
      <trkpt lat="42.989128999999636" lon="-1.3401379999999998">
        <ele>868.246</ele>
        <time>2022-08-24T12:56:27Z</time>
      </trkpt>
      <trkpt lat="42.989142999999636" lon="-1.3401769999999997">
        <ele>868.242</ele>
        <time>2022-08-24T12:56:28Z</time>
      </trkpt>
      <trkpt lat="42.989156999999636" lon="-1.3402209999999997">
        <ele>868.234</ele>
        <time>2022-08-24T12:56:30Z</time>
      </trkpt>
      <trkpt lat="42.989171999999634" lon="-1.3402629999999998">
        <ele>868.261</ele>
        <time>2022-08-24T12:56:31Z</time>
      </trkpt>
      <trkpt lat="42.98918699999963" lon="-1.3403019999999997">
        <ele>868.264</ele>
        <time>2022-08-24T12:56:32Z</time>
      </trkpt>
      <trkpt lat="42.98921799999963" lon="-1.3403779999999996">
        <ele>868.238</ele>
        <time>2022-08-24T12:56:33Z</time>
      </trkpt>
      <trkpt lat="42.98923199999963" lon="-1.3404179999999997">
        <ele>868.247</ele>
        <time>2022-08-24T12:56:34Z</time>
      </trkpt>
      <trkpt lat="42.98926399999963" lon="-1.3404929999999997">
        <ele>868.499</ele>
        <time>2022-08-24T12:56:36Z</time>
      </trkpt>
      <trkpt lat="42.98927799999963" lon="-1.3405279999999997">
        <ele>868.407</ele>
        <time>2022-08-24T12:56:37Z</time>
      </trkpt>
      <trkpt lat="42.98929299999963" lon="-1.3405629999999997">
        <ele>868.427</ele>
        <time>2022-08-24T12:56:38Z</time>
      </trkpt>
      <trkpt lat="42.98930599999963" lon="-1.3406009999999997">
        <ele>868.609</ele>
        <time>2022-08-24T12:56:39Z</time>
      </trkpt>
      <trkpt lat="42.98945699999963" lon="-1.3410549999999997">
        <ele>869.080</ele>
        <time>2022-08-24T12:56:49Z</time>
      </trkpt>
      <trkpt lat="42.98950199999963" lon="-1.3411789999999997">
        <ele>868.850</ele>
        <time>2022-08-24T12:56:51Z</time>
      </trkpt>
      <trkpt lat="42.98952699999963" lon="-1.3413219999999997">
        <ele>868.690</ele>
        <time>2022-08-24T12:56:53Z</time>
      </trkpt>
      <trkpt lat="42.98952399999963" lon="-1.3414039999999996">
        <ele>868.216</ele>
        <time>2022-08-24T12:56:55Z</time>
      </trkpt>
      <trkpt lat="42.98950799999963" lon="-1.3415479999999995">
        <ele>868.088</ele>
        <time>2022-08-24T12:56:56Z</time>
      </trkpt>
      <trkpt lat="42.98949799999963" lon="-1.3416159999999995">
        <ele>867.885</ele>
        <time>2022-08-24T12:56:57Z</time>
      </trkpt>
      <trkpt lat="42.98949799999963" lon="-1.3416159999999995">
        <ele>867.818</ele>
        <time>2022-08-24T12:56:58Z</time>
      </trkpt>
      <trkpt lat="42.98948099999963" lon="-1.3417539999999994">
        <ele>867.622</ele>
        <time>2022-08-24T12:56:59Z</time>
      </trkpt>
      <trkpt lat="42.98947499999963" lon="-1.3418189999999994">
        <ele>867.451</ele>
        <time>2022-08-24T12:57:00Z</time>
      </trkpt>
      <trkpt lat="42.98947499999963" lon="-1.3418189999999994">
        <ele>867.439</ele>
        <time>2022-08-24T12:57:01Z</time>
      </trkpt>
      <trkpt lat="42.989478999999626" lon="-1.3419379999999994">
        <ele>867.401</ele>
        <time>2022-08-24T12:57:02Z</time>
      </trkpt>
      <trkpt lat="42.98948599999962" lon="-1.3419949999999994">
        <ele>867.421</ele>
        <time>2022-08-24T12:57:03Z</time>
      </trkpt>
      <trkpt lat="42.98948599999962" lon="-1.3419949999999994">
        <ele>867.409</ele>
        <time>2022-08-24T12:57:04Z</time>
      </trkpt>
      <trkpt lat="42.989515999999625" lon="-1.3420939999999995">
        <ele>867.434</ele>
        <time>2022-08-24T12:57:05Z</time>
      </trkpt>
      <trkpt lat="42.98953399999962" lon="-1.3421409999999994">
        <ele>867.484</ele>
        <time>2022-08-24T12:57:06Z</time>
      </trkpt>
      <trkpt lat="42.98953399999962" lon="-1.3421409999999994">
        <ele>867.474</ele>
        <time>2022-08-24T12:57:07Z</time>
      </trkpt>
      <trkpt lat="42.98957299999962" lon="-1.3422279999999993">
        <ele>867.650</ele>
        <time>2022-08-24T12:57:08Z</time>
      </trkpt>
      <trkpt lat="42.98959399999962" lon="-1.3422649999999994">
        <ele>867.652</ele>
        <time>2022-08-24T12:57:09Z</time>
      </trkpt>
      <trkpt lat="42.98959399999962" lon="-1.3422649999999994">
        <ele>867.899</ele>
        <time>2022-08-24T12:57:10Z</time>
      </trkpt>
      <trkpt lat="42.98963399999962" lon="-1.3423349999999994">
        <ele>868.242</ele>
        <time>2022-08-24T12:57:11Z</time>
      </trkpt>
      <trkpt lat="42.98965599999962" lon="-1.3423679999999993">
        <ele>868.286</ele>
        <time>2022-08-24T12:57:12Z</time>
      </trkpt>
      <trkpt lat="42.98965599999962" lon="-1.3423679999999993">
        <ele>868.465</ele>
        <time>2022-08-24T12:57:13Z</time>
      </trkpt>
      <trkpt lat="42.98969099999962" lon="-1.3424369999999994">
        <ele>868.669</ele>
        <time>2022-08-24T12:57:14Z</time>
      </trkpt>
      <trkpt lat="42.989702999999615" lon="-1.3424719999999994">
        <ele>869.004</ele>
        <time>2022-08-24T12:57:15Z</time>
      </trkpt>
      <trkpt lat="42.989711999999614" lon="-1.3425079999999994">
        <ele>869.024</ele>
        <time>2022-08-24T12:57:16Z</time>
      </trkpt>
      <trkpt lat="42.98971899999961" lon="-1.3425459999999994">
        <ele>869.409</ele>
        <time>2022-08-24T12:57:17Z</time>
      </trkpt>
      <trkpt lat="42.98972099999961" lon="-1.3425849999999993">
        <ele>869.627</ele>
        <time>2022-08-24T12:57:18Z</time>
      </trkpt>
      <trkpt lat="42.98972399999961" lon="-1.3426229999999992">
        <ele>869.817</ele>
        <time>2022-08-24T12:57:19Z</time>
      </trkpt>
      <trkpt lat="42.989719999999615" lon="-1.3426989999999992">
        <ele>870.247</ele>
        <time>2022-08-24T12:57:21Z</time>
      </trkpt>
      <trkpt lat="42.98970999999961" lon="-1.3427749999999992">
        <ele>870.823</ele>
        <time>2022-08-24T12:57:23Z</time>
      </trkpt>
      <trkpt lat="42.98969599999961" lon="-1.3429039999999992">
        <ele>871.465</ele>
        <time>2022-08-24T12:57:26Z</time>
      </trkpt>
      <trkpt lat="42.989691999999614" lon="-1.3429469999999992">
        <ele>871.652</ele>
        <time>2022-08-24T12:57:27Z</time>
      </trkpt>
      <trkpt lat="42.989685999999615" lon="-1.3429909999999992">
        <ele>871.685</ele>
        <time>2022-08-24T12:57:28Z</time>
      </trkpt>
      <trkpt lat="42.989680999999614" lon="-1.3430329999999993">
        <ele>871.859</ele>
        <time>2022-08-24T12:57:29Z</time>
      </trkpt>
      <trkpt lat="42.98967299999961" lon="-1.3430769999999992">
        <ele>871.818</ele>
        <time>2022-08-24T12:57:30Z</time>
      </trkpt>
      <trkpt lat="42.98966499999961" lon="-1.3431199999999992">
        <ele>872.029</ele>
        <time>2022-08-24T12:57:31Z</time>
      </trkpt>
      <trkpt lat="42.98965499999961" lon="-1.3431649999999993">
        <ele>872.000</ele>
        <time>2022-08-24T12:57:32Z</time>
      </trkpt>
      <trkpt lat="42.98964799999961" lon="-1.3432139999999992">
        <ele>872.020</ele>
        <time>2022-08-24T12:57:33Z</time>
      </trkpt>
      <trkpt lat="42.989640999999615" lon="-1.3432669999999993">
        <ele>872.009</ele>
        <time>2022-08-24T12:57:34Z</time>
      </trkpt>
      <trkpt lat="42.98963699999962" lon="-1.3433189999999993">
        <ele>872.073</ele>
        <time>2022-08-24T12:57:35Z</time>
      </trkpt>
      <trkpt lat="42.98963699999962" lon="-1.3433189999999993">
        <ele>872.033</ele>
        <time>2022-08-24T12:57:36Z</time>
      </trkpt>
      <trkpt lat="42.98963099999962" lon="-1.3434289999999993">
        <ele>872.083</ele>
        <time>2022-08-24T12:57:37Z</time>
      </trkpt>
      <trkpt lat="42.98963099999962" lon="-1.3434849999999994">
        <ele>872.079</ele>
        <time>2022-08-24T12:57:38Z</time>
      </trkpt>
      <trkpt lat="42.989634999999616" lon="-1.3435429999999993">
        <ele>872.081</ele>
        <time>2022-08-24T12:57:39Z</time>
      </trkpt>
      <trkpt lat="42.989640999999615" lon="-1.3436019999999993">
        <ele>872.098</ele>
        <time>2022-08-24T12:57:40Z</time>
      </trkpt>
      <trkpt lat="42.98964599999962" lon="-1.3436629999999994">
        <ele>871.871</ele>
        <time>2022-08-24T12:57:41Z</time>
      </trkpt>
      <trkpt lat="42.98965099999962" lon="-1.3437259999999993">
        <ele>871.835</ele>
        <time>2022-08-24T12:57:42Z</time>
      </trkpt>
      <trkpt lat="42.98965299999962" lon="-1.3437899999999994">
        <ele>871.854</ele>
        <time>2022-08-24T12:57:43Z</time>
      </trkpt>
      <trkpt lat="42.98965799999962" lon="-1.3438589999999995">
        <ele>871.467</ele>
        <time>2022-08-24T12:57:44Z</time>
      </trkpt>
      <trkpt lat="42.989681999999625" lon="-1.3441509999999994">
        <ele>870.881</ele>
        <time>2022-08-24T12:57:48Z</time>
      </trkpt>
      <trkpt lat="42.989690999999624" lon="-1.3442969999999994">
        <ele>870.619</ele>
        <time>2022-08-24T12:57:50Z</time>
      </trkpt>
      <trkpt lat="42.98970899999962" lon="-1.3446939999999994">
        <ele>869.809</ele>
        <time>2022-08-24T12:57:55Z</time>
      </trkpt>
      <trkpt lat="42.98970699999962" lon="-1.3448559999999994">
        <ele>869.467</ele>
        <time>2022-08-24T12:57:57Z</time>
      </trkpt>
      <trkpt lat="42.98969799999962" lon="-1.3449279999999995">
        <ele>869.247</ele>
        <time>2022-08-24T12:57:58Z</time>
      </trkpt>
      <trkpt lat="42.98969799999962" lon="-1.3449279999999995">
        <ele>869.297</ele>
        <time>2022-08-24T12:57:59Z</time>
      </trkpt>
      <trkpt lat="42.98964899999962" lon="-1.3450599999999995">
        <ele>868.843</ele>
        <time>2022-08-24T12:58:00Z</time>
      </trkpt>
      <trkpt lat="42.989614999999624" lon="-1.3451209999999996">
        <ele>868.685</ele>
        <time>2022-08-24T12:58:01Z</time>
      </trkpt>
      <trkpt lat="42.98957999999963" lon="-1.3451799999999996">
        <ele>868.422</ele>
        <time>2022-08-24T12:58:02Z</time>
      </trkpt>
      <trkpt lat="42.989541999999624" lon="-1.3452369999999996">
        <ele>868.275</ele>
        <time>2022-08-24T12:58:03Z</time>
      </trkpt>
      <trkpt lat="42.989504999999625" lon="-1.3452899999999997">
        <ele>868.059</ele>
        <time>2022-08-24T12:58:04Z</time>
      </trkpt>
      <trkpt lat="42.98946699999962" lon="-1.3453409999999997">
        <ele>867.848</ele>
        <time>2022-08-24T12:58:05Z</time>
      </trkpt>
      <trkpt lat="42.98942999999962" lon="-1.3453919999999997">
        <ele>867.886</ele>
        <time>2022-08-24T12:58:06Z</time>
      </trkpt>
      <trkpt lat="42.989394999999625" lon="-1.3454409999999997">
        <ele>868.060</ele>
        <time>2022-08-24T12:58:07Z</time>
      </trkpt>
      <trkpt lat="42.989394999999625" lon="-1.3454409999999997">
        <ele>868.026</ele>
        <time>2022-08-24T12:58:08Z</time>
      </trkpt>
      <trkpt lat="42.989338999999624" lon="-1.3455429999999997">
        <ele>868.009</ele>
        <time>2022-08-24T12:58:09Z</time>
      </trkpt>
      <trkpt lat="42.989318999999625" lon="-1.3455959999999998">
        <ele>868.049</ele>
        <time>2022-08-24T12:58:10Z</time>
      </trkpt>
      <trkpt lat="42.989318999999625" lon="-1.3455959999999998">
        <ele>868.039</ele>
        <time>2022-08-24T12:58:11Z</time>
      </trkpt>
      <trkpt lat="42.989304999999625" lon="-1.3457159999999997">
        <ele>868.469</ele>
        <time>2022-08-24T12:58:12Z</time>
      </trkpt>
      <trkpt lat="42.98930599999962" lon="-1.3457759999999996">
        <ele>868.465</ele>
        <time>2022-08-24T12:58:13Z</time>
      </trkpt>
      <trkpt lat="42.98930599999962" lon="-1.3457759999999996">
        <ele>868.457</ele>
        <time>2022-08-24T12:58:14Z</time>
      </trkpt>
      <trkpt lat="42.989310999999624" lon="-1.3459019999999997">
        <ele>868.454</ele>
        <time>2022-08-24T12:58:15Z</time>
      </trkpt>
      <trkpt lat="42.98933099999962" lon="-1.3465329999999998">
        <ele>867.627</ele>
        <time>2022-08-24T12:58:24Z</time>
      </trkpt>
      <trkpt lat="42.98933999999962" lon="-1.3468329999999997">
        <ele>867.451</ele>
        <time>2022-08-24T12:58:28Z</time>
      </trkpt>
      <trkpt lat="42.989341999999624" lon="-1.3469019999999998">
        <ele>867.220</ele>
        <time>2022-08-24T12:58:29Z</time>
      </trkpt>
      <trkpt lat="42.989343999999626" lon="-1.3469679999999997">
        <ele>867.297</ele>
        <time>2022-08-24T12:58:30Z</time>
      </trkpt>
      <trkpt lat="42.989343999999626" lon="-1.3469679999999997">
        <ele>867.223</ele>
        <time>2022-08-24T12:58:31Z</time>
      </trkpt>
      <trkpt lat="42.98934599999963" lon="-1.3470939999999998">
        <ele>867.225</ele>
        <time>2022-08-24T12:58:32Z</time>
      </trkpt>
      <trkpt lat="42.989346999999626" lon="-1.3471559999999998">
        <ele>867.209</ele>
        <time>2022-08-24T12:58:33Z</time>
      </trkpt>
      <trkpt lat="42.98934799999962" lon="-1.3472139999999997">
        <ele>867.260</ele>
        <time>2022-08-24T12:58:34Z</time>
      </trkpt>
      <trkpt lat="42.98935199999962" lon="-1.3473319999999998">
        <ele>867.450</ele>
        <time>2022-08-24T12:58:36Z</time>
      </trkpt>
      <trkpt lat="42.98935399999962" lon="-1.3474409999999997">
        <ele>867.620</ele>
        <time>2022-08-24T12:58:38Z</time>
      </trkpt>
      <trkpt lat="42.98935499999962" lon="-1.3474979999999996">
        <ele>867.876</ele>
        <time>2022-08-24T12:58:39Z</time>
      </trkpt>
      <trkpt lat="42.98935399999962" lon="-1.3475539999999997">
        <ele>867.868</ele>
        <time>2022-08-24T12:58:40Z</time>
      </trkpt>
      <trkpt lat="42.989352999999625" lon="-1.3476089999999996">
        <ele>868.035</ele>
        <time>2022-08-24T12:58:41Z</time>
      </trkpt>
      <trkpt lat="42.989352999999625" lon="-1.3476089999999996">
        <ele>868.288</ele>
        <time>2022-08-24T12:58:42Z</time>
      </trkpt>
      <trkpt lat="42.98935399999962" lon="-1.3477129999999997">
        <ele>868.462</ele>
        <time>2022-08-24T12:58:43Z</time>
      </trkpt>
      <trkpt lat="42.98936199999962" lon="-1.3477709999999996">
        <ele>868.681</ele>
        <time>2022-08-24T12:58:44Z</time>
      </trkpt>
      <trkpt lat="42.98936199999962" lon="-1.3477709999999996">
        <ele>868.683</ele>
        <time>2022-08-24T12:58:45Z</time>
      </trkpt>
      <trkpt lat="42.989366999999625" lon="-1.3478619999999997">
        <ele>868.825</ele>
        <time>2022-08-24T12:58:46Z</time>
      </trkpt>
      <trkpt lat="42.98936599999963" lon="-1.3479069999999997">
        <ele>868.817</ele>
        <time>2022-08-24T12:58:47Z</time>
      </trkpt>
      <trkpt lat="42.98936599999963" lon="-1.3479069999999997">
        <ele>868.809</ele>
        <time>2022-08-24T12:58:48Z</time>
      </trkpt>
      <trkpt lat="42.989366999999625" lon="-1.3479999999999996">
        <ele>869.039</ele>
        <time>2022-08-24T12:58:49Z</time>
      </trkpt>
      <trkpt lat="42.98937099999962" lon="-1.3480459999999996">
        <ele>869.029</ele>
        <time>2022-08-24T12:58:50Z</time>
      </trkpt>
      <trkpt lat="42.98937499999962" lon="-1.3482089999999995">
        <ele>869.459</ele>
        <time>2022-08-24T12:58:54Z</time>
      </trkpt>
      <trkpt lat="42.98938499999962" lon="-1.3483249999999996">
        <ele>869.425</ele>
        <time>2022-08-24T12:58:55Z</time>
      </trkpt>
      <trkpt lat="42.98941899999962" lon="-1.3485239999999996">
        <ele>869.287</ele>
        <time>2022-08-24T12:58:58Z</time>
      </trkpt>
      <trkpt lat="42.989493999999624" lon="-1.3488949999999995">
        <ele>868.074</ele>
        <time>2022-08-24T12:59:04Z</time>
      </trkpt>
      <trkpt lat="42.98952599999962" lon="-1.3490579999999994">
        <ele>867.887</ele>
        <time>2022-08-24T12:59:05Z</time>
      </trkpt>
      <trkpt lat="42.989538999999624" lon="-1.3491259999999994">
        <ele>868.041</ele>
        <time>2022-08-24T12:59:06Z</time>
      </trkpt>
      <trkpt lat="42.989538999999624" lon="-1.3491259999999994">
        <ele>867.650</ele>
        <time>2022-08-24T12:59:07Z</time>
      </trkpt>
      <trkpt lat="42.98956499999962" lon="-1.3492539999999993">
        <ele>867.873</ele>
        <time>2022-08-24T12:59:08Z</time>
      </trkpt>
      <trkpt lat="42.989577999999625" lon="-1.3493169999999992">
        <ele>867.685</ele>
        <time>2022-08-24T12:59:09Z</time>
      </trkpt>
      <trkpt lat="42.989577999999625" lon="-1.3493169999999992">
        <ele>867.613</ele>
        <time>2022-08-24T12:59:10Z</time>
      </trkpt>
      <trkpt lat="42.989600999999624" lon="-1.3494339999999991">
        <ele>867.609</ele>
        <time>2022-08-24T12:59:11Z</time>
      </trkpt>
      <trkpt lat="42.98961299999962" lon="-1.3494879999999991">
        <ele>867.618</ele>
        <time>2022-08-24T12:59:12Z</time>
      </trkpt>
      <trkpt lat="42.98961299999962" lon="-1.3494879999999991">
        <ele>867.618</ele>
        <time>2022-08-24T12:59:13Z</time>
      </trkpt>
      <trkpt lat="42.98963299999962" lon="-1.349590999999999">
        <ele>867.678</ele>
        <time>2022-08-24T12:59:14Z</time>
      </trkpt>
      <trkpt lat="42.989642999999624" lon="-1.3496409999999992">
        <ele>867.894</ele>
        <time>2022-08-24T12:59:15Z</time>
      </trkpt>
      <trkpt lat="42.98965299999963" lon="-1.3496909999999993">
        <ele>868.036</ele>
        <time>2022-08-24T12:59:16Z</time>
      </trkpt>
      <trkpt lat="42.989675999999626" lon="-1.3497959999999993">
        <ele>868.273</ele>
        <time>2022-08-24T12:59:18Z</time>
      </trkpt>
      <trkpt lat="42.989684999999625" lon="-1.3498519999999994">
        <ele>868.246</ele>
        <time>2022-08-24T12:59:19Z</time>
      </trkpt>
      <trkpt lat="42.989777999999625" lon="-1.3502969999999994">
        <ele>868.680</ele>
        <time>2022-08-24T12:59:26Z</time>
      </trkpt>
      <trkpt lat="42.98981899999963" lon="-1.3505099999999994">
        <ele>868.429</ele>
        <time>2022-08-24T12:59:29Z</time>
      </trkpt>
      <trkpt lat="42.989850999999625" lon="-1.3506429999999994">
        <ele>868.057</ele>
        <time>2022-08-24T12:59:31Z</time>
      </trkpt>
      <trkpt lat="42.98986599999962" lon="-1.3507079999999994">
        <ele>868.000</ele>
        <time>2022-08-24T12:59:32Z</time>
      </trkpt>
      <trkpt lat="42.98987799999962" lon="-1.3507719999999994">
        <ele>868.020</ele>
        <time>2022-08-24T12:59:33Z</time>
      </trkpt>
      <trkpt lat="42.98989099999962" lon="-1.3508329999999995">
        <ele>867.809</ele>
        <time>2022-08-24T12:59:34Z</time>
      </trkpt>
      <trkpt lat="42.989904999999624" lon="-1.3508909999999994">
        <ele>867.866</ele>
        <time>2022-08-24T12:59:35Z</time>
      </trkpt>
      <trkpt lat="42.98991699999962" lon="-1.3509449999999994">
        <ele>867.836</ele>
        <time>2022-08-24T12:59:36Z</time>
      </trkpt>
      <trkpt lat="42.98992799999962" lon="-1.3510039999999994">
        <ele>867.886</ele>
        <time>2022-08-24T12:59:37Z</time>
      </trkpt>
      <trkpt lat="42.98993899999962" lon="-1.3510609999999994">
        <ele>867.882</ele>
        <time>2022-08-24T12:59:38Z</time>
      </trkpt>
      <trkpt lat="42.989948999999626" lon="-1.3511159999999993">
        <ele>867.874</ele>
        <time>2022-08-24T12:59:39Z</time>
      </trkpt>
      <trkpt lat="42.989948999999626" lon="-1.3511159999999993">
        <ele>867.881</ele>
        <time>2022-08-24T12:59:40Z</time>
      </trkpt>
      <trkpt lat="42.99000099999962" lon="-1.3514449999999993">
        <ele>868.224</ele>
        <time>2022-08-24T12:59:45Z</time>
      </trkpt>
      <trkpt lat="42.99000799999962" lon="-1.3515669999999993">
        <ele>868.648</ele>
        <time>2022-08-24T12:59:47Z</time>
      </trkpt>
      <trkpt lat="42.98999599999962" lon="-1.3516859999999993">
        <ele>868.677</ele>
        <time>2022-08-24T12:59:50Z</time>
      </trkpt>
      <trkpt lat="42.98997699999962" lon="-1.3518579999999993">
        <ele>868.891</ele>
        <time>2022-08-24T12:59:52Z</time>
      </trkpt>
      <trkpt lat="42.98997099999962" lon="-1.3519179999999993">
        <ele>868.881</ele>
        <time>2022-08-24T12:59:53Z</time>
      </trkpt>
      <trkpt lat="42.98995099999962" lon="-1.3520879999999993">
        <ele>868.819</ele>
        <time>2022-08-24T12:59:56Z</time>
      </trkpt>
      <trkpt lat="42.98991799999962" lon="-1.3523349999999994">
        <ele>868.809</ele>
        <time>2022-08-24T13:00:00Z</time>
      </trkpt>
      <trkpt lat="42.98987599999962" lon="-1.3527059999999993">
        <ele>868.870</ele>
        <time>2022-08-24T13:00:06Z</time>
      </trkpt>
      <trkpt lat="42.98986199999962" lon="-1.3528159999999994">
        <ele>869.450</ele>
        <time>2022-08-24T13:00:08Z</time>
      </trkpt>
      <trkpt lat="42.98984499999962" lon="-1.3529399999999994">
        <ele>869.420</ele>
        <time>2022-08-24T13:00:10Z</time>
      </trkpt>
      <trkpt lat="42.98982799999962" lon="-1.3530599999999993">
        <ele>869.676</ele>
        <time>2022-08-24T13:00:12Z</time>
      </trkpt>
      <trkpt lat="42.98982299999962" lon="-1.3531149999999992">
        <ele>869.678</ele>
        <time>2022-08-24T13:00:13Z</time>
      </trkpt>
      <trkpt lat="42.98981399999962" lon="-1.3531749999999991">
        <ele>869.815</ele>
        <time>2022-08-24T13:00:14Z</time>
      </trkpt>
      <trkpt lat="42.98980499999962" lon="-1.3532359999999992">
        <ele>869.828</ele>
        <time>2022-08-24T13:00:15Z</time>
      </trkpt>
      <trkpt lat="42.98980099999962" lon="-1.3532949999999992">
        <ele>869.872</ele>
        <time>2022-08-24T13:00:16Z</time>
      </trkpt>
      <trkpt lat="42.989794999999624" lon="-1.3533549999999992">
        <ele>869.881</ele>
        <time>2022-08-24T13:00:18Z</time>
      </trkpt>
      <trkpt lat="42.989757999999625" lon="-1.353671999999999">
        <ele>869.825</ele>
        <time>2022-08-24T13:00:22Z</time>
      </trkpt>
      <trkpt lat="42.989754999999626" lon="-1.3537329999999992">
        <ele>869.826</ele>
        <time>2022-08-24T13:00:23Z</time>
      </trkpt>
      <trkpt lat="42.989749999999624" lon="-1.3537949999999992">
        <ele>869.808</ele>
        <time>2022-08-24T13:00:24Z</time>
      </trkpt>
      <trkpt lat="42.989749999999624" lon="-1.3537949999999992">
        <ele>869.809</ele>
        <time>2022-08-24T13:00:25Z</time>
      </trkpt>
      <trkpt lat="42.989735999999624" lon="-1.3539159999999992">
        <ele>869.823</ele>
        <time>2022-08-24T13:00:26Z</time>
      </trkpt>
      <trkpt lat="42.98971199999962" lon="-1.3541629999999993">
        <ele>870.013</ele>
        <time>2022-08-24T13:00:30Z</time>
      </trkpt>
      <trkpt lat="42.98966799999962" lon="-1.3547249999999993">
        <ele>869.873</ele>
        <time>2022-08-24T13:00:38Z</time>
      </trkpt>
      <trkpt lat="42.98966499999962" lon="-1.3547909999999992">
        <ele>869.689</ele>
        <time>2022-08-24T13:00:39Z</time>
      </trkpt>
      <trkpt lat="42.98966099999962" lon="-1.3548499999999992">
        <ele>869.471</ele>
        <time>2022-08-24T13:00:40Z</time>
      </trkpt>
      <trkpt lat="42.989656999999625" lon="-1.3549059999999993">
        <ele>868.888</ele>
        <time>2022-08-24T13:00:41Z</time>
      </trkpt>
      <trkpt lat="42.98965499999962" lon="-1.3549609999999992">
        <ele>868.631</ele>
        <time>2022-08-24T13:00:42Z</time>
      </trkpt>
      <trkpt lat="42.98965199999962" lon="-1.3550139999999993">
        <ele>868.425</ele>
        <time>2022-08-24T13:00:43Z</time>
      </trkpt>
      <trkpt lat="42.98965599999962" lon="-1.3550579999999992">
        <ele>868.074</ele>
        <time>2022-08-24T13:00:44Z</time>
      </trkpt>
      <trkpt lat="42.98966399999962" lon="-1.3550899999999992">
        <ele>867.678</ele>
        <time>2022-08-24T13:00:45Z</time>
      </trkpt>
      <trkpt lat="42.98966999999962" lon="-1.3551129999999993">
        <ele>867.233</ele>
        <time>2022-08-24T13:00:46Z</time>
      </trkpt>
      <trkpt lat="42.98966999999962" lon="-1.3551129999999993">
        <ele>867.226</ele>
        <time>2022-08-24T13:00:47Z</time>
      </trkpt>
      <trkpt lat="42.98965199999962" lon="-1.3551529999999994">
        <ele>866.209</ele>
        <time>2022-08-24T13:01:00Z</time>
      </trkpt>
      <trkpt lat="42.98965199999962" lon="-1.3551529999999994">
        <ele>866.268</ele>
        <time>2022-08-24T13:01:01Z</time>
      </trkpt>
      <trkpt lat="42.989633999999626" lon="-1.3551939999999993">
        <ele>866.258</ele>
        <time>2022-08-24T13:01:02Z</time>
      </trkpt>
      <trkpt lat="42.98962199999963" lon="-1.3552689999999994">
        <ele>866.048</ele>
        <time>2022-08-24T13:01:06Z</time>
      </trkpt>
      <trkpt lat="42.98961599999963" lon="-1.3552879999999994">
        <ele>866.024</ele>
        <time>2022-08-24T13:01:07Z</time>
      </trkpt>
      <trkpt lat="42.98961099999963" lon="-1.3553029999999995">
        <ele>866.086</ele>
        <time>2022-08-24T13:01:08Z</time>
      </trkpt>
      <trkpt lat="42.989588999999626" lon="-1.3553379999999995">
        <ele>866.043</ele>
        <time>2022-08-24T13:01:10Z</time>
      </trkpt>
      <trkpt lat="42.98957599999962" lon="-1.3553569999999995">
        <ele>866.226</ele>
        <time>2022-08-24T13:01:11Z</time>
      </trkpt>
      <trkpt lat="42.989560999999625" lon="-1.3553789999999994">
        <ele>866.230</ele>
        <time>2022-08-24T13:01:12Z</time>
      </trkpt>
      <trkpt lat="42.98953199999963" lon="-1.3554499999999994">
        <ele>866.059</ele>
        <time>2022-08-24T13:01:16Z</time>
      </trkpt>
      <trkpt lat="42.98953199999963" lon="-1.3554499999999994">
        <ele>866.046</ele>
        <time>2022-08-24T13:01:17Z</time>
      </trkpt>
      <trkpt lat="42.98952099999963" lon="-1.3554589999999993">
        <ele>866.088</ele>
        <time>2022-08-24T13:01:52Z</time>
      </trkpt>
      <trkpt lat="42.98952099999963" lon="-1.3554589999999993">
        <ele>866.016</ele>
        <time>2022-08-24T13:01:53Z</time>
      </trkpt>
      <trkpt lat="42.98952099999963" lon="-1.3554589999999993">
        <ele>866.009</ele>
        <time>2022-08-24T13:01:54Z</time>
      </trkpt>
      <trkpt lat="42.98951799999963" lon="-1.3554599999999992">
        <ele>865.895</ele>
        <time>2022-08-24T13:01:55Z</time>
      </trkpt>
      <trkpt lat="42.98950399999963" lon="-1.3554669999999993">
        <ele>865.875</ele>
        <time>2022-08-24T13:01:56Z</time>
      </trkpt>
      <trkpt lat="42.989445999999624" lon="-1.3555079999999993">
        <ele>865.875</ele>
        <time>2022-08-24T13:02:00Z</time>
      </trkpt>
      <trkpt lat="42.989383999999625" lon="-1.3555699999999993">
        <ele>865.871</ele>
        <time>2022-08-24T13:02:03Z</time>
      </trkpt>
      <trkpt lat="42.98935699999962" lon="-1.3556129999999993">
        <ele>866.263</ele>
        <time>2022-08-24T13:02:05Z</time>
      </trkpt>
      <trkpt lat="42.98934599999962" lon="-1.3556389999999994">
        <ele>866.220</ele>
        <time>2022-08-24T13:02:06Z</time>
      </trkpt>
      <trkpt lat="42.98932899999962" lon="-1.3556919999999995">
        <ele>866.443</ele>
        <time>2022-08-24T13:02:08Z</time>
      </trkpt>
      <trkpt lat="42.989321999999625" lon="-1.3557169999999994">
        <ele>866.677</ele>
        <time>2022-08-24T13:02:09Z</time>
      </trkpt>
      <trkpt lat="42.989315999999626" lon="-1.3557449999999993">
        <ele>866.636</ele>
        <time>2022-08-24T13:02:10Z</time>
      </trkpt>
      <trkpt lat="42.98931699999962" lon="-1.3557969999999993">
        <ele>867.227</ele>
        <time>2022-08-24T13:02:12Z</time>
      </trkpt>
      <trkpt lat="42.98931999999962" lon="-1.3558269999999992">
        <ele>867.468</ele>
        <time>2022-08-24T13:02:13Z</time>
      </trkpt>
      <trkpt lat="42.989338999999624" lon="-1.3558839999999992">
        <ele>867.814</ele>
        <time>2022-08-24T13:02:15Z</time>
      </trkpt>
      <trkpt lat="42.98934099999963" lon="-1.3559179999999993">
        <ele>868.009</ele>
        <time>2022-08-24T13:02:16Z</time>
      </trkpt>
      <trkpt lat="42.98934099999963" lon="-1.3559499999999993">
        <ele>868.073</ele>
        <time>2022-08-24T13:02:17Z</time>
      </trkpt>
      <trkpt lat="42.98934299999963" lon="-1.3560109999999994">
        <ele>868.863</ele>
        <time>2022-08-24T13:02:19Z</time>
      </trkpt>
      <trkpt lat="42.98934299999963" lon="-1.3560379999999994">
        <ele>868.863</ele>
        <time>2022-08-24T13:02:20Z</time>
      </trkpt>
      <trkpt lat="42.989349999999625" lon="-1.3560969999999994">
        <ele>869.459</ele>
        <time>2022-08-24T13:02:23Z</time>
      </trkpt>
      <trkpt lat="42.989349999999625" lon="-1.3561179999999995">
        <ele>869.621</ele>
        <time>2022-08-24T13:02:24Z</time>
      </trkpt>
      <trkpt lat="42.989344999999624" lon="-1.3561389999999995">
        <ele>869.668</ele>
        <time>2022-08-24T13:02:25Z</time>
      </trkpt>
      <trkpt lat="42.989338999999624" lon="-1.3561639999999995">
        <ele>869.641</ele>
        <time>2022-08-24T13:02:26Z</time>
      </trkpt>
      <trkpt lat="42.989332999999625" lon="-1.3561909999999995">
        <ele>869.815</ele>
        <time>2022-08-24T13:02:27Z</time>
      </trkpt>
      <trkpt lat="42.98932599999963" lon="-1.3562189999999994">
        <ele>869.814</ele>
        <time>2022-08-24T13:02:28Z</time>
      </trkpt>
      <trkpt lat="42.98931899999963" lon="-1.3562429999999994">
        <ele>869.843</ele>
        <time>2022-08-24T13:02:29Z</time>
      </trkpt>
      <trkpt lat="42.989309999999634" lon="-1.3562679999999994">
        <ele>870.064</ele>
        <time>2022-08-24T13:02:30Z</time>
      </trkpt>
      <trkpt lat="42.98930299999964" lon="-1.3562909999999995">
        <ele>870.410</ele>
        <time>2022-08-24T13:02:31Z</time>
      </trkpt>
      <trkpt lat="42.98930599999964" lon="-1.3563189999999994">
        <ele>870.409</ele>
        <time>2022-08-24T13:02:32Z</time>
      </trkpt>
      <trkpt lat="42.98930799999964" lon="-1.3563459999999994">
        <ele>870.685</ele>
        <time>2022-08-24T13:02:33Z</time>
      </trkpt>
      <trkpt lat="42.989308999999636" lon="-1.3563719999999995">
        <ele>870.845</ele>
        <time>2022-08-24T13:02:34Z</time>
      </trkpt>
      <trkpt lat="42.989308999999636" lon="-1.3563719999999995">
        <ele>871.025</ele>
        <time>2022-08-24T13:02:35Z</time>
      </trkpt>
      <trkpt lat="42.98932499999964" lon="-1.3564469999999995">
        <ele>871.051</ele>
        <time>2022-08-24T13:02:36Z</time>
      </trkpt>
      <trkpt lat="42.98933799999964" lon="-1.3564849999999995">
        <ele>871.273</ele>
        <time>2022-08-24T13:02:37Z</time>
      </trkpt>
      <trkpt lat="42.98934099999964" lon="-1.3565239999999994">
        <ele>871.250</ele>
        <time>2022-08-24T13:02:38Z</time>
      </trkpt>
      <trkpt lat="42.98934599999964" lon="-1.3565509999999994">
        <ele>871.243</ele>
        <time>2022-08-24T13:02:39Z</time>
      </trkpt>
      <trkpt lat="42.98935399999964" lon="-1.3565839999999993">
        <ele>871.437</ele>
        <time>2022-08-24T13:02:40Z</time>
      </trkpt>
      <trkpt lat="42.989361999999645" lon="-1.3566179999999994">
        <ele>871.476</ele>
        <time>2022-08-24T13:02:41Z</time>
      </trkpt>
      <trkpt lat="42.98936099999965" lon="-1.3566609999999995">
        <ele>871.675</ele>
        <time>2022-08-24T13:02:42Z</time>
      </trkpt>
      <trkpt lat="42.98935999999965" lon="-1.3567029999999995">
        <ele>871.628</ele>
        <time>2022-08-24T13:02:43Z</time>
      </trkpt>
      <trkpt lat="42.98935599999965" lon="-1.3567449999999996">
        <ele>871.820</ele>
        <time>2022-08-24T13:02:44Z</time>
      </trkpt>
      <trkpt lat="42.989357999999655" lon="-1.3567869999999997">
        <ele>872.209</ele>
        <time>2022-08-24T13:02:45Z</time>
      </trkpt>
      <trkpt lat="42.98935899999965" lon="-1.3568219999999998">
        <ele>872.438</ele>
        <time>2022-08-24T13:02:46Z</time>
      </trkpt>
      <trkpt lat="42.98936499999965" lon="-1.3568499999999997">
        <ele>872.468</ele>
        <time>2022-08-24T13:02:47Z</time>
      </trkpt>
      <trkpt lat="42.989374999999654" lon="-1.3568849999999997">
        <ele>872.638</ele>
        <time>2022-08-24T13:02:48Z</time>
      </trkpt>
      <trkpt lat="42.98938499999966" lon="-1.3569139999999997">
        <ele>872.884</ele>
        <time>2022-08-24T13:02:49Z</time>
      </trkpt>
      <trkpt lat="42.98939499999966" lon="-1.3569619999999998">
        <ele>872.686</ele>
        <time>2022-08-24T13:02:50Z</time>
      </trkpt>
      <trkpt lat="42.98941099999966" lon="-1.3570059999999997">
        <ele>872.683</ele>
        <time>2022-08-24T13:02:51Z</time>
      </trkpt>
      <trkpt lat="42.989421999999664" lon="-1.3570489999999997">
        <ele>872.626</ele>
        <time>2022-08-24T13:02:52Z</time>
      </trkpt>
      <trkpt lat="42.98942499999966" lon="-1.3570849999999997">
        <ele>872.610</ele>
        <time>2022-08-24T13:02:53Z</time>
      </trkpt>
      <trkpt lat="42.98943199999966" lon="-1.3571369999999996">
        <ele>872.629</ele>
        <time>2022-08-24T13:02:54Z</time>
      </trkpt>
      <trkpt lat="42.98943799999966" lon="-1.3571809999999995">
        <ele>872.833</ele>
        <time>2022-08-24T13:02:55Z</time>
      </trkpt>
      <trkpt lat="42.98944799999966" lon="-1.3572249999999995">
        <ele>872.823</ele>
        <time>2022-08-24T13:02:56Z</time>
      </trkpt>
      <trkpt lat="42.98945199999966" lon="-1.3572649999999995">
        <ele>872.815</ele>
        <time>2022-08-24T13:02:57Z</time>
      </trkpt>
      <trkpt lat="42.98946199999966" lon="-1.3572959999999994">
        <ele>872.809</ele>
        <time>2022-08-24T13:02:58Z</time>
      </trkpt>
      <trkpt lat="42.98947599999966" lon="-1.3573419999999994">
        <ele>872.844</ele>
        <time>2022-08-24T13:02:59Z</time>
      </trkpt>
      <trkpt lat="42.98948399999966" lon="-1.3573799999999994">
        <ele>872.814</ele>
        <time>2022-08-24T13:03:00Z</time>
      </trkpt>
      <trkpt lat="42.98949399999967" lon="-1.3574189999999993">
        <ele>873.064</ele>
        <time>2022-08-24T13:03:01Z</time>
      </trkpt>
      <trkpt lat="42.989508999999664" lon="-1.3574989999999993">
        <ele>873.250</ele>
        <time>2022-08-24T13:03:03Z</time>
      </trkpt>
      <trkpt lat="42.98954999999967" lon="-1.3577439999999994">
        <ele>873.652</ele>
        <time>2022-08-24T13:03:09Z</time>
      </trkpt>
      <trkpt lat="42.989553999999664" lon="-1.3577769999999993">
        <ele>873.659</ele>
        <time>2022-08-24T13:03:10Z</time>
      </trkpt>
      <trkpt lat="42.989553999999664" lon="-1.3578029999999994">
        <ele>873.892</ele>
        <time>2022-08-24T13:03:11Z</time>
      </trkpt>
      <trkpt lat="42.989550999999665" lon="-1.3578989999999995">
        <ele>874.226</ele>
        <time>2022-08-24T13:03:14Z</time>
      </trkpt>
      <trkpt lat="42.989547999999665" lon="-1.3579559999999995">
        <ele>874.465</ele>
        <time>2022-08-24T13:03:16Z</time>
      </trkpt>
      <trkpt lat="42.98954599999966" lon="-1.3579959999999995">
        <ele>874.483</ele>
        <time>2022-08-24T13:03:17Z</time>
      </trkpt>
      <trkpt lat="42.98954899999966" lon="-1.3580619999999994">
        <ele>874.625</ele>
        <time>2022-08-24T13:03:19Z</time>
      </trkpt>
      <trkpt lat="42.989547999999665" lon="-1.3580909999999995">
        <ele>874.817</ele>
        <time>2022-08-24T13:03:20Z</time>
      </trkpt>
      <trkpt lat="42.98955999999966" lon="-1.3582109999999994">
        <ele>875.609</ele>
        <time>2022-08-24T13:03:23Z</time>
      </trkpt>
      <trkpt lat="42.98956399999966" lon="-1.3583099999999995">
        <ele>875.879</ele>
        <time>2022-08-24T13:03:25Z</time>
      </trkpt>
      <trkpt lat="42.98958099999966" lon="-1.3584389999999995">
        <ele>876.089</ele>
        <time>2022-08-24T13:03:28Z</time>
      </trkpt>
      <trkpt lat="42.98957899999966" lon="-1.3584759999999996">
        <ele>876.059</ele>
        <time>2022-08-24T13:03:29Z</time>
      </trkpt>
      <trkpt lat="42.98957799999966" lon="-1.3585229999999995">
        <ele>876.235</ele>
        <time>2022-08-24T13:03:30Z</time>
      </trkpt>
      <trkpt lat="42.98958199999966" lon="-1.3585569999999996">
        <ele>876.237</ele>
        <time>2022-08-24T13:03:31Z</time>
      </trkpt>
      <trkpt lat="42.989588999999654" lon="-1.3585919999999996">
        <ele>876.244</ele>
        <time>2022-08-24T13:03:32Z</time>
      </trkpt>
      <trkpt lat="42.989596999999655" lon="-1.3586249999999995">
        <ele>876.477</ele>
        <time>2022-08-24T13:03:33Z</time>
      </trkpt>
      <trkpt lat="42.98960099999965" lon="-1.3586599999999995">
        <ele>876.461</ele>
        <time>2022-08-24T13:03:34Z</time>
      </trkpt>
      <trkpt lat="42.989605999999654" lon="-1.3587049999999996">
        <ele>876.420</ele>
        <time>2022-08-24T13:03:35Z</time>
      </trkpt>
      <trkpt lat="42.989607999999656" lon="-1.3587339999999997">
        <ele>876.441</ele>
        <time>2022-08-24T13:03:36Z</time>
      </trkpt>
      <trkpt lat="42.989599999999655" lon="-1.3587719999999996">
        <ele>876.481</ele>
        <time>2022-08-24T13:03:37Z</time>
      </trkpt>
      <trkpt lat="42.98958799999966" lon="-1.3588179999999996">
        <ele>876.609</ele>
        <time>2022-08-24T13:03:38Z</time>
      </trkpt>
      <trkpt lat="42.989588999999654" lon="-1.3588559999999996">
        <ele>876.609</ele>
        <time>2022-08-24T13:03:39Z</time>
      </trkpt>
      <trkpt lat="42.989602999999654" lon="-1.3589829999999996">
        <ele>876.675</ele>
        <time>2022-08-24T13:03:41Z</time>
      </trkpt>
      <trkpt lat="42.989636999999654" lon="-1.3590479999999996">
        <ele>876.465</ele>
        <time>2022-08-24T13:03:42Z</time>
      </trkpt>
      <trkpt lat="42.98966299999965" lon="-1.3591089999999997">
        <ele>876.495</ele>
        <time>2022-08-24T13:03:43Z</time>
      </trkpt>
      <trkpt lat="42.98965399999965" lon="-1.3591729999999997">
        <ele>876.221</ele>
        <time>2022-08-24T13:03:44Z</time>
      </trkpt>
      <trkpt lat="42.98963299999966" lon="-1.3592359999999997">
        <ele>876.253</ele>
        <time>2022-08-24T13:03:45Z</time>
      </trkpt>
      <trkpt lat="42.989607999999656" lon="-1.3592929999999996">
        <ele>876.010</ele>
        <time>2022-08-24T13:03:46Z</time>
      </trkpt>
      <trkpt lat="42.989607999999656" lon="-1.3592929999999996">
        <ele>876.093</ele>
        <time>2022-08-24T13:03:47Z</time>
      </trkpt>
      <trkpt lat="42.98954999999965" lon="-1.3594199999999996">
        <ele>876.087</ele>
        <time>2022-08-24T13:03:48Z</time>
      </trkpt>
      <trkpt lat="42.98953299999965" lon="-1.3595019999999995">
        <ele>876.086</ele>
        <time>2022-08-24T13:03:49Z</time>
      </trkpt>
      <trkpt lat="42.98950799999965" lon="-1.3595959999999996">
        <ele>876.296</ele>
        <time>2022-08-24T13:03:51Z</time>
      </trkpt>
      <trkpt lat="42.98949399999965" lon="-1.3596389999999996">
        <ele>876.431</ele>
        <time>2022-08-24T13:03:52Z</time>
      </trkpt>
      <trkpt lat="42.98945799999965" lon="-1.3597409999999996">
        <ele>876.424</ele>
        <time>2022-08-24T13:03:54Z</time>
      </trkpt>
      <trkpt lat="42.98944599999965" lon="-1.3597799999999995">
        <ele>876.409</ele>
        <time>2022-08-24T13:03:55Z</time>
      </trkpt>
      <trkpt lat="42.98942699999965" lon="-1.3598079999999995">
        <ele>876.620</ele>
        <time>2022-08-24T13:03:56Z</time>
      </trkpt>
      <trkpt lat="42.98941199999965" lon="-1.3598369999999995">
        <ele>876.620</ele>
        <time>2022-08-24T13:03:57Z</time>
      </trkpt>
      <trkpt lat="42.98939599999965" lon="-1.3598619999999995">
        <ele>876.660</ele>
        <time>2022-08-24T13:03:58Z</time>
      </trkpt>
      <trkpt lat="42.98937899999965" lon="-1.3598829999999995">
        <ele>876.826</ele>
        <time>2022-08-24T13:03:59Z</time>
      </trkpt>
      <trkpt lat="42.98936299999965" lon="-1.3599059999999996">
        <ele>877.028</ele>
        <time>2022-08-24T13:04:00Z</time>
      </trkpt>
      <trkpt lat="42.98934099999965" lon="-1.3599379999999996">
        <ele>877.485</ele>
        <time>2022-08-24T13:04:01Z</time>
      </trkpt>
      <trkpt lat="42.989321999999646" lon="-1.3599639999999997">
        <ele>877.678</ele>
        <time>2022-08-24T13:04:02Z</time>
      </trkpt>
      <trkpt lat="42.989307999999646" lon="-1.3599869999999998">
        <ele>877.822</ele>
        <time>2022-08-24T13:04:03Z</time>
      </trkpt>
      <trkpt lat="42.989296999999645" lon="-1.3600059999999998">
        <ele>877.881</ele>
        <time>2022-08-24T13:04:04Z</time>
      </trkpt>
      <trkpt lat="42.98927899999965" lon="-1.360024">
        <ele>878.096</ele>
        <time>2022-08-24T13:04:05Z</time>
      </trkpt>
      <trkpt lat="42.98918799999965" lon="-1.360118">
        <ele>878.431</ele>
        <time>2022-08-24T13:04:09Z</time>
      </trkpt>
      <trkpt lat="42.98914099999965" lon="-1.360185">
        <ele>878.824</ele>
        <time>2022-08-24T13:04:11Z</time>
      </trkpt>
      <trkpt lat="42.98912699999965" lon="-1.360225">
        <ele>878.809</ele>
        <time>2022-08-24T13:04:12Z</time>
      </trkpt>
      <trkpt lat="42.98912399999965" lon="-1.360268">
        <ele>878.890</ele>
        <time>2022-08-24T13:04:13Z</time>
      </trkpt>
      <trkpt lat="42.98912599999965" lon="-1.360326">
        <ele>878.890</ele>
        <time>2022-08-24T13:04:14Z</time>
      </trkpt>
      <trkpt lat="42.98912499999965" lon="-1.3603889999999998">
        <ele>878.890</ele>
        <time>2022-08-24T13:04:15Z</time>
      </trkpt>
      <trkpt lat="42.989129999999655" lon="-1.3604559999999999">
        <ele>878.836</ele>
        <time>2022-08-24T13:04:16Z</time>
      </trkpt>
      <trkpt lat="42.98913699999965" lon="-1.360517">
        <ele>878.668</ele>
        <time>2022-08-24T13:04:17Z</time>
      </trkpt>
      <trkpt lat="42.98913699999965" lon="-1.360563">
        <ele>878.265</ele>
        <time>2022-08-24T13:04:18Z</time>
      </trkpt>
      <trkpt lat="42.989129999999655" lon="-1.360596">
        <ele>877.638</ele>
        <time>2022-08-24T13:04:19Z</time>
      </trkpt>
      <trkpt lat="42.98911099999965" lon="-1.360619">
        <ele>877.032</ele>
        <time>2022-08-24T13:04:20Z</time>
      </trkpt>
      <trkpt lat="42.989090999999654" lon="-1.360628">
        <ele>876.861</ele>
        <time>2022-08-24T13:04:21Z</time>
      </trkpt>
      <trkpt lat="42.98907299999966" lon="-1.360628">
        <ele>876.437</ele>
        <time>2022-08-24T13:04:22Z</time>
      </trkpt>
      <trkpt lat="42.98901899999966" lon="-1.360626">
        <ele>875.649</ele>
        <time>2022-08-24T13:04:24Z</time>
      </trkpt>
      <trkpt lat="42.988994999999655" lon="-1.360633">
        <ele>875.413</ele>
        <time>2022-08-24T13:04:25Z</time>
      </trkpt>
      <trkpt lat="42.988977999999655" lon="-1.360649">
        <ele>875.209</ele>
        <time>2022-08-24T13:04:26Z</time>
      </trkpt>
      <trkpt lat="42.98895999999966" lon="-1.36067">
        <ele>874.674</ele>
        <time>2022-08-24T13:04:27Z</time>
      </trkpt>
      <trkpt lat="42.988937999999656" lon="-1.360682">
        <ele>874.434</ele>
        <time>2022-08-24T13:04:28Z</time>
      </trkpt>
      <trkpt lat="42.98892099999966" lon="-1.36069">
        <ele>874.264</ele>
        <time>2022-08-24T13:04:29Z</time>
      </trkpt>
      <trkpt lat="42.98891099999965" lon="-1.360704">
        <ele>874.040</ele>
        <time>2022-08-24T13:04:30Z</time>
      </trkpt>
      <trkpt lat="42.98890599999965" lon="-1.360703">
        <ele>873.862</ele>
        <time>2022-08-24T13:04:31Z</time>
      </trkpt>
      <trkpt lat="42.98888099999965" lon="-1.360718">
        <ele>873.889</ele>
        <time>2022-08-24T13:04:45Z</time>
      </trkpt>
      <trkpt lat="42.98884799999965" lon="-1.360713">
        <ele>873.812</ele>
        <time>2022-08-24T13:04:46Z</time>
      </trkpt>
      <trkpt lat="42.98881999999965" lon="-1.36071">
        <ele>873.856</ele>
        <time>2022-08-24T13:04:47Z</time>
      </trkpt>
      <trkpt lat="42.98879499999965" lon="-1.3607090000000002">
        <ele>873.885</ele>
        <time>2022-08-24T13:04:48Z</time>
      </trkpt>
      <trkpt lat="42.98877699999965" lon="-1.3607160000000003">
        <ele>873.655</ele>
        <time>2022-08-24T13:04:49Z</time>
      </trkpt>
      <trkpt lat="42.98871199999965" lon="-1.3607620000000002">
        <ele>873.607</ele>
        <time>2022-08-24T13:04:51Z</time>
      </trkpt>
      <trkpt lat="42.98867299999965" lon="-1.3607870000000002">
        <ele>873.617</ele>
        <time>2022-08-24T13:04:52Z</time>
      </trkpt>
      <trkpt lat="42.98862799999965" lon="-1.360815">
        <ele>873.609</ele>
        <time>2022-08-24T13:04:53Z</time>
      </trkpt>
      <trkpt lat="42.98846099999965" lon="-1.360856">
        <ele>873.686</ele>
        <time>2022-08-24T13:04:56Z</time>
      </trkpt>
      <trkpt lat="42.98835499999965" lon="-1.360862">
        <ele>873.646</ele>
        <time>2022-08-24T13:04:59Z</time>
      </trkpt>
      <trkpt lat="42.98833799999965" lon="-1.360872">
        <ele>873.616</ele>
        <time>2022-08-24T13:05:00Z</time>
      </trkpt>
      <trkpt lat="42.98832899999965" lon="-1.360891">
        <ele>873.692</ele>
        <time>2022-08-24T13:05:01Z</time>
      </trkpt>
      <trkpt lat="42.98831199999965" lon="-1.360897">
        <ele>873.694</ele>
        <time>2022-08-24T13:05:02Z</time>
      </trkpt>
      <trkpt lat="42.988296999999655" lon="-1.360905">
        <ele>873.661</ele>
        <time>2022-08-24T13:05:03Z</time>
      </trkpt>
      <trkpt lat="42.98828199999966" lon="-1.360921">
        <ele>873.644</ele>
        <time>2022-08-24T13:05:04Z</time>
      </trkpt>
      <trkpt lat="42.988271999999654" lon="-1.36094">
        <ele>874.018</ele>
        <time>2022-08-24T13:05:05Z</time>
      </trkpt>
      <trkpt lat="42.988262999999655" lon="-1.36095">
        <ele>874.257</ele>
        <time>2022-08-24T13:05:06Z</time>
      </trkpt>
      <trkpt lat="42.98825899999966" lon="-1.360959">
        <ele>874.464</ele>
        <time>2022-08-24T13:05:07Z</time>
      </trkpt>
      <trkpt lat="42.98825299999966" lon="-1.360969">
        <ele>874.606</ele>
        <time>2022-08-24T13:05:08Z</time>
      </trkpt>
      <trkpt lat="42.98824699999966" lon="-1.360977">
        <ele>874.816</ele>
        <time>2022-08-24T13:05:09Z</time>
      </trkpt>
      <trkpt lat="42.98822399999966" lon="-1.3610010000000001">
        <ele>875.209</ele>
        <time>2022-08-24T13:05:11Z</time>
      </trkpt>
      <trkpt lat="42.988171999999665" lon="-1.361061">
        <ele>875.827</ele>
        <time>2022-08-24T13:05:15Z</time>
      </trkpt>
      <trkpt lat="42.98813999999967" lon="-1.3611110000000002">
        <ele>876.267</ele>
        <time>2022-08-24T13:05:18Z</time>
      </trkpt>
      <trkpt lat="42.98812799999967" lon="-1.361123">
        <ele>876.677</ele>
        <time>2022-08-24T13:05:19Z</time>
      </trkpt>
      <trkpt lat="42.98811399999967" lon="-1.3611300000000002">
        <ele>877.073</ele>
        <time>2022-08-24T13:05:20Z</time>
      </trkpt>
      <trkpt lat="42.98810499999967" lon="-1.3611440000000001">
        <ele>877.015</ele>
        <time>2022-08-24T13:05:21Z</time>
      </trkpt>
      <trkpt lat="42.98810499999967" lon="-1.3611440000000001">
        <ele>877.262</ele>
        <time>2022-08-24T13:05:22Z</time>
      </trkpt>
      <trkpt lat="42.98808199999967" lon="-1.3611630000000001">
        <ele>877.465</ele>
        <time>2022-08-24T13:05:23Z</time>
      </trkpt>
      <trkpt lat="42.98806799999967" lon="-1.3611730000000002">
        <ele>877.659</ele>
        <time>2022-08-24T13:05:24Z</time>
      </trkpt>
      <trkpt lat="42.98806799999967" lon="-1.3611730000000002">
        <ele>877.828</ele>
        <time>2022-08-24T13:05:25Z</time>
      </trkpt>
      <trkpt lat="42.98804399999967" lon="-1.361193">
        <ele>877.851</ele>
        <time>2022-08-24T13:05:26Z</time>
      </trkpt>
      <trkpt lat="42.988030999999665" lon="-1.361202">
        <ele>877.801</ele>
        <time>2022-08-24T13:05:27Z</time>
      </trkpt>
      <trkpt lat="42.98801799999966" lon="-1.361213">
        <ele>877.811</ele>
        <time>2022-08-24T13:05:28Z</time>
      </trkpt>
      <trkpt lat="42.98800399999966" lon="-1.361224">
        <ele>878.009</ele>
        <time>2022-08-24T13:05:29Z</time>
      </trkpt>
      <trkpt lat="42.987994999999664" lon="-1.3612279999999999">
        <ele>878.036</ele>
        <time>2022-08-24T13:05:30Z</time>
      </trkpt>
      <trkpt lat="42.98798699999966" lon="-1.361233">
        <ele>878.236</ele>
        <time>2022-08-24T13:05:31Z</time>
      </trkpt>
      <trkpt lat="42.98798699999966" lon="-1.361233">
        <ele>878.446</ele>
        <time>2022-08-24T13:05:32Z</time>
      </trkpt>
      <trkpt lat="42.987985999999665" lon="-1.361254">
        <ele>878.662</ele>
        <time>2022-08-24T13:05:33Z</time>
      </trkpt>
      <trkpt lat="42.987980999999664" lon="-1.361261">
        <ele>878.844</ele>
        <time>2022-08-24T13:05:34Z</time>
      </trkpt>
      <trkpt lat="42.987980999999664" lon="-1.361261">
        <ele>878.841</ele>
        <time>2022-08-24T13:05:35Z</time>
      </trkpt>
      <trkpt lat="42.98795099999966" lon="-1.361282">
        <ele>879.284</ele>
        <time>2022-08-24T13:05:36Z</time>
      </trkpt>
      <trkpt lat="42.98794799999966" lon="-1.361283">
        <ele>879.418</ele>
        <time>2022-08-24T13:05:37Z</time>
      </trkpt>
      <trkpt lat="42.98793999999966" lon="-1.361287">
        <ele>879.657</ele>
        <time>2022-08-24T13:05:38Z</time>
      </trkpt>
      <trkpt lat="42.98792999999966" lon="-1.361302">
        <ele>880.072</ele>
        <time>2022-08-24T13:05:39Z</time>
      </trkpt>
      <trkpt lat="42.98791599999966" lon="-1.36131">
        <ele>880.013</ele>
        <time>2022-08-24T13:05:40Z</time>
      </trkpt>
      <trkpt lat="42.987902999999655" lon="-1.36132">
        <ele>880.414</ele>
        <time>2022-08-24T13:05:41Z</time>
      </trkpt>
      <trkpt lat="42.98789799999965" lon="-1.361326">
        <ele>880.609</ele>
        <time>2022-08-24T13:05:42Z</time>
      </trkpt>
      <trkpt lat="42.987893999999656" lon="-1.361327">
        <ele>880.848</ele>
        <time>2022-08-24T13:05:43Z</time>
      </trkpt>
      <trkpt lat="42.98788399999965" lon="-1.3613309999999998">
        <ele>881.268</ele>
        <time>2022-08-24T13:05:44Z</time>
      </trkpt>
      <trkpt lat="42.98787899999965" lon="-1.3613349999999997">
        <ele>881.478</ele>
        <time>2022-08-24T13:05:45Z</time>
      </trkpt>
      <trkpt lat="42.98786499999965" lon="-1.3613389999999996">
        <ele>881.654</ele>
        <time>2022-08-24T13:05:46Z</time>
      </trkpt>
      <trkpt lat="42.987857999999655" lon="-1.3613449999999996">
        <ele>881.626</ele>
        <time>2022-08-24T13:05:47Z</time>
      </trkpt>
      <trkpt lat="42.98784799999965" lon="-1.3613519999999997">
        <ele>881.883</ele>
        <time>2022-08-24T13:05:48Z</time>
      </trkpt>
      <trkpt lat="42.98783399999965" lon="-1.3613589999999998">
        <ele>882.086</ele>
        <time>2022-08-24T13:05:49Z</time>
      </trkpt>
      <trkpt lat="42.98782499999965" lon="-1.3613669999999998">
        <ele>882.250</ele>
        <time>2022-08-24T13:05:50Z</time>
      </trkpt>
      <trkpt lat="42.98781099999965" lon="-1.3613709999999997">
        <ele>882.429</ele>
        <time>2022-08-24T13:05:51Z</time>
      </trkpt>
      <trkpt lat="42.987801999999654" lon="-1.3613819999999996">
        <ele>882.676</ele>
        <time>2022-08-24T13:05:52Z</time>
      </trkpt>
      <trkpt lat="42.987784999999654" lon="-1.3613949999999997">
        <ele>882.890</ele>
        <time>2022-08-24T13:05:53Z</time>
      </trkpt>
      <trkpt lat="42.98777399999965" lon="-1.3614019999999998">
        <ele>883.019</ele>
        <time>2022-08-24T13:05:54Z</time>
      </trkpt>
      <trkpt lat="42.987753999999654" lon="-1.3614089999999999">
        <ele>883.209</ele>
        <time>2022-08-24T13:05:55Z</time>
      </trkpt>
      <trkpt lat="42.98773599999966" lon="-1.3614169999999999">
        <ele>883.418</ele>
        <time>2022-08-24T13:05:56Z</time>
      </trkpt>
      <trkpt lat="42.98772099999966" lon="-1.3614229999999998">
        <ele>883.498</ele>
        <time>2022-08-24T13:05:57Z</time>
      </trkpt>
      <trkpt lat="42.98770199999966" lon="-1.36143">
        <ele>883.638</ele>
        <time>2022-08-24T13:05:58Z</time>
      </trkpt>
      <trkpt lat="42.98768199999966" lon="-1.361438">
        <ele>883.854</ele>
        <time>2022-08-24T13:05:59Z</time>
      </trkpt>
      <trkpt lat="42.98765899999966" lon="-1.361443">
        <ele>884.056</ele>
        <time>2022-08-24T13:06:00Z</time>
      </trkpt>
      <trkpt lat="42.98763799999966" lon="-1.361448">
        <ele>884.233</ele>
        <time>2022-08-24T13:06:01Z</time>
      </trkpt>
      <trkpt lat="42.98761399999966" lon="-1.361461">
        <ele>884.876</ele>
        <time>2022-08-24T13:06:02Z</time>
      </trkpt>
      <trkpt lat="42.98759899999966" lon="-1.36147">
        <ele>885.280</ele>
        <time>2022-08-24T13:06:03Z</time>
      </trkpt>
      <trkpt lat="42.98758799999966" lon="-1.3614899999999999">
        <ele>885.489</ele>
        <time>2022-08-24T13:06:04Z</time>
      </trkpt>
      <trkpt lat="42.98757699999966" lon="-1.3615009999999999">
        <ele>885.833</ele>
        <time>2022-08-24T13:06:05Z</time>
      </trkpt>
      <trkpt lat="42.98756299999966" lon="-1.361508">
        <ele>886.223</ele>
        <time>2022-08-24T13:06:06Z</time>
      </trkpt>
      <trkpt lat="42.98754799999966" lon="-1.3615119999999998">
        <ele>886.415</ele>
        <time>2022-08-24T13:06:07Z</time>
      </trkpt>
      <trkpt lat="42.987532999999665" lon="-1.3615159999999997">
        <ele>886.609</ele>
        <time>2022-08-24T13:06:08Z</time>
      </trkpt>
      <trkpt lat="42.98751799999967" lon="-1.3615239999999997">
        <ele>886.644</ele>
        <time>2022-08-24T13:06:09Z</time>
      </trkpt>
      <trkpt lat="42.98750299999967" lon="-1.3615349999999997">
        <ele>887.054</ele>
        <time>2022-08-24T13:06:10Z</time>
      </trkpt>
      <trkpt lat="42.98748799999967" lon="-1.3615409999999997">
        <ele>887.274</ele>
        <time>2022-08-24T13:06:11Z</time>
      </trkpt>
      <trkpt lat="42.98747199999967" lon="-1.3615509999999997">
        <ele>887.890</ele>
        <time>2022-08-24T13:06:12Z</time>
      </trkpt>
      <trkpt lat="42.98746199999967" lon="-1.3615719999999998">
        <ele>888.292</ele>
        <time>2022-08-24T13:06:13Z</time>
      </trkpt>
      <trkpt lat="42.98744699999967" lon="-1.3615839999999997">
        <ele>888.449</ele>
        <time>2022-08-24T13:06:14Z</time>
      </trkpt>
      <trkpt lat="42.98743499999967" lon="-1.3615899999999996">
        <ele>888.652</ele>
        <time>2022-08-24T13:06:15Z</time>
      </trkpt>
      <trkpt lat="42.98741599999967" lon="-1.3616049999999997">
        <ele>888.826</ele>
        <time>2022-08-24T13:06:16Z</time>
      </trkpt>
      <trkpt lat="42.987391999999666" lon="-1.3616359999999996">
        <ele>889.025</ele>
        <time>2022-08-24T13:06:17Z</time>
      </trkpt>
      <trkpt lat="42.98737999999967" lon="-1.3616369999999995">
        <ele>889.216</ele>
        <time>2022-08-24T13:06:18Z</time>
      </trkpt>
      <trkpt lat="42.98737199999967" lon="-1.3616439999999996">
        <ele>889.276</ele>
        <time>2022-08-24T13:06:19Z</time>
      </trkpt>
      <trkpt lat="42.987374999999666" lon="-1.3616439999999996">
        <ele>889.413</ele>
        <time>2022-08-24T13:06:20Z</time>
      </trkpt>
      <trkpt lat="42.987366999999665" lon="-1.3616459999999997">
        <ele>889.609</ele>
        <time>2022-08-24T13:06:21Z</time>
      </trkpt>
      <trkpt lat="42.98736499999966" lon="-1.3616439999999996">
        <ele>890.082</ele>
        <time>2022-08-24T13:06:22Z</time>
      </trkpt>
      <trkpt lat="42.987360999999666" lon="-1.3616509999999997">
        <ele>890.272</ele>
        <time>2022-08-24T13:06:23Z</time>
      </trkpt>
      <trkpt lat="42.98735999999967" lon="-1.3616569999999997">
        <ele>890.672</ele>
        <time>2022-08-24T13:06:24Z</time>
      </trkpt>
      <trkpt lat="42.98735899999967" lon="-1.3616589999999997">
        <ele>890.628</ele>
        <time>2022-08-24T13:06:25Z</time>
      </trkpt>
      <trkpt lat="42.98735899999967" lon="-1.3616589999999997">
        <ele>891.070</ele>
        <time>2022-08-24T13:06:26Z</time>
      </trkpt>
      <trkpt lat="42.98734999999967" lon="-1.3616629999999996">
        <ele>891.247</ele>
        <time>2022-08-24T13:06:27Z</time>
      </trkpt>
      <trkpt lat="42.98734699999967" lon="-1.3616659999999996">
        <ele>891.680</ele>
        <time>2022-08-24T13:06:28Z</time>
      </trkpt>
      <trkpt lat="42.98734399999967" lon="-1.3616659999999996">
        <ele>892.024</ele>
        <time>2022-08-24T13:06:29Z</time>
      </trkpt>
      <trkpt lat="42.98733599999967" lon="-1.3616699999999995">
        <ele>892.233</ele>
        <time>2022-08-24T13:06:30Z</time>
      </trkpt>
      <trkpt lat="42.987326999999674" lon="-1.3616789999999994">
        <ele>892.464</ele>
        <time>2022-08-24T13:06:31Z</time>
      </trkpt>
      <trkpt lat="42.98731899999967" lon="-1.3616849999999994">
        <ele>892.406</ele>
        <time>2022-08-24T13:06:32Z</time>
      </trkpt>
      <trkpt lat="42.987306999999674" lon="-1.3616879999999993">
        <ele>892.816</ele>
        <time>2022-08-24T13:06:33Z</time>
      </trkpt>
      <trkpt lat="42.98729699999967" lon="-1.3616909999999993">
        <ele>892.809</ele>
        <time>2022-08-24T13:06:34Z</time>
      </trkpt>
      <trkpt lat="42.98728299999967" lon="-1.3616969999999993">
        <ele>893.057</ele>
        <time>2022-08-24T13:06:35Z</time>
      </trkpt>
      <trkpt lat="42.987278999999674" lon="-1.3616989999999993">
        <ele>893.257</ele>
        <time>2022-08-24T13:06:36Z</time>
      </trkpt>
      <trkpt lat="42.987269999999675" lon="-1.3616999999999992">
        <ele>893.477</ele>
        <time>2022-08-24T13:06:37Z</time>
      </trkpt>
      <trkpt lat="42.98725499999968" lon="-1.3616989999999993">
        <ele>893.643</ele>
        <time>2022-08-24T13:06:38Z</time>
      </trkpt>
      <trkpt lat="42.987252999999676" lon="-1.3616989999999993">
        <ele>893.875</ele>
        <time>2022-08-24T13:06:39Z</time>
      </trkpt>
      <trkpt lat="42.98724299999967" lon="-1.3617039999999994">
        <ele>894.082</ele>
        <time>2022-08-24T13:06:40Z</time>
      </trkpt>
      <trkpt lat="42.98723199999967" lon="-1.3617139999999994">
        <ele>894.455</ele>
        <time>2022-08-24T13:06:41Z</time>
      </trkpt>
      <trkpt lat="42.98721599999967" lon="-1.3617179999999993">
        <ele>894.689</ele>
        <time>2022-08-24T13:06:42Z</time>
      </trkpt>
      <trkpt lat="42.98721099999967" lon="-1.3617249999999994">
        <ele>894.818</ele>
        <time>2022-08-24T13:06:43Z</time>
      </trkpt>
      <trkpt lat="42.98719999999967" lon="-1.3617339999999993">
        <ele>894.826</ele>
        <time>2022-08-24T13:06:44Z</time>
      </trkpt>
      <trkpt lat="42.98719699999967" lon="-1.3617369999999993">
        <ele>895.247</ele>
        <time>2022-08-24T13:06:45Z</time>
      </trkpt>
      <trkpt lat="42.987186999999665" lon="-1.3617489999999992">
        <ele>895.211</ele>
        <time>2022-08-24T13:06:46Z</time>
      </trkpt>
      <trkpt lat="42.98716899999967" lon="-1.3617619999999993">
        <ele>895.409</ele>
        <time>2022-08-24T13:06:47Z</time>
      </trkpt>
      <trkpt lat="42.987152999999665" lon="-1.3617739999999992">
        <ele>895.833</ele>
        <time>2022-08-24T13:06:48Z</time>
      </trkpt>
      <trkpt lat="42.98713699999966" lon="-1.3617839999999992">
        <ele>896.023</ele>
        <time>2022-08-24T13:06:49Z</time>
      </trkpt>
      <trkpt lat="42.98712999999967" lon="-1.3617889999999993">
        <ele>896.243</ele>
        <time>2022-08-24T13:06:50Z</time>
      </trkpt>
      <trkpt lat="42.987121999999665" lon="-1.3617899999999992">
        <ele>896.219</ele>
        <time>2022-08-24T13:06:51Z</time>
      </trkpt>
      <trkpt lat="42.987110999999665" lon="-1.3617919999999992">
        <ele>896.421</ele>
        <time>2022-08-24T13:06:52Z</time>
      </trkpt>
      <trkpt lat="42.98710099999966" lon="-1.3617979999999992">
        <ele>896.668</ele>
        <time>2022-08-24T13:06:53Z</time>
      </trkpt>
      <trkpt lat="42.98708399999966" lon="-1.3618089999999992">
        <ele>897.061</ele>
        <time>2022-08-24T13:06:54Z</time>
      </trkpt>
      <trkpt lat="42.987071999999664" lon="-1.3618109999999992">
        <ele>897.215</ele>
        <time>2022-08-24T13:06:55Z</time>
      </trkpt>
      <trkpt lat="42.98705899999966" lon="-1.3618139999999992">
        <ele>897.464</ele>
        <time>2022-08-24T13:06:56Z</time>
      </trkpt>
      <trkpt lat="42.98705899999966" lon="-1.3618079999999992">
        <ele>897.647</ele>
        <time>2022-08-24T13:06:57Z</time>
      </trkpt>
      <trkpt lat="42.98705099999966" lon="-1.3618059999999992">
        <ele>897.829</ele>
        <time>2022-08-24T13:06:58Z</time>
      </trkpt>
      <trkpt lat="42.98704399999966" lon="-1.3618079999999992">
        <ele>898.021</ele>
        <time>2022-08-24T13:06:59Z</time>
      </trkpt>
      <trkpt lat="42.98703599999966" lon="-1.3618129999999993">
        <ele>898.209</ele>
        <time>2022-08-24T13:07:00Z</time>
      </trkpt>
      <trkpt lat="42.98702499999966" lon="-1.3618209999999993">
        <ele>898.475</ele>
        <time>2022-08-24T13:07:01Z</time>
      </trkpt>
      <trkpt lat="42.987020999999665" lon="-1.3618229999999993">
        <ele>898.675</ele>
        <time>2022-08-24T13:07:02Z</time>
      </trkpt>
      <trkpt lat="42.98701899999966" lon="-1.3618289999999993">
        <ele>898.865</ele>
        <time>2022-08-24T13:07:03Z</time>
      </trkpt>
      <trkpt lat="42.98701399999966" lon="-1.3618399999999993">
        <ele>898.871</ele>
        <time>2022-08-24T13:07:04Z</time>
      </trkpt>
      <trkpt lat="42.98700899999966" lon="-1.3618489999999992">
        <ele>899.033</ele>
        <time>2022-08-24T13:07:05Z</time>
      </trkpt>
      <trkpt lat="42.98699599999966" lon="-1.361852999999999">
        <ele>899.210</ele>
        <time>2022-08-24T13:07:06Z</time>
      </trkpt>
      <trkpt lat="42.98699199999966" lon="-1.361852999999999">
        <ele>899.243</ele>
        <time>2022-08-24T13:07:07Z</time>
      </trkpt>
      <trkpt lat="42.98698899999966" lon="-1.361860999999999">
        <ele>899.487</ele>
        <time>2022-08-24T13:07:08Z</time>
      </trkpt>
      <trkpt lat="42.986981999999664" lon="-1.361868999999999">
        <ele>899.486</ele>
        <time>2022-08-24T13:07:09Z</time>
      </trkpt>
      <trkpt lat="42.98697799999967" lon="-1.361872999999999">
        <ele>899.433</ele>
        <time>2022-08-24T13:07:10Z</time>
      </trkpt>
      <trkpt lat="42.98697499999967" lon="-1.361873999999999">
        <ele>899.623</ele>
        <time>2022-08-24T13:07:11Z</time>
      </trkpt>
      <trkpt lat="42.98697499999967" lon="-1.361873999999999">
        <ele>899.815</ele>
        <time>2022-08-24T13:07:12Z</time>
      </trkpt>
      <trkpt lat="42.98696899999967" lon="-1.361876999999999">
        <ele>900.009</ele>
        <time>2022-08-24T13:07:13Z</time>
      </trkpt>
      <trkpt lat="42.986966999999666" lon="-1.361878999999999">
        <ele>900.284</ele>
        <time>2022-08-24T13:07:14Z</time>
      </trkpt>
      <trkpt lat="42.986966999999666" lon="-1.361878999999999">
        <ele>900.274</ele>
        <time>2022-08-24T13:07:15Z</time>
      </trkpt>
      <trkpt lat="42.986952999999666" lon="-1.361883999999999">
        <ele>900.414</ele>
        <time>2022-08-24T13:07:16Z</time>
      </trkpt>
      <trkpt lat="42.98694899999967" lon="-1.361882999999999">
        <ele>900.410</ele>
        <time>2022-08-24T13:07:17Z</time>
      </trkpt>
      <trkpt lat="42.98693699999967" lon="-1.361885999999999">
        <ele>900.682</ele>
        <time>2022-08-24T13:07:18Z</time>
      </trkpt>
      <trkpt lat="42.98692499999967" lon="-1.361899999999999">
        <ele>900.829</ele>
        <time>2022-08-24T13:07:19Z</time>
      </trkpt>
      <trkpt lat="42.98690899999967" lon="-1.361908999999999">
        <ele>900.832</ele>
        <time>2022-08-24T13:07:20Z</time>
      </trkpt>
      <trkpt lat="42.98688899999967" lon="-1.361903999999999">
        <ele>901.066</ele>
        <time>2022-08-24T13:07:21Z</time>
      </trkpt>
      <trkpt lat="42.98687499999967" lon="-1.3619049999999988">
        <ele>901.045</ele>
        <time>2022-08-24T13:07:22Z</time>
      </trkpt>
      <trkpt lat="42.98685499999967" lon="-1.361911999999999">
        <ele>901.272</ele>
        <time>2022-08-24T13:07:23Z</time>
      </trkpt>
      <trkpt lat="42.98684099999967" lon="-1.3619149999999989">
        <ele>901.213</ele>
        <time>2022-08-24T13:07:24Z</time>
      </trkpt>
      <trkpt lat="42.98682799999967" lon="-1.361921999999999">
        <ele>901.414</ele>
        <time>2022-08-24T13:07:25Z</time>
      </trkpt>
      <trkpt lat="42.98681199999967" lon="-1.361926999999999">
        <ele>901.809</ele>
        <time>2022-08-24T13:07:26Z</time>
      </trkpt>
      <trkpt lat="42.986789999999665" lon="-1.361929999999999">
        <ele>901.828</ele>
        <time>2022-08-24T13:07:27Z</time>
      </trkpt>
      <trkpt lat="42.986783999999666" lon="-1.361927999999999">
        <ele>902.038</ele>
        <time>2022-08-24T13:07:28Z</time>
      </trkpt>
      <trkpt lat="42.986772999999666" lon="-1.361932999999999">
        <ele>902.028</ele>
        <time>2022-08-24T13:07:29Z</time>
      </trkpt>
      <trkpt lat="42.98675999999966" lon="-1.3619339999999989">
        <ele>902.414</ele>
        <time>2022-08-24T13:07:30Z</time>
      </trkpt>
      <trkpt lat="42.986747999999665" lon="-1.3619369999999988">
        <ele>902.646</ele>
        <time>2022-08-24T13:07:31Z</time>
      </trkpt>
      <trkpt lat="42.986730999999665" lon="-1.3619339999999989">
        <ele>902.883</ele>
        <time>2022-08-24T13:07:32Z</time>
      </trkpt>
      <trkpt lat="42.986705999999664" lon="-1.361946999999999">
        <ele>903.096</ele>
        <time>2022-08-24T13:07:33Z</time>
      </trkpt>
      <trkpt lat="42.98668699999966" lon="-1.3619399999999988">
        <ele>903.210</ele>
        <time>2022-08-24T13:07:34Z</time>
      </trkpt>
      <trkpt lat="42.98666799999966" lon="-1.361930999999999">
        <ele>903.239</ele>
        <time>2022-08-24T13:07:35Z</time>
      </trkpt>
      <trkpt lat="42.98666699999966" lon="-1.3619069999999989">
        <ele>903.483</ele>
        <time>2022-08-24T13:07:36Z</time>
      </trkpt>
      <trkpt lat="42.986657999999665" lon="-1.3619069999999989">
        <ele>903.825</ele>
        <time>2022-08-24T13:07:37Z</time>
      </trkpt>
      <trkpt lat="42.98664999999966" lon="-1.3619079999999988">
        <ele>903.817</ele>
        <time>2022-08-24T13:07:38Z</time>
      </trkpt>
      <trkpt lat="42.986645999999666" lon="-1.3619109999999988">
        <ele>904.009</ele>
        <time>2022-08-24T13:07:39Z</time>
      </trkpt>
      <trkpt lat="42.98663999999967" lon="-1.3619189999999988">
        <ele>904.219</ele>
        <time>2022-08-24T13:07:40Z</time>
      </trkpt>
      <trkpt lat="42.98663399999967" lon="-1.3619239999999988">
        <ele>904.489</ele>
        <time>2022-08-24T13:07:41Z</time>
      </trkpt>
      <trkpt lat="42.98663399999967" lon="-1.3619239999999988">
        <ele>904.689</ele>
        <time>2022-08-24T13:07:42Z</time>
      </trkpt>
      <trkpt lat="42.98660799999967" lon="-1.361938999999999">
        <ele>904.855</ele>
        <time>2022-08-24T13:07:43Z</time>
      </trkpt>
      <trkpt lat="42.98659599999967" lon="-1.361946999999999">
        <ele>905.047</ele>
        <time>2022-08-24T13:07:44Z</time>
      </trkpt>
      <trkpt lat="42.98658999999967" lon="-1.361956999999999">
        <ele>905.424</ele>
        <time>2022-08-24T13:07:45Z</time>
      </trkpt>
      <trkpt lat="42.98658699999967" lon="-1.3619689999999989">
        <ele>905.437</ele>
        <time>2022-08-24T13:07:46Z</time>
      </trkpt>
      <trkpt lat="42.98658499999967" lon="-1.3619799999999989">
        <ele>905.671</ele>
        <time>2022-08-24T13:07:47Z</time>
      </trkpt>
      <trkpt lat="42.986577999999675" lon="-1.361997999999999">
        <ele>905.670</ele>
        <time>2022-08-24T13:07:48Z</time>
      </trkpt>
      <trkpt lat="42.98657099999968" lon="-1.362008999999999">
        <ele>905.879</ele>
        <time>2022-08-24T13:07:49Z</time>
      </trkpt>
      <trkpt lat="42.98656399999968" lon="-1.3620229999999989">
        <ele>905.805</ele>
        <time>2022-08-24T13:07:50Z</time>
      </trkpt>
      <trkpt lat="42.98655499999968" lon="-1.3620349999999988">
        <ele>906.025</ele>
        <time>2022-08-24T13:07:51Z</time>
      </trkpt>
      <trkpt lat="42.98654999999968" lon="-1.3620529999999988">
        <ele>906.009</ele>
        <time>2022-08-24T13:07:52Z</time>
      </trkpt>
      <trkpt lat="42.98654799999968" lon="-1.3620669999999988">
        <ele>906.058</ele>
        <time>2022-08-24T13:07:53Z</time>
      </trkpt>
      <trkpt lat="42.98653899999968" lon="-1.3620779999999988">
        <ele>906.278</ele>
        <time>2022-08-24T13:07:54Z</time>
      </trkpt>
      <trkpt lat="42.98652399999968" lon="-1.3620919999999987">
        <ele>906.228</ele>
        <time>2022-08-24T13:07:55Z</time>
      </trkpt>
      <trkpt lat="42.986517999999684" lon="-1.3621019999999988">
        <ele>906.224</ele>
        <time>2022-08-24T13:07:56Z</time>
      </trkpt>
      <trkpt lat="42.986511999999685" lon="-1.3621159999999988">
        <ele>906.486</ele>
        <time>2022-08-24T13:07:57Z</time>
      </trkpt>
      <trkpt lat="42.986503999999684" lon="-1.3621299999999987">
        <ele>906.473</ele>
        <time>2022-08-24T13:07:58Z</time>
      </trkpt>
      <trkpt lat="42.986488999999686" lon="-1.3621429999999988">
        <ele>906.626</ele>
        <time>2022-08-24T13:07:59Z</time>
      </trkpt>
      <trkpt lat="42.98647699999969" lon="-1.3621589999999988">
        <ele>906.670</ele>
        <time>2022-08-24T13:08:00Z</time>
      </trkpt>
      <trkpt lat="42.98646299999969" lon="-1.3621769999999989">
        <ele>906.639</ele>
        <time>2022-08-24T13:08:01Z</time>
      </trkpt>
      <trkpt lat="42.98645399999969" lon="-1.3621969999999988">
        <ele>906.844</ele>
        <time>2022-08-24T13:08:02Z</time>
      </trkpt>
      <trkpt lat="42.98644799999969" lon="-1.3622179999999988">
        <ele>907.005</ele>
        <time>2022-08-24T13:08:03Z</time>
      </trkpt>
      <trkpt lat="42.98643699999969" lon="-1.362243999999999">
        <ele>907.215</ele>
        <time>2022-08-24T13:08:04Z</time>
      </trkpt>
      <trkpt lat="42.986443999999686" lon="-1.3622689999999988">
        <ele>907.209</ele>
        <time>2022-08-24T13:08:05Z</time>
      </trkpt>
      <trkpt lat="42.986444999999684" lon="-1.362291999999999">
        <ele>907.455</ele>
        <time>2022-08-24T13:08:06Z</time>
      </trkpt>
      <trkpt lat="42.986441999999684" lon="-1.3623119999999989">
        <ele>907.635</ele>
        <time>2022-08-24T13:08:07Z</time>
      </trkpt>
      <trkpt lat="42.98643499999969" lon="-1.3623359999999989">
        <ele>907.655</ele>
        <time>2022-08-24T13:08:08Z</time>
      </trkpt>
      <trkpt lat="42.986426999999686" lon="-1.3623529999999988">
        <ele>907.861</ele>
        <time>2022-08-24T13:08:09Z</time>
      </trkpt>
      <trkpt lat="42.98642399999969" lon="-1.3623709999999989">
        <ele>907.893</ele>
        <time>2022-08-24T13:08:10Z</time>
      </trkpt>
      <trkpt lat="42.98642099999969" lon="-1.3623879999999988">
        <ele>907.860</ele>
        <time>2022-08-24T13:08:11Z</time>
      </trkpt>
      <trkpt lat="42.98641199999969" lon="-1.3624069999999988">
        <ele>907.813</ele>
        <time>2022-08-24T13:08:12Z</time>
      </trkpt>
      <trkpt lat="42.98641199999969" lon="-1.3624069999999988">
        <ele>908.027</ele>
        <time>2022-08-24T13:08:13Z</time>
      </trkpt>
      <trkpt lat="42.98639299999969" lon="-1.3624449999999988">
        <ele>908.256</ele>
        <time>2022-08-24T13:08:14Z</time>
      </trkpt>
      <trkpt lat="42.986384999999686" lon="-1.3624659999999988">
        <ele>908.072</ele>
        <time>2022-08-24T13:08:15Z</time>
      </trkpt>
      <trkpt lat="42.986373999999685" lon="-1.362488999999999">
        <ele>908.213</ele>
        <time>2022-08-24T13:08:16Z</time>
      </trkpt>
      <trkpt lat="42.98636699999969" lon="-1.362511999999999">
        <ele>908.214</ele>
        <time>2022-08-24T13:08:17Z</time>
      </trkpt>
      <trkpt lat="42.98636299999969" lon="-1.362533999999999">
        <ele>908.409</ele>
        <time>2022-08-24T13:08:18Z</time>
      </trkpt>
      <trkpt lat="42.98635999999969" lon="-1.362553999999999">
        <ele>908.698</ele>
        <time>2022-08-24T13:08:19Z</time>
      </trkpt>
      <trkpt lat="42.98635699999969" lon="-1.3625739999999988">
        <ele>908.638</ele>
        <time>2022-08-24T13:08:20Z</time>
      </trkpt>
      <trkpt lat="42.98635499999969" lon="-1.3625939999999988">
        <ele>908.688</ele>
        <time>2022-08-24T13:08:21Z</time>
      </trkpt>
      <trkpt lat="42.986347999999694" lon="-1.3626129999999987">
        <ele>908.864</ele>
        <time>2022-08-24T13:08:22Z</time>
      </trkpt>
      <trkpt lat="42.986338999999695" lon="-1.3626399999999987">
        <ele>908.876</ele>
        <time>2022-08-24T13:08:23Z</time>
      </trkpt>
      <trkpt lat="42.9863319999997" lon="-1.3626689999999988">
        <ele>908.823</ele>
        <time>2022-08-24T13:08:24Z</time>
      </trkpt>
      <trkpt lat="42.9863259999997" lon="-1.3626989999999988">
        <ele>908.896</ele>
        <time>2022-08-24T13:08:25Z</time>
      </trkpt>
      <trkpt lat="42.9863209999997" lon="-1.3627329999999989">
        <ele>908.830</ele>
        <time>2022-08-24T13:08:26Z</time>
      </trkpt>
      <trkpt lat="42.9863099999997" lon="-1.3627739999999988">
        <ele>908.889</ele>
        <time>2022-08-24T13:08:27Z</time>
      </trkpt>
      <trkpt lat="42.9862979999997" lon="-1.3628209999999987">
        <ele>909.031</ele>
        <time>2022-08-24T13:08:28Z</time>
      </trkpt>
      <trkpt lat="42.9862779999997" lon="-1.3628699999999987">
        <ele>908.861</ele>
        <time>2022-08-24T13:08:29Z</time>
      </trkpt>
      <trkpt lat="42.9862089999997" lon="-1.3629569999999986">
        <ele>908.807</ele>
        <time>2022-08-24T13:08:31Z</time>
      </trkpt>
      <trkpt lat="42.9861569999997" lon="-1.3629969999999987">
        <ele>908.809</ele>
        <time>2022-08-24T13:08:32Z</time>
      </trkpt>
      <trkpt lat="42.9860979999997" lon="-1.3630289999999987">
        <ele>908.684</ele>
        <time>2022-08-24T13:08:33Z</time>
      </trkpt>
      <trkpt lat="42.9860429999997" lon="-1.3630599999999986">
        <ele>908.664</ele>
        <time>2022-08-24T13:08:34Z</time>
      </trkpt>
      <trkpt lat="42.9859949999997" lon="-1.3630809999999987">
        <ele>908.674</ele>
        <time>2022-08-24T13:08:35Z</time>
      </trkpt>
      <trkpt lat="42.9859949999997" lon="-1.3630809999999987">
        <ele>908.260</ele>
        <time>2022-08-24T13:08:36Z</time>
      </trkpt>
      <trkpt lat="42.9859299999997" lon="-1.3631089999999986">
        <ele>907.642</ele>
        <time>2022-08-24T13:08:37Z</time>
      </trkpt>
      <trkpt lat="42.985910999999696" lon="-1.3631209999999985">
        <ele>907.459</ele>
        <time>2022-08-24T13:08:38Z</time>
      </trkpt>
      <trkpt lat="42.98590099999969" lon="-1.3631329999999984">
        <ele>906.832</ele>
        <time>2022-08-24T13:08:39Z</time>
      </trkpt>
      <trkpt lat="42.98589299999969" lon="-1.3631489999999984">
        <ele>906.446</ele>
        <time>2022-08-24T13:08:40Z</time>
      </trkpt>
      <trkpt lat="42.98589099999969" lon="-1.3631509999999984">
        <ele>905.835</ele>
        <time>2022-08-24T13:08:41Z</time>
      </trkpt>
      <trkpt lat="42.98588999999969" lon="-1.3631519999999984">
        <ele>904.648</ele>
        <time>2022-08-24T13:09:25Z</time>
      </trkpt>
      <trkpt lat="42.98585299999969" lon="-1.3631759999999984">
        <ele>904.661</ele>
        <time>2022-08-24T13:09:27Z</time>
      </trkpt>
      <trkpt lat="42.98578899999969" lon="-1.3632099999999985">
        <ele>904.417</ele>
        <time>2022-08-24T13:09:29Z</time>
      </trkpt>
      <trkpt lat="42.98555099999969" lon="-1.3633659999999985">
        <ele>904.009</ele>
        <time>2022-08-24T13:09:33Z</time>
      </trkpt>
      <trkpt lat="42.985298999999685" lon="-1.3635259999999985">
        <ele>903.665</ele>
        <time>2022-08-24T13:09:36Z</time>
      </trkpt>
      <trkpt lat="42.985228999999684" lon="-1.3635919999999984">
        <ele>903.475</ele>
        <time>2022-08-24T13:09:37Z</time>
      </trkpt>
      <trkpt lat="42.98494599999968" lon="-1.3638189999999983">
        <ele>901.645</ele>
        <time>2022-08-24T13:09:40Z</time>
      </trkpt>
      <trkpt lat="42.98474899999968" lon="-1.3639759999999983">
        <ele>900.281</ele>
        <time>2022-08-24T13:09:42Z</time>
      </trkpt>
      <trkpt lat="42.98465999999968" lon="-1.3640429999999983">
        <ele>899.283</ele>
        <time>2022-08-24T13:09:43Z</time>
      </trkpt>
      <trkpt lat="42.98457299999968" lon="-1.3641149999999984">
        <ele>898.440</ele>
        <time>2022-08-24T13:09:44Z</time>
      </trkpt>
      <trkpt lat="42.98448999999968" lon="-1.3641889999999983">
        <ele>897.243</ele>
        <time>2022-08-24T13:09:45Z</time>
      </trkpt>
      <trkpt lat="42.984409999999684" lon="-1.3642649999999983">
        <ele>896.467</ele>
        <time>2022-08-24T13:09:46Z</time>
      </trkpt>
      <trkpt lat="42.98432599999968" lon="-1.3643359999999982">
        <ele>895.076</ele>
        <time>2022-08-24T13:09:47Z</time>
      </trkpt>
      <trkpt lat="42.984248999999686" lon="-1.3644109999999983">
        <ele>893.845</ele>
        <time>2022-08-24T13:09:48Z</time>
      </trkpt>
      <trkpt lat="42.98417399999968" lon="-1.3644579999999982">
        <ele>893.447</ele>
        <time>2022-08-24T13:09:49Z</time>
      </trkpt>
      <trkpt lat="42.984102999999685" lon="-1.3645329999999982">
        <ele>892.211</ele>
        <time>2022-08-24T13:09:50Z</time>
      </trkpt>
      <trkpt lat="42.984032999999684" lon="-1.3646089999999982">
        <ele>891.809</ele>
        <time>2022-08-24T13:09:51Z</time>
      </trkpt>
      <trkpt lat="42.98396699999969" lon="-1.364690999999998">
        <ele>890.845</ele>
        <time>2022-08-24T13:09:52Z</time>
      </trkpt>
      <trkpt lat="42.98383499999969" lon="-1.3648569999999982">
        <ele>889.285</ele>
        <time>2022-08-24T13:09:54Z</time>
      </trkpt>
      <trkpt lat="42.98376899999969" lon="-1.3649339999999983">
        <ele>888.075</ele>
        <time>2022-08-24T13:09:55Z</time>
      </trkpt>
      <trkpt lat="42.98370299999969" lon="-1.3650109999999984">
        <ele>887.451</ele>
        <time>2022-08-24T13:09:56Z</time>
      </trkpt>
      <trkpt lat="42.983636999999696" lon="-1.3650889999999984">
        <ele>886.223</ele>
        <time>2022-08-24T13:09:57Z</time>
      </trkpt>
      <trkpt lat="42.9834869999997" lon="-1.3652629999999983">
        <ele>884.430</ele>
        <time>2022-08-24T13:09:59Z</time>
      </trkpt>
      <trkpt lat="42.9834049999997" lon="-1.3653569999999984">
        <ele>883.083</ele>
        <time>2022-08-24T13:10:00Z</time>
      </trkpt>
      <trkpt lat="42.9833159999997" lon="-1.3654549999999983">
        <ele>882.457</ele>
        <time>2022-08-24T13:10:01Z</time>
      </trkpt>
      <trkpt lat="42.9832229999997" lon="-1.3655569999999984">
        <ele>881.036</ele>
        <time>2022-08-24T13:10:02Z</time>
      </trkpt>
      <trkpt lat="42.983029999999694" lon="-1.3657689999999985">
        <ele>878.628</ele>
        <time>2022-08-24T13:10:04Z</time>
      </trkpt>
      <trkpt lat="42.98283399999969" lon="-1.3659769999999984">
        <ele>876.489</ele>
        <time>2022-08-24T13:10:06Z</time>
      </trkpt>
      <trkpt lat="42.98274099999969" lon="-1.3660849999999984">
        <ele>874.417</ele>
        <time>2022-08-24T13:10:07Z</time>
      </trkpt>
      <trkpt lat="42.98264499999969" lon="-1.3661869999999985">
        <ele>873.409</ele>
        <time>2022-08-24T13:10:08Z</time>
      </trkpt>
      <trkpt lat="42.98255299999969" lon="-1.3662889999999985">
        <ele>871.653</ele>
        <time>2022-08-24T13:10:09Z</time>
      </trkpt>
      <trkpt lat="42.98246499999969" lon="-1.3663879999999986">
        <ele>870.873</ele>
        <time>2022-08-24T13:10:10Z</time>
      </trkpt>
      <trkpt lat="42.98238099999969" lon="-1.3664909999999986">
        <ele>869.443</ele>
        <time>2022-08-24T13:10:11Z</time>
      </trkpt>
      <trkpt lat="42.98229399999969" lon="-1.3665879999999986">
        <ele>869.069</ele>
        <time>2022-08-24T13:10:12Z</time>
      </trkpt>
      <trkpt lat="42.98220499999969" lon="-1.3666869999999987">
        <ele>868.021</ele>
        <time>2022-08-24T13:10:13Z</time>
      </trkpt>
      <trkpt lat="42.98211099999969" lon="-1.3667789999999986">
        <ele>866.868</ele>
        <time>2022-08-24T13:10:14Z</time>
      </trkpt>
      <trkpt lat="42.98189799999969" lon="-1.3669509999999987">
        <ele>865.661</ele>
        <time>2022-08-24T13:10:16Z</time>
      </trkpt>
      <trkpt lat="42.98172399999969" lon="-1.3670719999999987">
        <ele>864.675</ele>
        <time>2022-08-24T13:10:18Z</time>
      </trkpt>
      <trkpt lat="42.98160499999969" lon="-1.3671379999999986">
        <ele>864.284</ele>
        <time>2022-08-24T13:10:19Z</time>
      </trkpt>
      <trkpt lat="42.98150899999969" lon="-1.3671819999999986">
        <ele>863.454</ele>
        <time>2022-08-24T13:10:20Z</time>
      </trkpt>
      <trkpt lat="42.98141799999969" lon="-1.3672219999999986">
        <ele>862.456</ele>
        <time>2022-08-24T13:10:21Z</time>
      </trkpt>
      <trkpt lat="42.98133399999969" lon="-1.3672609999999985">
        <ele>862.211</ele>
        <time>2022-08-24T13:10:22Z</time>
      </trkpt>
      <trkpt lat="42.98127299999969" lon="-1.3672909999999985">
        <ele>861.809</ele>
        <time>2022-08-24T13:10:23Z</time>
      </trkpt>
      <trkpt lat="42.98119199999969" lon="-1.3673359999999986">
        <ele>861.646</ele>
        <time>2022-08-24T13:10:24Z</time>
      </trkpt>
      <trkpt lat="42.981150999999684" lon="-1.3673779999999987">
        <ele>860.826</ele>
        <time>2022-08-24T13:10:25Z</time>
      </trkpt>
      <trkpt lat="42.981108999999684" lon="-1.3674349999999986">
        <ele>860.226</ele>
        <time>2022-08-24T13:10:26Z</time>
      </trkpt>
      <trkpt lat="42.981074999999684" lon="-1.3674869999999986">
        <ele>860.082</ele>
        <time>2022-08-24T13:10:27Z</time>
      </trkpt>
      <trkpt lat="42.98104299999969" lon="-1.3675319999999986">
        <ele>859.684</ele>
        <time>2022-08-24T13:10:28Z</time>
      </trkpt>
      <trkpt lat="42.98100799999969" lon="-1.3675809999999986">
        <ele>859.021</ele>
        <time>2022-08-24T13:10:29Z</time>
      </trkpt>
      <trkpt lat="42.98097599999969" lon="-1.3676289999999987">
        <ele>858.434</ele>
        <time>2022-08-24T13:10:30Z</time>
      </trkpt>
      <trkpt lat="42.98094799999969" lon="-1.3676799999999987">
        <ele>858.258</ele>
        <time>2022-08-24T13:10:31Z</time>
      </trkpt>
      <trkpt lat="42.98091799999969" lon="-1.3677309999999987">
        <ele>857.857</ele>
        <time>2022-08-24T13:10:32Z</time>
      </trkpt>
      <trkpt lat="42.98089199999969" lon="-1.3677829999999986">
        <ele>857.418</ele>
        <time>2022-08-24T13:10:33Z</time>
      </trkpt>
      <trkpt lat="42.98086599999969" lon="-1.3678319999999986">
        <ele>857.298</ele>
        <time>2022-08-24T13:10:34Z</time>
      </trkpt>
      <trkpt lat="42.980766999999695" lon="-1.3680549999999987">
        <ele>856.417</ele>
        <time>2022-08-24T13:10:38Z</time>
      </trkpt>
      <trkpt lat="42.980743999999696" lon="-1.3681129999999986">
        <ele>856.409</ele>
        <time>2022-08-24T13:10:39Z</time>
      </trkpt>
      <trkpt lat="42.9807259999997" lon="-1.3681649999999985">
        <ele>856.452</ele>
        <time>2022-08-24T13:10:40Z</time>
      </trkpt>
      <trkpt lat="42.9807069999997" lon="-1.3682139999999985">
        <ele>856.482</ele>
        <time>2022-08-24T13:10:41Z</time>
      </trkpt>
      <trkpt lat="42.98063799999969" lon="-1.3683599999999985">
        <ele>856.442</ele>
        <time>2022-08-24T13:10:44Z</time>
      </trkpt>
      <trkpt lat="42.98059299999969" lon="-1.3684649999999985">
        <ele>856.498</ele>
        <time>2022-08-24T13:10:46Z</time>
      </trkpt>
      <trkpt lat="42.980569999999695" lon="-1.3685139999999985">
        <ele>856.450</ele>
        <time>2022-08-24T13:10:47Z</time>
      </trkpt>
      <trkpt lat="42.98044999999969" lon="-1.3687519999999984">
        <ele>856.277</ele>
        <time>2022-08-24T13:10:52Z</time>
      </trkpt>
      <trkpt lat="42.98042799999969" lon="-1.3687999999999985">
        <ele>856.280</ele>
        <time>2022-08-24T13:10:53Z</time>
      </trkpt>
      <trkpt lat="42.98040399999969" lon="-1.3688439999999984">
        <ele>856.274</ele>
        <time>2022-08-24T13:10:54Z</time>
      </trkpt>
      <trkpt lat="42.98038099999969" lon="-1.3688869999999984">
        <ele>856.243</ele>
        <time>2022-08-24T13:10:55Z</time>
      </trkpt>
      <trkpt lat="42.980356999999685" lon="-1.3689279999999984">
        <ele>856.257</ele>
        <time>2022-08-24T13:10:56Z</time>
      </trkpt>
      <trkpt lat="42.980331999999684" lon="-1.3689649999999984">
        <ele>856.200</ele>
        <time>2022-08-24T13:10:57Z</time>
      </trkpt>
      <trkpt lat="42.98030799999968" lon="-1.3689979999999984">
        <ele>856.220</ele>
        <time>2022-08-24T13:10:58Z</time>
      </trkpt>
      <trkpt lat="42.98028299999968" lon="-1.3690259999999983">
        <ele>856.209</ele>
        <time>2022-08-24T13:10:59Z</time>
      </trkpt>
      <trkpt lat="42.98025599999968" lon="-1.3690509999999982">
        <ele>856.256</ele>
        <time>2022-08-24T13:11:00Z</time>
      </trkpt>
      <trkpt lat="42.98022399999968" lon="-1.3690739999999983">
        <ele>856.246</ele>
        <time>2022-08-24T13:11:01Z</time>
      </trkpt>
      <trkpt lat="42.98015999999968" lon="-1.3691099999999983">
        <ele>856.246</ele>
        <time>2022-08-24T13:11:03Z</time>
      </trkpt>
      <trkpt lat="42.980129999999676" lon="-1.3691189999999982">
        <ele>856.222</ele>
        <time>2022-08-24T13:11:04Z</time>
      </trkpt>
      <trkpt lat="42.98009799999968" lon="-1.3691289999999983">
        <ele>856.224</ele>
        <time>2022-08-24T13:11:05Z</time>
      </trkpt>
      <trkpt lat="42.98006599999968" lon="-1.3691389999999983">
        <ele>856.261</ele>
        <time>2022-08-24T13:11:06Z</time>
      </trkpt>
      <trkpt lat="42.980033999999684" lon="-1.3691459999999984">
        <ele>856.294</ele>
        <time>2022-08-24T13:11:07Z</time>
      </trkpt>
      <trkpt lat="42.979970999999686" lon="-1.3691649999999984">
        <ele>856.238</ele>
        <time>2022-08-24T13:11:09Z</time>
      </trkpt>
      <trkpt lat="42.979906999999685" lon="-1.3691689999999983">
        <ele>856.267</ele>
        <time>2022-08-24T13:11:11Z</time>
      </trkpt>
      <trkpt lat="42.97984599999968" lon="-1.3691909999999983">
        <ele>856.287</ele>
        <time>2022-08-24T13:11:13Z</time>
      </trkpt>
      <trkpt lat="42.979816999999684" lon="-1.3692089999999983">
        <ele>856.242</ele>
        <time>2022-08-24T13:11:14Z</time>
      </trkpt>
      <trkpt lat="42.97973599999968" lon="-1.3692429999999984">
        <ele>856.226</ele>
        <time>2022-08-24T13:11:17Z</time>
      </trkpt>
      <trkpt lat="42.979729999999684" lon="-1.3692459999999984">
        <ele>856.009</ele>
        <time>2022-08-24T13:11:18Z</time>
      </trkpt>
      <trkpt lat="42.97967499999968" lon="-1.3692729999999984">
        <ele>855.899</ele>
        <time>2022-08-24T13:11:46Z</time>
      </trkpt>
      <trkpt lat="42.97964499999968" lon="-1.3692889999999984">
        <ele>855.869</ele>
        <time>2022-08-24T13:11:47Z</time>
      </trkpt>
      <trkpt lat="42.97960899999968" lon="-1.3693189999999984">
        <ele>855.849</ele>
        <time>2022-08-24T13:11:48Z</time>
      </trkpt>
      <trkpt lat="42.979521999999676" lon="-1.3694049999999984">
        <ele>855.615</ele>
        <time>2022-08-24T13:11:50Z</time>
      </trkpt>
      <trkpt lat="42.979389999999675" lon="-1.3695029999999984">
        <ele>855.237</ele>
        <time>2022-08-24T13:11:53Z</time>
      </trkpt>
      <trkpt lat="42.97933599999968" lon="-1.3695339999999983">
        <ele>855.054</ele>
        <time>2022-08-24T13:11:54Z</time>
      </trkpt>
      <trkpt lat="42.979293999999676" lon="-1.3695529999999982">
        <ele>855.037</ele>
        <time>2022-08-24T13:11:55Z</time>
      </trkpt>
      <trkpt lat="42.979260999999674" lon="-1.3695669999999982">
        <ele>854.871</ele>
        <time>2022-08-24T13:11:56Z</time>
      </trkpt>
      <trkpt lat="42.97923599999967" lon="-1.3695779999999982">
        <ele>854.820</ele>
        <time>2022-08-24T13:11:57Z</time>
      </trkpt>
      <trkpt lat="42.97920499999967" lon="-1.3695939999999982">
        <ele>854.457</ele>
        <time>2022-08-24T13:11:58Z</time>
      </trkpt>
      <trkpt lat="42.979184999999674" lon="-1.3696129999999982">
        <ele>854.400</ele>
        <time>2022-08-24T13:11:59Z</time>
      </trkpt>
      <trkpt lat="42.979172999999676" lon="-1.369643999999998">
        <ele>854.420</ele>
        <time>2022-08-24T13:12:00Z</time>
      </trkpt>
      <trkpt lat="42.97918599999968" lon="-1.369730999999998">
        <ele>854.209</ele>
        <time>2022-08-24T13:12:02Z</time>
      </trkpt>
      <trkpt lat="42.97922499999968" lon="-1.369892999999998">
        <ele>854.286</ele>
        <time>2022-08-24T13:12:05Z</time>
      </trkpt>
      <trkpt lat="42.97923599999968" lon="-1.369938999999998">
        <ele>854.276</ele>
        <time>2022-08-24T13:12:06Z</time>
      </trkpt>
      <trkpt lat="42.97926699999968" lon="-1.370062999999998">
        <ele>853.876</ele>
        <time>2022-08-24T13:12:08Z</time>
      </trkpt>
      <trkpt lat="42.97927499999968" lon="-1.370114999999998">
        <ele>853.692</ele>
        <time>2022-08-24T13:12:09Z</time>
      </trkpt>
      <trkpt lat="42.97928899999968" lon="-1.370167999999998">
        <ele>853.654</ele>
        <time>2022-08-24T13:12:10Z</time>
      </trkpt>
      <trkpt lat="42.97931499999968" lon="-1.370267999999998">
        <ele>853.441</ele>
        <time>2022-08-24T13:12:12Z</time>
      </trkpt>
      <trkpt lat="42.97933299999968" lon="-1.3703289999999981">
        <ele>853.494</ele>
        <time>2022-08-24T13:12:13Z</time>
      </trkpt>
      <trkpt lat="42.979344999999675" lon="-1.370377999999998">
        <ele>853.478</ele>
        <time>2022-08-24T13:12:14Z</time>
      </trkpt>
      <trkpt lat="42.979353999999674" lon="-1.3704279999999982">
        <ele>853.437</ele>
        <time>2022-08-24T13:12:15Z</time>
      </trkpt>
      <trkpt lat="42.979361999999675" lon="-1.3704649999999983">
        <ele>853.443</ele>
        <time>2022-08-24T13:12:16Z</time>
      </trkpt>
      <trkpt lat="42.979375999999675" lon="-1.3705209999999983">
        <ele>853.464</ele>
        <time>2022-08-24T13:12:17Z</time>
      </trkpt>
      <trkpt lat="42.97938299999967" lon="-1.3705649999999983">
        <ele>853.410</ele>
        <time>2022-08-24T13:12:18Z</time>
      </trkpt>
      <trkpt lat="42.97939399999967" lon="-1.3706049999999983">
        <ele>853.409</ele>
        <time>2022-08-24T13:12:19Z</time>
      </trkpt>
      <trkpt lat="42.97941399999967" lon="-1.3706559999999983">
        <ele>853.475</ele>
        <time>2022-08-24T13:12:20Z</time>
      </trkpt>
      <trkpt lat="42.97943099999967" lon="-1.3706969999999983">
        <ele>853.685</ele>
        <time>2022-08-24T13:12:21Z</time>
      </trkpt>
      <trkpt lat="42.97949499999967" lon="-1.3708809999999982">
        <ele>853.675</ele>
        <time>2022-08-24T13:12:25Z</time>
      </trkpt>
      <trkpt lat="42.979507999999676" lon="-1.3709229999999983">
        <ele>853.661</ele>
        <time>2022-08-24T13:12:26Z</time>
      </trkpt>
      <trkpt lat="42.97951899999968" lon="-1.3709639999999983">
        <ele>853.633</ele>
        <time>2022-08-24T13:12:27Z</time>
      </trkpt>
      <trkpt lat="42.97955199999968" lon="-1.3710879999999983">
        <ele>853.810</ele>
        <time>2022-08-24T13:12:30Z</time>
      </trkpt>
      <trkpt lat="42.97957999999968" lon="-1.3711819999999983">
        <ele>854.073</ele>
        <time>2022-08-24T13:12:32Z</time>
      </trkpt>
      <trkpt lat="42.979642999999676" lon="-1.3713899999999983">
        <ele>854.417</ele>
        <time>2022-08-24T13:12:37Z</time>
      </trkpt>
      <trkpt lat="42.97965299999968" lon="-1.3714329999999983">
        <ele>854.856</ele>
        <time>2022-08-24T13:12:38Z</time>
      </trkpt>
      <trkpt lat="42.97970299999968" lon="-1.3715699999999984">
        <ele>855.264</ele>
        <time>2022-08-24T13:12:41Z</time>
      </trkpt>
      <trkpt lat="42.97972899999968" lon="-1.3716599999999983">
        <ele>855.606</ele>
        <time>2022-08-24T13:12:43Z</time>
      </trkpt>
      <trkpt lat="42.97974199999968" lon="-1.3717049999999984">
        <ele>855.616</ele>
        <time>2022-08-24T13:12:44Z</time>
      </trkpt>
      <trkpt lat="42.97975399999968" lon="-1.3717499999999985">
        <ele>855.809</ele>
        <time>2022-08-24T13:12:45Z</time>
      </trkpt>
      <trkpt lat="42.97978199999968" lon="-1.3718409999999985">
        <ele>856.077</ele>
        <time>2022-08-24T13:12:47Z</time>
      </trkpt>
      <trkpt lat="42.97981499999968" lon="-1.3719159999999986">
        <ele>856.427</ele>
        <time>2022-08-24T13:12:49Z</time>
      </trkpt>
      <trkpt lat="42.97982699999968" lon="-1.3719579999999987">
        <ele>856.417</ele>
        <time>2022-08-24T13:12:50Z</time>
      </trkpt>
      <trkpt lat="42.97983899999968" lon="-1.3719989999999986">
        <ele>856.473</ele>
        <time>2022-08-24T13:12:51Z</time>
      </trkpt>
      <trkpt lat="42.97986999999968" lon="-1.3721209999999986">
        <ele>856.875</ele>
        <time>2022-08-24T13:12:54Z</time>
      </trkpt>
      <trkpt lat="42.97987599999968" lon="-1.3721619999999985">
        <ele>857.032</ele>
        <time>2022-08-24T13:12:55Z</time>
      </trkpt>
      <trkpt lat="42.979890999999675" lon="-1.3722079999999985">
        <ele>857.055</ele>
        <time>2022-08-24T13:12:56Z</time>
      </trkpt>
      <trkpt lat="42.97990699999968" lon="-1.3722509999999986">
        <ele>857.089</ele>
        <time>2022-08-24T13:12:57Z</time>
      </trkpt>
      <trkpt lat="42.97991999999968" lon="-1.3722889999999985">
        <ele>857.228</ele>
        <time>2022-08-24T13:12:58Z</time>
      </trkpt>
      <trkpt lat="42.97993199999968" lon="-1.3723309999999986">
        <ele>857.255</ele>
        <time>2022-08-24T13:12:59Z</time>
      </trkpt>
      <trkpt lat="42.979938999999675" lon="-1.3723659999999986">
        <ele>857.607</ele>
        <time>2022-08-24T13:13:00Z</time>
      </trkpt>
      <trkpt lat="42.979946999999676" lon="-1.3723999999999987">
        <ele>857.617</ele>
        <time>2022-08-24T13:13:01Z</time>
      </trkpt>
      <trkpt lat="42.97995699999968" lon="-1.3724339999999988">
        <ele>857.609</ele>
        <time>2022-08-24T13:13:02Z</time>
      </trkpt>
      <trkpt lat="42.979960999999676" lon="-1.3724689999999988">
        <ele>857.646</ele>
        <time>2022-08-24T13:13:03Z</time>
      </trkpt>
      <trkpt lat="42.97994899999968" lon="-1.372494999999999">
        <ele>857.686</ele>
        <time>2022-08-24T13:13:04Z</time>
      </trkpt>
      <trkpt lat="42.97992299999968" lon="-1.372512999999999">
        <ele>857.846</ele>
        <time>2022-08-24T13:13:05Z</time>
      </trkpt>
      <trkpt lat="42.97989199999968" lon="-1.372525999999999">
        <ele>858.272</ele>
        <time>2022-08-24T13:13:06Z</time>
      </trkpt>
      <trkpt lat="42.97986199999968" lon="-1.3725409999999991">
        <ele>858.484</ele>
        <time>2022-08-24T13:13:07Z</time>
      </trkpt>
      <trkpt lat="42.97982799999968" lon="-1.372554999999999">
        <ele>858.461</ele>
        <time>2022-08-24T13:13:08Z</time>
      </trkpt>
      <trkpt lat="42.97979399999968" lon="-1.372570999999999">
        <ele>858.424</ele>
        <time>2022-08-24T13:13:09Z</time>
      </trkpt>
      <trkpt lat="42.97975699999968" lon="-1.3725919999999991">
        <ele>858.468</ele>
        <time>2022-08-24T13:13:10Z</time>
      </trkpt>
      <trkpt lat="42.97973099999968" lon="-1.372611999999999">
        <ele>858.867</ele>
        <time>2022-08-24T13:13:11Z</time>
      </trkpt>
      <trkpt lat="42.97970799999968" lon="-1.372633999999999">
        <ele>858.895</ele>
        <time>2022-08-24T13:13:12Z</time>
      </trkpt>
      <trkpt lat="42.979689999999685" lon="-1.372658999999999">
        <ele>859.049</ele>
        <time>2022-08-24T13:13:13Z</time>
      </trkpt>
      <trkpt lat="42.97967499999969" lon="-1.372683999999999">
        <ele>859.423</ele>
        <time>2022-08-24T13:13:14Z</time>
      </trkpt>
      <trkpt lat="42.97966599999969" lon="-1.372707999999999">
        <ele>859.409</ele>
        <time>2022-08-24T13:13:15Z</time>
      </trkpt>
      <trkpt lat="42.97964899999969" lon="-1.3727329999999989">
        <ele>859.620</ele>
        <time>2022-08-24T13:13:16Z</time>
      </trkpt>
      <trkpt lat="42.97962999999969" lon="-1.3727579999999988">
        <ele>859.680</ele>
        <time>2022-08-24T13:13:17Z</time>
      </trkpt>
      <trkpt lat="42.979613999999685" lon="-1.3727829999999988">
        <ele>859.610</ele>
        <time>2022-08-24T13:13:18Z</time>
      </trkpt>
      <trkpt lat="42.97959599999969" lon="-1.3728099999999988">
        <ele>859.646</ele>
        <time>2022-08-24T13:13:19Z</time>
      </trkpt>
      <trkpt lat="42.979571999999685" lon="-1.3728369999999988">
        <ele>860.088</ele>
        <time>2022-08-24T13:13:20Z</time>
      </trkpt>
      <trkpt lat="42.979540999999685" lon="-1.3728739999999988">
        <ele>860.025</ele>
        <time>2022-08-24T13:13:21Z</time>
      </trkpt>
      <trkpt lat="42.97950599999969" lon="-1.3729099999999987">
        <ele>860.038</ele>
        <time>2022-08-24T13:13:22Z</time>
      </trkpt>
      <trkpt lat="42.979461999999685" lon="-1.3729479999999987">
        <ele>860.022</ele>
        <time>2022-08-24T13:13:23Z</time>
      </trkpt>
      <trkpt lat="42.979416999999685" lon="-1.3729889999999987">
        <ele>859.891</ele>
        <time>2022-08-24T13:13:24Z</time>
      </trkpt>
      <trkpt lat="42.979368999999686" lon="-1.3730339999999988">
        <ele>859.688</ele>
        <time>2022-08-24T13:13:25Z</time>
      </trkpt>
      <trkpt lat="42.979318999999684" lon="-1.3730809999999987">
        <ele>859.624</ele>
        <time>2022-08-24T13:13:26Z</time>
      </trkpt>
      <trkpt lat="42.979264999999685" lon="-1.3731299999999986">
        <ele>859.626</ele>
        <time>2022-08-24T13:13:27Z</time>
      </trkpt>
      <trkpt lat="42.979197999999684" lon="-1.3731889999999987">
        <ele>859.609</ele>
        <time>2022-08-24T13:13:28Z</time>
      </trkpt>
      <trkpt lat="42.97915599999968" lon="-1.3732299999999986">
        <ele>859.469</ele>
        <time>2022-08-24T13:13:29Z</time>
      </trkpt>
      <trkpt lat="42.978994999999685" lon="-1.3733689999999985">
        <ele>858.859</ele>
        <time>2022-08-24T13:13:32Z</time>
      </trkpt>
      <trkpt lat="42.97894299999969" lon="-1.3734159999999984">
        <ele>858.649</ele>
        <time>2022-08-24T13:13:33Z</time>
      </trkpt>
      <trkpt lat="42.97889299999969" lon="-1.3734589999999984">
        <ele>858.475</ele>
        <time>2022-08-24T13:13:34Z</time>
      </trkpt>
      <trkpt lat="42.97884499999969" lon="-1.3735029999999984">
        <ele>858.097</ele>
        <time>2022-08-24T13:13:35Z</time>
      </trkpt>
      <trkpt lat="42.97879999999969" lon="-1.3735439999999983">
        <ele>857.844</ele>
        <time>2022-08-24T13:13:36Z</time>
      </trkpt>
      <trkpt lat="42.978755999999684" lon="-1.3735849999999983">
        <ele>857.627</ele>
        <time>2022-08-24T13:13:37Z</time>
      </trkpt>
      <trkpt lat="42.97871199999968" lon="-1.3736229999999983">
        <ele>857.691</ele>
        <time>2022-08-24T13:13:38Z</time>
      </trkpt>
      <trkpt lat="42.97867299999968" lon="-1.3736609999999982">
        <ele>857.630</ele>
        <time>2022-08-24T13:13:39Z</time>
      </trkpt>
      <trkpt lat="42.97863699999968" lon="-1.3736969999999982">
        <ele>857.624</ele>
        <time>2022-08-24T13:13:40Z</time>
      </trkpt>
      <trkpt lat="42.97860599999968" lon="-1.3737299999999981">
        <ele>857.604</ele>
        <time>2022-08-24T13:13:41Z</time>
      </trkpt>
      <trkpt lat="42.97857899999968" lon="-1.373759999999998">
        <ele>857.614</ele>
        <time>2022-08-24T13:13:42Z</time>
      </trkpt>
      <trkpt lat="42.97855499999967" lon="-1.3737859999999982">
        <ele>857.609</ele>
        <time>2022-08-24T13:13:43Z</time>
      </trkpt>
      <trkpt lat="42.97853299999967" lon="-1.3738089999999983">
        <ele>857.663</ele>
        <time>2022-08-24T13:13:44Z</time>
      </trkpt>
      <trkpt lat="42.97851299999967" lon="-1.3738269999999984">
        <ele>857.863</ele>
        <time>2022-08-24T13:13:45Z</time>
      </trkpt>
      <trkpt lat="42.97849399999967" lon="-1.3738449999999984">
        <ele>857.853</ele>
        <time>2022-08-24T13:13:46Z</time>
      </trkpt>
      <trkpt lat="42.97847799999967" lon="-1.3738659999999985">
        <ele>858.019</ele>
        <time>2022-08-24T13:13:47Z</time>
      </trkpt>
      <trkpt lat="42.97846299999967" lon="-1.3738859999999984">
        <ele>858.091</ele>
        <time>2022-08-24T13:13:48Z</time>
      </trkpt>
      <trkpt lat="42.97844799999967" lon="-1.3739069999999984">
        <ele>858.278</ele>
        <time>2022-08-24T13:13:49Z</time>
      </trkpt>
      <trkpt lat="42.97843399999967" lon="-1.3739269999999983">
        <ele>858.421</ele>
        <time>2022-08-24T13:13:50Z</time>
      </trkpt>
      <trkpt lat="42.97841799999967" lon="-1.3739459999999983">
        <ele>858.625</ele>
        <time>2022-08-24T13:13:51Z</time>
      </trkpt>
      <trkpt lat="42.97839099999967" lon="-1.3739839999999983">
        <ele>858.624</ele>
        <time>2022-08-24T13:13:53Z</time>
      </trkpt>
      <trkpt lat="42.97837699999967" lon="-1.3740079999999983">
        <ele>859.056</ele>
        <time>2022-08-24T13:13:54Z</time>
      </trkpt>
      <trkpt lat="42.97834499999967" lon="-1.3740619999999983">
        <ele>859.459</ele>
        <time>2022-08-24T13:13:57Z</time>
      </trkpt>
      <trkpt lat="42.97833399999967" lon="-1.3740799999999984">
        <ele>859.614</ele>
        <time>2022-08-24T13:13:58Z</time>
      </trkpt>
      <trkpt lat="42.97832399999967" lon="-1.3740969999999983">
        <ele>859.809</ele>
        <time>2022-08-24T13:13:59Z</time>
      </trkpt>
      <trkpt lat="42.978310999999664" lon="-1.3741149999999984">
        <ele>859.866</ele>
        <time>2022-08-24T13:14:00Z</time>
      </trkpt>
      <trkpt lat="42.97826099999966" lon="-1.3741859999999984">
        <ele>860.826</ele>
        <time>2022-08-24T13:14:04Z</time>
      </trkpt>
      <trkpt lat="42.97825099999966" lon="-1.3742039999999984">
        <ele>860.876</ele>
        <time>2022-08-24T13:14:05Z</time>
      </trkpt>
      <trkpt lat="42.97823999999966" lon="-1.3742219999999985">
        <ele>861.232</ele>
        <time>2022-08-24T13:14:06Z</time>
      </trkpt>
      <trkpt lat="42.97822899999966" lon="-1.3742429999999985">
        <ele>861.234</ele>
        <time>2022-08-24T13:14:07Z</time>
      </trkpt>
      <trkpt lat="42.97821799999966" lon="-1.3742619999999985">
        <ele>861.451</ele>
        <time>2022-08-24T13:14:08Z</time>
      </trkpt>
      <trkpt lat="42.97820399999966" lon="-1.3742809999999985">
        <ele>861.474</ele>
        <time>2022-08-24T13:14:09Z</time>
      </trkpt>
      <trkpt lat="42.978192999999656" lon="-1.3742989999999986">
        <ele>861.658</ele>
        <time>2022-08-24T13:14:10Z</time>
      </trkpt>
      <trkpt lat="42.978181999999656" lon="-1.3743169999999987">
        <ele>861.867</ele>
        <time>2022-08-24T13:14:11Z</time>
      </trkpt>
      <trkpt lat="42.97816999999966" lon="-1.3743369999999986">
        <ele>862.036</ele>
        <time>2022-08-24T13:14:12Z</time>
      </trkpt>
      <trkpt lat="42.97815899999966" lon="-1.3743569999999985">
        <ele>862.217</ele>
        <time>2022-08-24T13:14:13Z</time>
      </trkpt>
      <trkpt lat="42.978147999999656" lon="-1.3743779999999985">
        <ele>862.418</ele>
        <time>2022-08-24T13:14:14Z</time>
      </trkpt>
      <trkpt lat="42.978139999999655" lon="-1.3744009999999987">
        <ele>862.409</ele>
        <time>2022-08-24T13:14:15Z</time>
      </trkpt>
      <trkpt lat="42.97813099999966" lon="-1.3744219999999987">
        <ele>862.684</ele>
        <time>2022-08-24T13:14:16Z</time>
      </trkpt>
      <trkpt lat="42.97811899999966" lon="-1.3744409999999987">
        <ele>862.864</ele>
        <time>2022-08-24T13:14:17Z</time>
      </trkpt>
      <trkpt lat="42.97810499999966" lon="-1.3744599999999987">
        <ele>863.054</ele>
        <time>2022-08-24T13:14:18Z</time>
      </trkpt>
      <trkpt lat="42.978091999999656" lon="-1.3744769999999986">
        <ele>863.290</ele>
        <time>2022-08-24T13:14:19Z</time>
      </trkpt>
      <trkpt lat="42.978080999999655" lon="-1.3744949999999987">
        <ele>863.432</ele>
        <time>2022-08-24T13:14:20Z</time>
      </trkpt>
      <trkpt lat="42.978069999999654" lon="-1.3745139999999987">
        <ele>863.689</ele>
        <time>2022-08-24T13:14:21Z</time>
      </trkpt>
      <trkpt lat="42.97806199999965" lon="-1.3745339999999986">
        <ele>863.862</ele>
        <time>2022-08-24T13:14:22Z</time>
      </trkpt>
      <trkpt lat="42.97805399999965" lon="-1.3745539999999985">
        <ele>864.086</ele>
        <time>2022-08-24T13:14:23Z</time>
      </trkpt>
      <trkpt lat="42.97804499999965" lon="-1.3745739999999984">
        <ele>864.255</ele>
        <time>2022-08-24T13:14:24Z</time>
      </trkpt>
      <trkpt lat="42.97803999999965" lon="-1.3745959999999984">
        <ele>864.438</ele>
        <time>2022-08-24T13:14:25Z</time>
      </trkpt>
      <trkpt lat="42.978035999999655" lon="-1.3746169999999984">
        <ele>864.470</ele>
        <time>2022-08-24T13:14:26Z</time>
      </trkpt>
      <trkpt lat="42.97802899999966" lon="-1.3746389999999984">
        <ele>864.817</ele>
        <time>2022-08-24T13:14:27Z</time>
      </trkpt>
      <trkpt lat="42.97802499999966" lon="-1.3746619999999985">
        <ele>864.809</ele>
        <time>2022-08-24T13:14:28Z</time>
      </trkpt>
      <trkpt lat="42.97801999999966" lon="-1.3746839999999985">
        <ele>865.034</ele>
        <time>2022-08-24T13:14:29Z</time>
      </trkpt>
      <trkpt lat="42.97801199999966" lon="-1.3747069999999986">
        <ele>865.234</ele>
        <time>2022-08-24T13:14:30Z</time>
      </trkpt>
      <trkpt lat="42.97799999999966" lon="-1.3747299999999987">
        <ele>865.444</ele>
        <time>2022-08-24T13:14:31Z</time>
      </trkpt>
      <trkpt lat="42.97799099999966" lon="-1.3747499999999986">
        <ele>865.410</ele>
        <time>2022-08-24T13:14:32Z</time>
      </trkpt>
      <trkpt lat="42.97798599999966" lon="-1.3747709999999986">
        <ele>865.682</ele>
        <time>2022-08-24T13:14:33Z</time>
      </trkpt>
      <trkpt lat="42.97798199999966" lon="-1.3747939999999987">
        <ele>865.849</ele>
        <time>2022-08-24T13:14:34Z</time>
      </trkpt>
      <trkpt lat="42.977975999999664" lon="-1.3748179999999988">
        <ele>865.872</ele>
        <time>2022-08-24T13:14:35Z</time>
      </trkpt>
      <trkpt lat="42.977969999999665" lon="-1.3748399999999987">
        <ele>866.076</ele>
        <time>2022-08-24T13:14:36Z</time>
      </trkpt>
      <trkpt lat="42.97796099999967" lon="-1.3748639999999988">
        <ele>866.455</ele>
        <time>2022-08-24T13:14:37Z</time>
      </trkpt>
      <trkpt lat="42.97795499999967" lon="-1.3748789999999989">
        <ele>866.826</ele>
        <time>2022-08-24T13:14:38Z</time>
      </trkpt>
      <trkpt lat="42.97794899999967" lon="-1.3748979999999988">
        <ele>867.047</ele>
        <time>2022-08-24T13:14:39Z</time>
      </trkpt>
      <trkpt lat="42.97794099999967" lon="-1.3749149999999988">
        <ele>867.211</ele>
        <time>2022-08-24T13:14:40Z</time>
      </trkpt>
      <trkpt lat="42.97793499999967" lon="-1.3749369999999987">
        <ele>867.609</ele>
        <time>2022-08-24T13:14:41Z</time>
      </trkpt>
      <trkpt lat="42.97792799999967" lon="-1.3749569999999987">
        <ele>868.063</ele>
        <time>2022-08-24T13:14:42Z</time>
      </trkpt>
      <trkpt lat="42.977920999999675" lon="-1.3749769999999986">
        <ele>868.053</ele>
        <time>2022-08-24T13:14:43Z</time>
      </trkpt>
      <trkpt lat="42.97791399999968" lon="-1.3749959999999986">
        <ele>868.073</ele>
        <time>2022-08-24T13:14:44Z</time>
      </trkpt>
      <trkpt lat="42.97790599999968" lon="-1.3750139999999986">
        <ele>868.049</ele>
        <time>2022-08-24T13:14:45Z</time>
      </trkpt>
      <trkpt lat="42.977900999999676" lon="-1.3750339999999985">
        <ele>868.251</ele>
        <time>2022-08-24T13:14:46Z</time>
      </trkpt>
      <trkpt lat="42.977897999999676" lon="-1.3750549999999986">
        <ele>868.448</ele>
        <time>2022-08-24T13:14:47Z</time>
      </trkpt>
      <trkpt lat="42.977895999999674" lon="-1.3750769999999986">
        <ele>868.471</ele>
        <time>2022-08-24T13:14:48Z</time>
      </trkpt>
      <trkpt lat="42.97789099999967" lon="-1.3750999999999987">
        <ele>868.685</ele>
        <time>2022-08-24T13:14:49Z</time>
      </trkpt>
      <trkpt lat="42.977884999999674" lon="-1.3751189999999986">
        <ele>868.664</ele>
        <time>2022-08-24T13:14:50Z</time>
      </trkpt>
      <trkpt lat="42.97788099999968" lon="-1.3751359999999986">
        <ele>869.047</ele>
        <time>2022-08-24T13:14:51Z</time>
      </trkpt>
      <trkpt lat="42.97787699999968" lon="-1.3751529999999985">
        <ele>869.029</ele>
        <time>2022-08-24T13:14:52Z</time>
      </trkpt>
      <trkpt lat="42.97786999999968" lon="-1.3751709999999986">
        <ele>869.221</ele>
        <time>2022-08-24T13:14:53Z</time>
      </trkpt>
      <trkpt lat="42.97786299999969" lon="-1.3751879999999985">
        <ele>869.409</ele>
        <time>2022-08-24T13:14:54Z</time>
      </trkpt>
      <trkpt lat="42.97785399999969" lon="-1.3752059999999986">
        <ele>869.855</ele>
        <time>2022-08-24T13:14:55Z</time>
      </trkpt>
      <trkpt lat="42.97784799999969" lon="-1.3752249999999986">
        <ele>870.075</ele>
        <time>2022-08-24T13:14:56Z</time>
      </trkpt>
      <trkpt lat="42.97784199999969" lon="-1.3752449999999985">
        <ele>870.075</ele>
        <time>2022-08-24T13:14:57Z</time>
      </trkpt>
      <trkpt lat="42.97783599999969" lon="-1.3752649999999984">
        <ele>870.471</ele>
        <time>2022-08-24T13:14:58Z</time>
      </trkpt>
      <trkpt lat="42.977828999999694" lon="-1.3752849999999983">
        <ele>870.423</ele>
        <time>2022-08-24T13:14:59Z</time>
      </trkpt>
      <trkpt lat="42.97781899999969" lon="-1.3753039999999983">
        <ele>870.640</ele>
        <time>2022-08-24T13:15:00Z</time>
      </trkpt>
      <trkpt lat="42.97781299999969" lon="-1.3753219999999984">
        <ele>870.843</ele>
        <time>2022-08-24T13:15:01Z</time>
      </trkpt>
      <trkpt lat="42.977805999999696" lon="-1.3753409999999984">
        <ele>871.027</ele>
        <time>2022-08-24T13:15:02Z</time>
      </trkpt>
      <trkpt lat="42.977794999999695" lon="-1.3753619999999984">
        <ele>871.226</ele>
        <time>2022-08-24T13:15:03Z</time>
      </trkpt>
      <trkpt lat="42.9777879999997" lon="-1.3753759999999984">
        <ele>871.249</ele>
        <time>2022-08-24T13:15:04Z</time>
      </trkpt>
      <trkpt lat="42.9777799999997" lon="-1.3753919999999984">
        <ele>871.402</ele>
        <time>2022-08-24T13:15:05Z</time>
      </trkpt>
      <trkpt lat="42.9777739999997" lon="-1.3754089999999983">
        <ele>871.422</ele>
        <time>2022-08-24T13:15:06Z</time>
      </trkpt>
      <trkpt lat="42.9777709999997" lon="-1.3754229999999983">
        <ele>871.609</ele>
        <time>2022-08-24T13:15:07Z</time>
      </trkpt>
      <trkpt lat="42.9777699999997" lon="-1.3754389999999983">
        <ele>871.875</ele>
        <time>2022-08-24T13:15:08Z</time>
      </trkpt>
      <trkpt lat="42.9777679999997" lon="-1.3754579999999983">
        <ele>872.085</ele>
        <time>2022-08-24T13:15:09Z</time>
      </trkpt>
      <trkpt lat="42.977757999999696" lon="-1.3754789999999983">
        <ele>872.215</ele>
        <time>2022-08-24T13:15:10Z</time>
      </trkpt>
      <trkpt lat="42.977752999999694" lon="-1.3754989999999983">
        <ele>872.461</ele>
        <time>2022-08-24T13:15:11Z</time>
      </trkpt>
      <trkpt lat="42.97774799999969" lon="-1.3755169999999983">
        <ele>872.623</ele>
        <time>2022-08-24T13:15:12Z</time>
      </trkpt>
      <trkpt lat="42.97774299999969" lon="-1.3755329999999983">
        <ele>872.890</ele>
        <time>2022-08-24T13:15:13Z</time>
      </trkpt>
      <trkpt lat="42.97773699999969" lon="-1.3755479999999984">
        <ele>873.043</ele>
        <time>2022-08-24T13:15:14Z</time>
      </trkpt>
      <trkpt lat="42.97772799999969" lon="-1.3755639999999985">
        <ele>873.087</ele>
        <time>2022-08-24T13:15:15Z</time>
      </trkpt>
      <trkpt lat="42.977718999999695" lon="-1.3755819999999985">
        <ele>873.046</ele>
        <time>2022-08-24T13:15:16Z</time>
      </trkpt>
      <trkpt lat="42.977712999999696" lon="-1.3755949999999986">
        <ele>873.293</ele>
        <time>2022-08-24T13:15:17Z</time>
      </trkpt>
      <trkpt lat="42.977704999999695" lon="-1.3756109999999986">
        <ele>873.265</ele>
        <time>2022-08-24T13:15:18Z</time>
      </trkpt>
      <trkpt lat="42.97769999999969" lon="-1.3756279999999985">
        <ele>873.421</ele>
        <time>2022-08-24T13:15:19Z</time>
      </trkpt>
      <trkpt lat="42.977690999999695" lon="-1.3756459999999986">
        <ele>873.409</ele>
        <time>2022-08-24T13:15:20Z</time>
      </trkpt>
      <trkpt lat="42.977681999999696" lon="-1.3756619999999986">
        <ele>873.660</ele>
        <time>2022-08-24T13:15:21Z</time>
      </trkpt>
      <trkpt lat="42.9776729999997" lon="-1.3756789999999985">
        <ele>873.880</ele>
        <time>2022-08-24T13:15:22Z</time>
      </trkpt>
      <trkpt lat="42.9776619999997" lon="-1.3756969999999986">
        <ele>873.860</ele>
        <time>2022-08-24T13:15:23Z</time>
      </trkpt>
      <trkpt lat="42.97765199999969" lon="-1.3757089999999985">
        <ele>874.056</ele>
        <time>2022-08-24T13:15:24Z</time>
      </trkpt>
      <trkpt lat="42.977639999999695" lon="-1.3757289999999984">
        <ele>874.048</ele>
        <time>2022-08-24T13:15:25Z</time>
      </trkpt>
      <trkpt lat="42.977634999999694" lon="-1.3757449999999984">
        <ele>874.295</ele>
        <time>2022-08-24T13:15:26Z</time>
      </trkpt>
      <trkpt lat="42.9776279999997" lon="-1.3757649999999984">
        <ele>874.238</ele>
        <time>2022-08-24T13:15:27Z</time>
      </trkpt>
      <trkpt lat="42.977617999999694" lon="-1.3757879999999985">
        <ele>874.212</ele>
        <time>2022-08-24T13:15:28Z</time>
      </trkpt>
      <trkpt lat="42.977611999999695" lon="-1.3758069999999984">
        <ele>874.461</ele>
        <time>2022-08-24T13:15:29Z</time>
      </trkpt>
      <trkpt lat="42.977608999999696" lon="-1.3758249999999985">
        <ele>874.458</ele>
        <time>2022-08-24T13:15:30Z</time>
      </trkpt>
      <trkpt lat="42.977600999999694" lon="-1.3758459999999986">
        <ele>874.452</ele>
        <time>2022-08-24T13:15:31Z</time>
      </trkpt>
      <trkpt lat="42.977594999999695" lon="-1.3758619999999986">
        <ele>874.417</ele>
        <time>2022-08-24T13:15:32Z</time>
      </trkpt>
      <trkpt lat="42.9775879999997" lon="-1.3758809999999986">
        <ele>874.609</ele>
        <time>2022-08-24T13:15:33Z</time>
      </trkpt>
      <trkpt lat="42.9775819999997" lon="-1.3758959999999987">
        <ele>874.696</ele>
        <time>2022-08-24T13:15:34Z</time>
      </trkpt>
      <trkpt lat="42.9775749999997" lon="-1.3759149999999987">
        <ele>874.876</ele>
        <time>2022-08-24T13:15:35Z</time>
      </trkpt>
      <trkpt lat="42.9775669999997" lon="-1.3759349999999986">
        <ele>875.016</ele>
        <time>2022-08-24T13:15:36Z</time>
      </trkpt>
      <trkpt lat="42.9775589999997" lon="-1.3759539999999986">
        <ele>875.032</ele>
        <time>2022-08-24T13:15:37Z</time>
      </trkpt>
      <trkpt lat="42.9775499999997" lon="-1.3759689999999987">
        <ele>875.254</ele>
        <time>2022-08-24T13:15:38Z</time>
      </trkpt>
      <trkpt lat="42.9775419999997" lon="-1.3759869999999987">
        <ele>875.431</ele>
        <time>2022-08-24T13:15:39Z</time>
      </trkpt>
      <trkpt lat="42.977534999999705" lon="-1.3760069999999986">
        <ele>875.434</ele>
        <time>2022-08-24T13:15:40Z</time>
      </trkpt>
      <trkpt lat="42.977523999999704" lon="-1.3760269999999986">
        <ele>875.648</ele>
        <time>2022-08-24T13:15:41Z</time>
      </trkpt>
      <trkpt lat="42.9775139999997" lon="-1.3760419999999987">
        <ele>875.677</ele>
        <time>2022-08-24T13:15:42Z</time>
      </trkpt>
      <trkpt lat="42.9775059999997" lon="-1.3760589999999986">
        <ele>875.637</ele>
        <time>2022-08-24T13:15:43Z</time>
      </trkpt>
      <trkpt lat="42.9774979999997" lon="-1.3760729999999985">
        <ele>875.849</ele>
        <time>2022-08-24T13:15:44Z</time>
      </trkpt>
      <trkpt lat="42.9774859999997" lon="-1.3760879999999986">
        <ele>875.813</ele>
        <time>2022-08-24T13:15:45Z</time>
      </trkpt>
      <trkpt lat="42.9774739999997" lon="-1.3761059999999987">
        <ele>876.009</ele>
        <time>2022-08-24T13:15:46Z</time>
      </trkpt>
      <trkpt lat="42.9774679999997" lon="-1.3761239999999988">
        <ele>876.274</ele>
        <time>2022-08-24T13:15:47Z</time>
      </trkpt>
      <trkpt lat="42.97746099999971" lon="-1.3761499999999989">
        <ele>876.284</ele>
        <time>2022-08-24T13:15:48Z</time>
      </trkpt>
      <trkpt lat="42.97745499999971" lon="-1.376164999999999">
        <ele>876.284</ele>
        <time>2022-08-24T13:15:49Z</time>
      </trkpt>
      <trkpt lat="42.97744799999971" lon="-1.376183999999999">
        <ele>876.630</ele>
        <time>2022-08-24T13:15:50Z</time>
      </trkpt>
      <trkpt lat="42.97743899999971" lon="-1.376204999999999">
        <ele>876.822</ele>
        <time>2022-08-24T13:15:51Z</time>
      </trkpt>
      <trkpt lat="42.97743099999971" lon="-1.376219999999999">
        <ele>877.049</ele>
        <time>2022-08-24T13:15:52Z</time>
      </trkpt>
      <trkpt lat="42.97741899999971" lon="-1.3762409999999992">
        <ele>877.212</ele>
        <time>2022-08-24T13:15:53Z</time>
      </trkpt>
      <trkpt lat="42.977412999999714" lon="-1.3762569999999992">
        <ele>877.286</ele>
        <time>2022-08-24T13:15:54Z</time>
      </trkpt>
      <trkpt lat="42.977403999999716" lon="-1.376273999999999">
        <ele>877.465</ele>
        <time>2022-08-24T13:15:55Z</time>
      </trkpt>
      <trkpt lat="42.97739499999972" lon="-1.376295999999999">
        <ele>877.261</ele>
        <time>2022-08-24T13:15:56Z</time>
      </trkpt>
      <trkpt lat="42.977386999999716" lon="-1.376314999999999">
        <ele>877.221</ele>
        <time>2022-08-24T13:15:57Z</time>
      </trkpt>
      <trkpt lat="42.97737999999972" lon="-1.376327999999999">
        <ele>877.413</ele>
        <time>2022-08-24T13:15:58Z</time>
      </trkpt>
      <trkpt lat="42.97737399999972" lon="-1.376347999999999">
        <ele>877.409</ele>
        <time>2022-08-24T13:15:59Z</time>
      </trkpt>
      <trkpt lat="42.97736799999972" lon="-1.376366999999999">
        <ele>877.617</ele>
        <time>2022-08-24T13:16:00Z</time>
      </trkpt>
      <trkpt lat="42.97735799999972" lon="-1.376390999999999">
        <ele>877.657</ele>
        <time>2022-08-24T13:16:01Z</time>
      </trkpt>
      <trkpt lat="42.97735399999972" lon="-1.376407999999999">
        <ele>877.867</ele>
        <time>2022-08-24T13:16:02Z</time>
      </trkpt>
      <trkpt lat="42.97734399999972" lon="-1.376431999999999">
        <ele>877.813</ele>
        <time>2022-08-24T13:16:03Z</time>
      </trkpt>
      <trkpt lat="42.97733699999972" lon="-1.376448999999999">
        <ele>878.085</ele>
        <time>2022-08-24T13:16:04Z</time>
      </trkpt>
      <trkpt lat="42.97732899999972" lon="-1.3764689999999988">
        <ele>878.242</ele>
        <time>2022-08-24T13:16:05Z</time>
      </trkpt>
      <trkpt lat="42.97731699999972" lon="-1.3764859999999988">
        <ele>878.255</ele>
        <time>2022-08-24T13:16:06Z</time>
      </trkpt>
      <trkpt lat="42.97730599999972" lon="-1.3765069999999988">
        <ele>878.229</ele>
        <time>2022-08-24T13:16:07Z</time>
      </trkpt>
      <trkpt lat="42.97729799999972" lon="-1.3765289999999988">
        <ele>878.458</ele>
        <time>2022-08-24T13:16:08Z</time>
      </trkpt>
      <trkpt lat="42.97728999999972" lon="-1.3765489999999987">
        <ele>878.457</ele>
        <time>2022-08-24T13:16:09Z</time>
      </trkpt>
      <trkpt lat="42.97728299999972" lon="-1.3765709999999987">
        <ele>878.600</ele>
        <time>2022-08-24T13:16:10Z</time>
      </trkpt>
      <trkpt lat="42.97727199999972" lon="-1.3765969999999987">
        <ele>878.620</ele>
        <time>2022-08-24T13:16:11Z</time>
      </trkpt>
      <trkpt lat="42.97726399999972" lon="-1.3766129999999988">
        <ele>878.809</ele>
        <time>2022-08-24T13:16:12Z</time>
      </trkpt>
      <trkpt lat="42.97725299999972" lon="-1.3766369999999988">
        <ele>878.876</ele>
        <time>2022-08-24T13:16:13Z</time>
      </trkpt>
      <trkpt lat="42.97724699999972" lon="-1.3766529999999988">
        <ele>879.086</ele>
        <time>2022-08-24T13:16:14Z</time>
      </trkpt>
      <trkpt lat="42.97724099999972" lon="-1.3766729999999987">
        <ele>879.086</ele>
        <time>2022-08-24T13:16:15Z</time>
      </trkpt>
      <trkpt lat="42.977233999999726" lon="-1.3766939999999988">
        <ele>879.212</ele>
        <time>2022-08-24T13:16:16Z</time>
      </trkpt>
      <trkpt lat="42.97722499999973" lon="-1.3767129999999987">
        <ele>879.234</ele>
        <time>2022-08-24T13:16:17Z</time>
      </trkpt>
      <trkpt lat="42.97721299999973" lon="-1.3767379999999987">
        <ele>879.281</ele>
        <time>2022-08-24T13:16:18Z</time>
      </trkpt>
      <trkpt lat="42.97720699999973" lon="-1.3767519999999986">
        <ele>879.454</ele>
        <time>2022-08-24T13:16:19Z</time>
      </trkpt>
      <trkpt lat="42.97719299999973" lon="-1.3767719999999986">
        <ele>879.428</ele>
        <time>2022-08-24T13:16:20Z</time>
      </trkpt>
      <trkpt lat="42.97718299999973" lon="-1.3767929999999986">
        <ele>879.667</ele>
        <time>2022-08-24T13:16:21Z</time>
      </trkpt>
      <trkpt lat="42.97717699999973" lon="-1.3768129999999985">
        <ele>879.695</ele>
        <time>2022-08-24T13:16:22Z</time>
      </trkpt>
      <trkpt lat="42.977168999999726" lon="-1.3768349999999985">
        <ele>879.849</ele>
        <time>2022-08-24T13:16:23Z</time>
      </trkpt>
      <trkpt lat="42.977160999999725" lon="-1.3768519999999984">
        <ele>879.823</ele>
        <time>2022-08-24T13:16:24Z</time>
      </trkpt>
      <trkpt lat="42.97714199999972" lon="-1.3768959999999983">
        <ele>880.009</ele>
        <time>2022-08-24T13:16:26Z</time>
      </trkpt>
      <trkpt lat="42.977107999999724" lon="-1.3769709999999984">
        <ele>880.410</ele>
        <time>2022-08-24T13:16:30Z</time>
      </trkpt>
      <trkpt lat="42.97708999999973" lon="-1.3770159999999985">
        <ele>880.880</ele>
        <time>2022-08-24T13:16:32Z</time>
      </trkpt>
      <trkpt lat="42.977059999999724" lon="-1.3770949999999984">
        <ele>881.220</ele>
        <time>2022-08-24T13:16:36Z</time>
      </trkpt>
      <trkpt lat="42.97705299999973" lon="-1.3771159999999985">
        <ele>881.426</ele>
        <time>2022-08-24T13:16:37Z</time>
      </trkpt>
      <trkpt lat="42.97704399999973" lon="-1.3771349999999984">
        <ele>881.438</ele>
        <time>2022-08-24T13:16:38Z</time>
      </trkpt>
      <trkpt lat="42.977033999999726" lon="-1.3771549999999984">
        <ele>881.455</ele>
        <time>2022-08-24T13:16:39Z</time>
      </trkpt>
      <trkpt lat="42.97702399999972" lon="-1.3771729999999984">
        <ele>881.668</ele>
        <time>2022-08-24T13:16:40Z</time>
      </trkpt>
      <trkpt lat="42.977011999999725" lon="-1.3771969999999985">
        <ele>881.882</ele>
        <time>2022-08-24T13:16:41Z</time>
      </trkpt>
      <trkpt lat="42.97700499999973" lon="-1.3772189999999984">
        <ele>882.091</ele>
        <time>2022-08-24T13:16:42Z</time>
      </trkpt>
      <trkpt lat="42.97699899999973" lon="-1.3772379999999984">
        <ele>882.236</ele>
        <time>2022-08-24T13:16:43Z</time>
      </trkpt>
      <trkpt lat="42.97699299999973" lon="-1.3772539999999984">
        <ele>882.217</ele>
        <time>2022-08-24T13:16:44Z</time>
      </trkpt>
      <trkpt lat="42.97698299999973" lon="-1.3772719999999985">
        <ele>882.418</ele>
        <time>2022-08-24T13:16:45Z</time>
      </trkpt>
      <trkpt lat="42.976972999999724" lon="-1.3772959999999985">
        <ele>882.409</ele>
        <time>2022-08-24T13:16:46Z</time>
      </trkpt>
      <trkpt lat="42.97696599999973" lon="-1.3773079999999984">
        <ele>882.624</ele>
        <time>2022-08-24T13:16:47Z</time>
      </trkpt>
      <trkpt lat="42.97695699999973" lon="-1.3773269999999984">
        <ele>882.654</ele>
        <time>2022-08-24T13:16:48Z</time>
      </trkpt>
      <trkpt lat="42.97694899999973" lon="-1.3773459999999984">
        <ele>882.854</ele>
        <time>2022-08-24T13:16:49Z</time>
      </trkpt>
      <trkpt lat="42.97694099999973" lon="-1.3773659999999983">
        <ele>883.070</ele>
        <time>2022-08-24T13:16:50Z</time>
      </trkpt>
      <trkpt lat="42.97693099999972" lon="-1.3773909999999983">
        <ele>883.012</ele>
        <time>2022-08-24T13:16:51Z</time>
      </trkpt>
      <trkpt lat="42.97692399999973" lon="-1.3774069999999983">
        <ele>883.229</ele>
        <time>2022-08-24T13:16:52Z</time>
      </trkpt>
      <trkpt lat="42.976915999999726" lon="-1.3774249999999983">
        <ele>883.262</ele>
        <time>2022-08-24T13:16:53Z</time>
      </trkpt>
      <trkpt lat="42.976904999999725" lon="-1.3774449999999983">
        <ele>883.676</ele>
        <time>2022-08-24T13:16:54Z</time>
      </trkpt>
      <trkpt lat="42.976895999999726" lon="-1.3774659999999983">
        <ele>884.075</ele>
        <time>2022-08-24T13:16:55Z</time>
      </trkpt>
      <trkpt lat="42.976884999999726" lon="-1.3774889999999984">
        <ele>884.229</ele>
        <time>2022-08-24T13:16:56Z</time>
      </trkpt>
      <trkpt lat="42.97687799999973" lon="-1.3775019999999984">
        <ele>884.400</ele>
        <time>2022-08-24T13:16:57Z</time>
      </trkpt>
      <trkpt lat="42.97686699999973" lon="-1.3775239999999984">
        <ele>884.420</ele>
        <time>2022-08-24T13:16:58Z</time>
      </trkpt>
      <trkpt lat="42.97685599999973" lon="-1.3775379999999984">
        <ele>884.609</ele>
        <time>2022-08-24T13:16:59Z</time>
      </trkpt>
      <trkpt lat="42.97684399999973" lon="-1.3775559999999984">
        <ele>884.823</ele>
        <time>2022-08-24T13:17:00Z</time>
      </trkpt>
      <trkpt lat="42.97683399999973" lon="-1.3775759999999984">
        <ele>884.873</ele>
        <time>2022-08-24T13:17:01Z</time>
      </trkpt>
      <trkpt lat="42.97682499999973" lon="-1.3775919999999984">
        <ele>884.863</ele>
        <time>2022-08-24T13:17:02Z</time>
      </trkpt>
      <trkpt lat="42.976814999999725" lon="-1.3776129999999984">
        <ele>884.879</ele>
        <time>2022-08-24T13:17:03Z</time>
      </trkpt>
      <trkpt lat="42.976805999999726" lon="-1.3776339999999985">
        <ele>885.081</ele>
        <time>2022-08-24T13:17:04Z</time>
      </trkpt>
      <trkpt lat="42.97679699999973" lon="-1.3776549999999985">
        <ele>885.088</ele>
        <time>2022-08-24T13:17:05Z</time>
      </trkpt>
      <trkpt lat="42.97678899999973" lon="-1.3776769999999985">
        <ele>885.021</ele>
        <time>2022-08-24T13:17:06Z</time>
      </trkpt>
      <trkpt lat="42.97677899999972" lon="-1.3776949999999986">
        <ele>885.255</ele>
        <time>2022-08-24T13:17:07Z</time>
      </trkpt>
      <trkpt lat="42.976766999999725" lon="-1.3777199999999985">
        <ele>885.264</ele>
        <time>2022-08-24T13:17:08Z</time>
      </trkpt>
      <trkpt lat="42.97675999999973" lon="-1.3777349999999986">
        <ele>885.869</ele>
        <time>2022-08-24T13:17:09Z</time>
      </trkpt>
      <trkpt lat="42.97674899999973" lon="-1.3777529999999987">
        <ele>885.804</ele>
        <time>2022-08-24T13:17:10Z</time>
      </trkpt>
      <trkpt lat="42.97673499999973" lon="-1.3777759999999988">
        <ele>886.224</ele>
        <time>2022-08-24T13:17:11Z</time>
      </trkpt>
      <trkpt lat="42.97672699999973" lon="-1.3777969999999988">
        <ele>886.409</ele>
        <time>2022-08-24T13:17:12Z</time>
      </trkpt>
      <trkpt lat="42.97671999999973" lon="-1.3778179999999989">
        <ele>886.627</ele>
        <time>2022-08-24T13:17:13Z</time>
      </trkpt>
      <trkpt lat="42.97671399999973" lon="-1.3778349999999988">
        <ele>886.857</ele>
        <time>2022-08-24T13:17:14Z</time>
      </trkpt>
      <trkpt lat="42.97670399999973" lon="-1.3778549999999987">
        <ele>886.827</ele>
        <time>2022-08-24T13:17:15Z</time>
      </trkpt>
      <trkpt lat="42.97669799999973" lon="-1.3778769999999987">
        <ele>887.223</ele>
        <time>2022-08-24T13:17:16Z</time>
      </trkpt>
      <trkpt lat="42.97669099999973" lon="-1.3778979999999987">
        <ele>887.215</ele>
        <time>2022-08-24T13:17:17Z</time>
      </trkpt>
      <trkpt lat="42.976681999999734" lon="-1.3779159999999988">
        <ele>887.472</ele>
        <time>2022-08-24T13:17:18Z</time>
      </trkpt>
      <trkpt lat="42.97667399999973" lon="-1.3779289999999988">
        <ele>887.635</ele>
        <time>2022-08-24T13:17:19Z</time>
      </trkpt>
      <trkpt lat="42.97666599999973" lon="-1.3779509999999988">
        <ele>887.829</ele>
        <time>2022-08-24T13:17:20Z</time>
      </trkpt>
      <trkpt lat="42.97665699999973" lon="-1.3779729999999988">
        <ele>888.268</ele>
        <time>2022-08-24T13:17:21Z</time>
      </trkpt>
      <trkpt lat="42.976647999999734" lon="-1.3779949999999987">
        <ele>888.446</ele>
        <time>2022-08-24T13:17:22Z</time>
      </trkpt>
      <trkpt lat="42.976635999999736" lon="-1.3780199999999987">
        <ele>888.488</ele>
        <time>2022-08-24T13:17:23Z</time>
      </trkpt>
      <trkpt lat="42.97663199999974" lon="-1.3780379999999988">
        <ele>888.616</ele>
        <time>2022-08-24T13:17:24Z</time>
      </trkpt>
      <trkpt lat="42.97662299999974" lon="-1.3780589999999988">
        <ele>888.609</ele>
        <time>2022-08-24T13:17:25Z</time>
      </trkpt>
      <trkpt lat="42.97661199999974" lon="-1.378084999999999">
        <ele>888.875</ele>
        <time>2022-08-24T13:17:26Z</time>
      </trkpt>
      <trkpt lat="42.97660199999974" lon="-1.378105999999999">
        <ele>889.045</ele>
        <time>2022-08-24T13:17:27Z</time>
      </trkpt>
      <trkpt lat="42.97659299999974" lon="-1.3781259999999989">
        <ele>889.245</ele>
        <time>2022-08-24T13:17:28Z</time>
      </trkpt>
      <trkpt lat="42.97658699999974" lon="-1.3781419999999989">
        <ele>889.481</ele>
        <time>2022-08-24T13:17:29Z</time>
      </trkpt>
      <trkpt lat="42.97657799999974" lon="-1.3781609999999989">
        <ele>889.623</ele>
        <time>2022-08-24T13:17:30Z</time>
      </trkpt>
      <trkpt lat="42.97656799999974" lon="-1.3781849999999989">
        <ele>889.850</ele>
        <time>2022-08-24T13:17:31Z</time>
      </trkpt>
      <trkpt lat="42.97655899999974" lon="-1.3782049999999988">
        <ele>890.063</ele>
        <time>2022-08-24T13:17:32Z</time>
      </trkpt>
      <trkpt lat="42.97655299999974" lon="-1.3782209999999988">
        <ele>890.087</ele>
        <time>2022-08-24T13:17:33Z</time>
      </trkpt>
      <trkpt lat="42.97654399999974" lon="-1.3782419999999989">
        <ele>890.226</ele>
        <time>2022-08-24T13:17:34Z</time>
      </trkpt>
      <trkpt lat="42.976536999999745" lon="-1.378264999999999">
        <ele>890.477</ele>
        <time>2022-08-24T13:17:35Z</time>
      </trkpt>
      <trkpt lat="42.97652999999975" lon="-1.378285999999999">
        <ele>890.661</ele>
        <time>2022-08-24T13:17:36Z</time>
      </trkpt>
      <trkpt lat="42.97652299999975" lon="-1.378303999999999">
        <ele>890.827</ele>
        <time>2022-08-24T13:17:37Z</time>
      </trkpt>
      <trkpt lat="42.976515999999755" lon="-1.378325999999999">
        <ele>890.809</ele>
        <time>2022-08-24T13:17:38Z</time>
      </trkpt>
      <trkpt lat="42.976506999999756" lon="-1.3783439999999991">
        <ele>891.048</ele>
        <time>2022-08-24T13:17:39Z</time>
      </trkpt>
      <trkpt lat="42.976495999999756" lon="-1.378360999999999">
        <ele>891.058</ele>
        <time>2022-08-24T13:17:40Z</time>
      </trkpt>
      <trkpt lat="42.97648599999975" lon="-1.3783789999999991">
        <ele>891.038</ele>
        <time>2022-08-24T13:17:41Z</time>
      </trkpt>
      <trkpt lat="42.976476999999754" lon="-1.3783969999999992">
        <ele>891.254</ele>
        <time>2022-08-24T13:17:42Z</time>
      </trkpt>
      <trkpt lat="42.97646699999975" lon="-1.3784149999999993">
        <ele>891.236</ele>
        <time>2022-08-24T13:17:43Z</time>
      </trkpt>
      <trkpt lat="42.97645599999975" lon="-1.3784349999999992">
        <ele>891.263</ele>
        <time>2022-08-24T13:17:44Z</time>
      </trkpt>
      <trkpt lat="42.97644799999975" lon="-1.3784539999999992">
        <ele>891.476</ele>
        <time>2022-08-24T13:17:45Z</time>
      </trkpt>
      <trkpt lat="42.97644099999975" lon="-1.3784749999999992">
        <ele>891.640</ele>
        <time>2022-08-24T13:17:46Z</time>
      </trkpt>
      <trkpt lat="42.97643299999975" lon="-1.3784969999999992">
        <ele>891.859</ele>
        <time>2022-08-24T13:17:47Z</time>
      </trkpt>
      <trkpt lat="42.97642199999975" lon="-1.3785189999999992">
        <ele>891.878</ele>
        <time>2022-08-24T13:17:48Z</time>
      </trkpt>
      <trkpt lat="42.97641599999975" lon="-1.3785339999999993">
        <ele>892.233</ele>
        <time>2022-08-24T13:17:49Z</time>
      </trkpt>
      <trkpt lat="42.97640799999975" lon="-1.3785569999999994">
        <ele>892.426</ele>
        <time>2022-08-24T13:17:50Z</time>
      </trkpt>
      <trkpt lat="42.97639999999975" lon="-1.3785799999999995">
        <ele>892.409</ele>
        <time>2022-08-24T13:17:51Z</time>
      </trkpt>
      <trkpt lat="42.97639299999975" lon="-1.3786009999999995">
        <ele>892.698</ele>
        <time>2022-08-24T13:17:52Z</time>
      </trkpt>
      <trkpt lat="42.976380999999755" lon="-1.3786229999999995">
        <ele>892.678</ele>
        <time>2022-08-24T13:17:53Z</time>
      </trkpt>
      <trkpt lat="42.976371999999756" lon="-1.3786439999999995">
        <ele>892.848</ele>
        <time>2022-08-24T13:17:54Z</time>
      </trkpt>
      <trkpt lat="42.97636199999975" lon="-1.3786639999999994">
        <ele>892.884</ele>
        <time>2022-08-24T13:17:55Z</time>
      </trkpt>
      <trkpt lat="42.97635099999975" lon="-1.3786849999999995">
        <ele>893.016</ele>
        <time>2022-08-24T13:17:56Z</time>
      </trkpt>
      <trkpt lat="42.97633999999975" lon="-1.3787059999999995">
        <ele>893.223</ele>
        <time>2022-08-24T13:17:57Z</time>
      </trkpt>
      <trkpt lat="42.97632999999975" lon="-1.3787269999999996">
        <ele>893.476</ele>
        <time>2022-08-24T13:17:58Z</time>
      </trkpt>
      <trkpt lat="42.97631899999975" lon="-1.3787459999999996">
        <ele>893.660</ele>
        <time>2022-08-24T13:17:59Z</time>
      </trkpt>
      <trkpt lat="42.97630999999975" lon="-1.3787629999999995">
        <ele>893.689</ele>
        <time>2022-08-24T13:18:00Z</time>
      </trkpt>
      <trkpt lat="42.976299999999746" lon="-1.3787809999999996">
        <ele>893.654</ele>
        <time>2022-08-24T13:18:01Z</time>
      </trkpt>
      <trkpt lat="42.976288999999745" lon="-1.3788039999999997">
        <ele>893.656</ele>
        <time>2022-08-24T13:18:02Z</time>
      </trkpt>
      <trkpt lat="42.976280999999744" lon="-1.3788169999999997">
        <ele>893.811</ele>
        <time>2022-08-24T13:18:03Z</time>
      </trkpt>
      <trkpt lat="42.97627099999974" lon="-1.3788339999999997">
        <ele>893.809</ele>
        <time>2022-08-24T13:18:04Z</time>
      </trkpt>
      <trkpt lat="42.97625999999974" lon="-1.3788499999999997">
        <ele>893.836</ele>
        <time>2022-08-24T13:18:05Z</time>
      </trkpt>
      <trkpt lat="42.97624899999974" lon="-1.3788679999999998">
        <ele>894.066</ele>
        <time>2022-08-24T13:18:06Z</time>
      </trkpt>
      <trkpt lat="42.97623699999974" lon="-1.3788819999999997">
        <ele>894.026</ele>
        <time>2022-08-24T13:18:07Z</time>
      </trkpt>
      <trkpt lat="42.976224999999744" lon="-1.3788959999999997">
        <ele>894.462</ele>
        <time>2022-08-24T13:18:08Z</time>
      </trkpt>
      <trkpt lat="42.97621199999974" lon="-1.3789109999999998">
        <ele>894.684</ele>
        <time>2022-08-24T13:18:09Z</time>
      </trkpt>
      <trkpt lat="42.97619999999974" lon="-1.3789229999999997">
        <ele>894.821</ele>
        <time>2022-08-24T13:18:10Z</time>
      </trkpt>
      <trkpt lat="42.976187999999745" lon="-1.3789359999999997">
        <ele>895.084</ele>
        <time>2022-08-24T13:18:11Z</time>
      </trkpt>
      <trkpt lat="42.976173999999745" lon="-1.3789479999999996">
        <ele>895.248</ele>
        <time>2022-08-24T13:18:12Z</time>
      </trkpt>
      <trkpt lat="42.976162999999744" lon="-1.3789579999999997">
        <ele>895.257</ele>
        <time>2022-08-24T13:18:13Z</time>
      </trkpt>
      <trkpt lat="42.97615299999974" lon="-1.3789639999999996">
        <ele>895.284</ele>
        <time>2022-08-24T13:18:14Z</time>
      </trkpt>
      <trkpt lat="42.97614299999974" lon="-1.3789729999999996">
        <ele>895.607</ele>
        <time>2022-08-24T13:18:15Z</time>
      </trkpt>
      <trkpt lat="42.976134999999736" lon="-1.3789829999999996">
        <ele>895.617</ele>
        <time>2022-08-24T13:18:16Z</time>
      </trkpt>
      <trkpt lat="42.97612799999974" lon="-1.3789949999999995">
        <ele>895.809</ele>
        <time>2022-08-24T13:18:17Z</time>
      </trkpt>
      <trkpt lat="42.97611899999974" lon="-1.3790059999999995">
        <ele>895.839</ele>
        <time>2022-08-24T13:18:18Z</time>
      </trkpt>
      <trkpt lat="42.97610999999974" lon="-1.3790149999999994">
        <ele>895.899</ele>
        <time>2022-08-24T13:18:19Z</time>
      </trkpt>
      <trkpt lat="42.97610199999974" lon="-1.3790239999999994">
        <ele>896.069</ele>
        <time>2022-08-24T13:18:20Z</time>
      </trkpt>
      <trkpt lat="42.976097999999745" lon="-1.3790289999999994">
        <ele>896.055</ele>
        <time>2022-08-24T13:18:21Z</time>
      </trkpt>
      <trkpt lat="42.976083999999744" lon="-1.3790669999999994">
        <ele>896.447</ele>
        <time>2022-08-24T13:18:32Z</time>
      </trkpt>
      <trkpt lat="42.97607899999974" lon="-1.3790779999999994">
        <ele>896.614</ele>
        <time>2022-08-24T13:18:33Z</time>
      </trkpt>
      <trkpt lat="42.97607399999974" lon="-1.3790889999999993">
        <ele>896.687</ele>
        <time>2022-08-24T13:18:34Z</time>
      </trkpt>
      <trkpt lat="42.976066999999745" lon="-1.3791049999999994">
        <ele>896.621</ele>
        <time>2022-08-24T13:18:35Z</time>
      </trkpt>
      <trkpt lat="42.97604899999975" lon="-1.3791559999999994">
        <ele>896.830</ele>
        <time>2022-08-24T13:18:38Z</time>
      </trkpt>
      <trkpt lat="42.97603399999975" lon="-1.3791979999999995">
        <ele>897.044</ele>
        <time>2022-08-24T13:18:40Z</time>
      </trkpt>
      <trkpt lat="42.97602599999975" lon="-1.3792219999999995">
        <ele>897.005</ele>
        <time>2022-08-24T13:18:41Z</time>
      </trkpt>
      <trkpt lat="42.97602099999975" lon="-1.3792479999999996">
        <ele>897.015</ele>
        <time>2022-08-24T13:18:42Z</time>
      </trkpt>
      <trkpt lat="42.97601499999975" lon="-1.3792669999999996">
        <ele>897.009</ele>
        <time>2022-08-24T13:18:43Z</time>
      </trkpt>
      <trkpt lat="42.97600699999975" lon="-1.3792879999999996">
        <ele>897.075</ele>
        <time>2022-08-24T13:18:44Z</time>
      </trkpt>
      <trkpt lat="42.975984999999746" lon="-1.3793629999999997">
        <ele>897.665</ele>
        <time>2022-08-24T13:18:47Z</time>
      </trkpt>
      <trkpt lat="42.97597899999975" lon="-1.3794079999999997">
        <ele>897.825</ele>
        <time>2022-08-24T13:18:49Z</time>
      </trkpt>
      <trkpt lat="42.97596699999975" lon="-1.3794309999999999">
        <ele>897.821</ele>
        <time>2022-08-24T13:18:50Z</time>
      </trkpt>
      <trkpt lat="42.975956999999745" lon="-1.379449">
        <ele>898.043</ele>
        <time>2022-08-24T13:18:51Z</time>
      </trkpt>
      <trkpt lat="42.975945999999745" lon="-1.379546">
        <ele>898.620</ele>
        <time>2022-08-24T13:18:55Z</time>
      </trkpt>
      <trkpt lat="42.975951999999744" lon="-1.37957">
        <ele>899.063</ele>
        <time>2022-08-24T13:18:56Z</time>
      </trkpt>
      <trkpt lat="42.97594799999975" lon="-1.3796059999999999">
        <ele>899.257</ele>
        <time>2022-08-24T13:18:57Z</time>
      </trkpt>
      <trkpt lat="42.97593799999974" lon="-1.379629">
        <ele>899.616</ele>
        <time>2022-08-24T13:18:58Z</time>
      </trkpt>
      <trkpt lat="42.97592799999974" lon="-1.379663">
        <ele>900.075</ele>
        <time>2022-08-24T13:18:59Z</time>
      </trkpt>
      <trkpt lat="42.97593899999974" lon="-1.379698">
        <ele>900.228</ele>
        <time>2022-08-24T13:19:00Z</time>
      </trkpt>
      <trkpt lat="42.97594499999974" lon="-1.3797220000000001">
        <ele>900.620</ele>
        <time>2022-08-24T13:19:01Z</time>
      </trkpt>
      <trkpt lat="42.97594799999974" lon="-1.379742">
        <ele>900.609</ele>
        <time>2022-08-24T13:19:02Z</time>
      </trkpt>
      <trkpt lat="42.97594199999974" lon="-1.3797760000000001">
        <ele>900.888</ele>
        <time>2022-08-24T13:19:03Z</time>
      </trkpt>
      <trkpt lat="42.97593299999974" lon="-1.3798130000000002">
        <ele>901.248</ele>
        <time>2022-08-24T13:19:04Z</time>
      </trkpt>
      <trkpt lat="42.97592299999974" lon="-1.3798370000000002">
        <ele>901.288</ele>
        <time>2022-08-24T13:19:05Z</time>
      </trkpt>
      <trkpt lat="42.97591899999974" lon="-1.3798650000000001">
        <ele>901.884</ele>
        <time>2022-08-24T13:19:06Z</time>
      </trkpt>
      <trkpt lat="42.975917999999744" lon="-1.3798920000000001">
        <ele>902.026</ele>
        <time>2022-08-24T13:19:07Z</time>
      </trkpt>
      <trkpt lat="42.97590199999974" lon="-1.3799160000000001">
        <ele>902.223</ele>
        <time>2022-08-24T13:19:08Z</time>
      </trkpt>
      <trkpt lat="42.975889999999744" lon="-1.3799350000000001">
        <ele>902.266</ele>
        <time>2022-08-24T13:19:09Z</time>
      </trkpt>
      <trkpt lat="42.97587399999974" lon="-1.3799560000000002">
        <ele>902.670</ele>
        <time>2022-08-24T13:19:10Z</time>
      </trkpt>
      <trkpt lat="42.975866999999745" lon="-1.3799710000000003">
        <ele>902.859</ele>
        <time>2022-08-24T13:19:11Z</time>
      </trkpt>
      <trkpt lat="42.97585699999974" lon="-1.3799730000000003">
        <ele>902.839</ele>
        <time>2022-08-24T13:19:12Z</time>
      </trkpt>
      <trkpt lat="42.97584899999974" lon="-1.3799790000000003">
        <ele>903.201</ele>
        <time>2022-08-24T13:19:13Z</time>
      </trkpt>
      <trkpt lat="42.975844999999744" lon="-1.3799890000000004">
        <ele>903.221</ele>
        <time>2022-08-24T13:19:14Z</time>
      </trkpt>
      <trkpt lat="42.97584299999974" lon="-1.3800040000000005">
        <ele>903.409</ele>
        <time>2022-08-24T13:19:15Z</time>
      </trkpt>
      <trkpt lat="42.975838999999745" lon="-1.3800270000000006">
        <ele>903.664</ele>
        <time>2022-08-24T13:19:16Z</time>
      </trkpt>
      <trkpt lat="42.97583399999974" lon="-1.3800450000000006">
        <ele>903.674</ele>
        <time>2022-08-24T13:19:17Z</time>
      </trkpt>
      <trkpt lat="42.97582699999975" lon="-1.3800570000000005">
        <ele>903.834</ele>
        <time>2022-08-24T13:19:18Z</time>
      </trkpt>
      <trkpt lat="42.97582099999975" lon="-1.3800710000000005">
        <ele>904.010</ele>
        <time>2022-08-24T13:19:19Z</time>
      </trkpt>
      <trkpt lat="42.97581799999975" lon="-1.3800880000000004">
        <ele>904.632</ele>
        <time>2022-08-24T13:19:20Z</time>
      </trkpt>
      <trkpt lat="42.97581099999975" lon="-1.3801050000000004">
        <ele>904.869</ele>
        <time>2022-08-24T13:19:21Z</time>
      </trkpt>
      <trkpt lat="42.97580599999975" lon="-1.3801200000000005">
        <ele>905.082</ele>
        <time>2022-08-24T13:19:22Z</time>
      </trkpt>
      <trkpt lat="42.97580099999975" lon="-1.3801330000000005">
        <ele>905.086</ele>
        <time>2022-08-24T13:19:23Z</time>
      </trkpt>
      <trkpt lat="42.97579299999975" lon="-1.3801470000000005">
        <ele>905.215</ele>
        <time>2022-08-24T13:19:24Z</time>
      </trkpt>
      <trkpt lat="42.975784999999746" lon="-1.3801630000000005">
        <ele>905.438</ele>
        <time>2022-08-24T13:19:25Z</time>
      </trkpt>
      <trkpt lat="42.97578199999975" lon="-1.3801690000000004">
        <ele>905.470</ele>
        <time>2022-08-24T13:19:26Z</time>
      </trkpt>
      <trkpt lat="42.975779999999745" lon="-1.3801720000000004">
        <ele>905.617</ele>
        <time>2022-08-24T13:19:27Z</time>
      </trkpt>
      <trkpt lat="42.97577499999974" lon="-1.3801820000000005">
        <ele>905.609</ele>
        <time>2022-08-24T13:19:28Z</time>
      </trkpt>
      <trkpt lat="42.975768999999744" lon="-1.3801980000000005">
        <ele>905.884</ele>
        <time>2022-08-24T13:19:29Z</time>
      </trkpt>
      <trkpt lat="42.975765999999744" lon="-1.3802190000000005">
        <ele>906.014</ele>
        <time>2022-08-24T13:19:30Z</time>
      </trkpt>
      <trkpt lat="42.97576199999975" lon="-1.3802350000000005">
        <ele>906.084</ele>
        <time>2022-08-24T13:19:31Z</time>
      </trkpt>
      <trkpt lat="42.97575499999975" lon="-1.3802540000000005">
        <ele>906.250</ele>
        <time>2022-08-24T13:19:32Z</time>
      </trkpt>
      <trkpt lat="42.97574699999975" lon="-1.3802690000000006">
        <ele>906.212</ele>
        <time>2022-08-24T13:19:33Z</time>
      </trkpt>
      <trkpt lat="42.97573899999975" lon="-1.3802840000000007">
        <ele>906.449</ele>
        <time>2022-08-24T13:19:34Z</time>
      </trkpt>
      <trkpt lat="42.97573699999975" lon="-1.3803000000000007">
        <ele>906.662</ele>
        <time>2022-08-24T13:19:35Z</time>
      </trkpt>
      <trkpt lat="42.97573699999975" lon="-1.3803160000000008">
        <ele>906.636</ele>
        <time>2022-08-24T13:19:36Z</time>
      </trkpt>
      <trkpt lat="42.97573399999975" lon="-1.3803260000000008">
        <ele>906.835</ele>
        <time>2022-08-24T13:19:37Z</time>
      </trkpt>
      <trkpt lat="42.975723999999744" lon="-1.380341000000001">
        <ele>906.881</ele>
        <time>2022-08-24T13:19:38Z</time>
      </trkpt>
      <trkpt lat="42.975717999999745" lon="-1.380357000000001">
        <ele>907.261</ele>
        <time>2022-08-24T13:19:39Z</time>
      </trkpt>
      <trkpt lat="42.97571099999975" lon="-1.380368000000001">
        <ele>907.417</ele>
        <time>2022-08-24T13:19:40Z</time>
      </trkpt>
      <trkpt lat="42.975700999999745" lon="-1.3803800000000008">
        <ele>907.609</ele>
        <time>2022-08-24T13:19:41Z</time>
      </trkpt>
      <trkpt lat="42.975694999999746" lon="-1.380395000000001">
        <ele>907.849</ele>
        <time>2022-08-24T13:19:42Z</time>
      </trkpt>
      <trkpt lat="42.97569599999974" lon="-1.380405000000001">
        <ele>907.839</ele>
        <time>2022-08-24T13:19:43Z</time>
      </trkpt>
      <trkpt lat="42.97569399999974" lon="-1.380417000000001">
        <ele>908.059</ele>
        <time>2022-08-24T13:19:44Z</time>
      </trkpt>
      <trkpt lat="42.975692999999744" lon="-1.380433000000001">
        <ele>908.075</ele>
        <time>2022-08-24T13:19:45Z</time>
      </trkpt>
      <trkpt lat="42.97568799999974" lon="-1.3804500000000008">
        <ele>908.297</ele>
        <time>2022-08-24T13:19:46Z</time>
      </trkpt>
      <trkpt lat="42.97568599999974" lon="-1.3804690000000008">
        <ele>908.674</ele>
        <time>2022-08-24T13:19:47Z</time>
      </trkpt>
      <trkpt lat="42.97568299999974" lon="-1.3804820000000009">
        <ele>908.877</ele>
        <time>2022-08-24T13:19:48Z</time>
      </trkpt>
      <trkpt lat="42.97567499999974" lon="-1.380492000000001">
        <ele>908.841</ele>
        <time>2022-08-24T13:19:49Z</time>
      </trkpt>
      <trkpt lat="42.97566799999974" lon="-1.380503000000001">
        <ele>909.040</ele>
        <time>2022-08-24T13:19:50Z</time>
      </trkpt>
      <trkpt lat="42.975663999999746" lon="-1.380514000000001">
        <ele>909.264</ele>
        <time>2022-08-24T13:19:51Z</time>
      </trkpt>
      <trkpt lat="42.97565999999975" lon="-1.380522000000001">
        <ele>909.206</ele>
        <time>2022-08-24T13:19:52Z</time>
      </trkpt>
      <trkpt lat="42.97565499999975" lon="-1.3805360000000009">
        <ele>909.416</ele>
        <time>2022-08-24T13:19:53Z</time>
      </trkpt>
      <trkpt lat="42.97565199999975" lon="-1.3805640000000008">
        <ele>909.609</ele>
        <time>2022-08-24T13:19:54Z</time>
      </trkpt>
      <trkpt lat="42.975649999999746" lon="-1.380587000000001">
        <ele>909.687</ele>
        <time>2022-08-24T13:19:55Z</time>
      </trkpt>
      <trkpt lat="42.975646999999746" lon="-1.380592000000001">
        <ele>909.847</ele>
        <time>2022-08-24T13:19:56Z</time>
      </trkpt>
      <trkpt lat="42.975655999999745" lon="-1.3806060000000009">
        <ele>910.017</ele>
        <time>2022-08-24T13:19:57Z</time>
      </trkpt>
      <trkpt lat="42.975661999999744" lon="-1.380621000000001">
        <ele>910.243</ele>
        <time>2022-08-24T13:19:58Z</time>
      </trkpt>
      <trkpt lat="42.97565799999975" lon="-1.3806330000000009">
        <ele>910.265</ele>
        <time>2022-08-24T13:19:59Z</time>
      </trkpt>
      <trkpt lat="42.97565499999975" lon="-1.3806500000000008">
        <ele>910.472</ele>
        <time>2022-08-24T13:20:00Z</time>
      </trkpt>
      <trkpt lat="42.975652999999745" lon="-1.3806540000000007">
        <ele>910.675</ele>
        <time>2022-08-24T13:20:01Z</time>
      </trkpt>
      <trkpt lat="42.975652999999745" lon="-1.3806540000000007">
        <ele>910.619</ele>
        <time>2022-08-24T13:20:02Z</time>
      </trkpt>
      <trkpt lat="42.975652999999745" lon="-1.3806540000000007">
        <ele>910.838</ele>
        <time>2022-08-24T13:20:03Z</time>
      </trkpt>
      <trkpt lat="42.975669999999745" lon="-1.3806790000000007">
        <ele>911.094</ele>
        <time>2022-08-24T13:20:04Z</time>
      </trkpt>
      <trkpt lat="42.97566499999974" lon="-1.3806980000000006">
        <ele>911.257</ele>
        <time>2022-08-24T13:20:05Z</time>
      </trkpt>
      <trkpt lat="42.97566299999974" lon="-1.3807020000000005">
        <ele>911.622</ele>
        <time>2022-08-24T13:20:06Z</time>
      </trkpt>
      <trkpt lat="42.97566299999974" lon="-1.3807020000000005">
        <ele>911.809</ele>
        <time>2022-08-24T13:20:07Z</time>
      </trkpt>
      <trkpt lat="42.97567799999974" lon="-1.3807420000000006">
        <ele>912.050</ele>
        <time>2022-08-24T13:20:08Z</time>
      </trkpt>
      <trkpt lat="42.97568299999974" lon="-1.3807680000000007">
        <ele>912.040</ele>
        <time>2022-08-24T13:20:09Z</time>
      </trkpt>
      <trkpt lat="42.97567399999974" lon="-1.3807900000000006">
        <ele>912.470</ele>
        <time>2022-08-24T13:20:10Z</time>
      </trkpt>
      <trkpt lat="42.97566899999974" lon="-1.3808210000000005">
        <ele>912.436</ele>
        <time>2022-08-24T13:20:11Z</time>
      </trkpt>
      <trkpt lat="42.97566799999974" lon="-1.3808260000000006">
        <ele>912.648</ele>
        <time>2022-08-24T13:20:12Z</time>
      </trkpt>
      <trkpt lat="42.97565699999974" lon="-1.3808470000000006">
        <ele>912.895</ele>
        <time>2022-08-24T13:20:13Z</time>
      </trkpt>
      <trkpt lat="42.97565399999974" lon="-1.3808710000000006">
        <ele>912.878</ele>
        <time>2022-08-24T13:20:14Z</time>
      </trkpt>
      <trkpt lat="42.97564599999974" lon="-1.3808870000000006">
        <ele>913.022</ele>
        <time>2022-08-24T13:20:15Z</time>
      </trkpt>
      <trkpt lat="42.97564399999974" lon="-1.3808910000000005">
        <ele>913.431</ele>
        <time>2022-08-24T13:20:16Z</time>
      </trkpt>
      <trkpt lat="42.97563099999974" lon="-1.3809070000000006">
        <ele>913.657</ele>
        <time>2022-08-24T13:20:17Z</time>
      </trkpt>
      <trkpt lat="42.97562999999974" lon="-1.3809120000000006">
        <ele>913.800</ele>
        <time>2022-08-24T13:20:18Z</time>
      </trkpt>
      <trkpt lat="42.97563799999974" lon="-1.3809340000000005">
        <ele>913.820</ele>
        <time>2022-08-24T13:20:19Z</time>
      </trkpt>
      <trkpt lat="42.97563999999974" lon="-1.3809390000000006">
        <ele>914.009</ele>
        <time>2022-08-24T13:20:20Z</time>
      </trkpt>
      <trkpt lat="42.97564399999974" lon="-1.3809520000000006">
        <ele>914.226</ele>
        <time>2022-08-24T13:20:21Z</time>
      </trkpt>
      <trkpt lat="42.97564299999974" lon="-1.3809720000000005">
        <ele>914.626</ele>
        <time>2022-08-24T13:20:22Z</time>
      </trkpt>
      <trkpt lat="42.97564299999974" lon="-1.3809760000000004">
        <ele>914.896</ele>
        <time>2022-08-24T13:20:23Z</time>
      </trkpt>
      <trkpt lat="42.97564399999974" lon="-1.3810140000000004">
        <ele>915.092</ele>
        <time>2022-08-24T13:20:24Z</time>
      </trkpt>
      <trkpt lat="42.97563899999974" lon="-1.3810350000000005">
        <ele>915.224</ele>
        <time>2022-08-24T13:20:25Z</time>
      </trkpt>
      <trkpt lat="42.97563299999974" lon="-1.3810580000000006">
        <ele>915.411</ele>
        <time>2022-08-24T13:20:26Z</time>
      </trkpt>
      <trkpt lat="42.975636999999736" lon="-1.3810800000000005">
        <ele>915.674</ele>
        <time>2022-08-24T13:20:27Z</time>
      </trkpt>
      <trkpt lat="42.97563799999973" lon="-1.3810840000000004">
        <ele>915.688</ele>
        <time>2022-08-24T13:20:28Z</time>
      </trkpt>
      <trkpt lat="42.97563799999973" lon="-1.3810840000000004">
        <ele>915.867</ele>
        <time>2022-08-24T13:20:29Z</time>
      </trkpt>
      <trkpt lat="42.97563799999973" lon="-1.3810840000000004">
        <ele>916.067</ele>
        <time>2022-08-24T13:20:30Z</time>
      </trkpt>
      <trkpt lat="42.97563799999973" lon="-1.3810840000000004">
        <ele>916.081</ele>
        <time>2022-08-24T13:20:31Z</time>
      </trkpt>
      <trkpt lat="42.97563799999973" lon="-1.3810840000000004">
        <ele>916.219</ele>
        <time>2022-08-24T13:20:32Z</time>
      </trkpt>
      <trkpt lat="42.97563799999973" lon="-1.3810840000000004">
        <ele>916.209</ele>
        <time>2022-08-24T13:20:33Z</time>
      </trkpt>
      <trkpt lat="42.97563799999973" lon="-1.3810840000000004">
        <ele>916.467</ele>
        <time>2022-08-24T13:20:34Z</time>
      </trkpt>
      <trkpt lat="42.975628999999735" lon="-1.3810950000000004">
        <ele>916.697</ele>
        <time>2022-08-24T13:20:35Z</time>
      </trkpt>
      <trkpt lat="42.975622999999736" lon="-1.3811220000000004">
        <ele>916.877</ele>
        <time>2022-08-24T13:20:36Z</time>
      </trkpt>
      <trkpt lat="42.97562199999974" lon="-1.3811270000000004">
        <ele>917.253</ele>
        <time>2022-08-24T13:20:37Z</time>
      </trkpt>
      <trkpt lat="42.97562199999974" lon="-1.3811270000000004">
        <ele>917.465</ele>
        <time>2022-08-24T13:20:38Z</time>
      </trkpt>
      <trkpt lat="42.97562199999974" lon="-1.3811300000000004">
        <ele>917.652</ele>
        <time>2022-08-24T13:20:39Z</time>
      </trkpt>
      <trkpt lat="42.97562399999974" lon="-1.3811330000000004">
        <ele>917.645</ele>
        <time>2022-08-24T13:20:40Z</time>
      </trkpt>
      <trkpt lat="42.97562399999974" lon="-1.3811330000000004">
        <ele>917.889</ele>
        <time>2022-08-24T13:20:41Z</time>
      </trkpt>
      <trkpt lat="42.97562399999974" lon="-1.3811330000000004">
        <ele>918.088</ele>
        <time>2022-08-24T13:20:42Z</time>
      </trkpt>
      <trkpt lat="42.97562399999974" lon="-1.3811330000000004">
        <ele>918.243</ele>
        <time>2022-08-24T13:20:43Z</time>
      </trkpt>
      <trkpt lat="42.97562399999974" lon="-1.3811330000000004">
        <ele>918.264</ele>
        <time>2022-08-24T13:20:44Z</time>
      </trkpt>
      <trkpt lat="42.97562399999974" lon="-1.3811330000000004">
        <ele>918.410</ele>
        <time>2022-08-24T13:20:45Z</time>
      </trkpt>
      <trkpt lat="42.97562299999974" lon="-1.3811360000000004">
        <ele>918.409</ele>
        <time>2022-08-24T13:20:46Z</time>
      </trkpt>
      <trkpt lat="42.97562299999974" lon="-1.3811360000000004">
        <ele>918.435</ele>
        <time>2022-08-24T13:20:47Z</time>
      </trkpt>
      <trkpt lat="42.97562299999974" lon="-1.3811360000000004">
        <ele>918.675</ele>
        <time>2022-08-24T13:20:48Z</time>
      </trkpt>
      <trkpt lat="42.97562299999974" lon="-1.3811360000000004">
        <ele>918.825</ele>
        <time>2022-08-24T13:20:49Z</time>
      </trkpt>
      <trkpt lat="42.97562299999974" lon="-1.3811360000000004">
        <ele>919.091</ele>
        <time>2022-08-24T13:20:50Z</time>
      </trkpt>
      <trkpt lat="42.97562299999974" lon="-1.3811360000000004">
        <ele>919.283</ele>
        <time>2022-08-24T13:20:51Z</time>
      </trkpt>
      <trkpt lat="42.97562299999974" lon="-1.3811360000000004">
        <ele>919.440</ele>
        <time>2022-08-24T13:20:52Z</time>
      </trkpt>
      <trkpt lat="42.97562299999974" lon="-1.3811360000000004">
        <ele>919.653</ele>
        <time>2022-08-24T13:20:53Z</time>
      </trkpt>
      <trkpt lat="42.97562299999974" lon="-1.3811360000000004">
        <ele>919.837</ele>
        <time>2022-08-24T13:20:54Z</time>
      </trkpt>
      <trkpt lat="42.97562299999974" lon="-1.3811360000000004">
        <ele>920.026</ele>
        <time>2022-08-24T13:20:55Z</time>
      </trkpt>
      <trkpt lat="42.97562299999974" lon="-1.3811360000000004">
        <ele>920.225</ele>
        <time>2022-08-24T13:20:56Z</time>
      </trkpt>
      <trkpt lat="42.975621999999746" lon="-1.3811360000000004">
        <ele>920.426</ele>
        <time>2022-08-24T13:20:57Z</time>
      </trkpt>
      <trkpt lat="42.975621999999746" lon="-1.3811360000000004">
        <ele>920.608</ele>
        <time>2022-08-24T13:20:58Z</time>
      </trkpt>
      <trkpt lat="42.97561999999974" lon="-1.3811410000000004">
        <ele>920.809</ele>
        <time>2022-08-24T13:20:59Z</time>
      </trkpt>
      <trkpt lat="42.975616999999744" lon="-1.3811520000000004">
        <ele>921.283</ele>
        <time>2022-08-24T13:21:00Z</time>
      </trkpt>
      <trkpt lat="42.975613999999744" lon="-1.3811600000000004">
        <ele>921.423</ele>
        <time>2022-08-24T13:21:01Z</time>
      </trkpt>
      <trkpt lat="42.97560599999974" lon="-1.3811920000000004">
        <ele>921.483</ele>
        <time>2022-08-24T13:21:02Z</time>
      </trkpt>
      <trkpt lat="42.975599999999744" lon="-1.3812220000000004">
        <ele>921.629</ele>
        <time>2022-08-24T13:21:03Z</time>
      </trkpt>
      <trkpt lat="42.97559599999975" lon="-1.3812560000000005">
        <ele>921.671</ele>
        <time>2022-08-24T13:21:04Z</time>
      </trkpt>
      <trkpt lat="42.97558899999975" lon="-1.3812910000000005">
        <ele>922.088</ele>
        <time>2022-08-24T13:21:05Z</time>
      </trkpt>
      <trkpt lat="42.975584999999754" lon="-1.3813030000000004">
        <ele>922.091</ele>
        <time>2022-08-24T13:21:06Z</time>
      </trkpt>
      <trkpt lat="42.97558299999975" lon="-1.3813110000000004">
        <ele>922.275</ele>
        <time>2022-08-24T13:21:07Z</time>
      </trkpt>
      <trkpt lat="42.975578999999755" lon="-1.3813390000000003">
        <ele>922.434</ele>
        <time>2022-08-24T13:21:08Z</time>
      </trkpt>
      <trkpt lat="42.97557699999975" lon="-1.3813510000000002">
        <ele>922.642</ele>
        <time>2022-08-24T13:21:09Z</time>
      </trkpt>
      <trkpt lat="42.975569999999756" lon="-1.3813900000000001">
        <ele>922.822</ele>
        <time>2022-08-24T13:21:10Z</time>
      </trkpt>
      <trkpt lat="42.97557099999975" lon="-1.3814140000000001">
        <ele>922.814</ele>
        <time>2022-08-24T13:21:11Z</time>
      </trkpt>
      <trkpt lat="42.975572999999756" lon="-1.3814410000000001">
        <ele>923.209</ele>
        <time>2022-08-24T13:21:12Z</time>
      </trkpt>
      <trkpt lat="42.975575999999755" lon="-1.381466">
        <ele>923.215</ele>
        <time>2022-08-24T13:21:13Z</time>
      </trkpt>
      <trkpt lat="42.97557699999975" lon="-1.3814710000000001">
        <ele>923.615</ele>
        <time>2022-08-24T13:21:14Z</time>
      </trkpt>
      <trkpt lat="42.975575999999755" lon="-1.3814840000000002">
        <ele>923.855</ele>
        <time>2022-08-24T13:21:15Z</time>
      </trkpt>
      <trkpt lat="42.975572999999756" lon="-1.3815130000000002">
        <ele>924.221</ele>
        <time>2022-08-24T13:21:16Z</time>
      </trkpt>
      <trkpt lat="42.975578999999755" lon="-1.3815350000000002">
        <ele>924.423</ele>
        <time>2022-08-24T13:21:17Z</time>
      </trkpt>
      <trkpt lat="42.97557999999975" lon="-1.3815670000000002">
        <ele>924.680</ele>
        <time>2022-08-24T13:21:18Z</time>
      </trkpt>
      <trkpt lat="42.97558299999975" lon="-1.3815810000000002">
        <ele>924.883</ele>
        <time>2022-08-24T13:21:19Z</time>
      </trkpt>
      <trkpt lat="42.97558899999975" lon="-1.3815840000000001">
        <ele>924.867</ele>
        <time>2022-08-24T13:21:20Z</time>
      </trkpt>
      <trkpt lat="42.975598999999754" lon="-1.381593">
        <ele>925.036</ele>
        <time>2022-08-24T13:21:21Z</time>
      </trkpt>
      <trkpt lat="42.97560899999976" lon="-1.381609">
        <ele>925.067</ele>
        <time>2022-08-24T13:21:22Z</time>
      </trkpt>
      <trkpt lat="42.975617999999756" lon="-1.381628">
        <ele>925.081</ele>
        <time>2022-08-24T13:21:23Z</time>
      </trkpt>
      <trkpt lat="42.97562599999976" lon="-1.3816300000000001">
        <ele>925.219</ele>
        <time>2022-08-24T13:21:24Z</time>
      </trkpt>
      <trkpt lat="42.97562799999976" lon="-1.3816270000000002">
        <ele>925.209</ele>
        <time>2022-08-24T13:21:25Z</time>
      </trkpt>
      <trkpt lat="42.97564299999976" lon="-1.381636">
        <ele>925.247</ele>
        <time>2022-08-24T13:21:26Z</time>
      </trkpt>
      <trkpt lat="42.97564799999976" lon="-1.381636">
        <ele>925.217</ele>
        <time>2022-08-24T13:21:27Z</time>
      </trkpt>
      <trkpt lat="42.97566199999976" lon="-1.3816490000000001">
        <ele>925.457</ele>
        <time>2022-08-24T13:21:28Z</time>
      </trkpt>
      <trkpt lat="42.975693999999756" lon="-1.38166">
        <ele>925.423</ele>
        <time>2022-08-24T13:21:29Z</time>
      </trkpt>
      <trkpt lat="42.975730999999755" lon="-1.381672">
        <ele>925.465</ele>
        <time>2022-08-24T13:21:30Z</time>
      </trkpt>
      <trkpt lat="42.97575699999975" lon="-1.381675">
        <ele>925.682</ele>
        <time>2022-08-24T13:21:31Z</time>
      </trkpt>
      <trkpt lat="42.975781999999754" lon="-1.381677">
        <ele>925.655</ele>
        <time>2022-08-24T13:21:32Z</time>
      </trkpt>
      <trkpt lat="42.97580299999975" lon="-1.381679">
        <ele>925.669</ele>
        <time>2022-08-24T13:21:33Z</time>
      </trkpt>
      <trkpt lat="42.975826999999754" lon="-1.381696">
        <ele>925.838</ele>
        <time>2022-08-24T13:21:34Z</time>
      </trkpt>
      <trkpt lat="42.97584999999975" lon="-1.381706">
        <ele>925.846</ele>
        <time>2022-08-24T13:21:35Z</time>
      </trkpt>
      <trkpt lat="42.97585399999975" lon="-1.381709">
        <ele>925.888</ele>
        <time>2022-08-24T13:21:36Z</time>
      </trkpt>
      <trkpt lat="42.97586999999975" lon="-1.381725">
        <ele>925.816</ele>
        <time>2022-08-24T13:21:37Z</time>
      </trkpt>
      <trkpt lat="42.97589799999975" lon="-1.381733">
        <ele>925.609</ele>
        <time>2022-08-24T13:21:38Z</time>
      </trkpt>
      <trkpt lat="42.975924999999755" lon="-1.381747">
        <ele>925.665</ele>
        <time>2022-08-24T13:21:39Z</time>
      </trkpt>
      <trkpt lat="42.975963999999756" lon="-1.381769">
        <ele>925.865</ele>
        <time>2022-08-24T13:21:40Z</time>
      </trkpt>
      <trkpt lat="42.97600499999976" lon="-1.3817920000000001">
        <ele>925.685</ele>
        <time>2022-08-24T13:21:41Z</time>
      </trkpt>
      <trkpt lat="42.97603899999976" lon="-1.3818100000000002">
        <ele>925.611</ele>
        <time>2022-08-24T13:21:42Z</time>
      </trkpt>
      <trkpt lat="42.97612799999976" lon="-1.381822">
        <ele>925.453</ele>
        <time>2022-08-24T13:21:45Z</time>
      </trkpt>
      <trkpt lat="42.97618099999976" lon="-1.381847">
        <ele>925.440</ele>
        <time>2022-08-24T13:21:47Z</time>
      </trkpt>
      <trkpt lat="42.976193999999765" lon="-1.381848">
        <ele>925.443</ele>
        <time>2022-08-24T13:21:48Z</time>
      </trkpt>
      <trkpt lat="42.976210999999765" lon="-1.381815">
        <ele>925.477</ele>
        <time>2022-08-24T13:21:49Z</time>
      </trkpt>
      <trkpt lat="42.976255999999765" lon="-1.381824">
        <ele>925.476</ele>
        <time>2022-08-24T13:21:50Z</time>
      </trkpt>
      <trkpt lat="42.976317999999765" lon="-1.381858">
        <ele>925.445</ele>
        <time>2022-08-24T13:21:51Z</time>
      </trkpt>
      <trkpt lat="42.97634999999976" lon="-1.3818810000000001">
        <ele>925.247</ele>
        <time>2022-08-24T13:21:52Z</time>
      </trkpt>
      <trkpt lat="42.976365999999764" lon="-1.3818940000000002">
        <ele>925.211</ele>
        <time>2022-08-24T13:21:53Z</time>
      </trkpt>
      <trkpt lat="42.97638399999976" lon="-1.3819100000000002">
        <ele>925.209</ele>
        <time>2022-08-24T13:21:54Z</time>
      </trkpt>
      <trkpt lat="42.97638699999976" lon="-1.3819090000000003">
        <ele>925.225</ele>
        <time>2022-08-24T13:21:55Z</time>
      </trkpt>
      <trkpt lat="42.97639199999976" lon="-1.3819210000000002">
        <ele>924.835</ele>
        <time>2022-08-24T13:22:49Z</time>
      </trkpt>
      <trkpt lat="42.976393999999765" lon="-1.381925">
        <ele>924.835</ele>
        <time>2022-08-24T13:22:51Z</time>
      </trkpt>
      <trkpt lat="42.976424999999765" lon="-1.381955">
        <ele>924.881</ele>
        <time>2022-08-24T13:22:53Z</time>
      </trkpt>
      <trkpt lat="42.976446999999766" lon="-1.3819730000000001">
        <ele>924.653</ele>
        <time>2022-08-24T13:22:55Z</time>
      </trkpt>
      <trkpt lat="42.97645199999977" lon="-1.381976">
        <ele>924.620</ele>
        <time>2022-08-24T13:22:56Z</time>
      </trkpt>
      <trkpt lat="42.976460999999766" lon="-1.38198">
        <ele>924.693</ele>
        <time>2022-08-24T13:22:57Z</time>
      </trkpt>
      <trkpt lat="42.97647399999977" lon="-1.381982">
        <ele>924.677</ele>
        <time>2022-08-24T13:22:58Z</time>
      </trkpt>
      <trkpt lat="42.976488999999766" lon="-1.381988">
        <ele>924.626</ele>
        <time>2022-08-24T13:22:59Z</time>
      </trkpt>
      <trkpt lat="42.976494999999765" lon="-1.381994">
        <ele>924.856</ele>
        <time>2022-08-24T13:23:00Z</time>
      </trkpt>
      <trkpt lat="42.976494999999765" lon="-1.381994">
        <ele>924.859</ele>
        <time>2022-08-24T13:23:01Z</time>
      </trkpt>
      <trkpt lat="42.97653599999977" lon="-1.382012">
        <ele>925.214</ele>
        <time>2022-08-24T13:23:04Z</time>
      </trkpt>
      <trkpt lat="42.976564999999766" lon="-1.38203">
        <ele>925.409</ele>
        <time>2022-08-24T13:23:06Z</time>
      </trkpt>
      <trkpt lat="42.976573999999765" lon="-1.382033">
        <ele>925.656</ele>
        <time>2022-08-24T13:23:07Z</time>
      </trkpt>
      <trkpt lat="42.976587999999765" lon="-1.382037">
        <ele>925.876</ele>
        <time>2022-08-24T13:23:08Z</time>
      </trkpt>
      <trkpt lat="42.97661199999977" lon="-1.38205">
        <ele>926.026</ele>
        <time>2022-08-24T13:23:09Z</time>
      </trkpt>
      <trkpt lat="42.97663099999977" lon="-1.382062">
        <ele>926.252</ele>
        <time>2022-08-24T13:23:10Z</time>
      </trkpt>
      <trkpt lat="42.97663499999977" lon="-1.3820649999999999">
        <ele>926.424</ele>
        <time>2022-08-24T13:23:11Z</time>
      </trkpt>
      <trkpt lat="42.97664499999977" lon="-1.3820729999999999">
        <ele>926.831</ele>
        <time>2022-08-24T13:23:12Z</time>
      </trkpt>
      <trkpt lat="42.97665899999977" lon="-1.382081">
        <ele>927.074</ele>
        <time>2022-08-24T13:23:13Z</time>
      </trkpt>
      <trkpt lat="42.97667499999977" lon="-1.382088">
        <ele>927.258</ele>
        <time>2022-08-24T13:23:14Z</time>
      </trkpt>
      <trkpt lat="42.97673499999977" lon="-1.382125">
        <ele>927.677</ele>
        <time>2022-08-24T13:23:17Z</time>
      </trkpt>
      <trkpt lat="42.97675099999977" lon="-1.3821320000000001">
        <ele>928.082</ele>
        <time>2022-08-24T13:23:18Z</time>
      </trkpt>
      <trkpt lat="42.97677099999977" lon="-1.382149">
        <ele>928.243</ele>
        <time>2022-08-24T13:23:19Z</time>
      </trkpt>
      <trkpt lat="42.976775999999774" lon="-1.382154">
        <ele>928.217</ele>
        <time>2022-08-24T13:23:20Z</time>
      </trkpt>
      <trkpt lat="42.97677899999977" lon="-1.382155">
        <ele>928.409</ele>
        <time>2022-08-24T13:23:21Z</time>
      </trkpt>
      <trkpt lat="42.976789999999774" lon="-1.382164">
        <ele>928.679</ele>
        <time>2022-08-24T13:23:22Z</time>
      </trkpt>
      <trkpt lat="42.97679699999977" lon="-1.382174">
        <ele>928.819</ele>
        <time>2022-08-24T13:23:23Z</time>
      </trkpt>
      <trkpt lat="42.97681999999977" lon="-1.382191">
        <ele>929.069</ele>
        <time>2022-08-24T13:23:24Z</time>
      </trkpt>
      <trkpt lat="42.97683199999977" lon="-1.382199">
        <ele>929.085</ele>
        <time>2022-08-24T13:23:25Z</time>
      </trkpt>
      <trkpt lat="42.976843999999765" lon="-1.3821999999999999">
        <ele>929.217</ele>
        <time>2022-08-24T13:23:26Z</time>
      </trkpt>
      <trkpt lat="42.976852999999764" lon="-1.382197">
        <ele>929.484</ele>
        <time>2022-08-24T13:23:27Z</time>
      </trkpt>
      <trkpt lat="42.97686299999977" lon="-1.382204">
        <ele>929.687</ele>
        <time>2022-08-24T13:23:28Z</time>
      </trkpt>
      <trkpt lat="42.976869999999764" lon="-1.3822079999999999">
        <ele>929.641</ele>
        <time>2022-08-24T13:23:29Z</time>
      </trkpt>
      <trkpt lat="42.976911999999764" lon="-1.382245">
        <ele>929.850</ele>
        <time>2022-08-24T13:23:30Z</time>
      </trkpt>
      <trkpt lat="42.97693199999976" lon="-1.382266">
        <ele>930.043</ele>
        <time>2022-08-24T13:23:31Z</time>
      </trkpt>
      <trkpt lat="42.97694899999976" lon="-1.382277">
        <ele>930.264</ele>
        <time>2022-08-24T13:23:32Z</time>
      </trkpt>
      <trkpt lat="42.976964999999765" lon="-1.382292">
        <ele>930.410</ele>
        <time>2022-08-24T13:23:33Z</time>
      </trkpt>
      <trkpt lat="42.97697699999976" lon="-1.382306">
        <ele>930.409</ele>
        <time>2022-08-24T13:23:34Z</time>
      </trkpt>
      <trkpt lat="42.976989999999766" lon="-1.382322">
        <ele>930.675</ele>
        <time>2022-08-24T13:23:35Z</time>
      </trkpt>
      <trkpt lat="42.977003999999766" lon="-1.382342">
        <ele>930.885</ele>
        <time>2022-08-24T13:23:36Z</time>
      </trkpt>
      <trkpt lat="42.97701699999977" lon="-1.382361">
        <ele>931.075</ele>
        <time>2022-08-24T13:23:37Z</time>
      </trkpt>
      <trkpt lat="42.97702799999977" lon="-1.382379">
        <ele>931.041</ele>
        <time>2022-08-24T13:23:38Z</time>
      </trkpt>
      <trkpt lat="42.97704299999977" lon="-1.382403">
        <ele>931.053</ele>
        <time>2022-08-24T13:23:39Z</time>
      </trkpt>
      <trkpt lat="42.977057999999765" lon="-1.3824260000000002">
        <ele>931.070</ele>
        <time>2022-08-24T13:23:40Z</time>
      </trkpt>
      <trkpt lat="42.977074999999765" lon="-1.3824490000000003">
        <ele>931.063</ele>
        <time>2022-08-24T13:23:41Z</time>
      </trkpt>
      <trkpt lat="42.977096999999766" lon="-1.3824760000000003">
        <ele>931.277</ele>
        <time>2022-08-24T13:23:42Z</time>
      </trkpt>
      <trkpt lat="42.977113999999766" lon="-1.3825000000000003">
        <ele>931.226</ele>
        <time>2022-08-24T13:23:43Z</time>
      </trkpt>
      <trkpt lat="42.97713499999976" lon="-1.3825280000000002">
        <ele>931.238</ele>
        <time>2022-08-24T13:23:44Z</time>
      </trkpt>
      <trkpt lat="42.97715799999976" lon="-1.3825530000000001">
        <ele>931.270</ele>
        <time>2022-08-24T13:23:45Z</time>
      </trkpt>
      <trkpt lat="42.97717999999976" lon="-1.3825760000000002">
        <ele>931.217</ele>
        <time>2022-08-24T13:23:46Z</time>
      </trkpt>
      <trkpt lat="42.97720299999976" lon="-1.3826010000000002">
        <ele>931.209</ele>
        <time>2022-08-24T13:23:47Z</time>
      </trkpt>
      <trkpt lat="42.97722399999976" lon="-1.3826300000000002">
        <ele>931.464</ele>
        <time>2022-08-24T13:23:48Z</time>
      </trkpt>
      <trkpt lat="42.97724699999976" lon="-1.3826600000000002">
        <ele>931.424</ele>
        <time>2022-08-24T13:23:49Z</time>
      </trkpt>
      <trkpt lat="42.977267999999754" lon="-1.3826900000000002">
        <ele>931.444</ele>
        <time>2022-08-24T13:23:50Z</time>
      </trkpt>
      <trkpt lat="42.977286999999755" lon="-1.3827190000000003">
        <ele>931.480</ele>
        <time>2022-08-24T13:23:51Z</time>
      </trkpt>
      <trkpt lat="42.97730899999976" lon="-1.3827530000000003">
        <ele>931.632</ele>
        <time>2022-08-24T13:23:52Z</time>
      </trkpt>
      <trkpt lat="42.977331999999755" lon="-1.3827890000000003">
        <ele>931.649</ele>
        <time>2022-08-24T13:23:53Z</time>
      </trkpt>
      <trkpt lat="42.977399999999754" lon="-1.3828890000000003">
        <ele>931.462</ele>
        <time>2022-08-24T13:23:56Z</time>
      </trkpt>
      <trkpt lat="42.97746599999975" lon="-1.3829740000000001">
        <ele>931.456</ele>
        <time>2022-08-24T13:23:59Z</time>
      </trkpt>
      <trkpt lat="42.97747999999975" lon="-1.3829950000000002">
        <ele>931.065</ele>
        <time>2022-08-24T13:24:00Z</time>
      </trkpt>
      <trkpt lat="42.97749699999975" lon="-1.3830190000000002">
        <ele>931.094</ele>
        <time>2022-08-24T13:24:01Z</time>
      </trkpt>
      <trkpt lat="42.97751399999975" lon="-1.3830430000000002">
        <ele>931.057</ele>
        <time>2022-08-24T13:24:02Z</time>
      </trkpt>
      <trkpt lat="42.97752999999975" lon="-1.3830660000000004">
        <ele>931.022</ele>
        <time>2022-08-24T13:24:03Z</time>
      </trkpt>
      <trkpt lat="42.977545999999755" lon="-1.3830860000000003">
        <ele>931.009</ele>
        <time>2022-08-24T13:24:04Z</time>
      </trkpt>
      <trkpt lat="42.977672999999754" lon="-1.3832420000000003">
        <ele>931.430</ele>
        <time>2022-08-24T13:24:10Z</time>
      </trkpt>
      <trkpt lat="42.97792999999975" lon="-1.3834840000000004">
        <ele>930.680</ele>
        <time>2022-08-24T13:24:16Z</time>
      </trkpt>
      <trkpt lat="42.97812399999975" lon="-1.3836500000000005">
        <ele>930.030</ele>
        <time>2022-08-24T13:24:20Z</time>
      </trkpt>
      <trkpt lat="42.97822899999975" lon="-1.3837250000000005">
        <ele>929.886</ele>
        <time>2022-08-24T13:24:22Z</time>
      </trkpt>
      <trkpt lat="42.97843899999975" lon="-1.3839040000000005">
        <ele>928.848</ele>
        <time>2022-08-24T13:24:26Z</time>
      </trkpt>
      <trkpt lat="42.97863399999975" lon="-1.3841420000000004">
        <ele>928.445</ele>
        <time>2022-08-24T13:24:30Z</time>
      </trkpt>
      <trkpt lat="42.978781999999754" lon="-1.3843430000000003">
        <ele>927.448</ele>
        <time>2022-08-24T13:24:33Z</time>
      </trkpt>
      <trkpt lat="42.978873999999756" lon="-1.3844730000000003">
        <ele>927.072</ele>
        <time>2022-08-24T13:24:35Z</time>
      </trkpt>
      <trkpt lat="42.97892099999976" lon="-1.3845390000000002">
        <ele>926.461</ele>
        <time>2022-08-24T13:24:36Z</time>
      </trkpt>
      <trkpt lat="42.97896499999976" lon="-1.384605">
        <ele>926.053</ele>
        <time>2022-08-24T13:24:37Z</time>
      </trkpt>
      <trkpt lat="42.979005999999764" lon="-1.384671">
        <ele>925.604</ele>
        <time>2022-08-24T13:24:38Z</time>
      </trkpt>
      <trkpt lat="42.979047999999764" lon="-1.384736">
        <ele>924.414</ele>
        <time>2022-08-24T13:24:39Z</time>
      </trkpt>
      <trkpt lat="42.97908899999977" lon="-1.384801">
        <ele>923.809</ele>
        <time>2022-08-24T13:24:40Z</time>
      </trkpt>
      <trkpt lat="42.97912699999977" lon="-1.384865">
        <ele>923.486</ele>
        <time>2022-08-24T13:24:41Z</time>
      </trkpt>
      <trkpt lat="42.97916299999977" lon="-1.38493">
        <ele>922.846</ele>
        <time>2022-08-24T13:24:42Z</time>
      </trkpt>
      <trkpt lat="42.97928099999977" lon="-1.385135">
        <ele>921.066</ele>
        <time>2022-08-24T13:24:45Z</time>
      </trkpt>
      <trkpt lat="42.97935999999977" lon="-1.385269">
        <ele>919.622</ele>
        <time>2022-08-24T13:24:47Z</time>
      </trkpt>
      <trkpt lat="42.97943899999977" lon="-1.385397">
        <ele>918.074</ele>
        <time>2022-08-24T13:24:49Z</time>
      </trkpt>
      <trkpt lat="42.97947499999977" lon="-1.385452">
        <ele>917.641</ele>
        <time>2022-08-24T13:24:50Z</time>
      </trkpt>
      <trkpt lat="42.97950699999977" lon="-1.3854989999999998">
        <ele>916.294</ele>
        <time>2022-08-24T13:24:51Z</time>
      </trkpt>
      <trkpt lat="42.97953799999977" lon="-1.3855379999999997">
        <ele>915.698</ele>
        <time>2022-08-24T13:24:52Z</time>
      </trkpt>
      <trkpt lat="42.97956799999977" lon="-1.3855649999999997">
        <ele>915.237</ele>
        <time>2022-08-24T13:24:53Z</time>
      </trkpt>
      <trkpt lat="42.979589999999774" lon="-1.3855859999999998">
        <ele>914.249</ele>
        <time>2022-08-24T13:24:54Z</time>
      </trkpt>
      <trkpt lat="42.979606999999774" lon="-1.3856009999999999">
        <ele>913.802</ele>
        <time>2022-08-24T13:24:55Z</time>
      </trkpt>
      <trkpt lat="42.97962199999977" lon="-1.3856099999999998">
        <ele>913.222</ele>
        <time>2022-08-24T13:24:56Z</time>
      </trkpt>
      <trkpt lat="42.97963399999977" lon="-1.3856169999999999">
        <ele>912.809</ele>
        <time>2022-08-24T13:24:57Z</time>
      </trkpt>
      <trkpt lat="42.97964199999977" lon="-1.3856209999999998">
        <ele>912.045</ele>
        <time>2022-08-24T13:24:58Z</time>
      </trkpt>
      <trkpt lat="42.97964599999977" lon="-1.3856219999999997">
        <ele>908.835</ele>
        <time>2022-08-24T13:25:18Z</time>
      </trkpt>
      <trkpt lat="42.979646999999765" lon="-1.3856259999999996">
        <ele>909.065</ele>
        <time>2022-08-24T13:25:20Z</time>
      </trkpt>
      <trkpt lat="42.97970499999977" lon="-1.3857769999999996">
        <ele>909.081</ele>
        <time>2022-08-24T13:25:25Z</time>
      </trkpt>
      <trkpt lat="42.97983399999977" lon="-1.3860049999999995">
        <ele>908.273</ele>
        <time>2022-08-24T13:25:30Z</time>
      </trkpt>
      <trkpt lat="42.97986399999977" lon="-1.3860539999999995">
        <ele>908.040</ele>
        <time>2022-08-24T13:25:31Z</time>
      </trkpt>
      <trkpt lat="42.97986899999977" lon="-1.3860989999999995">
        <ele>907.863</ele>
        <time>2022-08-24T13:25:32Z</time>
      </trkpt>
      <trkpt lat="42.979865999999774" lon="-1.3861319999999995">
        <ele>907.837</ele>
        <time>2022-08-24T13:25:33Z</time>
      </trkpt>
      <trkpt lat="42.979864999999776" lon="-1.3861869999999994">
        <ele>907.626</ele>
        <time>2022-08-24T13:25:34Z</time>
      </trkpt>
      <trkpt lat="42.97987199999977" lon="-1.3862379999999994">
        <ele>907.623</ele>
        <time>2022-08-24T13:25:35Z</time>
      </trkpt>
      <trkpt lat="42.979873999999775" lon="-1.3862839999999994">
        <ele>907.683</ele>
        <time>2022-08-24T13:25:36Z</time>
      </trkpt>
      <trkpt lat="42.979881999999776" lon="-1.3863159999999994">
        <ele>907.411</ele>
        <time>2022-08-24T13:25:37Z</time>
      </trkpt>
      <trkpt lat="42.979879999999774" lon="-1.3863399999999995">
        <ele>907.409</ele>
        <time>2022-08-24T13:25:38Z</time>
      </trkpt>
      <trkpt lat="42.97987799999977" lon="-1.3863759999999994">
        <ele>907.453</ele>
        <time>2022-08-24T13:25:39Z</time>
      </trkpt>
      <trkpt lat="42.97987899999977" lon="-1.3864129999999995">
        <ele>907.493</ele>
        <time>2022-08-24T13:25:40Z</time>
      </trkpt>
      <trkpt lat="42.97987699999977" lon="-1.3864549999999995">
        <ele>907.263</ele>
        <time>2022-08-24T13:25:41Z</time>
      </trkpt>
      <trkpt lat="42.979897999999764" lon="-1.3866539999999996">
        <ele>907.069</ele>
        <time>2022-08-24T13:25:46Z</time>
      </trkpt>
      <trkpt lat="42.979905999999765" lon="-1.3867409999999996">
        <ele>906.831</ele>
        <time>2022-08-24T13:25:49Z</time>
      </trkpt>
      <trkpt lat="42.97990499999977" lon="-1.3867719999999994">
        <ele>906.888</ele>
        <time>2022-08-24T13:25:50Z</time>
      </trkpt>
      <trkpt lat="42.979908999999765" lon="-1.3868009999999995">
        <ele>906.841</ele>
        <time>2022-08-24T13:25:51Z</time>
      </trkpt>
      <trkpt lat="42.97994099999976" lon="-1.3868719999999994">
        <ele>906.695</ele>
        <time>2022-08-24T13:25:53Z</time>
      </trkpt>
      <trkpt lat="42.97994499999976" lon="-1.3869029999999993">
        <ele>906.664</ele>
        <time>2022-08-24T13:25:54Z</time>
      </trkpt>
      <trkpt lat="42.97995099999976" lon="-1.3869309999999992">
        <ele>906.647</ele>
        <time>2022-08-24T13:25:55Z</time>
      </trkpt>
      <trkpt lat="42.979965999999756" lon="-1.3869519999999993">
        <ele>906.229</ele>
        <time>2022-08-24T13:25:56Z</time>
      </trkpt>
      <trkpt lat="42.97997899999976" lon="-1.3869739999999993">
        <ele>906.221</ele>
        <time>2022-08-24T13:25:57Z</time>
      </trkpt>
      <trkpt lat="42.98000499999976" lon="-1.3870309999999992">
        <ele>905.809</ele>
        <time>2022-08-24T13:25:59Z</time>
      </trkpt>
      <trkpt lat="42.98009199999976" lon="-1.3871279999999993">
        <ele>905.435</ele>
        <time>2022-08-24T13:26:02Z</time>
      </trkpt>
      <trkpt lat="42.980112999999754" lon="-1.3871589999999991">
        <ele>905.475</ele>
        <time>2022-08-24T13:26:03Z</time>
      </trkpt>
      <trkpt lat="42.980126999999754" lon="-1.3872019999999992">
        <ele>905.285</ele>
        <time>2022-08-24T13:26:04Z</time>
      </trkpt>
      <trkpt lat="42.980131999999756" lon="-1.3872279999999992">
        <ele>905.281</ele>
        <time>2022-08-24T13:26:05Z</time>
      </trkpt>
      <trkpt lat="42.98013599999975" lon="-1.3872559999999992">
        <ele>905.083</ele>
        <time>2022-08-24T13:26:06Z</time>
      </trkpt>
      <trkpt lat="42.98014799999975" lon="-1.3872989999999992">
        <ele>905.010</ele>
        <time>2022-08-24T13:26:07Z</time>
      </trkpt>
      <trkpt lat="42.98017399999975" lon="-1.3873509999999991">
        <ele>904.673</ele>
        <time>2022-08-24T13:26:08Z</time>
      </trkpt>
      <trkpt lat="42.98019999999975" lon="-1.3873959999999992">
        <ele>904.437</ele>
        <time>2022-08-24T13:26:09Z</time>
      </trkpt>
      <trkpt lat="42.980211999999746" lon="-1.387434999999999">
        <ele>903.846</ele>
        <time>2022-08-24T13:26:10Z</time>
      </trkpt>
      <trkpt lat="42.98021099999975" lon="-1.3874719999999992">
        <ele>903.437</ele>
        <time>2022-08-24T13:26:11Z</time>
      </trkpt>
      <trkpt lat="42.980208999999746" lon="-1.3875179999999991">
        <ele>902.649</ele>
        <time>2022-08-24T13:26:12Z</time>
      </trkpt>
      <trkpt lat="42.98021599999974" lon="-1.387569999999999">
        <ele>902.213</ele>
        <time>2022-08-24T13:26:13Z</time>
      </trkpt>
      <trkpt lat="42.98021099999974" lon="-1.387623999999999">
        <ele>901.809</ele>
        <time>2022-08-24T13:26:14Z</time>
      </trkpt>
      <trkpt lat="42.980203999999745" lon="-1.387654999999999">
        <ele>901.484</ele>
        <time>2022-08-24T13:26:15Z</time>
      </trkpt>
      <trkpt lat="42.98019999999975" lon="-1.387661999999999">
        <ele>901.244</ele>
        <time>2022-08-24T13:26:16Z</time>
      </trkpt>
      <trkpt lat="42.980197999999746" lon="-1.3876719999999991">
        <ele>901.084</ele>
        <time>2022-08-24T13:26:17Z</time>
      </trkpt>
      <trkpt lat="42.980195999999744" lon="-1.3876739999999992">
        <ele>900.870</ele>
        <time>2022-08-24T13:26:18Z</time>
      </trkpt>
      <trkpt lat="42.980195999999744" lon="-1.3876739999999992">
        <ele>900.462</ele>
        <time>2022-08-24T13:26:19Z</time>
      </trkpt>
      <trkpt lat="42.980203999999745" lon="-1.3877249999999992">
        <ele>900.039</ele>
        <time>2022-08-24T13:26:20Z</time>
      </trkpt>
      <trkpt lat="42.980206999999744" lon="-1.3877279999999992">
        <ele>899.842</ele>
        <time>2022-08-24T13:26:21Z</time>
      </trkpt>
      <trkpt lat="42.980206999999744" lon="-1.3877279999999992">
        <ele>899.496</ele>
        <time>2022-08-24T13:26:22Z</time>
      </trkpt>
      <trkpt lat="42.980206999999744" lon="-1.3877279999999992">
        <ele>899.245</ele>
        <time>2022-08-24T13:26:23Z</time>
      </trkpt>
      <trkpt lat="42.980206999999744" lon="-1.3877279999999992">
        <ele>898.636</ele>
        <time>2022-08-24T13:26:24Z</time>
      </trkpt>
      <trkpt lat="42.98020299999975" lon="-1.3877519999999992">
        <ele>898.217</ele>
        <time>2022-08-24T13:26:25Z</time>
      </trkpt>
      <trkpt lat="42.980200999999745" lon="-1.3877539999999993">
        <ele>898.218</ele>
        <time>2022-08-24T13:26:26Z</time>
      </trkpt>
      <trkpt lat="42.98021999999975" lon="-1.3877939999999993">
        <ele>898.009</ele>
        <time>2022-08-24T13:26:27Z</time>
      </trkpt>
      <trkpt lat="42.980206999999744" lon="-1.3878549999999994">
        <ele>897.844</ele>
        <time>2022-08-24T13:26:28Z</time>
      </trkpt>
      <trkpt lat="42.98019899999974" lon="-1.3879409999999994">
        <ele>897.834</ele>
        <time>2022-08-24T13:26:30Z</time>
      </trkpt>
      <trkpt lat="42.98019099999974" lon="-1.3879729999999995">
        <ele>897.654</ele>
        <time>2022-08-24T13:26:31Z</time>
      </trkpt>
      <trkpt lat="42.98017399999974" lon="-1.3880029999999994">
        <ele>897.480</ele>
        <time>2022-08-24T13:26:32Z</time>
      </trkpt>
      <trkpt lat="42.98015499999974" lon="-1.3880399999999995">
        <ele>897.292</ele>
        <time>2022-08-24T13:26:33Z</time>
      </trkpt>
      <trkpt lat="42.98013599999974" lon="-1.3880599999999994">
        <ele>896.689</ele>
        <time>2022-08-24T13:26:34Z</time>
      </trkpt>
      <trkpt lat="42.98007299999974" lon="-1.3881989999999993">
        <ele>895.242</ele>
        <time>2022-08-24T13:26:38Z</time>
      </trkpt>
      <trkpt lat="42.98005299999974" lon="-1.3882379999999992">
        <ele>894.876</ele>
        <time>2022-08-24T13:26:39Z</time>
      </trkpt>
      <trkpt lat="42.98002199999974" lon="-1.3883149999999993">
        <ele>893.855</ele>
        <time>2022-08-24T13:26:41Z</time>
      </trkpt>
      <trkpt lat="42.97996299999974" lon="-1.3884109999999994">
        <ele>892.865</ele>
        <time>2022-08-24T13:26:44Z</time>
      </trkpt>
      <trkpt lat="42.97993799999974" lon="-1.3884969999999994">
        <ele>892.068</ele>
        <time>2022-08-24T13:26:46Z</time>
      </trkpt>
      <trkpt lat="42.97991199999974" lon="-1.3885359999999993">
        <ele>891.814</ele>
        <time>2022-08-24T13:26:47Z</time>
      </trkpt>
      <trkpt lat="42.979874999999744" lon="-1.3885769999999993">
        <ele>891.209</ele>
        <time>2022-08-24T13:26:48Z</time>
      </trkpt>
      <trkpt lat="42.979846999999744" lon="-1.3886169999999993">
        <ele>890.687</ele>
        <time>2022-08-24T13:26:49Z</time>
      </trkpt>
      <trkpt lat="42.97981999999974" lon="-1.3886459999999994">
        <ele>890.067</ele>
        <time>2022-08-24T13:26:50Z</time>
      </trkpt>
      <trkpt lat="42.97979199999974" lon="-1.3886919999999994">
        <ele>889.247</ele>
        <time>2022-08-24T13:26:51Z</time>
      </trkpt>
      <trkpt lat="42.97975299999974" lon="-1.3887099999999994">
        <ele>888.883</ele>
        <time>2022-08-24T13:26:52Z</time>
      </trkpt>
      <trkpt lat="42.97970199999974" lon="-1.3887789999999995">
        <ele>888.035</ele>
        <time>2022-08-24T13:26:54Z</time>
      </trkpt>
      <trkpt lat="42.97967699999974" lon="-1.3888329999999995">
        <ele>887.652</ele>
        <time>2022-08-24T13:26:55Z</time>
      </trkpt>
      <trkpt lat="42.97964399999974" lon="-1.3889109999999996">
        <ele>886.255</ele>
        <time>2022-08-24T13:26:57Z</time>
      </trkpt>
      <trkpt lat="42.979610999999736" lon="-1.3889609999999997">
        <ele>885.629</ele>
        <time>2022-08-24T13:26:58Z</time>
      </trkpt>
      <trkpt lat="42.979593999999736" lon="-1.3889909999999996">
        <ele>885.248</ele>
        <time>2022-08-24T13:26:59Z</time>
      </trkpt>
      <trkpt lat="42.979591999999734" lon="-1.3890189999999996">
        <ele>884.428</ele>
        <time>2022-08-24T13:27:00Z</time>
      </trkpt>
      <trkpt lat="42.97957399999974" lon="-1.3890789999999995">
        <ele>884.289</ele>
        <time>2022-08-24T13:27:01Z</time>
      </trkpt>
      <trkpt lat="42.979562999999736" lon="-1.3891489999999995">
        <ele>883.617</ele>
        <time>2022-08-24T13:27:02Z</time>
      </trkpt>
      <trkpt lat="42.979512999999734" lon="-1.3892459999999995">
        <ele>882.609</ele>
        <time>2022-08-24T13:27:03Z</time>
      </trkpt>
      <trkpt lat="42.97949099999973" lon="-1.3893369999999996">
        <ele>882.483</ele>
        <time>2022-08-24T13:27:04Z</time>
      </trkpt>
      <trkpt lat="42.97948099999973" lon="-1.3893999999999995">
        <ele>881.433</ele>
        <time>2022-08-24T13:27:05Z</time>
      </trkpt>
      <trkpt lat="42.97945999999973" lon="-1.3894329999999995">
        <ele>881.083</ele>
        <time>2022-08-24T13:27:06Z</time>
      </trkpt>
      <trkpt lat="42.97944599999973" lon="-1.3894649999999995">
        <ele>880.219</ele>
        <time>2022-08-24T13:27:07Z</time>
      </trkpt>
      <trkpt lat="42.97943299999973" lon="-1.3895149999999996">
        <ele>880.041</ele>
        <time>2022-08-24T13:27:08Z</time>
      </trkpt>
      <trkpt lat="42.97944199999973" lon="-1.3895589999999995">
        <ele>879.268</ele>
        <time>2022-08-24T13:27:09Z</time>
      </trkpt>
      <trkpt lat="42.97943099999973" lon="-1.3896009999999996">
        <ele>878.891</ele>
        <time>2022-08-24T13:27:10Z</time>
      </trkpt>
      <trkpt lat="42.97939399999973" lon="-1.3896789999999997">
        <ele>877.615</ele>
        <time>2022-08-24T13:27:12Z</time>
      </trkpt>
      <trkpt lat="42.97933399999973" lon="-1.3897699999999997">
        <ele>877.444</ele>
        <time>2022-08-24T13:27:13Z</time>
      </trkpt>
      <trkpt lat="42.97927699999973" lon="-1.3898789999999996">
        <ele>876.426</ele>
        <time>2022-08-24T13:27:15Z</time>
      </trkpt>
      <trkpt lat="42.97926099999973" lon="-1.3899259999999996">
        <ele>876.047</ele>
        <time>2022-08-24T13:27:16Z</time>
      </trkpt>
      <trkpt lat="42.97925099999973" lon="-1.3899669999999995">
        <ele>875.411</ele>
        <time>2022-08-24T13:27:17Z</time>
      </trkpt>
      <trkpt lat="42.97920299999973" lon="-1.3900389999999996">
        <ele>875.009</ele>
        <time>2022-08-24T13:27:18Z</time>
      </trkpt>
      <trkpt lat="42.97915799999973" lon="-1.3901489999999996">
        <ele>873.883</ele>
        <time>2022-08-24T13:27:20Z</time>
      </trkpt>
      <trkpt lat="42.979130999999725" lon="-1.3902859999999997">
        <ele>872.033</ele>
        <time>2022-08-24T13:27:22Z</time>
      </trkpt>
      <trkpt lat="42.97910799999973" lon="-1.3903719999999997">
        <ele>871.643</ele>
        <time>2022-08-24T13:27:23Z</time>
      </trkpt>
      <trkpt lat="42.979048999999726" lon="-1.3904099999999997">
        <ele>870.059</ele>
        <time>2022-08-24T13:27:24Z</time>
      </trkpt>
      <trkpt lat="42.97901199999973" lon="-1.3904399999999997">
        <ele>869.471</ele>
        <time>2022-08-24T13:27:25Z</time>
      </trkpt>
      <trkpt lat="42.97900599999973" lon="-1.3904619999999996">
        <ele>868.628</ele>
        <time>2022-08-24T13:27:26Z</time>
      </trkpt>
      <trkpt lat="42.97901499999973" lon="-1.3904929999999995">
        <ele>868.241</ele>
        <time>2022-08-24T13:27:27Z</time>
      </trkpt>
      <trkpt lat="42.978989999999726" lon="-1.3905339999999995">
        <ele>867.485</ele>
        <time>2022-08-24T13:27:28Z</time>
      </trkpt>
      <trkpt lat="42.97893599999973" lon="-1.3905889999999994">
        <ele>866.674</ele>
        <time>2022-08-24T13:27:29Z</time>
      </trkpt>
      <trkpt lat="42.978911999999724" lon="-1.3906199999999993">
        <ele>866.258</ele>
        <time>2022-08-24T13:27:30Z</time>
      </trkpt>
      <trkpt lat="42.97887099999972" lon="-1.3906659999999993">
        <ele>865.452</ele>
        <time>2022-08-24T13:27:31Z</time>
      </trkpt>
      <trkpt lat="42.97887299999972" lon="-1.3907189999999994">
        <ele>864.817</ele>
        <time>2022-08-24T13:27:32Z</time>
      </trkpt>
      <trkpt lat="42.978874999999725" lon="-1.3907579999999993">
        <ele>864.409</ele>
        <time>2022-08-24T13:27:33Z</time>
      </trkpt>
      <trkpt lat="42.978854999999726" lon="-1.3907949999999993">
        <ele>863.836</ele>
        <time>2022-08-24T13:27:34Z</time>
      </trkpt>
      <trkpt lat="42.97881199999973" lon="-1.3908629999999993">
        <ele>863.866</ele>
        <time>2022-08-24T13:27:35Z</time>
      </trkpt>
      <trkpt lat="42.978691999999725" lon="-1.3910389999999992">
        <ele>862.846</ele>
        <time>2022-08-24T13:27:37Z</time>
      </trkpt>
      <trkpt lat="42.97865399999972" lon="-1.3910759999999993">
        <ele>861.642</ele>
        <time>2022-08-24T13:27:38Z</time>
      </trkpt>
      <trkpt lat="42.97862299999972" lon="-1.3911419999999992">
        <ele>861.424</ele>
        <time>2022-08-24T13:27:39Z</time>
      </trkpt>
      <trkpt lat="42.97864399999972" lon="-1.3913469999999992">
        <ele>860.681</ele>
        <time>2022-08-24T13:27:41Z</time>
      </trkpt>
      <trkpt lat="42.978644999999716" lon="-1.3914289999999991">
        <ele>860.284</ele>
        <time>2022-08-24T13:27:42Z</time>
      </trkpt>
      <trkpt lat="42.978639999999714" lon="-1.391510999999999">
        <ele>859.648</ele>
        <time>2022-08-24T13:27:43Z</time>
      </trkpt>
      <trkpt lat="42.97863199999971" lon="-1.391565999999999">
        <ele>859.487</ele>
        <time>2022-08-24T13:27:44Z</time>
      </trkpt>
      <trkpt lat="42.97861099999972" lon="-1.391632999999999">
        <ele>858.893</ele>
        <time>2022-08-24T13:27:45Z</time>
      </trkpt>
      <trkpt lat="42.978580999999714" lon="-1.391697999999999">
        <ele>858.665</ele>
        <time>2022-08-24T13:27:46Z</time>
      </trkpt>
      <trkpt lat="42.97853099999971" lon="-1.391766999999999">
        <ele>858.021</ele>
        <time>2022-08-24T13:27:47Z</time>
      </trkpt>
      <trkpt lat="42.978470999999715" lon="-1.3918199999999992">
        <ele>857.409</ele>
        <time>2022-08-24T13:27:48Z</time>
      </trkpt>
      <trkpt lat="42.97843899999972" lon="-1.3918569999999992">
        <ele>857.050</ele>
        <time>2022-08-24T13:27:49Z</time>
      </trkpt>
      <trkpt lat="42.978312999999716" lon="-1.3919939999999993">
        <ele>856.230</ele>
        <time>2022-08-24T13:27:51Z</time>
      </trkpt>
      <trkpt lat="42.978253999999716" lon="-1.3920659999999994">
        <ele>856.010</ele>
        <time>2022-08-24T13:27:52Z</time>
      </trkpt>
      <trkpt lat="42.978200999999714" lon="-1.3921519999999994">
        <ele>855.636</ele>
        <time>2022-08-24T13:27:53Z</time>
      </trkpt>
      <trkpt lat="42.97816799999971" lon="-1.3922229999999993">
        <ele>855.458</ele>
        <time>2022-08-24T13:27:54Z</time>
      </trkpt>
      <trkpt lat="42.97816899999971" lon="-1.3922699999999992">
        <ele>855.075</ele>
        <time>2022-08-24T13:27:55Z</time>
      </trkpt>
      <trkpt lat="42.97819499999971" lon="-1.3923429999999992">
        <ele>854.828</ele>
        <time>2022-08-24T13:27:56Z</time>
      </trkpt>
      <trkpt lat="42.97819999999971" lon="-1.3924149999999993">
        <ele>854.672</ele>
        <time>2022-08-24T13:27:57Z</time>
      </trkpt>
      <trkpt lat="42.97817199999971" lon="-1.3924669999999992">
        <ele>854.451</ele>
        <time>2022-08-24T13:27:58Z</time>
      </trkpt>
      <trkpt lat="42.97813799999971" lon="-1.3925219999999991">
        <ele>854.248</ele>
        <time>2022-08-24T13:27:59Z</time>
      </trkpt>
      <trkpt lat="42.97810099999971" lon="-1.3925599999999991">
        <ele>854.261</ele>
        <time>2022-08-24T13:28:00Z</time>
      </trkpt>
      <trkpt lat="42.97807699999971" lon="-1.392606999999999">
        <ele>854.017</ele>
        <time>2022-08-24T13:28:01Z</time>
      </trkpt>
      <trkpt lat="42.97805599999971" lon="-1.392654999999999">
        <ele>854.009</ele>
        <time>2022-08-24T13:28:02Z</time>
      </trkpt>
      <trkpt lat="42.97802899999971" lon="-1.392695999999999">
        <ele>854.065</ele>
        <time>2022-08-24T13:28:03Z</time>
      </trkpt>
      <trkpt lat="42.977995999999706" lon="-1.392735999999999">
        <ele>854.085</ele>
        <time>2022-08-24T13:28:04Z</time>
      </trkpt>
      <trkpt lat="42.9779689999997" lon="-1.3927779999999992">
        <ele>854.275</ele>
        <time>2022-08-24T13:28:05Z</time>
      </trkpt>
      <trkpt lat="42.9779419999997" lon="-1.3928179999999992">
        <ele>854.461</ele>
        <time>2022-08-24T13:28:06Z</time>
      </trkpt>
      <trkpt lat="42.9779219999997" lon="-1.3928709999999993">
        <ele>854.693</ele>
        <time>2022-08-24T13:28:07Z</time>
      </trkpt>
      <trkpt lat="42.9778769999997" lon="-1.3930389999999993">
        <ele>855.050</ele>
        <time>2022-08-24T13:28:10Z</time>
      </trkpt>
      <trkpt lat="42.9778649999997" lon="-1.3931349999999993">
        <ele>855.243</ele>
        <time>2022-08-24T13:28:12Z</time>
      </trkpt>
      <trkpt lat="42.9778339999997" lon="-1.3932439999999993">
        <ele>855.027</ele>
        <time>2022-08-24T13:28:14Z</time>
      </trkpt>
      <trkpt lat="42.9778209999997" lon="-1.3933029999999993">
        <ele>855.036</ele>
        <time>2022-08-24T13:28:15Z</time>
      </trkpt>
      <trkpt lat="42.9778079999997" lon="-1.3933589999999993">
        <ele>854.661</ele>
        <time>2022-08-24T13:28:16Z</time>
      </trkpt>
      <trkpt lat="42.9777969999997" lon="-1.3934029999999993">
        <ele>854.421</ele>
        <time>2022-08-24T13:28:17Z</time>
      </trkpt>
      <trkpt lat="42.977797999999694" lon="-1.3934329999999993">
        <ele>854.013</ele>
        <time>2022-08-24T13:28:18Z</time>
      </trkpt>
      <trkpt lat="42.9778109999997" lon="-1.3934629999999992">
        <ele>853.609</ele>
        <time>2022-08-24T13:28:19Z</time>
      </trkpt>
      <trkpt lat="42.9778269999997" lon="-1.3934979999999992">
        <ele>853.647</ele>
        <time>2022-08-24T13:28:20Z</time>
      </trkpt>
      <trkpt lat="42.9778089999997" lon="-1.3935739999999992">
        <ele>853.437</ele>
        <time>2022-08-24T13:28:22Z</time>
      </trkpt>
      <trkpt lat="42.9777929999997" lon="-1.393620999999999">
        <ele>853.057</ele>
        <time>2022-08-24T13:28:23Z</time>
      </trkpt>
      <trkpt lat="42.9777779999997" lon="-1.393675999999999">
        <ele>853.053</ele>
        <time>2022-08-24T13:28:24Z</time>
      </trkpt>
      <trkpt lat="42.977768999999704" lon="-1.393728999999999">
        <ele>852.825</ele>
        <time>2022-08-24T13:28:25Z</time>
      </trkpt>
      <trkpt lat="42.97777899999971" lon="-1.3937739999999992">
        <ele>852.652</ele>
        <time>2022-08-24T13:28:26Z</time>
      </trkpt>
      <trkpt lat="42.97778699999971" lon="-1.393820999999999">
        <ele>852.255</ele>
        <time>2022-08-24T13:28:27Z</time>
      </trkpt>
      <trkpt lat="42.977793999999705" lon="-1.3938739999999992">
        <ele>852.079</ele>
        <time>2022-08-24T13:28:28Z</time>
      </trkpt>
      <trkpt lat="42.977787999999705" lon="-1.393936999999999">
        <ele>852.068</ele>
        <time>2022-08-24T13:28:29Z</time>
      </trkpt>
      <trkpt lat="42.97777299999971" lon="-1.3939929999999991">
        <ele>851.894</ele>
        <time>2022-08-24T13:28:30Z</time>
      </trkpt>
      <trkpt lat="42.97776899999971" lon="-1.3940419999999991">
        <ele>851.657</ele>
        <time>2022-08-24T13:28:31Z</time>
      </trkpt>
      <trkpt lat="42.97777599999971" lon="-1.394074999999999">
        <ele>851.422</ele>
        <time>2022-08-24T13:28:32Z</time>
      </trkpt>
      <trkpt lat="42.97779199999971" lon="-1.394115999999999">
        <ele>851.209</ele>
        <time>2022-08-24T13:28:33Z</time>
      </trkpt>
      <trkpt lat="42.97779099999971" lon="-1.394175999999999">
        <ele>851.230</ele>
        <time>2022-08-24T13:28:34Z</time>
      </trkpt>
      <trkpt lat="42.97778299999971" lon="-1.394235999999999">
        <ele>851.030</ele>
        <time>2022-08-24T13:28:35Z</time>
      </trkpt>
      <trkpt lat="42.97778599999971" lon="-1.3942849999999989">
        <ele>851.080</ele>
        <time>2022-08-24T13:28:36Z</time>
      </trkpt>
      <trkpt lat="42.97775299999971" lon="-1.3944399999999988">
        <ele>850.276</ele>
        <time>2022-08-24T13:28:39Z</time>
      </trkpt>
      <trkpt lat="42.97776199999971" lon="-1.3944999999999987">
        <ele>849.848</ele>
        <time>2022-08-24T13:28:40Z</time>
      </trkpt>
      <trkpt lat="42.97775899999971" lon="-1.3945529999999988">
        <ele>849.695</ele>
        <time>2022-08-24T13:28:41Z</time>
      </trkpt>
      <trkpt lat="42.97776699999971" lon="-1.3946019999999988">
        <ele>849.258</ele>
        <time>2022-08-24T13:28:42Z</time>
      </trkpt>
      <trkpt lat="42.97779099999971" lon="-1.3946539999999987">
        <ele>849.062</ele>
        <time>2022-08-24T13:28:43Z</time>
      </trkpt>
      <trkpt lat="42.97781199999971" lon="-1.3946999999999987">
        <ele>848.861</ele>
        <time>2022-08-24T13:28:44Z</time>
      </trkpt>
      <trkpt lat="42.977818999999705" lon="-1.3947339999999988">
        <ele>848.452</ele>
        <time>2022-08-24T13:28:45Z</time>
      </trkpt>
      <trkpt lat="42.9778059999997" lon="-1.3948259999999988">
        <ele>847.853</ele>
        <time>2022-08-24T13:28:47Z</time>
      </trkpt>
      <trkpt lat="42.9777959999997" lon="-1.3949759999999989">
        <ele>847.608</ele>
        <time>2022-08-24T13:28:49Z</time>
      </trkpt>
      <trkpt lat="42.9777759999997" lon="-1.395074999999999">
        <ele>847.409</ele>
        <time>2022-08-24T13:28:50Z</time>
      </trkpt>
      <trkpt lat="42.9777609999997" lon="-1.395174999999999">
        <ele>847.286</ele>
        <time>2022-08-24T13:28:51Z</time>
      </trkpt>
      <trkpt lat="42.977723999999704" lon="-1.395357999999999">
        <ele>846.846</ele>
        <time>2022-08-24T13:28:53Z</time>
      </trkpt>
      <trkpt lat="42.977703999999704" lon="-1.395435999999999">
        <ele>846.056</ele>
        <time>2022-08-24T13:28:54Z</time>
      </trkpt>
      <trkpt lat="42.9776739999997" lon="-1.395506999999999">
        <ele>845.832</ele>
        <time>2022-08-24T13:28:55Z</time>
      </trkpt>
      <trkpt lat="42.977666999999705" lon="-1.395575999999999">
        <ele>845.274</ele>
        <time>2022-08-24T13:28:56Z</time>
      </trkpt>
      <trkpt lat="42.977663999999706" lon="-1.395633999999999">
        <ele>844.821</ele>
        <time>2022-08-24T13:28:57Z</time>
      </trkpt>
      <trkpt lat="42.977669999999705" lon="-1.3957079999999988">
        <ele>844.654</ele>
        <time>2022-08-24T13:28:58Z</time>
      </trkpt>
      <trkpt lat="42.977675999999704" lon="-1.3957489999999988">
        <ele>844.258</ele>
        <time>2022-08-24T13:28:59Z</time>
      </trkpt>
      <trkpt lat="42.9776989999997" lon="-1.3957979999999988">
        <ele>844.017</ele>
        <time>2022-08-24T13:29:00Z</time>
      </trkpt>
      <trkpt lat="42.9776989999997" lon="-1.3958379999999988">
        <ele>843.057</ele>
        <time>2022-08-24T13:29:01Z</time>
      </trkpt>
      <trkpt lat="42.977692999999704" lon="-1.3958659999999987">
        <ele>842.600</ele>
        <time>2022-08-24T13:29:02Z</time>
      </trkpt>
      <trkpt lat="42.977669999999705" lon="-1.3959259999999987">
        <ele>842.620</ele>
        <time>2022-08-24T13:29:03Z</time>
      </trkpt>
      <trkpt lat="42.97766299999971" lon="-1.3959769999999987">
        <ele>842.009</ele>
        <time>2022-08-24T13:29:04Z</time>
      </trkpt>
      <trkpt lat="42.97768699999971" lon="-1.3960059999999987">
        <ele>841.686</ele>
        <time>2022-08-24T13:29:05Z</time>
      </trkpt>
      <trkpt lat="42.977699999999714" lon="-1.3960349999999988">
        <ele>841.036</ele>
        <time>2022-08-24T13:29:06Z</time>
      </trkpt>
      <trkpt lat="42.97769599999972" lon="-1.3960539999999988">
        <ele>840.886</ele>
        <time>2022-08-24T13:29:07Z</time>
      </trkpt>
      <trkpt lat="42.97770099999972" lon="-1.3960799999999989">
        <ele>840.652</ele>
        <time>2022-08-24T13:29:08Z</time>
      </trkpt>
      <trkpt lat="42.97770199999972" lon="-1.3960839999999988">
        <ele>840.224</ele>
        <time>2022-08-24T13:29:09Z</time>
      </trkpt>
      <trkpt lat="42.97770099999972" lon="-1.3960839999999988">
        <ele>838.481</ele>
        <time>2022-08-24T13:29:37Z</time>
      </trkpt>
      <trkpt lat="42.97770099999972" lon="-1.3960839999999988">
        <ele>838.264</ele>
        <time>2022-08-24T13:29:39Z</time>
      </trkpt>
      <trkpt lat="42.97768399999972" lon="-1.3960999999999988">
        <ele>837.858</ele>
        <time>2022-08-24T13:29:42Z</time>
      </trkpt>
      <trkpt lat="42.97768399999972" lon="-1.3960999999999988">
        <ele>837.647</ele>
        <time>2022-08-24T13:29:43Z</time>
      </trkpt>
      <trkpt lat="42.97768399999972" lon="-1.3960999999999988">
        <ele>837.443</ele>
        <time>2022-08-24T13:29:44Z</time>
      </trkpt>
      <trkpt lat="42.97768399999972" lon="-1.3960999999999988">
        <ele>836.464</ele>
        <time>2022-08-24T13:29:47Z</time>
      </trkpt>
      <trkpt lat="42.97768399999972" lon="-1.3960999999999988">
        <ele>836.210</ele>
        <time>2022-08-24T13:29:48Z</time>
      </trkpt>
      <trkpt lat="42.977659999999716" lon="-1.3961259999999989">
        <ele>835.809</ele>
        <time>2022-08-24T13:29:52Z</time>
      </trkpt>
      <trkpt lat="42.977643999999714" lon="-1.3961449999999989">
        <ele>835.685</ele>
        <time>2022-08-24T13:29:55Z</time>
      </trkpt>
      <trkpt lat="42.97753799999971" lon="-1.3962999999999988">
        <ele>835.235</ele>
        <time>2022-08-24T13:29:58Z</time>
      </trkpt>
      <trkpt lat="42.97750499999971" lon="-1.3963509999999988">
        <ele>835.225</ele>
        <time>2022-08-24T13:29:59Z</time>
      </trkpt>
      <trkpt lat="42.97745799999971" lon="-1.3963989999999988">
        <ele>835.261</ele>
        <time>2022-08-24T13:30:00Z</time>
      </trkpt>
      <trkpt lat="42.97740599999971" lon="-1.3965179999999988">
        <ele>835.273</ele>
        <time>2022-08-24T13:30:02Z</time>
      </trkpt>
      <trkpt lat="42.97739499999971" lon="-1.3965829999999988">
        <ele>835.080</ele>
        <time>2022-08-24T13:30:03Z</time>
      </trkpt>
      <trkpt lat="42.97737399999971" lon="-1.3966349999999987">
        <ele>835.263</ele>
        <time>2022-08-24T13:30:04Z</time>
      </trkpt>
      <trkpt lat="42.97735299999972" lon="-1.3967209999999988">
        <ele>835.277</ele>
        <time>2022-08-24T13:30:05Z</time>
      </trkpt>
      <trkpt lat="42.97732199999972" lon="-1.3968019999999988">
        <ele>835.276</ele>
        <time>2022-08-24T13:30:06Z</time>
      </trkpt>
      <trkpt lat="42.97730099999972" lon="-1.3968549999999988">
        <ele>835.452</ele>
        <time>2022-08-24T13:30:07Z</time>
      </trkpt>
      <trkpt lat="42.97728299999972" lon="-1.3968909999999988">
        <ele>835.453</ele>
        <time>2022-08-24T13:30:08Z</time>
      </trkpt>
      <trkpt lat="42.97726699999972" lon="-1.3969259999999988">
        <ele>835.808</ele>
        <time>2022-08-24T13:30:09Z</time>
      </trkpt>
      <trkpt lat="42.97727299999972" lon="-1.3969889999999987">
        <ele>836.009</ele>
        <time>2022-08-24T13:30:11Z</time>
      </trkpt>
      <trkpt lat="42.97728299999972" lon="-1.3970149999999988">
        <ele>836.286</ele>
        <time>2022-08-24T13:30:12Z</time>
      </trkpt>
      <trkpt lat="42.977284999999725" lon="-1.3970529999999988">
        <ele>836.456</ele>
        <time>2022-08-24T13:30:13Z</time>
      </trkpt>
      <trkpt lat="42.97728699999973" lon="-1.3970569999999987">
        <ele>836.466</ele>
        <time>2022-08-24T13:30:14Z</time>
      </trkpt>
      <trkpt lat="42.97728699999973" lon="-1.3970569999999987">
        <ele>836.472</ele>
        <time>2022-08-24T13:30:15Z</time>
      </trkpt>
      <trkpt lat="42.97728699999973" lon="-1.3970569999999987">
        <ele>836.454</ele>
        <time>2022-08-24T13:30:16Z</time>
      </trkpt>
      <trkpt lat="42.97728699999973" lon="-1.3970569999999987">
        <ele>836.461</ele>
        <time>2022-08-24T13:30:17Z</time>
      </trkpt>
      <trkpt lat="42.97728699999973" lon="-1.3970569999999987">
        <ele>836.484</ele>
        <time>2022-08-24T13:30:18Z</time>
      </trkpt>
      <trkpt lat="42.97728399999973" lon="-1.3970859999999987">
        <ele>836.098</ele>
        <time>2022-08-24T13:30:33Z</time>
      </trkpt>
      <trkpt lat="42.97728399999973" lon="-1.3971039999999988">
        <ele>836.097</ele>
        <time>2022-08-24T13:30:34Z</time>
      </trkpt>
      <trkpt lat="42.97728899999973" lon="-1.3971229999999988">
        <ele>836.086</ele>
        <time>2022-08-24T13:30:35Z</time>
      </trkpt>
      <trkpt lat="42.977289999999726" lon="-1.3971329999999988">
        <ele>835.660</ele>
        <time>2022-08-24T13:30:38Z</time>
      </trkpt>
      <trkpt lat="42.977289999999726" lon="-1.3971329999999988">
        <ele>834.426</ele>
        <time>2022-08-24T13:30:41Z</time>
      </trkpt>
      <trkpt lat="42.977289999999726" lon="-1.3971329999999988">
        <ele>834.409</ele>
        <time>2022-08-24T13:30:42Z</time>
      </trkpt>
      <trkpt lat="42.97728899999973" lon="-1.3971409999999989">
        <ele>833.449</ele>
        <time>2022-08-24T13:30:45Z</time>
      </trkpt>
      <trkpt lat="42.97734999999973" lon="-1.3973189999999989">
        <ele>832.869</ele>
        <time>2022-08-24T13:30:50Z</time>
      </trkpt>
      <trkpt lat="42.977387999999735" lon="-1.3974079999999989">
        <ele>832.669</ele>
        <time>2022-08-24T13:30:52Z</time>
      </trkpt>
      <trkpt lat="42.97740399999974" lon="-1.397444999999999">
        <ele>832.085</ele>
        <time>2022-08-24T13:30:53Z</time>
      </trkpt>
      <trkpt lat="42.97741699999974" lon="-1.397476999999999">
        <ele>831.847</ele>
        <time>2022-08-24T13:30:54Z</time>
      </trkpt>
      <trkpt lat="42.97742599999974" lon="-1.397498999999999">
        <ele>831.434</ele>
        <time>2022-08-24T13:30:55Z</time>
      </trkpt>
      <trkpt lat="42.97743699999974" lon="-1.3975269999999989">
        <ele>831.287</ele>
        <time>2022-08-24T13:30:56Z</time>
      </trkpt>
      <trkpt lat="42.97744799999974" lon="-1.397555999999999">
        <ele>830.821</ele>
        <time>2022-08-24T13:30:57Z</time>
      </trkpt>
      <trkpt lat="42.97746199999974" lon="-1.397579999999999">
        <ele>830.670</ele>
        <time>2022-08-24T13:30:58Z</time>
      </trkpt>
      <trkpt lat="42.97746699999974" lon="-1.397600999999999">
        <ele>830.483</ele>
        <time>2022-08-24T13:30:59Z</time>
      </trkpt>
      <trkpt lat="42.977476999999745" lon="-1.397623999999999">
        <ele>829.825</ele>
        <time>2022-08-24T13:31:00Z</time>
      </trkpt>
      <trkpt lat="42.977487999999745" lon="-1.397645999999999">
        <ele>829.817</ele>
        <time>2022-08-24T13:31:01Z</time>
      </trkpt>
      <trkpt lat="42.97748999999975" lon="-1.397656999999999">
        <ele>829.609</ele>
        <time>2022-08-24T13:31:02Z</time>
      </trkpt>
      <trkpt lat="42.97750999999975" lon="-1.397680999999999">
        <ele>829.259</ele>
        <time>2022-08-24T13:31:03Z</time>
      </trkpt>
      <trkpt lat="42.97752099999975" lon="-1.3977069999999991">
        <ele>829.039</ele>
        <time>2022-08-24T13:31:04Z</time>
      </trkpt>
      <trkpt lat="42.977524999999744" lon="-1.3977179999999991">
        <ele>828.819</ele>
        <time>2022-08-24T13:31:05Z</time>
      </trkpt>
      <trkpt lat="42.97752599999974" lon="-1.397720999999999">
        <ele>828.465</ele>
        <time>2022-08-24T13:31:06Z</time>
      </trkpt>
      <trkpt lat="42.97752599999974" lon="-1.397720999999999">
        <ele>828.077</ele>
        <time>2022-08-24T13:31:07Z</time>
      </trkpt>
      <trkpt lat="42.97752699999974" lon="-1.397831999999999">
        <ele>826.024</ele>
        <time>2022-08-24T13:31:22Z</time>
      </trkpt>
      <trkpt lat="42.97752599999974" lon="-1.397842999999999">
        <ele>826.017</ele>
        <time>2022-08-24T13:31:23Z</time>
      </trkpt>
      <trkpt lat="42.97752099999974" lon="-1.397856999999999">
        <ele>826.041</ele>
        <time>2022-08-24T13:31:24Z</time>
      </trkpt>
      <trkpt lat="42.97751999999974" lon="-1.397895999999999">
        <ele>825.640</ele>
        <time>2022-08-24T13:31:27Z</time>
      </trkpt>
      <trkpt lat="42.97751699999974" lon="-1.397906999999999">
        <ele>825.433</ele>
        <time>2022-08-24T13:31:28Z</time>
      </trkpt>
      <trkpt lat="42.97751399999974" lon="-1.397919999999999">
        <ele>825.223</ele>
        <time>2022-08-24T13:31:29Z</time>
      </trkpt>
      <trkpt lat="42.97750899999974" lon="-1.397942999999999">
        <ele>825.015</ele>
        <time>2022-08-24T13:31:31Z</time>
      </trkpt>
      <trkpt lat="42.97750099999974" lon="-1.3979769999999991">
        <ele>824.409</ele>
        <time>2022-08-24T13:31:34Z</time>
      </trkpt>
      <trkpt lat="42.97749899999974" lon="-1.397988999999999">
        <ele>824.274</ele>
        <time>2022-08-24T13:31:35Z</time>
      </trkpt>
      <trkpt lat="42.97749699999974" lon="-1.398001999999999">
        <ele>824.044</ele>
        <time>2022-08-24T13:31:36Z</time>
      </trkpt>
      <trkpt lat="42.97749699999974" lon="-1.3980149999999991">
        <ele>823.874</ele>
        <time>2022-08-24T13:31:37Z</time>
      </trkpt>
      <trkpt lat="42.977500999999734" lon="-1.398047999999999">
        <ele>822.680</ele>
        <time>2022-08-24T13:31:40Z</time>
      </trkpt>
      <trkpt lat="42.97750199999973" lon="-1.3980499999999991">
        <ele>822.432</ele>
        <time>2022-08-24T13:31:41Z</time>
      </trkpt>
      <trkpt lat="42.97750399999973" lon="-1.3980549999999992">
        <ele>822.269</ele>
        <time>2022-08-24T13:31:42Z</time>
      </trkpt>
      <trkpt lat="42.97750399999973" lon="-1.3980549999999992">
        <ele>822.082</ele>
        <time>2022-08-24T13:31:43Z</time>
      </trkpt>
      <trkpt lat="42.97750399999973" lon="-1.3980549999999992">
        <ele>821.846</ele>
        <time>2022-08-24T13:31:44Z</time>
      </trkpt>
      <trkpt lat="42.977502999999736" lon="-1.398058999999999">
        <ele>821.645</ele>
        <time>2022-08-24T13:31:45Z</time>
      </trkpt>
      <trkpt lat="42.977513999999736" lon="-1.398086999999999">
        <ele>821.232</ele>
        <time>2022-08-24T13:31:48Z</time>
      </trkpt>
      <trkpt lat="42.97752399999974" lon="-1.398112999999999">
        <ele>820.892</ele>
        <time>2022-08-24T13:31:50Z</time>
      </trkpt>
      <trkpt lat="42.97752499999974" lon="-1.398126999999999">
        <ele>820.811</ele>
        <time>2022-08-24T13:31:51Z</time>
      </trkpt>
      <trkpt lat="42.977530999999736" lon="-1.398153999999999">
        <ele>820.409</ele>
        <time>2022-08-24T13:31:53Z</time>
      </trkpt>
      <trkpt lat="42.977533999999736" lon="-1.398170999999999">
        <ele>819.824</ele>
        <time>2022-08-24T13:31:55Z</time>
      </trkpt>
      <trkpt lat="42.97753499999973" lon="-1.398175999999999">
        <ele>819.254</ele>
        <time>2022-08-24T13:31:57Z</time>
      </trkpt>
      <trkpt lat="42.97753499999973" lon="-1.398175999999999">
        <ele>818.824</ele>
        <time>2022-08-24T13:31:59Z</time>
      </trkpt>
      <trkpt lat="42.97752999999973" lon="-1.398199999999999">
        <ele>818.470</ele>
        <time>2022-08-24T13:32:05Z</time>
      </trkpt>
      <trkpt lat="42.97753099999973" lon="-1.398201999999999">
        <ele>818.242</ele>
        <time>2022-08-24T13:32:07Z</time>
      </trkpt>
      <trkpt lat="42.97753599999973" lon="-1.3982249999999992">
        <ele>817.629</ele>
        <time>2022-08-24T13:32:13Z</time>
      </trkpt>
      <trkpt lat="42.97754799999973" lon="-1.3982519999999992">
        <ele>817.422</ele>
        <time>2022-08-24T13:32:16Z</time>
      </trkpt>
      <trkpt lat="42.97754799999973" lon="-1.3982519999999992">
        <ele>817.066</ele>
        <time>2022-08-24T13:32:20Z</time>
      </trkpt>
      <trkpt lat="42.97754799999973" lon="-1.3982519999999992">
        <ele>816.835</ele>
        <time>2022-08-24T13:32:22Z</time>
      </trkpt>
      <trkpt lat="42.97754799999973" lon="-1.3982519999999992">
        <ele>816.432</ele>
        <time>2022-08-24T13:32:23Z</time>
      </trkpt>
      <trkpt lat="42.97755099999973" lon="-1.3982599999999992">
        <ele>816.292</ele>
        <time>2022-08-24T13:32:24Z</time>
      </trkpt>
      <trkpt lat="42.977554999999725" lon="-1.3982809999999992">
        <ele>816.011</ele>
        <time>2022-08-24T13:32:25Z</time>
      </trkpt>
      <trkpt lat="42.977557999999725" lon="-1.3982929999999991">
        <ele>815.809</ele>
        <time>2022-08-24T13:32:26Z</time>
      </trkpt>
      <trkpt lat="42.97757399999973" lon="-1.398387999999999">
        <ele>814.654</ele>
        <time>2022-08-24T13:32:37Z</time>
      </trkpt>
      <trkpt lat="42.977560999999724" lon="-1.398414999999999">
        <ele>814.424</ele>
        <time>2022-08-24T13:32:41Z</time>
      </trkpt>
      <trkpt lat="42.97755899999972" lon="-1.398415999999999">
        <ele>814.034</ele>
        <time>2022-08-24T13:32:47Z</time>
      </trkpt>
      <trkpt lat="42.977549999999724" lon="-1.398424999999999">
        <ele>814.040</ele>
        <time>2022-08-24T13:32:48Z</time>
      </trkpt>
      <trkpt lat="42.977498999999725" lon="-1.398453999999999">
        <ele>814.082</ele>
        <time>2022-08-24T13:32:51Z</time>
      </trkpt>
      <trkpt lat="42.97747799999973" lon="-1.3984579999999989">
        <ele>813.839</ele>
        <time>2022-08-24T13:32:52Z</time>
      </trkpt>
      <trkpt lat="42.977363999999724" lon="-1.398459999999999">
        <ele>813.282</ele>
        <time>2022-08-24T13:32:56Z</time>
      </trkpt>
      <trkpt lat="42.977340999999726" lon="-1.398455999999999">
        <ele>813.286</ele>
        <time>2022-08-24T13:32:57Z</time>
      </trkpt>
      <trkpt lat="42.97730599999973" lon="-1.398448999999999">
        <ele>813.075</ele>
        <time>2022-08-24T13:32:58Z</time>
      </trkpt>
      <trkpt lat="42.977250999999725" lon="-1.398429999999999">
        <ele>812.842</ele>
        <time>2022-08-24T13:33:00Z</time>
      </trkpt>
      <trkpt lat="42.97719599999972" lon="-1.398408999999999">
        <ele>812.622</ele>
        <time>2022-08-24T13:33:02Z</time>
      </trkpt>
      <trkpt lat="42.97710599999972" lon="-1.398399999999999">
        <ele>812.014</ele>
        <time>2022-08-24T13:33:05Z</time>
      </trkpt>
      <trkpt lat="42.977084999999725" lon="-1.398400999999999">
        <ele>811.409</ele>
        <time>2022-08-24T13:33:06Z</time>
      </trkpt>
      <trkpt lat="42.97705299999973" lon="-1.3984119999999989">
        <ele>811.225</ele>
        <time>2022-08-24T13:33:07Z</time>
      </trkpt>
      <trkpt lat="42.97701399999973" lon="-1.3984239999999988">
        <ele>810.435</ele>
        <time>2022-08-24T13:33:08Z</time>
      </trkpt>
      <trkpt lat="42.97696599999973" lon="-1.3984389999999989">
        <ele>810.295</ele>
        <time>2022-08-24T13:33:09Z</time>
      </trkpt>
      <trkpt lat="42.976938999999724" lon="-1.3984499999999989">
        <ele>809.841</ele>
        <time>2022-08-24T13:33:10Z</time>
      </trkpt>
      <trkpt lat="42.976901999999725" lon="-1.3984619999999988">
        <ele>809.293</ele>
        <time>2022-08-24T13:33:11Z</time>
      </trkpt>
      <trkpt lat="42.976820999999724" lon="-1.3985049999999988">
        <ele>808.280</ele>
        <time>2022-08-24T13:33:14Z</time>
      </trkpt>
      <trkpt lat="42.97680799999972" lon="-1.3985359999999987">
        <ele>807.833</ele>
        <time>2022-08-24T13:33:15Z</time>
      </trkpt>
      <trkpt lat="42.97679799999972" lon="-1.3985719999999986">
        <ele>807.617</ele>
        <time>2022-08-24T13:33:16Z</time>
      </trkpt>
      <trkpt lat="42.976784999999715" lon="-1.3986069999999986">
        <ele>806.456</ele>
        <time>2022-08-24T13:33:17Z</time>
      </trkpt>
      <trkpt lat="42.97676199999972" lon="-1.3986369999999986">
        <ele>805.885</ele>
        <time>2022-08-24T13:33:18Z</time>
      </trkpt>
      <trkpt lat="42.97673299999972" lon="-1.3986519999999987">
        <ele>805.689</ele>
        <time>2022-08-24T13:33:19Z</time>
      </trkpt>
      <trkpt lat="42.97669699999972" lon="-1.3986579999999986">
        <ele>805.417</ele>
        <time>2022-08-24T13:33:20Z</time>
      </trkpt>
      <trkpt lat="42.976660999999716" lon="-1.3986539999999987">
        <ele>805.209</ele>
        <time>2022-08-24T13:33:21Z</time>
      </trkpt>
      <trkpt lat="42.976627999999714" lon="-1.3986459999999987">
        <ele>805.059</ele>
        <time>2022-08-24T13:33:22Z</time>
      </trkpt>
      <trkpt lat="42.97659599999972" lon="-1.3986339999999988">
        <ele>804.819</ele>
        <time>2022-08-24T13:33:23Z</time>
      </trkpt>
      <trkpt lat="42.97656499999972" lon="-1.3986189999999987">
        <ele>804.849</ele>
        <time>2022-08-24T13:33:24Z</time>
      </trkpt>
      <trkpt lat="42.97653599999972" lon="-1.3986119999999986">
        <ele>804.685</ele>
        <time>2022-08-24T13:33:25Z</time>
      </trkpt>
      <trkpt lat="42.97651099999972" lon="-1.3986149999999986">
        <ele>804.677</ele>
        <time>2022-08-24T13:33:26Z</time>
      </trkpt>
      <trkpt lat="42.976491999999716" lon="-1.3986229999999986">
        <ele>804.644</ele>
        <time>2022-08-24T13:33:27Z</time>
      </trkpt>
      <trkpt lat="42.97647199999972" lon="-1.3986309999999986">
        <ele>804.617</ele>
        <time>2022-08-24T13:33:28Z</time>
      </trkpt>
      <trkpt lat="42.976455999999715" lon="-1.3986439999999987">
        <ele>804.671</ele>
        <time>2022-08-24T13:33:29Z</time>
      </trkpt>
      <trkpt lat="42.97644099999972" lon="-1.3986619999999987">
        <ele>804.460</ele>
        <time>2022-08-24T13:33:30Z</time>
      </trkpt>
      <trkpt lat="42.976429999999716" lon="-1.3986809999999987">
        <ele>804.455</ele>
        <time>2022-08-24T13:33:31Z</time>
      </trkpt>
      <trkpt lat="42.976427999999714" lon="-1.3986939999999988">
        <ele>804.407</ele>
        <time>2022-08-24T13:33:32Z</time>
      </trkpt>
      <trkpt lat="42.976421999999715" lon="-1.3987079999999987">
        <ele>804.417</ele>
        <time>2022-08-24T13:33:33Z</time>
      </trkpt>
      <trkpt lat="42.976415999999716" lon="-1.3987239999999987">
        <ele>804.609</ele>
        <time>2022-08-24T13:33:34Z</time>
      </trkpt>
      <trkpt lat="42.97640999999972" lon="-1.3987429999999987">
        <ele>804.656</ele>
        <time>2022-08-24T13:33:35Z</time>
      </trkpt>
      <trkpt lat="42.976404999999716" lon="-1.3987639999999988">
        <ele>804.676</ele>
        <time>2022-08-24T13:33:36Z</time>
      </trkpt>
      <trkpt lat="42.97639599999972" lon="-1.3987809999999987">
        <ele>804.816</ele>
        <time>2022-08-24T13:33:37Z</time>
      </trkpt>
      <trkpt lat="42.976384999999716" lon="-1.3987989999999988">
        <ele>805.072</ele>
        <time>2022-08-24T13:33:38Z</time>
      </trkpt>
      <trkpt lat="42.976373999999716" lon="-1.3988179999999988">
        <ele>805.244</ele>
        <time>2022-08-24T13:33:39Z</time>
      </trkpt>
      <trkpt lat="42.976362999999715" lon="-1.3988319999999987">
        <ele>805.481</ele>
        <time>2022-08-24T13:33:40Z</time>
      </trkpt>
      <trkpt lat="42.97635099999972" lon="-1.3988429999999987">
        <ele>805.834</ele>
        <time>2022-08-24T13:33:41Z</time>
      </trkpt>
      <trkpt lat="42.97633599999972" lon="-1.3988539999999987">
        <ele>806.048</ele>
        <time>2022-08-24T13:33:42Z</time>
      </trkpt>
      <trkpt lat="42.97631999999972" lon="-1.3988679999999987">
        <ele>806.287</ele>
        <time>2022-08-24T13:33:43Z</time>
      </trkpt>
      <trkpt lat="42.976306999999714" lon="-1.3988769999999986">
        <ele>806.624</ele>
        <time>2022-08-24T13:33:44Z</time>
      </trkpt>
      <trkpt lat="42.97628799999971" lon="-1.3989029999999987">
        <ele>807.204</ele>
        <time>2022-08-24T13:33:46Z</time>
      </trkpt>
      <trkpt lat="42.976283999999715" lon="-1.3989159999999987">
        <ele>807.414</ele>
        <time>2022-08-24T13:33:47Z</time>
      </trkpt>
      <trkpt lat="42.97627499999972" lon="-1.3989279999999986">
        <ele>807.609</ele>
        <time>2022-08-24T13:33:48Z</time>
      </trkpt>
      <trkpt lat="42.97624599999972" lon="-1.3989779999999987">
        <ele>808.443</ele>
        <time>2022-08-24T13:33:52Z</time>
      </trkpt>
      <trkpt lat="42.97623799999972" lon="-1.3989909999999988">
        <ele>808.643</ele>
        <time>2022-08-24T13:33:53Z</time>
      </trkpt>
      <trkpt lat="42.97621799999972" lon="-1.3990319999999987">
        <ele>808.833</ele>
        <time>2022-08-24T13:33:55Z</time>
      </trkpt>
      <trkpt lat="42.97619799999972" lon="-1.3990509999999987">
        <ele>808.839</ele>
        <time>2022-08-24T13:33:56Z</time>
      </trkpt>
      <trkpt lat="42.97618899999972" lon="-1.3990639999999988">
        <ele>808.821</ele>
        <time>2022-08-24T13:33:57Z</time>
      </trkpt>
      <trkpt lat="42.97618099999972" lon="-1.3990849999999988">
        <ele>809.248</ele>
        <time>2022-08-24T13:33:58Z</time>
      </trkpt>
      <trkpt lat="42.97616499999972" lon="-1.3991039999999988">
        <ele>809.211</ele>
        <time>2022-08-24T13:33:59Z</time>
      </trkpt>
      <trkpt lat="42.976159999999716" lon="-1.3991179999999988">
        <ele>809.435</ele>
        <time>2022-08-24T13:34:00Z</time>
      </trkpt>
      <trkpt lat="42.976157999999714" lon="-1.3991209999999987">
        <ele>809.874</ele>
        <time>2022-08-24T13:34:01Z</time>
      </trkpt>
      <trkpt lat="42.97615899999971" lon="-1.3991279999999988">
        <ele>810.048</ele>
        <time>2022-08-24T13:34:02Z</time>
      </trkpt>
      <trkpt lat="42.97615099999971" lon="-1.3991309999999988">
        <ele>810.261</ele>
        <time>2022-08-24T13:34:03Z</time>
      </trkpt>
      <trkpt lat="42.97613299999971" lon="-1.3991359999999988">
        <ele>810.417</ele>
        <time>2022-08-24T13:34:04Z</time>
      </trkpt>
      <trkpt lat="42.976126999999714" lon="-1.3991599999999988">
        <ele>810.409</ele>
        <time>2022-08-24T13:34:05Z</time>
      </trkpt>
      <trkpt lat="42.976111999999716" lon="-1.3991789999999988">
        <ele>810.475</ele>
        <time>2022-08-24T13:34:06Z</time>
      </trkpt>
      <trkpt lat="42.97609499999972" lon="-1.3992029999999989">
        <ele>810.845</ele>
        <time>2022-08-24T13:34:07Z</time>
      </trkpt>
      <trkpt lat="42.976075999999715" lon="-1.3992299999999989">
        <ele>811.275</ele>
        <time>2022-08-24T13:34:08Z</time>
      </trkpt>
      <trkpt lat="42.97605799999972" lon="-1.3992489999999989">
        <ele>811.281</ele>
        <time>2022-08-24T13:34:09Z</time>
      </trkpt>
      <trkpt lat="42.97604099999972" lon="-1.399261999999999">
        <ele>811.483</ele>
        <time>2022-08-24T13:34:10Z</time>
      </trkpt>
      <trkpt lat="42.97602999999972" lon="-1.3992659999999988">
        <ele>811.440</ele>
        <time>2022-08-24T13:34:11Z</time>
      </trkpt>
      <trkpt lat="42.976027999999715" lon="-1.3992679999999988">
        <ele>811.663</ele>
        <time>2022-08-24T13:34:12Z</time>
      </trkpt>
      <trkpt lat="42.97601199999971" lon="-1.399269999999999">
        <ele>811.877</ele>
        <time>2022-08-24T13:34:13Z</time>
      </trkpt>
      <trkpt lat="42.97601299999971" lon="-1.399287999999999">
        <ele>812.066</ele>
        <time>2022-08-24T13:34:14Z</time>
      </trkpt>
      <trkpt lat="42.97599799999971" lon="-1.399294999999999">
        <ele>812.282</ele>
        <time>2022-08-24T13:34:15Z</time>
      </trkpt>
      <trkpt lat="42.97599799999971" lon="-1.399306999999999">
        <ele>812.443</ele>
        <time>2022-08-24T13:34:16Z</time>
      </trkpt>
      <trkpt lat="42.97599599999971" lon="-1.399333999999999">
        <ele>812.617</ele>
        <time>2022-08-24T13:34:17Z</time>
      </trkpt>
      <trkpt lat="42.97598999999971" lon="-1.399360999999999">
        <ele>812.609</ele>
        <time>2022-08-24T13:34:18Z</time>
      </trkpt>
      <trkpt lat="42.97598999999971" lon="-1.399381999999999">
        <ele>812.829</ele>
        <time>2022-08-24T13:34:19Z</time>
      </trkpt>
      <trkpt lat="42.97598399999971" lon="-1.399393999999999">
        <ele>812.859</ele>
        <time>2022-08-24T13:34:20Z</time>
      </trkpt>
      <trkpt lat="42.97597599999971" lon="-1.3993999999999989">
        <ele>813.069</ele>
        <time>2022-08-24T13:34:21Z</time>
      </trkpt>
      <trkpt lat="42.975968999999715" lon="-1.399409999999999">
        <ele>813.265</ele>
        <time>2022-08-24T13:34:22Z</time>
      </trkpt>
      <trkpt lat="42.975965999999715" lon="-1.399422999999999">
        <ele>813.487</ele>
        <time>2022-08-24T13:34:23Z</time>
      </trkpt>
      <trkpt lat="42.97595899999972" lon="-1.3994349999999989">
        <ele>813.654</ele>
        <time>2022-08-24T13:34:24Z</time>
      </trkpt>
      <trkpt lat="42.97595099999972" lon="-1.3994429999999989">
        <ele>813.617</ele>
        <time>2022-08-24T13:34:25Z</time>
      </trkpt>
      <trkpt lat="42.97593899999972" lon="-1.399450999999999">
        <ele>813.891</ele>
        <time>2022-08-24T13:34:26Z</time>
      </trkpt>
      <trkpt lat="42.97592699999972" lon="-1.3994569999999988">
        <ele>813.860</ele>
        <time>2022-08-24T13:34:27Z</time>
      </trkpt>
      <trkpt lat="42.97591599999972" lon="-1.399458999999999">
        <ele>814.073</ele>
        <time>2022-08-24T13:34:28Z</time>
      </trkpt>
      <trkpt lat="42.97590299999972" lon="-1.3994679999999988">
        <ele>814.085</ele>
        <time>2022-08-24T13:34:29Z</time>
      </trkpt>
      <trkpt lat="42.97588599999972" lon="-1.399482999999999">
        <ele>814.213</ele>
        <time>2022-08-24T13:34:30Z</time>
      </trkpt>
      <trkpt lat="42.975869999999716" lon="-1.399497999999999">
        <ele>814.209</ele>
        <time>2022-08-24T13:34:31Z</time>
      </trkpt>
      <trkpt lat="42.975847999999715" lon="-1.399513999999999">
        <ele>814.458</ele>
        <time>2022-08-24T13:34:32Z</time>
      </trkpt>
      <trkpt lat="42.975824999999716" lon="-1.399531999999999">
        <ele>814.448</ele>
        <time>2022-08-24T13:34:33Z</time>
      </trkpt>
      <trkpt lat="42.97580199999972" lon="-1.399548999999999">
        <ele>814.638</ele>
        <time>2022-08-24T13:34:34Z</time>
      </trkpt>
      <trkpt lat="42.97578199999972" lon="-1.399562999999999">
        <ele>814.644</ele>
        <time>2022-08-24T13:34:35Z</time>
      </trkpt>
      <trkpt lat="42.975762999999716" lon="-1.399579999999999">
        <ele>814.676</ele>
        <time>2022-08-24T13:34:36Z</time>
      </trkpt>
      <trkpt lat="42.975748999999716" lon="-1.399598999999999">
        <ele>814.683</ele>
        <time>2022-08-24T13:34:37Z</time>
      </trkpt>
      <trkpt lat="42.975732999999714" lon="-1.3996159999999989">
        <ele>814.686</ele>
        <time>2022-08-24T13:34:38Z</time>
      </trkpt>
      <trkpt lat="42.97571699999971" lon="-1.3996359999999988">
        <ele>814.820</ele>
        <time>2022-08-24T13:34:39Z</time>
      </trkpt>
      <trkpt lat="42.975698999999715" lon="-1.3996569999999988">
        <ele>814.879</ele>
        <time>2022-08-24T13:34:40Z</time>
      </trkpt>
      <trkpt lat="42.975684999999714" lon="-1.3996809999999988">
        <ele>814.838</ele>
        <time>2022-08-24T13:34:41Z</time>
      </trkpt>
      <trkpt lat="42.97566399999972" lon="-1.3997049999999989">
        <ele>815.070</ele>
        <time>2022-08-24T13:34:42Z</time>
      </trkpt>
      <trkpt lat="42.97565499999972" lon="-1.399722999999999">
        <ele>815.017</ele>
        <time>2022-08-24T13:34:43Z</time>
      </trkpt>
      <trkpt lat="42.97563899999972" lon="-1.399743999999999">
        <ele>815.009</ele>
        <time>2022-08-24T13:34:44Z</time>
      </trkpt>
      <trkpt lat="42.975625999999714" lon="-1.399764999999999">
        <ele>815.284</ele>
        <time>2022-08-24T13:34:45Z</time>
      </trkpt>
      <trkpt lat="42.97561099999972" lon="-1.399784999999999">
        <ele>815.654</ele>
        <time>2022-08-24T13:34:46Z</time>
      </trkpt>
      <trkpt lat="42.97559899999972" lon="-1.3998019999999989">
        <ele>815.664</ele>
        <time>2022-08-24T13:34:47Z</time>
      </trkpt>
      <trkpt lat="42.97554999999972" lon="-1.399881999999999">
        <ele>816.260</ele>
        <time>2022-08-24T13:34:51Z</time>
      </trkpt>
      <trkpt lat="42.97553999999972" lon="-1.399900999999999">
        <ele>816.232</ele>
        <time>2022-08-24T13:34:52Z</time>
      </trkpt>
      <trkpt lat="42.97551999999972" lon="-1.3999319999999988">
        <ele>816.289</ele>
        <time>2022-08-24T13:34:54Z</time>
      </trkpt>
      <trkpt lat="42.97547399999972" lon="-1.4000029999999988">
        <ele>816.842</ele>
        <time>2022-08-24T13:34:58Z</time>
      </trkpt>
      <trkpt lat="42.97546199999972" lon="-1.4000179999999989">
        <ele>817.066</ele>
        <time>2022-08-24T13:34:59Z</time>
      </trkpt>
      <trkpt lat="42.97543099999972" lon="-1.400046999999999">
        <ele>817.255</ele>
        <time>2022-08-24T13:35:01Z</time>
      </trkpt>
      <trkpt lat="42.975421999999725" lon="-1.400060999999999">
        <ele>817.476</ele>
        <time>2022-08-24T13:35:02Z</time>
      </trkpt>
      <trkpt lat="42.97540699999973" lon="-1.4000729999999988">
        <ele>817.490</ele>
        <time>2022-08-24T13:35:03Z</time>
      </trkpt>
      <trkpt lat="42.97538999999973" lon="-1.4000839999999988">
        <ele>817.819</ele>
        <time>2022-08-24T13:35:04Z</time>
      </trkpt>
      <trkpt lat="42.975376999999725" lon="-1.4000959999999987">
        <ele>817.809</ele>
        <time>2022-08-24T13:35:05Z</time>
      </trkpt>
      <trkpt lat="42.97536099999972" lon="-1.4001069999999987">
        <ele>817.838</ele>
        <time>2022-08-24T13:35:06Z</time>
      </trkpt>
      <trkpt lat="42.97534799999972" lon="-1.4001209999999986">
        <ele>818.258</ele>
        <time>2022-08-24T13:35:07Z</time>
      </trkpt>
      <trkpt lat="42.97533499999972" lon="-1.4001389999999987">
        <ele>818.288</ele>
        <time>2022-08-24T13:35:08Z</time>
      </trkpt>
      <trkpt lat="42.975329999999715" lon="-1.4001599999999987">
        <ele>818.274</ele>
        <time>2022-08-24T13:35:09Z</time>
      </trkpt>
      <trkpt lat="42.975315999999715" lon="-1.4001789999999987">
        <ele>818.226</ele>
        <time>2022-08-24T13:35:10Z</time>
      </trkpt>
      <trkpt lat="42.97530099999972" lon="-1.4001959999999987">
        <ele>818.433</ele>
        <time>2022-08-24T13:35:11Z</time>
      </trkpt>
      <trkpt lat="42.97527799999972" lon="-1.4002179999999986">
        <ele>818.486</ele>
        <time>2022-08-24T13:35:12Z</time>
      </trkpt>
      <trkpt lat="42.97525799999972" lon="-1.4002429999999986">
        <ele>818.630</ele>
        <time>2022-08-24T13:35:13Z</time>
      </trkpt>
      <trkpt lat="42.97523599999972" lon="-1.4002739999999985">
        <ele>818.639</ele>
        <time>2022-08-24T13:35:14Z</time>
      </trkpt>
      <trkpt lat="42.97521599999972" lon="-1.4003049999999984">
        <ele>818.673</ele>
        <time>2022-08-24T13:35:15Z</time>
      </trkpt>
      <trkpt lat="42.97519599999972" lon="-1.4003359999999982">
        <ele>818.685</ele>
        <time>2022-08-24T13:35:16Z</time>
      </trkpt>
      <trkpt lat="42.97517599999972" lon="-1.4003639999999982">
        <ele>818.813</ele>
        <time>2022-08-24T13:35:17Z</time>
      </trkpt>
      <trkpt lat="42.97515399999972" lon="-1.400394999999998">
        <ele>819.009</ele>
        <time>2022-08-24T13:35:18Z</time>
      </trkpt>
      <trkpt lat="42.97513399999972" lon="-1.400424999999998">
        <ele>819.058</ele>
        <time>2022-08-24T13:35:19Z</time>
      </trkpt>
      <trkpt lat="42.97510599999972" lon="-1.400454999999998">
        <ele>819.058</ele>
        <time>2022-08-24T13:35:20Z</time>
      </trkpt>
      <trkpt lat="42.97507799999972" lon="-1.400480999999998">
        <ele>819.278</ele>
        <time>2022-08-24T13:35:21Z</time>
      </trkpt>
      <trkpt lat="42.97505299999972" lon="-1.4005069999999982">
        <ele>819.274</ele>
        <time>2022-08-24T13:35:22Z</time>
      </trkpt>
      <trkpt lat="42.975028999999715" lon="-1.400534999999998">
        <ele>819.476</ele>
        <time>2022-08-24T13:35:23Z</time>
      </trkpt>
      <trkpt lat="42.975003999999714" lon="-1.400561999999998">
        <ele>819.413</ele>
        <time>2022-08-24T13:35:24Z</time>
      </trkpt>
      <trkpt lat="42.974885999999714" lon="-1.400699999999998">
        <ele>819.476</ele>
        <time>2022-08-24T13:35:29Z</time>
      </trkpt>
      <trkpt lat="42.974701999999716" lon="-1.400897999999998">
        <ele>819.040</ele>
        <time>2022-08-24T13:35:35Z</time>
      </trkpt>
      <trkpt lat="42.97459399999972" lon="-1.401000999999998">
        <ele>818.679</ele>
        <time>2022-08-24T13:35:38Z</time>
      </trkpt>
      <trkpt lat="42.97456099999972" lon="-1.401034999999998">
        <ele>818.483</ele>
        <time>2022-08-24T13:35:39Z</time>
      </trkpt>
      <trkpt lat="42.974527999999715" lon="-1.401067999999998">
        <ele>818.625</ele>
        <time>2022-08-24T13:35:40Z</time>
      </trkpt>
      <trkpt lat="42.97446199999972" lon="-1.4011339999999979">
        <ele>818.417</ele>
        <time>2022-08-24T13:35:42Z</time>
      </trkpt>
      <trkpt lat="42.97442499999972" lon="-1.401162999999998">
        <ele>818.209</ele>
        <time>2022-08-24T13:35:43Z</time>
      </trkpt>
      <trkpt lat="42.97421699999972" lon="-1.401380999999998">
        <ele>817.469</ele>
        <time>2022-08-24T13:35:49Z</time>
      </trkpt>
      <trkpt lat="42.974147999999715" lon="-1.401475999999998">
        <ele>817.299</ele>
        <time>2022-08-24T13:35:51Z</time>
      </trkpt>
      <trkpt lat="42.974021999999714" lon="-1.4017089999999979">
        <ele>816.899</ele>
        <time>2022-08-24T13:35:55Z</time>
      </trkpt>
      <trkpt lat="42.973970999999715" lon="-1.4018279999999979">
        <ele>816.495</ele>
        <time>2022-08-24T13:35:57Z</time>
      </trkpt>
      <trkpt lat="42.973945999999714" lon="-1.4018909999999978">
        <ele>816.287</ele>
        <time>2022-08-24T13:35:58Z</time>
      </trkpt>
      <trkpt lat="42.97387899999971" lon="-1.4020919999999977">
        <ele>815.264</ele>
        <time>2022-08-24T13:36:01Z</time>
      </trkpt>
      <trkpt lat="42.97383399999971" lon="-1.4022289999999977">
        <ele>813.637</ele>
        <time>2022-08-24T13:36:03Z</time>
      </trkpt>
      <trkpt lat="42.97380999999971" lon="-1.4023099999999977">
        <ele>812.841</ele>
        <time>2022-08-24T13:36:04Z</time>
      </trkpt>
      <trkpt lat="42.97378399999971" lon="-1.4023809999999977">
        <ele>812.430</ele>
        <time>2022-08-24T13:36:05Z</time>
      </trkpt>
      <trkpt lat="42.97367799999971" lon="-1.4025839999999976">
        <ele>811.477</ele>
        <time>2022-08-24T13:36:08Z</time>
      </trkpt>
      <trkpt lat="42.97363299999971" lon="-1.4026479999999977">
        <ele>810.661</ele>
        <time>2022-08-24T13:36:09Z</time>
      </trkpt>
      <trkpt lat="42.97359799999971" lon="-1.4026999999999976">
        <ele>810.027</ele>
        <time>2022-08-24T13:36:10Z</time>
      </trkpt>
      <trkpt lat="42.97355299999971" lon="-1.4027599999999976">
        <ele>809.209</ele>
        <time>2022-08-24T13:36:11Z</time>
      </trkpt>
      <trkpt lat="42.97350499999971" lon="-1.4028169999999975">
        <ele>809.068</ele>
        <time>2022-08-24T13:36:12Z</time>
      </trkpt>
      <trkpt lat="42.97340699999971" lon="-1.4029349999999976">
        <ele>807.678</ele>
        <time>2022-08-24T13:36:14Z</time>
      </trkpt>
      <trkpt lat="42.97336099999971" lon="-1.4029899999999975">
        <ele>806.848</ele>
        <time>2022-08-24T13:36:15Z</time>
      </trkpt>
      <trkpt lat="42.973323999999714" lon="-1.4030439999999975">
        <ele>805.624</ele>
        <time>2022-08-24T13:36:16Z</time>
      </trkpt>
      <trkpt lat="42.97327999999971" lon="-1.4031009999999975">
        <ele>805.226</ele>
        <time>2022-08-24T13:36:17Z</time>
      </trkpt>
      <trkpt lat="42.97324199999971" lon="-1.4031399999999974">
        <ele>804.473</ele>
        <time>2022-08-24T13:36:18Z</time>
      </trkpt>
      <trkpt lat="42.97320699999971" lon="-1.4031819999999975">
        <ele>803.846</ele>
        <time>2022-08-24T13:36:19Z</time>
      </trkpt>
      <trkpt lat="42.97317699999971" lon="-1.4032199999999975">
        <ele>802.880</ele>
        <time>2022-08-24T13:36:20Z</time>
      </trkpt>
      <trkpt lat="42.97313099999971" lon="-1.4032739999999975">
        <ele>802.089</ele>
        <time>2022-08-24T13:36:21Z</time>
      </trkpt>
      <trkpt lat="42.97307999999971" lon="-1.4033419999999974">
        <ele>801.846</ele>
        <time>2022-08-24T13:36:22Z</time>
      </trkpt>
      <trkpt lat="42.97300799999971" lon="-1.4034669999999974">
        <ele>800.888</ele>
        <time>2022-08-24T13:36:24Z</time>
      </trkpt>
      <trkpt lat="42.972980999999706" lon="-1.4035099999999974">
        <ele>800.416</ele>
        <time>2022-08-24T13:36:25Z</time>
      </trkpt>
      <trkpt lat="42.972910999999705" lon="-1.4036279999999974">
        <ele>799.209</ele>
        <time>2022-08-24T13:36:27Z</time>
      </trkpt>
      <trkpt lat="42.97288999999971" lon="-1.4036719999999974">
        <ele>798.655</ele>
        <time>2022-08-24T13:36:28Z</time>
      </trkpt>
      <trkpt lat="42.97286099999971" lon="-1.4037249999999974">
        <ele>798.475</ele>
        <time>2022-08-24T13:36:29Z</time>
      </trkpt>
      <trkpt lat="42.97282999999971" lon="-1.4037809999999975">
        <ele>797.435</ele>
        <time>2022-08-24T13:36:30Z</time>
      </trkpt>
      <trkpt lat="42.97279299999971" lon="-1.4038389999999974">
        <ele>796.881</ele>
        <time>2022-08-24T13:36:31Z</time>
      </trkpt>
      <trkpt lat="42.97273099999971" lon="-1.4039009999999974">
        <ele>795.823</ele>
        <time>2022-08-24T13:36:32Z</time>
      </trkpt>
      <trkpt lat="42.97266699999971" lon="-1.4039429999999975">
        <ele>794.810</ele>
        <time>2022-08-24T13:36:33Z</time>
      </trkpt>
      <trkpt lat="42.97260299999971" lon="-1.4039759999999974">
        <ele>793.683</ele>
        <time>2022-08-24T13:36:34Z</time>
      </trkpt>
      <trkpt lat="42.97255099999971" lon="-1.4039959999999974">
        <ele>792.867</ele>
        <time>2022-08-24T13:36:35Z</time>
      </trkpt>
      <trkpt lat="42.97248599999971" lon="-1.4040189999999975">
        <ele>792.456</ele>
        <time>2022-08-24T13:36:36Z</time>
      </trkpt>
      <trkpt lat="42.97241099999971" lon="-1.4040409999999974">
        <ele>791.428</ele>
        <time>2022-08-24T13:36:37Z</time>
      </trkpt>
      <trkpt lat="42.97235099999971" lon="-1.4040579999999974">
        <ele>790.689</ele>
        <time>2022-08-24T13:36:38Z</time>
      </trkpt>
      <trkpt lat="42.97230399999971" lon="-1.4040669999999973">
        <ele>789.617</ele>
        <time>2022-08-24T13:36:39Z</time>
      </trkpt>
      <trkpt lat="42.97224799999971" lon="-1.4040749999999973">
        <ele>788.209</ele>
        <time>2022-08-24T13:36:40Z</time>
      </trkpt>
      <trkpt lat="42.97219699999971" lon="-1.4040769999999974">
        <ele>787.423</ele>
        <time>2022-08-24T13:36:41Z</time>
      </trkpt>
      <trkpt lat="42.97215399999971" lon="-1.4040759999999974">
        <ele>786.423</ele>
        <time>2022-08-24T13:36:42Z</time>
      </trkpt>
      <trkpt lat="42.97211699999971" lon="-1.4040719999999975">
        <ele>786.043</ele>
        <time>2022-08-24T13:36:43Z</time>
      </trkpt>
      <trkpt lat="42.97208599999971" lon="-1.4040679999999977">
        <ele>785.449</ele>
        <time>2022-08-24T13:36:44Z</time>
      </trkpt>
      <trkpt lat="42.972050999999716" lon="-1.4040699999999977">
        <ele>785.271</ele>
        <time>2022-08-24T13:36:45Z</time>
      </trkpt>
      <trkpt lat="42.971977999999716" lon="-1.4040909999999978">
        <ele>784.028</ele>
        <time>2022-08-24T13:36:47Z</time>
      </trkpt>
      <trkpt lat="42.971958999999714" lon="-1.4041099999999977">
        <ele>783.411</ele>
        <time>2022-08-24T13:36:48Z</time>
      </trkpt>
      <trkpt lat="42.971943999999716" lon="-1.4041259999999978">
        <ele>782.685</ele>
        <time>2022-08-24T13:36:49Z</time>
      </trkpt>
      <trkpt lat="42.971932999999716" lon="-1.4041469999999978">
        <ele>782.024</ele>
        <time>2022-08-24T13:36:50Z</time>
      </trkpt>
      <trkpt lat="42.97190699999972" lon="-1.4041949999999979">
        <ele>781.228</ele>
        <time>2022-08-24T13:36:51Z</time>
      </trkpt>
      <trkpt lat="42.97189999999972" lon="-1.404247999999998">
        <ele>780.889</ele>
        <time>2022-08-24T13:36:52Z</time>
      </trkpt>
      <trkpt lat="42.97189499999972" lon="-1.4042919999999979">
        <ele>780.417</ele>
        <time>2022-08-24T13:36:53Z</time>
      </trkpt>
      <trkpt lat="42.971870999999716" lon="-1.404341999999998">
        <ele>780.009</ele>
        <time>2022-08-24T13:36:54Z</time>
      </trkpt>
      <trkpt lat="42.97185899999972" lon="-1.404396999999998">
        <ele>779.453</ele>
        <time>2022-08-24T13:36:55Z</time>
      </trkpt>
      <trkpt lat="42.97183799999972" lon="-1.4044699999999979">
        <ele>778.663</ele>
        <time>2022-08-24T13:36:56Z</time>
      </trkpt>
      <trkpt lat="42.971836999999724" lon="-1.404595999999998">
        <ele>777.653</ele>
        <time>2022-08-24T13:36:58Z</time>
      </trkpt>
      <trkpt lat="42.97182299999972" lon="-1.404665999999998">
        <ele>776.489</ele>
        <time>2022-08-24T13:36:59Z</time>
      </trkpt>
      <trkpt lat="42.971818999999726" lon="-1.4047239999999979">
        <ele>776.041</ele>
        <time>2022-08-24T13:37:00Z</time>
      </trkpt>
      <trkpt lat="42.97180399999973" lon="-1.404771999999998">
        <ele>774.848</ele>
        <time>2022-08-24T13:37:01Z</time>
      </trkpt>
      <trkpt lat="42.97181699999973" lon="-1.4048289999999979">
        <ele>774.481</ele>
        <time>2022-08-24T13:37:02Z</time>
      </trkpt>
      <trkpt lat="42.97182199999973" lon="-1.404879999999998">
        <ele>773.265</ele>
        <time>2022-08-24T13:37:03Z</time>
      </trkpt>
      <trkpt lat="42.97180899999973" lon="-1.4049289999999979">
        <ele>772.834</ele>
        <time>2022-08-24T13:37:04Z</time>
      </trkpt>
      <trkpt lat="42.97178999999973" lon="-1.404979999999998">
        <ele>771.434</ele>
        <time>2022-08-24T13:37:05Z</time>
      </trkpt>
      <trkpt lat="42.971762999999726" lon="-1.405019999999998">
        <ele>770.455</ele>
        <time>2022-08-24T13:37:06Z</time>
      </trkpt>
      <trkpt lat="42.971683999999726" lon="-1.405075999999998">
        <ele>769.010</ele>
        <time>2022-08-24T13:37:08Z</time>
      </trkpt>
      <trkpt lat="42.97163599999973" lon="-1.405090999999998">
        <ele>768.609</ele>
        <time>2022-08-24T13:37:09Z</time>
      </trkpt>
      <trkpt lat="42.97157599999973" lon="-1.4051009999999982">
        <ele>767.644</ele>
        <time>2022-08-24T13:37:10Z</time>
      </trkpt>
      <trkpt lat="42.97153399999973" lon="-1.405104999999998">
        <ele>767.494</ele>
        <time>2022-08-24T13:37:11Z</time>
      </trkpt>
      <trkpt lat="42.97147399999973" lon="-1.405109999999998">
        <ele>767.094</ele>
        <time>2022-08-24T13:37:12Z</time>
      </trkpt>
      <trkpt lat="42.97143599999973" lon="-1.4051169999999982">
        <ele>766.620</ele>
        <time>2022-08-24T13:37:13Z</time>
      </trkpt>
      <trkpt lat="42.971391999999724" lon="-1.4051249999999982">
        <ele>766.492</ele>
        <time>2022-08-24T13:37:14Z</time>
      </trkpt>
      <trkpt lat="42.971343999999725" lon="-1.4051419999999981">
        <ele>765.849</ele>
        <time>2022-08-24T13:37:15Z</time>
      </trkpt>
      <trkpt lat="42.97130599999972" lon="-1.405169999999998">
        <ele>765.462</ele>
        <time>2022-08-24T13:37:16Z</time>
      </trkpt>
      <trkpt lat="42.97127699999972" lon="-1.405205999999998">
        <ele>764.686</ele>
        <time>2022-08-24T13:37:17Z</time>
      </trkpt>
      <trkpt lat="42.971250999999725" lon="-1.4052369999999978">
        <ele>764.025</ele>
        <time>2022-08-24T13:37:18Z</time>
      </trkpt>
      <trkpt lat="42.97122699999972" lon="-1.4052749999999978">
        <ele>763.884</ele>
        <time>2022-08-24T13:37:19Z</time>
      </trkpt>
      <trkpt lat="42.97120099999972" lon="-1.4053179999999978">
        <ele>763.407</ele>
        <time>2022-08-24T13:37:20Z</time>
      </trkpt>
      <trkpt lat="42.971183999999724" lon="-1.4053499999999979">
        <ele>763.217</ele>
        <time>2022-08-24T13:37:21Z</time>
      </trkpt>
      <trkpt lat="42.971160999999725" lon="-1.4053909999999978">
        <ele>762.009</ele>
        <time>2022-08-24T13:37:22Z</time>
      </trkpt>
      <trkpt lat="42.97113199999973" lon="-1.405440999999998">
        <ele>761.439</ele>
        <time>2022-08-24T13:37:23Z</time>
      </trkpt>
      <trkpt lat="42.971109999999726" lon="-1.405473999999998">
        <ele>760.839</ele>
        <time>2022-08-24T13:37:24Z</time>
      </trkpt>
      <trkpt lat="42.97108299999972" lon="-1.4055149999999978">
        <ele>760.229</ele>
        <time>2022-08-24T13:37:25Z</time>
      </trkpt>
      <trkpt lat="42.97104399999972" lon="-1.405564999999998">
        <ele>759.635</ele>
        <time>2022-08-24T13:37:26Z</time>
      </trkpt>
      <trkpt lat="42.97097899999972" lon="-1.405634999999998">
        <ele>758.277</ele>
        <time>2022-08-24T13:37:28Z</time>
      </trkpt>
      <trkpt lat="42.97095099999972" lon="-1.405670999999998">
        <ele>757.214</ele>
        <time>2022-08-24T13:37:29Z</time>
      </trkpt>
      <trkpt lat="42.970915999999725" lon="-1.405707999999998">
        <ele>757.027</ele>
        <time>2022-08-24T13:37:30Z</time>
      </trkpt>
      <trkpt lat="42.97088899999972" lon="-1.405742999999998">
        <ele>756.231</ele>
        <time>2022-08-24T13:37:31Z</time>
      </trkpt>
      <trkpt lat="42.97086199999972" lon="-1.405780999999998">
        <ele>755.870</ele>
        <time>2022-08-24T13:37:32Z</time>
      </trkpt>
      <trkpt lat="42.97084499999972" lon="-1.405812999999998">
        <ele>755.644</ele>
        <time>2022-08-24T13:37:33Z</time>
      </trkpt>
      <trkpt lat="42.97083299999972" lon="-1.4058519999999979">
        <ele>755.005</ele>
        <time>2022-08-24T13:37:34Z</time>
      </trkpt>
      <trkpt lat="42.970825999999725" lon="-1.405885999999998">
        <ele>754.615</ele>
        <time>2022-08-24T13:37:35Z</time>
      </trkpt>
      <trkpt lat="42.97082199999973" lon="-1.4059139999999979">
        <ele>753.609</ele>
        <time>2022-08-24T13:37:36Z</time>
      </trkpt>
      <trkpt lat="42.97082699999973" lon="-1.4059409999999979">
        <ele>752.625</ele>
        <time>2022-08-24T13:37:37Z</time>
      </trkpt>
      <trkpt lat="42.97083699999973" lon="-1.4059629999999979">
        <ele>752.225</ele>
        <time>2022-08-24T13:37:38Z</time>
      </trkpt>
      <trkpt lat="42.97085199999973" lon="-1.4059989999999978">
        <ele>751.435</ele>
        <time>2022-08-24T13:37:39Z</time>
      </trkpt>
      <trkpt lat="42.97086299999973" lon="-1.4060389999999978">
        <ele>751.041</ele>
        <time>2022-08-24T13:37:40Z</time>
      </trkpt>
      <trkpt lat="42.97087399999973" lon="-1.4060859999999977">
        <ele>750.433</ele>
        <time>2022-08-24T13:37:41Z</time>
      </trkpt>
      <trkpt lat="42.97088299999973" lon="-1.4061219999999977">
        <ele>750.490</ele>
        <time>2022-08-24T13:37:42Z</time>
      </trkpt>
      <trkpt lat="42.97088499999973" lon="-1.4061539999999977">
        <ele>750.033</ele>
        <time>2022-08-24T13:37:43Z</time>
      </trkpt>
      <trkpt lat="42.97089199999973" lon="-1.4061909999999977">
        <ele>749.617</ele>
        <time>2022-08-24T13:37:44Z</time>
      </trkpt>
      <trkpt lat="42.97089699999973" lon="-1.4062229999999978">
        <ele>749.486</ele>
        <time>2022-08-24T13:37:45Z</time>
      </trkpt>
      <trkpt lat="42.97089699999973" lon="-1.4062599999999978">
        <ele>748.851</ele>
        <time>2022-08-24T13:37:46Z</time>
      </trkpt>
      <trkpt lat="42.97089599999973" lon="-1.4063149999999978">
        <ele>748.001</ele>
        <time>2022-08-24T13:37:48Z</time>
      </trkpt>
      <trkpt lat="42.97089599999973" lon="-1.4063399999999977">
        <ele>748.011</ele>
        <time>2022-08-24T13:37:49Z</time>
      </trkpt>
      <trkpt lat="42.97090199999973" lon="-1.4063629999999978">
        <ele>747.409</ele>
        <time>2022-08-24T13:37:50Z</time>
      </trkpt>
      <trkpt lat="42.970914999999735" lon="-1.4063929999999978">
        <ele>746.816</ele>
        <time>2022-08-24T13:37:51Z</time>
      </trkpt>
      <trkpt lat="42.97092999999973" lon="-1.4064149999999978">
        <ele>746.896</ele>
        <time>2022-08-24T13:37:52Z</time>
      </trkpt>
      <trkpt lat="42.970939999999736" lon="-1.4064349999999977">
        <ele>746.496</ele>
        <time>2022-08-24T13:37:53Z</time>
      </trkpt>
      <trkpt lat="42.97094699999973" lon="-1.4064559999999977">
        <ele>746.432</ele>
        <time>2022-08-24T13:37:54Z</time>
      </trkpt>
      <trkpt lat="42.97095099999973" lon="-1.4064649999999976">
        <ele>746.444</ele>
        <time>2022-08-24T13:37:55Z</time>
      </trkpt>
      <trkpt lat="42.97095199999973" lon="-1.4065299999999976">
        <ele>747.411</ele>
        <time>2022-08-24T13:38:06Z</time>
      </trkpt>
      <trkpt lat="42.970955999999724" lon="-1.4065549999999976">
        <ele>747.484</ele>
        <time>2022-08-24T13:38:08Z</time>
      </trkpt>
      <trkpt lat="42.970957999999726" lon="-1.4066249999999976">
        <ele>748.268</ele>
        <time>2022-08-24T13:38:12Z</time>
      </trkpt>
      <trkpt lat="42.97095399999973" lon="-1.4066849999999975">
        <ele>748.687</ele>
        <time>2022-08-24T13:38:15Z</time>
      </trkpt>
      <trkpt lat="42.97094899999973" lon="-1.4067059999999976">
        <ele>748.847</ele>
        <time>2022-08-24T13:38:18Z</time>
      </trkpt>
      <trkpt lat="42.97094899999973" lon="-1.4067059999999976">
        <ele>748.829</ele>
        <time>2022-08-24T13:38:19Z</time>
      </trkpt>
      <trkpt lat="42.97094899999973" lon="-1.4067059999999976">
        <ele>749.021</ele>
        <time>2022-08-24T13:38:31Z</time>
      </trkpt>
      <trkpt lat="42.97094899999973" lon="-1.4067099999999975">
        <ele>749.009</ele>
        <time>2022-08-24T13:38:32Z</time>
      </trkpt>
      <trkpt lat="42.970988999999726" lon="-1.4068849999999975">
        <ele>749.075</ele>
        <time>2022-08-24T13:38:38Z</time>
      </trkpt>
      <trkpt lat="42.97100999999972" lon="-1.4069319999999974">
        <ele>749.065</ele>
        <time>2022-08-24T13:38:40Z</time>
      </trkpt>
      <trkpt lat="42.97105499999972" lon="-1.4070439999999973">
        <ele>749.075</ele>
        <time>2022-08-24T13:38:44Z</time>
      </trkpt>
      <trkpt lat="42.971062999999724" lon="-1.4070619999999974">
        <ele>749.031</ele>
        <time>2022-08-24T13:38:45Z</time>
      </trkpt>
      <trkpt lat="42.971067999999725" lon="-1.4070759999999973">
        <ele>749.033</ele>
        <time>2022-08-24T13:38:46Z</time>
      </trkpt>
      <trkpt lat="42.971078999999726" lon="-1.4070939999999974">
        <ele>749.070</ele>
        <time>2022-08-24T13:38:47Z</time>
      </trkpt>
      <trkpt lat="42.97113099999972" lon="-1.4071569999999973">
        <ele>749.263</ele>
        <time>2022-08-24T13:38:51Z</time>
      </trkpt>
      <trkpt lat="42.971149999999724" lon="-1.4071809999999974">
        <ele>749.467</ele>
        <time>2022-08-24T13:38:52Z</time>
      </trkpt>
      <trkpt lat="42.97117699999973" lon="-1.4072309999999975">
        <ele>749.466</ele>
        <time>2022-08-24T13:38:54Z</time>
      </trkpt>
      <trkpt lat="42.971183999999724" lon="-1.4072479999999974">
        <ele>749.452</ele>
        <time>2022-08-24T13:38:55Z</time>
      </trkpt>
      <trkpt lat="42.97119399999973" lon="-1.4072699999999974">
        <ele>749.453</ele>
        <time>2022-08-24T13:38:56Z</time>
      </trkpt>
      <trkpt lat="42.97120199999973" lon="-1.4072919999999973">
        <ele>749.408</ele>
        <time>2022-08-24T13:38:57Z</time>
      </trkpt>
      <trkpt lat="42.97121499999973" lon="-1.4073379999999973">
        <ele>749.609</ele>
        <time>2022-08-24T13:38:59Z</time>
      </trkpt>
      <trkpt lat="42.97122299999973" lon="-1.4073629999999973">
        <ele>749.696</ele>
        <time>2022-08-24T13:39:00Z</time>
      </trkpt>
      <trkpt lat="42.97125699999973" lon="-1.4074619999999973">
        <ele>750.066</ele>
        <time>2022-08-24T13:39:04Z</time>
      </trkpt>
      <trkpt lat="42.97126599999973" lon="-1.4074769999999974">
        <ele>750.266</ele>
        <time>2022-08-24T13:39:05Z</time>
      </trkpt>
      <trkpt lat="42.97129099999973" lon="-1.4075319999999973">
        <ele>750.462</ele>
        <time>2022-08-24T13:39:07Z</time>
      </trkpt>
      <trkpt lat="42.97132799999973" lon="-1.4076129999999973">
        <ele>750.624</ele>
        <time>2022-08-24T13:39:11Z</time>
      </trkpt>
      <trkpt lat="42.97133699999973" lon="-1.4076359999999974">
        <ele>750.641</ele>
        <time>2022-08-24T13:39:12Z</time>
      </trkpt>
      <trkpt lat="42.97134199999973" lon="-1.4076599999999975">
        <ele>750.834</ele>
        <time>2022-08-24T13:39:13Z</time>
      </trkpt>
      <trkpt lat="42.97134599999973" lon="-1.4076829999999976">
        <ele>750.848</ele>
        <time>2022-08-24T13:39:14Z</time>
      </trkpt>
      <trkpt lat="42.97134499999973" lon="-1.4077019999999976">
        <ele>751.087</ele>
        <time>2022-08-24T13:39:15Z</time>
      </trkpt>
      <trkpt lat="42.97134799999973" lon="-1.4077239999999975">
        <ele>751.274</ele>
        <time>2022-08-24T13:39:16Z</time>
      </trkpt>
      <trkpt lat="42.971351999999726" lon="-1.4077489999999975">
        <ele>751.456</ele>
        <time>2022-08-24T13:39:17Z</time>
      </trkpt>
      <trkpt lat="42.97135099999973" lon="-1.4077749999999976">
        <ele>751.421</ele>
        <time>2022-08-24T13:39:18Z</time>
      </trkpt>
      <trkpt lat="42.971337999999726" lon="-1.4079079999999975">
        <ele>752.009</ele>
        <time>2022-08-24T13:39:24Z</time>
      </trkpt>
      <trkpt lat="42.97133399999973" lon="-1.4079249999999974">
        <ele>752.228</ele>
        <time>2022-08-24T13:39:25Z</time>
      </trkpt>
      <trkpt lat="42.97132799999973" lon="-1.4079449999999973">
        <ele>752.478</ele>
        <time>2022-08-24T13:39:26Z</time>
      </trkpt>
      <trkpt lat="42.97130199999973" lon="-1.4080129999999973">
        <ele>752.618</ele>
        <time>2022-08-24T13:39:29Z</time>
      </trkpt>
      <trkpt lat="42.97129399999973" lon="-1.4080399999999973">
        <ele>752.874</ele>
        <time>2022-08-24T13:39:30Z</time>
      </trkpt>
      <trkpt lat="42.97126599999973" lon="-1.4081329999999972">
        <ele>753.276</ele>
        <time>2022-08-24T13:39:34Z</time>
      </trkpt>
      <trkpt lat="42.97126099999973" lon="-1.4081499999999971">
        <ele>753.473</ele>
        <time>2022-08-24T13:39:35Z</time>
      </trkpt>
      <trkpt lat="42.97124999999973" lon="-1.408174999999997">
        <ele>753.466</ele>
        <time>2022-08-24T13:39:36Z</time>
      </trkpt>
      <trkpt lat="42.97123199999973" lon="-1.4082229999999971">
        <ele>753.670</ele>
        <time>2022-08-24T13:39:38Z</time>
      </trkpt>
      <trkpt lat="42.97121399999973" lon="-1.408266999999997">
        <ele>753.849</ele>
        <time>2022-08-24T13:39:40Z</time>
      </trkpt>
      <trkpt lat="42.97120399999973" lon="-1.408286999999997">
        <ele>753.889</ele>
        <time>2022-08-24T13:39:41Z</time>
      </trkpt>
      <trkpt lat="42.97119599999973" lon="-1.408305999999997">
        <ele>753.806</ele>
        <time>2022-08-24T13:39:42Z</time>
      </trkpt>
      <trkpt lat="42.971168999999726" lon="-1.408392999999997">
        <ele>754.626</ele>
        <time>2022-08-24T13:39:46Z</time>
      </trkpt>
      <trkpt lat="42.97116599999973" lon="-1.408415999999997">
        <ele>754.809</ele>
        <time>2022-08-24T13:39:47Z</time>
      </trkpt>
      <trkpt lat="42.971160999999725" lon="-1.408431999999997">
        <ele>754.879</ele>
        <time>2022-08-24T13:39:48Z</time>
      </trkpt>
      <trkpt lat="42.97115399999973" lon="-1.408458999999997">
        <ele>755.039</ele>
        <time>2022-08-24T13:39:49Z</time>
      </trkpt>
      <trkpt lat="42.97114799999973" lon="-1.4084819999999971">
        <ele>755.049</ele>
        <time>2022-08-24T13:39:50Z</time>
      </trkpt>
      <trkpt lat="42.97114099999973" lon="-1.4085049999999972">
        <ele>755.225</ele>
        <time>2022-08-24T13:39:51Z</time>
      </trkpt>
      <trkpt lat="42.97113799999973" lon="-1.4085249999999971">
        <ele>755.277</ele>
        <time>2022-08-24T13:39:52Z</time>
      </trkpt>
      <trkpt lat="42.971133999999736" lon="-1.4085489999999972">
        <ele>755.224</ele>
        <time>2022-08-24T13:39:53Z</time>
      </trkpt>
      <trkpt lat="42.971128999999735" lon="-1.4085779999999972">
        <ele>755.237</ele>
        <time>2022-08-24T13:39:54Z</time>
      </trkpt>
      <trkpt lat="42.97112499999974" lon="-1.4086009999999973">
        <ele>755.231</ele>
        <time>2022-08-24T13:39:55Z</time>
      </trkpt>
      <trkpt lat="42.97112199999974" lon="-1.4086279999999973">
        <ele>755.460</ele>
        <time>2022-08-24T13:39:56Z</time>
      </trkpt>
      <trkpt lat="42.97111899999974" lon="-1.4086489999999974">
        <ele>755.455</ele>
        <time>2022-08-24T13:39:57Z</time>
      </trkpt>
      <trkpt lat="42.971108999999736" lon="-1.4086769999999973">
        <ele>755.407</ele>
        <time>2022-08-24T13:39:58Z</time>
      </trkpt>
      <trkpt lat="42.971097999999735" lon="-1.4087019999999972">
        <ele>755.617</ele>
        <time>2022-08-24T13:39:59Z</time>
      </trkpt>
      <trkpt lat="42.971089999999734" lon="-1.4087269999999972">
        <ele>755.609</ele>
        <time>2022-08-24T13:40:00Z</time>
      </trkpt>
      <trkpt lat="42.97108199999973" lon="-1.4087519999999971">
        <ele>755.886</ele>
        <time>2022-08-24T13:40:01Z</time>
      </trkpt>
      <trkpt lat="42.971077999999736" lon="-1.4087809999999972">
        <ele>756.026</ele>
        <time>2022-08-24T13:40:02Z</time>
      </trkpt>
      <trkpt lat="42.97107199999974" lon="-1.4088069999999973">
        <ele>756.096</ele>
        <time>2022-08-24T13:40:03Z</time>
      </trkpt>
      <trkpt lat="42.971066999999735" lon="-1.4088319999999972">
        <ele>756.492</ele>
        <time>2022-08-24T13:40:04Z</time>
      </trkpt>
      <trkpt lat="42.97103799999974" lon="-1.4089659999999973">
        <ele>756.874</ele>
        <time>2022-08-24T13:40:09Z</time>
      </trkpt>
      <trkpt lat="42.971032999999736" lon="-1.4089949999999973">
        <ele>756.851</ele>
        <time>2022-08-24T13:40:10Z</time>
      </trkpt>
      <trkpt lat="42.97102899999974" lon="-1.4090179999999974">
        <ele>756.884</ele>
        <time>2022-08-24T13:40:11Z</time>
      </trkpt>
      <trkpt lat="42.97102199999974" lon="-1.4090469999999975">
        <ele>756.878</ele>
        <time>2022-08-24T13:40:12Z</time>
      </trkpt>
      <trkpt lat="42.97101399999974" lon="-1.4090809999999976">
        <ele>756.877</ele>
        <time>2022-08-24T13:40:13Z</time>
      </trkpt>
      <trkpt lat="42.971006999999744" lon="-1.4091109999999976">
        <ele>756.817</ele>
        <time>2022-08-24T13:40:14Z</time>
      </trkpt>
      <trkpt lat="42.97099899999974" lon="-1.4091599999999975">
        <ele>756.887</ele>
        <time>2022-08-24T13:40:16Z</time>
      </trkpt>
      <trkpt lat="42.97099099999974" lon="-1.4091899999999975">
        <ele>756.815</ele>
        <time>2022-08-24T13:40:17Z</time>
      </trkpt>
      <trkpt lat="42.970983999999746" lon="-1.4092099999999974">
        <ele>756.809</ele>
        <time>2022-08-24T13:40:18Z</time>
      </trkpt>
      <trkpt lat="42.97097699999975" lon="-1.4092369999999974">
        <ele>756.892</ele>
        <time>2022-08-24T13:40:19Z</time>
      </trkpt>
      <trkpt lat="42.97095799999975" lon="-1.4093499999999974">
        <ele>756.872</ele>
        <time>2022-08-24T13:40:23Z</time>
      </trkpt>
      <trkpt lat="42.970952999999746" lon="-1.4093689999999974">
        <ele>757.042</ele>
        <time>2022-08-24T13:40:24Z</time>
      </trkpt>
      <trkpt lat="42.970950999999744" lon="-1.4093959999999974">
        <ele>757.298</ele>
        <time>2022-08-24T13:40:25Z</time>
      </trkpt>
      <trkpt lat="42.97094699999975" lon="-1.4094249999999975">
        <ele>757.430</ele>
        <time>2022-08-24T13:40:26Z</time>
      </trkpt>
      <trkpt lat="42.97092999999975" lon="-1.4095399999999976">
        <ele>757.667</ele>
        <time>2022-08-24T13:40:30Z</time>
      </trkpt>
      <trkpt lat="42.970924999999745" lon="-1.4095679999999975">
        <ele>757.630</ele>
        <time>2022-08-24T13:40:31Z</time>
      </trkpt>
      <trkpt lat="42.97092299999974" lon="-1.4095999999999975">
        <ele>757.824</ele>
        <time>2022-08-24T13:40:32Z</time>
      </trkpt>
      <trkpt lat="42.97092099999974" lon="-1.4096269999999975">
        <ele>758.023</ele>
        <time>2022-08-24T13:40:33Z</time>
      </trkpt>
      <trkpt lat="42.97091599999974" lon="-1.4096719999999976">
        <ele>758.077</ele>
        <time>2022-08-24T13:40:35Z</time>
      </trkpt>
      <trkpt lat="42.97090999999974" lon="-1.4097029999999975">
        <ele>758.061</ele>
        <time>2022-08-24T13:40:36Z</time>
      </trkpt>
      <trkpt lat="42.97088999999974" lon="-1.4097389999999974">
        <ele>758.227</ele>
        <time>2022-08-24T13:40:38Z</time>
      </trkpt>
      <trkpt lat="42.97088399999974" lon="-1.4097539999999975">
        <ele>758.209</ele>
        <time>2022-08-24T13:40:39Z</time>
      </trkpt>
      <trkpt lat="42.970826999999744" lon="-1.4098459999999975">
        <ele>758.888</ele>
        <time>2022-08-24T13:40:44Z</time>
      </trkpt>
      <trkpt lat="42.97080599999975" lon="-1.4098819999999974">
        <ele>758.888</ele>
        <time>2022-08-24T13:40:46Z</time>
      </trkpt>
      <trkpt lat="42.970789999999745" lon="-1.4099159999999975">
        <ele>759.038</ele>
        <time>2022-08-24T13:40:48Z</time>
      </trkpt>
      <trkpt lat="42.970772999999745" lon="-1.4099549999999974">
        <ele>759.234</ele>
        <time>2022-08-24T13:40:50Z</time>
      </trkpt>
      <trkpt lat="42.97073299999975" lon="-1.4100209999999973">
        <ele>759.816</ele>
        <time>2022-08-24T13:40:53Z</time>
      </trkpt>
      <trkpt lat="42.970719999999744" lon="-1.4100409999999972">
        <ele>760.023</ele>
        <time>2022-08-24T13:40:54Z</time>
      </trkpt>
      <trkpt lat="42.97070699999974" lon="-1.4100579999999971">
        <ele>760.266</ele>
        <time>2022-08-24T13:40:55Z</time>
      </trkpt>
      <trkpt lat="42.97069099999974" lon="-1.410082999999997">
        <ele>760.260</ele>
        <time>2022-08-24T13:40:56Z</time>
      </trkpt>
      <trkpt lat="42.97068199999974" lon="-1.4101059999999972">
        <ele>760.629</ele>
        <time>2022-08-24T13:40:57Z</time>
      </trkpt>
      <trkpt lat="42.97067399999974" lon="-1.4101229999999971">
        <ele>760.652</ele>
        <time>2022-08-24T13:40:58Z</time>
      </trkpt>
      <trkpt lat="42.97066599999974" lon="-1.410144999999997">
        <ele>761.253</ele>
        <time>2022-08-24T13:40:59Z</time>
      </trkpt>
      <trkpt lat="42.97065099999974" lon="-1.4101659999999971">
        <ele>761.008</ele>
        <time>2022-08-24T13:41:00Z</time>
      </trkpt>
      <trkpt lat="42.97064499999974" lon="-1.4101839999999972">
        <ele>761.409</ele>
        <time>2022-08-24T13:41:01Z</time>
      </trkpt>
      <trkpt lat="42.97063499999974" lon="-1.4102079999999972">
        <ele>761.486</ele>
        <time>2022-08-24T13:41:02Z</time>
      </trkpt>
      <trkpt lat="42.97062399999974" lon="-1.4102249999999972">
        <ele>761.616</ele>
        <time>2022-08-24T13:41:03Z</time>
      </trkpt>
      <trkpt lat="42.970610999999735" lon="-1.4102439999999972">
        <ele>761.846</ele>
        <time>2022-08-24T13:41:04Z</time>
      </trkpt>
      <trkpt lat="42.970596999999735" lon="-1.4102679999999972">
        <ele>761.882</ele>
        <time>2022-08-24T13:41:05Z</time>
      </trkpt>
      <trkpt lat="42.97058999999974" lon="-1.4102929999999971">
        <ele>762.044</ele>
        <time>2022-08-24T13:41:06Z</time>
      </trkpt>
      <trkpt lat="42.97058499999974" lon="-1.4103139999999972">
        <ele>762.221</ele>
        <time>2022-08-24T13:41:07Z</time>
      </trkpt>
      <trkpt lat="42.970576999999736" lon="-1.410333999999997">
        <ele>762.474</ele>
        <time>2022-08-24T13:41:08Z</time>
      </trkpt>
      <trkpt lat="42.97056799999974" lon="-1.410355999999997">
        <ele>762.488</ele>
        <time>2022-08-24T13:41:09Z</time>
      </trkpt>
      <trkpt lat="42.970557999999734" lon="-1.4103789999999972">
        <ele>762.657</ele>
        <time>2022-08-24T13:41:10Z</time>
      </trkpt>
      <trkpt lat="42.97055099999974" lon="-1.4104019999999973">
        <ele>762.879</ele>
        <time>2022-08-24T13:41:11Z</time>
      </trkpt>
      <trkpt lat="42.97054999999974" lon="-1.4104279999999974">
        <ele>763.005</ele>
        <time>2022-08-24T13:41:12Z</time>
      </trkpt>
      <trkpt lat="42.97054999999974" lon="-1.4104539999999974">
        <ele>763.225</ele>
        <time>2022-08-24T13:41:13Z</time>
      </trkpt>
      <trkpt lat="42.97054599999974" lon="-1.4104819999999973">
        <ele>763.209</ele>
        <time>2022-08-24T13:41:14Z</time>
      </trkpt>
      <trkpt lat="42.97054299999974" lon="-1.4105159999999974">
        <ele>763.448</ele>
        <time>2022-08-24T13:41:15Z</time>
      </trkpt>
      <trkpt lat="42.970533999999745" lon="-1.4105539999999974">
        <ele>763.648</ele>
        <time>2022-08-24T13:41:16Z</time>
      </trkpt>
      <trkpt lat="42.97052199999975" lon="-1.4105869999999974">
        <ele>763.698</ele>
        <time>2022-08-24T13:41:17Z</time>
      </trkpt>
      <trkpt lat="42.97050799999975" lon="-1.4106169999999973">
        <ele>763.814</ele>
        <time>2022-08-24T13:41:18Z</time>
      </trkpt>
      <trkpt lat="42.970494999999744" lon="-1.4106479999999972">
        <ele>763.856</ele>
        <time>2022-08-24T13:41:19Z</time>
      </trkpt>
      <trkpt lat="42.970479999999746" lon="-1.4106769999999973">
        <ele>763.843</ele>
        <time>2022-08-24T13:41:20Z</time>
      </trkpt>
      <trkpt lat="42.970465999999746" lon="-1.4107069999999973">
        <ele>763.866</ele>
        <time>2022-08-24T13:41:21Z</time>
      </trkpt>
      <trkpt lat="42.970451999999746" lon="-1.4107379999999972">
        <ele>763.820</ele>
        <time>2022-08-24T13:41:22Z</time>
      </trkpt>
      <trkpt lat="42.970437999999746" lon="-1.410765999999997">
        <ele>763.819</ele>
        <time>2022-08-24T13:41:23Z</time>
      </trkpt>
      <trkpt lat="42.97043099999975" lon="-1.410792999999997">
        <ele>763.875</ele>
        <time>2022-08-24T13:41:24Z</time>
      </trkpt>
      <trkpt lat="42.97042399999975" lon="-1.410817999999997">
        <ele>763.828</ele>
        <time>2022-08-24T13:41:25Z</time>
      </trkpt>
      <trkpt lat="42.97041799999975" lon="-1.410844999999997">
        <ele>763.820</ele>
        <time>2022-08-24T13:41:26Z</time>
      </trkpt>
      <trkpt lat="42.97040799999975" lon="-1.410868999999997">
        <ele>763.809</ele>
        <time>2022-08-24T13:41:27Z</time>
      </trkpt>
      <trkpt lat="42.97039899999975" lon="-1.410892999999997">
        <ele>763.878</ele>
        <time>2022-08-24T13:41:28Z</time>
      </trkpt>
      <trkpt lat="42.97039299999975" lon="-1.410919999999997">
        <ele>763.858</ele>
        <time>2022-08-24T13:41:29Z</time>
      </trkpt>
      <trkpt lat="42.97038799999975" lon="-1.410947999999997">
        <ele>764.058</ele>
        <time>2022-08-24T13:41:30Z</time>
      </trkpt>
      <trkpt lat="42.97038199999975" lon="-1.410973999999997">
        <ele>764.294</ele>
        <time>2022-08-24T13:41:31Z</time>
      </trkpt>
      <trkpt lat="42.970377999999755" lon="-1.410997999999997">
        <ele>764.446</ele>
        <time>2022-08-24T13:41:32Z</time>
      </trkpt>
      <trkpt lat="42.97037299999975" lon="-1.411022999999997">
        <ele>764.413</ele>
        <time>2022-08-24T13:41:33Z</time>
      </trkpt>
      <trkpt lat="42.97036899999976" lon="-1.411047999999997">
        <ele>764.666</ele>
        <time>2022-08-24T13:41:34Z</time>
      </trkpt>
      <trkpt lat="42.97036199999976" lon="-1.411073999999997">
        <ele>764.680</ele>
        <time>2022-08-24T13:41:35Z</time>
      </trkpt>
      <trkpt lat="42.97034199999976" lon="-1.411119999999997">
        <ele>764.889</ele>
        <time>2022-08-24T13:41:37Z</time>
      </trkpt>
      <trkpt lat="42.97033599999976" lon="-1.411144999999997">
        <ele>765.038</ele>
        <time>2022-08-24T13:41:38Z</time>
      </trkpt>
      <trkpt lat="42.97033299999976" lon="-1.411169999999997">
        <ele>765.270</ele>
        <time>2022-08-24T13:41:39Z</time>
      </trkpt>
      <trkpt lat="42.97032299999976" lon="-1.411218999999997">
        <ele>765.417</ele>
        <time>2022-08-24T13:41:41Z</time>
      </trkpt>
      <trkpt lat="42.97031699999976" lon="-1.411241999999997">
        <ele>765.409</ele>
        <time>2022-08-24T13:41:42Z</time>
      </trkpt>
      <trkpt lat="42.97031199999976" lon="-1.411264999999997">
        <ele>765.634</ele>
        <time>2022-08-24T13:41:43Z</time>
      </trkpt>
      <trkpt lat="42.970309999999756" lon="-1.4112889999999971">
        <ele>766.014</ele>
        <time>2022-08-24T13:41:44Z</time>
      </trkpt>
      <trkpt lat="42.97030699999976" lon="-1.411310999999997">
        <ele>766.084</ele>
        <time>2022-08-24T13:41:45Z</time>
      </trkpt>
      <trkpt lat="42.97030399999976" lon="-1.4113319999999971">
        <ele>766.270</ele>
        <time>2022-08-24T13:41:46Z</time>
      </trkpt>
      <trkpt lat="42.97030099999976" lon="-1.411353999999997">
        <ele>766.452</ele>
        <time>2022-08-24T13:41:47Z</time>
      </trkpt>
      <trkpt lat="42.97029699999976" lon="-1.4113749999999972">
        <ele>766.429</ele>
        <time>2022-08-24T13:41:48Z</time>
      </trkpt>
      <trkpt lat="42.97028799999976" lon="-1.4113929999999972">
        <ele>766.812</ele>
        <time>2022-08-24T13:41:49Z</time>
      </trkpt>
      <trkpt lat="42.97028199999976" lon="-1.4114129999999971">
        <ele>766.836</ele>
        <time>2022-08-24T13:41:50Z</time>
      </trkpt>
      <trkpt lat="42.97028199999976" lon="-1.411432999999997">
        <ele>767.245</ele>
        <time>2022-08-24T13:41:51Z</time>
      </trkpt>
      <trkpt lat="42.97027899999976" lon="-1.411453999999997">
        <ele>767.214</ele>
        <time>2022-08-24T13:41:52Z</time>
      </trkpt>
      <trkpt lat="42.970274999999766" lon="-1.411473999999997">
        <ele>767.654</ele>
        <time>2022-08-24T13:41:53Z</time>
      </trkpt>
      <trkpt lat="42.970269999999765" lon="-1.411491999999997">
        <ele>767.809</ele>
        <time>2022-08-24T13:41:54Z</time>
      </trkpt>
      <trkpt lat="42.970269999999765" lon="-1.411508999999997">
        <ele>768.009</ele>
        <time>2022-08-24T13:41:55Z</time>
      </trkpt>
      <trkpt lat="42.970277999999766" lon="-1.411522999999997">
        <ele>768.232</ele>
        <time>2022-08-24T13:41:56Z</time>
      </trkpt>
      <trkpt lat="42.97028199999976" lon="-1.411527999999997">
        <ele>768.222</ele>
        <time>2022-08-24T13:41:57Z</time>
      </trkpt>
      <trkpt lat="42.97027899999976" lon="-1.411528999999997">
        <ele>768.652</ele>
        <time>2022-08-24T13:41:58Z</time>
      </trkpt>
      <trkpt lat="42.97027899999976" lon="-1.4115269999999969">
        <ele>768.858</ele>
        <time>2022-08-24T13:41:59Z</time>
      </trkpt>
      <trkpt lat="42.97028199999976" lon="-1.411514999999997">
        <ele>768.860</ele>
        <time>2022-08-24T13:42:00Z</time>
      </trkpt>
      <trkpt lat="42.97028299999976" lon="-1.411504999999997">
        <ele>769.237</ele>
        <time>2022-08-24T13:42:01Z</time>
      </trkpt>
      <trkpt lat="42.970275999999764" lon="-1.411496999999997">
        <ele>769.290</ele>
        <time>2022-08-24T13:42:02Z</time>
      </trkpt>
      <trkpt lat="42.970272999999764" lon="-1.411493999999997">
        <ele>769.424</ele>
        <time>2022-08-24T13:42:03Z</time>
      </trkpt>
      <trkpt lat="42.970272999999764" lon="-1.411493999999997">
        <ele>769.463</ele>
        <time>2022-08-24T13:42:20Z</time>
      </trkpt>
      <trkpt lat="42.970272999999764" lon="-1.4114979999999968">
        <ele>769.435</ele>
        <time>2022-08-24T13:42:22Z</time>
      </trkpt>
      <trkpt lat="42.970275999999764" lon="-1.4115159999999969">
        <ele>769.486</ele>
        <time>2022-08-24T13:42:23Z</time>
      </trkpt>
      <trkpt lat="42.970277999999766" lon="-1.4115349999999969">
        <ele>769.414</ele>
        <time>2022-08-24T13:42:24Z</time>
      </trkpt>
      <trkpt lat="42.97025999999977" lon="-1.4116189999999968">
        <ele>769.809</ele>
        <time>2022-08-24T13:42:27Z</time>
      </trkpt>
      <trkpt lat="42.97025399999977" lon="-1.4116389999999968">
        <ele>769.814</ele>
        <time>2022-08-24T13:42:28Z</time>
      </trkpt>
      <trkpt lat="42.97024999999977" lon="-1.4116689999999967">
        <ele>770.094</ele>
        <time>2022-08-24T13:42:29Z</time>
      </trkpt>
      <trkpt lat="42.97024799999977" lon="-1.4116899999999968">
        <ele>770.264</ele>
        <time>2022-08-24T13:42:30Z</time>
      </trkpt>
      <trkpt lat="42.97024699999977" lon="-1.4117119999999967">
        <ele>770.270</ele>
        <time>2022-08-24T13:42:31Z</time>
      </trkpt>
      <trkpt lat="42.97024799999977" lon="-1.4117329999999968">
        <ele>770.692</ele>
        <time>2022-08-24T13:42:32Z</time>
      </trkpt>
      <trkpt lat="42.97024899999977" lon="-1.4117499999999967">
        <ele>770.859</ele>
        <time>2022-08-24T13:42:33Z</time>
      </trkpt>
      <trkpt lat="42.97024499999977" lon="-1.4117669999999967">
        <ele>771.072</ele>
        <time>2022-08-24T13:42:34Z</time>
      </trkpt>
      <trkpt lat="42.97024699999977" lon="-1.4118079999999966">
        <ele>771.416</ele>
        <time>2022-08-24T13:42:36Z</time>
      </trkpt>
      <trkpt lat="42.970248999999775" lon="-1.4118249999999966">
        <ele>771.625</ele>
        <time>2022-08-24T13:42:37Z</time>
      </trkpt>
      <trkpt lat="42.97024799999978" lon="-1.4118489999999966">
        <ele>771.832</ele>
        <time>2022-08-24T13:42:38Z</time>
      </trkpt>
      <trkpt lat="42.970237999999775" lon="-1.4119079999999966">
        <ele>772.492</ele>
        <time>2022-08-24T13:42:41Z</time>
      </trkpt>
      <trkpt lat="42.970237999999775" lon="-1.4119269999999966">
        <ele>772.611</ele>
        <time>2022-08-24T13:42:42Z</time>
      </trkpt>
      <trkpt lat="42.97023699999978" lon="-1.4119419999999967">
        <ele>772.609</ele>
        <time>2022-08-24T13:42:43Z</time>
      </trkpt>
      <trkpt lat="42.97023599999978" lon="-1.4119579999999967">
        <ele>772.824</ele>
        <time>2022-08-24T13:42:44Z</time>
      </trkpt>
      <trkpt lat="42.97023299999978" lon="-1.4119769999999967">
        <ele>773.074</ele>
        <time>2022-08-24T13:42:45Z</time>
      </trkpt>
      <trkpt lat="42.97023099999978" lon="-1.4119929999999967">
        <ele>773.494</ele>
        <time>2022-08-24T13:42:46Z</time>
      </trkpt>
      <trkpt lat="42.970228999999776" lon="-1.4120139999999968">
        <ele>773.430</ele>
        <time>2022-08-24T13:42:47Z</time>
      </trkpt>
      <trkpt lat="42.970223999999774" lon="-1.4120269999999968">
        <ele>773.622</ele>
        <time>2022-08-24T13:42:48Z</time>
      </trkpt>
      <trkpt lat="42.970225999999776" lon="-1.4120459999999968">
        <ele>773.879</ele>
        <time>2022-08-24T13:42:49Z</time>
      </trkpt>
      <trkpt lat="42.97022799999978" lon="-1.412068999999997">
        <ele>773.832</ele>
        <time>2022-08-24T13:42:50Z</time>
      </trkpt>
      <trkpt lat="42.970228999999776" lon="-1.412084999999997">
        <ele>774.086</ele>
        <time>2022-08-24T13:42:51Z</time>
      </trkpt>
      <trkpt lat="42.970228999999776" lon="-1.4121019999999969">
        <ele>774.255</ele>
        <time>2022-08-24T13:42:52Z</time>
      </trkpt>
      <trkpt lat="42.97023099999978" lon="-1.4121219999999968">
        <ele>774.462</ele>
        <time>2022-08-24T13:42:53Z</time>
      </trkpt>
      <trkpt lat="42.970231999999775" lon="-1.4121419999999967">
        <ele>774.483</ele>
        <time>2022-08-24T13:42:54Z</time>
      </trkpt>
      <trkpt lat="42.97022999999977" lon="-1.4121599999999968">
        <ele>774.811</ele>
        <time>2022-08-24T13:42:55Z</time>
      </trkpt>
      <trkpt lat="42.970228999999776" lon="-1.4121779999999968">
        <ele>775.009</ele>
        <time>2022-08-24T13:42:56Z</time>
      </trkpt>
      <trkpt lat="42.970228999999776" lon="-1.4121979999999967">
        <ele>775.227</ele>
        <time>2022-08-24T13:42:57Z</time>
      </trkpt>
      <trkpt lat="42.97022999999977" lon="-1.4122159999999968">
        <ele>775.477</ele>
        <time>2022-08-24T13:42:58Z</time>
      </trkpt>
      <trkpt lat="42.970231999999775" lon="-1.4122319999999968">
        <ele>775.477</ele>
        <time>2022-08-24T13:42:59Z</time>
      </trkpt>
      <trkpt lat="42.970231999999775" lon="-1.412249999999997">
        <ele>775.663</ele>
        <time>2022-08-24T13:43:00Z</time>
      </trkpt>
      <trkpt lat="42.97023099999978" lon="-1.4122699999999968">
        <ele>775.685</ele>
        <time>2022-08-24T13:43:01Z</time>
      </trkpt>
      <trkpt lat="42.97022999999978" lon="-1.4122939999999968">
        <ele>775.852</ele>
        <time>2022-08-24T13:43:02Z</time>
      </trkpt>
      <trkpt lat="42.97022899999978" lon="-1.4123109999999968">
        <ele>775.825</ele>
        <time>2022-08-24T13:43:03Z</time>
      </trkpt>
      <trkpt lat="42.97022699999978" lon="-1.4123299999999968">
        <ele>776.069</ele>
        <time>2022-08-24T13:43:04Z</time>
      </trkpt>
      <trkpt lat="42.97022599999978" lon="-1.4123509999999968">
        <ele>776.048</ele>
        <time>2022-08-24T13:43:05Z</time>
      </trkpt>
      <trkpt lat="42.97022599999978" lon="-1.4123709999999967">
        <ele>776.095</ele>
        <time>2022-08-24T13:43:06Z</time>
      </trkpt>
      <trkpt lat="42.970224999999786" lon="-1.4123859999999968">
        <ele>776.249</ele>
        <time>2022-08-24T13:43:07Z</time>
      </trkpt>
      <trkpt lat="42.97022599999978" lon="-1.4124059999999967">
        <ele>776.623</ele>
        <time>2022-08-24T13:43:08Z</time>
      </trkpt>
      <trkpt lat="42.970227999999786" lon="-1.4124279999999967">
        <ele>776.809</ele>
        <time>2022-08-24T13:43:09Z</time>
      </trkpt>
      <trkpt lat="42.97022999999979" lon="-1.4124539999999968">
        <ele>777.070</ele>
        <time>2022-08-24T13:43:10Z</time>
      </trkpt>
      <trkpt lat="42.97022999999979" lon="-1.4124749999999968">
        <ele>777.060</ele>
        <time>2022-08-24T13:43:11Z</time>
      </trkpt>
      <trkpt lat="42.970227999999786" lon="-1.4124919999999968">
        <ele>777.240</ele>
        <time>2022-08-24T13:43:12Z</time>
      </trkpt>
      <trkpt lat="42.970227999999786" lon="-1.4125129999999968">
        <ele>777.416</ele>
        <time>2022-08-24T13:43:13Z</time>
      </trkpt>
      <trkpt lat="42.97022999999979" lon="-1.4125409999999967">
        <ele>777.438</ele>
        <time>2022-08-24T13:43:14Z</time>
      </trkpt>
      <trkpt lat="42.97023199999979" lon="-1.4125549999999967">
        <ele>777.665</ele>
        <time>2022-08-24T13:43:15Z</time>
      </trkpt>
      <trkpt lat="42.97023199999979" lon="-1.4125759999999967">
        <ele>777.688</ele>
        <time>2022-08-24T13:43:16Z</time>
      </trkpt>
      <trkpt lat="42.97022999999979" lon="-1.4125959999999966">
        <ele>777.852</ele>
        <time>2022-08-24T13:43:17Z</time>
      </trkpt>
      <trkpt lat="42.970230999999785" lon="-1.4126149999999966">
        <ele>777.831</ele>
        <time>2022-08-24T13:43:18Z</time>
      </trkpt>
      <trkpt lat="42.97023199999978" lon="-1.4126409999999967">
        <ele>778.096</ele>
        <time>2022-08-24T13:43:19Z</time>
      </trkpt>
      <trkpt lat="42.97022999999978" lon="-1.4126579999999966">
        <ele>778.231</ele>
        <time>2022-08-24T13:43:20Z</time>
      </trkpt>
      <trkpt lat="42.97022799999978" lon="-1.4126799999999966">
        <ele>778.224</ele>
        <time>2022-08-24T13:43:21Z</time>
      </trkpt>
      <trkpt lat="42.97022699999978" lon="-1.4127019999999966">
        <ele>778.409</ele>
        <time>2022-08-24T13:43:22Z</time>
      </trkpt>
      <trkpt lat="42.97022499999978" lon="-1.4127229999999966">
        <ele>778.480</ele>
        <time>2022-08-24T13:43:23Z</time>
      </trkpt>
      <trkpt lat="42.97021999999978" lon="-1.4127459999999967">
        <ele>778.410</ele>
        <time>2022-08-24T13:43:24Z</time>
      </trkpt>
      <trkpt lat="42.97021399999978" lon="-1.4127639999999968">
        <ele>778.470</ele>
        <time>2022-08-24T13:43:25Z</time>
      </trkpt>
      <trkpt lat="42.97020999999978" lon="-1.412778999999997">
        <ele>778.646</ele>
        <time>2022-08-24T13:43:26Z</time>
      </trkpt>
      <trkpt lat="42.97020999999978" lon="-1.412796999999997">
        <ele>779.048</ele>
        <time>2022-08-24T13:43:27Z</time>
      </trkpt>
      <trkpt lat="42.97020699999978" lon="-1.4128169999999969">
        <ele>779.245</ele>
        <time>2022-08-24T13:43:28Z</time>
      </trkpt>
      <trkpt lat="42.97020099999978" lon="-1.412834999999997">
        <ele>779.288</ele>
        <time>2022-08-24T13:43:29Z</time>
      </trkpt>
      <trkpt lat="42.970196999999786" lon="-1.412847999999997">
        <ele>779.412</ele>
        <time>2022-08-24T13:43:30Z</time>
      </trkpt>
      <trkpt lat="42.970193999999786" lon="-1.412864999999997">
        <ele>779.621</ele>
        <time>2022-08-24T13:43:31Z</time>
      </trkpt>
      <trkpt lat="42.97019099999979" lon="-1.412883999999997">
        <ele>779.679</ele>
        <time>2022-08-24T13:43:32Z</time>
      </trkpt>
      <trkpt lat="42.97018399999979" lon="-1.4129059999999969">
        <ele>779.605</ele>
        <time>2022-08-24T13:43:33Z</time>
      </trkpt>
      <trkpt lat="42.970176999999794" lon="-1.412926999999997">
        <ele>779.825</ele>
        <time>2022-08-24T13:43:34Z</time>
      </trkpt>
      <trkpt lat="42.9701729999998" lon="-1.412944999999997">
        <ele>780.009</ele>
        <time>2022-08-24T13:43:35Z</time>
      </trkpt>
      <trkpt lat="42.9701689999998" lon="-1.4129679999999971">
        <ele>780.068</ele>
        <time>2022-08-24T13:43:36Z</time>
      </trkpt>
      <trkpt lat="42.9701609999998" lon="-1.4129889999999972">
        <ele>780.028</ele>
        <time>2022-08-24T13:43:37Z</time>
      </trkpt>
      <trkpt lat="42.9701519999998" lon="-1.4130119999999973">
        <ele>780.088</ele>
        <time>2022-08-24T13:43:38Z</time>
      </trkpt>
      <trkpt lat="42.9701439999998" lon="-1.4130369999999972">
        <ele>780.274</ele>
        <time>2022-08-24T13:43:39Z</time>
      </trkpt>
      <trkpt lat="42.9701369999998" lon="-1.4130649999999971">
        <ele>780.266</ele>
        <time>2022-08-24T13:43:40Z</time>
      </trkpt>
      <trkpt lat="42.9701289999998" lon="-1.413094999999997">
        <ele>780.453</ele>
        <time>2022-08-24T13:43:41Z</time>
      </trkpt>
      <trkpt lat="42.9701189999998" lon="-1.413127999999997">
        <ele>780.416</ele>
        <time>2022-08-24T13:43:42Z</time>
      </trkpt>
      <trkpt lat="42.9701039999998" lon="-1.413166999999997">
        <ele>780.470</ele>
        <time>2022-08-24T13:43:43Z</time>
      </trkpt>
      <trkpt lat="42.9700909999998" lon="-1.413209999999997">
        <ele>780.429</ele>
        <time>2022-08-24T13:43:44Z</time>
      </trkpt>
      <trkpt lat="42.9700789999998" lon="-1.413255999999997">
        <ele>780.224</ele>
        <time>2022-08-24T13:43:45Z</time>
      </trkpt>
      <trkpt lat="42.970068999999796" lon="-1.4133029999999969">
        <ele>780.204</ele>
        <time>2022-08-24T13:43:46Z</time>
      </trkpt>
      <trkpt lat="42.9700369999998" lon="-1.4135409999999968">
        <ele>780.014</ele>
        <time>2022-08-24T13:43:50Z</time>
      </trkpt>
      <trkpt lat="42.9700339999998" lon="-1.4136149999999967">
        <ele>779.609</ele>
        <time>2022-08-24T13:43:51Z</time>
      </trkpt>
      <trkpt lat="42.9700179999998" lon="-1.4138449999999967">
        <ele>779.273</ele>
        <time>2022-08-24T13:43:54Z</time>
      </trkpt>
      <trkpt lat="42.9699979999998" lon="-1.4139149999999967">
        <ele>779.023</ele>
        <time>2022-08-24T13:43:55Z</time>
      </trkpt>
      <trkpt lat="42.9699699999998" lon="-1.4139749999999967">
        <ele>779.073</ele>
        <time>2022-08-24T13:43:56Z</time>
      </trkpt>
      <trkpt lat="42.9699409999998" lon="-1.4140289999999966">
        <ele>778.479</ele>
        <time>2022-08-24T13:43:57Z</time>
      </trkpt>
      <trkpt lat="42.969916999999796" lon="-1.4140809999999966">
        <ele>778.231</ele>
        <time>2022-08-24T13:43:58Z</time>
      </trkpt>
      <trkpt lat="42.969894999999795" lon="-1.4141289999999966">
        <ele>778.058</ele>
        <time>2022-08-24T13:43:59Z</time>
      </trkpt>
      <trkpt lat="42.9698739999998" lon="-1.4141759999999965">
        <ele>778.011</ele>
        <time>2022-08-24T13:44:00Z</time>
      </trkpt>
      <trkpt lat="42.9698549999998" lon="-1.4142219999999965">
        <ele>777.825</ele>
        <time>2022-08-24T13:44:01Z</time>
      </trkpt>
      <trkpt lat="42.969838999999794" lon="-1.4142689999999964">
        <ele>777.864</ele>
        <time>2022-08-24T13:44:02Z</time>
      </trkpt>
      <trkpt lat="42.96982299999979" lon="-1.4143269999999963">
        <ele>777.658</ele>
        <time>2022-08-24T13:44:03Z</time>
      </trkpt>
      <trkpt lat="42.96981399999979" lon="-1.4143679999999963">
        <ele>777.652</ele>
        <time>2022-08-24T13:44:04Z</time>
      </trkpt>
      <trkpt lat="42.96977299999979" lon="-1.4145399999999964">
        <ele>777.417</ele>
        <time>2022-08-24T13:44:07Z</time>
      </trkpt>
      <trkpt lat="42.96974499999979" lon="-1.4146549999999964">
        <ele>777.209</ele>
        <time>2022-08-24T13:44:09Z</time>
      </trkpt>
      <trkpt lat="42.96973499999979" lon="-1.4147179999999964">
        <ele>777.286</ele>
        <time>2022-08-24T13:44:10Z</time>
      </trkpt>
      <trkpt lat="42.96972599999979" lon="-1.4147669999999963">
        <ele>777.266</ele>
        <time>2022-08-24T13:44:11Z</time>
      </trkpt>
      <trkpt lat="42.969715999999785" lon="-1.4148169999999964">
        <ele>777.056</ele>
        <time>2022-08-24T13:44:12Z</time>
      </trkpt>
      <trkpt lat="42.969707999999784" lon="-1.4148579999999964">
        <ele>776.822</ele>
        <time>2022-08-24T13:44:13Z</time>
      </trkpt>
      <trkpt lat="42.96967299999979" lon="-1.4149789999999964">
        <ele>776.044</ele>
        <time>2022-08-24T13:44:15Z</time>
      </trkpt>
      <trkpt lat="42.96963599999979" lon="-1.4150719999999963">
        <ele>775.691</ele>
        <time>2022-08-24T13:44:17Z</time>
      </trkpt>
      <trkpt lat="42.96957699999979" lon="-1.4151619999999963">
        <ele>774.674</ele>
        <time>2022-08-24T13:44:19Z</time>
      </trkpt>
      <trkpt lat="42.96955099999979" lon="-1.4151939999999963">
        <ele>774.068</ele>
        <time>2022-08-24T13:44:20Z</time>
      </trkpt>
      <trkpt lat="42.96952799999979" lon="-1.4152259999999963">
        <ele>773.237</ele>
        <time>2022-08-24T13:44:21Z</time>
      </trkpt>
      <trkpt lat="42.96951399999979" lon="-1.4152669999999963">
        <ele>772.668</ele>
        <time>2022-08-24T13:44:22Z</time>
      </trkpt>
      <trkpt lat="42.969506999999794" lon="-1.4153129999999963">
        <ele>772.242</ele>
        <time>2022-08-24T13:44:23Z</time>
      </trkpt>
      <trkpt lat="42.9695029999998" lon="-1.4153609999999963">
        <ele>771.826</ele>
        <time>2022-08-24T13:44:24Z</time>
      </trkpt>
      <trkpt lat="42.9694959999998" lon="-1.4154099999999963">
        <ele>771.609</ele>
        <time>2022-08-24T13:44:25Z</time>
      </trkpt>
      <trkpt lat="42.9694769999998" lon="-1.4154609999999963">
        <ele>771.267</ele>
        <time>2022-08-24T13:44:26Z</time>
      </trkpt>
      <trkpt lat="42.9694609999998" lon="-1.4154929999999963">
        <ele>771.067</ele>
        <time>2022-08-24T13:44:27Z</time>
      </trkpt>
      <trkpt lat="42.9694439999998" lon="-1.4155319999999962">
        <ele>771.027</ele>
        <time>2022-08-24T13:44:28Z</time>
      </trkpt>
      <trkpt lat="42.9694229999998" lon="-1.4155779999999962">
        <ele>771.083</ele>
        <time>2022-08-24T13:44:29Z</time>
      </trkpt>
      <trkpt lat="42.9694069999998" lon="-1.4156119999999963">
        <ele>771.055</ele>
        <time>2022-08-24T13:44:30Z</time>
      </trkpt>
      <trkpt lat="42.9693959999998" lon="-1.4156409999999964">
        <ele>771.092</ele>
        <time>2022-08-24T13:44:31Z</time>
      </trkpt>
      <trkpt lat="42.969382999999794" lon="-1.4156759999999964">
        <ele>771.055</ele>
        <time>2022-08-24T13:44:32Z</time>
      </trkpt>
      <trkpt lat="42.969368999999794" lon="-1.4157109999999964">
        <ele>771.289</ele>
        <time>2022-08-24T13:44:33Z</time>
      </trkpt>
      <trkpt lat="42.969359999999796" lon="-1.4157429999999964">
        <ele>771.488</ele>
        <time>2022-08-24T13:44:34Z</time>
      </trkpt>
      <trkpt lat="42.969337999999794" lon="-1.4158109999999964">
        <ele>771.867</ele>
        <time>2022-08-24T13:44:36Z</time>
      </trkpt>
      <trkpt lat="42.969295999999794" lon="-1.4159159999999964">
        <ele>772.481</ele>
        <time>2022-08-24T13:44:39Z</time>
      </trkpt>
      <trkpt lat="42.96928599999979" lon="-1.4159529999999965">
        <ele>772.419</ele>
        <time>2022-08-24T13:44:40Z</time>
      </trkpt>
      <trkpt lat="42.96927799999979" lon="-1.4159879999999965">
        <ele>772.409</ele>
        <time>2022-08-24T13:44:41Z</time>
      </trkpt>
      <trkpt lat="42.96921499999979" lon="-1.4162419999999964">
        <ele>772.467</ele>
        <time>2022-08-24T13:44:47Z</time>
      </trkpt>
      <trkpt lat="42.96913899999979" lon="-1.4165739999999964">
        <ele>772.027</ele>
        <time>2022-08-24T13:44:54Z</time>
      </trkpt>
      <trkpt lat="42.96911899999979" lon="-1.4166139999999965">
        <ele>772.057</ele>
        <time>2022-08-24T13:44:55Z</time>
      </trkpt>
      <trkpt lat="42.96909499999979" lon="-1.4166589999999966">
        <ele>772.023</ele>
        <time>2022-08-24T13:44:56Z</time>
      </trkpt>
      <trkpt lat="42.96900599999979" lon="-1.4167939999999966">
        <ele>771.875</ele>
        <time>2022-08-24T13:45:00Z</time>
      </trkpt>
      <trkpt lat="42.96897799999979" lon="-1.4168179999999966">
        <ele>772.072</ele>
        <time>2022-08-24T13:45:01Z</time>
      </trkpt>
      <trkpt lat="42.968947999999784" lon="-1.4168449999999966">
        <ele>771.845</ele>
        <time>2022-08-24T13:45:02Z</time>
      </trkpt>
      <trkpt lat="42.968924999999786" lon="-1.4168589999999965">
        <ele>771.849</ele>
        <time>2022-08-24T13:45:03Z</time>
      </trkpt>
      <trkpt lat="42.968902999999784" lon="-1.4168639999999966">
        <ele>771.858</ele>
        <time>2022-08-24T13:45:04Z</time>
      </trkpt>
      <trkpt lat="42.96888099999978" lon="-1.4168669999999965">
        <ele>771.842</ele>
        <time>2022-08-24T13:45:05Z</time>
      </trkpt>
      <trkpt lat="42.96886199999978" lon="-1.4168749999999966">
        <ele>771.822</ele>
        <time>2022-08-24T13:45:06Z</time>
      </trkpt>
      <trkpt lat="42.96879399999978" lon="-1.4169069999999966">
        <ele>772.214</ele>
        <time>2022-08-24T13:45:09Z</time>
      </trkpt>
      <trkpt lat="42.96871599999978" lon="-1.4169319999999965">
        <ele>772.209</ele>
        <time>2022-08-24T13:45:12Z</time>
      </trkpt>
      <trkpt lat="42.96869099999978" lon="-1.4169399999999965">
        <ele>772.255</ele>
        <time>2022-08-24T13:45:13Z</time>
      </trkpt>
      <trkpt lat="42.96865999999978" lon="-1.4169469999999966">
        <ele>772.465</ele>
        <time>2022-08-24T13:45:14Z</time>
      </trkpt>
      <trkpt lat="42.96863199999978" lon="-1.4169519999999967">
        <ele>772.415</ele>
        <time>2022-08-24T13:45:15Z</time>
      </trkpt>
      <trkpt lat="42.96860599999978" lon="-1.4169559999999966">
        <ele>772.431</ele>
        <time>2022-08-24T13:45:16Z</time>
      </trkpt>
      <trkpt lat="42.96858599999978" lon="-1.4169559999999966">
        <ele>772.463</ele>
        <time>2022-08-24T13:45:17Z</time>
      </trkpt>
      <trkpt lat="42.96857299999978" lon="-1.4169549999999966">
        <ele>772.420</ele>
        <time>2022-08-24T13:45:18Z</time>
      </trkpt>
      <trkpt lat="42.968559999999776" lon="-1.4169519999999967">
        <ele>772.433</ele>
        <time>2022-08-24T13:45:19Z</time>
      </trkpt>
      <trkpt lat="42.968545999999776" lon="-1.4169499999999966">
        <ele>772.687</ele>
        <time>2022-08-24T13:45:20Z</time>
      </trkpt>
      <trkpt lat="42.96853999999978" lon="-1.4169489999999967">
        <ele>772.686</ele>
        <time>2022-08-24T13:45:21Z</time>
      </trkpt>
      <trkpt lat="42.96853999999978" lon="-1.4169489999999967">
        <ele>772.652</ele>
        <time>2022-08-24T13:45:22Z</time>
      </trkpt>
      <trkpt lat="42.96853999999978" lon="-1.4169489999999967">
        <ele>772.853</ele>
        <time>2022-08-24T13:45:23Z</time>
      </trkpt>
      <trkpt lat="42.96850499999978" lon="-1.4169539999999967">
        <ele>773.008</ele>
        <time>2022-08-24T13:45:31Z</time>
      </trkpt>
      <trkpt lat="42.96848699999978" lon="-1.4169539999999967">
        <ele>773.009</ele>
        <time>2022-08-24T13:45:32Z</time>
      </trkpt>
      <trkpt lat="42.96841399999978" lon="-1.4169689999999968">
        <ele>773.086</ele>
        <time>2022-08-24T13:45:35Z</time>
      </trkpt>
      <trkpt lat="42.96839799999978" lon="-1.4169799999999968">
        <ele>773.036</ele>
        <time>2022-08-24T13:45:36Z</time>
      </trkpt>
      <trkpt lat="42.96837099999978" lon="-1.4169959999999968">
        <ele>773.036</ele>
        <time>2022-08-24T13:45:37Z</time>
      </trkpt>
      <trkpt lat="42.96835399999978" lon="-1.4170039999999968">
        <ele>773.052</ele>
        <time>2022-08-24T13:45:38Z</time>
      </trkpt>
      <trkpt lat="42.968331999999776" lon="-1.4170159999999967">
        <ele>773.024</ele>
        <time>2022-08-24T13:45:39Z</time>
      </trkpt>
      <trkpt lat="42.968318999999774" lon="-1.4170259999999968">
        <ele>773.221</ele>
        <time>2022-08-24T13:45:40Z</time>
      </trkpt>
      <trkpt lat="42.96830099999978" lon="-1.4170349999999967">
        <ele>773.434</ele>
        <time>2022-08-24T13:45:41Z</time>
      </trkpt>
      <trkpt lat="42.96828399999978" lon="-1.4170459999999967">
        <ele>773.458</ele>
        <time>2022-08-24T13:45:42Z</time>
      </trkpt>
      <trkpt lat="42.96826899999978" lon="-1.4170589999999967">
        <ele>773.697</ele>
        <time>2022-08-24T13:45:43Z</time>
      </trkpt>
      <trkpt lat="42.96825399999978" lon="-1.4170679999999967">
        <ele>773.657</ele>
        <time>2022-08-24T13:45:44Z</time>
      </trkpt>
      <trkpt lat="42.96823999999978" lon="-1.4170819999999966">
        <ele>773.600</ele>
        <time>2022-08-24T13:45:45Z</time>
      </trkpt>
      <trkpt lat="42.96822699999978" lon="-1.4170949999999967">
        <ele>773.620</ele>
        <time>2022-08-24T13:45:46Z</time>
      </trkpt>
      <trkpt lat="42.968210999999776" lon="-1.4171079999999967">
        <ele>773.809</ele>
        <time>2022-08-24T13:45:47Z</time>
      </trkpt>
      <trkpt lat="42.96819899999978" lon="-1.4171229999999968">
        <ele>773.876</ele>
        <time>2022-08-24T13:45:48Z</time>
      </trkpt>
      <trkpt lat="42.96818399999978" lon="-1.4171369999999968">
        <ele>773.836</ele>
        <time>2022-08-24T13:45:49Z</time>
      </trkpt>
      <trkpt lat="42.96806799999978" lon="-1.4172709999999968">
        <ele>774.416</ele>
        <time>2022-08-24T13:45:56Z</time>
      </trkpt>
      <trkpt lat="42.96805099999978" lon="-1.417288999999997">
        <ele>774.652</ele>
        <time>2022-08-24T13:45:57Z</time>
      </trkpt>
      <trkpt lat="42.968021999999785" lon="-1.4173249999999968">
        <ele>774.854</ele>
        <time>2022-08-24T13:45:59Z</time>
      </trkpt>
      <trkpt lat="42.968004999999785" lon="-1.4173409999999969">
        <ele>774.851</ele>
        <time>2022-08-24T13:46:00Z</time>
      </trkpt>
      <trkpt lat="42.967984999999786" lon="-1.4173569999999969">
        <ele>775.074</ele>
        <time>2022-08-24T13:46:01Z</time>
      </trkpt>
      <trkpt lat="42.96797299999979" lon="-1.417377999999997">
        <ele>775.238</ele>
        <time>2022-08-24T13:46:02Z</time>
      </trkpt>
      <trkpt lat="42.96791099999979" lon="-1.417436999999997">
        <ele>775.667</ele>
        <time>2022-08-24T13:46:06Z</time>
      </trkpt>
      <trkpt lat="42.96790199999979" lon="-1.417452999999997">
        <ele>776.048</ele>
        <time>2022-08-24T13:46:07Z</time>
      </trkpt>
      <trkpt lat="42.96788499999979" lon="-1.417470999999997">
        <ele>776.061</ele>
        <time>2022-08-24T13:46:08Z</time>
      </trkpt>
      <trkpt lat="42.96785399999979" lon="-1.4175159999999971">
        <ele>776.217</ele>
        <time>2022-08-24T13:46:10Z</time>
      </trkpt>
      <trkpt lat="42.96783199999979" lon="-1.417572999999997">
        <ele>776.609</ele>
        <time>2022-08-24T13:46:12Z</time>
      </trkpt>
      <trkpt lat="42.967770999999786" lon="-1.417716999999997">
        <ele>776.825</ele>
        <time>2022-08-24T13:46:17Z</time>
      </trkpt>
      <trkpt lat="42.96775899999979" lon="-1.4177399999999971">
        <ele>776.865</ele>
        <time>2022-08-24T13:46:18Z</time>
      </trkpt>
      <trkpt lat="42.96773799999979" lon="-1.4177769999999972">
        <ele>776.845</ele>
        <time>2022-08-24T13:46:19Z</time>
      </trkpt>
      <trkpt lat="42.96772699999979" lon="-1.4178109999999973">
        <ele>777.061</ele>
        <time>2022-08-24T13:46:20Z</time>
      </trkpt>
      <trkpt lat="42.96771599999979" lon="-1.4178449999999974">
        <ele>777.093</ele>
        <time>2022-08-24T13:46:21Z</time>
      </trkpt>
      <trkpt lat="42.96762999999979" lon="-1.4179589999999973">
        <ele>777.250</ele>
        <time>2022-08-24T13:46:25Z</time>
      </trkpt>
      <trkpt lat="42.96760999999979" lon="-1.4179749999999973">
        <ele>777.273</ele>
        <time>2022-08-24T13:46:26Z</time>
      </trkpt>
      <trkpt lat="42.96758199999979" lon="-1.4179939999999973">
        <ele>777.267</ele>
        <time>2022-08-24T13:46:27Z</time>
      </trkpt>
      <trkpt lat="42.967548999999785" lon="-1.4180129999999973">
        <ele>777.286</ele>
        <time>2022-08-24T13:46:28Z</time>
      </trkpt>
      <trkpt lat="42.967444999999785" lon="-1.4180829999999973">
        <ele>777.265</ele>
        <time>2022-08-24T13:46:31Z</time>
      </trkpt>
      <trkpt lat="42.96733899999978" lon="-1.4182709999999974">
        <ele>777.068</ele>
        <time>2022-08-24T13:46:36Z</time>
      </trkpt>
      <trkpt lat="42.96734199999978" lon="-1.4183109999999974">
        <ele>777.014</ele>
        <time>2022-08-24T13:46:37Z</time>
      </trkpt>
      <trkpt lat="42.96736199999978" lon="-1.4183509999999975">
        <ele>777.009</ele>
        <time>2022-08-24T13:46:38Z</time>
      </trkpt>
      <trkpt lat="42.96738199999978" lon="-1.4183769999999976">
        <ele>776.837</ele>
        <time>2022-08-24T13:46:39Z</time>
      </trkpt>
      <trkpt lat="42.96739699999978" lon="-1.4183979999999976">
        <ele>776.827</ele>
        <time>2022-08-24T13:46:40Z</time>
      </trkpt>
      <trkpt lat="42.967414999999775" lon="-1.4184229999999975">
        <ele>776.837</ele>
        <time>2022-08-24T13:46:41Z</time>
      </trkpt>
      <trkpt lat="42.96743399999978" lon="-1.4184479999999975">
        <ele>776.643</ele>
        <time>2022-08-24T13:46:42Z</time>
      </trkpt>
      <trkpt lat="42.96752599999978" lon="-1.4185649999999974">
        <ele>776.255</ele>
        <time>2022-08-24T13:46:46Z</time>
      </trkpt>
      <trkpt lat="42.96754599999978" lon="-1.4185929999999973">
        <ele>776.252</ele>
        <time>2022-08-24T13:46:47Z</time>
      </trkpt>
      <trkpt lat="42.967560999999776" lon="-1.4186209999999972">
        <ele>776.245</ele>
        <time>2022-08-24T13:46:48Z</time>
      </trkpt>
      <trkpt lat="42.967566999999775" lon="-1.4186489999999972">
        <ele>776.019</ele>
        <time>2022-08-24T13:46:49Z</time>
      </trkpt>
      <trkpt lat="42.96756199999977" lon="-1.418673999999997">
        <ele>776.018</ele>
        <time>2022-08-24T13:46:50Z</time>
      </trkpt>
      <trkpt lat="42.96754799999977" lon="-1.4186969999999972">
        <ele>775.875</ele>
        <time>2022-08-24T13:46:51Z</time>
      </trkpt>
      <trkpt lat="42.967538999999775" lon="-1.4187149999999973">
        <ele>775.628</ele>
        <time>2022-08-24T13:46:52Z</time>
      </trkpt>
      <trkpt lat="42.967535999999775" lon="-1.4187219999999974">
        <ele>775.620</ele>
        <time>2022-08-24T13:46:53Z</time>
      </trkpt>
      <trkpt lat="42.967535999999775" lon="-1.4187219999999974">
        <ele>775.409</ele>
        <time>2022-08-24T13:46:54Z</time>
      </trkpt>
      <trkpt lat="42.96753699999977" lon="-1.4187249999999973">
        <ele>775.468</ele>
        <time>2022-08-24T13:46:55Z</time>
      </trkpt>
      <trkpt lat="42.96754299999977" lon="-1.4187299999999974">
        <ele>775.458</ele>
        <time>2022-08-24T13:46:56Z</time>
      </trkpt>
      <trkpt lat="42.96755099999977" lon="-1.4187409999999974">
        <ele>775.488</ele>
        <time>2022-08-24T13:46:57Z</time>
      </trkpt>
      <trkpt lat="42.967560999999776" lon="-1.4187669999999974">
        <ele>775.474</ele>
        <time>2022-08-24T13:46:58Z</time>
      </trkpt>
      <trkpt lat="42.967563999999776" lon="-1.4188309999999975">
        <ele>775.256</ele>
        <time>2022-08-24T13:47:00Z</time>
      </trkpt>
      <trkpt lat="42.96755999999978" lon="-1.4189019999999974">
        <ele>775.253</ele>
        <time>2022-08-24T13:47:02Z</time>
      </trkpt>
      <trkpt lat="42.96755999999978" lon="-1.4189469999999975">
        <ele>775.276</ele>
        <time>2022-08-24T13:47:03Z</time>
      </trkpt>
      <trkpt lat="42.96755899999978" lon="-1.4190509999999976">
        <ele>775.030</ele>
        <time>2022-08-24T13:47:05Z</time>
      </trkpt>
      <trkpt lat="42.96755299999978" lon="-1.4191729999999976">
        <ele>773.859</ele>
        <time>2022-08-24T13:47:07Z</time>
      </trkpt>
      <trkpt lat="42.967531999999785" lon="-1.4193779999999976">
        <ele>772.872</ele>
        <time>2022-08-24T13:47:10Z</time>
      </trkpt>
      <trkpt lat="42.96752499999979" lon="-1.4194529999999976">
        <ele>772.813</ele>
        <time>2022-08-24T13:47:11Z</time>
      </trkpt>
      <trkpt lat="42.96750899999979" lon="-1.4195959999999976">
        <ele>772.014</ele>
        <time>2022-08-24T13:47:13Z</time>
      </trkpt>
      <trkpt lat="42.96750199999979" lon="-1.4196569999999977">
        <ele>771.409</ele>
        <time>2022-08-24T13:47:14Z</time>
      </trkpt>
      <trkpt lat="42.96749799999979" lon="-1.4197169999999977">
        <ele>771.268</ele>
        <time>2022-08-24T13:47:15Z</time>
      </trkpt>
      <trkpt lat="42.96749499999979" lon="-1.4197739999999976">
        <ele>770.458</ele>
        <time>2022-08-24T13:47:16Z</time>
      </trkpt>
      <trkpt lat="42.96749499999979" lon="-1.4198299999999977">
        <ele>770.258</ele>
        <time>2022-08-24T13:47:17Z</time>
      </trkpt>
      <trkpt lat="42.967496999999796" lon="-1.4198899999999977">
        <ele>769.484</ele>
        <time>2022-08-24T13:47:18Z</time>
      </trkpt>
      <trkpt lat="42.96750099999979" lon="-1.4199499999999976">
        <ele>769.046</ele>
        <time>2022-08-24T13:47:19Z</time>
      </trkpt>
      <trkpt lat="42.96750699999979" lon="-1.4200129999999975">
        <ele>768.873</ele>
        <time>2022-08-24T13:47:20Z</time>
      </trkpt>
      <trkpt lat="42.96751899999979" lon="-1.4201509999999975">
        <ele>768.226</ele>
        <time>2022-08-24T13:47:22Z</time>
      </trkpt>
      <trkpt lat="42.96752699999979" lon="-1.4202219999999974">
        <ele>767.840</ele>
        <time>2022-08-24T13:47:23Z</time>
      </trkpt>
      <trkpt lat="42.96753599999979" lon="-1.4203549999999974">
        <ele>767.699</ele>
        <time>2022-08-24T13:47:25Z</time>
      </trkpt>
      <trkpt lat="42.96753999999979" lon="-1.4204119999999973">
        <ele>767.021</ele>
        <time>2022-08-24T13:47:26Z</time>
      </trkpt>
      <trkpt lat="42.96753999999979" lon="-1.4204649999999974">
        <ele>766.841</ele>
        <time>2022-08-24T13:47:27Z</time>
      </trkpt>
      <trkpt lat="42.967537999999784" lon="-1.4205189999999974">
        <ele>766.605</ele>
        <time>2022-08-24T13:47:28Z</time>
      </trkpt>
      <trkpt lat="42.96754199999978" lon="-1.4205729999999974">
        <ele>766.409</ele>
        <time>2022-08-24T13:47:29Z</time>
      </trkpt>
      <trkpt lat="42.96754899999978" lon="-1.4206279999999973">
        <ele>766.483</ele>
        <time>2022-08-24T13:47:30Z</time>
      </trkpt>
      <trkpt lat="42.967555999999774" lon="-1.4206809999999974">
        <ele>766.423</ele>
        <time>2022-08-24T13:47:31Z</time>
      </trkpt>
      <trkpt lat="42.967560999999776" lon="-1.4207279999999973">
        <ele>766.443</ele>
        <time>2022-08-24T13:47:32Z</time>
      </trkpt>
      <trkpt lat="42.967563999999776" lon="-1.4207669999999972">
        <ele>766.479</ele>
        <time>2022-08-24T13:47:33Z</time>
      </trkpt>
      <trkpt lat="42.967560999999776" lon="-1.4208009999999973">
        <ele>766.461</ele>
        <time>2022-08-24T13:47:34Z</time>
      </trkpt>
      <trkpt lat="42.967560999999776" lon="-1.4208309999999973">
        <ele>766.448</ele>
        <time>2022-08-24T13:47:35Z</time>
      </trkpt>
      <trkpt lat="42.967563999999776" lon="-1.4208609999999973">
        <ele>766.641</ele>
        <time>2022-08-24T13:47:36Z</time>
      </trkpt>
      <trkpt lat="42.96756599999978" lon="-1.4208869999999973">
        <ele>766.875</ele>
        <time>2022-08-24T13:47:37Z</time>
      </trkpt>
      <trkpt lat="42.967566999999775" lon="-1.4209129999999974">
        <ele>767.294</ele>
        <time>2022-08-24T13:47:38Z</time>
      </trkpt>
      <trkpt lat="42.967566999999775" lon="-1.4209379999999974">
        <ele>767.485</ele>
        <time>2022-08-24T13:47:39Z</time>
      </trkpt>
      <trkpt lat="42.96756799999977" lon="-1.4209609999999975">
        <ele>767.489</ele>
        <time>2022-08-24T13:47:40Z</time>
      </trkpt>
      <trkpt lat="42.967569999999775" lon="-1.4209809999999974">
        <ele>767.617</ele>
        <time>2022-08-24T13:47:41Z</time>
      </trkpt>
      <trkpt lat="42.967569999999775" lon="-1.4210019999999974">
        <ele>767.609</ele>
        <time>2022-08-24T13:47:42Z</time>
      </trkpt>
      <trkpt lat="42.96756899999978" lon="-1.4210219999999973">
        <ele>767.659</ele>
        <time>2022-08-24T13:47:43Z</time>
      </trkpt>
      <trkpt lat="42.96756799999978" lon="-1.4210439999999973">
        <ele>767.849</ele>
        <time>2022-08-24T13:47:44Z</time>
      </trkpt>
      <trkpt lat="42.96756699999978" lon="-1.4210669999999974">
        <ele>767.859</ele>
        <time>2022-08-24T13:47:45Z</time>
      </trkpt>
      <trkpt lat="42.967562999999785" lon="-1.4211139999999973">
        <ele>768.095</ele>
        <time>2022-08-24T13:47:47Z</time>
      </trkpt>
      <trkpt lat="42.96755899999979" lon="-1.4211599999999973">
        <ele>768.277</ele>
        <time>2022-08-24T13:47:49Z</time>
      </trkpt>
      <trkpt lat="42.967559999999786" lon="-1.4211759999999973">
        <ele>768.424</ele>
        <time>2022-08-24T13:47:50Z</time>
      </trkpt>
      <trkpt lat="42.96756099999978" lon="-1.4211949999999973">
        <ele>768.627</ele>
        <time>2022-08-24T13:47:51Z</time>
      </trkpt>
      <trkpt lat="42.96756099999978" lon="-1.4212149999999972">
        <ele>769.221</ele>
        <time>2022-08-24T13:47:52Z</time>
      </trkpt>
      <trkpt lat="42.96756199999978" lon="-1.4212359999999973">
        <ele>769.440</ele>
        <time>2022-08-24T13:47:53Z</time>
      </trkpt>
      <trkpt lat="42.96756499999978" lon="-1.4213219999999973">
        <ele>770.493</ele>
        <time>2022-08-24T13:47:57Z</time>
      </trkpt>
      <trkpt lat="42.96755999999978" lon="-1.4214089999999973">
        <ele>771.065</ele>
        <time>2022-08-24T13:48:01Z</time>
      </trkpt>
      <trkpt lat="42.96755799999978" lon="-1.4214269999999973">
        <ele>771.221</ele>
        <time>2022-08-24T13:48:02Z</time>
      </trkpt>
      <trkpt lat="42.96755199999978" lon="-1.4214469999999972">
        <ele>771.409</ele>
        <time>2022-08-24T13:48:03Z</time>
      </trkpt>
      <trkpt lat="42.96755199999978" lon="-1.4214659999999972">
        <ele>771.630</ele>
        <time>2022-08-24T13:48:04Z</time>
      </trkpt>
      <trkpt lat="42.967552999999775" lon="-1.4214819999999972">
        <ele>771.820</ele>
        <time>2022-08-24T13:48:05Z</time>
      </trkpt>
      <trkpt lat="42.96755099999977" lon="-1.4214999999999973">
        <ele>772.050</ele>
        <time>2022-08-24T13:48:06Z</time>
      </trkpt>
      <trkpt lat="42.967549999999775" lon="-1.4215189999999973">
        <ele>772.256</ele>
        <time>2022-08-24T13:48:07Z</time>
      </trkpt>
      <trkpt lat="42.967546999999776" lon="-1.4215369999999974">
        <ele>772.468</ele>
        <time>2022-08-24T13:48:08Z</time>
      </trkpt>
      <trkpt lat="42.967544999999774" lon="-1.4215549999999975">
        <ele>772.635</ele>
        <time>2022-08-24T13:48:09Z</time>
      </trkpt>
      <trkpt lat="42.96754299999977" lon="-1.4215729999999975">
        <ele>772.638</ele>
        <time>2022-08-24T13:48:10Z</time>
      </trkpt>
      <trkpt lat="42.96754099999977" lon="-1.4215899999999975">
        <ele>772.892</ele>
        <time>2022-08-24T13:48:11Z</time>
      </trkpt>
      <trkpt lat="42.96754099999977" lon="-1.4216059999999975">
        <ele>773.061</ele>
        <time>2022-08-24T13:48:12Z</time>
      </trkpt>
      <trkpt lat="42.96754099999977" lon="-1.4216249999999975">
        <ele>773.042</ele>
        <time>2022-08-24T13:48:13Z</time>
      </trkpt>
      <trkpt lat="42.96754099999977" lon="-1.4216459999999975">
        <ele>773.222</ele>
        <time>2022-08-24T13:48:14Z</time>
      </trkpt>
      <trkpt lat="42.96753999999977" lon="-1.4216659999999974">
        <ele>773.214</ele>
        <time>2022-08-24T13:48:15Z</time>
      </trkpt>
      <trkpt lat="42.96753999999977" lon="-1.4216879999999974">
        <ele>773.409</ele>
        <time>2022-08-24T13:48:16Z</time>
      </trkpt>
      <trkpt lat="42.96753799999977" lon="-1.4217089999999974">
        <ele>773.445</ele>
        <time>2022-08-24T13:48:17Z</time>
      </trkpt>
      <trkpt lat="42.96753799999977" lon="-1.4217299999999975">
        <ele>773.635</ele>
        <time>2022-08-24T13:48:18Z</time>
      </trkpt>
      <trkpt lat="42.96753699999977" lon="-1.4217499999999974">
        <ele>774.025</ele>
        <time>2022-08-24T13:48:19Z</time>
      </trkpt>
      <trkpt lat="42.96753499999977" lon="-1.4217689999999974">
        <ele>774.261</ele>
        <time>2022-08-24T13:48:20Z</time>
      </trkpt>
      <trkpt lat="42.96753199999977" lon="-1.4217879999999974">
        <ele>774.453</ele>
        <time>2022-08-24T13:48:21Z</time>
      </trkpt>
      <trkpt lat="42.967527999999774" lon="-1.4218119999999974">
        <ele>774.680</ele>
        <time>2022-08-24T13:48:22Z</time>
      </trkpt>
      <trkpt lat="42.96752599999977" lon="-1.4218289999999973">
        <ele>774.883</ele>
        <time>2022-08-24T13:48:23Z</time>
      </trkpt>
      <trkpt lat="42.96752299999977" lon="-1.4218499999999974">
        <ele>775.067</ele>
        <time>2022-08-24T13:48:24Z</time>
      </trkpt>
      <trkpt lat="42.96752099999977" lon="-1.4218679999999975">
        <ele>775.026</ele>
        <time>2022-08-24T13:48:25Z</time>
      </trkpt>
      <trkpt lat="42.96752099999977" lon="-1.4218839999999975">
        <ele>775.463</ele>
        <time>2022-08-24T13:48:26Z</time>
      </trkpt>
      <trkpt lat="42.96751899999977" lon="-1.4219009999999974">
        <ele>775.444</ele>
        <time>2022-08-24T13:48:27Z</time>
      </trkpt>
      <trkpt lat="42.967516999999766" lon="-1.4219189999999975">
        <ele>775.618</ele>
        <time>2022-08-24T13:48:28Z</time>
      </trkpt>
      <trkpt lat="42.967514999999764" lon="-1.4219369999999976">
        <ele>775.609</ele>
        <time>2022-08-24T13:48:29Z</time>
      </trkpt>
      <trkpt lat="42.967514999999764" lon="-1.4219549999999976">
        <ele>775.857</ele>
        <time>2022-08-24T13:48:30Z</time>
      </trkpt>
      <trkpt lat="42.967514999999764" lon="-1.4219749999999975">
        <ele>776.067</ele>
        <time>2022-08-24T13:48:31Z</time>
      </trkpt>
      <trkpt lat="42.96751399999977" lon="-1.4219949999999975">
        <ele>776.047</ele>
        <time>2022-08-24T13:48:32Z</time>
      </trkpt>
      <trkpt lat="42.96751299999977" lon="-1.4220149999999974">
        <ele>776.293</ele>
        <time>2022-08-24T13:48:33Z</time>
      </trkpt>
      <trkpt lat="42.96751199999977" lon="-1.4220339999999974">
        <ele>776.285</ele>
        <time>2022-08-24T13:48:34Z</time>
      </trkpt>
      <trkpt lat="42.96750999999977" lon="-1.4220519999999974">
        <ele>776.462</ele>
        <time>2022-08-24T13:48:35Z</time>
      </trkpt>
      <trkpt lat="42.96750999999977" lon="-1.4220739999999974">
        <ele>776.445</ele>
        <time>2022-08-24T13:48:36Z</time>
      </trkpt>
      <trkpt lat="42.96750999999977" lon="-1.4220949999999974">
        <ele>776.419</ele>
        <time>2022-08-24T13:48:37Z</time>
      </trkpt>
      <trkpt lat="42.96750799999977" lon="-1.4221159999999975">
        <ele>776.698</ele>
        <time>2022-08-24T13:48:38Z</time>
      </trkpt>
      <trkpt lat="42.96750499999977" lon="-1.4221369999999975">
        <ele>776.635</ele>
        <time>2022-08-24T13:48:39Z</time>
      </trkpt>
      <trkpt lat="42.96750699999977" lon="-1.4221599999999976">
        <ele>776.686</ele>
        <time>2022-08-24T13:48:40Z</time>
      </trkpt>
      <trkpt lat="42.96750699999977" lon="-1.4221829999999978">
        <ele>776.814</ele>
        <time>2022-08-24T13:48:41Z</time>
      </trkpt>
      <trkpt lat="42.96750599999977" lon="-1.4222039999999978">
        <ele>776.809</ele>
        <time>2022-08-24T13:48:42Z</time>
      </trkpt>
      <trkpt lat="42.967501999999776" lon="-1.4222239999999977">
        <ele>776.834</ele>
        <time>2022-08-24T13:48:43Z</time>
      </trkpt>
      <trkpt lat="42.967496999999774" lon="-1.4222439999999976">
        <ele>776.884</ele>
        <time>2022-08-24T13:48:44Z</time>
      </trkpt>
      <trkpt lat="42.96749299999978" lon="-1.4222639999999975">
        <ele>776.814</ele>
        <time>2022-08-24T13:48:45Z</time>
      </trkpt>
      <trkpt lat="42.96748699999978" lon="-1.4222809999999975">
        <ele>777.070</ele>
        <time>2022-08-24T13:48:46Z</time>
      </trkpt>
      <trkpt lat="42.96748099999978" lon="-1.4222979999999974">
        <ele>777.062</ele>
        <time>2022-08-24T13:48:47Z</time>
      </trkpt>
      <trkpt lat="42.96747499999978" lon="-1.4223179999999973">
        <ele>777.289</ele>
        <time>2022-08-24T13:48:48Z</time>
      </trkpt>
      <trkpt lat="42.96746999999978" lon="-1.4223369999999973">
        <ele>777.492</ele>
        <time>2022-08-24T13:48:49Z</time>
      </trkpt>
      <trkpt lat="42.96746699999978" lon="-1.4223579999999973">
        <ele>777.636</ele>
        <time>2022-08-24T13:48:50Z</time>
      </trkpt>
      <trkpt lat="42.96746399999978" lon="-1.4223779999999973">
        <ele>777.675</ele>
        <time>2022-08-24T13:48:51Z</time>
      </trkpt>
      <trkpt lat="42.96745699999978" lon="-1.4223979999999972">
        <ele>777.867</ele>
        <time>2022-08-24T13:48:52Z</time>
      </trkpt>
      <trkpt lat="42.967424999999785" lon="-1.4224789999999972">
        <ele>778.481</ele>
        <time>2022-08-24T13:48:56Z</time>
      </trkpt>
      <trkpt lat="42.967416999999784" lon="-1.4225199999999971">
        <ele>778.619</ele>
        <time>2022-08-24T13:48:58Z</time>
      </trkpt>
      <trkpt lat="42.96741199999978" lon="-1.4225389999999971">
        <ele>778.809</ele>
        <time>2022-08-24T13:48:59Z</time>
      </trkpt>
      <trkpt lat="42.967407999999786" lon="-1.4225569999999972">
        <ele>779.087</ele>
        <time>2022-08-24T13:49:00Z</time>
      </trkpt>
      <trkpt lat="42.967402999999784" lon="-1.422576999999997">
        <ele>779.287</ele>
        <time>2022-08-24T13:49:01Z</time>
      </trkpt>
      <trkpt lat="42.96740099999978" lon="-1.4225979999999971">
        <ele>779.477</ele>
        <time>2022-08-24T13:49:02Z</time>
      </trkpt>
      <trkpt lat="42.967396999999785" lon="-1.4226189999999972">
        <ele>779.463</ele>
        <time>2022-08-24T13:49:03Z</time>
      </trkpt>
      <trkpt lat="42.967393999999786" lon="-1.4226369999999973">
        <ele>779.665</ele>
        <time>2022-08-24T13:49:04Z</time>
      </trkpt>
      <trkpt lat="42.96738999999979" lon="-1.4226589999999972">
        <ele>779.672</ele>
        <time>2022-08-24T13:49:05Z</time>
      </trkpt>
      <trkpt lat="42.96738799999979" lon="-1.4226749999999972">
        <ele>779.895</ele>
        <time>2022-08-24T13:49:06Z</time>
      </trkpt>
      <trkpt lat="42.967385999999784" lon="-1.4226959999999973">
        <ele>780.019</ele>
        <time>2022-08-24T13:49:07Z</time>
      </trkpt>
      <trkpt lat="42.96738699999978" lon="-1.4227179999999973">
        <ele>780.238</ele>
        <time>2022-08-24T13:49:08Z</time>
      </trkpt>
      <trkpt lat="42.967388999999784" lon="-1.4227389999999973">
        <ele>780.458</ele>
        <time>2022-08-24T13:49:09Z</time>
      </trkpt>
      <trkpt lat="42.967388999999784" lon="-1.4227649999999974">
        <ele>780.652</ele>
        <time>2022-08-24T13:49:10Z</time>
      </trkpt>
      <trkpt lat="42.96738799999979" lon="-1.4227979999999973">
        <ele>780.817</ele>
        <time>2022-08-24T13:49:11Z</time>
      </trkpt>
      <trkpt lat="42.967385999999784" lon="-1.4228359999999973">
        <ele>780.809</ele>
        <time>2022-08-24T13:49:12Z</time>
      </trkpt>
      <trkpt lat="42.96738399999978" lon="-1.4228749999999972">
        <ele>781.056</ele>
        <time>2022-08-24T13:49:13Z</time>
      </trkpt>
      <trkpt lat="42.967382999999785" lon="-1.4229079999999972">
        <ele>781.046</ele>
        <time>2022-08-24T13:49:14Z</time>
      </trkpt>
      <trkpt lat="42.96738499999979" lon="-1.4229459999999972">
        <ele>781.076</ele>
        <time>2022-08-24T13:49:15Z</time>
      </trkpt>
      <trkpt lat="42.967385999999784" lon="-1.422981999999997">
        <ele>781.062</ele>
        <time>2022-08-24T13:49:16Z</time>
      </trkpt>
      <trkpt lat="42.96738799999979" lon="-1.423012999999997">
        <ele>781.024</ele>
        <time>2022-08-24T13:49:17Z</time>
      </trkpt>
      <trkpt lat="42.96738699999979" lon="-1.423036999999997">
        <ele>780.821</ele>
        <time>2022-08-24T13:49:18Z</time>
      </trkpt>
      <trkpt lat="42.96738399999979" lon="-1.423058999999997">
        <ele>780.624</ele>
        <time>2022-08-24T13:49:19Z</time>
      </trkpt>
      <trkpt lat="42.96737299999979" lon="-1.423084999999997">
        <ele>780.248</ele>
        <time>2022-08-24T13:49:20Z</time>
      </trkpt>
      <trkpt lat="42.96735499999979" lon="-1.423114999999997">
        <ele>779.897</ele>
        <time>2022-08-24T13:49:21Z</time>
      </trkpt>
      <trkpt lat="42.96733799999979" lon="-1.423150999999997">
        <ele>779.637</ele>
        <time>2022-08-24T13:49:22Z</time>
      </trkpt>
      <trkpt lat="42.967322999999794" lon="-1.423192999999997">
        <ele>779.249</ele>
        <time>2022-08-24T13:49:23Z</time>
      </trkpt>
      <trkpt lat="42.967302999999795" lon="-1.423274999999997">
        <ele>778.813</ele>
        <time>2022-08-24T13:49:25Z</time>
      </trkpt>
      <trkpt lat="42.9672959999998" lon="-1.4233139999999969">
        <ele>778.409</ele>
        <time>2022-08-24T13:49:26Z</time>
      </trkpt>
      <trkpt lat="42.9672739999998" lon="-1.4234279999999968">
        <ele>778.054</ele>
        <time>2022-08-24T13:49:29Z</time>
      </trkpt>
      <trkpt lat="42.967274999999795" lon="-1.4234689999999968">
        <ele>778.024</ele>
        <time>2022-08-24T13:49:30Z</time>
      </trkpt>
      <trkpt lat="42.9672769999998" lon="-1.4235079999999967">
        <ele>777.894</ele>
        <time>2022-08-24T13:49:31Z</time>
      </trkpt>
      <trkpt lat="42.967271999999795" lon="-1.4235459999999966">
        <ele>777.860</ele>
        <time>2022-08-24T13:49:32Z</time>
      </trkpt>
      <trkpt lat="42.9672679999998" lon="-1.4235809999999967">
        <ele>777.652</ele>
        <time>2022-08-24T13:49:33Z</time>
      </trkpt>
      <trkpt lat="42.9672639999998" lon="-1.4236169999999966">
        <ele>777.679</ele>
        <time>2022-08-24T13:49:34Z</time>
      </trkpt>
      <trkpt lat="42.9672519999998" lon="-1.4236549999999966">
        <ele>776.842</ele>
        <time>2022-08-24T13:49:35Z</time>
      </trkpt>
      <trkpt lat="42.967239999999805" lon="-1.4236919999999966">
        <ele>776.616</ele>
        <time>2022-08-24T13:49:36Z</time>
      </trkpt>
      <trkpt lat="42.96722499999981" lon="-1.4237309999999965">
        <ele>776.295</ele>
        <time>2022-08-24T13:49:37Z</time>
      </trkpt>
      <trkpt lat="42.96721299999981" lon="-1.4237719999999965">
        <ele>775.453</ele>
        <time>2022-08-24T13:49:38Z</time>
      </trkpt>
      <trkpt lat="42.96720799999981" lon="-1.4238109999999964">
        <ele>775.204</ele>
        <time>2022-08-24T13:49:39Z</time>
      </trkpt>
      <trkpt lat="42.96720399999981" lon="-1.4238459999999964">
        <ele>774.814</ele>
        <time>2022-08-24T13:49:40Z</time>
      </trkpt>
      <trkpt lat="42.967196999999814" lon="-1.4239199999999963">
        <ele>774.009</ele>
        <time>2022-08-24T13:49:42Z</time>
      </trkpt>
      <trkpt lat="42.96719199999981" lon="-1.4239689999999963">
        <ele>773.686</ele>
        <time>2022-08-24T13:49:43Z</time>
      </trkpt>
      <trkpt lat="42.967184999999816" lon="-1.4240489999999963">
        <ele>773.056</ele>
        <time>2022-08-24T13:49:45Z</time>
      </trkpt>
      <trkpt lat="42.967176999999815" lon="-1.4241059999999963">
        <ele>772.616</ele>
        <time>2022-08-24T13:49:46Z</time>
      </trkpt>
      <trkpt lat="42.96714199999982" lon="-1.4242639999999964">
        <ele>772.072</ele>
        <time>2022-08-24T13:49:48Z</time>
      </trkpt>
      <trkpt lat="42.96711399999982" lon="-1.4243429999999964">
        <ele>771.674</ele>
        <time>2022-08-24T13:49:49Z</time>
      </trkpt>
      <trkpt lat="42.96709999999982" lon="-1.4244129999999964">
        <ele>771.221</ele>
        <time>2022-08-24T13:49:50Z</time>
      </trkpt>
      <trkpt lat="42.96707899999982" lon="-1.4244619999999963">
        <ele>771.044</ele>
        <time>2022-08-24T13:49:51Z</time>
      </trkpt>
      <trkpt lat="42.96702999999982" lon="-1.4245499999999964">
        <ele>770.678</ele>
        <time>2022-08-24T13:49:53Z</time>
      </trkpt>
      <trkpt lat="42.96700899999983" lon="-1.4246289999999964">
        <ele>770.027</ele>
        <time>2022-08-24T13:49:54Z</time>
      </trkpt>
      <trkpt lat="42.96699099999983" lon="-1.4246959999999964">
        <ele>769.885</ele>
        <time>2022-08-24T13:49:55Z</time>
      </trkpt>
      <trkpt lat="42.96697599999983" lon="-1.4247529999999964">
        <ele>769.689</ele>
        <time>2022-08-24T13:49:56Z</time>
      </trkpt>
      <trkpt lat="42.966968999999835" lon="-1.4248129999999963">
        <ele>769.417</ele>
        <time>2022-08-24T13:49:57Z</time>
      </trkpt>
      <trkpt lat="42.96697399999984" lon="-1.4249309999999964">
        <ele>768.409</ele>
        <time>2022-08-24T13:49:59Z</time>
      </trkpt>
      <trkpt lat="42.96694499999984" lon="-1.4250269999999965">
        <ele>768.019</ele>
        <time>2022-08-24T13:50:00Z</time>
      </trkpt>
      <trkpt lat="42.96688199999984" lon="-1.4251859999999965">
        <ele>767.289</ele>
        <time>2022-08-24T13:50:02Z</time>
      </trkpt>
      <trkpt lat="42.96685399999984" lon="-1.4252519999999964">
        <ele>767.299</ele>
        <time>2022-08-24T13:50:03Z</time>
      </trkpt>
      <trkpt lat="42.96680999999984" lon="-1.4253199999999964">
        <ele>766.865</ele>
        <time>2022-08-24T13:50:04Z</time>
      </trkpt>
      <trkpt lat="42.966782999999836" lon="-1.4253719999999963">
        <ele>766.457</ele>
        <time>2022-08-24T13:50:05Z</time>
      </trkpt>
      <trkpt lat="42.96677299999983" lon="-1.4254059999999964">
        <ele>766.094</ele>
        <time>2022-08-24T13:50:06Z</time>
      </trkpt>
      <trkpt lat="42.96671399999983" lon="-1.4254729999999964">
        <ele>765.817</ele>
        <time>2022-08-24T13:50:08Z</time>
      </trkpt>
      <trkpt lat="42.96667299999983" lon="-1.4255159999999965">
        <ele>765.671</ele>
        <time>2022-08-24T13:50:09Z</time>
      </trkpt>
      <trkpt lat="42.96661299999983" lon="-1.4256149999999965">
        <ele>765.280</ele>
        <time>2022-08-24T13:50:11Z</time>
      </trkpt>
      <trkpt lat="42.96658599999983" lon="-1.4256879999999965">
        <ele>765.026</ele>
        <time>2022-08-24T13:50:12Z</time>
      </trkpt>
      <trkpt lat="42.96655599999983" lon="-1.4257479999999965">
        <ele>765.047</ele>
        <time>2022-08-24T13:50:13Z</time>
      </trkpt>
      <trkpt lat="42.966553999999824" lon="-1.4257919999999964">
        <ele>764.811</ele>
        <time>2022-08-24T13:50:14Z</time>
      </trkpt>
      <trkpt lat="42.966559999999824" lon="-1.4258209999999965">
        <ele>764.609</ele>
        <time>2022-08-24T13:50:15Z</time>
      </trkpt>
      <trkpt lat="42.966559999999824" lon="-1.4258719999999965">
        <ele>764.213</ele>
        <time>2022-08-24T13:50:16Z</time>
      </trkpt>
      <trkpt lat="42.966558999999826" lon="-1.4259149999999965">
        <ele>764.293</ele>
        <time>2022-08-24T13:50:17Z</time>
      </trkpt>
      <trkpt lat="42.966558999999826" lon="-1.4259589999999964">
        <ele>763.883</ele>
        <time>2022-08-24T13:50:18Z</time>
      </trkpt>
      <trkpt lat="42.96654599999982" lon="-1.4260079999999964">
        <ele>763.869</ele>
        <time>2022-08-24T13:50:19Z</time>
      </trkpt>
      <trkpt lat="42.96649299999982" lon="-1.4260719999999965">
        <ele>763.051</ele>
        <time>2022-08-24T13:50:20Z</time>
      </trkpt>
      <trkpt lat="42.96644899999982" lon="-1.4261099999999964">
        <ele>762.468</ele>
        <time>2022-08-24T13:50:21Z</time>
      </trkpt>
      <trkpt lat="42.966424999999816" lon="-1.4261579999999965">
        <ele>762.021</ele>
        <time>2022-08-24T13:50:22Z</time>
      </trkpt>
      <trkpt lat="42.966413999999816" lon="-1.4261999999999966">
        <ele>761.695</ele>
        <time>2022-08-24T13:50:23Z</time>
      </trkpt>
      <trkpt lat="42.96641799999981" lon="-1.4262479999999966">
        <ele>761.474</ele>
        <time>2022-08-24T13:50:24Z</time>
      </trkpt>
      <trkpt lat="42.96641299999981" lon="-1.4262879999999967">
        <ele>761.044</ele>
        <time>2022-08-24T13:50:25Z</time>
      </trkpt>
      <trkpt lat="42.96638799999981" lon="-1.4264109999999968">
        <ele>760.405</ele>
        <time>2022-08-24T13:50:27Z</time>
      </trkpt>
      <trkpt lat="42.96634999999981" lon="-1.4264899999999967">
        <ele>759.815</ele>
        <time>2022-08-24T13:50:28Z</time>
      </trkpt>
      <trkpt lat="42.96633199999981" lon="-1.4265339999999966">
        <ele>759.809</ele>
        <time>2022-08-24T13:50:29Z</time>
      </trkpt>
      <trkpt lat="42.96632799999981" lon="-1.4265589999999966">
        <ele>759.425</ele>
        <time>2022-08-24T13:50:30Z</time>
      </trkpt>
      <trkpt lat="42.966315999999814" lon="-1.4266239999999966">
        <ele>759.265</ele>
        <time>2022-08-24T13:50:31Z</time>
      </trkpt>
      <trkpt lat="42.96630299999981" lon="-1.4266559999999966">
        <ele>758.625</ele>
        <time>2022-08-24T13:50:32Z</time>
      </trkpt>
      <trkpt lat="42.96625199999981" lon="-1.4267819999999967">
        <ele>757.851</ele>
        <time>2022-08-24T13:50:35Z</time>
      </trkpt>
      <trkpt lat="42.96621499999981" lon="-1.4268229999999966">
        <ele>757.853</ele>
        <time>2022-08-24T13:50:36Z</time>
      </trkpt>
      <trkpt lat="42.96618199999981" lon="-1.4268499999999966">
        <ele>757.240</ele>
        <time>2022-08-24T13:50:37Z</time>
      </trkpt>
      <trkpt lat="42.96616999999981" lon="-1.4268709999999967">
        <ele>757.093</ele>
        <time>2022-08-24T13:50:38Z</time>
      </trkpt>
      <trkpt lat="42.96615999999981" lon="-1.4268929999999966">
        <ele>756.837</ele>
        <time>2022-08-24T13:50:39Z</time>
      </trkpt>
      <trkpt lat="42.96614299999981" lon="-1.4269599999999967">
        <ele>756.276</ele>
        <time>2022-08-24T13:50:41Z</time>
      </trkpt>
      <trkpt lat="42.96611299999981" lon="-1.4270849999999966">
        <ele>755.884</ele>
        <time>2022-08-24T13:50:43Z</time>
      </trkpt>
      <trkpt lat="42.96607799999981" lon="-1.4272609999999966">
        <ele>755.007</ele>
        <time>2022-08-24T13:50:45Z</time>
      </trkpt>
      <trkpt lat="42.96604399999981" lon="-1.4273279999999966">
        <ele>754.817</ele>
        <time>2022-08-24T13:50:46Z</time>
      </trkpt>
      <trkpt lat="42.96603099999981" lon="-1.4273649999999967">
        <ele>754.609</ele>
        <time>2022-08-24T13:50:47Z</time>
      </trkpt>
      <trkpt lat="42.96601199999981" lon="-1.4274689999999968">
        <ele>754.089</ele>
        <time>2022-08-24T13:50:49Z</time>
      </trkpt>
      <trkpt lat="42.96599399999981" lon="-1.4275289999999967">
        <ele>753.889</ele>
        <time>2022-08-24T13:50:50Z</time>
      </trkpt>
      <trkpt lat="42.96598499999981" lon="-1.4275749999999967">
        <ele>753.669</ele>
        <time>2022-08-24T13:50:51Z</time>
      </trkpt>
      <trkpt lat="42.965969999999814" lon="-1.4276289999999967">
        <ele>753.465</ele>
        <time>2022-08-24T13:50:52Z</time>
      </trkpt>
      <trkpt lat="42.96593499999982" lon="-1.4277719999999967">
        <ele>752.847</ele>
        <time>2022-08-24T13:50:54Z</time>
      </trkpt>
      <trkpt lat="42.96591799999982" lon="-1.4278389999999967">
        <ele>752.654</ele>
        <time>2022-08-24T13:50:55Z</time>
      </trkpt>
      <trkpt lat="42.96589699999982" lon="-1.4278889999999969">
        <ele>752.647</ele>
        <time>2022-08-24T13:50:56Z</time>
      </trkpt>
      <trkpt lat="42.96585599999982" lon="-1.4279979999999968">
        <ele>752.421</ele>
        <time>2022-08-24T13:50:58Z</time>
      </trkpt>
      <trkpt lat="42.96580799999982" lon="-1.4280949999999968">
        <ele>752.270</ele>
        <time>2022-08-24T13:51:00Z</time>
      </trkpt>
      <trkpt lat="42.965769999999814" lon="-1.4281949999999968">
        <ele>752.045</ele>
        <time>2022-08-24T13:51:02Z</time>
      </trkpt>
      <trkpt lat="42.965741999999814" lon="-1.4282379999999968">
        <ele>752.047</ele>
        <time>2022-08-24T13:51:03Z</time>
      </trkpt>
      <trkpt lat="42.965710999999814" lon="-1.4282779999999968">
        <ele>751.811</ele>
        <time>2022-08-24T13:51:04Z</time>
      </trkpt>
      <trkpt lat="42.96569999999981" lon="-1.4282969999999968">
        <ele>751.809</ele>
        <time>2022-08-24T13:51:05Z</time>
      </trkpt>
      <trkpt lat="42.965681999999816" lon="-1.4283459999999968">
        <ele>751.895</ele>
        <time>2022-08-24T13:51:06Z</time>
      </trkpt>
      <trkpt lat="42.96567199999981" lon="-1.4283869999999967">
        <ele>751.855</ele>
        <time>2022-08-24T13:51:07Z</time>
      </trkpt>
      <trkpt lat="42.965659999999815" lon="-1.4284059999999967">
        <ele>751.685</ele>
        <time>2022-08-24T13:51:08Z</time>
      </trkpt>
      <trkpt lat="42.96575399999981" lon="-1.4285049999999968">
        <ele>750.881</ele>
        <time>2022-08-24T13:51:13Z</time>
      </trkpt>
      <trkpt lat="42.96577399999981" lon="-1.4285339999999969">
        <ele>750.613</ele>
        <time>2022-08-24T13:51:14Z</time>
      </trkpt>
      <trkpt lat="42.96585399999981" lon="-1.428632999999997">
        <ele>750.070</ele>
        <time>2022-08-24T13:51:17Z</time>
      </trkpt>
      <trkpt lat="42.965882999999806" lon="-1.428661999999997">
        <ele>749.863</ele>
        <time>2022-08-24T13:51:18Z</time>
      </trkpt>
      <trkpt lat="42.96590999999981" lon="-1.428694999999997">
        <ele>749.627</ele>
        <time>2022-08-24T13:51:19Z</time>
      </trkpt>
      <trkpt lat="42.965930999999806" lon="-1.428721999999997">
        <ele>749.656</ele>
        <time>2022-08-24T13:51:20Z</time>
      </trkpt>
      <trkpt lat="42.965939999999804" lon="-1.4287419999999968">
        <ele>749.619</ele>
        <time>2022-08-24T13:51:21Z</time>
      </trkpt>
      <trkpt lat="42.9659379999998" lon="-1.4287739999999969">
        <ele>749.609</ele>
        <time>2022-08-24T13:51:22Z</time>
      </trkpt>
      <trkpt lat="42.9659299999998" lon="-1.4288019999999968">
        <ele>749.619</ele>
        <time>2022-08-24T13:51:23Z</time>
      </trkpt>
      <trkpt lat="42.965911999999804" lon="-1.4288489999999967">
        <ele>749.809</ele>
        <time>2022-08-24T13:51:25Z</time>
      </trkpt>
      <trkpt lat="42.9659099999998" lon="-1.4288579999999966">
        <ele>750.272</ele>
        <time>2022-08-24T13:51:28Z</time>
      </trkpt>
      <trkpt lat="42.965908999999805" lon="-1.4288859999999965">
        <ele>750.432</ele>
        <time>2022-08-24T13:51:30Z</time>
      </trkpt>
      <trkpt lat="42.965874999999805" lon="-1.4290289999999966">
        <ele>750.672</ele>
        <time>2022-08-24T13:51:35Z</time>
      </trkpt>
      <trkpt lat="42.96585699999981" lon="-1.4290879999999966">
        <ele>750.638</ele>
        <time>2022-08-24T13:51:37Z</time>
      </trkpt>
      <trkpt lat="42.96585099999981" lon="-1.4291119999999966">
        <ele>750.630</ele>
        <time>2022-08-24T13:51:38Z</time>
      </trkpt>
      <trkpt lat="42.96584899999981" lon="-1.4291249999999966">
        <ele>750.687</ele>
        <time>2022-08-24T13:51:39Z</time>
      </trkpt>
      <trkpt lat="42.96584799999981" lon="-1.4291289999999965">
        <ele>750.690</ele>
        <time>2022-08-24T13:51:40Z</time>
      </trkpt>
      <trkpt lat="42.96583599999981" lon="-1.4291659999999966">
        <ele>750.024</ele>
        <time>2022-08-24T13:51:49Z</time>
      </trkpt>
      <trkpt lat="42.96578099999981" lon="-1.4292659999999966">
        <ele>750.063</ele>
        <time>2022-08-24T13:51:52Z</time>
      </trkpt>
      <trkpt lat="42.96567999999981" lon="-1.4295369999999965">
        <ele>749.662</ele>
        <time>2022-08-24T13:51:57Z</time>
      </trkpt>
      <trkpt lat="42.965654999999806" lon="-1.4295849999999966">
        <ele>749.483</ele>
        <time>2022-08-24T13:51:58Z</time>
      </trkpt>
      <trkpt lat="42.965629999999805" lon="-1.4296319999999965">
        <ele>749.211</ele>
        <time>2022-08-24T13:51:59Z</time>
      </trkpt>
      <trkpt lat="42.9656059999998" lon="-1.4296779999999965">
        <ele>749.009</ele>
        <time>2022-08-24T13:52:00Z</time>
      </trkpt>
      <trkpt lat="42.9655889999998" lon="-1.4297309999999965">
        <ele>749.017</ele>
        <time>2022-08-24T13:52:01Z</time>
      </trkpt>
      <trkpt lat="42.9655789999998" lon="-1.4297879999999965">
        <ele>749.077</ele>
        <time>2022-08-24T13:52:02Z</time>
      </trkpt>
      <trkpt lat="42.9655639999998" lon="-1.4298409999999966">
        <ele>749.057</ele>
        <time>2022-08-24T13:52:03Z</time>
      </trkpt>
      <trkpt lat="42.9655559999998" lon="-1.4298969999999966">
        <ele>748.833</ele>
        <time>2022-08-24T13:52:04Z</time>
      </trkpt>
      <trkpt lat="42.9655469999998" lon="-1.4299519999999966">
        <ele>748.655</ele>
        <time>2022-08-24T13:52:05Z</time>
      </trkpt>
      <trkpt lat="42.9655329999998" lon="-1.4300049999999966">
        <ele>748.692</ele>
        <time>2022-08-24T13:52:06Z</time>
      </trkpt>
      <trkpt lat="42.9654999999998" lon="-1.4301159999999966">
        <ele>748.475</ele>
        <time>2022-08-24T13:52:08Z</time>
      </trkpt>
      <trkpt lat="42.9654779999998" lon="-1.4302389999999967">
        <ele>747.679</ele>
        <time>2022-08-24T13:52:10Z</time>
      </trkpt>
      <trkpt lat="42.9654099999998" lon="-1.4306509999999968">
        <ele>746.848</ele>
        <time>2022-08-24T13:52:16Z</time>
      </trkpt>
      <trkpt lat="42.9653819999998" lon="-1.4308039999999969">
        <ele>746.658</ele>
        <time>2022-08-24T13:52:18Z</time>
      </trkpt>
      <trkpt lat="42.9653689999998" lon="-1.430878999999997">
        <ele>746.652</ele>
        <time>2022-08-24T13:52:19Z</time>
      </trkpt>
      <trkpt lat="42.965315999999795" lon="-1.431098999999997">
        <ele>746.017</ele>
        <time>2022-08-24T13:52:22Z</time>
      </trkpt>
      <trkpt lat="42.965298999999796" lon="-1.431167999999997">
        <ele>745.809</ele>
        <time>2022-08-24T13:52:23Z</time>
      </trkpt>
      <trkpt lat="42.9652809999998" lon="-1.4312349999999971">
        <ele>745.896</ele>
        <time>2022-08-24T13:52:24Z</time>
      </trkpt>
      <trkpt lat="42.9652589999998" lon="-1.431300999999997">
        <ele>745.666</ele>
        <time>2022-08-24T13:52:25Z</time>
      </trkpt>
      <trkpt lat="42.965234999999794" lon="-1.431363999999997">
        <ele>745.646</ele>
        <time>2022-08-24T13:52:26Z</time>
      </trkpt>
      <trkpt lat="42.9651859999998" lon="-1.431490999999997">
        <ele>745.022</ele>
        <time>2022-08-24T13:52:28Z</time>
      </trkpt>
      <trkpt lat="42.9650749999998" lon="-1.431747999999997">
        <ele>744.684</ele>
        <time>2022-08-24T13:52:32Z</time>
      </trkpt>
      <trkpt lat="42.9649679999998" lon="-1.432003999999997">
        <ele>744.261</ele>
        <time>2022-08-24T13:52:36Z</time>
      </trkpt>
      <trkpt lat="42.9649409999998" lon="-1.432065999999997">
        <ele>744.244</ele>
        <time>2022-08-24T13:52:37Z</time>
      </trkpt>
      <trkpt lat="42.9649119999998" lon="-1.4321239999999968">
        <ele>744.258</ele>
        <time>2022-08-24T13:52:38Z</time>
      </trkpt>
      <trkpt lat="42.9648799999998" lon="-1.4321759999999968">
        <ele>744.027</ele>
        <time>2022-08-24T13:52:39Z</time>
      </trkpt>
      <trkpt lat="42.9648439999998" lon="-1.4322229999999967">
        <ele>743.825</ele>
        <time>2022-08-24T13:52:40Z</time>
      </trkpt>
      <trkpt lat="42.9648069999998" lon="-1.4322709999999967">
        <ele>743.426</ele>
        <time>2022-08-24T13:52:41Z</time>
      </trkpt>
      <trkpt lat="42.9647649999998" lon="-1.4323169999999967">
        <ele>743.208</ele>
        <time>2022-08-24T13:52:42Z</time>
      </trkpt>
      <trkpt lat="42.9647259999998" lon="-1.4323639999999966">
        <ele>743.009</ele>
        <time>2022-08-24T13:52:43Z</time>
      </trkpt>
      <trkpt lat="42.9646899999998" lon="-1.4324079999999966">
        <ele>742.433</ele>
        <time>2022-08-24T13:52:44Z</time>
      </trkpt>
      <trkpt lat="42.9646559999998" lon="-1.4324519999999965">
        <ele>742.453</ele>
        <time>2022-08-24T13:52:45Z</time>
      </trkpt>
      <trkpt lat="42.9646239999998" lon="-1.4324999999999966">
        <ele>742.093</ele>
        <time>2022-08-24T13:52:46Z</time>
      </trkpt>
      <trkpt lat="42.964594999999804" lon="-1.4325459999999965">
        <ele>742.059</ele>
        <time>2022-08-24T13:52:47Z</time>
      </trkpt>
      <trkpt lat="42.9645419999998" lon="-1.4326439999999965">
        <ele>742.081</ele>
        <time>2022-08-24T13:52:49Z</time>
      </trkpt>
      <trkpt lat="42.9645219999998" lon="-1.4326929999999964">
        <ele>742.288</ele>
        <time>2022-08-24T13:52:50Z</time>
      </trkpt>
      <trkpt lat="42.9644999999998" lon="-1.4327349999999965">
        <ele>742.451</ele>
        <time>2022-08-24T13:52:51Z</time>
      </trkpt>
      <trkpt lat="42.9644779999998" lon="-1.4327779999999966">
        <ele>742.475</ele>
        <time>2022-08-24T13:52:52Z</time>
      </trkpt>
      <trkpt lat="42.964456999999804" lon="-1.4328209999999966">
        <ele>742.624</ele>
        <time>2022-08-24T13:52:53Z</time>
      </trkpt>
      <trkpt lat="42.9644379999998" lon="-1.4328629999999967">
        <ele>742.623</ele>
        <time>2022-08-24T13:52:54Z</time>
      </trkpt>
      <trkpt lat="42.9644189999998" lon="-1.4329059999999967">
        <ele>742.683</ele>
        <time>2022-08-24T13:52:55Z</time>
      </trkpt>
      <trkpt lat="42.9643989999998" lon="-1.4329469999999966">
        <ele>743.011</ele>
        <time>2022-08-24T13:52:56Z</time>
      </trkpt>
      <trkpt lat="42.9642419999998" lon="-1.4332419999999966">
        <ele>743.809</ele>
        <time>2022-08-24T13:53:03Z</time>
      </trkpt>
      <trkpt lat="42.9642189999998" lon="-1.4332749999999965">
        <ele>743.883</ele>
        <time>2022-08-24T13:53:04Z</time>
      </trkpt>
      <trkpt lat="42.9641959999998" lon="-1.4333059999999964">
        <ele>743.823</ele>
        <time>2022-08-24T13:53:05Z</time>
      </trkpt>
      <trkpt lat="42.9641769999998" lon="-1.4333379999999964">
        <ele>744.043</ele>
        <time>2022-08-24T13:53:06Z</time>
      </trkpt>
      <trkpt lat="42.9641629999998" lon="-1.4333719999999965">
        <ele>744.259</ele>
        <time>2022-08-24T13:53:07Z</time>
      </trkpt>
      <trkpt lat="42.9641499999998" lon="-1.4334049999999965">
        <ele>744.211</ele>
        <time>2022-08-24T13:53:08Z</time>
      </trkpt>
      <trkpt lat="42.9641349999998" lon="-1.4334349999999965">
        <ele>744.488</ele>
        <time>2022-08-24T13:53:09Z</time>
      </trkpt>
      <trkpt lat="42.9641179999998" lon="-1.4334629999999964">
        <ele>744.671</ele>
        <time>2022-08-24T13:53:10Z</time>
      </trkpt>
      <trkpt lat="42.9641019999998" lon="-1.4334939999999963">
        <ele>744.885</ele>
        <time>2022-08-24T13:53:11Z</time>
      </trkpt>
      <trkpt lat="42.9640869999998" lon="-1.4335269999999962">
        <ele>745.034</ele>
        <time>2022-08-24T13:53:12Z</time>
      </trkpt>
      <trkpt lat="42.9640619999998" lon="-1.4335899999999961">
        <ele>745.475</ele>
        <time>2022-08-24T13:53:14Z</time>
      </trkpt>
      <trkpt lat="42.9640529999998" lon="-1.4336219999999962">
        <ele>745.628</ele>
        <time>2022-08-24T13:53:15Z</time>
      </trkpt>
      <trkpt lat="42.9640449999998" lon="-1.4336509999999962">
        <ele>746.020</ele>
        <time>2022-08-24T13:53:16Z</time>
      </trkpt>
      <trkpt lat="42.9640359999998" lon="-1.4336809999999962">
        <ele>746.409</ele>
        <time>2022-08-24T13:53:17Z</time>
      </trkpt>
      <trkpt lat="42.9640259999998" lon="-1.4337099999999963">
        <ele>746.698</ele>
        <time>2022-08-24T13:53:18Z</time>
      </trkpt>
      <trkpt lat="42.9640149999998" lon="-1.4337379999999962">
        <ele>747.028</ele>
        <time>2022-08-24T13:53:19Z</time>
      </trkpt>
      <trkpt lat="42.9640039999998" lon="-1.4337669999999962">
        <ele>747.258</ele>
        <time>2022-08-24T13:53:20Z</time>
      </trkpt>
      <trkpt lat="42.96399399999979" lon="-1.4337999999999962">
        <ele>747.474</ele>
        <time>2022-08-24T13:53:21Z</time>
      </trkpt>
      <trkpt lat="42.963984999999795" lon="-1.4338339999999963">
        <ele>747.646</ele>
        <time>2022-08-24T13:53:22Z</time>
      </trkpt>
      <trkpt lat="42.9639729999998" lon="-1.4338679999999964">
        <ele>747.683</ele>
        <time>2022-08-24T13:53:23Z</time>
      </trkpt>
      <trkpt lat="42.9639589999998" lon="-1.4339059999999964">
        <ele>747.876</ele>
        <time>2022-08-24T13:53:24Z</time>
      </trkpt>
      <trkpt lat="42.963942999999794" lon="-1.4339469999999963">
        <ele>748.020</ele>
        <time>2022-08-24T13:53:25Z</time>
      </trkpt>
      <trkpt lat="42.9639249999998" lon="-1.4339869999999963">
        <ele>748.029</ele>
        <time>2022-08-24T13:53:26Z</time>
      </trkpt>
      <trkpt lat="42.9639099999998" lon="-1.4340269999999964">
        <ele>748.057</ele>
        <time>2022-08-24T13:53:27Z</time>
      </trkpt>
      <trkpt lat="42.9638889999998" lon="-1.4340649999999964">
        <ele>748.000</ele>
        <time>2022-08-24T13:53:28Z</time>
      </trkpt>
      <trkpt lat="42.963867999999806" lon="-1.4341019999999964">
        <ele>748.020</ele>
        <time>2022-08-24T13:53:29Z</time>
      </trkpt>
      <trkpt lat="42.963845999999805" lon="-1.4341389999999965">
        <ele>748.009</ele>
        <time>2022-08-24T13:53:30Z</time>
      </trkpt>
      <trkpt lat="42.9638219999998" lon="-1.4341769999999965">
        <ele>747.886</ele>
        <time>2022-08-24T13:53:31Z</time>
      </trkpt>
      <trkpt lat="42.9637949999998" lon="-1.4342159999999964">
        <ele>747.466</ele>
        <time>2022-08-24T13:53:32Z</time>
      </trkpt>
      <trkpt lat="42.9637699999998" lon="-1.4342569999999963">
        <ele>747.416</ele>
        <time>2022-08-24T13:53:33Z</time>
      </trkpt>
      <trkpt lat="42.9637449999998" lon="-1.4342999999999964">
        <ele>746.822</ele>
        <time>2022-08-24T13:53:34Z</time>
      </trkpt>
      <trkpt lat="42.963722999999796" lon="-1.4343449999999964">
        <ele>746.654</ele>
        <time>2022-08-24T13:53:35Z</time>
      </trkpt>
      <trkpt lat="42.963705999999796" lon="-1.4343909999999964">
        <ele>746.071</ele>
        <time>2022-08-24T13:53:36Z</time>
      </trkpt>
      <trkpt lat="42.963688999999796" lon="-1.4344379999999963">
        <ele>745.264</ele>
        <time>2022-08-24T13:53:37Z</time>
      </trkpt>
      <trkpt lat="42.963672999999794" lon="-1.4344919999999963">
        <ele>744.648</ele>
        <time>2022-08-24T13:53:38Z</time>
      </trkpt>
      <trkpt lat="42.963635999999795" lon="-1.4346499999999964">
        <ele>743.057</ele>
        <time>2022-08-24T13:53:41Z</time>
      </trkpt>
      <trkpt lat="42.963624999999794" lon="-1.4346939999999964">
        <ele>742.839</ele>
        <time>2022-08-24T13:53:42Z</time>
      </trkpt>
      <trkpt lat="42.96361699999979" lon="-1.4347399999999964">
        <ele>742.201</ele>
        <time>2022-08-24T13:53:43Z</time>
      </trkpt>
      <trkpt lat="42.96361199999979" lon="-1.4347839999999963">
        <ele>741.821</ele>
        <time>2022-08-24T13:53:44Z</time>
      </trkpt>
      <trkpt lat="42.96359899999979" lon="-1.4350199999999962">
        <ele>740.609</ele>
        <time>2022-08-24T13:53:48Z</time>
      </trkpt>
      <trkpt lat="42.96360399999979" lon="-1.4350949999999962">
        <ele>740.034</ele>
        <time>2022-08-24T13:53:49Z</time>
      </trkpt>
      <trkpt lat="42.96361199999979" lon="-1.4351799999999961">
        <ele>739.624</ele>
        <time>2022-08-24T13:53:50Z</time>
      </trkpt>
      <trkpt lat="42.96362299999979" lon="-1.4354299999999962">
        <ele>738.044</ele>
        <time>2022-08-24T13:53:53Z</time>
      </trkpt>
      <trkpt lat="42.96361699999979" lon="-1.4355129999999963">
        <ele>737.880</ele>
        <time>2022-08-24T13:53:54Z</time>
      </trkpt>
      <trkpt lat="42.96360399999979" lon="-1.4355939999999963">
        <ele>737.452</ele>
        <time>2022-08-24T13:53:55Z</time>
      </trkpt>
      <trkpt lat="42.96357799999979" lon="-1.4356679999999962">
        <ele>737.049</ele>
        <time>2022-08-24T13:53:56Z</time>
      </trkpt>
      <trkpt lat="42.96354399999979" lon="-1.4357349999999962">
        <ele>737.072</ele>
        <time>2022-08-24T13:53:57Z</time>
      </trkpt>
      <trkpt lat="42.96350599999979" lon="-1.4357969999999962">
        <ele>736.446</ele>
        <time>2022-08-24T13:53:58Z</time>
      </trkpt>
      <trkpt lat="42.96346999999979" lon="-1.4358589999999962">
        <ele>736.245</ele>
        <time>2022-08-24T13:53:59Z</time>
      </trkpt>
      <trkpt lat="42.963428999999785" lon="-1.4359199999999963">
        <ele>735.845</ele>
        <time>2022-08-24T13:54:00Z</time>
      </trkpt>
      <trkpt lat="42.963388999999786" lon="-1.4359799999999963">
        <ele>735.447</ele>
        <time>2022-08-24T13:54:01Z</time>
      </trkpt>
      <trkpt lat="42.963349999999785" lon="-1.4360389999999963">
        <ele>735.211</ele>
        <time>2022-08-24T13:54:02Z</time>
      </trkpt>
      <trkpt lat="42.96330999999979" lon="-1.4360979999999963">
        <ele>735.009</ele>
        <time>2022-08-24T13:54:03Z</time>
      </trkpt>
      <trkpt lat="42.96327199999978" lon="-1.4361569999999964">
        <ele>734.855</ele>
        <time>2022-08-24T13:54:04Z</time>
      </trkpt>
      <trkpt lat="42.963236999999786" lon="-1.4362189999999964">
        <ele>734.875</ele>
        <time>2022-08-24T13:54:05Z</time>
      </trkpt>
      <trkpt lat="42.96317199999979" lon="-1.4363499999999965">
        <ele>734.435</ele>
        <time>2022-08-24T13:54:07Z</time>
      </trkpt>
      <trkpt lat="42.963141999999785" lon="-1.4364169999999965">
        <ele>734.411</ele>
        <time>2022-08-24T13:54:08Z</time>
      </trkpt>
      <trkpt lat="42.963025999999786" lon="-1.4366829999999966">
        <ele>734.483</ele>
        <time>2022-08-24T13:54:12Z</time>
      </trkpt>
      <trkpt lat="42.96296299999979" lon="-1.4367989999999966">
        <ele>734.280</ele>
        <time>2022-08-24T13:54:14Z</time>
      </trkpt>
      <trkpt lat="42.96292399999979" lon="-1.4369379999999965">
        <ele>734.493</ele>
        <time>2022-08-24T13:54:16Z</time>
      </trkpt>
      <trkpt lat="42.962893999999785" lon="-1.4371059999999964">
        <ele>734.287</ele>
        <time>2022-08-24T13:54:18Z</time>
      </trkpt>
      <trkpt lat="42.962874999999784" lon="-1.4371829999999965">
        <ele>734.276</ele>
        <time>2022-08-24T13:54:19Z</time>
      </trkpt>
      <trkpt lat="42.962854999999784" lon="-1.4372549999999966">
        <ele>734.045</ele>
        <time>2022-08-24T13:54:20Z</time>
      </trkpt>
      <trkpt lat="42.96283899999978" lon="-1.4373229999999966">
        <ele>734.047</ele>
        <time>2022-08-24T13:54:21Z</time>
      </trkpt>
      <trkpt lat="42.962823999999785" lon="-1.4373889999999965">
        <ele>734.011</ele>
        <time>2022-08-24T13:54:22Z</time>
      </trkpt>
      <trkpt lat="42.96280899999979" lon="-1.4374519999999964">
        <ele>734.009</ele>
        <time>2022-08-24T13:54:23Z</time>
      </trkpt>
      <trkpt lat="42.96279499999979" lon="-1.4375089999999964">
        <ele>733.885</ele>
        <time>2022-08-24T13:54:24Z</time>
      </trkpt>
      <trkpt lat="42.96278099999979" lon="-1.4375619999999965">
        <ele>733.855</ele>
        <time>2022-08-24T13:54:25Z</time>
      </trkpt>
      <trkpt lat="42.96277099999978" lon="-1.4376119999999966">
        <ele>733.685</ele>
        <time>2022-08-24T13:54:26Z</time>
      </trkpt>
      <trkpt lat="42.96276299999978" lon="-1.4376539999999967">
        <ele>733.661</ele>
        <time>2022-08-24T13:54:27Z</time>
      </trkpt>
      <trkpt lat="42.96275699999978" lon="-1.4376869999999966">
        <ele>733.673</ele>
        <time>2022-08-24T13:54:28Z</time>
      </trkpt>
      <trkpt lat="42.96275199999978" lon="-1.4377109999999966">
        <ele>733.680</ele>
        <time>2022-08-24T13:54:29Z</time>
      </trkpt>
      <trkpt lat="42.962747999999785" lon="-1.4377269999999966">
        <ele>733.623</ele>
        <time>2022-08-24T13:54:30Z</time>
      </trkpt>
      <trkpt lat="42.962741999999785" lon="-1.4377389999999965">
        <ele>733.627</ele>
        <time>2022-08-24T13:54:31Z</time>
      </trkpt>
      <trkpt lat="42.962741999999785" lon="-1.4377519999999966">
        <ele>733.696</ele>
        <time>2022-08-24T13:54:32Z</time>
      </trkpt>
      <trkpt lat="42.96273999999978" lon="-1.4377619999999967">
        <ele>733.848</ele>
        <time>2022-08-24T13:54:33Z</time>
      </trkpt>
      <trkpt lat="42.96273799999978" lon="-1.4377689999999967">
        <ele>733.861</ele>
        <time>2022-08-24T13:54:34Z</time>
      </trkpt>
      <trkpt lat="42.96273599999978" lon="-1.4377719999999967">
        <ele>734.017</ele>
        <time>2022-08-24T13:54:35Z</time>
      </trkpt>
      <trkpt lat="42.96273599999978" lon="-1.4377719999999967">
        <ele>734.009</ele>
        <time>2022-08-24T13:56:01Z</time>
      </trkpt>
      <trkpt lat="42.96273699999978" lon="-1.4377589999999967">
        <ele>734.025</ele>
        <time>2022-08-24T13:56:03Z</time>
      </trkpt>
      <trkpt lat="42.96273699999978" lon="-1.4377589999999967">
        <ele>734.065</ele>
        <time>2022-08-24T13:56:04Z</time>
      </trkpt>
      <trkpt lat="42.962737999999774" lon="-1.4377559999999967">
        <ele>734.065</ele>
        <time>2022-08-24T13:56:05Z</time>
      </trkpt>
      <trkpt lat="42.96275599999977" lon="-1.4377149999999967">
        <ele>733.871</ele>
        <time>2022-08-24T13:56:07Z</time>
      </trkpt>
      <trkpt lat="42.96275599999977" lon="-1.4377149999999967">
        <ele>734.013</ele>
        <time>2022-08-24T13:56:08Z</time>
      </trkpt>
      <trkpt lat="42.96275599999977" lon="-1.4377149999999967">
        <ele>734.070</ele>
        <time>2022-08-24T13:56:09Z</time>
      </trkpt>
      <trkpt lat="42.96275599999977" lon="-1.4377089999999968">
        <ele>733.843</ele>
        <time>2022-08-24T13:56:10Z</time>
      </trkpt>
      <trkpt lat="42.962751999999774" lon="-1.4376859999999967">
        <ele>733.877</ele>
        <time>2022-08-24T13:56:11Z</time>
      </trkpt>
      <trkpt lat="42.962745999999775" lon="-1.4376719999999967">
        <ele>733.886</ele>
        <time>2022-08-24T13:56:12Z</time>
      </trkpt>
      <trkpt lat="42.962739999999776" lon="-1.4376709999999968">
        <ele>733.816</ele>
        <time>2022-08-24T13:56:14Z</time>
      </trkpt>
      <trkpt lat="42.96273899999978" lon="-1.4376789999999968">
        <ele>733.876</ele>
        <time>2022-08-24T13:56:15Z</time>
      </trkpt>
      <trkpt lat="42.96273699999978" lon="-1.4376849999999968">
        <ele>733.813</ele>
        <time>2022-08-24T13:56:16Z</time>
      </trkpt>
      <trkpt lat="42.962737999999774" lon="-1.4376879999999967">
        <ele>733.809</ele>
        <time>2022-08-24T13:56:17Z</time>
      </trkpt>
      <trkpt lat="42.96274199999977" lon="-1.4376939999999967">
        <ele>733.882</ele>
        <time>2022-08-24T13:56:18Z</time>
      </trkpt>
      <trkpt lat="42.96273899999977" lon="-1.4376959999999968">
        <ele>733.652</ele>
        <time>2022-08-24T13:56:19Z</time>
      </trkpt>
      <trkpt lat="42.962737999999774" lon="-1.4377069999999967">
        <ele>733.692</ele>
        <time>2022-08-24T13:56:20Z</time>
      </trkpt>
      <trkpt lat="42.96273899999977" lon="-1.4377189999999966">
        <ele>733.668</ele>
        <time>2022-08-24T13:56:21Z</time>
      </trkpt>
      <trkpt lat="42.96273599999977" lon="-1.4377259999999967">
        <ele>733.690</ele>
        <time>2022-08-24T13:56:22Z</time>
      </trkpt>
      <trkpt lat="42.96273099999977" lon="-1.4377299999999966">
        <ele>733.677</ele>
        <time>2022-08-24T13:56:23Z</time>
      </trkpt>
      <trkpt lat="42.96270599999977" lon="-1.4377409999999966">
        <ele>733.670</ele>
        <time>2022-08-24T13:56:26Z</time>
      </trkpt>
      <trkpt lat="42.96270299999977" lon="-1.4377409999999966">
        <ele>733.494</ele>
        <time>2022-08-24T13:57:20Z</time>
      </trkpt>
      <trkpt lat="42.96267899999977" lon="-1.4377659999999965">
        <ele>733.483</ele>
        <time>2022-08-24T13:57:23Z</time>
      </trkpt>
      <trkpt lat="42.96263899999977" lon="-1.4377939999999965">
        <ele>733.692</ele>
        <time>2022-08-24T13:57:25Z</time>
      </trkpt>
      <trkpt lat="42.96262099999977" lon="-1.4377979999999964">
        <ele>733.673</ele>
        <time>2022-08-24T13:57:26Z</time>
      </trkpt>
      <trkpt lat="42.962599999999775" lon="-1.4378029999999964">
        <ele>733.620</ele>
        <time>2022-08-24T13:57:27Z</time>
      </trkpt>
      <trkpt lat="42.962579999999775" lon="-1.4378049999999964">
        <ele>733.609</ele>
        <time>2022-08-24T13:57:28Z</time>
      </trkpt>
      <trkpt lat="42.962551999999775" lon="-1.4377999999999964">
        <ele>733.890</ele>
        <time>2022-08-24T13:57:29Z</time>
      </trkpt>
      <trkpt lat="42.962526999999774" lon="-1.4377949999999964">
        <ele>733.870</ele>
        <time>2022-08-24T13:57:30Z</time>
      </trkpt>
      <trkpt lat="42.962497999999776" lon="-1.4377909999999965">
        <ele>734.050</ele>
        <time>2022-08-24T13:57:31Z</time>
      </trkpt>
      <trkpt lat="42.96245999999977" lon="-1.4377809999999964">
        <ele>734.056</ele>
        <time>2022-08-24T13:57:32Z</time>
      </trkpt>
      <trkpt lat="42.962436999999774" lon="-1.4377789999999964">
        <ele>734.258</ele>
        <time>2022-08-24T13:57:33Z</time>
      </trkpt>
      <trkpt lat="42.962419999999774" lon="-1.4377749999999965">
        <ele>734.245</ele>
        <time>2022-08-24T13:57:34Z</time>
      </trkpt>
      <trkpt lat="42.962408999999774" lon="-1.4377839999999964">
        <ele>734.428</ele>
        <time>2022-08-24T13:57:35Z</time>
      </trkpt>
      <trkpt lat="42.96240099999977" lon="-1.4377979999999964">
        <ele>734.452</ele>
        <time>2022-08-24T13:57:36Z</time>
      </trkpt>
      <trkpt lat="42.962391999999774" lon="-1.4378139999999964">
        <ele>734.471</ele>
        <time>2022-08-24T13:57:37Z</time>
      </trkpt>
      <trkpt lat="42.962376999999776" lon="-1.4378299999999964">
        <ele>734.881</ele>
        <time>2022-08-24T13:57:38Z</time>
      </trkpt>
      <trkpt lat="42.96236499999978" lon="-1.4378379999999964">
        <ele>734.861</ele>
        <time>2022-08-24T13:57:39Z</time>
      </trkpt>
      <trkpt lat="42.96236199999978" lon="-1.4378479999999965">
        <ele>735.017</ele>
        <time>2022-08-24T13:57:40Z</time>
      </trkpt>
      <trkpt lat="42.96236499999978" lon="-1.4378479999999965">
        <ele>735.009</ele>
        <time>2022-08-24T13:57:41Z</time>
      </trkpt>
      <trkpt lat="42.96235999999978" lon="-1.4378539999999964">
        <ele>735.049</ele>
        <time>2022-08-24T13:57:42Z</time>
      </trkpt>
      <trkpt lat="42.96235399999978" lon="-1.4378639999999965">
        <ele>735.219</ele>
        <time>2022-08-24T13:57:43Z</time>
      </trkpt>
      <trkpt lat="42.96234999999978" lon="-1.4378769999999965">
        <ele>735.289</ele>
        <time>2022-08-24T13:57:44Z</time>
      </trkpt>
      <trkpt lat="42.962342999999784" lon="-1.4378929999999965">
        <ele>735.225</ele>
        <time>2022-08-24T13:57:45Z</time>
      </trkpt>
      <trkpt lat="42.962341999999786" lon="-1.4379069999999965">
        <ele>735.287</ele>
        <time>2022-08-24T13:57:46Z</time>
      </trkpt>
      <trkpt lat="42.96233299999979" lon="-1.4379429999999964">
        <ele>735.414</ele>
        <time>2022-08-24T13:57:48Z</time>
      </trkpt>
      <trkpt lat="42.96232699999979" lon="-1.4379559999999965">
        <ele>735.467</ele>
        <time>2022-08-24T13:57:49Z</time>
      </trkpt>
      <trkpt lat="42.96232599999979" lon="-1.4379729999999964">
        <ele>735.661</ele>
        <time>2022-08-24T13:57:50Z</time>
      </trkpt>
      <trkpt lat="42.96232299999979" lon="-1.4379849999999963">
        <ele>735.640</ele>
        <time>2022-08-24T13:57:51Z</time>
      </trkpt>
      <trkpt lat="42.962318999999795" lon="-1.4379999999999964">
        <ele>735.668</ele>
        <time>2022-08-24T13:57:52Z</time>
      </trkpt>
      <trkpt lat="42.9623179999998" lon="-1.4380109999999964">
        <ele>735.642</ele>
        <time>2022-08-24T13:57:53Z</time>
      </trkpt>
      <trkpt lat="42.9623119999998" lon="-1.4380259999999965">
        <ele>735.826</ele>
        <time>2022-08-24T13:57:54Z</time>
      </trkpt>
      <trkpt lat="42.962309999999796" lon="-1.4380389999999965">
        <ele>736.009</ele>
        <time>2022-08-24T13:57:55Z</time>
      </trkpt>
      <trkpt lat="42.9623039999998" lon="-1.4380519999999966">
        <ele>736.037</ele>
        <time>2022-08-24T13:57:56Z</time>
      </trkpt>
      <trkpt lat="42.9622929999998" lon="-1.4380649999999966">
        <ele>736.267</ele>
        <time>2022-08-24T13:57:57Z</time>
      </trkpt>
      <trkpt lat="42.9622869999998" lon="-1.4380809999999966">
        <ele>736.437</ele>
        <time>2022-08-24T13:57:58Z</time>
      </trkpt>
      <trkpt lat="42.9622779999998" lon="-1.4381109999999966">
        <ele>736.673</ele>
        <time>2022-08-24T13:58:00Z</time>
      </trkpt>
      <trkpt lat="42.9622699999998" lon="-1.4381249999999965">
        <ele>736.645</ele>
        <time>2022-08-24T13:58:01Z</time>
      </trkpt>
      <trkpt lat="42.9622549999998" lon="-1.4381559999999964">
        <ele>736.862</ele>
        <time>2022-08-24T13:58:03Z</time>
      </trkpt>
      <trkpt lat="42.9622469999998" lon="-1.4381849999999965">
        <ele>737.025</ele>
        <time>2022-08-24T13:58:05Z</time>
      </trkpt>
      <trkpt lat="42.9622419999998" lon="-1.4382049999999964">
        <ele>737.069</ele>
        <time>2022-08-24T13:58:06Z</time>
      </trkpt>
      <trkpt lat="42.962233999999796" lon="-1.4382199999999965">
        <ele>737.228</ele>
        <time>2022-08-24T13:58:07Z</time>
      </trkpt>
      <trkpt lat="42.9622279999998" lon="-1.4382339999999965">
        <ele>737.243</ele>
        <time>2022-08-24T13:58:08Z</time>
      </trkpt>
      <trkpt lat="42.9622239999998" lon="-1.4382449999999964">
        <ele>737.464</ele>
        <time>2022-08-24T13:58:09Z</time>
      </trkpt>
      <trkpt lat="42.962216999999804" lon="-1.4382589999999964">
        <ele>737.410</ele>
        <time>2022-08-24T13:58:10Z</time>
      </trkpt>
      <trkpt lat="42.9622089999998" lon="-1.4382749999999964">
        <ele>737.409</ele>
        <time>2022-08-24T13:58:11Z</time>
      </trkpt>
      <trkpt lat="42.962201999999806" lon="-1.4382889999999964">
        <ele>737.615</ele>
        <time>2022-08-24T13:58:12Z</time>
      </trkpt>
      <trkpt lat="42.96219299999981" lon="-1.4383049999999964">
        <ele>737.845</ele>
        <time>2022-08-24T13:58:13Z</time>
      </trkpt>
      <trkpt lat="42.96218999999981" lon="-1.4383199999999965">
        <ele>738.095</ele>
        <time>2022-08-24T13:58:14Z</time>
      </trkpt>
      <trkpt lat="42.96218899999981" lon="-1.4383579999999965">
        <ele>738.661</ele>
        <time>2022-08-24T13:58:16Z</time>
      </trkpt>
      <trkpt lat="42.96218499999981" lon="-1.4383709999999965">
        <ele>739.053</ele>
        <time>2022-08-24T13:58:17Z</time>
      </trkpt>
      <trkpt lat="42.96217999999981" lon="-1.4383849999999965">
        <ele>739.450</ele>
        <time>2022-08-24T13:58:18Z</time>
      </trkpt>
      <trkpt lat="42.96217799999981" lon="-1.4383979999999965">
        <ele>739.643</ele>
        <time>2022-08-24T13:58:19Z</time>
      </trkpt>
      <trkpt lat="42.96217699999981" lon="-1.4384199999999965">
        <ele>739.657</ele>
        <time>2022-08-24T13:58:20Z</time>
      </trkpt>
      <trkpt lat="42.96217499999981" lon="-1.4384379999999966">
        <ele>739.686</ele>
        <time>2022-08-24T13:58:21Z</time>
      </trkpt>
      <trkpt lat="42.96216999999981" lon="-1.4384549999999965">
        <ele>739.887</ele>
        <time>2022-08-24T13:58:22Z</time>
      </trkpt>
      <trkpt lat="42.96217499999981" lon="-1.4384719999999964">
        <ele>739.842</ele>
        <time>2022-08-24T13:58:23Z</time>
      </trkpt>
      <trkpt lat="42.96217299999981" lon="-1.4384909999999964">
        <ele>739.826</ele>
        <time>2022-08-24T13:58:24Z</time>
      </trkpt>
      <trkpt lat="42.96216799999981" lon="-1.4385129999999964">
        <ele>739.809</ele>
        <time>2022-08-24T13:58:25Z</time>
      </trkpt>
      <trkpt lat="42.962162999999805" lon="-1.4385299999999963">
        <ele>739.819</ele>
        <time>2022-08-24T13:58:26Z</time>
      </trkpt>
      <trkpt lat="42.962156999999806" lon="-1.4385449999999964">
        <ele>739.839</ele>
        <time>2022-08-24T13:58:27Z</time>
      </trkpt>
      <trkpt lat="42.962148999999805" lon="-1.4385539999999963">
        <ele>739.889</ele>
        <time>2022-08-24T13:58:28Z</time>
      </trkpt>
      <trkpt lat="42.962140999999804" lon="-1.4385679999999963">
        <ele>739.875</ele>
        <time>2022-08-24T13:58:29Z</time>
      </trkpt>
      <trkpt lat="42.96213399999981" lon="-1.4385879999999962">
        <ele>740.057</ele>
        <time>2022-08-24T13:58:30Z</time>
      </trkpt>
      <trkpt lat="42.962128999999806" lon="-1.4386059999999963">
        <ele>740.014</ele>
        <time>2022-08-24T13:58:31Z</time>
      </trkpt>
      <trkpt lat="42.962125999999806" lon="-1.4386239999999964">
        <ele>740.277</ele>
        <time>2022-08-24T13:58:32Z</time>
      </trkpt>
      <trkpt lat="42.96212499999981" lon="-1.4386359999999963">
        <ele>740.241</ele>
        <time>2022-08-24T13:58:33Z</time>
      </trkpt>
      <trkpt lat="42.96211599999981" lon="-1.4386539999999963">
        <ele>740.270</ele>
        <time>2022-08-24T13:58:34Z</time>
      </trkpt>
      <trkpt lat="42.96210899999981" lon="-1.4386699999999963">
        <ele>740.423</ele>
        <time>2022-08-24T13:58:35Z</time>
      </trkpt>
      <trkpt lat="42.962105999999814" lon="-1.4386889999999963">
        <ele>740.683</ele>
        <time>2022-08-24T13:58:36Z</time>
      </trkpt>
      <trkpt lat="42.96210699999981" lon="-1.4387089999999962">
        <ele>740.611</ele>
        <time>2022-08-24T13:58:37Z</time>
      </trkpt>
      <trkpt lat="42.96210099999981" lon="-1.4387209999999961">
        <ele>740.809</ele>
        <time>2022-08-24T13:58:38Z</time>
      </trkpt>
      <trkpt lat="42.96209299999981" lon="-1.4387369999999962">
        <ele>740.853</ele>
        <time>2022-08-24T13:58:39Z</time>
      </trkpt>
      <trkpt lat="42.96208699999981" lon="-1.4387529999999962">
        <ele>741.263</ele>
        <time>2022-08-24T13:58:40Z</time>
      </trkpt>
      <trkpt lat="42.96207899999981" lon="-1.4387689999999962">
        <ele>741.473</ele>
        <time>2022-08-24T13:58:41Z</time>
      </trkpt>
      <trkpt lat="42.96207599999981" lon="-1.4387849999999962">
        <ele>741.669</ele>
        <time>2022-08-24T13:58:42Z</time>
      </trkpt>
      <trkpt lat="42.96207299999981" lon="-1.4387959999999962">
        <ele>741.661</ele>
        <time>2022-08-24T13:58:43Z</time>
      </trkpt>
      <trkpt lat="42.962065999999815" lon="-1.4388289999999961">
        <ele>742.068</ele>
        <time>2022-08-24T13:58:45Z</time>
      </trkpt>
      <trkpt lat="42.962060999999814" lon="-1.4388389999999962">
        <ele>742.061</ele>
        <time>2022-08-24T13:58:46Z</time>
      </trkpt>
      <trkpt lat="42.96205399999982" lon="-1.438850999999996">
        <ele>742.055</ele>
        <time>2022-08-24T13:58:47Z</time>
      </trkpt>
      <trkpt lat="42.96204999999982" lon="-1.4388639999999961">
        <ele>742.084</ele>
        <time>2022-08-24T13:58:48Z</time>
      </trkpt>
      <trkpt lat="42.96204599999982" lon="-1.4388789999999962">
        <ele>742.236</ele>
        <time>2022-08-24T13:58:49Z</time>
      </trkpt>
      <trkpt lat="42.962039999999824" lon="-1.4388909999999961">
        <ele>742.417</ele>
        <time>2022-08-24T13:58:50Z</time>
      </trkpt>
      <trkpt lat="42.96203199999982" lon="-1.4389059999999962">
        <ele>742.618</ele>
        <time>2022-08-24T13:58:51Z</time>
      </trkpt>
      <trkpt lat="42.962019999999825" lon="-1.4389219999999963">
        <ele>742.809</ele>
        <time>2022-08-24T13:58:52Z</time>
      </trkpt>
      <trkpt lat="42.96200999999982" lon="-1.4389379999999963">
        <ele>742.874</ele>
        <time>2022-08-24T13:58:53Z</time>
      </trkpt>
      <trkpt lat="42.96200699999982" lon="-1.4389529999999964">
        <ele>743.054</ele>
        <time>2022-08-24T13:58:54Z</time>
      </trkpt>
      <trkpt lat="42.962002999999825" lon="-1.4389669999999963">
        <ele>743.284</ele>
        <time>2022-08-24T13:58:55Z</time>
      </trkpt>
      <trkpt lat="42.961999999999826" lon="-1.4389779999999963">
        <ele>743.210</ele>
        <time>2022-08-24T13:58:56Z</time>
      </trkpt>
      <trkpt lat="42.961994999999824" lon="-1.4389939999999963">
        <ele>743.462</ele>
        <time>2022-08-24T13:58:57Z</time>
      </trkpt>
      <trkpt lat="42.96198699999982" lon="-1.4390119999999964">
        <ele>743.499</ele>
        <time>2022-08-24T13:58:58Z</time>
      </trkpt>
      <trkpt lat="42.96198499999982" lon="-1.4390299999999965">
        <ele>743.642</ele>
        <time>2022-08-24T13:58:59Z</time>
      </trkpt>
      <trkpt lat="42.96198599999982" lon="-1.4390479999999966">
        <ele>743.626</ele>
        <time>2022-08-24T13:59:00Z</time>
      </trkpt>
      <trkpt lat="42.961986999999816" lon="-1.4390629999999967">
        <ele>743.835</ele>
        <time>2022-08-24T13:59:01Z</time>
      </trkpt>
      <trkpt lat="42.96198599999982" lon="-1.4390849999999966">
        <ele>744.075</ele>
        <time>2022-08-24T13:59:02Z</time>
      </trkpt>
      <trkpt lat="42.961986999999816" lon="-1.4391039999999966">
        <ele>744.028</ele>
        <time>2022-08-24T13:59:03Z</time>
      </trkpt>
      <trkpt lat="42.96198099999982" lon="-1.4391189999999967">
        <ele>744.220</ele>
        <time>2022-08-24T13:59:04Z</time>
      </trkpt>
      <trkpt lat="42.96197499999982" lon="-1.4391299999999967">
        <ele>744.409</ele>
        <time>2022-08-24T13:59:05Z</time>
      </trkpt>
      <trkpt lat="42.96196699999982" lon="-1.4391429999999967">
        <ele>744.428</ele>
        <time>2022-08-24T13:59:06Z</time>
      </trkpt>
      <trkpt lat="42.961964999999815" lon="-1.4391589999999967">
        <ele>744.468</ele>
        <time>2022-08-24T13:59:07Z</time>
      </trkpt>
      <trkpt lat="42.961961999999815" lon="-1.4391699999999967">
        <ele>744.668</ele>
        <time>2022-08-24T13:59:08Z</time>
      </trkpt>
      <trkpt lat="42.96195999999981" lon="-1.4391789999999967">
        <ele>744.864</ele>
        <time>2022-08-24T13:59:09Z</time>
      </trkpt>
      <trkpt lat="42.96195699999981" lon="-1.4391889999999967">
        <ele>744.896</ele>
        <time>2022-08-24T13:59:10Z</time>
      </trkpt>
      <trkpt lat="42.96195499999981" lon="-1.4392019999999968">
        <ele>745.033</ele>
        <time>2022-08-24T13:59:11Z</time>
      </trkpt>
      <trkpt lat="42.96195799999981" lon="-1.4392189999999967">
        <ele>745.096</ele>
        <time>2022-08-24T13:59:12Z</time>
      </trkpt>
      <trkpt lat="42.96195799999981" lon="-1.4392339999999968">
        <ele>745.080</ele>
        <time>2022-08-24T13:59:13Z</time>
      </trkpt>
      <trkpt lat="42.96195499999981" lon="-1.4392479999999968">
        <ele>745.239</ele>
        <time>2022-08-24T13:59:14Z</time>
      </trkpt>
      <trkpt lat="42.96195199999981" lon="-1.4392589999999967">
        <ele>745.271</ele>
        <time>2022-08-24T13:59:15Z</time>
      </trkpt>
      <trkpt lat="42.96194299999981" lon="-1.4392769999999968">
        <ele>745.441</ele>
        <time>2022-08-24T13:59:16Z</time>
      </trkpt>
      <trkpt lat="42.961938999999816" lon="-1.4392929999999968">
        <ele>745.415</ele>
        <time>2022-08-24T13:59:17Z</time>
      </trkpt>
      <trkpt lat="42.96193299999982" lon="-1.4393049999999967">
        <ele>745.609</ele>
        <time>2022-08-24T13:59:18Z</time>
      </trkpt>
      <trkpt lat="42.96192899999982" lon="-1.4393149999999968">
        <ele>745.658</ele>
        <time>2022-08-24T13:59:19Z</time>
      </trkpt>
      <trkpt lat="42.96192999999982" lon="-1.4393329999999969">
        <ele>745.828</ele>
        <time>2022-08-24T13:59:20Z</time>
      </trkpt>
      <trkpt lat="42.96192899999982" lon="-1.4393529999999968">
        <ele>745.878</ele>
        <time>2022-08-24T13:59:21Z</time>
      </trkpt>
      <trkpt lat="42.961921999999824" lon="-1.4393669999999967">
        <ele>746.014</ele>
        <time>2022-08-24T13:59:22Z</time>
      </trkpt>
      <trkpt lat="42.96191799999983" lon="-1.4393829999999967">
        <ele>746.036</ele>
        <time>2022-08-24T13:59:23Z</time>
      </trkpt>
      <trkpt lat="42.961915999999825" lon="-1.4393949999999966">
        <ele>746.043</ele>
        <time>2022-08-24T13:59:24Z</time>
      </trkpt>
      <trkpt lat="42.961912999999825" lon="-1.4394119999999966">
        <ele>746.246</ele>
        <time>2022-08-24T13:59:25Z</time>
      </trkpt>
      <trkpt lat="42.961909999999826" lon="-1.4394319999999965">
        <ele>746.220</ele>
        <time>2022-08-24T13:59:26Z</time>
      </trkpt>
      <trkpt lat="42.96190899999983" lon="-1.4394489999999964">
        <ele>746.499</ele>
        <time>2022-08-24T13:59:27Z</time>
      </trkpt>
      <trkpt lat="42.961906999999826" lon="-1.4394679999999964">
        <ele>746.653</ele>
        <time>2022-08-24T13:59:28Z</time>
      </trkpt>
      <trkpt lat="42.961901999999824" lon="-1.4394789999999964">
        <ele>746.604</ele>
        <time>2022-08-24T13:59:29Z</time>
      </trkpt>
      <trkpt lat="42.961895999999825" lon="-1.4394969999999965">
        <ele>746.814</ele>
        <time>2022-08-24T13:59:30Z</time>
      </trkpt>
      <trkpt lat="42.96189199999983" lon="-1.4395119999999966">
        <ele>746.809</ele>
        <time>2022-08-24T13:59:31Z</time>
      </trkpt>
      <trkpt lat="42.961889999999826" lon="-1.4395239999999965">
        <ele>747.016</ele>
        <time>2022-08-24T13:59:32Z</time>
      </trkpt>
      <trkpt lat="42.96188599999983" lon="-1.4395399999999965">
        <ele>747.086</ele>
        <time>2022-08-24T13:59:33Z</time>
      </trkpt>
      <trkpt lat="42.96188299999983" lon="-1.4395569999999964">
        <ele>747.246</ele>
        <time>2022-08-24T13:59:34Z</time>
      </trkpt>
      <trkpt lat="42.96188199999983" lon="-1.4395779999999965">
        <ele>747.232</ele>
        <time>2022-08-24T13:59:35Z</time>
      </trkpt>
      <trkpt lat="42.96187699999983" lon="-1.4395959999999965">
        <ele>747.214</ele>
        <time>2022-08-24T13:59:36Z</time>
      </trkpt>
      <trkpt lat="42.96187399999983" lon="-1.4396189999999967">
        <ele>747.451</ele>
        <time>2022-08-24T13:59:37Z</time>
      </trkpt>
      <trkpt lat="42.961869999999834" lon="-1.4396359999999966">
        <ele>747.624</ele>
        <time>2022-08-24T13:59:38Z</time>
      </trkpt>
      <trkpt lat="42.96186499999983" lon="-1.4396579999999966">
        <ele>747.848</ele>
        <time>2022-08-24T13:59:39Z</time>
      </trkpt>
      <trkpt lat="42.96185999999983" lon="-1.4396769999999965">
        <ele>748.077</ele>
        <time>2022-08-24T13:59:40Z</time>
      </trkpt>
      <trkpt lat="42.96185199999983" lon="-1.4396899999999966">
        <ele>748.241</ele>
        <time>2022-08-24T13:59:41Z</time>
      </trkpt>
      <trkpt lat="42.96184799999983" lon="-1.4397019999999965">
        <ele>748.481</ele>
        <time>2022-08-24T13:59:42Z</time>
      </trkpt>
      <trkpt lat="42.96184499999983" lon="-1.4397169999999966">
        <ele>748.609</ele>
        <time>2022-08-24T13:59:43Z</time>
      </trkpt>
      <trkpt lat="42.961843999999836" lon="-1.4397319999999967">
        <ele>748.809</ele>
        <time>2022-08-24T13:59:44Z</time>
      </trkpt>
      <trkpt lat="42.961841999999834" lon="-1.4397459999999966">
        <ele>749.025</ele>
        <time>2022-08-24T13:59:45Z</time>
      </trkpt>
      <trkpt lat="42.961840999999836" lon="-1.4397599999999966">
        <ele>749.045</ele>
        <time>2022-08-24T13:59:46Z</time>
      </trkpt>
      <trkpt lat="42.961838999999834" lon="-1.4397719999999965">
        <ele>749.225</ele>
        <time>2022-08-24T13:59:47Z</time>
      </trkpt>
      <trkpt lat="42.961835999999835" lon="-1.4397869999999966">
        <ele>749.211</ele>
        <time>2022-08-24T13:59:48Z</time>
      </trkpt>
      <trkpt lat="42.96183399999983" lon="-1.4397999999999966">
        <ele>749.463</ele>
        <time>2022-08-24T13:59:49Z</time>
      </trkpt>
      <trkpt lat="42.96183099999983" lon="-1.4398129999999967">
        <ele>749.650</ele>
        <time>2022-08-24T13:59:50Z</time>
      </trkpt>
      <trkpt lat="42.96182599999983" lon="-1.4398289999999967">
        <ele>749.863</ele>
        <time>2022-08-24T13:59:51Z</time>
      </trkpt>
      <trkpt lat="42.96182399999983" lon="-1.4398459999999966">
        <ele>750.057</ele>
        <time>2022-08-24T13:59:52Z</time>
      </trkpt>
      <trkpt lat="42.96182399999983" lon="-1.4398619999999966">
        <ele>750.036</ele>
        <time>2022-08-24T13:59:53Z</time>
      </trkpt>
      <trkpt lat="42.96182599999983" lon="-1.4398809999999966">
        <ele>750.448</ele>
        <time>2022-08-24T13:59:54Z</time>
      </trkpt>
      <trkpt lat="42.961824999999834" lon="-1.4398959999999967">
        <ele>750.461</ele>
        <time>2022-08-24T13:59:55Z</time>
      </trkpt>
      <trkpt lat="42.961824999999834" lon="-1.4399109999999968">
        <ele>750.617</ele>
        <time>2022-08-24T13:59:56Z</time>
      </trkpt>
      <trkpt lat="42.961824999999834" lon="-1.4399219999999968">
        <ele>751.009</ele>
        <time>2022-08-24T13:59:57Z</time>
      </trkpt>
      <trkpt lat="42.96182399999984" lon="-1.4399389999999967">
        <ele>751.095</ele>
        <time>2022-08-24T13:59:58Z</time>
      </trkpt>
      <trkpt lat="42.961824999999834" lon="-1.4399539999999968">
        <ele>751.295</ele>
        <time>2022-08-24T13:59:59Z</time>
      </trkpt>
      <trkpt lat="42.96182399999984" lon="-1.4399659999999967">
        <ele>751.275</ele>
        <time>2022-08-24T14:00:00Z</time>
      </trkpt>
      <trkpt lat="42.96181999999984" lon="-1.4399749999999967">
        <ele>751.691</ele>
        <time>2022-08-24T14:00:01Z</time>
      </trkpt>
      <trkpt lat="42.96181699999984" lon="-1.4399849999999967">
        <ele>751.853</ele>
        <time>2022-08-24T14:00:02Z</time>
      </trkpt>
      <trkpt lat="42.96181399999984" lon="-1.4399989999999967">
        <ele>752.070</ele>
        <time>2022-08-24T14:00:03Z</time>
      </trkpt>
      <trkpt lat="42.96181499999984" lon="-1.4400129999999967">
        <ele>752.293</ele>
        <time>2022-08-24T14:00:04Z</time>
      </trkpt>
      <trkpt lat="42.961815999999835" lon="-1.4400269999999966">
        <ele>752.447</ele>
        <time>2022-08-24T14:00:05Z</time>
      </trkpt>
      <trkpt lat="42.96181699999983" lon="-1.4400369999999967">
        <ele>752.656</ele>
        <time>2022-08-24T14:00:06Z</time>
      </trkpt>
      <trkpt lat="42.96181399999983" lon="-1.4400479999999967">
        <ele>752.836</ele>
        <time>2022-08-24T14:00:07Z</time>
      </trkpt>
      <trkpt lat="42.96180899999983" lon="-1.4400579999999967">
        <ele>753.217</ele>
        <time>2022-08-24T14:00:08Z</time>
      </trkpt>
      <trkpt lat="42.96180299999983" lon="-1.4400689999999967">
        <ele>753.418</ele>
        <time>2022-08-24T14:00:09Z</time>
      </trkpt>
      <trkpt lat="42.96180099999983" lon="-1.4400809999999966">
        <ele>753.609</ele>
        <time>2022-08-24T14:00:10Z</time>
      </trkpt>
      <trkpt lat="42.96179899999983" lon="-1.4400899999999965">
        <ele>753.844</ele>
        <time>2022-08-24T14:00:11Z</time>
      </trkpt>
      <trkpt lat="42.96179399999983" lon="-1.4401019999999964">
        <ele>754.034</ele>
        <time>2022-08-24T14:00:12Z</time>
      </trkpt>
      <trkpt lat="42.961782999999826" lon="-1.4401129999999964">
        <ele>754.284</ele>
        <time>2022-08-24T14:00:13Z</time>
      </trkpt>
      <trkpt lat="42.961777999999825" lon="-1.4401239999999964">
        <ele>754.240</ele>
        <time>2022-08-24T14:00:14Z</time>
      </trkpt>
      <trkpt lat="42.96177699999983" lon="-1.4401329999999963">
        <ele>754.432</ele>
        <time>2022-08-24T14:00:15Z</time>
      </trkpt>
      <trkpt lat="42.96177599999983" lon="-1.4401449999999962">
        <ele>754.439</ele>
        <time>2022-08-24T14:00:16Z</time>
      </trkpt>
      <trkpt lat="42.96177199999983" lon="-1.4401619999999962">
        <ele>754.682</ele>
        <time>2022-08-24T14:00:17Z</time>
      </trkpt>
      <trkpt lat="42.961770999999835" lon="-1.4401729999999962">
        <ele>754.836</ele>
        <time>2022-08-24T14:00:18Z</time>
      </trkpt>
      <trkpt lat="42.961762999999834" lon="-1.4401829999999962">
        <ele>754.865</ele>
        <time>2022-08-24T14:00:19Z</time>
      </trkpt>
      <trkpt lat="42.96175799999983" lon="-1.4401919999999961">
        <ele>755.057</ele>
        <time>2022-08-24T14:00:20Z</time>
      </trkpt>
      <trkpt lat="42.961751999999834" lon="-1.440203999999996">
        <ele>755.200</ele>
        <time>2022-08-24T14:00:21Z</time>
      </trkpt>
      <trkpt lat="42.96174399999983" lon="-1.440215999999996">
        <ele>755.420</ele>
        <time>2022-08-24T14:00:22Z</time>
      </trkpt>
      <trkpt lat="42.96173799999983" lon="-1.440225999999996">
        <ele>755.609</ele>
        <time>2022-08-24T14:00:23Z</time>
      </trkpt>
      <trkpt lat="42.96173099999984" lon="-1.440236999999996">
        <ele>755.646</ele>
        <time>2022-08-24T14:00:24Z</time>
      </trkpt>
      <trkpt lat="42.96172799999984" lon="-1.440244999999996">
        <ele>755.876</ele>
        <time>2022-08-24T14:00:25Z</time>
      </trkpt>
      <trkpt lat="42.96172499999984" lon="-1.440259999999996">
        <ele>755.836</ele>
        <time>2022-08-24T14:00:26Z</time>
      </trkpt>
      <trkpt lat="42.96172099999984" lon="-1.440268999999996">
        <ele>756.082</ele>
        <time>2022-08-24T14:00:27Z</time>
      </trkpt>
      <trkpt lat="42.961716999999844" lon="-1.440281999999996">
        <ele>756.244</ele>
        <time>2022-08-24T14:00:28Z</time>
      </trkpt>
      <trkpt lat="42.96171299999985" lon="-1.4402889999999962">
        <ele>756.261</ele>
        <time>2022-08-24T14:00:29Z</time>
      </trkpt>
      <trkpt lat="42.961713999999844" lon="-1.4403029999999961">
        <ele>756.634</ele>
        <time>2022-08-24T14:00:30Z</time>
      </trkpt>
      <trkpt lat="42.96171499999984" lon="-1.440319999999996">
        <ele>756.888</ele>
        <time>2022-08-24T14:00:31Z</time>
      </trkpt>
      <trkpt lat="42.961713999999844" lon="-1.440335999999996">
        <ele>757.017</ele>
        <time>2022-08-24T14:00:32Z</time>
      </trkpt>
      <trkpt lat="42.961713999999844" lon="-1.440349999999996">
        <ele>757.066</ele>
        <time>2022-08-24T14:00:33Z</time>
      </trkpt>
      <trkpt lat="42.96171499999984" lon="-1.440362999999996">
        <ele>757.229</ele>
        <time>2022-08-24T14:00:34Z</time>
      </trkpt>
      <trkpt lat="42.96171499999984" lon="-1.440384999999996">
        <ele>757.421</ele>
        <time>2022-08-24T14:00:35Z</time>
      </trkpt>
      <trkpt lat="42.96171199999984" lon="-1.440403999999996">
        <ele>757.409</ele>
        <time>2022-08-24T14:00:36Z</time>
      </trkpt>
      <trkpt lat="42.96170399999984" lon="-1.4404189999999961">
        <ele>757.647</ele>
        <time>2022-08-24T14:00:37Z</time>
      </trkpt>
      <trkpt lat="42.96170099999984" lon="-1.440427999999996">
        <ele>757.817</ele>
        <time>2022-08-24T14:00:38Z</time>
      </trkpt>
      <trkpt lat="42.961696999999845" lon="-1.440437999999996">
        <ele>758.277</ele>
        <time>2022-08-24T14:00:39Z</time>
      </trkpt>
      <trkpt lat="42.96169599999985" lon="-1.440451999999996">
        <ele>758.423</ele>
        <time>2022-08-24T14:00:40Z</time>
      </trkpt>
      <trkpt lat="42.961693999999845" lon="-1.440465999999996">
        <ele>758.655</ele>
        <time>2022-08-24T14:00:41Z</time>
      </trkpt>
      <trkpt lat="42.96169299999985" lon="-1.440478999999996">
        <ele>758.852</ele>
        <time>2022-08-24T14:00:42Z</time>
      </trkpt>
      <trkpt lat="42.96169299999985" lon="-1.440484999999996">
        <ele>759.045</ele>
        <time>2022-08-24T14:00:43Z</time>
      </trkpt>
      <trkpt lat="42.961693999999845" lon="-1.440494999999996">
        <ele>759.229</ele>
        <time>2022-08-24T14:00:44Z</time>
      </trkpt>
      <trkpt lat="42.961693999999845" lon="-1.440508999999996">
        <ele>759.248</ele>
        <time>2022-08-24T14:00:45Z</time>
      </trkpt>
      <trkpt lat="42.96168899999984" lon="-1.4405239999999961">
        <ele>759.474</ele>
        <time>2022-08-24T14:00:46Z</time>
      </trkpt>
      <trkpt lat="42.96168499999985" lon="-1.440532999999996">
        <ele>759.656</ele>
        <time>2022-08-24T14:00:47Z</time>
      </trkpt>
      <trkpt lat="42.96168099999985" lon="-1.440541999999996">
        <ele>759.821</ele>
        <time>2022-08-24T14:00:48Z</time>
      </trkpt>
      <trkpt lat="42.96167699999985" lon="-1.440555999999996">
        <ele>760.009</ele>
        <time>2022-08-24T14:00:49Z</time>
      </trkpt>
      <trkpt lat="42.96167099999985" lon="-1.440569999999996">
        <ele>760.248</ele>
        <time>2022-08-24T14:00:50Z</time>
      </trkpt>
      <trkpt lat="42.961669999999856" lon="-1.440579999999996">
        <ele>760.428</ele>
        <time>2022-08-24T14:00:51Z</time>
      </trkpt>
      <trkpt lat="42.961669999999856" lon="-1.440588999999996">
        <ele>760.678</ele>
        <time>2022-08-24T14:00:52Z</time>
      </trkpt>
      <trkpt lat="42.96167099999985" lon="-1.440598999999996">
        <ele>760.674</ele>
        <time>2022-08-24T14:00:53Z</time>
      </trkpt>
      <trkpt lat="42.961672999999855" lon="-1.440608999999996">
        <ele>761.086</ele>
        <time>2022-08-24T14:00:54Z</time>
      </trkpt>
      <trkpt lat="42.96167199999986" lon="-1.440618999999996">
        <ele>761.273</ele>
        <time>2022-08-24T14:00:55Z</time>
      </trkpt>
      <trkpt lat="42.961672999999855" lon="-1.440629999999996">
        <ele>761.446</ele>
        <time>2022-08-24T14:00:56Z</time>
      </trkpt>
      <trkpt lat="42.96167099999985" lon="-1.440640999999996">
        <ele>761.610</ele>
        <time>2022-08-24T14:00:57Z</time>
      </trkpt>
      <trkpt lat="42.961667999999854" lon="-1.440652999999996">
        <ele>761.679</ele>
        <time>2022-08-24T14:00:58Z</time>
      </trkpt>
      <trkpt lat="42.96166899999985" lon="-1.440666999999996">
        <ele>761.887</ele>
        <time>2022-08-24T14:00:59Z</time>
      </trkpt>
      <trkpt lat="42.96166999999985" lon="-1.440676999999996">
        <ele>762.042</ele>
        <time>2022-08-24T14:01:00Z</time>
      </trkpt>
      <trkpt lat="42.96166999999985" lon="-1.440687999999996">
        <ele>762.226</ele>
        <time>2022-08-24T14:01:01Z</time>
      </trkpt>
      <trkpt lat="42.96166699999985" lon="-1.440695999999996">
        <ele>762.209</ele>
        <time>2022-08-24T14:01:02Z</time>
      </trkpt>
      <trkpt lat="42.96166599999985" lon="-1.440704999999996">
        <ele>762.659</ele>
        <time>2022-08-24T14:01:03Z</time>
      </trkpt>
      <trkpt lat="42.96166299999985" lon="-1.4407169999999958">
        <ele>762.659</ele>
        <time>2022-08-24T14:01:04Z</time>
      </trkpt>
      <trkpt lat="42.96165999999985" lon="-1.4407279999999958">
        <ele>762.889</ele>
        <time>2022-08-24T14:01:05Z</time>
      </trkpt>
      <trkpt lat="42.961652999999856" lon="-1.4407399999999957">
        <ele>763.055</ele>
        <time>2022-08-24T14:01:06Z</time>
      </trkpt>
      <trkpt lat="42.96164899999986" lon="-1.4407529999999957">
        <ele>763.247</ele>
        <time>2022-08-24T14:01:07Z</time>
      </trkpt>
      <trkpt lat="42.96164599999986" lon="-1.4407639999999957">
        <ele>763.494</ele>
        <time>2022-08-24T14:01:08Z</time>
      </trkpt>
      <trkpt lat="42.96164199999986" lon="-1.4407729999999956">
        <ele>763.467</ele>
        <time>2022-08-24T14:01:09Z</time>
      </trkpt>
      <trkpt lat="42.961637999999866" lon="-1.4407799999999957">
        <ele>763.871</ele>
        <time>2022-08-24T14:01:10Z</time>
      </trkpt>
      <trkpt lat="42.961632999999864" lon="-1.4407859999999957">
        <ele>764.050</ele>
        <time>2022-08-24T14:01:11Z</time>
      </trkpt>
      <trkpt lat="42.96162899999987" lon="-1.4407959999999957">
        <ele>764.236</ele>
        <time>2022-08-24T14:01:12Z</time>
      </trkpt>
      <trkpt lat="42.961623999999865" lon="-1.4408059999999958">
        <ele>764.417</ele>
        <time>2022-08-24T14:01:13Z</time>
      </trkpt>
      <trkpt lat="42.961618999999864" lon="-1.4408149999999957">
        <ele>764.418</ele>
        <time>2022-08-24T14:01:14Z</time>
      </trkpt>
      <trkpt lat="42.961612999999865" lon="-1.4408239999999957">
        <ele>764.809</ele>
        <time>2022-08-24T14:01:15Z</time>
      </trkpt>
      <trkpt lat="42.96160899999987" lon="-1.4408339999999957">
        <ele>764.854</ele>
        <time>2022-08-24T14:01:16Z</time>
      </trkpt>
      <trkpt lat="42.96160799999987" lon="-1.4408489999999958">
        <ele>765.074</ele>
        <time>2022-08-24T14:01:17Z</time>
      </trkpt>
      <trkpt lat="42.96160399999987" lon="-1.440863999999996">
        <ele>765.244</ele>
        <time>2022-08-24T14:01:18Z</time>
      </trkpt>
      <trkpt lat="42.96159899999987" lon="-1.440876999999996">
        <ele>765.270</ele>
        <time>2022-08-24T14:01:19Z</time>
      </trkpt>
      <trkpt lat="42.96159399999987" lon="-1.440889999999996">
        <ele>765.282</ele>
        <time>2022-08-24T14:01:20Z</time>
      </trkpt>
      <trkpt lat="42.96159099999987" lon="-1.440899999999996">
        <ele>765.259</ele>
        <time>2022-08-24T14:01:21Z</time>
      </trkpt>
      <trkpt lat="42.96158799999987" lon="-1.440910999999996">
        <ele>765.442</ele>
        <time>2022-08-24T14:01:22Z</time>
      </trkpt>
      <trkpt lat="42.961583999999874" lon="-1.4409209999999961">
        <ele>765.476</ele>
        <time>2022-08-24T14:01:23Z</time>
      </trkpt>
      <trkpt lat="42.96157999999988" lon="-1.4409339999999962">
        <ele>765.635</ele>
        <time>2022-08-24T14:01:24Z</time>
      </trkpt>
      <trkpt lat="42.961580999999875" lon="-1.4409469999999962">
        <ele>765.612</ele>
        <time>2022-08-24T14:01:25Z</time>
      </trkpt>
      <trkpt lat="42.961580999999875" lon="-1.4409609999999962">
        <ele>765.632</ele>
        <time>2022-08-24T14:01:26Z</time>
      </trkpt>
      <trkpt lat="42.96157699999988" lon="-1.4409749999999961">
        <ele>765.805</ele>
        <time>2022-08-24T14:01:27Z</time>
      </trkpt>
      <trkpt lat="42.96157299999988" lon="-1.4409879999999962">
        <ele>766.009</ele>
        <time>2022-08-24T14:01:28Z</time>
      </trkpt>
      <trkpt lat="42.96156699999988" lon="-1.4410009999999962">
        <ele>766.242</ele>
        <time>2022-08-24T14:01:29Z</time>
      </trkpt>
      <trkpt lat="42.96156099999988" lon="-1.4410119999999962">
        <ele>766.432</ele>
        <time>2022-08-24T14:01:30Z</time>
      </trkpt>
      <trkpt lat="42.96155799999988" lon="-1.4410249999999962">
        <ele>766.462</ele>
        <time>2022-08-24T14:01:31Z</time>
      </trkpt>
      <trkpt lat="42.96155299999988" lon="-1.4410369999999961">
        <ele>766.448</ele>
        <time>2022-08-24T14:01:32Z</time>
      </trkpt>
      <trkpt lat="42.961548999999884" lon="-1.441047999999996">
        <ele>766.470</ele>
        <time>2022-08-24T14:01:33Z</time>
      </trkpt>
      <trkpt lat="42.96154499999989" lon="-1.441056999999996">
        <ele>766.677</ele>
        <time>2022-08-24T14:01:34Z</time>
      </trkpt>
      <trkpt lat="42.961542999999885" lon="-1.441068999999996">
        <ele>766.650</ele>
        <time>2022-08-24T14:01:35Z</time>
      </trkpt>
      <trkpt lat="42.96153899999989" lon="-1.441081999999996">
        <ele>766.654</ele>
        <time>2022-08-24T14:01:36Z</time>
      </trkpt>
      <trkpt lat="42.96153499999989" lon="-1.441097999999996">
        <ele>766.823</ele>
        <time>2022-08-24T14:01:37Z</time>
      </trkpt>
      <trkpt lat="42.96153199999989" lon="-1.441112999999996">
        <ele>767.054</ele>
        <time>2022-08-24T14:01:38Z</time>
      </trkpt>
      <trkpt lat="42.96152699999989" lon="-1.4411279999999962">
        <ele>767.456</ele>
        <time>2022-08-24T14:01:39Z</time>
      </trkpt>
      <trkpt lat="42.96152199999989" lon="-1.4411439999999962">
        <ele>767.411</ele>
        <time>2022-08-24T14:01:40Z</time>
      </trkpt>
      <trkpt lat="42.96151699999989" lon="-1.4411589999999963">
        <ele>767.609</ele>
        <time>2022-08-24T14:01:41Z</time>
      </trkpt>
      <trkpt lat="42.96151399999989" lon="-1.4411739999999964">
        <ele>767.666</ele>
        <time>2022-08-24T14:01:42Z</time>
      </trkpt>
      <trkpt lat="42.961508999999886" lon="-1.4411919999999965">
        <ele>767.636</ele>
        <time>2022-08-24T14:01:43Z</time>
      </trkpt>
      <trkpt lat="42.96150499999989" lon="-1.4412079999999965">
        <ele>767.676</ele>
        <time>2022-08-24T14:01:44Z</time>
      </trkpt>
      <trkpt lat="42.96149999999989" lon="-1.4412229999999966">
        <ele>767.642</ele>
        <time>2022-08-24T14:01:45Z</time>
      </trkpt>
      <trkpt lat="42.961494999999886" lon="-1.4412369999999965">
        <ele>767.844</ele>
        <time>2022-08-24T14:01:46Z</time>
      </trkpt>
      <trkpt lat="42.96148899999989" lon="-1.4412509999999965">
        <ele>767.841</ele>
        <time>2022-08-24T14:01:47Z</time>
      </trkpt>
      <trkpt lat="42.96148299999989" lon="-1.4412629999999964">
        <ele>768.074</ele>
        <time>2022-08-24T14:01:48Z</time>
      </trkpt>
      <trkpt lat="42.96147599999989" lon="-1.4412759999999964">
        <ele>768.038</ele>
        <time>2022-08-24T14:01:49Z</time>
      </trkpt>
      <trkpt lat="42.961468999999894" lon="-1.4412889999999965">
        <ele>768.037</ele>
        <time>2022-08-24T14:01:50Z</time>
      </trkpt>
      <trkpt lat="42.96146399999989" lon="-1.4413039999999966">
        <ele>768.227</ele>
        <time>2022-08-24T14:01:51Z</time>
      </trkpt>
      <trkpt lat="42.96144799999989" lon="-1.4413629999999966">
        <ele>768.468</ele>
        <time>2022-08-24T14:01:55Z</time>
      </trkpt>
      <trkpt lat="42.96143499999989" lon="-1.4413909999999965">
        <ele>768.414</ele>
        <time>2022-08-24T14:01:57Z</time>
      </trkpt>
      <trkpt lat="42.96142299999989" lon="-1.4414179999999965">
        <ele>768.609</ele>
        <time>2022-08-24T14:01:59Z</time>
      </trkpt>
      <trkpt lat="42.96140499999989" lon="-1.4414619999999965">
        <ele>768.683</ele>
        <time>2022-08-24T14:02:02Z</time>
      </trkpt>
      <trkpt lat="42.961381999999894" lon="-1.4415249999999964">
        <ele>769.253</ele>
        <time>2022-08-24T14:02:06Z</time>
      </trkpt>
      <trkpt lat="42.96137699999989" lon="-1.4415399999999965">
        <ele>769.213</ele>
        <time>2022-08-24T14:02:07Z</time>
      </trkpt>
      <trkpt lat="42.96137399999989" lon="-1.4415529999999965">
        <ele>769.699</ele>
        <time>2022-08-24T14:02:08Z</time>
      </trkpt>
      <trkpt lat="42.96137199999989" lon="-1.4415629999999966">
        <ele>769.641</ele>
        <time>2022-08-24T14:02:09Z</time>
      </trkpt>
      <trkpt lat="42.96136699999989" lon="-1.4415759999999966">
        <ele>769.668</ele>
        <time>2022-08-24T14:02:10Z</time>
      </trkpt>
      <trkpt lat="42.96136099999989" lon="-1.4416019999999967">
        <ele>770.041</ele>
        <time>2022-08-24T14:02:12Z</time>
      </trkpt>
      <trkpt lat="42.96135599999989" lon="-1.4416149999999968">
        <ele>770.275</ele>
        <time>2022-08-24T14:02:13Z</time>
      </trkpt>
      <trkpt lat="42.96135199999989" lon="-1.4416269999999967">
        <ele>770.494</ele>
        <time>2022-08-24T14:02:14Z</time>
      </trkpt>
      <trkpt lat="42.961344999999895" lon="-1.4416409999999966">
        <ele>770.698</ele>
        <time>2022-08-24T14:02:15Z</time>
      </trkpt>
      <trkpt lat="42.961338999999896" lon="-1.4416559999999967">
        <ele>771.015</ele>
        <time>2022-08-24T14:02:16Z</time>
      </trkpt>
      <trkpt lat="42.961330999999895" lon="-1.4416979999999968">
        <ele>771.426</ele>
        <time>2022-08-24T14:02:19Z</time>
      </trkpt>
      <trkpt lat="42.96132899999989" lon="-1.441712999999997">
        <ele>771.609</ele>
        <time>2022-08-24T14:02:20Z</time>
      </trkpt>
      <trkpt lat="42.961327999999895" lon="-1.4417269999999969">
        <ele>771.620</ele>
        <time>2022-08-24T14:02:21Z</time>
      </trkpt>
      <trkpt lat="42.961322999999894" lon="-1.441741999999997">
        <ele>771.630</ele>
        <time>2022-08-24T14:02:22Z</time>
      </trkpt>
      <trkpt lat="42.9613159999999" lon="-1.441757999999997">
        <ele>771.680</ele>
        <time>2022-08-24T14:02:23Z</time>
      </trkpt>
      <trkpt lat="42.9613129999999" lon="-1.4417699999999969">
        <ele>771.816</ele>
        <time>2022-08-24T14:02:24Z</time>
      </trkpt>
      <trkpt lat="42.9613129999999" lon="-1.4417819999999968">
        <ele>771.838</ele>
        <time>2022-08-24T14:02:25Z</time>
      </trkpt>
      <trkpt lat="42.9613119999999" lon="-1.4417959999999967">
        <ele>771.845</ele>
        <time>2022-08-24T14:02:26Z</time>
      </trkpt>
      <trkpt lat="42.9613119999999" lon="-1.4418089999999968">
        <ele>771.858</ele>
        <time>2022-08-24T14:02:27Z</time>
      </trkpt>
      <trkpt lat="42.9613119999999" lon="-1.4418219999999968">
        <ele>771.872</ele>
        <time>2022-08-24T14:02:28Z</time>
      </trkpt>
      <trkpt lat="42.9613099999999" lon="-1.441836999999997">
        <ele>771.841</ele>
        <time>2022-08-24T14:02:29Z</time>
      </trkpt>
      <trkpt lat="42.961310999999895" lon="-1.441852999999997">
        <ele>772.049</ele>
        <time>2022-08-24T14:02:30Z</time>
      </trkpt>
      <trkpt lat="42.961310999999895" lon="-1.441867999999997">
        <ele>772.002</ele>
        <time>2022-08-24T14:02:31Z</time>
      </trkpt>
      <trkpt lat="42.9613099999999" lon="-1.441883999999997">
        <ele>772.022</ele>
        <time>2022-08-24T14:02:32Z</time>
      </trkpt>
      <trkpt lat="42.9613099999999" lon="-1.441899999999997">
        <ele>772.009</ele>
        <time>2022-08-24T14:02:33Z</time>
      </trkpt>
      <trkpt lat="42.961307999999896" lon="-1.441916999999997">
        <ele>772.095</ele>
        <time>2022-08-24T14:02:34Z</time>
      </trkpt>
      <trkpt lat="42.9613069999999" lon="-1.441934999999997">
        <ele>772.045</ele>
        <time>2022-08-24T14:02:35Z</time>
      </trkpt>
      <trkpt lat="42.9613069999999" lon="-1.4419529999999972">
        <ele>772.235</ele>
        <time>2022-08-24T14:02:36Z</time>
      </trkpt>
      <trkpt lat="42.961304999999896" lon="-1.4419709999999972">
        <ele>772.461</ele>
        <time>2022-08-24T14:02:37Z</time>
      </trkpt>
      <trkpt lat="42.9613009999999" lon="-1.4420459999999973">
        <ele>772.853</ele>
        <time>2022-08-24T14:02:41Z</time>
      </trkpt>
      <trkpt lat="42.9612979999999" lon="-1.4420629999999972">
        <ele>772.850</ele>
        <time>2022-08-24T14:02:42Z</time>
      </trkpt>
      <trkpt lat="42.9612919999999" lon="-1.4421169999999972">
        <ele>773.063</ele>
        <time>2022-08-24T14:02:45Z</time>
      </trkpt>
      <trkpt lat="42.9612919999999" lon="-1.4421339999999971">
        <ele>773.247</ele>
        <time>2022-08-24T14:02:46Z</time>
      </trkpt>
      <trkpt lat="42.9612919999999" lon="-1.442147999999997">
        <ele>773.256</ele>
        <time>2022-08-24T14:02:47Z</time>
      </trkpt>
      <trkpt lat="42.9612959999999" lon="-1.4421629999999972">
        <ele>773.448</ele>
        <time>2022-08-24T14:02:48Z</time>
      </trkpt>
      <trkpt lat="42.9612949999999" lon="-1.4421799999999971">
        <ele>773.661</ele>
        <time>2022-08-24T14:02:49Z</time>
      </trkpt>
      <trkpt lat="42.9612939999999" lon="-1.4422169999999972">
        <ele>773.817</ele>
        <time>2022-08-24T14:02:51Z</time>
      </trkpt>
      <trkpt lat="42.9612939999999" lon="-1.4422349999999973">
        <ele>774.009</ele>
        <time>2022-08-24T14:02:52Z</time>
      </trkpt>
      <trkpt lat="42.9612889999999" lon="-1.4422519999999972">
        <ele>774.295</ele>
        <time>2022-08-24T14:02:53Z</time>
      </trkpt>
      <trkpt lat="42.961281999999905" lon="-1.4422689999999971">
        <ele>774.235</ele>
        <time>2022-08-24T14:02:54Z</time>
      </trkpt>
      <trkpt lat="42.9612769999999" lon="-1.442285999999997">
        <ele>774.485</ele>
        <time>2022-08-24T14:02:55Z</time>
      </trkpt>
      <trkpt lat="42.9612719999999" lon="-1.442302999999997">
        <ele>774.661</ele>
        <time>2022-08-24T14:02:56Z</time>
      </trkpt>
      <trkpt lat="42.961267999999905" lon="-1.442318999999997">
        <ele>774.643</ele>
        <time>2022-08-24T14:02:57Z</time>
      </trkpt>
      <trkpt lat="42.96126399999991" lon="-1.442337999999997">
        <ele>775.060</ele>
        <time>2022-08-24T14:02:58Z</time>
      </trkpt>
      <trkpt lat="42.96125999999991" lon="-1.442354999999997">
        <ele>775.073</ele>
        <time>2022-08-24T14:02:59Z</time>
      </trkpt>
      <trkpt lat="42.96125599999991" lon="-1.442372999999997">
        <ele>775.287</ele>
        <time>2022-08-24T14:03:00Z</time>
      </trkpt>
      <trkpt lat="42.961252999999914" lon="-1.442388999999997">
        <ele>775.266</ele>
        <time>2022-08-24T14:03:01Z</time>
      </trkpt>
      <trkpt lat="42.961252999999914" lon="-1.442405999999997">
        <ele>775.263</ele>
        <time>2022-08-24T14:03:02Z</time>
      </trkpt>
      <trkpt lat="42.96125099999991" lon="-1.442419999999997">
        <ele>775.444</ele>
        <time>2022-08-24T14:03:03Z</time>
      </trkpt>
      <trkpt lat="42.961249999999914" lon="-1.4424319999999968">
        <ele>775.418</ele>
        <time>2022-08-24T14:03:04Z</time>
      </trkpt>
      <trkpt lat="42.96124899999992" lon="-1.4424459999999968">
        <ele>775.809</ele>
        <time>2022-08-24T14:03:05Z</time>
      </trkpt>
      <trkpt lat="42.96124799999992" lon="-1.4424589999999968">
        <ele>776.017</ele>
        <time>2022-08-24T14:03:06Z</time>
      </trkpt>
      <trkpt lat="42.96124799999992" lon="-1.4424719999999969">
        <ele>776.477</ele>
        <time>2022-08-24T14:03:07Z</time>
      </trkpt>
      <trkpt lat="42.96124499999992" lon="-1.4424889999999968">
        <ele>776.657</ele>
        <time>2022-08-24T14:03:08Z</time>
      </trkpt>
      <trkpt lat="42.96124199999992" lon="-1.4425009999999967">
        <ele>776.893</ele>
        <time>2022-08-24T14:03:09Z</time>
      </trkpt>
      <trkpt lat="42.96123899999992" lon="-1.4425149999999967">
        <ele>777.025</ele>
        <time>2022-08-24T14:03:10Z</time>
      </trkpt>
      <trkpt lat="42.96123699999992" lon="-1.4425279999999967">
        <ele>777.262</ele>
        <time>2022-08-24T14:03:11Z</time>
      </trkpt>
      <trkpt lat="42.96123299999992" lon="-1.4425409999999967">
        <ele>777.495</ele>
        <time>2022-08-24T14:03:12Z</time>
      </trkpt>
      <trkpt lat="42.961231999999924" lon="-1.4425519999999967">
        <ele>777.689</ele>
        <time>2022-08-24T14:03:13Z</time>
      </trkpt>
      <trkpt lat="42.96123099999993" lon="-1.4425649999999968">
        <ele>777.678</ele>
        <time>2022-08-24T14:03:14Z</time>
      </trkpt>
      <trkpt lat="42.96122699999993" lon="-1.4425829999999968">
        <ele>778.042</ele>
        <time>2022-08-24T14:03:15Z</time>
      </trkpt>
      <trkpt lat="42.96122399999993" lon="-1.442600999999997">
        <ele>778.222</ele>
        <time>2022-08-24T14:03:16Z</time>
      </trkpt>
      <trkpt lat="42.96122099999993" lon="-1.442616999999997">
        <ele>778.214</ele>
        <time>2022-08-24T14:03:17Z</time>
      </trkpt>
      <trkpt lat="42.96121899999993" lon="-1.442635999999997">
        <ele>778.409</ele>
        <time>2022-08-24T14:03:18Z</time>
      </trkpt>
      <trkpt lat="42.96121799999993" lon="-1.442650999999997">
        <ele>778.495</ele>
        <time>2022-08-24T14:03:19Z</time>
      </trkpt>
      <trkpt lat="42.961216999999934" lon="-1.442666999999997">
        <ele>778.615</ele>
        <time>2022-08-24T14:03:20Z</time>
      </trkpt>
      <trkpt lat="42.96121499999993" lon="-1.442679999999997">
        <ele>778.625</ele>
        <time>2022-08-24T14:03:21Z</time>
      </trkpt>
      <trkpt lat="42.96121299999993" lon="-1.4426929999999971">
        <ele>779.081</ele>
        <time>2022-08-24T14:03:22Z</time>
      </trkpt>
      <trkpt lat="42.96121099999993" lon="-1.4427079999999972">
        <ele>779.263</ele>
        <time>2022-08-24T14:03:23Z</time>
      </trkpt>
      <trkpt lat="42.96120699999993" lon="-1.4427199999999971">
        <ele>779.670</ele>
        <time>2022-08-24T14:03:24Z</time>
      </trkpt>
      <trkpt lat="42.961202999999934" lon="-1.4427299999999972">
        <ele>779.853</ele>
        <time>2022-08-24T14:03:25Z</time>
      </trkpt>
      <trkpt lat="42.961199999999934" lon="-1.442741999999997">
        <ele>779.867</ele>
        <time>2022-08-24T14:03:26Z</time>
      </trkpt>
      <trkpt lat="42.96119599999994" lon="-1.442757999999997">
        <ele>780.076</ele>
        <time>2022-08-24T14:03:27Z</time>
      </trkpt>
      <trkpt lat="42.96119299999994" lon="-1.442771999999997">
        <ele>780.088</ele>
        <time>2022-08-24T14:03:28Z</time>
      </trkpt>
      <trkpt lat="42.961187999999936" lon="-1.442783999999997">
        <ele>780.024</ele>
        <time>2022-08-24T14:03:29Z</time>
      </trkpt>
      <trkpt lat="42.96118399999994" lon="-1.442793999999997">
        <ele>780.226</ele>
        <time>2022-08-24T14:03:30Z</time>
      </trkpt>
      <trkpt lat="42.96117799999994" lon="-1.442799999999997">
        <ele>780.409</ele>
        <time>2022-08-24T14:03:31Z</time>
      </trkpt>
      <trkpt lat="42.96117099999994" lon="-1.442804999999997">
        <ele>780.469</ele>
        <time>2022-08-24T14:03:32Z</time>
      </trkpt>
      <trkpt lat="42.96116399999995" lon="-1.442811999999997">
        <ele>780.459</ele>
        <time>2022-08-24T14:03:33Z</time>
      </trkpt>
      <trkpt lat="42.961155999999946" lon="-1.442819999999997">
        <ele>780.639</ele>
        <time>2022-08-24T14:03:34Z</time>
      </trkpt>
      <trkpt lat="42.961147999999945" lon="-1.4428279999999971">
        <ele>780.635</ele>
        <time>2022-08-24T14:03:35Z</time>
      </trkpt>
      <trkpt lat="42.96113999999994" lon="-1.4428349999999972">
        <ele>780.897</ele>
        <time>2022-08-24T14:03:36Z</time>
      </trkpt>
      <trkpt lat="42.96113299999995" lon="-1.4428409999999972">
        <ele>780.844</ele>
        <time>2022-08-24T14:03:37Z</time>
      </trkpt>
      <trkpt lat="42.96112399999995" lon="-1.4428459999999972">
        <ele>780.857</ele>
        <time>2022-08-24T14:03:38Z</time>
      </trkpt>
      <trkpt lat="42.96111499999995" lon="-1.4428539999999972">
        <ele>780.821</ele>
        <time>2022-08-24T14:03:39Z</time>
      </trkpt>
      <trkpt lat="42.96110599999995" lon="-1.442865999999997">
        <ele>781.070</ele>
        <time>2022-08-24T14:03:40Z</time>
      </trkpt>
      <trkpt lat="42.96109999999995" lon="-1.442876999999997">
        <ele>781.027</ele>
        <time>2022-08-24T14:03:41Z</time>
      </trkpt>
      <trkpt lat="42.961095999999955" lon="-1.4428919999999972">
        <ele>781.268</ele>
        <time>2022-08-24T14:03:42Z</time>
      </trkpt>
      <trkpt lat="42.96108899999996" lon="-1.4429129999999972">
        <ele>781.214</ele>
        <time>2022-08-24T14:03:43Z</time>
      </trkpt>
      <trkpt lat="42.96108599999996" lon="-1.4429299999999972">
        <ele>781.209</ele>
        <time>2022-08-24T14:03:44Z</time>
      </trkpt>
      <trkpt lat="42.96108099999996" lon="-1.4429449999999973">
        <ele>781.283</ele>
        <time>2022-08-24T14:03:45Z</time>
      </trkpt>
      <trkpt lat="42.96107699999996" lon="-1.4429589999999972">
        <ele>781.443</ele>
        <time>2022-08-24T14:03:46Z</time>
      </trkpt>
      <trkpt lat="42.96107099999996" lon="-1.4429759999999971">
        <ele>781.493</ele>
        <time>2022-08-24T14:03:47Z</time>
      </trkpt>
      <trkpt lat="42.96106499999996" lon="-1.4429919999999972">
        <ele>781.459</ele>
        <time>2022-08-24T14:03:48Z</time>
      </trkpt>
      <trkpt lat="42.961057999999966" lon="-1.443011999999997">
        <ele>781.471</ele>
        <time>2022-08-24T14:03:49Z</time>
      </trkpt>
      <trkpt lat="42.96105099999997" lon="-1.443025999999997">
        <ele>781.448</ele>
        <time>2022-08-24T14:03:50Z</time>
      </trkpt>
      <trkpt lat="42.96104799999997" lon="-1.443041999999997">
        <ele>781.631</ele>
        <time>2022-08-24T14:03:51Z</time>
      </trkpt>
      <trkpt lat="42.96104699999997" lon="-1.443062999999997">
        <ele>781.665</ele>
        <time>2022-08-24T14:03:52Z</time>
      </trkpt>
      <trkpt lat="42.96104099999997" lon="-1.443097999999997">
        <ele>781.874</ele>
        <time>2022-08-24T14:03:54Z</time>
      </trkpt>
      <trkpt lat="42.96102499999997" lon="-1.4431459999999972">
        <ele>781.845</ele>
        <time>2022-08-24T14:03:57Z</time>
      </trkpt>
      <trkpt lat="42.96101999999997" lon="-1.4431649999999971">
        <ele>782.047</ele>
        <time>2022-08-24T14:03:58Z</time>
      </trkpt>
      <trkpt lat="42.96101399999997" lon="-1.4431999999999972">
        <ele>782.411</ele>
        <time>2022-08-24T14:04:00Z</time>
      </trkpt>
      <trkpt lat="42.96100999999997" lon="-1.4432149999999973">
        <ele>782.409</ele>
        <time>2022-08-24T14:04:01Z</time>
      </trkpt>
      <trkpt lat="42.961005999999976" lon="-1.4432299999999973">
        <ele>782.665</ele>
        <time>2022-08-24T14:04:02Z</time>
      </trkpt>
      <trkpt lat="42.961000999999975" lon="-1.4432439999999973">
        <ele>782.665</ele>
        <time>2022-08-24T14:04:03Z</time>
      </trkpt>
      <trkpt lat="42.960983999999975" lon="-1.4432879999999972">
        <ele>783.265</ele>
        <time>2022-08-24T14:04:06Z</time>
      </trkpt>
      <trkpt lat="42.960963999999976" lon="-1.4433479999999972">
        <ele>783.621</ele>
        <time>2022-08-24T14:04:10Z</time>
      </trkpt>
      <trkpt lat="42.960960999999976" lon="-1.4433629999999973">
        <ele>783.683</ele>
        <time>2022-08-24T14:04:11Z</time>
      </trkpt>
      <trkpt lat="42.96095999999998" lon="-1.4433769999999972">
        <ele>783.890</ele>
        <time>2022-08-24T14:04:12Z</time>
      </trkpt>
      <trkpt lat="42.96095799999998" lon="-1.4433949999999973">
        <ele>784.083</ele>
        <time>2022-08-24T14:04:13Z</time>
      </trkpt>
      <trkpt lat="42.96095499999998" lon="-1.4434049999999974">
        <ele>784.267</ele>
        <time>2022-08-24T14:04:14Z</time>
      </trkpt>
      <trkpt lat="42.96093799999998" lon="-1.4434489999999973">
        <ele>784.816</ele>
        <time>2022-08-24T14:04:17Z</time>
      </trkpt>
      <trkpt lat="42.960935999999975" lon="-1.4434619999999974">
        <ele>784.892</ele>
        <time>2022-08-24T14:04:18Z</time>
      </trkpt>
      <trkpt lat="42.96093499999998" lon="-1.4434729999999973">
        <ele>785.073</ele>
        <time>2022-08-24T14:04:19Z</time>
      </trkpt>
      <trkpt lat="42.96093399999998" lon="-1.4434889999999974">
        <ele>785.020</ele>
        <time>2022-08-24T14:04:20Z</time>
      </trkpt>
      <trkpt lat="42.96093599999998" lon="-1.4435109999999973">
        <ele>785.209</ele>
        <time>2022-08-24T14:04:21Z</time>
      </trkpt>
      <trkpt lat="42.96093899999998" lon="-1.4435289999999974">
        <ele>785.260</ele>
        <time>2022-08-24T14:04:22Z</time>
      </trkpt>
      <trkpt lat="42.96094199999998" lon="-1.4435459999999973">
        <ele>785.450</ele>
        <time>2022-08-24T14:04:23Z</time>
      </trkpt>
      <trkpt lat="42.96094299999998" lon="-1.4435559999999974">
        <ele>785.680</ele>
        <time>2022-08-24T14:04:24Z</time>
      </trkpt>
      <trkpt lat="42.960946999999976" lon="-1.4435729999999973">
        <ele>785.856</ele>
        <time>2022-08-24T14:04:25Z</time>
      </trkpt>
      <trkpt lat="42.96094799999997" lon="-1.4435849999999972">
        <ele>785.868</ele>
        <time>2022-08-24T14:04:26Z</time>
      </trkpt>
      <trkpt lat="42.960949999999976" lon="-1.4435989999999972">
        <ele>786.045</ele>
        <time>2022-08-24T14:04:27Z</time>
      </trkpt>
      <trkpt lat="42.96095399999997" lon="-1.4436069999999972">
        <ele>786.248</ele>
        <time>2022-08-24T14:04:28Z</time>
      </trkpt>
      <trkpt lat="42.96095799999997" lon="-1.4436219999999973">
        <ele>786.462</ele>
        <time>2022-08-24T14:04:29Z</time>
      </trkpt>
      <trkpt lat="42.96095899999997" lon="-1.4436389999999972">
        <ele>786.431</ele>
        <time>2022-08-24T14:04:30Z</time>
      </trkpt>
      <trkpt lat="42.96095599999997" lon="-1.4436529999999972">
        <ele>786.673</ele>
        <time>2022-08-24T14:04:31Z</time>
      </trkpt>
      <trkpt lat="42.96095499999997" lon="-1.4436689999999972">
        <ele>786.885</ele>
        <time>2022-08-24T14:04:32Z</time>
      </trkpt>
      <trkpt lat="42.96095499999997" lon="-1.443680999999997">
        <ele>786.813</ele>
        <time>2022-08-24T14:04:33Z</time>
      </trkpt>
      <trkpt lat="42.96095399999997" lon="-1.4436989999999972">
        <ele>787.009</ele>
        <time>2022-08-24T14:04:34Z</time>
      </trkpt>
      <trkpt lat="42.960952999999975" lon="-1.4437169999999973">
        <ele>787.048</ele>
        <time>2022-08-24T14:04:35Z</time>
      </trkpt>
      <trkpt lat="42.96095099999997" lon="-1.4437349999999973">
        <ele>787.298</ele>
        <time>2022-08-24T14:04:36Z</time>
      </trkpt>
      <trkpt lat="42.96095099999997" lon="-1.4437519999999973">
        <ele>787.658</ele>
        <time>2022-08-24T14:04:37Z</time>
      </trkpt>
      <trkpt lat="42.96095199999997" lon="-1.4437669999999974">
        <ele>787.824</ele>
        <time>2022-08-24T14:04:38Z</time>
      </trkpt>
      <trkpt lat="42.96094899999997" lon="-1.4437879999999974">
        <ele>788.046</ele>
        <time>2022-08-24T14:04:39Z</time>
      </trkpt>
      <trkpt lat="42.96094599999997" lon="-1.4438009999999974">
        <ele>788.243</ele>
        <time>2022-08-24T14:04:40Z</time>
      </trkpt>
      <trkpt lat="42.96094599999997" lon="-1.4438169999999975">
        <ele>788.676</ele>
        <time>2022-08-24T14:04:41Z</time>
      </trkpt>
      <trkpt lat="42.96094399999997" lon="-1.4438299999999975">
        <ele>788.660</ele>
        <time>2022-08-24T14:04:42Z</time>
      </trkpt>
      <trkpt lat="42.96094099999997" lon="-1.4438409999999975">
        <ele>789.019</ele>
        <time>2022-08-24T14:04:43Z</time>
      </trkpt>
      <trkpt lat="42.96093899999997" lon="-1.4438519999999975">
        <ele>789.283</ele>
        <time>2022-08-24T14:04:44Z</time>
      </trkpt>
      <trkpt lat="42.96093899999997" lon="-1.4438669999999976">
        <ele>789.425</ele>
        <time>2022-08-24T14:04:45Z</time>
      </trkpt>
      <trkpt lat="42.960939999999965" lon="-1.4438789999999975">
        <ele>789.617</ele>
        <time>2022-08-24T14:04:46Z</time>
      </trkpt>
      <trkpt lat="42.96093899999997" lon="-1.4438899999999975">
        <ele>789.809</ele>
        <time>2022-08-24T14:04:47Z</time>
      </trkpt>
      <trkpt lat="42.960939999999965" lon="-1.4439009999999974">
        <ele>790.089</ele>
        <time>2022-08-24T14:04:48Z</time>
      </trkpt>
      <trkpt lat="42.960942999999965" lon="-1.4439099999999974">
        <ele>790.489</ele>
        <time>2022-08-24T14:04:49Z</time>
      </trkpt>
      <trkpt lat="42.960945999999964" lon="-1.4439219999999973">
        <ele>790.669</ele>
        <time>2022-08-24T14:04:50Z</time>
      </trkpt>
      <trkpt lat="42.960950999999966" lon="-1.4439309999999972">
        <ele>791.075</ele>
        <time>2022-08-24T14:04:51Z</time>
      </trkpt>
      <trkpt lat="42.96095299999997" lon="-1.4439389999999972">
        <ele>791.057</ele>
        <time>2022-08-24T14:04:52Z</time>
      </trkpt>
      <trkpt lat="42.960953999999965" lon="-1.443950999999997">
        <ele>791.264</ele>
        <time>2022-08-24T14:04:53Z</time>
      </trkpt>
      <trkpt lat="42.960956999999965" lon="-1.443962999999997">
        <ele>791.257</ele>
        <time>2022-08-24T14:04:54Z</time>
      </trkpt>
      <trkpt lat="42.96095899999997" lon="-1.443972999999997">
        <ele>791.621</ele>
        <time>2022-08-24T14:04:55Z</time>
      </trkpt>
      <trkpt lat="42.96095899999997" lon="-1.443985999999997">
        <ele>791.870</ele>
        <time>2022-08-24T14:04:56Z</time>
      </trkpt>
      <trkpt lat="42.96095899999997" lon="-1.4439959999999972">
        <ele>791.855</ele>
        <time>2022-08-24T14:04:57Z</time>
      </trkpt>
      <trkpt lat="42.96095799999997" lon="-1.4440069999999972">
        <ele>792.007</ele>
        <time>2022-08-24T14:04:58Z</time>
      </trkpt>
      <trkpt lat="42.96095699999997" lon="-1.4440209999999971">
        <ele>792.217</ele>
        <time>2022-08-24T14:04:59Z</time>
      </trkpt>
      <trkpt lat="42.96095699999997" lon="-1.4440359999999972">
        <ele>792.409</ele>
        <time>2022-08-24T14:05:00Z</time>
      </trkpt>
      <trkpt lat="42.960961999999974" lon="-1.4440489999999973">
        <ele>792.426</ele>
        <time>2022-08-24T14:05:01Z</time>
      </trkpt>
      <trkpt lat="42.96096599999997" lon="-1.4440609999999972">
        <ele>792.626</ele>
        <time>2022-08-24T14:05:02Z</time>
      </trkpt>
      <trkpt lat="42.96096899999997" lon="-1.444069999999997">
        <ele>792.876</ele>
        <time>2022-08-24T14:05:03Z</time>
      </trkpt>
      <trkpt lat="42.96097099999997" lon="-1.4440799999999971">
        <ele>793.052</ele>
        <time>2022-08-24T14:05:04Z</time>
      </trkpt>
      <trkpt lat="42.96097199999997" lon="-1.444085999999997">
        <ele>793.844</ele>
        <time>2022-08-24T14:06:38Z</time>
      </trkpt>
      <trkpt lat="42.96097199999997" lon="-1.444085999999997">
        <ele>793.841</ele>
        <time>2022-08-24T14:06:39Z</time>
      </trkpt>
      <trkpt lat="42.96097199999997" lon="-1.444085999999997">
        <ele>794.074</ele>
        <time>2022-08-24T14:06:41Z</time>
      </trkpt>
      <trkpt lat="42.96098699999997" lon="-1.444170999999997">
        <ele>795.288</ele>
        <time>2022-08-24T14:07:12Z</time>
      </trkpt>
      <trkpt lat="42.96098899999997" lon="-1.444210999999997">
        <ele>795.837</ele>
        <time>2022-08-24T14:07:18Z</time>
      </trkpt>
      <trkpt lat="42.96098599999997" lon="-1.444231999999997">
        <ele>796.032</ele>
        <time>2022-08-24T14:07:20Z</time>
      </trkpt>
      <trkpt lat="42.96098599999997" lon="-1.4442469999999972">
        <ele>796.292</ele>
        <time>2022-08-24T14:07:21Z</time>
      </trkpt>
      <trkpt lat="42.96098599999997" lon="-1.4442649999999972">
        <ele>796.211</ele>
        <time>2022-08-24T14:07:22Z</time>
      </trkpt>
      <trkpt lat="42.96098999999997" lon="-1.4443069999999973">
        <ele>796.409</ele>
        <time>2022-08-24T14:07:26Z</time>
      </trkpt>
      <trkpt lat="42.96098699999997" lon="-1.4443169999999974">
        <ele>796.624</ele>
        <time>2022-08-24T14:07:28Z</time>
      </trkpt>
      <trkpt lat="42.96098599999997" lon="-1.4443209999999973">
        <ele>796.654</ele>
        <time>2022-08-24T14:07:29Z</time>
      </trkpt>
      <trkpt lat="42.96098699999997" lon="-1.4443259999999973">
        <ele>796.614</ele>
        <time>2022-08-24T14:07:30Z</time>
      </trkpt>
      <trkpt lat="42.960984999999965" lon="-1.4443819999999974">
        <ele>797.830</ele>
        <time>2022-08-24T14:07:55Z</time>
      </trkpt>
      <trkpt lat="42.960981999999966" lon="-1.4444519999999974">
        <ele>798.652</ele>
        <time>2022-08-24T14:08:01Z</time>
      </trkpt>
      <trkpt lat="42.960981999999966" lon="-1.4444609999999973">
        <ele>798.889</ele>
        <time>2022-08-24T14:08:02Z</time>
      </trkpt>
      <trkpt lat="42.96097499999997" lon="-1.4444839999999974">
        <ele>799.042</ele>
        <time>2022-08-24T14:08:05Z</time>
      </trkpt>
      <trkpt lat="42.96097299999997" lon="-1.4444879999999973">
        <ele>799.246</ele>
        <time>2022-08-24T14:08:06Z</time>
      </trkpt>
      <trkpt lat="42.96096399999997" lon="-1.4445099999999973">
        <ele>799.465</ele>
        <time>2022-08-24T14:08:10Z</time>
      </trkpt>
      <trkpt lat="42.96096099999997" lon="-1.4445149999999973">
        <ele>799.476</ele>
        <time>2022-08-24T14:08:11Z</time>
      </trkpt>
      <trkpt lat="42.96094699999997" lon="-1.4445599999999974">
        <ele>800.090</ele>
        <time>2022-08-24T14:08:17Z</time>
      </trkpt>
      <trkpt lat="42.96094399999997" lon="-1.4445709999999974">
        <ele>800.219</ele>
        <time>2022-08-24T14:08:19Z</time>
      </trkpt>
      <trkpt lat="42.96093499999997" lon="-1.4445979999999974">
        <ele>800.809</ele>
        <time>2022-08-24T14:08:22Z</time>
      </trkpt>
      <trkpt lat="42.96093499999997" lon="-1.4446089999999974">
        <ele>800.898</ele>
        <time>2022-08-24T14:08:23Z</time>
      </trkpt>
      <trkpt lat="42.96093399999997" lon="-1.4446179999999973">
        <ele>801.028</ele>
        <time>2022-08-24T14:08:24Z</time>
      </trkpt>
      <trkpt lat="42.960929999999976" lon="-1.4446239999999972">
        <ele>801.098</ele>
        <time>2022-08-24T14:08:25Z</time>
      </trkpt>
      <trkpt lat="42.96092899999998" lon="-1.4446299999999972">
        <ele>801.254</ele>
        <time>2022-08-24T14:08:26Z</time>
      </trkpt>
      <trkpt lat="42.96091999999998" lon="-1.4446439999999972">
        <ele>801.416</ele>
        <time>2022-08-24T14:08:28Z</time>
      </trkpt>
      <trkpt lat="42.96091899999998" lon="-1.444647999999997">
        <ele>801.663</ele>
        <time>2022-08-24T14:08:29Z</time>
      </trkpt>
      <trkpt lat="42.96091699999998" lon="-1.444651999999997">
        <ele>801.646</ele>
        <time>2022-08-24T14:08:30Z</time>
      </trkpt>
      <trkpt lat="42.96091499999998" lon="-1.444653999999997">
        <ele>801.810</ele>
        <time>2022-08-24T14:08:31Z</time>
      </trkpt>
      <trkpt lat="42.96090799999998" lon="-1.444674999999997">
        <ele>802.229</ele>
        <time>2022-08-24T14:08:37Z</time>
      </trkpt>
      <trkpt lat="42.96090799999998" lon="-1.444674999999997">
        <ele>802.265</ele>
        <time>2022-08-24T14:08:39Z</time>
      </trkpt>
      <trkpt lat="42.96090599999998" lon="-1.444679999999997">
        <ele>802.468</ele>
        <time>2022-08-24T14:08:40Z</time>
      </trkpt>
      <trkpt lat="42.96090199999998" lon="-1.444687999999997">
        <ele>802.414</ele>
        <time>2022-08-24T14:08:41Z</time>
      </trkpt>
      <trkpt lat="42.960895999999984" lon="-1.444696999999997">
        <ele>802.609</ele>
        <time>2022-08-24T14:08:42Z</time>
      </trkpt>
      <trkpt lat="42.96089399999998" lon="-1.444709999999997">
        <ele>802.657</ele>
        <time>2022-08-24T14:08:43Z</time>
      </trkpt>
      <trkpt lat="42.96089499999998" lon="-1.444714999999997">
        <ele>802.627</ele>
        <time>2022-08-24T14:08:44Z</time>
      </trkpt>
      <trkpt lat="42.96089499999998" lon="-1.444714999999997">
        <ele>802.827</ele>
        <time>2022-08-24T14:08:45Z</time>
      </trkpt>
      <trkpt lat="42.96089499999998" lon="-1.444714999999997">
        <ele>802.813</ele>
        <time>2022-08-24T14:08:46Z</time>
      </trkpt>
      <trkpt lat="42.96089499999998" lon="-1.444714999999997">
        <ele>803.085</ele>
        <time>2022-08-24T14:08:50Z</time>
      </trkpt>
      <trkpt lat="42.96089499999998" lon="-1.444714999999997">
        <ele>803.262</ele>
        <time>2022-08-24T14:08:51Z</time>
      </trkpt>
      <trkpt lat="42.96089499999998" lon="-1.444714999999997">
        <ele>803.285</ele>
        <time>2022-08-24T14:08:53Z</time>
      </trkpt>
      <trkpt lat="42.96088299999998" lon="-1.444730999999997">
        <ele>803.429</ele>
        <time>2022-08-24T14:08:56Z</time>
      </trkpt>
      <trkpt lat="42.96087399999998" lon="-1.444760999999997">
        <ele>803.658</ele>
        <time>2022-08-24T14:08:58Z</time>
      </trkpt>
      <trkpt lat="42.960852999999986" lon="-1.444787999999997">
        <ele>803.889</ele>
        <time>2022-08-24T14:09:01Z</time>
      </trkpt>
      <trkpt lat="42.960850999999984" lon="-1.444798999999997">
        <ele>804.006</ele>
        <time>2022-08-24T14:09:02Z</time>
      </trkpt>
      <trkpt lat="42.96083999999998" lon="-1.4448249999999971">
        <ele>804.426</ele>
        <time>2022-08-24T14:09:10Z</time>
      </trkpt>
      <trkpt lat="42.960833999999984" lon="-1.4448379999999972">
        <ele>804.609</ele>
        <time>2022-08-24T14:09:11Z</time>
      </trkpt>
      <trkpt lat="42.960827999999985" lon="-1.4448569999999972">
        <ele>804.649</ele>
        <time>2022-08-24T14:09:13Z</time>
      </trkpt>
      <trkpt lat="42.96082399999999" lon="-1.4448649999999972">
        <ele>804.649</ele>
        <time>2022-08-24T14:09:14Z</time>
      </trkpt>
      <trkpt lat="42.96082099999999" lon="-1.4448709999999971">
        <ele>804.639</ele>
        <time>2022-08-24T14:09:15Z</time>
      </trkpt>
      <trkpt lat="42.96081599999999" lon="-1.444879999999997">
        <ele>804.855</ele>
        <time>2022-08-24T14:09:16Z</time>
      </trkpt>
      <trkpt lat="42.960810999999985" lon="-1.444885999999997">
        <ele>804.857</ele>
        <time>2022-08-24T14:09:17Z</time>
      </trkpt>
      <trkpt lat="42.960805999999984" lon="-1.444897999999997">
        <ele>805.044</ele>
        <time>2022-08-24T14:09:18Z</time>
      </trkpt>
      <trkpt lat="42.96080399999998" lon="-1.444904999999997">
        <ele>805.237</ele>
        <time>2022-08-24T14:09:19Z</time>
      </trkpt>
      <trkpt lat="42.96078499999998" lon="-1.444916999999997">
        <ele>806.071</ele>
        <time>2022-08-24T14:09:31Z</time>
      </trkpt>
      <trkpt lat="42.96077399999998" lon="-1.4449259999999968">
        <ele>806.070</ele>
        <time>2022-08-24T14:09:33Z</time>
      </trkpt>
      <trkpt lat="42.96077199999998" lon="-1.4449309999999969">
        <ele>806.428</ele>
        <time>2022-08-24T14:09:38Z</time>
      </trkpt>
      <trkpt lat="42.96077199999998" lon="-1.4449309999999969">
        <ele>806.489</ele>
        <time>2022-08-24T14:09:39Z</time>
      </trkpt>
      <trkpt lat="42.960769999999975" lon="-1.444932999999997">
        <ele>806.617</ele>
        <time>2022-08-24T14:09:40Z</time>
      </trkpt>
      <trkpt lat="42.960761999999974" lon="-1.4449419999999968">
        <ele>806.609</ele>
        <time>2022-08-24T14:09:41Z</time>
      </trkpt>
      <trkpt lat="42.96075699999997" lon="-1.4449449999999968">
        <ele>806.893</ele>
        <time>2022-08-24T14:09:42Z</time>
      </trkpt>
      <trkpt lat="42.96075699999997" lon="-1.4449449999999968">
        <ele>806.873</ele>
        <time>2022-08-24T14:09:43Z</time>
      </trkpt>
      <trkpt lat="42.96075699999997" lon="-1.4449449999999968">
        <ele>807.443</ele>
        <time>2022-08-24T14:09:51Z</time>
      </trkpt>
      <trkpt lat="42.960749999999976" lon="-1.4449459999999967">
        <ele>807.639</ele>
        <time>2022-08-24T14:09:54Z</time>
      </trkpt>
      <trkpt lat="42.96069899999998" lon="-1.4450319999999968">
        <ele>808.021</ele>
        <time>2022-08-24T14:10:02Z</time>
      </trkpt>
      <trkpt lat="42.960688999999974" lon="-1.4450439999999967">
        <ele>808.278</ele>
        <time>2022-08-24T14:10:03Z</time>
      </trkpt>
      <trkpt lat="42.96064999999997" lon="-1.4450939999999968">
        <ele>808.621</ele>
        <time>2022-08-24T14:10:07Z</time>
      </trkpt>
      <trkpt lat="42.96062499999997" lon="-1.4451509999999967">
        <ele>809.075</ele>
        <time>2022-08-24T14:10:13Z</time>
      </trkpt>
      <trkpt lat="42.960620999999975" lon="-1.4451569999999967">
        <ele>809.054</ele>
        <time>2022-08-24T14:10:14Z</time>
      </trkpt>
      <trkpt lat="42.96061699999998" lon="-1.4451629999999966">
        <ele>809.214</ele>
        <time>2022-08-24T14:10:15Z</time>
      </trkpt>
      <trkpt lat="42.960614999999976" lon="-1.4451749999999965">
        <ele>809.254</ele>
        <time>2022-08-24T14:10:16Z</time>
      </trkpt>
      <trkpt lat="42.96061399999998" lon="-1.4452089999999966">
        <ele>809.409</ele>
        <time>2022-08-24T14:10:19Z</time>
      </trkpt>
      <trkpt lat="42.960611999999976" lon="-1.4452169999999966">
        <ele>809.409</ele>
        <time>2022-08-24T14:10:20Z</time>
      </trkpt>
      <trkpt lat="42.96060899999998" lon="-1.4452369999999966">
        <ele>809.682</ele>
        <time>2022-08-24T14:10:22Z</time>
      </trkpt>
      <trkpt lat="42.96060799999998" lon="-1.4452699999999965">
        <ele>810.032</ele>
        <time>2022-08-24T14:10:25Z</time>
      </trkpt>
      <trkpt lat="42.96060599999998" lon="-1.4452789999999964">
        <ele>810.252</ele>
        <time>2022-08-24T14:10:26Z</time>
      </trkpt>
      <trkpt lat="42.96060299999998" lon="-1.4452879999999964">
        <ele>810.268</ele>
        <time>2022-08-24T14:10:27Z</time>
      </trkpt>
      <trkpt lat="42.96059499999998" lon="-1.4453139999999964">
        <ele>810.660</ele>
        <time>2022-08-24T14:10:30Z</time>
      </trkpt>
      <trkpt lat="42.960592999999974" lon="-1.4453259999999963">
        <ele>810.637</ele>
        <time>2022-08-24T14:10:31Z</time>
      </trkpt>
      <trkpt lat="42.96059099999997" lon="-1.4453309999999964">
        <ele>810.880</ele>
        <time>2022-08-24T14:10:32Z</time>
      </trkpt>
      <trkpt lat="42.960589999999975" lon="-1.4453379999999965">
        <ele>810.844</ele>
        <time>2022-08-24T14:10:33Z</time>
      </trkpt>
      <trkpt lat="42.960589999999975" lon="-1.4453499999999964">
        <ele>810.863</ele>
        <time>2022-08-24T14:10:34Z</time>
      </trkpt>
      <trkpt lat="42.96058899999998" lon="-1.4453569999999965">
        <ele>811.061</ele>
        <time>2022-08-24T14:10:35Z</time>
      </trkpt>
      <trkpt lat="42.96058899999998" lon="-1.4453569999999965">
        <ele>811.021</ele>
        <time>2022-08-24T14:10:36Z</time>
      </trkpt>
      <trkpt lat="42.960589999999975" lon="-1.4453699999999965">
        <ele>811.213</ele>
        <time>2022-08-24T14:10:42Z</time>
      </trkpt>
      <trkpt lat="42.960580999999976" lon="-1.4454009999999964">
        <ele>811.209</ele>
        <time>2022-08-24T14:10:45Z</time>
      </trkpt>
      <trkpt lat="42.960578999999974" lon="-1.4454119999999964">
        <ele>811.247</ele>
        <time>2022-08-24T14:10:46Z</time>
      </trkpt>
      <trkpt lat="42.96057699999997" lon="-1.4454219999999964">
        <ele>811.257</ele>
        <time>2022-08-24T14:10:47Z</time>
      </trkpt>
      <trkpt lat="42.96056599999997" lon="-1.4454459999999965">
        <ele>811.497</ele>
        <time>2022-08-24T14:10:50Z</time>
      </trkpt>
      <trkpt lat="42.96056399999997" lon="-1.4454509999999965">
        <ele>811.643</ele>
        <time>2022-08-24T14:10:51Z</time>
      </trkpt>
      <trkpt lat="42.96056099999997" lon="-1.4454619999999965">
        <ele>811.655</ele>
        <time>2022-08-24T14:10:52Z</time>
      </trkpt>
      <trkpt lat="42.96055799999997" lon="-1.4454689999999966">
        <ele>811.832</ele>
        <time>2022-08-24T14:10:53Z</time>
      </trkpt>
      <trkpt lat="42.96055399999997" lon="-1.4454749999999965">
        <ele>811.845</ele>
        <time>2022-08-24T14:10:54Z</time>
      </trkpt>
      <trkpt lat="42.96054699999998" lon="-1.4454999999999965">
        <ele>812.079</ele>
        <time>2022-08-24T14:10:56Z</time>
      </trkpt>
      <trkpt lat="42.96054699999998" lon="-1.4455179999999965">
        <ele>812.218</ele>
        <time>2022-08-24T14:10:58Z</time>
      </trkpt>
      <trkpt lat="42.960544999999975" lon="-1.4455279999999966">
        <ele>812.226</ele>
        <time>2022-08-24T14:10:59Z</time>
      </trkpt>
      <trkpt lat="42.960547999999974" lon="-1.4455409999999966">
        <ele>812.247</ele>
        <time>2022-08-24T14:11:00Z</time>
      </trkpt>
      <trkpt lat="42.96054599999997" lon="-1.4455519999999966">
        <ele>812.411</ele>
        <time>2022-08-24T14:11:01Z</time>
      </trkpt>
      <trkpt lat="42.96054299999997" lon="-1.4455859999999967">
        <ele>812.809</ele>
        <time>2022-08-24T14:11:04Z</time>
      </trkpt>
      <trkpt lat="42.96054299999997" lon="-1.4456279999999968">
        <ele>813.443</ele>
        <time>2022-08-24T14:11:07Z</time>
      </trkpt>
      <trkpt lat="42.96054299999997" lon="-1.4456409999999968">
        <ele>813.463</ele>
        <time>2022-08-24T14:11:08Z</time>
      </trkpt>
      <trkpt lat="42.960535999999976" lon="-1.4456709999999968">
        <ele>813.613</ele>
        <time>2022-08-24T14:11:11Z</time>
      </trkpt>
      <trkpt lat="42.96053499999998" lon="-1.4456799999999967">
        <ele>813.619</ele>
        <time>2022-08-24T14:11:12Z</time>
      </trkpt>
      <trkpt lat="42.96053499999998" lon="-1.4456929999999968">
        <ele>813.841</ele>
        <time>2022-08-24T14:11:13Z</time>
      </trkpt>
      <trkpt lat="42.96053499999998" lon="-1.4457039999999968">
        <ele>813.888</ele>
        <time>2022-08-24T14:11:14Z</time>
      </trkpt>
      <trkpt lat="42.960535999999976" lon="-1.4457129999999967">
        <ele>813.811</ele>
        <time>2022-08-24T14:11:15Z</time>
      </trkpt>
      <trkpt lat="42.960535999999976" lon="-1.4457179999999967">
        <ele>814.085</ele>
        <time>2022-08-24T14:11:16Z</time>
      </trkpt>
      <trkpt lat="42.96053499999998" lon="-1.4457199999999968">
        <ele>814.064</ele>
        <time>2022-08-24T14:11:17Z</time>
      </trkpt>
      <trkpt lat="42.96053399999998" lon="-1.4457269999999969">
        <ele>814.224</ele>
        <time>2022-08-24T14:11:18Z</time>
      </trkpt>
      <trkpt lat="42.96053399999998" lon="-1.445731999999997">
        <ele>814.204</ele>
        <time>2022-08-24T14:11:19Z</time>
      </trkpt>
      <trkpt lat="42.960532999999984" lon="-1.445736999999997">
        <ele>814.214</ele>
        <time>2022-08-24T14:11:20Z</time>
      </trkpt>
      <trkpt lat="42.960531999999986" lon="-1.4457489999999968">
        <ele>814.209</ele>
        <time>2022-08-24T14:11:21Z</time>
      </trkpt>
      <trkpt lat="42.960532999999984" lon="-1.445758999999997">
        <ele>814.423</ele>
        <time>2022-08-24T14:11:22Z</time>
      </trkpt>
      <trkpt lat="42.96050099999999" lon="-1.4457949999999968">
        <ele>814.653</ele>
        <time>2022-08-24T14:11:28Z</time>
      </trkpt>
      <trkpt lat="42.960498999999984" lon="-1.445804999999997">
        <ele>814.653</ele>
        <time>2022-08-24T14:11:29Z</time>
      </trkpt>
      <trkpt lat="42.96049799999999" lon="-1.4458159999999969">
        <ele>814.889</ele>
        <time>2022-08-24T14:11:30Z</time>
      </trkpt>
      <trkpt lat="42.96049699999999" lon="-1.445831999999997">
        <ele>815.051</ele>
        <time>2022-08-24T14:11:32Z</time>
      </trkpt>
      <trkpt lat="42.96048799999999" lon="-1.4458679999999968">
        <ele>815.688</ele>
        <time>2022-08-24T14:11:36Z</time>
      </trkpt>
      <trkpt lat="42.96048899999999" lon="-1.4458709999999968">
        <ele>815.811</ele>
        <time>2022-08-24T14:11:37Z</time>
      </trkpt>
      <trkpt lat="42.96048899999999" lon="-1.4458769999999967">
        <ele>815.825</ele>
        <time>2022-08-24T14:11:38Z</time>
      </trkpt>
      <trkpt lat="42.96048899999999" lon="-1.4458809999999966">
        <ele>817.034</ele>
        <time>2022-08-24T14:11:51Z</time>
      </trkpt>
      <trkpt lat="42.96048399999999" lon="-1.4459469999999965">
        <ele>817.065</ele>
        <time>2022-08-24T14:11:55Z</time>
      </trkpt>
      <trkpt lat="42.96048399999999" lon="-1.4459789999999966">
        <ele>817.268</ele>
        <time>2022-08-24T14:11:57Z</time>
      </trkpt>
      <trkpt lat="42.96048099999999" lon="-1.4459999999999966">
        <ele>817.214</ele>
        <time>2022-08-24T14:11:58Z</time>
      </trkpt>
      <trkpt lat="42.96048099999999" lon="-1.4460099999999967">
        <ele>817.409</ele>
        <time>2022-08-24T14:11:59Z</time>
      </trkpt>
      <trkpt lat="42.96048099999999" lon="-1.4460139999999966">
        <ele>817.667</ele>
        <time>2022-08-24T14:12:00Z</time>
      </trkpt>
      <trkpt lat="42.96047799999999" lon="-1.4460209999999967">
        <ele>817.847</ele>
        <time>2022-08-24T14:12:01Z</time>
      </trkpt>
      <trkpt lat="42.960475999999986" lon="-1.4460239999999966">
        <ele>818.097</ele>
        <time>2022-08-24T14:12:02Z</time>
      </trkpt>
      <trkpt lat="42.960475999999986" lon="-1.4460309999999967">
        <ele>818.243</ele>
        <time>2022-08-24T14:12:03Z</time>
      </trkpt>
      <trkpt lat="42.96047499999999" lon="-1.4460339999999967">
        <ele>818.225</ele>
        <time>2022-08-24T14:12:04Z</time>
      </trkpt>
      <trkpt lat="42.96047499999999" lon="-1.4460339999999967">
        <ele>818.472</ele>
        <time>2022-08-24T14:12:05Z</time>
      </trkpt>
      <trkpt lat="42.96046899999999" lon="-1.4460869999999968">
        <ele>818.695</ele>
        <time>2022-08-24T14:12:09Z</time>
      </trkpt>
      <trkpt lat="42.96046899999999" lon="-1.4460889999999968">
        <ele>819.259</ele>
        <time>2022-08-24T14:12:34Z</time>
      </trkpt>
      <trkpt lat="42.96046899999999" lon="-1.4460949999999968">
        <ele>819.688</ele>
        <time>2022-08-24T14:12:38Z</time>
      </trkpt>
      <trkpt lat="42.96046899999999" lon="-1.4460949999999968">
        <ele>819.813</ele>
        <time>2022-08-24T14:12:39Z</time>
      </trkpt>
      <trkpt lat="42.96046899999999" lon="-1.4460949999999968">
        <ele>820.043</ele>
        <time>2022-08-24T14:12:40Z</time>
      </trkpt>
      <trkpt lat="42.96046699999999" lon="-1.4461209999999969">
        <ele>820.407</ele>
        <time>2022-08-24T14:12:44Z</time>
      </trkpt>
      <trkpt lat="42.960461999999985" lon="-1.4461399999999969">
        <ele>820.409</ele>
        <time>2022-08-24T14:12:45Z</time>
      </trkpt>
      <trkpt lat="42.960456999999984" lon="-1.446163999999997">
        <ele>820.692</ele>
        <time>2022-08-24T14:12:46Z</time>
      </trkpt>
      <trkpt lat="42.960447999999985" lon="-1.446187999999997">
        <ele>820.892</ele>
        <time>2022-08-24T14:12:47Z</time>
      </trkpt>
      <trkpt lat="42.96042399999998" lon="-1.446276999999997">
        <ele>821.052</ele>
        <time>2022-08-24T14:12:53Z</time>
      </trkpt>
      <trkpt lat="42.960416999999985" lon="-1.446297999999997">
        <ele>821.428</ele>
        <time>2022-08-24T14:12:55Z</time>
      </trkpt>
      <trkpt lat="42.960396999999986" lon="-1.446319999999997">
        <ele>821.890</ele>
        <time>2022-08-24T14:12:57Z</time>
      </trkpt>
      <trkpt lat="42.960388999999985" lon="-1.446330999999997">
        <ele>821.857</ele>
        <time>2022-08-24T14:12:58Z</time>
      </trkpt>
      <trkpt lat="42.960380999999984" lon="-1.4463369999999969">
        <ele>822.040</ele>
        <time>2022-08-24T14:12:59Z</time>
      </trkpt>
      <trkpt lat="42.96037699999999" lon="-1.4463399999999969">
        <ele>822.014</ele>
        <time>2022-08-24T14:13:00Z</time>
      </trkpt>
      <trkpt lat="42.960371999999985" lon="-1.446352999999997">
        <ele>822.013</ele>
        <time>2022-08-24T14:13:01Z</time>
      </trkpt>
      <trkpt lat="42.96035999999999" lon="-1.4463589999999968">
        <ele>822.229</ele>
        <time>2022-08-24T14:13:02Z</time>
      </trkpt>
      <trkpt lat="42.960354999999986" lon="-1.4463599999999968">
        <ele>822.400</ele>
        <time>2022-08-24T14:13:03Z</time>
      </trkpt>
      <trkpt lat="42.960351999999986" lon="-1.4463679999999968">
        <ele>822.620</ele>
        <time>2022-08-24T14:13:04Z</time>
      </trkpt>
      <trkpt lat="42.96035099999999" lon="-1.4463699999999968">
        <ele>822.809</ele>
        <time>2022-08-24T14:13:06Z</time>
      </trkpt>
      <trkpt lat="42.96035099999999" lon="-1.4463699999999968">
        <ele>822.823</ele>
        <time>2022-08-24T14:13:07Z</time>
      </trkpt>
      <trkpt lat="42.96034999999999" lon="-1.4463739999999967">
        <ele>823.083</ele>
        <time>2022-08-24T14:13:08Z</time>
      </trkpt>
      <trkpt lat="42.96034699999999" lon="-1.4463879999999967">
        <ele>823.033</ele>
        <time>2022-08-24T14:13:09Z</time>
      </trkpt>
      <trkpt lat="42.96034499999999" lon="-1.4464009999999967">
        <ele>823.039</ele>
        <time>2022-08-24T14:13:10Z</time>
      </trkpt>
      <trkpt lat="42.96034499999999" lon="-1.4464119999999967">
        <ele>823.271</ele>
        <time>2022-08-24T14:13:11Z</time>
      </trkpt>
      <trkpt lat="42.96034299999999" lon="-1.4464169999999967">
        <ele>823.478</ele>
        <time>2022-08-24T14:13:12Z</time>
      </trkpt>
      <trkpt lat="42.960340999999985" lon="-1.4464159999999968">
        <ele>823.671</ele>
        <time>2022-08-24T14:13:13Z</time>
      </trkpt>
      <trkpt lat="42.960340999999985" lon="-1.4464159999999968">
        <ele>823.695</ele>
        <time>2022-08-24T14:13:14Z</time>
      </trkpt>
      <trkpt lat="42.960340999999985" lon="-1.4464159999999968">
        <ele>823.884</ele>
        <time>2022-08-24T14:13:15Z</time>
      </trkpt>
      <trkpt lat="42.96033999999999" lon="-1.446422999999997">
        <ele>823.844</ele>
        <time>2022-08-24T14:13:16Z</time>
      </trkpt>
      <trkpt lat="42.96033899999999" lon="-1.446429999999997">
        <ele>823.805</ele>
        <time>2022-08-24T14:13:17Z</time>
      </trkpt>
      <trkpt lat="42.96033899999999" lon="-1.446429999999997">
        <ele>824.015</ele>
        <time>2022-08-24T14:13:18Z</time>
      </trkpt>
      <trkpt lat="42.96033899999999" lon="-1.446429999999997">
        <ele>824.009</ele>
        <time>2022-08-24T14:13:19Z</time>
      </trkpt>
      <trkpt lat="42.96033899999999" lon="-1.446429999999997">
        <ele>824.225</ele>
        <time>2022-08-24T14:13:20Z</time>
      </trkpt>
      <trkpt lat="42.96033899999999" lon="-1.446429999999997">
        <ele>824.275</ele>
        <time>2022-08-24T14:13:21Z</time>
      </trkpt>
      <trkpt lat="42.96033899999999" lon="-1.446429999999997">
        <ele>824.435</ele>
        <time>2022-08-24T14:13:22Z</time>
      </trkpt>
      <trkpt lat="42.96033899999999" lon="-1.446429999999997">
        <ele>824.411</ele>
        <time>2022-08-24T14:13:23Z</time>
      </trkpt>
      <trkpt lat="42.96033899999999" lon="-1.446429999999997">
        <ele>824.483</ele>
        <time>2022-08-24T14:13:24Z</time>
      </trkpt>
      <trkpt lat="42.96033999999999" lon="-1.446434999999997">
        <ele>824.640</ele>
        <time>2022-08-24T14:13:25Z</time>
      </trkpt>
      <trkpt lat="42.96034899999999" lon="-1.446448999999997">
        <ele>824.623</ele>
        <time>2022-08-24T14:13:26Z</time>
      </trkpt>
      <trkpt lat="42.96035999999999" lon="-1.446465999999997">
        <ele>824.887</ele>
        <time>2022-08-24T14:13:27Z</time>
      </trkpt>
      <trkpt lat="42.960363999999984" lon="-1.4464749999999968">
        <ele>824.826</ele>
        <time>2022-08-24T14:13:28Z</time>
      </trkpt>
      <trkpt lat="42.960363999999984" lon="-1.4464749999999968">
        <ele>824.898</ele>
        <time>2022-08-24T14:13:29Z</time>
      </trkpt>
      <trkpt lat="42.960363999999984" lon="-1.4464749999999968">
        <ele>825.215</ele>
        <time>2022-08-24T14:13:33Z</time>
      </trkpt>
      <trkpt lat="42.960363999999984" lon="-1.4464749999999968">
        <ele>825.426</ele>
        <time>2022-08-24T14:13:34Z</time>
      </trkpt>
      <trkpt lat="42.960363999999984" lon="-1.4464749999999968">
        <ele>825.809</ele>
        <time>2022-08-24T14:13:35Z</time>
      </trkpt>
      <trkpt lat="42.96036499999998" lon="-1.4464809999999968">
        <ele>825.880</ele>
        <time>2022-08-24T14:13:36Z</time>
      </trkpt>
      <trkpt lat="42.96036899999998" lon="-1.4465009999999967">
        <ele>826.040</ele>
        <time>2022-08-24T14:13:37Z</time>
      </trkpt>
      <trkpt lat="42.96037199999998" lon="-1.4465239999999968">
        <ele>826.280</ele>
        <time>2022-08-24T14:13:38Z</time>
      </trkpt>
      <trkpt lat="42.96037499999998" lon="-1.4465459999999968">
        <ele>826.456</ele>
        <time>2022-08-24T14:13:39Z</time>
      </trkpt>
      <trkpt lat="42.96037499999998" lon="-1.4465659999999967">
        <ele>826.478</ele>
        <time>2022-08-24T14:13:40Z</time>
      </trkpt>
      <trkpt lat="42.96038099999998" lon="-1.4465909999999966">
        <ele>826.675</ele>
        <time>2022-08-24T14:13:41Z</time>
      </trkpt>
      <trkpt lat="42.960392999999975" lon="-1.4466079999999966">
        <ele>826.848</ele>
        <time>2022-08-24T14:13:42Z</time>
      </trkpt>
      <trkpt lat="42.96039999999997" lon="-1.4466189999999965">
        <ele>826.822</ele>
        <time>2022-08-24T14:13:43Z</time>
      </trkpt>
      <trkpt lat="42.96039699999997" lon="-1.4466329999999965">
        <ele>827.031</ele>
        <time>2022-08-24T14:13:44Z</time>
      </trkpt>
      <trkpt lat="42.96039399999997" lon="-1.4466549999999965">
        <ele>827.049</ele>
        <time>2022-08-24T14:13:45Z</time>
      </trkpt>
      <trkpt lat="42.96039199999997" lon="-1.4466739999999965">
        <ele>827.002</ele>
        <time>2022-08-24T14:13:46Z</time>
      </trkpt>
      <trkpt lat="42.96038199999997" lon="-1.4466849999999964">
        <ele>827.222</ele>
        <time>2022-08-24T14:13:47Z</time>
      </trkpt>
      <trkpt lat="42.960376999999966" lon="-1.4466989999999964">
        <ele>827.209</ele>
        <time>2022-08-24T14:13:48Z</time>
      </trkpt>
      <trkpt lat="42.960374999999964" lon="-1.4467129999999964">
        <ele>827.455</ele>
        <time>2022-08-24T14:13:49Z</time>
      </trkpt>
      <trkpt lat="42.960371999999964" lon="-1.4467239999999963">
        <ele>827.435</ele>
        <time>2022-08-24T14:13:50Z</time>
      </trkpt>
      <trkpt lat="42.960368999999965" lon="-1.4467279999999962">
        <ele>827.615</ele>
        <time>2022-08-24T14:13:51Z</time>
      </trkpt>
      <trkpt lat="42.96036199999997" lon="-1.4467349999999963">
        <ele>827.661</ele>
        <time>2022-08-24T14:13:52Z</time>
      </trkpt>
      <trkpt lat="42.96036199999997" lon="-1.4467399999999964">
        <ele>827.643</ele>
        <time>2022-08-24T14:13:53Z</time>
      </trkpt>
      <trkpt lat="42.96036099999997" lon="-1.4467439999999963">
        <ele>827.840</ele>
        <time>2022-08-24T14:13:54Z</time>
      </trkpt>
      <trkpt lat="42.96036299999997" lon="-1.4467539999999963">
        <ele>828.083</ele>
        <time>2022-08-24T14:13:55Z</time>
      </trkpt>
      <trkpt lat="42.96035999999997" lon="-1.4467699999999963">
        <ele>828.267</ele>
        <time>2022-08-24T14:13:56Z</time>
      </trkpt>
      <trkpt lat="42.96035699999997" lon="-1.4467839999999963">
        <ele>828.216</ele>
        <time>2022-08-24T14:13:57Z</time>
      </trkpt>
      <trkpt lat="42.96035299999998" lon="-1.4467919999999963">
        <ele>828.483</ele>
        <time>2022-08-24T14:13:58Z</time>
      </trkpt>
      <trkpt lat="42.960353999999974" lon="-1.4467959999999962">
        <ele>828.625</ele>
        <time>2022-08-24T14:13:59Z</time>
      </trkpt>
      <trkpt lat="42.96035299999998" lon="-1.446799999999996">
        <ele>828.617</ele>
        <time>2022-08-24T14:14:00Z</time>
      </trkpt>
      <trkpt lat="42.96035299999998" lon="-1.446799999999996">
        <ele>829.209</ele>
        <time>2022-08-24T14:14:49Z</time>
      </trkpt>
      <trkpt lat="42.96034699999998" lon="-1.4468529999999962">
        <ele>829.049</ele>
        <time>2022-08-24T14:14:52Z</time>
      </trkpt>
      <trkpt lat="42.960341999999976" lon="-1.4468849999999962">
        <ele>829.059</ele>
        <time>2022-08-24T14:14:53Z</time>
      </trkpt>
      <trkpt lat="42.96030099999997" lon="-1.4470109999999963">
        <ele>829.089</ele>
        <time>2022-08-24T14:14:56Z</time>
      </trkpt>
      <trkpt lat="42.960271999999975" lon="-1.4470759999999963">
        <ele>828.835</ele>
        <time>2022-08-24T14:14:57Z</time>
      </trkpt>
      <trkpt lat="42.960234999999976" lon="-1.4471499999999962">
        <ele>828.687</ele>
        <time>2022-08-24T14:14:58Z</time>
      </trkpt>
      <trkpt lat="42.96014999999998" lon="-1.4472679999999962">
        <ele>828.264</ele>
        <time>2022-08-24T14:15:00Z</time>
      </trkpt>
      <trkpt lat="42.960088999999975" lon="-1.4473689999999961">
        <ele>828.037</ele>
        <time>2022-08-24T14:15:02Z</time>
      </trkpt>
      <trkpt lat="42.96006299999998" lon="-1.447436999999996">
        <ele>828.031</ele>
        <time>2022-08-24T14:15:03Z</time>
      </trkpt>
      <trkpt lat="42.96003899999997" lon="-1.4474959999999961">
        <ele>828.080</ele>
        <time>2022-08-24T14:15:04Z</time>
      </trkpt>
      <trkpt lat="42.960029999999975" lon="-1.4476119999999961">
        <ele>827.833</ele>
        <time>2022-08-24T14:15:06Z</time>
      </trkpt>
      <trkpt lat="42.960006999999976" lon="-1.447701999999996">
        <ele>827.823</ele>
        <time>2022-08-24T14:15:07Z</time>
      </trkpt>
      <trkpt lat="42.959990999999974" lon="-1.4477789999999962">
        <ele>827.415</ele>
        <time>2022-08-24T14:15:08Z</time>
      </trkpt>
      <trkpt lat="42.95997299999998" lon="-1.447852999999996">
        <ele>827.409</ele>
        <time>2022-08-24T14:15:09Z</time>
      </trkpt>
      <trkpt lat="42.95996699999998" lon="-1.447896999999996">
        <ele>827.294</ele>
        <time>2022-08-24T14:15:10Z</time>
      </trkpt>
      <trkpt lat="42.95995899999998" lon="-1.447948999999996">
        <ele>827.084</ele>
        <time>2022-08-24T14:15:11Z</time>
      </trkpt>
      <trkpt lat="42.95996899999998" lon="-1.447991999999996">
        <ele>826.634</ele>
        <time>2022-08-24T14:15:12Z</time>
      </trkpt>
      <trkpt lat="42.95995499999998" lon="-1.4480499999999958">
        <ele>826.430</ele>
        <time>2022-08-24T14:15:13Z</time>
      </trkpt>
      <trkpt lat="42.959944999999976" lon="-1.4480939999999958">
        <ele>826.492</ele>
        <time>2022-08-24T14:15:14Z</time>
      </trkpt>
      <trkpt lat="42.959931999999974" lon="-1.4482169999999959">
        <ele>826.449</ele>
        <time>2022-08-24T14:15:16Z</time>
      </trkpt>
      <trkpt lat="42.95993599999997" lon="-1.4482739999999958">
        <ele>826.082</ele>
        <time>2022-08-24T14:15:17Z</time>
      </trkpt>
      <trkpt lat="42.959928999999974" lon="-1.4483589999999957">
        <ele>825.696</ele>
        <time>2022-08-24T14:15:18Z</time>
      </trkpt>
      <trkpt lat="42.959900999999974" lon="-1.4484189999999957">
        <ele>825.665</ele>
        <time>2022-08-24T14:15:19Z</time>
      </trkpt>
      <trkpt lat="42.959894999999975" lon="-1.4484699999999957">
        <ele>825.468</ele>
        <time>2022-08-24T14:15:20Z</time>
      </trkpt>
      <trkpt lat="42.959925999999975" lon="-1.4485309999999958">
        <ele>825.442</ele>
        <time>2022-08-24T14:15:21Z</time>
      </trkpt>
      <trkpt lat="42.959959999999974" lon="-1.4485709999999958">
        <ele>825.226</ele>
        <time>2022-08-24T14:15:22Z</time>
      </trkpt>
      <trkpt lat="42.959992999999976" lon="-1.4486019999999957">
        <ele>825.009</ele>
        <time>2022-08-24T14:15:23Z</time>
      </trkpt>
      <trkpt lat="42.96001199999998" lon="-1.4486229999999958">
        <ele>824.857</ele>
        <time>2022-08-24T14:15:24Z</time>
      </trkpt>
      <trkpt lat="42.960029999999975" lon="-1.4486499999999958">
        <ele>824.837</ele>
        <time>2022-08-24T14:15:25Z</time>
      </trkpt>
      <trkpt lat="42.96006199999997" lon="-1.4486919999999959">
        <ele>824.847</ele>
        <time>2022-08-24T14:15:26Z</time>
      </trkpt>
      <trkpt lat="42.96008399999997" lon="-1.448717999999996">
        <ele>824.823</ele>
        <time>2022-08-24T14:15:27Z</time>
      </trkpt>
      <trkpt lat="42.96010099999997" lon="-1.448740999999996">
        <ele>824.845</ele>
        <time>2022-08-24T14:15:28Z</time>
      </trkpt>
      <trkpt lat="42.960105999999975" lon="-1.448762999999996">
        <ele>824.842</ele>
        <time>2022-08-24T14:15:29Z</time>
      </trkpt>
      <trkpt lat="42.960105999999975" lon="-1.448773999999996">
        <ele>824.875</ele>
        <time>2022-08-24T14:15:30Z</time>
      </trkpt>
      <trkpt lat="42.96011499999997" lon="-1.448797999999996">
        <ele>824.869</ele>
        <time>2022-08-24T14:15:31Z</time>
      </trkpt>
      <trkpt lat="42.960128999999974" lon="-1.4488239999999961">
        <ele>825.268</ele>
        <time>2022-08-24T14:15:32Z</time>
      </trkpt>
      <trkpt lat="42.960128999999974" lon="-1.448840999999996">
        <ele>825.292</ele>
        <time>2022-08-24T14:15:33Z</time>
      </trkpt>
      <trkpt lat="42.960125999999974" lon="-1.4488639999999962">
        <ele>825.473</ele>
        <time>2022-08-24T14:15:34Z</time>
      </trkpt>
      <trkpt lat="42.96012099999997" lon="-1.448891999999996">
        <ele>825.420</ele>
        <time>2022-08-24T14:15:35Z</time>
      </trkpt>
      <trkpt lat="42.960116999999975" lon="-1.4489099999999961">
        <ele>825.609</ele>
        <time>2022-08-24T14:15:36Z</time>
      </trkpt>
      <trkpt lat="42.960116999999975" lon="-1.4489309999999962">
        <ele>825.820</ele>
        <time>2022-08-24T14:15:37Z</time>
      </trkpt>
      <trkpt lat="42.96012499999998" lon="-1.4489569999999963">
        <ele>825.860</ele>
        <time>2022-08-24T14:15:38Z</time>
      </trkpt>
      <trkpt lat="42.960128999999974" lon="-1.4489739999999962">
        <ele>826.050</ele>
        <time>2022-08-24T14:15:39Z</time>
      </trkpt>
      <trkpt lat="42.960141999999976" lon="-1.4490809999999963">
        <ele>827.286</ele>
        <time>2022-08-24T14:15:50Z</time>
      </trkpt>
      <trkpt lat="42.96013499999998" lon="-1.4491209999999963">
        <ele>827.438</ele>
        <time>2022-08-24T14:15:52Z</time>
      </trkpt>
      <trkpt lat="42.96014699999998" lon="-1.4491959999999964">
        <ele>827.825</ele>
        <time>2022-08-24T14:15:57Z</time>
      </trkpt>
      <trkpt lat="42.960144999999976" lon="-1.4492199999999964">
        <ele>827.828</ele>
        <time>2022-08-24T14:15:58Z</time>
      </trkpt>
      <trkpt lat="42.960141999999976" lon="-1.4492289999999963">
        <ele>827.832</ele>
        <time>2022-08-24T14:15:59Z</time>
      </trkpt>
      <trkpt lat="42.960141999999976" lon="-1.4492349999999963">
        <ele>828.271</ele>
        <time>2022-08-24T14:16:00Z</time>
      </trkpt>
      <trkpt lat="42.96014099999998" lon="-1.4492519999999962">
        <ele>828.694</ele>
        <time>2022-08-24T14:16:02Z</time>
      </trkpt>
      <trkpt lat="42.96014299999998" lon="-1.449263999999996">
        <ele>828.857</ele>
        <time>2022-08-24T14:16:03Z</time>
      </trkpt>
      <trkpt lat="42.96014599999998" lon="-1.449283999999996">
        <ele>828.822</ele>
        <time>2022-08-24T14:16:05Z</time>
      </trkpt>
      <trkpt lat="42.96014699999998" lon="-1.449287999999996">
        <ele>828.809</ele>
        <time>2022-08-24T14:16:06Z</time>
      </trkpt>
      <trkpt lat="42.960147999999975" lon="-1.449300999999996">
        <ele>829.080</ele>
        <time>2022-08-24T14:16:07Z</time>
      </trkpt>
      <trkpt lat="42.960144999999976" lon="-1.4493129999999959">
        <ele>829.050</ele>
        <time>2022-08-24T14:16:08Z</time>
      </trkpt>
      <trkpt lat="42.960144999999976" lon="-1.4493219999999958">
        <ele>829.040</ele>
        <time>2022-08-24T14:16:09Z</time>
      </trkpt>
      <trkpt lat="42.96014599999997" lon="-1.4493329999999958">
        <ele>829.086</ele>
        <time>2022-08-24T14:16:10Z</time>
      </trkpt>
      <trkpt lat="42.960147999999975" lon="-1.4493439999999957">
        <ele>829.078</ele>
        <time>2022-08-24T14:16:11Z</time>
      </trkpt>
      <trkpt lat="42.96014999999998" lon="-1.4493559999999956">
        <ele>829.275</ele>
        <time>2022-08-24T14:16:12Z</time>
      </trkpt>
      <trkpt lat="42.96015299999998" lon="-1.4493689999999957">
        <ele>829.278</ele>
        <time>2022-08-24T14:16:13Z</time>
      </trkpt>
      <trkpt lat="42.960156999999974" lon="-1.4493839999999958">
        <ele>829.422</ele>
        <time>2022-08-24T14:16:14Z</time>
      </trkpt>
      <trkpt lat="42.96016599999997" lon="-1.4493999999999958">
        <ele>829.451</ele>
        <time>2022-08-24T14:16:15Z</time>
      </trkpt>
      <trkpt lat="42.96017299999997" lon="-1.4494099999999959">
        <ele>829.424</ele>
        <time>2022-08-24T14:16:16Z</time>
      </trkpt>
      <trkpt lat="42.96017799999997" lon="-1.4494219999999958">
        <ele>829.604</ele>
        <time>2022-08-24T14:16:17Z</time>
      </trkpt>
      <trkpt lat="42.96018299999997" lon="-1.4494329999999958">
        <ele>829.614</ele>
        <time>2022-08-24T14:16:18Z</time>
      </trkpt>
      <trkpt lat="42.96018699999997" lon="-1.4494409999999958">
        <ele>829.609</ele>
        <time>2022-08-24T14:16:19Z</time>
      </trkpt>
      <trkpt lat="42.960193999999966" lon="-1.4494539999999958">
        <ele>829.823</ele>
        <time>2022-08-24T14:16:25Z</time>
      </trkpt>
      <trkpt lat="42.96019499999996" lon="-1.4494649999999958">
        <ele>830.053</ele>
        <time>2022-08-24T14:16:26Z</time>
      </trkpt>
      <trkpt lat="42.960204999999966" lon="-1.4494809999999958">
        <ele>830.833</ele>
        <time>2022-08-24T14:16:30Z</time>
      </trkpt>
      <trkpt lat="42.960204999999966" lon="-1.4494809999999958">
        <ele>830.869</ele>
        <time>2022-08-24T14:16:31Z</time>
      </trkpt>
      <trkpt lat="42.960205999999964" lon="-1.4494929999999957">
        <ele>830.891</ele>
        <time>2022-08-24T14:16:32Z</time>
      </trkpt>
      <trkpt lat="42.960207999999966" lon="-1.4495039999999957">
        <ele>830.828</ele>
        <time>2022-08-24T14:16:33Z</time>
      </trkpt>
      <trkpt lat="42.96020999999997" lon="-1.4495169999999957">
        <ele>831.021</ele>
        <time>2022-08-24T14:16:34Z</time>
      </trkpt>
      <trkpt lat="42.96022299999997" lon="-1.4495589999999958">
        <ele>831.045</ele>
        <time>2022-08-24T14:16:36Z</time>
      </trkpt>
      <trkpt lat="42.96023399999997" lon="-1.4496069999999959">
        <ele>831.224</ele>
        <time>2022-08-24T14:16:39Z</time>
      </trkpt>
      <trkpt lat="42.960232999999974" lon="-1.4496419999999959">
        <ele>831.445</ele>
        <time>2022-08-24T14:16:42Z</time>
      </trkpt>
      <trkpt lat="42.960229999999974" lon="-1.449662999999996">
        <ele>831.447</ele>
        <time>2022-08-24T14:16:43Z</time>
      </trkpt>
      <trkpt lat="42.96022899999998" lon="-1.449667999999996">
        <ele>831.611</ele>
        <time>2022-08-24T14:16:44Z</time>
      </trkpt>
      <trkpt lat="42.960231999999976" lon="-1.449682999999996">
        <ele>831.609</ele>
        <time>2022-08-24T14:16:45Z</time>
      </trkpt>
      <trkpt lat="42.96024299999998" lon="-1.449714999999996">
        <ele>831.815</ele>
        <time>2022-08-24T14:16:46Z</time>
      </trkpt>
      <trkpt lat="42.960246999999974" lon="-1.4497299999999962">
        <ele>831.855</ele>
        <time>2022-08-24T14:16:47Z</time>
      </trkpt>
      <trkpt lat="42.960248999999976" lon="-1.449733999999996">
        <ele>832.055</ele>
        <time>2022-08-24T14:16:48Z</time>
      </trkpt>
      <trkpt lat="42.96025099999998" lon="-1.449752999999996">
        <ele>832.011</ele>
        <time>2022-08-24T14:16:49Z</time>
      </trkpt>
      <trkpt lat="42.960257999999975" lon="-1.449776999999996">
        <ele>832.023</ele>
        <time>2022-08-24T14:16:51Z</time>
      </trkpt>
      <trkpt lat="42.96025999999998" lon="-1.449780999999996">
        <ele>832.070</ele>
        <time>2022-08-24T14:16:52Z</time>
      </trkpt>
      <trkpt lat="42.96027099999998" lon="-1.449803999999996">
        <ele>832.263</ele>
        <time>2022-08-24T14:16:53Z</time>
      </trkpt>
      <trkpt lat="42.96028399999998" lon="-1.449822999999996">
        <ele>832.257</ele>
        <time>2022-08-24T14:16:54Z</time>
      </trkpt>
      <trkpt lat="42.96028599999998" lon="-1.449833999999996">
        <ele>832.236</ele>
        <time>2022-08-24T14:16:55Z</time>
      </trkpt>
      <trkpt lat="42.96029399999998" lon="-1.449852999999996">
        <ele>832.464</ele>
        <time>2022-08-24T14:16:56Z</time>
      </trkpt>
      <trkpt lat="42.96029499999998" lon="-1.449869999999996">
        <ele>832.406</ele>
        <time>2022-08-24T14:16:57Z</time>
      </trkpt>
      <trkpt lat="42.96030199999998" lon="-1.449894999999996">
        <ele>832.616</ele>
        <time>2022-08-24T14:16:58Z</time>
      </trkpt>
      <trkpt lat="42.96031799999998" lon="-1.4499309999999959">
        <ele>833.009</ele>
        <time>2022-08-24T14:17:02Z</time>
      </trkpt>
      <trkpt lat="42.96032899999998" lon="-1.4499479999999958">
        <ele>833.217</ele>
        <time>2022-08-24T14:17:03Z</time>
      </trkpt>
      <trkpt lat="42.96032999999998" lon="-1.4499499999999959">
        <ele>833.277</ele>
        <time>2022-08-24T14:17:04Z</time>
      </trkpt>
      <trkpt lat="42.960330999999975" lon="-1.4499549999999959">
        <ele>833.677</ele>
        <time>2022-08-24T14:17:06Z</time>
      </trkpt>
      <trkpt lat="42.960330999999975" lon="-1.449959999999996">
        <ele>833.663</ele>
        <time>2022-08-24T14:17:07Z</time>
      </trkpt>
      <trkpt lat="42.960330999999975" lon="-1.449959999999996">
        <ele>833.655</ele>
        <time>2022-08-24T14:17:08Z</time>
      </trkpt>
      <trkpt lat="42.96033299999998" lon="-1.449967999999996">
        <ele>833.812</ele>
        <time>2022-08-24T14:17:24Z</time>
      </trkpt>
      <trkpt lat="42.960333999999975" lon="-1.4499689999999958">
        <ele>833.875</ele>
        <time>2022-08-24T14:17:25Z</time>
      </trkpt>
      <trkpt lat="42.96034599999997" lon="-1.4500089999999959">
        <ele>833.869</ele>
        <time>2022-08-24T14:17:27Z</time>
      </trkpt>
      <trkpt lat="42.96042199999997" lon="-1.450132999999996">
        <ele>833.828</ele>
        <time>2022-08-24T14:17:31Z</time>
      </trkpt>
      <trkpt lat="42.96045599999997" lon="-1.4501719999999958">
        <ele>833.692</ele>
        <time>2022-08-24T14:17:32Z</time>
      </trkpt>
      <trkpt lat="42.960485999999975" lon="-1.4501989999999958">
        <ele>833.673</ele>
        <time>2022-08-24T14:17:33Z</time>
      </trkpt>
      <trkpt lat="42.960513999999975" lon="-1.4502289999999958">
        <ele>833.620</ele>
        <time>2022-08-24T14:17:34Z</time>
      </trkpt>
      <trkpt lat="42.960536999999974" lon="-1.4502519999999959">
        <ele>833.609</ele>
        <time>2022-08-24T14:17:35Z</time>
      </trkpt>
      <trkpt lat="42.96059399999997" lon="-1.4502909999999958">
        <ele>833.650</ele>
        <time>2022-08-24T14:17:37Z</time>
      </trkpt>
      <trkpt lat="42.960651999999975" lon="-1.4503249999999959">
        <ele>833.680</ele>
        <time>2022-08-24T14:17:39Z</time>
      </trkpt>
      <trkpt lat="42.960676999999976" lon="-1.450331999999996">
        <ele>833.880</ele>
        <time>2022-08-24T14:17:40Z</time>
      </trkpt>
      <trkpt lat="42.96069299999998" lon="-1.4503329999999959">
        <ele>833.846</ele>
        <time>2022-08-24T14:17:41Z</time>
      </trkpt>
      <trkpt lat="42.96072099999998" lon="-1.450348999999996">
        <ele>833.888</ele>
        <time>2022-08-24T14:17:42Z</time>
      </trkpt>
      <trkpt lat="42.96080799999998" lon="-1.4504229999999958">
        <ele>833.855</ele>
        <time>2022-08-24T14:17:45Z</time>
      </trkpt>
      <trkpt lat="42.96083599999998" lon="-1.4504339999999958">
        <ele>833.838</ele>
        <time>2022-08-24T14:17:46Z</time>
      </trkpt>
      <trkpt lat="42.96085499999998" lon="-1.4504399999999957">
        <ele>833.832</ele>
        <time>2022-08-24T14:17:47Z</time>
      </trkpt>
      <trkpt lat="42.96087499999998" lon="-1.4504479999999957">
        <ele>833.851</ele>
        <time>2022-08-24T14:17:48Z</time>
      </trkpt>
      <trkpt lat="42.96089499999998" lon="-1.4504529999999958">
        <ele>833.854</ele>
        <time>2022-08-24T14:17:49Z</time>
      </trkpt>
      <trkpt lat="42.96090999999998" lon="-1.4504459999999957">
        <ele>833.856</ele>
        <time>2022-08-24T14:17:50Z</time>
      </trkpt>
      <trkpt lat="42.96093399999998" lon="-1.4504509999999957">
        <ele>834.011</ele>
        <time>2022-08-24T14:17:51Z</time>
      </trkpt>
      <trkpt lat="42.96099999999998" lon="-1.4504859999999957">
        <ele>834.009</ele>
        <time>2022-08-24T14:17:53Z</time>
      </trkpt>
      <trkpt lat="42.96102799999998" lon="-1.4505169999999956">
        <ele>834.066</ele>
        <time>2022-08-24T14:17:54Z</time>
      </trkpt>
      <trkpt lat="42.96104499999998" lon="-1.4505479999999955">
        <ele>834.246</ele>
        <time>2022-08-24T14:17:55Z</time>
      </trkpt>
      <trkpt lat="42.961067999999976" lon="-1.4505799999999955">
        <ele>834.266</ele>
        <time>2022-08-24T14:17:56Z</time>
      </trkpt>
      <trkpt lat="42.96108899999997" lon="-1.4506059999999956">
        <ele>834.462</ele>
        <time>2022-08-24T14:17:57Z</time>
      </trkpt>
      <trkpt lat="42.961107999999975" lon="-1.4506319999999957">
        <ele>834.424</ele>
        <time>2022-08-24T14:17:58Z</time>
      </trkpt>
      <trkpt lat="42.96114299999997" lon="-1.4506929999999958">
        <ele>834.461</ele>
        <time>2022-08-24T14:18:00Z</time>
      </trkpt>
      <trkpt lat="42.96115499999997" lon="-1.4507139999999958">
        <ele>834.664</ele>
        <time>2022-08-24T14:18:01Z</time>
      </trkpt>
      <trkpt lat="42.96116499999997" lon="-1.4507349999999959">
        <ele>834.648</ele>
        <time>2022-08-24T14:18:02Z</time>
      </trkpt>
      <trkpt lat="42.96117699999997" lon="-1.4507599999999958">
        <ele>834.897</ele>
        <time>2022-08-24T14:18:03Z</time>
      </trkpt>
      <trkpt lat="42.96118899999997" lon="-1.4507769999999958">
        <ele>835.082</ele>
        <time>2022-08-24T14:18:04Z</time>
      </trkpt>
      <trkpt lat="42.96120099999997" lon="-1.4507939999999957">
        <ele>835.043</ele>
        <time>2022-08-24T14:18:05Z</time>
      </trkpt>
      <trkpt lat="42.96121099999997" lon="-1.4508119999999958">
        <ele>835.217</ele>
        <time>2022-08-24T14:18:06Z</time>
      </trkpt>
      <trkpt lat="42.96122099999997" lon="-1.4508289999999957">
        <ele>835.409</ele>
        <time>2022-08-24T14:18:07Z</time>
      </trkpt>
      <trkpt lat="42.961228999999975" lon="-1.4508439999999958">
        <ele>835.499</ele>
        <time>2022-08-24T14:18:08Z</time>
      </trkpt>
      <trkpt lat="42.96123899999998" lon="-1.4508619999999959">
        <ele>835.859</ele>
        <time>2022-08-24T14:18:09Z</time>
      </trkpt>
      <trkpt lat="42.961245999999974" lon="-1.450877999999996">
        <ele>835.869</ele>
        <time>2022-08-24T14:18:10Z</time>
      </trkpt>
      <trkpt lat="42.96125499999997" lon="-1.4508889999999959">
        <ele>836.035</ele>
        <time>2022-08-24T14:18:11Z</time>
      </trkpt>
      <trkpt lat="42.96128099999997" lon="-1.450958999999996">
        <ele>836.647</ele>
        <time>2022-08-24T14:18:15Z</time>
      </trkpt>
      <trkpt lat="42.96128499999997" lon="-1.450984999999996">
        <ele>836.894</ele>
        <time>2022-08-24T14:18:16Z</time>
      </trkpt>
      <trkpt lat="42.961291999999965" lon="-1.451008999999996">
        <ele>837.047</ele>
        <time>2022-08-24T14:18:17Z</time>
      </trkpt>
      <trkpt lat="42.961297999999964" lon="-1.451053999999996">
        <ele>837.231</ele>
        <time>2022-08-24T14:18:19Z</time>
      </trkpt>
      <trkpt lat="42.96130199999996" lon="-1.4510769999999962">
        <ele>837.230</ele>
        <time>2022-08-24T14:18:20Z</time>
      </trkpt>
      <trkpt lat="42.96130799999996" lon="-1.4510989999999961">
        <ele>837.494</ele>
        <time>2022-08-24T14:18:21Z</time>
      </trkpt>
      <trkpt lat="42.96131299999996" lon="-1.4511199999999962">
        <ele>837.657</ele>
        <time>2022-08-24T14:18:22Z</time>
      </trkpt>
      <trkpt lat="42.96131399999996" lon="-1.4511419999999962">
        <ele>837.622</ele>
        <time>2022-08-24T14:18:23Z</time>
      </trkpt>
      <trkpt lat="42.96131299999996" lon="-1.451161999999996">
        <ele>838.009</ele>
        <time>2022-08-24T14:18:24Z</time>
      </trkpt>
      <trkpt lat="42.96130799999996" lon="-1.451186999999996">
        <ele>838.270</ele>
        <time>2022-08-24T14:18:25Z</time>
      </trkpt>
      <trkpt lat="42.961314999999956" lon="-1.451213999999996">
        <ele>838.450</ele>
        <time>2022-08-24T14:18:26Z</time>
      </trkpt>
      <trkpt lat="42.96131999999996" lon="-1.451238999999996">
        <ele>838.660</ele>
        <time>2022-08-24T14:18:27Z</time>
      </trkpt>
      <trkpt lat="42.96131899999996" lon="-1.451262999999996">
        <ele>838.826</ele>
        <time>2022-08-24T14:18:28Z</time>
      </trkpt>
      <trkpt lat="42.96132099999996" lon="-1.451286999999996">
        <ele>839.028</ele>
        <time>2022-08-24T14:18:29Z</time>
      </trkpt>
      <trkpt lat="42.96132399999996" lon="-1.451313999999996">
        <ele>839.035</ele>
        <time>2022-08-24T14:18:30Z</time>
      </trkpt>
      <trkpt lat="42.96132799999996" lon="-1.451339999999996">
        <ele>839.258</ele>
        <time>2022-08-24T14:18:31Z</time>
      </trkpt>
      <trkpt lat="42.96132999999996" lon="-1.451359999999996">
        <ele>839.252</ele>
        <time>2022-08-24T14:18:32Z</time>
      </trkpt>
      <trkpt lat="42.96133499999996" lon="-1.451376999999996">
        <ele>839.661</ele>
        <time>2022-08-24T14:18:33Z</time>
      </trkpt>
      <trkpt lat="42.96134099999996" lon="-1.451397999999996">
        <ele>839.694</ele>
        <time>2022-08-24T14:18:34Z</time>
      </trkpt>
      <trkpt lat="42.96134499999996" lon="-1.451421999999996">
        <ele>839.857</ele>
        <time>2022-08-24T14:18:35Z</time>
      </trkpt>
      <trkpt lat="42.96134499999996" lon="-1.451443999999996">
        <ele>839.822</ele>
        <time>2022-08-24T14:18:36Z</time>
      </trkpt>
      <trkpt lat="42.96134499999996" lon="-1.451467999999996">
        <ele>839.809</ele>
        <time>2022-08-24T14:18:37Z</time>
      </trkpt>
      <trkpt lat="42.96134399999996" lon="-1.451489999999996">
        <ele>840.060</ele>
        <time>2022-08-24T14:18:38Z</time>
      </trkpt>
      <trkpt lat="42.96134499999996" lon="-1.451507999999996">
        <ele>840.020</ele>
        <time>2022-08-24T14:18:39Z</time>
      </trkpt>
      <trkpt lat="42.96134499999996" lon="-1.451526999999996">
        <ele>840.060</ele>
        <time>2022-08-24T14:18:40Z</time>
      </trkpt>
      <trkpt lat="42.96134199999996" lon="-1.451552999999996">
        <ele>840.046</ele>
        <time>2022-08-24T14:18:41Z</time>
      </trkpt>
      <trkpt lat="42.96133999999996" lon="-1.451583999999996">
        <ele>840.068</ele>
        <time>2022-08-24T14:18:42Z</time>
      </trkpt>
      <trkpt lat="42.96133699999996" lon="-1.451608999999996">
        <ele>840.225</ele>
        <time>2022-08-24T14:18:43Z</time>
      </trkpt>
      <trkpt lat="42.96132599999996" lon="-1.451635999999996">
        <ele>840.288</ele>
        <time>2022-08-24T14:18:44Z</time>
      </trkpt>
      <trkpt lat="42.961315999999954" lon="-1.451662999999996">
        <ele>840.252</ele>
        <time>2022-08-24T14:18:45Z</time>
      </trkpt>
      <trkpt lat="42.961312999999954" lon="-1.451696999999996">
        <ele>840.211</ele>
        <time>2022-08-24T14:18:46Z</time>
      </trkpt>
      <trkpt lat="42.961300999999956" lon="-1.451729999999996">
        <ele>840.474</ele>
        <time>2022-08-24T14:18:47Z</time>
      </trkpt>
      <trkpt lat="42.96129199999996" lon="-1.4517609999999959">
        <ele>840.456</ele>
        <time>2022-08-24T14:18:48Z</time>
      </trkpt>
      <trkpt lat="42.961275999999955" lon="-1.451792999999996">
        <ele>840.421</ele>
        <time>2022-08-24T14:18:49Z</time>
      </trkpt>
      <trkpt lat="42.96126599999995" lon="-1.451824999999996">
        <ele>840.409</ele>
        <time>2022-08-24T14:18:50Z</time>
      </trkpt>
      <trkpt lat="42.96125599999995" lon="-1.4518609999999958">
        <ele>840.448</ele>
        <time>2022-08-24T14:18:51Z</time>
      </trkpt>
      <trkpt lat="42.961245999999946" lon="-1.4518919999999957">
        <ele>840.488</ele>
        <time>2022-08-24T14:18:52Z</time>
      </trkpt>
      <trkpt lat="42.961198999999944" lon="-1.4519819999999957">
        <ele>840.418</ele>
        <time>2022-08-24T14:18:55Z</time>
      </trkpt>
      <trkpt lat="42.961124999999946" lon="-1.4520829999999956">
        <ele>840.224</ele>
        <time>2022-08-24T14:18:59Z</time>
      </trkpt>
      <trkpt lat="42.961102999999945" lon="-1.4521329999999957">
        <ele>840.236</ele>
        <time>2022-08-24T14:19:00Z</time>
      </trkpt>
      <trkpt lat="42.96108799999995" lon="-1.4521649999999957">
        <ele>840.243</ele>
        <time>2022-08-24T14:19:01Z</time>
      </trkpt>
      <trkpt lat="42.96107099999995" lon="-1.4521929999999956">
        <ele>840.266</ele>
        <time>2022-08-24T14:19:02Z</time>
      </trkpt>
      <trkpt lat="42.961054999999945" lon="-1.4522209999999955">
        <ele>840.210</ele>
        <time>2022-08-24T14:19:03Z</time>
      </trkpt>
      <trkpt lat="42.961031999999946" lon="-1.4522479999999955">
        <ele>840.299</ele>
        <time>2022-08-24T14:19:04Z</time>
      </trkpt>
      <trkpt lat="42.96093599999995" lon="-1.4523689999999956">
        <ele>840.017</ele>
        <time>2022-08-24T14:19:08Z</time>
      </trkpt>
      <trkpt lat="42.96091499999995" lon="-1.4523979999999956">
        <ele>840.087</ele>
        <time>2022-08-24T14:19:09Z</time>
      </trkpt>
      <trkpt lat="42.96089799999995" lon="-1.4524179999999955">
        <ele>840.015</ele>
        <time>2022-08-24T14:19:10Z</time>
      </trkpt>
      <trkpt lat="42.96088599999995" lon="-1.4524389999999956">
        <ele>839.809</ele>
        <time>2022-08-24T14:19:11Z</time>
      </trkpt>
      <trkpt lat="42.96087599999995" lon="-1.4524559999999955">
        <ele>839.872</ele>
        <time>2022-08-24T14:19:12Z</time>
      </trkpt>
      <trkpt lat="42.96086299999995" lon="-1.4524699999999955">
        <ele>839.682</ele>
        <time>2022-08-24T14:19:13Z</time>
      </trkpt>
      <trkpt lat="42.960848999999946" lon="-1.4524809999999955">
        <ele>839.652</ele>
        <time>2022-08-24T14:19:14Z</time>
      </trkpt>
      <trkpt lat="42.96083399999995" lon="-1.4524929999999954">
        <ele>839.618</ele>
        <time>2022-08-24T14:19:15Z</time>
      </trkpt>
      <trkpt lat="42.96076299999995" lon="-1.4525329999999954">
        <ele>839.460</ele>
        <time>2022-08-24T14:19:18Z</time>
      </trkpt>
      <trkpt lat="42.96070199999995" lon="-1.4525499999999953">
        <ele>839.037</ele>
        <time>2022-08-24T14:19:20Z</time>
      </trkpt>
      <trkpt lat="42.96054399999995" lon="-1.4525679999999954">
        <ele>838.080</ele>
        <time>2022-08-24T14:19:24Z</time>
      </trkpt>
      <trkpt lat="42.96050899999995" lon="-1.4525779999999955">
        <ele>837.424</ele>
        <time>2022-08-24T14:19:25Z</time>
      </trkpt>
      <trkpt lat="42.96047199999995" lon="-1.4525979999999954">
        <ele>837.283</ele>
        <time>2022-08-24T14:19:26Z</time>
      </trkpt>
      <trkpt lat="42.96042999999995" lon="-1.4526219999999954">
        <ele>837.053</ele>
        <time>2022-08-24T14:19:27Z</time>
      </trkpt>
      <trkpt lat="42.960392999999954" lon="-1.4526419999999953">
        <ele>836.404</ele>
        <time>2022-08-24T14:19:28Z</time>
      </trkpt>
      <trkpt lat="42.960366999999955" lon="-1.4526539999999952">
        <ele>836.214</ele>
        <time>2022-08-24T14:19:29Z</time>
      </trkpt>
      <trkpt lat="42.96034099999996" lon="-1.4526659999999951">
        <ele>835.609</ele>
        <time>2022-08-24T14:19:30Z</time>
      </trkpt>
      <trkpt lat="42.96031999999996" lon="-1.4526789999999952">
        <ele>835.426</ele>
        <time>2022-08-24T14:19:31Z</time>
      </trkpt>
      <trkpt lat="42.96029799999996" lon="-1.4526889999999952">
        <ele>834.876</ele>
        <time>2022-08-24T14:19:32Z</time>
      </trkpt>
      <trkpt lat="42.96026999999996" lon="-1.4527049999999953">
        <ele>834.496</ele>
        <time>2022-08-24T14:19:33Z</time>
      </trkpt>
      <trkpt lat="42.96014399999996" lon="-1.4527589999999952">
        <ele>834.092</ele>
        <time>2022-08-24T14:19:36Z</time>
      </trkpt>
      <trkpt lat="42.96011599999996" lon="-1.4527559999999953">
        <ele>834.024</ele>
        <time>2022-08-24T14:19:37Z</time>
      </trkpt>
      <trkpt lat="42.960043999999954" lon="-1.4527529999999953">
        <ele>833.431</ele>
        <time>2022-08-24T14:19:39Z</time>
      </trkpt>
      <trkpt lat="42.95997799999996" lon="-1.4527569999999952">
        <ele>833.014</ele>
        <time>2022-08-24T14:19:41Z</time>
      </trkpt>
      <trkpt lat="42.95994399999996" lon="-1.4527749999999953">
        <ele>832.488</ele>
        <time>2022-08-24T14:19:42Z</time>
      </trkpt>
      <trkpt lat="42.95991799999996" lon="-1.4527809999999952">
        <ele>832.217</ele>
        <time>2022-08-24T14:19:43Z</time>
      </trkpt>
      <trkpt lat="42.95988899999996" lon="-1.4527809999999952">
        <ele>831.644</ele>
        <time>2022-08-24T14:19:44Z</time>
      </trkpt>
      <trkpt lat="42.95977399999996" lon="-1.4527709999999951">
        <ele>831.205</ele>
        <time>2022-08-24T14:19:47Z</time>
      </trkpt>
      <trkpt lat="42.95973199999996" lon="-1.452774999999995">
        <ele>831.015</ele>
        <time>2022-08-24T14:19:48Z</time>
      </trkpt>
      <trkpt lat="42.95969899999996" lon="-1.452780999999995">
        <ele>830.809</ele>
        <time>2022-08-24T14:19:49Z</time>
      </trkpt>
      <trkpt lat="42.959654999999955" lon="-1.452786999999995">
        <ele>830.625</ele>
        <time>2022-08-24T14:19:50Z</time>
      </trkpt>
      <trkpt lat="42.959609999999955" lon="-1.452796999999995">
        <ele>830.465</ele>
        <time>2022-08-24T14:19:51Z</time>
      </trkpt>
      <trkpt lat="42.95957199999995" lon="-1.452796999999995">
        <ele>830.035</ele>
        <time>2022-08-24T14:19:52Z</time>
      </trkpt>
      <trkpt lat="42.959446999999955" lon="-1.452754999999995">
        <ele>828.861</ele>
        <time>2022-08-24T14:19:56Z</time>
      </trkpt>
      <trkpt lat="42.959415999999955" lon="-1.452759999999995">
        <ele>828.833</ele>
        <time>2022-08-24T14:19:57Z</time>
      </trkpt>
      <trkpt lat="42.959389999999956" lon="-1.452772999999995">
        <ele>828.840</ele>
        <time>2022-08-24T14:19:58Z</time>
      </trkpt>
      <trkpt lat="42.95934699999996" lon="-1.452810999999995">
        <ele>828.663</ele>
        <time>2022-08-24T14:19:59Z</time>
      </trkpt>
      <trkpt lat="42.95928399999996" lon="-1.452810999999995">
        <ele>828.417</ele>
        <time>2022-08-24T14:20:00Z</time>
      </trkpt>
      <trkpt lat="42.95923399999996" lon="-1.452827999999995">
        <ele>828.276</ele>
        <time>2022-08-24T14:20:01Z</time>
      </trkpt>
      <trkpt lat="42.95914599999996" lon="-1.452845999999995">
        <ele>828.022</ele>
        <time>2022-08-24T14:20:03Z</time>
      </trkpt>
      <trkpt lat="42.95910899999996" lon="-1.452842999999995">
        <ele>827.862</ele>
        <time>2022-08-24T14:20:04Z</time>
      </trkpt>
      <trkpt lat="42.959068999999964" lon="-1.452856999999995">
        <ele>827.808</ele>
        <time>2022-08-24T14:20:05Z</time>
      </trkpt>
      <trkpt lat="42.95895099999996" lon="-1.452908999999995">
        <ele>827.409</ele>
        <time>2022-08-24T14:20:08Z</time>
      </trkpt>
      <trkpt lat="42.958885999999964" lon="-1.4529849999999949">
        <ele>827.083</ele>
        <time>2022-08-24T14:20:10Z</time>
      </trkpt>
      <trkpt lat="42.95885599999996" lon="-1.453016999999995">
        <ele>827.033</ele>
        <time>2022-08-24T14:20:11Z</time>
      </trkpt>
      <trkpt lat="42.95879399999996" lon="-1.453094999999995">
        <ele>827.043</ele>
        <time>2022-08-24T14:20:13Z</time>
      </trkpt>
      <trkpt lat="42.958716999999965" lon="-1.453226999999995">
        <ele>827.069</ele>
        <time>2022-08-24T14:20:16Z</time>
      </trkpt>
      <trkpt lat="42.95868799999997" lon="-1.453266999999995">
        <ele>827.091</ele>
        <time>2022-08-24T14:20:17Z</time>
      </trkpt>
      <trkpt lat="42.958662999999966" lon="-1.453307999999995">
        <ele>827.028</ele>
        <time>2022-08-24T14:20:18Z</time>
      </trkpt>
      <trkpt lat="42.95862499999996" lon="-1.4533819999999948">
        <ele>827.091</ele>
        <time>2022-08-24T14:20:20Z</time>
      </trkpt>
      <trkpt lat="42.95862299999996" lon="-1.4534229999999948">
        <ele>827.085</ele>
        <time>2022-08-24T14:20:21Z</time>
      </trkpt>
      <trkpt lat="42.95862299999996" lon="-1.4534629999999948">
        <ele>827.044</ele>
        <time>2022-08-24T14:20:22Z</time>
      </trkpt>
      <trkpt lat="42.95862099999996" lon="-1.4535099999999948">
        <ele>827.256</ele>
        <time>2022-08-24T14:20:23Z</time>
      </trkpt>
      <trkpt lat="42.95861499999996" lon="-1.4535569999999947">
        <ele>827.259</ele>
        <time>2022-08-24T14:20:24Z</time>
      </trkpt>
      <trkpt lat="42.95862099999996" lon="-1.4535959999999946">
        <ele>827.414</ele>
        <time>2022-08-24T14:20:25Z</time>
      </trkpt>
      <trkpt lat="42.958624999999955" lon="-1.4536369999999945">
        <ele>827.409</ele>
        <time>2022-08-24T14:20:26Z</time>
      </trkpt>
      <trkpt lat="42.958624999999955" lon="-1.4536749999999945">
        <ele>827.616</ele>
        <time>2022-08-24T14:20:27Z</time>
      </trkpt>
      <trkpt lat="42.958624999999955" lon="-1.4537049999999945">
        <ele>827.626</ele>
        <time>2022-08-24T14:20:28Z</time>
      </trkpt>
      <trkpt lat="42.95862899999995" lon="-1.4537329999999944">
        <ele>827.886</ele>
        <time>2022-08-24T14:20:29Z</time>
      </trkpt>
      <trkpt lat="42.958627999999955" lon="-1.4537669999999945">
        <ele>828.022</ele>
        <time>2022-08-24T14:20:30Z</time>
      </trkpt>
      <trkpt lat="42.95862699999996" lon="-1.4538179999999945">
        <ele>828.294</ele>
        <time>2022-08-24T14:20:32Z</time>
      </trkpt>
      <trkpt lat="42.95862999999996" lon="-1.4538479999999945">
        <ele>828.441</ele>
        <time>2022-08-24T14:20:33Z</time>
      </trkpt>
      <trkpt lat="42.958635999999956" lon="-1.4538769999999945">
        <ele>828.434</ele>
        <time>2022-08-24T14:20:34Z</time>
      </trkpt>
      <trkpt lat="42.95864299999995" lon="-1.4539109999999946">
        <ele>828.458</ele>
        <time>2022-08-24T14:20:35Z</time>
      </trkpt>
      <trkpt lat="42.95865399999995" lon="-1.4539409999999946">
        <ele>828.487</ele>
        <time>2022-08-24T14:20:36Z</time>
      </trkpt>
      <trkpt lat="42.958655999999955" lon="-1.4539699999999947">
        <ele>828.685</ele>
        <time>2022-08-24T14:20:37Z</time>
      </trkpt>
      <trkpt lat="42.95865699999995" lon="-1.4540059999999946">
        <ele>828.889</ele>
        <time>2022-08-24T14:20:38Z</time>
      </trkpt>
      <trkpt lat="42.95866899999995" lon="-1.4540599999999946">
        <ele>828.817</ele>
        <time>2022-08-24T14:20:39Z</time>
      </trkpt>
      <trkpt lat="42.95866599999995" lon="-1.4540909999999945">
        <ele>828.809</ele>
        <time>2022-08-24T14:20:40Z</time>
      </trkpt>
      <trkpt lat="42.95866899999995" lon="-1.4541209999999944">
        <ele>829.039</ele>
        <time>2022-08-24T14:20:41Z</time>
      </trkpt>
      <trkpt lat="42.958678999999954" lon="-1.4541619999999944">
        <ele>829.469</ele>
        <time>2022-08-24T14:20:42Z</time>
      </trkpt>
      <trkpt lat="42.958680999999956" lon="-1.4541859999999944">
        <ele>829.639</ele>
        <time>2022-08-24T14:20:43Z</time>
      </trkpt>
      <trkpt lat="42.958683999999955" lon="-1.4542139999999943">
        <ele>829.875</ele>
        <time>2022-08-24T14:20:44Z</time>
      </trkpt>
      <trkpt lat="42.95869199999996" lon="-1.4542519999999943">
        <ele>830.087</ele>
        <time>2022-08-24T14:20:45Z</time>
      </trkpt>
      <trkpt lat="42.95870499999996" lon="-1.4542849999999943">
        <ele>830.274</ele>
        <time>2022-08-24T14:20:46Z</time>
      </trkpt>
      <trkpt lat="42.95873399999996" lon="-1.4543219999999943">
        <ele>830.437</ele>
        <time>2022-08-24T14:20:47Z</time>
      </trkpt>
      <trkpt lat="42.95875799999996" lon="-1.4543569999999943">
        <ele>830.421</ele>
        <time>2022-08-24T14:20:48Z</time>
      </trkpt>
      <trkpt lat="42.95876599999996" lon="-1.4543929999999943">
        <ele>830.610</ele>
        <time>2022-08-24T14:20:49Z</time>
      </trkpt>
      <trkpt lat="42.958761999999965" lon="-1.4544369999999942">
        <ele>830.658</ele>
        <time>2022-08-24T14:20:50Z</time>
      </trkpt>
      <trkpt lat="42.958766999999966" lon="-1.4544779999999942">
        <ele>830.652</ele>
        <time>2022-08-24T14:20:51Z</time>
      </trkpt>
      <trkpt lat="42.958761999999965" lon="-1.4545199999999943">
        <ele>830.817</ele>
        <time>2022-08-24T14:20:52Z</time>
      </trkpt>
      <trkpt lat="42.958769999999966" lon="-1.4545669999999942">
        <ele>830.809</ele>
        <time>2022-08-24T14:20:53Z</time>
      </trkpt>
      <trkpt lat="42.95877399999996" lon="-1.4546159999999941">
        <ele>830.856</ele>
        <time>2022-08-24T14:20:54Z</time>
      </trkpt>
      <trkpt lat="42.958781999999964" lon="-1.454654999999994">
        <ele>830.836</ele>
        <time>2022-08-24T14:20:55Z</time>
      </trkpt>
      <trkpt lat="42.95879099999996" lon="-1.4546889999999941">
        <ele>830.646</ele>
        <time>2022-08-24T14:20:56Z</time>
      </trkpt>
      <trkpt lat="42.95879899999996" lon="-1.454716999999994">
        <ele>830.632</ele>
        <time>2022-08-24T14:20:57Z</time>
      </trkpt>
      <trkpt lat="42.958795999999964" lon="-1.454755999999994">
        <ele>830.414</ele>
        <time>2022-08-24T14:20:58Z</time>
      </trkpt>
      <trkpt lat="42.958780999999966" lon="-1.454801999999994">
        <ele>830.421</ele>
        <time>2022-08-24T14:20:59Z</time>
      </trkpt>
      <trkpt lat="42.958775999999965" lon="-1.454824999999994">
        <ele>830.254</ele>
        <time>2022-08-24T14:21:00Z</time>
      </trkpt>
      <trkpt lat="42.95877999999996" lon="-1.454852999999994">
        <ele>830.058</ele>
        <time>2022-08-24T14:21:01Z</time>
      </trkpt>
      <trkpt lat="42.95877099999996" lon="-1.454882999999994">
        <ele>830.087</ele>
        <time>2022-08-24T14:21:02Z</time>
      </trkpt>
      <trkpt lat="42.958747999999964" lon="-1.454914999999994">
        <ele>829.869</ele>
        <time>2022-08-24T14:21:03Z</time>
      </trkpt>
      <trkpt lat="42.95871799999996" lon="-1.454948999999994">
        <ele>829.604</ele>
        <time>2022-08-24T14:21:04Z</time>
      </trkpt>
      <trkpt lat="42.95869599999996" lon="-1.454972999999994">
        <ele>829.024</ele>
        <time>2022-08-24T14:21:05Z</time>
      </trkpt>
      <trkpt lat="42.95867299999996" lon="-1.4549939999999941">
        <ele>828.609</ele>
        <time>2022-08-24T14:21:06Z</time>
      </trkpt>
      <trkpt lat="42.95864899999996" lon="-1.4549959999999942">
        <ele>828.617</ele>
        <time>2022-08-24T14:21:07Z</time>
      </trkpt>
      <trkpt lat="42.95862699999996" lon="-1.4549939999999941">
        <ele>828.487</ele>
        <time>2022-08-24T14:21:08Z</time>
      </trkpt>
      <trkpt lat="42.95860899999996" lon="-1.454996999999994">
        <ele>828.437</ele>
        <time>2022-08-24T14:21:09Z</time>
      </trkpt>
      <trkpt lat="42.95859399999996" lon="-1.4549939999999941">
        <ele>828.243</ele>
        <time>2022-08-24T14:21:10Z</time>
      </trkpt>
      <trkpt lat="42.95854599999996" lon="-1.4549529999999942">
        <ele>827.885</ele>
        <time>2022-08-24T14:21:12Z</time>
      </trkpt>
      <trkpt lat="42.95851899999996" lon="-1.4549369999999942">
        <ele>827.662</ele>
        <time>2022-08-24T14:21:13Z</time>
      </trkpt>
      <trkpt lat="42.95848699999996" lon="-1.4549199999999942">
        <ele>827.675</ele>
        <time>2022-08-24T14:21:14Z</time>
      </trkpt>
      <trkpt lat="42.95843899999996" lon="-1.4548959999999942">
        <ele>827.029</ele>
        <time>2022-08-24T14:21:15Z</time>
      </trkpt>
      <trkpt lat="42.95840599999996" lon="-1.4548799999999942">
        <ele>826.688</ele>
        <time>2022-08-24T14:21:16Z</time>
      </trkpt>
      <trkpt lat="42.958370999999964" lon="-1.4548749999999941">
        <ele>826.222</ele>
        <time>2022-08-24T14:21:17Z</time>
      </trkpt>
      <trkpt lat="42.95833599999997" lon="-1.454883999999994">
        <ele>826.262</ele>
        <time>2022-08-24T14:21:18Z</time>
      </trkpt>
      <trkpt lat="42.958305999999965" lon="-1.454894999999994">
        <ele>826.008</ele>
        <time>2022-08-24T14:21:19Z</time>
      </trkpt>
      <trkpt lat="42.95827899999996" lon="-1.454908999999994">
        <ele>825.809</ele>
        <time>2022-08-24T14:21:20Z</time>
      </trkpt>
      <trkpt lat="42.95824199999996" lon="-1.454926999999994">
        <ele>825.843</ele>
        <time>2022-08-24T14:21:21Z</time>
      </trkpt>
      <trkpt lat="42.958201999999964" lon="-1.4549339999999942">
        <ele>825.443</ele>
        <time>2022-08-24T14:21:22Z</time>
      </trkpt>
      <trkpt lat="42.958159999999964" lon="-1.4549449999999942">
        <ele>825.023</ele>
        <time>2022-08-24T14:21:23Z</time>
      </trkpt>
      <trkpt lat="42.958122999999965" lon="-1.4549559999999941">
        <ele>824.669</ele>
        <time>2022-08-24T14:21:24Z</time>
      </trkpt>
      <trkpt lat="42.95809599999996" lon="-1.4549559999999941">
        <ele>824.491</ele>
        <time>2022-08-24T14:21:25Z</time>
      </trkpt>
      <trkpt lat="42.958069999999964" lon="-1.454953999999994">
        <ele>824.278</ele>
        <time>2022-08-24T14:21:26Z</time>
      </trkpt>
      <trkpt lat="42.958043999999965" lon="-1.4549479999999941">
        <ele>823.851</ele>
        <time>2022-08-24T14:21:27Z</time>
      </trkpt>
      <trkpt lat="42.958012999999966" lon="-1.4549389999999942">
        <ele>823.885</ele>
        <time>2022-08-24T14:21:28Z</time>
      </trkpt>
      <trkpt lat="42.957970999999965" lon="-1.4549299999999943">
        <ele>823.634</ele>
        <time>2022-08-24T14:21:29Z</time>
      </trkpt>
      <trkpt lat="42.95794399999996" lon="-1.4549209999999944">
        <ele>823.447</ele>
        <time>2022-08-24T14:21:30Z</time>
      </trkpt>
      <trkpt lat="42.95790299999996" lon="-1.4549199999999944">
        <ele>823.029</ele>
        <time>2022-08-24T14:21:31Z</time>
      </trkpt>
      <trkpt lat="42.95785299999996" lon="-1.4549079999999945">
        <ele>822.021</ele>
        <time>2022-08-24T14:21:32Z</time>
      </trkpt>
      <trkpt lat="42.95780499999996" lon="-1.4549259999999946">
        <ele>821.609</ele>
        <time>2022-08-24T14:21:33Z</time>
      </trkpt>
      <trkpt lat="42.95770099999996" lon="-1.4549639999999946">
        <ele>820.035</ele>
        <time>2022-08-24T14:21:35Z</time>
      </trkpt>
      <trkpt lat="42.95764499999996" lon="-1.4549599999999947">
        <ele>819.435</ele>
        <time>2022-08-24T14:21:36Z</time>
      </trkpt>
      <trkpt lat="42.95759099999996" lon="-1.4549389999999947">
        <ele>819.215</ele>
        <time>2022-08-24T14:21:37Z</time>
      </trkpt>
      <trkpt lat="42.957529999999956" lon="-1.4549289999999946">
        <ele>818.851</ele>
        <time>2022-08-24T14:21:38Z</time>
      </trkpt>
      <trkpt lat="42.95747799999996" lon="-1.4549339999999946">
        <ele>818.443</ele>
        <time>2022-08-24T14:21:39Z</time>
      </trkpt>
      <trkpt lat="42.957422999999956" lon="-1.4549309999999946">
        <ele>818.430</ele>
        <time>2022-08-24T14:21:40Z</time>
      </trkpt>
      <trkpt lat="42.95735999999996" lon="-1.4549329999999947">
        <ele>818.253</ele>
        <time>2022-08-24T14:21:41Z</time>
      </trkpt>
      <trkpt lat="42.95724699999996" lon="-1.4549409999999947">
        <ele>817.437</ele>
        <time>2022-08-24T14:21:43Z</time>
      </trkpt>
      <trkpt lat="42.95716599999996" lon="-1.4549039999999946">
        <ele>817.086</ele>
        <time>2022-08-24T14:21:45Z</time>
      </trkpt>
      <trkpt lat="42.957124999999955" lon="-1.4549079999999945">
        <ele>816.841</ele>
        <time>2022-08-24T14:21:46Z</time>
      </trkpt>
      <trkpt lat="42.95708199999996" lon="-1.4549129999999946">
        <ele>816.681</ele>
        <time>2022-08-24T14:21:47Z</time>
      </trkpt>
      <trkpt lat="42.957034999999955" lon="-1.4549179999999946">
        <ele>816.209</ele>
        <time>2022-08-24T14:21:48Z</time>
      </trkpt>
      <trkpt lat="42.956983999999956" lon="-1.4549259999999946">
        <ele>816.209</ele>
        <time>2022-08-24T14:21:49Z</time>
      </trkpt>
      <trkpt lat="42.95693799999996" lon="-1.4549119999999947">
        <ele>816.265</ele>
        <time>2022-08-24T14:21:50Z</time>
      </trkpt>
      <trkpt lat="42.95688599999996" lon="-1.4549169999999947">
        <ele>816.075</ele>
        <time>2022-08-24T14:21:51Z</time>
      </trkpt>
      <trkpt lat="42.95684599999996" lon="-1.4549089999999947">
        <ele>816.035</ele>
        <time>2022-08-24T14:21:52Z</time>
      </trkpt>
      <trkpt lat="42.95682499999997" lon="-1.4549059999999947">
        <ele>816.071</ele>
        <time>2022-08-24T14:21:53Z</time>
      </trkpt>
      <trkpt lat="42.95680499999997" lon="-1.4549049999999948">
        <ele>816.053</ele>
        <time>2022-08-24T14:21:54Z</time>
      </trkpt>
      <trkpt lat="42.95669499999997" lon="-1.4549589999999948">
        <ele>816.050</ele>
        <time>2022-08-24T14:21:57Z</time>
      </trkpt>
      <trkpt lat="42.95666399999997" lon="-1.4549499999999949">
        <ele>816.023</ele>
        <time>2022-08-24T14:21:58Z</time>
      </trkpt>
      <trkpt lat="42.956630999999966" lon="-1.4549449999999948">
        <ele>816.077</ele>
        <time>2022-08-24T14:21:59Z</time>
      </trkpt>
      <trkpt lat="42.956599999999966" lon="-1.4549509999999948">
        <ele>816.026</ele>
        <time>2022-08-24T14:22:00Z</time>
      </trkpt>
      <trkpt lat="42.95657399999997" lon="-1.4549559999999948">
        <ele>816.083</ele>
        <time>2022-08-24T14:22:01Z</time>
      </trkpt>
      <trkpt lat="42.956549999999964" lon="-1.4549559999999948">
        <ele>816.025</ele>
        <time>2022-08-24T14:22:02Z</time>
      </trkpt>
      <trkpt lat="42.95653199999997" lon="-1.4549509999999948">
        <ele>815.817</ele>
        <time>2022-08-24T14:22:03Z</time>
      </trkpt>
      <trkpt lat="42.956501999999965" lon="-1.4549389999999949">
        <ele>815.609</ele>
        <time>2022-08-24T14:22:04Z</time>
      </trkpt>
      <trkpt lat="42.95647499999996" lon="-1.454929999999995">
        <ele>816.029</ele>
        <time>2022-08-24T14:22:05Z</time>
      </trkpt>
      <trkpt lat="42.95644499999996" lon="-1.454928999999995">
        <ele>816.039</ele>
        <time>2022-08-24T14:22:06Z</time>
      </trkpt>
      <trkpt lat="42.95639499999996" lon="-1.454926999999995">
        <ele>816.029</ele>
        <time>2022-08-24T14:22:08Z</time>
      </trkpt>
      <trkpt lat="42.95632899999996" lon="-1.454916999999995">
        <ele>816.235</ele>
        <time>2022-08-24T14:22:11Z</time>
      </trkpt>
      <trkpt lat="42.95619199999996" lon="-1.454907999999995">
        <ele>816.847</ele>
        <time>2022-08-24T14:22:16Z</time>
      </trkpt>
      <trkpt lat="42.95615999999996" lon="-1.454902999999995">
        <ele>816.874</ele>
        <time>2022-08-24T14:22:17Z</time>
      </trkpt>
      <trkpt lat="42.95613499999996" lon="-1.454901999999995">
        <ele>816.837</ele>
        <time>2022-08-24T14:22:18Z</time>
      </trkpt>
      <trkpt lat="42.956099999999964" lon="-1.454912999999995">
        <ele>816.691</ele>
        <time>2022-08-24T14:22:20Z</time>
      </trkpt>
      <trkpt lat="42.956085999999964" lon="-1.454923999999995">
        <ele>816.660</ele>
        <time>2022-08-24T14:22:21Z</time>
      </trkpt>
      <trkpt lat="42.956065999999964" lon="-1.454942999999995">
        <ele>816.884</ele>
        <time>2022-08-24T14:22:22Z</time>
      </trkpt>
      <trkpt lat="42.956039999999966" lon="-1.454966999999995">
        <ele>817.007</ele>
        <time>2022-08-24T14:22:23Z</time>
      </trkpt>
      <trkpt lat="42.956014999999965" lon="-1.454993999999995">
        <ele>817.017</ele>
        <time>2022-08-24T14:22:24Z</time>
      </trkpt>
      <trkpt lat="42.95597999999997" lon="-1.455036999999995">
        <ele>817.409</ele>
        <time>2022-08-24T14:22:26Z</time>
      </trkpt>
      <trkpt lat="42.95590299999997" lon="-1.4551249999999951">
        <ele>817.859</ele>
        <time>2022-08-24T14:22:29Z</time>
      </trkpt>
      <trkpt lat="42.95580299999997" lon="-1.455225999999995">
        <ele>818.059</ele>
        <time>2022-08-24T14:22:33Z</time>
      </trkpt>
      <trkpt lat="42.95577799999997" lon="-1.455253999999995">
        <ele>818.029</ele>
        <time>2022-08-24T14:22:34Z</time>
      </trkpt>
      <trkpt lat="42.95575799999997" lon="-1.4552789999999949">
        <ele>818.035</ele>
        <time>2022-08-24T14:22:35Z</time>
      </trkpt>
      <trkpt lat="42.955738999999966" lon="-1.455304999999995">
        <ele>818.037</ele>
        <time>2022-08-24T14:22:36Z</time>
      </trkpt>
      <trkpt lat="42.955724999999966" lon="-1.455326999999995">
        <ele>818.294</ele>
        <time>2022-08-24T14:22:37Z</time>
      </trkpt>
      <trkpt lat="42.95571199999996" lon="-1.455347999999995">
        <ele>818.227</ele>
        <time>2022-08-24T14:22:38Z</time>
      </trkpt>
      <trkpt lat="42.95570099999996" lon="-1.455369999999995">
        <ele>818.291</ele>
        <time>2022-08-24T14:22:39Z</time>
      </trkpt>
      <trkpt lat="42.955693999999966" lon="-1.455395999999995">
        <ele>818.640</ele>
        <time>2022-08-24T14:22:40Z</time>
      </trkpt>
      <trkpt lat="42.95568199999997" lon="-1.455420999999995">
        <ele>818.638</ele>
        <time>2022-08-24T14:22:41Z</time>
      </trkpt>
      <trkpt lat="42.955671999999964" lon="-1.455438999999995">
        <ele>818.670</ele>
        <time>2022-08-24T14:22:42Z</time>
      </trkpt>
      <trkpt lat="42.95566399999996" lon="-1.455457999999995">
        <ele>818.617</ele>
        <time>2022-08-24T14:22:43Z</time>
      </trkpt>
      <trkpt lat="42.955660999999964" lon="-1.455481999999995">
        <ele>818.809</ele>
        <time>2022-08-24T14:22:44Z</time>
      </trkpt>
      <trkpt lat="42.95565099999996" lon="-1.455503999999995">
        <ele>819.084</ele>
        <time>2022-08-24T14:22:45Z</time>
      </trkpt>
      <trkpt lat="42.95563299999996" lon="-1.455523999999995">
        <ele>819.264</ele>
        <time>2022-08-24T14:22:46Z</time>
      </trkpt>
      <trkpt lat="42.955612999999964" lon="-1.455544999999995">
        <ele>819.284</ele>
        <time>2022-08-24T14:22:47Z</time>
      </trkpt>
      <trkpt lat="42.95560599999997" lon="-1.4555569999999949">
        <ele>819.620</ele>
        <time>2022-08-24T14:22:48Z</time>
      </trkpt>
      <trkpt lat="42.955595999999964" lon="-1.4555769999999948">
        <ele>819.822</ele>
        <time>2022-08-24T14:22:49Z</time>
      </trkpt>
      <trkpt lat="42.955567999999964" lon="-1.4556249999999948">
        <ele>820.279</ele>
        <time>2022-08-24T14:22:51Z</time>
      </trkpt>
      <trkpt lat="42.955552999999966" lon="-1.4556569999999949">
        <ele>820.222</ele>
        <time>2022-08-24T14:22:52Z</time>
      </trkpt>
      <trkpt lat="42.95553599999997" lon="-1.455680999999995">
        <ele>820.236</ele>
        <time>2022-08-24T14:22:53Z</time>
      </trkpt>
      <trkpt lat="42.95552599999996" lon="-1.4556999999999949">
        <ele>820.645</ele>
        <time>2022-08-24T14:22:54Z</time>
      </trkpt>
      <trkpt lat="42.95552199999997" lon="-1.455714999999995">
        <ele>820.822</ele>
        <time>2022-08-24T14:22:55Z</time>
      </trkpt>
      <trkpt lat="42.955519999999964" lon="-1.455730999999995">
        <ele>821.062</ele>
        <time>2022-08-24T14:22:56Z</time>
      </trkpt>
      <trkpt lat="42.95551799999996" lon="-1.455748999999995">
        <ele>821.208</ele>
        <time>2022-08-24T14:22:57Z</time>
      </trkpt>
      <trkpt lat="42.955513999999965" lon="-1.4557699999999951">
        <ele>821.209</ele>
        <time>2022-08-24T14:22:58Z</time>
      </trkpt>
      <trkpt lat="42.955510999999966" lon="-1.4557879999999952">
        <ele>821.453</ele>
        <time>2022-08-24T14:22:59Z</time>
      </trkpt>
      <trkpt lat="42.95549799999996" lon="-1.4558089999999952">
        <ele>821.463</ele>
        <time>2022-08-24T14:23:00Z</time>
      </trkpt>
      <trkpt lat="42.955485999999965" lon="-1.4558349999999953">
        <ele>821.473</ele>
        <time>2022-08-24T14:23:01Z</time>
      </trkpt>
      <trkpt lat="42.955479999999966" lon="-1.4558699999999953">
        <ele>821.639</ele>
        <time>2022-08-24T14:23:02Z</time>
      </trkpt>
      <trkpt lat="42.95547299999997" lon="-1.4558989999999954">
        <ele>821.661</ele>
        <time>2022-08-24T14:23:03Z</time>
      </trkpt>
      <trkpt lat="42.95547099999997" lon="-1.4559219999999955">
        <ele>821.658</ele>
        <time>2022-08-24T14:23:04Z</time>
      </trkpt>
      <trkpt lat="42.955465999999966" lon="-1.4559509999999956">
        <ele>821.631</ele>
        <time>2022-08-24T14:23:05Z</time>
      </trkpt>
      <trkpt lat="42.95546699999996" lon="-1.4559769999999956">
        <ele>821.845</ele>
        <time>2022-08-24T14:23:06Z</time>
      </trkpt>
      <trkpt lat="42.95546699999996" lon="-1.4559979999999957">
        <ele>822.244</ele>
        <time>2022-08-24T14:23:07Z</time>
      </trkpt>
      <trkpt lat="42.955468999999965" lon="-1.4560179999999956">
        <ele>822.274</ele>
        <time>2022-08-24T14:23:08Z</time>
      </trkpt>
      <trkpt lat="42.955468999999965" lon="-1.4560379999999955">
        <ele>822.456</ele>
        <time>2022-08-24T14:23:09Z</time>
      </trkpt>
      <trkpt lat="42.955468999999965" lon="-1.4560629999999954">
        <ele>822.621</ele>
        <time>2022-08-24T14:23:10Z</time>
      </trkpt>
      <trkpt lat="42.95546999999996" lon="-1.4560869999999955">
        <ele>822.609</ele>
        <time>2022-08-24T14:23:11Z</time>
      </trkpt>
      <trkpt lat="42.955468999999965" lon="-1.4561099999999956">
        <ele>822.818</ele>
        <time>2022-08-24T14:23:12Z</time>
      </trkpt>
      <trkpt lat="42.95546999999996" lon="-1.4561359999999957">
        <ele>822.898</ele>
        <time>2022-08-24T14:23:13Z</time>
      </trkpt>
      <trkpt lat="42.95546999999996" lon="-1.4561669999999955">
        <ele>823.078</ele>
        <time>2022-08-24T14:23:14Z</time>
      </trkpt>
      <trkpt lat="42.95547299999996" lon="-1.4561979999999954">
        <ele>823.044</ele>
        <time>2022-08-24T14:23:15Z</time>
      </trkpt>
      <trkpt lat="42.95547099999996" lon="-1.4562279999999954">
        <ele>823.286</ele>
        <time>2022-08-24T14:23:16Z</time>
      </trkpt>
      <trkpt lat="42.95546799999996" lon="-1.4562599999999954">
        <ele>823.273</ele>
        <time>2022-08-24T14:23:17Z</time>
      </trkpt>
      <trkpt lat="42.955463999999964" lon="-1.4562949999999955">
        <ele>823.246</ele>
        <time>2022-08-24T14:23:18Z</time>
      </trkpt>
      <trkpt lat="42.955463999999964" lon="-1.4563279999999954">
        <ele>823.240</ele>
        <time>2022-08-24T14:23:19Z</time>
      </trkpt>
      <trkpt lat="42.95545899999996" lon="-1.4563629999999954">
        <ele>823.249</ele>
        <time>2022-08-24T14:23:20Z</time>
      </trkpt>
      <trkpt lat="42.95544599999996" lon="-1.4564079999999955">
        <ele>823.257</ele>
        <time>2022-08-24T14:23:21Z</time>
      </trkpt>
      <trkpt lat="42.95542799999996" lon="-1.4564409999999954">
        <ele>823.200</ele>
        <time>2022-08-24T14:23:22Z</time>
      </trkpt>
      <trkpt lat="42.95541799999996" lon="-1.4564809999999955">
        <ele>822.620</ele>
        <time>2022-08-24T14:23:23Z</time>
      </trkpt>
      <trkpt lat="42.95540699999996" lon="-1.4565279999999954">
        <ele>822.409</ele>
        <time>2022-08-24T14:23:24Z</time>
      </trkpt>
      <trkpt lat="42.95538799999996" lon="-1.4565959999999953">
        <ele>822.266</ele>
        <time>2022-08-24T14:23:26Z</time>
      </trkpt>
      <trkpt lat="42.95535699999996" lon="-1.4566769999999953">
        <ele>822.046</ele>
        <time>2022-08-24T14:23:28Z</time>
      </trkpt>
      <trkpt lat="42.95534699999995" lon="-1.4567059999999954">
        <ele>822.066</ele>
        <time>2022-08-24T14:23:29Z</time>
      </trkpt>
      <trkpt lat="42.95531899999995" lon="-1.4568009999999953">
        <ele>821.622</ele>
        <time>2022-08-24T14:23:31Z</time>
      </trkpt>
      <trkpt lat="42.95528099999995" lon="-1.4569449999999953">
        <ele>821.274</ele>
        <time>2022-08-24T14:23:33Z</time>
      </trkpt>
      <trkpt lat="42.95524899999995" lon="-1.4570039999999953">
        <ele>821.281</ele>
        <time>2022-08-24T14:23:34Z</time>
      </trkpt>
      <trkpt lat="42.95521899999995" lon="-1.4570519999999954">
        <ele>820.844</ele>
        <time>2022-08-24T14:23:35Z</time>
      </trkpt>
      <trkpt lat="42.95517899999995" lon="-1.4571019999999955">
        <ele>820.878</ele>
        <time>2022-08-24T14:23:36Z</time>
      </trkpt>
      <trkpt lat="42.955146999999954" lon="-1.4571369999999955">
        <ele>820.057</ele>
        <time>2022-08-24T14:23:37Z</time>
      </trkpt>
      <trkpt lat="42.95513399999995" lon="-1.4571679999999954">
        <ele>819.888</ele>
        <time>2022-08-24T14:23:38Z</time>
      </trkpt>
      <trkpt lat="42.955098999999954" lon="-1.4572019999999954">
        <ele>819.624</ele>
        <time>2022-08-24T14:23:39Z</time>
      </trkpt>
      <trkpt lat="42.954966999999954" lon="-1.4573029999999954">
        <ele>819.026</ele>
        <time>2022-08-24T14:23:42Z</time>
      </trkpt>
      <trkpt lat="42.954791999999955" lon="-1.4574609999999955">
        <ele>818.809</ele>
        <time>2022-08-24T14:23:45Z</time>
      </trkpt>
      <trkpt lat="42.95468399999996" lon="-1.4575969999999954">
        <ele>818.859</ele>
        <time>2022-08-24T14:23:48Z</time>
      </trkpt>
      <trkpt lat="42.95461099999996" lon="-1.4576639999999954">
        <ele>818.839</ele>
        <time>2022-08-24T14:23:50Z</time>
      </trkpt>
      <trkpt lat="42.95458799999996" lon="-1.4576999999999953">
        <ele>818.499</ele>
        <time>2022-08-24T14:23:51Z</time>
      </trkpt>
      <trkpt lat="42.95449499999996" lon="-1.4578309999999954">
        <ele>818.245</ele>
        <time>2022-08-24T14:23:54Z</time>
      </trkpt>
      <trkpt lat="42.95446299999996" lon="-1.4578799999999954">
        <ele>818.217</ele>
        <time>2022-08-24T14:23:55Z</time>
      </trkpt>
      <trkpt lat="42.95438999999996" lon="-1.4579729999999953">
        <ele>817.484</ele>
        <time>2022-08-24T14:23:57Z</time>
      </trkpt>
      <trkpt lat="42.95435599999996" lon="-1.4580189999999953">
        <ele>817.287</ele>
        <time>2022-08-24T14:23:58Z</time>
      </trkpt>
      <trkpt lat="42.95429199999996" lon="-1.4581289999999953">
        <ele>816.821</ele>
        <time>2022-08-24T14:24:00Z</time>
      </trkpt>
      <trkpt lat="42.95425599999996" lon="-1.4581809999999953">
        <ele>816.680</ele>
        <time>2022-08-24T14:24:01Z</time>
      </trkpt>
      <trkpt lat="42.95422199999996" lon="-1.4582259999999954">
        <ele>816.259</ele>
        <time>2022-08-24T14:24:02Z</time>
      </trkpt>
      <trkpt lat="42.95418599999996" lon="-1.4582719999999953">
        <ele>816.203</ele>
        <time>2022-08-24T14:24:03Z</time>
      </trkpt>
      <trkpt lat="42.95415999999996" lon="-1.4583149999999954">
        <ele>816.223</ele>
        <time>2022-08-24T14:24:04Z</time>
      </trkpt>
      <trkpt lat="42.954132999999956" lon="-1.4583519999999954">
        <ele>816.209</ele>
        <time>2022-08-24T14:24:05Z</time>
      </trkpt>
      <trkpt lat="42.954099999999954" lon="-1.4583859999999955">
        <ele>816.226</ele>
        <time>2022-08-24T14:24:06Z</time>
      </trkpt>
      <trkpt lat="42.95405899999995" lon="-1.4584169999999954">
        <ele>816.296</ele>
        <time>2022-08-24T14:24:07Z</time>
      </trkpt>
      <trkpt lat="42.95402999999995" lon="-1.4584459999999955">
        <ele>816.046</ele>
        <time>2022-08-24T14:24:08Z</time>
      </trkpt>
      <trkpt lat="42.95400299999995" lon="-1.4584709999999954">
        <ele>816.042</ele>
        <time>2022-08-24T14:24:09Z</time>
      </trkpt>
      <trkpt lat="42.95397399999995" lon="-1.4584889999999955">
        <ele>816.084</ele>
        <time>2022-08-24T14:24:10Z</time>
      </trkpt>
      <trkpt lat="42.953947999999954" lon="-1.4585109999999954">
        <ele>816.061</ele>
        <time>2022-08-24T14:24:11Z</time>
      </trkpt>
      <trkpt lat="42.95392099999995" lon="-1.4585389999999954">
        <ele>816.264</ele>
        <time>2022-08-24T14:24:12Z</time>
      </trkpt>
      <trkpt lat="42.95382499999995" lon="-1.4586119999999954">
        <ele>816.278</ele>
        <time>2022-08-24T14:24:15Z</time>
      </trkpt>
      <trkpt lat="42.95377699999995" lon="-1.4586599999999954">
        <ele>816.227</ele>
        <time>2022-08-24T14:24:16Z</time>
      </trkpt>
      <trkpt lat="42.953744999999955" lon="-1.4586879999999953">
        <ele>816.282</ele>
        <time>2022-08-24T14:24:17Z</time>
      </trkpt>
      <trkpt lat="42.95372999999996" lon="-1.4587199999999954">
        <ele>816.643</ele>
        <time>2022-08-24T14:24:18Z</time>
      </trkpt>
      <trkpt lat="42.95371899999996" lon="-1.4587549999999954">
        <ele>816.617</ele>
        <time>2022-08-24T14:24:19Z</time>
      </trkpt>
      <trkpt lat="42.95370399999996" lon="-1.4587939999999953">
        <ele>816.809</ele>
        <time>2022-08-24T14:24:20Z</time>
      </trkpt>
      <trkpt lat="42.95369899999996" lon="-1.4588219999999952">
        <ele>816.889</ele>
        <time>2022-08-24T14:24:21Z</time>
      </trkpt>
      <trkpt lat="42.95370199999996" lon="-1.4588549999999951">
        <ele>816.889</ele>
        <time>2022-08-24T14:24:22Z</time>
      </trkpt>
      <trkpt lat="42.95370099999996" lon="-1.4588819999999951">
        <ele>817.029</ele>
        <time>2022-08-24T14:24:23Z</time>
      </trkpt>
      <trkpt lat="42.95369299999996" lon="-1.4589379999999952">
        <ele>817.065</ele>
        <time>2022-08-24T14:24:24Z</time>
      </trkpt>
      <trkpt lat="42.953693999999956" lon="-1.4590219999999952">
        <ele>817.447</ele>
        <time>2022-08-24T14:24:25Z</time>
      </trkpt>
      <trkpt lat="42.953699999999955" lon="-1.4591289999999952">
        <ele>817.654</ele>
        <time>2022-08-24T14:24:27Z</time>
      </trkpt>
      <trkpt lat="42.953708999999954" lon="-1.4591709999999953">
        <ele>817.877</ele>
        <time>2022-08-24T14:24:28Z</time>
      </trkpt>
      <trkpt lat="42.95371299999995" lon="-1.4592209999999954">
        <ele>817.821</ele>
        <time>2022-08-24T14:24:29Z</time>
      </trkpt>
      <trkpt lat="42.95373599999995" lon="-1.4593759999999953">
        <ele>817.430</ele>
        <time>2022-08-24T14:24:31Z</time>
      </trkpt>
      <trkpt lat="42.95379599999995" lon="-1.4595909999999954">
        <ele>815.446</ele>
        <time>2022-08-24T14:24:34Z</time>
      </trkpt>
      <trkpt lat="42.95380699999995" lon="-1.4596669999999954">
        <ele>814.888</ele>
        <time>2022-08-24T14:24:35Z</time>
      </trkpt>
      <trkpt lat="42.95381699999995" lon="-1.4597409999999953">
        <ele>814.216</ele>
        <time>2022-08-24T14:24:36Z</time>
      </trkpt>
      <trkpt lat="42.95391399999995" lon="-1.4599149999999952">
        <ele>813.209</ele>
        <time>2022-08-24T14:24:39Z</time>
      </trkpt>
      <trkpt lat="42.953931999999945" lon="-1.4599839999999953">
        <ele>812.855</ele>
        <time>2022-08-24T14:24:40Z</time>
      </trkpt>
      <trkpt lat="42.95394399999994" lon="-1.4600559999999954">
        <ele>811.865</ele>
        <time>2022-08-24T14:24:41Z</time>
      </trkpt>
      <trkpt lat="42.953948999999945" lon="-1.4601209999999953">
        <ele>811.035</ele>
        <time>2022-08-24T14:24:42Z</time>
      </trkpt>
      <trkpt lat="42.95394999999994" lon="-1.4601889999999953">
        <ele>810.891</ele>
        <time>2022-08-24T14:24:43Z</time>
      </trkpt>
      <trkpt lat="42.953937999999944" lon="-1.4602559999999953">
        <ele>810.243</ele>
        <time>2022-08-24T14:24:44Z</time>
      </trkpt>
      <trkpt lat="42.953925999999946" lon="-1.4603019999999953">
        <ele>810.250</ele>
        <time>2022-08-24T14:24:45Z</time>
      </trkpt>
      <trkpt lat="42.95391599999994" lon="-1.4603419999999954">
        <ele>810.073</ele>
        <time>2022-08-24T14:24:46Z</time>
      </trkpt>
      <trkpt lat="42.95390799999994" lon="-1.4603879999999954">
        <ele>810.057</ele>
        <time>2022-08-24T14:24:47Z</time>
      </trkpt>
      <trkpt lat="42.95389899999994" lon="-1.4604399999999953">
        <ele>809.866</ele>
        <time>2022-08-24T14:24:48Z</time>
      </trkpt>
      <trkpt lat="42.95388899999994" lon="-1.4605009999999954">
        <ele>809.897</ele>
        <time>2022-08-24T14:24:49Z</time>
      </trkpt>
      <trkpt lat="42.95388399999994" lon="-1.4605709999999954">
        <ele>809.823</ele>
        <time>2022-08-24T14:24:50Z</time>
      </trkpt>
      <trkpt lat="42.953881999999936" lon="-1.4606319999999955">
        <ele>809.825</ele>
        <time>2022-08-24T14:24:51Z</time>
      </trkpt>
      <trkpt lat="42.953882999999934" lon="-1.4606879999999955">
        <ele>809.809</ele>
        <time>2022-08-24T14:24:52Z</time>
      </trkpt>
      <trkpt lat="42.95388699999993" lon="-1.4607339999999955">
        <ele>809.830</ele>
        <time>2022-08-24T14:24:53Z</time>
      </trkpt>
      <trkpt lat="42.95388999999993" lon="-1.4607669999999955">
        <ele>809.850</ele>
        <time>2022-08-24T14:24:54Z</time>
      </trkpt>
      <trkpt lat="42.95389099999993" lon="-1.4608079999999954">
        <ele>810.030</ele>
        <time>2022-08-24T14:24:55Z</time>
      </trkpt>
      <trkpt lat="42.95388999999993" lon="-1.4608319999999955">
        <ele>810.236</ele>
        <time>2022-08-24T14:24:56Z</time>
      </trkpt>
      <trkpt lat="42.95388899999993" lon="-1.4608589999999955">
        <ele>810.438</ele>
        <time>2022-08-24T14:24:57Z</time>
      </trkpt>
      <trkpt lat="42.95388899999993" lon="-1.4608809999999954">
        <ele>810.825</ele>
        <time>2022-08-24T14:24:58Z</time>
      </trkpt>
      <trkpt lat="42.953890999999935" lon="-1.4609029999999954">
        <ele>811.048</ele>
        <time>2022-08-24T14:24:59Z</time>
      </trkpt>
      <trkpt lat="42.95391799999994" lon="-1.4609909999999955">
        <ele>811.652</ele>
        <time>2022-08-24T14:25:02Z</time>
      </trkpt>
      <trkpt lat="42.953921999999935" lon="-1.4610229999999955">
        <ele>811.641</ele>
        <time>2022-08-24T14:25:03Z</time>
      </trkpt>
      <trkpt lat="42.95392099999994" lon="-1.4610489999999956">
        <ele>811.668</ele>
        <time>2022-08-24T14:25:04Z</time>
      </trkpt>
      <trkpt lat="42.95392099999994" lon="-1.4610799999999955">
        <ele>811.842</ele>
        <time>2022-08-24T14:25:05Z</time>
      </trkpt>
      <trkpt lat="42.953918999999935" lon="-1.4611509999999954">
        <ele>812.026</ele>
        <time>2022-08-24T14:25:07Z</time>
      </trkpt>
      <trkpt lat="42.95391499999994" lon="-1.4611769999999955">
        <ele>812.009</ele>
        <time>2022-08-24T14:25:08Z</time>
      </trkpt>
      <trkpt lat="42.953915999999936" lon="-1.4612109999999956">
        <ele>812.087</ele>
        <time>2022-08-24T14:25:09Z</time>
      </trkpt>
      <trkpt lat="42.95392099999994" lon="-1.4612649999999956">
        <ele>812.257</ele>
        <time>2022-08-24T14:25:11Z</time>
      </trkpt>
      <trkpt lat="42.95392899999994" lon="-1.4612949999999956">
        <ele>812.667</ele>
        <time>2022-08-24T14:25:12Z</time>
      </trkpt>
      <trkpt lat="42.95393199999994" lon="-1.4613289999999957">
        <ele>812.663</ele>
        <time>2022-08-24T14:25:13Z</time>
      </trkpt>
      <trkpt lat="42.95393699999994" lon="-1.4613639999999957">
        <ele>812.875</ele>
        <time>2022-08-24T14:25:14Z</time>
      </trkpt>
      <trkpt lat="42.95394199999994" lon="-1.4613949999999956">
        <ele>813.032</ele>
        <time>2022-08-24T14:25:15Z</time>
      </trkpt>
      <trkpt lat="42.95393599999994" lon="-1.4614509999999956">
        <ele>813.275</ele>
        <time>2022-08-24T14:25:17Z</time>
      </trkpt>
      <trkpt lat="42.95392599999994" lon="-1.4614709999999955">
        <ele>813.279</ele>
        <time>2022-08-24T14:25:18Z</time>
      </trkpt>
      <trkpt lat="42.95391699999994" lon="-1.4614919999999956">
        <ele>813.248</ele>
        <time>2022-08-24T14:25:19Z</time>
      </trkpt>
      <trkpt lat="42.95390799999994" lon="-1.4615109999999956">
        <ele>813.483</ele>
        <time>2022-08-24T14:25:20Z</time>
      </trkpt>
      <trkpt lat="42.953900999999945" lon="-1.4615319999999956">
        <ele>813.425</ele>
        <time>2022-08-24T14:25:21Z</time>
      </trkpt>
      <trkpt lat="42.95389199999995" lon="-1.4615539999999956">
        <ele>813.617</ele>
        <time>2022-08-24T14:25:22Z</time>
      </trkpt>
      <trkpt lat="42.95387699999995" lon="-1.4615899999999955">
        <ele>814.009</ele>
        <time>2022-08-24T14:25:24Z</time>
      </trkpt>
      <trkpt lat="42.95384199999995" lon="-1.4616979999999955">
        <ele>814.649</ele>
        <time>2022-08-24T14:25:28Z</time>
      </trkpt>
      <trkpt lat="42.95383299999995" lon="-1.4617289999999954">
        <ele>814.619</ele>
        <time>2022-08-24T14:25:29Z</time>
      </trkpt>
      <trkpt lat="42.953823999999955" lon="-1.4617599999999953">
        <ele>814.659</ele>
        <time>2022-08-24T14:25:30Z</time>
      </trkpt>
      <trkpt lat="42.953815999999954" lon="-1.4617919999999953">
        <ele>814.825</ele>
        <time>2022-08-24T14:25:31Z</time>
      </trkpt>
      <trkpt lat="42.95380599999995" lon="-1.4618259999999954">
        <ele>814.877</ele>
        <time>2022-08-24T14:25:32Z</time>
      </trkpt>
      <trkpt lat="42.95379799999995" lon="-1.4618589999999954">
        <ele>814.844</ele>
        <time>2022-08-24T14:25:33Z</time>
      </trkpt>
      <trkpt lat="42.95378999999995" lon="-1.4618889999999953">
        <ele>814.827</ele>
        <time>2022-08-24T14:25:34Z</time>
      </trkpt>
      <trkpt lat="42.95377799999995" lon="-1.4619229999999954">
        <ele>814.851</ele>
        <time>2022-08-24T14:25:35Z</time>
      </trkpt>
      <trkpt lat="42.95377299999995" lon="-1.4619529999999954">
        <ele>814.840</ele>
        <time>2022-08-24T14:25:36Z</time>
      </trkpt>
      <trkpt lat="42.95375099999995" lon="-1.4620999999999953">
        <ele>814.869</ele>
        <time>2022-08-24T14:25:40Z</time>
      </trkpt>
      <trkpt lat="42.953745999999946" lon="-1.4621379999999953">
        <ele>814.804</ele>
        <time>2022-08-24T14:25:41Z</time>
      </trkpt>
      <trkpt lat="42.95373599999994" lon="-1.4621719999999954">
        <ele>814.824</ele>
        <time>2022-08-24T14:25:42Z</time>
      </trkpt>
      <trkpt lat="42.953712999999944" lon="-1.4622459999999953">
        <ele>814.809</ele>
        <time>2022-08-24T14:25:44Z</time>
      </trkpt>
      <trkpt lat="42.95368599999994" lon="-1.4623559999999953">
        <ele>815.027</ele>
        <time>2022-08-24T14:25:47Z</time>
      </trkpt>
      <trkpt lat="42.95364099999994" lon="-1.4625009999999954">
        <ele>815.037</ele>
        <time>2022-08-24T14:25:51Z</time>
      </trkpt>
      <trkpt lat="42.95363599999994" lon="-1.4625309999999954">
        <ele>815.037</ele>
        <time>2022-08-24T14:25:52Z</time>
      </trkpt>
      <trkpt lat="42.95362999999994" lon="-1.4625659999999954">
        <ele>815.033</ele>
        <time>2022-08-24T14:25:53Z</time>
      </trkpt>
      <trkpt lat="42.95362499999994" lon="-1.4625999999999955">
        <ele>815.045</ele>
        <time>2022-08-24T14:25:54Z</time>
      </trkpt>
      <trkpt lat="42.95362199999994" lon="-1.4626309999999954">
        <ele>815.032</ele>
        <time>2022-08-24T14:25:55Z</time>
      </trkpt>
      <trkpt lat="42.95362099999994" lon="-1.4626579999999954">
        <ele>815.035</ele>
        <time>2022-08-24T14:25:56Z</time>
      </trkpt>
      <trkpt lat="42.95361899999994" lon="-1.4626869999999954">
        <ele>815.029</ele>
        <time>2022-08-24T14:25:57Z</time>
      </trkpt>
      <trkpt lat="42.95361399999994" lon="-1.4627149999999953">
        <ele>815.038</ele>
        <time>2022-08-24T14:25:58Z</time>
      </trkpt>
      <trkpt lat="42.95361099999994" lon="-1.4627359999999954">
        <ele>815.096</ele>
        <time>2022-08-24T14:25:59Z</time>
      </trkpt>
      <trkpt lat="42.95360799999994" lon="-1.4627599999999954">
        <ele>815.231</ele>
        <time>2022-08-24T14:26:00Z</time>
      </trkpt>
      <trkpt lat="42.95360299999994" lon="-1.4627879999999953">
        <ele>815.224</ele>
        <time>2022-08-24T14:26:01Z</time>
      </trkpt>
      <trkpt lat="42.953592999999934" lon="-1.4628109999999954">
        <ele>815.409</ele>
        <time>2022-08-24T14:26:02Z</time>
      </trkpt>
      <trkpt lat="42.95357399999993" lon="-1.4628499999999953">
        <ele>815.680</ele>
        <time>2022-08-24T14:26:04Z</time>
      </trkpt>
      <trkpt lat="42.95356299999993" lon="-1.4628659999999953">
        <ele>815.850</ele>
        <time>2022-08-24T14:26:05Z</time>
      </trkpt>
      <trkpt lat="42.95355399999993" lon="-1.4628869999999954">
        <ele>816.080</ele>
        <time>2022-08-24T14:26:06Z</time>
      </trkpt>
      <trkpt lat="42.953544999999934" lon="-1.4628999999999954">
        <ele>816.266</ele>
        <time>2022-08-24T14:26:07Z</time>
      </trkpt>
      <trkpt lat="42.95352999999994" lon="-1.4629169999999954">
        <ele>816.288</ele>
        <time>2022-08-24T14:26:08Z</time>
      </trkpt>
      <trkpt lat="42.95351999999993" lon="-1.4629319999999955">
        <ele>816.285</ele>
        <time>2022-08-24T14:26:09Z</time>
      </trkpt>
      <trkpt lat="42.95350599999993" lon="-1.4629609999999955">
        <ele>816.428</ele>
        <time>2022-08-24T14:26:11Z</time>
      </trkpt>
      <trkpt lat="42.95349299999993" lon="-1.4629789999999956">
        <ele>816.432</ele>
        <time>2022-08-24T14:26:12Z</time>
      </trkpt>
      <trkpt lat="42.95347099999993" lon="-1.4630029999999956">
        <ele>816.681</ele>
        <time>2022-08-24T14:26:14Z</time>
      </trkpt>
      <trkpt lat="42.95345699999993" lon="-1.4630389999999955">
        <ele>816.886</ele>
        <time>2022-08-24T14:26:16Z</time>
      </trkpt>
      <trkpt lat="42.953429999999926" lon="-1.4630719999999955">
        <ele>817.260</ele>
        <time>2022-08-24T14:26:19Z</time>
      </trkpt>
      <trkpt lat="42.95340899999993" lon="-1.4630999999999954">
        <ele>817.226</ele>
        <time>2022-08-24T14:26:20Z</time>
      </trkpt>
      <trkpt lat="42.95335299999993" lon="-1.4631689999999955">
        <ele>817.609</ele>
        <time>2022-08-24T14:26:24Z</time>
      </trkpt>
      <trkpt lat="42.95331299999993" lon="-1.4632089999999955">
        <ele>818.049</ele>
        <time>2022-08-24T14:26:27Z</time>
      </trkpt>
      <trkpt lat="42.95322699999993" lon="-1.4633399999999956">
        <ele>818.089</ele>
        <time>2022-08-24T14:26:32Z</time>
      </trkpt>
      <trkpt lat="42.95320599999993" lon="-1.4633679999999956">
        <ele>818.079</ele>
        <time>2022-08-24T14:26:33Z</time>
      </trkpt>
      <trkpt lat="42.95317199999993" lon="-1.4634129999999956">
        <ele>817.865</ele>
        <time>2022-08-24T14:26:35Z</time>
      </trkpt>
      <trkpt lat="42.95315499999993" lon="-1.4634309999999957">
        <ele>817.637</ele>
        <time>2022-08-24T14:26:36Z</time>
      </trkpt>
      <trkpt lat="42.95305399999993" lon="-1.4635119999999957">
        <ele>817.064</ele>
        <time>2022-08-24T14:26:40Z</time>
      </trkpt>
      <trkpt lat="42.95305399999993" lon="-1.4635119999999957">
        <ele>816.617</ele>
        <time>2022-08-24T14:26:41Z</time>
      </trkpt>
      <trkpt lat="42.95301299999993" lon="-1.4635559999999956">
        <ele>816.411</ele>
        <time>2022-08-24T14:26:42Z</time>
      </trkpt>
      <trkpt lat="42.95299499999993" lon="-1.4635849999999957">
        <ele>816.040</ele>
        <time>2022-08-24T14:26:43Z</time>
      </trkpt>
      <trkpt lat="42.95297199999993" lon="-1.4636109999999958">
        <ele>815.658</ele>
        <time>2022-08-24T14:26:44Z</time>
      </trkpt>
      <trkpt lat="42.95295799999993" lon="-1.4636259999999959">
        <ele>815.052</ele>
        <time>2022-08-24T14:26:45Z</time>
      </trkpt>
      <trkpt lat="42.952942999999934" lon="-1.463638999999996">
        <ele>814.817</ele>
        <time>2022-08-24T14:26:46Z</time>
      </trkpt>
      <trkpt lat="42.95292999999993" lon="-1.4636529999999959">
        <ele>814.609</ele>
        <time>2022-08-24T14:26:47Z</time>
      </trkpt>
      <trkpt lat="42.95288499999993" lon="-1.463732999999996">
        <ele>814.416</ele>
        <time>2022-08-24T14:26:50Z</time>
      </trkpt>
      <trkpt lat="42.95286999999993" lon="-1.4637529999999959">
        <ele>814.256</ele>
        <time>2022-08-24T14:26:51Z</time>
      </trkpt>
      <trkpt lat="42.952823999999936" lon="-1.4637969999999958">
        <ele>813.476</ele>
        <time>2022-08-24T14:26:53Z</time>
      </trkpt>
      <trkpt lat="42.95280099999994" lon="-1.4638359999999957">
        <ele>813.042</ele>
        <time>2022-08-24T14:26:54Z</time>
      </trkpt>
      <trkpt lat="42.95274899999994" lon="-1.4639219999999957">
        <ele>812.414</ele>
        <time>2022-08-24T14:26:56Z</time>
      </trkpt>
      <trkpt lat="42.95272599999994" lon="-1.4639509999999958">
        <ele>812.231</ele>
        <time>2022-08-24T14:26:57Z</time>
      </trkpt>
      <trkpt lat="42.952693999999944" lon="-1.4640059999999957">
        <ele>812.244</ele>
        <time>2022-08-24T14:26:58Z</time>
      </trkpt>
      <trkpt lat="42.95264699999994" lon="-1.4640879999999956">
        <ele>812.088</ele>
        <time>2022-08-24T14:27:00Z</time>
      </trkpt>
      <trkpt lat="42.95261899999994" lon="-1.4641249999999957">
        <ele>811.827</ele>
        <time>2022-08-24T14:27:01Z</time>
      </trkpt>
      <trkpt lat="42.952482999999944" lon="-1.4643539999999957">
        <ele>811.845</ele>
        <time>2022-08-24T14:27:06Z</time>
      </trkpt>
      <trkpt lat="42.95246199999995" lon="-1.4643929999999956">
        <ele>812.047</ele>
        <time>2022-08-24T14:27:07Z</time>
      </trkpt>
      <trkpt lat="42.952439999999946" lon="-1.4644169999999956">
        <ele>812.011</ele>
        <time>2022-08-24T14:27:08Z</time>
      </trkpt>
      <trkpt lat="42.95240499999995" lon="-1.4644499999999956">
        <ele>812.009</ele>
        <time>2022-08-24T14:27:09Z</time>
      </trkpt>
      <trkpt lat="42.95236599999995" lon="-1.4644769999999956">
        <ele>812.245</ele>
        <time>2022-08-24T14:27:10Z</time>
      </trkpt>
      <trkpt lat="42.952293999999945" lon="-1.4645419999999956">
        <ele>812.265</ele>
        <time>2022-08-24T14:27:12Z</time>
      </trkpt>
      <trkpt lat="42.952211999999946" lon="-1.4646459999999957">
        <ele>812.485</ele>
        <time>2022-08-24T14:27:15Z</time>
      </trkpt>
      <trkpt lat="42.952166999999946" lon="-1.4646719999999958">
        <ele>812.451</ele>
        <time>2022-08-24T14:27:16Z</time>
      </trkpt>
      <trkpt lat="42.952076999999946" lon="-1.4647199999999958">
        <ele>812.483</ele>
        <time>2022-08-24T14:27:18Z</time>
      </trkpt>
      <trkpt lat="42.952037999999945" lon="-1.4647379999999959">
        <ele>812.210</ele>
        <time>2022-08-24T14:27:19Z</time>
      </trkpt>
      <trkpt lat="42.95200299999995" lon="-1.4647579999999958">
        <ele>812.083</ele>
        <time>2022-08-24T14:27:20Z</time>
      </trkpt>
      <trkpt lat="42.95196799999995" lon="-1.4647769999999958">
        <ele>812.017</ele>
        <time>2022-08-24T14:27:21Z</time>
      </trkpt>
      <trkpt lat="42.95185099999995" lon="-1.4648419999999958">
        <ele>811.476</ele>
        <time>2022-08-24T14:27:24Z</time>
      </trkpt>
      <trkpt lat="42.95176099999995" lon="-1.4648769999999958">
        <ele>811.082</ele>
        <time>2022-08-24T14:27:26Z</time>
      </trkpt>
      <trkpt lat="42.95171599999995" lon="-1.4648839999999959">
        <ele>810.843</ele>
        <time>2022-08-24T14:27:27Z</time>
      </trkpt>
      <trkpt lat="42.951674999999945" lon="-1.4648949999999958">
        <ele>810.617</ele>
        <time>2022-08-24T14:27:28Z</time>
      </trkpt>
      <trkpt lat="42.951629999999945" lon="-1.4649199999999958">
        <ele>810.609</ele>
        <time>2022-08-24T14:27:29Z</time>
      </trkpt>
      <trkpt lat="42.95160099999995" lon="-1.4649439999999958">
        <ele>810.669</ele>
        <time>2022-08-24T14:27:30Z</time>
      </trkpt>
      <trkpt lat="42.95156699999995" lon="-1.4649719999999957">
        <ele>810.859</ele>
        <time>2022-08-24T14:27:31Z</time>
      </trkpt>
      <trkpt lat="42.951533999999945" lon="-1.4650039999999958">
        <ele>810.839</ele>
        <time>2022-08-24T14:27:32Z</time>
      </trkpt>
      <trkpt lat="42.95150699999994" lon="-1.4650279999999958">
        <ele>810.885</ele>
        <time>2022-08-24T14:27:33Z</time>
      </trkpt>
      <trkpt lat="42.951474999999945" lon="-1.4650439999999958">
        <ele>810.867</ele>
        <time>2022-08-24T14:27:34Z</time>
      </trkpt>
      <trkpt lat="42.95146199999994" lon="-1.4650549999999958">
        <ele>810.624</ele>
        <time>2022-08-24T14:27:35Z</time>
      </trkpt>
      <trkpt lat="42.95143499999994" lon="-1.4650709999999958">
        <ele>810.677</ele>
        <time>2022-08-24T14:27:36Z</time>
      </trkpt>
      <trkpt lat="42.95140199999994" lon="-1.4650909999999957">
        <ele>810.641</ele>
        <time>2022-08-24T14:27:37Z</time>
      </trkpt>
      <trkpt lat="42.95137899999994" lon="-1.4650979999999958">
        <ele>810.820</ele>
        <time>2022-08-24T14:27:38Z</time>
      </trkpt>
      <trkpt lat="42.95135999999994" lon="-1.4650969999999959">
        <ele>811.047</ele>
        <time>2022-08-24T14:27:39Z</time>
      </trkpt>
      <trkpt lat="42.95135399999994" lon="-1.4650969999999959">
        <ele>811.229</ele>
        <time>2022-08-24T14:27:40Z</time>
      </trkpt>
      <trkpt lat="42.95135399999994" lon="-1.4650969999999959">
        <ele>811.221</ele>
        <time>2022-08-24T14:27:41Z</time>
      </trkpt>
      <trkpt lat="42.95133299999994" lon="-1.4651009999999958">
        <ele>811.409</ele>
        <time>2022-08-24T14:27:42Z</time>
      </trkpt>
      <trkpt lat="42.951286999999944" lon="-1.4651019999999957">
        <ele>811.475</ele>
        <time>2022-08-24T14:27:43Z</time>
      </trkpt>
      <trkpt lat="42.951260999999946" lon="-1.4650989999999957">
        <ele>811.675</ele>
        <time>2022-08-24T14:27:44Z</time>
      </trkpt>
      <trkpt lat="42.95122899999995" lon="-1.4650949999999958">
        <ele>811.655</ele>
        <time>2022-08-24T14:27:45Z</time>
      </trkpt>
      <trkpt lat="42.95119799999995" lon="-1.4650879999999957">
        <ele>811.841</ele>
        <time>2022-08-24T14:27:46Z</time>
      </trkpt>
      <trkpt lat="42.951159999999945" lon="-1.4650839999999958">
        <ele>812.013</ele>
        <time>2022-08-24T14:27:47Z</time>
      </trkpt>
      <trkpt lat="42.95113799999994" lon="-1.4650849999999958">
        <ele>812.030</ele>
        <time>2022-08-24T14:27:48Z</time>
      </trkpt>
      <trkpt lat="42.951097999999945" lon="-1.4650829999999957">
        <ele>812.243</ele>
        <time>2022-08-24T14:27:50Z</time>
      </trkpt>
      <trkpt lat="42.951083999999945" lon="-1.4650779999999957">
        <ele>812.237</ele>
        <time>2022-08-24T14:27:51Z</time>
      </trkpt>
      <trkpt lat="42.951074999999946" lon="-1.4650649999999956">
        <ele>812.466</ele>
        <time>2022-08-24T14:27:52Z</time>
      </trkpt>
      <trkpt lat="42.951058999999944" lon="-1.4650569999999956">
        <ele>812.464</ele>
        <time>2022-08-24T14:27:53Z</time>
      </trkpt>
      <trkpt lat="42.95104299999994" lon="-1.4650369999999957">
        <ele>812.806</ele>
        <time>2022-08-24T14:27:54Z</time>
      </trkpt>
      <trkpt lat="42.95104099999994" lon="-1.4650339999999957">
        <ele>813.016</ele>
        <time>2022-08-24T14:27:55Z</time>
      </trkpt>
      <trkpt lat="42.95102999999994" lon="-1.4650219999999958">
        <ele>813.209</ele>
        <time>2022-08-24T14:27:56Z</time>
      </trkpt>
      <trkpt lat="42.95101299999994" lon="-1.465017999999996">
        <ele>813.217</ele>
        <time>2022-08-24T14:27:57Z</time>
      </trkpt>
      <trkpt lat="42.95100399999994" lon="-1.465017999999996">
        <ele>813.417</ele>
        <time>2022-08-24T14:27:58Z</time>
      </trkpt>
      <trkpt lat="42.95100199999994" lon="-1.4650159999999959">
        <ele>813.647</ele>
        <time>2022-08-24T14:27:59Z</time>
      </trkpt>
      <trkpt lat="42.950960999999936" lon="-1.465020999999996">
        <ele>813.863</ele>
        <time>2022-08-24T14:28:00Z</time>
      </trkpt>
      <trkpt lat="42.95095699999994" lon="-1.465020999999996">
        <ele>814.085</ele>
        <time>2022-08-24T14:28:01Z</time>
      </trkpt>
      <trkpt lat="42.95094599999994" lon="-1.4650109999999958">
        <ele>814.252</ele>
        <time>2022-08-24T14:28:02Z</time>
      </trkpt>
      <trkpt lat="42.950929999999936" lon="-1.4649979999999958">
        <ele>814.225</ele>
        <time>2022-08-24T14:28:03Z</time>
      </trkpt>
      <trkpt lat="42.95090299999993" lon="-1.4649849999999958">
        <ele>814.829</ele>
        <time>2022-08-24T14:28:04Z</time>
      </trkpt>
      <trkpt lat="42.95088699999993" lon="-1.4649839999999958">
        <ele>814.888</ele>
        <time>2022-08-24T14:28:05Z</time>
      </trkpt>
      <trkpt lat="42.95088399999993" lon="-1.464963999999996">
        <ele>815.258</ele>
        <time>2022-08-24T14:28:06Z</time>
      </trkpt>
      <trkpt lat="42.95087299999993" lon="-1.4649489999999958">
        <ele>815.052</ele>
        <time>2022-08-24T14:28:07Z</time>
      </trkpt>
      <trkpt lat="42.95086999999993" lon="-1.4649469999999958">
        <ele>815.217</ele>
        <time>2022-08-24T14:28:08Z</time>
      </trkpt>
      <trkpt lat="42.95086999999993" lon="-1.4649469999999958">
        <ele>815.409</ele>
        <time>2022-08-24T14:28:09Z</time>
      </trkpt>
      <trkpt lat="42.95086999999993" lon="-1.4649459999999959">
        <ele>816.296</ele>
        <time>2022-08-24T14:28:24Z</time>
      </trkpt>
      <trkpt lat="42.95086999999993" lon="-1.4649459999999959">
        <ele>816.236</ele>
        <time>2022-08-24T14:28:25Z</time>
      </trkpt>
      <trkpt lat="42.95086899999993" lon="-1.464944999999996">
        <ele>816.226</ele>
        <time>2022-08-24T14:28:26Z</time>
      </trkpt>
      <trkpt lat="42.95086899999993" lon="-1.464944999999996">
        <ele>816.422</ele>
        <time>2022-08-24T14:28:27Z</time>
      </trkpt>
      <trkpt lat="42.95086899999993" lon="-1.464944999999996">
        <ele>816.454</ele>
        <time>2022-08-24T14:28:28Z</time>
      </trkpt>
      <trkpt lat="42.95086899999993" lon="-1.464944999999996">
        <ele>816.491</ele>
        <time>2022-08-24T14:28:29Z</time>
      </trkpt>
      <trkpt lat="42.95086899999993" lon="-1.464944999999996">
        <ele>816.444</ele>
        <time>2022-08-24T14:28:31Z</time>
      </trkpt>
      <trkpt lat="42.95086899999993" lon="-1.464944999999996">
        <ele>816.848</ele>
        <time>2022-08-24T14:28:32Z</time>
      </trkpt>
      <trkpt lat="42.950865999999934" lon="-1.464940999999996">
        <ele>816.687</ele>
        <time>2022-08-24T14:28:33Z</time>
      </trkpt>
      <trkpt lat="42.950865999999934" lon="-1.464940999999996">
        <ele>817.038</ele>
        <time>2022-08-24T14:28:39Z</time>
      </trkpt>
      <trkpt lat="42.95086399999993" lon="-1.464937999999996">
        <ele>817.070</ele>
        <time>2022-08-24T14:28:40Z</time>
      </trkpt>
      <trkpt lat="42.95086099999993" lon="-1.464932999999996">
        <ele>817.217</ele>
        <time>2022-08-24T14:28:42Z</time>
      </trkpt>
      <trkpt lat="42.95086099999993" lon="-1.464932999999996">
        <ele>817.609</ele>
        <time>2022-08-24T14:28:47Z</time>
      </trkpt>
      <trkpt lat="42.950839999999936" lon="-1.464905999999996">
        <ele>817.634</ele>
        <time>2022-08-24T14:28:48Z</time>
      </trkpt>
      <trkpt lat="42.95083899999994" lon="-1.4649049999999961">
        <ele>817.854</ele>
        <time>2022-08-24T14:28:49Z</time>
      </trkpt>
      <trkpt lat="42.95083499999994" lon="-1.464899999999996">
        <ele>817.824</ele>
        <time>2022-08-24T14:28:50Z</time>
      </trkpt>
      <trkpt lat="42.950833999999944" lon="-1.4648859999999961">
        <ele>817.820</ele>
        <time>2022-08-24T14:28:51Z</time>
      </trkpt>
      <trkpt lat="42.950833999999944" lon="-1.4648859999999961">
        <ele>818.082</ele>
        <time>2022-08-24T14:28:53Z</time>
      </trkpt>
      <trkpt lat="42.950833999999944" lon="-1.4648859999999961">
        <ele>818.079</ele>
        <time>2022-08-24T14:28:54Z</time>
      </trkpt>
      <trkpt lat="42.950824999999945" lon="-1.4648779999999961">
        <ele>818.462</ele>
        <time>2022-08-24T14:28:58Z</time>
      </trkpt>
      <trkpt lat="42.95080999999995" lon="-1.464854999999996">
        <ele>818.436</ele>
        <time>2022-08-24T14:28:59Z</time>
      </trkpt>
      <trkpt lat="42.950801999999946" lon="-1.464841999999996">
        <ele>818.475</ele>
        <time>2022-08-24T14:29:00Z</time>
      </trkpt>
      <trkpt lat="42.95079299999995" lon="-1.464833999999996">
        <ele>818.648</ele>
        <time>2022-08-24T14:29:01Z</time>
      </trkpt>
      <trkpt lat="42.95078399999995" lon="-1.464825999999996">
        <ele>818.661</ele>
        <time>2022-08-24T14:29:02Z</time>
      </trkpt>
      <trkpt lat="42.95077599999995" lon="-1.464816999999996">
        <ele>818.817</ele>
        <time>2022-08-24T14:29:03Z</time>
      </trkpt>
      <trkpt lat="42.95076699999995" lon="-1.464808999999996">
        <ele>818.809</ele>
        <time>2022-08-24T14:29:04Z</time>
      </trkpt>
      <trkpt lat="42.95075799999995" lon="-1.464800999999996">
        <ele>819.075</ele>
        <time>2022-08-24T14:29:05Z</time>
      </trkpt>
      <trkpt lat="42.95074899999995" lon="-1.464792999999996">
        <ele>819.075</ele>
        <time>2022-08-24T14:29:06Z</time>
      </trkpt>
      <trkpt lat="42.95074099999995" lon="-1.464784999999996">
        <ele>819.075</ele>
        <time>2022-08-24T14:29:07Z</time>
      </trkpt>
      <trkpt lat="42.95074099999995" lon="-1.464784999999996">
        <ele>819.281</ele>
        <time>2022-08-24T14:29:08Z</time>
      </trkpt>
      <trkpt lat="42.95074099999995" lon="-1.464784999999996">
        <ele>819.223</ele>
        <time>2022-08-24T14:29:09Z</time>
      </trkpt>
      <trkpt lat="42.95071199999995" lon="-1.464751999999996">
        <ele>819.640</ele>
        <time>2022-08-24T14:29:12Z</time>
      </trkpt>
      <trkpt lat="42.95071199999995" lon="-1.464751999999996">
        <ele>819.893</ele>
        <time>2022-08-24T14:29:13Z</time>
      </trkpt>
      <trkpt lat="42.95071199999995" lon="-1.464751999999996">
        <ele>819.877</ele>
        <time>2022-08-24T14:29:14Z</time>
      </trkpt>
      <trkpt lat="42.95071199999995" lon="-1.464751999999996">
        <ele>820.046</ele>
        <time>2022-08-24T14:29:15Z</time>
      </trkpt>
      <trkpt lat="42.95071199999995" lon="-1.464751999999996">
        <ele>820.089</ele>
        <time>2022-08-24T14:29:16Z</time>
      </trkpt>
      <trkpt lat="42.950710999999956" lon="-1.464749999999996">
        <ele>820.206</ele>
        <time>2022-08-24T14:29:17Z</time>
      </trkpt>
      <trkpt lat="42.950710999999956" lon="-1.464749999999996">
        <ele>820.426</ele>
        <time>2022-08-24T14:29:18Z</time>
      </trkpt>
      <trkpt lat="42.950710999999956" lon="-1.464749999999996">
        <ele>820.609</ele>
        <time>2022-08-24T14:29:23Z</time>
      </trkpt>
      <trkpt lat="42.950707999999956" lon="-1.464746999999996">
        <ele>820.889</ele>
        <time>2022-08-24T14:29:27Z</time>
      </trkpt>
      <trkpt lat="42.950707999999956" lon="-1.464746999999996">
        <ele>821.079</ele>
        <time>2022-08-24T14:29:29Z</time>
      </trkpt>
      <trkpt lat="42.95070199999996" lon="-1.464739999999996">
        <ele>821.289</ele>
        <time>2022-08-24T14:29:32Z</time>
      </trkpt>
      <trkpt lat="42.95070199999996" lon="-1.464739999999996">
        <ele>821.815</ele>
        <time>2022-08-24T14:29:38Z</time>
      </trkpt>
      <trkpt lat="42.950679999999956" lon="-1.464715999999996">
        <ele>822.037</ele>
        <time>2022-08-24T14:29:40Z</time>
      </trkpt>
      <trkpt lat="42.950668999999955" lon="-1.464714999999996">
        <ele>822.024</ele>
        <time>2022-08-24T14:29:41Z</time>
      </trkpt>
      <trkpt lat="42.950665999999956" lon="-1.464713999999996">
        <ele>822.227</ele>
        <time>2022-08-24T14:29:42Z</time>
      </trkpt>
      <trkpt lat="42.95064199999995" lon="-1.464670999999996">
        <ele>822.841</ele>
        <time>2022-08-24T14:29:56Z</time>
      </trkpt>
      <trkpt lat="42.950634999999956" lon="-1.464660999999996">
        <ele>822.830</ele>
        <time>2022-08-24T14:29:57Z</time>
      </trkpt>
      <trkpt lat="42.95062899999996" lon="-1.464649999999996">
        <ele>823.274</ele>
        <time>2022-08-24T14:29:58Z</time>
      </trkpt>
      <trkpt lat="42.95058899999996" lon="-1.464612999999996">
        <ele>823.256</ele>
        <time>2022-08-24T14:29:59Z</time>
      </trkpt>
      <trkpt lat="42.95057999999996" lon="-1.4645979999999958">
        <ele>823.421</ele>
        <time>2022-08-24T14:30:00Z</time>
      </trkpt>
      <trkpt lat="42.95056299999996" lon="-1.4645659999999958">
        <ele>823.609</ele>
        <time>2022-08-24T14:30:01Z</time>
      </trkpt>
      <trkpt lat="42.95053299999996" lon="-1.4645399999999957">
        <ele>823.828</ele>
        <time>2022-08-24T14:30:02Z</time>
      </trkpt>
      <trkpt lat="42.950516999999955" lon="-1.4645069999999958">
        <ele>823.888</ele>
        <time>2022-08-24T14:30:04Z</time>
      </trkpt>
      <trkpt lat="42.950496999999956" lon="-1.4644929999999958">
        <ele>824.028</ele>
        <time>2022-08-24T14:30:05Z</time>
      </trkpt>
      <trkpt lat="42.95049599999996" lon="-1.4644909999999958">
        <ele>824.034</ele>
        <time>2022-08-24T14:30:06Z</time>
      </trkpt>
      <trkpt lat="42.95049599999996" lon="-1.4644909999999958">
        <ele>824.016</ele>
        <time>2022-08-24T14:30:08Z</time>
      </trkpt>
      <trkpt lat="42.95049599999996" lon="-1.4644909999999958">
        <ele>824.223</ele>
        <time>2022-08-24T14:30:09Z</time>
      </trkpt>
      <trkpt lat="42.95041699999996" lon="-1.4643699999999957">
        <ele>824.866</ele>
        <time>2022-08-24T14:30:18Z</time>
      </trkpt>
      <trkpt lat="42.95041399999996" lon="-1.4643659999999958">
        <ele>824.860</ele>
        <time>2022-08-24T14:30:19Z</time>
      </trkpt>
      <trkpt lat="42.95041399999996" lon="-1.4643659999999958">
        <ele>825.259</ele>
        <time>2022-08-24T14:30:23Z</time>
      </trkpt>
      <trkpt lat="42.95037699999996" lon="-1.4642799999999958">
        <ele>825.634</ele>
        <time>2022-08-24T14:30:27Z</time>
      </trkpt>
      <trkpt lat="42.95036499999996" lon="-1.4642289999999958">
        <ele>825.655</ele>
        <time>2022-08-24T14:30:29Z</time>
      </trkpt>
      <trkpt lat="42.950352999999964" lon="-1.464197999999996">
        <ele>825.810</ele>
        <time>2022-08-24T14:30:31Z</time>
      </trkpt>
      <trkpt lat="42.950352999999964" lon="-1.464197999999996">
        <ele>825.809</ele>
        <time>2022-08-24T14:30:32Z</time>
      </trkpt>
      <trkpt lat="42.950352999999964" lon="-1.464197999999996">
        <ele>826.084</ele>
        <time>2022-08-24T14:30:33Z</time>
      </trkpt>
      <trkpt lat="42.950352999999964" lon="-1.464197999999996">
        <ele>826.054</ele>
        <time>2022-08-24T14:30:34Z</time>
      </trkpt>
      <trkpt lat="42.950352999999964" lon="-1.464197999999996">
        <ele>826.034</ele>
        <time>2022-08-24T14:30:35Z</time>
      </trkpt>
      <trkpt lat="42.95034899999997" lon="-1.464169999999996">
        <ele>826.240</ele>
        <time>2022-08-24T14:30:36Z</time>
      </trkpt>
      <trkpt lat="42.950346999999965" lon="-1.464147999999996">
        <ele>826.242</ele>
        <time>2022-08-24T14:30:37Z</time>
      </trkpt>
      <trkpt lat="42.950346999999965" lon="-1.464144999999996">
        <ele>826.249</ele>
        <time>2022-08-24T14:30:38Z</time>
      </trkpt>
      <trkpt lat="42.950346999999965" lon="-1.464144999999996">
        <ele>826.422</ele>
        <time>2022-08-24T14:30:39Z</time>
      </trkpt>
      <trkpt lat="42.950341999999964" lon="-1.464119999999996">
        <ele>826.426</ele>
        <time>2022-08-24T14:30:41Z</time>
      </trkpt>
      <trkpt lat="42.950318999999965" lon="-1.4641079999999962">
        <ele>826.445</ele>
        <time>2022-08-24T14:30:42Z</time>
      </trkpt>
      <trkpt lat="42.95031799999997" lon="-1.4641059999999961">
        <ele>826.465</ele>
        <time>2022-08-24T14:30:43Z</time>
      </trkpt>
      <trkpt lat="42.950318999999965" lon="-1.4640919999999962">
        <ele>826.668</ele>
        <time>2022-08-24T14:30:44Z</time>
      </trkpt>
      <trkpt lat="42.95030299999996" lon="-1.4640559999999962">
        <ele>826.614</ele>
        <time>2022-08-24T14:30:47Z</time>
      </trkpt>
      <trkpt lat="42.95030299999996" lon="-1.4640369999999963">
        <ele>826.809</ele>
        <time>2022-08-24T14:30:48Z</time>
      </trkpt>
      <trkpt lat="42.950301999999965" lon="-1.4640329999999964">
        <ele>826.837</ele>
        <time>2022-08-24T14:30:49Z</time>
      </trkpt>
      <trkpt lat="42.950293999999964" lon="-1.4640239999999964">
        <ele>826.867</ele>
        <time>2022-08-24T14:30:50Z</time>
      </trkpt>
      <trkpt lat="42.95027599999997" lon="-1.4640119999999965">
        <ele>826.867</ele>
        <time>2022-08-24T14:30:51Z</time>
      </trkpt>
      <trkpt lat="42.95025899999997" lon="-1.4639879999999965">
        <ele>827.093</ele>
        <time>2022-08-24T14:30:52Z</time>
      </trkpt>
      <trkpt lat="42.950250999999966" lon="-1.4639669999999965">
        <ele>827.015</ele>
        <time>2022-08-24T14:30:53Z</time>
      </trkpt>
      <trkpt lat="42.950253999999966" lon="-1.4639559999999965">
        <ele>827.092</ele>
        <time>2022-08-24T14:30:54Z</time>
      </trkpt>
      <trkpt lat="42.95024399999996" lon="-1.4639399999999965">
        <ele>827.225</ele>
        <time>2022-08-24T14:30:59Z</time>
      </trkpt>
      <trkpt lat="42.95024099999996" lon="-1.4639319999999965">
        <ele>827.289</ele>
        <time>2022-08-24T14:31:00Z</time>
      </trkpt>
      <trkpt lat="42.950239999999965" lon="-1.4639279999999966">
        <ele>827.488</ele>
        <time>2022-08-24T14:31:01Z</time>
      </trkpt>
      <trkpt lat="42.95023099999997" lon="-1.4638739999999966">
        <ele>827.861</ele>
        <time>2022-08-24T14:31:05Z</time>
      </trkpt>
      <trkpt lat="42.950231999999964" lon="-1.4638609999999965">
        <ele>827.821</ele>
        <time>2022-08-24T14:31:06Z</time>
      </trkpt>
      <trkpt lat="42.950231999999964" lon="-1.4638539999999964">
        <ele>828.013</ele>
        <time>2022-08-24T14:31:07Z</time>
      </trkpt>
      <trkpt lat="42.950233999999966" lon="-1.4638429999999965">
        <ele>828.009</ele>
        <time>2022-08-24T14:31:08Z</time>
      </trkpt>
      <trkpt lat="42.95023599999997" lon="-1.4638399999999965">
        <ele>828.277</ele>
        <time>2022-08-24T14:31:09Z</time>
      </trkpt>
      <trkpt lat="42.95023599999997" lon="-1.4638399999999965">
        <ele>828.257</ele>
        <time>2022-08-24T14:31:10Z</time>
      </trkpt>
      <trkpt lat="42.95022099999997" lon="-1.4638339999999965">
        <ele>828.417</ele>
        <time>2022-08-24T14:31:11Z</time>
      </trkpt>
      <trkpt lat="42.95021999999997" lon="-1.4638309999999966">
        <ele>828.463</ele>
        <time>2022-08-24T14:31:12Z</time>
      </trkpt>
      <trkpt lat="42.95021999999997" lon="-1.4638309999999966">
        <ele>828.425</ele>
        <time>2022-08-24T14:31:13Z</time>
      </trkpt>
      <trkpt lat="42.950218999999976" lon="-1.4638269999999967">
        <ele>828.662</ele>
        <time>2022-08-24T14:31:14Z</time>
      </trkpt>
      <trkpt lat="42.95021799999998" lon="-1.4638239999999967">
        <ele>828.645</ele>
        <time>2022-08-24T14:31:15Z</time>
      </trkpt>
      <trkpt lat="42.95021499999998" lon="-1.4638159999999967">
        <ele>828.889</ele>
        <time>2022-08-24T14:31:17Z</time>
      </trkpt>
      <trkpt lat="42.95021399999998" lon="-1.4638059999999966">
        <ele>828.868</ele>
        <time>2022-08-24T14:31:18Z</time>
      </trkpt>
      <trkpt lat="42.95021499999998" lon="-1.4638019999999967">
        <ele>828.857</ele>
        <time>2022-08-24T14:31:19Z</time>
      </trkpt>
      <trkpt lat="42.95021499999998" lon="-1.4638019999999967">
        <ele>829.000</ele>
        <time>2022-08-24T14:31:20Z</time>
      </trkpt>
      <trkpt lat="42.95021499999998" lon="-1.4638019999999967">
        <ele>829.420</ele>
        <time>2022-08-24T14:31:25Z</time>
      </trkpt>
      <trkpt lat="42.95021499999998" lon="-1.4638019999999967">
        <ele>829.809</ele>
        <time>2022-08-24T14:31:29Z</time>
      </trkpt>
      <trkpt lat="42.95021499999998" lon="-1.4638019999999967">
        <ele>829.836</ele>
        <time>2022-08-24T14:31:30Z</time>
      </trkpt>
      <trkpt lat="42.95021399999998" lon="-1.4637939999999967">
        <ele>830.446</ele>
        <time>2022-08-24T14:31:36Z</time>
      </trkpt>
      <trkpt lat="42.95021399999998" lon="-1.4637789999999966">
        <ele>830.686</ele>
        <time>2022-08-24T14:31:37Z</time>
      </trkpt>
      <trkpt lat="42.95021399999998" lon="-1.4637789999999966">
        <ele>830.652</ele>
        <time>2022-08-24T14:31:38Z</time>
      </trkpt>
      <trkpt lat="42.95021199999998" lon="-1.4637699999999967">
        <ele>830.684</ele>
        <time>2022-08-24T14:31:39Z</time>
      </trkpt>
      <trkpt lat="42.950201999999976" lon="-1.4637579999999968">
        <ele>830.821</ele>
        <time>2022-08-24T14:31:42Z</time>
      </trkpt>
      <trkpt lat="42.950201999999976" lon="-1.4637579999999968">
        <ele>830.844</ele>
        <time>2022-08-24T14:31:43Z</time>
      </trkpt>
      <trkpt lat="42.950185999999974" lon="-1.4637479999999967">
        <ele>831.218</ele>
        <time>2022-08-24T14:31:47Z</time>
      </trkpt>
      <trkpt lat="42.950185999999974" lon="-1.4637479999999967">
        <ele>831.287</ele>
        <time>2022-08-24T14:31:48Z</time>
      </trkpt>
      <trkpt lat="42.95017499999997" lon="-1.4637469999999968">
        <ele>831.454</ele>
        <time>2022-08-24T14:31:53Z</time>
      </trkpt>
      <trkpt lat="42.950123999999974" lon="-1.4637469999999968">
        <ele>832.256</ele>
        <time>2022-08-24T14:32:01Z</time>
      </trkpt>
      <trkpt lat="42.95012299999998" lon="-1.4637469999999968">
        <ele>832.211</ele>
        <time>2022-08-24T14:32:02Z</time>
      </trkpt>
      <trkpt lat="42.95012299999998" lon="-1.4637469999999968">
        <ele>832.409</ele>
        <time>2022-08-24T14:32:03Z</time>
      </trkpt>
      <trkpt lat="42.95012199999998" lon="-1.4637489999999969">
        <ele>832.436</ele>
        <time>2022-08-24T14:32:04Z</time>
      </trkpt>
      <trkpt lat="42.95011499999998" lon="-1.4637549999999968">
        <ele>832.836</ele>
        <time>2022-08-24T14:32:06Z</time>
      </trkpt>
      <trkpt lat="42.95011499999998" lon="-1.4637549999999968">
        <ele>832.826</ele>
        <time>2022-08-24T14:32:07Z</time>
      </trkpt>
      <trkpt lat="42.95010499999998" lon="-1.4637569999999969">
        <ele>833.052</ele>
        <time>2022-08-24T14:32:08Z</time>
      </trkpt>
      <trkpt lat="42.95010499999998" lon="-1.4637569999999969">
        <ele>833.064</ele>
        <time>2022-08-24T14:32:09Z</time>
      </trkpt>
      <trkpt lat="42.95008699999998" lon="-1.463769999999997">
        <ele>833.261</ele>
        <time>2022-08-24T14:32:12Z</time>
      </trkpt>
      <trkpt lat="42.95008499999998" lon="-1.4637739999999968">
        <ele>833.224</ele>
        <time>2022-08-24T14:32:13Z</time>
      </trkpt>
      <trkpt lat="42.95008499999998" lon="-1.4637739999999968">
        <ele>833.278</ele>
        <time>2022-08-24T14:32:14Z</time>
      </trkpt>
      <trkpt lat="42.95008299999998" lon="-1.463780999999997">
        <ele>833.457</ele>
        <time>2022-08-24T14:32:15Z</time>
      </trkpt>
      <trkpt lat="42.95008199999998" lon="-1.4637849999999968">
        <ele>833.497</ele>
        <time>2022-08-24T14:32:16Z</time>
      </trkpt>
      <trkpt lat="42.95008099999998" lon="-1.4637869999999968">
        <ele>833.423</ele>
        <time>2022-08-24T14:32:17Z</time>
      </trkpt>
      <trkpt lat="42.95007599999998" lon="-1.463788999999997">
        <ele>833.425</ele>
        <time>2022-08-24T14:32:20Z</time>
      </trkpt>
      <trkpt lat="42.95006499999998" lon="-1.4637999999999969">
        <ele>833.809</ele>
        <time>2022-08-24T14:32:23Z</time>
      </trkpt>
      <trkpt lat="42.95006499999998" lon="-1.4637999999999969">
        <ele>833.810</ele>
        <time>2022-08-24T14:32:24Z</time>
      </trkpt>
      <trkpt lat="42.94999299999998" lon="-1.4638839999999969">
        <ele>834.250</ele>
        <time>2022-08-24T14:33:17Z</time>
      </trkpt>
      <trkpt lat="42.94998699999998" lon="-1.463906999999997">
        <ele>834.050</ele>
        <time>2022-08-24T14:33:19Z</time>
      </trkpt>
      <trkpt lat="42.949959999999976" lon="-1.463955999999997">
        <ele>834.016</ele>
        <time>2022-08-24T14:33:22Z</time>
      </trkpt>
      <trkpt lat="42.94995099999998" lon="-1.4639679999999968">
        <ele>834.048</ele>
        <time>2022-08-24T14:33:23Z</time>
      </trkpt>
      <trkpt lat="42.949940999999974" lon="-1.4639849999999968">
        <ele>834.015</ele>
        <time>2022-08-24T14:33:24Z</time>
      </trkpt>
      <trkpt lat="42.94992499999997" lon="-1.4640169999999968">
        <ele>834.238</ele>
        <time>2022-08-24T14:33:25Z</time>
      </trkpt>
      <trkpt lat="42.94988499999997" lon="-1.4641119999999967">
        <ele>834.462</ele>
        <time>2022-08-24T14:33:30Z</time>
      </trkpt>
      <trkpt lat="42.94986099999997" lon="-1.4641519999999968">
        <ele>834.681</ele>
        <time>2022-08-24T14:33:32Z</time>
      </trkpt>
      <trkpt lat="42.94986099999997" lon="-1.4641519999999968">
        <ele>834.849</ele>
        <time>2022-08-24T14:33:33Z</time>
      </trkpt>
      <trkpt lat="42.94985199999997" lon="-1.4641739999999968">
        <ele>835.002</ele>
        <time>2022-08-24T14:33:34Z</time>
      </trkpt>
      <trkpt lat="42.94979099999997" lon="-1.4643139999999968">
        <ele>835.822</ele>
        <time>2022-08-24T14:33:38Z</time>
      </trkpt>
      <trkpt lat="42.94978499999997" lon="-1.4643389999999967">
        <ele>836.009</ele>
        <time>2022-08-24T14:33:40Z</time>
      </trkpt>
      <trkpt lat="42.94975099999997" lon="-1.4644159999999968">
        <ele>836.445</ele>
        <time>2022-08-24T14:33:42Z</time>
      </trkpt>
      <trkpt lat="42.94974299999997" lon="-1.4644549999999967">
        <ele>836.655</ele>
        <time>2022-08-24T14:33:44Z</time>
      </trkpt>
      <trkpt lat="42.94972599999997" lon="-1.4644919999999968">
        <ele>836.865</ele>
        <time>2022-08-24T14:33:45Z</time>
      </trkpt>
      <trkpt lat="42.94972599999997" lon="-1.4644919999999968">
        <ele>836.821</ele>
        <time>2022-08-24T14:33:46Z</time>
      </trkpt>
      <trkpt lat="42.949732999999966" lon="-1.4645249999999967">
        <ele>837.073</ele>
        <time>2022-08-24T14:33:47Z</time>
      </trkpt>
      <trkpt lat="42.94972999999997" lon="-1.4645419999999967">
        <ele>837.250</ele>
        <time>2022-08-24T14:33:48Z</time>
      </trkpt>
      <trkpt lat="42.94972099999997" lon="-1.4645579999999967">
        <ele>837.423</ele>
        <time>2022-08-24T14:33:49Z</time>
      </trkpt>
      <trkpt lat="42.94971499999997" lon="-1.4645709999999967">
        <ele>837.657</ele>
        <time>2022-08-24T14:33:50Z</time>
      </trkpt>
      <trkpt lat="42.94970699999997" lon="-1.4645829999999966">
        <ele>837.836</ele>
        <time>2022-08-24T14:33:51Z</time>
      </trkpt>
      <trkpt lat="42.94969299999997" lon="-1.4645979999999967">
        <ele>837.869</ele>
        <time>2022-08-24T14:33:52Z</time>
      </trkpt>
      <trkpt lat="42.94968599999997" lon="-1.4646129999999968">
        <ele>838.004</ele>
        <time>2022-08-24T14:33:53Z</time>
      </trkpt>
      <trkpt lat="42.94968599999997" lon="-1.4646129999999968">
        <ele>838.024</ele>
        <time>2022-08-24T14:33:54Z</time>
      </trkpt>
      <trkpt lat="42.94968299999997" lon="-1.4646319999999968">
        <ele>838.009</ele>
        <time>2022-08-24T14:33:55Z</time>
      </trkpt>
      <trkpt lat="42.94966699999997" lon="-1.4646649999999968">
        <ele>837.887</ele>
        <time>2022-08-24T14:33:56Z</time>
      </trkpt>
      <trkpt lat="42.94965899999997" lon="-1.4646859999999968">
        <ele>837.877</ele>
        <time>2022-08-24T14:33:57Z</time>
      </trkpt>
      <trkpt lat="42.94964699999997" lon="-1.4647149999999969">
        <ele>837.817</ele>
        <time>2022-08-24T14:33:58Z</time>
      </trkpt>
      <trkpt lat="42.94963099999997" lon="-1.4647479999999968">
        <ele>838.083</ele>
        <time>2022-08-24T14:33:59Z</time>
      </trkpt>
      <trkpt lat="42.94960899999997" lon="-1.4647749999999968">
        <ele>838.055</ele>
        <time>2022-08-24T14:34:00Z</time>
      </trkpt>
      <trkpt lat="42.94958499999996" lon="-1.464808999999997">
        <ele>838.092</ele>
        <time>2022-08-24T14:34:01Z</time>
      </trkpt>
      <trkpt lat="42.94956899999996" lon="-1.464856999999997">
        <ele>838.075</ele>
        <time>2022-08-24T14:34:02Z</time>
      </trkpt>
      <trkpt lat="42.949553999999964" lon="-1.464892999999997">
        <ele>837.869</ele>
        <time>2022-08-24T14:34:03Z</time>
      </trkpt>
      <trkpt lat="42.94954099999996" lon="-1.464924999999997">
        <ele>837.858</ele>
        <time>2022-08-24T14:34:04Z</time>
      </trkpt>
      <trkpt lat="42.949536999999964" lon="-1.464959999999997">
        <ele>837.875</ele>
        <time>2022-08-24T14:34:05Z</time>
      </trkpt>
      <trkpt lat="42.949527999999965" lon="-1.465012999999997">
        <ele>837.828</ele>
        <time>2022-08-24T14:34:06Z</time>
      </trkpt>
      <trkpt lat="42.949516999999965" lon="-1.465067999999997">
        <ele>837.620</ele>
        <time>2022-08-24T14:34:07Z</time>
      </trkpt>
      <trkpt lat="42.949490999999966" lon="-1.4651739999999969">
        <ele>837.609</ele>
        <time>2022-08-24T14:34:09Z</time>
      </trkpt>
      <trkpt lat="42.949392999999965" lon="-1.465480999999997">
        <ele>837.048</ele>
        <time>2022-08-24T14:34:15Z</time>
      </trkpt>
      <trkpt lat="42.94937999999996" lon="-1.465564999999997">
        <ele>837.048</ele>
        <time>2022-08-24T14:34:17Z</time>
      </trkpt>
      <trkpt lat="42.949364999999965" lon="-1.4656039999999968">
        <ele>836.838</ele>
        <time>2022-08-24T14:34:18Z</time>
      </trkpt>
      <trkpt lat="42.94932099999996" lon="-1.4656719999999968">
        <ele>836.894</ele>
        <time>2022-08-24T14:34:20Z</time>
      </trkpt>
      <trkpt lat="42.94927999999996" lon="-1.4657079999999967">
        <ele>836.686</ele>
        <time>2022-08-24T14:34:21Z</time>
      </trkpt>
      <trkpt lat="42.94925899999996" lon="-1.4657519999999966">
        <ele>836.673</ele>
        <time>2022-08-24T14:34:22Z</time>
      </trkpt>
      <trkpt lat="42.949243999999965" lon="-1.4658089999999966">
        <ele>836.426</ele>
        <time>2022-08-24T14:34:23Z</time>
      </trkpt>
      <trkpt lat="42.94920799999996" lon="-1.4658729999999967">
        <ele>836.470</ele>
        <time>2022-08-24T14:34:25Z</time>
      </trkpt>
      <trkpt lat="42.94913899999996" lon="-1.4659339999999967">
        <ele>836.429</ele>
        <time>2022-08-24T14:34:27Z</time>
      </trkpt>
      <trkpt lat="42.94911299999996" lon="-1.4659719999999967">
        <ele>836.485</ele>
        <time>2022-08-24T14:34:28Z</time>
      </trkpt>
      <trkpt lat="42.94908799999996" lon="-1.4660089999999968">
        <ele>836.489</ele>
        <time>2022-08-24T14:34:29Z</time>
      </trkpt>
      <trkpt lat="42.94903199999996" lon="-1.4660879999999967">
        <ele>836.417</ele>
        <time>2022-08-24T14:34:31Z</time>
      </trkpt>
      <trkpt lat="42.94900799999996" lon="-1.4661259999999967">
        <ele>836.409</ele>
        <time>2022-08-24T14:34:32Z</time>
      </trkpt>
      <trkpt lat="42.948960999999954" lon="-1.4661979999999968">
        <ele>836.419</ele>
        <time>2022-08-24T14:34:34Z</time>
      </trkpt>
      <trkpt lat="42.94890599999995" lon="-1.4662679999999968">
        <ele>836.439</ele>
        <time>2022-08-24T14:34:36Z</time>
      </trkpt>
      <trkpt lat="42.94888699999995" lon="-1.4663039999999967">
        <ele>836.439</ele>
        <time>2022-08-24T14:34:37Z</time>
      </trkpt>
      <trkpt lat="42.94886499999995" lon="-1.4663359999999968">
        <ele>836.065</ele>
        <time>2022-08-24T14:34:38Z</time>
      </trkpt>
      <trkpt lat="42.94883899999995" lon="-1.4663699999999968">
        <ele>835.897</ele>
        <time>2022-08-24T14:34:39Z</time>
      </trkpt>
      <trkpt lat="42.94881299999995" lon="-1.4664009999999967">
        <ele>835.664</ele>
        <time>2022-08-24T14:34:40Z</time>
      </trkpt>
      <trkpt lat="42.94870999999995" lon="-1.4664869999999968">
        <ele>835.047</ele>
        <time>2022-08-24T14:34:43Z</time>
      </trkpt>
      <trkpt lat="42.94867899999995" lon="-1.4665159999999968">
        <ele>834.651</ele>
        <time>2022-08-24T14:34:44Z</time>
      </trkpt>
      <trkpt lat="42.94865299999995" lon="-1.4665449999999969">
        <ele>834.280</ele>
        <time>2022-08-24T14:34:45Z</time>
      </trkpt>
      <trkpt lat="42.94860399999995" lon="-1.4666339999999969">
        <ele>834.082</ele>
        <time>2022-08-24T14:34:47Z</time>
      </trkpt>
      <trkpt lat="42.94857399999995" lon="-1.4666969999999968">
        <ele>834.043</ele>
        <time>2022-08-24T14:34:48Z</time>
      </trkpt>
      <trkpt lat="42.94855199999995" lon="-1.4667329999999967">
        <ele>834.017</ele>
        <time>2022-08-24T14:34:49Z</time>
      </trkpt>
      <trkpt lat="42.948527999999946" lon="-1.4667639999999966">
        <ele>834.009</ele>
        <time>2022-08-24T14:34:50Z</time>
      </trkpt>
      <trkpt lat="42.948466999999944" lon="-1.4668409999999967">
        <ele>834.049</ele>
        <time>2022-08-24T14:34:53Z</time>
      </trkpt>
      <trkpt lat="42.94843399999994" lon="-1.4668759999999967">
        <ele>834.289</ele>
        <time>2022-08-24T14:34:54Z</time>
      </trkpt>
      <trkpt lat="42.94836599999994" lon="-1.4669409999999967">
        <ele>834.249</ele>
        <time>2022-08-24T14:34:56Z</time>
      </trkpt>
      <trkpt lat="42.94828799999994" lon="-1.4669879999999966">
        <ele>834.225</ele>
        <time>2022-08-24T14:34:58Z</time>
      </trkpt>
      <trkpt lat="42.94824299999994" lon="-1.4670209999999966">
        <ele>834.227</ele>
        <time>2022-08-24T14:34:59Z</time>
      </trkpt>
      <trkpt lat="42.94821299999994" lon="-1.4670419999999966">
        <ele>834.264</ele>
        <time>2022-08-24T14:35:01Z</time>
      </trkpt>
      <trkpt lat="42.94811199999994" lon="-1.4670939999999966">
        <ele>834.037</ele>
        <time>2022-08-24T14:35:02Z</time>
      </trkpt>
      <trkpt lat="42.948056999999935" lon="-1.4671269999999965">
        <ele>834.091</ele>
        <time>2022-08-24T14:35:03Z</time>
      </trkpt>
      <trkpt lat="42.94801899999993" lon="-1.4671479999999966">
        <ele>833.830</ele>
        <time>2022-08-24T14:35:04Z</time>
      </trkpt>
      <trkpt lat="42.94798199999993" lon="-1.4671609999999966">
        <ele>833.662</ele>
        <time>2022-08-24T14:35:05Z</time>
      </trkpt>
      <trkpt lat="42.947960999999935" lon="-1.4671719999999966">
        <ele>833.283</ele>
        <time>2022-08-24T14:35:06Z</time>
      </trkpt>
      <trkpt lat="42.94793099999993" lon="-1.4671899999999967">
        <ele>833.211</ele>
        <time>2022-08-24T14:35:07Z</time>
      </trkpt>
      <trkpt lat="42.94790299999993" lon="-1.4671989999999966">
        <ele>833.009</ele>
        <time>2022-08-24T14:35:08Z</time>
      </trkpt>
      <trkpt lat="42.94787899999993" lon="-1.4672169999999967">
        <ele>833.057</ele>
        <time>2022-08-24T14:35:09Z</time>
      </trkpt>
      <trkpt lat="42.94774599999993" lon="-1.4672739999999966">
        <ele>832.837</ele>
        <time>2022-08-24T14:35:14Z</time>
      </trkpt>
      <trkpt lat="42.94772399999993" lon="-1.4672859999999965">
        <ele>832.667</ele>
        <time>2022-08-24T14:35:15Z</time>
      </trkpt>
      <trkpt lat="42.94770099999993" lon="-1.4672979999999964">
        <ele>832.443</ele>
        <time>2022-08-24T14:35:16Z</time>
      </trkpt>
      <trkpt lat="42.94761399999993" lon="-1.4673489999999965">
        <ele>831.025</ele>
        <time>2022-08-24T14:35:20Z</time>
      </trkpt>
      <trkpt lat="42.94758099999993" lon="-1.4673589999999965">
        <ele>831.092</ele>
        <time>2022-08-24T14:35:21Z</time>
      </trkpt>
      <trkpt lat="42.947539999999925" lon="-1.4673759999999965">
        <ele>830.295</ele>
        <time>2022-08-24T14:35:23Z</time>
      </trkpt>
      <trkpt lat="42.94752199999993" lon="-1.4673889999999965">
        <ele>830.079</ele>
        <time>2022-08-24T14:35:24Z</time>
      </trkpt>
      <trkpt lat="42.94750099999993" lon="-1.4674039999999966">
        <ele>829.868</ele>
        <time>2022-08-24T14:35:25Z</time>
      </trkpt>
      <trkpt lat="42.94748499999993" lon="-1.4674149999999966">
        <ele>829.464</ele>
        <time>2022-08-24T14:35:26Z</time>
      </trkpt>
      <trkpt lat="42.94748499999993" lon="-1.4674149999999966">
        <ele>829.206</ele>
        <time>2022-08-24T14:35:27Z</time>
      </trkpt>
      <trkpt lat="42.94738199999993" lon="-1.4674709999999966">
        <ele>828.616</ele>
        <time>2022-08-24T14:35:32Z</time>
      </trkpt>
      <trkpt lat="42.94735899999993" lon="-1.4674849999999966">
        <ele>828.409</ele>
        <time>2022-08-24T14:35:33Z</time>
      </trkpt>
      <trkpt lat="42.94733599999993" lon="-1.4675049999999965">
        <ele>828.297</ele>
        <time>2022-08-24T14:35:34Z</time>
      </trkpt>
      <trkpt lat="42.94727899999993" lon="-1.4675289999999965">
        <ele>828.097</ele>
        <time>2022-08-24T14:35:35Z</time>
      </trkpt>
      <trkpt lat="42.94724599999993" lon="-1.4675449999999965">
        <ele>827.237</ele>
        <time>2022-08-24T14:35:37Z</time>
      </trkpt>
      <trkpt lat="42.94721399999993" lon="-1.4675609999999966">
        <ele>827.253</ele>
        <time>2022-08-24T14:35:38Z</time>
      </trkpt>
      <trkpt lat="42.94718399999993" lon="-1.4675739999999966">
        <ele>826.815</ele>
        <time>2022-08-24T14:35:39Z</time>
      </trkpt>
      <trkpt lat="42.947125999999926" lon="-1.4675959999999966">
        <ele>826.422</ele>
        <time>2022-08-24T14:35:40Z</time>
      </trkpt>
      <trkpt lat="42.94709899999992" lon="-1.4676069999999966">
        <ele>826.285</ele>
        <time>2022-08-24T14:35:41Z</time>
      </trkpt>
      <trkpt lat="42.94709899999992" lon="-1.4676069999999966">
        <ele>826.049</ele>
        <time>2022-08-24T14:35:42Z</time>
      </trkpt>
      <trkpt lat="42.94686899999992" lon="-1.4676649999999964">
        <ele>825.648</ele>
        <time>2022-08-24T14:35:49Z</time>
      </trkpt>
      <trkpt lat="42.94679099999992" lon="-1.4676689999999963">
        <ele>825.468</ele>
        <time>2022-08-24T14:35:50Z</time>
      </trkpt>
      <trkpt lat="42.94671099999992" lon="-1.4676789999999964">
        <ele>825.242</ele>
        <time>2022-08-24T14:35:52Z</time>
      </trkpt>
      <trkpt lat="42.946644999999926" lon="-1.4677019999999965">
        <ele>824.826</ele>
        <time>2022-08-24T14:35:54Z</time>
      </trkpt>
      <trkpt lat="42.94655099999993" lon="-1.4677449999999965">
        <ele>824.609</ele>
        <time>2022-08-24T14:35:57Z</time>
      </trkpt>
      <trkpt lat="42.94652199999993" lon="-1.4677579999999966">
        <ele>824.457</ele>
        <time>2022-08-24T14:35:59Z</time>
      </trkpt>
      <trkpt lat="42.94646799999993" lon="-1.4677849999999966">
        <ele>824.247</ele>
        <time>2022-08-24T14:36:00Z</time>
      </trkpt>
      <trkpt lat="42.94646799999993" lon="-1.4677849999999966">
        <ele>824.037</ele>
        <time>2022-08-24T14:36:01Z</time>
      </trkpt>
      <trkpt lat="42.94639199999993" lon="-1.4678139999999966">
        <ele>824.033</ele>
        <time>2022-08-24T14:36:02Z</time>
      </trkpt>
      <trkpt lat="42.94639199999993" lon="-1.4678139999999966">
        <ele>824.055</ele>
        <time>2022-08-24T14:36:03Z</time>
      </trkpt>
      <trkpt lat="42.94635299999993" lon="-1.4678279999999966">
        <ele>824.082</ele>
        <time>2022-08-24T14:36:04Z</time>
      </trkpt>
      <trkpt lat="42.94631699999993" lon="-1.4678429999999967">
        <ele>823.875</ele>
        <time>2022-08-24T14:36:05Z</time>
      </trkpt>
      <trkpt lat="42.94625099999993" lon="-1.4678769999999968">
        <ele>823.649</ele>
        <time>2022-08-24T14:36:06Z</time>
      </trkpt>
      <trkpt lat="42.94622099999993" lon="-1.4678899999999968">
        <ele>823.668</ele>
        <time>2022-08-24T14:36:07Z</time>
      </trkpt>
      <trkpt lat="42.94622099999993" lon="-1.4678899999999968">
        <ele>823.282</ele>
        <time>2022-08-24T14:36:08Z</time>
      </trkpt>
      <trkpt lat="42.94619999999993" lon="-1.467896999999997">
        <ele>823.243</ele>
        <time>2022-08-24T14:36:09Z</time>
      </trkpt>
      <trkpt lat="42.946151999999934" lon="-1.4679029999999968">
        <ele>823.017</ele>
        <time>2022-08-24T14:36:10Z</time>
      </trkpt>
      <trkpt lat="42.94613099999994" lon="-1.4678999999999969">
        <ele>822.809</ele>
        <time>2022-08-24T14:36:11Z</time>
      </trkpt>
      <trkpt lat="42.94607899999994" lon="-1.4679169999999968">
        <ele>821.839</ele>
        <time>2022-08-24T14:36:14Z</time>
      </trkpt>
      <trkpt lat="42.946057999999944" lon="-1.4679269999999969">
        <ele>821.469</ele>
        <time>2022-08-24T14:36:15Z</time>
      </trkpt>
      <trkpt lat="42.946011999999946" lon="-1.467933999999997">
        <ele>821.239</ele>
        <time>2022-08-24T14:36:16Z</time>
      </trkpt>
      <trkpt lat="42.946011999999946" lon="-1.467933999999997">
        <ele>821.055</ele>
        <time>2022-08-24T14:36:17Z</time>
      </trkpt>
      <trkpt lat="42.94598099999995" lon="-1.4679349999999969">
        <ele>820.827</ele>
        <time>2022-08-24T14:36:18Z</time>
      </trkpt>
      <trkpt lat="42.94598099999995" lon="-1.4679349999999969">
        <ele>820.464</ele>
        <time>2022-08-24T14:36:19Z</time>
      </trkpt>
      <trkpt lat="42.945941999999945" lon="-1.467942999999997">
        <ele>819.637</ele>
        <time>2022-08-24T14:36:21Z</time>
      </trkpt>
      <trkpt lat="42.94591899999995" lon="-1.4679379999999969">
        <ele>819.051</ele>
        <time>2022-08-24T14:36:22Z</time>
      </trkpt>
      <trkpt lat="42.94583599999995" lon="-1.4679579999999968">
        <ele>818.280</ele>
        <time>2022-08-24T14:36:26Z</time>
      </trkpt>
      <trkpt lat="42.94579799999995" lon="-1.4679589999999967">
        <ele>817.879</ele>
        <time>2022-08-24T14:36:27Z</time>
      </trkpt>
      <trkpt lat="42.94577799999995" lon="-1.4679559999999967">
        <ele>817.405</ele>
        <time>2022-08-24T14:36:29Z</time>
      </trkpt>
      <trkpt lat="42.94568399999995" lon="-1.4679679999999966">
        <ele>816.825</ele>
        <time>2022-08-24T14:36:32Z</time>
      </trkpt>
      <trkpt lat="42.94566099999995" lon="-1.4679819999999966">
        <ele>816.809</ele>
        <time>2022-08-24T14:36:33Z</time>
      </trkpt>
      <trkpt lat="42.94564399999995" lon="-1.4679949999999966">
        <ele>816.238</ele>
        <time>2022-08-24T14:36:34Z</time>
      </trkpt>
      <trkpt lat="42.94563099999995" lon="-1.4680129999999967">
        <ele>816.048</ele>
        <time>2022-08-24T14:36:35Z</time>
      </trkpt>
      <trkpt lat="42.94563099999995" lon="-1.4680129999999967">
        <ele>815.468</ele>
        <time>2022-08-24T14:36:36Z</time>
      </trkpt>
      <trkpt lat="42.94560299999995" lon="-1.4680659999999968">
        <ele>815.244</ele>
        <time>2022-08-24T14:36:37Z</time>
      </trkpt>
      <trkpt lat="42.94558299999995" lon="-1.4680949999999968">
        <ele>814.856</ele>
        <time>2022-08-24T14:36:38Z</time>
      </trkpt>
      <trkpt lat="42.94556599999995" lon="-1.4681319999999969">
        <ele>814.673</ele>
        <time>2022-08-24T14:36:39Z</time>
      </trkpt>
      <trkpt lat="42.94554899999995" lon="-1.468166999999997">
        <ele>814.256</ele>
        <time>2022-08-24T14:36:41Z</time>
      </trkpt>
      <trkpt lat="42.94553699999995" lon="-1.4682029999999968">
        <ele>814.220</ele>
        <time>2022-08-24T14:36:42Z</time>
      </trkpt>
      <trkpt lat="42.94549699999995" lon="-1.4682649999999968">
        <ele>814.259</ele>
        <time>2022-08-24T14:36:43Z</time>
      </trkpt>
      <trkpt lat="42.945422999999955" lon="-1.4683499999999967">
        <ele>813.473</ele>
        <time>2022-08-24T14:36:46Z</time>
      </trkpt>
      <trkpt lat="42.945422999999955" lon="-1.4683499999999967">
        <ele>813.285</ele>
        <time>2022-08-24T14:36:47Z</time>
      </trkpt>
      <trkpt lat="42.94536899999996" lon="-1.4684049999999966">
        <ele>812.813</ele>
        <time>2022-08-24T14:36:48Z</time>
      </trkpt>
      <trkpt lat="42.94530299999996" lon="-1.4684659999999967">
        <ele>812.009</ele>
        <time>2022-08-24T14:36:51Z</time>
      </trkpt>
      <trkpt lat="42.94527699999996" lon="-1.4684889999999968">
        <ele>811.698</ele>
        <time>2022-08-24T14:36:52Z</time>
      </trkpt>
      <trkpt lat="42.94518499999996" lon="-1.4685729999999968">
        <ele>810.868</ele>
        <time>2022-08-24T14:36:54Z</time>
      </trkpt>
      <trkpt lat="42.94494899999996" lon="-1.4687089999999967">
        <ele>809.658</ele>
        <time>2022-08-24T14:37:00Z</time>
      </trkpt>
      <trkpt lat="42.94486799999996" lon="-1.4687579999999967">
        <ele>809.434</ele>
        <time>2022-08-24T14:37:02Z</time>
      </trkpt>
      <trkpt lat="42.94486799999996" lon="-1.4687579999999967">
        <ele>809.236</ele>
        <time>2022-08-24T14:37:03Z</time>
      </trkpt>
      <trkpt lat="42.94470199999996" lon="-1.4688719999999966">
        <ele>808.873</ele>
        <time>2022-08-24T14:37:06Z</time>
      </trkpt>
      <trkpt lat="42.94470199999996" lon="-1.4688719999999966">
        <ele>808.476</ele>
        <time>2022-08-24T14:37:07Z</time>
      </trkpt>
      <trkpt lat="42.944626999999954" lon="-1.4689279999999967">
        <ele>808.220</ele>
        <time>2022-08-24T14:37:08Z</time>
      </trkpt>
      <trkpt lat="42.94450199999996" lon="-1.4689979999999967">
        <ele>808.049</ele>
        <time>2022-08-24T14:37:11Z</time>
      </trkpt>
      <trkpt lat="42.94445899999996" lon="-1.4690169999999967">
        <ele>808.077</ele>
        <time>2022-08-24T14:37:12Z</time>
      </trkpt>
      <trkpt lat="42.94436699999996" lon="-1.4690609999999966">
        <ele>807.461</ele>
        <time>2022-08-24T14:37:14Z</time>
      </trkpt>
      <trkpt lat="42.94431899999996" lon="-1.4690799999999966">
        <ele>807.427</ele>
        <time>2022-08-24T14:37:15Z</time>
      </trkpt>
      <trkpt lat="42.94421699999996" lon="-1.4691229999999966">
        <ele>807.009</ele>
        <time>2022-08-24T14:37:17Z</time>
      </trkpt>
      <trkpt lat="42.94386599999996" lon="-1.4692179999999966">
        <ele>806.438</ele>
        <time>2022-08-24T14:37:23Z</time>
      </trkpt>
      <trkpt lat="42.94381399999996" lon="-1.4692359999999967">
        <ele>806.218</ele>
        <time>2022-08-24T14:37:24Z</time>
      </trkpt>
      <trkpt lat="42.94381399999996" lon="-1.4692359999999967">
        <ele>806.228</ele>
        <time>2022-08-24T14:37:25Z</time>
      </trkpt>
      <trkpt lat="42.943716999999964" lon="-1.4692939999999965">
        <ele>806.234</ele>
        <time>2022-08-24T14:37:26Z</time>
      </trkpt>
      <trkpt lat="42.94366799999997" lon="-1.4693189999999965">
        <ele>806.446</ele>
        <time>2022-08-24T14:37:27Z</time>
      </trkpt>
      <trkpt lat="42.94361699999997" lon="-1.4693329999999964">
        <ele>806.433</ele>
        <time>2022-08-24T14:37:28Z</time>
      </trkpt>
      <trkpt lat="42.943569999999966" lon="-1.4693479999999965">
        <ele>806.696</ele>
        <time>2022-08-24T14:37:29Z</time>
      </trkpt>
      <trkpt lat="42.94352399999997" lon="-1.4693579999999966">
        <ele>806.210</ele>
        <time>2022-08-24T14:37:30Z</time>
      </trkpt>
      <trkpt lat="42.943482999999965" lon="-1.4693699999999965">
        <ele>806.239</ele>
        <time>2022-08-24T14:37:31Z</time>
      </trkpt>
      <trkpt lat="42.943443999999964" lon="-1.4693819999999964">
        <ele>806.249</ele>
        <time>2022-08-24T14:37:32Z</time>
      </trkpt>
      <trkpt lat="42.94340799999996" lon="-1.4694009999999964">
        <ele>806.402</ele>
        <time>2022-08-24T14:37:33Z</time>
      </trkpt>
      <trkpt lat="42.94321699999996" lon="-1.4695419999999964">
        <ele>806.022</ele>
        <time>2022-08-24T14:37:38Z</time>
      </trkpt>
      <trkpt lat="42.94307599999996" lon="-1.4696139999999964">
        <ele>805.609</ele>
        <time>2022-08-24T14:37:40Z</time>
      </trkpt>
      <trkpt lat="42.94307599999996" lon="-1.4696139999999964">
        <ele>805.695</ele>
        <time>2022-08-24T14:37:41Z</time>
      </trkpt>
      <trkpt lat="42.94297799999996" lon="-1.4696599999999964">
        <ele>805.655</ele>
        <time>2022-08-24T14:37:42Z</time>
      </trkpt>
      <trkpt lat="42.94297799999996" lon="-1.4696599999999964">
        <ele>805.695</ele>
        <time>2022-08-24T14:37:43Z</time>
      </trkpt>
      <trkpt lat="42.94293199999996" lon="-1.4696879999999963">
        <ele>805.691</ele>
        <time>2022-08-24T14:37:44Z</time>
      </trkpt>
      <trkpt lat="42.94284199999996" lon="-1.4697489999999964">
        <ele>805.433</ele>
        <time>2022-08-24T14:37:45Z</time>
      </trkpt>
      <trkpt lat="42.94279999999996" lon="-1.4697759999999964">
        <ele>805.420</ele>
        <time>2022-08-24T14:37:46Z</time>
      </trkpt>
      <trkpt lat="42.942759999999964" lon="-1.4698039999999963">
        <ele>805.473</ele>
        <time>2022-08-24T14:37:47Z</time>
      </trkpt>
      <trkpt lat="42.94272199999996" lon="-1.4698279999999964">
        <ele>805.477</ele>
        <time>2022-08-24T14:37:48Z</time>
      </trkpt>
      <trkpt lat="42.94268299999996" lon="-1.4698509999999965">
        <ele>805.426</ele>
        <time>2022-08-24T14:37:50Z</time>
      </trkpt>
      <trkpt lat="42.94249799999996" lon="-1.4699819999999966">
        <ele>804.821</ele>
        <time>2022-08-24T14:37:53Z</time>
      </trkpt>
      <trkpt lat="42.94244399999996" lon="-1.4700359999999966">
        <ele>804.641</ele>
        <time>2022-08-24T14:37:55Z</time>
      </trkpt>
      <trkpt lat="42.94236199999996" lon="-1.4701109999999966">
        <ele>804.605</ele>
        <time>2022-08-24T14:37:56Z</time>
      </trkpt>
      <trkpt lat="42.94232799999996" lon="-1.4701329999999966">
        <ele>804.409</ele>
        <time>2022-08-24T14:37:57Z</time>
      </trkpt>
      <trkpt lat="42.94232799999996" lon="-1.4701329999999966">
        <ele>804.273</ele>
        <time>2022-08-24T14:37:58Z</time>
      </trkpt>
      <trkpt lat="42.94229899999996" lon="-1.4701559999999967">
        <ele>804.023</ele>
        <time>2022-08-24T14:37:59Z</time>
      </trkpt>
      <trkpt lat="42.94222299999996" lon="-1.4702429999999966">
        <ele>802.253</ele>
        <time>2022-08-24T14:38:02Z</time>
      </trkpt>
      <trkpt lat="42.94219499999996" lon="-1.4702719999999967">
        <ele>802.039</ele>
        <time>2022-08-24T14:38:03Z</time>
      </trkpt>
      <trkpt lat="42.94216099999996" lon="-1.4702999999999966">
        <ele>801.621</ele>
        <time>2022-08-24T14:38:04Z</time>
      </trkpt>
      <trkpt lat="42.94213399999996" lon="-1.4703119999999965">
        <ele>801.288</ele>
        <time>2022-08-24T14:38:05Z</time>
      </trkpt>
      <trkpt lat="42.94207099999996" lon="-1.4703489999999966">
        <ele>800.861</ele>
        <time>2022-08-24T14:38:06Z</time>
      </trkpt>
      <trkpt lat="42.942044999999965" lon="-1.4703699999999966">
        <ele>800.425</ele>
        <time>2022-08-24T14:38:07Z</time>
      </trkpt>
      <trkpt lat="42.942021999999966" lon="-1.4703899999999965">
        <ele>800.064</ele>
        <time>2022-08-24T14:38:08Z</time>
      </trkpt>
      <trkpt lat="42.942021999999966" lon="-1.4703899999999965">
        <ele>799.887</ele>
        <time>2022-08-24T14:38:09Z</time>
      </trkpt>
      <trkpt lat="42.941943999999964" lon="-1.4704249999999965">
        <ele>799.242</ele>
        <time>2022-08-24T14:38:11Z</time>
      </trkpt>
      <trkpt lat="42.941943999999964" lon="-1.4704249999999965">
        <ele>799.226</ele>
        <time>2022-08-24T14:38:12Z</time>
      </trkpt>
      <trkpt lat="42.94189099999996" lon="-1.4704159999999966">
        <ele>798.809</ele>
        <time>2022-08-24T14:38:13Z</time>
      </trkpt>
      <trkpt lat="42.94186099999996" lon="-1.4704099999999967">
        <ele>798.059</ele>
        <time>2022-08-24T14:38:15Z</time>
      </trkpt>
      <trkpt lat="42.94180199999996" lon="-1.4704069999999967">
        <ele>797.639</ele>
        <time>2022-08-24T14:38:16Z</time>
      </trkpt>
      <trkpt lat="42.94177499999996" lon="-1.4704099999999967">
        <ele>797.639</ele>
        <time>2022-08-24T14:38:17Z</time>
      </trkpt>
      <trkpt lat="42.941749999999956" lon="-1.4704169999999968">
        <ele>797.065</ele>
        <time>2022-08-24T14:38:18Z</time>
      </trkpt>
      <trkpt lat="42.94172599999995" lon="-1.4704279999999967">
        <ele>796.857</ele>
        <time>2022-08-24T14:38:19Z</time>
      </trkpt>
      <trkpt lat="42.94170399999995" lon="-1.4704419999999967">
        <ele>796.464</ele>
        <time>2022-08-24T14:38:20Z</time>
      </trkpt>
      <trkpt lat="42.94168499999995" lon="-1.4704539999999966">
        <ele>796.067</ele>
        <time>2022-08-24T14:38:21Z</time>
      </trkpt>
      <trkpt lat="42.94166899999995" lon="-1.4704649999999966">
        <ele>795.871</ele>
        <time>2022-08-24T14:38:22Z</time>
      </trkpt>
      <trkpt lat="42.94165699999995" lon="-1.4704749999999966">
        <ele>795.430</ele>
        <time>2022-08-24T14:38:23Z</time>
      </trkpt>
      <trkpt lat="42.94164899999995" lon="-1.4704799999999967">
        <ele>795.287</ele>
        <time>2022-08-24T14:38:24Z</time>
      </trkpt>
      <trkpt lat="42.941621999999946" lon="-1.4705169999999967">
        <ele>794.042</ele>
        <time>2022-08-24T14:39:09Z</time>
      </trkpt>
      <trkpt lat="42.941557999999944" lon="-1.4705899999999967">
        <ele>794.226</ele>
        <time>2022-08-24T14:39:12Z</time>
      </trkpt>
      <trkpt lat="42.941404999999946" lon="-1.4706959999999967">
        <ele>794.409</ele>
        <time>2022-08-24T14:39:18Z</time>
      </trkpt>
      <trkpt lat="42.941382999999945" lon="-1.4707159999999966">
        <ele>794.489</ele>
        <time>2022-08-24T14:39:19Z</time>
      </trkpt>
      <trkpt lat="42.94125499999995" lon="-1.4708099999999966">
        <ele>794.459</ele>
        <time>2022-08-24T14:39:24Z</time>
      </trkpt>
      <trkpt lat="42.94122899999995" lon="-1.4708229999999967">
        <ele>794.469</ele>
        <time>2022-08-24T14:39:25Z</time>
      </trkpt>
      <trkpt lat="42.94120399999995" lon="-1.4708329999999967">
        <ele>794.485</ele>
        <time>2022-08-24T14:39:26Z</time>
      </trkpt>
      <trkpt lat="42.94117899999995" lon="-1.4708449999999966">
        <ele>794.437</ele>
        <time>2022-08-24T14:39:27Z</time>
      </trkpt>
      <trkpt lat="42.941154999999945" lon="-1.4708569999999965">
        <ele>794.664</ele>
        <time>2022-08-24T14:39:28Z</time>
      </trkpt>
      <trkpt lat="42.94112899999995" lon="-1.4708679999999965">
        <ele>794.697</ele>
        <time>2022-08-24T14:39:29Z</time>
      </trkpt>
      <trkpt lat="42.940996999999946" lon="-1.4709479999999966">
        <ele>794.831</ele>
        <time>2022-08-24T14:39:34Z</time>
      </trkpt>
      <trkpt lat="42.940949999999944" lon="-1.4709679999999965">
        <ele>794.870</ele>
        <time>2022-08-24T14:39:36Z</time>
      </trkpt>
      <trkpt lat="42.94092899999995" lon="-1.4709699999999966">
        <ele>795.075</ele>
        <time>2022-08-24T14:39:37Z</time>
      </trkpt>
      <trkpt lat="42.94090799999995" lon="-1.4709779999999966">
        <ele>795.028</ele>
        <time>2022-08-24T14:39:38Z</time>
      </trkpt>
      <trkpt lat="42.940886999999954" lon="-1.4709899999999965">
        <ele>795.220</ele>
        <time>2022-08-24T14:39:39Z</time>
      </trkpt>
      <trkpt lat="42.94084599999995" lon="-1.4710239999999966">
        <ele>795.409</ele>
        <time>2022-08-24T14:39:41Z</time>
      </trkpt>
      <trkpt lat="42.94082399999995" lon="-1.4710419999999966">
        <ele>795.428</ele>
        <time>2022-08-24T14:39:42Z</time>
      </trkpt>
      <trkpt lat="42.94079799999995" lon="-1.4710599999999967">
        <ele>795.448</ele>
        <time>2022-08-24T14:39:43Z</time>
      </trkpt>
      <trkpt lat="42.94077099999995" lon="-1.4710739999999967">
        <ele>795.438</ele>
        <time>2022-08-24T14:39:44Z</time>
      </trkpt>
      <trkpt lat="42.94074999999995" lon="-1.4710839999999967">
        <ele>795.454</ele>
        <time>2022-08-24T14:39:45Z</time>
      </trkpt>
      <trkpt lat="42.940613999999954" lon="-1.4711419999999966">
        <ele>795.286</ele>
        <time>2022-08-24T14:39:49Z</time>
      </trkpt>
      <trkpt lat="42.94057599999995" lon="-1.4711549999999967">
        <ele>795.263</ele>
        <time>2022-08-24T14:39:50Z</time>
      </trkpt>
      <trkpt lat="42.94054699999995" lon="-1.4711669999999966">
        <ele>794.846</ele>
        <time>2022-08-24T14:39:51Z</time>
      </trkpt>
      <trkpt lat="42.940520999999954" lon="-1.4711819999999967">
        <ele>794.660</ele>
        <time>2022-08-24T14:39:52Z</time>
      </trkpt>
      <trkpt lat="42.940494999999956" lon="-1.4711989999999966">
        <ele>794.449</ele>
        <time>2022-08-24T14:39:53Z</time>
      </trkpt>
      <trkpt lat="42.940461999999954" lon="-1.4712169999999967">
        <ele>794.062</ele>
        <time>2022-08-24T14:39:54Z</time>
      </trkpt>
      <trkpt lat="42.94042999999996" lon="-1.4712329999999967">
        <ele>793.083</ele>
        <time>2022-08-24T14:39:55Z</time>
      </trkpt>
      <trkpt lat="42.94040699999996" lon="-1.4712439999999967">
        <ele>792.411</ele>
        <time>2022-08-24T14:39:56Z</time>
      </trkpt>
      <trkpt lat="42.940356999999956" lon="-1.4712619999999967">
        <ele>791.809</ele>
        <time>2022-08-24T14:39:58Z</time>
      </trkpt>
      <trkpt lat="42.940281999999954" lon="-1.4712989999999968">
        <ele>791.257</ele>
        <time>2022-08-24T14:40:00Z</time>
      </trkpt>
      <trkpt lat="42.940188999999954" lon="-1.471340999999997">
        <ele>790.647</ele>
        <time>2022-08-24T14:40:02Z</time>
      </trkpt>
      <trkpt lat="42.940109999999954" lon="-1.471391999999997">
        <ele>789.667</ele>
        <time>2022-08-24T14:40:04Z</time>
      </trkpt>
      <trkpt lat="42.94008799999995" lon="-1.471412999999997">
        <ele>789.033</ele>
        <time>2022-08-24T14:40:05Z</time>
      </trkpt>
      <trkpt lat="42.940067999999954" lon="-1.471437999999997">
        <ele>788.475</ele>
        <time>2022-08-24T14:40:06Z</time>
      </trkpt>
      <trkpt lat="42.940044999999955" lon="-1.471469999999997">
        <ele>787.422</ele>
        <time>2022-08-24T14:40:07Z</time>
      </trkpt>
      <trkpt lat="42.94001299999996" lon="-1.471506999999997">
        <ele>787.015</ele>
        <time>2022-08-24T14:40:08Z</time>
      </trkpt>
      <trkpt lat="42.939917999999956" lon="-1.471588999999997">
        <ele>786.289</ele>
        <time>2022-08-24T14:40:10Z</time>
      </trkpt>
      <trkpt lat="42.939864999999955" lon="-1.471614999999997">
        <ele>786.028</ele>
        <time>2022-08-24T14:40:11Z</time>
      </trkpt>
      <trkpt lat="42.93983599999996" lon="-1.471646999999997">
        <ele>785.857</ele>
        <time>2022-08-24T14:40:12Z</time>
      </trkpt>
      <trkpt lat="42.939810999999956" lon="-1.471684999999997">
        <ele>785.600</ele>
        <time>2022-08-24T14:40:13Z</time>
      </trkpt>
      <trkpt lat="42.93978199999996" lon="-1.471716999999997">
        <ele>785.220</ele>
        <time>2022-08-24T14:40:14Z</time>
      </trkpt>
      <trkpt lat="42.939751999999956" lon="-1.471740999999997">
        <ele>784.809</ele>
        <time>2022-08-24T14:40:15Z</time>
      </trkpt>
      <trkpt lat="42.939695999999955" lon="-1.471806999999997">
        <ele>783.846</ele>
        <time>2022-08-24T14:40:17Z</time>
      </trkpt>
      <trkpt lat="42.93966699999996" lon="-1.471849999999997">
        <ele>783.656</ele>
        <time>2022-08-24T14:40:18Z</time>
      </trkpt>
      <trkpt lat="42.93960699999996" lon="-1.471950999999997">
        <ele>783.226</ele>
        <time>2022-08-24T14:40:20Z</time>
      </trkpt>
      <trkpt lat="42.93953999999996" lon="-1.4719999999999969">
        <ele>782.662</ele>
        <time>2022-08-24T14:40:22Z</time>
      </trkpt>
      <trkpt lat="42.93949399999996" lon="-1.4720519999999968">
        <ele>782.464</ele>
        <time>2022-08-24T14:40:23Z</time>
      </trkpt>
      <trkpt lat="42.93944699999996" lon="-1.4721199999999968">
        <ele>782.071</ele>
        <time>2022-08-24T14:40:24Z</time>
      </trkpt>
      <trkpt lat="42.93942099999996" lon="-1.4721349999999969">
        <ele>781.864</ele>
        <time>2022-08-24T14:40:25Z</time>
      </trkpt>
      <trkpt lat="42.93936599999996" lon="-1.4721709999999968">
        <ele>781.698</ele>
        <time>2022-08-24T14:40:26Z</time>
      </trkpt>
      <trkpt lat="42.93931799999996" lon="-1.4722009999999968">
        <ele>781.237</ele>
        <time>2022-08-24T14:40:27Z</time>
      </trkpt>
      <trkpt lat="42.939293999999954" lon="-1.4722269999999968">
        <ele>780.861</ele>
        <time>2022-08-24T14:40:28Z</time>
      </trkpt>
      <trkpt lat="42.939245999999955" lon="-1.472276999999997">
        <ele>780.421</ele>
        <time>2022-08-24T14:40:29Z</time>
      </trkpt>
      <trkpt lat="42.939203999999954" lon="-1.472330999999997">
        <ele>780.413</ele>
        <time>2022-08-24T14:40:30Z</time>
      </trkpt>
      <trkpt lat="42.93914099999996" lon="-1.472411999999997">
        <ele>779.609</ele>
        <time>2022-08-24T14:40:32Z</time>
      </trkpt>
      <trkpt lat="42.93910999999996" lon="-1.472438999999997">
        <ele>779.437</ele>
        <time>2022-08-24T14:40:33Z</time>
      </trkpt>
      <trkpt lat="42.939093999999955" lon="-1.472475999999997">
        <ele>779.487</ele>
        <time>2022-08-24T14:40:34Z</time>
      </trkpt>
      <trkpt lat="42.93907799999995" lon="-1.472506999999997">
        <ele>779.297</ele>
        <time>2022-08-24T14:40:35Z</time>
      </trkpt>
      <trkpt lat="42.939056999999956" lon="-1.4725429999999968">
        <ele>778.833</ele>
        <time>2022-08-24T14:40:36Z</time>
      </trkpt>
      <trkpt lat="42.939037999999954" lon="-1.4725809999999968">
        <ele>778.885</ele>
        <time>2022-08-24T14:40:37Z</time>
      </trkpt>
      <trkpt lat="42.939020999999954" lon="-1.472622999999997">
        <ele>778.432</ele>
        <time>2022-08-24T14:40:38Z</time>
      </trkpt>
      <trkpt lat="42.939006999999954" lon="-1.472646999999997">
        <ele>778.215</ele>
        <time>2022-08-24T14:40:39Z</time>
      </trkpt>
      <trkpt lat="42.93899699999995" lon="-1.472660999999997">
        <ele>777.899</ele>
        <time>2022-08-24T14:40:40Z</time>
      </trkpt>
      <trkpt lat="42.93898599999995" lon="-1.472681999999997">
        <ele>777.228</ele>
        <time>2022-08-24T14:40:41Z</time>
      </trkpt>
      <trkpt lat="42.93897499999995" lon="-1.472697999999997">
        <ele>776.824</ele>
        <time>2022-08-24T14:40:42Z</time>
      </trkpt>
      <trkpt lat="42.93896099999995" lon="-1.472726999999997">
        <ele>776.204</ele>
        <time>2022-08-24T14:40:43Z</time>
      </trkpt>
      <trkpt lat="42.93894999999995" lon="-1.472754999999997">
        <ele>776.014</ele>
        <time>2022-08-24T14:40:44Z</time>
      </trkpt>
      <trkpt lat="42.938936999999946" lon="-1.472783999999997">
        <ele>775.809</ele>
        <time>2022-08-24T14:40:45Z</time>
      </trkpt>
      <trkpt lat="42.938858999999944" lon="-1.472865999999997">
        <ele>775.233</ele>
        <time>2022-08-24T14:40:48Z</time>
      </trkpt>
      <trkpt lat="42.93883799999995" lon="-1.472884999999997">
        <ele>775.023</ele>
        <time>2022-08-24T14:40:49Z</time>
      </trkpt>
      <trkpt lat="42.93881699999995" lon="-1.4729099999999968">
        <ele>774.463</ele>
        <time>2022-08-24T14:40:50Z</time>
      </trkpt>
      <trkpt lat="42.93879999999995" lon="-1.4729449999999968">
        <ele>774.059</ele>
        <time>2022-08-24T14:40:51Z</time>
      </trkpt>
      <trkpt lat="42.93878599999995" lon="-1.472978999999997">
        <ele>773.281</ele>
        <time>2022-08-24T14:40:52Z</time>
      </trkpt>
      <trkpt lat="42.93877099999995" lon="-1.473004999999997">
        <ele>773.078</ele>
        <time>2022-08-24T14:40:53Z</time>
      </trkpt>
      <trkpt lat="42.93872999999995" lon="-1.473062999999997">
        <ele>771.881</ele>
        <time>2022-08-24T14:40:55Z</time>
      </trkpt>
      <trkpt lat="42.93868499999995" lon="-1.473166999999997">
        <ele>771.435</ele>
        <time>2022-08-24T14:40:57Z</time>
      </trkpt>
      <trkpt lat="42.93867099999995" lon="-1.473205999999997">
        <ele>771.044</ele>
        <time>2022-08-24T14:40:58Z</time>
      </trkpt>
      <trkpt lat="42.93865499999995" lon="-1.473245999999997">
        <ele>770.433</ele>
        <time>2022-08-24T14:40:59Z</time>
      </trkpt>
      <trkpt lat="42.938624999999945" lon="-1.4733279999999969">
        <ele>770.023</ele>
        <time>2022-08-24T14:41:01Z</time>
      </trkpt>
      <trkpt lat="42.93860399999995" lon="-1.4733739999999969">
        <ele>769.815</ele>
        <time>2022-08-24T14:41:02Z</time>
      </trkpt>
      <trkpt lat="42.938570999999946" lon="-1.473418999999997">
        <ele>769.409</ele>
        <time>2022-08-24T14:41:03Z</time>
      </trkpt>
      <trkpt lat="42.93853899999995" lon="-1.473464999999997">
        <ele>769.064</ele>
        <time>2022-08-24T14:41:04Z</time>
      </trkpt>
      <trkpt lat="42.938525999999946" lon="-1.4735039999999968">
        <ele>768.834</ele>
        <time>2022-08-24T14:41:05Z</time>
      </trkpt>
      <trkpt lat="42.938511999999946" lon="-1.4735439999999969">
        <ele>768.434</ele>
        <time>2022-08-24T14:41:06Z</time>
      </trkpt>
      <trkpt lat="42.938495999999944" lon="-1.4735759999999969">
        <ele>768.050</ele>
        <time>2022-08-24T14:41:07Z</time>
      </trkpt>
      <trkpt lat="42.93847799999995" lon="-1.4736169999999968">
        <ele>767.832</ele>
        <time>2022-08-24T14:41:08Z</time>
      </trkpt>
      <trkpt lat="42.93845399999994" lon="-1.473672999999997">
        <ele>767.019</ele>
        <time>2022-08-24T14:41:09Z</time>
      </trkpt>
      <trkpt lat="42.93842599999994" lon="-1.4737249999999968">
        <ele>766.872</ele>
        <time>2022-08-24T14:41:10Z</time>
      </trkpt>
      <trkpt lat="42.93838699999994" lon="-1.4737869999999968">
        <ele>766.046</ele>
        <time>2022-08-24T14:41:11Z</time>
      </trkpt>
      <trkpt lat="42.93831399999994" lon="-1.4739409999999968">
        <ele>765.425</ele>
        <time>2022-08-24T14:41:13Z</time>
      </trkpt>
      <trkpt lat="42.93822099999994" lon="-1.474104999999997">
        <ele>765.077</ele>
        <time>2022-08-24T14:41:15Z</time>
      </trkpt>
      <trkpt lat="42.93820799999994" lon="-1.474166999999997">
        <ele>764.661</ele>
        <time>2022-08-24T14:41:16Z</time>
      </trkpt>
      <trkpt lat="42.93814399999994" lon="-1.474297999999997">
        <ele>764.227</ele>
        <time>2022-08-24T14:41:18Z</time>
      </trkpt>
      <trkpt lat="42.938119999999934" lon="-1.474335999999997">
        <ele>764.009</ele>
        <time>2022-08-24T14:41:19Z</time>
      </trkpt>
      <trkpt lat="42.93810199999994" lon="-1.474403999999997">
        <ele>763.838</ele>
        <time>2022-08-24T14:41:20Z</time>
      </trkpt>
      <trkpt lat="42.938082999999935" lon="-1.474549999999997">
        <ele>763.688</ele>
        <time>2022-08-24T14:41:22Z</time>
      </trkpt>
      <trkpt lat="42.93806799999994" lon="-1.4746129999999968">
        <ele>763.628</ele>
        <time>2022-08-24T14:41:23Z</time>
      </trkpt>
      <trkpt lat="42.938048999999936" lon="-1.4746479999999969">
        <ele>763.624</ele>
        <time>2022-08-24T14:41:24Z</time>
      </trkpt>
      <trkpt lat="42.93799099999993" lon="-1.474692999999997">
        <ele>763.636</ele>
        <time>2022-08-24T14:41:25Z</time>
      </trkpt>
      <trkpt lat="42.93795299999993" lon="-1.4747799999999969">
        <ele>763.473</ele>
        <time>2022-08-24T14:41:26Z</time>
      </trkpt>
      <trkpt lat="42.93792799999993" lon="-1.4748499999999969">
        <ele>763.416</ele>
        <time>2022-08-24T14:41:27Z</time>
      </trkpt>
      <trkpt lat="42.93791899999993" lon="-1.474910999999997">
        <ele>763.240</ele>
        <time>2022-08-24T14:41:28Z</time>
      </trkpt>
      <trkpt lat="42.93792299999993" lon="-1.474982999999997">
        <ele>763.289</ele>
        <time>2022-08-24T14:41:29Z</time>
      </trkpt>
      <trkpt lat="42.937934999999925" lon="-1.475075999999997">
        <ele>763.273</ele>
        <time>2022-08-24T14:41:30Z</time>
      </trkpt>
      <trkpt lat="42.93795299999992" lon="-1.475139999999997">
        <ele>763.085</ele>
        <time>2022-08-24T14:41:31Z</time>
      </trkpt>
      <trkpt lat="42.93793099999992" lon="-1.475204999999997">
        <ele>763.213</ele>
        <time>2022-08-24T14:41:32Z</time>
      </trkpt>
      <trkpt lat="42.93788999999992" lon="-1.475292999999997">
        <ele>763.209</ele>
        <time>2022-08-24T14:41:33Z</time>
      </trkpt>
      <trkpt lat="42.93786899999992" lon="-1.475360999999997">
        <ele>763.298</ele>
        <time>2022-08-24T14:41:34Z</time>
      </trkpt>
      <trkpt lat="42.937850999999924" lon="-1.4753869999999971">
        <ele>763.278</ele>
        <time>2022-08-24T14:41:35Z</time>
      </trkpt>
      <trkpt lat="42.937841999999925" lon="-1.4754019999999972">
        <ele>763.438</ele>
        <time>2022-08-24T14:41:36Z</time>
      </trkpt>
      <trkpt lat="42.93783499999993" lon="-1.4754289999999972">
        <ele>763.844</ele>
        <time>2022-08-24T14:41:37Z</time>
      </trkpt>
      <trkpt lat="42.93781499999993" lon="-1.4754659999999973">
        <ele>764.026</ele>
        <time>2022-08-24T14:41:38Z</time>
      </trkpt>
      <trkpt lat="42.93780699999993" lon="-1.4754859999999972">
        <ele>763.843</ele>
        <time>2022-08-24T14:41:39Z</time>
      </trkpt>
      <trkpt lat="42.937804999999926" lon="-1.4755109999999971">
        <ele>764.236</ele>
        <time>2022-08-24T14:41:40Z</time>
      </trkpt>
      <trkpt lat="42.93777799999992" lon="-1.475594999999997">
        <ele>764.480</ele>
        <time>2022-08-24T14:41:43Z</time>
      </trkpt>
      <trkpt lat="42.93776999999992" lon="-1.4756179999999972">
        <ele>764.649</ele>
        <time>2022-08-24T14:41:44Z</time>
      </trkpt>
      <trkpt lat="42.93776699999992" lon="-1.4756399999999972">
        <ele>764.464</ele>
        <time>2022-08-24T14:41:45Z</time>
      </trkpt>
      <trkpt lat="42.93774999999992" lon="-1.4756999999999971">
        <ele>765.006</ele>
        <time>2022-08-24T14:41:47Z</time>
      </trkpt>
      <trkpt lat="42.93773399999992" lon="-1.4757559999999972">
        <ele>765.416</ele>
        <time>2022-08-24T14:41:49Z</time>
      </trkpt>
      <trkpt lat="42.93772799999992" lon="-1.4757939999999972">
        <ele>765.609</ele>
        <time>2022-08-24T14:41:50Z</time>
      </trkpt>
      <trkpt lat="42.93773199999992" lon="-1.4758369999999972">
        <ele>765.827</ele>
        <time>2022-08-24T14:41:51Z</time>
      </trkpt>
      <trkpt lat="42.93774199999992" lon="-1.4759099999999972">
        <ele>766.267</ele>
        <time>2022-08-24T14:41:53Z</time>
      </trkpt>
      <trkpt lat="42.93774299999992" lon="-1.4759399999999971">
        <ele>766.437</ele>
        <time>2022-08-24T14:41:54Z</time>
      </trkpt>
      <trkpt lat="42.937732999999916" lon="-1.4759689999999972">
        <ele>766.653</ele>
        <time>2022-08-24T14:41:55Z</time>
      </trkpt>
      <trkpt lat="42.93771999999991" lon="-1.4760389999999972">
        <ele>766.865</ele>
        <time>2022-08-24T14:41:57Z</time>
      </trkpt>
      <trkpt lat="42.937727999999915" lon="-1.4760739999999972">
        <ele>767.062</ele>
        <time>2022-08-24T14:41:58Z</time>
      </trkpt>
      <trkpt lat="42.937727999999915" lon="-1.4761139999999973">
        <ele>767.465</ele>
        <time>2022-08-24T14:41:59Z</time>
      </trkpt>
      <trkpt lat="42.93772299999991" lon="-1.4761539999999973">
        <ele>767.689</ele>
        <time>2022-08-24T14:42:00Z</time>
      </trkpt>
      <trkpt lat="42.93772399999991" lon="-1.4761869999999973">
        <ele>767.818</ele>
        <time>2022-08-24T14:42:01Z</time>
      </trkpt>
      <trkpt lat="42.93769999999991" lon="-1.4762379999999973">
        <ele>767.879</ele>
        <time>2022-08-24T14:42:02Z</time>
      </trkpt>
      <trkpt lat="42.93769099999991" lon="-1.4762919999999973">
        <ele>767.805</ele>
        <time>2022-08-24T14:42:03Z</time>
      </trkpt>
      <trkpt lat="42.93768499999991" lon="-1.4763419999999974">
        <ele>767.825</ele>
        <time>2022-08-24T14:42:04Z</time>
      </trkpt>
      <trkpt lat="42.93767799999991" lon="-1.4763839999999975">
        <ele>767.809</ele>
        <time>2022-08-24T14:42:05Z</time>
      </trkpt>
      <trkpt lat="42.937670999999916" lon="-1.4764309999999974">
        <ele>768.098</ele>
        <time>2022-08-24T14:42:06Z</time>
      </trkpt>
      <trkpt lat="42.937670999999916" lon="-1.4764659999999974">
        <ele>768.048</ele>
        <time>2022-08-24T14:42:07Z</time>
      </trkpt>
      <trkpt lat="42.937673999999916" lon="-1.4765089999999974">
        <ele>768.268</ele>
        <time>2022-08-24T14:42:08Z</time>
      </trkpt>
      <trkpt lat="42.93766799999992" lon="-1.4765489999999974">
        <ele>768.244</ele>
        <time>2022-08-24T14:42:09Z</time>
      </trkpt>
      <trkpt lat="42.93766099999992" lon="-1.4765899999999974">
        <ele>768.226</ele>
        <time>2022-08-24T14:42:10Z</time>
      </trkpt>
      <trkpt lat="42.93765899999992" lon="-1.4766429999999975">
        <ele>768.213</ele>
        <time>2022-08-24T14:42:11Z</time>
      </trkpt>
      <trkpt lat="42.93764999999992" lon="-1.4766979999999974">
        <ele>768.456</ele>
        <time>2022-08-24T14:42:12Z</time>
      </trkpt>
      <trkpt lat="42.93763999999992" lon="-1.4767369999999973">
        <ele>768.410</ele>
        <time>2022-08-24T14:42:13Z</time>
      </trkpt>
      <trkpt lat="42.937611999999916" lon="-1.4767839999999972">
        <ele>768.439</ele>
        <time>2022-08-24T14:42:14Z</time>
      </trkpt>
      <trkpt lat="42.93760299999992" lon="-1.4768089999999972">
        <ele>768.444</ele>
        <time>2022-08-24T14:42:15Z</time>
      </trkpt>
      <trkpt lat="42.937589999999915" lon="-1.4768589999999973">
        <ele>768.405</ele>
        <time>2022-08-24T14:42:16Z</time>
      </trkpt>
      <trkpt lat="42.93758899999992" lon="-1.4769109999999972">
        <ele>768.415</ele>
        <time>2022-08-24T14:42:17Z</time>
      </trkpt>
      <trkpt lat="42.937572999999915" lon="-1.4769469999999971">
        <ele>768.609</ele>
        <time>2022-08-24T14:42:18Z</time>
      </trkpt>
      <trkpt lat="42.93755499999992" lon="-1.4769709999999971">
        <ele>768.855</ele>
        <time>2022-08-24T14:42:19Z</time>
      </trkpt>
      <trkpt lat="42.93754399999992" lon="-1.4769889999999972">
        <ele>769.435</ele>
        <time>2022-08-24T14:42:20Z</time>
      </trkpt>
      <trkpt lat="42.937533999999914" lon="-1.4770079999999972">
        <ele>769.675</ele>
        <time>2022-08-24T14:42:21Z</time>
      </trkpt>
      <trkpt lat="42.93752699999992" lon="-1.4770259999999973">
        <ele>769.891</ele>
        <time>2022-08-24T14:42:22Z</time>
      </trkpt>
      <trkpt lat="42.93751899999992" lon="-1.4770429999999972">
        <ele>769.823</ele>
        <time>2022-08-24T14:42:23Z</time>
      </trkpt>
      <trkpt lat="42.93750699999992" lon="-1.4770589999999972">
        <ele>770.020</ele>
        <time>2022-08-24T14:42:24Z</time>
      </trkpt>
      <trkpt lat="42.93749299999992" lon="-1.4770839999999972">
        <ele>770.083</ele>
        <time>2022-08-24T14:42:25Z</time>
      </trkpt>
      <trkpt lat="42.93748499999992" lon="-1.4771069999999973">
        <ele>770.067</ele>
        <time>2022-08-24T14:42:26Z</time>
      </trkpt>
      <trkpt lat="42.93748199999992" lon="-1.4771229999999973">
        <ele>770.246</ele>
        <time>2022-08-24T14:42:27Z</time>
      </trkpt>
      <trkpt lat="42.93747599999992" lon="-1.4771519999999974">
        <ele>770.267</ele>
        <time>2022-08-24T14:42:28Z</time>
      </trkpt>
      <trkpt lat="42.937473999999916" lon="-1.4771859999999974">
        <ele>770.681</ele>
        <time>2022-08-24T14:42:29Z</time>
      </trkpt>
      <trkpt lat="42.937473999999916" lon="-1.4772229999999975">
        <ele>770.619</ele>
        <time>2022-08-24T14:42:30Z</time>
      </trkpt>
      <trkpt lat="42.93747799999991" lon="-1.4772569999999976">
        <ele>770.809</ele>
        <time>2022-08-24T14:42:31Z</time>
      </trkpt>
      <trkpt lat="42.937485999999915" lon="-1.4772949999999976">
        <ele>770.857</ele>
        <time>2022-08-24T14:42:32Z</time>
      </trkpt>
      <trkpt lat="42.937490999999916" lon="-1.4773339999999975">
        <ele>770.877</ele>
        <time>2022-08-24T14:42:33Z</time>
      </trkpt>
      <trkpt lat="42.93750099999992" lon="-1.4773779999999974">
        <ele>770.847</ele>
        <time>2022-08-24T14:42:34Z</time>
      </trkpt>
      <trkpt lat="42.93751199999992" lon="-1.4774349999999974">
        <ele>771.053</ele>
        <time>2022-08-24T14:42:35Z</time>
      </trkpt>
      <trkpt lat="42.93752199999992" lon="-1.4774859999999974">
        <ele>771.065</ele>
        <time>2022-08-24T14:42:36Z</time>
      </trkpt>
      <trkpt lat="42.937532999999924" lon="-1.4775419999999975">
        <ele>771.052</ele>
        <time>2022-08-24T14:42:37Z</time>
      </trkpt>
      <trkpt lat="42.937540999999925" lon="-1.4775879999999975">
        <ele>771.015</ele>
        <time>2022-08-24T14:42:38Z</time>
      </trkpt>
      <trkpt lat="42.93754999999992" lon="-1.4776489999999975">
        <ele>771.069</ele>
        <time>2022-08-24T14:42:39Z</time>
      </trkpt>
      <trkpt lat="42.93755999999993" lon="-1.4777249999999975">
        <ele>770.868</ele>
        <time>2022-08-24T14:42:40Z</time>
      </trkpt>
      <trkpt lat="42.93757099999993" lon="-1.4777869999999975">
        <ele>770.638</ele>
        <time>2022-08-24T14:42:41Z</time>
      </trkpt>
      <trkpt lat="42.937582999999925" lon="-1.4778479999999976">
        <ele>770.670</ele>
        <time>2022-08-24T14:42:42Z</time>
      </trkpt>
      <trkpt lat="42.93761499999992" lon="-1.4780219999999975">
        <ele>770.017</ele>
        <time>2022-08-24T14:42:45Z</time>
      </trkpt>
      <trkpt lat="42.93762699999992" lon="-1.4780889999999975">
        <ele>769.609</ele>
        <time>2022-08-24T14:42:46Z</time>
      </trkpt>
      <trkpt lat="42.93763299999992" lon="-1.4781389999999976">
        <ele>769.654</ele>
        <time>2022-08-24T14:42:47Z</time>
      </trkpt>
      <trkpt lat="42.93763099999992" lon="-1.4781799999999976">
        <ele>769.484</ele>
        <time>2022-08-24T14:42:48Z</time>
      </trkpt>
      <trkpt lat="42.93763099999992" lon="-1.4782239999999975">
        <ele>769.444</ele>
        <time>2022-08-24T14:42:49Z</time>
      </trkpt>
      <trkpt lat="42.93763099999992" lon="-1.4782659999999976">
        <ele>769.470</ele>
        <time>2022-08-24T14:42:50Z</time>
      </trkpt>
      <trkpt lat="42.93764399999992" lon="-1.4785169999999976">
        <ele>769.022</ele>
        <time>2022-08-24T14:42:55Z</time>
      </trkpt>
      <trkpt lat="42.93765199999992" lon="-1.4787049999999977">
        <ele>768.849</ele>
        <time>2022-08-24T14:42:58Z</time>
      </trkpt>
      <trkpt lat="42.93765699999992" lon="-1.4787449999999978">
        <ele>768.872</ele>
        <time>2022-08-24T14:42:59Z</time>
      </trkpt>
      <trkpt lat="42.93767099999992" lon="-1.4788609999999978">
        <ele>768.666</ele>
        <time>2022-08-24T14:43:01Z</time>
      </trkpt>
      <trkpt lat="42.937681999999924" lon="-1.4789349999999977">
        <ele>768.465</ele>
        <time>2022-08-24T14:43:02Z</time>
      </trkpt>
      <trkpt lat="42.93769699999992" lon="-1.4789919999999976">
        <ele>768.033</ele>
        <time>2022-08-24T14:43:03Z</time>
      </trkpt>
      <trkpt lat="42.93771399999992" lon="-1.4790309999999975">
        <ele>767.823</ele>
        <time>2022-08-24T14:43:04Z</time>
      </trkpt>
      <trkpt lat="42.93774999999992" lon="-1.4791399999999975">
        <ele>767.215</ele>
        <time>2022-08-24T14:43:06Z</time>
      </trkpt>
      <trkpt lat="42.937765999999925" lon="-1.4792139999999974">
        <ele>766.609</ele>
        <time>2022-08-24T14:43:07Z</time>
      </trkpt>
      <trkpt lat="42.937791999999924" lon="-1.4793409999999974">
        <ele>766.264</ele>
        <time>2022-08-24T14:43:09Z</time>
      </trkpt>
      <trkpt lat="42.93781299999992" lon="-1.4794539999999974">
        <ele>765.884</ele>
        <time>2022-08-24T14:43:11Z</time>
      </trkpt>
      <trkpt lat="42.93781499999992" lon="-1.4794999999999974">
        <ele>765.624</ele>
        <time>2022-08-24T14:43:12Z</time>
      </trkpt>
      <trkpt lat="42.93781599999992" lon="-1.4795469999999973">
        <ele>765.420</ele>
        <time>2022-08-24T14:43:13Z</time>
      </trkpt>
      <trkpt lat="42.93782199999992" lon="-1.4795829999999972">
        <ele>765.442</ele>
        <time>2022-08-24T14:43:14Z</time>
      </trkpt>
      <trkpt lat="42.93783499999992" lon="-1.4796659999999973">
        <ele>765.219</ele>
        <time>2022-08-24T14:43:16Z</time>
      </trkpt>
      <trkpt lat="42.93785399999992" lon="-1.4797679999999973">
        <ele>765.032</ele>
        <time>2022-08-24T14:43:18Z</time>
      </trkpt>
      <trkpt lat="42.937864999999924" lon="-1.4798389999999972">
        <ele>764.816</ele>
        <time>2022-08-24T14:43:19Z</time>
      </trkpt>
      <trkpt lat="42.93788299999992" lon="-1.4799159999999973">
        <ele>764.665</ele>
        <time>2022-08-24T14:43:20Z</time>
      </trkpt>
      <trkpt lat="42.93790099999992" lon="-1.4799879999999974">
        <ele>764.276</ele>
        <time>2022-08-24T14:43:21Z</time>
      </trkpt>
      <trkpt lat="42.93792299999992" lon="-1.4800549999999975">
        <ele>764.090</ele>
        <time>2022-08-24T14:43:22Z</time>
      </trkpt>
      <trkpt lat="42.93794599999992" lon="-1.4801139999999975">
        <ele>763.819</ele>
        <time>2022-08-24T14:43:23Z</time>
      </trkpt>
      <trkpt lat="42.937966999999915" lon="-1.4801729999999975">
        <ele>763.609</ele>
        <time>2022-08-24T14:43:24Z</time>
      </trkpt>
      <trkpt lat="42.93798499999991" lon="-1.4802349999999975">
        <ele>763.448</ele>
        <time>2022-08-24T14:43:25Z</time>
      </trkpt>
      <trkpt lat="42.93799299999991" lon="-1.4802829999999976">
        <ele>763.228</ele>
        <time>2022-08-24T14:43:26Z</time>
      </trkpt>
      <trkpt lat="42.938003999999914" lon="-1.4803309999999976">
        <ele>763.298</ele>
        <time>2022-08-24T14:43:27Z</time>
      </trkpt>
      <trkpt lat="42.93801599999991" lon="-1.4803769999999976">
        <ele>763.274</ele>
        <time>2022-08-24T14:43:28Z</time>
      </trkpt>
      <trkpt lat="42.93803099999991" lon="-1.4804369999999976">
        <ele>763.086</ele>
        <time>2022-08-24T14:43:29Z</time>
      </trkpt>
      <trkpt lat="42.93806299999991" lon="-1.4805839999999975">
        <ele>762.853</ele>
        <time>2022-08-24T14:43:32Z</time>
      </trkpt>
      <trkpt lat="42.938071999999906" lon="-1.4806339999999976">
        <ele>762.626</ele>
        <time>2022-08-24T14:43:33Z</time>
      </trkpt>
      <trkpt lat="42.938083999999904" lon="-1.4806899999999976">
        <ele>762.420</ele>
        <time>2022-08-24T14:43:34Z</time>
      </trkpt>
      <trkpt lat="42.938091999999905" lon="-1.4807319999999977">
        <ele>762.449</ele>
        <time>2022-08-24T14:43:35Z</time>
      </trkpt>
      <trkpt lat="42.9380989999999" lon="-1.4807619999999977">
        <ele>762.075</ele>
        <time>2022-08-24T14:43:36Z</time>
      </trkpt>
      <trkpt lat="42.9381079999999" lon="-1.4807909999999977">
        <ele>761.828</ele>
        <time>2022-08-24T14:43:37Z</time>
      </trkpt>
      <trkpt lat="42.9381199999999" lon="-1.4808119999999978">
        <ele>761.620</ele>
        <time>2022-08-24T14:43:38Z</time>
      </trkpt>
      <trkpt lat="42.9381359999999" lon="-1.4808449999999977">
        <ele>761.409</ele>
        <time>2022-08-24T14:43:39Z</time>
      </trkpt>
      <trkpt lat="42.9381509999999" lon="-1.4808779999999977">
        <ele>761.228</ele>
        <time>2022-08-24T14:43:40Z</time>
      </trkpt>
      <trkpt lat="42.938165999999896" lon="-1.4809399999999977">
        <ele>761.058</ele>
        <time>2022-08-24T14:43:42Z</time>
      </trkpt>
      <trkpt lat="42.938171999999895" lon="-1.4809729999999977">
        <ele>760.648</ele>
        <time>2022-08-24T14:43:43Z</time>
      </trkpt>
      <trkpt lat="42.938180999999894" lon="-1.4810149999999977">
        <ele>760.464</ele>
        <time>2022-08-24T14:43:44Z</time>
      </trkpt>
      <trkpt lat="42.93818699999989" lon="-1.4810489999999978">
        <ele>760.246</ele>
        <time>2022-08-24T14:43:45Z</time>
      </trkpt>
      <trkpt lat="42.93819399999989" lon="-1.481077999999998">
        <ele>760.273</ele>
        <time>2022-08-24T14:43:46Z</time>
      </trkpt>
      <trkpt lat="42.93820899999989" lon="-1.481184999999998">
        <ele>760.076</ele>
        <time>2022-08-24T14:43:49Z</time>
      </trkpt>
      <trkpt lat="42.938217999999885" lon="-1.481225999999998">
        <ele>759.630</ele>
        <time>2022-08-24T14:43:50Z</time>
      </trkpt>
      <trkpt lat="42.93822599999989" lon="-1.481257999999998">
        <ele>759.629</ele>
        <time>2022-08-24T14:43:51Z</time>
      </trkpt>
      <trkpt lat="42.93824199999989" lon="-1.481316999999998">
        <ele>759.233</ele>
        <time>2022-08-24T14:43:53Z</time>
      </trkpt>
      <trkpt lat="42.938248999999885" lon="-1.481346999999998">
        <ele>759.023</ele>
        <time>2022-08-24T14:43:54Z</time>
      </trkpt>
      <trkpt lat="42.93825599999988" lon="-1.481378999999998">
        <ele>758.815</ele>
        <time>2022-08-24T14:43:55Z</time>
      </trkpt>
      <trkpt lat="42.93825999999988" lon="-1.481404999999998">
        <ele>758.609</ele>
        <time>2022-08-24T14:43:56Z</time>
      </trkpt>
      <trkpt lat="42.938260999999876" lon="-1.4814339999999981">
        <ele>758.234</ele>
        <time>2022-08-24T14:43:57Z</time>
      </trkpt>
      <trkpt lat="42.938266999999875" lon="-1.4814959999999981">
        <ele>757.834</ele>
        <time>2022-08-24T14:43:59Z</time>
      </trkpt>
      <trkpt lat="42.93827499999988" lon="-1.4815579999999982">
        <ele>757.214</ele>
        <time>2022-08-24T14:44:01Z</time>
      </trkpt>
      <trkpt lat="42.93827499999988" lon="-1.4815799999999981">
        <ele>756.820</ele>
        <time>2022-08-24T14:44:02Z</time>
      </trkpt>
      <trkpt lat="42.93827399999988" lon="-1.4815979999999982">
        <ele>756.692</ele>
        <time>2022-08-24T14:44:03Z</time>
      </trkpt>
      <trkpt lat="42.93827099999988" lon="-1.4816229999999981">
        <ele>756.229</ele>
        <time>2022-08-24T14:44:04Z</time>
      </trkpt>
      <trkpt lat="42.93827599999988" lon="-1.4817119999999981">
        <ele>755.642</ele>
        <time>2022-08-24T14:44:07Z</time>
      </trkpt>
      <trkpt lat="42.93828399999988" lon="-1.4817349999999982">
        <ele>755.436</ele>
        <time>2022-08-24T14:44:08Z</time>
      </trkpt>
      <trkpt lat="42.938293999999885" lon="-1.4817609999999983">
        <ele>755.085</ele>
        <time>2022-08-24T14:44:09Z</time>
      </trkpt>
      <trkpt lat="42.938302999999884" lon="-1.4817889999999982">
        <ele>754.827</ele>
        <time>2022-08-24T14:44:10Z</time>
      </trkpt>
      <trkpt lat="42.938313999999885" lon="-1.4818249999999982">
        <ele>754.468</ele>
        <time>2022-08-24T14:44:11Z</time>
      </trkpt>
      <trkpt lat="42.93833999999988" lon="-1.4819779999999982">
        <ele>753.814</ele>
        <time>2022-08-24T14:44:15Z</time>
      </trkpt>
      <trkpt lat="42.938349999999886" lon="-1.4820239999999982">
        <ele>753.409</ele>
        <time>2022-08-24T14:44:16Z</time>
      </trkpt>
      <trkpt lat="42.938355999999885" lon="-1.4820579999999983">
        <ele>753.273</ele>
        <time>2022-08-24T14:44:17Z</time>
      </trkpt>
      <trkpt lat="42.93836099999989" lon="-1.4820859999999982">
        <ele>752.893</ele>
        <time>2022-08-24T14:44:18Z</time>
      </trkpt>
      <trkpt lat="42.938363999999886" lon="-1.4821089999999983">
        <ele>752.873</ele>
        <time>2022-08-24T14:44:19Z</time>
      </trkpt>
      <trkpt lat="42.93836799999988" lon="-1.4821369999999983">
        <ele>752.469</ele>
        <time>2022-08-24T14:44:20Z</time>
      </trkpt>
      <trkpt lat="42.93837499999988" lon="-1.4821709999999984">
        <ele>752.031</ele>
        <time>2022-08-24T14:44:21Z</time>
      </trkpt>
      <trkpt lat="42.93839299999988" lon="-1.4822739999999983">
        <ele>751.228</ele>
        <time>2022-08-24T14:44:24Z</time>
      </trkpt>
      <trkpt lat="42.938398999999876" lon="-1.4823049999999982">
        <ele>751.271</ele>
        <time>2022-08-24T14:44:25Z</time>
      </trkpt>
      <trkpt lat="42.938412999999876" lon="-1.4823779999999982">
        <ele>751.085</ele>
        <time>2022-08-24T14:44:27Z</time>
      </trkpt>
      <trkpt lat="42.938418999999875" lon="-1.4824119999999983">
        <ele>751.044</ele>
        <time>2022-08-24T14:44:28Z</time>
      </trkpt>
      <trkpt lat="42.93846799999987" lon="-1.4826219999999983">
        <ele>749.852</ele>
        <time>2022-08-24T14:44:33Z</time>
      </trkpt>
      <trkpt lat="42.93849299999987" lon="-1.4827009999999983">
        <ele>749.253</ele>
        <time>2022-08-24T14:44:35Z</time>
      </trkpt>
      <trkpt lat="42.93850199999987" lon="-1.4827479999999982">
        <ele>748.808</ele>
        <time>2022-08-24T14:44:36Z</time>
      </trkpt>
      <trkpt lat="42.93851299999987" lon="-1.482802999999998">
        <ele>748.409</ele>
        <time>2022-08-24T14:44:37Z</time>
      </trkpt>
      <trkpt lat="42.93852499999987" lon="-1.482841999999998">
        <ele>748.256</ele>
        <time>2022-08-24T14:44:38Z</time>
      </trkpt>
      <trkpt lat="42.93853699999987" lon="-1.482867999999998">
        <ele>747.826</ele>
        <time>2022-08-24T14:44:39Z</time>
      </trkpt>
      <trkpt lat="42.938568999999866" lon="-1.482900999999998">
        <ele>747.456</ele>
        <time>2022-08-24T14:44:41Z</time>
      </trkpt>
      <trkpt lat="42.938591999999865" lon="-1.482922999999998">
        <ele>746.872</ele>
        <time>2022-08-24T14:44:42Z</time>
      </trkpt>
      <trkpt lat="42.93861899999987" lon="-1.482942999999998">
        <ele>746.674</ele>
        <time>2022-08-24T14:44:43Z</time>
      </trkpt>
      <trkpt lat="42.93864099999987" lon="-1.4829629999999978">
        <ele>746.221</ele>
        <time>2022-08-24T14:44:44Z</time>
      </trkpt>
      <trkpt lat="42.93865799999987" lon="-1.4829809999999979">
        <ele>746.264</ele>
        <time>2022-08-24T14:44:45Z</time>
      </trkpt>
      <trkpt lat="42.938678999999865" lon="-1.483003999999998">
        <ele>745.878</ele>
        <time>2022-08-24T14:44:46Z</time>
      </trkpt>
      <trkpt lat="42.93869499999987" lon="-1.483018999999998">
        <ele>745.467</ele>
        <time>2022-08-24T14:44:47Z</time>
      </trkpt>
      <trkpt lat="42.93871099999987" lon="-1.4830319999999981">
        <ele>745.229</ele>
        <time>2022-08-24T14:44:48Z</time>
      </trkpt>
      <trkpt lat="42.93875599999987" lon="-1.4831009999999982">
        <ele>744.000</ele>
        <time>2022-08-24T14:44:51Z</time>
      </trkpt>
      <trkpt lat="42.93876999999987" lon="-1.4831359999999982">
        <ele>743.620</ele>
        <time>2022-08-24T14:44:52Z</time>
      </trkpt>
      <trkpt lat="42.93877099999987" lon="-1.4831649999999983">
        <ele>743.409</ele>
        <time>2022-08-24T14:44:53Z</time>
      </trkpt>
      <trkpt lat="42.93876499999987" lon="-1.4831899999999982">
        <ele>742.883</ele>
        <time>2022-08-24T14:44:54Z</time>
      </trkpt>
      <trkpt lat="42.93875399999987" lon="-1.4832469999999982">
        <ele>741.643</ele>
        <time>2022-08-24T14:44:56Z</time>
      </trkpt>
      <trkpt lat="42.93874499999987" lon="-1.4832879999999982">
        <ele>741.283</ele>
        <time>2022-08-24T14:44:57Z</time>
      </trkpt>
      <trkpt lat="42.93873399999987" lon="-1.4833329999999982">
        <ele>740.289</ele>
        <time>2022-08-24T14:44:58Z</time>
      </trkpt>
      <trkpt lat="42.93873299999987" lon="-1.4833689999999982">
        <ele>739.651</ele>
        <time>2022-08-24T14:44:59Z</time>
      </trkpt>
      <trkpt lat="42.93873299999987" lon="-1.4833979999999982">
        <ele>739.468</ele>
        <time>2022-08-24T14:45:00Z</time>
      </trkpt>
      <trkpt lat="42.93872699999987" lon="-1.4834299999999983">
        <ele>739.091</ele>
        <time>2022-08-24T14:45:01Z</time>
      </trkpt>
      <trkpt lat="42.938674999999876" lon="-1.4835749999999983">
        <ele>738.085</ele>
        <time>2022-08-24T14:45:05Z</time>
      </trkpt>
      <trkpt lat="42.93867299999987" lon="-1.4836079999999983">
        <ele>737.864</ele>
        <time>2022-08-24T14:45:06Z</time>
      </trkpt>
      <trkpt lat="42.93867299999987" lon="-1.4836269999999983">
        <ele>737.417</ele>
        <time>2022-08-24T14:45:07Z</time>
      </trkpt>
      <trkpt lat="42.93867099999987" lon="-1.4836319999999983">
        <ele>737.087</ele>
        <time>2022-08-24T14:45:08Z</time>
      </trkpt>
      <trkpt lat="42.938666999999874" lon="-1.4836469999999984">
        <ele>736.815</ele>
        <time>2022-08-24T14:45:09Z</time>
      </trkpt>
      <trkpt lat="42.938652999999874" lon="-1.4836679999999984">
        <ele>736.609</ele>
        <time>2022-08-24T14:45:10Z</time>
      </trkpt>
      <trkpt lat="42.938641999999874" lon="-1.4836969999999985">
        <ele>736.642</ele>
        <time>2022-08-24T14:45:11Z</time>
      </trkpt>
      <trkpt lat="42.93862899999987" lon="-1.4837239999999985">
        <ele>736.422</ele>
        <time>2022-08-24T14:45:12Z</time>
      </trkpt>
      <trkpt lat="42.93859499999987" lon="-1.4838429999999985">
        <ele>735.852</ele>
        <time>2022-08-24T14:45:15Z</time>
      </trkpt>
      <trkpt lat="42.93859299999987" lon="-1.4838809999999985">
        <ele>735.818</ele>
        <time>2022-08-24T14:45:16Z</time>
      </trkpt>
      <trkpt lat="42.93859699999987" lon="-1.4839289999999985">
        <ele>735.410</ele>
        <time>2022-08-24T14:45:17Z</time>
      </trkpt>
      <trkpt lat="42.938591999999865" lon="-1.4839619999999984">
        <ele>735.027</ele>
        <time>2022-08-24T14:45:18Z</time>
      </trkpt>
      <trkpt lat="42.93858799999987" lon="-1.4840289999999985">
        <ele>734.420</ele>
        <time>2022-08-24T14:45:20Z</time>
      </trkpt>
      <trkpt lat="42.938574999999865" lon="-1.4840659999999986">
        <ele>734.234</ele>
        <time>2022-08-24T14:45:21Z</time>
      </trkpt>
      <trkpt lat="42.93855699999987" lon="-1.4840989999999985">
        <ele>733.833</ele>
        <time>2022-08-24T14:45:22Z</time>
      </trkpt>
      <trkpt lat="42.93855099999987" lon="-1.4841199999999986">
        <ele>733.417</ele>
        <time>2022-08-24T14:45:23Z</time>
      </trkpt>
      <trkpt lat="42.938537999999866" lon="-1.4841549999999986">
        <ele>733.287</ele>
        <time>2022-08-24T14:45:24Z</time>
      </trkpt>
      <trkpt lat="42.93852499999986" lon="-1.4841889999999986">
        <ele>732.815</ele>
        <time>2022-08-24T14:45:25Z</time>
      </trkpt>
      <trkpt lat="42.93851499999986" lon="-1.4842169999999986">
        <ele>732.409</ele>
        <time>2022-08-24T14:45:26Z</time>
      </trkpt>
      <trkpt lat="42.93850699999986" lon="-1.4842449999999985">
        <ele>732.212</ele>
        <time>2022-08-24T14:45:27Z</time>
      </trkpt>
      <trkpt lat="42.93850099999986" lon="-1.4842709999999986">
        <ele>732.072</ele>
        <time>2022-08-24T14:45:28Z</time>
      </trkpt>
      <trkpt lat="42.93850099999986" lon="-1.4842929999999985">
        <ele>731.862</ele>
        <time>2022-08-24T14:45:29Z</time>
      </trkpt>
      <trkpt lat="42.93850699999986" lon="-1.4843129999999984">
        <ele>731.878</ele>
        <time>2022-08-24T14:45:30Z</time>
      </trkpt>
      <trkpt lat="42.93851499999986" lon="-1.4843339999999985">
        <ele>731.690</ele>
        <time>2022-08-24T14:45:31Z</time>
      </trkpt>
      <trkpt lat="42.93852499999986" lon="-1.4843519999999986">
        <ele>731.637</ele>
        <time>2022-08-24T14:45:32Z</time>
      </trkpt>
      <trkpt lat="42.938535999999864" lon="-1.4843719999999985">
        <ele>731.680</ele>
        <time>2022-08-24T14:45:33Z</time>
      </trkpt>
      <trkpt lat="42.93854299999986" lon="-1.4843909999999985">
        <ele>731.244</ele>
        <time>2022-08-24T14:45:34Z</time>
      </trkpt>
      <trkpt lat="42.93855099999986" lon="-1.4844109999999984">
        <ele>731.493</ele>
        <time>2022-08-24T14:45:35Z</time>
      </trkpt>
      <trkpt lat="42.93855899999986" lon="-1.4844329999999983">
        <ele>731.044</ele>
        <time>2022-08-24T14:45:36Z</time>
      </trkpt>
      <trkpt lat="42.938563999999865" lon="-1.4844499999999983">
        <ele>730.605</ele>
        <time>2022-08-24T14:45:37Z</time>
      </trkpt>
      <trkpt lat="42.93856299999987" lon="-1.4844619999999982">
        <ele>730.615</ele>
        <time>2022-08-24T14:45:38Z</time>
      </trkpt>
      <trkpt lat="42.93855599999987" lon="-1.4844799999999982">
        <ele>730.409</ele>
        <time>2022-08-24T14:45:39Z</time>
      </trkpt>
      <trkpt lat="42.938548999999874" lon="-1.4845029999999984">
        <ele>730.415</ele>
        <time>2022-08-24T14:45:40Z</time>
      </trkpt>
      <trkpt lat="42.93854199999988" lon="-1.4845409999999983">
        <ele>730.295</ele>
        <time>2022-08-24T14:45:41Z</time>
      </trkpt>
      <trkpt lat="42.938539999999875" lon="-1.4845649999999984">
        <ele>730.255</ele>
        <time>2022-08-24T14:45:42Z</time>
      </trkpt>
      <trkpt lat="42.93854099999987" lon="-1.4845869999999983">
        <ele>730.021</ele>
        <time>2022-08-24T14:45:43Z</time>
      </trkpt>
      <trkpt lat="42.93854199999987" lon="-1.4846069999999982">
        <ele>729.863</ele>
        <time>2022-08-24T14:45:44Z</time>
      </trkpt>
      <trkpt lat="42.93854299999987" lon="-1.4846259999999982">
        <ele>729.660</ele>
        <time>2022-08-24T14:45:45Z</time>
      </trkpt>
      <trkpt lat="42.93853999999987" lon="-1.4846719999999982">
        <ele>729.053</ele>
        <time>2022-08-24T14:45:47Z</time>
      </trkpt>
      <trkpt lat="42.93853899999987" lon="-1.4847009999999983">
        <ele>728.667</ele>
        <time>2022-08-24T14:45:48Z</time>
      </trkpt>
      <trkpt lat="42.93854399999987" lon="-1.4847549999999983">
        <ele>728.266</ele>
        <time>2022-08-24T14:45:50Z</time>
      </trkpt>
      <trkpt lat="42.938548999999874" lon="-1.4847879999999982">
        <ele>728.092</ele>
        <time>2022-08-24T14:45:51Z</time>
      </trkpt>
      <trkpt lat="42.93855899999988" lon="-1.4848169999999983">
        <ele>728.073</ele>
        <time>2022-08-24T14:45:52Z</time>
      </trkpt>
      <trkpt lat="42.938567999999876" lon="-1.4848469999999983">
        <ele>727.820</ele>
        <time>2022-08-24T14:45:53Z</time>
      </trkpt>
      <trkpt lat="42.938573999999875" lon="-1.4848819999999983">
        <ele>727.609</ele>
        <time>2022-08-24T14:45:54Z</time>
      </trkpt>
      <trkpt lat="42.93860899999987" lon="-1.4849759999999983">
        <ele>726.670</ele>
        <time>2022-08-24T14:45:57Z</time>
      </trkpt>
      <trkpt lat="42.93861799999987" lon="-1.4850009999999982">
        <ele>726.280</ele>
        <time>2022-08-24T14:45:58Z</time>
      </trkpt>
      <trkpt lat="42.93863099999987" lon="-1.4850209999999981">
        <ele>726.270</ele>
        <time>2022-08-24T14:45:59Z</time>
      </trkpt>
      <trkpt lat="42.93864499999987" lon="-1.4850449999999982">
        <ele>726.046</ele>
        <time>2022-08-24T14:46:00Z</time>
      </trkpt>
      <trkpt lat="42.93865899999987" lon="-1.485064999999998">
        <ele>725.838</ele>
        <time>2022-08-24T14:46:01Z</time>
      </trkpt>
      <trkpt lat="42.93866799999987" lon="-1.4850829999999982">
        <ele>725.465</ele>
        <time>2022-08-24T14:46:02Z</time>
      </trkpt>
      <trkpt lat="42.93867199999987" lon="-1.4851019999999981">
        <ele>724.888</ele>
        <time>2022-08-24T14:46:03Z</time>
      </trkpt>
      <trkpt lat="42.93868199999987" lon="-1.485115999999998">
        <ele>724.632</ele>
        <time>2022-08-24T14:46:04Z</time>
      </trkpt>
      <trkpt lat="42.938691999999875" lon="-1.4851289999999981">
        <ele>724.231</ele>
        <time>2022-08-24T14:46:05Z</time>
      </trkpt>
      <trkpt lat="42.938702999999876" lon="-1.4851519999999983">
        <ele>724.413</ele>
        <time>2022-08-24T14:46:06Z</time>
      </trkpt>
      <trkpt lat="42.938708999999875" lon="-1.4851699999999983">
        <ele>724.043</ele>
        <time>2022-08-24T14:46:07Z</time>
      </trkpt>
      <trkpt lat="42.938711999999875" lon="-1.4851869999999983">
        <ele>723.807</ele>
        <time>2022-08-24T14:46:08Z</time>
      </trkpt>
      <trkpt lat="42.93871299999987" lon="-1.4852029999999983">
        <ele>723.609</ele>
        <time>2022-08-24T14:46:09Z</time>
      </trkpt>
      <trkpt lat="42.93871599999987" lon="-1.4852159999999983">
        <ele>723.632</ele>
        <time>2022-08-24T14:46:10Z</time>
      </trkpt>
      <trkpt lat="42.93874799999987" lon="-1.4852739999999982">
        <ele>722.832</ele>
        <time>2022-08-24T14:46:14Z</time>
      </trkpt>
      <trkpt lat="42.938751999999866" lon="-1.4852849999999982">
        <ele>722.862</ele>
        <time>2022-08-24T14:46:15Z</time>
      </trkpt>
      <trkpt lat="42.93875699999987" lon="-1.485296999999998">
        <ele>722.238</ele>
        <time>2022-08-24T14:46:16Z</time>
      </trkpt>
      <trkpt lat="42.93875699999987" lon="-1.485308999999998">
        <ele>722.090</ele>
        <time>2022-08-24T14:46:17Z</time>
      </trkpt>
      <trkpt lat="42.93876499999987" lon="-1.485333999999998">
        <ele>722.077</ele>
        <time>2022-08-24T14:46:18Z</time>
      </trkpt>
      <trkpt lat="42.93877499999987" lon="-1.485355999999998">
        <ele>721.890</ele>
        <time>2022-08-24T14:46:19Z</time>
      </trkpt>
      <trkpt lat="42.93878399999987" lon="-1.485374999999998">
        <ele>721.854</ele>
        <time>2022-08-24T14:46:20Z</time>
      </trkpt>
      <trkpt lat="42.93878999999987" lon="-1.485398999999998">
        <ele>721.623</ele>
        <time>2022-08-24T14:46:21Z</time>
      </trkpt>
      <trkpt lat="42.93879499999987" lon="-1.4854189999999978">
        <ele>721.478</ele>
        <time>2022-08-24T14:46:22Z</time>
      </trkpt>
      <trkpt lat="42.93880299999987" lon="-1.4854399999999979">
        <ele>721.233</ele>
        <time>2022-08-24T14:46:23Z</time>
      </trkpt>
      <trkpt lat="42.938804999999874" lon="-1.485446999999998">
        <ele>721.026</ele>
        <time>2022-08-24T14:46:24Z</time>
      </trkpt>
      <trkpt lat="42.938812999999875" lon="-1.485462999999998">
        <ele>721.009</ele>
        <time>2022-08-24T14:46:25Z</time>
      </trkpt>
      <trkpt lat="42.93882099999988" lon="-1.485479999999998">
        <ele>720.618</ele>
        <time>2022-08-24T14:46:26Z</time>
      </trkpt>
      <trkpt lat="42.93883099999988" lon="-1.485497999999998">
        <ele>720.678</ele>
        <time>2022-08-24T14:46:27Z</time>
      </trkpt>
      <trkpt lat="42.93888699999988" lon="-1.4856179999999979">
        <ele>720.078</ele>
        <time>2022-08-24T14:46:32Z</time>
      </trkpt>
      <trkpt lat="42.93889099999988" lon="-1.4856449999999979">
        <ele>719.894</ele>
        <time>2022-08-24T14:46:33Z</time>
      </trkpt>
      <trkpt lat="42.93889299999988" lon="-1.4856779999999978">
        <ele>719.656</ele>
        <time>2022-08-24T14:46:34Z</time>
      </trkpt>
      <trkpt lat="42.93891099999988" lon="-1.4857139999999978">
        <ele>719.273</ele>
        <time>2022-08-24T14:46:35Z</time>
      </trkpt>
      <trkpt lat="42.938939999999874" lon="-1.4857949999999978">
        <ele>718.266</ele>
        <time>2022-08-24T14:46:38Z</time>
      </trkpt>
      <trkpt lat="42.93894999999988" lon="-1.4858149999999977">
        <ele>718.070</ele>
        <time>2022-08-24T14:46:39Z</time>
      </trkpt>
      <trkpt lat="42.938964999999875" lon="-1.4858469999999977">
        <ele>717.899</ele>
        <time>2022-08-24T14:46:40Z</time>
      </trkpt>
      <trkpt lat="42.93897799999988" lon="-1.4858709999999977">
        <ele>717.871</ele>
        <time>2022-08-24T14:46:41Z</time>
      </trkpt>
      <trkpt lat="42.93899399999988" lon="-1.4859329999999977">
        <ele>717.641</ele>
        <time>2022-08-24T14:46:43Z</time>
      </trkpt>
      <trkpt lat="42.93901099999988" lon="-1.4859929999999977">
        <ele>717.215</ele>
        <time>2022-08-24T14:46:45Z</time>
      </trkpt>
      <trkpt lat="42.93900999999988" lon="-1.4860299999999977">
        <ele>717.009</ele>
        <time>2022-08-24T14:46:46Z</time>
      </trkpt>
      <trkpt lat="42.93902699999988" lon="-1.4860699999999978">
        <ele>716.858</ele>
        <time>2022-08-24T14:46:47Z</time>
      </trkpt>
      <trkpt lat="42.93905199999988" lon="-1.4861059999999977">
        <ele>716.678</ele>
        <time>2022-08-24T14:46:48Z</time>
      </trkpt>
      <trkpt lat="42.939081999999885" lon="-1.4861599999999977">
        <ele>716.698</ele>
        <time>2022-08-24T14:46:49Z</time>
      </trkpt>
      <trkpt lat="42.939092999999886" lon="-1.4861899999999977">
        <ele>716.414</ele>
        <time>2022-08-24T14:46:50Z</time>
      </trkpt>
      <trkpt lat="42.93910099999989" lon="-1.4862179999999976">
        <ele>716.446</ele>
        <time>2022-08-24T14:46:51Z</time>
      </trkpt>
      <trkpt lat="42.93910599999989" lon="-1.4862539999999975">
        <ele>716.213</ele>
        <time>2022-08-24T14:46:52Z</time>
      </trkpt>
      <trkpt lat="42.939112999999885" lon="-1.4862719999999976">
        <ele>716.036</ele>
        <time>2022-08-24T14:46:53Z</time>
      </trkpt>
      <trkpt lat="42.939121999999884" lon="-1.4862909999999976">
        <ele>715.830</ele>
        <time>2022-08-24T14:46:54Z</time>
      </trkpt>
      <trkpt lat="42.93913399999988" lon="-1.4863139999999977">
        <ele>715.449</ele>
        <time>2022-08-24T14:46:55Z</time>
      </trkpt>
      <trkpt lat="42.939157999999885" lon="-1.4863609999999976">
        <ele>715.296</ele>
        <time>2022-08-24T14:46:57Z</time>
      </trkpt>
      <trkpt lat="42.93919099999989" lon="-1.4864409999999977">
        <ele>715.231</ele>
        <time>2022-08-24T14:47:00Z</time>
      </trkpt>
      <trkpt lat="42.939199999999886" lon="-1.4864649999999977">
        <ele>715.024</ele>
        <time>2022-08-24T14:47:01Z</time>
      </trkpt>
      <trkpt lat="42.93923899999989" lon="-1.4865319999999977">
        <ele>714.609</ele>
        <time>2022-08-24T14:47:04Z</time>
      </trkpt>
      <trkpt lat="42.93929499999989" lon="-1.4866289999999978">
        <ele>714.050</ele>
        <time>2022-08-24T14:47:07Z</time>
      </trkpt>
      <trkpt lat="42.939309999999885" lon="-1.4866529999999978">
        <ele>713.630</ele>
        <time>2022-08-24T14:47:08Z</time>
      </trkpt>
      <trkpt lat="42.93934199999988" lon="-1.4867039999999978">
        <ele>713.430</ele>
        <time>2022-08-24T14:47:10Z</time>
      </trkpt>
      <trkpt lat="42.939354999999885" lon="-1.4867299999999979">
        <ele>713.286</ele>
        <time>2022-08-24T14:47:11Z</time>
      </trkpt>
      <trkpt lat="42.939380999999884" lon="-1.4867689999999978">
        <ele>713.088</ele>
        <time>2022-08-24T14:47:13Z</time>
      </trkpt>
      <trkpt lat="42.939393999999886" lon="-1.4867849999999978">
        <ele>712.855</ele>
        <time>2022-08-24T14:47:14Z</time>
      </trkpt>
      <trkpt lat="42.93940699999989" lon="-1.486791999999998">
        <ele>712.688</ele>
        <time>2022-08-24T14:47:15Z</time>
      </trkpt>
      <trkpt lat="42.93942099999989" lon="-1.4868009999999978">
        <ele>712.482</ele>
        <time>2022-08-24T14:47:16Z</time>
      </trkpt>
      <trkpt lat="42.93943799999989" lon="-1.486818999999998">
        <ele>712.231</ele>
        <time>2022-08-24T14:47:17Z</time>
      </trkpt>
      <trkpt lat="42.93947799999989" lon="-1.4868549999999978">
        <ele>712.013</ele>
        <time>2022-08-24T14:47:19Z</time>
      </trkpt>
      <trkpt lat="42.93949399999989" lon="-1.486861999999998">
        <ele>711.843</ele>
        <time>2022-08-24T14:47:20Z</time>
      </trkpt>
      <trkpt lat="42.93950999999989" lon="-1.4868679999999979">
        <ele>711.407</ele>
        <time>2022-08-24T14:47:21Z</time>
      </trkpt>
      <trkpt lat="42.93952199999989" lon="-1.486882999999998">
        <ele>711.409</ele>
        <time>2022-08-24T14:47:22Z</time>
      </trkpt>
      <trkpt lat="42.93953399999989" lon="-1.486898999999998">
        <ele>711.272</ele>
        <time>2022-08-24T14:47:23Z</time>
      </trkpt>
      <trkpt lat="42.93954199999989" lon="-1.486915999999998">
        <ele>711.012</ele>
        <time>2022-08-24T14:47:24Z</time>
      </trkpt>
      <trkpt lat="42.93956999999989" lon="-1.486952999999998">
        <ele>710.622</ele>
        <time>2022-08-24T14:47:26Z</time>
      </trkpt>
      <trkpt lat="42.93959199999989" lon="-1.486987999999998">
        <ele>710.458</ele>
        <time>2022-08-24T14:47:29Z</time>
      </trkpt>
      <trkpt lat="42.93959799999989" lon="-1.487003999999998">
        <ele>710.230</ele>
        <time>2022-08-24T14:47:30Z</time>
      </trkpt>
      <trkpt lat="42.93960499999989" lon="-1.487019999999998">
        <ele>710.027</ele>
        <time>2022-08-24T14:47:31Z</time>
      </trkpt>
      <trkpt lat="42.939610999999886" lon="-1.487037999999998">
        <ele>709.840</ele>
        <time>2022-08-24T14:47:32Z</time>
      </trkpt>
      <trkpt lat="42.939613999999885" lon="-1.487051999999998">
        <ele>709.894</ele>
        <time>2022-08-24T14:47:33Z</time>
      </trkpt>
      <trkpt lat="42.939613999999885" lon="-1.487071999999998">
        <ele>709.493</ele>
        <time>2022-08-24T14:47:34Z</time>
      </trkpt>
      <trkpt lat="42.93961299999989" lon="-1.487098999999998">
        <ele>709.274</ele>
        <time>2022-08-24T14:47:35Z</time>
      </trkpt>
      <trkpt lat="42.93961499999989" lon="-1.487120999999998">
        <ele>709.256</ele>
        <time>2022-08-24T14:47:36Z</time>
      </trkpt>
      <trkpt lat="42.93962699999989" lon="-1.4872269999999979">
        <ele>709.021</ele>
        <time>2022-08-24T14:47:39Z</time>
      </trkpt>
      <trkpt lat="42.939638999999886" lon="-1.4872929999999978">
        <ele>708.609</ele>
        <time>2022-08-24T14:47:41Z</time>
      </trkpt>
      <trkpt lat="42.93964299999988" lon="-1.4873289999999977">
        <ele>708.458</ele>
        <time>2022-08-24T14:47:42Z</time>
      </trkpt>
      <trkpt lat="42.939647999999885" lon="-1.4873899999999978">
        <ele>708.058</ele>
        <time>2022-08-24T14:47:44Z</time>
      </trkpt>
      <trkpt lat="42.93964699999989" lon="-1.4874119999999977">
        <ele>707.878</ele>
        <time>2022-08-24T14:47:45Z</time>
      </trkpt>
      <trkpt lat="42.939647999999885" lon="-1.4874399999999977">
        <ele>707.494</ele>
        <time>2022-08-24T14:47:46Z</time>
      </trkpt>
      <trkpt lat="42.93964999999989" lon="-1.4874599999999976">
        <ele>707.246</ele>
        <time>2022-08-24T14:47:47Z</time>
      </trkpt>
      <trkpt lat="42.93964699999989" lon="-1.4874859999999976">
        <ele>707.213</ele>
        <time>2022-08-24T14:47:48Z</time>
      </trkpt>
      <trkpt lat="42.93963999999989" lon="-1.4875099999999977">
        <ele>707.036</ele>
        <time>2022-08-24T14:47:49Z</time>
      </trkpt>
      <trkpt lat="42.93961599999989" lon="-1.4875649999999976">
        <ele>706.670</ele>
        <time>2022-08-24T14:47:51Z</time>
      </trkpt>
      <trkpt lat="42.93961199999989" lon="-1.4875719999999977">
        <ele>706.659</ele>
        <time>2022-08-24T14:47:52Z</time>
      </trkpt>
      <trkpt lat="42.93961199999989" lon="-1.4875719999999977">
        <ele>706.635</ele>
        <time>2022-08-24T14:47:53Z</time>
      </trkpt>
      <trkpt lat="42.93961199999989" lon="-1.4875719999999977">
        <ele>706.486</ele>
        <time>2022-08-24T14:47:54Z</time>
      </trkpt>
      <trkpt lat="42.93961699999989" lon="-1.4876029999999976">
        <ele>706.214</ele>
        <time>2022-08-24T14:47:55Z</time>
      </trkpt>
      <trkpt lat="42.93960699999989" lon="-1.4876519999999975">
        <ele>705.809</ele>
        <time>2022-08-24T14:47:56Z</time>
      </trkpt>
      <trkpt lat="42.93960099999989" lon="-1.4876979999999975">
        <ele>705.244</ele>
        <time>2022-08-24T14:47:59Z</time>
      </trkpt>
      <trkpt lat="42.93959899999989" lon="-1.4877179999999974">
        <ele>705.244</ele>
        <time>2022-08-24T14:48:00Z</time>
      </trkpt>
      <trkpt lat="42.93960499999989" lon="-1.4877349999999974">
        <ele>705.054</ele>
        <time>2022-08-24T14:48:01Z</time>
      </trkpt>
      <trkpt lat="42.93960199999989" lon="-1.4877499999999975">
        <ele>705.020</ele>
        <time>2022-08-24T14:48:02Z</time>
      </trkpt>
      <trkpt lat="42.939608999999884" lon="-1.4877799999999974">
        <ele>704.692</ele>
        <time>2022-08-24T14:48:03Z</time>
      </trkpt>
      <trkpt lat="42.939607999999886" lon="-1.4878009999999975">
        <ele>704.459</ele>
        <time>2022-08-24T14:48:04Z</time>
      </trkpt>
      <trkpt lat="42.93960999999989" lon="-1.4878219999999975">
        <ele>704.282</ele>
        <time>2022-08-24T14:48:05Z</time>
      </trkpt>
      <trkpt lat="42.93960899999989" lon="-1.4878429999999976">
        <ele>703.686</ele>
        <time>2022-08-24T14:48:06Z</time>
      </trkpt>
      <trkpt lat="42.93960399999989" lon="-1.4878649999999976">
        <ele>703.625</ele>
        <time>2022-08-24T14:48:07Z</time>
      </trkpt>
      <trkpt lat="42.93959999999989" lon="-1.4878829999999976">
        <ele>703.236</ele>
        <time>2022-08-24T14:48:08Z</time>
      </trkpt>
      <trkpt lat="42.93959699999989" lon="-1.4878999999999976">
        <ele>703.017</ele>
        <time>2022-08-24T14:48:09Z</time>
      </trkpt>
      <trkpt lat="42.93958699999989" lon="-1.4879129999999976">
        <ele>702.818</ele>
        <time>2022-08-24T14:48:10Z</time>
      </trkpt>
      <trkpt lat="42.93957299999989" lon="-1.4879289999999976">
        <ele>702.609</ele>
        <time>2022-08-24T14:48:11Z</time>
      </trkpt>
      <trkpt lat="42.93955399999989" lon="-1.4879529999999976">
        <ele>702.274</ele>
        <time>2022-08-24T14:48:12Z</time>
      </trkpt>
      <trkpt lat="42.93955399999989" lon="-1.4879529999999976">
        <ele>701.814</ele>
        <time>2022-08-24T14:48:13Z</time>
      </trkpt>
      <trkpt lat="42.93952899999989" lon="-1.4879889999999976">
        <ele>701.674</ele>
        <time>2022-08-24T14:48:14Z</time>
      </trkpt>
      <trkpt lat="42.93951199999989" lon="-1.4880289999999976">
        <ele>701.240</ele>
        <time>2022-08-24T14:48:16Z</time>
      </trkpt>
      <trkpt lat="42.93950299999989" lon="-1.4880489999999975">
        <ele>701.072</ele>
        <time>2022-08-24T14:48:17Z</time>
      </trkpt>
      <trkpt lat="42.93950199999989" lon="-1.4880729999999975">
        <ele>700.859</ele>
        <time>2022-08-24T14:48:18Z</time>
      </trkpt>
      <trkpt lat="42.93949099999989" lon="-1.4880999999999975">
        <ele>700.242</ele>
        <time>2022-08-24T14:48:19Z</time>
      </trkpt>
      <trkpt lat="42.93947599999989" lon="-1.4881219999999975">
        <ele>699.466</ele>
        <time>2022-08-24T14:48:20Z</time>
      </trkpt>
      <trkpt lat="42.93946799999989" lon="-1.4881379999999975">
        <ele>699.285</ele>
        <time>2022-08-24T14:48:21Z</time>
      </trkpt>
      <trkpt lat="42.93945999999989" lon="-1.4881559999999976">
        <ele>699.079</ele>
        <time>2022-08-24T14:48:22Z</time>
      </trkpt>
      <trkpt lat="42.93942699999989" lon="-1.4882139999999975">
        <ele>698.605</ele>
        <time>2022-08-24T14:48:25Z</time>
      </trkpt>
      <trkpt lat="42.93942399999989" lon="-1.4882359999999974">
        <ele>698.425</ele>
        <time>2022-08-24T14:48:26Z</time>
      </trkpt>
      <trkpt lat="42.93940699999989" lon="-1.4882809999999975">
        <ele>698.009</ele>
        <time>2022-08-24T14:48:28Z</time>
      </trkpt>
      <trkpt lat="42.93940099999989" lon="-1.4883049999999975">
        <ele>697.828</ele>
        <time>2022-08-24T14:48:29Z</time>
      </trkpt>
      <trkpt lat="42.93940099999989" lon="-1.4883259999999976">
        <ele>697.838</ele>
        <time>2022-08-24T14:48:30Z</time>
      </trkpt>
      <trkpt lat="42.93939199999989" lon="-1.4883489999999977">
        <ele>697.058</ele>
        <time>2022-08-24T14:48:31Z</time>
      </trkpt>
      <trkpt lat="42.93939199999989" lon="-1.4883509999999978">
        <ele>696.414</ele>
        <time>2022-08-24T14:48:32Z</time>
      </trkpt>
      <trkpt lat="42.93937999999989" lon="-1.4883549999999977">
        <ele>694.876</ele>
        <time>2022-08-24T14:49:20Z</time>
      </trkpt>
      <trkpt lat="42.939376999999894" lon="-1.4883809999999977">
        <ele>694.863</ele>
        <time>2022-08-24T14:49:21Z</time>
      </trkpt>
      <trkpt lat="42.939373999999894" lon="-1.4884039999999978">
        <ele>694.886</ele>
        <time>2022-08-24T14:49:22Z</time>
      </trkpt>
      <trkpt lat="42.9393669999999" lon="-1.4884579999999978">
        <ele>694.680</ele>
        <time>2022-08-24T14:49:24Z</time>
      </trkpt>
      <trkpt lat="42.9393589999999" lon="-1.4884799999999978">
        <ele>694.689</ele>
        <time>2022-08-24T14:49:25Z</time>
      </trkpt>
      <trkpt lat="42.939350999999895" lon="-1.4885019999999978">
        <ele>694.297</ele>
        <time>2022-08-24T14:49:26Z</time>
      </trkpt>
      <trkpt lat="42.9393439999999" lon="-1.4885269999999977">
        <ele>694.223</ele>
        <time>2022-08-24T14:49:27Z</time>
      </trkpt>
      <trkpt lat="42.9393439999999" lon="-1.4885269999999977">
        <ele>693.825</ele>
        <time>2022-08-24T14:49:28Z</time>
      </trkpt>
      <trkpt lat="42.9393229999999" lon="-1.4885789999999977">
        <ele>693.609</ele>
        <time>2022-08-24T14:49:29Z</time>
      </trkpt>
      <trkpt lat="42.939304999999905" lon="-1.4886089999999976">
        <ele>693.030</ele>
        <time>2022-08-24T14:49:31Z</time>
      </trkpt>
      <trkpt lat="42.93929299999991" lon="-1.4886359999999976">
        <ele>692.870</ele>
        <time>2022-08-24T14:49:32Z</time>
      </trkpt>
      <trkpt lat="42.93928599999991" lon="-1.4886579999999976">
        <ele>692.480</ele>
        <time>2022-08-24T14:49:33Z</time>
      </trkpt>
      <trkpt lat="42.93928299999991" lon="-1.4886789999999976">
        <ele>692.256</ele>
        <time>2022-08-24T14:49:34Z</time>
      </trkpt>
      <trkpt lat="42.93927799999991" lon="-1.4887009999999976">
        <ele>692.058</ele>
        <time>2022-08-24T14:49:35Z</time>
      </trkpt>
      <trkpt lat="42.93926899999991" lon="-1.4887299999999977">
        <ele>691.865</ele>
        <time>2022-08-24T14:49:36Z</time>
      </trkpt>
      <trkpt lat="42.93926899999991" lon="-1.4887299999999977">
        <ele>691.698</ele>
        <time>2022-08-24T14:49:37Z</time>
      </trkpt>
      <trkpt lat="42.93921299999991" lon="-1.4888689999999976">
        <ele>689.442</ele>
        <time>2022-08-24T14:49:55Z</time>
      </trkpt>
      <trkpt lat="42.93918299999991" lon="-1.4889069999999975">
        <ele>689.271</ele>
        <time>2022-08-24T14:49:59Z</time>
      </trkpt>
      <trkpt lat="42.939172999999904" lon="-1.4889289999999975">
        <ele>689.224</ele>
        <time>2022-08-24T14:50:00Z</time>
      </trkpt>
      <trkpt lat="42.9391569999999" lon="-1.4889339999999975">
        <ele>689.004</ele>
        <time>2022-08-24T14:50:02Z</time>
      </trkpt>
      <trkpt lat="42.9391479999999" lon="-1.4889489999999976">
        <ele>688.214</ele>
        <time>2022-08-24T14:50:04Z</time>
      </trkpt>
      <trkpt lat="42.9391349999999" lon="-1.4889509999999977">
        <ele>688.009</ele>
        <time>2022-08-24T14:50:05Z</time>
      </trkpt>
      <trkpt lat="42.9391289999999" lon="-1.4889609999999978">
        <ele>687.863</ele>
        <time>2022-08-24T14:50:06Z</time>
      </trkpt>
      <trkpt lat="42.939121999999905" lon="-1.4889909999999977">
        <ele>687.263</ele>
        <time>2022-08-24T14:50:09Z</time>
      </trkpt>
      <trkpt lat="42.93912399999991" lon="-1.4889929999999978">
        <ele>687.283</ele>
        <time>2022-08-24T14:50:10Z</time>
      </trkpt>
      <trkpt lat="42.93912399999991" lon="-1.4889949999999978">
        <ele>687.029</ele>
        <time>2022-08-24T14:50:11Z</time>
      </trkpt>
      <trkpt lat="42.93912299999991" lon="-1.4889999999999979">
        <ele>687.011</ele>
        <time>2022-08-24T14:50:12Z</time>
      </trkpt>
      <trkpt lat="42.93911999999991" lon="-1.4890029999999979">
        <ele>686.888</ele>
        <time>2022-08-24T14:50:13Z</time>
      </trkpt>
      <trkpt lat="42.93911799999991" lon="-1.4890059999999978">
        <ele>686.231</ele>
        <time>2022-08-24T14:50:16Z</time>
      </trkpt>
      <trkpt lat="42.93911399999991" lon="-1.489012999999998">
        <ele>686.025</ele>
        <time>2022-08-24T14:50:17Z</time>
      </trkpt>
      <trkpt lat="42.93910799999991" lon="-1.489022999999998">
        <ele>685.864</ele>
        <time>2022-08-24T14:50:18Z</time>
      </trkpt>
      <trkpt lat="42.93909699999991" lon="-1.489041999999998">
        <ele>685.698</ele>
        <time>2022-08-24T14:50:20Z</time>
      </trkpt>
      <trkpt lat="42.93909699999991" lon="-1.489041999999998">
        <ele>684.415</ele>
        <time>2022-08-24T14:50:25Z</time>
      </trkpt>
      <trkpt lat="42.93908099999991" lon="-1.489056999999998">
        <ele>684.226</ele>
        <time>2022-08-24T14:50:27Z</time>
      </trkpt>
      <trkpt lat="42.93897099999991" lon="-1.489146999999998">
        <ele>684.209</ele>
        <time>2022-08-24T14:50:32Z</time>
      </trkpt>
      <trkpt lat="42.93888999999991" lon="-1.489271999999998">
        <ele>683.620</ele>
        <time>2022-08-24T14:50:36Z</time>
      </trkpt>
      <trkpt lat="42.938814999999906" lon="-1.489371999999998">
        <ele>682.820</ele>
        <time>2022-08-24T14:50:39Z</time>
      </trkpt>
      <trkpt lat="42.93879499999991" lon="-1.4893939999999979">
        <ele>682.660</ele>
        <time>2022-08-24T14:50:40Z</time>
      </trkpt>
      <trkpt lat="42.93877399999991" lon="-1.4894249999999978">
        <ele>682.496</ele>
        <time>2022-08-24T14:50:41Z</time>
      </trkpt>
      <trkpt lat="42.93875299999991" lon="-1.4894569999999978">
        <ele>682.028</ele>
        <time>2022-08-24T14:50:42Z</time>
      </trkpt>
      <trkpt lat="42.938687999999914" lon="-1.4895839999999978">
        <ele>681.425</ele>
        <time>2022-08-24T14:50:45Z</time>
      </trkpt>
      <trkpt lat="42.93865999999991" lon="-1.4896459999999978">
        <ele>681.028</ele>
        <time>2022-08-24T14:50:46Z</time>
      </trkpt>
      <trkpt lat="42.93859299999991" lon="-1.4897449999999979">
        <ele>680.232</ele>
        <time>2022-08-24T14:50:48Z</time>
      </trkpt>
      <trkpt lat="42.93856599999991" lon="-1.4897939999999978">
        <ele>680.091</ele>
        <time>2022-08-24T14:50:49Z</time>
      </trkpt>
      <trkpt lat="42.93851899999991" lon="-1.4898589999999978">
        <ele>679.848</ele>
        <time>2022-08-24T14:50:50Z</time>
      </trkpt>
      <trkpt lat="42.938494999999904" lon="-1.489900999999998">
        <ele>679.861</ele>
        <time>2022-08-24T14:50:51Z</time>
      </trkpt>
      <trkpt lat="42.938494999999904" lon="-1.489900999999998">
        <ele>679.817</ele>
        <time>2022-08-24T14:50:52Z</time>
      </trkpt>
      <trkpt lat="42.9384649999999" lon="-1.489965999999998">
        <ele>679.609</ele>
        <time>2022-08-24T14:50:53Z</time>
      </trkpt>
      <trkpt lat="42.9384149999999" lon="-1.4900859999999978">
        <ele>679.295</ele>
        <time>2022-08-24T14:50:56Z</time>
      </trkpt>
      <trkpt lat="42.9383829999999" lon="-1.4901499999999979">
        <ele>679.025</ele>
        <time>2022-08-24T14:50:57Z</time>
      </trkpt>
      <trkpt lat="42.938361999999906" lon="-1.490194999999998">
        <ele>678.655</ele>
        <time>2022-08-24T14:50:58Z</time>
      </trkpt>
      <trkpt lat="42.9383459999999" lon="-1.4902339999999978">
        <ele>678.671</ele>
        <time>2022-08-24T14:50:59Z</time>
      </trkpt>
      <trkpt lat="42.9383239999999" lon="-1.4902619999999978">
        <ele>678.263</ele>
        <time>2022-08-24T14:51:00Z</time>
      </trkpt>
      <trkpt lat="42.9383129999999" lon="-1.4902869999999977">
        <ele>677.860</ele>
        <time>2022-08-24T14:51:01Z</time>
      </trkpt>
      <trkpt lat="42.9383069999999" lon="-1.4903099999999978">
        <ele>677.253</ele>
        <time>2022-08-24T14:51:02Z</time>
      </trkpt>
      <trkpt lat="42.938299999999906" lon="-1.4903419999999978">
        <ele>676.617</ele>
        <time>2022-08-24T14:51:03Z</time>
      </trkpt>
      <trkpt lat="42.938299999999906" lon="-1.4903619999999977">
        <ele>676.496</ele>
        <time>2022-08-24T14:51:04Z</time>
      </trkpt>
      <trkpt lat="42.938299999999906" lon="-1.4903769999999978">
        <ele>676.016</ele>
        <time>2022-08-24T14:51:05Z</time>
      </trkpt>
      <trkpt lat="42.93829099999991" lon="-1.4904039999999978">
        <ele>676.076</ele>
        <time>2022-08-24T14:51:06Z</time>
      </trkpt>
      <trkpt lat="42.93828999999991" lon="-1.4904149999999978">
        <ele>675.813</ele>
        <time>2022-08-24T14:51:07Z</time>
      </trkpt>
      <trkpt lat="42.93828799999991" lon="-1.4904289999999978">
        <ele>675.809</ele>
        <time>2022-08-24T14:51:08Z</time>
      </trkpt>
      <trkpt lat="42.93828399999991" lon="-1.4904459999999977">
        <ele>675.872</ele>
        <time>2022-08-24T14:51:09Z</time>
      </trkpt>
      <trkpt lat="42.93828299999991" lon="-1.4904639999999978">
        <ele>675.872</ele>
        <time>2022-08-24T14:51:10Z</time>
      </trkpt>
      <trkpt lat="42.938279999999914" lon="-1.4904999999999977">
        <ele>675.852</ele>
        <time>2022-08-24T14:51:11Z</time>
      </trkpt>
      <trkpt lat="42.93826399999991" lon="-1.4905589999999977">
        <ele>675.898</ele>
        <time>2022-08-24T14:51:13Z</time>
      </trkpt>
      <trkpt lat="42.93822399999991" lon="-1.4906969999999977">
        <ele>675.250</ele>
        <time>2022-08-24T14:51:16Z</time>
      </trkpt>
      <trkpt lat="42.93821099999991" lon="-1.4907419999999978">
        <ele>674.627</ele>
        <time>2022-08-24T14:51:17Z</time>
      </trkpt>
      <trkpt lat="42.93821099999991" lon="-1.4907419999999978">
        <ele>674.860</ele>
        <time>2022-08-24T14:51:18Z</time>
      </trkpt>
      <trkpt lat="42.93819599999991" lon="-1.4908129999999977">
        <ele>674.444</ele>
        <time>2022-08-24T14:51:19Z</time>
      </trkpt>
      <trkpt lat="42.93818999999991" lon="-1.4908289999999977">
        <ele>674.273</ele>
        <time>2022-08-24T14:51:20Z</time>
      </trkpt>
      <trkpt lat="42.93818299999992" lon="-1.4908429999999977">
        <ele>674.088</ele>
        <time>2022-08-24T14:51:21Z</time>
      </trkpt>
      <trkpt lat="42.93817699999992" lon="-1.4908569999999977">
        <ele>673.624</ele>
        <time>2022-08-24T14:51:22Z</time>
      </trkpt>
      <trkpt lat="42.93817899999992" lon="-1.4909049999999977">
        <ele>672.826</ele>
        <time>2022-08-24T14:51:35Z</time>
      </trkpt>
      <trkpt lat="42.93817899999992" lon="-1.4909049999999977">
        <ele>672.809</ele>
        <time>2022-08-24T14:51:38Z</time>
      </trkpt>
      <trkpt lat="42.93817899999992" lon="-1.4909049999999977">
        <ele>672.659</ele>
        <time>2022-08-24T14:51:39Z</time>
      </trkpt>
      <trkpt lat="42.93817499999992" lon="-1.4909219999999976">
        <ele>672.679</ele>
        <time>2022-08-24T14:51:42Z</time>
      </trkpt>
      <trkpt lat="42.938170999999926" lon="-1.4909359999999976">
        <ele>672.619</ele>
        <time>2022-08-24T14:51:43Z</time>
      </trkpt>
      <trkpt lat="42.938156999999926" lon="-1.4910039999999976">
        <ele>672.295</ele>
        <time>2022-08-24T14:51:47Z</time>
      </trkpt>
      <trkpt lat="42.938154999999924" lon="-1.4910169999999976">
        <ele>672.077</ele>
        <time>2022-08-24T14:51:49Z</time>
      </trkpt>
      <trkpt lat="42.93815099999993" lon="-1.4910319999999977">
        <ele>671.694</ele>
        <time>2022-08-24T14:51:53Z</time>
      </trkpt>
      <trkpt lat="42.938151999999924" lon="-1.4910399999999977">
        <ele>671.497</ele>
        <time>2022-08-24T14:51:54Z</time>
      </trkpt>
      <trkpt lat="42.93815599999992" lon="-1.4910519999999976">
        <ele>671.241</ele>
        <time>2022-08-24T14:51:55Z</time>
      </trkpt>
      <trkpt lat="42.93815299999992" lon="-1.4910689999999975">
        <ele>671.260</ele>
        <time>2022-08-24T14:51:56Z</time>
      </trkpt>
      <trkpt lat="42.93815299999992" lon="-1.4910869999999976">
        <ele>671.253</ele>
        <time>2022-08-24T14:51:57Z</time>
      </trkpt>
      <trkpt lat="42.93814999999992" lon="-1.4911209999999977">
        <ele>671.004</ele>
        <time>2022-08-24T14:52:00Z</time>
      </trkpt>
      <trkpt lat="42.93814999999992" lon="-1.4911209999999977">
        <ele>671.014</ele>
        <time>2022-08-24T14:52:01Z</time>
      </trkpt>
      <trkpt lat="42.93814999999992" lon="-1.4911209999999977">
        <ele>671.009</ele>
        <time>2022-08-24T14:52:02Z</time>
      </trkpt>
      <trkpt lat="42.93814199999992" lon="-1.4911509999999977">
        <ele>670.816</ele>
        <time>2022-08-24T14:52:04Z</time>
      </trkpt>
      <trkpt lat="42.93813699999992" lon="-1.4911679999999976">
        <ele>670.816</ele>
        <time>2022-08-24T14:52:05Z</time>
      </trkpt>
      <trkpt lat="42.93813199999992" lon="-1.4911909999999977">
        <ele>670.646</ele>
        <time>2022-08-24T14:52:07Z</time>
      </trkpt>
      <trkpt lat="42.93812299999992" lon="-1.4912159999999977">
        <ele>670.652</ele>
        <time>2022-08-24T14:52:08Z</time>
      </trkpt>
      <trkpt lat="42.93810999999992" lon="-1.4912819999999976">
        <ele>670.244</ele>
        <time>2022-08-24T14:52:12Z</time>
      </trkpt>
      <trkpt lat="42.93811199999992" lon="-1.4912929999999975">
        <ele>670.051</ele>
        <time>2022-08-24T14:52:13Z</time>
      </trkpt>
      <trkpt lat="42.938112999999916" lon="-1.4913049999999974">
        <ele>669.664</ele>
        <time>2022-08-24T14:52:14Z</time>
      </trkpt>
      <trkpt lat="42.938107999999914" lon="-1.4913339999999975">
        <ele>669.228</ele>
        <time>2022-08-24T14:52:16Z</time>
      </trkpt>
      <trkpt lat="42.93810599999991" lon="-1.4913449999999975">
        <ele>669.027</ele>
        <time>2022-08-24T14:52:17Z</time>
      </trkpt>
      <trkpt lat="42.938101999999915" lon="-1.4913569999999974">
        <ele>668.883</ele>
        <time>2022-08-24T14:52:18Z</time>
      </trkpt>
      <trkpt lat="42.93809799999992" lon="-1.4913669999999974">
        <ele>668.825</ele>
        <time>2022-08-24T14:52:19Z</time>
      </trkpt>
      <trkpt lat="42.938095999999916" lon="-1.4913799999999975">
        <ele>668.817</ele>
        <time>2022-08-24T14:52:20Z</time>
      </trkpt>
      <trkpt lat="42.938093999999914" lon="-1.4913949999999976">
        <ele>668.809</ele>
        <time>2022-08-24T14:52:21Z</time>
      </trkpt>
      <trkpt lat="42.938093999999914" lon="-1.4914029999999976">
        <ele>668.869</ele>
        <time>2022-08-24T14:52:22Z</time>
      </trkpt>
      <trkpt lat="42.93809299999992" lon="-1.4914149999999975">
        <ele>668.829</ele>
        <time>2022-08-24T14:52:23Z</time>
      </trkpt>
      <trkpt lat="42.93809299999992" lon="-1.4914539999999974">
        <ele>668.659</ele>
        <time>2022-08-24T14:52:28Z</time>
      </trkpt>
      <trkpt lat="42.93809199999992" lon="-1.4914649999999974">
        <ele>668.425</ele>
        <time>2022-08-24T14:52:29Z</time>
      </trkpt>
      <trkpt lat="42.93809199999992" lon="-1.4914699999999974">
        <ele>668.267</ele>
        <time>2022-08-24T14:52:30Z</time>
      </trkpt>
      <trkpt lat="42.93808899999992" lon="-1.4914759999999974">
        <ele>668.254</ele>
        <time>2022-08-24T14:52:31Z</time>
      </trkpt>
      <trkpt lat="42.93807699999992" lon="-1.4915059999999973">
        <ele>668.027</ele>
        <time>2022-08-24T14:52:34Z</time>
      </trkpt>
      <trkpt lat="42.93807099999992" lon="-1.4915209999999974">
        <ele>667.881</ele>
        <time>2022-08-24T14:52:35Z</time>
      </trkpt>
      <trkpt lat="42.938066999999926" lon="-1.4915309999999975">
        <ele>667.850</ele>
        <time>2022-08-24T14:52:36Z</time>
      </trkpt>
      <trkpt lat="42.93805699999992" lon="-1.4915539999999976">
        <ele>667.637</ele>
        <time>2022-08-24T14:52:38Z</time>
      </trkpt>
      <trkpt lat="42.93805399999992" lon="-1.4915659999999975">
        <ele>667.649</ele>
        <time>2022-08-24T14:52:39Z</time>
      </trkpt>
      <trkpt lat="42.938052999999925" lon="-1.4915779999999974">
        <ele>667.613</ele>
        <time>2022-08-24T14:52:40Z</time>
      </trkpt>
      <trkpt lat="42.93805499999993" lon="-1.4915899999999973">
        <ele>667.409</ele>
        <time>2022-08-24T14:52:41Z</time>
      </trkpt>
      <trkpt lat="42.93805399999993" lon="-1.4916059999999973">
        <ele>667.484</ele>
        <time>2022-08-24T14:52:42Z</time>
      </trkpt>
      <trkpt lat="42.93805199999993" lon="-1.4916179999999972">
        <ele>667.294</ele>
        <time>2022-08-24T14:52:43Z</time>
      </trkpt>
      <trkpt lat="42.938046999999926" lon="-1.4916269999999971">
        <ele>667.014</ele>
        <time>2022-08-24T14:52:44Z</time>
      </trkpt>
      <trkpt lat="42.93804399999993" lon="-1.4916379999999971">
        <ele>666.860</ele>
        <time>2022-08-24T14:52:45Z</time>
      </trkpt>
      <trkpt lat="42.93804299999993" lon="-1.491643999999997">
        <ele>666.842</ele>
        <time>2022-08-24T14:52:46Z</time>
      </trkpt>
      <trkpt lat="42.93804099999993" lon="-1.491647999999997">
        <ele>666.839</ele>
        <time>2022-08-24T14:52:47Z</time>
      </trkpt>
      <trkpt lat="42.938032999999926" lon="-1.491663999999997">
        <ele>666.692</ele>
        <time>2022-08-24T14:52:50Z</time>
      </trkpt>
      <trkpt lat="42.938030999999924" lon="-1.491670999999997">
        <ele>666.646</ele>
        <time>2022-08-24T14:52:51Z</time>
      </trkpt>
      <trkpt lat="42.938027999999925" lon="-1.491674999999997">
        <ele>666.675</ele>
        <time>2022-08-24T14:52:52Z</time>
      </trkpt>
      <trkpt lat="42.93802699999993" lon="-1.491679999999997">
        <ele>666.623</ele>
        <time>2022-08-24T14:52:53Z</time>
      </trkpt>
      <trkpt lat="42.93802399999993" lon="-1.491689999999997">
        <ele>666.683</ele>
        <time>2022-08-24T14:52:54Z</time>
      </trkpt>
      <trkpt lat="42.93801699999993" lon="-1.4917109999999971">
        <ele>666.211</ele>
        <time>2022-08-24T14:52:58Z</time>
      </trkpt>
      <trkpt lat="42.938012999999934" lon="-1.4917289999999972">
        <ele>666.009</ele>
        <time>2022-08-24T14:52:59Z</time>
      </trkpt>
      <trkpt lat="42.93801199999994" lon="-1.4917359999999973">
        <ele>665.823</ele>
        <time>2022-08-24T14:53:01Z</time>
      </trkpt>
      <trkpt lat="42.93801099999994" lon="-1.4917449999999972">
        <ele>665.883</ele>
        <time>2022-08-24T14:53:02Z</time>
      </trkpt>
      <trkpt lat="42.93800999999994" lon="-1.4917549999999973">
        <ele>665.683</ele>
        <time>2022-08-24T14:53:03Z</time>
      </trkpt>
      <trkpt lat="42.93801099999994" lon="-1.4917589999999972">
        <ele>665.449</ele>
        <time>2022-08-24T14:53:05Z</time>
      </trkpt>
      <trkpt lat="42.93801099999994" lon="-1.4917589999999972">
        <ele>665.221</ele>
        <time>2022-08-24T14:53:06Z</time>
      </trkpt>
      <trkpt lat="42.93800999999994" lon="-1.491767999999997">
        <ele>665.288</ele>
        <time>2022-08-24T14:53:07Z</time>
      </trkpt>
      <trkpt lat="42.938005999999945" lon="-1.4917859999999972">
        <ele>665.221</ele>
        <time>2022-08-24T14:53:08Z</time>
      </trkpt>
      <trkpt lat="42.937999999999946" lon="-1.4918449999999972">
        <ele>665.025</ele>
        <time>2022-08-24T14:53:10Z</time>
      </trkpt>
      <trkpt lat="42.93799299999995" lon="-1.4919009999999973">
        <ele>665.014</ele>
        <time>2022-08-24T14:53:12Z</time>
      </trkpt>
      <trkpt lat="42.93799099999995" lon="-1.4919299999999973">
        <ele>664.836</ele>
        <time>2022-08-24T14:53:13Z</time>
      </trkpt>
      <trkpt lat="42.93799299999995" lon="-1.4919529999999974">
        <ele>664.817</ele>
        <time>2022-08-24T14:53:14Z</time>
      </trkpt>
      <trkpt lat="42.93799599999995" lon="-1.4919589999999974">
        <ele>664.618</ele>
        <time>2022-08-24T14:53:15Z</time>
      </trkpt>
      <trkpt lat="42.93798999999995" lon="-1.4920339999999974">
        <ele>663.009</ele>
        <time>2022-08-24T14:53:42Z</time>
      </trkpt>
      <trkpt lat="42.93798999999995" lon="-1.4920339999999974">
        <ele>663.054</ele>
        <time>2022-08-24T14:53:46Z</time>
      </trkpt>
      <trkpt lat="42.93798999999995" lon="-1.4920339999999974">
        <ele>663.064</ele>
        <time>2022-08-24T14:53:47Z</time>
      </trkpt>
      <trkpt lat="42.93798999999995" lon="-1.4920339999999974">
        <ele>663.024</ele>
        <time>2022-08-24T14:53:48Z</time>
      </trkpt>
      <trkpt lat="42.93798899999995" lon="-1.4920389999999975">
        <ele>662.810</ele>
        <time>2022-08-24T14:54:01Z</time>
      </trkpt>
      <trkpt lat="42.93798099999995" lon="-1.4920849999999974">
        <ele>662.272</ele>
        <time>2022-08-24T14:54:05Z</time>
      </trkpt>
      <trkpt lat="42.93797899999995" lon="-1.4921069999999974">
        <ele>662.229</ele>
        <time>2022-08-24T14:54:06Z</time>
      </trkpt>
      <trkpt lat="42.93797499999995" lon="-1.4921319999999973">
        <ele>662.042</ele>
        <time>2022-08-24T14:54:07Z</time>
      </trkpt>
      <trkpt lat="42.93796899999995" lon="-1.4921849999999974">
        <ele>661.646</ele>
        <time>2022-08-24T14:54:09Z</time>
      </trkpt>
      <trkpt lat="42.93796399999995" lon="-1.4922299999999975">
        <ele>661.235</ele>
        <time>2022-08-24T14:54:11Z</time>
      </trkpt>
      <trkpt lat="42.93796199999995" lon="-1.4922549999999974">
        <ele>660.828</ele>
        <time>2022-08-24T14:54:12Z</time>
      </trkpt>
      <trkpt lat="42.93795999999995" lon="-1.4922669999999973">
        <ele>660.889</ele>
        <time>2022-08-24T14:54:13Z</time>
      </trkpt>
      <trkpt lat="42.937960999999945" lon="-1.4922859999999973">
        <ele>660.617</ele>
        <time>2022-08-24T14:54:15Z</time>
      </trkpt>
      <trkpt lat="42.93795999999995" lon="-1.4922989999999974">
        <ele>660.409</ele>
        <time>2022-08-24T14:54:16Z</time>
      </trkpt>
      <trkpt lat="42.93794799999995" lon="-1.4923659999999974">
        <ele>660.213</ele>
        <time>2022-08-24T14:54:19Z</time>
      </trkpt>
      <trkpt lat="42.93793699999995" lon="-1.4923979999999974">
        <ele>660.033</ele>
        <time>2022-08-24T14:54:21Z</time>
      </trkpt>
      <trkpt lat="42.93792899999995" lon="-1.4924119999999974">
        <ele>660.013</ele>
        <time>2022-08-24T14:54:22Z</time>
      </trkpt>
      <trkpt lat="42.93792799999995" lon="-1.4924169999999974">
        <ele>659.839</ele>
        <time>2022-08-24T14:54:23Z</time>
      </trkpt>
      <trkpt lat="42.93792799999995" lon="-1.4924169999999974">
        <ele>659.831</ele>
        <time>2022-08-24T14:54:25Z</time>
      </trkpt>
      <trkpt lat="42.93792099999995" lon="-1.4924569999999975">
        <ele>659.638</ele>
        <time>2022-08-24T14:54:29Z</time>
      </trkpt>
      <trkpt lat="42.93790699999995" lon="-1.4925299999999975">
        <ele>659.021</ele>
        <time>2022-08-24T14:54:35Z</time>
      </trkpt>
      <trkpt lat="42.937908999999955" lon="-1.4925539999999975">
        <ele>658.475</ele>
        <time>2022-08-24T14:54:38Z</time>
      </trkpt>
      <trkpt lat="42.93790699999995" lon="-1.4925629999999974">
        <ele>658.244</ele>
        <time>2022-08-24T14:54:39Z</time>
      </trkpt>
      <trkpt lat="42.937905999999955" lon="-1.4925679999999975">
        <ele>658.269</ele>
        <time>2022-08-24T14:54:40Z</time>
      </trkpt>
      <trkpt lat="42.937894999999955" lon="-1.4925889999999975">
        <ele>657.604</ele>
        <time>2022-08-24T14:54:50Z</time>
      </trkpt>
      <trkpt lat="42.937891999999955" lon="-1.4925909999999976">
        <ele>657.824</ele>
        <time>2022-08-24T14:54:54Z</time>
      </trkpt>
      <trkpt lat="42.937891999999955" lon="-1.4925909999999976">
        <ele>657.609</ele>
        <time>2022-08-24T14:54:55Z</time>
      </trkpt>
      <trkpt lat="42.937891999999955" lon="-1.4925909999999976">
        <ele>657.447</ele>
        <time>2022-08-24T14:54:57Z</time>
      </trkpt>
      <trkpt lat="42.937891999999955" lon="-1.4925909999999976">
        <ele>657.247</ele>
        <time>2022-08-24T14:55:00Z</time>
      </trkpt>
      <trkpt lat="42.937891999999955" lon="-1.4925909999999976">
        <ele>657.257</ele>
        <time>2022-08-24T14:55:01Z</time>
      </trkpt>
      <trkpt lat="42.937891999999955" lon="-1.4925909999999976">
        <ele>656.853</ele>
        <time>2022-08-24T14:55:03Z</time>
      </trkpt>
      <trkpt lat="42.937891999999955" lon="-1.4925909999999976">
        <ele>656.255</ele>
        <time>2022-08-24T14:55:07Z</time>
      </trkpt>
      <trkpt lat="42.93788999999995" lon="-1.4925949999999975">
        <ele>656.252</ele>
        <time>2022-08-24T14:55:08Z</time>
      </trkpt>
      <trkpt lat="42.93787599999995" lon="-1.4926409999999974">
        <ele>655.855</ele>
        <time>2022-08-24T14:55:12Z</time>
      </trkpt>
      <trkpt lat="42.93784499999995" lon="-1.4927419999999973">
        <ele>655.249</ele>
        <time>2022-08-24T14:55:18Z</time>
      </trkpt>
      <trkpt lat="42.93783099999995" lon="-1.4927759999999974">
        <ele>655.058</ele>
        <time>2022-08-24T14:55:20Z</time>
      </trkpt>
      <trkpt lat="42.93783099999995" lon="-1.4927759999999974">
        <ele>654.835</ele>
        <time>2022-08-24T14:55:22Z</time>
      </trkpt>
      <trkpt lat="42.93783099999995" lon="-1.4927759999999974">
        <ele>654.686</ele>
        <time>2022-08-24T14:55:23Z</time>
      </trkpt>
      <trkpt lat="42.93782899999995" lon="-1.4927849999999974">
        <ele>654.414</ele>
        <time>2022-08-24T14:55:25Z</time>
      </trkpt>
      <trkpt lat="42.93782599999995" lon="-1.4927959999999973">
        <ele>654.209</ele>
        <time>2022-08-24T14:55:26Z</time>
      </trkpt>
      <trkpt lat="42.93782399999995" lon="-1.4928069999999973">
        <ele>654.274</ele>
        <time>2022-08-24T14:55:27Z</time>
      </trkpt>
      <trkpt lat="42.93782199999995" lon="-1.4928119999999974">
        <ele>653.654</ele>
        <time>2022-08-24T14:55:35Z</time>
      </trkpt>
      <trkpt lat="42.93782199999995" lon="-1.4928119999999974">
        <ele>653.634</ele>
        <time>2022-08-24T14:55:36Z</time>
      </trkpt>
      <trkpt lat="42.93782199999995" lon="-1.4928119999999974">
        <ele>653.440</ele>
        <time>2022-08-24T14:55:43Z</time>
      </trkpt>
      <trkpt lat="42.93782199999995" lon="-1.4928119999999974">
        <ele>653.262</ele>
        <time>2022-08-24T14:55:44Z</time>
      </trkpt>
      <trkpt lat="42.937805999999945" lon="-1.4929159999999975">
        <ele>653.059</ele>
        <time>2022-08-24T14:55:49Z</time>
      </trkpt>
      <trkpt lat="42.93778999999994" lon="-1.4930129999999975">
        <ele>652.642</ele>
        <time>2022-08-24T14:55:53Z</time>
      </trkpt>
      <trkpt lat="42.937788999999945" lon="-1.4930639999999975">
        <ele>652.076</ele>
        <time>2022-08-24T14:55:56Z</time>
      </trkpt>
      <trkpt lat="42.93778699999994" lon="-1.4930719999999975">
        <ele>652.045</ele>
        <time>2022-08-24T14:55:57Z</time>
      </trkpt>
      <trkpt lat="42.93777999999995" lon="-1.4930959999999975">
        <ele>651.872</ele>
        <time>2022-08-24T14:55:59Z</time>
      </trkpt>
      <trkpt lat="42.937774999999945" lon="-1.4931149999999975">
        <ele>651.613</ele>
        <time>2022-08-24T14:56:00Z</time>
      </trkpt>
      <trkpt lat="42.93777399999995" lon="-1.4931369999999975">
        <ele>651.614</ele>
        <time>2022-08-24T14:56:01Z</time>
      </trkpt>
      <trkpt lat="42.93777099999995" lon="-1.4931759999999974">
        <ele>650.809</ele>
        <time>2022-08-24T14:56:04Z</time>
      </trkpt>
      <trkpt lat="42.93776199999995" lon="-1.4932149999999973">
        <ele>650.288</ele>
        <time>2022-08-24T14:56:11Z</time>
      </trkpt>
      <trkpt lat="42.93772299999995" lon="-1.4932789999999974">
        <ele>649.888</ele>
        <time>2022-08-24T14:56:14Z</time>
      </trkpt>
      <trkpt lat="42.937712999999945" lon="-1.4933059999999974">
        <ele>649.628</ele>
        <time>2022-08-24T14:56:15Z</time>
      </trkpt>
      <trkpt lat="42.937707999999944" lon="-1.4933189999999974">
        <ele>649.624</ele>
        <time>2022-08-24T14:56:16Z</time>
      </trkpt>
      <trkpt lat="42.93770399999995" lon="-1.4933379999999974">
        <ele>649.086</ele>
        <time>2022-08-24T14:56:20Z</time>
      </trkpt>
      <trkpt lat="42.93769499999995" lon="-1.4933559999999975">
        <ele>648.443</ele>
        <time>2022-08-24T14:56:23Z</time>
      </trkpt>
      <trkpt lat="42.93768799999995" lon="-1.4933569999999974">
        <ele>648.286</ele>
        <time>2022-08-24T14:56:24Z</time>
      </trkpt>
      <trkpt lat="42.93766299999995" lon="-1.4933689999999973">
        <ele>647.870</ele>
        <time>2022-08-24T14:56:32Z</time>
      </trkpt>
      <trkpt lat="42.937655999999954" lon="-1.4933819999999973">
        <ele>647.499</ele>
        <time>2022-08-24T14:56:35Z</time>
      </trkpt>
      <trkpt lat="42.937655999999954" lon="-1.4933819999999973">
        <ele>647.472</ele>
        <time>2022-08-24T14:56:36Z</time>
      </trkpt>
      <trkpt lat="42.93765499999996" lon="-1.4933839999999974">
        <ele>647.213</ele>
        <time>2022-08-24T14:56:37Z</time>
      </trkpt>
      <trkpt lat="42.93763199999996" lon="-1.4934179999999975">
        <ele>647.014</ele>
        <time>2022-08-24T14:56:40Z</time>
      </trkpt>
      <trkpt lat="42.93762399999996" lon="-1.4934269999999974">
        <ele>647.009</ele>
        <time>2022-08-24T14:56:41Z</time>
      </trkpt>
      <trkpt lat="42.937618999999955" lon="-1.4934369999999975">
        <ele>647.048</ele>
        <time>2022-08-24T14:56:42Z</time>
      </trkpt>
      <trkpt lat="42.937613999999954" lon="-1.4934479999999974">
        <ele>646.828</ele>
        <time>2022-08-24T14:56:43Z</time>
      </trkpt>
      <trkpt lat="42.937607999999955" lon="-1.4934579999999975">
        <ele>646.648</ele>
        <time>2022-08-24T14:56:44Z</time>
      </trkpt>
      <trkpt lat="42.93755299999995" lon="-1.4935379999999976">
        <ele>646.014</ele>
        <time>2022-08-24T14:56:50Z</time>
      </trkpt>
      <trkpt lat="42.93754399999995" lon="-1.4935509999999976">
        <ele>645.696</ele>
        <time>2022-08-24T14:56:51Z</time>
      </trkpt>
      <trkpt lat="42.937536999999956" lon="-1.4935609999999977">
        <ele>645.633</ele>
        <time>2022-08-24T14:56:52Z</time>
      </trkpt>
      <trkpt lat="42.937531999999955" lon="-1.4935669999999976">
        <ele>645.666</ele>
        <time>2022-08-24T14:56:53Z</time>
      </trkpt>
      <trkpt lat="42.93752199999995" lon="-1.4935819999999977">
        <ele>644.860</ele>
        <time>2022-08-24T14:57:00Z</time>
      </trkpt>
      <trkpt lat="42.93749999999995" lon="-1.4936119999999977">
        <ele>644.629</ele>
        <time>2022-08-24T14:57:02Z</time>
      </trkpt>
      <trkpt lat="42.93741199999995" lon="-1.4937079999999978">
        <ele>644.459</ele>
        <time>2022-08-24T14:57:07Z</time>
      </trkpt>
      <trkpt lat="42.93738999999995" lon="-1.4937379999999978">
        <ele>644.403</ele>
        <time>2022-08-24T14:57:08Z</time>
      </trkpt>
      <trkpt lat="42.93735099999995" lon="-1.4937929999999977">
        <ele>644.223</ele>
        <time>2022-08-24T14:57:10Z</time>
      </trkpt>
      <trkpt lat="42.93733299999995" lon="-1.4938239999999976">
        <ele>644.209</ele>
        <time>2022-08-24T14:57:11Z</time>
      </trkpt>
      <trkpt lat="42.93730799999995" lon="-1.4938529999999977">
        <ele>643.886</ele>
        <time>2022-08-24T14:57:12Z</time>
      </trkpt>
      <trkpt lat="42.93726699999995" lon="-1.4938769999999977">
        <ele>643.656</ele>
        <time>2022-08-24T14:57:13Z</time>
      </trkpt>
      <trkpt lat="42.93721699999995" lon="-1.4939039999999977">
        <ele>643.246</ele>
        <time>2022-08-24T14:57:14Z</time>
      </trkpt>
      <trkpt lat="42.93717999999995" lon="-1.4939249999999977">
        <ele>643.082</ele>
        <time>2022-08-24T14:57:15Z</time>
      </trkpt>
      <trkpt lat="42.93714899999995" lon="-1.4939519999999977">
        <ele>642.824</ele>
        <time>2022-08-24T14:57:16Z</time>
      </trkpt>
      <trkpt lat="42.93711199999995" lon="-1.4939789999999977">
        <ele>642.411</ele>
        <time>2022-08-24T14:57:17Z</time>
      </trkpt>
      <trkpt lat="42.93698799999995" lon="-1.4940709999999977">
        <ele>641.864</ele>
        <time>2022-08-24T14:57:20Z</time>
      </trkpt>
      <trkpt lat="42.93695299999995" lon="-1.4941079999999978">
        <ele>641.858</ele>
        <time>2022-08-24T14:57:21Z</time>
      </trkpt>
      <trkpt lat="42.93680699999995" lon="-1.4942499999999979">
        <ele>641.427</ele>
        <time>2022-08-24T14:57:24Z</time>
      </trkpt>
      <trkpt lat="42.93674199999995" lon="-1.494302999999998">
        <ele>641.235</ele>
        <time>2022-08-24T14:57:25Z</time>
      </trkpt>
      <trkpt lat="42.93668399999995" lon="-1.494353999999998">
        <ele>640.886</ele>
        <time>2022-08-24T14:57:26Z</time>
      </trkpt>
      <trkpt lat="42.93663899999995" lon="-1.494402999999998">
        <ele>640.614</ele>
        <time>2022-08-24T14:57:27Z</time>
      </trkpt>
      <trkpt lat="42.93659199999995" lon="-1.4944439999999979">
        <ele>640.609</ele>
        <time>2022-08-24T14:57:28Z</time>
      </trkpt>
      <trkpt lat="42.936555999999946" lon="-1.4944819999999979">
        <ele>640.264</ele>
        <time>2022-08-24T14:57:29Z</time>
      </trkpt>
      <trkpt lat="42.936516999999945" lon="-1.4945199999999979">
        <ele>640.024</ele>
        <time>2022-08-24T14:57:30Z</time>
      </trkpt>
      <trkpt lat="42.936457999999945" lon="-1.4945819999999979">
        <ele>639.644</ele>
        <time>2022-08-24T14:57:31Z</time>
      </trkpt>
      <trkpt lat="42.936350999999945" lon="-1.4946599999999979">
        <ele>639.490</ele>
        <time>2022-08-24T14:57:33Z</time>
      </trkpt>
      <trkpt lat="42.936297999999944" lon="-1.4946959999999978">
        <ele>639.252</ele>
        <time>2022-08-24T14:57:34Z</time>
      </trkpt>
      <trkpt lat="42.93625099999994" lon="-1.4947279999999978">
        <ele>639.249</ele>
        <time>2022-08-24T14:57:35Z</time>
      </trkpt>
      <trkpt lat="42.93621399999994" lon="-1.4947489999999979">
        <ele>639.272</ele>
        <time>2022-08-24T14:57:36Z</time>
      </trkpt>
      <trkpt lat="42.93616699999994" lon="-1.4947629999999978">
        <ele>639.046</ele>
        <time>2022-08-24T14:57:37Z</time>
      </trkpt>
      <trkpt lat="42.93613099999994" lon="-1.4947789999999979">
        <ele>639.215</ele>
        <time>2022-08-24T14:57:38Z</time>
      </trkpt>
      <trkpt lat="42.93610599999994" lon="-1.4947949999999979">
        <ele>639.248</ele>
        <time>2022-08-24T14:57:39Z</time>
      </trkpt>
      <trkpt lat="42.93606999999994" lon="-1.494817999999998">
        <ele>639.061</ele>
        <time>2022-08-24T14:57:40Z</time>
      </trkpt>
      <trkpt lat="42.936039999999934" lon="-1.494840999999998">
        <ele>639.217</ele>
        <time>2022-08-24T14:57:41Z</time>
      </trkpt>
      <trkpt lat="42.93600999999993" lon="-1.494856999999998">
        <ele>639.209</ele>
        <time>2022-08-24T14:57:42Z</time>
      </trkpt>
      <trkpt lat="42.93592099999993" lon="-1.494916999999998">
        <ele>639.225</ele>
        <time>2022-08-24T14:57:45Z</time>
      </trkpt>
      <trkpt lat="42.935882999999926" lon="-1.494935999999998">
        <ele>639.495</ele>
        <time>2022-08-24T14:57:46Z</time>
      </trkpt>
      <trkpt lat="42.93578099999993" lon="-1.4949969999999981">
        <ele>639.275</ele>
        <time>2022-08-24T14:57:49Z</time>
      </trkpt>
      <trkpt lat="42.935713999999926" lon="-1.4950289999999982">
        <ele>639.241</ele>
        <time>2022-08-24T14:57:51Z</time>
      </trkpt>
      <trkpt lat="42.93562899999993" lon="-1.4951089999999982">
        <ele>639.053</ele>
        <time>2022-08-24T14:57:53Z</time>
      </trkpt>
      <trkpt lat="42.93558299999993" lon="-1.4951679999999983">
        <ele>639.050</ele>
        <time>2022-08-24T14:57:54Z</time>
      </trkpt>
      <trkpt lat="42.93555899999993" lon="-1.4951939999999984">
        <ele>639.073</ele>
        <time>2022-08-24T14:57:55Z</time>
      </trkpt>
      <trkpt lat="42.935530999999926" lon="-1.4952249999999982">
        <ele>639.087</ele>
        <time>2022-08-24T14:57:56Z</time>
      </trkpt>
      <trkpt lat="42.93549399999993" lon="-1.4952419999999982">
        <ele>639.056</ele>
        <time>2022-08-24T14:57:57Z</time>
      </trkpt>
      <trkpt lat="42.93546899999993" lon="-1.4952589999999981">
        <ele>639.063</ele>
        <time>2022-08-24T14:57:58Z</time>
      </trkpt>
      <trkpt lat="42.93544599999993" lon="-1.4952799999999982">
        <ele>639.044</ele>
        <time>2022-08-24T14:57:59Z</time>
      </trkpt>
      <trkpt lat="42.93539199999993" lon="-1.4953039999999982">
        <ele>639.018</ele>
        <time>2022-08-24T14:58:01Z</time>
      </trkpt>
      <trkpt lat="42.935364999999926" lon="-1.4953139999999983">
        <ele>639.009</ele>
        <time>2022-08-24T14:58:02Z</time>
      </trkpt>
      <trkpt lat="42.935339999999925" lon="-1.4953249999999982">
        <ele>639.037</ele>
        <time>2022-08-24T14:58:03Z</time>
      </trkpt>
      <trkpt lat="42.93517299999993" lon="-1.4954199999999982">
        <ele>639.257</ele>
        <time>2022-08-24T14:58:09Z</time>
      </trkpt>
      <trkpt lat="42.93514499999993" lon="-1.495439999999998">
        <ele>639.287</ele>
        <time>2022-08-24T14:58:10Z</time>
      </trkpt>
      <trkpt lat="42.935117999999925" lon="-1.495456999999998">
        <ele>639.293</ele>
        <time>2022-08-24T14:58:11Z</time>
      </trkpt>
      <trkpt lat="42.935092999999924" lon="-1.495467999999998">
        <ele>639.295</ele>
        <time>2022-08-24T14:58:12Z</time>
      </trkpt>
      <trkpt lat="42.935066999999925" lon="-1.495479999999998">
        <ele>639.282</ele>
        <time>2022-08-24T14:58:13Z</time>
      </trkpt>
      <trkpt lat="42.93503999999992" lon="-1.495495999999998">
        <ele>639.255</ele>
        <time>2022-08-24T14:58:14Z</time>
      </trkpt>
      <trkpt lat="42.93489399999992" lon="-1.495576999999998">
        <ele>639.689</ele>
        <time>2022-08-24T14:58:19Z</time>
      </trkpt>
      <trkpt lat="42.934833999999924" lon="-1.495595999999998">
        <ele>639.688</ele>
        <time>2022-08-24T14:58:21Z</time>
      </trkpt>
      <trkpt lat="42.934644999999925" lon="-1.4956779999999978">
        <ele>639.644</ele>
        <time>2022-08-24T14:58:27Z</time>
      </trkpt>
      <trkpt lat="42.934616999999925" lon="-1.495684999999998">
        <ele>639.605</ele>
        <time>2022-08-24T14:58:28Z</time>
      </trkpt>
      <trkpt lat="42.93459499999992" lon="-1.495687999999998">
        <ele>639.615</ele>
        <time>2022-08-24T14:58:29Z</time>
      </trkpt>
      <trkpt lat="42.93457399999993" lon="-1.495692999999998">
        <ele>639.609</ele>
        <time>2022-08-24T14:58:30Z</time>
      </trkpt>
      <trkpt lat="42.93455399999993" lon="-1.4957019999999979">
        <ele>639.615</ele>
        <time>2022-08-24T14:58:31Z</time>
      </trkpt>
      <trkpt lat="42.93453699999993" lon="-1.495708999999998">
        <ele>639.665</ele>
        <time>2022-08-24T14:58:32Z</time>
      </trkpt>
      <trkpt lat="42.93451899999993" lon="-1.4957129999999978">
        <ele>640.045</ele>
        <time>2022-08-24T14:58:33Z</time>
      </trkpt>
      <trkpt lat="42.93449999999993" lon="-1.4957209999999979">
        <ele>640.031</ele>
        <time>2022-08-24T14:58:34Z</time>
      </trkpt>
      <trkpt lat="42.93447999999993" lon="-1.495727999999998">
        <ele>640.273</ele>
        <time>2022-08-24T14:58:35Z</time>
      </trkpt>
      <trkpt lat="42.93446299999993" lon="-1.495730999999998">
        <ele>640.230</ele>
        <time>2022-08-24T14:58:36Z</time>
      </trkpt>
      <trkpt lat="42.93444699999993" lon="-1.495732999999998">
        <ele>640.433</ele>
        <time>2022-08-24T14:58:37Z</time>
      </trkpt>
      <trkpt lat="42.934430999999925" lon="-1.495739999999998">
        <ele>640.487</ele>
        <time>2022-08-24T14:58:38Z</time>
      </trkpt>
      <trkpt lat="42.934402999999925" lon="-1.495743999999998">
        <ele>640.616</ele>
        <time>2022-08-24T14:58:40Z</time>
      </trkpt>
      <trkpt lat="42.93438699999992" lon="-1.495750999999998">
        <ele>640.686</ele>
        <time>2022-08-24T14:58:41Z</time>
      </trkpt>
      <trkpt lat="42.934371999999925" lon="-1.4957609999999981">
        <ele>640.660</ele>
        <time>2022-08-24T14:58:42Z</time>
      </trkpt>
      <trkpt lat="42.93435699999993" lon="-1.4957679999999982">
        <ele>640.826</ele>
        <time>2022-08-24T14:58:43Z</time>
      </trkpt>
      <trkpt lat="42.93433599999993" lon="-1.4957749999999983">
        <ele>641.009</ele>
        <time>2022-08-24T14:58:44Z</time>
      </trkpt>
      <trkpt lat="42.934314999999934" lon="-1.4957869999999982">
        <ele>641.279</ele>
        <time>2022-08-24T14:58:45Z</time>
      </trkpt>
      <trkpt lat="42.93429299999993" lon="-1.4957939999999983">
        <ele>641.229</ele>
        <time>2022-08-24T14:58:46Z</time>
      </trkpt>
      <trkpt lat="42.934238999999934" lon="-1.4958309999999984">
        <ele>641.829</ele>
        <time>2022-08-24T14:58:49Z</time>
      </trkpt>
      <trkpt lat="42.934223999999936" lon="-1.4958449999999983">
        <ele>641.855</ele>
        <time>2022-08-24T14:58:50Z</time>
      </trkpt>
      <trkpt lat="42.93420899999994" lon="-1.4958579999999984">
        <ele>642.037</ele>
        <time>2022-08-24T14:58:51Z</time>
      </trkpt>
      <trkpt lat="42.93418299999994" lon="-1.4958709999999984">
        <ele>642.214</ele>
        <time>2022-08-24T14:58:52Z</time>
      </trkpt>
      <trkpt lat="42.93415899999994" lon="-1.4958819999999984">
        <ele>642.267</ele>
        <time>2022-08-24T14:58:53Z</time>
      </trkpt>
      <trkpt lat="42.93410799999994" lon="-1.4958979999999984">
        <ele>642.221</ele>
        <time>2022-08-24T14:58:55Z</time>
      </trkpt>
      <trkpt lat="42.93408699999994" lon="-1.4959019999999983">
        <ele>642.450</ele>
        <time>2022-08-24T14:58:56Z</time>
      </trkpt>
      <trkpt lat="42.93393299999994" lon="-1.4959289999999983">
        <ele>642.257</ele>
        <time>2022-08-24T14:59:00Z</time>
      </trkpt>
      <trkpt lat="42.93389099999994" lon="-1.4959379999999982">
        <ele>642.200</ele>
        <time>2022-08-24T14:59:01Z</time>
      </trkpt>
      <trkpt lat="42.93379999999994" lon="-1.4959459999999982">
        <ele>641.420</ele>
        <time>2022-08-24T14:59:03Z</time>
      </trkpt>
      <trkpt lat="42.93376399999994" lon="-1.4959469999999981">
        <ele>641.009</ele>
        <time>2022-08-24T14:59:04Z</time>
      </trkpt>
      <trkpt lat="42.93373099999994" lon="-1.495950999999998">
        <ele>640.886</ele>
        <time>2022-08-24T14:59:05Z</time>
      </trkpt>
      <trkpt lat="42.933700999999935" lon="-1.495959999999998">
        <ele>640.266</ele>
        <time>2022-08-24T14:59:06Z</time>
      </trkpt>
      <trkpt lat="42.93366099999994" lon="-1.495961999999998">
        <ele>640.036</ele>
        <time>2022-08-24T14:59:07Z</time>
      </trkpt>
      <trkpt lat="42.933633999999934" lon="-1.495972999999998">
        <ele>639.812</ele>
        <time>2022-08-24T14:59:08Z</time>
      </trkpt>
      <trkpt lat="42.933602999999934" lon="-1.495989999999998">
        <ele>639.444</ele>
        <time>2022-08-24T14:59:09Z</time>
      </trkpt>
      <trkpt lat="42.93357599999993" lon="-1.496004999999998">
        <ele>639.291</ele>
        <time>2022-08-24T14:59:10Z</time>
      </trkpt>
      <trkpt lat="42.93354299999993" lon="-1.496025999999998">
        <ele>639.024</ele>
        <time>2022-08-24T14:59:11Z</time>
      </trkpt>
      <trkpt lat="42.93350699999993" lon="-1.496049999999998">
        <ele>639.048</ele>
        <time>2022-08-24T14:59:12Z</time>
      </trkpt>
      <trkpt lat="42.933479999999925" lon="-1.4960629999999981">
        <ele>638.217</ele>
        <time>2022-08-24T14:59:13Z</time>
      </trkpt>
      <trkpt lat="42.93345099999993" lon="-1.4960839999999982">
        <ele>637.832</ele>
        <time>2022-08-24T14:59:14Z</time>
      </trkpt>
      <trkpt lat="42.933349999999926" lon="-1.4961569999999982">
        <ele>636.692</ele>
        <time>2022-08-24T14:59:17Z</time>
      </trkpt>
      <trkpt lat="42.93332899999993" lon="-1.4961779999999982">
        <ele>636.211</ele>
        <time>2022-08-24T14:59:18Z</time>
      </trkpt>
      <trkpt lat="42.93330799999993" lon="-1.4962019999999983">
        <ele>635.609</ele>
        <time>2022-08-24T14:59:19Z</time>
      </trkpt>
      <trkpt lat="42.93328799999993" lon="-1.4962319999999982">
        <ele>635.024</ele>
        <time>2022-08-24T14:59:20Z</time>
      </trkpt>
      <trkpt lat="42.933177999999934" lon="-1.4963589999999982">
        <ele>634.074</ele>
        <time>2022-08-24T14:59:23Z</time>
      </trkpt>
      <trkpt lat="42.93314599999994" lon="-1.4964009999999983">
        <ele>633.824</ele>
        <time>2022-08-24T14:59:24Z</time>
      </trkpt>
      <trkpt lat="42.933126999999935" lon="-1.4964249999999983">
        <ele>633.450</ele>
        <time>2022-08-24T14:59:25Z</time>
      </trkpt>
      <trkpt lat="42.933115999999934" lon="-1.4964409999999984">
        <ele>632.682</ele>
        <time>2022-08-24T14:59:26Z</time>
      </trkpt>
      <trkpt lat="42.93309399999993" lon="-1.4964579999999983">
        <ele>631.469</ele>
        <time>2022-08-24T14:59:27Z</time>
      </trkpt>
      <trkpt lat="42.933070999999934" lon="-1.4964809999999984">
        <ele>631.242</ele>
        <time>2022-08-24T14:59:28Z</time>
      </trkpt>
      <trkpt lat="42.93304599999993" lon="-1.4964889999999984">
        <ele>630.656</ele>
        <time>2022-08-24T14:59:29Z</time>
      </trkpt>
      <trkpt lat="42.93302099999993" lon="-1.4964939999999984">
        <ele>630.485</ele>
        <time>2022-08-24T14:59:30Z</time>
      </trkpt>
      <trkpt lat="42.932994999999934" lon="-1.4964979999999983">
        <ele>630.414</ele>
        <time>2022-08-24T14:59:31Z</time>
      </trkpt>
      <trkpt lat="42.93296999999993" lon="-1.4964989999999982">
        <ele>630.054</ele>
        <time>2022-08-24T14:59:32Z</time>
      </trkpt>
      <trkpt lat="42.932946999999935" lon="-1.4964999999999982">
        <ele>629.809</ele>
        <time>2022-08-24T14:59:33Z</time>
      </trkpt>
      <trkpt lat="42.932926999999935" lon="-1.4964969999999982">
        <ele>629.809</ele>
        <time>2022-08-24T14:59:34Z</time>
      </trkpt>
      <trkpt lat="42.932915999999935" lon="-1.4964949999999981">
        <ele>629.622</ele>
        <time>2022-08-24T14:59:35Z</time>
      </trkpt>
      <trkpt lat="42.932870999999935" lon="-1.496506999999998">
        <ele>628.052</ele>
        <time>2022-08-24T14:59:49Z</time>
      </trkpt>
      <trkpt lat="42.932861999999936" lon="-1.496515999999998">
        <ele>628.032</ele>
        <time>2022-08-24T14:59:50Z</time>
      </trkpt>
      <trkpt lat="42.93285199999993" lon="-1.496526999999998">
        <ele>627.838</ele>
        <time>2022-08-24T14:59:51Z</time>
      </trkpt>
      <trkpt lat="42.932842999999934" lon="-1.496533999999998">
        <ele>626.650</ele>
        <time>2022-08-24T14:59:58Z</time>
      </trkpt>
      <trkpt lat="42.932828999999934" lon="-1.496547999999998">
        <ele>626.627</ele>
        <time>2022-08-24T14:59:59Z</time>
      </trkpt>
      <trkpt lat="42.932808999999935" lon="-1.496569999999998">
        <ele>626.460</ele>
        <time>2022-08-24T15:00:00Z</time>
      </trkpt>
      <trkpt lat="42.932791999999935" lon="-1.496596999999998">
        <ele>626.454</ele>
        <time>2022-08-24T15:00:01Z</time>
      </trkpt>
      <trkpt lat="42.93276599999994" lon="-1.4966949999999979">
        <ele>626.233</ele>
        <time>2022-08-24T15:00:04Z</time>
      </trkpt>
      <trkpt lat="42.932752999999934" lon="-1.4967219999999979">
        <ele>625.836</ele>
        <time>2022-08-24T15:00:05Z</time>
      </trkpt>
      <trkpt lat="42.932738999999934" lon="-1.4967409999999979">
        <ele>625.617</ele>
        <time>2022-08-24T15:00:06Z</time>
      </trkpt>
      <trkpt lat="42.932723999999936" lon="-1.4967579999999978">
        <ele>625.018</ele>
        <time>2022-08-24T15:00:07Z</time>
      </trkpt>
      <trkpt lat="42.93270099999994" lon="-1.4967719999999978">
        <ele>624.609</ele>
        <time>2022-08-24T15:00:08Z</time>
      </trkpt>
      <trkpt lat="42.93267499999994" lon="-1.4967809999999977">
        <ele>624.484</ele>
        <time>2022-08-24T15:00:09Z</time>
      </trkpt>
      <trkpt lat="42.93264399999994" lon="-1.4967869999999976">
        <ele>623.814</ele>
        <time>2022-08-24T15:00:10Z</time>
      </trkpt>
      <trkpt lat="42.93260899999994" lon="-1.4967949999999977">
        <ele>623.674</ele>
        <time>2022-08-24T15:00:11Z</time>
      </trkpt>
      <trkpt lat="42.93257599999994" lon="-1.4968119999999976">
        <ele>622.830</ele>
        <time>2022-08-24T15:00:12Z</time>
      </trkpt>
      <trkpt lat="42.93254799999994" lon="-1.4968279999999976">
        <ele>622.632</ele>
        <time>2022-08-24T15:00:13Z</time>
      </trkpt>
      <trkpt lat="42.93252699999994" lon="-1.4968389999999976">
        <ele>621.829</ele>
        <time>2022-08-24T15:00:14Z</time>
      </trkpt>
      <trkpt lat="42.932509999999944" lon="-1.4968449999999975">
        <ele>621.482</ele>
        <time>2022-08-24T15:00:15Z</time>
      </trkpt>
      <trkpt lat="42.93249699999994" lon="-1.4968489999999974">
        <ele>621.296</ele>
        <time>2022-08-24T15:00:16Z</time>
      </trkpt>
      <trkpt lat="42.93248299999994" lon="-1.4968539999999975">
        <ele>620.675</ele>
        <time>2022-08-24T15:00:17Z</time>
      </trkpt>
      <trkpt lat="42.93246799999994" lon="-1.4968529999999975">
        <ele>620.496</ele>
        <time>2022-08-24T15:00:18Z</time>
      </trkpt>
      <trkpt lat="42.93245399999994" lon="-1.4968509999999975">
        <ele>620.231</ele>
        <time>2022-08-24T15:00:19Z</time>
      </trkpt>
      <trkpt lat="42.932399999999944" lon="-1.4968809999999975">
        <ele>618.424</ele>
        <time>2022-08-24T15:00:31Z</time>
      </trkpt>
      <trkpt lat="42.932385999999944" lon="-1.4968929999999974">
        <ele>618.409</ele>
        <time>2022-08-24T15:00:32Z</time>
      </trkpt>
      <trkpt lat="42.93237599999994" lon="-1.4968999999999975">
        <ele>618.220</ele>
        <time>2022-08-24T15:00:33Z</time>
      </trkpt>
      <trkpt lat="42.932354999999944" lon="-1.4969059999999974">
        <ele>617.460</ele>
        <time>2022-08-24T15:00:35Z</time>
      </trkpt>
      <trkpt lat="42.93234799999995" lon="-1.4969079999999975">
        <ele>617.260</ele>
        <time>2022-08-24T15:00:36Z</time>
      </trkpt>
      <trkpt lat="42.932314999999946" lon="-1.4969249999999974">
        <ele>616.266</ele>
        <time>2022-08-24T15:00:41Z</time>
      </trkpt>
      <trkpt lat="42.93229699999995" lon="-1.4969319999999975">
        <ele>616.288</ele>
        <time>2022-08-24T15:00:42Z</time>
      </trkpt>
      <trkpt lat="42.93228199999995" lon="-1.4969349999999975">
        <ele>616.245</ele>
        <time>2022-08-24T15:00:43Z</time>
      </trkpt>
      <trkpt lat="42.93226599999995" lon="-1.4969369999999975">
        <ele>616.258</ele>
        <time>2022-08-24T15:00:44Z</time>
      </trkpt>
      <trkpt lat="42.932252999999946" lon="-1.4969389999999976">
        <ele>616.032</ele>
        <time>2022-08-24T15:00:45Z</time>
      </trkpt>
      <trkpt lat="42.93224399999995" lon="-1.4969399999999975">
        <ele>615.621</ele>
        <time>2022-08-24T15:00:46Z</time>
      </trkpt>
      <trkpt lat="42.932233999999944" lon="-1.4969399999999975">
        <ele>615.692</ele>
        <time>2022-08-24T15:00:47Z</time>
      </trkpt>
      <trkpt lat="42.932224999999946" lon="-1.4969499999999976">
        <ele>614.873</ele>
        <time>2022-08-24T15:00:48Z</time>
      </trkpt>
      <trkpt lat="42.93221599999995" lon="-1.4969559999999975">
        <ele>614.420</ele>
        <time>2022-08-24T15:00:49Z</time>
      </trkpt>
      <trkpt lat="42.93220699999995" lon="-1.4969659999999976">
        <ele>614.209</ele>
        <time>2022-08-24T15:00:50Z</time>
      </trkpt>
      <trkpt lat="42.932190999999946" lon="-1.4969809999999977">
        <ele>613.630</ele>
        <time>2022-08-24T15:00:52Z</time>
      </trkpt>
      <trkpt lat="42.932185999999945" lon="-1.4969849999999976">
        <ele>613.450</ele>
        <time>2022-08-24T15:00:53Z</time>
      </trkpt>
      <trkpt lat="42.932182999999945" lon="-1.4969869999999976">
        <ele>613.220</ele>
        <time>2022-08-24T15:00:54Z</time>
      </trkpt>
      <trkpt lat="42.932182999999945" lon="-1.4969869999999976">
        <ele>613.286</ele>
        <time>2022-08-24T15:00:55Z</time>
      </trkpt>
      <trkpt lat="42.93218399999994" lon="-1.4969899999999976">
        <ele>612.698</ele>
        <time>2022-08-24T15:00:57Z</time>
      </trkpt>
      <trkpt lat="42.93218199999994" lon="-1.4969959999999976">
        <ele>612.665</ele>
        <time>2022-08-24T15:00:58Z</time>
      </trkpt>
      <trkpt lat="42.93218199999994" lon="-1.4969999999999974">
        <ele>612.258</ele>
        <time>2022-08-24T15:00:59Z</time>
      </trkpt>
      <trkpt lat="42.93217899999994" lon="-1.4970049999999975">
        <ele>611.832</ele>
        <time>2022-08-24T15:01:00Z</time>
      </trkpt>
      <trkpt lat="42.93217899999994" lon="-1.4970049999999975">
        <ele>610.871</ele>
        <time>2022-08-24T15:01:08Z</time>
      </trkpt>
      <trkpt lat="42.93216899999994" lon="-1.4970269999999974">
        <ele>610.624</ele>
        <time>2022-08-24T15:01:10Z</time>
      </trkpt>
      <trkpt lat="42.93212399999994" lon="-1.4971869999999974">
        <ele>609.404</ele>
        <time>2022-08-24T15:01:16Z</time>
      </trkpt>
      <trkpt lat="42.932087999999936" lon="-1.4972569999999974">
        <ele>609.014</ele>
        <time>2022-08-24T15:01:18Z</time>
      </trkpt>
      <trkpt lat="42.93206799999994" lon="-1.4972909999999975">
        <ele>608.609</ele>
        <time>2022-08-24T15:01:19Z</time>
      </trkpt>
      <trkpt lat="42.93204699999994" lon="-1.4973199999999975">
        <ele>608.683</ele>
        <time>2022-08-24T15:01:20Z</time>
      </trkpt>
      <trkpt lat="42.932025999999944" lon="-1.4973409999999976">
        <ele>608.223</ele>
        <time>2022-08-24T15:01:21Z</time>
      </trkpt>
      <trkpt lat="42.93200499999995" lon="-1.4973579999999975">
        <ele>607.863</ele>
        <time>2022-08-24T15:01:22Z</time>
      </trkpt>
      <trkpt lat="42.93198499999995" lon="-1.4973709999999976">
        <ele>607.019</ele>
        <time>2022-08-24T15:01:23Z</time>
      </trkpt>
      <trkpt lat="42.931965999999946" lon="-1.4973889999999976">
        <ele>606.211</ele>
        <time>2022-08-24T15:01:24Z</time>
      </trkpt>
      <trkpt lat="42.931948999999946" lon="-1.4974159999999976">
        <ele>605.868</ele>
        <time>2022-08-24T15:01:25Z</time>
      </trkpt>
      <trkpt lat="42.931929999999944" lon="-1.4974419999999977">
        <ele>605.231</ele>
        <time>2022-08-24T15:01:26Z</time>
      </trkpt>
      <trkpt lat="42.931909999999945" lon="-1.4974689999999977">
        <ele>605.255</ele>
        <time>2022-08-24T15:01:27Z</time>
      </trkpt>
      <trkpt lat="42.93189199999995" lon="-1.4974929999999977">
        <ele>604.864</ele>
        <time>2022-08-24T15:01:28Z</time>
      </trkpt>
      <trkpt lat="42.93187099999995" lon="-1.4975179999999977">
        <ele>604.855</ele>
        <time>2022-08-24T15:01:29Z</time>
      </trkpt>
      <trkpt lat="42.93185499999995" lon="-1.4975429999999976">
        <ele>604.207</ele>
        <time>2022-08-24T15:01:30Z</time>
      </trkpt>
      <trkpt lat="42.93184099999995" lon="-1.4975739999999975">
        <ele>603.817</ele>
        <time>2022-08-24T15:01:31Z</time>
      </trkpt>
      <trkpt lat="42.93182399999995" lon="-1.4975959999999975">
        <ele>603.609</ele>
        <time>2022-08-24T15:01:32Z</time>
      </trkpt>
      <trkpt lat="42.93175999999995" lon="-1.4977099999999974">
        <ele>602.636</ele>
        <time>2022-08-24T15:01:36Z</time>
      </trkpt>
      <trkpt lat="42.93172599999995" lon="-1.4977739999999975">
        <ele>601.476</ele>
        <time>2022-08-24T15:01:38Z</time>
      </trkpt>
      <trkpt lat="42.931709999999946" lon="-1.4978039999999975">
        <ele>601.066</ele>
        <time>2022-08-24T15:01:39Z</time>
      </trkpt>
      <trkpt lat="42.93169799999995" lon="-1.4978179999999974">
        <ele>600.222</ele>
        <time>2022-08-24T15:01:40Z</time>
      </trkpt>
      <trkpt lat="42.93167799999995" lon="-1.4978309999999975">
        <ele>600.044</ele>
        <time>2022-08-24T15:01:41Z</time>
      </trkpt>
      <trkpt lat="42.93166699999995" lon="-1.4978529999999974">
        <ele>599.451</ele>
        <time>2022-08-24T15:01:42Z</time>
      </trkpt>
      <trkpt lat="42.93165499999995" lon="-1.4978619999999974">
        <ele>599.284</ele>
        <time>2022-08-24T15:01:43Z</time>
      </trkpt>
      <trkpt lat="42.93164299999995" lon="-1.4978709999999973">
        <ele>598.668</ele>
        <time>2022-08-24T15:01:44Z</time>
      </trkpt>
      <trkpt lat="42.93163199999995" lon="-1.4978809999999974">
        <ele>598.237</ele>
        <time>2022-08-24T15:01:45Z</time>
      </trkpt>
      <trkpt lat="42.93162899999995" lon="-1.4978819999999973">
        <ele>598.035</ele>
        <time>2022-08-24T15:01:46Z</time>
      </trkpt>
      <trkpt lat="42.93162899999995" lon="-1.4978819999999973">
        <ele>597.886</ele>
        <time>2022-08-24T15:01:47Z</time>
      </trkpt>
      <trkpt lat="42.931624999999954" lon="-1.4978819999999973">
        <ele>597.614</ele>
        <time>2022-08-24T15:01:48Z</time>
      </trkpt>
      <trkpt lat="42.93162299999995" lon="-1.4978819999999973">
        <ele>597.409</ele>
        <time>2022-08-24T15:01:49Z</time>
      </trkpt>
      <trkpt lat="42.93160299999995" lon="-1.4978649999999973">
        <ele>597.074</ele>
        <time>2022-08-24T15:01:52Z</time>
      </trkpt>
      <trkpt lat="42.93158899999995" lon="-1.4978589999999974">
        <ele>596.844</ele>
        <time>2022-08-24T15:01:55Z</time>
      </trkpt>
      <trkpt lat="42.931556999999955" lon="-1.4978939999999974">
        <ele>596.484</ele>
        <time>2022-08-24T15:02:03Z</time>
      </trkpt>
      <trkpt lat="42.931548999999954" lon="-1.4979119999999975">
        <ele>596.430</ele>
        <time>2022-08-24T15:02:05Z</time>
      </trkpt>
      <trkpt lat="42.931548999999954" lon="-1.4979119999999975">
        <ele>596.242</ele>
        <time>2022-08-24T15:02:07Z</time>
      </trkpt>
      <trkpt lat="42.931536999999956" lon="-1.4979249999999975">
        <ele>595.039</ele>
        <time>2022-08-24T15:02:09Z</time>
      </trkpt>
      <trkpt lat="42.931525999999955" lon="-1.4980769999999974">
        <ele>594.442</ele>
        <time>2022-08-24T15:02:14Z</time>
      </trkpt>
      <trkpt lat="42.93151399999996" lon="-1.4981409999999975">
        <ele>593.836</ele>
        <time>2022-08-24T15:02:16Z</time>
      </trkpt>
      <trkpt lat="42.93150699999996" lon="-1.4981699999999976">
        <ele>593.675</ele>
        <time>2022-08-24T15:02:17Z</time>
      </trkpt>
      <trkpt lat="42.93148499999996" lon="-1.4982139999999975">
        <ele>592.878</ele>
        <time>2022-08-24T15:02:19Z</time>
      </trkpt>
      <trkpt lat="42.93146799999996" lon="-1.4982289999999976">
        <ele>592.033</ele>
        <time>2022-08-24T15:02:20Z</time>
      </trkpt>
      <trkpt lat="42.93144899999996" lon="-1.4982469999999977">
        <ele>591.626</ele>
        <time>2022-08-24T15:02:21Z</time>
      </trkpt>
      <trkpt lat="42.93143199999996" lon="-1.4982669999999976">
        <ele>590.609</ele>
        <time>2022-08-24T15:02:22Z</time>
      </trkpt>
      <trkpt lat="42.931353999999956" lon="-1.4983479999999976">
        <ele>589.218</ele>
        <time>2022-08-24T15:02:26Z</time>
      </trkpt>
      <trkpt lat="42.93133299999996" lon="-1.4983649999999975">
        <ele>588.628</ele>
        <time>2022-08-24T15:02:27Z</time>
      </trkpt>
      <trkpt lat="42.93131099999996" lon="-1.4983799999999976">
        <ele>587.638</ele>
        <time>2022-08-24T15:02:28Z</time>
      </trkpt>
      <trkpt lat="42.93129599999996" lon="-1.4983909999999976">
        <ele>587.284</ele>
        <time>2022-08-24T15:02:29Z</time>
      </trkpt>
      <trkpt lat="42.93127899999996" lon="-1.4984119999999976">
        <ele>586.896</ele>
        <time>2022-08-24T15:02:30Z</time>
      </trkpt>
      <trkpt lat="42.93127099999996" lon="-1.4984299999999977">
        <ele>586.423</ele>
        <time>2022-08-24T15:02:31Z</time>
      </trkpt>
      <trkpt lat="42.93125499999996" lon="-1.4984579999999976">
        <ele>586.026</ele>
        <time>2022-08-24T15:02:32Z</time>
      </trkpt>
      <trkpt lat="42.93124299999996" lon="-1.4984809999999977">
        <ele>585.250</ele>
        <time>2022-08-24T15:02:33Z</time>
      </trkpt>
      <trkpt lat="42.93122899999996" lon="-1.4985049999999978">
        <ele>584.459</ele>
        <time>2022-08-24T15:02:34Z</time>
      </trkpt>
      <trkpt lat="42.93121199999996" lon="-1.4985279999999979">
        <ele>584.013</ele>
        <time>2022-08-24T15:02:35Z</time>
      </trkpt>
      <trkpt lat="42.93118199999996" lon="-1.498559999999998">
        <ele>583.643</ele>
        <time>2022-08-24T15:02:37Z</time>
      </trkpt>
      <trkpt lat="42.93117499999996" lon="-1.498569999999998">
        <ele>583.007</ele>
        <time>2022-08-24T15:02:38Z</time>
      </trkpt>
      <trkpt lat="42.931167999999964" lon="-1.498576999999998">
        <ele>582.609</ele>
        <time>2022-08-24T15:02:39Z</time>
      </trkpt>
      <trkpt lat="42.93115699999996" lon="-1.498587999999998">
        <ele>582.272</ele>
        <time>2022-08-24T15:02:40Z</time>
      </trkpt>
      <trkpt lat="42.931138999999966" lon="-1.498603999999998">
        <ele>581.472</ele>
        <time>2022-08-24T15:02:41Z</time>
      </trkpt>
      <trkpt lat="42.931099999999965" lon="-1.498623999999998">
        <ele>580.822</ele>
        <time>2022-08-24T15:02:43Z</time>
      </trkpt>
      <trkpt lat="42.93107399999997" lon="-1.498625999999998">
        <ele>580.028</ele>
        <time>2022-08-24T15:02:44Z</time>
      </trkpt>
      <trkpt lat="42.93104799999997" lon="-1.498627999999998">
        <ele>580.020</ele>
        <time>2022-08-24T15:02:45Z</time>
      </trkpt>
      <trkpt lat="42.93101899999997" lon="-1.498625999999998">
        <ele>579.817</ele>
        <time>2022-08-24T15:02:46Z</time>
      </trkpt>
      <trkpt lat="42.93099199999997" lon="-1.498630999999998">
        <ele>579.010</ele>
        <time>2022-08-24T15:02:47Z</time>
      </trkpt>
      <trkpt lat="42.93096899999997" lon="-1.498635999999998">
        <ele>578.854</ele>
        <time>2022-08-24T15:02:48Z</time>
      </trkpt>
      <trkpt lat="42.93094999999997" lon="-1.4986459999999981">
        <ele>578.463</ele>
        <time>2022-08-24T15:02:49Z</time>
      </trkpt>
      <trkpt lat="42.93093199999997" lon="-1.4986619999999982">
        <ele>578.283</ele>
        <time>2022-08-24T15:02:50Z</time>
      </trkpt>
      <trkpt lat="42.93092099999997" lon="-1.4986779999999982">
        <ele>577.625</ele>
        <time>2022-08-24T15:02:51Z</time>
      </trkpt>
      <trkpt lat="42.93091399999997" lon="-1.4986909999999982">
        <ele>577.417</ele>
        <time>2022-08-24T15:02:52Z</time>
      </trkpt>
      <trkpt lat="42.93090899999997" lon="-1.4987059999999983">
        <ele>577.009</ele>
        <time>2022-08-24T15:02:53Z</time>
      </trkpt>
      <trkpt lat="42.93090599999997" lon="-1.4987259999999982">
        <ele>576.489</ele>
        <time>2022-08-24T15:02:54Z</time>
      </trkpt>
      <trkpt lat="42.93090299999997" lon="-1.4987499999999983">
        <ele>576.229</ele>
        <time>2022-08-24T15:02:55Z</time>
      </trkpt>
      <trkpt lat="42.930898999999975" lon="-1.4987789999999983">
        <ele>575.869</ele>
        <time>2022-08-24T15:02:56Z</time>
      </trkpt>
      <trkpt lat="42.93087799999998" lon="-1.4988479999999984">
        <ele>575.685</ele>
        <time>2022-08-24T15:02:58Z</time>
      </trkpt>
      <trkpt lat="42.93086699999998" lon="-1.4988879999999984">
        <ele>575.627</ele>
        <time>2022-08-24T15:02:59Z</time>
      </trkpt>
      <trkpt lat="42.93086399999998" lon="-1.4989249999999985">
        <ele>575.024</ele>
        <time>2022-08-24T15:03:00Z</time>
      </trkpt>
      <trkpt lat="42.930853999999975" lon="-1.4989609999999984">
        <ele>574.697</ele>
        <time>2022-08-24T15:03:01Z</time>
      </trkpt>
      <trkpt lat="42.930842999999975" lon="-1.4989939999999984">
        <ele>574.451</ele>
        <time>2022-08-24T15:03:02Z</time>
      </trkpt>
      <trkpt lat="42.930833999999976" lon="-1.4990289999999984">
        <ele>573.440</ele>
        <time>2022-08-24T15:03:03Z</time>
      </trkpt>
      <trkpt lat="42.93082699999998" lon="-1.4990619999999983">
        <ele>573.045</ele>
        <time>2022-08-24T15:03:04Z</time>
      </trkpt>
      <trkpt lat="42.93081999999998" lon="-1.4990909999999984">
        <ele>572.447</ele>
        <time>2022-08-24T15:03:05Z</time>
      </trkpt>
      <trkpt lat="42.930801999999986" lon="-1.4991369999999984">
        <ele>572.211</ele>
        <time>2022-08-24T15:03:06Z</time>
      </trkpt>
      <trkpt lat="42.930742999999985" lon="-1.4992359999999985">
        <ele>571.209</ele>
        <time>2022-08-24T15:03:09Z</time>
      </trkpt>
      <trkpt lat="42.93072499999999" lon="-1.4992539999999985">
        <ele>570.475</ele>
        <time>2022-08-24T15:03:10Z</time>
      </trkpt>
      <trkpt lat="42.93070799999999" lon="-1.4992759999999985">
        <ele>570.045</ele>
        <time>2022-08-24T15:03:11Z</time>
      </trkpt>
      <trkpt lat="42.930663999999986" lon="-1.4993859999999986">
        <ele>568.855</ele>
        <time>2022-08-24T15:03:14Z</time>
      </trkpt>
      <trkpt lat="42.930652999999985" lon="-1.4994189999999985">
        <ele>567.821</ele>
        <time>2022-08-24T15:03:15Z</time>
      </trkpt>
      <trkpt lat="42.93064899999999" lon="-1.4994529999999986">
        <ele>567.453</ele>
        <time>2022-08-24T15:03:16Z</time>
      </trkpt>
      <trkpt lat="42.930646999999986" lon="-1.4994859999999985">
        <ele>566.810</ele>
        <time>2022-08-24T15:03:17Z</time>
      </trkpt>
      <trkpt lat="42.930644999999984" lon="-1.4995229999999986">
        <ele>566.433</ele>
        <time>2022-08-24T15:03:18Z</time>
      </trkpt>
      <trkpt lat="42.93063699999998" lon="-1.4995669999999985">
        <ele>565.857</ele>
        <time>2022-08-24T15:03:19Z</time>
      </trkpt>
      <trkpt lat="42.930621999999985" lon="-1.4996169999999986">
        <ele>565.036</ele>
        <time>2022-08-24T15:03:20Z</time>
      </trkpt>
      <trkpt lat="42.930601999999986" lon="-1.4996689999999986">
        <ele>564.661</ele>
        <time>2022-08-24T15:03:21Z</time>
      </trkpt>
      <trkpt lat="42.930576999999985" lon="-1.4997149999999986">
        <ele>564.221</ele>
        <time>2022-08-24T15:03:22Z</time>
      </trkpt>
      <trkpt lat="42.93054999999998" lon="-1.4997579999999986">
        <ele>563.813</ele>
        <time>2022-08-24T15:03:23Z</time>
      </trkpt>
      <trkpt lat="42.93052499999998" lon="-1.4998069999999986">
        <ele>563.409</ele>
        <time>2022-08-24T15:03:24Z</time>
      </trkpt>
      <trkpt lat="42.930503999999985" lon="-1.4998609999999986">
        <ele>562.827</ele>
        <time>2022-08-24T15:03:25Z</time>
      </trkpt>
      <trkpt lat="42.930464999999984" lon="-1.4999689999999986">
        <ele>561.687</ele>
        <time>2022-08-24T15:03:27Z</time>
      </trkpt>
      <trkpt lat="42.93044699999999" lon="-1.5000199999999986">
        <ele>561.437</ele>
        <time>2022-08-24T15:03:28Z</time>
      </trkpt>
      <trkpt lat="42.93043199999999" lon="-1.5000699999999987">
        <ele>560.413</ele>
        <time>2022-08-24T15:03:29Z</time>
      </trkpt>
      <trkpt lat="42.930418999999986" lon="-1.5001189999999986">
        <ele>560.025</ele>
        <time>2022-08-24T15:03:30Z</time>
      </trkpt>
      <trkpt lat="42.930410999999985" lon="-1.5001659999999986">
        <ele>559.662</ele>
        <time>2022-08-24T15:03:31Z</time>
      </trkpt>
      <trkpt lat="42.930407999999986" lon="-1.5002089999999986">
        <ele>559.215</ele>
        <time>2022-08-24T15:03:32Z</time>
      </trkpt>
      <trkpt lat="42.93040699999999" lon="-1.5002489999999986">
        <ele>558.829</ele>
        <time>2022-08-24T15:03:33Z</time>
      </trkpt>
      <trkpt lat="42.93040599999999" lon="-1.5002909999999987">
        <ele>558.248</ele>
        <time>2022-08-24T15:03:34Z</time>
      </trkpt>
      <trkpt lat="42.93040399999999" lon="-1.5003349999999986">
        <ele>557.642</ele>
        <time>2022-08-24T15:03:35Z</time>
      </trkpt>
      <trkpt lat="42.93039199999999" lon="-1.5005049999999986">
        <ele>556.622</ele>
        <time>2022-08-24T15:03:38Z</time>
      </trkpt>
      <trkpt lat="42.93038699999999" lon="-1.5005659999999987">
        <ele>556.014</ele>
        <time>2022-08-24T15:03:39Z</time>
      </trkpt>
      <trkpt lat="42.93037799999999" lon="-1.5006229999999987">
        <ele>555.609</ele>
        <time>2022-08-24T15:03:40Z</time>
      </trkpt>
      <trkpt lat="42.93036599999999" lon="-1.5006769999999987">
        <ele>555.085</ele>
        <time>2022-08-24T15:03:41Z</time>
      </trkpt>
      <trkpt lat="42.93035599999999" lon="-1.5007279999999987">
        <ele>554.895</ele>
        <time>2022-08-24T15:03:42Z</time>
      </trkpt>
      <trkpt lat="42.930345999999986" lon="-1.5007799999999987">
        <ele>554.665</ele>
        <time>2022-08-24T15:03:43Z</time>
      </trkpt>
      <trkpt lat="42.93033699999999" lon="-1.5008359999999987">
        <ele>554.461</ele>
        <time>2022-08-24T15:03:44Z</time>
      </trkpt>
      <trkpt lat="42.93032799999999" lon="-1.5008939999999986">
        <ele>554.023</ele>
        <time>2022-08-24T15:03:45Z</time>
      </trkpt>
      <trkpt lat="42.930300999999986" lon="-1.5010219999999985">
        <ele>553.490</ele>
        <time>2022-08-24T15:03:47Z</time>
      </trkpt>
      <trkpt lat="42.93026899999999" lon="-1.5011489999999985">
        <ele>552.283</ele>
        <time>2022-08-24T15:03:49Z</time>
      </trkpt>
      <trkpt lat="42.93025199999999" lon="-1.5012159999999986">
        <ele>551.837</ele>
        <time>2022-08-24T15:03:50Z</time>
      </trkpt>
      <trkpt lat="42.930238999999986" lon="-1.5012809999999985">
        <ele>551.476</ele>
        <time>2022-08-24T15:03:51Z</time>
      </trkpt>
      <trkpt lat="42.93022999999999" lon="-1.5013449999999986">
        <ele>551.233</ele>
        <time>2022-08-24T15:03:52Z</time>
      </trkpt>
      <trkpt lat="42.930221999999986" lon="-1.5014039999999986">
        <ele>550.623</ele>
        <time>2022-08-24T15:03:53Z</time>
      </trkpt>
      <trkpt lat="42.93021199999998" lon="-1.5014609999999986">
        <ele>550.215</ele>
        <time>2022-08-24T15:03:54Z</time>
      </trkpt>
      <trkpt lat="42.93019799999998" lon="-1.5015179999999986">
        <ele>549.809</ele>
        <time>2022-08-24T15:03:55Z</time>
      </trkpt>
      <trkpt lat="42.93018799999998" lon="-1.5015779999999985">
        <ele>549.654</ele>
        <time>2022-08-24T15:03:56Z</time>
      </trkpt>
      <trkpt lat="42.93017399999998" lon="-1.5017139999999984">
        <ele>548.814</ele>
        <time>2022-08-24T15:03:58Z</time>
      </trkpt>
      <trkpt lat="42.93016099999998" lon="-1.5018549999999984">
        <ele>548.254</ele>
        <time>2022-08-24T15:04:00Z</time>
      </trkpt>
      <trkpt lat="42.93016099999998" lon="-1.5019209999999983">
        <ele>547.810</ele>
        <time>2022-08-24T15:04:01Z</time>
      </trkpt>
      <trkpt lat="42.93016599999998" lon="-1.5019779999999983">
        <ele>547.052</ele>
        <time>2022-08-24T15:04:02Z</time>
      </trkpt>
      <trkpt lat="42.93017399999998" lon="-1.5020239999999982">
        <ele>546.669</ele>
        <time>2022-08-24T15:04:03Z</time>
      </trkpt>
      <trkpt lat="42.93018299999998" lon="-1.5020649999999982">
        <ele>546.462</ele>
        <time>2022-08-24T15:04:04Z</time>
      </trkpt>
      <trkpt lat="42.930186999999975" lon="-1.5021079999999982">
        <ele>546.076</ele>
        <time>2022-08-24T15:04:05Z</time>
      </trkpt>
      <trkpt lat="42.930192999999974" lon="-1.5021539999999982">
        <ele>545.675</ele>
        <time>2022-08-24T15:04:06Z</time>
      </trkpt>
      <trkpt lat="42.93020299999998" lon="-1.5022519999999981">
        <ele>544.446</ele>
        <time>2022-08-24T15:04:08Z</time>
      </trkpt>
      <trkpt lat="42.930200999999975" lon="-1.5022979999999981">
        <ele>544.088</ele>
        <time>2022-08-24T15:04:09Z</time>
      </trkpt>
      <trkpt lat="42.930194999999976" lon="-1.5023399999999982">
        <ele>543.616</ele>
        <time>2022-08-24T15:04:10Z</time>
      </trkpt>
      <trkpt lat="42.93018599999998" lon="-1.5023779999999982">
        <ele>543.409</ele>
        <time>2022-08-24T15:04:11Z</time>
      </trkpt>
      <trkpt lat="42.93016599999998" lon="-1.5024119999999983">
        <ele>542.445</ele>
        <time>2022-08-24T15:04:12Z</time>
      </trkpt>
      <trkpt lat="42.93013399999998" lon="-1.5024439999999983">
        <ele>542.095</ele>
        <time>2022-08-24T15:04:13Z</time>
      </trkpt>
      <trkpt lat="42.93009699999998" lon="-1.5024809999999984">
        <ele>541.665</ele>
        <time>2022-08-24T15:04:14Z</time>
      </trkpt>
      <trkpt lat="42.93006099999998" lon="-1.5025229999999985">
        <ele>541.261</ele>
        <time>2022-08-24T15:04:15Z</time>
      </trkpt>
      <trkpt lat="42.93002499999998" lon="-1.5025629999999985">
        <ele>540.883</ele>
        <time>2022-08-24T15:04:16Z</time>
      </trkpt>
      <trkpt lat="42.92996399999998" lon="-1.5026379999999986">
        <ele>540.020</ele>
        <time>2022-08-24T15:04:18Z</time>
      </trkpt>
      <trkpt lat="42.929939999999974" lon="-1.5026909999999987">
        <ele>539.223</ele>
        <time>2022-08-24T15:04:19Z</time>
      </trkpt>
      <trkpt lat="42.92991799999997" lon="-1.5027379999999986">
        <ele>539.067</ele>
        <time>2022-08-24T15:04:20Z</time>
      </trkpt>
      <trkpt lat="42.92990099999997" lon="-1.5027769999999985">
        <ele>538.436</ele>
        <time>2022-08-24T15:04:21Z</time>
      </trkpt>
      <trkpt lat="42.92989099999997" lon="-1.5028119999999985">
        <ele>538.089</ele>
        <time>2022-08-24T15:04:22Z</time>
      </trkpt>
      <trkpt lat="42.92988299999997" lon="-1.5028459999999986">
        <ele>537.606</ele>
        <time>2022-08-24T15:04:23Z</time>
      </trkpt>
      <trkpt lat="42.92987399999997" lon="-1.5028729999999986">
        <ele>537.226</ele>
        <time>2022-08-24T15:04:24Z</time>
      </trkpt>
      <trkpt lat="42.92986699999997" lon="-1.5028909999999986">
        <ele>537.009</ele>
        <time>2022-08-24T15:04:25Z</time>
      </trkpt>
      <trkpt lat="42.929857999999975" lon="-1.5029169999999987">
        <ele>535.239</ele>
        <time>2022-08-24T15:05:28Z</time>
      </trkpt>
      <trkpt lat="42.92985399999998" lon="-1.5029389999999987">
        <ele>535.249</ele>
        <time>2022-08-24T15:05:29Z</time>
      </trkpt>
      <trkpt lat="42.92984499999998" lon="-1.5030549999999987">
        <ele>535.489</ele>
        <time>2022-08-24T15:05:32Z</time>
      </trkpt>
      <trkpt lat="42.929851999999975" lon="-1.5030929999999987">
        <ele>535.465</ele>
        <time>2022-08-24T15:05:33Z</time>
      </trkpt>
      <trkpt lat="42.92985899999997" lon="-1.5031269999999988">
        <ele>535.447</ele>
        <time>2022-08-24T15:05:34Z</time>
      </trkpt>
      <trkpt lat="42.92986299999997" lon="-1.5031579999999987">
        <ele>535.684</ele>
        <time>2022-08-24T15:05:35Z</time>
      </trkpt>
      <trkpt lat="42.92986399999997" lon="-1.5031879999999986">
        <ele>535.647</ele>
        <time>2022-08-24T15:05:36Z</time>
      </trkpt>
      <trkpt lat="42.92985799999997" lon="-1.5032129999999986">
        <ele>535.891</ele>
        <time>2022-08-24T15:05:37Z</time>
      </trkpt>
      <trkpt lat="42.92985499999997" lon="-1.5032379999999985">
        <ele>536.240</ele>
        <time>2022-08-24T15:05:38Z</time>
      </trkpt>
      <trkpt lat="42.929855999999965" lon="-1.5032639999999986">
        <ele>536.649</ele>
        <time>2022-08-24T15:05:39Z</time>
      </trkpt>
      <trkpt lat="42.929858999999965" lon="-1.5032899999999987">
        <ele>536.802</ele>
        <time>2022-08-24T15:05:40Z</time>
      </trkpt>
      <trkpt lat="42.929861999999964" lon="-1.5033169999999987">
        <ele>537.022</ele>
        <time>2022-08-24T15:05:41Z</time>
      </trkpt>
      <trkpt lat="42.929866999999966" lon="-1.5033449999999986">
        <ele>537.209</ele>
        <time>2022-08-24T15:05:42Z</time>
      </trkpt>
      <trkpt lat="42.929869999999966" lon="-1.5033739999999987">
        <ele>537.285</ele>
        <time>2022-08-24T15:05:43Z</time>
      </trkpt>
      <trkpt lat="42.929872999999965" lon="-1.5034019999999986">
        <ele>537.275</ele>
        <time>2022-08-24T15:05:44Z</time>
      </trkpt>
      <trkpt lat="42.92989199999997" lon="-1.5035609999999986">
        <ele>537.235</ele>
        <time>2022-08-24T15:05:49Z</time>
      </trkpt>
      <trkpt lat="42.929945999999966" lon="-1.5037889999999985">
        <ele>535.811</ele>
        <time>2022-08-24T15:05:55Z</time>
      </trkpt>
      <trkpt lat="42.929959999999966" lon="-1.5038159999999985">
        <ele>535.453</ele>
        <time>2022-08-24T15:05:56Z</time>
      </trkpt>
      <trkpt lat="42.929971999999964" lon="-1.5038429999999985">
        <ele>535.230</ele>
        <time>2022-08-24T15:05:57Z</time>
      </trkpt>
      <trkpt lat="42.929982999999964" lon="-1.5038679999999984">
        <ele>535.053</ele>
        <time>2022-08-24T15:05:58Z</time>
      </trkpt>
      <trkpt lat="42.929993999999965" lon="-1.5038939999999985">
        <ele>534.627</ele>
        <time>2022-08-24T15:05:59Z</time>
      </trkpt>
      <trkpt lat="42.93000399999997" lon="-1.5039159999999985">
        <ele>534.446</ele>
        <time>2022-08-24T15:06:00Z</time>
      </trkpt>
      <trkpt lat="42.93001299999997" lon="-1.5039329999999984">
        <ele>534.074</ele>
        <time>2022-08-24T15:06:01Z</time>
      </trkpt>
      <trkpt lat="42.930024999999965" lon="-1.5039479999999985">
        <ele>534.056</ele>
        <time>2022-08-24T15:06:02Z</time>
      </trkpt>
      <trkpt lat="42.930035999999966" lon="-1.5039609999999985">
        <ele>534.021</ele>
        <time>2022-08-24T15:06:03Z</time>
      </trkpt>
      <trkpt lat="42.93005099999996" lon="-1.5039989999999985">
        <ele>533.809</ele>
        <time>2022-08-24T15:06:05Z</time>
      </trkpt>
      <trkpt lat="42.930061999999964" lon="-1.5040149999999985">
        <ele>533.848</ele>
        <time>2022-08-24T15:06:06Z</time>
      </trkpt>
      <trkpt lat="42.930069999999965" lon="-1.5040319999999985">
        <ele>533.868</ele>
        <time>2022-08-24T15:06:07Z</time>
      </trkpt>
      <trkpt lat="42.930075999999964" lon="-1.5040479999999985">
        <ele>533.888</ele>
        <time>2022-08-24T15:06:08Z</time>
      </trkpt>
      <trkpt lat="42.93008499999996" lon="-1.5040679999999984">
        <ele>533.874</ele>
        <time>2022-08-24T15:06:11Z</time>
      </trkpt>
      <trkpt lat="42.93008499999996" lon="-1.5040679999999984">
        <ele>533.896</ele>
        <time>2022-08-24T15:06:12Z</time>
      </trkpt>
      <trkpt lat="42.93008499999996" lon="-1.5040679999999984">
        <ele>533.873</ele>
        <time>2022-08-24T15:06:13Z</time>
      </trkpt>
      <trkpt lat="42.93008499999996" lon="-1.5040679999999984">
        <ele>533.876</ele>
        <time>2022-08-24T15:07:08Z</time>
      </trkpt>
      <trkpt lat="42.93008499999996" lon="-1.5040679999999984">
        <ele>534.010</ele>
        <time>2022-08-24T15:07:14Z</time>
      </trkpt>
      <trkpt lat="42.930077999999966" lon="-1.5040899999999984">
        <ele>531.829</ele>
        <time>2022-08-24T15:15:31Z</time>
      </trkpt>
      <trkpt lat="42.93007199999997" lon="-1.5040749999999983">
        <ele>531.847</ele>
        <time>2022-08-24T15:15:33Z</time>
      </trkpt>
      <trkpt lat="42.93006599999997" lon="-1.5040619999999982">
        <ele>531.829</ele>
        <time>2022-08-24T15:15:34Z</time>
      </trkpt>
      <trkpt lat="42.93005799999997" lon="-1.5040489999999982">
        <ele>531.821</ele>
        <time>2022-08-24T15:15:35Z</time>
      </trkpt>
      <trkpt lat="42.93005099999997" lon="-1.5040309999999981">
        <ele>531.809</ele>
        <time>2022-08-24T15:15:36Z</time>
      </trkpt>
      <trkpt lat="42.93004199999997" lon="-1.5040089999999982">
        <ele>531.825</ele>
        <time>2022-08-24T15:15:38Z</time>
      </trkpt>
      <trkpt lat="42.93003399999997" lon="-1.504001999999998">
        <ele>531.895</ele>
        <time>2022-08-24T15:15:39Z</time>
      </trkpt>
      <trkpt lat="42.930026999999974" lon="-1.503990999999998">
        <ele>531.685</ele>
        <time>2022-08-24T15:15:40Z</time>
      </trkpt>
      <trkpt lat="42.930020999999975" lon="-1.503975999999998">
        <ele>531.621</ele>
        <time>2022-08-24T15:15:41Z</time>
      </trkpt>
      <trkpt lat="42.930012999999974" lon="-1.503965999999998">
        <ele>531.673</ele>
        <time>2022-08-24T15:15:42Z</time>
      </trkpt>
      <trkpt lat="42.930003999999975" lon="-1.503964999999998">
        <ele>531.660</ele>
        <time>2022-08-24T15:15:43Z</time>
      </trkpt>
      <trkpt lat="42.929997999999976" lon="-1.503959999999998">
        <ele>531.673</ele>
        <time>2022-08-24T15:15:44Z</time>
      </trkpt>
      <trkpt lat="42.92999499999998" lon="-1.5039529999999979">
        <ele>531.467</ele>
        <time>2022-08-24T15:15:45Z</time>
      </trkpt>
      <trkpt lat="42.92998299999998" lon="-1.503938999999998">
        <ele>531.456</ele>
        <time>2022-08-24T15:15:48Z</time>
      </trkpt>
      <trkpt lat="42.92997999999998" lon="-1.503938999999998">
        <ele>531.484</ele>
        <time>2022-08-24T15:15:49Z</time>
      </trkpt>
      <trkpt lat="42.92997499999998" lon="-1.5039529999999979">
        <ele>531.407</ele>
        <time>2022-08-24T15:15:51Z</time>
      </trkpt>
      <trkpt lat="42.929961999999975" lon="-1.503962999999998">
        <ele>531.417</ele>
        <time>2022-08-24T15:15:53Z</time>
      </trkpt>
      <trkpt lat="42.929955999999976" lon="-1.503964999999998">
        <ele>531.409</ele>
        <time>2022-08-24T15:15:54Z</time>
      </trkpt>
      <trkpt lat="42.929947999999975" lon="-1.503968999999998">
        <ele>531.449</ele>
        <time>2022-08-24T15:15:55Z</time>
      </trkpt>
      <trkpt lat="42.92993799999997" lon="-1.503973999999998">
        <ele>531.469</ele>
        <time>2022-08-24T15:15:56Z</time>
      </trkpt>
      <trkpt lat="42.92992699999997" lon="-1.503976999999998">
        <ele>531.489</ele>
        <time>2022-08-24T15:15:57Z</time>
      </trkpt>
      <trkpt lat="42.92991199999997" lon="-1.503976999999998">
        <ele>531.435</ele>
        <time>2022-08-24T15:15:58Z</time>
      </trkpt>
      <trkpt lat="42.929899999999975" lon="-1.5039809999999978">
        <ele>531.487</ele>
        <time>2022-08-24T15:15:59Z</time>
      </trkpt>
      <trkpt lat="42.92989099999998" lon="-1.5039909999999979">
        <ele>531.444</ele>
        <time>2022-08-24T15:16:00Z</time>
      </trkpt>
      <trkpt lat="42.92988499999998" lon="-1.5040029999999978">
        <ele>531.477</ele>
        <time>2022-08-24T15:16:01Z</time>
      </trkpt>
      <trkpt lat="42.929876999999976" lon="-1.5040089999999977">
        <ele>531.481</ele>
        <time>2022-08-24T15:16:02Z</time>
      </trkpt>
      <trkpt lat="42.92985699999998" lon="-1.5040009999999977">
        <ele>531.410</ele>
        <time>2022-08-24T15:16:03Z</time>
      </trkpt>
      <trkpt lat="42.929832999999974" lon="-1.5040089999999977">
        <ele>531.433</ele>
        <time>2022-08-24T15:16:05Z</time>
      </trkpt>
      <trkpt lat="42.92981999999997" lon="-1.5040099999999976">
        <ele>531.423</ele>
        <time>2022-08-24T15:16:06Z</time>
      </trkpt>
      <trkpt lat="42.92980299999997" lon="-1.5040079999999976">
        <ele>531.415</ele>
        <time>2022-08-24T15:16:07Z</time>
      </trkpt>
      <trkpt lat="42.92978399999997" lon="-1.5040069999999977">
        <ele>531.409</ele>
        <time>2022-08-24T15:16:08Z</time>
      </trkpt>
      <trkpt lat="42.92971399999997" lon="-1.5040119999999977">
        <ele>531.454</ele>
        <time>2022-08-24T15:16:12Z</time>
      </trkpt>
      <trkpt lat="42.92970199999997" lon="-1.5040249999999977">
        <ele>531.424</ele>
        <time>2022-08-24T15:16:13Z</time>
      </trkpt>
      <trkpt lat="42.92969699999997" lon="-1.5040289999999976">
        <ele>531.434</ele>
        <time>2022-08-24T15:16:14Z</time>
      </trkpt>
      <trkpt lat="42.92968599999997" lon="-1.5040319999999976">
        <ele>531.450</ele>
        <time>2022-08-24T15:16:15Z</time>
      </trkpt>
      <trkpt lat="42.92967199999997" lon="-1.5040359999999975">
        <ele>531.682</ele>
        <time>2022-08-24T15:16:16Z</time>
      </trkpt>
      <trkpt lat="42.92966099999997" lon="-1.5040409999999975">
        <ele>531.469</ele>
        <time>2022-08-24T15:16:17Z</time>
      </trkpt>
      <trkpt lat="42.92965499999997" lon="-1.5040489999999975">
        <ele>531.462</ele>
        <time>2022-08-24T15:16:18Z</time>
      </trkpt>
      <trkpt lat="42.92963499999997" lon="-1.5040589999999976">
        <ele>531.456</ele>
        <time>2022-08-24T15:16:19Z</time>
      </trkpt>
      <trkpt lat="42.92961899999997" lon="-1.5040619999999976">
        <ele>531.465</ele>
        <time>2022-08-24T15:16:20Z</time>
      </trkpt>
      <trkpt lat="42.929607999999966" lon="-1.5040749999999976">
        <ele>531.479</ele>
        <time>2022-08-24T15:16:21Z</time>
      </trkpt>
      <trkpt lat="42.929596999999966" lon="-1.5040769999999977">
        <ele>531.405</ele>
        <time>2022-08-24T15:16:22Z</time>
      </trkpt>
      <trkpt lat="42.929593999999966" lon="-1.5040839999999978">
        <ele>531.425</ele>
        <time>2022-08-24T15:16:23Z</time>
      </trkpt>
      <trkpt lat="42.929593999999966" lon="-1.5040839999999978">
        <ele>531.409</ele>
        <time>2022-08-24T15:16:24Z</time>
      </trkpt>
      <trkpt lat="42.929579999999966" lon="-1.5040659999999977">
        <ele>531.428</ele>
        <time>2022-08-24T15:16:25Z</time>
      </trkpt>
      <trkpt lat="42.92957599999997" lon="-1.5040609999999976">
        <ele>531.248</ele>
        <time>2022-08-24T15:16:26Z</time>
      </trkpt>
      <trkpt lat="42.92957499999997" lon="-1.5040489999999977">
        <ele>531.228</ele>
        <time>2022-08-24T15:16:27Z</time>
      </trkpt>
      <trkpt lat="42.92957499999997" lon="-1.5040189999999978">
        <ele>531.234</ele>
        <time>2022-08-24T15:16:29Z</time>
      </trkpt>
      <trkpt lat="42.92956999999997" lon="-1.5040089999999977">
        <ele>531.256</ele>
        <time>2022-08-24T15:16:30Z</time>
      </trkpt>
      <trkpt lat="42.92956899999997" lon="-1.5040059999999977">
        <ele>531.273</ele>
        <time>2022-08-24T15:16:31Z</time>
      </trkpt>
      <trkpt lat="42.929567999999975" lon="-1.5040019999999978">
        <ele>531.056</ele>
        <time>2022-08-24T15:16:32Z</time>
      </trkpt>
      <trkpt lat="42.929570999999974" lon="-1.5039829999999978">
        <ele>531.090</ele>
        <time>2022-08-24T15:16:33Z</time>
      </trkpt>
      <trkpt lat="42.92956999999998" lon="-1.5039639999999979">
        <ele>531.039</ele>
        <time>2022-08-24T15:16:34Z</time>
      </trkpt>
      <trkpt lat="42.92956999999998" lon="-1.503959999999998">
        <ele>531.225</ele>
        <time>2022-08-24T15:16:36Z</time>
      </trkpt>
      <trkpt lat="42.92956999999998" lon="-1.503959999999998">
        <ele>531.226</ele>
        <time>2022-08-24T15:16:38Z</time>
      </trkpt>
      <trkpt lat="42.92957199999998" lon="-1.503965999999998">
        <ele>531.008</ele>
        <time>2022-08-24T15:16:39Z</time>
      </trkpt>
      <trkpt lat="42.92957199999998" lon="-1.503965999999998">
        <ele>531.009</ele>
        <time>2022-08-24T15:16:40Z</time>
      </trkpt>
      <trkpt lat="42.92956999999998" lon="-1.503976999999998">
        <ele>530.613</ele>
        <time>2022-08-24T15:18:08Z</time>
      </trkpt>
      <trkpt lat="42.929572999999976" lon="-1.503997999999998">
        <ele>530.853</ele>
        <time>2022-08-24T15:18:10Z</time>
      </trkpt>
      <trkpt lat="42.92957499999998" lon="-1.504007999999998">
        <ele>530.853</ele>
        <time>2022-08-24T15:18:11Z</time>
      </trkpt>
      <trkpt lat="42.92957399999998" lon="-1.504006999999998">
        <ele>530.829</ele>
        <time>2022-08-24T15:18:14Z</time>
      </trkpt>
      <trkpt lat="42.92956299999998" lon="-1.503985999999998">
        <ele>530.831</ele>
        <time>2022-08-24T15:18:15Z</time>
      </trkpt>
      <trkpt lat="42.92954499999998" lon="-1.503950999999998">
        <ele>530.868</ele>
        <time>2022-08-24T15:18:17Z</time>
      </trkpt>
      <trkpt lat="42.92953699999998" lon="-1.503928999999998">
        <ele>530.821</ele>
        <time>2022-08-24T15:18:18Z</time>
      </trkpt>
      <trkpt lat="42.928446999999984" lon="-1.505708999999998">
        <ele>530.045</ele>
        <time>2022-08-24T15:52:52Z</time>
      </trkpt>
      <trkpt lat="42.92827899999998" lon="-1.5057909999999979">
        <ele>529.854</ele>
        <time>2022-08-24T15:52:57Z</time>
      </trkpt>
      <trkpt lat="42.92824499999998" lon="-1.505805999999998">
        <ele>529.818</ele>
        <time>2022-08-24T15:52:58Z</time>
      </trkpt>
      <trkpt lat="42.92813099999998" lon="-1.505865999999998">
        <ele>530.098</ele>
        <time>2022-08-24T15:53:01Z</time>
      </trkpt>
      <trkpt lat="42.92805199999998" lon="-1.505905999999998">
        <ele>530.017</ele>
        <time>2022-08-24T15:53:03Z</time>
      </trkpt>
      <trkpt lat="42.927709999999976" lon="-1.506128999999998">
        <ele>530.209</ele>
        <time>2022-08-24T15:53:12Z</time>
      </trkpt>
      <trkpt lat="42.92735699999998" lon="-1.506425999999998">
        <ele>530.462</ele>
        <time>2022-08-24T15:53:21Z</time>
      </trkpt>
      <trkpt lat="42.92727599999998" lon="-1.506495999999998">
        <ele>530.432</ele>
        <time>2022-08-24T15:53:23Z</time>
      </trkpt>
      <trkpt lat="42.927200999999975" lon="-1.506561999999998">
        <ele>530.422</ele>
        <time>2022-08-24T15:53:25Z</time>
      </trkpt>
      <trkpt lat="42.92716099999998" lon="-1.506596999999998">
        <ele>530.498</ele>
        <time>2022-08-24T15:53:26Z</time>
      </trkpt>
      <trkpt lat="42.927043999999974" lon="-1.5066979999999979">
        <ele>530.480</ele>
        <time>2022-08-24T15:53:29Z</time>
      </trkpt>
      <trkpt lat="42.92692899999997" lon="-1.506799999999998">
        <ele>530.467</ele>
        <time>2022-08-24T15:53:32Z</time>
      </trkpt>
      <trkpt lat="42.92688399999997" lon="-1.506841999999998">
        <ele>530.410</ele>
        <time>2022-08-24T15:53:33Z</time>
      </trkpt>
      <trkpt lat="42.92685399999997" lon="-1.506869999999998">
        <ele>530.414</ele>
        <time>2022-08-24T15:53:34Z</time>
      </trkpt>
      <trkpt lat="42.92681899999997" lon="-1.506898999999998">
        <ele>530.473</ele>
        <time>2022-08-24T15:53:35Z</time>
      </trkpt>
      <trkpt lat="42.926325999999975" lon="-1.507343999999998">
        <ele>530.244</ele>
        <time>2022-08-24T15:53:47Z</time>
      </trkpt>
      <trkpt lat="42.92612799999998" lon="-1.507513999999998">
        <ele>530.205</ele>
        <time>2022-08-24T15:53:52Z</time>
      </trkpt>
      <trkpt lat="42.92612799999998" lon="-1.507513999999998">
        <ele>530.215</ele>
        <time>2022-08-24T15:53:53Z</time>
      </trkpt>
      <trkpt lat="42.92609099999998" lon="-1.507546999999998">
        <ele>530.209</ele>
        <time>2022-08-24T15:53:54Z</time>
      </trkpt>
      <trkpt lat="42.925855999999975" lon="-1.507748999999998">
        <ele>530.475</ele>
        <time>2022-08-24T15:54:00Z</time>
      </trkpt>
      <trkpt lat="42.925610999999975" lon="-1.507955999999998">
        <ele>530.655</ele>
        <time>2022-08-24T15:54:05Z</time>
      </trkpt>
      <trkpt lat="42.92557099999998" lon="-1.507988999999998">
        <ele>530.665</ele>
        <time>2022-08-24T15:54:06Z</time>
      </trkpt>
      <trkpt lat="42.925531999999976" lon="-1.508020999999998">
        <ele>530.641</ele>
        <time>2022-08-24T15:54:07Z</time>
      </trkpt>
      <trkpt lat="42.92549199999998" lon="-1.5080549999999981">
        <ele>530.633</ele>
        <time>2022-08-24T15:54:08Z</time>
      </trkpt>
      <trkpt lat="42.925453999999974" lon="-1.508087999999998">
        <ele>530.680</ele>
        <time>2022-08-24T15:54:09Z</time>
      </trkpt>
      <trkpt lat="42.92541599999997" lon="-1.508118999999998">
        <ele>530.663</ele>
        <time>2022-08-24T15:54:10Z</time>
      </trkpt>
      <trkpt lat="42.92537899999997" lon="-1.5081499999999979">
        <ele>530.657</ele>
        <time>2022-08-24T15:54:11Z</time>
      </trkpt>
      <trkpt lat="42.92534299999997" lon="-1.508178999999998">
        <ele>530.646</ele>
        <time>2022-08-24T15:54:12Z</time>
      </trkpt>
      <trkpt lat="42.92530799999997" lon="-1.508207999999998">
        <ele>530.633</ele>
        <time>2022-08-24T15:54:13Z</time>
      </trkpt>
      <trkpt lat="42.92527199999997" lon="-1.5082389999999979">
        <ele>530.623</ele>
        <time>2022-08-24T15:54:14Z</time>
      </trkpt>
      <trkpt lat="42.92495699999997" lon="-1.5084739999999979">
        <ele>530.215</ele>
        <time>2022-08-24T15:54:22Z</time>
      </trkpt>
      <trkpt lat="42.92470099999997" lon="-1.508658999999998">
        <ele>530.009</ele>
        <time>2022-08-24T15:54:29Z</time>
      </trkpt>
      <trkpt lat="42.92465799999997" lon="-1.5086899999999979">
        <ele>530.034</ele>
        <time>2022-08-24T15:54:30Z</time>
      </trkpt>
      <trkpt lat="42.924614999999974" lon="-1.508721999999998">
        <ele>530.044</ele>
        <time>2022-08-24T15:54:31Z</time>
      </trkpt>
      <trkpt lat="42.92453199999998" lon="-1.5087799999999978">
        <ele>530.014</ele>
        <time>2022-08-24T15:54:32Z</time>
      </trkpt>
      <trkpt lat="42.924490999999975" lon="-1.5088109999999977">
        <ele>530.220</ele>
        <time>2022-08-24T15:54:33Z</time>
      </trkpt>
      <trkpt lat="42.924490999999975" lon="-1.5088109999999977">
        <ele>530.282</ele>
        <time>2022-08-24T15:54:34Z</time>
      </trkpt>
      <trkpt lat="42.92444399999997" lon="-1.5088469999999976">
        <ele>530.239</ele>
        <time>2022-08-24T15:54:35Z</time>
      </trkpt>
      <trkpt lat="42.92441299999997" lon="-1.5088679999999977">
        <ele>530.282</ele>
        <time>2022-08-24T15:54:36Z</time>
      </trkpt>
      <trkpt lat="42.92429299999997" lon="-1.5089509999999977">
        <ele>530.246</ele>
        <time>2022-08-24T15:54:38Z</time>
      </trkpt>
      <trkpt lat="42.92425499999997" lon="-1.5089799999999978">
        <ele>530.285</ele>
        <time>2022-08-24T15:54:39Z</time>
      </trkpt>
      <trkpt lat="42.92420999999997" lon="-1.5090129999999977">
        <ele>530.247</ele>
        <time>2022-08-24T15:54:40Z</time>
      </trkpt>
      <trkpt lat="42.92420999999997" lon="-1.5090129999999977">
        <ele>530.229</ele>
        <time>2022-08-24T15:54:41Z</time>
      </trkpt>
      <trkpt lat="42.92414399999997" lon="-1.5090639999999977">
        <ele>530.421</ele>
        <time>2022-08-24T15:54:42Z</time>
      </trkpt>
      <trkpt lat="42.92410899999997" lon="-1.5090899999999978">
        <ele>530.409</ele>
        <time>2022-08-24T15:54:43Z</time>
      </trkpt>
      <trkpt lat="42.924074999999974" lon="-1.5091149999999978">
        <ele>530.445</ele>
        <time>2022-08-24T15:54:44Z</time>
      </trkpt>
      <trkpt lat="42.924034999999975" lon="-1.5091449999999977">
        <ele>530.485</ele>
        <time>2022-08-24T15:54:45Z</time>
      </trkpt>
      <trkpt lat="42.92400199999997" lon="-1.5091719999999977">
        <ele>530.485</ele>
        <time>2022-08-24T15:54:47Z</time>
      </trkpt>
      <trkpt lat="42.923801999999974" lon="-1.5093319999999977">
        <ele>530.881</ele>
        <time>2022-08-24T15:54:53Z</time>
      </trkpt>
      <trkpt lat="42.923699999999975" lon="-1.5094149999999977">
        <ele>531.023</ele>
        <time>2022-08-24T15:54:56Z</time>
      </trkpt>
      <trkpt lat="42.92363399999998" lon="-1.5094729999999976">
        <ele>531.060</ele>
        <time>2022-08-24T15:54:58Z</time>
      </trkpt>
      <trkpt lat="42.92360099999998" lon="-1.5095019999999977">
        <ele>531.233</ele>
        <time>2022-08-24T15:54:59Z</time>
      </trkpt>
      <trkpt lat="42.923347999999976" lon="-1.5097509999999976">
        <ele>531.827</ele>
        <time>2022-08-24T15:55:07Z</time>
      </trkpt>
      <trkpt lat="42.923313999999976" lon="-1.5097849999999977">
        <ele>531.856</ele>
        <time>2022-08-24T15:55:08Z</time>
      </trkpt>
      <trkpt lat="42.92325199999998" lon="-1.5098489999999978">
        <ele>531.855</ele>
        <time>2022-08-24T15:55:09Z</time>
      </trkpt>
      <trkpt lat="42.92325199999998" lon="-1.5098489999999978">
        <ele>531.807</ele>
        <time>2022-08-24T15:55:10Z</time>
      </trkpt>
      <trkpt lat="42.923221999999974" lon="-1.5098799999999977">
        <ele>531.817</ele>
        <time>2022-08-24T15:55:11Z</time>
      </trkpt>
      <trkpt lat="42.92319199999997" lon="-1.5099129999999976">
        <ele>532.009</ele>
        <time>2022-08-24T15:55:12Z</time>
      </trkpt>
      <trkpt lat="42.92310499999997" lon="-1.5100129999999976">
        <ele>532.026</ele>
        <time>2022-08-24T15:55:15Z</time>
      </trkpt>
      <trkpt lat="42.92307399999997" lon="-1.5100469999999977">
        <ele>532.046</ele>
        <time>2022-08-24T15:55:16Z</time>
      </trkpt>
      <trkpt lat="42.92304499999997" lon="-1.5100799999999976">
        <ele>532.246</ele>
        <time>2022-08-24T15:55:17Z</time>
      </trkpt>
      <trkpt lat="42.922931999999975" lon="-1.5102139999999977">
        <ele>532.082</ele>
        <time>2022-08-24T15:55:21Z</time>
      </trkpt>
      <trkpt lat="42.92284299999997" lon="-1.5103139999999977">
        <ele>532.014</ele>
        <time>2022-08-24T15:55:24Z</time>
      </trkpt>
      <trkpt lat="42.92268799999997" lon="-1.5104999999999977">
        <ele>531.811</ele>
        <time>2022-08-24T15:55:29Z</time>
      </trkpt>
      <trkpt lat="42.922447999999974" lon="-1.5107719999999978">
        <ele>531.674</ele>
        <time>2022-08-24T15:55:36Z</time>
      </trkpt>
      <trkpt lat="42.92231199999998" lon="-1.5109289999999977">
        <ele>531.628</ele>
        <time>2022-08-24T15:55:40Z</time>
      </trkpt>
      <trkpt lat="42.922278999999975" lon="-1.5109629999999978">
        <ele>531.637</ele>
        <time>2022-08-24T15:55:41Z</time>
      </trkpt>
      <trkpt lat="42.92224699999998" lon="-1.5109989999999978">
        <ele>531.444</ele>
        <time>2022-08-24T15:55:42Z</time>
      </trkpt>
      <trkpt lat="42.92221599999998" lon="-1.5110389999999978">
        <ele>531.405</ele>
        <time>2022-08-24T15:55:43Z</time>
      </trkpt>
      <trkpt lat="42.92218499999998" lon="-1.5110799999999978">
        <ele>531.215</ele>
        <time>2022-08-24T15:55:44Z</time>
      </trkpt>
      <trkpt lat="42.92215299999998" lon="-1.5111199999999978">
        <ele>531.209</ele>
        <time>2022-08-24T15:55:45Z</time>
      </trkpt>
      <trkpt lat="42.92211999999998" lon="-1.5111569999999979">
        <ele>531.255</ele>
        <time>2022-08-24T15:55:46Z</time>
      </trkpt>
      <trkpt lat="42.922086999999976" lon="-1.5111899999999978">
        <ele>531.035</ele>
        <time>2022-08-24T15:55:47Z</time>
      </trkpt>
      <trkpt lat="42.92206399999998" lon="-1.5112209999999977">
        <ele>531.085</ele>
        <time>2022-08-24T15:55:48Z</time>
      </trkpt>
      <trkpt lat="42.92204299999998" lon="-1.5112469999999978">
        <ele>531.081</ele>
        <time>2022-08-24T15:55:49Z</time>
      </trkpt>
      <trkpt lat="42.92202399999998" lon="-1.5112709999999978">
        <ele>531.063</ele>
        <time>2022-08-24T15:55:50Z</time>
      </trkpt>
      <trkpt lat="42.92200399999998" lon="-1.5112949999999978">
        <ele>530.870</ele>
        <time>2022-08-24T15:55:51Z</time>
      </trkpt>
      <trkpt lat="42.92196099999998" lon="-1.5113339999999977">
        <ele>530.873</ele>
        <time>2022-08-24T15:55:53Z</time>
      </trkpt>
      <trkpt lat="42.92181699999998" lon="-1.5114839999999978">
        <ele>530.637</ele>
        <time>2022-08-24T15:55:59Z</time>
      </trkpt>
      <trkpt lat="42.921756999999985" lon="-1.511544999999998">
        <ele>530.656</ele>
        <time>2022-08-24T15:56:01Z</time>
      </trkpt>
      <trkpt lat="42.92163199999999" lon="-1.511689999999998">
        <ele>530.641</ele>
        <time>2022-08-24T15:56:05Z</time>
      </trkpt>
      <trkpt lat="42.92156599999999" lon="-1.511775999999998">
        <ele>530.681</ele>
        <time>2022-08-24T15:56:07Z</time>
      </trkpt>
      <trkpt lat="42.92146199999999" lon="-1.511895999999998">
        <ele>530.609</ele>
        <time>2022-08-24T15:56:10Z</time>
      </trkpt>
      <trkpt lat="42.92139199999999" lon="-1.511983999999998">
        <ele>530.409</ele>
        <time>2022-08-24T15:56:12Z</time>
      </trkpt>
      <trkpt lat="42.92126799999999" lon="-1.512193999999998">
        <ele>530.015</ele>
        <time>2022-08-24T15:56:16Z</time>
      </trkpt>
      <trkpt lat="42.92097099999999" lon="-1.512689999999998">
        <ele>529.245</ele>
        <time>2022-08-24T15:56:25Z</time>
      </trkpt>
      <trkpt lat="42.920903999999986" lon="-1.5127999999999981">
        <ele>529.085</ele>
        <time>2022-08-24T15:56:27Z</time>
      </trkpt>
      <trkpt lat="42.92083799999999" lon="-1.5129099999999982">
        <ele>528.831</ele>
        <time>2022-08-24T15:56:29Z</time>
      </trkpt>
      <trkpt lat="42.92063199999999" lon="-1.5132399999999981">
        <ele>527.823</ele>
        <time>2022-08-24T15:56:35Z</time>
      </trkpt>
      <trkpt lat="42.920489999999994" lon="-1.513467999999998">
        <ele>527.680</ele>
        <time>2022-08-24T15:56:39Z</time>
      </trkpt>
      <trkpt lat="42.920351" lon="-1.513701999999998">
        <ele>526.863</ele>
        <time>2022-08-24T15:56:43Z</time>
      </trkpt>
      <trkpt lat="42.920212" lon="-1.513945999999998">
        <ele>526.457</ele>
        <time>2022-08-24T15:56:47Z</time>
      </trkpt>
      <trkpt lat="42.920178" lon="-1.514005999999998">
        <ele>526.256</ele>
        <time>2022-08-24T15:56:48Z</time>
      </trkpt>
      <trkpt lat="42.920111" lon="-1.514128999999998">
        <ele>526.061</ele>
        <time>2022-08-24T15:56:50Z</time>
      </trkpt>
      <trkpt lat="42.920078" lon="-1.5141899999999981">
        <ele>525.821</ele>
        <time>2022-08-24T15:56:51Z</time>
      </trkpt>
      <trkpt lat="42.919976" lon="-1.5143649999999982">
        <ele>525.613</ele>
        <time>2022-08-24T15:56:54Z</time>
      </trkpt>
      <trkpt lat="42.919798" lon="-1.5146499999999983">
        <ele>525.209</ele>
        <time>2022-08-24T15:56:59Z</time>
      </trkpt>
      <trkpt lat="42.919761" lon="-1.5147039999999983">
        <ele>525.267</ele>
        <time>2022-08-24T15:57:00Z</time>
      </trkpt>
      <trkpt lat="42.919725" lon="-1.5147599999999983">
        <ele>525.227</ele>
        <time>2022-08-24T15:57:01Z</time>
      </trkpt>
      <trkpt lat="42.919609" lon="-1.5149149999999982">
        <ele>524.627</ele>
        <time>2022-08-24T15:57:04Z</time>
      </trkpt>
      <trkpt lat="42.91932" lon="-1.5152889999999983">
        <ele>523.853</ele>
        <time>2022-08-24T15:57:11Z</time>
      </trkpt>
      <trkpt lat="42.919235" lon="-1.5153969999999983">
        <ele>523.675</ele>
        <time>2022-08-24T15:57:12Z</time>
      </trkpt>
      <trkpt lat="42.919014" lon="-1.5156839999999983">
        <ele>522.422</ele>
        <time>2022-08-24T15:57:17Z</time>
      </trkpt>
      <trkpt lat="42.918882999999994" lon="-1.5158569999999982">
        <ele>522.025</ele>
        <time>2022-08-24T15:57:21Z</time>
      </trkpt>
      <trkpt lat="42.918741" lon="-1.5160229999999983">
        <ele>521.639</ele>
        <time>2022-08-24T15:57:24Z</time>
      </trkpt>
      <trkpt lat="42.918692" lon="-1.5160759999999984">
        <ele>521.458</ele>
        <time>2022-08-24T15:57:25Z</time>
      </trkpt>
      <trkpt lat="42.918592" lon="-1.5161779999999985">
        <ele>521.445</ele>
        <time>2022-08-24T15:57:26Z</time>
      </trkpt>
      <trkpt lat="42.918499" lon="-1.5162669999999985">
        <ele>521.047</ele>
        <time>2022-08-24T15:57:28Z</time>
      </trkpt>
      <trkpt lat="42.918499" lon="-1.5162669999999985">
        <ele>521.011</ele>
        <time>2022-08-24T15:57:29Z</time>
      </trkpt>
      <trkpt lat="42.918453" lon="-1.5163099999999985">
        <ele>521.009</ele>
        <time>2022-08-24T15:57:30Z</time>
      </trkpt>
      <trkpt lat="42.91841" lon="-1.5163519999999986">
        <ele>520.875</ele>
        <time>2022-08-24T15:57:31Z</time>
      </trkpt>
      <trkpt lat="42.918328" lon="-1.5164269999999986">
        <ele>520.865</ele>
        <time>2022-08-24T15:57:32Z</time>
      </trkpt>
      <trkpt lat="42.918291" lon="-1.5164609999999987">
        <ele>520.875</ele>
        <time>2022-08-24T15:57:33Z</time>
      </trkpt>
      <trkpt lat="42.918291" lon="-1.5164609999999987">
        <ele>520.831</ele>
        <time>2022-08-24T15:57:34Z</time>
      </trkpt>
      <trkpt lat="42.918249" lon="-1.5164979999999988">
        <ele>520.853</ele>
        <time>2022-08-24T15:57:35Z</time>
      </trkpt>
      <trkpt lat="42.918206000000005" lon="-1.5165309999999987">
        <ele>520.820</ele>
        <time>2022-08-24T15:57:36Z</time>
      </trkpt>
      <trkpt lat="42.918164000000004" lon="-1.5165639999999987">
        <ele>520.883</ele>
        <time>2022-08-24T15:57:37Z</time>
      </trkpt>
      <trkpt lat="42.918038" lon="-1.5166739999999987">
        <ele>520.877</ele>
        <time>2022-08-24T15:57:39Z</time>
      </trkpt>
      <trkpt lat="42.917955000000006" lon="-1.5167479999999987">
        <ele>520.866</ele>
        <time>2022-08-24T15:57:41Z</time>
      </trkpt>
      <trkpt lat="42.917655" lon="-1.5170079999999986">
        <ele>521.042</ele>
        <time>2022-08-24T15:57:48Z</time>
      </trkpt>
      <trkpt lat="42.917655" lon="-1.5170079999999986">
        <ele>521.022</ele>
        <time>2022-08-24T15:57:49Z</time>
      </trkpt>
      <trkpt lat="42.917570000000005" lon="-1.5170799999999987">
        <ele>521.014</ele>
        <time>2022-08-24T15:57:51Z</time>
      </trkpt>
      <trkpt lat="42.917528000000004" lon="-1.5171159999999986">
        <ele>521.009</ele>
        <time>2022-08-24T15:57:52Z</time>
      </trkpt>
      <trkpt lat="42.917485000000006" lon="-1.5171479999999986">
        <ele>521.215</ele>
        <time>2022-08-24T15:57:53Z</time>
      </trkpt>
      <trkpt lat="42.917027000000004" lon="-1.5175409999999987">
        <ele>521.235</ele>
        <time>2022-08-24T15:58:04Z</time>
      </trkpt>
      <trkpt lat="42.91698100000001" lon="-1.5175789999999987">
        <ele>521.265</ele>
        <time>2022-08-24T15:58:05Z</time>
      </trkpt>
      <trkpt lat="42.916706000000005" lon="-1.5178029999999987">
        <ele>521.221</ele>
        <time>2022-08-24T15:58:11Z</time>
      </trkpt>
      <trkpt lat="42.916470000000004" lon="-1.5179839999999987">
        <ele>521.283</ele>
        <time>2022-08-24T15:58:16Z</time>
      </trkpt>
      <trkpt lat="42.916424000000006" lon="-1.5180199999999986">
        <ele>521.270</ele>
        <time>2022-08-24T15:58:17Z</time>
      </trkpt>
      <trkpt lat="42.91633300000001" lon="-1.5180869999999986">
        <ele>521.213</ele>
        <time>2022-08-24T15:58:18Z</time>
      </trkpt>
      <trkpt lat="42.91633300000001" lon="-1.5180869999999986">
        <ele>521.247</ele>
        <time>2022-08-24T15:58:19Z</time>
      </trkpt>
      <trkpt lat="42.916292000000006" lon="-1.5181179999999985">
        <ele>521.486</ele>
        <time>2022-08-24T15:58:20Z</time>
      </trkpt>
      <trkpt lat="42.91625500000001" lon="-1.5181479999999985">
        <ele>521.472</ele>
        <time>2022-08-24T15:58:21Z</time>
      </trkpt>
      <trkpt lat="42.91622000000001" lon="-1.5181779999999985">
        <ele>521.213</ele>
        <time>2022-08-24T15:58:22Z</time>
      </trkpt>
      <trkpt lat="42.91618300000001" lon="-1.5182059999999984">
        <ele>521.214</ele>
        <time>2022-08-24T15:58:23Z</time>
      </trkpt>
      <trkpt lat="42.91614900000001" lon="-1.5182339999999983">
        <ele>521.209</ele>
        <time>2022-08-24T15:58:24Z</time>
      </trkpt>
      <trkpt lat="42.91593000000001" lon="-1.5184139999999984">
        <ele>521.048</ele>
        <time>2022-08-24T15:58:30Z</time>
      </trkpt>
      <trkpt lat="42.91556200000001" lon="-1.5187229999999983">
        <ele>521.078</ele>
        <time>2022-08-24T15:58:39Z</time>
      </trkpt>
      <trkpt lat="42.91544400000001" lon="-1.5188469999999983">
        <ele>521.028</ele>
        <time>2022-08-24T15:58:42Z</time>
      </trkpt>
      <trkpt lat="42.91540900000001" lon="-1.5188889999999984">
        <ele>521.064</ele>
        <time>2022-08-24T15:58:43Z</time>
      </trkpt>
      <trkpt lat="42.91530900000001" lon="-1.5190279999999983">
        <ele>521.046</ele>
        <time>2022-08-24T15:58:46Z</time>
      </trkpt>
      <trkpt lat="42.91503200000001" lon="-1.5195149999999982">
        <ele>520.633</ele>
        <time>2022-08-24T15:58:56Z</time>
      </trkpt>
      <trkpt lat="42.914845000000014" lon="-1.5198709999999982">
        <ele>520.226</ele>
        <time>2022-08-24T15:59:01Z</time>
      </trkpt>
      <trkpt lat="42.91468500000001" lon="-1.5201849999999981">
        <ele>519.840</ele>
        <time>2022-08-24T15:59:05Z</time>
      </trkpt>
      <trkpt lat="42.91465200000001" lon="-1.5202459999999982">
        <ele>519.679</ele>
        <time>2022-08-24T15:59:06Z</time>
      </trkpt>
      <trkpt lat="42.91448700000001" lon="-1.5205579999999983">
        <ele>519.052</ele>
        <time>2022-08-24T15:59:11Z</time>
      </trkpt>
      <trkpt lat="42.91434900000001" lon="-1.5208179999999982">
        <ele>518.453</ele>
        <time>2022-08-24T15:59:15Z</time>
      </trkpt>
      <trkpt lat="42.91432300000001" lon="-1.5208669999999982">
        <ele>518.408</ele>
        <time>2022-08-24T15:59:16Z</time>
      </trkpt>
      <trkpt lat="42.91429000000001" lon="-1.5209269999999981">
        <ele>518.209</ele>
        <time>2022-08-24T15:59:17Z</time>
      </trkpt>
      <trkpt lat="42.914257000000006" lon="-1.520984999999998">
        <ele>518.086</ele>
        <time>2022-08-24T15:59:18Z</time>
      </trkpt>
      <trkpt lat="42.91422500000001" lon="-1.521041999999998">
        <ele>518.066</ele>
        <time>2022-08-24T15:59:19Z</time>
      </trkpt>
      <trkpt lat="42.91413300000001" lon="-1.521222999999998">
        <ele>517.826</ele>
        <time>2022-08-24T15:59:22Z</time>
      </trkpt>
      <trkpt lat="42.91410200000001" lon="-1.521281999999998">
        <ele>517.622</ele>
        <time>2022-08-24T15:59:23Z</time>
      </trkpt>
      <trkpt lat="42.914066000000005" lon="-1.5213509999999981">
        <ele>517.684</ele>
        <time>2022-08-24T15:59:24Z</time>
      </trkpt>
      <trkpt lat="42.914038000000005" lon="-1.5214049999999981">
        <ele>517.661</ele>
        <time>2022-08-24T15:59:25Z</time>
      </trkpt>
      <trkpt lat="42.914038000000005" lon="-1.5214049999999981">
        <ele>517.684</ele>
        <time>2022-08-24T15:59:26Z</time>
      </trkpt>
      <trkpt lat="42.914015000000006" lon="-1.521448999999998">
        <ele>517.498</ele>
        <time>2022-08-24T15:59:27Z</time>
      </trkpt>
      <trkpt lat="42.91395800000001" lon="-1.521551999999998">
        <ele>517.487</ele>
        <time>2022-08-24T15:59:28Z</time>
      </trkpt>
      <trkpt lat="42.91392100000001" lon="-1.521611999999998">
        <ele>517.432</ele>
        <time>2022-08-24T15:59:29Z</time>
      </trkpt>
      <trkpt lat="42.91385700000001" lon="-1.521689999999998">
        <ele>517.492</ele>
        <time>2022-08-24T15:59:31Z</time>
      </trkpt>
      <trkpt lat="42.91382000000001" lon="-1.521729999999998">
        <ele>517.411</ele>
        <time>2022-08-24T15:59:32Z</time>
      </trkpt>
      <trkpt lat="42.913596000000005" lon="-1.521982999999998">
        <ele>517.409</ele>
        <time>2022-08-24T15:59:38Z</time>
      </trkpt>
      <trkpt lat="42.91347100000001" lon="-1.522101999999998">
        <ele>517.244</ele>
        <time>2022-08-24T15:59:41Z</time>
      </trkpt>
      <trkpt lat="42.913306000000006" lon="-1.522234999999998">
        <ele>517.244</ele>
        <time>2022-08-24T15:59:45Z</time>
      </trkpt>
      <trkpt lat="42.91307400000001" lon="-1.522399999999998">
        <ele>517.084</ele>
        <time>2022-08-24T15:59:51Z</time>
      </trkpt>
      <trkpt lat="42.91299100000001" lon="-1.522451999999998">
        <ele>516.830</ele>
        <time>2022-08-24T15:59:52Z</time>
      </trkpt>
      <trkpt lat="42.91275500000001" lon="-1.522602999999998">
        <ele>516.632</ele>
        <time>2022-08-24T15:59:57Z</time>
      </trkpt>
      <trkpt lat="42.91270800000001" lon="-1.5226339999999978">
        <ele>516.639</ele>
        <time>2022-08-24T15:59:58Z</time>
      </trkpt>
      <trkpt lat="42.91261300000001" lon="-1.5226959999999978">
        <ele>516.442</ele>
        <time>2022-08-24T16:00:00Z</time>
      </trkpt>
      <trkpt lat="42.912423000000004" lon="-1.5228199999999978">
        <ele>516.276</ele>
        <time>2022-08-24T16:00:04Z</time>
      </trkpt>
      <trkpt lat="42.912164000000004" lon="-1.522996999999998">
        <ele>515.815</ele>
        <time>2022-08-24T16:00:09Z</time>
      </trkpt>
      <trkpt lat="42.911919000000005" lon="-1.523219999999998">
        <ele>515.687</ele>
        <time>2022-08-24T16:00:14Z</time>
      </trkpt>
      <trkpt lat="42.91182800000001" lon="-1.523321999999998">
        <ele>515.442</ele>
        <time>2022-08-24T16:00:16Z</time>
      </trkpt>
      <trkpt lat="42.91162500000001" lon="-1.523599999999998">
        <ele>515.226</ele>
        <time>2022-08-24T16:00:21Z</time>
      </trkpt>
      <trkpt lat="42.91162500000001" lon="-1.523599999999998">
        <ele>515.009</ele>
        <time>2022-08-24T16:00:22Z</time>
      </trkpt>
      <trkpt lat="42.91152700000001" lon="-1.523770999999998">
        <ele>515.079</ele>
        <time>2022-08-24T16:00:24Z</time>
      </trkpt>
      <trkpt lat="42.91152700000001" lon="-1.523770999999998">
        <ele>515.089</ele>
        <time>2022-08-24T16:00:25Z</time>
      </trkpt>
      <trkpt lat="42.911432000000005" lon="-1.523965999999998">
        <ele>515.099</ele>
        <time>2022-08-24T16:00:28Z</time>
      </trkpt>
      <trkpt lat="42.911404000000005" lon="-1.524033999999998">
        <ele>514.835</ele>
        <time>2022-08-24T16:00:29Z</time>
      </trkpt>
      <trkpt lat="42.911376000000004" lon="-1.5241019999999978">
        <ele>515.077</ele>
        <time>2022-08-24T16:00:30Z</time>
      </trkpt>
      <trkpt lat="42.911328000000005" lon="-1.5242369999999978">
        <ele>514.634</ele>
        <time>2022-08-24T16:00:32Z</time>
      </trkpt>
      <trkpt lat="42.911304" lon="-1.5243049999999978">
        <ele>514.847</ele>
        <time>2022-08-24T16:00:33Z</time>
      </trkpt>
      <trkpt lat="42.911212" lon="-1.5246779999999978">
        <ele>514.851</ele>
        <time>2022-08-24T16:00:37Z</time>
      </trkpt>
      <trkpt lat="42.911159" lon="-1.5251089999999978">
        <ele>514.660</ele>
        <time>2022-08-24T16:00:43Z</time>
      </trkpt>
      <trkpt lat="42.911145999999995" lon="-1.525274999999998">
        <ele>514.835</ele>
        <time>2022-08-24T16:00:45Z</time>
      </trkpt>
      <trkpt lat="42.91113599999999" lon="-1.525424999999998">
        <ele>514.886</ele>
        <time>2022-08-24T16:00:47Z</time>
      </trkpt>
      <trkpt lat="42.91112599999999" lon="-1.525560999999998">
        <ele>514.814</ele>
        <time>2022-08-24T16:00:49Z</time>
      </trkpt>
      <trkpt lat="42.91110999999999" lon="-1.525861999999998">
        <ele>514.809</ele>
        <time>2022-08-24T16:00:53Z</time>
      </trkpt>
      <trkpt lat="42.91110699999999" lon="-1.525935999999998">
        <ele>514.824</ele>
        <time>2022-08-24T16:00:54Z</time>
      </trkpt>
      <trkpt lat="42.91110099999999" lon="-1.526008999999998">
        <ele>514.834</ele>
        <time>2022-08-24T16:00:55Z</time>
      </trkpt>
      <trkpt lat="42.91109399999999" lon="-1.526091999999998">
        <ele>514.874</ele>
        <time>2022-08-24T16:00:56Z</time>
      </trkpt>
      <trkpt lat="42.91109199999999" lon="-1.526155999999998">
        <ele>514.830</ele>
        <time>2022-08-24T16:00:57Z</time>
      </trkpt>
      <trkpt lat="42.91108699999999" lon="-1.526207999999998">
        <ele>515.052</ele>
        <time>2022-08-24T16:00:58Z</time>
      </trkpt>
      <trkpt lat="42.911081999999986" lon="-1.526286999999998">
        <ele>515.029</ele>
        <time>2022-08-24T16:00:59Z</time>
      </trkpt>
      <trkpt lat="42.91107599999999" lon="-1.5263499999999979">
        <ele>515.272</ele>
        <time>2022-08-24T16:01:00Z</time>
      </trkpt>
      <trkpt lat="42.911070999999986" lon="-1.526413999999998">
        <ele>515.226</ele>
        <time>2022-08-24T16:01:01Z</time>
      </trkpt>
      <trkpt lat="42.911065999999984" lon="-1.526475999999998">
        <ele>515.435</ele>
        <time>2022-08-24T16:01:02Z</time>
      </trkpt>
      <trkpt lat="42.911062999999984" lon="-1.526535999999998">
        <ele>515.467</ele>
        <time>2022-08-24T16:01:03Z</time>
      </trkpt>
      <trkpt lat="42.911048999999984" lon="-1.5267819999999979">
        <ele>515.681</ele>
        <time>2022-08-24T16:01:07Z</time>
      </trkpt>
      <trkpt lat="42.91094899999998" lon="-1.5275459999999978">
        <ele>515.819</ele>
        <time>2022-08-24T16:01:19Z</time>
      </trkpt>
      <trkpt lat="42.91093299999998" lon="-1.5276249999999978">
        <ele>516.009</ele>
        <time>2022-08-24T16:01:20Z</time>
      </trkpt>
      <trkpt lat="42.91091499999998" lon="-1.5276879999999977">
        <ele>516.087</ele>
        <time>2022-08-24T16:01:21Z</time>
      </trkpt>
      <trkpt lat="42.910899999999984" lon="-1.5277479999999977">
        <ele>516.027</ele>
        <time>2022-08-24T16:01:22Z</time>
      </trkpt>
      <trkpt lat="42.91078599999998" lon="-1.5281969999999976">
        <ele>516.077</ele>
        <time>2022-08-24T16:01:29Z</time>
      </trkpt>
      <trkpt lat="42.91060599999998" lon="-1.5288739999999976">
        <ele>515.463</ele>
        <time>2022-08-24T16:01:39Z</time>
      </trkpt>
      <trkpt lat="42.91055199999998" lon="-1.5290839999999977">
        <ele>515.255</ele>
        <time>2022-08-24T16:01:42Z</time>
      </trkpt>
      <trkpt lat="42.91051199999998" lon="-1.5292229999999976">
        <ele>515.072</ele>
        <time>2022-08-24T16:01:44Z</time>
      </trkpt>
      <trkpt lat="42.910491999999984" lon="-1.5292899999999976">
        <ele>515.085</ele>
        <time>2022-08-24T16:01:45Z</time>
      </trkpt>
      <trkpt lat="42.91041399999998" lon="-1.5295689999999975">
        <ele>514.829</ele>
        <time>2022-08-24T16:01:49Z</time>
      </trkpt>
      <trkpt lat="42.91037299999998" lon="-1.5297089999999975">
        <ele>514.858</ele>
        <time>2022-08-24T16:01:51Z</time>
      </trkpt>
      <trkpt lat="42.910196999999975" lon="-1.5303519999999975">
        <ele>514.037</ele>
        <time>2022-08-24T16:02:00Z</time>
      </trkpt>
      <trkpt lat="42.91017599999998" lon="-1.5304249999999975">
        <ele>514.049</ele>
        <time>2022-08-24T16:02:01Z</time>
      </trkpt>
      <trkpt lat="42.91015299999998" lon="-1.5304999999999975">
        <ele>514.013</ele>
        <time>2022-08-24T16:02:02Z</time>
      </trkpt>
      <trkpt lat="42.90998699999998" lon="-1.5310889999999975">
        <ele>513.009</ele>
        <time>2022-08-24T16:02:10Z</time>
      </trkpt>
      <trkpt lat="42.90998699999998" lon="-1.5310889999999975">
        <ele>513.034</ele>
        <time>2022-08-24T16:02:11Z</time>
      </trkpt>
      <trkpt lat="42.90994499999998" lon="-1.5312379999999974">
        <ele>512.874</ele>
        <time>2022-08-24T16:02:12Z</time>
      </trkpt>
      <trkpt lat="42.90992599999998" lon="-1.5313109999999974">
        <ele>512.854</ele>
        <time>2022-08-24T16:02:13Z</time>
      </trkpt>
      <trkpt lat="42.909802999999975" lon="-1.5317419999999975">
        <ele>512.670</ele>
        <time>2022-08-24T16:02:19Z</time>
      </trkpt>
      <trkpt lat="42.90977899999997" lon="-1.5318309999999975">
        <ele>512.472</ele>
        <time>2022-08-24T16:02:21Z</time>
      </trkpt>
      <trkpt lat="42.909763999999974" lon="-1.5318889999999974">
        <ele>512.489</ele>
        <time>2022-08-24T16:02:22Z</time>
      </trkpt>
      <trkpt lat="42.90965899999998" lon="-1.5322399999999974">
        <ele>512.092</ele>
        <time>2022-08-24T16:02:27Z</time>
      </trkpt>
      <trkpt lat="42.909636999999975" lon="-1.5323109999999973">
        <ele>512.086</ele>
        <time>2022-08-24T16:02:28Z</time>
      </trkpt>
      <trkpt lat="42.90957899999997" lon="-1.5325199999999972">
        <ele>511.885</ele>
        <time>2022-08-24T16:02:30Z</time>
      </trkpt>
      <trkpt lat="42.90955999999997" lon="-1.5325909999999972">
        <ele>511.854</ele>
        <time>2022-08-24T16:02:32Z</time>
      </trkpt>
      <trkpt lat="42.909538999999974" lon="-1.5326599999999972">
        <ele>511.656</ele>
        <time>2022-08-24T16:02:33Z</time>
      </trkpt>
      <trkpt lat="42.90949999999997" lon="-1.5327969999999973">
        <ele>511.611</ele>
        <time>2022-08-24T16:02:35Z</time>
      </trkpt>
      <trkpt lat="42.909479999999974" lon="-1.5328659999999974">
        <ele>511.609</ele>
        <time>2022-08-24T16:02:36Z</time>
      </trkpt>
      <trkpt lat="42.90943899999997" lon="-1.5329979999999974">
        <ele>511.686</ele>
        <time>2022-08-24T16:02:38Z</time>
      </trkpt>
      <trkpt lat="42.90937699999997" lon="-1.5331949999999974">
        <ele>511.666</ele>
        <time>2022-08-24T16:02:41Z</time>
      </trkpt>
      <trkpt lat="42.909358999999974" lon="-1.5332599999999974">
        <ele>511.496</ele>
        <time>2022-08-24T16:02:42Z</time>
      </trkpt>
      <trkpt lat="42.909295999999976" lon="-1.5334499999999973">
        <ele>511.462</ele>
        <time>2022-08-24T16:02:44Z</time>
      </trkpt>
      <trkpt lat="42.90923299999998" lon="-1.5336439999999973">
        <ele>511.424</ele>
        <time>2022-08-24T16:02:47Z</time>
      </trkpt>
      <trkpt lat="42.90910699999998" lon="-1.5339629999999973">
        <ele>511.251</ele>
        <time>2022-08-24T16:02:53Z</time>
      </trkpt>
      <trkpt lat="42.90894599999998" lon="-1.5342649999999973">
        <ele>511.074</ele>
        <time>2022-08-24T16:02:58Z</time>
      </trkpt>
      <trkpt lat="42.908825999999976" lon="-1.5344429999999973">
        <ele>510.848</ele>
        <time>2022-08-24T16:03:00Z</time>
      </trkpt>
      <trkpt lat="42.90851299999998" lon="-1.5347889999999973">
        <ele>510.287</ele>
        <time>2022-08-24T16:03:08Z</time>
      </trkpt>
      <trkpt lat="42.90830899999998" lon="-1.5349509999999973">
        <ele>509.822</ele>
        <time>2022-08-24T16:03:11Z</time>
      </trkpt>
      <trkpt lat="42.90808999999998" lon="-1.5350999999999972">
        <ele>509.262</ele>
        <time>2022-08-24T16:03:16Z</time>
      </trkpt>
      <trkpt lat="42.90791799999998" lon="-1.5351939999999973">
        <ele>508.808</ele>
        <time>2022-08-24T16:03:19Z</time>
      </trkpt>
      <trkpt lat="42.90779899999998" lon="-1.5352489999999972">
        <ele>508.609</ele>
        <time>2022-08-24T16:03:21Z</time>
      </trkpt>
      <trkpt lat="42.90767799999998" lon="-1.535295999999997">
        <ele>508.413</ele>
        <time>2022-08-24T16:03:22Z</time>
      </trkpt>
      <trkpt lat="42.90767799999998" lon="-1.535295999999997">
        <ele>508.433</ele>
        <time>2022-08-24T16:03:23Z</time>
      </trkpt>
      <trkpt lat="42.90749899999998" lon="-1.5353599999999972">
        <ele>508.253</ele>
        <time>2022-08-24T16:03:25Z</time>
      </trkpt>
      <trkpt lat="42.90738899999998" lon="-1.5353999999999972">
        <ele>508.069</ele>
        <time>2022-08-24T16:03:28Z</time>
      </trkpt>
      <trkpt lat="42.90728299999998" lon="-1.5354429999999972">
        <ele>508.021</ele>
        <time>2022-08-24T16:03:29Z</time>
      </trkpt>
      <trkpt lat="42.90728299999998" lon="-1.5354429999999972">
        <ele>508.098</ele>
        <time>2022-08-24T16:03:30Z</time>
      </trkpt>
      <trkpt lat="42.90717099999998" lon="-1.5354769999999973">
        <ele>508.071</ele>
        <time>2022-08-24T16:03:31Z</time>
      </trkpt>
      <trkpt lat="42.90711699999998" lon="-1.5354949999999974">
        <ele>508.085</ele>
        <time>2022-08-24T16:03:33Z</time>
      </trkpt>
      <trkpt lat="42.90700199999998" lon="-1.5355319999999975">
        <ele>508.084</ele>
        <time>2022-08-24T16:03:35Z</time>
      </trkpt>
      <trkpt lat="42.906886999999976" lon="-1.5355699999999974">
        <ele>508.057</ele>
        <time>2022-08-24T16:03:36Z</time>
      </trkpt>
      <trkpt lat="42.906490999999974" lon="-1.5356979999999973">
        <ele>507.800</ele>
        <time>2022-08-24T16:03:44Z</time>
      </trkpt>
      <trkpt lat="42.906206999999974" lon="-1.5358519999999973">
        <ele>507.820</ele>
        <time>2022-08-24T16:03:48Z</time>
      </trkpt>
      <trkpt lat="42.90615199999997" lon="-1.5358949999999973">
        <ele>507.609</ele>
        <time>2022-08-24T16:03:50Z</time>
      </trkpt>
      <trkpt lat="42.90609899999997" lon="-1.5359419999999973">
        <ele>507.626</ele>
        <time>2022-08-24T16:03:51Z</time>
      </trkpt>
      <trkpt lat="42.90604699999997" lon="-1.5359909999999972">
        <ele>507.626</ele>
        <time>2022-08-24T16:03:52Z</time>
      </trkpt>
      <trkpt lat="42.905947999999974" lon="-1.5360909999999972">
        <ele>507.646</ele>
        <time>2022-08-24T16:03:53Z</time>
      </trkpt>
      <trkpt lat="42.90584999999997" lon="-1.5361969999999971">
        <ele>507.232</ele>
        <time>2022-08-24T16:03:56Z</time>
      </trkpt>
      <trkpt lat="42.90575799999997" lon="-1.536302999999997">
        <ele>507.244</ele>
        <time>2022-08-24T16:03:57Z</time>
      </trkpt>
      <trkpt lat="42.90562199999997" lon="-1.536465999999997">
        <ele>507.041</ele>
        <time>2022-08-24T16:04:00Z</time>
      </trkpt>
      <trkpt lat="42.905533999999975" lon="-1.536576999999997">
        <ele>506.864</ele>
        <time>2022-08-24T16:04:02Z</time>
      </trkpt>
      <trkpt lat="42.905434999999976" lon="-1.536698999999997">
        <ele>506.888</ele>
        <time>2022-08-24T16:04:05Z</time>
      </trkpt>
      <trkpt lat="42.90539999999998" lon="-1.536743999999997">
        <ele>506.827</ele>
        <time>2022-08-24T16:04:06Z</time>
      </trkpt>
      <trkpt lat="42.90531199999998" lon="-1.536851999999997">
        <ele>506.865</ele>
        <time>2022-08-24T16:04:07Z</time>
      </trkpt>
      <trkpt lat="42.90526799999998" lon="-1.536902999999997">
        <ele>506.868</ele>
        <time>2022-08-24T16:04:08Z</time>
      </trkpt>
      <trkpt lat="42.90522599999998" lon="-1.5369529999999971">
        <ele>506.814</ele>
        <time>2022-08-24T16:04:09Z</time>
      </trkpt>
      <trkpt lat="42.90522599999998" lon="-1.5369529999999971">
        <ele>506.609</ele>
        <time>2022-08-24T16:04:10Z</time>
      </trkpt>
      <trkpt lat="42.905184999999975" lon="-1.5370029999999972">
        <ele>506.677</ele>
        <time>2022-08-24T16:04:11Z</time>
      </trkpt>
      <trkpt lat="42.90501999999997" lon="-1.5372029999999972">
        <ele>506.477</ele>
        <time>2022-08-24T16:04:15Z</time>
      </trkpt>
      <trkpt lat="42.90481199999997" lon="-1.5374589999999972">
        <ele>506.437</ele>
        <time>2022-08-24T16:04:19Z</time>
      </trkpt>
      <trkpt lat="42.90459799999997" lon="-1.5377189999999972">
        <ele>506.423</ele>
        <time>2022-08-24T16:04:24Z</time>
      </trkpt>
      <trkpt lat="42.90459799999997" lon="-1.5377189999999972">
        <ele>506.465</ele>
        <time>2022-08-24T16:04:25Z</time>
      </trkpt>
      <trkpt lat="42.90455699999997" lon="-1.5377689999999973">
        <ele>506.492</ele>
        <time>2022-08-24T16:04:26Z</time>
      </trkpt>
      <trkpt lat="42.904515999999965" lon="-1.5378189999999974">
        <ele>506.275</ele>
        <time>2022-08-24T16:04:27Z</time>
      </trkpt>
      <trkpt lat="42.90439399999997" lon="-1.5379639999999974">
        <ele>506.229</ele>
        <time>2022-08-24T16:04:29Z</time>
      </trkpt>
      <trkpt lat="42.90439399999997" lon="-1.5379639999999974">
        <ele>506.278</ele>
        <time>2022-08-24T16:04:30Z</time>
      </trkpt>
      <trkpt lat="42.90423299999997" lon="-1.5381679999999975">
        <ele>506.283</ele>
        <time>2022-08-24T16:04:33Z</time>
      </trkpt>
      <trkpt lat="42.903966999999966" lon="-1.5385589999999976">
        <ele>506.025</ele>
        <time>2022-08-24T16:04:40Z</time>
      </trkpt>
      <trkpt lat="42.903966999999966" lon="-1.5385589999999976">
        <ele>506.017</ele>
        <time>2022-08-24T16:04:41Z</time>
      </trkpt>
      <trkpt lat="42.903930999999965" lon="-1.5386169999999975">
        <ele>506.009</ele>
        <time>2022-08-24T16:04:42Z</time>
      </trkpt>
      <trkpt lat="42.903899999999965" lon="-1.5386789999999975">
        <ele>506.089</ele>
        <time>2022-08-24T16:04:43Z</time>
      </trkpt>
      <trkpt lat="42.90383899999996" lon="-1.5387989999999974">
        <ele>505.819</ele>
        <time>2022-08-24T16:04:44Z</time>
      </trkpt>
      <trkpt lat="42.90380899999996" lon="-1.5388599999999975">
        <ele>505.889</ele>
        <time>2022-08-24T16:04:45Z</time>
      </trkpt>
      <trkpt lat="42.90380899999996" lon="-1.5388599999999975">
        <ele>505.885</ele>
        <time>2022-08-24T16:04:46Z</time>
      </trkpt>
      <trkpt lat="42.90378199999996" lon="-1.5389249999999974">
        <ele>505.827</ele>
        <time>2022-08-24T16:04:47Z</time>
      </trkpt>
      <trkpt lat="42.903757999999954" lon="-1.5389879999999974">
        <ele>505.874</ele>
        <time>2022-08-24T16:04:48Z</time>
      </trkpt>
      <trkpt lat="42.90371399999995" lon="-1.5391109999999975">
        <ele>505.877</ele>
        <time>2022-08-24T16:04:49Z</time>
      </trkpt>
      <trkpt lat="42.90371399999995" lon="-1.5391109999999975">
        <ele>505.841</ele>
        <time>2022-08-24T16:04:50Z</time>
      </trkpt>
      <trkpt lat="42.90367199999995" lon="-1.5392339999999975">
        <ele>505.870</ele>
        <time>2022-08-24T16:04:52Z</time>
      </trkpt>
      <trkpt lat="42.903650999999954" lon="-1.5392949999999976">
        <ele>505.846</ele>
        <time>2022-08-24T16:04:53Z</time>
      </trkpt>
      <trkpt lat="42.90361299999995" lon="-1.5394209999999977">
        <ele>505.888</ele>
        <time>2022-08-24T16:04:54Z</time>
      </trkpt>
      <trkpt lat="42.90359799999995" lon="-1.5394819999999978">
        <ele>505.816</ele>
        <time>2022-08-24T16:04:55Z</time>
      </trkpt>
      <trkpt lat="42.90359799999995" lon="-1.5394819999999978">
        <ele>505.809</ele>
        <time>2022-08-24T16:04:56Z</time>
      </trkpt>
      <trkpt lat="42.903571999999954" lon="-1.5396119999999978">
        <ele>506.025</ele>
        <time>2022-08-24T16:04:58Z</time>
      </trkpt>
      <trkpt lat="42.90354699999995" lon="-1.5397409999999978">
        <ele>506.065</ele>
        <time>2022-08-24T16:04:59Z</time>
      </trkpt>
      <trkpt lat="42.90347199999995" lon="-1.5402569999999978">
        <ele>506.245</ele>
        <time>2022-08-24T16:05:08Z</time>
      </trkpt>
      <trkpt lat="42.90345899999995" lon="-1.5403219999999977">
        <ele>506.261</ele>
        <time>2022-08-24T16:05:09Z</time>
      </trkpt>
      <trkpt lat="42.903445999999946" lon="-1.5404449999999978">
        <ele>506.253</ele>
        <time>2022-08-24T16:05:10Z</time>
      </trkpt>
      <trkpt lat="42.90343699999995" lon="-1.540508999999998">
        <ele>506.280</ele>
        <time>2022-08-24T16:05:11Z</time>
      </trkpt>
      <trkpt lat="42.90343699999995" lon="-1.540508999999998">
        <ele>506.413</ele>
        <time>2022-08-24T16:05:12Z</time>
      </trkpt>
      <trkpt lat="42.90340199999995" lon="-1.5407609999999978">
        <ele>506.667</ele>
        <time>2022-08-24T16:05:15Z</time>
      </trkpt>
      <trkpt lat="42.90336099999995" lon="-1.5409529999999978">
        <ele>506.866</ele>
        <time>2022-08-24T16:05:19Z</time>
      </trkpt>
      <trkpt lat="42.903203999999945" lon="-1.5415229999999978">
        <ele>506.824</ele>
        <time>2022-08-24T16:05:28Z</time>
      </trkpt>
      <trkpt lat="42.90318299999995" lon="-1.5415859999999977">
        <ele>506.804</ele>
        <time>2022-08-24T16:05:29Z</time>
      </trkpt>
      <trkpt lat="42.90293199999995" lon="-1.5421389999999977">
        <ele>506.814</ele>
        <time>2022-08-24T16:05:37Z</time>
      </trkpt>
      <trkpt lat="42.90260099999995" lon="-1.5426429999999978">
        <ele>506.609</ele>
        <time>2022-08-24T16:05:47Z</time>
      </trkpt>
      <trkpt lat="42.90256099999995" lon="-1.5426969999999978">
        <ele>506.683</ele>
        <time>2022-08-24T16:05:48Z</time>
      </trkpt>
      <trkpt lat="42.90215099999995" lon="-1.5431729999999977">
        <ele>506.073</ele>
        <time>2022-08-24T16:05:57Z</time>
      </trkpt>
      <trkpt lat="42.90205399999995" lon="-1.5432849999999976">
        <ele>505.813</ele>
        <time>2022-08-24T16:05:58Z</time>
      </trkpt>
      <trkpt lat="42.90205399999995" lon="-1.5432849999999976">
        <ele>505.689</ele>
        <time>2022-08-24T16:05:59Z</time>
      </trkpt>
      <trkpt lat="42.90174999999995" lon="-1.5436289999999975">
        <ele>504.671</ele>
        <time>2022-08-24T16:06:05Z</time>
      </trkpt>
      <trkpt lat="42.90170099999995" lon="-1.5436859999999974">
        <ele>504.698</ele>
        <time>2022-08-24T16:06:06Z</time>
      </trkpt>
      <trkpt lat="42.901651999999956" lon="-1.5437449999999975">
        <ele>504.421</ele>
        <time>2022-08-24T16:06:07Z</time>
      </trkpt>
      <trkpt lat="42.90155299999996" lon="-1.5438569999999974">
        <ele>504.495</ele>
        <time>2022-08-24T16:06:08Z</time>
      </trkpt>
      <trkpt lat="42.90140099999996" lon="-1.5440269999999974">
        <ele>503.694</ele>
        <time>2022-08-24T16:06:12Z</time>
      </trkpt>
      <trkpt lat="42.901255999999954" lon="-1.5442109999999973">
        <ele>503.275</ele>
        <time>2022-08-24T16:06:15Z</time>
      </trkpt>
      <trkpt lat="42.90112199999995" lon="-1.5444079999999973">
        <ele>502.828</ele>
        <time>2022-08-24T16:06:18Z</time>
      </trkpt>
      <trkpt lat="42.90103599999995" lon="-1.5445459999999973">
        <ele>502.620</ele>
        <time>2022-08-24T16:06:19Z</time>
      </trkpt>
      <trkpt lat="42.900918999999945" lon="-1.5447669999999973">
        <ele>502.009</ele>
        <time>2022-08-24T16:06:23Z</time>
      </trkpt>
      <trkpt lat="42.90084799999995" lon="-1.5449189999999973">
        <ele>501.828</ele>
        <time>2022-08-24T16:06:24Z</time>
      </trkpt>
      <trkpt lat="42.90084799999995" lon="-1.5449189999999973">
        <ele>501.638</ele>
        <time>2022-08-24T16:06:25Z</time>
      </trkpt>
      <trkpt lat="42.900814999999945" lon="-1.5449979999999972">
        <ele>501.458</ele>
        <time>2022-08-24T16:06:26Z</time>
      </trkpt>
      <trkpt lat="42.90078499999994" lon="-1.5450799999999971">
        <ele>501.484</ele>
        <time>2022-08-24T16:06:27Z</time>
      </trkpt>
      <trkpt lat="42.90073399999994" lon="-1.5452419999999971">
        <ele>501.286</ele>
        <time>2022-08-24T16:06:28Z</time>
      </trkpt>
      <trkpt lat="42.90071199999994" lon="-1.5453219999999972">
        <ele>501.223</ele>
        <time>2022-08-24T16:06:29Z</time>
      </trkpt>
      <trkpt lat="42.90071199999994" lon="-1.5453219999999972">
        <ele>501.226</ele>
        <time>2022-08-24T16:06:30Z</time>
      </trkpt>
      <trkpt lat="42.90069199999994" lon="-1.5454019999999973">
        <ele>501.050</ele>
        <time>2022-08-24T16:06:31Z</time>
      </trkpt>
      <trkpt lat="42.90067299999994" lon="-1.5454809999999972">
        <ele>501.079</ele>
        <time>2022-08-24T16:06:32Z</time>
      </trkpt>
      <trkpt lat="42.90063699999994" lon="-1.5456379999999972">
        <ele>500.645</ele>
        <time>2022-08-24T16:06:33Z</time>
      </trkpt>
      <trkpt lat="42.90063699999994" lon="-1.5456379999999972">
        <ele>500.647</ele>
        <time>2022-08-24T16:06:34Z</time>
      </trkpt>
      <trkpt lat="42.90062299999994" lon="-1.5457129999999972">
        <ele>500.411</ele>
        <time>2022-08-24T16:06:35Z</time>
      </trkpt>
      <trkpt lat="42.90060899999994" lon="-1.5457869999999971">
        <ele>500.409</ele>
        <time>2022-08-24T16:06:36Z</time>
      </trkpt>
      <trkpt lat="42.90059699999994" lon="-1.545860999999997">
        <ele>500.215</ele>
        <time>2022-08-24T16:06:37Z</time>
      </trkpt>
      <trkpt lat="42.90058599999994" lon="-1.5459329999999971">
        <ele>500.235</ele>
        <time>2022-08-24T16:06:38Z</time>
      </trkpt>
      <trkpt lat="42.90052899999994" lon="-1.5462999999999971">
        <ele>500.065</ele>
        <time>2022-08-24T16:06:43Z</time>
      </trkpt>
      <trkpt lat="42.90049299999994" lon="-1.5465229999999972">
        <ele>500.011</ele>
        <time>2022-08-24T16:06:46Z</time>
      </trkpt>
      <trkpt lat="42.90048199999994" lon="-1.5465959999999972">
        <ele>500.033</ele>
        <time>2022-08-24T16:06:47Z</time>
      </trkpt>
      <trkpt lat="42.90047199999994" lon="-1.5466669999999971">
        <ele>500.060</ele>
        <time>2022-08-24T16:06:48Z</time>
      </trkpt>
      <trkpt lat="42.900452999999935" lon="-1.546805999999997">
        <ele>500.083</ele>
        <time>2022-08-24T16:06:49Z</time>
      </trkpt>
      <trkpt lat="42.90043399999993" lon="-1.546945999999997">
        <ele>499.887</ele>
        <time>2022-08-24T16:06:52Z</time>
      </trkpt>
      <trkpt lat="42.900399999999934" lon="-1.547161999999997">
        <ele>500.276</ele>
        <time>2022-08-24T16:06:54Z</time>
      </trkpt>
      <trkpt lat="42.90037299999993" lon="-1.547302999999997">
        <ele>500.228</ele>
        <time>2022-08-24T16:06:57Z</time>
      </trkpt>
      <trkpt lat="42.90028599999993" lon="-1.547654999999997">
        <ele>500.289</ele>
        <time>2022-08-24T16:07:01Z</time>
      </trkpt>
      <trkpt lat="42.90017499999993" lon="-1.547993999999997">
        <ele>500.017</ele>
        <time>2022-08-24T16:07:06Z</time>
      </trkpt>
      <trkpt lat="42.89997599999993" lon="-1.548449999999997">
        <ele>499.809</ele>
        <time>2022-08-24T16:07:14Z</time>
      </trkpt>
      <trkpt lat="42.89994299999993" lon="-1.548511999999997">
        <ele>499.813</ele>
        <time>2022-08-24T16:07:15Z</time>
      </trkpt>
      <trkpt lat="42.89983899999993" lon="-1.548695999999997">
        <ele>499.833</ele>
        <time>2022-08-24T16:07:17Z</time>
      </trkpt>
      <trkpt lat="42.89983899999993" lon="-1.548695999999997">
        <ele>499.623</ele>
        <time>2022-08-24T16:07:18Z</time>
      </trkpt>
      <trkpt lat="42.89969599999993" lon="-1.548928999999997">
        <ele>499.689</ele>
        <time>2022-08-24T16:07:21Z</time>
      </trkpt>
      <trkpt lat="42.89965899999993" lon="-1.548987999999997">
        <ele>499.431</ele>
        <time>2022-08-24T16:07:23Z</time>
      </trkpt>
      <trkpt lat="42.899507999999926" lon="-1.549222999999997">
        <ele>499.078</ele>
        <time>2022-08-24T16:07:26Z</time>
      </trkpt>
      <trkpt lat="42.89947099999993" lon="-1.549281999999997">
        <ele>498.831</ele>
        <time>2022-08-24T16:07:27Z</time>
      </trkpt>
      <trkpt lat="42.89942599999993" lon="-1.549353999999997">
        <ele>498.845</ele>
        <time>2022-08-24T16:07:28Z</time>
      </trkpt>
      <trkpt lat="42.89939099999993" lon="-1.549413999999997">
        <ele>498.654</ele>
        <time>2022-08-24T16:07:29Z</time>
      </trkpt>
      <trkpt lat="42.89939099999993" lon="-1.549413999999997">
        <ele>498.445</ele>
        <time>2022-08-24T16:07:30Z</time>
      </trkpt>
      <trkpt lat="42.89932699999993" lon="-1.549520999999997">
        <ele>498.247</ele>
        <time>2022-08-24T16:07:31Z</time>
      </trkpt>
      <trkpt lat="42.89921899999993" lon="-1.549691999999997">
        <ele>498.011</ele>
        <time>2022-08-24T16:07:35Z</time>
      </trkpt>
      <trkpt lat="42.89918299999993" lon="-1.549747999999997">
        <ele>498.009</ele>
        <time>2022-08-24T16:07:36Z</time>
      </trkpt>
      <trkpt lat="42.89911499999993" lon="-1.549860999999997">
        <ele>497.865</ele>
        <time>2022-08-24T16:07:37Z</time>
      </trkpt>
      <trkpt lat="42.89900499999993" lon="-1.550038999999997">
        <ele>497.865</ele>
        <time>2022-08-24T16:07:41Z</time>
      </trkpt>
      <trkpt lat="42.89866699999993" lon="-1.550586999999997">
        <ele>497.665</ele>
        <time>2022-08-24T16:07:50Z</time>
      </trkpt>
      <trkpt lat="42.89862799999993" lon="-1.550649999999997">
        <ele>497.631</ele>
        <time>2022-08-24T16:07:51Z</time>
      </trkpt>
      <trkpt lat="42.89859099999993" lon="-1.550711999999997">
        <ele>497.623</ele>
        <time>2022-08-24T16:07:52Z</time>
      </trkpt>
      <trkpt lat="42.89855499999993" lon="-1.550771999999997">
        <ele>497.480</ele>
        <time>2022-08-24T16:07:53Z</time>
      </trkpt>
      <trkpt lat="42.89851799999993" lon="-1.550830999999997">
        <ele>497.473</ele>
        <time>2022-08-24T16:07:54Z</time>
      </trkpt>
      <trkpt lat="42.89836899999993" lon="-1.551077999999997">
        <ele>497.277</ele>
        <time>2022-08-24T16:07:58Z</time>
      </trkpt>
      <trkpt lat="42.89829299999993" lon="-1.551196999999997">
        <ele>497.236</ele>
        <time>2022-08-24T16:07:59Z</time>
      </trkpt>
      <trkpt lat="42.89829299999993" lon="-1.551196999999997">
        <ele>497.478</ele>
        <time>2022-08-24T16:08:00Z</time>
      </trkpt>
      <trkpt lat="42.89825499999993" lon="-1.551256999999997">
        <ele>497.433</ele>
        <time>2022-08-24T16:08:01Z</time>
      </trkpt>
      <trkpt lat="42.89821799999993" lon="-1.551314999999997">
        <ele>497.226</ele>
        <time>2022-08-24T16:08:02Z</time>
      </trkpt>
      <trkpt lat="42.898142999999926" lon="-1.551437999999997">
        <ele>496.809</ele>
        <time>2022-08-24T16:08:03Z</time>
      </trkpt>
      <trkpt lat="42.897827999999926" lon="-1.5519439999999969">
        <ele>496.068</ele>
        <time>2022-08-24T16:08:12Z</time>
      </trkpt>
      <trkpt lat="42.89770899999993" lon="-1.5521359999999969">
        <ele>496.058</ele>
        <time>2022-08-24T16:08:14Z</time>
      </trkpt>
      <trkpt lat="42.89746599999993" lon="-1.552523999999997">
        <ele>495.468</ele>
        <time>2022-08-24T16:08:21Z</time>
      </trkpt>
      <trkpt lat="42.89731199999993" lon="-1.5527789999999968">
        <ele>495.234</ele>
        <time>2022-08-24T16:08:24Z</time>
      </trkpt>
      <trkpt lat="42.89723099999993" lon="-1.5529039999999967">
        <ele>495.056</ele>
        <time>2022-08-24T16:08:26Z</time>
      </trkpt>
      <trkpt lat="42.897188999999926" lon="-1.5529629999999968">
        <ele>495.093</ele>
        <time>2022-08-24T16:08:27Z</time>
      </trkpt>
      <trkpt lat="42.89710399999993" lon="-1.5530789999999968">
        <ele>495.046</ele>
        <time>2022-08-24T16:08:29Z</time>
      </trkpt>
      <trkpt lat="42.89701599999993" lon="-1.5531899999999967">
        <ele>495.060</ele>
        <time>2022-08-24T16:08:32Z</time>
      </trkpt>
      <trkpt lat="42.89661599999993" lon="-1.5535679999999967">
        <ele>495.089</ele>
        <time>2022-08-24T16:08:39Z</time>
      </trkpt>
      <trkpt lat="42.89650099999993" lon="-1.5536529999999966">
        <ele>494.877</ele>
        <time>2022-08-24T16:08:42Z</time>
      </trkpt>
      <trkpt lat="42.89638899999993" lon="-1.5537349999999965">
        <ele>494.861</ele>
        <time>2022-08-24T16:08:43Z</time>
      </trkpt>
      <trkpt lat="42.89628099999993" lon="-1.5538239999999965">
        <ele>494.627</ele>
        <time>2022-08-24T16:08:45Z</time>
      </trkpt>
      <trkpt lat="42.89622599999993" lon="-1.5538639999999966">
        <ele>494.609</ele>
        <time>2022-08-24T16:08:46Z</time>
      </trkpt>
      <trkpt lat="42.896105999999925" lon="-1.5539529999999966">
        <ele>494.498</ele>
        <time>2022-08-24T16:08:48Z</time>
      </trkpt>
      <trkpt lat="42.89606199999992" lon="-1.5539879999999966">
        <ele>494.238</ele>
        <time>2022-08-24T16:08:49Z</time>
      </trkpt>
      <trkpt lat="42.89555899999992" lon="-1.5543589999999965">
        <ele>494.068</ele>
        <time>2022-08-24T16:08:58Z</time>
      </trkpt>
      <trkpt lat="42.89550599999992" lon="-1.5544039999999966">
        <ele>494.034</ele>
        <time>2022-08-24T16:08:59Z</time>
      </trkpt>
      <trkpt lat="42.89545199999992" lon="-1.5544469999999966">
        <ele>494.026</ele>
        <time>2022-08-24T16:09:00Z</time>
      </trkpt>
      <trkpt lat="42.89539799999992" lon="-1.5544879999999965">
        <ele>494.023</ele>
        <time>2022-08-24T16:09:01Z</time>
      </trkpt>
      <trkpt lat="42.89534399999992" lon="-1.5545269999999964">
        <ele>494.056</ele>
        <time>2022-08-24T16:09:02Z</time>
      </trkpt>
      <trkpt lat="42.895278999999924" lon="-1.5545739999999963">
        <ele>494.020</ele>
        <time>2022-08-24T16:09:03Z</time>
      </trkpt>
      <trkpt lat="42.895278999999924" lon="-1.5545739999999963">
        <ele>494.049</ele>
        <time>2022-08-24T16:09:04Z</time>
      </trkpt>
      <trkpt lat="42.89523499999992" lon="-1.5546019999999963">
        <ele>494.054</ele>
        <time>2022-08-24T16:09:05Z</time>
      </trkpt>
      <trkpt lat="42.895126999999924" lon="-1.5546739999999963">
        <ele>494.056</ele>
        <time>2022-08-24T16:09:06Z</time>
      </trkpt>
      <trkpt lat="42.89506299999992" lon="-1.5547169999999964">
        <ele>494.011</ele>
        <time>2022-08-24T16:09:07Z</time>
      </trkpt>
      <trkpt lat="42.89502099999992" lon="-1.5547439999999964">
        <ele>494.009</ele>
        <time>2022-08-24T16:09:08Z</time>
      </trkpt>
      <trkpt lat="42.89491199999992" lon="-1.5548089999999963">
        <ele>493.856</ele>
        <time>2022-08-24T16:09:10Z</time>
      </trkpt>
      <trkpt lat="42.89462699999992" lon="-1.5549759999999964">
        <ele>493.476</ele>
        <time>2022-08-24T16:09:15Z</time>
      </trkpt>
      <trkpt lat="42.89458599999992" lon="-1.5550029999999964">
        <ele>493.246</ele>
        <time>2022-08-24T16:09:16Z</time>
      </trkpt>
      <trkpt lat="42.89453399999992" lon="-1.5550329999999963">
        <ele>493.272</ele>
        <time>2022-08-24T16:09:17Z</time>
      </trkpt>
      <trkpt lat="42.89447299999992" lon="-1.5550699999999964">
        <ele>493.264</ele>
        <time>2022-08-24T16:09:18Z</time>
      </trkpt>
      <trkpt lat="42.89447299999992" lon="-1.5550699999999964">
        <ele>493.251</ele>
        <time>2022-08-24T16:09:19Z</time>
      </trkpt>
      <trkpt lat="42.89438299999992" lon="-1.5551259999999965">
        <ele>493.224</ele>
        <time>2022-08-24T16:09:20Z</time>
      </trkpt>
      <trkpt lat="42.89417999999992" lon="-1.5552549999999965">
        <ele>493.028</ele>
        <time>2022-08-24T16:09:24Z</time>
      </trkpt>
      <trkpt lat="42.89414099999992" lon="-1.5552829999999964">
        <ele>493.057</ele>
        <time>2022-08-24T16:09:25Z</time>
      </trkpt>
      <trkpt lat="42.89398399999992" lon="-1.5553899999999965">
        <ele>493.289</ele>
        <time>2022-08-24T16:09:28Z</time>
      </trkpt>
      <trkpt lat="42.89394499999992" lon="-1.5554149999999964">
        <ele>493.206</ele>
        <time>2022-08-24T16:09:29Z</time>
      </trkpt>
      <trkpt lat="42.893888999999916" lon="-1.5554529999999964">
        <ele>493.226</ele>
        <time>2022-08-24T16:09:30Z</time>
      </trkpt>
      <trkpt lat="42.89385399999992" lon="-1.5554769999999964">
        <ele>493.409</ele>
        <time>2022-08-24T16:09:31Z</time>
      </trkpt>
      <trkpt lat="42.89380699999992" lon="-1.5555089999999965">
        <ele>493.429</ele>
        <time>2022-08-24T16:09:32Z</time>
      </trkpt>
      <trkpt lat="42.893751999999914" lon="-1.5555479999999964">
        <ele>493.449</ele>
        <time>2022-08-24T16:09:33Z</time>
      </trkpt>
      <trkpt lat="42.89353099999991" lon="-1.5557159999999963">
        <ele>494.259</ele>
        <time>2022-08-24T16:09:38Z</time>
      </trkpt>
      <trkpt lat="42.89334499999991" lon="-1.5558459999999963">
        <ele>494.475</ele>
        <time>2022-08-24T16:09:42Z</time>
      </trkpt>
      <trkpt lat="42.893008999999914" lon="-1.5561049999999963">
        <ele>494.647</ele>
        <time>2022-08-24T16:09:49Z</time>
      </trkpt>
      <trkpt lat="42.89296199999991" lon="-1.5561439999999962">
        <ele>494.624</ele>
        <time>2022-08-24T16:09:50Z</time>
      </trkpt>
      <trkpt lat="42.892915999999914" lon="-1.5561849999999962">
        <ele>494.687</ele>
        <time>2022-08-24T16:09:51Z</time>
      </trkpt>
      <trkpt lat="42.892872999999916" lon="-1.5562249999999962">
        <ele>494.661</ele>
        <time>2022-08-24T16:09:52Z</time>
      </trkpt>
      <trkpt lat="42.892828999999914" lon="-1.5562649999999962">
        <ele>494.490</ele>
        <time>2022-08-24T16:09:53Z</time>
      </trkpt>
      <trkpt lat="42.89278699999991" lon="-1.5563029999999962">
        <ele>494.415</ele>
        <time>2022-08-24T16:09:54Z</time>
      </trkpt>
      <trkpt lat="42.892743999999915" lon="-1.5563429999999963">
        <ele>494.465</ele>
        <time>2022-08-24T16:09:55Z</time>
      </trkpt>
      <trkpt lat="42.89271099999991" lon="-1.5563769999999963">
        <ele>494.411</ele>
        <time>2022-08-24T16:09:56Z</time>
      </trkpt>
      <trkpt lat="42.89271099999991" lon="-1.5563769999999963">
        <ele>494.409</ele>
        <time>2022-08-24T16:09:57Z</time>
      </trkpt>
      <trkpt lat="42.892630999999916" lon="-1.5564569999999964">
        <ele>494.422</ele>
        <time>2022-08-24T16:09:58Z</time>
      </trkpt>
      <trkpt lat="42.89259399999992" lon="-1.5564949999999964">
        <ele>494.452</ele>
        <time>2022-08-24T16:09:59Z</time>
      </trkpt>
      <trkpt lat="42.89236599999992" lon="-1.5567579999999963">
        <ele>494.272</ele>
        <time>2022-08-24T16:10:06Z</time>
      </trkpt>
      <trkpt lat="42.892045999999915" lon="-1.5571509999999964">
        <ele>494.258</ele>
        <time>2022-08-24T16:10:13Z</time>
      </trkpt>
      <trkpt lat="42.892006999999914" lon="-1.5571959999999965">
        <ele>494.240</ele>
        <time>2022-08-24T16:10:14Z</time>
      </trkpt>
      <trkpt lat="42.89196899999991" lon="-1.5572409999999965">
        <ele>494.297</ele>
        <time>2022-08-24T16:10:15Z</time>
      </trkpt>
      <trkpt lat="42.89189399999991" lon="-1.5573339999999964">
        <ele>494.010</ele>
        <time>2022-08-24T16:10:17Z</time>
      </trkpt>
      <trkpt lat="42.89185499999991" lon="-1.5573799999999964">
        <ele>494.064</ele>
        <time>2022-08-24T16:10:18Z</time>
      </trkpt>
      <trkpt lat="42.89170299999991" lon="-1.5575639999999964">
        <ele>494.013</ele>
        <time>2022-08-24T16:10:22Z</time>
      </trkpt>
      <trkpt lat="42.891663999999906" lon="-1.5576089999999965">
        <ele>494.047</ele>
        <time>2022-08-24T16:10:23Z</time>
      </trkpt>
      <trkpt lat="42.89162699999991" lon="-1.5576519999999965">
        <ele>493.829</ele>
        <time>2022-08-24T16:10:24Z</time>
      </trkpt>
      <trkpt lat="42.89158999999991" lon="-1.5576959999999964">
        <ele>493.821</ele>
        <time>2022-08-24T16:10:25Z</time>
      </trkpt>
      <trkpt lat="42.89155299999991" lon="-1.5577419999999964">
        <ele>493.809</ele>
        <time>2022-08-24T16:10:26Z</time>
      </trkpt>
      <trkpt lat="42.89151599999991" lon="-1.5577859999999963">
        <ele>493.825</ele>
        <time>2022-08-24T16:10:27Z</time>
      </trkpt>
      <trkpt lat="42.89112999999991" lon="-1.5582389999999964">
        <ele>493.655</ele>
        <time>2022-08-24T16:10:37Z</time>
      </trkpt>
      <trkpt lat="42.89092699999991" lon="-1.5584779999999965">
        <ele>493.655</ele>
        <time>2022-08-24T16:10:42Z</time>
      </trkpt>
      <trkpt lat="42.89088599999991" lon="-1.5585249999999964">
        <ele>493.631</ele>
        <time>2022-08-24T16:10:43Z</time>
      </trkpt>
      <trkpt lat="42.890847999999906" lon="-1.5585709999999964">
        <ele>493.653</ele>
        <time>2022-08-24T16:10:44Z</time>
      </trkpt>
      <trkpt lat="42.8908099999999" lon="-1.5586179999999963">
        <ele>493.650</ele>
        <time>2022-08-24T16:10:45Z</time>
      </trkpt>
      <trkpt lat="42.8907709999999" lon="-1.5586639999999963">
        <ele>493.653</ele>
        <time>2022-08-24T16:10:46Z</time>
      </trkpt>
      <trkpt lat="42.8907319999999" lon="-1.5587099999999963">
        <ele>493.697</ele>
        <time>2022-08-24T16:10:47Z</time>
      </trkpt>
      <trkpt lat="42.8906939999999" lon="-1.5587549999999963">
        <ele>493.486</ele>
        <time>2022-08-24T16:10:48Z</time>
      </trkpt>
      <trkpt lat="42.89065599999989" lon="-1.5587989999999963">
        <ele>493.456</ele>
        <time>2022-08-24T16:10:49Z</time>
      </trkpt>
      <trkpt lat="42.890618999999894" lon="-1.5588449999999963">
        <ele>493.459</ele>
        <time>2022-08-24T16:10:50Z</time>
      </trkpt>
      <trkpt lat="42.89034999999989" lon="-1.5591649999999964">
        <ele>493.214</ele>
        <time>2022-08-24T16:10:57Z</time>
      </trkpt>
      <trkpt lat="42.89031299999989" lon="-1.5592089999999963">
        <ele>493.209</ele>
        <time>2022-08-24T16:10:58Z</time>
      </trkpt>
      <trkpt lat="42.89027499999989" lon="-1.5592539999999964">
        <ele>493.276</ele>
        <time>2022-08-24T16:10:59Z</time>
      </trkpt>
      <trkpt lat="42.89008299999989" lon="-1.5594809999999963">
        <ele>493.056</ele>
        <time>2022-08-24T16:11:04Z</time>
      </trkpt>
      <trkpt lat="42.89004699999989" lon="-1.5595239999999964">
        <ele>493.026</ele>
        <time>2022-08-24T16:11:05Z</time>
      </trkpt>
      <trkpt lat="42.88985199999989" lon="-1.5597479999999964">
        <ele>492.882</ele>
        <time>2022-08-24T16:11:10Z</time>
      </trkpt>
      <trkpt lat="42.88964899999989" lon="-1.5599859999999963">
        <ele>493.024</ele>
        <time>2022-08-24T16:11:15Z</time>
      </trkpt>
      <trkpt lat="42.88948799999989" lon="-1.5601709999999964">
        <ele>493.051</ele>
        <time>2022-08-24T16:11:19Z</time>
      </trkpt>
      <trkpt lat="42.88932199999989" lon="-1.5603639999999965">
        <ele>492.824</ele>
        <time>2022-08-24T16:11:23Z</time>
      </trkpt>
      <trkpt lat="42.88928099999989" lon="-1.5604139999999966">
        <ele>492.648</ele>
        <time>2022-08-24T16:11:24Z</time>
      </trkpt>
      <trkpt lat="42.88911799999989" lon="-1.5606119999999966">
        <ele>492.677</ele>
        <time>2022-08-24T16:11:28Z</time>
      </trkpt>
      <trkpt lat="42.88869099999989" lon="-1.5611199999999965">
        <ele>491.847</ele>
        <time>2022-08-24T16:11:38Z</time>
      </trkpt>
      <trkpt lat="42.88864799999989" lon="-1.5611709999999965">
        <ele>491.829</ele>
        <time>2022-08-24T16:11:39Z</time>
      </trkpt>
      <trkpt lat="42.88860199999989" lon="-1.5612219999999966">
        <ele>491.621</ele>
        <time>2022-08-24T16:11:40Z</time>
      </trkpt>
      <trkpt lat="42.88856799999989" lon="-1.5612619999999966">
        <ele>491.609</ele>
        <time>2022-08-24T16:11:41Z</time>
      </trkpt>
      <trkpt lat="42.88852599999989" lon="-1.5613129999999966">
        <ele>491.465</ele>
        <time>2022-08-24T16:11:42Z</time>
      </trkpt>
      <trkpt lat="42.88852599999989" lon="-1.5613129999999966">
        <ele>491.475</ele>
        <time>2022-08-24T16:11:43Z</time>
      </trkpt>
      <trkpt lat="42.88848499999989" lon="-1.5613619999999966">
        <ele>491.435</ele>
        <time>2022-08-24T16:11:44Z</time>
      </trkpt>
      <trkpt lat="42.88814499999989" lon="-1.5617619999999965">
        <ele>490.841</ele>
        <time>2022-08-24T16:11:51Z</time>
      </trkpt>
      <trkpt lat="42.88798199999989" lon="-1.5619509999999965">
        <ele>490.673</ele>
        <time>2022-08-24T16:11:55Z</time>
      </trkpt>
      <trkpt lat="42.887886999999886" lon="-1.5620569999999965">
        <ele>490.460</ele>
        <time>2022-08-24T16:11:57Z</time>
      </trkpt>
      <trkpt lat="42.887847999999885" lon="-1.5621079999999965">
        <ele>490.453</ele>
        <time>2022-08-24T16:11:58Z</time>
      </trkpt>
      <trkpt lat="42.88780899999988" lon="-1.5621579999999966">
        <ele>490.457</ele>
        <time>2022-08-24T16:11:59Z</time>
      </trkpt>
      <trkpt lat="42.88776999999988" lon="-1.5622069999999966">
        <ele>490.676</ele>
        <time>2022-08-24T16:12:00Z</time>
      </trkpt>
      <trkpt lat="42.88733499999988" lon="-1.5627209999999965">
        <ele>490.087</ele>
        <time>2022-08-24T16:12:10Z</time>
      </trkpt>
      <trkpt lat="42.88725399999988" lon="-1.5628179999999965">
        <ele>489.842</ele>
        <time>2022-08-24T16:12:12Z</time>
      </trkpt>
      <trkpt lat="42.886950999999875" lon="-1.5631809999999964">
        <ele>489.026</ele>
        <time>2022-08-24T16:12:18Z</time>
      </trkpt>
      <trkpt lat="42.88689599999987" lon="-1.5632389999999963">
        <ele>488.809</ele>
        <time>2022-08-24T16:12:19Z</time>
      </trkpt>
      <trkpt lat="42.886677999999876" lon="-1.5634479999999962">
        <ele>487.689</ele>
        <time>2022-08-24T16:12:24Z</time>
      </trkpt>
      <trkpt lat="42.88655899999988" lon="-1.563540999999996">
        <ele>487.029</ele>
        <time>2022-08-24T16:12:26Z</time>
      </trkpt>
      <trkpt lat="42.886373999999876" lon="-1.563660999999996">
        <ele>486.869</ele>
        <time>2022-08-24T16:12:28Z</time>
      </trkpt>
      <trkpt lat="42.886311999999876" lon="-1.563696999999996">
        <ele>486.635</ele>
        <time>2022-08-24T16:12:29Z</time>
      </trkpt>
      <trkpt lat="42.886311999999876" lon="-1.563696999999996">
        <ele>486.467</ele>
        <time>2022-08-24T16:12:30Z</time>
      </trkpt>
      <trkpt lat="42.886249999999876" lon="-1.5637279999999958">
        <ele>486.424</ele>
        <time>2022-08-24T16:12:31Z</time>
      </trkpt>
      <trkpt lat="42.886173999999876" lon="-1.5637559999999957">
        <ele>486.067</ele>
        <time>2022-08-24T16:12:32Z</time>
      </trkpt>
      <trkpt lat="42.88604699999988" lon="-1.5637929999999958">
        <ele>485.851</ele>
        <time>2022-08-24T16:12:33Z</time>
      </trkpt>
      <trkpt lat="42.88599599999988" lon="-1.5638059999999958">
        <ele>485.640</ele>
        <time>2022-08-24T16:12:34Z</time>
      </trkpt>
      <trkpt lat="42.885920999999875" lon="-1.563831999999996">
        <ele>485.634</ele>
        <time>2022-08-24T16:12:35Z</time>
      </trkpt>
      <trkpt lat="42.88586099999988" lon="-1.5638489999999958">
        <ele>485.455</ele>
        <time>2022-08-24T16:12:36Z</time>
      </trkpt>
      <trkpt lat="42.885802999999875" lon="-1.5638619999999959">
        <ele>485.410</ele>
        <time>2022-08-24T16:12:37Z</time>
      </trkpt>
      <trkpt lat="42.88574299999988" lon="-1.563871999999996">
        <ele>485.209</ele>
        <time>2022-08-24T16:12:38Z</time>
      </trkpt>
      <trkpt lat="42.885442999999874" lon="-1.563900999999996">
        <ele>485.254</ele>
        <time>2022-08-24T16:12:43Z</time>
      </trkpt>
      <trkpt lat="42.885259999999874" lon="-1.563897999999996">
        <ele>485.254</ele>
        <time>2022-08-24T16:12:46Z</time>
      </trkpt>
      <trkpt lat="42.88519699999988" lon="-1.563896999999996">
        <ele>485.274</ele>
        <time>2022-08-24T16:12:47Z</time>
      </trkpt>
      <trkpt lat="42.88513799999988" lon="-1.5638929999999962">
        <ele>485.280</ele>
        <time>2022-08-24T16:12:48Z</time>
      </trkpt>
      <trkpt lat="42.885079999999874" lon="-1.5638889999999963">
        <ele>485.472</ele>
        <time>2022-08-24T16:12:49Z</time>
      </trkpt>
      <trkpt lat="42.88502399999987" lon="-1.5638839999999963">
        <ele>485.479</ele>
        <time>2022-08-24T16:12:50Z</time>
      </trkpt>
      <trkpt lat="42.884966999999875" lon="-1.5638799999999964">
        <ele>485.472</ele>
        <time>2022-08-24T16:12:51Z</time>
      </trkpt>
      <trkpt lat="42.884910999999875" lon="-1.5638769999999964">
        <ele>485.466</ele>
        <time>2022-08-24T16:12:52Z</time>
      </trkpt>
      <trkpt lat="42.884856999999876" lon="-1.5638739999999964">
        <ele>485.685</ele>
        <time>2022-08-24T16:12:53Z</time>
      </trkpt>
      <trkpt lat="42.88480499999988" lon="-1.5638679999999965">
        <ele>485.693</ele>
        <time>2022-08-24T16:12:54Z</time>
      </trkpt>
      <trkpt lat="42.88476299999988" lon="-1.5638659999999964">
        <ele>485.865</ele>
        <time>2022-08-24T16:12:55Z</time>
      </trkpt>
      <trkpt lat="42.884642999999876" lon="-1.5638659999999964">
        <ele>486.021</ele>
        <time>2022-08-24T16:12:57Z</time>
      </trkpt>
      <trkpt lat="42.88458899999988" lon="-1.5638639999999964">
        <ele>486.209</ele>
        <time>2022-08-24T16:12:58Z</time>
      </trkpt>
      <trkpt lat="42.88453799999988" lon="-1.5638599999999965">
        <ele>486.430</ele>
        <time>2022-08-24T16:12:59Z</time>
      </trkpt>
      <trkpt lat="42.88448699999988" lon="-1.5638579999999964">
        <ele>486.670</ele>
        <time>2022-08-24T16:13:00Z</time>
      </trkpt>
      <trkpt lat="42.88424599999988" lon="-1.5638609999999964">
        <ele>487.490</ele>
        <time>2022-08-24T16:13:05Z</time>
      </trkpt>
      <trkpt lat="42.88419499999988" lon="-1.5638619999999963">
        <ele>487.486</ele>
        <time>2022-08-24T16:13:06Z</time>
      </trkpt>
      <trkpt lat="42.88399399999988" lon="-1.5638709999999962">
        <ele>488.028</ele>
        <time>2022-08-24T16:13:10Z</time>
      </trkpt>
      <trkpt lat="42.88373299999988" lon="-1.5638929999999962">
        <ele>488.645</ele>
        <time>2022-08-24T16:13:15Z</time>
      </trkpt>
      <trkpt lat="42.88363999999988" lon="-1.5639069999999962">
        <ele>488.858</ele>
        <time>2022-08-24T16:13:17Z</time>
      </trkpt>
      <trkpt lat="42.88357799999988" lon="-1.5639139999999963">
        <ele>488.872</ele>
        <time>2022-08-24T16:13:18Z</time>
      </trkpt>
      <trkpt lat="42.88352399999988" lon="-1.5639199999999962">
        <ele>488.841</ele>
        <time>2022-08-24T16:13:19Z</time>
      </trkpt>
      <trkpt lat="42.88346799999988" lon="-1.5639279999999962">
        <ele>488.879</ele>
        <time>2022-08-24T16:13:20Z</time>
      </trkpt>
      <trkpt lat="42.88342199999988" lon="-1.5639339999999962">
        <ele>488.805</ele>
        <time>2022-08-24T16:13:21Z</time>
      </trkpt>
      <trkpt lat="42.88335399999988" lon="-1.563942999999996">
        <ele>488.825</ele>
        <time>2022-08-24T16:13:22Z</time>
      </trkpt>
      <trkpt lat="42.88330899999988" lon="-1.563950999999996">
        <ele>488.809</ele>
        <time>2022-08-24T16:13:23Z</time>
      </trkpt>
      <trkpt lat="42.883240999999884" lon="-1.563961999999996">
        <ele>488.898</ele>
        <time>2022-08-24T16:13:24Z</time>
      </trkpt>
      <trkpt lat="42.883184999999884" lon="-1.563972999999996">
        <ele>488.868</ele>
        <time>2022-08-24T16:13:25Z</time>
      </trkpt>
      <trkpt lat="42.88283199999989" lon="-1.564032999999996">
        <ele>488.898</ele>
        <time>2022-08-24T16:13:31Z</time>
      </trkpt>
      <trkpt lat="42.882258999999884" lon="-1.564131999999996">
        <ele>487.634</ele>
        <time>2022-08-24T16:13:40Z</time>
      </trkpt>
      <trkpt lat="42.88219199999988" lon="-1.564148999999996">
        <ele>487.436</ele>
        <time>2022-08-24T16:13:41Z</time>
      </trkpt>
      <trkpt lat="42.88199499999988" lon="-1.564209999999996">
        <ele>487.023</ele>
        <time>2022-08-24T16:13:44Z</time>
      </trkpt>
      <trkpt lat="42.88191399999988" lon="-1.564240999999996">
        <ele>487.056</ele>
        <time>2022-08-24T16:13:45Z</time>
      </trkpt>
      <trkpt lat="42.88184599999988" lon="-1.564267999999996">
        <ele>487.080</ele>
        <time>2022-08-24T16:13:46Z</time>
      </trkpt>
      <trkpt lat="42.88179299999988" lon="-1.564292999999996">
        <ele>486.679</ele>
        <time>2022-08-24T16:13:47Z</time>
      </trkpt>
      <trkpt lat="42.88171399999988" lon="-1.5643319999999958">
        <ele>486.471</ele>
        <time>2022-08-24T16:13:48Z</time>
      </trkpt>
      <trkpt lat="42.88166099999988" lon="-1.5643589999999958">
        <ele>486.441</ele>
        <time>2022-08-24T16:13:49Z</time>
      </trkpt>
      <trkpt lat="42.88166099999988" lon="-1.5643589999999958">
        <ele>486.215</ele>
        <time>2022-08-24T16:13:50Z</time>
      </trkpt>
      <trkpt lat="42.88153699999988" lon="-1.564427999999996">
        <ele>486.209</ele>
        <time>2022-08-24T16:13:51Z</time>
      </trkpt>
      <trkpt lat="42.88147599999988" lon="-1.564462999999996">
        <ele>486.048</ele>
        <time>2022-08-24T16:13:52Z</time>
      </trkpt>
      <trkpt lat="42.88123299999988" lon="-1.564608999999996">
        <ele>485.668</ele>
        <time>2022-08-24T16:13:56Z</time>
      </trkpt>
      <trkpt lat="42.88098199999988" lon="-1.564753999999996">
        <ele>485.428</ele>
        <time>2022-08-24T16:14:00Z</time>
      </trkpt>
      <trkpt lat="42.88091699999988" lon="-1.5647849999999959">
        <ele>485.464</ele>
        <time>2022-08-24T16:14:01Z</time>
      </trkpt>
      <trkpt lat="42.88085299999988" lon="-1.564818999999996">
        <ele>485.456</ele>
        <time>2022-08-24T16:14:02Z</time>
      </trkpt>
      <trkpt lat="42.88072999999988" lon="-1.564890999999996">
        <ele>485.443</ele>
        <time>2022-08-24T16:14:04Z</time>
      </trkpt>
      <trkpt lat="42.88072999999988" lon="-1.564890999999996">
        <ele>485.486</ele>
        <time>2022-08-24T16:14:05Z</time>
      </trkpt>
      <trkpt lat="42.88025099999988" lon="-1.565193999999996">
        <ele>485.250</ele>
        <time>2022-08-24T16:14:12Z</time>
      </trkpt>
      <trkpt lat="42.88025099999988" lon="-1.565193999999996">
        <ele>485.269</ele>
        <time>2022-08-24T16:14:13Z</time>
      </trkpt>
      <trkpt lat="42.87994399999988" lon="-1.565382999999996">
        <ele>485.049</ele>
        <time>2022-08-24T16:14:17Z</time>
      </trkpt>
      <trkpt lat="42.87984199999988" lon="-1.5654489999999959">
        <ele>485.002</ele>
        <time>2022-08-24T16:14:19Z</time>
      </trkpt>
      <trkpt lat="42.87984199999988" lon="-1.5654489999999959">
        <ele>485.022</ele>
        <time>2022-08-24T16:14:20Z</time>
      </trkpt>
      <trkpt lat="42.87978599999988" lon="-1.5654879999999958">
        <ele>485.009</ele>
        <time>2022-08-24T16:14:21Z</time>
      </trkpt>
      <trkpt lat="42.879728999999884" lon="-1.5655229999999958">
        <ele>484.845</ele>
        <time>2022-08-24T16:14:22Z</time>
      </trkpt>
      <trkpt lat="42.879618999999884" lon="-1.5655939999999957">
        <ele>484.855</ele>
        <time>2022-08-24T16:14:23Z</time>
      </trkpt>
      <trkpt lat="42.879218999999885" lon="-1.5658349999999956">
        <ele>484.625</ele>
        <time>2022-08-24T16:14:31Z</time>
      </trkpt>
      <trkpt lat="42.87904399999989" lon="-1.5659379999999956">
        <ele>484.441</ele>
        <time>2022-08-24T16:14:33Z</time>
      </trkpt>
      <trkpt lat="42.87898999999989" lon="-1.5659789999999956">
        <ele>484.493</ele>
        <time>2022-08-24T16:14:34Z</time>
      </trkpt>
      <trkpt lat="42.87893599999989" lon="-1.5660139999999956">
        <ele>484.420</ele>
        <time>2022-08-24T16:14:35Z</time>
      </trkpt>
      <trkpt lat="42.87888199999989" lon="-1.5660479999999957">
        <ele>484.453</ele>
        <time>2022-08-24T16:14:36Z</time>
      </trkpt>
      <trkpt lat="42.87882899999989" lon="-1.5660799999999957">
        <ele>484.247</ele>
        <time>2022-08-24T16:14:37Z</time>
      </trkpt>
      <trkpt lat="42.87876299999989" lon="-1.5661169999999958">
        <ele>484.256</ele>
        <time>2022-08-24T16:14:38Z</time>
      </trkpt>
      <trkpt lat="42.878665999999896" lon="-1.5661729999999958">
        <ele>484.234</ele>
        <time>2022-08-24T16:14:40Z</time>
      </trkpt>
      <trkpt lat="42.878601999999894" lon="-1.5662099999999959">
        <ele>484.255</ele>
        <time>2022-08-24T16:14:41Z</time>
      </trkpt>
      <trkpt lat="42.878561999999896" lon="-1.566235999999996">
        <ele>484.210</ele>
        <time>2022-08-24T16:14:42Z</time>
      </trkpt>
      <trkpt lat="42.878511999999894" lon="-1.566270999999996">
        <ele>484.209</ele>
        <time>2022-08-24T16:14:43Z</time>
      </trkpt>
      <trkpt lat="42.87839799999989" lon="-1.566343999999996">
        <ele>484.284</ele>
        <time>2022-08-24T16:14:45Z</time>
      </trkpt>
      <trkpt lat="42.87814799999989" lon="-1.566504999999996">
        <ele>484.064</ele>
        <time>2022-08-24T16:14:50Z</time>
      </trkpt>
      <trkpt lat="42.87787599999989" lon="-1.566682999999996">
        <ele>483.884</ele>
        <time>2022-08-24T16:14:55Z</time>
      </trkpt>
      <trkpt lat="42.877833999999886" lon="-1.5667089999999961">
        <ele>483.840</ele>
        <time>2022-08-24T16:14:56Z</time>
      </trkpt>
      <trkpt lat="42.87778199999989" lon="-1.5667409999999962">
        <ele>483.822</ele>
        <time>2022-08-24T16:14:57Z</time>
      </trkpt>
      <trkpt lat="42.87778199999989" lon="-1.5667409999999962">
        <ele>483.889</ele>
        <time>2022-08-24T16:14:58Z</time>
      </trkpt>
      <trkpt lat="42.87767999999989" lon="-1.566803999999996">
        <ele>483.872</ele>
        <time>2022-08-24T16:14:59Z</time>
      </trkpt>
      <trkpt lat="42.87762899999989" lon="-1.5668329999999961">
        <ele>483.816</ele>
        <time>2022-08-24T16:15:00Z</time>
      </trkpt>
      <trkpt lat="42.87753299999989" lon="-1.5668949999999962">
        <ele>483.885</ele>
        <time>2022-08-24T16:15:02Z</time>
      </trkpt>
      <trkpt lat="42.877269999999896" lon="-1.5670639999999962">
        <ele>483.435</ele>
        <time>2022-08-24T16:15:07Z</time>
      </trkpt>
      <trkpt lat="42.87716699999989" lon="-1.5671289999999962">
        <ele>483.486</ele>
        <time>2022-08-24T16:15:09Z</time>
      </trkpt>
      <trkpt lat="42.87695899999989" lon="-1.5672579999999963">
        <ele>483.214</ele>
        <time>2022-08-24T16:15:13Z</time>
      </trkpt>
      <trkpt lat="42.87690899999989" lon="-1.5672899999999963">
        <ele>483.209</ele>
        <time>2022-08-24T16:15:14Z</time>
      </trkpt>
      <trkpt lat="42.87685899999989" lon="-1.5673219999999963">
        <ele>483.254</ele>
        <time>2022-08-24T16:15:15Z</time>
      </trkpt>
      <trkpt lat="42.87680799999989" lon="-1.5673529999999962">
        <ele>483.264</ele>
        <time>2022-08-24T16:15:16Z</time>
      </trkpt>
      <trkpt lat="42.87669799999989" lon="-1.5674209999999962">
        <ele>483.244</ele>
        <time>2022-08-24T16:15:18Z</time>
      </trkpt>
      <trkpt lat="42.87618099999989" lon="-1.5677639999999962">
        <ele>482.880</ele>
        <time>2022-08-24T16:15:28Z</time>
      </trkpt>
      <trkpt lat="42.87607199999989" lon="-1.5678339999999962">
        <ele>482.632</ele>
        <time>2022-08-24T16:15:30Z</time>
      </trkpt>
      <trkpt lat="42.87596199999989" lon="-1.567904999999996">
        <ele>482.239</ele>
        <time>2022-08-24T16:15:32Z</time>
      </trkpt>
      <trkpt lat="42.875906999999884" lon="-1.567940999999996">
        <ele>482.272</ele>
        <time>2022-08-24T16:15:33Z</time>
      </trkpt>
      <trkpt lat="42.875852999999886" lon="-1.567978999999996">
        <ele>482.026</ele>
        <time>2022-08-24T16:15:34Z</time>
      </trkpt>
      <trkpt lat="42.87579899999989" lon="-1.568015999999996">
        <ele>482.035</ele>
        <time>2022-08-24T16:15:35Z</time>
      </trkpt>
      <trkpt lat="42.875743999999884" lon="-1.568048999999996">
        <ele>482.065</ele>
        <time>2022-08-24T16:15:36Z</time>
      </trkpt>
      <trkpt lat="42.87569099999988" lon="-1.568081999999996">
        <ele>482.068</ele>
        <time>2022-08-24T16:15:37Z</time>
      </trkpt>
      <trkpt lat="42.87564099999988" lon="-1.568115999999996">
        <ele>482.014</ele>
        <time>2022-08-24T16:15:38Z</time>
      </trkpt>
      <trkpt lat="42.875591999999884" lon="-1.568146999999996">
        <ele>482.009</ele>
        <time>2022-08-24T16:15:39Z</time>
      </trkpt>
      <trkpt lat="42.87554299999989" lon="-1.568179999999996">
        <ele>482.047</ele>
        <time>2022-08-24T16:15:40Z</time>
      </trkpt>
      <trkpt lat="42.87549399999989" lon="-1.5682129999999959">
        <ele>481.827</ele>
        <time>2022-08-24T16:15:41Z</time>
      </trkpt>
      <trkpt lat="42.87544599999989" lon="-1.5682459999999958">
        <ele>481.827</ele>
        <time>2022-08-24T16:15:42Z</time>
      </trkpt>
      <trkpt lat="42.87539799999989" lon="-1.5682789999999958">
        <ele>481.823</ele>
        <time>2022-08-24T16:15:43Z</time>
      </trkpt>
      <trkpt lat="42.87534899999989" lon="-1.5683109999999958">
        <ele>481.825</ele>
        <time>2022-08-24T16:15:44Z</time>
      </trkpt>
      <trkpt lat="42.87525399999989" lon="-1.5683769999999957">
        <ele>481.652</ele>
        <time>2022-08-24T16:15:46Z</time>
      </trkpt>
      <trkpt lat="42.87520599999989" lon="-1.5684089999999957">
        <ele>481.655</ele>
        <time>2022-08-24T16:15:47Z</time>
      </trkpt>
      <trkpt lat="42.875111999999895" lon="-1.5684689999999957">
        <ele>481.689</ele>
        <time>2022-08-24T16:15:49Z</time>
      </trkpt>
      <trkpt lat="42.875018999999895" lon="-1.5685299999999958">
        <ele>481.618</ele>
        <time>2022-08-24T16:15:51Z</time>
      </trkpt>
      <trkpt lat="42.8749729999999" lon="-1.5685609999999957">
        <ele>481.688</ele>
        <time>2022-08-24T16:15:52Z</time>
      </trkpt>
      <trkpt lat="42.874925999999896" lon="-1.5685899999999957">
        <ele>481.624</ele>
        <time>2022-08-24T16:15:53Z</time>
      </trkpt>
      <trkpt lat="42.87488199999989" lon="-1.5686189999999958">
        <ele>481.626</ele>
        <time>2022-08-24T16:15:54Z</time>
      </trkpt>
      <trkpt lat="42.87469399999989" lon="-1.5687429999999958">
        <ele>481.609</ele>
        <time>2022-08-24T16:15:58Z</time>
      </trkpt>
      <trkpt lat="42.87464899999989" lon="-1.5687749999999958">
        <ele>481.669</ele>
        <time>2022-08-24T16:15:59Z</time>
      </trkpt>
      <trkpt lat="42.87454599999989" lon="-1.5688429999999958">
        <ele>481.889</ele>
        <time>2022-08-24T16:16:01Z</time>
      </trkpt>
      <trkpt lat="42.87403999999989" lon="-1.5691759999999957">
        <ele>482.279</ele>
        <time>2022-08-24T16:16:12Z</time>
      </trkpt>
      <trkpt lat="42.873992999999885" lon="-1.5692069999999956">
        <ele>482.235</ele>
        <time>2022-08-24T16:16:13Z</time>
      </trkpt>
      <trkpt lat="42.87385399999989" lon="-1.5693019999999955">
        <ele>482.277</ele>
        <time>2022-08-24T16:16:16Z</time>
      </trkpt>
      <trkpt lat="42.87379799999989" lon="-1.5693379999999955">
        <ele>482.284</ele>
        <time>2022-08-24T16:16:17Z</time>
      </trkpt>
      <trkpt lat="42.87376299999989" lon="-1.5693609999999956">
        <ele>482.287</ele>
        <time>2022-08-24T16:16:18Z</time>
      </trkpt>
      <trkpt lat="42.87371899999989" lon="-1.5693899999999956">
        <ele>482.421</ele>
        <time>2022-08-24T16:16:19Z</time>
      </trkpt>
      <trkpt lat="42.87367099999989" lon="-1.5694239999999957">
        <ele>482.430</ele>
        <time>2022-08-24T16:16:20Z</time>
      </trkpt>
      <trkpt lat="42.87363899999989" lon="-1.5694469999999958">
        <ele>482.684</ele>
        <time>2022-08-24T16:16:21Z</time>
      </trkpt>
      <trkpt lat="42.87359999999989" lon="-1.5694719999999958">
        <ele>482.607</ele>
        <time>2022-08-24T16:16:22Z</time>
      </trkpt>
      <trkpt lat="42.873561999999886" lon="-1.5694989999999958">
        <ele>482.817</ele>
        <time>2022-08-24T16:16:23Z</time>
      </trkpt>
      <trkpt lat="42.87352499999989" lon="-1.5695229999999958">
        <ele>482.809</ele>
        <time>2022-08-24T16:16:24Z</time>
      </trkpt>
      <trkpt lat="42.87348799999989" lon="-1.5695469999999958">
        <ele>482.859</ele>
        <time>2022-08-24T16:16:25Z</time>
      </trkpt>
      <trkpt lat="42.873449999999885" lon="-1.569569999999996">
        <ele>483.069</ele>
        <time>2022-08-24T16:16:26Z</time>
      </trkpt>
      <trkpt lat="42.87340899999988" lon="-1.5695999999999959">
        <ele>483.269</ele>
        <time>2022-08-24T16:16:27Z</time>
      </trkpt>
      <trkpt lat="42.873379999999884" lon="-1.5696189999999959">
        <ele>483.455</ele>
        <time>2022-08-24T16:16:28Z</time>
      </trkpt>
      <trkpt lat="42.873345999999884" lon="-1.5696439999999958">
        <ele>483.877</ele>
        <time>2022-08-24T16:16:29Z</time>
      </trkpt>
      <trkpt lat="42.87330999999988" lon="-1.5696679999999958">
        <ele>483.894</ele>
        <time>2022-08-24T16:16:30Z</time>
      </trkpt>
      <trkpt lat="42.87323999999988" lon="-1.5697169999999958">
        <ele>484.047</ele>
        <time>2022-08-24T16:16:32Z</time>
      </trkpt>
      <trkpt lat="42.87320099999988" lon="-1.5697459999999959">
        <ele>484.281</ele>
        <time>2022-08-24T16:16:33Z</time>
      </trkpt>
      <trkpt lat="42.87317499999988" lon="-1.569763999999996">
        <ele>484.480</ele>
        <time>2022-08-24T16:16:34Z</time>
      </trkpt>
      <trkpt lat="42.87307699999988" lon="-1.5698269999999959">
        <ele>484.847</ele>
        <time>2022-08-24T16:16:37Z</time>
      </trkpt>
      <trkpt lat="42.87304599999988" lon="-1.5698489999999958">
        <ele>485.029</ele>
        <time>2022-08-24T16:16:38Z</time>
      </trkpt>
      <trkpt lat="42.87301599999988" lon="-1.5698689999999957">
        <ele>485.021</ele>
        <time>2022-08-24T16:16:39Z</time>
      </trkpt>
      <trkpt lat="42.87298499999988" lon="-1.5698869999999958">
        <ele>485.209</ele>
        <time>2022-08-24T16:16:40Z</time>
      </trkpt>
      <trkpt lat="42.87295599999988" lon="-1.5699039999999957">
        <ele>485.465</ele>
        <time>2022-08-24T16:16:41Z</time>
      </trkpt>
      <trkpt lat="42.87292799999988" lon="-1.5699229999999957">
        <ele>485.685</ele>
        <time>2022-08-24T16:16:42Z</time>
      </trkpt>
      <trkpt lat="42.87290199999988" lon="-1.5699419999999957">
        <ele>485.675</ele>
        <time>2022-08-24T16:16:43Z</time>
      </trkpt>
      <trkpt lat="42.87287499999988" lon="-1.5699599999999958">
        <ele>485.811</ele>
        <time>2022-08-24T16:16:44Z</time>
      </trkpt>
      <trkpt lat="42.87284699999988" lon="-1.5699769999999957">
        <ele>485.813</ele>
        <time>2022-08-24T16:16:45Z</time>
      </trkpt>
      <trkpt lat="42.87281899999988" lon="-1.5699949999999958">
        <ele>486.020</ele>
        <time>2022-08-24T16:16:46Z</time>
      </trkpt>
      <trkpt lat="42.87279299999988" lon="-1.5700129999999959">
        <ele>486.263</ele>
        <time>2022-08-24T16:16:47Z</time>
      </trkpt>
      <trkpt lat="42.87276099999988" lon="-1.570033999999996">
        <ele>486.277</ele>
        <time>2022-08-24T16:16:48Z</time>
      </trkpt>
      <trkpt lat="42.872734999999885" lon="-1.570048999999996">
        <ele>486.226</ele>
        <time>2022-08-24T16:16:49Z</time>
      </trkpt>
      <trkpt lat="42.872714999999886" lon="-1.570062999999996">
        <ele>486.416</ele>
        <time>2022-08-24T16:16:50Z</time>
      </trkpt>
      <trkpt lat="42.87268899999989" lon="-1.570079999999996">
        <ele>486.876</ele>
        <time>2022-08-24T16:16:51Z</time>
      </trkpt>
      <trkpt lat="42.872655999999886" lon="-1.570097999999996">
        <ele>487.213</ele>
        <time>2022-08-24T16:16:52Z</time>
      </trkpt>
      <trkpt lat="42.872630999999885" lon="-1.570114999999996">
        <ele>487.209</ele>
        <time>2022-08-24T16:16:53Z</time>
      </trkpt>
      <trkpt lat="42.87260999999989" lon="-1.570127999999996">
        <ele>487.492</ele>
        <time>2022-08-24T16:16:54Z</time>
      </trkpt>
      <trkpt lat="42.872579999999886" lon="-1.570146999999996">
        <ele>487.622</ele>
        <time>2022-08-24T16:16:55Z</time>
      </trkpt>
      <trkpt lat="42.872559999999886" lon="-1.570157999999996">
        <ele>487.832</ele>
        <time>2022-08-24T16:16:56Z</time>
      </trkpt>
      <trkpt lat="42.87253699999989" lon="-1.570171999999996">
        <ele>488.058</ele>
        <time>2022-08-24T16:16:57Z</time>
      </trkpt>
      <trkpt lat="42.872506999999885" lon="-1.5701889999999958">
        <ele>488.080</ele>
        <time>2022-08-24T16:16:58Z</time>
      </trkpt>
      <trkpt lat="42.87248899999989" lon="-1.5702029999999958">
        <ele>488.467</ele>
        <time>2022-08-24T16:16:59Z</time>
      </trkpt>
      <trkpt lat="42.87246399999989" lon="-1.570217999999996">
        <ele>488.620</ele>
        <time>2022-08-24T16:17:00Z</time>
      </trkpt>
      <trkpt lat="42.872439999999884" lon="-1.5702319999999959">
        <ele>488.634</ele>
        <time>2022-08-24T16:17:01Z</time>
      </trkpt>
      <trkpt lat="42.872416999999885" lon="-1.5702459999999958">
        <ele>488.883</ele>
        <time>2022-08-24T16:17:02Z</time>
      </trkpt>
      <trkpt lat="42.872393999999886" lon="-1.570260999999996">
        <ele>488.822</ele>
        <time>2022-08-24T16:17:03Z</time>
      </trkpt>
      <trkpt lat="42.87237099999989" lon="-1.5702749999999959">
        <ele>489.262</ele>
        <time>2022-08-24T16:17:04Z</time>
      </trkpt>
      <trkpt lat="42.87234599999989" lon="-1.570287999999996">
        <ele>489.208</ele>
        <time>2022-08-24T16:17:05Z</time>
      </trkpt>
      <trkpt lat="42.87231999999989" lon="-1.570300999999996">
        <ele>489.409</ele>
        <time>2022-08-24T16:17:06Z</time>
      </trkpt>
      <trkpt lat="42.872295999999885" lon="-1.570314999999996">
        <ele>489.683</ele>
        <time>2022-08-24T16:17:07Z</time>
      </trkpt>
      <trkpt lat="42.87227199999988" lon="-1.570327999999996">
        <ele>489.643</ele>
        <time>2022-08-24T16:17:08Z</time>
      </trkpt>
      <trkpt lat="42.87224799999988" lon="-1.5703399999999959">
        <ele>489.843</ele>
        <time>2022-08-24T16:17:09Z</time>
      </trkpt>
      <trkpt lat="42.87222299999988" lon="-1.570352999999996">
        <ele>489.879</ele>
        <time>2022-08-24T16:17:10Z</time>
      </trkpt>
      <trkpt lat="42.872195999999875" lon="-1.5703639999999959">
        <ele>490.031</ele>
        <time>2022-08-24T16:17:11Z</time>
      </trkpt>
      <trkpt lat="42.872170999999874" lon="-1.5703759999999958">
        <ele>490.028</ele>
        <time>2022-08-24T16:17:12Z</time>
      </trkpt>
      <trkpt lat="42.872147999999875" lon="-1.5703869999999958">
        <ele>490.021</ele>
        <time>2022-08-24T16:17:13Z</time>
      </trkpt>
      <trkpt lat="42.87211899999988" lon="-1.5704029999999958">
        <ele>490.275</ele>
        <time>2022-08-24T16:17:14Z</time>
      </trkpt>
      <trkpt lat="42.87209099999988" lon="-1.5704159999999958">
        <ele>490.414</ele>
        <time>2022-08-24T16:17:15Z</time>
      </trkpt>
      <trkpt lat="42.872063999999874" lon="-1.5704249999999957">
        <ele>490.652</ele>
        <time>2022-08-24T16:17:16Z</time>
      </trkpt>
      <trkpt lat="42.87203599999987" lon="-1.5704339999999957">
        <ele>490.853</ele>
        <time>2022-08-24T16:17:17Z</time>
      </trkpt>
      <trkpt lat="42.87201499999988" lon="-1.5704459999999956">
        <ele>490.808</ele>
        <time>2022-08-24T16:17:18Z</time>
      </trkpt>
      <trkpt lat="42.87198299999988" lon="-1.5704629999999955">
        <ele>491.009</ele>
        <time>2022-08-24T16:17:19Z</time>
      </trkpt>
      <trkpt lat="42.87195399999988" lon="-1.5704739999999955">
        <ele>491.256</ele>
        <time>2022-08-24T16:17:20Z</time>
      </trkpt>
      <trkpt lat="42.87193199999988" lon="-1.5704809999999956">
        <ele>491.476</ele>
        <time>2022-08-24T16:17:21Z</time>
      </trkpt>
      <trkpt lat="42.87190399999988" lon="-1.5704879999999957">
        <ele>491.486</ele>
        <time>2022-08-24T16:17:22Z</time>
      </trkpt>
      <trkpt lat="42.87187399999988" lon="-1.5704969999999956">
        <ele>491.832</ele>
        <time>2022-08-24T16:17:23Z</time>
      </trkpt>
      <trkpt lat="42.87184799999988" lon="-1.5705069999999957">
        <ele>491.884</ele>
        <time>2022-08-24T16:17:24Z</time>
      </trkpt>
      <trkpt lat="42.871820999999876" lon="-1.5705169999999957">
        <ele>492.061</ele>
        <time>2022-08-24T16:17:25Z</time>
      </trkpt>
      <trkpt lat="42.87179199999988" lon="-1.5705319999999958">
        <ele>492.034</ele>
        <time>2022-08-24T16:17:26Z</time>
      </trkpt>
      <trkpt lat="42.871764999999876" lon="-1.5705429999999958">
        <ele>492.058</ele>
        <time>2022-08-24T16:17:27Z</time>
      </trkpt>
      <trkpt lat="42.871736999999875" lon="-1.5705549999999957">
        <ele>492.267</ele>
        <time>2022-08-24T16:17:28Z</time>
      </trkpt>
      <trkpt lat="42.87170999999987" lon="-1.5705659999999957">
        <ele>492.413</ele>
        <time>2022-08-24T16:17:29Z</time>
      </trkpt>
      <trkpt lat="42.87168299999987" lon="-1.5705759999999958">
        <ele>492.643</ele>
        <time>2022-08-24T16:17:30Z</time>
      </trkpt>
      <trkpt lat="42.87165799999987" lon="-1.5705909999999959">
        <ele>492.807</ele>
        <time>2022-08-24T16:17:31Z</time>
      </trkpt>
      <trkpt lat="42.871633999999865" lon="-1.5706049999999958">
        <ele>493.009</ele>
        <time>2022-08-24T16:17:32Z</time>
      </trkpt>
      <trkpt lat="42.871608999999864" lon="-1.570619999999996">
        <ele>493.092</ele>
        <time>2022-08-24T16:17:33Z</time>
      </trkpt>
      <trkpt lat="42.871583999999864" lon="-1.570635999999996">
        <ele>493.232</ele>
        <time>2022-08-24T16:17:34Z</time>
      </trkpt>
      <trkpt lat="42.871552999999864" lon="-1.570653999999996">
        <ele>493.262</ele>
        <time>2022-08-24T16:17:35Z</time>
      </trkpt>
      <trkpt lat="42.871526999999865" lon="-1.570667999999996">
        <ele>493.488</ele>
        <time>2022-08-24T16:17:36Z</time>
      </trkpt>
      <trkpt lat="42.87149799999987" lon="-1.570680999999996">
        <ele>493.480</ele>
        <time>2022-08-24T16:17:37Z</time>
      </trkpt>
      <trkpt lat="42.87146999999987" lon="-1.570691999999996">
        <ele>493.697</ele>
        <time>2022-08-24T16:17:38Z</time>
      </trkpt>
      <trkpt lat="42.871445999999864" lon="-1.570699999999996">
        <ele>493.830</ele>
        <time>2022-08-24T16:17:39Z</time>
      </trkpt>
      <trkpt lat="42.87141099999987" lon="-1.570714999999996">
        <ele>494.074</ele>
        <time>2022-08-24T16:17:40Z</time>
      </trkpt>
      <trkpt lat="42.871386999999864" lon="-1.570733999999996">
        <ele>494.033</ele>
        <time>2022-08-24T16:17:41Z</time>
      </trkpt>
      <trkpt lat="42.87136199999986" lon="-1.570750999999996">
        <ele>494.234</ele>
        <time>2022-08-24T16:17:42Z</time>
      </trkpt>
      <trkpt lat="42.87133499999986" lon="-1.570769999999996">
        <ele>494.255</ele>
        <time>2022-08-24T16:17:43Z</time>
      </trkpt>
      <trkpt lat="42.87131199999986" lon="-1.570781999999996">
        <ele>494.410</ele>
        <time>2022-08-24T16:17:44Z</time>
      </trkpt>
      <trkpt lat="42.87128299999986" lon="-1.570796999999996">
        <ele>494.609</ele>
        <time>2022-08-24T16:17:45Z</time>
      </trkpt>
      <trkpt lat="42.871250999999866" lon="-1.570817999999996">
        <ele>494.694</ele>
        <time>2022-08-24T16:17:46Z</time>
      </trkpt>
      <trkpt lat="42.871228999999865" lon="-1.570830999999996">
        <ele>494.894</ele>
        <time>2022-08-24T16:17:47Z</time>
      </trkpt>
      <trkpt lat="42.87119699999987" lon="-1.570847999999996">
        <ele>494.894</ele>
        <time>2022-08-24T16:17:48Z</time>
      </trkpt>
      <trkpt lat="42.871169999999864" lon="-1.570861999999996">
        <ele>495.050</ele>
        <time>2022-08-24T16:17:49Z</time>
      </trkpt>
      <trkpt lat="42.87114799999986" lon="-1.570872999999996">
        <ele>495.032</ele>
        <time>2022-08-24T16:17:50Z</time>
      </trkpt>
      <trkpt lat="42.87111499999986" lon="-1.570893999999996">
        <ele>495.249</ele>
        <time>2022-08-24T16:17:51Z</time>
      </trkpt>
      <trkpt lat="42.87109199999986" lon="-1.570906999999996">
        <ele>495.422</ele>
        <time>2022-08-24T16:17:52Z</time>
      </trkpt>
      <trkpt lat="42.87106499999986" lon="-1.5709249999999961">
        <ele>495.636</ele>
        <time>2022-08-24T16:17:53Z</time>
      </trkpt>
      <trkpt lat="42.87103699999986" lon="-1.5709379999999962">
        <ele>495.855</ele>
        <time>2022-08-24T16:17:54Z</time>
      </trkpt>
      <trkpt lat="42.87101199999986" lon="-1.5709539999999962">
        <ele>495.841</ele>
        <time>2022-08-24T16:17:55Z</time>
      </trkpt>
      <trkpt lat="42.870987999999855" lon="-1.570973999999996">
        <ele>495.881</ele>
        <time>2022-08-24T16:17:56Z</time>
      </trkpt>
      <trkpt lat="42.870962999999854" lon="-1.570990999999996">
        <ele>496.209</ele>
        <time>2022-08-24T16:17:57Z</time>
      </trkpt>
      <trkpt lat="42.870934999999854" lon="-1.571003999999996">
        <ele>496.209</ele>
        <time>2022-08-24T16:17:58Z</time>
      </trkpt>
      <trkpt lat="42.870900999999854" lon="-1.571022999999996">
        <ele>496.465</ele>
        <time>2022-08-24T16:17:59Z</time>
      </trkpt>
      <trkpt lat="42.87087699999985" lon="-1.571034999999996">
        <ele>496.455</ele>
        <time>2022-08-24T16:18:00Z</time>
      </trkpt>
      <trkpt lat="42.87084799999985" lon="-1.571050999999996">
        <ele>496.655</ele>
        <time>2022-08-24T16:18:01Z</time>
      </trkpt>
      <trkpt lat="42.870818999999855" lon="-1.571067999999996">
        <ele>496.651</ele>
        <time>2022-08-24T16:18:02Z</time>
      </trkpt>
      <trkpt lat="42.87078699999986" lon="-1.571091999999996">
        <ele>496.853</ele>
        <time>2022-08-24T16:18:03Z</time>
      </trkpt>
      <trkpt lat="42.87076199999986" lon="-1.5711119999999958">
        <ele>497.040</ele>
        <time>2022-08-24T16:18:04Z</time>
      </trkpt>
      <trkpt lat="42.87074399999986" lon="-1.5711289999999958">
        <ele>497.233</ele>
        <time>2022-08-24T16:18:05Z</time>
      </trkpt>
      <trkpt lat="42.87072099999986" lon="-1.5711509999999957">
        <ele>497.237</ele>
        <time>2022-08-24T16:18:06Z</time>
      </trkpt>
      <trkpt lat="42.87069699999986" lon="-1.5711719999999958">
        <ele>497.436</ele>
        <time>2022-08-24T16:18:07Z</time>
      </trkpt>
      <trkpt lat="42.87067099999986" lon="-1.5711909999999958">
        <ele>497.679</ele>
        <time>2022-08-24T16:18:08Z</time>
      </trkpt>
      <trkpt lat="42.87064399999986" lon="-1.5712089999999959">
        <ele>497.605</ele>
        <time>2022-08-24T16:18:09Z</time>
      </trkpt>
      <trkpt lat="42.870616999999854" lon="-1.5712259999999958">
        <ele>497.825</ele>
        <time>2022-08-24T16:18:10Z</time>
      </trkpt>
      <trkpt lat="42.87058999999985" lon="-1.5712439999999959">
        <ele>497.809</ele>
        <time>2022-08-24T16:18:11Z</time>
      </trkpt>
      <trkpt lat="42.87056399999985" lon="-1.5712599999999959">
        <ele>497.878</ele>
        <time>2022-08-24T16:18:12Z</time>
      </trkpt>
      <trkpt lat="42.87053699999985" lon="-1.5712739999999958">
        <ele>497.828</ele>
        <time>2022-08-24T16:18:13Z</time>
      </trkpt>
      <trkpt lat="42.87051099999985" lon="-1.5712899999999959">
        <ele>498.058</ele>
        <time>2022-08-24T16:18:14Z</time>
      </trkpt>
      <trkpt lat="42.87048799999985" lon="-1.571304999999996">
        <ele>498.024</ele>
        <time>2022-08-24T16:18:15Z</time>
      </trkpt>
      <trkpt lat="42.870466999999856" lon="-1.571320999999996">
        <ele>498.056</ele>
        <time>2022-08-24T16:18:16Z</time>
      </trkpt>
      <trkpt lat="42.87044599999986" lon="-1.571336999999996">
        <ele>498.293</ele>
        <time>2022-08-24T16:18:17Z</time>
      </trkpt>
      <trkpt lat="42.87042299999986" lon="-1.571346999999996">
        <ele>498.256</ele>
        <time>2022-08-24T16:18:18Z</time>
      </trkpt>
      <trkpt lat="42.87039899999986" lon="-1.571355999999996">
        <ele>498.270</ele>
        <time>2022-08-24T16:18:19Z</time>
      </trkpt>
      <trkpt lat="42.87037599999986" lon="-1.5713679999999959">
        <ele>498.439</ele>
        <time>2022-08-24T16:18:20Z</time>
      </trkpt>
      <trkpt lat="42.87035399999986" lon="-1.571380999999996">
        <ele>498.472</ele>
        <time>2022-08-24T16:18:21Z</time>
      </trkpt>
      <trkpt lat="42.87033099999986" lon="-1.5713929999999958">
        <ele>498.613</ele>
        <time>2022-08-24T16:18:22Z</time>
      </trkpt>
      <trkpt lat="42.87030599999986" lon="-1.5714039999999958">
        <ele>498.614</ele>
        <time>2022-08-24T16:18:23Z</time>
      </trkpt>
      <trkpt lat="42.870278999999854" lon="-1.5714129999999957">
        <ele>498.609</ele>
        <time>2022-08-24T16:18:24Z</time>
      </trkpt>
      <trkpt lat="42.87013699999986" lon="-1.5714489999999957">
        <ele>498.818</ele>
        <time>2022-08-24T16:18:29Z</time>
      </trkpt>
      <trkpt lat="42.86982399999986" lon="-1.5714839999999957">
        <ele>498.858</ele>
        <time>2022-08-24T16:18:38Z</time>
      </trkpt>
      <trkpt lat="42.86939999999986" lon="-1.5715019999999957">
        <ele>498.828</ele>
        <time>2022-08-24T16:18:48Z</time>
      </trkpt>
      <trkpt lat="42.868938999999855" lon="-1.5715169999999958">
        <ele>498.464</ele>
        <time>2022-08-24T16:18:57Z</time>
      </trkpt>
      <trkpt lat="42.86856099999986" lon="-1.571569999999996">
        <ele>497.876</ele>
        <time>2022-08-24T16:19:03Z</time>
      </trkpt>
      <trkpt lat="42.86842799999986" lon="-1.5716029999999959">
        <ele>497.483</ele>
        <time>2022-08-24T16:19:05Z</time>
      </trkpt>
      <trkpt lat="42.86815999999986" lon="-1.5716869999999958">
        <ele>496.256</ele>
        <time>2022-08-24T16:19:09Z</time>
      </trkpt>
      <trkpt lat="42.86802299999986" lon="-1.5717349999999959">
        <ele>495.840</ele>
        <time>2022-08-24T16:19:11Z</time>
      </trkpt>
      <trkpt lat="42.867953999999855" lon="-1.5717619999999959">
        <ele>495.299</ele>
        <time>2022-08-24T16:19:12Z</time>
      </trkpt>
      <trkpt lat="42.86766499999985" lon="-1.5718739999999958">
        <ele>494.086</ele>
        <time>2022-08-24T16:19:16Z</time>
      </trkpt>
      <trkpt lat="42.86729499999986" lon="-1.5720229999999957">
        <ele>493.060</ele>
        <time>2022-08-24T16:19:21Z</time>
      </trkpt>
      <trkpt lat="42.86706399999986" lon="-1.5721129999999957">
        <ele>492.026</ele>
        <time>2022-08-24T16:19:24Z</time>
      </trkpt>
      <trkpt lat="42.86675399999986" lon="-1.5722359999999957">
        <ele>491.009</ele>
        <time>2022-08-24T16:19:28Z</time>
      </trkpt>
      <trkpt lat="42.86667799999986" lon="-1.5722669999999956">
        <ele>490.689</ele>
        <time>2022-08-24T16:19:29Z</time>
      </trkpt>
      <trkpt lat="42.86660199999986" lon="-1.5722989999999957">
        <ele>490.459</ele>
        <time>2022-08-24T16:19:30Z</time>
      </trkpt>
      <trkpt lat="42.86645199999986" lon="-1.5723589999999956">
        <ele>489.879</ele>
        <time>2022-08-24T16:19:32Z</time>
      </trkpt>
      <trkpt lat="42.86637599999986" lon="-1.5723889999999956">
        <ele>489.435</ele>
        <time>2022-08-24T16:19:33Z</time>
      </trkpt>
      <trkpt lat="42.86614899999986" lon="-1.5724829999999956">
        <ele>488.877</ele>
        <time>2022-08-24T16:19:36Z</time>
      </trkpt>
      <trkpt lat="42.866073999999855" lon="-1.5725129999999956">
        <ele>488.634</ele>
        <time>2022-08-24T16:19:37Z</time>
      </trkpt>
      <trkpt lat="42.86599999999986" lon="-1.5725419999999957">
        <ele>488.057</ele>
        <time>2022-08-24T16:19:38Z</time>
      </trkpt>
      <trkpt lat="42.865927999999855" lon="-1.5725719999999956">
        <ele>488.071</ele>
        <time>2022-08-24T16:19:39Z</time>
      </trkpt>
      <trkpt lat="42.86563899999985" lon="-1.5726799999999956">
        <ele>486.660</ele>
        <time>2022-08-24T16:19:43Z</time>
      </trkpt>
      <trkpt lat="42.86535299999985" lon="-1.5727739999999957">
        <ele>485.483</ele>
        <time>2022-08-24T16:19:47Z</time>
      </trkpt>
      <trkpt lat="42.86506199999985" lon="-1.5728519999999957">
        <ele>484.425</ele>
        <time>2022-08-24T16:19:51Z</time>
      </trkpt>
      <trkpt lat="42.86498599999985" lon="-1.5728709999999957">
        <ele>484.017</ele>
        <time>2022-08-24T16:19:52Z</time>
      </trkpt>
      <trkpt lat="42.86453399999985" lon="-1.5729699999999958">
        <ele>483.009</ele>
        <time>2022-08-24T16:19:58Z</time>
      </trkpt>
      <trkpt lat="42.86445999999985" lon="-1.5729849999999959">
        <ele>482.889</ele>
        <time>2022-08-24T16:19:59Z</time>
      </trkpt>
      <trkpt lat="42.864368999999854" lon="-1.5730019999999958">
        <ele>482.669</ele>
        <time>2022-08-24T16:20:00Z</time>
      </trkpt>
      <trkpt lat="42.86429399999985" lon="-1.573016999999996">
        <ele>482.659</ele>
        <time>2022-08-24T16:20:01Z</time>
      </trkpt>
      <trkpt lat="42.86422199999985" lon="-1.573034999999996">
        <ele>482.275</ele>
        <time>2022-08-24T16:20:02Z</time>
      </trkpt>
      <trkpt lat="42.86409299999985" lon="-1.573064999999996">
        <ele>482.027</ele>
        <time>2022-08-24T16:20:04Z</time>
      </trkpt>
      <trkpt lat="42.86401099999985" lon="-1.5730819999999959">
        <ele>481.874</ele>
        <time>2022-08-24T16:20:05Z</time>
      </trkpt>
      <trkpt lat="42.86394299999985" lon="-1.573096999999996">
        <ele>481.847</ele>
        <time>2022-08-24T16:20:06Z</time>
      </trkpt>
      <trkpt lat="42.863873999999846" lon="-1.573109999999996">
        <ele>481.661</ele>
        <time>2022-08-24T16:20:07Z</time>
      </trkpt>
      <trkpt lat="42.86380799999985" lon="-1.573121999999996">
        <ele>481.670</ele>
        <time>2022-08-24T16:20:08Z</time>
      </trkpt>
      <trkpt lat="42.86375599999985" lon="-1.573131999999996">
        <ele>481.632</ele>
        <time>2022-08-24T16:20:09Z</time>
      </trkpt>
      <trkpt lat="42.863689999999856" lon="-1.573144999999996">
        <ele>481.692</ele>
        <time>2022-08-24T16:20:10Z</time>
      </trkpt>
      <trkpt lat="42.86362399999986" lon="-1.573157999999996">
        <ele>481.611</ele>
        <time>2022-08-24T16:20:11Z</time>
      </trkpt>
      <trkpt lat="42.86355999999986" lon="-1.573169999999996">
        <ele>481.409</ele>
        <time>2022-08-24T16:20:12Z</time>
      </trkpt>
      <trkpt lat="42.86343599999986" lon="-1.573195999999996">
        <ele>481.464</ele>
        <time>2022-08-24T16:20:14Z</time>
      </trkpt>
      <trkpt lat="42.86337599999986" lon="-1.5732109999999961">
        <ele>481.464</ele>
        <time>2022-08-24T16:20:15Z</time>
      </trkpt>
      <trkpt lat="42.86331999999986" lon="-1.573224999999996">
        <ele>481.424</ele>
        <time>2022-08-24T16:20:16Z</time>
      </trkpt>
      <trkpt lat="42.86326399999986" lon="-1.573238999999996">
        <ele>481.640</ele>
        <time>2022-08-24T16:20:17Z</time>
      </trkpt>
      <trkpt lat="42.86320999999986" lon="-1.5732539999999962">
        <ele>481.692</ele>
        <time>2022-08-24T16:20:18Z</time>
      </trkpt>
      <trkpt lat="42.86315699999986" lon="-1.5732689999999963">
        <ele>481.649</ele>
        <time>2022-08-24T16:20:19Z</time>
      </trkpt>
      <trkpt lat="42.86310599999986" lon="-1.5732819999999963">
        <ele>481.842</ele>
        <time>2022-08-24T16:20:20Z</time>
      </trkpt>
      <trkpt lat="42.86289699999986" lon="-1.5733369999999962">
        <ele>482.246</ele>
        <time>2022-08-24T16:20:24Z</time>
      </trkpt>
      <trkpt lat="42.862844999999865" lon="-1.5733499999999963">
        <ele>482.445</ele>
        <time>2022-08-24T16:20:25Z</time>
      </trkpt>
      <trkpt lat="42.862793999999866" lon="-1.5733669999999962">
        <ele>482.623</ele>
        <time>2022-08-24T16:20:26Z</time>
      </trkpt>
      <trkpt lat="42.86274299999987" lon="-1.5733859999999962">
        <ele>482.883</ele>
        <time>2022-08-24T16:20:27Z</time>
      </trkpt>
      <trkpt lat="42.86269099999987" lon="-1.573402999999996">
        <ele>483.011</ele>
        <time>2022-08-24T16:20:28Z</time>
      </trkpt>
      <trkpt lat="42.86264099999987" lon="-1.573419999999996">
        <ele>483.009</ele>
        <time>2022-08-24T16:20:29Z</time>
      </trkpt>
      <trkpt lat="42.86228799999987" lon="-1.573584999999996">
        <ele>483.673</ele>
        <time>2022-08-24T16:20:36Z</time>
      </trkpt>
      <trkpt lat="42.86180499999987" lon="-1.573869999999996">
        <ele>483.423</ele>
        <time>2022-08-24T16:20:45Z</time>
      </trkpt>
      <trkpt lat="42.86174899999987" lon="-1.5739039999999962">
        <ele>483.483</ele>
        <time>2022-08-24T16:20:46Z</time>
      </trkpt>
      <trkpt lat="42.86130699999987" lon="-1.5742549999999962">
        <ele>482.089</ele>
        <time>2022-08-24T16:20:54Z</time>
      </trkpt>
      <trkpt lat="42.86125099999987" lon="-1.574301999999996">
        <ele>482.081</ele>
        <time>2022-08-24T16:20:55Z</time>
      </trkpt>
      <trkpt lat="42.861195999999865" lon="-1.574345999999996">
        <ele>481.858</ele>
        <time>2022-08-24T16:20:56Z</time>
      </trkpt>
      <trkpt lat="42.86108999999986" lon="-1.574440999999996">
        <ele>481.651</ele>
        <time>2022-08-24T16:20:58Z</time>
      </trkpt>
      <trkpt lat="42.861035999999864" lon="-1.574485999999996">
        <ele>481.415</ele>
        <time>2022-08-24T16:20:59Z</time>
      </trkpt>
      <trkpt lat="42.86086599999987" lon="-1.574601999999996">
        <ele>481.284</ele>
        <time>2022-08-24T16:21:02Z</time>
      </trkpt>
      <trkpt lat="42.86074399999987" lon="-1.5746659999999961">
        <ele>481.027</ele>
        <time>2022-08-24T16:21:04Z</time>
      </trkpt>
      <trkpt lat="42.86035799999987" lon="-1.5748439999999961">
        <ele>480.068</ele>
        <time>2022-08-24T16:21:10Z</time>
      </trkpt>
      <trkpt lat="42.86029099999987" lon="-1.574876999999996">
        <ele>479.814</ele>
        <time>2022-08-24T16:21:11Z</time>
      </trkpt>
      <trkpt lat="42.86016099999987" lon="-1.574960999999996">
        <ele>479.609</ele>
        <time>2022-08-24T16:21:13Z</time>
      </trkpt>
      <trkpt lat="42.86010099999987" lon="-1.575012999999996">
        <ele>479.683</ele>
        <time>2022-08-24T16:21:14Z</time>
      </trkpt>
      <trkpt lat="42.86004499999987" lon="-1.575065999999996">
        <ele>479.023</ele>
        <time>2022-08-24T16:21:15Z</time>
      </trkpt>
      <trkpt lat="42.85999399999987" lon="-1.575120999999996">
        <ele>478.863</ele>
        <time>2022-08-24T16:21:16Z</time>
      </trkpt>
      <trkpt lat="42.85994299999987" lon="-1.575177999999996">
        <ele>478.469</ele>
        <time>2022-08-24T16:21:17Z</time>
      </trkpt>
      <trkpt lat="42.85989299999987" lon="-1.575234999999996">
        <ele>478.081</ele>
        <time>2022-08-24T16:21:18Z</time>
      </trkpt>
      <trkpt lat="42.85979399999987" lon="-1.575355999999996">
        <ele>477.838</ele>
        <time>2022-08-24T16:21:20Z</time>
      </trkpt>
      <trkpt lat="42.859654999999876" lon="-1.575541999999996">
        <ele>477.481</ele>
        <time>2022-08-24T16:21:23Z</time>
      </trkpt>
      <trkpt lat="42.85960899999988" lon="-1.575600999999996">
        <ele>477.275</ele>
        <time>2022-08-24T16:21:24Z</time>
      </trkpt>
      <trkpt lat="42.85956299999988" lon="-1.575660999999996">
        <ele>476.834</ele>
        <time>2022-08-24T16:21:25Z</time>
      </trkpt>
      <trkpt lat="42.85951999999988" lon="-1.575719999999996">
        <ele>476.844</ele>
        <time>2022-08-24T16:21:26Z</time>
      </trkpt>
      <trkpt lat="42.85947799999988" lon="-1.575775999999996">
        <ele>476.605</ele>
        <time>2022-08-24T16:21:27Z</time>
      </trkpt>
      <trkpt lat="42.859434999999884" lon="-1.575827999999996">
        <ele>476.615</ele>
        <time>2022-08-24T16:21:28Z</time>
      </trkpt>
      <trkpt lat="42.85939399999988" lon="-1.575880999999996">
        <ele>476.409</ele>
        <time>2022-08-24T16:21:29Z</time>
      </trkpt>
      <trkpt lat="42.85935399999988" lon="-1.5759289999999961">
        <ele>476.455</ele>
        <time>2022-08-24T16:21:30Z</time>
      </trkpt>
      <trkpt lat="42.859313999999884" lon="-1.575975999999996">
        <ele>476.475</ele>
        <time>2022-08-24T16:21:31Z</time>
      </trkpt>
      <trkpt lat="42.859276999999885" lon="-1.576023999999996">
        <ele>476.485</ele>
        <time>2022-08-24T16:21:32Z</time>
      </trkpt>
      <trkpt lat="42.859240999999884" lon="-1.5760719999999961">
        <ele>476.631</ele>
        <time>2022-08-24T16:21:33Z</time>
      </trkpt>
      <trkpt lat="42.85920499999988" lon="-1.5761179999999961">
        <ele>476.883</ele>
        <time>2022-08-24T16:21:34Z</time>
      </trkpt>
      <trkpt lat="42.85916799999988" lon="-1.5761639999999961">
        <ele>476.850</ele>
        <time>2022-08-24T16:21:35Z</time>
      </trkpt>
      <trkpt lat="42.85913199999988" lon="-1.5762119999999962">
        <ele>476.863</ele>
        <time>2022-08-24T16:21:36Z</time>
      </trkpt>
      <trkpt lat="42.85909599999988" lon="-1.5762609999999961">
        <ele>476.857</ele>
        <time>2022-08-24T16:21:37Z</time>
      </trkpt>
      <trkpt lat="42.85906099999988" lon="-1.5763069999999961">
        <ele>477.056</ele>
        <time>2022-08-24T16:21:38Z</time>
      </trkpt>
      <trkpt lat="42.85902499999988" lon="-1.576350999999996">
        <ele>477.063</ele>
        <time>2022-08-24T16:21:39Z</time>
      </trkpt>
      <trkpt lat="42.858989999999885" lon="-1.576396999999996">
        <ele>477.244</ele>
        <time>2022-08-24T16:21:40Z</time>
      </trkpt>
      <trkpt lat="42.85895499999989" lon="-1.576440999999996">
        <ele>477.218</ele>
        <time>2022-08-24T16:21:41Z</time>
      </trkpt>
      <trkpt lat="42.858921999999886" lon="-1.576483999999996">
        <ele>477.409</ele>
        <time>2022-08-24T16:21:42Z</time>
      </trkpt>
      <trkpt lat="42.85888699999989" lon="-1.576525999999996">
        <ele>477.447</ele>
        <time>2022-08-24T16:21:43Z</time>
      </trkpt>
      <trkpt lat="42.85885299999989" lon="-1.5765679999999962">
        <ele>477.487</ele>
        <time>2022-08-24T16:21:44Z</time>
      </trkpt>
      <trkpt lat="42.85882099999989" lon="-1.5766099999999963">
        <ele>477.447</ele>
        <time>2022-08-24T16:21:45Z</time>
      </trkpt>
      <trkpt lat="42.85879099999989" lon="-1.5766509999999962">
        <ele>477.673</ele>
        <time>2022-08-24T16:21:46Z</time>
      </trkpt>
      <trkpt lat="42.85875899999989" lon="-1.5766909999999963">
        <ele>477.685</ele>
        <time>2022-08-24T16:21:47Z</time>
      </trkpt>
      <trkpt lat="42.85856799999989" lon="-1.5769439999999963">
        <ele>478.022</ele>
        <time>2022-08-24T16:21:53Z</time>
      </trkpt>
      <trkpt lat="42.858535999999894" lon="-1.5769839999999964">
        <ele>478.045</ele>
        <time>2022-08-24T16:21:54Z</time>
      </trkpt>
      <trkpt lat="42.858504999999894" lon="-1.5770239999999964">
        <ele>478.279</ele>
        <time>2022-08-24T16:21:55Z</time>
      </trkpt>
      <trkpt lat="42.85847499999989" lon="-1.5770649999999964">
        <ele>478.298</ele>
        <time>2022-08-24T16:21:56Z</time>
      </trkpt>
      <trkpt lat="42.85837999999989" lon="-1.5771829999999964">
        <ele>478.632</ele>
        <time>2022-08-24T16:21:59Z</time>
      </trkpt>
      <trkpt lat="42.85834999999989" lon="-1.5772259999999965">
        <ele>478.692</ele>
        <time>2022-08-24T16:22:00Z</time>
      </trkpt>
      <trkpt lat="42.858226999999886" lon="-1.5773819999999965">
        <ele>479.011</ele>
        <time>2022-08-24T16:22:04Z</time>
      </trkpt>
      <trkpt lat="42.85819799999989" lon="-1.5774239999999966">
        <ele>479.209</ele>
        <time>2022-08-24T16:22:05Z</time>
      </trkpt>
      <trkpt lat="42.858167999999885" lon="-1.5774629999999965">
        <ele>479.244</ele>
        <time>2022-08-24T16:22:06Z</time>
      </trkpt>
      <trkpt lat="42.85813799999988" lon="-1.5774999999999966">
        <ele>479.474</ele>
        <time>2022-08-24T16:22:07Z</time>
      </trkpt>
      <trkpt lat="42.85810699999988" lon="-1.5775369999999966">
        <ele>479.474</ele>
        <time>2022-08-24T16:22:08Z</time>
      </trkpt>
      <trkpt lat="42.858077999999885" lon="-1.5775739999999967">
        <ele>479.450</ele>
        <time>2022-08-24T16:22:09Z</time>
      </trkpt>
      <trkpt lat="42.85804899999989" lon="-1.5776119999999967">
        <ele>479.672</ele>
        <time>2022-08-24T16:22:10Z</time>
      </trkpt>
      <trkpt lat="42.858021999999885" lon="-1.5776499999999967">
        <ele>479.689</ele>
        <time>2022-08-24T16:22:11Z</time>
      </trkpt>
      <trkpt lat="42.85799199999988" lon="-1.5776859999999966">
        <ele>479.832</ele>
        <time>2022-08-24T16:22:12Z</time>
      </trkpt>
      <trkpt lat="42.85796199999988" lon="-1.5777239999999966">
        <ele>479.876</ele>
        <time>2022-08-24T16:22:13Z</time>
      </trkpt>
      <trkpt lat="42.85793399999988" lon="-1.5777619999999966">
        <ele>480.285</ele>
        <time>2022-08-24T16:22:14Z</time>
      </trkpt>
      <trkpt lat="42.85790599999988" lon="-1.5777969999999966">
        <ele>480.458</ele>
        <time>2022-08-24T16:22:15Z</time>
      </trkpt>
      <trkpt lat="42.85776199999988" lon="-1.5779609999999966">
        <ele>481.052</ele>
        <time>2022-08-24T16:22:20Z</time>
      </trkpt>
      <trkpt lat="42.85773599999988" lon="-1.5779919999999965">
        <ele>481.217</ele>
        <time>2022-08-24T16:22:21Z</time>
      </trkpt>
      <trkpt lat="42.857709999999884" lon="-1.5780269999999965">
        <ele>481.209</ele>
        <time>2022-08-24T16:22:22Z</time>
      </trkpt>
      <trkpt lat="42.857683999999885" lon="-1.5780629999999964">
        <ele>481.256</ele>
        <time>2022-08-24T16:22:23Z</time>
      </trkpt>
      <trkpt lat="42.85765699999988" lon="-1.5780979999999964">
        <ele>481.496</ele>
        <time>2022-08-24T16:22:24Z</time>
      </trkpt>
      <trkpt lat="42.857630999999884" lon="-1.5781339999999964">
        <ele>481.466</ele>
        <time>2022-08-24T16:22:25Z</time>
      </trkpt>
      <trkpt lat="42.85760599999988" lon="-1.5781679999999965">
        <ele>481.842</ele>
        <time>2022-08-24T16:22:26Z</time>
      </trkpt>
      <trkpt lat="42.857579999999885" lon="-1.5782019999999966">
        <ele>482.054</ele>
        <time>2022-08-24T16:22:27Z</time>
      </trkpt>
      <trkpt lat="42.85755299999988" lon="-1.5782369999999966">
        <ele>482.081</ele>
        <time>2022-08-24T16:22:28Z</time>
      </trkpt>
      <trkpt lat="42.857526999999884" lon="-1.5782729999999965">
        <ele>482.234</ele>
        <time>2022-08-24T16:22:29Z</time>
      </trkpt>
      <trkpt lat="42.85749999999988" lon="-1.5783059999999964">
        <ele>482.288</ele>
        <time>2022-08-24T16:22:30Z</time>
      </trkpt>
      <trkpt lat="42.85747199999988" lon="-1.5783369999999963">
        <ele>482.467</ele>
        <time>2022-08-24T16:22:31Z</time>
      </trkpt>
      <trkpt lat="42.85744599999988" lon="-1.5783689999999964">
        <ele>482.458</ele>
        <time>2022-08-24T16:22:32Z</time>
      </trkpt>
      <trkpt lat="42.85742099999988" lon="-1.5784009999999964">
        <ele>482.852</ele>
        <time>2022-08-24T16:22:33Z</time>
      </trkpt>
      <trkpt lat="42.85739599999988" lon="-1.5784359999999964">
        <ele>483.017</ele>
        <time>2022-08-24T16:22:34Z</time>
      </trkpt>
      <trkpt lat="42.85736799999988" lon="-1.5784699999999965">
        <ele>483.009</ele>
        <time>2022-08-24T16:22:35Z</time>
      </trkpt>
      <trkpt lat="42.85733899999988" lon="-1.5785029999999964">
        <ele>483.276</ele>
        <time>2022-08-24T16:22:36Z</time>
      </trkpt>
      <trkpt lat="42.857309999999885" lon="-1.5785359999999964">
        <ele>483.266</ele>
        <time>2022-08-24T16:22:37Z</time>
      </trkpt>
      <trkpt lat="42.857281999999884" lon="-1.5785689999999963">
        <ele>483.456</ele>
        <time>2022-08-24T16:22:38Z</time>
      </trkpt>
      <trkpt lat="42.857253999999884" lon="-1.5786029999999964">
        <ele>483.442</ele>
        <time>2022-08-24T16:22:39Z</time>
      </trkpt>
      <trkpt lat="42.85722599999988" lon="-1.5786349999999965">
        <ele>483.634</ele>
        <time>2022-08-24T16:22:40Z</time>
      </trkpt>
      <trkpt lat="42.857196999999886" lon="-1.5786659999999963">
        <ele>483.641</ele>
        <time>2022-08-24T16:22:41Z</time>
      </trkpt>
      <trkpt lat="42.85716999999988" lon="-1.5787009999999964">
        <ele>483.834</ele>
        <time>2022-08-24T16:22:42Z</time>
      </trkpt>
      <trkpt lat="42.85714299999988" lon="-1.5787359999999964">
        <ele>484.068</ele>
        <time>2022-08-24T16:22:43Z</time>
      </trkpt>
      <trkpt lat="42.85711599999988" lon="-1.5787679999999964">
        <ele>484.247</ele>
        <time>2022-08-24T16:22:44Z</time>
      </trkpt>
      <trkpt lat="42.85708699999988" lon="-1.5787999999999964">
        <ele>484.233</ele>
        <time>2022-08-24T16:22:45Z</time>
      </trkpt>
      <trkpt lat="42.85705699999988" lon="-1.5788329999999964">
        <ele>484.423</ele>
        <time>2022-08-24T16:22:46Z</time>
      </trkpt>
      <trkpt lat="42.85702799999988" lon="-1.5788659999999963">
        <ele>484.415</ele>
        <time>2022-08-24T16:22:47Z</time>
      </trkpt>
      <trkpt lat="42.85699999999988" lon="-1.5788999999999964">
        <ele>484.609</ele>
        <time>2022-08-24T16:22:48Z</time>
      </trkpt>
      <trkpt lat="42.85697199999988" lon="-1.5789319999999964">
        <ele>484.674</ele>
        <time>2022-08-24T16:22:49Z</time>
      </trkpt>
      <trkpt lat="42.85694399999988" lon="-1.5789649999999964">
        <ele>484.884</ele>
        <time>2022-08-24T16:22:50Z</time>
      </trkpt>
      <trkpt lat="42.856916999999875" lon="-1.5789989999999965">
        <ele>484.824</ele>
        <time>2022-08-24T16:22:51Z</time>
      </trkpt>
      <trkpt lat="42.85688999999987" lon="-1.5790339999999965">
        <ele>485.060</ele>
        <time>2022-08-24T16:22:52Z</time>
      </trkpt>
      <trkpt lat="42.856860999999874" lon="-1.5790659999999965">
        <ele>485.032</ele>
        <time>2022-08-24T16:22:53Z</time>
      </trkpt>
      <trkpt lat="42.85683399999987" lon="-1.5790979999999966">
        <ele>485.099</ele>
        <time>2022-08-24T16:22:54Z</time>
      </trkpt>
      <trkpt lat="42.85680499999987" lon="-1.5791329999999966">
        <ele>485.242</ele>
        <time>2022-08-24T16:22:55Z</time>
      </trkpt>
      <trkpt lat="42.856775999999876" lon="-1.5791659999999965">
        <ele>485.496</ele>
        <time>2022-08-24T16:22:56Z</time>
      </trkpt>
      <trkpt lat="42.85674699999988" lon="-1.5791999999999966">
        <ele>485.485</ele>
        <time>2022-08-24T16:22:57Z</time>
      </trkpt>
      <trkpt lat="42.85671799999988" lon="-1.5792329999999966">
        <ele>485.448</ele>
        <time>2022-08-24T16:22:58Z</time>
      </trkpt>
      <trkpt lat="42.85669099999988" lon="-1.5792669999999966">
        <ele>485.861</ele>
        <time>2022-08-24T16:22:59Z</time>
      </trkpt>
      <trkpt lat="42.856663999999874" lon="-1.5793019999999967">
        <ele>485.817</ele>
        <time>2022-08-24T16:23:00Z</time>
      </trkpt>
      <trkpt lat="42.856634999999876" lon="-1.5793369999999967">
        <ele>486.009</ele>
        <time>2022-08-24T16:23:01Z</time>
      </trkpt>
      <trkpt lat="42.856606999999876" lon="-1.5793719999999967">
        <ele>486.055</ele>
        <time>2022-08-24T16:23:02Z</time>
      </trkpt>
      <trkpt lat="42.85657799999988" lon="-1.5794049999999966">
        <ele>486.045</ele>
        <time>2022-08-24T16:23:03Z</time>
      </trkpt>
      <trkpt lat="42.85654999999988" lon="-1.5794399999999966">
        <ele>486.235</ele>
        <time>2022-08-24T16:23:04Z</time>
      </trkpt>
      <trkpt lat="42.85652199999988" lon="-1.5794759999999965">
        <ele>486.271</ele>
        <time>2022-08-24T16:23:05Z</time>
      </trkpt>
      <trkpt lat="42.85649299999988" lon="-1.5795099999999966">
        <ele>486.433</ele>
        <time>2022-08-24T16:23:06Z</time>
      </trkpt>
      <trkpt lat="42.85646399999988" lon="-1.5795449999999966">
        <ele>486.630</ele>
        <time>2022-08-24T16:23:07Z</time>
      </trkpt>
      <trkpt lat="42.856431999999884" lon="-1.5795809999999966">
        <ele>486.633</ele>
        <time>2022-08-24T16:23:08Z</time>
      </trkpt>
      <trkpt lat="42.85640299999989" lon="-1.5796169999999965">
        <ele>486.697</ele>
        <time>2022-08-24T16:23:09Z</time>
      </trkpt>
      <trkpt lat="42.85637399999989" lon="-1.5796509999999966">
        <ele>486.666</ele>
        <time>2022-08-24T16:23:10Z</time>
      </trkpt>
      <trkpt lat="42.85617999999989" lon="-1.5798579999999967">
        <ele>486.845</ele>
        <time>2022-08-24T16:23:16Z</time>
      </trkpt>
      <trkpt lat="42.85614899999989" lon="-1.5798949999999967">
        <ele>486.847</ele>
        <time>2022-08-24T16:23:17Z</time>
      </trkpt>
      <trkpt lat="42.85605299999989" lon="-1.5800079999999967">
        <ele>487.011</ele>
        <time>2022-08-24T16:23:20Z</time>
      </trkpt>
      <trkpt lat="42.85585199999989" lon="-1.5802289999999968">
        <ele>487.009</ele>
        <time>2022-08-24T16:23:26Z</time>
      </trkpt>
      <trkpt lat="42.855712999999895" lon="-1.5803829999999968">
        <ele>487.235</ele>
        <time>2022-08-24T16:23:30Z</time>
      </trkpt>
      <trkpt lat="42.8552559999999" lon="-1.5808779999999967">
        <ele>486.865</ele>
        <time>2022-08-24T16:23:42Z</time>
      </trkpt>
      <trkpt lat="42.8548449999999" lon="-1.5813179999999967">
        <ele>486.065</ele>
        <time>2022-08-24T16:23:51Z</time>
      </trkpt>
      <trkpt lat="42.8546949999999" lon="-1.5814789999999967">
        <ele>485.241</ele>
        <time>2022-08-24T16:23:54Z</time>
      </trkpt>
      <trkpt lat="42.8543729999999" lon="-1.5818179999999968">
        <ele>484.283</ele>
        <time>2022-08-24T16:24:00Z</time>
      </trkpt>
      <trkpt lat="42.854315999999905" lon="-1.5818809999999968">
        <ele>483.870</ele>
        <time>2022-08-24T16:24:01Z</time>
      </trkpt>
      <trkpt lat="42.8541339999999" lon="-1.5820709999999967">
        <ele>483.033</ele>
        <time>2022-08-24T16:24:04Z</time>
      </trkpt>
      <trkpt lat="42.8539399999999" lon="-1.5822769999999966">
        <ele>482.267</ele>
        <time>2022-08-24T16:24:07Z</time>
      </trkpt>
      <trkpt lat="42.8538719999999" lon="-1.5823489999999967">
        <ele>481.836</ele>
        <time>2022-08-24T16:24:08Z</time>
      </trkpt>
      <trkpt lat="42.853803999999904" lon="-1.5824169999999966">
        <ele>481.429</ele>
        <time>2022-08-24T16:24:09Z</time>
      </trkpt>
      <trkpt lat="42.853735999999905" lon="-1.5824829999999965">
        <ele>481.000</ele>
        <time>2022-08-24T16:24:10Z</time>
      </trkpt>
      <trkpt lat="42.85366799999991" lon="-1.5825469999999966">
        <ele>480.420</ele>
        <time>2022-08-24T16:24:11Z</time>
      </trkpt>
      <trkpt lat="42.85360299999991" lon="-1.5826079999999967">
        <ele>480.209</ele>
        <time>2022-08-24T16:24:12Z</time>
      </trkpt>
      <trkpt lat="42.85346499999991" lon="-1.5827249999999966">
        <ele>479.483</ele>
        <time>2022-08-24T16:24:14Z</time>
      </trkpt>
      <trkpt lat="42.853319999999904" lon="-1.5828419999999965">
        <ele>478.243</ele>
        <time>2022-08-24T16:24:16Z</time>
      </trkpt>
      <trkpt lat="42.853164999999905" lon="-1.5829489999999966">
        <ele>476.883</ele>
        <time>2022-08-24T16:24:18Z</time>
      </trkpt>
      <trkpt lat="42.852927999999906" lon="-1.5830929999999965">
        <ele>475.639</ele>
        <time>2022-08-24T16:24:21Z</time>
      </trkpt>
      <trkpt lat="42.8527659999999" lon="-1.5831699999999966">
        <ele>474.261</ele>
        <time>2022-08-24T16:24:23Z</time>
      </trkpt>
      <trkpt lat="42.852683999999904" lon="-1.5832029999999966">
        <ele>474.068</ele>
        <time>2022-08-24T16:24:24Z</time>
      </trkpt>
      <trkpt lat="42.8526029999999" lon="-1.5832359999999965">
        <ele>473.271</ele>
        <time>2022-08-24T16:24:25Z</time>
      </trkpt>
      <trkpt lat="42.8525209999999" lon="-1.5832679999999966">
        <ele>473.045</ele>
        <time>2022-08-24T16:24:26Z</time>
      </trkpt>
      <trkpt lat="42.85244099999991" lon="-1.5832989999999965">
        <ele>472.224</ele>
        <time>2022-08-24T16:24:27Z</time>
      </trkpt>
      <trkpt lat="42.852359999999905" lon="-1.5833279999999965">
        <ele>471.832</ele>
        <time>2022-08-24T16:24:28Z</time>
      </trkpt>
      <trkpt lat="42.852280999999905" lon="-1.5833559999999964">
        <ele>471.292</ele>
        <time>2022-08-24T16:24:29Z</time>
      </trkpt>
      <trkpt lat="42.85220099999991" lon="-1.5833829999999964">
        <ele>470.811</ele>
        <time>2022-08-24T16:24:30Z</time>
      </trkpt>
      <trkpt lat="42.85212299999991" lon="-1.5834109999999963">
        <ele>470.609</ele>
        <time>2022-08-24T16:24:31Z</time>
      </trkpt>
      <trkpt lat="42.85204599999991" lon="-1.5834389999999963">
        <ele>470.244</ele>
        <time>2022-08-24T16:24:32Z</time>
      </trkpt>
      <trkpt lat="42.85196999999991" lon="-1.5834679999999963">
        <ele>470.054</ele>
        <time>2022-08-24T16:24:33Z</time>
      </trkpt>
      <trkpt lat="42.85189499999991" lon="-1.5834969999999964">
        <ele>469.664</ele>
        <time>2022-08-24T16:24:34Z</time>
      </trkpt>
      <trkpt lat="42.851819999999904" lon="-1.5835279999999963">
        <ele>469.420</ele>
        <time>2022-08-24T16:24:35Z</time>
      </trkpt>
      <trkpt lat="42.851746999999904" lon="-1.5835609999999962">
        <ele>469.082</ele>
        <time>2022-08-24T16:24:36Z</time>
      </trkpt>
      <trkpt lat="42.851675999999905" lon="-1.5835929999999963">
        <ele>468.629</ele>
        <time>2022-08-24T16:24:37Z</time>
      </trkpt>
      <trkpt lat="42.851605999999904" lon="-1.5836219999999963">
        <ele>468.482</ele>
        <time>2022-08-24T16:24:38Z</time>
      </trkpt>
      <trkpt lat="42.851534999999906" lon="-1.5836489999999963">
        <ele>468.016</ele>
        <time>2022-08-24T16:24:39Z</time>
      </trkpt>
      <trkpt lat="42.85146699999991" lon="-1.5836759999999963">
        <ele>468.235</ele>
        <time>2022-08-24T16:24:40Z</time>
      </trkpt>
      <trkpt lat="42.851399999999906" lon="-1.5837019999999964">
        <ele>468.035</ele>
        <time>2022-08-24T16:24:41Z</time>
      </trkpt>
      <trkpt lat="42.851335999999904" lon="-1.5837269999999963">
        <ele>467.886</ele>
        <time>2022-08-24T16:24:42Z</time>
      </trkpt>
      <trkpt lat="42.85127299999991" lon="-1.5837509999999964">
        <ele>467.814</ele>
        <time>2022-08-24T16:24:43Z</time>
      </trkpt>
      <trkpt lat="42.851211999999904" lon="-1.5837739999999965">
        <ele>467.609</ele>
        <time>2022-08-24T16:24:44Z</time>
      </trkpt>
      <trkpt lat="42.85115199999991" lon="-1.5837989999999964">
        <ele>467.634</ele>
        <time>2022-08-24T16:24:45Z</time>
      </trkpt>
      <trkpt lat="42.85109499999991" lon="-1.5838239999999963">
        <ele>467.684</ele>
        <time>2022-08-24T16:24:46Z</time>
      </trkpt>
      <trkpt lat="42.85103599999991" lon="-1.5838439999999963">
        <ele>467.454</ele>
        <time>2022-08-24T16:24:47Z</time>
      </trkpt>
      <trkpt lat="42.85097899999991" lon="-1.5838639999999962">
        <ele>467.270</ele>
        <time>2022-08-24T16:24:48Z</time>
      </trkpt>
      <trkpt lat="42.85093299999991" lon="-1.5838769999999962">
        <ele>467.272</ele>
        <time>2022-08-24T16:24:49Z</time>
      </trkpt>
      <trkpt lat="42.85086599999991" lon="-1.5838979999999963">
        <ele>467.249</ele>
        <time>2022-08-24T16:24:50Z</time>
      </trkpt>
      <trkpt lat="42.85080999999991" lon="-1.5839179999999962">
        <ele>467.292</ele>
        <time>2022-08-24T16:24:51Z</time>
      </trkpt>
      <trkpt lat="42.85075699999991" lon="-1.5839369999999962">
        <ele>467.046</ele>
        <time>2022-08-24T16:24:52Z</time>
      </trkpt>
      <trkpt lat="42.850701999999906" lon="-1.5839549999999962">
        <ele>467.055</ele>
        <time>2022-08-24T16:24:53Z</time>
      </trkpt>
      <trkpt lat="42.85064799999991" lon="-1.5839719999999962">
        <ele>467.061</ele>
        <time>2022-08-24T16:24:54Z</time>
      </trkpt>
      <trkpt lat="42.85059599999991" lon="-1.5839869999999963">
        <ele>467.021</ele>
        <time>2022-08-24T16:24:55Z</time>
      </trkpt>
      <trkpt lat="42.85054599999991" lon="-1.5840039999999962">
        <ele>467.013</ele>
        <time>2022-08-24T16:24:56Z</time>
      </trkpt>
      <trkpt lat="42.85049599999991" lon="-1.5840199999999962">
        <ele>467.009</ele>
        <time>2022-08-24T16:24:57Z</time>
      </trkpt>
      <trkpt lat="42.850445999999906" lon="-1.5840349999999963">
        <ele>467.027</ele>
        <time>2022-08-24T16:24:58Z</time>
      </trkpt>
      <trkpt lat="42.8501349999999" lon="-1.5841219999999963">
        <ele>466.487</ele>
        <time>2022-08-24T16:25:04Z</time>
      </trkpt>
      <trkpt lat="42.8498629999999" lon="-1.5841959999999962">
        <ele>466.477</ele>
        <time>2022-08-24T16:25:09Z</time>
      </trkpt>
      <trkpt lat="42.8497539999999" lon="-1.584223999999996">
        <ele>466.283</ele>
        <time>2022-08-24T16:25:11Z</time>
      </trkpt>
      <trkpt lat="42.8497009999999" lon="-1.584237999999996">
        <ele>466.235</ele>
        <time>2022-08-24T16:25:12Z</time>
      </trkpt>
      <trkpt lat="42.8495899999999" lon="-1.5842609999999961">
        <ele>466.242</ele>
        <time>2022-08-24T16:25:14Z</time>
      </trkpt>
      <trkpt lat="42.8495359999999" lon="-1.5842719999999961">
        <ele>466.285</ele>
        <time>2022-08-24T16:25:15Z</time>
      </trkpt>
      <trkpt lat="42.849483999999904" lon="-1.5842819999999962">
        <ele>466.299</ele>
        <time>2022-08-24T16:25:16Z</time>
      </trkpt>
      <trkpt lat="42.84932799999991" lon="-1.584320999999996">
        <ele>466.248</ele>
        <time>2022-08-24T16:25:19Z</time>
      </trkpt>
      <trkpt lat="42.84927599999991" lon="-1.5843339999999961">
        <ele>466.238</ele>
        <time>2022-08-24T16:25:20Z</time>
      </trkpt>
      <trkpt lat="42.84912499999991" lon="-1.5843759999999962">
        <ele>466.470</ele>
        <time>2022-08-24T16:25:23Z</time>
      </trkpt>
      <trkpt lat="42.84907499999991" lon="-1.5843899999999962">
        <ele>466.417</ele>
        <time>2022-08-24T16:25:24Z</time>
      </trkpt>
      <trkpt lat="42.84902599999991" lon="-1.5844049999999963">
        <ele>466.409</ele>
        <time>2022-08-24T16:25:25Z</time>
      </trkpt>
      <trkpt lat="42.84897499999991" lon="-1.5844209999999963">
        <ele>466.644</ele>
        <time>2022-08-24T16:25:26Z</time>
      </trkpt>
      <trkpt lat="42.84892499999991" lon="-1.5844359999999964">
        <ele>466.694</ele>
        <time>2022-08-24T16:25:27Z</time>
      </trkpt>
      <trkpt lat="42.84837899999991" lon="-1.5845939999999965">
        <ele>466.494</ele>
        <time>2022-08-24T16:25:38Z</time>
      </trkpt>
      <trkpt lat="42.84822299999991" lon="-1.5846449999999965">
        <ele>466.440</ele>
        <time>2022-08-24T16:25:41Z</time>
      </trkpt>
      <trkpt lat="42.84806299999991" lon="-1.5847119999999966">
        <ele>466.432</ele>
        <time>2022-08-24T16:25:44Z</time>
      </trkpt>
      <trkpt lat="42.84801199999991" lon="-1.5847339999999965">
        <ele>466.669</ele>
        <time>2022-08-24T16:25:45Z</time>
      </trkpt>
      <trkpt lat="42.84797299999991" lon="-1.5847539999999964">
        <ele>466.662</ele>
        <time>2022-08-24T16:25:46Z</time>
      </trkpt>
      <trkpt lat="42.84791399999991" lon="-1.5847829999999965">
        <ele>466.626</ele>
        <time>2022-08-24T16:25:47Z</time>
      </trkpt>
      <trkpt lat="42.84786599999991" lon="-1.5848069999999965">
        <ele>466.625</ele>
        <time>2022-08-24T16:25:48Z</time>
      </trkpt>
      <trkpt lat="42.84781899999991" lon="-1.5848329999999966">
        <ele>466.668</ele>
        <time>2022-08-24T16:25:49Z</time>
      </trkpt>
      <trkpt lat="42.84776899999991" lon="-1.5848579999999965">
        <ele>466.642</ele>
        <time>2022-08-24T16:25:50Z</time>
      </trkpt>
      <trkpt lat="42.84772099999991" lon="-1.5848819999999966">
        <ele>466.626</ele>
        <time>2022-08-24T16:25:51Z</time>
      </trkpt>
      <trkpt lat="42.84762499999991" lon="-1.5849329999999966">
        <ele>466.609</ele>
        <time>2022-08-24T16:25:53Z</time>
      </trkpt>
      <trkpt lat="42.84757699999991" lon="-1.5849579999999965">
        <ele>466.637</ele>
        <time>2022-08-24T16:25:54Z</time>
      </trkpt>
      <trkpt lat="42.84752899999991" lon="-1.5849829999999965">
        <ele>466.657</ele>
        <time>2022-08-24T16:25:55Z</time>
      </trkpt>
      <trkpt lat="42.84747999999991" lon="-1.5850059999999966">
        <ele>466.437</ele>
        <time>2022-08-24T16:25:56Z</time>
      </trkpt>
      <trkpt lat="42.847385999999915" lon="-1.5850519999999966">
        <ele>466.643</ele>
        <time>2022-08-24T16:25:58Z</time>
      </trkpt>
      <trkpt lat="42.846952999999914" lon="-1.5852569999999966">
        <ele>466.865</ele>
        <time>2022-08-24T16:26:07Z</time>
      </trkpt>
      <trkpt lat="42.846904999999914" lon="-1.5852789999999966">
        <ele>466.822</ele>
        <time>2022-08-24T16:26:08Z</time>
      </trkpt>
      <trkpt lat="42.846856999999915" lon="-1.5852989999999965">
        <ele>466.825</ele>
        <time>2022-08-24T16:26:09Z</time>
      </trkpt>
      <trkpt lat="42.846808999999915" lon="-1.5853179999999965">
        <ele>466.829</ele>
        <time>2022-08-24T16:26:10Z</time>
      </trkpt>
      <trkpt lat="42.846757999999916" lon="-1.5853379999999964">
        <ele>466.878</ele>
        <time>2022-08-24T16:26:11Z</time>
      </trkpt>
      <trkpt lat="42.84641099999992" lon="-1.5854789999999963">
        <ele>467.085</ele>
        <time>2022-08-24T16:26:18Z</time>
      </trkpt>
      <trkpt lat="42.84626199999992" lon="-1.5855369999999962">
        <ele>467.089</ele>
        <time>2022-08-24T16:26:21Z</time>
      </trkpt>
      <trkpt lat="42.84621599999992" lon="-1.5855599999999963">
        <ele>467.017</ele>
        <time>2022-08-24T16:26:22Z</time>
      </trkpt>
      <trkpt lat="42.84616699999992" lon="-1.5855809999999964">
        <ele>467.009</ele>
        <time>2022-08-24T16:26:23Z</time>
      </trkpt>
      <trkpt lat="42.84577299999992" lon="-1.5857579999999964">
        <ele>466.669</ele>
        <time>2022-08-24T16:26:31Z</time>
      </trkpt>
      <trkpt lat="42.845287999999925" lon="-1.5859799999999964">
        <ele>466.279</ele>
        <time>2022-08-24T16:26:40Z</time>
      </trkpt>
      <trkpt lat="42.84505799999992" lon="-1.5860689999999964">
        <ele>466.039</ele>
        <time>2022-08-24T16:26:44Z</time>
      </trkpt>
      <trkpt lat="42.84499999999992" lon="-1.5860919999999965">
        <ele>465.825</ele>
        <time>2022-08-24T16:26:45Z</time>
      </trkpt>
      <trkpt lat="42.84495599999992" lon="-1.5861089999999964">
        <ele>465.877</ele>
        <time>2022-08-24T16:26:46Z</time>
      </trkpt>
      <trkpt lat="42.84488999999992" lon="-1.5861339999999964">
        <ele>465.824</ele>
        <time>2022-08-24T16:26:47Z</time>
      </trkpt>
      <trkpt lat="42.84465199999992" lon="-1.5862169999999964">
        <ele>465.447</ele>
        <time>2022-08-24T16:26:51Z</time>
      </trkpt>
      <trkpt lat="42.84460299999992" lon="-1.5862329999999965">
        <ele>465.241</ele>
        <time>2022-08-24T16:26:52Z</time>
      </trkpt>
      <trkpt lat="42.84453199999992" lon="-1.5862569999999965">
        <ele>465.210</ele>
        <time>2022-08-24T16:26:53Z</time>
      </trkpt>
      <trkpt lat="42.84447399999992" lon="-1.5862779999999965">
        <ele>465.273</ele>
        <time>2022-08-24T16:26:54Z</time>
      </trkpt>
      <trkpt lat="42.84441599999992" lon="-1.5862969999999965">
        <ele>465.285</ele>
        <time>2022-08-24T16:26:55Z</time>
      </trkpt>
      <trkpt lat="42.84435699999992" lon="-1.5863149999999966">
        <ele>465.213</ele>
        <time>2022-08-24T16:26:56Z</time>
      </trkpt>
      <trkpt lat="42.844300999999916" lon="-1.5863339999999966">
        <ele>465.209</ele>
        <time>2022-08-24T16:26:57Z</time>
      </trkpt>
      <trkpt lat="42.84424599999991" lon="-1.5863509999999965">
        <ele>465.248</ele>
        <time>2022-08-24T16:26:58Z</time>
      </trkpt>
      <trkpt lat="42.844135999999914" lon="-1.5863809999999965">
        <ele>465.038</ele>
        <time>2022-08-24T16:27:00Z</time>
      </trkpt>
      <trkpt lat="42.844081999999915" lon="-1.5863939999999965">
        <ele>465.088</ele>
        <time>2022-08-24T16:27:01Z</time>
      </trkpt>
      <trkpt lat="42.84402699999991" lon="-1.5864069999999966">
        <ele>465.054</ele>
        <time>2022-08-24T16:27:02Z</time>
      </trkpt>
      <trkpt lat="42.84397199999991" lon="-1.5864189999999965">
        <ele>465.046</ele>
        <time>2022-08-24T16:27:03Z</time>
      </trkpt>
      <trkpt lat="42.84381199999991" lon="-1.5864569999999965">
        <ele>464.833</ele>
        <time>2022-08-24T16:27:06Z</time>
      </trkpt>
      <trkpt lat="42.843756999999904" lon="-1.5864689999999964">
        <ele>464.656</ele>
        <time>2022-08-24T16:27:07Z</time>
      </trkpt>
      <trkpt lat="42.843651999999906" lon="-1.5864929999999964">
        <ele>464.490</ele>
        <time>2022-08-24T16:27:09Z</time>
      </trkpt>
      <trkpt lat="42.843435999999905" lon="-1.5865259999999963">
        <ele>464.049</ele>
        <time>2022-08-24T16:27:13Z</time>
      </trkpt>
      <trkpt lat="42.843331999999904" lon="-1.5865419999999963">
        <ele>464.041</ele>
        <time>2022-08-24T16:27:15Z</time>
      </trkpt>
      <trkpt lat="42.84327999999991" lon="-1.5865499999999964">
        <ele>464.081</ele>
        <time>2022-08-24T16:27:16Z</time>
      </trkpt>
      <trkpt lat="42.84322599999991" lon="-1.5865579999999964">
        <ele>463.809</ele>
        <time>2022-08-24T16:27:17Z</time>
      </trkpt>
      <trkpt lat="42.84317399999991" lon="-1.5865639999999963">
        <ele>463.809</ele>
        <time>2022-08-24T16:27:18Z</time>
      </trkpt>
      <trkpt lat="42.843121999999916" lon="-1.5865689999999963">
        <ele>463.855</ele>
        <time>2022-08-24T16:27:19Z</time>
      </trkpt>
      <trkpt lat="42.843023999999915" lon="-1.5865849999999964">
        <ele>464.055</ele>
        <time>2022-08-24T16:27:21Z</time>
      </trkpt>
      <trkpt lat="42.842975999999915" lon="-1.5865929999999964">
        <ele>464.065</ele>
        <time>2022-08-24T16:27:22Z</time>
      </trkpt>
      <trkpt lat="42.842924999999916" lon="-1.5866009999999964">
        <ele>464.051</ele>
        <time>2022-08-24T16:27:23Z</time>
      </trkpt>
      <trkpt lat="42.84288699999991" lon="-1.5866079999999965">
        <ele>464.043</ele>
        <time>2022-08-24T16:27:24Z</time>
      </trkpt>
      <trkpt lat="42.84278299999991" lon="-1.5866209999999965">
        <ele>463.850</ele>
        <time>2022-08-24T16:27:26Z</time>
      </trkpt>
      <trkpt lat="42.84273599999991" lon="-1.5866259999999965">
        <ele>463.873</ele>
        <time>2022-08-24T16:27:27Z</time>
      </trkpt>
      <trkpt lat="42.84268899999991" lon="-1.5866329999999966">
        <ele>463.847</ele>
        <time>2022-08-24T16:27:28Z</time>
      </trkpt>
      <trkpt lat="42.84264299999991" lon="-1.5866399999999967">
        <ele>463.616</ele>
        <time>2022-08-24T16:27:29Z</time>
      </trkpt>
      <trkpt lat="42.84259499999991" lon="-1.5866459999999967">
        <ele>463.652</ele>
        <time>2022-08-24T16:27:30Z</time>
      </trkpt>
      <trkpt lat="42.84240699999991" lon="-1.5866669999999967">
        <ele>463.453</ele>
        <time>2022-08-24T16:27:34Z</time>
      </trkpt>
      <trkpt lat="42.84231599999991" lon="-1.5866799999999968">
        <ele>463.408</ele>
        <time>2022-08-24T16:27:36Z</time>
      </trkpt>
      <trkpt lat="42.84208299999991" lon="-1.5867179999999967">
        <ele>463.209</ele>
        <time>2022-08-24T16:27:41Z</time>
      </trkpt>
      <trkpt lat="42.84194299999991" lon="-1.5867379999999967">
        <ele>462.816</ele>
        <time>2022-08-24T16:27:44Z</time>
      </trkpt>
      <trkpt lat="42.84179599999991" lon="-1.5867649999999967">
        <ele>462.836</ele>
        <time>2022-08-24T16:27:47Z</time>
      </trkpt>
      <trkpt lat="42.84174799999991" lon="-1.5867729999999967">
        <ele>462.816</ele>
        <time>2022-08-24T16:27:48Z</time>
      </trkpt>
      <trkpt lat="42.84169999999991" lon="-1.5867779999999967">
        <ele>462.682</ele>
        <time>2022-08-24T16:27:49Z</time>
      </trkpt>
      <trkpt lat="42.84165399999991" lon="-1.5867799999999967">
        <ele>462.634</ele>
        <time>2022-08-24T16:27:50Z</time>
      </trkpt>
      <trkpt lat="42.84126899999991" lon="-1.5868329999999968">
        <ele>462.461</ele>
        <time>2022-08-24T16:27:58Z</time>
      </trkpt>
      <trkpt lat="42.84122099999991" lon="-1.5868419999999968">
        <ele>462.464</ele>
        <time>2022-08-24T16:27:59Z</time>
      </trkpt>
      <trkpt lat="42.841174999999915" lon="-1.5868499999999968">
        <ele>462.458</ele>
        <time>2022-08-24T16:28:00Z</time>
      </trkpt>
      <trkpt lat="42.84112799999991" lon="-1.5868579999999968">
        <ele>462.287</ele>
        <time>2022-08-24T16:28:01Z</time>
      </trkpt>
      <trkpt lat="42.84108099999991" lon="-1.5868689999999968">
        <ele>462.214</ele>
        <time>2022-08-24T16:28:02Z</time>
      </trkpt>
      <trkpt lat="42.84103699999991" lon="-1.5868809999999967">
        <ele>462.254</ele>
        <time>2022-08-24T16:28:03Z</time>
      </trkpt>
      <trkpt lat="42.84099699999991" lon="-1.5868919999999966">
        <ele>462.209</ele>
        <time>2022-08-24T16:28:04Z</time>
      </trkpt>
      <trkpt lat="42.840955999999906" lon="-1.5869029999999966">
        <ele>462.209</ele>
        <time>2022-08-24T16:28:05Z</time>
      </trkpt>
      <trkpt lat="42.84092199999991" lon="-1.5869129999999967">
        <ele>462.232</ele>
        <time>2022-08-24T16:28:06Z</time>
      </trkpt>
      <trkpt lat="42.84089599999991" lon="-1.5869189999999966">
        <ele>462.072</ele>
        <time>2022-08-24T16:28:07Z</time>
      </trkpt>
      <trkpt lat="42.84088499999991" lon="-1.5869199999999966">
        <ele>462.062</ele>
        <time>2022-08-24T16:28:08Z</time>
      </trkpt>
      <trkpt lat="42.84088499999991" lon="-1.5869199999999966">
        <ele>461.878</ele>
        <time>2022-08-24T16:28:09Z</time>
      </trkpt>
      <trkpt lat="42.84088499999991" lon="-1.5869199999999966">
        <ele>461.630</ele>
        <time>2022-08-24T16:28:12Z</time>
      </trkpt>
      <trkpt lat="42.84088499999991" lon="-1.5869199999999966">
        <ele>461.667</ele>
        <time>2022-08-24T16:28:13Z</time>
      </trkpt>
      <trkpt lat="42.84078099999991" lon="-1.5869569999999966">
        <ele>462.470</ele>
        <time>2022-08-24T16:35:35Z</time>
      </trkpt>
      <trkpt lat="42.84075499999991" lon="-1.5869679999999966">
        <ele>462.494</ele>
        <time>2022-08-24T16:35:37Z</time>
      </trkpt>
      <trkpt lat="42.84074999999991" lon="-1.5869769999999965">
        <ele>462.483</ele>
        <time>2022-08-24T16:35:38Z</time>
      </trkpt>
      <trkpt lat="42.84074599999991" lon="-1.5869839999999966">
        <ele>462.625</ele>
        <time>2022-08-24T16:35:39Z</time>
      </trkpt>
      <trkpt lat="42.84074199999991" lon="-1.5869959999999965">
        <ele>462.626</ele>
        <time>2022-08-24T16:35:40Z</time>
      </trkpt>
      <trkpt lat="42.84074199999991" lon="-1.5869959999999965">
        <ele>462.608</ele>
        <time>2022-08-24T16:35:41Z</time>
      </trkpt>
      <trkpt lat="42.84073099999991" lon="-1.5870219999999966">
        <ele>462.409</ele>
        <time>2022-08-24T16:35:42Z</time>
      </trkpt>
      <trkpt lat="42.84070699999991" lon="-1.5870639999999967">
        <ele>462.623</ele>
        <time>2022-08-24T16:35:44Z</time>
      </trkpt>
      <trkpt lat="42.840696999999906" lon="-1.5870839999999966">
        <ele>462.423</ele>
        <time>2022-08-24T16:35:45Z</time>
      </trkpt>
      <trkpt lat="42.84068799999991" lon="-1.5871119999999965">
        <ele>462.443</ele>
        <time>2022-08-24T16:35:47Z</time>
      </trkpt>
      <trkpt lat="42.84068399999991" lon="-1.5871209999999965">
        <ele>462.239</ele>
        <time>2022-08-24T16:35:48Z</time>
      </trkpt>
      <trkpt lat="42.84068499999991" lon="-1.5871309999999965">
        <ele>461.461</ele>
        <time>2022-08-24T16:37:36Z</time>
      </trkpt>
      <trkpt lat="42.840685999999906" lon="-1.5871359999999965">
        <ele>461.438</ele>
        <time>2022-08-24T16:37:37Z</time>
      </trkpt>
      <trkpt lat="42.84062899999991" lon="-1.5872549999999965">
        <ele>461.211</ele>
        <time>2022-08-24T16:37:41Z</time>
      </trkpt>
      <trkpt lat="42.840570999999905" lon="-1.5873369999999964">
        <ele>461.025</ele>
        <time>2022-08-24T16:37:44Z</time>
      </trkpt>
      <trkpt lat="42.840559999999904" lon="-1.5873599999999966">
        <ele>461.274</ele>
        <time>2022-08-24T16:37:45Z</time>
      </trkpt>
      <trkpt lat="42.8405489999999" lon="-1.5873829999999967">
        <ele>461.238</ele>
        <time>2022-08-24T16:37:46Z</time>
      </trkpt>
      <trkpt lat="42.840536999999905" lon="-1.5874049999999966">
        <ele>461.270</ele>
        <time>2022-08-24T16:37:47Z</time>
      </trkpt>
      <trkpt lat="42.84052499999991" lon="-1.5874289999999966">
        <ele>461.217</ele>
        <time>2022-08-24T16:37:48Z</time>
      </trkpt>
      <trkpt lat="42.840415999999905" lon="-1.5875909999999966">
        <ele>460.809</ele>
        <time>2022-08-24T16:37:55Z</time>
      </trkpt>
      <trkpt lat="42.8404029999999" lon="-1.5876119999999967">
        <ele>460.634</ele>
        <time>2022-08-24T16:37:56Z</time>
      </trkpt>
      <trkpt lat="42.8403889999999" lon="-1.5876389999999967">
        <ele>460.464</ele>
        <time>2022-08-24T16:37:57Z</time>
      </trkpt>
      <trkpt lat="42.840370999999905" lon="-1.5876659999999967">
        <ele>460.434</ele>
        <time>2022-08-24T16:37:58Z</time>
      </trkpt>
      <trkpt lat="42.840353999999905" lon="-1.5876879999999967">
        <ele>460.410</ele>
        <time>2022-08-24T16:37:59Z</time>
      </trkpt>
      <trkpt lat="42.8403409999999" lon="-1.5877049999999966">
        <ele>460.452</ele>
        <time>2022-08-24T16:38:00Z</time>
      </trkpt>
      <trkpt lat="42.8402999999999" lon="-1.5877799999999966">
        <ele>460.039</ele>
        <time>2022-08-24T16:38:03Z</time>
      </trkpt>
      <trkpt lat="42.8402829999999" lon="-1.5878039999999967">
        <ele>459.822</ele>
        <time>2022-08-24T16:38:04Z</time>
      </trkpt>
      <trkpt lat="42.8402619999999" lon="-1.5878309999999967">
        <ele>459.856</ele>
        <time>2022-08-24T16:38:05Z</time>
      </trkpt>
      <trkpt lat="42.840218999999905" lon="-1.5878959999999966">
        <ele>459.845</ele>
        <time>2022-08-24T16:38:07Z</time>
      </trkpt>
      <trkpt lat="42.840193999999904" lon="-1.5879539999999965">
        <ele>460.089</ele>
        <time>2022-08-24T16:38:09Z</time>
      </trkpt>
      <trkpt lat="42.8401809999999" lon="-1.5879749999999966">
        <ele>459.806</ele>
        <time>2022-08-24T16:38:10Z</time>
      </trkpt>
      <trkpt lat="42.8401529999999" lon="-1.5880219999999965">
        <ele>460.026</ele>
        <time>2022-08-24T16:38:12Z</time>
      </trkpt>
      <trkpt lat="42.8401029999999" lon="-1.5880989999999966">
        <ele>460.009</ele>
        <time>2022-08-24T16:38:15Z</time>
      </trkpt>
      <trkpt lat="42.8400309999999" lon="-1.5882069999999966">
        <ele>459.689</ele>
        <time>2022-08-24T16:38:19Z</time>
      </trkpt>
      <trkpt lat="42.840003999999894" lon="-1.5882659999999966">
        <ele>459.439</ele>
        <time>2022-08-24T16:38:21Z</time>
      </trkpt>
      <trkpt lat="42.83993099999989" lon="-1.5883959999999966">
        <ele>459.299</ele>
        <time>2022-08-24T16:38:25Z</time>
      </trkpt>
      <trkpt lat="42.839913999999894" lon="-1.5884249999999966">
        <ele>459.455</ele>
        <time>2022-08-24T16:38:26Z</time>
      </trkpt>
      <trkpt lat="42.839890999999895" lon="-1.5884499999999966">
        <ele>459.237</ele>
        <time>2022-08-24T16:38:27Z</time>
      </trkpt>
      <trkpt lat="42.8398649999999" lon="-1.5884729999999967">
        <ele>459.224</ele>
        <time>2022-08-24T16:38:28Z</time>
      </trkpt>
      <trkpt lat="42.8397539999999" lon="-1.5886309999999968">
        <ele>459.217</ele>
        <time>2022-08-24T16:38:33Z</time>
      </trkpt>
      <trkpt lat="42.839729999999896" lon="-1.5886629999999968">
        <ele>459.251</ele>
        <time>2022-08-24T16:38:34Z</time>
      </trkpt>
      <trkpt lat="42.8396759999999" lon="-1.5887259999999968">
        <ele>459.260</ele>
        <time>2022-08-24T16:38:37Z</time>
      </trkpt>
      <trkpt lat="42.8396309999999" lon="-1.5887339999999968">
        <ele>459.238</ele>
        <time>2022-08-24T16:38:38Z</time>
      </trkpt>
      <trkpt lat="42.8395689999999" lon="-1.5887459999999967">
        <ele>459.270</ele>
        <time>2022-08-24T16:38:39Z</time>
      </trkpt>
      <trkpt lat="42.8395089999999" lon="-1.5887689999999968">
        <ele>459.217</ele>
        <time>2022-08-24T16:38:40Z</time>
      </trkpt>
      <trkpt lat="42.8394599999999" lon="-1.5887949999999968">
        <ele>459.209</ele>
        <time>2022-08-24T16:38:41Z</time>
      </trkpt>
      <trkpt lat="42.839419999999905" lon="-1.5888149999999968">
        <ele>459.234</ele>
        <time>2022-08-24T16:38:42Z</time>
      </trkpt>
      <trkpt lat="42.8391559999999" lon="-1.5890049999999967">
        <ele>458.674</ele>
        <time>2022-08-24T16:38:48Z</time>
      </trkpt>
      <trkpt lat="42.8390719999999" lon="-1.5890859999999967">
        <ele>458.064</ele>
        <time>2022-08-24T16:38:50Z</time>
      </trkpt>
      <trkpt lat="42.8388469999999" lon="-1.5892249999999966">
        <ele>457.660</ele>
        <time>2022-08-24T16:38:55Z</time>
      </trkpt>
      <trkpt lat="42.838690999999905" lon="-1.5893509999999966">
        <ele>457.622</ele>
        <time>2022-08-24T16:38:59Z</time>
      </trkpt>
      <trkpt lat="42.838648999999904" lon="-1.5893879999999967">
        <ele>457.679</ele>
        <time>2022-08-24T16:39:00Z</time>
      </trkpt>
      <trkpt lat="42.838605999999906" lon="-1.5894269999999966">
        <ele>457.612</ele>
        <time>2022-08-24T16:39:01Z</time>
      </trkpt>
      <trkpt lat="42.8385679999999" lon="-1.5894639999999967">
        <ele>457.616</ele>
        <time>2022-08-24T16:39:02Z</time>
      </trkpt>
      <trkpt lat="42.8385269999999" lon="-1.5894999999999966">
        <ele>457.465</ele>
        <time>2022-08-24T16:39:03Z</time>
      </trkpt>
      <trkpt lat="42.8382399999999" lon="-1.5897409999999965">
        <ele>457.261</ele>
        <time>2022-08-24T16:39:10Z</time>
      </trkpt>
      <trkpt lat="42.8379859999999" lon="-1.5899569999999965">
        <ele>456.421</ele>
        <time>2022-08-24T16:39:15Z</time>
      </trkpt>
      <trkpt lat="42.8379439999999" lon="-1.5899969999999966">
        <ele>456.213</ele>
        <time>2022-08-24T16:39:16Z</time>
      </trkpt>
      <trkpt lat="42.8379049999999" lon="-1.5900359999999965">
        <ele>456.009</ele>
        <time>2022-08-24T16:39:17Z</time>
      </trkpt>
      <trkpt lat="42.8378699999999" lon="-1.5900739999999964">
        <ele>456.037</ele>
        <time>2022-08-24T16:39:18Z</time>
      </trkpt>
      <trkpt lat="42.837829999999904" lon="-1.5901049999999963">
        <ele>455.847</ele>
        <time>2022-08-24T16:39:19Z</time>
      </trkpt>
      <trkpt lat="42.837786999999906" lon="-1.5901319999999963">
        <ele>455.687</ele>
        <time>2022-08-24T16:39:20Z</time>
      </trkpt>
      <trkpt lat="42.837747999999905" lon="-1.5901589999999963">
        <ele>455.613</ele>
        <time>2022-08-24T16:39:21Z</time>
      </trkpt>
      <trkpt lat="42.837626999999905" lon="-1.5902159999999963">
        <ele>455.695</ele>
        <time>2022-08-24T16:39:24Z</time>
      </trkpt>
      <trkpt lat="42.83752799999991" lon="-1.5902469999999962">
        <ele>455.472</ele>
        <time>2022-08-24T16:39:26Z</time>
      </trkpt>
      <trkpt lat="42.83748199999991" lon="-1.5902619999999963">
        <ele>455.495</ele>
        <time>2022-08-24T16:39:27Z</time>
      </trkpt>
      <trkpt lat="42.83743899999991" lon="-1.5902789999999962">
        <ele>455.449</ele>
        <time>2022-08-24T16:39:28Z</time>
      </trkpt>
      <trkpt lat="42.83735099999991" lon="-1.5903179999999961">
        <ele>455.698</ele>
        <time>2022-08-24T16:39:30Z</time>
      </trkpt>
      <trkpt lat="42.83731199999991" lon="-1.590328999999996">
        <ele>455.646</ele>
        <time>2022-08-24T16:39:31Z</time>
      </trkpt>
      <trkpt lat="42.83727499999991" lon="-1.590334999999996">
        <ele>455.688</ele>
        <time>2022-08-24T16:39:32Z</time>
      </trkpt>
      <trkpt lat="42.83723899999991" lon="-1.5903339999999961">
        <ele>455.816</ele>
        <time>2022-08-24T16:39:33Z</time>
      </trkpt>
      <trkpt lat="42.837203999999915" lon="-1.5903299999999962">
        <ele>455.809</ele>
        <time>2022-08-24T16:39:34Z</time>
      </trkpt>
      <trkpt lat="42.837203999999915" lon="-1.5903299999999962">
        <ele>455.875</ele>
        <time>2022-08-24T16:39:35Z</time>
      </trkpt>
      <trkpt lat="42.837124999999915" lon="-1.5903379999999963">
        <ele>455.815</ele>
        <time>2022-08-24T16:39:36Z</time>
      </trkpt>
      <trkpt lat="42.837124999999915" lon="-1.5903379999999963">
        <ele>455.855</ele>
        <time>2022-08-24T16:39:37Z</time>
      </trkpt>
      <trkpt lat="42.837079999999915" lon="-1.5903459999999963">
        <ele>455.811</ele>
        <time>2022-08-24T16:39:38Z</time>
      </trkpt>
      <trkpt lat="42.83703699999992" lon="-1.5903519999999962">
        <ele>455.833</ele>
        <time>2022-08-24T16:39:39Z</time>
      </trkpt>
      <trkpt lat="42.836995999999914" lon="-1.5903609999999961">
        <ele>455.810</ele>
        <time>2022-08-24T16:39:40Z</time>
      </trkpt>
      <trkpt lat="42.83690699999991" lon="-1.5903709999999962">
        <ele>455.853</ele>
        <time>2022-08-24T16:39:41Z</time>
      </trkpt>
      <trkpt lat="42.836860999999914" lon="-1.5903759999999962">
        <ele>455.637</ele>
        <time>2022-08-24T16:39:42Z</time>
      </trkpt>
      <trkpt lat="42.836817999999916" lon="-1.5903849999999962">
        <ele>455.616</ele>
        <time>2022-08-24T16:39:44Z</time>
      </trkpt>
      <trkpt lat="42.836730999999915" lon="-1.5904059999999962">
        <ele>455.625</ele>
        <time>2022-08-24T16:39:45Z</time>
      </trkpt>
      <trkpt lat="42.83669099999992" lon="-1.5904109999999962">
        <ele>455.626</ele>
        <time>2022-08-24T16:39:46Z</time>
      </trkpt>
      <trkpt lat="42.83669099999992" lon="-1.5904109999999962">
        <ele>455.608</ele>
        <time>2022-08-24T16:39:47Z</time>
      </trkpt>
      <trkpt lat="42.83653599999992" lon="-1.5904069999999964">
        <ele>455.609</ele>
        <time>2022-08-24T16:39:50Z</time>
      </trkpt>
      <trkpt lat="42.83649299999992" lon="-1.5904009999999964">
        <ele>455.663</ele>
        <time>2022-08-24T16:39:51Z</time>
      </trkpt>
      <trkpt lat="42.83644899999992" lon="-1.5903959999999964">
        <ele>455.453</ele>
        <time>2022-08-24T16:39:53Z</time>
      </trkpt>
      <trkpt lat="42.83636899999992" lon="-1.5903769999999964">
        <ele>455.473</ele>
        <time>2022-08-24T16:39:54Z</time>
      </trkpt>
      <trkpt lat="42.83633699999992" lon="-1.5903669999999963">
        <ele>455.429</ele>
        <time>2022-08-24T16:39:55Z</time>
      </trkpt>
      <trkpt lat="42.836183999999925" lon="-1.5903329999999962">
        <ele>455.451</ele>
        <time>2022-08-24T16:39:59Z</time>
      </trkpt>
      <trkpt lat="42.836146999999926" lon="-1.5903289999999963">
        <ele>455.468</ele>
        <time>2022-08-24T16:40:00Z</time>
      </trkpt>
      <trkpt lat="42.83610999999993" lon="-1.5903259999999964">
        <ele>455.491</ele>
        <time>2022-08-24T16:40:01Z</time>
      </trkpt>
      <trkpt lat="42.83607799999993" lon="-1.5903209999999963">
        <ele>455.485</ele>
        <time>2022-08-24T16:40:02Z</time>
      </trkpt>
      <trkpt lat="42.83598499999993" lon="-1.5903009999999964">
        <ele>455.494</ele>
        <time>2022-08-24T16:40:05Z</time>
      </trkpt>
      <trkpt lat="42.83589699999993" lon="-1.5902759999999965">
        <ele>455.621</ele>
        <time>2022-08-24T16:40:07Z</time>
      </trkpt>
      <trkpt lat="42.835861999999935" lon="-1.5902639999999966">
        <ele>455.641</ele>
        <time>2022-08-24T16:40:08Z</time>
      </trkpt>
      <trkpt lat="42.835836999999934" lon="-1.5902589999999965">
        <ele>455.605</ele>
        <time>2022-08-24T16:40:09Z</time>
      </trkpt>
      <trkpt lat="42.835810999999936" lon="-1.5902519999999964">
        <ele>455.809</ele>
        <time>2022-08-24T16:40:10Z</time>
      </trkpt>
      <trkpt lat="42.835788999999934" lon="-1.5902419999999964">
        <ele>455.823</ele>
        <time>2022-08-24T16:40:11Z</time>
      </trkpt>
      <trkpt lat="42.83576699999993" lon="-1.5902299999999965">
        <ele>455.823</ele>
        <time>2022-08-24T16:40:12Z</time>
      </trkpt>
      <trkpt lat="42.83571999999993" lon="-1.5902099999999966">
        <ele>455.853</ele>
        <time>2022-08-24T16:40:15Z</time>
      </trkpt>
      <trkpt lat="42.83556999999993" lon="-1.5901279999999967">
        <ele>455.869</ele>
        <time>2022-08-24T16:40:19Z</time>
      </trkpt>
      <trkpt lat="42.83553699999993" lon="-1.5901069999999966">
        <ele>455.861</ele>
        <time>2022-08-24T16:40:20Z</time>
      </trkpt>
      <trkpt lat="42.83550399999993" lon="-1.5900839999999965">
        <ele>455.678</ele>
        <time>2022-08-24T16:40:21Z</time>
      </trkpt>
      <trkpt lat="42.83547199999993" lon="-1.5900559999999966">
        <ele>455.661</ele>
        <time>2022-08-24T16:40:22Z</time>
      </trkpt>
      <trkpt lat="42.83543599999993" lon="-1.5900289999999966">
        <ele>455.635</ele>
        <time>2022-08-24T16:40:24Z</time>
      </trkpt>
      <trkpt lat="42.83533399999993" lon="-1.5899429999999966">
        <ele>455.464</ele>
        <time>2022-08-24T16:40:26Z</time>
      </trkpt>
      <trkpt lat="42.83533399999993" lon="-1.5899429999999966">
        <ele>455.443</ele>
        <time>2022-08-24T16:40:27Z</time>
      </trkpt>
      <trkpt lat="42.835307999999934" lon="-1.5899019999999966">
        <ele>455.464</ele>
        <time>2022-08-24T16:40:28Z</time>
      </trkpt>
      <trkpt lat="42.83528399999993" lon="-1.5898559999999966">
        <ele>455.210</ele>
        <time>2022-08-24T16:40:29Z</time>
      </trkpt>
      <trkpt lat="42.83525599999993" lon="-1.5898039999999967">
        <ele>455.209</ele>
        <time>2022-08-24T16:40:30Z</time>
      </trkpt>
      <trkpt lat="42.83521199999993" lon="-1.5897169999999967">
        <ele>455.255</ele>
        <time>2022-08-24T16:40:31Z</time>
      </trkpt>
      <trkpt lat="42.83518299999993" lon="-1.5896319999999968">
        <ele>455.045</ele>
        <time>2022-08-24T16:40:33Z</time>
      </trkpt>
      <trkpt lat="42.83507499999993" lon="-1.5894209999999969">
        <ele>455.075</ele>
        <time>2022-08-24T16:40:38Z</time>
      </trkpt>
      <trkpt lat="42.835059999999935" lon="-1.5893829999999969">
        <ele>455.221</ele>
        <time>2022-08-24T16:40:39Z</time>
      </trkpt>
      <trkpt lat="42.835022999999936" lon="-1.5893329999999968">
        <ele>455.223</ele>
        <time>2022-08-24T16:40:40Z</time>
      </trkpt>
      <trkpt lat="42.834986999999934" lon="-1.5892869999999968">
        <ele>455.210</ele>
        <time>2022-08-24T16:40:42Z</time>
      </trkpt>
      <trkpt lat="42.83493399999993" lon="-1.5891899999999968">
        <ele>455.283</ele>
        <time>2022-08-24T16:40:43Z</time>
      </trkpt>
      <trkpt lat="42.834896999999934" lon="-1.5891079999999969">
        <ele>455.437</ele>
        <time>2022-08-24T16:40:45Z</time>
      </trkpt>
      <trkpt lat="42.83485799999993" lon="-1.5890199999999968">
        <ele>455.256</ele>
        <time>2022-08-24T16:40:47Z</time>
      </trkpt>
      <trkpt lat="42.83483399999993" lon="-1.5889769999999968">
        <ele>455.298</ele>
        <time>2022-08-24T16:40:48Z</time>
      </trkpt>
      <trkpt lat="42.83483399999993" lon="-1.5889769999999968">
        <ele>455.215</ele>
        <time>2022-08-24T16:40:49Z</time>
      </trkpt>
      <trkpt lat="42.83479299999993" lon="-1.5888959999999968">
        <ele>455.226</ele>
        <time>2022-08-24T16:40:50Z</time>
      </trkpt>
      <trkpt lat="42.83479299999993" lon="-1.5888959999999968">
        <ele>455.009</ele>
        <time>2022-08-24T16:40:51Z</time>
      </trkpt>
      <trkpt lat="42.83474699999993" lon="-1.5888229999999968">
        <ele>455.080</ele>
        <time>2022-08-24T16:40:52Z</time>
      </trkpt>
      <trkpt lat="42.83472499999993" lon="-1.5887859999999967">
        <ele>455.030</ele>
        <time>2022-08-24T16:40:53Z</time>
      </trkpt>
      <trkpt lat="42.83469899999993" lon="-1.5887459999999967">
        <ele>455.060</ele>
        <time>2022-08-24T16:40:54Z</time>
      </trkpt>
      <trkpt lat="42.83468099999993" lon="-1.5887209999999967">
        <ele>455.086</ele>
        <time>2022-08-24T16:40:55Z</time>
      </trkpt>
      <trkpt lat="42.83465699999993" lon="-1.5886909999999967">
        <ele>455.068</ele>
        <time>2022-08-24T16:40:56Z</time>
      </trkpt>
      <trkpt lat="42.83463399999993" lon="-1.5886579999999968">
        <ele>455.045</ele>
        <time>2022-08-24T16:40:57Z</time>
      </trkpt>
      <trkpt lat="42.83458499999993" lon="-1.5885779999999967">
        <ele>454.848</ele>
        <time>2022-08-24T16:40:59Z</time>
      </trkpt>
      <trkpt lat="42.834507999999936" lon="-1.5884709999999966">
        <ele>454.822</ele>
        <time>2022-08-24T16:41:02Z</time>
      </trkpt>
      <trkpt lat="42.834378999999934" lon="-1.5883039999999966">
        <ele>454.481</ele>
        <time>2022-08-24T16:41:06Z</time>
      </trkpt>
      <trkpt lat="42.834307999999936" lon="-1.5881819999999967">
        <ele>454.069</ele>
        <time>2022-08-24T16:41:08Z</time>
      </trkpt>
      <trkpt lat="42.834279999999936" lon="-1.5881249999999967">
        <ele>453.804</ele>
        <time>2022-08-24T16:41:09Z</time>
      </trkpt>
      <trkpt lat="42.83425399999994" lon="-1.5880739999999967">
        <ele>453.624</ele>
        <time>2022-08-24T16:41:10Z</time>
      </trkpt>
      <trkpt lat="42.83422799999994" lon="-1.5880229999999966">
        <ele>453.609</ele>
        <time>2022-08-24T16:41:11Z</time>
      </trkpt>
      <trkpt lat="42.83422799999994" lon="-1.5880229999999966">
        <ele>453.487</ele>
        <time>2022-08-24T16:41:12Z</time>
      </trkpt>
      <trkpt lat="42.83420299999994" lon="-1.5879749999999966">
        <ele>453.477</ele>
        <time>2022-08-24T16:41:13Z</time>
      </trkpt>
      <trkpt lat="42.83416399999994" lon="-1.5878929999999967">
        <ele>453.467</ele>
        <time>2022-08-24T16:41:14Z</time>
      </trkpt>
      <trkpt lat="42.83416399999994" lon="-1.5878929999999967">
        <ele>453.433</ele>
        <time>2022-08-24T16:41:15Z</time>
      </trkpt>
      <trkpt lat="42.83414599999994" lon="-1.5878499999999967">
        <ele>453.465</ele>
        <time>2022-08-24T16:41:16Z</time>
      </trkpt>
      <trkpt lat="42.83412399999994" lon="-1.5878069999999966">
        <ele>453.492</ele>
        <time>2022-08-24T16:41:17Z</time>
      </trkpt>
      <trkpt lat="42.834079999999936" lon="-1.5877249999999967">
        <ele>453.435</ele>
        <time>2022-08-24T16:41:18Z</time>
      </trkpt>
      <trkpt lat="42.834060999999934" lon="-1.5876899999999967">
        <ele>453.489</ele>
        <time>2022-08-24T16:41:20Z</time>
      </trkpt>
      <trkpt lat="42.83402599999994" lon="-1.5876189999999968">
        <ele>453.478</ele>
        <time>2022-08-24T16:41:21Z</time>
      </trkpt>
      <trkpt lat="42.83400599999994" lon="-1.5875819999999967">
        <ele>453.466</ele>
        <time>2022-08-24T16:41:22Z</time>
      </trkpt>
      <trkpt lat="42.83398399999994" lon="-1.5875459999999968">
        <ele>453.429</ele>
        <time>2022-08-24T16:41:23Z</time>
      </trkpt>
      <trkpt lat="42.83396999999994" lon="-1.5875199999999967">
        <ele>453.221</ele>
        <time>2022-08-24T16:41:24Z</time>
      </trkpt>
      <trkpt lat="42.833958999999936" lon="-1.5874959999999967">
        <ele>453.209</ele>
        <time>2022-08-24T16:41:25Z</time>
      </trkpt>
      <trkpt lat="42.833947999999936" lon="-1.5874739999999967">
        <ele>453.427</ele>
        <time>2022-08-24T16:41:26Z</time>
      </trkpt>
      <trkpt lat="42.83393599999994" lon="-1.5874539999999968">
        <ele>453.427</ele>
        <time>2022-08-24T16:41:27Z</time>
      </trkpt>
      <trkpt lat="42.833925999999934" lon="-1.5874399999999969">
        <ele>453.457</ele>
        <time>2022-08-24T16:41:28Z</time>
      </trkpt>
      <trkpt lat="42.833911999999934" lon="-1.5874209999999969">
        <ele>453.483</ele>
        <time>2022-08-24T16:41:29Z</time>
      </trkpt>
      <trkpt lat="42.833902999999935" lon="-1.5874019999999969">
        <ele>453.485</ele>
        <time>2022-08-24T16:41:30Z</time>
      </trkpt>
      <trkpt lat="42.833877999999935" lon="-1.587368999999997">
        <ele>453.412</ele>
        <time>2022-08-24T16:41:32Z</time>
      </trkpt>
      <trkpt lat="42.83386799999993" lon="-1.587352999999997">
        <ele>453.225</ele>
        <time>2022-08-24T16:41:37Z</time>
      </trkpt>
      <trkpt lat="42.83382999999993" lon="-1.587306999999997">
        <ele>453.289</ele>
        <time>2022-08-24T16:41:40Z</time>
      </trkpt>
      <trkpt lat="42.83380699999993" lon="-1.587289999999997">
        <ele>453.068</ele>
        <time>2022-08-24T16:41:41Z</time>
      </trkpt>
      <trkpt lat="42.83368899999993" lon="-1.587194999999997">
        <ele>452.685</ele>
        <time>2022-08-24T16:41:45Z</time>
      </trkpt>
      <trkpt lat="42.83360099999993" lon="-1.587062999999997">
        <ele>452.489</ele>
        <time>2022-08-24T16:41:48Z</time>
      </trkpt>
      <trkpt lat="42.83357799999993" lon="-1.587017999999997">
        <ele>452.417</ele>
        <time>2022-08-24T16:41:49Z</time>
      </trkpt>
      <trkpt lat="42.83357799999993" lon="-1.587017999999997">
        <ele>452.209</ele>
        <time>2022-08-24T16:41:50Z</time>
      </trkpt>
      <trkpt lat="42.83349699999993" lon="-1.586873999999997">
        <ele>452.279</ele>
        <time>2022-08-24T16:41:52Z</time>
      </trkpt>
      <trkpt lat="42.83347299999993" lon="-1.586829999999997">
        <ele>452.089</ele>
        <time>2022-08-24T16:41:53Z</time>
      </trkpt>
      <trkpt lat="42.83344999999993" lon="-1.5867889999999971">
        <ele>452.069</ele>
        <time>2022-08-24T16:41:54Z</time>
      </trkpt>
      <trkpt lat="42.83342799999993" lon="-1.586740999999997">
        <ele>452.035</ele>
        <time>2022-08-24T16:41:55Z</time>
      </trkpt>
      <trkpt lat="42.83341099999993" lon="-1.586700999999997">
        <ele>452.057</ele>
        <time>2022-08-24T16:41:56Z</time>
      </trkpt>
      <trkpt lat="42.833394999999925" lon="-1.586664999999997">
        <ele>451.824</ele>
        <time>2022-08-24T16:41:57Z</time>
      </trkpt>
      <trkpt lat="42.833371999999926" lon="-1.586613999999997">
        <ele>451.867</ele>
        <time>2022-08-24T16:41:58Z</time>
      </trkpt>
      <trkpt lat="42.83335399999993" lon="-1.586565999999997">
        <ele>451.861</ele>
        <time>2022-08-24T16:41:59Z</time>
      </trkpt>
      <trkpt lat="42.83334699999993" lon="-1.586523999999997">
        <ele>452.030</ele>
        <time>2022-08-24T16:42:00Z</time>
      </trkpt>
      <trkpt lat="42.83334099999993" lon="-1.586482999999997">
        <ele>452.014</ele>
        <time>2022-08-24T16:42:01Z</time>
      </trkpt>
      <trkpt lat="42.833336999999936" lon="-1.586452999999997">
        <ele>452.054</ele>
        <time>2022-08-24T16:42:02Z</time>
      </trkpt>
      <trkpt lat="42.83333399999994" lon="-1.586423999999997">
        <ele>452.209</ele>
        <time>2022-08-24T16:42:03Z</time>
      </trkpt>
      <trkpt lat="42.833323999999934" lon="-1.586399999999997">
        <ele>452.409</ele>
        <time>2022-08-24T16:42:04Z</time>
      </trkpt>
      <trkpt lat="42.833317999999935" lon="-1.586375999999997">
        <ele>452.672</ele>
        <time>2022-08-24T16:42:05Z</time>
      </trkpt>
      <trkpt lat="42.83329599999993" lon="-1.586355999999997">
        <ele>452.872</ele>
        <time>2022-08-24T16:42:06Z</time>
      </trkpt>
      <trkpt lat="42.833275999999934" lon="-1.586348999999997">
        <ele>453.032</ele>
        <time>2022-08-24T16:42:07Z</time>
      </trkpt>
      <trkpt lat="42.83323499999993" lon="-1.586334999999997">
        <ele>453.438</ele>
        <time>2022-08-24T16:42:09Z</time>
      </trkpt>
      <trkpt lat="42.83321199999993" lon="-1.586329999999997">
        <ele>453.620</ele>
        <time>2022-08-24T16:42:10Z</time>
      </trkpt>
      <trkpt lat="42.83318699999993" lon="-1.586329999999997">
        <ele>453.657</ele>
        <time>2022-08-24T16:42:11Z</time>
      </trkpt>
      <trkpt lat="42.83312799999993" lon="-1.586328999999997">
        <ele>453.840</ele>
        <time>2022-08-24T16:42:13Z</time>
      </trkpt>
      <trkpt lat="42.83310299999993" lon="-1.586323999999997">
        <ele>453.824</ele>
        <time>2022-08-24T16:42:14Z</time>
      </trkpt>
      <trkpt lat="42.83308099999993" lon="-1.586317999999997">
        <ele>453.863</ele>
        <time>2022-08-24T16:42:15Z</time>
      </trkpt>
      <trkpt lat="42.83305799999993" lon="-1.586310999999997">
        <ele>453.847</ele>
        <time>2022-08-24T16:42:16Z</time>
      </trkpt>
      <trkpt lat="42.83303999999993" lon="-1.586302999999997">
        <ele>453.829</ele>
        <time>2022-08-24T16:42:17Z</time>
      </trkpt>
      <trkpt lat="42.83303999999993" lon="-1.586302999999997">
        <ele>453.821</ele>
        <time>2022-08-24T16:42:18Z</time>
      </trkpt>
      <trkpt lat="42.83300699999993" lon="-1.586286999999997">
        <ele>453.609</ele>
        <time>2022-08-24T16:42:19Z</time>
      </trkpt>
      <trkpt lat="42.83298699999993" lon="-1.5862789999999969">
        <ele>453.635</ele>
        <time>2022-08-24T16:42:20Z</time>
      </trkpt>
      <trkpt lat="42.832926999999934" lon="-1.586242999999997">
        <ele>453.445</ele>
        <time>2022-08-24T16:42:24Z</time>
      </trkpt>
      <trkpt lat="42.832821999999936" lon="-1.586184999999997">
        <ele>453.285</ele>
        <time>2022-08-24T16:42:27Z</time>
      </trkpt>
      <trkpt lat="42.832650999999935" lon="-1.5860979999999971">
        <ele>453.061</ele>
        <time>2022-08-24T16:42:33Z</time>
      </trkpt>
      <trkpt lat="42.83261199999993" lon="-1.586095999999997">
        <ele>452.863</ele>
        <time>2022-08-24T16:42:34Z</time>
      </trkpt>
      <trkpt lat="42.83257599999993" lon="-1.586107999999997">
        <ele>452.680</ele>
        <time>2022-08-24T16:42:35Z</time>
      </trkpt>
      <trkpt lat="42.832523999999935" lon="-1.5861659999999969">
        <ele>452.433</ele>
        <time>2022-08-24T16:42:36Z</time>
      </trkpt>
      <trkpt lat="42.832509999999935" lon="-1.5862089999999969">
        <ele>452.287</ele>
        <time>2022-08-24T16:42:37Z</time>
      </trkpt>
      <trkpt lat="42.832509999999935" lon="-1.5862089999999969">
        <ele>452.236</ele>
        <time>2022-08-24T16:42:38Z</time>
      </trkpt>
      <trkpt lat="42.832501999999934" lon="-1.586253999999997">
        <ele>452.045</ele>
        <time>2022-08-24T16:42:39Z</time>
      </trkpt>
      <trkpt lat="42.83249399999993" lon="-1.586337999999997">
        <ele>452.047</ele>
        <time>2022-08-24T16:42:40Z</time>
      </trkpt>
      <trkpt lat="42.83249099999993" lon="-1.586367999999997">
        <ele>451.811</ele>
        <time>2022-08-24T16:42:41Z</time>
      </trkpt>
      <trkpt lat="42.83249099999993" lon="-1.5863799999999968">
        <ele>451.409</ele>
        <time>2022-08-24T16:42:43Z</time>
      </trkpt>
      <trkpt lat="42.83249099999993" lon="-1.5863799999999968">
        <ele>451.285</ele>
        <time>2022-08-24T16:42:44Z</time>
      </trkpt>
      <trkpt lat="42.832475999999936" lon="-1.5863879999999968">
        <ele>451.255</ele>
        <time>2022-08-24T16:42:45Z</time>
      </trkpt>
      <trkpt lat="42.832467999999935" lon="-1.5864079999999967">
        <ele>451.025</ele>
        <time>2022-08-24T16:42:46Z</time>
      </trkpt>
      <trkpt lat="42.832467999999935" lon="-1.5864079999999967">
        <ele>451.071</ele>
        <time>2022-08-24T16:42:47Z</time>
      </trkpt>
      <trkpt lat="42.83245599999994" lon="-1.5864869999999966">
        <ele>450.893</ele>
        <time>2022-08-24T16:42:48Z</time>
      </trkpt>
      <trkpt lat="42.83244899999994" lon="-1.5865399999999967">
        <ele>450.830</ele>
        <time>2022-08-24T16:42:50Z</time>
      </trkpt>
      <trkpt lat="42.83241499999994" lon="-1.5868569999999966">
        <ele>450.693</ele>
        <time>2022-08-24T16:42:55Z</time>
      </trkpt>
      <trkpt lat="42.83240599999994" lon="-1.5869189999999966">
        <ele>450.647</ele>
        <time>2022-08-24T16:42:56Z</time>
      </trkpt>
      <trkpt lat="42.83239299999994" lon="-1.5870299999999966">
        <ele>450.626</ele>
        <time>2022-08-24T16:42:57Z</time>
      </trkpt>
      <trkpt lat="42.83238499999994" lon="-1.5870709999999966">
        <ele>450.466</ele>
        <time>2022-08-24T16:42:58Z</time>
      </trkpt>
      <trkpt lat="42.83238499999994" lon="-1.5870709999999966">
        <ele>450.429</ele>
        <time>2022-08-24T16:42:59Z</time>
      </trkpt>
      <trkpt lat="42.83238199999994" lon="-1.5871059999999966">
        <ele>450.421</ele>
        <time>2022-08-24T16:43:00Z</time>
      </trkpt>
      <trkpt lat="42.832365999999936" lon="-1.5871559999999967">
        <ele>450.209</ele>
        <time>2022-08-24T16:43:01Z</time>
      </trkpt>
      <trkpt lat="42.832363999999934" lon="-1.5871729999999966">
        <ele>450.287</ele>
        <time>2022-08-24T16:43:02Z</time>
      </trkpt>
      <trkpt lat="42.832343999999935" lon="-1.5871489999999966">
        <ele>449.887</ele>
        <time>2022-08-24T16:43:15Z</time>
      </trkpt>
      <trkpt lat="42.832332999999934" lon="-1.5871409999999966">
        <ele>449.857</ele>
        <time>2022-08-24T16:43:16Z</time>
      </trkpt>
      <trkpt lat="42.83231099999993" lon="-1.5871269999999966">
        <ele>449.833</ele>
        <time>2022-08-24T16:43:17Z</time>
      </trkpt>
      <trkpt lat="42.832309999999936" lon="-1.5871109999999966">
        <ele>449.825</ele>
        <time>2022-08-24T16:43:18Z</time>
      </trkpt>
      <trkpt lat="42.832315999999935" lon="-1.5870859999999967">
        <ele>449.842</ele>
        <time>2022-08-24T16:43:19Z</time>
      </trkpt>
      <trkpt lat="42.832320999999936" lon="-1.5870529999999967">
        <ele>449.895</ele>
        <time>2022-08-24T16:43:21Z</time>
      </trkpt>
      <trkpt lat="42.83233699999994" lon="-1.5869949999999968">
        <ele>449.879</ele>
        <time>2022-08-24T16:43:22Z</time>
      </trkpt>
      <trkpt lat="42.83233899999994" lon="-1.5869759999999968">
        <ele>449.868</ele>
        <time>2022-08-24T16:43:23Z</time>
      </trkpt>
      <trkpt lat="42.83233899999994" lon="-1.5869649999999969">
        <ele>449.897</ele>
        <time>2022-08-24T16:43:24Z</time>
      </trkpt>
      <trkpt lat="42.83233899999994" lon="-1.5869649999999969">
        <ele>449.823</ele>
        <time>2022-08-24T16:43:25Z</time>
      </trkpt>
      <trkpt lat="42.83233799999994" lon="-1.5869579999999968">
        <ele>449.825</ele>
        <time>2022-08-24T16:43:26Z</time>
      </trkpt>
      <trkpt lat="42.83233799999994" lon="-1.5869579999999968">
        <ele>449.809</ele>
        <time>2022-08-24T16:43:27Z</time>
      </trkpt>
      <trkpt lat="42.83232399999994" lon="-1.5869529999999967">
        <ele>449.880</ele>
        <time>2022-08-24T16:43:28Z</time>
      </trkpt>
      <trkpt lat="42.83232399999994" lon="-1.5869529999999967">
        <ele>449.830</ele>
        <time>2022-08-24T16:43:29Z</time>
      </trkpt>
      <trkpt lat="42.832289999999944" lon="-1.5869319999999967">
        <ele>449.810</ele>
        <time>2022-08-24T16:43:30Z</time>
      </trkpt>
      <trkpt lat="42.832289999999944" lon="-1.5869319999999967">
        <ele>449.656</ele>
        <time>2022-08-24T16:43:31Z</time>
      </trkpt>
      <trkpt lat="42.83216099999994" lon="-1.5868559999999967">
        <ele>449.678</ele>
        <time>2022-08-24T16:43:33Z</time>
      </trkpt>
      <trkpt lat="42.83211599999994" lon="-1.5868249999999968">
        <ele>449.245</ele>
        <time>2022-08-24T16:43:34Z</time>
      </trkpt>
      <trkpt lat="42.83207499999994" lon="-1.5867929999999968">
        <ele>449.258</ele>
        <time>2022-08-24T16:43:35Z</time>
      </trkpt>
      <trkpt lat="42.83207499999994" lon="-1.5867929999999968">
        <ele>448.852</ele>
        <time>2022-08-24T16:43:36Z</time>
      </trkpt>
      <trkpt lat="42.83203599999994" lon="-1.586761999999997">
        <ele>448.641</ele>
        <time>2022-08-24T16:43:37Z</time>
      </trkpt>
      <trkpt lat="42.83196599999994" lon="-1.5867089999999968">
        <ele>448.464</ele>
        <time>2022-08-24T16:43:38Z</time>
      </trkpt>
      <trkpt lat="42.831910999999934" lon="-1.5866599999999969">
        <ele>448.206</ele>
        <time>2022-08-24T16:43:40Z</time>
      </trkpt>
      <trkpt lat="42.831910999999934" lon="-1.5866599999999969">
        <ele>448.016</ele>
        <time>2022-08-24T16:43:41Z</time>
      </trkpt>
      <trkpt lat="42.83187599999994" lon="-1.5866339999999968">
        <ele>447.809</ele>
        <time>2022-08-24T16:43:42Z</time>
      </trkpt>
      <trkpt lat="42.83181999999994" lon="-1.5865909999999968">
        <ele>447.887</ele>
        <time>2022-08-24T16:43:43Z</time>
      </trkpt>
      <trkpt lat="42.83178599999994" lon="-1.5865699999999967">
        <ele>447.637</ele>
        <time>2022-08-24T16:43:44Z</time>
      </trkpt>
      <trkpt lat="42.83172399999994" lon="-1.5865299999999967">
        <ele>447.637</ele>
        <time>2022-08-24T16:43:46Z</time>
      </trkpt>
      <trkpt lat="42.83169199999994" lon="-1.5865059999999966">
        <ele>447.623</ele>
        <time>2022-08-24T16:43:48Z</time>
      </trkpt>
      <trkpt lat="42.83162799999994" lon="-1.5864609999999966">
        <ele>447.425</ele>
        <time>2022-08-24T16:43:50Z</time>
      </trkpt>
      <trkpt lat="42.83156799999994" lon="-1.5864109999999965">
        <ele>447.632</ele>
        <time>2022-08-24T16:43:51Z</time>
      </trkpt>
      <trkpt lat="42.83153199999994" lon="-1.5863839999999965">
        <ele>447.415</ele>
        <time>2022-08-24T16:43:53Z</time>
      </trkpt>
      <trkpt lat="42.83143799999994" lon="-1.5863269999999965">
        <ele>447.489</ele>
        <time>2022-08-24T16:43:54Z</time>
      </trkpt>
      <trkpt lat="42.83121299999994" lon="-1.5861909999999966">
        <ele>447.078</ele>
        <time>2022-08-24T16:43:59Z</time>
      </trkpt>
      <trkpt lat="42.83116499999994" lon="-1.5861669999999966">
        <ele>446.884</ele>
        <time>2022-08-24T16:44:00Z</time>
      </trkpt>
      <trkpt lat="42.831121999999944" lon="-1.5861479999999966">
        <ele>446.807</ele>
        <time>2022-08-24T16:44:01Z</time>
      </trkpt>
      <trkpt lat="42.83107799999994" lon="-1.5861299999999965">
        <ele>446.617</ele>
        <time>2022-08-24T16:44:02Z</time>
      </trkpt>
      <trkpt lat="42.83107799999994" lon="-1.5861299999999965">
        <ele>446.609</ele>
        <time>2022-08-24T16:44:03Z</time>
      </trkpt>
      <trkpt lat="42.83081899999994" lon="-1.5860189999999965">
        <ele>446.629</ele>
        <time>2022-08-24T16:44:09Z</time>
      </trkpt>
      <trkpt lat="42.83074399999994" lon="-1.5859979999999965">
        <ele>446.679</ele>
        <time>2022-08-24T16:44:10Z</time>
      </trkpt>
      <trkpt lat="42.83070799999994" lon="-1.5859879999999964">
        <ele>446.659</ele>
        <time>2022-08-24T16:44:11Z</time>
      </trkpt>
      <trkpt lat="42.83066799999994" lon="-1.5859749999999964">
        <ele>446.635</ele>
        <time>2022-08-24T16:44:13Z</time>
      </trkpt>
      <trkpt lat="42.83050799999994" lon="-1.5859149999999964">
        <ele>446.697</ele>
        <time>2022-08-24T16:44:16Z</time>
      </trkpt>
      <trkpt lat="42.83050799999994" lon="-1.5859149999999964">
        <ele>446.674</ele>
        <time>2022-08-24T16:44:17Z</time>
      </trkpt>
      <trkpt lat="42.830438999999934" lon="-1.5858859999999964">
        <ele>446.687</ele>
        <time>2022-08-24T16:44:18Z</time>
      </trkpt>
      <trkpt lat="42.830373999999935" lon="-1.5858579999999964">
        <ele>446.621</ele>
        <time>2022-08-24T16:44:20Z</time>
      </trkpt>
      <trkpt lat="42.830216999999934" lon="-1.5858199999999965">
        <ele>446.610</ele>
        <time>2022-08-24T16:44:25Z</time>
      </trkpt>
      <trkpt lat="42.830140999999934" lon="-1.5857939999999964">
        <ele>446.627</ele>
        <time>2022-08-24T16:44:26Z</time>
      </trkpt>
      <trkpt lat="42.830106999999934" lon="-1.5857839999999963">
        <ele>446.668</ele>
        <time>2022-08-24T16:44:27Z</time>
      </trkpt>
      <trkpt lat="42.83007399999993" lon="-1.5857679999999963">
        <ele>446.614</ele>
        <time>2022-08-24T16:44:28Z</time>
      </trkpt>
      <trkpt lat="42.82996999999993" lon="-1.5857079999999963">
        <ele>446.609</ele>
        <time>2022-08-24T16:44:31Z</time>
      </trkpt>
      <trkpt lat="42.82993699999993" lon="-1.5856919999999963">
        <ele>446.633</ele>
        <time>2022-08-24T16:44:32Z</time>
      </trkpt>
      <trkpt lat="42.82990299999993" lon="-1.5856789999999963">
        <ele>446.663</ele>
        <time>2022-08-24T16:44:33Z</time>
      </trkpt>
      <trkpt lat="42.82990299999993" lon="-1.5856789999999963">
        <ele>446.613</ele>
        <time>2022-08-24T16:44:34Z</time>
      </trkpt>
      <trkpt lat="42.82980699999993" lon="-1.5856419999999962">
        <ele>446.629</ele>
        <time>2022-08-24T16:44:36Z</time>
      </trkpt>
      <trkpt lat="42.82971999999993" lon="-1.5856219999999963">
        <ele>446.621</ele>
        <time>2022-08-24T16:44:38Z</time>
      </trkpt>
      <trkpt lat="42.82964099999993" lon="-1.5855899999999963">
        <ele>446.648</ele>
        <time>2022-08-24T16:44:40Z</time>
      </trkpt>
      <trkpt lat="42.829605999999934" lon="-1.5855769999999962">
        <ele>446.681</ele>
        <time>2022-08-24T16:44:41Z</time>
      </trkpt>
      <trkpt lat="42.82956199999993" lon="-1.5855619999999961">
        <ele>446.645</ele>
        <time>2022-08-24T16:44:42Z</time>
      </trkpt>
      <trkpt lat="42.82951699999993" lon="-1.5855479999999962">
        <ele>446.664</ele>
        <time>2022-08-24T16:44:43Z</time>
      </trkpt>
      <trkpt lat="42.82942399999993" lon="-1.5855269999999961">
        <ele>446.479</ele>
        <time>2022-08-24T16:44:46Z</time>
      </trkpt>
      <trkpt lat="42.82932399999993" lon="-1.5855149999999962">
        <ele>446.405</ele>
        <time>2022-08-24T16:44:47Z</time>
      </trkpt>
      <trkpt lat="42.82921899999993" lon="-1.5855249999999963">
        <ele>446.225</ele>
        <time>2022-08-24T16:44:49Z</time>
      </trkpt>
      <trkpt lat="42.82921899999993" lon="-1.5855249999999963">
        <ele>446.209</ele>
        <time>2022-08-24T16:44:50Z</time>
      </trkpt>
      <trkpt lat="42.829155999999934" lon="-1.5855249999999963">
        <ele>446.238</ele>
        <time>2022-08-24T16:44:51Z</time>
      </trkpt>
      <trkpt lat="42.829067999999936" lon="-1.5855249999999963">
        <ele>446.228</ele>
        <time>2022-08-24T16:44:52Z</time>
      </trkpt>
      <trkpt lat="42.829025999999935" lon="-1.5855319999999964">
        <ele>446.068</ele>
        <time>2022-08-24T16:44:53Z</time>
      </trkpt>
      <trkpt lat="42.829025999999935" lon="-1.5855319999999964">
        <ele>446.024</ele>
        <time>2022-08-24T16:44:54Z</time>
      </trkpt>
      <trkpt lat="42.828955999999934" lon="-1.5855639999999964">
        <ele>446.046</ele>
        <time>2022-08-24T16:44:55Z</time>
      </trkpt>
      <trkpt lat="42.828955999999934" lon="-1.5855639999999964">
        <ele>445.853</ele>
        <time>2022-08-24T16:44:56Z</time>
      </trkpt>
      <trkpt lat="42.82883099999994" lon="-1.5855999999999963">
        <ele>445.836</ele>
        <time>2022-08-24T16:44:58Z</time>
      </trkpt>
      <trkpt lat="42.82874099999994" lon="-1.5856499999999965">
        <ele>445.670</ele>
        <time>2022-08-24T16:45:00Z</time>
      </trkpt>
      <trkpt lat="42.82848499999994" lon="-1.5857529999999964">
        <ele>445.289</ele>
        <time>2022-08-24T16:45:05Z</time>
      </trkpt>
      <trkpt lat="42.82834099999994" lon="-1.5858089999999965">
        <ele>445.051</ele>
        <time>2022-08-24T16:45:08Z</time>
      </trkpt>
      <trkpt lat="42.828293999999936" lon="-1.5858259999999964">
        <ele>445.001</ele>
        <time>2022-08-24T16:45:09Z</time>
      </trkpt>
      <trkpt lat="42.82808499999994" lon="-1.5858929999999964">
        <ele>445.011</ele>
        <time>2022-08-24T16:45:13Z</time>
      </trkpt>
      <trkpt lat="42.828031999999936" lon="-1.5859079999999965">
        <ele>445.009</ele>
        <time>2022-08-24T16:45:14Z</time>
      </trkpt>
      <trkpt lat="42.82798099999994" lon="-1.5859239999999966">
        <ele>445.096</ele>
        <time>2022-08-24T16:45:15Z</time>
      </trkpt>
      <trkpt lat="42.82792899999994" lon="-1.5859369999999966">
        <ele>445.036</ele>
        <time>2022-08-24T16:45:16Z</time>
      </trkpt>
      <trkpt lat="42.82788399999994" lon="-1.5859529999999966">
        <ele>444.826</ele>
        <time>2022-08-24T16:45:17Z</time>
      </trkpt>
      <trkpt lat="42.82774099999994" lon="-1.5860299999999967">
        <ele>444.652</ele>
        <time>2022-08-24T16:45:20Z</time>
      </trkpt>
      <trkpt lat="42.82769099999994" lon="-1.5860579999999966">
        <ele>444.644</ele>
        <time>2022-08-24T16:45:21Z</time>
      </trkpt>
      <trkpt lat="42.82764299999994" lon="-1.5860849999999966">
        <ele>444.651</ele>
        <time>2022-08-24T16:45:22Z</time>
      </trkpt>
      <trkpt lat="42.827595999999936" lon="-1.5861089999999967">
        <ele>444.694</ele>
        <time>2022-08-24T16:45:23Z</time>
      </trkpt>
      <trkpt lat="42.82733399999994" lon="-1.5862309999999966">
        <ele>444.458</ele>
        <time>2022-08-24T16:45:28Z</time>
      </trkpt>
      <trkpt lat="42.827229999999936" lon="-1.5862779999999965">
        <ele>444.677</ele>
        <time>2022-08-24T16:45:30Z</time>
      </trkpt>
      <trkpt lat="42.827187999999936" lon="-1.5862969999999965">
        <ele>444.647</ele>
        <time>2022-08-24T16:45:31Z</time>
      </trkpt>
      <trkpt lat="42.82708499999993" lon="-1.5863489999999965">
        <ele>444.629</ele>
        <time>2022-08-24T16:45:33Z</time>
      </trkpt>
      <trkpt lat="42.827032999999936" lon="-1.5863789999999964">
        <ele>444.621</ele>
        <time>2022-08-24T16:45:34Z</time>
      </trkpt>
      <trkpt lat="42.826985999999934" lon="-1.5864129999999965">
        <ele>444.609</ele>
        <time>2022-08-24T16:45:35Z</time>
      </trkpt>
      <trkpt lat="42.82694199999993" lon="-1.5864499999999966">
        <ele>444.615</ele>
        <time>2022-08-24T16:45:36Z</time>
      </trkpt>
      <trkpt lat="42.82689899999993" lon="-1.5864839999999967">
        <ele>444.625</ele>
        <time>2022-08-24T16:45:37Z</time>
      </trkpt>
      <trkpt lat="42.82685999999993" lon="-1.5865169999999966">
        <ele>444.655</ele>
        <time>2022-08-24T16:45:38Z</time>
      </trkpt>
      <trkpt lat="42.82682199999993" lon="-1.5865459999999967">
        <ele>444.691</ele>
        <time>2022-08-24T16:45:39Z</time>
      </trkpt>
      <trkpt lat="42.82678199999993" lon="-1.5865669999999967">
        <ele>444.653</ele>
        <time>2022-08-24T16:45:40Z</time>
      </trkpt>
      <trkpt lat="42.82674199999993" lon="-1.5865869999999966">
        <ele>444.630</ele>
        <time>2022-08-24T16:45:41Z</time>
      </trkpt>
      <trkpt lat="42.82670599999993" lon="-1.5866119999999966">
        <ele>444.673</ele>
        <time>2022-08-24T16:45:42Z</time>
      </trkpt>
      <trkpt lat="42.82666899999993" lon="-1.5866409999999966">
        <ele>444.667</ele>
        <time>2022-08-24T16:45:43Z</time>
      </trkpt>
      <trkpt lat="42.82663199999993" lon="-1.5866729999999967">
        <ele>444.656</ele>
        <time>2022-08-24T16:45:44Z</time>
      </trkpt>
      <trkpt lat="42.82656799999993" lon="-1.5867399999999967">
        <ele>444.483</ele>
        <time>2022-08-24T16:45:46Z</time>
      </trkpt>
      <trkpt lat="42.82652999999993" lon="-1.5868459999999966">
        <ele>444.225</ele>
        <time>2022-08-24T16:45:48Z</time>
      </trkpt>
      <trkpt lat="42.826516999999924" lon="-1.5868989999999967">
        <ele>444.217</ele>
        <time>2022-08-24T16:45:49Z</time>
      </trkpt>
      <trkpt lat="42.82650899999992" lon="-1.5869539999999966">
        <ele>444.009</ele>
        <time>2022-08-24T16:45:50Z</time>
      </trkpt>
      <trkpt lat="42.826504999999926" lon="-1.5870099999999967">
        <ele>444.039</ele>
        <time>2022-08-24T16:45:51Z</time>
      </trkpt>
      <trkpt lat="42.826499999999925" lon="-1.5870669999999967">
        <ele>444.049</ele>
        <time>2022-08-24T16:45:52Z</time>
      </trkpt>
      <trkpt lat="42.826491999999924" lon="-1.5871189999999966">
        <ele>444.049</ele>
        <time>2022-08-24T16:45:53Z</time>
      </trkpt>
      <trkpt lat="42.82648799999993" lon="-1.5871709999999966">
        <ele>443.875</ele>
        <time>2022-08-24T16:45:54Z</time>
      </trkpt>
      <trkpt lat="42.82648199999993" lon="-1.5872209999999967">
        <ele>443.857</ele>
        <time>2022-08-24T16:45:55Z</time>
      </trkpt>
      <trkpt lat="42.826476999999926" lon="-1.5872729999999966">
        <ele>443.834</ele>
        <time>2022-08-24T16:45:56Z</time>
      </trkpt>
      <trkpt lat="42.826471999999924" lon="-1.5873199999999965">
        <ele>443.857</ele>
        <time>2022-08-24T16:45:57Z</time>
      </trkpt>
      <trkpt lat="42.826459999999926" lon="-1.5875279999999965">
        <ele>443.831</ele>
        <time>2022-08-24T16:46:01Z</time>
      </trkpt>
      <trkpt lat="42.826451999999925" lon="-1.5875769999999965">
        <ele>443.820</ele>
        <time>2022-08-24T16:46:02Z</time>
      </trkpt>
      <trkpt lat="42.826440999999924" lon="-1.5876229999999965">
        <ele>444.032</ele>
        <time>2022-08-24T16:46:03Z</time>
      </trkpt>
      <trkpt lat="42.82642799999992" lon="-1.5876669999999964">
        <ele>444.092</ele>
        <time>2022-08-24T16:46:04Z</time>
      </trkpt>
      <trkpt lat="42.826415999999924" lon="-1.5877109999999963">
        <ele>444.011</ele>
        <time>2022-08-24T16:46:05Z</time>
      </trkpt>
      <trkpt lat="42.82640299999992" lon="-1.5877509999999964">
        <ele>444.009</ele>
        <time>2022-08-24T16:46:06Z</time>
      </trkpt>
      <trkpt lat="42.82638799999992" lon="-1.5877879999999964">
        <ele>444.024</ele>
        <time>2022-08-24T16:46:07Z</time>
      </trkpt>
      <trkpt lat="42.82637499999992" lon="-1.5878239999999963">
        <ele>444.084</ele>
        <time>2022-08-24T16:46:08Z</time>
      </trkpt>
      <trkpt lat="42.82636399999992" lon="-1.5878619999999963">
        <ele>444.044</ele>
        <time>2022-08-24T16:46:09Z</time>
      </trkpt>
      <trkpt lat="42.82635299999992" lon="-1.5878959999999964">
        <ele>444.070</ele>
        <time>2022-08-24T16:46:10Z</time>
      </trkpt>
      <trkpt lat="42.82634199999992" lon="-1.5879289999999964">
        <ele>444.032</ele>
        <time>2022-08-24T16:46:11Z</time>
      </trkpt>
      <trkpt lat="42.82632099999992" lon="-1.5879979999999965">
        <ele>444.099</ele>
        <time>2022-08-24T16:46:13Z</time>
      </trkpt>
      <trkpt lat="42.82630699999992" lon="-1.5880289999999964">
        <ele>444.022</ele>
        <time>2022-08-24T16:46:14Z</time>
      </trkpt>
      <trkpt lat="42.826209999999925" lon="-1.5882259999999964">
        <ele>444.026</ele>
        <time>2022-08-24T16:46:20Z</time>
      </trkpt>
      <trkpt lat="42.82618299999992" lon="-1.5882899999999964">
        <ele>443.825</ele>
        <time>2022-08-24T16:46:22Z</time>
      </trkpt>
      <trkpt lat="42.826167999999925" lon="-1.5883159999999965">
        <ele>443.884</ele>
        <time>2022-08-24T16:46:23Z</time>
      </trkpt>
      <trkpt lat="42.82614999999993" lon="-1.5883439999999964">
        <ele>443.807</ele>
        <time>2022-08-24T16:46:24Z</time>
      </trkpt>
      <trkpt lat="42.82613299999993" lon="-1.5883699999999965">
        <ele>443.617</ele>
        <time>2022-08-24T16:46:25Z</time>
      </trkpt>
      <trkpt lat="42.826116999999925" lon="-1.5883959999999966">
        <ele>443.609</ele>
        <time>2022-08-24T16:46:26Z</time>
      </trkpt>
      <trkpt lat="42.82607399999993" lon="-1.5884789999999966">
        <ele>443.669</ele>
        <time>2022-08-24T16:46:29Z</time>
      </trkpt>
      <trkpt lat="42.826065999999926" lon="-1.5884929999999966">
        <ele>443.659</ele>
        <time>2022-08-24T16:46:30Z</time>
      </trkpt>
      <trkpt lat="42.82606199999993" lon="-1.5884999999999967">
        <ele>443.099</ele>
        <time>2022-08-24T16:48:33Z</time>
      </trkpt>
      <trkpt lat="42.82599699999993" lon="-1.5886229999999968">
        <ele>443.045</ele>
        <time>2022-08-24T16:48:38Z</time>
      </trkpt>
      <trkpt lat="42.82591099999993" lon="-1.5888119999999968">
        <ele>443.037</ele>
        <time>2022-08-24T16:48:43Z</time>
      </trkpt>
      <trkpt lat="42.825899999999926" lon="-1.5888489999999968">
        <ele>443.044</ele>
        <time>2022-08-24T16:48:44Z</time>
      </trkpt>
      <trkpt lat="42.82588499999993" lon="-1.588882999999997">
        <ele>443.067</ele>
        <time>2022-08-24T16:48:45Z</time>
      </trkpt>
      <trkpt lat="42.82586499999993" lon="-1.588916999999997">
        <ele>443.051</ele>
        <time>2022-08-24T16:48:46Z</time>
      </trkpt>
      <trkpt lat="42.82583899999993" lon="-1.588941999999997">
        <ele>443.210</ele>
        <time>2022-08-24T16:48:47Z</time>
      </trkpt>
      <trkpt lat="42.82581499999993" lon="-1.588963999999997">
        <ele>443.283</ele>
        <time>2022-08-24T16:48:48Z</time>
      </trkpt>
      <trkpt lat="42.825790999999924" lon="-1.588978999999997">
        <ele>443.225</ele>
        <time>2022-08-24T16:48:49Z</time>
      </trkpt>
      <trkpt lat="42.82576399999992" lon="-1.588990999999997">
        <ele>443.217</ele>
        <time>2022-08-24T16:48:50Z</time>
      </trkpt>
      <trkpt lat="42.825731999999924" lon="-1.589000999999997">
        <ele>443.209</ele>
        <time>2022-08-24T16:48:51Z</time>
      </trkpt>
      <trkpt lat="42.825697999999925" lon="-1.589015999999997">
        <ele>443.429</ele>
        <time>2022-08-24T16:48:52Z</time>
      </trkpt>
      <trkpt lat="42.825660999999926" lon="-1.5890339999999972">
        <ele>443.429</ele>
        <time>2022-08-24T16:48:53Z</time>
      </trkpt>
      <trkpt lat="42.825587999999925" lon="-1.5890639999999971">
        <ele>443.479</ele>
        <time>2022-08-24T16:48:55Z</time>
      </trkpt>
      <trkpt lat="42.825550999999926" lon="-1.589072999999997">
        <ele>443.425</ele>
        <time>2022-08-24T16:48:56Z</time>
      </trkpt>
      <trkpt lat="42.82551599999993" lon="-1.589083999999997">
        <ele>443.457</ele>
        <time>2022-08-24T16:48:57Z</time>
      </trkpt>
      <trkpt lat="42.82548499999993" lon="-1.5890989999999972">
        <ele>443.494</ele>
        <time>2022-08-24T16:48:58Z</time>
      </trkpt>
      <trkpt lat="42.82545199999993" lon="-1.5891179999999971">
        <ele>443.457</ele>
        <time>2022-08-24T16:48:59Z</time>
      </trkpt>
      <trkpt lat="42.82529899999993" lon="-1.5891929999999972">
        <ele>443.261</ele>
        <time>2022-08-24T16:49:03Z</time>
      </trkpt>
      <trkpt lat="42.82526199999993" lon="-1.5892099999999971">
        <ele>443.210</ele>
        <time>2022-08-24T16:49:04Z</time>
      </trkpt>
      <trkpt lat="42.82519099999993" lon="-1.589242999999997">
        <ele>443.288</ele>
        <time>2022-08-24T16:49:06Z</time>
      </trkpt>
      <trkpt lat="42.82515799999993" lon="-1.589261999999997">
        <ele>443.224</ele>
        <time>2022-08-24T16:49:07Z</time>
      </trkpt>
      <trkpt lat="42.82512899999993" lon="-1.5892879999999971">
        <ele>443.226</ele>
        <time>2022-08-24T16:49:08Z</time>
      </trkpt>
      <trkpt lat="42.825105999999934" lon="-1.5893219999999972">
        <ele>443.009</ele>
        <time>2022-08-24T16:49:09Z</time>
      </trkpt>
      <trkpt lat="42.82508999999993" lon="-1.5893609999999971">
        <ele>443.069</ele>
        <time>2022-08-24T16:49:10Z</time>
      </trkpt>
      <trkpt lat="42.82507599999993" lon="-1.589401999999997">
        <ele>443.019</ele>
        <time>2022-08-24T16:49:11Z</time>
      </trkpt>
      <trkpt lat="42.82506299999993" lon="-1.5894419999999971">
        <ele>442.839</ele>
        <time>2022-08-24T16:49:12Z</time>
      </trkpt>
      <trkpt lat="42.82504399999993" lon="-1.5894839999999972">
        <ele>442.815</ele>
        <time>2022-08-24T16:49:13Z</time>
      </trkpt>
      <trkpt lat="42.82502299999993" lon="-1.5895249999999972">
        <ele>442.887</ele>
        <time>2022-08-24T16:49:14Z</time>
      </trkpt>
      <trkpt lat="42.82498999999993" lon="-1.589609999999997">
        <ele>442.664</ele>
        <time>2022-08-24T16:49:16Z</time>
      </trkpt>
      <trkpt lat="42.824973999999926" lon="-1.589652999999997">
        <ele>442.647</ele>
        <time>2022-08-24T16:49:17Z</time>
      </trkpt>
      <trkpt lat="42.82495699999993" lon="-1.589688999999997">
        <ele>442.651</ele>
        <time>2022-08-24T16:49:18Z</time>
      </trkpt>
      <trkpt lat="42.82493899999993" lon="-1.589716999999997">
        <ele>442.630</ele>
        <time>2022-08-24T16:49:19Z</time>
      </trkpt>
      <trkpt lat="42.82492399999993" lon="-1.589739999999997">
        <ele>442.653</ele>
        <time>2022-08-24T16:49:20Z</time>
      </trkpt>
      <trkpt lat="42.824908999999934" lon="-1.589753999999997">
        <ele>442.604</ele>
        <time>2022-08-24T16:49:21Z</time>
      </trkpt>
      <trkpt lat="42.82489399999994" lon="-1.589761999999997">
        <ele>442.614</ele>
        <time>2022-08-24T16:49:22Z</time>
      </trkpt>
      <trkpt lat="42.82487699999994" lon="-1.589764999999997">
        <ele>442.409</ele>
        <time>2022-08-24T16:49:23Z</time>
      </trkpt>
      <trkpt lat="42.824860999999935" lon="-1.589759999999997">
        <ele>442.436</ele>
        <time>2022-08-24T16:49:24Z</time>
      </trkpt>
      <trkpt lat="42.824837999999936" lon="-1.5897369999999968">
        <ele>442.496</ele>
        <time>2022-08-24T16:49:26Z</time>
      </trkpt>
      <trkpt lat="42.824823999999936" lon="-1.5897269999999968">
        <ele>442.476</ele>
        <time>2022-08-24T16:49:27Z</time>
      </trkpt>
      <trkpt lat="42.82480899999994" lon="-1.5897179999999969">
        <ele>442.452</ele>
        <time>2022-08-24T16:49:28Z</time>
      </trkpt>
      <trkpt lat="42.82477299999994" lon="-1.5896969999999968">
        <ele>442.434</ele>
        <time>2022-08-24T16:49:30Z</time>
      </trkpt>
      <trkpt lat="42.82475599999994" lon="-1.5896889999999968">
        <ele>442.471</ele>
        <time>2022-08-24T16:49:31Z</time>
      </trkpt>
      <trkpt lat="42.824727999999936" lon="-1.5896679999999968">
        <ele>442.464</ele>
        <time>2022-08-24T16:49:33Z</time>
      </trkpt>
      <trkpt lat="42.82471899999994" lon="-1.5896529999999967">
        <ele>442.468</ele>
        <time>2022-08-24T16:49:34Z</time>
      </trkpt>
      <trkpt lat="42.82473299999994" lon="-1.5896109999999966">
        <ele>442.657</ele>
        <time>2022-08-24T16:49:37Z</time>
      </trkpt>
      <trkpt lat="42.82474199999994" lon="-1.5896069999999967">
        <ele>442.863</ele>
        <time>2022-08-24T16:49:38Z</time>
      </trkpt>
      <trkpt lat="42.82475199999994" lon="-1.5896099999999966">
        <ele>442.844</ele>
        <time>2022-08-24T16:49:39Z</time>
      </trkpt>
      <trkpt lat="42.82480299999994" lon="-1.5896839999999965">
        <ele>442.618</ele>
        <time>2022-08-24T16:49:43Z</time>
      </trkpt>
      <trkpt lat="42.82483699999994" lon="-1.5897219999999965">
        <ele>442.609</ele>
        <time>2022-08-24T16:49:45Z</time>
      </trkpt>
      <trkpt lat="42.82485099999994" lon="-1.5897429999999966">
        <ele>442.457</ele>
        <time>2022-08-24T16:49:46Z</time>
      </trkpt>
      <trkpt lat="42.82485999999994" lon="-1.5897649999999965">
        <ele>442.447</ele>
        <time>2022-08-24T16:49:47Z</time>
      </trkpt>
      <trkpt lat="42.82486499999994" lon="-1.5897879999999966">
        <ele>442.477</ele>
        <time>2022-08-24T16:49:48Z</time>
      </trkpt>
      <trkpt lat="42.82486399999994" lon="-1.5898149999999966">
        <ele>442.283</ele>
        <time>2022-08-24T16:49:49Z</time>
      </trkpt>
      <trkpt lat="42.82485599999994" lon="-1.5900179999999966">
        <ele>442.225</ele>
        <time>2022-08-24T16:49:54Z</time>
      </trkpt>
      <trkpt lat="42.82482199999994" lon="-1.5902379999999967">
        <ele>442.452</ele>
        <time>2022-08-24T16:49:59Z</time>
      </trkpt>
      <trkpt lat="42.82481399999994" lon="-1.5902809999999967">
        <ele>442.245</ele>
        <time>2022-08-24T16:50:00Z</time>
      </trkpt>
      <trkpt lat="42.82480799999994" lon="-1.5903799999999968">
        <ele>442.239</ele>
        <time>2022-08-24T16:50:02Z</time>
      </trkpt>
      <trkpt lat="42.82480299999994" lon="-1.5905249999999969">
        <ele>442.078</ele>
        <time>2022-08-24T16:50:05Z</time>
      </trkpt>
      <trkpt lat="42.82480899999994" lon="-1.5905689999999968">
        <ele>442.048</ele>
        <time>2022-08-24T16:50:06Z</time>
      </trkpt>
      <trkpt lat="42.82481699999994" lon="-1.5906089999999968">
        <ele>442.061</ele>
        <time>2022-08-24T16:50:07Z</time>
      </trkpt>
      <trkpt lat="42.82482599999994" lon="-1.5906469999999968">
        <ele>442.017</ele>
        <time>2022-08-24T16:50:08Z</time>
      </trkpt>
      <trkpt lat="42.82483699999994" lon="-1.5906849999999968">
        <ele>442.009</ele>
        <time>2022-08-24T16:50:09Z</time>
      </trkpt>
      <trkpt lat="42.82484599999994" lon="-1.5907199999999968">
        <ele>442.075</ele>
        <time>2022-08-24T16:50:10Z</time>
      </trkpt>
      <trkpt lat="42.824894999999934" lon="-1.5908529999999967">
        <ele>441.825</ele>
        <time>2022-08-24T16:50:14Z</time>
      </trkpt>
      <trkpt lat="42.82492099999993" lon="-1.5909069999999967">
        <ele>441.885</ele>
        <time>2022-08-24T16:50:16Z</time>
      </trkpt>
      <trkpt lat="42.82494899999993" lon="-1.5909379999999966">
        <ele>441.611</ele>
        <time>2022-08-24T16:50:17Z</time>
      </trkpt>
      <trkpt lat="42.824975999999936" lon="-1.5909619999999967">
        <ele>441.613</ele>
        <time>2022-08-24T16:50:18Z</time>
      </trkpt>
      <trkpt lat="42.825001999999934" lon="-1.5909829999999967">
        <ele>441.640</ele>
        <time>2022-08-24T16:50:19Z</time>
      </trkpt>
      <trkpt lat="42.82503899999993" lon="-1.5910079999999966">
        <ele>441.683</ele>
        <time>2022-08-24T16:50:20Z</time>
      </trkpt>
      <trkpt lat="42.825077999999934" lon="-1.5910349999999966">
        <ele>441.657</ele>
        <time>2022-08-24T16:50:21Z</time>
      </trkpt>
      <trkpt lat="42.82512999999993" lon="-1.5910699999999967">
        <ele>441.496</ele>
        <time>2022-08-24T16:50:23Z</time>
      </trkpt>
      <trkpt lat="42.82519499999993" lon="-1.5911079999999966">
        <ele>441.451</ele>
        <time>2022-08-24T16:50:25Z</time>
      </trkpt>
      <trkpt lat="42.82528999999993" lon="-1.5911389999999965">
        <ele>441.201</ele>
        <time>2022-08-24T16:50:27Z</time>
      </trkpt>
      <trkpt lat="42.82536799999993" lon="-1.5911629999999966">
        <ele>441.211</ele>
        <time>2022-08-24T16:50:29Z</time>
      </trkpt>
      <trkpt lat="42.82544499999993" lon="-1.5911499999999965">
        <ele>441.209</ele>
        <time>2022-08-24T16:50:31Z</time>
      </trkpt>
      <trkpt lat="42.82561499999993" lon="-1.5910789999999966">
        <ele>442.066</ele>
        <time>2022-08-24T16:50:35Z</time>
      </trkpt>
      <trkpt lat="42.82565399999993" lon="-1.5910649999999966">
        <ele>442.076</ele>
        <time>2022-08-24T16:50:36Z</time>
      </trkpt>
      <trkpt lat="42.825750999999926" lon="-1.5910689999999965">
        <ele>442.456</ele>
        <time>2022-08-24T16:50:38Z</time>
      </trkpt>
      <trkpt lat="42.825793999999924" lon="-1.5910699999999964">
        <ele>442.492</ele>
        <time>2022-08-24T16:50:39Z</time>
      </trkpt>
      <trkpt lat="42.82584199999992" lon="-1.5910669999999965">
        <ele>442.464</ele>
        <time>2022-08-24T16:50:40Z</time>
      </trkpt>
      <trkpt lat="42.82593499999992" lon="-1.5910539999999964">
        <ele>442.641</ele>
        <time>2022-08-24T16:50:42Z</time>
      </trkpt>
      <trkpt lat="42.82610099999992" lon="-1.5909919999999964">
        <ele>442.874</ele>
        <time>2022-08-24T16:50:46Z</time>
      </trkpt>
      <trkpt lat="42.82613899999993" lon="-1.5909759999999964">
        <ele>443.048</ele>
        <time>2022-08-24T16:50:47Z</time>
      </trkpt>
      <trkpt lat="42.82622499999993" lon="-1.5909679999999964">
        <ele>443.097</ele>
        <time>2022-08-24T16:50:49Z</time>
      </trkpt>
      <trkpt lat="42.82626599999993" lon="-1.5909689999999963">
        <ele>443.262</ele>
        <time>2022-08-24T16:50:50Z</time>
      </trkpt>
      <trkpt lat="42.826301999999934" lon="-1.5909729999999962">
        <ele>443.283</ele>
        <time>2022-08-24T16:50:51Z</time>
      </trkpt>
      <trkpt lat="42.82633699999993" lon="-1.5909649999999962">
        <ele>443.211</ele>
        <time>2022-08-24T16:50:52Z</time>
      </trkpt>
      <trkpt lat="42.82636599999993" lon="-1.5909729999999962">
        <ele>443.209</ele>
        <time>2022-08-24T16:50:53Z</time>
      </trkpt>
      <trkpt lat="42.82645699999993" lon="-1.5909539999999962">
        <ele>443.467</ele>
        <time>2022-08-24T16:50:56Z</time>
      </trkpt>
      <trkpt lat="42.82648699999993" lon="-1.5909609999999963">
        <ele>443.677</ele>
        <time>2022-08-24T16:50:57Z</time>
      </trkpt>
      <trkpt lat="42.82651499999993" lon="-1.5909759999999964">
        <ele>443.627</ele>
        <time>2022-08-24T16:50:58Z</time>
      </trkpt>
      <trkpt lat="42.82654199999993" lon="-1.5909909999999965">
        <ele>443.863</ele>
        <time>2022-08-24T16:50:59Z</time>
      </trkpt>
      <trkpt lat="42.82656999999993" lon="-1.5910049999999964">
        <ele>443.835</ele>
        <time>2022-08-24T16:51:00Z</time>
      </trkpt>
      <trkpt lat="42.82665499999993" lon="-1.5910279999999966">
        <ele>444.062</ele>
        <time>2022-08-24T16:51:03Z</time>
      </trkpt>
      <trkpt lat="42.82668099999993" lon="-1.5910299999999966">
        <ele>444.085</ele>
        <time>2022-08-24T16:51:04Z</time>
      </trkpt>
      <trkpt lat="42.82670399999993" lon="-1.5910329999999966">
        <ele>444.059</ele>
        <time>2022-08-24T16:51:05Z</time>
      </trkpt>
      <trkpt lat="42.82672099999993" lon="-1.5910469999999965">
        <ele>444.238</ele>
        <time>2022-08-24T16:51:06Z</time>
      </trkpt>
      <trkpt lat="42.82673799999993" lon="-1.5910649999999966">
        <ele>444.297</ele>
        <time>2022-08-24T16:51:07Z</time>
      </trkpt>
      <trkpt lat="42.826758999999925" lon="-1.5910849999999965">
        <ele>444.423</ele>
        <time>2022-08-24T16:51:08Z</time>
      </trkpt>
      <trkpt lat="42.82678199999992" lon="-1.5911009999999965">
        <ele>444.425</ele>
        <time>2022-08-24T16:51:09Z</time>
      </trkpt>
      <trkpt lat="42.826806999999924" lon="-1.5911159999999966">
        <ele>444.409</ele>
        <time>2022-08-24T16:51:10Z</time>
      </trkpt>
      <trkpt lat="42.82686999999992" lon="-1.5911339999999967">
        <ele>444.430</ele>
        <time>2022-08-24T16:51:12Z</time>
      </trkpt>
      <trkpt lat="42.82689599999992" lon="-1.5911419999999967">
        <ele>444.480</ele>
        <time>2022-08-24T16:51:13Z</time>
      </trkpt>
      <trkpt lat="42.82692199999992" lon="-1.5911489999999968">
        <ele>444.470</ele>
        <time>2022-08-24T16:51:14Z</time>
      </trkpt>
      <trkpt lat="42.82704299999992" lon="-1.5911859999999969">
        <ele>444.646</ele>
        <time>2022-08-24T16:51:19Z</time>
      </trkpt>
      <trkpt lat="42.827063999999915" lon="-1.591195999999997">
        <ele>444.888</ele>
        <time>2022-08-24T16:51:20Z</time>
      </trkpt>
      <trkpt lat="42.82709399999992" lon="-1.5912049999999969">
        <ele>444.885</ele>
        <time>2022-08-24T16:51:21Z</time>
      </trkpt>
      <trkpt lat="42.82726299999992" lon="-1.5912899999999968">
        <ele>445.248</ele>
        <time>2022-08-24T16:51:27Z</time>
      </trkpt>
      <trkpt lat="42.82728199999992" lon="-1.5913149999999967">
        <ele>445.472</ele>
        <time>2022-08-24T16:51:28Z</time>
      </trkpt>
      <trkpt lat="42.82730599999992" lon="-1.5913429999999966">
        <ele>445.431</ele>
        <time>2022-08-24T16:51:29Z</time>
      </trkpt>
      <trkpt lat="42.82733099999992" lon="-1.5913699999999966">
        <ele>445.848</ele>
        <time>2022-08-24T16:51:30Z</time>
      </trkpt>
      <trkpt lat="42.82735399999992" lon="-1.5914029999999966">
        <ele>445.861</ele>
        <time>2022-08-24T16:51:31Z</time>
      </trkpt>
      <trkpt lat="42.82737699999992" lon="-1.5914349999999966">
        <ele>446.017</ele>
        <time>2022-08-24T16:51:32Z</time>
      </trkpt>
      <trkpt lat="42.827431999999924" lon="-1.5914909999999967">
        <ele>446.209</ele>
        <time>2022-08-24T16:51:34Z</time>
      </trkpt>
      <trkpt lat="42.82750599999992" lon="-1.5915979999999967">
        <ele>446.455</ele>
        <time>2022-08-24T16:51:37Z</time>
      </trkpt>
      <trkpt lat="42.827594999999924" lon="-1.5917359999999967">
        <ele>446.455</ele>
        <time>2022-08-24T16:51:41Z</time>
      </trkpt>
      <trkpt lat="42.827636999999925" lon="-1.5918189999999968">
        <ele>446.485</ele>
        <time>2022-08-24T16:51:43Z</time>
      </trkpt>
      <trkpt lat="42.827661999999926" lon="-1.5918519999999967">
        <ele>446.651</ele>
        <time>2022-08-24T16:51:44Z</time>
      </trkpt>
      <trkpt lat="42.82771199999993" lon="-1.5919089999999967">
        <ele>446.643</ele>
        <time>2022-08-24T16:51:46Z</time>
      </trkpt>
      <trkpt lat="42.827729999999924" lon="-1.5919479999999966">
        <ele>446.610</ele>
        <time>2022-08-24T16:51:47Z</time>
      </trkpt>
      <trkpt lat="42.82774599999993" lon="-1.5919869999999965">
        <ele>446.643</ele>
        <time>2022-08-24T16:51:48Z</time>
      </trkpt>
      <trkpt lat="42.82775899999993" lon="-1.5920259999999964">
        <ele>446.887</ele>
        <time>2022-08-24T16:51:49Z</time>
      </trkpt>
      <trkpt lat="42.82778799999993" lon="-1.5921879999999964">
        <ele>447.076</ele>
        <time>2022-08-24T16:51:53Z</time>
      </trkpt>
      <trkpt lat="42.82779099999993" lon="-1.5922679999999965">
        <ele>447.246</ele>
        <time>2022-08-24T16:51:55Z</time>
      </trkpt>
      <trkpt lat="42.82780199999993" lon="-1.5924389999999964">
        <ele>447.488</ele>
        <time>2022-08-24T16:51:59Z</time>
      </trkpt>
      <trkpt lat="42.82781599999993" lon="-1.5926119999999964">
        <ele>447.416</ele>
        <time>2022-08-24T16:52:03Z</time>
      </trkpt>
      <trkpt lat="42.827819999999925" lon="-1.5927099999999963">
        <ele>447.409</ele>
        <time>2022-08-24T16:52:05Z</time>
      </trkpt>
      <trkpt lat="42.82778799999993" lon="-1.5929239999999962">
        <ele>447.445</ele>
        <time>2022-08-24T16:52:09Z</time>
      </trkpt>
      <trkpt lat="42.827692999999925" lon="-1.5932999999999962">
        <ele>447.065</ele>
        <time>2022-08-24T16:52:16Z</time>
      </trkpt>
      <trkpt lat="42.82768299999992" lon="-1.593357999999996">
        <ele>447.085</ele>
        <time>2022-08-24T16:52:17Z</time>
      </trkpt>
      <trkpt lat="42.82764399999992" lon="-1.5935349999999961">
        <ele>446.871</ele>
        <time>2022-08-24T16:52:20Z</time>
      </trkpt>
      <trkpt lat="42.82762199999992" lon="-1.593586999999996">
        <ele>446.623</ele>
        <time>2022-08-24T16:52:21Z</time>
      </trkpt>
      <trkpt lat="42.82760299999992" lon="-1.5936289999999962">
        <ele>446.480</ele>
        <time>2022-08-24T16:52:22Z</time>
      </trkpt>
      <trkpt lat="42.82758899999992" lon="-1.5936629999999963">
        <ele>446.213</ele>
        <time>2022-08-24T16:52:23Z</time>
      </trkpt>
      <trkpt lat="42.827575999999915" lon="-1.5936929999999963">
        <ele>446.087</ele>
        <time>2022-08-24T16:52:24Z</time>
      </trkpt>
      <trkpt lat="42.82755199999991" lon="-1.5937249999999963">
        <ele>445.876</ele>
        <time>2022-08-24T16:52:25Z</time>
      </trkpt>
      <trkpt lat="42.82747299999991" lon="-1.5937909999999962">
        <ele>445.482</ele>
        <time>2022-08-24T16:52:27Z</time>
      </trkpt>
      <trkpt lat="42.827420999999916" lon="-1.5938209999999962">
        <ele>445.243</ele>
        <time>2022-08-24T16:52:28Z</time>
      </trkpt>
      <trkpt lat="42.82737699999991" lon="-1.5938499999999962">
        <ele>445.017</ele>
        <time>2022-08-24T16:52:29Z</time>
      </trkpt>
      <trkpt lat="42.827336999999915" lon="-1.5938859999999961">
        <ele>444.809</ele>
        <time>2022-08-24T16:52:30Z</time>
      </trkpt>
      <trkpt lat="42.827220999999916" lon="-1.5940279999999962">
        <ele>443.859</ele>
        <time>2022-08-24T16:52:33Z</time>
      </trkpt>
      <trkpt lat="42.82717299999992" lon="-1.5940709999999962">
        <ele>443.679</ele>
        <time>2022-08-24T16:52:34Z</time>
      </trkpt>
      <trkpt lat="42.827029999999915" lon="-1.5942129999999963">
        <ele>443.029</ele>
        <time>2022-08-24T16:52:37Z</time>
      </trkpt>
      <trkpt lat="42.82698999999992" lon="-1.5942549999999964">
        <ele>442.825</ele>
        <time>2022-08-24T16:52:38Z</time>
      </trkpt>
      <trkpt lat="42.82695799999992" lon="-1.5942989999999964">
        <ele>442.897</ele>
        <time>2022-08-24T16:52:39Z</time>
      </trkpt>
      <trkpt lat="42.82693699999992" lon="-1.5943489999999965">
        <ele>442.684</ele>
        <time>2022-08-24T16:52:40Z</time>
      </trkpt>
      <trkpt lat="42.82692599999992" lon="-1.5944049999999965">
        <ele>442.457</ele>
        <time>2022-08-24T16:52:41Z</time>
      </trkpt>
      <trkpt lat="42.82690899999992" lon="-1.5944639999999966">
        <ele>442.481</ele>
        <time>2022-08-24T16:52:42Z</time>
      </trkpt>
      <trkpt lat="42.826899999999924" lon="-1.5945259999999966">
        <ele>442.250</ele>
        <time>2022-08-24T16:52:43Z</time>
      </trkpt>
      <trkpt lat="42.82690399999992" lon="-1.5945829999999965">
        <ele>442.283</ele>
        <time>2022-08-24T16:52:44Z</time>
      </trkpt>
      <trkpt lat="42.82691299999992" lon="-1.5946369999999965">
        <ele>442.025</ele>
        <time>2022-08-24T16:52:45Z</time>
      </trkpt>
      <trkpt lat="42.82692699999992" lon="-1.5946949999999964">
        <ele>442.017</ele>
        <time>2022-08-24T16:52:46Z</time>
      </trkpt>
      <trkpt lat="42.82693999999992" lon="-1.5947529999999963">
        <ele>442.009</ele>
        <time>2022-08-24T16:52:47Z</time>
      </trkpt>
      <trkpt lat="42.82695099999992" lon="-1.5948159999999962">
        <ele>442.069</ele>
        <time>2022-08-24T16:52:48Z</time>
      </trkpt>
      <trkpt lat="42.826961999999924" lon="-1.5948839999999962">
        <ele>441.859</ele>
        <time>2022-08-24T16:52:49Z</time>
      </trkpt>
      <trkpt lat="42.826966999999925" lon="-1.5949509999999962">
        <ele>441.679</ele>
        <time>2022-08-24T16:52:50Z</time>
      </trkpt>
      <trkpt lat="42.82696899999993" lon="-1.5950099999999963">
        <ele>441.475</ele>
        <time>2022-08-24T16:52:51Z</time>
      </trkpt>
      <trkpt lat="42.82697199999993" lon="-1.5950629999999963">
        <ele>441.427</ele>
        <time>2022-08-24T16:52:52Z</time>
      </trkpt>
      <trkpt lat="42.82697399999993" lon="-1.5951179999999963">
        <ele>441.474</ele>
        <time>2022-08-24T16:52:53Z</time>
      </trkpt>
      <trkpt lat="42.82697299999993" lon="-1.5952349999999962">
        <ele>441.447</ele>
        <time>2022-08-24T16:52:55Z</time>
      </trkpt>
      <trkpt lat="42.82695999999993" lon="-1.5953349999999962">
        <ele>441.271</ele>
        <time>2022-08-24T16:52:57Z</time>
      </trkpt>
      <trkpt lat="42.82695699999993" lon="-1.5953889999999962">
        <ele>441.280</ele>
        <time>2022-08-24T16:52:58Z</time>
      </trkpt>
      <trkpt lat="42.82695999999993" lon="-1.595443999999996">
        <ele>441.071</ele>
        <time>2022-08-24T16:52:59Z</time>
      </trkpt>
      <trkpt lat="42.82697899999993" lon="-1.595586999999996">
        <ele>441.041</ele>
        <time>2022-08-24T16:53:02Z</time>
      </trkpt>
      <trkpt lat="42.826988999999934" lon="-1.595644999999996">
        <ele>441.015</ele>
        <time>2022-08-24T16:53:03Z</time>
      </trkpt>
      <trkpt lat="42.82702699999994" lon="-1.595809999999996">
        <ele>441.009</ele>
        <time>2022-08-24T16:53:06Z</time>
      </trkpt>
      <trkpt lat="42.82705199999994" lon="-1.595873999999996">
        <ele>441.078</ele>
        <time>2022-08-24T16:53:07Z</time>
      </trkpt>
      <trkpt lat="42.82708199999994" lon="-1.595935999999996">
        <ele>441.078</ele>
        <time>2022-08-24T16:53:08Z</time>
      </trkpt>
      <trkpt lat="42.82711899999994" lon="-1.596003999999996">
        <ele>441.058</ele>
        <time>2022-08-24T16:53:09Z</time>
      </trkpt>
      <trkpt lat="42.82714699999994" lon="-1.596057999999996">
        <ele>440.814</ele>
        <time>2022-08-24T16:53:10Z</time>
      </trkpt>
      <trkpt lat="42.82717399999994" lon="-1.596113999999996">
        <ele>440.886</ele>
        <time>2022-08-24T16:53:11Z</time>
      </trkpt>
      <trkpt lat="42.827200999999945" lon="-1.5961669999999961">
        <ele>440.833</ele>
        <time>2022-08-24T16:53:12Z</time>
      </trkpt>
      <trkpt lat="42.827226999999944" lon="-1.5962119999999962">
        <ele>440.856</ele>
        <time>2022-08-24T16:53:13Z</time>
      </trkpt>
      <trkpt lat="42.82726399999994" lon="-1.5962419999999962">
        <ele>440.820</ele>
        <time>2022-08-24T16:53:14Z</time>
      </trkpt>
      <trkpt lat="42.82730699999994" lon="-1.5962479999999961">
        <ele>440.869</ele>
        <time>2022-08-24T16:53:15Z</time>
      </trkpt>
      <trkpt lat="42.82738599999994" lon="-1.596248999999996">
        <ele>440.885</ele>
        <time>2022-08-24T16:53:17Z</time>
      </trkpt>
      <trkpt lat="42.82742199999994" lon="-1.596233999999996">
        <ele>441.089</ele>
        <time>2022-08-24T16:53:18Z</time>
      </trkpt>
      <trkpt lat="42.82746999999994" lon="-1.5961999999999958">
        <ele>440.817</ele>
        <time>2022-08-24T16:53:19Z</time>
      </trkpt>
      <trkpt lat="42.82750699999994" lon="-1.596168999999996">
        <ele>441.009</ele>
        <time>2022-08-24T16:53:20Z</time>
      </trkpt>
      <trkpt lat="42.82757399999994" lon="-1.5961049999999959">
        <ele>441.059</ele>
        <time>2022-08-24T16:53:22Z</time>
      </trkpt>
      <trkpt lat="42.82760799999994" lon="-1.5960819999999958">
        <ele>441.049</ele>
        <time>2022-08-24T16:53:23Z</time>
      </trkpt>
      <trkpt lat="42.82764499999994" lon="-1.5960689999999957">
        <ele>441.079</ele>
        <time>2022-08-24T16:53:24Z</time>
      </trkpt>
      <trkpt lat="42.82768299999994" lon="-1.5960699999999957">
        <ele>441.055</ele>
        <time>2022-08-24T16:53:25Z</time>
      </trkpt>
      <trkpt lat="42.82772299999994" lon="-1.5960769999999957">
        <ele>440.837</ele>
        <time>2022-08-24T16:53:26Z</time>
      </trkpt>
      <trkpt lat="42.82776199999994" lon="-1.5960829999999957">
        <ele>441.024</ele>
        <time>2022-08-24T16:53:27Z</time>
      </trkpt>
      <trkpt lat="42.82779899999994" lon="-1.5960839999999956">
        <ele>441.017</ele>
        <time>2022-08-24T16:53:28Z</time>
      </trkpt>
      <trkpt lat="42.827836999999946" lon="-1.5960859999999957">
        <ele>440.881</ele>
        <time>2022-08-24T16:53:29Z</time>
      </trkpt>
      <trkpt lat="42.827876999999944" lon="-1.5960919999999956">
        <ele>440.840</ele>
        <time>2022-08-24T16:53:30Z</time>
      </trkpt>
      <trkpt lat="42.82791499999995" lon="-1.5960979999999956">
        <ele>440.868</ele>
        <time>2022-08-24T16:53:31Z</time>
      </trkpt>
      <trkpt lat="42.82795299999995" lon="-1.5961039999999955">
        <ele>440.842</ele>
        <time>2022-08-24T16:53:32Z</time>
      </trkpt>
      <trkpt lat="42.82802599999995" lon="-1.5960989999999955">
        <ele>440.826</ele>
        <time>2022-08-24T16:53:34Z</time>
      </trkpt>
      <trkpt lat="42.828055999999954" lon="-1.5960829999999955">
        <ele>440.809</ele>
        <time>2022-08-24T16:53:35Z</time>
      </trkpt>
      <trkpt lat="42.82808199999995" lon="-1.5960699999999954">
        <ele>440.887</ele>
        <time>2022-08-24T16:53:36Z</time>
      </trkpt>
      <trkpt lat="42.82810699999995" lon="-1.5960559999999955">
        <ele>440.877</ele>
        <time>2022-08-24T16:53:37Z</time>
      </trkpt>
      <trkpt lat="42.82813599999995" lon="-1.5960499999999955">
        <ele>440.817</ele>
        <time>2022-08-24T16:53:38Z</time>
      </trkpt>
      <trkpt lat="42.82817599999995" lon="-1.5960499999999955">
        <ele>440.693</ele>
        <time>2022-08-24T16:53:39Z</time>
      </trkpt>
      <trkpt lat="42.82822699999995" lon="-1.5960489999999956">
        <ele>440.425</ele>
        <time>2022-08-24T16:53:40Z</time>
      </trkpt>
      <trkpt lat="42.82827099999995" lon="-1.5960399999999957">
        <ele>440.082</ele>
        <time>2022-08-24T16:53:41Z</time>
      </trkpt>
      <trkpt lat="42.82831099999995" lon="-1.5960169999999956">
        <ele>439.625</ele>
        <time>2022-08-24T16:53:42Z</time>
      </trkpt>
      <trkpt lat="42.82834699999995" lon="-1.5959889999999957">
        <ele>439.699</ele>
        <time>2022-08-24T16:53:43Z</time>
      </trkpt>
      <trkpt lat="42.82838599999995" lon="-1.5959639999999957">
        <ele>439.248</ele>
        <time>2022-08-24T16:53:44Z</time>
      </trkpt>
      <trkpt lat="42.82842299999995" lon="-1.5959369999999957">
        <ele>439.074</ele>
        <time>2022-08-24T16:53:45Z</time>
      </trkpt>
      <trkpt lat="42.82849999999995" lon="-1.5958979999999958">
        <ele>438.656</ele>
        <time>2022-08-24T16:53:47Z</time>
      </trkpt>
      <trkpt lat="42.82853699999995" lon="-1.5958829999999957">
        <ele>438.421</ele>
        <time>2022-08-24T16:53:48Z</time>
      </trkpt>
      <trkpt lat="42.82861299999995" lon="-1.5958579999999958">
        <ele>438.209</ele>
        <time>2022-08-24T16:53:50Z</time>
      </trkpt>
      <trkpt lat="42.82865199999995" lon="-1.5958489999999959">
        <ele>438.448</ele>
        <time>2022-08-24T16:53:51Z</time>
      </trkpt>
      <trkpt lat="42.82869399999995" lon="-1.5958439999999958">
        <ele>438.628</ele>
        <time>2022-08-24T16:53:52Z</time>
      </trkpt>
      <trkpt lat="42.82884099999995" lon="-1.5958609999999958">
        <ele>438.488</ele>
        <time>2022-08-24T16:53:55Z</time>
      </trkpt>
      <trkpt lat="42.82888599999995" lon="-1.5958549999999958">
        <ele>438.664</ele>
        <time>2022-08-24T16:53:56Z</time>
      </trkpt>
      <trkpt lat="42.82892999999995" lon="-1.5958399999999957">
        <ele>438.666</ele>
        <time>2022-08-24T16:53:57Z</time>
      </trkpt>
      <trkpt lat="42.82896999999995" lon="-1.5958169999999956">
        <ele>438.663</ele>
        <time>2022-08-24T16:53:58Z</time>
      </trkpt>
      <trkpt lat="42.82901199999995" lon="-1.5957889999999957">
        <ele>438.666</ele>
        <time>2022-08-24T16:53:59Z</time>
      </trkpt>
      <trkpt lat="42.82904899999995" lon="-1.5957569999999957">
        <ele>438.650</ele>
        <time>2022-08-24T16:54:00Z</time>
      </trkpt>
      <trkpt lat="42.82908199999995" lon="-1.5957249999999956">
        <ele>438.629</ele>
        <time>2022-08-24T16:54:01Z</time>
      </trkpt>
      <trkpt lat="42.82911499999995" lon="-1.5956889999999957">
        <ele>438.681</ele>
        <time>2022-08-24T16:54:02Z</time>
      </trkpt>
      <trkpt lat="42.82914299999995" lon="-1.5956559999999957">
        <ele>438.661</ele>
        <time>2022-08-24T16:54:03Z</time>
      </trkpt>
      <trkpt lat="42.82916399999995" lon="-1.5956229999999958">
        <ele>438.617</ele>
        <time>2022-08-24T16:54:04Z</time>
      </trkpt>
      <trkpt lat="42.82918099999995" lon="-1.5955859999999957">
        <ele>438.609</ele>
        <time>2022-08-24T16:54:05Z</time>
      </trkpt>
      <trkpt lat="42.829198999999946" lon="-1.5955459999999957">
        <ele>438.629</ele>
        <time>2022-08-24T16:54:06Z</time>
      </trkpt>
      <trkpt lat="42.82921399999994" lon="-1.5955099999999958">
        <ele>438.689</ele>
        <time>2022-08-24T16:54:07Z</time>
      </trkpt>
      <trkpt lat="42.829226999999946" lon="-1.5954759999999957">
        <ele>438.649</ele>
        <time>2022-08-24T16:54:08Z</time>
      </trkpt>
      <trkpt lat="42.82923699999995" lon="-1.5954419999999956">
        <ele>438.645</ele>
        <time>2022-08-24T16:54:09Z</time>
      </trkpt>
      <trkpt lat="42.82927099999995" lon="-1.5953329999999957">
        <ele>439.227</ele>
        <time>2022-08-24T16:54:12Z</time>
      </trkpt>
      <trkpt lat="42.82927899999995" lon="-1.5952969999999957">
        <ele>439.274</ele>
        <time>2022-08-24T16:54:13Z</time>
      </trkpt>
      <trkpt lat="42.82929299999995" lon="-1.5952619999999957">
        <ele>439.057</ele>
        <time>2022-08-24T16:54:14Z</time>
      </trkpt>
      <trkpt lat="42.82932199999995" lon="-1.5952069999999958">
        <ele>439.071</ele>
        <time>2022-08-24T16:54:16Z</time>
      </trkpt>
      <trkpt lat="42.829336999999946" lon="-1.5951919999999957">
        <ele>439.070</ele>
        <time>2022-08-24T16:54:17Z</time>
      </trkpt>
      <trkpt lat="42.82935499999994" lon="-1.5951849999999956">
        <ele>439.237</ele>
        <time>2022-08-24T16:54:18Z</time>
      </trkpt>
      <trkpt lat="42.829373999999945" lon="-1.5951859999999956">
        <ele>439.249</ele>
        <time>2022-08-24T16:54:19Z</time>
      </trkpt>
      <trkpt lat="42.82938899999994" lon="-1.5951919999999955">
        <ele>439.213</ele>
        <time>2022-08-24T16:54:20Z</time>
      </trkpt>
      <trkpt lat="42.82941499999994" lon="-1.5952029999999955">
        <ele>440.209</ele>
        <time>2022-08-24T16:54:37Z</time>
      </trkpt>
      <trkpt lat="42.82942599999994" lon="-1.5952129999999956">
        <ele>440.224</ele>
        <time>2022-08-24T16:54:38Z</time>
      </trkpt>
      <trkpt lat="42.829480999999944" lon="-1.5952439999999954">
        <ele>440.844</ele>
        <time>2022-08-24T16:54:43Z</time>
      </trkpt>
      <trkpt lat="42.829491999999945" lon="-1.5952489999999955">
        <ele>440.824</ele>
        <time>2022-08-24T16:54:44Z</time>
      </trkpt>
      <trkpt lat="42.82952199999995" lon="-1.5952659999999954">
        <ele>441.210</ele>
        <time>2022-08-24T16:54:48Z</time>
      </trkpt>
      <trkpt lat="42.82955999999995" lon="-1.5953059999999954">
        <ele>441.622</ele>
        <time>2022-08-24T16:54:54Z</time>
      </trkpt>
      <trkpt lat="42.829569999999954" lon="-1.5953129999999955">
        <ele>441.649</ele>
        <time>2022-08-24T16:54:55Z</time>
      </trkpt>
      <trkpt lat="42.82968099999995" lon="-1.5954069999999956">
        <ele>441.632</ele>
        <time>2022-08-24T16:55:01Z</time>
      </trkpt>
      <trkpt lat="42.82976599999995" lon="-1.5954949999999957">
        <ele>441.436</ele>
        <time>2022-08-24T16:55:05Z</time>
      </trkpt>
      <trkpt lat="42.82977199999995" lon="-1.5955379999999957">
        <ele>441.275</ele>
        <time>2022-08-24T16:55:06Z</time>
      </trkpt>
      <trkpt lat="42.82976599999995" lon="-1.5955859999999957">
        <ele>441.246</ele>
        <time>2022-08-24T16:55:07Z</time>
      </trkpt>
      <trkpt lat="42.82971499999995" lon="-1.5957619999999957">
        <ele>440.688</ele>
        <time>2022-08-24T16:55:10Z</time>
      </trkpt>
      <trkpt lat="42.82969999999995" lon="-1.5958179999999957">
        <ele>440.416</ele>
        <time>2022-08-24T16:55:11Z</time>
      </trkpt>
      <trkpt lat="42.829687999999955" lon="-1.5958659999999958">
        <ele>440.209</ele>
        <time>2022-08-24T16:55:12Z</time>
      </trkpt>
      <trkpt lat="42.82967799999995" lon="-1.5959079999999959">
        <ele>439.865</ele>
        <time>2022-08-24T16:55:13Z</time>
      </trkpt>
      <trkpt lat="42.82967199999995" lon="-1.595944999999996">
        <ele>439.675</ele>
        <time>2022-08-24T16:55:14Z</time>
      </trkpt>
      <trkpt lat="42.82966599999995" lon="-1.595976999999996">
        <ele>439.275</ele>
        <time>2022-08-24T16:55:15Z</time>
      </trkpt>
      <trkpt lat="42.829664999999956" lon="-1.5960079999999959">
        <ele>439.041</ele>
        <time>2022-08-24T16:55:16Z</time>
      </trkpt>
      <trkpt lat="42.82967199999995" lon="-1.596039999999996">
        <ele>439.013</ele>
        <time>2022-08-24T16:55:17Z</time>
      </trkpt>
      <trkpt lat="42.82968599999995" lon="-1.596073999999996">
        <ele>438.890</ele>
        <time>2022-08-24T16:55:18Z</time>
      </trkpt>
      <trkpt lat="42.82970099999995" lon="-1.596108999999996">
        <ele>438.823</ele>
        <time>2022-08-24T16:55:19Z</time>
      </trkpt>
      <trkpt lat="42.82971599999995" lon="-1.596146999999996">
        <ele>438.837</ele>
        <time>2022-08-24T16:55:20Z</time>
      </trkpt>
      <trkpt lat="42.829733999999945" lon="-1.596188999999996">
        <ele>438.836</ele>
        <time>2022-08-24T16:55:21Z</time>
      </trkpt>
      <trkpt lat="42.82977199999995" lon="-1.5962659999999962">
        <ele>438.854</ele>
        <time>2022-08-24T16:55:23Z</time>
      </trkpt>
      <trkpt lat="42.82979199999995" lon="-1.596285999999996">
        <ele>439.056</ele>
        <time>2022-08-24T16:55:24Z</time>
      </trkpt>
      <trkpt lat="42.829806999999946" lon="-1.596288999999996">
        <ele>439.411</ele>
        <time>2022-08-24T16:55:25Z</time>
      </trkpt>
      <trkpt lat="42.829823999999945" lon="-1.596288999999996">
        <ele>439.409</ele>
        <time>2022-08-24T16:55:26Z</time>
      </trkpt>
      <trkpt lat="42.82984299999995" lon="-1.5962879999999962">
        <ele>439.436</ele>
        <time>2022-08-24T16:55:27Z</time>
      </trkpt>
      <trkpt lat="42.82985699999995" lon="-1.5962869999999962">
        <ele>439.426</ele>
        <time>2022-08-24T16:55:28Z</time>
      </trkpt>
      <trkpt lat="42.829874999999944" lon="-1.5962899999999962">
        <ele>439.476</ele>
        <time>2022-08-24T16:55:29Z</time>
      </trkpt>
      <trkpt lat="42.82989099999995" lon="-1.5962859999999963">
        <ele>439.442</ele>
        <time>2022-08-24T16:55:30Z</time>
      </trkpt>
      <trkpt lat="42.829907999999946" lon="-1.5962849999999964">
        <ele>439.494</ele>
        <time>2022-08-24T16:55:31Z</time>
      </trkpt>
      <trkpt lat="42.830051999999945" lon="-1.5962629999999964">
        <ele>439.421</ele>
        <time>2022-08-24T16:55:37Z</time>
      </trkpt>
      <trkpt lat="42.83028199999995" lon="-1.5963229999999964">
        <ele>438.884</ele>
        <time>2022-08-24T16:55:44Z</time>
      </trkpt>
      <trkpt lat="42.83034299999995" lon="-1.5963649999999965">
        <ele>438.668</ele>
        <time>2022-08-24T16:55:46Z</time>
      </trkpt>
      <trkpt lat="42.83036599999995" lon="-1.5963849999999964">
        <ele>438.667</ele>
        <time>2022-08-24T16:55:47Z</time>
      </trkpt>
      <trkpt lat="42.83038599999995" lon="-1.5964019999999963">
        <ele>438.675</ele>
        <time>2022-08-24T16:55:48Z</time>
      </trkpt>
      <trkpt lat="42.83039899999995" lon="-1.5964239999999963">
        <ele>438.628</ele>
        <time>2022-08-24T16:55:49Z</time>
      </trkpt>
      <trkpt lat="42.83040799999995" lon="-1.5964419999999964">
        <ele>438.620</ele>
        <time>2022-08-24T16:55:50Z</time>
      </trkpt>
      <trkpt lat="42.83043799999995" lon="-1.5964699999999963">
        <ele>438.409</ele>
        <time>2022-08-24T16:58:48Z</time>
      </trkpt>
      <trkpt lat="42.83051399999995" lon="-1.5965019999999963">
        <ele>438.438</ele>
        <time>2022-08-24T16:58:51Z</time>
      </trkpt>
      <trkpt lat="42.83056499999995" lon="-1.5965309999999964">
        <ele>438.458</ele>
        <time>2022-08-24T16:58:53Z</time>
      </trkpt>
      <trkpt lat="42.83058499999995" lon="-1.5965479999999963">
        <ele>438.458</ele>
        <time>2022-08-24T16:58:54Z</time>
      </trkpt>
      <trkpt lat="42.83060499999995" lon="-1.5965659999999964">
        <ele>438.474</ele>
        <time>2022-08-24T16:58:55Z</time>
      </trkpt>
      <trkpt lat="42.83064699999995" lon="-1.5966069999999963">
        <ele>438.456</ele>
        <time>2022-08-24T16:58:57Z</time>
      </trkpt>
      <trkpt lat="42.83083799999995" lon="-1.5967529999999963">
        <ele>438.493</ele>
        <time>2022-08-24T16:59:04Z</time>
      </trkpt>
      <trkpt lat="42.83093699999995" lon="-1.5968509999999962">
        <ele>438.286</ele>
        <time>2022-08-24T16:59:07Z</time>
      </trkpt>
      <trkpt lat="42.83107299999995" lon="-1.5969879999999963">
        <ele>438.220</ele>
        <time>2022-08-24T16:59:11Z</time>
      </trkpt>
      <trkpt lat="42.831256999999944" lon="-1.5971729999999964">
        <ele>438.289</ele>
        <time>2022-08-24T16:59:16Z</time>
      </trkpt>
      <trkpt lat="42.83129399999994" lon="-1.5972069999999965">
        <ele>438.249</ele>
        <time>2022-08-24T16:59:17Z</time>
      </trkpt>
      <trkpt lat="42.831329999999944" lon="-1.5972409999999966">
        <ele>438.402</ele>
        <time>2022-08-24T16:59:18Z</time>
      </trkpt>
      <trkpt lat="42.83136699999994" lon="-1.5972739999999965">
        <ele>438.422</ele>
        <time>2022-08-24T16:59:19Z</time>
      </trkpt>
      <trkpt lat="42.83140199999994" lon="-1.5973069999999965">
        <ele>438.409</ele>
        <time>2022-08-24T16:59:20Z</time>
      </trkpt>
      <trkpt lat="42.83143799999994" lon="-1.5973399999999964">
        <ele>438.435</ele>
        <time>2022-08-24T16:59:21Z</time>
      </trkpt>
      <trkpt lat="42.83151099999994" lon="-1.5974049999999964">
        <ele>438.415</ele>
        <time>2022-08-24T16:59:23Z</time>
      </trkpt>
      <trkpt lat="42.831546999999944" lon="-1.5974349999999964">
        <ele>438.425</ele>
        <time>2022-08-24T16:59:24Z</time>
      </trkpt>
      <trkpt lat="42.83158099999994" lon="-1.5974649999999964">
        <ele>438.421</ele>
        <time>2022-08-24T16:59:25Z</time>
      </trkpt>
      <trkpt lat="42.831613999999945" lon="-1.5974949999999963">
        <ele>438.463</ele>
        <time>2022-08-24T16:59:26Z</time>
      </trkpt>
      <trkpt lat="42.831644999999945" lon="-1.5975219999999963">
        <ele>438.450</ele>
        <time>2022-08-24T16:59:27Z</time>
      </trkpt>
      <trkpt lat="42.831703999999945" lon="-1.5975779999999964">
        <ele>438.273</ele>
        <time>2022-08-24T16:59:29Z</time>
      </trkpt>
      <trkpt lat="42.831911999999946" lon="-1.5977679999999963">
        <ele>438.247</ele>
        <time>2022-08-24T16:59:35Z</time>
      </trkpt>
      <trkpt lat="42.83194799999995" lon="-1.5977939999999964">
        <ele>438.456</ele>
        <time>2022-08-24T16:59:36Z</time>
      </trkpt>
      <trkpt lat="42.83198599999995" lon="-1.5978169999999965">
        <ele>438.442</ele>
        <time>2022-08-24T16:59:37Z</time>
      </trkpt>
      <trkpt lat="42.83202099999995" lon="-1.5978349999999966">
        <ele>438.422</ele>
        <time>2022-08-24T16:59:38Z</time>
      </trkpt>
      <trkpt lat="42.83205899999995" lon="-1.5978559999999966">
        <ele>438.414</ele>
        <time>2022-08-24T16:59:39Z</time>
      </trkpt>
      <trkpt lat="42.83221399999995" lon="-1.5979379999999965">
        <ele>438.209</ele>
        <time>2022-08-24T16:59:43Z</time>
      </trkpt>
      <trkpt lat="42.83229699999995" lon="-1.5980119999999964">
        <ele>438.255</ele>
        <time>2022-08-24T16:59:45Z</time>
      </trkpt>
      <trkpt lat="42.83236899999995" lon="-1.5981099999999964">
        <ele>438.075</ele>
        <time>2022-08-24T16:59:47Z</time>
      </trkpt>
      <trkpt lat="42.83241999999995" lon="-1.5982209999999963">
        <ele>438.065</ele>
        <time>2022-08-24T16:59:49Z</time>
      </trkpt>
      <trkpt lat="42.83243899999995" lon="-1.5982759999999963">
        <ele>438.051</ele>
        <time>2022-08-24T16:59:50Z</time>
      </trkpt>
      <trkpt lat="42.832462999999954" lon="-1.5983299999999963">
        <ele>437.883</ele>
        <time>2022-08-24T16:59:51Z</time>
      </trkpt>
      <trkpt lat="42.83248899999995" lon="-1.5983829999999963">
        <ele>437.870</ele>
        <time>2022-08-24T16:59:52Z</time>
      </trkpt>
      <trkpt lat="42.832507999999955" lon="-1.5984389999999964">
        <ele>437.633</ele>
        <time>2022-08-24T16:59:53Z</time>
      </trkpt>
      <trkpt lat="42.83253099999995" lon="-1.5984989999999963">
        <ele>437.487</ele>
        <time>2022-08-24T16:59:54Z</time>
      </trkpt>
      <trkpt lat="42.832549999999955" lon="-1.5985589999999963">
        <ele>437.436</ele>
        <time>2022-08-24T16:59:55Z</time>
      </trkpt>
      <trkpt lat="42.83256599999996" lon="-1.5986109999999962">
        <ele>437.284</ele>
        <time>2022-08-24T16:59:56Z</time>
      </trkpt>
      <trkpt lat="42.83259299999996" lon="-1.5986859999999963">
        <ele>437.207</ele>
        <time>2022-08-24T16:59:57Z</time>
      </trkpt>
      <trkpt lat="42.83261899999996" lon="-1.5987479999999963">
        <ele>437.217</ele>
        <time>2022-08-24T16:59:58Z</time>
      </trkpt>
      <trkpt lat="42.832639999999955" lon="-1.5987979999999964">
        <ele>437.209</ele>
        <time>2022-08-24T16:59:59Z</time>
      </trkpt>
      <trkpt lat="42.83266699999996" lon="-1.5988569999999964">
        <ele>437.099</ele>
        <time>2022-08-24T17:00:00Z</time>
      </trkpt>
      <trkpt lat="42.83269199999996" lon="-1.5989179999999965">
        <ele>436.889</ele>
        <time>2022-08-24T17:00:01Z</time>
      </trkpt>
      <trkpt lat="42.83271999999996" lon="-1.5989959999999965">
        <ele>436.839</ele>
        <time>2022-08-24T17:00:02Z</time>
      </trkpt>
      <trkpt lat="42.83273999999996" lon="-1.5990589999999965">
        <ele>436.655</ele>
        <time>2022-08-24T17:00:03Z</time>
      </trkpt>
      <trkpt lat="42.83275399999996" lon="-1.5991089999999966">
        <ele>436.637</ele>
        <time>2022-08-24T17:00:04Z</time>
      </trkpt>
      <trkpt lat="42.83279799999996" lon="-1.5992359999999965">
        <ele>436.674</ele>
        <time>2022-08-24T17:00:06Z</time>
      </trkpt>
      <trkpt lat="42.83281899999996" lon="-1.5992919999999966">
        <ele>436.657</ele>
        <time>2022-08-24T17:00:07Z</time>
      </trkpt>
      <trkpt lat="42.83285499999996" lon="-1.5994059999999966">
        <ele>436.481</ele>
        <time>2022-08-24T17:00:09Z</time>
      </trkpt>
      <trkpt lat="42.83286899999996" lon="-1.5994629999999965">
        <ele>436.420</ele>
        <time>2022-08-24T17:00:10Z</time>
      </trkpt>
      <trkpt lat="42.83288299999996" lon="-1.5995159999999966">
        <ele>436.431</ele>
        <time>2022-08-24T17:00:11Z</time>
      </trkpt>
      <trkpt lat="42.83290199999996" lon="-1.5995539999999966">
        <ele>436.461</ele>
        <time>2022-08-24T17:00:12Z</time>
      </trkpt>
      <trkpt lat="42.83292699999996" lon="-1.5995769999999967">
        <ele>436.607</ele>
        <time>2022-08-24T17:00:13Z</time>
      </trkpt>
      <trkpt lat="42.83295499999996" lon="-1.5995869999999968">
        <ele>436.209</ele>
        <time>2022-08-24T17:00:14Z</time>
      </trkpt>
      <trkpt lat="42.83298299999996" lon="-1.5995959999999967">
        <ele>436.224</ele>
        <time>2022-08-24T17:00:15Z</time>
      </trkpt>
      <trkpt lat="42.833001999999965" lon="-1.5996239999999966">
        <ele>436.284</ele>
        <time>2022-08-24T17:00:16Z</time>
      </trkpt>
      <trkpt lat="42.83301099999996" lon="-1.5996609999999967">
        <ele>436.074</ele>
        <time>2022-08-24T17:00:17Z</time>
      </trkpt>
      <trkpt lat="42.833004999999964" lon="-1.5997009999999967">
        <ele>436.040</ele>
        <time>2022-08-24T17:00:18Z</time>
      </trkpt>
      <trkpt lat="42.832993999999964" lon="-1.5997419999999967">
        <ele>436.022</ele>
        <time>2022-08-24T17:00:19Z</time>
      </trkpt>
      <trkpt lat="42.832936999999966" lon="-1.5999919999999968">
        <ele>436.229</ele>
        <time>2022-08-24T17:00:24Z</time>
      </trkpt>
      <trkpt lat="42.832922999999965" lon="-1.6000439999999967">
        <ele>436.252</ele>
        <time>2022-08-24T17:00:25Z</time>
      </trkpt>
      <trkpt lat="42.832911999999965" lon="-1.6000929999999967">
        <ele>436.246</ele>
        <time>2022-08-24T17:00:26Z</time>
      </trkpt>
      <trkpt lat="42.832902999999966" lon="-1.6001369999999966">
        <ele>436.215</ele>
        <time>2022-08-24T17:00:27Z</time>
      </trkpt>
      <trkpt lat="42.83289099999997" lon="-1.6002259999999966">
        <ele>436.268</ele>
        <time>2022-08-24T17:00:29Z</time>
      </trkpt>
      <trkpt lat="42.83288399999997" lon="-1.6002709999999967">
        <ele>436.242</ele>
        <time>2022-08-24T17:00:30Z</time>
      </trkpt>
      <trkpt lat="42.832876999999975" lon="-1.6003139999999967">
        <ele>436.226</ele>
        <time>2022-08-24T17:00:31Z</time>
      </trkpt>
      <trkpt lat="42.83287499999997" lon="-1.6003549999999966">
        <ele>436.409</ele>
        <time>2022-08-24T17:00:32Z</time>
      </trkpt>
      <trkpt lat="42.832873999999975" lon="-1.6003969999999967">
        <ele>436.437</ele>
        <time>2022-08-24T17:00:33Z</time>
      </trkpt>
      <trkpt lat="42.83287199999997" lon="-1.6004359999999966">
        <ele>436.617</ele>
        <time>2022-08-24T17:00:34Z</time>
      </trkpt>
      <trkpt lat="42.832867999999976" lon="-1.6005139999999967">
        <ele>437.227</ele>
        <time>2022-08-24T17:00:36Z</time>
      </trkpt>
      <trkpt lat="42.832868999999974" lon="-1.6005539999999967">
        <ele>437.263</ele>
        <time>2022-08-24T17:00:37Z</time>
      </trkpt>
      <trkpt lat="42.832867999999976" lon="-1.6005919999999967">
        <ele>437.425</ele>
        <time>2022-08-24T17:00:38Z</time>
      </trkpt>
      <trkpt lat="42.83286699999998" lon="-1.6006299999999967">
        <ele>437.612</ele>
        <time>2022-08-24T17:00:39Z</time>
      </trkpt>
      <trkpt lat="42.83286899999998" lon="-1.6007139999999966">
        <ele>437.855</ele>
        <time>2022-08-24T17:00:41Z</time>
      </trkpt>
      <trkpt lat="42.83287799999998" lon="-1.6007929999999966">
        <ele>437.659</ele>
        <time>2022-08-24T17:00:43Z</time>
      </trkpt>
      <trkpt lat="42.83289399999998" lon="-1.6008519999999966">
        <ele>437.648</ele>
        <time>2022-08-24T17:00:44Z</time>
      </trkpt>
      <trkpt lat="42.832909999999984" lon="-1.6009169999999966">
        <ele>437.448</ele>
        <time>2022-08-24T17:00:45Z</time>
      </trkpt>
      <trkpt lat="42.83291999999999" lon="-1.6009829999999965">
        <ele>437.461</ele>
        <time>2022-08-24T17:00:46Z</time>
      </trkpt>
      <trkpt lat="42.83294199999999" lon="-1.6010489999999964">
        <ele>437.017</ele>
        <time>2022-08-24T17:00:47Z</time>
      </trkpt>
      <trkpt lat="42.83295099999999" lon="-1.6011009999999963">
        <ele>436.809</ele>
        <time>2022-08-24T17:00:48Z</time>
      </trkpt>
      <trkpt lat="42.83296399999999" lon="-1.6011589999999962">
        <ele>436.825</ele>
        <time>2022-08-24T17:00:49Z</time>
      </trkpt>
      <trkpt lat="42.83296799999999" lon="-1.6012039999999963">
        <ele>436.645</ele>
        <time>2022-08-24T17:00:50Z</time>
      </trkpt>
      <trkpt lat="42.832968999999984" lon="-1.6012469999999963">
        <ele>436.655</ele>
        <time>2022-08-24T17:00:51Z</time>
      </trkpt>
      <trkpt lat="42.83296699999998" lon="-1.6012809999999964">
        <ele>436.621</ele>
        <time>2022-08-24T17:00:52Z</time>
      </trkpt>
      <trkpt lat="42.83297099999998" lon="-1.6013019999999965">
        <ele>436.683</ele>
        <time>2022-08-24T17:00:53Z</time>
      </trkpt>
      <trkpt lat="42.83297399999998" lon="-1.6013179999999965">
        <ele>436.640</ele>
        <time>2022-08-24T17:00:54Z</time>
      </trkpt>
      <trkpt lat="42.83297199999998" lon="-1.6013459999999964">
        <ele>436.623</ele>
        <time>2022-08-24T17:00:55Z</time>
      </trkpt>
      <trkpt lat="42.83296499999998" lon="-1.6013609999999965">
        <ele>436.647</ele>
        <time>2022-08-24T17:00:56Z</time>
      </trkpt>
      <trkpt lat="42.83296199999998" lon="-1.6013629999999965">
        <ele>436.676</ele>
        <time>2022-08-24T17:00:57Z</time>
      </trkpt>
      <trkpt lat="42.83296199999998" lon="-1.6013629999999965">
        <ele>436.637</ele>
        <time>2022-08-24T17:00:58Z</time>
      </trkpt>
      <trkpt lat="42.83296199999998" lon="-1.6013629999999965">
        <ele>436.649</ele>
        <time>2022-08-24T17:00:59Z</time>
      </trkpt>
      <trkpt lat="42.83296199999998" lon="-1.6013629999999965">
        <ele>436.613</ele>
        <time>2022-08-24T17:01:00Z</time>
      </trkpt>
      <trkpt lat="42.83296199999998" lon="-1.6013629999999965">
        <ele>436.609</ele>
        <time>2022-08-24T17:01:01Z</time>
      </trkpt>
      <trkpt lat="42.83296299999998" lon="-1.6013569999999966">
        <ele>436.634</ele>
        <time>2022-08-24T17:01:03Z</time>
      </trkpt>
      <trkpt lat="42.83296299999998" lon="-1.6013569999999966">
        <ele>436.684</ele>
        <time>2022-08-24T17:01:04Z</time>
      </trkpt>
      <trkpt lat="42.83295799999998" lon="-1.6013579999999965">
        <ele>436.684</ele>
        <time>2022-08-24T17:01:07Z</time>
      </trkpt>
      <trkpt lat="42.832941999999974" lon="-1.6013629999999965">
        <ele>436.630</ele>
        <time>2022-08-24T17:01:09Z</time>
      </trkpt>
      <trkpt lat="42.83292099999998" lon="-1.6013809999999966">
        <ele>436.632</ele>
        <time>2022-08-24T17:01:11Z</time>
      </trkpt>
      <trkpt lat="42.832904999999975" lon="-1.6013949999999966">
        <ele>436.669</ele>
        <time>2022-08-24T17:01:12Z</time>
      </trkpt>
      <trkpt lat="42.83286399999997" lon="-1.6014379999999966">
        <ele>436.612</ele>
        <time>2022-08-24T17:01:14Z</time>
      </trkpt>
      <trkpt lat="42.83271999999997" lon="-1.6015599999999965">
        <ele>436.636</ele>
        <time>2022-08-24T17:01:19Z</time>
      </trkpt>
      <trkpt lat="42.832665999999975" lon="-1.6016029999999966">
        <ele>436.475</ele>
        <time>2022-08-24T17:01:21Z</time>
      </trkpt>
      <trkpt lat="42.832538999999976" lon="-1.6016989999999967">
        <ele>436.467</ele>
        <time>2022-08-24T17:01:25Z</time>
      </trkpt>
      <trkpt lat="42.83250699999998" lon="-1.6017219999999968">
        <ele>436.281</ele>
        <time>2022-08-24T17:01:26Z</time>
      </trkpt>
      <trkpt lat="42.83248499999998" lon="-1.6017389999999967">
        <ele>436.219</ele>
        <time>2022-08-24T17:01:27Z</time>
      </trkpt>
      <trkpt lat="42.83245699999998" lon="-1.6017609999999967">
        <ele>436.209</ele>
        <time>2022-08-24T17:01:28Z</time>
      </trkpt>
      <trkpt lat="42.83235999999998" lon="-1.6018489999999967">
        <ele>436.227</ele>
        <time>2022-08-24T17:01:31Z</time>
      </trkpt>
      <trkpt lat="42.83233499999998" lon="-1.6018699999999968">
        <ele>436.027</ele>
        <time>2022-08-24T17:01:32Z</time>
      </trkpt>
      <trkpt lat="42.83230699999998" lon="-1.6018919999999968">
        <ele>435.887</ele>
        <time>2022-08-24T17:01:33Z</time>
      </trkpt>
      <trkpt lat="42.83228499999998" lon="-1.6019099999999968">
        <ele>435.883</ele>
        <time>2022-08-24T17:01:34Z</time>
      </trkpt>
      <trkpt lat="42.83225999999998" lon="-1.6019319999999968">
        <ele>435.625</ele>
        <time>2022-08-24T17:01:35Z</time>
      </trkpt>
      <trkpt lat="42.83223899999998" lon="-1.6019509999999968">
        <ele>435.642</ele>
        <time>2022-08-24T17:01:36Z</time>
      </trkpt>
      <trkpt lat="42.83216399999998" lon="-1.6020059999999967">
        <ele>435.675</ele>
        <time>2022-08-24T17:01:39Z</time>
      </trkpt>
      <trkpt lat="42.83210999999998" lon="-1.6020469999999967">
        <ele>435.659</ele>
        <time>2022-08-24T17:01:41Z</time>
      </trkpt>
      <trkpt lat="42.83202699999998" lon="-1.6021109999999967">
        <ele>435.648</ele>
        <time>2022-08-24T17:01:44Z</time>
      </trkpt>
      <trkpt lat="42.83199399999998" lon="-1.6021369999999968">
        <ele>435.457</ele>
        <time>2022-08-24T17:01:45Z</time>
      </trkpt>
      <trkpt lat="42.83196799999998" lon="-1.6021579999999969">
        <ele>435.400</ele>
        <time>2022-08-24T17:01:46Z</time>
      </trkpt>
      <trkpt lat="42.83186499999998" lon="-1.6022479999999968">
        <ele>435.220</ele>
        <time>2022-08-24T17:01:50Z</time>
      </trkpt>
      <trkpt lat="42.83183099999998" lon="-1.6022739999999969">
        <ele>435.209</ele>
        <time>2022-08-24T17:01:51Z</time>
      </trkpt>
      <trkpt lat="42.83180999999998" lon="-1.6022899999999969">
        <ele>435.296</ele>
        <time>2022-08-24T17:01:52Z</time>
      </trkpt>
      <trkpt lat="42.831786999999984" lon="-1.6023089999999969">
        <ele>435.276</ele>
        <time>2022-08-24T17:01:53Z</time>
      </trkpt>
      <trkpt lat="42.83176599999999" lon="-1.6023279999999969">
        <ele>435.276</ele>
        <time>2022-08-24T17:01:54Z</time>
      </trkpt>
      <trkpt lat="42.831738999999985" lon="-1.6023499999999968">
        <ele>435.262</ele>
        <time>2022-08-24T17:01:55Z</time>
      </trkpt>
      <trkpt lat="42.83171199999998" lon="-1.6023689999999968">
        <ele>435.234</ele>
        <time>2022-08-24T17:01:56Z</time>
      </trkpt>
      <trkpt lat="42.83169199999998" lon="-1.6023829999999968">
        <ele>435.031</ele>
        <time>2022-08-24T17:01:57Z</time>
      </trkpt>
      <trkpt lat="42.83166999999998" lon="-1.6024059999999969">
        <ele>435.024</ele>
        <time>2022-08-24T17:01:58Z</time>
      </trkpt>
      <trkpt lat="42.83164499999998" lon="-1.602423999999997">
        <ele>435.058</ele>
        <time>2022-08-24T17:01:59Z</time>
      </trkpt>
      <trkpt lat="42.83161499999998" lon="-1.602442999999997">
        <ele>435.067</ele>
        <time>2022-08-24T17:02:00Z</time>
      </trkpt>
      <trkpt lat="42.83159399999998" lon="-1.6024519999999969">
        <ele>434.896</ele>
        <time>2022-08-24T17:02:01Z</time>
      </trkpt>
      <trkpt lat="42.831575999999984" lon="-1.6024549999999969">
        <ele>434.831</ele>
        <time>2022-08-24T17:02:02Z</time>
      </trkpt>
      <trkpt lat="42.83155399999998" lon="-1.6024609999999968">
        <ele>434.824</ele>
        <time>2022-08-24T17:02:03Z</time>
      </trkpt>
      <trkpt lat="42.831535999999986" lon="-1.6024739999999968">
        <ele>434.809</ele>
        <time>2022-08-24T17:02:04Z</time>
      </trkpt>
      <trkpt lat="42.831521999999985" lon="-1.6024849999999968">
        <ele>434.640</ele>
        <time>2022-08-24T17:02:07Z</time>
      </trkpt>
      <trkpt lat="42.83151299999999" lon="-1.6024909999999968">
        <ele>434.660</ele>
        <time>2022-08-24T17:02:08Z</time>
      </trkpt>
      <trkpt lat="42.831504999999986" lon="-1.6025029999999967">
        <ele>434.650</ele>
        <time>2022-08-24T17:02:09Z</time>
      </trkpt>
      <trkpt lat="42.83145299999999" lon="-1.6025539999999967">
        <ele>434.666</ele>
        <time>2022-08-24T17:02:12Z</time>
      </trkpt>
      <trkpt lat="42.83133499999999" lon="-1.6026889999999967">
        <ele>434.438</ele>
        <time>2022-08-24T17:02:16Z</time>
      </trkpt>
      <trkpt lat="42.83129899999999" lon="-1.6027189999999967">
        <ele>434.415</ele>
        <time>2022-08-24T17:02:17Z</time>
      </trkpt>
      <trkpt lat="42.831195999999984" lon="-1.6028069999999968">
        <ele>434.848</ele>
        <time>2022-08-24T17:02:20Z</time>
      </trkpt>
      <trkpt lat="42.831152999999986" lon="-1.6028419999999968">
        <ele>434.822</ele>
        <time>2022-08-24T17:02:21Z</time>
      </trkpt>
      <trkpt lat="42.831113999999985" lon="-1.6028689999999968">
        <ele>434.881</ele>
        <time>2022-08-24T17:02:22Z</time>
      </trkpt>
      <trkpt lat="42.83108499999999" lon="-1.6028899999999968">
        <ele>434.846</ele>
        <time>2022-08-24T17:02:23Z</time>
      </trkpt>
      <trkpt lat="42.83105099999999" lon="-1.602915999999997">
        <ele>434.688</ele>
        <time>2022-08-24T17:02:24Z</time>
      </trkpt>
      <trkpt lat="42.83101899999999" lon="-1.602941999999997">
        <ele>434.816</ele>
        <time>2022-08-24T17:02:25Z</time>
      </trkpt>
      <trkpt lat="42.83098199999999" lon="-1.602974999999997">
        <ele>435.009</ele>
        <time>2022-08-24T17:02:26Z</time>
      </trkpt>
      <trkpt lat="42.83095399999999" lon="-1.6030029999999968">
        <ele>434.835</ele>
        <time>2022-08-24T17:02:27Z</time>
      </trkpt>
      <trkpt lat="42.83093199999999" lon="-1.603025999999997">
        <ele>435.015</ele>
        <time>2022-08-24T17:02:28Z</time>
      </trkpt>
      <trkpt lat="42.83082599999999" lon="-1.603105999999997">
        <ele>434.655</ele>
        <time>2022-08-24T17:02:31Z</time>
      </trkpt>
      <trkpt lat="42.83079399999999" lon="-1.6031319999999971">
        <ele>434.691</ele>
        <time>2022-08-24T17:02:32Z</time>
      </trkpt>
      <trkpt lat="42.83076799999999" lon="-1.603151999999997">
        <ele>434.483</ele>
        <time>2022-08-24T17:02:33Z</time>
      </trkpt>
      <trkpt lat="42.83073699999999" lon="-1.603175999999997">
        <ele>434.430</ele>
        <time>2022-08-24T17:02:34Z</time>
      </trkpt>
      <trkpt lat="42.83070699999999" lon="-1.603202999999997">
        <ele>434.463</ele>
        <time>2022-08-24T17:02:35Z</time>
      </trkpt>
      <trkpt lat="42.83067399999999" lon="-1.603230999999997">
        <ele>434.247</ele>
        <time>2022-08-24T17:02:36Z</time>
      </trkpt>
      <trkpt lat="42.830646999999985" lon="-1.603248999999997">
        <ele>434.266</ele>
        <time>2022-08-24T17:02:37Z</time>
      </trkpt>
      <trkpt lat="42.83062499999998" lon="-1.603260999999997">
        <ele>434.288</ele>
        <time>2022-08-24T17:02:38Z</time>
      </trkpt>
      <trkpt lat="42.83060099999998" lon="-1.603275999999997">
        <ele>434.224</ele>
        <time>2022-08-24T17:02:39Z</time>
      </trkpt>
      <trkpt lat="42.83058299999998" lon="-1.603293999999997">
        <ele>434.226</ele>
        <time>2022-08-24T17:02:40Z</time>
      </trkpt>
      <trkpt lat="42.83055899999998" lon="-1.603315999999997">
        <ele>434.209</ele>
        <time>2022-08-24T17:02:41Z</time>
      </trkpt>
      <trkpt lat="42.83049699999998" lon="-1.603370999999997">
        <ele>434.269</ele>
        <time>2022-08-24T17:02:44Z</time>
      </trkpt>
      <trkpt lat="42.83047599999998" lon="-1.603387999999997">
        <ele>434.219</ele>
        <time>2022-08-24T17:02:45Z</time>
      </trkpt>
      <trkpt lat="42.83044899999998" lon="-1.603400999999997">
        <ele>434.229</ele>
        <time>2022-08-24T17:02:46Z</time>
      </trkpt>
      <trkpt lat="42.83042699999998" lon="-1.603410999999997">
        <ele>434.245</ele>
        <time>2022-08-24T17:02:47Z</time>
      </trkpt>
      <trkpt lat="42.83039199999998" lon="-1.603439999999997">
        <ele>434.487</ele>
        <time>2022-08-24T17:02:49Z</time>
      </trkpt>
      <trkpt lat="42.83037499999998" lon="-1.603456999999997">
        <ele>434.454</ele>
        <time>2022-08-24T17:02:50Z</time>
      </trkpt>
      <trkpt lat="42.83035499999998" lon="-1.603473999999997">
        <ele>434.457</ele>
        <time>2022-08-24T17:02:51Z</time>
      </trkpt>
      <trkpt lat="42.83034499999998" lon="-1.603484999999997">
        <ele>434.481</ele>
        <time>2022-08-24T17:02:52Z</time>
      </trkpt>
      <trkpt lat="42.83032799999998" lon="-1.603498999999997">
        <ele>434.690</ele>
        <time>2022-08-24T17:02:53Z</time>
      </trkpt>
      <trkpt lat="42.83031599999998" lon="-1.603505999999997">
        <ele>434.675</ele>
        <time>2022-08-24T17:02:54Z</time>
      </trkpt>
      <trkpt lat="42.830303999999984" lon="-1.603513999999997">
        <ele>434.628</ele>
        <time>2022-08-24T17:02:55Z</time>
      </trkpt>
      <trkpt lat="42.83031399999999" lon="-1.603565999999997">
        <ele>434.420</ele>
        <time>2022-08-24T17:03:06Z</time>
      </trkpt>
      <trkpt lat="42.830319999999986" lon="-1.603586999999997">
        <ele>434.409</ele>
        <time>2022-08-24T17:03:07Z</time>
      </trkpt>
      <trkpt lat="42.830320999999984" lon="-1.603611999999997">
        <ele>434.488</ele>
        <time>2022-08-24T17:03:08Z</time>
      </trkpt>
      <trkpt lat="42.830311999999985" lon="-1.6036369999999969">
        <ele>434.268</ele>
        <time>2022-08-24T17:03:09Z</time>
      </trkpt>
      <trkpt lat="42.83029699999999" lon="-1.6036589999999968">
        <ele>434.268</ele>
        <time>2022-08-24T17:03:10Z</time>
      </trkpt>
      <trkpt lat="42.83027899999999" lon="-1.6036829999999969">
        <ele>434.084</ele>
        <time>2022-08-24T17:03:11Z</time>
      </trkpt>
      <trkpt lat="42.83024699999999" lon="-1.6037339999999969">
        <ele>434.066</ele>
        <time>2022-08-24T17:03:13Z</time>
      </trkpt>
      <trkpt lat="42.830237999999994" lon="-1.6037619999999968">
        <ele>434.023</ele>
        <time>2022-08-24T17:03:14Z</time>
      </trkpt>
      <trkpt lat="42.830228999999996" lon="-1.6037879999999969">
        <ele>434.046</ele>
        <time>2022-08-24T17:03:15Z</time>
      </trkpt>
      <trkpt lat="42.830225999999996" lon="-1.603811999999997">
        <ele>434.040</ele>
        <time>2022-08-24T17:03:16Z</time>
      </trkpt>
      <trkpt lat="42.830219" lon="-1.603835999999997">
        <ele>434.049</ele>
        <time>2022-08-24T17:03:17Z</time>
      </trkpt>
      <trkpt lat="42.830188" lon="-1.603873999999997">
        <ele>433.874</ele>
        <time>2022-08-24T17:03:19Z</time>
      </trkpt>
      <trkpt lat="42.830177" lon="-1.603888999999997">
        <ele>433.856</ele>
        <time>2022-08-24T17:03:20Z</time>
      </trkpt>
      <trkpt lat="42.830166999999996" lon="-1.603908999999997">
        <ele>433.821</ele>
        <time>2022-08-24T17:03:21Z</time>
      </trkpt>
      <trkpt lat="42.830161999999994" lon="-1.6039149999999969">
        <ele>433.809</ele>
        <time>2022-08-24T17:03:22Z</time>
      </trkpt>
      <trkpt lat="42.830155" lon="-1.603927999999997">
        <ele>433.898</ele>
        <time>2022-08-24T17:03:24Z</time>
      </trkpt>
      <trkpt lat="42.830135999999996" lon="-1.6039339999999969">
        <ele>433.848</ele>
        <time>2022-08-24T17:03:26Z</time>
      </trkpt>
      <trkpt lat="42.830118" lon="-1.603951999999997">
        <ele>433.838</ele>
        <time>2022-08-24T17:03:35Z</time>
      </trkpt>
      <trkpt lat="42.83009" lon="-1.6039989999999968">
        <ele>433.884</ele>
        <time>2022-08-24T17:03:38Z</time>
      </trkpt>
      <trkpt lat="42.830076" lon="-1.6040129999999968">
        <ele>433.876</ele>
        <time>2022-08-24T17:03:39Z</time>
      </trkpt>
      <trkpt lat="42.830048" lon="-1.6040669999999968">
        <ele>433.863</ele>
        <time>2022-08-24T17:03:41Z</time>
      </trkpt>
      <trkpt lat="42.829971" lon="-1.6042029999999967">
        <ele>433.856</ele>
        <time>2022-08-24T17:03:45Z</time>
      </trkpt>
      <trkpt lat="42.829943" lon="-1.6042339999999966">
        <ele>433.810</ele>
        <time>2022-08-24T17:03:46Z</time>
      </trkpt>
      <trkpt lat="42.829906" lon="-1.6042659999999966">
        <ele>433.819</ele>
        <time>2022-08-24T17:03:47Z</time>
      </trkpt>
      <trkpt lat="42.829886" lon="-1.6042859999999965">
        <ele>433.822</ele>
        <time>2022-08-24T17:03:48Z</time>
      </trkpt>
      <trkpt lat="42.829865000000005" lon="-1.6043169999999964">
        <ele>433.862</ele>
        <time>2022-08-24T17:03:49Z</time>
      </trkpt>
      <trkpt lat="42.829843000000004" lon="-1.6043459999999965">
        <ele>433.808</ele>
        <time>2022-08-24T17:03:50Z</time>
      </trkpt>
      <trkpt lat="42.829820000000005" lon="-1.6043729999999965">
        <ele>433.809</ele>
        <time>2022-08-24T17:03:51Z</time>
      </trkpt>
      <trkpt lat="42.829796" lon="-1.6043969999999965">
        <ele>433.873</ele>
        <time>2022-08-24T17:03:52Z</time>
      </trkpt>
      <trkpt lat="42.829767000000004" lon="-1.6044269999999965">
        <ele>433.873</ele>
        <time>2022-08-24T17:03:53Z</time>
      </trkpt>
      <trkpt lat="42.829745" lon="-1.6044499999999966">
        <ele>433.833</ele>
        <time>2022-08-24T17:03:54Z</time>
      </trkpt>
      <trkpt lat="42.829729" lon="-1.6044749999999965">
        <ele>433.899</ele>
        <time>2022-08-24T17:03:55Z</time>
      </trkpt>
      <trkpt lat="42.829716" lon="-1.6044989999999966">
        <ele>433.831</ele>
        <time>2022-08-24T17:03:56Z</time>
      </trkpt>
      <trkpt lat="42.829713999999996" lon="-1.6045349999999965">
        <ele>433.848</ele>
        <time>2022-08-24T17:03:57Z</time>
      </trkpt>
      <trkpt lat="42.829705" lon="-1.6045709999999964">
        <ele>433.851</ele>
        <time>2022-08-24T17:03:58Z</time>
      </trkpt>
      <trkpt lat="42.829691" lon="-1.6045799999999963">
        <ele>433.855</ele>
        <time>2022-08-24T17:03:59Z</time>
      </trkpt>
      <trkpt lat="42.829668999999996" lon="-1.6045979999999964">
        <ele>433.834</ele>
        <time>2022-08-24T17:04:00Z</time>
      </trkpt>
      <trkpt lat="42.829654999999995" lon="-1.6046179999999963">
        <ele>433.866</ele>
        <time>2022-08-24T17:04:01Z</time>
      </trkpt>
      <trkpt lat="42.82964199999999" lon="-1.6046389999999964">
        <ele>433.829</ele>
        <time>2022-08-24T17:04:02Z</time>
      </trkpt>
      <trkpt lat="42.829626999999995" lon="-1.6046589999999963">
        <ele>433.821</ele>
        <time>2022-08-24T17:04:03Z</time>
      </trkpt>
      <trkpt lat="42.82961699999999" lon="-1.6046709999999962">
        <ele>433.809</ele>
        <time>2022-08-24T17:04:04Z</time>
      </trkpt>
      <trkpt lat="42.82960799999999" lon="-1.6046879999999961">
        <ele>433.837</ele>
        <time>2022-08-24T17:04:05Z</time>
      </trkpt>
      <trkpt lat="42.82960299999999" lon="-1.604704999999996">
        <ele>433.817</ele>
        <time>2022-08-24T17:04:06Z</time>
      </trkpt>
      <trkpt lat="42.82959999999999" lon="-1.604718999999996">
        <ele>433.857</ele>
        <time>2022-08-24T17:04:07Z</time>
      </trkpt>
      <trkpt lat="42.82956199999999" lon="-1.604725999999996">
        <ele>433.833</ele>
        <time>2022-08-24T17:04:19Z</time>
      </trkpt>
      <trkpt lat="42.82954999999999" lon="-1.6047219999999962">
        <ele>433.885</ele>
        <time>2022-08-24T17:04:20Z</time>
      </trkpt>
      <trkpt lat="42.82949899999999" lon="-1.6047169999999962">
        <ele>433.812</ele>
        <time>2022-08-24T17:04:23Z</time>
      </trkpt>
      <trkpt lat="42.82948699999999" lon="-1.6047279999999962">
        <ele>433.885</ele>
        <time>2022-08-24T17:04:24Z</time>
      </trkpt>
      <trkpt lat="42.82947899999999" lon="-1.604739999999996">
        <ele>434.029</ele>
        <time>2022-08-24T17:04:25Z</time>
      </trkpt>
      <trkpt lat="42.82946999999999" lon="-1.604752999999996">
        <ele>434.078</ele>
        <time>2022-08-24T17:04:26Z</time>
      </trkpt>
      <trkpt lat="42.829457999999995" lon="-1.6047629999999962">
        <ele>434.086</ele>
        <time>2022-08-24T17:04:27Z</time>
      </trkpt>
      <trkpt lat="42.82944199999999" lon="-1.604766999999996">
        <ele>434.060</ele>
        <time>2022-08-24T17:04:28Z</time>
      </trkpt>
      <trkpt lat="42.82942599999999" lon="-1.604766999999996">
        <ele>434.026</ele>
        <time>2022-08-24T17:04:29Z</time>
      </trkpt>
      <trkpt lat="42.82941699999999" lon="-1.604764999999996">
        <ele>434.009</ele>
        <time>2022-08-24T17:04:30Z</time>
      </trkpt>
      <trkpt lat="42.829404999999994" lon="-1.604760999999996">
        <ele>434.029</ele>
        <time>2022-08-24T17:04:31Z</time>
      </trkpt>
      <trkpt lat="42.82939199999999" lon="-1.6047579999999961">
        <ele>434.099</ele>
        <time>2022-08-24T17:04:32Z</time>
      </trkpt>
      <trkpt lat="42.829373999999994" lon="-1.6047569999999962">
        <ele>434.059</ele>
        <time>2022-08-24T17:04:33Z</time>
      </trkpt>
      <trkpt lat="42.829238999999994" lon="-1.6047929999999961">
        <ele>433.655</ele>
        <time>2022-08-24T17:04:40Z</time>
      </trkpt>
      <trkpt lat="42.82921499999999" lon="-1.604804999999996">
        <ele>433.417</ele>
        <time>2022-08-24T17:04:41Z</time>
      </trkpt>
      <trkpt lat="42.82915999999999" lon="-1.604828999999996">
        <ele>433.264</ele>
        <time>2022-08-24T17:04:43Z</time>
      </trkpt>
      <trkpt lat="42.829140999999986" lon="-1.604840999999996">
        <ele>433.027</ele>
        <time>2022-08-24T17:04:44Z</time>
      </trkpt>
      <trkpt lat="42.82912899999999" lon="-1.604855999999996">
        <ele>433.041</ele>
        <time>2022-08-24T17:04:45Z</time>
      </trkpt>
      <trkpt lat="42.829115999999985" lon="-1.604872999999996">
        <ele>433.040</ele>
        <time>2022-08-24T17:04:46Z</time>
      </trkpt>
      <trkpt lat="42.82910299999998" lon="-1.604884999999996">
        <ele>433.018</ele>
        <time>2022-08-24T17:04:47Z</time>
      </trkpt>
      <trkpt lat="42.82908699999998" lon="-1.604903999999996">
        <ele>432.898</ele>
        <time>2022-08-24T17:04:48Z</time>
      </trkpt>
      <trkpt lat="42.82907199999998" lon="-1.6049179999999958">
        <ele>432.617</ele>
        <time>2022-08-24T17:04:49Z</time>
      </trkpt>
      <trkpt lat="42.82905599999998" lon="-1.6049209999999958">
        <ele>432.609</ele>
        <time>2022-08-24T17:04:50Z</time>
      </trkpt>
      <trkpt lat="42.82903699999998" lon="-1.6049159999999958">
        <ele>432.642</ele>
        <time>2022-08-24T17:04:51Z</time>
      </trkpt>
      <trkpt lat="42.829023999999976" lon="-1.6049079999999958">
        <ele>432.662</ele>
        <time>2022-08-24T17:04:52Z</time>
      </trkpt>
      <trkpt lat="42.829009999999975" lon="-1.6048999999999958">
        <ele>432.462</ele>
        <time>2022-08-24T17:04:53Z</time>
      </trkpt>
      <trkpt lat="42.82899499999998" lon="-1.6048879999999959">
        <ele>432.458</ele>
        <time>2022-08-24T17:04:54Z</time>
      </trkpt>
      <trkpt lat="42.82897699999998" lon="-1.6048719999999959">
        <ele>432.430</ele>
        <time>2022-08-24T17:04:55Z</time>
      </trkpt>
      <trkpt lat="42.82895699999998" lon="-1.6048569999999958">
        <ele>432.457</ele>
        <time>2022-08-24T17:04:56Z</time>
      </trkpt>
      <trkpt lat="42.82892099999998" lon="-1.6048219999999958">
        <ele>432.460</ele>
        <time>2022-08-24T17:04:58Z</time>
      </trkpt>
      <trkpt lat="42.82891499999998" lon="-1.6047999999999958">
        <ele>432.664</ele>
        <time>2022-08-24T17:04:59Z</time>
      </trkpt>
      <trkpt lat="42.82890499999998" lon="-1.6047839999999958">
        <ele>432.663</ele>
        <time>2022-08-24T17:05:00Z</time>
      </trkpt>
      <trkpt lat="42.828882999999976" lon="-1.6047749999999958">
        <ele>432.654</ele>
        <time>2022-08-24T17:05:01Z</time>
      </trkpt>
      <trkpt lat="42.82886299999998" lon="-1.604770999999996">
        <ele>432.856</ele>
        <time>2022-08-24T17:05:02Z</time>
      </trkpt>
      <trkpt lat="42.82885399999998" lon="-1.604773999999996">
        <ele>432.811</ele>
        <time>2022-08-24T17:05:03Z</time>
      </trkpt>
      <trkpt lat="42.82883899999998" lon="-1.604784999999996">
        <ele>432.809</ele>
        <time>2022-08-24T17:05:04Z</time>
      </trkpt>
      <trkpt lat="42.82878199999998" lon="-1.6048149999999959">
        <ele>432.826</ele>
        <time>2022-08-24T17:05:07Z</time>
      </trkpt>
      <trkpt lat="42.82876499999998" lon="-1.604813999999996">
        <ele>433.096</ele>
        <time>2022-08-24T17:05:08Z</time>
      </trkpt>
      <trkpt lat="42.82872599999998" lon="-1.604812999999996">
        <ele>433.046</ele>
        <time>2022-08-24T17:05:10Z</time>
      </trkpt>
      <trkpt lat="42.82870599999998" lon="-1.6048119999999961">
        <ele>433.032</ele>
        <time>2022-08-24T17:05:11Z</time>
      </trkpt>
      <trkpt lat="42.82868199999998" lon="-1.604815999999996">
        <ele>433.094</ele>
        <time>2022-08-24T17:05:12Z</time>
      </trkpt>
      <trkpt lat="42.82866099999998" lon="-1.604821999999996">
        <ele>433.071</ele>
        <time>2022-08-24T17:05:13Z</time>
      </trkpt>
      <trkpt lat="42.82860799999998" lon="-1.604846999999996">
        <ele>433.064</ele>
        <time>2022-08-24T17:05:15Z</time>
      </trkpt>
      <trkpt lat="42.82848899999998" lon="-1.604915999999996">
        <ele>432.848</ele>
        <time>2022-08-24T17:05:20Z</time>
      </trkpt>
      <trkpt lat="42.82847799999998" lon="-1.604923999999996">
        <ele>432.857</ele>
        <time>2022-08-24T17:05:21Z</time>
      </trkpt>
      <trkpt lat="42.82846699999998" lon="-1.604927999999996">
        <ele>432.872</ele>
        <time>2022-08-24T17:05:22Z</time>
      </trkpt>
      <trkpt lat="42.828459999999986" lon="-1.6049319999999958">
        <ele>432.213</ele>
        <time>2022-08-24T17:05:39Z</time>
      </trkpt>
      <trkpt lat="42.828344999999985" lon="-1.6049529999999959">
        <ele>432.414</ele>
        <time>2022-08-24T17:05:43Z</time>
      </trkpt>
      <trkpt lat="42.82830899999998" lon="-1.6049609999999959">
        <ele>432.409</ele>
        <time>2022-08-24T17:05:44Z</time>
      </trkpt>
      <trkpt lat="42.82823999999998" lon="-1.6049729999999958">
        <ele>432.458</ele>
        <time>2022-08-24T17:05:46Z</time>
      </trkpt>
      <trkpt lat="42.82819599999998" lon="-1.6049739999999957">
        <ele>432.438</ele>
        <time>2022-08-24T17:05:47Z</time>
      </trkpt>
      <trkpt lat="42.828044999999975" lon="-1.6050399999999956">
        <ele>432.238</ele>
        <time>2022-08-24T17:05:51Z</time>
      </trkpt>
      <trkpt lat="42.82801299999998" lon="-1.6050569999999955">
        <ele>432.234</ele>
        <time>2022-08-24T17:05:52Z</time>
      </trkpt>
      <trkpt lat="42.827985999999974" lon="-1.6050749999999956">
        <ele>432.276</ele>
        <time>2022-08-24T17:05:53Z</time>
      </trkpt>
      <trkpt lat="42.82794799999997" lon="-1.6050959999999956">
        <ele>432.233</ele>
        <time>2022-08-24T17:05:54Z</time>
      </trkpt>
      <trkpt lat="42.82791499999997" lon="-1.6051189999999957">
        <ele>432.236</ele>
        <time>2022-08-24T17:05:55Z</time>
      </trkpt>
      <trkpt lat="42.82789199999997" lon="-1.6051269999999958">
        <ele>432.280</ele>
        <time>2022-08-24T17:05:56Z</time>
      </trkpt>
      <trkpt lat="42.82786799999997" lon="-1.6051319999999958">
        <ele>432.039</ele>
        <time>2022-08-24T17:05:57Z</time>
      </trkpt>
      <trkpt lat="42.82784799999997" lon="-1.6051419999999958">
        <ele>432.066</ele>
        <time>2022-08-24T17:05:58Z</time>
      </trkpt>
      <trkpt lat="42.82770699999997" lon="-1.6052209999999958">
        <ele>432.029</ele>
        <time>2022-08-24T17:06:03Z</time>
      </trkpt>
      <trkpt lat="42.827662999999966" lon="-1.6052649999999957">
        <ele>432.221</ele>
        <time>2022-08-24T17:06:05Z</time>
      </trkpt>
      <trkpt lat="42.82764199999997" lon="-1.6052849999999956">
        <ele>432.009</ele>
        <time>2022-08-24T17:06:06Z</time>
      </trkpt>
      <trkpt lat="42.82762299999997" lon="-1.6053039999999956">
        <ele>432.287</ele>
        <time>2022-08-24T17:06:07Z</time>
      </trkpt>
      <trkpt lat="42.827614999999966" lon="-1.6053139999999957">
        <ele>432.267</ele>
        <time>2022-08-24T17:06:08Z</time>
      </trkpt>
      <trkpt lat="42.82760599999997" lon="-1.6053299999999957">
        <ele>432.277</ele>
        <time>2022-08-24T17:06:09Z</time>
      </trkpt>
      <trkpt lat="42.82759899999997" lon="-1.6053429999999957">
        <ele>432.263</ele>
        <time>2022-08-24T17:06:10Z</time>
      </trkpt>
      <trkpt lat="42.827591999999974" lon="-1.6053519999999957">
        <ele>432.465</ele>
        <time>2022-08-24T17:06:11Z</time>
      </trkpt>
      <trkpt lat="42.82758699999997" lon="-1.6053619999999957">
        <ele>433.012</ele>
        <time>2022-08-24T17:06:18Z</time>
      </trkpt>
      <trkpt lat="42.82757699999997" lon="-1.6053839999999957">
        <ele>433.225</ele>
        <time>2022-08-24T17:06:20Z</time>
      </trkpt>
      <trkpt lat="42.82755699999997" lon="-1.6054089999999956">
        <ele>433.499</ele>
        <time>2022-08-24T17:06:23Z</time>
      </trkpt>
      <trkpt lat="42.82754699999997" lon="-1.6054179999999956">
        <ele>433.468</ele>
        <time>2022-08-24T17:06:24Z</time>
      </trkpt>
      <trkpt lat="42.82753499999997" lon="-1.6054249999999957">
        <ele>433.488</ele>
        <time>2022-08-24T17:06:25Z</time>
      </trkpt>
      <trkpt lat="42.82752799999997" lon="-1.6054439999999957">
        <ele>433.624</ele>
        <time>2022-08-24T17:06:26Z</time>
      </trkpt>
      <trkpt lat="42.827518999999974" lon="-1.6054599999999957">
        <ele>433.626</ele>
        <time>2022-08-24T17:06:27Z</time>
      </trkpt>
      <trkpt lat="42.827509999999975" lon="-1.6054719999999956">
        <ele>433.609</ele>
        <time>2022-08-24T17:06:28Z</time>
      </trkpt>
      <trkpt lat="42.82751199999998" lon="-1.6054809999999955">
        <ele>433.859</ele>
        <time>2022-08-24T17:06:29Z</time>
      </trkpt>
      <trkpt lat="42.827512999999975" lon="-1.6054979999999954">
        <ele>433.839</ele>
        <time>2022-08-24T17:06:30Z</time>
      </trkpt>
      <trkpt lat="42.827501999999974" lon="-1.6055519999999954">
        <ele>434.039</ele>
        <time>2022-08-24T17:06:33Z</time>
      </trkpt>
      <trkpt lat="42.827495999999975" lon="-1.6055609999999954">
        <ele>434.235</ele>
        <time>2022-08-24T17:06:35Z</time>
      </trkpt>
      <trkpt lat="42.827490999999974" lon="-1.6055689999999954">
        <ele>434.437</ele>
        <time>2022-08-24T17:06:36Z</time>
      </trkpt>
      <trkpt lat="42.827484999999974" lon="-1.6055799999999953">
        <ele>434.664</ele>
        <time>2022-08-24T17:06:37Z</time>
      </trkpt>
      <trkpt lat="42.82748099999998" lon="-1.6055919999999952">
        <ele>434.827</ele>
        <time>2022-08-24T17:06:38Z</time>
      </trkpt>
      <trkpt lat="42.827478999999975" lon="-1.6056039999999951">
        <ele>435.061</ele>
        <time>2022-08-24T17:06:39Z</time>
      </trkpt>
      <trkpt lat="42.82747799999998" lon="-1.6056199999999952">
        <ele>435.080</ele>
        <time>2022-08-24T17:06:40Z</time>
      </trkpt>
      <trkpt lat="42.82747999999998" lon="-1.6056359999999952">
        <ele>435.447</ele>
        <time>2022-08-24T17:06:41Z</time>
      </trkpt>
      <trkpt lat="42.82748399999998" lon="-1.6056529999999951">
        <ele>435.429</ele>
        <time>2022-08-24T17:06:42Z</time>
      </trkpt>
      <trkpt lat="42.82748299999998" lon="-1.605663999999995">
        <ele>435.621</ele>
        <time>2022-08-24T17:06:43Z</time>
      </trkpt>
      <trkpt lat="42.82747999999998" lon="-1.605672999999995">
        <ele>435.609</ele>
        <time>2022-08-24T17:06:44Z</time>
      </trkpt>
      <trkpt lat="42.82747999999998" lon="-1.605685999999995">
        <ele>435.855</ele>
        <time>2022-08-24T17:06:45Z</time>
      </trkpt>
      <trkpt lat="42.82747699999998" lon="-1.605710999999995">
        <ele>435.845</ele>
        <time>2022-08-24T17:06:47Z</time>
      </trkpt>
      <trkpt lat="42.82747599999998" lon="-1.605719999999995">
        <ele>436.095</ele>
        <time>2022-08-24T17:06:50Z</time>
      </trkpt>
      <trkpt lat="42.827474999999986" lon="-1.605730999999995">
        <ele>436.071</ele>
        <time>2022-08-24T17:06:51Z</time>
      </trkpt>
      <trkpt lat="42.82747599999998" lon="-1.605748999999995">
        <ele>436.063</ele>
        <time>2022-08-24T17:06:52Z</time>
      </trkpt>
      <trkpt lat="42.827477999999985" lon="-1.605762999999995">
        <ele>436.080</ele>
        <time>2022-08-24T17:06:53Z</time>
      </trkpt>
      <trkpt lat="42.82747699999999" lon="-1.605775999999995">
        <ele>436.083</ele>
        <time>2022-08-24T17:06:54Z</time>
      </trkpt>
      <trkpt lat="42.82746799999999" lon="-1.605923999999995">
        <ele>436.077</ele>
        <time>2022-08-24T17:06:59Z</time>
      </trkpt>
      <trkpt lat="42.82746499999999" lon="-1.605972999999995">
        <ele>436.026</ele>
        <time>2022-08-24T17:07:00Z</time>
      </trkpt>
      <trkpt lat="42.82743499999999" lon="-1.606123999999995">
        <ele>435.832</ele>
        <time>2022-08-24T17:07:03Z</time>
      </trkpt>
      <trkpt lat="42.82741999999999" lon="-1.606163999999995">
        <ele>435.492</ele>
        <time>2022-08-24T17:07:04Z</time>
      </trkpt>
      <trkpt lat="42.82740299999999" lon="-1.6061899999999951">
        <ele>435.211</ele>
        <time>2022-08-24T17:07:05Z</time>
      </trkpt>
      <trkpt lat="42.82738599999999" lon="-1.6062059999999951">
        <ele>434.809</ele>
        <time>2022-08-24T17:07:06Z</time>
      </trkpt>
      <trkpt lat="42.82736399999999" lon="-1.606222999999995">
        <ele>434.684</ele>
        <time>2022-08-24T17:07:07Z</time>
      </trkpt>
      <trkpt lat="42.827350999999986" lon="-1.6062329999999951">
        <ele>434.424</ele>
        <time>2022-08-24T17:07:08Z</time>
      </trkpt>
      <trkpt lat="42.82734199999999" lon="-1.606241999999995">
        <ele>434.444</ele>
        <time>2022-08-24T17:07:09Z</time>
      </trkpt>
      <trkpt lat="42.827333999999986" lon="-1.606250999999995">
        <ele>434.490</ele>
        <time>2022-08-24T17:07:10Z</time>
      </trkpt>
      <trkpt lat="42.82732099999998" lon="-1.606262999999995">
        <ele>434.232</ele>
        <time>2022-08-24T17:07:11Z</time>
      </trkpt>
      <trkpt lat="42.827294999999985" lon="-1.606280999999995">
        <ele>434.249</ele>
        <time>2022-08-24T17:07:12Z</time>
      </trkpt>
      <trkpt lat="42.827277999999986" lon="-1.606299999999995">
        <ele>434.242</ele>
        <time>2022-08-24T17:07:13Z</time>
      </trkpt>
      <trkpt lat="42.82720699999999" lon="-1.606367999999995">
        <ele>434.496</ele>
        <time>2022-08-24T17:07:16Z</time>
      </trkpt>
      <trkpt lat="42.827181999999986" lon="-1.606405999999995">
        <ele>434.445</ele>
        <time>2022-08-24T17:07:17Z</time>
      </trkpt>
      <trkpt lat="42.827091999999986" lon="-1.6065519999999949">
        <ele>434.031</ele>
        <time>2022-08-24T17:07:20Z</time>
      </trkpt>
      <trkpt lat="42.82705399999998" lon="-1.6066139999999949">
        <ele>433.661</ele>
        <time>2022-08-24T17:07:21Z</time>
      </trkpt>
      <trkpt lat="42.82700999999998" lon="-1.6066789999999949">
        <ele>433.407</ele>
        <time>2022-08-24T17:07:22Z</time>
      </trkpt>
      <trkpt lat="42.82696999999998" lon="-1.6067359999999948">
        <ele>432.809</ele>
        <time>2022-08-24T17:07:23Z</time>
      </trkpt>
      <trkpt lat="42.82693399999998" lon="-1.606780999999995">
        <ele>432.684</ele>
        <time>2022-08-24T17:07:24Z</time>
      </trkpt>
      <trkpt lat="42.82690799999998" lon="-1.6068139999999949">
        <ele>432.414</ele>
        <time>2022-08-24T17:07:25Z</time>
      </trkpt>
      <trkpt lat="42.826886999999985" lon="-1.6068729999999949">
        <ele>432.024</ele>
        <time>2022-08-24T17:07:26Z</time>
      </trkpt>
      <trkpt lat="42.82686099999999" lon="-1.606949999999995">
        <ele>431.850</ele>
        <time>2022-08-24T17:07:28Z</time>
      </trkpt>
      <trkpt lat="42.826844999999985" lon="-1.606985999999995">
        <ele>431.682</ele>
        <time>2022-08-24T17:07:29Z</time>
      </trkpt>
      <trkpt lat="42.826819999999984" lon="-1.607022999999995">
        <ele>431.429</ele>
        <time>2022-08-24T17:07:30Z</time>
      </trkpt>
      <trkpt lat="42.826793999999985" lon="-1.607059999999995">
        <ele>431.492</ele>
        <time>2022-08-24T17:07:31Z</time>
      </trkpt>
      <trkpt lat="42.82677099999999" lon="-1.607089999999995">
        <ele>431.446</ele>
        <time>2022-08-24T17:07:32Z</time>
      </trkpt>
      <trkpt lat="42.826743999999984" lon="-1.607121999999995">
        <ele>431.235</ele>
        <time>2022-08-24T17:07:33Z</time>
      </trkpt>
      <trkpt lat="42.82672599999999" lon="-1.607145999999995">
        <ele>431.282</ele>
        <time>2022-08-24T17:07:34Z</time>
      </trkpt>
      <trkpt lat="42.82670799999999" lon="-1.6071719999999952">
        <ele>431.243</ele>
        <time>2022-08-24T17:07:35Z</time>
      </trkpt>
      <trkpt lat="42.82665799999999" lon="-1.6072339999999952">
        <ele>431.217</ele>
        <time>2022-08-24T17:07:37Z</time>
      </trkpt>
      <trkpt lat="42.82660099999999" lon="-1.6073119999999952">
        <ele>431.209</ele>
        <time>2022-08-24T17:07:39Z</time>
      </trkpt>
      <trkpt lat="42.826562999999986" lon="-1.6073559999999951">
        <ele>431.239</ele>
        <time>2022-08-24T17:07:40Z</time>
      </trkpt>
      <trkpt lat="42.82652899999999" lon="-1.6074089999999952">
        <ele>431.299</ele>
        <time>2022-08-24T17:07:41Z</time>
      </trkpt>
      <trkpt lat="42.826500999999986" lon="-1.6074569999999953">
        <ele>431.069</ele>
        <time>2022-08-24T17:07:42Z</time>
      </trkpt>
      <trkpt lat="42.82648299999999" lon="-1.6074919999999953">
        <ele>431.085</ele>
        <time>2022-08-24T17:07:43Z</time>
      </trkpt>
      <trkpt lat="42.82646499999999" lon="-1.6075269999999953">
        <ele>431.087</ele>
        <time>2022-08-24T17:07:44Z</time>
      </trkpt>
      <trkpt lat="42.82644599999999" lon="-1.6075569999999952">
        <ele>431.054</ele>
        <time>2022-08-24T17:07:45Z</time>
      </trkpt>
      <trkpt lat="42.82642999999999" lon="-1.6075929999999952">
        <ele>431.227</ele>
        <time>2022-08-24T17:07:46Z</time>
      </trkpt>
      <trkpt lat="42.82637299999999" lon="-1.6076619999999953">
        <ele>431.211</ele>
        <time>2022-08-24T17:07:48Z</time>
      </trkpt>
      <trkpt lat="42.82625799999999" lon="-1.6078889999999952">
        <ele>431.480</ele>
        <time>2022-08-24T17:07:52Z</time>
      </trkpt>
      <trkpt lat="42.82623299999999" lon="-1.6079279999999951">
        <ele>431.484</ele>
        <time>2022-08-24T17:07:53Z</time>
      </trkpt>
      <trkpt lat="42.82618499999999" lon="-1.6079779999999952">
        <ele>431.407</ele>
        <time>2022-08-24T17:07:54Z</time>
      </trkpt>
      <trkpt lat="42.82614999999999" lon="-1.6080169999999951">
        <ele>431.417</ele>
        <time>2022-08-24T17:07:55Z</time>
      </trkpt>
      <trkpt lat="42.82604299999999" lon="-1.6081439999999951">
        <ele>431.609</ele>
        <time>2022-08-24T17:07:58Z</time>
      </trkpt>
      <trkpt lat="42.82600299999999" lon="-1.608184999999995">
        <ele>431.689</ele>
        <time>2022-08-24T17:07:59Z</time>
      </trkpt>
      <trkpt lat="42.82597199999999" lon="-1.6082189999999952">
        <ele>431.699</ele>
        <time>2022-08-24T17:08:00Z</time>
      </trkpt>
      <trkpt lat="42.825951999999994" lon="-1.6082439999999951">
        <ele>431.679</ele>
        <time>2022-08-24T17:08:01Z</time>
      </trkpt>
      <trkpt lat="42.825922999999996" lon="-1.608273999999995">
        <ele>431.875</ele>
        <time>2022-08-24T17:08:02Z</time>
      </trkpt>
      <trkpt lat="42.825810999999995" lon="-1.6083809999999952">
        <ele>431.887</ele>
        <time>2022-08-24T17:08:06Z</time>
      </trkpt>
      <trkpt lat="42.825686" lon="-1.6084989999999952">
        <ele>432.084</ele>
        <time>2022-08-24T17:08:10Z</time>
      </trkpt>
      <trkpt lat="42.825663" lon="-1.6085219999999953">
        <ele>432.047</ele>
        <time>2022-08-24T17:08:11Z</time>
      </trkpt>
      <trkpt lat="42.825571" lon="-1.6086109999999954">
        <ele>432.211</ele>
        <time>2022-08-24T17:08:14Z</time>
      </trkpt>
      <trkpt lat="42.825517999999995" lon="-1.6086669999999954">
        <ele>432.270</ele>
        <time>2022-08-24T17:08:16Z</time>
      </trkpt>
      <trkpt lat="42.825210999999996" lon="-1.6089639999999954">
        <ele>432.047</ele>
        <time>2022-08-24T17:08:25Z</time>
      </trkpt>
      <trkpt lat="42.825179999999996" lon="-1.6089889999999953">
        <ele>432.029</ele>
        <time>2022-08-24T17:08:26Z</time>
      </trkpt>
      <trkpt lat="42.825143" lon="-1.6090199999999952">
        <ele>432.021</ele>
        <time>2022-08-24T17:08:27Z</time>
      </trkpt>
      <trkpt lat="42.825063" lon="-1.6090899999999952">
        <ele>432.009</ele>
        <time>2022-08-24T17:08:29Z</time>
      </trkpt>
      <trkpt lat="42.825028" lon="-1.6091199999999952">
        <ele>432.055</ele>
        <time>2022-08-24T17:08:30Z</time>
      </trkpt>
      <trkpt lat="42.825001" lon="-1.6091449999999952">
        <ele>432.035</ele>
        <time>2022-08-24T17:08:31Z</time>
      </trkpt>
      <trkpt lat="42.824968" lon="-1.6091789999999953">
        <ele>432.065</ele>
        <time>2022-08-24T17:08:32Z</time>
      </trkpt>
      <trkpt lat="42.824936" lon="-1.6092129999999953">
        <ele>432.021</ele>
        <time>2022-08-24T17:08:33Z</time>
      </trkpt>
      <trkpt lat="42.824834" lon="-1.6093139999999952">
        <ele>432.223</ele>
        <time>2022-08-24T17:08:36Z</time>
      </trkpt>
      <trkpt lat="42.824729000000005" lon="-1.6094069999999951">
        <ele>432.260</ele>
        <time>2022-08-24T17:08:39Z</time>
      </trkpt>
      <trkpt lat="42.824698000000005" lon="-1.6094389999999952">
        <ele>432.283</ele>
        <time>2022-08-24T17:08:40Z</time>
      </trkpt>
      <trkpt lat="42.824664000000006" lon="-1.6094769999999952">
        <ele>432.477</ele>
        <time>2022-08-24T17:08:41Z</time>
      </trkpt>
      <trkpt lat="42.824639000000005" lon="-1.6094989999999951">
        <ele>432.456</ele>
        <time>2022-08-24T17:08:42Z</time>
      </trkpt>
      <trkpt lat="42.824605000000005" lon="-1.6095229999999952">
        <ele>432.464</ele>
        <time>2022-08-24T17:08:43Z</time>
      </trkpt>
      <trkpt lat="42.824540000000006" lon="-1.6095849999999952">
        <ele>432.606</ele>
        <time>2022-08-24T17:08:45Z</time>
      </trkpt>
      <trkpt lat="42.82451400000001" lon="-1.609604999999995">
        <ele>432.616</ele>
        <time>2022-08-24T17:08:46Z</time>
      </trkpt>
      <trkpt lat="42.824495000000006" lon="-1.609623999999995">
        <ele>432.609</ele>
        <time>2022-08-24T17:08:47Z</time>
      </trkpt>
      <trkpt lat="42.82443800000001" lon="-1.6096849999999951">
        <ele>432.637</ele>
        <time>2022-08-24T17:08:49Z</time>
      </trkpt>
      <trkpt lat="42.82439000000001" lon="-1.609731999999995">
        <ele>432.677</ele>
        <time>2022-08-24T17:08:50Z</time>
      </trkpt>
      <trkpt lat="42.82434400000001" lon="-1.609769999999995">
        <ele>432.617</ele>
        <time>2022-08-24T17:08:51Z</time>
      </trkpt>
      <trkpt lat="42.82431100000001" lon="-1.609794999999995">
        <ele>432.813</ele>
        <time>2022-08-24T17:08:52Z</time>
      </trkpt>
      <trkpt lat="42.82427500000001" lon="-1.609822999999995">
        <ele>432.845</ele>
        <time>2022-08-24T17:08:53Z</time>
      </trkpt>
      <trkpt lat="42.82424600000001" lon="-1.609843999999995">
        <ele>432.852</ele>
        <time>2022-08-24T17:08:54Z</time>
      </trkpt>
      <trkpt lat="42.82421600000001" lon="-1.609867999999995">
        <ele>432.845</ele>
        <time>2022-08-24T17:08:55Z</time>
      </trkpt>
      <trkpt lat="42.82419500000001" lon="-1.609892999999995">
        <ele>433.049</ele>
        <time>2022-08-24T17:08:56Z</time>
      </trkpt>
      <trkpt lat="42.82397100000001" lon="-1.6100939999999948">
        <ele>433.488</ele>
        <time>2022-08-24T17:09:04Z</time>
      </trkpt>
      <trkpt lat="42.82386700000001" lon="-1.6101799999999948">
        <ele>434.085</ele>
        <time>2022-08-24T17:09:07Z</time>
      </trkpt>
      <trkpt lat="42.82383600000001" lon="-1.6102049999999948">
        <ele>433.889</ele>
        <time>2022-08-24T17:09:08Z</time>
      </trkpt>
      <trkpt lat="42.823809000000004" lon="-1.6102279999999949">
        <ele>433.817</ele>
        <time>2022-08-24T17:09:09Z</time>
      </trkpt>
      <trkpt lat="42.823782" lon="-1.610251999999995">
        <ele>434.009</ele>
        <time>2022-08-24T17:09:10Z</time>
      </trkpt>
      <trkpt lat="42.823754" lon="-1.610278999999995">
        <ele>433.839</ele>
        <time>2022-08-24T17:09:11Z</time>
      </trkpt>
      <trkpt lat="42.823736000000004" lon="-1.610294999999995">
        <ele>434.289</ele>
        <time>2022-08-24T17:09:12Z</time>
      </trkpt>
      <trkpt lat="42.823716000000005" lon="-1.610313999999995">
        <ele>434.219</ele>
        <time>2022-08-24T17:09:13Z</time>
      </trkpt>
      <trkpt lat="42.823592000000005" lon="-1.610412999999995">
        <ele>434.855</ele>
        <time>2022-08-24T17:09:18Z</time>
      </trkpt>
      <trkpt lat="42.823426000000005" lon="-1.610560999999995">
        <ele>435.097</ele>
        <time>2022-08-24T17:09:23Z</time>
      </trkpt>
      <trkpt lat="42.823312" lon="-1.610658999999995">
        <ele>434.864</ele>
        <time>2022-08-24T17:09:26Z</time>
      </trkpt>
      <trkpt lat="42.823277000000004" lon="-1.610684999999995">
        <ele>435.037</ele>
        <time>2022-08-24T17:09:27Z</time>
      </trkpt>
      <trkpt lat="42.82325" lon="-1.610704999999995">
        <ele>434.871</ele>
        <time>2022-08-24T17:09:28Z</time>
      </trkpt>
      <trkpt lat="42.823216" lon="-1.610730999999995">
        <ele>435.090</ele>
        <time>2022-08-24T17:09:29Z</time>
      </trkpt>
      <trkpt lat="42.82318" lon="-1.610761999999995">
        <ele>434.848</ele>
        <time>2022-08-24T17:09:30Z</time>
      </trkpt>
      <trkpt lat="42.823155" lon="-1.6107819999999948">
        <ele>434.861</ele>
        <time>2022-08-24T17:09:31Z</time>
      </trkpt>
      <trkpt lat="42.823122" lon="-1.6108119999999948">
        <ele>434.817</ele>
        <time>2022-08-24T17:09:32Z</time>
      </trkpt>
      <trkpt lat="42.823101" lon="-1.6108309999999948">
        <ele>434.609</ele>
        <time>2022-08-24T17:09:33Z</time>
      </trkpt>
      <trkpt lat="42.822982" lon="-1.6109279999999948">
        <ele>434.875</ele>
        <time>2022-08-24T17:09:37Z</time>
      </trkpt>
      <trkpt lat="42.822958" lon="-1.6109479999999947">
        <ele>434.815</ele>
        <time>2022-08-24T17:09:38Z</time>
      </trkpt>
      <trkpt lat="42.822928" lon="-1.6109709999999948">
        <ele>434.875</ele>
        <time>2022-08-24T17:09:39Z</time>
      </trkpt>
      <trkpt lat="42.822897999999995" lon="-1.610993999999995">
        <ele>434.861</ele>
        <time>2022-08-24T17:09:40Z</time>
      </trkpt>
      <trkpt lat="42.822782999999994" lon="-1.6110949999999948">
        <ele>434.823</ele>
        <time>2022-08-24T17:09:44Z</time>
      </trkpt>
      <trkpt lat="42.82257299999999" lon="-1.6113519999999948">
        <ele>434.860</ele>
        <time>2022-08-24T17:09:52Z</time>
      </trkpt>
      <trkpt lat="42.82243899999999" lon="-1.6114099999999947">
        <ele>435.063</ele>
        <time>2022-08-24T17:09:56Z</time>
      </trkpt>
      <trkpt lat="42.82240199999999" lon="-1.6114189999999946">
        <ele>435.087</ele>
        <time>2022-08-24T17:09:57Z</time>
      </trkpt>
      <trkpt lat="42.82236799999999" lon="-1.6114249999999946">
        <ele>435.076</ele>
        <time>2022-08-24T17:09:58Z</time>
      </trkpt>
      <trkpt lat="42.82233899999999" lon="-1.6114289999999944">
        <ele>435.082</ele>
        <time>2022-08-24T17:09:59Z</time>
      </trkpt>
      <trkpt lat="42.82231199999999" lon="-1.6114319999999944">
        <ele>435.043</ele>
        <time>2022-08-24T17:10:00Z</time>
      </trkpt>
      <trkpt lat="42.82224899999999" lon="-1.6114659999999945">
        <ele>435.017</ele>
        <time>2022-08-24T17:10:02Z</time>
      </trkpt>
      <trkpt lat="42.822230999999995" lon="-1.6114849999999945">
        <ele>435.009</ele>
        <time>2022-08-24T17:10:03Z</time>
      </trkpt>
      <trkpt lat="42.822210999999996" lon="-1.6115079999999946">
        <ele>435.099</ele>
        <time>2022-08-24T17:10:04Z</time>
      </trkpt>
      <trkpt lat="42.822185999999995" lon="-1.6115319999999946">
        <ele>435.049</ele>
        <time>2022-08-24T17:10:05Z</time>
      </trkpt>
      <trkpt lat="42.822160999999994" lon="-1.6115529999999947">
        <ele>435.079</ele>
        <time>2022-08-24T17:10:06Z</time>
      </trkpt>
      <trkpt lat="42.822101999999994" lon="-1.6116109999999946">
        <ele>435.065</ele>
        <time>2022-08-24T17:10:08Z</time>
      </trkpt>
      <trkpt lat="42.822070999999994" lon="-1.6116469999999945">
        <ele>435.057</ele>
        <time>2022-08-24T17:10:09Z</time>
      </trkpt>
      <trkpt lat="42.822013999999996" lon="-1.6117119999999945">
        <ele>434.874</ele>
        <time>2022-08-24T17:10:11Z</time>
      </trkpt>
      <trkpt lat="42.821977999999994" lon="-1.6117439999999945">
        <ele>434.827</ele>
        <time>2022-08-24T17:10:12Z</time>
      </trkpt>
      <trkpt lat="42.821946" lon="-1.6117749999999944">
        <ele>434.621</ele>
        <time>2022-08-24T17:10:13Z</time>
      </trkpt>
      <trkpt lat="42.821918999999994" lon="-1.6118059999999943">
        <ele>434.470</ele>
        <time>2022-08-24T17:10:14Z</time>
      </trkpt>
      <trkpt lat="42.821887" lon="-1.6118379999999943">
        <ele>434.237</ele>
        <time>2022-08-24T17:10:15Z</time>
      </trkpt>
      <trkpt lat="42.821732999999995" lon="-1.6120049999999944">
        <ele>434.049</ele>
        <time>2022-08-24T17:10:20Z</time>
      </trkpt>
      <trkpt lat="42.82167" lon="-1.6120789999999943">
        <ele>434.013</ele>
        <time>2022-08-24T17:10:22Z</time>
      </trkpt>
      <trkpt lat="42.821627" lon="-1.6121159999999943">
        <ele>434.009</ele>
        <time>2022-08-24T17:10:23Z</time>
      </trkpt>
      <trkpt lat="42.8216" lon="-1.6121459999999943">
        <ele>433.824</ele>
        <time>2022-08-24T17:10:24Z</time>
      </trkpt>
      <trkpt lat="42.821537" lon="-1.6122319999999943">
        <ele>433.884</ele>
        <time>2022-08-24T17:10:26Z</time>
      </trkpt>
      <trkpt lat="42.821507" lon="-1.6122709999999942">
        <ele>433.874</ele>
        <time>2022-08-24T17:10:27Z</time>
      </trkpt>
      <trkpt lat="42.821475" lon="-1.6123099999999941">
        <ele>433.880</ele>
        <time>2022-08-24T17:10:28Z</time>
      </trkpt>
      <trkpt lat="42.821444" lon="-1.6123449999999941">
        <ele>433.882</ele>
        <time>2022-08-24T17:10:29Z</time>
      </trkpt>
      <trkpt lat="42.821412" lon="-1.6123769999999942">
        <ele>433.819</ele>
        <time>2022-08-24T17:10:30Z</time>
      </trkpt>
      <trkpt lat="42.821379" lon="-1.612412999999994">
        <ele>434.092</ele>
        <time>2022-08-24T17:10:31Z</time>
      </trkpt>
      <trkpt lat="42.821347" lon="-1.6124499999999942">
        <ele>434.036</ele>
        <time>2022-08-24T17:10:32Z</time>
      </trkpt>
      <trkpt lat="42.821315000000006" lon="-1.6124879999999941">
        <ele>434.075</ele>
        <time>2022-08-24T17:10:33Z</time>
      </trkpt>
      <trkpt lat="42.821282000000004" lon="-1.6125219999999942">
        <ele>434.017</ele>
        <time>2022-08-24T17:10:34Z</time>
      </trkpt>
      <trkpt lat="42.821243" lon="-1.6125569999999942">
        <ele>434.087</ele>
        <time>2022-08-24T17:10:35Z</time>
      </trkpt>
      <trkpt lat="42.821216" lon="-1.6125879999999941">
        <ele>434.215</ele>
        <time>2022-08-24T17:10:36Z</time>
      </trkpt>
      <trkpt lat="42.821191999999996" lon="-1.6126219999999942">
        <ele>434.209</ele>
        <time>2022-08-24T17:10:37Z</time>
      </trkpt>
      <trkpt lat="42.821144999999994" lon="-1.6126739999999942">
        <ele>434.412</ele>
        <time>2022-08-24T17:10:39Z</time>
      </trkpt>
      <trkpt lat="42.82103599999999" lon="-1.6128149999999941">
        <ele>434.242</ele>
        <time>2022-08-24T17:10:43Z</time>
      </trkpt>
      <trkpt lat="42.82101099999999" lon="-1.612861999999994">
        <ele>434.262</ele>
        <time>2022-08-24T17:10:44Z</time>
      </trkpt>
      <trkpt lat="42.82096999999999" lon="-1.612916999999994">
        <ele>434.288</ele>
        <time>2022-08-24T17:10:45Z</time>
      </trkpt>
      <trkpt lat="42.820818999999986" lon="-1.613123999999994">
        <ele>434.220</ele>
        <time>2022-08-24T17:10:48Z</time>
      </trkpt>
      <trkpt lat="42.82056999999999" lon="-1.613577999999994">
        <ele>434.227</ele>
        <time>2022-08-24T17:10:53Z</time>
      </trkpt>
      <trkpt lat="42.82052099999999" lon="-1.613675999999994">
        <ele>434.270</ele>
        <time>2022-08-24T17:10:54Z</time>
      </trkpt>
      <trkpt lat="42.820432999999994" lon="-1.6138849999999938">
        <ele>434.434</ele>
        <time>2022-08-24T17:10:56Z</time>
      </trkpt>
      <trkpt lat="42.820387" lon="-1.6139799999999938">
        <ele>434.633</ele>
        <time>2022-08-24T17:10:57Z</time>
      </trkpt>
      <trkpt lat="42.820344999999996" lon="-1.6140659999999938">
        <ele>434.868</ele>
        <time>2022-08-24T17:10:58Z</time>
      </trkpt>
      <trkpt lat="42.820308" lon="-1.6141539999999939">
        <ele>434.842</ele>
        <time>2022-08-24T17:10:59Z</time>
      </trkpt>
      <trkpt lat="42.820273" lon="-1.614247999999994">
        <ele>434.826</ele>
        <time>2022-08-24T17:11:00Z</time>
      </trkpt>
      <trkpt lat="42.820233" lon="-1.614343999999994">
        <ele>434.809</ele>
        <time>2022-08-24T17:11:01Z</time>
      </trkpt>
      <trkpt lat="42.820192" lon="-1.614435999999994">
        <ele>434.827</ele>
        <time>2022-08-24T17:11:02Z</time>
      </trkpt>
      <trkpt lat="42.820156" lon="-1.614519999999994">
        <ele>434.827</ele>
        <time>2022-08-24T17:11:03Z</time>
      </trkpt>
      <trkpt lat="42.820116999999996" lon="-1.614600999999994">
        <ele>435.027</ele>
        <time>2022-08-24T17:11:04Z</time>
      </trkpt>
      <trkpt lat="42.820074999999996" lon="-1.614673999999994">
        <ele>435.033</ele>
        <time>2022-08-24T17:11:05Z</time>
      </trkpt>
      <trkpt lat="42.819995999999996" lon="-1.614829999999994">
        <ele>435.065</ele>
        <time>2022-08-24T17:11:07Z</time>
      </trkpt>
      <trkpt lat="42.819959" lon="-1.614905999999994">
        <ele>434.822</ele>
        <time>2022-08-24T17:11:08Z</time>
      </trkpt>
      <trkpt lat="42.819928" lon="-1.614976999999994">
        <ele>434.815</ele>
        <time>2022-08-24T17:11:09Z</time>
      </trkpt>
      <trkpt lat="42.819823" lon="-1.6151989999999938">
        <ele>434.899</ele>
        <time>2022-08-24T17:11:12Z</time>
      </trkpt>
      <trkpt lat="42.819788" lon="-1.615278999999994">
        <ele>434.698</ele>
        <time>2022-08-24T17:11:13Z</time>
      </trkpt>
      <trkpt lat="42.819755" lon="-1.6153549999999939">
        <ele>434.697</ele>
        <time>2022-08-24T17:11:14Z</time>
      </trkpt>
      <trkpt lat="42.819726" lon="-1.615424999999994">
        <ele>434.623</ele>
        <time>2022-08-24T17:11:15Z</time>
      </trkpt>
      <trkpt lat="42.819701" lon="-1.6154909999999938">
        <ele>434.625</ele>
        <time>2022-08-24T17:11:16Z</time>
      </trkpt>
      <trkpt lat="42.819676" lon="-1.6155549999999939">
        <ele>434.409</ele>
        <time>2022-08-24T17:11:17Z</time>
      </trkpt>
      <trkpt lat="42.819655000000004" lon="-1.6156199999999938">
        <ele>434.450</ele>
        <time>2022-08-24T17:11:18Z</time>
      </trkpt>
      <trkpt lat="42.819635000000005" lon="-1.6156819999999938">
        <ele>434.470</ele>
        <time>2022-08-24T17:11:19Z</time>
      </trkpt>
      <trkpt lat="42.81961700000001" lon="-1.6157439999999939">
        <ele>434.240</ele>
        <time>2022-08-24T17:11:20Z</time>
      </trkpt>
      <trkpt lat="42.81960000000001" lon="-1.615872999999994">
        <ele>434.226</ele>
        <time>2022-08-24T17:11:22Z</time>
      </trkpt>
      <trkpt lat="42.81960300000001" lon="-1.6159409999999939">
        <ele>434.268</ele>
        <time>2022-08-24T17:11:23Z</time>
      </trkpt>
      <trkpt lat="42.81961600000001" lon="-1.6160089999999938">
        <ele>434.235</ele>
        <time>2022-08-24T17:11:24Z</time>
      </trkpt>
      <trkpt lat="42.81963100000001" lon="-1.6160829999999937">
        <ele>434.228</ele>
        <time>2022-08-24T17:11:25Z</time>
      </trkpt>
      <trkpt lat="42.81963900000001" lon="-1.6161589999999937">
        <ele>434.022</ele>
        <time>2022-08-24T17:11:26Z</time>
      </trkpt>
      <trkpt lat="42.81963700000001" lon="-1.6162279999999938">
        <ele>434.041</ele>
        <time>2022-08-24T17:11:27Z</time>
      </trkpt>
      <trkpt lat="42.819627000000004" lon="-1.6162779999999939">
        <ele>433.894</ele>
        <time>2022-08-24T17:11:28Z</time>
      </trkpt>
      <trkpt lat="42.819616" lon="-1.616309999999994">
        <ele>433.857</ele>
        <time>2022-08-24T17:11:29Z</time>
      </trkpt>
      <trkpt lat="42.819607000000005" lon="-1.616333999999994">
        <ele>433.822</ele>
        <time>2022-08-24T17:11:30Z</time>
      </trkpt>
      <trkpt lat="42.81960900000001" lon="-1.6163539999999939">
        <ele>433.809</ele>
        <time>2022-08-24T17:11:31Z</time>
      </trkpt>
      <trkpt lat="42.819604000000005" lon="-1.6163679999999938">
        <ele>433.870</ele>
        <time>2022-08-24T17:11:32Z</time>
      </trkpt>
      <trkpt lat="42.81959700000001" lon="-1.6163879999999937">
        <ele>433.870</ele>
        <time>2022-08-24T17:11:33Z</time>
      </trkpt>
      <trkpt lat="42.81959100000001" lon="-1.6164119999999937">
        <ele>434.060</ele>
        <time>2022-08-24T17:11:34Z</time>
      </trkpt>
      <trkpt lat="42.81959000000001" lon="-1.6164649999999938">
        <ele>434.286</ele>
        <time>2022-08-24T17:11:36Z</time>
      </trkpt>
      <trkpt lat="42.819592000000014" lon="-1.6164869999999938">
        <ele>434.458</ele>
        <time>2022-08-24T17:11:37Z</time>
      </trkpt>
      <trkpt lat="42.81959900000001" lon="-1.6165059999999938">
        <ele>434.675</ele>
        <time>2022-08-24T17:11:38Z</time>
      </trkpt>
      <trkpt lat="42.81960300000001" lon="-1.6165219999999938">
        <ele>437.088</ele>
        <time>2022-08-24T17:13:54Z</time>
      </trkpt>
      <trkpt lat="42.81960300000001" lon="-1.6165239999999939">
        <ele>437.042</ele>
        <time>2022-08-24T17:13:55Z</time>
      </trkpt>
      <trkpt lat="42.81959500000001" lon="-1.6165289999999939">
        <ele>437.061</ele>
        <time>2022-08-24T17:13:56Z</time>
      </trkpt>
      <trkpt lat="42.81956600000001" lon="-1.616543999999994">
        <ele>437.085</ele>
        <time>2022-08-24T17:13:58Z</time>
      </trkpt>
      <trkpt lat="42.81954800000001" lon="-1.616603999999994">
        <ele>437.089</ele>
        <time>2022-08-24T17:14:00Z</time>
      </trkpt>
      <trkpt lat="42.819544000000015" lon="-1.616722999999994">
        <ele>437.217</ele>
        <time>2022-08-24T17:14:03Z</time>
      </trkpt>
      <trkpt lat="42.81954500000001" lon="-1.6167559999999939">
        <ele>437.209</ele>
        <time>2022-08-24T17:14:04Z</time>
      </trkpt>
      <trkpt lat="42.819547000000014" lon="-1.6167809999999938">
        <ele>437.029</ele>
        <time>2022-08-24T17:14:05Z</time>
      </trkpt>
      <trkpt lat="42.819550000000014" lon="-1.6168099999999939">
        <ele>437.049</ele>
        <time>2022-08-24T17:14:06Z</time>
      </trkpt>
      <trkpt lat="42.819552000000016" lon="-1.6168379999999938">
        <ele>437.269</ele>
        <time>2022-08-24T17:14:07Z</time>
      </trkpt>
      <trkpt lat="42.81955300000001" lon="-1.6168759999999938">
        <ele>437.295</ele>
        <time>2022-08-24T17:14:08Z</time>
      </trkpt>
      <trkpt lat="42.819550000000014" lon="-1.6169029999999938">
        <ele>437.217</ele>
        <time>2022-08-24T17:14:09Z</time>
      </trkpt>
      <trkpt lat="42.819550000000014" lon="-1.6169299999999938">
        <ele>437.474</ele>
        <time>2022-08-24T17:14:10Z</time>
      </trkpt>
      <trkpt lat="42.819555000000015" lon="-1.6169619999999938">
        <ele>437.427</ele>
        <time>2022-08-24T17:14:11Z</time>
      </trkpt>
      <trkpt lat="42.819558000000015" lon="-1.6170499999999939">
        <ele>437.411</ele>
        <time>2022-08-24T17:14:13Z</time>
      </trkpt>
      <trkpt lat="42.81955700000002" lon="-1.6171509999999938">
        <ele>437.490</ele>
        <time>2022-08-24T17:14:15Z</time>
      </trkpt>
      <trkpt lat="42.81956800000002" lon="-1.6172809999999938">
        <ele>437.488</ele>
        <time>2022-08-24T17:14:17Z</time>
      </trkpt>
      <trkpt lat="42.81955300000002" lon="-1.6173369999999938">
        <ele>437.424</ele>
        <time>2022-08-24T17:14:18Z</time>
      </trkpt>
      <trkpt lat="42.81954900000002" lon="-1.6173929999999939">
        <ele>437.626</ele>
        <time>2022-08-24T17:14:19Z</time>
      </trkpt>
      <trkpt lat="42.819540000000025" lon="-1.617429999999994">
        <ele>437.609</ele>
        <time>2022-08-24T17:14:20Z</time>
      </trkpt>
      <trkpt lat="42.81955300000003" lon="-1.617480999999994">
        <ele>437.649</ele>
        <time>2022-08-24T17:14:21Z</time>
      </trkpt>
      <trkpt lat="42.81956600000003" lon="-1.617536999999994">
        <ele>437.669</ele>
        <time>2022-08-24T17:14:22Z</time>
      </trkpt>
      <trkpt lat="42.81958600000003" lon="-1.617594999999994">
        <ele>437.629</ele>
        <time>2022-08-24T17:14:23Z</time>
      </trkpt>
      <trkpt lat="42.81959700000003" lon="-1.6176419999999938">
        <ele>437.625</ele>
        <time>2022-08-24T17:14:24Z</time>
      </trkpt>
      <trkpt lat="42.81960500000003" lon="-1.6177009999999938">
        <ele>437.827</ele>
        <time>2022-08-24T17:14:25Z</time>
      </trkpt>
      <trkpt lat="42.81960500000003" lon="-1.617750999999994">
        <ele>437.854</ele>
        <time>2022-08-24T17:14:26Z</time>
      </trkpt>
      <trkpt lat="42.81966200000003" lon="-1.617873999999994">
        <ele>437.867</ele>
        <time>2022-08-24T17:14:29Z</time>
      </trkpt>
      <trkpt lat="42.81969000000003" lon="-1.617916999999994">
        <ele>437.851</ele>
        <time>2022-08-24T17:14:30Z</time>
      </trkpt>
      <trkpt lat="42.81972700000003" lon="-1.617962999999994">
        <ele>437.810</ele>
        <time>2022-08-24T17:14:31Z</time>
      </trkpt>
      <trkpt lat="42.81974600000003" lon="-1.617999999999994">
        <ele>437.867</ele>
        <time>2022-08-24T17:14:32Z</time>
      </trkpt>
      <trkpt lat="42.81981600000003" lon="-1.618097999999994">
        <ele>437.881</ele>
        <time>2022-08-24T17:14:35Z</time>
      </trkpt>
      <trkpt lat="42.81984100000003" lon="-1.618138999999994">
        <ele>438.019</ele>
        <time>2022-08-24T17:14:36Z</time>
      </trkpt>
      <trkpt lat="42.81986200000003" lon="-1.618172999999994">
        <ele>438.009</ele>
        <time>2022-08-24T17:14:37Z</time>
      </trkpt>
      <trkpt lat="42.819883000000026" lon="-1.6182019999999941">
        <ele>438.067</ele>
        <time>2022-08-24T17:14:38Z</time>
      </trkpt>
      <trkpt lat="42.81991000000003" lon="-1.618232999999994">
        <ele>437.877</ele>
        <time>2022-08-24T17:14:39Z</time>
      </trkpt>
      <trkpt lat="42.81993500000003" lon="-1.6182669999999941">
        <ele>437.837</ele>
        <time>2022-08-24T17:14:40Z</time>
      </trkpt>
      <trkpt lat="42.81995900000003" lon="-1.618294999999994">
        <ele>437.823</ele>
        <time>2022-08-24T17:14:41Z</time>
      </trkpt>
      <trkpt lat="42.819984000000034" lon="-1.618332999999994">
        <ele>437.885</ele>
        <time>2022-08-24T17:14:42Z</time>
      </trkpt>
      <trkpt lat="42.82001600000003" lon="-1.618372999999994">
        <ele>437.882</ele>
        <time>2022-08-24T17:14:43Z</time>
      </trkpt>
      <trkpt lat="42.820178000000034" lon="-1.6186719999999941">
        <ele>438.065</ele>
        <time>2022-08-24T17:14:50Z</time>
      </trkpt>
      <trkpt lat="42.820265000000035" lon="-1.6188059999999942">
        <ele>438.289</ele>
        <time>2022-08-24T17:14:53Z</time>
      </trkpt>
      <trkpt lat="42.82033600000003" lon="-1.6189059999999942">
        <ele>438.258</ele>
        <time>2022-08-24T17:14:56Z</time>
      </trkpt>
      <trkpt lat="42.820397000000035" lon="-1.6189939999999943">
        <ele>438.286</ele>
        <time>2022-08-24T17:14:58Z</time>
      </trkpt>
      <trkpt lat="42.82042100000004" lon="-1.6190399999999943">
        <ele>438.260</ele>
        <time>2022-08-24T17:14:59Z</time>
      </trkpt>
      <trkpt lat="42.82044800000004" lon="-1.6190769999999943">
        <ele>438.226</ele>
        <time>2022-08-24T17:15:00Z</time>
      </trkpt>
      <trkpt lat="42.82047600000004" lon="-1.6191139999999944">
        <ele>438.209</ele>
        <time>2022-08-24T17:15:01Z</time>
      </trkpt>
      <trkpt lat="42.820523000000044" lon="-1.6191529999999943">
        <ele>438.269</ele>
        <time>2022-08-24T17:15:02Z</time>
      </trkpt>
      <trkpt lat="42.82055000000005" lon="-1.6191959999999943">
        <ele>438.269</ele>
        <time>2022-08-24T17:15:03Z</time>
      </trkpt>
      <trkpt lat="42.820717000000045" lon="-1.6194879999999943">
        <ele>438.629</ele>
        <time>2022-08-24T17:15:09Z</time>
      </trkpt>
      <trkpt lat="42.82087900000005" lon="-1.6196869999999943">
        <ele>438.865</ele>
        <time>2022-08-24T17:15:14Z</time>
      </trkpt>
      <trkpt lat="42.82090300000005" lon="-1.6197159999999944">
        <ele>438.857</ele>
        <time>2022-08-24T17:15:15Z</time>
      </trkpt>
      <trkpt lat="42.82091000000005" lon="-1.6197519999999943">
        <ele>438.854</ele>
        <time>2022-08-24T17:15:16Z</time>
      </trkpt>
      <trkpt lat="42.82093400000005" lon="-1.6197879999999942">
        <ele>438.887</ele>
        <time>2022-08-24T17:15:17Z</time>
      </trkpt>
      <trkpt lat="42.82098800000005" lon="-1.6198639999999942">
        <ele>438.891</ele>
        <time>2022-08-24T17:15:19Z</time>
      </trkpt>
      <trkpt lat="42.82101900000005" lon="-1.6198989999999942">
        <ele>438.870</ele>
        <time>2022-08-24T17:15:20Z</time>
      </trkpt>
      <trkpt lat="42.82104700000005" lon="-1.6199329999999943">
        <ele>438.877</ele>
        <time>2022-08-24T17:15:21Z</time>
      </trkpt>
      <trkpt lat="42.82107500000005" lon="-1.6199699999999944">
        <ele>438.861</ele>
        <time>2022-08-24T17:15:22Z</time>
      </trkpt>
      <trkpt lat="42.82110300000005" lon="-1.6200099999999944">
        <ele>438.827</ele>
        <time>2022-08-24T17:15:23Z</time>
      </trkpt>
      <trkpt lat="42.82113000000005" lon="-1.6200549999999945">
        <ele>438.809</ele>
        <time>2022-08-24T17:15:24Z</time>
      </trkpt>
      <trkpt lat="42.821155000000054" lon="-1.6200939999999944">
        <ele>438.848</ele>
        <time>2022-08-24T17:15:25Z</time>
      </trkpt>
      <trkpt lat="42.821177000000056" lon="-1.6201279999999945">
        <ele>438.878</ele>
        <time>2022-08-24T17:15:26Z</time>
      </trkpt>
      <trkpt lat="42.82119800000005" lon="-1.6201589999999944">
        <ele>438.828</ele>
        <time>2022-08-24T17:15:27Z</time>
      </trkpt>
      <trkpt lat="42.821220000000054" lon="-1.6201889999999943">
        <ele>438.854</ele>
        <time>2022-08-24T17:15:28Z</time>
      </trkpt>
      <trkpt lat="42.82125200000005" lon="-1.6202419999999944">
        <ele>438.826</ele>
        <time>2022-08-24T17:15:30Z</time>
      </trkpt>
      <trkpt lat="42.821414000000054" lon="-1.6204929999999944">
        <ele>439.013</ele>
        <time>2022-08-24T17:15:37Z</time>
      </trkpt>
      <trkpt lat="42.82143700000005" lon="-1.6205339999999944">
        <ele>439.076</ele>
        <time>2022-08-24T17:15:38Z</time>
      </trkpt>
      <trkpt lat="42.821492000000056" lon="-1.6206289999999943">
        <ele>439.070</ele>
        <time>2022-08-24T17:15:40Z</time>
      </trkpt>
      <trkpt lat="42.821551000000056" lon="-1.6207189999999942">
        <ele>439.059</ele>
        <time>2022-08-24T17:15:42Z</time>
      </trkpt>
      <trkpt lat="42.821611000000054" lon="-1.6208309999999941">
        <ele>439.025</ele>
        <time>2022-08-24T17:15:44Z</time>
      </trkpt>
      <trkpt lat="42.82170000000006" lon="-1.620960999999994">
        <ele>438.826</ele>
        <time>2022-08-24T17:15:46Z</time>
      </trkpt>
      <trkpt lat="42.821740000000055" lon="-1.620969999999994">
        <ele>438.808</ele>
        <time>2022-08-24T17:15:47Z</time>
      </trkpt>
      <trkpt lat="42.82181200000006" lon="-1.621231999999994">
        <ele>438.409</ele>
        <time>2022-08-24T17:15:51Z</time>
      </trkpt>
      <trkpt lat="42.82182100000006" lon="-1.621313999999994">
        <ele>438.443</ele>
        <time>2022-08-24T17:15:52Z</time>
      </trkpt>
      <trkpt lat="42.821867000000054" lon="-1.621370999999994">
        <ele>438.293</ele>
        <time>2022-08-24T17:15:53Z</time>
      </trkpt>
      <trkpt lat="42.82195800000005" lon="-1.6214659999999939">
        <ele>438.023</ele>
        <time>2022-08-24T17:15:55Z</time>
      </trkpt>
      <trkpt lat="42.82197900000005" lon="-1.621515999999994">
        <ele>437.869</ele>
        <time>2022-08-24T17:15:56Z</time>
      </trkpt>
      <trkpt lat="42.82199200000005" lon="-1.621568999999994">
        <ele>437.681</ele>
        <time>2022-08-24T17:15:57Z</time>
      </trkpt>
      <trkpt lat="42.82200700000005" lon="-1.621608999999994">
        <ele>437.868</ele>
        <time>2022-08-24T17:15:58Z</time>
      </trkpt>
      <trkpt lat="42.82202900000005" lon="-1.621639999999994">
        <ele>437.861</ele>
        <time>2022-08-24T17:15:59Z</time>
      </trkpt>
      <trkpt lat="42.82204900000005" lon="-1.621680999999994">
        <ele>437.855</ele>
        <time>2022-08-24T17:16:00Z</time>
      </trkpt>
      <trkpt lat="42.82212700000005" lon="-1.621860999999994">
        <ele>438.274</ele>
        <time>2022-08-24T17:16:04Z</time>
      </trkpt>
      <trkpt lat="42.82214700000005" lon="-1.621909999999994">
        <ele>438.243</ele>
        <time>2022-08-24T17:16:05Z</time>
      </trkpt>
      <trkpt lat="42.82216600000005" lon="-1.621954999999994">
        <ele>438.264</ele>
        <time>2022-08-24T17:16:06Z</time>
      </trkpt>
      <trkpt lat="42.82218600000005" lon="-1.621997999999994">
        <ele>438.210</ele>
        <time>2022-08-24T17:16:07Z</time>
      </trkpt>
      <trkpt lat="42.82220300000005" lon="-1.622048999999994">
        <ele>438.209</ele>
        <time>2022-08-24T17:16:08Z</time>
      </trkpt>
      <trkpt lat="42.82223600000005" lon="-1.6222509999999941">
        <ele>438.215</ele>
        <time>2022-08-24T17:16:11Z</time>
      </trkpt>
      <trkpt lat="42.82224600000006" lon="-1.6223099999999941">
        <ele>438.255</ele>
        <time>2022-08-24T17:16:12Z</time>
      </trkpt>
      <trkpt lat="42.82225300000005" lon="-1.6223669999999941">
        <ele>438.285</ele>
        <time>2022-08-24T17:16:13Z</time>
      </trkpt>
      <trkpt lat="42.82225700000005" lon="-1.6224229999999942">
        <ele>438.211</ele>
        <time>2022-08-24T17:16:14Z</time>
      </trkpt>
      <trkpt lat="42.82226200000005" lon="-1.6225809999999943">
        <ele>438.293</ele>
        <time>2022-08-24T17:16:17Z</time>
      </trkpt>
      <trkpt lat="42.822272000000055" lon="-1.6226329999999942">
        <ele>438.220</ele>
        <time>2022-08-24T17:16:18Z</time>
      </trkpt>
      <trkpt lat="42.822278000000054" lon="-1.6227279999999942">
        <ele>438.213</ele>
        <time>2022-08-24T17:16:20Z</time>
      </trkpt>
      <trkpt lat="42.822278000000054" lon="-1.6227809999999943">
        <ele>438.277</ele>
        <time>2022-08-24T17:16:21Z</time>
      </trkpt>
      <trkpt lat="42.822272000000055" lon="-1.6228249999999942">
        <ele>438.236</ele>
        <time>2022-08-24T17:16:22Z</time>
      </trkpt>
      <trkpt lat="42.82227600000005" lon="-1.6228739999999942">
        <ele>438.026</ele>
        <time>2022-08-24T17:16:23Z</time>
      </trkpt>
      <trkpt lat="42.82228400000005" lon="-1.622974999999994">
        <ele>438.047</ele>
        <time>2022-08-24T17:16:25Z</time>
      </trkpt>
      <trkpt lat="42.82227300000005" lon="-1.623406999999994">
        <ele>437.811</ele>
        <time>2022-08-24T17:16:30Z</time>
      </trkpt>
      <trkpt lat="42.82225400000005" lon="-1.623624999999994">
        <ele>438.009</ele>
        <time>2022-08-24T17:16:32Z</time>
      </trkpt>
      <trkpt lat="42.82224900000005" lon="-1.623714999999994">
        <ele>438.013</ele>
        <time>2022-08-24T17:16:33Z</time>
      </trkpt>
      <trkpt lat="42.82223300000005" lon="-1.623821999999994">
        <ele>438.033</ele>
        <time>2022-08-24T17:16:34Z</time>
      </trkpt>
      <trkpt lat="42.82223000000005" lon="-1.6240099999999942">
        <ele>438.023</ele>
        <time>2022-08-24T17:16:36Z</time>
      </trkpt>
      <trkpt lat="42.82222300000005" lon="-1.624099999999994">
        <ele>438.079</ele>
        <time>2022-08-24T17:16:37Z</time>
      </trkpt>
      <trkpt lat="42.82222600000005" lon="-1.624189999999994">
        <ele>438.081</ele>
        <time>2022-08-24T17:16:38Z</time>
      </trkpt>
      <trkpt lat="42.82222400000005" lon="-1.624270999999994">
        <ele>438.258</ele>
        <time>2022-08-24T17:16:39Z</time>
      </trkpt>
      <trkpt lat="42.82222700000005" lon="-1.624348999999994">
        <ele>438.071</ele>
        <time>2022-08-24T17:16:40Z</time>
      </trkpt>
      <trkpt lat="42.82222300000005" lon="-1.624423999999994">
        <ele>438.025</ele>
        <time>2022-08-24T17:16:41Z</time>
      </trkpt>
      <trkpt lat="42.82221800000005" lon="-1.6245019999999941">
        <ele>438.034</ele>
        <time>2022-08-24T17:16:42Z</time>
      </trkpt>
      <trkpt lat="42.82221200000005" lon="-1.6245819999999942">
        <ele>438.018</ele>
        <time>2022-08-24T17:16:43Z</time>
      </trkpt>
      <trkpt lat="42.82220700000005" lon="-1.6246589999999943">
        <ele>437.898</ele>
        <time>2022-08-24T17:16:44Z</time>
      </trkpt>
      <trkpt lat="42.82220400000005" lon="-1.6247289999999943">
        <ele>437.817</ele>
        <time>2022-08-24T17:16:45Z</time>
      </trkpt>
      <trkpt lat="42.82220000000005" lon="-1.6247909999999943">
        <ele>437.809</ele>
        <time>2022-08-24T17:16:46Z</time>
      </trkpt>
      <trkpt lat="42.82219400000005" lon="-1.6248549999999944">
        <ele>437.872</ele>
        <time>2022-08-24T17:16:47Z</time>
      </trkpt>
      <trkpt lat="42.822187000000056" lon="-1.6249209999999943">
        <ele>437.622</ele>
        <time>2022-08-24T17:16:48Z</time>
      </trkpt>
      <trkpt lat="42.822182000000055" lon="-1.6249859999999943">
        <ele>437.632</ele>
        <time>2022-08-24T17:16:49Z</time>
      </trkpt>
      <trkpt lat="42.82217700000005" lon="-1.6250589999999943">
        <ele>437.668</ele>
        <time>2022-08-24T17:16:50Z</time>
      </trkpt>
      <trkpt lat="42.82217700000005" lon="-1.6251079999999942">
        <ele>437.420</ele>
        <time>2022-08-24T17:16:51Z</time>
      </trkpt>
      <trkpt lat="42.822176000000056" lon="-1.6251679999999942">
        <ele>437.487</ele>
        <time>2022-08-24T17:16:52Z</time>
      </trkpt>
      <trkpt lat="42.82217200000006" lon="-1.6252239999999942">
        <ele>437.440</ele>
        <time>2022-08-24T17:16:53Z</time>
      </trkpt>
      <trkpt lat="42.82217500000006" lon="-1.6252759999999942">
        <ele>437.414</ele>
        <time>2022-08-24T17:16:54Z</time>
      </trkpt>
      <trkpt lat="42.822179000000055" lon="-1.6253299999999942">
        <ele>437.423</ele>
        <time>2022-08-24T17:16:55Z</time>
      </trkpt>
      <trkpt lat="42.82217800000006" lon="-1.6253789999999941">
        <ele>437.427</ele>
        <time>2022-08-24T17:16:56Z</time>
      </trkpt>
      <trkpt lat="42.82217700000006" lon="-1.6254269999999942">
        <ele>437.668</ele>
        <time>2022-08-24T17:16:57Z</time>
      </trkpt>
      <trkpt lat="42.82217200000006" lon="-1.6254759999999941">
        <ele>437.614</ele>
        <time>2022-08-24T17:16:58Z</time>
      </trkpt>
      <trkpt lat="42.822159000000056" lon="-1.6255209999999942">
        <ele>437.609</ele>
        <time>2022-08-24T17:16:59Z</time>
      </trkpt>
      <trkpt lat="42.82214700000006" lon="-1.6255679999999941">
        <ele>437.633</ele>
        <time>2022-08-24T17:17:00Z</time>
      </trkpt>
      <trkpt lat="42.822097000000056" lon="-1.625738999999994">
        <ele>438.063</ele>
        <time>2022-08-24T17:17:03Z</time>
      </trkpt>
      <trkpt lat="42.822083000000056" lon="-1.625801999999994">
        <ele>438.033</ele>
        <time>2022-08-24T17:17:04Z</time>
      </trkpt>
      <trkpt lat="42.82207000000005" lon="-1.625854999999994">
        <ele>438.059</ele>
        <time>2022-08-24T17:17:05Z</time>
      </trkpt>
      <trkpt lat="42.822052000000056" lon="-1.625968999999994">
        <ele>438.081</ele>
        <time>2022-08-24T17:17:07Z</time>
      </trkpt>
      <trkpt lat="42.82204000000006" lon="-1.626024999999994">
        <ele>438.058</ele>
        <time>2022-08-24T17:17:08Z</time>
      </trkpt>
      <trkpt lat="42.82201200000006" lon="-1.626126999999994">
        <ele>438.081</ele>
        <time>2022-08-24T17:17:10Z</time>
      </trkpt>
      <trkpt lat="42.82199800000006" lon="-1.626178999999994">
        <ele>438.065</ele>
        <time>2022-08-24T17:17:11Z</time>
      </trkpt>
      <trkpt lat="42.82198600000006" lon="-1.6262289999999942">
        <ele>438.234</ele>
        <time>2022-08-24T17:17:12Z</time>
      </trkpt>
      <trkpt lat="42.821976000000056" lon="-1.626288999999994">
        <ele>438.242</ele>
        <time>2022-08-24T17:17:13Z</time>
      </trkpt>
      <trkpt lat="42.82196400000006" lon="-1.626350999999994">
        <ele>438.422</ele>
        <time>2022-08-24T17:17:14Z</time>
      </trkpt>
      <trkpt lat="42.82196300000006" lon="-1.626415999999994">
        <ele>438.614</ele>
        <time>2022-08-24T17:17:15Z</time>
      </trkpt>
      <trkpt lat="42.82197100000006" lon="-1.626473999999994">
        <ele>438.609</ele>
        <time>2022-08-24T17:17:16Z</time>
      </trkpt>
      <trkpt lat="42.82198800000006" lon="-1.6265209999999939">
        <ele>438.695</ele>
        <time>2022-08-24T17:17:17Z</time>
      </trkpt>
      <trkpt lat="42.82200700000006" lon="-1.6265539999999938">
        <ele>438.665</ele>
        <time>2022-08-24T17:17:18Z</time>
      </trkpt>
      <trkpt lat="42.82202200000006" lon="-1.626582999999994">
        <ele>438.855</ele>
        <time>2022-08-24T17:17:19Z</time>
      </trkpt>
      <trkpt lat="42.82202800000006" lon="-1.6266079999999938">
        <ele>438.821</ele>
        <time>2022-08-24T17:17:20Z</time>
      </trkpt>
      <trkpt lat="42.82203300000006" lon="-1.6266349999999938">
        <ele>438.853</ele>
        <time>2022-08-24T17:17:21Z</time>
      </trkpt>
      <trkpt lat="42.82203900000006" lon="-1.6266619999999938">
        <ele>439.050</ele>
        <time>2022-08-24T17:17:22Z</time>
      </trkpt>
      <trkpt lat="42.82203700000006" lon="-1.626679999999994">
        <ele>438.863</ele>
        <time>2022-08-24T17:17:23Z</time>
      </trkpt>
      <trkpt lat="42.82203100000006" lon="-1.626703999999994">
        <ele>439.087</ele>
        <time>2022-08-24T17:17:24Z</time>
      </trkpt>
      <trkpt lat="42.82202700000006" lon="-1.6267319999999938">
        <ele>439.036</ele>
        <time>2022-08-24T17:17:25Z</time>
      </trkpt>
      <trkpt lat="42.822020000000066" lon="-1.6267639999999939">
        <ele>439.275</ele>
        <time>2022-08-24T17:17:26Z</time>
      </trkpt>
      <trkpt lat="42.822009000000065" lon="-1.6268019999999939">
        <ele>439.228</ele>
        <time>2022-08-24T17:17:27Z</time>
      </trkpt>
      <trkpt lat="42.82196500000006" lon="-1.626976999999994">
        <ele>439.220</ele>
        <time>2022-08-24T17:17:31Z</time>
      </trkpt>
      <trkpt lat="42.82195500000006" lon="-1.627026999999994">
        <ele>439.209</ele>
        <time>2022-08-24T17:17:32Z</time>
      </trkpt>
      <trkpt lat="42.82194000000006" lon="-1.627070999999994">
        <ele>439.258</ele>
        <time>2022-08-24T17:17:33Z</time>
      </trkpt>
      <trkpt lat="42.82192300000006" lon="-1.627116999999994">
        <ele>439.228</ele>
        <time>2022-08-24T17:17:34Z</time>
      </trkpt>
      <trkpt lat="42.82191200000006" lon="-1.6271639999999938">
        <ele>439.278</ele>
        <time>2022-08-24T17:17:35Z</time>
      </trkpt>
      <trkpt lat="42.82188900000006" lon="-1.627251999999994">
        <ele>439.234</ele>
        <time>2022-08-24T17:17:37Z</time>
      </trkpt>
      <trkpt lat="42.82187500000006" lon="-1.6272959999999939">
        <ele>439.426</ele>
        <time>2022-08-24T17:17:38Z</time>
      </trkpt>
      <trkpt lat="42.821852000000064" lon="-1.6273799999999938">
        <ele>439.423</ele>
        <time>2022-08-24T17:17:40Z</time>
      </trkpt>
      <trkpt lat="42.821843000000065" lon="-1.6274179999999938">
        <ele>439.416</ele>
        <time>2022-08-24T17:17:41Z</time>
      </trkpt>
      <trkpt lat="42.82178000000007" lon="-1.627637999999994">
        <ele>439.830</ele>
        <time>2022-08-24T17:17:46Z</time>
      </trkpt>
      <trkpt lat="42.82175900000007" lon="-1.6277229999999938">
        <ele>440.059</ele>
        <time>2022-08-24T17:17:48Z</time>
      </trkpt>
      <trkpt lat="42.82173000000007" lon="-1.6278089999999938">
        <ele>440.036</ele>
        <time>2022-08-24T17:17:50Z</time>
      </trkpt>
      <trkpt lat="42.821704000000075" lon="-1.627891999999994">
        <ele>440.217</ele>
        <time>2022-08-24T17:17:52Z</time>
      </trkpt>
      <trkpt lat="42.821614000000075" lon="-1.628211999999994">
        <ele>440.618</ele>
        <time>2022-08-24T17:17:59Z</time>
      </trkpt>
      <trkpt lat="42.821518000000076" lon="-1.628577999999994">
        <ele>440.809</ele>
        <time>2022-08-24T17:18:07Z</time>
      </trkpt>
      <trkpt lat="42.82150000000008" lon="-1.628669999999994">
        <ele>440.834</ele>
        <time>2022-08-24T17:18:09Z</time>
      </trkpt>
      <trkpt lat="42.82147500000008" lon="-1.628763999999994">
        <ele>440.864</ele>
        <time>2022-08-24T17:18:11Z</time>
      </trkpt>
      <trkpt lat="42.821465000000074" lon="-1.628818999999994">
        <ele>440.854</ele>
        <time>2022-08-24T17:18:12Z</time>
      </trkpt>
      <trkpt lat="42.821372000000075" lon="-1.629145999999994">
        <ele>441.080</ele>
        <time>2022-08-24T17:18:18Z</time>
      </trkpt>
      <trkpt lat="42.82135600000007" lon="-1.629250999999994">
        <ele>441.062</ele>
        <time>2022-08-24T17:18:20Z</time>
      </trkpt>
      <trkpt lat="42.82134600000007" lon="-1.629303999999994">
        <ele>441.089</ele>
        <time>2022-08-24T17:18:21Z</time>
      </trkpt>
      <trkpt lat="42.82133200000007" lon="-1.629355999999994">
        <ele>441.062</ele>
        <time>2022-08-24T17:18:22Z</time>
      </trkpt>
      <trkpt lat="42.82131900000007" lon="-1.6294059999999941">
        <ele>441.086</ele>
        <time>2022-08-24T17:18:23Z</time>
      </trkpt>
      <trkpt lat="42.821308000000066" lon="-1.6294569999999942">
        <ele>441.285</ele>
        <time>2022-08-24T17:18:24Z</time>
      </trkpt>
      <trkpt lat="42.821297000000065" lon="-1.6295059999999941">
        <ele>441.276</ele>
        <time>2022-08-24T17:18:25Z</time>
      </trkpt>
      <trkpt lat="42.82128200000007" lon="-1.6295539999999942">
        <ele>441.290</ele>
        <time>2022-08-24T17:18:26Z</time>
      </trkpt>
      <trkpt lat="42.82126400000007" lon="-1.6296039999999943">
        <ele>441.219</ele>
        <time>2022-08-24T17:18:27Z</time>
      </trkpt>
      <trkpt lat="42.82125200000007" lon="-1.6296539999999944">
        <ele>441.209</ele>
        <time>2022-08-24T17:18:28Z</time>
      </trkpt>
      <trkpt lat="42.821243000000074" lon="-1.6297049999999944">
        <ele>441.298</ele>
        <time>2022-08-24T17:18:29Z</time>
      </trkpt>
      <trkpt lat="42.821228000000076" lon="-1.6297529999999945">
        <ele>441.288</ele>
        <time>2022-08-24T17:18:30Z</time>
      </trkpt>
      <trkpt lat="42.82122200000008" lon="-1.6297939999999944">
        <ele>441.238</ele>
        <time>2022-08-24T17:18:31Z</time>
      </trkpt>
      <trkpt lat="42.821214000000076" lon="-1.6298859999999944">
        <ele>441.254</ele>
        <time>2022-08-24T17:18:33Z</time>
      </trkpt>
      <trkpt lat="42.821220000000075" lon="-1.6299369999999944">
        <ele>441.416</ele>
        <time>2022-08-24T17:18:34Z</time>
      </trkpt>
      <trkpt lat="42.82122700000007" lon="-1.6299849999999945">
        <ele>441.423</ele>
        <time>2022-08-24T17:18:35Z</time>
      </trkpt>
      <trkpt lat="42.82125300000007" lon="-1.6301899999999945">
        <ele>441.676</ele>
        <time>2022-08-24T17:18:39Z</time>
      </trkpt>
      <trkpt lat="42.821260000000066" lon="-1.6302439999999945">
        <ele>441.660</ele>
        <time>2022-08-24T17:18:40Z</time>
      </trkpt>
      <trkpt lat="42.821266000000065" lon="-1.6302999999999945">
        <ele>441.699</ele>
        <time>2022-08-24T17:18:41Z</time>
      </trkpt>
      <trkpt lat="42.82127400000007" lon="-1.6303559999999946">
        <ele>441.827</ele>
        <time>2022-08-24T17:18:42Z</time>
      </trkpt>
      <trkpt lat="42.82133000000007" lon="-1.6307039999999946">
        <ele>441.868</ele>
        <time>2022-08-24T17:18:48Z</time>
      </trkpt>
      <trkpt lat="42.821365000000064" lon="-1.6309929999999946">
        <ele>441.814</ele>
        <time>2022-08-24T17:18:53Z</time>
      </trkpt>
      <trkpt lat="42.82136900000006" lon="-1.6310489999999946">
        <ele>442.009</ele>
        <time>2022-08-24T17:18:54Z</time>
      </trkpt>
      <trkpt lat="42.82137100000006" lon="-1.6311049999999947">
        <ele>442.083</ele>
        <time>2022-08-24T17:18:55Z</time>
      </trkpt>
      <trkpt lat="42.821376000000065" lon="-1.6311589999999947">
        <ele>442.093</ele>
        <time>2022-08-24T17:18:56Z</time>
      </trkpt>
      <trkpt lat="42.821379000000064" lon="-1.6312129999999947">
        <ele>442.073</ele>
        <time>2022-08-24T17:18:57Z</time>
      </trkpt>
      <trkpt lat="42.821387000000065" lon="-1.6312619999999947">
        <ele>442.069</ele>
        <time>2022-08-24T17:18:58Z</time>
      </trkpt>
      <trkpt lat="42.821407000000065" lon="-1.6313499999999947">
        <ele>441.861</ele>
        <time>2022-08-24T17:19:00Z</time>
      </trkpt>
      <trkpt lat="42.821413000000064" lon="-1.6314549999999948">
        <ele>441.888</ele>
        <time>2022-08-24T17:19:02Z</time>
      </trkpt>
      <trkpt lat="42.821415000000066" lon="-1.6315129999999947">
        <ele>442.091</ele>
        <time>2022-08-24T17:19:03Z</time>
      </trkpt>
      <trkpt lat="42.82142200000006" lon="-1.6315699999999946">
        <ele>442.085</ele>
        <time>2022-08-24T17:19:04Z</time>
      </trkpt>
      <trkpt lat="42.82142500000006" lon="-1.6316209999999947">
        <ele>441.884</ele>
        <time>2022-08-24T17:19:05Z</time>
      </trkpt>
      <trkpt lat="42.82143100000006" lon="-1.6316649999999946">
        <ele>441.846</ele>
        <time>2022-08-24T17:19:06Z</time>
      </trkpt>
      <trkpt lat="42.82143700000006" lon="-1.6317139999999946">
        <ele>441.888</ele>
        <time>2022-08-24T17:19:07Z</time>
      </trkpt>
      <trkpt lat="42.82144400000006" lon="-1.6317649999999946">
        <ele>441.816</ele>
        <time>2022-08-24T17:19:08Z</time>
      </trkpt>
      <trkpt lat="42.82144800000005" lon="-1.6318169999999945">
        <ele>441.809</ele>
        <time>2022-08-24T17:19:09Z</time>
      </trkpt>
      <trkpt lat="42.821445000000054" lon="-1.6318739999999945">
        <ele>441.865</ele>
        <time>2022-08-24T17:19:10Z</time>
      </trkpt>
      <trkpt lat="42.82145500000006" lon="-1.6320369999999944">
        <ele>441.865</ele>
        <time>2022-08-24T17:19:13Z</time>
      </trkpt>
      <trkpt lat="42.82145700000006" lon="-1.6320839999999943">
        <ele>441.865</ele>
        <time>2022-08-24T17:19:14Z</time>
      </trkpt>
      <trkpt lat="42.821461000000056" lon="-1.6321309999999942">
        <ele>441.851</ele>
        <time>2022-08-24T17:19:15Z</time>
      </trkpt>
      <trkpt lat="42.82146300000006" lon="-1.6321829999999942">
        <ele>441.683</ele>
        <time>2022-08-24T17:19:16Z</time>
      </trkpt>
      <trkpt lat="42.821447000000056" lon="-1.6324469999999942">
        <ele>441.460</ele>
        <time>2022-08-24T17:19:21Z</time>
      </trkpt>
      <trkpt lat="42.82145200000006" lon="-1.6325529999999941">
        <ele>441.653</ele>
        <time>2022-08-24T17:19:23Z</time>
      </trkpt>
      <trkpt lat="42.82145200000006" lon="-1.632599999999994">
        <ele>441.237</ele>
        <time>2022-08-24T17:19:24Z</time>
      </trkpt>
      <trkpt lat="42.82146300000006" lon="-1.6326689999999942">
        <ele>441.426</ele>
        <time>2022-08-24T17:19:26Z</time>
      </trkpt>
      <trkpt lat="42.821467000000055" lon="-1.6327039999999942">
        <ele>441.436</ele>
        <time>2022-08-24T17:19:27Z</time>
      </trkpt>
      <trkpt lat="42.82146900000006" lon="-1.6327389999999942">
        <ele>441.417</ele>
        <time>2022-08-24T17:19:28Z</time>
      </trkpt>
      <trkpt lat="42.82147400000006" lon="-1.6327789999999942">
        <ele>441.418</ele>
        <time>2022-08-24T17:19:29Z</time>
      </trkpt>
      <trkpt lat="42.821475000000056" lon="-1.6328239999999943">
        <ele>441.409</ele>
        <time>2022-08-24T17:19:30Z</time>
      </trkpt>
      <trkpt lat="42.821467000000055" lon="-1.6328639999999943">
        <ele>441.434</ele>
        <time>2022-08-24T17:19:31Z</time>
      </trkpt>
      <trkpt lat="42.82147100000005" lon="-1.6328979999999944">
        <ele>441.414</ele>
        <time>2022-08-24T17:19:32Z</time>
      </trkpt>
      <trkpt lat="42.82147800000005" lon="-1.6329389999999944">
        <ele>441.474</ele>
        <time>2022-08-24T17:19:33Z</time>
      </trkpt>
      <trkpt lat="42.82150500000005" lon="-1.6330359999999944">
        <ele>441.480</ele>
        <time>2022-08-24T17:19:35Z</time>
      </trkpt>
      <trkpt lat="42.82151600000005" lon="-1.6330929999999944">
        <ele>441.292</ele>
        <time>2022-08-24T17:19:36Z</time>
      </trkpt>
      <trkpt lat="42.821552000000054" lon="-1.6332629999999944">
        <ele>441.259</ele>
        <time>2022-08-24T17:19:39Z</time>
      </trkpt>
      <trkpt lat="42.82155600000005" lon="-1.6334509999999944">
        <ele>441.232</ele>
        <time>2022-08-24T17:19:42Z</time>
      </trkpt>
      <trkpt lat="42.82155100000005" lon="-1.6335719999999945">
        <ele>441.086</ele>
        <time>2022-08-24T17:19:44Z</time>
      </trkpt>
      <trkpt lat="42.82154600000005" lon="-1.6337699999999944">
        <ele>441.085</ele>
        <time>2022-08-24T17:19:47Z</time>
      </trkpt>
      <trkpt lat="42.821550000000045" lon="-1.6338769999999945">
        <ele>441.297</ele>
        <time>2022-08-24T17:19:49Z</time>
      </trkpt>
      <trkpt lat="42.821530000000045" lon="-1.6340689999999944">
        <ele>441.223</ele>
        <time>2022-08-24T17:19:52Z</time>
      </trkpt>
      <trkpt lat="42.82153100000004" lon="-1.6341319999999944">
        <ele>441.225</ele>
        <time>2022-08-24T17:19:53Z</time>
      </trkpt>
      <trkpt lat="42.821527000000046" lon="-1.6341929999999945">
        <ele>441.209</ele>
        <time>2022-08-24T17:19:54Z</time>
      </trkpt>
      <trkpt lat="42.82152300000005" lon="-1.6342509999999943">
        <ele>441.220</ele>
        <time>2022-08-24T17:19:55Z</time>
      </trkpt>
      <trkpt lat="42.82147300000005" lon="-1.6345329999999942">
        <ele>441.450</ele>
        <time>2022-08-24T17:20:00Z</time>
      </trkpt>
      <trkpt lat="42.82143800000005" lon="-1.6346549999999942">
        <ele>441.490</ele>
        <time>2022-08-24T17:20:02Z</time>
      </trkpt>
      <trkpt lat="42.82138400000005" lon="-1.6348379999999942">
        <ele>441.446</ele>
        <time>2022-08-24T17:20:05Z</time>
      </trkpt>
      <trkpt lat="42.821363000000055" lon="-1.6349009999999942">
        <ele>441.488</ele>
        <time>2022-08-24T17:20:06Z</time>
      </trkpt>
      <trkpt lat="42.821341000000054" lon="-1.6349619999999943">
        <ele>441.485</ele>
        <time>2022-08-24T17:20:07Z</time>
      </trkpt>
      <trkpt lat="42.82132000000006" lon="-1.6350199999999941">
        <ele>441.478</ele>
        <time>2022-08-24T17:20:08Z</time>
      </trkpt>
      <trkpt lat="42.82130000000006" lon="-1.6350769999999941">
        <ele>441.482</ele>
        <time>2022-08-24T17:20:09Z</time>
      </trkpt>
      <trkpt lat="42.82127900000006" lon="-1.635136999999994">
        <ele>441.491</ele>
        <time>2022-08-24T17:20:10Z</time>
      </trkpt>
      <trkpt lat="42.82126000000006" lon="-1.635193999999994">
        <ele>441.459</ele>
        <time>2022-08-24T17:20:11Z</time>
      </trkpt>
      <trkpt lat="42.82124000000006" lon="-1.635248999999994">
        <ele>441.403</ele>
        <time>2022-08-24T17:20:12Z</time>
      </trkpt>
      <trkpt lat="42.82122000000006" lon="-1.635305999999994">
        <ele>441.423</ele>
        <time>2022-08-24T17:20:13Z</time>
      </trkpt>
      <trkpt lat="42.82120300000006" lon="-1.6353639999999938">
        <ele>441.409</ele>
        <time>2022-08-24T17:20:14Z</time>
      </trkpt>
      <trkpt lat="42.82114600000006" lon="-1.6355989999999938">
        <ele>441.686</ele>
        <time>2022-08-24T17:20:18Z</time>
      </trkpt>
      <trkpt lat="42.821086000000065" lon="-1.6358339999999938">
        <ele>441.866</ele>
        <time>2022-08-24T17:20:22Z</time>
      </trkpt>
      <trkpt lat="42.82101500000007" lon="-1.6360599999999939">
        <ele>441.676</ele>
        <time>2022-08-24T17:20:26Z</time>
      </trkpt>
      <trkpt lat="42.82097500000007" lon="-1.6361709999999938">
        <ele>441.882</ele>
        <time>2022-08-24T17:20:28Z</time>
      </trkpt>
      <trkpt lat="42.820948000000065" lon="-1.6362879999999937">
        <ele>441.844</ele>
        <time>2022-08-24T17:20:30Z</time>
      </trkpt>
      <trkpt lat="42.82085900000006" lon="-1.6366889999999938">
        <ele>441.421</ele>
        <time>2022-08-24T17:20:36Z</time>
      </trkpt>
      <trkpt lat="42.82084900000006" lon="-1.6367589999999939">
        <ele>441.244</ele>
        <time>2022-08-24T17:20:37Z</time>
      </trkpt>
      <trkpt lat="42.82080700000006" lon="-1.6370479999999938">
        <ele>440.838</ele>
        <time>2022-08-24T17:20:41Z</time>
      </trkpt>
      <trkpt lat="42.82079500000006" lon="-1.6371179999999939">
        <ele>440.667</ele>
        <time>2022-08-24T17:20:42Z</time>
      </trkpt>
      <trkpt lat="42.82078300000006" lon="-1.6371829999999938">
        <ele>440.658</ele>
        <time>2022-08-24T17:20:43Z</time>
      </trkpt>
      <trkpt lat="42.82077300000006" lon="-1.637238999999994">
        <ele>440.652</ele>
        <time>2022-08-24T17:20:44Z</time>
      </trkpt>
      <trkpt lat="42.82076200000006" lon="-1.637280999999994">
        <ele>440.617</ele>
        <time>2022-08-24T17:20:45Z</time>
      </trkpt>
      <trkpt lat="42.82075400000006" lon="-1.637312999999994">
        <ele>440.409</ele>
        <time>2022-08-24T17:20:46Z</time>
      </trkpt>
      <trkpt lat="42.82075100000006" lon="-1.6373359999999941">
        <ele>440.446</ele>
        <time>2022-08-24T17:20:47Z</time>
      </trkpt>
      <trkpt lat="42.820755000000055" lon="-1.6373599999999942">
        <ele>440.466</ele>
        <time>2022-08-24T17:20:48Z</time>
      </trkpt>
      <trkpt lat="42.820766000000056" lon="-1.6373779999999942">
        <ele>440.436</ele>
        <time>2022-08-24T17:20:49Z</time>
      </trkpt>
      <trkpt lat="42.82078100000005" lon="-1.6373929999999943">
        <ele>440.282</ele>
        <time>2022-08-24T17:20:50Z</time>
      </trkpt>
      <trkpt lat="42.82080100000005" lon="-1.6374069999999943">
        <ele>440.234</ele>
        <time>2022-08-24T17:20:51Z</time>
      </trkpt>
      <trkpt lat="42.820823000000054" lon="-1.6374169999999943">
        <ele>440.231</ele>
        <time>2022-08-24T17:20:52Z</time>
      </trkpt>
      <trkpt lat="42.82100700000005" lon="-1.6375039999999943">
        <ele>440.674</ele>
        <time>2022-08-24T17:20:59Z</time>
      </trkpt>
      <trkpt lat="42.82102800000005" lon="-1.6375169999999943">
        <ele>440.638</ele>
        <time>2022-08-24T17:21:00Z</time>
      </trkpt>
      <trkpt lat="42.82105200000005" lon="-1.6375309999999943">
        <ele>440.847</ele>
        <time>2022-08-24T17:21:01Z</time>
      </trkpt>
      <trkpt lat="42.82107700000005" lon="-1.6375439999999943">
        <ele>440.832</ele>
        <time>2022-08-24T17:21:02Z</time>
      </trkpt>
      <trkpt lat="42.821149000000055" lon="-1.6375789999999943">
        <ele>441.092</ele>
        <time>2022-08-24T17:21:05Z</time>
      </trkpt>
      <trkpt lat="42.821172000000054" lon="-1.6375829999999942">
        <ele>441.211</ele>
        <time>2022-08-24T17:21:06Z</time>
      </trkpt>
      <trkpt lat="42.821194000000055" lon="-1.6375859999999942">
        <ele>441.209</ele>
        <time>2022-08-24T17:21:07Z</time>
      </trkpt>
      <trkpt lat="42.82121500000005" lon="-1.6375859999999942">
        <ele>441.684</ele>
        <time>2022-08-24T17:21:08Z</time>
      </trkpt>
      <trkpt lat="42.821234000000054" lon="-1.6375869999999941">
        <ele>441.654</ele>
        <time>2022-08-24T17:21:09Z</time>
      </trkpt>
      <trkpt lat="42.82125100000005" lon="-1.6375869999999941">
        <ele>441.824</ele>
        <time>2022-08-24T17:21:10Z</time>
      </trkpt>
      <trkpt lat="42.821270000000055" lon="-1.637589999999994">
        <ele>441.860</ele>
        <time>2022-08-24T17:21:11Z</time>
      </trkpt>
      <trkpt lat="42.821290000000054" lon="-1.6375979999999941">
        <ele>442.052</ele>
        <time>2022-08-24T17:21:12Z</time>
      </trkpt>
      <trkpt lat="42.82131300000005" lon="-1.6376079999999942">
        <ele>442.089</ele>
        <time>2022-08-24T17:21:13Z</time>
      </trkpt>
      <trkpt lat="42.82133100000005" lon="-1.6376129999999942">
        <ele>442.072</ele>
        <time>2022-08-24T17:21:14Z</time>
      </trkpt>
      <trkpt lat="42.821445000000054" lon="-1.6376379999999942">
        <ele>442.266</ele>
        <time>2022-08-24T17:21:19Z</time>
      </trkpt>
      <trkpt lat="42.821467000000055" lon="-1.637643999999994">
        <ele>442.255</ele>
        <time>2022-08-24T17:21:20Z</time>
      </trkpt>
      <trkpt lat="42.82149100000006" lon="-1.6376489999999941">
        <ele>442.222</ele>
        <time>2022-08-24T17:21:21Z</time>
      </trkpt>
      <trkpt lat="42.82156200000006" lon="-1.6376779999999942">
        <ele>442.662</ele>
        <time>2022-08-24T17:21:24Z</time>
      </trkpt>
      <trkpt lat="42.821588000000055" lon="-1.6376869999999941">
        <ele>442.608</ele>
        <time>2022-08-24T17:21:25Z</time>
      </trkpt>
      <trkpt lat="42.82160400000006" lon="-1.6376939999999942">
        <ele>442.809</ele>
        <time>2022-08-24T17:21:26Z</time>
      </trkpt>
      <trkpt lat="42.82162600000006" lon="-1.6377039999999943">
        <ele>443.263</ele>
        <time>2022-08-24T17:21:27Z</time>
      </trkpt>
      <trkpt lat="42.82168400000006" lon="-1.6377309999999943">
        <ele>443.433</ele>
        <time>2022-08-24T17:21:30Z</time>
      </trkpt>
      <trkpt lat="42.82169800000006" lon="-1.6377319999999942">
        <ele>443.653</ele>
        <time>2022-08-24T17:21:31Z</time>
      </trkpt>
      <trkpt lat="42.82171000000006" lon="-1.6377289999999942">
        <ele>443.679</ele>
        <time>2022-08-24T17:21:32Z</time>
      </trkpt>
      <trkpt lat="42.82172300000006" lon="-1.6377239999999942">
        <ele>443.821</ele>
        <time>2022-08-24T17:21:33Z</time>
      </trkpt>
      <trkpt lat="42.82173800000006" lon="-1.6377209999999942">
        <ele>443.818</ele>
        <time>2022-08-24T17:21:34Z</time>
      </trkpt>
      <trkpt lat="42.82177400000006" lon="-1.6377259999999942">
        <ele>443.891</ele>
        <time>2022-08-24T17:21:36Z</time>
      </trkpt>
      <trkpt lat="42.82179400000006" lon="-1.6377369999999942">
        <ele>443.875</ele>
        <time>2022-08-24T17:21:37Z</time>
      </trkpt>
      <trkpt lat="42.82181000000006" lon="-1.6377419999999943">
        <ele>444.044</ele>
        <time>2022-08-24T17:21:38Z</time>
      </trkpt>
      <trkpt lat="42.82182800000006" lon="-1.6377429999999942">
        <ele>444.056</ele>
        <time>2022-08-24T17:21:39Z</time>
      </trkpt>
      <trkpt lat="42.82190100000006" lon="-1.6377299999999941">
        <ele>444.259</ele>
        <time>2022-08-24T17:21:42Z</time>
      </trkpt>
      <trkpt lat="42.82192300000006" lon="-1.637716999999994">
        <ele>444.214</ele>
        <time>2022-08-24T17:21:43Z</time>
      </trkpt>
      <trkpt lat="42.82194600000006" lon="-1.6376999999999942">
        <ele>444.209</ele>
        <time>2022-08-24T17:21:44Z</time>
      </trkpt>
      <trkpt lat="42.82215700000006" lon="-1.6375509999999942">
        <ele>444.256</ele>
        <time>2022-08-24T17:21:52Z</time>
      </trkpt>
      <trkpt lat="42.822353000000064" lon="-1.6374579999999943">
        <ele>444.466</ele>
        <time>2022-08-24T17:21:58Z</time>
      </trkpt>
      <trkpt lat="42.82238700000006" lon="-1.6374389999999943">
        <ele>444.226</ele>
        <time>2022-08-24T17:21:59Z</time>
      </trkpt>
      <trkpt lat="42.82242700000006" lon="-1.6374159999999942">
        <ele>444.262</ele>
        <time>2022-08-24T17:22:00Z</time>
      </trkpt>
      <trkpt lat="42.82246300000006" lon="-1.6373949999999942">
        <ele>444.014</ele>
        <time>2022-08-24T17:22:01Z</time>
      </trkpt>
      <trkpt lat="42.82249400000006" lon="-1.637376999999994">
        <ele>443.831</ele>
        <time>2022-08-24T17:22:02Z</time>
      </trkpt>
      <trkpt lat="42.822521000000066" lon="-1.637361999999994">
        <ele>443.884</ele>
        <time>2022-08-24T17:22:03Z</time>
      </trkpt>
      <trkpt lat="42.82254500000007" lon="-1.637342999999994">
        <ele>443.658</ele>
        <time>2022-08-24T17:22:04Z</time>
      </trkpt>
      <trkpt lat="42.82259600000007" lon="-1.637281999999994">
        <ele>443.417</ele>
        <time>2022-08-24T17:22:06Z</time>
      </trkpt>
      <trkpt lat="42.82269800000007" lon="-1.637095999999994">
        <ele>443.236</ele>
        <time>2022-08-24T17:22:10Z</time>
      </trkpt>
      <trkpt lat="42.82273400000007" lon="-1.637057999999994">
        <ele>443.217</ele>
        <time>2022-08-24T17:22:11Z</time>
      </trkpt>
      <trkpt lat="42.822786000000065" lon="-1.6370319999999938">
        <ele>443.218</ele>
        <time>2022-08-24T17:22:12Z</time>
      </trkpt>
      <trkpt lat="42.82282400000007" lon="-1.637030999999994">
        <ele>443.209</ele>
        <time>2022-08-24T17:22:13Z</time>
      </trkpt>
      <trkpt lat="42.82286900000007" lon="-1.637040999999994">
        <ele>443.044</ele>
        <time>2022-08-24T17:22:14Z</time>
      </trkpt>
      <trkpt lat="42.822912000000066" lon="-1.637061999999994">
        <ele>443.024</ele>
        <time>2022-08-24T17:22:15Z</time>
      </trkpt>
      <trkpt lat="42.82295300000007" lon="-1.637087999999994">
        <ele>442.824</ele>
        <time>2022-08-24T17:22:16Z</time>
      </trkpt>
      <trkpt lat="42.82299300000007" lon="-1.6371109999999942">
        <ele>442.870</ele>
        <time>2022-08-24T17:22:17Z</time>
      </trkpt>
      <trkpt lat="42.823036000000066" lon="-1.6371279999999941">
        <ele>442.882</ele>
        <time>2022-08-24T17:22:18Z</time>
      </trkpt>
      <trkpt lat="42.82308000000007" lon="-1.6371379999999942">
        <ele>442.869</ele>
        <time>2022-08-24T17:22:19Z</time>
      </trkpt>
      <trkpt lat="42.82312200000007" lon="-1.6371369999999943">
        <ele>442.882</ele>
        <time>2022-08-24T17:22:20Z</time>
      </trkpt>
      <trkpt lat="42.82316000000007" lon="-1.6371239999999943">
        <ele>442.846</ele>
        <time>2022-08-24T17:22:21Z</time>
      </trkpt>
      <trkpt lat="42.823196000000074" lon="-1.6370969999999943">
        <ele>442.645</ele>
        <time>2022-08-24T17:22:22Z</time>
      </trkpt>
      <trkpt lat="42.82323000000007" lon="-1.6370639999999943">
        <ele>442.671</ele>
        <time>2022-08-24T17:22:23Z</time>
      </trkpt>
      <trkpt lat="42.82326400000007" lon="-1.6370279999999944">
        <ele>442.441</ele>
        <time>2022-08-24T17:22:24Z</time>
      </trkpt>
      <trkpt lat="42.823297000000075" lon="-1.6369929999999944">
        <ele>442.415</ele>
        <time>2022-08-24T17:22:25Z</time>
      </trkpt>
      <trkpt lat="42.82336900000008" lon="-1.6369229999999944">
        <ele>442.209</ele>
        <time>2022-08-24T17:22:27Z</time>
      </trkpt>
      <trkpt lat="42.82348400000008" lon="-1.6368149999999944">
        <ele>442.278</ele>
        <time>2022-08-24T17:22:30Z</time>
      </trkpt>
      <trkpt lat="42.82359600000008" lon="-1.6367169999999944">
        <ele>442.278</ele>
        <time>2022-08-24T17:22:33Z</time>
      </trkpt>
      <trkpt lat="42.82363500000008" lon="-1.6366769999999944">
        <ele>442.228</ele>
        <time>2022-08-24T17:22:34Z</time>
      </trkpt>
      <trkpt lat="42.823673000000085" lon="-1.6366459999999945">
        <ele>442.234</ele>
        <time>2022-08-24T17:22:35Z</time>
      </trkpt>
      <trkpt lat="42.82370300000009" lon="-1.6366229999999944">
        <ele>442.446</ele>
        <time>2022-08-24T17:22:36Z</time>
      </trkpt>
      <trkpt lat="42.82372800000009" lon="-1.6366069999999944">
        <ele>442.423</ele>
        <time>2022-08-24T17:22:37Z</time>
      </trkpt>
      <trkpt lat="42.823749000000085" lon="-1.6365969999999943">
        <ele>442.436</ele>
        <time>2022-08-24T17:22:38Z</time>
      </trkpt>
      <trkpt lat="42.823768000000086" lon="-1.6365829999999943">
        <ele>442.420</ele>
        <time>2022-08-24T17:22:39Z</time>
      </trkpt>
      <trkpt lat="42.82379300000009" lon="-1.6365649999999943">
        <ele>442.489</ele>
        <time>2022-08-24T17:22:40Z</time>
      </trkpt>
      <trkpt lat="42.82381700000009" lon="-1.6365519999999942">
        <ele>442.468</ele>
        <time>2022-08-24T17:22:41Z</time>
      </trkpt>
      <trkpt lat="42.82390200000009" lon="-1.6364689999999942">
        <ele>442.442</ele>
        <time>2022-08-24T17:22:44Z</time>
      </trkpt>
      <trkpt lat="42.823982000000086" lon="-1.6364069999999942">
        <ele>442.426</ele>
        <time>2022-08-24T17:22:46Z</time>
      </trkpt>
      <trkpt lat="42.82402100000009" lon="-1.6363749999999941">
        <ele>442.209</ele>
        <time>2022-08-24T17:22:47Z</time>
      </trkpt>
      <trkpt lat="42.824129000000084" lon="-1.636267999999994">
        <ele>442.277</ele>
        <time>2022-08-24T17:22:50Z</time>
      </trkpt>
      <trkpt lat="42.82418400000009" lon="-1.636227999999994">
        <ele>442.237</ele>
        <time>2022-08-24T17:22:51Z</time>
      </trkpt>
      <trkpt lat="42.82418400000009" lon="-1.636227999999994">
        <ele>442.037</ele>
        <time>2022-08-24T17:22:52Z</time>
      </trkpt>
      <trkpt lat="42.82421200000009" lon="-1.636201999999994">
        <ele>442.033</ele>
        <time>2022-08-24T17:22:53Z</time>
      </trkpt>
      <trkpt lat="42.824292000000085" lon="-1.6361249999999938">
        <ele>442.285</ele>
        <time>2022-08-24T17:22:56Z</time>
      </trkpt>
      <trkpt lat="42.82434700000009" lon="-1.636080999999994">
        <ele>442.452</ele>
        <time>2022-08-24T17:22:57Z</time>
      </trkpt>
      <trkpt lat="42.82438100000009" lon="-1.636050999999994">
        <ele>442.435</ele>
        <time>2022-08-24T17:22:58Z</time>
      </trkpt>
      <trkpt lat="42.82449600000009" lon="-1.635949999999994">
        <ele>442.879</ele>
        <time>2022-08-24T17:23:02Z</time>
      </trkpt>
      <trkpt lat="42.82452100000009" lon="-1.635938999999994">
        <ele>442.828</ele>
        <time>2022-08-24T17:23:03Z</time>
      </trkpt>
      <trkpt lat="42.82452100000009" lon="-1.635938999999994">
        <ele>443.082</ele>
        <time>2022-08-24T17:23:04Z</time>
      </trkpt>
      <trkpt lat="42.82460500000009" lon="-1.635825999999994">
        <ele>443.043</ele>
        <time>2022-08-24T17:23:07Z</time>
      </trkpt>
      <trkpt lat="42.82462400000009" lon="-1.635783999999994">
        <ele>443.217</ele>
        <time>2022-08-24T17:23:08Z</time>
      </trkpt>
      <trkpt lat="42.82462400000009" lon="-1.635783999999994">
        <ele>443.209</ele>
        <time>2022-08-24T17:23:09Z</time>
      </trkpt>
      <trkpt lat="42.82466700000009" lon="-1.6357469999999938">
        <ele>443.439</ele>
        <time>2022-08-24T17:23:10Z</time>
      </trkpt>
      <trkpt lat="42.82466700000009" lon="-1.6357469999999938">
        <ele>443.479</ele>
        <time>2022-08-24T17:23:11Z</time>
      </trkpt>
      <trkpt lat="42.82476200000009" lon="-1.635729999999994">
        <ele>443.489</ele>
        <time>2022-08-24T17:23:13Z</time>
      </trkpt>
      <trkpt lat="42.824792000000095" lon="-1.635721999999994">
        <ele>443.685</ele>
        <time>2022-08-24T17:23:14Z</time>
      </trkpt>
      <trkpt lat="42.824823000000094" lon="-1.635717999999994">
        <ele>443.697</ele>
        <time>2022-08-24T17:23:15Z</time>
      </trkpt>
      <trkpt lat="42.8248500000001" lon="-1.635714999999994">
        <ele>443.654</ele>
        <time>2022-08-24T17:23:16Z</time>
      </trkpt>
      <trkpt lat="42.824941000000095" lon="-1.635711999999994">
        <ele>444.067</ele>
        <time>2022-08-24T17:23:19Z</time>
      </trkpt>
      <trkpt lat="42.824941000000095" lon="-1.635711999999994">
        <ele>444.051</ele>
        <time>2022-08-24T17:23:20Z</time>
      </trkpt>
      <trkpt lat="42.824969000000095" lon="-1.6357109999999941">
        <ele>444.080</ele>
        <time>2022-08-24T17:23:21Z</time>
      </trkpt>
      <trkpt lat="42.8251620000001" lon="-1.6357539999999942">
        <ele>444.243</ele>
        <time>2022-08-24T17:23:26Z</time>
      </trkpt>
      <trkpt lat="42.8252310000001" lon="-1.635792999999994">
        <ele>444.264</ele>
        <time>2022-08-24T17:23:28Z</time>
      </trkpt>
      <trkpt lat="42.8252980000001" lon="-1.635809999999994">
        <ele>444.410</ele>
        <time>2022-08-24T17:23:30Z</time>
      </trkpt>
      <trkpt lat="42.8254200000001" lon="-1.6358139999999939">
        <ele>444.609</ele>
        <time>2022-08-24T17:23:33Z</time>
      </trkpt>
      <trkpt lat="42.8254200000001" lon="-1.6358139999999939">
        <ele>444.895</ele>
        <time>2022-08-24T17:23:34Z</time>
      </trkpt>
      <trkpt lat="42.8254980000001" lon="-1.635829999999994">
        <ele>444.895</ele>
        <time>2022-08-24T17:23:35Z</time>
      </trkpt>
      <trkpt lat="42.825534000000104" lon="-1.6358389999999938">
        <ele>444.875</ele>
        <time>2022-08-24T17:23:36Z</time>
      </trkpt>
      <trkpt lat="42.825567000000106" lon="-1.6358499999999938">
        <ele>444.831</ele>
        <time>2022-08-24T17:23:37Z</time>
      </trkpt>
      <trkpt lat="42.8256020000001" lon="-1.6358659999999938">
        <ele>444.873</ele>
        <time>2022-08-24T17:23:38Z</time>
      </trkpt>
      <trkpt lat="42.8256020000001" lon="-1.6358659999999938">
        <ele>444.810</ele>
        <time>2022-08-24T17:23:39Z</time>
      </trkpt>
      <trkpt lat="42.8256820000001" lon="-1.635883999999994">
        <ele>444.813</ele>
        <time>2022-08-24T17:23:40Z</time>
      </trkpt>
      <trkpt lat="42.8257900000001" lon="-1.635912999999994">
        <ele>444.847</ele>
        <time>2022-08-24T17:23:43Z</time>
      </trkpt>
      <trkpt lat="42.825825000000094" lon="-1.6359219999999939">
        <ele>444.846</ele>
        <time>2022-08-24T17:23:44Z</time>
      </trkpt>
      <trkpt lat="42.82586000000009" lon="-1.6359329999999939">
        <ele>444.847</ele>
        <time>2022-08-24T17:23:45Z</time>
      </trkpt>
      <trkpt lat="42.82589400000009" lon="-1.6359449999999938">
        <ele>445.029</ele>
        <time>2022-08-24T17:23:46Z</time>
      </trkpt>
      <trkpt lat="42.82603600000009" lon="-1.6359839999999937">
        <ele>445.021</ele>
        <time>2022-08-24T17:23:50Z</time>
      </trkpt>
      <trkpt lat="42.82637300000009" lon="-1.6360919999999937">
        <ele>445.209</ele>
        <time>2022-08-24T17:23:59Z</time>
      </trkpt>
      <trkpt lat="42.82644200000009" lon="-1.6361099999999937">
        <ele>445.085</ele>
        <time>2022-08-24T17:24:01Z</time>
      </trkpt>
      <trkpt lat="42.826548000000095" lon="-1.6361419999999938">
        <ele>445.265</ele>
        <time>2022-08-24T17:24:04Z</time>
      </trkpt>
      <trkpt lat="42.82658800000009" lon="-1.6361649999999939">
        <ele>445.285</ele>
        <time>2022-08-24T17:24:05Z</time>
      </trkpt>
      <trkpt lat="42.82669300000009" lon="-1.636239999999994">
        <ele>445.091</ele>
        <time>2022-08-24T17:24:08Z</time>
      </trkpt>
      <trkpt lat="42.82672700000009" lon="-1.6362649999999939">
        <ele>445.043</ele>
        <time>2022-08-24T17:24:09Z</time>
      </trkpt>
      <trkpt lat="42.82675600000009" lon="-1.6362849999999938">
        <ele>445.050</ele>
        <time>2022-08-24T17:24:10Z</time>
      </trkpt>
      <trkpt lat="42.82678300000009" lon="-1.6363009999999938">
        <ele>445.023</ele>
        <time>2022-08-24T17:24:11Z</time>
      </trkpt>
      <trkpt lat="42.82678300000009" lon="-1.6363009999999938">
        <ele>445.057</ele>
        <time>2022-08-24T17:24:12Z</time>
      </trkpt>
      <trkpt lat="42.82683200000009" lon="-1.6363299999999938">
        <ele>445.066</ele>
        <time>2022-08-24T17:24:13Z</time>
      </trkpt>
      <trkpt lat="42.82685400000009" lon="-1.6363489999999938">
        <ele>444.871</ele>
        <time>2022-08-24T17:24:14Z</time>
      </trkpt>
      <trkpt lat="42.82701500000009" lon="-1.6364379999999938">
        <ele>444.641</ele>
        <time>2022-08-24T17:24:19Z</time>
      </trkpt>
      <trkpt lat="42.82726500000009" lon="-1.636560999999994">
        <ele>444.815</ele>
        <time>2022-08-24T17:24:25Z</time>
      </trkpt>
      <trkpt lat="42.82742900000009" lon="-1.636630999999994">
        <ele>444.809</ele>
        <time>2022-08-24T17:24:28Z</time>
      </trkpt>
      <trkpt lat="42.82755200000009" lon="-1.636710999999994">
        <ele>444.848</ele>
        <time>2022-08-24T17:24:30Z</time>
      </trkpt>
      <trkpt lat="42.82778600000009" lon="-1.636915999999994">
        <ele>444.858</ele>
        <time>2022-08-24T17:24:34Z</time>
      </trkpt>
      <trkpt lat="42.82783600000009" lon="-1.636962999999994">
        <ele>444.628</ele>
        <time>2022-08-24T17:24:35Z</time>
      </trkpt>
      <trkpt lat="42.82783600000009" lon="-1.636962999999994">
        <ele>444.644</ele>
        <time>2022-08-24T17:24:36Z</time>
      </trkpt>
      <trkpt lat="42.82793800000009" lon="-1.6370529999999939">
        <ele>444.436</ele>
        <time>2022-08-24T17:24:37Z</time>
      </trkpt>
      <trkpt lat="42.82799300000009" lon="-1.637097999999994">
        <ele>444.443</ele>
        <time>2022-08-24T17:24:38Z</time>
      </trkpt>
      <trkpt lat="42.82804400000009" lon="-1.637140999999994">
        <ele>444.246</ele>
        <time>2022-08-24T17:24:39Z</time>
      </trkpt>
      <trkpt lat="42.82809600000009" lon="-1.637186999999994">
        <ele>444.040</ele>
        <time>2022-08-24T17:24:40Z</time>
      </trkpt>
      <trkpt lat="42.82814400000009" lon="-1.637227999999994">
        <ele>444.299</ele>
        <time>2022-08-24T17:24:41Z</time>
      </trkpt>
      <trkpt lat="42.828190000000085" lon="-1.6372689999999939">
        <ele>443.856</ele>
        <time>2022-08-24T17:24:42Z</time>
      </trkpt>
      <trkpt lat="42.828229000000086" lon="-1.637305999999994">
        <ele>443.859</ele>
        <time>2022-08-24T17:24:43Z</time>
      </trkpt>
      <trkpt lat="42.82827300000009" lon="-1.6373419999999939">
        <ele>443.614</ele>
        <time>2022-08-24T17:24:44Z</time>
      </trkpt>
      <trkpt lat="42.82831100000009" lon="-1.6373809999999938">
        <ele>443.609</ele>
        <time>2022-08-24T17:24:45Z</time>
      </trkpt>
      <trkpt lat="42.82834600000009" lon="-1.6374209999999938">
        <ele>443.466</ele>
        <time>2022-08-24T17:24:46Z</time>
      </trkpt>
      <trkpt lat="42.82838300000009" lon="-1.6374619999999938">
        <ele>443.426</ele>
        <time>2022-08-24T17:24:47Z</time>
      </trkpt>
      <trkpt lat="42.82842100000009" lon="-1.6375029999999937">
        <ele>443.446</ele>
        <time>2022-08-24T17:24:48Z</time>
      </trkpt>
      <trkpt lat="42.82845800000009" lon="-1.6375429999999938">
        <ele>443.242</ele>
        <time>2022-08-24T17:24:49Z</time>
      </trkpt>
      <trkpt lat="42.82853200000009" lon="-1.6376289999999938">
        <ele>443.254</ele>
        <time>2022-08-24T17:24:51Z</time>
      </trkpt>
      <trkpt lat="42.82856500000009" lon="-1.6376739999999939">
        <ele>443.221</ele>
        <time>2022-08-24T17:24:52Z</time>
      </trkpt>
      <trkpt lat="42.82859600000009" lon="-1.6377169999999939">
        <ele>443.274</ele>
        <time>2022-08-24T17:24:53Z</time>
      </trkpt>
      <trkpt lat="42.82862800000009" lon="-1.6377549999999939">
        <ele>443.298</ele>
        <time>2022-08-24T17:24:54Z</time>
      </trkpt>
      <trkpt lat="42.82862800000009" lon="-1.6377549999999939">
        <ele>443.067</ele>
        <time>2022-08-24T17:24:55Z</time>
      </trkpt>
      <trkpt lat="42.82869000000009" lon="-1.6378209999999938">
        <ele>443.056</ele>
        <time>2022-08-24T17:24:56Z</time>
      </trkpt>
      <trkpt lat="42.82871800000009" lon="-1.6378569999999937">
        <ele>443.059</ele>
        <time>2022-08-24T17:24:57Z</time>
      </trkpt>
      <trkpt lat="42.82874500000009" lon="-1.6378939999999937">
        <ele>443.014</ele>
        <time>2022-08-24T17:24:58Z</time>
      </trkpt>
      <trkpt lat="42.82883300000009" lon="-1.6380039999999938">
        <ele>443.009</ele>
        <time>2022-08-24T17:25:01Z</time>
      </trkpt>
      <trkpt lat="42.828862000000086" lon="-1.6380339999999938">
        <ele>443.066</ele>
        <time>2022-08-24T17:25:02Z</time>
      </trkpt>
      <trkpt lat="42.82889200000009" lon="-1.6380649999999937">
        <ele>443.046</ele>
        <time>2022-08-24T17:25:03Z</time>
      </trkpt>
      <trkpt lat="42.82891400000009" lon="-1.6380889999999937">
        <ele>443.036</ele>
        <time>2022-08-24T17:25:04Z</time>
      </trkpt>
      <trkpt lat="42.82894900000009" lon="-1.6381209999999937">
        <ele>443.092</ele>
        <time>2022-08-24T17:25:05Z</time>
      </trkpt>
      <trkpt lat="42.82898000000009" lon="-1.6381469999999938">
        <ele>442.884</ele>
        <time>2022-08-24T17:25:06Z</time>
      </trkpt>
      <trkpt lat="42.82905000000009" lon="-1.6381949999999939">
        <ele>442.881</ele>
        <time>2022-08-24T17:25:08Z</time>
      </trkpt>
      <trkpt lat="42.82910500000009" lon="-1.6382139999999938">
        <ele>442.874</ele>
        <time>2022-08-24T17:25:09Z</time>
      </trkpt>
      <trkpt lat="42.82915300000009" lon="-1.638212999999994">
        <ele>442.848</ele>
        <time>2022-08-24T17:25:10Z</time>
      </trkpt>
      <trkpt lat="42.82919900000009" lon="-1.638203999999994">
        <ele>443.057</ele>
        <time>2022-08-24T17:25:11Z</time>
      </trkpt>
      <trkpt lat="42.82924300000009" lon="-1.638199999999994">
        <ele>443.014</ele>
        <time>2022-08-24T17:25:12Z</time>
      </trkpt>
      <trkpt lat="42.82928900000009" lon="-1.638197999999994">
        <ele>443.054</ele>
        <time>2022-08-24T17:25:13Z</time>
      </trkpt>
      <trkpt lat="42.82933100000009" lon="-1.638191999999994">
        <ele>443.009</ele>
        <time>2022-08-24T17:25:14Z</time>
      </trkpt>
      <trkpt lat="42.82936900000009" lon="-1.6381809999999941">
        <ele>443.209</ele>
        <time>2022-08-24T17:25:15Z</time>
      </trkpt>
      <trkpt lat="42.82940600000009" lon="-1.638172999999994">
        <ele>443.262</ele>
        <time>2022-08-24T17:25:16Z</time>
      </trkpt>
      <trkpt lat="42.82944200000009" lon="-1.638165999999994">
        <ele>443.482</ele>
        <time>2022-08-24T17:25:17Z</time>
      </trkpt>
      <trkpt lat="42.82947100000009" lon="-1.638158999999994">
        <ele>443.652</ele>
        <time>2022-08-24T17:25:18Z</time>
      </trkpt>
      <trkpt lat="42.82947100000009" lon="-1.638158999999994">
        <ele>443.638</ele>
        <time>2022-08-24T17:25:19Z</time>
      </trkpt>
      <trkpt lat="42.82952200000009" lon="-1.638149999999994">
        <ele>444.010</ele>
        <time>2022-08-24T17:25:20Z</time>
      </trkpt>
      <trkpt lat="42.82954600000009" lon="-1.638146999999994">
        <ele>444.237</ele>
        <time>2022-08-24T17:25:21Z</time>
      </trkpt>
      <trkpt lat="42.82956700000009" lon="-1.638149999999994">
        <ele>444.450</ele>
        <time>2022-08-24T17:25:22Z</time>
      </trkpt>
      <trkpt lat="42.82959300000009" lon="-1.638150999999994">
        <ele>444.674</ele>
        <time>2022-08-24T17:25:23Z</time>
      </trkpt>
      <trkpt lat="42.82959300000009" lon="-1.638150999999994">
        <ele>445.063</ele>
        <time>2022-08-24T17:25:24Z</time>
      </trkpt>
      <trkpt lat="42.829650000000086" lon="-1.638152999999994">
        <ele>445.289</ele>
        <time>2022-08-24T17:25:25Z</time>
      </trkpt>
      <trkpt lat="42.82966900000009" lon="-1.6381569999999939">
        <ele>445.206</ele>
        <time>2022-08-24T17:25:26Z</time>
      </trkpt>
      <trkpt lat="42.82968300000009" lon="-1.6381579999999938">
        <ele>445.626</ele>
        <time>2022-08-24T17:25:27Z</time>
      </trkpt>
      <trkpt lat="42.82970000000009" lon="-1.6381589999999937">
        <ele>445.609</ele>
        <time>2022-08-24T17:25:28Z</time>
      </trkpt>
      <trkpt lat="42.82970000000009" lon="-1.6381589999999937">
        <ele>446.059</ele>
        <time>2022-08-24T17:25:29Z</time>
      </trkpt>
      <trkpt lat="42.82973000000009" lon="-1.6381699999999937">
        <ele>446.279</ele>
        <time>2022-08-24T17:25:30Z</time>
      </trkpt>
      <trkpt lat="42.82974800000009" lon="-1.6381769999999938">
        <ele>446.279</ele>
        <time>2022-08-24T17:25:31Z</time>
      </trkpt>
      <trkpt lat="42.82976500000009" lon="-1.6381839999999939">
        <ele>446.475</ele>
        <time>2022-08-24T17:25:32Z</time>
      </trkpt>
      <trkpt lat="42.82978200000009" lon="-1.638193999999994">
        <ele>446.447</ele>
        <time>2022-08-24T17:25:33Z</time>
      </trkpt>
      <trkpt lat="42.82978200000009" lon="-1.638193999999994">
        <ele>446.844</ele>
        <time>2022-08-24T17:25:34Z</time>
      </trkpt>
      <trkpt lat="42.829816000000086" lon="-1.638212999999994">
        <ele>446.857</ele>
        <time>2022-08-24T17:25:35Z</time>
      </trkpt>
      <trkpt lat="42.82983500000009" lon="-1.638230999999994">
        <ele>447.081</ele>
        <time>2022-08-24T17:25:36Z</time>
      </trkpt>
      <trkpt lat="42.82984900000009" lon="-1.638243999999994">
        <ele>447.240</ele>
        <time>2022-08-24T17:25:37Z</time>
      </trkpt>
      <trkpt lat="42.82986900000009" lon="-1.638255999999994">
        <ele>447.283</ele>
        <time>2022-08-24T17:25:38Z</time>
      </trkpt>
      <trkpt lat="42.82986900000009" lon="-1.638255999999994">
        <ele>447.425</ele>
        <time>2022-08-24T17:25:39Z</time>
      </trkpt>
      <trkpt lat="42.82991000000009" lon="-1.6382809999999939">
        <ele>447.417</ele>
        <time>2022-08-24T17:25:40Z</time>
      </trkpt>
      <trkpt lat="42.82992300000009" lon="-1.638296999999994">
        <ele>447.609</ele>
        <time>2022-08-24T17:25:41Z</time>
      </trkpt>
      <trkpt lat="42.82993200000009" lon="-1.6383089999999938">
        <ele>447.669</ele>
        <time>2022-08-24T17:25:42Z</time>
      </trkpt>
      <trkpt lat="42.829945000000095" lon="-1.6383179999999937">
        <ele>447.639</ele>
        <time>2022-08-24T17:25:43Z</time>
      </trkpt>
      <trkpt lat="42.8299610000001" lon="-1.6383219999999936">
        <ele>447.889</ele>
        <time>2022-08-24T17:25:44Z</time>
      </trkpt>
      <trkpt lat="42.829976000000094" lon="-1.6383239999999937">
        <ele>447.895</ele>
        <time>2022-08-24T17:25:45Z</time>
      </trkpt>
      <trkpt lat="42.82999700000009" lon="-1.6383279999999936">
        <ele>448.077</ele>
        <time>2022-08-24T17:25:46Z</time>
      </trkpt>
      <trkpt lat="42.830010000000094" lon="-1.6383319999999935">
        <ele>448.044</ele>
        <time>2022-08-24T17:25:47Z</time>
      </trkpt>
      <trkpt lat="42.830026000000096" lon="-1.6383399999999935">
        <ele>448.267</ele>
        <time>2022-08-24T17:25:48Z</time>
      </trkpt>
      <trkpt lat="42.830026000000096" lon="-1.6383399999999935">
        <ele>448.291</ele>
        <time>2022-08-24T17:25:49Z</time>
      </trkpt>
      <trkpt lat="42.830063000000095" lon="-1.6383719999999935">
        <ele>448.270</ele>
        <time>2022-08-24T17:25:50Z</time>
      </trkpt>
      <trkpt lat="42.8300760000001" lon="-1.6383889999999934">
        <ele>448.275</ele>
        <time>2022-08-24T17:25:51Z</time>
      </trkpt>
      <trkpt lat="42.830094000000095" lon="-1.6384079999999934">
        <ele>448.428</ele>
        <time>2022-08-24T17:25:52Z</time>
      </trkpt>
      <trkpt lat="42.83011500000009" lon="-1.6384289999999935">
        <ele>448.420</ele>
        <time>2022-08-24T17:25:53Z</time>
      </trkpt>
      <trkpt lat="42.83011500000009" lon="-1.6384289999999935">
        <ele>448.409</ele>
        <time>2022-08-24T17:25:54Z</time>
      </trkpt>
      <trkpt lat="42.83016300000009" lon="-1.6384759999999934">
        <ele>448.468</ele>
        <time>2022-08-24T17:25:55Z</time>
      </trkpt>
      <trkpt lat="42.830190000000094" lon="-1.6384999999999934">
        <ele>448.418</ele>
        <time>2022-08-24T17:25:56Z</time>
      </trkpt>
      <trkpt lat="42.8302140000001" lon="-1.6385229999999935">
        <ele>448.628</ele>
        <time>2022-08-24T17:25:57Z</time>
      </trkpt>
      <trkpt lat="42.8302340000001" lon="-1.6385439999999936">
        <ele>448.684</ele>
        <time>2022-08-24T17:25:58Z</time>
      </trkpt>
      <trkpt lat="42.830254000000096" lon="-1.6385659999999935">
        <ele>448.696</ele>
        <time>2022-08-24T17:25:59Z</time>
      </trkpt>
      <trkpt lat="42.8303660000001" lon="-1.6386959999999935">
        <ele>449.223</ele>
        <time>2022-08-24T17:26:04Z</time>
      </trkpt>
      <trkpt lat="42.8303900000001" lon="-1.6387239999999934">
        <ele>449.266</ele>
        <time>2022-08-24T17:26:05Z</time>
      </trkpt>
      <trkpt lat="42.8304100000001" lon="-1.6387469999999935">
        <ele>449.230</ele>
        <time>2022-08-24T17:26:06Z</time>
      </trkpt>
      <trkpt lat="42.8304310000001" lon="-1.6387709999999935">
        <ele>449.449</ele>
        <time>2022-08-24T17:26:07Z</time>
      </trkpt>
      <trkpt lat="42.830448000000096" lon="-1.6387899999999935">
        <ele>449.431</ele>
        <time>2022-08-24T17:26:08Z</time>
      </trkpt>
      <trkpt lat="42.830448000000096" lon="-1.6387899999999935">
        <ele>449.661</ele>
        <time>2022-08-24T17:26:09Z</time>
      </trkpt>
      <trkpt lat="42.8305490000001" lon="-1.6389229999999935">
        <ele>450.007</ele>
        <time>2022-08-24T17:26:13Z</time>
      </trkpt>
      <trkpt lat="42.8305490000001" lon="-1.6389229999999935">
        <ele>450.209</ele>
        <time>2022-08-24T17:26:14Z</time>
      </trkpt>
      <trkpt lat="42.8305630000001" lon="-1.6389439999999935">
        <ele>450.274</ele>
        <time>2022-08-24T17:26:15Z</time>
      </trkpt>
      <trkpt lat="42.830600000000096" lon="-1.6390009999999935">
        <ele>450.284</ele>
        <time>2022-08-24T17:26:16Z</time>
      </trkpt>
      <trkpt lat="42.8306140000001" lon="-1.6390229999999935">
        <ele>450.494</ele>
        <time>2022-08-24T17:26:17Z</time>
      </trkpt>
      <trkpt lat="42.830631000000096" lon="-1.6390489999999935">
        <ele>450.450</ele>
        <time>2022-08-24T17:26:18Z</time>
      </trkpt>
      <trkpt lat="42.830645000000096" lon="-1.6390699999999936">
        <ele>450.472</ele>
        <time>2022-08-24T17:26:19Z</time>
      </trkpt>
      <trkpt lat="42.830662000000096" lon="-1.6390929999999937">
        <ele>450.629</ele>
        <time>2022-08-24T17:26:21Z</time>
      </trkpt>
      <trkpt lat="42.8306810000001" lon="-1.6391189999999938">
        <ele>450.662</ele>
        <time>2022-08-24T17:26:22Z</time>
      </trkpt>
      <trkpt lat="42.8307080000001" lon="-1.6391559999999938">
        <ele>450.876</ele>
        <time>2022-08-24T17:26:23Z</time>
      </trkpt>
      <trkpt lat="42.8307220000001" lon="-1.6391769999999939">
        <ele>451.085</ele>
        <time>2022-08-24T17:26:24Z</time>
      </trkpt>
      <trkpt lat="42.8307570000001" lon="-1.639237999999994">
        <ele>451.466</ele>
        <time>2022-08-24T17:26:27Z</time>
      </trkpt>
      <trkpt lat="42.830769000000096" lon="-1.639250999999994">
        <ele>451.429</ele>
        <time>2022-08-24T17:26:28Z</time>
      </trkpt>
      <trkpt lat="42.8307850000001" lon="-1.639267999999994">
        <ele>451.421</ele>
        <time>2022-08-24T17:26:29Z</time>
      </trkpt>
      <trkpt lat="42.830851000000095" lon="-1.6393609999999939">
        <ele>451.809</ele>
        <time>2022-08-24T17:26:33Z</time>
      </trkpt>
      <trkpt lat="42.830865000000095" lon="-1.6393769999999939">
        <ele>451.827</ele>
        <time>2022-08-24T17:26:34Z</time>
      </trkpt>
      <trkpt lat="42.8308810000001" lon="-1.6393969999999938">
        <ele>451.827</ele>
        <time>2022-08-24T17:26:35Z</time>
      </trkpt>
      <trkpt lat="42.8308810000001" lon="-1.6393969999999938">
        <ele>452.017</ele>
        <time>2022-08-24T17:26:36Z</time>
      </trkpt>
      <trkpt lat="42.830910000000095" lon="-1.6394389999999939">
        <ele>452.053</ele>
        <time>2022-08-24T17:26:37Z</time>
      </trkpt>
      <trkpt lat="42.830919000000094" lon="-1.6394529999999938">
        <ele>452.215</ele>
        <time>2022-08-24T17:26:38Z</time>
      </trkpt>
      <trkpt lat="42.830924000000095" lon="-1.639462999999994">
        <ele>452.232</ele>
        <time>2022-08-24T17:26:39Z</time>
      </trkpt>
      <trkpt lat="42.8309290000001" lon="-1.6394719999999938">
        <ele>452.445</ele>
        <time>2022-08-24T17:26:40Z</time>
      </trkpt>
      <trkpt lat="42.8309390000001" lon="-1.639494999999994">
        <ele>452.449</ele>
        <time>2022-08-24T17:26:41Z</time>
      </trkpt>
      <trkpt lat="42.8309460000001" lon="-1.639510999999994">
        <ele>452.648</ele>
        <time>2022-08-24T17:26:42Z</time>
      </trkpt>
      <trkpt lat="42.830952000000096" lon="-1.639531999999994">
        <ele>452.642</ele>
        <time>2022-08-24T17:26:43Z</time>
      </trkpt>
      <trkpt lat="42.8309600000001" lon="-1.639550999999994">
        <ele>452.622</ele>
        <time>2022-08-24T17:26:44Z</time>
      </trkpt>
      <trkpt lat="42.8309700000001" lon="-1.639590999999994">
        <ele>452.614</ele>
        <time>2022-08-24T17:26:46Z</time>
      </trkpt>
      <trkpt lat="42.8309840000001" lon="-1.639623999999994">
        <ele>452.609</ele>
        <time>2022-08-24T17:26:47Z</time>
      </trkpt>
      <trkpt lat="42.8309880000001" lon="-1.6396549999999939">
        <ele>452.645</ele>
        <time>2022-08-24T17:26:48Z</time>
      </trkpt>
      <trkpt lat="42.8309730000001" lon="-1.639729999999994">
        <ele>452.845</ele>
        <time>2022-08-24T17:26:50Z</time>
      </trkpt>
      <trkpt lat="42.8309700000001" lon="-1.639769999999994">
        <ele>452.865</ele>
        <time>2022-08-24T17:26:51Z</time>
      </trkpt>
      <trkpt lat="42.8309670000001" lon="-1.639809999999994">
        <ele>452.851</ele>
        <time>2022-08-24T17:26:52Z</time>
      </trkpt>
      <trkpt lat="42.8309780000001" lon="-1.639847999999994">
        <ele>452.863</ele>
        <time>2022-08-24T17:26:53Z</time>
      </trkpt>
      <trkpt lat="42.8309800000001" lon="-1.639876999999994">
        <ele>452.860</ele>
        <time>2022-08-24T17:26:54Z</time>
      </trkpt>
      <trkpt lat="42.8309870000001" lon="-1.639919999999994">
        <ele>452.833</ele>
        <time>2022-08-24T17:26:55Z</time>
      </trkpt>
      <trkpt lat="42.8310070000001" lon="-1.640122999999994">
        <ele>452.487</ele>
        <time>2022-08-24T17:27:00Z</time>
      </trkpt>
      <trkpt lat="42.8310030000001" lon="-1.640163999999994">
        <ele>452.436</ele>
        <time>2022-08-24T17:27:01Z</time>
      </trkpt>
      <trkpt lat="42.8309800000001" lon="-1.640251999999994">
        <ele>452.499</ele>
        <time>2022-08-24T17:27:03Z</time>
      </trkpt>
      <trkpt lat="42.83097300000011" lon="-1.640294999999994">
        <ele>452.407</ele>
        <time>2022-08-24T17:27:04Z</time>
      </trkpt>
      <trkpt lat="42.83092700000011" lon="-1.6404529999999942">
        <ele>452.427</ele>
        <time>2022-08-24T17:27:08Z</time>
      </trkpt>
      <trkpt lat="42.83086800000011" lon="-1.6406359999999942">
        <ele>452.409</ele>
        <time>2022-08-24T17:27:13Z</time>
      </trkpt>
      <trkpt lat="42.83084900000011" lon="-1.6406709999999942">
        <ele>452.410</ele>
        <time>2022-08-24T17:27:14Z</time>
      </trkpt>
      <trkpt lat="42.830816000000105" lon="-1.6407409999999942">
        <ele>452.230</ele>
        <time>2022-08-24T17:27:16Z</time>
      </trkpt>
      <trkpt lat="42.830743000000105" lon="-1.6408079999999943">
        <ele>452.280</ele>
        <time>2022-08-24T17:27:18Z</time>
      </trkpt>
      <trkpt lat="42.8307100000001" lon="-1.6408459999999943">
        <ele>452.256</ele>
        <time>2022-08-24T17:27:19Z</time>
      </trkpt>
      <trkpt lat="42.830653000000105" lon="-1.6409169999999942">
        <ele>452.238</ele>
        <time>2022-08-24T17:27:21Z</time>
      </trkpt>
      <trkpt lat="42.8306290000001" lon="-1.6409409999999942">
        <ele>452.225</ele>
        <time>2022-08-24T17:27:22Z</time>
      </trkpt>
      <trkpt lat="42.8306290000001" lon="-1.6409409999999942">
        <ele>452.068</ele>
        <time>2022-08-24T17:27:23Z</time>
      </trkpt>
      <trkpt lat="42.8305760000001" lon="-1.6410139999999942">
        <ele>452.032</ele>
        <time>2022-08-24T17:27:24Z</time>
      </trkpt>
      <trkpt lat="42.8305510000001" lon="-1.6410429999999943">
        <ele>452.071</ele>
        <time>2022-08-24T17:27:25Z</time>
      </trkpt>
      <trkpt lat="42.8305320000001" lon="-1.6410649999999942">
        <ele>451.892</ele>
        <time>2022-08-24T17:27:26Z</time>
      </trkpt>
      <trkpt lat="42.830513000000096" lon="-1.6410909999999943">
        <ele>451.873</ele>
        <time>2022-08-24T17:27:27Z</time>
      </trkpt>
      <trkpt lat="42.830513000000096" lon="-1.6410909999999943">
        <ele>451.820</ele>
        <time>2022-08-24T17:27:28Z</time>
      </trkpt>
      <trkpt lat="42.8304840000001" lon="-1.6411279999999944">
        <ele>451.609</ele>
        <time>2022-08-24T17:27:29Z</time>
      </trkpt>
      <trkpt lat="42.830474000000095" lon="-1.6411399999999943">
        <ele>451.680</ele>
        <time>2022-08-24T17:27:30Z</time>
      </trkpt>
      <trkpt lat="42.830465000000096" lon="-1.6411489999999942">
        <ele>451.630</ele>
        <time>2022-08-24T17:27:31Z</time>
      </trkpt>
      <trkpt lat="42.8304530000001" lon="-1.6411589999999943">
        <ele>451.420</ele>
        <time>2022-08-24T17:27:32Z</time>
      </trkpt>
      <trkpt lat="42.830443000000095" lon="-1.6411689999999943">
        <ele>451.246</ele>
        <time>2022-08-24T17:27:33Z</time>
      </trkpt>
      <trkpt lat="42.8304390000001" lon="-1.6411849999999943">
        <ele>451.228</ele>
        <time>2022-08-24T17:27:36Z</time>
      </trkpt>
      <trkpt lat="42.8304450000001" lon="-1.6411999999999944">
        <ele>451.285</ele>
        <time>2022-08-24T17:27:37Z</time>
      </trkpt>
      <trkpt lat="42.830516000000095" lon="-1.6412269999999944">
        <ele>451.248</ele>
        <time>2022-08-24T17:27:42Z</time>
      </trkpt>
      <trkpt lat="42.83053400000009" lon="-1.6412359999999944">
        <ele>451.252</ele>
        <time>2022-08-24T17:27:43Z</time>
      </trkpt>
      <trkpt lat="42.83053400000009" lon="-1.6412359999999944">
        <ele>451.271</ele>
        <time>2022-08-24T17:27:44Z</time>
      </trkpt>
      <trkpt lat="42.83056600000009" lon="-1.6413029999999944">
        <ele>451.264</ele>
        <time>2022-08-24T17:27:45Z</time>
      </trkpt>
      <trkpt lat="42.83057100000009" lon="-1.6413289999999945">
        <ele>451.206</ele>
        <time>2022-08-24T17:27:46Z</time>
      </trkpt>
      <trkpt lat="42.83056500000009" lon="-1.6413519999999946">
        <ele>451.216</ele>
        <time>2022-08-24T17:27:47Z</time>
      </trkpt>
      <trkpt lat="42.83056500000009" lon="-1.6413519999999946">
        <ele>451.209</ele>
        <time>2022-08-24T17:27:48Z</time>
      </trkpt>
      <trkpt lat="42.83055500000009" lon="-1.6413739999999946">
        <ele>451.417</ele>
        <time>2022-08-24T17:27:49Z</time>
      </trkpt>
      <trkpt lat="42.83053900000009" lon="-1.6414339999999945">
        <ele>451.477</ele>
        <time>2022-08-24T17:27:50Z</time>
      </trkpt>
      <trkpt lat="42.83053600000009" lon="-1.6414579999999945">
        <ele>451.687</ele>
        <time>2022-08-24T17:27:51Z</time>
      </trkpt>
      <trkpt lat="42.830537000000085" lon="-1.6414989999999945">
        <ele>451.873</ele>
        <time>2022-08-24T17:27:53Z</time>
      </trkpt>
      <trkpt lat="42.830543000000084" lon="-1.6415229999999945">
        <ele>451.855</ele>
        <time>2022-08-24T17:27:54Z</time>
      </trkpt>
      <trkpt lat="42.830548000000086" lon="-1.6415439999999946">
        <ele>452.072</ele>
        <time>2022-08-24T17:27:55Z</time>
      </trkpt>
      <trkpt lat="42.830551000000085" lon="-1.6415679999999946">
        <ele>452.045</ele>
        <time>2022-08-24T17:27:56Z</time>
      </trkpt>
      <trkpt lat="42.830554000000085" lon="-1.6415919999999946">
        <ele>452.269</ele>
        <time>2022-08-24T17:27:57Z</time>
      </trkpt>
      <trkpt lat="42.83054700000009" lon="-1.6416109999999946">
        <ele>452.238</ele>
        <time>2022-08-24T17:27:58Z</time>
      </trkpt>
      <trkpt lat="42.83050700000009" lon="-1.6416569999999946">
        <ele>452.229</ele>
        <time>2022-08-24T17:28:00Z</time>
      </trkpt>
      <trkpt lat="42.83049900000009" lon="-1.6417009999999945">
        <ele>452.200</ele>
        <time>2022-08-24T17:28:02Z</time>
      </trkpt>
      <trkpt lat="42.83047300000009" lon="-1.6417789999999945">
        <ele>452.020</ele>
        <time>2022-08-24T17:28:03Z</time>
      </trkpt>
      <trkpt lat="42.83045900000009" lon="-1.6418189999999946">
        <ele>452.009</ele>
        <time>2022-08-24T17:28:04Z</time>
      </trkpt>
      <trkpt lat="42.83044500000009" lon="-1.6418589999999946">
        <ele>452.033</ele>
        <time>2022-08-24T17:28:05Z</time>
      </trkpt>
      <trkpt lat="42.83041900000009" lon="-1.6419009999999947">
        <ele>452.013</ele>
        <time>2022-08-24T17:28:06Z</time>
      </trkpt>
      <trkpt lat="42.83040600000009" lon="-1.6419279999999947">
        <ele>452.043</ele>
        <time>2022-08-24T17:28:07Z</time>
      </trkpt>
      <trkpt lat="42.83040600000009" lon="-1.6419279999999947">
        <ele>452.069</ele>
        <time>2022-08-24T17:28:08Z</time>
      </trkpt>
      <trkpt lat="42.830379000000086" lon="-1.6419939999999946">
        <ele>452.041</ele>
        <time>2022-08-24T17:28:09Z</time>
      </trkpt>
      <trkpt lat="42.830379000000086" lon="-1.6419939999999946">
        <ele>452.038</ele>
        <time>2022-08-24T17:28:10Z</time>
      </trkpt>
      <trkpt lat="42.830340000000085" lon="-1.6420609999999947">
        <ele>452.071</ele>
        <time>2022-08-24T17:28:11Z</time>
      </trkpt>
      <trkpt lat="42.830298000000084" lon="-1.6422249999999947">
        <ele>451.865</ele>
        <time>2022-08-24T17:28:15Z</time>
      </trkpt>
      <trkpt lat="42.830261000000085" lon="-1.6423239999999948">
        <ele>451.834</ele>
        <time>2022-08-24T17:28:16Z</time>
      </trkpt>
      <trkpt lat="42.830256000000084" lon="-1.6423859999999948">
        <ele>451.821</ele>
        <time>2022-08-24T17:28:17Z</time>
      </trkpt>
      <trkpt lat="42.830242000000084" lon="-1.6424369999999948">
        <ele>451.841</ele>
        <time>2022-08-24T17:28:18Z</time>
      </trkpt>
      <trkpt lat="42.83023800000009" lon="-1.6424909999999948">
        <ele>451.805</ele>
        <time>2022-08-24T17:28:19Z</time>
      </trkpt>
      <trkpt lat="42.83023500000009" lon="-1.6425389999999949">
        <ele>451.609</ele>
        <time>2022-08-24T17:28:20Z</time>
      </trkpt>
      <trkpt lat="42.83022600000009" lon="-1.642583999999995">
        <ele>451.683</ele>
        <time>2022-08-24T17:28:21Z</time>
      </trkpt>
      <trkpt lat="42.83021500000009" lon="-1.6426119999999949">
        <ele>451.673</ele>
        <time>2022-08-24T17:28:22Z</time>
      </trkpt>
      <trkpt lat="42.83020600000009" lon="-1.6426319999999948">
        <ele>451.663</ele>
        <time>2022-08-24T17:28:23Z</time>
      </trkpt>
      <trkpt lat="42.83019100000009" lon="-1.6426549999999949">
        <ele>451.419</ele>
        <time>2022-08-24T17:28:24Z</time>
      </trkpt>
      <trkpt lat="42.830170000000095" lon="-1.642678999999995">
        <ele>451.461</ele>
        <time>2022-08-24T17:28:25Z</time>
      </trkpt>
      <trkpt lat="42.8301490000001" lon="-1.6427169999999949">
        <ele>451.258</ele>
        <time>2022-08-24T17:28:26Z</time>
      </trkpt>
      <trkpt lat="42.8301310000001" lon="-1.6427519999999949">
        <ele>451.241</ele>
        <time>2022-08-24T17:28:27Z</time>
      </trkpt>
      <trkpt lat="42.8301060000001" lon="-1.642801999999995">
        <ele>451.265</ele>
        <time>2022-08-24T17:28:28Z</time>
      </trkpt>
      <trkpt lat="42.8301060000001" lon="-1.642801999999995">
        <ele>451.224</ele>
        <time>2022-08-24T17:28:29Z</time>
      </trkpt>
      <trkpt lat="42.8300740000001" lon="-1.642891999999995">
        <ele>451.048</ele>
        <time>2022-08-24T17:28:30Z</time>
      </trkpt>
      <trkpt lat="42.8300610000001" lon="-1.642937999999995">
        <ele>451.061</ele>
        <time>2022-08-24T17:28:31Z</time>
      </trkpt>
      <trkpt lat="42.8300200000001" lon="-1.643096999999995">
        <ele>451.017</ele>
        <time>2022-08-24T17:28:35Z</time>
      </trkpt>
      <trkpt lat="42.830007000000094" lon="-1.6431599999999948">
        <ele>451.009</ele>
        <time>2022-08-24T17:28:36Z</time>
      </trkpt>
      <trkpt lat="42.82996900000009" lon="-1.6433139999999948">
        <ele>451.045</ele>
        <time>2022-08-24T17:28:38Z</time>
      </trkpt>
      <trkpt lat="42.82997200000009" lon="-1.6433519999999948">
        <ele>451.085</ele>
        <time>2022-08-24T17:28:39Z</time>
      </trkpt>
      <trkpt lat="42.82997000000009" lon="-1.6433979999999948">
        <ele>451.025</ele>
        <time>2022-08-24T17:28:40Z</time>
      </trkpt>
      <trkpt lat="42.82996300000009" lon="-1.6434429999999949">
        <ele>451.011</ele>
        <time>2022-08-24T17:28:41Z</time>
      </trkpt>
      <trkpt lat="42.82994700000009" lon="-1.643487999999995">
        <ele>451.033</ele>
        <time>2022-08-24T17:28:42Z</time>
      </trkpt>
      <trkpt lat="42.82993200000009" lon="-1.6435189999999948">
        <ele>450.830</ele>
        <time>2022-08-24T17:28:43Z</time>
      </trkpt>
      <trkpt lat="42.82991800000009" lon="-1.6435429999999949">
        <ele>451.083</ele>
        <time>2022-08-24T17:28:44Z</time>
      </trkpt>
      <trkpt lat="42.829903000000094" lon="-1.6435779999999949">
        <ele>451.047</ele>
        <time>2022-08-24T17:28:45Z</time>
      </trkpt>
      <trkpt lat="42.8298850000001" lon="-1.6436089999999948">
        <ele>451.026</ele>
        <time>2022-08-24T17:28:46Z</time>
      </trkpt>
      <trkpt lat="42.8298670000001" lon="-1.6436489999999948">
        <ele>451.062</ele>
        <time>2022-08-24T17:28:47Z</time>
      </trkpt>
      <trkpt lat="42.8298520000001" lon="-1.6436809999999948">
        <ele>450.883</ele>
        <time>2022-08-24T17:28:48Z</time>
      </trkpt>
      <trkpt lat="42.8297660000001" lon="-1.6438859999999949">
        <ele>450.811</ele>
        <time>2022-08-24T17:28:53Z</time>
      </trkpt>
      <trkpt lat="42.8297470000001" lon="-1.643930999999995">
        <ele>450.809</ele>
        <time>2022-08-24T17:28:54Z</time>
      </trkpt>
      <trkpt lat="42.8297290000001" lon="-1.6439639999999949">
        <ele>450.847</ele>
        <time>2022-08-24T17:28:55Z</time>
      </trkpt>
      <trkpt lat="42.8297080000001" lon="-1.6440079999999948">
        <ele>450.847</ele>
        <time>2022-08-24T17:28:56Z</time>
      </trkpt>
      <trkpt lat="42.8296520000001" lon="-1.6441829999999948">
        <ele>450.637</ele>
        <time>2022-08-24T17:28:59Z</time>
      </trkpt>
      <trkpt lat="42.8296380000001" lon="-1.6442349999999948">
        <ele>450.643</ele>
        <time>2022-08-24T17:29:00Z</time>
      </trkpt>
      <trkpt lat="42.8296220000001" lon="-1.6442839999999947">
        <ele>450.645</ele>
        <time>2022-08-24T17:29:01Z</time>
      </trkpt>
      <trkpt lat="42.8296220000001" lon="-1.6442839999999947">
        <ele>450.492</ele>
        <time>2022-08-24T17:29:02Z</time>
      </trkpt>
      <trkpt lat="42.8295940000001" lon="-1.6443639999999948">
        <ele>450.455</ele>
        <time>2022-08-24T17:29:03Z</time>
      </trkpt>
      <trkpt lat="42.8295870000001" lon="-1.6444099999999948">
        <ele>450.469</ele>
        <time>2022-08-24T17:29:04Z</time>
      </trkpt>
      <trkpt lat="42.8295850000001" lon="-1.6444559999999948">
        <ele>450.458</ele>
        <time>2022-08-24T17:29:05Z</time>
      </trkpt>
      <trkpt lat="42.8295830000001" lon="-1.6444959999999949">
        <ele>450.437</ele>
        <time>2022-08-24T17:29:06Z</time>
      </trkpt>
      <trkpt lat="42.8295640000001" lon="-1.6445609999999948">
        <ele>450.449</ele>
        <time>2022-08-24T17:29:08Z</time>
      </trkpt>
      <trkpt lat="42.829480000000096" lon="-1.644813999999995">
        <ele>450.213</ele>
        <time>2022-08-24T17:29:15Z</time>
      </trkpt>
      <trkpt lat="42.829480000000096" lon="-1.644813999999995">
        <ele>450.209</ele>
        <time>2022-08-24T17:29:16Z</time>
      </trkpt>
      <trkpt lat="42.82945300000009" lon="-1.6448629999999949">
        <ele>450.274</ele>
        <time>2022-08-24T17:29:17Z</time>
      </trkpt>
      <trkpt lat="42.82937800000009" lon="-1.6449469999999948">
        <ele>450.414</ele>
        <time>2022-08-24T17:29:21Z</time>
      </trkpt>
      <trkpt lat="42.829357000000094" lon="-1.6449589999999947">
        <ele>450.424</ele>
        <time>2022-08-24T17:29:22Z</time>
      </trkpt>
      <trkpt lat="42.829357000000094" lon="-1.6449589999999947">
        <ele>450.420</ele>
        <time>2022-08-24T17:29:23Z</time>
      </trkpt>
      <trkpt lat="42.82931600000009" lon="-1.6450009999999948">
        <ele>450.482</ele>
        <time>2022-08-24T17:29:24Z</time>
      </trkpt>
      <trkpt lat="42.82929400000009" lon="-1.6450249999999949">
        <ele>450.439</ele>
        <time>2022-08-24T17:29:25Z</time>
      </trkpt>
      <trkpt lat="42.829270000000086" lon="-1.645047999999995">
        <ele>450.462</ele>
        <time>2022-08-24T17:29:26Z</time>
      </trkpt>
      <trkpt lat="42.829257000000084" lon="-1.6450789999999949">
        <ele>450.266</ele>
        <time>2022-08-24T17:29:27Z</time>
      </trkpt>
      <trkpt lat="42.82924700000008" lon="-1.6451179999999948">
        <ele>450.285</ele>
        <time>2022-08-24T17:29:28Z</time>
      </trkpt>
      <trkpt lat="42.82923300000008" lon="-1.6451439999999948">
        <ele>450.091</ele>
        <time>2022-08-24T17:29:29Z</time>
      </trkpt>
      <trkpt lat="42.82922400000008" lon="-1.6451659999999948">
        <ele>450.081</ele>
        <time>2022-08-24T17:29:30Z</time>
      </trkpt>
      <trkpt lat="42.829217000000085" lon="-1.645188999999995">
        <ele>450.019</ele>
        <time>2022-08-24T17:29:31Z</time>
      </trkpt>
      <trkpt lat="42.829217000000085" lon="-1.645188999999995">
        <ele>449.809</ele>
        <time>2022-08-24T17:29:32Z</time>
      </trkpt>
      <trkpt lat="42.82918200000009" lon="-1.6452519999999948">
        <ele>449.830</ele>
        <time>2022-08-24T17:29:33Z</time>
      </trkpt>
      <trkpt lat="42.829169000000086" lon="-1.6452999999999949">
        <ele>449.860</ele>
        <time>2022-08-24T17:29:34Z</time>
      </trkpt>
      <trkpt lat="42.82913200000009" lon="-1.645398999999995">
        <ele>449.620</ele>
        <time>2022-08-24T17:29:36Z</time>
      </trkpt>
      <trkpt lat="42.82911500000009" lon="-1.645574999999995">
        <ele>449.676</ele>
        <time>2022-08-24T17:29:39Z</time>
      </trkpt>
      <trkpt lat="42.82911200000009" lon="-1.6456139999999948">
        <ele>449.638</ele>
        <time>2022-08-24T17:29:40Z</time>
      </trkpt>
      <trkpt lat="42.82910900000009" lon="-1.6456539999999948">
        <ele>449.675</ele>
        <time>2022-08-24T17:29:41Z</time>
      </trkpt>
      <trkpt lat="42.82908700000009" lon="-1.6457119999999947">
        <ele>449.688</ele>
        <time>2022-08-24T17:29:44Z</time>
      </trkpt>
      <trkpt lat="42.82905600000009" lon="-1.6457549999999947">
        <ele>449.622</ele>
        <time>2022-08-24T17:29:45Z</time>
      </trkpt>
      <trkpt lat="42.82903900000009" lon="-1.6457869999999948">
        <ele>449.621</ele>
        <time>2022-08-24T17:29:46Z</time>
      </trkpt>
      <trkpt lat="42.82902400000009" lon="-1.6458159999999948">
        <ele>449.477</ele>
        <time>2022-08-24T17:29:47Z</time>
      </trkpt>
      <trkpt lat="42.82901700000009" lon="-1.645852999999995">
        <ele>449.461</ele>
        <time>2022-08-24T17:29:49Z</time>
      </trkpt>
      <trkpt lat="42.82900700000009" lon="-1.6459179999999949">
        <ele>449.427</ele>
        <time>2022-08-24T17:29:50Z</time>
      </trkpt>
      <trkpt lat="42.82899800000009" lon="-1.645933999999995">
        <ele>449.409</ele>
        <time>2022-08-24T17:29:51Z</time>
      </trkpt>
      <trkpt lat="42.82899600000009" lon="-1.645951999999995">
        <ele>449.448</ele>
        <time>2022-08-24T17:29:52Z</time>
      </trkpt>
      <trkpt lat="42.82899000000009" lon="-1.645967999999995">
        <ele>449.438</ele>
        <time>2022-08-24T17:29:53Z</time>
      </trkpt>
      <trkpt lat="42.82899000000009" lon="-1.645985999999995">
        <ele>449.418</ele>
        <time>2022-08-24T17:29:54Z</time>
      </trkpt>
      <trkpt lat="42.82898600000009" lon="-1.646012999999995">
        <ele>449.224</ele>
        <time>2022-08-24T17:29:55Z</time>
      </trkpt>
      <trkpt lat="42.82897800000009" lon="-1.646066999999995">
        <ele>449.266</ele>
        <time>2022-08-24T17:29:57Z</time>
      </trkpt>
      <trkpt lat="42.82898300000009" lon="-1.6461009999999952">
        <ele>449.023</ele>
        <time>2022-08-24T17:29:58Z</time>
      </trkpt>
      <trkpt lat="42.82898300000009" lon="-1.6461009999999952">
        <ele>449.026</ele>
        <time>2022-08-24T17:29:59Z</time>
      </trkpt>
      <trkpt lat="42.82899700000009" lon="-1.6461729999999952">
        <ele>449.090</ele>
        <time>2022-08-24T17:30:00Z</time>
      </trkpt>
      <trkpt lat="42.82900100000009" lon="-1.6462079999999952">
        <ele>449.089</ele>
        <time>2022-08-24T17:30:01Z</time>
      </trkpt>
      <trkpt lat="42.82901000000009" lon="-1.6462279999999951">
        <ele>449.052</ele>
        <time>2022-08-24T17:30:02Z</time>
      </trkpt>
      <trkpt lat="42.82906900000009" lon="-1.6462809999999952">
        <ele>448.853</ele>
        <time>2022-08-24T17:30:05Z</time>
      </trkpt>
      <trkpt lat="42.82909200000009" lon="-1.6462959999999953">
        <ele>448.808</ele>
        <time>2022-08-24T17:30:06Z</time>
      </trkpt>
      <trkpt lat="42.82912000000009" lon="-1.6463169999999954">
        <ele>448.809</ele>
        <time>2022-08-24T17:30:07Z</time>
      </trkpt>
      <trkpt lat="42.82935900000009" lon="-1.6464459999999954">
        <ele>448.626</ele>
        <time>2022-08-24T17:30:15Z</time>
      </trkpt>
      <trkpt lat="42.82960200000009" lon="-1.6465839999999954">
        <ele>448.436</ele>
        <time>2022-08-24T17:30:23Z</time>
      </trkpt>
      <trkpt lat="42.829633000000086" lon="-1.6465979999999953">
        <ele>448.456</ele>
        <time>2022-08-24T17:30:24Z</time>
      </trkpt>
      <trkpt lat="42.829664000000086" lon="-1.6466119999999953">
        <ele>448.432</ele>
        <time>2022-08-24T17:30:25Z</time>
      </trkpt>
      <trkpt lat="42.82985500000009" lon="-1.6466889999999954">
        <ele>448.444</ele>
        <time>2022-08-24T17:30:32Z</time>
      </trkpt>
      <trkpt lat="42.83001200000009" lon="-1.6467579999999955">
        <ele>448.661</ele>
        <time>2022-08-24T17:30:36Z</time>
      </trkpt>
      <trkpt lat="42.83005000000009" lon="-1.6467709999999955">
        <ele>448.644</ele>
        <time>2022-08-24T17:30:37Z</time>
      </trkpt>
      <trkpt lat="42.830117000000094" lon="-1.6468019999999954">
        <ele>448.638</ele>
        <time>2022-08-24T17:30:39Z</time>
      </trkpt>
      <trkpt lat="42.830192000000096" lon="-1.6468369999999954">
        <ele>448.687</ele>
        <time>2022-08-24T17:30:41Z</time>
      </trkpt>
      <trkpt lat="42.83025500000009" lon="-1.6468669999999954">
        <ele>448.643</ele>
        <time>2022-08-24T17:30:43Z</time>
      </trkpt>
      <trkpt lat="42.83028700000009" lon="-1.6468829999999954">
        <ele>448.664</ele>
        <time>2022-08-24T17:30:44Z</time>
      </trkpt>
      <trkpt lat="42.83032000000009" lon="-1.6468929999999955">
        <ele>448.610</ele>
        <time>2022-08-24T17:30:45Z</time>
      </trkpt>
      <trkpt lat="42.830356000000094" lon="-1.6469059999999955">
        <ele>448.609</ele>
        <time>2022-08-24T17:30:46Z</time>
      </trkpt>
      <trkpt lat="42.8303830000001" lon="-1.6469179999999954">
        <ele>448.645</ele>
        <time>2022-08-24T17:30:47Z</time>
      </trkpt>
      <trkpt lat="42.8304050000001" lon="-1.6469449999999954">
        <ele>448.625</ele>
        <time>2022-08-24T17:30:48Z</time>
      </trkpt>
      <trkpt lat="42.8304270000001" lon="-1.6469519999999955">
        <ele>448.665</ele>
        <time>2022-08-24T17:30:49Z</time>
      </trkpt>
      <trkpt lat="42.830448000000096" lon="-1.6469629999999955">
        <ele>448.451</ele>
        <time>2022-08-24T17:30:50Z</time>
      </trkpt>
      <trkpt lat="42.83053100000009" lon="-1.6470129999999956">
        <ele>448.673</ele>
        <time>2022-08-24T17:30:53Z</time>
      </trkpt>
      <trkpt lat="42.83073100000009" lon="-1.6470919999999956">
        <ele>448.630</ele>
        <time>2022-08-24T17:31:01Z</time>
      </trkpt>
      <trkpt lat="42.83079400000009" lon="-1.6470999999999956">
        <ele>448.673</ele>
        <time>2022-08-24T17:31:02Z</time>
      </trkpt>
      <trkpt lat="42.83081800000009" lon="-1.6470959999999957">
        <ele>448.677</ele>
        <time>2022-08-24T17:31:03Z</time>
      </trkpt>
      <trkpt lat="42.83084400000009" lon="-1.6470989999999956">
        <ele>448.646</ele>
        <time>2022-08-24T17:31:04Z</time>
      </trkpt>
      <trkpt lat="42.83086200000009" lon="-1.6471079999999956">
        <ele>448.659</ele>
        <time>2022-08-24T17:31:05Z</time>
      </trkpt>
      <trkpt lat="42.83086200000009" lon="-1.6471079999999956">
        <ele>448.603</ele>
        <time>2022-08-24T17:31:06Z</time>
      </trkpt>
      <trkpt lat="42.83089200000009" lon="-1.6471249999999955">
        <ele>448.623</ele>
        <time>2022-08-24T17:31:07Z</time>
      </trkpt>
      <trkpt lat="42.83090300000009" lon="-1.6471309999999955">
        <ele>448.609</ele>
        <time>2022-08-24T17:31:08Z</time>
      </trkpt>
      <trkpt lat="42.83091100000009" lon="-1.6471399999999954">
        <ele>448.676</ele>
        <time>2022-08-24T17:31:09Z</time>
      </trkpt>
      <trkpt lat="42.830916000000094" lon="-1.6471419999999954">
        <ele>448.656</ele>
        <time>2022-08-24T17:31:10Z</time>
      </trkpt>
      <trkpt lat="42.804099" lon="-1.6636989999999998">
        <ele>439.458</ele>
        <time>2022-08-25T07:22:20Z</time>
      </trkpt>
      <trkpt lat="42.804033000000004" lon="-1.6636889999999998">
        <ele>436.452</ele>
        <time>2022-08-25T07:22:22Z</time>
      </trkpt>
      <trkpt lat="42.803965000000005" lon="-1.6636939999999998">
        <ele>436.817</ele>
        <time>2022-08-25T07:22:24Z</time>
      </trkpt>
      <trkpt lat="42.803873" lon="-1.6637239999999998">
        <ele>434.609</ele>
        <time>2022-08-25T07:22:26Z</time>
      </trkpt>
      <trkpt lat="42.803635" lon="-1.6637679999999997">
        <ele>433.626</ele>
        <time>2022-08-25T07:22:30Z</time>
      </trkpt>
      <trkpt lat="42.803565" lon="-1.6637719999999996">
        <ele>432.866</ele>
        <time>2022-08-25T07:22:31Z</time>
      </trkpt>
      <trkpt lat="42.803419" lon="-1.6637719999999996">
        <ele>434.276</ele>
        <time>2022-08-25T07:22:33Z</time>
      </trkpt>
      <trkpt lat="42.803352" lon="-1.6637709999999997">
        <ele>434.212</ele>
        <time>2022-08-25T07:22:34Z</time>
      </trkpt>
      <trkpt lat="42.803286" lon="-1.6637679999999997">
        <ele>433.844</ele>
        <time>2022-08-25T07:22:35Z</time>
      </trkpt>
      <trkpt lat="42.803222" lon="-1.6637589999999998">
        <ele>433.221</ele>
        <time>2022-08-25T07:22:36Z</time>
      </trkpt>
      <trkpt lat="42.803159" lon="-1.6637429999999997">
        <ele>432.834</ele>
        <time>2022-08-25T07:22:37Z</time>
      </trkpt>
      <trkpt lat="42.803093000000004" lon="-1.6637199999999996">
        <ele>432.460</ele>
        <time>2022-08-25T07:22:38Z</time>
      </trkpt>
      <trkpt lat="42.803038" lon="-1.6636969999999995">
        <ele>432.461</ele>
        <time>2022-08-25T07:22:39Z</time>
      </trkpt>
      <trkpt lat="42.802981" lon="-1.6636679999999995">
        <ele>432.042</ele>
        <time>2022-08-25T07:22:40Z</time>
      </trkpt>
      <trkpt lat="42.802931" lon="-1.6636369999999996">
        <ele>432.022</ele>
        <time>2022-08-25T07:22:41Z</time>
      </trkpt>
      <trkpt lat="42.802881" lon="-1.6635999999999995">
        <ele>431.414</ele>
        <time>2022-08-25T07:22:42Z</time>
      </trkpt>
      <trkpt lat="42.802834" lon="-1.6635649999999995">
        <ele>430.809</ele>
        <time>2022-08-25T07:22:43Z</time>
      </trkpt>
      <trkpt lat="42.802735" lon="-1.6634839999999995">
        <ele>429.835</ele>
        <time>2022-08-25T07:22:45Z</time>
      </trkpt>
      <trkpt lat="42.802685" lon="-1.6634339999999994">
        <ele>429.665</ele>
        <time>2022-08-25T07:22:46Z</time>
      </trkpt>
      <trkpt lat="42.802595" lon="-1.6633229999999994">
        <ele>428.425</ele>
        <time>2022-08-25T07:22:48Z</time>
      </trkpt>
      <trkpt lat="42.802547999999994" lon="-1.6632649999999995">
        <ele>427.631</ele>
        <time>2022-08-25T07:22:49Z</time>
      </trkpt>
      <trkpt lat="42.802507999999996" lon="-1.6632129999999996">
        <ele>427.093</ele>
        <time>2022-08-25T07:22:50Z</time>
      </trkpt>
      <trkpt lat="42.802471" lon="-1.6631609999999997">
        <ele>426.690</ele>
        <time>2022-08-25T07:22:51Z</time>
      </trkpt>
      <trkpt lat="42.8024" lon="-1.6630559999999996">
        <ele>425.633</ele>
        <time>2022-08-25T07:22:53Z</time>
      </trkpt>
      <trkpt lat="42.802361" lon="-1.6630019999999996">
        <ele>424.829</ele>
        <time>2022-08-25T07:22:54Z</time>
      </trkpt>
      <trkpt lat="42.802327" lon="-1.6629519999999995">
        <ele>424.450</ele>
        <time>2022-08-25T07:22:55Z</time>
      </trkpt>
      <trkpt lat="42.802293999999996" lon="-1.6629019999999994">
        <ele>423.868</ele>
        <time>2022-08-25T07:22:56Z</time>
      </trkpt>
      <trkpt lat="42.80226999999999" lon="-1.6628629999999995">
        <ele>423.042</ele>
        <time>2022-08-25T07:22:57Z</time>
      </trkpt>
      <trkpt lat="42.802248999999996" lon="-1.6628309999999995">
        <ele>422.626</ele>
        <time>2022-08-25T07:22:58Z</time>
      </trkpt>
      <trkpt lat="42.802223999999995" lon="-1.6628179999999995">
        <ele>421.809</ele>
        <time>2022-08-25T07:22:59Z</time>
      </trkpt>
      <trkpt lat="42.80219999999999" lon="-1.6628129999999994">
        <ele>421.677</ele>
        <time>2022-08-25T07:23:00Z</time>
      </trkpt>
      <trkpt lat="42.802184999999994" lon="-1.6628219999999994">
        <ele>421.087</ele>
        <time>2022-08-25T07:23:01Z</time>
      </trkpt>
      <trkpt lat="42.802178" lon="-1.6628419999999993">
        <ele>420.477</ele>
        <time>2022-08-25T07:23:02Z</time>
      </trkpt>
      <trkpt lat="42.802172" lon="-1.6628659999999993">
        <ele>419.643</ele>
        <time>2022-08-25T07:23:03Z</time>
      </trkpt>
      <trkpt lat="42.802164" lon="-1.6628959999999993">
        <ele>419.085</ele>
        <time>2022-08-25T07:23:04Z</time>
      </trkpt>
      <trkpt lat="42.802093" lon="-1.6630729999999994">
        <ele>418.082</ele>
        <time>2022-08-25T07:23:08Z</time>
      </trkpt>
      <trkpt lat="42.802043" lon="-1.6631899999999993">
        <ele>417.835</ele>
        <time>2022-08-25T07:23:10Z</time>
      </trkpt>
      <trkpt lat="42.801987" lon="-1.6633269999999993">
        <ele>417.661</ele>
        <time>2022-08-25T07:23:12Z</time>
      </trkpt>
      <trkpt lat="42.80194899999999" lon="-1.6633979999999993">
        <ele>417.262</ele>
        <time>2022-08-25T07:23:13Z</time>
      </trkpt>
      <trkpt lat="42.801869999999994" lon="-1.6635359999999992">
        <ele>416.895</ele>
        <time>2022-08-25T07:23:15Z</time>
      </trkpt>
      <trkpt lat="42.801824999999994" lon="-1.6635959999999992">
        <ele>416.649</ele>
        <time>2022-08-25T07:23:16Z</time>
      </trkpt>
      <trkpt lat="42.801776" lon="-1.6636499999999992">
        <ele>416.423</ele>
        <time>2022-08-25T07:23:17Z</time>
      </trkpt>
      <trkpt lat="42.801722999999996" lon="-1.6637039999999992">
        <ele>416.009</ele>
        <time>2022-08-25T07:23:18Z</time>
      </trkpt>
      <trkpt lat="42.80166499999999" lon="-1.6638439999999992">
        <ele>415.870</ele>
        <time>2022-08-25T07:23:20Z</time>
      </trkpt>
      <trkpt lat="42.80164499999999" lon="-1.6639269999999993">
        <ele>415.640</ele>
        <time>2022-08-25T07:23:21Z</time>
      </trkpt>
      <trkpt lat="42.801624" lon="-1.6640129999999993">
        <ele>415.670</ele>
        <time>2022-08-25T07:23:22Z</time>
      </trkpt>
      <trkpt lat="42.801604" lon="-1.6640959999999994">
        <ele>415.676</ele>
        <time>2022-08-25T07:23:23Z</time>
      </trkpt>
      <trkpt lat="42.801584999999996" lon="-1.6641789999999994">
        <ele>415.288</ele>
        <time>2022-08-25T07:23:24Z</time>
      </trkpt>
      <trkpt lat="42.801567" lon="-1.6642589999999995">
        <ele>414.875</ele>
        <time>2022-08-25T07:23:25Z</time>
      </trkpt>
      <trkpt lat="42.801555" lon="-1.6643399999999995">
        <ele>414.818</ele>
        <time>2022-08-25T07:23:26Z</time>
      </trkpt>
      <trkpt lat="42.801534000000004" lon="-1.6644189999999994">
        <ele>414.484</ele>
        <time>2022-08-25T07:23:27Z</time>
      </trkpt>
      <trkpt lat="42.801511000000005" lon="-1.6644959999999995">
        <ele>414.415</ele>
        <time>2022-08-25T07:23:28Z</time>
      </trkpt>
      <trkpt lat="42.801491000000006" lon="-1.6645709999999996">
        <ele>414.215</ele>
        <time>2022-08-25T07:23:29Z</time>
      </trkpt>
      <trkpt lat="42.80148400000001" lon="-1.6646449999999995">
        <ele>414.265</ele>
        <time>2022-08-25T07:23:30Z</time>
      </trkpt>
      <trkpt lat="42.80148700000001" lon="-1.6647129999999994">
        <ele>414.011</ele>
        <time>2022-08-25T07:23:31Z</time>
      </trkpt>
      <trkpt lat="42.80148900000001" lon="-1.6647729999999994">
        <ele>414.009</ele>
        <time>2022-08-25T07:23:32Z</time>
      </trkpt>
      <trkpt lat="42.80148100000001" lon="-1.6648269999999994">
        <ele>414.052</ele>
        <time>2022-08-25T07:23:33Z</time>
      </trkpt>
      <trkpt lat="42.80146600000001" lon="-1.6648749999999994">
        <ele>414.062</ele>
        <time>2022-08-25T07:23:34Z</time>
      </trkpt>
      <trkpt lat="42.80145200000001" lon="-1.6649199999999995">
        <ele>414.062</ele>
        <time>2022-08-25T07:23:35Z</time>
      </trkpt>
      <trkpt lat="42.80143500000001" lon="-1.6649669999999994">
        <ele>414.058</ele>
        <time>2022-08-25T07:23:36Z</time>
      </trkpt>
      <trkpt lat="42.80141800000001" lon="-1.6650159999999994">
        <ele>414.070</ele>
        <time>2022-08-25T07:23:37Z</time>
      </trkpt>
      <trkpt lat="42.80141000000001" lon="-1.6650639999999994">
        <ele>414.027</ele>
        <time>2022-08-25T07:23:38Z</time>
      </trkpt>
      <trkpt lat="42.801403000000015" lon="-1.6651059999999995">
        <ele>414.020</ele>
        <time>2022-08-25T07:23:39Z</time>
      </trkpt>
      <trkpt lat="42.80139100000002" lon="-1.6651389999999995">
        <ele>414.096</ele>
        <time>2022-08-25T07:23:40Z</time>
      </trkpt>
      <trkpt lat="42.801378000000014" lon="-1.6651669999999994">
        <ele>414.057</ele>
        <time>2022-08-25T07:23:41Z</time>
      </trkpt>
      <trkpt lat="42.80136200000001" lon="-1.6651829999999994">
        <ele>414.066</ele>
        <time>2022-08-25T07:23:42Z</time>
      </trkpt>
      <trkpt lat="42.80134300000001" lon="-1.6651939999999994">
        <ele>413.829</ele>
        <time>2022-08-25T07:23:43Z</time>
      </trkpt>
      <trkpt lat="42.80132300000001" lon="-1.6652039999999995">
        <ele>413.821</ele>
        <time>2022-08-25T07:23:44Z</time>
      </trkpt>
      <trkpt lat="42.80130400000001" lon="-1.6652109999999996">
        <ele>413.609</ele>
        <time>2022-08-25T07:23:45Z</time>
      </trkpt>
      <trkpt lat="42.80129000000001" lon="-1.6652269999999996">
        <ele>413.627</ele>
        <time>2022-08-25T07:23:46Z</time>
      </trkpt>
      <trkpt lat="42.80127900000001" lon="-1.6652719999999996">
        <ele>413.487</ele>
        <time>2022-08-25T07:23:48Z</time>
      </trkpt>
      <trkpt lat="42.80127800000001" lon="-1.6653029999999995">
        <ele>413.487</ele>
        <time>2022-08-25T07:23:49Z</time>
      </trkpt>
      <trkpt lat="42.80127700000001" lon="-1.6655229999999996">
        <ele>413.293</ele>
        <time>2022-08-25T07:23:55Z</time>
      </trkpt>
      <trkpt lat="42.80128400000001" lon="-1.6657369999999996">
        <ele>413.065</ele>
        <time>2022-08-25T07:24:00Z</time>
      </trkpt>
      <trkpt lat="42.80127800000001" lon="-1.6657769999999996">
        <ele>413.082</ele>
        <time>2022-08-25T07:24:01Z</time>
      </trkpt>
      <trkpt lat="42.80127000000001" lon="-1.6658139999999997">
        <ele>413.065</ele>
        <time>2022-08-25T07:24:02Z</time>
      </trkpt>
      <trkpt lat="42.80126700000001" lon="-1.6658469999999996">
        <ele>413.041</ele>
        <time>2022-08-25T07:24:03Z</time>
      </trkpt>
      <trkpt lat="42.80126200000001" lon="-1.6660699999999997">
        <ele>413.062</ele>
        <time>2022-08-25T07:24:09Z</time>
      </trkpt>
      <trkpt lat="42.80124400000001" lon="-1.6661409999999997">
        <ele>413.084</ele>
        <time>2022-08-25T07:24:10Z</time>
      </trkpt>
      <trkpt lat="42.80122400000001" lon="-1.6662759999999996">
        <ele>413.007</ele>
        <time>2022-08-25T07:24:12Z</time>
      </trkpt>
      <trkpt lat="42.80121900000001" lon="-1.6663999999999997">
        <ele>413.017</ele>
        <time>2022-08-25T07:24:14Z</time>
      </trkpt>
      <trkpt lat="42.801212000000014" lon="-1.6665289999999997">
        <ele>413.009</ele>
        <time>2022-08-25T07:24:16Z</time>
      </trkpt>
      <trkpt lat="42.80121800000001" lon="-1.6666579999999998">
        <ele>413.079</ele>
        <time>2022-08-25T07:24:18Z</time>
      </trkpt>
      <trkpt lat="42.80121600000001" lon="-1.6667019999999997">
        <ele>413.059</ele>
        <time>2022-08-25T07:24:19Z</time>
      </trkpt>
      <trkpt lat="42.80121400000001" lon="-1.6667489999999996">
        <ele>413.069</ele>
        <time>2022-08-25T07:24:20Z</time>
      </trkpt>
      <trkpt lat="42.80120500000001" lon="-1.6668249999999996">
        <ele>413.035</ele>
        <time>2022-08-25T07:24:21Z</time>
      </trkpt>
      <trkpt lat="42.80119300000001" lon="-1.6669729999999996">
        <ele>413.017</ele>
        <time>2022-08-25T07:24:23Z</time>
      </trkpt>
      <trkpt lat="42.801186000000015" lon="-1.6670129999999996">
        <ele>413.044</ele>
        <time>2022-08-25T07:24:24Z</time>
      </trkpt>
      <trkpt lat="42.80119300000001" lon="-1.6670649999999996">
        <ele>413.057</ele>
        <time>2022-08-25T07:24:25Z</time>
      </trkpt>
      <trkpt lat="42.801198000000014" lon="-1.6671049999999996">
        <ele>412.863</ele>
        <time>2022-08-25T07:24:26Z</time>
      </trkpt>
      <trkpt lat="42.80120700000001" lon="-1.6671389999999997">
        <ele>412.834</ele>
        <time>2022-08-25T07:24:27Z</time>
      </trkpt>
      <trkpt lat="42.80122100000001" lon="-1.6671789999999997">
        <ele>412.829</ele>
        <time>2022-08-25T07:24:28Z</time>
      </trkpt>
      <trkpt lat="42.801234000000015" lon="-1.6672059999999997">
        <ele>412.800</ele>
        <time>2022-08-25T07:24:29Z</time>
      </trkpt>
      <trkpt lat="42.801242000000016" lon="-1.6672389999999997">
        <ele>412.820</ele>
        <time>2022-08-25T07:24:30Z</time>
      </trkpt>
      <trkpt lat="42.80120500000002" lon="-1.6673069999999997">
        <ele>412.809</ele>
        <time>2022-08-25T07:24:31Z</time>
      </trkpt>
      <trkpt lat="42.801197000000016" lon="-1.6673339999999996">
        <ele>412.843</ele>
        <time>2022-08-25T07:24:32Z</time>
      </trkpt>
      <trkpt lat="42.801195000000014" lon="-1.6673539999999996">
        <ele>412.823</ele>
        <time>2022-08-25T07:24:33Z</time>
      </trkpt>
      <trkpt lat="42.80119100000002" lon="-1.6673769999999997">
        <ele>412.843</ele>
        <time>2022-08-25T07:24:34Z</time>
      </trkpt>
      <trkpt lat="42.80119900000002" lon="-1.6674049999999996">
        <ele>412.839</ele>
        <time>2022-08-25T07:24:35Z</time>
      </trkpt>
      <trkpt lat="42.80121200000002" lon="-1.6674769999999997">
        <ele>412.871</ele>
        <time>2022-08-25T07:24:36Z</time>
      </trkpt>
      <trkpt lat="42.80120900000002" lon="-1.6675339999999996">
        <ele>412.848</ele>
        <time>2022-08-25T07:24:37Z</time>
      </trkpt>
      <trkpt lat="42.801208000000024" lon="-1.6675759999999997">
        <ele>412.871</ele>
        <time>2022-08-25T07:24:38Z</time>
      </trkpt>
      <trkpt lat="42.80119500000002" lon="-1.6678759999999997">
        <ele>412.887</ele>
        <time>2022-08-25T07:24:44Z</time>
      </trkpt>
      <trkpt lat="42.80118900000002" lon="-1.6679229999999996">
        <ele>412.838</ele>
        <time>2022-08-25T07:24:45Z</time>
      </trkpt>
      <trkpt lat="42.801154000000025" lon="-1.6681609999999996">
        <ele>413.023</ele>
        <time>2022-08-25T07:24:50Z</time>
      </trkpt>
      <trkpt lat="42.801132000000024" lon="-1.6682559999999995">
        <ele>413.083</ele>
        <time>2022-08-25T07:24:52Z</time>
      </trkpt>
      <trkpt lat="42.801067000000025" lon="-1.6685269999999994">
        <ele>413.011</ele>
        <time>2022-08-25T07:24:58Z</time>
      </trkpt>
      <trkpt lat="42.80105900000002" lon="-1.6685729999999994">
        <ele>413.009</ele>
        <time>2022-08-25T07:24:59Z</time>
      </trkpt>
      <trkpt lat="42.80105100000002" lon="-1.6686199999999993">
        <ele>413.033</ele>
        <time>2022-08-25T07:25:00Z</time>
      </trkpt>
      <trkpt lat="42.801008000000024" lon="-1.6687889999999994">
        <ele>413.013</ele>
        <time>2022-08-25T07:25:04Z</time>
      </trkpt>
      <trkpt lat="42.800999000000026" lon="-1.6688319999999994">
        <ele>412.853</ele>
        <time>2022-08-25T07:25:05Z</time>
      </trkpt>
      <trkpt lat="42.80098600000002" lon="-1.6688739999999995">
        <ele>412.859</ele>
        <time>2022-08-25T07:25:06Z</time>
      </trkpt>
      <trkpt lat="42.80097500000002" lon="-1.6689179999999995">
        <ele>412.891</ele>
        <time>2022-08-25T07:25:07Z</time>
      </trkpt>
      <trkpt lat="42.800966000000024" lon="-1.6689599999999996">
        <ele>412.888</ele>
        <time>2022-08-25T07:25:08Z</time>
      </trkpt>
      <trkpt lat="42.80096100000002" lon="-1.6690019999999997">
        <ele>412.841</ele>
        <time>2022-08-25T07:25:09Z</time>
      </trkpt>
      <trkpt lat="42.80095600000002" lon="-1.6690429999999996">
        <ele>412.867</ele>
        <time>2022-08-25T07:25:10Z</time>
      </trkpt>
      <trkpt lat="42.80095300000002" lon="-1.6690839999999996">
        <ele>412.858</ele>
        <time>2022-08-25T07:25:11Z</time>
      </trkpt>
      <trkpt lat="42.800946000000025" lon="-1.6691149999999995">
        <ele>412.865</ele>
        <time>2022-08-25T07:25:12Z</time>
      </trkpt>
      <trkpt lat="42.80093900000003" lon="-1.6691399999999994">
        <ele>412.668</ele>
        <time>2022-08-25T07:25:13Z</time>
      </trkpt>
      <trkpt lat="42.80093400000003" lon="-1.6691649999999993">
        <ele>412.614</ele>
        <time>2022-08-25T07:25:14Z</time>
      </trkpt>
      <trkpt lat="42.800909000000026" lon="-1.6692599999999993">
        <ele>412.409</ele>
        <time>2022-08-25T07:25:17Z</time>
      </trkpt>
      <trkpt lat="42.800892000000026" lon="-1.6693189999999993">
        <ele>412.477</ele>
        <time>2022-08-25T07:25:19Z</time>
      </trkpt>
      <trkpt lat="42.80079200000002" lon="-1.6695299999999993">
        <ele>412.257</ele>
        <time>2022-08-25T07:25:25Z</time>
      </trkpt>
      <trkpt lat="42.800701000000025" lon="-1.6696709999999992">
        <ele>412.277</ele>
        <time>2022-08-25T07:25:29Z</time>
      </trkpt>
      <trkpt lat="42.800687000000025" lon="-1.6697119999999992">
        <ele>412.243</ele>
        <time>2022-08-25T07:25:30Z</time>
      </trkpt>
      <trkpt lat="42.80066300000002" lon="-1.669750999999999">
        <ele>412.275</ele>
        <time>2022-08-25T07:25:31Z</time>
      </trkpt>
      <trkpt lat="42.80063000000002" lon="-1.6697929999999992">
        <ele>412.082</ele>
        <time>2022-08-25T07:25:32Z</time>
      </trkpt>
      <trkpt lat="42.80061000000002" lon="-1.6698309999999992">
        <ele>412.025</ele>
        <time>2022-08-25T07:25:33Z</time>
      </trkpt>
      <trkpt lat="42.80057000000002" lon="-1.6699099999999991">
        <ele>412.021</ele>
        <time>2022-08-25T07:25:35Z</time>
      </trkpt>
      <trkpt lat="42.80055400000002" lon="-1.6699529999999991">
        <ele>412.042</ele>
        <time>2022-08-25T07:25:36Z</time>
      </trkpt>
      <trkpt lat="42.80045000000002" lon="-1.6701599999999992">
        <ele>411.862</ele>
        <time>2022-08-25T07:25:41Z</time>
      </trkpt>
      <trkpt lat="42.80043000000002" lon="-1.670198999999999">
        <ele>411.883</ele>
        <time>2022-08-25T07:25:42Z</time>
      </trkpt>
      <trkpt lat="42.80038900000002" lon="-1.6702819999999992">
        <ele>411.611</ele>
        <time>2022-08-25T07:25:44Z</time>
      </trkpt>
      <trkpt lat="42.80036800000002" lon="-1.6703229999999991">
        <ele>411.609</ele>
        <time>2022-08-25T07:25:45Z</time>
      </trkpt>
      <trkpt lat="42.80034700000002" lon="-1.6703599999999992">
        <ele>411.677</ele>
        <time>2022-08-25T07:25:46Z</time>
      </trkpt>
      <trkpt lat="42.80032500000002" lon="-1.6704009999999991">
        <ele>411.447</ele>
        <time>2022-08-25T07:25:47Z</time>
      </trkpt>
      <trkpt lat="42.80028100000002" lon="-1.670485999999999">
        <ele>411.457</ele>
        <time>2022-08-25T07:25:49Z</time>
      </trkpt>
      <trkpt lat="42.80022100000002" lon="-1.6706089999999991">
        <ele>411.423</ele>
        <time>2022-08-25T07:25:52Z</time>
      </trkpt>
      <trkpt lat="42.80013700000002" lon="-1.670779999999999">
        <ele>411.495</ele>
        <time>2022-08-25T07:25:56Z</time>
      </trkpt>
      <trkpt lat="42.800116000000024" lon="-1.670818999999999">
        <ele>411.452</ele>
        <time>2022-08-25T07:25:57Z</time>
      </trkpt>
      <trkpt lat="42.800062000000025" lon="-1.6709009999999989">
        <ele>411.475</ele>
        <time>2022-08-25T07:25:59Z</time>
      </trkpt>
      <trkpt lat="42.80004400000003" lon="-1.6709419999999988">
        <ele>411.421</ele>
        <time>2022-08-25T07:26:00Z</time>
      </trkpt>
      <trkpt lat="42.80002700000003" lon="-1.670986999999999">
        <ele>411.482</ele>
        <time>2022-08-25T07:26:01Z</time>
      </trkpt>
      <trkpt lat="42.79998400000003" lon="-1.6710739999999988">
        <ele>411.453</ele>
        <time>2022-08-25T07:26:03Z</time>
      </trkpt>
      <trkpt lat="42.79989700000003" lon="-1.6712389999999988">
        <ele>411.404</ele>
        <time>2022-08-25T07:26:07Z</time>
      </trkpt>
      <trkpt lat="42.79985300000003" lon="-1.6713229999999988">
        <ele>411.414</ele>
        <time>2022-08-25T07:26:09Z</time>
      </trkpt>
      <trkpt lat="42.799828000000026" lon="-1.6713669999999987">
        <ele>411.409</ele>
        <time>2022-08-25T07:26:10Z</time>
      </trkpt>
      <trkpt lat="42.799778000000025" lon="-1.6714549999999988">
        <ele>411.426</ele>
        <time>2022-08-25T07:26:12Z</time>
      </trkpt>
      <trkpt lat="42.79975100000002" lon="-1.671496999999999">
        <ele>411.426</ele>
        <time>2022-08-25T07:26:13Z</time>
      </trkpt>
      <trkpt lat="42.799705000000024" lon="-1.6715789999999988">
        <ele>411.486</ele>
        <time>2022-08-25T07:26:15Z</time>
      </trkpt>
      <trkpt lat="42.799679000000026" lon="-1.6716229999999987">
        <ele>411.472</ele>
        <time>2022-08-25T07:26:16Z</time>
      </trkpt>
      <trkpt lat="42.79955700000003" lon="-1.6718089999999988">
        <ele>411.454</ele>
        <time>2022-08-25T07:26:20Z</time>
      </trkpt>
      <trkpt lat="42.79952800000003" lon="-1.6718529999999987">
        <ele>411.471</ele>
        <time>2022-08-25T07:26:21Z</time>
      </trkpt>
      <trkpt lat="42.79950100000003" lon="-1.6718909999999987">
        <ele>411.454</ele>
        <time>2022-08-25T07:26:22Z</time>
      </trkpt>
      <trkpt lat="42.799477000000024" lon="-1.6719289999999987">
        <ele>411.450</ele>
        <time>2022-08-25T07:26:23Z</time>
      </trkpt>
      <trkpt lat="42.799457000000025" lon="-1.6719689999999987">
        <ele>411.441</ele>
        <time>2022-08-25T07:26:24Z</time>
      </trkpt>
      <trkpt lat="42.799432000000024" lon="-1.6720129999999986">
        <ele>411.435</ele>
        <time>2022-08-25T07:26:25Z</time>
      </trkpt>
      <trkpt lat="42.79940700000002" lon="-1.6720559999999987">
        <ele>411.486</ele>
        <time>2022-08-25T07:26:26Z</time>
      </trkpt>
      <trkpt lat="42.799378000000026" lon="-1.6720989999999987">
        <ele>411.414</ele>
        <time>2022-08-25T07:26:27Z</time>
      </trkpt>
      <trkpt lat="42.79934800000002" lon="-1.6721439999999987">
        <ele>411.409</ele>
        <time>2022-08-25T07:26:28Z</time>
      </trkpt>
      <trkpt lat="42.79933200000002" lon="-1.6721819999999987">
        <ele>411.464</ele>
        <time>2022-08-25T07:26:29Z</time>
      </trkpt>
      <trkpt lat="42.79932100000002" lon="-1.6722179999999986">
        <ele>411.474</ele>
        <time>2022-08-25T07:26:30Z</time>
      </trkpt>
      <trkpt lat="42.79928700000002" lon="-1.6722969999999986">
        <ele>411.254</ele>
        <time>2022-08-25T07:26:32Z</time>
      </trkpt>
      <trkpt lat="42.79926500000002" lon="-1.6723499999999987">
        <ele>411.230</ele>
        <time>2022-08-25T07:26:33Z</time>
      </trkpt>
      <trkpt lat="42.79924900000002" lon="-1.6723949999999987">
        <ele>411.232</ele>
        <time>2022-08-25T07:26:34Z</time>
      </trkpt>
      <trkpt lat="42.79923400000002" lon="-1.6724329999999987">
        <ele>411.219</ele>
        <time>2022-08-25T07:26:35Z</time>
      </trkpt>
      <trkpt lat="42.79922200000002" lon="-1.6724689999999987">
        <ele>411.492</ele>
        <time>2022-08-25T07:26:36Z</time>
      </trkpt>
      <trkpt lat="42.79919800000002" lon="-1.6724959999999987">
        <ele>411.428</ele>
        <time>2022-08-25T07:26:37Z</time>
      </trkpt>
      <trkpt lat="42.799185000000016" lon="-1.6725169999999987">
        <ele>411.269</ele>
        <time>2022-08-25T07:26:38Z</time>
      </trkpt>
      <trkpt lat="42.79917900000002" lon="-1.6725429999999988">
        <ele>411.255</ele>
        <time>2022-08-25T07:26:39Z</time>
      </trkpt>
      <trkpt lat="42.79917000000002" lon="-1.6725579999999989">
        <ele>411.207</ele>
        <time>2022-08-25T07:26:40Z</time>
      </trkpt>
      <trkpt lat="42.79917000000002" lon="-1.672564999999999">
        <ele>411.417</ele>
        <time>2022-08-25T07:26:42Z</time>
      </trkpt>
      <trkpt lat="42.799185000000016" lon="-1.672579999999999">
        <ele>411.409</ele>
        <time>2022-08-25T07:26:45Z</time>
      </trkpt>
      <trkpt lat="42.799230000000016" lon="-1.672619999999999">
        <ele>411.646</ele>
        <time>2022-08-25T07:26:48Z</time>
      </trkpt>
      <trkpt lat="42.799289000000016" lon="-1.6726949999999992">
        <ele>411.416</ele>
        <time>2022-08-25T07:26:52Z</time>
      </trkpt>
      <trkpt lat="42.79929100000002" lon="-1.672719999999999">
        <ele>411.456</ele>
        <time>2022-08-25T07:26:53Z</time>
      </trkpt>
      <trkpt lat="42.79929000000002" lon="-1.6727459999999992">
        <ele>411.482</ele>
        <time>2022-08-25T07:26:54Z</time>
      </trkpt>
      <trkpt lat="42.79928600000002" lon="-1.6727999999999992">
        <ele>411.454</ele>
        <time>2022-08-25T07:26:56Z</time>
      </trkpt>
      <trkpt lat="42.79929000000002" lon="-1.6728249999999991">
        <ele>411.431</ele>
        <time>2022-08-25T07:26:57Z</time>
      </trkpt>
      <trkpt lat="42.79929700000002" lon="-1.672919999999999">
        <ele>411.474</ele>
        <time>2022-08-25T07:27:00Z</time>
      </trkpt>
      <trkpt lat="42.79934400000002" lon="-1.6730919999999991">
        <ele>411.870</ele>
        <time>2022-08-25T07:27:04Z</time>
      </trkpt>
      <trkpt lat="42.79935700000002" lon="-1.6731399999999992">
        <ele>411.871</ele>
        <time>2022-08-25T07:27:05Z</time>
      </trkpt>
      <trkpt lat="42.79936900000002" lon="-1.6732849999999992">
        <ele>411.855</ele>
        <time>2022-08-25T07:27:08Z</time>
      </trkpt>
      <trkpt lat="42.79936600000002" lon="-1.6733309999999992">
        <ele>411.807</ele>
        <time>2022-08-25T07:27:09Z</time>
      </trkpt>
      <trkpt lat="42.79935700000002" lon="-1.6733739999999993">
        <ele>411.817</ele>
        <time>2022-08-25T07:27:10Z</time>
      </trkpt>
      <trkpt lat="42.799342000000024" lon="-1.6734169999999993">
        <ele>411.609</ele>
        <time>2022-08-25T07:27:11Z</time>
      </trkpt>
      <trkpt lat="42.79932600000002" lon="-1.6734499999999992">
        <ele>411.616</ele>
        <time>2022-08-25T07:27:12Z</time>
      </trkpt>
      <trkpt lat="42.79930700000002" lon="-1.6734649999999993">
        <ele>411.626</ele>
        <time>2022-08-25T07:27:13Z</time>
      </trkpt>
      <trkpt lat="42.79928600000002" lon="-1.6734579999999992">
        <ele>411.426</ele>
        <time>2022-08-25T07:27:14Z</time>
      </trkpt>
      <trkpt lat="42.79924200000002" lon="-1.6733849999999992">
        <ele>411.432</ele>
        <time>2022-08-25T07:27:17Z</time>
      </trkpt>
      <trkpt lat="42.79922300000002" lon="-1.6733239999999991">
        <ele>411.244</ele>
        <time>2022-08-25T07:27:19Z</time>
      </trkpt>
      <trkpt lat="42.79917200000002" lon="-1.6732959999999992">
        <ele>411.451</ele>
        <time>2022-08-25T07:27:21Z</time>
      </trkpt>
      <trkpt lat="42.79907800000002" lon="-1.6733199999999993">
        <ele>411.444</ele>
        <time>2022-08-25T07:27:24Z</time>
      </trkpt>
      <trkpt lat="42.799046000000025" lon="-1.6733379999999993">
        <ele>411.480</ele>
        <time>2022-08-25T07:27:25Z</time>
      </trkpt>
      <trkpt lat="42.79898900000003" lon="-1.6734039999999992">
        <ele>411.651</ele>
        <time>2022-08-25T07:27:27Z</time>
      </trkpt>
      <trkpt lat="42.798962000000024" lon="-1.6734479999999992">
        <ele>411.676</ele>
        <time>2022-08-25T07:27:28Z</time>
      </trkpt>
      <trkpt lat="42.79894000000002" lon="-1.673494999999999">
        <ele>411.890</ele>
        <time>2022-08-25T07:27:29Z</time>
      </trkpt>
      <trkpt lat="42.79892300000002" lon="-1.673533999999999">
        <ele>411.819</ele>
        <time>2022-08-25T07:27:30Z</time>
      </trkpt>
      <trkpt lat="42.798900000000025" lon="-1.673583999999999">
        <ele>411.809</ele>
        <time>2022-08-25T07:27:31Z</time>
      </trkpt>
      <trkpt lat="42.79888200000003" lon="-1.6736259999999992">
        <ele>411.838</ele>
        <time>2022-08-25T07:27:32Z</time>
      </trkpt>
      <trkpt lat="42.798866000000025" lon="-1.6736679999999993">
        <ele>411.848</ele>
        <time>2022-08-25T07:27:33Z</time>
      </trkpt>
      <trkpt lat="42.798849000000025" lon="-1.6737069999999992">
        <ele>411.818</ele>
        <time>2022-08-25T07:27:34Z</time>
      </trkpt>
      <trkpt lat="42.79883400000003" lon="-1.6737449999999992">
        <ele>412.084</ele>
        <time>2022-08-25T07:27:35Z</time>
      </trkpt>
      <trkpt lat="42.79873600000003" lon="-1.6739359999999992">
        <ele>412.036</ele>
        <time>2022-08-25T07:27:40Z</time>
      </trkpt>
      <trkpt lat="42.79869900000003" lon="-1.6740129999999993">
        <ele>412.213</ele>
        <time>2022-08-25T07:27:42Z</time>
      </trkpt>
      <trkpt lat="42.798683000000025" lon="-1.6740479999999993">
        <ele>412.296</ele>
        <time>2022-08-25T07:27:43Z</time>
      </trkpt>
      <trkpt lat="42.798669000000025" lon="-1.6740819999999994">
        <ele>412.252</ele>
        <time>2022-08-25T07:27:44Z</time>
      </trkpt>
      <trkpt lat="42.79865100000003" lon="-1.6741159999999995">
        <ele>412.413</ele>
        <time>2022-08-25T07:27:45Z</time>
      </trkpt>
      <trkpt lat="42.79863400000003" lon="-1.6741509999999995">
        <ele>412.696</ele>
        <time>2022-08-25T07:27:46Z</time>
      </trkpt>
      <trkpt lat="42.79861700000003" lon="-1.6741879999999996">
        <ele>412.631</ele>
        <time>2022-08-25T07:27:47Z</time>
      </trkpt>
      <trkpt lat="42.79860200000003" lon="-1.6742199999999996">
        <ele>412.824</ele>
        <time>2022-08-25T07:27:48Z</time>
      </trkpt>
      <trkpt lat="42.79858800000003" lon="-1.6742519999999996">
        <ele>412.809</ele>
        <time>2022-08-25T07:27:49Z</time>
      </trkpt>
      <trkpt lat="42.79857200000003" lon="-1.6742819999999996">
        <ele>413.090</ele>
        <time>2022-08-25T07:27:50Z</time>
      </trkpt>
      <trkpt lat="42.798556000000026" lon="-1.6743129999999995">
        <ele>413.020</ele>
        <time>2022-08-25T07:27:51Z</time>
      </trkpt>
      <trkpt lat="42.798542000000026" lon="-1.6743439999999994">
        <ele>413.270</ele>
        <time>2022-08-25T07:27:52Z</time>
      </trkpt>
      <trkpt lat="42.798526000000024" lon="-1.6743719999999993">
        <ele>413.446</ele>
        <time>2022-08-25T07:27:53Z</time>
      </trkpt>
      <trkpt lat="42.798492000000024" lon="-1.6744299999999992">
        <ele>413.428</ele>
        <time>2022-08-25T07:27:55Z</time>
      </trkpt>
      <trkpt lat="42.798478000000024" lon="-1.6744569999999992">
        <ele>413.685</ele>
        <time>2022-08-25T07:27:56Z</time>
      </trkpt>
      <trkpt lat="42.79846200000002" lon="-1.6744829999999993">
        <ele>413.638</ele>
        <time>2022-08-25T07:27:57Z</time>
      </trkpt>
      <trkpt lat="42.79843200000002" lon="-1.6745329999999994">
        <ele>414.044</ele>
        <time>2022-08-25T07:27:59Z</time>
      </trkpt>
      <trkpt lat="42.79836900000002" lon="-1.6746499999999993">
        <ele>414.485</ele>
        <time>2022-08-25T07:28:03Z</time>
      </trkpt>
      <trkpt lat="42.79835500000002" lon="-1.6746759999999994">
        <ele>414.694</ele>
        <time>2022-08-25T07:28:04Z</time>
      </trkpt>
      <trkpt lat="42.79832500000002" lon="-1.6747329999999994">
        <ele>414.657</ele>
        <time>2022-08-25T07:28:06Z</time>
      </trkpt>
      <trkpt lat="42.79831000000002" lon="-1.6747609999999993">
        <ele>414.822</ele>
        <time>2022-08-25T07:28:07Z</time>
      </trkpt>
      <trkpt lat="42.79829300000002" lon="-1.6747899999999993">
        <ele>415.009</ele>
        <time>2022-08-25T07:28:08Z</time>
      </trkpt>
      <trkpt lat="42.79827900000002" lon="-1.6748179999999993">
        <ele>415.050</ele>
        <time>2022-08-25T07:28:09Z</time>
      </trkpt>
      <trkpt lat="42.79817900000002" lon="-1.6749849999999993">
        <ele>415.830</ele>
        <time>2022-08-25T07:28:15Z</time>
      </trkpt>
      <trkpt lat="42.798166000000016" lon="-1.6750119999999993">
        <ele>416.030</ele>
        <time>2022-08-25T07:28:16Z</time>
      </trkpt>
      <trkpt lat="42.79815300000001" lon="-1.6750389999999993">
        <ele>416.066</ele>
        <time>2022-08-25T07:28:17Z</time>
      </trkpt>
      <trkpt lat="42.79814000000001" lon="-1.6750649999999994">
        <ele>416.278</ele>
        <time>2022-08-25T07:28:18Z</time>
      </trkpt>
      <trkpt lat="42.79812600000001" lon="-1.6750919999999994">
        <ele>416.255</ele>
        <time>2022-08-25T07:28:19Z</time>
      </trkpt>
      <trkpt lat="42.79811000000001" lon="-1.6751179999999994">
        <ele>416.268</ele>
        <time>2022-08-25T07:28:20Z</time>
      </trkpt>
      <trkpt lat="42.79809300000001" lon="-1.6751449999999994">
        <ele>416.484</ele>
        <time>2022-08-25T07:28:21Z</time>
      </trkpt>
      <trkpt lat="42.79807800000001" lon="-1.6751689999999995">
        <ele>416.475</ele>
        <time>2022-08-25T07:28:22Z</time>
      </trkpt>
      <trkpt lat="42.79806300000001" lon="-1.6751949999999995">
        <ele>416.655</ele>
        <time>2022-08-25T07:28:23Z</time>
      </trkpt>
      <trkpt lat="42.798048000000016" lon="-1.6752219999999995">
        <ele>416.607</ele>
        <time>2022-08-25T07:28:24Z</time>
      </trkpt>
      <trkpt lat="42.79803200000001" lon="-1.6752499999999995">
        <ele>416.817</ele>
        <time>2022-08-25T07:28:25Z</time>
      </trkpt>
      <trkpt lat="42.798017000000016" lon="-1.6752779999999994">
        <ele>416.809</ele>
        <time>2022-08-25T07:28:26Z</time>
      </trkpt>
      <trkpt lat="42.79800400000001" lon="-1.6753039999999995">
        <ele>417.286</ele>
        <time>2022-08-25T07:28:27Z</time>
      </trkpt>
      <trkpt lat="42.79798700000001" lon="-1.6753279999999995">
        <ele>417.476</ele>
        <time>2022-08-25T07:28:28Z</time>
      </trkpt>
      <trkpt lat="42.797970000000014" lon="-1.6753549999999995">
        <ele>417.636</ele>
        <time>2022-08-25T07:28:29Z</time>
      </trkpt>
      <trkpt lat="42.797955000000016" lon="-1.6753829999999994">
        <ele>417.672</ele>
        <time>2022-08-25T07:28:30Z</time>
      </trkpt>
      <trkpt lat="42.797941000000016" lon="-1.6754069999999994">
        <ele>417.634</ele>
        <time>2022-08-25T07:28:31Z</time>
      </trkpt>
      <trkpt lat="42.79792800000001" lon="-1.6754339999999994">
        <ele>417.841</ele>
        <time>2022-08-25T07:28:32Z</time>
      </trkpt>
      <trkpt lat="42.79791500000001" lon="-1.6754599999999995">
        <ele>417.854</ele>
        <time>2022-08-25T07:28:33Z</time>
      </trkpt>
      <trkpt lat="42.79790100000001" lon="-1.6754859999999996">
        <ele>417.860</ele>
        <time>2022-08-25T07:28:34Z</time>
      </trkpt>
      <trkpt lat="42.79788700000001" lon="-1.6755149999999996">
        <ele>418.051</ele>
        <time>2022-08-25T07:28:35Z</time>
      </trkpt>
      <trkpt lat="42.79787300000001" lon="-1.6755449999999996">
        <ele>418.213</ele>
        <time>2022-08-25T07:28:36Z</time>
      </trkpt>
      <trkpt lat="42.79786000000001" lon="-1.6755729999999995">
        <ele>418.443</ele>
        <time>2022-08-25T07:28:37Z</time>
      </trkpt>
      <trkpt lat="42.797844000000005" lon="-1.6755999999999995">
        <ele>418.407</ele>
        <time>2022-08-25T07:28:38Z</time>
      </trkpt>
      <trkpt lat="42.797828" lon="-1.6756259999999996">
        <ele>418.409</ele>
        <time>2022-08-25T07:28:39Z</time>
      </trkpt>
      <trkpt lat="42.797814" lon="-1.6756549999999997">
        <ele>418.482</ele>
        <time>2022-08-25T07:28:40Z</time>
      </trkpt>
      <trkpt lat="42.797798" lon="-1.6756829999999996">
        <ele>418.692</ele>
        <time>2022-08-25T07:28:41Z</time>
      </trkpt>
      <trkpt lat="42.797781" lon="-1.6757109999999995">
        <ele>418.632</ele>
        <time>2022-08-25T07:28:42Z</time>
      </trkpt>
      <trkpt lat="42.797766" lon="-1.6757399999999996">
        <ele>418.628</ele>
        <time>2022-08-25T07:28:43Z</time>
      </trkpt>
      <trkpt lat="42.79775" lon="-1.6757709999999995">
        <ele>418.630</ele>
        <time>2022-08-25T07:28:44Z</time>
      </trkpt>
      <trkpt lat="42.797734" lon="-1.6758039999999994">
        <ele>418.897</ele>
        <time>2022-08-25T07:28:45Z</time>
      </trkpt>
      <trkpt lat="42.797714" lon="-1.6758359999999994">
        <ele>418.870</ele>
        <time>2022-08-25T07:28:46Z</time>
      </trkpt>
      <trkpt lat="42.797696" lon="-1.6758709999999994">
        <ele>418.866</ele>
        <time>2022-08-25T07:28:47Z</time>
      </trkpt>
      <trkpt lat="42.797677" lon="-1.6759049999999995">
        <ele>418.867</ele>
        <time>2022-08-25T07:28:48Z</time>
      </trkpt>
      <trkpt lat="42.797654" lon="-1.6759409999999995">
        <ele>418.633</ele>
        <time>2022-08-25T07:28:49Z</time>
      </trkpt>
      <trkpt lat="42.797633000000005" lon="-1.6759749999999995">
        <ele>418.623</ele>
        <time>2022-08-25T07:28:50Z</time>
      </trkpt>
      <trkpt lat="42.79756700000001" lon="-1.6760869999999994">
        <ele>418.615</ele>
        <time>2022-08-25T07:28:53Z</time>
      </trkpt>
      <trkpt lat="42.79737600000001" lon="-1.6763739999999994">
        <ele>418.209</ele>
        <time>2022-08-25T07:28:59Z</time>
      </trkpt>
      <trkpt lat="42.79718400000001" lon="-1.6766139999999994">
        <ele>417.424</ele>
        <time>2022-08-25T07:29:03Z</time>
      </trkpt>
      <trkpt lat="42.79713100000001" lon="-1.6766769999999993">
        <ele>417.264</ele>
        <time>2022-08-25T07:29:04Z</time>
      </trkpt>
      <trkpt lat="42.797019000000006" lon="-1.6767969999999992">
        <ele>416.864</ele>
        <time>2022-08-25T07:29:06Z</time>
      </trkpt>
      <trkpt lat="42.796971000000006" lon="-1.6768479999999992">
        <ele>416.480</ele>
        <time>2022-08-25T07:29:07Z</time>
      </trkpt>
      <trkpt lat="42.796926000000006" lon="-1.6768939999999992">
        <ele>416.052</ele>
        <time>2022-08-25T07:29:08Z</time>
      </trkpt>
      <trkpt lat="42.796885" lon="-1.6769579999999993">
        <ele>415.679</ele>
        <time>2022-08-25T07:29:09Z</time>
      </trkpt>
      <trkpt lat="42.796842000000005" lon="-1.6770229999999993">
        <ele>415.022</ele>
        <time>2022-08-25T07:29:10Z</time>
      </trkpt>
      <trkpt lat="42.796795" lon="-1.6770849999999993">
        <ele>415.038</ele>
        <time>2022-08-25T07:29:11Z</time>
      </trkpt>
      <trkpt lat="42.796748" lon="-1.6771459999999994">
        <ele>414.869</ele>
        <time>2022-08-25T07:29:12Z</time>
      </trkpt>
      <trkpt lat="42.796701" lon="-1.6772079999999994">
        <ele>414.857</ele>
        <time>2022-08-25T07:29:13Z</time>
      </trkpt>
      <trkpt lat="42.796662" lon="-1.6772639999999994">
        <ele>414.600</ele>
        <time>2022-08-25T07:29:14Z</time>
      </trkpt>
      <trkpt lat="42.796623" lon="-1.6773139999999995">
        <ele>414.620</ele>
        <time>2022-08-25T07:29:15Z</time>
      </trkpt>
      <trkpt lat="42.796583" lon="-1.6773639999999996">
        <ele>414.609</ele>
        <time>2022-08-25T07:29:16Z</time>
      </trkpt>
      <trkpt lat="42.796547" lon="-1.6774139999999997">
        <ele>414.696</ele>
        <time>2022-08-25T07:29:17Z</time>
      </trkpt>
      <trkpt lat="42.796516999999994" lon="-1.6774619999999998">
        <ele>414.866</ele>
        <time>2022-08-25T07:29:18Z</time>
      </trkpt>
      <trkpt lat="42.79648999999999" lon="-1.6775129999999998">
        <ele>414.846</ele>
        <time>2022-08-25T07:29:19Z</time>
      </trkpt>
      <trkpt lat="42.79646599999999" lon="-1.6775579999999999">
        <ele>414.822</ele>
        <time>2022-08-25T07:29:20Z</time>
      </trkpt>
      <trkpt lat="42.796441999999985" lon="-1.6776019999999998">
        <ele>414.874</ele>
        <time>2022-08-25T07:29:21Z</time>
      </trkpt>
      <trkpt lat="42.79641999999998" lon="-1.6776479999999998">
        <ele>415.071</ele>
        <time>2022-08-25T07:29:22Z</time>
      </trkpt>
      <trkpt lat="42.796399999999984" lon="-1.6776909999999998">
        <ele>415.254</ele>
        <time>2022-08-25T07:29:23Z</time>
      </trkpt>
      <trkpt lat="42.79637899999999" lon="-1.6777339999999998">
        <ele>415.420</ele>
        <time>2022-08-25T07:29:24Z</time>
      </trkpt>
      <trkpt lat="42.79635899999999" lon="-1.677779">
        <ele>415.461</ele>
        <time>2022-08-25T07:29:25Z</time>
      </trkpt>
      <trkpt lat="42.79633799999999" lon="-1.6778199999999999">
        <ele>415.644</ele>
        <time>2022-08-25T07:29:26Z</time>
      </trkpt>
      <trkpt lat="42.79632199999999" lon="-1.6778559999999998">
        <ele>415.605</ele>
        <time>2022-08-25T07:29:27Z</time>
      </trkpt>
      <trkpt lat="42.79630799999999" lon="-1.6778909999999998">
        <ele>415.615</ele>
        <time>2022-08-25T07:29:28Z</time>
      </trkpt>
      <trkpt lat="42.796294999999986" lon="-1.6779249999999999">
        <ele>415.609</ele>
        <time>2022-08-25T07:29:29Z</time>
      </trkpt>
      <trkpt lat="42.796281999999984" lon="-1.6779559999999998">
        <ele>415.895</ele>
        <time>2022-08-25T07:29:30Z</time>
      </trkpt>
      <trkpt lat="42.796266999999986" lon="-1.6779889999999997">
        <ele>415.825</ele>
        <time>2022-08-25T07:29:31Z</time>
      </trkpt>
      <trkpt lat="42.796255999999985" lon="-1.6780209999999998">
        <ele>415.875</ele>
        <time>2022-08-25T07:29:32Z</time>
      </trkpt>
      <trkpt lat="42.79624599999998" lon="-1.6780499999999998">
        <ele>416.071</ele>
        <time>2022-08-25T07:29:33Z</time>
      </trkpt>
      <trkpt lat="42.796236999999984" lon="-1.6780739999999998">
        <ele>416.023</ele>
        <time>2022-08-25T07:29:34Z</time>
      </trkpt>
      <trkpt lat="42.79622899999998" lon="-1.6780959999999998">
        <ele>416.220</ele>
        <time>2022-08-25T07:29:35Z</time>
      </trkpt>
      <trkpt lat="42.796221999999986" lon="-1.6781089999999999">
        <ele>416.233</ele>
        <time>2022-08-25T07:29:36Z</time>
      </trkpt>
      <trkpt lat="42.79621899999999" lon="-1.6781179999999998">
        <ele>416.489</ele>
        <time>2022-08-25T07:29:37Z</time>
      </trkpt>
      <trkpt lat="42.796216999999984" lon="-1.6781229999999998">
        <ele>416.690</ele>
        <time>2022-08-25T07:29:38Z</time>
      </trkpt>
      <trkpt lat="42.79620899999998" lon="-1.6781159999999997">
        <ele>416.897</ele>
        <time>2022-08-25T07:30:11Z</time>
      </trkpt>
      <trkpt lat="42.79620899999998" lon="-1.6781159999999997">
        <ele>416.823</ele>
        <time>2022-08-25T07:30:12Z</time>
      </trkpt>
      <trkpt lat="42.79620999999998" lon="-1.6781069999999998">
        <ele>416.625</ele>
        <time>2022-08-25T07:30:14Z</time>
      </trkpt>
      <trkpt lat="42.79621599999998" lon="-1.6781179999999998">
        <ele>416.609</ele>
        <time>2022-08-25T07:30:18Z</time>
      </trkpt>
      <trkpt lat="42.79620999999998" lon="-1.6781239999999997">
        <ele>416.690</ele>
        <time>2022-08-25T07:30:19Z</time>
      </trkpt>
      <trkpt lat="42.796202999999984" lon="-1.6781239999999997">
        <ele>416.690</ele>
        <time>2022-08-25T07:30:20Z</time>
      </trkpt>
      <trkpt lat="42.79620099999998" lon="-1.6781209999999998">
        <ele>416.650</ele>
        <time>2022-08-25T07:30:21Z</time>
      </trkpt>
      <trkpt lat="42.79620099999998" lon="-1.6781209999999998">
        <ele>416.616</ele>
        <time>2022-08-25T07:30:22Z</time>
      </trkpt>
      <trkpt lat="42.796199999999985" lon="-1.6781189999999997">
        <ele>416.688</ele>
        <time>2022-08-25T07:30:23Z</time>
      </trkpt>
      <trkpt lat="42.79618399999998" lon="-1.6781109999999997">
        <ele>416.675</ele>
        <time>2022-08-25T07:30:24Z</time>
      </trkpt>
      <trkpt lat="42.79616799999998" lon="-1.6781019999999998">
        <ele>416.688</ele>
        <time>2022-08-25T07:30:25Z</time>
      </trkpt>
      <trkpt lat="42.79615799999998" lon="-1.6780939999999998">
        <ele>416.654</ele>
        <time>2022-08-25T07:30:26Z</time>
      </trkpt>
      <trkpt lat="42.79611199999998" lon="-1.6780569999999997">
        <ele>416.865</ele>
        <time>2022-08-25T07:30:29Z</time>
      </trkpt>
      <trkpt lat="42.79606299999998" lon="-1.6780209999999998">
        <ele>416.851</ele>
        <time>2022-08-25T07:30:32Z</time>
      </trkpt>
      <trkpt lat="42.796053999999984" lon="-1.6780319999999997">
        <ele>416.801</ele>
        <time>2022-08-25T07:30:33Z</time>
      </trkpt>
      <trkpt lat="42.79601499999998" lon="-1.6781029999999997">
        <ele>416.811</ele>
        <time>2022-08-25T07:30:37Z</time>
      </trkpt>
      <trkpt lat="42.79598399999998" lon="-1.6781369999999998">
        <ele>417.009</ele>
        <time>2022-08-25T07:30:39Z</time>
      </trkpt>
      <trkpt lat="42.79596199999998" lon="-1.6781529999999998">
        <ele>417.076</ele>
        <time>2022-08-25T07:30:40Z</time>
      </trkpt>
      <trkpt lat="42.79586699999998" lon="-1.6782509999999997">
        <ele>417.036</ele>
        <time>2022-08-25T07:30:44Z</time>
      </trkpt>
      <trkpt lat="42.79584499999998" lon="-1.6782739999999998">
        <ele>417.226</ele>
        <time>2022-08-25T07:30:45Z</time>
      </trkpt>
      <trkpt lat="42.79582199999998" lon="-1.6782929999999998">
        <ele>417.252</ele>
        <time>2022-08-25T07:30:46Z</time>
      </trkpt>
      <trkpt lat="42.79574099999998" lon="-1.6783599999999999">
        <ele>418.084</ele>
        <time>2022-08-25T07:30:50Z</time>
      </trkpt>
      <trkpt lat="42.795693999999976" lon="-1.6783759999999999">
        <ele>418.291</ele>
        <time>2022-08-25T07:30:52Z</time>
      </trkpt>
      <trkpt lat="42.795632999999974" lon="-1.6783879999999998">
        <ele>418.444</ele>
        <time>2022-08-25T07:30:54Z</time>
      </trkpt>
      <trkpt lat="42.79560299999997" lon="-1.6783799999999998">
        <ele>418.460</ele>
        <time>2022-08-25T07:30:55Z</time>
      </trkpt>
      <trkpt lat="42.79557799999997" lon="-1.6783719999999998">
        <ele>418.441</ele>
        <time>2022-08-25T07:30:56Z</time>
      </trkpt>
      <trkpt lat="42.79556099999997" lon="-1.6783649999999997">
        <ele>418.474</ele>
        <time>2022-08-25T07:30:57Z</time>
      </trkpt>
      <trkpt lat="42.79554899999997" lon="-1.6783529999999998">
        <ele>418.456</ele>
        <time>2022-08-25T07:30:58Z</time>
      </trkpt>
      <trkpt lat="42.79553499999997" lon="-1.6783349999999997">
        <ele>418.421</ele>
        <time>2022-08-25T07:30:59Z</time>
      </trkpt>
      <trkpt lat="42.79550799999997" lon="-1.6783049999999997">
        <ele>418.609</ele>
        <time>2022-08-25T07:31:01Z</time>
      </trkpt>
      <trkpt lat="42.79550099999997" lon="-1.6782929999999998">
        <ele>418.658</ele>
        <time>2022-08-25T07:31:02Z</time>
      </trkpt>
      <trkpt lat="42.79549299999997" lon="-1.6782799999999998">
        <ele>418.688</ele>
        <time>2022-08-25T07:31:03Z</time>
      </trkpt>
      <trkpt lat="42.79548499999997" lon="-1.6782709999999998">
        <ele>418.618</ele>
        <time>2022-08-25T07:31:04Z</time>
      </trkpt>
      <trkpt lat="42.79547999999997" lon="-1.6782679999999999">
        <ele>418.674</ele>
        <time>2022-08-25T07:31:05Z</time>
      </trkpt>
      <trkpt lat="42.79546399999997" lon="-1.678265">
        <ele>418.876</ele>
        <time>2022-08-25T07:31:09Z</time>
      </trkpt>
      <trkpt lat="42.79544899999997" lon="-1.6782659999999998">
        <ele>419.033</ele>
        <time>2022-08-25T07:31:10Z</time>
      </trkpt>
      <trkpt lat="42.79539599999997" lon="-1.6782859999999997">
        <ele>419.026</ele>
        <time>2022-08-25T07:31:13Z</time>
      </trkpt>
      <trkpt lat="42.795379999999966" lon="-1.6783049999999997">
        <ele>419.082</ele>
        <time>2022-08-25T07:31:14Z</time>
      </trkpt>
      <trkpt lat="42.79536799999997" lon="-1.6783289999999997">
        <ele>419.043</ele>
        <time>2022-08-25T07:31:15Z</time>
      </trkpt>
      <trkpt lat="42.79535899999997" lon="-1.6783589999999997">
        <ele>419.222</ele>
        <time>2022-08-25T07:31:16Z</time>
      </trkpt>
      <trkpt lat="42.79535999999997" lon="-1.6783869999999996">
        <ele>419.262</ele>
        <time>2022-08-25T07:31:17Z</time>
      </trkpt>
      <trkpt lat="42.795377999999964" lon="-1.6784429999999997">
        <ele>419.208</ele>
        <time>2022-08-25T07:31:19Z</time>
      </trkpt>
      <trkpt lat="42.79538999999996" lon="-1.6784739999999996">
        <ele>419.209</ele>
        <time>2022-08-25T07:31:20Z</time>
      </trkpt>
      <trkpt lat="42.79540099999996" lon="-1.6785079999999997">
        <ele>419.223</ele>
        <time>2022-08-25T07:31:21Z</time>
      </trkpt>
      <trkpt lat="42.79544599999996" lon="-1.6786789999999996">
        <ele>419.413</ele>
        <time>2022-08-25T07:31:25Z</time>
      </trkpt>
      <trkpt lat="42.79544899999996" lon="-1.6787689999999995">
        <ele>419.463</ele>
        <time>2022-08-25T07:31:27Z</time>
      </trkpt>
      <trkpt lat="42.79544599999996" lon="-1.6789569999999996">
        <ele>419.699</ele>
        <time>2022-08-25T07:31:31Z</time>
      </trkpt>
      <trkpt lat="42.79540699999996" lon="-1.6790849999999995">
        <ele>419.841</ele>
        <time>2022-08-25T07:31:34Z</time>
      </trkpt>
      <trkpt lat="42.795391999999964" lon="-1.6791279999999995">
        <ele>419.888</ele>
        <time>2022-08-25T07:31:35Z</time>
      </trkpt>
      <trkpt lat="42.79537899999996" lon="-1.6791689999999995">
        <ele>420.071</ele>
        <time>2022-08-25T07:31:36Z</time>
      </trkpt>
      <trkpt lat="42.79536799999996" lon="-1.6792089999999995">
        <ele>420.047</ele>
        <time>2022-08-25T07:31:37Z</time>
      </trkpt>
      <trkpt lat="42.79535699999996" lon="-1.6792459999999996">
        <ele>420.288</ele>
        <time>2022-08-25T07:31:38Z</time>
      </trkpt>
      <trkpt lat="42.79534599999996" lon="-1.6792779999999996">
        <ele>420.238</ele>
        <time>2022-08-25T07:31:39Z</time>
      </trkpt>
      <trkpt lat="42.795335999999956" lon="-1.6793099999999996">
        <ele>420.470</ele>
        <time>2022-08-25T07:31:40Z</time>
      </trkpt>
      <trkpt lat="42.79532599999995" lon="-1.6793419999999997">
        <ele>420.417</ele>
        <time>2022-08-25T07:31:41Z</time>
      </trkpt>
      <trkpt lat="42.79531599999995" lon="-1.6793729999999996">
        <ele>420.409</ele>
        <time>2022-08-25T07:31:42Z</time>
      </trkpt>
      <trkpt lat="42.79530699999995" lon="-1.6793999999999996">
        <ele>420.624</ele>
        <time>2022-08-25T07:31:43Z</time>
      </trkpt>
      <trkpt lat="42.79529699999995" lon="-1.6794239999999996">
        <ele>420.664</ele>
        <time>2022-08-25T07:31:44Z</time>
      </trkpt>
      <trkpt lat="42.795280999999946" lon="-1.6794749999999996">
        <ele>420.894</ele>
        <time>2022-08-25T07:31:46Z</time>
      </trkpt>
      <trkpt lat="42.79525699999994" lon="-1.6795309999999997">
        <ele>421.060</ele>
        <time>2022-08-25T07:31:48Z</time>
      </trkpt>
      <trkpt lat="42.795244999999944" lon="-1.6795569999999997">
        <ele>421.092</ele>
        <time>2022-08-25T07:31:49Z</time>
      </trkpt>
      <trkpt lat="42.795218999999946" lon="-1.6796189999999998">
        <ele>421.429</ele>
        <time>2022-08-25T07:31:51Z</time>
      </trkpt>
      <trkpt lat="42.795176999999946" lon="-1.6796999999999997">
        <ele>421.892</ele>
        <time>2022-08-25T07:31:54Z</time>
      </trkpt>
      <trkpt lat="42.795162999999945" lon="-1.6797279999999997">
        <ele>422.068</ele>
        <time>2022-08-25T07:31:55Z</time>
      </trkpt>
      <trkpt lat="42.79515099999995" lon="-1.6797559999999996">
        <ele>422.069</ele>
        <time>2022-08-25T07:31:56Z</time>
      </trkpt>
      <trkpt lat="42.79512199999995" lon="-1.6798139999999995">
        <ele>422.284</ele>
        <time>2022-08-25T07:31:58Z</time>
      </trkpt>
      <trkpt lat="42.79508799999995" lon="-1.6798659999999994">
        <ele>422.407</ele>
        <time>2022-08-25T07:32:00Z</time>
      </trkpt>
      <trkpt lat="42.79507599999995" lon="-1.6798899999999994">
        <ele>422.417</ele>
        <time>2022-08-25T07:32:01Z</time>
      </trkpt>
      <trkpt lat="42.79506299999995" lon="-1.6799159999999995">
        <ele>422.809</ele>
        <time>2022-08-25T07:32:02Z</time>
      </trkpt>
      <trkpt lat="42.79504499999995" lon="-1.6799399999999995">
        <ele>422.869</ele>
        <time>2022-08-25T07:32:03Z</time>
      </trkpt>
      <trkpt lat="42.79503199999995" lon="-1.6799679999999995">
        <ele>422.819</ele>
        <time>2022-08-25T07:32:04Z</time>
      </trkpt>
      <trkpt lat="42.79501999999995" lon="-1.6799949999999995">
        <ele>423.029</ele>
        <time>2022-08-25T07:32:05Z</time>
      </trkpt>
      <trkpt lat="42.79499599999995" lon="-1.6800449999999996">
        <ele>423.035</ele>
        <time>2022-08-25T07:32:07Z</time>
      </trkpt>
      <trkpt lat="42.79498099999995" lon="-1.6800689999999996">
        <ele>423.027</ele>
        <time>2022-08-25T07:32:08Z</time>
      </trkpt>
      <trkpt lat="42.79496899999995" lon="-1.6800949999999997">
        <ele>423.254</ele>
        <time>2022-08-25T07:32:09Z</time>
      </trkpt>
      <trkpt lat="42.79495799999995" lon="-1.6801199999999996">
        <ele>423.257</ele>
        <time>2022-08-25T07:32:10Z</time>
      </trkpt>
      <trkpt lat="42.79494499999995" lon="-1.6801459999999997">
        <ele>423.273</ele>
        <time>2022-08-25T07:32:11Z</time>
      </trkpt>
      <trkpt lat="42.79493099999995" lon="-1.6801689999999998">
        <ele>423.264</ele>
        <time>2022-08-25T07:32:12Z</time>
      </trkpt>
      <trkpt lat="42.79491699999995" lon="-1.680192">
        <ele>423.484</ele>
        <time>2022-08-25T07:32:13Z</time>
      </trkpt>
      <trkpt lat="42.79490199999995" lon="-1.680215">
        <ele>423.407</ele>
        <time>2022-08-25T07:32:14Z</time>
      </trkpt>
      <trkpt lat="42.79487499999995" lon="-1.680263">
        <ele>423.817</ele>
        <time>2022-08-25T07:32:16Z</time>
      </trkpt>
      <trkpt lat="42.79483499999995" lon="-1.680337">
        <ele>424.009</ele>
        <time>2022-08-25T07:32:19Z</time>
      </trkpt>
      <trkpt lat="42.79482399999995" lon="-1.68036">
        <ele>424.239</ele>
        <time>2022-08-25T07:32:20Z</time>
      </trkpt>
      <trkpt lat="42.794813999999946" lon="-1.680382">
        <ele>424.689</ele>
        <time>2022-08-25T07:32:21Z</time>
      </trkpt>
      <trkpt lat="42.794802999999945" lon="-1.6804000000000001">
        <ele>424.649</ele>
        <time>2022-08-25T07:32:22Z</time>
      </trkpt>
      <trkpt lat="42.794734999999946" lon="-1.6805180000000002">
        <ele>425.085</ele>
        <time>2022-08-25T07:32:27Z</time>
      </trkpt>
      <trkpt lat="42.79472199999994" lon="-1.6805430000000001">
        <ele>425.077</ele>
        <time>2022-08-25T07:32:28Z</time>
      </trkpt>
      <trkpt lat="42.794712999999945" lon="-1.680565">
        <ele>425.044</ele>
        <time>2022-08-25T07:32:29Z</time>
      </trkpt>
      <trkpt lat="42.794704999999944" lon="-1.680584">
        <ele>425.287</ele>
        <time>2022-08-25T07:32:30Z</time>
      </trkpt>
      <trkpt lat="42.79469499999994" lon="-1.680604">
        <ele>425.423</ele>
        <time>2022-08-25T07:32:31Z</time>
      </trkpt>
      <trkpt lat="42.79468699999994" lon="-1.680626">
        <ele>425.634</ele>
        <time>2022-08-25T07:32:32Z</time>
      </trkpt>
      <trkpt lat="42.79467899999994" lon="-1.680651">
        <ele>425.616</ele>
        <time>2022-08-25T07:32:33Z</time>
      </trkpt>
      <trkpt lat="42.794620999999935" lon="-1.680739">
        <ele>426.076</ele>
        <time>2022-08-25T07:32:37Z</time>
      </trkpt>
      <trkpt lat="42.794603999999936" lon="-1.680758">
        <ele>426.213</ele>
        <time>2022-08-25T07:32:38Z</time>
      </trkpt>
      <trkpt lat="42.794586999999936" lon="-1.680779">
        <ele>426.409</ele>
        <time>2022-08-25T07:32:39Z</time>
      </trkpt>
      <trkpt lat="42.79456899999994" lon="-1.680805">
        <ele>426.422</ele>
        <time>2022-08-25T07:32:40Z</time>
      </trkpt>
      <trkpt lat="42.79455199999994" lon="-1.6808310000000002">
        <ele>426.452</ele>
        <time>2022-08-25T07:32:41Z</time>
      </trkpt>
      <trkpt lat="42.79453599999994" lon="-1.6808550000000002">
        <ele>426.442</ele>
        <time>2022-08-25T07:32:42Z</time>
      </trkpt>
      <trkpt lat="42.79452399999994" lon="-1.6808790000000002">
        <ele>426.628</ele>
        <time>2022-08-25T07:32:43Z</time>
      </trkpt>
      <trkpt lat="42.794513999999936" lon="-1.6809030000000003">
        <ele>426.690</ele>
        <time>2022-08-25T07:32:44Z</time>
      </trkpt>
      <trkpt lat="42.79450699999994" lon="-1.6809270000000003">
        <ele>426.887</ele>
        <time>2022-08-25T07:32:45Z</time>
      </trkpt>
      <trkpt lat="42.79449499999994" lon="-1.6809550000000002">
        <ele>426.840</ele>
        <time>2022-08-25T07:32:46Z</time>
      </trkpt>
      <trkpt lat="42.79447999999994" lon="-1.6809790000000002">
        <ele>427.086</ele>
        <time>2022-08-25T07:32:47Z</time>
      </trkpt>
      <trkpt lat="42.79446299999994" lon="-1.6810010000000002">
        <ele>427.037</ele>
        <time>2022-08-25T07:32:48Z</time>
      </trkpt>
      <trkpt lat="42.79444999999994" lon="-1.6810240000000003">
        <ele>427.245</ele>
        <time>2022-08-25T07:32:49Z</time>
      </trkpt>
      <trkpt lat="42.79440999999994" lon="-1.6811010000000004">
        <ele>427.647</ele>
        <time>2022-08-25T07:32:52Z</time>
      </trkpt>
      <trkpt lat="42.794397999999944" lon="-1.6811300000000005">
        <ele>427.811</ele>
        <time>2022-08-25T07:32:53Z</time>
      </trkpt>
      <trkpt lat="42.794385999999946" lon="-1.6811530000000006">
        <ele>427.809</ele>
        <time>2022-08-25T07:32:54Z</time>
      </trkpt>
      <trkpt lat="42.79437399999995" lon="-1.6811800000000006">
        <ele>428.085</ele>
        <time>2022-08-25T07:32:55Z</time>
      </trkpt>
      <trkpt lat="42.79435999999995" lon="-1.6812040000000006">
        <ele>428.035</ele>
        <time>2022-08-25T07:32:56Z</time>
      </trkpt>
      <trkpt lat="42.79434799999995" lon="-1.6812270000000007">
        <ele>428.025</ele>
        <time>2022-08-25T07:32:57Z</time>
      </trkpt>
      <trkpt lat="42.79433599999995" lon="-1.6812490000000007">
        <ele>428.271</ele>
        <time>2022-08-25T07:32:58Z</time>
      </trkpt>
      <trkpt lat="42.79432199999995" lon="-1.6812740000000006">
        <ele>428.443</ele>
        <time>2022-08-25T07:32:59Z</time>
      </trkpt>
      <trkpt lat="42.794306999999954" lon="-1.6812980000000006">
        <ele>428.470</ele>
        <time>2022-08-25T07:33:00Z</time>
      </trkpt>
      <trkpt lat="42.794291999999956" lon="-1.6813230000000006">
        <ele>428.653</ele>
        <time>2022-08-25T07:33:01Z</time>
      </trkpt>
      <trkpt lat="42.79427899999995" lon="-1.6813490000000006">
        <ele>428.619</ele>
        <time>2022-08-25T07:33:02Z</time>
      </trkpt>
      <trkpt lat="42.794263999999956" lon="-1.6813730000000007">
        <ele>428.870</ele>
        <time>2022-08-25T07:33:03Z</time>
      </trkpt>
      <trkpt lat="42.794249999999955" lon="-1.6813960000000008">
        <ele>428.851</ele>
        <time>2022-08-25T07:33:04Z</time>
      </trkpt>
      <trkpt lat="42.79423699999995" lon="-1.6814180000000007">
        <ele>428.801</ele>
        <time>2022-08-25T07:33:05Z</time>
      </trkpt>
      <trkpt lat="42.79422399999995" lon="-1.6814430000000007">
        <ele>428.811</ele>
        <time>2022-08-25T07:33:06Z</time>
      </trkpt>
      <trkpt lat="42.79420999999995" lon="-1.6814670000000007">
        <ele>429.009</ele>
        <time>2022-08-25T07:33:07Z</time>
      </trkpt>
      <trkpt lat="42.79419699999995" lon="-1.6814900000000008">
        <ele>429.286</ele>
        <time>2022-08-25T07:33:08Z</time>
      </trkpt>
      <trkpt lat="42.794180999999945" lon="-1.6815110000000009">
        <ele>429.426</ele>
        <time>2022-08-25T07:33:09Z</time>
      </trkpt>
      <trkpt lat="42.794166999999945" lon="-1.6815330000000008">
        <ele>429.426</ele>
        <time>2022-08-25T07:33:10Z</time>
      </trkpt>
      <trkpt lat="42.794152999999945" lon="-1.6815570000000009">
        <ele>429.642</ele>
        <time>2022-08-25T07:33:11Z</time>
      </trkpt>
      <trkpt lat="42.79413999999994" lon="-1.6815810000000009">
        <ele>429.884</ele>
        <time>2022-08-25T07:33:12Z</time>
      </trkpt>
      <trkpt lat="42.79412599999994" lon="-1.6816060000000008">
        <ele>429.841</ele>
        <time>2022-08-25T07:33:13Z</time>
      </trkpt>
      <trkpt lat="42.794113999999944" lon="-1.6816300000000008">
        <ele>430.054</ele>
        <time>2022-08-25T07:33:14Z</time>
      </trkpt>
      <trkpt lat="42.79410099999994" lon="-1.681653000000001">
        <ele>430.030</ele>
        <time>2022-08-25T07:33:15Z</time>
      </trkpt>
      <trkpt lat="42.79408399999994" lon="-1.681685000000001">
        <ele>430.021</ele>
        <time>2022-08-25T07:33:16Z</time>
      </trkpt>
      <trkpt lat="42.79407399999994" lon="-1.681706000000001">
        <ele>430.214</ele>
        <time>2022-08-25T07:33:17Z</time>
      </trkpt>
      <trkpt lat="42.79406199999994" lon="-1.681734000000001">
        <ele>430.454</ele>
        <time>2022-08-25T07:33:18Z</time>
      </trkpt>
      <trkpt lat="42.79405099999994" lon="-1.681758000000001">
        <ele>430.409</ele>
        <time>2022-08-25T07:33:19Z</time>
      </trkpt>
      <trkpt lat="42.79403899999994" lon="-1.681784000000001">
        <ele>430.409</ele>
        <time>2022-08-25T07:33:20Z</time>
      </trkpt>
      <trkpt lat="42.79402599999994" lon="-1.6818100000000011">
        <ele>430.642</ele>
        <time>2022-08-25T07:33:21Z</time>
      </trkpt>
      <trkpt lat="42.79401099999994" lon="-1.6818370000000011">
        <ele>430.642</ele>
        <time>2022-08-25T07:33:22Z</time>
      </trkpt>
      <trkpt lat="42.79399599999994" lon="-1.6818610000000012">
        <ele>430.862</ele>
        <time>2022-08-25T07:33:23Z</time>
      </trkpt>
      <trkpt lat="42.79398299999994" lon="-1.6818850000000012">
        <ele>430.868</ele>
        <time>2022-08-25T07:33:24Z</time>
      </trkpt>
      <trkpt lat="42.79397199999994" lon="-1.6819120000000012">
        <ele>430.860</ele>
        <time>2022-08-25T07:33:25Z</time>
      </trkpt>
      <trkpt lat="42.79395999999994" lon="-1.6819380000000013">
        <ele>430.837</ele>
        <time>2022-08-25T07:33:26Z</time>
      </trkpt>
      <trkpt lat="42.79394899999994" lon="-1.6819620000000013">
        <ele>430.870</ele>
        <time>2022-08-25T07:33:27Z</time>
      </trkpt>
      <trkpt lat="42.79389099999994" lon="-1.6820640000000013">
        <ele>431.056</ele>
        <time>2022-08-25T07:33:31Z</time>
      </trkpt>
      <trkpt lat="42.793877999999935" lon="-1.6820870000000014">
        <ele>431.277</ele>
        <time>2022-08-25T07:33:32Z</time>
      </trkpt>
      <trkpt lat="42.793863999999935" lon="-1.6821130000000015">
        <ele>431.452</ele>
        <time>2022-08-25T07:33:33Z</time>
      </trkpt>
      <trkpt lat="42.79385099999993" lon="-1.6821400000000015">
        <ele>431.453</ele>
        <time>2022-08-25T07:33:34Z</time>
      </trkpt>
      <trkpt lat="42.79380399999993" lon="-1.6822470000000016">
        <ele>431.808</ele>
        <time>2022-08-25T07:33:38Z</time>
      </trkpt>
      <trkpt lat="42.79373999999993" lon="-1.6823480000000015">
        <ele>432.009</ele>
        <time>2022-08-25T07:33:42Z</time>
      </trkpt>
      <trkpt lat="42.79371099999993" lon="-1.6824100000000015">
        <ele>432.056</ele>
        <time>2022-08-25T07:33:44Z</time>
      </trkpt>
      <trkpt lat="42.79369899999993" lon="-1.6824350000000015">
        <ele>432.266</ele>
        <time>2022-08-25T07:33:45Z</time>
      </trkpt>
      <trkpt lat="42.79368599999993" lon="-1.6824630000000014">
        <ele>432.246</ele>
        <time>2022-08-25T07:33:46Z</time>
      </trkpt>
      <trkpt lat="42.79364599999993" lon="-1.6825410000000014">
        <ele>432.232</ele>
        <time>2022-08-25T07:33:49Z</time>
      </trkpt>
      <trkpt lat="42.79363199999993" lon="-1.6825650000000014">
        <ele>432.234</ele>
        <time>2022-08-25T07:33:50Z</time>
      </trkpt>
      <trkpt lat="42.79362099999993" lon="-1.6825900000000014">
        <ele>432.421</ele>
        <time>2022-08-25T07:33:51Z</time>
      </trkpt>
      <trkpt lat="42.79361099999993" lon="-1.6826130000000015">
        <ele>432.694</ele>
        <time>2022-08-25T07:33:52Z</time>
      </trkpt>
      <trkpt lat="42.79359699999993" lon="-1.6826320000000015">
        <ele>432.630</ele>
        <time>2022-08-25T07:33:53Z</time>
      </trkpt>
      <trkpt lat="42.79358499999993" lon="-1.6826500000000015">
        <ele>432.881</ele>
        <time>2022-08-25T07:33:54Z</time>
      </trkpt>
      <trkpt lat="42.793574999999926" lon="-1.6826640000000015">
        <ele>432.824</ele>
        <time>2022-08-25T07:33:55Z</time>
      </trkpt>
      <trkpt lat="42.793569999999924" lon="-1.6826710000000016">
        <ele>432.804</ele>
        <time>2022-08-25T07:33:56Z</time>
      </trkpt>
      <trkpt lat="42.79356299999993" lon="-1.6826910000000015">
        <ele>432.814</ele>
        <time>2022-08-25T07:34:22Z</time>
      </trkpt>
      <trkpt lat="42.793493999999924" lon="-1.6828210000000015">
        <ele>432.809</ele>
        <time>2022-08-25T07:34:27Z</time>
      </trkpt>
      <trkpt lat="42.79347899999993" lon="-1.6828500000000015">
        <ele>432.833</ele>
        <time>2022-08-25T07:34:28Z</time>
      </trkpt>
      <trkpt lat="42.793465999999924" lon="-1.6828760000000016">
        <ele>432.823</ele>
        <time>2022-08-25T07:34:29Z</time>
      </trkpt>
      <trkpt lat="42.79345599999992" lon="-1.6828980000000016">
        <ele>432.843</ele>
        <time>2022-08-25T07:34:30Z</time>
      </trkpt>
      <trkpt lat="42.79339999999992" lon="-1.6829890000000016">
        <ele>433.279</ele>
        <time>2022-08-25T07:34:34Z</time>
      </trkpt>
      <trkpt lat="42.79335599999992" lon="-1.6830320000000016">
        <ele>433.471</ele>
        <time>2022-08-25T07:34:36Z</time>
      </trkpt>
      <trkpt lat="42.79334399999992" lon="-1.6830480000000017">
        <ele>433.468</ele>
        <time>2022-08-25T07:34:37Z</time>
      </trkpt>
      <trkpt lat="42.79332799999992" lon="-1.6830680000000016">
        <ele>433.641</ele>
        <time>2022-08-25T07:34:38Z</time>
      </trkpt>
      <trkpt lat="42.79327699999992" lon="-1.6831210000000016">
        <ele>433.867</ele>
        <time>2022-08-25T07:34:41Z</time>
      </trkpt>
      <trkpt lat="42.79322599999992" lon="-1.6831840000000016">
        <ele>434.098</ele>
        <time>2022-08-25T07:34:44Z</time>
      </trkpt>
      <trkpt lat="42.79320899999992" lon="-1.6832030000000016">
        <ele>434.231</ele>
        <time>2022-08-25T07:34:45Z</time>
      </trkpt>
      <trkpt lat="42.79319299999992" lon="-1.6832180000000017">
        <ele>434.261</ele>
        <time>2022-08-25T07:34:46Z</time>
      </trkpt>
      <trkpt lat="42.793176999999915" lon="-1.6832300000000016">
        <ele>434.407</ele>
        <time>2022-08-25T07:34:47Z</time>
      </trkpt>
      <trkpt lat="42.79316199999992" lon="-1.6832430000000016">
        <ele>434.409</ele>
        <time>2022-08-25T07:34:48Z</time>
      </trkpt>
      <trkpt lat="42.79314799999992" lon="-1.6832530000000017">
        <ele>434.474</ele>
        <time>2022-08-25T07:34:49Z</time>
      </trkpt>
      <trkpt lat="42.793134999999914" lon="-1.6832630000000017">
        <ele>434.694</ele>
        <time>2022-08-25T07:34:50Z</time>
      </trkpt>
      <trkpt lat="42.793122999999916" lon="-1.6832750000000016">
        <ele>434.674</ele>
        <time>2022-08-25T07:34:51Z</time>
      </trkpt>
      <trkpt lat="42.79311299999991" lon="-1.6832850000000017">
        <ele>434.810</ele>
        <time>2022-08-25T07:34:52Z</time>
      </trkpt>
      <trkpt lat="42.79310499999991" lon="-1.6832900000000017">
        <ele>434.872</ele>
        <time>2022-08-25T07:34:53Z</time>
      </trkpt>
      <trkpt lat="42.79310199999991" lon="-1.6832910000000016">
        <ele>435.059</ele>
        <time>2022-08-25T07:34:54Z</time>
      </trkpt>
      <trkpt lat="42.79310199999991" lon="-1.6832910000000016">
        <ele>435.032</ele>
        <time>2022-08-25T07:34:55Z</time>
      </trkpt>
      <trkpt lat="42.79308499999991" lon="-1.6833070000000017">
        <ele>434.858</ele>
        <time>2022-08-25T07:35:52Z</time>
      </trkpt>
      <trkpt lat="42.793044999999914" lon="-1.6833360000000017">
        <ele>434.829</ele>
        <time>2022-08-25T07:35:54Z</time>
      </trkpt>
      <trkpt lat="42.79302699999992" lon="-1.6833570000000018">
        <ele>434.854</ele>
        <time>2022-08-25T07:35:55Z</time>
      </trkpt>
      <trkpt lat="42.79301199999992" lon="-1.6834110000000018">
        <ele>434.856</ele>
        <time>2022-08-25T07:35:57Z</time>
      </trkpt>
      <trkpt lat="42.79301399999992" lon="-1.6834450000000019">
        <ele>434.811</ele>
        <time>2022-08-25T07:35:58Z</time>
      </trkpt>
      <trkpt lat="42.79301199999992" lon="-1.683482000000002">
        <ele>435.009</ele>
        <time>2022-08-25T07:35:59Z</time>
      </trkpt>
      <trkpt lat="42.79300999999992" lon="-1.683525000000002">
        <ele>435.216</ele>
        <time>2022-08-25T07:36:00Z</time>
      </trkpt>
      <trkpt lat="42.79301999999992" lon="-1.683647000000002">
        <ele>435.486</ele>
        <time>2022-08-25T07:36:03Z</time>
      </trkpt>
      <trkpt lat="42.79301799999992" lon="-1.683727000000002">
        <ele>435.666</ele>
        <time>2022-08-25T07:36:05Z</time>
      </trkpt>
      <trkpt lat="42.79301799999992" lon="-1.683764000000002">
        <ele>435.632</ele>
        <time>2022-08-25T07:36:06Z</time>
      </trkpt>
      <trkpt lat="42.79301699999992" lon="-1.683802000000002">
        <ele>435.684</ele>
        <time>2022-08-25T07:36:07Z</time>
      </trkpt>
      <trkpt lat="42.79301699999992" lon="-1.683836000000002">
        <ele>435.661</ele>
        <time>2022-08-25T07:36:08Z</time>
      </trkpt>
      <trkpt lat="42.79301599999992" lon="-1.683869000000002">
        <ele>435.644</ele>
        <time>2022-08-25T07:36:09Z</time>
      </trkpt>
      <trkpt lat="42.793014999999926" lon="-1.683905000000002">
        <ele>435.640</ele>
        <time>2022-08-25T07:36:10Z</time>
      </trkpt>
      <trkpt lat="42.793011999999926" lon="-1.683939000000002">
        <ele>435.861</ele>
        <time>2022-08-25T07:36:11Z</time>
      </trkpt>
      <trkpt lat="42.793009999999924" lon="-1.6839730000000022">
        <ele>436.096</ele>
        <time>2022-08-25T07:36:12Z</time>
      </trkpt>
      <trkpt lat="42.793006999999925" lon="-1.6840070000000023">
        <ele>436.031</ele>
        <time>2022-08-25T07:36:13Z</time>
      </trkpt>
      <trkpt lat="42.79300199999992" lon="-1.6840410000000023">
        <ele>436.024</ele>
        <time>2022-08-25T07:36:14Z</time>
      </trkpt>
      <trkpt lat="42.79299499999993" lon="-1.6840750000000024">
        <ele>436.009</ele>
        <time>2022-08-25T07:36:15Z</time>
      </trkpt>
      <trkpt lat="42.79297999999993" lon="-1.6841670000000024">
        <ele>436.270</ele>
        <time>2022-08-25T07:36:18Z</time>
      </trkpt>
      <trkpt lat="42.79297399999993" lon="-1.6841990000000024">
        <ele>436.430</ele>
        <time>2022-08-25T07:36:19Z</time>
      </trkpt>
      <trkpt lat="42.79296599999993" lon="-1.6842290000000024">
        <ele>436.630</ele>
        <time>2022-08-25T07:36:20Z</time>
      </trkpt>
      <trkpt lat="42.79295399999993" lon="-1.6842880000000024">
        <ele>436.866</ele>
        <time>2022-08-25T07:36:22Z</time>
      </trkpt>
      <trkpt lat="42.792932999999934" lon="-1.6843950000000025">
        <ele>437.018</ele>
        <time>2022-08-25T07:36:26Z</time>
      </trkpt>
      <trkpt lat="42.792926999999935" lon="-1.6844220000000025">
        <ele>437.255</ele>
        <time>2022-08-25T07:36:27Z</time>
      </trkpt>
      <trkpt lat="42.79291399999993" lon="-1.6845430000000026">
        <ele>437.418</ele>
        <time>2022-08-25T07:36:31Z</time>
      </trkpt>
      <trkpt lat="42.79290399999993" lon="-1.6846110000000025">
        <ele>437.844</ele>
        <time>2022-08-25T07:36:33Z</time>
      </trkpt>
      <trkpt lat="42.79288999999993" lon="-1.6846770000000024">
        <ele>438.275</ele>
        <time>2022-08-25T07:36:35Z</time>
      </trkpt>
      <trkpt lat="42.79288299999993" lon="-1.6847090000000025">
        <ele>438.277</ele>
        <time>2022-08-25T07:36:36Z</time>
      </trkpt>
      <trkpt lat="42.79287699999993" lon="-1.6847400000000023">
        <ele>438.461</ele>
        <time>2022-08-25T07:36:37Z</time>
      </trkpt>
      <trkpt lat="42.792873999999934" lon="-1.6847710000000022">
        <ele>438.627</ele>
        <time>2022-08-25T07:36:38Z</time>
      </trkpt>
      <trkpt lat="42.79286999999994" lon="-1.6847990000000022">
        <ele>438.809</ele>
        <time>2022-08-25T07:36:39Z</time>
      </trkpt>
      <trkpt lat="42.79286899999994" lon="-1.6848250000000022">
        <ele>438.828</ele>
        <time>2022-08-25T07:36:40Z</time>
      </trkpt>
      <trkpt lat="42.79286399999994" lon="-1.6848500000000022">
        <ele>439.088</ele>
        <time>2022-08-25T07:36:41Z</time>
      </trkpt>
      <trkpt lat="42.79285299999994" lon="-1.6848750000000021">
        <ele>439.268</ele>
        <time>2022-08-25T07:36:42Z</time>
      </trkpt>
      <trkpt lat="42.792841999999936" lon="-1.684900000000002">
        <ele>439.264</ele>
        <time>2022-08-25T07:36:43Z</time>
      </trkpt>
      <trkpt lat="42.792825999999934" lon="-1.684916000000002">
        <ele>439.476</ele>
        <time>2022-08-25T07:36:44Z</time>
      </trkpt>
      <trkpt lat="42.79280399999993" lon="-1.6849210000000021">
        <ele>439.473</ele>
        <time>2022-08-25T07:36:45Z</time>
      </trkpt>
      <trkpt lat="42.79278399999993" lon="-1.6849260000000021">
        <ele>439.656</ele>
        <time>2022-08-25T07:36:46Z</time>
      </trkpt>
      <trkpt lat="42.792760999999935" lon="-1.684932000000002">
        <ele>439.872</ele>
        <time>2022-08-25T07:36:47Z</time>
      </trkpt>
      <trkpt lat="42.792749999999934" lon="-1.6849390000000022">
        <ele>439.853</ele>
        <time>2022-08-25T07:36:48Z</time>
      </trkpt>
      <trkpt lat="42.792740999999936" lon="-1.6849540000000023">
        <ele>439.869</ele>
        <time>2022-08-25T07:36:49Z</time>
      </trkpt>
      <trkpt lat="42.792740999999936" lon="-1.6849760000000022">
        <ele>439.804</ele>
        <time>2022-08-25T07:36:50Z</time>
      </trkpt>
      <trkpt lat="42.79274499999993" lon="-1.6850000000000023">
        <ele>440.024</ele>
        <time>2022-08-25T07:36:51Z</time>
      </trkpt>
      <trkpt lat="42.79275199999993" lon="-1.6850220000000022">
        <ele>440.009</ele>
        <time>2022-08-25T07:36:52Z</time>
      </trkpt>
      <trkpt lat="42.79276199999993" lon="-1.6850450000000023">
        <ele>440.047</ele>
        <time>2022-08-25T07:36:53Z</time>
      </trkpt>
      <trkpt lat="42.792766999999934" lon="-1.6850660000000024">
        <ele>440.287</ele>
        <time>2022-08-25T07:36:54Z</time>
      </trkpt>
      <trkpt lat="42.792763999999934" lon="-1.6850900000000024">
        <ele>440.287</ele>
        <time>2022-08-25T07:36:55Z</time>
      </trkpt>
      <trkpt lat="42.792760999999935" lon="-1.6851160000000025">
        <ele>440.423</ele>
        <time>2022-08-25T07:36:56Z</time>
      </trkpt>
      <trkpt lat="42.79275899999993" lon="-1.6851430000000025">
        <ele>440.495</ele>
        <time>2022-08-25T07:36:57Z</time>
      </trkpt>
      <trkpt lat="42.79275699999993" lon="-1.6851810000000025">
        <ele>440.622</ele>
        <time>2022-08-25T07:36:58Z</time>
      </trkpt>
      <trkpt lat="42.79275599999993" lon="-1.6852140000000024">
        <ele>440.855</ele>
        <time>2022-08-25T07:36:59Z</time>
      </trkpt>
      <trkpt lat="42.79275599999993" lon="-1.6852480000000025">
        <ele>441.061</ele>
        <time>2022-08-25T07:37:00Z</time>
      </trkpt>
      <trkpt lat="42.792754999999936" lon="-1.6852730000000025">
        <ele>441.222</ele>
        <time>2022-08-25T07:37:01Z</time>
      </trkpt>
      <trkpt lat="42.792751999999936" lon="-1.6853030000000024">
        <ele>441.273</ele>
        <time>2022-08-25T07:37:02Z</time>
      </trkpt>
      <trkpt lat="42.79274799999994" lon="-1.6853380000000024">
        <ele>441.485</ele>
        <time>2022-08-25T07:37:03Z</time>
      </trkpt>
      <trkpt lat="42.79274499999994" lon="-1.6853650000000024">
        <ele>441.613</ele>
        <time>2022-08-25T07:37:04Z</time>
      </trkpt>
      <trkpt lat="42.79274199999994" lon="-1.6853930000000024">
        <ele>441.809</ele>
        <time>2022-08-25T07:37:05Z</time>
      </trkpt>
      <trkpt lat="42.79273399999994" lon="-1.6854170000000024">
        <ele>441.828</ele>
        <time>2022-08-25T07:37:06Z</time>
      </trkpt>
      <trkpt lat="42.79273099999994" lon="-1.6854470000000024">
        <ele>442.228</ele>
        <time>2022-08-25T07:37:07Z</time>
      </trkpt>
      <trkpt lat="42.79272599999994" lon="-1.6854810000000024">
        <ele>442.488</ele>
        <time>2022-08-25T07:37:08Z</time>
      </trkpt>
      <trkpt lat="42.79272199999994" lon="-1.6855090000000024">
        <ele>442.444</ele>
        <time>2022-08-25T07:37:09Z</time>
      </trkpt>
      <trkpt lat="42.79271599999994" lon="-1.6855380000000024">
        <ele>442.666</ele>
        <time>2022-08-25T07:37:10Z</time>
      </trkpt>
      <trkpt lat="42.792711999999945" lon="-1.6855680000000024">
        <ele>442.653</ele>
        <time>2022-08-25T07:37:11Z</time>
      </trkpt>
      <trkpt lat="42.792711999999945" lon="-1.6855910000000025">
        <ele>442.886</ele>
        <time>2022-08-25T07:37:12Z</time>
      </trkpt>
      <trkpt lat="42.79270699999994" lon="-1.6856200000000026">
        <ele>443.082</ele>
        <time>2022-08-25T07:37:13Z</time>
      </trkpt>
      <trkpt lat="42.79270499999994" lon="-1.6856520000000026">
        <ele>443.263</ele>
        <time>2022-08-25T07:37:14Z</time>
      </trkpt>
      <trkpt lat="42.792703999999944" lon="-1.6856780000000027">
        <ele>443.499</ele>
        <time>2022-08-25T07:37:15Z</time>
      </trkpt>
      <trkpt lat="42.79269899999994" lon="-1.6857000000000026">
        <ele>443.407</ele>
        <time>2022-08-25T07:37:16Z</time>
      </trkpt>
      <trkpt lat="42.792694999999945" lon="-1.6857170000000026">
        <ele>443.627</ele>
        <time>2022-08-25T07:37:17Z</time>
      </trkpt>
      <trkpt lat="42.79268999999994" lon="-1.6857430000000027">
        <ele>443.609</ele>
        <time>2022-08-25T07:37:18Z</time>
      </trkpt>
      <trkpt lat="42.792683999999944" lon="-1.6857780000000027">
        <ele>443.880</ele>
        <time>2022-08-25T07:37:19Z</time>
      </trkpt>
      <trkpt lat="42.79268199999994" lon="-1.6858070000000027">
        <ele>444.090</ele>
        <time>2022-08-25T07:37:20Z</time>
      </trkpt>
      <trkpt lat="42.792680999999945" lon="-1.6858400000000027">
        <ele>444.230</ele>
        <time>2022-08-25T07:37:21Z</time>
      </trkpt>
      <trkpt lat="42.79268299999995" lon="-1.6858690000000027">
        <ele>444.246</ele>
        <time>2022-08-25T07:37:22Z</time>
      </trkpt>
      <trkpt lat="42.792680999999945" lon="-1.6858880000000027">
        <ele>444.228</ele>
        <time>2022-08-25T07:37:23Z</time>
      </trkpt>
      <trkpt lat="42.792669999999944" lon="-1.6859170000000028">
        <ele>444.655</ele>
        <time>2022-08-25T07:37:24Z</time>
      </trkpt>
      <trkpt lat="42.792669999999944" lon="-1.6859440000000028">
        <ele>444.698</ele>
        <time>2022-08-25T07:37:25Z</time>
      </trkpt>
      <trkpt lat="42.79267099999994" lon="-1.6859700000000029">
        <ele>444.624</ele>
        <time>2022-08-25T07:37:26Z</time>
      </trkpt>
      <trkpt lat="42.79267699999994" lon="-1.685991000000003">
        <ele>444.885</ele>
        <time>2022-08-25T07:37:27Z</time>
      </trkpt>
      <trkpt lat="42.79268099999994" lon="-1.6860190000000028">
        <ele>444.815</ele>
        <time>2022-08-25T07:37:28Z</time>
      </trkpt>
      <trkpt lat="42.79267999999994" lon="-1.6860470000000027">
        <ele>445.065</ele>
        <time>2022-08-25T07:37:29Z</time>
      </trkpt>
      <trkpt lat="42.79267799999994" lon="-1.6860770000000027">
        <ele>445.011</ele>
        <time>2022-08-25T07:37:30Z</time>
      </trkpt>
      <trkpt lat="42.79267399999994" lon="-1.6861020000000027">
        <ele>445.209</ele>
        <time>2022-08-25T07:37:31Z</time>
      </trkpt>
      <trkpt lat="42.79266599999994" lon="-1.6861310000000027">
        <ele>445.482</ele>
        <time>2022-08-25T07:37:32Z</time>
      </trkpt>
      <trkpt lat="42.79265699999994" lon="-1.6861660000000027">
        <ele>445.692</ele>
        <time>2022-08-25T07:37:33Z</time>
      </trkpt>
      <trkpt lat="42.79264899999994" lon="-1.6861930000000027">
        <ele>445.842</ele>
        <time>2022-08-25T07:37:34Z</time>
      </trkpt>
      <trkpt lat="42.79263799999994" lon="-1.6862210000000026">
        <ele>445.868</ele>
        <time>2022-08-25T07:37:35Z</time>
      </trkpt>
      <trkpt lat="42.79263199999994" lon="-1.6862440000000027">
        <ele>446.080</ele>
        <time>2022-08-25T07:37:36Z</time>
      </trkpt>
      <trkpt lat="42.79262299999994" lon="-1.6862720000000027">
        <ele>446.217</ele>
        <time>2022-08-25T07:37:37Z</time>
      </trkpt>
      <trkpt lat="42.79261699999994" lon="-1.6863080000000026">
        <ele>446.420</ele>
        <time>2022-08-25T07:37:38Z</time>
      </trkpt>
      <trkpt lat="42.792610999999944" lon="-1.6863390000000025">
        <ele>446.476</ele>
        <time>2022-08-25T07:37:39Z</time>
      </trkpt>
      <trkpt lat="42.792590999999945" lon="-1.6863720000000024">
        <ele>446.637</ele>
        <time>2022-08-25T07:37:40Z</time>
      </trkpt>
      <trkpt lat="42.792587999999945" lon="-1.6863970000000024">
        <ele>446.653</ele>
        <time>2022-08-25T07:37:41Z</time>
      </trkpt>
      <trkpt lat="42.79258599999994" lon="-1.6864330000000023">
        <ele>446.804</ele>
        <time>2022-08-25T07:37:42Z</time>
      </trkpt>
      <trkpt lat="42.79258399999994" lon="-1.6864630000000023">
        <ele>447.014</ele>
        <time>2022-08-25T07:37:43Z</time>
      </trkpt>
      <trkpt lat="42.792579999999944" lon="-1.6864910000000022">
        <ele>447.209</ele>
        <time>2022-08-25T07:37:44Z</time>
      </trkpt>
      <trkpt lat="42.79257499999994" lon="-1.686519000000002">
        <ele>447.456</ele>
        <time>2022-08-25T07:37:45Z</time>
      </trkpt>
      <trkpt lat="42.792567999999946" lon="-1.686546000000002">
        <ele>447.476</ele>
        <time>2022-08-25T07:37:46Z</time>
      </trkpt>
      <trkpt lat="42.79256199999995" lon="-1.6865830000000022">
        <ele>447.676</ele>
        <time>2022-08-25T07:37:47Z</time>
      </trkpt>
      <trkpt lat="42.79255599999995" lon="-1.6866090000000022">
        <ele>447.642</ele>
        <time>2022-08-25T07:37:48Z</time>
      </trkpt>
      <trkpt lat="42.79254699999995" lon="-1.6866390000000022">
        <ele>447.874</ele>
        <time>2022-08-25T07:37:49Z</time>
      </trkpt>
      <trkpt lat="42.79253799999995" lon="-1.6866700000000021">
        <ele>447.841</ele>
        <time>2022-08-25T07:37:50Z</time>
      </trkpt>
      <trkpt lat="42.79253299999995" lon="-1.6866940000000021">
        <ele>448.084</ele>
        <time>2022-08-25T07:37:51Z</time>
      </trkpt>
      <trkpt lat="42.792522999999946" lon="-1.6867320000000021">
        <ele>448.260</ele>
        <time>2022-08-25T07:37:52Z</time>
      </trkpt>
      <trkpt lat="42.79251399999995" lon="-1.686762000000002">
        <ele>448.211</ele>
        <time>2022-08-25T07:37:53Z</time>
      </trkpt>
      <trkpt lat="42.792505999999946" lon="-1.686790000000002">
        <ele>448.465</ele>
        <time>2022-08-25T07:37:54Z</time>
      </trkpt>
      <trkpt lat="42.79249899999995" lon="-1.6868130000000021">
        <ele>448.468</ele>
        <time>2022-08-25T07:37:55Z</time>
      </trkpt>
      <trkpt lat="42.79249099999995" lon="-1.6868400000000021">
        <ele>448.614</ele>
        <time>2022-08-25T07:37:56Z</time>
      </trkpt>
      <trkpt lat="42.79248399999995" lon="-1.6868770000000022">
        <ele>448.609</ele>
        <time>2022-08-25T07:37:57Z</time>
      </trkpt>
      <trkpt lat="42.792479999999955" lon="-1.6869060000000022">
        <ele>448.897</ele>
        <time>2022-08-25T07:37:58Z</time>
      </trkpt>
      <trkpt lat="42.79247599999996" lon="-1.6869330000000022">
        <ele>449.057</ele>
        <time>2022-08-25T07:37:59Z</time>
      </trkpt>
      <trkpt lat="42.79247199999996" lon="-1.6869540000000023">
        <ele>449.047</ele>
        <time>2022-08-25T07:38:00Z</time>
      </trkpt>
      <trkpt lat="42.792464999999964" lon="-1.6869840000000023">
        <ele>449.043</ele>
        <time>2022-08-25T07:38:01Z</time>
      </trkpt>
      <trkpt lat="42.79245499999996" lon="-1.6870170000000022">
        <ele>449.295</ele>
        <time>2022-08-25T07:38:02Z</time>
      </trkpt>
      <trkpt lat="42.79244599999996" lon="-1.6870450000000021">
        <ele>449.252</ele>
        <time>2022-08-25T07:38:03Z</time>
      </trkpt>
      <trkpt lat="42.79243799999996" lon="-1.6870690000000022">
        <ele>449.445</ele>
        <time>2022-08-25T07:38:04Z</time>
      </trkpt>
      <trkpt lat="42.79242999999996" lon="-1.6870980000000022">
        <ele>449.451</ele>
        <time>2022-08-25T07:38:05Z</time>
      </trkpt>
      <trkpt lat="42.79241599999996" lon="-1.6871350000000023">
        <ele>449.622</ele>
        <time>2022-08-25T07:38:06Z</time>
      </trkpt>
      <trkpt lat="42.79240499999996" lon="-1.6871660000000022">
        <ele>449.698</ele>
        <time>2022-08-25T07:38:07Z</time>
      </trkpt>
      <trkpt lat="42.79238999999996" lon="-1.6871990000000021">
        <ele>449.815</ele>
        <time>2022-08-25T07:38:08Z</time>
      </trkpt>
      <trkpt lat="42.79237999999996" lon="-1.6872220000000022">
        <ele>449.826</ele>
        <time>2022-08-25T07:38:09Z</time>
      </trkpt>
      <trkpt lat="42.79236899999996" lon="-1.6872520000000022">
        <ele>450.009</ele>
        <time>2022-08-25T07:38:10Z</time>
      </trkpt>
      <trkpt lat="42.79235799999996" lon="-1.6872860000000023">
        <ele>450.260</ele>
        <time>2022-08-25T07:38:11Z</time>
      </trkpt>
      <trkpt lat="42.79234599999996" lon="-1.6873150000000023">
        <ele>450.250</ele>
        <time>2022-08-25T07:38:12Z</time>
      </trkpt>
      <trkpt lat="42.79233799999996" lon="-1.6873420000000023">
        <ele>450.440</ele>
        <time>2022-08-25T07:38:13Z</time>
      </trkpt>
      <trkpt lat="42.79233099999996" lon="-1.6873700000000023">
        <ele>450.456</ele>
        <time>2022-08-25T07:38:14Z</time>
      </trkpt>
      <trkpt lat="42.79232499999996" lon="-1.6873940000000023">
        <ele>450.468</ele>
        <time>2022-08-25T07:38:15Z</time>
      </trkpt>
      <trkpt lat="42.79231499999996" lon="-1.6874280000000024">
        <ele>450.475</ele>
        <time>2022-08-25T07:38:16Z</time>
      </trkpt>
      <trkpt lat="42.79230199999996" lon="-1.6874560000000023">
        <ele>450.668</ele>
        <time>2022-08-25T07:38:17Z</time>
      </trkpt>
      <trkpt lat="42.792293999999956" lon="-1.6874840000000022">
        <ele>450.894</ele>
        <time>2022-08-25T07:38:18Z</time>
      </trkpt>
      <trkpt lat="42.79228699999996" lon="-1.6875070000000023">
        <ele>450.855</ele>
        <time>2022-08-25T07:38:19Z</time>
      </trkpt>
      <trkpt lat="42.79227599999996" lon="-1.6875410000000024">
        <ele>451.075</ele>
        <time>2022-08-25T07:38:20Z</time>
      </trkpt>
      <trkpt lat="42.79226499999996" lon="-1.6875670000000025">
        <ele>451.028</ele>
        <time>2022-08-25T07:38:21Z</time>
      </trkpt>
      <trkpt lat="42.79225699999996" lon="-1.6875940000000025">
        <ele>451.220</ele>
        <time>2022-08-25T07:38:22Z</time>
      </trkpt>
      <trkpt lat="42.79224999999996" lon="-1.6876160000000024">
        <ele>451.209</ele>
        <time>2022-08-25T07:38:23Z</time>
      </trkpt>
      <trkpt lat="42.79224199999996" lon="-1.6876460000000024">
        <ele>451.488</ele>
        <time>2022-08-25T07:38:24Z</time>
      </trkpt>
      <trkpt lat="42.79223299999996" lon="-1.6876830000000025">
        <ele>451.498</ele>
        <time>2022-08-25T07:38:25Z</time>
      </trkpt>
      <trkpt lat="42.79222099999996" lon="-1.6877140000000024">
        <ele>451.438</ele>
        <time>2022-08-25T07:38:26Z</time>
      </trkpt>
      <trkpt lat="42.792211999999964" lon="-1.6877440000000024">
        <ele>451.624</ele>
        <time>2022-08-25T07:38:27Z</time>
      </trkpt>
      <trkpt lat="42.79220499999997" lon="-1.6877710000000024">
        <ele>451.636</ele>
        <time>2022-08-25T07:38:28Z</time>
      </trkpt>
      <trkpt lat="42.792199999999966" lon="-1.6877930000000023">
        <ele>451.853</ele>
        <time>2022-08-25T07:38:29Z</time>
      </trkpt>
      <trkpt lat="42.79219399999997" lon="-1.6878210000000022">
        <ele>452.056</ele>
        <time>2022-08-25T07:38:30Z</time>
      </trkpt>
      <trkpt lat="42.792185999999965" lon="-1.6878530000000023">
        <ele>452.252</ele>
        <time>2022-08-25T07:38:31Z</time>
      </trkpt>
      <trkpt lat="42.79218199999997" lon="-1.6878780000000022">
        <ele>452.233</ele>
        <time>2022-08-25T07:38:32Z</time>
      </trkpt>
      <trkpt lat="42.79218099999997" lon="-1.6879050000000022">
        <ele>452.215</ele>
        <time>2022-08-25T07:38:33Z</time>
      </trkpt>
      <trkpt lat="42.79217799999997" lon="-1.6879280000000023">
        <ele>452.465</ele>
        <time>2022-08-25T07:38:34Z</time>
      </trkpt>
      <trkpt lat="42.79217199999997" lon="-1.6879450000000022">
        <ele>452.411</ele>
        <time>2022-08-25T07:38:35Z</time>
      </trkpt>
      <trkpt lat="42.79216699999997" lon="-1.6879550000000023">
        <ele>452.609</ele>
        <time>2022-08-25T07:38:36Z</time>
      </trkpt>
      <trkpt lat="42.79215399999997" lon="-1.6879670000000022">
        <ele>452.692</ele>
        <time>2022-08-25T07:38:37Z</time>
      </trkpt>
      <trkpt lat="42.79214199999997" lon="-1.6879760000000021">
        <ele>452.662</ele>
        <time>2022-08-25T07:38:38Z</time>
      </trkpt>
      <trkpt lat="42.79212499999997" lon="-1.687998000000002">
        <ele>452.652</ele>
        <time>2022-08-25T07:38:39Z</time>
      </trkpt>
      <trkpt lat="42.79211399999997" lon="-1.688023000000002">
        <ele>452.648</ele>
        <time>2022-08-25T07:38:40Z</time>
      </trkpt>
      <trkpt lat="42.79211199999997" lon="-1.6880570000000021">
        <ele>452.650</ele>
        <time>2022-08-25T07:38:41Z</time>
      </trkpt>
      <trkpt lat="42.79210499999997" lon="-1.6880870000000021">
        <ele>452.847</ele>
        <time>2022-08-25T07:38:42Z</time>
      </trkpt>
      <trkpt lat="42.79210299999997" lon="-1.6881100000000022">
        <ele>452.890</ele>
        <time>2022-08-25T07:38:43Z</time>
      </trkpt>
      <trkpt lat="42.79208799999997" lon="-1.6881550000000023">
        <ele>452.836</ele>
        <time>2022-08-25T07:38:44Z</time>
      </trkpt>
      <trkpt lat="42.79203999999997" lon="-1.6882480000000022">
        <ele>453.067</ele>
        <time>2022-08-25T07:38:47Z</time>
      </trkpt>
      <trkpt lat="42.79202899999997" lon="-1.6882720000000022">
        <ele>453.022</ele>
        <time>2022-08-25T07:38:48Z</time>
      </trkpt>
      <trkpt lat="42.79198699999997" lon="-1.6883740000000023">
        <ele>453.262</ele>
        <time>2022-08-25T07:38:51Z</time>
      </trkpt>
      <trkpt lat="42.791951999999974" lon="-1.6884560000000022">
        <ele>453.408</ele>
        <time>2022-08-25T07:38:54Z</time>
      </trkpt>
      <trkpt lat="42.79193599999997" lon="-1.6885080000000021">
        <ele>453.609</ele>
        <time>2022-08-25T07:38:56Z</time>
      </trkpt>
      <trkpt lat="42.791931999999974" lon="-1.6885260000000022">
        <ele>453.823</ele>
        <time>2022-08-25T07:38:57Z</time>
      </trkpt>
      <trkpt lat="42.791925999999975" lon="-1.6885510000000021">
        <ele>453.823</ele>
        <time>2022-08-25T07:38:58Z</time>
      </trkpt>
      <trkpt lat="42.79191299999997" lon="-1.6885830000000022">
        <ele>454.053</ele>
        <time>2022-08-25T07:38:59Z</time>
      </trkpt>
      <trkpt lat="42.791889999999974" lon="-1.6886420000000022">
        <ele>454.019</ele>
        <time>2022-08-25T07:39:01Z</time>
      </trkpt>
      <trkpt lat="42.79187099999997" lon="-1.6886940000000021">
        <ele>454.231</ele>
        <time>2022-08-25T07:39:03Z</time>
      </trkpt>
      <trkpt lat="42.791858999999974" lon="-1.688730000000002">
        <ele>454.428</ele>
        <time>2022-08-25T07:39:04Z</time>
      </trkpt>
      <trkpt lat="42.791846999999976" lon="-1.688760000000002">
        <ele>454.421</ele>
        <time>2022-08-25T07:39:05Z</time>
      </trkpt>
      <trkpt lat="42.79178099999998" lon="-1.6889180000000021">
        <ele>454.447</ele>
        <time>2022-08-25T07:39:10Z</time>
      </trkpt>
      <trkpt lat="42.79177299999998" lon="-1.688940000000002">
        <ele>454.658</ele>
        <time>2022-08-25T07:39:11Z</time>
      </trkpt>
      <trkpt lat="42.79176499999998" lon="-1.6889660000000022">
        <ele>454.676</ele>
        <time>2022-08-25T07:39:12Z</time>
      </trkpt>
      <trkpt lat="42.79175599999998" lon="-1.6889960000000022">
        <ele>454.890</ele>
        <time>2022-08-25T07:39:13Z</time>
      </trkpt>
      <trkpt lat="42.79169899999998" lon="-1.6890640000000021">
        <ele>455.019</ele>
        <time>2022-08-25T07:39:16Z</time>
      </trkpt>
      <trkpt lat="42.79168199999998" lon="-1.6890790000000022">
        <ele>455.009</ele>
        <time>2022-08-25T07:39:17Z</time>
      </trkpt>
      <trkpt lat="42.79165799999998" lon="-1.6891000000000023">
        <ele>455.018</ele>
        <time>2022-08-25T07:39:18Z</time>
      </trkpt>
      <trkpt lat="42.791644999999974" lon="-1.6891200000000022">
        <ele>455.048</ele>
        <time>2022-08-25T07:39:19Z</time>
      </trkpt>
      <trkpt lat="42.79163699999997" lon="-1.6891430000000023">
        <ele>454.878</ele>
        <time>2022-08-25T07:39:20Z</time>
      </trkpt>
      <trkpt lat="42.79162899999997" lon="-1.6891720000000023">
        <ele>454.854</ele>
        <time>2022-08-25T07:39:21Z</time>
      </trkpt>
      <trkpt lat="42.79162099999997" lon="-1.6892100000000023">
        <ele>454.896</ele>
        <time>2022-08-25T07:39:22Z</time>
      </trkpt>
      <trkpt lat="42.791613999999974" lon="-1.6892440000000024">
        <ele>454.853</ele>
        <time>2022-08-25T07:39:23Z</time>
      </trkpt>
      <trkpt lat="42.79154999999997" lon="-1.6894130000000025">
        <ele>454.856</ele>
        <time>2022-08-25T07:39:28Z</time>
      </trkpt>
      <trkpt lat="42.79150799999997" lon="-1.6895040000000026">
        <ele>454.822</ele>
        <time>2022-08-25T07:39:31Z</time>
      </trkpt>
      <trkpt lat="42.79148799999997" lon="-1.6895410000000026">
        <ele>454.863</ele>
        <time>2022-08-25T07:39:32Z</time>
      </trkpt>
      <trkpt lat="42.79147199999997" lon="-1.6895700000000027">
        <ele>454.827</ele>
        <time>2022-08-25T07:39:33Z</time>
      </trkpt>
      <trkpt lat="42.79143499999997" lon="-1.6896200000000028">
        <ele>454.868</ele>
        <time>2022-08-25T07:39:35Z</time>
      </trkpt>
      <trkpt lat="42.791402999999974" lon="-1.6896950000000028">
        <ele>454.614</ele>
        <time>2022-08-25T07:39:37Z</time>
      </trkpt>
      <trkpt lat="42.791390999999976" lon="-1.6897250000000028">
        <ele>454.609</ele>
        <time>2022-08-25T07:39:38Z</time>
      </trkpt>
      <trkpt lat="42.791379999999975" lon="-1.689748000000003">
        <ele>454.683</ele>
        <time>2022-08-25T07:39:39Z</time>
      </trkpt>
      <trkpt lat="42.79137099999998" lon="-1.6897810000000029">
        <ele>454.613</ele>
        <time>2022-08-25T07:39:40Z</time>
      </trkpt>
      <trkpt lat="42.791354999999974" lon="-1.6898200000000028">
        <ele>454.633</ele>
        <time>2022-08-25T07:39:41Z</time>
      </trkpt>
      <trkpt lat="42.79133999999998" lon="-1.6898530000000027">
        <ele>454.639</ele>
        <time>2022-08-25T07:39:42Z</time>
      </trkpt>
      <trkpt lat="42.79132799999998" lon="-1.6898840000000026">
        <ele>454.691</ele>
        <time>2022-08-25T07:39:43Z</time>
      </trkpt>
      <trkpt lat="42.79125699999998" lon="-1.6899920000000026">
        <ele>455.088</ele>
        <time>2022-08-25T07:39:47Z</time>
      </trkpt>
      <trkpt lat="42.79123899999998" lon="-1.6900240000000026">
        <ele>455.041</ele>
        <time>2022-08-25T07:39:48Z</time>
      </trkpt>
      <trkpt lat="42.79117199999998" lon="-1.6901300000000026">
        <ele>455.277</ele>
        <time>2022-08-25T07:39:51Z</time>
      </trkpt>
      <trkpt lat="42.79115199999998" lon="-1.6901600000000025">
        <ele>455.218</ele>
        <time>2022-08-25T07:39:52Z</time>
      </trkpt>
      <trkpt lat="42.79113299999998" lon="-1.6901890000000026">
        <ele>455.445</ele>
        <time>2022-08-25T07:39:53Z</time>
      </trkpt>
      <trkpt lat="42.79111999999998" lon="-1.6902130000000026">
        <ele>455.447</ele>
        <time>2022-08-25T07:39:54Z</time>
      </trkpt>
      <trkpt lat="42.791106999999975" lon="-1.6902440000000025">
        <ele>455.611</ele>
        <time>2022-08-25T07:39:55Z</time>
      </trkpt>
      <trkpt lat="42.791092999999975" lon="-1.6902830000000024">
        <ele>455.609</ele>
        <time>2022-08-25T07:39:56Z</time>
      </trkpt>
      <trkpt lat="42.79108399999998" lon="-1.6903130000000024">
        <ele>455.665</ele>
        <time>2022-08-25T07:39:57Z</time>
      </trkpt>
      <trkpt lat="42.791078999999975" lon="-1.6903350000000024">
        <ele>455.645</ele>
        <time>2022-08-25T07:39:58Z</time>
      </trkpt>
      <trkpt lat="42.791070999999974" lon="-1.6903610000000024">
        <ele>455.825</ele>
        <time>2022-08-25T07:39:59Z</time>
      </trkpt>
      <trkpt lat="42.79105799999997" lon="-1.6903850000000025">
        <ele>455.821</ele>
        <time>2022-08-25T07:40:00Z</time>
      </trkpt>
      <trkpt lat="42.79104499999997" lon="-1.6904030000000025">
        <ele>455.863</ele>
        <time>2022-08-25T07:40:01Z</time>
      </trkpt>
      <trkpt lat="42.79103699999997" lon="-1.6904230000000025">
        <ele>455.840</ele>
        <time>2022-08-25T07:40:02Z</time>
      </trkpt>
      <trkpt lat="42.791034999999965" lon="-1.6904390000000025">
        <ele>455.863</ele>
        <time>2022-08-25T07:40:03Z</time>
      </trkpt>
      <trkpt lat="42.791028999999966" lon="-1.6904520000000025">
        <ele>455.879</ele>
        <time>2022-08-25T07:40:04Z</time>
      </trkpt>
      <trkpt lat="42.791017999999966" lon="-1.6904690000000024">
        <ele>455.890</ele>
        <time>2022-08-25T07:40:05Z</time>
      </trkpt>
      <trkpt lat="42.791003999999965" lon="-1.6904720000000024">
        <ele>455.885</ele>
        <time>2022-08-25T07:40:06Z</time>
      </trkpt>
      <trkpt lat="42.79098599999997" lon="-1.6904590000000024">
        <ele>455.889</ele>
        <time>2022-08-25T07:40:07Z</time>
      </trkpt>
      <trkpt lat="42.79096399999997" lon="-1.6904270000000023">
        <ele>456.017</ele>
        <time>2022-08-25T07:40:09Z</time>
      </trkpt>
      <trkpt lat="42.79094899999997" lon="-1.6903780000000024">
        <ele>456.009</ele>
        <time>2022-08-25T07:40:11Z</time>
      </trkpt>
      <trkpt lat="42.79094399999997" lon="-1.6903610000000024">
        <ele>456.289</ele>
        <time>2022-08-25T07:40:12Z</time>
      </trkpt>
      <trkpt lat="42.79092299999997" lon="-1.6903170000000025">
        <ele>456.449</ele>
        <time>2022-08-25T07:40:14Z</time>
      </trkpt>
      <trkpt lat="42.79091099999997" lon="-1.6902970000000026">
        <ele>456.479</ele>
        <time>2022-08-25T07:40:15Z</time>
      </trkpt>
      <trkpt lat="42.79083299999997" lon="-1.6902110000000026">
        <ele>457.235</ele>
        <time>2022-08-25T07:40:19Z</time>
      </trkpt>
      <trkpt lat="42.790780999999974" lon="-1.6901590000000026">
        <ele>457.247</ele>
        <time>2022-08-25T07:40:21Z</time>
      </trkpt>
      <trkpt lat="42.79059399999998" lon="-1.6899570000000026">
        <ele>457.244</ele>
        <time>2022-08-25T07:40:26Z</time>
      </trkpt>
      <trkpt lat="42.79050699999998" lon="-1.6898610000000025">
        <ele>456.877</ele>
        <time>2022-08-25T07:40:28Z</time>
      </trkpt>
      <trkpt lat="42.79046699999998" lon="-1.6898190000000024">
        <ele>456.663</ele>
        <time>2022-08-25T07:40:29Z</time>
      </trkpt>
      <trkpt lat="42.79043599999998" lon="-1.6897790000000024">
        <ele>456.494</ele>
        <time>2022-08-25T07:40:30Z</time>
      </trkpt>
      <trkpt lat="42.79040999999998" lon="-1.6897480000000025">
        <ele>456.266</ele>
        <time>2022-08-25T07:40:31Z</time>
      </trkpt>
      <trkpt lat="42.79038499999998" lon="-1.6897210000000025">
        <ele>455.829</ele>
        <time>2022-08-25T07:40:32Z</time>
      </trkpt>
      <trkpt lat="42.79036499999998" lon="-1.6896980000000024">
        <ele>455.421</ele>
        <time>2022-08-25T07:40:33Z</time>
      </trkpt>
      <trkpt lat="42.79034899999998" lon="-1.6896780000000025">
        <ele>455.409</ele>
        <time>2022-08-25T07:40:34Z</time>
      </trkpt>
      <trkpt lat="42.79032899999998" lon="-1.6896550000000023">
        <ele>455.037</ele>
        <time>2022-08-25T07:40:35Z</time>
      </trkpt>
      <trkpt lat="42.79029999999998" lon="-1.6896130000000023">
        <ele>454.857</ele>
        <time>2022-08-25T07:40:37Z</time>
      </trkpt>
      <trkpt lat="42.79028599999998" lon="-1.6895950000000022">
        <ele>454.857</ele>
        <time>2022-08-25T07:40:38Z</time>
      </trkpt>
      <trkpt lat="42.79026599999998" lon="-1.6895820000000021">
        <ele>454.683</ele>
        <time>2022-08-25T07:40:39Z</time>
      </trkpt>
      <trkpt lat="42.79024999999998" lon="-1.6895780000000022">
        <ele>454.485</ele>
        <time>2022-08-25T07:40:40Z</time>
      </trkpt>
      <trkpt lat="42.79023499999998" lon="-1.6895820000000021">
        <ele>454.462</ele>
        <time>2022-08-25T07:40:41Z</time>
      </trkpt>
      <trkpt lat="42.79018099999998" lon="-1.689596000000002">
        <ele>454.285</ele>
        <time>2022-08-25T07:40:43Z</time>
      </trkpt>
      <trkpt lat="42.790151999999985" lon="-1.689599000000002">
        <ele>453.871</ele>
        <time>2022-08-25T07:40:44Z</time>
      </trkpt>
      <trkpt lat="42.79008599999999" lon="-1.689605000000002">
        <ele>453.222</ele>
        <time>2022-08-25T07:40:47Z</time>
      </trkpt>
      <trkpt lat="42.79002999999999" lon="-1.689613000000002">
        <ele>452.823</ele>
        <time>2022-08-25T07:40:49Z</time>
      </trkpt>
      <trkpt lat="42.79001499999999" lon="-1.689621000000002">
        <ele>452.883</ele>
        <time>2022-08-25T07:40:50Z</time>
      </trkpt>
      <trkpt lat="42.79000399999999" lon="-1.689632000000002">
        <ele>452.411</ele>
        <time>2022-08-25T07:40:51Z</time>
      </trkpt>
      <trkpt lat="42.78999499999999" lon="-1.689644000000002">
        <ele>452.209</ele>
        <time>2022-08-25T07:40:52Z</time>
      </trkpt>
      <trkpt lat="42.78998299999999" lon="-1.689657000000002">
        <ele>452.033</ele>
        <time>2022-08-25T07:40:53Z</time>
      </trkpt>
      <trkpt lat="42.789970999999994" lon="-1.689672000000002">
        <ele>451.833</ele>
        <time>2022-08-25T07:40:54Z</time>
      </trkpt>
      <trkpt lat="42.789958999999996" lon="-1.689684000000002">
        <ele>451.853</ele>
        <time>2022-08-25T07:40:55Z</time>
      </trkpt>
      <trkpt lat="42.789933999999995" lon="-1.689714000000002">
        <ele>451.459</ele>
        <time>2022-08-25T07:40:57Z</time>
      </trkpt>
      <trkpt lat="42.789928999999994" lon="-1.689727000000002">
        <ele>451.421</ele>
        <time>2022-08-25T07:40:58Z</time>
      </trkpt>
      <trkpt lat="42.78992699999999" lon="-1.689763000000002">
        <ele>450.818</ele>
        <time>2022-08-25T07:41:00Z</time>
      </trkpt>
      <trkpt lat="42.78992499999999" lon="-1.6897910000000018">
        <ele>450.621</ele>
        <time>2022-08-25T07:41:01Z</time>
      </trkpt>
      <trkpt lat="42.78992599999999" lon="-1.6898280000000019">
        <ele>450.457</ele>
        <time>2022-08-25T07:41:02Z</time>
      </trkpt>
      <trkpt lat="42.789926999999985" lon="-1.6898550000000019">
        <ele>449.828</ele>
        <time>2022-08-25T07:41:03Z</time>
      </trkpt>
      <trkpt lat="42.78991999999999" lon="-1.689870000000002">
        <ele>449.616</ele>
        <time>2022-08-25T07:41:04Z</time>
      </trkpt>
      <trkpt lat="42.78991299999999" lon="-1.689873000000002">
        <ele>449.276</ele>
        <time>2022-08-25T07:41:05Z</time>
      </trkpt>
      <trkpt lat="42.789908999999994" lon="-1.689867000000002">
        <ele>448.813</ele>
        <time>2022-08-25T07:41:06Z</time>
      </trkpt>
      <trkpt lat="42.789911" lon="-1.689854000000002">
        <ele>448.609</ele>
        <time>2022-08-25T07:41:07Z</time>
      </trkpt>
      <trkpt lat="42.789913999999996" lon="-1.689841000000002">
        <ele>448.432</ele>
        <time>2022-08-25T07:41:08Z</time>
      </trkpt>
      <trkpt lat="42.789922" lon="-1.689830000000002">
        <ele>448.482</ele>
        <time>2022-08-25T07:41:09Z</time>
      </trkpt>
      <trkpt lat="42.789927" lon="-1.689817000000002">
        <ele>448.232</ele>
        <time>2022-08-25T07:41:10Z</time>
      </trkpt>
      <trkpt lat="42.789926" lon="-1.6898020000000018">
        <ele>448.248</ele>
        <time>2022-08-25T07:41:11Z</time>
      </trkpt>
      <trkpt lat="42.78991" lon="-1.6897800000000018">
        <ele>448.290</ele>
        <time>2022-08-25T07:41:13Z</time>
      </trkpt>
      <trkpt lat="42.789829" lon="-1.6898100000000018">
        <ele>448.277</ele>
        <time>2022-08-25T07:41:17Z</time>
      </trkpt>
      <trkpt lat="42.789808" lon="-1.689798000000002">
        <ele>448.210</ele>
        <time>2022-08-25T07:41:18Z</time>
      </trkpt>
      <trkpt lat="42.789786" lon="-1.689773000000002">
        <ele>448.276</ele>
        <time>2022-08-25T07:41:19Z</time>
      </trkpt>
      <trkpt lat="42.78977" lon="-1.689732000000002">
        <ele>448.267</ele>
        <time>2022-08-25T07:41:20Z</time>
      </trkpt>
      <trkpt lat="42.789741" lon="-1.689652000000002">
        <ele>448.223</ele>
        <time>2022-08-25T07:41:22Z</time>
      </trkpt>
      <trkpt lat="42.789728" lon="-1.689619000000002">
        <ele>448.083</ele>
        <time>2022-08-25T07:41:23Z</time>
      </trkpt>
      <trkpt lat="42.789694" lon="-1.689535000000002">
        <ele>448.011</ele>
        <time>2022-08-25T07:41:25Z</time>
      </trkpt>
      <trkpt lat="42.789657999999996" lon="-1.689501000000002">
        <ele>448.009</ele>
        <time>2022-08-25T07:41:26Z</time>
      </trkpt>
      <trkpt lat="42.78961999999999" lon="-1.689479000000002">
        <ele>447.823</ele>
        <time>2022-08-25T07:41:27Z</time>
      </trkpt>
      <trkpt lat="42.789593999999994" lon="-1.689450000000002">
        <ele>447.813</ele>
        <time>2022-08-25T07:41:28Z</time>
      </trkpt>
      <trkpt lat="42.78956899999999" lon="-1.6894240000000018">
        <ele>447.843</ele>
        <time>2022-08-25T07:41:29Z</time>
      </trkpt>
      <trkpt lat="42.78949599999999" lon="-1.689331000000002">
        <ele>447.839</ele>
        <time>2022-08-25T07:41:32Z</time>
      </trkpt>
      <trkpt lat="42.789370999999996" lon="-1.6891750000000019">
        <ele>447.821</ele>
        <time>2022-08-25T07:41:36Z</time>
      </trkpt>
      <trkpt lat="42.789345999999995" lon="-1.689142000000002">
        <ele>447.858</ele>
        <time>2022-08-25T07:41:37Z</time>
      </trkpt>
      <trkpt lat="42.789269" lon="-1.6890270000000018">
        <ele>447.651</ele>
        <time>2022-08-25T07:41:40Z</time>
      </trkpt>
      <trkpt lat="42.789235" lon="-1.6889590000000019">
        <ele>447.637</ele>
        <time>2022-08-25T07:41:42Z</time>
      </trkpt>
      <trkpt lat="42.789176" lon="-1.688920000000002">
        <ele>447.468</ele>
        <time>2022-08-25T07:41:43Z</time>
      </trkpt>
      <trkpt lat="42.789114" lon="-1.6888780000000019">
        <ele>447.237</ele>
        <time>2022-08-25T07:41:44Z</time>
      </trkpt>
      <trkpt lat="42.78908" lon="-1.6888360000000018">
        <ele>447.249</ele>
        <time>2022-08-25T07:41:45Z</time>
      </trkpt>
      <trkpt lat="42.789032999999996" lon="-1.6887860000000017">
        <ele>447.013</ele>
        <time>2022-08-25T07:41:46Z</time>
      </trkpt>
      <trkpt lat="42.789012" lon="-1.6887420000000017">
        <ele>447.009</ele>
        <time>2022-08-25T07:41:47Z</time>
      </trkpt>
      <trkpt lat="42.78899" lon="-1.6886980000000018">
        <ele>446.854</ele>
        <time>2022-08-25T07:41:48Z</time>
      </trkpt>
      <trkpt lat="42.788956" lon="-1.6886530000000017">
        <ele>446.824</ele>
        <time>2022-08-25T07:41:49Z</time>
      </trkpt>
      <trkpt lat="42.788907" lon="-1.6886000000000017">
        <ele>446.424</ele>
        <time>2022-08-25T07:41:50Z</time>
      </trkpt>
      <trkpt lat="42.788876" lon="-1.6885580000000016">
        <ele>446.420</ele>
        <time>2022-08-25T07:41:51Z</time>
      </trkpt>
      <trkpt lat="42.788846" lon="-1.6885040000000016">
        <ele>446.232</ele>
        <time>2022-08-25T07:41:52Z</time>
      </trkpt>
      <trkpt lat="42.788797" lon="-1.6884470000000016">
        <ele>446.029</ele>
        <time>2022-08-25T07:41:53Z</time>
      </trkpt>
      <trkpt lat="42.788790000000006" lon="-1.6884160000000017">
        <ele>445.882</ele>
        <time>2022-08-25T07:41:54Z</time>
      </trkpt>
      <trkpt lat="42.78877800000001" lon="-1.6883660000000016">
        <ele>445.648</ele>
        <time>2022-08-25T07:41:55Z</time>
      </trkpt>
      <trkpt lat="42.78880100000001" lon="-1.6883350000000017">
        <ele>445.669</ele>
        <time>2022-08-25T07:41:56Z</time>
      </trkpt>
      <trkpt lat="42.78878100000001" lon="-1.6882970000000017">
        <ele>445.445</ele>
        <time>2022-08-25T07:41:57Z</time>
      </trkpt>
      <trkpt lat="42.78860000000001" lon="-1.6882120000000018">
        <ele>445.447</ele>
        <time>2022-08-25T07:41:59Z</time>
      </trkpt>
      <trkpt lat="42.78852500000001" lon="-1.688173000000002">
        <ele>445.211</ele>
        <time>2022-08-25T07:42:00Z</time>
      </trkpt>
      <trkpt lat="42.78843100000001" lon="-1.688108000000002">
        <ele>445.009</ele>
        <time>2022-08-25T07:42:02Z</time>
      </trkpt>
      <trkpt lat="42.78834300000001" lon="-1.687996000000002">
        <ele>444.625</ele>
        <time>2022-08-25T07:42:04Z</time>
      </trkpt>
      <trkpt lat="42.788294000000015" lon="-1.687955000000002">
        <ele>444.425</ele>
        <time>2022-08-25T07:42:05Z</time>
      </trkpt>
      <trkpt lat="42.78811800000001" lon="-1.687818000000002">
        <ele>444.075</ele>
        <time>2022-08-25T07:42:09Z</time>
      </trkpt>
      <trkpt lat="42.78809300000001" lon="-1.687774000000002">
        <ele>444.061</ele>
        <time>2022-08-25T07:42:10Z</time>
      </trkpt>
      <trkpt lat="42.78809000000001" lon="-1.687740000000002">
        <ele>443.843</ele>
        <time>2022-08-25T07:42:11Z</time>
      </trkpt>
      <trkpt lat="42.788086000000014" lon="-1.687698000000002">
        <ele>443.680</ele>
        <time>2022-08-25T07:42:12Z</time>
      </trkpt>
      <trkpt lat="42.78806100000001" lon="-1.687651000000002">
        <ele>443.633</ele>
        <time>2022-08-25T07:42:13Z</time>
      </trkpt>
      <trkpt lat="42.787998000000016" lon="-1.687615000000002">
        <ele>443.649</ele>
        <time>2022-08-25T07:42:14Z</time>
      </trkpt>
      <trkpt lat="42.787917000000014" lon="-1.6875760000000022">
        <ele>443.430</ele>
        <time>2022-08-25T07:42:15Z</time>
      </trkpt>
      <trkpt lat="42.787782000000014" lon="-1.6875090000000021">
        <ele>443.238</ele>
        <time>2022-08-25T07:42:17Z</time>
      </trkpt>
      <trkpt lat="42.787723000000014" lon="-1.687461000000002">
        <ele>443.070</ele>
        <time>2022-08-25T07:42:18Z</time>
      </trkpt>
      <trkpt lat="42.78764600000002" lon="-1.6874250000000022">
        <ele>443.017</ele>
        <time>2022-08-25T07:42:19Z</time>
      </trkpt>
      <trkpt lat="42.78759700000002" lon="-1.6874090000000022">
        <ele>442.609</ele>
        <time>2022-08-25T07:42:20Z</time>
      </trkpt>
      <trkpt lat="42.78744900000002" lon="-1.6873380000000022">
        <ele>442.494</ele>
        <time>2022-08-25T07:42:22Z</time>
      </trkpt>
      <trkpt lat="42.787343000000014" lon="-1.6872660000000022">
        <ele>442.224</ele>
        <time>2022-08-25T07:42:24Z</time>
      </trkpt>
      <trkpt lat="42.787301000000014" lon="-1.6872380000000022">
        <ele>442.074</ele>
        <time>2022-08-25T07:42:25Z</time>
      </trkpt>
      <trkpt lat="42.787086000000016" lon="-1.6871130000000023">
        <ele>441.480</ele>
        <time>2022-08-25T07:42:29Z</time>
      </trkpt>
      <trkpt lat="42.786856000000014" lon="-1.6869780000000023">
        <ele>440.882</ele>
        <time>2022-08-25T07:42:33Z</time>
      </trkpt>
      <trkpt lat="42.786797000000014" lon="-1.6869490000000023">
        <ele>440.679</ele>
        <time>2022-08-25T07:42:34Z</time>
      </trkpt>
      <trkpt lat="42.78668200000001" lon="-1.6868930000000022">
        <ele>440.412</ele>
        <time>2022-08-25T07:42:36Z</time>
      </trkpt>
      <trkpt lat="42.78653600000001" lon="-1.6868130000000021">
        <ele>440.428</ele>
        <time>2022-08-25T07:42:38Z</time>
      </trkpt>
      <trkpt lat="42.78615300000001" lon="-1.686627000000002">
        <ele>439.469</ele>
        <time>2022-08-25T07:42:45Z</time>
      </trkpt>
      <trkpt lat="42.78597600000001" lon="-1.6865430000000021">
        <ele>439.049</ele>
        <time>2022-08-25T07:42:48Z</time>
      </trkpt>
      <trkpt lat="42.785922000000014" lon="-1.686517000000002">
        <ele>439.002</ele>
        <time>2022-08-25T07:42:49Z</time>
      </trkpt>
      <trkpt lat="42.78586400000001" lon="-1.6864860000000022">
        <ele>438.622</ele>
        <time>2022-08-25T07:42:50Z</time>
      </trkpt>
      <trkpt lat="42.78581000000001" lon="-1.6864580000000022">
        <ele>438.409</ele>
        <time>2022-08-25T07:42:51Z</time>
      </trkpt>
      <trkpt lat="42.78576500000001" lon="-1.6864330000000023">
        <ele>438.445</ele>
        <time>2022-08-25T07:42:52Z</time>
      </trkpt>
      <trkpt lat="42.785722000000014" lon="-1.6864150000000022">
        <ele>438.285</ele>
        <time>2022-08-25T07:42:53Z</time>
      </trkpt>
      <trkpt lat="42.78568900000001" lon="-1.6864080000000021">
        <ele>438.265</ele>
        <time>2022-08-25T07:42:54Z</time>
      </trkpt>
      <trkpt lat="42.78564200000001" lon="-1.6864020000000022">
        <ele>437.841</ele>
        <time>2022-08-25T07:42:55Z</time>
      </trkpt>
      <trkpt lat="42.78560200000001" lon="-1.6864020000000022">
        <ele>437.843</ele>
        <time>2022-08-25T07:42:56Z</time>
      </trkpt>
      <trkpt lat="42.78551800000001" lon="-1.6864070000000022">
        <ele>437.680</ele>
        <time>2022-08-25T07:42:58Z</time>
      </trkpt>
      <trkpt lat="42.78544200000001" lon="-1.6863800000000022">
        <ele>437.433</ele>
        <time>2022-08-25T07:43:00Z</time>
      </trkpt>
      <trkpt lat="42.78540400000001" lon="-1.6863470000000023">
        <ele>437.489</ele>
        <time>2022-08-25T07:43:01Z</time>
      </trkpt>
      <trkpt lat="42.785368000000005" lon="-1.6863110000000023">
        <ele>437.230</ele>
        <time>2022-08-25T07:43:02Z</time>
      </trkpt>
      <trkpt lat="42.785334000000006" lon="-1.6862840000000023">
        <ele>437.236</ele>
        <time>2022-08-25T07:43:03Z</time>
      </trkpt>
      <trkpt lat="42.785298000000004" lon="-1.6862620000000024">
        <ele>437.017</ele>
        <time>2022-08-25T07:43:04Z</time>
      </trkpt>
      <trkpt lat="42.785265" lon="-1.6862470000000023">
        <ele>437.018</ele>
        <time>2022-08-25T07:43:05Z</time>
      </trkpt>
      <trkpt lat="42.785237" lon="-1.6862370000000022">
        <ele>436.809</ele>
        <time>2022-08-25T07:43:06Z</time>
      </trkpt>
      <trkpt lat="42.78521" lon="-1.6862390000000023">
        <ele>436.634</ele>
        <time>2022-08-25T07:43:07Z</time>
      </trkpt>
      <trkpt lat="42.785193" lon="-1.6862500000000022">
        <ele>436.674</ele>
        <time>2022-08-25T07:43:08Z</time>
      </trkpt>
      <trkpt lat="42.785182" lon="-1.6862620000000021">
        <ele>436.664</ele>
        <time>2022-08-25T07:43:09Z</time>
      </trkpt>
      <trkpt lat="42.785185" lon="-1.6862610000000022">
        <ele>436.680</ele>
        <time>2022-08-25T07:43:10Z</time>
      </trkpt>
      <trkpt lat="42.785191999999995" lon="-1.6862660000000023">
        <ele>436.682</ele>
        <time>2022-08-25T07:43:11Z</time>
      </trkpt>
      <trkpt lat="42.785199999999996" lon="-1.6862690000000022">
        <ele>436.689</ele>
        <time>2022-08-25T07:43:12Z</time>
      </trkpt>
      <trkpt lat="42.785211999999994" lon="-1.6862720000000022">
        <ele>436.642</ele>
        <time>2022-08-25T07:43:13Z</time>
      </trkpt>
      <trkpt lat="42.78522399999999" lon="-1.6862770000000022">
        <ele>436.688</ele>
        <time>2022-08-25T07:43:14Z</time>
      </trkpt>
      <trkpt lat="42.785233999999996" lon="-1.6862790000000023">
        <ele>436.659</ele>
        <time>2022-08-25T07:43:15Z</time>
      </trkpt>
      <trkpt lat="42.785284" lon="-1.6862920000000023">
        <ele>436.428</ele>
        <time>2022-08-25T07:43:18Z</time>
      </trkpt>
      <trkpt lat="42.785345" lon="-1.6863290000000024">
        <ele>436.489</ele>
        <time>2022-08-25T07:43:21Z</time>
      </trkpt>
      <trkpt lat="42.785354" lon="-1.6863420000000025">
        <ele>436.417</ele>
        <time>2022-08-25T07:43:22Z</time>
      </trkpt>
      <trkpt lat="42.785362" lon="-1.6863680000000025">
        <ele>436.409</ele>
        <time>2022-08-25T07:43:23Z</time>
      </trkpt>
      <trkpt lat="42.785374" lon="-1.6863930000000025">
        <ele>436.443</ele>
        <time>2022-08-25T07:43:24Z</time>
      </trkpt>
      <trkpt lat="42.785382" lon="-1.6864090000000025">
        <ele>436.413</ele>
        <time>2022-08-25T07:43:25Z</time>
      </trkpt>
      <trkpt lat="42.785392" lon="-1.6864280000000025">
        <ele>436.433</ele>
        <time>2022-08-25T07:43:26Z</time>
      </trkpt>
      <trkpt lat="42.785406" lon="-1.6864570000000025">
        <ele>437.039</ele>
        <time>2022-08-25T07:44:23Z</time>
      </trkpt>
      <trkpt lat="42.785409" lon="-1.6864580000000025">
        <ele>437.031</ele>
        <time>2022-08-25T07:44:24Z</time>
      </trkpt>
      <trkpt lat="42.785478000000005" lon="-1.6864920000000025">
        <ele>437.028</ele>
        <time>2022-08-25T07:44:28Z</time>
      </trkpt>
      <trkpt lat="42.78548800000001" lon="-1.6865080000000026">
        <ele>437.051</ele>
        <time>2022-08-25T07:44:29Z</time>
      </trkpt>
      <trkpt lat="42.78549300000001" lon="-1.6865260000000026">
        <ele>437.027</ele>
        <time>2022-08-25T07:44:30Z</time>
      </trkpt>
      <trkpt lat="42.78549500000001" lon="-1.6865430000000026">
        <ele>437.028</ele>
        <time>2022-08-25T07:44:31Z</time>
      </trkpt>
      <trkpt lat="42.78550000000001" lon="-1.6865530000000026">
        <ele>437.086</ele>
        <time>2022-08-25T07:44:32Z</time>
      </trkpt>
      <trkpt lat="42.785502000000015" lon="-1.6865620000000026">
        <ele>437.060</ele>
        <time>2022-08-25T07:44:33Z</time>
      </trkpt>
      <trkpt lat="42.78549800000002" lon="-1.6865690000000026">
        <ele>437.026</ele>
        <time>2022-08-25T07:44:34Z</time>
      </trkpt>
      <trkpt lat="42.78549700000002" lon="-1.6865800000000026">
        <ele>437.009</ele>
        <time>2022-08-25T07:44:35Z</time>
      </trkpt>
      <trkpt lat="42.78549600000002" lon="-1.6865900000000027">
        <ele>437.059</ele>
        <time>2022-08-25T07:44:36Z</time>
      </trkpt>
      <trkpt lat="42.785493000000024" lon="-1.6866020000000026">
        <ele>437.059</ele>
        <time>2022-08-25T07:44:37Z</time>
      </trkpt>
      <trkpt lat="42.78548800000002" lon="-1.6866110000000025">
        <ele>437.059</ele>
        <time>2022-08-25T07:44:38Z</time>
      </trkpt>
      <trkpt lat="42.785462000000024" lon="-1.6866780000000026">
        <ele>436.875</ele>
        <time>2022-08-25T07:44:43Z</time>
      </trkpt>
      <trkpt lat="42.785461000000026" lon="-1.6866840000000025">
        <ele>436.867</ele>
        <time>2022-08-25T07:44:44Z</time>
      </trkpt>
      <trkpt lat="42.785479000000024" lon="-1.6866580000000024">
        <ele>437.284</ele>
        <time>2022-08-25T07:45:48Z</time>
      </trkpt>
      <trkpt lat="42.78548600000002" lon="-1.6866300000000025">
        <ele>437.297</ele>
        <time>2022-08-25T07:45:50Z</time>
      </trkpt>
      <trkpt lat="42.78548900000002" lon="-1.6866030000000025">
        <ele>437.283</ele>
        <time>2022-08-25T07:45:51Z</time>
      </trkpt>
      <trkpt lat="42.78549500000002" lon="-1.6865190000000025">
        <ele>437.274</ele>
        <time>2022-08-25T07:45:54Z</time>
      </trkpt>
      <trkpt lat="42.78550300000002" lon="-1.6865010000000025">
        <ele>437.242</ele>
        <time>2022-08-25T07:45:55Z</time>
      </trkpt>
      <trkpt lat="42.78551300000002" lon="-1.6864890000000026">
        <ele>437.022</ele>
        <time>2022-08-25T07:45:56Z</time>
      </trkpt>
      <trkpt lat="42.785521000000024" lon="-1.6864780000000026">
        <ele>437.014</ele>
        <time>2022-08-25T07:45:57Z</time>
      </trkpt>
      <trkpt lat="42.78553100000003" lon="-1.6864710000000025">
        <ele>437.009</ele>
        <time>2022-08-25T07:45:58Z</time>
      </trkpt>
      <trkpt lat="42.78553900000003" lon="-1.6864650000000025">
        <ele>437.075</ele>
        <time>2022-08-25T07:45:59Z</time>
      </trkpt>
      <trkpt lat="42.78554500000003" lon="-1.6864540000000026">
        <ele>437.045</ele>
        <time>2022-08-25T07:46:00Z</time>
      </trkpt>
      <trkpt lat="42.785549000000024" lon="-1.6864450000000026">
        <ele>437.045</ele>
        <time>2022-08-25T07:46:01Z</time>
      </trkpt>
      <trkpt lat="42.78554700000002" lon="-1.6864410000000027">
        <ele>436.831</ele>
        <time>2022-08-25T07:47:22Z</time>
      </trkpt>
      <trkpt lat="42.78544000000002" lon="-1.6863820000000027">
        <ele>436.493</ele>
        <time>2022-08-25T07:47:28Z</time>
      </trkpt>
      <trkpt lat="42.785296000000024" lon="-1.6862630000000027">
        <ele>436.270</ele>
        <time>2022-08-25T07:47:33Z</time>
      </trkpt>
      <trkpt lat="42.78525800000002" lon="-1.6862440000000027">
        <ele>436.223</ele>
        <time>2022-08-25T07:47:34Z</time>
      </trkpt>
      <trkpt lat="42.78518600000002" lon="-1.6862060000000028">
        <ele>436.059</ele>
        <time>2022-08-25T07:47:36Z</time>
      </trkpt>
      <trkpt lat="42.785136000000016" lon="-1.6861800000000027">
        <ele>436.080</ele>
        <time>2022-08-25T07:47:37Z</time>
      </trkpt>
      <trkpt lat="42.785094000000015" lon="-1.6861620000000026">
        <ele>436.046</ele>
        <time>2022-08-25T07:47:38Z</time>
      </trkpt>
      <trkpt lat="42.784931000000014" lon="-1.6860880000000027">
        <ele>435.888</ele>
        <time>2022-08-25T07:47:42Z</time>
      </trkpt>
      <trkpt lat="42.78476000000001" lon="-1.6860200000000027">
        <ele>435.816</ele>
        <time>2022-08-25T07:47:46Z</time>
      </trkpt>
      <trkpt lat="42.78446200000001" lon="-1.6859050000000027">
        <ele>435.409</ele>
        <time>2022-08-25T07:47:53Z</time>
      </trkpt>
      <trkpt lat="42.784419000000014" lon="-1.6858910000000027">
        <ele>435.475</ele>
        <time>2022-08-25T07:47:54Z</time>
      </trkpt>
      <trkpt lat="42.784376000000016" lon="-1.6858740000000028">
        <ele>435.435</ele>
        <time>2022-08-25T07:47:55Z</time>
      </trkpt>
      <trkpt lat="42.78433600000002" lon="-1.6858590000000027">
        <ele>435.465</ele>
        <time>2022-08-25T07:47:56Z</time>
      </trkpt>
      <trkpt lat="42.784295000000014" lon="-1.6858420000000027">
        <ele>435.431</ele>
        <time>2022-08-25T07:47:57Z</time>
      </trkpt>
      <trkpt lat="42.784067000000015" lon="-1.6857530000000027">
        <ele>435.043</ele>
        <time>2022-08-25T07:48:02Z</time>
      </trkpt>
      <trkpt lat="42.783929000000015" lon="-1.6856990000000027">
        <ele>434.860</ele>
        <time>2022-08-25T07:48:05Z</time>
      </trkpt>
      <trkpt lat="42.783839000000015" lon="-1.6856680000000028">
        <ele>434.823</ele>
        <time>2022-08-25T07:48:07Z</time>
      </trkpt>
      <trkpt lat="42.78374800000002" lon="-1.6856330000000028">
        <ele>434.679</ele>
        <time>2022-08-25T07:48:09Z</time>
      </trkpt>
      <trkpt lat="42.783574000000016" lon="-1.6855690000000028">
        <ele>434.460</ele>
        <time>2022-08-25T07:48:13Z</time>
      </trkpt>
      <trkpt lat="42.78352000000002" lon="-1.6855510000000027">
        <ele>434.431</ele>
        <time>2022-08-25T07:48:14Z</time>
      </trkpt>
      <trkpt lat="42.78347700000002" lon="-1.6855390000000028">
        <ele>434.261</ele>
        <time>2022-08-25T07:48:15Z</time>
      </trkpt>
      <trkpt lat="42.78343200000002" lon="-1.6855320000000027">
        <ele>434.207</ele>
        <time>2022-08-25T07:48:16Z</time>
      </trkpt>
      <trkpt lat="42.78338700000002" lon="-1.6855260000000027">
        <ele>434.209</ele>
        <time>2022-08-25T07:48:17Z</time>
      </trkpt>
      <trkpt lat="42.783343000000016" lon="-1.6855180000000027">
        <ele>434.264</ele>
        <time>2022-08-25T07:48:18Z</time>
      </trkpt>
      <trkpt lat="42.78321300000002" lon="-1.6854520000000028">
        <ele>434.064</ele>
        <time>2022-08-25T07:48:21Z</time>
      </trkpt>
      <trkpt lat="42.783073000000016" lon="-1.6853920000000029">
        <ele>433.874</ele>
        <time>2022-08-25T07:48:24Z</time>
      </trkpt>
      <trkpt lat="42.783025000000016" lon="-1.6853770000000028">
        <ele>433.830</ele>
        <time>2022-08-25T07:48:25Z</time>
      </trkpt>
      <trkpt lat="42.78298700000001" lon="-1.6853660000000028">
        <ele>433.882</ele>
        <time>2022-08-25T07:48:26Z</time>
      </trkpt>
      <trkpt lat="42.78283600000001" lon="-1.6853320000000027">
        <ele>433.829</ele>
        <time>2022-08-25T07:48:29Z</time>
      </trkpt>
      <trkpt lat="42.78279200000001" lon="-1.6853220000000027">
        <ele>433.842</ele>
        <time>2022-08-25T07:48:30Z</time>
      </trkpt>
      <trkpt lat="42.78274700000001" lon="-1.6853130000000027">
        <ele>433.838</ele>
        <time>2022-08-25T07:48:31Z</time>
      </trkpt>
      <trkpt lat="42.782703000000005" lon="-1.6853070000000028">
        <ele>433.839</ele>
        <time>2022-08-25T07:48:32Z</time>
      </trkpt>
      <trkpt lat="42.782659" lon="-1.6852960000000028">
        <ele>433.814</ele>
        <time>2022-08-25T07:48:33Z</time>
      </trkpt>
      <trkpt lat="42.782614" lon="-1.6852850000000028">
        <ele>433.854</ele>
        <time>2022-08-25T07:48:34Z</time>
      </trkpt>
      <trkpt lat="42.782254" lon="-1.6852480000000027">
        <ele>433.609</ele>
        <time>2022-08-25T07:48:42Z</time>
      </trkpt>
      <trkpt lat="42.782209" lon="-1.6852460000000027">
        <ele>433.609</ele>
        <time>2022-08-25T07:48:43Z</time>
      </trkpt>
      <trkpt lat="42.782165" lon="-1.6852460000000027">
        <ele>433.642</ele>
        <time>2022-08-25T07:48:44Z</time>
      </trkpt>
      <trkpt lat="42.782122" lon="-1.6852470000000026">
        <ele>433.682</ele>
        <time>2022-08-25T07:48:45Z</time>
      </trkpt>
      <trkpt lat="42.782036" lon="-1.6852450000000025">
        <ele>433.632</ele>
        <time>2022-08-25T07:48:47Z</time>
      </trkpt>
      <trkpt lat="42.781904999999995" lon="-1.6852620000000025">
        <ele>433.468</ele>
        <time>2022-08-25T07:48:50Z</time>
      </trkpt>
      <trkpt lat="42.781862" lon="-1.6852680000000024">
        <ele>433.460</ele>
        <time>2022-08-25T07:48:51Z</time>
      </trkpt>
      <trkpt lat="42.781819" lon="-1.6852750000000025">
        <ele>433.487</ele>
        <time>2022-08-25T07:48:52Z</time>
      </trkpt>
      <trkpt lat="42.781779" lon="-1.6852820000000026">
        <ele>433.410</ele>
        <time>2022-08-25T07:48:53Z</time>
      </trkpt>
      <trkpt lat="42.78174" lon="-1.6852890000000027">
        <ele>433.436</ele>
        <time>2022-08-25T07:48:54Z</time>
      </trkpt>
      <trkpt lat="42.781701999999996" lon="-1.6853010000000026">
        <ele>433.427</ele>
        <time>2022-08-25T07:48:55Z</time>
      </trkpt>
      <trkpt lat="42.781662999999995" lon="-1.6853140000000026">
        <ele>433.458</ele>
        <time>2022-08-25T07:48:56Z</time>
      </trkpt>
      <trkpt lat="42.781622999999996" lon="-1.6853300000000027">
        <ele>433.452</ele>
        <time>2022-08-25T07:48:57Z</time>
      </trkpt>
      <trkpt lat="42.781586" lon="-1.6853460000000027">
        <ele>433.417</ele>
        <time>2022-08-25T07:48:58Z</time>
      </trkpt>
      <trkpt lat="42.781558" lon="-1.6853580000000026">
        <ele>433.409</ele>
        <time>2022-08-25T07:48:59Z</time>
      </trkpt>
      <trkpt lat="42.781518" lon="-1.6853770000000026">
        <ele>433.426</ele>
        <time>2022-08-25T07:49:00Z</time>
      </trkpt>
      <trkpt lat="42.781486" lon="-1.6853940000000025">
        <ele>433.436</ele>
        <time>2022-08-25T07:49:01Z</time>
      </trkpt>
      <trkpt lat="42.781455" lon="-1.6854090000000026">
        <ele>433.436</ele>
        <time>2022-08-25T07:49:02Z</time>
      </trkpt>
      <trkpt lat="42.781425" lon="-1.6854270000000027">
        <ele>433.442</ele>
        <time>2022-08-25T07:49:03Z</time>
      </trkpt>
      <trkpt lat="42.781397" lon="-1.6854470000000026">
        <ele>433.634</ele>
        <time>2022-08-25T07:49:04Z</time>
      </trkpt>
      <trkpt lat="42.781374" lon="-1.6854660000000026">
        <ele>433.651</ele>
        <time>2022-08-25T07:49:05Z</time>
      </trkpt>
      <trkpt lat="42.781307" lon="-1.6855320000000025">
        <ele>433.864</ele>
        <time>2022-08-25T07:49:08Z</time>
      </trkpt>
      <trkpt lat="42.781282" lon="-1.6855540000000024">
        <ele>433.810</ele>
        <time>2022-08-25T07:49:09Z</time>
      </trkpt>
      <trkpt lat="42.781251999999995" lon="-1.6856030000000024">
        <ele>433.851</ele>
        <time>2022-08-25T07:49:11Z</time>
      </trkpt>
      <trkpt lat="42.781251" lon="-1.6856370000000025">
        <ele>433.833</ele>
        <time>2022-08-25T07:49:12Z</time>
      </trkpt>
      <trkpt lat="42.781254" lon="-1.6856690000000025">
        <ele>433.823</ele>
        <time>2022-08-25T07:49:13Z</time>
      </trkpt>
      <trkpt lat="42.781256" lon="-1.6856960000000025">
        <ele>433.815</ele>
        <time>2022-08-25T07:49:14Z</time>
      </trkpt>
      <trkpt lat="42.781255" lon="-1.6857220000000026">
        <ele>434.009</ele>
        <time>2022-08-25T07:49:15Z</time>
      </trkpt>
      <trkpt lat="42.781254000000004" lon="-1.6857510000000027">
        <ele>434.084</ele>
        <time>2022-08-25T07:49:16Z</time>
      </trkpt>
      <trkpt lat="42.781254000000004" lon="-1.6857730000000026">
        <ele>434.244</ele>
        <time>2022-08-25T07:49:17Z</time>
      </trkpt>
      <trkpt lat="42.781231000000005" lon="-1.6859230000000027">
        <ele>434.874</ele>
        <time>2022-08-25T07:49:22Z</time>
      </trkpt>
      <trkpt lat="42.781228000000006" lon="-1.6859490000000028">
        <ele>434.860</ele>
        <time>2022-08-25T07:49:23Z</time>
      </trkpt>
      <trkpt lat="42.78123600000001" lon="-1.6859630000000028">
        <ele>435.042</ele>
        <time>2022-08-25T07:49:24Z</time>
      </trkpt>
      <trkpt lat="42.781251000000005" lon="-1.6859640000000027">
        <ele>435.059</ele>
        <time>2022-08-25T07:49:25Z</time>
      </trkpt>
      <trkpt lat="42.78134000000001" lon="-1.6858800000000027">
        <ele>435.232</ele>
        <time>2022-08-25T07:49:30Z</time>
      </trkpt>
      <trkpt lat="42.78140900000001" lon="-1.6858300000000026">
        <ele>435.228</ele>
        <time>2022-08-25T07:49:33Z</time>
      </trkpt>
      <trkpt lat="42.78142500000001" lon="-1.6858380000000026">
        <ele>435.259</ele>
        <time>2022-08-25T07:49:34Z</time>
      </trkpt>
      <trkpt lat="42.78143400000001" lon="-1.6858520000000026">
        <ele>435.287</ele>
        <time>2022-08-25T07:49:35Z</time>
      </trkpt>
      <trkpt lat="42.78144500000001" lon="-1.6858730000000026">
        <ele>435.242</ele>
        <time>2022-08-25T07:49:36Z</time>
      </trkpt>
      <trkpt lat="42.781458000000015" lon="-1.6858920000000026">
        <ele>435.226</ele>
        <time>2022-08-25T07:49:37Z</time>
      </trkpt>
      <trkpt lat="42.78146700000001" lon="-1.6859100000000027">
        <ele>435.209</ele>
        <time>2022-08-25T07:49:38Z</time>
      </trkpt>
      <trkpt lat="42.78147700000002" lon="-1.6859250000000028">
        <ele>435.259</ele>
        <time>2022-08-25T07:49:39Z</time>
      </trkpt>
      <trkpt lat="42.78148700000002" lon="-1.6859410000000028">
        <ele>435.259</ele>
        <time>2022-08-25T07:49:40Z</time>
      </trkpt>
      <trkpt lat="42.78150000000002" lon="-1.6859610000000027">
        <ele>435.229</ele>
        <time>2022-08-25T07:49:41Z</time>
      </trkpt>
      <trkpt lat="42.781510000000026" lon="-1.6859780000000026">
        <ele>435.255</ele>
        <time>2022-08-25T07:49:42Z</time>
      </trkpt>
      <trkpt lat="42.78151400000002" lon="-1.6860130000000026">
        <ele>435.237</ele>
        <time>2022-08-25T07:49:44Z</time>
      </trkpt>
      <trkpt lat="42.78150600000002" lon="-1.6860230000000027">
        <ele>435.244</ele>
        <time>2022-08-25T07:49:45Z</time>
      </trkpt>
      <trkpt lat="42.78150300000002" lon="-1.6860240000000026">
        <ele>435.277</ele>
        <time>2022-08-25T07:49:46Z</time>
      </trkpt>
      <trkpt lat="42.78148700000002" lon="-1.6860150000000027">
        <ele>435.273</ele>
        <time>2022-08-25T07:50:28Z</time>
      </trkpt>
      <trkpt lat="42.78147000000002" lon="-1.6860090000000028">
        <ele>435.214</ele>
        <time>2022-08-25T07:50:29Z</time>
      </trkpt>
      <trkpt lat="42.78143400000002" lon="-1.6859910000000027">
        <ele>435.083</ele>
        <time>2022-08-25T07:50:31Z</time>
      </trkpt>
      <trkpt lat="42.781418000000016" lon="-1.6860100000000027">
        <ele>434.625</ele>
        <time>2022-08-25T07:50:33Z</time>
      </trkpt>
      <trkpt lat="42.781419000000014" lon="-1.6860060000000028">
        <ele>434.617</ele>
        <time>2022-08-25T07:50:34Z</time>
      </trkpt>
      <trkpt lat="42.78142200000001" lon="-1.6859920000000028">
        <ele>434.609</ele>
        <time>2022-08-25T07:50:36Z</time>
      </trkpt>
      <trkpt lat="42.78142900000001" lon="-1.6859840000000028">
        <ele>434.659</ele>
        <time>2022-08-25T07:50:37Z</time>
      </trkpt>
      <trkpt lat="42.78144400000001" lon="-1.6859770000000027">
        <ele>434.419</ele>
        <time>2022-08-25T07:50:38Z</time>
      </trkpt>
      <trkpt lat="42.78146800000001" lon="-1.6859590000000026">
        <ele>434.459</ele>
        <time>2022-08-25T07:50:39Z</time>
      </trkpt>
      <trkpt lat="42.78150400000001" lon="-1.6859130000000027">
        <ele>434.445</ele>
        <time>2022-08-25T07:50:42Z</time>
      </trkpt>
      <trkpt lat="42.78147700000001" lon="-1.6858940000000027">
        <ele>434.667</ele>
        <time>2022-08-25T07:50:43Z</time>
      </trkpt>
      <trkpt lat="42.78141700000001" lon="-1.6858360000000028">
        <ele>434.644</ele>
        <time>2022-08-25T07:50:45Z</time>
      </trkpt>
      <trkpt lat="42.781320000000015" lon="-1.6857330000000028">
        <ele>434.257</ele>
        <time>2022-08-25T07:50:48Z</time>
      </trkpt>
      <trkpt lat="42.78126500000001" lon="-1.6856730000000029">
        <ele>434.293</ele>
        <time>2022-08-25T07:50:50Z</time>
      </trkpt>
      <trkpt lat="42.781239000000014" lon="-1.6856520000000028">
        <ele>434.284</ele>
        <time>2022-08-25T07:50:51Z</time>
      </trkpt>
      <trkpt lat="42.78121500000001" lon="-1.6856450000000027">
        <ele>434.274</ele>
        <time>2022-08-25T07:50:52Z</time>
      </trkpt>
      <trkpt lat="42.78119100000001" lon="-1.6856580000000028">
        <ele>434.256</ele>
        <time>2022-08-25T07:50:53Z</time>
      </trkpt>
      <trkpt lat="42.781167" lon="-1.6856780000000027">
        <ele>434.021</ele>
        <time>2022-08-25T07:50:54Z</time>
      </trkpt>
      <trkpt lat="42.78110100000001" lon="-1.6857350000000026">
        <ele>433.809</ele>
        <time>2022-08-25T07:50:56Z</time>
      </trkpt>
      <trkpt lat="42.78107500000001" lon="-1.6857680000000026">
        <ele>433.888</ele>
        <time>2022-08-25T07:50:57Z</time>
      </trkpt>
      <trkpt lat="42.78096500000001" lon="-1.6859490000000026">
        <ele>433.618</ele>
        <time>2022-08-25T07:51:02Z</time>
      </trkpt>
      <trkpt lat="42.780896000000006" lon="-1.6861030000000026">
        <ele>433.858</ele>
        <time>2022-08-25T07:51:06Z</time>
      </trkpt>
      <trkpt lat="42.78088" lon="-1.6861420000000025">
        <ele>433.814</ele>
        <time>2022-08-25T07:51:07Z</time>
      </trkpt>
      <trkpt lat="42.780866" lon="-1.6861800000000025">
        <ele>433.836</ele>
        <time>2022-08-25T07:51:08Z</time>
      </trkpt>
      <trkpt lat="42.780851000000006" lon="-1.6862130000000024">
        <ele>434.013</ele>
        <time>2022-08-25T07:51:09Z</time>
      </trkpt>
      <trkpt lat="42.780838" lon="-1.6862410000000023">
        <ele>434.046</ele>
        <time>2022-08-25T07:51:10Z</time>
      </trkpt>
      <trkpt lat="42.780828" lon="-1.6862680000000023">
        <ele>434.092</ele>
        <time>2022-08-25T07:51:11Z</time>
      </trkpt>
      <trkpt lat="42.780805" lon="-1.6863760000000023">
        <ele>434.253</ele>
        <time>2022-08-25T07:51:14Z</time>
      </trkpt>
      <trkpt lat="42.780792" lon="-1.6864870000000023">
        <ele>434.456</ele>
        <time>2022-08-25T07:51:17Z</time>
      </trkpt>
      <trkpt lat="42.780747999999996" lon="-1.6865620000000023">
        <ele>434.459</ele>
        <time>2022-08-25T07:51:19Z</time>
      </trkpt>
      <trkpt lat="42.780722" lon="-1.6865810000000023">
        <ele>434.414</ele>
        <time>2022-08-25T07:51:20Z</time>
      </trkpt>
      <trkpt lat="42.780701" lon="-1.6865870000000023">
        <ele>434.409</ele>
        <time>2022-08-25T07:51:21Z</time>
      </trkpt>
      <trkpt lat="42.780642" lon="-1.6865580000000022">
        <ele>434.666</ele>
        <time>2022-08-25T07:51:23Z</time>
      </trkpt>
      <trkpt lat="42.780598" lon="-1.6865080000000021">
        <ele>434.876</ele>
        <time>2022-08-25T07:51:25Z</time>
      </trkpt>
      <trkpt lat="42.780581" lon="-1.686482000000002">
        <ele>434.856</ele>
        <time>2022-08-25T07:51:26Z</time>
      </trkpt>
      <trkpt lat="42.780529" lon="-1.686429000000002">
        <ele>435.052</ele>
        <time>2022-08-25T07:51:28Z</time>
      </trkpt>
      <trkpt lat="42.780445" lon="-1.6863870000000019">
        <ele>435.034</ele>
        <time>2022-08-25T07:51:31Z</time>
      </trkpt>
      <trkpt lat="42.7803" lon="-1.686311000000002">
        <ele>435.051</ele>
        <time>2022-08-25T07:51:35Z</time>
      </trkpt>
      <trkpt lat="42.780260999999996" lon="-1.686297000000002">
        <ele>435.254</ele>
        <time>2022-08-25T07:51:36Z</time>
      </trkpt>
      <trkpt lat="42.78021699999999" lon="-1.686280000000002">
        <ele>435.240</ele>
        <time>2022-08-25T07:51:37Z</time>
      </trkpt>
      <trkpt lat="42.780176999999995" lon="-1.686264000000002">
        <ele>435.261</ele>
        <time>2022-08-25T07:51:38Z</time>
      </trkpt>
      <trkpt lat="42.780139999999996" lon="-1.686251000000002">
        <ele>435.253</ele>
        <time>2022-08-25T07:51:39Z</time>
      </trkpt>
      <trkpt lat="42.780114" lon="-1.686240000000002">
        <ele>435.204</ele>
        <time>2022-08-25T07:51:40Z</time>
      </trkpt>
      <trkpt lat="42.780082" lon="-1.6862250000000019">
        <ele>435.214</ele>
        <time>2022-08-25T07:51:41Z</time>
      </trkpt>
      <trkpt lat="42.780007" lon="-1.686192000000002">
        <ele>435.209</ele>
        <time>2022-08-25T07:51:43Z</time>
      </trkpt>
      <trkpt lat="42.779948" lon="-1.686192000000002">
        <ele>435.416</ele>
        <time>2022-08-25T07:51:45Z</time>
      </trkpt>
      <trkpt lat="42.779914999999995" lon="-1.686215000000002">
        <ele>435.496</ele>
        <time>2022-08-25T07:51:46Z</time>
      </trkpt>
      <trkpt lat="42.779892999999994" lon="-1.686244000000002">
        <ele>435.486</ele>
        <time>2022-08-25T07:51:47Z</time>
      </trkpt>
      <trkpt lat="42.77987099999999" lon="-1.686272000000002">
        <ele>435.462</ele>
        <time>2022-08-25T07:51:48Z</time>
      </trkpt>
      <trkpt lat="42.779852999999996" lon="-1.686294000000002">
        <ele>435.654</ele>
        <time>2022-08-25T07:51:49Z</time>
      </trkpt>
      <trkpt lat="42.779762" lon="-1.686423000000002">
        <ele>435.821</ele>
        <time>2022-08-25T07:51:53Z</time>
      </trkpt>
      <trkpt lat="42.779699" lon="-1.686507000000002">
        <ele>436.234</ele>
        <time>2022-08-25T07:51:56Z</time>
      </trkpt>
      <trkpt lat="42.779629" lon="-1.6866350000000019">
        <ele>436.840</ele>
        <time>2022-08-25T07:52:00Z</time>
      </trkpt>
      <trkpt lat="42.779598" lon="-1.6866680000000018">
        <ele>437.051</ele>
        <time>2022-08-25T07:52:01Z</time>
      </trkpt>
      <trkpt lat="42.779572" lon="-1.686694000000002">
        <ele>437.028</ele>
        <time>2022-08-25T07:52:02Z</time>
      </trkpt>
      <trkpt lat="42.779549" lon="-1.6867190000000019">
        <ele>437.089</ele>
        <time>2022-08-25T07:52:03Z</time>
      </trkpt>
      <trkpt lat="42.779418" lon="-1.686888000000002">
        <ele>437.817</ele>
        <time>2022-08-25T07:52:09Z</time>
      </trkpt>
      <trkpt lat="42.779391" lon="-1.686922000000002">
        <ele>438.009</ele>
        <time>2022-08-25T07:52:10Z</time>
      </trkpt>
      <trkpt lat="42.779368999999996" lon="-1.686949000000002">
        <ele>438.023</ele>
        <time>2022-08-25T07:52:11Z</time>
      </trkpt>
      <trkpt lat="42.779346999999994" lon="-1.686976000000002">
        <ele>438.233</ele>
        <time>2022-08-25T07:52:12Z</time>
      </trkpt>
      <trkpt lat="42.779329999999995" lon="-1.686998000000002">
        <ele>438.243</ele>
        <time>2022-08-25T07:52:13Z</time>
      </trkpt>
      <trkpt lat="42.779309999999995" lon="-1.687027000000002">
        <ele>438.439</ele>
        <time>2022-08-25T07:52:14Z</time>
      </trkpt>
      <trkpt lat="42.779281" lon="-1.6870640000000021">
        <ele>438.411</ele>
        <time>2022-08-25T07:52:15Z</time>
      </trkpt>
      <trkpt lat="42.779258" lon="-1.6870900000000022">
        <ele>438.458</ele>
        <time>2022-08-25T07:52:16Z</time>
      </trkpt>
      <trkpt lat="42.779237" lon="-1.6871180000000021">
        <ele>438.691</ele>
        <time>2022-08-25T07:52:17Z</time>
      </trkpt>
      <trkpt lat="42.779221" lon="-1.687140000000002">
        <ele>439.057</ele>
        <time>2022-08-25T07:52:18Z</time>
      </trkpt>
      <trkpt lat="42.779196999999996" lon="-1.687168000000002">
        <ele>439.028</ele>
        <time>2022-08-25T07:52:19Z</time>
      </trkpt>
      <trkpt lat="42.779168999999996" lon="-1.687201000000002">
        <ele>439.226</ele>
        <time>2022-08-25T07:52:20Z</time>
      </trkpt>
      <trkpt lat="42.779146" lon="-1.6872290000000019">
        <ele>439.247</ele>
        <time>2022-08-25T07:52:21Z</time>
      </trkpt>
      <trkpt lat="42.779129" lon="-1.687250000000002">
        <ele>439.211</ele>
        <time>2022-08-25T07:52:22Z</time>
      </trkpt>
      <trkpt lat="42.779108" lon="-1.687276000000002">
        <ele>439.409</ele>
        <time>2022-08-25T07:52:23Z</time>
      </trkpt>
      <trkpt lat="42.779082" lon="-1.687309000000002">
        <ele>439.413</ele>
        <time>2022-08-25T07:52:24Z</time>
      </trkpt>
      <trkpt lat="42.779061000000006" lon="-1.687336000000002">
        <ele>439.623</ele>
        <time>2022-08-25T07:52:25Z</time>
      </trkpt>
      <trkpt lat="42.77903800000001" lon="-1.687366000000002">
        <ele>439.623</ele>
        <time>2022-08-25T07:52:26Z</time>
      </trkpt>
      <trkpt lat="42.77902100000001" lon="-1.687389000000002">
        <ele>439.699</ele>
        <time>2022-08-25T07:52:27Z</time>
      </trkpt>
      <trkpt lat="42.77900000000001" lon="-1.687415000000002">
        <ele>439.831</ele>
        <time>2022-08-25T07:52:28Z</time>
      </trkpt>
      <trkpt lat="42.77897100000001" lon="-1.687446000000002">
        <ele>439.898</ele>
        <time>2022-08-25T07:52:29Z</time>
      </trkpt>
      <trkpt lat="42.778948000000014" lon="-1.687470000000002">
        <ele>439.871</ele>
        <time>2022-08-25T07:52:30Z</time>
      </trkpt>
      <trkpt lat="42.77892400000001" lon="-1.687496000000002">
        <ele>440.037</ele>
        <time>2022-08-25T07:52:31Z</time>
      </trkpt>
      <trkpt lat="42.77890400000001" lon="-1.6875140000000022">
        <ele>440.028</ele>
        <time>2022-08-25T07:52:32Z</time>
      </trkpt>
      <trkpt lat="42.77888000000001" lon="-1.6875380000000022">
        <ele>440.067</ele>
        <time>2022-08-25T07:52:33Z</time>
      </trkpt>
      <trkpt lat="42.77885200000001" lon="-1.6875680000000022">
        <ele>440.281</ele>
        <time>2022-08-25T07:52:34Z</time>
      </trkpt>
      <trkpt lat="42.77883100000001" lon="-1.6875950000000022">
        <ele>440.219</ele>
        <time>2022-08-25T07:52:35Z</time>
      </trkpt>
      <trkpt lat="42.77880700000001" lon="-1.687623000000002">
        <ele>440.209</ele>
        <time>2022-08-25T07:52:36Z</time>
      </trkpt>
      <trkpt lat="42.77875800000001" lon="-1.6876790000000021">
        <ele>440.477</ele>
        <time>2022-08-25T07:52:38Z</time>
      </trkpt>
      <trkpt lat="42.77873500000001" lon="-1.6877030000000022">
        <ele>440.447</ele>
        <time>2022-08-25T07:52:39Z</time>
      </trkpt>
      <trkpt lat="42.77870800000001" lon="-1.6877260000000023">
        <ele>440.427</ele>
        <time>2022-08-25T07:52:40Z</time>
      </trkpt>
      <trkpt lat="42.77869100000001" lon="-1.6877440000000024">
        <ele>440.663</ele>
        <time>2022-08-25T07:52:41Z</time>
      </trkpt>
      <trkpt lat="42.77866900000001" lon="-1.6877650000000024">
        <ele>440.645</ele>
        <time>2022-08-25T07:52:42Z</time>
      </trkpt>
      <trkpt lat="42.77864000000001" lon="-1.6877930000000023">
        <ele>440.652</ele>
        <time>2022-08-25T07:52:43Z</time>
      </trkpt>
      <trkpt lat="42.77862000000001" lon="-1.6878210000000022">
        <ele>440.825</ele>
        <time>2022-08-25T07:52:44Z</time>
      </trkpt>
      <trkpt lat="42.77858200000001" lon="-1.6878720000000023">
        <ele>441.221</ele>
        <time>2022-08-25T07:52:46Z</time>
      </trkpt>
      <trkpt lat="42.77852300000001" lon="-1.6879530000000023">
        <ele>441.292</ele>
        <time>2022-08-25T07:52:49Z</time>
      </trkpt>
      <trkpt lat="42.77845500000001" lon="-1.6880300000000024">
        <ele>441.444</ele>
        <time>2022-08-25T07:52:52Z</time>
      </trkpt>
      <trkpt lat="42.77843000000001" lon="-1.6880570000000024">
        <ele>441.405</ele>
        <time>2022-08-25T07:52:53Z</time>
      </trkpt>
      <trkpt lat="42.77825200000001" lon="-1.6882420000000025">
        <ele>441.415</ele>
        <time>2022-08-25T07:53:00Z</time>
      </trkpt>
      <trkpt lat="42.778228000000006" lon="-1.6882660000000025">
        <ele>441.409</ele>
        <time>2022-08-25T07:53:01Z</time>
      </trkpt>
      <trkpt lat="42.778200000000005" lon="-1.6882950000000025">
        <ele>441.455</ele>
        <time>2022-08-25T07:53:02Z</time>
      </trkpt>
      <trkpt lat="42.77817700000001" lon="-1.6883190000000026">
        <ele>441.455</ele>
        <time>2022-08-25T07:53:03Z</time>
      </trkpt>
      <trkpt lat="42.77815400000001" lon="-1.6883440000000025">
        <ele>441.665</ele>
        <time>2022-08-25T07:53:04Z</time>
      </trkpt>
      <trkpt lat="42.77813600000001" lon="-1.6883650000000026">
        <ele>441.611</ele>
        <time>2022-08-25T07:53:05Z</time>
      </trkpt>
      <trkpt lat="42.77807100000001" lon="-1.6884650000000025">
        <ele>441.643</ele>
        <time>2022-08-25T07:53:08Z</time>
      </trkpt>
      <trkpt lat="42.77801000000001" lon="-1.6887150000000026">
        <ele>441.830</ele>
        <time>2022-08-25T07:53:14Z</time>
      </trkpt>
      <trkpt lat="42.77801300000001" lon="-1.6887680000000027">
        <ele>441.863</ele>
        <time>2022-08-25T07:53:15Z</time>
      </trkpt>
      <trkpt lat="42.778020000000005" lon="-1.6888310000000026">
        <ele>441.839</ele>
        <time>2022-08-25T07:53:16Z</time>
      </trkpt>
      <trkpt lat="42.77803600000001" lon="-1.6889370000000026">
        <ele>441.850</ele>
        <time>2022-08-25T07:53:18Z</time>
      </trkpt>
      <trkpt lat="42.77805300000001" lon="-1.6890400000000025">
        <ele>441.871</ele>
        <time>2022-08-25T07:53:20Z</time>
      </trkpt>
      <trkpt lat="42.77805500000001" lon="-1.6890900000000026">
        <ele>441.841</ele>
        <time>2022-08-25T07:53:21Z</time>
      </trkpt>
      <trkpt lat="42.778059000000006" lon="-1.6891400000000028">
        <ele>441.815</ele>
        <time>2022-08-25T07:53:22Z</time>
      </trkpt>
      <trkpt lat="42.778063" lon="-1.6891790000000027">
        <ele>441.609</ele>
        <time>2022-08-25T07:53:23Z</time>
      </trkpt>
      <trkpt lat="42.778069" lon="-1.6892270000000027">
        <ele>441.658</ele>
        <time>2022-08-25T07:53:24Z</time>
      </trkpt>
      <trkpt lat="42.778078" lon="-1.6892830000000028">
        <ele>441.688</ele>
        <time>2022-08-25T07:53:25Z</time>
      </trkpt>
      <trkpt lat="42.778087" lon="-1.6893290000000027">
        <ele>441.618</ele>
        <time>2022-08-25T07:53:26Z</time>
      </trkpt>
      <trkpt lat="42.778093999999996" lon="-1.6893750000000027">
        <ele>441.664</ele>
        <time>2022-08-25T07:53:27Z</time>
      </trkpt>
      <trkpt lat="42.778099999999995" lon="-1.6894110000000027">
        <ele>441.486</ele>
        <time>2022-08-25T07:53:28Z</time>
      </trkpt>
      <trkpt lat="42.77810899999999" lon="-1.6894530000000028">
        <ele>441.463</ele>
        <time>2022-08-25T07:53:29Z</time>
      </trkpt>
      <trkpt lat="42.77811799999999" lon="-1.6894980000000028">
        <ele>441.416</ele>
        <time>2022-08-25T07:53:30Z</time>
      </trkpt>
      <trkpt lat="42.77812199999999" lon="-1.6895290000000027">
        <ele>441.262</ele>
        <time>2022-08-25T07:53:31Z</time>
      </trkpt>
      <trkpt lat="42.77812399999999" lon="-1.6895530000000027">
        <ele>441.233</ele>
        <time>2022-08-25T07:53:32Z</time>
      </trkpt>
      <trkpt lat="42.77812699999999" lon="-1.6895830000000027">
        <ele>441.269</ele>
        <time>2022-08-25T07:53:33Z</time>
      </trkpt>
      <trkpt lat="42.77812999999999" lon="-1.6896210000000027">
        <ele>441.204</ele>
        <time>2022-08-25T07:53:34Z</time>
      </trkpt>
      <trkpt lat="42.77813199999999" lon="-1.6897980000000028">
        <ele>441.224</ele>
        <time>2022-08-25T07:53:39Z</time>
      </trkpt>
      <trkpt lat="42.77811299999999" lon="-1.6898270000000029">
        <ele>441.209</ele>
        <time>2022-08-25T07:53:40Z</time>
      </trkpt>
      <trkpt lat="42.77803699999999" lon="-1.6898760000000028">
        <ele>441.297</ele>
        <time>2022-08-25T07:53:43Z</time>
      </trkpt>
      <trkpt lat="42.77800099999999" lon="-1.6898930000000028">
        <ele>441.427</ele>
        <time>2022-08-25T07:53:44Z</time>
      </trkpt>
      <trkpt lat="42.77794399999999" lon="-1.6899180000000027">
        <ele>441.667</ele>
        <time>2022-08-25T07:53:46Z</time>
      </trkpt>
      <trkpt lat="42.77787599999999" lon="-1.6899610000000027">
        <ele>441.683</ele>
        <time>2022-08-25T07:53:48Z</time>
      </trkpt>
      <trkpt lat="42.777815999999994" lon="-1.6899950000000028">
        <ele>441.455</ele>
        <time>2022-08-25T07:53:50Z</time>
      </trkpt>
      <trkpt lat="42.77779199999999" lon="-1.6900060000000028">
        <ele>441.662</ele>
        <time>2022-08-25T07:53:51Z</time>
      </trkpt>
      <trkpt lat="42.77776199999999" lon="-1.6900180000000027">
        <ele>441.615</ele>
        <time>2022-08-25T07:53:52Z</time>
      </trkpt>
      <trkpt lat="42.77773299999999" lon="-1.6900300000000026">
        <ele>441.871</ele>
        <time>2022-08-25T07:53:53Z</time>
      </trkpt>
      <trkpt lat="42.77761099999999" lon="-1.6900970000000026">
        <ele>441.872</ele>
        <time>2022-08-25T07:53:57Z</time>
      </trkpt>
      <trkpt lat="42.777544999999996" lon="-1.6901310000000027">
        <ele>441.842</ele>
        <time>2022-08-25T07:53:59Z</time>
      </trkpt>
      <trkpt lat="42.777452999999994" lon="-1.6901740000000027">
        <ele>442.222</ele>
        <time>2022-08-25T07:54:02Z</time>
      </trkpt>
      <trkpt lat="42.77742299999999" lon="-1.6901910000000027">
        <ele>442.214</ele>
        <time>2022-08-25T07:54:03Z</time>
      </trkpt>
      <trkpt lat="42.77739299999999" lon="-1.6902060000000028">
        <ele>442.209</ele>
        <time>2022-08-25T07:54:04Z</time>
      </trkpt>
      <trkpt lat="42.77737099999999" lon="-1.6902170000000027">
        <ele>442.295</ele>
        <time>2022-08-25T07:54:05Z</time>
      </trkpt>
      <trkpt lat="42.77734499999999" lon="-1.6902310000000027">
        <ele>442.475</ele>
        <time>2022-08-25T07:54:06Z</time>
      </trkpt>
      <trkpt lat="42.77731699999999" lon="-1.6902460000000028">
        <ele>442.665</ele>
        <time>2022-08-25T07:54:07Z</time>
      </trkpt>
      <trkpt lat="42.77728499999999" lon="-1.6902650000000028">
        <ele>442.671</ele>
        <time>2022-08-25T07:54:08Z</time>
      </trkpt>
      <trkpt lat="42.77725999999999" lon="-1.690280000000003">
        <ele>442.823</ele>
        <time>2022-08-25T07:54:09Z</time>
      </trkpt>
      <trkpt lat="42.777238999999994" lon="-1.6902910000000029">
        <ele>442.820</ele>
        <time>2022-08-25T07:54:10Z</time>
      </trkpt>
      <trkpt lat="42.77721199999999" lon="-1.6903050000000028">
        <ele>443.083</ele>
        <time>2022-08-25T07:54:11Z</time>
      </trkpt>
      <trkpt lat="42.77705799999999" lon="-1.6903790000000027">
        <ele>443.269</ele>
        <time>2022-08-25T07:54:16Z</time>
      </trkpt>
      <trkpt lat="42.77703299999999" lon="-1.6903910000000026">
        <ele>443.270</ele>
        <time>2022-08-25T07:54:17Z</time>
      </trkpt>
      <trkpt lat="42.77693699999999" lon="-1.6904380000000025">
        <ele>443.688</ele>
        <time>2022-08-25T07:54:20Z</time>
      </trkpt>
      <trkpt lat="42.77684299999999" lon="-1.6904820000000025">
        <ele>444.024</ele>
        <time>2022-08-25T07:54:23Z</time>
      </trkpt>
      <trkpt lat="42.77681199999999" lon="-1.6904990000000024">
        <ele>444.226</ele>
        <time>2022-08-25T07:54:24Z</time>
      </trkpt>
      <trkpt lat="42.77674199999999" lon="-1.6905330000000025">
        <ele>444.409</ele>
        <time>2022-08-25T07:54:26Z</time>
      </trkpt>
      <trkpt lat="42.77671199999999" lon="-1.6905470000000025">
        <ele>444.479</ele>
        <time>2022-08-25T07:54:27Z</time>
      </trkpt>
      <trkpt lat="42.77668099999999" lon="-1.6905610000000024">
        <ele>444.689</ele>
        <time>2022-08-25T07:54:28Z</time>
      </trkpt>
      <trkpt lat="42.77645299999999" lon="-1.6906620000000023">
        <ele>445.259</ele>
        <time>2022-08-25T07:54:35Z</time>
      </trkpt>
      <trkpt lat="42.77642099999999" lon="-1.6906780000000023">
        <ele>445.425</ele>
        <time>2022-08-25T07:54:36Z</time>
      </trkpt>
      <trkpt lat="42.77638499999999" lon="-1.6906980000000023">
        <ele>445.657</ele>
        <time>2022-08-25T07:54:37Z</time>
      </trkpt>
      <trkpt lat="42.77636099999999" lon="-1.6907120000000022">
        <ele>445.684</ele>
        <time>2022-08-25T07:54:38Z</time>
      </trkpt>
      <trkpt lat="42.776260999999984" lon="-1.6907680000000023">
        <ele>446.027</ele>
        <time>2022-08-25T07:54:41Z</time>
      </trkpt>
      <trkpt lat="42.776229999999984" lon="-1.6907850000000022">
        <ele>446.073</ele>
        <time>2022-08-25T07:54:42Z</time>
      </trkpt>
      <trkpt lat="42.77620499999998" lon="-1.6907980000000022">
        <ele>446.274</ele>
        <time>2022-08-25T07:54:43Z</time>
      </trkpt>
      <trkpt lat="42.77617499999998" lon="-1.6908150000000022">
        <ele>446.216</ele>
        <time>2022-08-25T07:54:44Z</time>
      </trkpt>
      <trkpt lat="42.77614699999998" lon="-1.6908290000000021">
        <ele>446.476</ele>
        <time>2022-08-25T07:54:45Z</time>
      </trkpt>
      <trkpt lat="42.77611699999998" lon="-1.690843000000002">
        <ele>446.613</ele>
        <time>2022-08-25T07:54:46Z</time>
      </trkpt>
      <trkpt lat="42.77609699999998" lon="-1.6908500000000022">
        <ele>446.809</ele>
        <time>2022-08-25T07:54:47Z</time>
      </trkpt>
      <trkpt lat="42.77607099999998" lon="-1.6908610000000022">
        <ele>446.842</ele>
        <time>2022-08-25T07:54:48Z</time>
      </trkpt>
      <trkpt lat="42.77604399999998" lon="-1.6908740000000022">
        <ele>447.062</ele>
        <time>2022-08-25T07:54:49Z</time>
      </trkpt>
      <trkpt lat="42.77602099999998" lon="-1.6908840000000023">
        <ele>447.252</ele>
        <time>2022-08-25T07:54:50Z</time>
      </trkpt>
      <trkpt lat="42.77599799999998" lon="-1.6908950000000023">
        <ele>447.228</ele>
        <time>2022-08-25T07:54:51Z</time>
      </trkpt>
      <trkpt lat="42.77598099999998" lon="-1.6909030000000023">
        <ele>447.460</ele>
        <time>2022-08-25T07:54:52Z</time>
      </trkpt>
      <trkpt lat="42.77595899999998" lon="-1.6909120000000022">
        <ele>447.637</ele>
        <time>2022-08-25T07:54:53Z</time>
      </trkpt>
      <trkpt lat="42.77593399999998" lon="-1.6909220000000023">
        <ele>447.670</ele>
        <time>2022-08-25T07:54:54Z</time>
      </trkpt>
      <trkpt lat="42.77591299999998" lon="-1.6909340000000022">
        <ele>448.046</ele>
        <time>2022-08-25T07:54:55Z</time>
      </trkpt>
      <trkpt lat="42.77588999999998" lon="-1.6909500000000022">
        <ele>448.087</ele>
        <time>2022-08-25T07:54:56Z</time>
      </trkpt>
      <trkpt lat="42.775874999999985" lon="-1.690962000000002">
        <ele>448.215</ele>
        <time>2022-08-25T07:54:57Z</time>
      </trkpt>
      <trkpt lat="42.77585699999999" lon="-1.690978000000002">
        <ele>448.265</ele>
        <time>2022-08-25T07:54:58Z</time>
      </trkpt>
      <trkpt lat="42.77583699999999" lon="-1.690992000000002">
        <ele>448.611</ele>
        <time>2022-08-25T07:54:59Z</time>
      </trkpt>
      <trkpt lat="42.775820999999986" lon="-1.690996000000002">
        <ele>448.809</ele>
        <time>2022-08-25T07:55:00Z</time>
      </trkpt>
      <trkpt lat="42.77580599999999" lon="-1.690999000000002">
        <ele>449.232</ele>
        <time>2022-08-25T07:55:01Z</time>
      </trkpt>
      <trkpt lat="42.775789999999986" lon="-1.6910050000000019">
        <ele>449.412</ele>
        <time>2022-08-25T07:55:02Z</time>
      </trkpt>
      <trkpt lat="42.77577199999999" lon="-1.6910160000000019">
        <ele>449.652</ele>
        <time>2022-08-25T07:55:03Z</time>
      </trkpt>
      <trkpt lat="42.77574099999999" lon="-1.6910280000000018">
        <ele>449.848</ele>
        <time>2022-08-25T07:55:04Z</time>
      </trkpt>
      <trkpt lat="42.77574099999999" lon="-1.6910280000000018">
        <ele>449.830</ele>
        <time>2022-08-25T07:55:05Z</time>
      </trkpt>
      <trkpt lat="42.77572999999999" lon="-1.6910310000000017">
        <ele>450.087</ele>
        <time>2022-08-25T07:55:06Z</time>
      </trkpt>
      <trkpt lat="42.77571599999999" lon="-1.6910340000000017">
        <ele>450.080</ele>
        <time>2022-08-25T07:55:07Z</time>
      </trkpt>
      <trkpt lat="42.775699999999986" lon="-1.6910380000000016">
        <ele>450.276</ele>
        <time>2022-08-25T07:55:08Z</time>
      </trkpt>
      <trkpt lat="42.775686999999984" lon="-1.6910430000000016">
        <ele>450.457</ele>
        <time>2022-08-25T07:55:09Z</time>
      </trkpt>
      <trkpt lat="42.77567299999998" lon="-1.6910500000000017">
        <ele>450.448</ele>
        <time>2022-08-25T07:55:10Z</time>
      </trkpt>
      <trkpt lat="42.77566199999998" lon="-1.6910580000000017">
        <ele>450.861</ele>
        <time>2022-08-25T07:55:11Z</time>
      </trkpt>
      <trkpt lat="42.77563099999998" lon="-1.6910700000000016">
        <ele>451.017</ele>
        <time>2022-08-25T07:55:12Z</time>
      </trkpt>
      <trkpt lat="42.77561799999998" lon="-1.6910760000000016">
        <ele>451.409</ele>
        <time>2022-08-25T07:55:13Z</time>
      </trkpt>
      <trkpt lat="42.77561799999998" lon="-1.6910760000000016">
        <ele>451.685</ele>
        <time>2022-08-25T07:55:14Z</time>
      </trkpt>
      <trkpt lat="42.77560799999998" lon="-1.6910820000000015">
        <ele>451.825</ele>
        <time>2022-08-25T07:55:15Z</time>
      </trkpt>
      <trkpt lat="42.775594999999974" lon="-1.6910900000000015">
        <ele>452.245</ele>
        <time>2022-08-25T07:55:16Z</time>
      </trkpt>
      <trkpt lat="42.77557999999998" lon="-1.6910980000000015">
        <ele>452.431</ele>
        <time>2022-08-25T07:55:17Z</time>
      </trkpt>
      <trkpt lat="42.77556999999997" lon="-1.6911010000000015">
        <ele>452.643</ele>
        <time>2022-08-25T07:55:18Z</time>
      </trkpt>
      <trkpt lat="42.775552999999974" lon="-1.6911090000000015">
        <ele>452.690</ele>
        <time>2022-08-25T07:55:19Z</time>
      </trkpt>
      <trkpt lat="42.775529999999975" lon="-1.6911180000000015">
        <ele>453.013</ele>
        <time>2022-08-25T07:55:20Z</time>
      </trkpt>
      <trkpt lat="42.77551699999997" lon="-1.6911280000000015">
        <ele>453.239</ele>
        <time>2022-08-25T07:55:21Z</time>
      </trkpt>
      <trkpt lat="42.77551699999997" lon="-1.6911280000000015">
        <ele>453.680</ele>
        <time>2022-08-25T07:55:22Z</time>
      </trkpt>
      <trkpt lat="42.77549399999997" lon="-1.6911450000000015">
        <ele>453.887</ele>
        <time>2022-08-25T07:55:23Z</time>
      </trkpt>
      <trkpt lat="42.77548299999997" lon="-1.6911480000000014">
        <ele>454.042</ele>
        <time>2022-08-25T07:55:24Z</time>
      </trkpt>
      <trkpt lat="42.77548299999997" lon="-1.6911480000000014">
        <ele>454.226</ele>
        <time>2022-08-25T07:55:25Z</time>
      </trkpt>
      <trkpt lat="42.77545899999997" lon="-1.6911560000000014">
        <ele>454.409</ele>
        <time>2022-08-25T07:55:26Z</time>
      </trkpt>
      <trkpt lat="42.77544799999997" lon="-1.6911660000000015">
        <ele>454.619</ele>
        <time>2022-08-25T07:55:27Z</time>
      </trkpt>
      <trkpt lat="42.77544799999997" lon="-1.6911660000000015">
        <ele>454.869</ele>
        <time>2022-08-25T07:55:28Z</time>
      </trkpt>
      <trkpt lat="42.77543399999997" lon="-1.6911860000000014">
        <ele>455.239</ele>
        <time>2022-08-25T07:55:29Z</time>
      </trkpt>
      <trkpt lat="42.77542699999997" lon="-1.6912010000000015">
        <ele>455.685</ele>
        <time>2022-08-25T07:55:30Z</time>
      </trkpt>
      <trkpt lat="42.77542199999997" lon="-1.6912160000000016">
        <ele>455.857</ele>
        <time>2022-08-25T07:55:31Z</time>
      </trkpt>
      <trkpt lat="42.77542199999997" lon="-1.6912160000000016">
        <ele>456.044</ele>
        <time>2022-08-25T07:55:32Z</time>
      </trkpt>
      <trkpt lat="42.77541099999997" lon="-1.6912450000000017">
        <ele>456.477</ele>
        <time>2022-08-25T07:55:33Z</time>
      </trkpt>
      <trkpt lat="42.77539999999997" lon="-1.6912580000000017">
        <ele>456.673</ele>
        <time>2022-08-25T07:55:34Z</time>
      </trkpt>
      <trkpt lat="42.77538599999997" lon="-1.6912710000000017">
        <ele>456.834</ele>
        <time>2022-08-25T07:55:35Z</time>
      </trkpt>
      <trkpt lat="42.77537099999997" lon="-1.6912860000000018">
        <ele>456.863</ele>
        <time>2022-08-25T07:55:36Z</time>
      </trkpt>
      <trkpt lat="42.77536299999997" lon="-1.6913030000000018">
        <ele>457.044</ele>
        <time>2022-08-25T07:55:37Z</time>
      </trkpt>
      <trkpt lat="42.77535699999997" lon="-1.6913140000000018">
        <ele>457.218</ele>
        <time>2022-08-25T07:55:38Z</time>
      </trkpt>
      <trkpt lat="42.77535699999997" lon="-1.6913140000000018">
        <ele>457.209</ele>
        <time>2022-08-25T07:55:39Z</time>
      </trkpt>
      <trkpt lat="42.77534899999997" lon="-1.6913250000000017">
        <ele>457.457</ele>
        <time>2022-08-25T07:55:40Z</time>
      </trkpt>
      <trkpt lat="42.77532199999997" lon="-1.6913450000000017">
        <ele>457.457</ele>
        <time>2022-08-25T07:55:41Z</time>
      </trkpt>
      <trkpt lat="42.77531099999997" lon="-1.6913520000000017">
        <ele>457.437</ele>
        <time>2022-08-25T07:55:42Z</time>
      </trkpt>
      <trkpt lat="42.77530099999996" lon="-1.6913620000000018">
        <ele>457.453</ele>
        <time>2022-08-25T07:55:43Z</time>
      </trkpt>
      <trkpt lat="42.77529099999996" lon="-1.6913740000000017">
        <ele>457.685</ele>
        <time>2022-08-25T07:55:44Z</time>
      </trkpt>
      <trkpt lat="42.77528299999996" lon="-1.6913850000000017">
        <ele>457.662</ele>
        <time>2022-08-25T07:55:45Z</time>
      </trkpt>
      <trkpt lat="42.77526899999996" lon="-1.6913970000000016">
        <ele>457.635</ele>
        <time>2022-08-25T07:55:46Z</time>
      </trkpt>
      <trkpt lat="42.77525999999996" lon="-1.6914040000000017">
        <ele>457.651</ele>
        <time>2022-08-25T07:55:47Z</time>
      </trkpt>
      <trkpt lat="42.77524799999996" lon="-1.6914090000000017">
        <ele>457.672</ele>
        <time>2022-08-25T07:55:48Z</time>
      </trkpt>
      <trkpt lat="42.77523399999996" lon="-1.6914140000000017">
        <ele>457.626</ele>
        <time>2022-08-25T07:55:49Z</time>
      </trkpt>
      <trkpt lat="42.77523399999996" lon="-1.6914140000000017">
        <ele>457.847</ele>
        <time>2022-08-25T07:55:50Z</time>
      </trkpt>
      <trkpt lat="42.77520599999996" lon="-1.6914300000000018">
        <ele>458.011</ele>
        <time>2022-08-25T07:55:51Z</time>
      </trkpt>
      <trkpt lat="42.77519599999996" lon="-1.6914380000000018">
        <ele>458.009</ele>
        <time>2022-08-25T07:55:52Z</time>
      </trkpt>
      <trkpt lat="42.77519599999996" lon="-1.6914380000000018">
        <ele>458.283</ele>
        <time>2022-08-25T07:55:53Z</time>
      </trkpt>
      <trkpt lat="42.77516799999996" lon="-1.6914610000000019">
        <ele>458.443</ele>
        <time>2022-08-25T07:55:54Z</time>
      </trkpt>
      <trkpt lat="42.77514999999996" lon="-1.691471000000002">
        <ele>458.483</ele>
        <time>2022-08-25T07:55:55Z</time>
      </trkpt>
      <trkpt lat="42.77513299999996" lon="-1.691481000000002">
        <ele>458.479</ele>
        <time>2022-08-25T07:55:56Z</time>
      </trkpt>
      <trkpt lat="42.77512199999996" lon="-1.691491000000002">
        <ele>458.471</ele>
        <time>2022-08-25T07:55:57Z</time>
      </trkpt>
      <trkpt lat="42.77510299999996" lon="-1.691503000000002">
        <ele>458.448</ele>
        <time>2022-08-25T07:55:58Z</time>
      </trkpt>
      <trkpt lat="42.77508899999996" lon="-1.6915150000000019">
        <ele>458.421</ele>
        <time>2022-08-25T07:55:59Z</time>
      </trkpt>
      <trkpt lat="42.77508899999996" lon="-1.6915150000000019">
        <ele>458.627</ele>
        <time>2022-08-25T07:56:00Z</time>
      </trkpt>
      <trkpt lat="42.77505199999996" lon="-1.6915460000000018">
        <ele>458.658</ele>
        <time>2022-08-25T07:56:01Z</time>
      </trkpt>
      <trkpt lat="42.77503499999996" lon="-1.6915630000000017">
        <ele>458.672</ele>
        <time>2022-08-25T07:56:02Z</time>
      </trkpt>
      <trkpt lat="42.77503499999996" lon="-1.6915630000000017">
        <ele>458.613</ele>
        <time>2022-08-25T07:56:03Z</time>
      </trkpt>
      <trkpt lat="42.77498699999996" lon="-1.6916160000000018">
        <ele>458.614</ele>
        <time>2022-08-25T07:56:05Z</time>
      </trkpt>
      <trkpt lat="42.77488799999996" lon="-1.6917450000000018">
        <ele>459.009</ele>
        <time>2022-08-25T07:56:11Z</time>
      </trkpt>
      <trkpt lat="42.77479999999996" lon="-1.691868000000002">
        <ele>459.448</ele>
        <time>2022-08-25T07:56:16Z</time>
      </trkpt>
      <trkpt lat="42.77479999999996" lon="-1.691868000000002">
        <ele>459.488</ele>
        <time>2022-08-25T07:56:17Z</time>
      </trkpt>
      <trkpt lat="42.77477499999996" lon="-1.691910000000002">
        <ele>459.468</ele>
        <time>2022-08-25T07:56:18Z</time>
      </trkpt>
      <trkpt lat="42.77477499999996" lon="-1.691910000000002">
        <ele>459.424</ele>
        <time>2022-08-25T07:56:19Z</time>
      </trkpt>
      <trkpt lat="42.77474399999996" lon="-1.6919520000000021">
        <ele>459.476</ele>
        <time>2022-08-25T07:56:20Z</time>
      </trkpt>
      <trkpt lat="42.77474399999996" lon="-1.6919520000000021">
        <ele>459.243</ele>
        <time>2022-08-25T07:56:21Z</time>
      </trkpt>
      <trkpt lat="42.77470499999996" lon="-1.692018000000002">
        <ele>459.686</ele>
        <time>2022-08-25T07:56:23Z</time>
      </trkpt>
      <trkpt lat="42.77469199999996" lon="-1.692039000000002">
        <ele>459.632</ele>
        <time>2022-08-25T07:56:24Z</time>
      </trkpt>
      <trkpt lat="42.77466099999996" lon="-1.6920730000000022">
        <ele>459.863</ele>
        <time>2022-08-25T07:56:26Z</time>
      </trkpt>
      <trkpt lat="42.77464099999996" lon="-1.6920970000000022">
        <ele>459.847</ele>
        <time>2022-08-25T07:56:28Z</time>
      </trkpt>
      <trkpt lat="42.77460799999996" lon="-1.6921290000000022">
        <ele>459.829</ele>
        <time>2022-08-25T07:56:29Z</time>
      </trkpt>
      <trkpt lat="42.774597999999955" lon="-1.6921420000000023">
        <ele>460.221</ele>
        <time>2022-08-25T07:56:30Z</time>
      </trkpt>
      <trkpt lat="42.774597999999955" lon="-1.6921420000000023">
        <ele>460.609</ele>
        <time>2022-08-25T07:56:31Z</time>
      </trkpt>
      <trkpt lat="42.77457099999995" lon="-1.6921690000000023">
        <ele>460.855</ele>
        <time>2022-08-25T07:56:32Z</time>
      </trkpt>
      <trkpt lat="42.774558999999954" lon="-1.6921780000000022">
        <ele>461.015</ele>
        <time>2022-08-25T07:56:33Z</time>
      </trkpt>
      <trkpt lat="42.774546999999956" lon="-1.6921910000000022">
        <ele>461.045</ele>
        <time>2022-08-25T07:56:34Z</time>
      </trkpt>
      <trkpt lat="42.774515999999956" lon="-1.6922250000000023">
        <ele>461.081</ele>
        <time>2022-08-25T07:56:36Z</time>
      </trkpt>
      <trkpt lat="42.77444099999995" lon="-1.6922970000000024">
        <ele>461.263</ele>
        <time>2022-08-25T07:56:40Z</time>
      </trkpt>
      <trkpt lat="42.77434299999995" lon="-1.6923770000000025">
        <ele>461.220</ele>
        <time>2022-08-25T07:56:45Z</time>
      </trkpt>
      <trkpt lat="42.77430999999995" lon="-1.6924300000000025">
        <ele>461.263</ele>
        <time>2022-08-25T07:56:47Z</time>
      </trkpt>
      <trkpt lat="42.77429299999995" lon="-1.6924540000000026">
        <ele>461.249</ele>
        <time>2022-08-25T07:56:48Z</time>
      </trkpt>
      <trkpt lat="42.77424699999995" lon="-1.6925270000000026">
        <ele>461.430</ele>
        <time>2022-08-25T07:56:51Z</time>
      </trkpt>
      <trkpt lat="42.774217999999955" lon="-1.6925740000000025">
        <ele>461.256</ele>
        <time>2022-08-25T07:56:53Z</time>
      </trkpt>
      <trkpt lat="42.77420599999996" lon="-1.6925920000000025">
        <ele>461.459</ele>
        <time>2022-08-25T07:56:55Z</time>
      </trkpt>
      <trkpt lat="42.774158999999955" lon="-1.6926580000000024">
        <ele>461.614</ele>
        <time>2022-08-25T07:56:57Z</time>
      </trkpt>
      <trkpt lat="42.774144999999955" lon="-1.6926790000000025">
        <ele>462.009</ele>
        <time>2022-08-25T07:56:58Z</time>
      </trkpt>
      <trkpt lat="42.77406499999996" lon="-1.6927870000000025">
        <ele>462.646</ele>
        <time>2022-08-25T07:57:03Z</time>
      </trkpt>
      <trkpt lat="42.77404999999996" lon="-1.6928060000000025">
        <ele>462.656</ele>
        <time>2022-08-25T07:57:04Z</time>
      </trkpt>
      <trkpt lat="42.77403199999996" lon="-1.6928280000000024">
        <ele>462.436</ele>
        <time>2022-08-25T07:57:05Z</time>
      </trkpt>
      <trkpt lat="42.774016999999965" lon="-1.6928480000000024">
        <ele>462.682</ele>
        <time>2022-08-25T07:57:06Z</time>
      </trkpt>
      <trkpt lat="42.77398799999997" lon="-1.6928820000000024">
        <ele>462.854</ele>
        <time>2022-08-25T07:57:08Z</time>
      </trkpt>
      <trkpt lat="42.77398799999997" lon="-1.6928820000000024">
        <ele>462.831</ele>
        <time>2022-08-25T07:57:09Z</time>
      </trkpt>
      <trkpt lat="42.77382999999997" lon="-1.6930730000000025">
        <ele>463.264</ele>
        <time>2022-08-25T07:57:16Z</time>
      </trkpt>
      <trkpt lat="42.773813999999966" lon="-1.6930930000000024">
        <ele>463.490</ele>
        <time>2022-08-25T07:57:17Z</time>
      </trkpt>
      <trkpt lat="42.77379399999997" lon="-1.6931160000000025">
        <ele>463.661</ele>
        <time>2022-08-25T07:57:18Z</time>
      </trkpt>
      <trkpt lat="42.773751999999966" lon="-1.6931680000000024">
        <ele>463.865</ele>
        <time>2022-08-25T07:57:20Z</time>
      </trkpt>
      <trkpt lat="42.773715999999965" lon="-1.6932170000000024">
        <ele>464.068</ele>
        <time>2022-08-25T07:57:23Z</time>
      </trkpt>
      <trkpt lat="42.77367999999996" lon="-1.6932650000000025">
        <ele>464.214</ele>
        <time>2022-08-25T07:57:24Z</time>
      </trkpt>
      <trkpt lat="42.773662999999964" lon="-1.6932880000000026">
        <ele>464.409</ele>
        <time>2022-08-25T07:57:25Z</time>
      </trkpt>
      <trkpt lat="42.773647999999966" lon="-1.6933140000000027">
        <ele>464.447</ele>
        <time>2022-08-25T07:57:26Z</time>
      </trkpt>
      <trkpt lat="42.77363299999997" lon="-1.6933320000000027">
        <ele>464.437</ele>
        <time>2022-08-25T07:57:27Z</time>
      </trkpt>
      <trkpt lat="42.77359899999997" lon="-1.6933870000000026">
        <ele>464.627</ele>
        <time>2022-08-25T07:57:29Z</time>
      </trkpt>
      <trkpt lat="42.77358499999997" lon="-1.6934110000000027">
        <ele>464.623</ele>
        <time>2022-08-25T07:57:30Z</time>
      </trkpt>
      <trkpt lat="42.77356799999997" lon="-1.6934340000000028">
        <ele>464.875</ele>
        <time>2022-08-25T07:57:31Z</time>
      </trkpt>
      <trkpt lat="42.77345599999997" lon="-1.6935720000000027">
        <ele>465.612</ele>
        <time>2022-08-25T07:57:37Z</time>
      </trkpt>
      <trkpt lat="42.77345599999997" lon="-1.6935720000000027">
        <ele>465.895</ele>
        <time>2022-08-25T07:57:38Z</time>
      </trkpt>
      <trkpt lat="42.773411999999965" lon="-1.6936230000000028">
        <ele>465.861</ele>
        <time>2022-08-25T07:57:39Z</time>
      </trkpt>
      <trkpt lat="42.77339399999997" lon="-1.6936480000000027">
        <ele>465.892</ele>
        <time>2022-08-25T07:57:40Z</time>
      </trkpt>
      <trkpt lat="42.77339399999997" lon="-1.6936480000000027">
        <ele>465.878</ele>
        <time>2022-08-25T07:57:41Z</time>
      </trkpt>
      <trkpt lat="42.773363999999965" lon="-1.6936900000000028">
        <ele>465.833</ele>
        <time>2022-08-25T07:57:42Z</time>
      </trkpt>
      <trkpt lat="42.773341999999964" lon="-1.6937110000000029">
        <ele>466.026</ele>
        <time>2022-08-25T07:57:43Z</time>
      </trkpt>
      <trkpt lat="42.773327999999964" lon="-1.6937270000000029">
        <ele>466.209</ele>
        <time>2022-08-25T07:57:44Z</time>
      </trkpt>
      <trkpt lat="42.77331199999996" lon="-1.6937470000000028">
        <ele>466.438</ele>
        <time>2022-08-25T07:57:45Z</time>
      </trkpt>
      <trkpt lat="42.773293999999964" lon="-1.6937660000000028">
        <ele>466.888</ele>
        <time>2022-08-25T07:57:46Z</time>
      </trkpt>
      <trkpt lat="42.77327599999997" lon="-1.6937860000000027">
        <ele>466.878</ele>
        <time>2022-08-25T07:57:47Z</time>
      </trkpt>
      <trkpt lat="42.77325899999997" lon="-1.6938040000000028">
        <ele>467.014</ele>
        <time>2022-08-25T07:57:48Z</time>
      </trkpt>
      <trkpt lat="42.773239999999966" lon="-1.6938230000000027">
        <ele>467.036</ele>
        <time>2022-08-25T07:57:49Z</time>
      </trkpt>
      <trkpt lat="42.773220999999964" lon="-1.6938370000000027">
        <ele>467.073</ele>
        <time>2022-08-25T07:57:50Z</time>
      </trkpt>
      <trkpt lat="42.77320299999997" lon="-1.6938520000000028">
        <ele>467.256</ele>
        <time>2022-08-25T07:57:51Z</time>
      </trkpt>
      <trkpt lat="42.77320299999997" lon="-1.6938520000000028">
        <ele>467.462</ele>
        <time>2022-08-25T07:57:52Z</time>
      </trkpt>
      <trkpt lat="42.77316299999997" lon="-1.6938850000000027">
        <ele>467.633</ele>
        <time>2022-08-25T07:57:53Z</time>
      </trkpt>
      <trkpt lat="42.77314599999997" lon="-1.6938970000000027">
        <ele>467.867</ele>
        <time>2022-08-25T07:57:54Z</time>
      </trkpt>
      <trkpt lat="42.77312699999997" lon="-1.6939100000000027">
        <ele>467.881</ele>
        <time>2022-08-25T07:57:55Z</time>
      </trkpt>
      <trkpt lat="42.77310599999997" lon="-1.6939260000000027">
        <ele>468.019</ele>
        <time>2022-08-25T07:57:56Z</time>
      </trkpt>
      <trkpt lat="42.77310599999997" lon="-1.6939260000000027">
        <ele>468.409</ele>
        <time>2022-08-25T07:57:57Z</time>
      </trkpt>
      <trkpt lat="42.77306499999997" lon="-1.6939540000000026">
        <ele>468.677</ele>
        <time>2022-08-25T07:57:58Z</time>
      </trkpt>
      <trkpt lat="42.77304499999997" lon="-1.6939690000000027">
        <ele>468.877</ele>
        <time>2022-08-25T07:57:59Z</time>
      </trkpt>
      <trkpt lat="42.773025999999966" lon="-1.6939830000000027">
        <ele>469.037</ele>
        <time>2022-08-25T07:58:00Z</time>
      </trkpt>
      <trkpt lat="42.773009999999964" lon="-1.6939950000000026">
        <ele>469.223</ele>
        <time>2022-08-25T07:58:01Z</time>
      </trkpt>
      <trkpt lat="42.77299199999997" lon="-1.6940080000000026">
        <ele>469.625</ele>
        <time>2022-08-25T07:58:02Z</time>
      </trkpt>
      <trkpt lat="42.77296799999996" lon="-1.6940210000000027">
        <ele>469.642</ele>
        <time>2022-08-25T07:58:03Z</time>
      </trkpt>
      <trkpt lat="42.77294599999996" lon="-1.6940320000000026">
        <ele>469.855</ele>
        <time>2022-08-25T07:58:04Z</time>
      </trkpt>
      <trkpt lat="42.772927999999965" lon="-1.6940400000000027">
        <ele>470.091</ele>
        <time>2022-08-25T07:58:05Z</time>
      </trkpt>
      <trkpt lat="42.77290599999996" lon="-1.6940530000000027">
        <ele>470.252</ele>
        <time>2022-08-25T07:58:06Z</time>
      </trkpt>
      <trkpt lat="42.77287899999996" lon="-1.6940710000000028">
        <ele>470.467</ele>
        <time>2022-08-25T07:58:07Z</time>
      </trkpt>
      <trkpt lat="42.77285899999996" lon="-1.6940880000000027">
        <ele>470.481</ele>
        <time>2022-08-25T07:58:08Z</time>
      </trkpt>
      <trkpt lat="42.77283599999996" lon="-1.6941020000000027">
        <ele>470.419</ele>
        <time>2022-08-25T07:58:09Z</time>
      </trkpt>
      <trkpt lat="42.77281899999996" lon="-1.6941150000000027">
        <ele>470.609</ele>
        <time>2022-08-25T07:58:10Z</time>
      </trkpt>
      <trkpt lat="42.77279999999996" lon="-1.6941340000000027">
        <ele>470.837</ele>
        <time>2022-08-25T07:58:11Z</time>
      </trkpt>
      <trkpt lat="42.77278399999996" lon="-1.6941550000000027">
        <ele>471.247</ele>
        <time>2022-08-25T07:58:12Z</time>
      </trkpt>
      <trkpt lat="42.77276699999996" lon="-1.6941790000000028">
        <ele>471.287</ele>
        <time>2022-08-25T07:58:13Z</time>
      </trkpt>
      <trkpt lat="42.77275499999996" lon="-1.6942040000000027">
        <ele>471.483</ele>
        <time>2022-08-25T07:58:14Z</time>
      </trkpt>
      <trkpt lat="42.77274499999996" lon="-1.6942280000000027">
        <ele>471.625</ele>
        <time>2022-08-25T07:58:15Z</time>
      </trkpt>
      <trkpt lat="42.77274099999996" lon="-1.6942510000000028">
        <ele>472.042</ele>
        <time>2022-08-25T07:58:16Z</time>
      </trkpt>
      <trkpt lat="42.77273899999996" lon="-1.6942720000000029">
        <ele>472.245</ele>
        <time>2022-08-25T07:58:17Z</time>
      </trkpt>
      <trkpt lat="42.77273899999996" lon="-1.694293000000003">
        <ele>472.481</ele>
        <time>2022-08-25T07:58:18Z</time>
      </trkpt>
      <trkpt lat="42.77273899999996" lon="-1.694293000000003">
        <ele>472.652</ele>
        <time>2022-08-25T07:58:19Z</time>
      </trkpt>
      <trkpt lat="42.772725999999956" lon="-1.694333000000003">
        <ele>472.823</ele>
        <time>2022-08-25T07:58:20Z</time>
      </trkpt>
      <trkpt lat="42.772725999999956" lon="-1.694333000000003">
        <ele>473.083</ele>
        <time>2022-08-25T07:58:21Z</time>
      </trkpt>
      <trkpt lat="42.772706999999954" lon="-1.694368000000003">
        <ele>473.211</ele>
        <time>2022-08-25T07:58:22Z</time>
      </trkpt>
      <trkpt lat="42.772706999999954" lon="-1.694368000000003">
        <ele>473.209</ele>
        <time>2022-08-25T07:58:23Z</time>
      </trkpt>
      <trkpt lat="42.77269199999996" lon="-1.694400000000003">
        <ele>473.273</ele>
        <time>2022-08-25T07:58:24Z</time>
      </trkpt>
      <trkpt lat="42.77268299999996" lon="-1.6944150000000031">
        <ele>473.463</ele>
        <time>2022-08-25T07:58:25Z</time>
      </trkpt>
      <trkpt lat="42.772672999999955" lon="-1.694427000000003">
        <ele>473.453</ele>
        <time>2022-08-25T07:58:26Z</time>
      </trkpt>
      <trkpt lat="42.772661999999954" lon="-1.694437000000003">
        <ele>473.659</ele>
        <time>2022-08-25T07:58:27Z</time>
      </trkpt>
      <trkpt lat="42.772647999999954" lon="-1.6944470000000031">
        <ele>473.671</ele>
        <time>2022-08-25T07:58:28Z</time>
      </trkpt>
      <trkpt lat="42.772635999999956" lon="-1.6944600000000032">
        <ele>473.678</ele>
        <time>2022-08-25T07:58:29Z</time>
      </trkpt>
      <trkpt lat="42.772624999999955" lon="-1.6944740000000031">
        <ele>473.851</ele>
        <time>2022-08-25T07:58:30Z</time>
      </trkpt>
      <trkpt lat="42.772624999999955" lon="-1.6944740000000031">
        <ele>473.847</ele>
        <time>2022-08-25T07:58:31Z</time>
      </trkpt>
      <trkpt lat="42.77260399999996" lon="-1.694505000000003">
        <ele>473.898</ele>
        <time>2022-08-25T07:58:32Z</time>
      </trkpt>
      <trkpt lat="42.77259499999996" lon="-1.694519000000003">
        <ele>474.085</ele>
        <time>2022-08-25T07:58:33Z</time>
      </trkpt>
      <trkpt lat="42.77258599999996" lon="-1.694531000000003">
        <ele>474.089</ele>
        <time>2022-08-25T07:58:34Z</time>
      </trkpt>
      <trkpt lat="42.77257699999996" lon="-1.6945450000000029">
        <ele>474.017</ele>
        <time>2022-08-25T07:58:35Z</time>
      </trkpt>
      <trkpt lat="42.77256699999996" lon="-1.6945610000000029">
        <ele>474.209</ele>
        <time>2022-08-25T07:58:36Z</time>
      </trkpt>
      <trkpt lat="42.772556999999956" lon="-1.694574000000003">
        <ele>474.429</ele>
        <time>2022-08-25T07:58:37Z</time>
      </trkpt>
      <trkpt lat="42.772545999999956" lon="-1.6945860000000028">
        <ele>474.479</ele>
        <time>2022-08-25T07:58:38Z</time>
      </trkpt>
      <trkpt lat="42.772534999999955" lon="-1.6945980000000027">
        <ele>474.629</ele>
        <time>2022-08-25T07:58:39Z</time>
      </trkpt>
      <trkpt lat="42.77252499999995" lon="-1.6946100000000026">
        <ele>474.835</ele>
        <time>2022-08-25T07:58:40Z</time>
      </trkpt>
      <trkpt lat="42.77251599999995" lon="-1.6946250000000027">
        <ele>474.867</ele>
        <time>2022-08-25T07:58:41Z</time>
      </trkpt>
      <trkpt lat="42.77251599999995" lon="-1.6946250000000027">
        <ele>474.874</ele>
        <time>2022-08-25T07:58:42Z</time>
      </trkpt>
      <trkpt lat="42.77250199999995" lon="-1.6946540000000028">
        <ele>475.087</ele>
        <time>2022-08-25T07:58:43Z</time>
      </trkpt>
      <trkpt lat="42.77249399999995" lon="-1.6946680000000027">
        <ele>475.083</ele>
        <time>2022-08-25T07:58:44Z</time>
      </trkpt>
      <trkpt lat="42.77249399999995" lon="-1.6946680000000027">
        <ele>475.274</ele>
        <time>2022-08-25T07:58:45Z</time>
      </trkpt>
      <trkpt lat="42.77247199999995" lon="-1.6946960000000026">
        <ele>475.286</ele>
        <time>2022-08-25T07:58:46Z</time>
      </trkpt>
      <trkpt lat="42.77246199999995" lon="-1.6947120000000027">
        <ele>475.460</ele>
        <time>2022-08-25T07:58:47Z</time>
      </trkpt>
      <trkpt lat="42.77245099999995" lon="-1.6947240000000026">
        <ele>475.626</ele>
        <time>2022-08-25T07:58:48Z</time>
      </trkpt>
      <trkpt lat="42.772442999999946" lon="-1.6947380000000025">
        <ele>475.609</ele>
        <time>2022-08-25T07:58:49Z</time>
      </trkpt>
      <trkpt lat="42.772434999999945" lon="-1.6947520000000025">
        <ele>475.829</ele>
        <time>2022-08-25T07:58:50Z</time>
      </trkpt>
      <trkpt lat="42.772426999999944" lon="-1.6947670000000026">
        <ele>476.079</ele>
        <time>2022-08-25T07:58:51Z</time>
      </trkpt>
      <trkpt lat="42.772414999999945" lon="-1.6947820000000027">
        <ele>475.829</ele>
        <time>2022-08-25T07:58:52Z</time>
      </trkpt>
      <trkpt lat="42.772403999999945" lon="-1.6947940000000026">
        <ele>476.235</ele>
        <time>2022-08-25T07:58:53Z</time>
      </trkpt>
      <trkpt lat="42.772392999999944" lon="-1.6948060000000025">
        <ele>476.297</ele>
        <time>2022-08-25T07:58:54Z</time>
      </trkpt>
      <trkpt lat="42.772380999999946" lon="-1.6948200000000024">
        <ele>476.254</ele>
        <time>2022-08-25T07:58:55Z</time>
      </trkpt>
      <trkpt lat="42.77236899999995" lon="-1.6948350000000025">
        <ele>476.497</ele>
        <time>2022-08-25T07:58:56Z</time>
      </trkpt>
      <trkpt lat="42.77235799999995" lon="-1.6948530000000026">
        <ele>476.613</ele>
        <time>2022-08-25T07:58:57Z</time>
      </trkpt>
      <trkpt lat="42.772347999999944" lon="-1.6948690000000026">
        <ele>476.874</ele>
        <time>2022-08-25T07:58:58Z</time>
      </trkpt>
      <trkpt lat="42.77234099999995" lon="-1.6948830000000026">
        <ele>477.081</ele>
        <time>2022-08-25T07:58:59Z</time>
      </trkpt>
      <trkpt lat="42.77234099999995" lon="-1.6948830000000026">
        <ele>477.061</ele>
        <time>2022-08-25T07:59:00Z</time>
      </trkpt>
      <trkpt lat="42.77232899999995" lon="-1.6949090000000027">
        <ele>476.817</ele>
        <time>2022-08-25T07:59:01Z</time>
      </trkpt>
      <trkpt lat="42.77232199999995" lon="-1.6949250000000027">
        <ele>477.209</ele>
        <time>2022-08-25T07:59:02Z</time>
      </trkpt>
      <trkpt lat="42.772315999999954" lon="-1.6949380000000027">
        <ele>477.229</ele>
        <time>2022-08-25T07:59:03Z</time>
      </trkpt>
      <trkpt lat="42.77230799999995" lon="-1.6949520000000027">
        <ele>477.239</ele>
        <time>2022-08-25T07:59:04Z</time>
      </trkpt>
      <trkpt lat="42.77230799999995" lon="-1.6949520000000027">
        <ele>477.229</ele>
        <time>2022-08-25T07:59:05Z</time>
      </trkpt>
      <trkpt lat="42.772284999999954" lon="-1.6949850000000026">
        <ele>477.625</ele>
        <time>2022-08-25T07:59:06Z</time>
      </trkpt>
      <trkpt lat="42.77227399999995" lon="-1.6949990000000026">
        <ele>477.867</ele>
        <time>2022-08-25T07:59:07Z</time>
      </trkpt>
      <trkpt lat="42.77227399999995" lon="-1.6949990000000026">
        <ele>478.044</ele>
        <time>2022-08-25T07:59:08Z</time>
      </trkpt>
      <trkpt lat="42.772250999999955" lon="-1.6950310000000026">
        <ele>478.287</ele>
        <time>2022-08-25T07:59:09Z</time>
      </trkpt>
      <trkpt lat="42.77223799999995" lon="-1.6950490000000027">
        <ele>478.413</ele>
        <time>2022-08-25T07:59:10Z</time>
      </trkpt>
      <trkpt lat="42.77222399999995" lon="-1.6950670000000028">
        <ele>478.234</ele>
        <time>2022-08-25T07:59:11Z</time>
      </trkpt>
      <trkpt lat="42.77221199999995" lon="-1.6950830000000028">
        <ele>478.439</ele>
        <time>2022-08-25T07:59:12Z</time>
      </trkpt>
      <trkpt lat="42.77220199999995" lon="-1.6951000000000027">
        <ele>478.401</ele>
        <time>2022-08-25T07:59:13Z</time>
      </trkpt>
      <trkpt lat="42.77218899999995" lon="-1.6951170000000026">
        <ele>478.421</ele>
        <time>2022-08-25T07:59:14Z</time>
      </trkpt>
      <trkpt lat="42.772175999999945" lon="-1.6951360000000026">
        <ele>478.409</ele>
        <time>2022-08-25T07:59:15Z</time>
      </trkpt>
      <trkpt lat="42.772161999999945" lon="-1.6951530000000026">
        <ele>478.464</ele>
        <time>2022-08-25T07:59:16Z</time>
      </trkpt>
      <trkpt lat="42.772147999999945" lon="-1.6951690000000026">
        <ele>478.854</ele>
        <time>2022-08-25T07:59:17Z</time>
      </trkpt>
      <trkpt lat="42.772135999999946" lon="-1.6951870000000027">
        <ele>478.844</ele>
        <time>2022-08-25T07:59:18Z</time>
      </trkpt>
      <trkpt lat="42.772124999999946" lon="-1.6952040000000026">
        <ele>479.280</ele>
        <time>2022-08-25T07:59:19Z</time>
      </trkpt>
      <trkpt lat="42.77211299999995" lon="-1.6952220000000027">
        <ele>479.082</ele>
        <time>2022-08-25T07:59:20Z</time>
      </trkpt>
      <trkpt lat="42.77210099999995" lon="-1.6952380000000027">
        <ele>479.289</ele>
        <time>2022-08-25T07:59:21Z</time>
      </trkpt>
      <trkpt lat="42.77209199999995" lon="-1.6952560000000028">
        <ele>479.272</ele>
        <time>2022-08-25T07:59:22Z</time>
      </trkpt>
      <trkpt lat="42.77208299999995" lon="-1.6952770000000028">
        <ele>479.458</ele>
        <time>2022-08-25T07:59:23Z</time>
      </trkpt>
      <trkpt lat="42.77208299999995" lon="-1.6952770000000028">
        <ele>479.839</ele>
        <time>2022-08-25T07:59:24Z</time>
      </trkpt>
      <trkpt lat="42.772061999999956" lon="-1.6953150000000028">
        <ele>479.886</ele>
        <time>2022-08-25T07:59:25Z</time>
      </trkpt>
      <trkpt lat="42.77205499999996" lon="-1.6953320000000027">
        <ele>480.060</ele>
        <time>2022-08-25T07:59:26Z</time>
      </trkpt>
      <trkpt lat="42.77204399999996" lon="-1.6953520000000026">
        <ele>480.226</ele>
        <time>2022-08-25T07:59:27Z</time>
      </trkpt>
      <trkpt lat="42.77204399999996" lon="-1.6953520000000026">
        <ele>480.209</ele>
        <time>2022-08-25T07:59:28Z</time>
      </trkpt>
      <trkpt lat="42.77203499999996" lon="-1.6953690000000026">
        <ele>480.489</ele>
        <time>2022-08-25T07:59:29Z</time>
      </trkpt>
      <trkpt lat="42.77201399999996" lon="-1.6954120000000026">
        <ele>480.669</ele>
        <time>2022-08-25T07:59:30Z</time>
      </trkpt>
      <trkpt lat="42.77200399999996" lon="-1.6954370000000025">
        <ele>480.629</ele>
        <time>2022-08-25T07:59:31Z</time>
      </trkpt>
      <trkpt lat="42.77199399999996" lon="-1.6954570000000024">
        <ele>481.035</ele>
        <time>2022-08-25T07:59:32Z</time>
      </trkpt>
      <trkpt lat="42.771985999999956" lon="-1.6954740000000024">
        <ele>481.087</ele>
        <time>2022-08-25T07:59:33Z</time>
      </trkpt>
      <trkpt lat="42.77197599999995" lon="-1.6954920000000024">
        <ele>481.024</ele>
        <time>2022-08-25T07:59:34Z</time>
      </trkpt>
      <trkpt lat="42.771963999999954" lon="-1.6955170000000024">
        <ele>481.267</ele>
        <time>2022-08-25T07:59:35Z</time>
      </trkpt>
      <trkpt lat="42.77195399999995" lon="-1.6955360000000024">
        <ele>481.293</ele>
        <time>2022-08-25T07:59:36Z</time>
      </trkpt>
      <trkpt lat="42.77194799999995" lon="-1.6955560000000023">
        <ele>481.224</ele>
        <time>2022-08-25T07:59:37Z</time>
      </trkpt>
      <trkpt lat="42.77194199999995" lon="-1.6955710000000024">
        <ele>481.258</ele>
        <time>2022-08-25T07:59:38Z</time>
      </trkpt>
      <trkpt lat="42.77194199999995" lon="-1.6955710000000024">
        <ele>481.252</ele>
        <time>2022-08-25T07:59:39Z</time>
      </trkpt>
      <trkpt lat="42.771926999999955" lon="-1.6956130000000025">
        <ele>481.217</ele>
        <time>2022-08-25T07:59:40Z</time>
      </trkpt>
      <trkpt lat="42.77191699999995" lon="-1.6956320000000025">
        <ele>481.409</ele>
        <time>2022-08-25T07:59:41Z</time>
      </trkpt>
      <trkpt lat="42.77190699999995" lon="-1.6956510000000025">
        <ele>481.466</ele>
        <time>2022-08-25T07:59:42Z</time>
      </trkpt>
      <trkpt lat="42.77189799999995" lon="-1.6956680000000024">
        <ele>481.686</ele>
        <time>2022-08-25T07:59:43Z</time>
      </trkpt>
      <trkpt lat="42.77188999999995" lon="-1.6956950000000024">
        <ele>481.836</ele>
        <time>2022-08-25T07:59:44Z</time>
      </trkpt>
      <trkpt lat="42.77188199999995" lon="-1.6957150000000023">
        <ele>481.812</ele>
        <time>2022-08-25T07:59:45Z</time>
      </trkpt>
      <trkpt lat="42.77187399999995" lon="-1.6957290000000023">
        <ele>482.014</ele>
        <time>2022-08-25T07:59:46Z</time>
      </trkpt>
      <trkpt lat="42.771865999999946" lon="-1.6957440000000024">
        <ele>482.021</ele>
        <time>2022-08-25T07:59:47Z</time>
      </trkpt>
      <trkpt lat="42.77186199999995" lon="-1.6957600000000024">
        <ele>482.094</ele>
        <time>2022-08-25T07:59:48Z</time>
      </trkpt>
      <trkpt lat="42.77185299999995" lon="-1.6957870000000024">
        <ele>482.040</ele>
        <time>2022-08-25T07:59:49Z</time>
      </trkpt>
      <trkpt lat="42.77184199999995" lon="-1.6958150000000023">
        <ele>482.231</ele>
        <time>2022-08-25T07:59:50Z</time>
      </trkpt>
      <trkpt lat="42.77184199999995" lon="-1.6958150000000023">
        <ele>482.243</ele>
        <time>2022-08-25T07:59:51Z</time>
      </trkpt>
      <trkpt lat="42.77181199999995" lon="-1.6958990000000023">
        <ele>482.264</ele>
        <time>2022-08-25T07:59:53Z</time>
      </trkpt>
      <trkpt lat="42.771801999999944" lon="-1.6959260000000023">
        <ele>482.210</ele>
        <time>2022-08-25T07:59:54Z</time>
      </trkpt>
      <trkpt lat="42.771789999999946" lon="-1.6959470000000023">
        <ele>482.209</ele>
        <time>2022-08-25T07:59:55Z</time>
      </trkpt>
      <trkpt lat="42.771778999999945" lon="-1.6959690000000023">
        <ele>482.225</ele>
        <time>2022-08-25T07:59:56Z</time>
      </trkpt>
      <trkpt lat="42.771739999999944" lon="-1.6960650000000024">
        <ele>482.265</ele>
        <time>2022-08-25T08:00:00Z</time>
      </trkpt>
      <trkpt lat="42.771719999999945" lon="-1.6961100000000024">
        <ele>482.625</ele>
        <time>2022-08-25T08:00:02Z</time>
      </trkpt>
      <trkpt lat="42.771719999999945" lon="-1.6961100000000024">
        <ele>482.631</ele>
        <time>2022-08-25T08:00:03Z</time>
      </trkpt>
      <trkpt lat="42.77168999999994" lon="-1.6961720000000025">
        <ele>482.823</ele>
        <time>2022-08-25T08:00:05Z</time>
      </trkpt>
      <trkpt lat="42.771682999999946" lon="-1.6961870000000026">
        <ele>482.880</ele>
        <time>2022-08-25T08:00:06Z</time>
      </trkpt>
      <trkpt lat="42.771654999999946" lon="-1.6962520000000025">
        <ele>483.033</ele>
        <time>2022-08-25T08:00:09Z</time>
      </trkpt>
      <trkpt lat="42.77164799999995" lon="-1.6962740000000025">
        <ele>483.269</ele>
        <time>2022-08-25T08:00:10Z</time>
      </trkpt>
      <trkpt lat="42.77163899999995" lon="-1.6962940000000024">
        <ele>483.480</ele>
        <time>2022-08-25T08:00:11Z</time>
      </trkpt>
      <trkpt lat="42.77162999999995" lon="-1.6963090000000025">
        <ele>483.658</ele>
        <time>2022-08-25T08:00:12Z</time>
      </trkpt>
      <trkpt lat="42.771622999999956" lon="-1.6963280000000025">
        <ele>483.652</ele>
        <time>2022-08-25T08:00:13Z</time>
      </trkpt>
      <trkpt lat="42.771608999999955" lon="-1.6963440000000025">
        <ele>483.617</ele>
        <time>2022-08-25T08:00:14Z</time>
      </trkpt>
      <trkpt lat="42.77159299999995" lon="-1.6963550000000025">
        <ele>483.809</ele>
        <time>2022-08-25T08:00:15Z</time>
      </trkpt>
      <trkpt lat="42.77158199999995" lon="-1.6963720000000024">
        <ele>484.026</ele>
        <time>2022-08-25T08:00:16Z</time>
      </trkpt>
      <trkpt lat="42.77157199999995" lon="-1.6963930000000025">
        <ele>484.046</ele>
        <time>2022-08-25T08:00:17Z</time>
      </trkpt>
      <trkpt lat="42.77155199999995" lon="-1.6964300000000025">
        <ele>484.266</ele>
        <time>2022-08-25T08:00:19Z</time>
      </trkpt>
      <trkpt lat="42.77154299999995" lon="-1.6964480000000026">
        <ele>484.492</ele>
        <time>2022-08-25T08:00:20Z</time>
      </trkpt>
      <trkpt lat="42.77150699999995" lon="-1.6965260000000026">
        <ele>485.264</ele>
        <time>2022-08-25T08:00:24Z</time>
      </trkpt>
      <trkpt lat="42.77148199999995" lon="-1.6965660000000027">
        <ele>485.621</ele>
        <time>2022-08-25T08:00:26Z</time>
      </trkpt>
      <trkpt lat="42.771471999999946" lon="-1.6965840000000028">
        <ele>485.664</ele>
        <time>2022-08-25T08:00:27Z</time>
      </trkpt>
      <trkpt lat="42.771463999999945" lon="-1.6965990000000029">
        <ele>485.820</ele>
        <time>2022-08-25T08:00:28Z</time>
      </trkpt>
      <trkpt lat="42.77145199999995" lon="-1.696622000000003">
        <ele>485.821</ele>
        <time>2022-08-25T08:00:29Z</time>
      </trkpt>
      <trkpt lat="42.771443999999946" lon="-1.6966420000000029">
        <ele>486.042</ele>
        <time>2022-08-25T08:00:30Z</time>
      </trkpt>
      <trkpt lat="42.771435999999944" lon="-1.696663000000003">
        <ele>486.222</ele>
        <time>2022-08-25T08:00:31Z</time>
      </trkpt>
      <trkpt lat="42.771429999999945" lon="-1.696684000000003">
        <ele>486.214</ele>
        <time>2022-08-25T08:00:32Z</time>
      </trkpt>
      <trkpt lat="42.771429999999945" lon="-1.696684000000003">
        <ele>486.409</ele>
        <time>2022-08-25T08:00:33Z</time>
      </trkpt>
      <trkpt lat="42.771415999999945" lon="-1.696728000000003">
        <ele>486.485</ele>
        <time>2022-08-25T08:00:34Z</time>
      </trkpt>
      <trkpt lat="42.77141199999995" lon="-1.696751000000003">
        <ele>486.635</ele>
        <time>2022-08-25T08:00:35Z</time>
      </trkpt>
      <trkpt lat="42.77140599999995" lon="-1.696775000000003">
        <ele>486.895</ele>
        <time>2022-08-25T08:00:36Z</time>
      </trkpt>
      <trkpt lat="42.77140199999995" lon="-1.696800000000003">
        <ele>487.021</ele>
        <time>2022-08-25T08:00:37Z</time>
      </trkpt>
      <trkpt lat="42.77139699999995" lon="-1.696823000000003">
        <ele>487.243</ele>
        <time>2022-08-25T08:00:38Z</time>
      </trkpt>
      <trkpt lat="42.771389999999954" lon="-1.6968460000000032">
        <ele>487.210</ele>
        <time>2022-08-25T08:00:39Z</time>
      </trkpt>
      <trkpt lat="42.77138499999995" lon="-1.6968690000000033">
        <ele>487.863</ele>
        <time>2022-08-25T08:00:40Z</time>
      </trkpt>
      <trkpt lat="42.771380999999955" lon="-1.6968860000000032">
        <ele>488.029</ele>
        <time>2022-08-25T08:00:41Z</time>
      </trkpt>
      <trkpt lat="42.77137699999996" lon="-1.6969090000000033">
        <ele>488.250</ele>
        <time>2022-08-25T08:00:42Z</time>
      </trkpt>
      <trkpt lat="42.77137399999996" lon="-1.6969360000000033">
        <ele>488.454</ele>
        <time>2022-08-25T08:00:43Z</time>
      </trkpt>
      <trkpt lat="42.77137399999996" lon="-1.6969360000000033">
        <ele>488.656</ele>
        <time>2022-08-25T08:00:44Z</time>
      </trkpt>
      <trkpt lat="42.77136999999996" lon="-1.6969760000000034">
        <ele>489.011</ele>
        <time>2022-08-25T08:00:45Z</time>
      </trkpt>
      <trkpt lat="42.77136799999996" lon="-1.6969980000000033">
        <ele>489.209</ele>
        <time>2022-08-25T08:00:46Z</time>
      </trkpt>
      <trkpt lat="42.77136799999996" lon="-1.6969980000000033">
        <ele>489.286</ele>
        <time>2022-08-25T08:00:47Z</time>
      </trkpt>
      <trkpt lat="42.77135999999996" lon="-1.6970470000000033">
        <ele>489.496</ele>
        <time>2022-08-25T08:00:48Z</time>
      </trkpt>
      <trkpt lat="42.77135899999996" lon="-1.6970700000000034">
        <ele>489.656</ele>
        <time>2022-08-25T08:00:49Z</time>
      </trkpt>
      <trkpt lat="42.77135599999996" lon="-1.6970860000000034">
        <ele>489.862</ele>
        <time>2022-08-25T08:00:50Z</time>
      </trkpt>
      <trkpt lat="42.77135299999996" lon="-1.6971080000000034">
        <ele>490.084</ele>
        <time>2022-08-25T08:00:51Z</time>
      </trkpt>
      <trkpt lat="42.77135299999996" lon="-1.6971080000000034">
        <ele>490.251</ele>
        <time>2022-08-25T08:00:52Z</time>
      </trkpt>
      <trkpt lat="42.771351999999965" lon="-1.6971570000000034">
        <ele>490.274</ele>
        <time>2022-08-25T08:00:53Z</time>
      </trkpt>
      <trkpt lat="42.771348999999965" lon="-1.6971860000000034">
        <ele>490.660</ele>
        <time>2022-08-25T08:00:54Z</time>
      </trkpt>
      <trkpt lat="42.77134499999997" lon="-1.6972060000000033">
        <ele>490.641</ele>
        <time>2022-08-25T08:00:55Z</time>
      </trkpt>
      <trkpt lat="42.77134099999997" lon="-1.6972330000000033">
        <ele>490.892</ele>
        <time>2022-08-25T08:00:56Z</time>
      </trkpt>
      <trkpt lat="42.77134099999997" lon="-1.6972330000000033">
        <ele>490.873</ele>
        <time>2022-08-25T08:00:57Z</time>
      </trkpt>
      <trkpt lat="42.77132899999997" lon="-1.6972890000000034">
        <ele>490.820</ele>
        <time>2022-08-25T08:00:58Z</time>
      </trkpt>
      <trkpt lat="42.77132599999997" lon="-1.6973170000000033">
        <ele>491.009</ele>
        <time>2022-08-25T08:00:59Z</time>
      </trkpt>
      <trkpt lat="42.771322999999974" lon="-1.6973400000000034">
        <ele>491.020</ele>
        <time>2022-08-25T08:01:00Z</time>
      </trkpt>
      <trkpt lat="42.77131899999998" lon="-1.6973680000000033">
        <ele>491.070</ele>
        <time>2022-08-25T08:01:01Z</time>
      </trkpt>
      <trkpt lat="42.77131499999998" lon="-1.6974030000000033">
        <ele>491.240</ele>
        <time>2022-08-25T08:01:02Z</time>
      </trkpt>
      <trkpt lat="42.77130999999998" lon="-1.6974270000000033">
        <ele>491.226</ele>
        <time>2022-08-25T08:01:03Z</time>
      </trkpt>
      <trkpt lat="42.77130399999998" lon="-1.6974650000000033">
        <ele>491.258</ele>
        <time>2022-08-25T08:01:04Z</time>
      </trkpt>
      <trkpt lat="42.77130099999998" lon="-1.6974910000000034">
        <ele>491.645</ele>
        <time>2022-08-25T08:01:05Z</time>
      </trkpt>
      <trkpt lat="42.77129399999998" lon="-1.6975230000000034">
        <ele>491.848</ele>
        <time>2022-08-25T08:01:06Z</time>
      </trkpt>
      <trkpt lat="42.77128599999998" lon="-1.6975620000000033">
        <ele>491.824</ele>
        <time>2022-08-25T08:01:07Z</time>
      </trkpt>
      <trkpt lat="42.77128599999998" lon="-1.6975620000000033">
        <ele>491.845</ele>
        <time>2022-08-25T08:01:08Z</time>
      </trkpt>
      <trkpt lat="42.771270999999984" lon="-1.6976240000000034">
        <ele>491.878</ele>
        <time>2022-08-25T08:01:09Z</time>
      </trkpt>
      <trkpt lat="42.77126299999998" lon="-1.6976590000000034">
        <ele>491.633</ele>
        <time>2022-08-25T08:01:10Z</time>
      </trkpt>
      <trkpt lat="42.771253999999985" lon="-1.6976940000000034">
        <ele>491.626</ele>
        <time>2022-08-25T08:01:11Z</time>
      </trkpt>
      <trkpt lat="42.771242999999984" lon="-1.6977340000000034">
        <ele>491.609</ele>
        <time>2022-08-25T08:01:12Z</time>
      </trkpt>
      <trkpt lat="42.771236999999985" lon="-1.6977660000000034">
        <ele>491.678</ele>
        <time>2022-08-25T08:01:13Z</time>
      </trkpt>
      <trkpt lat="42.771228999999984" lon="-1.6977930000000034">
        <ele>491.428</ele>
        <time>2022-08-25T08:01:14Z</time>
      </trkpt>
      <trkpt lat="42.771216999999986" lon="-1.6978270000000035">
        <ele>491.428</ele>
        <time>2022-08-25T08:01:15Z</time>
      </trkpt>
      <trkpt lat="42.771216999999986" lon="-1.6978270000000035">
        <ele>491.634</ele>
        <time>2022-08-25T08:01:16Z</time>
      </trkpt>
      <trkpt lat="42.771135999999984" lon="-1.6980340000000036">
        <ele>491.426</ele>
        <time>2022-08-25T08:01:20Z</time>
      </trkpt>
      <trkpt lat="42.77097099999998" lon="-1.6983550000000036">
        <ele>490.863</ele>
        <time>2022-08-25T08:01:27Z</time>
      </trkpt>
      <trkpt lat="42.770758999999984" lon="-1.6986980000000036">
        <ele>489.856</ele>
        <time>2022-08-25T08:01:34Z</time>
      </trkpt>
      <trkpt lat="42.77072699999999" lon="-1.6987460000000036">
        <ele>489.652</ele>
        <time>2022-08-25T08:01:35Z</time>
      </trkpt>
      <trkpt lat="42.77059099999999" lon="-1.6989510000000037">
        <ele>488.853</ele>
        <time>2022-08-25T08:01:39Z</time>
      </trkpt>
      <trkpt lat="42.77042499999999" lon="-1.6992000000000036">
        <ele>487.835</ele>
        <time>2022-08-25T08:01:44Z</time>
      </trkpt>
      <trkpt lat="42.77038199999999" lon="-1.6992580000000035">
        <ele>487.686</ele>
        <time>2022-08-25T08:01:45Z</time>
      </trkpt>
      <trkpt lat="42.77014199999999" lon="-1.6995260000000034">
        <ele>486.614</ele>
        <time>2022-08-25T08:01:51Z</time>
      </trkpt>
      <trkpt lat="42.770098999999995" lon="-1.6995660000000035">
        <ele>486.409</ele>
        <time>2022-08-25T08:01:52Z</time>
      </trkpt>
      <trkpt lat="42.770058999999996" lon="-1.6996050000000034">
        <ele>486.474</ele>
        <time>2022-08-25T08:01:53Z</time>
      </trkpt>
      <trkpt lat="42.770058999999996" lon="-1.6996050000000034">
        <ele>486.244</ele>
        <time>2022-08-25T08:01:54Z</time>
      </trkpt>
      <trkpt lat="42.769976" lon="-1.6996820000000035">
        <ele>485.864</ele>
        <time>2022-08-25T08:01:55Z</time>
      </trkpt>
      <trkpt lat="42.769895" lon="-1.6997620000000035">
        <ele>485.460</ele>
        <time>2022-08-25T08:01:57Z</time>
      </trkpt>
      <trkpt lat="42.769639" lon="-1.7000120000000036">
        <ele>484.882</ele>
        <time>2022-08-25T08:02:03Z</time>
      </trkpt>
      <trkpt lat="42.769597" lon="-1.7000530000000036">
        <ele>484.679</ele>
        <time>2022-08-25T08:02:05Z</time>
      </trkpt>
      <trkpt lat="42.769514" lon="-1.7001340000000036">
        <ele>484.642</ele>
        <time>2022-08-25T08:02:06Z</time>
      </trkpt>
      <trkpt lat="42.769514" lon="-1.7001340000000036">
        <ele>484.478</ele>
        <time>2022-08-25T08:02:07Z</time>
      </trkpt>
      <trkpt lat="42.769436" lon="-1.7002130000000035">
        <ele>484.239</ele>
        <time>2022-08-25T08:02:08Z</time>
      </trkpt>
      <trkpt lat="42.769397" lon="-1.7002490000000035">
        <ele>484.057</ele>
        <time>2022-08-25T08:02:09Z</time>
      </trkpt>
      <trkpt lat="42.76936" lon="-1.7002840000000035">
        <ele>483.800</ele>
        <time>2022-08-25T08:02:10Z</time>
      </trkpt>
      <trkpt lat="42.769323" lon="-1.7003190000000035">
        <ele>483.620</ele>
        <time>2022-08-25T08:02:11Z</time>
      </trkpt>
      <trkpt lat="42.769287" lon="-1.7003530000000036">
        <ele>483.609</ele>
        <time>2022-08-25T08:02:12Z</time>
      </trkpt>
      <trkpt lat="42.769252" lon="-1.7003890000000035">
        <ele>483.696</ele>
        <time>2022-08-25T08:02:13Z</time>
      </trkpt>
      <trkpt lat="42.769145" lon="-1.7004940000000035">
        <ele>483.686</ele>
        <time>2022-08-25T08:02:16Z</time>
      </trkpt>
      <trkpt lat="42.768997" lon="-1.7006220000000034">
        <ele>484.096</ele>
        <time>2022-08-25T08:02:20Z</time>
      </trkpt>
      <trkpt lat="42.768926" lon="-1.7006880000000033">
        <ele>484.062</ele>
        <time>2022-08-25T08:02:22Z</time>
      </trkpt>
      <trkpt lat="42.768889" lon="-1.7007160000000032">
        <ele>484.094</ele>
        <time>2022-08-25T08:02:23Z</time>
      </trkpt>
      <trkpt lat="42.768852" lon="-1.7007390000000033">
        <ele>484.041</ele>
        <time>2022-08-25T08:02:24Z</time>
      </trkpt>
      <trkpt lat="42.768814" lon="-1.7007570000000034">
        <ele>484.294</ele>
        <time>2022-08-25T08:02:25Z</time>
      </trkpt>
      <trkpt lat="42.768775" lon="-1.7007750000000035">
        <ele>484.480</ele>
        <time>2022-08-25T08:02:26Z</time>
      </trkpt>
      <trkpt lat="42.768698" lon="-1.7008230000000035">
        <ele>484.051</ele>
        <time>2022-08-25T08:02:28Z</time>
      </trkpt>
      <trkpt lat="42.768587000000004" lon="-1.7008960000000035">
        <ele>484.085</ele>
        <time>2022-08-25T08:02:31Z</time>
      </trkpt>
      <trkpt lat="42.768432000000004" lon="-1.7009810000000034">
        <ele>484.689</ele>
        <time>2022-08-25T08:02:35Z</time>
      </trkpt>
      <trkpt lat="42.76832100000001" lon="-1.7010450000000035">
        <ele>484.217</ele>
        <time>2022-08-25T08:02:38Z</time>
      </trkpt>
      <trkpt lat="42.76828400000001" lon="-1.7010660000000035">
        <ele>484.209</ele>
        <time>2022-08-25T08:02:39Z</time>
      </trkpt>
      <trkpt lat="42.768246000000005" lon="-1.7010860000000034">
        <ele>484.069</ele>
        <time>2022-08-25T08:02:40Z</time>
      </trkpt>
      <trkpt lat="42.768246000000005" lon="-1.7010860000000034">
        <ele>484.069</ele>
        <time>2022-08-25T08:02:41Z</time>
      </trkpt>
      <trkpt lat="42.76816900000001" lon="-1.7011230000000035">
        <ele>484.049</ele>
        <time>2022-08-25T08:02:42Z</time>
      </trkpt>
      <trkpt lat="42.76813200000001" lon="-1.7011430000000034">
        <ele>484.045</ele>
        <time>2022-08-25T08:02:43Z</time>
      </trkpt>
      <trkpt lat="42.76809800000001" lon="-1.7011660000000035">
        <ele>484.287</ele>
        <time>2022-08-25T08:02:44Z</time>
      </trkpt>
      <trkpt lat="42.76806600000001" lon="-1.7011890000000036">
        <ele>484.224</ele>
        <time>2022-08-25T08:02:45Z</time>
      </trkpt>
      <trkpt lat="42.76803000000001" lon="-1.7012150000000037">
        <ele>484.277</ele>
        <time>2022-08-25T08:02:46Z</time>
      </trkpt>
      <trkpt lat="42.76797100000001" lon="-1.7012660000000037">
        <ele>484.273</ele>
        <time>2022-08-25T08:02:48Z</time>
      </trkpt>
      <trkpt lat="42.76794200000001" lon="-1.7012850000000037">
        <ele>484.444</ele>
        <time>2022-08-25T08:02:49Z</time>
      </trkpt>
      <trkpt lat="42.76794200000001" lon="-1.7012850000000037">
        <ele>484.633</ele>
        <time>2022-08-25T08:02:50Z</time>
      </trkpt>
      <trkpt lat="42.767879000000015" lon="-1.7013210000000036">
        <ele>484.623</ele>
        <time>2022-08-25T08:02:51Z</time>
      </trkpt>
      <trkpt lat="42.76785000000002" lon="-1.7013380000000036">
        <ele>484.815</ele>
        <time>2022-08-25T08:02:52Z</time>
      </trkpt>
      <trkpt lat="42.76782200000002" lon="-1.7013560000000036">
        <ele>484.809</ele>
        <time>2022-08-25T08:02:53Z</time>
      </trkpt>
      <trkpt lat="42.767792000000014" lon="-1.7013740000000037">
        <ele>485.064</ele>
        <time>2022-08-25T08:02:54Z</time>
      </trkpt>
      <trkpt lat="42.767763000000016" lon="-1.7013910000000037">
        <ele>485.254</ele>
        <time>2022-08-25T08:02:55Z</time>
      </trkpt>
      <trkpt lat="42.76773700000002" lon="-1.7014060000000037">
        <ele>485.484</ele>
        <time>2022-08-25T08:02:56Z</time>
      </trkpt>
      <trkpt lat="42.76770900000002" lon="-1.7014220000000038">
        <ele>485.420</ele>
        <time>2022-08-25T08:02:57Z</time>
      </trkpt>
      <trkpt lat="42.76768300000002" lon="-1.7014370000000039">
        <ele>485.442</ele>
        <time>2022-08-25T08:02:58Z</time>
      </trkpt>
      <trkpt lat="42.76768300000002" lon="-1.7014370000000039">
        <ele>485.689</ele>
        <time>2022-08-25T08:02:59Z</time>
      </trkpt>
      <trkpt lat="42.76763900000002" lon="-1.7014640000000039">
        <ele>485.662</ele>
        <time>2022-08-25T08:03:00Z</time>
      </trkpt>
      <trkpt lat="42.76761900000002" lon="-1.7014750000000038">
        <ele>485.848</ele>
        <time>2022-08-25T08:03:01Z</time>
      </trkpt>
      <trkpt lat="42.767600000000016" lon="-1.701482000000004">
        <ele>485.899</ele>
        <time>2022-08-25T08:03:02Z</time>
      </trkpt>
      <trkpt lat="42.767555000000016" lon="-1.701498000000004">
        <ele>486.077</ele>
        <time>2022-08-25T08:03:04Z</time>
      </trkpt>
      <trkpt lat="42.76753200000002" lon="-1.7015100000000039">
        <ele>486.261</ele>
        <time>2022-08-25T08:03:06Z</time>
      </trkpt>
      <trkpt lat="42.767491000000014" lon="-1.7015380000000038">
        <ele>486.227</ele>
        <time>2022-08-25T08:03:07Z</time>
      </trkpt>
      <trkpt lat="42.76747000000002" lon="-1.7015530000000039">
        <ele>486.209</ele>
        <time>2022-08-25T08:03:08Z</time>
      </trkpt>
      <trkpt lat="42.76745200000002" lon="-1.701568000000004">
        <ele>486.428</ele>
        <time>2022-08-25T08:03:09Z</time>
      </trkpt>
      <trkpt lat="42.76743100000002" lon="-1.701583000000004">
        <ele>486.648</ele>
        <time>2022-08-25T08:03:10Z</time>
      </trkpt>
      <trkpt lat="42.767414000000024" lon="-1.7015980000000042">
        <ele>486.638</ele>
        <time>2022-08-25T08:03:11Z</time>
      </trkpt>
      <trkpt lat="42.76740000000002" lon="-1.7016140000000042">
        <ele>486.854</ele>
        <time>2022-08-25T08:03:12Z</time>
      </trkpt>
      <trkpt lat="42.767368000000026" lon="-1.701645000000004">
        <ele>486.866</ele>
        <time>2022-08-25T08:03:14Z</time>
      </trkpt>
      <trkpt lat="42.767214000000024" lon="-1.701816000000004">
        <ele>486.823</ele>
        <time>2022-08-25T08:03:22Z</time>
      </trkpt>
      <trkpt lat="42.76706600000002" lon="-1.702027000000004">
        <ele>486.216</ele>
        <time>2022-08-25T08:03:29Z</time>
      </trkpt>
      <trkpt lat="42.767048000000024" lon="-1.702052000000004">
        <ele>486.422</ele>
        <time>2022-08-25T08:03:30Z</time>
      </trkpt>
      <trkpt lat="42.76703200000002" lon="-1.7020720000000038">
        <ele>486.053</ele>
        <time>2022-08-25T08:03:31Z</time>
      </trkpt>
      <trkpt lat="42.76701900000002" lon="-1.7020890000000037">
        <ele>485.688</ele>
        <time>2022-08-25T08:03:32Z</time>
      </trkpt>
      <trkpt lat="42.76701900000002" lon="-1.7020890000000037">
        <ele>485.424</ele>
        <time>2022-08-25T08:03:33Z</time>
      </trkpt>
      <trkpt lat="42.766995000000016" lon="-1.7021240000000037">
        <ele>485.426</ele>
        <time>2022-08-25T08:03:34Z</time>
      </trkpt>
      <trkpt lat="42.76698600000002" lon="-1.7021460000000037">
        <ele>485.409</ele>
        <time>2022-08-25T08:03:35Z</time>
      </trkpt>
      <trkpt lat="42.76693500000002" lon="-1.7022140000000037">
        <ele>485.219</ele>
        <time>2022-08-25T08:03:38Z</time>
      </trkpt>
      <trkpt lat="42.76681300000002" lon="-1.7023660000000036">
        <ele>485.039</ele>
        <time>2022-08-25T08:03:43Z</time>
      </trkpt>
      <trkpt lat="42.76673500000002" lon="-1.7024850000000036">
        <ele>484.859</ele>
        <time>2022-08-25T08:03:46Z</time>
      </trkpt>
      <trkpt lat="42.76666800000002" lon="-1.7026240000000035">
        <ele>484.865</ele>
        <time>2022-08-25T08:03:49Z</time>
      </trkpt>
      <trkpt lat="42.766537000000014" lon="-1.7028490000000034">
        <ele>484.497</ele>
        <time>2022-08-25T08:03:54Z</time>
      </trkpt>
      <trkpt lat="42.76648500000002" lon="-1.7029380000000034">
        <ele>484.474</ele>
        <time>2022-08-25T08:03:56Z</time>
      </trkpt>
      <trkpt lat="42.766461000000014" lon="-1.7029800000000035">
        <ele>484.067</ele>
        <time>2022-08-25T08:03:57Z</time>
      </trkpt>
      <trkpt lat="42.76643900000001" lon="-1.7030200000000035">
        <ele>483.853</ele>
        <time>2022-08-25T08:03:58Z</time>
      </trkpt>
      <trkpt lat="42.766418000000016" lon="-1.7030640000000035">
        <ele>484.044</ele>
        <time>2022-08-25T08:03:59Z</time>
      </trkpt>
      <trkpt lat="42.76639700000002" lon="-1.7031050000000034">
        <ele>484.255</ele>
        <time>2022-08-25T08:04:00Z</time>
      </trkpt>
      <trkpt lat="42.76628400000002" lon="-1.7033010000000035">
        <ele>483.607</ele>
        <time>2022-08-25T08:04:05Z</time>
      </trkpt>
      <trkpt lat="42.76622200000002" lon="-1.7034310000000035">
        <ele>483.617</ele>
        <time>2022-08-25T08:04:08Z</time>
      </trkpt>
      <trkpt lat="42.76609600000002" lon="-1.7036980000000035">
        <ele>483.609</ele>
        <time>2022-08-25T08:04:14Z</time>
      </trkpt>
      <trkpt lat="42.76607800000002" lon="-1.7037410000000035">
        <ele>483.656</ele>
        <time>2022-08-25T08:04:15Z</time>
      </trkpt>
      <trkpt lat="42.76606200000002" lon="-1.7037840000000035">
        <ele>483.696</ele>
        <time>2022-08-25T08:04:16Z</time>
      </trkpt>
      <trkpt lat="42.76604600000002" lon="-1.7038260000000036">
        <ele>483.666</ele>
        <time>2022-08-25T08:04:17Z</time>
      </trkpt>
      <trkpt lat="42.766030000000015" lon="-1.7038690000000036">
        <ele>483.672</ele>
        <time>2022-08-25T08:04:18Z</time>
      </trkpt>
      <trkpt lat="42.76601400000001" lon="-1.7039110000000037">
        <ele>483.674</ele>
        <time>2022-08-25T08:04:19Z</time>
      </trkpt>
      <trkpt lat="42.76599700000001" lon="-1.7039490000000037">
        <ele>483.671</ele>
        <time>2022-08-25T08:04:20Z</time>
      </trkpt>
      <trkpt lat="42.765979000000016" lon="-1.7039860000000038">
        <ele>483.824</ele>
        <time>2022-08-25T08:04:21Z</time>
      </trkpt>
      <trkpt lat="42.76595500000001" lon="-1.7040230000000038">
        <ele>483.840</ele>
        <time>2022-08-25T08:04:22Z</time>
      </trkpt>
      <trkpt lat="42.76593900000001" lon="-1.704057000000004">
        <ele>483.891</ele>
        <time>2022-08-25T08:04:23Z</time>
      </trkpt>
      <trkpt lat="42.76592700000001" lon="-1.704091000000004">
        <ele>483.823</ele>
        <time>2022-08-25T08:04:24Z</time>
      </trkpt>
      <trkpt lat="42.76591400000001" lon="-1.704122000000004">
        <ele>483.883</ele>
        <time>2022-08-25T08:04:25Z</time>
      </trkpt>
      <trkpt lat="42.76590100000001" lon="-1.7041500000000038">
        <ele>484.011</ele>
        <time>2022-08-25T08:04:26Z</time>
      </trkpt>
      <trkpt lat="42.765888000000004" lon="-1.7041790000000039">
        <ele>484.009</ele>
        <time>2022-08-25T08:04:27Z</time>
      </trkpt>
      <trkpt lat="42.765873000000006" lon="-1.7042090000000039">
        <ele>484.083</ele>
        <time>2022-08-25T08:04:28Z</time>
      </trkpt>
      <trkpt lat="42.765815" lon="-1.704330000000004">
        <ele>484.073</ele>
        <time>2022-08-25T08:04:32Z</time>
      </trkpt>
      <trkpt lat="42.765798000000004" lon="-1.704359000000004">
        <ele>484.053</ele>
        <time>2022-08-25T08:04:33Z</time>
      </trkpt>
      <trkpt lat="42.765708000000004" lon="-1.704504000000004">
        <ele>484.289</ele>
        <time>2022-08-25T08:04:38Z</time>
      </trkpt>
      <trkpt lat="42.765545" lon="-1.704749000000004">
        <ele>484.251</ele>
        <time>2022-08-25T08:04:46Z</time>
      </trkpt>
      <trkpt lat="42.765526" lon="-1.704781000000004">
        <ele>484.018</ele>
        <time>2022-08-25T08:04:47Z</time>
      </trkpt>
      <trkpt lat="42.76547" lon="-1.7048880000000042">
        <ele>484.081</ele>
        <time>2022-08-25T08:04:50Z</time>
      </trkpt>
      <trkpt lat="42.765417" lon="-1.7049910000000041">
        <ele>484.037</ele>
        <time>2022-08-25T08:04:53Z</time>
      </trkpt>
      <trkpt lat="42.765398" lon="-1.7050260000000041">
        <ele>484.078</ele>
        <time>2022-08-25T08:04:54Z</time>
      </trkpt>
      <trkpt lat="42.765378999999996" lon="-1.7050610000000042">
        <ele>484.033</ele>
        <time>2022-08-25T08:04:55Z</time>
      </trkpt>
      <trkpt lat="42.765274999999995" lon="-1.7053040000000041">
        <ele>484.223</ele>
        <time>2022-08-25T08:05:01Z</time>
      </trkpt>
      <trkpt lat="42.765263999999995" lon="-1.7053460000000042">
        <ele>484.215</ele>
        <time>2022-08-25T08:05:02Z</time>
      </trkpt>
      <trkpt lat="42.765254999999996" lon="-1.7053860000000043">
        <ele>484.209</ele>
        <time>2022-08-25T08:05:03Z</time>
      </trkpt>
      <trkpt lat="42.765246999999995" lon="-1.7054260000000043">
        <ele>484.284</ele>
        <time>2022-08-25T08:05:04Z</time>
      </trkpt>
      <trkpt lat="42.765238999999994" lon="-1.7054670000000043">
        <ele>484.064</ele>
        <time>2022-08-25T08:05:05Z</time>
      </trkpt>
      <trkpt lat="42.76521399999999" lon="-1.7056370000000043">
        <ele>484.044</ele>
        <time>2022-08-25T08:05:09Z</time>
      </trkpt>
      <trkpt lat="42.76520899999999" lon="-1.7056800000000043">
        <ele>484.010</ele>
        <time>2022-08-25T08:05:10Z</time>
      </trkpt>
      <trkpt lat="42.76519799999999" lon="-1.7057230000000043">
        <ele>484.052</ele>
        <time>2022-08-25T08:05:11Z</time>
      </trkpt>
      <trkpt lat="42.76515399999999" lon="-1.7058920000000044">
        <ele>484.059</ele>
        <time>2022-08-25T08:05:15Z</time>
      </trkpt>
      <trkpt lat="42.76511999999999" lon="-1.7060230000000045">
        <ele>484.472</ele>
        <time>2022-08-25T08:05:18Z</time>
      </trkpt>
      <trkpt lat="42.76506299999999" lon="-1.7062600000000046">
        <ele>484.628</ele>
        <time>2022-08-25T08:05:23Z</time>
      </trkpt>
      <trkpt lat="42.76504999999999" lon="-1.7063050000000046">
        <ele>484.619</ele>
        <time>2022-08-25T08:05:24Z</time>
      </trkpt>
      <trkpt lat="42.76503799999999" lon="-1.7063480000000046">
        <ele>484.686</ele>
        <time>2022-08-25T08:05:25Z</time>
      </trkpt>
      <trkpt lat="42.76502299999999" lon="-1.7064350000000046">
        <ele>485.260</ele>
        <time>2022-08-25T08:05:27Z</time>
      </trkpt>
      <trkpt lat="42.76501699999999" lon="-1.7064790000000045">
        <ele>485.426</ele>
        <time>2022-08-25T08:05:28Z</time>
      </trkpt>
      <trkpt lat="42.76500899999999" lon="-1.7065210000000046">
        <ele>485.409</ele>
        <time>2022-08-25T08:05:29Z</time>
      </trkpt>
      <trkpt lat="42.76500099999999" lon="-1.7065610000000047">
        <ele>485.699</ele>
        <time>2022-08-25T08:05:30Z</time>
      </trkpt>
      <trkpt lat="42.764993999999994" lon="-1.7066020000000046">
        <ele>485.899</ele>
        <time>2022-08-25T08:05:31Z</time>
      </trkpt>
      <trkpt lat="42.764965" lon="-1.7067660000000047">
        <ele>486.229</ele>
        <time>2022-08-25T08:05:35Z</time>
      </trkpt>
      <trkpt lat="42.76495499999999" lon="-1.7068070000000046">
        <ele>486.425</ele>
        <time>2022-08-25T08:05:36Z</time>
      </trkpt>
      <trkpt lat="42.764900999999995" lon="-1.7070200000000046">
        <ele>486.617</ele>
        <time>2022-08-25T08:05:41Z</time>
      </trkpt>
      <trkpt lat="42.764889999999994" lon="-1.7070640000000046">
        <ele>486.844</ele>
        <time>2022-08-25T08:05:42Z</time>
      </trkpt>
      <trkpt lat="42.764875999999994" lon="-1.7071070000000046">
        <ele>486.837</ele>
        <time>2022-08-25T08:05:43Z</time>
      </trkpt>
      <trkpt lat="42.764852999999995" lon="-1.7071880000000046">
        <ele>487.273</ele>
        <time>2022-08-25T08:05:45Z</time>
      </trkpt>
      <trkpt lat="42.764838999999995" lon="-1.7072240000000045">
        <ele>487.464</ele>
        <time>2022-08-25T08:05:46Z</time>
      </trkpt>
      <trkpt lat="42.76482599999999" lon="-1.7072480000000045">
        <ele>487.427</ele>
        <time>2022-08-25T08:05:47Z</time>
      </trkpt>
      <trkpt lat="42.76480599999999" lon="-1.7072810000000045">
        <ele>487.668</ele>
        <time>2022-08-25T08:05:48Z</time>
      </trkpt>
      <trkpt lat="42.76478999999999" lon="-1.7073110000000045">
        <ele>487.814</ele>
        <time>2022-08-25T08:05:49Z</time>
      </trkpt>
      <trkpt lat="42.76477699999999" lon="-1.7073390000000044">
        <ele>487.809</ele>
        <time>2022-08-25T08:05:50Z</time>
      </trkpt>
      <trkpt lat="42.76475999999999" lon="-1.7073650000000045">
        <ele>488.073</ele>
        <time>2022-08-25T08:05:51Z</time>
      </trkpt>
      <trkpt lat="42.76473899999999" lon="-1.7073930000000044">
        <ele>488.023</ele>
        <time>2022-08-25T08:05:52Z</time>
      </trkpt>
      <trkpt lat="42.76472599999999" lon="-1.7074180000000043">
        <ele>488.013</ele>
        <time>2022-08-25T08:05:53Z</time>
      </trkpt>
      <trkpt lat="42.76471199999999" lon="-1.7074410000000044">
        <ele>488.229</ele>
        <time>2022-08-25T08:05:54Z</time>
      </trkpt>
      <trkpt lat="42.76469699999999" lon="-1.7074630000000044">
        <ele>488.461</ele>
        <time>2022-08-25T08:05:55Z</time>
      </trkpt>
      <trkpt lat="42.76467999999999" lon="-1.7074890000000045">
        <ele>488.418</ele>
        <time>2022-08-25T08:05:56Z</time>
      </trkpt>
      <trkpt lat="42.76466099999999" lon="-1.7075140000000044">
        <ele>488.871</ele>
        <time>2022-08-25T08:05:57Z</time>
      </trkpt>
      <trkpt lat="42.76464799999999" lon="-1.7075380000000044">
        <ele>489.297</ele>
        <time>2022-08-25T08:05:58Z</time>
      </trkpt>
      <trkpt lat="42.764634999999984" lon="-1.7075600000000044">
        <ele>489.288</ele>
        <time>2022-08-25T08:05:59Z</time>
      </trkpt>
      <trkpt lat="42.76462199999998" lon="-1.7075830000000045">
        <ele>489.699</ele>
        <time>2022-08-25T08:06:00Z</time>
      </trkpt>
      <trkpt lat="42.76461199999998" lon="-1.7076090000000046">
        <ele>489.607</ele>
        <time>2022-08-25T08:06:01Z</time>
      </trkpt>
      <trkpt lat="42.76459999999998" lon="-1.7076330000000046">
        <ele>489.827</ele>
        <time>2022-08-25T08:06:02Z</time>
      </trkpt>
      <trkpt lat="42.76458999999998" lon="-1.7076570000000046">
        <ele>490.009</ele>
        <time>2022-08-25T08:06:03Z</time>
      </trkpt>
      <trkpt lat="42.76457799999998" lon="-1.7076840000000046">
        <ele>490.050</ele>
        <time>2022-08-25T08:06:04Z</time>
      </trkpt>
      <trkpt lat="42.76456599999998" lon="-1.7077080000000047">
        <ele>490.250</ele>
        <time>2022-08-25T08:06:05Z</time>
      </trkpt>
      <trkpt lat="42.76455199999998" lon="-1.7077340000000047">
        <ele>490.230</ele>
        <time>2022-08-25T08:06:06Z</time>
      </trkpt>
      <trkpt lat="42.76454099999998" lon="-1.7077620000000047">
        <ele>490.446</ele>
        <time>2022-08-25T08:06:07Z</time>
      </trkpt>
      <trkpt lat="42.76454099999998" lon="-1.7077620000000047">
        <ele>490.478</ele>
        <time>2022-08-25T08:06:08Z</time>
      </trkpt>
      <trkpt lat="42.76450899999998" lon="-1.7078150000000047">
        <ele>490.615</ele>
        <time>2022-08-25T08:06:09Z</time>
      </trkpt>
      <trkpt lat="42.76449199999998" lon="-1.7078430000000047">
        <ele>490.658</ele>
        <time>2022-08-25T08:06:10Z</time>
      </trkpt>
      <trkpt lat="42.76449199999998" lon="-1.7078430000000047">
        <ele>490.644</ele>
        <time>2022-08-25T08:06:11Z</time>
      </trkpt>
      <trkpt lat="42.76446799999998" lon="-1.7078900000000046">
        <ele>490.815</ele>
        <time>2022-08-25T08:06:12Z</time>
      </trkpt>
      <trkpt lat="42.76445199999998" lon="-1.7079150000000045">
        <ele>490.847</ele>
        <time>2022-08-25T08:06:13Z</time>
      </trkpt>
      <trkpt lat="42.764443999999976" lon="-1.7079410000000046">
        <ele>491.029</ele>
        <time>2022-08-25T08:06:14Z</time>
      </trkpt>
      <trkpt lat="42.764432999999975" lon="-1.7079600000000046">
        <ele>491.221</ele>
        <time>2022-08-25T08:06:15Z</time>
      </trkpt>
      <trkpt lat="42.76442099999998" lon="-1.7079800000000045">
        <ele>491.409</ele>
        <time>2022-08-25T08:06:16Z</time>
      </trkpt>
      <trkpt lat="42.76440699999998" lon="-1.7080040000000045">
        <ele>491.615</ele>
        <time>2022-08-25T08:06:17Z</time>
      </trkpt>
      <trkpt lat="42.764390999999975" lon="-1.7080260000000045">
        <ele>491.835</ele>
        <time>2022-08-25T08:06:18Z</time>
      </trkpt>
      <trkpt lat="42.764370999999976" lon="-1.7080440000000046">
        <ele>491.825</ele>
        <time>2022-08-25T08:06:19Z</time>
      </trkpt>
      <trkpt lat="42.76435499999997" lon="-1.7080640000000045">
        <ele>491.881</ele>
        <time>2022-08-25T08:06:20Z</time>
      </trkpt>
      <trkpt lat="42.764339999999976" lon="-1.7080830000000045">
        <ele>492.023</ele>
        <time>2022-08-25T08:06:21Z</time>
      </trkpt>
      <trkpt lat="42.764322999999976" lon="-1.7080990000000045">
        <ele>492.080</ele>
        <time>2022-08-25T08:06:22Z</time>
      </trkpt>
      <trkpt lat="42.764311999999975" lon="-1.7081130000000044">
        <ele>492.053</ele>
        <time>2022-08-25T08:06:23Z</time>
      </trkpt>
      <trkpt lat="42.764294999999976" lon="-1.7081270000000044">
        <ele>492.279</ele>
        <time>2022-08-25T08:06:24Z</time>
      </trkpt>
      <trkpt lat="42.764294999999976" lon="-1.7081270000000044">
        <ele>492.250</ele>
        <time>2022-08-25T08:06:25Z</time>
      </trkpt>
      <trkpt lat="42.76425799999998" lon="-1.7081680000000043">
        <ele>492.464</ele>
        <time>2022-08-25T08:06:26Z</time>
      </trkpt>
      <trkpt lat="42.76423699999998" lon="-1.7081910000000045">
        <ele>492.406</ele>
        <time>2022-08-25T08:06:27Z</time>
      </trkpt>
      <trkpt lat="42.76421199999998" lon="-1.7082130000000044">
        <ele>492.616</ele>
        <time>2022-08-25T08:06:28Z</time>
      </trkpt>
      <trkpt lat="42.76418599999998" lon="-1.7082340000000045">
        <ele>492.809</ele>
        <time>2022-08-25T08:06:29Z</time>
      </trkpt>
      <trkpt lat="42.76416399999998" lon="-1.7082530000000045">
        <ele>493.057</ele>
        <time>2022-08-25T08:06:30Z</time>
      </trkpt>
      <trkpt lat="42.76413799999998" lon="-1.7082690000000045">
        <ele>493.287</ele>
        <time>2022-08-25T08:06:31Z</time>
      </trkpt>
      <trkpt lat="42.76411899999998" lon="-1.7082830000000044">
        <ele>493.237</ele>
        <time>2022-08-25T08:06:32Z</time>
      </trkpt>
      <trkpt lat="42.76409999999998" lon="-1.7082990000000045">
        <ele>493.243</ele>
        <time>2022-08-25T08:06:33Z</time>
      </trkpt>
      <trkpt lat="42.76407799999998" lon="-1.7083200000000045">
        <ele>493.285</ele>
        <time>2022-08-25T08:06:34Z</time>
      </trkpt>
      <trkpt lat="42.76405699999998" lon="-1.7083360000000045">
        <ele>493.222</ele>
        <time>2022-08-25T08:06:35Z</time>
      </trkpt>
      <trkpt lat="42.76403799999998" lon="-1.7083520000000045">
        <ele>493.215</ele>
        <time>2022-08-25T08:06:36Z</time>
      </trkpt>
      <trkpt lat="42.76401999999998" lon="-1.7083640000000044">
        <ele>493.421</ele>
        <time>2022-08-25T08:06:37Z</time>
      </trkpt>
      <trkpt lat="42.76400099999998" lon="-1.7083810000000044">
        <ele>493.832</ele>
        <time>2022-08-25T08:06:38Z</time>
      </trkpt>
      <trkpt lat="42.76397999999998" lon="-1.7084040000000045">
        <ele>493.865</ele>
        <time>2022-08-25T08:06:39Z</time>
      </trkpt>
      <trkpt lat="42.763956999999984" lon="-1.7084290000000044">
        <ele>494.068</ele>
        <time>2022-08-25T08:06:40Z</time>
      </trkpt>
      <trkpt lat="42.76393799999998" lon="-1.7084520000000045">
        <ele>494.014</ele>
        <time>2022-08-25T08:06:41Z</time>
      </trkpt>
      <trkpt lat="42.76391599999998" lon="-1.7084790000000045">
        <ele>493.809</ele>
        <time>2022-08-25T08:06:42Z</time>
      </trkpt>
      <trkpt lat="42.76389299999998" lon="-1.7085080000000046">
        <ele>493.877</ele>
        <time>2022-08-25T08:06:43Z</time>
      </trkpt>
      <trkpt lat="42.763860999999984" lon="-1.7085460000000046">
        <ele>493.437</ele>
        <time>2022-08-25T08:06:44Z</time>
      </trkpt>
      <trkpt lat="42.763823999999985" lon="-1.7085880000000047">
        <ele>493.617</ele>
        <time>2022-08-25T08:06:45Z</time>
      </trkpt>
      <trkpt lat="42.76374899999998" lon="-1.7086720000000046">
        <ele>493.663</ele>
        <time>2022-08-25T08:06:47Z</time>
      </trkpt>
      <trkpt lat="42.76365099999998" lon="-1.7087540000000045">
        <ele>493.075</ele>
        <time>2022-08-25T08:06:49Z</time>
      </trkpt>
      <trkpt lat="42.76359999999998" lon="-1.7087860000000046">
        <ele>493.082</ele>
        <time>2022-08-25T08:06:50Z</time>
      </trkpt>
      <trkpt lat="42.76355599999998" lon="-1.7088110000000045">
        <ele>492.875</ele>
        <time>2022-08-25T08:06:51Z</time>
      </trkpt>
      <trkpt lat="42.76350699999998" lon="-1.7088430000000046">
        <ele>492.851</ele>
        <time>2022-08-25T08:06:52Z</time>
      </trkpt>
      <trkpt lat="42.76347399999998" lon="-1.7088670000000046">
        <ele>492.852</ele>
        <time>2022-08-25T08:06:53Z</time>
      </trkpt>
      <trkpt lat="42.76344599999998" lon="-1.7088930000000047">
        <ele>492.881</ele>
        <time>2022-08-25T08:06:54Z</time>
      </trkpt>
      <trkpt lat="42.76342399999998" lon="-1.7089190000000047">
        <ele>492.861</ele>
        <time>2022-08-25T08:06:55Z</time>
      </trkpt>
      <trkpt lat="42.76339099999998" lon="-1.7089720000000048">
        <ele>492.817</ele>
        <time>2022-08-25T08:06:57Z</time>
      </trkpt>
      <trkpt lat="42.763349999999974" lon="-1.7090290000000048">
        <ele>492.609</ele>
        <time>2022-08-25T08:06:59Z</time>
      </trkpt>
      <trkpt lat="42.76332499999997" lon="-1.7090570000000047">
        <ele>492.659</ele>
        <time>2022-08-25T08:07:00Z</time>
      </trkpt>
      <trkpt lat="42.763298999999975" lon="-1.7090840000000047">
        <ele>492.689</ele>
        <time>2022-08-25T08:07:01Z</time>
      </trkpt>
      <trkpt lat="42.76325899999998" lon="-1.7091240000000048">
        <ele>492.299</ele>
        <time>2022-08-25T08:07:03Z</time>
      </trkpt>
      <trkpt lat="42.76322999999998" lon="-1.7091500000000048">
        <ele>492.245</ele>
        <time>2022-08-25T08:07:04Z</time>
      </trkpt>
      <trkpt lat="42.76319299999998" lon="-1.7091800000000048">
        <ele>492.067</ele>
        <time>2022-08-25T08:07:05Z</time>
      </trkpt>
      <trkpt lat="42.76315299999998" lon="-1.7092420000000048">
        <ele>492.084</ele>
        <time>2022-08-25T08:07:07Z</time>
      </trkpt>
      <trkpt lat="42.76314799999998" lon="-1.7092720000000048">
        <ele>492.027</ele>
        <time>2022-08-25T08:07:08Z</time>
      </trkpt>
      <trkpt lat="42.76315099999998" lon="-1.7093020000000048">
        <ele>492.013</ele>
        <time>2022-08-25T08:07:09Z</time>
      </trkpt>
      <trkpt lat="42.76315199999998" lon="-1.7093350000000047">
        <ele>492.084</ele>
        <time>2022-08-25T08:07:10Z</time>
      </trkpt>
      <trkpt lat="42.76315399999998" lon="-1.7093620000000047">
        <ele>492.064</ele>
        <time>2022-08-25T08:07:11Z</time>
      </trkpt>
      <trkpt lat="42.76315599999998" lon="-1.7093850000000048">
        <ele>492.006</ele>
        <time>2022-08-25T08:07:12Z</time>
      </trkpt>
      <trkpt lat="42.76315599999998" lon="-1.7094130000000047">
        <ele>492.016</ele>
        <time>2022-08-25T08:07:13Z</time>
      </trkpt>
      <trkpt lat="42.76314999999998" lon="-1.7095030000000047">
        <ele>492.209</ele>
        <time>2022-08-25T08:07:16Z</time>
      </trkpt>
      <trkpt lat="42.763142999999985" lon="-1.7095820000000046">
        <ele>492.697</ele>
        <time>2022-08-25T08:07:18Z</time>
      </trkpt>
      <trkpt lat="42.76314199999999" lon="-1.7096340000000045">
        <ele>492.637</ele>
        <time>2022-08-25T08:07:19Z</time>
      </trkpt>
      <trkpt lat="42.76314199999999" lon="-1.7096690000000045">
        <ele>492.827</ele>
        <time>2022-08-25T08:07:20Z</time>
      </trkpt>
      <trkpt lat="42.76312999999999" lon="-1.7097120000000046">
        <ele>492.863</ele>
        <time>2022-08-25T08:07:21Z</time>
      </trkpt>
      <trkpt lat="42.76311899999999" lon="-1.7097870000000046">
        <ele>493.245</ele>
        <time>2022-08-25T08:07:23Z</time>
      </trkpt>
      <trkpt lat="42.76311099999999" lon="-1.7098240000000047">
        <ele>493.422</ele>
        <time>2022-08-25T08:07:24Z</time>
      </trkpt>
      <trkpt lat="42.763105999999986" lon="-1.7098610000000047">
        <ele>493.655</ele>
        <time>2022-08-25T08:07:25Z</time>
      </trkpt>
      <trkpt lat="42.76310299999999" lon="-1.7098900000000048">
        <ele>493.691</ele>
        <time>2022-08-25T08:07:26Z</time>
      </trkpt>
      <trkpt lat="42.763091999999986" lon="-1.7099180000000047">
        <ele>493.862</ele>
        <time>2022-08-25T08:07:27Z</time>
      </trkpt>
      <trkpt lat="42.76308299999999" lon="-1.7099440000000048">
        <ele>494.088</ele>
        <time>2022-08-25T08:07:28Z</time>
      </trkpt>
      <trkpt lat="42.763074999999986" lon="-1.7099650000000048">
        <ele>494.224</ele>
        <time>2022-08-25T08:07:29Z</time>
      </trkpt>
      <trkpt lat="42.76306899999999" lon="-1.7099900000000048">
        <ele>494.426</ele>
        <time>2022-08-25T08:07:30Z</time>
      </trkpt>
      <trkpt lat="42.76305999999999" lon="-1.7100170000000048">
        <ele>494.609</ele>
        <time>2022-08-25T08:07:31Z</time>
      </trkpt>
      <trkpt lat="42.76301099999999" lon="-1.7100640000000047">
        <ele>495.239</ele>
        <time>2022-08-25T08:07:33Z</time>
      </trkpt>
      <trkpt lat="42.76300099999999" lon="-1.7100890000000046">
        <ele>495.429</ele>
        <time>2022-08-25T08:07:34Z</time>
      </trkpt>
      <trkpt lat="42.76298399999999" lon="-1.7101570000000046">
        <ele>495.659</ele>
        <time>2022-08-25T08:07:36Z</time>
      </trkpt>
      <trkpt lat="42.76298399999999" lon="-1.7101570000000046">
        <ele>495.645</ele>
        <time>2022-08-25T08:07:37Z</time>
      </trkpt>
      <trkpt lat="42.76297299999999" lon="-1.7101880000000045">
        <ele>495.857</ele>
        <time>2022-08-25T08:07:38Z</time>
      </trkpt>
      <trkpt lat="42.762942999999986" lon="-1.7102050000000044">
        <ele>496.024</ele>
        <time>2022-08-25T08:07:39Z</time>
      </trkpt>
      <trkpt lat="42.76292699999998" lon="-1.7102270000000044">
        <ele>496.097</ele>
        <time>2022-08-25T08:07:40Z</time>
      </trkpt>
      <trkpt lat="42.76291099999998" lon="-1.7102430000000044">
        <ele>496.263</ele>
        <time>2022-08-25T08:07:41Z</time>
      </trkpt>
      <trkpt lat="42.76289499999998" lon="-1.7102530000000045">
        <ele>496.264</ele>
        <time>2022-08-25T08:07:42Z</time>
      </trkpt>
      <trkpt lat="42.76288099999998" lon="-1.7102630000000045">
        <ele>496.423</ele>
        <time>2022-08-25T08:07:43Z</time>
      </trkpt>
      <trkpt lat="42.76286999999998" lon="-1.7102720000000045">
        <ele>496.483</ele>
        <time>2022-08-25T08:07:44Z</time>
      </trkpt>
      <trkpt lat="42.76285299999998" lon="-1.7102840000000044">
        <ele>496.611</ele>
        <time>2022-08-25T08:07:45Z</time>
      </trkpt>
      <trkpt lat="42.76284199999998" lon="-1.7102970000000044">
        <ele>496.809</ele>
        <time>2022-08-25T08:07:46Z</time>
      </trkpt>
      <trkpt lat="42.76282999999998" lon="-1.7103110000000044">
        <ele>497.043</ele>
        <time>2022-08-25T08:07:47Z</time>
      </trkpt>
      <trkpt lat="42.76281999999998" lon="-1.7103220000000043">
        <ele>497.443</ele>
        <time>2022-08-25T08:07:48Z</time>
      </trkpt>
      <trkpt lat="42.76280499999998" lon="-1.7103300000000043">
        <ele>497.493</ele>
        <time>2022-08-25T08:07:49Z</time>
      </trkpt>
      <trkpt lat="42.76278399999998" lon="-1.7103380000000044">
        <ele>497.889</ele>
        <time>2022-08-25T08:07:50Z</time>
      </trkpt>
      <trkpt lat="42.76275699999998" lon="-1.7103490000000043">
        <ele>497.881</ele>
        <time>2022-08-25T08:07:51Z</time>
      </trkpt>
      <trkpt lat="42.76274099999998" lon="-1.7103570000000043">
        <ele>498.098</ele>
        <time>2022-08-25T08:07:52Z</time>
      </trkpt>
      <trkpt lat="42.76272099999998" lon="-1.7103760000000043">
        <ele>498.021</ele>
        <time>2022-08-25T08:07:53Z</time>
      </trkpt>
      <trkpt lat="42.76270399999998" lon="-1.7103970000000044">
        <ele>498.087</ele>
        <time>2022-08-25T08:07:54Z</time>
      </trkpt>
      <trkpt lat="42.76268599999998" lon="-1.7104150000000045">
        <ele>498.268</ele>
        <time>2022-08-25T08:07:55Z</time>
      </trkpt>
      <trkpt lat="42.76267299999998" lon="-1.7104340000000045">
        <ele>498.238</ele>
        <time>2022-08-25T08:07:56Z</time>
      </trkpt>
      <trkpt lat="42.762659999999975" lon="-1.7104610000000045">
        <ele>498.270</ele>
        <time>2022-08-25T08:07:57Z</time>
      </trkpt>
      <trkpt lat="42.762645999999975" lon="-1.7104800000000044">
        <ele>498.217</ele>
        <time>2022-08-25T08:07:58Z</time>
      </trkpt>
      <trkpt lat="42.762634999999975" lon="-1.7105040000000045">
        <ele>498.409</ele>
        <time>2022-08-25T08:07:59Z</time>
      </trkpt>
      <trkpt lat="42.76262199999997" lon="-1.7105340000000044">
        <ele>498.484</ele>
        <time>2022-08-25T08:08:00Z</time>
      </trkpt>
      <trkpt lat="42.76261299999997" lon="-1.7105570000000045">
        <ele>498.684</ele>
        <time>2022-08-25T08:08:01Z</time>
      </trkpt>
      <trkpt lat="42.762600999999975" lon="-1.7105810000000046">
        <ele>498.824</ele>
        <time>2022-08-25T08:08:02Z</time>
      </trkpt>
      <trkpt lat="42.76258799999997" lon="-1.7106000000000046">
        <ele>498.880</ele>
        <time>2022-08-25T08:08:03Z</time>
      </trkpt>
      <trkpt lat="42.762578999999974" lon="-1.7106260000000046">
        <ele>499.022</ele>
        <time>2022-08-25T08:08:04Z</time>
      </trkpt>
      <trkpt lat="42.76257099999997" lon="-1.7106560000000046">
        <ele>499.239</ele>
        <time>2022-08-25T08:08:05Z</time>
      </trkpt>
      <trkpt lat="42.762564999999974" lon="-1.7106760000000045">
        <ele>499.462</ele>
        <time>2022-08-25T08:08:06Z</time>
      </trkpt>
      <trkpt lat="42.76255399999997" lon="-1.7107000000000046">
        <ele>499.868</ele>
        <time>2022-08-25T08:08:07Z</time>
      </trkpt>
      <trkpt lat="42.76254699999998" lon="-1.7107160000000046">
        <ele>499.899</ele>
        <time>2022-08-25T08:08:08Z</time>
      </trkpt>
      <trkpt lat="42.76253799999998" lon="-1.7107350000000046">
        <ele>500.063</ele>
        <time>2022-08-25T08:08:09Z</time>
      </trkpt>
      <trkpt lat="42.76252699999998" lon="-1.7107530000000046">
        <ele>500.044</ele>
        <time>2022-08-25T08:08:10Z</time>
      </trkpt>
      <trkpt lat="42.76251299999998" lon="-1.7107750000000046">
        <ele>500.218</ele>
        <time>2022-08-25T08:08:11Z</time>
      </trkpt>
      <trkpt lat="42.76250099999998" lon="-1.7107920000000045">
        <ele>500.409</ele>
        <time>2022-08-25T08:08:12Z</time>
      </trkpt>
      <trkpt lat="42.762487999999976" lon="-1.7108090000000045">
        <ele>500.697</ele>
        <time>2022-08-25T08:08:13Z</time>
      </trkpt>
      <trkpt lat="42.76246799999998" lon="-1.7108330000000045">
        <ele>500.637</ele>
        <time>2022-08-25T08:08:14Z</time>
      </trkpt>
      <trkpt lat="42.76245299999998" lon="-1.7108540000000045">
        <ele>500.657</ele>
        <time>2022-08-25T08:08:15Z</time>
      </trkpt>
      <trkpt lat="42.76243499999998" lon="-1.7108740000000044">
        <ele>500.843</ele>
        <time>2022-08-25T08:08:16Z</time>
      </trkpt>
      <trkpt lat="42.76242099999998" lon="-1.7108880000000044">
        <ele>501.085</ele>
        <time>2022-08-25T08:08:17Z</time>
      </trkpt>
      <trkpt lat="42.76240499999998" lon="-1.7109040000000044">
        <ele>501.292</ele>
        <time>2022-08-25T08:08:18Z</time>
      </trkpt>
      <trkpt lat="42.76238299999998" lon="-1.7109250000000045">
        <ele>501.475</ele>
        <time>2022-08-25T08:08:19Z</time>
      </trkpt>
      <trkpt lat="42.76236099999998" lon="-1.7109420000000044">
        <ele>501.671</ele>
        <time>2022-08-25T08:08:20Z</time>
      </trkpt>
      <trkpt lat="42.762341999999975" lon="-1.7109570000000045">
        <ele>501.642</ele>
        <time>2022-08-25T08:08:21Z</time>
      </trkpt>
      <trkpt lat="42.762327999999975" lon="-1.7109730000000045">
        <ele>501.853</ele>
        <time>2022-08-25T08:08:22Z</time>
      </trkpt>
      <trkpt lat="42.762307999999976" lon="-1.7109940000000046">
        <ele>501.804</ele>
        <time>2022-08-25T08:08:23Z</time>
      </trkpt>
      <trkpt lat="42.762288999999974" lon="-1.7110140000000045">
        <ele>501.814</ele>
        <time>2022-08-25T08:08:24Z</time>
      </trkpt>
      <trkpt lat="42.76226699999997" lon="-1.7110330000000045">
        <ele>502.009</ele>
        <time>2022-08-25T08:08:25Z</time>
      </trkpt>
      <trkpt lat="42.76224799999997" lon="-1.7110500000000044">
        <ele>502.256</ele>
        <time>2022-08-25T08:08:26Z</time>
      </trkpt>
      <trkpt lat="42.76223599999997" lon="-1.7110630000000044">
        <ele>502.276</ele>
        <time>2022-08-25T08:08:27Z</time>
      </trkpt>
      <trkpt lat="42.76223599999997" lon="-1.7110630000000044">
        <ele>502.276</ele>
        <time>2022-08-25T08:08:28Z</time>
      </trkpt>
      <trkpt lat="42.762195999999975" lon="-1.7111060000000045">
        <ele>502.452</ele>
        <time>2022-08-25T08:08:29Z</time>
      </trkpt>
      <trkpt lat="42.76217699999997" lon="-1.7111250000000044">
        <ele>502.414</ele>
        <time>2022-08-25T08:08:30Z</time>
      </trkpt>
      <trkpt lat="42.762161999999975" lon="-1.7111400000000045">
        <ele>502.631</ele>
        <time>2022-08-25T08:08:31Z</time>
      </trkpt>
      <trkpt lat="42.76214399999998" lon="-1.7111600000000045">
        <ele>502.624</ele>
        <time>2022-08-25T08:08:32Z</time>
      </trkpt>
      <trkpt lat="42.76212299999998" lon="-1.7111830000000046">
        <ele>502.630</ele>
        <time>2022-08-25T08:08:33Z</time>
      </trkpt>
      <trkpt lat="42.76210899999998" lon="-1.7111980000000047">
        <ele>502.641</ele>
        <time>2022-08-25T08:08:34Z</time>
      </trkpt>
      <trkpt lat="42.76209399999998" lon="-1.7112140000000047">
        <ele>502.872</ele>
        <time>2022-08-25T08:08:35Z</time>
      </trkpt>
      <trkpt lat="42.76207999999998" lon="-1.7112300000000047">
        <ele>503.013</ele>
        <time>2022-08-25T08:08:36Z</time>
      </trkpt>
      <trkpt lat="42.76206699999998" lon="-1.7112490000000047">
        <ele>503.214</ele>
        <time>2022-08-25T08:08:37Z</time>
      </trkpt>
      <trkpt lat="42.76205399999998" lon="-1.7112690000000046">
        <ele>503.409</ele>
        <time>2022-08-25T08:08:38Z</time>
      </trkpt>
      <trkpt lat="42.76204299999998" lon="-1.7112880000000046">
        <ele>503.888</ele>
        <time>2022-08-25T08:08:39Z</time>
      </trkpt>
      <trkpt lat="42.76203099999998" lon="-1.7113090000000046">
        <ele>504.068</ele>
        <time>2022-08-25T08:08:40Z</time>
      </trkpt>
      <trkpt lat="42.762020999999976" lon="-1.7113240000000047">
        <ele>504.078</ele>
        <time>2022-08-25T08:08:41Z</time>
      </trkpt>
      <trkpt lat="42.762009999999975" lon="-1.7113410000000047">
        <ele>504.284</ele>
        <time>2022-08-25T08:08:42Z</time>
      </trkpt>
      <trkpt lat="42.761992999999975" lon="-1.7113640000000048">
        <ele>504.226</ele>
        <time>2022-08-25T08:08:43Z</time>
      </trkpt>
      <trkpt lat="42.761978999999975" lon="-1.7113850000000048">
        <ele>504.253</ele>
        <time>2022-08-25T08:08:44Z</time>
      </trkpt>
      <trkpt lat="42.761967999999975" lon="-1.7114050000000047">
        <ele>504.246</ele>
        <time>2022-08-25T08:08:45Z</time>
      </trkpt>
      <trkpt lat="42.761958999999976" lon="-1.7114220000000047">
        <ele>504.272</ele>
        <time>2022-08-25T08:08:46Z</time>
      </trkpt>
      <trkpt lat="42.76194399999998" lon="-1.7114430000000047">
        <ele>504.463</ele>
        <time>2022-08-25T08:08:47Z</time>
      </trkpt>
      <trkpt lat="42.761930999999976" lon="-1.7114650000000047">
        <ele>504.442</ele>
        <time>2022-08-25T08:08:48Z</time>
      </trkpt>
      <trkpt lat="42.761916999999976" lon="-1.7114880000000048">
        <ele>504.622</ele>
        <time>2022-08-25T08:08:49Z</time>
      </trkpt>
      <trkpt lat="42.76190199999998" lon="-1.7115050000000047">
        <ele>504.414</ele>
        <time>2022-08-25T08:08:50Z</time>
      </trkpt>
      <trkpt lat="42.761891999999975" lon="-1.7115190000000047">
        <ele>504.609</ele>
        <time>2022-08-25T08:08:51Z</time>
      </trkpt>
      <trkpt lat="42.761880999999974" lon="-1.7115370000000047">
        <ele>504.635</ele>
        <time>2022-08-25T08:08:52Z</time>
      </trkpt>
      <trkpt lat="42.76186999999997" lon="-1.7115610000000048">
        <ele>504.825</ele>
        <time>2022-08-25T08:08:53Z</time>
      </trkpt>
      <trkpt lat="42.761860999999975" lon="-1.7115810000000047">
        <ele>505.065</ele>
        <time>2022-08-25T08:08:54Z</time>
      </trkpt>
      <trkpt lat="42.761851999999976" lon="-1.7115980000000046">
        <ele>505.231</ele>
        <time>2022-08-25T08:08:55Z</time>
      </trkpt>
      <trkpt lat="42.761840999999976" lon="-1.7116210000000047">
        <ele>505.693</ele>
        <time>2022-08-25T08:08:56Z</time>
      </trkpt>
      <trkpt lat="42.761826999999975" lon="-1.7116500000000048">
        <ele>505.690</ele>
        <time>2022-08-25T08:08:57Z</time>
      </trkpt>
      <trkpt lat="42.76181799999998" lon="-1.7116680000000049">
        <ele>506.073</ele>
        <time>2022-08-25T08:08:58Z</time>
      </trkpt>
      <trkpt lat="42.76180399999998" lon="-1.711697000000005">
        <ele>506.099</ele>
        <time>2022-08-25T08:08:59Z</time>
      </trkpt>
      <trkpt lat="42.76179799999998" lon="-1.711715000000005">
        <ele>506.270</ele>
        <time>2022-08-25T08:09:00Z</time>
      </trkpt>
      <trkpt lat="42.76178899999998" lon="-1.711738000000005">
        <ele>506.254</ele>
        <time>2022-08-25T08:09:01Z</time>
      </trkpt>
      <trkpt lat="42.76177699999998" lon="-1.7117640000000052">
        <ele>506.456</ele>
        <time>2022-08-25T08:09:02Z</time>
      </trkpt>
      <trkpt lat="42.76177699999998" lon="-1.7117640000000052">
        <ele>506.611</ele>
        <time>2022-08-25T08:09:03Z</time>
      </trkpt>
      <trkpt lat="42.76176499999998" lon="-1.7118050000000051">
        <ele>506.809</ele>
        <time>2022-08-25T08:09:04Z</time>
      </trkpt>
      <trkpt lat="42.76175699999998" lon="-1.7118310000000052">
        <ele>507.036</ele>
        <time>2022-08-25T08:09:05Z</time>
      </trkpt>
      <trkpt lat="42.76174599999998" lon="-1.7118570000000053">
        <ele>507.046</ele>
        <time>2022-08-25T08:09:06Z</time>
      </trkpt>
      <trkpt lat="42.76173499999998" lon="-1.7118870000000053">
        <ele>507.226</ele>
        <time>2022-08-25T08:09:07Z</time>
      </trkpt>
      <trkpt lat="42.76172399999998" lon="-1.7119110000000053">
        <ele>507.662</ele>
        <time>2022-08-25T08:09:08Z</time>
      </trkpt>
      <trkpt lat="42.76171399999998" lon="-1.7119360000000052">
        <ele>507.684</ele>
        <time>2022-08-25T08:09:09Z</time>
      </trkpt>
      <trkpt lat="42.76170799999998" lon="-1.7119600000000053">
        <ele>508.061</ele>
        <time>2022-08-25T08:09:10Z</time>
      </trkpt>
      <trkpt lat="42.76169899999998" lon="-1.7119940000000053">
        <ele>508.054</ele>
        <time>2022-08-25T08:09:11Z</time>
      </trkpt>
      <trkpt lat="42.76169099999998" lon="-1.7120220000000053">
        <ele>508.260</ele>
        <time>2022-08-25T08:09:12Z</time>
      </trkpt>
      <trkpt lat="42.76168199999998" lon="-1.7120500000000052">
        <ele>508.661</ele>
        <time>2022-08-25T08:09:13Z</time>
      </trkpt>
      <trkpt lat="42.76167299999998" lon="-1.7120720000000051">
        <ele>508.678</ele>
        <time>2022-08-25T08:09:14Z</time>
      </trkpt>
      <trkpt lat="42.76166299999998" lon="-1.7121010000000052">
        <ele>508.833</ele>
        <time>2022-08-25T08:09:15Z</time>
      </trkpt>
      <trkpt lat="42.761652999999974" lon="-1.7121310000000052">
        <ele>509.026</ele>
        <time>2022-08-25T08:09:16Z</time>
      </trkpt>
      <trkpt lat="42.76164199999997" lon="-1.7121600000000052">
        <ele>509.009</ele>
        <time>2022-08-25T08:09:17Z</time>
      </trkpt>
      <trkpt lat="42.76162899999997" lon="-1.7121880000000052">
        <ele>509.298</ele>
        <time>2022-08-25T08:09:18Z</time>
      </trkpt>
      <trkpt lat="42.76161899999997" lon="-1.7122150000000051">
        <ele>509.298</ele>
        <time>2022-08-25T08:09:19Z</time>
      </trkpt>
      <trkpt lat="42.76160399999997" lon="-1.712248000000005">
        <ele>509.268</ele>
        <time>2022-08-25T08:09:20Z</time>
      </trkpt>
      <trkpt lat="42.76158799999997" lon="-1.7122820000000052">
        <ele>509.254</ele>
        <time>2022-08-25T08:09:21Z</time>
      </trkpt>
      <trkpt lat="42.76157899999997" lon="-1.7123040000000052">
        <ele>509.236</ele>
        <time>2022-08-25T08:09:22Z</time>
      </trkpt>
      <trkpt lat="42.76156199999997" lon="-1.712337000000005">
        <ele>509.263</ele>
        <time>2022-08-25T08:09:23Z</time>
      </trkpt>
      <trkpt lat="42.76154899999997" lon="-1.7123610000000051">
        <ele>509.256</ele>
        <time>2022-08-25T08:09:24Z</time>
      </trkpt>
      <trkpt lat="42.761532999999964" lon="-1.7123880000000051">
        <ele>509.232</ele>
        <time>2022-08-25T08:09:25Z</time>
      </trkpt>
      <trkpt lat="42.76150599999996" lon="-1.7124170000000052">
        <ele>509.243</ele>
        <time>2022-08-25T08:09:26Z</time>
      </trkpt>
      <trkpt lat="42.76148299999996" lon="-1.7124350000000053">
        <ele>509.284</ele>
        <time>2022-08-25T08:09:27Z</time>
      </trkpt>
      <trkpt lat="42.76145199999996" lon="-1.7124600000000052">
        <ele>509.207</ele>
        <time>2022-08-25T08:09:28Z</time>
      </trkpt>
      <trkpt lat="42.761425999999965" lon="-1.7124760000000052">
        <ele>509.217</ele>
        <time>2022-08-25T08:09:29Z</time>
      </trkpt>
      <trkpt lat="42.761399999999966" lon="-1.7124980000000052">
        <ele>509.209</ele>
        <time>2022-08-25T08:09:30Z</time>
      </trkpt>
      <trkpt lat="42.761368999999966" lon="-1.7125240000000053">
        <ele>509.229</ele>
        <time>2022-08-25T08:09:31Z</time>
      </trkpt>
      <trkpt lat="42.761368999999966" lon="-1.7125240000000053">
        <ele>509.279</ele>
        <time>2022-08-25T08:09:32Z</time>
      </trkpt>
      <trkpt lat="42.76128899999997" lon="-1.7125800000000053">
        <ele>509.469</ele>
        <time>2022-08-25T08:09:34Z</time>
      </trkpt>
      <trkpt lat="42.76125899999997" lon="-1.7125990000000053">
        <ele>509.475</ele>
        <time>2022-08-25T08:09:35Z</time>
      </trkpt>
      <trkpt lat="42.761031999999965" lon="-1.7127800000000053">
        <ele>509.627</ele>
        <time>2022-08-25T08:09:43Z</time>
      </trkpt>
      <trkpt lat="42.761005999999966" lon="-1.7127980000000054">
        <ele>509.634</ele>
        <time>2022-08-25T08:09:44Z</time>
      </trkpt>
      <trkpt lat="42.76097699999997" lon="-1.7128190000000054">
        <ele>509.677</ele>
        <time>2022-08-25T08:09:45Z</time>
      </trkpt>
      <trkpt lat="42.76095999999997" lon="-1.7128280000000053">
        <ele>509.683</ele>
        <time>2022-08-25T08:09:46Z</time>
      </trkpt>
      <trkpt lat="42.76093799999997" lon="-1.7128450000000053">
        <ele>509.674</ele>
        <time>2022-08-25T08:09:47Z</time>
      </trkpt>
      <trkpt lat="42.760879999999965" lon="-1.7128960000000053">
        <ele>510.457</ele>
        <time>2022-08-25T08:09:50Z</time>
      </trkpt>
      <trkpt lat="42.760879999999965" lon="-1.7128960000000053">
        <ele>510.400</ele>
        <time>2022-08-25T08:09:51Z</time>
      </trkpt>
      <trkpt lat="42.76083399999997" lon="-1.7129280000000053">
        <ele>510.820</ele>
        <time>2022-08-25T08:09:52Z</time>
      </trkpt>
      <trkpt lat="42.76081999999997" lon="-1.7129370000000053">
        <ele>510.809</ele>
        <time>2022-08-25T08:09:53Z</time>
      </trkpt>
      <trkpt lat="42.760800999999965" lon="-1.7129500000000053">
        <ele>511.066</ele>
        <time>2022-08-25T08:09:54Z</time>
      </trkpt>
      <trkpt lat="42.76073799999997" lon="-1.7129910000000053">
        <ele>511.486</ele>
        <time>2022-08-25T08:09:57Z</time>
      </trkpt>
      <trkpt lat="42.76071599999997" lon="-1.7130000000000052">
        <ele>511.686</ele>
        <time>2022-08-25T08:09:58Z</time>
      </trkpt>
      <trkpt lat="42.76069199999996" lon="-1.7130070000000053">
        <ele>511.872</ele>
        <time>2022-08-25T08:09:59Z</time>
      </trkpt>
      <trkpt lat="42.760671999999964" lon="-1.7130150000000053">
        <ele>512.094</ele>
        <time>2022-08-25T08:10:00Z</time>
      </trkpt>
      <trkpt lat="42.760648999999965" lon="-1.7130270000000052">
        <ele>512.421</ele>
        <time>2022-08-25T08:10:01Z</time>
      </trkpt>
      <trkpt lat="42.76062999999996" lon="-1.7130400000000052">
        <ele>512.684</ele>
        <time>2022-08-25T08:10:02Z</time>
      </trkpt>
      <trkpt lat="42.760609999999964" lon="-1.7130500000000053">
        <ele>512.680</ele>
        <time>2022-08-25T08:10:03Z</time>
      </trkpt>
      <trkpt lat="42.76058499999996" lon="-1.7130580000000053">
        <ele>512.481</ele>
        <time>2022-08-25T08:10:04Z</time>
      </trkpt>
      <trkpt lat="42.76055799999996" lon="-1.7130690000000053">
        <ele>512.828</ele>
        <time>2022-08-25T08:10:05Z</time>
      </trkpt>
      <trkpt lat="42.76053799999996" lon="-1.7130800000000053">
        <ele>513.289</ele>
        <time>2022-08-25T08:10:06Z</time>
      </trkpt>
      <trkpt lat="42.760519999999964" lon="-1.7130850000000053">
        <ele>513.217</ele>
        <time>2022-08-25T08:10:07Z</time>
      </trkpt>
      <trkpt lat="42.76050099999996" lon="-1.7130910000000052">
        <ele>513.409</ele>
        <time>2022-08-25T08:10:08Z</time>
      </trkpt>
      <trkpt lat="42.76047899999996" lon="-1.7131000000000052">
        <ele>513.653</ele>
        <time>2022-08-25T08:10:09Z</time>
      </trkpt>
      <trkpt lat="42.76046199999996" lon="-1.7131070000000053">
        <ele>513.623</ele>
        <time>2022-08-25T08:10:10Z</time>
      </trkpt>
      <trkpt lat="42.760443999999964" lon="-1.7131120000000053">
        <ele>513.643</ele>
        <time>2022-08-25T08:10:11Z</time>
      </trkpt>
      <trkpt lat="42.76042799999996" lon="-1.7131160000000052">
        <ele>513.659</ele>
        <time>2022-08-25T08:10:12Z</time>
      </trkpt>
      <trkpt lat="42.760409999999965" lon="-1.7131220000000051">
        <ele>513.631</ele>
        <time>2022-08-25T08:10:13Z</time>
      </trkpt>
      <trkpt lat="42.76038799999996" lon="-1.713131000000005">
        <ele>513.688</ele>
        <time>2022-08-25T08:10:14Z</time>
      </trkpt>
      <trkpt lat="42.76037399999996" lon="-1.7131380000000052">
        <ele>513.641</ele>
        <time>2022-08-25T08:10:15Z</time>
      </trkpt>
      <trkpt lat="42.760353999999964" lon="-1.713147000000005">
        <ele>513.667</ele>
        <time>2022-08-25T08:10:16Z</time>
      </trkpt>
      <trkpt lat="42.76034099999996" lon="-1.713153000000005">
        <ele>513.858</ele>
        <time>2022-08-25T08:10:17Z</time>
      </trkpt>
      <trkpt lat="42.760322999999964" lon="-1.713161000000005">
        <ele>514.092</ele>
        <time>2022-08-25T08:10:18Z</time>
      </trkpt>
      <trkpt lat="42.76030699999996" lon="-1.713170000000005">
        <ele>514.273</ele>
        <time>2022-08-25T08:10:19Z</time>
      </trkpt>
      <trkpt lat="42.760288999999965" lon="-1.713179000000005">
        <ele>514.420</ele>
        <time>2022-08-25T08:10:20Z</time>
      </trkpt>
      <trkpt lat="42.760271999999965" lon="-1.713186000000005">
        <ele>514.609</ele>
        <time>2022-08-25T08:10:21Z</time>
      </trkpt>
      <trkpt lat="42.76025699999997" lon="-1.713193000000005">
        <ele>514.670</ele>
        <time>2022-08-25T08:10:22Z</time>
      </trkpt>
      <trkpt lat="42.760240999999965" lon="-1.713201000000005">
        <ele>514.660</ele>
        <time>2022-08-25T08:10:23Z</time>
      </trkpt>
      <trkpt lat="42.76022499999996" lon="-1.713209000000005">
        <ele>514.650</ele>
        <time>2022-08-25T08:10:24Z</time>
      </trkpt>
      <trkpt lat="42.76020899999996" lon="-1.713215000000005">
        <ele>514.856</ele>
        <time>2022-08-25T08:10:25Z</time>
      </trkpt>
      <trkpt lat="42.76019099999996" lon="-1.713219000000005">
        <ele>515.028</ele>
        <time>2022-08-25T08:10:26Z</time>
      </trkpt>
      <trkpt lat="42.760173999999964" lon="-1.7132250000000049">
        <ele>515.455</ele>
        <time>2022-08-25T08:10:27Z</time>
      </trkpt>
      <trkpt lat="42.760158999999966" lon="-1.7132310000000048">
        <ele>515.898</ele>
        <time>2022-08-25T08:10:28Z</time>
      </trkpt>
      <trkpt lat="42.76014399999997" lon="-1.713238000000005">
        <ele>515.874</ele>
        <time>2022-08-25T08:10:29Z</time>
      </trkpt>
      <trkpt lat="42.760130999999966" lon="-1.7132440000000049">
        <ele>516.025</ele>
        <time>2022-08-25T08:10:30Z</time>
      </trkpt>
      <trkpt lat="42.760113999999966" lon="-1.713249000000005">
        <ele>516.049</ele>
        <time>2022-08-25T08:10:31Z</time>
      </trkpt>
      <trkpt lat="42.76010099999996" lon="-1.7132550000000049">
        <ele>516.202</ele>
        <time>2022-08-25T08:10:32Z</time>
      </trkpt>
      <trkpt lat="42.760085999999966" lon="-1.713265000000005">
        <ele>516.222</ele>
        <time>2022-08-25T08:10:33Z</time>
      </trkpt>
      <trkpt lat="42.76006999999996" lon="-1.713273000000005">
        <ele>516.209</ele>
        <time>2022-08-25T08:10:34Z</time>
      </trkpt>
      <trkpt lat="42.760054999999966" lon="-1.7132790000000049">
        <ele>516.275</ele>
        <time>2022-08-25T08:10:35Z</time>
      </trkpt>
      <trkpt lat="42.760040999999966" lon="-1.713286000000005">
        <ele>516.445</ele>
        <time>2022-08-25T08:10:36Z</time>
      </trkpt>
      <trkpt lat="42.76002899999997" lon="-1.713291000000005">
        <ele>516.425</ele>
        <time>2022-08-25T08:10:37Z</time>
      </trkpt>
      <trkpt lat="42.760018999999964" lon="-1.713297000000005">
        <ele>516.671</ele>
        <time>2022-08-25T08:10:38Z</time>
      </trkpt>
      <trkpt lat="42.760009999999966" lon="-1.7133010000000048">
        <ele>516.833</ele>
        <time>2022-08-25T08:10:39Z</time>
      </trkpt>
      <trkpt lat="42.759998999999965" lon="-1.7133070000000048">
        <ele>517.010</ele>
        <time>2022-08-25T08:10:40Z</time>
      </trkpt>
      <trkpt lat="42.75998699999997" lon="-1.7133120000000048">
        <ele>517.243</ele>
        <time>2022-08-25T08:10:41Z</time>
      </trkpt>
      <trkpt lat="42.75997299999997" lon="-1.713319000000005">
        <ele>517.429</ele>
        <time>2022-08-25T08:10:42Z</time>
      </trkpt>
      <trkpt lat="42.75995599999997" lon="-1.713327000000005">
        <ele>517.440</ele>
        <time>2022-08-25T08:10:43Z</time>
      </trkpt>
      <trkpt lat="42.759939999999965" lon="-1.713337000000005">
        <ele>517.457</ele>
        <time>2022-08-25T08:10:44Z</time>
      </trkpt>
      <trkpt lat="42.75992399999996" lon="-1.713347000000005">
        <ele>517.400</ele>
        <time>2022-08-25T08:10:45Z</time>
      </trkpt>
      <trkpt lat="42.759911999999964" lon="-1.7133540000000052">
        <ele>517.620</ele>
        <time>2022-08-25T08:10:46Z</time>
      </trkpt>
      <trkpt lat="42.75989699999997" lon="-1.7133620000000052">
        <ele>517.609</ele>
        <time>2022-08-25T08:10:47Z</time>
      </trkpt>
      <trkpt lat="42.75988199999997" lon="-1.7133690000000052">
        <ele>517.896</ele>
        <time>2022-08-25T08:10:48Z</time>
      </trkpt>
      <trkpt lat="42.759868999999966" lon="-1.7133770000000053">
        <ele>517.876</ele>
        <time>2022-08-25T08:10:49Z</time>
      </trkpt>
      <trkpt lat="42.75985899999996" lon="-1.7133840000000053">
        <ele>518.046</ele>
        <time>2022-08-25T08:10:50Z</time>
      </trkpt>
      <trkpt lat="42.75984899999996" lon="-1.7133900000000053">
        <ele>518.242</ele>
        <time>2022-08-25T08:10:51Z</time>
      </trkpt>
      <trkpt lat="42.75983499999996" lon="-1.7133980000000053">
        <ele>518.474</ele>
        <time>2022-08-25T08:10:52Z</time>
      </trkpt>
      <trkpt lat="42.75982299999996" lon="-1.7134060000000053">
        <ele>518.461</ele>
        <time>2022-08-25T08:10:53Z</time>
      </trkpt>
      <trkpt lat="42.75980699999996" lon="-1.7134180000000052">
        <ele>518.624</ele>
        <time>2022-08-25T08:10:54Z</time>
      </trkpt>
      <trkpt lat="42.75979299999996" lon="-1.7134310000000053">
        <ele>518.660</ele>
        <time>2022-08-25T08:10:55Z</time>
      </trkpt>
      <trkpt lat="42.75977599999996" lon="-1.7134420000000052">
        <ele>518.631</ele>
        <time>2022-08-25T08:10:56Z</time>
      </trkpt>
      <trkpt lat="42.75976099999996" lon="-1.7134540000000051">
        <ele>518.658</ele>
        <time>2022-08-25T08:10:57Z</time>
      </trkpt>
      <trkpt lat="42.75974699999996" lon="-1.713463000000005">
        <ele>518.652</ele>
        <time>2022-08-25T08:10:58Z</time>
      </trkpt>
      <trkpt lat="42.75973399999996" lon="-1.713471000000005">
        <ele>518.617</ele>
        <time>2022-08-25T08:10:59Z</time>
      </trkpt>
      <trkpt lat="42.75971799999996" lon="-1.713480000000005">
        <ele>518.809</ele>
        <time>2022-08-25T08:11:00Z</time>
      </trkpt>
      <trkpt lat="42.75970399999996" lon="-1.713489000000005">
        <ele>518.876</ele>
        <time>2022-08-25T08:11:01Z</time>
      </trkpt>
      <trkpt lat="42.75968699999996" lon="-1.713496000000005">
        <ele>519.046</ele>
        <time>2022-08-25T08:11:02Z</time>
      </trkpt>
      <trkpt lat="42.759670999999955" lon="-1.713505000000005">
        <ele>519.436</ele>
        <time>2022-08-25T08:11:03Z</time>
      </trkpt>
      <trkpt lat="42.75965299999996" lon="-1.713516000000005">
        <ele>519.432</ele>
        <time>2022-08-25T08:11:04Z</time>
      </trkpt>
      <trkpt lat="42.75963499999996" lon="-1.7135300000000049">
        <ele>519.614</ele>
        <time>2022-08-25T08:11:05Z</time>
      </trkpt>
      <trkpt lat="42.75962099999996" lon="-1.7135440000000048">
        <ele>519.841</ele>
        <time>2022-08-25T08:11:06Z</time>
      </trkpt>
      <trkpt lat="42.75960499999996" lon="-1.713551000000005">
        <ele>519.874</ele>
        <time>2022-08-25T08:11:07Z</time>
      </trkpt>
      <trkpt lat="42.759585999999956" lon="-1.713558000000005">
        <ele>519.850</ele>
        <time>2022-08-25T08:11:08Z</time>
      </trkpt>
      <trkpt lat="42.759571999999956" lon="-1.713566000000005">
        <ele>520.061</ele>
        <time>2022-08-25T08:11:09Z</time>
      </trkpt>
      <trkpt lat="42.759554999999956" lon="-1.713576000000005">
        <ele>520.228</ele>
        <time>2022-08-25T08:11:10Z</time>
      </trkpt>
      <trkpt lat="42.75953499999996" lon="-1.713588000000005">
        <ele>520.289</ele>
        <time>2022-08-25T08:11:11Z</time>
      </trkpt>
      <trkpt lat="42.75951699999996" lon="-1.713598000000005">
        <ele>520.417</ele>
        <time>2022-08-25T08:11:12Z</time>
      </trkpt>
      <trkpt lat="42.75950099999996" lon="-1.7136080000000051">
        <ele>520.409</ele>
        <time>2022-08-25T08:11:13Z</time>
      </trkpt>
      <trkpt lat="42.75948599999996" lon="-1.713617000000005">
        <ele>520.633</ele>
        <time>2022-08-25T08:11:14Z</time>
      </trkpt>
      <trkpt lat="42.75946999999996" lon="-1.7136270000000051">
        <ele>520.863</ele>
        <time>2022-08-25T08:11:15Z</time>
      </trkpt>
      <trkpt lat="42.75945599999996" lon="-1.7136340000000052">
        <ele>521.253</ele>
        <time>2022-08-25T08:11:16Z</time>
      </trkpt>
      <trkpt lat="42.759439999999955" lon="-1.7136400000000052">
        <ele>521.489</ele>
        <time>2022-08-25T08:11:17Z</time>
      </trkpt>
      <trkpt lat="42.759422999999956" lon="-1.7136470000000052">
        <ele>521.651</ele>
        <time>2022-08-25T08:11:18Z</time>
      </trkpt>
      <trkpt lat="42.759402999999956" lon="-1.7136570000000053">
        <ele>522.088</ele>
        <time>2022-08-25T08:11:19Z</time>
      </trkpt>
      <trkpt lat="42.759389999999954" lon="-1.7136640000000054">
        <ele>522.011</ele>
        <time>2022-08-25T08:11:20Z</time>
      </trkpt>
      <trkpt lat="42.759374999999956" lon="-1.7136680000000053">
        <ele>522.247</ele>
        <time>2022-08-25T08:11:21Z</time>
      </trkpt>
      <trkpt lat="42.759358999999954" lon="-1.7136760000000053">
        <ele>522.698</ele>
        <time>2022-08-25T08:11:22Z</time>
      </trkpt>
      <trkpt lat="42.75934299999995" lon="-1.7136840000000053">
        <ele>522.654</ele>
        <time>2022-08-25T08:11:23Z</time>
      </trkpt>
      <trkpt lat="42.75932599999995" lon="-1.7136920000000053">
        <ele>522.856</ele>
        <time>2022-08-25T08:11:24Z</time>
      </trkpt>
      <trkpt lat="42.759307999999955" lon="-1.7137010000000052">
        <ele>522.811</ele>
        <time>2022-08-25T08:11:25Z</time>
      </trkpt>
      <trkpt lat="42.75929199999995" lon="-1.7137090000000053">
        <ele>522.809</ele>
        <time>2022-08-25T08:11:26Z</time>
      </trkpt>
      <trkpt lat="42.75928199999995" lon="-1.7137170000000053">
        <ele>522.846</ele>
        <time>2022-08-25T08:11:27Z</time>
      </trkpt>
      <trkpt lat="42.75926899999995" lon="-1.7137260000000052">
        <ele>523.066</ele>
        <time>2022-08-25T08:11:28Z</time>
      </trkpt>
      <trkpt lat="42.75925199999995" lon="-1.7137310000000052">
        <ele>523.086</ele>
        <time>2022-08-25T08:11:29Z</time>
      </trkpt>
      <trkpt lat="42.759240999999946" lon="-1.7137380000000053">
        <ele>523.072</ele>
        <time>2022-08-25T08:11:30Z</time>
      </trkpt>
      <trkpt lat="42.759226999999946" lon="-1.7137480000000054">
        <ele>523.284</ele>
        <time>2022-08-25T08:11:31Z</time>
      </trkpt>
      <trkpt lat="42.759210999999944" lon="-1.7137580000000054">
        <ele>523.271</ele>
        <time>2022-08-25T08:11:32Z</time>
      </trkpt>
      <trkpt lat="42.75919999999994" lon="-1.7137620000000053">
        <ele>523.424</ele>
        <time>2022-08-25T08:11:33Z</time>
      </trkpt>
      <trkpt lat="42.75918599999994" lon="-1.7137690000000054">
        <ele>523.430</ele>
        <time>2022-08-25T08:11:34Z</time>
      </trkpt>
      <trkpt lat="42.75917299999994" lon="-1.7137740000000055">
        <ele>523.651</ele>
        <time>2022-08-25T08:11:35Z</time>
      </trkpt>
      <trkpt lat="42.75915899999994" lon="-1.7137820000000055">
        <ele>523.835</ele>
        <time>2022-08-25T08:11:36Z</time>
      </trkpt>
      <trkpt lat="42.75914299999994" lon="-1.7137900000000055">
        <ele>523.886</ele>
        <time>2022-08-25T08:11:37Z</time>
      </trkpt>
      <trkpt lat="42.75912599999994" lon="-1.7137960000000054">
        <ele>524.014</ele>
        <time>2022-08-25T08:11:38Z</time>
      </trkpt>
      <trkpt lat="42.759109999999936" lon="-1.7138030000000055">
        <ele>524.009</ele>
        <time>2022-08-25T08:11:39Z</time>
      </trkpt>
      <trkpt lat="42.759095999999936" lon="-1.7138110000000055">
        <ele>523.874</ele>
        <time>2022-08-25T08:11:40Z</time>
      </trkpt>
      <trkpt lat="42.759081999999935" lon="-1.7138200000000055">
        <ele>524.064</ele>
        <time>2022-08-25T08:11:41Z</time>
      </trkpt>
      <trkpt lat="42.75906699999994" lon="-1.7138280000000055">
        <ele>524.254</ele>
        <time>2022-08-25T08:11:42Z</time>
      </trkpt>
      <trkpt lat="42.75905299999994" lon="-1.7138340000000054">
        <ele>524.270</ele>
        <time>2022-08-25T08:11:43Z</time>
      </trkpt>
      <trkpt lat="42.759039999999935" lon="-1.7138410000000055">
        <ele>524.072</ele>
        <time>2022-08-25T08:11:44Z</time>
      </trkpt>
      <trkpt lat="42.759025999999935" lon="-1.7138460000000055">
        <ele>524.259</ele>
        <time>2022-08-25T08:11:45Z</time>
      </trkpt>
      <trkpt lat="42.75900999999993" lon="-1.7138510000000056">
        <ele>524.422</ele>
        <time>2022-08-25T08:11:46Z</time>
      </trkpt>
      <trkpt lat="42.75899399999993" lon="-1.7138570000000055">
        <ele>524.648</ele>
        <time>2022-08-25T08:11:47Z</time>
      </trkpt>
      <trkpt lat="42.75897899999993" lon="-1.7138620000000055">
        <ele>524.649</ele>
        <time>2022-08-25T08:11:48Z</time>
      </trkpt>
      <trkpt lat="42.758963999999935" lon="-1.7138670000000056">
        <ele>524.886</ele>
        <time>2022-08-25T08:11:49Z</time>
      </trkpt>
      <trkpt lat="42.75894799999993" lon="-1.7138740000000057">
        <ele>524.860</ele>
        <time>2022-08-25T08:11:50Z</time>
      </trkpt>
      <trkpt lat="42.75893399999993" lon="-1.7138830000000056">
        <ele>524.826</ele>
        <time>2022-08-25T08:11:51Z</time>
      </trkpt>
      <trkpt lat="42.75892099999993" lon="-1.7138930000000057">
        <ele>525.009</ele>
        <time>2022-08-25T08:11:52Z</time>
      </trkpt>
      <trkpt lat="42.75890799999993" lon="-1.7138990000000056">
        <ele>525.039</ele>
        <time>2022-08-25T08:11:53Z</time>
      </trkpt>
      <trkpt lat="42.758891999999925" lon="-1.7139060000000057">
        <ele>525.249</ele>
        <time>2022-08-25T08:11:54Z</time>
      </trkpt>
      <trkpt lat="42.758877999999925" lon="-1.7139140000000057">
        <ele>525.269</ele>
        <time>2022-08-25T08:11:55Z</time>
      </trkpt>
      <trkpt lat="42.758863999999924" lon="-1.7139200000000057">
        <ele>525.245</ele>
        <time>2022-08-25T08:11:56Z</time>
      </trkpt>
      <trkpt lat="42.75884899999993" lon="-1.7139290000000056">
        <ele>525.427</ele>
        <time>2022-08-25T08:11:57Z</time>
      </trkpt>
      <trkpt lat="42.758832999999925" lon="-1.7139360000000057">
        <ele>525.434</ele>
        <time>2022-08-25T08:11:58Z</time>
      </trkpt>
      <trkpt lat="42.75880299999992" lon="-1.7139480000000056">
        <ele>525.637</ele>
        <time>2022-08-25T08:12:00Z</time>
      </trkpt>
      <trkpt lat="42.75873599999992" lon="-1.7139780000000056">
        <ele>526.033</ele>
        <time>2022-08-25T08:12:04Z</time>
      </trkpt>
      <trkpt lat="42.75872199999992" lon="-1.7139880000000056">
        <ele>526.264</ele>
        <time>2022-08-25T08:12:05Z</time>
      </trkpt>
      <trkpt lat="42.75870599999992" lon="-1.7139970000000055">
        <ele>526.292</ele>
        <time>2022-08-25T08:12:06Z</time>
      </trkpt>
      <trkpt lat="42.75868899999992" lon="-1.7140030000000055">
        <ele>526.273</ele>
        <time>2022-08-25T08:12:07Z</time>
      </trkpt>
      <trkpt lat="42.758672999999916" lon="-1.7140100000000056">
        <ele>526.620</ele>
        <time>2022-08-25T08:12:09Z</time>
      </trkpt>
      <trkpt lat="42.75864099999992" lon="-1.7140290000000056">
        <ele>526.609</ele>
        <time>2022-08-25T08:12:10Z</time>
      </trkpt>
      <trkpt lat="42.75859699999992" lon="-1.7140540000000055">
        <ele>526.860</ele>
        <time>2022-08-25T08:12:13Z</time>
      </trkpt>
      <trkpt lat="42.758551999999916" lon="-1.7140850000000054">
        <ele>527.010</ele>
        <time>2022-08-25T08:12:16Z</time>
      </trkpt>
      <trkpt lat="42.758504999999914" lon="-1.7141100000000054">
        <ele>527.420</ele>
        <time>2022-08-25T08:12:19Z</time>
      </trkpt>
      <trkpt lat="42.758487999999915" lon="-1.7141190000000053">
        <ele>527.626</ele>
        <time>2022-08-25T08:12:20Z</time>
      </trkpt>
      <trkpt lat="42.75847499999991" lon="-1.7141270000000053">
        <ele>527.648</ele>
        <time>2022-08-25T08:12:21Z</time>
      </trkpt>
      <trkpt lat="42.758462999999914" lon="-1.7141360000000052">
        <ele>528.035</ele>
        <time>2022-08-25T08:12:22Z</time>
      </trkpt>
      <trkpt lat="42.758450999999916" lon="-1.7141470000000052">
        <ele>528.268</ele>
        <time>2022-08-25T08:12:23Z</time>
      </trkpt>
      <trkpt lat="42.75840399999991" lon="-1.714178000000005">
        <ele>528.424</ele>
        <time>2022-08-25T08:12:26Z</time>
      </trkpt>
      <trkpt lat="42.758385999999916" lon="-1.7141880000000052">
        <ele>528.495</ele>
        <time>2022-08-25T08:12:27Z</time>
      </trkpt>
      <trkpt lat="42.75836899999992" lon="-1.7141990000000051">
        <ele>528.476</ele>
        <time>2022-08-25T08:12:28Z</time>
      </trkpt>
      <trkpt lat="42.75835399999992" lon="-1.714208000000005">
        <ele>528.690</ele>
        <time>2022-08-25T08:12:29Z</time>
      </trkpt>
      <trkpt lat="42.758340999999916" lon="-1.714214000000005">
        <ele>528.619</ele>
        <time>2022-08-25T08:12:30Z</time>
      </trkpt>
      <trkpt lat="42.758324999999914" lon="-1.714222000000005">
        <ele>528.809</ele>
        <time>2022-08-25T08:12:31Z</time>
      </trkpt>
      <trkpt lat="42.758312999999916" lon="-1.714231000000005">
        <ele>528.878</ele>
        <time>2022-08-25T08:12:32Z</time>
      </trkpt>
      <trkpt lat="42.758298999999916" lon="-1.714239000000005">
        <ele>528.888</ele>
        <time>2022-08-25T08:12:33Z</time>
      </trkpt>
      <trkpt lat="42.75828599999991" lon="-1.714244000000005">
        <ele>529.028</ele>
        <time>2022-08-25T08:12:34Z</time>
      </trkpt>
      <trkpt lat="42.75827199999991" lon="-1.7142480000000049">
        <ele>529.264</ele>
        <time>2022-08-25T08:12:35Z</time>
      </trkpt>
      <trkpt lat="42.75825799999991" lon="-1.714250000000005">
        <ele>529.466</ele>
        <time>2022-08-25T08:12:36Z</time>
      </trkpt>
      <trkpt lat="42.75824499999991" lon="-1.714255000000005">
        <ele>529.663</ele>
        <time>2022-08-25T08:12:37Z</time>
      </trkpt>
      <trkpt lat="42.75823099999991" lon="-1.714261000000005">
        <ele>529.846</ele>
        <time>2022-08-25T08:12:38Z</time>
      </trkpt>
      <trkpt lat="42.75821499999991" lon="-1.714269000000005">
        <ele>530.052</ele>
        <time>2022-08-25T08:12:39Z</time>
      </trkpt>
      <trkpt lat="42.758201999999905" lon="-1.7142780000000049">
        <ele>530.023</ele>
        <time>2022-08-25T08:12:40Z</time>
      </trkpt>
      <trkpt lat="42.758187999999905" lon="-1.7142830000000049">
        <ele>530.017</ele>
        <time>2022-08-25T08:12:41Z</time>
      </trkpt>
      <trkpt lat="42.75817299999991" lon="-1.714288000000005">
        <ele>530.287</ele>
        <time>2022-08-25T08:12:42Z</time>
      </trkpt>
      <trkpt lat="42.758159999999904" lon="-1.714291000000005">
        <ele>530.415</ele>
        <time>2022-08-25T08:12:43Z</time>
      </trkpt>
      <trkpt lat="42.75814499999991" lon="-1.714298000000005">
        <ele>530.409</ele>
        <time>2022-08-25T08:12:44Z</time>
      </trkpt>
      <trkpt lat="42.758131999999904" lon="-1.714305000000005">
        <ele>530.672</ele>
        <time>2022-08-25T08:12:45Z</time>
      </trkpt>
      <trkpt lat="42.758116999999906" lon="-1.714313000000005">
        <ele>530.812</ele>
        <time>2022-08-25T08:12:46Z</time>
      </trkpt>
      <trkpt lat="42.758102999999906" lon="-1.714321000000005">
        <ele>530.882</ele>
        <time>2022-08-25T08:12:47Z</time>
      </trkpt>
      <trkpt lat="42.758088999999906" lon="-1.714332000000005">
        <ele>531.028</ele>
        <time>2022-08-25T08:12:48Z</time>
      </trkpt>
      <trkpt lat="42.7580789999999" lon="-1.714338000000005">
        <ele>531.040</ele>
        <time>2022-08-25T08:12:49Z</time>
      </trkpt>
      <trkpt lat="42.758063999999905" lon="-1.714343000000005">
        <ele>531.067</ele>
        <time>2022-08-25T08:12:50Z</time>
      </trkpt>
      <trkpt lat="42.7580479999999" lon="-1.7143450000000051">
        <ele>531.020</ele>
        <time>2022-08-25T08:12:51Z</time>
      </trkpt>
      <trkpt lat="42.7580259999999" lon="-1.7143520000000052">
        <ele>531.266</ele>
        <time>2022-08-25T08:12:52Z</time>
      </trkpt>
      <trkpt lat="42.758010999999904" lon="-1.7143620000000053">
        <ele>531.427</ele>
        <time>2022-08-25T08:12:53Z</time>
      </trkpt>
      <trkpt lat="42.7579979999999" lon="-1.7143730000000053">
        <ele>531.431</ele>
        <time>2022-08-25T08:12:54Z</time>
      </trkpt>
      <trkpt lat="42.7579889999999" lon="-1.7143800000000053">
        <ele>531.661</ele>
        <time>2022-08-25T08:12:55Z</time>
      </trkpt>
      <trkpt lat="42.757976999999904" lon="-1.7143880000000054">
        <ele>531.607</ele>
        <time>2022-08-25T08:12:56Z</time>
      </trkpt>
      <trkpt lat="42.7579609999999" lon="-1.7143920000000052">
        <ele>531.809</ele>
        <time>2022-08-25T08:12:57Z</time>
      </trkpt>
      <trkpt lat="42.757945999999905" lon="-1.7143970000000053">
        <ele>531.854</ele>
        <time>2022-08-25T08:12:58Z</time>
      </trkpt>
      <trkpt lat="42.757933999999906" lon="-1.7144050000000053">
        <ele>531.864</ele>
        <time>2022-08-25T08:12:59Z</time>
      </trkpt>
      <trkpt lat="42.7579239999999" lon="-1.7144120000000054">
        <ele>531.844</ele>
        <time>2022-08-25T08:13:00Z</time>
      </trkpt>
      <trkpt lat="42.757911999999905" lon="-1.7144200000000054">
        <ele>532.030</ele>
        <time>2022-08-25T08:13:01Z</time>
      </trkpt>
      <trkpt lat="42.7578959999999" lon="-1.7144230000000054">
        <ele>532.022</ele>
        <time>2022-08-25T08:13:02Z</time>
      </trkpt>
      <trkpt lat="42.7578819999999" lon="-1.7144250000000054">
        <ele>532.269</ele>
        <time>2022-08-25T08:13:03Z</time>
      </trkpt>
      <trkpt lat="42.757866999999905" lon="-1.7144320000000055">
        <ele>532.282</ele>
        <time>2022-08-25T08:13:04Z</time>
      </trkpt>
      <trkpt lat="42.757857999999906" lon="-1.7144370000000055">
        <ele>532.438</ele>
        <time>2022-08-25T08:13:05Z</time>
      </trkpt>
      <trkpt lat="42.757844999999904" lon="-1.7144440000000056">
        <ele>532.489</ele>
        <time>2022-08-25T08:13:06Z</time>
      </trkpt>
      <trkpt lat="42.757832999999906" lon="-1.7144520000000056">
        <ele>532.651</ele>
        <time>2022-08-25T08:13:07Z</time>
      </trkpt>
      <trkpt lat="42.7578169999999" lon="-1.7144580000000056">
        <ele>532.801</ele>
        <time>2022-08-25T08:13:08Z</time>
      </trkpt>
      <trkpt lat="42.757799999999904" lon="-1.7144650000000057">
        <ele>533.011</ele>
        <time>2022-08-25T08:13:09Z</time>
      </trkpt>
      <trkpt lat="42.757765999999904" lon="-1.7145010000000056">
        <ele>533.409</ele>
        <time>2022-08-25T08:13:12Z</time>
      </trkpt>
      <trkpt lat="42.757751999999904" lon="-1.7145110000000057">
        <ele>533.426</ele>
        <time>2022-08-25T08:13:13Z</time>
      </trkpt>
      <trkpt lat="42.7577409999999" lon="-1.7145170000000056">
        <ele>533.666</ele>
        <time>2022-08-25T08:13:14Z</time>
      </trkpt>
      <trkpt lat="42.757725999999906" lon="-1.7145210000000055">
        <ele>533.646</ele>
        <time>2022-08-25T08:13:15Z</time>
      </trkpt>
      <trkpt lat="42.757714999999905" lon="-1.7145260000000055">
        <ele>533.672</ele>
        <time>2022-08-25T08:13:16Z</time>
      </trkpt>
      <trkpt lat="42.757700999999905" lon="-1.7145330000000056">
        <ele>533.864</ele>
        <time>2022-08-25T08:13:17Z</time>
      </trkpt>
      <trkpt lat="42.757683999999905" lon="-1.7145410000000056">
        <ele>533.851</ele>
        <time>2022-08-25T08:13:18Z</time>
      </trkpt>
      <trkpt lat="42.7576679999999" lon="-1.7145490000000057">
        <ele>533.874</ele>
        <time>2022-08-25T08:13:19Z</time>
      </trkpt>
      <trkpt lat="42.7576539999999" lon="-1.7145570000000057">
        <ele>534.030</ele>
        <time>2022-08-25T08:13:20Z</time>
      </trkpt>
      <trkpt lat="42.757638999999905" lon="-1.7145650000000057">
        <ele>534.021</ele>
        <time>2022-08-25T08:13:21Z</time>
      </trkpt>
      <trkpt lat="42.75762699999991" lon="-1.7145730000000057">
        <ele>534.236</ele>
        <time>2022-08-25T08:13:22Z</time>
      </trkpt>
      <trkpt lat="42.757599999999904" lon="-1.7145830000000057">
        <ele>534.217</ele>
        <time>2022-08-25T08:13:23Z</time>
      </trkpt>
      <trkpt lat="42.757587999999906" lon="-1.7145910000000057">
        <ele>534.418</ele>
        <time>2022-08-25T08:13:24Z</time>
      </trkpt>
      <trkpt lat="42.75757599999991" lon="-1.7145990000000058">
        <ele>534.409</ele>
        <time>2022-08-25T08:13:25Z</time>
      </trkpt>
      <trkpt lat="42.75756699999991" lon="-1.7146040000000058">
        <ele>534.434</ele>
        <time>2022-08-25T08:13:26Z</time>
      </trkpt>
      <trkpt lat="42.75752999999991" lon="-1.7146240000000057">
        <ele>534.654</ele>
        <time>2022-08-25T08:13:29Z</time>
      </trkpt>
      <trkpt lat="42.75751899999991" lon="-1.7146330000000056">
        <ele>534.614</ele>
        <time>2022-08-25T08:13:30Z</time>
      </trkpt>
      <trkpt lat="42.75747699999991" lon="-1.7146580000000056">
        <ele>535.050</ele>
        <time>2022-08-25T08:13:33Z</time>
      </trkpt>
      <trkpt lat="42.75743499999991" lon="-1.7146740000000056">
        <ele>535.092</ele>
        <time>2022-08-25T08:13:36Z</time>
      </trkpt>
      <trkpt lat="42.757424999999905" lon="-1.7146800000000055">
        <ele>535.059</ele>
        <time>2022-08-25T08:13:37Z</time>
      </trkpt>
      <trkpt lat="42.757413999999905" lon="-1.7146900000000056">
        <ele>535.282</ele>
        <time>2022-08-25T08:13:38Z</time>
      </trkpt>
      <trkpt lat="42.75740199999991" lon="-1.7146970000000057">
        <ele>535.278</ele>
        <time>2022-08-25T08:13:39Z</time>
      </trkpt>
      <trkpt lat="42.75738699999991" lon="-1.7147060000000056">
        <ele>535.279</ele>
        <time>2022-08-25T08:13:40Z</time>
      </trkpt>
      <trkpt lat="42.75737999999991" lon="-1.7147120000000056">
        <ele>535.467</ele>
        <time>2022-08-25T08:13:41Z</time>
      </trkpt>
      <trkpt lat="42.75736599999991" lon="-1.7147210000000055">
        <ele>535.681</ele>
        <time>2022-08-25T08:13:42Z</time>
      </trkpt>
      <trkpt lat="42.757274999999915" lon="-1.7147730000000054">
        <ele>535.819</ele>
        <time>2022-08-25T08:13:48Z</time>
      </trkpt>
      <trkpt lat="42.75726199999991" lon="-1.7147810000000054">
        <ele>536.009</ele>
        <time>2022-08-25T08:13:49Z</time>
      </trkpt>
      <trkpt lat="42.75723899999991" lon="-1.7148000000000054">
        <ele>536.087</ele>
        <time>2022-08-25T08:13:51Z</time>
      </trkpt>
      <trkpt lat="42.75722599999991" lon="-1.7148060000000054">
        <ele>536.287</ele>
        <time>2022-08-25T08:13:52Z</time>
      </trkpt>
      <trkpt lat="42.75720899999991" lon="-1.7148150000000053">
        <ele>536.277</ele>
        <time>2022-08-25T08:13:53Z</time>
      </trkpt>
      <trkpt lat="42.75713599999991" lon="-1.7148740000000053">
        <ele>536.443</ele>
        <time>2022-08-25T08:13:58Z</time>
      </trkpt>
      <trkpt lat="42.75712499999991" lon="-1.7148840000000054">
        <ele>536.425</ele>
        <time>2022-08-25T08:13:59Z</time>
      </trkpt>
      <trkpt lat="42.75711699999991" lon="-1.7148900000000054">
        <ele>536.462</ele>
        <time>2022-08-25T08:14:00Z</time>
      </trkpt>
      <trkpt lat="42.75710599999991" lon="-1.7148950000000054">
        <ele>536.625</ele>
        <time>2022-08-25T08:14:01Z</time>
      </trkpt>
      <trkpt lat="42.757089999999906" lon="-1.7149010000000053">
        <ele>536.611</ele>
        <time>2022-08-25T08:14:02Z</time>
      </trkpt>
      <trkpt lat="42.757075999999905" lon="-1.7149040000000053">
        <ele>536.652</ele>
        <time>2022-08-25T08:14:03Z</time>
      </trkpt>
      <trkpt lat="42.7570069999999" lon="-1.7149390000000053">
        <ele>537.077</ele>
        <time>2022-08-25T08:14:08Z</time>
      </trkpt>
      <trkpt lat="42.7569969999999" lon="-1.7149430000000052">
        <ele>537.061</ele>
        <time>2022-08-25T08:14:09Z</time>
      </trkpt>
      <trkpt lat="42.7569689999999" lon="-1.7149510000000052">
        <ele>537.227</ele>
        <time>2022-08-25T08:14:11Z</time>
      </trkpt>
      <trkpt lat="42.7569539999999" lon="-1.7149590000000052">
        <ele>537.209</ele>
        <time>2022-08-25T08:14:12Z</time>
      </trkpt>
      <trkpt lat="42.7569239999999" lon="-1.7149860000000052">
        <ele>537.688</ele>
        <time>2022-08-25T08:14:15Z</time>
      </trkpt>
      <trkpt lat="42.7569089999999" lon="-1.7150010000000053">
        <ele>537.628</ele>
        <time>2022-08-25T08:14:16Z</time>
      </trkpt>
      <trkpt lat="42.7568689999999" lon="-1.7150320000000052">
        <ele>537.638</ele>
        <time>2022-08-25T08:14:19Z</time>
      </trkpt>
      <trkpt lat="42.756853999999905" lon="-1.7150430000000052">
        <ele>537.874</ele>
        <time>2022-08-25T08:14:20Z</time>
      </trkpt>
      <trkpt lat="42.756827999999906" lon="-1.7150630000000051">
        <ele>538.076</ele>
        <time>2022-08-25T08:14:22Z</time>
      </trkpt>
      <trkpt lat="42.75681899999991" lon="-1.715072000000005">
        <ele>538.033</ele>
        <time>2022-08-25T08:14:23Z</time>
      </trkpt>
      <trkpt lat="42.75672299999991" lon="-1.715154000000005">
        <ele>538.636</ele>
        <time>2022-08-25T08:14:30Z</time>
      </trkpt>
      <trkpt lat="42.756709999999906" lon="-1.7151660000000049">
        <ele>538.822</ele>
        <time>2022-08-25T08:14:31Z</time>
      </trkpt>
      <trkpt lat="42.756695999999906" lon="-1.7151770000000048">
        <ele>539.273</ele>
        <time>2022-08-25T08:14:32Z</time>
      </trkpt>
      <trkpt lat="42.756684999999905" lon="-1.715184000000005">
        <ele>539.238</ele>
        <time>2022-08-25T08:14:33Z</time>
      </trkpt>
      <trkpt lat="42.7566349999999" lon="-1.715227000000005">
        <ele>539.670</ele>
        <time>2022-08-25T08:14:37Z</time>
      </trkpt>
      <trkpt lat="42.7566049999999" lon="-1.715246000000005">
        <ele>539.617</ele>
        <time>2022-08-25T08:14:39Z</time>
      </trkpt>
      <trkpt lat="42.756538999999904" lon="-1.715286000000005">
        <ele>539.809</ele>
        <time>2022-08-25T08:14:44Z</time>
      </trkpt>
      <trkpt lat="42.756529999999906" lon="-1.715293000000005">
        <ele>539.824</ele>
        <time>2022-08-25T08:14:45Z</time>
      </trkpt>
      <trkpt lat="42.75651499999991" lon="-1.715302000000005">
        <ele>540.274</ele>
        <time>2022-08-25T08:14:46Z</time>
      </trkpt>
      <trkpt lat="42.75650799999991" lon="-1.715310000000005">
        <ele>540.294</ele>
        <time>2022-08-25T08:14:47Z</time>
      </trkpt>
      <trkpt lat="42.75649799999991" lon="-1.715323000000005">
        <ele>540.470</ele>
        <time>2022-08-25T08:14:48Z</time>
      </trkpt>
      <trkpt lat="42.75644199999991" lon="-1.7153760000000051">
        <ele>541.222</ele>
        <time>2022-08-25T08:14:53Z</time>
      </trkpt>
      <trkpt lat="42.75642999999991" lon="-1.7153860000000052">
        <ele>541.479</ele>
        <time>2022-08-25T08:14:54Z</time>
      </trkpt>
      <trkpt lat="42.75641799999991" lon="-1.715395000000005">
        <ele>541.432</ele>
        <time>2022-08-25T08:14:55Z</time>
      </trkpt>
      <trkpt lat="42.75640599999991" lon="-1.715406000000005">
        <ele>541.668</ele>
        <time>2022-08-25T08:14:56Z</time>
      </trkpt>
      <trkpt lat="42.756393999999915" lon="-1.7154190000000051">
        <ele>541.689</ele>
        <time>2022-08-25T08:14:57Z</time>
      </trkpt>
      <trkpt lat="42.756379999999915" lon="-1.715431000000005">
        <ele>541.667</ele>
        <time>2022-08-25T08:14:58Z</time>
      </trkpt>
      <trkpt lat="42.75636199999992" lon="-1.7154460000000051">
        <ele>541.681</ele>
        <time>2022-08-25T08:14:59Z</time>
      </trkpt>
      <trkpt lat="42.756348999999915" lon="-1.715458000000005">
        <ele>541.619</ele>
        <time>2022-08-25T08:15:00Z</time>
      </trkpt>
      <trkpt lat="42.756334999999915" lon="-1.715469000000005">
        <ele>541.609</ele>
        <time>2022-08-25T08:15:01Z</time>
      </trkpt>
      <trkpt lat="42.75632499999991" lon="-1.715480000000005">
        <ele>541.887</ele>
        <time>2022-08-25T08:15:02Z</time>
      </trkpt>
      <trkpt lat="42.75631199999991" lon="-1.715494000000005">
        <ele>541.817</ele>
        <time>2022-08-25T08:15:03Z</time>
      </trkpt>
      <trkpt lat="42.75629699999991" lon="-1.715511000000005">
        <ele>542.087</ele>
        <time>2022-08-25T08:15:04Z</time>
      </trkpt>
      <trkpt lat="42.75628399999991" lon="-1.7155250000000049">
        <ele>542.033</ele>
        <time>2022-08-25T08:15:05Z</time>
      </trkpt>
      <trkpt lat="42.75626999999991" lon="-1.715535000000005">
        <ele>542.025</ele>
        <time>2022-08-25T08:15:06Z</time>
      </trkpt>
      <trkpt lat="42.75623299999991" lon="-1.715569000000005">
        <ele>542.282</ele>
        <time>2022-08-25T08:15:09Z</time>
      </trkpt>
      <trkpt lat="42.75621799999991" lon="-1.715584000000005">
        <ele>542.475</ele>
        <time>2022-08-25T08:15:10Z</time>
      </trkpt>
      <trkpt lat="42.75615299999991" lon="-1.7156400000000052">
        <ele>542.841</ele>
        <time>2022-08-25T08:15:15Z</time>
      </trkpt>
      <trkpt lat="42.75612899999991" lon="-1.7156610000000052">
        <ele>543.032</ele>
        <time>2022-08-25T08:15:17Z</time>
      </trkpt>
      <trkpt lat="42.756059999999906" lon="-1.7157110000000053">
        <ele>543.483</ele>
        <time>2022-08-25T08:15:22Z</time>
      </trkpt>
      <trkpt lat="42.75603699999991" lon="-1.7157340000000054">
        <ele>543.625</ele>
        <time>2022-08-25T08:15:24Z</time>
      </trkpt>
      <trkpt lat="42.756011999999906" lon="-1.7157650000000053">
        <ele>543.617</ele>
        <time>2022-08-25T08:15:26Z</time>
      </trkpt>
      <trkpt lat="42.755961999999904" lon="-1.7158060000000053">
        <ele>544.009</ele>
        <time>2022-08-25T08:15:30Z</time>
      </trkpt>
      <trkpt lat="42.75593299999991" lon="-1.7158300000000053">
        <ele>544.259</ele>
        <time>2022-08-25T08:15:32Z</time>
      </trkpt>
      <trkpt lat="42.755907999999906" lon="-1.7158470000000052">
        <ele>544.449</ele>
        <time>2022-08-25T08:15:34Z</time>
      </trkpt>
      <trkpt lat="42.7558949999999" lon="-1.7158570000000053">
        <ele>544.429</ele>
        <time>2022-08-25T08:15:35Z</time>
      </trkpt>
      <trkpt lat="42.755879999999905" lon="-1.7158680000000053">
        <ele>544.655</ele>
        <time>2022-08-25T08:15:36Z</time>
      </trkpt>
      <trkpt lat="42.755865999999905" lon="-1.7158760000000053">
        <ele>544.627</ele>
        <time>2022-08-25T08:15:37Z</time>
      </trkpt>
      <trkpt lat="42.7558499999999" lon="-1.7158840000000053">
        <ele>544.674</ele>
        <time>2022-08-25T08:15:38Z</time>
      </trkpt>
      <trkpt lat="42.755772999999905" lon="-1.7159280000000052">
        <ele>544.497</ele>
        <time>2022-08-25T08:15:43Z</time>
      </trkpt>
      <trkpt lat="42.755682999999905" lon="-1.7159890000000053">
        <ele>544.643</ele>
        <time>2022-08-25T08:15:49Z</time>
      </trkpt>
      <trkpt lat="42.7556669999999" lon="-1.7160000000000053">
        <ele>544.634</ele>
        <time>2022-08-25T08:15:50Z</time>
      </trkpt>
      <trkpt lat="42.755632999999904" lon="-1.7160220000000053">
        <ele>544.649</ele>
        <time>2022-08-25T08:15:52Z</time>
      </trkpt>
      <trkpt lat="42.7555489999999" lon="-1.7160950000000053">
        <ele>545.002</ele>
        <time>2022-08-25T08:15:57Z</time>
      </trkpt>
      <trkpt lat="42.7555349999999" lon="-1.7161100000000054">
        <ele>545.022</ele>
        <time>2022-08-25T08:15:58Z</time>
      </trkpt>
      <trkpt lat="42.7555239999999" lon="-1.7161240000000053">
        <ele>545.009</ele>
        <time>2022-08-25T08:15:59Z</time>
      </trkpt>
      <trkpt lat="42.7555109999999" lon="-1.7161370000000054">
        <ele>545.035</ele>
        <time>2022-08-25T08:16:00Z</time>
      </trkpt>
      <trkpt lat="42.7554719999999" lon="-1.7161750000000053">
        <ele>545.085</ele>
        <time>2022-08-25T08:16:02Z</time>
      </trkpt>
      <trkpt lat="42.7554569999999" lon="-1.7161890000000053">
        <ele>545.025</ele>
        <time>2022-08-25T08:16:03Z</time>
      </trkpt>
      <trkpt lat="42.7554459999999" lon="-1.7161990000000054">
        <ele>545.061</ele>
        <time>2022-08-25T08:16:04Z</time>
      </trkpt>
      <trkpt lat="42.7554339999999" lon="-1.7162080000000053">
        <ele>545.053</ele>
        <time>2022-08-25T08:16:05Z</time>
      </trkpt>
      <trkpt lat="42.7553699999999" lon="-1.7162810000000053">
        <ele>545.020</ele>
        <time>2022-08-25T08:16:09Z</time>
      </trkpt>
      <trkpt lat="42.7553479999999" lon="-1.7163030000000052">
        <ele>545.253</ele>
        <time>2022-08-25T08:16:11Z</time>
      </trkpt>
      <trkpt lat="42.7553359999999" lon="-1.7163180000000053">
        <ele>545.239</ele>
        <time>2022-08-25T08:16:12Z</time>
      </trkpt>
      <trkpt lat="42.7553189999999" lon="-1.7163400000000053">
        <ele>545.240</ele>
        <time>2022-08-25T08:16:13Z</time>
      </trkpt>
      <trkpt lat="42.7552789999999" lon="-1.7163870000000052">
        <ele>545.636</ele>
        <time>2022-08-25T08:16:16Z</time>
      </trkpt>
      <trkpt lat="42.7552649999999" lon="-1.7164050000000053">
        <ele>545.617</ele>
        <time>2022-08-25T08:16:17Z</time>
      </trkpt>
      <trkpt lat="42.7552289999999" lon="-1.7164380000000052">
        <ele>546.018</ele>
        <time>2022-08-25T08:16:19Z</time>
      </trkpt>
      <trkpt lat="42.7552009999999" lon="-1.7164610000000053">
        <ele>546.409</ele>
        <time>2022-08-25T08:16:21Z</time>
      </trkpt>
      <trkpt lat="42.7551849999999" lon="-1.7164730000000052">
        <ele>546.684</ele>
        <time>2022-08-25T08:16:22Z</time>
      </trkpt>
      <trkpt lat="42.755098999999895" lon="-1.7165570000000052">
        <ele>546.894</ele>
        <time>2022-08-25T08:16:27Z</time>
      </trkpt>
      <trkpt lat="42.755084999999895" lon="-1.7165720000000053">
        <ele>547.294</ele>
        <time>2022-08-25T08:16:28Z</time>
      </trkpt>
      <trkpt lat="42.7550669999999" lon="-1.7165910000000053">
        <ele>547.450</ele>
        <time>2022-08-25T08:16:29Z</time>
      </trkpt>
      <trkpt lat="42.7550489999999" lon="-1.7166060000000054">
        <ele>547.642</ele>
        <time>2022-08-25T08:16:30Z</time>
      </trkpt>
      <trkpt lat="42.7549839999999" lon="-1.7166630000000054">
        <ele>548.439</ele>
        <time>2022-08-25T08:16:34Z</time>
      </trkpt>
      <trkpt lat="42.7549699999999" lon="-1.7166760000000054">
        <ele>548.422</ele>
        <time>2022-08-25T08:16:35Z</time>
      </trkpt>
      <trkpt lat="42.7549549999999" lon="-1.7166900000000054">
        <ele>548.638</ele>
        <time>2022-08-25T08:16:36Z</time>
      </trkpt>
      <trkpt lat="42.7549439999999" lon="-1.7167010000000054">
        <ele>548.829</ele>
        <time>2022-08-25T08:16:37Z</time>
      </trkpt>
      <trkpt lat="42.7549299999999" lon="-1.7167140000000054">
        <ele>549.089</ele>
        <time>2022-08-25T08:16:38Z</time>
      </trkpt>
      <trkpt lat="42.754914999999905" lon="-1.7167260000000053">
        <ele>549.206</ele>
        <time>2022-08-25T08:16:39Z</time>
      </trkpt>
      <trkpt lat="42.7548989999999" lon="-1.7167390000000053">
        <ele>549.426</ele>
        <time>2022-08-25T08:16:40Z</time>
      </trkpt>
      <trkpt lat="42.7548889999999" lon="-1.7167490000000054">
        <ele>549.809</ele>
        <time>2022-08-25T08:16:41Z</time>
      </trkpt>
      <trkpt lat="42.754878999999896" lon="-1.7167590000000055">
        <ele>550.219</ele>
        <time>2022-08-25T08:16:42Z</time>
      </trkpt>
      <trkpt lat="42.754867999999895" lon="-1.7167660000000056">
        <ele>550.239</ele>
        <time>2022-08-25T08:16:43Z</time>
      </trkpt>
      <trkpt lat="42.754856999999895" lon="-1.7167750000000055">
        <ele>550.459</ele>
        <time>2022-08-25T08:16:44Z</time>
      </trkpt>
      <trkpt lat="42.75484399999989" lon="-1.7167800000000055">
        <ele>550.445</ele>
        <time>2022-08-25T08:16:45Z</time>
      </trkpt>
      <trkpt lat="42.754831999999894" lon="-1.7167880000000055">
        <ele>550.667</ele>
        <time>2022-08-25T08:16:46Z</time>
      </trkpt>
      <trkpt lat="42.754819999999896" lon="-1.7167980000000056">
        <ele>550.654</ele>
        <time>2022-08-25T08:16:47Z</time>
      </trkpt>
      <trkpt lat="42.75480699999989" lon="-1.7168090000000056">
        <ele>550.887</ele>
        <time>2022-08-25T08:16:48Z</time>
      </trkpt>
      <trkpt lat="42.754794999999895" lon="-1.7168180000000055">
        <ele>550.873</ele>
        <time>2022-08-25T08:16:49Z</time>
      </trkpt>
      <trkpt lat="42.754783999999894" lon="-1.7168230000000055">
        <ele>550.844</ele>
        <time>2022-08-25T08:16:50Z</time>
      </trkpt>
      <trkpt lat="42.754772999999894" lon="-1.7168300000000056">
        <ele>551.064</ele>
        <time>2022-08-25T08:16:51Z</time>
      </trkpt>
      <trkpt lat="42.75476499999989" lon="-1.7168350000000057">
        <ele>551.006</ele>
        <time>2022-08-25T08:16:52Z</time>
      </trkpt>
      <trkpt lat="42.75475099999989" lon="-1.7168470000000056">
        <ele>551.216</ele>
        <time>2022-08-25T08:16:53Z</time>
      </trkpt>
      <trkpt lat="42.75473999999989" lon="-1.7168580000000055">
        <ele>551.409</ele>
        <time>2022-08-25T08:16:54Z</time>
      </trkpt>
      <trkpt lat="42.75472899999989" lon="-1.7168700000000054">
        <ele>551.457</ele>
        <time>2022-08-25T08:16:55Z</time>
      </trkpt>
      <trkpt lat="42.75471999999989" lon="-1.7168780000000055">
        <ele>551.477</ele>
        <time>2022-08-25T08:16:56Z</time>
      </trkpt>
      <trkpt lat="42.75470699999989" lon="-1.7168890000000054">
        <ele>551.467</ele>
        <time>2022-08-25T08:16:57Z</time>
      </trkpt>
      <trkpt lat="42.75469199999989" lon="-1.7169020000000055">
        <ele>551.683</ele>
        <time>2022-08-25T08:16:58Z</time>
      </trkpt>
      <trkpt lat="42.754679999999894" lon="-1.7169120000000055">
        <ele>551.675</ele>
        <time>2022-08-25T08:16:59Z</time>
      </trkpt>
      <trkpt lat="42.75466999999989" lon="-1.7169210000000055">
        <ele>551.852</ele>
        <time>2022-08-25T08:17:00Z</time>
      </trkpt>
      <trkpt lat="42.75466199999989" lon="-1.7169300000000054">
        <ele>552.035</ele>
        <time>2022-08-25T08:17:01Z</time>
      </trkpt>
      <trkpt lat="42.75465299999989" lon="-1.7169400000000055">
        <ele>552.071</ele>
        <time>2022-08-25T08:17:02Z</time>
      </trkpt>
      <trkpt lat="42.75464199999989" lon="-1.7169500000000055">
        <ele>552.272</ele>
        <time>2022-08-25T08:17:03Z</time>
      </trkpt>
      <trkpt lat="42.75463099999989" lon="-1.7169590000000055">
        <ele>552.223</ele>
        <time>2022-08-25T08:17:04Z</time>
      </trkpt>
      <trkpt lat="42.75461999999989" lon="-1.7169700000000054">
        <ele>552.483</ele>
        <time>2022-08-25T08:17:05Z</time>
      </trkpt>
      <trkpt lat="42.75460799999989" lon="-1.7169760000000054">
        <ele>552.411</ele>
        <time>2022-08-25T08:17:06Z</time>
      </trkpt>
      <trkpt lat="42.75459599999989" lon="-1.7169810000000054">
        <ele>552.809</ele>
        <time>2022-08-25T08:17:07Z</time>
      </trkpt>
      <trkpt lat="42.75458199999989" lon="-1.7169890000000054">
        <ele>552.893</ele>
        <time>2022-08-25T08:17:08Z</time>
      </trkpt>
      <trkpt lat="42.75456899999989" lon="-1.7170010000000053">
        <ele>552.843</ele>
        <time>2022-08-25T08:17:09Z</time>
      </trkpt>
      <trkpt lat="42.75455499999989" lon="-1.7170130000000052">
        <ele>553.063</ele>
        <time>2022-08-25T08:17:10Z</time>
      </trkpt>
      <trkpt lat="42.75454099999989" lon="-1.7170230000000053">
        <ele>553.089</ele>
        <time>2022-08-25T08:17:11Z</time>
      </trkpt>
      <trkpt lat="42.75452899999989" lon="-1.7170330000000054">
        <ele>553.461</ele>
        <time>2022-08-25T08:17:12Z</time>
      </trkpt>
      <trkpt lat="42.75451599999989" lon="-1.7170450000000053">
        <ele>553.688</ele>
        <time>2022-08-25T08:17:13Z</time>
      </trkpt>
      <trkpt lat="42.754502999999886" lon="-1.7170580000000053">
        <ele>554.011</ele>
        <time>2022-08-25T08:17:14Z</time>
      </trkpt>
      <trkpt lat="42.754494999999885" lon="-1.7170730000000054">
        <ele>554.287</ele>
        <time>2022-08-25T08:17:15Z</time>
      </trkpt>
      <trkpt lat="42.75448799999989" lon="-1.7170880000000055">
        <ele>554.498</ele>
        <time>2022-08-25T08:17:16Z</time>
      </trkpt>
      <trkpt lat="42.75447999999989" lon="-1.7171050000000054">
        <ele>554.621</ele>
        <time>2022-08-25T08:17:17Z</time>
      </trkpt>
      <trkpt lat="42.754471999999886" lon="-1.7171160000000054">
        <ele>554.641</ele>
        <time>2022-08-25T08:17:18Z</time>
      </trkpt>
      <trkpt lat="42.754460999999885" lon="-1.7171240000000054">
        <ele>555.005</ele>
        <time>2022-08-25T08:17:19Z</time>
      </trkpt>
      <trkpt lat="42.75445099999988" lon="-1.7171350000000054">
        <ele>555.209</ele>
        <time>2022-08-25T08:17:20Z</time>
      </trkpt>
      <trkpt lat="42.754441999999884" lon="-1.7171460000000054">
        <ele>555.243</ele>
        <time>2022-08-25T08:17:21Z</time>
      </trkpt>
      <trkpt lat="42.75443199999988" lon="-1.7171580000000053">
        <ele>555.493</ele>
        <time>2022-08-25T08:17:22Z</time>
      </trkpt>
      <trkpt lat="42.75442099999988" lon="-1.7171720000000052">
        <ele>555.473</ele>
        <time>2022-08-25T08:17:23Z</time>
      </trkpt>
      <trkpt lat="42.75440899999988" lon="-1.7171830000000052">
        <ele>555.699</ele>
        <time>2022-08-25T08:17:24Z</time>
      </trkpt>
      <trkpt lat="42.75439299999988" lon="-1.7171900000000053">
        <ele>555.851</ele>
        <time>2022-08-25T08:17:25Z</time>
      </trkpt>
      <trkpt lat="42.75437899999988" lon="-1.7171970000000054">
        <ele>556.068</ele>
        <time>2022-08-25T08:17:26Z</time>
      </trkpt>
      <trkpt lat="42.75436499999988" lon="-1.7172040000000055">
        <ele>556.221</ele>
        <time>2022-08-25T08:17:27Z</time>
      </trkpt>
      <trkpt lat="42.75435099999988" lon="-1.7172140000000056">
        <ele>556.247</ele>
        <time>2022-08-25T08:17:28Z</time>
      </trkpt>
      <trkpt lat="42.75433499999988" lon="-1.7172240000000056">
        <ele>556.478</ele>
        <time>2022-08-25T08:17:29Z</time>
      </trkpt>
      <trkpt lat="42.75432299999988" lon="-1.7172310000000057">
        <ele>556.682</ele>
        <time>2022-08-25T08:17:30Z</time>
      </trkpt>
      <trkpt lat="42.754306999999876" lon="-1.7172440000000058">
        <ele>556.843</ele>
        <time>2022-08-25T08:17:31Z</time>
      </trkpt>
      <trkpt lat="42.75429199999988" lon="-1.7172620000000058">
        <ele>556.817</ele>
        <time>2022-08-25T08:17:32Z</time>
      </trkpt>
      <trkpt lat="42.75427599999988" lon="-1.7172750000000059">
        <ele>557.009</ele>
        <time>2022-08-25T08:17:33Z</time>
      </trkpt>
      <trkpt lat="42.754262999999874" lon="-1.717282000000006">
        <ele>557.299</ele>
        <time>2022-08-25T08:17:34Z</time>
      </trkpt>
      <trkpt lat="42.754250999999876" lon="-1.717292000000006">
        <ele>557.469</ele>
        <time>2022-08-25T08:17:35Z</time>
      </trkpt>
      <trkpt lat="42.754239999999875" lon="-1.717303000000006">
        <ele>557.639</ele>
        <time>2022-08-25T08:17:36Z</time>
      </trkpt>
      <trkpt lat="42.754230999999876" lon="-1.717311000000006">
        <ele>557.855</ele>
        <time>2022-08-25T08:17:37Z</time>
      </trkpt>
      <trkpt lat="42.75421899999988" lon="-1.7173180000000061">
        <ele>558.037</ele>
        <time>2022-08-25T08:17:38Z</time>
      </trkpt>
      <trkpt lat="42.75421099999988" lon="-1.7173250000000062">
        <ele>558.274</ele>
        <time>2022-08-25T08:17:39Z</time>
      </trkpt>
      <trkpt lat="42.754197999999874" lon="-1.7173300000000062">
        <ele>558.427</ele>
        <time>2022-08-25T08:17:40Z</time>
      </trkpt>
      <trkpt lat="42.75418499999987" lon="-1.7173370000000063">
        <ele>558.633</ele>
        <time>2022-08-25T08:17:41Z</time>
      </trkpt>
      <trkpt lat="42.754172999999874" lon="-1.7173430000000063">
        <ele>558.824</ele>
        <time>2022-08-25T08:17:42Z</time>
      </trkpt>
      <trkpt lat="42.754160999999876" lon="-1.7173490000000062">
        <ele>559.035</ele>
        <time>2022-08-25T08:17:43Z</time>
      </trkpt>
      <trkpt lat="42.75415199999988" lon="-1.7173580000000062">
        <ele>559.286</ele>
        <time>2022-08-25T08:17:44Z</time>
      </trkpt>
      <trkpt lat="42.75414299999988" lon="-1.7173650000000062">
        <ele>559.414</ele>
        <time>2022-08-25T08:17:45Z</time>
      </trkpt>
      <trkpt lat="42.75413399999988" lon="-1.7173750000000063">
        <ele>559.409</ele>
        <time>2022-08-25T08:17:46Z</time>
      </trkpt>
      <trkpt lat="42.75412599999988" lon="-1.7173820000000064">
        <ele>559.884</ele>
        <time>2022-08-25T08:17:47Z</time>
      </trkpt>
      <trkpt lat="42.75411799999988" lon="-1.7173890000000065">
        <ele>560.024</ele>
        <time>2022-08-25T08:17:48Z</time>
      </trkpt>
      <trkpt lat="42.75411099999988" lon="-1.7173960000000066">
        <ele>560.034</ele>
        <time>2022-08-25T08:17:49Z</time>
      </trkpt>
      <trkpt lat="42.75409999999988" lon="-1.7174050000000065">
        <ele>560.220</ele>
        <time>2022-08-25T08:17:50Z</time>
      </trkpt>
      <trkpt lat="42.75409199999988" lon="-1.7174120000000066">
        <ele>560.272</ele>
        <time>2022-08-25T08:17:51Z</time>
      </trkpt>
      <trkpt lat="42.75408299999988" lon="-1.7174200000000066">
        <ele>560.439</ele>
        <time>2022-08-25T08:17:52Z</time>
      </trkpt>
      <trkpt lat="42.75407399999988" lon="-1.7174280000000066">
        <ele>560.822</ele>
        <time>2022-08-25T08:17:53Z</time>
      </trkpt>
      <trkpt lat="42.754066999999885" lon="-1.7174330000000066">
        <ele>560.838</ele>
        <time>2022-08-25T08:17:54Z</time>
      </trkpt>
      <trkpt lat="42.754055999999885" lon="-1.7174390000000066">
        <ele>561.079</ele>
        <time>2022-08-25T08:17:55Z</time>
      </trkpt>
      <trkpt lat="42.75404399999989" lon="-1.7174480000000065">
        <ele>561.022</ele>
        <time>2022-08-25T08:17:56Z</time>
      </trkpt>
      <trkpt lat="42.75403499999989" lon="-1.7174560000000065">
        <ele>561.262</ele>
        <time>2022-08-25T08:17:57Z</time>
      </trkpt>
      <trkpt lat="42.75402899999989" lon="-1.7174620000000065">
        <ele>561.408</ele>
        <time>2022-08-25T08:17:58Z</time>
      </trkpt>
      <trkpt lat="42.75402499999989" lon="-1.7174680000000064">
        <ele>561.409</ele>
        <time>2022-08-25T08:17:59Z</time>
      </trkpt>
      <trkpt lat="42.75401499999989" lon="-1.7174750000000065">
        <ele>561.663</ele>
        <time>2022-08-25T08:18:00Z</time>
      </trkpt>
      <trkpt lat="42.75400599999989" lon="-1.7174810000000065">
        <ele>561.613</ele>
        <time>2022-08-25T08:18:01Z</time>
      </trkpt>
      <trkpt lat="42.75399599999989" lon="-1.7174880000000066">
        <ele>561.843</ele>
        <time>2022-08-25T08:18:02Z</time>
      </trkpt>
      <trkpt lat="42.75398699999989" lon="-1.7174970000000065">
        <ele>561.839</ele>
        <time>2022-08-25T08:18:03Z</time>
      </trkpt>
      <trkpt lat="42.75397999999989" lon="-1.7175030000000064">
        <ele>562.091</ele>
        <time>2022-08-25T08:18:04Z</time>
      </trkpt>
      <trkpt lat="42.75396999999989" lon="-1.7175060000000064">
        <ele>562.278</ele>
        <time>2022-08-25T08:18:05Z</time>
      </trkpt>
      <trkpt lat="42.75396199999989" lon="-1.7175130000000065">
        <ele>562.491</ele>
        <time>2022-08-25T08:18:06Z</time>
      </trkpt>
      <trkpt lat="42.75395299999989" lon="-1.7175180000000065">
        <ele>562.697</ele>
        <time>2022-08-25T08:18:07Z</time>
      </trkpt>
      <trkpt lat="42.75394599999989" lon="-1.7175220000000064">
        <ele>562.638</ele>
        <time>2022-08-25T08:18:08Z</time>
      </trkpt>
      <trkpt lat="42.753938999999896" lon="-1.7175290000000065">
        <ele>562.873</ele>
        <time>2022-08-25T08:18:09Z</time>
      </trkpt>
      <trkpt lat="42.753930999999895" lon="-1.7175360000000066">
        <ele>563.085</ele>
        <time>2022-08-25T08:18:10Z</time>
      </trkpt>
      <trkpt lat="42.753921999999896" lon="-1.7175400000000065">
        <ele>563.013</ele>
        <time>2022-08-25T08:18:11Z</time>
      </trkpt>
      <trkpt lat="42.753910999999896" lon="-1.7175430000000065">
        <ele>563.009</ele>
        <time>2022-08-25T08:18:12Z</time>
      </trkpt>
      <trkpt lat="42.7539039999999" lon="-1.7175490000000064">
        <ele>563.248</ele>
        <time>2022-08-25T08:18:13Z</time>
      </trkpt>
      <trkpt lat="42.7538969999999" lon="-1.7175540000000065">
        <ele>563.428</ele>
        <time>2022-08-25T08:18:14Z</time>
      </trkpt>
      <trkpt lat="42.7538889999999" lon="-1.7175620000000065">
        <ele>563.668</ele>
        <time>2022-08-25T08:18:15Z</time>
      </trkpt>
      <trkpt lat="42.753881999999905" lon="-1.7175670000000065">
        <ele>563.894</ele>
        <time>2022-08-25T08:18:16Z</time>
      </trkpt>
      <trkpt lat="42.75387499999991" lon="-1.7175740000000066">
        <ele>563.886</ele>
        <time>2022-08-25T08:18:17Z</time>
      </trkpt>
      <trkpt lat="42.75386699999991" lon="-1.7175800000000065">
        <ele>564.073</ele>
        <time>2022-08-25T08:18:18Z</time>
      </trkpt>
      <trkpt lat="42.75385799999991" lon="-1.7175860000000065">
        <ele>564.076</ele>
        <time>2022-08-25T08:18:19Z</time>
      </trkpt>
      <trkpt lat="42.75384699999991" lon="-1.7175950000000064">
        <ele>564.222</ele>
        <time>2022-08-25T08:18:20Z</time>
      </trkpt>
      <trkpt lat="42.75383799999991" lon="-1.7175990000000063">
        <ele>564.443</ele>
        <time>2022-08-25T08:18:21Z</time>
      </trkpt>
      <trkpt lat="42.75382999999991" lon="-1.7176060000000064">
        <ele>564.494</ele>
        <time>2022-08-25T08:18:22Z</time>
      </trkpt>
      <trkpt lat="42.75382299999991" lon="-1.7176110000000064">
        <ele>564.657</ele>
        <time>2022-08-25T08:18:23Z</time>
      </trkpt>
      <trkpt lat="42.75381699999991" lon="-1.7176170000000064">
        <ele>564.622</ele>
        <time>2022-08-25T08:18:24Z</time>
      </trkpt>
      <trkpt lat="42.75380699999991" lon="-1.7176250000000064">
        <ele>564.809</ele>
        <time>2022-08-25T08:18:25Z</time>
      </trkpt>
      <trkpt lat="42.753796999999906" lon="-1.7176340000000063">
        <ele>565.270</ele>
        <time>2022-08-25T08:18:26Z</time>
      </trkpt>
      <trkpt lat="42.753788999999905" lon="-1.7176430000000062">
        <ele>565.280</ele>
        <time>2022-08-25T08:18:27Z</time>
      </trkpt>
      <trkpt lat="42.75378199999991" lon="-1.7176490000000062">
        <ele>565.470</ele>
        <time>2022-08-25T08:18:28Z</time>
      </trkpt>
      <trkpt lat="42.75377399999991" lon="-1.7176580000000061">
        <ele>565.456</ele>
        <time>2022-08-25T08:18:29Z</time>
      </trkpt>
      <trkpt lat="42.75376499999991" lon="-1.717667000000006">
        <ele>565.628</ele>
        <time>2022-08-25T08:18:30Z</time>
      </trkpt>
      <trkpt lat="42.75375899999991" lon="-1.717673000000006">
        <ele>565.615</ele>
        <time>2022-08-25T08:18:31Z</time>
      </trkpt>
      <trkpt lat="42.75375099999991" lon="-1.717679000000006">
        <ele>565.858</ele>
        <time>2022-08-25T08:18:32Z</time>
      </trkpt>
      <trkpt lat="42.75374399999991" lon="-1.717684000000006">
        <ele>566.084</ele>
        <time>2022-08-25T08:18:33Z</time>
      </trkpt>
      <trkpt lat="42.753734999999914" lon="-1.717691000000006">
        <ele>566.075</ele>
        <time>2022-08-25T08:18:34Z</time>
      </trkpt>
      <trkpt lat="42.753728999999915" lon="-1.717696000000006">
        <ele>566.276</ele>
        <time>2022-08-25T08:18:35Z</time>
      </trkpt>
      <trkpt lat="42.753722999999916" lon="-1.7177010000000061">
        <ele>566.290</ele>
        <time>2022-08-25T08:18:36Z</time>
      </trkpt>
      <trkpt lat="42.75371699999992" lon="-1.717707000000006">
        <ele>566.419</ele>
        <time>2022-08-25T08:18:37Z</time>
      </trkpt>
      <trkpt lat="42.75371099999992" lon="-1.7177140000000062">
        <ele>566.409</ele>
        <time>2022-08-25T08:18:38Z</time>
      </trkpt>
      <trkpt lat="42.75370399999992" lon="-1.7177250000000062">
        <ele>566.638</ele>
        <time>2022-08-25T08:18:39Z</time>
      </trkpt>
      <trkpt lat="42.75369799999992" lon="-1.7177330000000062">
        <ele>566.648</ele>
        <time>2022-08-25T08:18:40Z</time>
      </trkpt>
      <trkpt lat="42.753693999999925" lon="-1.7177390000000061">
        <ele>566.848</ele>
        <time>2022-08-25T08:18:41Z</time>
      </trkpt>
      <trkpt lat="42.75368899999992" lon="-1.7177490000000062">
        <ele>566.864</ele>
        <time>2022-08-25T08:18:42Z</time>
      </trkpt>
      <trkpt lat="42.753679999999925" lon="-1.7177560000000063">
        <ele>566.876</ele>
        <time>2022-08-25T08:18:43Z</time>
      </trkpt>
      <trkpt lat="42.75366999999992" lon="-1.7177630000000064">
        <ele>567.053</ele>
        <time>2022-08-25T08:18:44Z</time>
      </trkpt>
      <trkpt lat="42.75366099999992" lon="-1.7177710000000064">
        <ele>567.036</ele>
        <time>2022-08-25T08:18:45Z</time>
      </trkpt>
      <trkpt lat="42.753651999999924" lon="-1.7177810000000064">
        <ele>567.282</ele>
        <time>2022-08-25T08:18:46Z</time>
      </trkpt>
      <trkpt lat="42.75364399999992" lon="-1.7177940000000065">
        <ele>567.293</ele>
        <time>2022-08-25T08:18:47Z</time>
      </trkpt>
      <trkpt lat="42.753637999999924" lon="-1.7178010000000066">
        <ele>567.488</ele>
        <time>2022-08-25T08:18:48Z</time>
      </trkpt>
      <trkpt lat="42.753628999999925" lon="-1.7178120000000066">
        <ele>567.424</ele>
        <time>2022-08-25T08:18:49Z</time>
      </trkpt>
      <trkpt lat="42.753620999999924" lon="-1.7178210000000065">
        <ele>567.426</ele>
        <time>2022-08-25T08:18:50Z</time>
      </trkpt>
      <trkpt lat="42.75361599999992" lon="-1.7178290000000065">
        <ele>567.609</ele>
        <time>2022-08-25T08:18:51Z</time>
      </trkpt>
      <trkpt lat="42.753608999999926" lon="-1.7178380000000064">
        <ele>567.879</ele>
        <time>2022-08-25T08:18:52Z</time>
      </trkpt>
      <trkpt lat="42.753600999999925" lon="-1.7178480000000065">
        <ele>567.889</ele>
        <time>2022-08-25T08:18:53Z</time>
      </trkpt>
      <trkpt lat="42.75359099999992" lon="-1.7178550000000066">
        <ele>568.459</ele>
        <time>2022-08-25T08:18:54Z</time>
      </trkpt>
      <trkpt lat="42.75358199999992" lon="-1.7178630000000066">
        <ele>568.685</ele>
        <time>2022-08-25T08:18:55Z</time>
      </trkpt>
      <trkpt lat="42.753575999999924" lon="-1.7178700000000067">
        <ele>568.827</ele>
        <time>2022-08-25T08:18:56Z</time>
      </trkpt>
      <trkpt lat="42.75356899999993" lon="-1.7178800000000067">
        <ele>568.894</ele>
        <time>2022-08-25T08:18:57Z</time>
      </trkpt>
      <trkpt lat="42.75356499999993" lon="-1.7178920000000066">
        <ele>569.237</ele>
        <time>2022-08-25T08:18:58Z</time>
      </trkpt>
      <trkpt lat="42.75355999999993" lon="-1.7178950000000066">
        <ele>569.443</ele>
        <time>2022-08-25T08:18:59Z</time>
      </trkpt>
      <trkpt lat="42.75355199999993" lon="-1.7179000000000066">
        <ele>569.654</ele>
        <time>2022-08-25T08:19:00Z</time>
      </trkpt>
      <trkpt lat="42.75354799999993" lon="-1.7179080000000067">
        <ele>569.821</ele>
        <time>2022-08-25T08:19:01Z</time>
      </trkpt>
      <trkpt lat="42.75353999999993" lon="-1.7179180000000067">
        <ele>569.841</ele>
        <time>2022-08-25T08:19:02Z</time>
      </trkpt>
      <trkpt lat="42.75352999999993" lon="-1.7179260000000067">
        <ele>570.005</ele>
        <time>2022-08-25T08:19:03Z</time>
      </trkpt>
      <trkpt lat="42.753521999999926" lon="-1.7179300000000066">
        <ele>570.209</ele>
        <time>2022-08-25T08:19:04Z</time>
      </trkpt>
      <trkpt lat="42.753513999999925" lon="-1.7179360000000066">
        <ele>570.493</ele>
        <time>2022-08-25T08:19:05Z</time>
      </trkpt>
      <trkpt lat="42.75350699999993" lon="-1.7179430000000067">
        <ele>570.633</ele>
        <time>2022-08-25T08:19:06Z</time>
      </trkpt>
      <trkpt lat="42.75349999999993" lon="-1.7179530000000067">
        <ele>570.633</ele>
        <time>2022-08-25T08:19:07Z</time>
      </trkpt>
      <trkpt lat="42.75349199999993" lon="-1.7179630000000068">
        <ele>570.849</ele>
        <time>2022-08-25T08:19:08Z</time>
      </trkpt>
      <trkpt lat="42.75348699999993" lon="-1.7179710000000068">
        <ele>570.831</ele>
        <time>2022-08-25T08:19:09Z</time>
      </trkpt>
      <trkpt lat="42.75348199999993" lon="-1.7179780000000069">
        <ele>570.848</ele>
        <time>2022-08-25T08:19:10Z</time>
      </trkpt>
      <trkpt lat="42.753476999999926" lon="-1.717985000000007">
        <ele>571.021</ele>
        <time>2022-08-25T08:19:11Z</time>
      </trkpt>
      <trkpt lat="42.75346799999993" lon="-1.717995000000007">
        <ele>571.217</ele>
        <time>2022-08-25T08:19:12Z</time>
      </trkpt>
      <trkpt lat="42.75345899999993" lon="-1.718005000000007">
        <ele>571.468</ele>
        <time>2022-08-25T08:19:13Z</time>
      </trkpt>
      <trkpt lat="42.75345199999993" lon="-1.7180130000000071">
        <ele>571.444</ele>
        <time>2022-08-25T08:19:14Z</time>
      </trkpt>
      <trkpt lat="42.753444999999935" lon="-1.7180200000000072">
        <ele>571.605</ele>
        <time>2022-08-25T08:19:15Z</time>
      </trkpt>
      <trkpt lat="42.75343599999994" lon="-1.7180260000000072">
        <ele>571.815</ele>
        <time>2022-08-25T08:19:16Z</time>
      </trkpt>
      <trkpt lat="42.75342899999994" lon="-1.7180310000000072">
        <ele>571.809</ele>
        <time>2022-08-25T08:19:17Z</time>
      </trkpt>
      <trkpt lat="42.75341899999994" lon="-1.7180410000000073">
        <ele>572.065</ele>
        <time>2022-08-25T08:19:18Z</time>
      </trkpt>
      <trkpt lat="42.753410999999936" lon="-1.7180500000000072">
        <ele>572.275</ele>
        <time>2022-08-25T08:19:19Z</time>
      </trkpt>
      <trkpt lat="42.75340499999994" lon="-1.718059000000007">
        <ele>572.245</ele>
        <time>2022-08-25T08:19:20Z</time>
      </trkpt>
      <trkpt lat="42.753399999999935" lon="-1.7180690000000072">
        <ele>572.251</ele>
        <time>2022-08-25T08:19:21Z</time>
      </trkpt>
      <trkpt lat="42.753394999999934" lon="-1.7180790000000072">
        <ele>572.243</ele>
        <time>2022-08-25T08:19:22Z</time>
      </trkpt>
      <trkpt lat="42.75338499999993" lon="-1.7180890000000073">
        <ele>572.420</ele>
        <time>2022-08-25T08:19:23Z</time>
      </trkpt>
      <trkpt lat="42.75337599999993" lon="-1.7180960000000074">
        <ele>572.453</ele>
        <time>2022-08-25T08:19:24Z</time>
      </trkpt>
      <trkpt lat="42.75336499999993" lon="-1.7181000000000073">
        <ele>572.429</ele>
        <time>2022-08-25T08:19:25Z</time>
      </trkpt>
      <trkpt lat="42.75335299999993" lon="-1.7181010000000072">
        <ele>572.620</ele>
        <time>2022-08-25T08:19:26Z</time>
      </trkpt>
      <trkpt lat="42.75333999999993" lon="-1.7181030000000073">
        <ele>572.682</ele>
        <time>2022-08-25T08:19:27Z</time>
      </trkpt>
      <trkpt lat="42.75332899999993" lon="-1.7181080000000073">
        <ele>572.843</ele>
        <time>2022-08-25T08:19:28Z</time>
      </trkpt>
      <trkpt lat="42.75331899999993" lon="-1.7181140000000072">
        <ele>572.817</ele>
        <time>2022-08-25T08:19:29Z</time>
      </trkpt>
      <trkpt lat="42.753307999999926" lon="-1.7181170000000072">
        <ele>573.009</ele>
        <time>2022-08-25T08:19:30Z</time>
      </trkpt>
      <trkpt lat="42.753299999999925" lon="-1.7181220000000073">
        <ele>573.239</ele>
        <time>2022-08-25T08:19:31Z</time>
      </trkpt>
      <trkpt lat="42.753290999999926" lon="-1.7181260000000071">
        <ele>573.449</ele>
        <time>2022-08-25T08:19:32Z</time>
      </trkpt>
      <trkpt lat="42.753279999999926" lon="-1.7181310000000072">
        <ele>573.459</ele>
        <time>2022-08-25T08:19:33Z</time>
      </trkpt>
      <trkpt lat="42.75327299999993" lon="-1.718132000000007">
        <ele>573.835</ele>
        <time>2022-08-25T08:19:34Z</time>
      </trkpt>
      <trkpt lat="42.753262999999926" lon="-1.7181340000000072">
        <ele>573.857</ele>
        <time>2022-08-25T08:19:35Z</time>
      </trkpt>
      <trkpt lat="42.75324999999992" lon="-1.7181390000000072">
        <ele>574.054</ele>
        <time>2022-08-25T08:19:36Z</time>
      </trkpt>
      <trkpt lat="42.75323899999992" lon="-1.7181460000000073">
        <ele>574.257</ele>
        <time>2022-08-25T08:19:37Z</time>
      </trkpt>
      <trkpt lat="42.75323099999992" lon="-1.7181540000000073">
        <ele>574.243</ele>
        <time>2022-08-25T08:19:38Z</time>
      </trkpt>
      <trkpt lat="42.75322499999992" lon="-1.7181640000000074">
        <ele>574.644</ele>
        <time>2022-08-25T08:19:39Z</time>
      </trkpt>
      <trkpt lat="42.75321899999992" lon="-1.7181680000000072">
        <ele>574.628</ele>
        <time>2022-08-25T08:19:40Z</time>
      </trkpt>
      <trkpt lat="42.75321099999992" lon="-1.7181690000000072">
        <ele>575.089</ele>
        <time>2022-08-25T08:19:41Z</time>
      </trkpt>
      <trkpt lat="42.753198999999924" lon="-1.7181690000000072">
        <ele>575.217</ele>
        <time>2022-08-25T08:19:42Z</time>
      </trkpt>
      <trkpt lat="42.75318899999992" lon="-1.718170000000007">
        <ele>575.609</ele>
        <time>2022-08-25T08:19:43Z</time>
      </trkpt>
      <trkpt lat="42.75318099999992" lon="-1.718170000000007">
        <ele>575.613</ele>
        <time>2022-08-25T08:19:44Z</time>
      </trkpt>
      <trkpt lat="42.75317499999992" lon="-1.718173000000007">
        <ele>575.863</ele>
        <time>2022-08-25T08:19:45Z</time>
      </trkpt>
      <trkpt lat="42.753167999999924" lon="-1.718177000000007">
        <ele>576.053</ele>
        <time>2022-08-25T08:19:46Z</time>
      </trkpt>
      <trkpt lat="42.75315699999992" lon="-1.718180000000007">
        <ele>576.079</ele>
        <time>2022-08-25T08:19:47Z</time>
      </trkpt>
      <trkpt lat="42.75314999999993" lon="-1.7181840000000068">
        <ele>576.221</ele>
        <time>2022-08-25T08:19:48Z</time>
      </trkpt>
      <trkpt lat="42.753139999999924" lon="-1.7181890000000068">
        <ele>576.248</ele>
        <time>2022-08-25T08:19:49Z</time>
      </trkpt>
      <trkpt lat="42.75313199999992" lon="-1.7181920000000068">
        <ele>576.441</ele>
        <time>2022-08-25T08:19:50Z</time>
      </trkpt>
      <trkpt lat="42.753122999999924" lon="-1.7181970000000069">
        <ele>576.637</ele>
        <time>2022-08-25T08:19:51Z</time>
      </trkpt>
      <trkpt lat="42.75311599999993" lon="-1.718202000000007">
        <ele>576.658</ele>
        <time>2022-08-25T08:19:52Z</time>
      </trkpt>
      <trkpt lat="42.75310399999993" lon="-1.718210000000007">
        <ele>576.887</ele>
        <time>2022-08-25T08:19:53Z</time>
      </trkpt>
      <trkpt lat="42.75309599999993" lon="-1.718212000000007">
        <ele>576.842</ele>
        <time>2022-08-25T08:19:54Z</time>
      </trkpt>
      <trkpt lat="42.75309199999993" lon="-1.718211000000007">
        <ele>577.026</ele>
        <time>2022-08-25T08:19:55Z</time>
      </trkpt>
      <trkpt lat="42.75308399999993" lon="-1.718211000000007">
        <ele>577.009</ele>
        <time>2022-08-25T08:19:56Z</time>
      </trkpt>
      <trkpt lat="42.75307399999993" lon="-1.718212000000007">
        <ele>577.059</ele>
        <time>2022-08-25T08:19:57Z</time>
      </trkpt>
      <trkpt lat="42.75306499999993" lon="-1.718214000000007">
        <ele>577.289</ele>
        <time>2022-08-25T08:19:58Z</time>
      </trkpt>
      <trkpt lat="42.75305599999993" lon="-1.718214000000007">
        <ele>577.229</ele>
        <time>2022-08-25T08:19:59Z</time>
      </trkpt>
      <trkpt lat="42.75304799999993" lon="-1.718216000000007">
        <ele>577.275</ele>
        <time>2022-08-25T08:20:00Z</time>
      </trkpt>
      <trkpt lat="42.75304099999993" lon="-1.718217000000007">
        <ele>577.427</ele>
        <time>2022-08-25T08:20:01Z</time>
      </trkpt>
      <trkpt lat="42.75303299999993" lon="-1.718219000000007">
        <ele>577.634</ele>
        <time>2022-08-25T08:20:02Z</time>
      </trkpt>
      <trkpt lat="42.753025999999934" lon="-1.718222000000007">
        <ele>577.847</ele>
        <time>2022-08-25T08:20:03Z</time>
      </trkpt>
      <trkpt lat="42.753016999999936" lon="-1.718225000000007">
        <ele>578.093</ele>
        <time>2022-08-25T08:20:04Z</time>
      </trkpt>
      <trkpt lat="42.753008999999935" lon="-1.718227000000007">
        <ele>578.014</ele>
        <time>2022-08-25T08:20:05Z</time>
      </trkpt>
      <trkpt lat="42.752997999999934" lon="-1.7182290000000071">
        <ele>578.285</ele>
        <time>2022-08-25T08:20:06Z</time>
      </trkpt>
      <trkpt lat="42.75298799999993" lon="-1.718233000000007">
        <ele>578.289</ele>
        <time>2022-08-25T08:20:07Z</time>
      </trkpt>
      <trkpt lat="42.75297799999993" lon="-1.718235000000007">
        <ele>578.417</ele>
        <time>2022-08-25T08:20:08Z</time>
      </trkpt>
      <trkpt lat="42.752967999999925" lon="-1.718239000000007">
        <ele>578.609</ele>
        <time>2022-08-25T08:20:09Z</time>
      </trkpt>
      <trkpt lat="42.75296099999993" lon="-1.718244000000007">
        <ele>578.639</ele>
        <time>2022-08-25T08:20:10Z</time>
      </trkpt>
      <trkpt lat="42.75295199999993" lon="-1.718251000000007">
        <ele>578.859</ele>
        <time>2022-08-25T08:20:11Z</time>
      </trkpt>
      <trkpt lat="42.752941999999926" lon="-1.718255000000007">
        <ele>579.049</ele>
        <time>2022-08-25T08:20:12Z</time>
      </trkpt>
      <trkpt lat="42.752930999999926" lon="-1.7182560000000069">
        <ele>579.225</ele>
        <time>2022-08-25T08:20:13Z</time>
      </trkpt>
      <trkpt lat="42.752922999999925" lon="-1.7182600000000068">
        <ele>579.247</ele>
        <time>2022-08-25T08:20:14Z</time>
      </trkpt>
      <trkpt lat="42.752910999999926" lon="-1.7182630000000068">
        <ele>579.274</ele>
        <time>2022-08-25T08:20:15Z</time>
      </trkpt>
      <trkpt lat="42.75289899999993" lon="-1.7182660000000067">
        <ele>579.467</ele>
        <time>2022-08-25T08:20:16Z</time>
      </trkpt>
      <trkpt lat="42.75289099999993" lon="-1.7182670000000067">
        <ele>579.683</ele>
        <time>2022-08-25T08:20:17Z</time>
      </trkpt>
      <trkpt lat="42.752877999999924" lon="-1.7182680000000066">
        <ele>579.844</ele>
        <time>2022-08-25T08:20:18Z</time>
      </trkpt>
      <trkpt lat="42.75286799999992" lon="-1.7182680000000066">
        <ele>579.842</ele>
        <time>2022-08-25T08:20:19Z</time>
      </trkpt>
      <trkpt lat="42.75285799999992" lon="-1.7182710000000065">
        <ele>579.822</ele>
        <time>2022-08-25T08:20:20Z</time>
      </trkpt>
      <trkpt lat="42.752847999999915" lon="-1.7182760000000066">
        <ele>580.014</ele>
        <time>2022-08-25T08:20:21Z</time>
      </trkpt>
      <trkpt lat="42.752838999999916" lon="-1.7182820000000065">
        <ele>580.209</ele>
        <time>2022-08-25T08:20:22Z</time>
      </trkpt>
      <trkpt lat="42.75282899999991" lon="-1.7182870000000066">
        <ele>580.255</ele>
        <time>2022-08-25T08:20:23Z</time>
      </trkpt>
      <trkpt lat="42.75282199999992" lon="-1.7182890000000066">
        <ele>580.415</ele>
        <time>2022-08-25T08:20:24Z</time>
      </trkpt>
      <trkpt lat="42.75281199999991" lon="-1.7182910000000067">
        <ele>580.495</ele>
        <time>2022-08-25T08:20:25Z</time>
      </trkpt>
      <trkpt lat="42.75280099999991" lon="-1.7182930000000067">
        <ele>580.611</ele>
        <time>2022-08-25T08:20:26Z</time>
      </trkpt>
      <trkpt lat="42.752794999999914" lon="-1.7182970000000066">
        <ele>580.673</ele>
        <time>2022-08-25T08:20:27Z</time>
      </trkpt>
      <trkpt lat="42.752785999999915" lon="-1.7183020000000067">
        <ele>580.880</ele>
        <time>2022-08-25T08:20:28Z</time>
      </trkpt>
      <trkpt lat="42.75277899999992" lon="-1.7183050000000066">
        <ele>581.043</ele>
        <time>2022-08-25T08:20:29Z</time>
      </trkpt>
      <trkpt lat="42.75277099999992" lon="-1.7183090000000065">
        <ele>581.279</ele>
        <time>2022-08-25T08:20:30Z</time>
      </trkpt>
      <trkpt lat="42.75276199999992" lon="-1.7183140000000066">
        <ele>581.450</ele>
        <time>2022-08-25T08:20:31Z</time>
      </trkpt>
      <trkpt lat="42.752751999999916" lon="-1.7183220000000066">
        <ele>581.255</ele>
        <time>2022-08-25T08:20:32Z</time>
      </trkpt>
      <trkpt lat="42.75274499999992" lon="-1.7183270000000066">
        <ele>581.207</ele>
        <time>2022-08-25T08:20:33Z</time>
      </trkpt>
      <trkpt lat="42.75273599999992" lon="-1.7183290000000067">
        <ele>581.617</ele>
        <time>2022-08-25T08:20:34Z</time>
      </trkpt>
      <trkpt lat="42.75272799999992" lon="-1.7183280000000067">
        <ele>581.409</ele>
        <time>2022-08-25T08:20:35Z</time>
      </trkpt>
      <trkpt lat="42.75271599999992" lon="-1.7183290000000067">
        <ele>581.446</ele>
        <time>2022-08-25T08:20:36Z</time>
      </trkpt>
      <trkpt lat="42.75270699999992" lon="-1.7183340000000067">
        <ele>581.856</ele>
        <time>2022-08-25T08:20:37Z</time>
      </trkpt>
      <trkpt lat="42.75269599999992" lon="-1.7183400000000066">
        <ele>581.846</ele>
        <time>2022-08-25T08:20:38Z</time>
      </trkpt>
      <trkpt lat="42.75268599999992" lon="-1.7183440000000065">
        <ele>582.042</ele>
        <time>2022-08-25T08:20:39Z</time>
      </trkpt>
      <trkpt lat="42.75267699999992" lon="-1.7183470000000065">
        <ele>582.214</ele>
        <time>2022-08-25T08:20:40Z</time>
      </trkpt>
      <trkpt lat="42.75266699999992" lon="-1.7183520000000065">
        <ele>582.251</ele>
        <time>2022-08-25T08:20:41Z</time>
      </trkpt>
      <trkpt lat="42.752656999999914" lon="-1.7183550000000065">
        <ele>582.254</ele>
        <time>2022-08-25T08:20:42Z</time>
      </trkpt>
      <trkpt lat="42.75264999999992" lon="-1.7183580000000065">
        <ele>582.490</ele>
        <time>2022-08-25T08:20:43Z</time>
      </trkpt>
      <trkpt lat="42.75264399999992" lon="-1.7183580000000065">
        <ele>582.431</ele>
        <time>2022-08-25T08:20:44Z</time>
      </trkpt>
      <trkpt lat="42.75263699999992" lon="-1.7183610000000065">
        <ele>582.822</ele>
        <time>2022-08-25T08:20:45Z</time>
      </trkpt>
      <trkpt lat="42.75262899999992" lon="-1.7183650000000064">
        <ele>582.862</ele>
        <time>2022-08-25T08:20:46Z</time>
      </trkpt>
      <trkpt lat="42.75261799999992" lon="-1.7183720000000064">
        <ele>583.008</ele>
        <time>2022-08-25T08:20:47Z</time>
      </trkpt>
      <trkpt lat="42.75260999999992" lon="-1.7183790000000065">
        <ele>583.009</ele>
        <time>2022-08-25T08:20:48Z</time>
      </trkpt>
      <trkpt lat="42.75260199999992" lon="-1.7183830000000064">
        <ele>583.043</ele>
        <time>2022-08-25T08:20:49Z</time>
      </trkpt>
      <trkpt lat="42.75259499999992" lon="-1.7183880000000065">
        <ele>583.273</ele>
        <time>2022-08-25T08:20:50Z</time>
      </trkpt>
      <trkpt lat="42.75258599999992" lon="-1.7183920000000064">
        <ele>583.493</ele>
        <time>2022-08-25T08:20:51Z</time>
      </trkpt>
      <trkpt lat="42.752578999999926" lon="-1.7183970000000064">
        <ele>583.629</ele>
        <time>2022-08-25T08:20:52Z</time>
      </trkpt>
      <trkpt lat="42.752573999999925" lon="-1.7183990000000064">
        <ele>583.661</ele>
        <time>2022-08-25T08:20:53Z</time>
      </trkpt>
      <trkpt lat="42.752564999999926" lon="-1.7184000000000064">
        <ele>583.818</ele>
        <time>2022-08-25T08:20:54Z</time>
      </trkpt>
      <trkpt lat="42.752553999999925" lon="-1.7184040000000063">
        <ele>583.851</ele>
        <time>2022-08-25T08:20:55Z</time>
      </trkpt>
      <trkpt lat="42.75254699999993" lon="-1.7184060000000063">
        <ele>584.057</ele>
        <time>2022-08-25T08:20:56Z</time>
      </trkpt>
      <trkpt lat="42.752533999999926" lon="-1.7184140000000063">
        <ele>584.238</ele>
        <time>2022-08-25T08:20:57Z</time>
      </trkpt>
      <trkpt lat="42.752525999999925" lon="-1.7184180000000062">
        <ele>584.262</ele>
        <time>2022-08-25T08:20:58Z</time>
      </trkpt>
      <trkpt lat="42.75251399999993" lon="-1.7184230000000063">
        <ele>584.483</ele>
        <time>2022-08-25T08:20:59Z</time>
      </trkpt>
      <trkpt lat="42.75250199999993" lon="-1.7184240000000062">
        <ele>584.411</ele>
        <time>2022-08-25T08:21:00Z</time>
      </trkpt>
      <trkpt lat="42.75248699999993" lon="-1.7184290000000062">
        <ele>584.609</ele>
        <time>2022-08-25T08:21:01Z</time>
      </trkpt>
      <trkpt lat="42.75247899999993" lon="-1.7184340000000062">
        <ele>584.877</ele>
        <time>2022-08-25T08:21:02Z</time>
      </trkpt>
      <trkpt lat="42.75246899999993" lon="-1.7184420000000062">
        <ele>585.057</ele>
        <time>2022-08-25T08:21:03Z</time>
      </trkpt>
      <trkpt lat="42.752457999999926" lon="-1.7184490000000063">
        <ele>585.277</ele>
        <time>2022-08-25T08:21:04Z</time>
      </trkpt>
      <trkpt lat="42.75244599999993" lon="-1.7184560000000064">
        <ele>585.413</ele>
        <time>2022-08-25T08:21:05Z</time>
      </trkpt>
      <trkpt lat="42.75243799999993" lon="-1.7184620000000064">
        <ele>585.675</ele>
        <time>2022-08-25T08:21:06Z</time>
      </trkpt>
      <trkpt lat="42.752427999999924" lon="-1.7184700000000064">
        <ele>585.862</ele>
        <time>2022-08-25T08:21:07Z</time>
      </trkpt>
      <trkpt lat="42.75241999999992" lon="-1.7184780000000064">
        <ele>585.885</ele>
        <time>2022-08-25T08:21:08Z</time>
      </trkpt>
      <trkpt lat="42.752412999999926" lon="-1.7184860000000064">
        <ele>586.021</ele>
        <time>2022-08-25T08:21:09Z</time>
      </trkpt>
      <trkpt lat="42.752401999999925" lon="-1.7184960000000065">
        <ele>586.272</ele>
        <time>2022-08-25T08:21:10Z</time>
      </trkpt>
      <trkpt lat="42.75239499999993" lon="-1.7185030000000066">
        <ele>586.278</ele>
        <time>2022-08-25T08:21:11Z</time>
      </trkpt>
      <trkpt lat="42.75238599999993" lon="-1.7185100000000066">
        <ele>586.433</ele>
        <time>2022-08-25T08:21:12Z</time>
      </trkpt>
      <trkpt lat="42.75237699999993" lon="-1.7185170000000067">
        <ele>586.626</ele>
        <time>2022-08-25T08:21:13Z</time>
      </trkpt>
      <trkpt lat="42.75236799999993" lon="-1.7185220000000068">
        <ele>586.809</ele>
        <time>2022-08-25T08:21:14Z</time>
      </trkpt>
      <trkpt lat="42.75235799999993" lon="-1.7185310000000067">
        <ele>587.088</ele>
        <time>2022-08-25T08:21:15Z</time>
      </trkpt>
      <trkpt lat="42.75234999999993" lon="-1.7185390000000067">
        <ele>587.298</ele>
        <time>2022-08-25T08:21:16Z</time>
      </trkpt>
      <trkpt lat="42.75234199999993" lon="-1.7185470000000067">
        <ele>587.248</ele>
        <time>2022-08-25T08:21:17Z</time>
      </trkpt>
      <trkpt lat="42.75233599999993" lon="-1.7185530000000067">
        <ele>587.484</ele>
        <time>2022-08-25T08:21:18Z</time>
      </trkpt>
      <trkpt lat="42.75232999999993" lon="-1.7185600000000067">
        <ele>587.646</ele>
        <time>2022-08-25T08:21:19Z</time>
      </trkpt>
      <trkpt lat="42.75232099999993" lon="-1.7185680000000068">
        <ele>587.483</ele>
        <time>2022-08-25T08:21:20Z</time>
      </trkpt>
      <trkpt lat="42.752313999999934" lon="-1.7185760000000068">
        <ele>587.846</ele>
        <time>2022-08-25T08:21:21Z</time>
      </trkpt>
      <trkpt lat="42.75230599999993" lon="-1.7185830000000069">
        <ele>587.862</ele>
        <time>2022-08-25T08:21:22Z</time>
      </trkpt>
      <trkpt lat="42.75229799999993" lon="-1.7185920000000068">
        <ele>588.023</ele>
        <time>2022-08-25T08:21:23Z</time>
      </trkpt>
      <trkpt lat="42.752288999999934" lon="-1.7186010000000067">
        <ele>588.061</ele>
        <time>2022-08-25T08:21:24Z</time>
      </trkpt>
      <trkpt lat="42.75228099999993" lon="-1.7186140000000067">
        <ele>588.221</ele>
        <time>2022-08-25T08:21:25Z</time>
      </trkpt>
      <trkpt lat="42.75227499999993" lon="-1.7186210000000068">
        <ele>588.013</ele>
        <time>2022-08-25T08:21:26Z</time>
      </trkpt>
      <trkpt lat="42.75226799999994" lon="-1.718631000000007">
        <ele>588.409</ele>
        <time>2022-08-25T08:21:27Z</time>
      </trkpt>
      <trkpt lat="42.75226099999994" lon="-1.7186420000000069">
        <ele>588.467</ele>
        <time>2022-08-25T08:21:28Z</time>
      </trkpt>
      <trkpt lat="42.752253999999944" lon="-1.718650000000007">
        <ele>588.897</ele>
        <time>2022-08-25T08:21:29Z</time>
      </trkpt>
      <trkpt lat="42.75224599999994" lon="-1.7186590000000068">
        <ele>589.057</ele>
        <time>2022-08-25T08:21:30Z</time>
      </trkpt>
      <trkpt lat="42.75223799999994" lon="-1.7186700000000068">
        <ele>589.073</ele>
        <time>2022-08-25T08:21:31Z</time>
      </trkpt>
      <trkpt lat="42.752230999999945" lon="-1.7186810000000068">
        <ele>589.225</ele>
        <time>2022-08-25T08:21:32Z</time>
      </trkpt>
      <trkpt lat="42.75222699999995" lon="-1.7186880000000069">
        <ele>589.242</ele>
        <time>2022-08-25T08:21:33Z</time>
      </trkpt>
      <trkpt lat="42.75221999999995" lon="-1.7187000000000068">
        <ele>589.425</ele>
        <time>2022-08-25T08:21:34Z</time>
      </trkpt>
      <trkpt lat="42.75221199999995" lon="-1.7187120000000067">
        <ele>589.471</ele>
        <time>2022-08-25T08:21:35Z</time>
      </trkpt>
      <trkpt lat="42.75220299999995" lon="-1.7187220000000067">
        <ele>589.682</ele>
        <time>2022-08-25T08:21:36Z</time>
      </trkpt>
      <trkpt lat="42.75219699999995" lon="-1.7187280000000067">
        <ele>589.833</ele>
        <time>2022-08-25T08:21:37Z</time>
      </trkpt>
      <trkpt lat="42.75218899999995" lon="-1.7187380000000068">
        <ele>590.023</ele>
        <time>2022-08-25T08:21:38Z</time>
      </trkpt>
      <trkpt lat="42.75218299999995" lon="-1.7187450000000069">
        <ele>590.215</ele>
        <time>2022-08-25T08:21:39Z</time>
      </trkpt>
      <trkpt lat="42.752175999999956" lon="-1.7187530000000069">
        <ele>590.209</ele>
        <time>2022-08-25T08:21:40Z</time>
      </trkpt>
      <trkpt lat="42.75216899999996" lon="-1.7187640000000068">
        <ele>590.254</ele>
        <time>2022-08-25T08:21:41Z</time>
      </trkpt>
      <trkpt lat="42.75216099999996" lon="-1.718774000000007">
        <ele>590.484</ele>
        <time>2022-08-25T08:21:42Z</time>
      </trkpt>
      <trkpt lat="42.75215299999996" lon="-1.718785000000007">
        <ele>590.424</ele>
        <time>2022-08-25T08:21:43Z</time>
      </trkpt>
      <trkpt lat="42.75214699999996" lon="-1.718795000000007">
        <ele>590.620</ele>
        <time>2022-08-25T08:21:44Z</time>
      </trkpt>
      <trkpt lat="42.75213999999996" lon="-1.718805000000007">
        <ele>590.692</ele>
        <time>2022-08-25T08:21:45Z</time>
      </trkpt>
      <trkpt lat="42.752132999999965" lon="-1.718814000000007">
        <ele>590.859</ele>
        <time>2022-08-25T08:21:46Z</time>
      </trkpt>
      <trkpt lat="42.752124999999964" lon="-1.718824000000007">
        <ele>591.092</ele>
        <time>2022-08-25T08:21:47Z</time>
      </trkpt>
      <trkpt lat="42.75211499999996" lon="-1.718833000000007">
        <ele>591.258</ele>
        <time>2022-08-25T08:21:48Z</time>
      </trkpt>
      <trkpt lat="42.75210899999996" lon="-1.718844000000007">
        <ele>591.249</ele>
        <time>2022-08-25T08:21:49Z</time>
      </trkpt>
      <trkpt lat="42.75210299999996" lon="-1.718852000000007">
        <ele>591.444</ele>
        <time>2022-08-25T08:21:50Z</time>
      </trkpt>
      <trkpt lat="42.752095999999966" lon="-1.7188610000000069">
        <ele>591.405</ele>
        <time>2022-08-25T08:21:51Z</time>
      </trkpt>
      <trkpt lat="42.752087999999965" lon="-1.7188700000000068">
        <ele>591.615</ele>
        <time>2022-08-25T08:21:52Z</time>
      </trkpt>
      <trkpt lat="42.752081999999966" lon="-1.7188780000000068">
        <ele>591.809</ele>
        <time>2022-08-25T08:21:53Z</time>
      </trkpt>
      <trkpt lat="42.752073999999965" lon="-1.7188880000000069">
        <ele>591.825</ele>
        <time>2022-08-25T08:21:54Z</time>
      </trkpt>
      <trkpt lat="42.75206699999997" lon="-1.718898000000007">
        <ele>592.045</ele>
        <time>2022-08-25T08:21:55Z</time>
      </trkpt>
      <trkpt lat="42.75205999999997" lon="-1.7189040000000069">
        <ele>592.285</ele>
        <time>2022-08-25T08:21:56Z</time>
      </trkpt>
      <trkpt lat="42.75205099999997" lon="-1.7189120000000069">
        <ele>592.211</ele>
        <time>2022-08-25T08:21:57Z</time>
      </trkpt>
      <trkpt lat="42.752041999999975" lon="-1.7189210000000068">
        <ele>592.453</ele>
        <time>2022-08-25T08:21:58Z</time>
      </trkpt>
      <trkpt lat="42.75203499999998" lon="-1.7189310000000069">
        <ele>592.480</ele>
        <time>2022-08-25T08:21:59Z</time>
      </trkpt>
      <trkpt lat="42.752029999999976" lon="-1.7189390000000069">
        <ele>592.623</ele>
        <time>2022-08-25T08:22:00Z</time>
      </trkpt>
      <trkpt lat="42.75202299999998" lon="-1.7189500000000069">
        <ele>592.689</ele>
        <time>2022-08-25T08:22:01Z</time>
      </trkpt>
      <trkpt lat="42.75201799999998" lon="-1.718960000000007">
        <ele>593.260</ele>
        <time>2022-08-25T08:22:02Z</time>
      </trkpt>
      <trkpt lat="42.75201099999998" lon="-1.718971000000007">
        <ele>593.648</ele>
        <time>2022-08-25T08:22:03Z</time>
      </trkpt>
      <trkpt lat="42.752003999999985" lon="-1.718981000000007">
        <ele>593.661</ele>
        <time>2022-08-25T08:22:04Z</time>
      </trkpt>
      <trkpt lat="42.751997999999986" lon="-1.7189930000000069">
        <ele>593.817</ele>
        <time>2022-08-25T08:22:05Z</time>
      </trkpt>
      <trkpt lat="42.751992999999985" lon="-1.7190050000000068">
        <ele>594.009</ele>
        <time>2022-08-25T08:22:06Z</time>
      </trkpt>
      <trkpt lat="42.75198799999998" lon="-1.7190170000000067">
        <ele>594.275</ele>
        <time>2022-08-25T08:22:07Z</time>
      </trkpt>
      <trkpt lat="42.751981999999984" lon="-1.7190270000000067">
        <ele>594.425</ele>
        <time>2022-08-25T08:22:08Z</time>
      </trkpt>
      <trkpt lat="42.75197499999999" lon="-1.7190350000000068">
        <ele>594.485</ele>
        <time>2022-08-25T08:22:09Z</time>
      </trkpt>
      <trkpt lat="42.75196799999999" lon="-1.7190430000000068">
        <ele>594.641</ele>
        <time>2022-08-25T08:22:10Z</time>
      </trkpt>
      <trkpt lat="42.75196199999999" lon="-1.7190520000000067">
        <ele>594.663</ele>
        <time>2022-08-25T08:22:11Z</time>
      </trkpt>
      <trkpt lat="42.751954999999995" lon="-1.7190630000000067">
        <ele>594.820</ele>
        <time>2022-08-25T08:22:12Z</time>
      </trkpt>
      <trkpt lat="42.751946" lon="-1.7190740000000067">
        <ele>594.833</ele>
        <time>2022-08-25T08:22:13Z</time>
      </trkpt>
      <trkpt lat="42.751937" lon="-1.7190850000000066">
        <ele>595.059</ele>
        <time>2022-08-25T08:22:14Z</time>
      </trkpt>
      <trkpt lat="42.751929" lon="-1.7190940000000066">
        <ele>595.050</ele>
        <time>2022-08-25T08:22:15Z</time>
      </trkpt>
      <trkpt lat="42.751923" lon="-1.7191010000000067">
        <ele>595.231</ele>
        <time>2022-08-25T08:22:16Z</time>
      </trkpt>
      <trkpt lat="42.75192" lon="-1.7191040000000066">
        <ele>595.461</ele>
        <time>2022-08-25T08:22:17Z</time>
      </trkpt>
      <trkpt lat="42.751917999999996" lon="-1.7191060000000067">
        <ele>595.407</ele>
        <time>2022-08-25T08:25:55Z</time>
      </trkpt>
      <trkpt lat="42.751909999999995" lon="-1.7191170000000067">
        <ele>595.409</ele>
        <time>2022-08-25T08:25:56Z</time>
      </trkpt>
      <trkpt lat="42.751822" lon="-1.7192060000000067">
        <ele>595.494</ele>
        <time>2022-08-25T08:26:02Z</time>
      </trkpt>
      <trkpt lat="42.7517" lon="-1.7193250000000067">
        <ele>595.294</ele>
        <time>2022-08-25T08:26:08Z</time>
      </trkpt>
      <trkpt lat="42.751549" lon="-1.7194800000000066">
        <ele>595.054</ele>
        <time>2022-08-25T08:26:13Z</time>
      </trkpt>
      <trkpt lat="42.751304999999995" lon="-1.7196680000000066">
        <ele>594.430</ele>
        <time>2022-08-25T08:26:18Z</time>
      </trkpt>
      <trkpt lat="42.751054999999994" lon="-1.7197610000000065">
        <ele>593.432</ele>
        <time>2022-08-25T08:26:22Z</time>
      </trkpt>
      <trkpt lat="42.75098799999999" lon="-1.7197770000000066">
        <ele>592.899</ele>
        <time>2022-08-25T08:26:23Z</time>
      </trkpt>
      <trkpt lat="42.75092299999999" lon="-1.7197880000000065">
        <ele>592.692</ele>
        <time>2022-08-25T08:26:24Z</time>
      </trkpt>
      <trkpt lat="42.750856999999996" lon="-1.7197970000000065">
        <ele>592.228</ele>
        <time>2022-08-25T08:26:25Z</time>
      </trkpt>
      <trkpt lat="42.750797" lon="-1.7198040000000065">
        <ele>592.019</ele>
        <time>2022-08-25T08:26:26Z</time>
      </trkpt>
      <trkpt lat="42.750744" lon="-1.7198100000000065">
        <ele>591.671</ele>
        <time>2022-08-25T08:26:27Z</time>
      </trkpt>
      <trkpt lat="42.750690999999996" lon="-1.7198210000000065">
        <ele>591.241</ele>
        <time>2022-08-25T08:26:28Z</time>
      </trkpt>
      <trkpt lat="42.750639" lon="-1.7198370000000065">
        <ele>591.015</ele>
        <time>2022-08-25T08:26:29Z</time>
      </trkpt>
      <trkpt lat="42.750588" lon="-1.7198540000000064">
        <ele>590.609</ele>
        <time>2022-08-25T08:26:30Z</time>
      </trkpt>
      <trkpt lat="42.75054" lon="-1.7198650000000064">
        <ele>590.478</ele>
        <time>2022-08-25T08:26:31Z</time>
      </trkpt>
      <trkpt lat="42.750494" lon="-1.7198680000000064">
        <ele>590.048</ele>
        <time>2022-08-25T08:26:32Z</time>
      </trkpt>
      <trkpt lat="42.75045" lon="-1.7198630000000064">
        <ele>590.038</ele>
        <time>2022-08-25T08:26:33Z</time>
      </trkpt>
      <trkpt lat="42.7504" lon="-1.7198440000000064">
        <ele>589.874</ele>
        <time>2022-08-25T08:26:34Z</time>
      </trkpt>
      <trkpt lat="42.750371" lon="-1.7198280000000064">
        <ele>589.426</ele>
        <time>2022-08-25T08:26:35Z</time>
      </trkpt>
      <trkpt lat="42.750337" lon="-1.7198070000000063">
        <ele>589.253</ele>
        <time>2022-08-25T08:26:36Z</time>
      </trkpt>
      <trkpt lat="42.750306" lon="-1.7197840000000062">
        <ele>589.026</ele>
        <time>2022-08-25T08:26:37Z</time>
      </trkpt>
      <trkpt lat="42.750279" lon="-1.7197640000000063">
        <ele>589.052</ele>
        <time>2022-08-25T08:26:38Z</time>
      </trkpt>
      <trkpt lat="42.750251" lon="-1.7197550000000064">
        <ele>588.883</ele>
        <time>2022-08-25T08:26:39Z</time>
      </trkpt>
      <trkpt lat="42.750223999999996" lon="-1.7197510000000065">
        <ele>588.817</ele>
        <time>2022-08-25T08:26:40Z</time>
      </trkpt>
      <trkpt lat="42.750195999999995" lon="-1.7197430000000065">
        <ele>588.687</ele>
        <time>2022-08-25T08:26:41Z</time>
      </trkpt>
      <trkpt lat="42.75017" lon="-1.7197410000000064">
        <ele>588.615</ele>
        <time>2022-08-25T08:26:42Z</time>
      </trkpt>
      <trkpt lat="42.750142999999994" lon="-1.7197430000000065">
        <ele>588.609</ele>
        <time>2022-08-25T08:26:43Z</time>
      </trkpt>
      <trkpt lat="42.75011799999999" lon="-1.7197460000000064">
        <ele>588.852</ele>
        <time>2022-08-25T08:26:44Z</time>
      </trkpt>
      <trkpt lat="42.75009399999999" lon="-1.7197520000000064">
        <ele>588.882</ele>
        <time>2022-08-25T08:26:45Z</time>
      </trkpt>
      <trkpt lat="42.75006899999999" lon="-1.7197590000000065">
        <ele>588.832</ele>
        <time>2022-08-25T08:26:46Z</time>
      </trkpt>
      <trkpt lat="42.74996499999999" lon="-1.7198050000000065">
        <ele>589.278</ele>
        <time>2022-08-25T08:26:50Z</time>
      </trkpt>
      <trkpt lat="42.74989899999999" lon="-1.7198650000000064">
        <ele>589.240</ele>
        <time>2022-08-25T08:26:53Z</time>
      </trkpt>
      <trkpt lat="42.74985699999999" lon="-1.7199100000000065">
        <ele>589.267</ele>
        <time>2022-08-25T08:26:55Z</time>
      </trkpt>
      <trkpt lat="42.74983999999999" lon="-1.7199350000000064">
        <ele>589.210</ele>
        <time>2022-08-25T08:26:56Z</time>
      </trkpt>
      <trkpt lat="42.74982599999999" lon="-1.7199590000000065">
        <ele>589.496</ele>
        <time>2022-08-25T08:26:57Z</time>
      </trkpt>
      <trkpt lat="42.74981299999999" lon="-1.7199820000000066">
        <ele>589.627</ele>
        <time>2022-08-25T08:26:58Z</time>
      </trkpt>
      <trkpt lat="42.74979799999999" lon="-1.7200060000000066">
        <ele>589.656</ele>
        <time>2022-08-25T08:26:59Z</time>
      </trkpt>
      <trkpt lat="42.749782999999994" lon="-1.7200310000000065">
        <ele>589.859</ele>
        <time>2022-08-25T08:27:00Z</time>
      </trkpt>
      <trkpt lat="42.74976899999999" lon="-1.7200550000000066">
        <ele>589.814</ele>
        <time>2022-08-25T08:27:01Z</time>
      </trkpt>
      <trkpt lat="42.74975599999999" lon="-1.7200780000000067">
        <ele>590.009</ele>
        <time>2022-08-25T08:27:02Z</time>
      </trkpt>
      <trkpt lat="42.74974399999999" lon="-1.7201010000000068">
        <ele>590.076</ele>
        <time>2022-08-25T08:27:03Z</time>
      </trkpt>
      <trkpt lat="42.749731999999995" lon="-1.7201220000000068">
        <ele>590.236</ele>
        <time>2022-08-25T08:27:04Z</time>
      </trkpt>
      <trkpt lat="42.74971899999999" lon="-1.7201410000000068">
        <ele>590.226</ele>
        <time>2022-08-25T08:27:05Z</time>
      </trkpt>
      <trkpt lat="42.749706999999994" lon="-1.7201610000000067">
        <ele>590.432</ele>
        <time>2022-08-25T08:27:06Z</time>
      </trkpt>
      <trkpt lat="42.74969599999999" lon="-1.7201820000000068">
        <ele>590.414</ele>
        <time>2022-08-25T08:27:07Z</time>
      </trkpt>
      <trkpt lat="42.749686999999994" lon="-1.7202030000000068">
        <ele>590.681</ele>
        <time>2022-08-25T08:27:08Z</time>
      </trkpt>
      <trkpt lat="42.74967699999999" lon="-1.7202230000000067">
        <ele>590.634</ele>
        <time>2022-08-25T08:27:09Z</time>
      </trkpt>
      <trkpt lat="42.74966499999999" lon="-1.7202410000000068">
        <ele>590.870</ele>
        <time>2022-08-25T08:27:10Z</time>
      </trkpt>
      <trkpt lat="42.74965399999999" lon="-1.7202590000000069">
        <ele>590.871</ele>
        <time>2022-08-25T08:27:11Z</time>
      </trkpt>
      <trkpt lat="42.749644999999994" lon="-1.7202780000000069">
        <ele>590.838</ele>
        <time>2022-08-25T08:27:12Z</time>
      </trkpt>
      <trkpt lat="42.74963399999999" lon="-1.720299000000007">
        <ele>590.870</ele>
        <time>2022-08-25T08:27:13Z</time>
      </trkpt>
      <trkpt lat="42.749621999999995" lon="-1.720318000000007">
        <ele>590.817</ele>
        <time>2022-08-25T08:27:14Z</time>
      </trkpt>
      <trkpt lat="42.74957499999999" lon="-1.720409000000007">
        <ele>591.209</ele>
        <time>2022-08-25T08:27:19Z</time>
      </trkpt>
      <trkpt lat="42.749565999999994" lon="-1.720427000000007">
        <ele>591.414</ele>
        <time>2022-08-25T08:27:20Z</time>
      </trkpt>
      <trkpt lat="42.74955799999999" lon="-1.720444000000007">
        <ele>591.644</ele>
        <time>2022-08-25T08:27:21Z</time>
      </trkpt>
      <trkpt lat="42.749548999999995" lon="-1.7204640000000069">
        <ele>592.074</ele>
        <time>2022-08-25T08:27:22Z</time>
      </trkpt>
      <trkpt lat="42.749539999999996" lon="-1.7204810000000068">
        <ele>592.050</ele>
        <time>2022-08-25T08:27:23Z</time>
      </trkpt>
      <trkpt lat="42.749534999999995" lon="-1.7204950000000068">
        <ele>592.262</ele>
        <time>2022-08-25T08:27:24Z</time>
      </trkpt>
      <trkpt lat="42.749525999999996" lon="-1.7205090000000067">
        <ele>592.299</ele>
        <time>2022-08-25T08:27:25Z</time>
      </trkpt>
      <trkpt lat="42.74951599999999" lon="-1.7205240000000068">
        <ele>592.412</ele>
        <time>2022-08-25T08:27:26Z</time>
      </trkpt>
      <trkpt lat="42.749475999999994" lon="-1.7206050000000068">
        <ele>592.898</ele>
        <time>2022-08-25T08:27:31Z</time>
      </trkpt>
      <trkpt lat="42.749458" lon="-1.7206410000000067">
        <ele>593.049</ele>
        <time>2022-08-25T08:27:33Z</time>
      </trkpt>
      <trkpt lat="42.749449999999996" lon="-1.7206620000000068">
        <ele>593.057</ele>
        <time>2022-08-25T08:27:34Z</time>
      </trkpt>
      <trkpt lat="42.749444" lon="-1.7206790000000067">
        <ele>593.200</ele>
        <time>2022-08-25T08:27:35Z</time>
      </trkpt>
      <trkpt lat="42.749435999999996" lon="-1.7206950000000067">
        <ele>593.420</ele>
        <time>2022-08-25T08:27:36Z</time>
      </trkpt>
      <trkpt lat="42.749429" lon="-1.7207100000000068">
        <ele>593.409</ele>
        <time>2022-08-25T08:27:37Z</time>
      </trkpt>
      <trkpt lat="42.749422" lon="-1.7207210000000068">
        <ele>593.836</ele>
        <time>2022-08-25T08:27:38Z</time>
      </trkpt>
      <trkpt lat="42.749414" lon="-1.720731000000007">
        <ele>593.836</ele>
        <time>2022-08-25T08:27:39Z</time>
      </trkpt>
      <trkpt lat="42.749403" lon="-1.720746000000007">
        <ele>594.056</ele>
        <time>2022-08-25T08:27:40Z</time>
      </trkpt>
      <trkpt lat="42.749392" lon="-1.720761000000007">
        <ele>594.262</ele>
        <time>2022-08-25T08:27:41Z</time>
      </trkpt>
      <trkpt lat="42.749382" lon="-1.720770000000007">
        <ele>594.444</ele>
        <time>2022-08-25T08:27:42Z</time>
      </trkpt>
      <trkpt lat="42.749371" lon="-1.720782000000007">
        <ele>594.641</ele>
        <time>2022-08-25T08:27:43Z</time>
      </trkpt>
      <trkpt lat="42.74936099999999" lon="-1.720797000000007">
        <ele>594.834</ele>
        <time>2022-08-25T08:27:44Z</time>
      </trkpt>
      <trkpt lat="42.749351999999995" lon="-1.720815000000007">
        <ele>595.060</ele>
        <time>2022-08-25T08:27:45Z</time>
      </trkpt>
      <trkpt lat="42.749342999999996" lon="-1.7208300000000072">
        <ele>595.071</ele>
        <time>2022-08-25T08:27:46Z</time>
      </trkpt>
      <trkpt lat="42.749336" lon="-1.7208410000000072">
        <ele>595.463</ele>
        <time>2022-08-25T08:27:47Z</time>
      </trkpt>
      <trkpt lat="42.749325" lon="-1.7208520000000072">
        <ele>595.444</ele>
        <time>2022-08-25T08:27:48Z</time>
      </trkpt>
      <trkpt lat="42.749317" lon="-1.720864000000007">
        <ele>595.618</ele>
        <time>2022-08-25T08:27:49Z</time>
      </trkpt>
      <trkpt lat="42.749311" lon="-1.720873000000007">
        <ele>595.809</ele>
        <time>2022-08-25T08:27:50Z</time>
      </trkpt>
      <trkpt lat="42.749304" lon="-1.720884000000007">
        <ele>595.877</ele>
        <time>2022-08-25T08:27:51Z</time>
      </trkpt>
      <trkpt lat="42.749299" lon="-1.720894000000007">
        <ele>596.077</ele>
        <time>2022-08-25T08:27:52Z</time>
      </trkpt>
      <trkpt lat="42.749292000000004" lon="-1.720906000000007">
        <ele>596.077</ele>
        <time>2022-08-25T08:27:53Z</time>
      </trkpt>
      <trkpt lat="42.749281" lon="-1.720924000000007">
        <ele>596.213</ele>
        <time>2022-08-25T08:27:54Z</time>
      </trkpt>
      <trkpt lat="42.749275000000004" lon="-1.720935000000007">
        <ele>596.265</ele>
        <time>2022-08-25T08:27:55Z</time>
      </trkpt>
      <trkpt lat="42.749265" lon="-1.720950000000007">
        <ele>596.472</ele>
        <time>2022-08-25T08:27:56Z</time>
      </trkpt>
      <trkpt lat="42.749251" lon="-1.720970000000007">
        <ele>596.495</ele>
        <time>2022-08-25T08:27:57Z</time>
      </trkpt>
      <trkpt lat="42.74924" lon="-1.720991000000007">
        <ele>596.451</ele>
        <time>2022-08-25T08:27:58Z</time>
      </trkpt>
      <trkpt lat="42.749229" lon="-1.721010000000007">
        <ele>596.692</ele>
        <time>2022-08-25T08:27:59Z</time>
      </trkpt>
      <trkpt lat="42.749217" lon="-1.7210330000000071">
        <ele>596.637</ele>
        <time>2022-08-25T08:28:00Z</time>
      </trkpt>
      <trkpt lat="42.749204" lon="-1.721055000000007">
        <ele>596.849</ele>
        <time>2022-08-25T08:28:01Z</time>
      </trkpt>
      <trkpt lat="42.749188" lon="-1.7210790000000071">
        <ele>596.813</ele>
        <time>2022-08-25T08:28:02Z</time>
      </trkpt>
      <trkpt lat="42.749174999999994" lon="-1.7211020000000072">
        <ele>597.009</ele>
        <time>2022-08-25T08:28:03Z</time>
      </trkpt>
      <trkpt lat="42.74916499999999" lon="-1.7211260000000073">
        <ele>597.444</ele>
        <time>2022-08-25T08:28:04Z</time>
      </trkpt>
      <trkpt lat="42.74915299999999" lon="-1.7211490000000074">
        <ele>597.654</ele>
        <time>2022-08-25T08:28:05Z</time>
      </trkpt>
      <trkpt lat="42.749140999999995" lon="-1.7211720000000075">
        <ele>598.024</ele>
        <time>2022-08-25T08:28:06Z</time>
      </trkpt>
      <trkpt lat="42.749129999999994" lon="-1.7211950000000076">
        <ele>598.080</ele>
        <time>2022-08-25T08:28:07Z</time>
      </trkpt>
      <trkpt lat="42.749115999999994" lon="-1.7212160000000076">
        <ele>598.262</ele>
        <time>2022-08-25T08:28:08Z</time>
      </trkpt>
      <trkpt lat="42.74910199999999" lon="-1.7212400000000077">
        <ele>598.469</ele>
        <time>2022-08-25T08:28:09Z</time>
      </trkpt>
      <trkpt lat="42.749092999999995" lon="-1.7212610000000077">
        <ele>598.662</ele>
        <time>2022-08-25T08:28:10Z</time>
      </trkpt>
      <trkpt lat="42.749083999999996" lon="-1.7212790000000078">
        <ele>598.828</ele>
        <time>2022-08-25T08:28:11Z</time>
      </trkpt>
      <trkpt lat="42.749075" lon="-1.7212970000000078">
        <ele>599.079</ele>
        <time>2022-08-25T08:28:12Z</time>
      </trkpt>
      <trkpt lat="42.749064999999995" lon="-1.7213140000000078">
        <ele>599.473</ele>
        <time>2022-08-25T08:28:13Z</time>
      </trkpt>
      <trkpt lat="42.749055999999996" lon="-1.7213330000000078">
        <ele>599.685</ele>
        <time>2022-08-25T08:28:14Z</time>
      </trkpt>
      <trkpt lat="42.749047" lon="-1.7213530000000077">
        <ele>599.813</ele>
        <time>2022-08-25T08:28:15Z</time>
      </trkpt>
      <trkpt lat="42.749036" lon="-1.7213710000000078">
        <ele>600.009</ele>
        <time>2022-08-25T08:28:16Z</time>
      </trkpt>
      <trkpt lat="42.749024999999996" lon="-1.7213880000000077">
        <ele>600.258</ele>
        <time>2022-08-25T08:28:17Z</time>
      </trkpt>
      <trkpt lat="42.749018" lon="-1.7214030000000078">
        <ele>600.458</ele>
        <time>2022-08-25T08:28:18Z</time>
      </trkpt>
      <trkpt lat="42.749009" lon="-1.7214190000000078">
        <ele>600.658</ele>
        <time>2022-08-25T08:28:19Z</time>
      </trkpt>
      <trkpt lat="42.748997" lon="-1.7214350000000078">
        <ele>600.844</ele>
        <time>2022-08-25T08:28:20Z</time>
      </trkpt>
      <trkpt lat="42.748987" lon="-1.7214450000000079">
        <ele>601.056</ele>
        <time>2022-08-25T08:28:21Z</time>
      </trkpt>
      <trkpt lat="42.748979" lon="-1.721455000000008">
        <ele>601.453</ele>
        <time>2022-08-25T08:28:22Z</time>
      </trkpt>
      <trkpt lat="42.748973" lon="-1.7214670000000079">
        <ele>601.456</ele>
        <time>2022-08-25T08:28:23Z</time>
      </trkpt>
      <trkpt lat="42.748969" lon="-1.721477000000008">
        <ele>601.692</ele>
        <time>2022-08-25T08:28:24Z</time>
      </trkpt>
      <trkpt lat="42.748962000000006" lon="-1.721490000000008">
        <ele>601.633</ele>
        <time>2022-08-25T08:28:25Z</time>
      </trkpt>
      <trkpt lat="42.74895500000001" lon="-1.721500000000008">
        <ele>601.878</ele>
        <time>2022-08-25T08:28:26Z</time>
      </trkpt>
      <trkpt lat="42.74894900000001" lon="-1.721513000000008">
        <ele>601.833</ele>
        <time>2022-08-25T08:28:27Z</time>
      </trkpt>
      <trkpt lat="42.748942000000014" lon="-1.721526000000008">
        <ele>602.026</ele>
        <time>2022-08-25T08:28:28Z</time>
      </trkpt>
      <trkpt lat="42.74893400000001" lon="-1.721540000000008">
        <ele>602.009</ele>
        <time>2022-08-25T08:28:29Z</time>
      </trkpt>
      <trkpt lat="42.748927000000016" lon="-1.721553000000008">
        <ele>602.258</ele>
        <time>2022-08-25T08:28:30Z</time>
      </trkpt>
      <trkpt lat="42.748922000000015" lon="-1.7215680000000082">
        <ele>602.298</ele>
        <time>2022-08-25T08:28:31Z</time>
      </trkpt>
      <trkpt lat="42.74891700000001" lon="-1.7215820000000082">
        <ele>602.488</ele>
        <time>2022-08-25T08:28:32Z</time>
      </trkpt>
      <trkpt lat="42.748910000000016" lon="-1.7215970000000083">
        <ele>602.494</ele>
        <time>2022-08-25T08:28:33Z</time>
      </trkpt>
      <trkpt lat="42.74890100000002" lon="-1.7216100000000083">
        <ele>602.656</ele>
        <time>2022-08-25T08:28:34Z</time>
      </trkpt>
      <trkpt lat="42.748891000000015" lon="-1.7216260000000083">
        <ele>602.623</ele>
        <time>2022-08-25T08:28:35Z</time>
      </trkpt>
      <trkpt lat="42.74888700000002" lon="-1.7216440000000084">
        <ele>602.886</ele>
        <time>2022-08-25T08:28:36Z</time>
      </trkpt>
      <trkpt lat="42.74888100000002" lon="-1.7216630000000084">
        <ele>603.042</ele>
        <time>2022-08-25T08:28:37Z</time>
      </trkpt>
      <trkpt lat="42.74887300000002" lon="-1.7216790000000084">
        <ele>602.853</ele>
        <time>2022-08-25T08:28:38Z</time>
      </trkpt>
      <trkpt lat="42.74886600000002" lon="-1.7216920000000084">
        <ele>603.217</ele>
        <time>2022-08-25T08:28:39Z</time>
      </trkpt>
      <trkpt lat="42.74885700000002" lon="-1.7217030000000084">
        <ele>603.287</ele>
        <time>2022-08-25T08:28:40Z</time>
      </trkpt>
      <trkpt lat="42.74884700000002" lon="-1.7217130000000085">
        <ele>603.415</ele>
        <time>2022-08-25T08:28:41Z</time>
      </trkpt>
      <trkpt lat="42.748834000000016" lon="-1.7217240000000085">
        <ele>603.609</ele>
        <time>2022-08-25T08:28:42Z</time>
      </trkpt>
      <trkpt lat="42.748823000000016" lon="-1.7217350000000085">
        <ele>603.652</ele>
        <time>2022-08-25T08:28:43Z</time>
      </trkpt>
      <trkpt lat="42.74881700000002" lon="-1.7217500000000086">
        <ele>603.892</ele>
        <time>2022-08-25T08:28:44Z</time>
      </trkpt>
      <trkpt lat="42.74880800000002" lon="-1.7217680000000086">
        <ele>603.842</ele>
        <time>2022-08-25T08:28:45Z</time>
      </trkpt>
      <trkpt lat="42.74880400000002" lon="-1.7217770000000086">
        <ele>604.078</ele>
        <time>2022-08-25T08:28:46Z</time>
      </trkpt>
      <trkpt lat="42.748797000000025" lon="-1.7217890000000085">
        <ele>604.250</ele>
        <time>2022-08-25T08:28:47Z</time>
      </trkpt>
      <trkpt lat="42.74878700000002" lon="-1.7218020000000085">
        <ele>604.267</ele>
        <time>2022-08-25T08:28:48Z</time>
      </trkpt>
      <trkpt lat="42.74878100000002" lon="-1.7218110000000084">
        <ele>604.250</ele>
        <time>2022-08-25T08:28:49Z</time>
      </trkpt>
      <trkpt lat="42.74877300000002" lon="-1.7218210000000085">
        <ele>604.456</ele>
        <time>2022-08-25T08:28:50Z</time>
      </trkpt>
      <trkpt lat="42.74876300000002" lon="-1.7218340000000085">
        <ele>604.677</ele>
        <time>2022-08-25T08:28:51Z</time>
      </trkpt>
      <trkpt lat="42.74875700000002" lon="-1.7218430000000085">
        <ele>604.697</ele>
        <time>2022-08-25T08:28:52Z</time>
      </trkpt>
      <trkpt lat="42.74874600000002" lon="-1.7218600000000084">
        <ele>604.823</ele>
        <time>2022-08-25T08:28:53Z</time>
      </trkpt>
      <trkpt lat="42.74874100000002" lon="-1.7218710000000084">
        <ele>605.025</ele>
        <time>2022-08-25T08:28:54Z</time>
      </trkpt>
      <trkpt lat="42.748736000000015" lon="-1.7218850000000083">
        <ele>605.009</ele>
        <time>2022-08-25T08:28:55Z</time>
      </trkpt>
      <trkpt lat="42.74872900000002" lon="-1.7218980000000084">
        <ele>605.280</ele>
        <time>2022-08-25T08:28:56Z</time>
      </trkpt>
      <trkpt lat="42.74872500000002" lon="-1.7219090000000083">
        <ele>605.270</ele>
        <time>2022-08-25T08:28:57Z</time>
      </trkpt>
      <trkpt lat="42.748721000000025" lon="-1.7219200000000083">
        <ele>605.450</ele>
        <time>2022-08-25T08:28:58Z</time>
      </trkpt>
      <trkpt lat="42.748712000000026" lon="-1.7219340000000083">
        <ele>605.486</ele>
        <time>2022-08-25T08:28:59Z</time>
      </trkpt>
      <trkpt lat="42.74871100000003" lon="-1.7219490000000084">
        <ele>605.858</ele>
        <time>2022-08-25T08:29:00Z</time>
      </trkpt>
      <trkpt lat="42.74870700000003" lon="-1.7219630000000083">
        <ele>605.825</ele>
        <time>2022-08-25T08:29:01Z</time>
      </trkpt>
      <trkpt lat="42.74869900000003" lon="-1.7219770000000083">
        <ele>606.038</ele>
        <time>2022-08-25T08:29:02Z</time>
      </trkpt>
      <trkpt lat="42.74869300000003" lon="-1.7219880000000083">
        <ele>606.064</ele>
        <time>2022-08-25T08:29:03Z</time>
      </trkpt>
      <trkpt lat="42.748686000000035" lon="-1.7219990000000083">
        <ele>606.225</ele>
        <time>2022-08-25T08:29:04Z</time>
      </trkpt>
      <trkpt lat="42.748680000000036" lon="-1.7220100000000083">
        <ele>606.272</ele>
        <time>2022-08-25T08:29:05Z</time>
      </trkpt>
      <trkpt lat="42.74867300000004" lon="-1.7220230000000083">
        <ele>606.413</ele>
        <time>2022-08-25T08:29:06Z</time>
      </trkpt>
      <trkpt lat="42.74866400000004" lon="-1.7220360000000083">
        <ele>606.614</ele>
        <time>2022-08-25T08:29:07Z</time>
      </trkpt>
      <trkpt lat="42.74865600000004" lon="-1.7220490000000084">
        <ele>606.609</ele>
        <time>2022-08-25T08:29:08Z</time>
      </trkpt>
      <trkpt lat="42.74864800000004" lon="-1.7220620000000084">
        <ele>606.898</ele>
        <time>2022-08-25T08:29:09Z</time>
      </trkpt>
      <trkpt lat="42.74864300000004" lon="-1.7220730000000084">
        <ele>607.078</ele>
        <time>2022-08-25T08:29:10Z</time>
      </trkpt>
      <trkpt lat="42.748638000000035" lon="-1.7220840000000084">
        <ele>607.218</ele>
        <time>2022-08-25T08:29:11Z</time>
      </trkpt>
      <trkpt lat="42.74863100000004" lon="-1.7220970000000084">
        <ele>607.464</ele>
        <time>2022-08-25T08:29:12Z</time>
      </trkpt>
      <trkpt lat="42.74862200000004" lon="-1.7221110000000084">
        <ele>607.456</ele>
        <time>2022-08-25T08:29:13Z</time>
      </trkpt>
      <trkpt lat="42.74861300000004" lon="-1.7221240000000084">
        <ele>607.483</ele>
        <time>2022-08-25T08:29:14Z</time>
      </trkpt>
      <trkpt lat="42.74861000000004" lon="-1.7221340000000085">
        <ele>607.646</ele>
        <time>2022-08-25T08:29:15Z</time>
      </trkpt>
      <trkpt lat="42.748606000000045" lon="-1.7221450000000085">
        <ele>607.622</ele>
        <time>2022-08-25T08:29:16Z</time>
      </trkpt>
      <trkpt lat="42.74860400000004" lon="-1.7221580000000085">
        <ele>607.823</ele>
        <time>2022-08-25T08:29:17Z</time>
      </trkpt>
      <trkpt lat="42.748600000000046" lon="-1.7221710000000086">
        <ele>607.826</ele>
        <time>2022-08-25T08:29:18Z</time>
      </trkpt>
      <trkpt lat="42.748595000000044" lon="-1.7221800000000085">
        <ele>608.047</ele>
        <time>2022-08-25T08:29:19Z</time>
      </trkpt>
      <trkpt lat="42.74858700000004" lon="-1.7221880000000085">
        <ele>608.011</ele>
        <time>2022-08-25T08:29:20Z</time>
      </trkpt>
      <trkpt lat="42.74858200000004" lon="-1.7221920000000084">
        <ele>608.209</ele>
        <time>2022-08-25T08:29:21Z</time>
      </trkpt>
      <trkpt lat="42.748575000000045" lon="-1.7221950000000084">
        <ele>608.213</ele>
        <time>2022-08-25T08:29:22Z</time>
      </trkpt>
      <trkpt lat="42.74857000000004" lon="-1.7221910000000085">
        <ele>609.473</ele>
        <time>2022-08-25T08:29:46Z</time>
      </trkpt>
      <trkpt lat="42.74857000000004" lon="-1.7221910000000085">
        <ele>609.463</ele>
        <time>2022-08-25T08:29:47Z</time>
      </trkpt>
      <trkpt lat="42.74857000000004" lon="-1.7221910000000085">
        <ele>609.039</ele>
        <time>2022-08-25T08:29:51Z</time>
      </trkpt>
      <trkpt lat="42.748589000000045" lon="-1.7222000000000084">
        <ele>609.011</ele>
        <time>2022-08-25T08:30:46Z</time>
      </trkpt>
      <trkpt lat="42.74858200000005" lon="-1.7222100000000085">
        <ele>609.228</ele>
        <time>2022-08-25T08:30:47Z</time>
      </trkpt>
      <trkpt lat="42.74857500000005" lon="-1.7222390000000085">
        <ele>609.221</ele>
        <time>2022-08-25T08:30:49Z</time>
      </trkpt>
      <trkpt lat="42.748568000000056" lon="-1.7222540000000086">
        <ele>609.277</ele>
        <time>2022-08-25T08:30:50Z</time>
      </trkpt>
      <trkpt lat="42.748515000000054" lon="-1.7223350000000086">
        <ele>609.468</ele>
        <time>2022-08-25T08:30:53Z</time>
      </trkpt>
      <trkpt lat="42.74849700000006" lon="-1.7223680000000086">
        <ele>609.417</ele>
        <time>2022-08-25T08:30:54Z</time>
      </trkpt>
      <trkpt lat="42.74846900000006" lon="-1.7224240000000086">
        <ele>609.487</ele>
        <time>2022-08-25T08:30:56Z</time>
      </trkpt>
      <trkpt lat="42.74845400000006" lon="-1.7224490000000086">
        <ele>609.415</ele>
        <time>2022-08-25T08:30:57Z</time>
      </trkpt>
      <trkpt lat="42.74843200000006" lon="-1.7225120000000085">
        <ele>609.409</ele>
        <time>2022-08-25T08:30:59Z</time>
      </trkpt>
      <trkpt lat="42.748427000000056" lon="-1.7225380000000086">
        <ele>609.472</ele>
        <time>2022-08-25T08:31:00Z</time>
      </trkpt>
      <trkpt lat="42.74841800000006" lon="-1.7225680000000085">
        <ele>609.422</ele>
        <time>2022-08-25T08:31:01Z</time>
      </trkpt>
      <trkpt lat="42.74840700000006" lon="-1.7225930000000085">
        <ele>609.422</ele>
        <time>2022-08-25T08:31:02Z</time>
      </trkpt>
      <trkpt lat="42.74839300000006" lon="-1.7226170000000085">
        <ele>609.498</ele>
        <time>2022-08-25T08:31:03Z</time>
      </trkpt>
      <trkpt lat="42.74837900000006" lon="-1.7226330000000085">
        <ele>609.250</ele>
        <time>2022-08-25T08:31:04Z</time>
      </trkpt>
      <trkpt lat="42.748371000000056" lon="-1.7226460000000086">
        <ele>609.257</ele>
        <time>2022-08-25T08:31:05Z</time>
      </trkpt>
      <trkpt lat="42.74836100000005" lon="-1.7226590000000086">
        <ele>609.230</ele>
        <time>2022-08-25T08:31:06Z</time>
      </trkpt>
      <trkpt lat="42.74835300000005" lon="-1.7226710000000085">
        <ele>609.226</ele>
        <time>2022-08-25T08:31:07Z</time>
      </trkpt>
      <trkpt lat="42.74827400000005" lon="-1.7227650000000085">
        <ele>609.257</ele>
        <time>2022-08-25T08:31:13Z</time>
      </trkpt>
      <trkpt lat="42.74826600000005" lon="-1.7227760000000085">
        <ele>609.451</ele>
        <time>2022-08-25T08:31:14Z</time>
      </trkpt>
      <trkpt lat="42.74826400000005" lon="-1.7227870000000085">
        <ele>609.401</ele>
        <time>2022-08-25T08:31:15Z</time>
      </trkpt>
      <trkpt lat="42.748254000000045" lon="-1.7227940000000086">
        <ele>609.411</ele>
        <time>2022-08-25T08:31:16Z</time>
      </trkpt>
      <trkpt lat="42.74824500000005" lon="-1.7227910000000086">
        <ele>609.409</ele>
        <time>2022-08-25T08:31:17Z</time>
      </trkpt>
      <trkpt lat="42.748232000000044" lon="-1.7227950000000085">
        <ele>609.456</ele>
        <time>2022-08-25T08:31:18Z</time>
      </trkpt>
      <trkpt lat="42.74821100000005" lon="-1.7228100000000086">
        <ele>609.616</ele>
        <time>2022-08-25T08:31:20Z</time>
      </trkpt>
      <trkpt lat="42.74819300000005" lon="-1.7228300000000085">
        <ele>609.686</ele>
        <time>2022-08-25T08:31:21Z</time>
      </trkpt>
      <trkpt lat="42.74817900000005" lon="-1.7228520000000085">
        <ele>609.822</ele>
        <time>2022-08-25T08:31:22Z</time>
      </trkpt>
      <trkpt lat="42.74816700000005" lon="-1.7228680000000085">
        <ele>609.844</ele>
        <time>2022-08-25T08:31:23Z</time>
      </trkpt>
      <trkpt lat="42.74815100000005" lon="-1.7228800000000084">
        <ele>610.041</ele>
        <time>2022-08-25T08:31:24Z</time>
      </trkpt>
      <trkpt lat="42.74813800000005" lon="-1.7228950000000085">
        <ele>610.024</ele>
        <time>2022-08-25T08:31:25Z</time>
      </trkpt>
      <trkpt lat="42.74812300000005" lon="-1.7229020000000086">
        <ele>610.020</ele>
        <time>2022-08-25T08:31:26Z</time>
      </trkpt>
      <trkpt lat="42.748113000000046" lon="-1.7229120000000087">
        <ele>610.031</ele>
        <time>2022-08-25T08:31:27Z</time>
      </trkpt>
      <trkpt lat="42.74810300000004" lon="-1.7229270000000088">
        <ele>610.234</ele>
        <time>2022-08-25T08:31:28Z</time>
      </trkpt>
      <trkpt lat="42.74806100000004" lon="-1.7229940000000088">
        <ele>610.455</ele>
        <time>2022-08-25T08:31:31Z</time>
      </trkpt>
      <trkpt lat="42.74795500000004" lon="-1.7230940000000088">
        <ele>610.810</ele>
        <time>2022-08-25T08:31:36Z</time>
      </trkpt>
      <trkpt lat="42.74789500000004" lon="-1.7231210000000088">
        <ele>610.809</ele>
        <time>2022-08-25T08:31:39Z</time>
      </trkpt>
      <trkpt lat="42.74788100000004" lon="-1.7231310000000089">
        <ele>610.844</ele>
        <time>2022-08-25T08:31:40Z</time>
      </trkpt>
      <trkpt lat="42.74786700000004" lon="-1.7231470000000089">
        <ele>611.074</ele>
        <time>2022-08-25T08:31:41Z</time>
      </trkpt>
      <trkpt lat="42.74785700000004" lon="-1.7231580000000088">
        <ele>611.294</ele>
        <time>2022-08-25T08:31:42Z</time>
      </trkpt>
      <trkpt lat="42.74784900000004" lon="-1.7231690000000088">
        <ele>611.250</ele>
        <time>2022-08-25T08:31:43Z</time>
      </trkpt>
      <trkpt lat="42.74782000000004" lon="-1.7231780000000088">
        <ele>611.842</ele>
        <time>2022-08-25T08:31:45Z</time>
      </trkpt>
      <trkpt lat="42.74780800000004" lon="-1.7231800000000088">
        <ele>611.829</ele>
        <time>2022-08-25T08:31:46Z</time>
      </trkpt>
      <trkpt lat="42.74779400000004" lon="-1.7231820000000089">
        <ele>612.012</ele>
        <time>2022-08-25T08:31:47Z</time>
      </trkpt>
      <trkpt lat="42.74778400000004" lon="-1.723181000000009">
        <ele>612.028</ele>
        <time>2022-08-25T08:31:48Z</time>
      </trkpt>
      <trkpt lat="42.747774000000035" lon="-1.723178000000009">
        <ele>612.289</ele>
        <time>2022-08-25T08:31:49Z</time>
      </trkpt>
      <trkpt lat="42.74776500000004" lon="-1.723177000000009">
        <ele>612.256</ele>
        <time>2022-08-25T08:31:50Z</time>
      </trkpt>
      <trkpt lat="42.74775800000004" lon="-1.723185000000009">
        <ele>612.459</ele>
        <time>2022-08-25T08:31:51Z</time>
      </trkpt>
      <trkpt lat="42.74775300000004" lon="-1.723194000000009">
        <ele>612.414</ele>
        <time>2022-08-25T08:31:52Z</time>
      </trkpt>
      <trkpt lat="42.747743000000035" lon="-1.723206000000009">
        <ele>612.409</ele>
        <time>2022-08-25T08:31:53Z</time>
      </trkpt>
      <trkpt lat="42.74772800000004" lon="-1.7232200000000089">
        <ele>612.666</ele>
        <time>2022-08-25T08:31:54Z</time>
      </trkpt>
      <trkpt lat="42.74765500000004" lon="-1.723273000000009">
        <ele>613.026</ele>
        <time>2022-08-25T08:31:58Z</time>
      </trkpt>
      <trkpt lat="42.74763800000004" lon="-1.723284000000009">
        <ele>613.266</ele>
        <time>2022-08-25T08:31:59Z</time>
      </trkpt>
      <trkpt lat="42.74762300000004" lon="-1.7232900000000089">
        <ele>613.242</ele>
        <time>2022-08-25T08:32:00Z</time>
      </trkpt>
      <trkpt lat="42.74760800000004" lon="-1.7232940000000088">
        <ele>613.414</ele>
        <time>2022-08-25T08:32:01Z</time>
      </trkpt>
      <trkpt lat="42.747596000000044" lon="-1.7232940000000088">
        <ele>613.441</ele>
        <time>2022-08-25T08:32:02Z</time>
      </trkpt>
      <trkpt lat="42.74758100000005" lon="-1.7232950000000087">
        <ele>613.674</ele>
        <time>2022-08-25T08:32:03Z</time>
      </trkpt>
      <trkpt lat="42.74756600000005" lon="-1.7232980000000087">
        <ele>613.630</ele>
        <time>2022-08-25T08:32:04Z</time>
      </trkpt>
      <trkpt lat="42.74754800000005" lon="-1.7233040000000086">
        <ele>613.831</ele>
        <time>2022-08-25T08:32:05Z</time>
      </trkpt>
      <trkpt lat="42.747533000000054" lon="-1.7233110000000087">
        <ele>614.084</ele>
        <time>2022-08-25T08:32:06Z</time>
      </trkpt>
      <trkpt lat="42.747521000000056" lon="-1.7233160000000087">
        <ele>614.207</ele>
        <time>2022-08-25T08:32:07Z</time>
      </trkpt>
      <trkpt lat="42.747507000000056" lon="-1.7233220000000087">
        <ele>614.417</ele>
        <time>2022-08-25T08:32:08Z</time>
      </trkpt>
      <trkpt lat="42.74749100000005" lon="-1.7233320000000087">
        <ele>614.409</ele>
        <time>2022-08-25T08:32:09Z</time>
      </trkpt>
      <trkpt lat="42.74747800000005" lon="-1.7233360000000086">
        <ele>614.459</ele>
        <time>2022-08-25T08:32:10Z</time>
      </trkpt>
      <trkpt lat="42.74745500000005" lon="-1.7233460000000087">
        <ele>614.439</ele>
        <time>2022-08-25T08:32:11Z</time>
      </trkpt>
      <trkpt lat="42.74743900000005" lon="-1.7233540000000087">
        <ele>614.649</ele>
        <time>2022-08-25T08:32:12Z</time>
      </trkpt>
      <trkpt lat="42.74742200000005" lon="-1.7233640000000088">
        <ele>614.855</ele>
        <time>2022-08-25T08:32:13Z</time>
      </trkpt>
      <trkpt lat="42.74740200000005" lon="-1.7233700000000087">
        <ele>614.857</ele>
        <time>2022-08-25T08:32:14Z</time>
      </trkpt>
      <trkpt lat="42.747381000000054" lon="-1.7233760000000087">
        <ele>615.024</ele>
        <time>2022-08-25T08:32:15Z</time>
      </trkpt>
      <trkpt lat="42.747361000000055" lon="-1.7233790000000087">
        <ele>615.047</ele>
        <time>2022-08-25T08:32:16Z</time>
      </trkpt>
      <trkpt lat="42.74734300000006" lon="-1.7233820000000086">
        <ele>615.223</ele>
        <time>2022-08-25T08:32:17Z</time>
      </trkpt>
      <trkpt lat="42.74732300000006" lon="-1.7233840000000087">
        <ele>615.264</ele>
        <time>2022-08-25T08:32:18Z</time>
      </trkpt>
      <trkpt lat="42.74730100000006" lon="-1.7233880000000086">
        <ele>615.282</ele>
        <time>2022-08-25T08:32:19Z</time>
      </trkpt>
      <trkpt lat="42.747276000000056" lon="-1.7233940000000085">
        <ele>615.443</ele>
        <time>2022-08-25T08:32:20Z</time>
      </trkpt>
      <trkpt lat="42.747254000000055" lon="-1.7234000000000085">
        <ele>615.417</ele>
        <time>2022-08-25T08:32:21Z</time>
      </trkpt>
      <trkpt lat="42.74723600000006" lon="-1.7234040000000084">
        <ele>615.609</ele>
        <time>2022-08-25T08:32:22Z</time>
      </trkpt>
      <trkpt lat="42.74721300000006" lon="-1.7234100000000083">
        <ele>615.689</ele>
        <time>2022-08-25T08:32:23Z</time>
      </trkpt>
      <trkpt lat="42.74719300000006" lon="-1.7234110000000082">
        <ele>615.669</ele>
        <time>2022-08-25T08:32:24Z</time>
      </trkpt>
      <trkpt lat="42.74716700000006" lon="-1.7234100000000083">
        <ele>615.639</ele>
        <time>2022-08-25T08:32:25Z</time>
      </trkpt>
      <trkpt lat="42.74715000000006" lon="-1.7234100000000083">
        <ele>615.615</ele>
        <time>2022-08-25T08:32:26Z</time>
      </trkpt>
      <trkpt lat="42.74712700000006" lon="-1.7234110000000082">
        <ele>615.827</ele>
        <time>2022-08-25T08:32:27Z</time>
      </trkpt>
      <trkpt lat="42.747107000000064" lon="-1.7234130000000083">
        <ele>615.844</ele>
        <time>2022-08-25T08:32:28Z</time>
      </trkpt>
      <trkpt lat="42.747087000000064" lon="-1.7234130000000083">
        <ele>616.097</ele>
        <time>2022-08-25T08:32:29Z</time>
      </trkpt>
      <trkpt lat="42.747064000000066" lon="-1.7234120000000084">
        <ele>616.073</ele>
        <time>2022-08-25T08:32:30Z</time>
      </trkpt>
      <trkpt lat="42.74704100000007" lon="-1.7234150000000084">
        <ele>616.074</ele>
        <time>2022-08-25T08:32:31Z</time>
      </trkpt>
      <trkpt lat="42.74701800000007" lon="-1.7234200000000084">
        <ele>616.297</ele>
        <time>2022-08-25T08:32:32Z</time>
      </trkpt>
      <trkpt lat="42.74685200000007" lon="-1.7234390000000084">
        <ele>616.623</ele>
        <time>2022-08-25T08:32:39Z</time>
      </trkpt>
      <trkpt lat="42.74682600000007" lon="-1.7234460000000085">
        <ele>616.825</ele>
        <time>2022-08-25T08:32:40Z</time>
      </trkpt>
      <trkpt lat="42.74663200000007" lon="-1.7234660000000084">
        <ele>616.609</ele>
        <time>2022-08-25T08:32:47Z</time>
      </trkpt>
      <trkpt lat="42.74657100000007" lon="-1.7234730000000085">
        <ele>616.680</ele>
        <time>2022-08-25T08:32:49Z</time>
      </trkpt>
      <trkpt lat="42.74651100000007" lon="-1.7234880000000086">
        <ele>616.650</ele>
        <time>2022-08-25T08:32:51Z</time>
      </trkpt>
      <trkpt lat="42.74648600000007" lon="-1.7234920000000085">
        <ele>616.630</ele>
        <time>2022-08-25T08:32:52Z</time>
      </trkpt>
      <trkpt lat="42.74642900000007" lon="-1.7234980000000084">
        <ele>616.666</ele>
        <time>2022-08-25T08:32:54Z</time>
      </trkpt>
      <trkpt lat="42.74636900000007" lon="-1.7235160000000085">
        <ele>617.028</ele>
        <time>2022-08-25T08:32:56Z</time>
      </trkpt>
      <trkpt lat="42.746340000000075" lon="-1.7235310000000086">
        <ele>617.275</ele>
        <time>2022-08-25T08:32:57Z</time>
      </trkpt>
      <trkpt lat="42.74631600000007" lon="-1.7235510000000085">
        <ele>617.248</ele>
        <time>2022-08-25T08:32:58Z</time>
      </trkpt>
      <trkpt lat="42.74629100000007" lon="-1.7235700000000085">
        <ele>617.434</ele>
        <time>2022-08-25T08:32:59Z</time>
      </trkpt>
      <trkpt lat="42.74622300000007" lon="-1.7236170000000084">
        <ele>617.625</ele>
        <time>2022-08-25T08:33:01Z</time>
      </trkpt>
      <trkpt lat="42.74617900000007" lon="-1.7236490000000084">
        <ele>617.882</ele>
        <time>2022-08-25T08:33:02Z</time>
      </trkpt>
      <trkpt lat="42.74605000000007" lon="-1.7237680000000084">
        <ele>617.843</ele>
        <time>2022-08-25T08:33:05Z</time>
      </trkpt>
      <trkpt lat="42.74590100000007" lon="-1.7239000000000084">
        <ele>617.817</ele>
        <time>2022-08-25T08:33:08Z</time>
      </trkpt>
      <trkpt lat="42.74585600000007" lon="-1.7239420000000085">
        <ele>617.809</ele>
        <time>2022-08-25T08:33:09Z</time>
      </trkpt>
      <trkpt lat="42.745812000000065" lon="-1.7239870000000086">
        <ele>617.659</ele>
        <time>2022-08-25T08:33:10Z</time>
      </trkpt>
      <trkpt lat="42.745770000000064" lon="-1.7240320000000087">
        <ele>617.619</ele>
        <time>2022-08-25T08:33:11Z</time>
      </trkpt>
      <trkpt lat="42.745730000000066" lon="-1.7240770000000087">
        <ele>617.669</ele>
        <time>2022-08-25T08:33:12Z</time>
      </trkpt>
      <trkpt lat="42.74569300000007" lon="-1.7241190000000088">
        <ele>617.635</ele>
        <time>2022-08-25T08:33:13Z</time>
      </trkpt>
      <trkpt lat="42.74565500000006" lon="-1.7241580000000087">
        <ele>617.447</ele>
        <time>2022-08-25T08:33:14Z</time>
      </trkpt>
      <trkpt lat="42.745578000000066" lon="-1.7242410000000088">
        <ele>617.264</ele>
        <time>2022-08-25T08:33:16Z</time>
      </trkpt>
      <trkpt lat="42.745539000000065" lon="-1.7242790000000088">
        <ele>617.037</ele>
        <time>2022-08-25T08:33:17Z</time>
      </trkpt>
      <trkpt lat="42.74550300000006" lon="-1.7243140000000088">
        <ele>617.013</ele>
        <time>2022-08-25T08:33:18Z</time>
      </trkpt>
      <trkpt lat="42.74547000000006" lon="-1.7243530000000087">
        <ele>616.864</ele>
        <time>2022-08-25T08:33:19Z</time>
      </trkpt>
      <trkpt lat="42.74543900000006" lon="-1.7243950000000088">
        <ele>616.836</ele>
        <time>2022-08-25T08:33:20Z</time>
      </trkpt>
      <trkpt lat="42.745407000000064" lon="-1.7244370000000089">
        <ele>616.817</ele>
        <time>2022-08-25T08:33:21Z</time>
      </trkpt>
      <trkpt lat="42.74534100000007" lon="-1.7245220000000088">
        <ele>616.618</ele>
        <time>2022-08-25T08:33:23Z</time>
      </trkpt>
      <trkpt lat="42.745311000000065" lon="-1.7245610000000087">
        <ele>616.609</ele>
        <time>2022-08-25T08:33:24Z</time>
      </trkpt>
      <trkpt lat="42.745283000000065" lon="-1.7246000000000086">
        <ele>616.434</ele>
        <time>2022-08-25T08:33:25Z</time>
      </trkpt>
      <trkpt lat="42.745252000000065" lon="-1.7246360000000085">
        <ele>616.474</ele>
        <time>2022-08-25T08:33:26Z</time>
      </trkpt>
      <trkpt lat="42.74521600000006" lon="-1.7246670000000084">
        <ele>616.244</ele>
        <time>2022-08-25T08:33:27Z</time>
      </trkpt>
      <trkpt lat="42.74518000000006" lon="-1.7246960000000084">
        <ele>616.240</ele>
        <time>2022-08-25T08:33:28Z</time>
      </trkpt>
      <trkpt lat="42.744999000000064" lon="-1.7248000000000085">
        <ele>616.252</ele>
        <time>2022-08-25T08:33:33Z</time>
      </trkpt>
      <trkpt lat="42.744962000000065" lon="-1.7248150000000086">
        <ele>616.259</ele>
        <time>2022-08-25T08:33:34Z</time>
      </trkpt>
      <trkpt lat="42.74492700000007" lon="-1.7248310000000087">
        <ele>616.222</ele>
        <time>2022-08-25T08:33:35Z</time>
      </trkpt>
      <trkpt lat="42.74481900000007" lon="-1.7248910000000086">
        <ele>616.228</ele>
        <time>2022-08-25T08:33:38Z</time>
      </trkpt>
      <trkpt lat="42.74474300000007" lon="-1.7249470000000087">
        <ele>616.449</ele>
        <time>2022-08-25T08:33:40Z</time>
      </trkpt>
      <trkpt lat="42.74470300000007" lon="-1.7249780000000086">
        <ele>616.421</ele>
        <time>2022-08-25T08:33:41Z</time>
      </trkpt>
      <trkpt lat="42.74441700000007" lon="-1.7252010000000086">
        <ele>616.241</ele>
        <time>2022-08-25T08:33:48Z</time>
      </trkpt>
      <trkpt lat="42.74437000000007" lon="-1.7252330000000087">
        <ele>616.005</ele>
        <time>2022-08-25T08:33:49Z</time>
      </trkpt>
      <trkpt lat="42.744064000000066" lon="-1.7254500000000086">
        <ele>615.409</ele>
        <time>2022-08-25T08:33:56Z</time>
      </trkpt>
      <trkpt lat="42.74402700000007" lon="-1.7254780000000085">
        <ele>615.453</ele>
        <time>2022-08-25T08:33:57Z</time>
      </trkpt>
      <trkpt lat="42.74399300000007" lon="-1.7255010000000086">
        <ele>615.473</ele>
        <time>2022-08-25T08:33:58Z</time>
      </trkpt>
      <trkpt lat="42.743839000000065" lon="-1.7256120000000086">
        <ele>615.473</ele>
        <time>2022-08-25T08:34:02Z</time>
      </trkpt>
      <trkpt lat="42.743752000000065" lon="-1.7256750000000085">
        <ele>615.039</ele>
        <time>2022-08-25T08:34:04Z</time>
      </trkpt>
      <trkpt lat="42.74357100000007" lon="-1.7258060000000086">
        <ele>614.641</ele>
        <time>2022-08-25T08:34:08Z</time>
      </trkpt>
      <trkpt lat="42.743529000000066" lon="-1.7258390000000086">
        <ele>614.668</ele>
        <time>2022-08-25T08:34:09Z</time>
      </trkpt>
      <trkpt lat="42.74348600000007" lon="-1.7258720000000085">
        <ele>614.641</ele>
        <time>2022-08-25T08:34:10Z</time>
      </trkpt>
      <trkpt lat="42.743445000000065" lon="-1.7259060000000086">
        <ele>614.467</ele>
        <time>2022-08-25T08:34:11Z</time>
      </trkpt>
      <trkpt lat="42.743406000000064" lon="-1.7259420000000085">
        <ele>614.468</ele>
        <time>2022-08-25T08:34:12Z</time>
      </trkpt>
      <trkpt lat="42.74337100000007" lon="-1.7259820000000086">
        <ele>614.453</ele>
        <time>2022-08-25T08:34:13Z</time>
      </trkpt>
      <trkpt lat="42.74330900000007" lon="-1.7260810000000086">
        <ele>614.404</ele>
        <time>2022-08-25T08:34:15Z</time>
      </trkpt>
      <trkpt lat="42.74328600000007" lon="-1.7261410000000086">
        <ele>614.414</ele>
        <time>2022-08-25T08:34:16Z</time>
      </trkpt>
      <trkpt lat="42.74326500000007" lon="-1.7262000000000086">
        <ele>614.609</ele>
        <time>2022-08-25T08:34:17Z</time>
      </trkpt>
      <trkpt lat="42.743250000000074" lon="-1.7262540000000086">
        <ele>614.676</ele>
        <time>2022-08-25T08:34:18Z</time>
      </trkpt>
      <trkpt lat="42.743238000000076" lon="-1.7263060000000086">
        <ele>614.836</ele>
        <time>2022-08-25T08:34:19Z</time>
      </trkpt>
      <trkpt lat="42.74322900000008" lon="-1.7263550000000085">
        <ele>614.866</ele>
        <time>2022-08-25T08:34:20Z</time>
      </trkpt>
      <trkpt lat="42.74322300000008" lon="-1.7263990000000085">
        <ele>614.852</ele>
        <time>2022-08-25T08:34:21Z</time>
      </trkpt>
      <trkpt lat="42.74321600000008" lon="-1.7264350000000084">
        <ele>614.894</ele>
        <time>2022-08-25T08:34:22Z</time>
      </trkpt>
      <trkpt lat="42.74320600000008" lon="-1.7264670000000084">
        <ele>614.681</ele>
        <time>2022-08-25T08:34:23Z</time>
      </trkpt>
      <trkpt lat="42.743196000000076" lon="-1.7264930000000085">
        <ele>614.654</ele>
        <time>2022-08-25T08:34:24Z</time>
      </trkpt>
      <trkpt lat="42.743185000000075" lon="-1.7265170000000085">
        <ele>614.620</ele>
        <time>2022-08-25T08:34:25Z</time>
      </trkpt>
      <trkpt lat="42.743174000000074" lon="-1.7265370000000084">
        <ele>615.071</ele>
        <time>2022-08-25T08:34:26Z</time>
      </trkpt>
      <trkpt lat="42.74316400000007" lon="-1.7265550000000085">
        <ele>615.072</ele>
        <time>2022-08-25T08:34:27Z</time>
      </trkpt>
      <trkpt lat="42.74315500000007" lon="-1.7265750000000084">
        <ele>614.813</ele>
        <time>2022-08-25T08:34:28Z</time>
      </trkpt>
      <trkpt lat="42.74315000000007" lon="-1.7265990000000084">
        <ele>615.214</ele>
        <time>2022-08-25T08:34:29Z</time>
      </trkpt>
      <trkpt lat="42.74314800000007" lon="-1.7266450000000084">
        <ele>615.609</ele>
        <time>2022-08-25T08:34:31Z</time>
      </trkpt>
      <trkpt lat="42.74315000000007" lon="-1.7266660000000085">
        <ele>615.878</ele>
        <time>2022-08-25T08:34:32Z</time>
      </trkpt>
      <trkpt lat="42.74315200000007" lon="-1.7266870000000085">
        <ele>616.428</ele>
        <time>2022-08-25T08:34:33Z</time>
      </trkpt>
      <trkpt lat="42.74315300000007" lon="-1.7267110000000085">
        <ele>616.658</ele>
        <time>2022-08-25T08:34:34Z</time>
      </trkpt>
      <trkpt lat="42.74315700000007" lon="-1.7267300000000085">
        <ele>617.034</ele>
        <time>2022-08-25T08:34:35Z</time>
      </trkpt>
      <trkpt lat="42.74315600000007" lon="-1.7267500000000084">
        <ele>617.686</ele>
        <time>2022-08-25T08:34:36Z</time>
      </trkpt>
      <trkpt lat="42.74315500000007" lon="-1.7267690000000084">
        <ele>617.853</ele>
        <time>2022-08-25T08:34:37Z</time>
      </trkpt>
      <trkpt lat="42.743151000000076" lon="-1.7267860000000084">
        <ele>618.286</ele>
        <time>2022-08-25T08:34:38Z</time>
      </trkpt>
      <trkpt lat="42.743146000000074" lon="-1.7268040000000084">
        <ele>618.282</ele>
        <time>2022-08-25T08:34:39Z</time>
      </trkpt>
      <trkpt lat="42.74314500000008" lon="-1.7268230000000084">
        <ele>618.683</ele>
        <time>2022-08-25T08:34:40Z</time>
      </trkpt>
      <trkpt lat="42.74314500000008" lon="-1.7268430000000083">
        <ele>618.875</ele>
        <time>2022-08-25T08:34:41Z</time>
      </trkpt>
      <trkpt lat="42.74314400000008" lon="-1.7268610000000084">
        <ele>619.028</ele>
        <time>2022-08-25T08:34:42Z</time>
      </trkpt>
      <trkpt lat="42.74314300000008" lon="-1.7268780000000084">
        <ele>619.420</ele>
        <time>2022-08-25T08:34:43Z</time>
      </trkpt>
      <trkpt lat="42.743142000000084" lon="-1.7268950000000083">
        <ele>619.609</ele>
        <time>2022-08-25T08:34:44Z</time>
      </trkpt>
      <trkpt lat="42.743139000000085" lon="-1.7269120000000082">
        <ele>619.878</ele>
        <time>2022-08-25T08:34:45Z</time>
      </trkpt>
      <trkpt lat="42.74313500000009" lon="-1.7269300000000083">
        <ele>620.068</ele>
        <time>2022-08-25T08:34:46Z</time>
      </trkpt>
      <trkpt lat="42.74313400000009" lon="-1.7269500000000082">
        <ele>620.078</ele>
        <time>2022-08-25T08:34:47Z</time>
      </trkpt>
      <trkpt lat="42.74313000000009" lon="-1.7269680000000083">
        <ele>620.244</ele>
        <time>2022-08-25T08:34:48Z</time>
      </trkpt>
      <trkpt lat="42.743127000000094" lon="-1.7269870000000083">
        <ele>620.236</ele>
        <time>2022-08-25T08:34:49Z</time>
      </trkpt>
      <trkpt lat="42.743126000000096" lon="-1.7270070000000082">
        <ele>620.433</ele>
        <time>2022-08-25T08:34:50Z</time>
      </trkpt>
      <trkpt lat="42.7431230000001" lon="-1.7270260000000082">
        <ele>620.436</ele>
        <time>2022-08-25T08:34:51Z</time>
      </trkpt>
      <trkpt lat="42.743121000000095" lon="-1.7270450000000082">
        <ele>620.672</ele>
        <time>2022-08-25T08:34:52Z</time>
      </trkpt>
      <trkpt lat="42.743121000000095" lon="-1.7270660000000082">
        <ele>620.673</ele>
        <time>2022-08-25T08:34:53Z</time>
      </trkpt>
      <trkpt lat="42.7431200000001" lon="-1.7270860000000081">
        <ele>620.829</ele>
        <time>2022-08-25T08:34:54Z</time>
      </trkpt>
      <trkpt lat="42.7431130000001" lon="-1.7271040000000082">
        <ele>620.800</ele>
        <time>2022-08-25T08:34:55Z</time>
      </trkpt>
      <trkpt lat="42.743106000000104" lon="-1.7271190000000083">
        <ele>621.020</ele>
        <time>2022-08-25T08:34:56Z</time>
      </trkpt>
      <trkpt lat="42.7430980000001" lon="-1.7271360000000082">
        <ele>621.209</ele>
        <time>2022-08-25T08:34:57Z</time>
      </trkpt>
      <trkpt lat="42.743092000000104" lon="-1.7271560000000081">
        <ele>621.463</ele>
        <time>2022-08-25T08:34:58Z</time>
      </trkpt>
      <trkpt lat="42.743089000000104" lon="-1.7271750000000081">
        <ele>621.613</ele>
        <time>2022-08-25T08:34:59Z</time>
      </trkpt>
      <trkpt lat="42.7430840000001" lon="-1.727192000000008">
        <ele>621.873</ele>
        <time>2022-08-25T08:35:00Z</time>
      </trkpt>
      <trkpt lat="42.7430790000001" lon="-1.7272100000000081">
        <ele>621.889</ele>
        <time>2022-08-25T08:35:01Z</time>
      </trkpt>
      <trkpt lat="42.743075000000104" lon="-1.7272260000000081">
        <ele>622.061</ele>
        <time>2022-08-25T08:35:02Z</time>
      </trkpt>
      <trkpt lat="42.743069000000105" lon="-1.727246000000008">
        <ele>622.038</ele>
        <time>2022-08-25T08:35:03Z</time>
      </trkpt>
      <trkpt lat="42.743066000000105" lon="-1.727267000000008">
        <ele>622.231</ele>
        <time>2022-08-25T08:35:04Z</time>
      </trkpt>
      <trkpt lat="42.74306500000011" lon="-1.7272910000000081">
        <ele>622.427</ele>
        <time>2022-08-25T08:35:05Z</time>
      </trkpt>
      <trkpt lat="42.74306500000011" lon="-1.7273200000000082">
        <ele>622.628</ele>
        <time>2022-08-25T08:35:06Z</time>
      </trkpt>
      <trkpt lat="42.743063000000106" lon="-1.727351000000008">
        <ele>622.678</ele>
        <time>2022-08-25T08:35:07Z</time>
      </trkpt>
      <trkpt lat="42.743061000000104" lon="-1.7273800000000081">
        <ele>622.833</ele>
        <time>2022-08-25T08:35:08Z</time>
      </trkpt>
      <trkpt lat="42.743058000000104" lon="-1.7274040000000082">
        <ele>623.226</ele>
        <time>2022-08-25T08:35:09Z</time>
      </trkpt>
      <trkpt lat="42.74305400000011" lon="-1.7274270000000083">
        <ele>623.209</ele>
        <time>2022-08-25T08:35:10Z</time>
      </trkpt>
      <trkpt lat="42.74305000000011" lon="-1.7274510000000083">
        <ele>623.848</ele>
        <time>2022-08-25T08:35:11Z</time>
      </trkpt>
      <trkpt lat="42.74304600000011" lon="-1.7274800000000083">
        <ele>624.088</ele>
        <time>2022-08-25T08:35:12Z</time>
      </trkpt>
      <trkpt lat="42.743045000000116" lon="-1.7275000000000083">
        <ele>624.488</ele>
        <time>2022-08-25T08:35:13Z</time>
      </trkpt>
      <trkpt lat="42.74304400000012" lon="-1.7275260000000083">
        <ele>624.644</ele>
        <time>2022-08-25T08:35:14Z</time>
      </trkpt>
      <trkpt lat="42.74304100000012" lon="-1.7275550000000084">
        <ele>624.846</ele>
        <time>2022-08-25T08:35:15Z</time>
      </trkpt>
      <trkpt lat="42.74304100000012" lon="-1.7275750000000083">
        <ele>625.243</ele>
        <time>2022-08-25T08:35:16Z</time>
      </trkpt>
      <trkpt lat="42.743042000000116" lon="-1.7276000000000082">
        <ele>625.416</ele>
        <time>2022-08-25T08:35:17Z</time>
      </trkpt>
      <trkpt lat="42.743042000000116" lon="-1.7276220000000082">
        <ele>625.682</ele>
        <time>2022-08-25T08:35:18Z</time>
      </trkpt>
      <trkpt lat="42.74304400000012" lon="-1.7276450000000083">
        <ele>625.873</ele>
        <time>2022-08-25T08:35:19Z</time>
      </trkpt>
      <trkpt lat="42.74304700000012" lon="-1.7276670000000083">
        <ele>626.218</ele>
        <time>2022-08-25T08:35:20Z</time>
      </trkpt>
      <trkpt lat="42.74304700000012" lon="-1.7276960000000083">
        <ele>626.498</ele>
        <time>2022-08-25T08:35:21Z</time>
      </trkpt>
      <trkpt lat="42.74304600000012" lon="-1.7277200000000084">
        <ele>626.417</ele>
        <time>2022-08-25T08:35:22Z</time>
      </trkpt>
      <trkpt lat="42.74304700000012" lon="-1.7277370000000083">
        <ele>626.809</ele>
        <time>2022-08-25T08:35:23Z</time>
      </trkpt>
      <trkpt lat="42.743051000000115" lon="-1.7277590000000083">
        <ele>626.852</ele>
        <time>2022-08-25T08:35:24Z</time>
      </trkpt>
      <trkpt lat="42.74305600000012" lon="-1.7277820000000084">
        <ele>627.082</ele>
        <time>2022-08-25T08:35:25Z</time>
      </trkpt>
      <trkpt lat="42.743062000000116" lon="-1.7277960000000083">
        <ele>627.442</ele>
        <time>2022-08-25T08:35:26Z</time>
      </trkpt>
      <trkpt lat="42.743065000000115" lon="-1.7278090000000084">
        <ele>628.068</ele>
        <time>2022-08-25T08:35:27Z</time>
      </trkpt>
      <trkpt lat="42.74307000000012" lon="-1.7278240000000085">
        <ele>628.280</ele>
        <time>2022-08-25T08:35:28Z</time>
      </trkpt>
      <trkpt lat="42.74307500000012" lon="-1.7278400000000085">
        <ele>628.457</ele>
        <time>2022-08-25T08:35:29Z</time>
      </trkpt>
      <trkpt lat="42.74308100000012" lon="-1.7278570000000084">
        <ele>628.630</ele>
        <time>2022-08-25T08:35:30Z</time>
      </trkpt>
      <trkpt lat="42.743088000000114" lon="-1.7278780000000085">
        <ele>628.826</ele>
        <time>2022-08-25T08:35:31Z</time>
      </trkpt>
      <trkpt lat="42.743093000000115" lon="-1.7278920000000084">
        <ele>628.837</ele>
        <time>2022-08-25T08:35:32Z</time>
      </trkpt>
      <trkpt lat="42.74309700000011" lon="-1.7279120000000083">
        <ele>628.859</ele>
        <time>2022-08-25T08:35:33Z</time>
      </trkpt>
      <trkpt lat="42.743102000000114" lon="-1.7279290000000083">
        <ele>629.003</ele>
        <time>2022-08-25T08:35:34Z</time>
      </trkpt>
      <trkpt lat="42.74310300000011" lon="-1.7279450000000083">
        <ele>629.023</ele>
        <time>2022-08-25T08:35:35Z</time>
      </trkpt>
      <trkpt lat="42.74310700000011" lon="-1.7279630000000084">
        <ele>629.009</ele>
        <time>2022-08-25T08:35:36Z</time>
      </trkpt>
      <trkpt lat="42.74311000000011" lon="-1.7279760000000084">
        <ele>629.226</ele>
        <time>2022-08-25T08:35:37Z</time>
      </trkpt>
      <trkpt lat="42.74311500000011" lon="-1.7279930000000083">
        <ele>629.416</ele>
        <time>2022-08-25T08:35:38Z</time>
      </trkpt>
      <trkpt lat="42.74311900000011" lon="-1.7280120000000083">
        <ele>629.866</ele>
        <time>2022-08-25T08:35:39Z</time>
      </trkpt>
      <trkpt lat="42.743123000000104" lon="-1.7280310000000083">
        <ele>629.822</ele>
        <time>2022-08-25T08:35:40Z</time>
      </trkpt>
      <trkpt lat="42.743125000000106" lon="-1.7280570000000084">
        <ele>629.844</ele>
        <time>2022-08-25T08:35:41Z</time>
      </trkpt>
      <trkpt lat="42.7431260000001" lon="-1.7280700000000084">
        <ele>630.031</ele>
        <time>2022-08-25T08:35:42Z</time>
      </trkpt>
      <trkpt lat="42.7431290000001" lon="-1.7280860000000084">
        <ele>630.074</ele>
        <time>2022-08-25T08:35:43Z</time>
      </trkpt>
      <trkpt lat="42.7431300000001" lon="-1.7281060000000084">
        <ele>630.030</ele>
        <time>2022-08-25T08:35:44Z</time>
      </trkpt>
      <trkpt lat="42.7431280000001" lon="-1.7281180000000083">
        <ele>630.041</ele>
        <time>2022-08-25T08:35:45Z</time>
      </trkpt>
      <trkpt lat="42.7431250000001" lon="-1.7281350000000082">
        <ele>630.039</ele>
        <time>2022-08-25T08:35:46Z</time>
      </trkpt>
      <trkpt lat="42.7431200000001" lon="-1.7281530000000083">
        <ele>630.401</ele>
        <time>2022-08-25T08:35:47Z</time>
      </trkpt>
      <trkpt lat="42.7431140000001" lon="-1.7281730000000082">
        <ele>630.421</ele>
        <time>2022-08-25T08:35:48Z</time>
      </trkpt>
      <trkpt lat="42.743109000000096" lon="-1.7281940000000082">
        <ele>630.609</ele>
        <time>2022-08-25T08:35:49Z</time>
      </trkpt>
      <trkpt lat="42.7431080000001" lon="-1.7282130000000082">
        <ele>630.694</ele>
        <time>2022-08-25T08:35:50Z</time>
      </trkpt>
      <trkpt lat="42.7431070000001" lon="-1.7282300000000081">
        <ele>630.674</ele>
        <time>2022-08-25T08:35:51Z</time>
      </trkpt>
      <trkpt lat="42.743103000000104" lon="-1.728247000000008">
        <ele>630.854</ele>
        <time>2022-08-25T08:35:52Z</time>
      </trkpt>
      <trkpt lat="42.743097000000105" lon="-1.728266000000008">
        <ele>630.870</ele>
        <time>2022-08-25T08:35:53Z</time>
      </trkpt>
      <trkpt lat="42.74309600000011" lon="-1.728282000000008">
        <ele>630.822</ele>
        <time>2022-08-25T08:35:54Z</time>
      </trkpt>
      <trkpt lat="42.74308700000011" lon="-1.728302000000008">
        <ele>631.289</ele>
        <time>2022-08-25T08:35:55Z</time>
      </trkpt>
      <trkpt lat="42.74308000000011" lon="-1.728313000000008">
        <ele>631.212</ele>
        <time>2022-08-25T08:35:56Z</time>
      </trkpt>
      <trkpt lat="42.74306900000011" lon="-1.728328000000008">
        <ele>631.218</ele>
        <time>2022-08-25T08:35:57Z</time>
      </trkpt>
      <trkpt lat="42.74305600000011" lon="-1.728339000000008">
        <ele>631.419</ele>
        <time>2022-08-25T08:35:58Z</time>
      </trkpt>
      <trkpt lat="42.74304300000011" lon="-1.7283460000000082">
        <ele>631.865</ele>
        <time>2022-08-25T08:35:59Z</time>
      </trkpt>
      <trkpt lat="42.74303400000011" lon="-1.7283480000000082">
        <ele>631.868</ele>
        <time>2022-08-25T08:36:00Z</time>
      </trkpt>
      <trkpt lat="42.74301900000011" lon="-1.728352000000008">
        <ele>632.014</ele>
        <time>2022-08-25T08:36:01Z</time>
      </trkpt>
      <trkpt lat="42.74300300000011" lon="-1.728355000000008">
        <ele>632.409</ele>
        <time>2022-08-25T08:36:02Z</time>
      </trkpt>
      <trkpt lat="42.74298800000011" lon="-1.728359000000008">
        <ele>632.627</ele>
        <time>2022-08-25T08:36:03Z</time>
      </trkpt>
      <trkpt lat="42.74297100000011" lon="-1.728361000000008">
        <ele>632.637</ele>
        <time>2022-08-25T08:36:04Z</time>
      </trkpt>
      <trkpt lat="42.74296000000011" lon="-1.728364000000008">
        <ele>633.057</ele>
        <time>2022-08-25T08:36:05Z</time>
      </trkpt>
      <trkpt lat="42.74294300000011" lon="-1.728368000000008">
        <ele>633.223</ele>
        <time>2022-08-25T08:36:06Z</time>
      </trkpt>
      <trkpt lat="42.74293500000011" lon="-1.728370000000008">
        <ele>633.265</ele>
        <time>2022-08-25T08:36:07Z</time>
      </trkpt>
      <trkpt lat="42.74292300000011" lon="-1.728375000000008">
        <ele>633.262</ele>
        <time>2022-08-25T08:36:08Z</time>
      </trkpt>
      <trkpt lat="42.74290700000011" lon="-1.728378000000008">
        <ele>633.895</ele>
        <time>2022-08-25T08:36:09Z</time>
      </trkpt>
      <trkpt lat="42.742894000000106" lon="-1.728380000000008">
        <ele>633.811</ele>
        <time>2022-08-25T08:36:10Z</time>
      </trkpt>
      <trkpt lat="42.742881000000104" lon="-1.728383000000008">
        <ele>634.212</ele>
        <time>2022-08-25T08:36:11Z</time>
      </trkpt>
      <trkpt lat="42.7428680000001" lon="-1.728388000000008">
        <ele>634.664</ele>
        <time>2022-08-25T08:36:12Z</time>
      </trkpt>
      <trkpt lat="42.7428580000001" lon="-1.728390000000008">
        <ele>634.606</ele>
        <time>2022-08-25T08:36:13Z</time>
      </trkpt>
      <trkpt lat="42.7428470000001" lon="-1.728393000000008">
        <ele>634.816</ele>
        <time>2022-08-25T08:36:14Z</time>
      </trkpt>
      <trkpt lat="42.742836000000096" lon="-1.728393000000008">
        <ele>635.009</ele>
        <time>2022-08-25T08:36:15Z</time>
      </trkpt>
      <trkpt lat="42.7428240000001" lon="-1.728394000000008">
        <ele>635.247</ele>
        <time>2022-08-25T08:36:16Z</time>
      </trkpt>
      <trkpt lat="42.7428120000001" lon="-1.728397000000008">
        <ele>635.247</ele>
        <time>2022-08-25T08:36:17Z</time>
      </trkpt>
      <trkpt lat="42.7428010000001" lon="-1.728396000000008">
        <ele>635.487</ele>
        <time>2022-08-25T08:36:18Z</time>
      </trkpt>
      <trkpt lat="42.742791000000096" lon="-1.728394000000008">
        <ele>635.643</ele>
        <time>2022-08-25T08:36:19Z</time>
      </trkpt>
      <trkpt lat="42.74278100000009" lon="-1.728393000000008">
        <ele>635.825</ele>
        <time>2022-08-25T08:36:20Z</time>
      </trkpt>
      <trkpt lat="42.742772000000095" lon="-1.728390000000008">
        <ele>636.242</ele>
        <time>2022-08-25T08:36:21Z</time>
      </trkpt>
      <trkpt lat="42.7427650000001" lon="-1.7283890000000082">
        <ele>636.225</ele>
        <time>2022-08-25T08:36:22Z</time>
      </trkpt>
      <trkpt lat="42.7427570000001" lon="-1.7283880000000083">
        <ele>636.411</ele>
        <time>2022-08-25T08:36:23Z</time>
      </trkpt>
      <trkpt lat="42.7427510000001" lon="-1.7283860000000082">
        <ele>636.472</ele>
        <time>2022-08-25T08:36:24Z</time>
      </trkpt>
      <trkpt lat="42.742741000000095" lon="-1.7283840000000081">
        <ele>636.423</ele>
        <time>2022-08-25T08:36:25Z</time>
      </trkpt>
      <trkpt lat="42.74273100000009" lon="-1.728382000000008">
        <ele>636.683</ele>
        <time>2022-08-25T08:36:26Z</time>
      </trkpt>
      <trkpt lat="42.74272100000009" lon="-1.728379000000008">
        <ele>636.811</ele>
        <time>2022-08-25T08:36:27Z</time>
      </trkpt>
      <trkpt lat="42.742711000000085" lon="-1.7283760000000081">
        <ele>637.009</ele>
        <time>2022-08-25T08:36:28Z</time>
      </trkpt>
      <trkpt lat="42.74269900000009" lon="-1.728374000000008">
        <ele>637.253</ele>
        <time>2022-08-25T08:36:29Z</time>
      </trkpt>
      <trkpt lat="42.742686000000084" lon="-1.728374000000008">
        <ele>637.423</ele>
        <time>2022-08-25T08:36:30Z</time>
      </trkpt>
      <trkpt lat="42.742677000000086" lon="-1.728372000000008">
        <ele>637.863</ele>
        <time>2022-08-25T08:36:31Z</time>
      </trkpt>
      <trkpt lat="42.742669000000085" lon="-1.728366000000008">
        <ele>638.029</ele>
        <time>2022-08-25T08:36:32Z</time>
      </trkpt>
      <trkpt lat="42.74265900000008" lon="-1.7283600000000081">
        <ele>638.251</ele>
        <time>2022-08-25T08:36:33Z</time>
      </trkpt>
      <trkpt lat="42.74265000000008" lon="-1.728353000000008">
        <ele>638.428</ele>
        <time>2022-08-25T08:36:34Z</time>
      </trkpt>
      <trkpt lat="42.742641000000084" lon="-1.728345000000008">
        <ele>638.631</ele>
        <time>2022-08-25T08:36:35Z</time>
      </trkpt>
      <trkpt lat="42.74263400000009" lon="-1.728338000000008">
        <ele>638.627</ele>
        <time>2022-08-25T08:36:36Z</time>
      </trkpt>
      <trkpt lat="42.742629000000086" lon="-1.7283310000000078">
        <ele>638.828</ele>
        <time>2022-08-25T08:36:37Z</time>
      </trkpt>
      <trkpt lat="42.74262200000009" lon="-1.7283240000000077">
        <ele>639.036</ele>
        <time>2022-08-25T08:36:38Z</time>
      </trkpt>
      <trkpt lat="42.74261600000009" lon="-1.7283180000000078">
        <ele>639.217</ele>
        <time>2022-08-25T08:36:39Z</time>
      </trkpt>
      <trkpt lat="42.74261100000009" lon="-1.7283120000000078">
        <ele>639.418</ele>
        <time>2022-08-25T08:36:40Z</time>
      </trkpt>
      <trkpt lat="42.74260400000009" lon="-1.7283040000000078">
        <ele>639.609</ele>
        <time>2022-08-25T08:36:41Z</time>
      </trkpt>
      <trkpt lat="42.742597000000096" lon="-1.7282960000000078">
        <ele>639.654</ele>
        <time>2022-08-25T08:36:42Z</time>
      </trkpt>
      <trkpt lat="42.7425900000001" lon="-1.7282880000000078">
        <ele>639.874</ele>
        <time>2022-08-25T08:36:43Z</time>
      </trkpt>
      <trkpt lat="42.7425820000001" lon="-1.7282810000000077">
        <ele>639.854</ele>
        <time>2022-08-25T08:36:44Z</time>
      </trkpt>
      <trkpt lat="42.7425740000001" lon="-1.7282720000000078">
        <ele>640.010</ele>
        <time>2022-08-25T08:36:45Z</time>
      </trkpt>
      <trkpt lat="42.742566000000096" lon="-1.7282620000000077">
        <ele>640.032</ele>
        <time>2022-08-25T08:36:46Z</time>
      </trkpt>
      <trkpt lat="42.74255600000009" lon="-1.7282520000000077">
        <ele>640.259</ele>
        <time>2022-08-25T08:36:47Z</time>
      </trkpt>
      <trkpt lat="42.74254800000009" lon="-1.7282430000000077">
        <ele>640.222</ele>
        <time>2022-08-25T08:36:48Z</time>
      </trkpt>
      <trkpt lat="42.742541000000095" lon="-1.7282320000000078">
        <ele>640.448</ele>
        <time>2022-08-25T08:36:49Z</time>
      </trkpt>
      <trkpt lat="42.7425340000001" lon="-1.7282220000000077">
        <ele>640.629</ele>
        <time>2022-08-25T08:36:50Z</time>
      </trkpt>
      <trkpt lat="42.7425290000001" lon="-1.7282110000000077">
        <ele>640.875</ele>
        <time>2022-08-25T08:36:51Z</time>
      </trkpt>
      <trkpt lat="42.7425220000001" lon="-1.7282020000000078">
        <ele>641.228</ele>
        <time>2022-08-25T08:36:52Z</time>
      </trkpt>
      <trkpt lat="42.7425140000001" lon="-1.7281960000000078">
        <ele>641.420</ele>
        <time>2022-08-25T08:36:53Z</time>
      </trkpt>
      <trkpt lat="42.7425050000001" lon="-1.7281900000000079">
        <ele>641.409</ele>
        <time>2022-08-25T08:36:54Z</time>
      </trkpt>
      <trkpt lat="42.7424970000001" lon="-1.7281820000000079">
        <ele>641.648</ele>
        <time>2022-08-25T08:36:55Z</time>
      </trkpt>
      <trkpt lat="42.7424890000001" lon="-1.7281720000000078">
        <ele>641.828</ele>
        <time>2022-08-25T08:36:56Z</time>
      </trkpt>
      <trkpt lat="42.7424820000001" lon="-1.7281620000000077">
        <ele>642.098</ele>
        <time>2022-08-25T08:36:57Z</time>
      </trkpt>
      <trkpt lat="42.7424720000001" lon="-1.7281540000000077">
        <ele>642.264</ele>
        <time>2022-08-25T08:36:58Z</time>
      </trkpt>
      <trkpt lat="42.742462000000096" lon="-1.7281450000000078">
        <ele>642.426</ele>
        <time>2022-08-25T08:36:59Z</time>
      </trkpt>
      <trkpt lat="42.74245200000009" lon="-1.7281380000000077">
        <ele>642.413</ele>
        <time>2022-08-25T08:37:00Z</time>
      </trkpt>
      <trkpt lat="42.74244400000009" lon="-1.7281290000000078">
        <ele>642.496</ele>
        <time>2022-08-25T08:37:01Z</time>
      </trkpt>
      <trkpt lat="42.74243600000009" lon="-1.7281200000000079">
        <ele>642.682</ele>
        <time>2022-08-25T08:37:02Z</time>
      </trkpt>
      <trkpt lat="42.74242700000009" lon="-1.728111000000008">
        <ele>642.653</ele>
        <time>2022-08-25T08:37:03Z</time>
      </trkpt>
      <trkpt lat="42.74241500000009" lon="-1.7281040000000079">
        <ele>642.895</ele>
        <time>2022-08-25T08:37:04Z</time>
      </trkpt>
      <trkpt lat="42.742406000000095" lon="-1.7280930000000079">
        <ele>643.049</ele>
        <time>2022-08-25T08:37:05Z</time>
      </trkpt>
      <trkpt lat="42.742398000000094" lon="-1.728081000000008">
        <ele>643.223</ele>
        <time>2022-08-25T08:37:06Z</time>
      </trkpt>
      <trkpt lat="42.742384000000094" lon="-1.7280740000000079">
        <ele>643.209</ele>
        <time>2022-08-25T08:37:07Z</time>
      </trkpt>
      <trkpt lat="42.742378000000095" lon="-1.7280670000000078">
        <ele>643.460</ele>
        <time>2022-08-25T08:37:08Z</time>
      </trkpt>
      <trkpt lat="42.74237000000009" lon="-1.7280600000000077">
        <ele>643.810</ele>
        <time>2022-08-25T08:37:09Z</time>
      </trkpt>
      <trkpt lat="42.742358000000095" lon="-1.7280540000000078">
        <ele>644.270</ele>
        <time>2022-08-25T08:37:10Z</time>
      </trkpt>
      <trkpt lat="42.7423490000001" lon="-1.7280480000000078">
        <ele>644.426</ele>
        <time>2022-08-25T08:37:11Z</time>
      </trkpt>
      <trkpt lat="42.7423400000001" lon="-1.7280430000000078">
        <ele>644.448</ele>
        <time>2022-08-25T08:37:12Z</time>
      </trkpt>
      <trkpt lat="42.7423400000001" lon="-1.7280370000000078">
        <ele>644.835</ele>
        <time>2022-08-25T08:37:13Z</time>
      </trkpt>
      <trkpt lat="42.742330000000095" lon="-1.7280340000000078">
        <ele>644.868</ele>
        <time>2022-08-25T08:37:14Z</time>
      </trkpt>
      <trkpt lat="42.74232000000009" lon="-1.7280350000000078">
        <ele>645.084</ele>
        <time>2022-08-25T08:37:15Z</time>
      </trkpt>
      <trkpt lat="42.74231200000009" lon="-1.7280390000000077">
        <ele>645.215</ele>
        <time>2022-08-25T08:37:16Z</time>
      </trkpt>
      <trkpt lat="42.74230200000009" lon="-1.7280460000000077">
        <ele>645.423</ele>
        <time>2022-08-25T08:37:17Z</time>
      </trkpt>
      <trkpt lat="42.742294000000086" lon="-1.7280520000000077">
        <ele>645.683</ele>
        <time>2022-08-25T08:37:18Z</time>
      </trkpt>
      <trkpt lat="42.74228400000008" lon="-1.7280580000000076">
        <ele>645.811</ele>
        <time>2022-08-25T08:37:19Z</time>
      </trkpt>
      <trkpt lat="42.74227400000008" lon="-1.7280640000000076">
        <ele>646.009</ele>
        <time>2022-08-25T08:37:20Z</time>
      </trkpt>
      <trkpt lat="42.74226300000008" lon="-1.7280690000000076">
        <ele>646.283</ele>
        <time>2022-08-25T08:37:21Z</time>
      </trkpt>
      <trkpt lat="42.74225600000008" lon="-1.7280730000000075">
        <ele>646.463</ele>
        <time>2022-08-25T08:37:22Z</time>
      </trkpt>
      <trkpt lat="42.742249000000086" lon="-1.7280790000000075">
        <ele>646.673</ele>
        <time>2022-08-25T08:37:23Z</time>
      </trkpt>
      <trkpt lat="42.742241000000085" lon="-1.7280830000000074">
        <ele>646.629</ele>
        <time>2022-08-25T08:37:24Z</time>
      </trkpt>
      <trkpt lat="42.742233000000084" lon="-1.7280890000000073">
        <ele>646.841</ele>
        <time>2022-08-25T08:37:25Z</time>
      </trkpt>
      <trkpt lat="42.742221000000086" lon="-1.7280990000000074">
        <ele>646.848</ele>
        <time>2022-08-25T08:37:26Z</time>
      </trkpt>
      <trkpt lat="42.74221400000009" lon="-1.7281060000000075">
        <ele>647.041</ele>
        <time>2022-08-25T08:37:27Z</time>
      </trkpt>
      <trkpt lat="42.742204000000086" lon="-1.7281130000000076">
        <ele>647.227</ele>
        <time>2022-08-25T08:37:28Z</time>
      </trkpt>
      <trkpt lat="42.742193000000086" lon="-1.7281200000000076">
        <ele>647.448</ele>
        <time>2022-08-25T08:37:29Z</time>
      </trkpt>
      <trkpt lat="42.742185000000084" lon="-1.7281270000000077">
        <ele>647.446</ele>
        <time>2022-08-25T08:37:30Z</time>
      </trkpt>
      <trkpt lat="42.742176000000086" lon="-1.7281320000000078">
        <ele>647.688</ele>
        <time>2022-08-25T08:37:31Z</time>
      </trkpt>
      <trkpt lat="42.742171000000084" lon="-1.7281360000000077">
        <ele>647.616</ele>
        <time>2022-08-25T08:37:32Z</time>
      </trkpt>
      <trkpt lat="42.74216300000008" lon="-1.7281460000000077">
        <ele>647.609</ele>
        <time>2022-08-25T08:37:33Z</time>
      </trkpt>
      <trkpt lat="42.742151000000085" lon="-1.7281560000000078">
        <ele>647.855</ele>
        <time>2022-08-25T08:37:34Z</time>
      </trkpt>
      <trkpt lat="42.74214600000008" lon="-1.7281610000000078">
        <ele>647.825</ele>
        <time>2022-08-25T08:37:35Z</time>
      </trkpt>
      <trkpt lat="42.74213800000008" lon="-1.728171000000008">
        <ele>647.885</ele>
        <time>2022-08-25T08:37:36Z</time>
      </trkpt>
      <trkpt lat="42.742131000000086" lon="-1.728178000000008">
        <ele>648.041</ele>
        <time>2022-08-25T08:37:37Z</time>
      </trkpt>
      <trkpt lat="42.74212400000009" lon="-1.728186000000008">
        <ele>648.053</ele>
        <time>2022-08-25T08:37:38Z</time>
      </trkpt>
      <trkpt lat="42.74211200000009" lon="-1.728195000000008">
        <ele>647.850</ele>
        <time>2022-08-25T08:37:39Z</time>
      </trkpt>
      <trkpt lat="42.74210400000009" lon="-1.7281960000000078">
        <ele>648.083</ele>
        <time>2022-08-25T08:37:40Z</time>
      </trkpt>
      <trkpt lat="42.74209300000009" lon="-1.7281940000000078">
        <ele>648.019</ele>
        <time>2022-08-25T08:37:41Z</time>
      </trkpt>
      <trkpt lat="42.74208600000009" lon="-1.7281940000000078">
        <ele>648.230</ele>
        <time>2022-08-25T08:37:42Z</time>
      </trkpt>
      <trkpt lat="42.742077000000094" lon="-1.7281930000000079">
        <ele>648.245</ele>
        <time>2022-08-25T08:37:43Z</time>
      </trkpt>
      <trkpt lat="42.74206900000009" lon="-1.7281930000000079">
        <ele>648.447</ele>
        <time>2022-08-25T08:37:44Z</time>
      </trkpt>
      <trkpt lat="42.7420620000001" lon="-1.7281940000000078">
        <ele>648.611</ele>
        <time>2022-08-25T08:37:45Z</time>
      </trkpt>
      <trkpt lat="42.7420550000001" lon="-1.7281970000000078">
        <ele>648.809</ele>
        <time>2022-08-25T08:37:46Z</time>
      </trkpt>
      <trkpt lat="42.7420430000001" lon="-1.7282040000000078">
        <ele>648.835</ele>
        <time>2022-08-25T08:37:47Z</time>
      </trkpt>
      <trkpt lat="42.7420350000001" lon="-1.7282130000000078">
        <ele>648.885</ele>
        <time>2022-08-25T08:37:48Z</time>
      </trkpt>
      <trkpt lat="42.742028000000104" lon="-1.7282260000000078">
        <ele>649.075</ele>
        <time>2022-08-25T08:37:49Z</time>
      </trkpt>
      <trkpt lat="42.7420230000001" lon="-1.7282400000000078">
        <ele>649.261</ele>
        <time>2022-08-25T08:37:50Z</time>
      </trkpt>
      <trkpt lat="42.7420180000001" lon="-1.7282520000000077">
        <ele>649.233</ele>
        <time>2022-08-25T08:37:51Z</time>
      </trkpt>
      <trkpt lat="42.742014000000104" lon="-1.7282650000000077">
        <ele>649.220</ele>
        <time>2022-08-25T08:37:52Z</time>
      </trkpt>
      <trkpt lat="42.74200700000011" lon="-1.7282830000000078">
        <ele>649.473</ele>
        <time>2022-08-25T08:37:53Z</time>
      </trkpt>
      <trkpt lat="42.74200400000011" lon="-1.7283040000000078">
        <ele>649.489</ele>
        <time>2022-08-25T08:37:54Z</time>
      </trkpt>
      <trkpt lat="42.74199600000011" lon="-1.728322000000008">
        <ele>649.450</ele>
        <time>2022-08-25T08:37:55Z</time>
      </trkpt>
      <trkpt lat="42.74199000000011" lon="-1.728337000000008">
        <ele>649.458</ele>
        <time>2022-08-25T08:37:56Z</time>
      </trkpt>
      <trkpt lat="42.74197900000011" lon="-1.7283600000000081">
        <ele>649.652</ele>
        <time>2022-08-25T08:37:57Z</time>
      </trkpt>
      <trkpt lat="42.741969000000104" lon="-1.728385000000008">
        <ele>649.617</ele>
        <time>2022-08-25T08:37:58Z</time>
      </trkpt>
      <trkpt lat="42.741963000000105" lon="-1.728401000000008">
        <ele>649.609</ele>
        <time>2022-08-25T08:37:59Z</time>
      </trkpt>
      <trkpt lat="42.74195600000011" lon="-1.728421000000008">
        <ele>649.856</ele>
        <time>2022-08-25T08:38:00Z</time>
      </trkpt>
      <trkpt lat="42.74194900000011" lon="-1.728442000000008">
        <ele>649.836</ele>
        <time>2022-08-25T08:38:01Z</time>
      </trkpt>
      <trkpt lat="42.741914000000115" lon="-1.728494000000008">
        <ele>649.856</ele>
        <time>2022-08-25T08:38:04Z</time>
      </trkpt>
      <trkpt lat="42.741903000000114" lon="-1.728507000000008">
        <ele>649.892</ele>
        <time>2022-08-25T08:38:05Z</time>
      </trkpt>
      <trkpt lat="42.741889000000114" lon="-1.728521000000008">
        <ele>650.044</ele>
        <time>2022-08-25T08:38:06Z</time>
      </trkpt>
      <trkpt lat="42.74187800000011" lon="-1.7285330000000079">
        <ele>650.071</ele>
        <time>2022-08-25T08:38:07Z</time>
      </trkpt>
      <trkpt lat="42.74186700000011" lon="-1.7285450000000078">
        <ele>650.084</ele>
        <time>2022-08-25T08:38:08Z</time>
      </trkpt>
      <trkpt lat="42.741835000000115" lon="-1.7285720000000078">
        <ele>650.020</ele>
        <time>2022-08-25T08:38:11Z</time>
      </trkpt>
      <trkpt lat="42.74181200000012" lon="-1.7285920000000077">
        <ele>650.041</ele>
        <time>2022-08-25T08:38:13Z</time>
      </trkpt>
      <trkpt lat="42.741748000000115" lon="-1.7286430000000077">
        <ele>650.452</ele>
        <time>2022-08-25T08:38:18Z</time>
      </trkpt>
      <trkpt lat="42.74173600000012" lon="-1.7286520000000076">
        <ele>650.653</ele>
        <time>2022-08-25T08:38:19Z</time>
      </trkpt>
      <trkpt lat="42.741725000000116" lon="-1.7286610000000076">
        <ele>650.808</ele>
        <time>2022-08-25T08:38:20Z</time>
      </trkpt>
      <trkpt lat="42.741700000000115" lon="-1.7286820000000076">
        <ele>651.009</ele>
        <time>2022-08-25T08:38:22Z</time>
      </trkpt>
      <trkpt lat="42.74168700000011" lon="-1.7286910000000075">
        <ele>651.056</ele>
        <time>2022-08-25T08:38:23Z</time>
      </trkpt>
      <trkpt lat="42.741633000000114" lon="-1.7287220000000074">
        <ele>651.276</ele>
        <time>2022-08-25T08:38:27Z</time>
      </trkpt>
      <trkpt lat="42.74160100000012" lon="-1.7287550000000074">
        <ele>651.846</ele>
        <time>2022-08-25T08:38:30Z</time>
      </trkpt>
      <trkpt lat="42.741579000000115" lon="-1.7287820000000074">
        <ele>652.082</ele>
        <time>2022-08-25T08:38:32Z</time>
      </trkpt>
      <trkpt lat="42.74157000000012" lon="-1.7287940000000073">
        <ele>652.074</ele>
        <time>2022-08-25T08:38:33Z</time>
      </trkpt>
      <trkpt lat="42.74156000000011" lon="-1.7288060000000072">
        <ele>652.211</ele>
        <time>2022-08-25T08:38:34Z</time>
      </trkpt>
      <trkpt lat="42.74155200000011" lon="-1.728815000000007">
        <ele>652.454</ele>
        <time>2022-08-25T08:38:35Z</time>
      </trkpt>
      <trkpt lat="42.741543000000114" lon="-1.728827000000007">
        <ele>652.420</ele>
        <time>2022-08-25T08:38:36Z</time>
      </trkpt>
      <trkpt lat="42.741498000000114" lon="-1.728890000000007">
        <ele>652.811</ele>
        <time>2022-08-25T08:38:40Z</time>
      </trkpt>
      <trkpt lat="42.741486000000116" lon="-1.728908000000007">
        <ele>652.883</ele>
        <time>2022-08-25T08:38:41Z</time>
      </trkpt>
      <trkpt lat="42.74147900000012" lon="-1.728923000000007">
        <ele>653.025</ele>
        <time>2022-08-25T08:38:42Z</time>
      </trkpt>
      <trkpt lat="42.74147100000012" lon="-1.728935000000007">
        <ele>653.217</ele>
        <time>2022-08-25T08:38:43Z</time>
      </trkpt>
      <trkpt lat="42.741461000000115" lon="-1.728951000000007">
        <ele>653.409</ele>
        <time>2022-08-25T08:38:44Z</time>
      </trkpt>
      <trkpt lat="42.741452000000116" lon="-1.728968000000007">
        <ele>653.679</ele>
        <time>2022-08-25T08:38:45Z</time>
      </trkpt>
      <trkpt lat="42.74144200000011" lon="-1.728991000000007">
        <ele>653.489</ele>
        <time>2022-08-25T08:38:46Z</time>
      </trkpt>
      <trkpt lat="42.74143400000011" lon="-1.729010000000007">
        <ele>653.489</ele>
        <time>2022-08-25T08:38:47Z</time>
      </trkpt>
      <trkpt lat="42.741427000000115" lon="-1.729023000000007">
        <ele>653.895</ele>
        <time>2022-08-25T08:38:48Z</time>
      </trkpt>
      <trkpt lat="42.74141700000011" lon="-1.729040000000007">
        <ele>654.037</ele>
        <time>2022-08-25T08:38:49Z</time>
      </trkpt>
      <trkpt lat="42.74140800000011" lon="-1.729057000000007">
        <ele>654.044</ele>
        <time>2022-08-25T08:38:50Z</time>
      </trkpt>
      <trkpt lat="42.74139800000011" lon="-1.7290740000000069">
        <ele>654.057</ele>
        <time>2022-08-25T08:38:51Z</time>
      </trkpt>
      <trkpt lat="42.74138900000011" lon="-1.729098000000007">
        <ele>654.273</ele>
        <time>2022-08-25T08:38:52Z</time>
      </trkpt>
      <trkpt lat="42.741385000000115" lon="-1.7291150000000068">
        <ele>654.444</ele>
        <time>2022-08-25T08:38:53Z</time>
      </trkpt>
      <trkpt lat="42.74138000000011" lon="-1.729133000000007">
        <ele>654.462</ele>
        <time>2022-08-25T08:38:54Z</time>
      </trkpt>
      <trkpt lat="42.741377000000114" lon="-1.7291550000000069">
        <ele>654.483</ele>
        <time>2022-08-25T08:38:55Z</time>
      </trkpt>
      <trkpt lat="42.74137200000011" lon="-1.729168000000007">
        <ele>654.611</ele>
        <time>2022-08-25T08:38:56Z</time>
      </trkpt>
      <trkpt lat="42.741365000000116" lon="-1.729189000000007">
        <ele>654.809</ele>
        <time>2022-08-25T08:38:57Z</time>
      </trkpt>
      <trkpt lat="42.74135800000012" lon="-1.729203000000007">
        <ele>655.047</ele>
        <time>2022-08-25T08:38:58Z</time>
      </trkpt>
      <trkpt lat="42.741348000000116" lon="-1.729218000000007">
        <ele>655.237</ele>
        <time>2022-08-25T08:38:59Z</time>
      </trkpt>
      <trkpt lat="42.741334000000116" lon="-1.729234000000007">
        <ele>655.487</ele>
        <time>2022-08-25T08:39:00Z</time>
      </trkpt>
      <trkpt lat="42.74132500000012" lon="-1.729247000000007">
        <ele>655.463</ele>
        <time>2022-08-25T08:39:01Z</time>
      </trkpt>
      <trkpt lat="42.74131600000012" lon="-1.7292570000000071">
        <ele>655.625</ele>
        <time>2022-08-25T08:39:02Z</time>
      </trkpt>
      <trkpt lat="42.74130500000012" lon="-1.729269000000007">
        <ele>655.612</ele>
        <time>2022-08-25T08:39:03Z</time>
      </trkpt>
      <trkpt lat="42.74129400000012" lon="-1.729281000000007">
        <ele>655.845</ele>
        <time>2022-08-25T08:39:04Z</time>
      </trkpt>
      <trkpt lat="42.74128000000012" lon="-1.729294000000007">
        <ele>655.871</ele>
        <time>2022-08-25T08:39:05Z</time>
      </trkpt>
      <trkpt lat="42.741267000000114" lon="-1.729300000000007">
        <ele>655.822</ele>
        <time>2022-08-25T08:39:06Z</time>
      </trkpt>
      <trkpt lat="42.741255000000116" lon="-1.729305000000007">
        <ele>656.053</ele>
        <time>2022-08-25T08:39:07Z</time>
      </trkpt>
      <trkpt lat="42.74124600000012" lon="-1.729310000000007">
        <ele>656.204</ele>
        <time>2022-08-25T08:39:08Z</time>
      </trkpt>
      <trkpt lat="42.741233000000115" lon="-1.729312000000007">
        <ele>656.214</ele>
        <time>2022-08-25T08:39:09Z</time>
      </trkpt>
      <trkpt lat="42.74121700000011" lon="-1.729317000000007">
        <ele>656.409</ele>
        <time>2022-08-25T08:39:10Z</time>
      </trkpt>
      <trkpt lat="42.74120100000011" lon="-1.729321000000007">
        <ele>656.676</ele>
        <time>2022-08-25T08:39:11Z</time>
      </trkpt>
      <trkpt lat="42.74119000000011" lon="-1.729326000000007">
        <ele>656.816</ele>
        <time>2022-08-25T08:39:12Z</time>
      </trkpt>
      <trkpt lat="42.74118000000011" lon="-1.729335000000007">
        <ele>656.856</ele>
        <time>2022-08-25T08:39:13Z</time>
      </trkpt>
      <trkpt lat="42.7411700000001" lon="-1.729342000000007">
        <ele>657.022</ele>
        <time>2022-08-25T08:39:14Z</time>
      </trkpt>
      <trkpt lat="42.7411560000001" lon="-1.729347000000007">
        <ele>657.244</ele>
        <time>2022-08-25T08:39:15Z</time>
      </trkpt>
      <trkpt lat="42.741144000000105" lon="-1.729348000000007">
        <ele>657.231</ele>
        <time>2022-08-25T08:39:16Z</time>
      </trkpt>
      <trkpt lat="42.741136000000104" lon="-1.729351000000007">
        <ele>657.424</ele>
        <time>2022-08-25T08:39:17Z</time>
      </trkpt>
      <trkpt lat="42.741124000000106" lon="-1.729361000000007">
        <ele>657.670</ele>
        <time>2022-08-25T08:39:18Z</time>
      </trkpt>
      <trkpt lat="42.741108000000104" lon="-1.729372000000007">
        <ele>657.651</ele>
        <time>2022-08-25T08:39:19Z</time>
      </trkpt>
      <trkpt lat="42.741096000000105" lon="-1.729377000000007">
        <ele>657.889</ele>
        <time>2022-08-25T08:39:20Z</time>
      </trkpt>
      <trkpt lat="42.741085000000105" lon="-1.729380000000007">
        <ele>658.006</ele>
        <time>2022-08-25T08:39:21Z</time>
      </trkpt>
      <trkpt lat="42.74107300000011" lon="-1.729383000000007">
        <ele>658.026</ele>
        <time>2022-08-25T08:39:22Z</time>
      </trkpt>
      <trkpt lat="42.741062000000106" lon="-1.729388000000007">
        <ele>658.209</ele>
        <time>2022-08-25T08:39:23Z</time>
      </trkpt>
      <trkpt lat="42.74105000000011" lon="-1.729397000000007">
        <ele>658.499</ele>
        <time>2022-08-25T08:39:24Z</time>
      </trkpt>
      <trkpt lat="42.74103800000011" lon="-1.729402000000007">
        <ele>658.439</ele>
        <time>2022-08-25T08:39:25Z</time>
      </trkpt>
      <trkpt lat="42.74102700000011" lon="-1.729408000000007">
        <ele>658.659</ele>
        <time>2022-08-25T08:39:26Z</time>
      </trkpt>
      <trkpt lat="42.74101900000011" lon="-1.729411000000007">
        <ele>658.685</ele>
        <time>2022-08-25T08:39:27Z</time>
      </trkpt>
      <trkpt lat="42.741006000000105" lon="-1.729416000000007">
        <ele>658.647</ele>
        <time>2022-08-25T08:39:28Z</time>
      </trkpt>
      <trkpt lat="42.74099400000011" lon="-1.729424000000007">
        <ele>658.634</ele>
        <time>2022-08-25T08:39:29Z</time>
      </trkpt>
      <trkpt lat="42.74099000000011" lon="-1.729431000000007">
        <ele>658.677</ele>
        <time>2022-08-25T08:39:30Z</time>
      </trkpt>
      <trkpt lat="42.74098100000011" lon="-1.729436000000007">
        <ele>658.893</ele>
        <time>2022-08-25T08:39:31Z</time>
      </trkpt>
      <trkpt lat="42.74096800000011" lon="-1.7294460000000071">
        <ele>658.814</ele>
        <time>2022-08-25T08:39:32Z</time>
      </trkpt>
      <trkpt lat="42.74095700000011" lon="-1.7294530000000072">
        <ele>659.067</ele>
        <time>2022-08-25T08:39:33Z</time>
      </trkpt>
      <trkpt lat="42.740944000000106" lon="-1.7294620000000072">
        <ele>659.081</ele>
        <time>2022-08-25T08:39:34Z</time>
      </trkpt>
      <trkpt lat="42.7409310000001" lon="-1.7294690000000073">
        <ele>659.219</ele>
        <time>2022-08-25T08:39:35Z</time>
      </trkpt>
      <trkpt lat="42.7409180000001" lon="-1.7294730000000071">
        <ele>659.209</ele>
        <time>2022-08-25T08:39:36Z</time>
      </trkpt>
      <trkpt lat="42.7409080000001" lon="-1.7294750000000072">
        <ele>659.267</ele>
        <time>2022-08-25T08:39:37Z</time>
      </trkpt>
      <trkpt lat="42.7408910000001" lon="-1.7294800000000072">
        <ele>659.427</ele>
        <time>2022-08-25T08:39:38Z</time>
      </trkpt>
      <trkpt lat="42.740878000000095" lon="-1.7294840000000071">
        <ele>659.827</ele>
        <time>2022-08-25T08:39:39Z</time>
      </trkpt>
      <trkpt lat="42.74086500000009" lon="-1.729488000000007">
        <ele>660.083</ele>
        <time>2022-08-25T08:39:40Z</time>
      </trkpt>
      <trkpt lat="42.74085400000009" lon="-1.729491000000007">
        <ele>660.265</ele>
        <time>2022-08-25T08:39:41Z</time>
      </trkpt>
      <trkpt lat="42.74084200000009" lon="-1.729496000000007">
        <ele>660.492</ele>
        <time>2022-08-25T08:39:42Z</time>
      </trkpt>
      <trkpt lat="42.74082900000009" lon="-1.7295030000000071">
        <ele>660.445</ele>
        <time>2022-08-25T08:39:43Z</time>
      </trkpt>
      <trkpt lat="42.74081400000009" lon="-1.7295130000000072">
        <ele>660.651</ele>
        <time>2022-08-25T08:39:44Z</time>
      </trkpt>
      <trkpt lat="42.74080300000009" lon="-1.7295230000000072">
        <ele>661.092</ele>
        <time>2022-08-25T08:39:45Z</time>
      </trkpt>
      <trkpt lat="42.74079300000009" lon="-1.7295280000000073">
        <ele>661.251</ele>
        <time>2022-08-25T08:39:46Z</time>
      </trkpt>
      <trkpt lat="42.74078100000009" lon="-1.7295360000000073">
        <ele>661.401</ele>
        <time>2022-08-25T08:39:47Z</time>
      </trkpt>
      <trkpt lat="42.74076900000009" lon="-1.7295430000000074">
        <ele>661.611</ele>
        <time>2022-08-25T08:39:48Z</time>
      </trkpt>
      <trkpt lat="42.740754000000095" lon="-1.7295510000000074">
        <ele>661.809</ele>
        <time>2022-08-25T08:39:49Z</time>
      </trkpt>
      <trkpt lat="42.740740000000095" lon="-1.7295590000000074">
        <ele>662.236</ele>
        <time>2022-08-25T08:39:50Z</time>
      </trkpt>
      <trkpt lat="42.7407280000001" lon="-1.7295640000000074">
        <ele>662.486</ele>
        <time>2022-08-25T08:39:51Z</time>
      </trkpt>
      <trkpt lat="42.740715000000094" lon="-1.7295670000000074">
        <ele>662.686</ele>
        <time>2022-08-25T08:39:52Z</time>
      </trkpt>
      <trkpt lat="42.740703000000096" lon="-1.7295710000000073">
        <ele>662.692</ele>
        <time>2022-08-25T08:39:53Z</time>
      </trkpt>
      <trkpt lat="42.740692000000095" lon="-1.7295780000000074">
        <ele>662.834</ele>
        <time>2022-08-25T08:39:54Z</time>
      </trkpt>
      <trkpt lat="42.74068200000009" lon="-1.7295860000000074">
        <ele>663.021</ele>
        <time>2022-08-25T08:39:55Z</time>
      </trkpt>
      <trkpt lat="42.74066900000009" lon="-1.7295890000000074">
        <ele>663.284</ele>
        <time>2022-08-25T08:39:56Z</time>
      </trkpt>
      <trkpt lat="42.74065500000009" lon="-1.7295900000000073">
        <ele>663.240</ele>
        <time>2022-08-25T08:39:57Z</time>
      </trkpt>
      <trkpt lat="42.74064300000009" lon="-1.7295870000000073">
        <ele>663.471</ele>
        <time>2022-08-25T08:39:58Z</time>
      </trkpt>
      <trkpt lat="42.74063200000009" lon="-1.7295830000000074">
        <ele>663.819</ele>
        <time>2022-08-25T08:39:59Z</time>
      </trkpt>
      <trkpt lat="42.74061800000009" lon="-1.7295800000000074">
        <ele>664.009</ele>
        <time>2022-08-25T08:40:00Z</time>
      </trkpt>
      <trkpt lat="42.74060600000009" lon="-1.7295810000000074">
        <ele>664.219</ele>
        <time>2022-08-25T08:40:01Z</time>
      </trkpt>
      <trkpt lat="42.740588000000095" lon="-1.7295850000000073">
        <ele>664.209</ele>
        <time>2022-08-25T08:40:02Z</time>
      </trkpt>
      <trkpt lat="42.740568000000096" lon="-1.7295980000000073">
        <ele>664.472</ele>
        <time>2022-08-25T08:40:03Z</time>
      </trkpt>
      <trkpt lat="42.7405560000001" lon="-1.7296130000000074">
        <ele>664.462</ele>
        <time>2022-08-25T08:40:04Z</time>
      </trkpt>
      <trkpt lat="42.7405470000001" lon="-1.7296250000000073">
        <ele>664.462</ele>
        <time>2022-08-25T08:40:05Z</time>
      </trkpt>
      <trkpt lat="42.7405360000001" lon="-1.7296440000000073">
        <ele>664.478</ele>
        <time>2022-08-25T08:40:06Z</time>
      </trkpt>
      <trkpt lat="42.7405240000001" lon="-1.7296660000000073">
        <ele>664.410</ele>
        <time>2022-08-25T08:40:07Z</time>
      </trkpt>
      <trkpt lat="42.7405140000001" lon="-1.7296820000000073">
        <ele>664.477</ele>
        <time>2022-08-25T08:40:08Z</time>
      </trkpt>
      <trkpt lat="42.7405050000001" lon="-1.7297000000000073">
        <ele>664.680</ele>
        <time>2022-08-25T08:40:09Z</time>
      </trkpt>
      <trkpt lat="42.7404980000001" lon="-1.7297190000000073">
        <ele>664.646</ele>
        <time>2022-08-25T08:40:10Z</time>
      </trkpt>
      <trkpt lat="42.7404890000001" lon="-1.7297430000000074">
        <ele>664.617</ele>
        <time>2022-08-25T08:40:11Z</time>
      </trkpt>
      <trkpt lat="42.7404810000001" lon="-1.7297650000000073">
        <ele>664.672</ele>
        <time>2022-08-25T08:40:12Z</time>
      </trkpt>
      <trkpt lat="42.7404730000001" lon="-1.7297880000000074">
        <ele>664.613</ele>
        <time>2022-08-25T08:40:13Z</time>
      </trkpt>
      <trkpt lat="42.740466000000104" lon="-1.7298070000000074">
        <ele>664.614</ele>
        <time>2022-08-25T08:40:14Z</time>
      </trkpt>
      <trkpt lat="42.740460000000105" lon="-1.7298280000000075">
        <ele>664.809</ele>
        <time>2022-08-25T08:40:15Z</time>
      </trkpt>
      <trkpt lat="42.74045300000011" lon="-1.7298510000000076">
        <ele>664.878</ele>
        <time>2022-08-25T08:40:16Z</time>
      </trkpt>
      <trkpt lat="42.74045000000011" lon="-1.7298820000000075">
        <ele>664.888</ele>
        <time>2022-08-25T08:40:17Z</time>
      </trkpt>
      <trkpt lat="42.74045600000011" lon="-1.7299100000000074">
        <ele>664.838</ele>
        <time>2022-08-25T08:40:18Z</time>
      </trkpt>
      <trkpt lat="42.74046400000011" lon="-1.7299300000000073">
        <ele>664.824</ele>
        <time>2022-08-25T08:40:19Z</time>
      </trkpt>
      <trkpt lat="42.74047400000011" lon="-1.7299530000000074">
        <ele>665.016</ele>
        <time>2022-08-25T08:40:20Z</time>
      </trkpt>
      <trkpt lat="42.740487000000115" lon="-1.7299770000000074">
        <ele>665.093</ele>
        <time>2022-08-25T08:40:21Z</time>
      </trkpt>
      <trkpt lat="42.74051100000012" lon="-1.7300750000000074">
        <ele>665.076</ele>
        <time>2022-08-25T08:40:25Z</time>
      </trkpt>
      <trkpt lat="42.74051000000012" lon="-1.7301370000000074">
        <ele>665.292</ele>
        <time>2022-08-25T08:40:27Z</time>
      </trkpt>
      <trkpt lat="42.74051900000012" lon="-1.7302140000000075">
        <ele>665.473</ele>
        <time>2022-08-25T08:40:30Z</time>
      </trkpt>
      <trkpt lat="42.74052300000012" lon="-1.7302390000000074">
        <ele>665.456</ele>
        <time>2022-08-25T08:40:31Z</time>
      </trkpt>
      <trkpt lat="42.74052500000012" lon="-1.7302630000000074">
        <ele>665.659</ele>
        <time>2022-08-25T08:40:32Z</time>
      </trkpt>
      <trkpt lat="42.74052000000012" lon="-1.7303690000000074">
        <ele>665.614</ele>
        <time>2022-08-25T08:40:36Z</time>
      </trkpt>
      <trkpt lat="42.74052000000012" lon="-1.7303850000000074">
        <ele>665.609</ele>
        <time>2022-08-25T08:40:37Z</time>
      </trkpt>
      <trkpt lat="42.74052000000012" lon="-1.7304100000000073">
        <ele>665.626</ele>
        <time>2022-08-25T08:40:38Z</time>
      </trkpt>
      <trkpt lat="42.74051900000012" lon="-1.7304250000000074">
        <ele>665.626</ele>
        <time>2022-08-25T08:40:39Z</time>
      </trkpt>
      <trkpt lat="42.74051500000012" lon="-1.7304450000000073">
        <ele>665.616</ele>
        <time>2022-08-25T08:40:40Z</time>
      </trkpt>
      <trkpt lat="42.74051200000012" lon="-1.7304680000000074">
        <ele>666.072</ele>
        <time>2022-08-25T08:40:41Z</time>
      </trkpt>
      <trkpt lat="42.740506000000124" lon="-1.7304860000000075">
        <ele>666.464</ele>
        <time>2022-08-25T08:40:42Z</time>
      </trkpt>
      <trkpt lat="42.740500000000125" lon="-1.7305040000000076">
        <ele>666.821</ele>
        <time>2022-08-25T08:40:43Z</time>
      </trkpt>
      <trkpt lat="42.74049600000013" lon="-1.7305160000000075">
        <ele>667.474</ele>
        <time>2022-08-25T08:40:44Z</time>
      </trkpt>
      <trkpt lat="42.74049200000013" lon="-1.7305360000000074">
        <ele>667.620</ele>
        <time>2022-08-25T08:40:45Z</time>
      </trkpt>
      <trkpt lat="42.74048900000013" lon="-1.7305520000000074">
        <ele>668.281</ele>
        <time>2022-08-25T08:40:46Z</time>
      </trkpt>
      <trkpt lat="42.74048600000013" lon="-1.7305700000000075">
        <ele>668.475</ele>
        <time>2022-08-25T08:40:47Z</time>
      </trkpt>
      <trkpt lat="42.74048300000013" lon="-1.7305820000000074">
        <ele>668.828</ele>
        <time>2022-08-25T08:40:48Z</time>
      </trkpt>
      <trkpt lat="42.740479000000136" lon="-1.7306000000000075">
        <ele>668.820</ele>
        <time>2022-08-25T08:40:49Z</time>
      </trkpt>
      <trkpt lat="42.74047500000014" lon="-1.7306180000000075">
        <ele>669.209</ele>
        <time>2022-08-25T08:40:50Z</time>
      </trkpt>
      <trkpt lat="42.74047200000014" lon="-1.7306350000000075">
        <ele>669.418</ele>
        <time>2022-08-25T08:40:51Z</time>
      </trkpt>
      <trkpt lat="42.74047500000014" lon="-1.7306470000000074">
        <ele>669.448</ele>
        <time>2022-08-25T08:40:52Z</time>
      </trkpt>
      <trkpt lat="42.740476000000136" lon="-1.7306630000000074">
        <ele>669.618</ele>
        <time>2022-08-25T08:40:53Z</time>
      </trkpt>
      <trkpt lat="42.740479000000136" lon="-1.7306790000000074">
        <ele>669.634</ele>
        <time>2022-08-25T08:40:54Z</time>
      </trkpt>
      <trkpt lat="42.740482000000135" lon="-1.7306940000000075">
        <ele>670.036</ele>
        <time>2022-08-25T08:40:55Z</time>
      </trkpt>
      <trkpt lat="42.74048000000013" lon="-1.7307090000000076">
        <ele>670.283</ele>
        <time>2022-08-25T08:40:56Z</time>
      </trkpt>
      <trkpt lat="42.740479000000136" lon="-1.7307270000000077">
        <ele>670.276</ele>
        <time>2022-08-25T08:40:57Z</time>
      </trkpt>
      <trkpt lat="42.74048000000013" lon="-1.7307440000000076">
        <ele>670.452</ele>
        <time>2022-08-25T08:40:58Z</time>
      </trkpt>
      <trkpt lat="42.740482000000135" lon="-1.7307630000000076">
        <ele>670.423</ele>
        <time>2022-08-25T08:40:59Z</time>
      </trkpt>
      <trkpt lat="42.74048400000014" lon="-1.7307820000000076">
        <ele>670.682</ele>
        <time>2022-08-25T08:41:00Z</time>
      </trkpt>
      <trkpt lat="42.740482000000135" lon="-1.7308000000000077">
        <ele>670.643</ele>
        <time>2022-08-25T08:41:01Z</time>
      </trkpt>
      <trkpt lat="42.740482000000135" lon="-1.7308190000000077">
        <ele>670.817</ele>
        <time>2022-08-25T08:41:02Z</time>
      </trkpt>
      <trkpt lat="42.74048000000013" lon="-1.7308410000000076">
        <ele>671.009</ele>
        <time>2022-08-25T08:41:03Z</time>
      </trkpt>
      <trkpt lat="42.74047700000013" lon="-1.7308620000000077">
        <ele>671.079</ele>
        <time>2022-08-25T08:41:04Z</time>
      </trkpt>
      <trkpt lat="42.74047000000014" lon="-1.7308850000000078">
        <ele>671.269</ele>
        <time>2022-08-25T08:41:05Z</time>
      </trkpt>
      <trkpt lat="42.74046300000014" lon="-1.7309070000000077">
        <ele>671.269</ele>
        <time>2022-08-25T08:41:06Z</time>
      </trkpt>
      <trkpt lat="42.74045700000014" lon="-1.7309300000000079">
        <ele>671.495</ele>
        <time>2022-08-25T08:41:07Z</time>
      </trkpt>
      <trkpt lat="42.740450000000145" lon="-1.7309520000000078">
        <ele>671.437</ele>
        <time>2022-08-25T08:41:08Z</time>
      </trkpt>
      <trkpt lat="42.740442000000144" lon="-1.7309720000000077">
        <ele>671.644</ele>
        <time>2022-08-25T08:41:09Z</time>
      </trkpt>
      <trkpt lat="42.74043800000015" lon="-1.7309920000000076">
        <ele>671.877</ele>
        <time>2022-08-25T08:41:10Z</time>
      </trkpt>
      <trkpt lat="42.74043200000015" lon="-1.7310100000000077">
        <ele>671.853</ele>
        <time>2022-08-25T08:41:11Z</time>
      </trkpt>
      <trkpt lat="42.740427000000146" lon="-1.7310190000000076">
        <ele>672.064</ele>
        <time>2022-08-25T08:41:12Z</time>
      </trkpt>
      <trkpt lat="42.74042000000015" lon="-1.7310300000000076">
        <ele>672.226</ele>
        <time>2022-08-25T08:41:13Z</time>
      </trkpt>
      <trkpt lat="42.74041200000015" lon="-1.7310420000000075">
        <ele>672.447</ele>
        <time>2022-08-25T08:41:14Z</time>
      </trkpt>
      <trkpt lat="42.74040500000015" lon="-1.7310550000000076">
        <ele>672.611</ele>
        <time>2022-08-25T08:41:15Z</time>
      </trkpt>
      <trkpt lat="42.74039900000015" lon="-1.7310690000000075">
        <ele>673.209</ele>
        <time>2022-08-25T08:41:16Z</time>
      </trkpt>
      <trkpt lat="42.740393000000154" lon="-1.7310780000000074">
        <ele>673.483</ele>
        <time>2022-08-25T08:41:17Z</time>
      </trkpt>
      <trkpt lat="42.74038500000015" lon="-1.7310880000000075">
        <ele>673.693</ele>
        <time>2022-08-25T08:41:18Z</time>
      </trkpt>
      <trkpt lat="42.740379000000154" lon="-1.7311000000000074">
        <ele>673.823</ele>
        <time>2022-08-25T08:41:19Z</time>
      </trkpt>
      <trkpt lat="42.74037500000016" lon="-1.7311140000000074">
        <ele>673.859</ele>
        <time>2022-08-25T08:41:20Z</time>
      </trkpt>
      <trkpt lat="42.74037100000016" lon="-1.7311220000000074">
        <ele>674.251</ele>
        <time>2022-08-25T08:41:21Z</time>
      </trkpt>
      <trkpt lat="42.74036400000016" lon="-1.7311350000000074">
        <ele>674.428</ele>
        <time>2022-08-25T08:41:22Z</time>
      </trkpt>
      <trkpt lat="42.74035700000017" lon="-1.7311480000000075">
        <ele>674.821</ele>
        <time>2022-08-25T08:41:23Z</time>
      </trkpt>
      <trkpt lat="42.740349000000165" lon="-1.7311590000000074">
        <ele>675.027</ele>
        <time>2022-08-25T08:41:24Z</time>
      </trkpt>
      <trkpt lat="42.740338000000165" lon="-1.7311700000000074">
        <ele>675.268</ele>
        <time>2022-08-25T08:41:25Z</time>
      </trkpt>
      <trkpt lat="42.74032800000016" lon="-1.7311750000000075">
        <ele>675.452</ele>
        <time>2022-08-25T08:41:26Z</time>
      </trkpt>
      <trkpt lat="42.74031900000016" lon="-1.7311850000000075">
        <ele>675.653</ele>
        <time>2022-08-25T08:41:27Z</time>
      </trkpt>
      <trkpt lat="42.740312000000166" lon="-1.7311950000000076">
        <ele>675.808</ele>
        <time>2022-08-25T08:41:28Z</time>
      </trkpt>
      <trkpt lat="42.740304000000165" lon="-1.7312070000000075">
        <ele>675.809</ele>
        <time>2022-08-25T08:41:29Z</time>
      </trkpt>
      <trkpt lat="42.74029500000017" lon="-1.7312210000000074">
        <ele>676.226</ele>
        <time>2022-08-25T08:41:30Z</time>
      </trkpt>
      <trkpt lat="42.74028600000017" lon="-1.7312320000000074">
        <ele>676.646</ele>
        <time>2022-08-25T08:41:31Z</time>
      </trkpt>
      <trkpt lat="42.74027700000017" lon="-1.7312430000000074">
        <ele>676.886</ele>
        <time>2022-08-25T08:41:32Z</time>
      </trkpt>
      <trkpt lat="42.74026900000017" lon="-1.7312540000000074">
        <ele>677.252</ele>
        <time>2022-08-25T08:41:33Z</time>
      </trkpt>
      <trkpt lat="42.74026300000017" lon="-1.7312660000000073">
        <ele>677.484</ele>
        <time>2022-08-25T08:41:34Z</time>
      </trkpt>
      <trkpt lat="42.74026100000017" lon="-1.7312780000000072">
        <ele>677.831</ele>
        <time>2022-08-25T08:41:35Z</time>
      </trkpt>
      <trkpt lat="42.74025800000017" lon="-1.7312910000000072">
        <ele>677.854</ele>
        <time>2022-08-25T08:41:36Z</time>
      </trkpt>
      <trkpt lat="42.740256000000166" lon="-1.7313040000000073">
        <ele>677.810</ele>
        <time>2022-08-25T08:41:37Z</time>
      </trkpt>
      <trkpt lat="42.74025500000017" lon="-1.7313160000000072">
        <ele>678.041</ele>
        <time>2022-08-25T08:41:38Z</time>
      </trkpt>
      <trkpt lat="42.74024900000017" lon="-1.7313300000000071">
        <ele>678.088</ele>
        <time>2022-08-25T08:41:39Z</time>
      </trkpt>
      <trkpt lat="42.74024200000017" lon="-1.7313400000000072">
        <ele>678.224</ele>
        <time>2022-08-25T08:41:40Z</time>
      </trkpt>
      <trkpt lat="42.74023100000017" lon="-1.731352000000007">
        <ele>678.226</ele>
        <time>2022-08-25T08:41:41Z</time>
      </trkpt>
      <trkpt lat="42.740224000000175" lon="-1.7313600000000071">
        <ele>678.409</ele>
        <time>2022-08-25T08:41:42Z</time>
      </trkpt>
      <trkpt lat="42.74021200000018" lon="-1.7313700000000072">
        <ele>678.679</ele>
        <time>2022-08-25T08:41:43Z</time>
      </trkpt>
      <trkpt lat="42.74020000000018" lon="-1.7313800000000072">
        <ele>678.879</ele>
        <time>2022-08-25T08:41:44Z</time>
      </trkpt>
      <trkpt lat="42.74018900000018" lon="-1.7313860000000072">
        <ele>678.889</ele>
        <time>2022-08-25T08:41:45Z</time>
      </trkpt>
      <trkpt lat="42.740179000000175" lon="-1.7313920000000071">
        <ele>679.085</ele>
        <time>2022-08-25T08:41:46Z</time>
      </trkpt>
      <trkpt lat="42.740173000000176" lon="-1.7313990000000072">
        <ele>679.037</ele>
        <time>2022-08-25T08:41:47Z</time>
      </trkpt>
      <trkpt lat="42.74016400000018" lon="-1.7314090000000073">
        <ele>679.254</ele>
        <time>2022-08-25T08:41:48Z</time>
      </trkpt>
      <trkpt lat="42.74015500000018" lon="-1.7314250000000073">
        <ele>679.217</ele>
        <time>2022-08-25T08:41:49Z</time>
      </trkpt>
      <trkpt lat="42.74014300000018" lon="-1.7314390000000073">
        <ele>679.263</ele>
        <time>2022-08-25T08:41:50Z</time>
      </trkpt>
      <trkpt lat="42.74013000000018" lon="-1.7314520000000073">
        <ele>679.294</ele>
        <time>2022-08-25T08:41:51Z</time>
      </trkpt>
      <trkpt lat="42.74012200000018" lon="-1.7314600000000073">
        <ele>679.484</ele>
        <time>2022-08-25T08:41:52Z</time>
      </trkpt>
      <trkpt lat="42.74011500000018" lon="-1.7314740000000073">
        <ele>679.407</ele>
        <time>2022-08-25T08:41:53Z</time>
      </trkpt>
      <trkpt lat="42.74010600000018" lon="-1.7314890000000074">
        <ele>679.417</ele>
        <time>2022-08-25T08:41:54Z</time>
      </trkpt>
      <trkpt lat="42.74009700000018" lon="-1.7315040000000075">
        <ele>679.409</ele>
        <time>2022-08-25T08:41:55Z</time>
      </trkpt>
      <trkpt lat="42.74009200000018" lon="-1.7315160000000074">
        <ele>679.619</ele>
        <time>2022-08-25T08:41:56Z</time>
      </trkpt>
      <trkpt lat="42.740085000000185" lon="-1.7315290000000074">
        <ele>679.639</ele>
        <time>2022-08-25T08:41:57Z</time>
      </trkpt>
      <trkpt lat="42.74008100000019" lon="-1.7315430000000074">
        <ele>679.649</ele>
        <time>2022-08-25T08:41:58Z</time>
      </trkpt>
      <trkpt lat="42.74007300000019" lon="-1.7315530000000074">
        <ele>679.865</ele>
        <time>2022-08-25T08:41:59Z</time>
      </trkpt>
      <trkpt lat="42.74006700000019" lon="-1.7315640000000074">
        <ele>679.837</ele>
        <time>2022-08-25T08:42:00Z</time>
      </trkpt>
      <trkpt lat="42.74005900000019" lon="-1.7315730000000074">
        <ele>679.894</ele>
        <time>2022-08-25T08:42:01Z</time>
      </trkpt>
      <trkpt lat="42.740049000000184" lon="-1.7315880000000075">
        <ele>679.837</ele>
        <time>2022-08-25T08:42:02Z</time>
      </trkpt>
      <trkpt lat="42.74004100000018" lon="-1.7316070000000074">
        <ele>680.033</ele>
        <time>2022-08-25T08:42:03Z</time>
      </trkpt>
      <trkpt lat="42.740035000000184" lon="-1.7316240000000074">
        <ele>680.094</ele>
        <time>2022-08-25T08:42:04Z</time>
      </trkpt>
      <trkpt lat="42.740029000000185" lon="-1.7316480000000074">
        <ele>680.092</ele>
        <time>2022-08-25T08:42:05Z</time>
      </trkpt>
      <trkpt lat="42.73998000000019" lon="-1.7317440000000075">
        <ele>680.073</ele>
        <time>2022-08-25T08:42:09Z</time>
      </trkpt>
      <trkpt lat="42.73996500000019" lon="-1.7317740000000075">
        <ele>679.820</ele>
        <time>2022-08-25T08:42:10Z</time>
      </trkpt>
      <trkpt lat="42.73995700000019" lon="-1.7317880000000074">
        <ele>679.609</ele>
        <time>2022-08-25T08:42:11Z</time>
      </trkpt>
      <trkpt lat="42.73994500000019" lon="-1.7318040000000074">
        <ele>679.440</ele>
        <time>2022-08-25T08:42:12Z</time>
      </trkpt>
      <trkpt lat="42.73993000000019" lon="-1.7318170000000075">
        <ele>679.070</ele>
        <time>2022-08-25T08:42:13Z</time>
      </trkpt>
      <trkpt lat="42.739918000000195" lon="-1.7318230000000074">
        <ele>678.820</ele>
        <time>2022-08-25T08:42:14Z</time>
      </trkpt>
      <trkpt lat="42.7399060000002" lon="-1.7318280000000075">
        <ele>678.816</ele>
        <time>2022-08-25T08:42:15Z</time>
      </trkpt>
      <trkpt lat="42.739898000000196" lon="-1.7318320000000074">
        <ele>678.878</ele>
        <time>2022-08-25T08:42:16Z</time>
      </trkpt>
      <trkpt lat="42.739884000000195" lon="-1.7318380000000073">
        <ele>678.835</ele>
        <time>2022-08-25T08:42:17Z</time>
      </trkpt>
      <trkpt lat="42.7398130000002" lon="-1.7318870000000073">
        <ele>679.668</ele>
        <time>2022-08-25T08:42:23Z</time>
      </trkpt>
      <trkpt lat="42.7398040000002" lon="-1.7318950000000073">
        <ele>679.454</ele>
        <time>2022-08-25T08:42:24Z</time>
      </trkpt>
      <trkpt lat="42.7397960000002" lon="-1.7319010000000072">
        <ele>679.465</ele>
        <time>2022-08-25T08:42:25Z</time>
      </trkpt>
      <trkpt lat="42.739755000000194" lon="-1.7319350000000073">
        <ele>679.881</ele>
        <time>2022-08-25T08:42:29Z</time>
      </trkpt>
      <trkpt lat="42.739749000000195" lon="-1.7319440000000073">
        <ele>679.861</ele>
        <time>2022-08-25T08:42:30Z</time>
      </trkpt>
      <trkpt lat="42.7396750000002" lon="-1.7320550000000072">
        <ele>680.417</ele>
        <time>2022-08-25T08:42:38Z</time>
      </trkpt>
      <trkpt lat="42.7396690000002" lon="-1.7320650000000073">
        <ele>680.609</ele>
        <time>2022-08-25T08:42:39Z</time>
      </trkpt>
      <trkpt lat="42.7396630000002" lon="-1.7320800000000074">
        <ele>680.659</ele>
        <time>2022-08-25T08:42:40Z</time>
      </trkpt>
      <trkpt lat="42.739653000000196" lon="-1.7321020000000074">
        <ele>680.839</ele>
        <time>2022-08-25T08:42:41Z</time>
      </trkpt>
      <trkpt lat="42.7396460000002" lon="-1.7321180000000074">
        <ele>681.049</ele>
        <time>2022-08-25T08:42:42Z</time>
      </trkpt>
      <trkpt lat="42.7396440000002" lon="-1.7321320000000073">
        <ele>681.065</ele>
        <time>2022-08-25T08:42:43Z</time>
      </trkpt>
      <trkpt lat="42.739639000000196" lon="-1.7321440000000072">
        <ele>681.247</ele>
        <time>2022-08-25T08:42:44Z</time>
      </trkpt>
      <trkpt lat="42.739637000000194" lon="-1.7321560000000071">
        <ele>681.414</ele>
        <time>2022-08-25T08:42:45Z</time>
      </trkpt>
      <trkpt lat="42.73962900000019" lon="-1.7321740000000072">
        <ele>681.677</ele>
        <time>2022-08-25T08:42:46Z</time>
      </trkpt>
      <trkpt lat="42.739620000000194" lon="-1.7322000000000073">
        <ele>681.853</ele>
        <time>2022-08-25T08:42:48Z</time>
      </trkpt>
      <trkpt lat="42.7396190000002" lon="-1.7322110000000073">
        <ele>681.884</ele>
        <time>2022-08-25T08:42:49Z</time>
      </trkpt>
      <trkpt lat="42.7396180000002" lon="-1.7322240000000073">
        <ele>682.037</ele>
        <time>2022-08-25T08:42:50Z</time>
      </trkpt>
      <trkpt lat="42.7396140000002" lon="-1.7322360000000072">
        <ele>682.049</ele>
        <time>2022-08-25T08:42:51Z</time>
      </trkpt>
      <trkpt lat="42.7396080000002" lon="-1.7322500000000072">
        <ele>682.013</ele>
        <time>2022-08-25T08:42:52Z</time>
      </trkpt>
      <trkpt lat="42.7395970000002" lon="-1.7322750000000071">
        <ele>682.209</ele>
        <time>2022-08-25T08:42:54Z</time>
      </trkpt>
      <trkpt lat="42.7395840000002" lon="-1.7323260000000071">
        <ele>682.424</ele>
        <time>2022-08-25T08:42:57Z</time>
      </trkpt>
      <trkpt lat="42.7395790000002" lon="-1.7323520000000072">
        <ele>682.884</ele>
        <time>2022-08-25T08:42:59Z</time>
      </trkpt>
      <trkpt lat="42.7395650000002" lon="-1.7323980000000072">
        <ele>683.024</ele>
        <time>2022-08-25T08:43:02Z</time>
      </trkpt>
      <trkpt lat="42.739541000000195" lon="-1.7324730000000073">
        <ele>683.280</ele>
        <time>2022-08-25T08:43:07Z</time>
      </trkpt>
      <trkpt lat="42.739538000000195" lon="-1.7324920000000072">
        <ele>683.442</ele>
        <time>2022-08-25T08:43:08Z</time>
      </trkpt>
      <trkpt lat="42.739529000000196" lon="-1.7325230000000071">
        <ele>683.449</ele>
        <time>2022-08-25T08:43:10Z</time>
      </trkpt>
      <trkpt lat="42.739521000000195" lon="-1.7325380000000072">
        <ele>683.632</ele>
        <time>2022-08-25T08:43:11Z</time>
      </trkpt>
      <trkpt lat="42.7395030000002" lon="-1.7325970000000073">
        <ele>684.038</ele>
        <time>2022-08-25T08:43:15Z</time>
      </trkpt>
      <trkpt lat="42.739501000000196" lon="-1.7326090000000072">
        <ele>684.089</ele>
        <time>2022-08-25T08:43:16Z</time>
      </trkpt>
      <trkpt lat="42.7394640000002" lon="-1.7327120000000071">
        <ele>684.611</ele>
        <time>2022-08-25T08:43:22Z</time>
      </trkpt>
      <trkpt lat="42.7394600000002" lon="-1.7327350000000072">
        <ele>684.821</ele>
        <time>2022-08-25T08:43:23Z</time>
      </trkpt>
      <trkpt lat="42.7394260000002" lon="-1.7328250000000072">
        <ele>685.403</ele>
        <time>2022-08-25T08:43:28Z</time>
      </trkpt>
      <trkpt lat="42.7394080000002" lon="-1.7328630000000071">
        <ele>685.609</ele>
        <time>2022-08-25T08:43:30Z</time>
      </trkpt>
      <trkpt lat="42.739402000000204" lon="-1.7328780000000072">
        <ele>686.032</ele>
        <time>2022-08-25T08:43:31Z</time>
      </trkpt>
      <trkpt lat="42.7393970000002" lon="-1.7328900000000071">
        <ele>686.032</ele>
        <time>2022-08-25T08:43:32Z</time>
      </trkpt>
      <trkpt lat="42.7393920000002" lon="-1.7329050000000072">
        <ele>686.462</ele>
        <time>2022-08-25T08:43:33Z</time>
      </trkpt>
      <trkpt lat="42.739385000000205" lon="-1.7329240000000072">
        <ele>686.628</ele>
        <time>2022-08-25T08:43:34Z</time>
      </trkpt>
      <trkpt lat="42.7393800000002" lon="-1.7329390000000073">
        <ele>686.870</ele>
        <time>2022-08-25T08:43:35Z</time>
      </trkpt>
      <trkpt lat="42.739371000000205" lon="-1.7329560000000073">
        <ele>687.067</ele>
        <time>2022-08-25T08:43:36Z</time>
      </trkpt>
      <trkpt lat="42.73936700000021" lon="-1.7329680000000072">
        <ele>687.420</ele>
        <time>2022-08-25T08:43:37Z</time>
      </trkpt>
      <trkpt lat="42.73936100000021" lon="-1.7329840000000072">
        <ele>687.666</ele>
        <time>2022-08-25T08:43:38Z</time>
      </trkpt>
      <trkpt lat="42.73935500000021" lon="-1.7329980000000071">
        <ele>687.867</ele>
        <time>2022-08-25T08:43:39Z</time>
      </trkpt>
      <trkpt lat="42.73934700000021" lon="-1.733012000000007">
        <ele>688.098</ele>
        <time>2022-08-25T08:43:40Z</time>
      </trkpt>
      <trkpt lat="42.73934100000021" lon="-1.733026000000007">
        <ele>688.015</ele>
        <time>2022-08-25T08:43:41Z</time>
      </trkpt>
      <trkpt lat="42.73933700000021" lon="-1.733039000000007">
        <ele>688.226</ele>
        <time>2022-08-25T08:43:42Z</time>
      </trkpt>
      <trkpt lat="42.73932900000021" lon="-1.733058000000007">
        <ele>688.209</ele>
        <time>2022-08-25T08:43:43Z</time>
      </trkpt>
      <trkpt lat="42.73932300000021" lon="-1.7330730000000072">
        <ele>688.230</ele>
        <time>2022-08-25T08:43:44Z</time>
      </trkpt>
      <trkpt lat="42.739316000000215" lon="-1.7330880000000073">
        <ele>688.460</ele>
        <time>2022-08-25T08:43:45Z</time>
      </trkpt>
      <trkpt lat="42.739311000000214" lon="-1.7330990000000073">
        <ele>688.460</ele>
        <time>2022-08-25T08:43:46Z</time>
      </trkpt>
      <trkpt lat="42.73930400000022" lon="-1.7331120000000073">
        <ele>688.616</ele>
        <time>2022-08-25T08:43:47Z</time>
      </trkpt>
      <trkpt lat="42.739294000000214" lon="-1.7331290000000072">
        <ele>688.628</ele>
        <time>2022-08-25T08:43:48Z</time>
      </trkpt>
      <trkpt lat="42.73928600000021" lon="-1.7331440000000073">
        <ele>688.835</ele>
        <time>2022-08-25T08:43:49Z</time>
      </trkpt>
      <trkpt lat="42.73927900000022" lon="-1.7331560000000072">
        <ele>688.818</ele>
        <time>2022-08-25T08:43:50Z</time>
      </trkpt>
      <trkpt lat="42.73927300000022" lon="-1.7331670000000072">
        <ele>689.064</ele>
        <time>2022-08-25T08:43:51Z</time>
      </trkpt>
      <trkpt lat="42.73926400000022" lon="-1.7331820000000073">
        <ele>689.275</ele>
        <time>2022-08-25T08:43:52Z</time>
      </trkpt>
      <trkpt lat="42.73925300000022" lon="-1.7331970000000074">
        <ele>689.255</ele>
        <time>2022-08-25T08:43:53Z</time>
      </trkpt>
      <trkpt lat="42.739243000000215" lon="-1.7332130000000074">
        <ele>689.207</ele>
        <time>2022-08-25T08:43:54Z</time>
      </trkpt>
      <trkpt lat="42.73923300000021" lon="-1.7332280000000075">
        <ele>689.217</ele>
        <time>2022-08-25T08:43:55Z</time>
      </trkpt>
      <trkpt lat="42.73922500000021" lon="-1.7332400000000074">
        <ele>689.809</ele>
        <time>2022-08-25T08:43:56Z</time>
      </trkpt>
      <trkpt lat="42.73921300000021" lon="-1.7332580000000075">
        <ele>689.816</ele>
        <time>2022-08-25T08:43:57Z</time>
      </trkpt>
      <trkpt lat="42.739204000000214" lon="-1.7332710000000076">
        <ele>689.896</ele>
        <time>2022-08-25T08:43:58Z</time>
      </trkpt>
      <trkpt lat="42.73919400000021" lon="-1.7332870000000076">
        <ele>689.836</ele>
        <time>2022-08-25T08:43:59Z</time>
      </trkpt>
      <trkpt lat="42.739187000000214" lon="-1.7332990000000075">
        <ele>690.032</ele>
        <time>2022-08-25T08:44:00Z</time>
      </trkpt>
      <trkpt lat="42.73917700000021" lon="-1.7333120000000075">
        <ele>690.274</ele>
        <time>2022-08-25T08:44:01Z</time>
      </trkpt>
      <trkpt lat="42.73916400000021" lon="-1.7333340000000075">
        <ele>690.411</ele>
        <time>2022-08-25T08:44:02Z</time>
      </trkpt>
      <trkpt lat="42.73915700000021" lon="-1.7333470000000075">
        <ele>690.664</ele>
        <time>2022-08-25T08:44:03Z</time>
      </trkpt>
      <trkpt lat="42.739145000000214" lon="-1.7333680000000076">
        <ele>690.630</ele>
        <time>2022-08-25T08:44:04Z</time>
      </trkpt>
      <trkpt lat="42.739139000000215" lon="-1.7333810000000076">
        <ele>690.661</ele>
        <time>2022-08-25T08:44:05Z</time>
      </trkpt>
      <trkpt lat="42.73913200000022" lon="-1.7333970000000076">
        <ele>690.893</ele>
        <time>2022-08-25T08:44:06Z</time>
      </trkpt>
      <trkpt lat="42.73912100000022" lon="-1.7334190000000076">
        <ele>691.065</ele>
        <time>2022-08-25T08:44:07Z</time>
      </trkpt>
      <trkpt lat="42.73911200000022" lon="-1.7334340000000077">
        <ele>691.221</ele>
        <time>2022-08-25T08:44:08Z</time>
      </trkpt>
      <trkpt lat="42.739102000000216" lon="-1.7334450000000077">
        <ele>691.409</ele>
        <time>2022-08-25T08:44:09Z</time>
      </trkpt>
      <trkpt lat="42.739094000000215" lon="-1.7334540000000076">
        <ele>691.640</ele>
        <time>2022-08-25T08:44:10Z</time>
      </trkpt>
      <trkpt lat="42.73908100000021" lon="-1.7334670000000076">
        <ele>691.820</ele>
        <time>2022-08-25T08:44:11Z</time>
      </trkpt>
      <trkpt lat="42.73907100000021" lon="-1.7334790000000075">
        <ele>691.820</ele>
        <time>2022-08-25T08:44:12Z</time>
      </trkpt>
      <trkpt lat="42.73906200000021" lon="-1.7334930000000075">
        <ele>691.896</ele>
        <time>2022-08-25T08:44:13Z</time>
      </trkpt>
      <trkpt lat="42.73905300000021" lon="-1.7335070000000075">
        <ele>691.818</ele>
        <time>2022-08-25T08:44:14Z</time>
      </trkpt>
      <trkpt lat="42.73904300000021" lon="-1.7335220000000076">
        <ele>691.855</ele>
        <time>2022-08-25T08:44:15Z</time>
      </trkpt>
      <trkpt lat="42.73903500000021" lon="-1.7335330000000075">
        <ele>691.828</ele>
        <time>2022-08-25T08:44:16Z</time>
      </trkpt>
      <trkpt lat="42.73902300000021" lon="-1.7335490000000076">
        <ele>692.044</ele>
        <time>2022-08-25T08:44:17Z</time>
      </trkpt>
      <trkpt lat="42.73901100000021" lon="-1.7335620000000076">
        <ele>692.045</ele>
        <time>2022-08-25T08:44:18Z</time>
      </trkpt>
      <trkpt lat="42.73900200000021" lon="-1.7335750000000076">
        <ele>692.054</ele>
        <time>2022-08-25T08:44:19Z</time>
      </trkpt>
      <trkpt lat="42.73899400000021" lon="-1.7335850000000077">
        <ele>692.256</ele>
        <time>2022-08-25T08:44:20Z</time>
      </trkpt>
      <trkpt lat="42.73898300000021" lon="-1.7336000000000078">
        <ele>692.411</ele>
        <time>2022-08-25T08:44:21Z</time>
      </trkpt>
      <trkpt lat="42.73897000000021" lon="-1.733615000000008">
        <ele>692.409</ele>
        <time>2022-08-25T08:44:22Z</time>
      </trkpt>
      <trkpt lat="42.738960000000205" lon="-1.733631000000008">
        <ele>692.476</ele>
        <time>2022-08-25T08:44:23Z</time>
      </trkpt>
      <trkpt lat="42.738952000000204" lon="-1.7336430000000078">
        <ele>692.686</ele>
        <time>2022-08-25T08:44:24Z</time>
      </trkpt>
      <trkpt lat="42.738943000000205" lon="-1.733658000000008">
        <ele>692.676</ele>
        <time>2022-08-25T08:44:25Z</time>
      </trkpt>
      <trkpt lat="42.73893100000021" lon="-1.7336720000000079">
        <ele>692.692</ele>
        <time>2022-08-25T08:44:26Z</time>
      </trkpt>
      <trkpt lat="42.73891600000021" lon="-1.7336890000000078">
        <ele>692.684</ele>
        <time>2022-08-25T08:44:27Z</time>
      </trkpt>
      <trkpt lat="42.73890300000021" lon="-1.7337060000000077">
        <ele>692.651</ele>
        <time>2022-08-25T08:44:28Z</time>
      </trkpt>
      <trkpt lat="42.738890000000204" lon="-1.7337220000000078">
        <ele>692.674</ele>
        <time>2022-08-25T08:44:29Z</time>
      </trkpt>
      <trkpt lat="42.738853000000205" lon="-1.7337610000000077">
        <ele>692.650</ele>
        <time>2022-08-25T08:44:32Z</time>
      </trkpt>
      <trkpt lat="42.7388430000002" lon="-1.7337780000000076">
        <ele>692.621</ele>
        <time>2022-08-25T08:44:33Z</time>
      </trkpt>
      <trkpt lat="42.738836000000205" lon="-1.7337890000000076">
        <ele>692.612</ele>
        <time>2022-08-25T08:44:34Z</time>
      </trkpt>
      <trkpt lat="42.73882700000021" lon="-1.7338040000000077">
        <ele>692.632</ele>
        <time>2022-08-25T08:44:35Z</time>
      </trkpt>
      <trkpt lat="42.738814000000204" lon="-1.7338210000000076">
        <ele>692.605</ele>
        <time>2022-08-25T08:44:36Z</time>
      </trkpt>
      <trkpt lat="42.738788000000206" lon="-1.7338750000000076">
        <ele>692.609</ele>
        <time>2022-08-25T08:44:39Z</time>
      </trkpt>
      <trkpt lat="42.738763000000205" lon="-1.7339320000000076">
        <ele>692.832</ele>
        <time>2022-08-25T08:44:42Z</time>
      </trkpt>
      <trkpt lat="42.7387580000002" lon="-1.7339450000000076">
        <ele>693.062</ele>
        <time>2022-08-25T08:44:43Z</time>
      </trkpt>
      <trkpt lat="42.73875100000021" lon="-1.7339630000000077">
        <ele>693.072</ele>
        <time>2022-08-25T08:44:44Z</time>
      </trkpt>
      <trkpt lat="42.73874200000021" lon="-1.7339860000000078">
        <ele>693.048</ele>
        <time>2022-08-25T08:44:45Z</time>
      </trkpt>
      <trkpt lat="42.73872700000021" lon="-1.7340400000000078">
        <ele>693.430</ele>
        <time>2022-08-25T08:44:48Z</time>
      </trkpt>
      <trkpt lat="42.73869100000021" lon="-1.7341370000000078">
        <ele>693.637</ele>
        <time>2022-08-25T08:44:53Z</time>
      </trkpt>
      <trkpt lat="42.738681000000206" lon="-1.7341540000000077">
        <ele>693.660</ele>
        <time>2022-08-25T08:44:54Z</time>
      </trkpt>
      <trkpt lat="42.738670000000205" lon="-1.7341700000000078">
        <ele>693.676</ele>
        <time>2022-08-25T08:44:55Z</time>
      </trkpt>
      <trkpt lat="42.73866100000021" lon="-1.7341880000000078">
        <ele>693.627</ele>
        <time>2022-08-25T08:44:56Z</time>
      </trkpt>
      <trkpt lat="42.7386510000002" lon="-1.7342040000000079">
        <ele>693.652</ele>
        <time>2022-08-25T08:44:57Z</time>
      </trkpt>
      <trkpt lat="42.7385980000002" lon="-1.7342940000000078">
        <ele>693.853</ele>
        <time>2022-08-25T08:45:02Z</time>
      </trkpt>
      <trkpt lat="42.738589000000204" lon="-1.7343140000000077">
        <ele>693.808</ele>
        <time>2022-08-25T08:45:03Z</time>
      </trkpt>
      <trkpt lat="42.738583000000204" lon="-1.7343270000000077">
        <ele>694.009</ele>
        <time>2022-08-25T08:45:04Z</time>
      </trkpt>
      <trkpt lat="42.7385750000002" lon="-1.7343480000000078">
        <ele>694.276</ele>
        <time>2022-08-25T08:45:05Z</time>
      </trkpt>
      <trkpt lat="42.738571000000206" lon="-1.7343630000000079">
        <ele>694.276</ele>
        <time>2022-08-25T08:45:06Z</time>
      </trkpt>
      <trkpt lat="42.73856700000021" lon="-1.7343800000000078">
        <ele>694.496</ele>
        <time>2022-08-25T08:45:07Z</time>
      </trkpt>
      <trkpt lat="42.73855800000021" lon="-1.7343940000000078">
        <ele>694.452</ele>
        <time>2022-08-25T08:45:08Z</time>
      </trkpt>
      <trkpt lat="42.73854900000021" lon="-1.7344120000000078">
        <ele>694.684</ele>
        <time>2022-08-25T08:45:09Z</time>
      </trkpt>
      <trkpt lat="42.73850400000021" lon="-1.7344980000000079">
        <ele>694.831</ele>
        <time>2022-08-25T08:45:13Z</time>
      </trkpt>
      <trkpt lat="42.73849300000021" lon="-1.734519000000008">
        <ele>695.024</ele>
        <time>2022-08-25T08:45:14Z</time>
      </trkpt>
      <trkpt lat="42.73845200000021" lon="-1.7346010000000078">
        <ele>695.230</ele>
        <time>2022-08-25T08:45:18Z</time>
      </trkpt>
      <trkpt lat="42.73844100000021" lon="-1.7346210000000077">
        <ele>695.231</ele>
        <time>2022-08-25T08:45:19Z</time>
      </trkpt>
      <trkpt lat="42.73843300000021" lon="-1.7346440000000078">
        <ele>695.456</ele>
        <time>2022-08-25T08:45:20Z</time>
      </trkpt>
      <trkpt lat="42.73842900000021" lon="-1.7346660000000078">
        <ele>695.459</ele>
        <time>2022-08-25T08:45:21Z</time>
      </trkpt>
      <trkpt lat="42.73842500000021" lon="-1.7346820000000078">
        <ele>695.414</ele>
        <time>2022-08-25T08:45:22Z</time>
      </trkpt>
      <trkpt lat="42.73841700000021" lon="-1.7347020000000077">
        <ele>695.409</ele>
        <time>2022-08-25T08:45:23Z</time>
      </trkpt>
      <trkpt lat="42.73840700000021" lon="-1.7347250000000078">
        <ele>695.626</ele>
        <time>2022-08-25T08:45:24Z</time>
      </trkpt>
      <trkpt lat="42.73839800000021" lon="-1.7347450000000078">
        <ele>695.646</ele>
        <time>2022-08-25T08:45:25Z</time>
      </trkpt>
      <trkpt lat="42.73838300000021" lon="-1.7347800000000078">
        <ele>695.616</ele>
        <time>2022-08-25T08:45:27Z</time>
      </trkpt>
      <trkpt lat="42.738376000000216" lon="-1.7347990000000078">
        <ele>695.622</ele>
        <time>2022-08-25T08:45:28Z</time>
      </trkpt>
      <trkpt lat="42.73837000000022" lon="-1.7348200000000078">
        <ele>695.614</ele>
        <time>2022-08-25T08:45:29Z</time>
      </trkpt>
      <trkpt lat="42.73836400000022" lon="-1.7348400000000077">
        <ele>695.841</ele>
        <time>2022-08-25T08:45:30Z</time>
      </trkpt>
      <trkpt lat="42.73835500000022" lon="-1.7348760000000076">
        <ele>696.064</ele>
        <time>2022-08-25T08:45:32Z</time>
      </trkpt>
      <trkpt lat="42.73835000000022" lon="-1.7348930000000076">
        <ele>696.290</ele>
        <time>2022-08-25T08:45:33Z</time>
      </trkpt>
      <trkpt lat="42.73833300000022" lon="-1.7349520000000076">
        <ele>696.651</ele>
        <time>2022-08-25T08:45:36Z</time>
      </trkpt>
      <trkpt lat="42.738328000000216" lon="-1.7349650000000076">
        <ele>696.656</ele>
        <time>2022-08-25T08:45:37Z</time>
      </trkpt>
      <trkpt lat="42.73832200000022" lon="-1.7349820000000076">
        <ele>696.859</ele>
        <time>2022-08-25T08:45:38Z</time>
      </trkpt>
      <trkpt lat="42.738314000000216" lon="-1.7350030000000076">
        <ele>696.814</ele>
        <time>2022-08-25T08:45:39Z</time>
      </trkpt>
      <trkpt lat="42.73831000000022" lon="-1.7350160000000077">
        <ele>696.809</ele>
        <time>2022-08-25T08:45:40Z</time>
      </trkpt>
      <trkpt lat="42.73830500000022" lon="-1.7350290000000077">
        <ele>697.026</ele>
        <time>2022-08-25T08:45:41Z</time>
      </trkpt>
      <trkpt lat="42.738280000000216" lon="-1.7351000000000076">
        <ele>697.426</ele>
        <time>2022-08-25T08:45:45Z</time>
      </trkpt>
      <trkpt lat="42.73821800000022" lon="-1.7352530000000077">
        <ele>697.856</ele>
        <time>2022-08-25T08:45:52Z</time>
      </trkpt>
      <trkpt lat="42.73817800000022" lon="-1.7353310000000077">
        <ele>698.022</ele>
        <time>2022-08-25T08:45:55Z</time>
      </trkpt>
      <trkpt lat="42.73815200000022" lon="-1.7353790000000078">
        <ele>698.074</ele>
        <time>2022-08-25T08:45:57Z</time>
      </trkpt>
      <trkpt lat="42.73813900000022" lon="-1.7354020000000079">
        <ele>698.031</ele>
        <time>2022-08-25T08:45:58Z</time>
      </trkpt>
      <trkpt lat="42.73812500000022" lon="-1.7354290000000079">
        <ele>698.064</ele>
        <time>2022-08-25T08:45:59Z</time>
      </trkpt>
      <trkpt lat="42.738115000000214" lon="-1.7354490000000078">
        <ele>698.050</ele>
        <time>2022-08-25T08:46:00Z</time>
      </trkpt>
      <trkpt lat="42.738069000000216" lon="-1.7355590000000078">
        <ele>698.081</ele>
        <time>2022-08-25T08:46:04Z</time>
      </trkpt>
      <trkpt lat="42.73806200000022" lon="-1.735585000000008">
        <ele>697.822</ele>
        <time>2022-08-25T08:46:05Z</time>
      </trkpt>
      <trkpt lat="42.73805700000022" lon="-1.735604000000008">
        <ele>698.062</ele>
        <time>2022-08-25T08:46:06Z</time>
      </trkpt>
      <trkpt lat="42.73804600000022" lon="-1.735633000000008">
        <ele>697.808</ele>
        <time>2022-08-25T08:46:07Z</time>
      </trkpt>
      <trkpt lat="42.738038000000216" lon="-1.735659000000008">
        <ele>697.809</ele>
        <time>2022-08-25T08:46:08Z</time>
      </trkpt>
      <trkpt lat="42.73803100000022" lon="-1.735684000000008">
        <ele>698.093</ele>
        <time>2022-08-25T08:46:09Z</time>
      </trkpt>
      <trkpt lat="42.73802600000022" lon="-1.735702000000008">
        <ele>698.253</ele>
        <time>2022-08-25T08:46:10Z</time>
      </trkpt>
      <trkpt lat="42.73802100000022" lon="-1.735727000000008">
        <ele>698.283</ele>
        <time>2022-08-25T08:46:11Z</time>
      </trkpt>
      <trkpt lat="42.738005000000214" lon="-1.735817000000008">
        <ele>698.679</ele>
        <time>2022-08-25T08:46:14Z</time>
      </trkpt>
      <trkpt lat="42.73800300000021" lon="-1.735841000000008">
        <ele>698.471</ele>
        <time>2022-08-25T08:46:15Z</time>
      </trkpt>
      <trkpt lat="42.73799200000021" lon="-1.735929000000008">
        <ele>698.618</ele>
        <time>2022-08-25T08:46:18Z</time>
      </trkpt>
      <trkpt lat="42.73798400000021" lon="-1.735983000000008">
        <ele>698.861</ele>
        <time>2022-08-25T08:46:20Z</time>
      </trkpt>
      <trkpt lat="42.73798100000021" lon="-1.736015000000008">
        <ele>698.887</ele>
        <time>2022-08-25T08:46:21Z</time>
      </trkpt>
      <trkpt lat="42.73797800000021" lon="-1.736039000000008">
        <ele>699.058</ele>
        <time>2022-08-25T08:46:22Z</time>
      </trkpt>
      <trkpt lat="42.737971000000215" lon="-1.7360600000000082">
        <ele>699.012</ele>
        <time>2022-08-25T08:46:23Z</time>
      </trkpt>
      <trkpt lat="42.737968000000215" lon="-1.7360750000000083">
        <ele>699.232</ele>
        <time>2022-08-25T08:46:24Z</time>
      </trkpt>
      <trkpt lat="42.737963000000214" lon="-1.7360910000000083">
        <ele>699.805</ele>
        <time>2022-08-25T08:46:25Z</time>
      </trkpt>
      <trkpt lat="42.73795800000021" lon="-1.7361110000000082">
        <ele>700.009</ele>
        <time>2022-08-25T08:46:26Z</time>
      </trkpt>
      <trkpt lat="42.737957000000215" lon="-1.7361270000000082">
        <ele>700.432</ele>
        <time>2022-08-25T08:46:27Z</time>
      </trkpt>
      <trkpt lat="42.737954000000215" lon="-1.7361440000000081">
        <ele>700.622</ele>
        <time>2022-08-25T08:46:28Z</time>
      </trkpt>
      <trkpt lat="42.73795000000022" lon="-1.7361570000000082">
        <ele>700.852</ele>
        <time>2022-08-25T08:46:29Z</time>
      </trkpt>
      <trkpt lat="42.73794200000022" lon="-1.736174000000008">
        <ele>701.078</ele>
        <time>2022-08-25T08:46:30Z</time>
      </trkpt>
      <trkpt lat="42.737934000000216" lon="-1.7361950000000081">
        <ele>701.230</ele>
        <time>2022-08-25T08:46:31Z</time>
      </trkpt>
      <trkpt lat="42.737929000000214" lon="-1.7362190000000082">
        <ele>701.217</ele>
        <time>2022-08-25T08:46:32Z</time>
      </trkpt>
      <trkpt lat="42.737926000000215" lon="-1.7362410000000081">
        <ele>701.280</ele>
        <time>2022-08-25T08:46:33Z</time>
      </trkpt>
      <trkpt lat="42.73792200000022" lon="-1.736263000000008">
        <ele>701.236</ele>
        <time>2022-08-25T08:46:34Z</time>
      </trkpt>
      <trkpt lat="42.73791500000022" lon="-1.736280000000008">
        <ele>701.257</ele>
        <time>2022-08-25T08:46:35Z</time>
      </trkpt>
      <trkpt lat="42.73790700000022" lon="-1.736297000000008">
        <ele>701.457</ele>
        <time>2022-08-25T08:46:36Z</time>
      </trkpt>
      <trkpt lat="42.73789200000022" lon="-1.736321000000008">
        <ele>701.400</ele>
        <time>2022-08-25T08:46:37Z</time>
      </trkpt>
      <trkpt lat="42.737883000000224" lon="-1.736335000000008">
        <ele>701.420</ele>
        <time>2022-08-25T08:46:38Z</time>
      </trkpt>
      <trkpt lat="42.73787200000022" lon="-1.736353000000008">
        <ele>701.409</ele>
        <time>2022-08-25T08:46:39Z</time>
      </trkpt>
      <trkpt lat="42.73786500000023" lon="-1.736374000000008">
        <ele>701.426</ele>
        <time>2022-08-25T08:46:40Z</time>
      </trkpt>
      <trkpt lat="42.73786100000023" lon="-1.7363970000000082">
        <ele>701.446</ele>
        <time>2022-08-25T08:46:41Z</time>
      </trkpt>
      <trkpt lat="42.73785500000023" lon="-1.7364180000000082">
        <ele>701.696</ele>
        <time>2022-08-25T08:46:42Z</time>
      </trkpt>
      <trkpt lat="42.73785000000023" lon="-1.7364380000000081">
        <ele>701.862</ele>
        <time>2022-08-25T08:46:43Z</time>
      </trkpt>
      <trkpt lat="42.73784700000023" lon="-1.7364570000000081">
        <ele>702.264</ele>
        <time>2022-08-25T08:46:44Z</time>
      </trkpt>
      <trkpt lat="42.73784700000023" lon="-1.7364730000000081">
        <ele>702.211</ele>
        <time>2022-08-25T08:46:45Z</time>
      </trkpt>
      <trkpt lat="42.73784500000023" lon="-1.7364910000000082">
        <ele>702.674</ele>
        <time>2022-08-25T08:46:46Z</time>
      </trkpt>
      <trkpt lat="42.737843000000225" lon="-1.7365080000000082">
        <ele>702.860</ele>
        <time>2022-08-25T08:46:47Z</time>
      </trkpt>
      <trkpt lat="42.73784200000023" lon="-1.7365260000000082">
        <ele>703.061</ele>
        <time>2022-08-25T08:46:48Z</time>
      </trkpt>
      <trkpt lat="42.737840000000226" lon="-1.7365480000000082">
        <ele>703.264</ele>
        <time>2022-08-25T08:46:49Z</time>
      </trkpt>
      <trkpt lat="42.737837000000226" lon="-1.7365750000000082">
        <ele>703.606</ele>
        <time>2022-08-25T08:46:50Z</time>
      </trkpt>
      <trkpt lat="42.73783300000023" lon="-1.7365930000000083">
        <ele>703.816</ele>
        <time>2022-08-25T08:46:51Z</time>
      </trkpt>
      <trkpt lat="42.73783000000023" lon="-1.7366100000000082">
        <ele>703.809</ele>
        <time>2022-08-25T08:46:52Z</time>
      </trkpt>
      <trkpt lat="42.73782400000023" lon="-1.7366300000000081">
        <ele>704.057</ele>
        <time>2022-08-25T08:46:53Z</time>
      </trkpt>
      <trkpt lat="42.737817000000234" lon="-1.736655000000008">
        <ele>704.277</ele>
        <time>2022-08-25T08:46:54Z</time>
      </trkpt>
      <trkpt lat="42.737814000000235" lon="-1.736671000000008">
        <ele>704.267</ele>
        <time>2022-08-25T08:46:55Z</time>
      </trkpt>
      <trkpt lat="42.73780900000023" lon="-1.736690000000008">
        <ele>704.273</ele>
        <time>2022-08-25T08:46:56Z</time>
      </trkpt>
      <trkpt lat="42.73780400000023" lon="-1.736707000000008">
        <ele>704.425</ele>
        <time>2022-08-25T08:46:57Z</time>
      </trkpt>
      <trkpt lat="42.73779900000023" lon="-1.736728000000008">
        <ele>704.662</ele>
        <time>2022-08-25T08:46:58Z</time>
      </trkpt>
      <trkpt lat="42.73779300000023" lon="-1.736753000000008">
        <ele>704.875</ele>
        <time>2022-08-25T08:46:59Z</time>
      </trkpt>
      <trkpt lat="42.73778800000023" lon="-1.736773000000008">
        <ele>705.081</ele>
        <time>2022-08-25T08:47:00Z</time>
      </trkpt>
      <trkpt lat="42.73778200000023" lon="-1.7367930000000078">
        <ele>705.062</ele>
        <time>2022-08-25T08:47:01Z</time>
      </trkpt>
      <trkpt lat="42.73777900000023" lon="-1.7368110000000079">
        <ele>705.056</ele>
        <time>2022-08-25T08:47:02Z</time>
      </trkpt>
      <trkpt lat="42.73777800000023" lon="-1.7368250000000078">
        <ele>705.259</ele>
        <time>2022-08-25T08:47:03Z</time>
      </trkpt>
      <trkpt lat="42.73777600000023" lon="-1.7368440000000078">
        <ele>705.214</ele>
        <time>2022-08-25T08:47:04Z</time>
      </trkpt>
      <trkpt lat="42.73777300000023" lon="-1.736862000000008">
        <ele>705.409</ele>
        <time>2022-08-25T08:47:05Z</time>
      </trkpt>
      <trkpt lat="42.73777000000023" lon="-1.7368760000000079">
        <ele>705.646</ele>
        <time>2022-08-25T08:47:06Z</time>
      </trkpt>
      <trkpt lat="42.73776400000023" lon="-1.7368950000000078">
        <ele>705.886</ele>
        <time>2022-08-25T08:47:07Z</time>
      </trkpt>
      <trkpt lat="42.73775900000023" lon="-1.7369090000000078">
        <ele>705.896</ele>
        <time>2022-08-25T08:47:08Z</time>
      </trkpt>
      <trkpt lat="42.73774900000023" lon="-1.7369310000000078">
        <ele>706.082</ele>
        <time>2022-08-25T08:47:09Z</time>
      </trkpt>
      <trkpt lat="42.73774100000023" lon="-1.7369500000000078">
        <ele>706.024</ele>
        <time>2022-08-25T08:47:10Z</time>
      </trkpt>
      <trkpt lat="42.73773400000023" lon="-1.7369640000000077">
        <ele>706.221</ele>
        <time>2022-08-25T08:47:11Z</time>
      </trkpt>
      <trkpt lat="42.73772900000023" lon="-1.7369800000000077">
        <ele>706.284</ele>
        <time>2022-08-25T08:47:12Z</time>
      </trkpt>
      <trkpt lat="42.73772600000023" lon="-1.7369930000000078">
        <ele>706.230</ele>
        <time>2022-08-25T08:47:13Z</time>
      </trkpt>
      <trkpt lat="42.73772100000023" lon="-1.7370130000000077">
        <ele>706.461</ele>
        <time>2022-08-25T08:47:14Z</time>
      </trkpt>
      <trkpt lat="42.73771800000023" lon="-1.7370290000000077">
        <ele>706.628</ele>
        <time>2022-08-25T08:47:15Z</time>
      </trkpt>
      <trkpt lat="42.73771100000023" lon="-1.7370470000000078">
        <ele>706.689</ele>
        <time>2022-08-25T08:47:16Z</time>
      </trkpt>
      <trkpt lat="42.73770600000023" lon="-1.7370630000000078">
        <ele>706.817</ele>
        <time>2022-08-25T08:47:17Z</time>
      </trkpt>
      <trkpt lat="42.73770200000023" lon="-1.737078000000008">
        <ele>706.809</ele>
        <time>2022-08-25T08:47:18Z</time>
      </trkpt>
      <trkpt lat="42.73769700000023" lon="-1.7370950000000078">
        <ele>706.853</ele>
        <time>2022-08-25T08:47:19Z</time>
      </trkpt>
      <trkpt lat="42.737690000000235" lon="-1.7371110000000078">
        <ele>707.083</ele>
        <time>2022-08-25T08:47:20Z</time>
      </trkpt>
      <trkpt lat="42.737684000000236" lon="-1.7371300000000078">
        <ele>707.223</ele>
        <time>2022-08-25T08:47:21Z</time>
      </trkpt>
      <trkpt lat="42.73768100000024" lon="-1.7371520000000078">
        <ele>707.269</ele>
        <time>2022-08-25T08:47:22Z</time>
      </trkpt>
      <trkpt lat="42.73767700000024" lon="-1.7371740000000078">
        <ele>707.421</ele>
        <time>2022-08-25T08:47:23Z</time>
      </trkpt>
      <trkpt lat="42.73767300000024" lon="-1.7371910000000077">
        <ele>707.638</ele>
        <time>2022-08-25T08:47:24Z</time>
      </trkpt>
      <trkpt lat="42.73767100000024" lon="-1.7372060000000078">
        <ele>707.671</ele>
        <time>2022-08-25T08:47:25Z</time>
      </trkpt>
      <trkpt lat="42.73766800000024" lon="-1.7372190000000078">
        <ele>708.037</ele>
        <time>2022-08-25T08:47:26Z</time>
      </trkpt>
      <trkpt lat="42.73766700000024" lon="-1.7372320000000079">
        <ele>708.078</ele>
        <time>2022-08-25T08:47:27Z</time>
      </trkpt>
      <trkpt lat="42.73766700000024" lon="-1.737247000000008">
        <ele>708.232</ele>
        <time>2022-08-25T08:47:28Z</time>
      </trkpt>
      <trkpt lat="42.737664000000244" lon="-1.737263000000008">
        <ele>708.492</ele>
        <time>2022-08-25T08:47:29Z</time>
      </trkpt>
      <trkpt lat="42.73765900000024" lon="-1.737281000000008">
        <ele>708.211</ele>
        <time>2022-08-25T08:47:30Z</time>
      </trkpt>
      <trkpt lat="42.73765600000024" lon="-1.737295000000008">
        <ele>708.409</ele>
        <time>2022-08-25T08:47:31Z</time>
      </trkpt>
      <trkpt lat="42.737650000000244" lon="-1.737313000000008">
        <ele>708.444</ele>
        <time>2022-08-25T08:47:32Z</time>
      </trkpt>
      <trkpt lat="42.737644000000245" lon="-1.7373340000000081">
        <ele>708.664</ele>
        <time>2022-08-25T08:47:33Z</time>
      </trkpt>
      <trkpt lat="42.73763900000024" lon="-1.737351000000008">
        <ele>708.614</ele>
        <time>2022-08-25T08:47:34Z</time>
      </trkpt>
      <trkpt lat="42.737635000000246" lon="-1.7373660000000082">
        <ele>708.860</ele>
        <time>2022-08-25T08:47:35Z</time>
      </trkpt>
      <trkpt lat="42.73762900000025" lon="-1.737378000000008">
        <ele>708.892</ele>
        <time>2022-08-25T08:47:36Z</time>
      </trkpt>
      <trkpt lat="42.73762300000025" lon="-1.7373960000000082">
        <ele>709.059</ele>
        <time>2022-08-25T08:47:37Z</time>
      </trkpt>
      <trkpt lat="42.73761600000025" lon="-1.737416000000008">
        <ele>709.282</ele>
        <time>2022-08-25T08:47:38Z</time>
      </trkpt>
      <trkpt lat="42.73761000000025" lon="-1.737432000000008">
        <ele>709.248</ele>
        <time>2022-08-25T08:47:39Z</time>
      </trkpt>
      <trkpt lat="42.737606000000255" lon="-1.737443000000008">
        <ele>709.229</ele>
        <time>2022-08-25T08:47:40Z</time>
      </trkpt>
      <trkpt lat="42.737601000000254" lon="-1.737457000000008">
        <ele>709.282</ele>
        <time>2022-08-25T08:47:41Z</time>
      </trkpt>
      <trkpt lat="42.73759400000026" lon="-1.737474000000008">
        <ele>709.443</ele>
        <time>2022-08-25T08:47:42Z</time>
      </trkpt>
      <trkpt lat="42.73758800000026" lon="-1.737487000000008">
        <ele>709.417</ele>
        <time>2022-08-25T08:47:43Z</time>
      </trkpt>
      <trkpt lat="42.73757900000026" lon="-1.737503000000008">
        <ele>709.409</ele>
        <time>2022-08-25T08:47:44Z</time>
      </trkpt>
      <trkpt lat="42.73757300000026" lon="-1.7375180000000081">
        <ele>709.679</ele>
        <time>2022-08-25T08:47:45Z</time>
      </trkpt>
      <trkpt lat="42.73756700000026" lon="-1.737529000000008">
        <ele>709.619</ele>
        <time>2022-08-25T08:47:46Z</time>
      </trkpt>
      <trkpt lat="42.73755900000026" lon="-1.7375440000000082">
        <ele>709.659</ele>
        <time>2022-08-25T08:47:47Z</time>
      </trkpt>
      <trkpt lat="42.73755400000026" lon="-1.7375590000000083">
        <ele>709.675</ele>
        <time>2022-08-25T08:47:48Z</time>
      </trkpt>
      <trkpt lat="42.73754900000026" lon="-1.7375730000000082">
        <ele>709.877</ele>
        <time>2022-08-25T08:47:49Z</time>
      </trkpt>
      <trkpt lat="42.737547000000255" lon="-1.7375850000000082">
        <ele>709.824</ele>
        <time>2022-08-25T08:47:50Z</time>
      </trkpt>
      <trkpt lat="42.73754300000026" lon="-1.7376000000000082">
        <ele>709.847</ele>
        <time>2022-08-25T08:47:51Z</time>
      </trkpt>
      <trkpt lat="42.73753800000026" lon="-1.7376120000000082">
        <ele>709.823</ele>
        <time>2022-08-25T08:47:52Z</time>
      </trkpt>
      <trkpt lat="42.73753400000026" lon="-1.7376250000000082">
        <ele>710.064</ele>
        <time>2022-08-25T08:47:53Z</time>
      </trkpt>
      <trkpt lat="42.73752900000026" lon="-1.7376360000000082">
        <ele>710.037</ele>
        <time>2022-08-25T08:47:54Z</time>
      </trkpt>
      <trkpt lat="42.737505000000255" lon="-1.7377050000000083">
        <ele>710.249</ele>
        <time>2022-08-25T08:47:58Z</time>
      </trkpt>
      <trkpt lat="42.737502000000255" lon="-1.7377170000000082">
        <ele>710.213</ele>
        <time>2022-08-25T08:47:59Z</time>
      </trkpt>
      <trkpt lat="42.73748400000026" lon="-1.7377650000000082">
        <ele>710.409</ele>
        <time>2022-08-25T08:48:02Z</time>
      </trkpt>
      <trkpt lat="42.73747700000026" lon="-1.7377940000000083">
        <ele>710.824</ele>
        <time>2022-08-25T08:48:04Z</time>
      </trkpt>
      <trkpt lat="42.73747400000026" lon="-1.7378200000000084">
        <ele>710.844</ele>
        <time>2022-08-25T08:48:05Z</time>
      </trkpt>
      <trkpt lat="42.737467000000265" lon="-1.7378510000000083">
        <ele>711.054</ele>
        <time>2022-08-25T08:48:06Z</time>
      </trkpt>
      <trkpt lat="42.73745100000026" lon="-1.7379250000000082">
        <ele>711.430</ele>
        <time>2022-08-25T08:48:09Z</time>
      </trkpt>
      <trkpt lat="42.73743500000026" lon="-1.737996000000008">
        <ele>711.482</ele>
        <time>2022-08-25T08:48:11Z</time>
      </trkpt>
      <trkpt lat="42.73740800000026" lon="-1.738132000000008">
        <ele>711.869</ele>
        <time>2022-08-25T08:48:15Z</time>
      </trkpt>
      <trkpt lat="42.73740700000026" lon="-1.738157000000008">
        <ele>711.832</ele>
        <time>2022-08-25T08:48:16Z</time>
      </trkpt>
      <trkpt lat="42.73740500000026" lon="-1.738178000000008">
        <ele>712.068</ele>
        <time>2022-08-25T08:48:17Z</time>
      </trkpt>
      <trkpt lat="42.73740000000026" lon="-1.738190000000008">
        <ele>712.419</ele>
        <time>2022-08-25T08:48:18Z</time>
      </trkpt>
      <trkpt lat="42.73739700000026" lon="-1.738206000000008">
        <ele>712.484</ele>
        <time>2022-08-25T08:48:19Z</time>
      </trkpt>
      <trkpt lat="42.73738800000026" lon="-1.738230000000008">
        <ele>712.607</ele>
        <time>2022-08-25T08:48:20Z</time>
      </trkpt>
      <trkpt lat="42.73738100000026" lon="-1.738249000000008">
        <ele>712.617</ele>
        <time>2022-08-25T08:48:21Z</time>
      </trkpt>
      <trkpt lat="42.73737800000026" lon="-1.738265000000008">
        <ele>712.609</ele>
        <time>2022-08-25T08:48:22Z</time>
      </trkpt>
      <trkpt lat="42.73737600000026" lon="-1.738286000000008">
        <ele>712.659</ele>
        <time>2022-08-25T08:48:23Z</time>
      </trkpt>
      <trkpt lat="42.73737000000026" lon="-1.738309000000008">
        <ele>712.449</ele>
        <time>2022-08-25T08:48:24Z</time>
      </trkpt>
      <trkpt lat="42.737355000000264" lon="-1.7383540000000082">
        <ele>712.489</ele>
        <time>2022-08-25T08:48:26Z</time>
      </trkpt>
      <trkpt lat="42.73734700000026" lon="-1.7383720000000082">
        <ele>712.485</ele>
        <time>2022-08-25T08:48:27Z</time>
      </trkpt>
      <trkpt lat="42.737340000000266" lon="-1.7383950000000084">
        <ele>712.457</ele>
        <time>2022-08-25T08:48:28Z</time>
      </trkpt>
      <trkpt lat="42.73731300000026" lon="-1.7384780000000084">
        <ele>712.614</ele>
        <time>2022-08-25T08:48:31Z</time>
      </trkpt>
      <trkpt lat="42.73725400000026" lon="-1.7387400000000084">
        <ele>713.077</ele>
        <time>2022-08-25T08:48:40Z</time>
      </trkpt>
      <trkpt lat="42.73724600000026" lon="-1.7387600000000083">
        <ele>713.083</ele>
        <time>2022-08-25T08:48:41Z</time>
      </trkpt>
      <trkpt lat="42.73724300000026" lon="-1.7387710000000083">
        <ele>713.034</ele>
        <time>2022-08-25T08:48:42Z</time>
      </trkpt>
      <trkpt lat="42.73723800000026" lon="-1.7387860000000084">
        <ele>713.044</ele>
        <time>2022-08-25T08:48:43Z</time>
      </trkpt>
      <trkpt lat="42.737217000000264" lon="-1.7388330000000083">
        <ele>713.005</ele>
        <time>2022-08-25T08:48:45Z</time>
      </trkpt>
      <trkpt lat="42.73717100000027" lon="-1.7389270000000083">
        <ele>713.015</ele>
        <time>2022-08-25T08:48:49Z</time>
      </trkpt>
      <trkpt lat="42.737163000000265" lon="-1.7389430000000083">
        <ele>713.009</ele>
        <time>2022-08-25T08:48:50Z</time>
      </trkpt>
      <trkpt lat="42.737152000000265" lon="-1.7389620000000083">
        <ele>713.045</ele>
        <time>2022-08-25T08:48:51Z</time>
      </trkpt>
      <trkpt lat="42.737143000000266" lon="-1.7389790000000083">
        <ele>713.045</ele>
        <time>2022-08-25T08:48:52Z</time>
      </trkpt>
      <trkpt lat="42.737135000000265" lon="-1.7389950000000083">
        <ele>713.015</ele>
        <time>2022-08-25T08:48:53Z</time>
      </trkpt>
      <trkpt lat="42.73712500000026" lon="-1.7390140000000083">
        <ele>713.281</ele>
        <time>2022-08-25T08:48:54Z</time>
      </trkpt>
      <trkpt lat="42.73711700000026" lon="-1.7390300000000083">
        <ele>713.243</ele>
        <time>2022-08-25T08:48:55Z</time>
      </trkpt>
      <trkpt lat="42.73709100000026" lon="-1.7390750000000084">
        <ele>713.620</ele>
        <time>2022-08-25T08:48:58Z</time>
      </trkpt>
      <trkpt lat="42.737079000000264" lon="-1.7391030000000083">
        <ele>714.013</ele>
        <time>2022-08-25T08:49:00Z</time>
      </trkpt>
      <trkpt lat="42.73707100000026" lon="-1.7391180000000084">
        <ele>714.099</ele>
        <time>2022-08-25T08:49:01Z</time>
      </trkpt>
      <trkpt lat="42.73706400000027" lon="-1.7391290000000084">
        <ele>714.020</ele>
        <time>2022-08-25T08:49:02Z</time>
      </trkpt>
      <trkpt lat="42.73705400000026" lon="-1.7391460000000083">
        <ele>714.244</ele>
        <time>2022-08-25T08:49:03Z</time>
      </trkpt>
      <trkpt lat="42.737045000000265" lon="-1.7391590000000083">
        <ele>714.205</ele>
        <time>2022-08-25T08:49:04Z</time>
      </trkpt>
      <trkpt lat="42.73701000000027" lon="-1.7392080000000083">
        <ele>714.615</ele>
        <time>2022-08-25T08:49:08Z</time>
      </trkpt>
      <trkpt lat="42.73700400000027" lon="-1.7392190000000083">
        <ele>714.609</ele>
        <time>2022-08-25T08:49:09Z</time>
      </trkpt>
      <trkpt lat="42.73700000000027" lon="-1.7392320000000083">
        <ele>714.885</ele>
        <time>2022-08-25T08:49:10Z</time>
      </trkpt>
      <trkpt lat="42.73699700000027" lon="-1.7392400000000083">
        <ele>715.035</ele>
        <time>2022-08-25T08:49:11Z</time>
      </trkpt>
      <trkpt lat="42.736990000000276" lon="-1.7392500000000084">
        <ele>715.235</ele>
        <time>2022-08-25T08:49:12Z</time>
      </trkpt>
      <trkpt lat="42.736974000000274" lon="-1.7392640000000084">
        <ele>715.471</ele>
        <time>2022-08-25T08:49:13Z</time>
      </trkpt>
      <trkpt lat="42.73696600000027" lon="-1.7392740000000084">
        <ele>715.683</ele>
        <time>2022-08-25T08:49:14Z</time>
      </trkpt>
      <trkpt lat="42.73695800000027" lon="-1.7392860000000083">
        <ele>715.860</ele>
        <time>2022-08-25T08:49:15Z</time>
      </trkpt>
      <trkpt lat="42.73695300000027" lon="-1.7392970000000083">
        <ele>716.033</ele>
        <time>2022-08-25T08:49:16Z</time>
      </trkpt>
      <trkpt lat="42.73694000000027" lon="-1.7393100000000083">
        <ele>716.049</ele>
        <time>2022-08-25T08:49:17Z</time>
      </trkpt>
      <trkpt lat="42.736918000000266" lon="-1.7393300000000083">
        <ele>716.470</ele>
        <time>2022-08-25T08:49:19Z</time>
      </trkpt>
      <trkpt lat="42.73690800000026" lon="-1.7393440000000082">
        <ele>716.632</ele>
        <time>2022-08-25T08:49:20Z</time>
      </trkpt>
      <trkpt lat="42.736896000000264" lon="-1.7393610000000082">
        <ele>716.892</ele>
        <time>2022-08-25T08:49:21Z</time>
      </trkpt>
      <trkpt lat="42.73688100000027" lon="-1.7393760000000082">
        <ele>716.811</ele>
        <time>2022-08-25T08:49:22Z</time>
      </trkpt>
      <trkpt lat="42.73686400000027" lon="-1.7393880000000081">
        <ele>717.009</ele>
        <time>2022-08-25T08:49:23Z</time>
      </trkpt>
      <trkpt lat="42.736848000000265" lon="-1.7393990000000081">
        <ele>717.234</ele>
        <time>2022-08-25T08:49:24Z</time>
      </trkpt>
      <trkpt lat="42.73683800000026" lon="-1.7394070000000081">
        <ele>717.624</ele>
        <time>2022-08-25T08:49:25Z</time>
      </trkpt>
      <trkpt lat="42.73682800000026" lon="-1.7394170000000082">
        <ele>717.834</ele>
        <time>2022-08-25T08:49:26Z</time>
      </trkpt>
      <trkpt lat="42.736818000000255" lon="-1.7394310000000082">
        <ele>718.060</ele>
        <time>2022-08-25T08:49:27Z</time>
      </trkpt>
      <trkpt lat="42.73680900000026" lon="-1.739440000000008">
        <ele>718.282</ele>
        <time>2022-08-25T08:49:28Z</time>
      </trkpt>
      <trkpt lat="42.736798000000256" lon="-1.7394530000000081">
        <ele>718.489</ele>
        <time>2022-08-25T08:49:29Z</time>
      </trkpt>
      <trkpt lat="42.73678800000025" lon="-1.7394630000000082">
        <ele>718.832</ele>
        <time>2022-08-25T08:49:30Z</time>
      </trkpt>
      <trkpt lat="42.73677800000025" lon="-1.7394730000000083">
        <ele>718.858</ele>
        <time>2022-08-25T08:49:31Z</time>
      </trkpt>
      <trkpt lat="42.73676900000025" lon="-1.7394850000000082">
        <ele>719.049</ele>
        <time>2022-08-25T08:49:32Z</time>
      </trkpt>
      <trkpt lat="42.736762000000255" lon="-1.739494000000008">
        <ele>719.291</ele>
        <time>2022-08-25T08:49:33Z</time>
      </trkpt>
      <trkpt lat="42.736753000000256" lon="-1.739506000000008">
        <ele>719.281</ele>
        <time>2022-08-25T08:49:34Z</time>
      </trkpt>
      <trkpt lat="42.73674300000025" lon="-1.739519000000008">
        <ele>719.619</ele>
        <time>2022-08-25T08:49:35Z</time>
      </trkpt>
      <trkpt lat="42.73673200000025" lon="-1.7395340000000081">
        <ele>719.609</ele>
        <time>2022-08-25T08:49:36Z</time>
      </trkpt>
      <trkpt lat="42.736720000000254" lon="-1.739546000000008">
        <ele>719.880</ele>
        <time>2022-08-25T08:49:37Z</time>
      </trkpt>
      <trkpt lat="42.736711000000255" lon="-1.739556000000008">
        <ele>720.070</ele>
        <time>2022-08-25T08:49:38Z</time>
      </trkpt>
      <trkpt lat="42.73670100000025" lon="-1.739568000000008">
        <ele>720.280</ele>
        <time>2022-08-25T08:49:39Z</time>
      </trkpt>
      <trkpt lat="42.736694000000256" lon="-1.739578000000008">
        <ele>720.426</ele>
        <time>2022-08-25T08:49:40Z</time>
      </trkpt>
      <trkpt lat="42.736680000000256" lon="-1.7395930000000082">
        <ele>720.488</ele>
        <time>2022-08-25T08:49:41Z</time>
      </trkpt>
      <trkpt lat="42.73666800000026" lon="-1.739605000000008">
        <ele>720.625</ele>
        <time>2022-08-25T08:49:42Z</time>
      </trkpt>
      <trkpt lat="42.73665600000026" lon="-1.739618000000008">
        <ele>720.838</ele>
        <time>2022-08-25T08:49:43Z</time>
      </trkpt>
      <trkpt lat="42.736646000000256" lon="-1.7396280000000082">
        <ele>721.084</ele>
        <time>2022-08-25T08:49:44Z</time>
      </trkpt>
      <trkpt lat="42.736635000000256" lon="-1.7396440000000082">
        <ele>721.225</ele>
        <time>2022-08-25T08:49:45Z</time>
      </trkpt>
      <trkpt lat="42.73662500000025" lon="-1.739664000000008">
        <ele>721.217</ele>
        <time>2022-08-25T08:49:46Z</time>
      </trkpt>
      <trkpt lat="42.736616000000254" lon="-1.7396770000000081">
        <ele>721.487</ele>
        <time>2022-08-25T08:49:47Z</time>
      </trkpt>
      <trkpt lat="42.73660600000025" lon="-1.739691000000008">
        <ele>721.615</ele>
        <time>2022-08-25T08:49:48Z</time>
      </trkpt>
      <trkpt lat="42.73660000000025" lon="-1.739702000000008">
        <ele>721.809</ele>
        <time>2022-08-25T08:49:49Z</time>
      </trkpt>
      <trkpt lat="42.73659000000025" lon="-1.739716000000008">
        <ele>722.082</ele>
        <time>2022-08-25T08:49:50Z</time>
      </trkpt>
      <trkpt lat="42.73658300000025" lon="-1.739728000000008">
        <ele>722.022</ele>
        <time>2022-08-25T08:49:51Z</time>
      </trkpt>
      <trkpt lat="42.73657300000025" lon="-1.739738000000008">
        <ele>722.072</ele>
        <time>2022-08-25T08:49:52Z</time>
      </trkpt>
      <trkpt lat="42.73656500000025" lon="-1.739748000000008">
        <ele>722.468</ele>
        <time>2022-08-25T08:49:53Z</time>
      </trkpt>
      <trkpt lat="42.73655800000025" lon="-1.739757000000008">
        <ele>722.440</ele>
        <time>2022-08-25T08:49:54Z</time>
      </trkpt>
      <trkpt lat="42.73654900000025" lon="-1.739769000000008">
        <ele>722.447</ele>
        <time>2022-08-25T08:49:55Z</time>
      </trkpt>
      <trkpt lat="42.736540000000254" lon="-1.739782000000008">
        <ele>722.680</ele>
        <time>2022-08-25T08:49:56Z</time>
      </trkpt>
      <trkpt lat="42.736531000000255" lon="-1.7397910000000079">
        <ele>722.846</ele>
        <time>2022-08-25T08:49:57Z</time>
      </trkpt>
      <trkpt lat="42.73652100000025" lon="-1.7398000000000078">
        <ele>723.017</ele>
        <time>2022-08-25T08:49:58Z</time>
      </trkpt>
      <trkpt lat="42.73651600000025" lon="-1.7398070000000079">
        <ele>723.257</ele>
        <time>2022-08-25T08:49:59Z</time>
      </trkpt>
      <trkpt lat="42.73651000000025" lon="-1.739814000000008">
        <ele>723.200</ele>
        <time>2022-08-25T08:50:00Z</time>
      </trkpt>
      <trkpt lat="42.73650000000025" lon="-1.739823000000008">
        <ele>723.420</ele>
        <time>2022-08-25T08:50:01Z</time>
      </trkpt>
      <trkpt lat="42.73649500000025" lon="-1.7398290000000078">
        <ele>723.609</ele>
        <time>2022-08-25T08:50:02Z</time>
      </trkpt>
      <trkpt lat="42.736487000000245" lon="-1.739836000000008">
        <ele>723.826</ele>
        <time>2022-08-25T08:50:03Z</time>
      </trkpt>
      <trkpt lat="42.73647500000025" lon="-1.739846000000008">
        <ele>723.866</ele>
        <time>2022-08-25T08:50:04Z</time>
      </trkpt>
      <trkpt lat="42.736465000000244" lon="-1.739850000000008">
        <ele>723.836</ele>
        <time>2022-08-25T08:50:05Z</time>
      </trkpt>
      <trkpt lat="42.73645500000024" lon="-1.7398530000000079">
        <ele>724.072</ele>
        <time>2022-08-25T08:50:06Z</time>
      </trkpt>
      <trkpt lat="42.73644600000024" lon="-1.7398560000000078">
        <ele>724.044</ele>
        <time>2022-08-25T08:50:07Z</time>
      </trkpt>
      <trkpt lat="42.736437000000244" lon="-1.7398680000000077">
        <ele>724.081</ele>
        <time>2022-08-25T08:50:08Z</time>
      </trkpt>
      <trkpt lat="42.736428000000245" lon="-1.7398820000000077">
        <ele>724.084</ele>
        <time>2022-08-25T08:50:09Z</time>
      </trkpt>
      <trkpt lat="42.73641800000024" lon="-1.7398980000000077">
        <ele>724.210</ele>
        <time>2022-08-25T08:50:10Z</time>
      </trkpt>
      <trkpt lat="42.736414000000245" lon="-1.7399070000000076">
        <ele>724.411</ele>
        <time>2022-08-25T08:50:11Z</time>
      </trkpt>
      <trkpt lat="42.736414000000245" lon="-1.7399170000000077">
        <ele>724.476</ele>
        <time>2022-08-25T08:50:12Z</time>
      </trkpt>
      <trkpt lat="42.736411000000246" lon="-1.7399260000000076">
        <ele>724.490</ele>
        <time>2022-08-25T08:50:13Z</time>
      </trkpt>
      <trkpt lat="42.73640200000025" lon="-1.7399390000000077">
        <ele>724.419</ele>
        <time>2022-08-25T08:50:14Z</time>
      </trkpt>
      <trkpt lat="42.73639600000025" lon="-1.7399520000000077">
        <ele>724.609</ele>
        <time>2022-08-25T08:50:15Z</time>
      </trkpt>
      <trkpt lat="42.736394000000246" lon="-1.7399630000000077">
        <ele>724.658</ele>
        <time>2022-08-25T08:50:16Z</time>
      </trkpt>
      <trkpt lat="42.736389000000244" lon="-1.7399760000000077">
        <ele>724.668</ele>
        <time>2022-08-25T08:50:17Z</time>
      </trkpt>
      <trkpt lat="42.73638500000025" lon="-1.7399890000000078">
        <ele>724.838</ele>
        <time>2022-08-25T08:50:18Z</time>
      </trkpt>
      <trkpt lat="42.73637800000025" lon="-1.7400000000000078">
        <ele>724.854</ele>
        <time>2022-08-25T08:50:19Z</time>
      </trkpt>
      <trkpt lat="42.73637500000025" lon="-1.7400110000000077">
        <ele>725.056</ele>
        <time>2022-08-25T08:50:20Z</time>
      </trkpt>
      <trkpt lat="42.73637500000025" lon="-1.7400190000000078">
        <ele>725.023</ele>
        <time>2022-08-25T08:50:21Z</time>
      </trkpt>
      <trkpt lat="42.73637500000025" lon="-1.7400280000000077">
        <ele>725.066</ele>
        <time>2022-08-25T08:50:22Z</time>
      </trkpt>
      <trkpt lat="42.73637300000025" lon="-1.7400410000000077">
        <ele>725.042</ele>
        <time>2022-08-25T08:50:23Z</time>
      </trkpt>
      <trkpt lat="42.73637000000025" lon="-1.7400550000000077">
        <ele>725.273</ele>
        <time>2022-08-25T08:50:24Z</time>
      </trkpt>
      <trkpt lat="42.73636200000025" lon="-1.7400800000000076">
        <ele>725.282</ele>
        <time>2022-08-25T08:50:26Z</time>
      </trkpt>
      <trkpt lat="42.73635900000025" lon="-1.7400930000000077">
        <ele>725.443</ele>
        <time>2022-08-25T08:50:27Z</time>
      </trkpt>
      <trkpt lat="42.73635400000025" lon="-1.7401100000000076">
        <ele>725.417</ele>
        <time>2022-08-25T08:50:28Z</time>
      </trkpt>
      <trkpt lat="42.73633900000025" lon="-1.7401730000000075">
        <ele>725.609</ele>
        <time>2022-08-25T08:50:33Z</time>
      </trkpt>
      <trkpt lat="42.73633800000025" lon="-1.7401860000000076">
        <ele>725.889</ele>
        <time>2022-08-25T08:50:34Z</time>
      </trkpt>
      <trkpt lat="42.73633600000025" lon="-1.7401950000000075">
        <ele>725.829</ele>
        <time>2022-08-25T08:50:35Z</time>
      </trkpt>
      <trkpt lat="42.73632100000025" lon="-1.7402200000000074">
        <ele>726.049</ele>
        <time>2022-08-25T08:50:37Z</time>
      </trkpt>
      <trkpt lat="42.73631600000025" lon="-1.7402280000000074">
        <ele>726.015</ele>
        <time>2022-08-25T08:50:38Z</time>
      </trkpt>
      <trkpt lat="42.73631300000025" lon="-1.7402350000000075">
        <ele>726.077</ele>
        <time>2022-08-25T08:50:39Z</time>
      </trkpt>
      <trkpt lat="42.736306000000255" lon="-1.7402490000000075">
        <ele>726.254</ele>
        <time>2022-08-25T08:50:41Z</time>
      </trkpt>
      <trkpt lat="42.73630400000025" lon="-1.7402610000000074">
        <ele>726.297</ele>
        <time>2022-08-25T08:50:42Z</time>
      </trkpt>
      <trkpt lat="42.73628000000025" lon="-1.7403120000000074">
        <ele>726.853</ele>
        <time>2022-08-25T08:50:47Z</time>
      </trkpt>
      <trkpt lat="42.73628100000025" lon="-1.7403220000000075">
        <ele>727.044</ele>
        <time>2022-08-25T08:50:48Z</time>
      </trkpt>
      <trkpt lat="42.736282000000244" lon="-1.7403390000000074">
        <ele>727.057</ele>
        <time>2022-08-25T08:50:49Z</time>
      </trkpt>
      <trkpt lat="42.73628000000024" lon="-1.7403520000000074">
        <ele>727.200</ele>
        <time>2022-08-25T08:50:50Z</time>
      </trkpt>
      <trkpt lat="42.736273000000246" lon="-1.7403830000000073">
        <ele>727.420</ele>
        <time>2022-08-25T08:50:53Z</time>
      </trkpt>
      <trkpt lat="42.736268000000244" lon="-1.7403940000000073">
        <ele>727.409</ele>
        <time>2022-08-25T08:50:54Z</time>
      </trkpt>
      <trkpt lat="42.73626400000025" lon="-1.7404030000000072">
        <ele>727.626</ele>
        <time>2022-08-25T08:50:55Z</time>
      </trkpt>
      <trkpt lat="42.736242000000246" lon="-1.7404690000000071">
        <ele>727.896</ele>
        <time>2022-08-25T08:50:59Z</time>
      </trkpt>
      <trkpt lat="42.73622700000025" lon="-1.7405180000000071">
        <ele>728.236</ele>
        <time>2022-08-25T08:51:02Z</time>
      </trkpt>
      <trkpt lat="42.73622300000025" lon="-1.740530000000007">
        <ele>728.232</ele>
        <time>2022-08-25T08:51:03Z</time>
      </trkpt>
      <trkpt lat="42.73620700000025" lon="-1.740589000000007">
        <ele>729.064</ele>
        <time>2022-08-25T08:51:07Z</time>
      </trkpt>
      <trkpt lat="42.73620200000025" lon="-1.740600000000007">
        <ele>729.071</ele>
        <time>2022-08-25T08:51:08Z</time>
      </trkpt>
      <trkpt lat="42.73619500000025" lon="-1.740618000000007">
        <ele>729.014</ele>
        <time>2022-08-25T08:51:09Z</time>
      </trkpt>
      <trkpt lat="42.73617100000025" lon="-1.7406680000000072">
        <ele>729.480</ele>
        <time>2022-08-25T08:51:12Z</time>
      </trkpt>
      <trkpt lat="42.73616500000025" lon="-1.7406820000000072">
        <ele>729.661</ele>
        <time>2022-08-25T08:51:13Z</time>
      </trkpt>
      <trkpt lat="42.73615900000025" lon="-1.7406970000000073">
        <ele>729.837</ele>
        <time>2022-08-25T08:51:14Z</time>
      </trkpt>
      <trkpt lat="42.73615300000025" lon="-1.7407130000000073">
        <ele>730.049</ele>
        <time>2022-08-25T08:51:15Z</time>
      </trkpt>
      <trkpt lat="42.73615000000025" lon="-1.7407290000000073">
        <ele>730.213</ele>
        <time>2022-08-25T08:51:16Z</time>
      </trkpt>
      <trkpt lat="42.736146000000254" lon="-1.7407430000000073">
        <ele>730.409</ele>
        <time>2022-08-25T08:51:17Z</time>
      </trkpt>
      <trkpt lat="42.73614200000026" lon="-1.7407500000000073">
        <ele>730.624</ele>
        <time>2022-08-25T08:51:18Z</time>
      </trkpt>
      <trkpt lat="42.73613800000026" lon="-1.7407590000000073">
        <ele>730.894</ele>
        <time>2022-08-25T08:51:19Z</time>
      </trkpt>
      <trkpt lat="42.73613400000026" lon="-1.7407740000000074">
        <ele>730.864</ele>
        <time>2022-08-25T08:51:20Z</time>
      </trkpt>
      <trkpt lat="42.73613100000026" lon="-1.7407850000000074">
        <ele>730.820</ele>
        <time>2022-08-25T08:51:21Z</time>
      </trkpt>
      <trkpt lat="42.73612900000026" lon="-1.7408000000000075">
        <ele>731.032</ele>
        <time>2022-08-25T08:51:22Z</time>
      </trkpt>
      <trkpt lat="42.73612900000026" lon="-1.7408130000000075">
        <ele>731.059</ele>
        <time>2022-08-25T08:51:23Z</time>
      </trkpt>
      <trkpt lat="42.73612400000026" lon="-1.7408340000000075">
        <ele>731.042</ele>
        <time>2022-08-25T08:51:24Z</time>
      </trkpt>
      <trkpt lat="42.73611800000026" lon="-1.7408530000000075">
        <ele>731.078</ele>
        <time>2022-08-25T08:51:25Z</time>
      </trkpt>
      <trkpt lat="42.73611200000026" lon="-1.7408700000000075">
        <ele>731.269</ele>
        <time>2022-08-25T08:51:26Z</time>
      </trkpt>
      <trkpt lat="42.736108000000264" lon="-1.7408870000000074">
        <ele>731.459</ele>
        <time>2022-08-25T08:51:27Z</time>
      </trkpt>
      <trkpt lat="42.73610300000026" lon="-1.7408980000000074">
        <ele>731.803</ele>
        <time>2022-08-25T08:51:28Z</time>
      </trkpt>
      <trkpt lat="42.73609800000026" lon="-1.7409110000000074">
        <ele>731.823</ele>
        <time>2022-08-25T08:51:29Z</time>
      </trkpt>
      <trkpt lat="42.73609300000026" lon="-1.7409260000000075">
        <ele>732.009</ele>
        <time>2022-08-25T08:51:30Z</time>
      </trkpt>
      <trkpt lat="42.73608800000026" lon="-1.7409380000000074">
        <ele>732.226</ele>
        <time>2022-08-25T08:51:31Z</time>
      </trkpt>
      <trkpt lat="42.73608500000026" lon="-1.7409440000000074">
        <ele>732.276</ele>
        <time>2022-08-25T08:51:32Z</time>
      </trkpt>
      <trkpt lat="42.73608500000026" lon="-1.7409440000000074">
        <ele>732.476</ele>
        <time>2022-08-25T08:51:33Z</time>
      </trkpt>
      <trkpt lat="42.73608500000026" lon="-1.7409440000000074">
        <ele>734.612</ele>
        <time>2022-08-25T08:52:06Z</time>
      </trkpt>
      <trkpt lat="42.73608500000026" lon="-1.7409440000000074">
        <ele>734.624</ele>
        <time>2022-08-25T08:52:07Z</time>
      </trkpt>
      <trkpt lat="42.73608500000026" lon="-1.7409440000000074">
        <ele>734.851</ele>
        <time>2022-08-25T08:52:09Z</time>
      </trkpt>
      <trkpt lat="42.73608500000026" lon="-1.7409440000000074">
        <ele>734.834</ele>
        <time>2022-08-25T08:52:10Z</time>
      </trkpt>
      <trkpt lat="42.73606800000026" lon="-1.7409890000000074">
        <ele>735.650</ele>
        <time>2022-08-25T08:52:22Z</time>
      </trkpt>
      <trkpt lat="42.73606800000026" lon="-1.7409920000000074">
        <ele>735.651</ele>
        <time>2022-08-25T08:52:23Z</time>
      </trkpt>
      <trkpt lat="42.73606800000026" lon="-1.7409960000000073">
        <ele>735.879</ele>
        <time>2022-08-25T08:52:24Z</time>
      </trkpt>
      <trkpt lat="42.73606700000026" lon="-1.7410000000000072">
        <ele>735.805</ele>
        <time>2022-08-25T08:52:25Z</time>
      </trkpt>
      <trkpt lat="42.736060000000265" lon="-1.7410400000000072">
        <ele>736.625</ele>
        <time>2022-08-25T08:52:30Z</time>
      </trkpt>
      <trkpt lat="42.73605900000027" lon="-1.7410520000000071">
        <ele>736.809</ele>
        <time>2022-08-25T08:52:32Z</time>
      </trkpt>
      <trkpt lat="42.73605800000027" lon="-1.7410620000000072">
        <ele>737.078</ele>
        <time>2022-08-25T08:52:33Z</time>
      </trkpt>
      <trkpt lat="42.73605800000027" lon="-1.7410710000000071">
        <ele>737.098</ele>
        <time>2022-08-25T08:52:34Z</time>
      </trkpt>
      <trkpt lat="42.73605700000027" lon="-1.7410790000000071">
        <ele>737.248</ele>
        <time>2022-08-25T08:52:35Z</time>
      </trkpt>
      <trkpt lat="42.73605700000027" lon="-1.7410870000000072">
        <ele>737.214</ele>
        <time>2022-08-25T08:52:36Z</time>
      </trkpt>
      <trkpt lat="42.73605700000027" lon="-1.7410940000000072">
        <ele>737.436</ele>
        <time>2022-08-25T08:52:37Z</time>
      </trkpt>
      <trkpt lat="42.73605100000027" lon="-1.7411270000000072">
        <ele>737.853</ele>
        <time>2022-08-25T08:52:41Z</time>
      </trkpt>
      <trkpt lat="42.736048000000274" lon="-1.7411370000000073">
        <ele>737.886</ele>
        <time>2022-08-25T08:52:42Z</time>
      </trkpt>
      <trkpt lat="42.736047000000276" lon="-1.7411460000000072">
        <ele>738.042</ele>
        <time>2022-08-25T08:52:43Z</time>
      </trkpt>
      <trkpt lat="42.73604600000028" lon="-1.7411530000000073">
        <ele>738.223</ele>
        <time>2022-08-25T08:52:44Z</time>
      </trkpt>
      <trkpt lat="42.73604100000028" lon="-1.7411670000000072">
        <ele>738.486</ele>
        <time>2022-08-25T08:52:45Z</time>
      </trkpt>
      <trkpt lat="42.73603700000028" lon="-1.7411830000000073">
        <ele>738.660</ele>
        <time>2022-08-25T08:52:46Z</time>
      </trkpt>
      <trkpt lat="42.73603300000028" lon="-1.7411970000000072">
        <ele>738.626</ele>
        <time>2022-08-25T08:52:47Z</time>
      </trkpt>
      <trkpt lat="42.736029000000286" lon="-1.7412150000000073">
        <ele>738.809</ele>
        <time>2022-08-25T08:52:48Z</time>
      </trkpt>
      <trkpt lat="42.736024000000285" lon="-1.7412320000000072">
        <ele>739.069</ele>
        <time>2022-08-25T08:52:49Z</time>
      </trkpt>
      <trkpt lat="42.736018000000286" lon="-1.7412500000000073">
        <ele>739.089</ele>
        <time>2022-08-25T08:52:50Z</time>
      </trkpt>
      <trkpt lat="42.73601200000029" lon="-1.7412710000000073">
        <ele>739.239</ele>
        <time>2022-08-25T08:52:51Z</time>
      </trkpt>
      <trkpt lat="42.736007000000285" lon="-1.7412910000000072">
        <ele>739.285</ele>
        <time>2022-08-25T08:52:52Z</time>
      </trkpt>
      <trkpt lat="42.73600200000028" lon="-1.7413080000000072">
        <ele>739.467</ele>
        <time>2022-08-25T08:52:53Z</time>
      </trkpt>
      <trkpt lat="42.735998000000286" lon="-1.7413210000000072">
        <ele>739.484</ele>
        <time>2022-08-25T08:52:54Z</time>
      </trkpt>
      <trkpt lat="42.73599500000029" lon="-1.7413240000000072">
        <ele>739.687</ele>
        <time>2022-08-25T08:52:55Z</time>
      </trkpt>
      <trkpt lat="42.73599400000029" lon="-1.7413270000000072">
        <ele>739.643</ele>
        <time>2022-08-25T08:52:56Z</time>
      </trkpt>
      <trkpt lat="42.73599400000029" lon="-1.7413270000000072">
        <ele>739.674</ele>
        <time>2022-08-25T08:52:57Z</time>
      </trkpt>
      <trkpt lat="42.73599400000029" lon="-1.7413270000000072">
        <ele>739.827</ele>
        <time>2022-08-25T08:52:58Z</time>
      </trkpt>
      <trkpt lat="42.73599400000029" lon="-1.7413270000000072">
        <ele>739.868</ele>
        <time>2022-08-25T08:53:00Z</time>
      </trkpt>
      <trkpt lat="42.73599400000029" lon="-1.7413270000000072">
        <ele>740.014</ele>
        <time>2022-08-25T08:53:01Z</time>
      </trkpt>
      <trkpt lat="42.73599400000029" lon="-1.7413270000000072">
        <ele>740.009</ele>
        <time>2022-08-25T08:53:02Z</time>
      </trkpt>
      <trkpt lat="42.73599400000029" lon="-1.7413270000000072">
        <ele>740.033</ele>
        <time>2022-08-25T08:53:03Z</time>
      </trkpt>
      <trkpt lat="42.73599400000029" lon="-1.7413270000000072">
        <ele>740.263</ele>
        <time>2022-08-25T08:53:04Z</time>
      </trkpt>
      <trkpt lat="42.73599400000029" lon="-1.7413270000000072">
        <ele>740.293</ele>
        <time>2022-08-25T08:53:05Z</time>
      </trkpt>
      <trkpt lat="42.73599400000029" lon="-1.7413270000000072">
        <ele>740.279</ele>
        <time>2022-08-25T08:53:06Z</time>
      </trkpt>
      <trkpt lat="42.73599400000029" lon="-1.7413270000000072">
        <ele>740.421</ele>
        <time>2022-08-25T08:53:07Z</time>
      </trkpt>
      <trkpt lat="42.73599400000029" lon="-1.7413270000000072">
        <ele>740.478</ele>
        <time>2022-08-25T08:53:08Z</time>
      </trkpt>
      <trkpt lat="42.73599400000029" lon="-1.7413270000000072">
        <ele>741.051</ele>
        <time>2022-08-25T08:53:12Z</time>
      </trkpt>
      <trkpt lat="42.73599400000029" lon="-1.7413270000000072">
        <ele>741.087</ele>
        <time>2022-08-25T08:53:13Z</time>
      </trkpt>
      <trkpt lat="42.73599400000029" lon="-1.741339000000007">
        <ele>741.468</ele>
        <time>2022-08-25T08:53:16Z</time>
      </trkpt>
      <trkpt lat="42.73597300000029" lon="-1.741437000000007">
        <ele>742.881</ele>
        <time>2022-08-25T08:53:31Z</time>
      </trkpt>
      <trkpt lat="42.735972000000295" lon="-1.741441000000007">
        <ele>742.861</ele>
        <time>2022-08-25T08:53:32Z</time>
      </trkpt>
      <trkpt lat="42.735969000000296" lon="-1.741449000000007">
        <ele>742.817</ele>
        <time>2022-08-25T08:53:33Z</time>
      </trkpt>
      <trkpt lat="42.735969000000296" lon="-1.741449000000007">
        <ele>743.009</ele>
        <time>2022-08-25T08:53:34Z</time>
      </trkpt>
      <trkpt lat="42.735969000000296" lon="-1.741449000000007">
        <ele>743.039</ele>
        <time>2022-08-25T08:53:35Z</time>
      </trkpt>
      <trkpt lat="42.735969000000296" lon="-1.741449000000007">
        <ele>743.099</ele>
        <time>2022-08-25T08:53:36Z</time>
      </trkpt>
      <trkpt lat="42.735969000000296" lon="-1.741449000000007">
        <ele>743.259</ele>
        <time>2022-08-25T08:53:37Z</time>
      </trkpt>
      <trkpt lat="42.735969000000296" lon="-1.741449000000007">
        <ele>743.225</ele>
        <time>2022-08-25T08:53:39Z</time>
      </trkpt>
      <trkpt lat="42.735969000000296" lon="-1.741449000000007">
        <ele>743.237</ele>
        <time>2022-08-25T08:53:40Z</time>
      </trkpt>
      <trkpt lat="42.7359680000003" lon="-1.741457000000007">
        <ele>743.424</ele>
        <time>2022-08-25T08:53:41Z</time>
      </trkpt>
      <trkpt lat="42.7359590000003" lon="-1.7415250000000069">
        <ele>743.447</ele>
        <time>2022-08-25T08:53:44Z</time>
      </trkpt>
      <trkpt lat="42.7359550000003" lon="-1.7415770000000068">
        <ele>743.493</ele>
        <time>2022-08-25T08:53:46Z</time>
      </trkpt>
      <trkpt lat="42.7359550000003" lon="-1.7416210000000067">
        <ele>743.674</ele>
        <time>2022-08-25T08:53:48Z</time>
      </trkpt>
      <trkpt lat="42.7359520000003" lon="-1.7416410000000067">
        <ele>743.845</ele>
        <time>2022-08-25T08:53:49Z</time>
      </trkpt>
      <trkpt lat="42.7359490000003" lon="-1.7416570000000067">
        <ele>743.847</ele>
        <time>2022-08-25T08:53:50Z</time>
      </trkpt>
      <trkpt lat="42.735946000000304" lon="-1.7416670000000067">
        <ele>744.011</ele>
        <time>2022-08-25T08:53:51Z</time>
      </trkpt>
      <trkpt lat="42.7359410000003" lon="-1.7416840000000067">
        <ele>744.009</ele>
        <time>2022-08-25T08:53:52Z</time>
      </trkpt>
      <trkpt lat="42.7359390000003" lon="-1.7416980000000066">
        <ele>744.015</ele>
        <time>2022-08-25T08:53:53Z</time>
      </trkpt>
      <trkpt lat="42.7359350000003" lon="-1.7417050000000067">
        <ele>744.055</ele>
        <time>2022-08-25T08:53:54Z</time>
      </trkpt>
      <trkpt lat="42.735932000000304" lon="-1.7417120000000068">
        <ele>744.245</ele>
        <time>2022-08-25T08:53:55Z</time>
      </trkpt>
      <trkpt lat="42.735926000000305" lon="-1.7417200000000068">
        <ele>744.461</ele>
        <time>2022-08-25T08:53:56Z</time>
      </trkpt>
      <trkpt lat="42.73591900000031" lon="-1.7417360000000068">
        <ele>744.893</ele>
        <time>2022-08-25T08:53:59Z</time>
      </trkpt>
      <trkpt lat="42.73591600000031" lon="-1.7417440000000068">
        <ele>745.090</ele>
        <time>2022-08-25T08:54:00Z</time>
      </trkpt>
      <trkpt lat="42.73591300000031" lon="-1.741759000000007">
        <ele>745.233</ele>
        <time>2022-08-25T08:54:02Z</time>
      </trkpt>
      <trkpt lat="42.73591200000031" lon="-1.741767000000007">
        <ele>745.449</ele>
        <time>2022-08-25T08:54:03Z</time>
      </trkpt>
      <trkpt lat="42.735905000000315" lon="-1.741812000000007">
        <ele>746.050</ele>
        <time>2022-08-25T08:54:10Z</time>
      </trkpt>
      <trkpt lat="42.73590400000032" lon="-1.741817000000007">
        <ele>746.266</ele>
        <time>2022-08-25T08:54:11Z</time>
      </trkpt>
      <trkpt lat="42.73590400000032" lon="-1.741817000000007">
        <ele>746.629</ele>
        <time>2022-08-25T08:54:14Z</time>
      </trkpt>
      <trkpt lat="42.73590400000032" lon="-1.741817000000007">
        <ele>746.821</ele>
        <time>2022-08-25T08:54:15Z</time>
      </trkpt>
      <trkpt lat="42.73590400000032" lon="-1.741817000000007">
        <ele>747.209</ele>
        <time>2022-08-25T08:54:27Z</time>
      </trkpt>
      <trkpt lat="42.73590400000032" lon="-1.741817000000007">
        <ele>748.457</ele>
        <time>2022-08-25T08:54:33Z</time>
      </trkpt>
      <trkpt lat="42.73590400000032" lon="-1.741817000000007">
        <ele>748.647</ele>
        <time>2022-08-25T08:54:35Z</time>
      </trkpt>
      <trkpt lat="42.73590300000032" lon="-1.741828000000007">
        <ele>749.077</ele>
        <time>2022-08-25T08:54:38Z</time>
      </trkpt>
      <trkpt lat="42.73589400000032" lon="-1.741895000000007">
        <ele>749.263</ele>
        <time>2022-08-25T08:54:45Z</time>
      </trkpt>
      <trkpt lat="42.73589100000032" lon="-1.741920000000007">
        <ele>749.285</ele>
        <time>2022-08-25T08:54:46Z</time>
      </trkpt>
      <trkpt lat="42.73588600000032" lon="-1.741946000000007">
        <ele>749.222</ele>
        <time>2022-08-25T08:54:47Z</time>
      </trkpt>
      <trkpt lat="42.73586300000032" lon="-1.7421290000000071">
        <ele>749.685</ele>
        <time>2022-08-25T08:54:54Z</time>
      </trkpt>
      <trkpt lat="42.73586100000032" lon="-1.7421440000000072">
        <ele>749.861</ele>
        <time>2022-08-25T08:54:55Z</time>
      </trkpt>
      <trkpt lat="42.73585900000032" lon="-1.7421600000000073">
        <ele>750.282</ele>
        <time>2022-08-25T08:54:56Z</time>
      </trkpt>
      <trkpt lat="42.735857000000316" lon="-1.7421730000000073">
        <ele>750.275</ele>
        <time>2022-08-25T08:54:57Z</time>
      </trkpt>
      <trkpt lat="42.73585600000032" lon="-1.7421850000000072">
        <ele>750.428</ele>
        <time>2022-08-25T08:54:58Z</time>
      </trkpt>
      <trkpt lat="42.735854000000316" lon="-1.742197000000007">
        <ele>750.620</ele>
        <time>2022-08-25T08:54:59Z</time>
      </trkpt>
      <trkpt lat="42.735854000000316" lon="-1.7422040000000072">
        <ele>750.609</ele>
        <time>2022-08-25T08:55:00Z</time>
      </trkpt>
      <trkpt lat="42.735852000000314" lon="-1.7422190000000073">
        <ele>750.668</ele>
        <time>2022-08-25T08:55:01Z</time>
      </trkpt>
      <trkpt lat="42.735849000000314" lon="-1.7422310000000072">
        <ele>750.858</ele>
        <time>2022-08-25T08:55:02Z</time>
      </trkpt>
      <trkpt lat="42.735846000000315" lon="-1.7422640000000071">
        <ele>751.468</ele>
        <time>2022-08-25T08:55:05Z</time>
      </trkpt>
      <trkpt lat="42.73584700000031" lon="-1.742276000000007">
        <ele>752.084</ele>
        <time>2022-08-25T08:55:06Z</time>
      </trkpt>
      <trkpt lat="42.735846000000315" lon="-1.742288000000007">
        <ele>752.016</ele>
        <time>2022-08-25T08:55:07Z</time>
      </trkpt>
      <trkpt lat="42.735846000000315" lon="-1.7423000000000068">
        <ele>752.413</ele>
        <time>2022-08-25T08:55:08Z</time>
      </trkpt>
      <trkpt lat="42.73584200000032" lon="-1.7423120000000067">
        <ele>752.666</ele>
        <time>2022-08-25T08:55:09Z</time>
      </trkpt>
      <trkpt lat="42.735837000000316" lon="-1.7423260000000067">
        <ele>752.832</ele>
        <time>2022-08-25T08:55:10Z</time>
      </trkpt>
      <trkpt lat="42.73583600000032" lon="-1.7423360000000068">
        <ele>752.833</ele>
        <time>2022-08-25T08:55:11Z</time>
      </trkpt>
      <trkpt lat="42.735837000000316" lon="-1.7423450000000067">
        <ele>753.084</ele>
        <time>2022-08-25T08:55:12Z</time>
      </trkpt>
      <trkpt lat="42.735837000000316" lon="-1.7423600000000068">
        <ele>753.007</ele>
        <time>2022-08-25T08:55:13Z</time>
      </trkpt>
      <trkpt lat="42.735837000000316" lon="-1.7423690000000067">
        <ele>753.017</ele>
        <time>2022-08-25T08:55:14Z</time>
      </trkpt>
      <trkpt lat="42.735837000000316" lon="-1.7423780000000066">
        <ele>753.209</ele>
        <time>2022-08-25T08:55:15Z</time>
      </trkpt>
      <trkpt lat="42.735837000000316" lon="-1.7423860000000067">
        <ele>753.299</ele>
        <time>2022-08-25T08:55:16Z</time>
      </trkpt>
      <trkpt lat="42.735837000000316" lon="-1.7423910000000067">
        <ele>753.229</ele>
        <time>2022-08-25T08:55:17Z</time>
      </trkpt>
      <trkpt lat="42.73583600000032" lon="-1.7423940000000067">
        <ele>753.289</ele>
        <time>2022-08-25T08:55:18Z</time>
      </trkpt>
      <trkpt lat="42.73583400000032" lon="-1.7424000000000066">
        <ele>753.265</ele>
        <time>2022-08-25T08:55:19Z</time>
      </trkpt>
      <trkpt lat="42.735832000000315" lon="-1.7424020000000067">
        <ele>753.277</ele>
        <time>2022-08-25T08:55:20Z</time>
      </trkpt>
      <trkpt lat="42.73583100000032" lon="-1.7424070000000067">
        <ele>753.264</ele>
        <time>2022-08-25T08:55:21Z</time>
      </trkpt>
      <trkpt lat="42.73583100000032" lon="-1.7424120000000067">
        <ele>753.227</ele>
        <time>2022-08-25T08:55:22Z</time>
      </trkpt>
      <trkpt lat="42.735832000000315" lon="-1.7424150000000067">
        <ele>752.833</ele>
        <time>2022-08-25T08:55:59Z</time>
      </trkpt>
      <trkpt lat="42.73582500000032" lon="-1.7424830000000067">
        <ele>752.814</ele>
        <time>2022-08-25T08:56:02Z</time>
      </trkpt>
      <trkpt lat="42.73581300000032" lon="-1.7425210000000066">
        <ele>752.811</ele>
        <time>2022-08-25T08:56:04Z</time>
      </trkpt>
      <trkpt lat="42.73580500000032" lon="-1.7425330000000065">
        <ele>752.621</ele>
        <time>2022-08-25T08:56:05Z</time>
      </trkpt>
      <trkpt lat="42.73580200000032" lon="-1.7425390000000065">
        <ele>752.603</ele>
        <time>2022-08-25T08:56:06Z</time>
      </trkpt>
      <trkpt lat="42.73580800000032" lon="-1.7425570000000066">
        <ele>752.409</ele>
        <time>2022-08-25T08:56:09Z</time>
      </trkpt>
      <trkpt lat="42.735809000000316" lon="-1.7425620000000066">
        <ele>752.462</ele>
        <time>2022-08-25T08:56:10Z</time>
      </trkpt>
      <trkpt lat="42.735837000000316" lon="-1.7425790000000065">
        <ele>752.082</ele>
        <time>2022-08-25T08:56:20Z</time>
      </trkpt>
      <trkpt lat="42.73584200000032" lon="-1.7425960000000065">
        <ele>751.672</ele>
        <time>2022-08-25T08:56:24Z</time>
      </trkpt>
      <trkpt lat="42.73585300000032" lon="-1.7426280000000065">
        <ele>751.628</ele>
        <time>2022-08-25T08:57:58Z</time>
      </trkpt>
      <trkpt lat="42.735809000000316" lon="-1.7426370000000064">
        <ele>750.840</ele>
        <time>2022-08-25T08:58:03Z</time>
      </trkpt>
      <trkpt lat="42.73580200000032" lon="-1.7426350000000064">
        <ele>750.667</ele>
        <time>2022-08-25T08:58:04Z</time>
      </trkpt>
      <trkpt lat="42.73579800000032" lon="-1.7426360000000063">
        <ele>750.460</ele>
        <time>2022-08-25T08:58:05Z</time>
      </trkpt>
      <trkpt lat="42.73579800000032" lon="-1.7426390000000063">
        <ele>750.236</ele>
        <time>2022-08-25T08:58:08Z</time>
      </trkpt>
      <trkpt lat="42.73581000000032" lon="-1.7426400000000062">
        <ele>750.077</ele>
        <time>2022-08-25T08:58:11Z</time>
      </trkpt>
      <trkpt lat="42.73581400000032" lon="-1.7426400000000062">
        <ele>750.247</ele>
        <time>2022-08-25T08:58:12Z</time>
      </trkpt>
      <trkpt lat="42.735812000000315" lon="-1.7426770000000062">
        <ele>749.629</ele>
        <time>2022-08-25T09:01:07Z</time>
      </trkpt>
      <trkpt lat="42.735776000000314" lon="-1.7426870000000063">
        <ele>749.621</ele>
        <time>2022-08-25T09:01:10Z</time>
      </trkpt>
      <trkpt lat="42.73575100000031" lon="-1.7426690000000062">
        <ele>749.609</ele>
        <time>2022-08-25T09:01:13Z</time>
      </trkpt>
      <trkpt lat="42.735742000000315" lon="-1.7426610000000062">
        <ele>749.665</ele>
        <time>2022-08-25T09:01:14Z</time>
      </trkpt>
      <trkpt lat="42.73573700000031" lon="-1.7426530000000062">
        <ele>749.675</ele>
        <time>2022-08-25T09:01:15Z</time>
      </trkpt>
      <trkpt lat="42.735730000000316" lon="-1.7426440000000063">
        <ele>749.445</ele>
        <time>2022-08-25T09:01:16Z</time>
      </trkpt>
      <trkpt lat="42.735725000000315" lon="-1.7426390000000063">
        <ele>749.451</ele>
        <time>2022-08-25T09:01:17Z</time>
      </trkpt>
      <trkpt lat="42.73570600000031" lon="-1.7426400000000062">
        <ele>749.413</ele>
        <time>2022-08-25T09:01:19Z</time>
      </trkpt>
      <trkpt lat="42.735686000000314" lon="-1.7426810000000061">
        <ele>748.880</ele>
        <time>2022-08-25T09:01:36Z</time>
      </trkpt>
      <trkpt lat="42.735702000000316" lon="-1.742733000000006">
        <ele>748.823</ele>
        <time>2022-08-25T09:01:38Z</time>
      </trkpt>
      <trkpt lat="42.735742000000315" lon="-1.742969000000006">
        <ele>749.279</ele>
        <time>2022-08-25T09:01:44Z</time>
      </trkpt>
      <trkpt lat="42.73579100000031" lon="-1.743299000000006">
        <ele>748.850</ele>
        <time>2022-08-25T09:01:51Z</time>
      </trkpt>
      <trkpt lat="42.73579800000031" lon="-1.7433670000000059">
        <ele>748.662</ele>
        <time>2022-08-25T09:01:52Z</time>
      </trkpt>
      <trkpt lat="42.73580700000031" lon="-1.7434790000000058">
        <ele>748.483</ele>
        <time>2022-08-25T09:01:54Z</time>
      </trkpt>
      <trkpt lat="42.735842000000304" lon="-1.7436360000000057">
        <ele>748.011</ele>
        <time>2022-08-25T09:01:57Z</time>
      </trkpt>
      <trkpt lat="42.7358590000003" lon="-1.7437010000000057">
        <ele>747.809</ele>
        <time>2022-08-25T09:01:58Z</time>
      </trkpt>
      <trkpt lat="42.7358790000003" lon="-1.7438010000000057">
        <ele>747.637</ele>
        <time>2022-08-25T09:02:00Z</time>
      </trkpt>
      <trkpt lat="42.735915000000304" lon="-1.7441010000000057">
        <ele>746.857</ele>
        <time>2022-08-25T09:02:05Z</time>
      </trkpt>
      <trkpt lat="42.73592800000031" lon="-1.7442400000000056">
        <ele>746.617</ele>
        <time>2022-08-25T09:02:07Z</time>
      </trkpt>
      <trkpt lat="42.73598700000031" lon="-1.7446170000000056">
        <ele>746.013</ele>
        <time>2022-08-25T09:02:13Z</time>
      </trkpt>
      <trkpt lat="42.73599500000031" lon="-1.7447500000000056">
        <ele>745.485</ele>
        <time>2022-08-25T09:02:15Z</time>
      </trkpt>
      <trkpt lat="42.73603500000031" lon="-1.7450420000000055">
        <ele>745.052</ele>
        <time>2022-08-25T09:02:19Z</time>
      </trkpt>
      <trkpt lat="42.73609000000031" lon="-1.7454090000000055">
        <ele>744.655</ele>
        <time>2022-08-25T09:02:24Z</time>
      </trkpt>
      <trkpt lat="42.73613000000031" lon="-1.7458020000000056">
        <ele>743.851</ele>
        <time>2022-08-25T09:02:29Z</time>
      </trkpt>
      <trkpt lat="42.73614100000031" lon="-1.7458800000000056">
        <ele>743.422</ele>
        <time>2022-08-25T09:02:30Z</time>
      </trkpt>
      <trkpt lat="42.73616500000031" lon="-1.7463730000000057">
        <ele>741.853</ele>
        <time>2022-08-25T09:02:36Z</time>
      </trkpt>
      <trkpt lat="42.73616600000031" lon="-1.7464430000000057">
        <ele>741.604</ele>
        <time>2022-08-25T09:02:37Z</time>
      </trkpt>
      <trkpt lat="42.73616300000031" lon="-1.7471130000000057">
        <ele>740.814</ele>
        <time>2022-08-25T09:02:44Z</time>
      </trkpt>
      <trkpt lat="42.73622300000031" lon="-1.7477350000000056">
        <ele>739.609</ele>
        <time>2022-08-25T09:02:50Z</time>
      </trkpt>
      <trkpt lat="42.73636700000031" lon="-1.7482580000000056">
        <ele>738.466</ele>
        <time>2022-08-25T09:02:55Z</time>
      </trkpt>
      <trkpt lat="42.73643900000031" lon="-1.7484300000000057">
        <ele>737.496</ele>
        <time>2022-08-25T09:02:57Z</time>
      </trkpt>
      <trkpt lat="42.73661500000031" lon="-1.7488040000000058">
        <ele>736.426</ele>
        <time>2022-08-25T09:03:01Z</time>
      </trkpt>
      <trkpt lat="42.73665800000031" lon="-1.7488980000000058">
        <ele>736.022</ele>
        <time>2022-08-25T09:03:02Z</time>
      </trkpt>
      <trkpt lat="42.73670900000031" lon="-1.749008000000006">
        <ele>736.084</ele>
        <time>2022-08-25T09:03:03Z</time>
      </trkpt>
      <trkpt lat="42.73675300000031" lon="-1.749099000000006">
        <ele>735.861</ele>
        <time>2022-08-25T09:03:04Z</time>
      </trkpt>
      <trkpt lat="42.73686900000031" lon="-1.749356000000006">
        <ele>735.274</ele>
        <time>2022-08-25T09:03:07Z</time>
      </trkpt>
      <trkpt lat="42.73692000000031" lon="-1.749463000000006">
        <ele>734.820</ele>
        <time>2022-08-25T09:03:08Z</time>
      </trkpt>
      <trkpt lat="42.73703500000031" lon="-1.749713000000006">
        <ele>734.631</ele>
        <time>2022-08-25T09:03:11Z</time>
      </trkpt>
      <trkpt lat="42.73712200000031" lon="-1.749910000000006">
        <ele>734.296</ele>
        <time>2022-08-25T09:03:13Z</time>
      </trkpt>
      <trkpt lat="42.73715900000031" lon="-1.749999000000006">
        <ele>734.231</ele>
        <time>2022-08-25T09:03:14Z</time>
      </trkpt>
      <trkpt lat="42.73718800000031" lon="-1.750070000000006">
        <ele>733.824</ele>
        <time>2022-08-25T09:03:15Z</time>
      </trkpt>
      <trkpt lat="42.73722200000031" lon="-1.750157000000006">
        <ele>733.609</ele>
        <time>2022-08-25T09:03:16Z</time>
      </trkpt>
      <trkpt lat="42.73726200000031" lon="-1.750260000000006">
        <ele>733.440</ele>
        <time>2022-08-25T09:03:17Z</time>
      </trkpt>
      <trkpt lat="42.73729200000031" lon="-1.750343000000006">
        <ele>733.480</ele>
        <time>2022-08-25T09:03:18Z</time>
      </trkpt>
      <trkpt lat="42.73732200000031" lon="-1.750427000000006">
        <ele>733.410</ele>
        <time>2022-08-25T09:03:19Z</time>
      </trkpt>
      <trkpt lat="42.737346000000315" lon="-1.750492000000006">
        <ele>733.426</ele>
        <time>2022-08-25T09:03:20Z</time>
      </trkpt>
      <trkpt lat="42.737374000000315" lon="-1.7505740000000058">
        <ele>733.468</ele>
        <time>2022-08-25T09:03:21Z</time>
      </trkpt>
      <trkpt lat="42.73740600000031" lon="-1.7506720000000058">
        <ele>733.285</ele>
        <time>2022-08-25T09:03:22Z</time>
      </trkpt>
      <trkpt lat="42.737428000000314" lon="-1.7507560000000058">
        <ele>733.258</ele>
        <time>2022-08-25T09:03:23Z</time>
      </trkpt>
      <trkpt lat="42.737450000000315" lon="-1.7508390000000058">
        <ele>733.284</ele>
        <time>2022-08-25T09:03:24Z</time>
      </trkpt>
      <trkpt lat="42.73748800000032" lon="-1.7509920000000059">
        <ele>733.255</ele>
        <time>2022-08-25T09:03:26Z</time>
      </trkpt>
      <trkpt lat="42.737540000000315" lon="-1.7512540000000059">
        <ele>733.028</ele>
        <time>2022-08-25T09:03:29Z</time>
      </trkpt>
      <trkpt lat="42.73755900000032" lon="-1.7513390000000058">
        <ele>732.889</ele>
        <time>2022-08-25T09:03:30Z</time>
      </trkpt>
      <trkpt lat="42.73758600000032" lon="-1.7515300000000058">
        <ele>732.617</ele>
        <time>2022-08-25T09:03:32Z</time>
      </trkpt>
      <trkpt lat="42.73760100000032" lon="-1.7516110000000058">
        <ele>732.409</ele>
        <time>2022-08-25T09:03:33Z</time>
      </trkpt>
      <trkpt lat="42.73761200000032" lon="-1.751672000000006">
        <ele>732.443</ele>
        <time>2022-08-25T09:03:34Z</time>
      </trkpt>
      <trkpt lat="42.73762200000032" lon="-1.7517480000000059">
        <ele>732.473</ele>
        <time>2022-08-25T09:03:35Z</time>
      </trkpt>
      <trkpt lat="42.73764300000032" lon="-1.751836000000006">
        <ele>732.433</ele>
        <time>2022-08-25T09:03:36Z</time>
      </trkpt>
      <trkpt lat="42.737661000000315" lon="-1.7519070000000059">
        <ele>732.449</ele>
        <time>2022-08-25T09:03:37Z</time>
      </trkpt>
      <trkpt lat="42.737715000000314" lon="-1.752106000000006">
        <ele>732.481</ele>
        <time>2022-08-25T09:03:40Z</time>
      </trkpt>
      <trkpt lat="42.73773600000031" lon="-1.752189000000006">
        <ele>732.428</ele>
        <time>2022-08-25T09:03:41Z</time>
      </trkpt>
      <trkpt lat="42.73775500000031" lon="-1.752255000000006">
        <ele>732.241</ele>
        <time>2022-08-25T09:03:42Z</time>
      </trkpt>
      <trkpt lat="42.737774000000314" lon="-1.752316000000006">
        <ele>732.287</ele>
        <time>2022-08-25T09:03:43Z</time>
      </trkpt>
      <trkpt lat="42.73778600000031" lon="-1.752364000000006">
        <ele>732.218</ele>
        <time>2022-08-25T09:03:44Z</time>
      </trkpt>
      <trkpt lat="42.73780100000031" lon="-1.752421000000006">
        <ele>732.236</ele>
        <time>2022-08-25T09:03:45Z</time>
      </trkpt>
      <trkpt lat="42.73781900000031" lon="-1.752491000000006">
        <ele>732.217</ele>
        <time>2022-08-25T09:03:46Z</time>
      </trkpt>
      <trkpt lat="42.737845000000306" lon="-1.752611000000006">
        <ele>732.018</ele>
        <time>2022-08-25T09:03:48Z</time>
      </trkpt>
      <trkpt lat="42.73785500000031" lon="-1.7526550000000058">
        <ele>731.809</ele>
        <time>2022-08-25T09:03:49Z</time>
      </trkpt>
      <trkpt lat="42.73786800000031" lon="-1.7527120000000058">
        <ele>731.814</ele>
        <time>2022-08-25T09:03:50Z</time>
      </trkpt>
      <trkpt lat="42.73789900000031" lon="-1.7528390000000058">
        <ele>731.884</ele>
        <time>2022-08-25T09:03:52Z</time>
      </trkpt>
      <trkpt lat="42.737968000000315" lon="-1.7531440000000058">
        <ele>731.014</ele>
        <time>2022-08-25T09:03:57Z</time>
      </trkpt>
      <trkpt lat="42.73798000000031" lon="-1.7531950000000058">
        <ele>730.480</ele>
        <time>2022-08-25T09:03:58Z</time>
      </trkpt>
      <trkpt lat="42.73801100000031" lon="-1.7533440000000058">
        <ele>729.482</ele>
        <time>2022-08-25T09:04:00Z</time>
      </trkpt>
      <trkpt lat="42.738041000000315" lon="-1.7534850000000057">
        <ele>728.039</ele>
        <time>2022-08-25T09:04:02Z</time>
      </trkpt>
      <trkpt lat="42.738075000000315" lon="-1.7536080000000058">
        <ele>726.852</ele>
        <time>2022-08-25T09:04:04Z</time>
      </trkpt>
      <trkpt lat="42.73815000000032" lon="-1.7539080000000058">
        <ele>725.658</ele>
        <time>2022-08-25T09:04:08Z</time>
      </trkpt>
      <trkpt lat="42.738199000000314" lon="-1.7540940000000058">
        <ele>724.849</ele>
        <time>2022-08-25T09:04:10Z</time>
      </trkpt>
      <trkpt lat="42.738244000000314" lon="-1.7542560000000058">
        <ele>724.216</ele>
        <time>2022-08-25T09:04:12Z</time>
      </trkpt>
      <trkpt lat="42.73831900000032" lon="-1.7545700000000057">
        <ele>723.276</ele>
        <time>2022-08-25T09:04:15Z</time>
      </trkpt>
      <trkpt lat="42.738339000000316" lon="-1.7546760000000057">
        <ele>723.013</ele>
        <time>2022-08-25T09:04:16Z</time>
      </trkpt>
      <trkpt lat="42.73840200000031" lon="-1.7549900000000056">
        <ele>722.209</ele>
        <time>2022-08-25T09:04:19Z</time>
      </trkpt>
      <trkpt lat="42.73842500000031" lon="-1.7550850000000056">
        <ele>721.852</ele>
        <time>2022-08-25T09:04:20Z</time>
      </trkpt>
      <trkpt lat="42.738444000000314" lon="-1.7551590000000055">
        <ele>721.052</ele>
        <time>2022-08-25T09:04:21Z</time>
      </trkpt>
      <trkpt lat="42.73846700000031" lon="-1.7552510000000054">
        <ele>720.272</ele>
        <time>2022-08-25T09:04:22Z</time>
      </trkpt>
      <trkpt lat="42.738491000000316" lon="-1.7553580000000055">
        <ele>719.888</ele>
        <time>2022-08-25T09:04:23Z</time>
      </trkpt>
      <trkpt lat="42.738511000000315" lon="-1.7554420000000055">
        <ele>719.260</ele>
        <time>2022-08-25T09:04:24Z</time>
      </trkpt>
      <trkpt lat="42.73854700000032" lon="-1.7555980000000055">
        <ele>717.827</ele>
        <time>2022-08-25T09:04:26Z</time>
      </trkpt>
      <trkpt lat="42.73859200000032" lon="-1.7558020000000056">
        <ele>716.660</ele>
        <time>2022-08-25T09:04:28Z</time>
      </trkpt>
      <trkpt lat="42.73865600000032" lon="-1.7560830000000056">
        <ele>714.896</ele>
        <time>2022-08-25T09:04:31Z</time>
      </trkpt>
      <trkpt lat="42.73873500000032" lon="-1.7564180000000056">
        <ele>713.447</ele>
        <time>2022-08-25T09:04:34Z</time>
      </trkpt>
      <trkpt lat="42.73875800000032" lon="-1.7565270000000055">
        <ele>713.247</ele>
        <time>2022-08-25T09:04:35Z</time>
      </trkpt>
      <trkpt lat="42.73882700000032" lon="-1.7568360000000054">
        <ele>712.029</ele>
        <time>2022-08-25T09:04:38Z</time>
      </trkpt>
      <trkpt lat="42.73887100000032" lon="-1.7570680000000054">
        <ele>710.821</ele>
        <time>2022-08-25T09:04:40Z</time>
      </trkpt>
      <trkpt lat="42.73889700000032" lon="-1.7571820000000054">
        <ele>710.409</ele>
        <time>2022-08-25T09:04:41Z</time>
      </trkpt>
      <trkpt lat="42.73892500000032" lon="-1.7573200000000053">
        <ele>709.865</ele>
        <time>2022-08-25T09:04:42Z</time>
      </trkpt>
      <trkpt lat="42.73897500000032" lon="-1.7575510000000054">
        <ele>708.615</ele>
        <time>2022-08-25T09:04:44Z</time>
      </trkpt>
      <trkpt lat="42.739022000000325" lon="-1.7577580000000055">
        <ele>707.475</ele>
        <time>2022-08-25T09:04:46Z</time>
      </trkpt>
      <trkpt lat="42.739084000000325" lon="-1.7580060000000055">
        <ele>706.031</ele>
        <time>2022-08-25T09:04:48Z</time>
      </trkpt>
      <trkpt lat="42.73911100000033" lon="-1.7581170000000055">
        <ele>705.673</ele>
        <time>2022-08-25T09:04:49Z</time>
      </trkpt>
      <trkpt lat="42.73913100000033" lon="-1.7582060000000055">
        <ele>705.230</ele>
        <time>2022-08-25T09:04:50Z</time>
      </trkpt>
      <trkpt lat="42.73918600000033" lon="-1.7584520000000055">
        <ele>704.423</ele>
        <time>2022-08-25T09:04:52Z</time>
      </trkpt>
      <trkpt lat="42.73927000000033" lon="-1.7587730000000055">
        <ele>702.659</ele>
        <time>2022-08-25T09:04:55Z</time>
      </trkpt>
      <trkpt lat="42.73936700000033" lon="-1.7591490000000054">
        <ele>701.280</ele>
        <time>2022-08-25T09:04:58Z</time>
      </trkpt>
      <trkpt lat="42.739458000000326" lon="-1.7595040000000055">
        <ele>700.268</ele>
        <time>2022-08-25T09:05:01Z</time>
      </trkpt>
      <trkpt lat="42.73948200000033" lon="-1.7595950000000056">
        <ele>699.842</ele>
        <time>2022-08-25T09:05:02Z</time>
      </trkpt>
      <trkpt lat="42.73951800000033" lon="-1.7597330000000055">
        <ele>699.626</ele>
        <time>2022-08-25T09:05:03Z</time>
      </trkpt>
      <trkpt lat="42.739542000000334" lon="-1.7598240000000056">
        <ele>698.809</ele>
        <time>2022-08-25T09:05:04Z</time>
      </trkpt>
      <trkpt lat="42.73957200000034" lon="-1.7599390000000057">
        <ele>698.417</ele>
        <time>2022-08-25T09:05:05Z</time>
      </trkpt>
      <trkpt lat="42.739606000000336" lon="-1.7600770000000057">
        <ele>698.087</ele>
        <time>2022-08-25T09:05:06Z</time>
      </trkpt>
      <trkpt lat="42.73962700000033" lon="-1.7601690000000056">
        <ele>697.837</ele>
        <time>2022-08-25T09:05:07Z</time>
      </trkpt>
      <trkpt lat="42.73965800000033" lon="-1.7603030000000057">
        <ele>697.423</ele>
        <time>2022-08-25T09:05:08Z</time>
      </trkpt>
      <trkpt lat="42.739680000000334" lon="-1.7603900000000057">
        <ele>697.025</ele>
        <time>2022-08-25T09:05:09Z</time>
      </trkpt>
      <trkpt lat="42.73970700000034" lon="-1.7604960000000056">
        <ele>696.672</ele>
        <time>2022-08-25T09:05:10Z</time>
      </trkpt>
      <trkpt lat="42.73973800000034" lon="-1.7606230000000056">
        <ele>695.825</ele>
        <time>2022-08-25T09:05:11Z</time>
      </trkpt>
      <trkpt lat="42.739761000000335" lon="-1.7607310000000056">
        <ele>695.661</ele>
        <time>2022-08-25T09:05:12Z</time>
      </trkpt>
      <trkpt lat="42.73978500000034" lon="-1.7608370000000055">
        <ele>695.242</ele>
        <time>2022-08-25T09:05:13Z</time>
      </trkpt>
      <trkpt lat="42.73980500000034" lon="-1.7609210000000055">
        <ele>695.045</ele>
        <time>2022-08-25T09:05:14Z</time>
      </trkpt>
      <trkpt lat="42.73983300000034" lon="-1.7610240000000055">
        <ele>694.447</ele>
        <time>2022-08-25T09:05:15Z</time>
      </trkpt>
      <trkpt lat="42.739865000000336" lon="-1.7611480000000055">
        <ele>693.811</ele>
        <time>2022-08-25T09:05:16Z</time>
      </trkpt>
      <trkpt lat="42.73988900000034" lon="-1.7612480000000055">
        <ele>693.609</ele>
        <time>2022-08-25T09:05:17Z</time>
      </trkpt>
      <trkpt lat="42.73991200000034" lon="-1.7613480000000055">
        <ele>692.655</ele>
        <time>2022-08-25T09:05:18Z</time>
      </trkpt>
      <trkpt lat="42.73998500000034" lon="-1.7616570000000054">
        <ele>691.435</ele>
        <time>2022-08-25T09:05:21Z</time>
      </trkpt>
      <trkpt lat="42.740037000000335" lon="-1.7618410000000053">
        <ele>690.485</ele>
        <time>2022-08-25T09:05:23Z</time>
      </trkpt>
      <trkpt lat="42.74012800000033" lon="-1.7621730000000053">
        <ele>689.251</ele>
        <time>2022-08-25T09:05:26Z</time>
      </trkpt>
      <trkpt lat="42.74017300000033" lon="-1.7623670000000053">
        <ele>688.243</ele>
        <time>2022-08-25T09:05:28Z</time>
      </trkpt>
      <trkpt lat="42.74019900000033" lon="-1.7624740000000054">
        <ele>687.880</ele>
        <time>2022-08-25T09:05:29Z</time>
      </trkpt>
      <trkpt lat="42.74022900000033" lon="-1.7626060000000054">
        <ele>687.453</ele>
        <time>2022-08-25T09:05:30Z</time>
      </trkpt>
      <trkpt lat="42.74028000000033" lon="-1.7628300000000054">
        <ele>686.879</ele>
        <time>2022-08-25T09:05:32Z</time>
      </trkpt>
      <trkpt lat="42.74030100000033" lon="-1.7629180000000055">
        <ele>686.860</ele>
        <time>2022-08-25T09:05:33Z</time>
      </trkpt>
      <trkpt lat="42.74032400000033" lon="-1.7630260000000055">
        <ele>686.065</ele>
        <time>2022-08-25T09:05:34Z</time>
      </trkpt>
      <trkpt lat="42.74034800000033" lon="-1.7631560000000055">
        <ele>685.468</ele>
        <time>2022-08-25T09:05:35Z</time>
      </trkpt>
      <trkpt lat="42.740389000000334" lon="-1.7634600000000056">
        <ele>684.414</ele>
        <time>2022-08-25T09:05:38Z</time>
      </trkpt>
      <trkpt lat="42.740397000000335" lon="-1.7637090000000055">
        <ele>683.209</ele>
        <time>2022-08-25T09:05:40Z</time>
      </trkpt>
      <trkpt lat="42.740394000000336" lon="-1.7638220000000056">
        <ele>682.287</ele>
        <time>2022-08-25T09:05:41Z</time>
      </trkpt>
      <trkpt lat="42.74038700000034" lon="-1.7639100000000056">
        <ele>681.427</ele>
        <time>2022-08-25T09:05:42Z</time>
      </trkpt>
      <trkpt lat="42.74038000000034" lon="-1.7640110000000055">
        <ele>681.267</ele>
        <time>2022-08-25T09:05:43Z</time>
      </trkpt>
      <trkpt lat="42.740374000000344" lon="-1.7641050000000056">
        <ele>680.463</ele>
        <time>2022-08-25T09:05:44Z</time>
      </trkpt>
      <trkpt lat="42.740368000000345" lon="-1.7642110000000055">
        <ele>680.075</ele>
        <time>2022-08-25T09:05:45Z</time>
      </trkpt>
      <trkpt lat="42.74036100000035" lon="-1.7642850000000054">
        <ele>679.442</ele>
        <time>2022-08-25T09:05:46Z</time>
      </trkpt>
      <trkpt lat="42.74035300000035" lon="-1.7643410000000055">
        <ele>679.035</ele>
        <time>2022-08-25T09:05:47Z</time>
      </trkpt>
      <trkpt lat="42.740348000000346" lon="-1.7644070000000054">
        <ele>677.611</ele>
        <time>2022-08-25T09:05:48Z</time>
      </trkpt>
      <trkpt lat="42.740345000000346" lon="-1.7644780000000053">
        <ele>676.282</ele>
        <time>2022-08-25T09:05:49Z</time>
      </trkpt>
      <trkpt lat="42.74034400000035" lon="-1.7645170000000052">
        <ele>675.875</ele>
        <time>2022-08-25T09:05:50Z</time>
      </trkpt>
      <trkpt lat="42.74034600000035" lon="-1.7645710000000052">
        <ele>675.228</ele>
        <time>2022-08-25T09:05:51Z</time>
      </trkpt>
      <trkpt lat="42.74034900000035" lon="-1.7646050000000053">
        <ele>675.020</ele>
        <time>2022-08-25T09:05:52Z</time>
      </trkpt>
      <trkpt lat="42.74034900000035" lon="-1.7646420000000054">
        <ele>674.609</ele>
        <time>2022-08-25T09:05:53Z</time>
      </trkpt>
      <trkpt lat="42.74034600000035" lon="-1.7646680000000055">
        <ele>674.458</ele>
        <time>2022-08-25T09:05:54Z</time>
      </trkpt>
      <trkpt lat="42.74034100000035" lon="-1.7646940000000055">
        <ele>673.698</ele>
        <time>2022-08-25T09:05:55Z</time>
      </trkpt>
      <trkpt lat="42.74033800000035" lon="-1.7647010000000056">
        <ele>673.098</ele>
        <time>2022-08-25T09:05:56Z</time>
      </trkpt>
      <trkpt lat="42.74033100000035" lon="-1.7647040000000056">
        <ele>672.884</ele>
        <time>2022-08-25T09:05:57Z</time>
      </trkpt>
      <trkpt lat="42.74032300000035" lon="-1.7647040000000056">
        <ele>672.056</ele>
        <time>2022-08-25T09:05:58Z</time>
      </trkpt>
      <trkpt lat="42.74031000000035" lon="-1.7646940000000055">
        <ele>671.873</ele>
        <time>2022-08-25T09:05:59Z</time>
      </trkpt>
      <trkpt lat="42.74029400000035" lon="-1.7646860000000055">
        <ele>671.446</ele>
        <time>2022-08-25T09:06:00Z</time>
      </trkpt>
      <trkpt lat="42.74027600000035" lon="-1.7646940000000055">
        <ele>671.462</ele>
        <time>2022-08-25T09:06:01Z</time>
      </trkpt>
      <trkpt lat="42.74026200000035" lon="-1.7647120000000056">
        <ele>671.243</ele>
        <time>2022-08-25T09:06:02Z</time>
      </trkpt>
      <trkpt lat="42.74024100000035" lon="-1.7647440000000056">
        <ele>671.023</ele>
        <time>2022-08-25T09:06:03Z</time>
      </trkpt>
      <trkpt lat="42.740212000000355" lon="-1.7647870000000057">
        <ele>670.883</ele>
        <time>2022-08-25T09:06:04Z</time>
      </trkpt>
      <trkpt lat="42.74017900000035" lon="-1.7648190000000057">
        <ele>670.611</ele>
        <time>2022-08-25T09:06:05Z</time>
      </trkpt>
      <trkpt lat="42.740144000000356" lon="-1.7648390000000056">
        <ele>670.409</ele>
        <time>2022-08-25T09:06:06Z</time>
      </trkpt>
      <trkpt lat="42.740099000000356" lon="-1.7648590000000055">
        <ele>670.023</ele>
        <time>2022-08-25T09:06:07Z</time>
      </trkpt>
      <trkpt lat="42.74004400000035" lon="-1.7648730000000055">
        <ele>669.623</ele>
        <time>2022-08-25T09:06:08Z</time>
      </trkpt>
      <trkpt lat="42.73999600000035" lon="-1.7648800000000056">
        <ele>669.023</ele>
        <time>2022-08-25T09:06:09Z</time>
      </trkpt>
      <trkpt lat="42.739945000000354" lon="-1.7648820000000056">
        <ele>668.269</ele>
        <time>2022-08-25T09:06:10Z</time>
      </trkpt>
      <trkpt lat="42.73990900000035" lon="-1.7648800000000056">
        <ele>668.031</ele>
        <time>2022-08-25T09:06:11Z</time>
      </trkpt>
      <trkpt lat="42.739810000000354" lon="-1.7648780000000055">
        <ele>666.818</ele>
        <time>2022-08-25T09:06:13Z</time>
      </trkpt>
      <trkpt lat="42.739765000000354" lon="-1.7648780000000055">
        <ele>665.461</ele>
        <time>2022-08-25T09:06:14Z</time>
      </trkpt>
      <trkpt lat="42.73973000000036" lon="-1.7648780000000055">
        <ele>665.027</ele>
        <time>2022-08-25T09:06:15Z</time>
      </trkpt>
      <trkpt lat="42.739641000000354" lon="-1.7648790000000054">
        <ele>664.088</ele>
        <time>2022-08-25T09:06:17Z</time>
      </trkpt>
      <trkpt lat="42.739599000000354" lon="-1.7648770000000054">
        <ele>663.442</ele>
        <time>2022-08-25T09:06:18Z</time>
      </trkpt>
      <trkpt lat="42.739551000000354" lon="-1.7648780000000053">
        <ele>662.022</ele>
        <time>2022-08-25T09:06:19Z</time>
      </trkpt>
      <trkpt lat="42.739508000000356" lon="-1.7648830000000053">
        <ele>661.614</ele>
        <time>2022-08-25T09:06:20Z</time>
      </trkpt>
      <trkpt lat="42.739472000000355" lon="-1.7648900000000054">
        <ele>660.609</ele>
        <time>2022-08-25T09:06:21Z</time>
      </trkpt>
      <trkpt lat="42.73943300000035" lon="-1.7648940000000053">
        <ele>660.285</ele>
        <time>2022-08-25T09:06:22Z</time>
      </trkpt>
      <trkpt lat="42.73939500000035" lon="-1.7648970000000053">
        <ele>659.635</ele>
        <time>2022-08-25T09:06:23Z</time>
      </trkpt>
      <trkpt lat="42.739357000000346" lon="-1.7649040000000054">
        <ele>659.035</ele>
        <time>2022-08-25T09:06:24Z</time>
      </trkpt>
      <trkpt lat="42.73933900000035" lon="-1.7649100000000053">
        <ele>658.671</ele>
        <time>2022-08-25T09:06:25Z</time>
      </trkpt>
      <trkpt lat="42.73932000000035" lon="-1.7649150000000053">
        <ele>658.053</ele>
        <time>2022-08-25T09:06:26Z</time>
      </trkpt>
      <trkpt lat="42.73930000000035" lon="-1.7649220000000054">
        <ele>657.680</ele>
        <time>2022-08-25T09:06:27Z</time>
      </trkpt>
      <trkpt lat="42.73928600000035" lon="-1.7649250000000054">
        <ele>657.233</ele>
        <time>2022-08-25T09:06:28Z</time>
      </trkpt>
      <trkpt lat="42.73926400000035" lon="-1.7649370000000053">
        <ele>656.829</ele>
        <time>2022-08-25T09:06:29Z</time>
      </trkpt>
      <trkpt lat="42.739220000000344" lon="-1.7649800000000053">
        <ele>655.820</ele>
        <time>2022-08-25T09:06:31Z</time>
      </trkpt>
      <trkpt lat="42.739180000000346" lon="-1.7650080000000052">
        <ele>655.684</ele>
        <time>2022-08-25T09:06:32Z</time>
      </trkpt>
      <trkpt lat="42.73913400000035" lon="-1.7650300000000052">
        <ele>655.407</ele>
        <time>2022-08-25T09:06:33Z</time>
      </trkpt>
      <trkpt lat="42.73908500000035" lon="-1.7650390000000051">
        <ele>655.217</ele>
        <time>2022-08-25T09:06:34Z</time>
      </trkpt>
      <trkpt lat="42.73903500000035" lon="-1.7650390000000051">
        <ele>655.209</ele>
        <time>2022-08-25T09:06:35Z</time>
      </trkpt>
      <trkpt lat="42.73898400000035" lon="-1.765032000000005">
        <ele>655.099</ele>
        <time>2022-08-25T09:06:36Z</time>
      </trkpt>
      <trkpt lat="42.73893400000035" lon="-1.7650230000000051">
        <ele>654.619</ele>
        <time>2022-08-25T09:06:37Z</time>
      </trkpt>
      <trkpt lat="42.738879000000345" lon="-1.7650140000000052">
        <ele>654.069</ele>
        <time>2022-08-25T09:06:38Z</time>
      </trkpt>
      <trkpt lat="42.73863800000034" lon="-1.764964000000005">
        <ele>652.845</ele>
        <time>2022-08-25T09:06:42Z</time>
      </trkpt>
      <trkpt lat="42.738575000000345" lon="-1.7649500000000051">
        <ele>652.447</ele>
        <time>2022-08-25T09:06:43Z</time>
      </trkpt>
      <trkpt lat="42.738449000000344" lon="-1.7649170000000052">
        <ele>651.224</ele>
        <time>2022-08-25T09:06:45Z</time>
      </trkpt>
      <trkpt lat="42.73825900000034" lon="-1.7648510000000053">
        <ele>650.037</ele>
        <time>2022-08-25T09:06:48Z</time>
      </trkpt>
      <trkpt lat="42.73810600000034" lon="-1.7647880000000054">
        <ele>648.663</ele>
        <time>2022-08-25T09:06:50Z</time>
      </trkpt>
      <trkpt lat="42.737810000000344" lon="-1.7646180000000053">
        <ele>647.074</ele>
        <time>2022-08-25T09:06:54Z</time>
      </trkpt>
      <trkpt lat="42.737672000000344" lon="-1.7645220000000053">
        <ele>646.047</ele>
        <time>2022-08-25T09:06:56Z</time>
      </trkpt>
      <trkpt lat="42.737576000000345" lon="-1.7644530000000052">
        <ele>645.429</ele>
        <time>2022-08-25T09:06:57Z</time>
      </trkpt>
      <trkpt lat="42.73741200000035" lon="-1.7643330000000053">
        <ele>644.221</ele>
        <time>2022-08-25T09:06:59Z</time>
      </trkpt>
      <trkpt lat="42.737244000000345" lon="-1.7642200000000052">
        <ele>643.209</ele>
        <time>2022-08-25T09:07:01Z</time>
      </trkpt>
      <trkpt lat="42.73707100000035" lon="-1.7641130000000051">
        <ele>641.625</ele>
        <time>2022-08-25T09:07:03Z</time>
      </trkpt>
      <trkpt lat="42.73688800000035" lon="-1.7640230000000052">
        <ele>640.235</ele>
        <time>2022-08-25T09:07:05Z</time>
      </trkpt>
      <trkpt lat="42.73681400000035" lon="-1.7639920000000053">
        <ele>638.895</ele>
        <time>2022-08-25T09:07:06Z</time>
      </trkpt>
      <trkpt lat="42.736610000000354" lon="-1.7639170000000053">
        <ele>636.831</ele>
        <time>2022-08-25T09:07:08Z</time>
      </trkpt>
      <trkpt lat="42.73651500000035" lon="-1.7638870000000053">
        <ele>636.253</ele>
        <time>2022-08-25T09:07:09Z</time>
      </trkpt>
      <trkpt lat="42.73643900000035" lon="-1.7638630000000053">
        <ele>635.290</ele>
        <time>2022-08-25T09:07:10Z</time>
      </trkpt>
      <trkpt lat="42.736233000000354" lon="-1.7637980000000053">
        <ele>633.843</ele>
        <time>2022-08-25T09:07:12Z</time>
      </trkpt>
      <trkpt lat="42.73613900000036" lon="-1.7637690000000052">
        <ele>632.829</ele>
        <time>2022-08-25T09:07:13Z</time>
      </trkpt>
      <trkpt lat="42.73596300000035" lon="-1.7637160000000052">
        <ele>631.060</ele>
        <time>2022-08-25T09:07:15Z</time>
      </trkpt>
      <trkpt lat="42.735734000000356" lon="-1.7636510000000052">
        <ele>629.266</ele>
        <time>2022-08-25T09:07:17Z</time>
      </trkpt>
      <trkpt lat="42.73562400000036" lon="-1.7636200000000053">
        <ele>628.029</ele>
        <time>2022-08-25T09:07:18Z</time>
      </trkpt>
      <trkpt lat="42.73551400000036" lon="-1.7635910000000052">
        <ele>627.621</ele>
        <time>2022-08-25T09:07:19Z</time>
      </trkpt>
      <trkpt lat="42.73540300000036" lon="-1.7635630000000053">
        <ele>626.809</ele>
        <time>2022-08-25T09:07:20Z</time>
      </trkpt>
      <trkpt lat="42.73529500000036" lon="-1.7635390000000053">
        <ele>626.467</ele>
        <time>2022-08-25T09:07:21Z</time>
      </trkpt>
      <trkpt lat="42.73518800000036" lon="-1.7635160000000052">
        <ele>625.457</ele>
        <time>2022-08-25T09:07:22Z</time>
      </trkpt>
      <trkpt lat="42.73508400000036" lon="-1.7634950000000051">
        <ele>625.047</ele>
        <time>2022-08-25T09:07:23Z</time>
      </trkpt>
      <trkpt lat="42.734979000000365" lon="-1.7634760000000052">
        <ele>624.093</ele>
        <time>2022-08-25T09:07:24Z</time>
      </trkpt>
      <trkpt lat="42.73478700000037" lon="-1.7634520000000051">
        <ele>622.465</ele>
        <time>2022-08-25T09:07:26Z</time>
      </trkpt>
      <trkpt lat="42.73468000000037" lon="-1.7634430000000052">
        <ele>621.272</ele>
        <time>2022-08-25T09:07:27Z</time>
      </trkpt>
      <trkpt lat="42.734442000000364" lon="-1.7634270000000052">
        <ele>619.445</ele>
        <time>2022-08-25T09:07:29Z</time>
      </trkpt>
      <trkpt lat="42.73435900000037" lon="-1.7634260000000053">
        <ele>618.611</ele>
        <time>2022-08-25T09:07:30Z</time>
      </trkpt>
      <trkpt lat="42.734256000000364" lon="-1.7634270000000052">
        <ele>617.292</ele>
        <time>2022-08-25T09:07:31Z</time>
      </trkpt>
      <trkpt lat="42.734152000000364" lon="-1.7634300000000052">
        <ele>616.436</ele>
        <time>2022-08-25T09:07:32Z</time>
      </trkpt>
      <trkpt lat="42.73405200000036" lon="-1.763434000000005">
        <ele>615.817</ele>
        <time>2022-08-25T09:07:33Z</time>
      </trkpt>
      <trkpt lat="42.73395400000036" lon="-1.763439000000005">
        <ele>614.618</ele>
        <time>2022-08-25T09:07:34Z</time>
      </trkpt>
      <trkpt lat="42.73375600000036" lon="-1.763448000000005">
        <ele>612.409</ele>
        <time>2022-08-25T09:07:36Z</time>
      </trkpt>
      <trkpt lat="42.733659000000365" lon="-1.763453000000005">
        <ele>611.864</ele>
        <time>2022-08-25T09:07:37Z</time>
      </trkpt>
      <trkpt lat="42.733564000000364" lon="-1.763458000000005">
        <ele>610.864</ele>
        <time>2022-08-25T09:07:38Z</time>
      </trkpt>
      <trkpt lat="42.73347200000036" lon="-1.763463000000005">
        <ele>609.834</ele>
        <time>2022-08-25T09:07:39Z</time>
      </trkpt>
      <trkpt lat="42.73337700000036" lon="-1.763469000000005">
        <ele>609.460</ele>
        <time>2022-08-25T09:07:40Z</time>
      </trkpt>
      <trkpt lat="42.73328300000036" lon="-1.763475000000005">
        <ele>608.282</ele>
        <time>2022-08-25T09:07:41Z</time>
      </trkpt>
      <trkpt lat="42.73319000000036" lon="-1.763483000000005">
        <ele>607.879</ele>
        <time>2022-08-25T09:07:42Z</time>
      </trkpt>
      <trkpt lat="42.733096000000366" lon="-1.763493000000005">
        <ele>606.842</ele>
        <time>2022-08-25T09:07:43Z</time>
      </trkpt>
      <trkpt lat="42.732897000000364" lon="-1.763523000000005">
        <ele>605.048</ele>
        <time>2022-08-25T09:07:45Z</time>
      </trkpt>
      <trkpt lat="42.73268600000036" lon="-1.7635730000000052">
        <ele>603.639</ele>
        <time>2022-08-25T09:07:47Z</time>
      </trkpt>
      <trkpt lat="42.732581000000366" lon="-1.7636020000000052">
        <ele>602.236</ele>
        <time>2022-08-25T09:07:48Z</time>
      </trkpt>
      <trkpt lat="42.73237700000037" lon="-1.7636750000000052">
        <ele>600.417</ele>
        <time>2022-08-25T09:07:50Z</time>
      </trkpt>
      <trkpt lat="42.73217700000037" lon="-1.7637690000000052">
        <ele>598.818</ele>
        <time>2022-08-25T09:07:52Z</time>
      </trkpt>
      <trkpt lat="42.73207800000037" lon="-1.7638220000000053">
        <ele>597.809</ele>
        <time>2022-08-25T09:07:53Z</time>
      </trkpt>
      <trkpt lat="42.731981000000374" lon="-1.7638810000000054">
        <ele>597.264</ele>
        <time>2022-08-25T09:07:54Z</time>
      </trkpt>
      <trkpt lat="42.73179000000037" lon="-1.7640150000000054">
        <ele>595.684</ele>
        <time>2022-08-25T09:07:56Z</time>
      </trkpt>
      <trkpt lat="42.731696000000376" lon="-1.7640860000000054">
        <ele>594.064</ele>
        <time>2022-08-25T09:07:57Z</time>
      </trkpt>
      <trkpt lat="42.731606000000376" lon="-1.7641630000000055">
        <ele>593.440</ele>
        <time>2022-08-25T09:07:58Z</time>
      </trkpt>
      <trkpt lat="42.73151800000038" lon="-1.7642450000000054">
        <ele>592.072</ele>
        <time>2022-08-25T09:07:59Z</time>
      </trkpt>
      <trkpt lat="42.731432000000375" lon="-1.7643330000000055">
        <ele>590.829</ele>
        <time>2022-08-25T09:08:00Z</time>
      </trkpt>
      <trkpt lat="42.731260000000375" lon="-1.7645160000000055">
        <ele>589.062</ele>
        <time>2022-08-25T09:08:02Z</time>
      </trkpt>
      <trkpt lat="42.73109000000038" lon="-1.7647070000000056">
        <ele>587.258</ele>
        <time>2022-08-25T09:08:04Z</time>
      </trkpt>
      <trkpt lat="42.73100900000038" lon="-1.7648010000000056">
        <ele>586.279</ele>
        <time>2022-08-25T09:08:05Z</time>
      </trkpt>
      <trkpt lat="42.73093000000038" lon="-1.7648930000000056">
        <ele>585.457</ele>
        <time>2022-08-25T09:08:06Z</time>
      </trkpt>
      <trkpt lat="42.73085400000038" lon="-1.7649830000000055">
        <ele>584.200</ele>
        <time>2022-08-25T09:08:07Z</time>
      </trkpt>
      <trkpt lat="42.730779000000375" lon="-1.7650720000000055">
        <ele>583.620</ele>
        <time>2022-08-25T09:08:08Z</time>
      </trkpt>
      <trkpt lat="42.73070400000037" lon="-1.7651610000000055">
        <ele>582.009</ele>
        <time>2022-08-25T09:08:09Z</time>
      </trkpt>
      <trkpt lat="42.73061100000037" lon="-1.7652590000000055">
        <ele>581.436</ele>
        <time>2022-08-25T09:08:10Z</time>
      </trkpt>
      <trkpt lat="42.730548000000375" lon="-1.7653240000000054">
        <ele>580.236</ele>
        <time>2022-08-25T09:08:11Z</time>
      </trkpt>
      <trkpt lat="42.730469000000376" lon="-1.7654050000000054">
        <ele>578.856</ele>
        <time>2022-08-25T09:08:12Z</time>
      </trkpt>
      <trkpt lat="42.73030500000038" lon="-1.7655630000000055">
        <ele>577.272</ele>
        <time>2022-08-25T09:08:14Z</time>
      </trkpt>
      <trkpt lat="42.73013000000038" lon="-1.7657160000000056">
        <ele>575.444</ele>
        <time>2022-08-25T09:08:16Z</time>
      </trkpt>
      <trkpt lat="42.72993900000038" lon="-1.7658530000000057">
        <ele>574.011</ele>
        <time>2022-08-25T09:08:18Z</time>
      </trkpt>
      <trkpt lat="42.72973400000038" lon="-1.7659740000000057">
        <ele>572.494</ele>
        <time>2022-08-25T09:08:20Z</time>
      </trkpt>
      <trkpt lat="42.72962900000038" lon="-1.7660270000000058">
        <ele>571.660</ele>
        <time>2022-08-25T09:08:21Z</time>
      </trkpt>
      <trkpt lat="42.72952500000038" lon="-1.7660730000000058">
        <ele>571.031</ele>
        <time>2022-08-25T09:08:22Z</time>
      </trkpt>
      <trkpt lat="42.72942100000038" lon="-1.7661130000000058">
        <ele>570.044</ele>
        <time>2022-08-25T09:08:23Z</time>
      </trkpt>
      <trkpt lat="42.72931400000038" lon="-1.7661520000000057">
        <ele>569.405</ele>
        <time>2022-08-25T09:08:24Z</time>
      </trkpt>
      <trkpt lat="42.72920900000038" lon="-1.7661840000000057">
        <ele>568.415</ele>
        <time>2022-08-25T09:08:25Z</time>
      </trkpt>
      <trkpt lat="42.72910200000038" lon="-1.7662120000000057">
        <ele>567.009</ele>
        <time>2022-08-25T09:08:26Z</time>
      </trkpt>
      <trkpt lat="42.72888300000038" lon="-1.7662530000000056">
        <ele>565.415</ele>
        <time>2022-08-25T09:08:28Z</time>
      </trkpt>
      <trkpt lat="42.72866000000038" lon="-1.7662770000000056">
        <ele>563.835</ele>
        <time>2022-08-25T09:08:30Z</time>
      </trkpt>
      <trkpt lat="42.72854800000038" lon="-1.7662850000000057">
        <ele>563.285</ele>
        <time>2022-08-25T09:08:31Z</time>
      </trkpt>
      <trkpt lat="42.72841200000038" lon="-1.7662920000000057">
        <ele>562.041</ele>
        <time>2022-08-25T09:08:32Z</time>
      </trkpt>
      <trkpt lat="42.72832200000038" lon="-1.7662950000000057">
        <ele>560.863</ele>
        <time>2022-08-25T09:08:33Z</time>
      </trkpt>
      <trkpt lat="42.72821000000038" lon="-1.7663000000000058">
        <ele>560.280</ele>
        <time>2022-08-25T09:08:34Z</time>
      </trkpt>
      <trkpt lat="42.72809700000038" lon="-1.7663080000000058">
        <ele>559.213</ele>
        <time>2022-08-25T09:08:35Z</time>
      </trkpt>
      <trkpt lat="42.72785000000038" lon="-1.7663250000000057">
        <ele>557.639</ele>
        <time>2022-08-25T09:08:37Z</time>
      </trkpt>
      <trkpt lat="42.72774000000038" lon="-1.7663330000000057">
        <ele>557.260</ele>
        <time>2022-08-25T09:08:38Z</time>
      </trkpt>
      <trkpt lat="42.72765100000038" lon="-1.7663390000000057">
        <ele>556.699</ele>
        <time>2022-08-25T09:08:39Z</time>
      </trkpt>
      <trkpt lat="42.72754400000038" lon="-1.7663450000000056">
        <ele>555.807</ele>
        <time>2022-08-25T09:08:40Z</time>
      </trkpt>
      <trkpt lat="42.727441000000375" lon="-1.7663530000000056">
        <ele>555.027</ele>
        <time>2022-08-25T09:08:41Z</time>
      </trkpt>
      <trkpt lat="42.727348000000376" lon="-1.7663590000000056">
        <ele>553.809</ele>
        <time>2022-08-25T09:08:42Z</time>
      </trkpt>
      <trkpt lat="42.727258000000376" lon="-1.7663690000000056">
        <ele>553.230</ele>
        <time>2022-08-25T09:08:43Z</time>
      </trkpt>
      <trkpt lat="42.72716600000037" lon="-1.7663850000000056">
        <ele>552.430</ele>
        <time>2022-08-25T09:08:44Z</time>
      </trkpt>
      <trkpt lat="42.726963000000374" lon="-1.7664460000000057">
        <ele>550.840</ele>
        <time>2022-08-25T09:08:46Z</time>
      </trkpt>
      <trkpt lat="42.726892000000376" lon="-1.7664740000000057">
        <ele>550.046</ele>
        <time>2022-08-25T09:08:47Z</time>
      </trkpt>
      <trkpt lat="42.72680300000037" lon="-1.7665110000000057">
        <ele>549.658</ele>
        <time>2022-08-25T09:08:48Z</time>
      </trkpt>
      <trkpt lat="42.72671700000037" lon="-1.7665520000000057">
        <ele>548.815</ele>
        <time>2022-08-25T09:08:49Z</time>
      </trkpt>
      <trkpt lat="42.72663500000037" lon="-1.7665920000000057">
        <ele>548.458</ele>
        <time>2022-08-25T09:08:50Z</time>
      </trkpt>
      <trkpt lat="42.726555000000374" lon="-1.7666330000000057">
        <ele>547.864</ele>
        <time>2022-08-25T09:08:51Z</time>
      </trkpt>
      <trkpt lat="42.726392000000374" lon="-1.7667260000000056">
        <ele>547.025</ele>
        <time>2022-08-25T09:08:53Z</time>
      </trkpt>
      <trkpt lat="42.72622400000037" lon="-1.7668260000000056">
        <ele>545.813</ele>
        <time>2022-08-25T09:08:55Z</time>
      </trkpt>
      <trkpt lat="42.726141000000375" lon="-1.7668760000000057">
        <ele>545.043</ele>
        <time>2022-08-25T09:08:56Z</time>
      </trkpt>
      <trkpt lat="42.72605800000038" lon="-1.7669240000000057">
        <ele>544.807</ele>
        <time>2022-08-25T09:08:57Z</time>
      </trkpt>
      <trkpt lat="42.725980000000376" lon="-1.7669680000000056">
        <ele>544.009</ele>
        <time>2022-08-25T09:08:58Z</time>
      </trkpt>
      <trkpt lat="42.725902000000374" lon="-1.7670100000000057">
        <ele>543.672</ele>
        <time>2022-08-25T09:08:59Z</time>
      </trkpt>
      <trkpt lat="42.72582200000038" lon="-1.7670540000000057">
        <ele>542.642</ele>
        <time>2022-08-25T09:09:00Z</time>
      </trkpt>
      <trkpt lat="42.72572500000038" lon="-1.7671070000000058">
        <ele>541.462</ele>
        <time>2022-08-25T09:09:01Z</time>
      </trkpt>
      <trkpt lat="42.72555400000038" lon="-1.7671940000000057">
        <ele>540.058</ele>
        <time>2022-08-25T09:09:03Z</time>
      </trkpt>
      <trkpt lat="42.72539400000038" lon="-1.7672680000000056">
        <ele>538.890</ele>
        <time>2022-08-25T09:09:05Z</time>
      </trkpt>
      <trkpt lat="42.72520500000038" lon="-1.7673490000000056">
        <ele>537.447</ele>
        <time>2022-08-25T09:09:07Z</time>
      </trkpt>
      <trkpt lat="42.725012000000376" lon="-1.7674270000000056">
        <ele>536.650</ele>
        <time>2022-08-25T09:09:09Z</time>
      </trkpt>
      <trkpt lat="42.724917000000374" lon="-1.7674630000000056">
        <ele>535.836</ele>
        <time>2022-08-25T09:09:10Z</time>
      </trkpt>
      <trkpt lat="42.724723000000374" lon="-1.7675280000000055">
        <ele>534.077</ele>
        <time>2022-08-25T09:09:12Z</time>
      </trkpt>
      <trkpt lat="42.72451900000038" lon="-1.7675850000000055">
        <ele>532.683</ele>
        <time>2022-08-25T09:09:14Z</time>
      </trkpt>
      <trkpt lat="42.724410000000375" lon="-1.7676130000000054">
        <ele>531.625</ele>
        <time>2022-08-25T09:09:15Z</time>
      </trkpt>
      <trkpt lat="42.724300000000376" lon="-1.7676410000000053">
        <ele>531.217</ele>
        <time>2022-08-25T09:09:16Z</time>
      </trkpt>
      <trkpt lat="42.724188000000375" lon="-1.7676670000000054">
        <ele>530.209</ele>
        <time>2022-08-25T09:09:17Z</time>
      </trkpt>
      <trkpt lat="42.723951000000376" lon="-1.7677290000000054">
        <ele>529.029</ele>
        <time>2022-08-25T09:09:19Z</time>
      </trkpt>
      <trkpt lat="42.72383200000038" lon="-1.7677600000000053">
        <ele>527.659</ele>
        <time>2022-08-25T09:09:20Z</time>
      </trkpt>
      <trkpt lat="42.72356700000038" lon="-1.7678300000000053">
        <ele>525.639</ele>
        <time>2022-08-25T09:09:22Z</time>
      </trkpt>
      <trkpt lat="42.72334800000038" lon="-1.7678870000000053">
        <ele>523.435</ele>
        <time>2022-08-25T09:09:24Z</time>
      </trkpt>
      <trkpt lat="42.723104000000376" lon="-1.7679530000000052">
        <ele>522.477</ele>
        <time>2022-08-25T09:09:26Z</time>
      </trkpt>
      <trkpt lat="42.722983000000376" lon="-1.767984000000005">
        <ele>521.044</ele>
        <time>2022-08-25T09:09:27Z</time>
      </trkpt>
      <trkpt lat="42.722862000000376" lon="-1.7680160000000051">
        <ele>520.457</ele>
        <time>2022-08-25T09:09:29Z</time>
      </trkpt>
      <trkpt lat="42.72272100000038" lon="-1.7680540000000051">
        <ele>519.043</ele>
        <time>2022-08-25T09:09:30Z</time>
      </trkpt>
      <trkpt lat="42.72262800000038" lon="-1.768079000000005">
        <ele>518.664</ele>
        <time>2022-08-25T09:09:31Z</time>
      </trkpt>
      <trkpt lat="42.72251200000038" lon="-1.768110000000005">
        <ele>517.665</ele>
        <time>2022-08-25T09:09:32Z</time>
      </trkpt>
      <trkpt lat="42.72239900000038" lon="-1.768140000000005">
        <ele>517.068</ele>
        <time>2022-08-25T09:09:33Z</time>
      </trkpt>
      <trkpt lat="42.72228600000038" lon="-1.7681710000000048">
        <ele>516.014</ele>
        <time>2022-08-25T09:09:34Z</time>
      </trkpt>
      <trkpt lat="42.72217700000038" lon="-1.7682010000000048">
        <ele>514.809</ele>
        <time>2022-08-25T09:09:35Z</time>
      </trkpt>
      <trkpt lat="42.72207000000038" lon="-1.7682300000000049">
        <ele>514.017</ele>
        <time>2022-08-25T09:09:36Z</time>
      </trkpt>
      <trkpt lat="42.72196500000038" lon="-1.7682580000000048">
        <ele>512.857</ele>
        <time>2022-08-25T09:09:37Z</time>
      </trkpt>
      <trkpt lat="42.72186300000038" lon="-1.7682870000000048">
        <ele>512.227</ele>
        <time>2022-08-25T09:09:38Z</time>
      </trkpt>
      <trkpt lat="42.72176000000038" lon="-1.7683160000000049">
        <ele>510.843</ele>
        <time>2022-08-25T09:09:39Z</time>
      </trkpt>
      <trkpt lat="42.72152600000038" lon="-1.768385000000005">
        <ele>509.465</ele>
        <time>2022-08-25T09:09:41Z</time>
      </trkpt>
      <trkpt lat="42.72143900000038" lon="-1.768411000000005">
        <ele>508.012</ele>
        <time>2022-08-25T09:09:42Z</time>
      </trkpt>
      <trkpt lat="42.72121800000038" lon="-1.768477000000005">
        <ele>505.815</ele>
        <time>2022-08-25T09:09:44Z</time>
      </trkpt>
      <trkpt lat="42.72110700000038" lon="-1.768511000000005">
        <ele>505.251</ele>
        <time>2022-08-25T09:09:45Z</time>
      </trkpt>
      <trkpt lat="42.72100000000038" lon="-1.768544000000005">
        <ele>504.672</ele>
        <time>2022-08-25T09:09:46Z</time>
      </trkpt>
      <trkpt lat="42.72078700000038" lon="-1.768605000000005">
        <ele>503.247</ele>
        <time>2022-08-25T09:09:48Z</time>
      </trkpt>
      <trkpt lat="42.720577000000375" lon="-1.768668000000005">
        <ele>502.229</ele>
        <time>2022-08-25T09:09:50Z</time>
      </trkpt>
      <trkpt lat="42.720259000000375" lon="-1.768765000000005">
        <ele>500.621</ele>
        <time>2022-08-25T09:09:53Z</time>
      </trkpt>
      <trkpt lat="42.72004600000037" lon="-1.768827000000005">
        <ele>499.609</ele>
        <time>2022-08-25T09:09:55Z</time>
      </trkpt>
      <trkpt lat="42.719919000000374" lon="-1.768865000000005">
        <ele>499.275</ele>
        <time>2022-08-25T09:09:56Z</time>
      </trkpt>
      <trkpt lat="42.719837000000375" lon="-1.768890000000005">
        <ele>499.095</ele>
        <time>2022-08-25T09:09:57Z</time>
      </trkpt>
      <trkpt lat="42.71973700000037" lon="-1.7689260000000049">
        <ele>498.455</ele>
        <time>2022-08-25T09:09:58Z</time>
      </trkpt>
      <trkpt lat="42.71962200000037" lon="-1.768982000000005">
        <ele>498.061</ele>
        <time>2022-08-25T09:09:59Z</time>
      </trkpt>
      <trkpt lat="42.71955000000037" lon="-1.769032000000005">
        <ele>497.463</ele>
        <time>2022-08-25T09:10:00Z</time>
      </trkpt>
      <trkpt lat="42.71944300000037" lon="-1.769122000000005">
        <ele>496.860</ele>
        <time>2022-08-25T09:10:01Z</time>
      </trkpt>
      <trkpt lat="42.71929000000037" lon="-1.769268000000005">
        <ele>496.283</ele>
        <time>2022-08-25T09:10:03Z</time>
      </trkpt>
      <trkpt lat="42.71920600000037" lon="-1.769341000000005">
        <ele>496.079</ele>
        <time>2022-08-25T09:10:04Z</time>
      </trkpt>
      <trkpt lat="42.719103000000366" lon="-1.7694150000000048">
        <ele>495.620</ele>
        <time>2022-08-25T09:10:05Z</time>
      </trkpt>
      <trkpt lat="42.71903100000036" lon="-1.7694480000000048">
        <ele>495.638</ele>
        <time>2022-08-25T09:10:06Z</time>
      </trkpt>
      <trkpt lat="42.718845000000364" lon="-1.7694960000000048">
        <ele>494.470</ele>
        <time>2022-08-25T09:10:08Z</time>
      </trkpt>
      <trkpt lat="42.718445000000365" lon="-1.7694990000000048">
        <ele>493.017</ele>
        <time>2022-08-25T09:10:12Z</time>
      </trkpt>
      <trkpt lat="42.718270000000366" lon="-1.7695040000000049">
        <ele>492.609</ele>
        <time>2022-08-25T09:10:14Z</time>
      </trkpt>
      <trkpt lat="42.71818200000037" lon="-1.7695080000000047">
        <ele>492.434</ele>
        <time>2022-08-25T09:10:15Z</time>
      </trkpt>
      <trkpt lat="42.71779100000037" lon="-1.7695270000000047">
        <ele>491.884</ele>
        <time>2022-08-25T09:10:19Z</time>
      </trkpt>
      <trkpt lat="42.717702000000365" lon="-1.7695320000000048">
        <ele>491.664</ele>
        <time>2022-08-25T09:10:20Z</time>
      </trkpt>
      <trkpt lat="42.717615000000364" lon="-1.7695520000000047">
        <ele>491.230</ele>
        <time>2022-08-25T09:10:21Z</time>
      </trkpt>
      <trkpt lat="42.717530000000366" lon="-1.7695690000000046">
        <ele>491.052</ele>
        <time>2022-08-25T09:10:22Z</time>
      </trkpt>
      <trkpt lat="42.71744400000036" lon="-1.7695930000000046">
        <ele>490.869</ele>
        <time>2022-08-25T09:10:23Z</time>
      </trkpt>
      <trkpt lat="42.71736000000036" lon="-1.7696200000000046">
        <ele>490.852</ele>
        <time>2022-08-25T09:10:24Z</time>
      </trkpt>
      <trkpt lat="42.71727300000036" lon="-1.7696450000000046">
        <ele>490.638</ele>
        <time>2022-08-25T09:10:25Z</time>
      </trkpt>
      <trkpt lat="42.71717300000036" lon="-1.7696740000000046">
        <ele>490.649</ele>
        <time>2022-08-25T09:10:26Z</time>
      </trkpt>
      <trkpt lat="42.71709300000036" lon="-1.7696950000000047">
        <ele>490.412</ele>
        <time>2022-08-25T09:10:27Z</time>
      </trkpt>
      <trkpt lat="42.71702900000036" lon="-1.7697100000000048">
        <ele>490.432</ele>
        <time>2022-08-25T09:10:28Z</time>
      </trkpt>
      <trkpt lat="42.71695300000036" lon="-1.7697280000000049">
        <ele>490.205</ele>
        <time>2022-08-25T09:10:29Z</time>
      </trkpt>
      <trkpt lat="42.71687800000036" lon="-1.7697420000000048">
        <ele>490.209</ele>
        <time>2022-08-25T09:10:30Z</time>
      </trkpt>
      <trkpt lat="42.71680600000035" lon="-1.769757000000005">
        <ele>490.252</ele>
        <time>2022-08-25T09:10:31Z</time>
      </trkpt>
      <trkpt lat="42.716718000000355" lon="-1.7697710000000049">
        <ele>490.242</ele>
        <time>2022-08-25T09:10:32Z</time>
      </trkpt>
      <trkpt lat="42.71664400000036" lon="-1.769778000000005">
        <ele>490.292</ele>
        <time>2022-08-25T09:10:33Z</time>
      </trkpt>
      <trkpt lat="42.71658500000036" lon="-1.769784000000005">
        <ele>490.248</ele>
        <time>2022-08-25T09:10:34Z</time>
      </trkpt>
      <trkpt lat="42.71629800000036" lon="-1.769795000000005">
        <ele>490.260</ele>
        <time>2022-08-25T09:10:38Z</time>
      </trkpt>
      <trkpt lat="42.71571200000036" lon="-1.7697870000000049">
        <ele>490.667</ele>
        <time>2022-08-25T09:10:46Z</time>
      </trkpt>
      <trkpt lat="42.71541700000036" lon="-1.7698140000000049">
        <ele>490.630</ele>
        <time>2022-08-25T09:10:50Z</time>
      </trkpt>
      <trkpt lat="42.715272000000354" lon="-1.769840000000005">
        <ele>490.666</ele>
        <time>2022-08-25T09:10:52Z</time>
      </trkpt>
      <trkpt lat="42.71498100000036" lon="-1.769932000000005">
        <ele>489.827</ele>
        <time>2022-08-25T09:10:56Z</time>
      </trkpt>
      <trkpt lat="42.714906000000354" lon="-1.769965000000005">
        <ele>489.662</ele>
        <time>2022-08-25T09:10:57Z</time>
      </trkpt>
      <trkpt lat="42.714537000000355" lon="-1.770185000000005">
        <ele>488.483</ele>
        <time>2022-08-25T09:11:02Z</time>
      </trkpt>
      <trkpt lat="42.71446500000035" lon="-1.770239000000005">
        <ele>488.211</ele>
        <time>2022-08-25T09:11:03Z</time>
      </trkpt>
      <trkpt lat="42.71396100000035" lon="-1.770702000000005">
        <ele>487.609</ele>
        <time>2022-08-25T09:11:10Z</time>
      </trkpt>
      <trkpt lat="42.71389100000035" lon="-1.7707720000000051">
        <ele>487.467</ele>
        <time>2022-08-25T09:11:11Z</time>
      </trkpt>
      <trkpt lat="42.71382300000035" lon="-1.7708410000000052">
        <ele>487.447</ele>
        <time>2022-08-25T09:11:12Z</time>
      </trkpt>
      <trkpt lat="42.713755000000354" lon="-1.7709090000000052">
        <ele>487.027</ele>
        <time>2022-08-25T09:11:13Z</time>
      </trkpt>
      <trkpt lat="42.713552000000355" lon="-1.7711190000000052">
        <ele>485.463</ele>
        <time>2022-08-25T09:11:16Z</time>
      </trkpt>
      <trkpt lat="42.713414000000355" lon="-1.7712640000000053">
        <ele>484.425</ele>
        <time>2022-08-25T09:11:18Z</time>
      </trkpt>
      <trkpt lat="42.713274000000354" lon="-1.7714080000000052">
        <ele>482.832</ele>
        <time>2022-08-25T09:11:20Z</time>
      </trkpt>
      <trkpt lat="42.713209000000354" lon="-1.7714780000000052">
        <ele>482.455</ele>
        <time>2022-08-25T09:11:21Z</time>
      </trkpt>
      <trkpt lat="42.71314300000036" lon="-1.7715480000000052">
        <ele>481.611</ele>
        <time>2022-08-25T09:11:22Z</time>
      </trkpt>
      <trkpt lat="42.71307500000036" lon="-1.7716180000000052">
        <ele>480.492</ele>
        <time>2022-08-25T09:11:23Z</time>
      </trkpt>
      <trkpt lat="42.71300700000036" lon="-1.7716870000000053">
        <ele>480.065</ele>
        <time>2022-08-25T09:11:24Z</time>
      </trkpt>
      <trkpt lat="42.71293800000036" lon="-1.7717560000000054">
        <ele>479.068</ele>
        <time>2022-08-25T09:11:25Z</time>
      </trkpt>
      <trkpt lat="42.71278800000036" lon="-1.7719080000000054">
        <ele>477.414</ele>
        <time>2022-08-25T09:11:27Z</time>
      </trkpt>
      <trkpt lat="42.71273600000036" lon="-1.7719610000000054">
        <ele>477.009</ele>
        <time>2022-08-25T09:11:28Z</time>
      </trkpt>
      <trkpt lat="42.712670000000365" lon="-1.7720270000000053">
        <ele>476.217</ele>
        <time>2022-08-25T09:11:29Z</time>
      </trkpt>
      <trkpt lat="42.71253400000037" lon="-1.7721630000000053">
        <ele>475.237</ele>
        <time>2022-08-25T09:11:31Z</time>
      </trkpt>
      <trkpt lat="42.712391000000366" lon="-1.7723040000000052">
        <ele>474.077</ele>
        <time>2022-08-25T09:11:33Z</time>
      </trkpt>
      <trkpt lat="42.71231900000036" lon="-1.7723780000000051">
        <ele>473.243</ele>
        <time>2022-08-25T09:11:34Z</time>
      </trkpt>
      <trkpt lat="42.71224700000036" lon="-1.772452000000005">
        <ele>472.645</ele>
        <time>2022-08-25T09:11:35Z</time>
      </trkpt>
      <trkpt lat="42.71195300000036" lon="-1.772747000000005">
        <ele>470.262</ele>
        <time>2022-08-25T09:11:39Z</time>
      </trkpt>
      <trkpt lat="42.71188700000037" lon="-1.772817000000005">
        <ele>469.845</ele>
        <time>2022-08-25T09:11:40Z</time>
      </trkpt>
      <trkpt lat="42.71182200000037" lon="-1.772884000000005">
        <ele>468.461</ele>
        <time>2022-08-25T09:11:41Z</time>
      </trkpt>
      <trkpt lat="42.71175400000037" lon="-1.772947000000005">
        <ele>467.472</ele>
        <time>2022-08-25T09:11:42Z</time>
      </trkpt>
      <trkpt lat="42.71168600000037" lon="-1.773014000000005">
        <ele>467.078</ele>
        <time>2022-08-25T09:11:43Z</time>
      </trkpt>
      <trkpt lat="42.71154800000037" lon="-1.7731500000000049">
        <ele>465.833</ele>
        <time>2022-08-25T09:11:45Z</time>
      </trkpt>
      <trkpt lat="42.71133200000037" lon="-1.7733590000000048">
        <ele>464.026</ele>
        <time>2022-08-25T09:11:48Z</time>
      </trkpt>
      <trkpt lat="42.71118900000037" lon="-1.7735040000000049">
        <ele>462.809</ele>
        <time>2022-08-25T09:11:50Z</time>
      </trkpt>
      <trkpt lat="42.711100000000364" lon="-1.7735910000000048">
        <ele>462.058</ele>
        <time>2022-08-25T09:11:51Z</time>
      </trkpt>
      <trkpt lat="42.71104000000037" lon="-1.7736500000000048">
        <ele>461.858</ele>
        <time>2022-08-25T09:11:52Z</time>
      </trkpt>
      <trkpt lat="42.71081400000037" lon="-1.7738790000000049">
        <ele>460.428</ele>
        <time>2022-08-25T09:11:55Z</time>
      </trkpt>
      <trkpt lat="42.71058000000037" lon="-1.7741170000000048">
        <ele>458.684</ele>
        <time>2022-08-25T09:11:58Z</time>
      </trkpt>
      <trkpt lat="42.71042700000037" lon="-1.7742730000000049">
        <ele>457.686</ele>
        <time>2022-08-25T09:12:00Z</time>
      </trkpt>
      <trkpt lat="42.710336000000375" lon="-1.7743660000000048">
        <ele>456.833</ele>
        <time>2022-08-25T09:12:01Z</time>
      </trkpt>
      <trkpt lat="42.710274000000375" lon="-1.7744280000000048">
        <ele>456.056</ele>
        <time>2022-08-25T09:12:02Z</time>
      </trkpt>
      <trkpt lat="42.71003000000037" lon="-1.7746740000000047">
        <ele>454.232</ele>
        <time>2022-08-25T09:12:05Z</time>
      </trkpt>
      <trkpt lat="42.70994600000037" lon="-1.7747590000000046">
        <ele>453.613</ele>
        <time>2022-08-25T09:12:06Z</time>
      </trkpt>
      <trkpt lat="42.70986100000037" lon="-1.7748450000000047">
        <ele>452.683</ele>
        <time>2022-08-25T09:12:07Z</time>
      </trkpt>
      <trkpt lat="42.70969200000037" lon="-1.7750210000000046">
        <ele>451.025</ele>
        <time>2022-08-25T09:12:09Z</time>
      </trkpt>
      <trkpt lat="42.709520000000374" lon="-1.7751940000000046">
        <ele>450.017</ele>
        <time>2022-08-25T09:12:11Z</time>
      </trkpt>
      <trkpt lat="42.70943600000037" lon="-1.7752780000000046">
        <ele>449.209</ele>
        <time>2022-08-25T09:12:12Z</time>
      </trkpt>
      <trkpt lat="42.70935500000037" lon="-1.7753590000000046">
        <ele>448.829</ele>
        <time>2022-08-25T09:12:13Z</time>
      </trkpt>
      <trkpt lat="42.70919400000037" lon="-1.7755230000000046">
        <ele>448.269</ele>
        <time>2022-08-25T09:12:15Z</time>
      </trkpt>
      <trkpt lat="42.709117000000376" lon="-1.7756060000000047">
        <ele>447.839</ele>
        <time>2022-08-25T09:12:16Z</time>
      </trkpt>
      <trkpt lat="42.709039000000374" lon="-1.7756890000000047">
        <ele>447.475</ele>
        <time>2022-08-25T09:12:17Z</time>
      </trkpt>
      <trkpt lat="42.70888200000037" lon="-1.7758550000000048">
        <ele>446.837</ele>
        <time>2022-08-25T09:12:19Z</time>
      </trkpt>
      <trkpt lat="42.708619000000375" lon="-1.776127000000005">
        <ele>445.664</ele>
        <time>2022-08-25T09:12:22Z</time>
      </trkpt>
      <trkpt lat="42.70829900000037" lon="-1.7764490000000048">
        <ele>444.477</ele>
        <time>2022-08-25T09:12:26Z</time>
      </trkpt>
      <trkpt lat="42.70813100000037" lon="-1.7766190000000048">
        <ele>444.043</ele>
        <time>2022-08-25T09:12:28Z</time>
      </trkpt>
      <trkpt lat="42.707961000000374" lon="-1.776791000000005">
        <ele>443.274</ele>
        <time>2022-08-25T09:12:30Z</time>
      </trkpt>
      <trkpt lat="42.707876000000375" lon="-1.776877000000005">
        <ele>442.659</ele>
        <time>2022-08-25T09:12:31Z</time>
      </trkpt>
      <trkpt lat="42.70770800000037" lon="-1.777042000000005">
        <ele>442.203</ele>
        <time>2022-08-25T09:12:33Z</time>
      </trkpt>
      <trkpt lat="42.70754000000037" lon="-1.777208000000005">
        <ele>441.423</ele>
        <time>2022-08-25T09:12:35Z</time>
      </trkpt>
      <trkpt lat="42.70744000000037" lon="-1.777309000000005">
        <ele>440.809</ele>
        <time>2022-08-25T09:12:36Z</time>
      </trkpt>
      <trkpt lat="42.70721100000037" lon="-1.777544000000005">
        <ele>440.236</ele>
        <time>2022-08-25T09:12:39Z</time>
      </trkpt>
      <trkpt lat="42.70713000000037" lon="-1.7776280000000049">
        <ele>439.896</ele>
        <time>2022-08-25T09:12:40Z</time>
      </trkpt>
      <trkpt lat="42.70705000000037" lon="-1.7777120000000048">
        <ele>439.686</ele>
        <time>2022-08-25T09:12:41Z</time>
      </trkpt>
      <trkpt lat="42.706970000000375" lon="-1.777795000000005">
        <ele>439.472</ele>
        <time>2022-08-25T09:12:42Z</time>
      </trkpt>
      <trkpt lat="42.706891000000375" lon="-1.777876000000005">
        <ele>438.844</ele>
        <time>2022-08-25T09:12:43Z</time>
      </trkpt>
      <trkpt lat="42.70681400000038" lon="-1.777956000000005">
        <ele>438.661</ele>
        <time>2022-08-25T09:12:44Z</time>
      </trkpt>
      <trkpt lat="42.70674000000038" lon="-1.778039000000005">
        <ele>438.234</ele>
        <time>2022-08-25T09:12:45Z</time>
      </trkpt>
      <trkpt lat="42.70666400000038" lon="-1.7781160000000051">
        <ele>438.070</ele>
        <time>2022-08-25T09:12:46Z</time>
      </trkpt>
      <trkpt lat="42.70659000000038" lon="-1.778190000000005">
        <ele>437.621</ele>
        <time>2022-08-25T09:12:47Z</time>
      </trkpt>
      <trkpt lat="42.70651800000038" lon="-1.778265000000005">
        <ele>437.414</ele>
        <time>2022-08-25T09:12:48Z</time>
      </trkpt>
      <trkpt lat="42.70644800000038" lon="-1.7783370000000052">
        <ele>437.054</ele>
        <time>2022-08-25T09:12:49Z</time>
      </trkpt>
      <trkpt lat="42.706379000000375" lon="-1.7784070000000052">
        <ele>436.809</ele>
        <time>2022-08-25T09:12:50Z</time>
      </trkpt>
      <trkpt lat="42.70631000000037" lon="-1.7784790000000053">
        <ele>436.609</ele>
        <time>2022-08-25T09:12:51Z</time>
      </trkpt>
      <trkpt lat="42.70617300000037" lon="-1.7786210000000053">
        <ele>436.032</ele>
        <time>2022-08-25T09:12:53Z</time>
      </trkpt>
      <trkpt lat="42.70596800000037" lon="-1.7788300000000052">
        <ele>435.472</ele>
        <time>2022-08-25T09:12:56Z</time>
      </trkpt>
      <trkpt lat="42.70570000000037" lon="-1.7791050000000053">
        <ele>434.272</ele>
        <time>2022-08-25T09:13:00Z</time>
      </trkpt>
      <trkpt lat="42.70563300000037" lon="-1.7791740000000054">
        <ele>433.878</ele>
        <time>2022-08-25T09:13:01Z</time>
      </trkpt>
      <trkpt lat="42.705420000000366" lon="-1.7793910000000053">
        <ele>433.030</ele>
        <time>2022-08-25T09:13:04Z</time>
      </trkpt>
      <trkpt lat="42.70516000000037" lon="-1.7796510000000052">
        <ele>432.057</ele>
        <time>2022-08-25T09:13:08Z</time>
      </trkpt>
      <trkpt lat="42.70489000000037" lon="-1.7799260000000052">
        <ele>430.830</ele>
        <time>2022-08-25T09:13:12Z</time>
      </trkpt>
      <trkpt lat="42.70461900000037" lon="-1.7802020000000052">
        <ele>429.836</ele>
        <time>2022-08-25T09:13:16Z</time>
      </trkpt>
      <trkpt lat="42.70441200000037" lon="-1.7804120000000052">
        <ele>428.617</ele>
        <time>2022-08-25T09:13:19Z</time>
      </trkpt>
      <trkpt lat="42.70427100000037" lon="-1.7805530000000052">
        <ele>428.045</ele>
        <time>2022-08-25T09:13:21Z</time>
      </trkpt>
      <trkpt lat="42.704131000000366" lon="-1.7806960000000052">
        <ele>427.247</ele>
        <time>2022-08-25T09:13:23Z</time>
      </trkpt>
      <trkpt lat="42.70399200000037" lon="-1.7808380000000053">
        <ele>427.011</ele>
        <time>2022-08-25T09:13:25Z</time>
      </trkpt>
      <trkpt lat="42.70378400000037" lon="-1.7810500000000054">
        <ele>426.209</ele>
        <time>2022-08-25T09:13:28Z</time>
      </trkpt>
      <trkpt lat="42.70364300000037" lon="-1.7811890000000052">
        <ele>425.275</ele>
        <time>2022-08-25T09:13:30Z</time>
      </trkpt>
      <trkpt lat="42.70350300000037" lon="-1.7813290000000053">
        <ele>424.825</ele>
        <time>2022-08-25T09:13:32Z</time>
      </trkpt>
      <trkpt lat="42.70322600000037" lon="-1.7816060000000054">
        <ele>424.285</ele>
        <time>2022-08-25T09:13:36Z</time>
      </trkpt>
      <trkpt lat="42.70315600000037" lon="-1.7816740000000053">
        <ele>423.861</ele>
        <time>2022-08-25T09:13:37Z</time>
      </trkpt>
      <trkpt lat="42.70287600000037" lon="-1.7819600000000053">
        <ele>423.053</ele>
        <time>2022-08-25T09:13:41Z</time>
      </trkpt>
      <trkpt lat="42.70245800000037" lon="-1.7823890000000053">
        <ele>422.020</ele>
        <time>2022-08-25T09:13:47Z</time>
      </trkpt>
      <trkpt lat="42.70217200000037" lon="-1.7826780000000053">
        <ele>421.073</ele>
        <time>2022-08-25T09:13:51Z</time>
      </trkpt>
      <trkpt lat="42.701883000000365" lon="-1.7829720000000053">
        <ele>419.859</ele>
        <time>2022-08-25T09:13:55Z</time>
      </trkpt>
      <trkpt lat="42.70166400000036" lon="-1.7831980000000054">
        <ele>419.240</ele>
        <time>2022-08-25T09:13:58Z</time>
      </trkpt>
      <trkpt lat="42.701371000000364" lon="-1.7834930000000053">
        <ele>418.667</ele>
        <time>2022-08-25T09:14:02Z</time>
      </trkpt>
      <trkpt lat="42.70122800000036" lon="-1.7836390000000053">
        <ele>417.881</ele>
        <time>2022-08-25T09:14:04Z</time>
      </trkpt>
      <trkpt lat="42.701157000000364" lon="-1.7837100000000052">
        <ele>417.419</ele>
        <time>2022-08-25T09:14:05Z</time>
      </trkpt>
      <trkpt lat="42.701084000000364" lon="-1.7837810000000052">
        <ele>417.209</ele>
        <time>2022-08-25T09:14:06Z</time>
      </trkpt>
      <trkpt lat="42.70086800000036" lon="-1.7839910000000052">
        <ele>416.837</ele>
        <time>2022-08-25T09:14:09Z</time>
      </trkpt>
      <trkpt lat="42.700656000000365" lon="-1.7842000000000051">
        <ele>416.247</ele>
        <time>2022-08-25T09:14:12Z</time>
      </trkpt>
      <trkpt lat="42.700586000000364" lon="-1.7842720000000052">
        <ele>416.287</ele>
        <time>2022-08-25T09:14:13Z</time>
      </trkpt>
      <trkpt lat="42.70044600000036" lon="-1.7844140000000053">
        <ele>415.623</ele>
        <time>2022-08-25T09:14:15Z</time>
      </trkpt>
      <trkpt lat="42.70037700000036" lon="-1.7844830000000054">
        <ele>415.665</ele>
        <time>2022-08-25T09:14:16Z</time>
      </trkpt>
      <trkpt lat="42.700308000000355" lon="-1.7845520000000055">
        <ele>415.642</ele>
        <time>2022-08-25T09:14:17Z</time>
      </trkpt>
      <trkpt lat="42.70023900000035" lon="-1.7846200000000054">
        <ele>415.695</ele>
        <time>2022-08-25T09:14:18Z</time>
      </trkpt>
      <trkpt lat="42.70017200000035" lon="-1.7846880000000054">
        <ele>415.471</ele>
        <time>2022-08-25T09:14:19Z</time>
      </trkpt>
      <trkpt lat="42.70003900000035" lon="-1.7848220000000055">
        <ele>415.242</ele>
        <time>2022-08-25T09:14:21Z</time>
      </trkpt>
      <trkpt lat="42.69997400000035" lon="-1.7848900000000054">
        <ele>415.223</ele>
        <time>2022-08-25T09:14:22Z</time>
      </trkpt>
      <trkpt lat="42.69990900000035" lon="-1.7849570000000055">
        <ele>415.083</ele>
        <time>2022-08-25T09:14:23Z</time>
      </trkpt>
      <trkpt lat="42.699649000000356" lon="-1.7852240000000055">
        <ele>414.611</ele>
        <time>2022-08-25T09:14:27Z</time>
      </trkpt>
      <trkpt lat="42.699450000000354" lon="-1.7854220000000054">
        <ele>414.209</ele>
        <time>2022-08-25T09:14:30Z</time>
      </trkpt>
      <trkpt lat="42.69938400000036" lon="-1.7854870000000054">
        <ele>414.063</ele>
        <time>2022-08-25T09:14:31Z</time>
      </trkpt>
      <trkpt lat="42.699320000000355" lon="-1.7855510000000054">
        <ele>414.083</ele>
        <time>2022-08-25T09:14:32Z</time>
      </trkpt>
      <trkpt lat="42.699256000000354" lon="-1.7856140000000054">
        <ele>413.843</ele>
        <time>2022-08-25T09:14:33Z</time>
      </trkpt>
      <trkpt lat="42.69919200000035" lon="-1.7856760000000054">
        <ele>413.849</ele>
        <time>2022-08-25T09:14:34Z</time>
      </trkpt>
      <trkpt lat="42.698752000000354" lon="-1.7861330000000053">
        <ele>413.271</ele>
        <time>2022-08-25T09:14:41Z</time>
      </trkpt>
      <trkpt lat="42.698293000000355" lon="-1.7865910000000054">
        <ele>412.058</ele>
        <time>2022-08-25T09:14:48Z</time>
      </trkpt>
      <trkpt lat="42.69809200000036" lon="-1.7867970000000053">
        <ele>411.631</ele>
        <time>2022-08-25T09:14:51Z</time>
      </trkpt>
      <trkpt lat="42.69782100000036" lon="-1.7870670000000053">
        <ele>410.817</ele>
        <time>2022-08-25T09:14:55Z</time>
      </trkpt>
      <trkpt lat="42.69741500000036" lon="-1.7874730000000052">
        <ele>410.278</ele>
        <time>2022-08-25T09:15:01Z</time>
      </trkpt>
      <trkpt lat="42.69707100000036" lon="-1.7878140000000051">
        <ele>409.624</ele>
        <time>2022-08-25T09:15:06Z</time>
      </trkpt>
      <trkpt lat="42.69677100000036" lon="-1.7881070000000052">
        <ele>409.204</ele>
        <time>2022-08-25T09:15:10Z</time>
      </trkpt>
      <trkpt lat="42.69655000000036" lon="-1.7883180000000052">
        <ele>408.614</ele>
        <time>2022-08-25T09:15:13Z</time>
      </trkpt>
      <trkpt lat="42.69647600000036" lon="-1.7883860000000051">
        <ele>408.609</ele>
        <time>2022-08-25T09:15:14Z</time>
      </trkpt>
      <trkpt lat="42.696404000000356" lon="-1.788454000000005">
        <ele>408.443</ele>
        <time>2022-08-25T09:15:15Z</time>
      </trkpt>
      <trkpt lat="42.696346000000354" lon="-1.788509000000005">
        <ele>408.213</ele>
        <time>2022-08-25T09:15:16Z</time>
      </trkpt>
      <trkpt lat="42.696275000000355" lon="-1.788577000000005">
        <ele>408.263</ele>
        <time>2022-08-25T09:15:17Z</time>
      </trkpt>
      <trkpt lat="42.696047000000355" lon="-1.788790000000005">
        <ele>407.689</ele>
        <time>2022-08-25T09:15:20Z</time>
      </trkpt>
      <trkpt lat="42.69569700000036" lon="-1.789114000000005">
        <ele>406.491</ele>
        <time>2022-08-25T09:15:25Z</time>
      </trkpt>
      <trkpt lat="42.69546800000036" lon="-1.789326000000005">
        <ele>405.238</ele>
        <time>2022-08-25T09:15:28Z</time>
      </trkpt>
      <trkpt lat="42.695295000000364" lon="-1.789483000000005">
        <ele>404.641</ele>
        <time>2022-08-25T09:15:30Z</time>
      </trkpt>
      <trkpt lat="42.69521700000036" lon="-1.7895520000000051">
        <ele>404.437</ele>
        <time>2022-08-25T09:15:31Z</time>
      </trkpt>
      <trkpt lat="42.69515600000036" lon="-1.789607000000005">
        <ele>404.088</ele>
        <time>2022-08-25T09:15:32Z</time>
      </trkpt>
      <trkpt lat="42.69490900000036" lon="-1.789832000000005">
        <ele>402.888</ele>
        <time>2022-08-25T09:15:35Z</time>
      </trkpt>
      <trkpt lat="42.69483200000036" lon="-1.789900000000005">
        <ele>402.624</ele>
        <time>2022-08-25T09:15:36Z</time>
      </trkpt>
      <trkpt lat="42.69477100000036" lon="-1.789954000000005">
        <ele>402.026</ele>
        <time>2022-08-25T09:15:37Z</time>
      </trkpt>
      <trkpt lat="42.69469700000036" lon="-1.7900200000000048">
        <ele>401.809</ele>
        <time>2022-08-25T09:15:38Z</time>
      </trkpt>
      <trkpt lat="42.69462500000036" lon="-1.7900850000000048">
        <ele>401.099</ele>
        <time>2022-08-25T09:15:39Z</time>
      </trkpt>
      <trkpt lat="42.69454200000036" lon="-1.790154000000005">
        <ele>400.289</ele>
        <time>2022-08-25T09:15:40Z</time>
      </trkpt>
      <trkpt lat="42.694476000000364" lon="-1.7902010000000048">
        <ele>399.889</ele>
        <time>2022-08-25T09:15:41Z</time>
      </trkpt>
      <trkpt lat="42.69441200000036" lon="-1.7902380000000049">
        <ele>399.085</ele>
        <time>2022-08-25T09:15:42Z</time>
      </trkpt>
      <trkpt lat="42.69436200000036" lon="-1.7902570000000049">
        <ele>398.817</ele>
        <time>2022-08-25T09:15:43Z</time>
      </trkpt>
      <trkpt lat="42.69430000000036" lon="-1.7902740000000048">
        <ele>398.424</ele>
        <time>2022-08-25T09:15:44Z</time>
      </trkpt>
      <trkpt lat="42.694234000000364" lon="-1.7902830000000047">
        <ele>398.247</ele>
        <time>2022-08-25T09:15:45Z</time>
      </trkpt>
      <trkpt lat="42.69418700000036" lon="-1.7902850000000048">
        <ele>398.093</ele>
        <time>2022-08-25T09:15:46Z</time>
      </trkpt>
      <trkpt lat="42.694155000000364" lon="-1.7902860000000047">
        <ele>397.834</ele>
        <time>2022-08-25T09:15:47Z</time>
      </trkpt>
      <trkpt lat="42.69411700000036" lon="-1.7902920000000047">
        <ele>397.655</ele>
        <time>2022-08-25T09:15:48Z</time>
      </trkpt>
      <trkpt lat="42.694082000000364" lon="-1.7903070000000048">
        <ele>397.207</ele>
        <time>2022-08-25T09:15:49Z</time>
      </trkpt>
      <trkpt lat="42.69404900000036" lon="-1.7903320000000047">
        <ele>397.217</ele>
        <time>2022-08-25T09:15:50Z</time>
      </trkpt>
      <trkpt lat="42.69402600000036" lon="-1.7903540000000047">
        <ele>396.609</ele>
        <time>2022-08-25T09:15:51Z</time>
      </trkpt>
      <trkpt lat="42.69400700000036" lon="-1.7903790000000046">
        <ele>396.616</ele>
        <time>2022-08-25T09:15:52Z</time>
      </trkpt>
      <trkpt lat="42.69399600000036" lon="-1.7904010000000046">
        <ele>396.036</ele>
        <time>2022-08-25T09:15:53Z</time>
      </trkpt>
      <trkpt lat="42.69398800000036" lon="-1.7904320000000045">
        <ele>395.626</ele>
        <time>2022-08-25T09:15:54Z</time>
      </trkpt>
      <trkpt lat="42.69399100000036" lon="-1.7904690000000045">
        <ele>395.462</ele>
        <time>2022-08-25T09:15:55Z</time>
      </trkpt>
      <trkpt lat="42.693998000000356" lon="-1.7905040000000045">
        <ele>395.214</ele>
        <time>2022-08-25T09:15:56Z</time>
      </trkpt>
      <trkpt lat="42.694012000000356" lon="-1.7905690000000045">
        <ele>395.281</ele>
        <time>2022-08-25T09:15:58Z</time>
      </trkpt>
      <trkpt lat="42.69402200000036" lon="-1.7906090000000046">
        <ele>395.224</ele>
        <time>2022-08-25T09:15:59Z</time>
      </trkpt>
      <trkpt lat="42.69406600000036" lon="-1.7907760000000046">
        <ele>395.630</ele>
        <time>2022-08-25T09:16:03Z</time>
      </trkpt>
      <trkpt lat="42.69406700000036" lon="-1.7908870000000046">
        <ele>395.831</ele>
        <time>2022-08-25T09:16:05Z</time>
      </trkpt>
      <trkpt lat="42.69405400000036" lon="-1.7909440000000045">
        <ele>395.895</ele>
        <time>2022-08-25T09:16:06Z</time>
      </trkpt>
      <trkpt lat="42.69403700000036" lon="-1.7910000000000046">
        <ele>395.849</ele>
        <time>2022-08-25T09:16:07Z</time>
      </trkpt>
      <trkpt lat="42.69401700000036" lon="-1.7910400000000046">
        <ele>395.823</ele>
        <time>2022-08-25T09:16:08Z</time>
      </trkpt>
      <trkpt lat="42.693987000000355" lon="-1.7910860000000046">
        <ele>395.809</ele>
        <time>2022-08-25T09:16:09Z</time>
      </trkpt>
      <trkpt lat="42.69394300000035" lon="-1.7911300000000046">
        <ele>395.840</ele>
        <time>2022-08-25T09:16:10Z</time>
      </trkpt>
      <trkpt lat="42.69390200000035" lon="-1.7911550000000045">
        <ele>395.850</ele>
        <time>2022-08-25T09:16:11Z</time>
      </trkpt>
      <trkpt lat="42.69385800000035" lon="-1.7911720000000044">
        <ele>395.890</ele>
        <time>2022-08-25T09:16:12Z</time>
      </trkpt>
      <trkpt lat="42.69382100000035" lon="-1.7911750000000044">
        <ele>395.696</ele>
        <time>2022-08-25T09:16:13Z</time>
      </trkpt>
      <trkpt lat="42.69377500000035" lon="-1.7911720000000044">
        <ele>395.648</ele>
        <time>2022-08-25T09:16:14Z</time>
      </trkpt>
      <trkpt lat="42.69373000000035" lon="-1.7911620000000044">
        <ele>395.425</ele>
        <time>2022-08-25T09:16:15Z</time>
      </trkpt>
      <trkpt lat="42.69367400000035" lon="-1.7911440000000043">
        <ele>395.268</ele>
        <time>2022-08-25T09:16:16Z</time>
      </trkpt>
      <trkpt lat="42.69362600000035" lon="-1.7911320000000044">
        <ele>395.054</ele>
        <time>2022-08-25T09:16:17Z</time>
      </trkpt>
      <trkpt lat="42.69353600000035" lon="-1.7911330000000043">
        <ele>395.065</ele>
        <time>2022-08-25T09:16:19Z</time>
      </trkpt>
      <trkpt lat="42.69348400000035" lon="-1.7911460000000043">
        <ele>394.861</ele>
        <time>2022-08-25T09:16:20Z</time>
      </trkpt>
      <trkpt lat="42.69342600000035" lon="-1.7911770000000042">
        <ele>394.821</ele>
        <time>2022-08-25T09:16:21Z</time>
      </trkpt>
      <trkpt lat="42.69338100000035" lon="-1.7912130000000042">
        <ele>394.613</ele>
        <time>2022-08-25T09:16:22Z</time>
      </trkpt>
      <trkpt lat="42.69333900000035" lon="-1.7912530000000042">
        <ele>394.409</ele>
        <time>2022-08-25T09:16:23Z</time>
      </trkpt>
      <trkpt lat="42.69330500000035" lon="-1.791284000000004">
        <ele>394.287</ele>
        <time>2022-08-25T09:16:24Z</time>
      </trkpt>
      <trkpt lat="42.69294000000035" lon="-1.7916180000000042">
        <ele>393.637</ele>
        <time>2022-08-25T09:16:32Z</time>
      </trkpt>
      <trkpt lat="42.692896000000346" lon="-1.791659000000004">
        <ele>393.647</ele>
        <time>2022-08-25T09:16:33Z</time>
      </trkpt>
      <trkpt lat="42.692446000000345" lon="-1.792073000000004">
        <ele>393.223</ele>
        <time>2022-08-25T09:16:43Z</time>
      </trkpt>
      <trkpt lat="42.69240800000034" lon="-1.792108000000004">
        <ele>392.875</ele>
        <time>2022-08-25T09:16:44Z</time>
      </trkpt>
      <trkpt lat="42.69236100000034" lon="-1.792151000000004">
        <ele>392.892</ele>
        <time>2022-08-25T09:16:45Z</time>
      </trkpt>
      <trkpt lat="42.69221700000034" lon="-1.792276000000004">
        <ele>392.685</ele>
        <time>2022-08-25T09:16:48Z</time>
      </trkpt>
      <trkpt lat="42.69197000000034" lon="-1.792507000000004">
        <ele>392.231</ele>
        <time>2022-08-25T09:16:53Z</time>
      </trkpt>
      <trkpt lat="42.691535000000336" lon="-1.7929000000000042">
        <ele>391.632</ele>
        <time>2022-08-25T09:17:02Z</time>
      </trkpt>
      <trkpt lat="42.69105600000034" lon="-1.793341000000004">
        <ele>391.064</ele>
        <time>2022-08-25T09:17:11Z</time>
      </trkpt>
      <trkpt lat="42.690685000000336" lon="-1.7936830000000041">
        <ele>390.606</ele>
        <time>2022-08-25T09:17:18Z</time>
      </trkpt>
      <trkpt lat="42.690564000000336" lon="-1.7937900000000042">
        <ele>390.416</ele>
        <time>2022-08-25T09:17:20Z</time>
      </trkpt>
      <trkpt lat="42.69040900000034" lon="-1.7939330000000042">
        <ele>390.209</ele>
        <time>2022-08-25T09:17:23Z</time>
      </trkpt>
      <trkpt lat="42.69035500000034" lon="-1.7939840000000042">
        <ele>390.247</ele>
        <time>2022-08-25T09:17:24Z</time>
      </trkpt>
      <trkpt lat="42.690288000000336" lon="-1.7940410000000042">
        <ele>390.047</ele>
        <time>2022-08-25T09:17:25Z</time>
      </trkpt>
      <trkpt lat="42.69023600000034" lon="-1.7940900000000042">
        <ele>390.087</ele>
        <time>2022-08-25T09:17:26Z</time>
      </trkpt>
      <trkpt lat="42.69018500000034" lon="-1.7941400000000043">
        <ele>390.023</ele>
        <time>2022-08-25T09:17:27Z</time>
      </trkpt>
      <trkpt lat="42.69014400000034" lon="-1.7941790000000042">
        <ele>389.835</ele>
        <time>2022-08-25T09:17:28Z</time>
      </trkpt>
      <trkpt lat="42.69009300000034" lon="-1.794226000000004">
        <ele>389.872</ele>
        <time>2022-08-25T09:17:29Z</time>
      </trkpt>
      <trkpt lat="42.69003000000034" lon="-1.7942820000000042">
        <ele>389.875</ele>
        <time>2022-08-25T09:17:30Z</time>
      </trkpt>
      <trkpt lat="42.68992900000034" lon="-1.794375000000004">
        <ele>389.661</ele>
        <time>2022-08-25T09:17:32Z</time>
      </trkpt>
      <trkpt lat="42.68946800000034" lon="-1.794812000000004">
        <ele>388.872</ele>
        <time>2022-08-25T09:17:41Z</time>
      </trkpt>
      <trkpt lat="42.68941600000034" lon="-1.7948600000000041">
        <ele>388.658</ele>
        <time>2022-08-25T09:17:42Z</time>
      </trkpt>
      <trkpt lat="42.68930700000034" lon="-1.7949560000000042">
        <ele>388.452</ele>
        <time>2022-08-25T09:17:44Z</time>
      </trkpt>
      <trkpt lat="42.68895800000034" lon="-1.7952730000000041">
        <ele>387.817</ele>
        <time>2022-08-25T09:17:50Z</time>
      </trkpt>
      <trkpt lat="42.68890000000034" lon="-1.7953270000000041">
        <ele>387.809</ele>
        <time>2022-08-25T09:17:51Z</time>
      </trkpt>
      <trkpt lat="42.688853000000336" lon="-1.795371000000004">
        <ele>387.466</ele>
        <time>2022-08-25T09:17:52Z</time>
      </trkpt>
      <trkpt lat="42.68879500000033" lon="-1.795426000000004">
        <ele>387.486</ele>
        <time>2022-08-25T09:17:53Z</time>
      </trkpt>
      <trkpt lat="42.68841200000033" lon="-1.7957780000000039">
        <ele>387.096</ele>
        <time>2022-08-25T09:17:59Z</time>
      </trkpt>
      <trkpt lat="42.688155000000336" lon="-1.796009000000004">
        <ele>386.472</ele>
        <time>2022-08-25T09:18:03Z</time>
      </trkpt>
      <trkpt lat="42.688077000000334" lon="-1.7960830000000039">
        <ele>386.074</ele>
        <time>2022-08-25T09:18:04Z</time>
      </trkpt>
      <trkpt lat="42.687885000000335" lon="-1.796266000000004">
        <ele>385.631</ele>
        <time>2022-08-25T09:18:07Z</time>
      </trkpt>
      <trkpt lat="42.687820000000336" lon="-1.7963260000000039">
        <ele>385.444</ele>
        <time>2022-08-25T09:18:08Z</time>
      </trkpt>
      <trkpt lat="42.687758000000336" lon="-1.796382000000004">
        <ele>385.240</ele>
        <time>2022-08-25T09:18:09Z</time>
      </trkpt>
      <trkpt lat="42.68769600000034" lon="-1.796439000000004">
        <ele>385.261</ele>
        <time>2022-08-25T09:18:10Z</time>
      </trkpt>
      <trkpt lat="42.68763400000034" lon="-1.7964940000000038">
        <ele>385.239</ele>
        <time>2022-08-25T09:18:11Z</time>
      </trkpt>
      <trkpt lat="42.68757400000034" lon="-1.7965500000000039">
        <ele>385.201</ele>
        <time>2022-08-25T09:18:12Z</time>
      </trkpt>
      <trkpt lat="42.68751500000034" lon="-1.7966040000000039">
        <ele>385.221</ele>
        <time>2022-08-25T09:18:13Z</time>
      </trkpt>
      <trkpt lat="42.68727300000034" lon="-1.7968320000000038">
        <ele>384.809</ele>
        <time>2022-08-25T09:18:17Z</time>
      </trkpt>
      <trkpt lat="42.68721100000034" lon="-1.7968900000000037">
        <ele>384.444</ele>
        <time>2022-08-25T09:18:18Z</time>
      </trkpt>
      <trkpt lat="42.687091000000336" lon="-1.7970070000000036">
        <ele>384.234</ele>
        <time>2022-08-25T09:18:20Z</time>
      </trkpt>
      <trkpt lat="42.68679100000033" lon="-1.7972860000000035">
        <ele>383.864</ele>
        <time>2022-08-25T09:18:25Z</time>
      </trkpt>
      <trkpt lat="42.68673000000033" lon="-1.7973410000000034">
        <ele>383.680</ele>
        <time>2022-08-25T09:18:26Z</time>
      </trkpt>
      <trkpt lat="42.68654700000033" lon="-1.7975050000000035">
        <ele>383.292</ele>
        <time>2022-08-25T09:18:29Z</time>
      </trkpt>
      <trkpt lat="42.68604800000033" lon="-1.7979730000000034">
        <ele>382.629</ele>
        <time>2022-08-25T09:18:37Z</time>
      </trkpt>
      <trkpt lat="42.68571400000033" lon="-1.7982850000000035">
        <ele>382.452</ele>
        <time>2022-08-25T09:18:42Z</time>
      </trkpt>
      <trkpt lat="42.68559000000033" lon="-1.7983930000000035">
        <ele>382.058</ele>
        <time>2022-08-25T09:18:44Z</time>
      </trkpt>
      <trkpt lat="42.68529200000033" lon="-1.7986610000000034">
        <ele>381.269</ele>
        <time>2022-08-25T09:18:48Z</time>
      </trkpt>
      <trkpt lat="42.68492700000033" lon="-1.7989950000000035">
        <ele>380.078</ele>
        <time>2022-08-25T09:18:53Z</time>
      </trkpt>
      <trkpt lat="42.68477800000033" lon="-1.7991330000000034">
        <ele>379.633</ele>
        <time>2022-08-25T09:18:55Z</time>
      </trkpt>
      <trkpt lat="42.68447600000033" lon="-1.7994180000000035">
        <ele>379.026</ele>
        <time>2022-08-25T09:18:59Z</time>
      </trkpt>
      <trkpt lat="42.68424000000033" lon="-1.7996390000000035">
        <ele>377.809</ele>
        <time>2022-08-25T09:19:02Z</time>
      </trkpt>
      <trkpt lat="42.68399800000033" lon="-1.7998610000000035">
        <ele>377.228</ele>
        <time>2022-08-25T09:19:05Z</time>
      </trkpt>
      <trkpt lat="42.68383500000033" lon="-1.8000140000000036">
        <ele>376.688</ele>
        <time>2022-08-25T09:19:07Z</time>
      </trkpt>
      <trkpt lat="42.68358500000033" lon="-1.8002440000000035">
        <ele>375.278</ele>
        <time>2022-08-25T09:19:10Z</time>
      </trkpt>
      <trkpt lat="42.683172000000326" lon="-1.8006230000000034">
        <ele>374.034</ele>
        <time>2022-08-25T09:19:15Z</time>
      </trkpt>
      <trkpt lat="42.68309000000033" lon="-1.8006960000000034">
        <ele>373.876</ele>
        <time>2022-08-25T09:19:16Z</time>
      </trkpt>
      <trkpt lat="42.68284700000033" lon="-1.8009200000000034">
        <ele>372.863</ele>
        <time>2022-08-25T09:19:19Z</time>
      </trkpt>
      <trkpt lat="42.68260300000033" lon="-1.8011350000000035">
        <ele>371.856</ele>
        <time>2022-08-25T09:19:22Z</time>
      </trkpt>
      <trkpt lat="42.68228700000033" lon="-1.8014270000000034">
        <ele>370.652</ele>
        <time>2022-08-25T09:19:26Z</time>
      </trkpt>
      <trkpt lat="42.681897000000326" lon="-1.8017830000000035">
        <ele>369.673</ele>
        <time>2022-08-25T09:19:31Z</time>
      </trkpt>
      <trkpt lat="42.681822000000324" lon="-1.8018540000000034">
        <ele>369.424</ele>
        <time>2022-08-25T09:19:32Z</time>
      </trkpt>
      <trkpt lat="42.68167100000032" lon="-1.8019960000000035">
        <ele>369.004</ele>
        <time>2022-08-25T09:19:34Z</time>
      </trkpt>
      <trkpt lat="42.68151900000032" lon="-1.8021370000000034">
        <ele>368.414</ele>
        <time>2022-08-25T09:19:36Z</time>
      </trkpt>
      <trkpt lat="42.68144600000032" lon="-1.8022100000000034">
        <ele>368.209</ele>
        <time>2022-08-25T09:19:37Z</time>
      </trkpt>
      <trkpt lat="42.68129400000032" lon="-1.8023490000000033">
        <ele>367.823</ele>
        <time>2022-08-25T09:19:39Z</time>
      </trkpt>
      <trkpt lat="42.68122000000032" lon="-1.8024160000000033">
        <ele>367.633</ele>
        <time>2022-08-25T09:19:40Z</time>
      </trkpt>
      <trkpt lat="42.68114800000032" lon="-1.8024830000000034">
        <ele>367.223</ele>
        <time>2022-08-25T09:19:41Z</time>
      </trkpt>
      <trkpt lat="42.68107800000032" lon="-1.8025490000000033">
        <ele>367.269</ele>
        <time>2022-08-25T09:19:42Z</time>
      </trkpt>
      <trkpt lat="42.68093500000032" lon="-1.8026790000000033">
        <ele>366.621</ele>
        <time>2022-08-25T09:19:44Z</time>
      </trkpt>
      <trkpt lat="42.68086400000032" lon="-1.8027440000000032">
        <ele>366.428</ele>
        <time>2022-08-25T09:19:45Z</time>
      </trkpt>
      <trkpt lat="42.680795000000316" lon="-1.8028090000000032">
        <ele>366.211</ele>
        <time>2022-08-25T09:19:46Z</time>
      </trkpt>
      <trkpt lat="42.68072600000031" lon="-1.8028740000000032">
        <ele>366.277</ele>
        <time>2022-08-25T09:19:47Z</time>
      </trkpt>
      <trkpt lat="42.680658000000314" lon="-1.8029370000000031">
        <ele>366.028</ele>
        <time>2022-08-25T09:19:48Z</time>
      </trkpt>
      <trkpt lat="42.68059200000032" lon="-1.8029960000000032">
        <ele>365.876</ele>
        <time>2022-08-25T09:19:49Z</time>
      </trkpt>
      <trkpt lat="42.68052600000032" lon="-1.803056000000003">
        <ele>365.690</ele>
        <time>2022-08-25T09:19:50Z</time>
      </trkpt>
      <trkpt lat="42.68046100000032" lon="-1.8031170000000032">
        <ele>365.419</ele>
        <time>2022-08-25T09:19:51Z</time>
      </trkpt>
      <trkpt lat="42.680395000000324" lon="-1.8031760000000032">
        <ele>365.209</ele>
        <time>2022-08-25T09:19:52Z</time>
      </trkpt>
      <trkpt lat="42.680268000000325" lon="-1.8032930000000031">
        <ele>365.048</ele>
        <time>2022-08-25T09:19:54Z</time>
      </trkpt>
      <trkpt lat="42.68014200000032" lon="-1.803415000000003">
        <ele>364.838</ele>
        <time>2022-08-25T09:19:56Z</time>
      </trkpt>
      <trkpt lat="42.68008000000032" lon="-1.803470000000003">
        <ele>364.618</ele>
        <time>2022-08-25T09:19:57Z</time>
      </trkpt>
      <trkpt lat="42.680015000000324" lon="-1.803524000000003">
        <ele>364.254</ele>
        <time>2022-08-25T09:19:58Z</time>
      </trkpt>
      <trkpt lat="42.67989300000033" lon="-1.803632000000003">
        <ele>363.856</ele>
        <time>2022-08-25T09:20:00Z</time>
      </trkpt>
      <trkpt lat="42.679592000000326" lon="-1.803916000000003">
        <ele>362.873</ele>
        <time>2022-08-25T09:20:05Z</time>
      </trkpt>
      <trkpt lat="42.67921400000033" lon="-1.804288000000003">
        <ele>361.836</ele>
        <time>2022-08-25T09:20:11Z</time>
      </trkpt>
      <trkpt lat="42.679153000000326" lon="-1.804348000000003">
        <ele>361.692</ele>
        <time>2022-08-25T09:20:12Z</time>
      </trkpt>
      <trkpt lat="42.67909000000033" lon="-1.8044110000000029">
        <ele>361.463</ele>
        <time>2022-08-25T09:20:13Z</time>
      </trkpt>
      <trkpt lat="42.67902900000033" lon="-1.8044740000000028">
        <ele>361.283</ele>
        <time>2022-08-25T09:20:14Z</time>
      </trkpt>
      <trkpt lat="42.67890800000033" lon="-1.8045940000000027">
        <ele>361.225</ele>
        <time>2022-08-25T09:20:16Z</time>
      </trkpt>
      <trkpt lat="42.678847000000324" lon="-1.8046500000000028">
        <ele>361.017</ele>
        <time>2022-08-25T09:20:17Z</time>
      </trkpt>
      <trkpt lat="42.67860000000032" lon="-1.8048740000000028">
        <ele>360.809</ele>
        <time>2022-08-25T09:20:21Z</time>
      </trkpt>
      <trkpt lat="42.67814700000032" lon="-1.8052900000000027">
        <ele>360.279</ele>
        <time>2022-08-25T09:20:28Z</time>
      </trkpt>
      <trkpt lat="42.677952000000325" lon="-1.8054730000000028">
        <ele>359.879</ele>
        <time>2022-08-25T09:20:31Z</time>
      </trkpt>
      <trkpt lat="42.677834000000324" lon="-1.8055820000000027">
        <ele>359.859</ele>
        <time>2022-08-25T09:20:33Z</time>
      </trkpt>
      <trkpt lat="42.677507000000325" lon="-1.8058840000000027">
        <ele>359.485</ele>
        <time>2022-08-25T09:20:38Z</time>
      </trkpt>
      <trkpt lat="42.67731100000032" lon="-1.8060580000000026">
        <ele>359.267</ele>
        <time>2022-08-25T09:20:41Z</time>
      </trkpt>
      <trkpt lat="42.67718500000032" lon="-1.8061750000000025">
        <ele>359.214</ele>
        <time>2022-08-25T09:20:43Z</time>
      </trkpt>
      <trkpt lat="42.67697700000032" lon="-1.8063640000000025">
        <ele>359.097</ele>
        <time>2022-08-25T09:20:46Z</time>
      </trkpt>
      <trkpt lat="42.67692000000032" lon="-1.8064130000000025">
        <ele>358.873</ele>
        <time>2022-08-25T09:20:47Z</time>
      </trkpt>
      <trkpt lat="42.67688300000032" lon="-1.8064520000000024">
        <ele>358.614</ele>
        <time>2022-08-25T09:20:48Z</time>
      </trkpt>
      <trkpt lat="42.676866000000324" lon="-1.8064880000000023">
        <ele>358.464</ele>
        <time>2022-08-25T09:20:49Z</time>
      </trkpt>
      <trkpt lat="42.676860000000325" lon="-1.8065250000000024">
        <ele>358.206</ele>
        <time>2022-08-25T09:20:50Z</time>
      </trkpt>
      <trkpt lat="42.67685900000033" lon="-1.8065470000000023">
        <ele>358.216</ele>
        <time>2022-08-25T09:20:51Z</time>
      </trkpt>
      <trkpt lat="42.67684700000033" lon="-1.8065730000000024">
        <ele>357.609</ele>
        <time>2022-08-25T09:21:09Z</time>
      </trkpt>
      <trkpt lat="42.67683500000033" lon="-1.8065910000000025">
        <ele>357.627</ele>
        <time>2022-08-25T09:21:10Z</time>
      </trkpt>
      <trkpt lat="42.67678200000033" lon="-1.8066310000000025">
        <ele>357.637</ele>
        <time>2022-08-25T09:21:13Z</time>
      </trkpt>
      <trkpt lat="42.67675900000033" lon="-1.8066370000000025">
        <ele>357.677</ele>
        <time>2022-08-25T09:21:14Z</time>
      </trkpt>
      <trkpt lat="42.67673600000033" lon="-1.8066420000000025">
        <ele>357.643</ele>
        <time>2022-08-25T09:21:15Z</time>
      </trkpt>
      <trkpt lat="42.67670800000033" lon="-1.8066520000000026">
        <ele>357.465</ele>
        <time>2022-08-25T09:21:16Z</time>
      </trkpt>
      <trkpt lat="42.67669200000033" lon="-1.8066550000000026">
        <ele>357.482</ele>
        <time>2022-08-25T09:21:17Z</time>
      </trkpt>
      <trkpt lat="42.67667900000033" lon="-1.8066550000000026">
        <ele>357.235</ele>
        <time>2022-08-25T09:21:18Z</time>
      </trkpt>
      <trkpt lat="42.67667200000033" lon="-1.8066530000000025">
        <ele>357.221</ele>
        <time>2022-08-25T09:21:19Z</time>
      </trkpt>
      <trkpt lat="42.67664000000033" lon="-1.8066340000000025">
        <ele>357.012</ele>
        <time>2022-08-25T09:21:25Z</time>
      </trkpt>
      <trkpt lat="42.67656800000033" lon="-1.8065430000000025">
        <ele>357.232</ele>
        <time>2022-08-25T09:21:30Z</time>
      </trkpt>
      <trkpt lat="42.67656600000033" lon="-1.8065060000000024">
        <ele>357.292</ele>
        <time>2022-08-25T09:21:31Z</time>
      </trkpt>
      <trkpt lat="42.676553000000325" lon="-1.8062830000000023">
        <ele>357.211</ele>
        <time>2022-08-25T09:21:36Z</time>
      </trkpt>
      <trkpt lat="42.67649500000032" lon="-1.8061030000000022">
        <ele>356.809</ele>
        <time>2022-08-25T09:21:40Z</time>
      </trkpt>
      <trkpt lat="42.67647300000032" lon="-1.8060900000000022">
        <ele>356.844</ele>
        <time>2022-08-25T09:21:41Z</time>
      </trkpt>
      <trkpt lat="42.67645100000032" lon="-1.8060930000000022">
        <ele>356.484</ele>
        <time>2022-08-25T09:21:42Z</time>
      </trkpt>
      <trkpt lat="42.67643300000032" lon="-1.8061070000000021">
        <ele>356.484</ele>
        <time>2022-08-25T09:21:43Z</time>
      </trkpt>
      <trkpt lat="42.67642000000032" lon="-1.806127000000002">
        <ele>356.280</ele>
        <time>2022-08-25T09:21:44Z</time>
      </trkpt>
      <trkpt lat="42.67641600000032" lon="-1.806147000000002">
        <ele>356.082</ele>
        <time>2022-08-25T09:21:45Z</time>
      </trkpt>
      <trkpt lat="42.67641100000032" lon="-1.806169000000002">
        <ele>356.019</ele>
        <time>2022-08-25T09:21:46Z</time>
      </trkpt>
      <trkpt lat="42.676407000000324" lon="-1.806187000000002">
        <ele>355.852</ele>
        <time>2022-08-25T09:21:47Z</time>
      </trkpt>
      <trkpt lat="42.67640500000032" lon="-1.806201000000002">
        <ele>355.828</ele>
        <time>2022-08-25T09:21:48Z</time>
      </trkpt>
      <trkpt lat="42.67640300000032" lon="-1.8062130000000018">
        <ele>355.839</ele>
        <time>2022-08-25T09:21:49Z</time>
      </trkpt>
      <trkpt lat="42.67640200000032" lon="-1.8062250000000017">
        <ele>355.827</ele>
        <time>2022-08-25T09:21:50Z</time>
      </trkpt>
      <trkpt lat="42.67640300000032" lon="-1.8062350000000018">
        <ele>355.868</ele>
        <time>2022-08-25T09:21:51Z</time>
      </trkpt>
      <trkpt lat="42.67640300000032" lon="-1.8062480000000019">
        <ele>356.014</ele>
        <time>2022-08-25T09:21:52Z</time>
      </trkpt>
      <trkpt lat="42.67639300000032" lon="-1.8062840000000018">
        <ele>356.009</ele>
        <time>2022-08-25T09:21:54Z</time>
      </trkpt>
      <trkpt lat="42.67636700000032" lon="-1.8063800000000019">
        <ele>356.063</ele>
        <time>2022-08-25T09:21:58Z</time>
      </trkpt>
      <trkpt lat="42.67636400000032" lon="-1.806401000000002">
        <ele>356.243</ele>
        <time>2022-08-25T09:21:59Z</time>
      </trkpt>
      <trkpt lat="42.67636500000032" lon="-1.806414000000002">
        <ele>356.243</ele>
        <time>2022-08-25T09:22:00Z</time>
      </trkpt>
      <trkpt lat="42.67636700000032" lon="-1.806427000000002">
        <ele>356.479</ele>
        <time>2022-08-25T09:22:01Z</time>
      </trkpt>
      <trkpt lat="42.67637000000032" lon="-1.806438000000002">
        <ele>356.431</ele>
        <time>2022-08-25T09:22:02Z</time>
      </trkpt>
      <trkpt lat="42.67636900000032" lon="-1.806454000000002">
        <ele>356.448</ele>
        <time>2022-08-25T09:22:03Z</time>
      </trkpt>
      <trkpt lat="42.67632500000032" lon="-1.806513000000002">
        <ele>356.661</ele>
        <time>2022-08-25T09:22:07Z</time>
      </trkpt>
      <trkpt lat="42.676315000000315" lon="-1.806525000000002">
        <ele>356.697</ele>
        <time>2022-08-25T09:22:08Z</time>
      </trkpt>
      <trkpt lat="42.676307000000314" lon="-1.806538000000002">
        <ele>356.658</ele>
        <time>2022-08-25T09:22:09Z</time>
      </trkpt>
      <trkpt lat="42.67630200000031" lon="-1.806549000000002">
        <ele>356.888</ele>
        <time>2022-08-25T09:22:10Z</time>
      </trkpt>
      <trkpt lat="42.67629700000031" lon="-1.806563000000002">
        <ele>356.824</ele>
        <time>2022-08-25T09:22:11Z</time>
      </trkpt>
      <trkpt lat="42.67629200000031" lon="-1.8065800000000019">
        <ele>356.826</ele>
        <time>2022-08-25T09:22:12Z</time>
      </trkpt>
      <trkpt lat="42.67628600000031" lon="-1.8065940000000018">
        <ele>356.809</ele>
        <time>2022-08-25T09:22:13Z</time>
      </trkpt>
      <trkpt lat="42.67627300000031" lon="-1.8066080000000018">
        <ele>356.849</ele>
        <time>2022-08-25T09:22:14Z</time>
      </trkpt>
      <trkpt lat="42.676243000000305" lon="-1.8066270000000018">
        <ele>356.859</ele>
        <time>2022-08-25T09:22:16Z</time>
      </trkpt>
      <trkpt lat="42.6762300000003" lon="-1.8066360000000017">
        <ele>356.689</ele>
        <time>2022-08-25T09:22:17Z</time>
      </trkpt>
      <trkpt lat="42.6762190000003" lon="-1.8066460000000018">
        <ele>356.665</ele>
        <time>2022-08-25T09:22:18Z</time>
      </trkpt>
      <trkpt lat="42.6762100000003" lon="-1.8066610000000018">
        <ele>356.657</ele>
        <time>2022-08-25T09:22:19Z</time>
      </trkpt>
      <trkpt lat="42.6762000000003" lon="-1.806679000000002">
        <ele>356.434</ele>
        <time>2022-08-25T09:22:20Z</time>
      </trkpt>
      <trkpt lat="42.6761860000003" lon="-1.8066960000000019">
        <ele>356.427</ele>
        <time>2022-08-25T09:22:21Z</time>
      </trkpt>
      <trkpt lat="42.6761690000003" lon="-1.8066970000000018">
        <ele>356.453</ele>
        <time>2022-08-25T09:22:22Z</time>
      </trkpt>
      <trkpt lat="42.6761590000003" lon="-1.8066850000000019">
        <ele>356.424</ele>
        <time>2022-08-25T09:22:23Z</time>
      </trkpt>
      <trkpt lat="42.6761700000003" lon="-1.8066560000000018">
        <ele>356.226</ele>
        <time>2022-08-25T09:22:25Z</time>
      </trkpt>
      <trkpt lat="42.6761870000003" lon="-1.8066410000000017">
        <ele>356.247</ele>
        <time>2022-08-25T09:22:26Z</time>
      </trkpt>
      <trkpt lat="42.6762450000003" lon="-1.8065760000000017">
        <ele>356.211</ele>
        <time>2022-08-25T09:22:29Z</time>
      </trkpt>
      <trkpt lat="42.6762510000003" lon="-1.8065550000000017">
        <ele>356.409</ele>
        <time>2022-08-25T09:22:30Z</time>
      </trkpt>
      <trkpt lat="42.6762540000003" lon="-1.8065430000000018">
        <ele>356.413</ele>
        <time>2022-08-25T09:22:31Z</time>
      </trkpt>
      <trkpt lat="42.676193000000296" lon="-1.8064620000000018">
        <ele>354.253</ele>
        <time>2022-08-25T09:48:39Z</time>
      </trkpt>
      <trkpt lat="42.676205000000294" lon="-1.8064470000000017">
        <ele>354.643</ele>
        <time>2022-08-25T09:48:40Z</time>
      </trkpt>
      <trkpt lat="42.67620300000029" lon="-1.8066400000000018">
        <ele>354.429</ele>
        <time>2022-08-25T09:49:27Z</time>
      </trkpt>
      <trkpt lat="42.676115000000294" lon="-1.8067910000000018">
        <ele>354.271</ele>
        <time>2022-08-25T09:49:32Z</time>
      </trkpt>
      <trkpt lat="42.675954000000296" lon="-1.806952000000002">
        <ele>353.668</ele>
        <time>2022-08-25T09:49:38Z</time>
      </trkpt>
      <trkpt lat="42.67589600000029" lon="-1.8069900000000019">
        <ele>353.291</ele>
        <time>2022-08-25T09:49:40Z</time>
      </trkpt>
      <trkpt lat="42.67586900000029" lon="-1.8070100000000018">
        <ele>353.067</ele>
        <time>2022-08-25T09:49:41Z</time>
      </trkpt>
      <trkpt lat="42.67584200000029" lon="-1.8070280000000019">
        <ele>353.058</ele>
        <time>2022-08-25T09:49:42Z</time>
      </trkpt>
      <trkpt lat="42.67582100000029" lon="-1.8070470000000018">
        <ele>352.892</ele>
        <time>2022-08-25T09:49:43Z</time>
      </trkpt>
      <trkpt lat="42.67579700000029" lon="-1.807068000000002">
        <ele>352.873</ele>
        <time>2022-08-25T09:49:44Z</time>
      </trkpt>
      <trkpt lat="42.675767000000285" lon="-1.807091000000002">
        <ele>352.820</ele>
        <time>2022-08-25T09:49:45Z</time>
      </trkpt>
      <trkpt lat="42.67573700000028" lon="-1.807121000000002">
        <ele>352.809</ele>
        <time>2022-08-25T09:49:46Z</time>
      </trkpt>
      <trkpt lat="42.675711000000284" lon="-1.807154000000002">
        <ele>352.650</ele>
        <time>2022-08-25T09:49:47Z</time>
      </trkpt>
      <trkpt lat="42.67568900000028" lon="-1.807188000000002">
        <ele>352.650</ele>
        <time>2022-08-25T09:49:48Z</time>
      </trkpt>
      <trkpt lat="42.675671000000285" lon="-1.807219000000002">
        <ele>352.630</ele>
        <time>2022-08-25T09:49:49Z</time>
      </trkpt>
      <trkpt lat="42.675651000000286" lon="-1.807251000000002">
        <ele>352.636</ele>
        <time>2022-08-25T09:49:50Z</time>
      </trkpt>
      <trkpt lat="42.675632000000284" lon="-1.8072820000000018">
        <ele>352.448</ele>
        <time>2022-08-25T09:49:51Z</time>
      </trkpt>
      <trkpt lat="42.67561400000029" lon="-1.8073140000000019">
        <ele>352.415</ele>
        <time>2022-08-25T09:49:52Z</time>
      </trkpt>
      <trkpt lat="42.675598000000285" lon="-1.8073470000000018">
        <ele>352.438</ele>
        <time>2022-08-25T09:49:53Z</time>
      </trkpt>
      <trkpt lat="42.675581000000285" lon="-1.807381000000002">
        <ele>352.424</ele>
        <time>2022-08-25T09:49:54Z</time>
      </trkpt>
      <trkpt lat="42.675564000000286" lon="-1.8074140000000019">
        <ele>352.465</ele>
        <time>2022-08-25T09:49:55Z</time>
      </trkpt>
      <trkpt lat="42.675544000000286" lon="-1.8074440000000018">
        <ele>352.428</ele>
        <time>2022-08-25T09:49:56Z</time>
      </trkpt>
      <trkpt lat="42.67552400000029" lon="-1.8074740000000018">
        <ele>352.289</ele>
        <time>2022-08-25T09:49:57Z</time>
      </trkpt>
      <trkpt lat="42.67550600000029" lon="-1.8075030000000019">
        <ele>352.217</ele>
        <time>2022-08-25T09:49:58Z</time>
      </trkpt>
      <trkpt lat="42.67549100000029" lon="-1.8075300000000019">
        <ele>352.209</ele>
        <time>2022-08-25T09:49:59Z</time>
      </trkpt>
      <trkpt lat="42.67547700000029" lon="-1.8075540000000019">
        <ele>352.213</ele>
        <time>2022-08-25T09:50:00Z</time>
      </trkpt>
      <trkpt lat="42.675465000000294" lon="-1.8075790000000018">
        <ele>352.233</ele>
        <time>2022-08-25T09:50:01Z</time>
      </trkpt>
      <trkpt lat="42.675456000000295" lon="-1.8076040000000018">
        <ele>352.223</ele>
        <time>2022-08-25T09:50:02Z</time>
      </trkpt>
      <trkpt lat="42.6754490000003" lon="-1.8076220000000018">
        <ele>352.269</ele>
        <time>2022-08-25T09:50:03Z</time>
      </trkpt>
      <trkpt lat="42.6754380000003" lon="-1.8076430000000019">
        <ele>352.241</ele>
        <time>2022-08-25T09:50:04Z</time>
      </trkpt>
      <trkpt lat="42.675425000000295" lon="-1.8076730000000019">
        <ele>352.078</ele>
        <time>2022-08-25T09:50:05Z</time>
      </trkpt>
      <trkpt lat="42.67535000000029" lon="-1.8078090000000018">
        <ele>351.811</ele>
        <time>2022-08-25T09:50:09Z</time>
      </trkpt>
      <trkpt lat="42.675330000000294" lon="-1.8078380000000018">
        <ele>351.897</ele>
        <time>2022-08-25T09:50:10Z</time>
      </trkpt>
      <trkpt lat="42.67519000000029" lon="-1.8080440000000018">
        <ele>352.048</ele>
        <time>2022-08-25T09:50:16Z</time>
      </trkpt>
      <trkpt lat="42.675164000000294" lon="-1.8080770000000017">
        <ele>352.015</ele>
        <time>2022-08-25T09:50:17Z</time>
      </trkpt>
      <trkpt lat="42.67514000000029" lon="-1.8081100000000017">
        <ele>352.065</ele>
        <time>2022-08-25T09:50:18Z</time>
      </trkpt>
      <trkpt lat="42.67511600000029" lon="-1.8081410000000016">
        <ele>352.011</ele>
        <time>2022-08-25T09:50:19Z</time>
      </trkpt>
      <trkpt lat="42.675091000000286" lon="-1.8081730000000016">
        <ele>352.009</ele>
        <time>2022-08-25T09:50:20Z</time>
      </trkpt>
      <trkpt lat="42.675069000000285" lon="-1.8082030000000016">
        <ele>352.072</ele>
        <time>2022-08-25T09:50:21Z</time>
      </trkpt>
      <trkpt lat="42.67495000000029" lon="-1.8083760000000015">
        <ele>351.622</ele>
        <time>2022-08-25T09:50:26Z</time>
      </trkpt>
      <trkpt lat="42.674827000000285" lon="-1.8085540000000015">
        <ele>351.642</ele>
        <time>2022-08-25T09:50:31Z</time>
      </trkpt>
      <trkpt lat="42.674802000000284" lon="-1.8085900000000015">
        <ele>351.618</ele>
        <time>2022-08-25T09:50:32Z</time>
      </trkpt>
      <trkpt lat="42.67477800000028" lon="-1.8086230000000014">
        <ele>351.640</ele>
        <time>2022-08-25T09:50:33Z</time>
      </trkpt>
      <trkpt lat="42.67475400000028" lon="-1.8086600000000015">
        <ele>351.677</ele>
        <time>2022-08-25T09:50:34Z</time>
      </trkpt>
      <trkpt lat="42.674701000000276" lon="-1.8087310000000014">
        <ele>351.830</ele>
        <time>2022-08-25T09:50:36Z</time>
      </trkpt>
      <trkpt lat="42.674676000000275" lon="-1.8087660000000014">
        <ele>352.066</ele>
        <time>2022-08-25T09:50:37Z</time>
      </trkpt>
      <trkpt lat="42.674654000000274" lon="-1.8088000000000015">
        <ele>351.877</ele>
        <time>2022-08-25T09:50:38Z</time>
      </trkpt>
      <trkpt lat="42.67463500000027" lon="-1.8088320000000015">
        <ele>351.882</ele>
        <time>2022-08-25T09:50:39Z</time>
      </trkpt>
      <trkpt lat="42.674614000000275" lon="-1.8088620000000015">
        <ele>352.043</ele>
        <time>2022-08-25T09:50:40Z</time>
      </trkpt>
      <trkpt lat="42.674589000000275" lon="-1.8088930000000014">
        <ele>352.017</ele>
        <time>2022-08-25T09:50:41Z</time>
      </trkpt>
      <trkpt lat="42.67456700000027" lon="-1.8089220000000015">
        <ele>352.009</ele>
        <time>2022-08-25T09:50:42Z</time>
      </trkpt>
      <trkpt lat="42.674549000000276" lon="-1.8089510000000015">
        <ele>352.059</ele>
        <time>2022-08-25T09:50:43Z</time>
      </trkpt>
      <trkpt lat="42.674533000000274" lon="-1.8089780000000015">
        <ele>352.079</ele>
        <time>2022-08-25T09:50:44Z</time>
      </trkpt>
      <trkpt lat="42.67438700000027" lon="-1.8092070000000016">
        <ele>352.089</ele>
        <time>2022-08-25T09:50:51Z</time>
      </trkpt>
      <trkpt lat="42.67431100000027" lon="-1.8093170000000016">
        <ele>352.035</ele>
        <time>2022-08-25T09:50:54Z</time>
      </trkpt>
      <trkpt lat="42.674209000000275" lon="-1.8094610000000015">
        <ele>351.697</ele>
        <time>2022-08-25T09:50:58Z</time>
      </trkpt>
      <trkpt lat="42.67418000000028" lon="-1.8094970000000015">
        <ele>351.634</ele>
        <time>2022-08-25T09:50:59Z</time>
      </trkpt>
      <trkpt lat="42.67410100000028" lon="-1.8096010000000016">
        <ele>351.657</ele>
        <time>2022-08-25T09:51:02Z</time>
      </trkpt>
      <trkpt lat="42.674077000000274" lon="-1.8096350000000017">
        <ele>351.453</ele>
        <time>2022-08-25T09:51:03Z</time>
      </trkpt>
      <trkpt lat="42.674054000000275" lon="-1.8096690000000017">
        <ele>351.464</ele>
        <time>2022-08-25T09:51:04Z</time>
      </trkpt>
      <trkpt lat="42.674029000000274" lon="-1.8097050000000017">
        <ele>351.489</ele>
        <time>2022-08-25T09:51:05Z</time>
      </trkpt>
      <trkpt lat="42.674006000000276" lon="-1.8097400000000017">
        <ele>351.406</ele>
        <time>2022-08-25T09:51:06Z</time>
      </trkpt>
      <trkpt lat="42.67398300000028" lon="-1.8097710000000016">
        <ele>351.426</ele>
        <time>2022-08-25T09:51:07Z</time>
      </trkpt>
      <trkpt lat="42.67396200000028" lon="-1.8098030000000016">
        <ele>351.409</ele>
        <time>2022-08-25T09:51:08Z</time>
      </trkpt>
      <trkpt lat="42.67394100000028" lon="-1.8098330000000016">
        <ele>351.479</ele>
        <time>2022-08-25T09:51:09Z</time>
      </trkpt>
      <trkpt lat="42.67389400000028" lon="-1.8098950000000016">
        <ele>351.429</ele>
        <time>2022-08-25T09:51:11Z</time>
      </trkpt>
      <trkpt lat="42.67387200000028" lon="-1.8099250000000016">
        <ele>351.429</ele>
        <time>2022-08-25T09:51:12Z</time>
      </trkpt>
      <trkpt lat="42.67385200000028" lon="-1.8099550000000015">
        <ele>351.425</ele>
        <time>2022-08-25T09:51:13Z</time>
      </trkpt>
      <trkpt lat="42.67379800000028" lon="-1.8100500000000015">
        <ele>351.617</ele>
        <time>2022-08-25T09:51:16Z</time>
      </trkpt>
      <trkpt lat="42.67376200000028" lon="-1.8101130000000014">
        <ele>351.824</ele>
        <time>2022-08-25T09:51:18Z</time>
      </trkpt>
      <trkpt lat="42.67374700000028" lon="-1.8101460000000014">
        <ele>351.837</ele>
        <time>2022-08-25T09:51:19Z</time>
      </trkpt>
      <trkpt lat="42.67373300000028" lon="-1.8101770000000013">
        <ele>352.063</ele>
        <time>2022-08-25T09:51:20Z</time>
      </trkpt>
      <trkpt lat="42.673713000000284" lon="-1.8102060000000013">
        <ele>352.084</ele>
        <time>2022-08-25T09:51:21Z</time>
      </trkpt>
      <trkpt lat="42.673634000000284" lon="-1.8103000000000014">
        <ele>352.046</ele>
        <time>2022-08-25T09:51:24Z</time>
      </trkpt>
      <trkpt lat="42.67360900000028" lon="-1.8103270000000014">
        <ele>351.888</ele>
        <time>2022-08-25T09:51:25Z</time>
      </trkpt>
      <trkpt lat="42.67359000000028" lon="-1.8103510000000014">
        <ele>351.816</ele>
        <time>2022-08-25T09:51:26Z</time>
      </trkpt>
      <trkpt lat="42.67357400000028" lon="-1.8103700000000014">
        <ele>352.009</ele>
        <time>2022-08-25T09:51:27Z</time>
      </trkpt>
      <trkpt lat="42.67356300000028" lon="-1.8103810000000014">
        <ele>351.825</ele>
        <time>2022-08-25T09:51:28Z</time>
      </trkpt>
      <trkpt lat="42.67355700000028" lon="-1.8103860000000014">
        <ele>351.685</ele>
        <time>2022-08-25T09:51:29Z</time>
      </trkpt>
      <trkpt lat="42.67355300000028" lon="-1.8103910000000014">
        <ele>351.625</ele>
        <time>2022-08-25T09:51:30Z</time>
      </trkpt>
      <trkpt lat="42.67354700000028" lon="-1.8103940000000014">
        <ele>351.631</ele>
        <time>2022-08-25T09:51:31Z</time>
      </trkpt>
      <trkpt lat="42.67350600000028" lon="-1.8104060000000013">
        <ele>351.463</ele>
        <time>2022-08-25T09:51:35Z</time>
      </trkpt>
      <trkpt lat="42.67346800000028" lon="-1.8104040000000012">
        <ele>351.220</ele>
        <time>2022-08-25T09:51:37Z</time>
      </trkpt>
      <trkpt lat="42.67345300000028" lon="-1.8104010000000013">
        <ele>351.293</ele>
        <time>2022-08-25T09:51:38Z</time>
      </trkpt>
      <trkpt lat="42.67343800000028" lon="-1.8104040000000012">
        <ele>351.249</ele>
        <time>2022-08-25T09:51:39Z</time>
      </trkpt>
      <trkpt lat="42.67342700000028" lon="-1.8104040000000012">
        <ele>351.280</ele>
        <time>2022-08-25T09:51:40Z</time>
      </trkpt>
      <trkpt lat="42.67335500000028" lon="-1.8104220000000013">
        <ele>351.448</ele>
        <time>2022-08-25T09:55:11Z</time>
      </trkpt>
      <trkpt lat="42.673263000000276" lon="-1.8104070000000012">
        <ele>351.461</ele>
        <time>2022-08-25T09:55:15Z</time>
      </trkpt>
      <trkpt lat="42.67314900000027" lon="-1.8104300000000013">
        <ele>351.017</ele>
        <time>2022-08-25T09:55:19Z</time>
      </trkpt>
      <trkpt lat="42.673128000000276" lon="-1.8104610000000012">
        <ele>351.009</ele>
        <time>2022-08-25T09:55:20Z</time>
      </trkpt>
      <trkpt lat="42.67311000000028" lon="-1.8104880000000012">
        <ele>351.035</ele>
        <time>2022-08-25T09:55:21Z</time>
      </trkpt>
      <trkpt lat="42.67309100000028" lon="-1.8105110000000013">
        <ele>351.015</ele>
        <time>2022-08-25T09:55:22Z</time>
      </trkpt>
      <trkpt lat="42.67305900000028" lon="-1.8105600000000013">
        <ele>350.815</ele>
        <time>2022-08-25T09:55:24Z</time>
      </trkpt>
      <trkpt lat="42.67300600000028" lon="-1.8107050000000013">
        <ele>350.251</ele>
        <time>2022-08-25T09:55:28Z</time>
      </trkpt>
      <trkpt lat="42.67299100000028" lon="-1.8107510000000013">
        <ele>350.273</ele>
        <time>2022-08-25T09:55:29Z</time>
      </trkpt>
      <trkpt lat="42.67297400000028" lon="-1.8107980000000012">
        <ele>350.280</ele>
        <time>2022-08-25T09:55:30Z</time>
      </trkpt>
      <trkpt lat="42.67295200000028" lon="-1.8108480000000013">
        <ele>350.443</ele>
        <time>2022-08-25T09:55:31Z</time>
      </trkpt>
      <trkpt lat="42.67294700000028" lon="-1.8108930000000014">
        <ele>350.419</ele>
        <time>2022-08-25T09:55:32Z</time>
      </trkpt>
      <trkpt lat="42.672942000000276" lon="-1.8109320000000013">
        <ele>350.460</ele>
        <time>2022-08-25T09:55:33Z</time>
      </trkpt>
      <trkpt lat="42.67292900000027" lon="-1.8109690000000014">
        <ele>350.458</ele>
        <time>2022-08-25T09:55:34Z</time>
      </trkpt>
      <trkpt lat="42.672914000000276" lon="-1.8110080000000013">
        <ele>350.452</ele>
        <time>2022-08-25T09:55:35Z</time>
      </trkpt>
      <trkpt lat="42.67290200000028" lon="-1.8110430000000013">
        <ele>350.417</ele>
        <time>2022-08-25T09:55:36Z</time>
      </trkpt>
      <trkpt lat="42.67285400000028" lon="-1.8111930000000014">
        <ele>350.209</ele>
        <time>2022-08-25T09:55:40Z</time>
      </trkpt>
      <trkpt lat="42.67282600000028" lon="-1.8113200000000014">
        <ele>349.866</ele>
        <time>2022-08-25T09:55:43Z</time>
      </trkpt>
      <trkpt lat="42.67280000000028" lon="-1.8114070000000013">
        <ele>349.486</ele>
        <time>2022-08-25T09:55:45Z</time>
      </trkpt>
      <trkpt lat="42.67275300000028" lon="-1.8115360000000014">
        <ele>349.276</ele>
        <time>2022-08-25T09:55:48Z</time>
      </trkpt>
      <trkpt lat="42.67273900000028" lon="-1.8115790000000014">
        <ele>349.262</ele>
        <time>2022-08-25T09:55:49Z</time>
      </trkpt>
      <trkpt lat="42.67270700000028" lon="-1.8117590000000015">
        <ele>349.064</ele>
        <time>2022-08-25T09:55:53Z</time>
      </trkpt>
      <trkpt lat="42.67268000000028" lon="-1.8118410000000014">
        <ele>348.871</ele>
        <time>2022-08-25T09:55:55Z</time>
      </trkpt>
      <trkpt lat="42.67266500000028" lon="-1.8118840000000014">
        <ele>348.824</ele>
        <time>2022-08-25T09:55:56Z</time>
      </trkpt>
      <trkpt lat="42.672655000000276" lon="-1.8119300000000014">
        <ele>348.660</ele>
        <time>2022-08-25T09:55:57Z</time>
      </trkpt>
      <trkpt lat="42.67264300000028" lon="-1.8119770000000013">
        <ele>348.661</ele>
        <time>2022-08-25T09:55:58Z</time>
      </trkpt>
      <trkpt lat="42.67262800000028" lon="-1.8120670000000012">
        <ele>348.413</ele>
        <time>2022-08-25T09:56:00Z</time>
      </trkpt>
      <trkpt lat="42.67259000000028" lon="-1.8122230000000012">
        <ele>348.243</ele>
        <time>2022-08-25T09:56:04Z</time>
      </trkpt>
      <trkpt lat="42.67258100000028" lon="-1.8122540000000011">
        <ele>348.207</ele>
        <time>2022-08-25T09:56:05Z</time>
      </trkpt>
      <trkpt lat="42.67252800000028" lon="-1.8124500000000012">
        <ele>348.009</ele>
        <time>2022-08-25T09:56:11Z</time>
      </trkpt>
      <trkpt lat="42.67252500000028" lon="-1.8124940000000012">
        <ele>348.082</ele>
        <time>2022-08-25T09:56:12Z</time>
      </trkpt>
      <trkpt lat="42.672515000000274" lon="-1.812533000000001">
        <ele>348.022</ele>
        <time>2022-08-25T09:56:13Z</time>
      </trkpt>
      <trkpt lat="42.67250500000027" lon="-1.812568000000001">
        <ele>348.072</ele>
        <time>2022-08-25T09:56:14Z</time>
      </trkpt>
      <trkpt lat="42.67250400000027" lon="-1.8125890000000011">
        <ele>348.068</ele>
        <time>2022-08-25T09:56:15Z</time>
      </trkpt>
      <trkpt lat="42.67250200000027" lon="-1.812608000000001">
        <ele>347.840</ele>
        <time>2022-08-25T09:56:16Z</time>
      </trkpt>
      <trkpt lat="42.67250600000027" lon="-1.8126260000000012">
        <ele>347.837</ele>
        <time>2022-08-25T09:56:17Z</time>
      </trkpt>
      <trkpt lat="42.672504000000266" lon="-1.8126440000000013">
        <ele>347.880</ele>
        <time>2022-08-25T09:56:18Z</time>
      </trkpt>
      <trkpt lat="42.672496000000265" lon="-1.8126570000000013">
        <ele>347.826</ele>
        <time>2022-08-25T09:56:19Z</time>
      </trkpt>
      <trkpt lat="42.67248700000027" lon="-1.8126650000000013">
        <ele>347.847</ele>
        <time>2022-08-25T09:56:20Z</time>
      </trkpt>
      <trkpt lat="42.67248100000027" lon="-1.8127090000000012">
        <ele>347.862</ele>
        <time>2022-08-25T09:56:29Z</time>
      </trkpt>
      <trkpt lat="42.67247700000027" lon="-1.8127320000000013">
        <ele>347.883</ele>
        <time>2022-08-25T09:56:31Z</time>
      </trkpt>
      <trkpt lat="42.67244900000027" lon="-1.8128110000000013">
        <ele>347.811</ele>
        <time>2022-08-25T09:56:34Z</time>
      </trkpt>
      <trkpt lat="42.67243300000027" lon="-1.8128480000000013">
        <ele>347.609</ele>
        <time>2022-08-25T09:56:35Z</time>
      </trkpt>
      <trkpt lat="42.67241500000027" lon="-1.8128930000000014">
        <ele>347.637</ele>
        <time>2022-08-25T09:56:36Z</time>
      </trkpt>
      <trkpt lat="42.67238600000027" lon="-1.8130090000000014">
        <ele>347.637</ele>
        <time>2022-08-25T09:56:38Z</time>
      </trkpt>
      <trkpt lat="42.67240100000027" lon="-1.8130670000000013">
        <ele>347.637</ele>
        <time>2022-08-25T09:56:39Z</time>
      </trkpt>
      <trkpt lat="42.67239500000027" lon="-1.8131040000000014">
        <ele>347.473</ele>
        <time>2022-08-25T09:56:40Z</time>
      </trkpt>
      <trkpt lat="42.67239800000027" lon="-1.8131890000000013">
        <ele>347.425</ele>
        <time>2022-08-25T09:56:42Z</time>
      </trkpt>
      <trkpt lat="42.67239800000027" lon="-1.8133080000000013">
        <ele>347.482</ele>
        <time>2022-08-25T09:56:44Z</time>
      </trkpt>
      <trkpt lat="42.67237200000027" lon="-1.8133570000000012">
        <ele>347.485</ele>
        <time>2022-08-25T09:56:45Z</time>
      </trkpt>
      <trkpt lat="42.67228200000027" lon="-1.8134810000000012">
        <ele>347.491</ele>
        <time>2022-08-25T09:56:50Z</time>
      </trkpt>
      <trkpt lat="42.67226900000027" lon="-1.8135100000000013">
        <ele>347.472</ele>
        <time>2022-08-25T09:56:51Z</time>
      </trkpt>
      <trkpt lat="42.67226200000027" lon="-1.8135260000000013">
        <ele>347.488</ele>
        <time>2022-08-25T09:56:52Z</time>
      </trkpt>
      <trkpt lat="42.672256000000274" lon="-1.8135430000000012">
        <ele>347.424</ele>
        <time>2022-08-25T09:56:53Z</time>
      </trkpt>
      <trkpt lat="42.672230000000276" lon="-1.8136260000000013">
        <ele>347.426</ele>
        <time>2022-08-25T09:56:54Z</time>
      </trkpt>
      <trkpt lat="42.672233000000276" lon="-1.8136590000000012">
        <ele>347.409</ele>
        <time>2022-08-25T09:56:55Z</time>
      </trkpt>
      <trkpt lat="42.67222400000028" lon="-1.8137130000000012">
        <ele>347.219</ele>
        <time>2022-08-25T09:56:56Z</time>
      </trkpt>
      <trkpt lat="42.672219000000275" lon="-1.8137720000000013">
        <ele>347.299</ele>
        <time>2022-08-25T09:56:57Z</time>
      </trkpt>
      <trkpt lat="42.672214000000274" lon="-1.8138540000000012">
        <ele>347.229</ele>
        <time>2022-08-25T09:56:59Z</time>
      </trkpt>
      <trkpt lat="42.672202000000276" lon="-1.813936000000001">
        <ele>347.075</ele>
        <time>2022-08-25T09:57:02Z</time>
      </trkpt>
      <trkpt lat="42.67220300000027" lon="-1.8139700000000012">
        <ele>347.017</ele>
        <time>2022-08-25T09:57:03Z</time>
      </trkpt>
      <trkpt lat="42.67224100000028" lon="-1.8141530000000012">
        <ele>347.044</ele>
        <time>2022-08-25T09:57:06Z</time>
      </trkpt>
      <trkpt lat="42.67225800000028" lon="-1.8141850000000013">
        <ele>347.017</ele>
        <time>2022-08-25T09:57:07Z</time>
      </trkpt>
      <trkpt lat="42.67226500000027" lon="-1.8142200000000013">
        <ele>347.043</ele>
        <time>2022-08-25T09:57:08Z</time>
      </trkpt>
      <trkpt lat="42.67226300000027" lon="-1.8142700000000014">
        <ele>347.074</ele>
        <time>2022-08-25T09:57:09Z</time>
      </trkpt>
      <trkpt lat="42.67226900000027" lon="-1.8143240000000014">
        <ele>347.018</ele>
        <time>2022-08-25T09:57:10Z</time>
      </trkpt>
      <trkpt lat="42.67226500000027" lon="-1.8143900000000013">
        <ele>347.098</ele>
        <time>2022-08-25T09:57:11Z</time>
      </trkpt>
      <trkpt lat="42.67225800000028" lon="-1.8144210000000012">
        <ele>347.017</ele>
        <time>2022-08-25T09:57:12Z</time>
      </trkpt>
      <trkpt lat="42.67224900000028" lon="-1.8144510000000011">
        <ele>347.009</ele>
        <time>2022-08-25T09:57:13Z</time>
      </trkpt>
      <trkpt lat="42.672202000000276" lon="-1.8145260000000012">
        <ele>346.822</ele>
        <time>2022-08-25T09:57:15Z</time>
      </trkpt>
      <trkpt lat="42.672168000000276" lon="-1.8145590000000011">
        <ele>346.842</ele>
        <time>2022-08-25T09:57:16Z</time>
      </trkpt>
      <trkpt lat="42.672101000000275" lon="-1.8146990000000012">
        <ele>346.852</ele>
        <time>2022-08-25T09:57:19Z</time>
      </trkpt>
      <trkpt lat="42.672093000000274" lon="-1.8147230000000012">
        <ele>346.828</ele>
        <time>2022-08-25T09:57:20Z</time>
      </trkpt>
      <trkpt lat="42.67208900000028" lon="-1.8147470000000012">
        <ele>346.820</ele>
        <time>2022-08-25T09:57:21Z</time>
      </trkpt>
      <trkpt lat="42.67206600000028" lon="-1.8147740000000012">
        <ele>346.827</ele>
        <time>2022-08-25T09:57:22Z</time>
      </trkpt>
      <trkpt lat="42.67207200000028" lon="-1.8148210000000011">
        <ele>346.880</ele>
        <time>2022-08-25T09:57:23Z</time>
      </trkpt>
      <trkpt lat="42.672050000000276" lon="-1.8148960000000012">
        <ele>346.876</ele>
        <time>2022-08-25T09:57:25Z</time>
      </trkpt>
      <trkpt lat="42.672034000000274" lon="-1.8150090000000012">
        <ele>346.867</ele>
        <time>2022-08-25T09:57:27Z</time>
      </trkpt>
      <trkpt lat="42.672019000000276" lon="-1.8150560000000011">
        <ele>346.822</ele>
        <time>2022-08-25T09:57:28Z</time>
      </trkpt>
      <trkpt lat="42.67201200000028" lon="-1.8150930000000012">
        <ele>346.662</ele>
        <time>2022-08-25T09:57:29Z</time>
      </trkpt>
      <trkpt lat="42.67197700000028" lon="-1.8151310000000012">
        <ele>346.808</ele>
        <time>2022-08-25T09:57:30Z</time>
      </trkpt>
      <trkpt lat="42.671973000000285" lon="-1.8151710000000012">
        <ele>346.809</ele>
        <time>2022-08-25T09:57:31Z</time>
      </trkpt>
      <trkpt lat="42.67197700000028" lon="-1.8152000000000013">
        <ele>346.863</ele>
        <time>2022-08-25T09:57:32Z</time>
      </trkpt>
      <trkpt lat="42.67199200000028" lon="-1.8152710000000012">
        <ele>346.843</ele>
        <time>2022-08-25T09:57:34Z</time>
      </trkpt>
      <trkpt lat="42.67196200000028" lon="-1.8153970000000013">
        <ele>346.833</ele>
        <time>2022-08-25T09:57:38Z</time>
      </trkpt>
      <trkpt lat="42.67194700000028" lon="-1.8154350000000012">
        <ele>346.889</ele>
        <time>2022-08-25T09:57:39Z</time>
      </trkpt>
      <trkpt lat="42.67192700000028" lon="-1.8154850000000013">
        <ele>346.811</ele>
        <time>2022-08-25T09:57:41Z</time>
      </trkpt>
      <trkpt lat="42.671906000000284" lon="-1.8155950000000014">
        <ele>346.418</ele>
        <time>2022-08-25T09:57:45Z</time>
      </trkpt>
      <trkpt lat="42.671900000000285" lon="-1.8156900000000014">
        <ele>346.421</ele>
        <time>2022-08-25T09:57:47Z</time>
      </trkpt>
      <trkpt lat="42.67187900000029" lon="-1.8158640000000013">
        <ele>346.297</ele>
        <time>2022-08-25T09:57:52Z</time>
      </trkpt>
      <trkpt lat="42.67183900000029" lon="-1.8160340000000013">
        <ele>346.278</ele>
        <time>2022-08-25T09:57:57Z</time>
      </trkpt>
      <trkpt lat="42.67180500000029" lon="-1.8162000000000014">
        <ele>346.228</ele>
        <time>2022-08-25T09:58:01Z</time>
      </trkpt>
      <trkpt lat="42.67179700000029" lon="-1.8162540000000014">
        <ele>346.289</ele>
        <time>2022-08-25T09:58:02Z</time>
      </trkpt>
      <trkpt lat="42.67178500000029" lon="-1.8163020000000014">
        <ele>346.017</ele>
        <time>2022-08-25T09:58:03Z</time>
      </trkpt>
      <trkpt lat="42.67176600000029" lon="-1.8164070000000014">
        <ele>346.009</ele>
        <time>2022-08-25T09:58:05Z</time>
      </trkpt>
      <trkpt lat="42.671756000000286" lon="-1.8164510000000014">
        <ele>346.033</ele>
        <time>2022-08-25T09:58:06Z</time>
      </trkpt>
      <trkpt lat="42.67175000000029" lon="-1.8164850000000015">
        <ele>346.023</ele>
        <time>2022-08-25T09:58:07Z</time>
      </trkpt>
      <trkpt lat="42.671737000000284" lon="-1.8165330000000015">
        <ele>346.093</ele>
        <time>2022-08-25T09:58:08Z</time>
      </trkpt>
      <trkpt lat="42.671734000000285" lon="-1.8165680000000015">
        <ele>346.099</ele>
        <time>2022-08-25T09:58:09Z</time>
      </trkpt>
      <trkpt lat="42.67173000000029" lon="-1.8166030000000015">
        <ele>346.041</ele>
        <time>2022-08-25T09:58:10Z</time>
      </trkpt>
      <trkpt lat="42.67172600000029" lon="-1.8166470000000015">
        <ele>346.038</ele>
        <time>2022-08-25T09:58:11Z</time>
      </trkpt>
      <trkpt lat="42.67172100000029" lon="-1.8166770000000014">
        <ele>345.841</ele>
        <time>2022-08-25T09:58:12Z</time>
      </trkpt>
      <trkpt lat="42.67171400000029" lon="-1.8167080000000013">
        <ele>345.857</ele>
        <time>2022-08-25T09:58:13Z</time>
      </trkpt>
      <trkpt lat="42.67171100000029" lon="-1.8167380000000013">
        <ele>345.898</ele>
        <time>2022-08-25T09:58:14Z</time>
      </trkpt>
      <trkpt lat="42.671707000000296" lon="-1.8167730000000013">
        <ele>345.856</ele>
        <time>2022-08-25T09:58:15Z</time>
      </trkpt>
      <trkpt lat="42.6716950000003" lon="-1.8168050000000013">
        <ele>345.659</ele>
        <time>2022-08-25T09:58:16Z</time>
      </trkpt>
      <trkpt lat="42.6716830000003" lon="-1.8168400000000013">
        <ele>345.614</ele>
        <time>2022-08-25T09:58:17Z</time>
      </trkpt>
      <trkpt lat="42.6716490000003" lon="-1.8169950000000012">
        <ele>345.409</ele>
        <time>2022-08-25T09:58:21Z</time>
      </trkpt>
      <trkpt lat="42.6716330000003" lon="-1.8172170000000012">
        <ele>345.296</ele>
        <time>2022-08-25T09:58:26Z</time>
      </trkpt>
      <trkpt lat="42.6716150000003" lon="-1.8173110000000012">
        <ele>345.256</ele>
        <time>2022-08-25T09:58:28Z</time>
      </trkpt>
      <trkpt lat="42.6716010000003" lon="-1.8173590000000013">
        <ele>345.246</ele>
        <time>2022-08-25T09:58:29Z</time>
      </trkpt>
      <trkpt lat="42.6715820000003" lon="-1.8174660000000014">
        <ele>345.252</ele>
        <time>2022-08-25T09:58:31Z</time>
      </trkpt>
      <trkpt lat="42.6715750000003" lon="-1.8174900000000014">
        <ele>345.254</ele>
        <time>2022-08-25T09:58:32Z</time>
      </trkpt>
      <trkpt lat="42.6715590000003" lon="-1.8175420000000013">
        <ele>345.291</ele>
        <time>2022-08-25T09:58:33Z</time>
      </trkpt>
      <trkpt lat="42.6715360000003" lon="-1.8176020000000013">
        <ele>345.234</ele>
        <time>2022-08-25T09:58:34Z</time>
      </trkpt>
      <trkpt lat="42.6715400000003" lon="-1.8176250000000014">
        <ele>345.230</ele>
        <time>2022-08-25T09:58:35Z</time>
      </trkpt>
      <trkpt lat="42.671544000000296" lon="-1.8176420000000013">
        <ele>345.261</ele>
        <time>2022-08-25T09:58:36Z</time>
      </trkpt>
      <trkpt lat="42.671539000000294" lon="-1.8177000000000012">
        <ele>345.262</ele>
        <time>2022-08-25T09:58:38Z</time>
      </trkpt>
      <trkpt lat="42.671525000000294" lon="-1.8177760000000012">
        <ele>345.083</ele>
        <time>2022-08-25T09:58:41Z</time>
      </trkpt>
      <trkpt lat="42.67153100000029" lon="-1.817801000000001">
        <ele>345.011</ele>
        <time>2022-08-25T09:58:42Z</time>
      </trkpt>
      <trkpt lat="42.671539000000294" lon="-1.8178300000000012">
        <ele>345.009</ele>
        <time>2022-08-25T09:58:43Z</time>
      </trkpt>
      <trkpt lat="42.671544000000296" lon="-1.8178560000000012">
        <ele>345.037</ele>
        <time>2022-08-25T09:58:44Z</time>
      </trkpt>
      <trkpt lat="42.6715370000003" lon="-1.8178830000000012">
        <ele>345.077</ele>
        <time>2022-08-25T09:58:45Z</time>
      </trkpt>
      <trkpt lat="42.6715290000003" lon="-1.8179070000000013">
        <ele>345.027</ele>
        <time>2022-08-25T09:58:46Z</time>
      </trkpt>
      <trkpt lat="42.6715250000003" lon="-1.8179270000000012">
        <ele>345.033</ele>
        <time>2022-08-25T09:58:47Z</time>
      </trkpt>
      <trkpt lat="42.6715230000003" lon="-1.8179380000000012">
        <ele>345.275</ele>
        <time>2022-08-25T09:58:48Z</time>
      </trkpt>
      <trkpt lat="42.6715120000003" lon="-1.8179620000000012">
        <ele>345.292</ele>
        <time>2022-08-25T09:58:49Z</time>
      </trkpt>
      <trkpt lat="42.6715030000003" lon="-1.8179810000000012">
        <ele>345.265</ele>
        <time>2022-08-25T09:58:50Z</time>
      </trkpt>
      <trkpt lat="42.6714920000003" lon="-1.817993000000001">
        <ele>345.221</ele>
        <time>2022-08-25T09:58:51Z</time>
      </trkpt>
      <trkpt lat="42.6714780000003" lon="-1.818018000000001">
        <ele>345.282</ele>
        <time>2022-08-25T09:58:52Z</time>
      </trkpt>
      <trkpt lat="42.6714690000003" lon="-1.818038000000001">
        <ele>345.229</ele>
        <time>2022-08-25T09:58:53Z</time>
      </trkpt>
      <trkpt lat="42.6714610000003" lon="-1.8180850000000008">
        <ele>345.200</ele>
        <time>2022-08-25T09:58:55Z</time>
      </trkpt>
      <trkpt lat="42.6714450000003" lon="-1.818111000000001">
        <ele>345.220</ele>
        <time>2022-08-25T09:58:57Z</time>
      </trkpt>
      <trkpt lat="42.671415000000295" lon="-1.818148000000001">
        <ele>345.209</ele>
        <time>2022-08-25T09:58:58Z</time>
      </trkpt>
      <trkpt lat="42.6713970000003" lon="-1.818177000000001">
        <ele>345.263</ele>
        <time>2022-08-25T09:58:59Z</time>
      </trkpt>
      <trkpt lat="42.671342000000294" lon="-1.818295000000001">
        <ele>345.463</ele>
        <time>2022-08-25T09:59:03Z</time>
      </trkpt>
      <trkpt lat="42.67130900000029" lon="-1.8183810000000011">
        <ele>345.633</ele>
        <time>2022-08-25T09:59:06Z</time>
      </trkpt>
      <trkpt lat="42.67129500000029" lon="-1.818406000000001">
        <ele>345.619</ele>
        <time>2022-08-25T09:59:07Z</time>
      </trkpt>
      <trkpt lat="42.67128700000029" lon="-1.818439000000001">
        <ele>345.821</ele>
        <time>2022-08-25T09:59:08Z</time>
      </trkpt>
      <trkpt lat="42.67127800000029" lon="-1.818465000000001">
        <ele>346.068</ele>
        <time>2022-08-25T09:59:09Z</time>
      </trkpt>
      <trkpt lat="42.671266000000294" lon="-1.8184890000000011">
        <ele>346.211</ele>
        <time>2022-08-25T09:59:10Z</time>
      </trkpt>
      <trkpt lat="42.671254000000296" lon="-1.8185100000000012">
        <ele>346.837</ele>
        <time>2022-08-25T09:59:11Z</time>
      </trkpt>
      <trkpt lat="42.6712450000003" lon="-1.8185310000000012">
        <ele>347.078</ele>
        <time>2022-08-25T09:59:12Z</time>
      </trkpt>
      <trkpt lat="42.6712360000003" lon="-1.8185490000000013">
        <ele>347.632</ele>
        <time>2022-08-25T09:59:13Z</time>
      </trkpt>
      <trkpt lat="42.6712270000003" lon="-1.8185660000000012">
        <ele>347.892</ele>
        <time>2022-08-25T09:59:14Z</time>
      </trkpt>
      <trkpt lat="42.6712160000003" lon="-1.8185840000000013">
        <ele>348.011</ele>
        <time>2022-08-25T09:59:15Z</time>
      </trkpt>
      <trkpt lat="42.6712090000003" lon="-1.8186010000000012">
        <ele>348.209</ele>
        <time>2022-08-25T09:59:16Z</time>
      </trkpt>
      <trkpt lat="42.671203000000304" lon="-1.8186190000000013">
        <ele>348.264</ele>
        <time>2022-08-25T09:59:17Z</time>
      </trkpt>
      <trkpt lat="42.6711950000003" lon="-1.8186350000000013">
        <ele>348.434</ele>
        <time>2022-08-25T09:59:18Z</time>
      </trkpt>
      <trkpt lat="42.671189000000304" lon="-1.8186500000000014">
        <ele>348.454</ele>
        <time>2022-08-25T09:59:19Z</time>
      </trkpt>
      <trkpt lat="42.671183000000305" lon="-1.8186600000000015">
        <ele>348.630</ele>
        <time>2022-08-25T09:59:20Z</time>
      </trkpt>
      <trkpt lat="42.6711730000003" lon="-1.8186670000000016">
        <ele>348.682</ele>
        <time>2022-08-25T09:59:21Z</time>
      </trkpt>
      <trkpt lat="42.6711630000003" lon="-1.8186760000000015">
        <ele>348.619</ele>
        <time>2022-08-25T09:59:22Z</time>
      </trkpt>
      <trkpt lat="42.671125000000295" lon="-1.8187600000000015">
        <ele>348.822</ele>
        <time>2022-08-25T09:59:27Z</time>
      </trkpt>
      <trkpt lat="42.671071000000296" lon="-1.8188940000000016">
        <ele>349.078</ele>
        <time>2022-08-25T09:59:32Z</time>
      </trkpt>
      <trkpt lat="42.670996000000294" lon="-1.8190610000000016">
        <ele>348.029</ele>
        <time>2022-08-25T09:59:37Z</time>
      </trkpt>
      <trkpt lat="42.67098000000029" lon="-1.8190940000000015">
        <ele>347.889</ele>
        <time>2022-08-25T09:59:38Z</time>
      </trkpt>
      <trkpt lat="42.67096600000029" lon="-1.8191250000000014">
        <ele>347.606</ele>
        <time>2022-08-25T09:59:39Z</time>
      </trkpt>
      <trkpt lat="42.67095500000029" lon="-1.8191570000000015">
        <ele>347.426</ele>
        <time>2022-08-25T09:59:40Z</time>
      </trkpt>
      <trkpt lat="42.67094200000029" lon="-1.8191870000000014">
        <ele>347.209</ele>
        <time>2022-08-25T09:59:41Z</time>
      </trkpt>
      <trkpt lat="42.67093000000029" lon="-1.8192130000000015">
        <ele>347.059</ele>
        <time>2022-08-25T09:59:42Z</time>
      </trkpt>
      <trkpt lat="42.67087900000029" lon="-1.8193380000000015">
        <ele>346.429</ele>
        <time>2022-08-25T09:59:46Z</time>
      </trkpt>
      <trkpt lat="42.67086500000029" lon="-1.8193590000000015">
        <ele>346.019</ele>
        <time>2022-08-25T09:59:47Z</time>
      </trkpt>
      <trkpt lat="42.67084600000029" lon="-1.8193800000000016">
        <ele>346.085</ele>
        <time>2022-08-25T09:59:48Z</time>
      </trkpt>
      <trkpt lat="42.67082700000029" lon="-1.8193830000000015">
        <ele>345.847</ele>
        <time>2022-08-25T09:59:49Z</time>
      </trkpt>
      <trkpt lat="42.670811000000285" lon="-1.8193860000000015">
        <ele>345.824</ele>
        <time>2022-08-25T09:59:50Z</time>
      </trkpt>
      <trkpt lat="42.67079900000029" lon="-1.8193870000000014">
        <ele>345.647</ele>
        <time>2022-08-25T09:59:51Z</time>
      </trkpt>
      <trkpt lat="42.670786000000284" lon="-1.8193860000000015">
        <ele>345.453</ele>
        <time>2022-08-25T09:59:52Z</time>
      </trkpt>
      <trkpt lat="42.670774000000286" lon="-1.8193880000000016">
        <ele>345.414</ele>
        <time>2022-08-25T09:59:53Z</time>
      </trkpt>
      <trkpt lat="42.670757000000286" lon="-1.8193880000000016">
        <ele>345.468</ele>
        <time>2022-08-25T09:59:54Z</time>
      </trkpt>
      <trkpt lat="42.670735000000285" lon="-1.8193810000000015">
        <ele>345.442</ele>
        <time>2022-08-25T09:59:56Z</time>
      </trkpt>
      <trkpt lat="42.67072300000029" lon="-1.8193760000000014">
        <ele>345.426</ele>
        <time>2022-08-25T09:59:57Z</time>
      </trkpt>
      <trkpt lat="42.670611000000285" lon="-1.8193340000000013">
        <ele>345.409</ele>
        <time>2022-08-25T10:00:04Z</time>
      </trkpt>
      <trkpt lat="42.67051100000028" lon="-1.8193480000000013">
        <ele>345.647</ele>
        <time>2022-08-25T10:00:08Z</time>
      </trkpt>
      <trkpt lat="42.67029200000028" lon="-1.8193200000000014">
        <ele>345.457</ele>
        <time>2022-08-25T10:00:14Z</time>
      </trkpt>
      <trkpt lat="42.67025300000028" lon="-1.8193150000000013">
        <ele>345.437</ele>
        <time>2022-08-25T10:00:15Z</time>
      </trkpt>
      <trkpt lat="42.67018500000028" lon="-1.8193040000000014">
        <ele>345.263</ele>
        <time>2022-08-25T10:00:17Z</time>
      </trkpt>
      <trkpt lat="42.67015100000028" lon="-1.8192990000000013">
        <ele>345.035</ele>
        <time>2022-08-25T10:00:18Z</time>
      </trkpt>
      <trkpt lat="42.66996900000028" lon="-1.8192720000000013">
        <ele>344.882</ele>
        <time>2022-08-25T10:00:23Z</time>
      </trkpt>
      <trkpt lat="42.66993400000028" lon="-1.8192720000000013">
        <ele>344.875</ele>
        <time>2022-08-25T10:00:24Z</time>
      </trkpt>
      <trkpt lat="42.66990100000028" lon="-1.8192760000000012">
        <ele>344.831</ele>
        <time>2022-08-25T10:00:25Z</time>
      </trkpt>
      <trkpt lat="42.66987000000028" lon="-1.8192820000000012">
        <ele>344.642</ele>
        <time>2022-08-25T10:00:26Z</time>
      </trkpt>
      <trkpt lat="42.66984000000028" lon="-1.8192930000000012">
        <ele>344.648</ele>
        <time>2022-08-25T10:00:27Z</time>
      </trkpt>
      <trkpt lat="42.669813000000275" lon="-1.8193070000000011">
        <ele>344.461</ele>
        <time>2022-08-25T10:00:28Z</time>
      </trkpt>
      <trkpt lat="42.66978900000027" lon="-1.819324000000001">
        <ele>344.417</ele>
        <time>2022-08-25T10:00:29Z</time>
      </trkpt>
      <trkpt lat="42.66976700000027" lon="-1.819338000000001">
        <ele>344.209</ele>
        <time>2022-08-25T10:00:30Z</time>
      </trkpt>
      <trkpt lat="42.66974800000027" lon="-1.819342000000001">
        <ele>344.245</ele>
        <time>2022-08-25T10:00:31Z</time>
      </trkpt>
      <trkpt lat="42.66972800000027" lon="-1.819339000000001">
        <ele>344.275</ele>
        <time>2022-08-25T10:00:32Z</time>
      </trkpt>
      <trkpt lat="42.66971300000027" lon="-1.8193320000000008">
        <ele>344.225</ele>
        <time>2022-08-25T10:00:33Z</time>
      </trkpt>
      <trkpt lat="42.669706000000275" lon="-1.8193250000000007">
        <ele>344.231</ele>
        <time>2022-08-25T10:00:34Z</time>
      </trkpt>
      <trkpt lat="42.66970200000028" lon="-1.8193170000000007">
        <ele>344.223</ele>
        <time>2022-08-25T10:00:35Z</time>
      </trkpt>
      <trkpt lat="42.66970200000028" lon="-1.8193110000000008">
        <ele>344.220</ele>
        <time>2022-08-25T10:00:36Z</time>
      </trkpt>
      <trkpt lat="42.66970500000028" lon="-1.8193060000000008">
        <ele>344.243</ele>
        <time>2022-08-25T10:00:37Z</time>
      </trkpt>
      <trkpt lat="42.66969400000028" lon="-1.8192850000000007">
        <ele>344.429</ele>
        <time>2022-08-25T10:01:23Z</time>
      </trkpt>
      <trkpt lat="42.66967300000028" lon="-1.8192750000000006">
        <ele>344.470</ele>
        <time>2022-08-25T10:01:24Z</time>
      </trkpt>
      <trkpt lat="42.66964600000028" lon="-1.8192660000000007">
        <ele>344.464</ele>
        <time>2022-08-25T10:01:25Z</time>
      </trkpt>
      <trkpt lat="42.66956700000028" lon="-1.8192900000000007">
        <ele>344.406</ele>
        <time>2022-08-25T10:01:27Z</time>
      </trkpt>
      <trkpt lat="42.66952500000028" lon="-1.8193160000000008">
        <ele>344.416</ele>
        <time>2022-08-25T10:01:28Z</time>
      </trkpt>
      <trkpt lat="42.66941500000028" lon="-1.8194130000000008">
        <ele>344.409</ele>
        <time>2022-08-25T10:01:31Z</time>
      </trkpt>
      <trkpt lat="42.66938700000028" lon="-1.819442000000001">
        <ele>344.467</ele>
        <time>2022-08-25T10:01:32Z</time>
      </trkpt>
      <trkpt lat="42.66936100000028" lon="-1.819465000000001">
        <ele>344.227</ele>
        <time>2022-08-25T10:01:33Z</time>
      </trkpt>
      <trkpt lat="42.66933600000028" lon="-1.819480000000001">
        <ele>344.067</ele>
        <time>2022-08-25T10:01:34Z</time>
      </trkpt>
      <trkpt lat="42.66931300000028" lon="-1.8194900000000012">
        <ele>343.683</ele>
        <time>2022-08-25T10:01:35Z</time>
      </trkpt>
      <trkpt lat="42.66929100000028" lon="-1.819502000000001">
        <ele>343.675</ele>
        <time>2022-08-25T10:01:36Z</time>
      </trkpt>
      <trkpt lat="42.66926600000028" lon="-1.8195230000000011">
        <ele>343.482</ele>
        <time>2022-08-25T10:01:37Z</time>
      </trkpt>
      <trkpt lat="42.66920000000028" lon="-1.819669000000001">
        <ele>343.645</ele>
        <time>2022-08-25T10:01:41Z</time>
      </trkpt>
      <trkpt lat="42.66911300000028" lon="-1.819885000000001">
        <ele>343.831</ele>
        <time>2022-08-25T10:01:47Z</time>
      </trkpt>
      <trkpt lat="42.66904300000028" lon="-1.8201000000000012">
        <ele>344.042</ele>
        <time>2022-08-25T10:01:52Z</time>
      </trkpt>
      <trkpt lat="42.66903200000028" lon="-1.8201420000000013">
        <ele>344.023</ele>
        <time>2022-08-25T10:01:53Z</time>
      </trkpt>
      <trkpt lat="42.66902100000028" lon="-1.8201840000000014">
        <ele>344.083</ele>
        <time>2022-08-25T10:01:54Z</time>
      </trkpt>
      <trkpt lat="42.66901000000028" lon="-1.8202210000000014">
        <ele>344.011</ele>
        <time>2022-08-25T10:01:55Z</time>
      </trkpt>
      <trkpt lat="42.669005000000276" lon="-1.8202590000000014">
        <ele>344.009</ele>
        <time>2022-08-25T10:01:56Z</time>
      </trkpt>
      <trkpt lat="42.66897800000027" lon="-1.8203710000000013">
        <ele>344.283</ele>
        <time>2022-08-25T10:01:59Z</time>
      </trkpt>
      <trkpt lat="42.668949000000275" lon="-1.8204340000000012">
        <ele>344.453</ele>
        <time>2022-08-25T10:02:01Z</time>
      </trkpt>
      <trkpt lat="42.66893700000028" lon="-1.8204640000000012">
        <ele>344.483</ele>
        <time>2022-08-25T10:02:02Z</time>
      </trkpt>
      <trkpt lat="42.668926000000276" lon="-1.8205010000000013">
        <ele>344.659</ele>
        <time>2022-08-25T10:02:03Z</time>
      </trkpt>
      <trkpt lat="42.66890500000028" lon="-1.8205760000000013">
        <ele>344.641</ele>
        <time>2022-08-25T10:02:05Z</time>
      </trkpt>
      <trkpt lat="42.66889600000028" lon="-1.8206140000000013">
        <ele>344.838</ele>
        <time>2022-08-25T10:02:06Z</time>
      </trkpt>
      <trkpt lat="42.66888600000028" lon="-1.8206530000000012">
        <ele>344.851</ele>
        <time>2022-08-25T10:02:07Z</time>
      </trkpt>
      <trkpt lat="42.66885700000028" lon="-1.8207760000000013">
        <ele>345.097</ele>
        <time>2022-08-25T10:02:10Z</time>
      </trkpt>
      <trkpt lat="42.66883000000028" lon="-1.8208870000000013">
        <ele>345.298</ele>
        <time>2022-08-25T10:02:13Z</time>
      </trkpt>
      <trkpt lat="42.66875700000028" lon="-1.8210960000000012">
        <ele>345.297</ele>
        <time>2022-08-25T10:02:18Z</time>
      </trkpt>
      <trkpt lat="42.668738000000275" lon="-1.8211380000000013">
        <ele>345.223</ele>
        <time>2022-08-25T10:02:19Z</time>
      </trkpt>
      <trkpt lat="42.668721000000275" lon="-1.8211810000000013">
        <ele>345.225</ele>
        <time>2022-08-25T10:02:20Z</time>
      </trkpt>
      <trkpt lat="42.66861300000028" lon="-1.8214330000000012">
        <ele>345.209</ele>
        <time>2022-08-25T10:02:26Z</time>
      </trkpt>
      <trkpt lat="42.66859300000028" lon="-1.8214760000000012">
        <ele>345.480</ele>
        <time>2022-08-25T10:02:27Z</time>
      </trkpt>
      <trkpt lat="42.66850900000028" lon="-1.8216880000000013">
        <ele>345.270</ele>
        <time>2022-08-25T10:02:32Z</time>
      </trkpt>
      <trkpt lat="42.66847800000028" lon="-1.8217660000000013">
        <ele>345.280</ele>
        <time>2022-08-25T10:02:34Z</time>
      </trkpt>
      <trkpt lat="42.66846100000028" lon="-1.8218140000000014">
        <ele>345.256</ele>
        <time>2022-08-25T10:02:35Z</time>
      </trkpt>
      <trkpt lat="42.66844600000028" lon="-1.8218530000000013">
        <ele>345.268</ele>
        <time>2022-08-25T10:02:36Z</time>
      </trkpt>
      <trkpt lat="42.66843300000028" lon="-1.8218920000000012">
        <ele>345.235</ele>
        <time>2022-08-25T10:02:37Z</time>
      </trkpt>
      <trkpt lat="42.66842100000028" lon="-1.8219220000000012">
        <ele>345.448</ele>
        <time>2022-08-25T10:02:38Z</time>
      </trkpt>
      <trkpt lat="42.66840700000028" lon="-1.8219600000000011">
        <ele>345.444</ele>
        <time>2022-08-25T10:02:39Z</time>
      </trkpt>
      <trkpt lat="42.668394000000276" lon="-1.821996000000001">
        <ele>345.475</ele>
        <time>2022-08-25T10:02:40Z</time>
      </trkpt>
      <trkpt lat="42.668338000000276" lon="-1.8221540000000012">
        <ele>345.424</ele>
        <time>2022-08-25T10:02:44Z</time>
      </trkpt>
      <trkpt lat="42.66832900000028" lon="-1.822193000000001">
        <ele>345.404</ele>
        <time>2022-08-25T10:02:45Z</time>
      </trkpt>
      <trkpt lat="42.66830300000028" lon="-1.822279000000001">
        <ele>345.414</ele>
        <time>2022-08-25T10:02:47Z</time>
      </trkpt>
      <trkpt lat="42.66828400000028" lon="-1.822353000000001">
        <ele>345.409</ele>
        <time>2022-08-25T10:02:49Z</time>
      </trkpt>
      <trkpt lat="42.668274000000274" lon="-1.822393000000001">
        <ele>345.423</ele>
        <time>2022-08-25T10:02:50Z</time>
      </trkpt>
      <trkpt lat="42.66826300000027" lon="-1.822432000000001">
        <ele>345.483</ele>
        <time>2022-08-25T10:02:51Z</time>
      </trkpt>
      <trkpt lat="42.66820200000027" lon="-1.822593000000001">
        <ele>345.273</ele>
        <time>2022-08-25T10:02:55Z</time>
      </trkpt>
      <trkpt lat="42.66812400000027" lon="-1.822851000000001">
        <ele>345.049</ele>
        <time>2022-08-25T10:03:00Z</time>
      </trkpt>
      <trkpt lat="42.66811200000027" lon="-1.822909000000001">
        <ele>345.081</ele>
        <time>2022-08-25T10:03:01Z</time>
      </trkpt>
      <trkpt lat="42.66802300000027" lon="-1.823270000000001">
        <ele>344.428</ele>
        <time>2022-08-25T10:03:07Z</time>
      </trkpt>
      <trkpt lat="42.66800300000027" lon="-1.8233500000000011">
        <ele>344.011</ele>
        <time>2022-08-25T10:03:08Z</time>
      </trkpt>
      <trkpt lat="42.66796300000027" lon="-1.8235360000000012">
        <ele>343.477</ele>
        <time>2022-08-25T10:03:11Z</time>
      </trkpt>
      <trkpt lat="42.66794800000027" lon="-1.8236030000000012">
        <ele>343.428</ele>
        <time>2022-08-25T10:03:12Z</time>
      </trkpt>
      <trkpt lat="42.66792800000027" lon="-1.8236820000000011">
        <ele>343.427</ele>
        <time>2022-08-25T10:03:13Z</time>
      </trkpt>
      <trkpt lat="42.667879000000276" lon="-1.8238650000000012">
        <ele>343.268</ele>
        <time>2022-08-25T10:03:16Z</time>
      </trkpt>
      <trkpt lat="42.66785900000028" lon="-1.8239320000000012">
        <ele>343.214</ele>
        <time>2022-08-25T10:03:17Z</time>
      </trkpt>
      <trkpt lat="42.66783600000028" lon="-1.8240100000000012">
        <ele>343.009</ele>
        <time>2022-08-25T10:03:18Z</time>
      </trkpt>
      <trkpt lat="42.66781900000028" lon="-1.8240740000000013">
        <ele>343.053</ele>
        <time>2022-08-25T10:03:19Z</time>
      </trkpt>
      <trkpt lat="42.66780000000028" lon="-1.8241380000000014">
        <ele>343.073</ele>
        <time>2022-08-25T10:03:20Z</time>
      </trkpt>
      <trkpt lat="42.66778500000028" lon="-1.8241890000000014">
        <ele>343.063</ele>
        <time>2022-08-25T10:03:21Z</time>
      </trkpt>
      <trkpt lat="42.66767900000028" lon="-1.8244930000000015">
        <ele>342.829</ele>
        <time>2022-08-25T10:03:26Z</time>
      </trkpt>
      <trkpt lat="42.66758500000028" lon="-1.8247480000000014">
        <ele>342.881</ele>
        <time>2022-08-25T10:03:30Z</time>
      </trkpt>
      <trkpt lat="42.66754500000028" lon="-1.8248550000000014">
        <ele>342.658</ele>
        <time>2022-08-25T10:03:32Z</time>
      </trkpt>
      <trkpt lat="42.66752500000028" lon="-1.8249120000000014">
        <ele>342.631</ele>
        <time>2022-08-25T10:03:33Z</time>
      </trkpt>
      <trkpt lat="42.66750000000028" lon="-1.8249830000000014">
        <ele>342.637</ele>
        <time>2022-08-25T10:03:34Z</time>
      </trkpt>
      <trkpt lat="42.66748000000028" lon="-1.8250390000000014">
        <ele>342.668</ele>
        <time>2022-08-25T10:03:35Z</time>
      </trkpt>
      <trkpt lat="42.667462000000285" lon="-1.8250950000000015">
        <ele>342.666</ele>
        <time>2022-08-25T10:03:36Z</time>
      </trkpt>
      <trkpt lat="42.66744700000029" lon="-1.8251400000000015">
        <ele>342.429</ele>
        <time>2022-08-25T10:03:37Z</time>
      </trkpt>
      <trkpt lat="42.667428000000285" lon="-1.8251970000000015">
        <ele>342.221</ele>
        <time>2022-08-25T10:03:38Z</time>
      </trkpt>
      <trkpt lat="42.66738500000029" lon="-1.8253230000000016">
        <ele>342.009</ele>
        <time>2022-08-25T10:03:40Z</time>
      </trkpt>
      <trkpt lat="42.66725500000029" lon="-1.8257560000000015">
        <ele>341.867</ele>
        <time>2022-08-25T10:03:47Z</time>
      </trkpt>
      <trkpt lat="42.66723400000029" lon="-1.8258150000000015">
        <ele>341.687</ele>
        <time>2022-08-25T10:03:48Z</time>
      </trkpt>
      <trkpt lat="42.66721100000029" lon="-1.8258720000000015">
        <ele>341.657</ele>
        <time>2022-08-25T10:03:49Z</time>
      </trkpt>
      <trkpt lat="42.66718900000029" lon="-1.8259270000000014">
        <ele>341.653</ele>
        <time>2022-08-25T10:03:50Z</time>
      </trkpt>
      <trkpt lat="42.667047000000295" lon="-1.8262760000000013">
        <ele>341.425</ele>
        <time>2022-08-25T10:03:56Z</time>
      </trkpt>
      <trkpt lat="42.666999000000295" lon="-1.8263980000000013">
        <ele>341.272</ele>
        <time>2022-08-25T10:03:58Z</time>
      </trkpt>
      <trkpt lat="42.6669330000003" lon="-1.8265010000000013">
        <ele>341.225</ele>
        <time>2022-08-25T10:04:00Z</time>
      </trkpt>
      <trkpt lat="42.6668930000003" lon="-1.8265490000000013">
        <ele>341.061</ele>
        <time>2022-08-25T10:04:01Z</time>
      </trkpt>
      <trkpt lat="42.666810000000304" lon="-1.8266440000000013">
        <ele>341.082</ele>
        <time>2022-08-25T10:04:03Z</time>
      </trkpt>
      <trkpt lat="42.666745000000304" lon="-1.8267750000000014">
        <ele>340.627</ele>
        <time>2022-08-25T10:04:05Z</time>
      </trkpt>
      <trkpt lat="42.66673000000031" lon="-1.8268470000000014">
        <ele>340.468</ele>
        <time>2022-08-25T10:04:06Z</time>
      </trkpt>
      <trkpt lat="42.66672100000031" lon="-1.8269170000000015">
        <ele>340.414</ele>
        <time>2022-08-25T10:04:07Z</time>
      </trkpt>
      <trkpt lat="42.66672000000031" lon="-1.8269870000000015">
        <ele>340.209</ele>
        <time>2022-08-25T10:04:08Z</time>
      </trkpt>
      <trkpt lat="42.66672500000031" lon="-1.8270520000000015">
        <ele>340.273</ele>
        <time>2022-08-25T10:04:09Z</time>
      </trkpt>
      <trkpt lat="42.666730000000314" lon="-1.8271110000000015">
        <ele>340.083</ele>
        <time>2022-08-25T10:04:10Z</time>
      </trkpt>
      <trkpt lat="42.666732000000316" lon="-1.8271690000000014">
        <ele>340.073</ele>
        <time>2022-08-25T10:04:11Z</time>
      </trkpt>
      <trkpt lat="42.66672800000032" lon="-1.8272300000000015">
        <ele>340.079</ele>
        <time>2022-08-25T10:04:12Z</time>
      </trkpt>
      <trkpt lat="42.66671900000032" lon="-1.8272900000000014">
        <ele>340.491</ele>
        <time>2022-08-25T10:04:13Z</time>
      </trkpt>
      <trkpt lat="42.66670800000032" lon="-1.8273490000000014">
        <ele>340.498</ele>
        <time>2022-08-25T10:04:14Z</time>
      </trkpt>
      <trkpt lat="42.66666700000032" lon="-1.8275230000000013">
        <ele>340.651</ele>
        <time>2022-08-25T10:04:17Z</time>
      </trkpt>
      <trkpt lat="42.66665200000032" lon="-1.8275810000000012">
        <ele>340.627</ele>
        <time>2022-08-25T10:04:18Z</time>
      </trkpt>
      <trkpt lat="42.66663700000032" lon="-1.8276380000000012">
        <ele>340.668</ele>
        <time>2022-08-25T10:04:19Z</time>
      </trkpt>
      <trkpt lat="42.66661700000032" lon="-1.8277540000000012">
        <ele>340.287</ele>
        <time>2022-08-25T10:04:21Z</time>
      </trkpt>
      <trkpt lat="42.666605000000324" lon="-1.8278130000000012">
        <ele>340.242</ele>
        <time>2022-08-25T10:04:22Z</time>
      </trkpt>
      <trkpt lat="42.666593000000326" lon="-1.8278690000000013">
        <ele>340.226</ele>
        <time>2022-08-25T10:04:23Z</time>
      </trkpt>
      <trkpt lat="42.66658100000033" lon="-1.8279260000000013">
        <ele>340.209</ele>
        <time>2022-08-25T10:04:24Z</time>
      </trkpt>
      <trkpt lat="42.66656700000033" lon="-1.8279800000000013">
        <ele>340.049</ele>
        <time>2022-08-25T10:04:25Z</time>
      </trkpt>
      <trkpt lat="42.66655600000033" lon="-1.8280350000000012">
        <ele>340.019</ele>
        <time>2022-08-25T10:04:26Z</time>
      </trkpt>
      <trkpt lat="42.66652200000033" lon="-1.8281930000000013">
        <ele>340.089</ele>
        <time>2022-08-25T10:04:29Z</time>
      </trkpt>
      <trkpt lat="42.666512000000324" lon="-1.8282470000000013">
        <ele>340.085</ele>
        <time>2022-08-25T10:04:30Z</time>
      </trkpt>
      <trkpt lat="42.66649900000032" lon="-1.8282990000000012">
        <ele>340.077</ele>
        <time>2022-08-25T10:04:31Z</time>
      </trkpt>
      <trkpt lat="42.66647400000032" lon="-1.8284000000000011">
        <ele>340.264</ele>
        <time>2022-08-25T10:04:33Z</time>
      </trkpt>
      <trkpt lat="42.66642900000032" lon="-1.8285560000000012">
        <ele>340.857</ele>
        <time>2022-08-25T10:04:36Z</time>
      </trkpt>
      <trkpt lat="42.66634700000032" lon="-1.8288330000000013">
        <ele>340.863</ele>
        <time>2022-08-25T10:04:41Z</time>
      </trkpt>
      <trkpt lat="42.666329000000324" lon="-1.8288840000000013">
        <ele>340.874</ele>
        <time>2022-08-25T10:04:42Z</time>
      </trkpt>
      <trkpt lat="42.666312000000325" lon="-1.8289350000000013">
        <ele>340.673</ele>
        <time>2022-08-25T10:04:43Z</time>
      </trkpt>
      <trkpt lat="42.66622600000032" lon="-1.8291420000000014">
        <ele>340.285</ele>
        <time>2022-08-25T10:04:47Z</time>
      </trkpt>
      <trkpt lat="42.66619600000032" lon="-1.8291890000000013">
        <ele>340.213</ele>
        <time>2022-08-25T10:04:48Z</time>
      </trkpt>
      <trkpt lat="42.66606900000032" lon="-1.8293740000000014">
        <ele>339.809</ele>
        <time>2022-08-25T10:04:52Z</time>
      </trkpt>
      <trkpt lat="42.66603800000032" lon="-1.8294230000000014">
        <ele>339.828</ele>
        <time>2022-08-25T10:04:53Z</time>
      </trkpt>
      <trkpt lat="42.66600900000032" lon="-1.8294750000000013">
        <ele>339.888</ele>
        <time>2022-08-25T10:04:54Z</time>
      </trkpt>
      <trkpt lat="42.66597900000032" lon="-1.8295250000000014">
        <ele>339.838</ele>
        <time>2022-08-25T10:04:55Z</time>
      </trkpt>
      <trkpt lat="42.66594900000032" lon="-1.8295760000000014">
        <ele>339.864</ele>
        <time>2022-08-25T10:04:56Z</time>
      </trkpt>
      <trkpt lat="42.66592000000032" lon="-1.8296300000000014">
        <ele>339.896</ele>
        <time>2022-08-25T10:04:57Z</time>
      </trkpt>
      <trkpt lat="42.66589400000032" lon="-1.8296840000000014">
        <ele>339.833</ele>
        <time>2022-08-25T10:04:58Z</time>
      </trkpt>
      <trkpt lat="42.66587000000032" lon="-1.8297340000000015">
        <ele>339.886</ele>
        <time>2022-08-25T10:04:59Z</time>
      </trkpt>
      <trkpt lat="42.66584700000032" lon="-1.8297840000000016">
        <ele>339.862</ele>
        <time>2022-08-25T10:05:00Z</time>
      </trkpt>
      <trkpt lat="42.66582600000032" lon="-1.8298370000000017">
        <ele>339.873</ele>
        <time>2022-08-25T10:05:01Z</time>
      </trkpt>
      <trkpt lat="42.66580900000032" lon="-1.8298950000000016">
        <ele>339.866</ele>
        <time>2022-08-25T10:05:02Z</time>
      </trkpt>
      <trkpt lat="42.66578500000032" lon="-1.8300120000000015">
        <ele>339.829</ele>
        <time>2022-08-25T10:05:04Z</time>
      </trkpt>
      <trkpt lat="42.66577300000032" lon="-1.8300670000000014">
        <ele>339.821</ele>
        <time>2022-08-25T10:05:05Z</time>
      </trkpt>
      <trkpt lat="42.665758000000324" lon="-1.8301210000000014">
        <ele>339.609</ele>
        <time>2022-08-25T10:05:06Z</time>
      </trkpt>
      <trkpt lat="42.665746000000325" lon="-1.8301770000000015">
        <ele>339.657</ele>
        <time>2022-08-25T10:05:07Z</time>
      </trkpt>
      <trkpt lat="42.66573300000032" lon="-1.8302280000000015">
        <ele>339.447</ele>
        <time>2022-08-25T10:05:08Z</time>
      </trkpt>
      <trkpt lat="42.66572200000032" lon="-1.8302780000000016">
        <ele>339.447</ele>
        <time>2022-08-25T10:05:09Z</time>
      </trkpt>
      <trkpt lat="42.665710000000324" lon="-1.8303290000000016">
        <ele>339.453</ele>
        <time>2022-08-25T10:05:10Z</time>
      </trkpt>
      <trkpt lat="42.66568800000032" lon="-1.8304340000000017">
        <ele>339.435</ele>
        <time>2022-08-25T10:05:12Z</time>
      </trkpt>
      <trkpt lat="42.665681000000326" lon="-1.8304840000000018">
        <ele>339.442</ele>
        <time>2022-08-25T10:05:13Z</time>
      </trkpt>
      <trkpt lat="42.665673000000325" lon="-1.8305350000000018">
        <ele>339.625</ele>
        <time>2022-08-25T10:05:14Z</time>
      </trkpt>
      <trkpt lat="42.665665000000324" lon="-1.8305830000000018">
        <ele>339.641</ele>
        <time>2022-08-25T10:05:15Z</time>
      </trkpt>
      <trkpt lat="42.66565500000032" lon="-1.8306290000000018">
        <ele>339.632</ele>
        <time>2022-08-25T10:05:16Z</time>
      </trkpt>
      <trkpt lat="42.66564600000032" lon="-1.8306750000000018">
        <ele>339.625</ele>
        <time>2022-08-25T10:05:17Z</time>
      </trkpt>
      <trkpt lat="42.66557100000032" lon="-1.8310130000000018">
        <ele>339.826</ele>
        <time>2022-08-25T10:05:24Z</time>
      </trkpt>
      <trkpt lat="42.66555900000032" lon="-1.8310600000000017">
        <ele>339.808</ele>
        <time>2022-08-25T10:05:25Z</time>
      </trkpt>
      <trkpt lat="42.66554900000032" lon="-1.8311100000000018">
        <ele>339.809</ele>
        <time>2022-08-25T10:05:26Z</time>
      </trkpt>
      <trkpt lat="42.665426000000316" lon="-1.8314780000000017">
        <ele>340.273</ele>
        <time>2022-08-25T10:05:33Z</time>
      </trkpt>
      <trkpt lat="42.66532900000032" lon="-1.8317060000000016">
        <ele>340.073</ele>
        <time>2022-08-25T10:05:37Z</time>
      </trkpt>
      <trkpt lat="42.66530700000032" lon="-1.8317660000000016">
        <ele>340.053</ele>
        <time>2022-08-25T10:05:38Z</time>
      </trkpt>
      <trkpt lat="42.66528500000032" lon="-1.8318250000000016">
        <ele>339.829</ele>
        <time>2022-08-25T10:05:39Z</time>
      </trkpt>
      <trkpt lat="42.66526700000032" lon="-1.8318840000000016">
        <ele>339.821</ele>
        <time>2022-08-25T10:05:40Z</time>
      </trkpt>
      <trkpt lat="42.66525100000032" lon="-1.8319410000000016">
        <ele>339.878</ele>
        <time>2022-08-25T10:05:41Z</time>
      </trkpt>
      <trkpt lat="42.66521400000032" lon="-1.8320540000000016">
        <ele>339.861</ele>
        <time>2022-08-25T10:05:43Z</time>
      </trkpt>
      <trkpt lat="42.66514600000032" lon="-1.8322270000000016">
        <ele>339.427</ele>
        <time>2022-08-25T10:05:46Z</time>
      </trkpt>
      <trkpt lat="42.66513000000032" lon="-1.8322710000000015">
        <ele>339.488</ele>
        <time>2022-08-25T10:05:47Z</time>
      </trkpt>
      <trkpt lat="42.66511200000032" lon="-1.8323220000000016">
        <ele>339.443</ele>
        <time>2022-08-25T10:05:48Z</time>
      </trkpt>
      <trkpt lat="42.665091000000324" lon="-1.8323720000000017">
        <ele>339.264</ele>
        <time>2022-08-25T10:05:49Z</time>
      </trkpt>
      <trkpt lat="42.665017000000326" lon="-1.8325300000000018">
        <ele>339.210</ele>
        <time>2022-08-25T10:05:52Z</time>
      </trkpt>
      <trkpt lat="42.66499600000033" lon="-1.8325820000000017">
        <ele>339.209</ele>
        <time>2022-08-25T10:05:53Z</time>
      </trkpt>
      <trkpt lat="42.66497500000033" lon="-1.8326320000000018">
        <ele>339.235</ele>
        <time>2022-08-25T10:05:54Z</time>
      </trkpt>
      <trkpt lat="42.664954000000336" lon="-1.8326830000000018">
        <ele>339.265</ele>
        <time>2022-08-25T10:05:55Z</time>
      </trkpt>
      <trkpt lat="42.664932000000334" lon="-1.832733000000002">
        <ele>339.225</ele>
        <time>2022-08-25T10:05:56Z</time>
      </trkpt>
      <trkpt lat="42.66491000000033" lon="-1.832782000000002">
        <ele>339.041</ele>
        <time>2022-08-25T10:05:57Z</time>
      </trkpt>
      <trkpt lat="42.664889000000336" lon="-1.8328310000000019">
        <ele>339.013</ele>
        <time>2022-08-25T10:05:58Z</time>
      </trkpt>
      <trkpt lat="42.66486800000034" lon="-1.8328800000000018">
        <ele>339.050</ele>
        <time>2022-08-25T10:05:59Z</time>
      </trkpt>
      <trkpt lat="42.66480300000034" lon="-1.8330260000000018">
        <ele>339.013</ele>
        <time>2022-08-25T10:06:02Z</time>
      </trkpt>
      <trkpt lat="42.66476300000034" lon="-1.8331270000000017">
        <ele>339.029</ele>
        <time>2022-08-25T10:06:04Z</time>
      </trkpt>
      <trkpt lat="42.66473900000034" lon="-1.8331750000000018">
        <ele>339.050</ele>
        <time>2022-08-25T10:06:05Z</time>
      </trkpt>
      <trkpt lat="42.664715000000335" lon="-1.8332220000000017">
        <ele>339.069</ele>
        <time>2022-08-25T10:06:06Z</time>
      </trkpt>
      <trkpt lat="42.664687000000335" lon="-1.8332660000000016">
        <ele>339.004</ele>
        <time>2022-08-25T10:06:07Z</time>
      </trkpt>
      <trkpt lat="42.664664000000336" lon="-1.8333110000000017">
        <ele>339.024</ele>
        <time>2022-08-25T10:06:08Z</time>
      </trkpt>
      <trkpt lat="42.66464000000033" lon="-1.8333520000000016">
        <ele>339.009</ele>
        <time>2022-08-25T10:06:09Z</time>
      </trkpt>
      <trkpt lat="42.66459200000033" lon="-1.8334370000000015">
        <ele>339.087</ele>
        <time>2022-08-25T10:06:11Z</time>
      </trkpt>
      <trkpt lat="42.664569000000334" lon="-1.8334770000000016">
        <ele>339.037</ele>
        <time>2022-08-25T10:06:12Z</time>
      </trkpt>
      <trkpt lat="42.66454200000033" lon="-1.8335250000000016">
        <ele>339.077</ele>
        <time>2022-08-25T10:06:13Z</time>
      </trkpt>
      <trkpt lat="42.664524000000334" lon="-1.8335570000000017">
        <ele>339.073</ele>
        <time>2022-08-25T10:06:14Z</time>
      </trkpt>
      <trkpt lat="42.66444300000033" lon="-1.8337320000000017">
        <ele>338.835</ele>
        <time>2022-08-25T10:06:18Z</time>
      </trkpt>
      <trkpt lat="42.664428000000335" lon="-1.8337770000000018">
        <ele>338.872</ele>
        <time>2022-08-25T10:06:19Z</time>
      </trkpt>
      <trkpt lat="42.66441000000034" lon="-1.8338240000000017">
        <ele>338.855</ele>
        <time>2022-08-25T10:06:20Z</time>
      </trkpt>
      <trkpt lat="42.66435800000034" lon="-1.8339640000000017">
        <ele>338.891</ele>
        <time>2022-08-25T10:06:23Z</time>
      </trkpt>
      <trkpt lat="42.66433400000034" lon="-1.8340580000000017">
        <ele>339.042</ele>
        <time>2022-08-25T10:06:25Z</time>
      </trkpt>
      <trkpt lat="42.66432500000034" lon="-1.8341070000000017">
        <ele>339.054</ele>
        <time>2022-08-25T10:06:26Z</time>
      </trkpt>
      <trkpt lat="42.66431800000034" lon="-1.8341540000000016">
        <ele>339.256</ele>
        <time>2022-08-25T10:06:27Z</time>
      </trkpt>
      <trkpt lat="42.66431500000034" lon="-1.8342000000000016">
        <ele>339.611</ele>
        <time>2022-08-25T10:06:28Z</time>
      </trkpt>
      <trkpt lat="42.66431300000034" lon="-1.8342920000000016">
        <ele>339.809</ele>
        <time>2022-08-25T10:06:30Z</time>
      </trkpt>
      <trkpt lat="42.66431500000034" lon="-1.8343280000000015">
        <ele>340.026</ele>
        <time>2022-08-25T10:06:31Z</time>
      </trkpt>
      <trkpt lat="42.664314000000346" lon="-1.8343820000000015">
        <ele>340.086</ele>
        <time>2022-08-25T10:06:32Z</time>
      </trkpt>
      <trkpt lat="42.66431200000034" lon="-1.8344270000000016">
        <ele>340.246</ele>
        <time>2022-08-25T10:06:33Z</time>
      </trkpt>
      <trkpt lat="42.66430400000034" lon="-1.8345150000000017">
        <ele>340.422</ele>
        <time>2022-08-25T10:06:35Z</time>
      </trkpt>
      <trkpt lat="42.66430100000034" lon="-1.8345490000000018">
        <ele>340.684</ele>
        <time>2022-08-25T10:06:36Z</time>
      </trkpt>
      <trkpt lat="42.66429600000034" lon="-1.8346010000000017">
        <ele>340.871</ele>
        <time>2022-08-25T10:06:37Z</time>
      </trkpt>
      <trkpt lat="42.66429300000034" lon="-1.8346450000000016">
        <ele>340.864</ele>
        <time>2022-08-25T10:06:38Z</time>
      </trkpt>
      <trkpt lat="42.66428400000034" lon="-1.8347280000000017">
        <ele>340.880</ele>
        <time>2022-08-25T10:06:40Z</time>
      </trkpt>
      <trkpt lat="42.664280000000346" lon="-1.8347730000000018">
        <ele>340.821</ele>
        <time>2022-08-25T10:06:41Z</time>
      </trkpt>
      <trkpt lat="42.66423900000034" lon="-1.8350320000000018">
        <ele>340.876</ele>
        <time>2022-08-25T10:06:47Z</time>
      </trkpt>
      <trkpt lat="42.66422600000034" lon="-1.8351160000000017">
        <ele>341.090</ele>
        <time>2022-08-25T10:06:49Z</time>
      </trkpt>
      <trkpt lat="42.66420200000034" lon="-1.8352410000000017">
        <ele>341.219</ele>
        <time>2022-08-25T10:06:52Z</time>
      </trkpt>
      <trkpt lat="42.66418800000034" lon="-1.8353240000000017">
        <ele>341.609</ele>
        <time>2022-08-25T10:06:54Z</time>
      </trkpt>
      <trkpt lat="42.66418200000034" lon="-1.8353600000000017">
        <ele>341.838</ele>
        <time>2022-08-25T10:06:55Z</time>
      </trkpt>
      <trkpt lat="42.66417600000034" lon="-1.8353960000000016">
        <ele>341.848</ele>
        <time>2022-08-25T10:06:56Z</time>
      </trkpt>
      <trkpt lat="42.66416900000034" lon="-1.8354350000000015">
        <ele>342.078</ele>
        <time>2022-08-25T10:06:57Z</time>
      </trkpt>
      <trkpt lat="42.664165000000345" lon="-1.8354680000000014">
        <ele>342.024</ele>
        <time>2022-08-25T10:06:58Z</time>
      </trkpt>
      <trkpt lat="42.66414100000034" lon="-1.8356440000000014">
        <ele>342.416</ele>
        <time>2022-08-25T10:07:02Z</time>
      </trkpt>
      <trkpt lat="42.66412100000034" lon="-1.8357680000000014">
        <ele>342.653</ele>
        <time>2022-08-25T10:07:05Z</time>
      </trkpt>
      <trkpt lat="42.664117000000346" lon="-1.8358040000000013">
        <ele>342.656</ele>
        <time>2022-08-25T10:07:06Z</time>
      </trkpt>
      <trkpt lat="42.664114000000346" lon="-1.8358370000000013">
        <ele>342.672</ele>
        <time>2022-08-25T10:07:07Z</time>
      </trkpt>
      <trkpt lat="42.66411000000035" lon="-1.8358750000000013">
        <ele>342.673</ele>
        <time>2022-08-25T10:07:08Z</time>
      </trkpt>
      <trkpt lat="42.66409100000035" lon="-1.8360460000000012">
        <ele>342.827</ele>
        <time>2022-08-25T10:07:12Z</time>
      </trkpt>
      <trkpt lat="42.66408500000035" lon="-1.836085000000001">
        <ele>343.068</ele>
        <time>2022-08-25T10:07:13Z</time>
      </trkpt>
      <trkpt lat="42.66406400000035" lon="-1.836202000000001">
        <ele>343.014</ele>
        <time>2022-08-25T10:07:16Z</time>
      </trkpt>
      <trkpt lat="42.66403900000035" lon="-1.836420000000001">
        <ele>343.409</ele>
        <time>2022-08-25T10:07:21Z</time>
      </trkpt>
      <trkpt lat="42.66403000000035" lon="-1.8365110000000011">
        <ele>343.423</ele>
        <time>2022-08-25T10:07:23Z</time>
      </trkpt>
      <trkpt lat="42.664029000000355" lon="-1.8365540000000011">
        <ele>343.473</ele>
        <time>2022-08-25T10:07:24Z</time>
      </trkpt>
      <trkpt lat="42.66402700000035" lon="-1.8365970000000011">
        <ele>343.493</ele>
        <time>2022-08-25T10:07:25Z</time>
      </trkpt>
      <trkpt lat="42.66402500000035" lon="-1.8366370000000012">
        <ele>343.489</ele>
        <time>2022-08-25T10:07:26Z</time>
      </trkpt>
      <trkpt lat="42.66402200000035" lon="-1.8366790000000013">
        <ele>343.481</ele>
        <time>2022-08-25T10:07:27Z</time>
      </trkpt>
      <trkpt lat="42.66402000000035" lon="-1.8367200000000012">
        <ele>343.468</ele>
        <time>2022-08-25T10:07:28Z</time>
      </trkpt>
      <trkpt lat="42.66401700000035" lon="-1.8367630000000013">
        <ele>343.491</ele>
        <time>2022-08-25T10:07:29Z</time>
      </trkpt>
      <trkpt lat="42.66401600000035" lon="-1.8368030000000013">
        <ele>343.657</ele>
        <time>2022-08-25T10:07:30Z</time>
      </trkpt>
      <trkpt lat="42.664015000000354" lon="-1.8368440000000013">
        <ele>343.868</ele>
        <time>2022-08-25T10:07:31Z</time>
      </trkpt>
      <trkpt lat="42.664006000000356" lon="-1.8370510000000013">
        <ele>344.229</ele>
        <time>2022-08-25T10:07:36Z</time>
      </trkpt>
      <trkpt lat="42.664004000000354" lon="-1.8370890000000013">
        <ele>344.400</ele>
        <time>2022-08-25T10:07:37Z</time>
      </trkpt>
      <trkpt lat="42.664004000000354" lon="-1.8371270000000013">
        <ele>344.420</ele>
        <time>2022-08-25T10:07:38Z</time>
      </trkpt>
      <trkpt lat="42.664001000000354" lon="-1.8371650000000013">
        <ele>344.609</ele>
        <time>2022-08-25T10:07:39Z</time>
      </trkpt>
      <trkpt lat="42.66399300000035" lon="-1.8372440000000012">
        <ele>345.083</ele>
        <time>2022-08-25T10:07:41Z</time>
      </trkpt>
      <trkpt lat="42.663987000000354" lon="-1.8372810000000013">
        <ele>345.223</ele>
        <time>2022-08-25T10:07:42Z</time>
      </trkpt>
      <trkpt lat="42.66398200000035" lon="-1.8373140000000012">
        <ele>345.293</ele>
        <time>2022-08-25T10:07:43Z</time>
      </trkpt>
      <trkpt lat="42.66397400000035" lon="-1.8373490000000012">
        <ele>345.499</ele>
        <time>2022-08-25T10:07:44Z</time>
      </trkpt>
      <trkpt lat="42.66396400000035" lon="-1.8373810000000013">
        <ele>345.491</ele>
        <time>2022-08-25T10:07:45Z</time>
      </trkpt>
      <trkpt lat="42.663926000000345" lon="-1.8374630000000012">
        <ele>345.478</ele>
        <time>2022-08-25T10:07:48Z</time>
      </trkpt>
      <trkpt lat="42.66392400000034" lon="-1.8374760000000012">
        <ele>345.411</ele>
        <time>2022-08-25T10:07:49Z</time>
      </trkpt>
      <trkpt lat="42.66392700000034" lon="-1.8374820000000012">
        <ele>345.467</ele>
        <time>2022-08-25T10:07:50Z</time>
      </trkpt>
      <trkpt lat="42.66393400000034" lon="-1.837486000000001">
        <ele>345.438</ele>
        <time>2022-08-25T10:07:51Z</time>
      </trkpt>
      <trkpt lat="42.66394200000034" lon="-1.837491000000001">
        <ele>345.626</ele>
        <time>2022-08-25T10:07:52Z</time>
      </trkpt>
      <trkpt lat="42.66395200000034" lon="-1.8374960000000011">
        <ele>345.647</ele>
        <time>2022-08-25T10:07:53Z</time>
      </trkpt>
      <trkpt lat="42.66395800000034" lon="-1.8375010000000012">
        <ele>345.611</ele>
        <time>2022-08-25T10:07:54Z</time>
      </trkpt>
      <trkpt lat="42.663960000000344" lon="-1.8375060000000012">
        <ele>345.609</ele>
        <time>2022-08-25T10:07:55Z</time>
      </trkpt>
      <trkpt lat="42.663963000000344" lon="-1.837510000000001">
        <ele>345.673</ele>
        <time>2022-08-25T10:07:56Z</time>
      </trkpt>
      <trkpt lat="42.66396600000034" lon="-1.837516000000001">
        <ele>345.813</ele>
        <time>2022-08-25T10:07:57Z</time>
      </trkpt>
      <trkpt lat="42.66396900000034" lon="-1.837528000000001">
        <ele>345.893</ele>
        <time>2022-08-25T10:07:58Z</time>
      </trkpt>
      <trkpt lat="42.66397200000034" lon="-1.837544000000001">
        <ele>345.839</ele>
        <time>2022-08-25T10:07:59Z</time>
      </trkpt>
      <trkpt lat="42.66396200000034" lon="-1.837590000000001">
        <ele>346.061</ele>
        <time>2022-08-25T10:08:01Z</time>
      </trkpt>
      <trkpt lat="42.663907000000336" lon="-1.8377770000000009">
        <ele>346.058</ele>
        <time>2022-08-25T10:08:06Z</time>
      </trkpt>
      <trkpt lat="42.66380800000034" lon="-1.8380660000000009">
        <ele>346.231</ele>
        <time>2022-08-25T10:08:13Z</time>
      </trkpt>
      <trkpt lat="42.663719000000334" lon="-1.8382900000000009">
        <ele>346.697</ele>
        <time>2022-08-25T10:08:18Z</time>
      </trkpt>
      <trkpt lat="42.663688000000334" lon="-1.8383870000000009">
        <ele>346.428</ele>
        <time>2022-08-25T10:08:20Z</time>
      </trkpt>
      <trkpt lat="42.663674000000334" lon="-1.8384360000000008">
        <ele>346.277</ele>
        <time>2022-08-25T10:08:21Z</time>
      </trkpt>
      <trkpt lat="42.66365900000034" lon="-1.8384830000000008">
        <ele>346.261</ele>
        <time>2022-08-25T10:08:22Z</time>
      </trkpt>
      <trkpt lat="42.663648000000336" lon="-1.8385320000000007">
        <ele>346.427</ele>
        <time>2022-08-25T10:08:23Z</time>
      </trkpt>
      <trkpt lat="42.663631000000336" lon="-1.8386280000000008">
        <ele>346.209</ele>
        <time>2022-08-25T10:08:25Z</time>
      </trkpt>
      <trkpt lat="42.66362400000034" lon="-1.8386770000000008">
        <ele>346.058</ele>
        <time>2022-08-25T10:08:26Z</time>
      </trkpt>
      <trkpt lat="42.66362000000034" lon="-1.8387240000000007">
        <ele>346.088</ele>
        <time>2022-08-25T10:08:27Z</time>
      </trkpt>
      <trkpt lat="42.66361500000034" lon="-1.8387700000000007">
        <ele>346.028</ele>
        <time>2022-08-25T10:08:28Z</time>
      </trkpt>
      <trkpt lat="42.663611000000344" lon="-1.8388050000000007">
        <ele>346.024</ele>
        <time>2022-08-25T10:08:29Z</time>
      </trkpt>
      <trkpt lat="42.66360300000034" lon="-1.8388480000000007">
        <ele>346.036</ele>
        <time>2022-08-25T10:08:30Z</time>
      </trkpt>
      <trkpt lat="42.66359500000034" lon="-1.8388960000000008">
        <ele>346.093</ele>
        <time>2022-08-25T10:08:31Z</time>
      </trkpt>
      <trkpt lat="42.66359000000034" lon="-1.8389350000000007">
        <ele>346.056</ele>
        <time>2022-08-25T10:08:32Z</time>
      </trkpt>
      <trkpt lat="42.66358500000034" lon="-1.8389720000000007">
        <ele>346.232</ele>
        <time>2022-08-25T10:08:33Z</time>
      </trkpt>
      <trkpt lat="42.66358000000034" lon="-1.8390050000000007">
        <ele>346.483</ele>
        <time>2022-08-25T10:08:34Z</time>
      </trkpt>
      <trkpt lat="42.66357600000034" lon="-1.8390380000000006">
        <ele>346.465</ele>
        <time>2022-08-25T10:08:35Z</time>
      </trkpt>
      <trkpt lat="42.66357200000034" lon="-1.8390690000000005">
        <ele>346.468</ele>
        <time>2022-08-25T10:08:36Z</time>
      </trkpt>
      <trkpt lat="42.663571000000346" lon="-1.8391010000000005">
        <ele>346.614</ele>
        <time>2022-08-25T10:08:37Z</time>
      </trkpt>
      <trkpt lat="42.66356700000035" lon="-1.8391300000000006">
        <ele>346.609</ele>
        <time>2022-08-25T10:08:38Z</time>
      </trkpt>
      <trkpt lat="42.66356100000035" lon="-1.8391580000000005">
        <ele>346.847</ele>
        <time>2022-08-25T10:08:39Z</time>
      </trkpt>
      <trkpt lat="42.66355600000035" lon="-1.8392140000000006">
        <ele>347.257</ele>
        <time>2022-08-25T10:08:41Z</time>
      </trkpt>
      <trkpt lat="42.66355600000035" lon="-1.8392400000000007">
        <ele>347.647</ele>
        <time>2022-08-25T10:08:42Z</time>
      </trkpt>
      <trkpt lat="42.663563000000345" lon="-1.8393640000000007">
        <ele>348.483</ele>
        <time>2022-08-25T10:08:46Z</time>
      </trkpt>
      <trkpt lat="42.663563000000345" lon="-1.8393940000000006">
        <ele>348.645</ele>
        <time>2022-08-25T10:08:47Z</time>
      </trkpt>
      <trkpt lat="42.66356100000034" lon="-1.8394240000000006">
        <ele>348.682</ele>
        <time>2022-08-25T10:08:48Z</time>
      </trkpt>
      <trkpt lat="42.66355800000034" lon="-1.8394560000000006">
        <ele>348.895</ele>
        <time>2022-08-25T10:08:49Z</time>
      </trkpt>
      <trkpt lat="42.663552000000344" lon="-1.8394850000000007">
        <ele>349.061</ele>
        <time>2022-08-25T10:08:50Z</time>
      </trkpt>
      <trkpt lat="42.66354400000034" lon="-1.8396560000000006">
        <ele>349.272</ele>
        <time>2022-08-25T10:08:55Z</time>
      </trkpt>
      <trkpt lat="42.66354200000034" lon="-1.8396850000000007">
        <ele>349.292</ele>
        <time>2022-08-25T10:08:56Z</time>
      </trkpt>
      <trkpt lat="42.66354000000034" lon="-1.8397090000000007">
        <ele>349.273</ele>
        <time>2022-08-25T10:08:57Z</time>
      </trkpt>
      <trkpt lat="42.66353900000034" lon="-1.8397440000000007">
        <ele>349.220</ele>
        <time>2022-08-25T10:08:58Z</time>
      </trkpt>
      <trkpt lat="42.663538000000344" lon="-1.8397700000000008">
        <ele>349.409</ele>
        <time>2022-08-25T10:08:59Z</time>
      </trkpt>
      <trkpt lat="42.663537000000346" lon="-1.8397960000000009">
        <ele>349.290</ele>
        <time>2022-08-25T10:09:00Z</time>
      </trkpt>
      <trkpt lat="42.66353000000035" lon="-1.8398530000000008">
        <ele>349.680</ele>
        <time>2022-08-25T10:09:02Z</time>
      </trkpt>
      <trkpt lat="42.66350900000035" lon="-1.8399120000000009">
        <ele>349.880</ele>
        <time>2022-08-25T10:09:04Z</time>
      </trkpt>
      <trkpt lat="42.66349600000035" lon="-1.8399400000000008">
        <ele>349.836</ele>
        <time>2022-08-25T10:09:05Z</time>
      </trkpt>
      <trkpt lat="42.66343700000035" lon="-1.8400480000000008">
        <ele>350.088</ele>
        <time>2022-08-25T10:09:09Z</time>
      </trkpt>
      <trkpt lat="42.66334700000035" lon="-1.8401730000000007">
        <ele>350.485</ele>
        <time>2022-08-25T10:09:14Z</time>
      </trkpt>
      <trkpt lat="42.66319900000035" lon="-1.8403710000000006">
        <ele>350.228</ele>
        <time>2022-08-25T10:09:20Z</time>
      </trkpt>
      <trkpt lat="42.663180000000345" lon="-1.8404040000000006">
        <ele>350.224</ele>
        <time>2022-08-25T10:09:21Z</time>
      </trkpt>
      <trkpt lat="42.66304400000035" lon="-1.8406020000000005">
        <ele>348.625</ele>
        <time>2022-08-25T10:09:26Z</time>
      </trkpt>
      <trkpt lat="42.66285300000035" lon="-1.8408580000000005">
        <ele>347.424</ele>
        <time>2022-08-25T10:09:31Z</time>
      </trkpt>
      <trkpt lat="42.662814000000346" lon="-1.8409080000000007">
        <ele>347.204</ele>
        <time>2022-08-25T10:09:32Z</time>
      </trkpt>
      <trkpt lat="42.66277900000035" lon="-1.8409570000000006">
        <ele>346.614</ele>
        <time>2022-08-25T10:09:33Z</time>
      </trkpt>
      <trkpt lat="42.66270800000035" lon="-1.8410580000000005">
        <ele>346.209</ele>
        <time>2022-08-25T10:09:35Z</time>
      </trkpt>
      <trkpt lat="42.66255900000035" lon="-1.8412680000000006">
        <ele>345.883</ele>
        <time>2022-08-25T10:09:39Z</time>
      </trkpt>
      <trkpt lat="42.66252300000035" lon="-1.8413150000000005">
        <ele>345.673</ele>
        <time>2022-08-25T10:09:40Z</time>
      </trkpt>
      <trkpt lat="42.662479000000346" lon="-1.8413530000000005">
        <ele>345.473</ele>
        <time>2022-08-25T10:09:41Z</time>
      </trkpt>
      <trkpt lat="42.66238000000035" lon="-1.8414260000000005">
        <ele>345.289</ele>
        <time>2022-08-25T10:09:43Z</time>
      </trkpt>
      <trkpt lat="42.66233400000035" lon="-1.8414630000000005">
        <ele>345.211</ele>
        <time>2022-08-25T10:09:44Z</time>
      </trkpt>
      <trkpt lat="42.66229700000035" lon="-1.8414980000000005">
        <ele>345.688</ele>
        <time>2022-08-25T10:09:45Z</time>
      </trkpt>
      <trkpt lat="42.66226400000035" lon="-1.8415390000000005">
        <ele>345.411</ele>
        <time>2022-08-25T10:09:46Z</time>
      </trkpt>
      <trkpt lat="42.66216000000035" lon="-1.8416970000000006">
        <ele>345.637</ele>
        <time>2022-08-25T10:09:49Z</time>
      </trkpt>
      <trkpt lat="42.662130000000346" lon="-1.8417580000000007">
        <ele>345.868</ele>
        <time>2022-08-25T10:09:50Z</time>
      </trkpt>
      <trkpt lat="42.66207600000035" lon="-1.8418810000000008">
        <ele>346.063</ele>
        <time>2022-08-25T10:09:52Z</time>
      </trkpt>
      <trkpt lat="42.66193200000035" lon="-1.8422290000000008">
        <ele>345.844</ele>
        <time>2022-08-25T10:09:57Z</time>
      </trkpt>
      <trkpt lat="42.66183600000035" lon="-1.8424860000000007">
        <ele>345.218</ele>
        <time>2022-08-25T10:10:00Z</time>
      </trkpt>
      <trkpt lat="42.661812000000346" lon="-1.8425670000000007">
        <ele>345.009</ele>
        <time>2022-08-25T10:10:01Z</time>
      </trkpt>
      <trkpt lat="42.661790000000344" lon="-1.8426470000000008">
        <ele>344.487</ele>
        <time>2022-08-25T10:10:02Z</time>
      </trkpt>
      <trkpt lat="42.66177200000035" lon="-1.8427220000000009">
        <ele>344.257</ele>
        <time>2022-08-25T10:10:03Z</time>
      </trkpt>
      <trkpt lat="42.661756000000345" lon="-1.8427980000000008">
        <ele>344.027</ele>
        <time>2022-08-25T10:10:04Z</time>
      </trkpt>
      <trkpt lat="42.66174300000034" lon="-1.8428710000000008">
        <ele>343.823</ele>
        <time>2022-08-25T10:10:05Z</time>
      </trkpt>
      <trkpt lat="42.66173300000034" lon="-1.8429390000000008">
        <ele>344.085</ele>
        <time>2022-08-25T10:10:06Z</time>
      </trkpt>
      <trkpt lat="42.66172700000034" lon="-1.8430060000000008">
        <ele>344.042</ele>
        <time>2022-08-25T10:10:07Z</time>
      </trkpt>
      <trkpt lat="42.661720000000344" lon="-1.8430730000000008">
        <ele>343.865</ele>
        <time>2022-08-25T10:10:08Z</time>
      </trkpt>
      <trkpt lat="42.661714000000345" lon="-1.8431380000000008">
        <ele>344.051</ele>
        <time>2022-08-25T10:10:09Z</time>
      </trkpt>
      <trkpt lat="42.661708000000345" lon="-1.8432030000000008">
        <ele>344.052</ele>
        <time>2022-08-25T10:10:10Z</time>
      </trkpt>
      <trkpt lat="42.661703000000344" lon="-1.8432680000000008">
        <ele>344.072</ele>
        <time>2022-08-25T10:10:11Z</time>
      </trkpt>
      <trkpt lat="42.66169500000034" lon="-1.8433280000000007">
        <ele>344.013</ele>
        <time>2022-08-25T10:10:12Z</time>
      </trkpt>
      <trkpt lat="42.66168700000034" lon="-1.8433870000000008">
        <ele>344.214</ele>
        <time>2022-08-25T10:10:13Z</time>
      </trkpt>
      <trkpt lat="42.66167800000034" lon="-1.8434430000000008">
        <ele>344.209</ele>
        <time>2022-08-25T10:10:14Z</time>
      </trkpt>
      <trkpt lat="42.661604000000345" lon="-1.8437560000000008">
        <ele>344.278</ele>
        <time>2022-08-25T10:10:19Z</time>
      </trkpt>
      <trkpt lat="42.661570000000346" lon="-1.8438920000000008">
        <ele>344.288</ele>
        <time>2022-08-25T10:10:21Z</time>
      </trkpt>
      <trkpt lat="42.661463000000346" lon="-1.8442290000000008">
        <ele>344.058</ele>
        <time>2022-08-25T10:10:26Z</time>
      </trkpt>
      <trkpt lat="42.66144500000035" lon="-1.8442820000000009">
        <ele>344.084</ele>
        <time>2022-08-25T10:10:27Z</time>
      </trkpt>
      <trkpt lat="42.661421000000345" lon="-1.844346000000001">
        <ele>344.216</ele>
        <time>2022-08-25T10:10:28Z</time>
      </trkpt>
      <trkpt lat="42.661368000000344" lon="-1.844492000000001">
        <ele>344.023</ele>
        <time>2022-08-25T10:10:30Z</time>
      </trkpt>
      <trkpt lat="42.66131200000034" lon="-1.844683000000001">
        <ele>343.256</ele>
        <time>2022-08-25T10:10:33Z</time>
      </trkpt>
      <trkpt lat="42.661309000000344" lon="-1.8447570000000009">
        <ele>343.212</ele>
        <time>2022-08-25T10:10:34Z</time>
      </trkpt>
      <trkpt lat="42.66131600000034" lon="-1.844818000000001">
        <ele>343.263</ele>
        <time>2022-08-25T10:10:35Z</time>
      </trkpt>
      <trkpt lat="42.66137300000034" lon="-1.844986000000001">
        <ele>343.039</ele>
        <time>2022-08-25T10:10:38Z</time>
      </trkpt>
      <trkpt lat="42.66141300000034" lon="-1.8451240000000009">
        <ele>342.601</ele>
        <time>2022-08-25T10:10:40Z</time>
      </trkpt>
      <trkpt lat="42.66145200000034" lon="-1.845239000000001">
        <ele>342.421</ele>
        <time>2022-08-25T10:10:42Z</time>
      </trkpt>
      <trkpt lat="42.661504000000335" lon="-1.845357000000001">
        <ele>342.009</ele>
        <time>2022-08-25T10:10:44Z</time>
      </trkpt>
      <trkpt lat="42.66152300000034" lon="-1.845408000000001">
        <ele>341.864</ele>
        <time>2022-08-25T10:10:45Z</time>
      </trkpt>
      <trkpt lat="42.661535000000335" lon="-1.845430000000001">
        <ele>341.884</ele>
        <time>2022-08-25T10:10:46Z</time>
      </trkpt>
      <trkpt lat="42.661546000000335" lon="-1.845451000000001">
        <ele>341.684</ele>
        <time>2022-08-25T10:10:47Z</time>
      </trkpt>
      <trkpt lat="42.661554000000336" lon="-1.845465000000001">
        <ele>341.690</ele>
        <time>2022-08-25T10:10:48Z</time>
      </trkpt>
      <trkpt lat="42.661566000000334" lon="-1.845478000000001">
        <ele>341.662</ele>
        <time>2022-08-25T10:10:49Z</time>
      </trkpt>
      <trkpt lat="42.66157800000033" lon="-1.845491000000001">
        <ele>341.429</ele>
        <time>2022-08-25T10:10:50Z</time>
      </trkpt>
      <trkpt lat="42.66158400000033" lon="-1.845505000000001">
        <ele>341.462</ele>
        <time>2022-08-25T10:10:51Z</time>
      </trkpt>
      <trkpt lat="42.66159100000033" lon="-1.845517000000001">
        <ele>341.458</ele>
        <time>2022-08-25T10:10:52Z</time>
      </trkpt>
      <trkpt lat="42.66159900000033" lon="-1.8455260000000009">
        <ele>341.419</ele>
        <time>2022-08-25T10:10:53Z</time>
      </trkpt>
      <trkpt lat="42.66160800000033" lon="-1.845534000000001">
        <ele>341.498</ele>
        <time>2022-08-25T10:10:54Z</time>
      </trkpt>
      <trkpt lat="42.661620000000326" lon="-1.845541000000001">
        <ele>341.615</ele>
        <time>2022-08-25T10:10:55Z</time>
      </trkpt>
      <trkpt lat="42.66163600000033" lon="-1.845552000000001">
        <ele>341.826</ele>
        <time>2022-08-25T10:10:56Z</time>
      </trkpt>
      <trkpt lat="42.66165000000033" lon="-1.845567000000001">
        <ele>342.409</ele>
        <time>2022-08-25T10:10:57Z</time>
      </trkpt>
      <trkpt lat="42.66167400000033" lon="-1.8455850000000011">
        <ele>343.020</ele>
        <time>2022-08-25T10:10:59Z</time>
      </trkpt>
      <trkpt lat="42.66168300000033" lon="-1.845599000000001">
        <ele>343.450</ele>
        <time>2022-08-25T10:11:00Z</time>
      </trkpt>
      <trkpt lat="42.66169400000033" lon="-1.845611000000001">
        <ele>343.680</ele>
        <time>2022-08-25T10:11:01Z</time>
      </trkpt>
      <trkpt lat="42.661704000000334" lon="-1.845620000000001">
        <ele>344.086</ele>
        <time>2022-08-25T10:11:02Z</time>
      </trkpt>
      <trkpt lat="42.66171300000033" lon="-1.8456240000000008">
        <ele>344.028</ele>
        <time>2022-08-25T10:11:03Z</time>
      </trkpt>
      <trkpt lat="42.66172400000033" lon="-1.8456290000000009">
        <ele>344.635</ele>
        <time>2022-08-25T10:11:04Z</time>
      </trkpt>
      <trkpt lat="42.661735000000334" lon="-1.8456350000000008">
        <ele>345.038</ele>
        <time>2022-08-25T10:11:05Z</time>
      </trkpt>
      <trkpt lat="42.66174400000033" lon="-1.8456410000000008">
        <ele>345.254</ele>
        <time>2022-08-25T10:11:06Z</time>
      </trkpt>
      <trkpt lat="42.661754000000336" lon="-1.8456470000000007">
        <ele>345.475</ele>
        <time>2022-08-25T10:11:07Z</time>
      </trkpt>
      <trkpt lat="42.661768000000336" lon="-1.8456550000000007">
        <ele>345.652</ele>
        <time>2022-08-25T10:11:09Z</time>
      </trkpt>
      <trkpt lat="42.66177000000034" lon="-1.8456570000000008">
        <ele>345.653</ele>
        <time>2022-08-25T10:11:10Z</time>
      </trkpt>
      <trkpt lat="42.661782000000336" lon="-1.8456690000000007">
        <ele>345.808</ele>
        <time>2022-08-25T10:11:11Z</time>
      </trkpt>
      <trkpt lat="42.66179300000034" lon="-1.8456820000000007">
        <ele>345.809</ele>
        <time>2022-08-25T10:11:12Z</time>
      </trkpt>
      <trkpt lat="42.66180000000033" lon="-1.8456950000000008">
        <ele>346.046</ele>
        <time>2022-08-25T10:11:13Z</time>
      </trkpt>
      <trkpt lat="42.66180700000033" lon="-1.8457050000000008">
        <ele>346.286</ele>
        <time>2022-08-25T10:11:14Z</time>
      </trkpt>
      <trkpt lat="42.66184400000033" lon="-1.8457440000000007">
        <ele>346.666</ele>
        <time>2022-08-25T10:11:17Z</time>
      </trkpt>
      <trkpt lat="42.66185200000033" lon="-1.8457550000000007">
        <ele>346.842</ele>
        <time>2022-08-25T10:11:18Z</time>
      </trkpt>
      <trkpt lat="42.66186100000033" lon="-1.8457630000000007">
        <ele>347.074</ele>
        <time>2022-08-25T10:11:19Z</time>
      </trkpt>
      <trkpt lat="42.66187100000033" lon="-1.8457730000000008">
        <ele>347.061</ele>
        <time>2022-08-25T10:11:20Z</time>
      </trkpt>
      <trkpt lat="42.66192700000033" lon="-1.8458210000000008">
        <ele>347.834</ele>
        <time>2022-08-25T10:11:25Z</time>
      </trkpt>
      <trkpt lat="42.66193800000033" lon="-1.8458330000000007">
        <ele>348.030</ele>
        <time>2022-08-25T10:11:26Z</time>
      </trkpt>
      <trkpt lat="42.66196200000034" lon="-1.8458560000000008">
        <ele>348.281</ele>
        <time>2022-08-25T10:11:28Z</time>
      </trkpt>
      <trkpt lat="42.66197300000034" lon="-1.8458650000000008">
        <ele>348.272</ele>
        <time>2022-08-25T10:11:29Z</time>
      </trkpt>
      <trkpt lat="42.66200300000034" lon="-1.8458910000000008">
        <ele>349.413</ele>
        <time>2022-08-25T10:11:32Z</time>
      </trkpt>
      <trkpt lat="42.66203700000034" lon="-1.8459180000000008">
        <ele>350.414</ele>
        <time>2022-08-25T10:11:35Z</time>
      </trkpt>
      <trkpt lat="42.662055000000336" lon="-1.8459460000000008">
        <ele>350.809</ele>
        <time>2022-08-25T10:11:37Z</time>
      </trkpt>
      <trkpt lat="42.66206300000034" lon="-1.8459660000000007">
        <ele>351.248</ele>
        <time>2022-08-25T10:11:38Z</time>
      </trkpt>
      <trkpt lat="42.66207100000034" lon="-1.8459780000000006">
        <ele>351.488</ele>
        <time>2022-08-25T10:11:39Z</time>
      </trkpt>
      <trkpt lat="42.66207700000034" lon="-1.8459910000000006">
        <ele>351.638</ele>
        <time>2022-08-25T10:11:40Z</time>
      </trkpt>
      <trkpt lat="42.662092000000335" lon="-1.8460130000000006">
        <ele>352.044</ele>
        <time>2022-08-25T10:11:42Z</time>
      </trkpt>
      <trkpt lat="42.662123000000335" lon="-1.8460450000000006">
        <ele>352.476</ele>
        <time>2022-08-25T10:11:45Z</time>
      </trkpt>
      <trkpt lat="42.66212700000033" lon="-1.8460490000000005">
        <ele>352.473</ele>
        <time>2022-08-25T10:11:46Z</time>
      </trkpt>
      <trkpt lat="42.66214900000033" lon="-1.8460590000000006">
        <ele>352.816</ele>
        <time>2022-08-25T10:11:48Z</time>
      </trkpt>
      <trkpt lat="42.66215900000034" lon="-1.8460630000000005">
        <ele>353.032</ele>
        <time>2022-08-25T10:11:49Z</time>
      </trkpt>
      <trkpt lat="42.66218100000034" lon="-1.8460670000000003">
        <ele>353.453</ele>
        <time>2022-08-25T10:11:51Z</time>
      </trkpt>
      <trkpt lat="42.662221000000336" lon="-1.8460870000000003">
        <ele>353.695</ele>
        <time>2022-08-25T10:11:54Z</time>
      </trkpt>
      <trkpt lat="42.66223100000034" lon="-1.8460910000000001">
        <ele>353.849</ele>
        <time>2022-08-25T10:11:55Z</time>
      </trkpt>
      <trkpt lat="42.66224200000034" lon="-1.846092">
        <ele>353.823</ele>
        <time>2022-08-25T10:11:56Z</time>
      </trkpt>
      <trkpt lat="42.66224900000034" lon="-1.846096">
        <ele>354.009</ele>
        <time>2022-08-25T10:11:57Z</time>
      </trkpt>
      <trkpt lat="42.66225700000034" lon="-1.846106">
        <ele>354.040</ele>
        <time>2022-08-25T10:11:58Z</time>
      </trkpt>
      <trkpt lat="42.662266000000336" lon="-1.846111">
        <ele>354.270</ele>
        <time>2022-08-25T10:11:59Z</time>
      </trkpt>
      <trkpt lat="42.66227700000034" lon="-1.8461100000000001">
        <ele>354.220</ele>
        <time>2022-08-25T10:12:00Z</time>
      </trkpt>
      <trkpt lat="42.66228700000034" lon="-1.846108">
        <ele>354.686</ele>
        <time>2022-08-25T10:12:01Z</time>
      </trkpt>
      <trkpt lat="42.66229700000034" lon="-1.8461130000000001">
        <ele>354.888</ele>
        <time>2022-08-25T10:12:02Z</time>
      </trkpt>
      <trkpt lat="42.66230300000034" lon="-1.8461150000000002">
        <ele>355.045</ele>
        <time>2022-08-25T10:12:03Z</time>
      </trkpt>
      <trkpt lat="42.66233800000034" lon="-1.846151">
        <ele>355.688</ele>
        <time>2022-08-25T10:12:07Z</time>
      </trkpt>
      <trkpt lat="42.662345000000336" lon="-1.846159">
        <ele>355.864</ele>
        <time>2022-08-25T10:12:08Z</time>
      </trkpt>
      <trkpt lat="42.66235600000034" lon="-1.846165">
        <ele>356.245</ele>
        <time>2022-08-25T10:12:09Z</time>
      </trkpt>
      <trkpt lat="42.662374000000334" lon="-1.84617">
        <ele>356.218</ele>
        <time>2022-08-25T10:12:10Z</time>
      </trkpt>
      <trkpt lat="42.66240300000033" lon="-1.8461930000000002">
        <ele>356.698</ele>
        <time>2022-08-25T10:12:12Z</time>
      </trkpt>
      <trkpt lat="42.66243900000033" lon="-1.8462450000000001">
        <ele>357.217</ele>
        <time>2022-08-25T10:12:15Z</time>
      </trkpt>
      <trkpt lat="42.66245300000033" lon="-1.8462640000000001">
        <ele>357.409</ele>
        <time>2022-08-25T10:12:16Z</time>
      </trkpt>
      <trkpt lat="42.662463000000336" lon="-1.8462800000000001">
        <ele>357.682</ele>
        <time>2022-08-25T10:12:17Z</time>
      </trkpt>
      <trkpt lat="42.66252200000034" lon="-1.8463230000000002">
        <ele>358.242</ele>
        <time>2022-08-25T10:12:22Z</time>
      </trkpt>
      <trkpt lat="42.662531000000335" lon="-1.8463390000000002">
        <ele>358.252</ele>
        <time>2022-08-25T10:12:23Z</time>
      </trkpt>
      <trkpt lat="42.662556000000336" lon="-1.8463810000000003">
        <ele>358.458</ele>
        <time>2022-08-25T10:12:25Z</time>
      </trkpt>
      <trkpt lat="42.66257700000033" lon="-1.8464120000000002">
        <ele>358.680</ele>
        <time>2022-08-25T10:12:27Z</time>
      </trkpt>
      <trkpt lat="42.66258800000033" lon="-1.846424">
        <ele>358.867</ele>
        <time>2022-08-25T10:12:28Z</time>
      </trkpt>
      <trkpt lat="42.66263300000033" lon="-1.846475">
        <ele>359.280</ele>
        <time>2022-08-25T10:12:33Z</time>
      </trkpt>
      <trkpt lat="42.66265100000033" lon="-1.846505">
        <ele>359.426</ele>
        <time>2022-08-25T10:12:35Z</time>
      </trkpt>
      <trkpt lat="42.66268200000033" lon="-1.846541">
        <ele>359.837</ele>
        <time>2022-08-25T10:12:38Z</time>
      </trkpt>
      <trkpt lat="42.66268700000033" lon="-1.846548">
        <ele>359.882</ele>
        <time>2022-08-25T10:12:39Z</time>
      </trkpt>
      <trkpt lat="42.66269400000033" lon="-1.846557">
        <ele>360.043</ele>
        <time>2022-08-25T10:12:40Z</time>
      </trkpt>
      <trkpt lat="42.66270400000033" lon="-1.846566">
        <ele>360.017</ele>
        <time>2022-08-25T10:12:41Z</time>
      </trkpt>
      <trkpt lat="42.66271300000033" lon="-1.846576">
        <ele>360.009</ele>
        <time>2022-08-25T10:12:42Z</time>
      </trkpt>
      <trkpt lat="42.662723000000334" lon="-1.846582">
        <ele>360.229</ele>
        <time>2022-08-25T10:12:43Z</time>
      </trkpt>
      <trkpt lat="42.66273200000033" lon="-1.8465909999999999">
        <ele>360.249</ele>
        <time>2022-08-25T10:12:44Z</time>
      </trkpt>
      <trkpt lat="42.66274100000033" lon="-1.8465969999999998">
        <ele>360.439</ele>
        <time>2022-08-25T10:12:45Z</time>
      </trkpt>
      <trkpt lat="42.66275700000033" lon="-1.8466049999999998">
        <ele>360.415</ele>
        <time>2022-08-25T10:12:47Z</time>
      </trkpt>
      <trkpt lat="42.66276400000033" lon="-1.8466089999999997">
        <ele>360.487</ele>
        <time>2022-08-25T10:12:48Z</time>
      </trkpt>
      <trkpt lat="42.662771000000326" lon="-1.8466179999999996">
        <ele>360.494</ele>
        <time>2022-08-25T10:12:49Z</time>
      </trkpt>
      <trkpt lat="42.66278100000033" lon="-1.8466259999999997">
        <ele>360.437</ele>
        <time>2022-08-25T10:12:50Z</time>
      </trkpt>
      <trkpt lat="42.66279100000033" lon="-1.8466319999999996">
        <ele>360.613</ele>
        <time>2022-08-25T10:12:51Z</time>
      </trkpt>
      <trkpt lat="42.662801000000336" lon="-1.8466389999999997">
        <ele>360.624</ele>
        <time>2022-08-25T10:12:52Z</time>
      </trkpt>
      <trkpt lat="42.66281100000034" lon="-1.8466399999999996">
        <ele>360.867</ele>
        <time>2022-08-25T10:12:53Z</time>
      </trkpt>
      <trkpt lat="42.66282100000034" lon="-1.8466379999999996">
        <ele>360.881</ele>
        <time>2022-08-25T10:12:54Z</time>
      </trkpt>
      <trkpt lat="42.66286400000034" lon="-1.8466429999999996">
        <ele>361.219</ele>
        <time>2022-08-25T10:12:58Z</time>
      </trkpt>
      <trkpt lat="42.66287200000034" lon="-1.8466449999999996">
        <ele>361.409</ele>
        <time>2022-08-25T10:12:59Z</time>
      </trkpt>
      <trkpt lat="42.66288100000034" lon="-1.8466489999999995">
        <ele>361.497</ele>
        <time>2022-08-25T10:13:00Z</time>
      </trkpt>
      <trkpt lat="42.662888000000336" lon="-1.8466529999999994">
        <ele>361.647</ele>
        <time>2022-08-25T10:13:01Z</time>
      </trkpt>
      <trkpt lat="42.66289800000034" lon="-1.8466559999999994">
        <ele>361.687</ele>
        <time>2022-08-25T10:13:02Z</time>
      </trkpt>
      <trkpt lat="42.66292600000034" lon="-1.8466729999999993">
        <ele>362.033</ele>
        <time>2022-08-25T10:13:05Z</time>
      </trkpt>
      <trkpt lat="42.66294700000034" lon="-1.8466889999999994">
        <ele>362.435</ele>
        <time>2022-08-25T10:13:07Z</time>
      </trkpt>
      <trkpt lat="42.66295800000034" lon="-1.8466929999999993">
        <ele>362.862</ele>
        <time>2022-08-25T10:13:08Z</time>
      </trkpt>
      <trkpt lat="42.66299100000034" lon="-1.8467069999999992">
        <ele>363.615</ele>
        <time>2022-08-25T10:13:11Z</time>
      </trkpt>
      <trkpt lat="42.66300000000034" lon="-1.846710999999999">
        <ele>363.671</ele>
        <time>2022-08-25T10:13:12Z</time>
      </trkpt>
      <trkpt lat="42.66301000000034" lon="-1.8467179999999992">
        <ele>364.042</ele>
        <time>2022-08-25T10:13:13Z</time>
      </trkpt>
      <trkpt lat="42.66302100000034" lon="-1.846729999999999">
        <ele>364.476</ele>
        <time>2022-08-25T10:13:14Z</time>
      </trkpt>
      <trkpt lat="42.663093000000345" lon="-1.8467529999999992">
        <ele>365.290</ele>
        <time>2022-08-25T10:13:20Z</time>
      </trkpt>
      <trkpt lat="42.663101000000346" lon="-1.846756999999999">
        <ele>365.219</ele>
        <time>2022-08-25T10:13:21Z</time>
      </trkpt>
      <trkpt lat="42.663121000000345" lon="-1.846762999999999">
        <ele>365.209</ele>
        <time>2022-08-25T10:13:23Z</time>
      </trkpt>
      <trkpt lat="42.663132000000346" lon="-1.8467699999999991">
        <ele>365.448</ele>
        <time>2022-08-25T10:13:24Z</time>
      </trkpt>
      <trkpt lat="42.663144000000344" lon="-1.846773999999999">
        <ele>365.488</ele>
        <time>2022-08-25T10:13:25Z</time>
      </trkpt>
      <trkpt lat="42.66315300000034" lon="-1.846777999999999">
        <ele>365.628</ele>
        <time>2022-08-25T10:13:26Z</time>
      </trkpt>
      <trkpt lat="42.663158000000344" lon="-1.8467839999999989">
        <ele>365.614</ele>
        <time>2022-08-25T10:13:27Z</time>
      </trkpt>
      <trkpt lat="42.663163000000345" lon="-1.846790999999999">
        <ele>365.646</ele>
        <time>2022-08-25T10:13:28Z</time>
      </trkpt>
      <trkpt lat="42.66322400000035" lon="-1.846822999999999">
        <ele>366.283</ele>
        <time>2022-08-25T10:13:34Z</time>
      </trkpt>
      <trkpt lat="42.66330200000035" lon="-1.846890999999999">
        <ele>366.846</ele>
        <time>2022-08-25T10:13:41Z</time>
      </trkpt>
      <trkpt lat="42.66332400000035" lon="-1.846903999999999">
        <ele>366.862</ele>
        <time>2022-08-25T10:13:43Z</time>
      </trkpt>
      <trkpt lat="42.66339000000035" lon="-1.846942999999999">
        <ele>367.053</ele>
        <time>2022-08-25T10:13:48Z</time>
      </trkpt>
      <trkpt lat="42.66340400000035" lon="-1.8469549999999988">
        <ele>366.827</ele>
        <time>2022-08-25T10:13:49Z</time>
      </trkpt>
      <trkpt lat="42.66343200000035" lon="-1.8469749999999987">
        <ele>366.868</ele>
        <time>2022-08-25T10:13:51Z</time>
      </trkpt>
      <trkpt lat="42.66344200000035" lon="-1.8469799999999987">
        <ele>366.814</ele>
        <time>2022-08-25T10:13:52Z</time>
      </trkpt>
      <trkpt lat="42.66345400000035" lon="-1.8469849999999988">
        <ele>366.809</ele>
        <time>2022-08-25T10:13:53Z</time>
      </trkpt>
      <trkpt lat="42.663461000000346" lon="-1.8469889999999987">
        <ele>367.093</ele>
        <time>2022-08-25T10:13:54Z</time>
      </trkpt>
      <trkpt lat="42.66347200000035" lon="-1.8469969999999987">
        <ele>367.013</ele>
        <time>2022-08-25T10:13:55Z</time>
      </trkpt>
      <trkpt lat="42.66353100000035" lon="-1.8470149999999987">
        <ele>368.023</ele>
        <time>2022-08-25T10:14:00Z</time>
      </trkpt>
      <trkpt lat="42.663543000000345" lon="-1.8470209999999987">
        <ele>368.219</ele>
        <time>2022-08-25T10:14:01Z</time>
      </trkpt>
      <trkpt lat="42.663552000000344" lon="-1.8470299999999986">
        <ele>368.221</ele>
        <time>2022-08-25T10:14:02Z</time>
      </trkpt>
      <trkpt lat="42.66363200000034" lon="-1.8470609999999985">
        <ele>368.448</ele>
        <time>2022-08-25T10:14:08Z</time>
      </trkpt>
      <trkpt lat="42.66364100000034" lon="-1.8470579999999985">
        <ele>368.421</ele>
        <time>2022-08-25T10:14:09Z</time>
      </trkpt>
      <trkpt lat="42.66365300000034" lon="-1.8470489999999986">
        <ele>368.477</ele>
        <time>2022-08-25T10:14:10Z</time>
      </trkpt>
      <trkpt lat="42.663665000000336" lon="-1.8470439999999986">
        <ele>368.278</ele>
        <time>2022-08-25T10:14:11Z</time>
      </trkpt>
      <trkpt lat="42.66371200000034" lon="-1.8470249999999986">
        <ele>368.418</ele>
        <time>2022-08-25T10:14:15Z</time>
      </trkpt>
      <trkpt lat="42.66373700000034" lon="-1.8470289999999985">
        <ele>368.498</ele>
        <time>2022-08-25T10:14:17Z</time>
      </trkpt>
      <trkpt lat="42.66380400000034" lon="-1.8470439999999986">
        <ele>368.817</ele>
        <time>2022-08-25T10:14:22Z</time>
      </trkpt>
      <trkpt lat="42.66381900000034" lon="-1.8470499999999985">
        <ele>368.809</ele>
        <time>2022-08-25T10:14:23Z</time>
      </trkpt>
      <trkpt lat="42.66383300000034" lon="-1.8470549999999986">
        <ele>368.842</ele>
        <time>2022-08-25T10:14:24Z</time>
      </trkpt>
      <trkpt lat="42.663845000000336" lon="-1.8470619999999986">
        <ele>369.042</ele>
        <time>2022-08-25T10:14:25Z</time>
      </trkpt>
      <trkpt lat="42.66385500000034" lon="-1.8470729999999986">
        <ele>369.282</ele>
        <time>2022-08-25T10:14:26Z</time>
      </trkpt>
      <trkpt lat="42.66387100000034" lon="-1.8470829999999987">
        <ele>369.248</ele>
        <time>2022-08-25T10:14:27Z</time>
      </trkpt>
      <trkpt lat="42.66391000000034" lon="-1.8471029999999986">
        <ele>370.060</ele>
        <time>2022-08-25T10:14:30Z</time>
      </trkpt>
      <trkpt lat="42.66394400000034" lon="-1.8471299999999986">
        <ele>370.297</ele>
        <time>2022-08-25T10:14:33Z</time>
      </trkpt>
      <trkpt lat="42.66395300000034" lon="-1.8471369999999987">
        <ele>370.470</ele>
        <time>2022-08-25T10:14:34Z</time>
      </trkpt>
      <trkpt lat="42.663963000000344" lon="-1.8471469999999988">
        <ele>370.486</ele>
        <time>2022-08-25T10:14:35Z</time>
      </trkpt>
      <trkpt lat="42.66397500000034" lon="-1.8471559999999987">
        <ele>370.637</ele>
        <time>2022-08-25T10:14:36Z</time>
      </trkpt>
      <trkpt lat="42.66398300000034" lon="-1.8471659999999988">
        <ele>370.815</ele>
        <time>2022-08-25T10:14:37Z</time>
      </trkpt>
      <trkpt lat="42.66398900000034" lon="-1.8471729999999988">
        <ele>371.065</ele>
        <time>2022-08-25T10:14:38Z</time>
      </trkpt>
      <trkpt lat="42.66399700000034" lon="-1.8471809999999989">
        <ele>371.211</ele>
        <time>2022-08-25T10:14:39Z</time>
      </trkpt>
      <trkpt lat="42.66401100000034" lon="-1.8471919999999988">
        <ele>371.209</ele>
        <time>2022-08-25T10:14:40Z</time>
      </trkpt>
      <trkpt lat="42.66402300000034" lon="-1.847201999999999">
        <ele>371.412</ele>
        <time>2022-08-25T10:14:41Z</time>
      </trkpt>
      <trkpt lat="42.664033000000344" lon="-1.8472079999999989">
        <ele>371.482</ele>
        <time>2022-08-25T10:14:42Z</time>
      </trkpt>
      <trkpt lat="42.664098000000344" lon="-1.8472709999999988">
        <ele>372.472</ele>
        <time>2022-08-25T10:14:49Z</time>
      </trkpt>
      <trkpt lat="42.66410500000034" lon="-1.8472799999999987">
        <ele>372.438</ele>
        <time>2022-08-25T10:14:50Z</time>
      </trkpt>
      <trkpt lat="42.66410500000034" lon="-1.8472899999999988">
        <ele>372.660</ele>
        <time>2022-08-25T10:14:51Z</time>
      </trkpt>
      <trkpt lat="42.66412000000034" lon="-1.8473109999999988">
        <ele>373.037</ele>
        <time>2022-08-25T10:14:53Z</time>
      </trkpt>
      <trkpt lat="42.66414200000034" lon="-1.847333999999999">
        <ele>373.460</ele>
        <time>2022-08-25T10:14:55Z</time>
      </trkpt>
      <trkpt lat="42.66415100000034" lon="-1.847341999999999">
        <ele>373.816</ele>
        <time>2022-08-25T10:14:56Z</time>
      </trkpt>
      <trkpt lat="42.66416100000034" lon="-1.8473509999999989">
        <ele>374.037</ele>
        <time>2022-08-25T10:14:57Z</time>
      </trkpt>
      <trkpt lat="42.66416900000034" lon="-1.8473589999999989">
        <ele>374.295</ele>
        <time>2022-08-25T10:14:58Z</time>
      </trkpt>
      <trkpt lat="42.66417600000034" lon="-1.847365999999999">
        <ele>374.449</ele>
        <time>2022-08-25T10:14:59Z</time>
      </trkpt>
      <trkpt lat="42.664183000000335" lon="-1.847371999999999">
        <ele>374.423</ele>
        <time>2022-08-25T10:15:00Z</time>
      </trkpt>
      <trkpt lat="42.66420100000033" lon="-1.847386999999999">
        <ele>374.609</ele>
        <time>2022-08-25T10:15:02Z</time>
      </trkpt>
      <trkpt lat="42.66424700000033" lon="-1.847416999999999">
        <ele>375.070</ele>
        <time>2022-08-25T10:15:07Z</time>
      </trkpt>
      <trkpt lat="42.66425800000033" lon="-1.847423999999999">
        <ele>375.070</ele>
        <time>2022-08-25T10:15:08Z</time>
      </trkpt>
      <trkpt lat="42.664268000000334" lon="-1.847431999999999">
        <ele>375.270</ele>
        <time>2022-08-25T10:15:09Z</time>
      </trkpt>
      <trkpt lat="42.66427500000033" lon="-1.847440999999999">
        <ele>375.426</ele>
        <time>2022-08-25T10:15:10Z</time>
      </trkpt>
      <trkpt lat="42.66428500000033" lon="-1.847451999999999">
        <ele>375.478</ele>
        <time>2022-08-25T10:15:11Z</time>
      </trkpt>
      <trkpt lat="42.664293000000335" lon="-1.8474639999999989">
        <ele>375.445</ele>
        <time>2022-08-25T10:15:12Z</time>
      </trkpt>
      <trkpt lat="42.66430000000033" lon="-1.8474749999999989">
        <ele>375.458</ele>
        <time>2022-08-25T10:15:13Z</time>
      </trkpt>
      <trkpt lat="42.66433900000033" lon="-1.8475109999999988">
        <ele>376.234</ele>
        <time>2022-08-25T10:15:17Z</time>
      </trkpt>
      <trkpt lat="42.66434800000033" lon="-1.8475219999999988">
        <ele>376.635</ele>
        <time>2022-08-25T10:15:18Z</time>
      </trkpt>
      <trkpt lat="42.664358000000334" lon="-1.8475319999999988">
        <ele>376.822</ele>
        <time>2022-08-25T10:15:19Z</time>
      </trkpt>
      <trkpt lat="42.66436700000033" lon="-1.8475439999999987">
        <ele>377.262</ele>
        <time>2022-08-25T10:15:20Z</time>
      </trkpt>
      <trkpt lat="42.664377000000336" lon="-1.8475549999999987">
        <ele>377.608</ele>
        <time>2022-08-25T10:15:21Z</time>
      </trkpt>
      <trkpt lat="42.664400000000335" lon="-1.8475849999999987">
        <ele>378.009</ele>
        <time>2022-08-25T10:15:24Z</time>
      </trkpt>
      <trkpt lat="42.664408000000336" lon="-1.8475939999999986">
        <ele>378.283</ele>
        <time>2022-08-25T10:15:25Z</time>
      </trkpt>
      <trkpt lat="42.66441600000034" lon="-1.8476039999999987">
        <ele>378.473</ele>
        <time>2022-08-25T10:15:26Z</time>
      </trkpt>
      <trkpt lat="42.66442400000034" lon="-1.8476129999999986">
        <ele>378.493</ele>
        <time>2022-08-25T10:15:27Z</time>
      </trkpt>
      <trkpt lat="42.66443200000034" lon="-1.8476209999999986">
        <ele>378.449</ele>
        <time>2022-08-25T10:15:28Z</time>
      </trkpt>
      <trkpt lat="42.664439000000336" lon="-1.8476289999999986">
        <ele>378.441</ele>
        <time>2022-08-25T10:15:29Z</time>
      </trkpt>
      <trkpt lat="42.66444700000034" lon="-1.8476329999999985">
        <ele>378.638</ele>
        <time>2022-08-25T10:15:30Z</time>
      </trkpt>
      <trkpt lat="42.66447100000034" lon="-1.8476539999999986">
        <ele>379.071</ele>
        <time>2022-08-25T10:15:33Z</time>
      </trkpt>
      <trkpt lat="42.66447700000034" lon="-1.8476619999999986">
        <ele>379.067</ele>
        <time>2022-08-25T10:15:34Z</time>
      </trkpt>
      <trkpt lat="42.66448300000034" lon="-1.8476739999999985">
        <ele>379.058</ele>
        <time>2022-08-25T10:15:35Z</time>
      </trkpt>
      <trkpt lat="42.66448900000034" lon="-1.8476829999999984">
        <ele>379.093</ele>
        <time>2022-08-25T10:15:36Z</time>
      </trkpt>
      <trkpt lat="42.66450800000034" lon="-1.8477099999999984">
        <ele>379.665</ele>
        <time>2022-08-25T10:15:39Z</time>
      </trkpt>
      <trkpt lat="42.66451800000034" lon="-1.8477189999999983">
        <ele>379.821</ele>
        <time>2022-08-25T10:15:40Z</time>
      </trkpt>
      <trkpt lat="42.66453500000034" lon="-1.8477359999999983">
        <ele>380.009</ele>
        <time>2022-08-25T10:15:42Z</time>
      </trkpt>
      <trkpt lat="42.66460200000034" lon="-1.8478039999999982">
        <ele>380.640</ele>
        <time>2022-08-25T10:15:49Z</time>
      </trkpt>
      <trkpt lat="42.66461100000034" lon="-1.8478129999999982">
        <ele>380.870</ele>
        <time>2022-08-25T10:15:50Z</time>
      </trkpt>
      <trkpt lat="42.66462900000034" lon="-1.8478289999999982">
        <ele>381.040</ele>
        <time>2022-08-25T10:15:52Z</time>
      </trkpt>
      <trkpt lat="42.66465100000034" lon="-1.8478519999999983">
        <ele>381.276</ele>
        <time>2022-08-25T10:15:54Z</time>
      </trkpt>
      <trkpt lat="42.66466000000034" lon="-1.8478619999999983">
        <ele>381.448</ele>
        <time>2022-08-25T10:15:55Z</time>
      </trkpt>
      <trkpt lat="42.66467000000034" lon="-1.8478699999999983">
        <ele>381.695</ele>
        <time>2022-08-25T10:15:56Z</time>
      </trkpt>
      <trkpt lat="42.66472300000034" lon="-1.8479159999999983">
        <ele>382.028</ele>
        <time>2022-08-25T10:16:01Z</time>
      </trkpt>
      <trkpt lat="42.664762000000344" lon="-1.8479529999999984">
        <ele>382.464</ele>
        <time>2022-08-25T10:16:05Z</time>
      </trkpt>
      <trkpt lat="42.664770000000345" lon="-1.8479659999999984">
        <ele>382.635</ele>
        <time>2022-08-25T10:16:06Z</time>
      </trkpt>
      <trkpt lat="42.66480200000034" lon="-1.8479929999999984">
        <ele>383.075</ele>
        <time>2022-08-25T10:16:09Z</time>
      </trkpt>
      <trkpt lat="42.66486700000034" lon="-1.8480349999999985">
        <ele>383.628</ele>
        <time>2022-08-25T10:16:15Z</time>
      </trkpt>
      <trkpt lat="42.66487800000034" lon="-1.8480459999999985">
        <ele>383.620</ele>
        <time>2022-08-25T10:16:16Z</time>
      </trkpt>
      <trkpt lat="42.66488900000034" lon="-1.8480519999999985">
        <ele>383.609</ele>
        <time>2022-08-25T10:16:17Z</time>
      </trkpt>
      <trkpt lat="42.66491200000034" lon="-1.8480689999999984">
        <ele>383.868</ele>
        <time>2022-08-25T10:16:19Z</time>
      </trkpt>
      <trkpt lat="42.66492400000034" lon="-1.8480789999999985">
        <ele>383.878</ele>
        <time>2022-08-25T10:16:20Z</time>
      </trkpt>
      <trkpt lat="42.66494700000034" lon="-1.8480929999999984">
        <ele>383.888</ele>
        <time>2022-08-25T10:16:22Z</time>
      </trkpt>
      <trkpt lat="42.66495600000034" lon="-1.8480989999999984">
        <ele>383.844</ele>
        <time>2022-08-25T10:16:23Z</time>
      </trkpt>
      <trkpt lat="42.664965000000336" lon="-1.8481059999999985">
        <ele>384.056</ele>
        <time>2022-08-25T10:16:24Z</time>
      </trkpt>
      <trkpt lat="42.66497500000034" lon="-1.8481099999999984">
        <ele>384.083</ele>
        <time>2022-08-25T10:16:25Z</time>
      </trkpt>
      <trkpt lat="42.66498800000034" lon="-1.8481129999999983">
        <ele>384.286</ele>
        <time>2022-08-25T10:16:26Z</time>
      </trkpt>
      <trkpt lat="42.66501300000034" lon="-1.8481349999999983">
        <ele>384.472</ele>
        <time>2022-08-25T10:16:29Z</time>
      </trkpt>
      <trkpt lat="42.665021000000344" lon="-1.8481429999999983">
        <ele>384.463</ele>
        <time>2022-08-25T10:16:30Z</time>
      </trkpt>
      <trkpt lat="42.665032000000345" lon="-1.8481509999999983">
        <ele>384.431</ele>
        <time>2022-08-25T10:16:31Z</time>
      </trkpt>
      <trkpt lat="42.665043000000345" lon="-1.8481579999999984">
        <ele>384.661</ele>
        <time>2022-08-25T10:16:32Z</time>
      </trkpt>
      <trkpt lat="42.66506400000034" lon="-1.8481709999999985">
        <ele>385.007</ele>
        <time>2022-08-25T10:16:34Z</time>
      </trkpt>
      <trkpt lat="42.66507500000034" lon="-1.8481769999999984">
        <ele>385.409</ele>
        <time>2022-08-25T10:16:35Z</time>
      </trkpt>
      <trkpt lat="42.66509500000034" lon="-1.8481899999999984">
        <ele>385.814</ele>
        <time>2022-08-25T10:16:37Z</time>
      </trkpt>
      <trkpt lat="42.66510300000034" lon="-1.8481979999999985">
        <ele>386.074</ele>
        <time>2022-08-25T10:16:38Z</time>
      </trkpt>
      <trkpt lat="42.66514600000034" lon="-1.8482429999999985">
        <ele>386.614</ele>
        <time>2022-08-25T10:16:42Z</time>
      </trkpt>
      <trkpt lat="42.66516100000034" lon="-1.8482689999999986">
        <ele>387.010</ele>
        <time>2022-08-25T10:16:44Z</time>
      </trkpt>
      <trkpt lat="42.665193000000336" lon="-1.8483159999999985">
        <ele>387.692</ele>
        <time>2022-08-25T10:16:48Z</time>
      </trkpt>
      <trkpt lat="42.66520100000034" lon="-1.8483239999999985">
        <ele>388.019</ele>
        <time>2022-08-25T10:16:49Z</time>
      </trkpt>
      <trkpt lat="42.665227000000336" lon="-1.8483489999999985">
        <ele>388.822</ele>
        <time>2022-08-25T10:16:52Z</time>
      </trkpt>
      <trkpt lat="42.665236000000334" lon="-1.8483559999999986">
        <ele>388.838</ele>
        <time>2022-08-25T10:16:53Z</time>
      </trkpt>
      <trkpt lat="42.66524300000033" lon="-1.8483649999999985">
        <ele>389.039</ele>
        <time>2022-08-25T10:16:54Z</time>
      </trkpt>
      <trkpt lat="42.66525000000033" lon="-1.8483759999999985">
        <ele>389.048</ele>
        <time>2022-08-25T10:16:55Z</time>
      </trkpt>
      <trkpt lat="42.66525500000033" lon="-1.8483839999999985">
        <ele>389.261</ele>
        <time>2022-08-25T10:16:56Z</time>
      </trkpt>
      <trkpt lat="42.66526000000033" lon="-1.8483919999999985">
        <ele>389.417</ele>
        <time>2022-08-25T10:16:57Z</time>
      </trkpt>
      <trkpt lat="42.66526400000033" lon="-1.8483989999999986">
        <ele>389.409</ele>
        <time>2022-08-25T10:16:58Z</time>
      </trkpt>
      <trkpt lat="42.665270000000326" lon="-1.8484089999999986">
        <ele>389.615</ele>
        <time>2022-08-25T10:16:59Z</time>
      </trkpt>
      <trkpt lat="42.66527400000032" lon="-1.8484229999999986">
        <ele>389.825</ele>
        <time>2022-08-25T10:17:00Z</time>
      </trkpt>
      <trkpt lat="42.66527800000032" lon="-1.8484329999999987">
        <ele>389.855</ele>
        <time>2022-08-25T10:17:01Z</time>
      </trkpt>
      <trkpt lat="42.66529400000032" lon="-1.8484589999999987">
        <ele>390.231</ele>
        <time>2022-08-25T10:17:04Z</time>
      </trkpt>
      <trkpt lat="42.66531700000032" lon="-1.8484789999999987">
        <ele>391.073</ele>
        <time>2022-08-25T10:17:08Z</time>
      </trkpt>
      <trkpt lat="42.66532300000032" lon="-1.8484859999999987">
        <ele>391.210</ele>
        <time>2022-08-25T10:17:09Z</time>
      </trkpt>
      <trkpt lat="42.66533000000032" lon="-1.8484929999999988">
        <ele>391.253</ele>
        <time>2022-08-25T10:17:10Z</time>
      </trkpt>
      <trkpt lat="42.665337000000314" lon="-1.8485039999999988">
        <ele>391.479</ele>
        <time>2022-08-25T10:17:11Z</time>
      </trkpt>
      <trkpt lat="42.665382000000314" lon="-1.8485469999999988">
        <ele>392.220</ele>
        <time>2022-08-25T10:17:16Z</time>
      </trkpt>
      <trkpt lat="42.66540200000031" lon="-1.8485669999999987">
        <ele>392.611</ele>
        <time>2022-08-25T10:17:18Z</time>
      </trkpt>
      <trkpt lat="42.665410000000314" lon="-1.8485759999999987">
        <ele>392.821</ele>
        <time>2022-08-25T10:17:19Z</time>
      </trkpt>
      <trkpt lat="42.66542800000031" lon="-1.8485869999999986">
        <ele>393.403</ele>
        <time>2022-08-25T10:17:21Z</time>
      </trkpt>
      <trkpt lat="42.66543900000031" lon="-1.8485929999999986">
        <ele>393.609</ele>
        <time>2022-08-25T10:17:22Z</time>
      </trkpt>
      <trkpt lat="42.66545100000031" lon="-1.8485989999999985">
        <ele>394.082</ele>
        <time>2022-08-25T10:17:23Z</time>
      </trkpt>
      <trkpt lat="42.66547000000031" lon="-1.8486109999999984">
        <ele>395.062</ele>
        <time>2022-08-25T10:17:25Z</time>
      </trkpt>
      <trkpt lat="42.66547800000031" lon="-1.8486159999999985">
        <ele>395.212</ele>
        <time>2022-08-25T10:17:26Z</time>
      </trkpt>
      <trkpt lat="42.665488000000316" lon="-1.8486209999999985">
        <ele>395.658</ele>
        <time>2022-08-25T10:17:27Z</time>
      </trkpt>
      <trkpt lat="42.66549900000032" lon="-1.8486289999999985">
        <ele>395.870</ele>
        <time>2022-08-25T10:17:28Z</time>
      </trkpt>
      <trkpt lat="42.665508000000315" lon="-1.8486409999999984">
        <ele>396.027</ele>
        <time>2022-08-25T10:17:29Z</time>
      </trkpt>
      <trkpt lat="42.66552000000031" lon="-1.8486579999999984">
        <ele>396.490</ele>
        <time>2022-08-25T10:17:30Z</time>
      </trkpt>
      <trkpt lat="42.66555500000031" lon="-1.8486939999999983">
        <ele>397.226</ele>
        <time>2022-08-25T10:17:33Z</time>
      </trkpt>
      <trkpt lat="42.66556700000031" lon="-1.8487069999999983">
        <ele>397.277</ele>
        <time>2022-08-25T10:17:34Z</time>
      </trkpt>
      <trkpt lat="42.66557700000031" lon="-1.8487169999999984">
        <ele>397.643</ele>
        <time>2022-08-25T10:17:35Z</time>
      </trkpt>
      <trkpt lat="42.66558600000031" lon="-1.8487279999999984">
        <ele>397.864</ele>
        <time>2022-08-25T10:17:36Z</time>
      </trkpt>
      <trkpt lat="42.66560800000031" lon="-1.8487469999999984">
        <ele>398.210</ele>
        <time>2022-08-25T10:17:38Z</time>
      </trkpt>
      <trkpt lat="42.665618000000315" lon="-1.8487529999999983">
        <ele>398.409</ele>
        <time>2022-08-25T10:17:39Z</time>
      </trkpt>
      <trkpt lat="42.66563000000031" lon="-1.8487559999999983">
        <ele>398.865</ele>
        <time>2022-08-25T10:17:40Z</time>
      </trkpt>
      <trkpt lat="42.665640000000316" lon="-1.8487639999999983">
        <ele>399.025</ele>
        <time>2022-08-25T10:17:41Z</time>
      </trkpt>
      <trkpt lat="42.665654000000316" lon="-1.8487749999999983">
        <ele>399.275</ele>
        <time>2022-08-25T10:17:42Z</time>
      </trkpt>
      <trkpt lat="42.665660000000315" lon="-1.8487819999999984">
        <ele>399.431</ele>
        <time>2022-08-25T10:17:43Z</time>
      </trkpt>
      <trkpt lat="42.66566700000031" lon="-1.8487919999999984">
        <ele>399.653</ele>
        <time>2022-08-25T10:17:44Z</time>
      </trkpt>
      <trkpt lat="42.66567600000031" lon="-1.8488009999999984">
        <ele>399.820</ele>
        <time>2022-08-25T10:17:45Z</time>
      </trkpt>
      <trkpt lat="42.66568400000031" lon="-1.8488109999999984">
        <ele>400.043</ele>
        <time>2022-08-25T10:17:46Z</time>
      </trkpt>
      <trkpt lat="42.665697000000314" lon="-1.8488369999999985">
        <ele>400.439</ele>
        <time>2022-08-25T10:17:48Z</time>
      </trkpt>
      <trkpt lat="42.66570900000031" lon="-1.8488619999999985">
        <ele>400.640</ele>
        <time>2022-08-25T10:17:50Z</time>
      </trkpt>
      <trkpt lat="42.66571500000031" lon="-1.8488759999999984">
        <ele>400.835</ele>
        <time>2022-08-25T10:17:51Z</time>
      </trkpt>
      <trkpt lat="42.66572200000031" lon="-1.8488879999999983">
        <ele>401.086</ele>
        <time>2022-08-25T10:17:52Z</time>
      </trkpt>
      <trkpt lat="42.66572800000031" lon="-1.8488949999999984">
        <ele>401.214</ele>
        <time>2022-08-25T10:17:53Z</time>
      </trkpt>
      <trkpt lat="42.665737000000306" lon="-1.8489099999999985">
        <ele>401.409</ele>
        <time>2022-08-25T10:17:54Z</time>
      </trkpt>
      <trkpt lat="42.6657440000003" lon="-1.8489259999999985">
        <ele>401.484</ele>
        <time>2022-08-25T10:17:55Z</time>
      </trkpt>
      <trkpt lat="42.6657510000003" lon="-1.8489379999999984">
        <ele>401.824</ele>
        <time>2022-08-25T10:17:56Z</time>
      </trkpt>
      <trkpt lat="42.6657570000003" lon="-1.8489499999999983">
        <ele>402.254</ele>
        <time>2022-08-25T10:17:57Z</time>
      </trkpt>
      <trkpt lat="42.665761000000295" lon="-1.8489619999999982">
        <ele>402.210</ele>
        <time>2022-08-25T10:17:58Z</time>
      </trkpt>
      <trkpt lat="42.665766000000296" lon="-1.8489769999999983">
        <ele>402.422</ele>
        <time>2022-08-25T10:17:59Z</time>
      </trkpt>
      <trkpt lat="42.665767000000294" lon="-1.8489949999999984">
        <ele>402.429</ele>
        <time>2022-08-25T10:18:00Z</time>
      </trkpt>
      <trkpt lat="42.665769000000296" lon="-1.8490159999999984">
        <ele>402.882</ele>
        <time>2022-08-25T10:18:01Z</time>
      </trkpt>
      <trkpt lat="42.665772000000295" lon="-1.8490349999999984">
        <ele>403.038</ele>
        <time>2022-08-25T10:18:02Z</time>
      </trkpt>
      <trkpt lat="42.66577300000029" lon="-1.8490499999999985">
        <ele>403.299</ele>
        <time>2022-08-25T10:18:03Z</time>
      </trkpt>
      <trkpt lat="42.665778000000294" lon="-1.8490679999999986">
        <ele>403.453</ele>
        <time>2022-08-25T10:18:04Z</time>
      </trkpt>
      <trkpt lat="42.665783000000296" lon="-1.8490839999999986">
        <ele>403.604</ele>
        <time>2022-08-25T10:18:05Z</time>
      </trkpt>
      <trkpt lat="42.66578700000029" lon="-1.8490979999999986">
        <ele>403.614</ele>
        <time>2022-08-25T10:18:06Z</time>
      </trkpt>
      <trkpt lat="42.66578800000029" lon="-1.8491139999999986">
        <ele>403.809</ele>
        <time>2022-08-25T10:18:07Z</time>
      </trkpt>
      <trkpt lat="42.66579100000029" lon="-1.8491319999999987">
        <ele>403.826</ele>
        <time>2022-08-25T10:18:08Z</time>
      </trkpt>
      <trkpt lat="42.66579100000029" lon="-1.8491469999999988">
        <ele>404.046</ele>
        <time>2022-08-25T10:18:09Z</time>
      </trkpt>
      <trkpt lat="42.66579200000029" lon="-1.8491589999999987">
        <ele>404.026</ele>
        <time>2022-08-25T10:18:10Z</time>
      </trkpt>
      <trkpt lat="42.66579500000029" lon="-1.8491699999999986">
        <ele>404.232</ele>
        <time>2022-08-25T10:18:11Z</time>
      </trkpt>
      <trkpt lat="42.66579500000029" lon="-1.8491809999999986">
        <ele>404.424</ele>
        <time>2022-08-25T10:18:12Z</time>
      </trkpt>
      <trkpt lat="42.66579700000029" lon="-1.8491959999999987">
        <ele>404.441</ele>
        <time>2022-08-25T10:18:13Z</time>
      </trkpt>
      <trkpt lat="42.66579800000029" lon="-1.8492149999999987">
        <ele>404.624</ele>
        <time>2022-08-25T10:18:14Z</time>
      </trkpt>
      <trkpt lat="42.66580000000029" lon="-1.8492299999999988">
        <ele>404.830</ele>
        <time>2022-08-25T10:18:15Z</time>
      </trkpt>
      <trkpt lat="42.66580200000029" lon="-1.849244999999999">
        <ele>405.061</ele>
        <time>2022-08-25T10:18:16Z</time>
      </trkpt>
      <trkpt lat="42.66580600000029" lon="-1.8492619999999989">
        <ele>405.237</ele>
        <time>2022-08-25T10:18:17Z</time>
      </trkpt>
      <trkpt lat="42.66580800000029" lon="-1.849279999999999">
        <ele>405.449</ele>
        <time>2022-08-25T10:18:18Z</time>
      </trkpt>
      <trkpt lat="42.66580800000029" lon="-1.849294999999999">
        <ele>405.413</ele>
        <time>2022-08-25T10:18:19Z</time>
      </trkpt>
      <trkpt lat="42.66580900000029" lon="-1.849310999999999">
        <ele>405.609</ele>
        <time>2022-08-25T10:18:20Z</time>
      </trkpt>
      <trkpt lat="42.66580800000029" lon="-1.849329999999999">
        <ele>405.854</ele>
        <time>2022-08-25T10:18:21Z</time>
      </trkpt>
      <trkpt lat="42.66581100000029" lon="-1.849342999999999">
        <ele>405.814</ele>
        <time>2022-08-25T10:18:22Z</time>
      </trkpt>
      <trkpt lat="42.66581300000029" lon="-1.849354999999999">
        <ele>406.094</ele>
        <time>2022-08-25T10:18:23Z</time>
      </trkpt>
      <trkpt lat="42.66581300000029" lon="-1.849368999999999">
        <ele>406.030</ele>
        <time>2022-08-25T10:18:24Z</time>
      </trkpt>
      <trkpt lat="42.66581400000029" lon="-1.849383999999999">
        <ele>406.222</ele>
        <time>2022-08-25T10:18:25Z</time>
      </trkpt>
      <trkpt lat="42.66581600000029" lon="-1.849394999999999">
        <ele>406.229</ele>
        <time>2022-08-25T10:18:26Z</time>
      </trkpt>
      <trkpt lat="42.66581600000029" lon="-1.849407999999999">
        <ele>406.492</ele>
        <time>2022-08-25T10:18:27Z</time>
      </trkpt>
      <trkpt lat="42.66581700000029" lon="-1.8494149999999991">
        <ele>406.688</ele>
        <time>2022-08-25T10:18:28Z</time>
      </trkpt>
      <trkpt lat="42.665818000000286" lon="-1.8494179999999991">
        <ele>406.689</ele>
        <time>2022-08-25T10:18:29Z</time>
      </trkpt>
      <trkpt lat="42.665821000000285" lon="-1.8494309999999992">
        <ele>406.844</ele>
        <time>2022-08-25T10:18:30Z</time>
      </trkpt>
      <trkpt lat="42.66582300000029" lon="-1.8494439999999992">
        <ele>407.005</ele>
        <time>2022-08-25T10:18:31Z</time>
      </trkpt>
      <trkpt lat="42.66582500000029" lon="-1.849455999999999">
        <ele>407.015</ele>
        <time>2022-08-25T10:18:32Z</time>
      </trkpt>
      <trkpt lat="42.66582400000029" lon="-1.8494689999999991">
        <ele>407.209</ele>
        <time>2022-08-25T10:18:33Z</time>
      </trkpt>
      <trkpt lat="42.66582500000029" lon="-1.849480999999999">
        <ele>407.245</ele>
        <time>2022-08-25T10:18:34Z</time>
      </trkpt>
      <trkpt lat="42.66582700000029" lon="-1.849493999999999">
        <ele>407.255</ele>
        <time>2022-08-25T10:18:35Z</time>
      </trkpt>
      <trkpt lat="42.66582800000029" lon="-1.8495039999999991">
        <ele>407.485</ele>
        <time>2022-08-25T10:18:36Z</time>
      </trkpt>
      <trkpt lat="42.66583000000029" lon="-1.849512999999999">
        <ele>407.461</ele>
        <time>2022-08-25T10:18:37Z</time>
      </trkpt>
      <trkpt lat="42.66583300000029" lon="-1.849524999999999">
        <ele>407.433</ele>
        <time>2022-08-25T10:18:38Z</time>
      </trkpt>
      <trkpt lat="42.66583600000029" lon="-1.8495369999999989">
        <ele>407.630</ele>
        <time>2022-08-25T10:18:39Z</time>
      </trkpt>
      <trkpt lat="42.66583600000029" lon="-1.8495459999999988">
        <ele>407.853</ele>
        <time>2022-08-25T10:18:40Z</time>
      </trkpt>
      <trkpt lat="42.66583600000029" lon="-1.8495539999999988">
        <ele>407.899</ele>
        <time>2022-08-25T10:18:41Z</time>
      </trkpt>
      <trkpt lat="42.66583900000029" lon="-1.8495619999999988">
        <ele>408.030</ele>
        <time>2022-08-25T10:18:42Z</time>
      </trkpt>
      <trkpt lat="42.66584200000029" lon="-1.8495719999999989">
        <ele>408.012</ele>
        <time>2022-08-25T10:18:43Z</time>
      </trkpt>
      <trkpt lat="42.665846000000286" lon="-1.8495839999999988">
        <ele>408.232</ele>
        <time>2022-08-25T10:18:44Z</time>
      </trkpt>
      <trkpt lat="42.66585100000029" lon="-1.8495989999999989">
        <ele>408.205</ele>
        <time>2022-08-25T10:18:45Z</time>
      </trkpt>
      <trkpt lat="42.665852000000285" lon="-1.8496129999999988">
        <ele>408.409</ele>
        <time>2022-08-25T10:18:46Z</time>
      </trkpt>
      <trkpt lat="42.66585400000029" lon="-1.8496259999999989">
        <ele>408.622</ele>
        <time>2022-08-25T10:18:47Z</time>
      </trkpt>
      <trkpt lat="42.665858000000284" lon="-1.849640999999999">
        <ele>408.662</ele>
        <time>2022-08-25T10:18:48Z</time>
      </trkpt>
      <trkpt lat="42.66586200000028" lon="-1.849655999999999">
        <ele>409.072</ele>
        <time>2022-08-25T10:18:49Z</time>
      </trkpt>
      <trkpt lat="42.66586700000028" lon="-1.849671999999999">
        <ele>409.018</ele>
        <time>2022-08-25T10:18:50Z</time>
      </trkpt>
      <trkpt lat="42.66587300000028" lon="-1.849691999999999">
        <ele>409.490</ele>
        <time>2022-08-25T10:18:51Z</time>
      </trkpt>
      <trkpt lat="42.66587900000028" lon="-1.849713999999999">
        <ele>409.637</ele>
        <time>2022-08-25T10:18:52Z</time>
      </trkpt>
      <trkpt lat="42.66588500000028" lon="-1.8497259999999989">
        <ele>409.830</ele>
        <time>2022-08-25T10:18:53Z</time>
      </trkpt>
      <trkpt lat="42.66589000000028" lon="-1.8497399999999988">
        <ele>410.056</ele>
        <time>2022-08-25T10:18:54Z</time>
      </trkpt>
      <trkpt lat="42.66589600000028" lon="-1.8497569999999988">
        <ele>410.057</ele>
        <time>2022-08-25T10:18:55Z</time>
      </trkpt>
      <trkpt lat="42.66590000000028" lon="-1.8497749999999988">
        <ele>410.263</ele>
        <time>2022-08-25T10:18:56Z</time>
      </trkpt>
      <trkpt lat="42.66590200000028" lon="-1.849792999999999">
        <ele>410.244</ele>
        <time>2022-08-25T10:18:57Z</time>
      </trkpt>
      <trkpt lat="42.66590500000028" lon="-1.849810999999999">
        <ele>410.418</ele>
        <time>2022-08-25T10:18:58Z</time>
      </trkpt>
      <trkpt lat="42.66590800000028" lon="-1.849828999999999">
        <ele>410.609</ele>
        <time>2022-08-25T10:18:59Z</time>
      </trkpt>
      <trkpt lat="42.66591100000028" lon="-1.849848999999999">
        <ele>410.827</ele>
        <time>2022-08-25T10:19:00Z</time>
      </trkpt>
      <trkpt lat="42.66591400000028" lon="-1.8498689999999989">
        <ele>411.257</ele>
        <time>2022-08-25T10:19:01Z</time>
      </trkpt>
      <trkpt lat="42.665915000000275" lon="-1.849886999999999">
        <ele>411.487</ele>
        <time>2022-08-25T10:19:02Z</time>
      </trkpt>
      <trkpt lat="42.66591700000028" lon="-1.849904999999999">
        <ele>411.653</ele>
        <time>2022-08-25T10:19:03Z</time>
      </trkpt>
      <trkpt lat="42.66592200000028" lon="-1.849922999999999">
        <ele>411.855</ele>
        <time>2022-08-25T10:19:04Z</time>
      </trkpt>
      <trkpt lat="42.66592700000028" lon="-1.849942999999999">
        <ele>412.052</ele>
        <time>2022-08-25T10:19:05Z</time>
      </trkpt>
      <trkpt lat="42.66592900000028" lon="-1.849963999999999">
        <ele>412.255</ele>
        <time>2022-08-25T10:19:06Z</time>
      </trkpt>
      <trkpt lat="42.665931000000285" lon="-1.8499869999999992">
        <ele>412.421</ele>
        <time>2022-08-25T10:19:07Z</time>
      </trkpt>
      <trkpt lat="42.66593200000028" lon="-1.8500109999999992">
        <ele>412.652</ele>
        <time>2022-08-25T10:19:08Z</time>
      </trkpt>
      <trkpt lat="42.665931000000285" lon="-1.8500349999999992">
        <ele>412.688</ele>
        <time>2022-08-25T10:19:09Z</time>
      </trkpt>
      <trkpt lat="42.66593000000029" lon="-1.8500579999999993">
        <ele>413.024</ele>
        <time>2022-08-25T10:19:10Z</time>
      </trkpt>
      <trkpt lat="42.66593200000029" lon="-1.8500769999999993">
        <ele>413.426</ele>
        <time>2022-08-25T10:19:11Z</time>
      </trkpt>
      <trkpt lat="42.66593400000029" lon="-1.8500969999999992">
        <ele>413.609</ele>
        <time>2022-08-25T10:19:12Z</time>
      </trkpt>
      <trkpt lat="42.66593700000029" lon="-1.8501149999999993">
        <ele>413.699</ele>
        <time>2022-08-25T10:19:13Z</time>
      </trkpt>
      <trkpt lat="42.66594100000029" lon="-1.8501319999999992">
        <ele>413.839</ele>
        <time>2022-08-25T10:19:14Z</time>
      </trkpt>
      <trkpt lat="42.665945000000285" lon="-1.8501479999999992">
        <ele>414.029</ele>
        <time>2022-08-25T10:19:15Z</time>
      </trkpt>
      <trkpt lat="42.665948000000284" lon="-1.8501659999999993">
        <ele>414.225</ele>
        <time>2022-08-25T10:19:16Z</time>
      </trkpt>
      <trkpt lat="42.66595200000028" lon="-1.8501829999999992">
        <ele>414.477</ele>
        <time>2022-08-25T10:19:17Z</time>
      </trkpt>
      <trkpt lat="42.66595500000028" lon="-1.8502019999999992">
        <ele>414.634</ele>
        <time>2022-08-25T10:19:18Z</time>
      </trkpt>
      <trkpt lat="42.66595700000028" lon="-1.8502189999999992">
        <ele>414.877</ele>
        <time>2022-08-25T10:19:19Z</time>
      </trkpt>
      <trkpt lat="42.66596000000028" lon="-1.850235999999999">
        <ele>415.033</ele>
        <time>2022-08-25T10:19:20Z</time>
      </trkpt>
      <trkpt lat="42.665962000000285" lon="-1.8502539999999992">
        <ele>415.244</ele>
        <time>2022-08-25T10:19:21Z</time>
      </trkpt>
      <trkpt lat="42.66596100000029" lon="-1.8502689999999993">
        <ele>415.424</ele>
        <time>2022-08-25T10:19:22Z</time>
      </trkpt>
      <trkpt lat="42.66596100000029" lon="-1.8502829999999992">
        <ele>415.404</ele>
        <time>2022-08-25T10:19:23Z</time>
      </trkpt>
      <trkpt lat="42.66596300000029" lon="-1.8502979999999993">
        <ele>415.414</ele>
        <time>2022-08-25T10:19:24Z</time>
      </trkpt>
      <trkpt lat="42.66596400000029" lon="-1.8503089999999993">
        <ele>415.609</ele>
        <time>2022-08-25T10:19:25Z</time>
      </trkpt>
      <trkpt lat="42.665965000000284" lon="-1.8503209999999992">
        <ele>415.833</ele>
        <time>2022-08-25T10:19:26Z</time>
      </trkpt>
      <trkpt lat="42.665968000000284" lon="-1.8503339999999993">
        <ele>415.823</ele>
        <time>2022-08-25T10:19:27Z</time>
      </trkpt>
      <trkpt lat="42.66597200000028" lon="-1.8503469999999993">
        <ele>415.863</ele>
        <time>2022-08-25T10:19:28Z</time>
      </trkpt>
      <trkpt lat="42.66597600000028" lon="-1.8503619999999994">
        <ele>416.039</ele>
        <time>2022-08-25T10:19:29Z</time>
      </trkpt>
      <trkpt lat="42.665977000000275" lon="-1.8503759999999994">
        <ele>416.261</ele>
        <time>2022-08-25T10:19:30Z</time>
      </trkpt>
      <trkpt lat="42.66597900000028" lon="-1.8503929999999993">
        <ele>416.228</ele>
        <time>2022-08-25T10:19:31Z</time>
      </trkpt>
      <trkpt lat="42.66598100000028" lon="-1.8504069999999992">
        <ele>416.291</ele>
        <time>2022-08-25T10:19:32Z</time>
      </trkpt>
      <trkpt lat="42.66598300000028" lon="-1.8504229999999993">
        <ele>416.467</ele>
        <time>2022-08-25T10:19:33Z</time>
      </trkpt>
      <trkpt lat="42.66598400000028" lon="-1.8504399999999992">
        <ele>416.468</ele>
        <time>2022-08-25T10:19:34Z</time>
      </trkpt>
      <trkpt lat="42.66598600000028" lon="-1.8504579999999993">
        <ele>416.622</ele>
        <time>2022-08-25T10:19:35Z</time>
      </trkpt>
      <trkpt lat="42.66598700000028" lon="-1.8504749999999992">
        <ele>416.862</ele>
        <time>2022-08-25T10:19:36Z</time>
      </trkpt>
      <trkpt lat="42.665988000000276" lon="-1.8504909999999992">
        <ele>417.008</ele>
        <time>2022-08-25T10:19:37Z</time>
      </trkpt>
      <trkpt lat="42.66598900000027" lon="-1.8505059999999993">
        <ele>417.009</ele>
        <time>2022-08-25T10:19:38Z</time>
      </trkpt>
      <trkpt lat="42.66599000000027" lon="-1.8505199999999993">
        <ele>417.023</ele>
        <time>2022-08-25T10:19:39Z</time>
      </trkpt>
      <trkpt lat="42.66599400000027" lon="-1.8505349999999994">
        <ele>417.273</ele>
        <time>2022-08-25T10:19:40Z</time>
      </trkpt>
      <trkpt lat="42.66599400000027" lon="-1.8505519999999993">
        <ele>417.453</ele>
        <time>2022-08-25T10:19:41Z</time>
      </trkpt>
      <trkpt lat="42.66599700000027" lon="-1.8505679999999993">
        <ele>417.859</ele>
        <time>2022-08-25T10:19:42Z</time>
      </trkpt>
      <trkpt lat="42.66600200000027" lon="-1.8505829999999994">
        <ele>417.851</ele>
        <time>2022-08-25T10:19:43Z</time>
      </trkpt>
      <trkpt lat="42.66600800000027" lon="-1.8505969999999994">
        <ele>418.098</ele>
        <time>2022-08-25T10:19:44Z</time>
      </trkpt>
      <trkpt lat="42.66601300000027" lon="-1.8506089999999993">
        <ele>418.221</ele>
        <time>2022-08-25T10:19:45Z</time>
      </trkpt>
      <trkpt lat="42.66601700000027" lon="-1.8506219999999993">
        <ele>418.487</ele>
        <time>2022-08-25T10:19:46Z</time>
      </trkpt>
      <trkpt lat="42.66602100000026" lon="-1.8506339999999992">
        <ele>418.648</ele>
        <time>2022-08-25T10:19:47Z</time>
      </trkpt>
      <trkpt lat="42.66602400000026" lon="-1.8506469999999993">
        <ele>418.844</ele>
        <time>2022-08-25T10:19:48Z</time>
      </trkpt>
      <trkpt lat="42.666029000000265" lon="-1.8506609999999992">
        <ele>419.005</ele>
        <time>2022-08-25T10:19:49Z</time>
      </trkpt>
      <trkpt lat="42.666034000000266" lon="-1.8506719999999992">
        <ele>419.015</ele>
        <time>2022-08-25T10:19:50Z</time>
      </trkpt>
      <trkpt lat="42.66603800000026" lon="-1.850683999999999">
        <ele>419.209</ele>
        <time>2022-08-25T10:19:51Z</time>
      </trkpt>
      <trkpt lat="42.66604200000026" lon="-1.850695999999999">
        <ele>419.435</ele>
        <time>2022-08-25T10:19:52Z</time>
      </trkpt>
      <trkpt lat="42.66604700000026" lon="-1.850707999999999">
        <ele>419.635</ele>
        <time>2022-08-25T10:19:53Z</time>
      </trkpt>
      <trkpt lat="42.66605300000026" lon="-1.850720999999999">
        <ele>419.885</ele>
        <time>2022-08-25T10:19:54Z</time>
      </trkpt>
      <trkpt lat="42.66605500000026" lon="-1.850733999999999">
        <ele>419.881</ele>
        <time>2022-08-25T10:19:55Z</time>
      </trkpt>
      <trkpt lat="42.66605800000026" lon="-1.850747999999999">
        <ele>420.043</ele>
        <time>2022-08-25T10:19:56Z</time>
      </trkpt>
      <trkpt lat="42.66606100000026" lon="-1.8507599999999989">
        <ele>420.070</ele>
        <time>2022-08-25T10:19:57Z</time>
      </trkpt>
      <trkpt lat="42.66606500000026" lon="-1.8507719999999988">
        <ele>420.243</ele>
        <time>2022-08-25T10:19:58Z</time>
      </trkpt>
      <trkpt lat="42.66606800000026" lon="-1.8507849999999988">
        <ele>420.279</ele>
        <time>2022-08-25T10:19:59Z</time>
      </trkpt>
      <trkpt lat="42.66607300000026" lon="-1.8507959999999988">
        <ele>420.230</ele>
        <time>2022-08-25T10:20:00Z</time>
      </trkpt>
      <trkpt lat="42.66607800000026" lon="-1.8508079999999987">
        <ele>420.427</ele>
        <time>2022-08-25T10:20:01Z</time>
      </trkpt>
      <trkpt lat="42.66608300000026" lon="-1.8508169999999986">
        <ele>420.468</ele>
        <time>2022-08-25T10:20:02Z</time>
      </trkpt>
      <trkpt lat="42.66609000000026" lon="-1.8508319999999987">
        <ele>420.414</ele>
        <time>2022-08-25T10:20:03Z</time>
      </trkpt>
      <trkpt lat="42.66609800000026" lon="-1.8508419999999988">
        <ele>420.409</ele>
        <time>2022-08-25T10:20:04Z</time>
      </trkpt>
      <trkpt lat="42.66610400000026" lon="-1.8508509999999987">
        <ele>420.683</ele>
        <time>2022-08-25T10:20:05Z</time>
      </trkpt>
      <trkpt lat="42.66610800000026" lon="-1.8508649999999987">
        <ele>420.843</ele>
        <time>2022-08-25T10:20:06Z</time>
      </trkpt>
      <trkpt lat="42.66611000000026" lon="-1.8508749999999987">
        <ele>420.893</ele>
        <time>2022-08-25T10:20:07Z</time>
      </trkpt>
      <trkpt lat="42.66611200000026" lon="-1.8508829999999987">
        <ele>421.049</ele>
        <time>2022-08-25T10:20:08Z</time>
      </trkpt>
      <trkpt lat="42.66611800000026" lon="-1.8508929999999988">
        <ele>421.071</ele>
        <time>2022-08-25T10:20:09Z</time>
      </trkpt>
      <trkpt lat="42.66612300000026" lon="-1.8509059999999988">
        <ele>421.248</ele>
        <time>2022-08-25T10:20:10Z</time>
      </trkpt>
      <trkpt lat="42.66612900000026" lon="-1.8509189999999989">
        <ele>421.411</ele>
        <time>2022-08-25T10:20:11Z</time>
      </trkpt>
      <trkpt lat="42.66613500000026" lon="-1.850931999999999">
        <ele>421.687</ele>
        <time>2022-08-25T10:20:12Z</time>
      </trkpt>
      <trkpt lat="42.66613800000026" lon="-1.850944999999999">
        <ele>421.858</ele>
        <time>2022-08-25T10:20:13Z</time>
      </trkpt>
      <trkpt lat="42.66614000000026" lon="-1.850955999999999">
        <ele>421.879</ele>
        <time>2022-08-25T10:20:14Z</time>
      </trkpt>
      <trkpt lat="42.66614300000026" lon="-1.850970999999999">
        <ele>422.005</ele>
        <time>2022-08-25T10:20:15Z</time>
      </trkpt>
      <trkpt lat="42.66614600000026" lon="-1.850980999999999">
        <ele>422.225</ele>
        <time>2022-08-25T10:20:16Z</time>
      </trkpt>
      <trkpt lat="42.66615300000026" lon="-1.850992999999999">
        <ele>422.409</ele>
        <time>2022-08-25T10:20:17Z</time>
      </trkpt>
      <trkpt lat="42.666159000000256" lon="-1.851002999999999">
        <ele>422.638</ele>
        <time>2022-08-25T10:20:18Z</time>
      </trkpt>
      <trkpt lat="42.66616600000025" lon="-1.8510129999999991">
        <ele>422.638</ele>
        <time>2022-08-25T10:20:19Z</time>
      </trkpt>
      <trkpt lat="42.66617200000025" lon="-1.8510239999999991">
        <ele>422.618</ele>
        <time>2022-08-25T10:20:20Z</time>
      </trkpt>
      <trkpt lat="42.66617500000025" lon="-1.8510369999999992">
        <ele>422.864</ele>
        <time>2022-08-25T10:20:21Z</time>
      </trkpt>
      <trkpt lat="42.66617800000025" lon="-1.8510509999999991">
        <ele>422.896</ele>
        <time>2022-08-25T10:20:22Z</time>
      </trkpt>
      <trkpt lat="42.66618200000025" lon="-1.851062999999999">
        <ele>423.033</ele>
        <time>2022-08-25T10:20:23Z</time>
      </trkpt>
      <trkpt lat="42.66618800000025" lon="-1.851072999999999">
        <ele>423.266</ele>
        <time>2022-08-25T10:20:24Z</time>
      </trkpt>
      <trkpt lat="42.66619500000024" lon="-1.8510829999999991">
        <ele>423.492</ele>
        <time>2022-08-25T10:20:25Z</time>
      </trkpt>
      <trkpt lat="42.66620100000024" lon="-1.8510939999999991">
        <ele>423.453</ele>
        <time>2022-08-25T10:20:26Z</time>
      </trkpt>
      <trkpt lat="42.666206000000244" lon="-1.8511069999999992">
        <ele>423.445</ele>
        <time>2022-08-25T10:20:27Z</time>
      </trkpt>
      <trkpt lat="42.666211000000246" lon="-1.8511209999999991">
        <ele>423.647</ele>
        <time>2022-08-25T10:20:28Z</time>
      </trkpt>
      <trkpt lat="42.66621800000024" lon="-1.851134999999999">
        <ele>423.611</ele>
        <time>2022-08-25T10:20:29Z</time>
      </trkpt>
      <trkpt lat="42.66622600000024" lon="-1.851148999999999">
        <ele>423.809</ele>
        <time>2022-08-25T10:20:30Z</time>
      </trkpt>
      <trkpt lat="42.66623300000024" lon="-1.851161999999999">
        <ele>423.845</ele>
        <time>2022-08-25T10:20:31Z</time>
      </trkpt>
      <trkpt lat="42.66624100000024" lon="-1.8511719999999992">
        <ele>424.025</ele>
        <time>2022-08-25T10:20:32Z</time>
      </trkpt>
      <trkpt lat="42.66624800000024" lon="-1.8511819999999992">
        <ele>424.035</ele>
        <time>2022-08-25T10:20:33Z</time>
      </trkpt>
      <trkpt lat="42.66625100000024" lon="-1.8511889999999993">
        <ele>424.211</ele>
        <time>2022-08-25T10:20:34Z</time>
      </trkpt>
      <trkpt lat="42.66625400000024" lon="-1.8512009999999992">
        <ele>424.263</ele>
        <time>2022-08-25T10:20:35Z</time>
      </trkpt>
      <trkpt lat="42.66625900000024" lon="-1.8512109999999993">
        <ele>424.420</ele>
        <time>2022-08-25T10:20:36Z</time>
      </trkpt>
      <trkpt lat="42.66626400000024" lon="-1.8512229999999992">
        <ele>424.653</ele>
        <time>2022-08-25T10:20:37Z</time>
      </trkpt>
      <trkpt lat="42.66626800000024" lon="-1.851234999999999">
        <ele>424.639</ele>
        <time>2022-08-25T10:20:38Z</time>
      </trkpt>
      <trkpt lat="42.66627300000024" lon="-1.851246999999999">
        <ele>425.040</ele>
        <time>2022-08-25T10:20:39Z</time>
      </trkpt>
      <trkpt lat="42.666280000000235" lon="-1.851257999999999">
        <ele>425.064</ele>
        <time>2022-08-25T10:20:40Z</time>
      </trkpt>
      <trkpt lat="42.66628700000023" lon="-1.8512699999999989">
        <ele>425.206</ele>
        <time>2022-08-25T10:20:41Z</time>
      </trkpt>
      <trkpt lat="42.66629200000023" lon="-1.8512789999999988">
        <ele>425.216</ele>
        <time>2022-08-25T10:20:42Z</time>
      </trkpt>
      <trkpt lat="42.66629600000023" lon="-1.8512899999999988">
        <ele>425.409</ele>
        <time>2022-08-25T10:20:43Z</time>
      </trkpt>
      <trkpt lat="42.66630000000023" lon="-1.8512999999999988">
        <ele>425.477</ele>
        <time>2022-08-25T10:20:44Z</time>
      </trkpt>
      <trkpt lat="42.66630300000023" lon="-1.8513129999999989">
        <ele>425.617</ele>
        <time>2022-08-25T10:20:45Z</time>
      </trkpt>
      <trkpt lat="42.666306000000226" lon="-1.8513249999999988">
        <ele>425.627</ele>
        <time>2022-08-25T10:20:46Z</time>
      </trkpt>
      <trkpt lat="42.66630800000023" lon="-1.8513359999999988">
        <ele>425.663</ele>
        <time>2022-08-25T10:20:47Z</time>
      </trkpt>
      <trkpt lat="42.66631000000023" lon="-1.8513469999999987">
        <ele>425.855</ele>
        <time>2022-08-25T10:20:48Z</time>
      </trkpt>
      <trkpt lat="42.66631400000023" lon="-1.8513599999999988">
        <ele>426.052</ele>
        <time>2022-08-25T10:20:49Z</time>
      </trkpt>
      <trkpt lat="42.666318000000224" lon="-1.8513699999999988">
        <ele>426.085</ele>
        <time>2022-08-25T10:20:50Z</time>
      </trkpt>
      <trkpt lat="42.666323000000226" lon="-1.8513809999999988">
        <ele>426.231</ele>
        <time>2022-08-25T10:20:51Z</time>
      </trkpt>
      <trkpt lat="42.66632800000023" lon="-1.8513949999999988">
        <ele>426.452</ele>
        <time>2022-08-25T10:20:52Z</time>
      </trkpt>
      <trkpt lat="42.666335000000224" lon="-1.8514069999999987">
        <ele>426.482</ele>
        <time>2022-08-25T10:20:53Z</time>
      </trkpt>
      <trkpt lat="42.66634200000022" lon="-1.8514179999999987">
        <ele>426.443</ele>
        <time>2022-08-25T10:20:54Z</time>
      </trkpt>
      <trkpt lat="42.66634900000022" lon="-1.8514309999999987">
        <ele>426.617</ele>
        <time>2022-08-25T10:20:55Z</time>
      </trkpt>
      <trkpt lat="42.66635400000022" lon="-1.8514439999999988">
        <ele>426.809</ele>
        <time>2022-08-25T10:20:56Z</time>
      </trkpt>
      <trkpt lat="42.66635900000022" lon="-1.8514559999999987">
        <ele>426.879</ele>
        <time>2022-08-25T10:20:57Z</time>
      </trkpt>
      <trkpt lat="42.66636400000022" lon="-1.8514679999999986">
        <ele>427.079</ele>
        <time>2022-08-25T10:20:58Z</time>
      </trkpt>
      <trkpt lat="42.66637000000022" lon="-1.8514799999999985">
        <ele>427.069</ele>
        <time>2022-08-25T10:20:59Z</time>
      </trkpt>
      <trkpt lat="42.66637700000022" lon="-1.8514899999999985">
        <ele>427.265</ele>
        <time>2022-08-25T10:21:00Z</time>
      </trkpt>
      <trkpt lat="42.66638200000022" lon="-1.8514989999999985">
        <ele>427.447</ele>
        <time>2022-08-25T10:21:01Z</time>
      </trkpt>
      <trkpt lat="42.666389000000216" lon="-1.8515129999999984">
        <ele>427.674</ele>
        <time>2022-08-25T10:21:02Z</time>
      </trkpt>
      <trkpt lat="42.666395000000215" lon="-1.8515249999999983">
        <ele>427.847</ele>
        <time>2022-08-25T10:21:03Z</time>
      </trkpt>
      <trkpt lat="42.666401000000214" lon="-1.8515369999999982">
        <ele>428.083</ele>
        <time>2022-08-25T10:21:04Z</time>
      </trkpt>
      <trkpt lat="42.666409000000215" lon="-1.8515479999999982">
        <ele>428.264</ele>
        <time>2022-08-25T10:21:05Z</time>
      </trkpt>
      <trkpt lat="42.666414000000216" lon="-1.8515569999999981">
        <ele>428.442</ele>
        <time>2022-08-25T10:21:06Z</time>
      </trkpt>
      <trkpt lat="42.666420000000215" lon="-1.8515669999999982">
        <ele>428.822</ele>
        <time>2022-08-25T10:21:07Z</time>
      </trkpt>
      <trkpt lat="42.66642500000022" lon="-1.8515799999999982">
        <ele>429.014</ele>
        <time>2022-08-25T10:21:08Z</time>
      </trkpt>
      <trkpt lat="42.66643000000022" lon="-1.8515939999999982">
        <ele>429.009</ele>
        <time>2022-08-25T10:21:09Z</time>
      </trkpt>
      <trkpt lat="42.66643600000022" lon="-1.8516049999999982">
        <ele>429.425</ele>
        <time>2022-08-25T10:21:10Z</time>
      </trkpt>
      <trkpt lat="42.666440000000215" lon="-1.8516149999999982">
        <ele>429.655</ele>
        <time>2022-08-25T10:21:11Z</time>
      </trkpt>
      <trkpt lat="42.666446000000214" lon="-1.8516269999999981">
        <ele>429.865</ele>
        <time>2022-08-25T10:21:12Z</time>
      </trkpt>
      <trkpt lat="42.66645200000021" lon="-1.8516369999999982">
        <ele>430.071</ele>
        <time>2022-08-25T10:21:13Z</time>
      </trkpt>
      <trkpt lat="42.666460000000214" lon="-1.8516439999999983">
        <ele>430.013</ele>
        <time>2022-08-25T10:21:14Z</time>
      </trkpt>
      <trkpt lat="42.666468000000215" lon="-1.8516559999999982">
        <ele>430.210</ele>
        <time>2022-08-25T10:21:15Z</time>
      </trkpt>
      <trkpt lat="42.666476000000216" lon="-1.851667999999998">
        <ele>430.463</ele>
        <time>2022-08-25T10:21:16Z</time>
      </trkpt>
      <trkpt lat="42.666482000000215" lon="-1.8516829999999982">
        <ele>430.459</ele>
        <time>2022-08-25T10:21:17Z</time>
      </trkpt>
      <trkpt lat="42.666490000000216" lon="-1.8517009999999983">
        <ele>430.640</ele>
        <time>2022-08-25T10:21:18Z</time>
      </trkpt>
      <trkpt lat="42.66650000000022" lon="-1.8517159999999984">
        <ele>431.096</ele>
        <time>2022-08-25T10:21:19Z</time>
      </trkpt>
      <trkpt lat="42.66651000000022" lon="-1.8517269999999983">
        <ele>431.231</ele>
        <time>2022-08-25T10:21:20Z</time>
      </trkpt>
      <trkpt lat="42.66651600000022" lon="-1.8517359999999983">
        <ele>431.624</ele>
        <time>2022-08-25T10:21:21Z</time>
      </trkpt>
      <trkpt lat="42.66652200000022" lon="-1.8517469999999983">
        <ele>431.809</ele>
        <time>2022-08-25T10:21:22Z</time>
      </trkpt>
      <trkpt lat="42.66652800000022" lon="-1.8517599999999983">
        <ele>431.830</ele>
        <time>2022-08-25T10:21:23Z</time>
      </trkpt>
      <trkpt lat="42.66653100000022" lon="-1.8517729999999983">
        <ele>432.270</ele>
        <time>2022-08-25T10:21:24Z</time>
      </trkpt>
      <trkpt lat="42.666535000000216" lon="-1.8517859999999984">
        <ele>432.660</ele>
        <time>2022-08-25T10:21:25Z</time>
      </trkpt>
      <trkpt lat="42.66654200000021" lon="-1.8517979999999983">
        <ele>432.886</ele>
        <time>2022-08-25T10:21:26Z</time>
      </trkpt>
      <trkpt lat="42.66654900000021" lon="-1.8518099999999982">
        <ele>433.278</ele>
        <time>2022-08-25T10:21:27Z</time>
      </trkpt>
      <trkpt lat="42.66655700000021" lon="-1.8518229999999982">
        <ele>433.465</ele>
        <time>2022-08-25T10:21:28Z</time>
      </trkpt>
      <trkpt lat="42.66656400000021" lon="-1.8518339999999982">
        <ele>433.888</ele>
        <time>2022-08-25T10:21:29Z</time>
      </trkpt>
      <trkpt lat="42.666570000000206" lon="-1.8518469999999982">
        <ele>433.884</ele>
        <time>2022-08-25T10:21:30Z</time>
      </trkpt>
      <trkpt lat="42.666576000000205" lon="-1.8518579999999982">
        <ele>434.065</ele>
        <time>2022-08-25T10:21:31Z</time>
      </trkpt>
      <trkpt lat="42.66658100000021" lon="-1.8518729999999983">
        <ele>434.023</ele>
        <time>2022-08-25T10:21:32Z</time>
      </trkpt>
      <trkpt lat="42.666585000000204" lon="-1.8518929999999982">
        <ele>434.283</ele>
        <time>2022-08-25T10:21:33Z</time>
      </trkpt>
      <trkpt lat="42.6665890000002" lon="-1.8519099999999982">
        <ele>434.611</ele>
        <time>2022-08-25T10:21:34Z</time>
      </trkpt>
      <trkpt lat="42.6665900000002" lon="-1.8519249999999983">
        <ele>434.809</ele>
        <time>2022-08-25T10:21:35Z</time>
      </trkpt>
      <trkpt lat="42.6665930000002" lon="-1.8519419999999982">
        <ele>435.023</ele>
        <time>2022-08-25T10:21:36Z</time>
      </trkpt>
      <trkpt lat="42.6665980000002" lon="-1.8519599999999983">
        <ele>435.013</ele>
        <time>2022-08-25T10:21:37Z</time>
      </trkpt>
      <trkpt lat="42.6666000000002" lon="-1.8519749999999984">
        <ele>435.273</ele>
        <time>2022-08-25T10:21:38Z</time>
      </trkpt>
      <trkpt lat="42.6666060000002" lon="-1.8519899999999985">
        <ele>435.279</ele>
        <time>2022-08-25T10:21:39Z</time>
      </trkpt>
      <trkpt lat="42.6666120000002" lon="-1.8520049999999986">
        <ele>435.481</ele>
        <time>2022-08-25T10:21:40Z</time>
      </trkpt>
      <trkpt lat="42.6666180000002" lon="-1.8520209999999986">
        <ele>435.638</ele>
        <time>2022-08-25T10:21:41Z</time>
      </trkpt>
      <trkpt lat="42.6666230000002" lon="-1.8520379999999985">
        <ele>435.871</ele>
        <time>2022-08-25T10:21:42Z</time>
      </trkpt>
      <trkpt lat="42.6666270000002" lon="-1.8520519999999985">
        <ele>436.027</ele>
        <time>2022-08-25T10:21:43Z</time>
      </trkpt>
      <trkpt lat="42.6666300000002" lon="-1.8520629999999985">
        <ele>436.478</ele>
        <time>2022-08-25T10:21:44Z</time>
      </trkpt>
      <trkpt lat="42.666634000000194" lon="-1.8520819999999985">
        <ele>436.653</ele>
        <time>2022-08-25T10:21:45Z</time>
      </trkpt>
      <trkpt lat="42.66663800000019" lon="-1.8520999999999985">
        <ele>437.004</ele>
        <time>2022-08-25T10:21:46Z</time>
      </trkpt>
      <trkpt lat="42.66664100000019" lon="-1.8521159999999985">
        <ele>437.014</ele>
        <time>2022-08-25T10:21:47Z</time>
      </trkpt>
      <trkpt lat="42.66664500000019" lon="-1.8521319999999986">
        <ele>437.209</ele>
        <time>2022-08-25T10:21:48Z</time>
      </trkpt>
      <trkpt lat="42.66664800000019" lon="-1.8521449999999986">
        <ele>437.496</ele>
        <time>2022-08-25T10:21:49Z</time>
      </trkpt>
      <trkpt lat="42.66665300000019" lon="-1.8521569999999985">
        <ele>437.676</ele>
        <time>2022-08-25T10:21:50Z</time>
      </trkpt>
      <trkpt lat="42.666657000000185" lon="-1.8521729999999985">
        <ele>437.876</ele>
        <time>2022-08-25T10:21:51Z</time>
      </trkpt>
      <trkpt lat="42.66666200000019" lon="-1.8521879999999986">
        <ele>437.862</ele>
        <time>2022-08-25T10:21:52Z</time>
      </trkpt>
      <trkpt lat="42.66666700000019" lon="-1.8522019999999986">
        <ele>438.214</ele>
        <time>2022-08-25T10:21:53Z</time>
      </trkpt>
      <trkpt lat="42.666668000000186" lon="-1.8522169999999987">
        <ele>438.431</ele>
        <time>2022-08-25T10:21:54Z</time>
      </trkpt>
      <trkpt lat="42.66667000000019" lon="-1.8522299999999987">
        <ele>438.644</ele>
        <time>2022-08-25T10:21:55Z</time>
      </trkpt>
      <trkpt lat="42.66667200000019" lon="-1.8522439999999987">
        <ele>438.830</ele>
        <time>2022-08-25T10:21:56Z</time>
      </trkpt>
      <trkpt lat="42.66667700000019" lon="-1.8522569999999987">
        <ele>439.081</ele>
        <time>2022-08-25T10:21:57Z</time>
      </trkpt>
      <trkpt lat="42.66668100000019" lon="-1.8522649999999987">
        <ele>439.497</ele>
        <time>2022-08-25T10:21:58Z</time>
      </trkpt>
      <trkpt lat="42.666688000000185" lon="-1.8522829999999988">
        <ele>439.623</ele>
        <time>2022-08-25T10:21:59Z</time>
      </trkpt>
      <trkpt lat="42.666697000000184" lon="-1.8523019999999988">
        <ele>440.025</ele>
        <time>2022-08-25T10:22:00Z</time>
      </trkpt>
      <trkpt lat="42.66670600000018" lon="-1.8523189999999987">
        <ele>440.209</ele>
        <time>2022-08-25T10:22:01Z</time>
      </trkpt>
      <trkpt lat="42.66671300000018" lon="-1.8523289999999988">
        <ele>440.240</ele>
        <time>2022-08-25T10:22:02Z</time>
      </trkpt>
      <trkpt lat="42.66671600000018" lon="-1.8523389999999988">
        <ele>440.460</ele>
        <time>2022-08-25T10:22:03Z</time>
      </trkpt>
      <trkpt lat="42.66672100000018" lon="-1.8523549999999989">
        <ele>440.680</ele>
        <time>2022-08-25T10:22:04Z</time>
      </trkpt>
      <trkpt lat="42.66672700000018" lon="-1.852369999999999">
        <ele>440.856</ele>
        <time>2022-08-25T10:22:05Z</time>
      </trkpt>
      <trkpt lat="42.66673300000018" lon="-1.852387999999999">
        <ele>441.088</ele>
        <time>2022-08-25T10:22:06Z</time>
      </trkpt>
      <trkpt lat="42.66673900000018" lon="-1.8524029999999991">
        <ele>441.285</ele>
        <time>2022-08-25T10:22:07Z</time>
      </trkpt>
      <trkpt lat="42.666743000000174" lon="-1.8524159999999992">
        <ele>441.218</ele>
        <time>2022-08-25T10:22:08Z</time>
      </trkpt>
      <trkpt lat="42.666746000000174" lon="-1.852427999999999">
        <ele>441.474</ele>
        <time>2022-08-25T10:22:09Z</time>
      </trkpt>
      <trkpt lat="42.666748000000176" lon="-1.8524409999999991">
        <ele>441.455</ele>
        <time>2022-08-25T10:22:10Z</time>
      </trkpt>
      <trkpt lat="42.666751000000176" lon="-1.8524539999999992">
        <ele>441.664</ele>
        <time>2022-08-25T10:22:11Z</time>
      </trkpt>
      <trkpt lat="42.666751000000176" lon="-1.8524689999999993">
        <ele>441.606</ele>
        <time>2022-08-25T10:22:12Z</time>
      </trkpt>
      <trkpt lat="42.66675300000018" lon="-1.8524859999999992">
        <ele>441.616</ele>
        <time>2022-08-25T10:22:13Z</time>
      </trkpt>
      <trkpt lat="42.66675600000018" lon="-1.8525019999999992">
        <ele>441.609</ele>
        <time>2022-08-25T10:22:14Z</time>
      </trkpt>
      <trkpt lat="42.666760000000174" lon="-1.8525169999999993">
        <ele>441.667</ele>
        <time>2022-08-25T10:22:15Z</time>
      </trkpt>
      <trkpt lat="42.66676400000017" lon="-1.8525339999999992">
        <ele>441.857</ele>
        <time>2022-08-25T10:22:16Z</time>
      </trkpt>
      <trkpt lat="42.66677000000017" lon="-1.8525449999999992">
        <ele>442.087</ele>
        <time>2022-08-25T10:22:17Z</time>
      </trkpt>
      <trkpt lat="42.66677500000017" lon="-1.8525579999999993">
        <ele>442.233</ele>
        <time>2022-08-25T10:22:18Z</time>
      </trkpt>
      <trkpt lat="42.66678000000017" lon="-1.8525729999999994">
        <ele>442.445</ele>
        <time>2022-08-25T10:22:20Z</time>
      </trkpt>
      <trkpt lat="42.66678300000017" lon="-1.8525829999999994">
        <ele>442.632</ele>
        <time>2022-08-25T10:22:21Z</time>
      </trkpt>
      <trkpt lat="42.666785000000175" lon="-1.8525919999999994">
        <ele>442.655</ele>
        <time>2022-08-25T10:22:22Z</time>
      </trkpt>
      <trkpt lat="42.66678900000017" lon="-1.8526029999999993">
        <ele>442.861</ele>
        <time>2022-08-25T10:22:23Z</time>
      </trkpt>
      <trkpt lat="42.66679300000017" lon="-1.8526149999999992">
        <ele>442.832</ele>
        <time>2022-08-25T10:22:24Z</time>
      </trkpt>
      <trkpt lat="42.66679800000017" lon="-1.8526259999999992">
        <ele>443.084</ele>
        <time>2022-08-25T10:22:25Z</time>
      </trkpt>
      <trkpt lat="42.66680300000017" lon="-1.8526389999999993">
        <ele>443.207</ele>
        <time>2022-08-25T10:22:26Z</time>
      </trkpt>
      <trkpt lat="42.66680600000017" lon="-1.8526519999999993">
        <ele>443.417</ele>
        <time>2022-08-25T10:22:27Z</time>
      </trkpt>
      <trkpt lat="42.66680900000017" lon="-1.8526659999999993">
        <ele>443.409</ele>
        <time>2022-08-25T10:22:28Z</time>
      </trkpt>
      <trkpt lat="42.66681300000017" lon="-1.8526809999999994">
        <ele>443.489</ele>
        <time>2022-08-25T10:22:29Z</time>
      </trkpt>
      <trkpt lat="42.666817000000165" lon="-1.8526969999999994">
        <ele>443.679</ele>
        <time>2022-08-25T10:22:30Z</time>
      </trkpt>
      <trkpt lat="42.666820000000165" lon="-1.8527119999999995">
        <ele>443.699</ele>
        <time>2022-08-25T10:22:31Z</time>
      </trkpt>
      <trkpt lat="42.66682200000017" lon="-1.8527249999999995">
        <ele>443.815</ele>
        <time>2022-08-25T10:22:32Z</time>
      </trkpt>
      <trkpt lat="42.666825000000166" lon="-1.8527429999999996">
        <ele>444.047</ele>
        <time>2022-08-25T10:22:33Z</time>
      </trkpt>
      <trkpt lat="42.66682700000017" lon="-1.8527579999999997">
        <ele>444.224</ele>
        <time>2022-08-25T10:22:34Z</time>
      </trkpt>
      <trkpt lat="42.66682900000017" lon="-1.8527709999999997">
        <ele>444.457</ele>
        <time>2022-08-25T10:22:35Z</time>
      </trkpt>
      <trkpt lat="42.66683200000017" lon="-1.8527839999999998">
        <ele>444.623</ele>
        <time>2022-08-25T10:22:36Z</time>
      </trkpt>
      <trkpt lat="42.66683500000017" lon="-1.8527949999999997">
        <ele>444.864</ele>
        <time>2022-08-25T10:22:37Z</time>
      </trkpt>
      <trkpt lat="42.66683800000017" lon="-1.8528079999999998">
        <ele>445.066</ele>
        <time>2022-08-25T10:22:38Z</time>
      </trkpt>
      <trkpt lat="42.66684400000017" lon="-1.8528219999999997">
        <ele>445.229</ele>
        <time>2022-08-25T10:22:39Z</time>
      </trkpt>
      <trkpt lat="42.66684900000017" lon="-1.8528319999999998">
        <ele>445.221</ele>
        <time>2022-08-25T10:22:40Z</time>
      </trkpt>
      <trkpt lat="42.66685400000017" lon="-1.852839">
        <ele>445.409</ele>
        <time>2022-08-25T10:22:41Z</time>
      </trkpt>
      <trkpt lat="42.66686100000017" lon="-1.8528499999999999">
        <ele>445.657</ele>
        <time>2022-08-25T10:22:42Z</time>
      </trkpt>
      <trkpt lat="42.66686600000017" lon="-1.8528639999999998">
        <ele>445.657</ele>
        <time>2022-08-25T10:22:43Z</time>
      </trkpt>
      <trkpt lat="42.66687100000017" lon="-1.8528809999999998">
        <ele>445.837</ele>
        <time>2022-08-25T10:22:44Z</time>
      </trkpt>
      <trkpt lat="42.66687500000017" lon="-1.8528979999999997">
        <ele>446.053</ele>
        <time>2022-08-25T10:22:45Z</time>
      </trkpt>
      <trkpt lat="42.666879000000165" lon="-1.8529139999999997">
        <ele>446.285</ele>
        <time>2022-08-25T10:22:46Z</time>
      </trkpt>
      <trkpt lat="42.66688300000016" lon="-1.8529279999999997">
        <ele>446.422</ele>
        <time>2022-08-25T10:22:47Z</time>
      </trkpt>
      <trkpt lat="42.66688900000016" lon="-1.8529469999999997">
        <ele>446.655</ele>
        <time>2022-08-25T10:22:48Z</time>
      </trkpt>
      <trkpt lat="42.66689500000016" lon="-1.8529599999999997">
        <ele>446.821</ele>
        <time>2022-08-25T10:22:49Z</time>
      </trkpt>
      <trkpt lat="42.66690000000016" lon="-1.8529709999999997">
        <ele>447.032</ele>
        <time>2022-08-25T10:22:50Z</time>
      </trkpt>
      <trkpt lat="42.66690500000016" lon="-1.8529819999999997">
        <ele>447.277</ele>
        <time>2022-08-25T10:22:51Z</time>
      </trkpt>
      <trkpt lat="42.66691100000016" lon="-1.8529949999999997">
        <ele>447.461</ele>
        <time>2022-08-25T10:22:52Z</time>
      </trkpt>
      <trkpt lat="42.66691500000016" lon="-1.8530049999999998">
        <ele>447.427</ele>
        <time>2022-08-25T10:22:53Z</time>
      </trkpt>
      <trkpt lat="42.66692100000016" lon="-1.8530169999999997">
        <ele>447.609</ele>
        <time>2022-08-25T10:22:54Z</time>
      </trkpt>
      <trkpt lat="42.66692600000016" lon="-1.8530269999999998">
        <ele>447.838</ele>
        <time>2022-08-25T10:22:55Z</time>
      </trkpt>
      <trkpt lat="42.66693100000016" lon="-1.8530379999999997">
        <ele>448.248</ele>
        <time>2022-08-25T10:22:56Z</time>
      </trkpt>
      <trkpt lat="42.66693500000016" lon="-1.8530539999999998">
        <ele>448.248</ele>
        <time>2022-08-25T10:22:57Z</time>
      </trkpt>
      <trkpt lat="42.666939000000156" lon="-1.8530679999999997">
        <ele>448.444</ele>
        <time>2022-08-25T10:22:58Z</time>
      </trkpt>
      <trkpt lat="42.66694300000015" lon="-1.8530759999999997">
        <ele>448.646</ele>
        <time>2022-08-25T10:22:59Z</time>
      </trkpt>
      <trkpt lat="42.66695000000015" lon="-1.8530859999999998">
        <ele>448.883</ele>
        <time>2022-08-25T10:23:00Z</time>
      </trkpt>
      <trkpt lat="42.66695600000015" lon="-1.8530949999999997">
        <ele>449.066</ele>
        <time>2022-08-25T10:23:01Z</time>
      </trkpt>
      <trkpt lat="42.666963000000145" lon="-1.8531109999999997">
        <ele>449.482</ele>
        <time>2022-08-25T10:23:02Z</time>
      </trkpt>
      <trkpt lat="42.666971000000146" lon="-1.8531259999999998">
        <ele>450.033</ele>
        <time>2022-08-25T10:23:03Z</time>
      </trkpt>
      <trkpt lat="42.66697800000014" lon="-1.8531369999999998">
        <ele>450.465</ele>
        <time>2022-08-25T10:23:04Z</time>
      </trkpt>
      <trkpt lat="42.66698600000014" lon="-1.853152">
        <ele>450.468</ele>
        <time>2022-08-25T10:23:05Z</time>
      </trkpt>
      <trkpt lat="42.66699200000014" lon="-1.853163">
        <ele>450.814</ele>
        <time>2022-08-25T10:23:06Z</time>
      </trkpt>
      <trkpt lat="42.66699900000014" lon="-1.8531739999999999">
        <ele>451.009</ele>
        <time>2022-08-25T10:23:07Z</time>
      </trkpt>
      <trkpt lat="42.667006000000136" lon="-1.8531859999999998">
        <ele>451.497</ele>
        <time>2022-08-25T10:23:08Z</time>
      </trkpt>
      <trkpt lat="42.66701400000014" lon="-1.8531989999999998">
        <ele>451.417</ele>
        <time>2022-08-25T10:23:09Z</time>
      </trkpt>
      <trkpt lat="42.66702500000014" lon="-1.8532119999999999">
        <ele>452.047</ele>
        <time>2022-08-25T10:23:10Z</time>
      </trkpt>
      <trkpt lat="42.66703100000014" lon="-1.8532289999999998">
        <ele>452.843</ele>
        <time>2022-08-25T10:23:11Z</time>
      </trkpt>
      <trkpt lat="42.667034000000136" lon="-1.853244">
        <ele>453.085</ele>
        <time>2022-08-25T10:23:12Z</time>
      </trkpt>
      <trkpt lat="42.667037000000136" lon="-1.853254">
        <ele>453.422</ele>
        <time>2022-08-25T10:23:13Z</time>
      </trkpt>
      <trkpt lat="42.667043000000135" lon="-1.8532659999999999">
        <ele>453.465</ele>
        <time>2022-08-25T10:23:14Z</time>
      </trkpt>
      <trkpt lat="42.66705000000013" lon="-1.8532799999999998">
        <ele>453.861</ele>
        <time>2022-08-25T10:23:15Z</time>
      </trkpt>
      <trkpt lat="42.66705800000013" lon="-1.8532899999999999">
        <ele>454.092</ele>
        <time>2022-08-25T10:23:16Z</time>
      </trkpt>
      <trkpt lat="42.66706700000013" lon="-1.8532989999999998">
        <ele>454.616</ele>
        <time>2022-08-25T10:23:17Z</time>
      </trkpt>
      <trkpt lat="42.66707500000013" lon="-1.8533079999999997">
        <ele>455.076</ele>
        <time>2022-08-25T10:23:18Z</time>
      </trkpt>
      <trkpt lat="42.66708100000013" lon="-1.8533159999999997">
        <ele>455.413</ele>
        <time>2022-08-25T10:23:19Z</time>
      </trkpt>
      <trkpt lat="42.66708900000013" lon="-1.8533279999999996">
        <ele>455.809</ele>
        <time>2022-08-25T10:23:20Z</time>
      </trkpt>
      <trkpt lat="42.66709700000013" lon="-1.8533379999999997">
        <ele>456.282</ele>
        <time>2022-08-25T10:23:21Z</time>
      </trkpt>
      <trkpt lat="42.66710400000013" lon="-1.8533489999999997">
        <ele>456.812</ele>
        <time>2022-08-25T10:23:22Z</time>
      </trkpt>
      <trkpt lat="42.66711200000013" lon="-1.8533619999999997">
        <ele>457.042</ele>
        <time>2022-08-25T10:23:23Z</time>
      </trkpt>
      <trkpt lat="42.66711700000013" lon="-1.8533729999999997">
        <ele>457.268</ele>
        <time>2022-08-25T10:23:24Z</time>
      </trkpt>
      <trkpt lat="42.66712400000013" lon="-1.8533889999999997">
        <ele>457.440</ele>
        <time>2022-08-25T10:23:25Z</time>
      </trkpt>
      <trkpt lat="42.66713300000013" lon="-1.8533989999999998">
        <ele>457.667</ele>
        <time>2022-08-25T10:23:26Z</time>
      </trkpt>
      <trkpt lat="42.66714100000013" lon="-1.8534129999999998">
        <ele>457.850</ele>
        <time>2022-08-25T10:23:27Z</time>
      </trkpt>
      <trkpt lat="42.667148000000125" lon="-1.8534239999999997">
        <ele>458.076</ele>
        <time>2022-08-25T10:23:28Z</time>
      </trkpt>
      <trkpt lat="42.66715500000012" lon="-1.8534359999999996">
        <ele>458.477</ele>
        <time>2022-08-25T10:23:29Z</time>
      </trkpt>
      <trkpt lat="42.66716100000012" lon="-1.8534459999999997">
        <ele>459.068</ele>
        <time>2022-08-25T10:23:30Z</time>
      </trkpt>
      <trkpt lat="42.66716700000012" lon="-1.8534579999999996">
        <ele>459.242</ele>
        <time>2022-08-25T10:23:31Z</time>
      </trkpt>
      <trkpt lat="42.66717300000012" lon="-1.8534769999999996">
        <ele>459.426</ele>
        <time>2022-08-25T10:23:32Z</time>
      </trkpt>
      <trkpt lat="42.66717900000012" lon="-1.8534919999999997">
        <ele>459.409</ele>
        <time>2022-08-25T10:23:33Z</time>
      </trkpt>
      <trkpt lat="42.66718400000012" lon="-1.8535029999999997">
        <ele>459.817</ele>
        <time>2022-08-25T10:23:34Z</time>
      </trkpt>
      <trkpt lat="42.66718900000012" lon="-1.8535169999999996">
        <ele>460.037</ele>
        <time>2022-08-25T10:23:35Z</time>
      </trkpt>
      <trkpt lat="42.66718700000012" lon="-1.8535309999999996">
        <ele>460.057</ele>
        <time>2022-08-25T10:23:36Z</time>
      </trkpt>
      <trkpt lat="42.66718600000012" lon="-1.8535489999999997">
        <ele>460.253</ele>
        <time>2022-08-25T10:23:37Z</time>
      </trkpt>
      <trkpt lat="42.667188000000124" lon="-1.8535649999999997">
        <ele>460.445</ele>
        <time>2022-08-25T10:23:38Z</time>
      </trkpt>
      <trkpt lat="42.667193000000125" lon="-1.8535789999999996">
        <ele>460.472</ele>
        <time>2022-08-25T10:23:39Z</time>
      </trkpt>
      <trkpt lat="42.66719700000012" lon="-1.8535909999999995">
        <ele>460.625</ele>
        <time>2022-08-25T10:23:40Z</time>
      </trkpt>
      <trkpt lat="42.667202000000124" lon="-1.8536059999999996">
        <ele>460.621</ele>
        <time>2022-08-25T10:23:41Z</time>
      </trkpt>
      <trkpt lat="42.667207000000126" lon="-1.8536259999999996">
        <ele>460.832</ele>
        <time>2022-08-25T10:23:42Z</time>
      </trkpt>
      <trkpt lat="42.667210000000125" lon="-1.8536409999999997">
        <ele>460.845</ele>
        <time>2022-08-25T10:23:43Z</time>
      </trkpt>
      <trkpt lat="42.66721200000013" lon="-1.8536539999999997">
        <ele>461.047</ele>
        <time>2022-08-25T10:23:44Z</time>
      </trkpt>
      <trkpt lat="42.667216000000124" lon="-1.8536679999999996">
        <ele>461.011</ele>
        <time>2022-08-25T10:23:45Z</time>
      </trkpt>
      <trkpt lat="42.667216000000124" lon="-1.8536849999999996">
        <ele>461.009</ele>
        <time>2022-08-25T10:23:46Z</time>
      </trkpt>
      <trkpt lat="42.66722000000012" lon="-1.8536999999999997">
        <ele>461.255</ele>
        <time>2022-08-25T10:23:47Z</time>
      </trkpt>
      <trkpt lat="42.66722400000012" lon="-1.8537169999999996">
        <ele>461.065</ele>
        <time>2022-08-25T10:23:48Z</time>
      </trkpt>
      <trkpt lat="42.66722900000012" lon="-1.8537329999999996">
        <ele>461.285</ele>
        <time>2022-08-25T10:23:49Z</time>
      </trkpt>
      <trkpt lat="42.66723400000012" lon="-1.8537469999999996">
        <ele>461.491</ele>
        <time>2022-08-25T10:23:50Z</time>
      </trkpt>
      <trkpt lat="42.66724100000012" lon="-1.8537679999999996">
        <ele>461.683</ele>
        <time>2022-08-25T10:23:51Z</time>
      </trkpt>
      <trkpt lat="42.667248000000114" lon="-1.8537899999999996">
        <ele>461.670</ele>
        <time>2022-08-25T10:23:52Z</time>
      </trkpt>
      <trkpt lat="42.66725800000012" lon="-1.8538149999999995">
        <ele>461.633</ele>
        <time>2022-08-25T10:23:53Z</time>
      </trkpt>
      <trkpt lat="42.667262000000115" lon="-1.8538299999999996">
        <ele>461.829</ele>
        <time>2022-08-25T10:23:54Z</time>
      </trkpt>
      <trkpt lat="42.667265000000114" lon="-1.8538439999999996">
        <ele>462.020</ele>
        <time>2022-08-25T10:23:55Z</time>
      </trkpt>
      <trkpt lat="42.667267000000116" lon="-1.8538579999999996">
        <ele>462.056</ele>
        <time>2022-08-25T10:23:56Z</time>
      </trkpt>
      <trkpt lat="42.66727200000012" lon="-1.8538739999999996">
        <ele>462.259</ele>
        <time>2022-08-25T10:23:57Z</time>
      </trkpt>
      <trkpt lat="42.66727500000012" lon="-1.8538889999999997">
        <ele>462.214</ele>
        <time>2022-08-25T10:23:58Z</time>
      </trkpt>
      <trkpt lat="42.667281000000116" lon="-1.8539099999999997">
        <ele>462.409</ele>
        <time>2022-08-25T10:23:59Z</time>
      </trkpt>
      <trkpt lat="42.667287000000115" lon="-1.8539269999999997">
        <ele>462.446</ele>
        <time>2022-08-25T10:24:00Z</time>
      </trkpt>
      <trkpt lat="42.667290000000115" lon="-1.8539389999999996">
        <ele>462.436</ele>
        <time>2022-08-25T10:24:01Z</time>
      </trkpt>
      <trkpt lat="42.66729400000011" lon="-1.8539539999999997">
        <ele>462.486</ele>
        <time>2022-08-25T10:24:02Z</time>
      </trkpt>
      <trkpt lat="42.667296000000114" lon="-1.8539689999999998">
        <ele>462.422</ele>
        <time>2022-08-25T10:24:03Z</time>
      </trkpt>
      <trkpt lat="42.66729900000011" lon="-1.8539879999999997">
        <ele>462.654</ele>
        <time>2022-08-25T10:24:04Z</time>
      </trkpt>
      <trkpt lat="42.66730300000011" lon="-1.8540059999999998">
        <ele>462.621</ele>
        <time>2022-08-25T10:24:05Z</time>
      </trkpt>
      <trkpt lat="42.66730700000011" lon="-1.8540219999999998">
        <ele>462.664</ele>
        <time>2022-08-25T10:24:06Z</time>
      </trkpt>
      <trkpt lat="42.66730900000011" lon="-1.8540339999999997">
        <ele>462.810</ele>
        <time>2022-08-25T10:24:07Z</time>
      </trkpt>
      <trkpt lat="42.66731500000011" lon="-1.8540509999999997">
        <ele>462.861</ele>
        <time>2022-08-25T10:24:08Z</time>
      </trkpt>
      <trkpt lat="42.66732000000011" lon="-1.8540649999999996">
        <ele>462.843</ele>
        <time>2022-08-25T10:24:09Z</time>
      </trkpt>
      <trkpt lat="42.66732300000011" lon="-1.8540809999999996">
        <ele>462.864</ele>
        <time>2022-08-25T10:24:10Z</time>
      </trkpt>
      <trkpt lat="42.66732600000011" lon="-1.8540979999999996">
        <ele>463.010</ele>
        <time>2022-08-25T10:24:11Z</time>
      </trkpt>
      <trkpt lat="42.66734000000011" lon="-1.8541649999999996">
        <ele>463.209</ele>
        <time>2022-08-25T10:24:15Z</time>
      </trkpt>
      <trkpt lat="42.66734400000011" lon="-1.8541799999999997">
        <ele>463.235</ele>
        <time>2022-08-25T10:24:16Z</time>
      </trkpt>
      <trkpt lat="42.6673480000001" lon="-1.8541929999999998">
        <ele>463.215</ele>
        <time>2022-08-25T10:24:17Z</time>
      </trkpt>
      <trkpt lat="42.6673740000001" lon="-1.8542849999999997">
        <ele>463.425</ele>
        <time>2022-08-25T10:24:22Z</time>
      </trkpt>
      <trkpt lat="42.6673780000001" lon="-1.8543049999999996">
        <ele>463.671</ele>
        <time>2022-08-25T10:24:23Z</time>
      </trkpt>
      <trkpt lat="42.6674050000001" lon="-1.8544279999999997">
        <ele>463.823</ele>
        <time>2022-08-25T10:24:27Z</time>
      </trkpt>
      <trkpt lat="42.667443000000105" lon="-1.8546299999999998">
        <ele>464.460</ele>
        <time>2022-08-25T10:24:33Z</time>
      </trkpt>
      <trkpt lat="42.6674500000001" lon="-1.8546639999999999">
        <ele>464.643</ele>
        <time>2022-08-25T10:24:34Z</time>
      </trkpt>
      <trkpt lat="42.6674650000001" lon="-1.8547379999999998">
        <ele>464.839</ele>
        <time>2022-08-25T10:24:36Z</time>
      </trkpt>
      <trkpt lat="42.6674710000001" lon="-1.8547619999999998">
        <ele>465.010</ele>
        <time>2022-08-25T10:24:37Z</time>
      </trkpt>
      <trkpt lat="42.6674770000001" lon="-1.8547909999999999">
        <ele>465.273</ele>
        <time>2022-08-25T10:24:38Z</time>
      </trkpt>
      <trkpt lat="42.6674830000001" lon="-1.8548179999999999">
        <ele>465.485</ele>
        <time>2022-08-25T10:24:39Z</time>
      </trkpt>
      <trkpt lat="42.6674910000001" lon="-1.854844">
        <ele>465.613</ele>
        <time>2022-08-25T10:24:40Z</time>
      </trkpt>
      <trkpt lat="42.6674990000001" lon="-1.8548689999999999">
        <ele>465.809</ele>
        <time>2022-08-25T10:24:41Z</time>
      </trkpt>
      <trkpt lat="42.6675070000001" lon="-1.8548969999999998">
        <ele>466.048</ele>
        <time>2022-08-25T10:24:42Z</time>
      </trkpt>
      <trkpt lat="42.6675110000001" lon="-1.8549209999999998">
        <ele>466.028</ele>
        <time>2022-08-25T10:24:43Z</time>
      </trkpt>
      <trkpt lat="42.667515000000094" lon="-1.8549399999999998">
        <ele>466.058</ele>
        <time>2022-08-25T10:24:44Z</time>
      </trkpt>
      <trkpt lat="42.66751900000009" lon="-1.8549639999999998">
        <ele>466.064</ele>
        <time>2022-08-25T10:24:45Z</time>
      </trkpt>
      <trkpt lat="42.66752200000009" lon="-1.85499">
        <ele>466.046</ele>
        <time>2022-08-25T10:24:46Z</time>
      </trkpt>
      <trkpt lat="42.66753100000009" lon="-1.85502">
        <ele>466.233</ele>
        <time>2022-08-25T10:24:47Z</time>
      </trkpt>
      <trkpt lat="42.66754100000009" lon="-1.8550419999999999">
        <ele>466.246</ele>
        <time>2022-08-25T10:24:48Z</time>
      </trkpt>
      <trkpt lat="42.66754700000009" lon="-1.8550579999999999">
        <ele>466.632</ele>
        <time>2022-08-25T10:24:49Z</time>
      </trkpt>
      <trkpt lat="42.66755200000009" lon="-1.8550799999999998">
        <ele>466.813</ele>
        <time>2022-08-25T10:24:50Z</time>
      </trkpt>
      <trkpt lat="42.667557000000095" lon="-1.8551039999999999">
        <ele>467.237</ele>
        <time>2022-08-25T10:24:51Z</time>
      </trkpt>
      <trkpt lat="42.667562000000096" lon="-1.855133">
        <ele>467.249</ele>
        <time>2022-08-25T10:24:52Z</time>
      </trkpt>
      <trkpt lat="42.66756900000009" lon="-1.855154">
        <ele>467.213</ele>
        <time>2022-08-25T10:24:53Z</time>
      </trkpt>
      <trkpt lat="42.66757600000009" lon="-1.855176">
        <ele>467.409</ele>
        <time>2022-08-25T10:24:54Z</time>
      </trkpt>
      <trkpt lat="42.66758100000009" lon="-1.855198">
        <ele>467.494</ele>
        <time>2022-08-25T10:24:55Z</time>
      </trkpt>
      <trkpt lat="42.66758400000009" lon="-1.855216">
        <ele>467.494</ele>
        <time>2022-08-25T10:24:56Z</time>
      </trkpt>
      <trkpt lat="42.66759200000009" lon="-1.855243">
        <ele>467.634</ele>
        <time>2022-08-25T10:24:57Z</time>
      </trkpt>
      <trkpt lat="42.66759800000009" lon="-1.855264">
        <ele>467.640</ele>
        <time>2022-08-25T10:24:58Z</time>
      </trkpt>
      <trkpt lat="42.66760400000009" lon="-1.8552870000000001">
        <ele>467.612</ele>
        <time>2022-08-25T10:24:59Z</time>
      </trkpt>
      <trkpt lat="42.66760700000009" lon="-1.855304">
        <ele>467.879</ele>
        <time>2022-08-25T10:25:00Z</time>
      </trkpt>
      <trkpt lat="42.66760900000009" lon="-1.855326">
        <ele>467.852</ele>
        <time>2022-08-25T10:25:01Z</time>
      </trkpt>
      <trkpt lat="42.66761400000009" lon="-1.855347">
        <ele>467.858</ele>
        <time>2022-08-25T10:25:02Z</time>
      </trkpt>
      <trkpt lat="42.667624000000096" lon="-1.8553680000000001">
        <ele>468.089</ele>
        <time>2022-08-25T10:25:03Z</time>
      </trkpt>
      <trkpt lat="42.6676320000001" lon="-1.855382">
        <ele>468.064</ele>
        <time>2022-08-25T10:25:04Z</time>
      </trkpt>
      <trkpt lat="42.667639000000094" lon="-1.8554000000000002">
        <ele>468.006</ele>
        <time>2022-08-25T10:25:05Z</time>
      </trkpt>
      <trkpt lat="42.66764300000009" lon="-1.8554180000000002">
        <ele>468.016</ele>
        <time>2022-08-25T10:25:06Z</time>
      </trkpt>
      <trkpt lat="42.66764900000009" lon="-1.8554460000000002">
        <ele>468.209</ele>
        <time>2022-08-25T10:25:07Z</time>
      </trkpt>
      <trkpt lat="42.667656000000086" lon="-1.855482">
        <ele>468.237</ele>
        <time>2022-08-25T10:25:08Z</time>
      </trkpt>
      <trkpt lat="42.66766400000009" lon="-1.855513">
        <ele>468.227</ele>
        <time>2022-08-25T10:25:09Z</time>
      </trkpt>
      <trkpt lat="42.667671000000084" lon="-1.8555409999999999">
        <ele>468.247</ele>
        <time>2022-08-25T10:25:10Z</time>
      </trkpt>
      <trkpt lat="42.66767400000008" lon="-1.8555609999999998">
        <ele>468.453</ele>
        <time>2022-08-25T10:25:11Z</time>
      </trkpt>
      <trkpt lat="42.66768000000008" lon="-1.8555869999999999">
        <ele>468.645</ele>
        <time>2022-08-25T10:25:12Z</time>
      </trkpt>
      <trkpt lat="42.667685000000084" lon="-1.85561">
        <ele>468.872</ele>
        <time>2022-08-25T10:25:13Z</time>
      </trkpt>
      <trkpt lat="42.66769800000009" lon="-1.855664">
        <ele>469.055</ele>
        <time>2022-08-25T10:25:16Z</time>
      </trkpt>
      <trkpt lat="42.66769700000009" lon="-1.855677">
        <ele>469.041</ele>
        <time>2022-08-25T10:25:17Z</time>
      </trkpt>
      <trkpt lat="42.66769400000009" lon="-1.855685">
        <ele>469.292</ele>
        <time>2022-08-25T10:25:18Z</time>
      </trkpt>
      <trkpt lat="42.66768900000009" lon="-1.855693">
        <ele>469.264</ele>
        <time>2022-08-25T10:25:19Z</time>
      </trkpt>
      <trkpt lat="42.66768000000009" lon="-1.855704">
        <ele>469.206</ele>
        <time>2022-08-25T10:25:20Z</time>
      </trkpt>
      <trkpt lat="42.66767400000009" lon="-1.855708">
        <ele>469.216</ele>
        <time>2022-08-25T10:25:21Z</time>
      </trkpt>
      <trkpt lat="42.66767000000009" lon="-1.8557109999999999">
        <ele>469.209</ele>
        <time>2022-08-25T10:25:22Z</time>
      </trkpt>
      <trkpt lat="42.667664000000094" lon="-1.855683">
        <ele>469.047</ele>
        <time>2022-08-25T10:31:26Z</time>
      </trkpt>
      <trkpt lat="42.6676770000001" lon="-1.855708">
        <ele>469.057</ele>
        <time>2022-08-25T10:31:28Z</time>
      </trkpt>
      <trkpt lat="42.6676900000001" lon="-1.855727">
        <ele>469.277</ele>
        <time>2022-08-25T10:31:29Z</time>
      </trkpt>
      <trkpt lat="42.6677250000001" lon="-1.855799">
        <ele>469.423</ele>
        <time>2022-08-25T10:31:32Z</time>
      </trkpt>
      <trkpt lat="42.667734000000095" lon="-1.855823">
        <ele>469.485</ele>
        <time>2022-08-25T10:31:33Z</time>
      </trkpt>
      <trkpt lat="42.66774100000009" lon="-1.855847">
        <ele>469.462</ele>
        <time>2022-08-25T10:31:34Z</time>
      </trkpt>
      <trkpt lat="42.66774900000009" lon="-1.855873">
        <ele>469.695</ele>
        <time>2022-08-25T10:31:35Z</time>
      </trkpt>
      <trkpt lat="42.667757000000094" lon="-1.8558990000000002">
        <ele>469.831</ele>
        <time>2022-08-25T10:31:36Z</time>
      </trkpt>
      <trkpt lat="42.66776900000009" lon="-1.8559700000000001">
        <ele>470.052</ele>
        <time>2022-08-25T10:31:39Z</time>
      </trkpt>
      <trkpt lat="42.66777200000009" lon="-1.8559970000000001">
        <ele>470.038</ele>
        <time>2022-08-25T10:31:40Z</time>
      </trkpt>
      <trkpt lat="42.667771000000094" lon="-1.8560230000000002">
        <ele>470.070</ele>
        <time>2022-08-25T10:31:41Z</time>
      </trkpt>
      <trkpt lat="42.667776000000096" lon="-1.856089">
        <ele>470.217</ele>
        <time>2022-08-25T10:31:43Z</time>
      </trkpt>
      <trkpt lat="42.667810000000095" lon="-1.856306">
        <ele>469.809</ele>
        <time>2022-08-25T10:31:47Z</time>
      </trkpt>
      <trkpt lat="42.667835000000096" lon="-1.856449">
        <ele>468.844</ele>
        <time>2022-08-25T10:31:49Z</time>
      </trkpt>
      <trkpt lat="42.6678900000001" lon="-1.856677">
        <ele>467.874</ele>
        <time>2022-08-25T10:31:52Z</time>
      </trkpt>
      <trkpt lat="42.6679070000001" lon="-1.856755">
        <ele>467.674</ele>
        <time>2022-08-25T10:31:53Z</time>
      </trkpt>
      <trkpt lat="42.6679180000001" lon="-1.8568179999999999">
        <ele>467.680</ele>
        <time>2022-08-25T10:31:54Z</time>
      </trkpt>
      <trkpt lat="42.6679350000001" lon="-1.8569069999999999">
        <ele>467.452</ele>
        <time>2022-08-25T10:31:55Z</time>
      </trkpt>
      <trkpt lat="42.6679480000001" lon="-1.8569749999999998">
        <ele>467.289</ele>
        <time>2022-08-25T10:31:56Z</time>
      </trkpt>
      <trkpt lat="42.6679620000001" lon="-1.857036">
        <ele>467.032</ele>
        <time>2022-08-25T10:31:57Z</time>
      </trkpt>
      <trkpt lat="42.6679790000001" lon="-1.8570939999999998">
        <ele>466.818</ele>
        <time>2022-08-25T10:31:58Z</time>
      </trkpt>
      <trkpt lat="42.6679960000001" lon="-1.8571449999999998">
        <ele>466.449</ele>
        <time>2022-08-25T10:31:59Z</time>
      </trkpt>
      <trkpt lat="42.668012000000104" lon="-1.8571919999999997">
        <ele>466.217</ele>
        <time>2022-08-25T10:32:00Z</time>
      </trkpt>
      <trkpt lat="42.6680240000001" lon="-1.8572329999999997">
        <ele>466.087</ele>
        <time>2022-08-25T10:32:01Z</time>
      </trkpt>
      <trkpt lat="42.6680350000001" lon="-1.8572679999999997">
        <ele>465.815</ele>
        <time>2022-08-25T10:32:02Z</time>
      </trkpt>
      <trkpt lat="42.6680470000001" lon="-1.8572959999999996">
        <ele>465.809</ele>
        <time>2022-08-25T10:32:03Z</time>
      </trkpt>
      <trkpt lat="42.6680580000001" lon="-1.8573189999999997">
        <ele>465.632</ele>
        <time>2022-08-25T10:32:04Z</time>
      </trkpt>
      <trkpt lat="42.6680660000001" lon="-1.8573409999999997">
        <ele>465.622</ele>
        <time>2022-08-25T10:32:05Z</time>
      </trkpt>
      <trkpt lat="42.6680730000001" lon="-1.8573639999999998">
        <ele>465.652</ele>
        <time>2022-08-25T10:32:06Z</time>
      </trkpt>
      <trkpt lat="42.668080000000096" lon="-1.8573889999999997">
        <ele>465.488</ele>
        <time>2022-08-25T10:32:07Z</time>
      </trkpt>
      <trkpt lat="42.66809500000009" lon="-1.8574419999999998">
        <ele>465.620</ele>
        <time>2022-08-25T10:32:09Z</time>
      </trkpt>
      <trkpt lat="42.66811000000009" lon="-1.8574869999999999">
        <ele>465.687</ele>
        <time>2022-08-25T10:32:11Z</time>
      </trkpt>
      <trkpt lat="42.66811700000009" lon="-1.8575069999999998">
        <ele>465.840</ele>
        <time>2022-08-25T10:32:12Z</time>
      </trkpt>
      <trkpt lat="42.66812200000009" lon="-1.8575239999999997">
        <ele>466.076</ele>
        <time>2022-08-25T10:32:13Z</time>
      </trkpt>
      <trkpt lat="42.66812500000009" lon="-1.8575389999999998">
        <ele>466.227</ele>
        <time>2022-08-25T10:32:14Z</time>
      </trkpt>
      <trkpt lat="42.668129000000086" lon="-1.8575549999999998">
        <ele>466.683</ele>
        <time>2022-08-25T10:32:15Z</time>
      </trkpt>
      <trkpt lat="42.668135000000085" lon="-1.8575709999999999">
        <ele>467.025</ele>
        <time>2022-08-25T10:32:16Z</time>
      </trkpt>
      <trkpt lat="42.66813900000008" lon="-1.857589">
        <ele>467.217</ele>
        <time>2022-08-25T10:32:17Z</time>
      </trkpt>
      <trkpt lat="42.66814700000008" lon="-1.857602">
        <ele>467.409</ele>
        <time>2022-08-25T10:32:18Z</time>
      </trkpt>
      <trkpt lat="42.668157000000086" lon="-1.857626">
        <ele>467.679</ele>
        <time>2022-08-25T10:32:20Z</time>
      </trkpt>
      <trkpt lat="42.668157000000086" lon="-1.857636">
        <ele>467.869</ele>
        <time>2022-08-25T10:32:21Z</time>
      </trkpt>
      <trkpt lat="42.66816100000008" lon="-1.857648">
        <ele>467.849</ele>
        <time>2022-08-25T10:32:22Z</time>
      </trkpt>
      <trkpt lat="42.668166000000085" lon="-1.857661">
        <ele>468.035</ele>
        <time>2022-08-25T10:32:23Z</time>
      </trkpt>
      <trkpt lat="42.668171000000086" lon="-1.857674">
        <ele>468.067</ele>
        <time>2022-08-25T10:32:24Z</time>
      </trkpt>
      <trkpt lat="42.66819500000009" lon="-1.857709">
        <ele>468.444</ele>
        <time>2022-08-25T10:32:27Z</time>
      </trkpt>
      <trkpt lat="42.66820300000009" lon="-1.857722">
        <ele>468.827</ele>
        <time>2022-08-25T10:32:28Z</time>
      </trkpt>
      <trkpt lat="42.668213000000094" lon="-1.8577350000000001">
        <ele>468.823</ele>
        <time>2022-08-25T10:32:29Z</time>
      </trkpt>
      <trkpt lat="42.66821900000009" lon="-1.8577480000000002">
        <ele>469.284</ele>
        <time>2022-08-25T10:32:30Z</time>
      </trkpt>
      <trkpt lat="42.668224000000095" lon="-1.8577620000000001">
        <ele>469.469</ele>
        <time>2022-08-25T10:32:31Z</time>
      </trkpt>
      <trkpt lat="42.66823100000009" lon="-1.857774">
        <ele>469.604</ele>
        <time>2022-08-25T10:32:32Z</time>
      </trkpt>
      <trkpt lat="42.66824000000009" lon="-1.857785">
        <ele>469.624</ele>
        <time>2022-08-25T10:32:33Z</time>
      </trkpt>
      <trkpt lat="42.66824800000009" lon="-1.857796">
        <ele>469.609</ele>
        <time>2022-08-25T10:32:34Z</time>
      </trkpt>
      <trkpt lat="42.66825500000009" lon="-1.857808">
        <ele>469.847</ele>
        <time>2022-08-25T10:32:35Z</time>
      </trkpt>
      <trkpt lat="42.668262000000084" lon="-1.8578189999999999">
        <ele>470.067</ele>
        <time>2022-08-25T10:32:36Z</time>
      </trkpt>
      <trkpt lat="42.668270000000085" lon="-1.8578279999999998">
        <ele>470.247</ele>
        <time>2022-08-25T10:32:37Z</time>
      </trkpt>
      <trkpt lat="42.668278000000086" lon="-1.8578389999999998">
        <ele>470.223</ele>
        <time>2022-08-25T10:32:38Z</time>
      </trkpt>
      <trkpt lat="42.66828600000009" lon="-1.8578479999999997">
        <ele>470.645</ele>
        <time>2022-08-25T10:32:39Z</time>
      </trkpt>
      <trkpt lat="42.66829400000009" lon="-1.8578579999999998">
        <ele>471.022</ele>
        <time>2022-08-25T10:32:40Z</time>
      </trkpt>
      <trkpt lat="42.66830200000009" lon="-1.8578689999999998">
        <ele>471.085</ele>
        <time>2022-08-25T10:32:41Z</time>
      </trkpt>
      <trkpt lat="42.66830800000009" lon="-1.8578799999999998">
        <ele>471.291</ele>
        <time>2022-08-25T10:32:42Z</time>
      </trkpt>
      <trkpt lat="42.66831700000009" lon="-1.8578889999999997">
        <ele>471.422</ele>
        <time>2022-08-25T10:32:43Z</time>
      </trkpt>
      <trkpt lat="42.66832500000009" lon="-1.8578969999999997">
        <ele>471.637</ele>
        <time>2022-08-25T10:32:44Z</time>
      </trkpt>
      <trkpt lat="42.66833300000009" lon="-1.8579039999999998">
        <ele>471.849</ele>
        <time>2022-08-25T10:32:45Z</time>
      </trkpt>
      <trkpt lat="42.668340000000086" lon="-1.8579119999999998">
        <ele>471.813</ele>
        <time>2022-08-25T10:32:46Z</time>
      </trkpt>
      <trkpt lat="42.66834800000009" lon="-1.8579219999999999">
        <ele>472.009</ele>
        <time>2022-08-25T10:32:47Z</time>
      </trkpt>
      <trkpt lat="42.668354000000086" lon="-1.8579339999999998">
        <ele>472.284</ele>
        <time>2022-08-25T10:32:48Z</time>
      </trkpt>
      <trkpt lat="42.66836100000008" lon="-1.8579419999999998">
        <ele>472.474</ele>
        <time>2022-08-25T10:32:49Z</time>
      </trkpt>
      <trkpt lat="42.66836700000008" lon="-1.8579529999999997">
        <ele>472.444</ele>
        <time>2022-08-25T10:32:50Z</time>
      </trkpt>
      <trkpt lat="42.66837300000008" lon="-1.8579619999999997">
        <ele>472.620</ele>
        <time>2022-08-25T10:32:51Z</time>
      </trkpt>
      <trkpt lat="42.66838100000008" lon="-1.8579719999999997">
        <ele>472.642</ele>
        <time>2022-08-25T10:32:52Z</time>
      </trkpt>
      <trkpt lat="42.66839000000008" lon="-1.8579799999999997">
        <ele>472.639</ele>
        <time>2022-08-25T10:32:53Z</time>
      </trkpt>
      <trkpt lat="42.66839900000008" lon="-1.8579879999999998">
        <ele>472.842</ele>
        <time>2022-08-25T10:32:54Z</time>
      </trkpt>
      <trkpt lat="42.668406000000076" lon="-1.8579969999999997">
        <ele>472.898</ele>
        <time>2022-08-25T10:32:55Z</time>
      </trkpt>
      <trkpt lat="42.668412000000075" lon="-1.8580079999999997">
        <ele>473.049</ele>
        <time>2022-08-25T10:32:56Z</time>
      </trkpt>
      <trkpt lat="42.668420000000076" lon="-1.8580199999999996">
        <ele>473.034</ele>
        <time>2022-08-25T10:32:57Z</time>
      </trkpt>
      <trkpt lat="42.668429000000074" lon="-1.8580299999999996">
        <ele>473.055</ele>
        <time>2022-08-25T10:32:58Z</time>
      </trkpt>
      <trkpt lat="42.66843800000007" lon="-1.8580429999999997">
        <ele>473.210</ele>
        <time>2022-08-25T10:32:59Z</time>
      </trkpt>
      <trkpt lat="42.66844500000007" lon="-1.8580559999999997">
        <ele>473.209</ele>
        <time>2022-08-25T10:33:00Z</time>
      </trkpt>
      <trkpt lat="42.66845000000007" lon="-1.8580709999999998">
        <ele>473.264</ele>
        <time>2022-08-25T10:33:01Z</time>
      </trkpt>
      <trkpt lat="42.66845500000007" lon="-1.8580889999999999">
        <ele>473.234</ele>
        <time>2022-08-25T10:33:02Z</time>
      </trkpt>
      <trkpt lat="42.668460000000074" lon="-1.858105">
        <ele>473.424</ele>
        <time>2022-08-25T10:33:03Z</time>
      </trkpt>
      <trkpt lat="42.66846600000007" lon="-1.8581219999999998">
        <ele>473.430</ele>
        <time>2022-08-25T10:33:04Z</time>
      </trkpt>
      <trkpt lat="42.66847600000008" lon="-1.85814">
        <ele>473.462</ele>
        <time>2022-08-25T10:33:05Z</time>
      </trkpt>
      <trkpt lat="42.66848700000008" lon="-1.8581569999999998">
        <ele>473.419</ele>
        <time>2022-08-25T10:33:06Z</time>
      </trkpt>
      <trkpt lat="42.66849700000008" lon="-1.858175">
        <ele>473.432</ele>
        <time>2022-08-25T10:33:07Z</time>
      </trkpt>
      <trkpt lat="42.66850800000008" lon="-1.8581949999999998">
        <ele>473.488</ele>
        <time>2022-08-25T10:33:08Z</time>
      </trkpt>
      <trkpt lat="42.66851600000008" lon="-1.8582199999999998">
        <ele>473.489</ele>
        <time>2022-08-25T10:33:09Z</time>
      </trkpt>
      <trkpt lat="42.66852700000008" lon="-1.8582449999999997">
        <ele>473.471</ele>
        <time>2022-08-25T10:33:10Z</time>
      </trkpt>
      <trkpt lat="42.66853900000008" lon="-1.8582729999999996">
        <ele>473.441</ele>
        <time>2022-08-25T10:33:11Z</time>
      </trkpt>
      <trkpt lat="42.66862200000008" lon="-1.8584429999999996">
        <ele>473.015</ele>
        <time>2022-08-25T10:33:16Z</time>
      </trkpt>
      <trkpt lat="42.668662000000076" lon="-1.8585289999999997">
        <ele>473.009</ele>
        <time>2022-08-25T10:33:18Z</time>
      </trkpt>
      <trkpt lat="42.66874300000008" lon="-1.8586619999999996">
        <ele>472.658</ele>
        <time>2022-08-25T10:33:21Z</time>
      </trkpt>
      <trkpt lat="42.66880400000008" lon="-1.8587499999999997">
        <ele>472.288</ele>
        <time>2022-08-25T10:33:23Z</time>
      </trkpt>
      <trkpt lat="42.668825000000076" lon="-1.8587999999999998">
        <ele>472.248</ele>
        <time>2022-08-25T10:33:24Z</time>
      </trkpt>
      <trkpt lat="42.668837000000075" lon="-1.8588519999999997">
        <ele>471.874</ele>
        <time>2022-08-25T10:33:25Z</time>
      </trkpt>
      <trkpt lat="42.66884400000007" lon="-1.8588999999999998">
        <ele>471.896</ele>
        <time>2022-08-25T10:33:26Z</time>
      </trkpt>
      <trkpt lat="42.66884800000007" lon="-1.8589339999999999">
        <ele>471.473</ele>
        <time>2022-08-25T10:33:27Z</time>
      </trkpt>
      <trkpt lat="42.66884800000007" lon="-1.8589609999999999">
        <ele>471.286</ele>
        <time>2022-08-25T10:33:28Z</time>
      </trkpt>
      <trkpt lat="42.66885100000007" lon="-1.8589829999999998">
        <ele>471.072</ele>
        <time>2022-08-25T10:33:29Z</time>
      </trkpt>
      <trkpt lat="42.668855000000065" lon="-1.8589999999999998">
        <ele>470.893</ele>
        <time>2022-08-25T10:33:30Z</time>
      </trkpt>
      <trkpt lat="42.668858000000064" lon="-1.8590169999999997">
        <ele>470.877</ele>
        <time>2022-08-25T10:33:31Z</time>
      </trkpt>
      <trkpt lat="42.66886400000006" lon="-1.8590389999999997">
        <ele>470.261</ele>
        <time>2022-08-25T10:33:32Z</time>
      </trkpt>
      <trkpt lat="42.668886000000064" lon="-1.8590929999999997">
        <ele>470.027</ele>
        <time>2022-08-25T10:33:34Z</time>
      </trkpt>
      <trkpt lat="42.66892300000006" lon="-1.8591309999999996">
        <ele>469.809</ele>
        <time>2022-08-25T10:33:36Z</time>
      </trkpt>
      <trkpt lat="42.66894300000006" lon="-1.8591499999999996">
        <ele>469.878</ele>
        <time>2022-08-25T10:33:37Z</time>
      </trkpt>
      <trkpt lat="42.66896300000006" lon="-1.8591669999999996">
        <ele>469.848</ele>
        <time>2022-08-25T10:33:38Z</time>
      </trkpt>
      <trkpt lat="42.66900000000006" lon="-1.8592059999999995">
        <ele>469.888</ele>
        <time>2022-08-25T10:33:40Z</time>
      </trkpt>
      <trkpt lat="42.66904500000006" lon="-1.8592769999999994">
        <ele>469.494</ele>
        <time>2022-08-25T10:33:43Z</time>
      </trkpt>
      <trkpt lat="42.669055000000064" lon="-1.8592999999999995">
        <ele>469.446</ele>
        <time>2022-08-25T10:33:44Z</time>
      </trkpt>
      <trkpt lat="42.66906500000007" lon="-1.8593229999999996">
        <ele>469.423</ele>
        <time>2022-08-25T10:33:45Z</time>
      </trkpt>
      <trkpt lat="42.669072000000064" lon="-1.8593469999999996">
        <ele>469.496</ele>
        <time>2022-08-25T10:33:46Z</time>
      </trkpt>
      <trkpt lat="42.66907800000006" lon="-1.8593709999999997">
        <ele>469.232</ele>
        <time>2022-08-25T10:33:47Z</time>
      </trkpt>
      <trkpt lat="42.66909000000006" lon="-1.8593909999999996">
        <ele>469.053</ele>
        <time>2022-08-25T10:33:48Z</time>
      </trkpt>
      <trkpt lat="42.66910500000006" lon="-1.8594089999999996">
        <ele>468.847</ele>
        <time>2022-08-25T10:33:49Z</time>
      </trkpt>
      <trkpt lat="42.66912900000006" lon="-1.8594239999999997">
        <ele>468.629</ele>
        <time>2022-08-25T10:33:50Z</time>
      </trkpt>
      <trkpt lat="42.669159000000064" lon="-1.8594309999999998">
        <ele>468.421</ele>
        <time>2022-08-25T10:33:51Z</time>
      </trkpt>
      <trkpt lat="42.66919100000006" lon="-1.8594359999999999">
        <ele>468.409</ele>
        <time>2022-08-25T10:33:52Z</time>
      </trkpt>
      <trkpt lat="42.66922300000006" lon="-1.8594359999999999">
        <ele>468.245</ele>
        <time>2022-08-25T10:33:53Z</time>
      </trkpt>
      <trkpt lat="42.66924900000006" lon="-1.859433">
        <ele>468.035</ele>
        <time>2022-08-25T10:33:54Z</time>
      </trkpt>
      <trkpt lat="42.669275000000056" lon="-1.8594279999999999">
        <ele>468.015</ele>
        <time>2022-08-25T10:33:55Z</time>
      </trkpt>
      <trkpt lat="42.66929900000006" lon="-1.8594249999999999">
        <ele>468.091</ele>
        <time>2022-08-25T10:33:56Z</time>
      </trkpt>
      <trkpt lat="42.669320000000056" lon="-1.8594309999999998">
        <ele>468.093</ele>
        <time>2022-08-25T10:33:57Z</time>
      </trkpt>
      <trkpt lat="42.66933500000005" lon="-1.8594419999999998">
        <ele>468.010</ele>
        <time>2022-08-25T10:33:58Z</time>
      </trkpt>
      <trkpt lat="42.669343000000055" lon="-1.8594519999999999">
        <ele>468.013</ele>
        <time>2022-08-25T10:33:59Z</time>
      </trkpt>
      <trkpt lat="42.66935200000005" lon="-1.85947">
        <ele>468.079</ele>
        <time>2022-08-25T10:34:01Z</time>
      </trkpt>
      <trkpt lat="42.66935800000005" lon="-1.859494">
        <ele>468.020</ele>
        <time>2022-08-25T10:34:03Z</time>
      </trkpt>
      <trkpt lat="42.669337000000056" lon="-1.859564">
        <ele>467.028</ele>
        <time>2022-08-25T10:53:39Z</time>
      </trkpt>
      <trkpt lat="42.669303000000056" lon="-1.859685">
        <ele>466.289</ele>
        <time>2022-08-25T10:53:44Z</time>
      </trkpt>
      <trkpt lat="42.66930500000006" lon="-1.859707">
        <ele>466.017</ele>
        <time>2022-08-25T10:53:45Z</time>
      </trkpt>
      <trkpt lat="42.66929600000006" lon="-1.859722">
        <ele>465.409</ele>
        <time>2022-08-25T10:53:46Z</time>
      </trkpt>
      <trkpt lat="42.66927900000006" lon="-1.8597270000000001">
        <ele>465.483</ele>
        <time>2022-08-25T10:53:47Z</time>
      </trkpt>
      <trkpt lat="42.66926300000006" lon="-1.859706">
        <ele>465.053</ele>
        <time>2022-08-25T10:53:49Z</time>
      </trkpt>
      <trkpt lat="42.66926800000006" lon="-1.859699">
        <ele>465.033</ele>
        <time>2022-08-25T10:53:50Z</time>
      </trkpt>
      <trkpt lat="42.66927800000006" lon="-1.859699">
        <ele>465.049</ele>
        <time>2022-08-25T10:53:51Z</time>
      </trkpt>
      <trkpt lat="42.66929300000006" lon="-1.8597">
        <ele>465.051</ele>
        <time>2022-08-25T10:53:52Z</time>
      </trkpt>
      <trkpt lat="42.66931900000006" lon="-1.859696">
        <ele>465.218</ele>
        <time>2022-08-25T10:53:54Z</time>
      </trkpt>
      <trkpt lat="42.66932500000006" lon="-1.859696">
        <ele>465.261</ele>
        <time>2022-08-25T10:53:55Z</time>
      </trkpt>
      <trkpt lat="42.669332000000054" lon="-1.859695">
        <ele>465.227</ele>
        <time>2022-08-25T10:53:56Z</time>
      </trkpt>
      <trkpt lat="42.66933500000005" lon="-1.859688">
        <ele>465.478</ele>
        <time>2022-08-25T10:53:57Z</time>
      </trkpt>
      <trkpt lat="42.66933300000005" lon="-1.859683">
        <ele>465.434</ele>
        <time>2022-08-25T10:53:58Z</time>
      </trkpt>
      <trkpt lat="42.66933300000005" lon="-1.85968">
        <ele>465.655</ele>
        <time>2022-08-25T10:53:59Z</time>
      </trkpt>
      <trkpt lat="42.66934000000005" lon="-1.85967">
        <ele>465.810</ele>
        <time>2022-08-25T10:54:00Z</time>
      </trkpt>
      <trkpt lat="42.66934900000005" lon="-1.859657">
        <ele>465.809</ele>
        <time>2022-08-25T10:54:01Z</time>
      </trkpt>
      <trkpt lat="42.66936000000005" lon="-1.8596419999999998">
        <ele>466.244</ele>
        <time>2022-08-25T10:54:03Z</time>
      </trkpt>
      <trkpt lat="42.66936500000005" lon="-1.8596359999999998">
        <ele>466.224</ele>
        <time>2022-08-25T10:54:04Z</time>
      </trkpt>
      <trkpt lat="42.66937000000005" lon="-1.859632">
        <ele>466.434</ele>
        <time>2022-08-25T10:54:05Z</time>
      </trkpt>
      <trkpt lat="42.66932300000005" lon="-1.859685">
        <ele>466.640</ele>
        <time>2022-08-25T11:01:23Z</time>
      </trkpt>
      <trkpt lat="42.669296000000045" lon="-1.859737">
        <ele>466.442</ele>
        <time>2022-08-25T11:01:25Z</time>
      </trkpt>
      <trkpt lat="42.669291000000044" lon="-1.859783">
        <ele>466.439</ele>
        <time>2022-08-25T11:01:26Z</time>
      </trkpt>
      <trkpt lat="42.66929200000004" lon="-1.859837">
        <ele>466.232</ele>
        <time>2022-08-25T11:01:27Z</time>
      </trkpt>
      <trkpt lat="42.66929200000004" lon="-1.8598949999999999">
        <ele>466.048</ele>
        <time>2022-08-25T11:01:28Z</time>
      </trkpt>
      <trkpt lat="42.66928900000004" lon="-1.8599519999999998">
        <ele>465.879</ele>
        <time>2022-08-25T11:01:29Z</time>
      </trkpt>
      <trkpt lat="42.66928300000004" lon="-1.8600639999999997">
        <ele>465.271</ele>
        <time>2022-08-25T11:01:31Z</time>
      </trkpt>
      <trkpt lat="42.66927800000004" lon="-1.8601159999999997">
        <ele>464.641</ele>
        <time>2022-08-25T11:01:32Z</time>
      </trkpt>
      <trkpt lat="42.66925800000004" lon="-1.8602719999999997">
        <ele>463.815</ele>
        <time>2022-08-25T11:01:35Z</time>
      </trkpt>
      <trkpt lat="42.66924900000004" lon="-1.8603259999999997">
        <ele>463.609</ele>
        <time>2022-08-25T11:01:36Z</time>
      </trkpt>
      <trkpt lat="42.66923800000004" lon="-1.8603799999999997">
        <ele>463.048</ele>
        <time>2022-08-25T11:01:37Z</time>
      </trkpt>
      <trkpt lat="42.669226000000045" lon="-1.8604299999999998">
        <ele>462.848</ele>
        <time>2022-08-25T11:01:38Z</time>
      </trkpt>
      <trkpt lat="42.66921100000005" lon="-1.8604749999999999">
        <ele>462.428</ele>
        <time>2022-08-25T11:01:39Z</time>
      </trkpt>
      <trkpt lat="42.669198000000044" lon="-1.8605219999999998">
        <ele>462.214</ele>
        <time>2022-08-25T11:01:40Z</time>
      </trkpt>
      <trkpt lat="42.66919000000004" lon="-1.8605739999999997">
        <ele>462.086</ele>
        <time>2022-08-25T11:01:41Z</time>
      </trkpt>
      <trkpt lat="42.66918300000005" lon="-1.8606829999999996">
        <ele>461.683</ele>
        <time>2022-08-25T11:01:43Z</time>
      </trkpt>
      <trkpt lat="42.669181000000044" lon="-1.8607349999999996">
        <ele>460.896</ele>
        <time>2022-08-25T11:01:44Z</time>
      </trkpt>
      <trkpt lat="42.66917300000004" lon="-1.8607799999999997">
        <ele>460.432</ele>
        <time>2022-08-25T11:01:45Z</time>
      </trkpt>
      <trkpt lat="42.66916200000004" lon="-1.8608229999999997">
        <ele>459.693</ele>
        <time>2022-08-25T11:01:46Z</time>
      </trkpt>
      <trkpt lat="42.669156000000044" lon="-1.8608639999999996">
        <ele>459.074</ele>
        <time>2022-08-25T11:01:47Z</time>
      </trkpt>
      <trkpt lat="42.66915400000004" lon="-1.8609049999999996">
        <ele>458.856</ele>
        <time>2022-08-25T11:01:48Z</time>
      </trkpt>
      <trkpt lat="42.66915500000004" lon="-1.8609319999999996">
        <ele>458.421</ele>
        <time>2022-08-25T11:01:49Z</time>
      </trkpt>
      <trkpt lat="42.66915400000004" lon="-1.8609679999999995">
        <ele>458.009</ele>
        <time>2022-08-25T11:01:50Z</time>
      </trkpt>
      <trkpt lat="42.66915500000004" lon="-1.8610059999999995">
        <ele>457.868</ele>
        <time>2022-08-25T11:01:51Z</time>
      </trkpt>
      <trkpt lat="42.66915000000004" lon="-1.8610419999999994">
        <ele>457.848</ele>
        <time>2022-08-25T11:01:52Z</time>
      </trkpt>
      <trkpt lat="42.66915000000004" lon="-1.8610859999999994">
        <ele>457.448</ele>
        <time>2022-08-25T11:01:53Z</time>
      </trkpt>
      <trkpt lat="42.669151000000035" lon="-1.8611189999999993">
        <ele>456.824</ele>
        <time>2022-08-25T11:01:54Z</time>
      </trkpt>
      <trkpt lat="42.66915500000003" lon="-1.8611509999999993">
        <ele>456.676</ele>
        <time>2022-08-25T11:01:55Z</time>
      </trkpt>
      <trkpt lat="42.66916300000003" lon="-1.8612579999999994">
        <ele>455.653</ele>
        <time>2022-08-25T11:01:58Z</time>
      </trkpt>
      <trkpt lat="42.66916400000003" lon="-1.8612799999999994">
        <ele>455.486</ele>
        <time>2022-08-25T11:01:59Z</time>
      </trkpt>
      <trkpt lat="42.66916700000003" lon="-1.8613439999999994">
        <ele>454.682</ele>
        <time>2022-08-25T11:02:01Z</time>
      </trkpt>
      <trkpt lat="42.66917700000003" lon="-1.8614219999999995">
        <ele>454.073</ele>
        <time>2022-08-25T11:02:03Z</time>
      </trkpt>
      <trkpt lat="42.669171000000034" lon="-1.8614989999999996">
        <ele>453.616</ele>
        <time>2022-08-25T11:02:05Z</time>
      </trkpt>
      <trkpt lat="42.66916000000003" lon="-1.8615409999999997">
        <ele>453.476</ele>
        <time>2022-08-25T11:02:06Z</time>
      </trkpt>
      <trkpt lat="42.669159000000036" lon="-1.8615629999999996">
        <ele>453.013</ele>
        <time>2022-08-25T11:02:07Z</time>
      </trkpt>
      <trkpt lat="42.669143000000034" lon="-1.8616279999999996">
        <ele>452.209</ele>
        <time>2022-08-25T11:02:09Z</time>
      </trkpt>
      <trkpt lat="42.669027000000035" lon="-1.8618619999999997">
        <ele>451.272</ele>
        <time>2022-08-25T11:02:15Z</time>
      </trkpt>
      <trkpt lat="42.668977000000034" lon="-1.8619319999999997">
        <ele>450.882</ele>
        <time>2022-08-25T11:02:17Z</time>
      </trkpt>
      <trkpt lat="42.66895000000003" lon="-1.8620269999999997">
        <ele>450.642</ele>
        <time>2022-08-25T11:02:19Z</time>
      </trkpt>
      <trkpt lat="42.66894400000003" lon="-1.8620729999999996">
        <ele>450.438</ele>
        <time>2022-08-25T11:02:20Z</time>
      </trkpt>
      <trkpt lat="42.66893900000003" lon="-1.8621169999999996">
        <ele>450.460</ele>
        <time>2022-08-25T11:02:21Z</time>
      </trkpt>
      <trkpt lat="42.66894000000003" lon="-1.8621549999999996">
        <ele>450.287</ele>
        <time>2022-08-25T11:02:22Z</time>
      </trkpt>
      <trkpt lat="42.668944000000025" lon="-1.8621809999999996">
        <ele>450.220</ele>
        <time>2022-08-25T11:02:23Z</time>
      </trkpt>
      <trkpt lat="42.66894800000002" lon="-1.8621979999999996">
        <ele>450.066</ele>
        <time>2022-08-25T11:02:24Z</time>
      </trkpt>
      <trkpt lat="42.66895700000002" lon="-1.8622079999999996">
        <ele>450.027</ele>
        <time>2022-08-25T11:02:25Z</time>
      </trkpt>
      <trkpt lat="42.66897100000002" lon="-1.8622119999999995">
        <ele>449.823</ele>
        <time>2022-08-25T11:02:26Z</time>
      </trkpt>
      <trkpt lat="42.66898600000002" lon="-1.8622199999999995">
        <ele>449.883</ele>
        <time>2022-08-25T11:02:27Z</time>
      </trkpt>
      <trkpt lat="42.669001000000016" lon="-1.8622229999999995">
        <ele>449.811</ele>
        <time>2022-08-25T11:02:28Z</time>
      </trkpt>
      <trkpt lat="42.66902500000002" lon="-1.8622209999999995">
        <ele>449.609</ele>
        <time>2022-08-25T11:02:30Z</time>
      </trkpt>
      <trkpt lat="42.66903900000002" lon="-1.8622139999999994">
        <ele>449.463</ele>
        <time>2022-08-25T11:02:32Z</time>
      </trkpt>
      <trkpt lat="42.66905200000002" lon="-1.8622239999999994">
        <ele>449.293</ele>
        <time>2022-08-25T11:02:33Z</time>
      </trkpt>
      <trkpt lat="42.669071000000024" lon="-1.8622389999999995">
        <ele>449.413</ele>
        <time>2022-08-25T11:02:34Z</time>
      </trkpt>
      <trkpt lat="42.669084000000026" lon="-1.8622459999999996">
        <ele>449.279</ele>
        <time>2022-08-25T11:02:35Z</time>
      </trkpt>
      <trkpt lat="42.66909800000003" lon="-1.8622519999999996">
        <ele>449.251</ele>
        <time>2022-08-25T11:02:36Z</time>
      </trkpt>
      <trkpt lat="42.66910900000003" lon="-1.8622599999999996">
        <ele>449.268</ele>
        <time>2022-08-25T11:02:37Z</time>
      </trkpt>
      <trkpt lat="42.66911900000003" lon="-1.8622709999999996">
        <ele>449.081</ele>
        <time>2022-08-25T11:02:38Z</time>
      </trkpt>
      <trkpt lat="42.66913100000003" lon="-1.8622849999999995">
        <ele>449.077</ele>
        <time>2022-08-25T11:02:39Z</time>
      </trkpt>
      <trkpt lat="42.66914700000003" lon="-1.8622969999999994">
        <ele>449.058</ele>
        <time>2022-08-25T11:02:40Z</time>
      </trkpt>
      <trkpt lat="42.66917600000003" lon="-1.8623169999999993">
        <ele>448.825</ele>
        <time>2022-08-25T11:02:42Z</time>
      </trkpt>
      <trkpt lat="42.66918700000003" lon="-1.8623369999999992">
        <ele>449.026</ele>
        <time>2022-08-25T11:02:43Z</time>
      </trkpt>
      <trkpt lat="42.66919000000003" lon="-1.8623519999999993">
        <ele>449.008</ele>
        <time>2022-08-25T11:02:44Z</time>
      </trkpt>
      <trkpt lat="42.66919000000003" lon="-1.8623679999999994">
        <ele>449.209</ele>
        <time>2022-08-25T11:02:45Z</time>
      </trkpt>
      <trkpt lat="42.66918700000003" lon="-1.8623799999999993">
        <ele>449.253</ele>
        <time>2022-08-25T11:02:46Z</time>
      </trkpt>
      <trkpt lat="42.66913000000003" lon="-1.8623889999999992">
        <ele>449.243</ele>
        <time>2022-08-25T11:02:49Z</time>
      </trkpt>
      <trkpt lat="42.66910700000003" lon="-1.8623959999999993">
        <ele>449.223</ele>
        <time>2022-08-25T11:02:50Z</time>
      </trkpt>
      <trkpt lat="42.66908400000003" lon="-1.8624059999999993">
        <ele>449.259</ele>
        <time>2022-08-25T11:02:51Z</time>
      </trkpt>
      <trkpt lat="42.66906300000004" lon="-1.8624159999999994">
        <ele>449.421</ele>
        <time>2022-08-25T11:02:52Z</time>
      </trkpt>
      <trkpt lat="42.66899400000003" lon="-1.8624419999999995">
        <ele>449.268</ele>
        <time>2022-08-25T11:02:55Z</time>
      </trkpt>
      <trkpt lat="42.668976000000036" lon="-1.8624789999999996">
        <ele>449.021</ele>
        <time>2022-08-25T11:02:57Z</time>
      </trkpt>
      <trkpt lat="42.668962000000036" lon="-1.8625069999999995">
        <ele>449.047</ele>
        <time>2022-08-25T11:02:58Z</time>
      </trkpt>
      <trkpt lat="42.66894400000004" lon="-1.8625549999999995">
        <ele>449.048</ele>
        <time>2022-08-25T11:02:59Z</time>
      </trkpt>
      <trkpt lat="42.66893700000004" lon="-1.8625989999999994">
        <ele>449.019</ele>
        <time>2022-08-25T11:03:00Z</time>
      </trkpt>
      <trkpt lat="42.668936000000045" lon="-1.8626419999999995">
        <ele>449.009</ele>
        <time>2022-08-25T11:03:01Z</time>
      </trkpt>
      <trkpt lat="42.66893700000004" lon="-1.8626809999999994">
        <ele>448.819</ele>
        <time>2022-08-25T11:03:02Z</time>
      </trkpt>
      <trkpt lat="42.668936000000045" lon="-1.8627169999999993">
        <ele>448.809</ele>
        <time>2022-08-25T11:03:03Z</time>
      </trkpt>
      <trkpt lat="42.668936000000045" lon="-1.8627499999999992">
        <ele>448.812</ele>
        <time>2022-08-25T11:03:04Z</time>
      </trkpt>
      <trkpt lat="42.66893800000005" lon="-1.8627819999999993">
        <ele>448.832</ele>
        <time>2022-08-25T11:03:05Z</time>
      </trkpt>
      <trkpt lat="42.66893500000005" lon="-1.8628149999999992">
        <ele>448.832</ele>
        <time>2022-08-25T11:03:06Z</time>
      </trkpt>
      <trkpt lat="42.668933000000045" lon="-1.8628499999999992">
        <ele>448.888</ele>
        <time>2022-08-25T11:03:07Z</time>
      </trkpt>
      <trkpt lat="42.668928000000044" lon="-1.8629829999999992">
        <ele>449.030</ele>
        <time>2022-08-25T11:03:11Z</time>
      </trkpt>
      <trkpt lat="42.668922000000045" lon="-1.8630779999999991">
        <ele>449.087</ele>
        <time>2022-08-25T11:03:14Z</time>
      </trkpt>
      <trkpt lat="42.66891800000005" lon="-1.8631039999999992">
        <ele>449.080</ele>
        <time>2022-08-25T11:03:15Z</time>
      </trkpt>
      <trkpt lat="42.66891100000005" lon="-1.8631219999999993">
        <ele>449.036</ele>
        <time>2022-08-25T11:03:16Z</time>
      </trkpt>
      <trkpt lat="42.66890800000005" lon="-1.8631339999999992">
        <ele>449.087</ele>
        <time>2022-08-25T11:03:17Z</time>
      </trkpt>
      <trkpt lat="42.66890600000005" lon="-1.8631439999999992">
        <ele>449.032</ele>
        <time>2022-08-25T11:03:19Z</time>
      </trkpt>
      <trkpt lat="42.66890600000005" lon="-1.8631499999999992">
        <ele>449.092</ele>
        <time>2022-08-25T11:03:20Z</time>
      </trkpt>
      <trkpt lat="42.66891100000005" lon="-1.8631819999999992">
        <ele>448.811</ele>
        <time>2022-08-25T11:03:30Z</time>
      </trkpt>
      <trkpt lat="42.66891400000005" lon="-1.8632069999999992">
        <ele>448.809</ele>
        <time>2022-08-25T11:03:31Z</time>
      </trkpt>
      <trkpt lat="42.66890900000005" lon="-1.8632469999999992">
        <ele>448.844</ele>
        <time>2022-08-25T11:03:33Z</time>
      </trkpt>
      <trkpt lat="42.66890900000005" lon="-1.863250999999999">
        <ele>448.884</ele>
        <time>2022-08-25T11:03:40Z</time>
      </trkpt>
      <trkpt lat="42.66890900000005" lon="-1.863250999999999">
        <ele>448.864</ele>
        <time>2022-08-25T11:03:41Z</time>
      </trkpt>
      <trkpt lat="42.66888700000005" lon="-1.863310999999999">
        <ele>448.660</ele>
        <time>2022-08-25T11:03:45Z</time>
      </trkpt>
      <trkpt lat="42.66886700000005" lon="-1.863330999999999">
        <ele>448.612</ele>
        <time>2022-08-25T11:03:46Z</time>
      </trkpt>
      <trkpt lat="42.66884800000005" lon="-1.8633889999999989">
        <ele>448.619</ele>
        <time>2022-08-25T11:03:48Z</time>
      </trkpt>
      <trkpt lat="42.66885300000005" lon="-1.863425999999999">
        <ele>448.632</ele>
        <time>2022-08-25T11:03:49Z</time>
      </trkpt>
      <trkpt lat="42.66886100000005" lon="-1.863462999999999">
        <ele>448.628</ele>
        <time>2022-08-25T11:03:50Z</time>
      </trkpt>
      <trkpt lat="42.66886900000005" lon="-1.8634939999999989">
        <ele>448.639</ele>
        <time>2022-08-25T11:03:51Z</time>
      </trkpt>
      <trkpt lat="42.66887300000005" lon="-1.863522999999999">
        <ele>448.686</ele>
        <time>2022-08-25T11:03:52Z</time>
      </trkpt>
      <trkpt lat="42.668880000000044" lon="-1.863548999999999">
        <ele>448.660</ele>
        <time>2022-08-25T11:03:53Z</time>
      </trkpt>
      <trkpt lat="42.66888600000004" lon="-1.863569999999999">
        <ele>448.626</ele>
        <time>2022-08-25T11:03:54Z</time>
      </trkpt>
      <trkpt lat="42.668891000000045" lon="-1.8635959999999991">
        <ele>448.609</ele>
        <time>2022-08-25T11:03:55Z</time>
      </trkpt>
      <trkpt lat="42.668888000000045" lon="-1.863615999999999">
        <ele>448.669</ele>
        <time>2022-08-25T11:03:56Z</time>
      </trkpt>
      <trkpt lat="42.66888600000004" lon="-1.863620999999999">
        <ele>448.649</ele>
        <time>2022-08-25T11:03:57Z</time>
      </trkpt>
      <trkpt lat="42.66886900000004" lon="-1.863626999999999">
        <ele>448.439</ele>
        <time>2022-08-25T11:04:04Z</time>
      </trkpt>
      <trkpt lat="42.66886900000004" lon="-1.863626999999999">
        <ele>448.265</ele>
        <time>2022-08-25T11:04:05Z</time>
      </trkpt>
      <trkpt lat="42.66886100000004" lon="-1.863654999999999">
        <ele>448.247</ele>
        <time>2022-08-25T11:04:07Z</time>
      </trkpt>
      <trkpt lat="42.66886200000004" lon="-1.863662999999999">
        <ele>448.484</ele>
        <time>2022-08-25T11:04:08Z</time>
      </trkpt>
      <trkpt lat="42.66886500000004" lon="-1.8636669999999989">
        <ele>448.447</ele>
        <time>2022-08-25T11:04:09Z</time>
      </trkpt>
      <trkpt lat="42.66886500000004" lon="-1.8636669999999989">
        <ele>448.433</ele>
        <time>2022-08-25T11:04:10Z</time>
      </trkpt>
      <trkpt lat="42.66886500000004" lon="-1.8636669999999989">
        <ele>448.244</ele>
        <time>2022-08-25T11:04:11Z</time>
      </trkpt>
      <trkpt lat="42.66886300000004" lon="-1.8636679999999988">
        <ele>448.268</ele>
        <time>2022-08-25T11:04:12Z</time>
      </trkpt>
      <trkpt lat="42.668839000000034" lon="-1.8636789999999988">
        <ele>448.442</ele>
        <time>2022-08-25T11:04:13Z</time>
      </trkpt>
      <trkpt lat="42.66876900000003" lon="-1.8637029999999988">
        <ele>448.426</ele>
        <time>2022-08-25T11:04:16Z</time>
      </trkpt>
      <trkpt lat="42.66877000000003" lon="-1.8637299999999988">
        <ele>448.409</ele>
        <time>2022-08-25T11:04:17Z</time>
      </trkpt>
      <trkpt lat="42.66877100000003" lon="-1.8637579999999987">
        <ele>448.427</ele>
        <time>2022-08-25T11:04:18Z</time>
      </trkpt>
      <trkpt lat="42.66877400000003" lon="-1.8637879999999987">
        <ele>448.417</ele>
        <time>2022-08-25T11:04:19Z</time>
      </trkpt>
      <trkpt lat="42.66877100000003" lon="-1.8638469999999987">
        <ele>448.467</ele>
        <time>2022-08-25T11:04:20Z</time>
      </trkpt>
      <trkpt lat="42.66876200000003" lon="-1.8638779999999986">
        <ele>448.483</ele>
        <time>2022-08-25T11:04:21Z</time>
      </trkpt>
      <trkpt lat="42.66875300000003" lon="-1.8639009999999987">
        <ele>448.465</ele>
        <time>2022-08-25T11:04:22Z</time>
      </trkpt>
      <trkpt lat="42.66875300000003" lon="-1.8639119999999987">
        <ele>448.462</ele>
        <time>2022-08-25T11:04:23Z</time>
      </trkpt>
      <trkpt lat="42.66875200000003" lon="-1.8639189999999988">
        <ele>448.455</ele>
        <time>2022-08-25T11:04:24Z</time>
      </trkpt>
      <trkpt lat="42.66875200000003" lon="-1.8639259999999989">
        <ele>448.461</ele>
        <time>2022-08-25T11:04:25Z</time>
      </trkpt>
      <trkpt lat="42.668754000000035" lon="-1.8639269999999988">
        <ele>448.472</ele>
        <time>2022-08-25T11:04:26Z</time>
      </trkpt>
      <trkpt lat="42.668748000000036" lon="-1.8639369999999988">
        <ele>448.465</ele>
        <time>2022-08-25T11:04:29Z</time>
      </trkpt>
      <trkpt lat="42.668712000000035" lon="-1.864013999999999">
        <ele>448.468</ele>
        <time>2022-08-25T11:04:33Z</time>
      </trkpt>
      <trkpt lat="42.66870700000003" lon="-1.8640449999999988">
        <ele>448.414</ele>
        <time>2022-08-25T11:04:34Z</time>
      </trkpt>
      <trkpt lat="42.66871100000003" lon="-1.8641919999999987">
        <ele>448.409</ele>
        <time>2022-08-25T11:04:38Z</time>
      </trkpt>
      <trkpt lat="42.66872000000003" lon="-1.8643049999999988">
        <ele>448.647</ele>
        <time>2022-08-25T11:04:41Z</time>
      </trkpt>
      <trkpt lat="42.66873300000003" lon="-1.8643649999999987">
        <ele>448.877</ele>
        <time>2022-08-25T11:04:42Z</time>
      </trkpt>
      <trkpt lat="42.668746000000034" lon="-1.8644029999999987">
        <ele>448.867</ele>
        <time>2022-08-25T11:04:43Z</time>
      </trkpt>
      <trkpt lat="42.66875900000004" lon="-1.8644319999999988">
        <ele>448.873</ele>
        <time>2022-08-25T11:04:44Z</time>
      </trkpt>
      <trkpt lat="42.66876400000004" lon="-1.8644689999999988">
        <ele>448.885</ele>
        <time>2022-08-25T11:04:45Z</time>
      </trkpt>
      <trkpt lat="42.66877200000004" lon="-1.8645059999999989">
        <ele>449.052</ele>
        <time>2022-08-25T11:04:46Z</time>
      </trkpt>
      <trkpt lat="42.66876900000004" lon="-1.8645329999999989">
        <ele>449.015</ele>
        <time>2022-08-25T11:04:47Z</time>
      </trkpt>
      <trkpt lat="42.66875700000004" lon="-1.8645519999999989">
        <ele>449.021</ele>
        <time>2022-08-25T11:04:48Z</time>
      </trkpt>
      <trkpt lat="42.66873300000004" lon="-1.8645789999999989">
        <ele>449.022</ele>
        <time>2022-08-25T11:04:49Z</time>
      </trkpt>
      <trkpt lat="42.66872500000004" lon="-1.864607999999999">
        <ele>449.268</ele>
        <time>2022-08-25T11:04:50Z</time>
      </trkpt>
      <trkpt lat="42.66872100000004" lon="-1.8646389999999988">
        <ele>449.242</ele>
        <time>2022-08-25T11:04:51Z</time>
      </trkpt>
      <trkpt lat="42.66871900000004" lon="-1.8646699999999987">
        <ele>449.226</ele>
        <time>2022-08-25T11:04:52Z</time>
      </trkpt>
      <trkpt lat="42.66871800000004" lon="-1.8647029999999987">
        <ele>449.209</ele>
        <time>2022-08-25T11:04:53Z</time>
      </trkpt>
      <trkpt lat="42.668714000000044" lon="-1.8648859999999987">
        <ele>449.047</ele>
        <time>2022-08-25T11:04:57Z</time>
      </trkpt>
      <trkpt lat="42.66873200000004" lon="-1.8651639999999987">
        <ele>448.887</ele>
        <time>2022-08-25T11:05:03Z</time>
      </trkpt>
      <trkpt lat="42.66873700000004" lon="-1.8652099999999987">
        <ele>448.867</ele>
        <time>2022-08-25T11:05:04Z</time>
      </trkpt>
      <trkpt lat="42.66874000000004" lon="-1.8652559999999987">
        <ele>448.893</ele>
        <time>2022-08-25T11:05:05Z</time>
      </trkpt>
      <trkpt lat="42.668742000000044" lon="-1.8652999999999986">
        <ele>448.645</ele>
        <time>2022-08-25T11:05:06Z</time>
      </trkpt>
      <trkpt lat="42.668745000000044" lon="-1.8653439999999986">
        <ele>448.642</ele>
        <time>2022-08-25T11:05:07Z</time>
      </trkpt>
      <trkpt lat="42.66875100000004" lon="-1.8653869999999986">
        <ele>448.685</ele>
        <time>2022-08-25T11:05:08Z</time>
      </trkpt>
      <trkpt lat="42.66875800000004" lon="-1.8654279999999985">
        <ele>448.661</ele>
        <time>2022-08-25T11:05:09Z</time>
      </trkpt>
      <trkpt lat="42.668765000000036" lon="-1.8654699999999986">
        <ele>448.662</ele>
        <time>2022-08-25T11:05:10Z</time>
      </trkpt>
      <trkpt lat="42.668774000000035" lon="-1.8655559999999987">
        <ele>448.662</ele>
        <time>2022-08-25T11:05:12Z</time>
      </trkpt>
      <trkpt lat="42.66877800000003" lon="-1.8655999999999986">
        <ele>448.683</ele>
        <time>2022-08-25T11:05:13Z</time>
      </trkpt>
      <trkpt lat="42.66878300000003" lon="-1.8656409999999986">
        <ele>448.611</ele>
        <time>2022-08-25T11:05:14Z</time>
      </trkpt>
      <trkpt lat="42.668788000000035" lon="-1.8656829999999986">
        <ele>448.809</ele>
        <time>2022-08-25T11:05:15Z</time>
      </trkpt>
      <trkpt lat="42.668794000000034" lon="-1.8657239999999986">
        <ele>448.887</ele>
        <time>2022-08-25T11:05:16Z</time>
      </trkpt>
      <trkpt lat="42.66880000000003" lon="-1.8657619999999986">
        <ele>448.897</ele>
        <time>2022-08-25T11:05:17Z</time>
      </trkpt>
      <trkpt lat="42.668805000000035" lon="-1.8657999999999986">
        <ele>448.847</ele>
        <time>2022-08-25T11:05:18Z</time>
      </trkpt>
      <trkpt lat="42.668811000000034" lon="-1.8658329999999985">
        <ele>449.093</ele>
        <time>2022-08-25T11:05:19Z</time>
      </trkpt>
      <trkpt lat="42.66881700000003" lon="-1.8658669999999986">
        <ele>449.065</ele>
        <time>2022-08-25T11:05:20Z</time>
      </trkpt>
      <trkpt lat="42.668822000000034" lon="-1.8659029999999985">
        <ele>449.232</ele>
        <time>2022-08-25T11:05:21Z</time>
      </trkpt>
      <trkpt lat="42.66882600000003" lon="-1.8659399999999986">
        <ele>449.295</ele>
        <time>2022-08-25T11:05:22Z</time>
      </trkpt>
      <trkpt lat="42.66883000000003" lon="-1.8659749999999986">
        <ele>449.471</ele>
        <time>2022-08-25T11:05:23Z</time>
      </trkpt>
      <trkpt lat="42.66883500000003" lon="-1.8660089999999987">
        <ele>449.462</ele>
        <time>2022-08-25T11:05:24Z</time>
      </trkpt>
      <trkpt lat="42.66884100000003" lon="-1.8660429999999988">
        <ele>449.647</ele>
        <time>2022-08-25T11:05:25Z</time>
      </trkpt>
      <trkpt lat="42.66885300000003" lon="-1.8661109999999987">
        <ele>449.829</ele>
        <time>2022-08-25T11:05:27Z</time>
      </trkpt>
      <trkpt lat="42.668859000000026" lon="-1.8661429999999988">
        <ele>450.021</ele>
        <time>2022-08-25T11:05:28Z</time>
      </trkpt>
      <trkpt lat="42.66886700000003" lon="-1.8662099999999988">
        <ele>450.209</ele>
        <time>2022-08-25T11:05:30Z</time>
      </trkpt>
      <trkpt lat="42.66886900000003" lon="-1.8662419999999988">
        <ele>450.225</ele>
        <time>2022-08-25T11:05:31Z</time>
      </trkpt>
      <trkpt lat="42.66887200000003" lon="-1.866270999999999">
        <ele>450.255</ele>
        <time>2022-08-25T11:05:32Z</time>
      </trkpt>
      <trkpt lat="42.66887500000003" lon="-1.866299999999999">
        <ele>450.425</ele>
        <time>2022-08-25T11:05:33Z</time>
      </trkpt>
      <trkpt lat="42.66887800000003" lon="-1.8663309999999989">
        <ele>450.681</ele>
        <time>2022-08-25T11:05:34Z</time>
      </trkpt>
      <trkpt lat="42.66889200000003" lon="-1.8664199999999989">
        <ele>450.873</ele>
        <time>2022-08-25T11:05:37Z</time>
      </trkpt>
      <trkpt lat="42.66889700000003" lon="-1.8664469999999989">
        <ele>451.080</ele>
        <time>2022-08-25T11:05:38Z</time>
      </trkpt>
      <trkpt lat="42.66890100000003" lon="-1.866475999999999">
        <ele>451.233</ele>
        <time>2022-08-25T11:05:39Z</time>
      </trkpt>
      <trkpt lat="42.66890300000003" lon="-1.8665059999999989">
        <ele>451.259</ele>
        <time>2022-08-25T11:05:40Z</time>
      </trkpt>
      <trkpt lat="42.668907000000026" lon="-1.866534999999999">
        <ele>451.240</ele>
        <time>2022-08-25T11:05:41Z</time>
      </trkpt>
      <trkpt lat="42.668913000000025" lon="-1.866560999999999">
        <ele>451.459</ele>
        <time>2022-08-25T11:05:42Z</time>
      </trkpt>
      <trkpt lat="42.668918000000026" lon="-1.866586999999999">
        <ele>451.403</ele>
        <time>2022-08-25T11:05:43Z</time>
      </trkpt>
      <trkpt lat="42.66892300000003" lon="-1.8666129999999992">
        <ele>451.423</ele>
        <time>2022-08-25T11:05:44Z</time>
      </trkpt>
      <trkpt lat="42.668930000000024" lon="-1.8666899999999993">
        <ele>451.609</ele>
        <time>2022-08-25T11:05:47Z</time>
      </trkpt>
      <trkpt lat="42.66893400000002" lon="-1.8667719999999992">
        <ele>452.246</ele>
        <time>2022-08-25T11:05:50Z</time>
      </trkpt>
      <trkpt lat="42.66893600000002" lon="-1.8667989999999992">
        <ele>452.426</ele>
        <time>2022-08-25T11:05:51Z</time>
      </trkpt>
      <trkpt lat="42.66894300000002" lon="-1.8668489999999993">
        <ele>453.036</ele>
        <time>2022-08-25T11:05:53Z</time>
      </trkpt>
      <trkpt lat="42.66894600000002" lon="-1.8668719999999994">
        <ele>453.072</ele>
        <time>2022-08-25T11:05:54Z</time>
      </trkpt>
      <trkpt lat="42.66895100000002" lon="-1.8668959999999994">
        <ele>453.074</ele>
        <time>2022-08-25T11:05:55Z</time>
      </trkpt>
      <trkpt lat="42.66895300000002" lon="-1.8669199999999995">
        <ele>453.261</ele>
        <time>2022-08-25T11:05:56Z</time>
      </trkpt>
      <trkpt lat="42.668955000000025" lon="-1.8669429999999996">
        <ele>453.614</ele>
        <time>2022-08-25T11:05:57Z</time>
      </trkpt>
      <trkpt lat="42.66895900000002" lon="-1.8669669999999996">
        <ele>453.890</ele>
        <time>2022-08-25T11:05:58Z</time>
      </trkpt>
      <trkpt lat="42.66896300000002" lon="-1.8669909999999996">
        <ele>453.851</ele>
        <time>2022-08-25T11:05:59Z</time>
      </trkpt>
      <trkpt lat="42.66896500000002" lon="-1.8670139999999997">
        <ele>454.255</ele>
        <time>2022-08-25T11:06:00Z</time>
      </trkpt>
      <trkpt lat="42.66897000000002" lon="-1.8670389999999997">
        <ele>454.207</ele>
        <time>2022-08-25T11:06:01Z</time>
      </trkpt>
      <trkpt lat="42.66897400000002" lon="-1.8670639999999996">
        <ele>454.417</ele>
        <time>2022-08-25T11:06:02Z</time>
      </trkpt>
      <trkpt lat="42.66897800000002" lon="-1.8670859999999996">
        <ele>454.409</ele>
        <time>2022-08-25T11:06:03Z</time>
      </trkpt>
      <trkpt lat="42.668982000000014" lon="-1.8671089999999997">
        <ele>454.676</ele>
        <time>2022-08-25T11:06:04Z</time>
      </trkpt>
      <trkpt lat="42.66898600000001" lon="-1.8671339999999996">
        <ele>454.626</ele>
        <time>2022-08-25T11:06:05Z</time>
      </trkpt>
      <trkpt lat="42.66899000000001" lon="-1.8671579999999997">
        <ele>454.856</ele>
        <time>2022-08-25T11:06:06Z</time>
      </trkpt>
      <trkpt lat="42.66899500000001" lon="-1.8671819999999997">
        <ele>455.072</ele>
        <time>2022-08-25T11:06:07Z</time>
      </trkpt>
      <trkpt lat="42.66899800000001" lon="-1.8672029999999997">
        <ele>455.094</ele>
        <time>2022-08-25T11:06:08Z</time>
      </trkpt>
      <trkpt lat="42.66899900000001" lon="-1.8672259999999998">
        <ele>455.441</ele>
        <time>2022-08-25T11:06:09Z</time>
      </trkpt>
      <trkpt lat="42.66900100000001" lon="-1.867249">
        <ele>455.654</ele>
        <time>2022-08-25T11:06:10Z</time>
      </trkpt>
      <trkpt lat="42.66900300000001" lon="-1.867273">
        <ele>455.820</ele>
        <time>2022-08-25T11:06:11Z</time>
      </trkpt>
      <trkpt lat="42.66900600000001" lon="-1.867296">
        <ele>456.081</ele>
        <time>2022-08-25T11:06:12Z</time>
      </trkpt>
      <trkpt lat="42.66901100000001" lon="-1.867318">
        <ele>456.073</ele>
        <time>2022-08-25T11:06:13Z</time>
      </trkpt>
      <trkpt lat="42.66901600000001" lon="-1.867343">
        <ele>456.285</ele>
        <time>2022-08-25T11:06:14Z</time>
      </trkpt>
      <trkpt lat="42.669021000000015" lon="-1.867366">
        <ele>456.213</ele>
        <time>2022-08-25T11:06:15Z</time>
      </trkpt>
      <trkpt lat="42.669027000000014" lon="-1.86739">
        <ele>456.209</ele>
        <time>2022-08-25T11:06:16Z</time>
      </trkpt>
      <trkpt lat="42.66903100000001" lon="-1.8674140000000001">
        <ele>456.268</ele>
        <time>2022-08-25T11:06:17Z</time>
      </trkpt>
      <trkpt lat="42.66903600000001" lon="-1.8674400000000002">
        <ele>456.458</ele>
        <time>2022-08-25T11:06:18Z</time>
      </trkpt>
      <trkpt lat="42.66904000000001" lon="-1.8674670000000002">
        <ele>456.488</ele>
        <time>2022-08-25T11:06:19Z</time>
      </trkpt>
      <trkpt lat="42.66904400000001" lon="-1.8674960000000003">
        <ele>456.454</ele>
        <time>2022-08-25T11:06:20Z</time>
      </trkpt>
      <trkpt lat="42.669045000000004" lon="-1.8675220000000003">
        <ele>456.496</ele>
        <time>2022-08-25T11:06:21Z</time>
      </trkpt>
      <trkpt lat="42.669046" lon="-1.8675480000000004">
        <ele>456.663</ele>
        <time>2022-08-25T11:06:22Z</time>
      </trkpt>
      <trkpt lat="42.669049" lon="-1.8675750000000004">
        <ele>456.686</ele>
        <time>2022-08-25T11:06:23Z</time>
      </trkpt>
      <trkpt lat="42.669055" lon="-1.8676010000000005">
        <ele>456.612</ele>
        <time>2022-08-25T11:06:24Z</time>
      </trkpt>
      <trkpt lat="42.669064" lon="-1.8676290000000004">
        <ele>456.633</ele>
        <time>2022-08-25T11:06:25Z</time>
      </trkpt>
      <trkpt lat="42.669077" lon="-1.8676560000000004">
        <ele>456.698</ele>
        <time>2022-08-25T11:06:26Z</time>
      </trkpt>
      <trkpt lat="42.669090000000004" lon="-1.8676860000000004">
        <ele>456.615</ele>
        <time>2022-08-25T11:06:27Z</time>
      </trkpt>
      <trkpt lat="42.669102" lon="-1.8677280000000005">
        <ele>456.626</ele>
        <time>2022-08-25T11:06:28Z</time>
      </trkpt>
      <trkpt lat="42.669109" lon="-1.8677600000000005">
        <ele>456.609</ele>
        <time>2022-08-25T11:06:29Z</time>
      </trkpt>
      <trkpt lat="42.669114" lon="-1.8678080000000006">
        <ele>456.610</ele>
        <time>2022-08-25T11:06:30Z</time>
      </trkpt>
      <trkpt lat="42.669126" lon="-1.8678620000000006">
        <ele>456.690</ele>
        <time>2022-08-25T11:06:31Z</time>
      </trkpt>
      <trkpt lat="42.669183" lon="-1.8680360000000005">
        <ele>456.440</ele>
        <time>2022-08-25T11:06:34Z</time>
      </trkpt>
      <trkpt lat="42.669334" lon="-1.8685200000000004">
        <ele>455.456</ele>
        <time>2022-08-25T11:06:41Z</time>
      </trkpt>
      <trkpt lat="42.669368" lon="-1.8686790000000004">
        <ele>454.448</ele>
        <time>2022-08-25T11:06:43Z</time>
      </trkpt>
      <trkpt lat="42.669384" lon="-1.8687600000000004">
        <ele>454.295</ele>
        <time>2022-08-25T11:06:44Z</time>
      </trkpt>
      <trkpt lat="42.669401" lon="-1.8688580000000004">
        <ele>453.838</ele>
        <time>2022-08-25T11:06:45Z</time>
      </trkpt>
      <trkpt lat="42.669411000000004" lon="-1.8689220000000004">
        <ele>453.844</ele>
        <time>2022-08-25T11:06:46Z</time>
      </trkpt>
      <trkpt lat="42.66942100000001" lon="-1.8689980000000004">
        <ele>453.695</ele>
        <time>2022-08-25T11:06:47Z</time>
      </trkpt>
      <trkpt lat="42.669427000000006" lon="-1.8690690000000003">
        <ele>453.213</ele>
        <time>2022-08-25T11:06:48Z</time>
      </trkpt>
      <trkpt lat="42.669427000000006" lon="-1.8691360000000004">
        <ele>453.043</ele>
        <time>2022-08-25T11:06:49Z</time>
      </trkpt>
      <trkpt lat="42.669428" lon="-1.8692000000000004">
        <ele>453.007</ele>
        <time>2022-08-25T11:06:50Z</time>
      </trkpt>
      <trkpt lat="42.669426" lon="-1.8692610000000005">
        <ele>453.009</ele>
        <time>2022-08-25T11:06:51Z</time>
      </trkpt>
      <trkpt lat="42.669424" lon="-1.8693190000000004">
        <ele>453.472</ele>
        <time>2022-08-25T11:06:52Z</time>
      </trkpt>
      <trkpt lat="42.669424" lon="-1.8693770000000003">
        <ele>453.472</ele>
        <time>2022-08-25T11:06:53Z</time>
      </trkpt>
      <trkpt lat="42.669424" lon="-1.8694340000000003">
        <ele>453.482</ele>
        <time>2022-08-25T11:06:54Z</time>
      </trkpt>
      <trkpt lat="42.669425" lon="-1.8694890000000002">
        <ele>453.658</ele>
        <time>2022-08-25T11:06:55Z</time>
      </trkpt>
      <trkpt lat="42.66943" lon="-1.869544">
        <ele>454.080</ele>
        <time>2022-08-25T11:06:56Z</time>
      </trkpt>
      <trkpt lat="42.669430999999996" lon="-1.8695920000000001">
        <ele>454.087</ele>
        <time>2022-08-25T11:06:57Z</time>
      </trkpt>
      <trkpt lat="42.669422999999995" lon="-1.8696340000000002">
        <ele>454.080</ele>
        <time>2022-08-25T11:06:58Z</time>
      </trkpt>
      <trkpt lat="42.669411999999994" lon="-1.8696720000000002">
        <ele>454.236</ele>
        <time>2022-08-25T11:06:59Z</time>
      </trkpt>
      <trkpt lat="42.669397" lon="-1.8697070000000002">
        <ele>454.237</ele>
        <time>2022-08-25T11:07:00Z</time>
      </trkpt>
      <trkpt lat="42.669382999999996" lon="-1.8697430000000002">
        <ele>454.424</ele>
        <time>2022-08-25T11:07:01Z</time>
      </trkpt>
      <trkpt lat="42.669343999999995" lon="-1.8698910000000002">
        <ele>454.804</ele>
        <time>2022-08-25T11:07:04Z</time>
      </trkpt>
      <trkpt lat="42.66934" lon="-1.8700170000000003">
        <ele>455.214</ele>
        <time>2022-08-25T11:07:06Z</time>
      </trkpt>
      <trkpt lat="42.669346" lon="-1.8700740000000002">
        <ele>455.209</ele>
        <time>2022-08-25T11:07:07Z</time>
      </trkpt>
      <trkpt lat="42.669354" lon="-1.8701330000000003">
        <ele>455.473</ele>
        <time>2022-08-25T11:07:08Z</time>
      </trkpt>
      <trkpt lat="42.669377" lon="-1.8702390000000002">
        <ele>455.273</ele>
        <time>2022-08-25T11:07:10Z</time>
      </trkpt>
      <trkpt lat="42.669447" lon="-1.8704610000000002">
        <ele>455.073</ele>
        <time>2022-08-25T11:07:14Z</time>
      </trkpt>
      <trkpt lat="42.669509" lon="-1.8706330000000002">
        <ele>454.879</ele>
        <time>2022-08-25T11:07:17Z</time>
      </trkpt>
      <trkpt lat="42.66966" lon="-1.8710540000000002">
        <ele>454.231</ele>
        <time>2022-08-25T11:07:24Z</time>
      </trkpt>
      <trkpt lat="42.669799" lon="-1.8713720000000003">
        <ele>454.048</ele>
        <time>2022-08-25T11:07:29Z</time>
      </trkpt>
      <trkpt lat="42.669832" lon="-1.8714270000000002">
        <ele>454.071</ele>
        <time>2022-08-25T11:07:30Z</time>
      </trkpt>
      <trkpt lat="42.669864" lon="-1.8714790000000001">
        <ele>454.037</ele>
        <time>2022-08-25T11:07:31Z</time>
      </trkpt>
      <trkpt lat="42.669900999999996" lon="-1.871523">
        <ele>454.098</ele>
        <time>2022-08-25T11:07:32Z</time>
      </trkpt>
      <trkpt lat="42.669934999999995" lon="-1.871566">
        <ele>453.821</ele>
        <time>2022-08-25T11:07:33Z</time>
      </trkpt>
      <trkpt lat="42.669959" lon="-1.8716110000000001">
        <ele>453.641</ele>
        <time>2022-08-25T11:07:34Z</time>
      </trkpt>
      <trkpt lat="42.669975" lon="-1.8716620000000002">
        <ele>453.605</ele>
        <time>2022-08-25T11:07:35Z</time>
      </trkpt>
      <trkpt lat="42.669987" lon="-1.871717">
        <ele>453.609</ele>
        <time>2022-08-25T11:07:36Z</time>
      </trkpt>
      <trkpt lat="42.669997" lon="-1.871774">
        <ele>453.653</ele>
        <time>2022-08-25T11:07:37Z</time>
      </trkpt>
      <trkpt lat="42.670008" lon="-1.871833">
        <ele>453.283</ele>
        <time>2022-08-25T11:07:38Z</time>
      </trkpt>
      <trkpt lat="42.67002" lon="-1.87189">
        <ele>453.083</ele>
        <time>2022-08-25T11:07:39Z</time>
      </trkpt>
      <trkpt lat="42.670031" lon="-1.871945">
        <ele>453.039</ele>
        <time>2022-08-25T11:07:40Z</time>
      </trkpt>
      <trkpt lat="42.670039" lon="-1.871999">
        <ele>452.861</ele>
        <time>2022-08-25T11:07:41Z</time>
      </trkpt>
      <trkpt lat="42.670053" lon="-1.872061">
        <ele>452.898</ele>
        <time>2022-08-25T11:07:42Z</time>
      </trkpt>
      <trkpt lat="42.670061000000004" lon="-1.8720999999999999">
        <ele>452.881</ele>
        <time>2022-08-25T11:07:43Z</time>
      </trkpt>
      <trkpt lat="42.670072000000005" lon="-1.8721489999999998">
        <ele>452.687</ele>
        <time>2022-08-25T11:07:44Z</time>
      </trkpt>
      <trkpt lat="42.670084" lon="-1.8721959999999997">
        <ele>452.688</ele>
        <time>2022-08-25T11:07:45Z</time>
      </trkpt>
      <trkpt lat="42.670094000000006" lon="-1.8722429999999997">
        <ele>452.676</ele>
        <time>2022-08-25T11:07:46Z</time>
      </trkpt>
      <trkpt lat="42.67010500000001" lon="-1.8722869999999996">
        <ele>452.490</ele>
        <time>2022-08-25T11:07:47Z</time>
      </trkpt>
      <trkpt lat="42.67011500000001" lon="-1.8723309999999995">
        <ele>452.419</ele>
        <time>2022-08-25T11:07:48Z</time>
      </trkpt>
      <trkpt lat="42.67012700000001" lon="-1.8723719999999995">
        <ele>452.409</ele>
        <time>2022-08-25T11:07:49Z</time>
      </trkpt>
      <trkpt lat="42.67013700000001" lon="-1.8724099999999995">
        <ele>452.688</ele>
        <time>2022-08-25T11:07:50Z</time>
      </trkpt>
      <trkpt lat="42.67014600000001" lon="-1.8724459999999994">
        <ele>452.658</ele>
        <time>2022-08-25T11:07:51Z</time>
      </trkpt>
      <trkpt lat="42.670153000000006" lon="-1.8724829999999995">
        <ele>452.678</ele>
        <time>2022-08-25T11:07:52Z</time>
      </trkpt>
      <trkpt lat="42.670184000000006" lon="-1.8726029999999994">
        <ele>453.074</ele>
        <time>2022-08-25T11:07:55Z</time>
      </trkpt>
      <trkpt lat="42.670193000000005" lon="-1.8726449999999994">
        <ele>453.286</ele>
        <time>2022-08-25T11:07:56Z</time>
      </trkpt>
      <trkpt lat="42.6702" lon="-1.8726859999999994">
        <ele>453.243</ele>
        <time>2022-08-25T11:07:57Z</time>
      </trkpt>
      <trkpt lat="42.670216" lon="-1.8728089999999995">
        <ele>453.256</ele>
        <time>2022-08-25T11:08:00Z</time>
      </trkpt>
      <trkpt lat="42.670253" lon="-1.8729839999999995">
        <ele>452.852</ele>
        <time>2022-08-25T11:08:04Z</time>
      </trkpt>
      <trkpt lat="42.670389" lon="-1.8732159999999995">
        <ele>452.653</ele>
        <time>2022-08-25T11:08:10Z</time>
      </trkpt>
      <trkpt lat="42.670425" lon="-1.8732589999999996">
        <ele>452.614</ele>
        <time>2022-08-25T11:08:11Z</time>
      </trkpt>
      <trkpt lat="42.670516" lon="-1.8734459999999995">
        <ele>452.654</ele>
        <time>2022-08-25T11:08:15Z</time>
      </trkpt>
      <trkpt lat="42.670533999999996" lon="-1.8735019999999996">
        <ele>452.209</ele>
        <time>2022-08-25T11:08:16Z</time>
      </trkpt>
      <trkpt lat="42.670548999999994" lon="-1.8735579999999996">
        <ele>452.209</ele>
        <time>2022-08-25T11:08:17Z</time>
      </trkpt>
      <trkpt lat="42.670562999999994" lon="-1.8736149999999996">
        <ele>451.892</ele>
        <time>2022-08-25T11:08:18Z</time>
      </trkpt>
      <trkpt lat="42.670595999999996" lon="-1.8737939999999995">
        <ele>451.462</ele>
        <time>2022-08-25T11:08:21Z</time>
      </trkpt>
      <trkpt lat="42.670714" lon="-1.8742609999999995">
        <ele>450.872</ele>
        <time>2022-08-25T11:08:28Z</time>
      </trkpt>
      <trkpt lat="42.670736999999995" lon="-1.8743349999999994">
        <ele>450.648</ele>
        <time>2022-08-25T11:08:29Z</time>
      </trkpt>
      <trkpt lat="42.67078299999999" lon="-1.8744949999999994">
        <ele>449.640</ele>
        <time>2022-08-25T11:08:31Z</time>
      </trkpt>
      <trkpt lat="42.67080599999999" lon="-1.8745799999999992">
        <ele>449.027</ele>
        <time>2022-08-25T11:08:32Z</time>
      </trkpt>
      <trkpt lat="42.670843999999995" lon="-1.8747609999999992">
        <ele>448.430</ele>
        <time>2022-08-25T11:08:34Z</time>
      </trkpt>
      <trkpt lat="42.670857" lon="-1.8748539999999991">
        <ele>447.876</ele>
        <time>2022-08-25T11:08:35Z</time>
      </trkpt>
      <trkpt lat="42.670868" lon="-1.8749429999999991">
        <ele>447.857</ele>
        <time>2022-08-25T11:08:36Z</time>
      </trkpt>
      <trkpt lat="42.670878" lon="-1.8750319999999991">
        <ele>447.495</ele>
        <time>2022-08-25T11:08:37Z</time>
      </trkpt>
      <trkpt lat="42.670885" lon="-1.8751229999999992">
        <ele>447.249</ele>
        <time>2022-08-25T11:08:38Z</time>
      </trkpt>
      <trkpt lat="42.670895" lon="-1.8752109999999993">
        <ele>447.023</ele>
        <time>2022-08-25T11:08:39Z</time>
      </trkpt>
      <trkpt lat="42.670906" lon="-1.8752959999999992">
        <ele>446.809</ele>
        <time>2022-08-25T11:08:40Z</time>
      </trkpt>
      <trkpt lat="42.670918" lon="-1.8753799999999992">
        <ele>446.680</ele>
        <time>2022-08-25T11:08:41Z</time>
      </trkpt>
      <trkpt lat="42.670929" lon="-1.8754639999999991">
        <ele>446.260</ele>
        <time>2022-08-25T11:08:42Z</time>
      </trkpt>
      <trkpt lat="42.67094" lon="-1.875547999999999">
        <ele>446.050</ele>
        <time>2022-08-25T11:08:43Z</time>
      </trkpt>
      <trkpt lat="42.670951" lon="-1.875626999999999">
        <ele>445.866</ele>
        <time>2022-08-25T11:08:44Z</time>
      </trkpt>
      <trkpt lat="42.670962" lon="-1.875701999999999">
        <ele>445.438</ele>
        <time>2022-08-25T11:08:45Z</time>
      </trkpt>
      <trkpt lat="42.670977" lon="-1.8757739999999992">
        <ele>445.445</ele>
        <time>2022-08-25T11:08:46Z</time>
      </trkpt>
      <trkpt lat="42.670997" lon="-1.8758509999999993">
        <ele>445.298</ele>
        <time>2022-08-25T11:08:47Z</time>
      </trkpt>
      <trkpt lat="42.671012" lon="-1.8758959999999993">
        <ele>445.224</ele>
        <time>2022-08-25T11:08:48Z</time>
      </trkpt>
      <trkpt lat="42.671029" lon="-1.8759529999999993">
        <ele>445.055</ele>
        <time>2022-08-25T11:08:49Z</time>
      </trkpt>
      <trkpt lat="42.671045" lon="-1.8760069999999993">
        <ele>444.854</ele>
        <time>2022-08-25T11:08:50Z</time>
      </trkpt>
      <trkpt lat="42.671061" lon="-1.8760699999999992">
        <ele>445.056</ele>
        <time>2022-08-25T11:08:51Z</time>
      </trkpt>
      <trkpt lat="42.671071000000005" lon="-1.8761089999999991">
        <ele>444.811</ele>
        <time>2022-08-25T11:08:52Z</time>
      </trkpt>
      <trkpt lat="42.671089" lon="-1.8761699999999992">
        <ele>444.809</ele>
        <time>2022-08-25T11:08:53Z</time>
      </trkpt>
      <trkpt lat="42.671101" lon="-1.8762099999999993">
        <ele>444.666</ele>
        <time>2022-08-25T11:08:54Z</time>
      </trkpt>
      <trkpt lat="42.671116" lon="-1.8762619999999992">
        <ele>444.676</ele>
        <time>2022-08-25T11:08:55Z</time>
      </trkpt>
      <trkpt lat="42.67113" lon="-1.8763139999999991">
        <ele>444.676</ele>
        <time>2022-08-25T11:08:56Z</time>
      </trkpt>
      <trkpt lat="42.671143" lon="-1.8763639999999993">
        <ele>444.642</ele>
        <time>2022-08-25T11:08:57Z</time>
      </trkpt>
      <trkpt lat="42.671172" lon="-1.8764669999999992">
        <ele>444.664</ele>
        <time>2022-08-25T11:08:59Z</time>
      </trkpt>
      <trkpt lat="42.671185" lon="-1.8765139999999991">
        <ele>444.681</ele>
        <time>2022-08-25T11:09:00Z</time>
      </trkpt>
      <trkpt lat="42.671197" lon="-1.876560999999999">
        <ele>445.084</ele>
        <time>2022-08-25T11:09:01Z</time>
      </trkpt>
      <trkpt lat="42.671208" lon="-1.876604999999999">
        <ele>445.040</ele>
        <time>2022-08-25T11:09:02Z</time>
      </trkpt>
      <trkpt lat="42.671217" lon="-1.876648999999999">
        <ele>445.051</ele>
        <time>2022-08-25T11:09:03Z</time>
      </trkpt>
      <trkpt lat="42.67123" lon="-1.876790999999999">
        <ele>445.267</ele>
        <time>2022-08-25T11:09:06Z</time>
      </trkpt>
      <trkpt lat="42.671227" lon="-1.876843999999999">
        <ele>445.281</ele>
        <time>2022-08-25T11:09:07Z</time>
      </trkpt>
      <trkpt lat="42.671225" lon="-1.876878999999999">
        <ele>445.219</ele>
        <time>2022-08-25T11:09:08Z</time>
      </trkpt>
      <trkpt lat="42.67122" lon="-1.8769189999999991">
        <ele>445.409</ele>
        <time>2022-08-25T11:09:09Z</time>
      </trkpt>
      <trkpt lat="42.671197" lon="-1.8770369999999992">
        <ele>445.857</ele>
        <time>2022-08-25T11:09:12Z</time>
      </trkpt>
      <trkpt lat="42.671184" lon="-1.8770719999999992">
        <ele>445.437</ele>
        <time>2022-08-25T11:09:13Z</time>
      </trkpt>
      <trkpt lat="42.67117" lon="-1.877110999999999">
        <ele>445.437</ele>
        <time>2022-08-25T11:09:14Z</time>
      </trkpt>
      <trkpt lat="42.671152" lon="-1.8771779999999991">
        <ele>445.653</ele>
        <time>2022-08-25T11:09:16Z</time>
      </trkpt>
      <trkpt lat="42.671144" lon="-1.877202999999999">
        <ele>445.635</ele>
        <time>2022-08-25T11:09:17Z</time>
      </trkpt>
      <trkpt lat="42.671133999999995" lon="-1.877233999999999">
        <ele>445.832</ele>
        <time>2022-08-25T11:09:18Z</time>
      </trkpt>
      <trkpt lat="42.671125999999994" lon="-1.877263999999999">
        <ele>445.855</ele>
        <time>2022-08-25T11:09:19Z</time>
      </trkpt>
      <trkpt lat="42.67111799999999" lon="-1.8772949999999988">
        <ele>445.871</ele>
        <time>2022-08-25T11:09:20Z</time>
      </trkpt>
      <trkpt lat="42.671108999999994" lon="-1.8773229999999987">
        <ele>445.832</ele>
        <time>2022-08-25T11:09:21Z</time>
      </trkpt>
      <trkpt lat="42.671099999999996" lon="-1.8773519999999988">
        <ele>445.855</ele>
        <time>2022-08-25T11:09:22Z</time>
      </trkpt>
      <trkpt lat="42.671091" lon="-1.8773769999999987">
        <ele>445.807</ele>
        <time>2022-08-25T11:09:23Z</time>
      </trkpt>
      <trkpt lat="42.671085" lon="-1.8774019999999987">
        <ele>445.817</ele>
        <time>2022-08-25T11:09:24Z</time>
      </trkpt>
      <trkpt lat="42.671026" lon="-1.8776069999999987">
        <ele>445.609</ele>
        <time>2022-08-25T11:09:30Z</time>
      </trkpt>
      <trkpt lat="42.671009999999995" lon="-1.8776569999999988">
        <ele>445.666</ele>
        <time>2022-08-25T11:09:31Z</time>
      </trkpt>
      <trkpt lat="42.670959999999994" lon="-1.8778479999999989">
        <ele>445.036</ele>
        <time>2022-08-25T11:09:34Z</time>
      </trkpt>
      <trkpt lat="42.67094699999999" lon="-1.8779919999999988">
        <ele>444.656</ele>
        <time>2022-08-25T11:09:36Z</time>
      </trkpt>
      <trkpt lat="42.67094399999999" lon="-1.8781349999999988">
        <ele>444.412</ele>
        <time>2022-08-25T11:09:38Z</time>
      </trkpt>
      <trkpt lat="42.67094699999999" lon="-1.8782049999999988">
        <ele>444.484</ele>
        <time>2022-08-25T11:09:39Z</time>
      </trkpt>
      <trkpt lat="42.67095099999999" lon="-1.8782719999999988">
        <ele>444.261</ele>
        <time>2022-08-25T11:09:40Z</time>
      </trkpt>
      <trkpt lat="42.67095999999999" lon="-1.8783349999999988">
        <ele>444.224</ele>
        <time>2022-08-25T11:09:41Z</time>
      </trkpt>
      <trkpt lat="42.671005999999984" lon="-1.8785409999999987">
        <ele>443.850</ele>
        <time>2022-08-25T11:09:44Z</time>
      </trkpt>
      <trkpt lat="42.671022999999984" lon="-1.8786139999999987">
        <ele>443.411</ele>
        <time>2022-08-25T11:09:45Z</time>
      </trkpt>
      <trkpt lat="42.67103499999998" lon="-1.8786899999999986">
        <ele>442.888</ele>
        <time>2022-08-25T11:09:46Z</time>
      </trkpt>
      <trkpt lat="42.671092999999985" lon="-1.8790469999999986">
        <ele>441.824</ele>
        <time>2022-08-25T11:09:50Z</time>
      </trkpt>
      <trkpt lat="42.671117999999986" lon="-1.8792319999999987">
        <ele>440.826</ele>
        <time>2022-08-25T11:09:52Z</time>
      </trkpt>
      <trkpt lat="42.67113299999998" lon="-1.8793199999999988">
        <ele>440.009</ele>
        <time>2022-08-25T11:09:53Z</time>
      </trkpt>
      <trkpt lat="42.67114699999998" lon="-1.8794059999999988">
        <ele>439.679</ele>
        <time>2022-08-25T11:09:54Z</time>
      </trkpt>
      <trkpt lat="42.67116499999998" lon="-1.8794849999999987">
        <ele>439.419</ele>
        <time>2022-08-25T11:09:55Z</time>
      </trkpt>
      <trkpt lat="42.671188999999984" lon="-1.8795579999999987">
        <ele>439.279</ele>
        <time>2022-08-25T11:09:56Z</time>
      </trkpt>
      <trkpt lat="42.67121799999998" lon="-1.8796259999999987">
        <ele>439.085</ele>
        <time>2022-08-25T11:09:57Z</time>
      </trkpt>
      <trkpt lat="42.671247999999984" lon="-1.8796899999999988">
        <ele>438.887</ele>
        <time>2022-08-25T11:09:58Z</time>
      </trkpt>
      <trkpt lat="42.671278999999984" lon="-1.8797499999999987">
        <ele>438.814</ele>
        <time>2022-08-25T11:09:59Z</time>
      </trkpt>
      <trkpt lat="42.671309999999984" lon="-1.8798089999999987">
        <ele>438.857</ele>
        <time>2022-08-25T11:10:00Z</time>
      </trkpt>
      <trkpt lat="42.671342999999986" lon="-1.8798669999999986">
        <ele>438.873</ele>
        <time>2022-08-25T11:10:01Z</time>
      </trkpt>
      <trkpt lat="42.67137299999999" lon="-1.8799209999999986">
        <ele>438.864</ele>
        <time>2022-08-25T11:10:02Z</time>
      </trkpt>
      <trkpt lat="42.67140999999999" lon="-1.8799809999999986">
        <ele>438.825</ele>
        <time>2022-08-25T11:10:03Z</time>
      </trkpt>
      <trkpt lat="42.67143399999999" lon="-1.8800189999999986">
        <ele>439.026</ele>
        <time>2022-08-25T11:10:04Z</time>
      </trkpt>
      <trkpt lat="42.67146499999999" lon="-1.8800659999999985">
        <ele>439.208</ele>
        <time>2022-08-25T11:10:05Z</time>
      </trkpt>
      <trkpt lat="42.67149399999999" lon="-1.8801119999999985">
        <ele>439.409</ele>
        <time>2022-08-25T11:10:06Z</time>
      </trkpt>
      <trkpt lat="42.671522999999986" lon="-1.8801569999999985">
        <ele>439.443</ele>
        <time>2022-08-25T11:10:07Z</time>
      </trkpt>
      <trkpt lat="42.67155099999999" lon="-1.8801999999999985">
        <ele>439.433</ele>
        <time>2022-08-25T11:10:08Z</time>
      </trkpt>
      <trkpt lat="42.67157799999999" lon="-1.8802389999999984">
        <ele>439.483</ele>
        <time>2022-08-25T11:10:09Z</time>
      </trkpt>
      <trkpt lat="42.67160599999999" lon="-1.8802779999999983">
        <ele>439.669</ele>
        <time>2022-08-25T11:10:10Z</time>
      </trkpt>
      <trkpt lat="42.67163199999999" lon="-1.8803149999999984">
        <ele>439.661</ele>
        <time>2022-08-25T11:10:11Z</time>
      </trkpt>
      <trkpt lat="42.67165699999999" lon="-1.8803489999999985">
        <ele>439.628</ele>
        <time>2022-08-25T11:10:12Z</time>
      </trkpt>
      <trkpt lat="42.67168099999999" lon="-1.8803839999999985">
        <ele>439.611</ele>
        <time>2022-08-25T11:10:13Z</time>
      </trkpt>
      <trkpt lat="42.67170199999999" lon="-1.8804209999999986">
        <ele>439.867</ele>
        <time>2022-08-25T11:10:14Z</time>
      </trkpt>
      <trkpt lat="42.67171899999999" lon="-1.8804579999999986">
        <ele>440.068</ele>
        <time>2022-08-25T11:10:15Z</time>
      </trkpt>
      <trkpt lat="42.67173599999999" lon="-1.8804939999999986">
        <ele>440.068</ele>
        <time>2022-08-25T11:10:16Z</time>
      </trkpt>
      <trkpt lat="42.671750999999986" lon="-1.8805239999999985">
        <ele>440.242</ele>
        <time>2022-08-25T11:10:17Z</time>
      </trkpt>
      <trkpt lat="42.671764999999986" lon="-1.8805529999999986">
        <ele>440.426</ele>
        <time>2022-08-25T11:10:18Z</time>
      </trkpt>
      <trkpt lat="42.67177499999999" lon="-1.8805809999999985">
        <ele>440.409</ele>
        <time>2022-08-25T11:10:19Z</time>
      </trkpt>
      <trkpt lat="42.67178399999999" lon="-1.8806089999999984">
        <ele>440.667</ele>
        <time>2022-08-25T11:10:20Z</time>
      </trkpt>
      <trkpt lat="42.67179499999999" lon="-1.8806339999999984">
        <ele>440.637</ele>
        <time>2022-08-25T11:10:21Z</time>
      </trkpt>
      <trkpt lat="42.67183299999999" lon="-1.8807199999999984">
        <ele>440.827</ele>
        <time>2022-08-25T11:10:24Z</time>
      </trkpt>
      <trkpt lat="42.671845999999995" lon="-1.8807459999999985">
        <ele>441.083</ele>
        <time>2022-08-25T11:10:25Z</time>
      </trkpt>
      <trkpt lat="42.671862999999995" lon="-1.8807769999999984">
        <ele>441.255</ele>
        <time>2022-08-25T11:10:26Z</time>
      </trkpt>
      <trkpt lat="42.671969999999995" lon="-1.8809749999999983">
        <ele>441.622</ele>
        <time>2022-08-25T11:10:33Z</time>
      </trkpt>
      <trkpt lat="42.671989999999994" lon="-1.8810029999999982">
        <ele>441.635</ele>
        <time>2022-08-25T11:10:34Z</time>
      </trkpt>
      <trkpt lat="42.67202999999999" lon="-1.8810519999999982">
        <ele>441.681</ele>
        <time>2022-08-25T11:10:36Z</time>
      </trkpt>
      <trkpt lat="42.672070999999995" lon="-1.8810969999999982">
        <ele>441.862</ele>
        <time>2022-08-25T11:10:38Z</time>
      </trkpt>
      <trkpt lat="42.67209199999999" lon="-1.8811209999999983">
        <ele>441.898</ele>
        <time>2022-08-25T11:10:39Z</time>
      </trkpt>
      <trkpt lat="42.67211199999999" lon="-1.8811449999999983">
        <ele>441.815</ele>
        <time>2022-08-25T11:10:40Z</time>
      </trkpt>
      <trkpt lat="42.67213199999999" lon="-1.8811709999999984">
        <ele>441.826</ele>
        <time>2022-08-25T11:10:41Z</time>
      </trkpt>
      <trkpt lat="42.67224399999999" lon="-1.8812799999999983">
        <ele>442.409</ele>
        <time>2022-08-25T11:10:46Z</time>
      </trkpt>
      <trkpt lat="42.672304999999994" lon="-1.8813519999999984">
        <ele>443.070</ele>
        <time>2022-08-25T11:10:49Z</time>
      </trkpt>
      <trkpt lat="42.67232299999999" lon="-1.8813769999999983">
        <ele>443.080</ele>
        <time>2022-08-25T11:10:50Z</time>
      </trkpt>
      <trkpt lat="42.672400999999994" lon="-1.8814709999999983">
        <ele>443.470</ele>
        <time>2022-08-25T11:10:54Z</time>
      </trkpt>
      <trkpt lat="42.67242099999999" lon="-1.8814979999999983">
        <ele>443.426</ele>
        <time>2022-08-25T11:10:55Z</time>
      </trkpt>
      <trkpt lat="42.672461999999996" lon="-1.8815499999999983">
        <ele>443.648</ele>
        <time>2022-08-25T11:10:57Z</time>
      </trkpt>
      <trkpt lat="42.672481999999995" lon="-1.8815779999999982">
        <ele>443.675</ele>
        <time>2022-08-25T11:10:58Z</time>
      </trkpt>
      <trkpt lat="42.672599" lon="-1.8817259999999982">
        <ele>444.258</ele>
        <time>2022-08-25T11:11:04Z</time>
      </trkpt>
      <trkpt lat="42.67264" lon="-1.8817849999999983">
        <ele>444.454</ele>
        <time>2022-08-25T11:11:06Z</time>
      </trkpt>
      <trkpt lat="42.672739" lon="-1.8819309999999982">
        <ele>444.825</ele>
        <time>2022-08-25T11:11:11Z</time>
      </trkpt>
      <trkpt lat="42.672758" lon="-1.8819579999999982">
        <ele>445.036</ele>
        <time>2022-08-25T11:11:12Z</time>
      </trkpt>
      <trkpt lat="42.672782000000005" lon="-1.8819919999999983">
        <ele>445.017</ele>
        <time>2022-08-25T11:11:13Z</time>
      </trkpt>
      <trkpt lat="42.672817" lon="-1.8820439999999983">
        <ele>445.018</ele>
        <time>2022-08-25T11:11:15Z</time>
      </trkpt>
      <trkpt lat="42.672945" lon="-1.8822219999999983">
        <ele>445.209</ele>
        <time>2022-08-25T11:11:21Z</time>
      </trkpt>
      <trkpt lat="42.672965" lon="-1.8822489999999983">
        <ele>445.274</ele>
        <time>2022-08-25T11:11:22Z</time>
      </trkpt>
      <trkpt lat="42.672987" lon="-1.8822769999999982">
        <ele>445.484</ele>
        <time>2022-08-25T11:11:23Z</time>
      </trkpt>
      <trkpt lat="42.673025" lon="-1.882323999999998">
        <ele>445.864</ele>
        <time>2022-08-25T11:11:25Z</time>
      </trkpt>
      <trkpt lat="42.673048" lon="-1.882353999999998">
        <ele>446.090</ele>
        <time>2022-08-25T11:11:26Z</time>
      </trkpt>
      <trkpt lat="42.673068" lon="-1.882377999999998">
        <ele>446.472</ele>
        <time>2022-08-25T11:11:27Z</time>
      </trkpt>
      <trkpt lat="42.673128" lon="-1.8824499999999982">
        <ele>446.899</ele>
        <time>2022-08-25T11:11:30Z</time>
      </trkpt>
      <trkpt lat="42.673156999999996" lon="-1.8824749999999981">
        <ele>447.072</ele>
        <time>2022-08-25T11:11:31Z</time>
      </trkpt>
      <trkpt lat="42.67317499999999" lon="-1.882494999999998">
        <ele>447.248</ele>
        <time>2022-08-25T11:11:32Z</time>
      </trkpt>
      <trkpt lat="42.67318999999999" lon="-1.882513999999998">
        <ele>447.469</ele>
        <time>2022-08-25T11:11:33Z</time>
      </trkpt>
      <trkpt lat="42.673202999999994" lon="-1.882534999999998">
        <ele>447.442</ele>
        <time>2022-08-25T11:11:34Z</time>
      </trkpt>
      <trkpt lat="42.673210999999995" lon="-1.882554999999998">
        <ele>447.422</ele>
        <time>2022-08-25T11:11:35Z</time>
      </trkpt>
      <trkpt lat="42.67322299999999" lon="-1.882573999999998">
        <ele>447.614</ele>
        <time>2022-08-25T11:11:36Z</time>
      </trkpt>
      <trkpt lat="42.67323699999999" lon="-1.882592999999998">
        <ele>447.809</ele>
        <time>2022-08-25T11:11:37Z</time>
      </trkpt>
      <trkpt lat="42.673252999999995" lon="-1.8826129999999979">
        <ele>447.895</ele>
        <time>2022-08-25T11:11:38Z</time>
      </trkpt>
      <trkpt lat="42.67326799999999" lon="-1.882630999999998">
        <ele>447.855</ele>
        <time>2022-08-25T11:11:39Z</time>
      </trkpt>
      <trkpt lat="42.67328299999999" lon="-1.8826509999999979">
        <ele>447.855</ele>
        <time>2022-08-25T11:11:40Z</time>
      </trkpt>
      <trkpt lat="42.67329899999999" lon="-1.882673999999998">
        <ele>448.071</ele>
        <time>2022-08-25T11:11:41Z</time>
      </trkpt>
      <trkpt lat="42.67331599999999" lon="-1.882697999999998">
        <ele>448.223</ele>
        <time>2022-08-25T11:11:42Z</time>
      </trkpt>
      <trkpt lat="42.67333599999999" lon="-1.882718999999998">
        <ele>448.480</ele>
        <time>2022-08-25T11:11:43Z</time>
      </trkpt>
      <trkpt lat="42.67335699999999" lon="-1.882737999999998">
        <ele>448.633</ele>
        <time>2022-08-25T11:11:44Z</time>
      </trkpt>
      <trkpt lat="42.673377999999985" lon="-1.882755999999998">
        <ele>448.639</ele>
        <time>2022-08-25T11:11:45Z</time>
      </trkpt>
      <trkpt lat="42.67339899999998" lon="-1.882777999999998">
        <ele>448.890</ele>
        <time>2022-08-25T11:11:46Z</time>
      </trkpt>
      <trkpt lat="42.673417999999984" lon="-1.8827989999999981">
        <ele>449.064</ele>
        <time>2022-08-25T11:11:47Z</time>
      </trkpt>
      <trkpt lat="42.67343799999998" lon="-1.8828169999999982">
        <ele>449.206</ele>
        <time>2022-08-25T11:11:48Z</time>
      </trkpt>
      <trkpt lat="42.673453999999985" lon="-1.8828319999999983">
        <ele>449.416</ele>
        <time>2022-08-25T11:11:49Z</time>
      </trkpt>
      <trkpt lat="42.673479999999984" lon="-1.8828539999999983">
        <ele>449.409</ele>
        <time>2022-08-25T11:11:50Z</time>
      </trkpt>
      <trkpt lat="42.673501999999985" lon="-1.8828689999999983">
        <ele>449.647</ele>
        <time>2022-08-25T11:11:51Z</time>
      </trkpt>
      <trkpt lat="42.67351999999998" lon="-1.8828839999999984">
        <ele>449.687</ele>
        <time>2022-08-25T11:11:52Z</time>
      </trkpt>
      <trkpt lat="42.673538999999984" lon="-1.8828999999999985">
        <ele>449.637</ele>
        <time>2022-08-25T11:11:53Z</time>
      </trkpt>
      <trkpt lat="42.673557999999986" lon="-1.8829179999999985">
        <ele>449.623</ele>
        <time>2022-08-25T11:11:54Z</time>
      </trkpt>
      <trkpt lat="42.67357099999999" lon="-1.8829319999999985">
        <ele>449.695</ele>
        <time>2022-08-25T11:11:55Z</time>
      </trkpt>
      <trkpt lat="42.67359299999999" lon="-1.8829519999999984">
        <ele>449.622</ele>
        <time>2022-08-25T11:11:56Z</time>
      </trkpt>
      <trkpt lat="42.67361299999999" lon="-1.8829679999999984">
        <ele>449.675</ele>
        <time>2022-08-25T11:11:57Z</time>
      </trkpt>
      <trkpt lat="42.67362899999999" lon="-1.8829819999999984">
        <ele>449.631</ele>
        <time>2022-08-25T11:11:58Z</time>
      </trkpt>
      <trkpt lat="42.67364999999999" lon="-1.8829989999999983">
        <ele>449.682</ele>
        <time>2022-08-25T11:11:59Z</time>
      </trkpt>
      <trkpt lat="42.67367499999999" lon="-1.8830269999999982">
        <ele>449.649</ele>
        <time>2022-08-25T11:12:00Z</time>
      </trkpt>
      <trkpt lat="42.67369499999999" lon="-1.8830419999999983">
        <ele>449.602</ele>
        <time>2022-08-25T11:12:01Z</time>
      </trkpt>
      <trkpt lat="42.67371499999999" lon="-1.8830599999999984">
        <ele>449.622</ele>
        <time>2022-08-25T11:12:02Z</time>
      </trkpt>
      <trkpt lat="42.67373099999999" lon="-1.8830739999999984">
        <ele>449.809</ele>
        <time>2022-08-25T11:12:03Z</time>
      </trkpt>
      <trkpt lat="42.67379499999999" lon="-1.8831349999999984">
        <ele>450.065</ele>
        <time>2022-08-25T11:12:06Z</time>
      </trkpt>
      <trkpt lat="42.67381399999999" lon="-1.8831539999999984">
        <ele>450.025</ele>
        <time>2022-08-25T11:12:07Z</time>
      </trkpt>
      <trkpt lat="42.67383399999999" lon="-1.8831739999999983">
        <ele>450.465</ele>
        <time>2022-08-25T11:12:08Z</time>
      </trkpt>
      <trkpt lat="42.67386899999999" lon="-1.8832179999999983">
        <ele>450.881</ele>
        <time>2022-08-25T11:12:10Z</time>
      </trkpt>
      <trkpt lat="42.67388499999999" lon="-1.8832399999999982">
        <ele>450.813</ele>
        <time>2022-08-25T11:12:11Z</time>
      </trkpt>
      <trkpt lat="42.673900999999994" lon="-1.8832609999999983">
        <ele>451.040</ele>
        <time>2022-08-25T11:12:12Z</time>
      </trkpt>
      <trkpt lat="42.673916999999996" lon="-1.8832819999999983">
        <ele>451.253</ele>
        <time>2022-08-25T11:12:13Z</time>
      </trkpt>
      <trkpt lat="42.673930999999996" lon="-1.8833029999999984">
        <ele>451.439</ele>
        <time>2022-08-25T11:12:14Z</time>
      </trkpt>
      <trkpt lat="42.673945999999994" lon="-1.8833259999999985">
        <ele>451.680</ele>
        <time>2022-08-25T11:12:15Z</time>
      </trkpt>
      <trkpt lat="42.67396099999999" lon="-1.8833479999999985">
        <ele>451.625</ele>
        <time>2022-08-25T11:12:16Z</time>
      </trkpt>
      <trkpt lat="42.67397499999999" lon="-1.8833659999999985">
        <ele>451.826</ele>
        <time>2022-08-25T11:12:17Z</time>
      </trkpt>
      <trkpt lat="42.67398899999999" lon="-1.8833849999999985">
        <ele>451.808</ele>
        <time>2022-08-25T11:12:18Z</time>
      </trkpt>
      <trkpt lat="42.67400399999999" lon="-1.8834039999999985">
        <ele>451.809</ele>
        <time>2022-08-25T11:12:19Z</time>
      </trkpt>
      <trkpt lat="42.67401899999999" lon="-1.8834209999999985">
        <ele>452.273</ele>
        <time>2022-08-25T11:12:20Z</time>
      </trkpt>
      <trkpt lat="42.67402999999999" lon="-1.8834389999999985">
        <ele>452.253</ele>
        <time>2022-08-25T11:12:21Z</time>
      </trkpt>
      <trkpt lat="42.67404299999999" lon="-1.8834589999999984">
        <ele>452.423</ele>
        <time>2022-08-25T11:12:22Z</time>
      </trkpt>
      <trkpt lat="42.674052999999994" lon="-1.8834789999999983">
        <ele>452.449</ele>
        <time>2022-08-25T11:12:23Z</time>
      </trkpt>
      <trkpt lat="42.67406499999999" lon="-1.8834979999999983">
        <ele>452.671</ele>
        <time>2022-08-25T11:12:24Z</time>
      </trkpt>
      <trkpt lat="42.67407599999999" lon="-1.8835169999999983">
        <ele>452.838</ele>
        <time>2022-08-25T11:12:25Z</time>
      </trkpt>
      <trkpt lat="42.67408699999999" lon="-1.8835359999999983">
        <ele>452.891</ele>
        <time>2022-08-25T11:12:26Z</time>
      </trkpt>
      <trkpt lat="42.674097999999994" lon="-1.8835569999999984">
        <ele>453.087</ele>
        <time>2022-08-25T11:12:27Z</time>
      </trkpt>
      <trkpt lat="42.674108999999994" lon="-1.8835769999999983">
        <ele>453.038</ele>
        <time>2022-08-25T11:12:28Z</time>
      </trkpt>
      <trkpt lat="42.674119999999995" lon="-1.8835979999999983">
        <ele>453.083</ele>
        <time>2022-08-25T11:12:29Z</time>
      </trkpt>
      <trkpt lat="42.674130999999996" lon="-1.8836209999999984">
        <ele>453.025</ele>
        <time>2022-08-25T11:12:30Z</time>
      </trkpt>
      <trkpt lat="42.674142999999994" lon="-1.8836409999999983">
        <ele>453.017</ele>
        <time>2022-08-25T11:12:31Z</time>
      </trkpt>
      <trkpt lat="42.674153999999994" lon="-1.8836619999999984">
        <ele>453.009</ele>
        <time>2022-08-25T11:12:32Z</time>
      </trkpt>
      <trkpt lat="42.674161999999995" lon="-1.8836829999999984">
        <ele>453.049</ele>
        <time>2022-08-25T11:12:33Z</time>
      </trkpt>
      <trkpt lat="42.674170999999994" lon="-1.8837039999999985">
        <ele>453.079</ele>
        <time>2022-08-25T11:12:34Z</time>
      </trkpt>
      <trkpt lat="42.67417999999999" lon="-1.8837249999999985">
        <ele>453.049</ele>
        <time>2022-08-25T11:12:35Z</time>
      </trkpt>
      <trkpt lat="42.674187999999994" lon="-1.8837459999999986">
        <ele>453.035</ele>
        <time>2022-08-25T11:12:36Z</time>
      </trkpt>
      <trkpt lat="42.67419499999999" lon="-1.8837699999999986">
        <ele>453.057</ele>
        <time>2022-08-25T11:12:37Z</time>
      </trkpt>
      <trkpt lat="42.67421099999999" lon="-1.8838139999999985">
        <ele>453.234</ele>
        <time>2022-08-25T11:12:39Z</time>
      </trkpt>
      <trkpt lat="42.67421999999999" lon="-1.8838339999999985">
        <ele>453.257</ele>
        <time>2022-08-25T11:12:40Z</time>
      </trkpt>
      <trkpt lat="42.674291999999994" lon="-1.8841079999999986">
        <ele>453.663</ele>
        <time>2022-08-25T11:12:51Z</time>
      </trkpt>
      <trkpt lat="42.674299999999995" lon="-1.8841319999999986">
        <ele>453.634</ele>
        <time>2022-08-25T11:12:52Z</time>
      </trkpt>
      <trkpt lat="42.674316" lon="-1.8842089999999987">
        <ele>453.612</ele>
        <time>2022-08-25T11:12:55Z</time>
      </trkpt>
      <trkpt lat="42.674322" lon="-1.8842319999999988">
        <ele>453.832</ele>
        <time>2022-08-25T11:12:56Z</time>
      </trkpt>
      <trkpt lat="42.674327999999996" lon="-1.8842539999999988">
        <ele>454.005</ele>
        <time>2022-08-25T11:12:57Z</time>
      </trkpt>
      <trkpt lat="42.67434599999999" lon="-1.8843229999999989">
        <ele>454.409</ele>
        <time>2022-08-25T11:13:00Z</time>
      </trkpt>
      <trkpt lat="42.67435199999999" lon="-1.884348999999999">
        <ele>454.632</ele>
        <time>2022-08-25T11:13:01Z</time>
      </trkpt>
      <trkpt lat="42.67435899999999" lon="-1.8843739999999989">
        <ele>454.862</ele>
        <time>2022-08-25T11:13:02Z</time>
      </trkpt>
      <trkpt lat="42.67436899999999" lon="-1.884405999999999">
        <ele>455.262</ele>
        <time>2022-08-25T11:13:03Z</time>
      </trkpt>
      <trkpt lat="42.67437499999999" lon="-1.8844279999999989">
        <ele>455.488</ele>
        <time>2022-08-25T11:13:04Z</time>
      </trkpt>
      <trkpt lat="42.67437999999999" lon="-1.8844499999999988">
        <ele>456.090</ele>
        <time>2022-08-25T11:13:05Z</time>
      </trkpt>
      <trkpt lat="42.674398999999994" lon="-1.884494999999999">
        <ele>456.677</ele>
        <time>2022-08-25T11:13:07Z</time>
      </trkpt>
      <trkpt lat="42.674406999999995" lon="-1.8845169999999989">
        <ele>457.090</ele>
        <time>2022-08-25T11:13:08Z</time>
      </trkpt>
      <trkpt lat="42.674414999999996" lon="-1.8845389999999989">
        <ele>457.216</ele>
        <time>2022-08-25T11:13:09Z</time>
      </trkpt>
      <trkpt lat="42.674423" lon="-1.8845559999999988">
        <ele>457.427</ele>
        <time>2022-08-25T11:13:10Z</time>
      </trkpt>
      <trkpt lat="42.674429999999994" lon="-1.8845729999999987">
        <ele>457.466</ele>
        <time>2022-08-25T11:13:11Z</time>
      </trkpt>
      <trkpt lat="42.67443699999999" lon="-1.8845909999999988">
        <ele>457.429</ele>
        <time>2022-08-25T11:13:12Z</time>
      </trkpt>
      <trkpt lat="42.67444399999999" lon="-1.8846159999999987">
        <ele>457.421</ele>
        <time>2022-08-25T11:13:13Z</time>
      </trkpt>
      <trkpt lat="42.67445099999998" lon="-1.8846319999999988">
        <ele>457.609</ele>
        <time>2022-08-25T11:13:14Z</time>
      </trkpt>
      <trkpt lat="42.67445799999998" lon="-1.8846509999999987">
        <ele>457.637</ele>
        <time>2022-08-25T11:13:15Z</time>
      </trkpt>
      <trkpt lat="42.67446699999998" lon="-1.8846749999999988">
        <ele>457.877</ele>
        <time>2022-08-25T11:13:16Z</time>
      </trkpt>
      <trkpt lat="42.674473999999975" lon="-1.8846919999999987">
        <ele>457.837</ele>
        <time>2022-08-25T11:13:17Z</time>
      </trkpt>
      <trkpt lat="42.674482999999974" lon="-1.8847119999999986">
        <ele>457.893</ele>
        <time>2022-08-25T11:13:18Z</time>
      </trkpt>
      <trkpt lat="42.67449199999997" lon="-1.8847309999999986">
        <ele>457.885</ele>
        <time>2022-08-25T11:13:19Z</time>
      </trkpt>
      <trkpt lat="42.67450099999997" lon="-1.8847459999999987">
        <ele>457.862</ele>
        <time>2022-08-25T11:13:20Z</time>
      </trkpt>
      <trkpt lat="42.674510999999974" lon="-1.8847629999999986">
        <ele>458.015</ele>
        <time>2022-08-25T11:13:21Z</time>
      </trkpt>
      <trkpt lat="42.67452399999998" lon="-1.8847859999999987">
        <ele>458.031</ele>
        <time>2022-08-25T11:13:22Z</time>
      </trkpt>
      <trkpt lat="42.67452899999998" lon="-1.8848009999999988">
        <ele>458.292</ele>
        <time>2022-08-25T11:13:23Z</time>
      </trkpt>
      <trkpt lat="42.67453899999998" lon="-1.8848179999999988">
        <ele>458.415</ele>
        <time>2022-08-25T11:13:24Z</time>
      </trkpt>
      <trkpt lat="42.674548999999985" lon="-1.8848349999999987">
        <ele>458.465</ele>
        <time>2022-08-25T11:13:25Z</time>
      </trkpt>
      <trkpt lat="42.67455799999998" lon="-1.8848519999999986">
        <ele>458.411</ele>
        <time>2022-08-25T11:13:26Z</time>
      </trkpt>
      <trkpt lat="42.674568999999984" lon="-1.8848689999999986">
        <ele>458.609</ele>
        <time>2022-08-25T11:13:27Z</time>
      </trkpt>
      <trkpt lat="42.67457899999999" lon="-1.8848849999999986">
        <ele>458.852</ele>
        <time>2022-08-25T11:13:28Z</time>
      </trkpt>
      <trkpt lat="42.67458999999999" lon="-1.8849019999999985">
        <ele>459.222</ele>
        <time>2022-08-25T11:13:29Z</time>
      </trkpt>
      <trkpt lat="42.67460099999999" lon="-1.8849169999999986">
        <ele>459.272</ele>
        <time>2022-08-25T11:13:30Z</time>
      </trkpt>
      <trkpt lat="42.67461099999999" lon="-1.8849299999999987">
        <ele>459.458</ele>
        <time>2022-08-25T11:13:31Z</time>
      </trkpt>
      <trkpt lat="42.67461999999999" lon="-1.8849449999999988">
        <ele>459.430</ele>
        <time>2022-08-25T11:13:32Z</time>
      </trkpt>
      <trkpt lat="42.67462799999999" lon="-1.8849599999999989">
        <ele>459.697</ele>
        <time>2022-08-25T11:13:33Z</time>
      </trkpt>
      <trkpt lat="42.67463699999999" lon="-1.8849739999999988">
        <ele>459.850</ele>
        <time>2022-08-25T11:13:34Z</time>
      </trkpt>
      <trkpt lat="42.67464499999999" lon="-1.8849849999999988">
        <ele>459.856</ele>
        <time>2022-08-25T11:13:35Z</time>
      </trkpt>
      <trkpt lat="42.67465299999999" lon="-1.884999999999999">
        <ele>460.027</ele>
        <time>2022-08-25T11:13:36Z</time>
      </trkpt>
      <trkpt lat="42.67466099999999" lon="-1.885015999999999">
        <ele>460.298</ele>
        <time>2022-08-25T11:13:37Z</time>
      </trkpt>
      <trkpt lat="42.67466999999999" lon="-1.885033999999999">
        <ele>460.415</ele>
        <time>2022-08-25T11:13:38Z</time>
      </trkpt>
      <trkpt lat="42.67467599999999" lon="-1.885047999999999">
        <ele>460.626</ele>
        <time>2022-08-25T11:13:39Z</time>
      </trkpt>
      <trkpt lat="42.67468299999999" lon="-1.885062999999999">
        <ele>460.809</ele>
        <time>2022-08-25T11:13:40Z</time>
      </trkpt>
      <trkpt lat="42.67469099999999" lon="-1.8850779999999991">
        <ele>461.030</ele>
        <time>2022-08-25T11:13:41Z</time>
      </trkpt>
      <trkpt lat="42.674697999999985" lon="-1.8850929999999992">
        <ele>461.060</ele>
        <time>2022-08-25T11:13:42Z</time>
      </trkpt>
      <trkpt lat="42.67470499999998" lon="-1.8851069999999992">
        <ele>461.430</ele>
        <time>2022-08-25T11:13:43Z</time>
      </trkpt>
      <trkpt lat="42.67471299999998" lon="-1.8851209999999992">
        <ele>461.656</ele>
        <time>2022-08-25T11:13:44Z</time>
      </trkpt>
      <trkpt lat="42.67471899999998" lon="-1.8851349999999991">
        <ele>461.658</ele>
        <time>2022-08-25T11:13:45Z</time>
      </trkpt>
      <trkpt lat="42.67472499999998" lon="-1.8851509999999991">
        <ele>461.865</ele>
        <time>2022-08-25T11:13:46Z</time>
      </trkpt>
      <trkpt lat="42.67473099999998" lon="-1.885164999999999">
        <ele>461.878</ele>
        <time>2022-08-25T11:13:47Z</time>
      </trkpt>
      <trkpt lat="42.67473599999998" lon="-1.8851779999999991">
        <ele>462.034</ele>
        <time>2022-08-25T11:13:48Z</time>
      </trkpt>
      <trkpt lat="42.67474099999998" lon="-1.8851929999999992">
        <ele>462.095</ele>
        <time>2022-08-25T11:13:49Z</time>
      </trkpt>
      <trkpt lat="42.67474699999998" lon="-1.8852069999999992">
        <ele>462.283</ele>
        <time>2022-08-25T11:13:50Z</time>
      </trkpt>
      <trkpt lat="42.674751999999984" lon="-1.8852229999999992">
        <ele>462.425</ele>
        <time>2022-08-25T11:13:51Z</time>
      </trkpt>
      <trkpt lat="42.674756999999985" lon="-1.8852379999999993">
        <ele>462.417</ele>
        <time>2022-08-25T11:13:52Z</time>
      </trkpt>
      <trkpt lat="42.67476199999999" lon="-1.8852529999999994">
        <ele>462.609</ele>
        <time>2022-08-25T11:13:53Z</time>
      </trkpt>
      <trkpt lat="42.674770999999986" lon="-1.8852689999999994">
        <ele>462.649</ele>
        <time>2022-08-25T11:13:54Z</time>
      </trkpt>
      <trkpt lat="42.67477799999998" lon="-1.8852859999999994">
        <ele>462.649</ele>
        <time>2022-08-25T11:13:55Z</time>
      </trkpt>
      <trkpt lat="42.67478399999998" lon="-1.8853019999999994">
        <ele>462.889</ele>
        <time>2022-08-25T11:13:56Z</time>
      </trkpt>
      <trkpt lat="42.67478999999998" lon="-1.8853209999999994">
        <ele>462.855</ele>
        <time>2022-08-25T11:13:57Z</time>
      </trkpt>
      <trkpt lat="42.67479599999998" lon="-1.8853399999999993">
        <ele>463.077</ele>
        <time>2022-08-25T11:13:58Z</time>
      </trkpt>
      <trkpt lat="42.674802999999976" lon="-1.8853569999999993">
        <ele>463.034</ele>
        <time>2022-08-25T11:13:59Z</time>
      </trkpt>
      <trkpt lat="42.67480999999997" lon="-1.8853769999999992">
        <ele>463.227</ele>
        <time>2022-08-25T11:14:00Z</time>
      </trkpt>
      <trkpt lat="42.67481599999997" lon="-1.8853959999999992">
        <ele>463.273</ele>
        <time>2022-08-25T11:14:01Z</time>
      </trkpt>
      <trkpt lat="42.67482199999997" lon="-1.8854149999999992">
        <ele>463.254</ele>
        <time>2022-08-25T11:14:02Z</time>
      </trkpt>
      <trkpt lat="42.67482899999997" lon="-1.8854339999999992">
        <ele>463.426</ele>
        <time>2022-08-25T11:14:03Z</time>
      </trkpt>
      <trkpt lat="42.674835999999964" lon="-1.885453999999999">
        <ele>463.447</ele>
        <time>2022-08-25T11:14:04Z</time>
      </trkpt>
      <trkpt lat="42.674840999999965" lon="-1.885472999999999">
        <ele>463.411</ele>
        <time>2022-08-25T11:14:05Z</time>
      </trkpt>
      <trkpt lat="42.67484499999996" lon="-1.885491999999999">
        <ele>463.409</ele>
        <time>2022-08-25T11:14:06Z</time>
      </trkpt>
      <trkpt lat="42.67484799999996" lon="-1.885511999999999">
        <ele>463.643</ele>
        <time>2022-08-25T11:14:07Z</time>
      </trkpt>
      <trkpt lat="42.674849999999964" lon="-1.885537999999999">
        <ele>463.653</ele>
        <time>2022-08-25T11:14:08Z</time>
      </trkpt>
      <trkpt lat="42.674851999999966" lon="-1.885564999999999">
        <ele>463.893</ele>
        <time>2022-08-25T11:14:09Z</time>
      </trkpt>
      <trkpt lat="42.67485299999996" lon="-1.885591999999999">
        <ele>463.849</ele>
        <time>2022-08-25T11:14:10Z</time>
      </trkpt>
      <trkpt lat="42.67485599999996" lon="-1.885622999999999">
        <ele>463.841</ele>
        <time>2022-08-25T11:14:11Z</time>
      </trkpt>
      <trkpt lat="42.67485899999996" lon="-1.885651999999999">
        <ele>464.048</ele>
        <time>2022-08-25T11:14:12Z</time>
      </trkpt>
      <trkpt lat="42.67486799999996" lon="-1.885708999999999">
        <ele>464.021</ele>
        <time>2022-08-25T11:14:14Z</time>
      </trkpt>
      <trkpt lat="42.67491499999996" lon="-1.885880999999999">
        <ele>464.427</ele>
        <time>2022-08-25T11:14:19Z</time>
      </trkpt>
      <trkpt lat="42.674924999999966" lon="-1.885926999999999">
        <ele>464.638</ele>
        <time>2022-08-25T11:14:20Z</time>
      </trkpt>
      <trkpt lat="42.67493499999997" lon="-1.885964999999999">
        <ele>464.815</ele>
        <time>2022-08-25T11:14:21Z</time>
      </trkpt>
      <trkpt lat="42.67494399999997" lon="-1.886001999999999">
        <ele>465.065</ele>
        <time>2022-08-25T11:14:22Z</time>
      </trkpt>
      <trkpt lat="42.67494999999997" lon="-1.886028999999999">
        <ele>465.211</ele>
        <time>2022-08-25T11:14:23Z</time>
      </trkpt>
      <trkpt lat="42.67497799999997" lon="-1.8861389999999991">
        <ele>465.409</ele>
        <time>2022-08-25T11:14:26Z</time>
      </trkpt>
      <trkpt lat="42.674986999999966" lon="-1.8861809999999992">
        <ele>465.442</ele>
        <time>2022-08-25T11:14:27Z</time>
      </trkpt>
      <trkpt lat="42.675001999999964" lon="-1.8862449999999993">
        <ele>465.632</ele>
        <time>2022-08-25T11:14:29Z</time>
      </trkpt>
      <trkpt lat="42.67500599999996" lon="-1.8862779999999992">
        <ele>465.622</ele>
        <time>2022-08-25T11:14:30Z</time>
      </trkpt>
      <trkpt lat="42.67501499999996" lon="-1.8863149999999993">
        <ele>465.888</ele>
        <time>2022-08-25T11:14:31Z</time>
      </trkpt>
      <trkpt lat="42.67502299999996" lon="-1.8863469999999993">
        <ele>465.860</ele>
        <time>2022-08-25T11:14:32Z</time>
      </trkpt>
      <trkpt lat="42.67502399999996" lon="-1.8863719999999993">
        <ele>466.267</ele>
        <time>2022-08-25T11:14:33Z</time>
      </trkpt>
      <trkpt lat="42.67502699999996" lon="-1.8864029999999992">
        <ele>466.890</ele>
        <time>2022-08-25T11:14:34Z</time>
      </trkpt>
      <trkpt lat="42.67503299999996" lon="-1.8864329999999991">
        <ele>466.826</ele>
        <time>2022-08-25T11:14:35Z</time>
      </trkpt>
      <trkpt lat="42.675038999999956" lon="-1.8864619999999992">
        <ele>467.437</ele>
        <time>2022-08-25T11:14:36Z</time>
      </trkpt>
      <trkpt lat="42.675044999999955" lon="-1.8864909999999993">
        <ele>467.454</ele>
        <time>2022-08-25T11:14:37Z</time>
      </trkpt>
      <trkpt lat="42.675049999999956" lon="-1.8865179999999993">
        <ele>467.656</ele>
        <time>2022-08-25T11:14:38Z</time>
      </trkpt>
      <trkpt lat="42.675055999999955" lon="-1.8865459999999992">
        <ele>467.811</ele>
        <time>2022-08-25T11:14:39Z</time>
      </trkpt>
      <trkpt lat="42.67505999999995" lon="-1.8865779999999992">
        <ele>467.809</ele>
        <time>2022-08-25T11:14:40Z</time>
      </trkpt>
      <trkpt lat="42.67506699999995" lon="-1.8866159999999992">
        <ele>468.096</ele>
        <time>2022-08-25T11:14:41Z</time>
      </trkpt>
      <trkpt lat="42.675073999999945" lon="-1.8866479999999992">
        <ele>468.286</ele>
        <time>2022-08-25T11:14:42Z</time>
      </trkpt>
      <trkpt lat="42.675076999999945" lon="-1.8866709999999993">
        <ele>468.286</ele>
        <time>2022-08-25T11:14:43Z</time>
      </trkpt>
      <trkpt lat="42.675081999999946" lon="-1.8866999999999994">
        <ele>468.472</ele>
        <time>2022-08-25T11:14:44Z</time>
      </trkpt>
      <trkpt lat="42.67508899999994" lon="-1.8867269999999994">
        <ele>468.444</ele>
        <time>2022-08-25T11:14:45Z</time>
      </trkpt>
      <trkpt lat="42.675098999999946" lon="-1.8867609999999995">
        <ele>468.441</ele>
        <time>2022-08-25T11:14:46Z</time>
      </trkpt>
      <trkpt lat="42.67510399999995" lon="-1.8867849999999995">
        <ele>468.684</ele>
        <time>2022-08-25T11:14:47Z</time>
      </trkpt>
      <trkpt lat="42.67510899999995" lon="-1.8868199999999995">
        <ele>468.630</ele>
        <time>2022-08-25T11:14:48Z</time>
      </trkpt>
      <trkpt lat="42.675112999999946" lon="-1.8868419999999995">
        <ele>468.621</ele>
        <time>2022-08-25T11:14:49Z</time>
      </trkpt>
      <trkpt lat="42.67511799999995" lon="-1.8868709999999995">
        <ele>468.685</ele>
        <time>2022-08-25T11:14:50Z</time>
      </trkpt>
      <trkpt lat="42.67512399999995" lon="-1.8869089999999995">
        <ele>468.889</ele>
        <time>2022-08-25T11:14:51Z</time>
      </trkpt>
      <trkpt lat="42.67513199999995" lon="-1.8869389999999995">
        <ele>468.817</ele>
        <time>2022-08-25T11:14:52Z</time>
      </trkpt>
      <trkpt lat="42.67513999999995" lon="-1.8869679999999995">
        <ele>468.809</ele>
        <time>2022-08-25T11:14:53Z</time>
      </trkpt>
      <trkpt lat="42.675143999999946" lon="-1.8869999999999996">
        <ele>468.869</ele>
        <time>2022-08-25T11:14:54Z</time>
      </trkpt>
      <trkpt lat="42.67514899999995" lon="-1.8870259999999996">
        <ele>468.859</ele>
        <time>2022-08-25T11:14:55Z</time>
      </trkpt>
      <trkpt lat="42.67515699999995" lon="-1.8870649999999995">
        <ele>468.839</ele>
        <time>2022-08-25T11:14:56Z</time>
      </trkpt>
      <trkpt lat="42.675163999999945" lon="-1.8870979999999995">
        <ele>468.835</ele>
        <time>2022-08-25T11:14:57Z</time>
      </trkpt>
      <trkpt lat="42.67517199999995" lon="-1.8871309999999994">
        <ele>468.847</ele>
        <time>2022-08-25T11:14:58Z</time>
      </trkpt>
      <trkpt lat="42.67517699999995" lon="-1.8871629999999995">
        <ele>468.884</ele>
        <time>2022-08-25T11:14:59Z</time>
      </trkpt>
      <trkpt lat="42.675183999999945" lon="-1.8871899999999995">
        <ele>468.877</ele>
        <time>2022-08-25T11:15:00Z</time>
      </trkpt>
      <trkpt lat="42.67520199999994" lon="-1.8873049999999996">
        <ele>468.663</ele>
        <time>2022-08-25T11:15:03Z</time>
      </trkpt>
      <trkpt lat="42.675203999999944" lon="-1.8873409999999995">
        <ele>468.494</ele>
        <time>2022-08-25T11:15:04Z</time>
      </trkpt>
      <trkpt lat="42.67520699999994" lon="-1.8873749999999996">
        <ele>468.289</ele>
        <time>2022-08-25T11:15:05Z</time>
      </trkpt>
      <trkpt lat="42.67524399999994" lon="-1.8875349999999995">
        <ele>467.806</ele>
        <time>2022-08-25T11:15:10Z</time>
      </trkpt>
      <trkpt lat="42.675276999999944" lon="-1.8877059999999994">
        <ele>467.426</ele>
        <time>2022-08-25T11:15:15Z</time>
      </trkpt>
      <trkpt lat="42.675307999999944" lon="-1.8878209999999995">
        <ele>467.209</ele>
        <time>2022-08-25T11:15:18Z</time>
      </trkpt>
      <trkpt lat="42.67538799999994" lon="-1.8880429999999995">
        <ele>467.039</ele>
        <time>2022-08-25T11:15:24Z</time>
      </trkpt>
      <trkpt lat="42.675473999999944" lon="-1.8882129999999995">
        <ele>467.049</ele>
        <time>2022-08-25T11:15:29Z</time>
      </trkpt>
      <trkpt lat="42.675487999999945" lon="-1.8882469999999996">
        <ele>467.039</ele>
        <time>2022-08-25T11:15:30Z</time>
      </trkpt>
      <trkpt lat="42.675515999999945" lon="-1.8883179999999995">
        <ele>467.265</ele>
        <time>2022-08-25T11:15:32Z</time>
      </trkpt>
      <trkpt lat="42.675529999999945" lon="-1.8883549999999996">
        <ele>467.247</ele>
        <time>2022-08-25T11:15:33Z</time>
      </trkpt>
      <trkpt lat="42.67554499999994" lon="-1.8883909999999995">
        <ele>467.244</ele>
        <time>2022-08-25T11:15:34Z</time>
      </trkpt>
      <trkpt lat="42.67556799999994" lon="-1.8885059999999996">
        <ele>467.247</ele>
        <time>2022-08-25T11:15:37Z</time>
      </trkpt>
      <trkpt lat="42.67560799999994" lon="-1.8888739999999995">
        <ele>466.643</ele>
        <time>2022-08-25T11:15:45Z</time>
      </trkpt>
      <trkpt lat="42.67561499999994" lon="-1.8889209999999994">
        <ele>466.684</ele>
        <time>2022-08-25T11:15:46Z</time>
      </trkpt>
      <trkpt lat="42.67562499999994" lon="-1.8889639999999994">
        <ele>466.621</ele>
        <time>2022-08-25T11:15:47Z</time>
      </trkpt>
      <trkpt lat="42.67563099999994" lon="-1.8889939999999994">
        <ele>466.641</ele>
        <time>2022-08-25T11:15:48Z</time>
      </trkpt>
      <trkpt lat="42.67563599999994" lon="-1.8890289999999994">
        <ele>466.605</ele>
        <time>2022-08-25T11:15:49Z</time>
      </trkpt>
      <trkpt lat="42.67564799999994" lon="-1.8890659999999995">
        <ele>466.609</ele>
        <time>2022-08-25T11:15:50Z</time>
      </trkpt>
      <trkpt lat="42.67566099999994" lon="-1.8890929999999995">
        <ele>466.663</ele>
        <time>2022-08-25T11:15:51Z</time>
      </trkpt>
      <trkpt lat="42.67566099999994" lon="-1.8891199999999995">
        <ele>466.653</ele>
        <time>2022-08-25T11:15:52Z</time>
      </trkpt>
      <trkpt lat="42.67565299999994" lon="-1.8891479999999994">
        <ele>466.893</ele>
        <time>2022-08-25T11:15:53Z</time>
      </trkpt>
      <trkpt lat="42.67565199999994" lon="-1.8891719999999994">
        <ele>466.889</ele>
        <time>2022-08-25T11:15:54Z</time>
      </trkpt>
      <trkpt lat="42.675661999999946" lon="-1.8891969999999993">
        <ele>467.021</ele>
        <time>2022-08-25T11:15:55Z</time>
      </trkpt>
      <trkpt lat="42.67567799999995" lon="-1.8892139999999993">
        <ele>467.078</ele>
        <time>2022-08-25T11:15:56Z</time>
      </trkpt>
      <trkpt lat="42.675692999999946" lon="-1.8892289999999994">
        <ele>467.081</ele>
        <time>2022-08-25T11:15:57Z</time>
      </trkpt>
      <trkpt lat="42.675698999999945" lon="-1.8892449999999994">
        <ele>467.077</ele>
        <time>2022-08-25T11:15:58Z</time>
      </trkpt>
      <trkpt lat="42.67569699999994" lon="-1.8892599999999995">
        <ele>467.248</ele>
        <time>2022-08-25T11:15:59Z</time>
      </trkpt>
      <trkpt lat="42.67568299999994" lon="-1.8892679999999995">
        <ele>467.268</ele>
        <time>2022-08-25T11:16:00Z</time>
      </trkpt>
      <trkpt lat="42.67567199999994" lon="-1.8892719999999994">
        <ele>467.442</ele>
        <time>2022-08-25T11:16:01Z</time>
      </trkpt>
      <trkpt lat="42.67564699999994" lon="-1.8892729999999993">
        <ele>467.426</ele>
        <time>2022-08-25T11:16:03Z</time>
      </trkpt>
      <trkpt lat="42.67563199999994" lon="-1.8892759999999993">
        <ele>467.609</ele>
        <time>2022-08-25T11:16:04Z</time>
      </trkpt>
      <trkpt lat="42.675619999999945" lon="-1.8892819999999992">
        <ele>467.637</ele>
        <time>2022-08-25T11:16:05Z</time>
      </trkpt>
      <trkpt lat="42.67560999999994" lon="-1.8892939999999991">
        <ele>467.637</ele>
        <time>2022-08-25T11:16:06Z</time>
      </trkpt>
      <trkpt lat="42.67560799999994" lon="-1.889297999999999">
        <ele>467.627</ele>
        <time>2022-08-25T11:16:07Z</time>
      </trkpt>
      <trkpt lat="42.67560399999994" lon="-1.889301999999999">
        <ele>467.623</ele>
        <time>2022-08-25T11:16:08Z</time>
      </trkpt>
      <trkpt lat="42.67559699999995" lon="-1.889308999999999">
        <ele>467.615</ele>
        <time>2022-08-25T11:16:09Z</time>
      </trkpt>
      <trkpt lat="42.67558499999995" lon="-1.889315999999999">
        <ele>467.692</ele>
        <time>2022-08-25T11:16:10Z</time>
      </trkpt>
      <trkpt lat="42.675568999999946" lon="-1.8893239999999991">
        <ele>467.645</ele>
        <time>2022-08-25T11:16:11Z</time>
      </trkpt>
      <trkpt lat="42.675560999999945" lon="-1.889337999999999">
        <ele>467.621</ele>
        <time>2022-08-25T11:16:12Z</time>
      </trkpt>
      <trkpt lat="42.67555999999995" lon="-1.889345999999999">
        <ele>467.662</ele>
        <time>2022-08-25T11:16:13Z</time>
      </trkpt>
      <trkpt lat="42.67555999999995" lon="-1.889345999999999">
        <ele>467.688</ele>
        <time>2022-08-25T11:16:14Z</time>
      </trkpt>
      <trkpt lat="42.67558999999995" lon="-1.8893639999999992">
        <ele>468.024</ele>
        <time>2022-08-25T11:18:55Z</time>
      </trkpt>
      <trkpt lat="42.67558999999995" lon="-1.8893639999999992">
        <ele>468.026</ele>
        <time>2022-08-25T11:18:57Z</time>
      </trkpt>
      <trkpt lat="42.67558999999995" lon="-1.8893639999999992">
        <ele>468.009</ele>
        <time>2022-08-25T11:19:06Z</time>
      </trkpt>
      <trkpt lat="42.67558999999995" lon="-1.8893639999999992">
        <ele>468.099</ele>
        <time>2022-08-25T11:19:08Z</time>
      </trkpt>
      <trkpt lat="42.67558999999995" lon="-1.8893639999999992">
        <ele>468.039</ele>
        <time>2022-08-25T11:19:12Z</time>
      </trkpt>
      <trkpt lat="42.67558999999995" lon="-1.8894129999999991">
        <ele>470.639</ele>
        <time>2022-08-25T11:23:20Z</time>
      </trkpt>
      <trkpt lat="42.67559199999995" lon="-1.889437999999999">
        <ele>470.675</ele>
        <time>2022-08-25T11:23:21Z</time>
      </trkpt>
      <trkpt lat="42.67559199999995" lon="-1.889461999999999">
        <ele>470.427</ele>
        <time>2022-08-25T11:23:22Z</time>
      </trkpt>
      <trkpt lat="42.67558399999995" lon="-1.8894849999999992">
        <ele>470.414</ele>
        <time>2022-08-25T11:23:23Z</time>
      </trkpt>
      <trkpt lat="42.67553699999995" lon="-1.889674999999999">
        <ele>470.297</ele>
        <time>2022-08-25T11:23:30Z</time>
      </trkpt>
      <trkpt lat="42.67551999999995" lon="-1.889809999999999">
        <ele>470.473</ele>
        <time>2022-08-25T11:23:35Z</time>
      </trkpt>
      <trkpt lat="42.67552099999995" lon="-1.8898329999999992">
        <ele>470.634</ele>
        <time>2022-08-25T11:23:36Z</time>
      </trkpt>
      <trkpt lat="42.67552899999995" lon="-1.8898529999999991">
        <ele>470.656</ele>
        <time>2022-08-25T11:23:37Z</time>
      </trkpt>
      <trkpt lat="42.675535999999944" lon="-1.8898709999999992">
        <ele>470.859</ele>
        <time>2022-08-25T11:23:38Z</time>
      </trkpt>
      <trkpt lat="42.67554299999994" lon="-1.8898969999999993">
        <ele>471.214</ele>
        <time>2022-08-25T11:23:39Z</time>
      </trkpt>
      <trkpt lat="42.67554899999994" lon="-1.8899129999999993">
        <ele>471.209</ele>
        <time>2022-08-25T11:23:40Z</time>
      </trkpt>
      <trkpt lat="42.67555799999994" lon="-1.8899279999999994">
        <ele>471.686</ele>
        <time>2022-08-25T11:23:41Z</time>
      </trkpt>
      <trkpt lat="42.67556299999994" lon="-1.8899459999999995">
        <ele>471.666</ele>
        <time>2022-08-25T11:23:42Z</time>
      </trkpt>
      <trkpt lat="42.67557199999994" lon="-1.8899679999999994">
        <ele>471.886</ele>
        <time>2022-08-25T11:23:43Z</time>
      </trkpt>
      <trkpt lat="42.67557399999994" lon="-1.8899819999999994">
        <ele>472.032</ele>
        <time>2022-08-25T11:23:44Z</time>
      </trkpt>
      <trkpt lat="42.67558199999994" lon="-1.8899949999999994">
        <ele>472.254</ele>
        <time>2022-08-25T11:23:45Z</time>
      </trkpt>
      <trkpt lat="42.67559399999994" lon="-1.8900039999999994">
        <ele>472.261</ele>
        <time>2022-08-25T11:23:46Z</time>
      </trkpt>
      <trkpt lat="42.67560999999994" lon="-1.8900129999999993">
        <ele>472.434</ele>
        <time>2022-08-25T11:23:47Z</time>
      </trkpt>
      <trkpt lat="42.67562699999994" lon="-1.8900249999999992">
        <ele>472.440</ele>
        <time>2022-08-25T11:23:48Z</time>
      </trkpt>
      <trkpt lat="42.67564799999994" lon="-1.8900629999999992">
        <ele>473.071</ele>
        <time>2022-08-25T11:23:50Z</time>
      </trkpt>
      <trkpt lat="42.67564999999994" lon="-1.8900819999999992">
        <ele>473.075</ele>
        <time>2022-08-25T11:23:51Z</time>
      </trkpt>
      <trkpt lat="42.67565499999994" lon="-1.8900949999999992">
        <ele>473.228</ele>
        <time>2022-08-25T11:23:52Z</time>
      </trkpt>
      <trkpt lat="42.67566399999994" lon="-1.8900979999999992">
        <ele>473.420</ele>
        <time>2022-08-25T11:23:53Z</time>
      </trkpt>
      <trkpt lat="42.67567599999994" lon="-1.8901009999999991">
        <ele>473.609</ele>
        <time>2022-08-25T11:23:54Z</time>
      </trkpt>
      <trkpt lat="42.67568899999994" lon="-1.890114999999999">
        <ele>473.658</ele>
        <time>2022-08-25T11:23:55Z</time>
      </trkpt>
      <trkpt lat="42.67570099999994" lon="-1.890133999999999">
        <ele>473.898</ele>
        <time>2022-08-25T11:23:56Z</time>
      </trkpt>
      <trkpt lat="42.67571499999994" lon="-1.8901469999999991">
        <ele>474.078</ele>
        <time>2022-08-25T11:23:57Z</time>
      </trkpt>
      <trkpt lat="42.67572899999994" lon="-1.8901599999999992">
        <ele>474.294</ele>
        <time>2022-08-25T11:23:58Z</time>
      </trkpt>
      <trkpt lat="42.67574299999994" lon="-1.8901779999999992">
        <ele>474.226</ele>
        <time>2022-08-25T11:23:59Z</time>
      </trkpt>
      <trkpt lat="42.67575999999994" lon="-1.8901929999999993">
        <ele>474.473</ele>
        <time>2022-08-25T11:24:00Z</time>
      </trkpt>
      <trkpt lat="42.67577899999994" lon="-1.8902029999999994">
        <ele>474.456</ele>
        <time>2022-08-25T11:24:01Z</time>
      </trkpt>
      <trkpt lat="42.67579299999994" lon="-1.8902099999999995">
        <ele>474.652</ele>
        <time>2022-08-25T11:24:02Z</time>
      </trkpt>
      <trkpt lat="42.67582099999994" lon="-1.8902159999999995">
        <ele>475.423</ele>
        <time>2022-08-25T11:24:08Z</time>
      </trkpt>
      <trkpt lat="42.67582999999994" lon="-1.8902179999999995">
        <ele>475.484</ele>
        <time>2022-08-25T11:24:09Z</time>
      </trkpt>
      <trkpt lat="42.67583699999994" lon="-1.8902219999999994">
        <ele>475.607</ele>
        <time>2022-08-25T11:24:10Z</time>
      </trkpt>
      <trkpt lat="42.67584799999994" lon="-1.8902329999999994">
        <ele>475.617</ele>
        <time>2022-08-25T11:24:11Z</time>
      </trkpt>
      <trkpt lat="42.67585799999994" lon="-1.8902499999999993">
        <ele>475.809</ele>
        <time>2022-08-25T11:24:12Z</time>
      </trkpt>
      <trkpt lat="42.67586299999994" lon="-1.8902549999999994">
        <ele>475.839</ele>
        <time>2022-08-25T11:24:13Z</time>
      </trkpt>
      <trkpt lat="42.675872999999946" lon="-1.8902699999999995">
        <ele>475.859</ele>
        <time>2022-08-25T11:24:14Z</time>
      </trkpt>
      <trkpt lat="42.67588899999995" lon="-1.8902829999999995">
        <ele>476.069</ele>
        <time>2022-08-25T11:24:15Z</time>
      </trkpt>
      <trkpt lat="42.67589999999995" lon="-1.8902919999999994">
        <ele>476.045</ele>
        <time>2022-08-25T11:24:16Z</time>
      </trkpt>
      <trkpt lat="42.67591399999995" lon="-1.8903079999999994">
        <ele>476.097</ele>
        <time>2022-08-25T11:24:17Z</time>
      </trkpt>
      <trkpt lat="42.675931999999946" lon="-1.8903119999999993">
        <ele>476.054</ele>
        <time>2022-08-25T11:24:18Z</time>
      </trkpt>
      <trkpt lat="42.675943999999944" lon="-1.8903139999999994">
        <ele>476.267</ele>
        <time>2022-08-25T11:24:19Z</time>
      </trkpt>
      <trkpt lat="42.67595299999994" lon="-1.8903219999999994">
        <ele>476.253</ele>
        <time>2022-08-25T11:24:20Z</time>
      </trkpt>
      <trkpt lat="42.67595699999994" lon="-1.8903219999999994">
        <ele>476.484</ele>
        <time>2022-08-25T11:24:21Z</time>
      </trkpt>
      <trkpt lat="42.67596299999994" lon="-1.8903339999999993">
        <ele>476.477</ele>
        <time>2022-08-25T11:24:22Z</time>
      </trkpt>
      <trkpt lat="42.67596899999994" lon="-1.8903429999999992">
        <ele>476.461</ele>
        <time>2022-08-25T11:24:23Z</time>
      </trkpt>
      <trkpt lat="42.675975999999935" lon="-1.8903469999999991">
        <ele>476.627</ele>
        <time>2022-08-25T11:24:24Z</time>
      </trkpt>
      <trkpt lat="42.67598599999994" lon="-1.8903489999999992">
        <ele>476.609</ele>
        <time>2022-08-25T11:24:25Z</time>
      </trkpt>
      <trkpt lat="42.67600199999994" lon="-1.8903449999999993">
        <ele>476.698</ele>
        <time>2022-08-25T11:24:26Z</time>
      </trkpt>
      <trkpt lat="42.67602099999994" lon="-1.8903569999999992">
        <ele>476.858</ele>
        <time>2022-08-25T11:24:28Z</time>
      </trkpt>
      <trkpt lat="42.67602899999994" lon="-1.8903629999999991">
        <ele>477.238</ele>
        <time>2022-08-25T11:24:29Z</time>
      </trkpt>
      <trkpt lat="42.67603199999994" lon="-1.8903649999999992">
        <ele>477.464</ele>
        <time>2022-08-25T11:24:30Z</time>
      </trkpt>
      <trkpt lat="42.67603199999994" lon="-1.8903649999999992">
        <ele>477.686</ele>
        <time>2022-08-25T11:24:31Z</time>
      </trkpt>
      <trkpt lat="42.67603199999994" lon="-1.8903649999999992">
        <ele>478.053</ele>
        <time>2022-08-25T11:24:45Z</time>
      </trkpt>
      <trkpt lat="42.67603199999994" lon="-1.8903649999999992">
        <ele>478.086</ele>
        <time>2022-08-25T11:24:46Z</time>
      </trkpt>
      <trkpt lat="42.67603199999994" lon="-1.8903649999999992">
        <ele>478.042</ele>
        <time>2022-08-25T11:24:49Z</time>
      </trkpt>
      <trkpt lat="42.67603199999994" lon="-1.8903649999999992">
        <ele>478.073</ele>
        <time>2022-08-25T11:24:52Z</time>
      </trkpt>
      <trkpt lat="42.67603199999994" lon="-1.8903619999999992">
        <ele>478.096</ele>
        <time>2022-08-25T11:24:53Z</time>
      </trkpt>
      <trkpt lat="42.67603199999994" lon="-1.8903509999999992">
        <ele>478.031</ele>
        <time>2022-08-25T11:24:54Z</time>
      </trkpt>
      <trkpt lat="42.67603199999994" lon="-1.8903489999999992">
        <ele>477.824</ele>
        <time>2022-08-25T11:24:56Z</time>
      </trkpt>
      <trkpt lat="42.67603499999994" lon="-1.8903489999999992">
        <ele>477.809</ele>
        <time>2022-08-25T11:24:57Z</time>
      </trkpt>
      <trkpt lat="42.67604199999994" lon="-1.890352999999999">
        <ele>477.660</ele>
        <time>2022-08-25T11:24:58Z</time>
      </trkpt>
      <trkpt lat="42.67603999999994" lon="-1.890366999999999">
        <ele>477.420</ele>
        <time>2022-08-25T11:25:00Z</time>
      </trkpt>
      <trkpt lat="42.67603899999994" lon="-1.890394999999999">
        <ele>477.430</ele>
        <time>2022-08-25T11:25:02Z</time>
      </trkpt>
      <trkpt lat="42.67604099999994" lon="-1.890397999999999">
        <ele>477.426</ele>
        <time>2022-08-25T11:25:03Z</time>
      </trkpt>
      <trkpt lat="42.67604099999994" lon="-1.890397999999999">
        <ele>477.438</ele>
        <time>2022-08-25T11:25:04Z</time>
      </trkpt>
      <trkpt lat="42.67604099999994" lon="-1.890397999999999">
        <ele>477.465</ele>
        <time>2022-08-25T11:25:05Z</time>
      </trkpt>
      <trkpt lat="42.67604099999994" lon="-1.890397999999999">
        <ele>477.648</ele>
        <time>2022-08-25T11:25:06Z</time>
      </trkpt>
      <trkpt lat="42.67604099999994" lon="-1.890397999999999">
        <ele>477.854</ele>
        <time>2022-08-25T11:25:07Z</time>
      </trkpt>
      <trkpt lat="42.67604099999994" lon="-1.890397999999999">
        <ele>478.025</ele>
        <time>2022-08-25T11:25:08Z</time>
      </trkpt>
      <trkpt lat="42.67604099999994" lon="-1.890397999999999">
        <ele>478.052</ele>
        <time>2022-08-25T11:25:09Z</time>
      </trkpt>
      <trkpt lat="42.67604099999994" lon="-1.890402999999999">
        <ele>478.253</ele>
        <time>2022-08-25T11:25:10Z</time>
      </trkpt>
      <trkpt lat="42.67603299999994" lon="-1.890445999999999">
        <ele>478.608</ele>
        <time>2022-08-25T11:25:11Z</time>
      </trkpt>
      <trkpt lat="42.67602899999994" lon="-1.890475999999999">
        <ele>478.809</ele>
        <time>2022-08-25T11:25:12Z</time>
      </trkpt>
      <trkpt lat="42.676024999999946" lon="-1.890497999999999">
        <ele>479.256</ele>
        <time>2022-08-25T11:25:13Z</time>
      </trkpt>
      <trkpt lat="42.676022999999944" lon="-1.8905199999999989">
        <ele>479.436</ele>
        <time>2022-08-25T11:25:14Z</time>
      </trkpt>
      <trkpt lat="42.67602099999994" lon="-1.890540999999999">
        <ele>479.496</ele>
        <time>2022-08-25T11:25:15Z</time>
      </trkpt>
      <trkpt lat="42.67601899999994" lon="-1.8905689999999988">
        <ele>479.672</ele>
        <time>2022-08-25T11:25:16Z</time>
      </trkpt>
      <trkpt lat="42.67602099999994" lon="-1.890594999999999">
        <ele>479.844</ele>
        <time>2022-08-25T11:25:17Z</time>
      </trkpt>
      <trkpt lat="42.67602099999994" lon="-1.890620999999999">
        <ele>479.841</ele>
        <time>2022-08-25T11:25:18Z</time>
      </trkpt>
      <trkpt lat="42.676016999999945" lon="-1.890638999999999">
        <ele>480.044</ele>
        <time>2022-08-25T11:25:19Z</time>
      </trkpt>
      <trkpt lat="42.67601599999995" lon="-1.890649999999999">
        <ele>480.050</ele>
        <time>2022-08-25T11:25:20Z</time>
      </trkpt>
      <trkpt lat="42.676013999999945" lon="-1.890654999999999">
        <ele>480.271</ele>
        <time>2022-08-25T11:25:21Z</time>
      </trkpt>
      <trkpt lat="42.67600099999994" lon="-1.890663999999999">
        <ele>480.427</ele>
        <time>2022-08-25T11:25:23Z</time>
      </trkpt>
      <trkpt lat="42.675991999999944" lon="-1.890679999999999">
        <ele>480.468</ele>
        <time>2022-08-25T11:25:24Z</time>
      </trkpt>
      <trkpt lat="42.67598699999994" lon="-1.890696999999999">
        <ele>480.814</ele>
        <time>2022-08-25T11:25:25Z</time>
      </trkpt>
      <trkpt lat="42.675982999999945" lon="-1.890717999999999">
        <ele>481.009</ele>
        <time>2022-08-25T11:25:26Z</time>
      </trkpt>
      <trkpt lat="42.675977999999944" lon="-1.890746999999999">
        <ele>481.283</ele>
        <time>2022-08-25T11:25:27Z</time>
      </trkpt>
      <trkpt lat="42.67597599999994" lon="-1.8907649999999991">
        <ele>481.683</ele>
        <time>2022-08-25T11:25:28Z</time>
      </trkpt>
      <trkpt lat="42.675971999999945" lon="-1.8907779999999992">
        <ele>481.693</ele>
        <time>2022-08-25T11:25:29Z</time>
      </trkpt>
      <trkpt lat="42.67596999999994" lon="-1.8907909999999992">
        <ele>482.019</ele>
        <time>2022-08-25T11:25:30Z</time>
      </trkpt>
      <trkpt lat="42.675954999999945" lon="-1.8908079999999992">
        <ele>482.061</ele>
        <time>2022-08-25T11:25:31Z</time>
      </trkpt>
      <trkpt lat="42.675948999999946" lon="-1.8908129999999992">
        <ele>482.248</ele>
        <time>2022-08-25T11:25:32Z</time>
      </trkpt>
      <trkpt lat="42.675940999999945" lon="-1.8908229999999993">
        <ele>482.231</ele>
        <time>2022-08-25T11:25:33Z</time>
      </trkpt>
      <trkpt lat="42.675931999999946" lon="-1.8908279999999993">
        <ele>482.477</ele>
        <time>2022-08-25T11:25:34Z</time>
      </trkpt>
      <trkpt lat="42.67592199999994" lon="-1.8908349999999994">
        <ele>482.648</ele>
        <time>2022-08-25T11:25:35Z</time>
      </trkpt>
      <trkpt lat="42.675915999999944" lon="-1.8908449999999994">
        <ele>482.673</ele>
        <time>2022-08-25T11:25:36Z</time>
      </trkpt>
      <trkpt lat="42.67591199999995" lon="-1.8908559999999994">
        <ele>482.885</ele>
        <time>2022-08-25T11:25:37Z</time>
      </trkpt>
      <trkpt lat="42.67591099999995" lon="-1.8908659999999995">
        <ele>482.813</ele>
        <time>2022-08-25T11:25:38Z</time>
      </trkpt>
      <trkpt lat="42.67590999999995" lon="-1.8908799999999995">
        <ele>483.009</ele>
        <time>2022-08-25T11:25:39Z</time>
      </trkpt>
      <trkpt lat="42.675908999999955" lon="-1.8908909999999994">
        <ele>483.068</ele>
        <time>2022-08-25T11:25:40Z</time>
      </trkpt>
      <trkpt lat="42.67590699999995" lon="-1.8909019999999994">
        <ele>483.248</ele>
        <time>2022-08-25T11:25:41Z</time>
      </trkpt>
      <trkpt lat="42.67590399999995" lon="-1.8909089999999995">
        <ele>483.418</ele>
        <time>2022-08-25T11:25:42Z</time>
      </trkpt>
      <trkpt lat="42.67590099999995" lon="-1.8909189999999996">
        <ele>483.434</ele>
        <time>2022-08-25T11:25:43Z</time>
      </trkpt>
      <trkpt lat="42.67589899999995" lon="-1.8909329999999995">
        <ele>483.656</ele>
        <time>2022-08-25T11:25:44Z</time>
      </trkpt>
      <trkpt lat="42.67589299999995" lon="-1.8909499999999995">
        <ele>483.873</ele>
        <time>2022-08-25T11:25:45Z</time>
      </trkpt>
      <trkpt lat="42.675888999999955" lon="-1.8909589999999994">
        <ele>483.896</ele>
        <time>2022-08-25T11:25:46Z</time>
      </trkpt>
      <trkpt lat="42.675883999999954" lon="-1.8909689999999995">
        <ele>483.882</ele>
        <time>2022-08-25T11:25:47Z</time>
      </trkpt>
      <trkpt lat="42.675883999999954" lon="-1.8909779999999994">
        <ele>483.823</ele>
        <time>2022-08-25T11:25:48Z</time>
      </trkpt>
      <trkpt lat="42.675880999999954" lon="-1.8909869999999993">
        <ele>484.295</ele>
        <time>2022-08-25T11:25:49Z</time>
      </trkpt>
      <trkpt lat="42.67587399999996" lon="-1.8909979999999993">
        <ele>484.449</ele>
        <time>2022-08-25T11:25:50Z</time>
      </trkpt>
      <trkpt lat="42.675863999999955" lon="-1.8910109999999993">
        <ele>484.423</ele>
        <time>2022-08-25T11:25:51Z</time>
      </trkpt>
      <trkpt lat="42.67584899999996" lon="-1.8910239999999994">
        <ele>484.609</ele>
        <time>2022-08-25T11:25:52Z</time>
      </trkpt>
      <trkpt lat="42.675840999999956" lon="-1.8910339999999994">
        <ele>484.880</ele>
        <time>2022-08-25T11:25:53Z</time>
      </trkpt>
      <trkpt lat="42.67583499999996" lon="-1.8910429999999994">
        <ele>485.060</ele>
        <time>2022-08-25T11:25:54Z</time>
      </trkpt>
      <trkpt lat="42.675826999999956" lon="-1.8910569999999993">
        <ele>485.450</ele>
        <time>2022-08-25T11:25:55Z</time>
      </trkpt>
      <trkpt lat="42.67582499999995" lon="-1.8910609999999992">
        <ele>485.816</ele>
        <time>2022-08-25T11:25:56Z</time>
      </trkpt>
      <trkpt lat="42.67582099999996" lon="-1.8910679999999993">
        <ele>486.068</ele>
        <time>2022-08-25T11:25:57Z</time>
      </trkpt>
      <trkpt lat="42.675818999999954" lon="-1.8910839999999993">
        <ele>486.045</ele>
        <time>2022-08-25T11:25:58Z</time>
      </trkpt>
      <trkpt lat="42.67581699999995" lon="-1.8910949999999993">
        <ele>486.468</ele>
        <time>2022-08-25T11:25:59Z</time>
      </trkpt>
      <trkpt lat="42.67581199999995" lon="-1.8911039999999992">
        <ele>486.684</ele>
        <time>2022-08-25T11:26:00Z</time>
      </trkpt>
      <trkpt lat="42.675804999999954" lon="-1.8911149999999992">
        <ele>487.035</ele>
        <time>2022-08-25T11:26:01Z</time>
      </trkpt>
      <trkpt lat="42.675798999999955" lon="-1.8911219999999993">
        <ele>487.436</ele>
        <time>2022-08-25T11:26:02Z</time>
      </trkpt>
      <trkpt lat="42.67579199999996" lon="-1.8911299999999993">
        <ele>487.617</ele>
        <time>2022-08-25T11:26:03Z</time>
      </trkpt>
      <trkpt lat="42.67578999999996" lon="-1.8911439999999993">
        <ele>487.818</ele>
        <time>2022-08-25T11:26:04Z</time>
      </trkpt>
      <trkpt lat="42.67577999999995" lon="-1.8911609999999992">
        <ele>487.809</ele>
        <time>2022-08-25T11:26:05Z</time>
      </trkpt>
      <trkpt lat="42.67577299999996" lon="-1.8911739999999992">
        <ele>488.054</ele>
        <time>2022-08-25T11:26:06Z</time>
      </trkpt>
      <trkpt lat="42.675762999999954" lon="-1.8911819999999993">
        <ele>488.294</ele>
        <time>2022-08-25T11:26:07Z</time>
      </trkpt>
      <trkpt lat="42.67575499999995" lon="-1.8911899999999993">
        <ele>488.474</ele>
        <time>2022-08-25T11:26:08Z</time>
      </trkpt>
      <trkpt lat="42.675745999999954" lon="-1.8911909999999992">
        <ele>488.850</ele>
        <time>2022-08-25T11:26:09Z</time>
      </trkpt>
      <trkpt lat="42.67572799999996" lon="-1.8911869999999993">
        <ele>488.822</ele>
        <time>2022-08-25T11:26:10Z</time>
      </trkpt>
      <trkpt lat="42.67571099999996" lon="-1.8911799999999992">
        <ele>489.259</ele>
        <time>2022-08-25T11:26:11Z</time>
      </trkpt>
      <trkpt lat="42.675699999999956" lon="-1.8911789999999993">
        <ele>489.212</ele>
        <time>2022-08-25T11:26:12Z</time>
      </trkpt>
      <trkpt lat="42.675685999999956" lon="-1.8911889999999993">
        <ele>489.478</ele>
        <time>2022-08-25T11:26:13Z</time>
      </trkpt>
      <trkpt lat="42.675671999999956" lon="-1.8911989999999994">
        <ele>489.679</ele>
        <time>2022-08-25T11:26:14Z</time>
      </trkpt>
      <trkpt lat="42.67566199999995" lon="-1.8912019999999994">
        <ele>489.688</ele>
        <time>2022-08-25T11:26:15Z</time>
      </trkpt>
      <trkpt lat="42.67565199999995" lon="-1.8912079999999993">
        <ele>489.824</ele>
        <time>2022-08-25T11:26:16Z</time>
      </trkpt>
      <trkpt lat="42.67563499999995" lon="-1.8912139999999993">
        <ele>489.826</ele>
        <time>2022-08-25T11:26:17Z</time>
      </trkpt>
      <trkpt lat="42.67562099999995" lon="-1.8912099999999994">
        <ele>490.009</ele>
        <time>2022-08-25T11:26:18Z</time>
      </trkpt>
      <trkpt lat="42.67560499999995" lon="-1.8912149999999994">
        <ele>490.089</ele>
        <time>2022-08-25T11:26:19Z</time>
      </trkpt>
      <trkpt lat="42.67559599999995" lon="-1.8912179999999994">
        <ele>490.079</ele>
        <time>2022-08-25T11:26:20Z</time>
      </trkpt>
      <trkpt lat="42.67558999999995" lon="-1.8912209999999994">
        <ele>490.259</ele>
        <time>2022-08-25T11:26:21Z</time>
      </trkpt>
      <trkpt lat="42.67557999999995" lon="-1.8912309999999994">
        <ele>490.285</ele>
        <time>2022-08-25T11:26:22Z</time>
      </trkpt>
      <trkpt lat="42.67556799999995" lon="-1.8912419999999994">
        <ele>490.437</ele>
        <time>2022-08-25T11:26:23Z</time>
      </trkpt>
      <trkpt lat="42.67555099999995" lon="-1.8912509999999993">
        <ele>490.494</ele>
        <time>2022-08-25T11:26:24Z</time>
      </trkpt>
      <trkpt lat="42.67553499999995" lon="-1.8912539999999993">
        <ele>490.487</ele>
        <time>2022-08-25T11:26:25Z</time>
      </trkpt>
      <trkpt lat="42.675521999999944" lon="-1.8912519999999993">
        <ele>490.433</ele>
        <time>2022-08-25T11:26:26Z</time>
      </trkpt>
      <trkpt lat="42.675509999999946" lon="-1.8912589999999994">
        <ele>490.684</ele>
        <time>2022-08-25T11:26:27Z</time>
      </trkpt>
      <trkpt lat="42.675504999999944" lon="-1.8912659999999994">
        <ele>490.646</ele>
        <time>2022-08-25T11:26:28Z</time>
      </trkpt>
      <trkpt lat="42.675504999999944" lon="-1.8912659999999994">
        <ele>490.688</ele>
        <time>2022-08-25T11:26:29Z</time>
      </trkpt>
      <trkpt lat="42.675504999999944" lon="-1.8912659999999994">
        <ele>491.016</ele>
        <time>2022-08-25T11:26:42Z</time>
      </trkpt>
      <trkpt lat="42.675504999999944" lon="-1.8912659999999994">
        <ele>491.009</ele>
        <time>2022-08-25T11:26:43Z</time>
      </trkpt>
      <trkpt lat="42.675504999999944" lon="-1.8912659999999994">
        <ele>491.085</ele>
        <time>2022-08-25T11:26:44Z</time>
      </trkpt>
      <trkpt lat="42.67742799999994" lon="-1.8973429999999996">
        <ele>454.885</ele>
        <time>2022-08-25T11:53:37Z</time>
      </trkpt>
      <trkpt lat="42.677401999999944" lon="-1.8974369999999996">
        <ele>454.625</ele>
        <time>2022-08-25T11:53:38Z</time>
      </trkpt>
      <trkpt lat="42.677296999999946" lon="-1.8978429999999995">
        <ele>453.221</ele>
        <time>2022-08-25T11:53:42Z</time>
      </trkpt>
      <trkpt lat="42.677266999999944" lon="-1.8979519999999994">
        <ele>452.883</ele>
        <time>2022-08-25T11:53:43Z</time>
      </trkpt>
      <trkpt lat="42.677234999999946" lon="-1.8980649999999994">
        <ele>452.680</ele>
        <time>2022-08-25T11:53:44Z</time>
      </trkpt>
      <trkpt lat="42.67717299999995" lon="-1.8983029999999994">
        <ele>451.843</ele>
        <time>2022-08-25T11:53:46Z</time>
      </trkpt>
      <trkpt lat="42.677068999999946" lon="-1.8986879999999995">
        <ele>450.029</ele>
        <time>2022-08-25T11:53:49Z</time>
      </trkpt>
      <trkpt lat="42.67703099999994" lon="-1.8988249999999995">
        <ele>449.680</ele>
        <time>2022-08-25T11:53:50Z</time>
      </trkpt>
      <trkpt lat="42.676993999999944" lon="-1.8989619999999996">
        <ele>449.042</ele>
        <time>2022-08-25T11:53:51Z</time>
      </trkpt>
      <trkpt lat="42.676917999999944" lon="-1.8992459999999995">
        <ele>447.422</ele>
        <time>2022-08-25T11:53:53Z</time>
      </trkpt>
      <trkpt lat="42.67683799999995" lon="-1.8995359999999994">
        <ele>446.214</ele>
        <time>2022-08-25T11:53:55Z</time>
      </trkpt>
      <trkpt lat="42.676753999999946" lon="-1.8998289999999995">
        <ele>445.209</ele>
        <time>2022-08-25T11:53:57Z</time>
      </trkpt>
      <trkpt lat="42.676708999999946" lon="-1.8999749999999995">
        <ele>444.415</ele>
        <time>2022-08-25T11:53:58Z</time>
      </trkpt>
      <trkpt lat="42.676610999999944" lon="-1.9002599999999996">
        <ele>443.435</ele>
        <time>2022-08-25T11:54:00Z</time>
      </trkpt>
      <trkpt lat="42.67656099999994" lon="-1.9003999999999996">
        <ele>442.645</ele>
        <time>2022-08-25T11:54:01Z</time>
      </trkpt>
      <trkpt lat="42.67650999999994" lon="-1.9005399999999997">
        <ele>442.281</ele>
        <time>2022-08-25T11:54:02Z</time>
      </trkpt>
      <trkpt lat="42.67650999999994" lon="-1.9005399999999997">
        <ele>441.213</ele>
        <time>2022-08-25T11:54:03Z</time>
      </trkpt>
      <trkpt lat="42.67641299999995" lon="-1.9008169999999998">
        <ele>440.860</ele>
        <time>2022-08-25T11:54:04Z</time>
      </trkpt>
      <trkpt lat="42.67636499999995" lon="-1.9009529999999997">
        <ele>440.043</ele>
        <time>2022-08-25T11:54:05Z</time>
      </trkpt>
      <trkpt lat="42.67636499999995" lon="-1.9009529999999997">
        <ele>439.269</ele>
        <time>2022-08-25T11:54:06Z</time>
      </trkpt>
      <trkpt lat="42.67626899999995" lon="-1.9012189999999998">
        <ele>438.840</ele>
        <time>2022-08-25T11:54:07Z</time>
      </trkpt>
      <trkpt lat="42.67622299999995" lon="-1.9013509999999998">
        <ele>438.028</ele>
        <time>2022-08-25T11:54:08Z</time>
      </trkpt>
      <trkpt lat="42.67617999999995" lon="-1.9014769999999999">
        <ele>437.689</ele>
        <time>2022-08-25T11:54:09Z</time>
      </trkpt>
      <trkpt lat="42.676136999999954" lon="-1.901603">
        <ele>437.017</ele>
        <time>2022-08-25T11:54:10Z</time>
      </trkpt>
      <trkpt lat="42.67609399999996" lon="-1.901726">
        <ele>436.209</ele>
        <time>2022-08-25T11:54:11Z</time>
      </trkpt>
      <trkpt lat="42.67605099999996" lon="-1.90185">
        <ele>435.663</ele>
        <time>2022-08-25T11:54:12Z</time>
      </trkpt>
      <trkpt lat="42.67600799999996" lon="-1.901971">
        <ele>435.013</ele>
        <time>2022-08-25T11:54:13Z</time>
      </trkpt>
      <trkpt lat="42.67596799999996" lon="-1.90209">
        <ele>434.833</ele>
        <time>2022-08-25T11:54:14Z</time>
      </trkpt>
      <trkpt lat="42.67592699999996" lon="-1.9022080000000001">
        <ele>434.439</ele>
        <time>2022-08-25T11:54:15Z</time>
      </trkpt>
      <trkpt lat="42.675885999999956" lon="-1.9023240000000001">
        <ele>434.011</ele>
        <time>2022-08-25T11:54:16Z</time>
      </trkpt>
      <trkpt lat="42.67584599999996" lon="-1.902441">
        <ele>433.498</ele>
        <time>2022-08-25T11:54:17Z</time>
      </trkpt>
      <trkpt lat="42.67580599999996" lon="-1.902557">
        <ele>433.051</ele>
        <time>2022-08-25T11:54:18Z</time>
      </trkpt>
      <trkpt lat="42.67576699999996" lon="-1.902674">
        <ele>432.817</ele>
        <time>2022-08-25T11:54:19Z</time>
      </trkpt>
      <trkpt lat="42.675728999999954" lon="-1.90279">
        <ele>432.058</ele>
        <time>2022-08-25T11:54:20Z</time>
      </trkpt>
      <trkpt lat="42.675691999999955" lon="-1.902905">
        <ele>431.636</ele>
        <time>2022-08-25T11:54:21Z</time>
      </trkpt>
      <trkpt lat="42.675691999999955" lon="-1.902905">
        <ele>431.017</ele>
        <time>2022-08-25T11:54:22Z</time>
      </trkpt>
      <trkpt lat="42.67561499999996" lon="-1.903134">
        <ele>430.418</ele>
        <time>2022-08-25T11:54:23Z</time>
      </trkpt>
      <trkpt lat="42.67549899999996" lon="-1.903466">
        <ele>429.409</ele>
        <time>2022-08-25T11:54:26Z</time>
      </trkpt>
      <trkpt lat="42.67540999999996" lon="-1.9036810000000002">
        <ele>428.484</ele>
        <time>2022-08-25T11:54:28Z</time>
      </trkpt>
      <trkpt lat="42.67535799999996" lon="-1.9037880000000003">
        <ele>428.044</ele>
        <time>2022-08-25T11:54:29Z</time>
      </trkpt>
      <trkpt lat="42.67524399999996" lon="-1.9039940000000002">
        <ele>427.034</ele>
        <time>2022-08-25T11:54:31Z</time>
      </trkpt>
      <trkpt lat="42.67505799999996" lon="-1.9043040000000002">
        <ele>425.860</ele>
        <time>2022-08-25T11:54:34Z</time>
      </trkpt>
      <trkpt lat="42.674928999999956" lon="-1.9045100000000001">
        <ele>424.852</ele>
        <time>2022-08-25T11:54:36Z</time>
      </trkpt>
      <trkpt lat="42.67472499999996" lon="-1.904821">
        <ele>423.489</ele>
        <time>2022-08-25T11:54:39Z</time>
      </trkpt>
      <trkpt lat="42.67458499999996" lon="-1.9050250000000002">
        <ele>422.272</ele>
        <time>2022-08-25T11:54:41Z</time>
      </trkpt>
      <trkpt lat="42.674371999999956" lon="-1.9053370000000003">
        <ele>421.058</ele>
        <time>2022-08-25T11:54:44Z</time>
      </trkpt>
      <trkpt lat="42.674230999999956" lon="-1.9055530000000003">
        <ele>419.879</ele>
        <time>2022-08-25T11:54:46Z</time>
      </trkpt>
      <trkpt lat="42.674087999999955" lon="-1.9057760000000004">
        <ele>418.662</ele>
        <time>2022-08-25T11:54:48Z</time>
      </trkpt>
      <trkpt lat="42.67394899999996" lon="-1.9060020000000004">
        <ele>417.483</ele>
        <time>2022-08-25T11:54:50Z</time>
      </trkpt>
      <trkpt lat="42.673881999999956" lon="-1.9061160000000004">
        <ele>416.811</ele>
        <time>2022-08-25T11:54:51Z</time>
      </trkpt>
      <trkpt lat="42.673817999999955" lon="-1.9062320000000004">
        <ele>416.209</ele>
        <time>2022-08-25T11:54:52Z</time>
      </trkpt>
      <trkpt lat="42.67369899999996" lon="-1.9064660000000004">
        <ele>415.267</ele>
        <time>2022-08-25T11:54:54Z</time>
      </trkpt>
      <trkpt lat="42.67364399999995" lon="-1.9065850000000004">
        <ele>415.067</ele>
        <time>2022-08-25T11:54:55Z</time>
      </trkpt>
      <trkpt lat="42.673589999999955" lon="-1.9067050000000003">
        <ele>414.497</ele>
        <time>2022-08-25T11:54:56Z</time>
      </trkpt>
      <trkpt lat="42.673538999999955" lon="-1.9068240000000003">
        <ele>414.053</ele>
        <time>2022-08-25T11:54:57Z</time>
      </trkpt>
      <trkpt lat="42.67348999999996" lon="-1.9069440000000002">
        <ele>413.895</ele>
        <time>2022-08-25T11:54:58Z</time>
      </trkpt>
      <trkpt lat="42.673445999999956" lon="-1.9070670000000003">
        <ele>413.422</ele>
        <time>2022-08-25T11:54:59Z</time>
      </trkpt>
      <trkpt lat="42.67340499999995" lon="-1.9071900000000004">
        <ele>413.015</ele>
        <time>2022-08-25T11:55:00Z</time>
      </trkpt>
      <trkpt lat="42.673364999999954" lon="-1.9073130000000005">
        <ele>412.481</ele>
        <time>2022-08-25T11:55:01Z</time>
      </trkpt>
      <trkpt lat="42.67332699999995" lon="-1.9074370000000005">
        <ele>412.232</ele>
        <time>2022-08-25T11:55:02Z</time>
      </trkpt>
      <trkpt lat="42.67325599999995" lon="-1.9076960000000005">
        <ele>411.098</ele>
        <time>2022-08-25T11:55:04Z</time>
      </trkpt>
      <trkpt lat="42.67316999999995" lon="-1.9080920000000006">
        <ele>409.815</ele>
        <time>2022-08-25T11:55:07Z</time>
      </trkpt>
      <trkpt lat="42.673145999999946" lon="-1.9082240000000006">
        <ele>408.826</ele>
        <time>2022-08-25T11:55:08Z</time>
      </trkpt>
      <trkpt lat="42.67312499999995" lon="-1.9083560000000006">
        <ele>408.209</ele>
        <time>2022-08-25T11:55:09Z</time>
      </trkpt>
      <trkpt lat="42.67310599999995" lon="-1.9084860000000006">
        <ele>407.650</ele>
        <time>2022-08-25T11:55:10Z</time>
      </trkpt>
      <trkpt lat="42.67309099999995" lon="-1.9086160000000005">
        <ele>406.810</ele>
        <time>2022-08-25T11:55:11Z</time>
      </trkpt>
      <trkpt lat="42.673066999999946" lon="-1.9088810000000005">
        <ele>405.470</ele>
        <time>2022-08-25T11:55:13Z</time>
      </trkpt>
      <trkpt lat="42.673058999999945" lon="-1.9090140000000004">
        <ele>405.026</ele>
        <time>2022-08-25T11:55:14Z</time>
      </trkpt>
      <trkpt lat="42.673052999999946" lon="-1.9091500000000003">
        <ele>404.218</ele>
        <time>2022-08-25T11:55:15Z</time>
      </trkpt>
      <trkpt lat="42.67304899999995" lon="-1.9092830000000003">
        <ele>403.885</ele>
        <time>2022-08-25T11:55:16Z</time>
      </trkpt>
      <trkpt lat="42.67304599999995" lon="-1.9094150000000003">
        <ele>403.258</ele>
        <time>2022-08-25T11:55:17Z</time>
      </trkpt>
      <trkpt lat="42.67304699999995" lon="-1.9096780000000002">
        <ele>402.024</ele>
        <time>2022-08-25T11:55:19Z</time>
      </trkpt>
      <trkpt lat="42.673058999999945" lon="-1.9099420000000003">
        <ele>401.015</ele>
        <time>2022-08-25T11:55:21Z</time>
      </trkpt>
      <trkpt lat="42.673058999999945" lon="-1.9099420000000003">
        <ele>400.624</ele>
        <time>2022-08-25T11:55:22Z</time>
      </trkpt>
      <trkpt lat="42.673117999999945" lon="-1.9104710000000003">
        <ele>399.204</ele>
        <time>2022-08-25T11:55:25Z</time>
      </trkpt>
      <trkpt lat="42.67316099999994" lon="-1.9107360000000002">
        <ele>398.414</ele>
        <time>2022-08-25T11:55:27Z</time>
      </trkpt>
      <trkpt lat="42.67318499999995" lon="-1.9108680000000002">
        <ele>397.809</ele>
        <time>2022-08-25T11:55:28Z</time>
      </trkpt>
      <trkpt lat="42.67321199999995" lon="-1.9109980000000002">
        <ele>397.683</ele>
        <time>2022-08-25T11:55:29Z</time>
      </trkpt>
      <trkpt lat="42.67323799999995" lon="-1.9111300000000002">
        <ele>396.653</ele>
        <time>2022-08-25T11:55:30Z</time>
      </trkpt>
      <trkpt lat="42.67336099999995" lon="-1.9116480000000002">
        <ele>395.483</ele>
        <time>2022-08-25T11:55:34Z</time>
      </trkpt>
      <trkpt lat="42.67339299999995" lon="-1.9117760000000001">
        <ele>394.089</ele>
        <time>2022-08-25T11:55:35Z</time>
      </trkpt>
      <trkpt lat="42.67342599999995" lon="-1.9119000000000002">
        <ele>393.621</ele>
        <time>2022-08-25T11:55:36Z</time>
      </trkpt>
      <trkpt lat="42.67345799999995" lon="-1.9120240000000002">
        <ele>392.678</ele>
        <time>2022-08-25T11:55:37Z</time>
      </trkpt>
      <trkpt lat="42.67349099999995" lon="-1.9121450000000002">
        <ele>392.241</ele>
        <time>2022-08-25T11:55:38Z</time>
      </trkpt>
      <trkpt lat="42.673522999999946" lon="-1.9122660000000002">
        <ele>391.697</ele>
        <time>2022-08-25T11:55:39Z</time>
      </trkpt>
      <trkpt lat="42.67355499999994" lon="-1.9123840000000003">
        <ele>391.258</ele>
        <time>2022-08-25T11:55:40Z</time>
      </trkpt>
      <trkpt lat="42.67358599999994" lon="-1.9125030000000003">
        <ele>391.023</ele>
        <time>2022-08-25T11:55:41Z</time>
      </trkpt>
      <trkpt lat="42.67361699999994" lon="-1.9126200000000002">
        <ele>390.683</ele>
        <time>2022-08-25T11:55:42Z</time>
      </trkpt>
      <trkpt lat="42.67364899999994" lon="-1.912732">
        <ele>390.211</ele>
        <time>2022-08-25T11:55:43Z</time>
      </trkpt>
      <trkpt lat="42.67368299999994" lon="-1.912841">
        <ele>389.609</ele>
        <time>2022-08-25T11:55:44Z</time>
      </trkpt>
      <trkpt lat="42.67371699999994" lon="-1.91295">
        <ele>389.273</ele>
        <time>2022-08-25T11:55:45Z</time>
      </trkpt>
      <trkpt lat="42.67375099999994" lon="-1.9130559999999999">
        <ele>388.823</ele>
        <time>2022-08-25T11:55:46Z</time>
      </trkpt>
      <trkpt lat="42.673785999999936" lon="-1.9131589999999998">
        <ele>388.263</ele>
        <time>2022-08-25T11:55:47Z</time>
      </trkpt>
      <trkpt lat="42.67382199999994" lon="-1.913263">
        <ele>388.069</ele>
        <time>2022-08-25T11:55:48Z</time>
      </trkpt>
      <trkpt lat="42.67382199999994" lon="-1.913263">
        <ele>387.261</ele>
        <time>2022-08-25T11:55:49Z</time>
      </trkpt>
      <trkpt lat="42.67389199999994" lon="-1.913468">
        <ele>386.898</ele>
        <time>2022-08-25T11:55:50Z</time>
      </trkpt>
      <trkpt lat="42.67392499999994" lon="-1.913568">
        <ele>386.231</ele>
        <time>2022-08-25T11:55:51Z</time>
      </trkpt>
      <trkpt lat="42.67395699999994" lon="-1.9136659999999999">
        <ele>385.887</ele>
        <time>2022-08-25T11:55:52Z</time>
      </trkpt>
      <trkpt lat="42.67398399999994" lon="-1.9137659999999999">
        <ele>385.618</ele>
        <time>2022-08-25T11:55:53Z</time>
      </trkpt>
      <trkpt lat="42.67401299999994" lon="-1.9138589999999998">
        <ele>385.675</ele>
        <time>2022-08-25T11:55:54Z</time>
      </trkpt>
      <trkpt lat="42.67404099999994" lon="-1.9139519999999997">
        <ele>385.428</ele>
        <time>2022-08-25T11:55:55Z</time>
      </trkpt>
      <trkpt lat="42.674069999999936" lon="-1.9140459999999997">
        <ele>385.220</ele>
        <time>2022-08-25T11:55:56Z</time>
      </trkpt>
      <trkpt lat="42.67412899999994" lon="-1.9142369999999997">
        <ele>384.209</ele>
        <time>2022-08-25T11:55:58Z</time>
      </trkpt>
      <trkpt lat="42.67416199999994" lon="-1.9143309999999998">
        <ele>383.868</ele>
        <time>2022-08-25T11:55:59Z</time>
      </trkpt>
      <trkpt lat="42.674255999999936" lon="-1.9145969999999999">
        <ele>383.248</ele>
        <time>2022-08-25T11:56:02Z</time>
      </trkpt>
      <trkpt lat="42.67428599999994" lon="-1.9146859999999999">
        <ele>383.038</ele>
        <time>2022-08-25T11:56:03Z</time>
      </trkpt>
      <trkpt lat="42.67428599999994" lon="-1.9146859999999999">
        <ele>382.844</ele>
        <time>2022-08-25T11:56:04Z</time>
      </trkpt>
      <trkpt lat="42.67434499999994" lon="-1.914858">
        <ele>382.686</ele>
        <time>2022-08-25T11:56:05Z</time>
      </trkpt>
      <trkpt lat="42.67437499999994" lon="-1.914942">
        <ele>382.623</ele>
        <time>2022-08-25T11:56:06Z</time>
      </trkpt>
      <trkpt lat="42.674401999999944" lon="-1.915025">
        <ele>382.456</ele>
        <time>2022-08-25T11:56:07Z</time>
      </trkpt>
      <trkpt lat="42.67445399999994" lon="-1.915187">
        <ele>382.042</ele>
        <time>2022-08-25T11:56:09Z</time>
      </trkpt>
      <trkpt lat="42.67447899999994" lon="-1.915265">
        <ele>381.853</ele>
        <time>2022-08-25T11:56:10Z</time>
      </trkpt>
      <trkpt lat="42.674502999999945" lon="-1.91534">
        <ele>381.862</ele>
        <time>2022-08-25T11:56:11Z</time>
      </trkpt>
      <trkpt lat="42.674527999999945" lon="-1.915414">
        <ele>381.683</ele>
        <time>2022-08-25T11:56:12Z</time>
      </trkpt>
      <trkpt lat="42.674552999999946" lon="-1.915487">
        <ele>381.611</ele>
        <time>2022-08-25T11:56:13Z</time>
      </trkpt>
      <trkpt lat="42.67457699999995" lon="-1.915556">
        <ele>381.609</ele>
        <time>2022-08-25T11:56:14Z</time>
      </trkpt>
      <trkpt lat="42.67459899999995" lon="-1.915624">
        <ele>381.677</ele>
        <time>2022-08-25T11:56:15Z</time>
      </trkpt>
      <trkpt lat="42.67462099999995" lon="-1.915689">
        <ele>381.687</ele>
        <time>2022-08-25T11:56:16Z</time>
      </trkpt>
      <trkpt lat="42.67463799999995" lon="-1.915756">
        <ele>381.667</ele>
        <time>2022-08-25T11:56:17Z</time>
      </trkpt>
      <trkpt lat="42.67465899999995" lon="-1.915818">
        <ele>381.423</ele>
        <time>2022-08-25T11:56:18Z</time>
      </trkpt>
      <trkpt lat="42.67467899999995" lon="-1.915876">
        <ele>381.475</ele>
        <time>2022-08-25T11:56:19Z</time>
      </trkpt>
      <trkpt lat="42.67469899999995" lon="-1.9159309999999998">
        <ele>381.622</ele>
        <time>2022-08-25T11:56:20Z</time>
      </trkpt>
      <trkpt lat="42.674716999999944" lon="-1.915984">
        <ele>381.665</ele>
        <time>2022-08-25T11:56:21Z</time>
      </trkpt>
      <trkpt lat="42.67473299999995" lon="-1.916035">
        <ele>381.671</ele>
        <time>2022-08-25T11:56:22Z</time>
      </trkpt>
      <trkpt lat="42.674749999999946" lon="-1.916085">
        <ele>381.652</ele>
        <time>2022-08-25T11:56:23Z</time>
      </trkpt>
      <trkpt lat="42.67476599999995" lon="-1.916132">
        <ele>381.623</ele>
        <time>2022-08-25T11:56:24Z</time>
      </trkpt>
      <trkpt lat="42.67478299999995" lon="-1.916175">
        <ele>381.483</ele>
        <time>2022-08-25T11:56:25Z</time>
      </trkpt>
      <trkpt lat="42.67479999999995" lon="-1.916219">
        <ele>381.411</ele>
        <time>2022-08-25T11:56:26Z</time>
      </trkpt>
      <trkpt lat="42.674814999999946" lon="-1.9162629999999998">
        <ele>381.409</ele>
        <time>2022-08-25T11:56:27Z</time>
      </trkpt>
      <trkpt lat="42.674826999999944" lon="-1.916308">
        <ele>381.493</ele>
        <time>2022-08-25T11:56:28Z</time>
      </trkpt>
      <trkpt lat="42.67484199999994" lon="-1.91635">
        <ele>381.453</ele>
        <time>2022-08-25T11:56:29Z</time>
      </trkpt>
      <trkpt lat="42.674857999999944" lon="-1.916392">
        <ele>381.443</ele>
        <time>2022-08-25T11:56:30Z</time>
      </trkpt>
      <trkpt lat="42.674871999999944" lon="-1.9164340000000002">
        <ele>381.459</ele>
        <time>2022-08-25T11:56:31Z</time>
      </trkpt>
      <trkpt lat="42.674885999999944" lon="-1.916473">
        <ele>381.641</ele>
        <time>2022-08-25T11:56:32Z</time>
      </trkpt>
      <trkpt lat="42.674899999999944" lon="-1.9165130000000001">
        <ele>381.628</ele>
        <time>2022-08-25T11:56:33Z</time>
      </trkpt>
      <trkpt lat="42.674910999999945" lon="-1.916554">
        <ele>381.881</ele>
        <time>2022-08-25T11:56:34Z</time>
      </trkpt>
      <trkpt lat="42.67492299999994" lon="-1.9165940000000001">
        <ele>381.887</ele>
        <time>2022-08-25T11:56:35Z</time>
      </trkpt>
      <trkpt lat="42.67493699999994" lon="-1.9166310000000002">
        <ele>381.688</ele>
        <time>2022-08-25T11:56:36Z</time>
      </trkpt>
      <trkpt lat="42.67494899999994" lon="-1.9166670000000001">
        <ele>381.837</ele>
        <time>2022-08-25T11:56:37Z</time>
      </trkpt>
      <trkpt lat="42.67495799999994" lon="-1.9167040000000002">
        <ele>381.649</ele>
        <time>2022-08-25T11:56:38Z</time>
      </trkpt>
      <trkpt lat="42.67496799999994" lon="-1.9167420000000002">
        <ele>381.813</ele>
        <time>2022-08-25T11:56:39Z</time>
      </trkpt>
      <trkpt lat="42.67499599999994" lon="-1.9168060000000002">
        <ele>382.009</ele>
        <time>2022-08-25T11:56:41Z</time>
      </trkpt>
      <trkpt lat="42.675006999999944" lon="-1.9168370000000001">
        <ele>382.214</ele>
        <time>2022-08-25T11:56:42Z</time>
      </trkpt>
      <trkpt lat="42.67501899999994" lon="-1.916867">
        <ele>382.274</ele>
        <time>2022-08-25T11:56:43Z</time>
      </trkpt>
      <trkpt lat="42.675031999999945" lon="-1.9169040000000002">
        <ele>382.244</ele>
        <time>2022-08-25T11:56:44Z</time>
      </trkpt>
      <trkpt lat="42.67506399999994" lon="-1.9169880000000001">
        <ele>382.250</ele>
        <time>2022-08-25T11:56:47Z</time>
      </trkpt>
      <trkpt lat="42.675076999999945" lon="-1.917018">
        <ele>382.232</ele>
        <time>2022-08-25T11:56:48Z</time>
      </trkpt>
      <trkpt lat="42.67508699999995" lon="-1.917049">
        <ele>382.269</ele>
        <time>2022-08-25T11:56:49Z</time>
      </trkpt>
      <trkpt lat="42.67510599999995" lon="-1.917112">
        <ele>382.292</ele>
        <time>2022-08-25T11:56:51Z</time>
      </trkpt>
      <trkpt lat="42.67516399999995" lon="-1.917277">
        <ele>382.258</ele>
        <time>2022-08-25T11:56:56Z</time>
      </trkpt>
      <trkpt lat="42.67517599999995" lon="-1.9173099999999998">
        <ele>382.259</ele>
        <time>2022-08-25T11:56:57Z</time>
      </trkpt>
      <trkpt lat="42.67519899999995" lon="-1.9173779999999998">
        <ele>382.221</ele>
        <time>2022-08-25T11:56:59Z</time>
      </trkpt>
      <trkpt lat="42.67526699999995" lon="-1.9175839999999997">
        <ele>382.241</ele>
        <time>2022-08-25T11:57:05Z</time>
      </trkpt>
      <trkpt lat="42.67531099999995" lon="-1.9177189999999997">
        <ele>382.205</ele>
        <time>2022-08-25T11:57:09Z</time>
      </trkpt>
      <trkpt lat="42.675320999999954" lon="-1.9177519999999997">
        <ele>382.409</ele>
        <time>2022-08-25T11:57:10Z</time>
      </trkpt>
      <trkpt lat="42.675382999999954" lon="-1.9179439999999996">
        <ele>382.643</ele>
        <time>2022-08-25T11:57:15Z</time>
      </trkpt>
      <trkpt lat="42.67542299999995" lon="-1.9180549999999996">
        <ele>382.883</ele>
        <time>2022-08-25T11:57:18Z</time>
      </trkpt>
      <trkpt lat="42.67543799999995" lon="-1.9180909999999995">
        <ele>382.843</ele>
        <time>2022-08-25T11:57:19Z</time>
      </trkpt>
      <trkpt lat="42.67545099999995" lon="-1.9181269999999995">
        <ele>382.879</ele>
        <time>2022-08-25T11:57:20Z</time>
      </trkpt>
      <trkpt lat="42.67547899999995" lon="-1.9181959999999996">
        <ele>382.851</ele>
        <time>2022-08-25T11:57:22Z</time>
      </trkpt>
      <trkpt lat="42.675491999999956" lon="-1.9182319999999995">
        <ele>382.868</ele>
        <time>2022-08-25T11:57:23Z</time>
      </trkpt>
      <trkpt lat="42.675503999999954" lon="-1.9182659999999996">
        <ele>382.821</ele>
        <time>2022-08-25T11:57:24Z</time>
      </trkpt>
      <trkpt lat="42.675514999999955" lon="-1.9182999999999997">
        <ele>382.847</ele>
        <time>2022-08-25T11:57:25Z</time>
      </trkpt>
      <trkpt lat="42.675522999999956" lon="-1.9183369999999997">
        <ele>382.868</ele>
        <time>2022-08-25T11:57:26Z</time>
      </trkpt>
      <trkpt lat="42.67555799999995" lon="-1.9184439999999998">
        <ele>382.857</ele>
        <time>2022-08-25T11:57:29Z</time>
      </trkpt>
      <trkpt lat="42.675570999999955" lon="-1.9184789999999998">
        <ele>382.800</ele>
        <time>2022-08-25T11:57:31Z</time>
      </trkpt>
      <trkpt lat="42.675635999999955" lon="-1.9186609999999997">
        <ele>383.020</ele>
        <time>2022-08-25T11:57:35Z</time>
      </trkpt>
      <trkpt lat="42.675646999999955" lon="-1.9186979999999998">
        <ele>383.009</ele>
        <time>2022-08-25T11:57:36Z</time>
      </trkpt>
      <trkpt lat="42.67567099999996" lon="-1.9187699999999999">
        <ele>383.276</ele>
        <time>2022-08-25T11:57:38Z</time>
      </trkpt>
      <trkpt lat="42.67568099999996" lon="-1.9188029999999998">
        <ele>383.246</ele>
        <time>2022-08-25T11:57:39Z</time>
      </trkpt>
      <trkpt lat="42.67568899999996" lon="-1.9188399999999999">
        <ele>383.296</ele>
        <time>2022-08-25T11:57:40Z</time>
      </trkpt>
      <trkpt lat="42.675696999999964" lon="-1.9188709999999998">
        <ele>383.232</ele>
        <time>2022-08-25T11:57:41Z</time>
      </trkpt>
      <trkpt lat="42.67570999999997" lon="-1.9189049999999999">
        <ele>383.254</ele>
        <time>2022-08-25T11:57:42Z</time>
      </trkpt>
      <trkpt lat="42.67572099999997" lon="-1.9189349999999998">
        <ele>383.231</ele>
        <time>2022-08-25T11:57:43Z</time>
      </trkpt>
      <trkpt lat="42.67573399999997" lon="-1.9189729999999998">
        <ele>383.274</ele>
        <time>2022-08-25T11:57:44Z</time>
      </trkpt>
      <trkpt lat="42.67574299999997" lon="-1.918999">
        <ele>383.460</ele>
        <time>2022-08-25T11:57:45Z</time>
      </trkpt>
      <trkpt lat="42.67577599999997" lon="-1.91909">
        <ele>383.681</ele>
        <time>2022-08-25T11:57:48Z</time>
      </trkpt>
      <trkpt lat="42.675785999999974" lon="-1.91912">
        <ele>383.674</ele>
        <time>2022-08-25T11:57:49Z</time>
      </trkpt>
      <trkpt lat="42.675796999999974" lon="-1.9191509999999998">
        <ele>383.856</ele>
        <time>2022-08-25T11:57:50Z</time>
      </trkpt>
      <trkpt lat="42.675807999999975" lon="-1.9191809999999998">
        <ele>383.821</ele>
        <time>2022-08-25T11:57:51Z</time>
      </trkpt>
      <trkpt lat="42.67581999999997" lon="-1.9192099999999999">
        <ele>383.809</ele>
        <time>2022-08-25T11:57:52Z</time>
      </trkpt>
      <trkpt lat="42.675827999999974" lon="-1.9192399999999998">
        <ele>383.868</ele>
        <time>2022-08-25T11:57:53Z</time>
      </trkpt>
      <trkpt lat="42.67583399999997" lon="-1.9192719999999999">
        <ele>384.018</ele>
        <time>2022-08-25T11:57:54Z</time>
      </trkpt>
      <trkpt lat="42.67584099999997" lon="-1.9192999999999998">
        <ele>384.088</ele>
        <time>2022-08-25T11:57:55Z</time>
      </trkpt>
      <trkpt lat="42.67584999999997" lon="-1.9193259999999999">
        <ele>384.254</ele>
        <time>2022-08-25T11:57:56Z</time>
      </trkpt>
      <trkpt lat="42.67584999999997" lon="-1.9193259999999999">
        <ele>384.286</ele>
        <time>2022-08-25T11:57:57Z</time>
      </trkpt>
      <trkpt lat="42.67587499999997" lon="-1.9193769999999999">
        <ele>384.293</ele>
        <time>2022-08-25T11:57:58Z</time>
      </trkpt>
      <trkpt lat="42.67588599999997" lon="-1.9194039999999999">
        <ele>384.436</ele>
        <time>2022-08-25T11:57:59Z</time>
      </trkpt>
      <trkpt lat="42.67589299999997" lon="-1.9194349999999998">
        <ele>384.442</ele>
        <time>2022-08-25T11:58:00Z</time>
      </trkpt>
      <trkpt lat="42.67589999999996" lon="-1.9194669999999998">
        <ele>384.483</ele>
        <time>2022-08-25T11:58:01Z</time>
      </trkpt>
      <trkpt lat="42.675918999999965" lon="-1.9195619999999998">
        <ele>384.672</ele>
        <time>2022-08-25T11:58:04Z</time>
      </trkpt>
      <trkpt lat="42.67595899999996" lon="-1.9196409999999997">
        <ele>384.613</ele>
        <time>2022-08-25T11:58:07Z</time>
      </trkpt>
      <trkpt lat="42.67596899999997" lon="-1.9196649999999997">
        <ele>384.814</ele>
        <time>2022-08-25T11:58:08Z</time>
      </trkpt>
      <trkpt lat="42.67597599999996" lon="-1.9196889999999998">
        <ele>384.809</ele>
        <time>2022-08-25T11:58:09Z</time>
      </trkpt>
      <trkpt lat="42.675980999999965" lon="-1.9197159999999998">
        <ele>384.828</ele>
        <time>2022-08-25T11:58:10Z</time>
      </trkpt>
      <trkpt lat="42.676045999999964" lon="-1.9199279999999999">
        <ele>385.678</ele>
        <time>2022-08-25T11:58:18Z</time>
      </trkpt>
      <trkpt lat="42.676045999999964" lon="-1.9199279999999999">
        <ele>385.828</ele>
        <time>2022-08-25T11:58:19Z</time>
      </trkpt>
      <trkpt lat="42.67608099999996" lon="-1.920038">
        <ele>386.014</ele>
        <time>2022-08-25T11:58:22Z</time>
      </trkpt>
      <trkpt lat="42.67608599999996" lon="-1.920062">
        <ele>386.236</ele>
        <time>2022-08-25T11:58:23Z</time>
      </trkpt>
      <trkpt lat="42.67608999999996" lon="-1.920083">
        <ele>386.433</ele>
        <time>2022-08-25T11:58:24Z</time>
      </trkpt>
      <trkpt lat="42.676096999999956" lon="-1.920103">
        <ele>386.496</ele>
        <time>2022-08-25T11:58:25Z</time>
      </trkpt>
      <trkpt lat="42.676110999999956" lon="-1.920119">
        <ele>386.662</ele>
        <time>2022-08-25T11:58:26Z</time>
      </trkpt>
      <trkpt lat="42.676124999999956" lon="-1.9201359999999998">
        <ele>386.673</ele>
        <time>2022-08-25T11:58:27Z</time>
      </trkpt>
      <trkpt lat="42.67613599999996" lon="-1.9201559999999998">
        <ele>386.831</ele>
        <time>2022-08-25T11:58:28Z</time>
      </trkpt>
      <trkpt lat="42.67614299999995" lon="-1.9201759999999997">
        <ele>386.861</ele>
        <time>2022-08-25T11:58:29Z</time>
      </trkpt>
      <trkpt lat="42.676156999999954" lon="-1.9202199999999996">
        <ele>386.807</ele>
        <time>2022-08-25T11:58:31Z</time>
      </trkpt>
      <trkpt lat="42.67616699999996" lon="-1.9202439999999996">
        <ele>387.009</ele>
        <time>2022-08-25T11:58:32Z</time>
      </trkpt>
      <trkpt lat="42.67617999999996" lon="-1.9202669999999997">
        <ele>387.254</ele>
        <time>2022-08-25T11:58:33Z</time>
      </trkpt>
      <trkpt lat="42.67619599999996" lon="-1.9203159999999997">
        <ele>387.274</ele>
        <time>2022-08-25T11:58:35Z</time>
      </trkpt>
      <trkpt lat="42.67620399999996" lon="-1.9203379999999997">
        <ele>387.414</ele>
        <time>2022-08-25T11:58:36Z</time>
      </trkpt>
      <trkpt lat="42.676216999999966" lon="-1.9203889999999997">
        <ele>387.840</ele>
        <time>2022-08-25T11:58:39Z</time>
      </trkpt>
      <trkpt lat="42.676281999999965" lon="-1.9205819999999998">
        <ele>388.282</ele>
        <time>2022-08-25T11:58:45Z</time>
      </trkpt>
      <trkpt lat="42.67630099999997" lon="-1.9206399999999997">
        <ele>388.229</ele>
        <time>2022-08-25T11:58:47Z</time>
      </trkpt>
      <trkpt lat="42.676309999999965" lon="-1.9206619999999996">
        <ele>388.262</ele>
        <time>2022-08-25T11:58:48Z</time>
      </trkpt>
      <trkpt lat="42.676317999999966" lon="-1.9206869999999996">
        <ele>388.278</ele>
        <time>2022-08-25T11:58:49Z</time>
      </trkpt>
      <trkpt lat="42.67636699999996" lon="-1.9208479999999997">
        <ele>388.669</ele>
        <time>2022-08-25T11:58:56Z</time>
      </trkpt>
      <trkpt lat="42.67638499999996" lon="-1.9209359999999998">
        <ele>388.829</ele>
        <time>2022-08-25T11:58:58Z</time>
      </trkpt>
      <trkpt lat="42.67639899999996" lon="-1.9209979999999998">
        <ele>388.800</ele>
        <time>2022-08-25T11:59:00Z</time>
      </trkpt>
      <trkpt lat="42.67644499999996" lon="-1.9211519999999997">
        <ele>389.620</ele>
        <time>2022-08-25T11:59:05Z</time>
      </trkpt>
      <trkpt lat="42.67645299999996" lon="-1.9211829999999996">
        <ele>389.809</ele>
        <time>2022-08-25T11:59:06Z</time>
      </trkpt>
      <trkpt lat="42.67648699999996" lon="-1.9213039999999997">
        <ele>390.233</ele>
        <time>2022-08-25T11:59:10Z</time>
      </trkpt>
      <trkpt lat="42.676552999999956" lon="-1.9214789999999997">
        <ele>390.673</ele>
        <time>2022-08-25T11:59:16Z</time>
      </trkpt>
      <trkpt lat="42.67667899999996" lon="-1.9218059999999997">
        <ele>391.043</ele>
        <time>2022-08-25T11:59:27Z</time>
      </trkpt>
      <trkpt lat="42.67669599999996" lon="-1.9218719999999996">
        <ele>391.059</ele>
        <time>2022-08-25T11:59:29Z</time>
      </trkpt>
      <trkpt lat="42.67675399999996" lon="-1.9220239999999995">
        <ele>391.241</ele>
        <time>2022-08-25T11:59:34Z</time>
      </trkpt>
      <trkpt lat="42.67676699999996" lon="-1.9220559999999995">
        <ele>391.458</ele>
        <time>2022-08-25T11:59:35Z</time>
      </trkpt>
      <trkpt lat="42.676804999999966" lon="-1.9221499999999996">
        <ele>391.841</ele>
        <time>2022-08-25T11:59:38Z</time>
      </trkpt>
      <trkpt lat="42.676909999999964" lon="-1.9224479999999995">
        <ele>392.247</ele>
        <time>2022-08-25T11:59:47Z</time>
      </trkpt>
      <trkpt lat="42.676923999999964" lon="-1.9224769999999995">
        <ele>392.238</ele>
        <time>2022-08-25T11:59:48Z</time>
      </trkpt>
      <trkpt lat="42.67693699999997" lon="-1.9225049999999995">
        <ele>392.296</ele>
        <time>2022-08-25T11:59:49Z</time>
      </trkpt>
      <trkpt lat="42.67694799999997" lon="-1.9225349999999994">
        <ele>392.231</ele>
        <time>2022-08-25T11:59:50Z</time>
      </trkpt>
      <trkpt lat="42.677013999999964" lon="-1.9226799999999995">
        <ele>392.424</ele>
        <time>2022-08-25T11:59:55Z</time>
      </trkpt>
      <trkpt lat="42.677024999999965" lon="-1.9227079999999994">
        <ele>392.409</ele>
        <time>2022-08-25T11:59:56Z</time>
      </trkpt>
      <trkpt lat="42.67703499999997" lon="-1.9227349999999994">
        <ele>392.430</ele>
        <time>2022-08-25T11:59:57Z</time>
      </trkpt>
      <trkpt lat="42.677046999999966" lon="-1.9227609999999995">
        <ele>392.430</ele>
        <time>2022-08-25T11:59:58Z</time>
      </trkpt>
      <trkpt lat="42.67705999999997" lon="-1.9227869999999996">
        <ele>392.480</ele>
        <time>2022-08-25T11:59:59Z</time>
      </trkpt>
      <trkpt lat="42.67707199999997" lon="-1.9228139999999996">
        <ele>392.456</ele>
        <time>2022-08-25T12:00:00Z</time>
      </trkpt>
      <trkpt lat="42.67708199999997" lon="-1.9228409999999996">
        <ele>392.638</ele>
        <time>2022-08-25T12:00:01Z</time>
      </trkpt>
      <trkpt lat="42.67711699999997" lon="-1.9229189999999996">
        <ele>392.685</ele>
        <time>2022-08-25T12:00:04Z</time>
      </trkpt>
      <trkpt lat="42.677153999999966" lon="-1.9230019999999997">
        <ele>392.868</ele>
        <time>2022-08-25T12:00:07Z</time>
      </trkpt>
      <trkpt lat="42.677153999999966" lon="-1.9230019999999997">
        <ele>392.844</ele>
        <time>2022-08-25T12:00:08Z</time>
      </trkpt>
      <trkpt lat="42.67717899999997" lon="-1.9230519999999998">
        <ele>393.065</ele>
        <time>2022-08-25T12:00:09Z</time>
      </trkpt>
      <trkpt lat="42.67718899999997" lon="-1.9230799999999997">
        <ele>393.253</ele>
        <time>2022-08-25T12:00:10Z</time>
      </trkpt>
      <trkpt lat="42.67720199999997" lon="-1.9231029999999998">
        <ele>393.204</ele>
        <time>2022-08-25T12:00:11Z</time>
      </trkpt>
      <trkpt lat="42.67721699999997" lon="-1.9231229999999997">
        <ele>393.214</ele>
        <time>2022-08-25T12:00:12Z</time>
      </trkpt>
      <trkpt lat="42.67723199999997" lon="-1.9231439999999997">
        <ele>393.209</ele>
        <time>2022-08-25T12:00:13Z</time>
      </trkpt>
      <trkpt lat="42.677243999999966" lon="-1.9231669999999998">
        <ele>393.436</ele>
        <time>2022-08-25T12:00:14Z</time>
      </trkpt>
      <trkpt lat="42.677280999999965" lon="-1.9232029999999998">
        <ele>393.476</ele>
        <time>2022-08-25T12:00:16Z</time>
      </trkpt>
      <trkpt lat="42.677319999999966" lon="-1.9232319999999998">
        <ele>393.846</ele>
        <time>2022-08-25T12:00:18Z</time>
      </trkpt>
      <trkpt lat="42.67737499999997" lon="-1.9232829999999999">
        <ele>394.482</ele>
        <time>2022-08-25T12:00:21Z</time>
      </trkpt>
      <trkpt lat="42.67743099999997" lon="-1.923382">
        <ele>395.074</ele>
        <time>2022-08-25T12:00:25Z</time>
      </trkpt>
      <trkpt lat="42.67746099999997" lon="-1.923465">
        <ele>395.051</ele>
        <time>2022-08-25T12:00:28Z</time>
      </trkpt>
      <trkpt lat="42.677470999999976" lon="-1.92349">
        <ele>394.854</ele>
        <time>2022-08-25T12:00:29Z</time>
      </trkpt>
      <trkpt lat="42.67747799999997" lon="-1.923514">
        <ele>394.870</ele>
        <time>2022-08-25T12:00:30Z</time>
      </trkpt>
      <trkpt lat="42.67748599999997" lon="-1.923536">
        <ele>394.641</ele>
        <time>2022-08-25T12:00:31Z</time>
      </trkpt>
      <trkpt lat="42.677490999999975" lon="-1.923557">
        <ele>394.673</ele>
        <time>2022-08-25T12:00:32Z</time>
      </trkpt>
      <trkpt lat="42.677490999999975" lon="-1.923557">
        <ele>394.685</ele>
        <time>2022-08-25T12:00:33Z</time>
      </trkpt>
      <trkpt lat="42.67750699999998" lon="-1.923583">
        <ele>394.613</ele>
        <time>2022-08-25T12:00:34Z</time>
      </trkpt>
      <trkpt lat="42.67750899999998" lon="-1.923586">
        <ele>394.809</ele>
        <time>2022-08-25T12:00:35Z</time>
      </trkpt>
      <trkpt lat="42.67754099999998" lon="-1.923643">
        <ele>394.428</ele>
        <time>2022-08-25T12:00:43Z</time>
      </trkpt>
      <trkpt lat="42.67754099999998" lon="-1.923643">
        <ele>394.448</ele>
        <time>2022-08-25T12:00:44Z</time>
      </trkpt>
      <trkpt lat="42.677670999999975" lon="-1.923824">
        <ele>394.418</ele>
        <time>2022-08-25T12:00:49Z</time>
      </trkpt>
      <trkpt lat="42.677906999999976" lon="-1.9241409999999999">
        <ele>394.044</ele>
        <time>2022-08-25T12:00:57Z</time>
      </trkpt>
      <trkpt lat="42.678146999999974" lon="-1.9244709999999998">
        <ele>393.676</ele>
        <time>2022-08-25T12:01:04Z</time>
      </trkpt>
      <trkpt lat="42.67817899999997" lon="-1.924521">
        <ele>393.443</ele>
        <time>2022-08-25T12:01:05Z</time>
      </trkpt>
      <trkpt lat="42.678478999999975" lon="-1.925006">
        <ele>392.876</ele>
        <time>2022-08-25T12:01:14Z</time>
      </trkpt>
      <trkpt lat="42.678545999999976" lon="-1.925108">
        <ele>392.462</ele>
        <time>2022-08-25T12:01:16Z</time>
      </trkpt>
      <trkpt lat="42.67873099999998" lon="-1.925461">
        <ele>391.853</ele>
        <time>2022-08-25T12:01:22Z</time>
      </trkpt>
      <trkpt lat="42.67879199999998" lon="-1.9255920000000002">
        <ele>391.624</ele>
        <time>2022-08-25T12:01:24Z</time>
      </trkpt>
      <trkpt lat="42.67893699999998" lon="-1.9259180000000002">
        <ele>391.004</ele>
        <time>2022-08-25T12:01:29Z</time>
      </trkpt>
      <trkpt lat="42.678994999999986" lon="-1.9260470000000003">
        <ele>390.814</ele>
        <time>2022-08-25T12:01:31Z</time>
      </trkpt>
      <trkpt lat="42.679023999999984" lon="-1.9261150000000002">
        <ele>390.609</ele>
        <time>2022-08-25T12:01:32Z</time>
      </trkpt>
      <trkpt lat="42.67910999999999" lon="-1.9264030000000003">
        <ele>389.853</ele>
        <time>2022-08-25T12:01:36Z</time>
      </trkpt>
      <trkpt lat="42.67914799999999" lon="-1.9265400000000004">
        <ele>389.493</ele>
        <time>2022-08-25T12:01:38Z</time>
      </trkpt>
      <trkpt lat="42.67916599999999" lon="-1.9266080000000003">
        <ele>389.253</ele>
        <time>2022-08-25T12:01:39Z</time>
      </trkpt>
      <trkpt lat="42.67925199999999" lon="-1.9271170000000004">
        <ele>389.099</ele>
        <time>2022-08-25T12:01:46Z</time>
      </trkpt>
      <trkpt lat="42.67926699999999" lon="-1.9272630000000004">
        <ele>389.051</ele>
        <time>2022-08-25T12:01:48Z</time>
      </trkpt>
      <trkpt lat="42.67927499999999" lon="-1.9273320000000005">
        <ele>389.048</ele>
        <time>2022-08-25T12:01:49Z</time>
      </trkpt>
      <trkpt lat="42.67927799999999" lon="-1.9274030000000004">
        <ele>389.021</ele>
        <time>2022-08-25T12:01:50Z</time>
      </trkpt>
      <trkpt lat="42.679281999999986" lon="-1.9274740000000004">
        <ele>389.067</ele>
        <time>2022-08-25T12:01:51Z</time>
      </trkpt>
      <trkpt lat="42.67928399999999" lon="-1.9275460000000004">
        <ele>388.858</ele>
        <time>2022-08-25T12:01:52Z</time>
      </trkpt>
      <trkpt lat="42.679287999999985" lon="-1.9276110000000004">
        <ele>389.027</ele>
        <time>2022-08-25T12:01:53Z</time>
      </trkpt>
      <trkpt lat="42.67928899999998" lon="-1.9276740000000003">
        <ele>389.068</ele>
        <time>2022-08-25T12:01:54Z</time>
      </trkpt>
      <trkpt lat="42.679290999999985" lon="-1.9277350000000004">
        <ele>389.014</ele>
        <time>2022-08-25T12:01:55Z</time>
      </trkpt>
      <trkpt lat="42.67929499999998" lon="-1.9277940000000005">
        <ele>388.809</ele>
        <time>2022-08-25T12:01:56Z</time>
      </trkpt>
      <trkpt lat="42.67929899999998" lon="-1.9278490000000004">
        <ele>388.813</ele>
        <time>2022-08-25T12:01:57Z</time>
      </trkpt>
      <trkpt lat="42.67929699999998" lon="-1.9279080000000004">
        <ele>388.873</ele>
        <time>2022-08-25T12:01:58Z</time>
      </trkpt>
      <trkpt lat="42.67928999999998" lon="-1.9279690000000005">
        <ele>389.093</ele>
        <time>2022-08-25T12:01:59Z</time>
      </trkpt>
      <trkpt lat="42.67928899999998" lon="-1.9280270000000004">
        <ele>389.089</ele>
        <time>2022-08-25T12:02:00Z</time>
      </trkpt>
      <trkpt lat="42.679287999999985" lon="-1.9280830000000004">
        <ele>389.051</ele>
        <time>2022-08-25T12:02:01Z</time>
      </trkpt>
      <trkpt lat="42.67928599999998" lon="-1.9281390000000005">
        <ele>389.018</ele>
        <time>2022-08-25T12:02:02Z</time>
      </trkpt>
      <trkpt lat="42.679281999999986" lon="-1.9281940000000004">
        <ele>389.061</ele>
        <time>2022-08-25T12:02:03Z</time>
      </trkpt>
      <trkpt lat="42.67926999999999" lon="-1.9283530000000004">
        <ele>389.217</ele>
        <time>2022-08-25T12:02:06Z</time>
      </trkpt>
      <trkpt lat="42.67926399999999" lon="-1.9284070000000004">
        <ele>389.278</ele>
        <time>2022-08-25T12:02:07Z</time>
      </trkpt>
      <trkpt lat="42.67925899999999" lon="-1.9284540000000003">
        <ele>389.226</ele>
        <time>2022-08-25T12:02:08Z</time>
      </trkpt>
      <trkpt lat="42.679253999999986" lon="-1.9285000000000003">
        <ele>389.447</ele>
        <time>2022-08-25T12:02:09Z</time>
      </trkpt>
      <trkpt lat="42.67924799999999" lon="-1.9285520000000003">
        <ele>389.411</ele>
        <time>2022-08-25T12:02:10Z</time>
      </trkpt>
      <trkpt lat="42.679242999999985" lon="-1.9286010000000002">
        <ele>389.409</ele>
        <time>2022-08-25T12:02:11Z</time>
      </trkpt>
      <trkpt lat="42.67923099999999" lon="-1.9286460000000003">
        <ele>389.623</ele>
        <time>2022-08-25T12:02:12Z</time>
      </trkpt>
      <trkpt lat="42.67921999999999" lon="-1.9286940000000004">
        <ele>389.663</ele>
        <time>2022-08-25T12:02:13Z</time>
      </trkpt>
      <trkpt lat="42.67921399999999" lon="-1.9287450000000004">
        <ele>389.643</ele>
        <time>2022-08-25T12:02:14Z</time>
      </trkpt>
      <trkpt lat="42.679208999999986" lon="-1.9287930000000004">
        <ele>389.889</ele>
        <time>2022-08-25T12:02:15Z</time>
      </trkpt>
      <trkpt lat="42.679203999999984" lon="-1.9288390000000004">
        <ele>389.861</ele>
        <time>2022-08-25T12:02:16Z</time>
      </trkpt>
      <trkpt lat="42.67919399999998" lon="-1.9288900000000004">
        <ele>389.878</ele>
        <time>2022-08-25T12:02:17Z</time>
      </trkpt>
      <trkpt lat="42.67918499999998" lon="-1.9289360000000004">
        <ele>389.851</ele>
        <time>2022-08-25T12:02:18Z</time>
      </trkpt>
      <trkpt lat="42.679175999999984" lon="-1.9289820000000004">
        <ele>389.857</ele>
        <time>2022-08-25T12:02:19Z</time>
      </trkpt>
      <trkpt lat="42.67916899999999" lon="-1.9290250000000004">
        <ele>389.828</ele>
        <time>2022-08-25T12:02:20Z</time>
      </trkpt>
      <trkpt lat="42.67916899999999" lon="-1.9290250000000004">
        <ele>389.895</ele>
        <time>2022-08-25T12:02:21Z</time>
      </trkpt>
      <trkpt lat="42.67915199999999" lon="-1.9291090000000004">
        <ele>390.049</ele>
        <time>2022-08-25T12:02:22Z</time>
      </trkpt>
      <trkpt lat="42.67914099999999" lon="-1.9291510000000005">
        <ele>390.023</ele>
        <time>2022-08-25T12:02:23Z</time>
      </trkpt>
      <trkpt lat="42.67912999999999" lon="-1.9291920000000005">
        <ele>390.009</ele>
        <time>2022-08-25T12:02:24Z</time>
      </trkpt>
      <trkpt lat="42.67912099999999" lon="-1.9292310000000004">
        <ele>390.230</ele>
        <time>2022-08-25T12:02:25Z</time>
      </trkpt>
      <trkpt lat="42.67911199999999" lon="-1.9292700000000003">
        <ele>390.220</ele>
        <time>2022-08-25T12:02:26Z</time>
      </trkpt>
      <trkpt lat="42.67910299999999" lon="-1.9293110000000002">
        <ele>390.450</ele>
        <time>2022-08-25T12:02:27Z</time>
      </trkpt>
      <trkpt lat="42.679095999999994" lon="-1.9293510000000003">
        <ele>390.466</ele>
        <time>2022-08-25T12:02:28Z</time>
      </trkpt>
      <trkpt lat="42.67908599999999" lon="-1.9293900000000002">
        <ele>390.678</ele>
        <time>2022-08-25T12:02:29Z</time>
      </trkpt>
      <trkpt lat="42.67907699999999" lon="-1.9294280000000001">
        <ele>390.885</ele>
        <time>2022-08-25T12:02:30Z</time>
      </trkpt>
      <trkpt lat="42.67906699999999" lon="-1.9294660000000001">
        <ele>390.848</ele>
        <time>2022-08-25T12:02:31Z</time>
      </trkpt>
      <trkpt lat="42.67905499999999" lon="-1.9295030000000002">
        <ele>390.834</ele>
        <time>2022-08-25T12:02:32Z</time>
      </trkpt>
      <trkpt lat="42.67904899999999" lon="-1.9295370000000003">
        <ele>390.835</ele>
        <time>2022-08-25T12:02:33Z</time>
      </trkpt>
      <trkpt lat="42.679044999999995" lon="-1.9295720000000003">
        <ele>391.092</ele>
        <time>2022-08-25T12:02:34Z</time>
      </trkpt>
      <trkpt lat="42.679038999999996" lon="-1.9296060000000004">
        <ele>391.073</ele>
        <time>2022-08-25T12:02:35Z</time>
      </trkpt>
      <trkpt lat="42.678993" lon="-1.9297850000000003">
        <ele>391.420</ele>
        <time>2022-08-25T12:02:40Z</time>
      </trkpt>
      <trkpt lat="42.678964" lon="-1.9299330000000003">
        <ele>391.609</ele>
        <time>2022-08-25T12:02:44Z</time>
      </trkpt>
      <trkpt lat="42.678958" lon="-1.9299720000000002">
        <ele>391.850</ele>
        <time>2022-08-25T12:02:45Z</time>
      </trkpt>
      <trkpt lat="42.678925" lon="-1.9301570000000003">
        <ele>392.010</ele>
        <time>2022-08-25T12:02:50Z</time>
      </trkpt>
      <trkpt lat="42.678902" lon="-1.9302710000000003">
        <ele>392.040</ele>
        <time>2022-08-25T12:02:53Z</time>
      </trkpt>
      <trkpt lat="42.678877" lon="-1.9304250000000003">
        <ele>392.226</ele>
        <time>2022-08-25T12:02:57Z</time>
      </trkpt>
      <trkpt lat="42.678871" lon="-1.9304620000000003">
        <ele>392.248</ele>
        <time>2022-08-25T12:02:58Z</time>
      </trkpt>
      <trkpt lat="42.678866" lon="-1.9304980000000003">
        <ele>392.245</ele>
        <time>2022-08-25T12:02:59Z</time>
      </trkpt>
      <trkpt lat="42.678852" lon="-1.9305720000000002">
        <ele>392.488</ele>
        <time>2022-08-25T12:03:01Z</time>
      </trkpt>
      <trkpt lat="42.678848" lon="-1.9306070000000002">
        <ele>392.434</ele>
        <time>2022-08-25T12:03:02Z</time>
      </trkpt>
      <trkpt lat="42.678844000000005" lon="-1.9306370000000002">
        <ele>392.455</ele>
        <time>2022-08-25T12:03:03Z</time>
      </trkpt>
      <trkpt lat="42.67884000000001" lon="-1.9306690000000002">
        <ele>392.471</ele>
        <time>2022-08-25T12:03:04Z</time>
      </trkpt>
      <trkpt lat="42.67883600000001" lon="-1.9307010000000002">
        <ele>392.441</ele>
        <time>2022-08-25T12:03:05Z</time>
      </trkpt>
      <trkpt lat="42.67883100000001" lon="-1.9307330000000003">
        <ele>392.415</ele>
        <time>2022-08-25T12:03:06Z</time>
      </trkpt>
      <trkpt lat="42.67882500000001" lon="-1.9307660000000002">
        <ele>392.409</ele>
        <time>2022-08-25T12:03:07Z</time>
      </trkpt>
      <trkpt lat="42.67880500000001" lon="-1.9309780000000003">
        <ele>392.488</ele>
        <time>2022-08-25T12:03:13Z</time>
      </trkpt>
      <trkpt lat="42.678804000000014" lon="-1.9310930000000004">
        <ele>392.648</ele>
        <time>2022-08-25T12:03:16Z</time>
      </trkpt>
      <trkpt lat="42.678803000000016" lon="-1.9311290000000003">
        <ele>392.658</ele>
        <time>2022-08-25T12:03:17Z</time>
      </trkpt>
      <trkpt lat="42.678804000000014" lon="-1.9311620000000003">
        <ele>392.674</ele>
        <time>2022-08-25T12:03:18Z</time>
      </trkpt>
      <trkpt lat="42.67880500000001" lon="-1.9311930000000002">
        <ele>392.646</ele>
        <time>2022-08-25T12:03:19Z</time>
      </trkpt>
      <trkpt lat="42.67880300000001" lon="-1.9312250000000002">
        <ele>392.653</ele>
        <time>2022-08-25T12:03:20Z</time>
      </trkpt>
      <trkpt lat="42.67880000000001" lon="-1.931256">
        <ele>392.616</ele>
        <time>2022-08-25T12:03:21Z</time>
      </trkpt>
      <trkpt lat="42.67879800000001" lon="-1.931292">
        <ele>392.882</ele>
        <time>2022-08-25T12:03:22Z</time>
      </trkpt>
      <trkpt lat="42.67881200000001" lon="-1.93147">
        <ele>393.053</ele>
        <time>2022-08-25T12:03:27Z</time>
      </trkpt>
      <trkpt lat="42.678813000000005" lon="-1.931507">
        <ele>393.023</ele>
        <time>2022-08-25T12:03:28Z</time>
      </trkpt>
      <trkpt lat="42.678842" lon="-1.9319380000000002">
        <ele>393.883</ele>
        <time>2022-08-25T12:03:39Z</time>
      </trkpt>
      <trkpt lat="42.678843" lon="-1.931977">
        <ele>393.811</ele>
        <time>2022-08-25T12:03:40Z</time>
      </trkpt>
      <trkpt lat="42.678845" lon="-1.9320140000000001">
        <ele>393.809</ele>
        <time>2022-08-25T12:03:41Z</time>
      </trkpt>
      <trkpt lat="42.678847000000005" lon="-1.932053">
        <ele>394.033</ele>
        <time>2022-08-25T12:03:42Z</time>
      </trkpt>
      <trkpt lat="42.678851" lon="-1.932091">
        <ele>394.083</ele>
        <time>2022-08-25T12:03:43Z</time>
      </trkpt>
      <trkpt lat="42.67886" lon="-1.932201">
        <ele>394.433</ele>
        <time>2022-08-25T12:03:46Z</time>
      </trkpt>
      <trkpt lat="42.678867" lon="-1.932275">
        <ele>394.629</ele>
        <time>2022-08-25T12:03:48Z</time>
      </trkpt>
      <trkpt lat="42.678870999999994" lon="-1.932311">
        <ele>394.881</ele>
        <time>2022-08-25T12:03:49Z</time>
      </trkpt>
      <trkpt lat="42.67887399999999" lon="-1.9323499999999998">
        <ele>394.888</ele>
        <time>2022-08-25T12:03:50Z</time>
      </trkpt>
      <trkpt lat="42.67888099999999" lon="-1.9324209999999997">
        <ele>395.021</ele>
        <time>2022-08-25T12:03:52Z</time>
      </trkpt>
      <trkpt lat="42.67888499999999" lon="-1.9324579999999998">
        <ele>395.087</ele>
        <time>2022-08-25T12:03:53Z</time>
      </trkpt>
      <trkpt lat="42.67888699999999" lon="-1.9324929999999998">
        <ele>395.298</ele>
        <time>2022-08-25T12:03:54Z</time>
      </trkpt>
      <trkpt lat="42.67889299999999" lon="-1.9326109999999999">
        <ele>395.694</ele>
        <time>2022-08-25T12:03:57Z</time>
      </trkpt>
      <trkpt lat="42.67889599999999" lon="-1.9326459999999999">
        <ele>395.857</ele>
        <time>2022-08-25T12:03:58Z</time>
      </trkpt>
      <trkpt lat="42.678902999999984" lon="-1.932753">
        <ele>396.022</ele>
        <time>2022-08-25T12:04:01Z</time>
      </trkpt>
      <trkpt lat="42.67890699999998" lon="-1.932787">
        <ele>396.009</ele>
        <time>2022-08-25T12:04:02Z</time>
      </trkpt>
      <trkpt lat="42.67890999999998" lon="-1.93282">
        <ele>396.270</ele>
        <time>2022-08-25T12:04:03Z</time>
      </trkpt>
      <trkpt lat="42.67891199999998" lon="-1.932853">
        <ele>396.420</ele>
        <time>2022-08-25T12:04:04Z</time>
      </trkpt>
      <trkpt lat="42.67891299999998" lon="-1.93292">
        <ele>396.620</ele>
        <time>2022-08-25T12:04:06Z</time>
      </trkpt>
      <trkpt lat="42.67891899999998" lon="-1.933017">
        <ele>396.656</ele>
        <time>2022-08-25T12:04:09Z</time>
      </trkpt>
      <trkpt lat="42.67891899999998" lon="-1.933047">
        <ele>396.818</ele>
        <time>2022-08-25T12:04:10Z</time>
      </trkpt>
      <trkpt lat="42.67891999999998" lon="-1.9330749999999999">
        <ele>396.865</ele>
        <time>2022-08-25T12:04:11Z</time>
      </trkpt>
      <trkpt lat="42.67891999999998" lon="-1.9331049999999999">
        <ele>397.058</ele>
        <time>2022-08-25T12:04:12Z</time>
      </trkpt>
      <trkpt lat="42.67891999999998" lon="-1.9331359999999997">
        <ele>397.414</ele>
        <time>2022-08-25T12:04:13Z</time>
      </trkpt>
      <trkpt lat="42.67892199999998" lon="-1.9331669999999996">
        <ele>397.675</ele>
        <time>2022-08-25T12:04:14Z</time>
      </trkpt>
      <trkpt lat="42.678922999999976" lon="-1.9331949999999996">
        <ele>397.881</ele>
        <time>2022-08-25T12:04:15Z</time>
      </trkpt>
      <trkpt lat="42.678922999999976" lon="-1.9332209999999996">
        <ele>398.061</ele>
        <time>2022-08-25T12:04:16Z</time>
      </trkpt>
      <trkpt lat="42.67892199999998" lon="-1.9332469999999997">
        <ele>398.017</ele>
        <time>2022-08-25T12:04:17Z</time>
      </trkpt>
      <trkpt lat="42.67892199999998" lon="-1.9332749999999996">
        <ele>398.209</ele>
        <time>2022-08-25T12:04:18Z</time>
      </trkpt>
      <trkpt lat="42.67891899999998" lon="-1.9333049999999996">
        <ele>398.269</ele>
        <time>2022-08-25T12:04:19Z</time>
      </trkpt>
      <trkpt lat="42.67891899999998" lon="-1.9333319999999996">
        <ele>398.679</ele>
        <time>2022-08-25T12:04:20Z</time>
      </trkpt>
      <trkpt lat="42.67891799999998" lon="-1.9333599999999995">
        <ele>398.669</ele>
        <time>2022-08-25T12:04:21Z</time>
      </trkpt>
      <trkpt lat="42.67891899999998" lon="-1.9333879999999994">
        <ele>398.645</ele>
        <time>2022-08-25T12:04:22Z</time>
      </trkpt>
      <trkpt lat="42.67891799999998" lon="-1.9334149999999994">
        <ele>398.827</ele>
        <time>2022-08-25T12:04:23Z</time>
      </trkpt>
      <trkpt lat="42.678916999999984" lon="-1.9334409999999995">
        <ele>399.064</ele>
        <time>2022-08-25T12:04:24Z</time>
      </trkpt>
      <trkpt lat="42.67891799999998" lon="-1.9334679999999995">
        <ele>399.047</ele>
        <time>2022-08-25T12:04:25Z</time>
      </trkpt>
      <trkpt lat="42.67891899999998" lon="-1.9334949999999995">
        <ele>399.223</ele>
        <time>2022-08-25T12:04:26Z</time>
      </trkpt>
      <trkpt lat="42.67891999999998" lon="-1.9335219999999995">
        <ele>399.254</ele>
        <time>2022-08-25T12:04:27Z</time>
      </trkpt>
      <trkpt lat="42.67892199999998" lon="-1.9335449999999996">
        <ele>399.422</ele>
        <time>2022-08-25T12:04:28Z</time>
      </trkpt>
      <trkpt lat="42.67892199999998" lon="-1.9335699999999996">
        <ele>399.662</ele>
        <time>2022-08-25T12:04:29Z</time>
      </trkpt>
      <trkpt lat="42.67892199999998" lon="-1.9335959999999996">
        <ele>399.608</ele>
        <time>2022-08-25T12:04:30Z</time>
      </trkpt>
      <trkpt lat="42.67892099999998" lon="-1.9336269999999995">
        <ele>399.609</ele>
        <time>2022-08-25T12:04:31Z</time>
      </trkpt>
      <trkpt lat="42.67892199999998" lon="-1.9336569999999995">
        <ele>399.843</ele>
        <time>2022-08-25T12:04:32Z</time>
      </trkpt>
      <trkpt lat="42.67892399999998" lon="-1.9336859999999996">
        <ele>399.893</ele>
        <time>2022-08-25T12:04:33Z</time>
      </trkpt>
      <trkpt lat="42.67892499999998" lon="-1.9337139999999995">
        <ele>400.093</ele>
        <time>2022-08-25T12:04:34Z</time>
      </trkpt>
      <trkpt lat="42.67892699999998" lon="-1.9337399999999996">
        <ele>400.249</ele>
        <time>2022-08-25T12:04:35Z</time>
      </trkpt>
      <trkpt lat="42.67892799999998" lon="-1.9337649999999995">
        <ele>400.221</ele>
        <time>2022-08-25T12:04:36Z</time>
      </trkpt>
      <trkpt lat="42.67892699999998" lon="-1.9337899999999995">
        <ele>400.418</ele>
        <time>2022-08-25T12:04:37Z</time>
      </trkpt>
      <trkpt lat="42.67892499999998" lon="-1.9338089999999994">
        <ele>400.461</ele>
        <time>2022-08-25T12:04:38Z</time>
      </trkpt>
      <trkpt lat="42.67892399999998" lon="-1.9338309999999994">
        <ele>400.627</ele>
        <time>2022-08-25T12:04:39Z</time>
      </trkpt>
      <trkpt lat="42.67892399999998" lon="-1.9338529999999994">
        <ele>400.848</ele>
        <time>2022-08-25T12:04:40Z</time>
      </trkpt>
      <trkpt lat="42.67892499999998" lon="-1.9338719999999994">
        <ele>401.036</ele>
        <time>2022-08-25T12:04:41Z</time>
      </trkpt>
      <trkpt lat="42.678922999999976" lon="-1.9338919999999993">
        <ele>401.017</ele>
        <time>2022-08-25T12:04:42Z</time>
      </trkpt>
      <trkpt lat="42.67891899999998" lon="-1.9339119999999992">
        <ele>401.018</ele>
        <time>2022-08-25T12:04:43Z</time>
      </trkpt>
      <trkpt lat="42.67891799999998" lon="-1.9339339999999992">
        <ele>401.409</ele>
        <time>2022-08-25T12:04:44Z</time>
      </trkpt>
      <trkpt lat="42.67891799999998" lon="-1.9339569999999993">
        <ele>401.484</ele>
        <time>2022-08-25T12:04:45Z</time>
      </trkpt>
      <trkpt lat="42.67891799999998" lon="-1.9339809999999993">
        <ele>401.614</ele>
        <time>2022-08-25T12:04:46Z</time>
      </trkpt>
      <trkpt lat="42.67891599999998" lon="-1.9340069999999994">
        <ele>401.684</ele>
        <time>2022-08-25T12:04:47Z</time>
      </trkpt>
      <trkpt lat="42.67891199999998" lon="-1.9340299999999995">
        <ele>401.870</ele>
        <time>2022-08-25T12:04:48Z</time>
      </trkpt>
      <trkpt lat="42.67890999999998" lon="-1.9340489999999995">
        <ele>402.052</ele>
        <time>2022-08-25T12:04:49Z</time>
      </trkpt>
      <trkpt lat="42.67890899999998" lon="-1.9340709999999994">
        <ele>402.259</ele>
        <time>2022-08-25T12:04:50Z</time>
      </trkpt>
      <trkpt lat="42.67890699999998" lon="-1.9340959999999994">
        <ele>402.462</ele>
        <time>2022-08-25T12:04:51Z</time>
      </trkpt>
      <trkpt lat="42.67890699999998" lon="-1.9341179999999993">
        <ele>402.618</ele>
        <time>2022-08-25T12:04:52Z</time>
      </trkpt>
      <trkpt lat="42.678905999999984" lon="-1.9341399999999993">
        <ele>402.649</ele>
        <time>2022-08-25T12:04:53Z</time>
      </trkpt>
      <trkpt lat="42.678905999999984" lon="-1.9341659999999994">
        <ele>402.827</ele>
        <time>2022-08-25T12:04:54Z</time>
      </trkpt>
      <trkpt lat="42.67890399999998" lon="-1.9341909999999993">
        <ele>402.868</ele>
        <time>2022-08-25T12:04:55Z</time>
      </trkpt>
      <trkpt lat="42.67890199999998" lon="-1.9342139999999994">
        <ele>403.014</ele>
        <time>2022-08-25T12:04:56Z</time>
      </trkpt>
      <trkpt lat="42.67890199999998" lon="-1.9342379999999995">
        <ele>403.209</ele>
        <time>2022-08-25T12:04:57Z</time>
      </trkpt>
      <trkpt lat="42.67890099999998" lon="-1.9342579999999994">
        <ele>403.293</ele>
        <time>2022-08-25T12:04:58Z</time>
      </trkpt>
      <trkpt lat="42.67890099999998" lon="-1.9342809999999995">
        <ele>403.253</ele>
        <time>2022-08-25T12:04:59Z</time>
      </trkpt>
      <trkpt lat="42.678899999999985" lon="-1.9343039999999996">
        <ele>403.463</ele>
        <time>2022-08-25T12:05:00Z</time>
      </trkpt>
      <trkpt lat="42.678899999999985" lon="-1.9343229999999996">
        <ele>403.639</ele>
        <time>2022-08-25T12:05:01Z</time>
      </trkpt>
      <trkpt lat="42.678899999999985" lon="-1.9343439999999996">
        <ele>403.611</ele>
        <time>2022-08-25T12:05:02Z</time>
      </trkpt>
      <trkpt lat="42.67889599999999" lon="-1.9343639999999995">
        <ele>403.848</ele>
        <time>2022-08-25T12:05:03Z</time>
      </trkpt>
      <trkpt lat="42.678896999999985" lon="-1.9343899999999996">
        <ele>404.081</ele>
        <time>2022-08-25T12:05:04Z</time>
      </trkpt>
      <trkpt lat="42.67889899999999" lon="-1.9344139999999996">
        <ele>404.217</ele>
        <time>2022-08-25T12:05:05Z</time>
      </trkpt>
      <trkpt lat="42.67889799999999" lon="-1.9344379999999997">
        <ele>404.298</ele>
        <time>2022-08-25T12:05:06Z</time>
      </trkpt>
      <trkpt lat="42.67889399999999" lon="-1.9344609999999998">
        <ele>404.445</ele>
        <time>2022-08-25T12:05:07Z</time>
      </trkpt>
      <trkpt lat="42.67889099999999" lon="-1.9344809999999997">
        <ele>404.447</ele>
        <time>2022-08-25T12:05:08Z</time>
      </trkpt>
      <trkpt lat="42.67888799999999" lon="-1.9345049999999997">
        <ele>404.611</ele>
        <time>2022-08-25T12:05:09Z</time>
      </trkpt>
      <trkpt lat="42.67888599999999" lon="-1.9345289999999997">
        <ele>404.609</ele>
        <time>2022-08-25T12:05:10Z</time>
      </trkpt>
      <trkpt lat="42.678881999999994" lon="-1.9345499999999998">
        <ele>404.835</ele>
        <time>2022-08-25T12:05:11Z</time>
      </trkpt>
      <trkpt lat="42.67887999999999" lon="-1.9345699999999997">
        <ele>404.835</ele>
        <time>2022-08-25T12:05:12Z</time>
      </trkpt>
      <trkpt lat="42.67887799999999" lon="-1.9345879999999998">
        <ele>404.815</ele>
        <time>2022-08-25T12:05:13Z</time>
      </trkpt>
      <trkpt lat="42.67887599999999" lon="-1.9346099999999997">
        <ele>405.041</ele>
        <time>2022-08-25T12:05:14Z</time>
      </trkpt>
      <trkpt lat="42.678873999999986" lon="-1.9346329999999998">
        <ele>405.023</ele>
        <time>2022-08-25T12:05:15Z</time>
      </trkpt>
      <trkpt lat="42.678871999999984" lon="-1.934656">
        <ele>405.260</ele>
        <time>2022-08-25T12:05:16Z</time>
      </trkpt>
      <trkpt lat="42.67887099999999" lon="-1.934678">
        <ele>405.423</ele>
        <time>2022-08-25T12:05:17Z</time>
      </trkpt>
      <trkpt lat="42.678868999999985" lon="-1.934701">
        <ele>405.649</ele>
        <time>2022-08-25T12:05:18Z</time>
      </trkpt>
      <trkpt lat="42.67886799999999" lon="-1.934725">
        <ele>405.670</ele>
        <time>2022-08-25T12:05:19Z</time>
      </trkpt>
      <trkpt lat="42.678865999999985" lon="-1.934749">
        <ele>405.884</ele>
        <time>2022-08-25T12:05:20Z</time>
      </trkpt>
      <trkpt lat="42.67886499999999" lon="-1.93477">
        <ele>406.007</ele>
        <time>2022-08-25T12:05:21Z</time>
      </trkpt>
      <trkpt lat="42.67886499999999" lon="-1.9347930000000002">
        <ele>406.017</ele>
        <time>2022-08-25T12:05:22Z</time>
      </trkpt>
      <trkpt lat="42.678862999999986" lon="-1.9348150000000002">
        <ele>406.209</ele>
        <time>2022-08-25T12:05:23Z</time>
      </trkpt>
      <trkpt lat="42.678859999999986" lon="-1.9348390000000002">
        <ele>406.289</ele>
        <time>2022-08-25T12:05:24Z</time>
      </trkpt>
      <trkpt lat="42.678857999999984" lon="-1.9348640000000001">
        <ele>406.659</ele>
        <time>2022-08-25T12:05:25Z</time>
      </trkpt>
      <trkpt lat="42.67885599999998" lon="-1.934889">
        <ele>406.689</ele>
        <time>2022-08-25T12:05:26Z</time>
      </trkpt>
      <trkpt lat="42.67885399999998" lon="-1.934913">
        <ele>406.635</ele>
        <time>2022-08-25T12:05:27Z</time>
      </trkpt>
      <trkpt lat="42.67885199999998" lon="-1.9349370000000001">
        <ele>406.857</ele>
        <time>2022-08-25T12:05:28Z</time>
      </trkpt>
      <trkpt lat="42.67884899999998" lon="-1.9349610000000002">
        <ele>406.814</ele>
        <time>2022-08-25T12:05:29Z</time>
      </trkpt>
      <trkpt lat="42.67884599999998" lon="-1.9349840000000003">
        <ele>407.477</ele>
        <time>2022-08-25T12:05:30Z</time>
      </trkpt>
      <trkpt lat="42.67884499999998" lon="-1.9350080000000003">
        <ele>407.663</ele>
        <time>2022-08-25T12:05:31Z</time>
      </trkpt>
      <trkpt lat="42.67884299999998" lon="-1.9350330000000002">
        <ele>407.854</ele>
        <time>2022-08-25T12:05:32Z</time>
      </trkpt>
      <trkpt lat="42.67884099999998" lon="-1.9350620000000003">
        <ele>408.039</ele>
        <time>2022-08-25T12:05:33Z</time>
      </trkpt>
      <trkpt lat="42.67883999999998" lon="-1.9350820000000002">
        <ele>408.201</ele>
        <time>2022-08-25T12:05:34Z</time>
      </trkpt>
      <trkpt lat="42.67883599999998" lon="-1.9351050000000003">
        <ele>408.221</ele>
        <time>2022-08-25T12:05:35Z</time>
      </trkpt>
      <trkpt lat="42.67883299999998" lon="-1.9351290000000003">
        <ele>408.409</ele>
        <time>2022-08-25T12:05:36Z</time>
      </trkpt>
      <trkpt lat="42.678834999999985" lon="-1.9351540000000003">
        <ele>408.424</ele>
        <time>2022-08-25T12:05:37Z</time>
      </trkpt>
      <trkpt lat="42.678834999999985" lon="-1.9351770000000004">
        <ele>408.454</ele>
        <time>2022-08-25T12:05:38Z</time>
      </trkpt>
      <trkpt lat="42.67883399999999" lon="-1.9352010000000004">
        <ele>408.874</ele>
        <time>2022-08-25T12:05:39Z</time>
      </trkpt>
      <trkpt lat="42.678834999999985" lon="-1.9352220000000004">
        <ele>408.830</ele>
        <time>2022-08-25T12:05:40Z</time>
      </trkpt>
      <trkpt lat="42.678834999999985" lon="-1.9352430000000005">
        <ele>409.092</ele>
        <time>2022-08-25T12:05:41Z</time>
      </trkpt>
      <trkpt lat="42.67883399999999" lon="-1.9352670000000005">
        <ele>409.219</ele>
        <time>2022-08-25T12:05:42Z</time>
      </trkpt>
      <trkpt lat="42.67883399999999" lon="-1.9352900000000006">
        <ele>409.262</ele>
        <time>2022-08-25T12:05:43Z</time>
      </trkpt>
      <trkpt lat="42.67883399999999" lon="-1.9353130000000007">
        <ele>409.438</ele>
        <time>2022-08-25T12:05:44Z</time>
      </trkpt>
      <trkpt lat="42.67883299999999" lon="-1.9353370000000008">
        <ele>409.869</ele>
        <time>2022-08-25T12:05:45Z</time>
      </trkpt>
      <trkpt lat="42.67883199999999" lon="-1.9353590000000007">
        <ele>409.812</ele>
        <time>2022-08-25T12:05:46Z</time>
      </trkpt>
      <trkpt lat="42.67882999999999" lon="-1.9353810000000007">
        <ele>410.032</ele>
        <time>2022-08-25T12:05:47Z</time>
      </trkpt>
      <trkpt lat="42.67882799999999" lon="-1.9354030000000007">
        <ele>410.205</ele>
        <time>2022-08-25T12:05:48Z</time>
      </trkpt>
      <trkpt lat="42.67882599999999" lon="-1.9354260000000008">
        <ele>410.409</ele>
        <time>2022-08-25T12:05:49Z</time>
      </trkpt>
      <trkpt lat="42.678823999999985" lon="-1.9354490000000009">
        <ele>410.442</ele>
        <time>2022-08-25T12:05:50Z</time>
      </trkpt>
      <trkpt lat="42.67882199999998" lon="-1.935470000000001">
        <ele>410.842</ele>
        <time>2022-08-25T12:05:51Z</time>
      </trkpt>
      <trkpt lat="42.67881899999998" lon="-1.9354920000000009">
        <ele>411.032</ele>
        <time>2022-08-25T12:05:52Z</time>
      </trkpt>
      <trkpt lat="42.678817999999985" lon="-1.935513000000001">
        <ele>411.048</ele>
        <time>2022-08-25T12:05:53Z</time>
      </trkpt>
      <trkpt lat="42.67881599999998" lon="-1.935536000000001">
        <ele>411.240</ele>
        <time>2022-08-25T12:05:54Z</time>
      </trkpt>
      <trkpt lat="42.67881399999998" lon="-1.9355590000000011">
        <ele>411.287</ele>
        <time>2022-08-25T12:05:55Z</time>
      </trkpt>
      <trkpt lat="42.67881199999998" lon="-1.9355830000000012">
        <ele>411.470</ele>
        <time>2022-08-25T12:05:56Z</time>
      </trkpt>
      <trkpt lat="42.67880799999998" lon="-1.935608000000001">
        <ele>411.466</ele>
        <time>2022-08-25T12:05:57Z</time>
      </trkpt>
      <trkpt lat="42.67880599999998" lon="-1.9356320000000011">
        <ele>411.657</ele>
        <time>2022-08-25T12:05:58Z</time>
      </trkpt>
      <trkpt lat="42.67880599999998" lon="-1.9356560000000012">
        <ele>411.849</ele>
        <time>2022-08-25T12:05:59Z</time>
      </trkpt>
      <trkpt lat="42.67880499999998" lon="-1.9356790000000013">
        <ele>411.802</ele>
        <time>2022-08-25T12:06:00Z</time>
      </trkpt>
      <trkpt lat="42.67880499999998" lon="-1.9357030000000013">
        <ele>412.022</ele>
        <time>2022-08-25T12:06:01Z</time>
      </trkpt>
      <trkpt lat="42.67880199999998" lon="-1.9357270000000013">
        <ele>412.209</ele>
        <time>2022-08-25T12:06:02Z</time>
      </trkpt>
      <trkpt lat="42.67879699999998" lon="-1.9357510000000013">
        <ele>412.225</ele>
        <time>2022-08-25T12:06:03Z</time>
      </trkpt>
      <trkpt lat="42.67879499999998" lon="-1.9357730000000013">
        <ele>412.455</ele>
        <time>2022-08-25T12:06:04Z</time>
      </trkpt>
      <trkpt lat="42.67879399999998" lon="-1.9357960000000014">
        <ele>412.475</ele>
        <time>2022-08-25T12:06:05Z</time>
      </trkpt>
      <trkpt lat="42.67879399999998" lon="-1.9358210000000013">
        <ele>412.631</ele>
        <time>2022-08-25T12:06:06Z</time>
      </trkpt>
      <trkpt lat="42.67879399999998" lon="-1.9358480000000013">
        <ele>412.823</ele>
        <time>2022-08-25T12:06:07Z</time>
      </trkpt>
      <trkpt lat="42.678792999999985" lon="-1.9358710000000015">
        <ele>412.850</ele>
        <time>2022-08-25T12:06:08Z</time>
      </trkpt>
      <trkpt lat="42.67879099999998" lon="-1.9358930000000014">
        <ele>413.023</ele>
        <time>2022-08-25T12:06:09Z</time>
      </trkpt>
      <trkpt lat="42.678789999999985" lon="-1.9359140000000015">
        <ele>413.039</ele>
        <time>2022-08-25T12:06:10Z</time>
      </trkpt>
      <trkpt lat="42.67878899999999" lon="-1.9359350000000015">
        <ele>413.280</ele>
        <time>2022-08-25T12:06:11Z</time>
      </trkpt>
      <trkpt lat="42.67878899999999" lon="-1.9359590000000015">
        <ele>413.238</ele>
        <time>2022-08-25T12:06:12Z</time>
      </trkpt>
      <trkpt lat="42.678786999999986" lon="-1.9359840000000015">
        <ele>413.470</ele>
        <time>2022-08-25T12:06:13Z</time>
      </trkpt>
      <trkpt lat="42.678786999999986" lon="-1.9360090000000014">
        <ele>413.417</ele>
        <time>2022-08-25T12:06:14Z</time>
      </trkpt>
      <trkpt lat="42.67878299999999" lon="-1.9360360000000014">
        <ele>413.409</ele>
        <time>2022-08-25T12:06:15Z</time>
      </trkpt>
      <trkpt lat="42.67878299999999" lon="-1.9360620000000015">
        <ele>413.654</ele>
        <time>2022-08-25T12:06:16Z</time>
      </trkpt>
      <trkpt lat="42.67877999999999" lon="-1.9360870000000014">
        <ele>413.874</ele>
        <time>2022-08-25T12:06:17Z</time>
      </trkpt>
      <trkpt lat="42.67877799999999" lon="-1.9361110000000015">
        <ele>414.044</ele>
        <time>2022-08-25T12:06:18Z</time>
      </trkpt>
      <trkpt lat="42.67877799999999" lon="-1.9361320000000015">
        <ele>414.050</ele>
        <time>2022-08-25T12:06:19Z</time>
      </trkpt>
      <trkpt lat="42.67877799999999" lon="-1.9361540000000015">
        <ele>414.272</ele>
        <time>2022-08-25T12:06:20Z</time>
      </trkpt>
      <trkpt lat="42.67877799999999" lon="-1.9361770000000016">
        <ele>414.439</ele>
        <time>2022-08-25T12:06:21Z</time>
      </trkpt>
      <trkpt lat="42.67877799999999" lon="-1.9362010000000016">
        <ele>414.442</ele>
        <time>2022-08-25T12:06:22Z</time>
      </trkpt>
      <trkpt lat="42.67877499999999" lon="-1.9362240000000017">
        <ele>414.658</ele>
        <time>2022-08-25T12:06:23Z</time>
      </trkpt>
      <trkpt lat="42.67877399999999" lon="-1.9362470000000018">
        <ele>414.629</ele>
        <time>2022-08-25T12:06:24Z</time>
      </trkpt>
      <trkpt lat="42.67877199999999" lon="-1.936270000000002">
        <ele>414.855</ele>
        <time>2022-08-25T12:06:25Z</time>
      </trkpt>
      <trkpt lat="42.67876899999999" lon="-1.9362950000000019">
        <ele>414.807</ele>
        <time>2022-08-25T12:06:26Z</time>
      </trkpt>
      <trkpt lat="42.678766999999986" lon="-1.9363170000000018">
        <ele>415.017</ele>
        <time>2022-08-25T12:06:27Z</time>
      </trkpt>
      <trkpt lat="42.678764999999984" lon="-1.936340000000002">
        <ele>415.209</ele>
        <time>2022-08-25T12:06:28Z</time>
      </trkpt>
      <trkpt lat="42.67876399999999" lon="-1.936363000000002">
        <ele>415.226</ele>
        <time>2022-08-25T12:06:29Z</time>
      </trkpt>
      <trkpt lat="42.67876299999999" lon="-1.936385000000002">
        <ele>415.446</ele>
        <time>2022-08-25T12:06:30Z</time>
      </trkpt>
      <trkpt lat="42.67876199999999" lon="-1.936405000000002">
        <ele>415.426</ele>
        <time>2022-08-25T12:06:31Z</time>
      </trkpt>
      <trkpt lat="42.678760999999994" lon="-1.936431000000002">
        <ele>415.632</ele>
        <time>2022-08-25T12:06:32Z</time>
      </trkpt>
      <trkpt lat="42.678757999999995" lon="-1.936456000000002">
        <ele>415.834</ele>
        <time>2022-08-25T12:06:33Z</time>
      </trkpt>
      <trkpt lat="42.678754999999995" lon="-1.936480000000002">
        <ele>416.091</ele>
        <time>2022-08-25T12:06:34Z</time>
      </trkpt>
      <trkpt lat="42.678754" lon="-1.936501000000002">
        <ele>416.044</ele>
        <time>2022-08-25T12:06:35Z</time>
      </trkpt>
      <trkpt lat="42.678753" lon="-1.9365240000000021">
        <ele>416.040</ele>
        <time>2022-08-25T12:06:36Z</time>
      </trkpt>
      <trkpt lat="42.678751" lon="-1.936546000000002">
        <ele>416.281</ele>
        <time>2022-08-25T12:06:37Z</time>
      </trkpt>
      <trkpt lat="42.678746" lon="-1.936568000000002">
        <ele>416.265</ele>
        <time>2022-08-25T12:06:38Z</time>
      </trkpt>
      <trkpt lat="42.678746" lon="-1.9365910000000022">
        <ele>416.268</ele>
        <time>2022-08-25T12:06:39Z</time>
      </trkpt>
      <trkpt lat="42.678745" lon="-1.9366140000000023">
        <ele>416.414</ele>
        <time>2022-08-25T12:06:40Z</time>
      </trkpt>
      <trkpt lat="42.678743" lon="-1.9366320000000024">
        <ele>416.409</ele>
        <time>2022-08-25T12:06:41Z</time>
      </trkpt>
      <trkpt lat="42.678740999999995" lon="-1.9366530000000024">
        <ele>416.457</ele>
        <time>2022-08-25T12:06:42Z</time>
      </trkpt>
      <trkpt lat="42.678735999999994" lon="-1.9366740000000024">
        <ele>416.487</ele>
        <time>2022-08-25T12:06:43Z</time>
      </trkpt>
      <trkpt lat="42.678732999999994" lon="-1.9366950000000025">
        <ele>416.667</ele>
        <time>2022-08-25T12:06:44Z</time>
      </trkpt>
      <trkpt lat="42.67873099999999" lon="-1.9367180000000026">
        <ele>416.863</ele>
        <time>2022-08-25T12:06:45Z</time>
      </trkpt>
      <trkpt lat="42.678726999999995" lon="-1.9367440000000027">
        <ele>417.055</ele>
        <time>2022-08-25T12:06:46Z</time>
      </trkpt>
      <trkpt lat="42.678723" lon="-1.9367680000000027">
        <ele>417.072</ele>
        <time>2022-08-25T12:06:47Z</time>
      </trkpt>
      <trkpt lat="42.67872" lon="-1.9367920000000027">
        <ele>417.295</ele>
        <time>2022-08-25T12:06:48Z</time>
      </trkpt>
      <trkpt lat="42.678717" lon="-1.9368180000000028">
        <ele>417.241</ele>
        <time>2022-08-25T12:06:49Z</time>
      </trkpt>
      <trkpt lat="42.678714" lon="-1.9368430000000028">
        <ele>417.212</ele>
        <time>2022-08-25T12:06:50Z</time>
      </trkpt>
      <trkpt lat="42.678712" lon="-1.9368670000000028">
        <ele>417.416</ele>
        <time>2022-08-25T12:06:51Z</time>
      </trkpt>
      <trkpt lat="42.678709" lon="-1.9368890000000027">
        <ele>417.476</ele>
        <time>2022-08-25T12:06:52Z</time>
      </trkpt>
      <trkpt lat="42.678705" lon="-1.9369120000000029">
        <ele>417.413</ele>
        <time>2022-08-25T12:06:53Z</time>
      </trkpt>
      <trkpt lat="42.678701000000004" lon="-1.9369360000000029">
        <ele>417.609</ele>
        <time>2022-08-25T12:06:54Z</time>
      </trkpt>
      <trkpt lat="42.678687000000004" lon="-1.937030000000003">
        <ele>417.872</ele>
        <time>2022-08-25T12:06:58Z</time>
      </trkpt>
      <trkpt lat="42.678665" lon="-1.9372120000000028">
        <ele>418.082</ele>
        <time>2022-08-25T12:07:05Z</time>
      </trkpt>
      <trkpt lat="42.678659" lon="-1.9372630000000028">
        <ele>418.032</ele>
        <time>2022-08-25T12:07:07Z</time>
      </trkpt>
      <trkpt lat="42.678656000000004" lon="-1.9372850000000028">
        <ele>418.268</ele>
        <time>2022-08-25T12:07:08Z</time>
      </trkpt>
      <trkpt lat="42.678645" lon="-1.937338000000003">
        <ele>418.270</ele>
        <time>2022-08-25T12:07:10Z</time>
      </trkpt>
      <trkpt lat="42.678642" lon="-1.937362000000003">
        <ele>418.427</ele>
        <time>2022-08-25T12:07:11Z</time>
      </trkpt>
      <trkpt lat="42.678639000000004" lon="-1.937386000000003">
        <ele>418.430</ele>
        <time>2022-08-25T12:07:12Z</time>
      </trkpt>
      <trkpt lat="42.678617" lon="-1.937482000000003">
        <ele>418.476</ele>
        <time>2022-08-25T12:07:16Z</time>
      </trkpt>
      <trkpt lat="42.678596000000006" lon="-1.937601000000003">
        <ele>419.037</ele>
        <time>2022-08-25T12:07:21Z</time>
      </trkpt>
      <trkpt lat="42.67859200000001" lon="-1.9376240000000031">
        <ele>419.299</ele>
        <time>2022-08-25T12:07:22Z</time>
      </trkpt>
      <trkpt lat="42.67858700000001" lon="-1.9376470000000032">
        <ele>419.407</ele>
        <time>2022-08-25T12:07:23Z</time>
      </trkpt>
      <trkpt lat="42.67858400000001" lon="-1.9376700000000033">
        <ele>419.427</ele>
        <time>2022-08-25T12:07:24Z</time>
      </trkpt>
      <trkpt lat="42.678579000000006" lon="-1.9376930000000034">
        <ele>419.409</ele>
        <time>2022-08-25T12:07:25Z</time>
      </trkpt>
      <trkpt lat="42.67857000000001" lon="-1.9377150000000034">
        <ele>419.480</ele>
        <time>2022-08-25T12:07:26Z</time>
      </trkpt>
      <trkpt lat="42.67855200000001" lon="-1.9378320000000033">
        <ele>420.030</ele>
        <time>2022-08-25T12:07:31Z</time>
      </trkpt>
      <trkpt lat="42.67854700000001" lon="-1.9378550000000034">
        <ele>420.240</ele>
        <time>2022-08-25T12:07:32Z</time>
      </trkpt>
      <trkpt lat="42.67854200000001" lon="-1.9378730000000035">
        <ele>420.226</ele>
        <time>2022-08-25T12:07:33Z</time>
      </trkpt>
      <trkpt lat="42.67853500000001" lon="-1.9378960000000036">
        <ele>420.418</ele>
        <time>2022-08-25T12:07:34Z</time>
      </trkpt>
      <trkpt lat="42.67853000000001" lon="-1.9379150000000036">
        <ele>420.465</ele>
        <time>2022-08-25T12:07:35Z</time>
      </trkpt>
      <trkpt lat="42.67851600000001" lon="-1.9379780000000035">
        <ele>420.648</ele>
        <time>2022-08-25T12:07:38Z</time>
      </trkpt>
      <trkpt lat="42.67849600000001" lon="-1.9380680000000035">
        <ele>421.044</ele>
        <time>2022-08-25T12:07:42Z</time>
      </trkpt>
      <trkpt lat="42.67849200000001" lon="-1.9380880000000034">
        <ele>421.025</ele>
        <time>2022-08-25T12:07:43Z</time>
      </trkpt>
      <trkpt lat="42.678483000000014" lon="-1.9381230000000034">
        <ele>421.238</ele>
        <time>2022-08-25T12:07:45Z</time>
      </trkpt>
      <trkpt lat="42.67847800000001" lon="-1.9381440000000034">
        <ele>421.270</ele>
        <time>2022-08-25T12:07:46Z</time>
      </trkpt>
      <trkpt lat="42.67847200000001" lon="-1.9381640000000033">
        <ele>421.417</ele>
        <time>2022-08-25T12:07:47Z</time>
      </trkpt>
      <trkpt lat="42.678469000000014" lon="-1.9381830000000033">
        <ele>421.409</ele>
        <time>2022-08-25T12:07:48Z</time>
      </trkpt>
      <trkpt lat="42.67846400000001" lon="-1.9382260000000033">
        <ele>421.654</ele>
        <time>2022-08-25T12:07:50Z</time>
      </trkpt>
      <trkpt lat="42.67845600000001" lon="-1.9382510000000033">
        <ele>421.864</ele>
        <time>2022-08-25T12:07:51Z</time>
      </trkpt>
      <trkpt lat="42.67844500000001" lon="-1.9382960000000033">
        <ele>422.084</ele>
        <time>2022-08-25T12:07:53Z</time>
      </trkpt>
      <trkpt lat="42.67843100000001" lon="-1.9383630000000034">
        <ele>422.820</ele>
        <time>2022-08-25T12:07:56Z</time>
      </trkpt>
      <trkpt lat="42.67842700000001" lon="-1.9383850000000034">
        <ele>423.052</ele>
        <time>2022-08-25T12:07:57Z</time>
      </trkpt>
      <trkpt lat="42.678423000000016" lon="-1.9384070000000033">
        <ele>423.299</ele>
        <time>2022-08-25T12:07:58Z</time>
      </trkpt>
      <trkpt lat="42.67841700000002" lon="-1.9384290000000033">
        <ele>423.412</ele>
        <time>2022-08-25T12:07:59Z</time>
      </trkpt>
      <trkpt lat="42.67841100000002" lon="-1.9384510000000033">
        <ele>423.438</ele>
        <time>2022-08-25T12:08:00Z</time>
      </trkpt>
      <trkpt lat="42.67840500000002" lon="-1.9384720000000033">
        <ele>423.679</ele>
        <time>2022-08-25T12:08:01Z</time>
      </trkpt>
      <trkpt lat="42.67839900000002" lon="-1.9384920000000032">
        <ele>423.676</ele>
        <time>2022-08-25T12:08:02Z</time>
      </trkpt>
      <trkpt lat="42.67839400000002" lon="-1.9385110000000032">
        <ele>423.690</ele>
        <time>2022-08-25T12:08:03Z</time>
      </trkpt>
      <trkpt lat="42.67838900000002" lon="-1.9385310000000031">
        <ele>424.019</ele>
        <time>2022-08-25T12:08:04Z</time>
      </trkpt>
      <trkpt lat="42.678384000000015" lon="-1.938551000000003">
        <ele>424.009</ele>
        <time>2022-08-25T12:08:05Z</time>
      </trkpt>
      <trkpt lat="42.678378000000016" lon="-1.938572000000003">
        <ele>424.238</ele>
        <time>2022-08-25T12:08:06Z</time>
      </trkpt>
      <trkpt lat="42.678373000000015" lon="-1.938592000000003">
        <ele>424.218</ele>
        <time>2022-08-25T12:08:07Z</time>
      </trkpt>
      <trkpt lat="42.678367000000016" lon="-1.938610000000003">
        <ele>424.248</ele>
        <time>2022-08-25T12:08:08Z</time>
      </trkpt>
      <trkpt lat="42.678362000000014" lon="-1.938630000000003">
        <ele>424.444</ele>
        <time>2022-08-25T12:08:09Z</time>
      </trkpt>
      <trkpt lat="42.67835800000002" lon="-1.938653000000003">
        <ele>424.436</ele>
        <time>2022-08-25T12:08:10Z</time>
      </trkpt>
      <trkpt lat="42.67835100000002" lon="-1.938678000000003">
        <ele>424.453</ele>
        <time>2022-08-25T12:08:11Z</time>
      </trkpt>
      <trkpt lat="42.67834600000002" lon="-1.938699000000003">
        <ele>424.676</ele>
        <time>2022-08-25T12:08:12Z</time>
      </trkpt>
      <trkpt lat="42.67834200000002" lon="-1.938720000000003">
        <ele>424.682</ele>
        <time>2022-08-25T12:08:13Z</time>
      </trkpt>
      <trkpt lat="42.67833700000002" lon="-1.938742000000003">
        <ele>424.653</ele>
        <time>2022-08-25T12:08:14Z</time>
      </trkpt>
      <trkpt lat="42.67833200000002" lon="-1.938762000000003">
        <ele>424.875</ele>
        <time>2022-08-25T12:08:15Z</time>
      </trkpt>
      <trkpt lat="42.67832600000002" lon="-1.938782000000003">
        <ele>424.828</ele>
        <time>2022-08-25T12:08:16Z</time>
      </trkpt>
      <trkpt lat="42.67832100000002" lon="-1.9388020000000028">
        <ele>425.020</ele>
        <time>2022-08-25T12:08:17Z</time>
      </trkpt>
      <trkpt lat="42.67831700000002" lon="-1.9388200000000029">
        <ele>425.209</ele>
        <time>2022-08-25T12:08:18Z</time>
      </trkpt>
      <trkpt lat="42.67831200000002" lon="-1.938836000000003">
        <ele>425.248</ele>
        <time>2022-08-25T12:08:19Z</time>
      </trkpt>
      <trkpt lat="42.67830800000002" lon="-1.9388560000000028">
        <ele>425.818</ele>
        <time>2022-08-25T12:08:20Z</time>
      </trkpt>
      <trkpt lat="42.67830000000002" lon="-1.9388780000000028">
        <ele>426.018</ele>
        <time>2022-08-25T12:08:21Z</time>
      </trkpt>
      <trkpt lat="42.678293000000025" lon="-1.9388980000000027">
        <ele>426.094</ele>
        <time>2022-08-25T12:08:22Z</time>
      </trkpt>
      <trkpt lat="42.678287000000026" lon="-1.9389170000000027">
        <ele>426.276</ele>
        <time>2022-08-25T12:08:23Z</time>
      </trkpt>
      <trkpt lat="42.67828100000003" lon="-1.9389380000000027">
        <ele>426.233</ele>
        <time>2022-08-25T12:08:24Z</time>
      </trkpt>
      <trkpt lat="42.67827500000003" lon="-1.9389600000000027">
        <ele>426.416</ele>
        <time>2022-08-25T12:08:25Z</time>
      </trkpt>
      <trkpt lat="42.678270000000026" lon="-1.9389820000000026">
        <ele>426.442</ele>
        <time>2022-08-25T12:08:26Z</time>
      </trkpt>
      <trkpt lat="42.67826300000003" lon="-1.9390020000000026">
        <ele>426.683</ele>
        <time>2022-08-25T12:08:27Z</time>
      </trkpt>
      <trkpt lat="42.67825500000003" lon="-1.9390220000000025">
        <ele>426.662</ele>
        <time>2022-08-25T12:08:28Z</time>
      </trkpt>
      <trkpt lat="42.67824800000003" lon="-1.9390440000000024">
        <ele>426.683</ele>
        <time>2022-08-25T12:08:29Z</time>
      </trkpt>
      <trkpt lat="42.67823900000003" lon="-1.9390680000000025">
        <ele>426.611</ele>
        <time>2022-08-25T12:08:30Z</time>
      </trkpt>
      <trkpt lat="42.67823200000004" lon="-1.9390840000000025">
        <ele>426.609</ele>
        <time>2022-08-25T12:08:31Z</time>
      </trkpt>
      <trkpt lat="42.67822300000004" lon="-1.9391040000000024">
        <ele>426.867</ele>
        <time>2022-08-25T12:08:32Z</time>
      </trkpt>
      <trkpt lat="42.67821500000004" lon="-1.9391240000000023">
        <ele>426.867</ele>
        <time>2022-08-25T12:08:33Z</time>
      </trkpt>
      <trkpt lat="42.678204000000036" lon="-1.9391460000000023">
        <ele>427.037</ele>
        <time>2022-08-25T12:08:34Z</time>
      </trkpt>
      <trkpt lat="42.67819400000003" lon="-1.9391650000000022">
        <ele>427.263</ele>
        <time>2022-08-25T12:08:35Z</time>
      </trkpt>
      <trkpt lat="42.67818300000003" lon="-1.9391810000000023">
        <ele>427.225</ele>
        <time>2022-08-25T12:08:36Z</time>
      </trkpt>
      <trkpt lat="42.67817500000003" lon="-1.9391980000000022">
        <ele>427.292</ele>
        <time>2022-08-25T12:08:37Z</time>
      </trkpt>
      <trkpt lat="42.67816600000003" lon="-1.9392170000000022">
        <ele>427.255</ele>
        <time>2022-08-25T12:08:38Z</time>
      </trkpt>
      <trkpt lat="42.678157000000034" lon="-1.9392380000000022">
        <ele>427.421</ele>
        <time>2022-08-25T12:08:39Z</time>
      </trkpt>
      <trkpt lat="42.67814700000003" lon="-1.9392580000000021">
        <ele>427.682</ele>
        <time>2022-08-25T12:08:40Z</time>
      </trkpt>
      <trkpt lat="42.67807400000003" lon="-1.9393950000000022">
        <ele>428.651</ele>
        <time>2022-08-25T12:08:47Z</time>
      </trkpt>
      <trkpt lat="42.67806300000003" lon="-1.9394100000000023">
        <ele>428.601</ele>
        <time>2022-08-25T12:08:48Z</time>
      </trkpt>
      <trkpt lat="42.67804700000003" lon="-1.9394280000000024">
        <ele>428.611</ele>
        <time>2022-08-25T12:08:49Z</time>
      </trkpt>
      <trkpt lat="42.67803600000003" lon="-1.9394430000000025">
        <ele>428.809</ele>
        <time>2022-08-25T12:08:50Z</time>
      </trkpt>
      <trkpt lat="42.67802200000003" lon="-1.9394600000000024">
        <ele>428.846</ele>
        <time>2022-08-25T12:08:51Z</time>
      </trkpt>
      <trkpt lat="42.678009000000024" lon="-1.9394770000000023">
        <ele>428.866</ele>
        <time>2022-08-25T12:08:52Z</time>
      </trkpt>
      <trkpt lat="42.677997000000026" lon="-1.9394950000000024">
        <ele>429.026</ele>
        <time>2022-08-25T12:08:53Z</time>
      </trkpt>
      <trkpt lat="42.677986000000026" lon="-1.9395130000000025">
        <ele>429.022</ele>
        <time>2022-08-25T12:08:54Z</time>
      </trkpt>
      <trkpt lat="42.67797100000003" lon="-1.9395300000000024">
        <ele>429.064</ele>
        <time>2022-08-25T12:08:55Z</time>
      </trkpt>
      <trkpt lat="42.67796000000003" lon="-1.9395480000000025">
        <ele>429.251</ele>
        <time>2022-08-25T12:08:56Z</time>
      </trkpt>
      <trkpt lat="42.67795100000003" lon="-1.9395640000000025">
        <ele>429.274</ele>
        <time>2022-08-25T12:08:57Z</time>
      </trkpt>
      <trkpt lat="42.67794000000003" lon="-1.9395790000000026">
        <ele>429.430</ele>
        <time>2022-08-25T12:08:58Z</time>
      </trkpt>
      <trkpt lat="42.67792900000003" lon="-1.9395930000000026">
        <ele>429.451</ele>
        <time>2022-08-25T12:08:59Z</time>
      </trkpt>
      <trkpt lat="42.67791800000003" lon="-1.9396080000000027">
        <ele>429.485</ele>
        <time>2022-08-25T12:09:00Z</time>
      </trkpt>
      <trkpt lat="42.67790900000003" lon="-1.9396230000000028">
        <ele>429.689</ele>
        <time>2022-08-25T12:09:01Z</time>
      </trkpt>
      <trkpt lat="42.677899000000025" lon="-1.9396390000000028">
        <ele>429.617</ele>
        <time>2022-08-25T12:09:02Z</time>
      </trkpt>
      <trkpt lat="42.677829000000024" lon="-1.9397240000000027">
        <ele>430.609</ele>
        <time>2022-08-25T12:09:08Z</time>
      </trkpt>
      <trkpt lat="42.67781800000002" lon="-1.9397360000000026">
        <ele>430.699</ele>
        <time>2022-08-25T12:09:09Z</time>
      </trkpt>
      <trkpt lat="42.67780700000002" lon="-1.9397460000000026">
        <ele>430.649</ele>
        <time>2022-08-25T12:09:10Z</time>
      </trkpt>
      <trkpt lat="42.677784000000024" lon="-1.9397760000000026">
        <ele>430.859</ele>
        <time>2022-08-25T12:09:12Z</time>
      </trkpt>
      <trkpt lat="42.67777100000002" lon="-1.9397910000000027">
        <ele>430.885</ele>
        <time>2022-08-25T12:09:13Z</time>
      </trkpt>
      <trkpt lat="42.67775900000002" lon="-1.9398060000000028">
        <ele>430.827</ele>
        <time>2022-08-25T12:09:14Z</time>
      </trkpt>
      <trkpt lat="42.67773700000002" lon="-1.9398310000000027">
        <ele>431.034</ele>
        <time>2022-08-25T12:09:16Z</time>
      </trkpt>
      <trkpt lat="42.677725000000024" lon="-1.9398420000000027">
        <ele>431.037</ele>
        <time>2022-08-25T12:09:17Z</time>
      </trkpt>
      <trkpt lat="42.67767500000002" lon="-1.9398830000000027">
        <ele>431.273</ele>
        <time>2022-08-25T12:09:21Z</time>
      </trkpt>
      <trkpt lat="42.677663000000024" lon="-1.9398950000000026">
        <ele>431.484</ele>
        <time>2022-08-25T12:09:22Z</time>
      </trkpt>
      <trkpt lat="42.677651000000026" lon="-1.9399080000000026">
        <ele>431.627</ele>
        <time>2022-08-25T12:09:23Z</time>
      </trkpt>
      <trkpt lat="42.677640000000025" lon="-1.9399180000000027">
        <ele>431.668</ele>
        <time>2022-08-25T12:09:24Z</time>
      </trkpt>
      <trkpt lat="42.67762700000002" lon="-1.9399290000000027">
        <ele>431.614</ele>
        <time>2022-08-25T12:09:25Z</time>
      </trkpt>
      <trkpt lat="42.67761600000002" lon="-1.9399400000000027">
        <ele>431.609</ele>
        <time>2022-08-25T12:09:26Z</time>
      </trkpt>
      <trkpt lat="42.67760500000002" lon="-1.9399500000000027">
        <ele>431.673</ele>
        <time>2022-08-25T12:09:27Z</time>
      </trkpt>
      <trkpt lat="42.67759300000002" lon="-1.9399600000000028">
        <ele>431.823</ele>
        <time>2022-08-25T12:09:28Z</time>
      </trkpt>
      <trkpt lat="42.677513000000026" lon="-1.9400350000000028">
        <ele>432.673</ele>
        <time>2022-08-25T12:09:34Z</time>
      </trkpt>
      <trkpt lat="42.67750000000002" lon="-1.9400470000000027">
        <ele>432.819</ele>
        <time>2022-08-25T12:09:35Z</time>
      </trkpt>
      <trkpt lat="42.677488000000025" lon="-1.9400550000000027">
        <ele>432.891</ele>
        <time>2022-08-25T12:09:36Z</time>
      </trkpt>
      <trkpt lat="42.677474000000025" lon="-1.9400660000000027">
        <ele>433.038</ele>
        <time>2022-08-25T12:09:37Z</time>
      </trkpt>
      <trkpt lat="42.677463000000024" lon="-1.9400750000000027">
        <ele>433.061</ele>
        <time>2022-08-25T12:09:38Z</time>
      </trkpt>
      <trkpt lat="42.677452000000024" lon="-1.9400860000000026">
        <ele>433.087</ele>
        <time>2022-08-25T12:09:39Z</time>
      </trkpt>
      <trkpt lat="42.677440000000026" lon="-1.9400980000000025">
        <ele>433.068</ele>
        <time>2022-08-25T12:09:40Z</time>
      </trkpt>
      <trkpt lat="42.67743000000002" lon="-1.9401060000000026">
        <ele>433.025</ele>
        <time>2022-08-25T12:09:41Z</time>
      </trkpt>
      <trkpt lat="42.67741900000002" lon="-1.9401150000000025">
        <ele>433.026</ele>
        <time>2022-08-25T12:09:42Z</time>
      </trkpt>
      <trkpt lat="42.67737200000002" lon="-1.9401490000000026">
        <ele>433.208</ele>
        <time>2022-08-25T12:09:46Z</time>
      </trkpt>
      <trkpt lat="42.67736100000002" lon="-1.9401590000000026">
        <ele>433.209</ele>
        <time>2022-08-25T12:09:47Z</time>
      </trkpt>
      <trkpt lat="42.67727600000002" lon="-1.9402350000000026">
        <ele>433.853</ele>
        <time>2022-08-25T12:09:54Z</time>
      </trkpt>
      <trkpt lat="42.67726100000002" lon="-1.9402470000000025">
        <ele>433.823</ele>
        <time>2022-08-25T12:09:55Z</time>
      </trkpt>
      <trkpt lat="42.677218000000025" lon="-1.9402750000000024">
        <ele>434.043</ele>
        <time>2022-08-25T12:09:58Z</time>
      </trkpt>
      <trkpt lat="42.67720500000002" lon="-1.9402860000000024">
        <ele>434.229</ele>
        <time>2022-08-25T12:09:59Z</time>
      </trkpt>
      <trkpt lat="42.677193000000024" lon="-1.9402980000000023">
        <ele>434.281</ele>
        <time>2022-08-25T12:10:00Z</time>
      </trkpt>
      <trkpt lat="42.677133000000026" lon="-1.9403470000000023">
        <ele>434.618</ele>
        <time>2022-08-25T12:10:04Z</time>
      </trkpt>
      <trkpt lat="42.67710400000003" lon="-1.9403720000000022">
        <ele>435.031</ele>
        <time>2022-08-25T12:10:06Z</time>
      </trkpt>
      <trkpt lat="42.67700000000003" lon="-1.9404560000000022">
        <ele>435.487</ele>
        <time>2022-08-25T12:10:13Z</time>
      </trkpt>
      <trkpt lat="42.67698500000003" lon="-1.9404700000000021">
        <ele>435.438</ele>
        <time>2022-08-25T12:10:14Z</time>
      </trkpt>
      <trkpt lat="42.67697100000003" lon="-1.9404810000000021">
        <ele>435.666</ele>
        <time>2022-08-25T12:10:15Z</time>
      </trkpt>
      <trkpt lat="42.67695600000003" lon="-1.940492000000002">
        <ele>435.629</ele>
        <time>2022-08-25T12:10:16Z</time>
      </trkpt>
      <trkpt lat="42.676896000000035" lon="-1.9405350000000021">
        <ele>436.021</ele>
        <time>2022-08-25T12:10:20Z</time>
      </trkpt>
      <trkpt lat="42.67684700000004" lon="-1.9405750000000022">
        <ele>436.209</ele>
        <time>2022-08-25T12:10:23Z</time>
      </trkpt>
      <trkpt lat="42.67683600000004" lon="-1.9405830000000022">
        <ele>436.457</ele>
        <time>2022-08-25T12:10:24Z</time>
      </trkpt>
      <trkpt lat="42.67682200000004" lon="-1.9405940000000022">
        <ele>436.457</ele>
        <time>2022-08-25T12:10:25Z</time>
      </trkpt>
      <trkpt lat="42.676809000000034" lon="-1.9406100000000022">
        <ele>436.477</ele>
        <time>2022-08-25T12:10:26Z</time>
      </trkpt>
      <trkpt lat="42.676752000000036" lon="-1.9406590000000021">
        <ele>436.843</ele>
        <time>2022-08-25T12:10:30Z</time>
      </trkpt>
      <trkpt lat="42.676724000000036" lon="-1.9406830000000022">
        <ele>437.025</ele>
        <time>2022-08-25T12:10:32Z</time>
      </trkpt>
      <trkpt lat="42.676682000000035" lon="-1.9407210000000021">
        <ele>437.232</ele>
        <time>2022-08-25T12:10:35Z</time>
      </trkpt>
      <trkpt lat="42.67659100000004" lon="-1.9407940000000021">
        <ele>437.845</ele>
        <time>2022-08-25T12:10:41Z</time>
      </trkpt>
      <trkpt lat="42.67657600000004" lon="-1.940808000000002">
        <ele>437.811</ele>
        <time>2022-08-25T12:10:42Z</time>
      </trkpt>
      <trkpt lat="42.67653000000004" lon="-1.940852000000002">
        <ele>438.042</ele>
        <time>2022-08-25T12:10:45Z</time>
      </trkpt>
      <trkpt lat="42.676501000000044" lon="-1.9408750000000021">
        <ele>438.287</ele>
        <time>2022-08-25T12:10:47Z</time>
      </trkpt>
      <trkpt lat="42.67648600000005" lon="-1.9408880000000022">
        <ele>438.442</ele>
        <time>2022-08-25T12:10:48Z</time>
      </trkpt>
      <trkpt lat="42.67647100000005" lon="-1.9409030000000023">
        <ele>438.626</ele>
        <time>2022-08-25T12:10:49Z</time>
      </trkpt>
      <trkpt lat="42.67645700000005" lon="-1.9409160000000023">
        <ele>438.609</ele>
        <time>2022-08-25T12:10:50Z</time>
      </trkpt>
      <trkpt lat="42.67642900000005" lon="-1.9409460000000023">
        <ele>439.049</ele>
        <time>2022-08-25T12:10:52Z</time>
      </trkpt>
      <trkpt lat="42.676405000000045" lon="-1.9409760000000023">
        <ele>439.419</ele>
        <time>2022-08-25T12:10:54Z</time>
      </trkpt>
      <trkpt lat="42.676394000000045" lon="-1.9409890000000023">
        <ele>439.429</ele>
        <time>2022-08-25T12:10:55Z</time>
      </trkpt>
      <trkpt lat="42.67638400000004" lon="-1.9410010000000022">
        <ele>439.685</ele>
        <time>2022-08-25T12:10:56Z</time>
      </trkpt>
      <trkpt lat="42.67637100000004" lon="-1.9410120000000022">
        <ele>439.637</ele>
        <time>2022-08-25T12:10:57Z</time>
      </trkpt>
      <trkpt lat="42.67635700000004" lon="-1.9410260000000021">
        <ele>439.884</ele>
        <time>2022-08-25T12:10:58Z</time>
      </trkpt>
      <trkpt lat="42.67630800000004" lon="-1.9410800000000021">
        <ele>440.077</ele>
        <time>2022-08-25T12:11:02Z</time>
      </trkpt>
      <trkpt lat="42.67628200000004" lon="-1.941105000000002">
        <ele>440.273</ele>
        <time>2022-08-25T12:11:04Z</time>
      </trkpt>
      <trkpt lat="42.676259000000044" lon="-1.941132000000002">
        <ele>440.454</ele>
        <time>2022-08-25T12:11:06Z</time>
      </trkpt>
      <trkpt lat="42.676247000000046" lon="-1.941146000000002">
        <ele>440.491</ele>
        <time>2022-08-25T12:11:07Z</time>
      </trkpt>
      <trkpt lat="42.676233000000046" lon="-1.941160000000002">
        <ele>440.481</ele>
        <time>2022-08-25T12:11:08Z</time>
      </trkpt>
      <trkpt lat="42.676169000000044" lon="-1.941234000000002">
        <ele>440.819</ele>
        <time>2022-08-25T12:11:12Z</time>
      </trkpt>
      <trkpt lat="42.67614400000004" lon="-1.941276000000002">
        <ele>441.009</ele>
        <time>2022-08-25T12:11:14Z</time>
      </trkpt>
      <trkpt lat="42.67613400000004" lon="-1.941294000000002">
        <ele>441.020</ele>
        <time>2022-08-25T12:11:15Z</time>
      </trkpt>
      <trkpt lat="42.67612200000004" lon="-1.941308000000002">
        <ele>441.220</ele>
        <time>2022-08-25T12:11:16Z</time>
      </trkpt>
      <trkpt lat="42.676110000000044" lon="-1.9413230000000021">
        <ele>441.480</ele>
        <time>2022-08-25T12:11:17Z</time>
      </trkpt>
      <trkpt lat="42.676101000000045" lon="-1.941340000000002">
        <ele>441.476</ele>
        <time>2022-08-25T12:11:18Z</time>
      </trkpt>
      <trkpt lat="42.67609100000004" lon="-1.941356000000002">
        <ele>441.468</ele>
        <time>2022-08-25T12:11:19Z</time>
      </trkpt>
      <trkpt lat="42.67608300000004" lon="-1.9413690000000021">
        <ele>441.895</ele>
        <time>2022-08-25T12:11:20Z</time>
      </trkpt>
      <trkpt lat="42.67607300000004" lon="-1.9413850000000021">
        <ele>442.088</ele>
        <time>2022-08-25T12:11:21Z</time>
      </trkpt>
      <trkpt lat="42.67606500000004" lon="-1.941397000000002">
        <ele>442.074</ele>
        <time>2022-08-25T12:11:22Z</time>
      </trkpt>
      <trkpt lat="42.676055000000034" lon="-1.941409000000002">
        <ele>442.265</ele>
        <time>2022-08-25T12:11:23Z</time>
      </trkpt>
      <trkpt lat="42.67604500000003" lon="-1.941422000000002">
        <ele>442.256</ele>
        <time>2022-08-25T12:11:24Z</time>
      </trkpt>
      <trkpt lat="42.67603400000003" lon="-1.941436000000002">
        <ele>442.259</ele>
        <time>2022-08-25T12:11:25Z</time>
      </trkpt>
      <trkpt lat="42.67602300000003" lon="-1.941451000000002">
        <ele>442.414</ele>
        <time>2022-08-25T12:11:26Z</time>
      </trkpt>
      <trkpt lat="42.676013000000026" lon="-1.9414660000000021">
        <ele>442.609</ele>
        <time>2022-08-25T12:11:27Z</time>
      </trkpt>
      <trkpt lat="42.67600300000002" lon="-1.9414810000000022">
        <ele>442.826</ele>
        <time>2022-08-25T12:11:28Z</time>
      </trkpt>
      <trkpt lat="42.675994000000024" lon="-1.9414970000000022">
        <ele>442.856</ele>
        <time>2022-08-25T12:11:29Z</time>
      </trkpt>
      <trkpt lat="42.67598600000002" lon="-1.9415110000000022">
        <ele>442.876</ele>
        <time>2022-08-25T12:11:30Z</time>
      </trkpt>
      <trkpt lat="42.675977000000024" lon="-1.9415250000000022">
        <ele>443.032</ele>
        <time>2022-08-25T12:11:31Z</time>
      </trkpt>
      <trkpt lat="42.675966000000024" lon="-1.9415410000000022">
        <ele>443.064</ele>
        <time>2022-08-25T12:11:32Z</time>
      </trkpt>
      <trkpt lat="42.67595600000002" lon="-1.9415580000000021">
        <ele>443.051</ele>
        <time>2022-08-25T12:11:33Z</time>
      </trkpt>
      <trkpt lat="42.67594500000002" lon="-1.9415730000000022">
        <ele>443.284</ele>
        <time>2022-08-25T12:11:34Z</time>
      </trkpt>
      <trkpt lat="42.67593500000002" lon="-1.9415880000000023">
        <ele>443.250</ele>
        <time>2022-08-25T12:11:35Z</time>
      </trkpt>
      <trkpt lat="42.675927000000016" lon="-1.9416020000000023">
        <ele>443.481</ele>
        <time>2022-08-25T12:11:36Z</time>
      </trkpt>
      <trkpt lat="42.67591700000001" lon="-1.9416150000000023">
        <ele>443.622</ele>
        <time>2022-08-25T12:11:37Z</time>
      </trkpt>
      <trkpt lat="42.67590900000001" lon="-1.9416280000000024">
        <ele>443.862</ele>
        <time>2022-08-25T12:11:38Z</time>
      </trkpt>
      <trkpt lat="42.67590100000001" lon="-1.9416420000000023">
        <ele>443.808</ele>
        <time>2022-08-25T12:11:39Z</time>
      </trkpt>
      <trkpt lat="42.67589200000001" lon="-1.9416570000000024">
        <ele>443.809</ele>
        <time>2022-08-25T12:11:40Z</time>
      </trkpt>
      <trkpt lat="42.67588200000001" lon="-1.9416700000000024">
        <ele>444.073</ele>
        <time>2022-08-25T12:11:41Z</time>
      </trkpt>
      <trkpt lat="42.675872000000005" lon="-1.9416850000000025">
        <ele>444.053</ele>
        <time>2022-08-25T12:11:42Z</time>
      </trkpt>
      <trkpt lat="42.675861000000005" lon="-1.9416980000000026">
        <ele>444.223</ele>
        <time>2022-08-25T12:11:43Z</time>
      </trkpt>
      <trkpt lat="42.675850000000004" lon="-1.9417140000000026">
        <ele>444.289</ele>
        <time>2022-08-25T12:11:44Z</time>
      </trkpt>
      <trkpt lat="42.675842" lon="-1.9417310000000025">
        <ele>444.271</ele>
        <time>2022-08-25T12:11:45Z</time>
      </trkpt>
      <trkpt lat="42.675832" lon="-1.9417450000000025">
        <ele>444.478</ele>
        <time>2022-08-25T12:11:46Z</time>
      </trkpt>
      <trkpt lat="42.675821" lon="-1.9417610000000025">
        <ele>444.421</ele>
        <time>2022-08-25T12:11:47Z</time>
      </trkpt>
      <trkpt lat="42.675810999999996" lon="-1.9417790000000026">
        <ele>444.677</ele>
        <time>2022-08-25T12:11:48Z</time>
      </trkpt>
      <trkpt lat="42.675799" lon="-1.9417980000000026">
        <ele>444.688</ele>
        <time>2022-08-25T12:11:49Z</time>
      </trkpt>
      <trkpt lat="42.675788" lon="-1.9418170000000026">
        <ele>444.835</ele>
        <time>2022-08-25T12:11:50Z</time>
      </trkpt>
      <trkpt lat="42.675776" lon="-1.9418340000000025">
        <ele>444.886</ele>
        <time>2022-08-25T12:11:51Z</time>
      </trkpt>
      <trkpt lat="42.675765999999996" lon="-1.9418540000000024">
        <ele>444.814</ele>
        <time>2022-08-25T12:11:52Z</time>
      </trkpt>
      <trkpt lat="42.675754999999995" lon="-1.9418740000000023">
        <ele>445.009</ele>
        <time>2022-08-25T12:11:53Z</time>
      </trkpt>
      <trkpt lat="42.675695" lon="-1.9419770000000023">
        <ele>445.664</ele>
        <time>2022-08-25T12:11:58Z</time>
      </trkpt>
      <trkpt lat="42.675684" lon="-1.9419980000000023">
        <ele>445.844</ele>
        <time>2022-08-25T12:11:59Z</time>
      </trkpt>
      <trkpt lat="42.675673999999994" lon="-1.9420190000000024">
        <ele>445.864</ele>
        <time>2022-08-25T12:12:00Z</time>
      </trkpt>
      <trkpt lat="42.675664999999995" lon="-1.9420400000000024">
        <ele>446.050</ele>
        <time>2022-08-25T12:12:01Z</time>
      </trkpt>
      <trkpt lat="42.675653" lon="-1.9420620000000024">
        <ele>446.222</ele>
        <time>2022-08-25T12:12:02Z</time>
      </trkpt>
      <trkpt lat="42.675641999999996" lon="-1.9420830000000024">
        <ele>446.259</ele>
        <time>2022-08-25T12:12:03Z</time>
      </trkpt>
      <trkpt lat="42.67563199999999" lon="-1.9421040000000025">
        <ele>446.432</ele>
        <time>2022-08-25T12:12:04Z</time>
      </trkpt>
      <trkpt lat="42.67562199999999" lon="-1.9421260000000025">
        <ele>446.638</ele>
        <time>2022-08-25T12:12:05Z</time>
      </trkpt>
      <trkpt lat="42.67561399999999" lon="-1.9421480000000024">
        <ele>446.659</ele>
        <time>2022-08-25T12:12:06Z</time>
      </trkpt>
      <trkpt lat="42.67560499999999" lon="-1.9421690000000025">
        <ele>446.633</ele>
        <time>2022-08-25T12:12:07Z</time>
      </trkpt>
      <trkpt lat="42.67559699999999" lon="-1.9421890000000024">
        <ele>446.823</ele>
        <time>2022-08-25T12:12:08Z</time>
      </trkpt>
      <trkpt lat="42.675586999999986" lon="-1.9422100000000024">
        <ele>446.815</ele>
        <time>2022-08-25T12:12:09Z</time>
      </trkpt>
      <trkpt lat="42.67557699999998" lon="-1.9422290000000024">
        <ele>447.209</ele>
        <time>2022-08-25T12:12:10Z</time>
      </trkpt>
      <trkpt lat="42.67556899999998" lon="-1.9422490000000023">
        <ele>447.264</ele>
        <time>2022-08-25T12:12:11Z</time>
      </trkpt>
      <trkpt lat="42.67556099999998" lon="-1.9422670000000024">
        <ele>447.484</ele>
        <time>2022-08-25T12:12:12Z</time>
      </trkpt>
      <trkpt lat="42.67555299999998" lon="-1.9422860000000024">
        <ele>447.464</ele>
        <time>2022-08-25T12:12:13Z</time>
      </trkpt>
      <trkpt lat="42.67554499999998" lon="-1.9423050000000024">
        <ele>447.460</ele>
        <time>2022-08-25T12:12:14Z</time>
      </trkpt>
      <trkpt lat="42.67553799999998" lon="-1.9423260000000024">
        <ele>447.622</ele>
        <time>2022-08-25T12:12:15Z</time>
      </trkpt>
      <trkpt lat="42.67553199999998" lon="-1.9423490000000025">
        <ele>447.639</ele>
        <time>2022-08-25T12:12:16Z</time>
      </trkpt>
      <trkpt lat="42.675525999999984" lon="-1.9423730000000026">
        <ele>447.642</ele>
        <time>2022-08-25T12:12:17Z</time>
      </trkpt>
      <trkpt lat="42.67551799999998" lon="-1.9423960000000027">
        <ele>447.858</ele>
        <time>2022-08-25T12:12:18Z</time>
      </trkpt>
      <trkpt lat="42.67550799999998" lon="-1.9424190000000028">
        <ele>447.849</ele>
        <time>2022-08-25T12:12:19Z</time>
      </trkpt>
      <trkpt lat="42.675497999999976" lon="-1.9424410000000027">
        <ele>447.832</ele>
        <time>2022-08-25T12:12:20Z</time>
      </trkpt>
      <trkpt lat="42.67549099999998" lon="-1.9424610000000027">
        <ele>448.092</ele>
        <time>2022-08-25T12:12:21Z</time>
      </trkpt>
      <trkpt lat="42.67548499999998" lon="-1.9424830000000026">
        <ele>448.011</ele>
        <time>2022-08-25T12:12:22Z</time>
      </trkpt>
      <trkpt lat="42.67547999999998" lon="-1.9425050000000026">
        <ele>448.009</ele>
        <time>2022-08-25T12:12:23Z</time>
      </trkpt>
      <trkpt lat="42.67547599999998" lon="-1.9425270000000026">
        <ele>448.224</ele>
        <time>2022-08-25T12:12:24Z</time>
      </trkpt>
      <trkpt lat="42.67544599999998" lon="-1.9426380000000025">
        <ele>448.214</ele>
        <time>2022-08-25T12:12:29Z</time>
      </trkpt>
      <trkpt lat="42.67544099999998" lon="-1.9426600000000025">
        <ele>448.294</ele>
        <time>2022-08-25T12:12:30Z</time>
      </trkpt>
      <trkpt lat="42.675438999999976" lon="-1.9426810000000025">
        <ele>448.460</ele>
        <time>2022-08-25T12:12:31Z</time>
      </trkpt>
      <trkpt lat="42.675433999999974" lon="-1.9427000000000025">
        <ele>448.412</ele>
        <time>2022-08-25T12:12:32Z</time>
      </trkpt>
      <trkpt lat="42.67542699999998" lon="-1.9427190000000025">
        <ele>448.489</ele>
        <time>2022-08-25T12:12:33Z</time>
      </trkpt>
      <trkpt lat="42.67542299999998" lon="-1.9427360000000025">
        <ele>448.442</ele>
        <time>2022-08-25T12:12:34Z</time>
      </trkpt>
      <trkpt lat="42.67542099999998" lon="-1.9427530000000024">
        <ele>448.488</ele>
        <time>2022-08-25T12:12:35Z</time>
      </trkpt>
      <trkpt lat="42.67541999999998" lon="-1.9427690000000024">
        <ele>448.489</ele>
        <time>2022-08-25T12:12:36Z</time>
      </trkpt>
      <trkpt lat="42.67542099999998" lon="-1.9427870000000025">
        <ele>448.493</ele>
        <time>2022-08-25T12:12:37Z</time>
      </trkpt>
      <trkpt lat="42.67541999999998" lon="-1.9428050000000026">
        <ele>448.665</ele>
        <time>2022-08-25T12:12:38Z</time>
      </trkpt>
      <trkpt lat="42.675418999999984" lon="-1.9428210000000026">
        <ele>448.821</ele>
        <time>2022-08-25T12:12:39Z</time>
      </trkpt>
      <trkpt lat="42.67541699999998" lon="-1.9428420000000026">
        <ele>449.009</ele>
        <time>2022-08-25T12:12:42Z</time>
      </trkpt>
      <trkpt lat="42.675409999999985" lon="-1.9429120000000026">
        <ele>449.240</ele>
        <time>2022-08-25T12:13:03Z</time>
      </trkpt>
      <trkpt lat="42.67540899999999" lon="-1.9429440000000027">
        <ele>449.270</ele>
        <time>2022-08-25T12:13:04Z</time>
      </trkpt>
      <trkpt lat="42.675375999999986" lon="-1.9431830000000028">
        <ele>449.470</ele>
        <time>2022-08-25T12:13:10Z</time>
      </trkpt>
      <trkpt lat="42.67528999999998" lon="-1.9435230000000028">
        <ele>450.296</ele>
        <time>2022-08-25T12:13:18Z</time>
      </trkpt>
      <trkpt lat="42.67528499999998" lon="-1.9435670000000027">
        <ele>450.468</ele>
        <time>2022-08-25T12:13:19Z</time>
      </trkpt>
      <trkpt lat="42.67527999999998" lon="-1.9436090000000028">
        <ele>450.455</ele>
        <time>2022-08-25T12:13:20Z</time>
      </trkpt>
      <trkpt lat="42.67527299999998" lon="-1.9436530000000027">
        <ele>450.628</ele>
        <time>2022-08-25T12:13:21Z</time>
      </trkpt>
      <trkpt lat="42.67526299999998" lon="-1.9436960000000028">
        <ele>450.674</ele>
        <time>2022-08-25T12:13:22Z</time>
      </trkpt>
      <trkpt lat="42.67525399999998" lon="-1.9437370000000027">
        <ele>450.665</ele>
        <time>2022-08-25T12:13:23Z</time>
      </trkpt>
      <trkpt lat="42.675246999999985" lon="-1.9437780000000027">
        <ele>450.817</ele>
        <time>2022-08-25T12:13:24Z</time>
      </trkpt>
      <trkpt lat="42.675240999999986" lon="-1.9438170000000026">
        <ele>451.087</ele>
        <time>2022-08-25T12:13:25Z</time>
      </trkpt>
      <trkpt lat="42.67523399999999" lon="-1.9438550000000026">
        <ele>451.215</ele>
        <time>2022-08-25T12:13:26Z</time>
      </trkpt>
      <trkpt lat="42.67522799999999" lon="-1.9438900000000026">
        <ele>451.209</ele>
        <time>2022-08-25T12:13:27Z</time>
      </trkpt>
      <trkpt lat="42.67521999999999" lon="-1.9439220000000026">
        <ele>451.642</ele>
        <time>2022-08-25T12:13:28Z</time>
      </trkpt>
      <trkpt lat="42.67520899999999" lon="-1.9439540000000026">
        <ele>452.072</ele>
        <time>2022-08-25T12:13:29Z</time>
      </trkpt>
      <trkpt lat="42.67519699999999" lon="-1.9439870000000026">
        <ele>452.052</ele>
        <time>2022-08-25T12:13:30Z</time>
      </trkpt>
      <trkpt lat="42.67516299999999" lon="-1.9440930000000025">
        <ele>452.248</ele>
        <time>2022-08-25T12:13:33Z</time>
      </trkpt>
      <trkpt lat="42.67515199999999" lon="-1.9441290000000024">
        <ele>452.470</ele>
        <time>2022-08-25T12:13:34Z</time>
      </trkpt>
      <trkpt lat="42.67514099999999" lon="-1.9441640000000024">
        <ele>452.477</ele>
        <time>2022-08-25T12:13:35Z</time>
      </trkpt>
      <trkpt lat="42.67512799999999" lon="-1.9442000000000024">
        <ele>452.670</ele>
        <time>2022-08-25T12:13:36Z</time>
      </trkpt>
      <trkpt lat="42.675116999999986" lon="-1.9442370000000024">
        <ele>452.666</ele>
        <time>2022-08-25T12:13:37Z</time>
      </trkpt>
      <trkpt lat="42.675105999999985" lon="-1.9442740000000025">
        <ele>452.857</ele>
        <time>2022-08-25T12:13:38Z</time>
      </trkpt>
      <trkpt lat="42.67509599999998" lon="-1.9443110000000026">
        <ele>452.862</ele>
        <time>2022-08-25T12:13:39Z</time>
      </trkpt>
      <trkpt lat="42.67508299999998" lon="-1.9443470000000025">
        <ele>452.883</ele>
        <time>2022-08-25T12:13:40Z</time>
      </trkpt>
      <trkpt lat="42.67506999999998" lon="-1.9443810000000026">
        <ele>452.811</ele>
        <time>2022-08-25T12:13:41Z</time>
      </trkpt>
      <trkpt lat="42.675059999999974" lon="-1.9444160000000026">
        <ele>452.809</ele>
        <time>2022-08-25T12:13:42Z</time>
      </trkpt>
      <trkpt lat="42.67505199999997" lon="-1.9444490000000025">
        <ele>452.897</ele>
        <time>2022-08-25T12:13:43Z</time>
      </trkpt>
      <trkpt lat="42.67504399999997" lon="-1.9444810000000026">
        <ele>452.877</ele>
        <time>2022-08-25T12:13:44Z</time>
      </trkpt>
      <trkpt lat="42.67503499999997" lon="-1.9445090000000025">
        <ele>452.897</ele>
        <time>2022-08-25T12:13:45Z</time>
      </trkpt>
      <trkpt lat="42.675027999999976" lon="-1.9445350000000026">
        <ele>452.883</ele>
        <time>2022-08-25T12:13:46Z</time>
      </trkpt>
      <trkpt lat="42.67502199999998" lon="-1.9445600000000025">
        <ele>452.855</ele>
        <time>2022-08-25T12:13:47Z</time>
      </trkpt>
      <trkpt lat="42.67501499999998" lon="-1.9445830000000026">
        <ele>452.892</ele>
        <time>2022-08-25T12:13:48Z</time>
      </trkpt>
      <trkpt lat="42.67500999999998" lon="-1.9446030000000025">
        <ele>452.855</ele>
        <time>2022-08-25T12:13:49Z</time>
      </trkpt>
      <trkpt lat="42.67500499999998" lon="-1.9446120000000024">
        <ele>452.841</ele>
        <time>2022-08-25T12:13:50Z</time>
      </trkpt>
      <trkpt lat="42.675002999999975" lon="-1.9446170000000025">
        <ele>452.872</ele>
        <time>2022-08-25T12:13:51Z</time>
      </trkpt>
      <trkpt lat="42.675002999999975" lon="-1.9446170000000025">
        <ele>452.837</ele>
        <time>2022-08-25T12:13:52Z</time>
      </trkpt>
      <trkpt lat="42.674991999999975" lon="-1.9446350000000026">
        <ele>451.649</ele>
        <time>2022-08-25T12:14:36Z</time>
      </trkpt>
      <trkpt lat="42.674977999999975" lon="-1.9446580000000027">
        <ele>451.613</ele>
        <time>2022-08-25T12:14:37Z</time>
      </trkpt>
      <trkpt lat="42.67494599999998" lon="-1.9447220000000027">
        <ele>451.609</ele>
        <time>2022-08-25T12:14:40Z</time>
      </trkpt>
      <trkpt lat="42.674937999999976" lon="-1.9447400000000028">
        <ele>451.464</ele>
        <time>2022-08-25T12:14:41Z</time>
      </trkpt>
      <trkpt lat="42.67493099999998" lon="-1.9447560000000028">
        <ele>451.494</ele>
        <time>2022-08-25T12:14:42Z</time>
      </trkpt>
      <trkpt lat="42.67492199999998" lon="-1.9447690000000029">
        <ele>451.614</ele>
        <time>2022-08-25T12:14:43Z</time>
      </trkpt>
      <trkpt lat="42.67491699999998" lon="-1.944776000000003">
        <ele>451.640</ele>
        <time>2022-08-25T12:14:44Z</time>
      </trkpt>
      <trkpt lat="42.67491499999998" lon="-1.944776000000003">
        <ele>451.492</ele>
        <time>2022-08-25T12:16:00Z</time>
      </trkpt>
      <trkpt lat="42.674895999999976" lon="-1.944781000000003">
        <ele>451.439</ele>
        <time>2022-08-25T12:16:01Z</time>
      </trkpt>
      <trkpt lat="42.67480399999997" lon="-1.944870000000003">
        <ele>451.442</ele>
        <time>2022-08-25T12:16:05Z</time>
      </trkpt>
      <trkpt lat="42.67477099999997" lon="-1.944897000000003">
        <ele>451.448</ele>
        <time>2022-08-25T12:16:06Z</time>
      </trkpt>
      <trkpt lat="42.67471699999997" lon="-1.944931000000003">
        <ele>451.419</ele>
        <time>2022-08-25T12:16:08Z</time>
      </trkpt>
      <trkpt lat="42.67469699999997" lon="-1.944943000000003">
        <ele>451.234</ele>
        <time>2022-08-25T12:16:09Z</time>
      </trkpt>
      <trkpt lat="42.67467199999997" lon="-1.944956000000003">
        <ele>451.255</ele>
        <time>2022-08-25T12:16:10Z</time>
      </trkpt>
      <trkpt lat="42.674645999999974" lon="-1.944967000000003">
        <ele>451.210</ele>
        <time>2022-08-25T12:16:11Z</time>
      </trkpt>
      <trkpt lat="42.674591999999976" lon="-1.944990000000003">
        <ele>451.209</ele>
        <time>2022-08-25T12:16:13Z</time>
      </trkpt>
      <trkpt lat="42.67430699999998" lon="-1.945133000000003">
        <ele>451.224</ele>
        <time>2022-08-25T12:16:23Z</time>
      </trkpt>
      <trkpt lat="42.674054999999974" lon="-1.9452640000000032">
        <ele>451.064</ele>
        <time>2022-08-25T12:16:30Z</time>
      </trkpt>
      <trkpt lat="42.67399099999997" lon="-1.9452940000000032">
        <ele>451.084</ele>
        <time>2022-08-25T12:16:32Z</time>
      </trkpt>
      <trkpt lat="42.67392099999997" lon="-1.945333000000003">
        <ele>451.040</ele>
        <time>2022-08-25T12:16:34Z</time>
      </trkpt>
      <trkpt lat="42.67387999999997" lon="-1.945353000000003">
        <ele>451.272</ele>
        <time>2022-08-25T12:16:35Z</time>
      </trkpt>
      <trkpt lat="42.67385199999997" lon="-1.945369000000003">
        <ele>451.259</ele>
        <time>2022-08-25T12:16:36Z</time>
      </trkpt>
      <trkpt lat="42.673818999999966" lon="-1.945388000000003">
        <ele>451.262</ele>
        <time>2022-08-25T12:16:37Z</time>
      </trkpt>
      <trkpt lat="42.67378499999997" lon="-1.945404000000003">
        <ele>451.288</ele>
        <time>2022-08-25T12:16:38Z</time>
      </trkpt>
      <trkpt lat="42.67345799999997" lon="-1.945565000000003">
        <ele>451.669</ele>
        <time>2022-08-25T12:16:47Z</time>
      </trkpt>
      <trkpt lat="42.67314299999997" lon="-1.945760000000003">
        <ele>451.638</ele>
        <time>2022-08-25T12:16:55Z</time>
      </trkpt>
      <trkpt lat="42.67304599999997" lon="-1.945851000000003">
        <ele>451.670</ele>
        <time>2022-08-25T12:16:58Z</time>
      </trkpt>
      <trkpt lat="42.67300699999997" lon="-1.9458910000000031">
        <ele>451.617</ele>
        <time>2022-08-25T12:16:59Z</time>
      </trkpt>
      <trkpt lat="42.67297699999997" lon="-1.945924000000003">
        <ele>451.609</ele>
        <time>2022-08-25T12:17:00Z</time>
      </trkpt>
      <trkpt lat="42.672952999999964" lon="-1.945954000000003">
        <ele>451.664</ele>
        <time>2022-08-25T12:17:01Z</time>
      </trkpt>
      <trkpt lat="42.672921999999964" lon="-1.945998000000003">
        <ele>451.694</ele>
        <time>2022-08-25T12:17:02Z</time>
      </trkpt>
      <trkpt lat="42.672893999999964" lon="-1.946034000000003">
        <ele>451.824</ele>
        <time>2022-08-25T12:17:03Z</time>
      </trkpt>
      <trkpt lat="42.67287299999997" lon="-1.946063000000003">
        <ele>451.870</ele>
        <time>2022-08-25T12:17:04Z</time>
      </trkpt>
      <trkpt lat="42.672845999999964" lon="-1.9461020000000029">
        <ele>451.892</ele>
        <time>2022-08-25T12:17:05Z</time>
      </trkpt>
      <trkpt lat="42.67282099999996" lon="-1.946139000000003">
        <ele>451.879</ele>
        <time>2022-08-25T12:17:06Z</time>
      </trkpt>
      <trkpt lat="42.67279599999996" lon="-1.946174000000003">
        <ele>451.862</ele>
        <time>2022-08-25T12:17:07Z</time>
      </trkpt>
      <trkpt lat="42.672766999999965" lon="-1.946217000000003">
        <ele>452.028</ele>
        <time>2022-08-25T12:17:08Z</time>
      </trkpt>
      <trkpt lat="42.672746999999966" lon="-1.946251000000003">
        <ele>452.039</ele>
        <time>2022-08-25T12:17:09Z</time>
      </trkpt>
      <trkpt lat="42.67273099999996" lon="-1.946276000000003">
        <ele>452.232</ele>
        <time>2022-08-25T12:17:10Z</time>
      </trkpt>
      <trkpt lat="42.67270699999996" lon="-1.946313000000003">
        <ele>452.292</ele>
        <time>2022-08-25T12:17:11Z</time>
      </trkpt>
      <trkpt lat="42.67268799999996" lon="-1.9463420000000031">
        <ele>452.411</ele>
        <time>2022-08-25T12:17:12Z</time>
      </trkpt>
      <trkpt lat="42.672671999999956" lon="-1.9463680000000032">
        <ele>452.609</ele>
        <time>2022-08-25T12:17:13Z</time>
      </trkpt>
      <trkpt lat="42.672649999999955" lon="-1.9464010000000032">
        <ele>452.844</ele>
        <time>2022-08-25T12:17:14Z</time>
      </trkpt>
      <trkpt lat="42.67263099999995" lon="-1.9464310000000031">
        <ele>452.854</ele>
        <time>2022-08-25T12:17:15Z</time>
      </trkpt>
      <trkpt lat="42.67261199999995" lon="-1.9464600000000032">
        <ele>452.864</ele>
        <time>2022-08-25T12:17:16Z</time>
      </trkpt>
      <trkpt lat="42.67256999999995" lon="-1.9465250000000032">
        <ele>453.070</ele>
        <time>2022-08-25T12:17:18Z</time>
      </trkpt>
      <trkpt lat="42.67245699999995" lon="-1.9467000000000032">
        <ele>453.872</ele>
        <time>2022-08-25T12:17:24Z</time>
      </trkpt>
      <trkpt lat="42.67240999999995" lon="-1.9467690000000033">
        <ele>454.079</ele>
        <time>2022-08-25T12:17:26Z</time>
      </trkpt>
      <trkpt lat="42.67233199999995" lon="-1.9468900000000033">
        <ele>454.252</ele>
        <time>2022-08-25T12:17:30Z</time>
      </trkpt>
      <trkpt lat="42.67227199999995" lon="-1.9469740000000033">
        <ele>454.498</ele>
        <time>2022-08-25T12:17:33Z</time>
      </trkpt>
      <trkpt lat="42.67203999999995" lon="-1.9472550000000033">
        <ele>454.429</ele>
        <time>2022-08-25T12:17:41Z</time>
      </trkpt>
      <trkpt lat="42.671895999999954" lon="-1.9474350000000034">
        <ele>454.413</ele>
        <time>2022-08-25T12:17:46Z</time>
      </trkpt>
      <trkpt lat="42.671864999999954" lon="-1.9474700000000034">
        <ele>454.443</ele>
        <time>2022-08-25T12:17:47Z</time>
      </trkpt>
      <trkpt lat="42.671833999999954" lon="-1.9475040000000035">
        <ele>454.407</ele>
        <time>2022-08-25T12:17:48Z</time>
      </trkpt>
      <trkpt lat="42.67179899999996" lon="-1.9475460000000036">
        <ele>454.409</ele>
        <time>2022-08-25T12:17:49Z</time>
      </trkpt>
      <trkpt lat="42.67176999999996" lon="-1.9475790000000035">
        <ele>454.422</ele>
        <time>2022-08-25T12:17:50Z</time>
      </trkpt>
      <trkpt lat="42.67174699999996" lon="-1.9476040000000034">
        <ele>454.432</ele>
        <time>2022-08-25T12:17:51Z</time>
      </trkpt>
      <trkpt lat="42.67171799999996" lon="-1.9476370000000034">
        <ele>454.452</ele>
        <time>2022-08-25T12:17:52Z</time>
      </trkpt>
      <trkpt lat="42.67168699999996" lon="-1.9476780000000034">
        <ele>454.458</ele>
        <time>2022-08-25T12:17:53Z</time>
      </trkpt>
      <trkpt lat="42.671660999999965" lon="-1.9477110000000033">
        <ele>454.620</ele>
        <time>2022-08-25T12:17:54Z</time>
      </trkpt>
      <trkpt lat="42.67163999999997" lon="-1.9477340000000034">
        <ele>454.667</ele>
        <time>2022-08-25T12:17:55Z</time>
      </trkpt>
      <trkpt lat="42.67161699999997" lon="-1.9477630000000035">
        <ele>454.640</ele>
        <time>2022-08-25T12:17:56Z</time>
      </trkpt>
      <trkpt lat="42.67159399999997" lon="-1.9477870000000035">
        <ele>454.826</ele>
        <time>2022-08-25T12:17:57Z</time>
      </trkpt>
      <trkpt lat="42.671572999999974" lon="-1.9478100000000036">
        <ele>454.887</ele>
        <time>2022-08-25T12:17:58Z</time>
      </trkpt>
      <trkpt lat="42.67154899999997" lon="-1.9478390000000037">
        <ele>455.067</ele>
        <time>2022-08-25T12:17:59Z</time>
      </trkpt>
      <trkpt lat="42.67153499999997" lon="-1.9478590000000036">
        <ele>455.081</ele>
        <time>2022-08-25T12:18:00Z</time>
      </trkpt>
      <trkpt lat="42.67151699999997" lon="-1.9478810000000035">
        <ele>455.219</ele>
        <time>2022-08-25T12:18:01Z</time>
      </trkpt>
      <trkpt lat="42.67150299999997" lon="-1.9479010000000034">
        <ele>455.409</ele>
        <time>2022-08-25T12:18:02Z</time>
      </trkpt>
      <trkpt lat="42.67148599999997" lon="-1.9479220000000035">
        <ele>455.497</ele>
        <time>2022-08-25T12:18:03Z</time>
      </trkpt>
      <trkpt lat="42.67147499999997" lon="-1.9479370000000036">
        <ele>455.427</ele>
        <time>2022-08-25T12:18:04Z</time>
      </trkpt>
      <trkpt lat="42.67146099999997" lon="-1.9479580000000036">
        <ele>455.427</ele>
        <time>2022-08-25T12:18:05Z</time>
      </trkpt>
      <trkpt lat="42.671442999999975" lon="-1.9479820000000037">
        <ele>455.673</ele>
        <time>2022-08-25T12:18:06Z</time>
      </trkpt>
      <trkpt lat="42.67139699999998" lon="-1.9480380000000037">
        <ele>456.025</ele>
        <time>2022-08-25T12:18:09Z</time>
      </trkpt>
      <trkpt lat="42.67138199999998" lon="-1.9480550000000036">
        <ele>456.062</ele>
        <time>2022-08-25T12:18:10Z</time>
      </trkpt>
      <trkpt lat="42.67136299999998" lon="-1.9480750000000036">
        <ele>456.245</ele>
        <time>2022-08-25T12:18:11Z</time>
      </trkpt>
      <trkpt lat="42.671346999999976" lon="-1.9480920000000035">
        <ele>456.261</ele>
        <time>2022-08-25T12:18:12Z</time>
      </trkpt>
      <trkpt lat="42.671332999999976" lon="-1.9481060000000034">
        <ele>456.452</ele>
        <time>2022-08-25T12:18:13Z</time>
      </trkpt>
      <trkpt lat="42.671318999999976" lon="-1.9481220000000035">
        <ele>456.444</ele>
        <time>2022-08-25T12:18:14Z</time>
      </trkpt>
      <trkpt lat="42.67124499999998" lon="-1.9482160000000035">
        <ele>457.005</ele>
        <time>2022-08-25T12:18:19Z</time>
      </trkpt>
      <trkpt lat="42.67123099999998" lon="-1.9482330000000034">
        <ele>457.015</ele>
        <time>2022-08-25T12:18:20Z</time>
      </trkpt>
      <trkpt lat="42.67121899999998" lon="-1.9482510000000035">
        <ele>457.209</ele>
        <time>2022-08-25T12:18:21Z</time>
      </trkpt>
      <trkpt lat="42.67120599999998" lon="-1.9482690000000036">
        <ele>457.215</ele>
        <time>2022-08-25T12:18:22Z</time>
      </trkpt>
      <trkpt lat="42.671192999999974" lon="-1.9482870000000037">
        <ele>457.265</ele>
        <time>2022-08-25T12:18:23Z</time>
      </trkpt>
      <trkpt lat="42.67117999999997" lon="-1.9483040000000036">
        <ele>457.625</ele>
        <time>2022-08-25T12:18:24Z</time>
      </trkpt>
      <trkpt lat="42.67116299999997" lon="-1.9483210000000035">
        <ele>457.621</ele>
        <time>2022-08-25T12:18:25Z</time>
      </trkpt>
      <trkpt lat="42.67114999999997" lon="-1.9483330000000034">
        <ele>457.643</ele>
        <time>2022-08-25T12:18:26Z</time>
      </trkpt>
      <trkpt lat="42.671119999999966" lon="-1.9483630000000034">
        <ele>458.080</ele>
        <time>2022-08-25T12:18:28Z</time>
      </trkpt>
      <trkpt lat="42.671089999999964" lon="-1.9483990000000033">
        <ele>458.063</ele>
        <time>2022-08-25T12:18:30Z</time>
      </trkpt>
      <trkpt lat="42.671077999999966" lon="-1.9484140000000034">
        <ele>458.279</ele>
        <time>2022-08-25T12:18:31Z</time>
      </trkpt>
      <trkpt lat="42.67106899999997" lon="-1.9484260000000033">
        <ele>458.470</ele>
        <time>2022-08-25T12:18:32Z</time>
      </trkpt>
      <trkpt lat="42.67105499999997" lon="-1.9484410000000034">
        <ele>458.478</ele>
        <time>2022-08-25T12:18:33Z</time>
      </trkpt>
      <trkpt lat="42.671038999999965" lon="-1.9484580000000034">
        <ele>458.833</ele>
        <time>2022-08-25T12:18:34Z</time>
      </trkpt>
      <trkpt lat="42.671027999999964" lon="-1.9484710000000034">
        <ele>458.826</ele>
        <time>2022-08-25T12:18:35Z</time>
      </trkpt>
      <trkpt lat="42.67101299999997" lon="-1.9484880000000033">
        <ele>458.809</ele>
        <time>2022-08-25T12:18:36Z</time>
      </trkpt>
      <trkpt lat="42.671001999999966" lon="-1.9485030000000034">
        <ele>458.858</ele>
        <time>2022-08-25T12:18:37Z</time>
      </trkpt>
      <trkpt lat="42.67098999999997" lon="-1.9485220000000034">
        <ele>458.858</ele>
        <time>2022-08-25T12:18:38Z</time>
      </trkpt>
      <trkpt lat="42.67097899999997" lon="-1.9485430000000035">
        <ele>459.058</ele>
        <time>2022-08-25T12:18:39Z</time>
      </trkpt>
      <trkpt lat="42.67096799999997" lon="-1.9485650000000034">
        <ele>459.244</ele>
        <time>2022-08-25T12:18:40Z</time>
      </trkpt>
      <trkpt lat="42.670954999999964" lon="-1.9485820000000034">
        <ele>459.456</ele>
        <time>2022-08-25T12:18:41Z</time>
      </trkpt>
      <trkpt lat="42.67094199999996" lon="-1.9485970000000035">
        <ele>459.623</ele>
        <time>2022-08-25T12:18:42Z</time>
      </trkpt>
      <trkpt lat="42.67092699999996" lon="-1.9486170000000034">
        <ele>459.626</ele>
        <time>2022-08-25T12:18:43Z</time>
      </trkpt>
      <trkpt lat="42.670914999999965" lon="-1.9486340000000033">
        <ele>459.822</ele>
        <time>2022-08-25T12:18:44Z</time>
      </trkpt>
      <trkpt lat="42.67089999999997" lon="-1.9486540000000032">
        <ele>460.013</ele>
        <time>2022-08-25T12:18:45Z</time>
      </trkpt>
      <trkpt lat="42.67088899999997" lon="-1.9486670000000033">
        <ele>460.058</ele>
        <time>2022-08-25T12:18:46Z</time>
      </trkpt>
      <trkpt lat="42.670875999999964" lon="-1.9486820000000034">
        <ele>460.252</ele>
        <time>2022-08-25T12:18:47Z</time>
      </trkpt>
      <trkpt lat="42.670861999999964" lon="-1.9486960000000033">
        <ele>460.217</ele>
        <time>2022-08-25T12:18:48Z</time>
      </trkpt>
      <trkpt lat="42.670849999999966" lon="-1.9487080000000032">
        <ele>460.209</ele>
        <time>2022-08-25T12:18:49Z</time>
      </trkpt>
      <trkpt lat="42.67084299999997" lon="-1.9487190000000032">
        <ele>460.486</ele>
        <time>2022-08-25T12:18:50Z</time>
      </trkpt>
      <trkpt lat="42.67083399999997" lon="-1.9487320000000032">
        <ele>460.486</ele>
        <time>2022-08-25T12:18:51Z</time>
      </trkpt>
      <trkpt lat="42.67082499999997" lon="-1.9487460000000032">
        <ele>460.436</ele>
        <time>2022-08-25T12:18:52Z</time>
      </trkpt>
      <trkpt lat="42.670817999999976" lon="-1.948758000000003">
        <ele>460.612</ele>
        <time>2022-08-25T12:18:53Z</time>
      </trkpt>
      <trkpt lat="42.67080899999998" lon="-1.948769000000003">
        <ele>460.844</ele>
        <time>2022-08-25T12:18:54Z</time>
      </trkpt>
      <trkpt lat="42.670798999999974" lon="-1.948772000000003">
        <ele>461.041</ele>
        <time>2022-08-25T12:18:55Z</time>
      </trkpt>
      <trkpt lat="42.670786999999976" lon="-1.948778000000003">
        <ele>461.054</ele>
        <time>2022-08-25T12:18:56Z</time>
      </trkpt>
      <trkpt lat="42.670769999999976" lon="-1.948794000000003">
        <ele>461.270</ele>
        <time>2022-08-25T12:18:57Z</time>
      </trkpt>
      <trkpt lat="42.670758999999975" lon="-1.948808000000003">
        <ele>461.271</ele>
        <time>2022-08-25T12:18:58Z</time>
      </trkpt>
      <trkpt lat="42.67074899999997" lon="-1.948822000000003">
        <ele>461.466</ele>
        <time>2022-08-25T12:18:59Z</time>
      </trkpt>
      <trkpt lat="42.67073899999997" lon="-1.9488390000000029">
        <ele>461.429</ele>
        <time>2022-08-25T12:19:00Z</time>
      </trkpt>
      <trkpt lat="42.67072999999997" lon="-1.9488590000000028">
        <ele>461.621</ele>
        <time>2022-08-25T12:19:01Z</time>
      </trkpt>
      <trkpt lat="42.67071599999997" lon="-1.9488810000000028">
        <ele>461.809</ele>
        <time>2022-08-25T12:19:02Z</time>
      </trkpt>
      <trkpt lat="42.67070499999997" lon="-1.9489020000000028">
        <ele>461.857</ele>
        <time>2022-08-25T12:19:03Z</time>
      </trkpt>
      <trkpt lat="42.67069499999997" lon="-1.9489160000000028">
        <ele>461.847</ele>
        <time>2022-08-25T12:19:04Z</time>
      </trkpt>
      <trkpt lat="42.67068299999997" lon="-1.9489330000000027">
        <ele>461.887</ele>
        <time>2022-08-25T12:19:05Z</time>
      </trkpt>
      <trkpt lat="42.67067099999997" lon="-1.9489490000000027">
        <ele>462.043</ele>
        <time>2022-08-25T12:19:06Z</time>
      </trkpt>
      <trkpt lat="42.67065999999997" lon="-1.9489660000000026">
        <ele>462.055</ele>
        <time>2022-08-25T12:19:07Z</time>
      </trkpt>
      <trkpt lat="42.67064899999997" lon="-1.9489840000000027">
        <ele>462.272</ele>
        <time>2022-08-25T12:19:08Z</time>
      </trkpt>
      <trkpt lat="42.670635999999966" lon="-1.9490050000000028">
        <ele>462.435</ele>
        <time>2022-08-25T12:19:09Z</time>
      </trkpt>
      <trkpt lat="42.67062699999997" lon="-1.9490180000000028">
        <ele>462.471</ele>
        <time>2022-08-25T12:19:10Z</time>
      </trkpt>
      <trkpt lat="42.67061599999997" lon="-1.949033000000003">
        <ele>462.442</ele>
        <time>2022-08-25T12:19:11Z</time>
      </trkpt>
      <trkpt lat="42.67060199999997" lon="-1.9490500000000028">
        <ele>462.663</ele>
        <time>2022-08-25T12:19:12Z</time>
      </trkpt>
      <trkpt lat="42.670591999999964" lon="-1.949065000000003">
        <ele>462.644</ele>
        <time>2022-08-25T12:19:13Z</time>
      </trkpt>
      <trkpt lat="42.67058399999996" lon="-1.949078000000003">
        <ele>462.618</ele>
        <time>2022-08-25T12:19:14Z</time>
      </trkpt>
      <trkpt lat="42.670574999999964" lon="-1.949092000000003">
        <ele>462.609</ele>
        <time>2022-08-25T12:19:15Z</time>
      </trkpt>
      <trkpt lat="42.67056499999996" lon="-1.9491090000000029">
        <ele>462.817</ele>
        <time>2022-08-25T12:19:16Z</time>
      </trkpt>
      <trkpt lat="42.67055699999996" lon="-1.9491200000000029">
        <ele>462.837</ele>
        <time>2022-08-25T12:19:17Z</time>
      </trkpt>
      <trkpt lat="42.67054499999996" lon="-1.949135000000003">
        <ele>463.057</ele>
        <time>2022-08-25T12:19:18Z</time>
      </trkpt>
      <trkpt lat="42.670537999999965" lon="-1.949146000000003">
        <ele>463.213</ele>
        <time>2022-08-25T12:19:19Z</time>
      </trkpt>
      <trkpt lat="42.670526999999964" lon="-1.949160000000003">
        <ele>463.235</ele>
        <time>2022-08-25T12:19:20Z</time>
      </trkpt>
      <trkpt lat="42.670492999999965" lon="-1.949216000000003">
        <ele>463.682</ele>
        <time>2022-08-25T12:19:23Z</time>
      </trkpt>
      <trkpt lat="42.670483999999966" lon="-1.949229000000003">
        <ele>463.685</ele>
        <time>2022-08-25T12:19:24Z</time>
      </trkpt>
      <trkpt lat="42.67047399999996" lon="-1.949245000000003">
        <ele>463.861</ele>
        <time>2022-08-25T12:19:25Z</time>
      </trkpt>
      <trkpt lat="42.670464999999965" lon="-1.949259000000003">
        <ele>464.052</ele>
        <time>2022-08-25T12:19:26Z</time>
      </trkpt>
      <trkpt lat="42.670416999999965" lon="-1.949318000000003">
        <ele>464.463</ele>
        <time>2022-08-25T12:19:30Z</time>
      </trkpt>
      <trkpt lat="42.67039899999997" lon="-1.949339000000003">
        <ele>464.644</ele>
        <time>2022-08-25T12:19:32Z</time>
      </trkpt>
      <trkpt lat="42.67038999999997" lon="-1.949353000000003">
        <ele>464.618</ele>
        <time>2022-08-25T12:19:33Z</time>
      </trkpt>
      <trkpt lat="42.67038099999997" lon="-1.949370000000003">
        <ele>464.609</ele>
        <time>2022-08-25T12:19:34Z</time>
      </trkpt>
      <trkpt lat="42.67037299999997" lon="-1.949381000000003">
        <ele>464.857</ele>
        <time>2022-08-25T12:19:35Z</time>
      </trkpt>
      <trkpt lat="42.670362999999966" lon="-1.949397000000003">
        <ele>464.817</ele>
        <time>2022-08-25T12:19:36Z</time>
      </trkpt>
      <trkpt lat="42.67035299999996" lon="-1.9494140000000029">
        <ele>465.057</ele>
        <time>2022-08-25T12:19:37Z</time>
      </trkpt>
      <trkpt lat="42.67034599999997" lon="-1.949429000000003">
        <ele>465.233</ele>
        <time>2022-08-25T12:19:38Z</time>
      </trkpt>
      <trkpt lat="42.67033599999996" lon="-1.9494490000000029">
        <ele>465.455</ele>
        <time>2022-08-25T12:19:39Z</time>
      </trkpt>
      <trkpt lat="42.67033099999996" lon="-1.949462000000003">
        <ele>465.672</ele>
        <time>2022-08-25T12:19:40Z</time>
      </trkpt>
      <trkpt lat="42.67032199999996" lon="-1.949478000000003">
        <ele>465.685</ele>
        <time>2022-08-25T12:19:41Z</time>
      </trkpt>
      <trkpt lat="42.670309999999965" lon="-1.949493000000003">
        <ele>465.811</ele>
        <time>2022-08-25T12:19:42Z</time>
      </trkpt>
      <trkpt lat="42.67029999999996" lon="-1.949507000000003">
        <ele>466.032</ele>
        <time>2022-08-25T12:19:43Z</time>
      </trkpt>
      <trkpt lat="42.670292999999965" lon="-1.949525000000003">
        <ele>466.225</ele>
        <time>2022-08-25T12:19:44Z</time>
      </trkpt>
      <trkpt lat="42.67028399999997" lon="-1.9495430000000031">
        <ele>466.426</ele>
        <time>2022-08-25T12:19:45Z</time>
      </trkpt>
      <trkpt lat="42.67027799999997" lon="-1.9495590000000032">
        <ele>466.408</ele>
        <time>2022-08-25T12:19:46Z</time>
      </trkpt>
      <trkpt lat="42.67027199999997" lon="-1.9495720000000032">
        <ele>466.609</ele>
        <time>2022-08-25T12:19:47Z</time>
      </trkpt>
      <trkpt lat="42.670261999999965" lon="-1.9495890000000031">
        <ele>466.633</ele>
        <time>2022-08-25T12:19:48Z</time>
      </trkpt>
      <trkpt lat="42.67025199999996" lon="-1.949609000000003">
        <ele>466.873</ele>
        <time>2022-08-25T12:19:49Z</time>
      </trkpt>
      <trkpt lat="42.67024399999996" lon="-1.949625000000003">
        <ele>467.013</ele>
        <time>2022-08-25T12:19:50Z</time>
      </trkpt>
      <trkpt lat="42.670236999999965" lon="-1.9496350000000031">
        <ele>467.289</ele>
        <time>2022-08-25T12:19:51Z</time>
      </trkpt>
      <trkpt lat="42.67022899999996" lon="-1.949649000000003">
        <ele>467.481</ele>
        <time>2022-08-25T12:19:52Z</time>
      </trkpt>
      <trkpt lat="42.670219999999965" lon="-1.949671000000003">
        <ele>467.478</ele>
        <time>2022-08-25T12:19:53Z</time>
      </trkpt>
      <trkpt lat="42.67021499999996" lon="-1.9496860000000031">
        <ele>467.481</ele>
        <time>2022-08-25T12:19:54Z</time>
      </trkpt>
      <trkpt lat="42.67020199999996" lon="-1.9497090000000032">
        <ele>467.647</ele>
        <time>2022-08-25T12:19:55Z</time>
      </trkpt>
      <trkpt lat="42.67019399999996" lon="-1.9497240000000033">
        <ele>467.618</ele>
        <time>2022-08-25T12:19:56Z</time>
      </trkpt>
      <trkpt lat="42.67018099999996" lon="-1.9497400000000034">
        <ele>467.877</ele>
        <time>2022-08-25T12:19:57Z</time>
      </trkpt>
      <trkpt lat="42.670164999999955" lon="-1.9497620000000033">
        <ele>467.861</ele>
        <time>2022-08-25T12:19:58Z</time>
      </trkpt>
      <trkpt lat="42.67015499999995" lon="-1.9497840000000033">
        <ele>468.027</ele>
        <time>2022-08-25T12:19:59Z</time>
      </trkpt>
      <trkpt lat="42.67014699999995" lon="-1.9498020000000034">
        <ele>468.009</ele>
        <time>2022-08-25T12:20:00Z</time>
      </trkpt>
      <trkpt lat="42.67013699999995" lon="-1.9498230000000034">
        <ele>468.248</ele>
        <time>2022-08-25T12:20:01Z</time>
      </trkpt>
      <trkpt lat="42.67012599999995" lon="-1.9498480000000034">
        <ele>468.438</ele>
        <time>2022-08-25T12:20:02Z</time>
      </trkpt>
      <trkpt lat="42.670117999999945" lon="-1.9498640000000034">
        <ele>468.638</ele>
        <time>2022-08-25T12:20:03Z</time>
      </trkpt>
      <trkpt lat="42.670109999999944" lon="-1.9498840000000033">
        <ele>468.834</ele>
        <time>2022-08-25T12:20:04Z</time>
      </trkpt>
      <trkpt lat="42.67009999999994" lon="-1.9499030000000033">
        <ele>468.886</ele>
        <time>2022-08-25T12:20:05Z</time>
      </trkpt>
      <trkpt lat="42.67009099999994" lon="-1.9499220000000033">
        <ele>469.023</ele>
        <time>2022-08-25T12:20:06Z</time>
      </trkpt>
      <trkpt lat="42.67008099999994" lon="-1.9499430000000033">
        <ele>469.276</ele>
        <time>2022-08-25T12:20:07Z</time>
      </trkpt>
      <trkpt lat="42.67007199999994" lon="-1.9499600000000032">
        <ele>469.482</ele>
        <time>2022-08-25T12:20:08Z</time>
      </trkpt>
      <trkpt lat="42.67006599999994" lon="-1.9499770000000032">
        <ele>469.483</ele>
        <time>2022-08-25T12:20:09Z</time>
      </trkpt>
      <trkpt lat="42.67005799999994" lon="-1.9499960000000032">
        <ele>469.626</ele>
        <time>2022-08-25T12:20:10Z</time>
      </trkpt>
      <trkpt lat="42.67004599999994" lon="-1.9500210000000031">
        <ele>469.847</ele>
        <time>2022-08-25T12:20:11Z</time>
      </trkpt>
      <trkpt lat="42.670038999999946" lon="-1.950038000000003">
        <ele>469.811</ele>
        <time>2022-08-25T12:20:12Z</time>
      </trkpt>
      <trkpt lat="42.67002699999995" lon="-1.950063000000003">
        <ele>470.209</ele>
        <time>2022-08-25T12:20:13Z</time>
      </trkpt>
      <trkpt lat="42.67001799999995" lon="-1.950077000000003">
        <ele>470.443</ele>
        <time>2022-08-25T12:20:14Z</time>
      </trkpt>
      <trkpt lat="42.67000599999995" lon="-1.9500940000000029">
        <ele>470.663</ele>
        <time>2022-08-25T12:20:15Z</time>
      </trkpt>
      <trkpt lat="42.66999399999995" lon="-1.950118000000003">
        <ele>471.023</ele>
        <time>2022-08-25T12:20:16Z</time>
      </trkpt>
      <trkpt lat="42.669984999999954" lon="-1.9501380000000028">
        <ele>471.269</ele>
        <time>2022-08-25T12:20:17Z</time>
      </trkpt>
      <trkpt lat="42.66997799999996" lon="-1.9501540000000028">
        <ele>471.481</ele>
        <time>2022-08-25T12:20:18Z</time>
      </trkpt>
      <trkpt lat="42.66996699999996" lon="-1.9501780000000029">
        <ele>471.498</ele>
        <time>2022-08-25T12:20:19Z</time>
      </trkpt>
      <trkpt lat="42.669956999999954" lon="-1.950204000000003">
        <ele>471.691</ele>
        <time>2022-08-25T12:20:20Z</time>
      </trkpt>
      <trkpt lat="42.66994699999995" lon="-1.950227000000003">
        <ele>471.657</ele>
        <time>2022-08-25T12:20:21Z</time>
      </trkpt>
      <trkpt lat="42.66993599999995" lon="-1.950258000000003">
        <ele>471.818</ele>
        <time>2022-08-25T12:20:22Z</time>
      </trkpt>
      <trkpt lat="42.66992799999995" lon="-1.950276000000003">
        <ele>471.897</ele>
        <time>2022-08-25T12:20:23Z</time>
      </trkpt>
      <trkpt lat="42.669917999999946" lon="-1.950300000000003">
        <ele>472.023</ele>
        <time>2022-08-25T12:20:24Z</time>
      </trkpt>
      <trkpt lat="42.66990599999995" lon="-1.9503230000000031">
        <ele>472.025</ele>
        <time>2022-08-25T12:20:25Z</time>
      </trkpt>
      <trkpt lat="42.66989399999995" lon="-1.950345000000003">
        <ele>472.009</ele>
        <time>2022-08-25T12:20:26Z</time>
      </trkpt>
      <trkpt lat="42.66988099999995" lon="-1.950378000000003">
        <ele>472.230</ele>
        <time>2022-08-25T12:20:27Z</time>
      </trkpt>
      <trkpt lat="42.669869999999946" lon="-1.950405000000003">
        <ele>472.230</ele>
        <time>2022-08-25T12:20:28Z</time>
      </trkpt>
      <trkpt lat="42.669855999999946" lon="-1.950437000000003">
        <ele>472.250</ele>
        <time>2022-08-25T12:20:29Z</time>
      </trkpt>
      <trkpt lat="42.669844999999945" lon="-1.950467000000003">
        <ele>472.456</ele>
        <time>2022-08-25T12:20:30Z</time>
      </trkpt>
      <trkpt lat="42.66983299999995" lon="-1.950494000000003">
        <ele>472.638</ele>
        <time>2022-08-25T12:20:31Z</time>
      </trkpt>
      <trkpt lat="42.66981899999995" lon="-1.950529000000003">
        <ele>472.885</ele>
        <time>2022-08-25T12:20:32Z</time>
      </trkpt>
      <trkpt lat="42.669808999999944" lon="-1.950553000000003">
        <ele>472.898</ele>
        <time>2022-08-25T12:20:33Z</time>
      </trkpt>
      <trkpt lat="42.66979799999994" lon="-1.950583000000003">
        <ele>473.064</ele>
        <time>2022-08-25T12:20:34Z</time>
      </trkpt>
      <trkpt lat="42.669785999999945" lon="-1.9506170000000032">
        <ele>473.025</ele>
        <time>2022-08-25T12:20:35Z</time>
      </trkpt>
      <trkpt lat="42.66977599999994" lon="-1.950648000000003">
        <ele>473.214</ele>
        <time>2022-08-25T12:20:36Z</time>
      </trkpt>
      <trkpt lat="42.669768999999945" lon="-1.9506710000000032">
        <ele>473.254</ele>
        <time>2022-08-25T12:20:37Z</time>
      </trkpt>
      <trkpt lat="42.669757999999945" lon="-1.9507010000000031">
        <ele>473.409</ele>
        <time>2022-08-25T12:20:38Z</time>
      </trkpt>
      <trkpt lat="42.66974599999995" lon="-1.9507300000000032">
        <ele>473.409</ele>
        <time>2022-08-25T12:20:39Z</time>
      </trkpt>
      <trkpt lat="42.669734999999946" lon="-1.9507600000000032">
        <ele>473.412</ele>
        <time>2022-08-25T12:20:40Z</time>
      </trkpt>
      <trkpt lat="42.66972199999994" lon="-1.9508010000000031">
        <ele>473.652</ele>
        <time>2022-08-25T12:20:41Z</time>
      </trkpt>
      <trkpt lat="42.66971499999995" lon="-1.9508240000000032">
        <ele>473.692</ele>
        <time>2022-08-25T12:20:42Z</time>
      </trkpt>
      <trkpt lat="42.669704999999944" lon="-1.9508550000000031">
        <ele>473.818</ele>
        <time>2022-08-25T12:20:43Z</time>
      </trkpt>
      <trkpt lat="42.66969199999994" lon="-1.9508970000000032">
        <ele>473.870</ele>
        <time>2022-08-25T12:20:44Z</time>
      </trkpt>
      <trkpt lat="42.66967999999994" lon="-1.9509320000000032">
        <ele>473.857</ele>
        <time>2022-08-25T12:20:45Z</time>
      </trkpt>
      <trkpt lat="42.669670999999944" lon="-1.9509580000000033">
        <ele>473.860</ele>
        <time>2022-08-25T12:20:46Z</time>
      </trkpt>
      <trkpt lat="42.66965599999995" lon="-1.9509910000000033">
        <ele>473.826</ele>
        <time>2022-08-25T12:20:47Z</time>
      </trkpt>
      <trkpt lat="42.669636999999945" lon="-1.9510360000000033">
        <ele>473.847</ele>
        <time>2022-08-25T12:20:48Z</time>
      </trkpt>
      <trkpt lat="42.66962199999995" lon="-1.9510720000000032">
        <ele>473.869</ele>
        <time>2022-08-25T12:20:49Z</time>
      </trkpt>
      <trkpt lat="42.66960099999995" lon="-1.9511250000000033">
        <ele>474.004</ele>
        <time>2022-08-25T12:20:50Z</time>
      </trkpt>
      <trkpt lat="42.66955499999995" lon="-1.9512510000000034">
        <ele>474.224</ele>
        <time>2022-08-25T12:20:53Z</time>
      </trkpt>
      <trkpt lat="42.66952399999995" lon="-1.9513290000000034">
        <ele>474.209</ele>
        <time>2022-08-25T12:20:55Z</time>
      </trkpt>
      <trkpt lat="42.669486999999954" lon="-1.9514230000000035">
        <ele>474.477</ele>
        <time>2022-08-25T12:20:57Z</time>
      </trkpt>
      <trkpt lat="42.66947599999995" lon="-1.9514520000000035">
        <ele>474.487</ele>
        <time>2022-08-25T12:20:58Z</time>
      </trkpt>
      <trkpt lat="42.669460999999956" lon="-1.9514920000000036">
        <ele>474.467</ele>
        <time>2022-08-25T12:20:59Z</time>
      </trkpt>
      <trkpt lat="42.669452999999955" lon="-1.9515160000000036">
        <ele>474.643</ele>
        <time>2022-08-25T12:21:00Z</time>
      </trkpt>
      <trkpt lat="42.66943999999995" lon="-1.9515470000000035">
        <ele>474.665</ele>
        <time>2022-08-25T12:21:01Z</time>
      </trkpt>
      <trkpt lat="42.66941299999995" lon="-1.9516160000000036">
        <ele>475.022</ele>
        <time>2022-08-25T12:21:03Z</time>
      </trkpt>
      <trkpt lat="42.669385999999946" lon="-1.9516820000000035">
        <ele>475.275</ele>
        <time>2022-08-25T12:21:05Z</time>
      </trkpt>
      <trkpt lat="42.669315999999945" lon="-1.9518560000000034">
        <ele>475.411</ele>
        <time>2022-08-25T12:21:10Z</time>
      </trkpt>
      <trkpt lat="42.66930599999994" lon="-1.9518900000000035">
        <ele>475.662</ele>
        <time>2022-08-25T12:21:11Z</time>
      </trkpt>
      <trkpt lat="42.66929199999994" lon="-1.9519300000000035">
        <ele>475.834</ele>
        <time>2022-08-25T12:21:12Z</time>
      </trkpt>
      <trkpt lat="42.66928099999994" lon="-1.9519620000000035">
        <ele>475.855</ele>
        <time>2022-08-25T12:21:13Z</time>
      </trkpt>
      <trkpt lat="42.66925899999994" lon="-1.9520190000000035">
        <ele>475.810</ele>
        <time>2022-08-25T12:21:15Z</time>
      </trkpt>
      <trkpt lat="42.66922399999994" lon="-1.9521280000000034">
        <ele>476.209</ele>
        <time>2022-08-25T12:21:18Z</time>
      </trkpt>
      <trkpt lat="42.66918999999994" lon="-1.9522380000000035">
        <ele>476.434</ele>
        <time>2022-08-25T12:21:21Z</time>
      </trkpt>
      <trkpt lat="42.669166999999945" lon="-1.9523020000000035">
        <ele>476.674</ele>
        <time>2022-08-25T12:21:23Z</time>
      </trkpt>
      <trkpt lat="42.66914499999994" lon="-1.9523750000000035">
        <ele>476.894</ele>
        <time>2022-08-25T12:21:25Z</time>
      </trkpt>
      <trkpt lat="42.66912099999994" lon="-1.9524540000000035">
        <ele>477.080</ele>
        <time>2022-08-25T12:21:27Z</time>
      </trkpt>
      <trkpt lat="42.66910999999994" lon="-1.9524840000000034">
        <ele>477.282</ele>
        <time>2022-08-25T12:21:28Z</time>
      </trkpt>
      <trkpt lat="42.66909699999994" lon="-1.9525170000000034">
        <ele>477.469</ele>
        <time>2022-08-25T12:21:29Z</time>
      </trkpt>
      <trkpt lat="42.669086999999934" lon="-1.9525510000000035">
        <ele>477.462</ele>
        <time>2022-08-25T12:21:30Z</time>
      </trkpt>
      <trkpt lat="42.66907399999993" lon="-1.9525920000000034">
        <ele>477.618</ele>
        <time>2022-08-25T12:21:31Z</time>
      </trkpt>
      <trkpt lat="42.66906499999993" lon="-1.9526180000000035">
        <ele>477.849</ele>
        <time>2022-08-25T12:21:32Z</time>
      </trkpt>
      <trkpt lat="42.669015999999935" lon="-1.9527610000000035">
        <ele>478.448</ele>
        <time>2022-08-25T12:21:36Z</time>
      </trkpt>
      <trkpt lat="42.669004999999935" lon="-1.9527900000000036">
        <ele>478.661</ele>
        <time>2022-08-25T12:21:37Z</time>
      </trkpt>
      <trkpt lat="42.668990999999934" lon="-1.9528240000000037">
        <ele>478.817</ele>
        <time>2022-08-25T12:21:38Z</time>
      </trkpt>
      <trkpt lat="42.66897599999994" lon="-1.9528620000000037">
        <ele>478.809</ele>
        <time>2022-08-25T12:21:39Z</time>
      </trkpt>
      <trkpt lat="42.66896399999994" lon="-1.9528940000000037">
        <ele>479.035</ele>
        <time>2022-08-25T12:21:40Z</time>
      </trkpt>
      <trkpt lat="42.668950999999936" lon="-1.9529280000000038">
        <ele>479.225</ele>
        <time>2022-08-25T12:21:41Z</time>
      </trkpt>
      <trkpt lat="42.66893899999994" lon="-1.9529550000000038">
        <ele>479.425</ele>
        <time>2022-08-25T12:21:42Z</time>
      </trkpt>
      <trkpt lat="42.66892399999994" lon="-1.9529940000000037">
        <ele>479.621</ele>
        <time>2022-08-25T12:21:43Z</time>
      </trkpt>
      <trkpt lat="42.66891399999994" lon="-1.9530180000000037">
        <ele>479.653</ele>
        <time>2022-08-25T12:21:44Z</time>
      </trkpt>
      <trkpt lat="42.668897999999935" lon="-1.9530570000000036">
        <ele>479.870</ele>
        <time>2022-08-25T12:21:45Z</time>
      </trkpt>
      <trkpt lat="42.668888999999936" lon="-1.9530820000000035">
        <ele>479.893</ele>
        <time>2022-08-25T12:21:46Z</time>
      </trkpt>
      <trkpt lat="42.66887599999993" lon="-1.9531110000000036">
        <ele>480.019</ele>
        <time>2022-08-25T12:21:47Z</time>
      </trkpt>
      <trkpt lat="42.66886299999993" lon="-1.9531490000000036">
        <ele>480.050</ele>
        <time>2022-08-25T12:21:48Z</time>
      </trkpt>
      <trkpt lat="42.66885399999993" lon="-1.9531830000000037">
        <ele>480.045</ele>
        <time>2022-08-25T12:21:49Z</time>
      </trkpt>
      <trkpt lat="42.668846999999936" lon="-1.9532080000000036">
        <ele>480.247</ele>
        <time>2022-08-25T12:21:50Z</time>
      </trkpt>
      <trkpt lat="42.66883499999994" lon="-1.9532430000000036">
        <ele>480.211</ele>
        <time>2022-08-25T12:21:51Z</time>
      </trkpt>
      <trkpt lat="42.668821999999935" lon="-1.9532810000000036">
        <ele>480.209</ele>
        <time>2022-08-25T12:21:52Z</time>
      </trkpt>
      <trkpt lat="42.66881199999993" lon="-1.9533170000000035">
        <ele>480.435</ele>
        <time>2022-08-25T12:21:53Z</time>
      </trkpt>
      <trkpt lat="42.66879499999993" lon="-1.9533590000000036">
        <ele>480.475</ele>
        <time>2022-08-25T12:21:54Z</time>
      </trkpt>
      <trkpt lat="42.66878499999993" lon="-1.9533850000000037">
        <ele>480.465</ele>
        <time>2022-08-25T12:21:55Z</time>
      </trkpt>
      <trkpt lat="42.66877299999993" lon="-1.9534170000000037">
        <ele>480.641</ele>
        <time>2022-08-25T12:21:56Z</time>
      </trkpt>
      <trkpt lat="42.66875699999993" lon="-1.9534560000000036">
        <ele>480.673</ele>
        <time>2022-08-25T12:21:57Z</time>
      </trkpt>
      <trkpt lat="42.66874299999993" lon="-1.9534910000000036">
        <ele>480.670</ele>
        <time>2022-08-25T12:21:58Z</time>
      </trkpt>
      <trkpt lat="42.66873099999993" lon="-1.9535190000000036">
        <ele>480.613</ele>
        <time>2022-08-25T12:21:59Z</time>
      </trkpt>
      <trkpt lat="42.66871799999993" lon="-1.9535570000000035">
        <ele>480.629</ele>
        <time>2022-08-25T12:22:00Z</time>
      </trkpt>
      <trkpt lat="42.66870399999993" lon="-1.9535930000000035">
        <ele>480.610</ele>
        <time>2022-08-25T12:22:01Z</time>
      </trkpt>
      <trkpt lat="42.668690999999924" lon="-1.9536300000000035">
        <ele>480.849</ele>
        <time>2022-08-25T12:22:02Z</time>
      </trkpt>
      <trkpt lat="42.668650999999926" lon="-1.9537970000000036">
        <ele>481.002</ele>
        <time>2022-08-25T12:22:06Z</time>
      </trkpt>
      <trkpt lat="42.66862699999992" lon="-1.9538670000000036">
        <ele>481.222</ele>
        <time>2022-08-25T12:22:08Z</time>
      </trkpt>
      <trkpt lat="42.66861599999992" lon="-1.9539050000000036">
        <ele>481.209</ele>
        <time>2022-08-25T12:22:09Z</time>
      </trkpt>
      <trkpt lat="42.668603999999924" lon="-1.9539400000000036">
        <ele>481.225</ele>
        <time>2022-08-25T12:22:10Z</time>
      </trkpt>
      <trkpt lat="42.668589999999924" lon="-1.9539750000000036">
        <ele>481.475</ele>
        <time>2022-08-25T12:22:11Z</time>
      </trkpt>
      <trkpt lat="42.66854599999992" lon="-1.9541320000000035">
        <ele>481.625</ele>
        <time>2022-08-25T12:22:15Z</time>
      </trkpt>
      <trkpt lat="42.66853799999992" lon="-1.9541690000000036">
        <ele>481.681</ele>
        <time>2022-08-25T12:22:16Z</time>
      </trkpt>
      <trkpt lat="42.66852999999992" lon="-1.9541980000000037">
        <ele>481.633</ele>
        <time>2022-08-25T12:22:17Z</time>
      </trkpt>
      <trkpt lat="42.66851899999992" lon="-1.9542340000000036">
        <ele>481.620</ele>
        <time>2022-08-25T12:22:18Z</time>
      </trkpt>
      <trkpt lat="42.668488999999916" lon="-1.9543490000000037">
        <ele>481.853</ele>
        <time>2022-08-25T12:22:21Z</time>
      </trkpt>
      <trkpt lat="42.668443999999916" lon="-1.9544930000000036">
        <ele>482.089</ele>
        <time>2022-08-25T12:22:25Z</time>
      </trkpt>
      <trkpt lat="42.668412999999916" lon="-1.9546330000000036">
        <ele>482.260</ele>
        <time>2022-08-25T12:22:29Z</time>
      </trkpt>
      <trkpt lat="42.668412999999916" lon="-1.9546710000000036">
        <ele>482.467</ele>
        <time>2022-08-25T12:22:30Z</time>
      </trkpt>
      <trkpt lat="42.66841499999992" lon="-1.9547090000000036">
        <ele>482.481</ele>
        <time>2022-08-25T12:22:31Z</time>
      </trkpt>
      <trkpt lat="42.668423999999916" lon="-1.9547330000000036">
        <ele>482.419</ele>
        <time>2022-08-25T12:22:32Z</time>
      </trkpt>
      <trkpt lat="42.66843799999992" lon="-1.9547640000000035">
        <ele>482.409</ele>
        <time>2022-08-25T12:22:33Z</time>
      </trkpt>
      <trkpt lat="42.668455999999914" lon="-1.9547950000000034">
        <ele>482.437</ele>
        <time>2022-08-25T12:22:34Z</time>
      </trkpt>
      <trkpt lat="42.668474999999916" lon="-1.9548250000000034">
        <ele>482.477</ele>
        <time>2022-08-25T12:22:35Z</time>
      </trkpt>
      <trkpt lat="42.668494999999915" lon="-1.9548530000000033">
        <ele>482.487</ele>
        <time>2022-08-25T12:22:36Z</time>
      </trkpt>
      <trkpt lat="42.66851899999992" lon="-1.9548840000000032">
        <ele>482.443</ele>
        <time>2022-08-25T12:22:37Z</time>
      </trkpt>
      <trkpt lat="42.668567999999915" lon="-1.9549720000000033">
        <ele>482.675</ele>
        <time>2022-08-25T12:22:39Z</time>
      </trkpt>
      <trkpt lat="42.66861199999992" lon="-1.9551030000000034">
        <ele>482.432</ele>
        <time>2022-08-25T12:22:41Z</time>
      </trkpt>
      <trkpt lat="42.668612999999915" lon="-1.9552330000000033">
        <ele>482.465</ele>
        <time>2022-08-25T12:22:43Z</time>
      </trkpt>
      <trkpt lat="42.66859199999992" lon="-1.9553150000000032">
        <ele>482.481</ele>
        <time>2022-08-25T12:22:44Z</time>
      </trkpt>
      <trkpt lat="42.66856299999992" lon="-1.9553740000000033">
        <ele>482.232</ele>
        <time>2022-08-25T12:22:45Z</time>
      </trkpt>
      <trkpt lat="42.66853199999992" lon="-1.9554130000000032">
        <ele>482.037</ele>
        <time>2022-08-25T12:22:46Z</time>
      </trkpt>
      <trkpt lat="42.66849099999992" lon="-1.955452000000003">
        <ele>482.049</ele>
        <time>2022-08-25T12:22:47Z</time>
      </trkpt>
      <trkpt lat="42.66843899999992" lon="-1.955479000000003">
        <ele>481.813</ele>
        <time>2022-08-25T12:22:48Z</time>
      </trkpt>
      <trkpt lat="42.66840199999992" lon="-1.955484000000003">
        <ele>481.609</ele>
        <time>2022-08-25T12:22:49Z</time>
      </trkpt>
      <trkpt lat="42.66835199999992" lon="-1.955484000000003">
        <ele>481.624</ele>
        <time>2022-08-25T12:22:50Z</time>
      </trkpt>
      <trkpt lat="42.66831799999992" lon="-1.9554810000000031">
        <ele>481.664</ele>
        <time>2022-08-25T12:22:51Z</time>
      </trkpt>
      <trkpt lat="42.66827799999992" lon="-1.9554780000000032">
        <ele>481.684</ele>
        <time>2022-08-25T12:22:52Z</time>
      </trkpt>
      <trkpt lat="42.66822999999992" lon="-1.9554830000000032">
        <ele>481.660</ele>
        <time>2022-08-25T12:22:53Z</time>
      </trkpt>
      <trkpt lat="42.66816799999992" lon="-1.9555240000000031">
        <ele>481.672</ele>
        <time>2022-08-25T12:22:55Z</time>
      </trkpt>
      <trkpt lat="42.668121999999926" lon="-1.955622000000003">
        <ele>481.899</ele>
        <time>2022-08-25T12:22:57Z</time>
      </trkpt>
      <trkpt lat="42.668093999999925" lon="-1.955731000000003">
        <ele>481.852</ele>
        <time>2022-08-25T12:22:59Z</time>
      </trkpt>
      <trkpt lat="42.66808199999993" lon="-1.955775000000003">
        <ele>482.068</ele>
        <time>2022-08-25T12:23:00Z</time>
      </trkpt>
      <trkpt lat="42.667967999999924" lon="-1.956238000000003">
        <ele>482.649</ele>
        <time>2022-08-25T12:23:08Z</time>
      </trkpt>
      <trkpt lat="42.66793499999992" lon="-1.956354000000003">
        <ele>482.681</ele>
        <time>2022-08-25T12:23:10Z</time>
      </trkpt>
      <trkpt lat="42.667916999999925" lon="-1.956422000000003">
        <ele>482.661</ele>
        <time>2022-08-25T12:23:11Z</time>
      </trkpt>
      <trkpt lat="42.66786199999992" lon="-1.956646000000003">
        <ele>482.817</ele>
        <time>2022-08-25T12:23:15Z</time>
      </trkpt>
      <trkpt lat="42.66784499999992" lon="-1.956707000000003">
        <ele>482.809</ele>
        <time>2022-08-25T12:23:16Z</time>
      </trkpt>
      <trkpt lat="42.66780699999992" lon="-1.956837000000003">
        <ele>482.869</ele>
        <time>2022-08-25T12:23:18Z</time>
      </trkpt>
      <trkpt lat="42.667793999999915" lon="-1.956881000000003">
        <ele>482.849</ele>
        <time>2022-08-25T12:23:19Z</time>
      </trkpt>
      <trkpt lat="42.667731999999916" lon="-1.957161000000003">
        <ele>482.869</ele>
        <time>2022-08-25T12:23:24Z</time>
      </trkpt>
      <trkpt lat="42.66771899999991" lon="-1.957219000000003">
        <ele>482.835</ele>
        <time>2022-08-25T12:23:25Z</time>
      </trkpt>
      <trkpt lat="42.66770599999991" lon="-1.957280000000003">
        <ele>482.827</ele>
        <time>2022-08-25T12:23:26Z</time>
      </trkpt>
      <trkpt lat="42.66769099999991" lon="-1.9573490000000031">
        <ele>482.814</ele>
        <time>2022-08-25T12:23:27Z</time>
      </trkpt>
      <trkpt lat="42.667678999999914" lon="-1.957393000000003">
        <ele>482.877</ele>
        <time>2022-08-25T12:23:28Z</time>
      </trkpt>
      <trkpt lat="42.667664999999914" lon="-1.9574460000000031">
        <ele>482.863</ele>
        <time>2022-08-25T12:23:29Z</time>
      </trkpt>
      <trkpt lat="42.66764899999991" lon="-1.957503000000003">
        <ele>483.024</ele>
        <time>2022-08-25T12:23:30Z</time>
      </trkpt>
      <trkpt lat="42.667630999999915" lon="-1.957568000000003">
        <ele>483.028</ele>
        <time>2022-08-25T12:23:31Z</time>
      </trkpt>
      <trkpt lat="42.66758999999991" lon="-1.9577180000000032">
        <ele>483.089</ele>
        <time>2022-08-25T12:23:34Z</time>
      </trkpt>
      <trkpt lat="42.66756699999991" lon="-1.9578340000000032">
        <ele>483.017</ele>
        <time>2022-08-25T12:23:36Z</time>
      </trkpt>
      <trkpt lat="42.66755699999991" lon="-1.957889000000003">
        <ele>483.009</ele>
        <time>2022-08-25T12:23:37Z</time>
      </trkpt>
      <trkpt lat="42.66754299999991" lon="-1.9579480000000031">
        <ele>483.023</ele>
        <time>2022-08-25T12:23:38Z</time>
      </trkpt>
      <trkpt lat="42.66752799999991" lon="-1.958005000000003">
        <ele>482.813</ele>
        <time>2022-08-25T12:23:39Z</time>
      </trkpt>
      <trkpt lat="42.66751699999991" lon="-1.9580640000000031">
        <ele>482.833</ele>
        <time>2022-08-25T12:23:40Z</time>
      </trkpt>
      <trkpt lat="42.66750599999991" lon="-1.9581310000000032">
        <ele>482.879</ele>
        <time>2022-08-25T12:23:41Z</time>
      </trkpt>
      <trkpt lat="42.667498999999914" lon="-1.958175000000003">
        <ele>482.861</ele>
        <time>2022-08-25T12:23:42Z</time>
      </trkpt>
      <trkpt lat="42.66748599999991" lon="-1.9582390000000032">
        <ele>482.858</ele>
        <time>2022-08-25T12:23:43Z</time>
      </trkpt>
      <trkpt lat="42.66747399999991" lon="-1.9582890000000033">
        <ele>482.841</ele>
        <time>2022-08-25T12:23:44Z</time>
      </trkpt>
      <trkpt lat="42.667450999999915" lon="-1.9583860000000033">
        <ele>483.247</ele>
        <time>2022-08-25T12:23:46Z</time>
      </trkpt>
      <trkpt lat="42.667436999999914" lon="-1.9584380000000032">
        <ele>483.288</ele>
        <time>2022-08-25T12:23:47Z</time>
      </trkpt>
      <trkpt lat="42.667424999999916" lon="-1.9584880000000033">
        <ele>483.426</ele>
        <time>2022-08-25T12:23:48Z</time>
      </trkpt>
      <trkpt lat="42.66741299999992" lon="-1.9585380000000034">
        <ele>483.847</ele>
        <time>2022-08-25T12:23:49Z</time>
      </trkpt>
      <trkpt lat="42.667399999999915" lon="-1.9585980000000034">
        <ele>484.011</ele>
        <time>2022-08-25T12:23:50Z</time>
      </trkpt>
      <trkpt lat="42.667380999999914" lon="-1.9586880000000033">
        <ele>484.209</ele>
        <time>2022-08-25T12:23:52Z</time>
      </trkpt>
      <trkpt lat="42.667368999999916" lon="-1.9587340000000033">
        <ele>484.493</ele>
        <time>2022-08-25T12:23:53Z</time>
      </trkpt>
      <trkpt lat="42.66735699999992" lon="-1.9587760000000034">
        <ele>484.623</ele>
        <time>2022-08-25T12:23:54Z</time>
      </trkpt>
      <trkpt lat="42.66734499999992" lon="-1.9588190000000034">
        <ele>485.033</ele>
        <time>2022-08-25T12:23:55Z</time>
      </trkpt>
      <trkpt lat="42.66733599999992" lon="-1.9588600000000034">
        <ele>485.299</ele>
        <time>2022-08-25T12:23:56Z</time>
      </trkpt>
      <trkpt lat="42.66732499999992" lon="-1.9589020000000035">
        <ele>485.451</ele>
        <time>2022-08-25T12:23:57Z</time>
      </trkpt>
      <trkpt lat="42.66731599999992" lon="-1.9589430000000034">
        <ele>485.688</ele>
        <time>2022-08-25T12:23:58Z</time>
      </trkpt>
      <trkpt lat="42.66730399999992" lon="-1.9589830000000035">
        <ele>485.621</ele>
        <time>2022-08-25T12:23:59Z</time>
      </trkpt>
      <trkpt lat="42.66729399999992" lon="-1.9590250000000036">
        <ele>485.887</ele>
        <time>2022-08-25T12:24:00Z</time>
      </trkpt>
      <trkpt lat="42.66728299999992" lon="-1.9590630000000036">
        <ele>486.048</ele>
        <time>2022-08-25T12:24:01Z</time>
      </trkpt>
      <trkpt lat="42.66727499999992" lon="-1.9590990000000035">
        <ele>486.062</ele>
        <time>2022-08-25T12:24:02Z</time>
      </trkpt>
      <trkpt lat="42.667264999999915" lon="-1.9591370000000035">
        <ele>486.083</ele>
        <time>2022-08-25T12:24:03Z</time>
      </trkpt>
      <trkpt lat="42.66725599999992" lon="-1.9591750000000034">
        <ele>486.211</ele>
        <time>2022-08-25T12:24:04Z</time>
      </trkpt>
      <trkpt lat="42.66724899999992" lon="-1.9592120000000035">
        <ele>486.409</ele>
        <time>2022-08-25T12:24:05Z</time>
      </trkpt>
      <trkpt lat="42.66724199999992" lon="-1.9592490000000036">
        <ele>486.487</ele>
        <time>2022-08-25T12:24:06Z</time>
      </trkpt>
      <trkpt lat="42.667232999999925" lon="-1.9592850000000035">
        <ele>486.487</ele>
        <time>2022-08-25T12:24:07Z</time>
      </trkpt>
      <trkpt lat="42.667224999999924" lon="-1.9593240000000034">
        <ele>486.647</ele>
        <time>2022-08-25T12:24:08Z</time>
      </trkpt>
      <trkpt lat="42.667215999999925" lon="-1.9593700000000034">
        <ele>486.673</ele>
        <time>2022-08-25T12:24:09Z</time>
      </trkpt>
      <trkpt lat="42.667207999999924" lon="-1.9594010000000033">
        <ele>486.635</ele>
        <time>2022-08-25T12:24:10Z</time>
      </trkpt>
      <trkpt lat="42.66719999999992" lon="-1.9594380000000033">
        <ele>486.842</ele>
        <time>2022-08-25T12:24:11Z</time>
      </trkpt>
      <trkpt lat="42.667190999999924" lon="-1.9594820000000033">
        <ele>486.855</ele>
        <time>2022-08-25T12:24:12Z</time>
      </trkpt>
      <trkpt lat="42.667184999999925" lon="-1.9595090000000033">
        <ele>486.841</ele>
        <time>2022-08-25T12:24:13Z</time>
      </trkpt>
      <trkpt lat="42.667173999999925" lon="-1.9595430000000034">
        <ele>486.822</ele>
        <time>2022-08-25T12:24:14Z</time>
      </trkpt>
      <trkpt lat="42.667164999999926" lon="-1.9595780000000034">
        <ele>487.026</ele>
        <time>2022-08-25T12:24:15Z</time>
      </trkpt>
      <trkpt lat="42.667159999999924" lon="-1.9596120000000035">
        <ele>487.047</ele>
        <time>2022-08-25T12:24:16Z</time>
      </trkpt>
      <trkpt lat="42.667153999999925" lon="-1.9596460000000036">
        <ele>487.011</ele>
        <time>2022-08-25T12:24:17Z</time>
      </trkpt>
      <trkpt lat="42.66714499999993" lon="-1.9596860000000036">
        <ele>487.209</ele>
        <time>2022-08-25T12:24:18Z</time>
      </trkpt>
      <trkpt lat="42.667136999999926" lon="-1.9597140000000035">
        <ele>487.243</ele>
        <time>2022-08-25T12:24:19Z</time>
      </trkpt>
      <trkpt lat="42.66712999999993" lon="-1.9597490000000035">
        <ele>487.453</ele>
        <time>2022-08-25T12:24:20Z</time>
      </trkpt>
      <trkpt lat="42.66711899999993" lon="-1.9597860000000036">
        <ele>487.453</ele>
        <time>2022-08-25T12:24:21Z</time>
      </trkpt>
      <trkpt lat="42.66710999999993" lon="-1.9598180000000036">
        <ele>487.639</ele>
        <time>2022-08-25T12:24:22Z</time>
      </trkpt>
      <trkpt lat="42.66704199999993" lon="-1.9601050000000035">
        <ele>488.281</ele>
        <time>2022-08-25T12:24:30Z</time>
      </trkpt>
      <trkpt lat="42.66703099999993" lon="-1.9601450000000036">
        <ele>488.258</ele>
        <time>2022-08-25T12:24:31Z</time>
      </trkpt>
      <trkpt lat="42.66698899999993" lon="-1.9603160000000035">
        <ele>488.671</ele>
        <time>2022-08-25T12:24:35Z</time>
      </trkpt>
      <trkpt lat="42.66693399999993" lon="-1.9605620000000035">
        <ele>489.097</ele>
        <time>2022-08-25T12:24:41Z</time>
      </trkpt>
      <trkpt lat="42.66689399999993" lon="-1.9607410000000034">
        <ele>489.228</ele>
        <time>2022-08-25T12:24:45Z</time>
      </trkpt>
      <trkpt lat="42.66683799999993" lon="-1.9609720000000035">
        <ele>490.063</ele>
        <time>2022-08-25T12:24:50Z</time>
      </trkpt>
      <trkpt lat="42.66682399999993" lon="-1.9610330000000036">
        <ele>490.444</ele>
        <time>2022-08-25T12:24:51Z</time>
      </trkpt>
      <trkpt lat="42.66674199999993" lon="-1.9614460000000036">
        <ele>490.818</ele>
        <time>2022-08-25T12:24:59Z</time>
      </trkpt>
      <trkpt lat="42.66663399999993" lon="-1.9621090000000037">
        <ele>491.209</ele>
        <time>2022-08-25T12:25:11Z</time>
      </trkpt>
      <trkpt lat="42.66660799999993" lon="-1.9622760000000037">
        <ele>491.457</ele>
        <time>2022-08-25T12:25:14Z</time>
      </trkpt>
      <trkpt lat="42.666572999999936" lon="-1.9625490000000037">
        <ele>491.887</ele>
        <time>2022-08-25T12:25:19Z</time>
      </trkpt>
      <trkpt lat="42.66656399999994" lon="-1.9626010000000036">
        <ele>491.837</ele>
        <time>2022-08-25T12:25:20Z</time>
      </trkpt>
      <trkpt lat="42.66651499999994" lon="-1.9630740000000035">
        <ele>492.053</ele>
        <time>2022-08-25T12:25:28Z</time>
      </trkpt>
      <trkpt lat="42.66644799999994" lon="-1.9637730000000035">
        <ele>491.685</ele>
        <time>2022-08-25T12:25:39Z</time>
      </trkpt>
      <trkpt lat="42.66641999999994" lon="-1.9643980000000036">
        <ele>491.482</ele>
        <time>2022-08-25T12:25:48Z</time>
      </trkpt>
      <trkpt lat="42.66641899999994" lon="-1.9644810000000037">
        <ele>491.475</ele>
        <time>2022-08-25T12:25:49Z</time>
      </trkpt>
      <trkpt lat="42.66641799999994" lon="-1.9645350000000037">
        <ele>491.471</ele>
        <time>2022-08-25T12:25:50Z</time>
      </trkpt>
      <trkpt lat="42.66641899999994" lon="-1.9646180000000038">
        <ele>491.272</ele>
        <time>2022-08-25T12:25:51Z</time>
      </trkpt>
      <trkpt lat="42.66641899999994" lon="-1.9646750000000037">
        <ele>491.254</ele>
        <time>2022-08-25T12:25:52Z</time>
      </trkpt>
      <trkpt lat="42.66641699999994" lon="-1.9647430000000037">
        <ele>491.056</ele>
        <time>2022-08-25T12:25:53Z</time>
      </trkpt>
      <trkpt lat="42.66641599999994" lon="-1.9648110000000036">
        <ele>490.811</ele>
        <time>2022-08-25T12:25:54Z</time>
      </trkpt>
      <trkpt lat="42.666414999999944" lon="-1.9648910000000037">
        <ele>490.809</ele>
        <time>2022-08-25T12:25:55Z</time>
      </trkpt>
      <trkpt lat="42.66641299999994" lon="-1.9649430000000037">
        <ele>490.666</ele>
        <time>2022-08-25T12:25:56Z</time>
      </trkpt>
      <trkpt lat="42.666411999999944" lon="-1.9650070000000037">
        <ele>490.616</ele>
        <time>2022-08-25T12:25:57Z</time>
      </trkpt>
      <trkpt lat="42.66641099999995" lon="-1.9650700000000036">
        <ele>490.466</ele>
        <time>2022-08-25T12:25:58Z</time>
      </trkpt>
      <trkpt lat="42.666411999999944" lon="-1.9652670000000036">
        <ele>490.252</ele>
        <time>2022-08-25T12:26:01Z</time>
      </trkpt>
      <trkpt lat="42.66641299999994" lon="-1.9654660000000037">
        <ele>490.224</ele>
        <time>2022-08-25T12:26:04Z</time>
      </trkpt>
      <trkpt lat="42.66642099999994" lon="-1.9659730000000037">
        <ele>489.481</ele>
        <time>2022-08-25T12:26:11Z</time>
      </trkpt>
      <trkpt lat="42.66642199999994" lon="-1.9661280000000037">
        <ele>489.274</ele>
        <time>2022-08-25T12:26:13Z</time>
      </trkpt>
      <trkpt lat="42.66642999999994" lon="-1.9666950000000036">
        <ele>488.070</ele>
        <time>2022-08-25T12:26:20Z</time>
      </trkpt>
      <trkpt lat="42.66643099999994" lon="-1.9667770000000036">
        <ele>487.621</ele>
        <time>2022-08-25T12:26:21Z</time>
      </trkpt>
      <trkpt lat="42.666431999999936" lon="-1.9668590000000035">
        <ele>487.472</ele>
        <time>2022-08-25T12:26:22Z</time>
      </trkpt>
      <trkpt lat="42.66643399999994" lon="-1.9669400000000035">
        <ele>487.013</ele>
        <time>2022-08-25T12:26:23Z</time>
      </trkpt>
      <trkpt lat="42.66643899999994" lon="-1.9671090000000035">
        <ele>486.214</ele>
        <time>2022-08-25T12:26:25Z</time>
      </trkpt>
      <trkpt lat="42.66644099999994" lon="-1.9671910000000035">
        <ele>485.809</ele>
        <time>2022-08-25T12:26:26Z</time>
      </trkpt>
      <trkpt lat="42.66644199999994" lon="-1.9672730000000034">
        <ele>485.638</ele>
        <time>2022-08-25T12:26:27Z</time>
      </trkpt>
      <trkpt lat="42.66645199999994" lon="-1.9675260000000034">
        <ele>485.488</ele>
        <time>2022-08-25T12:26:30Z</time>
      </trkpt>
      <trkpt lat="42.666484999999945" lon="-1.9681380000000035">
        <ele>484.448</ele>
        <time>2022-08-25T12:26:37Z</time>
      </trkpt>
      <trkpt lat="42.66650099999995" lon="-1.9683850000000036">
        <ele>483.834</ele>
        <time>2022-08-25T12:26:40Z</time>
      </trkpt>
      <trkpt lat="42.66651499999995" lon="-1.9685820000000036">
        <ele>483.496</ele>
        <time>2022-08-25T12:26:42Z</time>
      </trkpt>
      <trkpt lat="42.666543999999945" lon="-1.9689330000000036">
        <ele>482.483</ele>
        <time>2022-08-25T12:26:46Z</time>
      </trkpt>
      <trkpt lat="42.66654899999995" lon="-1.9690020000000037">
        <ele>482.276</ele>
        <time>2022-08-25T12:26:47Z</time>
      </trkpt>
      <trkpt lat="42.66656199999995" lon="-1.9691730000000036">
        <ele>482.222</ele>
        <time>2022-08-25T12:26:49Z</time>
      </trkpt>
      <trkpt lat="42.66662499999995" lon="-1.9696970000000036">
        <ele>481.053</ele>
        <time>2022-08-25T12:26:55Z</time>
      </trkpt>
      <trkpt lat="42.66664899999995" lon="-1.9698680000000035">
        <ele>480.623</ele>
        <time>2022-08-25T12:26:57Z</time>
      </trkpt>
      <trkpt lat="42.66667099999995" lon="-1.9700260000000036">
        <ele>480.083</ele>
        <time>2022-08-25T12:26:59Z</time>
      </trkpt>
      <trkpt lat="42.66671699999995" lon="-1.9703830000000035">
        <ele>478.811</ele>
        <time>2022-08-25T12:27:03Z</time>
      </trkpt>
      <trkpt lat="42.66675599999995" lon="-1.9706690000000036">
        <ele>477.809</ele>
        <time>2022-08-25T12:27:06Z</time>
      </trkpt>
      <trkpt lat="42.66676399999995" lon="-1.9707380000000037">
        <ele>477.683</ele>
        <time>2022-08-25T12:27:07Z</time>
      </trkpt>
      <trkpt lat="42.666773999999954" lon="-1.9708220000000036">
        <ele>477.473</ele>
        <time>2022-08-25T12:27:08Z</time>
      </trkpt>
      <trkpt lat="42.66678699999996" lon="-1.9709260000000037">
        <ele>477.463</ele>
        <time>2022-08-25T12:27:09Z</time>
      </trkpt>
      <trkpt lat="42.66679799999996" lon="-1.9710110000000036">
        <ele>477.259</ele>
        <time>2022-08-25T12:27:10Z</time>
      </trkpt>
      <trkpt lat="42.66681999999996" lon="-1.9712500000000037">
        <ele>476.621</ele>
        <time>2022-08-25T12:27:13Z</time>
      </trkpt>
      <trkpt lat="42.666826999999955" lon="-1.9713340000000037">
        <ele>476.498</ele>
        <time>2022-08-25T12:27:14Z</time>
      </trkpt>
      <trkpt lat="42.66683199999996" lon="-1.9714200000000037">
        <ele>476.231</ele>
        <time>2022-08-25T12:27:15Z</time>
      </trkpt>
      <trkpt lat="42.66684199999996" lon="-1.9716910000000036">
        <ele>475.657</ele>
        <time>2022-08-25T12:27:18Z</time>
      </trkpt>
      <trkpt lat="42.66684299999996" lon="-1.9720120000000037">
        <ele>474.878</ele>
        <time>2022-08-25T12:27:22Z</time>
      </trkpt>
      <trkpt lat="42.66683599999996" lon="-1.9721160000000038">
        <ele>474.459</ele>
        <time>2022-08-25T12:27:23Z</time>
      </trkpt>
      <trkpt lat="42.66680499999996" lon="-1.9723410000000037">
        <ele>473.603</ele>
        <time>2022-08-25T12:27:26Z</time>
      </trkpt>
      <trkpt lat="42.666786999999964" lon="-1.9724340000000036">
        <ele>473.623</ele>
        <time>2022-08-25T12:27:27Z</time>
      </trkpt>
      <trkpt lat="42.666769999999964" lon="-1.9725070000000036">
        <ele>473.409</ele>
        <time>2022-08-25T12:27:28Z</time>
      </trkpt>
      <trkpt lat="42.66675199999997" lon="-1.9725780000000035">
        <ele>473.276</ele>
        <time>2022-08-25T12:27:29Z</time>
      </trkpt>
      <trkpt lat="42.666718999999965" lon="-1.9727090000000036">
        <ele>472.666</ele>
        <time>2022-08-25T12:27:31Z</time>
      </trkpt>
      <trkpt lat="42.666665999999964" lon="-1.9729350000000037">
        <ele>472.496</ele>
        <time>2022-08-25T12:27:34Z</time>
      </trkpt>
      <trkpt lat="42.66654899999996" lon="-1.9733420000000037">
        <ele>471.652</ele>
        <time>2022-08-25T12:27:39Z</time>
      </trkpt>
      <trkpt lat="42.66651899999996" lon="-1.9734270000000036">
        <ele>471.284</ele>
        <time>2022-08-25T12:27:40Z</time>
      </trkpt>
      <trkpt lat="42.66634699999996" lon="-1.9738570000000035">
        <ele>470.011</ele>
        <time>2022-08-25T12:27:45Z</time>
      </trkpt>
      <trkpt lat="42.66620799999996" lon="-1.9741560000000036">
        <ele>468.864</ele>
        <time>2022-08-25T12:27:48Z</time>
      </trkpt>
      <trkpt lat="42.666054999999965" lon="-1.9744370000000036">
        <ele>467.840</ele>
        <time>2022-08-25T12:27:51Z</time>
      </trkpt>
      <trkpt lat="42.66582199999996" lon="-1.9747850000000036">
        <ele>466.411</ele>
        <time>2022-08-25T12:27:55Z</time>
      </trkpt>
      <trkpt lat="42.66573499999996" lon="-1.9748860000000035">
        <ele>466.263</ele>
        <time>2022-08-25T12:27:56Z</time>
      </trkpt>
      <trkpt lat="42.665514999999964" lon="-1.9750850000000035">
        <ele>465.244</ele>
        <time>2022-08-25T12:27:59Z</time>
      </trkpt>
      <trkpt lat="42.66541399999996" lon="-1.9751550000000035">
        <ele>464.618</ele>
        <time>2022-08-25T12:28:00Z</time>
      </trkpt>
      <trkpt lat="42.665238999999964" lon="-1.9752490000000036">
        <ele>463.809</ele>
        <time>2022-08-25T12:28:02Z</time>
      </trkpt>
      <trkpt lat="42.66496499999997" lon="-1.9753540000000036">
        <ele>462.287</ele>
        <time>2022-08-25T12:28:05Z</time>
      </trkpt>
      <trkpt lat="42.66488599999997" lon="-1.9754000000000036">
        <ele>462.027</ele>
        <time>2022-08-25T12:28:06Z</time>
      </trkpt>
      <trkpt lat="42.664818999999966" lon="-1.9754610000000037">
        <ele>461.457</ele>
        <time>2022-08-25T12:28:07Z</time>
      </trkpt>
      <trkpt lat="42.66478199999997" lon="-1.9755160000000036">
        <ele>461.283</ele>
        <time>2022-08-25T12:28:08Z</time>
      </trkpt>
      <trkpt lat="42.664754999999964" lon="-1.9755880000000037">
        <ele>460.675</ele>
        <time>2022-08-25T12:28:09Z</time>
      </trkpt>
      <trkpt lat="42.664748999999965" lon="-1.9756620000000036">
        <ele>460.462</ele>
        <time>2022-08-25T12:28:10Z</time>
      </trkpt>
      <trkpt lat="42.66476399999996" lon="-1.9757420000000037">
        <ele>459.675</ele>
        <time>2022-08-25T12:28:11Z</time>
      </trkpt>
      <trkpt lat="42.66478499999996" lon="-1.9757780000000036">
        <ele>458.881</ele>
        <time>2022-08-25T12:28:12Z</time>
      </trkpt>
      <trkpt lat="42.66482199999996" lon="-1.9758060000000035">
        <ele>458.432</ele>
        <time>2022-08-25T12:28:13Z</time>
      </trkpt>
      <trkpt lat="42.66486899999996" lon="-1.9758170000000035">
        <ele>457.672</ele>
        <time>2022-08-25T12:28:14Z</time>
      </trkpt>
      <trkpt lat="42.66491499999996" lon="-1.9758320000000036">
        <ele>457.213</ele>
        <time>2022-08-25T12:28:15Z</time>
      </trkpt>
      <trkpt lat="42.66495699999996" lon="-1.9758610000000036">
        <ele>456.814</ele>
        <time>2022-08-25T12:28:16Z</time>
      </trkpt>
      <trkpt lat="42.66500099999996" lon="-1.9759090000000037">
        <ele>456.609</ele>
        <time>2022-08-25T12:28:17Z</time>
      </trkpt>
      <trkpt lat="42.66502399999996" lon="-1.9759500000000036">
        <ele>456.438</ele>
        <time>2022-08-25T12:28:18Z</time>
      </trkpt>
      <trkpt lat="42.66504899999996" lon="-1.9760220000000037">
        <ele>456.458</ele>
        <time>2022-08-25T12:28:19Z</time>
      </trkpt>
      <trkpt lat="42.66505999999996" lon="-1.9761630000000037">
        <ele>456.218</ele>
        <time>2022-08-25T12:28:21Z</time>
      </trkpt>
      <trkpt lat="42.66505999999996" lon="-1.9762370000000036">
        <ele>456.274</ele>
        <time>2022-08-25T12:28:22Z</time>
      </trkpt>
      <trkpt lat="42.66506299999996" lon="-1.9762990000000036">
        <ele>456.036</ele>
        <time>2022-08-25T12:28:23Z</time>
      </trkpt>
      <trkpt lat="42.66507699999996" lon="-1.9763970000000035">
        <ele>456.013</ele>
        <time>2022-08-25T12:28:24Z</time>
      </trkpt>
      <trkpt lat="42.66510299999996" lon="-1.9764790000000034">
        <ele>455.866</ele>
        <time>2022-08-25T12:28:25Z</time>
      </trkpt>
      <trkpt lat="42.66515599999996" lon="-1.9766180000000033">
        <ele>455.662</ele>
        <time>2022-08-25T12:28:27Z</time>
      </trkpt>
      <trkpt lat="42.66518199999996" lon="-1.9767230000000033">
        <ele>455.463</ele>
        <time>2022-08-25T12:28:28Z</time>
      </trkpt>
      <trkpt lat="42.66520799999996" lon="-1.9768120000000033">
        <ele>455.014</ele>
        <time>2022-08-25T12:28:29Z</time>
      </trkpt>
      <trkpt lat="42.665270999999954" lon="-1.9769710000000034">
        <ele>454.654</ele>
        <time>2022-08-25T12:28:31Z</time>
      </trkpt>
      <trkpt lat="42.665292999999956" lon="-1.9770340000000033">
        <ele>454.409</ele>
        <time>2022-08-25T12:28:32Z</time>
      </trkpt>
      <trkpt lat="42.66532499999995" lon="-1.9771200000000033">
        <ele>454.209</ele>
        <time>2022-08-25T12:28:33Z</time>
      </trkpt>
      <trkpt lat="42.66535099999995" lon="-1.9771870000000034">
        <ele>454.262</ele>
        <time>2022-08-25T12:28:34Z</time>
      </trkpt>
      <trkpt lat="42.665374999999955" lon="-1.9772470000000033">
        <ele>454.282</ele>
        <time>2022-08-25T12:28:35Z</time>
      </trkpt>
      <trkpt lat="42.665391999999954" lon="-1.9772940000000032">
        <ele>454.242</ele>
        <time>2022-08-25T12:28:36Z</time>
      </trkpt>
      <trkpt lat="42.665411999999954" lon="-1.9773490000000031">
        <ele>454.478</ele>
        <time>2022-08-25T12:28:37Z</time>
      </trkpt>
      <trkpt lat="42.66543599999996" lon="-1.9774080000000032">
        <ele>454.430</ele>
        <time>2022-08-25T12:28:38Z</time>
      </trkpt>
      <trkpt lat="42.66545299999996" lon="-1.9774540000000032">
        <ele>454.677</ele>
        <time>2022-08-25T12:28:39Z</time>
      </trkpt>
      <trkpt lat="42.665470999999954" lon="-1.977493000000003">
        <ele>454.830</ele>
        <time>2022-08-25T12:28:40Z</time>
      </trkpt>
      <trkpt lat="42.665481999999955" lon="-1.977525000000003">
        <ele>455.266</ele>
        <time>2022-08-25T12:28:41Z</time>
      </trkpt>
      <trkpt lat="42.66549799999996" lon="-1.977572000000003">
        <ele>455.437</ele>
        <time>2022-08-25T12:28:42Z</time>
      </trkpt>
      <trkpt lat="42.665512999999955" lon="-1.977606000000003">
        <ele>455.622</ele>
        <time>2022-08-25T12:28:43Z</time>
      </trkpt>
      <trkpt lat="42.66552599999996" lon="-1.9776400000000032">
        <ele>455.662</ele>
        <time>2022-08-25T12:28:44Z</time>
      </trkpt>
      <trkpt lat="42.66553699999996" lon="-1.9776660000000033">
        <ele>455.808</ele>
        <time>2022-08-25T12:28:45Z</time>
      </trkpt>
      <trkpt lat="42.665548999999956" lon="-1.9776990000000032">
        <ele>456.009</ele>
        <time>2022-08-25T12:28:46Z</time>
      </trkpt>
      <trkpt lat="42.66556499999996" lon="-1.9777370000000032">
        <ele>456.033</ele>
        <time>2022-08-25T12:28:47Z</time>
      </trkpt>
      <trkpt lat="42.66557799999996" lon="-1.977768000000003">
        <ele>456.423</ele>
        <time>2022-08-25T12:28:48Z</time>
      </trkpt>
      <trkpt lat="42.665590999999964" lon="-1.9777970000000031">
        <ele>456.453</ele>
        <time>2022-08-25T12:28:49Z</time>
      </trkpt>
      <trkpt lat="42.66560299999996" lon="-1.9778180000000032">
        <ele>456.629</ele>
        <time>2022-08-25T12:28:50Z</time>
      </trkpt>
      <trkpt lat="42.66561999999996" lon="-1.9778470000000032">
        <ele>456.681</ele>
        <time>2022-08-25T12:28:51Z</time>
      </trkpt>
      <trkpt lat="42.665632999999964" lon="-1.9778700000000033">
        <ele>456.858</ele>
        <time>2022-08-25T12:28:52Z</time>
      </trkpt>
      <trkpt lat="42.66564599999997" lon="-1.9778940000000034">
        <ele>456.851</ele>
        <time>2022-08-25T12:28:53Z</time>
      </trkpt>
      <trkpt lat="42.66565599999997" lon="-1.9779110000000033">
        <ele>457.067</ele>
        <time>2022-08-25T12:28:54Z</time>
      </trkpt>
      <trkpt lat="42.66566899999997" lon="-1.9779340000000034">
        <ele>457.278</ele>
        <time>2022-08-25T12:28:55Z</time>
      </trkpt>
      <trkpt lat="42.66568099999997" lon="-1.9779540000000033">
        <ele>457.284</ele>
        <time>2022-08-25T12:28:56Z</time>
      </trkpt>
      <trkpt lat="42.66571299999997" lon="-1.9779840000000033">
        <ele>457.407</ele>
        <time>2022-08-25T12:28:58Z</time>
      </trkpt>
      <trkpt lat="42.66572699999997" lon="-1.9779980000000033">
        <ele>457.417</ele>
        <time>2022-08-25T12:28:59Z</time>
      </trkpt>
      <trkpt lat="42.66574099999997" lon="-1.9780120000000032">
        <ele>457.409</ele>
        <time>2022-08-25T12:29:00Z</time>
      </trkpt>
      <trkpt lat="42.66575199999997" lon="-1.9780250000000033">
        <ele>457.649</ele>
        <time>2022-08-25T12:29:01Z</time>
      </trkpt>
      <trkpt lat="42.66575999999997" lon="-1.9780370000000032">
        <ele>457.629</ele>
        <time>2022-08-25T12:29:02Z</time>
      </trkpt>
      <trkpt lat="42.66576199999997" lon="-1.9780400000000031">
        <ele>457.639</ele>
        <time>2022-08-25T12:29:03Z</time>
      </trkpt>
      <trkpt lat="42.665783999999974" lon="-1.9781150000000032">
        <ele>457.445</ele>
        <time>2022-08-25T12:29:13Z</time>
      </trkpt>
      <trkpt lat="42.66578699999997" lon="-1.9782020000000031">
        <ele>457.467</ele>
        <time>2022-08-25T12:29:15Z</time>
      </trkpt>
      <trkpt lat="42.66578699999997" lon="-1.978251000000003">
        <ele>457.424</ele>
        <time>2022-08-25T12:29:16Z</time>
      </trkpt>
      <trkpt lat="42.665785999999976" lon="-1.9783040000000032">
        <ele>457.467</ele>
        <time>2022-08-25T12:29:17Z</time>
      </trkpt>
      <trkpt lat="42.66577999999998" lon="-1.978348000000003">
        <ele>457.443</ele>
        <time>2022-08-25T12:29:18Z</time>
      </trkpt>
      <trkpt lat="42.66575099999998" lon="-1.9785390000000032">
        <ele>457.484</ele>
        <time>2022-08-25T12:29:21Z</time>
      </trkpt>
      <trkpt lat="42.66568099999998" lon="-1.979020000000003">
        <ele>457.293</ele>
        <time>2022-08-25T12:29:29Z</time>
      </trkpt>
      <trkpt lat="42.66567199999998" lon="-1.9790840000000032">
        <ele>457.265</ele>
        <time>2022-08-25T12:29:30Z</time>
      </trkpt>
      <trkpt lat="42.66555599999998" lon="-1.9798160000000031">
        <ele>456.621</ele>
        <time>2022-08-25T12:29:41Z</time>
      </trkpt>
      <trkpt lat="42.665461999999984" lon="-1.9803720000000031">
        <ele>456.009</ele>
        <time>2022-08-25T12:29:48Z</time>
      </trkpt>
      <trkpt lat="42.665446999999986" lon="-1.980473000000003">
        <ele>455.820</ele>
        <time>2022-08-25T12:29:49Z</time>
      </trkpt>
      <trkpt lat="42.66536199999999" lon="-1.980995000000003">
        <ele>454.660</ele>
        <time>2022-08-25T12:29:55Z</time>
      </trkpt>
      <trkpt lat="42.66533099999999" lon="-1.981186000000003">
        <ele>454.460</ele>
        <time>2022-08-25T12:29:57Z</time>
      </trkpt>
      <trkpt lat="42.665263999999986" lon="-1.981606000000003">
        <ele>453.646</ele>
        <time>2022-08-25T12:30:01Z</time>
      </trkpt>
      <trkpt lat="42.665230999999984" lon="-1.9818100000000032">
        <ele>453.468</ele>
        <time>2022-08-25T12:30:03Z</time>
      </trkpt>
      <trkpt lat="42.665216999999984" lon="-1.9818900000000033">
        <ele>453.225</ele>
        <time>2022-08-25T12:30:04Z</time>
      </trkpt>
      <trkpt lat="42.66520099999998" lon="-1.9819860000000034">
        <ele>452.868</ele>
        <time>2022-08-25T12:30:05Z</time>
      </trkpt>
      <trkpt lat="42.665182999999985" lon="-1.9821000000000033">
        <ele>452.654</ele>
        <time>2022-08-25T12:30:06Z</time>
      </trkpt>
      <trkpt lat="42.66516999999998" lon="-1.9821940000000033">
        <ele>452.215</ele>
        <time>2022-08-25T12:30:07Z</time>
      </trkpt>
      <trkpt lat="42.66515699999998" lon="-1.9822880000000034">
        <ele>452.073</ele>
        <time>2022-08-25T12:30:08Z</time>
      </trkpt>
      <trkpt lat="42.665146999999976" lon="-1.9823620000000033">
        <ele>451.885</ele>
        <time>2022-08-25T12:30:09Z</time>
      </trkpt>
      <trkpt lat="42.66512899999998" lon="-1.9824730000000033">
        <ele>451.413</ele>
        <time>2022-08-25T12:30:10Z</time>
      </trkpt>
      <trkpt lat="42.66507299999998" lon="-1.9828230000000033">
        <ele>450.409</ele>
        <time>2022-08-25T12:30:14Z</time>
      </trkpt>
      <trkpt lat="42.665056999999976" lon="-1.9829320000000032">
        <ele>450.248</ele>
        <time>2022-08-25T12:30:15Z</time>
      </trkpt>
      <trkpt lat="42.66496299999998" lon="-1.9835660000000033">
        <ele>449.458</ele>
        <time>2022-08-25T12:30:22Z</time>
      </trkpt>
      <trkpt lat="42.66484799999998" lon="-1.9842780000000033">
        <ele>448.088</ele>
        <time>2022-08-25T12:30:29Z</time>
      </trkpt>
      <trkpt lat="42.664803999999975" lon="-1.9845660000000034">
        <ele>446.834</ele>
        <time>2022-08-25T12:30:32Z</time>
      </trkpt>
      <trkpt lat="42.664786999999976" lon="-1.9846720000000033">
        <ele>446.696</ele>
        <time>2022-08-25T12:30:33Z</time>
      </trkpt>
      <trkpt lat="42.66473599999998" lon="-1.9849950000000034">
        <ele>445.833</ele>
        <time>2022-08-25T12:30:36Z</time>
      </trkpt>
      <trkpt lat="42.664699999999975" lon="-1.9852120000000033">
        <ele>444.656</ele>
        <time>2022-08-25T12:30:38Z</time>
      </trkpt>
      <trkpt lat="42.664648999999976" lon="-1.9855420000000032">
        <ele>443.262</ele>
        <time>2022-08-25T12:30:41Z</time>
      </trkpt>
      <trkpt lat="42.664612999999974" lon="-1.9857760000000033">
        <ele>442.053</ele>
        <time>2022-08-25T12:30:43Z</time>
      </trkpt>
      <trkpt lat="42.66459699999997" lon="-1.9858790000000033">
        <ele>441.237</ele>
        <time>2022-08-25T12:30:44Z</time>
      </trkpt>
      <trkpt lat="42.664581999999974" lon="-1.9859790000000033">
        <ele>440.849</ele>
        <time>2022-08-25T12:30:45Z</time>
      </trkpt>
      <trkpt lat="42.66457199999997" lon="-1.9860570000000033">
        <ele>440.413</ele>
        <time>2022-08-25T12:30:46Z</time>
      </trkpt>
      <trkpt lat="42.664556999999974" lon="-1.9861500000000032">
        <ele>440.209</ele>
        <time>2022-08-25T12:30:47Z</time>
      </trkpt>
      <trkpt lat="42.664539999999974" lon="-1.9862600000000032">
        <ele>439.854</ele>
        <time>2022-08-25T12:30:48Z</time>
      </trkpt>
      <trkpt lat="42.664527999999976" lon="-1.9863500000000032">
        <ele>439.634</ele>
        <time>2022-08-25T12:30:49Z</time>
      </trkpt>
      <trkpt lat="42.66451499999997" lon="-1.9864360000000032">
        <ele>439.234</ele>
        <time>2022-08-25T12:30:50Z</time>
      </trkpt>
      <trkpt lat="42.66450499999997" lon="-1.9865040000000032">
        <ele>439.070</ele>
        <time>2022-08-25T12:30:51Z</time>
      </trkpt>
      <trkpt lat="42.66449099999997" lon="-1.986605000000003">
        <ele>439.072</ele>
        <time>2022-08-25T12:30:52Z</time>
      </trkpt>
      <trkpt lat="42.66447699999997" lon="-1.986691000000003">
        <ele>438.819</ele>
        <time>2022-08-25T12:30:53Z</time>
      </trkpt>
      <trkpt lat="42.66445999999997" lon="-1.986775000000003">
        <ele>438.622</ele>
        <time>2022-08-25T12:30:54Z</time>
      </trkpt>
      <trkpt lat="42.66444999999997" lon="-1.986841000000003">
        <ele>438.298</ele>
        <time>2022-08-25T12:30:55Z</time>
      </trkpt>
      <trkpt lat="42.664436999999964" lon="-1.986921000000003">
        <ele>438.089</ele>
        <time>2022-08-25T12:30:56Z</time>
      </trkpt>
      <trkpt lat="42.66434499999996" lon="-1.987502000000003">
        <ele>437.414</ele>
        <time>2022-08-25T12:31:03Z</time>
      </trkpt>
      <trkpt lat="42.66433199999996" lon="-1.987582000000003">
        <ele>437.454</ele>
        <time>2022-08-25T12:31:04Z</time>
      </trkpt>
      <trkpt lat="42.66431999999996" lon="-1.987663000000003">
        <ele>437.409</ele>
        <time>2022-08-25T12:31:05Z</time>
      </trkpt>
      <trkpt lat="42.66430899999996" lon="-1.9877430000000031">
        <ele>437.409</ele>
        <time>2022-08-25T12:31:06Z</time>
      </trkpt>
      <trkpt lat="42.66430099999996" lon="-1.9878190000000031">
        <ele>437.482</ele>
        <time>2022-08-25T12:31:07Z</time>
      </trkpt>
      <trkpt lat="42.66428999999996" lon="-1.987909000000003">
        <ele>437.272</ele>
        <time>2022-08-25T12:31:08Z</time>
      </trkpt>
      <trkpt lat="42.66426899999996" lon="-1.988048000000003">
        <ele>437.222</ele>
        <time>2022-08-25T12:31:10Z</time>
      </trkpt>
      <trkpt lat="42.66425299999996" lon="-1.988137000000003">
        <ele>437.238</ele>
        <time>2022-08-25T12:31:11Z</time>
      </trkpt>
      <trkpt lat="42.66424199999996" lon="-1.988207000000003">
        <ele>437.260</ele>
        <time>2022-08-25T12:31:12Z</time>
      </trkpt>
      <trkpt lat="42.66422999999996" lon="-1.988279000000003">
        <ele>437.247</ele>
        <time>2022-08-25T12:31:13Z</time>
      </trkpt>
      <trkpt lat="42.66421899999996" lon="-1.988350000000003">
        <ele>437.270</ele>
        <time>2022-08-25T12:31:14Z</time>
      </trkpt>
      <trkpt lat="42.66421099999996" lon="-1.988403000000003">
        <ele>437.236</ele>
        <time>2022-08-25T12:31:15Z</time>
      </trkpt>
      <trkpt lat="42.66419699999996" lon="-1.988481000000003">
        <ele>437.257</ele>
        <time>2022-08-25T12:31:16Z</time>
      </trkpt>
      <trkpt lat="42.66418599999996" lon="-1.988532000000003">
        <ele>437.474</ele>
        <time>2022-08-25T12:31:17Z</time>
      </trkpt>
      <trkpt lat="42.664169999999956" lon="-1.9886070000000031">
        <ele>437.456</ele>
        <time>2022-08-25T12:31:18Z</time>
      </trkpt>
      <trkpt lat="42.66415999999995" lon="-1.9886580000000031">
        <ele>437.621</ele>
        <time>2022-08-25T12:31:19Z</time>
      </trkpt>
      <trkpt lat="42.66414999999995" lon="-1.988721000000003">
        <ele>437.209</ele>
        <time>2022-08-25T12:31:20Z</time>
      </trkpt>
      <trkpt lat="42.664139999999946" lon="-1.988795000000003">
        <ele>437.288</ele>
        <time>2022-08-25T12:31:21Z</time>
      </trkpt>
      <trkpt lat="42.66411699999995" lon="-1.9889690000000029">
        <ele>437.228</ele>
        <time>2022-08-25T12:31:24Z</time>
      </trkpt>
      <trkpt lat="42.664027999999945" lon="-1.9895040000000028">
        <ele>436.478</ele>
        <time>2022-08-25T12:31:31Z</time>
      </trkpt>
      <trkpt lat="42.66401599999995" lon="-1.9895770000000028">
        <ele>436.274</ele>
        <time>2022-08-25T12:31:32Z</time>
      </trkpt>
      <trkpt lat="42.66394499999995" lon="-1.9900560000000027">
        <ele>435.226</ele>
        <time>2022-08-25T12:31:37Z</time>
      </trkpt>
      <trkpt lat="42.66391599999995" lon="-1.9902540000000026">
        <ele>434.863</ele>
        <time>2022-08-25T12:31:39Z</time>
      </trkpt>
      <trkpt lat="42.66388699999995" lon="-1.9904450000000027">
        <ele>434.436</ele>
        <time>2022-08-25T12:31:41Z</time>
      </trkpt>
      <trkpt lat="42.663874999999955" lon="-1.9905360000000027">
        <ele>434.442</ele>
        <time>2022-08-25T12:31:42Z</time>
      </trkpt>
      <trkpt lat="42.66386299999996" lon="-1.9906240000000028">
        <ele>434.073</ele>
        <time>2022-08-25T12:31:43Z</time>
      </trkpt>
      <trkpt lat="42.66385099999996" lon="-1.9907090000000027">
        <ele>433.887</ele>
        <time>2022-08-25T12:31:44Z</time>
      </trkpt>
      <trkpt lat="42.66383699999996" lon="-1.9907940000000026">
        <ele>433.642</ele>
        <time>2022-08-25T12:31:45Z</time>
      </trkpt>
      <trkpt lat="42.66382299999996" lon="-1.9908780000000026">
        <ele>433.026</ele>
        <time>2022-08-25T12:31:46Z</time>
      </trkpt>
      <trkpt lat="42.66381199999996" lon="-1.9909580000000027">
        <ele>432.809</ele>
        <time>2022-08-25T12:31:47Z</time>
      </trkpt>
      <trkpt lat="42.66379999999996" lon="-1.9910370000000026">
        <ele>432.629</ele>
        <time>2022-08-25T12:31:48Z</time>
      </trkpt>
      <trkpt lat="42.66378499999996" lon="-1.9911160000000026">
        <ele>432.479</ele>
        <time>2022-08-25T12:31:49Z</time>
      </trkpt>
      <trkpt lat="42.66376799999996" lon="-1.9911940000000026">
        <ele>432.439</ele>
        <time>2022-08-25T12:31:50Z</time>
      </trkpt>
      <trkpt lat="42.663676999999964" lon="-1.9915000000000025">
        <ele>431.875</ele>
        <time>2022-08-25T12:31:54Z</time>
      </trkpt>
      <trkpt lat="42.66365299999996" lon="-1.9915720000000026">
        <ele>431.667</ele>
        <time>2022-08-25T12:31:55Z</time>
      </trkpt>
      <trkpt lat="42.66362599999996" lon="-1.9916440000000026">
        <ele>431.454</ele>
        <time>2022-08-25T12:31:56Z</time>
      </trkpt>
      <trkpt lat="42.66359799999996" lon="-1.9917140000000026">
        <ele>431.427</ele>
        <time>2022-08-25T12:31:57Z</time>
      </trkpt>
      <trkpt lat="42.66357199999996" lon="-1.9917800000000025">
        <ele>431.253</ele>
        <time>2022-08-25T12:31:58Z</time>
      </trkpt>
      <trkpt lat="42.66354499999996" lon="-1.9918410000000026">
        <ele>431.234</ele>
        <time>2022-08-25T12:31:59Z</time>
      </trkpt>
      <trkpt lat="42.663519999999956" lon="-1.9919010000000026">
        <ele>431.256</ele>
        <time>2022-08-25T12:32:00Z</time>
      </trkpt>
      <trkpt lat="42.66349399999996" lon="-1.9919570000000026">
        <ele>431.059</ele>
        <time>2022-08-25T12:32:01Z</time>
      </trkpt>
      <trkpt lat="42.66346799999996" lon="-1.9920110000000026">
        <ele>431.014</ele>
        <time>2022-08-25T12:32:02Z</time>
      </trkpt>
      <trkpt lat="42.663440999999956" lon="-1.9920630000000026">
        <ele>431.009</ele>
        <time>2022-08-25T12:32:03Z</time>
      </trkpt>
      <trkpt lat="42.663410999999954" lon="-1.9921260000000025">
        <ele>431.026</ele>
        <time>2022-08-25T12:32:04Z</time>
      </trkpt>
      <trkpt lat="42.663390999999955" lon="-1.9921640000000025">
        <ele>431.266</ele>
        <time>2022-08-25T12:32:05Z</time>
      </trkpt>
      <trkpt lat="42.663367999999956" lon="-1.9922090000000026">
        <ele>431.226</ele>
        <time>2022-08-25T12:32:06Z</time>
      </trkpt>
      <trkpt lat="42.663345999999954" lon="-1.9922520000000026">
        <ele>431.262</ele>
        <time>2022-08-25T12:32:07Z</time>
      </trkpt>
      <trkpt lat="42.663319999999956" lon="-1.9923000000000026">
        <ele>431.224</ele>
        <time>2022-08-25T12:32:08Z</time>
      </trkpt>
      <trkpt lat="42.66330799999996" lon="-1.9923270000000026">
        <ele>431.291</ele>
        <time>2022-08-25T12:32:09Z</time>
      </trkpt>
      <trkpt lat="42.66328799999996" lon="-1.9923670000000027">
        <ele>431.494</ele>
        <time>2022-08-25T12:32:10Z</time>
      </trkpt>
      <trkpt lat="42.66327299999996" lon="-1.9923930000000027">
        <ele>431.460</ele>
        <time>2022-08-25T12:32:11Z</time>
      </trkpt>
      <trkpt lat="42.66325399999996" lon="-1.9924260000000027">
        <ele>431.651</ele>
        <time>2022-08-25T12:32:12Z</time>
      </trkpt>
      <trkpt lat="42.66323399999996" lon="-1.9924650000000026">
        <ele>431.863</ele>
        <time>2022-08-25T12:32:13Z</time>
      </trkpt>
      <trkpt lat="42.66321999999996" lon="-1.9924940000000027">
        <ele>432.044</ele>
        <time>2022-08-25T12:32:14Z</time>
      </trkpt>
      <trkpt lat="42.66321099999996" lon="-1.9925170000000028">
        <ele>432.218</ele>
        <time>2022-08-25T12:32:15Z</time>
      </trkpt>
      <trkpt lat="42.66319699999996" lon="-1.9925450000000027">
        <ele>432.209</ele>
        <time>2022-08-25T12:32:16Z</time>
      </trkpt>
      <trkpt lat="42.66318299999996" lon="-1.9925770000000027">
        <ele>432.457</ele>
        <time>2022-08-25T12:32:17Z</time>
      </trkpt>
      <trkpt lat="42.663175999999964" lon="-1.9925980000000028">
        <ele>432.437</ele>
        <time>2022-08-25T12:32:18Z</time>
      </trkpt>
      <trkpt lat="42.66316099999997" lon="-1.9926290000000026">
        <ele>432.467</ele>
        <time>2022-08-25T12:32:19Z</time>
      </trkpt>
      <trkpt lat="42.663149999999966" lon="-1.9926470000000027">
        <ele>432.633</ele>
        <time>2022-08-25T12:32:20Z</time>
      </trkpt>
      <trkpt lat="42.663133999999964" lon="-1.9926700000000028">
        <ele>432.865</ele>
        <time>2022-08-25T12:32:21Z</time>
      </trkpt>
      <trkpt lat="42.663116999999964" lon="-1.9926980000000027">
        <ele>433.062</ele>
        <time>2022-08-25T12:32:22Z</time>
      </trkpt>
      <trkpt lat="42.663102999999964" lon="-1.9927210000000029">
        <ele>433.075</ele>
        <time>2022-08-25T12:32:23Z</time>
      </trkpt>
      <trkpt lat="42.66309499999996" lon="-1.9927380000000028">
        <ele>433.231</ele>
        <time>2022-08-25T12:32:24Z</time>
      </trkpt>
      <trkpt lat="42.66308399999996" lon="-1.992761000000003">
        <ele>433.442</ele>
        <time>2022-08-25T12:32:25Z</time>
      </trkpt>
      <trkpt lat="42.663074999999964" lon="-1.992787000000003">
        <ele>433.666</ele>
        <time>2022-08-25T12:32:26Z</time>
      </trkpt>
      <trkpt lat="42.66306499999996" lon="-1.992812000000003">
        <ele>433.629</ele>
        <time>2022-08-25T12:32:27Z</time>
      </trkpt>
      <trkpt lat="42.66305599999996" lon="-1.9928340000000029">
        <ele>433.621</ele>
        <time>2022-08-25T12:32:28Z</time>
      </trkpt>
      <trkpt lat="42.663048999999965" lon="-1.9928560000000028">
        <ele>434.009</ele>
        <time>2022-08-25T12:32:29Z</time>
      </trkpt>
      <trkpt lat="42.663042999999966" lon="-1.9928780000000028">
        <ele>434.237</ele>
        <time>2022-08-25T12:32:30Z</time>
      </trkpt>
      <trkpt lat="42.663040999999964" lon="-1.9929000000000028">
        <ele>434.467</ele>
        <time>2022-08-25T12:32:31Z</time>
      </trkpt>
      <trkpt lat="42.66303899999996" lon="-1.9929230000000029">
        <ele>434.657</ele>
        <time>2022-08-25T12:32:32Z</time>
      </trkpt>
      <trkpt lat="42.663037999999965" lon="-1.992946000000003">
        <ele>434.643</ele>
        <time>2022-08-25T12:32:33Z</time>
      </trkpt>
      <trkpt lat="42.663037999999965" lon="-1.992971000000003">
        <ele>434.825</ele>
        <time>2022-08-25T12:32:34Z</time>
      </trkpt>
      <trkpt lat="42.663040999999964" lon="-1.992986000000003">
        <ele>435.022</ele>
        <time>2022-08-25T12:32:35Z</time>
      </trkpt>
      <trkpt lat="42.663042999999966" lon="-1.993004000000003">
        <ele>435.245</ele>
        <time>2022-08-25T12:32:36Z</time>
      </trkpt>
      <trkpt lat="42.663045999999966" lon="-1.9930280000000031">
        <ele>435.041</ele>
        <time>2022-08-25T12:32:37Z</time>
      </trkpt>
      <trkpt lat="42.663048999999965" lon="-1.993045000000003">
        <ele>435.472</ele>
        <time>2022-08-25T12:32:38Z</time>
      </trkpt>
      <trkpt lat="42.66305299999996" lon="-1.993057000000003">
        <ele>435.615</ele>
        <time>2022-08-25T12:32:39Z</time>
      </trkpt>
      <trkpt lat="42.663057999999964" lon="-1.993073000000003">
        <ele>435.865</ele>
        <time>2022-08-25T12:32:40Z</time>
      </trkpt>
      <trkpt lat="42.663062999999966" lon="-1.993093000000003">
        <ele>436.011</ele>
        <time>2022-08-25T12:32:41Z</time>
      </trkpt>
      <trkpt lat="42.66306199999997" lon="-1.9931070000000028">
        <ele>436.209</ele>
        <time>2022-08-25T12:32:42Z</time>
      </trkpt>
      <trkpt lat="42.66305699999997" lon="-1.9931270000000028">
        <ele>436.212</ele>
        <time>2022-08-25T12:32:43Z</time>
      </trkpt>
      <trkpt lat="42.66304999999997" lon="-1.9931350000000028">
        <ele>436.412</ele>
        <time>2022-08-25T12:32:44Z</time>
      </trkpt>
      <trkpt lat="42.66304199999997" lon="-1.9931420000000029">
        <ele>436.442</ele>
        <time>2022-08-25T12:32:45Z</time>
      </trkpt>
      <trkpt lat="42.66303299999997" lon="-1.9931480000000028">
        <ele>436.488</ele>
        <time>2022-08-25T12:32:46Z</time>
      </trkpt>
      <trkpt lat="42.66301999999997" lon="-1.9931590000000028">
        <ele>436.470</ele>
        <time>2022-08-25T12:32:47Z</time>
      </trkpt>
      <trkpt lat="42.663009999999964" lon="-1.9931730000000027">
        <ele>436.457</ele>
        <time>2022-08-25T12:32:48Z</time>
      </trkpt>
      <trkpt lat="42.66299499999997" lon="-1.9931940000000028">
        <ele>436.450</ele>
        <time>2022-08-25T12:32:49Z</time>
      </trkpt>
      <trkpt lat="42.662969999999966" lon="-1.993217000000003">
        <ele>436.686</ele>
        <time>2022-08-25T12:32:50Z</time>
      </trkpt>
      <trkpt lat="42.662947999999965" lon="-1.9932290000000028">
        <ele>436.647</ele>
        <time>2022-08-25T12:32:51Z</time>
      </trkpt>
      <trkpt lat="42.66291599999997" lon="-1.9932420000000028">
        <ele>436.628</ele>
        <time>2022-08-25T12:32:52Z</time>
      </trkpt>
      <trkpt lat="42.66289299999997" lon="-1.993249000000003">
        <ele>436.489</ele>
        <time>2022-08-25T12:32:53Z</time>
      </trkpt>
      <trkpt lat="42.66286399999997" lon="-1.9932610000000028">
        <ele>436.417</ele>
        <time>2022-08-25T12:32:54Z</time>
      </trkpt>
      <trkpt lat="42.66283399999997" lon="-1.9932820000000029">
        <ele>436.409</ele>
        <time>2022-08-25T12:32:55Z</time>
      </trkpt>
      <trkpt lat="42.66281099999997" lon="-1.993298000000003">
        <ele>436.613</ele>
        <time>2022-08-25T12:32:56Z</time>
      </trkpt>
      <trkpt lat="42.66279699999997" lon="-1.9933120000000029">
        <ele>436.643</ele>
        <time>2022-08-25T12:32:57Z</time>
      </trkpt>
      <trkpt lat="42.66277999999997" lon="-1.9933320000000028">
        <ele>436.643</ele>
        <time>2022-08-25T12:32:58Z</time>
      </trkpt>
      <trkpt lat="42.66276399999997" lon="-1.9933530000000028">
        <ele>436.619</ele>
        <time>2022-08-25T12:32:59Z</time>
      </trkpt>
      <trkpt lat="42.662750999999965" lon="-1.993376000000003">
        <ele>436.621</ele>
        <time>2022-08-25T12:33:00Z</time>
      </trkpt>
      <trkpt lat="42.662738999999966" lon="-1.993400000000003">
        <ele>436.838</ele>
        <time>2022-08-25T12:33:01Z</time>
      </trkpt>
      <trkpt lat="42.662727999999966" lon="-1.993421000000003">
        <ele>436.811</ele>
        <time>2022-08-25T12:33:02Z</time>
      </trkpt>
      <trkpt lat="42.662668999999966" lon="-1.993523000000003">
        <ele>436.837</ele>
        <time>2022-08-25T12:33:06Z</time>
      </trkpt>
      <trkpt lat="42.66263199999997" lon="-1.993596000000003">
        <ele>437.258</ele>
        <time>2022-08-25T12:33:09Z</time>
      </trkpt>
      <trkpt lat="42.66261999999997" lon="-1.9936220000000031">
        <ele>437.456</ele>
        <time>2022-08-25T12:33:10Z</time>
      </trkpt>
      <trkpt lat="42.662606999999966" lon="-1.993647000000003">
        <ele>437.459</ele>
        <time>2022-08-25T12:33:11Z</time>
      </trkpt>
      <trkpt lat="42.66258299999996" lon="-1.9936970000000032">
        <ele>437.414</ele>
        <time>2022-08-25T12:33:13Z</time>
      </trkpt>
      <trkpt lat="42.66256999999996" lon="-1.993725000000003">
        <ele>437.409</ele>
        <time>2022-08-25T12:33:14Z</time>
      </trkpt>
      <trkpt lat="42.66255699999996" lon="-1.9937510000000032">
        <ele>437.666</ele>
        <time>2022-08-25T12:33:15Z</time>
      </trkpt>
      <trkpt lat="42.66252899999996" lon="-1.9938000000000031">
        <ele>437.646</ele>
        <time>2022-08-25T12:33:17Z</time>
      </trkpt>
      <trkpt lat="42.662514999999956" lon="-1.993830000000003">
        <ele>437.816</ele>
        <time>2022-08-25T12:33:18Z</time>
      </trkpt>
      <trkpt lat="42.66250799999996" lon="-1.993849000000003">
        <ele>437.862</ele>
        <time>2022-08-25T12:33:19Z</time>
      </trkpt>
      <trkpt lat="42.66249399999996" lon="-1.993877000000003">
        <ele>438.024</ele>
        <time>2022-08-25T12:33:20Z</time>
      </trkpt>
      <trkpt lat="42.66248499999996" lon="-1.993895000000003">
        <ele>438.091</ele>
        <time>2022-08-25T12:33:21Z</time>
      </trkpt>
      <trkpt lat="42.66247299999996" lon="-1.9939180000000032">
        <ele>438.064</ele>
        <time>2022-08-25T12:33:22Z</time>
      </trkpt>
      <trkpt lat="42.66245899999996" lon="-1.9939430000000031">
        <ele>438.260</ele>
        <time>2022-08-25T12:33:23Z</time>
      </trkpt>
      <trkpt lat="42.662446999999965" lon="-1.9939660000000032">
        <ele>438.271</ele>
        <time>2022-08-25T12:33:24Z</time>
      </trkpt>
      <trkpt lat="42.66243699999996" lon="-1.9939850000000032">
        <ele>438.236</ele>
        <time>2022-08-25T12:33:25Z</time>
      </trkpt>
      <trkpt lat="42.66242399999996" lon="-1.9940090000000033">
        <ele>438.417</ele>
        <time>2022-08-25T12:33:26Z</time>
      </trkpt>
      <trkpt lat="42.66237599999996" lon="-1.9941370000000032">
        <ele>439.018</ele>
        <time>2022-08-25T12:33:31Z</time>
      </trkpt>
      <trkpt lat="42.662365999999956" lon="-1.994162000000003">
        <ele>439.009</ele>
        <time>2022-08-25T12:33:32Z</time>
      </trkpt>
      <trkpt lat="42.66235699999996" lon="-1.994182000000003">
        <ele>439.084</ele>
        <time>2022-08-25T12:33:33Z</time>
      </trkpt>
      <trkpt lat="42.66234599999996" lon="-1.994202000000003">
        <ele>439.214</ele>
        <time>2022-08-25T12:33:34Z</time>
      </trkpt>
      <trkpt lat="42.66233699999996" lon="-1.9942190000000029">
        <ele>439.244</ele>
        <time>2022-08-25T12:33:35Z</time>
      </trkpt>
      <trkpt lat="42.66232499999996" lon="-1.994240000000003">
        <ele>439.460</ele>
        <time>2022-08-25T12:33:36Z</time>
      </trkpt>
      <trkpt lat="42.66231399999996" lon="-1.9942570000000028">
        <ele>439.612</ele>
        <time>2022-08-25T12:33:37Z</time>
      </trkpt>
      <trkpt lat="42.66230199999996" lon="-1.9942730000000028">
        <ele>439.689</ele>
        <time>2022-08-25T12:33:38Z</time>
      </trkpt>
      <trkpt lat="42.66225799999996" lon="-1.9943650000000028">
        <ele>440.022</ele>
        <time>2022-08-25T12:33:42Z</time>
      </trkpt>
      <trkpt lat="42.66223699999996" lon="-1.9944090000000028">
        <ele>440.298</ele>
        <time>2022-08-25T12:33:44Z</time>
      </trkpt>
      <trkpt lat="42.662204999999965" lon="-1.9944880000000027">
        <ele>440.619</ele>
        <time>2022-08-25T12:33:47Z</time>
      </trkpt>
      <trkpt lat="42.66219199999996" lon="-1.9945120000000027">
        <ele>440.646</ele>
        <time>2022-08-25T12:33:48Z</time>
      </trkpt>
      <trkpt lat="42.66218399999996" lon="-1.9945300000000028">
        <ele>440.888</ele>
        <time>2022-08-25T12:33:49Z</time>
      </trkpt>
      <trkpt lat="42.662176999999964" lon="-1.9945560000000029">
        <ele>441.016</ele>
        <time>2022-08-25T12:33:50Z</time>
      </trkpt>
      <trkpt lat="42.66216899999996" lon="-1.9945830000000029">
        <ele>441.209</ele>
        <time>2022-08-25T12:33:51Z</time>
      </trkpt>
      <trkpt lat="42.662159999999965" lon="-1.9946080000000028">
        <ele>441.255</ele>
        <time>2022-08-25T12:33:52Z</time>
      </trkpt>
      <trkpt lat="42.662153999999965" lon="-1.9946320000000028">
        <ele>441.455</ele>
        <time>2022-08-25T12:33:53Z</time>
      </trkpt>
      <trkpt lat="42.662148999999964" lon="-1.9946560000000029">
        <ele>441.635</ele>
        <time>2022-08-25T12:33:54Z</time>
      </trkpt>
      <trkpt lat="42.662145999999964" lon="-1.9946780000000028">
        <ele>441.681</ele>
        <time>2022-08-25T12:33:55Z</time>
      </trkpt>
      <trkpt lat="42.662136999999966" lon="-1.9947050000000028">
        <ele>441.823</ele>
        <time>2022-08-25T12:33:56Z</time>
      </trkpt>
      <trkpt lat="42.66212699999996" lon="-1.9947290000000029">
        <ele>442.070</ele>
        <time>2022-08-25T12:33:57Z</time>
      </trkpt>
      <trkpt lat="42.662117999999964" lon="-1.994755000000003">
        <ele>442.063</ele>
        <time>2022-08-25T12:33:58Z</time>
      </trkpt>
      <trkpt lat="42.662111999999965" lon="-1.9947800000000029">
        <ele>442.269</ele>
        <time>2022-08-25T12:33:59Z</time>
      </trkpt>
      <trkpt lat="42.662103999999964" lon="-1.994809000000003">
        <ele>442.240</ele>
        <time>2022-08-25T12:34:00Z</time>
      </trkpt>
      <trkpt lat="42.662094999999965" lon="-1.994835000000003">
        <ele>442.229</ele>
        <time>2022-08-25T12:34:01Z</time>
      </trkpt>
      <trkpt lat="42.66208499999996" lon="-1.994862000000003">
        <ele>442.400</ele>
        <time>2022-08-25T12:34:02Z</time>
      </trkpt>
      <trkpt lat="42.66207899999996" lon="-1.994882000000003">
        <ele>442.620</ele>
        <time>2022-08-25T12:34:03Z</time>
      </trkpt>
      <trkpt lat="42.662072999999964" lon="-1.994908000000003">
        <ele>442.809</ele>
        <time>2022-08-25T12:34:04Z</time>
      </trkpt>
      <trkpt lat="42.66206799999996" lon="-1.994933000000003">
        <ele>442.873</ele>
        <time>2022-08-25T12:34:05Z</time>
      </trkpt>
      <trkpt lat="42.66206199999996" lon="-1.994959000000003">
        <ele>443.023</ele>
        <time>2022-08-25T12:34:06Z</time>
      </trkpt>
      <trkpt lat="42.66205999999996" lon="-1.9949820000000031">
        <ele>443.063</ele>
        <time>2022-08-25T12:34:07Z</time>
      </trkpt>
      <trkpt lat="42.66205699999996" lon="-1.9950010000000031">
        <ele>443.279</ele>
        <time>2022-08-25T12:34:08Z</time>
      </trkpt>
      <trkpt lat="42.66205499999996" lon="-1.9950250000000032">
        <ele>443.481</ele>
        <time>2022-08-25T12:34:09Z</time>
      </trkpt>
      <trkpt lat="42.66205299999996" lon="-1.9950540000000032">
        <ele>443.458</ele>
        <time>2022-08-25T12:34:10Z</time>
      </trkpt>
      <trkpt lat="42.662053999999955" lon="-1.9950740000000031">
        <ele>443.651</ele>
        <time>2022-08-25T12:34:11Z</time>
      </trkpt>
      <trkpt lat="42.66205599999996" lon="-1.9950970000000032">
        <ele>443.687</ele>
        <time>2022-08-25T12:34:12Z</time>
      </trkpt>
      <trkpt lat="42.662059999999954" lon="-1.9951180000000033">
        <ele>443.868</ele>
        <time>2022-08-25T12:34:13Z</time>
      </trkpt>
      <trkpt lat="42.66206399999995" lon="-1.9951410000000034">
        <ele>443.826</ele>
        <time>2022-08-25T12:34:14Z</time>
      </trkpt>
      <trkpt lat="42.66206799999995" lon="-1.9951640000000035">
        <ele>444.047</ele>
        <time>2022-08-25T12:34:15Z</time>
      </trkpt>
      <trkpt lat="42.662074999999945" lon="-1.9951930000000035">
        <ele>444.211</ele>
        <time>2022-08-25T12:34:16Z</time>
      </trkpt>
      <trkpt lat="42.662082999999946" lon="-1.9952120000000035">
        <ele>444.409</ele>
        <time>2022-08-25T12:34:17Z</time>
      </trkpt>
      <trkpt lat="42.662091999999944" lon="-1.9952340000000035">
        <ele>444.683</ele>
        <time>2022-08-25T12:34:18Z</time>
      </trkpt>
      <trkpt lat="42.66210399999994" lon="-1.9952580000000035">
        <ele>444.613</ele>
        <time>2022-08-25T12:34:19Z</time>
      </trkpt>
      <trkpt lat="42.662111999999944" lon="-1.9952810000000036">
        <ele>445.023</ele>
        <time>2022-08-25T12:34:20Z</time>
      </trkpt>
      <trkpt lat="42.66211499999994" lon="-1.9953030000000036">
        <ele>445.249</ele>
        <time>2022-08-25T12:34:21Z</time>
      </trkpt>
      <trkpt lat="42.66211299999994" lon="-1.9953300000000036">
        <ele>445.241</ele>
        <time>2022-08-25T12:34:22Z</time>
      </trkpt>
      <trkpt lat="42.66210399999994" lon="-1.9953600000000036">
        <ele>445.438</ele>
        <time>2022-08-25T12:34:23Z</time>
      </trkpt>
      <trkpt lat="42.66209299999994" lon="-1.9953810000000036">
        <ele>445.661</ele>
        <time>2022-08-25T12:34:24Z</time>
      </trkpt>
      <trkpt lat="42.66207699999994" lon="-1.9954090000000035">
        <ele>445.857</ele>
        <time>2022-08-25T12:34:25Z</time>
      </trkpt>
      <trkpt lat="42.66206599999994" lon="-1.9954260000000035">
        <ele>446.028</ele>
        <time>2022-08-25T12:34:26Z</time>
      </trkpt>
      <trkpt lat="42.66205099999994" lon="-1.9954510000000034">
        <ele>446.074</ele>
        <time>2022-08-25T12:34:27Z</time>
      </trkpt>
      <trkpt lat="42.66203399999994" lon="-1.9954810000000034">
        <ele>446.256</ele>
        <time>2022-08-25T12:34:28Z</time>
      </trkpt>
      <trkpt lat="42.66201999999994" lon="-1.9955100000000034">
        <ele>446.221</ele>
        <time>2022-08-25T12:34:29Z</time>
      </trkpt>
      <trkpt lat="42.66200799999994" lon="-1.9955340000000035">
        <ele>446.409</ele>
        <time>2022-08-25T12:34:30Z</time>
      </trkpt>
      <trkpt lat="42.66199399999994" lon="-1.9955660000000035">
        <ele>446.478</ele>
        <time>2022-08-25T12:34:31Z</time>
      </trkpt>
      <trkpt lat="42.66198299999994" lon="-1.9956000000000036">
        <ele>446.448</ele>
        <time>2022-08-25T12:34:32Z</time>
      </trkpt>
      <trkpt lat="42.66197199999994" lon="-1.9956340000000037">
        <ele>446.478</ele>
        <time>2022-08-25T12:34:33Z</time>
      </trkpt>
      <trkpt lat="42.66196299999994" lon="-1.9956710000000037">
        <ele>446.474</ele>
        <time>2022-08-25T12:34:34Z</time>
      </trkpt>
      <trkpt lat="42.661956999999944" lon="-1.9957080000000038">
        <ele>446.456</ele>
        <time>2022-08-25T12:34:35Z</time>
      </trkpt>
      <trkpt lat="42.66195599999995" lon="-1.9957450000000039">
        <ele>446.423</ele>
        <time>2022-08-25T12:34:36Z</time>
      </trkpt>
      <trkpt lat="42.661956999999944" lon="-1.9957840000000038">
        <ele>446.486</ele>
        <time>2022-08-25T12:34:37Z</time>
      </trkpt>
      <trkpt lat="42.661958999999946" lon="-1.9958220000000038">
        <ele>446.462</ele>
        <time>2022-08-25T12:34:38Z</time>
      </trkpt>
      <trkpt lat="42.661959999999944" lon="-1.9958650000000038">
        <ele>446.473</ele>
        <time>2022-08-25T12:34:39Z</time>
      </trkpt>
      <trkpt lat="42.661958999999946" lon="-1.9958920000000038">
        <ele>446.455</ele>
        <time>2022-08-25T12:34:40Z</time>
      </trkpt>
      <trkpt lat="42.66195799999995" lon="-1.9959260000000039">
        <ele>446.407</ele>
        <time>2022-08-25T12:34:41Z</time>
      </trkpt>
      <trkpt lat="42.66195499999995" lon="-1.995968000000004">
        <ele>446.417</ele>
        <time>2022-08-25T12:34:42Z</time>
      </trkpt>
      <trkpt lat="42.66195199999995" lon="-1.995997000000004">
        <ele>446.409</ele>
        <time>2022-08-25T12:34:43Z</time>
      </trkpt>
      <trkpt lat="42.66194899999995" lon="-1.996038000000004">
        <ele>446.446</ele>
        <time>2022-08-25T12:34:44Z</time>
      </trkpt>
      <trkpt lat="42.66194799999995" lon="-1.996067000000004">
        <ele>446.666</ele>
        <time>2022-08-25T12:34:45Z</time>
      </trkpt>
      <trkpt lat="42.66191799999995" lon="-1.996470000000004">
        <ele>446.826</ele>
        <time>2022-08-25T12:34:56Z</time>
      </trkpt>
      <trkpt lat="42.66191599999995" lon="-1.996511000000004">
        <ele>446.882</ele>
        <time>2022-08-25T12:34:57Z</time>
      </trkpt>
      <trkpt lat="42.66191199999995" lon="-1.996584000000004">
        <ele>447.054</ele>
        <time>2022-08-25T12:34:59Z</time>
      </trkpt>
      <trkpt lat="42.66190899999995" lon="-1.996621000000004">
        <ele>447.021</ele>
        <time>2022-08-25T12:35:00Z</time>
      </trkpt>
      <trkpt lat="42.66190399999995" lon="-1.996656000000004">
        <ele>447.084</ele>
        <time>2022-08-25T12:35:01Z</time>
      </trkpt>
      <trkpt lat="42.66189799999995" lon="-1.996698000000004">
        <ele>447.030</ele>
        <time>2022-08-25T12:35:02Z</time>
      </trkpt>
      <trkpt lat="42.661890999999954" lon="-1.9967590000000042">
        <ele>447.271</ele>
        <time>2022-08-25T12:35:04Z</time>
      </trkpt>
      <trkpt lat="42.661887999999955" lon="-1.9968020000000042">
        <ele>447.283</ele>
        <time>2022-08-25T12:35:05Z</time>
      </trkpt>
      <trkpt lat="42.661884999999955" lon="-1.996838000000004">
        <ele>447.225</ele>
        <time>2022-08-25T12:35:06Z</time>
      </trkpt>
      <trkpt lat="42.661870999999955" lon="-1.9970130000000041">
        <ele>447.417</ele>
        <time>2022-08-25T12:35:11Z</time>
      </trkpt>
      <trkpt lat="42.661867999999956" lon="-1.9971820000000042">
        <ele>447.409</ele>
        <time>2022-08-25T12:35:15Z</time>
      </trkpt>
      <trkpt lat="42.661865999999954" lon="-1.9972120000000042">
        <ele>447.489</ele>
        <time>2022-08-25T12:35:16Z</time>
      </trkpt>
      <trkpt lat="42.66186699999995" lon="-1.9972470000000042">
        <ele>447.429</ele>
        <time>2022-08-25T12:35:17Z</time>
      </trkpt>
      <trkpt lat="42.66186799999995" lon="-1.997278000000004">
        <ele>447.479</ele>
        <time>2022-08-25T12:35:18Z</time>
      </trkpt>
      <trkpt lat="42.66186699999995" lon="-1.997308000000004">
        <ele>447.485</ele>
        <time>2022-08-25T12:35:19Z</time>
      </trkpt>
      <trkpt lat="42.661865999999954" lon="-1.997506000000004">
        <ele>448.277</ele>
        <time>2022-08-25T12:35:24Z</time>
      </trkpt>
      <trkpt lat="42.66186399999995" lon="-1.997544000000004">
        <ele>448.664</ele>
        <time>2022-08-25T12:35:25Z</time>
      </trkpt>
      <trkpt lat="42.66186099999995" lon="-1.997579000000004">
        <ele>448.647</ele>
        <time>2022-08-25T12:35:26Z</time>
      </trkpt>
      <trkpt lat="42.66185899999995" lon="-1.997605000000004">
        <ele>448.823</ele>
        <time>2022-08-25T12:35:27Z</time>
      </trkpt>
      <trkpt lat="42.66185599999995" lon="-1.9976390000000042">
        <ele>449.084</ele>
        <time>2022-08-25T12:35:28Z</time>
      </trkpt>
      <trkpt lat="42.66185499999995" lon="-1.9976730000000043">
        <ele>449.214</ele>
        <time>2022-08-25T12:35:29Z</time>
      </trkpt>
      <trkpt lat="42.66185599999995" lon="-1.9977120000000042">
        <ele>449.454</ele>
        <time>2022-08-25T12:35:30Z</time>
      </trkpt>
      <trkpt lat="42.66185699999995" lon="-1.997745000000004">
        <ele>449.409</ele>
        <time>2022-08-25T12:35:31Z</time>
      </trkpt>
      <trkpt lat="42.661857999999945" lon="-1.9977710000000042">
        <ele>449.409</ele>
        <time>2022-08-25T12:35:32Z</time>
      </trkpt>
      <trkpt lat="42.66185599999994" lon="-1.9978410000000042">
        <ele>449.482</ele>
        <time>2022-08-25T12:35:34Z</time>
      </trkpt>
      <trkpt lat="42.661849999999944" lon="-1.9979930000000041">
        <ele>449.812</ele>
        <time>2022-08-25T12:35:39Z</time>
      </trkpt>
      <trkpt lat="42.661846999999945" lon="-1.998026000000004">
        <ele>449.872</ele>
        <time>2022-08-25T12:35:40Z</time>
      </trkpt>
      <trkpt lat="42.661835999999944" lon="-1.998186000000004">
        <ele>450.058</ele>
        <time>2022-08-25T12:35:45Z</time>
      </trkpt>
      <trkpt lat="42.66182899999995" lon="-1.998334000000004">
        <ele>450.480</ele>
        <time>2022-08-25T12:35:49Z</time>
      </trkpt>
      <trkpt lat="42.661832999999945" lon="-1.998535000000004">
        <ele>451.267</ele>
        <time>2022-08-25T12:35:55Z</time>
      </trkpt>
      <trkpt lat="42.661832999999945" lon="-1.998577000000004">
        <ele>451.250</ele>
        <time>2022-08-25T12:35:56Z</time>
      </trkpt>
      <trkpt lat="42.661835999999944" lon="-1.998644000000004">
        <ele>451.426</ele>
        <time>2022-08-25T12:35:58Z</time>
      </trkpt>
      <trkpt lat="42.661832999999945" lon="-1.998707000000004">
        <ele>451.627</ele>
        <time>2022-08-25T12:36:00Z</time>
      </trkpt>
      <trkpt lat="42.66182899999995" lon="-1.998788000000004">
        <ele>451.852</ele>
        <time>2022-08-25T12:36:02Z</time>
      </trkpt>
      <trkpt lat="42.66183099999995" lon="-1.998851000000004">
        <ele>452.053</ele>
        <time>2022-08-25T12:36:04Z</time>
      </trkpt>
      <trkpt lat="42.66183399999995" lon="-1.9988840000000039">
        <ele>452.208</ele>
        <time>2022-08-25T12:36:05Z</time>
      </trkpt>
      <trkpt lat="42.661837999999946" lon="-1.998956000000004">
        <ele>452.409</ele>
        <time>2022-08-25T12:36:07Z</time>
      </trkpt>
      <trkpt lat="42.661838999999944" lon="-1.998988000000004">
        <ele>452.686</ele>
        <time>2022-08-25T12:36:08Z</time>
      </trkpt>
      <trkpt lat="42.661838999999944" lon="-1.999014000000004">
        <ele>452.676</ele>
        <time>2022-08-25T12:36:09Z</time>
      </trkpt>
      <trkpt lat="42.661837999999946" lon="-1.999123000000004">
        <ele>453.066</ele>
        <time>2022-08-25T12:36:12Z</time>
      </trkpt>
      <trkpt lat="42.661837999999946" lon="-1.999152000000004">
        <ele>453.012</ele>
        <time>2022-08-25T12:36:13Z</time>
      </trkpt>
      <trkpt lat="42.66183699999995" lon="-1.999188000000004">
        <ele>453.094</ele>
        <time>2022-08-25T12:36:14Z</time>
      </trkpt>
      <trkpt lat="42.661837999999946" lon="-1.999232000000004">
        <ele>453.221</ele>
        <time>2022-08-25T12:36:15Z</time>
      </trkpt>
      <trkpt lat="42.66184199999994" lon="-1.999267000000004">
        <ele>453.274</ele>
        <time>2022-08-25T12:36:16Z</time>
      </trkpt>
      <trkpt lat="42.66184299999994" lon="-1.9993050000000039">
        <ele>453.430</ele>
        <time>2022-08-25T12:36:17Z</time>
      </trkpt>
      <trkpt lat="42.66184399999994" lon="-1.9993350000000039">
        <ele>453.481</ele>
        <time>2022-08-25T12:36:18Z</time>
      </trkpt>
      <trkpt lat="42.66184299999994" lon="-1.999375000000004">
        <ele>453.691</ele>
        <time>2022-08-25T12:36:19Z</time>
      </trkpt>
      <trkpt lat="42.66184299999994" lon="-1.999412000000004">
        <ele>453.881</ele>
        <time>2022-08-25T12:36:20Z</time>
      </trkpt>
      <trkpt lat="42.66184599999994" lon="-1.999450000000004">
        <ele>453.819</ele>
        <time>2022-08-25T12:36:21Z</time>
      </trkpt>
      <trkpt lat="42.66184699999994" lon="-1.9994890000000038">
        <ele>453.809</ele>
        <time>2022-08-25T12:36:22Z</time>
      </trkpt>
      <trkpt lat="42.66184699999994" lon="-1.9995280000000037">
        <ele>454.050</ele>
        <time>2022-08-25T12:36:23Z</time>
      </trkpt>
      <trkpt lat="42.66184699999994" lon="-1.9995740000000037">
        <ele>454.040</ele>
        <time>2022-08-25T12:36:24Z</time>
      </trkpt>
      <trkpt lat="42.661847999999935" lon="-1.9996040000000037">
        <ele>454.060</ele>
        <time>2022-08-25T12:36:25Z</time>
      </trkpt>
      <trkpt lat="42.66184599999993" lon="-1.9996520000000038">
        <ele>454.036</ele>
        <time>2022-08-25T12:36:26Z</time>
      </trkpt>
      <trkpt lat="42.66184599999993" lon="-1.9996820000000037">
        <ele>454.268</ele>
        <time>2022-08-25T12:36:27Z</time>
      </trkpt>
      <trkpt lat="42.66184899999993" lon="-1.9997180000000037">
        <ele>454.245</ele>
        <time>2022-08-25T12:36:28Z</time>
      </trkpt>
      <trkpt lat="42.66184899999993" lon="-1.9997610000000037">
        <ele>454.248</ele>
        <time>2022-08-25T12:36:29Z</time>
      </trkpt>
      <trkpt lat="42.66184899999993" lon="-1.9997970000000036">
        <ele>454.464</ele>
        <time>2022-08-25T12:36:30Z</time>
      </trkpt>
      <trkpt lat="42.66183899999993" lon="-1.9999150000000037">
        <ele>454.675</ele>
        <time>2022-08-25T12:36:33Z</time>
      </trkpt>
      <trkpt lat="42.66183799999993" lon="-2.000002000000004">
        <ele>454.827</ele>
        <time>2022-08-25T12:36:35Z</time>
      </trkpt>
      <trkpt lat="42.66183499999993" lon="-2.000184000000004">
        <ele>454.868</ele>
        <time>2022-08-25T12:36:39Z</time>
      </trkpt>
      <trkpt lat="42.66183599999993" lon="-2.000226000000004">
        <ele>455.014</ele>
        <time>2022-08-25T12:36:40Z</time>
      </trkpt>
      <trkpt lat="42.66183399999993" lon="-2.0002590000000042">
        <ele>455.009</ele>
        <time>2022-08-25T12:36:41Z</time>
      </trkpt>
      <trkpt lat="42.66182999999993" lon="-2.000303000000004">
        <ele>455.283</ele>
        <time>2022-08-25T12:36:42Z</time>
      </trkpt>
      <trkpt lat="42.66182499999993" lon="-2.000354000000004">
        <ele>455.263</ele>
        <time>2022-08-25T12:36:43Z</time>
      </trkpt>
      <trkpt lat="42.66181599999993" lon="-2.000575000000004">
        <ele>455.243</ele>
        <time>2022-08-25T12:36:48Z</time>
      </trkpt>
      <trkpt lat="42.66180099999993" lon="-2.000846000000004">
        <ele>455.259</ele>
        <time>2022-08-25T12:36:54Z</time>
      </trkpt>
      <trkpt lat="42.661794999999934" lon="-2.000941000000004">
        <ele>455.481</ele>
        <time>2022-08-25T12:36:56Z</time>
      </trkpt>
      <trkpt lat="42.661754999999935" lon="-2.001281000000004">
        <ele>455.668</ele>
        <time>2022-08-25T12:37:03Z</time>
      </trkpt>
      <trkpt lat="42.66170099999994" lon="-2.001771000000004">
        <ele>455.421</ele>
        <time>2022-08-25T12:37:12Z</time>
      </trkpt>
      <trkpt lat="42.661656999999934" lon="-2.0021720000000043">
        <ele>455.247</ele>
        <time>2022-08-25T12:37:19Z</time>
      </trkpt>
      <trkpt lat="42.66163799999993" lon="-2.002342000000004">
        <ele>455.058</ele>
        <time>2022-08-25T12:37:22Z</time>
      </trkpt>
      <trkpt lat="42.661557999999935" lon="-2.002964000000004">
        <ele>454.221</ele>
        <time>2022-08-25T12:37:31Z</time>
      </trkpt>
      <trkpt lat="42.66151099999993" lon="-2.003402000000004">
        <ele>453.441</ele>
        <time>2022-08-25T12:37:37Z</time>
      </trkpt>
      <trkpt lat="42.661487999999935" lon="-2.003672000000004">
        <ele>452.605</ele>
        <time>2022-08-25T12:37:40Z</time>
      </trkpt>
      <trkpt lat="42.661476999999934" lon="-2.003856000000004">
        <ele>452.409</ele>
        <time>2022-08-25T12:37:42Z</time>
      </trkpt>
      <trkpt lat="42.661481999999936" lon="-2.004235000000004">
        <ele>452.013</ele>
        <time>2022-08-25T12:37:46Z</time>
      </trkpt>
      <trkpt lat="42.661515999999935" lon="-2.004562000000004">
        <ele>451.443</ele>
        <time>2022-08-25T12:37:49Z</time>
      </trkpt>
      <trkpt lat="42.661602999999936" lon="-2.004972000000004">
        <ele>450.673</ele>
        <time>2022-08-25T12:37:53Z</time>
      </trkpt>
      <trkpt lat="42.661625999999934" lon="-2.005053000000004">
        <ele>450.059</ele>
        <time>2022-08-25T12:37:54Z</time>
      </trkpt>
      <trkpt lat="42.66176999999993" lon="-2.005471000000004">
        <ele>449.041</ele>
        <time>2022-08-25T12:37:58Z</time>
      </trkpt>
      <trkpt lat="42.661850999999935" lon="-2.005647000000004">
        <ele>448.248</ele>
        <time>2022-08-25T12:38:00Z</time>
      </trkpt>
      <trkpt lat="42.66189799999994" lon="-2.005744000000004">
        <ele>447.641</ele>
        <time>2022-08-25T12:38:01Z</time>
      </trkpt>
      <trkpt lat="42.662067999999934" lon="-2.006016000000004">
        <ele>445.627</ele>
        <time>2022-08-25T12:38:04Z</time>
      </trkpt>
      <trkpt lat="42.662145999999936" lon="-2.006118000000004">
        <ele>445.468</ele>
        <time>2022-08-25T12:38:05Z</time>
      </trkpt>
      <trkpt lat="42.662199999999935" lon="-2.006182000000004">
        <ele>444.635</ele>
        <time>2022-08-25T12:38:06Z</time>
      </trkpt>
      <trkpt lat="42.662334999999935" lon="-2.006345000000004">
        <ele>443.486</ele>
        <time>2022-08-25T12:38:08Z</time>
      </trkpt>
      <trkpt lat="42.66249099999993" lon="-2.006506000000004">
        <ele>442.014</ele>
        <time>2022-08-25T12:38:10Z</time>
      </trkpt>
      <trkpt lat="42.66256699999993" lon="-2.006572000000004">
        <ele>441.209</ele>
        <time>2022-08-25T12:38:11Z</time>
      </trkpt>
      <trkpt lat="42.66264799999993" lon="-2.0066310000000036">
        <ele>440.844</ele>
        <time>2022-08-25T12:38:12Z</time>
      </trkpt>
      <trkpt lat="42.662810999999934" lon="-2.0067380000000035">
        <ele>439.694</ele>
        <time>2022-08-25T12:38:14Z</time>
      </trkpt>
      <trkpt lat="42.66289099999993" lon="-2.0067850000000034">
        <ele>439.074</ele>
        <time>2022-08-25T12:38:15Z</time>
      </trkpt>
      <trkpt lat="42.66297299999993" lon="-2.0068240000000035">
        <ele>438.050</ele>
        <time>2022-08-25T12:38:16Z</time>
      </trkpt>
      <trkpt lat="42.66305299999993" lon="-2.0068600000000036">
        <ele>437.472</ele>
        <time>2022-08-25T12:38:17Z</time>
      </trkpt>
      <trkpt lat="42.66311699999993" lon="-2.0068860000000037">
        <ele>436.459</ele>
        <time>2022-08-25T12:38:18Z</time>
      </trkpt>
      <trkpt lat="42.66327799999993" lon="-2.0069450000000035">
        <ele>435.422</ele>
        <time>2022-08-25T12:38:20Z</time>
      </trkpt>
      <trkpt lat="42.663447999999924" lon="-2.0070030000000036">
        <ele>434.428</ele>
        <time>2022-08-25T12:38:22Z</time>
      </trkpt>
      <trkpt lat="42.66353599999992" lon="-2.0070320000000037">
        <ele>433.449</ele>
        <time>2022-08-25T12:38:23Z</time>
      </trkpt>
      <trkpt lat="42.663711999999926" lon="-2.0070910000000035">
        <ele>432.086</ele>
        <time>2022-08-25T12:38:25Z</time>
      </trkpt>
      <trkpt lat="42.66389099999993" lon="-2.0071500000000033">
        <ele>430.860</ele>
        <time>2022-08-25T12:38:27Z</time>
      </trkpt>
      <trkpt lat="42.66408699999993" lon="-2.007219000000003">
        <ele>429.626</ele>
        <time>2022-08-25T12:38:29Z</time>
      </trkpt>
      <trkpt lat="42.66415699999993" lon="-2.007241000000003">
        <ele>428.809</ele>
        <time>2022-08-25T12:38:30Z</time>
      </trkpt>
      <trkpt lat="42.664242999999935" lon="-2.0072670000000032">
        <ele>428.239</ele>
        <time>2022-08-25T12:38:31Z</time>
      </trkpt>
      <trkpt lat="42.66432599999993" lon="-2.0072940000000035">
        <ele>428.069</ele>
        <time>2022-08-25T12:38:32Z</time>
      </trkpt>
      <trkpt lat="42.66442399999993" lon="-2.0073280000000033">
        <ele>427.649</ele>
        <time>2022-08-25T12:38:33Z</time>
      </trkpt>
      <trkpt lat="42.66448599999993" lon="-2.0073560000000032">
        <ele>427.285</ele>
        <time>2022-08-25T12:38:34Z</time>
      </trkpt>
      <trkpt lat="42.664560999999935" lon="-2.007393000000003">
        <ele>426.637</ele>
        <time>2022-08-25T12:38:35Z</time>
      </trkpt>
      <trkpt lat="42.664633999999936" lon="-2.007432000000003">
        <ele>426.484</ele>
        <time>2022-08-25T12:38:36Z</time>
      </trkpt>
      <trkpt lat="42.66470099999994" lon="-2.0074740000000033">
        <ele>426.227</ele>
        <time>2022-08-25T12:38:37Z</time>
      </trkpt>
      <trkpt lat="42.66477899999994" lon="-2.0075250000000033">
        <ele>425.883</ele>
        <time>2022-08-25T12:38:38Z</time>
      </trkpt>
      <trkpt lat="42.66484099999994" lon="-2.0075700000000034">
        <ele>425.434</ele>
        <time>2022-08-25T12:38:39Z</time>
      </trkpt>
      <trkpt lat="42.66489099999994" lon="-2.0076070000000033">
        <ele>424.472</ele>
        <time>2022-08-25T12:38:40Z</time>
      </trkpt>
      <trkpt lat="42.66495199999994" lon="-2.0076530000000035">
        <ele>424.213</ele>
        <time>2022-08-25T12:38:41Z</time>
      </trkpt>
      <trkpt lat="42.665009999999945" lon="-2.0077020000000037">
        <ele>423.614</ele>
        <time>2022-08-25T12:38:42Z</time>
      </trkpt>
      <trkpt lat="42.665074999999945" lon="-2.0077650000000036">
        <ele>423.009</ele>
        <time>2022-08-25T12:38:43Z</time>
      </trkpt>
      <trkpt lat="42.66512999999995" lon="-2.0078120000000035">
        <ele>423.078</ele>
        <time>2022-08-25T12:38:44Z</time>
      </trkpt>
      <trkpt lat="42.66517399999995" lon="-2.0078480000000036">
        <ele>422.878</ele>
        <time>2022-08-25T12:38:45Z</time>
      </trkpt>
      <trkpt lat="42.66522699999995" lon="-2.007894000000004">
        <ele>422.888</ele>
        <time>2022-08-25T12:38:46Z</time>
      </trkpt>
      <trkpt lat="42.66528699999995" lon="-2.0079500000000037">
        <ele>422.824</ele>
        <time>2022-08-25T12:38:47Z</time>
      </trkpt>
      <trkpt lat="42.66533099999995" lon="-2.0079980000000037">
        <ele>422.636</ele>
        <time>2022-08-25T12:38:48Z</time>
      </trkpt>
      <trkpt lat="42.66536799999995" lon="-2.0080360000000037">
        <ele>422.633</ele>
        <time>2022-08-25T12:38:49Z</time>
      </trkpt>
      <trkpt lat="42.66541099999995" lon="-2.008082000000004">
        <ele>422.646</ele>
        <time>2022-08-25T12:38:50Z</time>
      </trkpt>
      <trkpt lat="42.66545499999995" lon="-2.008135000000004">
        <ele>422.652</ele>
        <time>2022-08-25T12:38:51Z</time>
      </trkpt>
      <trkpt lat="42.66550699999995" lon="-2.008196000000004">
        <ele>422.423</ele>
        <time>2022-08-25T12:38:52Z</time>
      </trkpt>
      <trkpt lat="42.66554599999995" lon="-2.0082430000000038">
        <ele>422.449</ele>
        <time>2022-08-25T12:38:53Z</time>
      </trkpt>
      <trkpt lat="42.66558399999995" lon="-2.008291000000004">
        <ele>422.402</ele>
        <time>2022-08-25T12:38:54Z</time>
      </trkpt>
      <trkpt lat="42.66561199999995" lon="-2.008327000000004">
        <ele>422.422</ele>
        <time>2022-08-25T12:38:55Z</time>
      </trkpt>
      <trkpt lat="42.665655999999956" lon="-2.008383000000004">
        <ele>422.409</ele>
        <time>2022-08-25T12:38:56Z</time>
      </trkpt>
      <trkpt lat="42.665689999999955" lon="-2.008428000000004">
        <ele>422.235</ele>
        <time>2022-08-25T12:38:57Z</time>
      </trkpt>
      <trkpt lat="42.665720999999955" lon="-2.008473000000004">
        <ele>422.245</ele>
        <time>2022-08-25T12:38:58Z</time>
      </trkpt>
      <trkpt lat="42.66574799999996" lon="-2.008521000000004">
        <ele>422.275</ele>
        <time>2022-08-25T12:38:59Z</time>
      </trkpt>
      <trkpt lat="42.66576699999996" lon="-2.008562000000004">
        <ele>422.251</ele>
        <time>2022-08-25T12:39:00Z</time>
      </trkpt>
      <trkpt lat="42.66579599999996" lon="-2.008627000000004">
        <ele>422.463</ele>
        <time>2022-08-25T12:39:01Z</time>
      </trkpt>
      <trkpt lat="42.66581799999996" lon="-2.008684000000004">
        <ele>422.420</ele>
        <time>2022-08-25T12:39:02Z</time>
      </trkpt>
      <trkpt lat="42.665838999999956" lon="-2.0087390000000043">
        <ele>422.473</ele>
        <time>2022-08-25T12:39:03Z</time>
      </trkpt>
      <trkpt lat="42.66585399999995" lon="-2.008782000000004">
        <ele>422.449</ele>
        <time>2022-08-25T12:39:04Z</time>
      </trkpt>
      <trkpt lat="42.66587199999995" lon="-2.008837000000004">
        <ele>422.270</ele>
        <time>2022-08-25T12:39:05Z</time>
      </trkpt>
      <trkpt lat="42.66588899999995" lon="-2.008906000000004">
        <ele>422.434</ele>
        <time>2022-08-25T12:39:06Z</time>
      </trkpt>
      <trkpt lat="42.66589899999995" lon="-2.008964000000004">
        <ele>422.455</ele>
        <time>2022-08-25T12:39:07Z</time>
      </trkpt>
      <trkpt lat="42.66592199999995" lon="-2.009204000000004">
        <ele>422.410</ele>
        <time>2022-08-25T12:39:11Z</time>
      </trkpt>
      <trkpt lat="42.66591899999995" lon="-2.009267000000004">
        <ele>422.409</ele>
        <time>2022-08-25T12:39:12Z</time>
      </trkpt>
      <trkpt lat="42.66589699999995" lon="-2.009629000000004">
        <ele>422.454</ele>
        <time>2022-08-25T12:39:18Z</time>
      </trkpt>
      <trkpt lat="42.66588099999995" lon="-2.009760000000004">
        <ele>422.254</ele>
        <time>2022-08-25T12:39:20Z</time>
      </trkpt>
      <trkpt lat="42.66587199999995" lon="-2.009825000000004">
        <ele>422.034</ele>
        <time>2022-08-25T12:39:21Z</time>
      </trkpt>
      <trkpt lat="42.66586199999995" lon="-2.0098890000000043">
        <ele>422.050</ele>
        <time>2022-08-25T12:39:22Z</time>
      </trkpt>
      <trkpt lat="42.66585799999995" lon="-2.009936000000004">
        <ele>422.062</ele>
        <time>2022-08-25T12:39:23Z</time>
      </trkpt>
      <trkpt lat="42.66585199999995" lon="-2.010005000000004">
        <ele>422.049</ele>
        <time>2022-08-25T12:39:24Z</time>
      </trkpt>
      <trkpt lat="42.665844999999955" lon="-2.010065000000004">
        <ele>422.072</ele>
        <time>2022-08-25T12:39:25Z</time>
      </trkpt>
      <trkpt lat="42.66584099999996" lon="-2.010124000000004">
        <ele>421.838</ele>
        <time>2022-08-25T12:39:26Z</time>
      </trkpt>
      <trkpt lat="42.665838999999956" lon="-2.0101800000000036">
        <ele>421.849</ele>
        <time>2022-08-25T12:39:27Z</time>
      </trkpt>
      <trkpt lat="42.665838999999956" lon="-2.0102240000000036">
        <ele>421.834</ele>
        <time>2022-08-25T12:39:28Z</time>
      </trkpt>
      <trkpt lat="42.665838999999956" lon="-2.0102790000000037">
        <ele>421.855</ele>
        <time>2022-08-25T12:39:29Z</time>
      </trkpt>
      <trkpt lat="42.66583199999996" lon="-2.0103960000000036">
        <ele>421.810</ele>
        <time>2022-08-25T12:39:31Z</time>
      </trkpt>
      <trkpt lat="42.66582899999996" lon="-2.0104400000000036">
        <ele>421.809</ele>
        <time>2022-08-25T12:39:32Z</time>
      </trkpt>
      <trkpt lat="42.66582399999996" lon="-2.0104940000000036">
        <ele>421.834</ele>
        <time>2022-08-25T12:39:33Z</time>
      </trkpt>
      <trkpt lat="42.66581699999996" lon="-2.0105560000000033">
        <ele>421.864</ele>
        <time>2022-08-25T12:39:34Z</time>
      </trkpt>
      <trkpt lat="42.66580699999996" lon="-2.0106600000000032">
        <ele>421.674</ele>
        <time>2022-08-25T12:39:36Z</time>
      </trkpt>
      <trkpt lat="42.66580399999996" lon="-2.0106990000000033">
        <ele>421.840</ele>
        <time>2022-08-25T12:39:37Z</time>
      </trkpt>
      <trkpt lat="42.66579799999996" lon="-2.010755000000003">
        <ele>421.882</ele>
        <time>2022-08-25T12:39:38Z</time>
      </trkpt>
      <trkpt lat="42.66579299999996" lon="-2.010802000000003">
        <ele>421.839</ele>
        <time>2022-08-25T12:39:39Z</time>
      </trkpt>
      <trkpt lat="42.66578499999996" lon="-2.0108830000000033">
        <ele>421.872</ele>
        <time>2022-08-25T12:39:41Z</time>
      </trkpt>
      <trkpt lat="42.66576499999996" lon="-2.010987000000003">
        <ele>422.018</ele>
        <time>2022-08-25T12:39:43Z</time>
      </trkpt>
      <trkpt lat="42.665754999999955" lon="-2.011030000000003">
        <ele>422.219</ele>
        <time>2022-08-25T12:39:44Z</time>
      </trkpt>
      <trkpt lat="42.665714999999956" lon="-2.011317000000003">
        <ele>422.284</ele>
        <time>2022-08-25T12:39:50Z</time>
      </trkpt>
      <trkpt lat="42.66571199999996" lon="-2.011351000000003">
        <ele>422.207</ele>
        <time>2022-08-25T12:39:51Z</time>
      </trkpt>
      <trkpt lat="42.665706999999955" lon="-2.011450000000003">
        <ele>422.217</ele>
        <time>2022-08-25T12:39:53Z</time>
      </trkpt>
      <trkpt lat="42.665706999999955" lon="-2.0114960000000033">
        <ele>422.209</ele>
        <time>2022-08-25T12:39:54Z</time>
      </trkpt>
      <trkpt lat="42.665703999999955" lon="-2.0115310000000033">
        <ele>422.059</ele>
        <time>2022-08-25T12:39:55Z</time>
      </trkpt>
      <trkpt lat="42.66570299999996" lon="-2.0115730000000034">
        <ele>422.089</ele>
        <time>2022-08-25T12:39:56Z</time>
      </trkpt>
      <trkpt lat="42.66569999999996" lon="-2.0116280000000035">
        <ele>422.099</ele>
        <time>2022-08-25T12:39:57Z</time>
      </trkpt>
      <trkpt lat="42.665697999999956" lon="-2.0116750000000034">
        <ele>422.075</ele>
        <time>2022-08-25T12:39:58Z</time>
      </trkpt>
      <trkpt lat="42.66567099999995" lon="-2.0120010000000033">
        <ele>422.057</ele>
        <time>2022-08-25T12:40:05Z</time>
      </trkpt>
      <trkpt lat="42.665661999999955" lon="-2.0120620000000033">
        <ele>422.054</ele>
        <time>2022-08-25T12:40:06Z</time>
      </trkpt>
      <trkpt lat="42.66565699999995" lon="-2.0121010000000035">
        <ele>422.287</ele>
        <time>2022-08-25T12:40:07Z</time>
      </trkpt>
      <trkpt lat="42.66565199999995" lon="-2.0121580000000034">
        <ele>422.213</ele>
        <time>2022-08-25T12:40:08Z</time>
      </trkpt>
      <trkpt lat="42.665650999999954" lon="-2.0121930000000035">
        <ele>422.244</ele>
        <time>2022-08-25T12:40:09Z</time>
      </trkpt>
      <trkpt lat="42.66564699999996" lon="-2.0122390000000037">
        <ele>422.254</ele>
        <time>2022-08-25T12:40:10Z</time>
      </trkpt>
      <trkpt lat="42.665638999999956" lon="-2.0122860000000036">
        <ele>422.256</ele>
        <time>2022-08-25T12:40:11Z</time>
      </trkpt>
      <trkpt lat="42.66563199999996" lon="-2.0123300000000035">
        <ele>422.211</ele>
        <time>2022-08-25T12:40:12Z</time>
      </trkpt>
      <trkpt lat="42.66562899999996" lon="-2.0123710000000035">
        <ele>422.209</ele>
        <time>2022-08-25T12:40:13Z</time>
      </trkpt>
      <trkpt lat="42.66562199999996" lon="-2.0124140000000033">
        <ele>422.456</ele>
        <time>2022-08-25T12:40:14Z</time>
      </trkpt>
      <trkpt lat="42.665609999999965" lon="-2.0124600000000035">
        <ele>422.416</ele>
        <time>2022-08-25T12:40:15Z</time>
      </trkpt>
      <trkpt lat="42.66558699999997" lon="-2.0125960000000034">
        <ele>422.436</ele>
        <time>2022-08-25T12:40:18Z</time>
      </trkpt>
      <trkpt lat="42.66558099999997" lon="-2.0126380000000035">
        <ele>422.432</ele>
        <time>2022-08-25T12:40:19Z</time>
      </trkpt>
      <trkpt lat="42.665572999999966" lon="-2.0127230000000034">
        <ele>422.614</ele>
        <time>2022-08-25T12:40:21Z</time>
      </trkpt>
      <trkpt lat="42.665556999999964" lon="-2.0128530000000033">
        <ele>423.091</ele>
        <time>2022-08-25T12:40:24Z</time>
      </trkpt>
      <trkpt lat="42.66555299999997" lon="-2.0128970000000033">
        <ele>423.064</ele>
        <time>2022-08-25T12:40:25Z</time>
      </trkpt>
      <trkpt lat="42.66555199999997" lon="-2.0129380000000032">
        <ele>423.240</ele>
        <time>2022-08-25T12:40:26Z</time>
      </trkpt>
      <trkpt lat="42.66554899999997" lon="-2.012981000000003">
        <ele>423.221</ele>
        <time>2022-08-25T12:40:27Z</time>
      </trkpt>
      <trkpt lat="42.66554699999997" lon="-2.013021000000003">
        <ele>423.448</ele>
        <time>2022-08-25T12:40:28Z</time>
      </trkpt>
      <trkpt lat="42.665544999999966" lon="-2.0130580000000027">
        <ele>423.461</ele>
        <time>2022-08-25T12:40:29Z</time>
      </trkpt>
      <trkpt lat="42.665542999999964" lon="-2.0130930000000027">
        <ele>423.417</ele>
        <time>2022-08-25T12:40:30Z</time>
      </trkpt>
      <trkpt lat="42.665536999999965" lon="-2.013132000000003">
        <ele>423.609</ele>
        <time>2022-08-25T12:40:31Z</time>
      </trkpt>
      <trkpt lat="42.66552499999997" lon="-2.0131760000000027">
        <ele>423.665</ele>
        <time>2022-08-25T12:40:32Z</time>
      </trkpt>
      <trkpt lat="42.665516999999966" lon="-2.0132200000000027">
        <ele>423.625</ele>
        <time>2022-08-25T12:40:33Z</time>
      </trkpt>
      <trkpt lat="42.665513999999966" lon="-2.0132550000000027">
        <ele>423.885</ele>
        <time>2022-08-25T12:40:34Z</time>
      </trkpt>
      <trkpt lat="42.66550999999997" lon="-2.0132900000000027">
        <ele>423.831</ele>
        <time>2022-08-25T12:40:35Z</time>
      </trkpt>
      <trkpt lat="42.66550499999997" lon="-2.013329000000003">
        <ele>423.883</ele>
        <time>2022-08-25T12:40:36Z</time>
      </trkpt>
      <trkpt lat="42.66549899999997" lon="-2.0134110000000027">
        <ele>423.870</ele>
        <time>2022-08-25T12:40:38Z</time>
      </trkpt>
      <trkpt lat="42.66550099999997" lon="-2.013447000000003">
        <ele>424.043</ele>
        <time>2022-08-25T12:40:39Z</time>
      </trkpt>
      <trkpt lat="42.66549899999997" lon="-2.013483000000003">
        <ele>424.279</ele>
        <time>2022-08-25T12:40:40Z</time>
      </trkpt>
      <trkpt lat="42.66549599999997" lon="-2.013520000000003">
        <ele>424.440</ele>
        <time>2022-08-25T12:40:41Z</time>
      </trkpt>
      <trkpt lat="42.66549299999997" lon="-2.013556000000003">
        <ele>424.466</ele>
        <time>2022-08-25T12:40:42Z</time>
      </trkpt>
      <trkpt lat="42.66548399999997" lon="-2.013594000000003">
        <ele>424.429</ele>
        <time>2022-08-25T12:40:43Z</time>
      </trkpt>
      <trkpt lat="42.66547599999997" lon="-2.013630000000003">
        <ele>424.421</ele>
        <time>2022-08-25T12:40:44Z</time>
      </trkpt>
      <trkpt lat="42.66546299999997" lon="-2.0136630000000033">
        <ele>424.609</ele>
        <time>2022-08-25T12:40:45Z</time>
      </trkpt>
      <trkpt lat="42.66544899999997" lon="-2.0136930000000035">
        <ele>424.657</ele>
        <time>2022-08-25T12:40:46Z</time>
      </trkpt>
      <trkpt lat="42.665390999999964" lon="-2.0138540000000034">
        <ele>425.017</ele>
        <time>2022-08-25T12:40:51Z</time>
      </trkpt>
      <trkpt lat="42.665361999999966" lon="-2.0139190000000036">
        <ele>425.457</ele>
        <time>2022-08-25T12:40:53Z</time>
      </trkpt>
      <trkpt lat="42.66528999999996" lon="-2.0141750000000034">
        <ele>426.213</ele>
        <time>2022-08-25T12:41:00Z</time>
      </trkpt>
      <trkpt lat="42.665271999999966" lon="-2.0142060000000033">
        <ele>426.285</ele>
        <time>2022-08-25T12:41:01Z</time>
      </trkpt>
      <trkpt lat="42.66511599999997" lon="-2.0145120000000034">
        <ele>426.632</ele>
        <time>2022-08-25T12:41:10Z</time>
      </trkpt>
      <trkpt lat="42.66491999999997" lon="-2.0148210000000035">
        <ele>426.625</ele>
        <time>2022-08-25T12:41:18Z</time>
      </trkpt>
      <trkpt lat="42.66472299999997" lon="-2.0151310000000033">
        <ele>426.671</ele>
        <time>2022-08-25T12:41:25Z</time>
      </trkpt>
      <trkpt lat="42.664630999999964" lon="-2.015298000000003">
        <ele>426.212</ele>
        <time>2022-08-25T12:41:28Z</time>
      </trkpt>
      <trkpt lat="42.664565999999965" lon="-2.0154960000000033">
        <ele>425.448</ele>
        <time>2022-08-25T12:41:31Z</time>
      </trkpt>
      <trkpt lat="42.66455399999997" lon="-2.015565000000003">
        <ele>425.261</ele>
        <time>2022-08-25T12:41:32Z</time>
      </trkpt>
      <trkpt lat="42.66454499999997" lon="-2.015632000000003">
        <ele>425.017</ele>
        <time>2022-08-25T12:41:33Z</time>
      </trkpt>
      <trkpt lat="42.66452199999997" lon="-2.015841000000003">
        <ele>424.409</ele>
        <time>2022-08-25T12:41:36Z</time>
      </trkpt>
      <trkpt lat="42.66451399999997" lon="-2.0159060000000033">
        <ele>424.455</ele>
        <time>2022-08-25T12:41:37Z</time>
      </trkpt>
      <trkpt lat="42.66450499999997" lon="-2.0159710000000035">
        <ele>424.265</ele>
        <time>2022-08-25T12:41:38Z</time>
      </trkpt>
      <trkpt lat="42.66449799999997" lon="-2.0160240000000034">
        <ele>424.255</ele>
        <time>2022-08-25T12:41:39Z</time>
      </trkpt>
      <trkpt lat="42.664491999999974" lon="-2.0161000000000033">
        <ele>424.231</ele>
        <time>2022-08-25T12:41:40Z</time>
      </trkpt>
      <trkpt lat="42.66448799999998" lon="-2.016162000000003">
        <ele>424.073</ele>
        <time>2022-08-25T12:41:41Z</time>
      </trkpt>
      <trkpt lat="42.66448499999998" lon="-2.016224000000003">
        <ele>424.070</ele>
        <time>2022-08-25T12:41:42Z</time>
      </trkpt>
      <trkpt lat="42.66447599999998" lon="-2.016336000000003">
        <ele>423.843</ele>
        <time>2022-08-25T12:41:44Z</time>
      </trkpt>
      <trkpt lat="42.664448999999976" lon="-2.016647000000003">
        <ele>423.659</ele>
        <time>2022-08-25T12:41:49Z</time>
      </trkpt>
      <trkpt lat="42.66444299999998" lon="-2.016718000000003">
        <ele>423.620</ele>
        <time>2022-08-25T12:41:50Z</time>
      </trkpt>
      <trkpt lat="42.66443599999998" lon="-2.016775000000003">
        <ele>423.676</ele>
        <time>2022-08-25T12:41:51Z</time>
      </trkpt>
      <trkpt lat="42.66443099999998" lon="-2.016833000000003">
        <ele>423.690</ele>
        <time>2022-08-25T12:41:52Z</time>
      </trkpt>
      <trkpt lat="42.66442699999998" lon="-2.0168780000000033">
        <ele>423.619</ele>
        <time>2022-08-25T12:41:53Z</time>
      </trkpt>
      <trkpt lat="42.66441799999998" lon="-2.016947000000003">
        <ele>423.609</ele>
        <time>2022-08-25T12:41:54Z</time>
      </trkpt>
      <trkpt lat="42.66441399999999" lon="-2.0169890000000033">
        <ele>423.688</ele>
        <time>2022-08-25T12:41:55Z</time>
      </trkpt>
      <trkpt lat="42.66440799999999" lon="-2.0170530000000033">
        <ele>423.628</ele>
        <time>2022-08-25T12:41:56Z</time>
      </trkpt>
      <trkpt lat="42.66440399999999" lon="-2.0170970000000032">
        <ele>423.668</ele>
        <time>2022-08-25T12:41:57Z</time>
      </trkpt>
      <trkpt lat="42.66439799999999" lon="-2.0171510000000032">
        <ele>423.654</ele>
        <time>2022-08-25T12:41:58Z</time>
      </trkpt>
      <trkpt lat="42.66438599999999" lon="-2.017442000000003">
        <ele>423.656</ele>
        <time>2022-08-25T12:42:03Z</time>
      </trkpt>
      <trkpt lat="42.66439999999999" lon="-2.017560000000003">
        <ele>423.673</ele>
        <time>2022-08-25T12:42:05Z</time>
      </trkpt>
      <trkpt lat="42.664424999999994" lon="-2.017731000000003">
        <ele>423.486</ele>
        <time>2022-08-25T12:42:08Z</time>
      </trkpt>
      <trkpt lat="42.664438" lon="-2.017785000000003">
        <ele>423.442</ele>
        <time>2022-08-25T12:42:09Z</time>
      </trkpt>
      <trkpt lat="42.664449" lon="-2.017840000000003">
        <ele>423.243</ele>
        <time>2022-08-25T12:42:10Z</time>
      </trkpt>
      <trkpt lat="42.664457999999996" lon="-2.0178820000000033">
        <ele>423.233</ele>
        <time>2022-08-25T12:42:11Z</time>
      </trkpt>
      <trkpt lat="42.664489999999994" lon="-2.0180040000000035">
        <ele>423.023</ele>
        <time>2022-08-25T12:42:13Z</time>
      </trkpt>
      <trkpt lat="42.66456099999999" lon="-2.0182250000000033">
        <ele>423.015</ele>
        <time>2022-08-25T12:42:17Z</time>
      </trkpt>
      <trkpt lat="42.66457899999999" lon="-2.0182790000000033">
        <ele>422.809</ele>
        <time>2022-08-25T12:42:18Z</time>
      </trkpt>
      <trkpt lat="42.66459599999999" lon="-2.0183330000000033">
        <ele>422.814</ele>
        <time>2022-08-25T12:42:19Z</time>
      </trkpt>
      <trkpt lat="42.664630999999986" lon="-2.0184260000000034">
        <ele>422.674</ele>
        <time>2022-08-25T12:42:21Z</time>
      </trkpt>
      <trkpt lat="42.66469099999998" lon="-2.018577000000003">
        <ele>422.684</ele>
        <time>2022-08-25T12:42:24Z</time>
      </trkpt>
      <trkpt lat="42.66471499999999" lon="-2.0186260000000034">
        <ele>422.650</ele>
        <time>2022-08-25T12:42:25Z</time>
      </trkpt>
      <trkpt lat="42.664827999999986" lon="-2.0188150000000036">
        <ele>422.292</ele>
        <time>2022-08-25T12:42:29Z</time>
      </trkpt>
      <trkpt lat="42.66488799999998" lon="-2.0189030000000034">
        <ele>422.289</ele>
        <time>2022-08-25T12:42:31Z</time>
      </trkpt>
      <trkpt lat="42.66491699999998" lon="-2.0189440000000034">
        <ele>422.222</ele>
        <time>2022-08-25T12:42:32Z</time>
      </trkpt>
      <trkpt lat="42.664943999999984" lon="-2.0189880000000033">
        <ele>422.258</ele>
        <time>2022-08-25T12:42:33Z</time>
      </trkpt>
      <trkpt lat="42.66496699999998" lon="-2.0190210000000035">
        <ele>422.239</ele>
        <time>2022-08-25T12:42:34Z</time>
      </trkpt>
      <trkpt lat="42.66499499999998" lon="-2.0190600000000036">
        <ele>422.278</ele>
        <time>2022-08-25T12:42:35Z</time>
      </trkpt>
      <trkpt lat="42.66508299999998" lon="-2.0191910000000037">
        <ele>422.433</ele>
        <time>2022-08-25T12:42:38Z</time>
      </trkpt>
      <trkpt lat="42.66516699999998" lon="-2.0193070000000035">
        <ele>422.626</ele>
        <time>2022-08-25T12:42:41Z</time>
      </trkpt>
      <trkpt lat="42.66522899999998" lon="-2.0193770000000035">
        <ele>422.809</ele>
        <time>2022-08-25T12:42:43Z</time>
      </trkpt>
      <trkpt lat="42.66525999999998" lon="-2.0194000000000036">
        <ele>423.018</ele>
        <time>2022-08-25T12:42:44Z</time>
      </trkpt>
      <trkpt lat="42.665295999999984" lon="-2.0194230000000037">
        <ele>423.078</ele>
        <time>2022-08-25T12:42:45Z</time>
      </trkpt>
      <trkpt lat="42.66531599999998" lon="-2.019446000000004">
        <ele>423.058</ele>
        <time>2022-08-25T12:42:46Z</time>
      </trkpt>
      <trkpt lat="42.66532799999998" lon="-2.019469000000004">
        <ele>423.014</ele>
        <time>2022-08-25T12:42:47Z</time>
      </trkpt>
      <trkpt lat="42.66533399999998" lon="-2.019486000000004">
        <ele>423.276</ele>
        <time>2022-08-25T12:42:48Z</time>
      </trkpt>
      <trkpt lat="42.66534199999998" lon="-2.019505000000004">
        <ele>423.233</ele>
        <time>2022-08-25T12:42:49Z</time>
      </trkpt>
      <trkpt lat="42.66534899999998" lon="-2.019526000000004">
        <ele>423.296</ele>
        <time>2022-08-25T12:42:50Z</time>
      </trkpt>
      <trkpt lat="42.66535699999998" lon="-2.019544000000004">
        <ele>423.272</ele>
        <time>2022-08-25T12:42:51Z</time>
      </trkpt>
      <trkpt lat="42.66536599999998" lon="-2.0195590000000037">
        <ele>423.283</ele>
        <time>2022-08-25T12:42:52Z</time>
      </trkpt>
      <trkpt lat="42.66537199999998" lon="-2.0195720000000037">
        <ele>423.296</ele>
        <time>2022-08-25T12:42:53Z</time>
      </trkpt>
      <trkpt lat="42.66543099999998" lon="-2.019662000000004">
        <ele>423.231</ele>
        <time>2022-08-25T12:42:57Z</time>
      </trkpt>
      <trkpt lat="42.66557099999998" lon="-2.0198330000000038">
        <ele>423.224</ele>
        <time>2022-08-25T12:43:03Z</time>
      </trkpt>
      <trkpt lat="42.66559299999998" lon="-2.0198580000000037">
        <ele>423.209</ele>
        <time>2022-08-25T12:43:04Z</time>
      </trkpt>
      <trkpt lat="42.66561999999998" lon="-2.0198900000000037">
        <ele>423.280</ele>
        <time>2022-08-25T12:43:05Z</time>
      </trkpt>
      <trkpt lat="42.66563799999998" lon="-2.0199110000000036">
        <ele>423.420</ele>
        <time>2022-08-25T12:43:06Z</time>
      </trkpt>
      <trkpt lat="42.66565999999998" lon="-2.0199370000000036">
        <ele>423.440</ele>
        <time>2022-08-25T12:43:07Z</time>
      </trkpt>
      <trkpt lat="42.66570699999998" lon="-2.0199970000000036">
        <ele>423.666</ele>
        <time>2022-08-25T12:43:09Z</time>
      </trkpt>
      <trkpt lat="42.66573099999999" lon="-2.0200250000000035">
        <ele>423.638</ele>
        <time>2022-08-25T12:43:10Z</time>
      </trkpt>
      <trkpt lat="42.66574799999999" lon="-2.0200460000000033">
        <ele>423.625</ele>
        <time>2022-08-25T12:43:11Z</time>
      </trkpt>
      <trkpt lat="42.66576999999999" lon="-2.0200690000000034">
        <ele>423.668</ele>
        <time>2022-08-25T12:43:12Z</time>
      </trkpt>
      <trkpt lat="42.665795999999986" lon="-2.0200960000000037">
        <ele>423.654</ele>
        <time>2022-08-25T12:43:13Z</time>
      </trkpt>
      <trkpt lat="42.66581699999998" lon="-2.020116000000004">
        <ele>423.675</ele>
        <time>2022-08-25T12:43:14Z</time>
      </trkpt>
      <trkpt lat="42.66587599999998" lon="-2.020181000000004">
        <ele>423.682</ele>
        <time>2022-08-25T12:43:17Z</time>
      </trkpt>
      <trkpt lat="42.665897999999984" lon="-2.020205000000004">
        <ele>423.643</ele>
        <time>2022-08-25T12:43:18Z</time>
      </trkpt>
      <trkpt lat="42.66591599999998" lon="-2.020235000000004">
        <ele>423.617</ele>
        <time>2022-08-25T12:43:19Z</time>
      </trkpt>
      <trkpt lat="42.66593099999998" lon="-2.020258000000004">
        <ele>423.409</ele>
        <time>2022-08-25T12:43:20Z</time>
      </trkpt>
      <trkpt lat="42.66594599999998" lon="-2.020281000000004">
        <ele>423.499</ele>
        <time>2022-08-25T12:43:21Z</time>
      </trkpt>
      <trkpt lat="42.665951999999976" lon="-2.020290000000004">
        <ele>423.439</ele>
        <time>2022-08-25T12:43:22Z</time>
      </trkpt>
      <trkpt lat="42.665979999999976" lon="-2.020330000000004">
        <ele>423.879</ele>
        <time>2022-08-25T12:47:18Z</time>
      </trkpt>
      <trkpt lat="42.666016999999975" lon="-2.020398000000004">
        <ele>423.845</ele>
        <time>2022-08-25T12:47:20Z</time>
      </trkpt>
      <trkpt lat="42.66609999999997" lon="-2.020572000000004">
        <ele>423.667</ele>
        <time>2022-08-25T12:47:25Z</time>
      </trkpt>
      <trkpt lat="42.66630599999997" lon="-2.020788000000004">
        <ele>423.664</ele>
        <time>2022-08-25T12:47:32Z</time>
      </trkpt>
      <trkpt lat="42.666495999999974" lon="-2.020937000000004">
        <ele>423.677</ele>
        <time>2022-08-25T12:47:38Z</time>
      </trkpt>
      <trkpt lat="42.666528999999976" lon="-2.020965000000004">
        <ele>423.663</ele>
        <time>2022-08-25T12:47:39Z</time>
      </trkpt>
      <trkpt lat="42.666714999999975" lon="-2.021074000000004">
        <ele>423.644</ele>
        <time>2022-08-25T12:47:45Z</time>
      </trkpt>
      <trkpt lat="42.66678099999997" lon="-2.021098000000004">
        <ele>423.455</ele>
        <time>2022-08-25T12:47:47Z</time>
      </trkpt>
      <trkpt lat="42.66687999999997" lon="-2.0211380000000037">
        <ele>423.407</ele>
        <time>2022-08-25T12:47:50Z</time>
      </trkpt>
      <trkpt lat="42.66694999999997" lon="-2.0211670000000037">
        <ele>423.417</ele>
        <time>2022-08-25T12:47:52Z</time>
      </trkpt>
      <trkpt lat="42.667063999999975" lon="-2.0212240000000037">
        <ele>423.209</ele>
        <time>2022-08-25T12:47:55Z</time>
      </trkpt>
      <trkpt lat="42.66709999999998" lon="-2.021238000000004">
        <ele>423.226</ele>
        <time>2022-08-25T12:47:56Z</time>
      </trkpt>
      <trkpt lat="42.667136999999975" lon="-2.021252000000004">
        <ele>423.216</ele>
        <time>2022-08-25T12:47:57Z</time>
      </trkpt>
      <trkpt lat="42.667173999999974" lon="-2.021269000000004">
        <ele>423.066</ele>
        <time>2022-08-25T12:47:58Z</time>
      </trkpt>
      <trkpt lat="42.667209999999976" lon="-2.0212820000000042">
        <ele>423.012</ele>
        <time>2022-08-25T12:47:59Z</time>
      </trkpt>
      <trkpt lat="42.66724799999998" lon="-2.0212960000000044">
        <ele>423.074</ele>
        <time>2022-08-25T12:48:00Z</time>
      </trkpt>
      <trkpt lat="42.66728399999998" lon="-2.0213100000000046">
        <ele>423.031</ele>
        <time>2022-08-25T12:48:01Z</time>
      </trkpt>
      <trkpt lat="42.66731999999998" lon="-2.021324000000005">
        <ele>423.054</ele>
        <time>2022-08-25T12:48:02Z</time>
      </trkpt>
      <trkpt lat="42.667355999999984" lon="-2.021338000000005">
        <ele>422.860</ele>
        <time>2022-08-25T12:48:03Z</time>
      </trkpt>
      <trkpt lat="42.66739099999998" lon="-2.021350000000005">
        <ele>422.881</ele>
        <time>2022-08-25T12:48:04Z</time>
      </trkpt>
      <trkpt lat="42.66742499999998" lon="-2.021364000000005">
        <ele>422.874</ele>
        <time>2022-08-25T12:48:05Z</time>
      </trkpt>
      <trkpt lat="42.66752699999998" lon="-2.0214100000000053">
        <ele>422.856</ele>
        <time>2022-08-25T12:48:08Z</time>
      </trkpt>
      <trkpt lat="42.667558999999976" lon="-2.0214260000000053">
        <ele>422.821</ele>
        <time>2022-08-25T12:48:09Z</time>
      </trkpt>
      <trkpt lat="42.66759399999997" lon="-2.0214460000000054">
        <ele>422.809</ele>
        <time>2022-08-25T12:48:10Z</time>
      </trkpt>
      <trkpt lat="42.667632999999974" lon="-2.0214590000000054">
        <ele>423.038</ele>
        <time>2022-08-25T12:48:11Z</time>
      </trkpt>
      <trkpt lat="42.66766999999997" lon="-2.0214730000000056">
        <ele>423.068</ele>
        <time>2022-08-25T12:48:12Z</time>
      </trkpt>
      <trkpt lat="42.66776599999997" lon="-2.0215160000000054">
        <ele>423.288</ele>
        <time>2022-08-25T12:48:15Z</time>
      </trkpt>
      <trkpt lat="42.66779799999997" lon="-2.0215290000000055">
        <ele>423.244</ele>
        <time>2022-08-25T12:48:16Z</time>
      </trkpt>
      <trkpt lat="42.66785799999997" lon="-2.0215550000000055">
        <ele>423.496</ele>
        <time>2022-08-25T12:48:18Z</time>
      </trkpt>
      <trkpt lat="42.66788599999997" lon="-2.0215680000000056">
        <ele>423.423</ele>
        <time>2022-08-25T12:48:19Z</time>
      </trkpt>
      <trkpt lat="42.668176999999964" lon="-2.0217180000000057">
        <ele>423.416</ele>
        <time>2022-08-25T12:48:28Z</time>
      </trkpt>
      <trkpt lat="42.66842299999996" lon="-2.021846000000006">
        <ele>423.462</ele>
        <time>2022-08-25T12:48:35Z</time>
      </trkpt>
      <trkpt lat="42.66845699999996" lon="-2.0218680000000058">
        <ele>423.423</ele>
        <time>2022-08-25T12:48:36Z</time>
      </trkpt>
      <trkpt lat="42.668497999999964" lon="-2.0218960000000057">
        <ele>423.427</ele>
        <time>2022-08-25T12:48:37Z</time>
      </trkpt>
      <trkpt lat="42.66852499999997" lon="-2.021913000000006">
        <ele>423.468</ele>
        <time>2022-08-25T12:48:38Z</time>
      </trkpt>
      <trkpt lat="42.668556999999964" lon="-2.021935000000006">
        <ele>423.414</ele>
        <time>2022-08-25T12:48:39Z</time>
      </trkpt>
      <trkpt lat="42.668787999999964" lon="-2.022076000000006">
        <ele>423.409</ele>
        <time>2022-08-25T12:48:46Z</time>
      </trkpt>
      <trkpt lat="42.668952999999966" lon="-2.022166000000006">
        <ele>423.473</ele>
        <time>2022-08-25T12:48:51Z</time>
      </trkpt>
      <trkpt lat="42.66898299999997" lon="-2.0221860000000063">
        <ele>423.433</ele>
        <time>2022-08-25T12:48:52Z</time>
      </trkpt>
      <trkpt lat="42.66901099999997" lon="-2.022204000000006">
        <ele>423.483</ele>
        <time>2022-08-25T12:48:53Z</time>
      </trkpt>
      <trkpt lat="42.66903699999997" lon="-2.022219000000006">
        <ele>423.429</ele>
        <time>2022-08-25T12:48:54Z</time>
      </trkpt>
      <trkpt lat="42.66910399999997" lon="-2.022256000000006">
        <ele>423.471</ele>
        <time>2022-08-25T12:48:56Z</time>
      </trkpt>
      <trkpt lat="42.66943599999997" lon="-2.022432000000006">
        <ele>423.218</ele>
        <time>2022-08-25T12:49:05Z</time>
      </trkpt>
      <trkpt lat="42.66946299999997" lon="-2.022448000000006">
        <ele>423.261</ele>
        <time>2022-08-25T12:49:06Z</time>
      </trkpt>
      <trkpt lat="42.66949799999997" lon="-2.022469000000006">
        <ele>423.257</ele>
        <time>2022-08-25T12:49:07Z</time>
      </trkpt>
      <trkpt lat="42.66953499999997" lon="-2.022492000000006">
        <ele>423.228</ele>
        <time>2022-08-25T12:49:08Z</time>
      </trkpt>
      <trkpt lat="42.669569999999965" lon="-2.022510000000006">
        <ele>423.084</ele>
        <time>2022-08-25T12:49:09Z</time>
      </trkpt>
      <trkpt lat="42.669670999999965" lon="-2.0225630000000057">
        <ele>423.007</ele>
        <time>2022-08-25T12:49:12Z</time>
      </trkpt>
      <trkpt lat="42.66974299999997" lon="-2.0226000000000055">
        <ele>423.217</ele>
        <time>2022-08-25T12:49:14Z</time>
      </trkpt>
      <trkpt lat="42.66981599999997" lon="-2.0226410000000055">
        <ele>423.209</ele>
        <time>2022-08-25T12:49:16Z</time>
      </trkpt>
      <trkpt lat="42.67008099999997" lon="-2.0227820000000056">
        <ele>423.479</ele>
        <time>2022-08-25T12:49:23Z</time>
      </trkpt>
      <trkpt lat="42.67011699999997" lon="-2.0228010000000056">
        <ele>423.439</ele>
        <time>2022-08-25T12:49:24Z</time>
      </trkpt>
      <trkpt lat="42.67015899999997" lon="-2.0228260000000056">
        <ele>423.489</ele>
        <time>2022-08-25T12:49:25Z</time>
      </trkpt>
      <trkpt lat="42.67021999999997" lon="-2.0228670000000055">
        <ele>423.435</ele>
        <time>2022-08-25T12:49:27Z</time>
      </trkpt>
      <trkpt lat="42.67028999999997" lon="-2.0229340000000056">
        <ele>423.497</ele>
        <time>2022-08-25T12:49:29Z</time>
      </trkpt>
      <trkpt lat="42.67032099999997" lon="-2.0229710000000054">
        <ele>423.434</ele>
        <time>2022-08-25T12:49:30Z</time>
      </trkpt>
      <trkpt lat="42.670347999999976" lon="-2.0230120000000054">
        <ele>423.647</ele>
        <time>2022-08-25T12:49:31Z</time>
      </trkpt>
      <trkpt lat="42.67036599999997" lon="-2.0230470000000054">
        <ele>423.673</ele>
        <time>2022-08-25T12:49:32Z</time>
      </trkpt>
      <trkpt lat="42.67038599999997" lon="-2.0230930000000056">
        <ele>423.654</ele>
        <time>2022-08-25T12:49:33Z</time>
      </trkpt>
      <trkpt lat="42.670418999999974" lon="-2.0231810000000054">
        <ele>423.673</ele>
        <time>2022-08-25T12:49:35Z</time>
      </trkpt>
      <trkpt lat="42.67046199999997" lon="-2.0232630000000054">
        <ele>423.685</ele>
        <time>2022-08-25T12:49:37Z</time>
      </trkpt>
      <trkpt lat="42.67048399999997" lon="-2.023306000000005">
        <ele>423.413</ele>
        <time>2022-08-25T12:49:38Z</time>
      </trkpt>
      <trkpt lat="42.67052699999997" lon="-2.023395000000005">
        <ele>423.409</ele>
        <time>2022-08-25T12:49:40Z</time>
      </trkpt>
      <trkpt lat="42.67054899999997" lon="-2.0234400000000052">
        <ele>423.258</ele>
        <time>2022-08-25T12:49:41Z</time>
      </trkpt>
      <trkpt lat="42.67064999999997" lon="-2.0237240000000054">
        <ele>422.828</ele>
        <time>2022-08-25T12:49:47Z</time>
      </trkpt>
      <trkpt lat="42.670679999999976" lon="-2.0238190000000054">
        <ele>422.868</ele>
        <time>2022-08-25T12:49:49Z</time>
      </trkpt>
      <trkpt lat="42.67070099999997" lon="-2.023862000000005">
        <ele>422.824</ele>
        <time>2022-08-25T12:49:50Z</time>
      </trkpt>
      <trkpt lat="42.670727999999976" lon="-2.023902000000005">
        <ele>422.886</ele>
        <time>2022-08-25T12:49:51Z</time>
      </trkpt>
      <trkpt lat="42.670755999999976" lon="-2.023928000000005">
        <ele>422.823</ele>
        <time>2022-08-25T12:49:52Z</time>
      </trkpt>
      <trkpt lat="42.670792999999975" lon="-2.023950000000005">
        <ele>422.876</ele>
        <time>2022-08-25T12:49:53Z</time>
      </trkpt>
      <trkpt lat="42.67082499999997" lon="-2.023968000000005">
        <ele>422.812</ele>
        <time>2022-08-25T12:49:54Z</time>
      </trkpt>
      <trkpt lat="42.67085399999997" lon="-2.023988000000005">
        <ele>422.873</ele>
        <time>2022-08-25T12:49:55Z</time>
      </trkpt>
      <trkpt lat="42.67089399999997" lon="-2.024051000000005">
        <ele>423.094</ele>
        <time>2022-08-25T12:49:57Z</time>
      </trkpt>
      <trkpt lat="42.67089999999997" lon="-2.024098000000005">
        <ele>422.657</ele>
        <time>2022-08-25T12:49:58Z</time>
      </trkpt>
      <trkpt lat="42.67087399999997" lon="-2.024238000000005">
        <ele>422.622</ele>
        <time>2022-08-25T12:50:01Z</time>
      </trkpt>
      <trkpt lat="42.67085299999997" lon="-2.024277000000005">
        <ele>422.809</ele>
        <time>2022-08-25T12:50:02Z</time>
      </trkpt>
      <trkpt lat="42.67082499999997" lon="-2.024308000000005">
        <ele>422.850</ele>
        <time>2022-08-25T12:50:03Z</time>
      </trkpt>
      <trkpt lat="42.670792999999975" lon="-2.024337000000005">
        <ele>422.840</ele>
        <time>2022-08-25T12:50:04Z</time>
      </trkpt>
      <trkpt lat="42.67076299999997" lon="-2.024364000000005">
        <ele>422.840</ele>
        <time>2022-08-25T12:50:05Z</time>
      </trkpt>
      <trkpt lat="42.670736999999974" lon="-2.024395000000005">
        <ele>422.876</ele>
        <time>2022-08-25T12:50:06Z</time>
      </trkpt>
      <trkpt lat="42.670696999999976" lon="-2.0244790000000052">
        <ele>422.838</ele>
        <time>2022-08-25T12:50:08Z</time>
      </trkpt>
      <trkpt lat="42.67068999999998" lon="-2.0245300000000053">
        <ele>422.835</ele>
        <time>2022-08-25T12:50:09Z</time>
      </trkpt>
      <trkpt lat="42.67069499999998" lon="-2.0245760000000055">
        <ele>422.828</ele>
        <time>2022-08-25T12:50:10Z</time>
      </trkpt>
      <trkpt lat="42.67069799999998" lon="-2.0246200000000054">
        <ele>422.814</ele>
        <time>2022-08-25T12:50:11Z</time>
      </trkpt>
      <trkpt lat="42.67070499999998" lon="-2.0246600000000052">
        <ele>422.895</ele>
        <time>2022-08-25T12:50:12Z</time>
      </trkpt>
      <trkpt lat="42.67071299999998" lon="-2.0246990000000054">
        <ele>422.881</ele>
        <time>2022-08-25T12:50:13Z</time>
      </trkpt>
      <trkpt lat="42.67071799999998" lon="-2.024736000000005">
        <ele>422.661</ele>
        <time>2022-08-25T12:50:14Z</time>
      </trkpt>
      <trkpt lat="42.67071899999998" lon="-2.024776000000005">
        <ele>422.617</ele>
        <time>2022-08-25T12:50:15Z</time>
      </trkpt>
      <trkpt lat="42.67071499999998" lon="-2.0248030000000052">
        <ele>422.409</ele>
        <time>2022-08-25T12:50:16Z</time>
      </trkpt>
      <trkpt lat="42.67070999999998" lon="-2.0248220000000052">
        <ele>422.449</ele>
        <time>2022-08-25T12:50:17Z</time>
      </trkpt>
      <trkpt lat="42.67070499999998" lon="-2.024840000000005">
        <ele>422.439</ele>
        <time>2022-08-25T12:50:18Z</time>
      </trkpt>
      <trkpt lat="42.67071499999998" lon="-2.024945000000005">
        <ele>422.299</ele>
        <time>2022-08-25T12:50:21Z</time>
      </trkpt>
      <trkpt lat="42.67071399999998" lon="-2.024980000000005">
        <ele>422.235</ele>
        <time>2022-08-25T12:50:22Z</time>
      </trkpt>
      <trkpt lat="42.67070599999998" lon="-2.025057000000005">
        <ele>422.047</ele>
        <time>2022-08-25T12:50:24Z</time>
      </trkpt>
      <trkpt lat="42.670673999999984" lon="-2.025183000000005">
        <ele>421.854</ele>
        <time>2022-08-25T12:50:27Z</time>
      </trkpt>
      <trkpt lat="42.670659999999984" lon="-2.025292000000005">
        <ele>421.857</ele>
        <time>2022-08-25T12:50:29Z</time>
      </trkpt>
      <trkpt lat="42.67065799999998" lon="-2.025402000000005">
        <ele>422.023</ele>
        <time>2022-08-25T12:50:31Z</time>
      </trkpt>
      <trkpt lat="42.67064499999998" lon="-2.025468000000005">
        <ele>422.034</ele>
        <time>2022-08-25T12:50:32Z</time>
      </trkpt>
      <trkpt lat="42.67065099999998" lon="-2.025528000000005">
        <ele>422.048</ele>
        <time>2022-08-25T12:50:33Z</time>
      </trkpt>
      <trkpt lat="42.670651999999976" lon="-2.025585000000005">
        <ele>422.061</ele>
        <time>2022-08-25T12:50:34Z</time>
      </trkpt>
      <trkpt lat="42.670651999999976" lon="-2.0256410000000047">
        <ele>422.017</ele>
        <time>2022-08-25T12:50:35Z</time>
      </trkpt>
      <trkpt lat="42.67065699999998" lon="-2.0256910000000046">
        <ele>422.009</ele>
        <time>2022-08-25T12:50:36Z</time>
      </trkpt>
      <trkpt lat="42.67065099999998" lon="-2.0257380000000045">
        <ele>422.255</ele>
        <time>2022-08-25T12:50:37Z</time>
      </trkpt>
      <trkpt lat="42.67064599999998" lon="-2.0257790000000044">
        <ele>422.495</ele>
        <time>2022-08-25T12:50:38Z</time>
      </trkpt>
      <trkpt lat="42.67063999999998" lon="-2.0258150000000046">
        <ele>422.485</ele>
        <time>2022-08-25T12:50:39Z</time>
      </trkpt>
      <trkpt lat="42.67064199999998" lon="-2.0258380000000047">
        <ele>422.641</ele>
        <time>2022-08-25T12:50:40Z</time>
      </trkpt>
      <trkpt lat="42.67064999999998" lon="-2.025858000000005">
        <ele>422.643</ele>
        <time>2022-08-25T12:50:41Z</time>
      </trkpt>
      <trkpt lat="42.67066599999998" lon="-2.025906000000005">
        <ele>422.880</ele>
        <time>2022-08-25T12:50:43Z</time>
      </trkpt>
      <trkpt lat="42.67066999999998" lon="-2.0259400000000047">
        <ele>422.863</ele>
        <time>2022-08-25T12:50:44Z</time>
      </trkpt>
      <trkpt lat="42.67067199999998" lon="-2.0259810000000047">
        <ele>422.839</ele>
        <time>2022-08-25T12:50:45Z</time>
      </trkpt>
      <trkpt lat="42.670681999999985" lon="-2.0260570000000047">
        <ele>423.030</ele>
        <time>2022-08-25T12:50:47Z</time>
      </trkpt>
      <trkpt lat="42.670692999999986" lon="-2.0261010000000046">
        <ele>423.075</ele>
        <time>2022-08-25T12:50:48Z</time>
      </trkpt>
      <trkpt lat="42.670698999999985" lon="-2.0261610000000045">
        <ele>423.228</ele>
        <time>2022-08-25T12:50:49Z</time>
      </trkpt>
      <trkpt lat="42.670709999999985" lon="-2.0262220000000046">
        <ele>423.420</ele>
        <time>2022-08-25T12:50:50Z</time>
      </trkpt>
      <trkpt lat="42.67070799999998" lon="-2.0262780000000045">
        <ele>423.409</ele>
        <time>2022-08-25T12:50:51Z</time>
      </trkpt>
      <trkpt lat="42.670687999999984" lon="-2.0263330000000046">
        <ele>423.618</ele>
        <time>2022-08-25T12:50:52Z</time>
      </trkpt>
      <trkpt lat="42.67067499999998" lon="-2.0263900000000046">
        <ele>423.688</ele>
        <time>2022-08-25T12:50:53Z</time>
      </trkpt>
      <trkpt lat="42.67066699999998" lon="-2.0264460000000044">
        <ele>423.658</ele>
        <time>2022-08-25T12:50:54Z</time>
      </trkpt>
      <trkpt lat="42.67065299999998" lon="-2.0265570000000044">
        <ele>423.684</ele>
        <time>2022-08-25T12:50:56Z</time>
      </trkpt>
      <trkpt lat="42.67064099999998" lon="-2.0266140000000044">
        <ele>423.616</ele>
        <time>2022-08-25T12:50:57Z</time>
      </trkpt>
      <trkpt lat="42.67062499999998" lon="-2.0266850000000045">
        <ele>423.673</ele>
        <time>2022-08-25T12:50:58Z</time>
      </trkpt>
      <trkpt lat="42.67064399999998" lon="-2.0268940000000044">
        <ele>423.476</ele>
        <time>2022-08-25T12:51:01Z</time>
      </trkpt>
      <trkpt lat="42.67065099999998" lon="-2.0269600000000043">
        <ele>423.232</ele>
        <time>2022-08-25T12:51:02Z</time>
      </trkpt>
      <trkpt lat="42.67064699999998" lon="-2.027019000000004">
        <ele>423.283</ele>
        <time>2022-08-25T12:51:03Z</time>
      </trkpt>
      <trkpt lat="42.67062999999998" lon="-2.027064000000004">
        <ele>423.242</ele>
        <time>2022-08-25T12:51:04Z</time>
      </trkpt>
      <trkpt lat="42.670597999999984" lon="-2.027126000000004">
        <ele>423.222</ele>
        <time>2022-08-25T12:51:06Z</time>
      </trkpt>
      <trkpt lat="42.67059599999998" lon="-2.027141000000004">
        <ele>423.214</ele>
        <time>2022-08-25T12:51:07Z</time>
      </trkpt>
      <trkpt lat="42.67059899999998" lon="-2.027161000000004">
        <ele>423.209</ele>
        <time>2022-08-25T12:51:08Z</time>
      </trkpt>
      <trkpt lat="42.67061099999998" lon="-2.027221000000004">
        <ele>423.055</ele>
        <time>2022-08-25T12:51:09Z</time>
      </trkpt>
      <trkpt lat="42.67062799999998" lon="-2.027273000000004">
        <ele>423.045</ele>
        <time>2022-08-25T12:51:10Z</time>
      </trkpt>
      <trkpt lat="42.67064199999998" lon="-2.027327000000004">
        <ele>423.235</ele>
        <time>2022-08-25T12:51:11Z</time>
      </trkpt>
      <trkpt lat="42.67065299999998" lon="-2.027381000000004">
        <ele>423.221</ele>
        <time>2022-08-25T12:51:12Z</time>
      </trkpt>
      <trkpt lat="42.67065899999998" lon="-2.0275160000000043">
        <ele>423.253</ele>
        <time>2022-08-25T12:51:16Z</time>
      </trkpt>
      <trkpt lat="42.67063799999998" lon="-2.027553000000004">
        <ele>423.240</ele>
        <time>2022-08-25T12:51:17Z</time>
      </trkpt>
      <trkpt lat="42.670616999999986" lon="-2.0275790000000042">
        <ele>423.273</ele>
        <time>2022-08-25T12:51:18Z</time>
      </trkpt>
      <trkpt lat="42.67059399999999" lon="-2.0276150000000044">
        <ele>423.259</ele>
        <time>2022-08-25T12:51:19Z</time>
      </trkpt>
      <trkpt lat="42.67058799999999" lon="-2.0276410000000045">
        <ele>423.250</ele>
        <time>2022-08-25T12:51:20Z</time>
      </trkpt>
      <trkpt lat="42.670591999999985" lon="-2.0276770000000046">
        <ele>423.435</ele>
        <time>2022-08-25T12:51:21Z</time>
      </trkpt>
      <trkpt lat="42.670594999999985" lon="-2.0276870000000047">
        <ele>423.486</ele>
        <time>2022-08-25T12:51:22Z</time>
      </trkpt>
      <trkpt lat="42.67058699999998" lon="-2.0277110000000045">
        <ele>423.614</ele>
        <time>2022-08-25T12:51:23Z</time>
      </trkpt>
      <trkpt lat="42.67057099999998" lon="-2.0277450000000043">
        <ele>423.809</ele>
        <time>2022-08-25T12:51:24Z</time>
      </trkpt>
      <trkpt lat="42.67056599999998" lon="-2.027801000000004">
        <ele>424.024</ele>
        <time>2022-08-25T12:51:25Z</time>
      </trkpt>
      <trkpt lat="42.67057799999998" lon="-2.0278590000000043">
        <ele>424.074</ele>
        <time>2022-08-25T12:51:26Z</time>
      </trkpt>
      <trkpt lat="42.67058599999998" lon="-2.0279190000000042">
        <ele>424.034</ele>
        <time>2022-08-25T12:51:27Z</time>
      </trkpt>
      <trkpt lat="42.67059799999998" lon="-2.027976000000004">
        <ele>424.080</ele>
        <time>2022-08-25T12:51:28Z</time>
      </trkpt>
      <trkpt lat="42.670601999999974" lon="-2.0280280000000044">
        <ele>424.212</ele>
        <time>2022-08-25T12:51:29Z</time>
      </trkpt>
      <trkpt lat="42.670601999999974" lon="-2.0280600000000044">
        <ele>424.239</ele>
        <time>2022-08-25T12:51:30Z</time>
      </trkpt>
      <trkpt lat="42.670601999999974" lon="-2.0280990000000045">
        <ele>424.452</ele>
        <time>2022-08-25T12:51:31Z</time>
      </trkpt>
      <trkpt lat="42.670603999999976" lon="-2.0281600000000046">
        <ele>424.428</ele>
        <time>2022-08-25T12:51:32Z</time>
      </trkpt>
      <trkpt lat="42.670617999999976" lon="-2.0282070000000045">
        <ele>424.889</ele>
        <time>2022-08-25T12:51:33Z</time>
      </trkpt>
      <trkpt lat="42.67062499999997" lon="-2.0282370000000047">
        <ele>424.886</ele>
        <time>2022-08-25T12:51:34Z</time>
      </trkpt>
      <trkpt lat="42.670620999999976" lon="-2.0282810000000047">
        <ele>425.060</ele>
        <time>2022-08-25T12:51:35Z</time>
      </trkpt>
      <trkpt lat="42.67058599999998" lon="-2.0283860000000047">
        <ele>425.426</ele>
        <time>2022-08-25T12:51:37Z</time>
      </trkpt>
      <trkpt lat="42.670606999999976" lon="-2.028432000000005">
        <ele>425.609</ele>
        <time>2022-08-25T12:51:38Z</time>
      </trkpt>
      <trkpt lat="42.670713999999975" lon="-2.028591000000005">
        <ele>425.869</ele>
        <time>2022-08-25T12:51:43Z</time>
      </trkpt>
      <trkpt lat="42.670789999999975" lon="-2.0287360000000048">
        <ele>425.879</ele>
        <time>2022-08-25T12:51:48Z</time>
      </trkpt>
      <trkpt lat="42.67079799999998" lon="-2.0287740000000047">
        <ele>425.669</ele>
        <time>2022-08-25T12:51:49Z</time>
      </trkpt>
      <trkpt lat="42.670806999999975" lon="-2.0288780000000046">
        <ele>425.465</ele>
        <time>2022-08-25T12:51:51Z</time>
      </trkpt>
      <trkpt lat="42.67081399999997" lon="-2.0289360000000047">
        <ele>424.827</ele>
        <time>2022-08-25T12:51:52Z</time>
      </trkpt>
      <trkpt lat="42.670815999999974" lon="-2.028988000000005">
        <ele>424.884</ele>
        <time>2022-08-25T12:51:53Z</time>
      </trkpt>
      <trkpt lat="42.67083899999997" lon="-2.029109000000005">
        <ele>424.627</ele>
        <time>2022-08-25T12:51:55Z</time>
      </trkpt>
      <trkpt lat="42.67085599999997" lon="-2.029167000000005">
        <ele>424.463</ele>
        <time>2022-08-25T12:51:56Z</time>
      </trkpt>
      <trkpt lat="42.67087299999997" lon="-2.029228000000005">
        <ele>424.214</ele>
        <time>2022-08-25T12:51:57Z</time>
      </trkpt>
      <trkpt lat="42.67089099999997" lon="-2.029292000000005">
        <ele>424.253</ele>
        <time>2022-08-25T12:51:58Z</time>
      </trkpt>
      <trkpt lat="42.67087999999997" lon="-2.0293340000000053">
        <ele>423.804</ele>
        <time>2022-08-25T12:51:59Z</time>
      </trkpt>
      <trkpt lat="42.670846999999966" lon="-2.0293970000000052">
        <ele>423.414</ele>
        <time>2022-08-25T12:52:00Z</time>
      </trkpt>
      <trkpt lat="42.67082699999997" lon="-2.0294990000000053">
        <ele>423.409</ele>
        <time>2022-08-25T12:52:01Z</time>
      </trkpt>
      <trkpt lat="42.67082599999997" lon="-2.029511000000005">
        <ele>423.286</ele>
        <time>2022-08-25T12:52:02Z</time>
      </trkpt>
      <trkpt lat="42.67082599999997" lon="-2.029511000000005">
        <ele>423.236</ele>
        <time>2022-08-25T12:52:03Z</time>
      </trkpt>
      <trkpt lat="42.67084399999997" lon="-2.029565000000005">
        <ele>423.036</ele>
        <time>2022-08-25T12:52:05Z</time>
      </trkpt>
      <trkpt lat="42.67085399999997" lon="-2.0296100000000052">
        <ele>422.842</ele>
        <time>2022-08-25T12:52:06Z</time>
      </trkpt>
      <trkpt lat="42.67085899999997" lon="-2.0296550000000053">
        <ele>422.674</ele>
        <time>2022-08-25T12:52:07Z</time>
      </trkpt>
      <trkpt lat="42.670860999999974" lon="-2.0297060000000053">
        <ele>422.631</ele>
        <time>2022-08-25T12:52:08Z</time>
      </trkpt>
      <trkpt lat="42.67087299999997" lon="-2.029743000000005">
        <ele>422.674</ele>
        <time>2022-08-25T12:52:09Z</time>
      </trkpt>
      <trkpt lat="42.67088999999997" lon="-2.0297910000000052">
        <ele>422.610</ele>
        <time>2022-08-25T12:52:10Z</time>
      </trkpt>
      <trkpt lat="42.67090499999997" lon="-2.0298360000000053">
        <ele>422.631</ele>
        <time>2022-08-25T12:52:11Z</time>
      </trkpt>
      <trkpt lat="42.67097399999997" lon="-2.0300790000000055">
        <ele>422.633</ele>
        <time>2022-08-25T12:52:14Z</time>
      </trkpt>
      <trkpt lat="42.67105699999997" lon="-2.0302420000000057">
        <ele>422.823</ele>
        <time>2022-08-25T12:52:17Z</time>
      </trkpt>
      <trkpt lat="42.67107399999997" lon="-2.0303020000000056">
        <ele>422.815</ele>
        <time>2022-08-25T12:52:18Z</time>
      </trkpt>
      <trkpt lat="42.671074999999966" lon="-2.0303240000000056">
        <ele>422.809</ele>
        <time>2022-08-25T12:52:19Z</time>
      </trkpt>
      <trkpt lat="42.671091999999966" lon="-2.0303550000000055">
        <ele>423.054</ele>
        <time>2022-08-25T12:52:20Z</time>
      </trkpt>
      <trkpt lat="42.67112399999996" lon="-2.0303880000000056">
        <ele>423.024</ele>
        <time>2022-08-25T12:52:21Z</time>
      </trkpt>
      <trkpt lat="42.67113399999997" lon="-2.0304270000000058">
        <ele>423.234</ele>
        <time>2022-08-25T12:52:22Z</time>
      </trkpt>
      <trkpt lat="42.671131999999965" lon="-2.0304840000000057">
        <ele>423.440</ele>
        <time>2022-08-25T12:52:23Z</time>
      </trkpt>
      <trkpt lat="42.671137999999964" lon="-2.0305510000000058">
        <ele>423.482</ele>
        <time>2022-08-25T12:52:24Z</time>
      </trkpt>
      <trkpt lat="42.67117299999996" lon="-2.0306080000000057">
        <ele>423.499</ele>
        <time>2022-08-25T12:52:25Z</time>
      </trkpt>
      <trkpt lat="42.67119099999996" lon="-2.0306480000000056">
        <ele>423.412</ele>
        <time>2022-08-25T12:52:26Z</time>
      </trkpt>
      <trkpt lat="42.67119599999996" lon="-2.0307600000000057">
        <ele>423.428</ele>
        <time>2022-08-25T12:52:29Z</time>
      </trkpt>
      <trkpt lat="42.67122299999996" lon="-2.0308030000000055">
        <ele>423.669</ele>
        <time>2022-08-25T12:52:30Z</time>
      </trkpt>
      <trkpt lat="42.67125699999996" lon="-2.0308240000000053">
        <ele>423.695</ele>
        <time>2022-08-25T12:52:31Z</time>
      </trkpt>
      <trkpt lat="42.67132699999996" lon="-2.0309200000000054">
        <ele>423.649</ele>
        <time>2022-08-25T12:52:33Z</time>
      </trkpt>
      <trkpt lat="42.67134399999996" lon="-2.0309500000000056">
        <ele>423.623</ele>
        <time>2022-08-25T12:52:34Z</time>
      </trkpt>
      <trkpt lat="42.671353999999965" lon="-2.0309850000000056">
        <ele>423.609</ele>
        <time>2022-08-25T12:52:35Z</time>
      </trkpt>
      <trkpt lat="42.67136099999996" lon="-2.0309970000000055">
        <ele>423.660</ele>
        <time>2022-08-25T12:52:36Z</time>
      </trkpt>
      <trkpt lat="42.67135899999996" lon="-2.0310040000000056">
        <ele>423.640</ele>
        <time>2022-08-25T12:52:37Z</time>
      </trkpt>
      <trkpt lat="42.67135199999996" lon="-2.0310570000000054">
        <ele>423.870</ele>
        <time>2022-08-25T12:52:39Z</time>
      </trkpt>
      <trkpt lat="42.671342999999965" lon="-2.0310910000000053">
        <ele>423.886</ele>
        <time>2022-08-25T12:52:40Z</time>
      </trkpt>
      <trkpt lat="42.67133799999996" lon="-2.0311210000000055">
        <ele>424.038</ele>
        <time>2022-08-25T12:52:41Z</time>
      </trkpt>
      <trkpt lat="42.671362999999964" lon="-2.0311980000000056">
        <ele>424.265</ele>
        <time>2022-08-25T12:52:43Z</time>
      </trkpt>
      <trkpt lat="42.67136599999996" lon="-2.0312390000000056">
        <ele>424.268</ele>
        <time>2022-08-25T12:52:44Z</time>
      </trkpt>
      <trkpt lat="42.67137599999997" lon="-2.0312810000000057">
        <ele>424.274</ele>
        <time>2022-08-25T12:52:45Z</time>
      </trkpt>
      <trkpt lat="42.67140099999997" lon="-2.0313370000000055">
        <ele>424.235</ele>
        <time>2022-08-25T12:52:46Z</time>
      </trkpt>
      <trkpt lat="42.67142599999997" lon="-2.0313810000000054">
        <ele>424.249</ele>
        <time>2022-08-25T12:52:47Z</time>
      </trkpt>
      <trkpt lat="42.67143999999997" lon="-2.0314220000000054">
        <ele>424.402</ele>
        <time>2022-08-25T12:52:48Z</time>
      </trkpt>
      <trkpt lat="42.67144199999997" lon="-2.0314520000000056">
        <ele>424.422</ele>
        <time>2022-08-25T12:52:49Z</time>
      </trkpt>
      <trkpt lat="42.67144399999997" lon="-2.0314560000000057">
        <ele>424.409</ele>
        <time>2022-08-25T12:52:50Z</time>
      </trkpt>
      <trkpt lat="42.67144399999997" lon="-2.0314650000000056">
        <ele>424.455</ele>
        <time>2022-08-25T12:52:51Z</time>
      </trkpt>
      <trkpt lat="42.67144999999997" lon="-2.0314740000000056">
        <ele>424.435</ele>
        <time>2022-08-25T12:52:52Z</time>
      </trkpt>
      <trkpt lat="42.67145499999997" lon="-2.0314920000000054">
        <ele>424.485</ele>
        <time>2022-08-25T12:52:53Z</time>
      </trkpt>
      <trkpt lat="42.671464999999976" lon="-2.0315450000000053">
        <ele>424.471</ele>
        <time>2022-08-25T12:52:55Z</time>
      </trkpt>
      <trkpt lat="42.67148599999997" lon="-2.0316540000000054">
        <ele>424.683</ele>
        <time>2022-08-25T12:52:58Z</time>
      </trkpt>
      <trkpt lat="42.671510999999974" lon="-2.0317010000000053">
        <ele>424.890</ele>
        <time>2022-08-25T12:52:59Z</time>
      </trkpt>
      <trkpt lat="42.671527999999974" lon="-2.0317420000000053">
        <ele>424.863</ele>
        <time>2022-08-25T12:53:00Z</time>
      </trkpt>
      <trkpt lat="42.67153499999997" lon="-2.031786000000005">
        <ele>424.839</ele>
        <time>2022-08-25T12:53:01Z</time>
      </trkpt>
      <trkpt lat="42.67153599999997" lon="-2.0318340000000052">
        <ele>424.870</ele>
        <time>2022-08-25T12:53:02Z</time>
      </trkpt>
      <trkpt lat="42.67155499999997" lon="-2.031919000000005">
        <ele>424.815</ele>
        <time>2022-08-25T12:53:03Z</time>
      </trkpt>
      <trkpt lat="42.67157799999997" lon="-2.0319800000000052">
        <ele>425.065</ele>
        <time>2022-08-25T12:53:04Z</time>
      </trkpt>
      <trkpt lat="42.67157699999997" lon="-2.032024000000005">
        <ele>425.011</ele>
        <time>2022-08-25T12:53:05Z</time>
      </trkpt>
      <trkpt lat="42.67156499999997" lon="-2.032052000000005">
        <ele>425.009</ele>
        <time>2022-08-25T12:53:06Z</time>
      </trkpt>
      <trkpt lat="42.671355999999975" lon="-2.032175000000005">
        <ele>424.622</ele>
        <time>2022-08-25T12:53:11Z</time>
      </trkpt>
      <trkpt lat="42.67132399999998" lon="-2.032184000000005">
        <ele>424.862</ele>
        <time>2022-08-25T12:53:12Z</time>
      </trkpt>
      <trkpt lat="42.67129199999998" lon="-2.032194000000005">
        <ele>424.832</ele>
        <time>2022-08-25T12:53:13Z</time>
      </trkpt>
      <trkpt lat="42.67128999999998" lon="-2.032220000000005">
        <ele>424.818</ele>
        <time>2022-08-25T12:53:14Z</time>
      </trkpt>
      <trkpt lat="42.671298999999976" lon="-2.032251000000005">
        <ele>424.810</ele>
        <time>2022-08-25T12:53:15Z</time>
      </trkpt>
      <trkpt lat="42.671296999999974" lon="-2.032257000000005">
        <ele>424.667</ele>
        <time>2022-08-25T12:53:16Z</time>
      </trkpt>
      <trkpt lat="42.671296999999974" lon="-2.0322690000000048">
        <ele>424.650</ele>
        <time>2022-08-25T12:53:17Z</time>
      </trkpt>
      <trkpt lat="42.67125899999997" lon="-2.0323040000000048">
        <ele>424.676</ele>
        <time>2022-08-25T12:53:20Z</time>
      </trkpt>
      <trkpt lat="42.67112399999997" lon="-2.0324020000000047">
        <ele>424.267</ele>
        <time>2022-08-25T12:53:25Z</time>
      </trkpt>
      <trkpt lat="42.67106899999997" lon="-2.0324430000000047">
        <ele>424.283</ele>
        <time>2022-08-25T12:53:27Z</time>
      </trkpt>
      <trkpt lat="42.67100699999997" lon="-2.0324770000000045">
        <ele>424.225</ele>
        <time>2022-08-25T12:53:29Z</time>
      </trkpt>
      <trkpt lat="42.67098099999997" lon="-2.0324960000000045">
        <ele>424.417</ele>
        <time>2022-08-25T12:53:30Z</time>
      </trkpt>
      <trkpt lat="42.67095599999997" lon="-2.0325150000000045">
        <ele>424.209</ele>
        <time>2022-08-25T12:53:31Z</time>
      </trkpt>
      <trkpt lat="42.67085699999997" lon="-2.0325970000000044">
        <ele>424.469</ele>
        <time>2022-08-25T12:53:35Z</time>
      </trkpt>
      <trkpt lat="42.67083499999997" lon="-2.0326190000000044">
        <ele>424.469</ele>
        <time>2022-08-25T12:53:36Z</time>
      </trkpt>
      <trkpt lat="42.67082099999997" lon="-2.0326370000000042">
        <ele>424.429</ele>
        <time>2022-08-25T12:53:37Z</time>
      </trkpt>
      <trkpt lat="42.670804999999966" lon="-2.032655000000004">
        <ele>424.455</ele>
        <time>2022-08-25T12:53:38Z</time>
      </trkpt>
      <trkpt lat="42.67078699999997" lon="-2.032668000000004">
        <ele>424.417</ele>
        <time>2022-08-25T12:53:39Z</time>
      </trkpt>
      <trkpt lat="42.670745999999966" lon="-2.032696000000004">
        <ele>424.674</ele>
        <time>2022-08-25T12:53:41Z</time>
      </trkpt>
      <trkpt lat="42.67072299999997" lon="-2.032709000000004">
        <ele>424.677</ele>
        <time>2022-08-25T12:53:42Z</time>
      </trkpt>
      <trkpt lat="42.67069999999997" lon="-2.0327230000000043">
        <ele>424.643</ele>
        <time>2022-08-25T12:53:43Z</time>
      </trkpt>
      <trkpt lat="42.670624999999966" lon="-2.0327720000000045">
        <ele>424.634</ele>
        <time>2022-08-25T12:53:46Z</time>
      </trkpt>
      <trkpt lat="42.670596999999965" lon="-2.0327830000000047">
        <ele>424.878</ele>
        <time>2022-08-25T12:53:47Z</time>
      </trkpt>
      <trkpt lat="42.67056699999996" lon="-2.0327990000000047">
        <ele>424.833</ele>
        <time>2022-08-25T12:53:48Z</time>
      </trkpt>
      <trkpt lat="42.67054199999996" lon="-2.0328140000000046">
        <ele>424.826</ele>
        <time>2022-08-25T12:53:49Z</time>
      </trkpt>
      <trkpt lat="42.67051699999996" lon="-2.0328280000000047">
        <ele>424.809</ele>
        <time>2022-08-25T12:53:50Z</time>
      </trkpt>
      <trkpt lat="42.67042799999996" lon="-2.032876000000005">
        <ele>424.638</ele>
        <time>2022-08-25T12:53:53Z</time>
      </trkpt>
      <trkpt lat="42.67039699999996" lon="-2.0329230000000047">
        <ele>424.638</ele>
        <time>2022-08-25T12:53:55Z</time>
      </trkpt>
      <trkpt lat="42.67039999999996" lon="-2.032953000000005">
        <ele>424.838</ele>
        <time>2022-08-25T12:53:56Z</time>
      </trkpt>
      <trkpt lat="42.67040499999996" lon="-2.032984000000005">
        <ele>424.864</ele>
        <time>2022-08-25T12:53:57Z</time>
      </trkpt>
      <trkpt lat="42.67040799999996" lon="-2.033014000000005">
        <ele>424.886</ele>
        <time>2022-08-25T12:53:58Z</time>
      </trkpt>
      <trkpt lat="42.67040899999996" lon="-2.033043000000005">
        <ele>425.043</ele>
        <time>2022-08-25T12:53:59Z</time>
      </trkpt>
      <trkpt lat="42.67040799999996" lon="-2.033069000000005">
        <ele>425.066</ele>
        <time>2022-08-25T12:54:00Z</time>
      </trkpt>
      <trkpt lat="42.67040799999996" lon="-2.033093000000005">
        <ele>425.042</ele>
        <time>2022-08-25T12:54:01Z</time>
      </trkpt>
      <trkpt lat="42.67040999999996" lon="-2.033126000000005">
        <ele>424.873</ele>
        <time>2022-08-25T12:54:02Z</time>
      </trkpt>
      <trkpt lat="42.67041499999996" lon="-2.0331590000000053">
        <ele>424.874</ele>
        <time>2022-08-25T12:54:03Z</time>
      </trkpt>
      <trkpt lat="42.67041599999996" lon="-2.0332160000000052">
        <ele>424.856</ele>
        <time>2022-08-25T12:54:05Z</time>
      </trkpt>
      <trkpt lat="42.67042699999996" lon="-2.0332360000000054">
        <ele>424.821</ele>
        <time>2022-08-25T12:54:06Z</time>
      </trkpt>
      <trkpt lat="42.67043299999996" lon="-2.0332530000000055">
        <ele>425.009</ele>
        <time>2022-08-25T12:54:07Z</time>
      </trkpt>
      <trkpt lat="42.67044199999996" lon="-2.0332730000000057">
        <ele>425.068</ele>
        <time>2022-08-25T12:54:08Z</time>
      </trkpt>
      <trkpt lat="42.67043699999996" lon="-2.0332890000000057">
        <ele>424.878</ele>
        <time>2022-08-25T12:54:09Z</time>
      </trkpt>
      <trkpt lat="42.67043099999996" lon="-2.033309000000006">
        <ele>424.888</ele>
        <time>2022-08-25T12:54:10Z</time>
      </trkpt>
      <trkpt lat="42.67043099999996" lon="-2.033326000000006">
        <ele>424.884</ele>
        <time>2022-08-25T12:54:11Z</time>
      </trkpt>
      <trkpt lat="42.67042399999996" lon="-2.033341000000006">
        <ele>425.066</ele>
        <time>2022-08-25T12:54:12Z</time>
      </trkpt>
      <trkpt lat="42.67041899999996" lon="-2.033360000000006">
        <ele>425.023</ele>
        <time>2022-08-25T12:54:13Z</time>
      </trkpt>
      <trkpt lat="42.67041699999996" lon="-2.033374000000006">
        <ele>425.076</ele>
        <time>2022-08-25T12:54:14Z</time>
      </trkpt>
      <trkpt lat="42.67041099999996" lon="-2.033387000000006">
        <ele>425.012</ele>
        <time>2022-08-25T12:54:17Z</time>
      </trkpt>
      <trkpt lat="42.67041099999996" lon="-2.033387000000006">
        <ele>425.033</ele>
        <time>2022-08-25T12:54:18Z</time>
      </trkpt>
      <trkpt lat="42.67041299999996" lon="-2.033387000000006">
        <ele>424.473</ele>
        <time>2022-08-25T12:54:52Z</time>
      </trkpt>
      <trkpt lat="42.67041399999996" lon="-2.033357000000006">
        <ele>424.485</ele>
        <time>2022-08-25T12:54:54Z</time>
      </trkpt>
      <trkpt lat="42.670414999999956" lon="-2.0333270000000057">
        <ele>424.413</ele>
        <time>2022-08-25T12:54:56Z</time>
      </trkpt>
      <trkpt lat="42.67041699999996" lon="-2.033319000000006">
        <ele>424.409</ele>
        <time>2022-08-25T12:54:57Z</time>
      </trkpt>
      <trkpt lat="42.67041699999996" lon="-2.033319000000006">
        <ele>424.418</ele>
        <time>2022-08-25T12:54:58Z</time>
      </trkpt>
      <trkpt lat="42.670414999999956" lon="-2.033303000000006">
        <ele>424.468</ele>
        <time>2022-08-25T12:55:00Z</time>
      </trkpt>
      <trkpt lat="42.67041399999996" lon="-2.033288000000006">
        <ele>424.448</ele>
        <time>2022-08-25T12:55:01Z</time>
      </trkpt>
      <trkpt lat="42.67040899999996" lon="-2.033258000000006">
        <ele>424.484</ele>
        <time>2022-08-25T12:55:03Z</time>
      </trkpt>
      <trkpt lat="42.67040599999996" lon="-2.0332410000000056">
        <ele>424.446</ele>
        <time>2022-08-25T12:55:04Z</time>
      </trkpt>
      <trkpt lat="42.67040299999996" lon="-2.0332310000000056">
        <ele>424.443</ele>
        <time>2022-08-25T12:55:05Z</time>
      </trkpt>
      <trkpt lat="42.67039599999996" lon="-2.0332280000000056">
        <ele>424.486</ele>
        <time>2022-08-25T12:55:06Z</time>
      </trkpt>
      <trkpt lat="42.67039299999996" lon="-2.0332250000000056">
        <ele>424.442</ele>
        <time>2022-08-25T12:55:07Z</time>
      </trkpt>
      <trkpt lat="42.67039299999996" lon="-2.0332230000000058">
        <ele>424.433</ele>
        <time>2022-08-25T12:55:08Z</time>
      </trkpt>
      <trkpt lat="42.67039299999996" lon="-2.0332230000000058">
        <ele>424.477</ele>
        <time>2022-08-25T12:55:09Z</time>
      </trkpt>
      <trkpt lat="42.670394999999964" lon="-2.0332190000000057">
        <ele>424.661</ele>
        <time>2022-08-25T12:55:14Z</time>
      </trkpt>
      <trkpt lat="42.670394999999964" lon="-2.033220000000006">
        <ele>424.627</ele>
        <time>2022-08-25T12:55:15Z</time>
      </trkpt>
      <trkpt lat="42.670396999999966" lon="-2.033224000000006">
        <ele>424.609</ele>
        <time>2022-08-25T12:55:16Z</time>
      </trkpt>
      <trkpt lat="42.670396999999966" lon="-2.033224000000006">
        <ele>424.698</ele>
        <time>2022-08-25T12:55:17Z</time>
      </trkpt>
      <trkpt lat="42.670396999999966" lon="-2.033224000000006">
        <ele>424.628</ele>
        <time>2022-08-25T12:55:18Z</time>
      </trkpt>
      <trkpt lat="42.67040099999996" lon="-2.033241000000006">
        <ele>424.668</ele>
        <time>2022-08-25T12:55:21Z</time>
      </trkpt>
      <trkpt lat="43.092558" lon="-1.302187">
        <ele>365.253</ele>
        <time>2022-08-23T16:26:29Z</time>
      </trkpt>
      <trkpt lat="43.09256499999999" lon="-1.302171">
        <ele>371.004</ele>
        <time>2022-08-23T16:26:30Z</time>
      </trkpt>
      <trkpt lat="43.09257199999999" lon="-1.302153">
        <ele>370.814</ele>
        <time>2022-08-23T16:26:31Z</time>
      </trkpt>
      <trkpt lat="43.09258699999999" lon="-1.3021319999999998">
        <ele>371.009</ele>
        <time>2022-08-23T16:26:32Z</time>
      </trkpt>
      <trkpt lat="43.09261499999999" lon="-1.3021049999999998">
        <ele>370.836</ele>
        <time>2022-08-23T16:26:33Z</time>
      </trkpt>
      <trkpt lat="43.09265099999999" lon="-1.3020749999999999">
        <ele>370.856</ele>
        <time>2022-08-23T16:26:34Z</time>
      </trkpt>
      <trkpt lat="43.09268999999999" lon="-1.3020409999999998">
        <ele>370.866</ele>
        <time>2022-08-23T16:26:35Z</time>
      </trkpt>
      <trkpt lat="43.092727999999994" lon="-1.3020039999999997">
        <ele>370.822</ele>
        <time>2022-08-23T16:26:36Z</time>
      </trkpt>
      <trkpt lat="43.09276299999999" lon="-1.3019639999999997">
        <ele>370.824</ele>
        <time>2022-08-23T16:26:37Z</time>
      </trkpt>
      <trkpt lat="43.09279299999999" lon="-1.3019259999999997">
        <ele>370.831</ele>
        <time>2022-08-23T16:26:38Z</time>
      </trkpt>
      <trkpt lat="43.09282799999999" lon="-1.3018859999999997">
        <ele>370.873</ele>
        <time>2022-08-23T16:26:39Z</time>
      </trkpt>
      <trkpt lat="43.09286399999999" lon="-1.3018409999999996">
        <ele>370.673</ele>
        <time>2022-08-23T16:26:40Z</time>
      </trkpt>
      <trkpt lat="43.09290099999999" lon="-1.3017919999999996">
        <ele>370.622</ele>
        <time>2022-08-23T16:26:41Z</time>
      </trkpt>
      <trkpt lat="43.09293799999999" lon="-1.3017369999999997">
        <ele>370.435</ele>
        <time>2022-08-23T16:26:42Z</time>
      </trkpt>
      <trkpt lat="43.09297499999999" lon="-1.3016779999999997">
        <ele>370.486</ele>
        <time>2022-08-23T16:26:43Z</time>
      </trkpt>
      <trkpt lat="43.09301099999999" lon="-1.3016129999999997">
        <ele>370.214</ele>
        <time>2022-08-23T16:26:44Z</time>
      </trkpt>
      <trkpt lat="43.09304999999999" lon="-1.3015379999999996">
        <ele>370.209</ele>
        <time>2022-08-23T16:26:45Z</time>
      </trkpt>
      <trkpt lat="43.093090999999994" lon="-1.3014579999999996">
        <ele>370.074</ele>
        <time>2022-08-23T16:26:46Z</time>
      </trkpt>
      <trkpt lat="43.09312799999999" lon="-1.3013729999999997">
        <ele>369.634</ele>
        <time>2022-08-23T16:26:47Z</time>
      </trkpt>
      <trkpt lat="43.09316299999999" lon="-1.3012859999999997">
        <ele>369.424</ele>
        <time>2022-08-23T16:26:48Z</time>
      </trkpt>
      <trkpt lat="43.09319499999999" lon="-1.3011999999999997">
        <ele>369.230</ele>
        <time>2022-08-23T16:26:49Z</time>
      </trkpt>
      <trkpt lat="43.093229999999984" lon="-1.3011169999999996">
        <ele>369.072</ele>
        <time>2022-08-23T16:26:50Z</time>
      </trkpt>
      <trkpt lat="43.093268999999985" lon="-1.3010379999999997">
        <ele>368.269</ele>
        <time>2022-08-23T16:26:51Z</time>
      </trkpt>
      <trkpt lat="43.09330199999999" lon="-1.3009529999999998">
        <ele>367.841</ele>
        <time>2022-08-23T16:26:52Z</time>
      </trkpt>
      <trkpt lat="43.09333199999999" lon="-1.3008629999999999">
        <ele>367.061</ele>
        <time>2022-08-23T16:26:53Z</time>
      </trkpt>
      <trkpt lat="43.09338499999999" lon="-1.3006779999999998">
        <ele>366.250</ele>
        <time>2022-08-23T16:26:55Z</time>
      </trkpt>
      <trkpt lat="43.09341099999999" lon="-1.3005869999999997">
        <ele>365.483</ele>
        <time>2022-08-23T16:26:56Z</time>
      </trkpt>
      <trkpt lat="43.09343999999999" lon="-1.3004949999999997">
        <ele>365.225</ele>
        <time>2022-08-23T16:26:57Z</time>
      </trkpt>
      <trkpt lat="43.093474999999984" lon="-1.3004059999999997">
        <ele>364.217</ele>
        <time>2022-08-23T16:26:58Z</time>
      </trkpt>
      <trkpt lat="43.09356099999999" lon="-1.3002159999999998">
        <ele>362.409</ele>
        <time>2022-08-23T16:27:00Z</time>
      </trkpt>
      <trkpt lat="43.093640999999984" lon="-1.3000289999999999">
        <ele>361.469</ele>
        <time>2022-08-23T16:27:02Z</time>
      </trkpt>
      <trkpt lat="43.09371799999998" lon="-1.2998159999999999">
        <ele>360.059</ele>
        <time>2022-08-23T16:27:04Z</time>
      </trkpt>
      <trkpt lat="43.09374699999998" lon="-1.2997269999999999">
        <ele>359.229</ele>
        <time>2022-08-23T16:27:05Z</time>
      </trkpt>
      <trkpt lat="43.09377799999998" lon="-1.2996159999999999">
        <ele>358.265</ele>
        <time>2022-08-23T16:27:06Z</time>
      </trkpt>
      <trkpt lat="43.09382399999998" lon="-1.2994839999999999">
        <ele>358.087</ele>
        <time>2022-08-23T16:27:07Z</time>
      </trkpt>
      <trkpt lat="43.09392999999998" lon="-1.299289">
        <ele>357.084</ele>
        <time>2022-08-23T16:27:09Z</time>
      </trkpt>
      <trkpt lat="43.093995999999976" lon="-1.299207">
        <ele>355.816</ele>
        <time>2022-08-23T16:27:10Z</time>
      </trkpt>
      <trkpt lat="43.094128999999974" lon="-1.299073">
        <ele>354.696</ele>
        <time>2022-08-23T16:27:12Z</time>
      </trkpt>
      <trkpt lat="43.09421699999997" lon="-1.298992">
        <ele>354.075</ele>
        <time>2022-08-23T16:27:13Z</time>
      </trkpt>
      <trkpt lat="43.094370999999974" lon="-1.298868">
        <ele>352.895</ele>
        <time>2022-08-23T16:27:15Z</time>
      </trkpt>
      <trkpt lat="43.09461899999997" lon="-1.298716">
        <ele>351.849</ele>
        <time>2022-08-23T16:27:18Z</time>
      </trkpt>
      <trkpt lat="43.09470399999997" lon="-1.298672">
        <ele>350.823</ele>
        <time>2022-08-23T16:27:19Z</time>
      </trkpt>
      <trkpt lat="43.09494899999997" lon="-1.298559">
        <ele>349.009</ele>
        <time>2022-08-23T16:27:22Z</time>
      </trkpt>
      <trkpt lat="43.095141999999974" lon="-1.2984660000000001">
        <ele>347.860</ele>
        <time>2022-08-23T16:27:24Z</time>
      </trkpt>
      <trkpt lat="43.09523099999998" lon="-1.298418">
        <ele>347.610</ele>
        <time>2022-08-23T16:27:25Z</time>
      </trkpt>
      <trkpt lat="43.095298999999976" lon="-1.298369">
        <ele>347.060</ele>
        <time>2022-08-23T16:27:26Z</time>
      </trkpt>
      <trkpt lat="43.095380999999975" lon="-1.298299">
        <ele>346.466</ele>
        <time>2022-08-23T16:27:27Z</time>
      </trkpt>
      <trkpt lat="43.09554299999998" lon="-1.2981500000000001">
        <ele>345.288</ele>
        <time>2022-08-23T16:27:29Z</time>
      </trkpt>
      <trkpt lat="43.09570499999998" lon="-1.2979930000000002">
        <ele>343.885</ele>
        <time>2022-08-23T16:27:31Z</time>
      </trkpt>
      <trkpt lat="43.09587099999998" lon="-1.2978300000000003">
        <ele>342.697</ele>
        <time>2022-08-23T16:27:33Z</time>
      </trkpt>
      <trkpt lat="43.09604299999998" lon="-1.2976710000000002">
        <ele>341.887</ele>
        <time>2022-08-23T16:27:35Z</time>
      </trkpt>
      <trkpt lat="43.09612699999998" lon="-1.2975920000000003">
        <ele>341.026</ele>
        <time>2022-08-23T16:27:36Z</time>
      </trkpt>
      <trkpt lat="43.09621399999998" lon="-1.2975240000000003">
        <ele>340.422</ele>
        <time>2022-08-23T16:27:37Z</time>
      </trkpt>
      <trkpt lat="43.096302999999985" lon="-1.2974690000000004">
        <ele>339.662</ele>
        <time>2022-08-23T16:27:38Z</time>
      </trkpt>
      <trkpt lat="43.09661599999998" lon="-1.2973520000000005">
        <ele>338.208</ele>
        <time>2022-08-23T16:27:41Z</time>
      </trkpt>
      <trkpt lat="43.09669599999998" lon="-1.2973230000000004">
        <ele>337.809</ele>
        <time>2022-08-23T16:27:42Z</time>
      </trkpt>
      <trkpt lat="43.09679299999998" lon="-1.2972890000000004">
        <ele>336.853</ele>
        <time>2022-08-23T16:27:43Z</time>
      </trkpt>
      <trkpt lat="43.096894999999975" lon="-1.2972380000000003">
        <ele>336.473</ele>
        <time>2022-08-23T16:27:44Z</time>
      </trkpt>
      <trkpt lat="43.096962999999974" lon="-1.2971890000000004">
        <ele>335.433</ele>
        <time>2022-08-23T16:27:45Z</time>
      </trkpt>
      <trkpt lat="43.09701099999997" lon="-1.2971330000000003">
        <ele>334.889</ele>
        <time>2022-08-23T16:27:46Z</time>
      </trkpt>
      <trkpt lat="43.097021999999974" lon="-1.2970820000000003">
        <ele>334.241</ele>
        <time>2022-08-23T16:27:47Z</time>
      </trkpt>
      <trkpt lat="43.09700899999997" lon="-1.2970140000000003">
        <ele>333.428</ele>
        <time>2022-08-23T16:27:48Z</time>
      </trkpt>
      <trkpt lat="43.09697299999997" lon="-1.2969510000000004">
        <ele>332.850</ele>
        <time>2022-08-23T16:27:49Z</time>
      </trkpt>
      <trkpt lat="43.09691599999997" lon="-1.2969080000000004">
        <ele>332.010</ele>
        <time>2022-08-23T16:27:50Z</time>
      </trkpt>
      <trkpt lat="43.09683499999997" lon="-1.2968950000000004">
        <ele>331.629</ele>
        <time>2022-08-23T16:27:51Z</time>
      </trkpt>
      <trkpt lat="43.09676699999997" lon="-1.2969160000000004">
        <ele>330.818</ele>
        <time>2022-08-23T16:27:52Z</time>
      </trkpt>
      <trkpt lat="43.09671299999997" lon="-1.2969530000000005">
        <ele>330.298</ele>
        <time>2022-08-23T16:27:53Z</time>
      </trkpt>
      <trkpt lat="43.09665099999997" lon="-1.2969970000000004">
        <ele>329.817</ele>
        <time>2022-08-23T16:27:54Z</time>
      </trkpt>
      <trkpt lat="43.09657899999997" lon="-1.2970460000000004">
        <ele>329.209</ele>
        <time>2022-08-23T16:27:55Z</time>
      </trkpt>
      <trkpt lat="43.09651999999997" lon="-1.2970790000000003">
        <ele>328.832</ele>
        <time>2022-08-23T16:27:56Z</time>
      </trkpt>
      <trkpt lat="43.09646299999997" lon="-1.2971100000000002">
        <ele>328.082</ele>
        <time>2022-08-23T16:27:57Z</time>
      </trkpt>
      <trkpt lat="43.096416999999974" lon="-1.2971290000000002">
        <ele>327.662</ele>
        <time>2022-08-23T16:27:58Z</time>
      </trkpt>
      <trkpt lat="43.09635899999997" lon="-1.2971390000000003">
        <ele>326.668</ele>
        <time>2022-08-23T16:27:59Z</time>
      </trkpt>
      <trkpt lat="43.09630799999997" lon="-1.2971160000000002">
        <ele>326.050</ele>
        <time>2022-08-23T16:28:00Z</time>
      </trkpt>
      <trkpt lat="43.09627199999997" lon="-1.2970800000000002">
        <ele>325.827</ele>
        <time>2022-08-23T16:28:01Z</time>
      </trkpt>
      <trkpt lat="43.09624999999997" lon="-1.2970220000000003">
        <ele>324.879</ele>
        <time>2022-08-23T16:28:02Z</time>
      </trkpt>
      <trkpt lat="43.09624699999997" lon="-1.2969580000000003">
        <ele>324.639</ele>
        <time>2022-08-23T16:28:03Z</time>
      </trkpt>
      <trkpt lat="43.096253999999966" lon="-1.2968960000000003">
        <ele>324.038</ele>
        <time>2022-08-23T16:28:04Z</time>
      </trkpt>
      <trkpt lat="43.09626399999997" lon="-1.2968320000000002">
        <ele>323.684</ele>
        <time>2022-08-23T16:28:05Z</time>
      </trkpt>
      <trkpt lat="43.09630799999997" lon="-1.2965840000000002">
        <ele>322.607</ele>
        <time>2022-08-23T16:28:08Z</time>
      </trkpt>
      <trkpt lat="43.09633699999997" lon="-1.2964360000000001">
        <ele>321.817</ele>
        <time>2022-08-23T16:28:10Z</time>
      </trkpt>
      <trkpt lat="43.09636699999997" lon="-1.2963710000000002">
        <ele>321.209</ele>
        <time>2022-08-23T16:28:11Z</time>
      </trkpt>
      <trkpt lat="43.09641299999997" lon="-1.2963240000000003">
        <ele>320.619</ele>
        <time>2022-08-23T16:28:12Z</time>
      </trkpt>
      <trkpt lat="43.09647099999997" lon="-1.2962960000000003">
        <ele>320.479</ele>
        <time>2022-08-23T16:28:13Z</time>
      </trkpt>
      <trkpt lat="43.09653299999997" lon="-1.2962930000000004">
        <ele>319.679</ele>
        <time>2022-08-23T16:28:14Z</time>
      </trkpt>
      <trkpt lat="43.09666499999997" lon="-1.2963470000000004">
        <ele>318.625</ele>
        <time>2022-08-23T16:28:16Z</time>
      </trkpt>
      <trkpt lat="43.09680399999997" lon="-1.2964630000000004">
        <ele>317.467</ele>
        <time>2022-08-23T16:28:18Z</time>
      </trkpt>
      <trkpt lat="43.09687899999997" lon="-1.2965270000000004">
        <ele>317.294</ele>
        <time>2022-08-23T16:28:19Z</time>
      </trkpt>
      <trkpt lat="43.09695499999997" lon="-1.2965920000000004">
        <ele>316.886</ele>
        <time>2022-08-23T16:28:20Z</time>
      </trkpt>
      <trkpt lat="43.097046999999975" lon="-1.2966720000000005">
        <ele>316.236</ele>
        <time>2022-08-23T16:28:21Z</time>
      </trkpt>
      <trkpt lat="43.097195999999975" lon="-1.2967830000000005">
        <ele>314.655</ele>
        <time>2022-08-23T16:28:23Z</time>
      </trkpt>
      <trkpt lat="43.097375999999976" lon="-1.2968840000000004">
        <ele>313.027</ele>
        <time>2022-08-23T16:28:25Z</time>
      </trkpt>
      <trkpt lat="43.09746799999998" lon="-1.2969270000000004">
        <ele>312.268</ele>
        <time>2022-08-23T16:28:26Z</time>
      </trkpt>
      <trkpt lat="43.097572999999976" lon="-1.2969740000000003">
        <ele>311.414</ele>
        <time>2022-08-23T16:28:27Z</time>
      </trkpt>
      <trkpt lat="43.09765299999997" lon="-1.2970090000000003">
        <ele>310.609</ele>
        <time>2022-08-23T16:28:28Z</time>
      </trkpt>
      <trkpt lat="43.097721999999976" lon="-1.2970350000000004">
        <ele>310.283</ele>
        <time>2022-08-23T16:28:29Z</time>
      </trkpt>
      <trkpt lat="43.097772999999975" lon="-1.2970420000000005">
        <ele>309.043</ele>
        <time>2022-08-23T16:28:30Z</time>
      </trkpt>
      <trkpt lat="43.09783099999998" lon="-1.2970280000000005">
        <ele>308.483</ele>
        <time>2022-08-23T16:28:31Z</time>
      </trkpt>
      <trkpt lat="43.097893999999975" lon="-1.2970020000000004">
        <ele>307.299</ele>
        <time>2022-08-23T16:28:32Z</time>
      </trkpt>
      <trkpt lat="43.09793199999998" lon="-1.2969640000000004">
        <ele>306.481</ele>
        <time>2022-08-23T16:28:33Z</time>
      </trkpt>
      <trkpt lat="43.09794299999998" lon="-1.2969010000000005">
        <ele>306.068</ele>
        <time>2022-08-23T16:28:34Z</time>
      </trkpt>
      <trkpt lat="43.09791199999998" lon="-1.2968440000000006">
        <ele>305.080</ele>
        <time>2022-08-23T16:28:35Z</time>
      </trkpt>
      <trkpt lat="43.09787499999998" lon="-1.2967710000000006">
        <ele>304.860</ele>
        <time>2022-08-23T16:28:36Z</time>
      </trkpt>
      <trkpt lat="43.09781899999998" lon="-1.2966950000000006">
        <ele>303.619</ele>
        <time>2022-08-23T16:28:37Z</time>
      </trkpt>
      <trkpt lat="43.097780999999976" lon="-1.2966450000000005">
        <ele>303.065</ele>
        <time>2022-08-23T16:28:38Z</time>
      </trkpt>
      <trkpt lat="43.09773299999998" lon="-1.2965640000000005">
        <ele>302.868</ele>
        <time>2022-08-23T16:28:39Z</time>
      </trkpt>
      <trkpt lat="43.097696999999975" lon="-1.2965080000000004">
        <ele>302.214</ele>
        <time>2022-08-23T16:28:40Z</time>
      </trkpt>
      <trkpt lat="43.09754999999998" lon="-1.2963020000000005">
        <ele>301.809</ele>
        <time>2022-08-23T16:28:43Z</time>
      </trkpt>
      <trkpt lat="43.097499999999975" lon="-1.2962420000000006">
        <ele>301.857</ele>
        <time>2022-08-23T16:28:44Z</time>
      </trkpt>
      <trkpt lat="43.097437999999975" lon="-1.2961670000000005">
        <ele>301.847</ele>
        <time>2022-08-23T16:28:45Z</time>
      </trkpt>
      <trkpt lat="43.097378999999975" lon="-1.2961110000000005">
        <ele>301.837</ele>
        <time>2022-08-23T16:28:46Z</time>
      </trkpt>
      <trkpt lat="43.097322999999975" lon="-1.2960520000000004">
        <ele>301.853</ele>
        <time>2022-08-23T16:28:47Z</time>
      </trkpt>
      <trkpt lat="43.097266999999974" lon="-1.2959860000000005">
        <ele>301.835</ele>
        <time>2022-08-23T16:28:48Z</time>
      </trkpt>
      <trkpt lat="43.09722899999997" lon="-1.2959160000000005">
        <ele>301.852</ele>
        <time>2022-08-23T16:28:49Z</time>
      </trkpt>
      <trkpt lat="43.09720599999997" lon="-1.2958290000000006">
        <ele>301.844</ele>
        <time>2022-08-23T16:28:50Z</time>
      </trkpt>
      <trkpt lat="43.097201999999974" lon="-1.2957600000000005">
        <ele>302.054</ele>
        <time>2022-08-23T16:28:51Z</time>
      </trkpt>
      <trkpt lat="43.097201999999974" lon="-1.2956770000000004">
        <ele>302.213</ele>
        <time>2022-08-23T16:28:52Z</time>
      </trkpt>
      <trkpt lat="43.097212999999975" lon="-1.2955950000000005">
        <ele>302.225</ele>
        <time>2022-08-23T16:28:53Z</time>
      </trkpt>
      <trkpt lat="43.09723199999998" lon="-1.2955080000000005">
        <ele>302.426</ele>
        <time>2022-08-23T16:28:54Z</time>
      </trkpt>
      <trkpt lat="43.09724599999998" lon="-1.2954300000000005">
        <ele>302.408</ele>
        <time>2022-08-23T16:28:55Z</time>
      </trkpt>
      <trkpt lat="43.09726499999998" lon="-1.2953750000000006">
        <ele>302.609</ele>
        <time>2022-08-23T16:28:56Z</time>
      </trkpt>
      <trkpt lat="43.097330999999976" lon="-1.2952630000000007">
        <ele>302.853</ele>
        <time>2022-08-23T16:28:58Z</time>
      </trkpt>
      <trkpt lat="43.09736699999998" lon="-1.2952190000000008">
        <ele>302.823</ele>
        <time>2022-08-23T16:28:59Z</time>
      </trkpt>
      <trkpt lat="43.09740099999998" lon="-1.2951730000000008">
        <ele>302.813</ele>
        <time>2022-08-23T16:29:00Z</time>
      </trkpt>
      <trkpt lat="43.09743899999998" lon="-1.2951290000000009">
        <ele>303.269</ele>
        <time>2022-08-23T16:29:01Z</time>
      </trkpt>
      <trkpt lat="43.09746399999998" lon="-1.295104000000001">
        <ele>303.231</ele>
        <time>2022-08-23T16:29:02Z</time>
      </trkpt>
      <trkpt lat="43.09749799999998" lon="-1.295069000000001">
        <ele>303.688</ele>
        <time>2022-08-23T16:29:03Z</time>
      </trkpt>
      <trkpt lat="43.09753899999998" lon="-1.2950320000000008">
        <ele>303.860</ele>
        <time>2022-08-23T16:29:04Z</time>
      </trkpt>
      <trkpt lat="43.097571999999985" lon="-1.294999000000001">
        <ele>304.090</ele>
        <time>2022-08-23T16:29:05Z</time>
      </trkpt>
      <trkpt lat="43.097605999999985" lon="-1.2949670000000009">
        <ele>304.239</ele>
        <time>2022-08-23T16:29:06Z</time>
      </trkpt>
      <trkpt lat="43.09763499999998" lon="-1.294945000000001">
        <ele>304.266</ele>
        <time>2022-08-23T16:29:07Z</time>
      </trkpt>
      <trkpt lat="43.097667999999985" lon="-1.294917000000001">
        <ele>304.429</ele>
        <time>2022-08-23T16:29:08Z</time>
      </trkpt>
      <trkpt lat="43.09773599999998" lon="-1.294854000000001">
        <ele>305.021</ele>
        <time>2022-08-23T16:29:10Z</time>
      </trkpt>
      <trkpt lat="43.09776799999998" lon="-1.294825000000001">
        <ele>305.209</ele>
        <time>2022-08-23T16:29:11Z</time>
      </trkpt>
      <trkpt lat="43.09782599999998" lon="-1.294785000000001">
        <ele>305.427</ele>
        <time>2022-08-23T16:29:13Z</time>
      </trkpt>
      <trkpt lat="43.09792799999998" lon="-1.294722000000001">
        <ele>306.247</ele>
        <time>2022-08-23T16:29:16Z</time>
      </trkpt>
      <trkpt lat="43.097960999999984" lon="-1.294705000000001">
        <ele>306.667</ele>
        <time>2022-08-23T16:29:17Z</time>
      </trkpt>
      <trkpt lat="43.09799599999998" lon="-1.294690000000001">
        <ele>306.883</ele>
        <time>2022-08-23T16:29:18Z</time>
      </trkpt>
      <trkpt lat="43.09802799999998" lon="-1.294674000000001">
        <ele>307.015</ele>
        <time>2022-08-23T16:29:19Z</time>
      </trkpt>
      <trkpt lat="43.098062999999975" lon="-1.294650000000001">
        <ele>307.012</ele>
        <time>2022-08-23T16:29:20Z</time>
      </trkpt>
      <trkpt lat="43.09809199999997" lon="-1.294634000000001">
        <ele>307.264</ele>
        <time>2022-08-23T16:29:21Z</time>
      </trkpt>
      <trkpt lat="43.09811799999997" lon="-1.2946190000000009">
        <ele>307.254</ele>
        <time>2022-08-23T16:29:22Z</time>
      </trkpt>
      <trkpt lat="43.098144999999974" lon="-1.294602000000001">
        <ele>307.483</ele>
        <time>2022-08-23T16:29:23Z</time>
      </trkpt>
      <trkpt lat="43.09817699999997" lon="-1.294585000000001">
        <ele>307.649</ele>
        <time>2022-08-23T16:29:24Z</time>
      </trkpt>
      <trkpt lat="43.09821699999997" lon="-1.294567000000001">
        <ele>307.802</ele>
        <time>2022-08-23T16:29:25Z</time>
      </trkpt>
      <trkpt lat="43.09825199999997" lon="-1.2945440000000008">
        <ele>308.222</ele>
        <time>2022-08-23T16:29:26Z</time>
      </trkpt>
      <trkpt lat="43.09827999999997" lon="-1.2945230000000008">
        <ele>308.409</ele>
        <time>2022-08-23T16:29:27Z</time>
      </trkpt>
      <trkpt lat="43.09831599999997" lon="-1.2944870000000008">
        <ele>308.635</ele>
        <time>2022-08-23T16:29:28Z</time>
      </trkpt>
      <trkpt lat="43.09834699999997" lon="-1.294456000000001">
        <ele>308.885</ele>
        <time>2022-08-23T16:29:29Z</time>
      </trkpt>
      <trkpt lat="43.098375999999966" lon="-1.294425000000001">
        <ele>308.875</ele>
        <time>2022-08-23T16:29:30Z</time>
      </trkpt>
      <trkpt lat="43.09840299999997" lon="-1.294391000000001">
        <ele>309.221</ele>
        <time>2022-08-23T16:29:31Z</time>
      </trkpt>
      <trkpt lat="43.09842599999997" lon="-1.294360000000001">
        <ele>309.243</ele>
        <time>2022-08-23T16:29:32Z</time>
      </trkpt>
      <trkpt lat="43.09845399999997" lon="-1.294326000000001">
        <ele>309.470</ele>
        <time>2022-08-23T16:29:33Z</time>
      </trkpt>
      <trkpt lat="43.09848099999997" lon="-1.294285000000001">
        <ele>309.432</ele>
        <time>2022-08-23T16:29:34Z</time>
      </trkpt>
      <trkpt lat="43.09851299999997" lon="-1.294239000000001">
        <ele>309.632</ele>
        <time>2022-08-23T16:29:35Z</time>
      </trkpt>
      <trkpt lat="43.09854699999997" lon="-1.294201000000001">
        <ele>310.051</ele>
        <time>2022-08-23T16:29:36Z</time>
      </trkpt>
      <trkpt lat="43.09858099999997" lon="-1.2941700000000012">
        <ele>310.268</ele>
        <time>2022-08-23T16:29:37Z</time>
      </trkpt>
      <trkpt lat="43.098612999999965" lon="-1.2941430000000012">
        <ele>310.442</ele>
        <time>2022-08-23T16:29:38Z</time>
      </trkpt>
      <trkpt lat="43.098648999999966" lon="-1.2941100000000012">
        <ele>310.626</ele>
        <time>2022-08-23T16:29:39Z</time>
      </trkpt>
      <trkpt lat="43.098679999999966" lon="-1.2940780000000012">
        <ele>310.809</ele>
        <time>2022-08-23T16:29:40Z</time>
      </trkpt>
      <trkpt lat="43.09870999999997" lon="-1.2940430000000012">
        <ele>311.077</ele>
        <time>2022-08-23T16:29:41Z</time>
      </trkpt>
      <trkpt lat="43.09874399999997" lon="-1.2940070000000012">
        <ele>311.077</ele>
        <time>2022-08-23T16:29:42Z</time>
      </trkpt>
      <trkpt lat="43.098772999999966" lon="-1.2939720000000012">
        <ele>311.287</ele>
        <time>2022-08-23T16:29:43Z</time>
      </trkpt>
      <trkpt lat="43.09879699999997" lon="-1.2939380000000011">
        <ele>311.233</ele>
        <time>2022-08-23T16:29:44Z</time>
      </trkpt>
      <trkpt lat="43.09883299999997" lon="-1.2938890000000012">
        <ele>311.675</ele>
        <time>2022-08-23T16:29:45Z</time>
      </trkpt>
      <trkpt lat="43.09886199999997" lon="-1.2938480000000012">
        <ele>311.852</ele>
        <time>2022-08-23T16:29:46Z</time>
      </trkpt>
      <trkpt lat="43.09889299999997" lon="-1.2938080000000012">
        <ele>311.874</ele>
        <time>2022-08-23T16:29:47Z</time>
      </trkpt>
      <trkpt lat="43.09892299999997" lon="-1.2937680000000011">
        <ele>312.014</ele>
        <time>2022-08-23T16:29:48Z</time>
      </trkpt>
      <trkpt lat="43.09894799999997" lon="-1.2937440000000011">
        <ele>312.083</ele>
        <time>2022-08-23T16:29:49Z</time>
      </trkpt>
      <trkpt lat="43.098980999999974" lon="-1.293710000000001">
        <ele>312.239</ele>
        <time>2022-08-23T16:29:50Z</time>
      </trkpt>
      <trkpt lat="43.099016999999975" lon="-1.293660000000001">
        <ele>312.401</ele>
        <time>2022-08-23T16:29:51Z</time>
      </trkpt>
      <trkpt lat="43.099050999999974" lon="-1.2936180000000008">
        <ele>312.621</ele>
        <time>2022-08-23T16:29:52Z</time>
      </trkpt>
      <trkpt lat="43.09907799999998" lon="-1.2935880000000008">
        <ele>312.809</ele>
        <time>2022-08-23T16:29:53Z</time>
      </trkpt>
      <trkpt lat="43.09911399999998" lon="-1.2935460000000008">
        <ele>312.844</ele>
        <time>2022-08-23T16:29:54Z</time>
      </trkpt>
      <trkpt lat="43.09914999999998" lon="-1.2935040000000007">
        <ele>313.064</ele>
        <time>2022-08-23T16:29:55Z</time>
      </trkpt>
      <trkpt lat="43.09918899999998" lon="-1.2934640000000006">
        <ele>313.064</ele>
        <time>2022-08-23T16:29:56Z</time>
      </trkpt>
      <trkpt lat="43.09923199999998" lon="-1.2934180000000006">
        <ele>313.260</ele>
        <time>2022-08-23T16:29:57Z</time>
      </trkpt>
      <trkpt lat="43.09927199999998" lon="-1.2933830000000006">
        <ele>313.292</ele>
        <time>2022-08-23T16:29:58Z</time>
      </trkpt>
      <trkpt lat="43.099317999999975" lon="-1.2933530000000006">
        <ele>313.229</ele>
        <time>2022-08-23T16:29:59Z</time>
      </trkpt>
      <trkpt lat="43.099356999999976" lon="-1.2933300000000005">
        <ele>313.221</ele>
        <time>2022-08-23T16:30:00Z</time>
      </trkpt>
      <trkpt lat="43.09940599999997" lon="-1.2933030000000005">
        <ele>313.241</ele>
        <time>2022-08-23T16:30:01Z</time>
      </trkpt>
      <trkpt lat="43.09945399999997" lon="-1.2932820000000005">
        <ele>313.280</ele>
        <time>2022-08-23T16:30:02Z</time>
      </trkpt>
      <trkpt lat="43.09950599999997" lon="-1.2932650000000006">
        <ele>313.259</ele>
        <time>2022-08-23T16:30:03Z</time>
      </trkpt>
      <trkpt lat="43.09956699999997" lon="-1.2932490000000005">
        <ele>313.203</ele>
        <time>2022-08-23T16:30:04Z</time>
      </trkpt>
      <trkpt lat="43.09960899999997" lon="-1.2932430000000006">
        <ele>313.223</ele>
        <time>2022-08-23T16:30:05Z</time>
      </trkpt>
      <trkpt lat="43.09966499999997" lon="-1.2932450000000006">
        <ele>313.209</ele>
        <time>2022-08-23T16:30:06Z</time>
      </trkpt>
      <trkpt lat="43.099737999999974" lon="-1.2932530000000007">
        <ele>313.276</ele>
        <time>2022-08-23T16:30:07Z</time>
      </trkpt>
      <trkpt lat="43.09979999999997" lon="-1.2932630000000007">
        <ele>313.286</ele>
        <time>2022-08-23T16:30:08Z</time>
      </trkpt>
      <trkpt lat="43.099863999999975" lon="-1.2932720000000006">
        <ele>313.086</ele>
        <time>2022-08-23T16:30:09Z</time>
      </trkpt>
      <trkpt lat="43.09991599999997" lon="-1.2932740000000007">
        <ele>313.052</ele>
        <time>2022-08-23T16:30:10Z</time>
      </trkpt>
      <trkpt lat="43.10004299999997" lon="-1.2932890000000008">
        <ele>312.844</ele>
        <time>2022-08-23T16:30:12Z</time>
      </trkpt>
      <trkpt lat="43.10011699999997" lon="-1.2932930000000007">
        <ele>312.861</ele>
        <time>2022-08-23T16:30:13Z</time>
      </trkpt>
      <trkpt lat="43.100517999999965" lon="-1.2933180000000006">
        <ele>312.023</ele>
        <time>2022-08-23T16:30:19Z</time>
      </trkpt>
      <trkpt lat="43.100655999999965" lon="-1.2932440000000007">
        <ele>312.033</ele>
        <time>2022-08-23T16:30:21Z</time>
      </trkpt>
      <trkpt lat="43.100714999999965" lon="-1.2931860000000008">
        <ele>311.812</ele>
        <time>2022-08-23T16:30:22Z</time>
      </trkpt>
      <trkpt lat="43.100771999999964" lon="-1.2931180000000009">
        <ele>311.669</ele>
        <time>2022-08-23T16:30:23Z</time>
      </trkpt>
      <trkpt lat="43.100824999999965" lon="-1.293047000000001">
        <ele>311.404</ele>
        <time>2022-08-23T16:30:24Z</time>
      </trkpt>
      <trkpt lat="43.100880999999966" lon="-1.292968000000001">
        <ele>311.024</ele>
        <time>2022-08-23T16:30:25Z</time>
      </trkpt>
      <trkpt lat="43.101004999999965" lon="-1.292799000000001">
        <ele>310.809</ele>
        <time>2022-08-23T16:30:27Z</time>
      </trkpt>
      <trkpt lat="43.101058999999964" lon="-1.2927190000000008">
        <ele>310.427</ele>
        <time>2022-08-23T16:30:28Z</time>
      </trkpt>
      <trkpt lat="43.101153999999966" lon="-1.2925420000000007">
        <ele>309.867</ele>
        <time>2022-08-23T16:30:30Z</time>
      </trkpt>
      <trkpt lat="43.10118599999996" lon="-1.2924400000000007">
        <ele>309.487</ele>
        <time>2022-08-23T16:30:31Z</time>
      </trkpt>
      <trkpt lat="43.101210999999964" lon="-1.2923360000000006">
        <ele>309.273</ele>
        <time>2022-08-23T16:30:32Z</time>
      </trkpt>
      <trkpt lat="43.10122799999996" lon="-1.2922320000000005">
        <ele>308.835</ele>
        <time>2022-08-23T16:30:33Z</time>
      </trkpt>
      <trkpt lat="43.10124299999996" lon="-1.2921270000000005">
        <ele>308.682</ele>
        <time>2022-08-23T16:30:34Z</time>
      </trkpt>
      <trkpt lat="43.10127899999996" lon="-1.2919210000000005">
        <ele>308.284</ele>
        <time>2022-08-23T16:30:36Z</time>
      </trkpt>
      <trkpt lat="43.10137999999996" lon="-1.2912970000000006">
        <ele>307.074</ele>
        <time>2022-08-23T16:30:42Z</time>
      </trkpt>
      <trkpt lat="43.10140099999996" lon="-1.2911950000000005">
        <ele>307.053</ele>
        <time>2022-08-23T16:30:43Z</time>
      </trkpt>
      <trkpt lat="43.10143099999996" lon="-1.2911000000000006">
        <ele>306.694</ele>
        <time>2022-08-23T16:30:44Z</time>
      </trkpt>
      <trkpt lat="43.10151899999996" lon="-1.2909330000000006">
        <ele>306.257</ele>
        <time>2022-08-23T16:30:46Z</time>
      </trkpt>
      <trkpt lat="43.10156599999996" lon="-1.2908770000000005">
        <ele>306.022</ele>
        <time>2022-08-23T16:30:47Z</time>
      </trkpt>
      <trkpt lat="43.101629999999965" lon="-1.2908170000000005">
        <ele>305.809</ele>
        <time>2022-08-23T16:30:48Z</time>
      </trkpt>
      <trkpt lat="43.10170199999997" lon="-1.2907760000000006">
        <ele>305.630</ele>
        <time>2022-08-23T16:30:49Z</time>
      </trkpt>
      <trkpt lat="43.10179399999997" lon="-1.2907460000000006">
        <ele>305.440</ele>
        <time>2022-08-23T16:30:50Z</time>
      </trkpt>
      <trkpt lat="43.10187499999997" lon="-1.2907370000000007">
        <ele>305.280</ele>
        <time>2022-08-23T16:30:51Z</time>
      </trkpt>
      <trkpt lat="43.10195699999997" lon="-1.2907320000000007">
        <ele>305.236</ele>
        <time>2022-08-23T16:30:52Z</time>
      </trkpt>
      <trkpt lat="43.10201999999997" lon="-1.2907280000000008">
        <ele>305.038</ele>
        <time>2022-08-23T16:30:53Z</time>
      </trkpt>
      <trkpt lat="43.10209799999997" lon="-1.2907250000000008">
        <ele>304.835</ele>
        <time>2022-08-23T16:30:54Z</time>
      </trkpt>
      <trkpt lat="43.10219099999997" lon="-1.2907190000000008">
        <ele>304.877</ele>
        <time>2022-08-23T16:30:55Z</time>
      </trkpt>
      <trkpt lat="43.10234299999997" lon="-1.290710000000001">
        <ele>304.467</ele>
        <time>2022-08-23T16:30:57Z</time>
      </trkpt>
      <trkpt lat="43.10240299999997" lon="-1.2907050000000009">
        <ele>304.246</ele>
        <time>2022-08-23T16:30:58Z</time>
      </trkpt>
      <trkpt lat="43.10247599999997" lon="-1.290699000000001">
        <ele>303.886</ele>
        <time>2022-08-23T16:30:59Z</time>
      </trkpt>
      <trkpt lat="43.10256299999997" lon="-1.290693000000001">
        <ele>303.860</ele>
        <time>2022-08-23T16:31:00Z</time>
      </trkpt>
      <trkpt lat="43.10262199999997" lon="-1.290689000000001">
        <ele>303.626</ele>
        <time>2022-08-23T16:31:01Z</time>
      </trkpt>
      <trkpt lat="43.10276899999997" lon="-1.290682000000001">
        <ele>303.409</ele>
        <time>2022-08-23T16:31:03Z</time>
      </trkpt>
      <trkpt lat="43.10285599999997" lon="-1.290681000000001">
        <ele>303.439</ele>
        <time>2022-08-23T16:31:04Z</time>
      </trkpt>
      <trkpt lat="43.102997999999964" lon="-1.2906770000000012">
        <ele>303.439</ele>
        <time>2022-08-23T16:31:06Z</time>
      </trkpt>
      <trkpt lat="43.103067999999965" lon="-1.2906670000000011">
        <ele>303.439</ele>
        <time>2022-08-23T16:31:07Z</time>
      </trkpt>
      <trkpt lat="43.103134999999966" lon="-1.290649000000001">
        <ele>303.445</ele>
        <time>2022-08-23T16:31:08Z</time>
      </trkpt>
      <trkpt lat="43.103199999999966" lon="-1.290622000000001">
        <ele>303.447</ele>
        <time>2022-08-23T16:31:09Z</time>
      </trkpt>
      <trkpt lat="43.10324999999997" lon="-1.290597000000001">
        <ele>303.414</ele>
        <time>2022-08-23T16:31:10Z</time>
      </trkpt>
      <trkpt lat="43.10332199999997" lon="-1.2905510000000011">
        <ele>303.476</ele>
        <time>2022-08-23T16:31:11Z</time>
      </trkpt>
      <trkpt lat="43.10356099999997" lon="-1.2903890000000011">
        <ele>303.686</ele>
        <time>2022-08-23T16:31:15Z</time>
      </trkpt>
      <trkpt lat="43.10361799999997" lon="-1.290346000000001">
        <ele>303.625</ele>
        <time>2022-08-23T16:31:16Z</time>
      </trkpt>
      <trkpt lat="43.10367199999997" lon="-1.290303000000001">
        <ele>303.658</ele>
        <time>2022-08-23T16:31:17Z</time>
      </trkpt>
      <trkpt lat="43.10372199999997" lon="-1.290253000000001">
        <ele>303.452</ele>
        <time>2022-08-23T16:31:18Z</time>
      </trkpt>
      <trkpt lat="43.103815999999966" lon="-1.290142000000001">
        <ele>303.217</ele>
        <time>2022-08-23T16:31:20Z</time>
      </trkpt>
      <trkpt lat="43.10389999999997" lon="-1.290046000000001">
        <ele>303.209</ele>
        <time>2022-08-23T16:31:22Z</time>
      </trkpt>
      <trkpt lat="43.10394499999997" lon="-1.2899900000000009">
        <ele>303.266</ele>
        <time>2022-08-23T16:31:23Z</time>
      </trkpt>
      <trkpt lat="43.10398699999997" lon="-1.2899330000000009">
        <ele>303.266</ele>
        <time>2022-08-23T16:31:24Z</time>
      </trkpt>
      <trkpt lat="43.10403499999997" lon="-1.289865000000001">
        <ele>303.256</ele>
        <time>2022-08-23T16:31:25Z</time>
      </trkpt>
      <trkpt lat="43.10414699999997" lon="-1.2897040000000008">
        <ele>303.272</ele>
        <time>2022-08-23T16:31:28Z</time>
      </trkpt>
      <trkpt lat="43.10425899999997" lon="-1.2895110000000007">
        <ele>303.224</ele>
        <time>2022-08-23T16:31:31Z</time>
      </trkpt>
      <trkpt lat="43.10432199999997" lon="-1.2893690000000007">
        <ele>303.281</ele>
        <time>2022-08-23T16:31:33Z</time>
      </trkpt>
      <trkpt lat="43.10438899999997" lon="-1.2892240000000006">
        <ele>303.273</ele>
        <time>2022-08-23T16:31:35Z</time>
      </trkpt>
      <trkpt lat="43.10452499999997" lon="-1.2889030000000006">
        <ele>303.063</ele>
        <time>2022-08-23T16:31:39Z</time>
      </trkpt>
      <trkpt lat="43.10464599999997" lon="-1.2885930000000005">
        <ele>302.872</ele>
        <time>2022-08-23T16:31:43Z</time>
      </trkpt>
      <trkpt lat="43.104702999999965" lon="-1.2884250000000006">
        <ele>302.859</ele>
        <time>2022-08-23T16:31:45Z</time>
      </trkpt>
      <trkpt lat="43.10473799999996" lon="-1.2883410000000006">
        <ele>302.803</ele>
        <time>2022-08-23T16:31:46Z</time>
      </trkpt>
      <trkpt lat="43.10480099999996" lon="-1.2881700000000007">
        <ele>302.623</ele>
        <time>2022-08-23T16:31:48Z</time>
      </trkpt>
      <trkpt lat="43.10482799999996" lon="-1.2880910000000008">
        <ele>302.609</ele>
        <time>2022-08-23T16:31:49Z</time>
      </trkpt>
      <trkpt lat="43.104854999999965" lon="-1.2880120000000008">
        <ele>302.626</ele>
        <time>2022-08-23T16:31:50Z</time>
      </trkpt>
      <trkpt lat="43.10488399999996" lon="-1.2879320000000007">
        <ele>302.626</ele>
        <time>2022-08-23T16:31:51Z</time>
      </trkpt>
      <trkpt lat="43.10491199999996" lon="-1.2878530000000008">
        <ele>302.446</ele>
        <time>2022-08-23T16:31:52Z</time>
      </trkpt>
      <trkpt lat="43.10497799999996" lon="-1.2876970000000008">
        <ele>302.422</ele>
        <time>2022-08-23T16:31:54Z</time>
      </trkpt>
      <trkpt lat="43.10524399999996" lon="-1.2871090000000007">
        <ele>301.684</ele>
        <time>2022-08-23T16:32:01Z</time>
      </trkpt>
      <trkpt lat="43.105290999999966" lon="-1.2870150000000007">
        <ele>301.411</ele>
        <time>2022-08-23T16:32:02Z</time>
      </trkpt>
      <trkpt lat="43.105470999999966" lon="-1.2867400000000007">
        <ele>300.633</ele>
        <time>2022-08-23T16:32:05Z</time>
      </trkpt>
      <trkpt lat="43.10553799999997" lon="-1.2866460000000006">
        <ele>300.233</ele>
        <time>2022-08-23T16:32:06Z</time>
      </trkpt>
      <trkpt lat="43.10568399999997" lon="-1.2864670000000007">
        <ele>299.062</ele>
        <time>2022-08-23T16:32:08Z</time>
      </trkpt>
      <trkpt lat="43.10583799999997" lon="-1.2862890000000007">
        <ele>297.861</ele>
        <time>2022-08-23T16:32:10Z</time>
      </trkpt>
      <trkpt lat="43.10598999999997" lon="-1.2861260000000008">
        <ele>296.421</ele>
        <time>2022-08-23T16:32:12Z</time>
      </trkpt>
      <trkpt lat="43.10617099999997" lon="-1.2860100000000008">
        <ele>295.413</ele>
        <time>2022-08-23T16:32:14Z</time>
      </trkpt>
      <trkpt lat="43.106267999999965" lon="-1.2859610000000008">
        <ele>295.009</ele>
        <time>2022-08-23T16:32:15Z</time>
      </trkpt>
      <trkpt lat="43.106467999999964" lon="-1.2858770000000008">
        <ele>294.057</ele>
        <time>2022-08-23T16:32:17Z</time>
      </trkpt>
      <trkpt lat="43.106667999999964" lon="-1.2857850000000008">
        <ele>292.287</ele>
        <time>2022-08-23T16:32:19Z</time>
      </trkpt>
      <trkpt lat="43.10676499999996" lon="-1.2857260000000008">
        <ele>291.887</ele>
        <time>2022-08-23T16:32:20Z</time>
      </trkpt>
      <trkpt lat="43.10685899999996" lon="-1.2856500000000008">
        <ele>291.023</ele>
        <time>2022-08-23T16:32:21Z</time>
      </trkpt>
      <trkpt lat="43.10703599999996" lon="-1.2854730000000008">
        <ele>289.685</ele>
        <time>2022-08-23T16:32:23Z</time>
      </trkpt>
      <trkpt lat="43.10711399999996" lon="-1.2853740000000007">
        <ele>289.232</ele>
        <time>2022-08-23T16:32:24Z</time>
      </trkpt>
      <trkpt lat="43.10719399999996" lon="-1.2852670000000006">
        <ele>288.414</ele>
        <time>2022-08-23T16:32:25Z</time>
      </trkpt>
      <trkpt lat="43.10742499999996" lon="-1.2849210000000006">
        <ele>286.454</ele>
        <time>2022-08-23T16:32:28Z</time>
      </trkpt>
      <trkpt lat="43.10749999999996" lon="-1.2847980000000006">
        <ele>285.863</ele>
        <time>2022-08-23T16:32:29Z</time>
      </trkpt>
      <trkpt lat="43.10757299999996" lon="-1.2846740000000005">
        <ele>285.296</ele>
        <time>2022-08-23T16:32:30Z</time>
      </trkpt>
      <trkpt lat="43.10772399999996" lon="-1.2844270000000004">
        <ele>283.431</ele>
        <time>2022-08-23T16:32:32Z</time>
      </trkpt>
      <trkpt lat="43.10787699999996" lon="-1.2841870000000004">
        <ele>282.024</ele>
        <time>2022-08-23T16:32:34Z</time>
      </trkpt>
      <trkpt lat="43.10803699999996" lon="-1.2839540000000005">
        <ele>280.609</ele>
        <time>2022-08-23T16:32:36Z</time>
      </trkpt>
      <trkpt lat="43.10811699999996" lon="-1.2838450000000006">
        <ele>279.890</ele>
        <time>2022-08-23T16:32:37Z</time>
      </trkpt>
      <trkpt lat="43.10819499999996" lon="-1.2837470000000006">
        <ele>279.280</ele>
        <time>2022-08-23T16:32:38Z</time>
      </trkpt>
      <trkpt lat="43.10827599999996" lon="-1.2836580000000006">
        <ele>278.060</ele>
        <time>2022-08-23T16:32:39Z</time>
      </trkpt>
      <trkpt lat="43.10835799999996" lon="-1.2835780000000006">
        <ele>276.876</ele>
        <time>2022-08-23T16:32:40Z</time>
      </trkpt>
      <trkpt lat="43.10843999999996" lon="-1.2835050000000006">
        <ele>276.298</ele>
        <time>2022-08-23T16:32:41Z</time>
      </trkpt>
      <trkpt lat="43.10853899999996" lon="-1.2834200000000007">
        <ele>275.225</ele>
        <time>2022-08-23T16:32:42Z</time>
      </trkpt>
      <trkpt lat="43.10869299999996" lon="-1.2832930000000007">
        <ele>273.857</ele>
        <time>2022-08-23T16:32:44Z</time>
      </trkpt>
      <trkpt lat="43.10886299999996" lon="-1.2831500000000007">
        <ele>272.267</ele>
        <time>2022-08-23T16:32:46Z</time>
      </trkpt>
      <trkpt lat="43.108944999999956" lon="-1.2830760000000008">
        <ele>271.246</ele>
        <time>2022-08-23T16:32:47Z</time>
      </trkpt>
      <trkpt lat="43.10902599999996" lon="-1.2829990000000007">
        <ele>270.638</ele>
        <time>2022-08-23T16:32:48Z</time>
      </trkpt>
      <trkpt lat="43.109102999999955" lon="-1.2829210000000006">
        <ele>269.670</ele>
        <time>2022-08-23T16:32:49Z</time>
      </trkpt>
      <trkpt lat="43.10917499999996" lon="-1.2828440000000005">
        <ele>269.217</ele>
        <time>2022-08-23T16:32:50Z</time>
      </trkpt>
      <trkpt lat="43.10923999999996" lon="-1.2827690000000005">
        <ele>268.609</ele>
        <time>2022-08-23T16:32:51Z</time>
      </trkpt>
      <trkpt lat="43.10929899999996" lon="-1.2827030000000006">
        <ele>267.624</ele>
        <time>2022-08-23T16:32:52Z</time>
      </trkpt>
      <trkpt lat="43.10935399999996" lon="-1.2826400000000007">
        <ele>267.244</ele>
        <time>2022-08-23T16:32:53Z</time>
      </trkpt>
      <trkpt lat="43.10939799999996" lon="-1.2825740000000008">
        <ele>266.444</ele>
        <time>2022-08-23T16:32:54Z</time>
      </trkpt>
      <trkpt lat="43.10942099999996" lon="-1.2824980000000008">
        <ele>266.060</ele>
        <time>2022-08-23T16:32:55Z</time>
      </trkpt>
      <trkpt lat="43.10942899999996" lon="-1.2823990000000007">
        <ele>265.422</ele>
        <time>2022-08-23T16:32:56Z</time>
      </trkpt>
      <trkpt lat="43.10942199999997" lon="-1.2823150000000008">
        <ele>264.889</ele>
        <time>2022-08-23T16:32:57Z</time>
      </trkpt>
      <trkpt lat="43.10941499999997" lon="-1.2822310000000008">
        <ele>264.291</ele>
        <time>2022-08-23T16:32:58Z</time>
      </trkpt>
      <trkpt lat="43.10943299999997" lon="-1.282084000000001">
        <ele>263.471</ele>
        <time>2022-08-23T16:33:00Z</time>
      </trkpt>
      <trkpt lat="43.10946599999997" lon="-1.282011000000001">
        <ele>262.830</ele>
        <time>2022-08-23T16:33:01Z</time>
      </trkpt>
      <trkpt lat="43.10951399999997" lon="-1.2819340000000008">
        <ele>262.825</ele>
        <time>2022-08-23T16:33:02Z</time>
      </trkpt>
      <trkpt lat="43.10954999999997" lon="-1.2818840000000007">
        <ele>262.426</ele>
        <time>2022-08-23T16:33:03Z</time>
      </trkpt>
      <trkpt lat="43.10959399999997" lon="-1.2818220000000007">
        <ele>262.408</ele>
        <time>2022-08-23T16:33:04Z</time>
      </trkpt>
      <trkpt lat="43.10963399999997" lon="-1.2817570000000007">
        <ele>262.209</ele>
        <time>2022-08-23T16:33:05Z</time>
      </trkpt>
      <trkpt lat="43.10966699999997" lon="-1.2816860000000008">
        <ele>261.863</ele>
        <time>2022-08-23T16:33:06Z</time>
      </trkpt>
      <trkpt lat="43.10968799999997" lon="-1.2816110000000007">
        <ele>261.873</ele>
        <time>2022-08-23T16:33:07Z</time>
      </trkpt>
      <trkpt lat="43.10969599999997" lon="-1.2815320000000008">
        <ele>261.473</ele>
        <time>2022-08-23T16:33:08Z</time>
      </trkpt>
      <trkpt lat="43.10970299999997" lon="-1.2814570000000007">
        <ele>261.419</ele>
        <time>2022-08-23T16:33:09Z</time>
      </trkpt>
      <trkpt lat="43.10970499999997" lon="-1.2813870000000007">
        <ele>261.281</ele>
        <time>2022-08-23T16:33:10Z</time>
      </trkpt>
      <trkpt lat="43.10970499999997" lon="-1.2813200000000007">
        <ele>261.238</ele>
        <time>2022-08-23T16:33:11Z</time>
      </trkpt>
      <trkpt lat="43.10970199999997" lon="-1.2812580000000007">
        <ele>261.280</ele>
        <time>2022-08-23T16:33:12Z</time>
      </trkpt>
      <trkpt lat="43.10968999999997" lon="-1.2812040000000007">
        <ele>261.010</ele>
        <time>2022-08-23T16:33:13Z</time>
      </trkpt>
      <trkpt lat="43.10967299999997" lon="-1.2811550000000007">
        <ele>261.089</ele>
        <time>2022-08-23T16:33:14Z</time>
      </trkpt>
      <trkpt lat="43.10965299999997" lon="-1.2811070000000007">
        <ele>261.036</ele>
        <time>2022-08-23T16:33:15Z</time>
      </trkpt>
      <trkpt lat="43.109643999999975" lon="-1.2810530000000007">
        <ele>261.017</ele>
        <time>2022-08-23T16:33:16Z</time>
      </trkpt>
      <trkpt lat="43.10965999999998" lon="-1.2809440000000007">
        <ele>260.818</ele>
        <time>2022-08-23T16:33:18Z</time>
      </trkpt>
      <trkpt lat="43.109682999999976" lon="-1.2808990000000007">
        <ele>260.809</ele>
        <time>2022-08-23T16:33:19Z</time>
      </trkpt>
      <trkpt lat="43.10970699999998" lon="-1.2808520000000008">
        <ele>260.894</ele>
        <time>2022-08-23T16:33:20Z</time>
      </trkpt>
      <trkpt lat="43.10973299999998" lon="-1.2808110000000008">
        <ele>260.874</ele>
        <time>2022-08-23T16:33:21Z</time>
      </trkpt>
      <trkpt lat="43.10976099999998" lon="-1.2807740000000007">
        <ele>260.864</ele>
        <time>2022-08-23T16:33:22Z</time>
      </trkpt>
      <trkpt lat="43.10985699999998" lon="-1.2806500000000007">
        <ele>260.850</ele>
        <time>2022-08-23T16:33:25Z</time>
      </trkpt>
      <trkpt lat="43.11002799999998" lon="-1.2804390000000008">
        <ele>260.832</ele>
        <time>2022-08-23T16:33:29Z</time>
      </trkpt>
      <trkpt lat="43.11006699999998" lon="-1.2803840000000009">
        <ele>260.819</ele>
        <time>2022-08-23T16:33:30Z</time>
      </trkpt>
      <trkpt lat="43.11009799999998" lon="-1.2803280000000008">
        <ele>260.831</ele>
        <time>2022-08-23T16:33:31Z</time>
      </trkpt>
      <trkpt lat="43.11012999999998" lon="-1.2802660000000008">
        <ele>260.821</ele>
        <time>2022-08-23T16:33:32Z</time>
      </trkpt>
      <trkpt lat="43.110161999999974" lon="-1.2801990000000008">
        <ele>260.650</ele>
        <time>2022-08-23T16:33:33Z</time>
      </trkpt>
      <trkpt lat="43.11024499999997" lon="-1.2799810000000007">
        <ele>260.064</ele>
        <time>2022-08-23T16:33:36Z</time>
      </trkpt>
      <trkpt lat="43.11030599999997" lon="-1.2798280000000006">
        <ele>259.606</ele>
        <time>2022-08-23T16:33:38Z</time>
      </trkpt>
      <trkpt lat="43.11038299999997" lon="-1.2796750000000006">
        <ele>259.416</ele>
        <time>2022-08-23T16:33:40Z</time>
      </trkpt>
      <trkpt lat="43.11047899999997" lon="-1.2795370000000006">
        <ele>259.209</ele>
        <time>2022-08-23T16:33:42Z</time>
      </trkpt>
      <trkpt lat="43.11058499999997" lon="-1.2793820000000007">
        <ele>259.067</ele>
        <time>2022-08-23T16:33:44Z</time>
      </trkpt>
      <trkpt lat="43.110653999999975" lon="-1.2792210000000006">
        <ele>258.267</ele>
        <time>2022-08-23T16:33:46Z</time>
      </trkpt>
      <trkpt lat="43.110715999999975" lon="-1.2790150000000007">
        <ele>257.027</ele>
        <time>2022-08-23T16:33:48Z</time>
      </trkpt>
      <trkpt lat="43.11077999999998" lon="-1.2788120000000007">
        <ele>256.223</ele>
        <time>2022-08-23T16:33:50Z</time>
      </trkpt>
      <trkpt lat="43.11081799999998" lon="-1.2787160000000006">
        <ele>256.045</ele>
        <time>2022-08-23T16:33:51Z</time>
      </trkpt>
      <trkpt lat="43.11085699999998" lon="-1.2786310000000007">
        <ele>255.652</ele>
        <time>2022-08-23T16:33:52Z</time>
      </trkpt>
      <trkpt lat="43.11090799999998" lon="-1.2785550000000008">
        <ele>255.434</ele>
        <time>2022-08-23T16:33:53Z</time>
      </trkpt>
      <trkpt lat="43.11096199999998" lon="-1.2784940000000007">
        <ele>255.224</ele>
        <time>2022-08-23T16:33:54Z</time>
      </trkpt>
      <trkpt lat="43.11101499999998" lon="-1.2784480000000007">
        <ele>255.253</ele>
        <time>2022-08-23T16:33:55Z</time>
      </trkpt>
      <trkpt lat="43.11107299999998" lon="-1.2784080000000007">
        <ele>255.225</ele>
        <time>2022-08-23T16:33:56Z</time>
      </trkpt>
      <trkpt lat="43.11113299999998" lon="-1.2783750000000007">
        <ele>255.226</ele>
        <time>2022-08-23T16:33:57Z</time>
      </trkpt>
      <trkpt lat="43.11119399999998" lon="-1.2783410000000006">
        <ele>255.008</ele>
        <time>2022-08-23T16:33:58Z</time>
      </trkpt>
      <trkpt lat="43.111254999999986" lon="-1.2783110000000006">
        <ele>255.209</ele>
        <time>2022-08-23T16:33:59Z</time>
      </trkpt>
      <trkpt lat="43.111361999999986" lon="-1.2782190000000007">
        <ele>255.273</ele>
        <time>2022-08-23T16:34:01Z</time>
      </trkpt>
      <trkpt lat="43.11141399999998" lon="-1.2781700000000007">
        <ele>255.223</ele>
        <time>2022-08-23T16:34:02Z</time>
      </trkpt>
      <trkpt lat="43.111460999999984" lon="-1.2781180000000008">
        <ele>255.223</ele>
        <time>2022-08-23T16:34:03Z</time>
      </trkpt>
      <trkpt lat="43.111508999999984" lon="-1.2780670000000007">
        <ele>255.489</ele>
        <time>2022-08-23T16:34:04Z</time>
      </trkpt>
      <trkpt lat="43.111553999999984" lon="-1.2780160000000007">
        <ele>255.421</ele>
        <time>2022-08-23T16:34:05Z</time>
      </trkpt>
      <trkpt lat="43.111595999999984" lon="-1.2779630000000006">
        <ele>255.428</ele>
        <time>2022-08-23T16:34:06Z</time>
      </trkpt>
      <trkpt lat="43.11163599999998" lon="-1.2779080000000007">
        <ele>255.620</ele>
        <time>2022-08-23T16:34:07Z</time>
      </trkpt>
      <trkpt lat="43.111719999999984" lon="-1.2777970000000007">
        <ele>255.650</ele>
        <time>2022-08-23T16:34:09Z</time>
      </trkpt>
      <trkpt lat="43.11175999999998" lon="-1.2777410000000007">
        <ele>255.829</ele>
        <time>2022-08-23T16:34:10Z</time>
      </trkpt>
      <trkpt lat="43.11179999999998" lon="-1.2776900000000007">
        <ele>256.037</ele>
        <time>2022-08-23T16:34:11Z</time>
      </trkpt>
      <trkpt lat="43.111837999999985" lon="-1.2776390000000006">
        <ele>256.049</ele>
        <time>2022-08-23T16:34:12Z</time>
      </trkpt>
      <trkpt lat="43.111876999999986" lon="-1.2775870000000007">
        <ele>256.213</ele>
        <time>2022-08-23T16:34:13Z</time>
      </trkpt>
      <trkpt lat="43.11191799999999" lon="-1.2775390000000006">
        <ele>256.409</ele>
        <time>2022-08-23T16:34:14Z</time>
      </trkpt>
      <trkpt lat="43.11195799999999" lon="-1.2774930000000007">
        <ele>256.664</ele>
        <time>2022-08-23T16:34:15Z</time>
      </trkpt>
      <trkpt lat="43.11199699999999" lon="-1.2774500000000006">
        <ele>256.694</ele>
        <time>2022-08-23T16:34:16Z</time>
      </trkpt>
      <trkpt lat="43.11203499999999" lon="-1.2774070000000006">
        <ele>256.854</ele>
        <time>2022-08-23T16:34:17Z</time>
      </trkpt>
      <trkpt lat="43.112072999999995" lon="-1.2773640000000006">
        <ele>256.860</ele>
        <time>2022-08-23T16:34:18Z</time>
      </trkpt>
      <trkpt lat="43.11210799999999" lon="-1.2773180000000006">
        <ele>256.842</ele>
        <time>2022-08-23T16:34:19Z</time>
      </trkpt>
      <trkpt lat="43.11214799999999" lon="-1.2772760000000005">
        <ele>257.269</ele>
        <time>2022-08-23T16:34:20Z</time>
      </trkpt>
      <trkpt lat="43.11223599999999" lon="-1.2771970000000006">
        <ele>257.451</ele>
        <time>2022-08-23T16:34:22Z</time>
      </trkpt>
      <trkpt lat="43.11252099999999" lon="-1.2769300000000006">
        <ele>257.431</ele>
        <time>2022-08-23T16:34:28Z</time>
      </trkpt>
      <trkpt lat="43.11257299999998" lon="-1.2768700000000006">
        <ele>257.270</ele>
        <time>2022-08-23T16:34:29Z</time>
      </trkpt>
      <trkpt lat="43.11261099999999" lon="-1.2768100000000007">
        <ele>257.227</ele>
        <time>2022-08-23T16:34:30Z</time>
      </trkpt>
      <trkpt lat="43.11264899999999" lon="-1.2767480000000007">
        <ele>257.068</ele>
        <time>2022-08-23T16:34:31Z</time>
      </trkpt>
      <trkpt lat="43.11268599999999" lon="-1.2766900000000008">
        <ele>256.814</ele>
        <time>2022-08-23T16:34:32Z</time>
      </trkpt>
      <trkpt lat="43.11278499999999" lon="-1.2764970000000007">
        <ele>256.609</ele>
        <time>2022-08-23T16:34:35Z</time>
      </trkpt>
      <trkpt lat="43.11281599999999" lon="-1.2764300000000006">
        <ele>256.693</ele>
        <time>2022-08-23T16:34:36Z</time>
      </trkpt>
      <trkpt lat="43.11286699999999" lon="-1.2762910000000007">
        <ele>256.853</ele>
        <time>2022-08-23T16:34:38Z</time>
      </trkpt>
      <trkpt lat="43.112887999999984" lon="-1.2762180000000007">
        <ele>256.823</ele>
        <time>2022-08-23T16:34:39Z</time>
      </trkpt>
      <trkpt lat="43.112903999999986" lon="-1.2761450000000008">
        <ele>256.849</ele>
        <time>2022-08-23T16:34:40Z</time>
      </trkpt>
      <trkpt lat="43.11291499999999" lon="-1.2760690000000008">
        <ele>257.041</ele>
        <time>2022-08-23T16:34:41Z</time>
      </trkpt>
      <trkpt lat="43.11293899999999" lon="-1.2758480000000008">
        <ele>257.418</ele>
        <time>2022-08-23T16:34:44Z</time>
      </trkpt>
      <trkpt lat="43.11294399999999" lon="-1.2757760000000007">
        <ele>257.470</ele>
        <time>2022-08-23T16:34:45Z</time>
      </trkpt>
      <trkpt lat="43.11294999999999" lon="-1.2757040000000006">
        <ele>257.430</ele>
        <time>2022-08-23T16:34:46Z</time>
      </trkpt>
      <trkpt lat="43.11295499999999" lon="-1.2756350000000005">
        <ele>257.619</ele>
        <time>2022-08-23T16:34:47Z</time>
      </trkpt>
      <trkpt lat="43.11296299999999" lon="-1.2755690000000006">
        <ele>257.633</ele>
        <time>2022-08-23T16:34:48Z</time>
      </trkpt>
      <trkpt lat="43.11296999999999" lon="-1.2755050000000006">
        <ele>257.823</ele>
        <time>2022-08-23T16:34:49Z</time>
      </trkpt>
      <trkpt lat="43.11297399999999" lon="-1.2754430000000005">
        <ele>258.015</ele>
        <time>2022-08-23T16:34:50Z</time>
      </trkpt>
      <trkpt lat="43.112977999999984" lon="-1.2753800000000006">
        <ele>258.009</ele>
        <time>2022-08-23T16:34:51Z</time>
      </trkpt>
      <trkpt lat="43.112996999999986" lon="-1.2752550000000007">
        <ele>258.434</ele>
        <time>2022-08-23T16:34:53Z</time>
      </trkpt>
      <trkpt lat="43.11302899999998" lon="-1.2750600000000007">
        <ele>259.464</ele>
        <time>2022-08-23T16:34:56Z</time>
      </trkpt>
      <trkpt lat="43.11307399999998" lon="-1.2748580000000007">
        <ele>259.444</ele>
        <time>2022-08-23T16:34:59Z</time>
      </trkpt>
      <trkpt lat="43.113089999999985" lon="-1.2747920000000008">
        <ele>259.650</ele>
        <time>2022-08-23T16:35:00Z</time>
      </trkpt>
      <trkpt lat="43.11310599999999" lon="-1.2747280000000007">
        <ele>259.672</ele>
        <time>2022-08-23T16:35:01Z</time>
      </trkpt>
      <trkpt lat="43.113120999999985" lon="-1.2746650000000008">
        <ele>259.639</ele>
        <time>2022-08-23T16:35:02Z</time>
      </trkpt>
      <trkpt lat="43.11313699999999" lon="-1.2746030000000008">
        <ele>259.891</ele>
        <time>2022-08-23T16:35:03Z</time>
      </trkpt>
      <trkpt lat="43.11315899999999" lon="-1.2745430000000009">
        <ele>259.831</ele>
        <time>2022-08-23T16:35:04Z</time>
      </trkpt>
      <trkpt lat="43.11318899999999" lon="-1.2744630000000008">
        <ele>260.080</ele>
        <time>2022-08-23T16:35:05Z</time>
      </trkpt>
      <trkpt lat="43.11320899999999" lon="-1.2744100000000007">
        <ele>260.271</ele>
        <time>2022-08-23T16:35:06Z</time>
      </trkpt>
      <trkpt lat="43.11323599999999" lon="-1.2743430000000007">
        <ele>260.441</ele>
        <time>2022-08-23T16:35:07Z</time>
      </trkpt>
      <trkpt lat="43.113262999999996" lon="-1.2742740000000006">
        <ele>260.615</ele>
        <time>2022-08-23T16:35:08Z</time>
      </trkpt>
      <trkpt lat="43.113293999999996" lon="-1.2742030000000006">
        <ele>260.609</ele>
        <time>2022-08-23T16:35:09Z</time>
      </trkpt>
      <trkpt lat="43.113333999999995" lon="-1.2741130000000007">
        <ele>260.688</ele>
        <time>2022-08-23T16:35:10Z</time>
      </trkpt>
      <trkpt lat="43.113361999999995" lon="-1.2740510000000007">
        <ele>260.688</ele>
        <time>2022-08-23T16:35:11Z</time>
      </trkpt>
      <trkpt lat="43.11339699999999" lon="-1.2739730000000007">
        <ele>260.698</ele>
        <time>2022-08-23T16:35:12Z</time>
      </trkpt>
      <trkpt lat="43.11343999999999" lon="-1.2738930000000006">
        <ele>260.674</ele>
        <time>2022-08-23T16:35:13Z</time>
      </trkpt>
      <trkpt lat="43.11350599999999" lon="-1.2738010000000006">
        <ele>260.666</ele>
        <time>2022-08-23T16:35:14Z</time>
      </trkpt>
      <trkpt lat="43.11356999999999" lon="-1.2737340000000006">
        <ele>260.283</ele>
        <time>2022-08-23T16:35:15Z</time>
      </trkpt>
      <trkpt lat="43.11362699999999" lon="-1.2736840000000005">
        <ele>260.065</ele>
        <time>2022-08-23T16:35:16Z</time>
      </trkpt>
      <trkpt lat="43.113697999999985" lon="-1.2736270000000005">
        <ele>259.625</ele>
        <time>2022-08-23T16:35:17Z</time>
      </trkpt>
      <trkpt lat="43.11377299999999" lon="-1.2735760000000005">
        <ele>259.274</ele>
        <time>2022-08-23T16:35:18Z</time>
      </trkpt>
      <trkpt lat="43.11387399999999" lon="-1.2735070000000004">
        <ele>258.664</ele>
        <time>2022-08-23T16:35:19Z</time>
      </trkpt>
      <trkpt lat="43.11394599999999" lon="-1.2734630000000005">
        <ele>258.406</ele>
        <time>2022-08-23T16:35:20Z</time>
      </trkpt>
      <trkpt lat="43.11412099999999" lon="-1.2733170000000005">
        <ele>257.416</ele>
        <time>2022-08-23T16:35:22Z</time>
      </trkpt>
      <trkpt lat="43.11447099999999" lon="-1.2730880000000004">
        <ele>256.009</ele>
        <time>2022-08-23T16:35:26Z</time>
      </trkpt>
      <trkpt lat="43.11473299999999" lon="-1.2730110000000003">
        <ele>255.097</ele>
        <time>2022-08-23T16:35:29Z</time>
      </trkpt>
      <trkpt lat="43.114842999999986" lon="-1.2730060000000003">
        <ele>254.617</ele>
        <time>2022-08-23T16:35:30Z</time>
      </trkpt>
      <trkpt lat="43.11512899999999" lon="-1.2729010000000003">
        <ele>253.477</ele>
        <time>2022-08-23T16:35:33Z</time>
      </trkpt>
      <trkpt lat="43.11522799999999" lon="-1.2728730000000004">
        <ele>253.283</ele>
        <time>2022-08-23T16:35:34Z</time>
      </trkpt>
      <trkpt lat="43.11534099999999" lon="-1.2728200000000003">
        <ele>252.655</ele>
        <time>2022-08-23T16:35:35Z</time>
      </trkpt>
      <trkpt lat="43.115425999999985" lon="-1.2727590000000002">
        <ele>252.022</ele>
        <time>2022-08-23T16:35:36Z</time>
      </trkpt>
      <trkpt lat="43.115504999999985" lon="-1.2726870000000001">
        <ele>251.834</ele>
        <time>2022-08-23T16:35:37Z</time>
      </trkpt>
      <trkpt lat="43.11556499999998" lon="-1.2726210000000002">
        <ele>251.074</ele>
        <time>2022-08-23T16:35:38Z</time>
      </trkpt>
      <trkpt lat="43.11563099999998" lon="-1.2725320000000002">
        <ele>250.653</ele>
        <time>2022-08-23T16:35:39Z</time>
      </trkpt>
      <trkpt lat="43.11569199999998" lon="-1.2724370000000003">
        <ele>250.091</ele>
        <time>2022-08-23T16:35:40Z</time>
      </trkpt>
      <trkpt lat="43.115749999999984" lon="-1.2723340000000003">
        <ele>250.081</ele>
        <time>2022-08-23T16:35:41Z</time>
      </trkpt>
      <trkpt lat="43.115802999999985" lon="-1.2722240000000002">
        <ele>249.419</ele>
        <time>2022-08-23T16:35:42Z</time>
      </trkpt>
      <trkpt lat="43.115895999999985" lon="-1.2720060000000002">
        <ele>248.809</ele>
        <time>2022-08-23T16:35:44Z</time>
      </trkpt>
      <trkpt lat="43.115948999999986" lon="-1.2718790000000002">
        <ele>248.630</ele>
        <time>2022-08-23T16:35:45Z</time>
      </trkpt>
      <trkpt lat="43.11598799999999" lon="-1.2717730000000003">
        <ele>248.420</ele>
        <time>2022-08-23T16:35:46Z</time>
      </trkpt>
      <trkpt lat="43.11606099999999" lon="-1.2715830000000004">
        <ele>247.860</ele>
        <time>2022-08-23T16:35:48Z</time>
      </trkpt>
      <trkpt lat="43.11609999999999" lon="-1.2714840000000003">
        <ele>247.876</ele>
        <time>2022-08-23T16:35:49Z</time>
      </trkpt>
      <trkpt lat="43.116134999999986" lon="-1.2713840000000003">
        <ele>247.658</ele>
        <time>2022-08-23T16:35:50Z</time>
      </trkpt>
      <trkpt lat="43.11625499999999" lon="-1.2709510000000004">
        <ele>247.275</ele>
        <time>2022-08-23T16:35:54Z</time>
      </trkpt>
      <trkpt lat="43.11633699999999" lon="-1.2707090000000003">
        <ele>247.077</ele>
        <time>2022-08-23T16:35:56Z</time>
      </trkpt>
      <trkpt lat="43.11638499999999" lon="-1.2706120000000003">
        <ele>247.077</ele>
        <time>2022-08-23T16:35:57Z</time>
      </trkpt>
      <trkpt lat="43.11643799999999" lon="-1.2705230000000003">
        <ele>246.826</ele>
        <time>2022-08-23T16:35:58Z</time>
      </trkpt>
      <trkpt lat="43.116483999999986" lon="-1.2704620000000002">
        <ele>246.263</ele>
        <time>2022-08-23T16:35:59Z</time>
      </trkpt>
      <trkpt lat="43.11654499999999" lon="-1.2703940000000002">
        <ele>246.044</ele>
        <time>2022-08-23T16:36:00Z</time>
      </trkpt>
      <trkpt lat="43.116607999999985" lon="-1.2703320000000002">
        <ele>245.418</ele>
        <time>2022-08-23T16:36:01Z</time>
      </trkpt>
      <trkpt lat="43.116736999999986" lon="-1.2702130000000003">
        <ele>244.609</ele>
        <time>2022-08-23T16:36:03Z</time>
      </trkpt>
      <trkpt lat="43.116804999999985" lon="-1.2701600000000002">
        <ele>244.497</ele>
        <time>2022-08-23T16:36:04Z</time>
      </trkpt>
      <trkpt lat="43.11703199999999" lon="-1.2700630000000002">
        <ele>244.077</ele>
        <time>2022-08-23T16:36:07Z</time>
      </trkpt>
      <trkpt lat="43.11726799999999" lon="-1.269999">
        <ele>243.227</ele>
        <time>2022-08-23T16:36:10Z</time>
      </trkpt>
      <trkpt lat="43.11734899999999" lon="-1.269981">
        <ele>243.073</ele>
        <time>2022-08-23T16:36:11Z</time>
      </trkpt>
      <trkpt lat="43.11742499999999" lon="-1.269958">
        <ele>242.885</ele>
        <time>2022-08-23T16:36:12Z</time>
      </trkpt>
      <trkpt lat="43.11752199999999" lon="-1.269931">
        <ele>242.642</ele>
        <time>2022-08-23T16:36:13Z</time>
      </trkpt>
      <trkpt lat="43.11759199999999" lon="-1.269909">
        <ele>242.694</ele>
        <time>2022-08-23T16:36:14Z</time>
      </trkpt>
      <trkpt lat="43.11766099999999" lon="-1.2698859999999998">
        <ele>242.244</ele>
        <time>2022-08-23T16:36:15Z</time>
      </trkpt>
      <trkpt lat="43.117957999999994" lon="-1.2698089999999997">
        <ele>241.453</ele>
        <time>2022-08-23T16:36:19Z</time>
      </trkpt>
      <trkpt lat="43.118016999999995" lon="-1.2697919999999998">
        <ele>241.266</ele>
        <time>2022-08-23T16:36:20Z</time>
      </trkpt>
      <trkpt lat="43.11810199999999" lon="-1.2697679999999998">
        <ele>241.229</ele>
        <time>2022-08-23T16:36:21Z</time>
      </trkpt>
      <trkpt lat="43.118154999999994" lon="-1.2697549999999997">
        <ele>241.021</ele>
        <time>2022-08-23T16:36:22Z</time>
      </trkpt>
      <trkpt lat="43.11822099999999" lon="-1.2697409999999998">
        <ele>241.009</ele>
        <time>2022-08-23T16:36:23Z</time>
      </trkpt>
      <trkpt lat="43.11829799999999" lon="-1.2697219999999998">
        <ele>241.097</ele>
        <time>2022-08-23T16:36:24Z</time>
      </trkpt>
      <trkpt lat="43.11834899999999" lon="-1.2697039999999997">
        <ele>241.087</ele>
        <time>2022-08-23T16:36:25Z</time>
      </trkpt>
      <trkpt lat="43.11840999999999" lon="-1.2696899999999998">
        <ele>241.017</ele>
        <time>2022-08-23T16:36:26Z</time>
      </trkpt>
      <trkpt lat="43.11846999999999" lon="-1.2696789999999998">
        <ele>241.223</ele>
        <time>2022-08-23T16:36:27Z</time>
      </trkpt>
      <trkpt lat="43.118712999999985" lon="-1.2696329999999998">
        <ele>241.475</ele>
        <time>2022-08-23T16:36:31Z</time>
      </trkpt>
      <trkpt lat="43.11884899999998" lon="-1.2696169999999998">
        <ele>241.632</ele>
        <time>2022-08-23T16:36:33Z</time>
      </trkpt>
      <trkpt lat="43.119103999999986" lon="-1.2696049999999999">
        <ele>242.044</ele>
        <time>2022-08-23T16:36:37Z</time>
      </trkpt>
      <trkpt lat="43.119300999999986" lon="-1.2695809999999998">
        <ele>242.274</ele>
        <time>2022-08-23T16:36:40Z</time>
      </trkpt>
      <trkpt lat="43.119416999999984" lon="-1.2695589999999999">
        <ele>242.243</ele>
        <time>2022-08-23T16:36:42Z</time>
      </trkpt>
      <trkpt lat="43.119480999999986" lon="-1.2695509999999999">
        <ele>242.414</ele>
        <time>2022-08-23T16:36:43Z</time>
      </trkpt>
      <trkpt lat="43.11954499999999" lon="-1.2695379999999998">
        <ele>242.654</ele>
        <time>2022-08-23T16:36:44Z</time>
      </trkpt>
      <trkpt lat="43.11960899999999" lon="-1.269526">
        <ele>242.609</ele>
        <time>2022-08-23T16:36:45Z</time>
      </trkpt>
      <trkpt lat="43.11966999999999" lon="-1.269517">
        <ele>242.609</ele>
        <time>2022-08-23T16:36:46Z</time>
      </trkpt>
      <trkpt lat="43.11973299999999" lon="-1.269506">
        <ele>242.642</ele>
        <time>2022-08-23T16:36:47Z</time>
      </trkpt>
      <trkpt lat="43.11979299999999" lon="-1.2694940000000001">
        <ele>242.892</ele>
        <time>2022-08-23T16:36:48Z</time>
      </trkpt>
      <trkpt lat="43.11985499999999" lon="-1.269481">
        <ele>242.872</ele>
        <time>2022-08-23T16:36:49Z</time>
      </trkpt>
      <trkpt lat="43.12003799999999" lon="-1.269455">
        <ele>243.048</ele>
        <time>2022-08-23T16:36:52Z</time>
      </trkpt>
      <trkpt lat="43.12009899999999" lon="-1.269445">
        <ele>243.090</ele>
        <time>2022-08-23T16:36:53Z</time>
      </trkpt>
      <trkpt lat="43.12028699999999" lon="-1.269414">
        <ele>243.217</ele>
        <time>2022-08-23T16:36:56Z</time>
      </trkpt>
      <trkpt lat="43.12042099999999" lon="-1.269407">
        <ele>243.289</ele>
        <time>2022-08-23T16:36:58Z</time>
      </trkpt>
      <trkpt lat="43.12058199999999" lon="-1.269414">
        <ele>243.269</ele>
        <time>2022-08-23T16:37:00Z</time>
      </trkpt>
      <trkpt lat="43.120712999999995" lon="-1.269465">
        <ele>243.028</ele>
        <time>2022-08-23T16:37:02Z</time>
      </trkpt>
      <trkpt lat="43.120788" lon="-1.269496">
        <ele>243.061</ele>
        <time>2022-08-23T16:37:03Z</time>
      </trkpt>
      <trkpt lat="43.120863" lon="-1.269529">
        <ele>242.821</ele>
        <time>2022-08-23T16:37:04Z</time>
      </trkpt>
      <trkpt lat="43.121182" lon="-1.2696749999999999">
        <ele>242.213</ele>
        <time>2022-08-23T16:37:08Z</time>
      </trkpt>
      <trkpt lat="43.121266" lon="-1.2697079999999998">
        <ele>241.609</ele>
        <time>2022-08-23T16:37:09Z</time>
      </trkpt>
      <trkpt lat="43.121536" lon="-1.2697979999999998">
        <ele>240.627</ele>
        <time>2022-08-23T16:37:12Z</time>
      </trkpt>
      <trkpt lat="43.121722" lon="-1.2698579999999997">
        <ele>239.637</ele>
        <time>2022-08-23T16:37:14Z</time>
      </trkpt>
      <trkpt lat="43.121812999999996" lon="-1.2698989999999997">
        <ele>239.287</ele>
        <time>2022-08-23T16:37:15Z</time>
      </trkpt>
      <trkpt lat="43.121897999999995" lon="-1.2699509999999996">
        <ele>238.693</ele>
        <time>2022-08-23T16:37:16Z</time>
      </trkpt>
      <trkpt lat="43.121981999999996" lon="-1.2700029999999995">
        <ele>237.815</ele>
        <time>2022-08-23T16:37:17Z</time>
      </trkpt>
      <trkpt lat="43.12206" lon="-1.2700529999999997">
        <ele>237.442</ele>
        <time>2022-08-23T16:37:18Z</time>
      </trkpt>
      <trkpt lat="43.122136999999995" lon="-1.2700999999999996">
        <ele>237.254</ele>
        <time>2022-08-23T16:37:19Z</time>
      </trkpt>
      <trkpt lat="43.122212" lon="-1.2701419999999997">
        <ele>237.054</ele>
        <time>2022-08-23T16:37:20Z</time>
      </trkpt>
      <trkpt lat="43.122282999999996" lon="-1.2701779999999996">
        <ele>237.043</ele>
        <time>2022-08-23T16:37:21Z</time>
      </trkpt>
      <trkpt lat="43.122364999999995" lon="-1.2702139999999995">
        <ele>237.081</ele>
        <time>2022-08-23T16:37:22Z</time>
      </trkpt>
      <trkpt lat="43.12242" lon="-1.2702259999999994">
        <ele>237.061</ele>
        <time>2022-08-23T16:37:23Z</time>
      </trkpt>
      <trkpt lat="43.12249" lon="-1.2702349999999993">
        <ele>237.017</ele>
        <time>2022-08-23T16:37:24Z</time>
      </trkpt>
      <trkpt lat="43.122559" lon="-1.2702409999999993">
        <ele>237.009</ele>
        <time>2022-08-23T16:37:25Z</time>
      </trkpt>
      <trkpt lat="43.122834000000005" lon="-1.2702119999999992">
        <ele>237.289</ele>
        <time>2022-08-23T16:37:29Z</time>
      </trkpt>
      <trkpt lat="43.122977000000006" lon="-1.2701789999999993">
        <ele>237.219</ele>
        <time>2022-08-23T16:37:31Z</time>
      </trkpt>
      <trkpt lat="43.123270000000005" lon="-1.2700719999999992">
        <ele>237.279</ele>
        <time>2022-08-23T16:37:35Z</time>
      </trkpt>
      <trkpt lat="43.123419000000005" lon="-1.2700039999999992">
        <ele>237.055</ele>
        <time>2022-08-23T16:37:37Z</time>
      </trkpt>
      <trkpt lat="43.123492000000006" lon="-1.2699749999999992">
        <ele>236.657</ele>
        <time>2022-08-23T16:37:38Z</time>
      </trkpt>
      <trkpt lat="43.123923000000005" lon="-1.2697989999999992">
        <ele>235.634</ele>
        <time>2022-08-23T16:37:44Z</time>
      </trkpt>
      <trkpt lat="43.123996000000005" lon="-1.2697699999999992">
        <ele>235.426</ele>
        <time>2022-08-23T16:37:45Z</time>
      </trkpt>
      <trkpt lat="43.124546" lon="-1.2695609999999993">
        <ele>234.436</ele>
        <time>2022-08-23T16:37:52Z</time>
      </trkpt>
      <trkpt lat="43.124626" lon="-1.2695309999999993">
        <ele>234.245</ele>
        <time>2022-08-23T16:37:53Z</time>
      </trkpt>
      <trkpt lat="43.124871999999996" lon="-1.2694309999999993">
        <ele>233.461</ele>
        <time>2022-08-23T16:37:56Z</time>
      </trkpt>
      <trkpt lat="43.125288" lon="-1.2692679999999994">
        <ele>232.421</ele>
        <time>2022-08-23T16:38:01Z</time>
      </trkpt>
      <trkpt lat="43.125457999999995" lon="-1.2691969999999995">
        <ele>231.813</ele>
        <time>2022-08-23T16:38:03Z</time>
      </trkpt>
      <trkpt lat="43.1258" lon="-1.2690659999999994">
        <ele>231.409</ele>
        <time>2022-08-23T16:38:07Z</time>
      </trkpt>
      <trkpt lat="43.125882" lon="-1.2690379999999994">
        <ele>231.267</ele>
        <time>2022-08-23T16:38:08Z</time>
      </trkpt>
      <trkpt lat="43.125961" lon="-1.2690059999999994">
        <ele>231.287</ele>
        <time>2022-08-23T16:38:09Z</time>
      </trkpt>
      <trkpt lat="43.126037" lon="-1.2689719999999993">
        <ele>231.087</ele>
        <time>2022-08-23T16:38:10Z</time>
      </trkpt>
      <trkpt lat="43.126104" lon="-1.2689339999999993">
        <ele>230.863</ele>
        <time>2022-08-23T16:38:11Z</time>
      </trkpt>
      <trkpt lat="43.126172" lon="-1.2688909999999993">
        <ele>230.835</ele>
        <time>2022-08-23T16:38:12Z</time>
      </trkpt>
      <trkpt lat="43.126534" lon="-1.2686859999999993">
        <ele>230.642</ele>
        <time>2022-08-23T16:38:17Z</time>
      </trkpt>
      <trkpt lat="43.126608" lon="-1.2686559999999993">
        <ele>230.624</ele>
        <time>2022-08-23T16:38:18Z</time>
      </trkpt>
      <trkpt lat="43.126915" lon="-1.2685649999999993">
        <ele>230.474</ele>
        <time>2022-08-23T16:38:22Z</time>
      </trkpt>
      <trkpt lat="43.12699" lon="-1.2685479999999993">
        <ele>230.433</ele>
        <time>2022-08-23T16:38:23Z</time>
      </trkpt>
      <trkpt lat="43.127141" lon="-1.2685209999999993">
        <ele>230.077</ele>
        <time>2022-08-23T16:38:25Z</time>
      </trkpt>
      <trkpt lat="43.127374" lon="-1.2684849999999994">
        <ele>229.661</ele>
        <time>2022-08-23T16:38:28Z</time>
      </trkpt>
      <trkpt lat="43.12745" lon="-1.2684679999999995">
        <ele>229.627</ele>
        <time>2022-08-23T16:38:29Z</time>
      </trkpt>
      <trkpt lat="43.127749" lon="-1.2683239999999996">
        <ele>229.209</ele>
        <time>2022-08-23T16:38:33Z</time>
      </trkpt>
      <trkpt lat="43.127907" lon="-1.2682599999999995">
        <ele>229.088</ele>
        <time>2022-08-23T16:38:35Z</time>
      </trkpt>
      <trkpt lat="43.128299" lon="-1.2680989999999994">
        <ele>228.628</ele>
        <time>2022-08-23T16:38:40Z</time>
      </trkpt>
      <trkpt lat="43.128448999999996" lon="-1.2680269999999993">
        <ele>228.438</ele>
        <time>2022-08-23T16:38:42Z</time>
      </trkpt>
      <trkpt lat="43.128518" lon="-1.2679929999999993">
        <ele>228.294</ele>
        <time>2022-08-23T16:38:43Z</time>
      </trkpt>
      <trkpt lat="43.128583" lon="-1.2679549999999993">
        <ele>228.216</ele>
        <time>2022-08-23T16:38:44Z</time>
      </trkpt>
      <trkpt lat="43.128717" lon="-1.2678639999999992">
        <ele>227.823</ele>
        <time>2022-08-23T16:38:46Z</time>
      </trkpt>
      <trkpt lat="43.128781000000004" lon="-1.2678129999999992">
        <ele>227.845</ele>
        <time>2022-08-23T16:38:47Z</time>
      </trkpt>
      <trkpt lat="43.128841" lon="-1.2677569999999991">
        <ele>227.695</ele>
        <time>2022-08-23T16:38:48Z</time>
      </trkpt>
      <trkpt lat="43.1289" lon="-1.267695999999999">
        <ele>227.624</ele>
        <time>2022-08-23T16:38:49Z</time>
      </trkpt>
      <trkpt lat="43.128954" lon="-1.2676299999999991">
        <ele>227.668</ele>
        <time>2022-08-23T16:38:50Z</time>
      </trkpt>
      <trkpt lat="43.129005" lon="-1.267562999999999">
        <ele>227.642</ele>
        <time>2022-08-23T16:38:51Z</time>
      </trkpt>
      <trkpt lat="43.129052" lon="-1.2674999999999992">
        <ele>227.626</ele>
        <time>2022-08-23T16:38:52Z</time>
      </trkpt>
      <trkpt lat="43.129099000000004" lon="-1.2674399999999992">
        <ele>227.609</ele>
        <time>2022-08-23T16:38:53Z</time>
      </trkpt>
      <trkpt lat="43.129148" lon="-1.2673839999999992">
        <ele>227.687</ele>
        <time>2022-08-23T16:38:54Z</time>
      </trkpt>
      <trkpt lat="43.129194" lon="-1.2673259999999993">
        <ele>227.827</ele>
        <time>2022-08-23T16:38:55Z</time>
      </trkpt>
      <trkpt lat="43.129242" lon="-1.2672729999999992">
        <ele>227.877</ele>
        <time>2022-08-23T16:38:56Z</time>
      </trkpt>
      <trkpt lat="43.129286" lon="-1.267222999999999">
        <ele>228.073</ele>
        <time>2022-08-23T16:38:57Z</time>
      </trkpt>
      <trkpt lat="43.129332" lon="-1.267182999999999">
        <ele>228.025</ele>
        <time>2022-08-23T16:38:58Z</time>
      </trkpt>
      <trkpt lat="43.129376" lon="-1.267142999999999">
        <ele>228.252</ele>
        <time>2022-08-23T16:38:59Z</time>
      </trkpt>
      <trkpt lat="43.129418" lon="-1.267118999999999">
        <ele>228.494</ele>
        <time>2022-08-23T16:39:00Z</time>
      </trkpt>
      <trkpt lat="43.129464" lon="-1.267099999999999">
        <ele>228.464</ele>
        <time>2022-08-23T16:39:01Z</time>
      </trkpt>
      <trkpt lat="43.129507" lon="-1.267076999999999">
        <ele>228.673</ele>
        <time>2022-08-23T16:39:02Z</time>
      </trkpt>
      <trkpt lat="43.129548" lon="-1.2670509999999988">
        <ele>228.834</ele>
        <time>2022-08-23T16:39:03Z</time>
      </trkpt>
      <trkpt lat="43.129585" lon="-1.267014999999999">
        <ele>229.255</ele>
        <time>2022-08-23T16:39:04Z</time>
      </trkpt>
      <trkpt lat="43.12963" lon="-1.2669909999999989">
        <ele>229.210</ele>
        <time>2022-08-23T16:39:05Z</time>
      </trkpt>
      <trkpt lat="43.129678999999996" lon="-1.2669649999999988">
        <ele>229.809</ele>
        <time>2022-08-23T16:39:06Z</time>
      </trkpt>
      <trkpt lat="43.129726" lon="-1.2669399999999988">
        <ele>230.274</ele>
        <time>2022-08-23T16:39:07Z</time>
      </trkpt>
      <trkpt lat="43.129877" lon="-1.266879999999999">
        <ele>230.854</ele>
        <time>2022-08-23T16:39:10Z</time>
      </trkpt>
      <trkpt lat="43.12994" lon="-1.2668699999999988">
        <ele>231.054</ele>
        <time>2022-08-23T16:39:11Z</time>
      </trkpt>
      <trkpt lat="43.130064999999995" lon="-1.2668379999999988">
        <ele>231.250</ele>
        <time>2022-08-23T16:39:13Z</time>
      </trkpt>
      <trkpt lat="43.130134" lon="-1.2668409999999988">
        <ele>231.242</ele>
        <time>2022-08-23T16:39:14Z</time>
      </trkpt>
      <trkpt lat="43.130198" lon="-1.2668229999999987">
        <ele>231.229</ele>
        <time>2022-08-23T16:39:15Z</time>
      </trkpt>
      <trkpt lat="43.130269" lon="-1.2667919999999988">
        <ele>231.231</ele>
        <time>2022-08-23T16:39:16Z</time>
      </trkpt>
      <trkpt lat="43.130345999999996" lon="-1.266736999999999">
        <ele>231.241</ele>
        <time>2022-08-23T16:39:17Z</time>
      </trkpt>
      <trkpt lat="43.130433" lon="-1.266716999999999">
        <ele>231.260</ele>
        <time>2022-08-23T16:39:18Z</time>
      </trkpt>
      <trkpt lat="43.130494999999996" lon="-1.266712999999999">
        <ele>231.096</ele>
        <time>2022-08-23T16:39:19Z</time>
      </trkpt>
      <trkpt lat="43.130573999999996" lon="-1.2666959999999992">
        <ele>230.831</ele>
        <time>2022-08-23T16:39:20Z</time>
      </trkpt>
      <trkpt lat="43.130646" lon="-1.266669999999999">
        <ele>230.624</ele>
        <time>2022-08-23T16:39:21Z</time>
      </trkpt>
      <trkpt lat="43.130716" lon="-1.2666689999999992">
        <ele>230.609</ele>
        <time>2022-08-23T16:39:22Z</time>
      </trkpt>
      <trkpt lat="43.130784" lon="-1.266672999999999">
        <ele>230.450</ele>
        <time>2022-08-23T16:39:23Z</time>
      </trkpt>
      <trkpt lat="43.130866999999995" lon="-1.2666609999999991">
        <ele>230.410</ele>
        <time>2022-08-23T16:39:24Z</time>
      </trkpt>
      <trkpt lat="43.13095499999999" lon="-1.2666689999999992">
        <ele>230.060</ele>
        <time>2022-08-23T16:39:25Z</time>
      </trkpt>
      <trkpt lat="43.13110399999999" lon="-1.266661999999999">
        <ele>229.616</ele>
        <time>2022-08-23T16:39:27Z</time>
      </trkpt>
      <trkpt lat="43.13118899999999" lon="-1.266623999999999">
        <ele>229.428</ele>
        <time>2022-08-23T16:39:28Z</time>
      </trkpt>
      <trkpt lat="43.131570999999994" lon="-1.266521999999999">
        <ele>229.055</ele>
        <time>2022-08-23T16:39:33Z</time>
      </trkpt>
      <trkpt lat="43.13180299999999" lon="-1.266432999999999">
        <ele>228.827</ele>
        <time>2022-08-23T16:39:36Z</time>
      </trkpt>
      <trkpt lat="43.13196099999999" lon="-1.266392999999999">
        <ele>228.847</ele>
        <time>2022-08-23T16:39:38Z</time>
      </trkpt>
      <trkpt lat="43.13212399999999" lon="-1.266388999999999">
        <ele>228.696</ele>
        <time>2022-08-23T16:39:40Z</time>
      </trkpt>
      <trkpt lat="43.13220099999999" lon="-1.266388999999999">
        <ele>228.642</ele>
        <time>2022-08-23T16:39:41Z</time>
      </trkpt>
      <trkpt lat="43.13227399999999" lon="-1.266391999999999">
        <ele>228.622</ele>
        <time>2022-08-23T16:39:42Z</time>
      </trkpt>
      <trkpt lat="43.13234099999999" lon="-1.266396999999999">
        <ele>228.614</ele>
        <time>2022-08-23T16:39:43Z</time>
      </trkpt>
      <trkpt lat="43.13240399999999" lon="-1.266399999999999">
        <ele>228.409</ele>
        <time>2022-08-23T16:39:44Z</time>
      </trkpt>
      <trkpt lat="43.13247299999999" lon="-1.2664049999999991">
        <ele>228.425</ele>
        <time>2022-08-23T16:39:45Z</time>
      </trkpt>
      <trkpt lat="43.13274399999999" lon="-1.2664369999999991">
        <ele>228.875</ele>
        <time>2022-08-23T16:39:49Z</time>
      </trkpt>
      <trkpt lat="43.13281099999999" lon="-1.266448999999999">
        <ele>229.095</ele>
        <time>2022-08-23T16:39:50Z</time>
      </trkpt>
      <trkpt lat="43.13287399999999" lon="-1.266464999999999">
        <ele>229.061</ele>
        <time>2022-08-23T16:39:51Z</time>
      </trkpt>
      <trkpt lat="43.13293299999999" lon="-1.266488999999999">
        <ele>229.073</ele>
        <time>2022-08-23T16:39:52Z</time>
      </trkpt>
      <trkpt lat="43.13299099999999" lon="-1.2665179999999991">
        <ele>229.220</ele>
        <time>2022-08-23T16:39:53Z</time>
      </trkpt>
      <trkpt lat="43.13304699999999" lon="-1.2665529999999992">
        <ele>229.292</ele>
        <time>2022-08-23T16:39:54Z</time>
      </trkpt>
      <trkpt lat="43.13310399999999" lon="-1.266593999999999">
        <ele>229.232</ele>
        <time>2022-08-23T16:39:55Z</time>
      </trkpt>
      <trkpt lat="43.13320999999999" lon="-1.2666799999999991">
        <ele>229.281</ele>
        <time>2022-08-23T16:39:57Z</time>
      </trkpt>
      <trkpt lat="43.13325899999999" lon="-1.266731999999999">
        <ele>229.496</ele>
        <time>2022-08-23T16:39:58Z</time>
      </trkpt>
      <trkpt lat="43.133304999999986" lon="-1.266785999999999">
        <ele>229.431</ele>
        <time>2022-08-23T16:39:59Z</time>
      </trkpt>
      <trkpt lat="43.133352999999985" lon="-1.2668389999999992">
        <ele>229.624</ele>
        <time>2022-08-23T16:40:00Z</time>
      </trkpt>
      <trkpt lat="43.13350699999999" lon="-1.266990999999999">
        <ele>229.809</ele>
        <time>2022-08-23T16:40:03Z</time>
      </trkpt>
      <trkpt lat="43.13356499999999" lon="-1.267026999999999">
        <ele>230.070</ele>
        <time>2022-08-23T16:40:04Z</time>
      </trkpt>
      <trkpt lat="43.13368099999999" lon="-1.267078999999999">
        <ele>230.250</ele>
        <time>2022-08-23T16:40:06Z</time>
      </trkpt>
      <trkpt lat="43.13373899999999" lon="-1.267097999999999">
        <ele>230.450</ele>
        <time>2022-08-23T16:40:07Z</time>
      </trkpt>
      <trkpt lat="43.133914999999995" lon="-1.267129999999999">
        <ele>230.836</ele>
        <time>2022-08-23T16:40:10Z</time>
      </trkpt>
      <trkpt lat="43.13403399999999" lon="-1.267135999999999">
        <ele>231.028</ele>
        <time>2022-08-23T16:40:12Z</time>
      </trkpt>
      <trkpt lat="43.13409099999999" lon="-1.267129999999999">
        <ele>231.015</ele>
        <time>2022-08-23T16:40:13Z</time>
      </trkpt>
      <trkpt lat="43.13420399999999" lon="-1.267092999999999">
        <ele>231.257</ele>
        <time>2022-08-23T16:40:15Z</time>
      </trkpt>
      <trkpt lat="43.13425799999999" lon="-1.2670609999999989">
        <ele>231.227</ele>
        <time>2022-08-23T16:40:16Z</time>
      </trkpt>
      <trkpt lat="43.13431099999999" lon="-1.2670179999999989">
        <ele>231.476</ele>
        <time>2022-08-23T16:40:17Z</time>
      </trkpt>
      <trkpt lat="43.13447399999999" lon="-1.266849999999999">
        <ele>231.473</ele>
        <time>2022-08-23T16:40:20Z</time>
      </trkpt>
      <trkpt lat="43.13452199999999" lon="-1.266776999999999">
        <ele>231.685</ele>
        <time>2022-08-23T16:40:21Z</time>
      </trkpt>
      <trkpt lat="43.13461399999999" lon="-1.266617999999999">
        <ele>231.413</ele>
        <time>2022-08-23T16:40:23Z</time>
      </trkpt>
      <trkpt lat="43.134691999999994" lon="-1.2664329999999988">
        <ele>231.209</ele>
        <time>2022-08-23T16:40:25Z</time>
      </trkpt>
      <trkpt lat="43.13472399999999" lon="-1.2663279999999988">
        <ele>231.058</ele>
        <time>2022-08-23T16:40:26Z</time>
      </trkpt>
      <trkpt lat="43.13484699999999" lon="-1.2657539999999987">
        <ele>229.848</ele>
        <time>2022-08-23T16:40:31Z</time>
      </trkpt>
      <trkpt lat="43.134871" lon="-1.2656319999999988">
        <ele>229.698</ele>
        <time>2022-08-23T16:40:32Z</time>
      </trkpt>
      <trkpt lat="43.134912" lon="-1.2653859999999988">
        <ele>228.444</ele>
        <time>2022-08-23T16:40:34Z</time>
      </trkpt>
      <trkpt lat="43.134931" lon="-1.265265999999999">
        <ele>228.236</ele>
        <time>2022-08-23T16:40:35Z</time>
      </trkpt>
      <trkpt lat="43.134955000000005" lon="-1.2651399999999988">
        <ele>227.623</ele>
        <time>2022-08-23T16:40:36Z</time>
      </trkpt>
      <trkpt lat="43.13498500000001" lon="-1.2650209999999988">
        <ele>227.085</ele>
        <time>2022-08-23T16:40:37Z</time>
      </trkpt>
      <trkpt lat="43.13502100000001" lon="-1.2649109999999988">
        <ele>226.885</ele>
        <time>2022-08-23T16:40:38Z</time>
      </trkpt>
      <trkpt lat="43.13506300000001" lon="-1.2648119999999987">
        <ele>226.274</ele>
        <time>2022-08-23T16:40:39Z</time>
      </trkpt>
      <trkpt lat="43.13510900000001" lon="-1.2647229999999987">
        <ele>225.855</ele>
        <time>2022-08-23T16:40:40Z</time>
      </trkpt>
      <trkpt lat="43.13515900000001" lon="-1.2646389999999987">
        <ele>225.407</ele>
        <time>2022-08-23T16:40:41Z</time>
      </trkpt>
      <trkpt lat="43.13522000000001" lon="-1.2645639999999987">
        <ele>225.017</ele>
        <time>2022-08-23T16:40:42Z</time>
      </trkpt>
      <trkpt lat="43.13528300000001" lon="-1.2644909999999987">
        <ele>224.809</ele>
        <time>2022-08-23T16:40:43Z</time>
      </trkpt>
      <trkpt lat="43.13535200000001" lon="-1.2644259999999987">
        <ele>224.646</ele>
        <time>2022-08-23T16:40:44Z</time>
      </trkpt>
      <trkpt lat="43.13543300000001" lon="-1.2643749999999987">
        <ele>224.466</ele>
        <time>2022-08-23T16:40:45Z</time>
      </trkpt>
      <trkpt lat="43.135520000000014" lon="-1.2643469999999988">
        <ele>224.276</ele>
        <time>2022-08-23T16:40:46Z</time>
      </trkpt>
      <trkpt lat="43.135612000000016" lon="-1.2643329999999988">
        <ele>224.082</ele>
        <time>2022-08-23T16:40:47Z</time>
      </trkpt>
      <trkpt lat="43.13570400000002" lon="-1.2643349999999989">
        <ele>223.894</ele>
        <time>2022-08-23T16:40:48Z</time>
      </trkpt>
      <trkpt lat="43.135798000000015" lon="-1.264355999999999">
        <ele>223.621</ele>
        <time>2022-08-23T16:40:49Z</time>
      </trkpt>
      <trkpt lat="43.13588900000001" lon="-1.264438999999999">
        <ele>222.843</ele>
        <time>2022-08-23T16:40:50Z</time>
      </trkpt>
      <trkpt lat="43.13598000000001" lon="-1.264486999999999">
        <ele>222.413</ele>
        <time>2022-08-23T16:40:51Z</time>
      </trkpt>
      <trkpt lat="43.13607000000001" lon="-1.264519999999999">
        <ele>221.692</ele>
        <time>2022-08-23T16:40:52Z</time>
      </trkpt>
      <trkpt lat="43.13616200000001" lon="-1.264530999999999">
        <ele>221.257</ele>
        <time>2022-08-23T16:40:53Z</time>
      </trkpt>
      <trkpt lat="43.13625800000001" lon="-1.264510999999999">
        <ele>220.200</ele>
        <time>2022-08-23T16:40:54Z</time>
      </trkpt>
      <trkpt lat="43.13635600000001" lon="-1.264467999999999">
        <ele>219.420</ele>
        <time>2022-08-23T16:40:55Z</time>
      </trkpt>
      <trkpt lat="43.13645300000001" lon="-1.264407999999999">
        <ele>219.009</ele>
        <time>2022-08-23T16:40:56Z</time>
      </trkpt>
      <trkpt lat="43.13654100000001" lon="-1.264346999999999">
        <ele>218.256</ele>
        <time>2022-08-23T16:40:57Z</time>
      </trkpt>
      <trkpt lat="43.13662200000001" lon="-1.264278999999999">
        <ele>217.876</ele>
        <time>2022-08-23T16:40:58Z</time>
      </trkpt>
      <trkpt lat="43.13670100000001" lon="-1.264209999999999">
        <ele>217.426</ele>
        <time>2022-08-23T16:40:59Z</time>
      </trkpt>
      <trkpt lat="43.13677600000001" lon="-1.264134999999999">
        <ele>217.282</ele>
        <time>2022-08-23T16:41:00Z</time>
      </trkpt>
      <trkpt lat="43.13722200000001" lon="-1.2636709999999989">
        <ele>216.664</ele>
        <time>2022-08-23T16:41:06Z</time>
      </trkpt>
      <trkpt lat="43.13738000000001" lon="-1.263523999999999">
        <ele>216.051</ele>
        <time>2022-08-23T16:41:08Z</time>
      </trkpt>
      <trkpt lat="43.13745500000001" lon="-1.263451999999999">
        <ele>215.683</ele>
        <time>2022-08-23T16:41:09Z</time>
      </trkpt>
      <trkpt lat="43.13753100000001" lon="-1.2633799999999988">
        <ele>215.443</ele>
        <time>2022-08-23T16:41:10Z</time>
      </trkpt>
      <trkpt lat="43.13760800000001" lon="-1.2633119999999989">
        <ele>215.252</ele>
        <time>2022-08-23T16:41:11Z</time>
      </trkpt>
      <trkpt lat="43.13768000000001" lon="-1.2632429999999988">
        <ele>215.067</ele>
        <time>2022-08-23T16:41:12Z</time>
      </trkpt>
      <trkpt lat="43.13775000000001" lon="-1.2631769999999989">
        <ele>215.081</ele>
        <time>2022-08-23T16:41:13Z</time>
      </trkpt>
      <trkpt lat="43.137819000000015" lon="-1.2631069999999989">
        <ele>214.819</ele>
        <time>2022-08-23T16:41:14Z</time>
      </trkpt>
      <trkpt lat="43.137889000000015" lon="-1.263038999999999">
        <ele>214.609</ele>
        <time>2022-08-23T16:41:15Z</time>
      </trkpt>
      <trkpt lat="43.137959000000016" lon="-1.262970999999999">
        <ele>214.687</ele>
        <time>2022-08-23T16:41:16Z</time>
      </trkpt>
      <trkpt lat="43.138030000000015" lon="-1.262906999999999">
        <ele>214.627</ele>
        <time>2022-08-23T16:41:17Z</time>
      </trkpt>
      <trkpt lat="43.138100000000016" lon="-1.262843999999999">
        <ele>214.447</ele>
        <time>2022-08-23T16:41:18Z</time>
      </trkpt>
      <trkpt lat="43.13830100000001" lon="-1.262645999999999">
        <ele>214.023</ele>
        <time>2022-08-23T16:41:21Z</time>
      </trkpt>
      <trkpt lat="43.138438000000015" lon="-1.2625099999999991">
        <ele>213.825</ele>
        <time>2022-08-23T16:41:23Z</time>
      </trkpt>
      <trkpt lat="43.13850700000002" lon="-1.2624419999999992">
        <ele>213.882</ele>
        <time>2022-08-23T16:41:24Z</time>
      </trkpt>
      <trkpt lat="43.13857500000002" lon="-1.2623749999999991">
        <ele>213.654</ele>
        <time>2022-08-23T16:41:25Z</time>
      </trkpt>
      <trkpt lat="43.13864200000002" lon="-1.2623099999999992">
        <ele>213.684</ele>
        <time>2022-08-23T16:41:26Z</time>
      </trkpt>
      <trkpt lat="43.13890900000002" lon="-1.2620459999999991">
        <ele>213.443</ele>
        <time>2022-08-23T16:41:30Z</time>
      </trkpt>
      <trkpt lat="43.13897300000002" lon="-1.2619809999999991">
        <ele>213.496</ele>
        <time>2022-08-23T16:41:31Z</time>
      </trkpt>
      <trkpt lat="43.13903700000002" lon="-1.261916999999999">
        <ele>213.431</ele>
        <time>2022-08-23T16:41:32Z</time>
      </trkpt>
      <trkpt lat="43.139168000000026" lon="-1.261800999999999">
        <ele>213.224</ele>
        <time>2022-08-23T16:41:34Z</time>
      </trkpt>
      <trkpt lat="43.13923700000003" lon="-1.261751999999999">
        <ele>213.009</ele>
        <time>2022-08-23T16:41:35Z</time>
      </trkpt>
      <trkpt lat="43.13938500000003" lon="-1.261670999999999">
        <ele>213.050</ele>
        <time>2022-08-23T16:41:37Z</time>
      </trkpt>
      <trkpt lat="43.13952600000003" lon="-1.261624999999999">
        <ele>212.860</ele>
        <time>2022-08-23T16:41:39Z</time>
      </trkpt>
      <trkpt lat="43.139598000000035" lon="-1.261606999999999">
        <ele>212.820</ele>
        <time>2022-08-23T16:41:40Z</time>
      </trkpt>
      <trkpt lat="43.13966900000003" lon="-1.261593999999999">
        <ele>212.836</ele>
        <time>2022-08-23T16:41:41Z</time>
      </trkpt>
      <trkpt lat="43.13973700000003" lon="-1.261588999999999">
        <ele>212.838</ele>
        <time>2022-08-23T16:41:42Z</time>
      </trkpt>
      <trkpt lat="43.139806000000036" lon="-1.261594999999999">
        <ele>212.815</ele>
        <time>2022-08-23T16:41:43Z</time>
      </trkpt>
      <trkpt lat="43.13987600000004" lon="-1.2616069999999988">
        <ele>212.857</ele>
        <time>2022-08-23T16:41:44Z</time>
      </trkpt>
      <trkpt lat="43.13994500000004" lon="-1.2616229999999988">
        <ele>212.827</ele>
        <time>2022-08-23T16:41:45Z</time>
      </trkpt>
      <trkpt lat="43.14001100000004" lon="-1.2616439999999989">
        <ele>213.066</ele>
        <time>2022-08-23T16:41:46Z</time>
      </trkpt>
      <trkpt lat="43.140079000000036" lon="-1.261659999999999">
        <ele>213.222</ele>
        <time>2022-08-23T16:41:47Z</time>
      </trkpt>
      <trkpt lat="43.14014600000004" lon="-1.261677999999999">
        <ele>213.262</ele>
        <time>2022-08-23T16:41:48Z</time>
      </trkpt>
      <trkpt lat="43.14021000000004" lon="-1.261701999999999">
        <ele>213.208</ele>
        <time>2022-08-23T16:41:49Z</time>
      </trkpt>
      <trkpt lat="43.14054200000004" lon="-1.261850999999999">
        <ele>213.409</ele>
        <time>2022-08-23T16:41:54Z</time>
      </trkpt>
      <trkpt lat="43.140985000000036" lon="-1.2620109999999989">
        <ele>213.253</ele>
        <time>2022-08-23T16:41:59Z</time>
      </trkpt>
      <trkpt lat="43.14114700000004" lon="-1.2620039999999988">
        <ele>212.683</ele>
        <time>2022-08-23T16:42:01Z</time>
      </trkpt>
      <trkpt lat="43.14124300000004" lon="-1.2619799999999988">
        <ele>212.223</ele>
        <time>2022-08-23T16:42:02Z</time>
      </trkpt>
      <trkpt lat="43.14133800000004" lon="-1.2619619999999987">
        <ele>211.849</ele>
        <time>2022-08-23T16:42:03Z</time>
      </trkpt>
      <trkpt lat="43.14143000000004" lon="-1.2619579999999988">
        <ele>211.471</ele>
        <time>2022-08-23T16:42:04Z</time>
      </trkpt>
      <trkpt lat="43.141522000000045" lon="-1.2619489999999989">
        <ele>210.628</ele>
        <time>2022-08-23T16:42:05Z</time>
      </trkpt>
      <trkpt lat="43.14161300000004" lon="-1.2619489999999989">
        <ele>210.280</ele>
        <time>2022-08-23T16:42:06Z</time>
      </trkpt>
      <trkpt lat="43.14170000000004" lon="-1.261944999999999">
        <ele>209.680</ele>
        <time>2022-08-23T16:42:07Z</time>
      </trkpt>
      <trkpt lat="43.141784000000044" lon="-1.261942999999999">
        <ele>209.429</ele>
        <time>2022-08-23T16:42:08Z</time>
      </trkpt>
      <trkpt lat="43.141865000000045" lon="-1.261936999999999">
        <ele>209.284</ele>
        <time>2022-08-23T16:42:09Z</time>
      </trkpt>
      <trkpt lat="43.14194000000005" lon="-1.261922999999999">
        <ele>208.807</ele>
        <time>2022-08-23T16:42:10Z</time>
      </trkpt>
      <trkpt lat="43.14201500000005" lon="-1.261905999999999">
        <ele>208.817</ele>
        <time>2022-08-23T16:42:11Z</time>
      </trkpt>
      <trkpt lat="43.14216400000005" lon="-1.261860999999999">
        <ele>208.809</ele>
        <time>2022-08-23T16:42:13Z</time>
      </trkpt>
      <trkpt lat="43.14237900000005" lon="-1.261750999999999">
        <ele>208.649</ele>
        <time>2022-08-23T16:42:16Z</time>
      </trkpt>
      <trkpt lat="43.14244800000005" lon="-1.261703999999999">
        <ele>208.649</ele>
        <time>2022-08-23T16:42:17Z</time>
      </trkpt>
      <trkpt lat="43.14253000000005" lon="-1.261644999999999">
        <ele>208.689</ele>
        <time>2022-08-23T16:42:18Z</time>
      </trkpt>
      <trkpt lat="43.14258200000005" lon="-1.261606999999999">
        <ele>208.625</ele>
        <time>2022-08-23T16:42:19Z</time>
      </trkpt>
      <trkpt lat="43.142844000000046" lon="-1.261414999999999">
        <ele>208.637</ele>
        <time>2022-08-23T16:42:23Z</time>
      </trkpt>
      <trkpt lat="43.142907000000044" lon="-1.261372999999999">
        <ele>208.654</ele>
        <time>2022-08-23T16:42:24Z</time>
      </trkpt>
      <trkpt lat="43.14296200000005" lon="-1.2613309999999989">
        <ele>208.656</ele>
        <time>2022-08-23T16:42:25Z</time>
      </trkpt>
      <trkpt lat="43.14300700000005" lon="-1.261281999999999">
        <ele>208.686</ele>
        <time>2022-08-23T16:42:26Z</time>
      </trkpt>
      <trkpt lat="43.14303800000005" lon="-1.2612339999999989">
        <ele>208.665</ele>
        <time>2022-08-23T16:42:27Z</time>
      </trkpt>
      <trkpt lat="43.143056000000044" lon="-1.261194999999999">
        <ele>208.688</ele>
        <time>2022-08-23T16:42:28Z</time>
      </trkpt>
      <trkpt lat="43.143067000000045" lon="-1.261174999999999">
        <ele>208.624</ele>
        <time>2022-08-23T16:42:29Z</time>
      </trkpt>
      <trkpt lat="43.14307100000004" lon="-1.261168999999999">
        <ele>208.426</ele>
        <time>2022-08-23T16:45:25Z</time>
      </trkpt>
      <trkpt lat="43.143073000000044" lon="-1.261169999999999">
        <ele>208.409</ele>
        <time>2022-08-23T16:45:26Z</time>
      </trkpt>
      <trkpt lat="43.14308600000005" lon="-1.261173999999999">
        <ele>208.429</ele>
        <time>2022-08-23T16:45:27Z</time>
      </trkpt>
      <trkpt lat="43.143095000000045" lon="-1.261175999999999">
        <ele>208.659</ele>
        <time>2022-08-23T16:45:34Z</time>
      </trkpt>
      <trkpt lat="43.14312800000005" lon="-1.261171999999999">
        <ele>208.629</ele>
        <time>2022-08-23T16:45:37Z</time>
      </trkpt>
      <trkpt lat="43.14319200000005" lon="-1.261139999999999">
        <ele>208.645</ele>
        <time>2022-08-23T16:45:39Z</time>
      </trkpt>
      <trkpt lat="43.143269000000046" lon="-1.261077999999999">
        <ele>208.677</ele>
        <time>2022-08-23T16:45:41Z</time>
      </trkpt>
      <trkpt lat="43.143317000000046" lon="-1.261043999999999">
        <ele>208.444</ele>
        <time>2022-08-23T16:45:42Z</time>
      </trkpt>
      <trkpt lat="43.14354700000005" lon="-1.260887999999999">
        <ele>208.466</ele>
        <time>2022-08-23T16:45:46Z</time>
      </trkpt>
      <trkpt lat="43.143587000000046" lon="-1.260857999999999">
        <ele>208.436</ele>
        <time>2022-08-23T16:45:47Z</time>
      </trkpt>
      <trkpt lat="43.143635000000046" lon="-1.260822999999999">
        <ele>208.265</ele>
        <time>2022-08-23T16:45:48Z</time>
      </trkpt>
      <trkpt lat="43.14368100000004" lon="-1.260784999999999">
        <ele>208.275</ele>
        <time>2022-08-23T16:45:49Z</time>
      </trkpt>
      <trkpt lat="43.143962000000045" lon="-1.2605239999999989">
        <ele>207.828</ele>
        <time>2022-08-23T16:45:55Z</time>
      </trkpt>
      <trkpt lat="43.144125000000045" lon="-1.2603379999999988">
        <ele>207.620</ele>
        <time>2022-08-23T16:45:58Z</time>
      </trkpt>
      <trkpt lat="43.144218000000045" lon="-1.2602149999999988">
        <ele>207.409</ele>
        <time>2022-08-23T16:46:00Z</time>
      </trkpt>
      <trkpt lat="43.144561000000046" lon="-1.2596419999999988">
        <ele>206.698</ele>
        <time>2022-08-23T16:46:07Z</time>
      </trkpt>
      <trkpt lat="43.144834000000046" lon="-1.2591699999999988">
        <ele>205.438</ele>
        <time>2022-08-23T16:46:12Z</time>
      </trkpt>
      <trkpt lat="43.14492300000005" lon="-1.2589919999999988">
        <ele>205.248</ele>
        <time>2022-08-23T16:46:14Z</time>
      </trkpt>
      <trkpt lat="43.14506600000005" lon="-1.2585229999999987">
        <ele>204.634</ele>
        <time>2022-08-23T16:46:18Z</time>
      </trkpt>
      <trkpt lat="43.14507900000005" lon="-1.2584299999999988">
        <ele>204.486</ele>
        <time>2022-08-23T16:46:19Z</time>
      </trkpt>
      <trkpt lat="43.145089000000056" lon="-1.2582929999999988">
        <ele>204.243</ele>
        <time>2022-08-23T16:46:20Z</time>
      </trkpt>
      <trkpt lat="43.14509100000006" lon="-1.2582059999999988">
        <ele>204.075</ele>
        <time>2022-08-23T16:46:21Z</time>
      </trkpt>
      <trkpt lat="43.145092000000055" lon="-1.2580979999999988">
        <ele>204.095</ele>
        <time>2022-08-23T16:46:22Z</time>
      </trkpt>
      <trkpt lat="43.14509300000005" lon="-1.2579689999999988">
        <ele>204.044</ele>
        <time>2022-08-23T16:46:23Z</time>
      </trkpt>
      <trkpt lat="43.14509600000005" lon="-1.2578869999999989">
        <ele>204.067</ele>
        <time>2022-08-23T16:46:24Z</time>
      </trkpt>
      <trkpt lat="43.14510400000005" lon="-1.257783999999999">
        <ele>204.081</ele>
        <time>2022-08-23T16:46:25Z</time>
      </trkpt>
      <trkpt lat="43.14511600000005" lon="-1.2576849999999988">
        <ele>204.019</ele>
        <time>2022-08-23T16:46:26Z</time>
      </trkpt>
      <trkpt lat="43.14513100000005" lon="-1.2575859999999988">
        <ele>204.009</ele>
        <time>2022-08-23T16:46:27Z</time>
      </trkpt>
      <trkpt lat="43.145152000000046" lon="-1.2574939999999988">
        <ele>204.277</ele>
        <time>2022-08-23T16:46:28Z</time>
      </trkpt>
      <trkpt lat="43.145178000000044" lon="-1.2574069999999988">
        <ele>204.427</ele>
        <time>2022-08-23T16:46:29Z</time>
      </trkpt>
      <trkpt lat="43.145209000000044" lon="-1.2573039999999989">
        <ele>204.467</ele>
        <time>2022-08-23T16:46:30Z</time>
      </trkpt>
      <trkpt lat="43.145256000000046" lon="-1.257156999999999">
        <ele>204.833</ele>
        <time>2022-08-23T16:46:32Z</time>
      </trkpt>
      <trkpt lat="43.145284000000046" lon="-1.257073999999999">
        <ele>204.815</ele>
        <time>2022-08-23T16:46:33Z</time>
      </trkpt>
      <trkpt lat="43.14531100000005" lon="-1.2569909999999989">
        <ele>205.042</ele>
        <time>2022-08-23T16:46:34Z</time>
      </trkpt>
      <trkpt lat="43.14533900000005" lon="-1.2569099999999989">
        <ele>205.244</ele>
        <time>2022-08-23T16:46:35Z</time>
      </trkpt>
      <trkpt lat="43.14536600000005" lon="-1.2568289999999989">
        <ele>205.464</ele>
        <time>2022-08-23T16:46:36Z</time>
      </trkpt>
      <trkpt lat="43.14539400000005" lon="-1.2567509999999988">
        <ele>205.433</ele>
        <time>2022-08-23T16:46:37Z</time>
      </trkpt>
      <trkpt lat="43.14542200000005" lon="-1.256671999999999">
        <ele>205.647</ele>
        <time>2022-08-23T16:46:38Z</time>
      </trkpt>
      <trkpt lat="43.145452000000056" lon="-1.256597999999999">
        <ele>205.629</ele>
        <time>2022-08-23T16:46:39Z</time>
      </trkpt>
      <trkpt lat="43.14548800000006" lon="-1.256528999999999">
        <ele>205.621</ele>
        <time>2022-08-23T16:46:40Z</time>
      </trkpt>
      <trkpt lat="43.14552900000006" lon="-1.2564649999999988">
        <ele>205.609</ele>
        <time>2022-08-23T16:46:41Z</time>
      </trkpt>
      <trkpt lat="43.14557500000006" lon="-1.2564059999999988">
        <ele>205.845</ele>
        <time>2022-08-23T16:46:42Z</time>
      </trkpt>
      <trkpt lat="43.14562600000006" lon="-1.2563569999999988">
        <ele>205.855</ele>
        <time>2022-08-23T16:46:43Z</time>
      </trkpt>
      <trkpt lat="43.145692000000054" lon="-1.2563119999999988">
        <ele>205.845</ele>
        <time>2022-08-23T16:46:44Z</time>
      </trkpt>
      <trkpt lat="43.145750000000056" lon="-1.2562879999999987">
        <ele>205.841</ele>
        <time>2022-08-23T16:46:45Z</time>
      </trkpt>
      <trkpt lat="43.145810000000054" lon="-1.2562719999999987">
        <ele>205.823</ele>
        <time>2022-08-23T16:46:46Z</time>
      </trkpt>
      <trkpt lat="43.145866000000055" lon="-1.2562649999999986">
        <ele>206.050</ele>
        <time>2022-08-23T16:46:47Z</time>
      </trkpt>
      <trkpt lat="43.145911000000055" lon="-1.2562619999999987">
        <ele>206.292</ele>
        <time>2022-08-23T16:46:48Z</time>
      </trkpt>
      <trkpt lat="43.14603600000005" lon="-1.2562459999999986">
        <ele>206.262</ele>
        <time>2022-08-23T16:46:50Z</time>
      </trkpt>
      <trkpt lat="43.14611500000005" lon="-1.2562149999999987">
        <ele>206.221</ele>
        <time>2022-08-23T16:46:51Z</time>
      </trkpt>
      <trkpt lat="43.14616500000005" lon="-1.2561809999999987">
        <ele>206.485</ele>
        <time>2022-08-23T16:46:52Z</time>
      </trkpt>
      <trkpt lat="43.14622400000005" lon="-1.2561279999999986">
        <ele>206.489</ele>
        <time>2022-08-23T16:46:53Z</time>
      </trkpt>
      <trkpt lat="43.146274000000055" lon="-1.2560629999999986">
        <ele>206.217</ele>
        <time>2022-08-23T16:46:54Z</time>
      </trkpt>
      <trkpt lat="43.14632600000005" lon="-1.2559869999999986">
        <ele>206.209</ele>
        <time>2022-08-23T16:46:55Z</time>
      </trkpt>
      <trkpt lat="43.14638000000005" lon="-1.2559049999999987">
        <ele>206.069</ele>
        <time>2022-08-23T16:46:56Z</time>
      </trkpt>
      <trkpt lat="43.14648700000005" lon="-1.2557339999999988">
        <ele>205.859</ele>
        <time>2022-08-23T16:46:58Z</time>
      </trkpt>
      <trkpt lat="43.14670000000005" lon="-1.2554089999999989">
        <ele>205.479</ele>
        <time>2022-08-23T16:47:02Z</time>
      </trkpt>
      <trkpt lat="43.146761000000055" lon="-1.2553399999999988">
        <ele>205.455</ele>
        <time>2022-08-23T16:47:03Z</time>
      </trkpt>
      <trkpt lat="43.14682700000005" lon="-1.2552759999999987">
        <ele>205.477</ele>
        <time>2022-08-23T16:47:04Z</time>
      </trkpt>
      <trkpt lat="43.14696700000005" lon="-1.2551649999999988">
        <ele>205.064</ele>
        <time>2022-08-23T16:47:06Z</time>
      </trkpt>
      <trkpt lat="43.14712000000005" lon="-1.2550629999999987">
        <ele>204.856</ele>
        <time>2022-08-23T16:47:08Z</time>
      </trkpt>
      <trkpt lat="43.14743300000005" lon="-1.2548799999999987">
        <ele>204.016</ele>
        <time>2022-08-23T16:47:12Z</time>
      </trkpt>
      <trkpt lat="43.14774700000005" lon="-1.2546969999999986">
        <ele>203.285</ele>
        <time>2022-08-23T16:47:16Z</time>
      </trkpt>
      <trkpt lat="43.147904000000054" lon="-1.2546039999999987">
        <ele>202.846</ele>
        <time>2022-08-23T16:47:18Z</time>
      </trkpt>
      <trkpt lat="43.14830500000005" lon="-1.2543729999999986">
        <ele>202.088</ele>
        <time>2022-08-23T16:47:23Z</time>
      </trkpt>
      <trkpt lat="43.14846300000005" lon="-1.2542799999999987">
        <ele>201.616</ele>
        <time>2022-08-23T16:47:25Z</time>
      </trkpt>
      <trkpt lat="43.14854200000005" lon="-1.2542349999999987">
        <ele>201.609</ele>
        <time>2022-08-23T16:47:26Z</time>
      </trkpt>
      <trkpt lat="43.14885400000005" lon="-1.2540519999999986">
        <ele>201.055</ele>
        <time>2022-08-23T16:47:30Z</time>
      </trkpt>
      <trkpt lat="43.14900800000005" lon="-1.2539599999999986">
        <ele>200.485</ele>
        <time>2022-08-23T16:47:32Z</time>
      </trkpt>
      <trkpt lat="43.149100000000054" lon="-1.2539059999999986">
        <ele>200.225</ele>
        <time>2022-08-23T16:47:33Z</time>
      </trkpt>
      <trkpt lat="43.14917400000005" lon="-1.2538629999999986">
        <ele>200.251</ele>
        <time>2022-08-23T16:47:34Z</time>
      </trkpt>
      <trkpt lat="43.14924800000005" lon="-1.2538249999999986">
        <ele>200.243</ele>
        <time>2022-08-23T16:47:35Z</time>
      </trkpt>
      <trkpt lat="43.14930200000005" lon="-1.2537989999999986">
        <ele>200.260</ele>
        <time>2022-08-23T16:47:36Z</time>
      </trkpt>
      <trkpt lat="43.149365000000046" lon="-1.2537749999999985">
        <ele>200.242</ele>
        <time>2022-08-23T16:47:37Z</time>
      </trkpt>
      <trkpt lat="43.14944200000004" lon="-1.2537609999999986">
        <ele>200.442</ele>
        <time>2022-08-23T16:47:38Z</time>
      </trkpt>
      <trkpt lat="43.14950800000004" lon="-1.2537509999999985">
        <ele>200.431</ele>
        <time>2022-08-23T16:47:39Z</time>
      </trkpt>
      <trkpt lat="43.14957000000004" lon="-1.2537459999999985">
        <ele>200.463</ele>
        <time>2022-08-23T16:47:40Z</time>
      </trkpt>
      <trkpt lat="43.14961400000004" lon="-1.2537469999999984">
        <ele>200.444</ele>
        <time>2022-08-23T16:47:41Z</time>
      </trkpt>
      <trkpt lat="43.14967100000004" lon="-1.2537519999999984">
        <ele>200.818</ele>
        <time>2022-08-23T16:47:42Z</time>
      </trkpt>
      <trkpt lat="43.14972700000004" lon="-1.2537579999999984">
        <ele>201.409</ele>
        <time>2022-08-23T16:47:43Z</time>
      </trkpt>
      <trkpt lat="43.14978100000004" lon="-1.2537699999999983">
        <ele>202.227</ele>
        <time>2022-08-23T16:47:44Z</time>
      </trkpt>
      <trkpt lat="43.14983700000004" lon="-1.2537779999999983">
        <ele>202.477</ele>
        <time>2022-08-23T16:47:45Z</time>
      </trkpt>
      <trkpt lat="43.14994500000004" lon="-1.2537869999999982">
        <ele>203.237</ele>
        <time>2022-08-23T16:47:47Z</time>
      </trkpt>
      <trkpt lat="43.15000000000004" lon="-1.2537749999999983">
        <ele>203.253</ele>
        <time>2022-08-23T16:47:48Z</time>
      </trkpt>
      <trkpt lat="43.15006000000004" lon="-1.2537489999999982">
        <ele>203.615</ele>
        <time>2022-08-23T16:47:49Z</time>
      </trkpt>
      <trkpt lat="43.15018100000004" lon="-1.2536469999999982">
        <ele>203.872</ele>
        <time>2022-08-23T16:47:51Z</time>
      </trkpt>
      <trkpt lat="43.15024000000004" lon="-1.2535639999999981">
        <ele>203.834</ele>
        <time>2022-08-23T16:47:52Z</time>
      </trkpt>
      <trkpt lat="43.15029900000004" lon="-1.253472999999998">
        <ele>203.844</ele>
        <time>2022-08-23T16:47:53Z</time>
      </trkpt>
      <trkpt lat="43.15042400000004" lon="-1.253275999999998">
        <ele>203.673</ele>
        <time>2022-08-23T16:47:55Z</time>
      </trkpt>
      <trkpt lat="43.150728000000036" lon="-1.252910999999998">
        <ele>202.056</ele>
        <time>2022-08-23T16:47:59Z</time>
      </trkpt>
      <trkpt lat="43.150807000000036" lon="-1.252827999999998">
        <ele>201.259</ele>
        <time>2022-08-23T16:48:00Z</time>
      </trkpt>
      <trkpt lat="43.150883000000036" lon="-1.2527459999999981">
        <ele>200.414</ele>
        <time>2022-08-23T16:48:01Z</time>
      </trkpt>
      <trkpt lat="43.15095800000004" lon="-1.252665999999998">
        <ele>200.209</ele>
        <time>2022-08-23T16:48:02Z</time>
      </trkpt>
      <trkpt lat="43.15103000000004" lon="-1.252587999999998">
        <ele>199.676</ele>
        <time>2022-08-23T16:48:03Z</time>
      </trkpt>
      <trkpt lat="43.151102000000044" lon="-1.252511999999998">
        <ele>199.446</ele>
        <time>2022-08-23T16:48:04Z</time>
      </trkpt>
      <trkpt lat="43.151175000000045" lon="-1.252438999999998">
        <ele>199.026</ele>
        <time>2022-08-23T16:48:05Z</time>
      </trkpt>
      <trkpt lat="43.151316000000044" lon="-1.2522899999999981">
        <ele>198.472</ele>
        <time>2022-08-23T16:48:07Z</time>
      </trkpt>
      <trkpt lat="43.15152800000004" lon="-1.252069999999998">
        <ele>197.474</ele>
        <time>2022-08-23T16:48:10Z</time>
      </trkpt>
      <trkpt lat="43.151741000000044" lon="-1.251853999999998">
        <ele>196.831</ele>
        <time>2022-08-23T16:48:13Z</time>
      </trkpt>
      <trkpt lat="43.151811000000045" lon="-1.251782999999998">
        <ele>196.863</ele>
        <time>2022-08-23T16:48:14Z</time>
      </trkpt>
      <trkpt lat="43.151878000000046" lon="-1.251713999999998">
        <ele>196.643</ele>
        <time>2022-08-23T16:48:15Z</time>
      </trkpt>
      <trkpt lat="43.15214500000005" lon="-1.251429999999998">
        <ele>195.872</ele>
        <time>2022-08-23T16:48:19Z</time>
      </trkpt>
      <trkpt lat="43.152348000000046" lon="-1.251216999999998">
        <ele>195.494</ele>
        <time>2022-08-23T16:48:22Z</time>
      </trkpt>
      <trkpt lat="43.152818000000046" lon="-1.250723999999998">
        <ele>194.857</ele>
        <time>2022-08-23T16:48:29Z</time>
      </trkpt>
      <trkpt lat="43.15295500000005" lon="-1.250582999999998">
        <ele>194.622</ele>
        <time>2022-08-23T16:48:31Z</time>
      </trkpt>
      <trkpt lat="43.15308400000005" lon="-1.250431999999998">
        <ele>194.209</ele>
        <time>2022-08-23T16:48:33Z</time>
      </trkpt>
      <trkpt lat="43.15321000000005" lon="-1.250275999999998">
        <ele>193.860</ele>
        <time>2022-08-23T16:48:35Z</time>
      </trkpt>
      <trkpt lat="43.15327300000005" lon="-1.250199999999998">
        <ele>193.860</ele>
        <time>2022-08-23T16:48:36Z</time>
      </trkpt>
      <trkpt lat="43.15333500000005" lon="-1.2501229999999979">
        <ele>193.680</ele>
        <time>2022-08-23T16:48:37Z</time>
      </trkpt>
      <trkpt lat="43.15339700000005" lon="-1.250051999999998">
        <ele>193.476</ele>
        <time>2022-08-23T16:48:38Z</time>
      </trkpt>
      <trkpt lat="43.15347200000005" lon="-1.249972999999998">
        <ele>193.278</ele>
        <time>2022-08-23T16:48:39Z</time>
      </trkpt>
      <trkpt lat="43.15352400000005" lon="-1.249929999999998">
        <ele>193.255</ele>
        <time>2022-08-23T16:48:40Z</time>
      </trkpt>
      <trkpt lat="43.15359400000005" lon="-1.249886999999998">
        <ele>193.267</ele>
        <time>2022-08-23T16:48:41Z</time>
      </trkpt>
      <trkpt lat="43.15387500000005" lon="-1.2497289999999979">
        <ele>193.017</ele>
        <time>2022-08-23T16:48:45Z</time>
      </trkpt>
      <trkpt lat="43.15394400000005" lon="-1.249689999999998">
        <ele>192.856</ele>
        <time>2022-08-23T16:48:46Z</time>
      </trkpt>
      <trkpt lat="43.15401500000005" lon="-1.249649999999998">
        <ele>192.846</ele>
        <time>2022-08-23T16:48:47Z</time>
      </trkpt>
      <trkpt lat="43.15409800000005" lon="-1.249602999999998">
        <ele>192.888</ele>
        <time>2022-08-23T16:48:48Z</time>
      </trkpt>
      <trkpt lat="43.15416700000005" lon="-1.249561999999998">
        <ele>192.816</ele>
        <time>2022-08-23T16:48:49Z</time>
      </trkpt>
      <trkpt lat="43.154236000000054" lon="-1.2495229999999982">
        <ele>192.809</ele>
        <time>2022-08-23T16:48:50Z</time>
      </trkpt>
      <trkpt lat="43.154292000000055" lon="-1.2494919999999983">
        <ele>192.835</ele>
        <time>2022-08-23T16:48:51Z</time>
      </trkpt>
      <trkpt lat="43.154357000000054" lon="-1.2494569999999983">
        <ele>192.835</ele>
        <time>2022-08-23T16:48:52Z</time>
      </trkpt>
      <trkpt lat="43.15443400000005" lon="-1.2494139999999982">
        <ele>192.885</ele>
        <time>2022-08-23T16:48:53Z</time>
      </trkpt>
      <trkpt lat="43.15475500000005" lon="-1.2492929999999982">
        <ele>192.661</ele>
        <time>2022-08-23T16:48:58Z</time>
      </trkpt>
      <trkpt lat="43.15498000000005" lon="-1.2492479999999981">
        <ele>192.633</ele>
        <time>2022-08-23T16:49:01Z</time>
      </trkpt>
      <trkpt lat="43.15505600000005" lon="-1.2492419999999982">
        <ele>192.620</ele>
        <time>2022-08-23T16:49:02Z</time>
      </trkpt>
      <trkpt lat="43.15513300000005" lon="-1.2492369999999982">
        <ele>192.612</ele>
        <time>2022-08-23T16:49:03Z</time>
      </trkpt>
      <trkpt lat="43.15520200000005" lon="-1.2492339999999982">
        <ele>192.412</ele>
        <time>2022-08-23T16:49:04Z</time>
      </trkpt>
      <trkpt lat="43.155269000000054" lon="-1.2492309999999982">
        <ele>192.421</ele>
        <time>2022-08-23T16:49:05Z</time>
      </trkpt>
      <trkpt lat="43.155333000000056" lon="-1.2492289999999981">
        <ele>192.225</ele>
        <time>2022-08-23T16:49:06Z</time>
      </trkpt>
      <trkpt lat="43.155395000000055" lon="-1.2492209999999981">
        <ele>192.226</ele>
        <time>2022-08-23T16:49:07Z</time>
      </trkpt>
      <trkpt lat="43.155454000000056" lon="-1.249213999999998">
        <ele>192.208</ele>
        <time>2022-08-23T16:49:08Z</time>
      </trkpt>
      <trkpt lat="43.155510000000056" lon="-1.2492049999999981">
        <ele>192.209</ele>
        <time>2022-08-23T16:49:09Z</time>
      </trkpt>
      <trkpt lat="43.15556500000006" lon="-1.2491959999999982">
        <ele>192.243</ele>
        <time>2022-08-23T16:49:10Z</time>
      </trkpt>
      <trkpt lat="43.15562100000006" lon="-1.2491839999999983">
        <ele>192.253</ele>
        <time>2022-08-23T16:49:11Z</time>
      </trkpt>
      <trkpt lat="43.15567500000006" lon="-1.2491709999999983">
        <ele>192.243</ele>
        <time>2022-08-23T16:49:12Z</time>
      </trkpt>
      <trkpt lat="43.15573100000006" lon="-1.2491609999999982">
        <ele>192.259</ele>
        <time>2022-08-23T16:49:13Z</time>
      </trkpt>
      <trkpt lat="43.15578700000006" lon="-1.2491579999999982">
        <ele>193.041</ele>
        <time>2022-08-23T16:49:14Z</time>
      </trkpt>
      <trkpt lat="43.155842000000064" lon="-1.2491579999999982">
        <ele>193.258</ele>
        <time>2022-08-23T16:49:15Z</time>
      </trkpt>
      <trkpt lat="43.155895000000065" lon="-1.249161999999998">
        <ele>193.480</ele>
        <time>2022-08-23T16:49:16Z</time>
      </trkpt>
      <trkpt lat="43.15611300000006" lon="-1.2491799999999982">
        <ele>194.480</ele>
        <time>2022-08-23T16:49:20Z</time>
      </trkpt>
      <trkpt lat="43.15616500000006" lon="-1.249191999999998">
        <ele>194.829</ele>
        <time>2022-08-23T16:49:21Z</time>
      </trkpt>
      <trkpt lat="43.156214000000055" lon="-1.2492049999999981">
        <ele>194.848</ele>
        <time>2022-08-23T16:49:22Z</time>
      </trkpt>
      <trkpt lat="43.156265000000054" lon="-1.2492179999999982">
        <ele>195.261</ele>
        <time>2022-08-23T16:49:23Z</time>
      </trkpt>
      <trkpt lat="43.156313000000054" lon="-1.2492289999999981">
        <ele>195.417</ele>
        <time>2022-08-23T16:49:24Z</time>
      </trkpt>
      <trkpt lat="43.156363000000056" lon="-1.249234999999998">
        <ele>195.609</ele>
        <time>2022-08-23T16:49:25Z</time>
      </trkpt>
      <trkpt lat="43.156411000000055" lon="-1.2492419999999982">
        <ele>196.075</ele>
        <time>2022-08-23T16:49:26Z</time>
      </trkpt>
      <trkpt lat="43.156504000000055" lon="-1.2492689999999982">
        <ele>196.225</ele>
        <time>2022-08-23T16:49:28Z</time>
      </trkpt>
      <trkpt lat="43.15655100000006" lon="-1.2492839999999983">
        <ele>196.625</ele>
        <time>2022-08-23T16:49:29Z</time>
      </trkpt>
      <trkpt lat="43.156600000000054" lon="-1.2492999999999983">
        <ele>197.041</ele>
        <time>2022-08-23T16:49:30Z</time>
      </trkpt>
      <trkpt lat="43.156650000000056" lon="-1.2493149999999984">
        <ele>197.453</ele>
        <time>2022-08-23T16:49:31Z</time>
      </trkpt>
      <trkpt lat="43.156701000000055" lon="-1.2493249999999985">
        <ele>197.820</ele>
        <time>2022-08-23T16:49:32Z</time>
      </trkpt>
      <trkpt lat="43.156754000000056" lon="-1.2493339999999984">
        <ele>198.072</ele>
        <time>2022-08-23T16:49:33Z</time>
      </trkpt>
      <trkpt lat="43.156808000000055" lon="-1.2493409999999985">
        <ele>198.242</ele>
        <time>2022-08-23T16:49:34Z</time>
      </trkpt>
      <trkpt lat="43.156862000000054" lon="-1.2493409999999985">
        <ele>198.461</ele>
        <time>2022-08-23T16:49:35Z</time>
      </trkpt>
      <trkpt lat="43.15691400000005" lon="-1.2493389999999984">
        <ele>198.433</ele>
        <time>2022-08-23T16:49:36Z</time>
      </trkpt>
      <trkpt lat="43.15696800000005" lon="-1.2493329999999985">
        <ele>198.823</ele>
        <time>2022-08-23T16:49:37Z</time>
      </trkpt>
      <trkpt lat="43.15702900000005" lon="-1.2493219999999985">
        <ele>198.815</ele>
        <time>2022-08-23T16:49:38Z</time>
      </trkpt>
      <trkpt lat="43.157070000000054" lon="-1.2493099999999986">
        <ele>199.209</ele>
        <time>2022-08-23T16:49:39Z</time>
      </trkpt>
      <trkpt lat="43.15711900000005" lon="-1.2492919999999985">
        <ele>199.274</ele>
        <time>2022-08-23T16:49:40Z</time>
      </trkpt>
      <trkpt lat="43.15717000000005" lon="-1.2492689999999984">
        <ele>199.274</ele>
        <time>2022-08-23T16:49:41Z</time>
      </trkpt>
      <trkpt lat="43.15723000000005" lon="-1.2492389999999984">
        <ele>199.654</ele>
        <time>2022-08-23T16:49:42Z</time>
      </trkpt>
      <trkpt lat="43.15726900000005" lon="-1.2492149999999984">
        <ele>199.670</ele>
        <time>2022-08-23T16:49:43Z</time>
      </trkpt>
      <trkpt lat="43.15731600000005" lon="-1.2491799999999984">
        <ele>199.822</ele>
        <time>2022-08-23T16:49:44Z</time>
      </trkpt>
      <trkpt lat="43.15736500000005" lon="-1.2491419999999984">
        <ele>199.869</ele>
        <time>2022-08-23T16:49:45Z</time>
      </trkpt>
      <trkpt lat="43.15741300000005" lon="-1.2490999999999983">
        <ele>200.081</ele>
        <time>2022-08-23T16:49:46Z</time>
      </trkpt>
      <trkpt lat="43.15745800000005" lon="-1.2490549999999983">
        <ele>200.441</ele>
        <time>2022-08-23T16:49:47Z</time>
      </trkpt>
      <trkpt lat="43.15750000000005" lon="-1.2490049999999981">
        <ele>200.410</ele>
        <time>2022-08-23T16:49:48Z</time>
      </trkpt>
      <trkpt lat="43.15753900000005" lon="-1.2489539999999981">
        <ele>200.411</ele>
        <time>2022-08-23T16:49:49Z</time>
      </trkpt>
      <trkpt lat="43.15757700000005" lon="-1.248897999999998">
        <ele>200.421</ele>
        <time>2022-08-23T16:49:50Z</time>
      </trkpt>
      <trkpt lat="43.15761200000005" lon="-1.248841999999998">
        <ele>200.603</ele>
        <time>2022-08-23T16:49:51Z</time>
      </trkpt>
      <trkpt lat="43.15764500000005" lon="-1.2487839999999981">
        <ele>200.609</ele>
        <time>2022-08-23T16:49:52Z</time>
      </trkpt>
      <trkpt lat="43.15767400000005" lon="-1.2487239999999982">
        <ele>200.692</ele>
        <time>2022-08-23T16:49:53Z</time>
      </trkpt>
      <trkpt lat="43.15770400000005" lon="-1.248651999999998">
        <ele>200.862</ele>
        <time>2022-08-23T16:49:54Z</time>
      </trkpt>
      <trkpt lat="43.157723000000054" lon="-1.248601999999998">
        <ele>200.832</ele>
        <time>2022-08-23T16:49:55Z</time>
      </trkpt>
      <trkpt lat="43.157742000000056" lon="-1.248541999999998">
        <ele>200.848</ele>
        <time>2022-08-23T16:49:56Z</time>
      </trkpt>
      <trkpt lat="43.157762000000055" lon="-1.2484839999999982">
        <ele>201.070</ele>
        <time>2022-08-23T16:49:57Z</time>
      </trkpt>
      <trkpt lat="43.157782000000054" lon="-1.248427999999998">
        <ele>201.487</ele>
        <time>2022-08-23T16:49:58Z</time>
      </trkpt>
      <trkpt lat="43.157804000000056" lon="-1.248371999999998">
        <ele>201.849</ele>
        <time>2022-08-23T16:49:59Z</time>
      </trkpt>
      <trkpt lat="43.15782600000006" lon="-1.248318999999998">
        <ele>202.099</ele>
        <time>2022-08-23T16:50:00Z</time>
      </trkpt>
      <trkpt lat="43.157849000000056" lon="-1.2482689999999979">
        <ele>202.448</ele>
        <time>2022-08-23T16:50:01Z</time>
      </trkpt>
      <trkpt lat="43.15787300000006" lon="-1.2482209999999978">
        <ele>202.678</ele>
        <time>2022-08-23T16:50:02Z</time>
      </trkpt>
      <trkpt lat="43.15790200000006" lon="-1.2481649999999977">
        <ele>203.033</ele>
        <time>2022-08-23T16:50:03Z</time>
      </trkpt>
      <trkpt lat="43.15792300000005" lon="-1.2481299999999977">
        <ele>203.226</ele>
        <time>2022-08-23T16:50:04Z</time>
      </trkpt>
      <trkpt lat="43.157950000000056" lon="-1.2480889999999978">
        <ele>203.409</ele>
        <time>2022-08-23T16:50:05Z</time>
      </trkpt>
      <trkpt lat="43.15797700000006" lon="-1.2480479999999978">
        <ele>203.678</ele>
        <time>2022-08-23T16:50:06Z</time>
      </trkpt>
      <trkpt lat="43.15800500000006" lon="-1.2480049999999978">
        <ele>203.888</ele>
        <time>2022-08-23T16:50:07Z</time>
      </trkpt>
      <trkpt lat="43.15803100000006" lon="-1.2479649999999978">
        <ele>204.298</ele>
        <time>2022-08-23T16:50:08Z</time>
      </trkpt>
      <trkpt lat="43.158060000000056" lon="-1.2479289999999978">
        <ele>204.494</ele>
        <time>2022-08-23T16:50:09Z</time>
      </trkpt>
      <trkpt lat="43.158086000000054" lon="-1.2478939999999978">
        <ele>204.876</ele>
        <time>2022-08-23T16:50:10Z</time>
      </trkpt>
      <trkpt lat="43.158108000000055" lon="-1.2478539999999978">
        <ele>205.093</ele>
        <time>2022-08-23T16:50:11Z</time>
      </trkpt>
      <trkpt lat="43.15813200000006" lon="-1.2478139999999978">
        <ele>205.485</ele>
        <time>2022-08-23T16:50:12Z</time>
      </trkpt>
      <trkpt lat="43.15815400000006" lon="-1.2477739999999977">
        <ele>205.815</ele>
        <time>2022-08-23T16:50:13Z</time>
      </trkpt>
      <trkpt lat="43.15818000000006" lon="-1.2477249999999978">
        <ele>205.884</ele>
        <time>2022-08-23T16:50:14Z</time>
      </trkpt>
      <trkpt lat="43.158198000000056" lon="-1.2476889999999978">
        <ele>206.084</ele>
        <time>2022-08-23T16:50:15Z</time>
      </trkpt>
      <trkpt lat="43.158223000000056" lon="-1.2476359999999977">
        <ele>206.407</ele>
        <time>2022-08-23T16:50:16Z</time>
      </trkpt>
      <trkpt lat="43.15823900000006" lon="-1.2475979999999978">
        <ele>206.817</ele>
        <time>2022-08-23T16:50:17Z</time>
      </trkpt>
      <trkpt lat="43.15826100000006" lon="-1.2475489999999978">
        <ele>206.809</ele>
        <time>2022-08-23T16:50:18Z</time>
      </trkpt>
      <trkpt lat="43.15828300000006" lon="-1.2474979999999978">
        <ele>207.049</ele>
        <time>2022-08-23T16:50:19Z</time>
      </trkpt>
      <trkpt lat="43.15830300000006" lon="-1.2474459999999978">
        <ele>207.019</ele>
        <time>2022-08-23T16:50:20Z</time>
      </trkpt>
      <trkpt lat="43.15832400000006" lon="-1.2473899999999978">
        <ele>207.259</ele>
        <time>2022-08-23T16:50:21Z</time>
      </trkpt>
      <trkpt lat="43.158347000000056" lon="-1.2473329999999978">
        <ele>207.225</ele>
        <time>2022-08-23T16:50:22Z</time>
      </trkpt>
      <trkpt lat="43.158370000000055" lon="-1.247274999999998">
        <ele>207.277</ele>
        <time>2022-08-23T16:50:23Z</time>
      </trkpt>
      <trkpt lat="43.158392000000056" lon="-1.2472139999999978">
        <ele>207.254</ele>
        <time>2022-08-23T16:50:24Z</time>
      </trkpt>
      <trkpt lat="43.158415000000055" lon="-1.247150999999998">
        <ele>207.466</ele>
        <time>2022-08-23T16:50:25Z</time>
      </trkpt>
      <trkpt lat="43.15844400000005" lon="-1.2470759999999979">
        <ele>207.436</ele>
        <time>2022-08-23T16:50:26Z</time>
      </trkpt>
      <trkpt lat="43.15846400000005" lon="-1.2470259999999977">
        <ele>207.485</ele>
        <time>2022-08-23T16:50:27Z</time>
      </trkpt>
      <trkpt lat="43.15848900000005" lon="-1.2469619999999977">
        <ele>207.434</ele>
        <time>2022-08-23T16:50:28Z</time>
      </trkpt>
      <trkpt lat="43.15851200000005" lon="-1.2468969999999977">
        <ele>207.655</ele>
        <time>2022-08-23T16:50:29Z</time>
      </trkpt>
      <trkpt lat="43.15854100000005" lon="-1.2468209999999977">
        <ele>207.610</ele>
        <time>2022-08-23T16:50:30Z</time>
      </trkpt>
      <trkpt lat="43.15856600000005" lon="-1.2467559999999978">
        <ele>207.609</ele>
        <time>2022-08-23T16:50:31Z</time>
      </trkpt>
      <trkpt lat="43.15858600000005" lon="-1.2467039999999978">
        <ele>207.654</ele>
        <time>2022-08-23T16:50:32Z</time>
      </trkpt>
      <trkpt lat="43.15861100000005" lon="-1.2466399999999977">
        <ele>207.684</ele>
        <time>2022-08-23T16:50:33Z</time>
      </trkpt>
      <trkpt lat="43.158635000000054" lon="-1.2465719999999978">
        <ele>207.874</ele>
        <time>2022-08-23T16:50:34Z</time>
      </trkpt>
      <trkpt lat="43.15866100000005" lon="-1.2465039999999978">
        <ele>207.890</ele>
        <time>2022-08-23T16:50:35Z</time>
      </trkpt>
      <trkpt lat="43.15868900000005" lon="-1.2464359999999979">
        <ele>207.872</ele>
        <time>2022-08-23T16:50:36Z</time>
      </trkpt>
      <trkpt lat="43.15871800000005" lon="-1.2463689999999978">
        <ele>207.849</ele>
        <time>2022-08-23T16:50:37Z</time>
      </trkpt>
      <trkpt lat="43.15874700000005" lon="-1.2463009999999979">
        <ele>207.841</ele>
        <time>2022-08-23T16:50:38Z</time>
      </trkpt>
      <trkpt lat="43.15877400000005" lon="-1.246235999999998">
        <ele>208.051</ele>
        <time>2022-08-23T16:50:39Z</time>
      </trkpt>
      <trkpt lat="43.158801000000054" lon="-1.2461669999999978">
        <ele>208.220</ele>
        <time>2022-08-23T16:50:40Z</time>
      </trkpt>
      <trkpt lat="43.158829000000054" lon="-1.2460989999999978">
        <ele>208.298</ele>
        <time>2022-08-23T16:50:41Z</time>
      </trkpt>
      <trkpt lat="43.158857000000054" lon="-1.246032999999998">
        <ele>208.215</ele>
        <time>2022-08-23T16:50:42Z</time>
      </trkpt>
      <trkpt lat="43.15888600000005" lon="-1.245967999999998">
        <ele>208.426</ele>
        <time>2022-08-23T16:50:43Z</time>
      </trkpt>
      <trkpt lat="43.158916000000055" lon="-1.245903999999998">
        <ele>208.409</ele>
        <time>2022-08-23T16:50:44Z</time>
      </trkpt>
      <trkpt lat="43.15897300000005" lon="-1.2457749999999979">
        <ele>208.460</ele>
        <time>2022-08-23T16:50:46Z</time>
      </trkpt>
      <trkpt lat="43.15901000000005" lon="-1.245700999999998">
        <ele>208.480</ele>
        <time>2022-08-23T16:50:47Z</time>
      </trkpt>
      <trkpt lat="43.15903300000005" lon="-1.245649999999998">
        <ele>208.450</ele>
        <time>2022-08-23T16:50:48Z</time>
      </trkpt>
      <trkpt lat="43.15906100000005" lon="-1.2455889999999978">
        <ele>208.456</ele>
        <time>2022-08-23T16:50:49Z</time>
      </trkpt>
      <trkpt lat="43.15908700000005" lon="-1.2455269999999978">
        <ele>208.688</ele>
        <time>2022-08-23T16:50:50Z</time>
      </trkpt>
      <trkpt lat="43.15911400000005" lon="-1.2454649999999978">
        <ele>208.635</ele>
        <time>2022-08-23T16:50:51Z</time>
      </trkpt>
      <trkpt lat="43.15914300000005" lon="-1.2454079999999979">
        <ele>208.867</ele>
        <time>2022-08-23T16:50:52Z</time>
      </trkpt>
      <trkpt lat="43.15929800000005" lon="-1.2451269999999979">
        <ele>209.467</ele>
        <time>2022-08-23T16:50:57Z</time>
      </trkpt>
      <trkpt lat="43.15941400000005" lon="-1.2449739999999978">
        <ele>209.686</ele>
        <time>2022-08-23T16:51:00Z</time>
      </trkpt>
      <trkpt lat="43.15945300000005" lon="-1.2449279999999978">
        <ele>209.648</ele>
        <time>2022-08-23T16:51:01Z</time>
      </trkpt>
      <trkpt lat="43.15949000000005" lon="-1.2448849999999978">
        <ele>209.661</ele>
        <time>2022-08-23T16:51:02Z</time>
      </trkpt>
      <trkpt lat="43.15952400000005" lon="-1.2448479999999977">
        <ele>209.617</ele>
        <time>2022-08-23T16:51:03Z</time>
      </trkpt>
      <trkpt lat="43.159559000000044" lon="-1.2448169999999978">
        <ele>209.609</ele>
        <time>2022-08-23T16:51:04Z</time>
      </trkpt>
      <trkpt lat="43.159598000000045" lon="-1.244783999999998">
        <ele>209.655</ele>
        <time>2022-08-23T16:51:05Z</time>
      </trkpt>
      <trkpt lat="43.15967900000005" lon="-1.2447229999999978">
        <ele>209.855</ele>
        <time>2022-08-23T16:51:07Z</time>
      </trkpt>
      <trkpt lat="43.15971700000005" lon="-1.2446989999999978">
        <ele>209.645</ele>
        <time>2022-08-23T16:51:08Z</time>
      </trkpt>
      <trkpt lat="43.15975700000005" lon="-1.2446739999999978">
        <ele>209.671</ele>
        <time>2022-08-23T16:51:09Z</time>
      </trkpt>
      <trkpt lat="43.15979700000005" lon="-1.2446479999999978">
        <ele>209.613</ele>
        <time>2022-08-23T16:51:10Z</time>
      </trkpt>
      <trkpt lat="43.15983600000005" lon="-1.2446269999999977">
        <ele>209.610</ele>
        <time>2022-08-23T16:51:11Z</time>
      </trkpt>
      <trkpt lat="43.16014800000005" lon="-1.2445259999999978">
        <ele>209.472</ele>
        <time>2022-08-23T16:51:18Z</time>
      </trkpt>
      <trkpt lat="43.16048600000005" lon="-1.2445279999999979">
        <ele>208.652</ele>
        <time>2022-08-23T16:51:24Z</time>
      </trkpt>
      <trkpt lat="43.160732000000046" lon="-1.2445579999999978">
        <ele>207.631</ele>
        <time>2022-08-23T16:51:28Z</time>
      </trkpt>
      <trkpt lat="43.16079800000004" lon="-1.2445659999999978">
        <ele>207.426</ele>
        <time>2022-08-23T16:51:29Z</time>
      </trkpt>
      <trkpt lat="43.16099600000004" lon="-1.2446059999999979">
        <ele>206.647</ele>
        <time>2022-08-23T16:51:32Z</time>
      </trkpt>
      <trkpt lat="43.16106500000004" lon="-1.2446149999999978">
        <ele>206.411</ele>
        <time>2022-08-23T16:51:33Z</time>
      </trkpt>
      <trkpt lat="43.161213000000046" lon="-1.2446309999999978">
        <ele>206.009</ele>
        <time>2022-08-23T16:51:35Z</time>
      </trkpt>
      <trkpt lat="43.161602000000045" lon="-1.244664999999998">
        <ele>205.293</ele>
        <time>2022-08-23T16:51:40Z</time>
      </trkpt>
      <trkpt lat="43.16182800000004" lon="-1.244688999999998">
        <ele>204.643</ele>
        <time>2022-08-23T16:51:43Z</time>
      </trkpt>
      <trkpt lat="43.161982000000044" lon="-1.244706999999998">
        <ele>204.013</ele>
        <time>2022-08-23T16:51:45Z</time>
      </trkpt>
      <trkpt lat="43.16222200000004" lon="-1.244725999999998">
        <ele>203.229</ele>
        <time>2022-08-23T16:51:48Z</time>
      </trkpt>
      <trkpt lat="43.162308000000046" lon="-1.244718999999998">
        <ele>203.061</ele>
        <time>2022-08-23T16:51:49Z</time>
      </trkpt>
      <trkpt lat="43.162393000000044" lon="-1.2446949999999979">
        <ele>202.898</ele>
        <time>2022-08-23T16:51:50Z</time>
      </trkpt>
      <trkpt lat="43.162550000000046" lon="-1.2445929999999978">
        <ele>201.840</ele>
        <time>2022-08-23T16:51:52Z</time>
      </trkpt>
      <trkpt lat="43.16262000000005" lon="-1.244521999999998">
        <ele>201.430</ele>
        <time>2022-08-23T16:51:53Z</time>
      </trkpt>
      <trkpt lat="43.162682000000046" lon="-1.2444359999999979">
        <ele>200.869</ele>
        <time>2022-08-23T16:51:54Z</time>
      </trkpt>
      <trkpt lat="43.162733000000046" lon="-1.2443359999999979">
        <ele>200.688</ele>
        <time>2022-08-23T16:51:55Z</time>
      </trkpt>
      <trkpt lat="43.16277600000004" lon="-1.244229999999998">
        <ele>200.024</ele>
        <time>2022-08-23T16:51:56Z</time>
      </trkpt>
      <trkpt lat="43.162812000000045" lon="-1.2441229999999979">
        <ele>199.826</ele>
        <time>2022-08-23T16:51:57Z</time>
      </trkpt>
      <trkpt lat="43.16284800000005" lon="-1.2440209999999978">
        <ele>199.209</ele>
        <time>2022-08-23T16:51:58Z</time>
      </trkpt>
      <trkpt lat="43.16288100000005" lon="-1.2439289999999978">
        <ele>198.829</ele>
        <time>2022-08-23T16:51:59Z</time>
      </trkpt>
      <trkpt lat="43.16290800000005" lon="-1.243846999999998">
        <ele>198.479</ele>
        <time>2022-08-23T16:52:00Z</time>
      </trkpt>
      <trkpt lat="43.16293300000005" lon="-1.2437719999999979">
        <ele>198.279</ele>
        <time>2022-08-23T16:52:01Z</time>
      </trkpt>
      <trkpt lat="43.163039000000055" lon="-1.2434329999999978">
        <ele>196.685</ele>
        <time>2022-08-23T16:52:05Z</time>
      </trkpt>
      <trkpt lat="43.163115000000055" lon="-1.2431589999999977">
        <ele>195.297</ele>
        <time>2022-08-23T16:52:08Z</time>
      </trkpt>
      <trkpt lat="43.163216000000055" lon="-1.2427659999999976">
        <ele>193.624</ele>
        <time>2022-08-23T16:52:12Z</time>
      </trkpt>
      <trkpt lat="43.16329700000006" lon="-1.2424569999999977">
        <ele>192.496</ele>
        <time>2022-08-23T16:52:15Z</time>
      </trkpt>
      <trkpt lat="43.16337800000006" lon="-1.2421359999999977">
        <ele>191.086</ele>
        <time>2022-08-23T16:52:18Z</time>
      </trkpt>
      <trkpt lat="43.163396000000056" lon="-1.2420219999999977">
        <ele>191.075</ele>
        <time>2022-08-23T16:52:19Z</time>
      </trkpt>
      <trkpt lat="43.16340900000006" lon="-1.2419039999999977">
        <ele>190.673</ele>
        <time>2022-08-23T16:52:20Z</time>
      </trkpt>
      <trkpt lat="43.16342200000006" lon="-1.2416619999999976">
        <ele>189.885</ele>
        <time>2022-08-23T16:52:22Z</time>
      </trkpt>
      <trkpt lat="43.16342300000006" lon="-1.2415429999999976">
        <ele>189.613</ele>
        <time>2022-08-23T16:52:23Z</time>
      </trkpt>
      <trkpt lat="43.16341600000006" lon="-1.2414269999999976">
        <ele>189.009</ele>
        <time>2022-08-23T16:52:24Z</time>
      </trkpt>
      <trkpt lat="43.163395000000065" lon="-1.2413139999999976">
        <ele>188.468</ele>
        <time>2022-08-23T16:52:25Z</time>
      </trkpt>
      <trkpt lat="43.163361000000066" lon="-1.2412059999999976">
        <ele>188.268</ele>
        <time>2022-08-23T16:52:26Z</time>
      </trkpt>
      <trkpt lat="43.16331500000007" lon="-1.2411059999999976">
        <ele>187.858</ele>
        <time>2022-08-23T16:52:27Z</time>
      </trkpt>
      <trkpt lat="43.16326900000007" lon="-1.2410119999999976">
        <ele>187.664</ele>
        <time>2022-08-23T16:52:28Z</time>
      </trkpt>
      <trkpt lat="43.16322500000007" lon="-1.2409229999999976">
        <ele>186.866</ele>
        <time>2022-08-23T16:52:29Z</time>
      </trkpt>
      <trkpt lat="43.16318200000007" lon="-1.2408369999999975">
        <ele>186.643</ele>
        <time>2022-08-23T16:52:30Z</time>
      </trkpt>
      <trkpt lat="43.16314400000007" lon="-1.2407559999999975">
        <ele>185.845</ele>
        <time>2022-08-23T16:52:31Z</time>
      </trkpt>
      <trkpt lat="43.16310700000007" lon="-1.2406779999999975">
        <ele>185.225</ele>
        <time>2022-08-23T16:52:32Z</time>
      </trkpt>
      <trkpt lat="43.16306700000007" lon="-1.2406029999999975">
        <ele>184.824</ele>
        <time>2022-08-23T16:52:33Z</time>
      </trkpt>
      <trkpt lat="43.16303000000007" lon="-1.2405309999999974">
        <ele>184.438</ele>
        <time>2022-08-23T16:52:34Z</time>
      </trkpt>
      <trkpt lat="43.16300000000007" lon="-1.2404589999999973">
        <ele>184.470</ele>
        <time>2022-08-23T16:52:35Z</time>
      </trkpt>
      <trkpt lat="43.16296800000007" lon="-1.2403959999999974">
        <ele>184.417</ele>
        <time>2022-08-23T16:52:36Z</time>
      </trkpt>
      <trkpt lat="43.16293500000007" lon="-1.2403509999999973">
        <ele>184.209</ele>
        <time>2022-08-23T16:52:37Z</time>
      </trkpt>
      <trkpt lat="43.16290400000007" lon="-1.2403249999999972">
        <ele>183.824</ele>
        <time>2022-08-23T16:52:38Z</time>
      </trkpt>
      <trkpt lat="43.16287800000007" lon="-1.2403129999999973">
        <ele>183.434</ele>
        <time>2022-08-23T16:52:39Z</time>
      </trkpt>
      <trkpt lat="43.16285800000007" lon="-1.2403069999999974">
        <ele>183.224</ele>
        <time>2022-08-23T16:52:40Z</time>
      </trkpt>
      <trkpt lat="43.16284500000007" lon="-1.2403009999999974">
        <ele>183.030</ele>
        <time>2022-08-23T16:52:41Z</time>
      </trkpt>
      <trkpt lat="43.16284200000007" lon="-1.2403019999999974">
        <ele>179.232</ele>
        <time>2022-08-23T16:56:58Z</time>
      </trkpt>
      <trkpt lat="43.16284200000007" lon="-1.2403019999999974">
        <ele>182.229</ele>
        <time>2022-08-23T16:56:59Z</time>
      </trkpt>
      <trkpt lat="43.162843000000066" lon="-1.2402999999999973">
        <ele>182.241</ele>
        <time>2022-08-23T16:57:00Z</time>
      </trkpt>
      <trkpt lat="43.162841000000064" lon="-1.2402849999999972">
        <ele>182.221</ele>
        <time>2022-08-23T16:57:01Z</time>
      </trkpt>
      <trkpt lat="43.16283700000007" lon="-1.2402659999999972">
        <ele>182.230</ele>
        <time>2022-08-23T16:57:02Z</time>
      </trkpt>
      <trkpt lat="43.162838000000065" lon="-1.2402409999999973">
        <ele>182.246</ele>
        <time>2022-08-23T16:57:03Z</time>
      </trkpt>
      <trkpt lat="43.162798000000066" lon="-1.2400369999999972">
        <ele>182.288</ele>
        <time>2022-08-23T16:57:09Z</time>
      </trkpt>
      <trkpt lat="43.16277500000007" lon="-1.2400089999999973">
        <ele>182.216</ele>
        <time>2022-08-23T16:57:10Z</time>
      </trkpt>
      <trkpt lat="43.16275200000007" lon="-1.2399799999999972">
        <ele>182.209</ele>
        <time>2022-08-23T16:57:11Z</time>
      </trkpt>
      <trkpt lat="43.16272700000007" lon="-1.2399529999999972">
        <ele>182.075</ele>
        <time>2022-08-23T16:57:12Z</time>
      </trkpt>
      <trkpt lat="43.162697000000065" lon="-1.2399119999999972">
        <ele>182.085</ele>
        <time>2022-08-23T16:57:13Z</time>
      </trkpt>
      <trkpt lat="43.162658000000064" lon="-1.2398409999999973">
        <ele>182.045</ele>
        <time>2022-08-23T16:57:15Z</time>
      </trkpt>
      <trkpt lat="43.16264000000007" lon="-1.2397999999999973">
        <ele>182.011</ele>
        <time>2022-08-23T16:57:16Z</time>
      </trkpt>
      <trkpt lat="43.16262200000007" lon="-1.2397629999999973">
        <ele>182.033</ele>
        <time>2022-08-23T16:57:17Z</time>
      </trkpt>
      <trkpt lat="43.16260300000007" lon="-1.2397299999999973">
        <ele>182.230</ele>
        <time>2022-08-23T16:57:18Z</time>
      </trkpt>
      <trkpt lat="43.16258400000007" lon="-1.2396989999999974">
        <ele>182.232</ele>
        <time>2022-08-23T16:57:19Z</time>
      </trkpt>
      <trkpt lat="43.162565000000065" lon="-1.2396689999999975">
        <ele>182.042</ele>
        <time>2022-08-23T16:57:20Z</time>
      </trkpt>
      <trkpt lat="43.162548000000065" lon="-1.2396409999999976">
        <ele>182.421</ele>
        <time>2022-08-23T16:57:21Z</time>
      </trkpt>
      <trkpt lat="43.16253300000007" lon="-1.2396099999999977">
        <ele>182.692</ele>
        <time>2022-08-23T16:57:22Z</time>
      </trkpt>
      <trkpt lat="43.162517000000065" lon="-1.2395799999999977">
        <ele>182.673</ele>
        <time>2022-08-23T16:57:23Z</time>
      </trkpt>
      <trkpt lat="43.16250200000007" lon="-1.2395519999999978">
        <ele>182.820</ele>
        <time>2022-08-23T16:57:24Z</time>
      </trkpt>
      <trkpt lat="43.16239200000007" lon="-1.2394199999999977">
        <ele>183.409</ele>
        <time>2022-08-23T16:57:29Z</time>
      </trkpt>
      <trkpt lat="43.16236600000007" lon="-1.2393949999999978">
        <ele>183.430</ele>
        <time>2022-08-23T16:57:30Z</time>
      </trkpt>
      <trkpt lat="43.16234300000007" lon="-1.2393759999999978">
        <ele>183.670</ele>
        <time>2022-08-23T16:57:31Z</time>
      </trkpt>
      <trkpt lat="43.16226700000007" lon="-1.239309999999998">
        <ele>183.650</ele>
        <time>2022-08-23T16:57:34Z</time>
      </trkpt>
      <trkpt lat="43.16224300000007" lon="-1.2392919999999978">
        <ele>183.616</ele>
        <time>2022-08-23T16:57:35Z</time>
      </trkpt>
      <trkpt lat="43.162171000000065" lon="-1.2392309999999978">
        <ele>183.838</ele>
        <time>2022-08-23T16:57:38Z</time>
      </trkpt>
      <trkpt lat="43.16214700000006" lon="-1.2392069999999977">
        <ele>183.875</ele>
        <time>2022-08-23T16:57:39Z</time>
      </trkpt>
      <trkpt lat="43.16204300000006" lon="-1.2391089999999978">
        <ele>183.687</ele>
        <time>2022-08-23T16:57:43Z</time>
      </trkpt>
      <trkpt lat="43.16201600000006" lon="-1.2390869999999978">
        <ele>183.627</ele>
        <time>2022-08-23T16:57:44Z</time>
      </trkpt>
      <trkpt lat="43.16198800000006" lon="-1.2390679999999978">
        <ele>183.626</ele>
        <time>2022-08-23T16:57:45Z</time>
      </trkpt>
      <trkpt lat="43.16196700000006" lon="-1.2390519999999978">
        <ele>183.657</ele>
        <time>2022-08-23T16:57:46Z</time>
      </trkpt>
      <trkpt lat="43.161949000000064" lon="-1.2390419999999978">
        <ele>183.600</ele>
        <time>2022-08-23T16:57:47Z</time>
      </trkpt>
      <trkpt lat="43.16193300000006" lon="-1.2390409999999978">
        <ele>183.620</ele>
        <time>2022-08-23T16:57:48Z</time>
      </trkpt>
      <trkpt lat="43.161918000000064" lon="-1.2390349999999979">
        <ele>183.609</ele>
        <time>2022-08-23T16:57:49Z</time>
      </trkpt>
      <trkpt lat="43.16187700000006" lon="-1.2389949999999978">
        <ele>183.446</ele>
        <time>2022-08-23T16:59:24Z</time>
      </trkpt>
      <trkpt lat="43.16186600000006" lon="-1.2389839999999979">
        <ele>183.486</ele>
        <time>2022-08-23T16:59:25Z</time>
      </trkpt>
      <trkpt lat="43.162496" lon="-1.237244">
        <ele>168.869</ele>
        <time>2022-08-24T06:15:10Z</time>
      </trkpt>
      <trkpt lat="43.162499999999994" lon="-1.23721">
        <ele>172.404</ele>
        <time>2022-08-24T06:15:39Z</time>
      </trkpt>
      <trkpt lat="43.16249199999999" lon="-1.2372159999999999">
        <ele>172.424</ele>
        <time>2022-08-24T06:15:41Z</time>
      </trkpt>
      <trkpt lat="43.16247499999999" lon="-1.2371819999999998">
        <ele>172.409</ele>
        <time>2022-08-24T06:23:29Z</time>
      </trkpt>
      <trkpt lat="43.16248199999999" lon="-1.2372099999999997">
        <ele>172.457</ele>
        <time>2022-08-24T06:23:33Z</time>
      </trkpt>
      <trkpt lat="43.16246899999999" lon="-1.2372169999999998">
        <ele>172.257</ele>
        <time>2022-08-24T06:23:34Z</time>
      </trkpt>
      <trkpt lat="43.162435999999985" lon="-1.2372249999999998">
        <ele>172.227</ele>
        <time>2022-08-24T06:23:35Z</time>
      </trkpt>
      <trkpt lat="43.16238999999999" lon="-1.2372359999999998">
        <ele>172.283</ele>
        <time>2022-08-24T06:23:36Z</time>
      </trkpt>
      <trkpt lat="43.162359999999985" lon="-1.2372449999999997">
        <ele>172.255</ele>
        <time>2022-08-24T06:23:37Z</time>
      </trkpt>
      <trkpt lat="43.16233299999998" lon="-1.2372509999999997">
        <ele>172.232</ele>
        <time>2022-08-24T06:23:38Z</time>
      </trkpt>
      <trkpt lat="43.16231299999998" lon="-1.2372599999999996">
        <ele>172.235</ele>
        <time>2022-08-24T06:23:39Z</time>
      </trkpt>
      <trkpt lat="43.162294999999986" lon="-1.2372709999999996">
        <ele>172.079</ele>
        <time>2022-08-24T06:23:40Z</time>
      </trkpt>
      <trkpt lat="43.16217099999999" lon="-1.2373279999999995">
        <ele>171.888</ele>
        <time>2022-08-24T06:23:45Z</time>
      </trkpt>
      <trkpt lat="43.162081999999984" lon="-1.2373809999999996">
        <ele>171.825</ele>
        <time>2022-08-24T06:23:48Z</time>
      </trkpt>
      <trkpt lat="43.16205799999998" lon="-1.2373899999999995">
        <ele>171.826</ele>
        <time>2022-08-24T06:23:49Z</time>
      </trkpt>
      <trkpt lat="43.16203399999998" lon="-1.2374019999999994">
        <ele>171.608</ele>
        <time>2022-08-24T06:23:50Z</time>
      </trkpt>
      <trkpt lat="43.16201299999998" lon="-1.2374159999999994">
        <ele>171.609</ele>
        <time>2022-08-24T06:23:51Z</time>
      </trkpt>
      <trkpt lat="43.16199299999998" lon="-1.2374249999999993">
        <ele>171.693</ele>
        <time>2022-08-24T06:23:52Z</time>
      </trkpt>
      <trkpt lat="43.16197899999998" lon="-1.2374319999999994">
        <ele>171.633</ele>
        <time>2022-08-24T06:23:53Z</time>
      </trkpt>
      <trkpt lat="43.16196999999998" lon="-1.2374369999999995">
        <ele>171.613</ele>
        <time>2022-08-24T06:23:54Z</time>
      </trkpt>
      <trkpt lat="43.161957999999984" lon="-1.2374469999999995">
        <ele>171.659</ele>
        <time>2022-08-24T06:23:55Z</time>
      </trkpt>
      <trkpt lat="43.161940999999985" lon="-1.2374609999999995">
        <ele>171.661</ele>
        <time>2022-08-24T06:23:56Z</time>
      </trkpt>
      <trkpt lat="43.16192199999998" lon="-1.2374709999999995">
        <ele>171.678</ele>
        <time>2022-08-24T06:23:57Z</time>
      </trkpt>
      <trkpt lat="43.16184899999998" lon="-1.2375069999999995">
        <ele>172.081</ele>
        <time>2022-08-24T06:24:01Z</time>
      </trkpt>
      <trkpt lat="43.161819999999985" lon="-1.2375149999999995">
        <ele>172.225</ele>
        <time>2022-08-24T06:24:02Z</time>
      </trkpt>
      <trkpt lat="43.161701999999984" lon="-1.2375849999999995">
        <ele>172.214</ele>
        <time>2022-08-24T06:24:07Z</time>
      </trkpt>
      <trkpt lat="43.161684999999984" lon="-1.2375959999999995">
        <ele>172.265</ele>
        <time>2022-08-24T06:24:08Z</time>
      </trkpt>
      <trkpt lat="43.16166999999999" lon="-1.2376089999999995">
        <ele>172.268</ele>
        <time>2022-08-24T06:24:09Z</time>
      </trkpt>
      <trkpt lat="43.16162699999999" lon="-1.2376459999999996">
        <ele>172.214</ele>
        <time>2022-08-24T06:24:11Z</time>
      </trkpt>
      <trkpt lat="43.161596999999986" lon="-1.2376629999999995">
        <ele>172.209</ele>
        <time>2022-08-24T06:24:12Z</time>
      </trkpt>
      <trkpt lat="43.16156999999998" lon="-1.2376759999999996">
        <ele>172.297</ele>
        <time>2022-08-24T06:24:13Z</time>
      </trkpt>
      <trkpt lat="43.16154299999998" lon="-1.2376919999999996">
        <ele>172.267</ele>
        <time>2022-08-24T06:24:14Z</time>
      </trkpt>
      <trkpt lat="43.16152399999998" lon="-1.2377039999999995">
        <ele>172.237</ele>
        <time>2022-08-24T06:24:15Z</time>
      </trkpt>
      <trkpt lat="43.16151799999998" lon="-1.2377199999999995">
        <ele>172.213</ele>
        <time>2022-08-24T06:24:16Z</time>
      </trkpt>
      <trkpt lat="43.16150699999998" lon="-1.2378059999999995">
        <ele>172.225</ele>
        <time>2022-08-24T06:24:18Z</time>
      </trkpt>
      <trkpt lat="43.16152099999998" lon="-1.2378439999999995">
        <ele>172.262</ele>
        <time>2022-08-24T06:24:19Z</time>
      </trkpt>
      <trkpt lat="43.16155399999998" lon="-1.2379569999999995">
        <ele>172.275</ele>
        <time>2022-08-24T06:24:22Z</time>
      </trkpt>
      <trkpt lat="43.16155699999998" lon="-1.2380089999999995">
        <ele>172.269</ele>
        <time>2022-08-24T06:24:23Z</time>
      </trkpt>
      <trkpt lat="43.16159299999998" lon="-1.2382429999999995">
        <ele>172.058</ele>
        <time>2022-08-24T06:24:28Z</time>
      </trkpt>
      <trkpt lat="43.16159299999998" lon="-1.2382959999999996">
        <ele>171.877</ele>
        <time>2022-08-24T06:24:29Z</time>
      </trkpt>
      <trkpt lat="43.161622999999985" lon="-1.2383929999999996">
        <ele>171.661</ele>
        <time>2022-08-24T06:24:31Z</time>
      </trkpt>
      <trkpt lat="43.161644999999986" lon="-1.2384409999999997">
        <ele>171.627</ele>
        <time>2022-08-24T06:24:32Z</time>
      </trkpt>
      <trkpt lat="43.16165499999999" lon="-1.2384789999999997">
        <ele>171.409</ele>
        <time>2022-08-24T06:24:33Z</time>
      </trkpt>
      <trkpt lat="43.161658999999986" lon="-1.2385049999999997">
        <ele>171.428</ele>
        <time>2022-08-24T06:24:34Z</time>
      </trkpt>
      <trkpt lat="43.161661999999986" lon="-1.2385339999999998">
        <ele>171.428</ele>
        <time>2022-08-24T06:24:35Z</time>
      </trkpt>
      <trkpt lat="43.16166899999998" lon="-1.2385619999999997">
        <ele>171.458</ele>
        <time>2022-08-24T06:24:36Z</time>
      </trkpt>
      <trkpt lat="43.161678999999985" lon="-1.2385909999999998">
        <ele>171.474</ele>
        <time>2022-08-24T06:24:37Z</time>
      </trkpt>
      <trkpt lat="43.161684999999984" lon="-1.2386209999999997">
        <ele>171.416</ele>
        <time>2022-08-24T06:24:38Z</time>
      </trkpt>
      <trkpt lat="43.16169499999999" lon="-1.2386469999999998">
        <ele>171.433</ele>
        <time>2022-08-24T06:24:39Z</time>
      </trkpt>
      <trkpt lat="43.161703999999986" lon="-1.2386759999999999">
        <ele>171.616</ele>
        <time>2022-08-24T06:24:40Z</time>
      </trkpt>
      <trkpt lat="43.161709999999985" lon="-1.2387089999999998">
        <ele>171.660</ele>
        <time>2022-08-24T06:24:41Z</time>
      </trkpt>
      <trkpt lat="43.16171699999998" lon="-1.238738">
        <ele>171.689</ele>
        <time>2022-08-24T06:24:42Z</time>
      </trkpt>
      <trkpt lat="43.16172299999998" lon="-1.2387629999999998">
        <ele>171.872</ele>
        <time>2022-08-24T06:24:43Z</time>
      </trkpt>
      <trkpt lat="43.16173199999998" lon="-1.2387799999999998">
        <ele>171.813</ele>
        <time>2022-08-24T06:24:44Z</time>
      </trkpt>
      <trkpt lat="43.16173999999998" lon="-1.2387959999999998">
        <ele>171.814</ele>
        <time>2022-08-24T06:24:45Z</time>
      </trkpt>
      <trkpt lat="43.16175599999998" lon="-1.2388389999999998">
        <ele>171.809</ele>
        <time>2022-08-24T06:24:47Z</time>
      </trkpt>
      <trkpt lat="43.16173699999998" lon="-1.2388849999999998">
        <ele>172.058</ele>
        <time>2022-08-24T06:24:49Z</time>
      </trkpt>
      <trkpt lat="43.16172199999998" lon="-1.2388979999999998">
        <ele>172.068</ele>
        <time>2022-08-24T06:24:50Z</time>
      </trkpt>
      <trkpt lat="43.16170099999999" lon="-1.2389059999999998">
        <ele>172.088</ele>
        <time>2022-08-24T06:24:51Z</time>
      </trkpt>
      <trkpt lat="43.16168099999999" lon="-1.2389089999999998">
        <ele>172.234</ele>
        <time>2022-08-24T06:24:52Z</time>
      </trkpt>
      <trkpt lat="43.16166699999999" lon="-1.2389109999999999">
        <ele>172.276</ele>
        <time>2022-08-24T06:24:53Z</time>
      </trkpt>
      <trkpt lat="43.161650999999985" lon="-1.2389149999999998">
        <ele>172.243</ele>
        <time>2022-08-24T06:24:54Z</time>
      </trkpt>
      <trkpt lat="43.16163299999999" lon="-1.2389179999999997">
        <ele>172.466</ele>
        <time>2022-08-24T06:24:55Z</time>
      </trkpt>
      <trkpt lat="43.16161599999999" lon="-1.2389219999999996">
        <ele>172.650</ele>
        <time>2022-08-24T06:24:56Z</time>
      </trkpt>
      <trkpt lat="43.16160099999999" lon="-1.2389259999999995">
        <ele>172.859</ele>
        <time>2022-08-24T06:24:57Z</time>
      </trkpt>
      <trkpt lat="43.16158799999999" lon="-1.2389279999999996">
        <ele>173.056</ele>
        <time>2022-08-24T06:24:58Z</time>
      </trkpt>
      <trkpt lat="43.16157599999999" lon="-1.2389319999999995">
        <ele>173.259</ele>
        <time>2022-08-24T06:24:59Z</time>
      </trkpt>
      <trkpt lat="43.16156299999999" lon="-1.2389339999999995">
        <ele>173.614</ele>
        <time>2022-08-24T06:25:00Z</time>
      </trkpt>
      <trkpt lat="43.16154799999999" lon="-1.2389389999999996">
        <ele>173.809</ele>
        <time>2022-08-24T06:25:01Z</time>
      </trkpt>
      <trkpt lat="43.161475999999986" lon="-1.2389619999999997">
        <ele>174.826</ele>
        <time>2022-08-24T06:25:06Z</time>
      </trkpt>
      <trkpt lat="43.161461999999986" lon="-1.2389709999999996">
        <ele>175.036</ele>
        <time>2022-08-24T06:25:07Z</time>
      </trkpt>
      <trkpt lat="43.16144699999999" lon="-1.2389769999999996">
        <ele>175.476</ele>
        <time>2022-08-24T06:25:08Z</time>
      </trkpt>
      <trkpt lat="43.16143499999999" lon="-1.2389859999999995">
        <ele>175.822</ele>
        <time>2022-08-24T06:25:09Z</time>
      </trkpt>
      <trkpt lat="43.16141899999999" lon="-1.2389939999999995">
        <ele>175.834</ele>
        <time>2022-08-24T06:25:10Z</time>
      </trkpt>
      <trkpt lat="43.16140499999999" lon="-1.2390019999999995">
        <ele>176.261</ele>
        <time>2022-08-24T06:25:11Z</time>
      </trkpt>
      <trkpt lat="43.16139399999999" lon="-1.2390059999999994">
        <ele>176.254</ele>
        <time>2022-08-24T06:25:12Z</time>
      </trkpt>
      <trkpt lat="43.161385999999986" lon="-1.2390109999999994">
        <ele>176.488</ele>
        <time>2022-08-24T06:25:13Z</time>
      </trkpt>
      <trkpt lat="43.16137699999999" lon="-1.2390179999999995">
        <ele>176.627</ele>
        <time>2022-08-24T06:25:14Z</time>
      </trkpt>
      <trkpt lat="43.161366999999984" lon="-1.2390269999999994">
        <ele>176.883</ele>
        <time>2022-08-24T06:25:15Z</time>
      </trkpt>
      <trkpt lat="43.16135399999998" lon="-1.2390379999999994">
        <ele>177.025</ele>
        <time>2022-08-24T06:25:16Z</time>
      </trkpt>
      <trkpt lat="43.161338999999984" lon="-1.2390489999999994">
        <ele>177.217</ele>
        <time>2022-08-24T06:25:17Z</time>
      </trkpt>
      <trkpt lat="43.161323999999986" lon="-1.2390629999999994">
        <ele>177.209</ele>
        <time>2022-08-24T06:25:18Z</time>
      </trkpt>
      <trkpt lat="43.16130899999999" lon="-1.2390749999999993">
        <ele>177.429</ele>
        <time>2022-08-24T06:25:19Z</time>
      </trkpt>
      <trkpt lat="43.16129499999999" lon="-1.2390849999999993">
        <ele>177.699</ele>
        <time>2022-08-24T06:25:20Z</time>
      </trkpt>
      <trkpt lat="43.16128099999999" lon="-1.2390939999999993">
        <ele>177.859</ele>
        <time>2022-08-24T06:25:21Z</time>
      </trkpt>
      <trkpt lat="43.16126899999999" lon="-1.2391049999999992">
        <ele>178.225</ele>
        <time>2022-08-24T06:25:22Z</time>
      </trkpt>
      <trkpt lat="43.16125699999999" lon="-1.2391159999999992">
        <ele>178.447</ele>
        <time>2022-08-24T06:25:23Z</time>
      </trkpt>
      <trkpt lat="43.16124399999999" lon="-1.2391279999999991">
        <ele>178.484</ele>
        <time>2022-08-24T06:25:24Z</time>
      </trkpt>
      <trkpt lat="43.16123099999999" lon="-1.239139999999999">
        <ele>178.657</ele>
        <time>2022-08-24T06:25:25Z</time>
      </trkpt>
      <trkpt lat="43.16121599999999" lon="-1.239151999999999">
        <ele>178.671</ele>
        <time>2022-08-24T06:25:26Z</time>
      </trkpt>
      <trkpt lat="43.16120199999999" lon="-1.239167999999999">
        <ele>179.040</ele>
        <time>2022-08-24T06:25:27Z</time>
      </trkpt>
      <trkpt lat="43.16118999999999" lon="-1.239180999999999">
        <ele>179.055</ele>
        <time>2022-08-24T06:25:28Z</time>
      </trkpt>
      <trkpt lat="43.16118099999999" lon="-1.2391929999999989">
        <ele>179.207</ele>
        <time>2022-08-24T06:25:29Z</time>
      </trkpt>
      <trkpt lat="43.16117199999999" lon="-1.2392069999999988">
        <ele>179.417</ele>
        <time>2022-08-24T06:25:30Z</time>
      </trkpt>
      <trkpt lat="43.161159999999995" lon="-1.2392189999999987">
        <ele>179.609</ele>
        <time>2022-08-24T06:25:31Z</time>
      </trkpt>
      <trkpt lat="43.16114699999999" lon="-1.2392339999999988">
        <ele>179.666</ele>
        <time>2022-08-24T06:25:32Z</time>
      </trkpt>
      <trkpt lat="43.16113299999999" lon="-1.2392459999999987">
        <ele>179.886</ele>
        <time>2022-08-24T06:25:33Z</time>
      </trkpt>
      <trkpt lat="43.16111599999999" lon="-1.2392559999999988">
        <ele>179.846</ele>
        <time>2022-08-24T06:25:34Z</time>
      </trkpt>
      <trkpt lat="43.16110299999999" lon="-1.2392689999999988">
        <ele>180.022</ele>
        <time>2022-08-24T06:25:35Z</time>
      </trkpt>
      <trkpt lat="43.16108999999999" lon="-1.2392859999999988">
        <ele>180.034</ele>
        <time>2022-08-24T06:25:36Z</time>
      </trkpt>
      <trkpt lat="43.16107499999999" lon="-1.2393039999999989">
        <ele>180.221</ele>
        <time>2022-08-24T06:25:37Z</time>
      </trkpt>
      <trkpt lat="43.16105699999999" lon="-1.2393199999999989">
        <ele>180.284</ele>
        <time>2022-08-24T06:25:38Z</time>
      </trkpt>
      <trkpt lat="43.16103699999999" lon="-1.2393359999999989">
        <ele>180.418</ele>
        <time>2022-08-24T06:25:39Z</time>
      </trkpt>
      <trkpt lat="43.16101799999999" lon="-1.239351999999999">
        <ele>180.447</ele>
        <time>2022-08-24T06:25:40Z</time>
      </trkpt>
      <trkpt lat="43.16099899999999" lon="-1.239361999999999">
        <ele>180.645</ele>
        <time>2022-08-24T06:25:41Z</time>
      </trkpt>
      <trkpt lat="43.16098499999999" lon="-1.239371999999999">
        <ele>180.647</ele>
        <time>2022-08-24T06:25:42Z</time>
      </trkpt>
      <trkpt lat="43.16096299999999" lon="-1.2393869999999991">
        <ele>180.811</ele>
        <time>2022-08-24T06:25:43Z</time>
      </trkpt>
      <trkpt lat="43.160943999999986" lon="-1.239400999999999">
        <ele>180.809</ele>
        <time>2022-08-24T06:25:44Z</time>
      </trkpt>
      <trkpt lat="43.16092299999999" lon="-1.2394109999999992">
        <ele>180.825</ele>
        <time>2022-08-24T06:25:45Z</time>
      </trkpt>
      <trkpt lat="43.16090199999999" lon="-1.239416999999999">
        <ele>180.875</ele>
        <time>2022-08-24T06:25:46Z</time>
      </trkpt>
      <trkpt lat="43.16087999999999" lon="-1.239420999999999">
        <ele>181.085</ele>
        <time>2022-08-24T06:25:47Z</time>
      </trkpt>
      <trkpt lat="43.16085999999999" lon="-1.239422999999999">
        <ele>181.071</ele>
        <time>2022-08-24T06:25:48Z</time>
      </trkpt>
      <trkpt lat="43.160833999999994" lon="-1.2394189999999992">
        <ele>181.043</ele>
        <time>2022-08-24T06:25:49Z</time>
      </trkpt>
      <trkpt lat="43.160813999999995" lon="-1.2394099999999992">
        <ele>181.070</ele>
        <time>2022-08-24T06:25:50Z</time>
      </trkpt>
      <trkpt lat="43.16079499999999" lon="-1.2393979999999993">
        <ele>181.283</ele>
        <time>2022-08-24T06:25:51Z</time>
      </trkpt>
      <trkpt lat="43.16077299999999" lon="-1.2393859999999994">
        <ele>181.227</ele>
        <time>2022-08-24T06:25:52Z</time>
      </trkpt>
      <trkpt lat="43.16075099999999" lon="-1.2393699999999994">
        <ele>181.426</ele>
        <time>2022-08-24T06:25:53Z</time>
      </trkpt>
      <trkpt lat="43.16073099999999" lon="-1.2393489999999994">
        <ele>181.486</ele>
        <time>2022-08-24T06:25:54Z</time>
      </trkpt>
      <trkpt lat="43.16071899999999" lon="-1.2393249999999993">
        <ele>181.860</ele>
        <time>2022-08-24T06:25:55Z</time>
      </trkpt>
      <trkpt lat="43.16070599999999" lon="-1.2392979999999993">
        <ele>181.826</ele>
        <time>2022-08-24T06:25:56Z</time>
      </trkpt>
      <trkpt lat="43.16069799999999" lon="-1.2392669999999995">
        <ele>181.809</ele>
        <time>2022-08-24T06:25:57Z</time>
      </trkpt>
      <trkpt lat="43.16069399999999" lon="-1.2392339999999995">
        <ele>181.869</ele>
        <time>2022-08-24T06:25:58Z</time>
      </trkpt>
      <trkpt lat="43.160684999999994" lon="-1.2391999999999994">
        <ele>182.069</ele>
        <time>2022-08-24T06:25:59Z</time>
      </trkpt>
      <trkpt lat="43.160624999999996" lon="-1.2389869999999994">
        <ele>182.099</ele>
        <time>2022-08-24T06:26:05Z</time>
      </trkpt>
      <trkpt lat="43.160605" lon="-1.2389189999999994">
        <ele>182.035</ele>
        <time>2022-08-24T06:26:07Z</time>
      </trkpt>
      <trkpt lat="43.160576999999996" lon="-1.2388569999999994">
        <ele>182.097</ele>
        <time>2022-08-24T06:26:09Z</time>
      </trkpt>
      <trkpt lat="43.160554999999995" lon="-1.2387969999999995">
        <ele>181.884</ele>
        <time>2022-08-24T06:26:11Z</time>
      </trkpt>
      <trkpt lat="43.16054499999999" lon="-1.2387719999999995">
        <ele>181.877</ele>
        <time>2022-08-24T06:26:12Z</time>
      </trkpt>
      <trkpt lat="43.16051799999999" lon="-1.2386679999999994">
        <ele>181.831</ele>
        <time>2022-08-24T06:26:15Z</time>
      </trkpt>
      <trkpt lat="43.160507999999986" lon="-1.2386319999999995">
        <ele>181.860</ele>
        <time>2022-08-24T06:26:16Z</time>
      </trkpt>
      <trkpt lat="43.160482999999985" lon="-1.2385659999999996">
        <ele>181.875</ele>
        <time>2022-08-24T06:26:18Z</time>
      </trkpt>
      <trkpt lat="43.160471999999984" lon="-1.2385419999999996">
        <ele>181.828</ele>
        <time>2022-08-24T06:26:19Z</time>
      </trkpt>
      <trkpt lat="43.16045899999998" lon="-1.2385039999999996">
        <ele>181.820</ele>
        <time>2022-08-24T06:26:20Z</time>
      </trkpt>
      <trkpt lat="43.16041999999998" lon="-1.2384529999999996">
        <ele>182.009</ele>
        <time>2022-08-24T06:26:22Z</time>
      </trkpt>
      <trkpt lat="43.16039999999998" lon="-1.2384419999999996">
        <ele>182.018</ele>
        <time>2022-08-24T06:26:23Z</time>
      </trkpt>
      <trkpt lat="43.160367999999984" lon="-1.2384289999999996">
        <ele>182.018</ele>
        <time>2022-08-24T06:26:24Z</time>
      </trkpt>
      <trkpt lat="43.16034399999998" lon="-1.2384259999999996">
        <ele>182.028</ele>
        <time>2022-08-24T06:26:25Z</time>
      </trkpt>
      <trkpt lat="43.16031999999998" lon="-1.2384259999999996">
        <ele>182.034</ele>
        <time>2022-08-24T06:26:26Z</time>
      </trkpt>
      <trkpt lat="43.160300999999976" lon="-1.2384329999999997">
        <ele>182.286</ele>
        <time>2022-08-24T06:26:27Z</time>
      </trkpt>
      <trkpt lat="43.160278999999974" lon="-1.2384459999999997">
        <ele>182.243</ele>
        <time>2022-08-24T06:26:28Z</time>
      </trkpt>
      <trkpt lat="43.160258999999975" lon="-1.2384599999999997">
        <ele>182.436</ele>
        <time>2022-08-24T06:26:29Z</time>
      </trkpt>
      <trkpt lat="43.16019499999997" lon="-1.2385079999999997">
        <ele>182.630</ele>
        <time>2022-08-24T06:26:32Z</time>
      </trkpt>
      <trkpt lat="43.16017799999997" lon="-1.2385179999999998">
        <ele>182.659</ele>
        <time>2022-08-24T06:26:33Z</time>
      </trkpt>
      <trkpt lat="43.16015299999997" lon="-1.2385349999999997">
        <ele>182.689</ele>
        <time>2022-08-24T06:26:34Z</time>
      </trkpt>
      <trkpt lat="43.16011499999997" lon="-1.2385659999999996">
        <ele>182.806</ele>
        <time>2022-08-24T06:26:36Z</time>
      </trkpt>
      <trkpt lat="43.16009799999997" lon="-1.2385779999999995">
        <ele>183.026</ele>
        <time>2022-08-24T06:26:37Z</time>
      </trkpt>
      <trkpt lat="43.16008099999997" lon="-1.2385869999999994">
        <ele>183.009</ele>
        <time>2022-08-24T06:26:38Z</time>
      </trkpt>
      <trkpt lat="43.16005599999997" lon="-1.2385999999999995">
        <ele>183.259</ele>
        <time>2022-08-24T06:26:39Z</time>
      </trkpt>
      <trkpt lat="43.16003699999997" lon="-1.2386139999999994">
        <ele>183.279</ele>
        <time>2022-08-24T06:26:40Z</time>
      </trkpt>
      <trkpt lat="43.16001699999997" lon="-1.2386259999999993">
        <ele>183.429</ele>
        <time>2022-08-24T06:26:41Z</time>
      </trkpt>
      <trkpt lat="43.159899999999965" lon="-1.2387049999999993">
        <ele>184.255</ele>
        <time>2022-08-24T06:26:47Z</time>
      </trkpt>
      <trkpt lat="43.15987899999997" lon="-1.2387239999999993">
        <ele>184.457</ele>
        <time>2022-08-24T06:26:48Z</time>
      </trkpt>
      <trkpt lat="43.159862999999966" lon="-1.2387369999999993">
        <ele>184.424</ele>
        <time>2022-08-24T06:26:49Z</time>
      </trkpt>
      <trkpt lat="43.15982299999997" lon="-1.2387699999999993">
        <ele>184.827</ele>
        <time>2022-08-24T06:26:51Z</time>
      </trkpt>
      <trkpt lat="43.15980299999997" lon="-1.2387859999999993">
        <ele>185.011</ele>
        <time>2022-08-24T06:26:52Z</time>
      </trkpt>
      <trkpt lat="43.15978499999997" lon="-1.2388049999999993">
        <ele>185.070</ele>
        <time>2022-08-24T06:26:53Z</time>
      </trkpt>
      <trkpt lat="43.15976799999997" lon="-1.2388199999999994">
        <ele>185.245</ele>
        <time>2022-08-24T06:26:54Z</time>
      </trkpt>
      <trkpt lat="43.15974799999997" lon="-1.2388319999999993">
        <ele>185.447</ele>
        <time>2022-08-24T06:26:55Z</time>
      </trkpt>
      <trkpt lat="43.15972499999997" lon="-1.2388449999999993">
        <ele>185.611</ele>
        <time>2022-08-24T06:26:56Z</time>
      </trkpt>
      <trkpt lat="43.159706999999976" lon="-1.2388589999999993">
        <ele>186.009</ele>
        <time>2022-08-24T06:26:57Z</time>
      </trkpt>
      <trkpt lat="43.159690999999974" lon="-1.2388729999999992">
        <ele>186.095</ele>
        <time>2022-08-24T06:26:58Z</time>
      </trkpt>
      <trkpt lat="43.15967199999997" lon="-1.2388859999999993">
        <ele>186.435</ele>
        <time>2022-08-24T06:26:59Z</time>
      </trkpt>
      <trkpt lat="43.159653999999975" lon="-1.2388959999999993">
        <ele>186.445</ele>
        <time>2022-08-24T06:27:00Z</time>
      </trkpt>
      <trkpt lat="43.15963499999997" lon="-1.2389049999999993">
        <ele>186.821</ele>
        <time>2022-08-24T06:27:01Z</time>
      </trkpt>
      <trkpt lat="43.159616999999976" lon="-1.2389129999999993">
        <ele>187.013</ele>
        <time>2022-08-24T06:27:02Z</time>
      </trkpt>
      <trkpt lat="43.159600999999974" lon="-1.2389189999999992">
        <ele>187.250</ele>
        <time>2022-08-24T06:27:03Z</time>
      </trkpt>
      <trkpt lat="43.159577999999975" lon="-1.2389259999999993">
        <ele>187.453</ele>
        <time>2022-08-24T06:27:04Z</time>
      </trkpt>
      <trkpt lat="43.15955399999997" lon="-1.2389289999999993">
        <ele>187.837</ele>
        <time>2022-08-24T06:27:05Z</time>
      </trkpt>
      <trkpt lat="43.15953199999997" lon="-1.2389289999999993">
        <ele>188.276</ele>
        <time>2022-08-24T06:27:06Z</time>
      </trkpt>
      <trkpt lat="43.15950299999997" lon="-1.2389279999999994">
        <ele>188.272</ele>
        <time>2022-08-24T06:27:07Z</time>
      </trkpt>
      <trkpt lat="43.15947899999997" lon="-1.2389239999999995">
        <ele>188.613</ele>
        <time>2022-08-24T06:27:08Z</time>
      </trkpt>
      <trkpt lat="43.15946199999997" lon="-1.2389219999999994">
        <ele>188.814</ele>
        <time>2022-08-24T06:27:09Z</time>
      </trkpt>
      <trkpt lat="43.15943699999997" lon="-1.2389179999999995">
        <ele>189.009</ele>
        <time>2022-08-24T06:27:10Z</time>
      </trkpt>
      <trkpt lat="43.159412999999965" lon="-1.2389149999999995">
        <ele>189.268</ele>
        <time>2022-08-24T06:27:11Z</time>
      </trkpt>
      <trkpt lat="43.159389999999966" lon="-1.2389149999999995">
        <ele>189.258</ele>
        <time>2022-08-24T06:27:12Z</time>
      </trkpt>
      <trkpt lat="43.159364999999966" lon="-1.2389119999999996">
        <ele>189.428</ele>
        <time>2022-08-24T06:27:13Z</time>
      </trkpt>
      <trkpt lat="43.159347999999966" lon="-1.2389039999999996">
        <ele>189.624</ele>
        <time>2022-08-24T06:27:14Z</time>
      </trkpt>
      <trkpt lat="43.15932799999997" lon="-1.2388969999999995">
        <ele>189.896</ele>
        <time>2022-08-24T06:27:15Z</time>
      </trkpt>
      <trkpt lat="43.159302999999966" lon="-1.2388919999999994">
        <ele>190.253</ele>
        <time>2022-08-24T06:27:16Z</time>
      </trkpt>
      <trkpt lat="43.15928299999997" lon="-1.2388879999999995">
        <ele>190.256</ele>
        <time>2022-08-24T06:27:17Z</time>
      </trkpt>
      <trkpt lat="43.159260999999965" lon="-1.2388849999999996">
        <ele>190.480</ele>
        <time>2022-08-24T06:27:18Z</time>
      </trkpt>
      <trkpt lat="43.159235999999964" lon="-1.2388839999999997">
        <ele>190.439</ele>
        <time>2022-08-24T06:27:19Z</time>
      </trkpt>
      <trkpt lat="43.159215999999965" lon="-1.2388859999999997">
        <ele>190.426</ele>
        <time>2022-08-24T06:27:20Z</time>
      </trkpt>
      <trkpt lat="43.15918899999996" lon="-1.2388859999999997">
        <ele>190.647</ele>
        <time>2022-08-24T06:27:21Z</time>
      </trkpt>
      <trkpt lat="43.15915899999996" lon="-1.2388859999999997">
        <ele>190.811</ele>
        <time>2022-08-24T06:27:22Z</time>
      </trkpt>
      <trkpt lat="43.15913499999996" lon="-1.2388879999999998">
        <ele>190.809</ele>
        <time>2022-08-24T06:27:23Z</time>
      </trkpt>
      <trkpt lat="43.159112999999955" lon="-1.2388929999999998">
        <ele>191.283</ele>
        <time>2022-08-24T06:27:24Z</time>
      </trkpt>
      <trkpt lat="43.15909499999996" lon="-1.2389">
        <ele>191.653</ele>
        <time>2022-08-24T06:27:25Z</time>
      </trkpt>
      <trkpt lat="43.15908299999996" lon="-1.2389039999999998">
        <ele>191.633</ele>
        <time>2022-08-24T06:27:26Z</time>
      </trkpt>
      <trkpt lat="43.15906299999996" lon="-1.2389119999999998">
        <ele>192.079</ele>
        <time>2022-08-24T06:27:27Z</time>
      </trkpt>
      <trkpt lat="43.15904699999996" lon="-1.2389219999999999">
        <ele>192.251</ele>
        <time>2022-08-24T06:27:28Z</time>
      </trkpt>
      <trkpt lat="43.15902799999996" lon="-1.2389339999999998">
        <ele>192.468</ele>
        <time>2022-08-24T06:27:29Z</time>
      </trkpt>
      <trkpt lat="43.159008999999955" lon="-1.2389469999999998">
        <ele>192.641</ele>
        <time>2022-08-24T06:27:30Z</time>
      </trkpt>
      <trkpt lat="43.15899099999996" lon="-1.2389579999999998">
        <ele>192.695</ele>
        <time>2022-08-24T06:27:31Z</time>
      </trkpt>
      <trkpt lat="43.158974999999955" lon="-1.2389709999999998">
        <ele>192.864</ele>
        <time>2022-08-24T06:27:32Z</time>
      </trkpt>
      <trkpt lat="43.158955999999954" lon="-1.238986">
        <ele>193.043</ele>
        <time>2022-08-24T06:27:33Z</time>
      </trkpt>
      <trkpt lat="43.15894199999995" lon="-1.2389979999999998">
        <ele>193.064</ele>
        <time>2022-08-24T06:27:34Z</time>
      </trkpt>
      <trkpt lat="43.158929999999955" lon="-1.2390109999999999">
        <ele>193.210</ele>
        <time>2022-08-24T06:27:35Z</time>
      </trkpt>
      <trkpt lat="43.158918999999955" lon="-1.2390219999999998">
        <ele>193.609</ele>
        <time>2022-08-24T06:27:36Z</time>
      </trkpt>
      <trkpt lat="43.158904999999955" lon="-1.2390389999999998">
        <ele>193.895</ele>
        <time>2022-08-24T06:27:37Z</time>
      </trkpt>
      <trkpt lat="43.15889199999995" lon="-1.2390509999999997">
        <ele>194.235</ele>
        <time>2022-08-24T06:27:38Z</time>
      </trkpt>
      <trkpt lat="43.15887499999995" lon="-1.2390639999999997">
        <ele>194.445</ele>
        <time>2022-08-24T06:27:39Z</time>
      </trkpt>
      <trkpt lat="43.15886499999995" lon="-1.2390749999999997">
        <ele>194.431</ele>
        <time>2022-08-24T06:27:40Z</time>
      </trkpt>
      <trkpt lat="43.15884999999995" lon="-1.2390849999999998">
        <ele>194.893</ele>
        <time>2022-08-24T06:27:41Z</time>
      </trkpt>
      <trkpt lat="43.15883299999995" lon="-1.2390939999999997">
        <ele>195.070</ele>
        <time>2022-08-24T06:27:42Z</time>
      </trkpt>
      <trkpt lat="43.15881599999995" lon="-1.2391079999999997">
        <ele>195.233</ele>
        <time>2022-08-24T06:27:43Z</time>
      </trkpt>
      <trkpt lat="43.158800999999954" lon="-1.2391219999999996">
        <ele>195.477</ele>
        <time>2022-08-24T06:27:44Z</time>
      </trkpt>
      <trkpt lat="43.158788999999956" lon="-1.2391339999999995">
        <ele>195.676</ele>
        <time>2022-08-24T06:27:45Z</time>
      </trkpt>
      <trkpt lat="43.158777999999955" lon="-1.2391439999999996">
        <ele>195.847</ele>
        <time>2022-08-24T06:27:46Z</time>
      </trkpt>
      <trkpt lat="43.15875999999996" lon="-1.2391599999999996">
        <ele>196.029</ele>
        <time>2022-08-24T06:27:47Z</time>
      </trkpt>
      <trkpt lat="43.15874299999996" lon="-1.2391709999999996">
        <ele>196.421</ele>
        <time>2022-08-24T06:27:48Z</time>
      </trkpt>
      <trkpt lat="43.15872499999996" lon="-1.2391839999999996">
        <ele>196.609</ele>
        <time>2022-08-24T06:27:49Z</time>
      </trkpt>
      <trkpt lat="43.15871199999996" lon="-1.2391909999999997">
        <ele>197.045</ele>
        <time>2022-08-24T06:27:50Z</time>
      </trkpt>
      <trkpt lat="43.158695999999956" lon="-1.2392049999999997">
        <ele>197.025</ele>
        <time>2022-08-24T06:27:51Z</time>
      </trkpt>
      <trkpt lat="43.158679999999954" lon="-1.2392149999999997">
        <ele>197.475</ele>
        <time>2022-08-24T06:27:52Z</time>
      </trkpt>
      <trkpt lat="43.15865899999996" lon="-1.2392269999999996">
        <ele>197.431</ele>
        <time>2022-08-24T06:27:53Z</time>
      </trkpt>
      <trkpt lat="43.158642999999955" lon="-1.2392419999999997">
        <ele>197.853</ele>
        <time>2022-08-24T06:27:54Z</time>
      </trkpt>
      <trkpt lat="43.158628999999955" lon="-1.2392549999999998">
        <ele>198.240</ele>
        <time>2022-08-24T06:27:55Z</time>
      </trkpt>
      <trkpt lat="43.15861699999996" lon="-1.2392659999999998">
        <ele>198.433</ele>
        <time>2022-08-24T06:27:56Z</time>
      </trkpt>
      <trkpt lat="43.15860199999996" lon="-1.2392759999999998">
        <ele>198.867</ele>
        <time>2022-08-24T06:27:57Z</time>
      </trkpt>
      <trkpt lat="43.15858699999996" lon="-1.2392899999999998">
        <ele>198.836</ele>
        <time>2022-08-24T06:27:58Z</time>
      </trkpt>
      <trkpt lat="43.15857499999996" lon="-1.2393029999999998">
        <ele>199.232</ele>
        <time>2022-08-24T06:27:59Z</time>
      </trkpt>
      <trkpt lat="43.158562999999965" lon="-1.239318">
        <ele>199.492</ele>
        <time>2022-08-24T06:28:00Z</time>
      </trkpt>
      <trkpt lat="43.15855099999997" lon="-1.2393299999999998">
        <ele>199.811</ele>
        <time>2022-08-24T06:28:01Z</time>
      </trkpt>
      <trkpt lat="43.158537999999965" lon="-1.2393409999999998">
        <ele>200.209</ele>
        <time>2022-08-24T06:28:02Z</time>
      </trkpt>
      <trkpt lat="43.158520999999965" lon="-1.2393569999999998">
        <ele>200.484</ele>
        <time>2022-08-24T06:28:03Z</time>
      </trkpt>
      <trkpt lat="43.15850899999997" lon="-1.2393729999999998">
        <ele>200.624</ele>
        <time>2022-08-24T06:28:04Z</time>
      </trkpt>
      <trkpt lat="43.158492999999964" lon="-1.2393859999999999">
        <ele>200.844</ele>
        <time>2022-08-24T06:28:05Z</time>
      </trkpt>
      <trkpt lat="43.15847699999996" lon="-1.2393949999999998">
        <ele>201.250</ele>
        <time>2022-08-24T06:28:06Z</time>
      </trkpt>
      <trkpt lat="43.15846399999996" lon="-1.2393989999999997">
        <ele>201.272</ele>
        <time>2022-08-24T06:28:07Z</time>
      </trkpt>
      <trkpt lat="43.15844499999996" lon="-1.2394079999999996">
        <ele>201.619</ele>
        <time>2022-08-24T06:28:08Z</time>
      </trkpt>
      <trkpt lat="43.15843099999996" lon="-1.2394179999999997">
        <ele>202.092</ele>
        <time>2022-08-24T06:28:09Z</time>
      </trkpt>
      <trkpt lat="43.158414999999955" lon="-1.2394289999999997">
        <ele>202.236</ele>
        <time>2022-08-24T06:28:10Z</time>
      </trkpt>
      <trkpt lat="43.15839899999995" lon="-1.2394349999999996">
        <ele>202.455</ele>
        <time>2022-08-24T06:28:11Z</time>
      </trkpt>
      <trkpt lat="43.158380999999956" lon="-1.2394399999999997">
        <ele>202.629</ele>
        <time>2022-08-24T06:28:12Z</time>
      </trkpt>
      <trkpt lat="43.15836599999996" lon="-1.2394399999999997">
        <ele>203.000</ele>
        <time>2022-08-24T06:28:13Z</time>
      </trkpt>
      <trkpt lat="43.15835199999996" lon="-1.2394459999999996">
        <ele>203.220</ele>
        <time>2022-08-24T06:28:14Z</time>
      </trkpt>
      <trkpt lat="43.158335999999956" lon="-1.2394549999999995">
        <ele>203.609</ele>
        <time>2022-08-24T06:28:15Z</time>
      </trkpt>
      <trkpt lat="43.158316999999954" lon="-1.2394609999999995">
        <ele>203.833</ele>
        <time>2022-08-24T06:28:16Z</time>
      </trkpt>
      <trkpt lat="43.158301999999956" lon="-1.2394659999999995">
        <ele>204.493</ele>
        <time>2022-08-24T06:28:17Z</time>
      </trkpt>
      <trkpt lat="43.15828499999996" lon="-1.2394699999999994">
        <ele>204.673</ele>
        <time>2022-08-24T06:28:18Z</time>
      </trkpt>
      <trkpt lat="43.158273999999956" lon="-1.2394749999999994">
        <ele>204.889</ele>
        <time>2022-08-24T06:28:19Z</time>
      </trkpt>
      <trkpt lat="43.158256999999956" lon="-1.2394779999999994">
        <ele>205.281</ele>
        <time>2022-08-24T06:28:20Z</time>
      </trkpt>
      <trkpt lat="43.15823999999996" lon="-1.2394779999999994">
        <ele>205.488</ele>
        <time>2022-08-24T06:28:21Z</time>
      </trkpt>
      <trkpt lat="43.15822799999996" lon="-1.2394769999999995">
        <ele>205.811</ele>
        <time>2022-08-24T06:28:22Z</time>
      </trkpt>
      <trkpt lat="43.15821399999996" lon="-1.2394739999999995">
        <ele>206.045</ele>
        <time>2022-08-24T06:28:23Z</time>
      </trkpt>
      <trkpt lat="43.15819999999996" lon="-1.2394729999999996">
        <ele>206.294</ele>
        <time>2022-08-24T06:28:24Z</time>
      </trkpt>
      <trkpt lat="43.158186999999955" lon="-1.2394789999999996">
        <ele>206.668</ele>
        <time>2022-08-24T06:28:25Z</time>
      </trkpt>
      <trkpt lat="43.158178999999954" lon="-1.2394839999999996">
        <ele>206.842</ele>
        <time>2022-08-24T06:28:26Z</time>
      </trkpt>
      <trkpt lat="43.158167999999954" lon="-1.2394899999999995">
        <ele>207.226</ele>
        <time>2022-08-24T06:28:27Z</time>
      </trkpt>
      <trkpt lat="43.15815799999995" lon="-1.2394919999999996">
        <ele>207.409</ele>
        <time>2022-08-24T06:28:28Z</time>
      </trkpt>
      <trkpt lat="43.15814299999995" lon="-1.2394919999999996">
        <ele>207.837</ele>
        <time>2022-08-24T06:28:29Z</time>
      </trkpt>
      <trkpt lat="43.158130999999955" lon="-1.2394899999999995">
        <ele>207.857</ele>
        <time>2022-08-24T06:28:30Z</time>
      </trkpt>
      <trkpt lat="43.15811599999996" lon="-1.2394839999999996">
        <ele>208.277</ele>
        <time>2022-08-24T06:28:31Z</time>
      </trkpt>
      <trkpt lat="43.158104999999956" lon="-1.2394839999999996">
        <ele>208.453</ele>
        <time>2022-08-24T06:28:32Z</time>
      </trkpt>
      <trkpt lat="43.15808999999996" lon="-1.2394859999999996">
        <ele>208.695</ele>
        <time>2022-08-24T06:28:33Z</time>
      </trkpt>
      <trkpt lat="43.15807799999996" lon="-1.2394869999999996">
        <ele>209.082</ele>
        <time>2022-08-24T06:28:34Z</time>
      </trkpt>
      <trkpt lat="43.15806699999996" lon="-1.2394879999999995">
        <ele>209.285</ele>
        <time>2022-08-24T06:28:35Z</time>
      </trkpt>
      <trkpt lat="43.15805599999996" lon="-1.2394889999999994">
        <ele>209.629</ele>
        <time>2022-08-24T06:28:36Z</time>
      </trkpt>
      <trkpt lat="43.15804899999996" lon="-1.2394909999999995">
        <ele>209.858</ele>
        <time>2022-08-24T06:28:37Z</time>
      </trkpt>
      <trkpt lat="43.15803799999996" lon="-1.2394949999999993">
        <ele>210.276</ele>
        <time>2022-08-24T06:28:38Z</time>
      </trkpt>
      <trkpt lat="43.158025999999964" lon="-1.2394979999999993">
        <ele>210.490</ele>
        <time>2022-08-24T06:28:39Z</time>
      </trkpt>
      <trkpt lat="43.15801499999996" lon="-1.2394989999999992">
        <ele>210.819</ele>
        <time>2022-08-24T06:28:40Z</time>
      </trkpt>
      <trkpt lat="43.15800499999996" lon="-1.2394979999999993">
        <ele>211.009</ele>
        <time>2022-08-24T06:28:41Z</time>
      </trkpt>
      <trkpt lat="43.15799699999996" lon="-1.2394969999999994">
        <ele>211.048</ele>
        <time>2022-08-24T06:28:42Z</time>
      </trkpt>
      <trkpt lat="43.15798499999996" lon="-1.2394959999999995">
        <ele>211.498</ele>
        <time>2022-08-24T06:28:43Z</time>
      </trkpt>
      <trkpt lat="43.15797699999996" lon="-1.2394909999999995">
        <ele>211.698</ele>
        <time>2022-08-24T06:28:44Z</time>
      </trkpt>
      <trkpt lat="43.15796899999996" lon="-1.2394869999999996">
        <ele>212.044</ele>
        <time>2022-08-24T06:28:45Z</time>
      </trkpt>
      <trkpt lat="43.15796099999996" lon="-1.2394879999999995">
        <ele>212.276</ele>
        <time>2022-08-24T06:28:46Z</time>
      </trkpt>
      <trkpt lat="43.157950999999954" lon="-1.2394919999999994">
        <ele>212.263</ele>
        <time>2022-08-24T06:28:47Z</time>
      </trkpt>
      <trkpt lat="43.157944999999955" lon="-1.2394959999999993">
        <ele>212.886</ele>
        <time>2022-08-24T06:28:48Z</time>
      </trkpt>
      <trkpt lat="43.15792999999996" lon="-1.2395019999999992">
        <ele>213.060</ele>
        <time>2022-08-24T06:28:49Z</time>
      </trkpt>
      <trkpt lat="43.157919999999955" lon="-1.2395049999999992">
        <ele>213.049</ele>
        <time>2022-08-24T06:28:50Z</time>
      </trkpt>
      <trkpt lat="43.157908999999954" lon="-1.2395109999999991">
        <ele>213.495</ele>
        <time>2022-08-24T06:28:51Z</time>
      </trkpt>
      <trkpt lat="43.15789799999995" lon="-1.2395159999999992">
        <ele>213.649</ele>
        <time>2022-08-24T06:28:52Z</time>
      </trkpt>
      <trkpt lat="43.157882999999956" lon="-1.2395239999999992">
        <ele>213.623</ele>
        <time>2022-08-24T06:28:53Z</time>
      </trkpt>
      <trkpt lat="43.15786799999996" lon="-1.2395309999999993">
        <ele>214.209</ele>
        <time>2022-08-24T06:28:54Z</time>
      </trkpt>
      <trkpt lat="43.157854999999955" lon="-1.2395389999999993">
        <ele>214.620</ele>
        <time>2022-08-24T06:28:55Z</time>
      </trkpt>
      <trkpt lat="43.157843999999955" lon="-1.2395419999999993">
        <ele>214.620</ele>
        <time>2022-08-24T06:28:56Z</time>
      </trkpt>
      <trkpt lat="43.15782899999996" lon="-1.2395419999999993">
        <ele>214.830</ele>
        <time>2022-08-24T06:28:57Z</time>
      </trkpt>
      <trkpt lat="43.15781499999996" lon="-1.2395399999999992">
        <ele>214.876</ele>
        <time>2022-08-24T06:28:58Z</time>
      </trkpt>
      <trkpt lat="43.15780099999996" lon="-1.2395449999999992">
        <ele>215.488</ele>
        <time>2022-08-24T06:28:59Z</time>
      </trkpt>
      <trkpt lat="43.157786999999956" lon="-1.2395449999999992">
        <ele>215.495</ele>
        <time>2022-08-24T06:29:00Z</time>
      </trkpt>
      <trkpt lat="43.157775999999956" lon="-1.2395459999999991">
        <ele>215.648</ele>
        <time>2022-08-24T06:29:01Z</time>
      </trkpt>
      <trkpt lat="43.15776399999996" lon="-1.2395429999999992">
        <ele>216.242</ele>
        <time>2022-08-24T06:29:02Z</time>
      </trkpt>
      <trkpt lat="43.157750999999955" lon="-1.2395479999999992">
        <ele>216.251</ele>
        <time>2022-08-24T06:29:03Z</time>
      </trkpt>
      <trkpt lat="43.157736999999955" lon="-1.239551999999999">
        <ele>216.653</ele>
        <time>2022-08-24T06:29:04Z</time>
      </trkpt>
      <trkpt lat="43.15772499999996" lon="-1.239555999999999">
        <ele>216.804</ele>
        <time>2022-08-24T06:29:05Z</time>
      </trkpt>
      <trkpt lat="43.157710999999956" lon="-1.239558999999999">
        <ele>216.814</ele>
        <time>2022-08-24T06:29:06Z</time>
      </trkpt>
      <trkpt lat="43.157694999999954" lon="-1.239561999999999">
        <ele>217.209</ele>
        <time>2022-08-24T06:29:07Z</time>
      </trkpt>
      <trkpt lat="43.15768499999995" lon="-1.2395629999999989">
        <ele>217.426</ele>
        <time>2022-08-24T06:29:08Z</time>
      </trkpt>
      <trkpt lat="43.15766999999995" lon="-1.2395669999999988">
        <ele>217.426</ele>
        <time>2022-08-24T06:29:09Z</time>
      </trkpt>
      <trkpt lat="43.157651999999956" lon="-1.2395699999999987">
        <ele>218.066</ele>
        <time>2022-08-24T06:29:10Z</time>
      </trkpt>
      <trkpt lat="43.15763899999995" lon="-1.2395709999999986">
        <ele>218.252</ele>
        <time>2022-08-24T06:29:11Z</time>
      </trkpt>
      <trkpt lat="43.15762499999995" lon="-1.2395689999999986">
        <ele>218.294</ele>
        <time>2022-08-24T06:29:12Z</time>
      </trkpt>
      <trkpt lat="43.15761199999995" lon="-1.2395689999999986">
        <ele>218.681</ele>
        <time>2022-08-24T06:29:13Z</time>
      </trkpt>
      <trkpt lat="43.15760199999995" lon="-1.2395729999999985">
        <ele>218.824</ele>
        <time>2022-08-24T06:29:14Z</time>
      </trkpt>
      <trkpt lat="43.15759099999995" lon="-1.2395809999999985">
        <ele>219.458</ele>
        <time>2022-08-24T06:29:15Z</time>
      </trkpt>
      <trkpt lat="43.15757899999995" lon="-1.2395889999999985">
        <ele>219.657</ele>
        <time>2022-08-24T06:29:16Z</time>
      </trkpt>
      <trkpt lat="43.157565999999946" lon="-1.2395959999999986">
        <ele>220.072</ele>
        <time>2022-08-24T06:29:17Z</time>
      </trkpt>
      <trkpt lat="43.15755599999994" lon="-1.2396039999999986">
        <ele>220.413</ele>
        <time>2022-08-24T06:29:18Z</time>
      </trkpt>
      <trkpt lat="43.15754599999994" lon="-1.2396119999999986">
        <ele>220.414</ele>
        <time>2022-08-24T06:29:19Z</time>
      </trkpt>
      <trkpt lat="43.15753499999994" lon="-1.2396149999999986">
        <ele>220.609</ele>
        <time>2022-08-24T06:29:20Z</time>
      </trkpt>
      <trkpt lat="43.15752399999994" lon="-1.2396189999999985">
        <ele>220.898</ele>
        <time>2022-08-24T06:29:21Z</time>
      </trkpt>
      <trkpt lat="43.15751599999994" lon="-1.2396239999999985">
        <ele>221.258</ele>
        <time>2022-08-24T06:29:22Z</time>
      </trkpt>
      <trkpt lat="43.15750899999994" lon="-1.2396359999999984">
        <ele>221.438</ele>
        <time>2022-08-24T06:29:23Z</time>
      </trkpt>
      <trkpt lat="43.15750399999994" lon="-1.2396469999999984">
        <ele>221.874</ele>
        <time>2022-08-24T06:29:24Z</time>
      </trkpt>
      <trkpt lat="43.15749499999994" lon="-1.2396619999999985">
        <ele>222.076</ele>
        <time>2022-08-24T06:29:25Z</time>
      </trkpt>
      <trkpt lat="43.157487999999944" lon="-1.2396719999999986">
        <ele>222.013</ele>
        <time>2022-08-24T06:29:26Z</time>
      </trkpt>
      <trkpt lat="43.157481999999945" lon="-1.2396809999999985">
        <ele>222.236</ele>
        <time>2022-08-24T06:29:27Z</time>
      </trkpt>
      <trkpt lat="43.15747799999995" lon="-1.2396879999999986">
        <ele>222.270</ele>
        <time>2022-08-24T06:29:28Z</time>
      </trkpt>
      <trkpt lat="43.15747099999995" lon="-1.2396949999999987">
        <ele>222.619</ele>
        <time>2022-08-24T06:29:29Z</time>
      </trkpt>
      <trkpt lat="43.15746099999995" lon="-1.2397049999999987">
        <ele>222.853</ele>
        <time>2022-08-24T06:29:30Z</time>
      </trkpt>
      <trkpt lat="43.15745199999995" lon="-1.2397139999999987">
        <ele>223.004</ele>
        <time>2022-08-24T06:29:31Z</time>
      </trkpt>
      <trkpt lat="43.15744299999995" lon="-1.2397219999999987">
        <ele>223.214</ele>
        <time>2022-08-24T06:29:32Z</time>
      </trkpt>
      <trkpt lat="43.157435999999954" lon="-1.2397299999999987">
        <ele>223.209</ele>
        <time>2022-08-24T06:29:33Z</time>
      </trkpt>
      <trkpt lat="43.157424999999954" lon="-1.2397409999999986">
        <ele>223.466</ele>
        <time>2022-08-24T06:29:34Z</time>
      </trkpt>
      <trkpt lat="43.15742099999996" lon="-1.2397489999999987">
        <ele>223.436</ele>
        <time>2022-08-24T06:29:35Z</time>
      </trkpt>
      <trkpt lat="43.15741699999996" lon="-1.2397589999999987">
        <ele>223.856</ele>
        <time>2022-08-24T06:29:36Z</time>
      </trkpt>
      <trkpt lat="43.15741199999996" lon="-1.2397579999999988">
        <ele>224.042</ele>
        <time>2022-08-24T06:29:38Z</time>
      </trkpt>
      <trkpt lat="43.15740899999996" lon="-1.2397609999999988">
        <ele>224.224</ele>
        <time>2022-08-24T06:29:39Z</time>
      </trkpt>
      <trkpt lat="43.15740199999996" lon="-1.2397649999999987">
        <ele>224.431</ele>
        <time>2022-08-24T06:29:40Z</time>
      </trkpt>
      <trkpt lat="43.15739099999996" lon="-1.2397679999999986">
        <ele>224.414</ele>
        <time>2022-08-24T06:29:41Z</time>
      </trkpt>
      <trkpt lat="43.15738199999996" lon="-1.2397689999999986">
        <ele>224.628</ele>
        <time>2022-08-24T06:29:42Z</time>
      </trkpt>
      <trkpt lat="43.157369999999965" lon="-1.2397709999999986">
        <ele>224.637</ele>
        <time>2022-08-24T06:29:43Z</time>
      </trkpt>
      <trkpt lat="43.157358999999964" lon="-1.2397749999999985">
        <ele>224.663</ele>
        <time>2022-08-24T06:29:44Z</time>
      </trkpt>
      <trkpt lat="43.157344999999964" lon="-1.2397779999999985">
        <ele>224.844</ele>
        <time>2022-08-24T06:29:45Z</time>
      </trkpt>
      <trkpt lat="43.157327999999964" lon="-1.2397809999999985">
        <ele>224.818</ele>
        <time>2022-08-24T06:29:46Z</time>
      </trkpt>
      <trkpt lat="43.157315999999966" lon="-1.2397859999999985">
        <ele>225.009</ele>
        <time>2022-08-24T06:29:47Z</time>
      </trkpt>
      <trkpt lat="43.15730399999997" lon="-1.2397929999999986">
        <ele>225.067</ele>
        <time>2022-08-24T06:29:48Z</time>
      </trkpt>
      <trkpt lat="43.15729199999997" lon="-1.2397959999999986">
        <ele>225.247</ele>
        <time>2022-08-24T06:29:49Z</time>
      </trkpt>
      <trkpt lat="43.15727899999997" lon="-1.2397979999999986">
        <ele>225.437</ele>
        <time>2022-08-24T06:29:50Z</time>
      </trkpt>
      <trkpt lat="43.157265999999964" lon="-1.2397969999999987">
        <ele>225.623</ele>
        <time>2022-08-24T06:29:51Z</time>
      </trkpt>
      <trkpt lat="43.157256999999966" lon="-1.2397969999999987">
        <ele>225.825</ele>
        <time>2022-08-24T06:29:52Z</time>
      </trkpt>
      <trkpt lat="43.157248999999965" lon="-1.2397969999999987">
        <ele>225.852</ele>
        <time>2022-08-24T06:29:53Z</time>
      </trkpt>
      <trkpt lat="43.157237999999964" lon="-1.2397979999999986">
        <ele>225.855</ele>
        <time>2022-08-24T06:29:54Z</time>
      </trkpt>
      <trkpt lat="43.15722799999996" lon="-1.2398029999999987">
        <ele>226.029</ele>
        <time>2022-08-24T06:29:55Z</time>
      </trkpt>
      <trkpt lat="43.15721699999996" lon="-1.2398129999999987">
        <ele>226.098</ele>
        <time>2022-08-24T06:29:56Z</time>
      </trkpt>
      <trkpt lat="43.15720599999996" lon="-1.2398159999999987">
        <ele>226.294</ele>
        <time>2022-08-24T06:29:57Z</time>
      </trkpt>
      <trkpt lat="43.15719899999996" lon="-1.2398189999999987">
        <ele>226.257</ele>
        <time>2022-08-24T06:29:58Z</time>
      </trkpt>
      <trkpt lat="43.157186999999965" lon="-1.2398279999999986">
        <ele>226.222</ele>
        <time>2022-08-24T06:29:59Z</time>
      </trkpt>
      <trkpt lat="43.157178999999964" lon="-1.2398349999999987">
        <ele>226.409</ele>
        <time>2022-08-24T06:30:00Z</time>
      </trkpt>
      <trkpt lat="43.15717099999996" lon="-1.2398379999999987">
        <ele>226.670</ele>
        <time>2022-08-24T06:30:01Z</time>
      </trkpt>
      <trkpt lat="43.15715999999996" lon="-1.2398409999999986">
        <ele>226.670</ele>
        <time>2022-08-24T06:30:02Z</time>
      </trkpt>
      <trkpt lat="43.157147999999964" lon="-1.2398479999999987">
        <ele>226.670</ele>
        <time>2022-08-24T06:30:03Z</time>
      </trkpt>
      <trkpt lat="43.15713699999996" lon="-1.2398529999999988">
        <ele>226.816</ele>
        <time>2022-08-24T06:30:04Z</time>
      </trkpt>
      <trkpt lat="43.15712599999996" lon="-1.2398539999999987">
        <ele>226.858</ele>
        <time>2022-08-24T06:30:05Z</time>
      </trkpt>
      <trkpt lat="43.15711599999996" lon="-1.2398539999999987">
        <ele>226.845</ele>
        <time>2022-08-24T06:30:06Z</time>
      </trkpt>
      <trkpt lat="43.157105999999956" lon="-1.2398549999999986">
        <ele>226.848</ele>
        <time>2022-08-24T06:30:07Z</time>
      </trkpt>
      <trkpt lat="43.15709599999995" lon="-1.2398539999999987">
        <ele>226.852</ele>
        <time>2022-08-24T06:30:08Z</time>
      </trkpt>
      <trkpt lat="43.157086999999954" lon="-1.2398579999999986">
        <ele>226.831</ele>
        <time>2022-08-24T06:30:09Z</time>
      </trkpt>
      <trkpt lat="43.157077999999956" lon="-1.2398649999999987">
        <ele>226.811</ele>
        <time>2022-08-24T06:30:10Z</time>
      </trkpt>
      <trkpt lat="43.157069999999955" lon="-1.2398749999999987">
        <ele>226.821</ele>
        <time>2022-08-24T06:30:11Z</time>
      </trkpt>
      <trkpt lat="43.15705399999995" lon="-1.2398829999999987">
        <ele>226.803</ele>
        <time>2022-08-24T06:30:12Z</time>
      </trkpt>
      <trkpt lat="43.157041999999954" lon="-1.2398849999999988">
        <ele>226.809</ele>
        <time>2022-08-24T06:30:13Z</time>
      </trkpt>
      <trkpt lat="43.15702599999995" lon="-1.2398829999999987">
        <ele>226.872</ele>
        <time>2022-08-24T06:30:14Z</time>
      </trkpt>
      <trkpt lat="43.157013999999954" lon="-1.2398819999999988">
        <ele>227.022</ele>
        <time>2022-08-24T06:30:15Z</time>
      </trkpt>
      <trkpt lat="43.156993999999955" lon="-1.2398819999999988">
        <ele>227.092</ele>
        <time>2022-08-24T06:30:16Z</time>
      </trkpt>
      <trkpt lat="43.156962999999955" lon="-1.2398919999999989">
        <ele>227.028</ele>
        <time>2022-08-24T06:30:18Z</time>
      </trkpt>
      <trkpt lat="43.156951999999954" lon="-1.239896999999999">
        <ele>227.040</ele>
        <time>2022-08-24T06:30:19Z</time>
      </trkpt>
      <trkpt lat="43.156942999999956" lon="-1.239903999999999">
        <ele>227.047</ele>
        <time>2022-08-24T06:30:20Z</time>
      </trkpt>
      <trkpt lat="43.15691099999996" lon="-1.239917999999999">
        <ele>227.070</ele>
        <time>2022-08-24T06:30:23Z</time>
      </trkpt>
      <trkpt lat="43.15684799999996" lon="-1.2399379999999989">
        <ele>227.214</ele>
        <time>2022-08-24T06:30:27Z</time>
      </trkpt>
      <trkpt lat="43.15681499999996" lon="-1.239961999999999">
        <ele>227.273</ele>
        <time>2022-08-24T06:30:30Z</time>
      </trkpt>
      <trkpt lat="43.15673999999996" lon="-1.2399899999999988">
        <ele>227.498</ele>
        <time>2022-08-24T06:30:34Z</time>
      </trkpt>
      <trkpt lat="43.15672499999996" lon="-1.239996999999999">
        <ele>227.415</ele>
        <time>2022-08-24T06:30:35Z</time>
      </trkpt>
      <trkpt lat="43.15670699999996" lon="-1.240004999999999">
        <ele>227.626</ele>
        <time>2022-08-24T06:30:36Z</time>
      </trkpt>
      <trkpt lat="43.15657999999996" lon="-1.240050999999999">
        <ele>227.809</ele>
        <time>2022-08-24T06:30:42Z</time>
      </trkpt>
      <trkpt lat="43.156519999999965" lon="-1.240077999999999">
        <ele>228.080</ele>
        <time>2022-08-24T06:30:45Z</time>
      </trkpt>
      <trkpt lat="43.15650499999997" lon="-1.240087999999999">
        <ele>228.060</ele>
        <time>2022-08-24T06:30:46Z</time>
      </trkpt>
      <trkpt lat="43.156437999999966" lon="-1.240120999999999">
        <ele>228.470</ele>
        <time>2022-08-24T06:30:49Z</time>
      </trkpt>
      <trkpt lat="43.156418999999964" lon="-1.2401269999999989">
        <ele>228.676</ele>
        <time>2022-08-24T06:30:50Z</time>
      </trkpt>
      <trkpt lat="43.15639399999996" lon="-1.240136999999999">
        <ele>228.848</ele>
        <time>2022-08-24T06:30:51Z</time>
      </trkpt>
      <trkpt lat="43.15635199999996" lon="-1.240152999999999">
        <ele>228.835</ele>
        <time>2022-08-24T06:30:53Z</time>
      </trkpt>
      <trkpt lat="43.15621699999996" lon="-1.240257999999999">
        <ele>229.458</ele>
        <time>2022-08-24T06:31:00Z</time>
      </trkpt>
      <trkpt lat="43.15618399999996" lon="-1.240282999999999">
        <ele>229.642</ele>
        <time>2022-08-24T06:31:02Z</time>
      </trkpt>
      <trkpt lat="43.15611899999996" lon="-1.240330999999999">
        <ele>229.821</ele>
        <time>2022-08-24T06:31:05Z</time>
      </trkpt>
      <trkpt lat="43.15609699999996" lon="-1.240347999999999">
        <ele>229.885</ele>
        <time>2022-08-24T06:31:06Z</time>
      </trkpt>
      <trkpt lat="43.15607799999996" lon="-1.2403649999999988">
        <ele>230.089</ele>
        <time>2022-08-24T06:31:07Z</time>
      </trkpt>
      <trkpt lat="43.156058999999956" lon="-1.240379999999999">
        <ele>230.017</ele>
        <time>2022-08-24T06:31:08Z</time>
      </trkpt>
      <trkpt lat="43.15604099999996" lon="-1.240392999999999">
        <ele>230.009</ele>
        <time>2022-08-24T06:31:09Z</time>
      </trkpt>
      <trkpt lat="43.15602499999996" lon="-1.240405999999999">
        <ele>230.299</ele>
        <time>2022-08-24T06:31:10Z</time>
      </trkpt>
      <trkpt lat="43.156008999999955" lon="-1.240418999999999">
        <ele>230.219</ele>
        <time>2022-08-24T06:31:11Z</time>
      </trkpt>
      <trkpt lat="43.15591699999995" lon="-1.240503999999999">
        <ele>230.669</ele>
        <time>2022-08-24T06:31:16Z</time>
      </trkpt>
      <trkpt lat="43.15588399999995" lon="-1.240524999999999">
        <ele>230.865</ele>
        <time>2022-08-24T06:31:18Z</time>
      </trkpt>
      <trkpt lat="43.15586599999995" lon="-1.240540999999999">
        <ele>230.867</ele>
        <time>2022-08-24T06:31:19Z</time>
      </trkpt>
      <trkpt lat="43.15585299999995" lon="-1.240554999999999">
        <ele>231.054</ele>
        <time>2022-08-24T06:31:20Z</time>
      </trkpt>
      <trkpt lat="43.15582399999995" lon="-1.240586999999999">
        <ele>231.487</ele>
        <time>2022-08-24T06:31:22Z</time>
      </trkpt>
      <trkpt lat="43.155771999999956" lon="-1.240632999999999">
        <ele>231.861</ele>
        <time>2022-08-24T06:31:25Z</time>
      </trkpt>
      <trkpt lat="43.15567799999996" lon="-1.240719999999999">
        <ele>232.610</ele>
        <time>2022-08-24T06:31:30Z</time>
      </trkpt>
      <trkpt lat="43.15565899999996" lon="-1.2407369999999989">
        <ele>232.882</ele>
        <time>2022-08-24T06:31:31Z</time>
      </trkpt>
      <trkpt lat="43.155639999999956" lon="-1.2407569999999988">
        <ele>233.043</ele>
        <time>2022-08-24T06:31:32Z</time>
      </trkpt>
      <trkpt lat="43.155622999999956" lon="-1.2407749999999989">
        <ele>233.217</ele>
        <time>2022-08-24T06:31:33Z</time>
      </trkpt>
      <trkpt lat="43.15560499999996" lon="-1.240792999999999">
        <ele>233.609</ele>
        <time>2022-08-24T06:31:34Z</time>
      </trkpt>
      <trkpt lat="43.15558999999996" lon="-1.240810999999999">
        <ele>233.829</ele>
        <time>2022-08-24T06:31:35Z</time>
      </trkpt>
      <trkpt lat="43.155571999999964" lon="-1.240827999999999">
        <ele>234.089</ele>
        <time>2022-08-24T06:31:36Z</time>
      </trkpt>
      <trkpt lat="43.15555299999996" lon="-1.2408449999999989">
        <ele>234.079</ele>
        <time>2022-08-24T06:31:37Z</time>
      </trkpt>
      <trkpt lat="43.15554499999996" lon="-1.2408639999999989">
        <ele>234.465</ele>
        <time>2022-08-24T06:31:38Z</time>
      </trkpt>
      <trkpt lat="43.15554299999996" lon="-1.2408829999999988">
        <ele>234.677</ele>
        <time>2022-08-24T06:31:39Z</time>
      </trkpt>
      <trkpt lat="43.15553799999996" lon="-1.2408989999999989">
        <ele>234.824</ele>
        <time>2022-08-24T06:31:40Z</time>
      </trkpt>
      <trkpt lat="43.155524999999955" lon="-1.240908999999999">
        <ele>235.467</ele>
        <time>2022-08-24T06:31:41Z</time>
      </trkpt>
      <trkpt lat="43.15550999999996" lon="-1.2409129999999988">
        <ele>235.411</ele>
        <time>2022-08-24T06:31:42Z</time>
      </trkpt>
      <trkpt lat="43.15550099999996" lon="-1.2409139999999987">
        <ele>235.640</ele>
        <time>2022-08-24T06:31:43Z</time>
      </trkpt>
      <trkpt lat="43.15551199999996" lon="-1.2409599999999987">
        <ele>236.649</ele>
        <time>2022-08-24T06:31:58Z</time>
      </trkpt>
      <trkpt lat="43.15551199999996" lon="-1.2409699999999988">
        <ele>236.602</ele>
        <time>2022-08-24T06:31:59Z</time>
      </trkpt>
      <trkpt lat="43.15550799999996" lon="-1.2409809999999988">
        <ele>236.622</ele>
        <time>2022-08-24T06:32:00Z</time>
      </trkpt>
      <trkpt lat="43.15550499999996" lon="-1.2409889999999988">
        <ele>236.609</ele>
        <time>2022-08-24T06:32:01Z</time>
      </trkpt>
      <trkpt lat="43.155503999999965" lon="-1.2409919999999988">
        <ele>236.825</ele>
        <time>2022-08-24T06:32:02Z</time>
      </trkpt>
      <trkpt lat="43.15549899999996" lon="-1.2409919999999988">
        <ele>236.835</ele>
        <time>2022-08-24T06:32:03Z</time>
      </trkpt>
      <trkpt lat="43.155497999999966" lon="-1.2409929999999987">
        <ele>237.095</ele>
        <time>2022-08-24T06:32:04Z</time>
      </trkpt>
      <trkpt lat="43.155492999999964" lon="-1.2409949999999987">
        <ele>237.041</ele>
        <time>2022-08-24T06:32:05Z</time>
      </trkpt>
      <trkpt lat="43.155486999999965" lon="-1.2409949999999987">
        <ele>237.223</ele>
        <time>2022-08-24T06:32:06Z</time>
      </trkpt>
      <trkpt lat="43.155481999999964" lon="-1.2409889999999988">
        <ele>237.210</ele>
        <time>2022-08-24T06:32:07Z</time>
      </trkpt>
      <trkpt lat="43.15547699999996" lon="-1.2409869999999987">
        <ele>237.423</ele>
        <time>2022-08-24T06:32:08Z</time>
      </trkpt>
      <trkpt lat="43.15547099999996" lon="-1.2409839999999988">
        <ele>237.437</ele>
        <time>2022-08-24T06:32:09Z</time>
      </trkpt>
      <trkpt lat="43.155481999999964" lon="-1.2409949999999987">
        <ele>237.656</ele>
        <time>2022-08-24T06:35:33Z</time>
      </trkpt>
      <trkpt lat="43.15548499999996" lon="-1.2410049999999988">
        <ele>237.686</ele>
        <time>2022-08-24T06:35:34Z</time>
      </trkpt>
      <trkpt lat="43.15549199999996" lon="-1.2410129999999988">
        <ele>237.660</ele>
        <time>2022-08-24T06:35:35Z</time>
      </trkpt>
      <trkpt lat="43.15554899999996" lon="-1.2410189999999988">
        <ele>237.626</ele>
        <time>2022-08-24T06:35:39Z</time>
      </trkpt>
      <trkpt lat="43.15556499999996" lon="-1.2410209999999988">
        <ele>237.609</ele>
        <time>2022-08-24T06:35:40Z</time>
      </trkpt>
      <trkpt lat="43.15558599999996" lon="-1.241027999999999">
        <ele>237.659</ele>
        <time>2022-08-24T06:35:41Z</time>
      </trkpt>
      <trkpt lat="43.15568399999996" lon="-1.241037999999999">
        <ele>237.469</ele>
        <time>2022-08-24T06:35:45Z</time>
      </trkpt>
      <trkpt lat="43.155749999999955" lon="-1.241056999999999">
        <ele>237.229</ele>
        <time>2022-08-24T06:35:47Z</time>
      </trkpt>
      <trkpt lat="43.155878999999956" lon="-1.241085999999999">
        <ele>237.085</ele>
        <time>2022-08-24T06:35:50Z</time>
      </trkpt>
      <trkpt lat="43.155957999999956" lon="-1.241094999999999">
        <ele>236.457</ele>
        <time>2022-08-24T06:35:52Z</time>
      </trkpt>
      <trkpt lat="43.155997999999954" lon="-1.241100999999999">
        <ele>236.474</ele>
        <time>2022-08-24T06:35:53Z</time>
      </trkpt>
      <trkpt lat="43.15608399999996" lon="-1.2411129999999988">
        <ele>236.047</ele>
        <time>2022-08-24T06:35:55Z</time>
      </trkpt>
      <trkpt lat="43.156126999999955" lon="-1.2411189999999988">
        <ele>235.621</ele>
        <time>2022-08-24T06:35:56Z</time>
      </trkpt>
      <trkpt lat="43.156166999999954" lon="-1.2411279999999987">
        <ele>235.440</ele>
        <time>2022-08-24T06:35:57Z</time>
      </trkpt>
      <trkpt lat="43.15620399999995" lon="-1.2411409999999987">
        <ele>235.083</ele>
        <time>2022-08-24T06:35:58Z</time>
      </trkpt>
      <trkpt lat="43.15623299999995" lon="-1.2411599999999987">
        <ele>234.825</ele>
        <time>2022-08-24T06:35:59Z</time>
      </trkpt>
      <trkpt lat="43.15624499999995" lon="-1.2411749999999988">
        <ele>234.617</ele>
        <time>2022-08-24T06:36:00Z</time>
      </trkpt>
      <trkpt lat="43.15624699999995" lon="-1.2411879999999988">
        <ele>234.009</ele>
        <time>2022-08-24T06:36:01Z</time>
      </trkpt>
      <trkpt lat="43.15624399999995" lon="-1.2411909999999988">
        <ele>234.089</ele>
        <time>2022-08-24T06:36:02Z</time>
      </trkpt>
      <trkpt lat="43.156239999999954" lon="-1.2411929999999989">
        <ele>233.899</ele>
        <time>2022-08-24T06:36:03Z</time>
      </trkpt>
      <trkpt lat="43.15623499999995" lon="-1.2411939999999988">
        <ele>233.669</ele>
        <time>2022-08-24T06:36:04Z</time>
      </trkpt>
      <trkpt lat="43.15622699999995" lon="-1.2411929999999989">
        <ele>233.655</ele>
        <time>2022-08-24T06:36:05Z</time>
      </trkpt>
      <trkpt lat="43.15621899999995" lon="-1.241188999999999">
        <ele>233.467</ele>
        <time>2022-08-24T06:36:06Z</time>
      </trkpt>
      <trkpt lat="43.15621499999995" lon="-1.241180999999999">
        <ele>233.434</ele>
        <time>2022-08-24T06:36:07Z</time>
      </trkpt>
      <trkpt lat="43.156210999999956" lon="-1.241177999999999">
        <ele>233.457</ele>
        <time>2022-08-24T06:36:08Z</time>
      </trkpt>
      <trkpt lat="43.15620399999996" lon="-1.241172999999999">
        <ele>233.461</ele>
        <time>2022-08-24T06:36:09Z</time>
      </trkpt>
      <trkpt lat="43.15615399999996" lon="-1.241174999999999">
        <ele>233.280</ele>
        <time>2022-08-24T06:36:13Z</time>
      </trkpt>
      <trkpt lat="43.15613299999996" lon="-1.241166999999999">
        <ele>233.456</ele>
        <time>2022-08-24T06:36:14Z</time>
      </trkpt>
      <trkpt lat="43.156114999999964" lon="-1.241157999999999">
        <ele>233.459</ele>
        <time>2022-08-24T06:36:15Z</time>
      </trkpt>
      <trkpt lat="43.15594399999996" lon="-1.241130999999999">
        <ele>233.614</ele>
        <time>2022-08-24T06:36:20Z</time>
      </trkpt>
      <trkpt lat="43.155908999999966" lon="-1.2411249999999991">
        <ele>233.809</ele>
        <time>2022-08-24T06:36:21Z</time>
      </trkpt>
      <trkpt lat="43.155877999999966" lon="-1.2411189999999992">
        <ele>234.256</ele>
        <time>2022-08-24T06:36:22Z</time>
      </trkpt>
      <trkpt lat="43.155846999999966" lon="-1.2411169999999991">
        <ele>234.446</ele>
        <time>2022-08-24T06:36:23Z</time>
      </trkpt>
      <trkpt lat="43.155815999999966" lon="-1.241109999999999">
        <ele>234.856</ele>
        <time>2022-08-24T06:36:24Z</time>
      </trkpt>
      <trkpt lat="43.15578899999996" lon="-1.241103999999999">
        <ele>235.012</ele>
        <time>2022-08-24T06:36:25Z</time>
      </trkpt>
      <trkpt lat="43.155765999999964" lon="-1.241098999999999">
        <ele>235.274</ele>
        <time>2022-08-24T06:36:26Z</time>
      </trkpt>
      <trkpt lat="43.15574399999996" lon="-1.241093999999999">
        <ele>235.441</ele>
        <time>2022-08-24T06:36:27Z</time>
      </trkpt>
      <trkpt lat="43.155720999999964" lon="-1.241087999999999">
        <ele>235.864</ele>
        <time>2022-08-24T06:36:28Z</time>
      </trkpt>
      <trkpt lat="43.15569899999996" lon="-1.241085999999999">
        <ele>236.048</ele>
        <time>2022-08-24T06:36:29Z</time>
      </trkpt>
      <trkpt lat="43.155680999999966" lon="-1.241079999999999">
        <ele>236.287</ele>
        <time>2022-08-24T06:36:30Z</time>
      </trkpt>
      <trkpt lat="43.155661999999964" lon="-1.241077999999999">
        <ele>236.496</ele>
        <time>2022-08-24T06:36:31Z</time>
      </trkpt>
      <trkpt lat="43.155638999999965" lon="-1.241072999999999">
        <ele>236.431</ele>
        <time>2022-08-24T06:36:32Z</time>
      </trkpt>
      <trkpt lat="43.15561799999997" lon="-1.241063999999999">
        <ele>236.624</ele>
        <time>2022-08-24T06:36:33Z</time>
      </trkpt>
      <trkpt lat="43.155525999999966" lon="-1.2410389999999991">
        <ele>237.209</ele>
        <time>2022-08-24T06:36:37Z</time>
      </trkpt>
      <trkpt lat="43.15549999999997" lon="-1.241033999999999">
        <ele>237.480</ele>
        <time>2022-08-24T06:36:38Z</time>
      </trkpt>
      <trkpt lat="43.15547399999997" lon="-1.2410299999999992">
        <ele>237.630</ele>
        <time>2022-08-24T06:36:39Z</time>
      </trkpt>
      <trkpt lat="43.15544699999997" lon="-1.2410289999999993">
        <ele>237.650</ele>
        <time>2022-08-24T06:36:40Z</time>
      </trkpt>
      <trkpt lat="43.15542399999997" lon="-1.2410239999999992">
        <ele>237.876</ele>
        <time>2022-08-24T06:36:41Z</time>
      </trkpt>
      <trkpt lat="43.15539599999997" lon="-1.2410189999999992">
        <ele>237.898</ele>
        <time>2022-08-24T06:36:42Z</time>
      </trkpt>
      <trkpt lat="43.155376999999966" lon="-1.2410159999999992">
        <ele>237.895</ele>
        <time>2022-08-24T06:36:43Z</time>
      </trkpt>
      <trkpt lat="43.155351999999965" lon="-1.2410169999999991">
        <ele>237.848</ele>
        <time>2022-08-24T06:36:44Z</time>
      </trkpt>
      <trkpt lat="43.15532799999996" lon="-1.2410199999999991">
        <ele>238.062</ele>
        <time>2022-08-24T06:36:45Z</time>
      </trkpt>
      <trkpt lat="43.15530499999996" lon="-1.241025999999999">
        <ele>238.061</ele>
        <time>2022-08-24T06:36:46Z</time>
      </trkpt>
      <trkpt lat="43.155278999999965" lon="-1.241031999999999">
        <ele>238.258</ele>
        <time>2022-08-24T06:36:47Z</time>
      </trkpt>
      <trkpt lat="43.15526399999997" lon="-1.241037999999999">
        <ele>238.252</ele>
        <time>2022-08-24T06:36:48Z</time>
      </trkpt>
      <trkpt lat="43.155244999999965" lon="-1.241044999999999">
        <ele>238.217</ele>
        <time>2022-08-24T06:36:49Z</time>
      </trkpt>
      <trkpt lat="43.15521899999997" lon="-1.2410519999999992">
        <ele>238.609</ele>
        <time>2022-08-24T06:36:50Z</time>
      </trkpt>
      <trkpt lat="43.155202999999965" lon="-1.241055999999999">
        <ele>238.616</ele>
        <time>2022-08-24T06:36:51Z</time>
      </trkpt>
      <trkpt lat="43.15518799999997" lon="-1.241063999999999">
        <ele>238.816</ele>
        <time>2022-08-24T06:36:52Z</time>
      </trkpt>
      <trkpt lat="43.15517099999997" lon="-1.2410709999999991">
        <ele>238.826</ele>
        <time>2022-08-24T06:36:53Z</time>
      </trkpt>
      <trkpt lat="43.15515399999997" lon="-1.241076999999999">
        <ele>239.062</ele>
        <time>2022-08-24T06:36:54Z</time>
      </trkpt>
      <trkpt lat="43.15513599999997" lon="-1.2410839999999992">
        <ele>239.024</ele>
        <time>2022-08-24T06:36:55Z</time>
      </trkpt>
      <trkpt lat="43.15511899999997" lon="-1.2410919999999992">
        <ele>239.481</ele>
        <time>2022-08-24T06:36:56Z</time>
      </trkpt>
      <trkpt lat="43.15510499999997" lon="-1.2410999999999992">
        <ele>239.854</ele>
        <time>2022-08-24T06:36:57Z</time>
      </trkpt>
      <trkpt lat="43.15508999999997" lon="-1.2411049999999992">
        <ele>240.088</ele>
        <time>2022-08-24T06:36:58Z</time>
      </trkpt>
      <trkpt lat="43.15507399999997" lon="-1.2411099999999993">
        <ele>240.247</ele>
        <time>2022-08-24T06:36:59Z</time>
      </trkpt>
      <trkpt lat="43.15505899999997" lon="-1.2411179999999993">
        <ele>240.468</ele>
        <time>2022-08-24T06:37:00Z</time>
      </trkpt>
      <trkpt lat="43.15504499999997" lon="-1.2411279999999993">
        <ele>240.842</ele>
        <time>2022-08-24T06:37:01Z</time>
      </trkpt>
      <trkpt lat="43.15503099999997" lon="-1.2411379999999994">
        <ele>240.826</ele>
        <time>2022-08-24T06:37:02Z</time>
      </trkpt>
      <trkpt lat="43.15501199999997" lon="-1.2411459999999994">
        <ele>241.209</ele>
        <time>2022-08-24T06:37:03Z</time>
      </trkpt>
      <trkpt lat="43.15499599999997" lon="-1.2411589999999995">
        <ele>241.267</ele>
        <time>2022-08-24T06:37:04Z</time>
      </trkpt>
      <trkpt lat="43.15497899999997" lon="-1.2411639999999995">
        <ele>241.447</ele>
        <time>2022-08-24T06:37:05Z</time>
      </trkpt>
      <trkpt lat="43.154965999999966" lon="-1.2411709999999996">
        <ele>241.867</ele>
        <time>2022-08-24T06:37:06Z</time>
      </trkpt>
      <trkpt lat="43.15495099999997" lon="-1.2411799999999995">
        <ele>242.083</ele>
        <time>2022-08-24T06:37:07Z</time>
      </trkpt>
      <trkpt lat="43.15493399999997" lon="-1.2411879999999995">
        <ele>242.255</ele>
        <time>2022-08-24T06:37:08Z</time>
      </trkpt>
      <trkpt lat="43.15491499999997" lon="-1.2411949999999996">
        <ele>242.432</ele>
        <time>2022-08-24T06:37:09Z</time>
      </trkpt>
      <trkpt lat="43.15489399999997" lon="-1.2412009999999996">
        <ele>242.885</ele>
        <time>2022-08-24T06:37:10Z</time>
      </trkpt>
      <trkpt lat="43.15488299999997" lon="-1.2412069999999995">
        <ele>243.079</ele>
        <time>2022-08-24T06:37:11Z</time>
      </trkpt>
      <trkpt lat="43.15486699999997" lon="-1.2412109999999994">
        <ele>243.278</ele>
        <time>2022-08-24T06:37:12Z</time>
      </trkpt>
      <trkpt lat="43.15485199999997" lon="-1.2412139999999994">
        <ele>243.432</ele>
        <time>2022-08-24T06:37:13Z</time>
      </trkpt>
      <trkpt lat="43.15483599999997" lon="-1.2412189999999994">
        <ele>243.892</ele>
        <time>2022-08-24T06:37:14Z</time>
      </trkpt>
      <trkpt lat="43.154819999999965" lon="-1.2412229999999993">
        <ele>244.011</ele>
        <time>2022-08-24T06:37:15Z</time>
      </trkpt>
      <trkpt lat="43.154802999999966" lon="-1.2412279999999993">
        <ele>244.209</ele>
        <time>2022-08-24T06:37:16Z</time>
      </trkpt>
      <trkpt lat="43.154785999999966" lon="-1.2412329999999994">
        <ele>244.444</ele>
        <time>2022-08-24T06:37:17Z</time>
      </trkpt>
      <trkpt lat="43.15477099999997" lon="-1.2412389999999993">
        <ele>244.484</ele>
        <time>2022-08-24T06:37:18Z</time>
      </trkpt>
      <trkpt lat="43.15475299999997" lon="-1.2412449999999993">
        <ele>244.644</ele>
        <time>2022-08-24T06:37:19Z</time>
      </trkpt>
      <trkpt lat="43.15473699999997" lon="-1.2412549999999993">
        <ele>244.830</ele>
        <time>2022-08-24T06:37:20Z</time>
      </trkpt>
      <trkpt lat="43.15472099999997" lon="-1.2412619999999994">
        <ele>245.022</ele>
        <time>2022-08-24T06:37:21Z</time>
      </trkpt>
      <trkpt lat="43.154706999999966" lon="-1.2412709999999993">
        <ele>245.429</ele>
        <time>2022-08-24T06:37:22Z</time>
      </trkpt>
      <trkpt lat="43.15468899999997" lon="-1.2412829999999992">
        <ele>245.652</ele>
        <time>2022-08-24T06:37:23Z</time>
      </trkpt>
      <trkpt lat="43.15467299999997" lon="-1.2412939999999992">
        <ele>245.836</ele>
        <time>2022-08-24T06:37:24Z</time>
      </trkpt>
      <trkpt lat="43.15465599999997" lon="-1.2413049999999992">
        <ele>246.035</ele>
        <time>2022-08-24T06:37:25Z</time>
      </trkpt>
      <trkpt lat="43.15464199999997" lon="-1.2413119999999993">
        <ele>246.462</ele>
        <time>2022-08-24T06:37:26Z</time>
      </trkpt>
      <trkpt lat="43.154622999999965" lon="-1.2413219999999994">
        <ele>246.883</ele>
        <time>2022-08-24T06:37:27Z</time>
      </trkpt>
      <trkpt lat="43.154605999999966" lon="-1.2413319999999994">
        <ele>246.811</ele>
        <time>2022-08-24T06:37:28Z</time>
      </trkpt>
      <trkpt lat="43.154591999999965" lon="-1.2413389999999995">
        <ele>247.209</ele>
        <time>2022-08-24T06:37:29Z</time>
      </trkpt>
      <trkpt lat="43.15457999999997" lon="-1.2413469999999995">
        <ele>247.457</ele>
        <time>2022-08-24T06:37:30Z</time>
      </trkpt>
      <trkpt lat="43.154566999999965" lon="-1.2413519999999996">
        <ele>247.667</ele>
        <time>2022-08-24T06:37:31Z</time>
      </trkpt>
      <trkpt lat="43.154552999999964" lon="-1.2413559999999995">
        <ele>247.887</ele>
        <time>2022-08-24T06:37:32Z</time>
      </trkpt>
      <trkpt lat="43.154538999999964" lon="-1.2413599999999994">
        <ele>248.253</ele>
        <time>2022-08-24T06:37:33Z</time>
      </trkpt>
      <trkpt lat="43.154524999999964" lon="-1.2413679999999994">
        <ele>248.665</ele>
        <time>2022-08-24T06:37:34Z</time>
      </trkpt>
      <trkpt lat="43.154509999999966" lon="-1.2413779999999994">
        <ele>248.872</ele>
        <time>2022-08-24T06:37:35Z</time>
      </trkpt>
      <trkpt lat="43.15449299999997" lon="-1.2413849999999995">
        <ele>249.045</ele>
        <time>2022-08-24T06:37:36Z</time>
      </trkpt>
      <trkpt lat="43.15447899999997" lon="-1.2413939999999994">
        <ele>249.089</ele>
        <time>2022-08-24T06:37:37Z</time>
      </trkpt>
      <trkpt lat="43.154465999999964" lon="-1.2414009999999995">
        <ele>249.488</ele>
        <time>2022-08-24T06:37:38Z</time>
      </trkpt>
      <trkpt lat="43.154445999999965" lon="-1.2414059999999996">
        <ele>249.682</ele>
        <time>2022-08-24T06:37:39Z</time>
      </trkpt>
      <trkpt lat="43.15442699999996" lon="-1.2414119999999995">
        <ele>250.043</ele>
        <time>2022-08-24T06:37:40Z</time>
      </trkpt>
      <trkpt lat="43.154408999999966" lon="-1.2414239999999994">
        <ele>250.017</ele>
        <time>2022-08-24T06:37:41Z</time>
      </trkpt>
      <trkpt lat="43.154383999999965" lon="-1.2414349999999994">
        <ele>250.209</ele>
        <time>2022-08-24T06:37:42Z</time>
      </trkpt>
      <trkpt lat="43.15436599999997" lon="-1.2414439999999993">
        <ele>250.479</ele>
        <time>2022-08-24T06:37:43Z</time>
      </trkpt>
      <trkpt lat="43.15434899999997" lon="-1.2414499999999993">
        <ele>250.669</ele>
        <time>2022-08-24T06:37:44Z</time>
      </trkpt>
      <trkpt lat="43.15432799999997" lon="-1.2414609999999993">
        <ele>250.859</ele>
        <time>2022-08-24T06:37:45Z</time>
      </trkpt>
      <trkpt lat="43.154306999999974" lon="-1.2414699999999992">
        <ele>251.055</ele>
        <time>2022-08-24T06:37:46Z</time>
      </trkpt>
      <trkpt lat="43.15428599999998" lon="-1.2414799999999993">
        <ele>251.287</ele>
        <time>2022-08-24T06:37:47Z</time>
      </trkpt>
      <trkpt lat="43.154266999999976" lon="-1.2414929999999993">
        <ele>251.294</ele>
        <time>2022-08-24T06:37:48Z</time>
      </trkpt>
      <trkpt lat="43.15424899999998" lon="-1.2415029999999994">
        <ele>251.647</ele>
        <time>2022-08-24T06:37:49Z</time>
      </trkpt>
      <trkpt lat="43.15423299999998" lon="-1.2415099999999994">
        <ele>252.051</ele>
        <time>2022-08-24T06:37:50Z</time>
      </trkpt>
      <trkpt lat="43.15421499999998" lon="-1.2415189999999994">
        <ele>252.020</ele>
        <time>2022-08-24T06:37:51Z</time>
      </trkpt>
      <trkpt lat="43.15419699999998" lon="-1.2415289999999994">
        <ele>252.685</ele>
        <time>2022-08-24T06:37:52Z</time>
      </trkpt>
      <trkpt lat="43.15418099999998" lon="-1.2415339999999995">
        <ele>252.689</ele>
        <time>2022-08-24T06:37:53Z</time>
      </trkpt>
      <trkpt lat="43.15416299999998" lon="-1.2415409999999996">
        <ele>252.817</ele>
        <time>2022-08-24T06:37:54Z</time>
      </trkpt>
      <trkpt lat="43.154144999999986" lon="-1.2415469999999995">
        <ele>253.009</ele>
        <time>2022-08-24T06:37:55Z</time>
      </trkpt>
      <trkpt lat="43.15412699999999" lon="-1.2415509999999994">
        <ele>253.249</ele>
        <time>2022-08-24T06:37:56Z</time>
      </trkpt>
      <trkpt lat="43.154110999999986" lon="-1.2415619999999994">
        <ele>253.429</ele>
        <time>2022-08-24T06:37:57Z</time>
      </trkpt>
      <trkpt lat="43.15409599999999" lon="-1.2415759999999993">
        <ele>253.429</ele>
        <time>2022-08-24T06:37:58Z</time>
      </trkpt>
      <trkpt lat="43.15407699999999" lon="-1.2415839999999994">
        <ele>253.845</ele>
        <time>2022-08-24T06:37:59Z</time>
      </trkpt>
      <trkpt lat="43.15405899999999" lon="-1.2415939999999994">
        <ele>254.037</ele>
        <time>2022-08-24T06:38:00Z</time>
      </trkpt>
      <trkpt lat="43.15404299999999" lon="-1.2416009999999995">
        <ele>254.274</ele>
        <time>2022-08-24T06:38:01Z</time>
      </trkpt>
      <trkpt lat="43.154023999999986" lon="-1.2416099999999994">
        <ele>254.447</ele>
        <time>2022-08-24T06:38:02Z</time>
      </trkpt>
      <trkpt lat="43.154004999999984" lon="-1.2416209999999994">
        <ele>254.631</ele>
        <time>2022-08-24T06:38:03Z</time>
      </trkpt>
      <trkpt lat="43.15398699999999" lon="-1.2416299999999993">
        <ele>254.810</ele>
        <time>2022-08-24T06:38:04Z</time>
      </trkpt>
      <trkpt lat="43.15396999999999" lon="-1.2416389999999993">
        <ele>254.827</ele>
        <time>2022-08-24T06:38:05Z</time>
      </trkpt>
      <trkpt lat="43.15395199999999" lon="-1.2416449999999992">
        <ele>255.468</ele>
        <time>2022-08-24T06:38:06Z</time>
      </trkpt>
      <trkpt lat="43.15393499999999" lon="-1.2416499999999993">
        <ele>255.414</ele>
        <time>2022-08-24T06:38:07Z</time>
      </trkpt>
      <trkpt lat="43.15391899999999" lon="-1.2416569999999993">
        <ele>256.009</ele>
        <time>2022-08-24T06:38:08Z</time>
      </trkpt>
      <trkpt lat="43.153902999999985" lon="-1.2416619999999994">
        <ele>256.093</ele>
        <time>2022-08-24T06:38:09Z</time>
      </trkpt>
      <trkpt lat="43.15388999999998" lon="-1.2416669999999994">
        <ele>256.443</ele>
        <time>2022-08-24T06:38:10Z</time>
      </trkpt>
      <trkpt lat="43.15386999999998" lon="-1.2416749999999994">
        <ele>256.643</ele>
        <time>2022-08-24T06:38:11Z</time>
      </trkpt>
      <trkpt lat="43.153851999999986" lon="-1.2416809999999994">
        <ele>256.829</ele>
        <time>2022-08-24T06:38:12Z</time>
      </trkpt>
      <trkpt lat="43.15383499999999" lon="-1.2416869999999993">
        <ele>257.251</ele>
        <time>2022-08-24T06:38:13Z</time>
      </trkpt>
      <trkpt lat="43.15381699999999" lon="-1.2416909999999992">
        <ele>257.458</ele>
        <time>2022-08-24T06:38:14Z</time>
      </trkpt>
      <trkpt lat="43.15380199999999" lon="-1.2416939999999992">
        <ele>257.821</ele>
        <time>2022-08-24T06:38:15Z</time>
      </trkpt>
      <trkpt lat="43.15378499999999" lon="-1.2416999999999991">
        <ele>258.085</ele>
        <time>2022-08-24T06:38:16Z</time>
      </trkpt>
      <trkpt lat="43.15376799999999" lon="-1.241705999999999">
        <ele>258.224</ele>
        <time>2022-08-24T06:38:17Z</time>
      </trkpt>
      <trkpt lat="43.15374899999999" lon="-1.241709999999999">
        <ele>258.462</ele>
        <time>2022-08-24T06:38:18Z</time>
      </trkpt>
      <trkpt lat="43.153727999999994" lon="-1.241710999999999">
        <ele>258.683</ele>
        <time>2022-08-24T06:38:19Z</time>
      </trkpt>
      <trkpt lat="43.153707999999995" lon="-1.241710999999999">
        <ele>259.011</ele>
        <time>2022-08-24T06:38:20Z</time>
      </trkpt>
      <trkpt lat="43.153687999999995" lon="-1.2417119999999988">
        <ele>259.009</ele>
        <time>2022-08-24T06:38:21Z</time>
      </trkpt>
      <trkpt lat="43.15367" lon="-1.2417179999999988">
        <ele>259.427</ele>
        <time>2022-08-24T06:38:22Z</time>
      </trkpt>
      <trkpt lat="43.153652" lon="-1.2417219999999987">
        <ele>259.447</ele>
        <time>2022-08-24T06:38:23Z</time>
      </trkpt>
      <trkpt lat="43.153634000000004" lon="-1.2417209999999987">
        <ele>259.867</ele>
        <time>2022-08-24T06:38:24Z</time>
      </trkpt>
      <trkpt lat="43.153612" lon="-1.2417199999999988">
        <ele>259.813</ele>
        <time>2022-08-24T06:38:25Z</time>
      </trkpt>
      <trkpt lat="43.153595" lon="-1.2417219999999989">
        <ele>260.025</ele>
        <time>2022-08-24T06:38:26Z</time>
      </trkpt>
      <trkpt lat="43.153579" lon="-1.2417219999999989">
        <ele>260.092</ele>
        <time>2022-08-24T06:38:27Z</time>
      </trkpt>
      <trkpt lat="43.153563" lon="-1.241720999999999">
        <ele>260.225</ele>
        <time>2022-08-24T06:38:28Z</time>
      </trkpt>
      <trkpt lat="43.153549999999996" lon="-1.241718999999999">
        <ele>260.269</ele>
        <time>2022-08-24T06:38:29Z</time>
      </trkpt>
      <trkpt lat="43.153529" lon="-1.241715999999999">
        <ele>260.458</ele>
        <time>2022-08-24T06:38:30Z</time>
      </trkpt>
      <trkpt lat="43.153511" lon="-1.2417169999999988">
        <ele>260.667</ele>
        <time>2022-08-24T06:38:31Z</time>
      </trkpt>
      <trkpt lat="43.153497" lon="-1.2417289999999988">
        <ele>260.681</ele>
        <time>2022-08-24T06:38:32Z</time>
      </trkpt>
      <trkpt lat="43.153482000000004" lon="-1.2417359999999988">
        <ele>261.019</ele>
        <time>2022-08-24T06:38:33Z</time>
      </trkpt>
      <trkpt lat="43.15346" lon="-1.241745999999999">
        <ele>261.209</ele>
        <time>2022-08-24T06:38:34Z</time>
      </trkpt>
      <trkpt lat="43.15344" lon="-1.2417579999999988">
        <ele>261.277</ele>
        <time>2022-08-24T06:38:35Z</time>
      </trkpt>
      <trkpt lat="43.153420000000004" lon="-1.241764999999999">
        <ele>261.457</ele>
        <time>2022-08-24T06:38:36Z</time>
      </trkpt>
      <trkpt lat="43.153400000000005" lon="-1.241774999999999">
        <ele>261.427</ele>
        <time>2022-08-24T06:38:37Z</time>
      </trkpt>
      <trkpt lat="43.15338200000001" lon="-1.241782999999999">
        <ele>261.823</ele>
        <time>2022-08-24T06:38:38Z</time>
      </trkpt>
      <trkpt lat="43.153363000000006" lon="-1.241795999999999">
        <ele>261.835</ele>
        <time>2022-08-24T06:38:39Z</time>
      </trkpt>
      <trkpt lat="43.15334300000001" lon="-1.241808999999999">
        <ele>262.022</ele>
        <time>2022-08-24T06:38:40Z</time>
      </trkpt>
      <trkpt lat="43.15332200000001" lon="-1.241819999999999">
        <ele>262.235</ele>
        <time>2022-08-24T06:38:41Z</time>
      </trkpt>
      <trkpt lat="43.15329800000001" lon="-1.241832999999999">
        <ele>262.239</ele>
        <time>2022-08-24T06:38:42Z</time>
      </trkpt>
      <trkpt lat="43.153276000000005" lon="-1.2418429999999991">
        <ele>262.448</ele>
        <time>2022-08-24T06:38:43Z</time>
      </trkpt>
      <trkpt lat="43.153257" lon="-1.241848999999999">
        <ele>262.662</ele>
        <time>2022-08-24T06:38:44Z</time>
      </trkpt>
      <trkpt lat="43.153237000000004" lon="-1.241856999999999">
        <ele>262.883</ele>
        <time>2022-08-24T06:38:45Z</time>
      </trkpt>
      <trkpt lat="43.153218" lon="-1.2418619999999991">
        <ele>263.011</ele>
        <time>2022-08-24T06:38:46Z</time>
      </trkpt>
      <trkpt lat="43.153203000000005" lon="-1.2418669999999992">
        <ele>263.209</ele>
        <time>2022-08-24T06:38:47Z</time>
      </trkpt>
      <trkpt lat="43.153186000000005" lon="-1.2418689999999992">
        <ele>263.447</ele>
        <time>2022-08-24T06:38:48Z</time>
      </trkpt>
      <trkpt lat="43.15317" lon="-1.2418739999999993">
        <ele>263.427</ele>
        <time>2022-08-24T06:38:49Z</time>
      </trkpt>
      <trkpt lat="43.153149000000006" lon="-1.2418799999999992">
        <ele>263.837</ele>
        <time>2022-08-24T06:38:50Z</time>
      </trkpt>
      <trkpt lat="43.15312900000001" lon="-1.2418859999999992">
        <ele>263.843</ele>
        <time>2022-08-24T06:38:51Z</time>
      </trkpt>
      <trkpt lat="43.15311200000001" lon="-1.241891999999999">
        <ele>264.055</ele>
        <time>2022-08-24T06:38:52Z</time>
      </trkpt>
      <trkpt lat="43.15309400000001" lon="-1.2418989999999992">
        <ele>264.052</ele>
        <time>2022-08-24T06:38:53Z</time>
      </trkpt>
      <trkpt lat="43.15307700000001" lon="-1.2419059999999993">
        <ele>264.225</ele>
        <time>2022-08-24T06:38:54Z</time>
      </trkpt>
      <trkpt lat="43.15306000000001" lon="-1.2419139999999993">
        <ele>264.459</ele>
        <time>2022-08-24T06:38:55Z</time>
      </trkpt>
      <trkpt lat="43.15304200000001" lon="-1.2419249999999993">
        <ele>264.688</ele>
        <time>2022-08-24T06:38:56Z</time>
      </trkpt>
      <trkpt lat="43.153027000000016" lon="-1.2419319999999994">
        <ele>264.878</ele>
        <time>2022-08-24T06:38:57Z</time>
      </trkpt>
      <trkpt lat="43.153010000000016" lon="-1.2419389999999995">
        <ele>264.833</ele>
        <time>2022-08-24T06:38:58Z</time>
      </trkpt>
      <trkpt lat="43.152993000000016" lon="-1.2419429999999994">
        <ele>265.026</ele>
        <time>2022-08-24T06:38:59Z</time>
      </trkpt>
      <trkpt lat="43.15297300000002" lon="-1.2419459999999993">
        <ele>265.209</ele>
        <time>2022-08-24T06:39:00Z</time>
      </trkpt>
      <trkpt lat="43.152957000000015" lon="-1.2419519999999993">
        <ele>265.228</ele>
        <time>2022-08-24T06:39:01Z</time>
      </trkpt>
      <trkpt lat="43.15294200000002" lon="-1.2419579999999992">
        <ele>265.458</ele>
        <time>2022-08-24T06:39:02Z</time>
      </trkpt>
      <trkpt lat="43.15292700000002" lon="-1.2419669999999992">
        <ele>265.428</ele>
        <time>2022-08-24T06:39:03Z</time>
      </trkpt>
      <trkpt lat="43.15291400000002" lon="-1.241975999999999">
        <ele>265.444</ele>
        <time>2022-08-24T06:39:04Z</time>
      </trkpt>
      <trkpt lat="43.15288600000002" lon="-1.2419859999999991">
        <ele>265.466</ele>
        <time>2022-08-24T06:39:38Z</time>
      </trkpt>
      <trkpt lat="43.152864000000015" lon="-1.241989999999999">
        <ele>265.473</ele>
        <time>2022-08-24T06:39:39Z</time>
      </trkpt>
      <trkpt lat="43.15270500000002" lon="-1.242025999999999">
        <ele>265.286</ele>
        <time>2022-08-24T06:39:44Z</time>
      </trkpt>
      <trkpt lat="43.15245500000002" lon="-1.2420999999999989">
        <ele>264.480</ele>
        <time>2022-08-24T06:39:49Z</time>
      </trkpt>
      <trkpt lat="43.15225800000002" lon="-1.242166999999999">
        <ele>264.069</ele>
        <time>2022-08-24T06:39:52Z</time>
      </trkpt>
      <trkpt lat="43.152115000000016" lon="-1.242227999999999">
        <ele>263.437</ele>
        <time>2022-08-24T06:39:54Z</time>
      </trkpt>
      <trkpt lat="43.15204100000002" lon="-1.242261999999999">
        <ele>262.849</ele>
        <time>2022-08-24T06:39:55Z</time>
      </trkpt>
      <trkpt lat="43.15173300000002" lon="-1.2424229999999992">
        <ele>261.413</ele>
        <time>2022-08-24T06:39:59Z</time>
      </trkpt>
      <trkpt lat="43.15164900000002" lon="-1.2424689999999992">
        <ele>261.209</ele>
        <time>2022-08-24T06:40:00Z</time>
      </trkpt>
      <trkpt lat="43.15148100000002" lon="-1.2425649999999993">
        <ele>260.074</ele>
        <time>2022-08-24T06:40:02Z</time>
      </trkpt>
      <trkpt lat="43.15123000000002" lon="-1.2427019999999993">
        <ele>258.824</ele>
        <time>2022-08-24T06:40:05Z</time>
      </trkpt>
      <trkpt lat="43.15114000000002" lon="-1.2427359999999994">
        <ele>258.494</ele>
        <time>2022-08-24T06:40:06Z</time>
      </trkpt>
      <trkpt lat="43.15105000000002" lon="-1.2427579999999994">
        <ele>258.040</ele>
        <time>2022-08-24T06:40:07Z</time>
      </trkpt>
      <trkpt lat="43.15096100000002" lon="-1.2427769999999994">
        <ele>257.862</ele>
        <time>2022-08-24T06:40:08Z</time>
      </trkpt>
      <trkpt lat="43.150880000000015" lon="-1.2427929999999994">
        <ele>257.089</ele>
        <time>2022-08-24T06:40:09Z</time>
      </trkpt>
      <trkpt lat="43.150801000000016" lon="-1.2428069999999993">
        <ele>256.892</ele>
        <time>2022-08-24T06:40:10Z</time>
      </trkpt>
      <trkpt lat="43.15072600000001" lon="-1.2428229999999993">
        <ele>256.296</ele>
        <time>2022-08-24T06:40:11Z</time>
      </trkpt>
      <trkpt lat="43.150655000000015" lon="-1.2428319999999993">
        <ele>256.035</ele>
        <time>2022-08-24T06:40:12Z</time>
      </trkpt>
      <trkpt lat="43.150587000000016" lon="-1.2428409999999992">
        <ele>255.642</ele>
        <time>2022-08-24T06:40:13Z</time>
      </trkpt>
      <trkpt lat="43.15052100000002" lon="-1.2428419999999991">
        <ele>255.422</ele>
        <time>2022-08-24T06:40:14Z</time>
      </trkpt>
      <trkpt lat="43.15045600000002" lon="-1.2428409999999992">
        <ele>255.214</ele>
        <time>2022-08-24T06:40:15Z</time>
      </trkpt>
      <trkpt lat="43.15039300000002" lon="-1.2428309999999991">
        <ele>255.209</ele>
        <time>2022-08-24T06:40:16Z</time>
      </trkpt>
      <trkpt lat="43.15033200000002" lon="-1.242812999999999">
        <ele>255.025</ele>
        <time>2022-08-24T06:40:17Z</time>
      </trkpt>
      <trkpt lat="43.15027200000002" lon="-1.242789999999999">
        <ele>255.025</ele>
        <time>2022-08-24T06:40:18Z</time>
      </trkpt>
      <trkpt lat="43.15021300000002" lon="-1.242765999999999">
        <ele>255.035</ele>
        <time>2022-08-24T06:40:19Z</time>
      </trkpt>
      <trkpt lat="43.15015500000002" lon="-1.2427429999999988">
        <ele>255.231</ele>
        <time>2022-08-24T06:40:20Z</time>
      </trkpt>
      <trkpt lat="43.15009800000002" lon="-1.242722999999999">
        <ele>255.283</ele>
        <time>2022-08-24T06:40:21Z</time>
      </trkpt>
      <trkpt lat="43.15004300000002" lon="-1.242703999999999">
        <ele>255.420</ele>
        <time>2022-08-24T06:40:22Z</time>
      </trkpt>
      <trkpt lat="43.14998900000002" lon="-1.242684999999999">
        <ele>255.473</ele>
        <time>2022-08-24T06:40:23Z</time>
      </trkpt>
      <trkpt lat="43.14993900000002" lon="-1.242664999999999">
        <ele>255.497</ele>
        <time>2022-08-24T06:40:24Z</time>
      </trkpt>
      <trkpt lat="43.14989100000002" lon="-1.242641999999999">
        <ele>255.446</ele>
        <time>2022-08-24T06:40:25Z</time>
      </trkpt>
      <trkpt lat="43.14984500000002" lon="-1.242622999999999">
        <ele>255.425</ele>
        <time>2022-08-24T06:40:26Z</time>
      </trkpt>
      <trkpt lat="43.14980100000002" lon="-1.242602999999999">
        <ele>255.426</ele>
        <time>2022-08-24T06:40:27Z</time>
      </trkpt>
      <trkpt lat="43.149760000000015" lon="-1.242586999999999">
        <ele>255.408</ele>
        <time>2022-08-24T06:40:28Z</time>
      </trkpt>
      <trkpt lat="43.14972200000001" lon="-1.242575999999999">
        <ele>255.609</ele>
        <time>2022-08-24T06:40:29Z</time>
      </trkpt>
      <trkpt lat="43.14968500000001" lon="-1.242568999999999">
        <ele>255.683</ele>
        <time>2022-08-24T06:40:30Z</time>
      </trkpt>
      <trkpt lat="43.14965100000001" lon="-1.242562999999999">
        <ele>255.693</ele>
        <time>2022-08-24T06:40:31Z</time>
      </trkpt>
      <trkpt lat="43.14961800000001" lon="-1.242557999999999">
        <ele>255.633</ele>
        <time>2022-08-24T06:40:32Z</time>
      </trkpt>
      <trkpt lat="43.14958500000001" lon="-1.242552999999999">
        <ele>255.879</ele>
        <time>2022-08-24T06:40:33Z</time>
      </trkpt>
      <trkpt lat="43.14955300000001" lon="-1.242546999999999">
        <ele>255.861</ele>
        <time>2022-08-24T06:40:34Z</time>
      </trkpt>
      <trkpt lat="43.14948900000001" lon="-1.242535999999999">
        <ele>255.858</ele>
        <time>2022-08-24T06:40:36Z</time>
      </trkpt>
      <trkpt lat="43.14932100000001" lon="-1.242541999999999">
        <ele>256.481</ele>
        <time>2022-08-24T06:40:41Z</time>
      </trkpt>
      <trkpt lat="43.14925300000001" lon="-1.242548999999999">
        <ele>256.675</ele>
        <time>2022-08-24T06:40:43Z</time>
      </trkpt>
      <trkpt lat="43.14922100000001" lon="-1.242553999999999">
        <ele>256.684</ele>
        <time>2022-08-24T06:40:44Z</time>
      </trkpt>
      <trkpt lat="43.14919000000001" lon="-1.242555999999999">
        <ele>256.622</ele>
        <time>2022-08-24T06:40:45Z</time>
      </trkpt>
      <trkpt lat="43.14916200000001" lon="-1.242553999999999">
        <ele>256.662</ele>
        <time>2022-08-24T06:40:46Z</time>
      </trkpt>
      <trkpt lat="43.14913300000001" lon="-1.242555999999999">
        <ele>256.808</ele>
        <time>2022-08-24T06:40:47Z</time>
      </trkpt>
      <trkpt lat="43.149039000000016" lon="-1.2425499999999992">
        <ele>256.809</ele>
        <time>2022-08-24T06:40:50Z</time>
      </trkpt>
      <trkpt lat="43.14890900000002" lon="-1.2425199999999992">
        <ele>256.863</ele>
        <time>2022-08-24T06:40:54Z</time>
      </trkpt>
      <trkpt lat="43.14887500000002" lon="-1.2425189999999993">
        <ele>256.853</ele>
        <time>2022-08-24T06:40:55Z</time>
      </trkpt>
      <trkpt lat="43.14884100000002" lon="-1.2425159999999993">
        <ele>256.823</ele>
        <time>2022-08-24T06:40:56Z</time>
      </trkpt>
      <trkpt lat="43.148811000000016" lon="-1.2425079999999993">
        <ele>256.839</ele>
        <time>2022-08-24T06:40:57Z</time>
      </trkpt>
      <trkpt lat="43.14877900000002" lon="-1.2424999999999993">
        <ele>256.861</ele>
        <time>2022-08-24T06:40:58Z</time>
      </trkpt>
      <trkpt lat="43.14868500000002" lon="-1.2424859999999993">
        <ele>256.878</ele>
        <time>2022-08-24T06:41:01Z</time>
      </trkpt>
      <trkpt lat="43.14862400000002" lon="-1.2424709999999992">
        <ele>257.041</ele>
        <time>2022-08-24T06:41:03Z</time>
      </trkpt>
      <trkpt lat="43.14859100000002" lon="-1.2424649999999993">
        <ele>257.075</ele>
        <time>2022-08-24T06:41:04Z</time>
      </trkpt>
      <trkpt lat="43.14855900000002" lon="-1.2424599999999992">
        <ele>257.034</ele>
        <time>2022-08-24T06:41:05Z</time>
      </trkpt>
      <trkpt lat="43.14850000000002" lon="-1.2424579999999992">
        <ele>257.268</ele>
        <time>2022-08-24T06:41:07Z</time>
      </trkpt>
      <trkpt lat="43.14847200000002" lon="-1.2424569999999993">
        <ele>257.242</ele>
        <time>2022-08-24T06:41:08Z</time>
      </trkpt>
      <trkpt lat="43.14844500000002" lon="-1.2424539999999993">
        <ele>257.426</ele>
        <time>2022-08-24T06:41:09Z</time>
      </trkpt>
      <trkpt lat="43.148418000000014" lon="-1.2424519999999992">
        <ele>257.409</ele>
        <time>2022-08-24T06:41:10Z</time>
      </trkpt>
      <trkpt lat="43.148367000000015" lon="-1.2424519999999992">
        <ele>257.667</ele>
        <time>2022-08-24T06:41:12Z</time>
      </trkpt>
      <trkpt lat="43.14834000000001" lon="-1.2424519999999992">
        <ele>257.827</ele>
        <time>2022-08-24T06:41:13Z</time>
      </trkpt>
      <trkpt lat="43.148311000000014" lon="-1.2424549999999992">
        <ele>257.847</ele>
        <time>2022-08-24T06:41:14Z</time>
      </trkpt>
      <trkpt lat="43.148285000000016" lon="-1.2424559999999991">
        <ele>258.033</ele>
        <time>2022-08-24T06:41:15Z</time>
      </trkpt>
      <trkpt lat="43.148263000000014" lon="-1.242456999999999">
        <ele>258.235</ele>
        <time>2022-08-24T06:41:16Z</time>
      </trkpt>
      <trkpt lat="43.14824100000001" lon="-1.242454999999999">
        <ele>258.482</ele>
        <time>2022-08-24T06:41:17Z</time>
      </trkpt>
      <trkpt lat="43.148220000000016" lon="-1.242455999999999">
        <ele>258.665</ele>
        <time>2022-08-24T06:41:18Z</time>
      </trkpt>
      <trkpt lat="43.148201000000014" lon="-1.2424589999999989">
        <ele>258.689</ele>
        <time>2022-08-24T06:41:19Z</time>
      </trkpt>
      <trkpt lat="43.14818300000002" lon="-1.2424589999999989">
        <ele>259.068</ele>
        <time>2022-08-24T06:41:20Z</time>
      </trkpt>
      <trkpt lat="43.14816200000002" lon="-1.2424589999999989">
        <ele>259.084</ele>
        <time>2022-08-24T06:41:21Z</time>
      </trkpt>
      <trkpt lat="43.14814900000002" lon="-1.2424669999999989">
        <ele>259.407</ele>
        <time>2022-08-24T06:41:22Z</time>
      </trkpt>
      <trkpt lat="43.148136000000015" lon="-1.2424759999999988">
        <ele>259.617</ele>
        <time>2022-08-24T06:41:23Z</time>
      </trkpt>
      <trkpt lat="43.14812100000002" lon="-1.2424819999999988">
        <ele>259.609</ele>
        <time>2022-08-24T06:41:24Z</time>
      </trkpt>
      <trkpt lat="43.14810700000002" lon="-1.2424859999999986">
        <ele>260.099</ele>
        <time>2022-08-24T06:41:25Z</time>
      </trkpt>
      <trkpt lat="43.14809300000002" lon="-1.2424909999999987">
        <ele>260.229</ele>
        <time>2022-08-24T06:41:26Z</time>
      </trkpt>
      <trkpt lat="43.14807900000002" lon="-1.2424989999999987">
        <ele>260.449</ele>
        <time>2022-08-24T06:41:27Z</time>
      </trkpt>
      <trkpt lat="43.14806500000002" lon="-1.2425049999999986">
        <ele>260.695</ele>
        <time>2022-08-24T06:41:28Z</time>
      </trkpt>
      <trkpt lat="43.14804800000002" lon="-1.2425109999999986">
        <ele>261.037</ele>
        <time>2022-08-24T06:41:29Z</time>
      </trkpt>
      <trkpt lat="43.14803000000002" lon="-1.2425179999999987">
        <ele>261.244</ele>
        <time>2022-08-24T06:41:30Z</time>
      </trkpt>
      <trkpt lat="43.14801500000002" lon="-1.2425249999999988">
        <ele>261.647</ele>
        <time>2022-08-24T06:41:31Z</time>
      </trkpt>
      <trkpt lat="43.14799600000002" lon="-1.2425309999999987">
        <ele>261.851</ele>
        <time>2022-08-24T06:41:32Z</time>
      </trkpt>
      <trkpt lat="43.14797800000002" lon="-1.2425359999999988">
        <ele>262.020</ele>
        <time>2022-08-24T06:41:33Z</time>
      </trkpt>
      <trkpt lat="43.14795900000002" lon="-1.2425409999999988">
        <ele>262.487</ele>
        <time>2022-08-24T06:41:34Z</time>
      </trkpt>
      <trkpt lat="43.14794200000002" lon="-1.2425439999999988">
        <ele>262.642</ele>
        <time>2022-08-24T06:41:35Z</time>
      </trkpt>
      <trkpt lat="43.14792300000002" lon="-1.2425459999999988">
        <ele>262.826</ele>
        <time>2022-08-24T06:41:36Z</time>
      </trkpt>
      <trkpt lat="43.14790500000002" lon="-1.2425479999999989">
        <ele>263.009</ele>
        <time>2022-08-24T06:41:37Z</time>
      </trkpt>
      <trkpt lat="43.147887000000026" lon="-1.242552999999999">
        <ele>263.279</ele>
        <time>2022-08-24T06:41:38Z</time>
      </trkpt>
      <trkpt lat="43.14786900000003" lon="-1.242554999999999">
        <ele>263.439</ele>
        <time>2022-08-24T06:41:39Z</time>
      </trkpt>
      <trkpt lat="43.14785000000003" lon="-1.242554999999999">
        <ele>263.439</ele>
        <time>2022-08-24T06:41:40Z</time>
      </trkpt>
      <trkpt lat="43.14783300000003" lon="-1.242560999999999">
        <ele>263.655</ele>
        <time>2022-08-24T06:41:41Z</time>
      </trkpt>
      <trkpt lat="43.147811000000026" lon="-1.242562999999999">
        <ele>263.897</ele>
        <time>2022-08-24T06:41:42Z</time>
      </trkpt>
      <trkpt lat="43.14779300000003" lon="-1.242565999999999">
        <ele>264.064</ele>
        <time>2022-08-24T06:41:43Z</time>
      </trkpt>
      <trkpt lat="43.14777500000003" lon="-1.242567999999999">
        <ele>264.257</ele>
        <time>2022-08-24T06:41:44Z</time>
      </trkpt>
      <trkpt lat="43.14775800000003" lon="-1.242568999999999">
        <ele>264.421</ele>
        <time>2022-08-24T06:41:45Z</time>
      </trkpt>
      <trkpt lat="43.14774200000003" lon="-1.2425669999999989">
        <ele>264.630</ele>
        <time>2022-08-24T06:41:46Z</time>
      </trkpt>
      <trkpt lat="43.14772500000003" lon="-1.2425699999999988">
        <ele>264.884</ele>
        <time>2022-08-24T06:41:47Z</time>
      </trkpt>
      <trkpt lat="43.14770500000003" lon="-1.242571999999999">
        <ele>265.207</ele>
        <time>2022-08-24T06:41:48Z</time>
      </trkpt>
      <trkpt lat="43.147684000000034" lon="-1.2425729999999988">
        <ele>265.217</ele>
        <time>2022-08-24T06:41:49Z</time>
      </trkpt>
      <trkpt lat="43.14767000000003" lon="-1.2425739999999987">
        <ele>265.409</ele>
        <time>2022-08-24T06:41:50Z</time>
      </trkpt>
      <trkpt lat="43.14765100000003" lon="-1.2425729999999988">
        <ele>265.649</ele>
        <time>2022-08-24T06:41:51Z</time>
      </trkpt>
      <trkpt lat="43.147633000000035" lon="-1.2425729999999988">
        <ele>265.829</ele>
        <time>2022-08-24T06:41:52Z</time>
      </trkpt>
      <trkpt lat="43.14761500000004" lon="-1.2425709999999988">
        <ele>266.289</ele>
        <time>2022-08-24T06:41:53Z</time>
      </trkpt>
      <trkpt lat="43.14759800000004" lon="-1.2425679999999988">
        <ele>266.465</ele>
        <time>2022-08-24T06:41:54Z</time>
      </trkpt>
      <trkpt lat="43.14758000000004" lon="-1.2425679999999988">
        <ele>266.657</ele>
        <time>2022-08-24T06:41:55Z</time>
      </trkpt>
      <trkpt lat="43.14756300000004" lon="-1.242563999999999">
        <ele>266.644</ele>
        <time>2022-08-24T06:41:56Z</time>
      </trkpt>
      <trkpt lat="43.14754000000004" lon="-1.2425619999999988">
        <ele>266.867</ele>
        <time>2022-08-24T06:41:57Z</time>
      </trkpt>
      <trkpt lat="43.147522000000045" lon="-1.242557999999999">
        <ele>266.871</ele>
        <time>2022-08-24T06:41:58Z</time>
      </trkpt>
      <trkpt lat="43.14750400000005" lon="-1.242556999999999">
        <ele>267.080</ele>
        <time>2022-08-24T06:41:59Z</time>
      </trkpt>
      <trkpt lat="43.14748600000005" lon="-1.242555999999999">
        <ele>267.064</ele>
        <time>2022-08-24T06:42:00Z</time>
      </trkpt>
      <trkpt lat="43.14747000000005" lon="-1.242555999999999">
        <ele>267.206</ele>
        <time>2022-08-24T06:42:01Z</time>
      </trkpt>
      <trkpt lat="43.147454000000046" lon="-1.242550999999999">
        <ele>267.416</ele>
        <time>2022-08-24T06:42:02Z</time>
      </trkpt>
      <trkpt lat="43.147437000000046" lon="-1.242547999999999">
        <ele>267.609</ele>
        <time>2022-08-24T06:42:03Z</time>
      </trkpt>
      <trkpt lat="43.147418000000044" lon="-1.2425469999999992">
        <ele>268.067</ele>
        <time>2022-08-24T06:42:04Z</time>
      </trkpt>
      <trkpt lat="43.14740000000005" lon="-1.2425449999999991">
        <ele>268.047</ele>
        <time>2022-08-24T06:42:05Z</time>
      </trkpt>
      <trkpt lat="43.147381000000046" lon="-1.2425439999999992">
        <ele>268.457</ele>
        <time>2022-08-24T06:42:06Z</time>
      </trkpt>
      <trkpt lat="43.147364000000046" lon="-1.2425399999999993">
        <ele>268.473</ele>
        <time>2022-08-24T06:42:07Z</time>
      </trkpt>
      <trkpt lat="43.14734900000005" lon="-1.2425369999999993">
        <ele>268.845</ele>
        <time>2022-08-24T06:42:08Z</time>
      </trkpt>
      <trkpt lat="43.147330000000046" lon="-1.2425329999999994">
        <ele>269.052</ele>
        <time>2022-08-24T06:42:09Z</time>
      </trkpt>
      <trkpt lat="43.147311000000045" lon="-1.2425229999999994">
        <ele>269.075</ele>
        <time>2022-08-24T06:42:10Z</time>
      </trkpt>
      <trkpt lat="43.147294000000045" lon="-1.2425159999999993">
        <ele>269.249</ele>
        <time>2022-08-24T06:42:11Z</time>
      </trkpt>
      <trkpt lat="43.14727800000004" lon="-1.2425139999999992">
        <ele>269.258</ele>
        <time>2022-08-24T06:42:12Z</time>
      </trkpt>
      <trkpt lat="43.14726200000004" lon="-1.2425109999999993">
        <ele>269.484</ele>
        <time>2022-08-24T06:42:13Z</time>
      </trkpt>
      <trkpt lat="43.14724600000004" lon="-1.2425089999999992">
        <ele>269.607</ele>
        <time>2022-08-24T06:42:14Z</time>
      </trkpt>
      <trkpt lat="43.14722800000004" lon="-1.2425009999999992">
        <ele>269.817</ele>
        <time>2022-08-24T06:42:15Z</time>
      </trkpt>
      <trkpt lat="43.14721300000004" lon="-1.2424949999999992">
        <ele>270.009</ele>
        <time>2022-08-24T06:42:16Z</time>
      </trkpt>
      <trkpt lat="43.14719900000004" lon="-1.2424879999999991">
        <ele>270.299</ele>
        <time>2022-08-24T06:42:17Z</time>
      </trkpt>
      <trkpt lat="43.14718200000004" lon="-1.242485999999999">
        <ele>270.479</ele>
        <time>2022-08-24T06:42:18Z</time>
      </trkpt>
      <trkpt lat="43.147167000000046" lon="-1.2424829999999991">
        <ele>270.459</ele>
        <time>2022-08-24T06:42:19Z</time>
      </trkpt>
      <trkpt lat="43.147150000000046" lon="-1.242474999999999">
        <ele>270.635</ele>
        <time>2022-08-24T06:42:20Z</time>
      </trkpt>
      <trkpt lat="43.14713500000005" lon="-1.2424689999999992">
        <ele>270.827</ele>
        <time>2022-08-24T06:42:21Z</time>
      </trkpt>
      <trkpt lat="43.14712000000005" lon="-1.2424599999999992">
        <ele>271.264</ele>
        <time>2022-08-24T06:42:22Z</time>
      </trkpt>
      <trkpt lat="43.14710400000005" lon="-1.2424519999999992">
        <ele>271.257</ele>
        <time>2022-08-24T06:42:23Z</time>
      </trkpt>
      <trkpt lat="43.14708900000005" lon="-1.2424439999999992">
        <ele>271.691</ele>
        <time>2022-08-24T06:42:24Z</time>
      </trkpt>
      <trkpt lat="43.14707300000005" lon="-1.2424369999999991">
        <ele>271.870</ele>
        <time>2022-08-24T06:42:25Z</time>
      </trkpt>
      <trkpt lat="43.14705600000005" lon="-1.242429999999999">
        <ele>272.074</ele>
        <time>2022-08-24T06:42:26Z</time>
      </trkpt>
      <trkpt lat="43.14704000000005" lon="-1.242423999999999">
        <ele>272.456</ele>
        <time>2022-08-24T06:42:27Z</time>
      </trkpt>
      <trkpt lat="43.147024000000044" lon="-1.2424179999999991">
        <ele>272.421</ele>
        <time>2022-08-24T06:42:28Z</time>
      </trkpt>
      <trkpt lat="43.14700800000004" lon="-1.242412999999999">
        <ele>272.609</ele>
        <time>2022-08-24T06:42:29Z</time>
      </trkpt>
      <trkpt lat="43.14699200000004" lon="-1.2424069999999992">
        <ele>272.858</ele>
        <time>2022-08-24T06:42:30Z</time>
      </trkpt>
      <trkpt lat="43.14697500000004" lon="-1.2423989999999991">
        <ele>273.048</ele>
        <time>2022-08-24T06:42:31Z</time>
      </trkpt>
      <trkpt lat="43.14696100000004" lon="-1.2423869999999992">
        <ele>273.488</ele>
        <time>2022-08-24T06:42:32Z</time>
      </trkpt>
      <trkpt lat="43.14694500000004" lon="-1.2423739999999992">
        <ele>273.464</ele>
        <time>2022-08-24T06:42:33Z</time>
      </trkpt>
      <trkpt lat="43.146929000000036" lon="-1.2423659999999992">
        <ele>273.686</ele>
        <time>2022-08-24T06:42:34Z</time>
      </trkpt>
      <trkpt lat="43.14691400000004" lon="-1.2423609999999992">
        <ele>274.053</ele>
        <time>2022-08-24T06:42:35Z</time>
      </trkpt>
      <trkpt lat="43.14690000000004" lon="-1.2423529999999992">
        <ele>274.226</ele>
        <time>2022-08-24T06:42:36Z</time>
      </trkpt>
      <trkpt lat="43.14688300000004" lon="-1.2423419999999992">
        <ele>274.240</ele>
        <time>2022-08-24T06:42:37Z</time>
      </trkpt>
      <trkpt lat="43.14686900000004" lon="-1.242331999999999">
        <ele>274.489</ele>
        <time>2022-08-24T06:42:38Z</time>
      </trkpt>
      <trkpt lat="43.14685500000004" lon="-1.242324999999999">
        <ele>274.631</ele>
        <time>2022-08-24T06:42:39Z</time>
      </trkpt>
      <trkpt lat="43.14684000000004" lon="-1.242316999999999">
        <ele>274.661</ele>
        <time>2022-08-24T06:42:40Z</time>
      </trkpt>
      <trkpt lat="43.14682500000004" lon="-1.242310999999999">
        <ele>274.807</ele>
        <time>2022-08-24T06:42:41Z</time>
      </trkpt>
      <trkpt lat="43.146810000000045" lon="-1.2422989999999992">
        <ele>274.809</ele>
        <time>2022-08-24T06:42:42Z</time>
      </trkpt>
      <trkpt lat="43.146796000000045" lon="-1.242288999999999">
        <ele>275.244</ele>
        <time>2022-08-24T06:42:43Z</time>
      </trkpt>
      <trkpt lat="43.146782000000044" lon="-1.2422829999999991">
        <ele>275.264</ele>
        <time>2022-08-24T06:42:44Z</time>
      </trkpt>
      <trkpt lat="43.146770000000046" lon="-1.2422739999999992">
        <ele>275.424</ele>
        <time>2022-08-24T06:42:45Z</time>
      </trkpt>
      <trkpt lat="43.14675700000004" lon="-1.2422669999999991">
        <ele>275.680</ele>
        <time>2022-08-24T06:42:46Z</time>
      </trkpt>
      <trkpt lat="43.14674300000004" lon="-1.242253999999999">
        <ele>275.652</ele>
        <time>2022-08-24T06:42:47Z</time>
      </trkpt>
      <trkpt lat="43.14672900000004" lon="-1.242242999999999">
        <ele>275.829</ele>
        <time>2022-08-24T06:42:48Z</time>
      </trkpt>
      <trkpt lat="43.14671500000004" lon="-1.2422339999999992">
        <ele>275.882</ele>
        <time>2022-08-24T06:42:49Z</time>
      </trkpt>
      <trkpt lat="43.146703000000045" lon="-1.242223999999999">
        <ele>276.046</ele>
        <time>2022-08-24T06:42:50Z</time>
      </trkpt>
      <trkpt lat="43.14668700000004" lon="-1.242210999999999">
        <ele>276.055</ele>
        <time>2022-08-24T06:42:51Z</time>
      </trkpt>
      <trkpt lat="43.146672000000045" lon="-1.2421989999999992">
        <ele>276.273</ele>
        <time>2022-08-24T06:42:52Z</time>
      </trkpt>
      <trkpt lat="43.14665600000004" lon="-1.2421859999999991">
        <ele>276.285</ele>
        <time>2022-08-24T06:42:53Z</time>
      </trkpt>
      <trkpt lat="43.14664000000004" lon="-1.2421769999999992">
        <ele>276.413</ele>
        <time>2022-08-24T06:42:54Z</time>
      </trkpt>
      <trkpt lat="43.14662100000004" lon="-1.2421709999999992">
        <ele>276.609</ele>
        <time>2022-08-24T06:42:55Z</time>
      </trkpt>
      <trkpt lat="43.14660000000004" lon="-1.2421659999999992">
        <ele>276.898</ele>
        <time>2022-08-24T06:42:56Z</time>
      </trkpt>
      <trkpt lat="43.14657800000004" lon="-1.2421589999999991">
        <ele>277.028</ele>
        <time>2022-08-24T06:42:57Z</time>
      </trkpt>
      <trkpt lat="43.14655900000004" lon="-1.2421499999999992">
        <ele>277.278</ele>
        <time>2022-08-24T06:42:58Z</time>
      </trkpt>
      <trkpt lat="43.14654100000004" lon="-1.242134999999999">
        <ele>277.464</ele>
        <time>2022-08-24T06:42:59Z</time>
      </trkpt>
      <trkpt lat="43.14652400000004" lon="-1.242115999999999">
        <ele>277.686</ele>
        <time>2022-08-24T06:43:00Z</time>
      </trkpt>
      <trkpt lat="43.146506000000045" lon="-1.2421039999999992">
        <ele>278.043</ele>
        <time>2022-08-24T06:43:01Z</time>
      </trkpt>
      <trkpt lat="43.14648800000005" lon="-1.2420989999999992">
        <ele>278.236</ele>
        <time>2022-08-24T06:43:02Z</time>
      </trkpt>
      <trkpt lat="43.14647000000005" lon="-1.2420849999999992">
        <ele>278.270</ele>
        <time>2022-08-24T06:43:03Z</time>
      </trkpt>
      <trkpt lat="43.14645200000005" lon="-1.2420619999999991">
        <ele>278.679</ele>
        <time>2022-08-24T06:43:04Z</time>
      </trkpt>
      <trkpt lat="43.146434000000056" lon="-1.242040999999999">
        <ele>278.676</ele>
        <time>2022-08-24T06:43:05Z</time>
      </trkpt>
      <trkpt lat="43.14641900000006" lon="-1.242018999999999">
        <ele>278.890</ele>
        <time>2022-08-24T06:43:06Z</time>
      </trkpt>
      <trkpt lat="43.146403000000056" lon="-1.241997999999999">
        <ele>278.819</ele>
        <time>2022-08-24T06:43:07Z</time>
      </trkpt>
      <trkpt lat="43.14638800000006" lon="-1.241976999999999">
        <ele>279.009</ele>
        <time>2022-08-24T06:43:08Z</time>
      </trkpt>
      <trkpt lat="43.14637000000006" lon="-1.241956999999999">
        <ele>279.238</ele>
        <time>2022-08-24T06:43:09Z</time>
      </trkpt>
      <trkpt lat="43.14635400000006" lon="-1.241938999999999">
        <ele>279.458</ele>
        <time>2022-08-24T06:43:10Z</time>
      </trkpt>
      <trkpt lat="43.14634000000006" lon="-1.241920999999999">
        <ele>279.618</ele>
        <time>2022-08-24T06:43:11Z</time>
      </trkpt>
      <trkpt lat="43.14632600000006" lon="-1.2419029999999989">
        <ele>279.664</ele>
        <time>2022-08-24T06:43:12Z</time>
      </trkpt>
      <trkpt lat="43.146313000000056" lon="-1.241882999999999">
        <ele>279.896</ele>
        <time>2022-08-24T06:43:13Z</time>
      </trkpt>
      <trkpt lat="43.14630000000005" lon="-1.241863999999999">
        <ele>279.843</ele>
        <time>2022-08-24T06:43:14Z</time>
      </trkpt>
      <trkpt lat="43.14628400000005" lon="-1.241847999999999">
        <ele>280.076</ele>
        <time>2022-08-24T06:43:15Z</time>
      </trkpt>
      <trkpt lat="43.14627000000005" lon="-1.2418299999999989">
        <ele>280.220</ele>
        <time>2022-08-24T06:43:16Z</time>
      </trkpt>
      <trkpt lat="43.14625500000005" lon="-1.241812999999999">
        <ele>280.439</ele>
        <time>2022-08-24T06:43:17Z</time>
      </trkpt>
      <trkpt lat="43.146240000000056" lon="-1.2417979999999988">
        <ele>280.437</ele>
        <time>2022-08-24T06:43:18Z</time>
      </trkpt>
      <trkpt lat="43.14622700000005" lon="-1.2417799999999988">
        <ele>280.649</ele>
        <time>2022-08-24T06:43:19Z</time>
      </trkpt>
      <trkpt lat="43.14621400000005" lon="-1.2417599999999989">
        <ele>280.613</ele>
        <time>2022-08-24T06:43:20Z</time>
      </trkpt>
      <trkpt lat="43.14620100000005" lon="-1.2417419999999988">
        <ele>280.809</ele>
        <time>2022-08-24T06:43:21Z</time>
      </trkpt>
      <trkpt lat="43.14618600000005" lon="-1.2417259999999988">
        <ele>281.034</ele>
        <time>2022-08-24T06:43:22Z</time>
      </trkpt>
      <trkpt lat="43.14617200000005" lon="-1.2417099999999988">
        <ele>281.064</ele>
        <time>2022-08-24T06:43:23Z</time>
      </trkpt>
      <trkpt lat="43.14615700000005" lon="-1.2416929999999988">
        <ele>281.254</ele>
        <time>2022-08-24T06:43:24Z</time>
      </trkpt>
      <trkpt lat="43.14614300000005" lon="-1.2416749999999988">
        <ele>281.280</ele>
        <time>2022-08-24T06:43:25Z</time>
      </trkpt>
      <trkpt lat="43.14612700000005" lon="-1.2416569999999987">
        <ele>281.492</ele>
        <time>2022-08-24T06:43:26Z</time>
      </trkpt>
      <trkpt lat="43.14611200000005" lon="-1.2416399999999987">
        <ele>281.479</ele>
        <time>2022-08-24T06:43:27Z</time>
      </trkpt>
      <trkpt lat="43.146097000000054" lon="-1.2416199999999988">
        <ele>281.432</ele>
        <time>2022-08-24T06:43:28Z</time>
      </trkpt>
      <trkpt lat="43.14608400000005" lon="-1.2416009999999988">
        <ele>281.676</ele>
        <time>2022-08-24T06:43:29Z</time>
      </trkpt>
      <trkpt lat="43.14606700000005" lon="-1.241580999999999">
        <ele>281.675</ele>
        <time>2022-08-24T06:43:30Z</time>
      </trkpt>
      <trkpt lat="43.146049000000055" lon="-1.241558999999999">
        <ele>281.651</ele>
        <time>2022-08-24T06:43:31Z</time>
      </trkpt>
      <trkpt lat="43.146032000000055" lon="-1.241534999999999">
        <ele>281.601</ele>
        <time>2022-08-24T06:43:32Z</time>
      </trkpt>
      <trkpt lat="43.146015000000055" lon="-1.2415119999999988">
        <ele>281.811</ele>
        <time>2022-08-24T06:43:33Z</time>
      </trkpt>
      <trkpt lat="43.145998000000056" lon="-1.241486999999999">
        <ele>281.809</ele>
        <time>2022-08-24T06:43:34Z</time>
      </trkpt>
      <trkpt lat="43.145979000000054" lon="-1.2414659999999988">
        <ele>281.866</ele>
        <time>2022-08-24T06:43:35Z</time>
      </trkpt>
      <trkpt lat="43.145962000000054" lon="-1.2414479999999988">
        <ele>281.696</ele>
        <time>2022-08-24T06:43:36Z</time>
      </trkpt>
      <trkpt lat="43.145948000000054" lon="-1.2414289999999988">
        <ele>281.896</ele>
        <time>2022-08-24T06:43:37Z</time>
      </trkpt>
      <trkpt lat="43.145934000000054" lon="-1.2414099999999988">
        <ele>282.052</ele>
        <time>2022-08-24T06:43:38Z</time>
      </trkpt>
      <trkpt lat="43.145917000000054" lon="-1.2413939999999988">
        <ele>282.064</ele>
        <time>2022-08-24T06:43:39Z</time>
      </trkpt>
      <trkpt lat="43.14590100000005" lon="-1.2413749999999988">
        <ele>282.251</ele>
        <time>2022-08-24T06:43:40Z</time>
      </trkpt>
      <trkpt lat="43.145886000000054" lon="-1.2413539999999987">
        <ele>283.084</ele>
        <time>2022-08-24T06:43:41Z</time>
      </trkpt>
      <trkpt lat="43.14587300000005" lon="-1.2413349999999987">
        <ele>283.448</ele>
        <time>2022-08-24T06:43:42Z</time>
      </trkpt>
      <trkpt lat="43.145844000000054" lon="-1.2412979999999987">
        <ele>283.887</ele>
        <time>2022-08-24T06:43:44Z</time>
      </trkpt>
      <trkpt lat="43.145827000000054" lon="-1.2412779999999988">
        <ele>283.872</ele>
        <time>2022-08-24T06:43:45Z</time>
      </trkpt>
      <trkpt lat="43.145812000000056" lon="-1.2412619999999988">
        <ele>283.813</ele>
        <time>2022-08-24T06:43:46Z</time>
      </trkpt>
      <trkpt lat="43.14579700000006" lon="-1.2412459999999987">
        <ele>283.814</ele>
        <time>2022-08-24T06:43:47Z</time>
      </trkpt>
      <trkpt lat="43.14578300000006" lon="-1.2412319999999988">
        <ele>284.009</ele>
        <time>2022-08-24T06:43:48Z</time>
      </trkpt>
      <trkpt lat="43.14576900000006" lon="-1.2412189999999987">
        <ele>284.078</ele>
        <time>2022-08-24T06:43:49Z</time>
      </trkpt>
      <trkpt lat="43.14575400000006" lon="-1.2412009999999987">
        <ele>284.028</ele>
        <time>2022-08-24T06:43:50Z</time>
      </trkpt>
      <trkpt lat="43.14573900000006" lon="-1.2411809999999988">
        <ele>284.058</ele>
        <time>2022-08-24T06:43:51Z</time>
      </trkpt>
      <trkpt lat="43.14572200000006" lon="-1.2411619999999988">
        <ele>284.064</ele>
        <time>2022-08-24T06:43:52Z</time>
      </trkpt>
      <trkpt lat="43.14570600000006" lon="-1.2411409999999987">
        <ele>284.066</ele>
        <time>2022-08-24T06:43:53Z</time>
      </trkpt>
      <trkpt lat="43.14569000000006" lon="-1.2411219999999987">
        <ele>284.213</ele>
        <time>2022-08-24T06:43:54Z</time>
      </trkpt>
      <trkpt lat="43.14567400000006" lon="-1.2411019999999988">
        <ele>284.226</ele>
        <time>2022-08-24T06:43:55Z</time>
      </trkpt>
      <trkpt lat="43.145658000000054" lon="-1.2410839999999987">
        <ele>284.220</ele>
        <time>2022-08-24T06:43:56Z</time>
      </trkpt>
      <trkpt lat="43.145644000000054" lon="-1.2410679999999987">
        <ele>284.419</ele>
        <time>2022-08-24T06:43:57Z</time>
      </trkpt>
      <trkpt lat="43.14562800000005" lon="-1.2410499999999987">
        <ele>284.454</ele>
        <time>2022-08-24T06:43:58Z</time>
      </trkpt>
      <trkpt lat="43.14561400000005" lon="-1.2410289999999986">
        <ele>284.656</ele>
        <time>2022-08-24T06:43:59Z</time>
      </trkpt>
      <trkpt lat="43.14560100000005" lon="-1.2410109999999985">
        <ele>284.611</ele>
        <time>2022-08-24T06:44:00Z</time>
      </trkpt>
      <trkpt lat="43.14558600000005" lon="-1.2409979999999985">
        <ele>284.609</ele>
        <time>2022-08-24T06:44:01Z</time>
      </trkpt>
      <trkpt lat="43.14557200000005" lon="-1.2409839999999985">
        <ele>284.856</ele>
        <time>2022-08-24T06:44:02Z</time>
      </trkpt>
      <trkpt lat="43.14555700000005" lon="-1.2409679999999985">
        <ele>284.876</ele>
        <time>2022-08-24T06:44:03Z</time>
      </trkpt>
      <trkpt lat="43.145520000000054" lon="-1.2409399999999986">
        <ele>285.026</ele>
        <time>2022-08-24T06:44:05Z</time>
      </trkpt>
      <trkpt lat="43.14550400000005" lon="-1.2409219999999985">
        <ele>285.052</ele>
        <time>2022-08-24T06:44:06Z</time>
      </trkpt>
      <trkpt lat="43.14548800000005" lon="-1.2409049999999986">
        <ele>285.054</ele>
        <time>2022-08-24T06:44:07Z</time>
      </trkpt>
      <trkpt lat="43.14544000000005" lon="-1.2408609999999987">
        <ele>285.261</ele>
        <time>2022-08-24T06:44:10Z</time>
      </trkpt>
      <trkpt lat="43.14542400000005" lon="-1.2408409999999988">
        <ele>285.454</ele>
        <time>2022-08-24T06:44:11Z</time>
      </trkpt>
      <trkpt lat="43.14538900000005" lon="-1.2408049999999988">
        <ele>285.488</ele>
        <time>2022-08-24T06:44:13Z</time>
      </trkpt>
      <trkpt lat="43.14537300000005" lon="-1.2407909999999989">
        <ele>285.667</ele>
        <time>2022-08-24T06:44:14Z</time>
      </trkpt>
      <trkpt lat="43.14532800000005" lon="-1.2407479999999989">
        <ele>285.897</ele>
        <time>2022-08-24T06:44:17Z</time>
      </trkpt>
      <trkpt lat="43.14527600000005" lon="-1.240703999999999">
        <ele>286.023</ele>
        <time>2022-08-24T06:44:20Z</time>
      </trkpt>
      <trkpt lat="43.14525900000005" lon="-1.2406889999999988">
        <ele>286.025</ele>
        <time>2022-08-24T06:44:21Z</time>
      </trkpt>
      <trkpt lat="43.14522500000005" lon="-1.240657999999999">
        <ele>286.209</ele>
        <time>2022-08-24T06:44:23Z</time>
      </trkpt>
      <trkpt lat="43.145207000000056" lon="-1.240641999999999">
        <ele>286.290</ele>
        <time>2022-08-24T06:44:24Z</time>
      </trkpt>
      <trkpt lat="43.145174000000054" lon="-1.2406179999999989">
        <ele>286.430</ele>
        <time>2022-08-24T06:44:26Z</time>
      </trkpt>
      <trkpt lat="43.145157000000054" lon="-1.240603999999999">
        <ele>286.620</ele>
        <time>2022-08-24T06:44:27Z</time>
      </trkpt>
      <trkpt lat="43.14514200000006" lon="-1.2405889999999988">
        <ele>286.676</ele>
        <time>2022-08-24T06:44:28Z</time>
      </trkpt>
      <trkpt lat="43.145123000000055" lon="-1.2405739999999987">
        <ele>286.688</ele>
        <time>2022-08-24T06:44:29Z</time>
      </trkpt>
      <trkpt lat="43.145089000000056" lon="-1.2405479999999987">
        <ele>286.885</ele>
        <time>2022-08-24T06:44:31Z</time>
      </trkpt>
      <trkpt lat="43.14499000000006" lon="-1.2404719999999987">
        <ele>287.238</ele>
        <time>2022-08-24T06:44:37Z</time>
      </trkpt>
      <trkpt lat="43.144974000000055" lon="-1.2404579999999987">
        <ele>287.442</ele>
        <time>2022-08-24T06:44:38Z</time>
      </trkpt>
      <trkpt lat="43.144870000000054" lon="-1.2403879999999987">
        <ele>287.821</ele>
        <time>2022-08-24T06:44:44Z</time>
      </trkpt>
      <trkpt lat="43.14485100000005" lon="-1.2403789999999988">
        <ele>288.088</ele>
        <time>2022-08-24T06:44:45Z</time>
      </trkpt>
      <trkpt lat="43.14483200000005" lon="-1.2403679999999988">
        <ele>288.024</ele>
        <time>2022-08-24T06:44:46Z</time>
      </trkpt>
      <trkpt lat="43.14479800000005" lon="-1.2403489999999988">
        <ele>288.226</ele>
        <time>2022-08-24T06:44:48Z</time>
      </trkpt>
      <trkpt lat="43.14478100000005" lon="-1.2403409999999988">
        <ele>288.409</ele>
        <time>2022-08-24T06:44:49Z</time>
      </trkpt>
      <trkpt lat="43.14474500000005" lon="-1.2403249999999988">
        <ele>288.439</ele>
        <time>2022-08-24T06:44:51Z</time>
      </trkpt>
      <trkpt lat="43.14467700000005" lon="-1.240285999999999">
        <ele>289.289</ele>
        <time>2022-08-24T06:44:55Z</time>
      </trkpt>
      <trkpt lat="43.14466000000005" lon="-1.2402759999999988">
        <ele>289.269</ele>
        <time>2022-08-24T06:44:56Z</time>
      </trkpt>
      <trkpt lat="43.14464400000005" lon="-1.2402689999999987">
        <ele>289.635</ele>
        <time>2022-08-24T06:44:57Z</time>
      </trkpt>
      <trkpt lat="43.14462800000005" lon="-1.2402609999999987">
        <ele>289.637</ele>
        <time>2022-08-24T06:44:58Z</time>
      </trkpt>
      <trkpt lat="43.14461300000005" lon="-1.2402579999999988">
        <ele>289.844</ele>
        <time>2022-08-24T06:44:59Z</time>
      </trkpt>
      <trkpt lat="43.14460000000005" lon="-1.2402529999999987">
        <ele>290.077</ele>
        <time>2022-08-24T06:45:00Z</time>
      </trkpt>
      <trkpt lat="43.14458600000005" lon="-1.2402439999999988">
        <ele>290.261</ele>
        <time>2022-08-24T06:45:01Z</time>
      </trkpt>
      <trkpt lat="43.14457100000005" lon="-1.2402349999999989">
        <ele>290.290</ele>
        <time>2022-08-24T06:45:02Z</time>
      </trkpt>
      <trkpt lat="43.14455400000005" lon="-1.240225999999999">
        <ele>290.423</ele>
        <time>2022-08-24T06:45:03Z</time>
      </trkpt>
      <trkpt lat="43.14452200000005" lon="-1.2402109999999988">
        <ele>290.683</ele>
        <time>2022-08-24T06:45:04Z</time>
      </trkpt>
      <trkpt lat="43.14452200000005" lon="-1.2402109999999988">
        <ele>290.611</ele>
        <time>2022-08-24T06:45:05Z</time>
      </trkpt>
      <trkpt lat="43.14448800000005" lon="-1.2401949999999988">
        <ele>291.009</ele>
        <time>2022-08-24T06:45:06Z</time>
      </trkpt>
      <trkpt lat="43.14448800000005" lon="-1.2401949999999988">
        <ele>291.063</ele>
        <time>2022-08-24T06:45:07Z</time>
      </trkpt>
      <trkpt lat="43.144453000000055" lon="-1.2401789999999988">
        <ele>291.483</ele>
        <time>2022-08-24T06:45:08Z</time>
      </trkpt>
      <trkpt lat="43.144434000000054" lon="-1.2401769999999988">
        <ele>291.473</ele>
        <time>2022-08-24T06:45:09Z</time>
      </trkpt>
      <trkpt lat="43.144434000000054" lon="-1.2401769999999988">
        <ele>291.689</ele>
        <time>2022-08-24T06:45:10Z</time>
      </trkpt>
      <trkpt lat="43.144397000000055" lon="-1.2401659999999988">
        <ele>291.691</ele>
        <time>2022-08-24T06:45:11Z</time>
      </trkpt>
      <trkpt lat="43.144397000000055" lon="-1.2401659999999988">
        <ele>291.838</ele>
        <time>2022-08-24T06:45:12Z</time>
      </trkpt>
      <trkpt lat="43.144360000000056" lon="-1.2401579999999988">
        <ele>292.061</ele>
        <time>2022-08-24T06:45:13Z</time>
      </trkpt>
      <trkpt lat="43.14433900000006" lon="-1.2401529999999987">
        <ele>292.025</ele>
        <time>2022-08-24T06:45:14Z</time>
      </trkpt>
      <trkpt lat="43.14432000000006" lon="-1.2401479999999987">
        <ele>292.274</ele>
        <time>2022-08-24T06:45:15Z</time>
      </trkpt>
      <trkpt lat="43.144298000000056" lon="-1.2401479999999987">
        <ele>292.218</ele>
        <time>2022-08-24T06:45:16Z</time>
      </trkpt>
      <trkpt lat="43.14427800000006" lon="-1.2401479999999987">
        <ele>292.498</ele>
        <time>2022-08-24T06:45:17Z</time>
      </trkpt>
      <trkpt lat="43.14426000000006" lon="-1.2401469999999988">
        <ele>292.617</ele>
        <time>2022-08-24T06:45:18Z</time>
      </trkpt>
      <trkpt lat="43.14423900000006" lon="-1.2401459999999989">
        <ele>292.609</ele>
        <time>2022-08-24T06:45:19Z</time>
      </trkpt>
      <trkpt lat="43.144218000000066" lon="-1.2401489999999988">
        <ele>292.832</ele>
        <time>2022-08-24T06:45:20Z</time>
      </trkpt>
      <trkpt lat="43.144199000000064" lon="-1.2401549999999988">
        <ele>292.832</ele>
        <time>2022-08-24T06:45:21Z</time>
      </trkpt>
      <trkpt lat="43.14418300000006" lon="-1.2401619999999989">
        <ele>293.032</ele>
        <time>2022-08-24T06:45:22Z</time>
      </trkpt>
      <trkpt lat="43.14418300000006" lon="-1.2401619999999989">
        <ele>293.058</ele>
        <time>2022-08-24T06:45:23Z</time>
      </trkpt>
      <trkpt lat="43.14416000000006" lon="-1.2401809999999989">
        <ele>293.060</ele>
        <time>2022-08-24T06:45:24Z</time>
      </trkpt>
      <trkpt lat="43.14414600000006" lon="-1.240190999999999">
        <ele>293.287</ele>
        <time>2022-08-24T06:45:25Z</time>
      </trkpt>
      <trkpt lat="43.14413200000006" lon="-1.240198999999999">
        <ele>293.270</ele>
        <time>2022-08-24T06:45:26Z</time>
      </trkpt>
      <trkpt lat="43.14412200000006" lon="-1.240204999999999">
        <ele>293.234</ele>
        <time>2022-08-24T06:45:27Z</time>
      </trkpt>
      <trkpt lat="43.14411000000006" lon="-1.240206999999999">
        <ele>293.223</ele>
        <time>2022-08-24T06:45:28Z</time>
      </trkpt>
      <trkpt lat="43.14409700000006" lon="-1.240209999999999">
        <ele>293.472</ele>
        <time>2022-08-24T06:45:29Z</time>
      </trkpt>
      <trkpt lat="43.14409700000006" lon="-1.240209999999999">
        <ele>293.413</ele>
        <time>2022-08-24T06:45:30Z</time>
      </trkpt>
      <trkpt lat="43.14408000000006" lon="-1.2402219999999988">
        <ele>293.614</ele>
        <time>2022-08-24T06:45:31Z</time>
      </trkpt>
      <trkpt lat="43.14405400000006" lon="-1.240247999999999">
        <ele>293.609</ele>
        <time>2022-08-24T06:45:32Z</time>
      </trkpt>
      <trkpt lat="43.14404000000006" lon="-1.240257999999999">
        <ele>293.668</ele>
        <time>2022-08-24T06:45:33Z</time>
      </trkpt>
      <trkpt lat="43.144022000000064" lon="-1.240267999999999">
        <ele>293.848</ele>
        <time>2022-08-24T06:45:34Z</time>
      </trkpt>
      <trkpt lat="43.144005000000064" lon="-1.240277999999999">
        <ele>293.828</ele>
        <time>2022-08-24T06:45:35Z</time>
      </trkpt>
      <trkpt lat="43.14398900000006" lon="-1.2402909999999991">
        <ele>293.884</ele>
        <time>2022-08-24T06:45:36Z</time>
      </trkpt>
      <trkpt lat="43.14397000000006" lon="-1.240304999999999">
        <ele>293.846</ele>
        <time>2022-08-24T06:45:37Z</time>
      </trkpt>
      <trkpt lat="43.14386200000006" lon="-1.2403849999999992">
        <ele>294.423</ele>
        <time>2022-08-24T06:45:43Z</time>
      </trkpt>
      <trkpt lat="43.14380900000006" lon="-1.2404389999999992">
        <ele>294.836</ele>
        <time>2022-08-24T06:45:46Z</time>
      </trkpt>
      <trkpt lat="43.14376200000006" lon="-1.2404929999999992">
        <ele>295.280</ele>
        <time>2022-08-24T06:45:49Z</time>
      </trkpt>
      <trkpt lat="43.14373300000006" lon="-1.2405299999999992">
        <ele>295.239</ele>
        <time>2022-08-24T06:45:51Z</time>
      </trkpt>
      <trkpt lat="43.14373300000006" lon="-1.2405299999999992">
        <ele>295.497</ele>
        <time>2022-08-24T06:45:52Z</time>
      </trkpt>
      <trkpt lat="43.143670000000064" lon="-1.2406009999999992">
        <ele>295.823</ele>
        <time>2022-08-24T06:45:55Z</time>
      </trkpt>
      <trkpt lat="43.143658000000066" lon="-1.2406109999999992">
        <ele>295.825</ele>
        <time>2022-08-24T06:45:56Z</time>
      </trkpt>
      <trkpt lat="43.14359500000007" lon="-1.2406759999999992">
        <ele>296.609</ele>
        <time>2022-08-24T06:46:01Z</time>
      </trkpt>
      <trkpt lat="43.14353000000007" lon="-1.2407559999999993">
        <ele>297.070</ele>
        <time>2022-08-24T06:46:04Z</time>
      </trkpt>
      <trkpt lat="43.14351500000007" lon="-1.2407719999999993">
        <ele>297.080</ele>
        <time>2022-08-24T06:46:05Z</time>
      </trkpt>
      <trkpt lat="43.14350200000007" lon="-1.2407909999999993">
        <ele>297.410</ele>
        <time>2022-08-24T06:46:06Z</time>
      </trkpt>
      <trkpt lat="43.143489000000066" lon="-1.2408099999999993">
        <ele>297.636</ele>
        <time>2022-08-24T06:46:07Z</time>
      </trkpt>
      <trkpt lat="43.14347200000007" lon="-1.2408309999999994">
        <ele>298.098</ele>
        <time>2022-08-24T06:46:08Z</time>
      </trkpt>
      <trkpt lat="43.14346000000007" lon="-1.2408439999999994">
        <ele>298.215</ele>
        <time>2022-08-24T06:46:09Z</time>
      </trkpt>
      <trkpt lat="43.14344500000007" lon="-1.2408589999999995">
        <ele>298.438</ele>
        <time>2022-08-24T06:46:10Z</time>
      </trkpt>
      <trkpt lat="43.14343200000007" lon="-1.2408719999999995">
        <ele>298.622</ele>
        <time>2022-08-24T06:46:11Z</time>
      </trkpt>
      <trkpt lat="43.14342000000007" lon="-1.2408859999999995">
        <ele>298.871</ele>
        <time>2022-08-24T06:46:12Z</time>
      </trkpt>
      <trkpt lat="43.14340400000007" lon="-1.2408999999999994">
        <ele>299.058</ele>
        <time>2022-08-24T06:46:13Z</time>
      </trkpt>
      <trkpt lat="43.14339200000007" lon="-1.2409099999999995">
        <ele>299.252</ele>
        <time>2022-08-24T06:46:14Z</time>
      </trkpt>
      <trkpt lat="43.14339200000007" lon="-1.2409099999999995">
        <ele>299.617</ele>
        <time>2022-08-24T06:46:15Z</time>
      </trkpt>
      <trkpt lat="43.14336500000007" lon="-1.2409319999999995">
        <ele>299.809</ele>
        <time>2022-08-24T06:46:16Z</time>
      </trkpt>
      <trkpt lat="43.14335000000007" lon="-1.2409409999999994">
        <ele>300.096</ele>
        <time>2022-08-24T06:46:17Z</time>
      </trkpt>
      <trkpt lat="43.14335000000007" lon="-1.2409409999999994">
        <ele>300.866</ele>
        <time>2022-08-24T06:46:18Z</time>
      </trkpt>
      <trkpt lat="43.143326000000066" lon="-1.2409649999999994">
        <ele>301.026</ele>
        <time>2022-08-24T06:46:19Z</time>
      </trkpt>
      <trkpt lat="43.14331400000007" lon="-1.2409759999999994">
        <ele>301.282</ele>
        <time>2022-08-24T06:46:20Z</time>
      </trkpt>
      <trkpt lat="43.14331400000007" lon="-1.2409759999999994">
        <ele>301.484</ele>
        <time>2022-08-24T06:46:21Z</time>
      </trkpt>
      <trkpt lat="43.14328500000007" lon="-1.2409959999999993">
        <ele>301.891</ele>
        <time>2022-08-24T06:46:22Z</time>
      </trkpt>
      <trkpt lat="43.14328500000007" lon="-1.2409959999999993">
        <ele>302.074</ele>
        <time>2022-08-24T06:46:23Z</time>
      </trkpt>
      <trkpt lat="43.14327000000007" lon="-1.2410079999999992">
        <ele>302.218</ele>
        <time>2022-08-24T06:46:24Z</time>
      </trkpt>
      <trkpt lat="43.143241000000074" lon="-1.2410379999999992">
        <ele>302.437</ele>
        <time>2022-08-24T06:46:25Z</time>
      </trkpt>
      <trkpt lat="43.143227000000074" lon="-1.2410519999999992">
        <ele>302.653</ele>
        <time>2022-08-24T06:46:26Z</time>
      </trkpt>
      <trkpt lat="43.143227000000074" lon="-1.2410519999999992">
        <ele>302.804</ele>
        <time>2022-08-24T06:46:27Z</time>
      </trkpt>
      <trkpt lat="43.14319700000007" lon="-1.2410789999999992">
        <ele>303.014</ele>
        <time>2022-08-24T06:46:28Z</time>
      </trkpt>
      <trkpt lat="43.14318400000007" lon="-1.241090999999999">
        <ele>303.209</ele>
        <time>2022-08-24T06:46:29Z</time>
      </trkpt>
      <trkpt lat="43.14318400000007" lon="-1.241090999999999">
        <ele>303.246</ele>
        <time>2022-08-24T06:46:30Z</time>
      </trkpt>
      <trkpt lat="43.14315900000007" lon="-1.241115999999999">
        <ele>303.426</ele>
        <time>2022-08-24T06:46:31Z</time>
      </trkpt>
      <trkpt lat="43.14314500000007" lon="-1.241129999999999">
        <ele>303.626</ele>
        <time>2022-08-24T06:46:32Z</time>
      </trkpt>
      <trkpt lat="43.14313100000007" lon="-1.2411419999999989">
        <ele>303.642</ele>
        <time>2022-08-24T06:46:33Z</time>
      </trkpt>
      <trkpt lat="43.14311300000007" lon="-1.241156999999999">
        <ele>303.824</ele>
        <time>2022-08-24T06:46:34Z</time>
      </trkpt>
      <trkpt lat="43.14310200000007" lon="-1.241164999999999">
        <ele>304.061</ele>
        <time>2022-08-24T06:46:35Z</time>
      </trkpt>
      <trkpt lat="43.14308800000007" lon="-1.241174999999999">
        <ele>304.264</ele>
        <time>2022-08-24T06:46:36Z</time>
      </trkpt>
      <trkpt lat="43.14307300000007" lon="-1.241182999999999">
        <ele>304.488</ele>
        <time>2022-08-24T06:46:37Z</time>
      </trkpt>
      <trkpt lat="43.14307300000007" lon="-1.241182999999999">
        <ele>304.667</ele>
        <time>2022-08-24T06:46:38Z</time>
      </trkpt>
      <trkpt lat="43.14304500000007" lon="-1.241209999999999">
        <ele>304.834</ele>
        <time>2022-08-24T06:46:39Z</time>
      </trkpt>
      <trkpt lat="43.143030000000074" lon="-1.241226999999999">
        <ele>305.055</ele>
        <time>2022-08-24T06:46:40Z</time>
      </trkpt>
      <trkpt lat="43.14301900000007" lon="-1.241237999999999">
        <ele>305.210</ele>
        <time>2022-08-24T06:46:41Z</time>
      </trkpt>
      <trkpt lat="43.143007000000075" lon="-1.2412499999999989">
        <ele>305.409</ele>
        <time>2022-08-24T06:46:42Z</time>
      </trkpt>
      <trkpt lat="43.142996000000075" lon="-1.2412619999999988">
        <ele>305.684</ele>
        <time>2022-08-24T06:46:43Z</time>
      </trkpt>
      <trkpt lat="43.142996000000075" lon="-1.2412619999999988">
        <ele>305.854</ele>
        <time>2022-08-24T06:46:44Z</time>
      </trkpt>
      <trkpt lat="43.14297400000007" lon="-1.2412799999999988">
        <ele>306.084</ele>
        <time>2022-08-24T06:46:45Z</time>
      </trkpt>
      <trkpt lat="43.14296100000007" lon="-1.2412879999999988">
        <ele>306.030</ele>
        <time>2022-08-24T06:46:46Z</time>
      </trkpt>
      <trkpt lat="43.14296100000007" lon="-1.2412879999999988">
        <ele>306.232</ele>
        <time>2022-08-24T06:46:47Z</time>
      </trkpt>
      <trkpt lat="43.14293800000007" lon="-1.2413149999999988">
        <ele>306.449</ele>
        <time>2022-08-24T06:46:48Z</time>
      </trkpt>
      <trkpt lat="43.142926000000074" lon="-1.2413289999999988">
        <ele>306.662</ele>
        <time>2022-08-24T06:46:49Z</time>
      </trkpt>
      <trkpt lat="43.142926000000074" lon="-1.2413289999999988">
        <ele>306.816</ele>
        <time>2022-08-24T06:46:50Z</time>
      </trkpt>
      <trkpt lat="43.14289600000007" lon="-1.2413539999999987">
        <ele>307.055</ele>
        <time>2022-08-24T06:46:51Z</time>
      </trkpt>
      <trkpt lat="43.142881000000074" lon="-1.2413669999999988">
        <ele>307.063</ele>
        <time>2022-08-24T06:46:52Z</time>
      </trkpt>
      <trkpt lat="43.14286800000007" lon="-1.2413779999999988">
        <ele>307.244</ele>
        <time>2022-08-24T06:46:53Z</time>
      </trkpt>
      <trkpt lat="43.14285300000007" lon="-1.2413909999999988">
        <ele>307.418</ele>
        <time>2022-08-24T06:46:54Z</time>
      </trkpt>
      <trkpt lat="43.14283700000007" lon="-1.2414009999999989">
        <ele>307.409</ele>
        <time>2022-08-24T06:46:55Z</time>
      </trkpt>
      <trkpt lat="43.14282200000007" lon="-1.2414099999999988">
        <ele>307.837</ele>
        <time>2022-08-24T06:46:56Z</time>
      </trkpt>
      <trkpt lat="43.142807000000076" lon="-1.2414189999999987">
        <ele>308.027</ele>
        <time>2022-08-24T06:46:57Z</time>
      </trkpt>
      <trkpt lat="43.142791000000074" lon="-1.2414289999999988">
        <ele>308.067</ele>
        <time>2022-08-24T06:46:58Z</time>
      </trkpt>
      <trkpt lat="43.142774000000074" lon="-1.2414339999999988">
        <ele>308.243</ele>
        <time>2022-08-24T06:46:59Z</time>
      </trkpt>
      <trkpt lat="43.14275600000008" lon="-1.2414389999999988">
        <ele>308.255</ele>
        <time>2022-08-24T06:47:00Z</time>
      </trkpt>
      <trkpt lat="43.14275600000008" lon="-1.2414389999999988">
        <ele>308.282</ele>
        <time>2022-08-24T06:47:01Z</time>
      </trkpt>
      <trkpt lat="43.142726000000074" lon="-1.241456999999999">
        <ele>308.465</ele>
        <time>2022-08-24T06:47:02Z</time>
      </trkpt>
      <trkpt lat="43.14271000000007" lon="-1.241464999999999">
        <ele>308.649</ele>
        <time>2022-08-24T06:47:03Z</time>
      </trkpt>
      <trkpt lat="43.14269300000007" lon="-1.241469999999999">
        <ele>308.848</ele>
        <time>2022-08-24T06:47:04Z</time>
      </trkpt>
      <trkpt lat="43.142678000000075" lon="-1.241475999999999">
        <ele>309.079</ele>
        <time>2022-08-24T06:47:05Z</time>
      </trkpt>
      <trkpt lat="43.142664000000075" lon="-1.241483999999999">
        <ele>309.205</ele>
        <time>2022-08-24T06:47:06Z</time>
      </trkpt>
      <trkpt lat="43.142664000000075" lon="-1.241483999999999">
        <ele>309.225</ele>
        <time>2022-08-24T06:47:07Z</time>
      </trkpt>
      <trkpt lat="43.142630000000075" lon="-1.2414959999999988">
        <ele>309.409</ele>
        <time>2022-08-24T06:47:08Z</time>
      </trkpt>
      <trkpt lat="43.14261400000007" lon="-1.2414979999999989">
        <ele>309.448</ele>
        <time>2022-08-24T06:47:09Z</time>
      </trkpt>
      <trkpt lat="43.14261400000007" lon="-1.2414979999999989">
        <ele>309.628</ele>
        <time>2022-08-24T06:47:10Z</time>
      </trkpt>
      <trkpt lat="43.14258100000007" lon="-1.241502999999999">
        <ele>309.658</ele>
        <time>2022-08-24T06:47:11Z</time>
      </trkpt>
      <trkpt lat="43.142563000000074" lon="-1.2415069999999988">
        <ele>310.074</ele>
        <time>2022-08-24T06:47:12Z</time>
      </trkpt>
      <trkpt lat="43.14254500000008" lon="-1.2415099999999988">
        <ele>310.236</ele>
        <time>2022-08-24T06:47:13Z</time>
      </trkpt>
      <trkpt lat="43.14252700000008" lon="-1.2415119999999988">
        <ele>310.233</ele>
        <time>2022-08-24T06:47:14Z</time>
      </trkpt>
      <trkpt lat="43.14252700000008" lon="-1.2415119999999988">
        <ele>310.436</ele>
        <time>2022-08-24T06:47:15Z</time>
      </trkpt>
      <trkpt lat="43.14249000000008" lon="-1.241518999999999">
        <ele>310.410</ele>
        <time>2022-08-24T06:47:16Z</time>
      </trkpt>
      <trkpt lat="43.14247100000008" lon="-1.241523999999999">
        <ele>310.659</ele>
        <time>2022-08-24T06:47:17Z</time>
      </trkpt>
      <trkpt lat="43.14245100000008" lon="-1.241526999999999">
        <ele>310.835</ele>
        <time>2022-08-24T06:47:18Z</time>
      </trkpt>
      <trkpt lat="43.14243100000008" lon="-1.2415279999999989">
        <ele>310.886</ele>
        <time>2022-08-24T06:47:19Z</time>
      </trkpt>
      <trkpt lat="43.14241200000008" lon="-1.2415289999999988">
        <ele>311.014</ele>
        <time>2022-08-24T06:47:20Z</time>
      </trkpt>
      <trkpt lat="43.14241200000008" lon="-1.2415289999999988">
        <ele>311.209</ele>
        <time>2022-08-24T06:47:21Z</time>
      </trkpt>
      <trkpt lat="43.14237600000008" lon="-1.2415339999999988">
        <ele>311.464</ele>
        <time>2022-08-24T06:47:22Z</time>
      </trkpt>
      <trkpt lat="43.14237600000008" lon="-1.2415339999999988">
        <ele>311.684</ele>
        <time>2022-08-24T06:47:23Z</time>
      </trkpt>
      <trkpt lat="43.142357000000075" lon="-1.2415359999999989">
        <ele>311.634</ele>
        <time>2022-08-24T06:47:24Z</time>
      </trkpt>
      <trkpt lat="43.14232200000008" lon="-1.241534999999999">
        <ele>311.830</ele>
        <time>2022-08-24T06:47:25Z</time>
      </trkpt>
      <trkpt lat="43.14230500000008" lon="-1.241533999999999">
        <ele>312.072</ele>
        <time>2022-08-24T06:47:26Z</time>
      </trkpt>
      <trkpt lat="43.14228800000008" lon="-1.241535999999999">
        <ele>312.269</ele>
        <time>2022-08-24T06:47:27Z</time>
      </trkpt>
      <trkpt lat="43.14227100000008" lon="-1.241533999999999">
        <ele>312.282</ele>
        <time>2022-08-24T06:47:28Z</time>
      </trkpt>
      <trkpt lat="43.14225300000008" lon="-1.241533999999999">
        <ele>312.226</ele>
        <time>2022-08-24T06:47:29Z</time>
      </trkpt>
      <trkpt lat="43.142235000000085" lon="-1.241533999999999">
        <ele>312.245</ele>
        <time>2022-08-24T06:47:30Z</time>
      </trkpt>
      <trkpt lat="43.14221600000008" lon="-1.241534999999999">
        <ele>312.427</ele>
        <time>2022-08-24T06:47:31Z</time>
      </trkpt>
      <trkpt lat="43.142198000000086" lon="-1.2415329999999989">
        <ele>312.468</ele>
        <time>2022-08-24T06:47:32Z</time>
      </trkpt>
      <trkpt lat="43.142179000000084" lon="-1.2415329999999989">
        <ele>312.614</ele>
        <time>2022-08-24T06:47:33Z</time>
      </trkpt>
      <trkpt lat="43.142162000000084" lon="-1.2415309999999988">
        <ele>312.609</ele>
        <time>2022-08-24T06:47:34Z</time>
      </trkpt>
      <trkpt lat="43.14214400000009" lon="-1.2415309999999988">
        <ele>312.883</ele>
        <time>2022-08-24T06:47:35Z</time>
      </trkpt>
      <trkpt lat="43.142125000000085" lon="-1.241529999999999">
        <ele>313.023</ele>
        <time>2022-08-24T06:47:36Z</time>
      </trkpt>
      <trkpt lat="43.14210700000009" lon="-1.241526999999999">
        <ele>313.043</ele>
        <time>2022-08-24T06:47:37Z</time>
      </trkpt>
      <trkpt lat="43.14210700000009" lon="-1.241526999999999">
        <ele>313.059</ele>
        <time>2022-08-24T06:47:38Z</time>
      </trkpt>
      <trkpt lat="43.14206700000009" lon="-1.241518999999999">
        <ele>313.051</ele>
        <time>2022-08-24T06:47:39Z</time>
      </trkpt>
      <trkpt lat="43.14204700000009" lon="-1.241514999999999">
        <ele>313.278</ele>
        <time>2022-08-24T06:47:40Z</time>
      </trkpt>
      <trkpt lat="43.14202700000009" lon="-1.2415109999999991">
        <ele>313.241</ele>
        <time>2022-08-24T06:47:41Z</time>
      </trkpt>
      <trkpt lat="43.14200500000009" lon="-1.241505999999999">
        <ele>313.435</ele>
        <time>2022-08-24T06:47:42Z</time>
      </trkpt>
      <trkpt lat="43.14198400000009" lon="-1.2415029999999991">
        <ele>313.444</ele>
        <time>2022-08-24T06:47:43Z</time>
      </trkpt>
      <trkpt lat="43.141964000000094" lon="-1.241500999999999">
        <ele>313.443</ele>
        <time>2022-08-24T06:47:44Z</time>
      </trkpt>
      <trkpt lat="43.141944000000095" lon="-1.241497999999999">
        <ele>313.664</ele>
        <time>2022-08-24T06:47:45Z</time>
      </trkpt>
      <trkpt lat="43.14192500000009" lon="-1.2414949999999991">
        <ele>313.610</ele>
        <time>2022-08-24T06:47:46Z</time>
      </trkpt>
      <trkpt lat="43.14190600000009" lon="-1.2414909999999992">
        <ele>313.609</ele>
        <time>2022-08-24T06:47:47Z</time>
      </trkpt>
      <trkpt lat="43.14189000000009" lon="-1.2414879999999993">
        <ele>313.665</ele>
        <time>2022-08-24T06:47:48Z</time>
      </trkpt>
      <trkpt lat="43.14187200000009" lon="-1.2414869999999993">
        <ele>313.655</ele>
        <time>2022-08-24T06:47:49Z</time>
      </trkpt>
      <trkpt lat="43.14183000000009" lon="-1.2414769999999993">
        <ele>313.855</ele>
        <time>2022-08-24T06:47:52Z</time>
      </trkpt>
      <trkpt lat="43.14181500000009" lon="-1.2414739999999993">
        <ele>314.021</ele>
        <time>2022-08-24T06:47:53Z</time>
      </trkpt>
      <trkpt lat="43.1417940000001" lon="-1.2414759999999994">
        <ele>314.033</ele>
        <time>2022-08-24T06:47:54Z</time>
      </trkpt>
      <trkpt lat="43.1417790000001" lon="-1.2414769999999993">
        <ele>314.040</ele>
        <time>2022-08-24T06:47:55Z</time>
      </trkpt>
      <trkpt lat="43.1417650000001" lon="-1.2414719999999992">
        <ele>314.293</ele>
        <time>2022-08-24T06:47:56Z</time>
      </trkpt>
      <trkpt lat="43.1417570000001" lon="-1.2414659999999993">
        <ele>314.277</ele>
        <time>2022-08-24T06:47:57Z</time>
      </trkpt>
      <trkpt lat="43.1417420000001" lon="-1.2414619999999994">
        <ele>314.466</ele>
        <time>2022-08-24T06:47:59Z</time>
      </trkpt>
      <trkpt lat="43.1417380000001" lon="-1.2414609999999995">
        <ele>314.843</ele>
        <time>2022-08-24T06:48:27Z</time>
      </trkpt>
      <trkpt lat="43.1416930000001" lon="-1.2414549999999995">
        <ele>315.064</ele>
        <time>2022-08-24T06:48:29Z</time>
      </trkpt>
      <trkpt lat="43.141557000000105" lon="-1.2414259999999995">
        <ele>315.210</ele>
        <time>2022-08-24T06:48:34Z</time>
      </trkpt>
      <trkpt lat="43.141366000000104" lon="-1.2413739999999995">
        <ele>315.809</ele>
        <time>2022-08-24T06:48:39Z</time>
      </trkpt>
      <trkpt lat="43.14133100000011" lon="-1.2413699999999996">
        <ele>316.285</ele>
        <time>2022-08-24T06:48:40Z</time>
      </trkpt>
      <trkpt lat="43.14130200000011" lon="-1.2413619999999996">
        <ele>316.425</ele>
        <time>2022-08-24T06:48:41Z</time>
      </trkpt>
      <trkpt lat="43.14127200000011" lon="-1.2413499999999997">
        <ele>316.835</ele>
        <time>2022-08-24T06:48:42Z</time>
      </trkpt>
      <trkpt lat="43.14123800000011" lon="-1.2413409999999998">
        <ele>317.041</ele>
        <time>2022-08-24T06:48:43Z</time>
      </trkpt>
      <trkpt lat="43.14120700000011" lon="-1.2413319999999999">
        <ele>317.233</ele>
        <time>2022-08-24T06:48:44Z</time>
      </trkpt>
      <trkpt lat="43.14117600000011" lon="-1.2413219999999998">
        <ele>317.480</ele>
        <time>2022-08-24T06:48:45Z</time>
      </trkpt>
      <trkpt lat="43.14105800000011" lon="-1.2412789999999998">
        <ele>318.023</ele>
        <time>2022-08-24T06:48:49Z</time>
      </trkpt>
      <trkpt lat="43.14102600000011" lon="-1.2412629999999998">
        <ele>318.247</ele>
        <time>2022-08-24T06:48:50Z</time>
      </trkpt>
      <trkpt lat="43.14099700000011" lon="-1.2412469999999998">
        <ele>318.466</ele>
        <time>2022-08-24T06:48:51Z</time>
      </trkpt>
      <trkpt lat="43.140962000000115" lon="-1.2412259999999997">
        <ele>318.694</ele>
        <time>2022-08-24T06:48:52Z</time>
      </trkpt>
      <trkpt lat="43.140962000000115" lon="-1.2412259999999997">
        <ele>318.657</ele>
        <time>2022-08-24T06:48:53Z</time>
      </trkpt>
      <trkpt lat="43.140912000000114" lon="-1.2411819999999998">
        <ele>318.822</ele>
        <time>2022-08-24T06:48:54Z</time>
      </trkpt>
      <trkpt lat="43.14089100000012" lon="-1.2411539999999999">
        <ele>319.009</ele>
        <time>2022-08-24T06:48:55Z</time>
      </trkpt>
      <trkpt lat="43.14086500000012" lon="-1.241137">
        <ele>319.060</ele>
        <time>2022-08-24T06:48:56Z</time>
      </trkpt>
      <trkpt lat="43.140838000000116" lon="-1.2411159999999999">
        <ele>319.240</ele>
        <time>2022-08-24T06:48:57Z</time>
      </trkpt>
      <trkpt lat="43.14080900000012" lon="-1.241096">
        <ele>319.210</ele>
        <time>2022-08-24T06:48:58Z</time>
      </trkpt>
      <trkpt lat="43.14078300000012" lon="-1.241078">
        <ele>319.646</ele>
        <time>2022-08-24T06:48:59Z</time>
      </trkpt>
      <trkpt lat="43.14075600000012" lon="-1.2410599999999998">
        <ele>319.648</ele>
        <time>2022-08-24T06:49:00Z</time>
      </trkpt>
      <trkpt lat="43.140726000000114" lon="-1.2410379999999999">
        <ele>319.875</ele>
        <time>2022-08-24T06:49:01Z</time>
      </trkpt>
      <trkpt lat="43.14070200000011" lon="-1.241013">
        <ele>319.898</ele>
        <time>2022-08-24T06:49:02Z</time>
      </trkpt>
      <trkpt lat="43.14067600000011" lon="-1.2409919999999999">
        <ele>319.842</ele>
        <time>2022-08-24T06:49:03Z</time>
      </trkpt>
      <trkpt lat="43.14064800000011" lon="-1.240978">
        <ele>320.051</ele>
        <time>2022-08-24T06:49:04Z</time>
      </trkpt>
      <trkpt lat="43.14062100000011" lon="-1.2409629999999998">
        <ele>320.257</ele>
        <time>2022-08-24T06:49:05Z</time>
      </trkpt>
      <trkpt lat="43.14059600000011" lon="-1.2409519999999998">
        <ele>320.600</ele>
        <time>2022-08-24T06:49:06Z</time>
      </trkpt>
      <trkpt lat="43.14059600000011" lon="-1.2409519999999998">
        <ele>320.620</ele>
        <time>2022-08-24T06:49:07Z</time>
      </trkpt>
      <trkpt lat="43.140541000000105" lon="-1.2409169999999998">
        <ele>320.809</ele>
        <time>2022-08-24T06:49:08Z</time>
      </trkpt>
      <trkpt lat="43.14051200000011" lon="-1.2408959999999998">
        <ele>320.816</ele>
        <time>2022-08-24T06:49:09Z</time>
      </trkpt>
      <trkpt lat="43.14051200000011" lon="-1.2408959999999998">
        <ele>321.096</ele>
        <time>2022-08-24T06:49:10Z</time>
      </trkpt>
      <trkpt lat="43.140451000000105" lon="-1.2408429999999997">
        <ele>321.076</ele>
        <time>2022-08-24T06:49:11Z</time>
      </trkpt>
      <trkpt lat="43.1404180000001" lon="-1.2408109999999997">
        <ele>321.082</ele>
        <time>2022-08-24T06:49:12Z</time>
      </trkpt>
      <trkpt lat="43.1404180000001" lon="-1.2408109999999997">
        <ele>321.034</ele>
        <time>2022-08-24T06:49:13Z</time>
      </trkpt>
      <trkpt lat="43.140344000000105" lon="-1.2407529999999998">
        <ele>321.041</ele>
        <time>2022-08-24T06:49:14Z</time>
      </trkpt>
      <trkpt lat="43.14030700000011" lon="-1.2407279999999998">
        <ele>321.064</ele>
        <time>2022-08-24T06:49:15Z</time>
      </trkpt>
      <trkpt lat="43.14030700000011" lon="-1.2407279999999998">
        <ele>321.098</ele>
        <time>2022-08-24T06:49:16Z</time>
      </trkpt>
      <trkpt lat="43.14022500000011" lon="-1.240665">
        <ele>321.027</ele>
        <time>2022-08-24T06:49:17Z</time>
      </trkpt>
      <trkpt lat="43.14018300000011" lon="-1.240629">
        <ele>321.023</ele>
        <time>2022-08-24T06:49:18Z</time>
      </trkpt>
      <trkpt lat="43.14014000000011" lon="-1.240588">
        <ele>321.083</ele>
        <time>2022-08-24T06:49:19Z</time>
      </trkpt>
      <trkpt lat="43.140099000000106" lon="-1.240545">
        <ele>321.011</ele>
        <time>2022-08-24T06:49:20Z</time>
      </trkpt>
      <trkpt lat="43.14005600000011" lon="-1.240502">
        <ele>321.009</ele>
        <time>2022-08-24T06:49:21Z</time>
      </trkpt>
      <trkpt lat="43.14001400000011" lon="-1.240462">
        <ele>321.063</ele>
        <time>2022-08-24T06:49:22Z</time>
      </trkpt>
      <trkpt lat="43.139973000000104" lon="-1.240424">
        <ele>320.883</ele>
        <time>2022-08-24T06:49:23Z</time>
      </trkpt>
      <trkpt lat="43.139610000000104" lon="-1.240043">
        <ele>320.073</ele>
        <time>2022-08-24T06:49:31Z</time>
      </trkpt>
      <trkpt lat="43.139404000000106" lon="-1.2398150000000001">
        <ele>319.489</ele>
        <time>2022-08-24T06:49:35Z</time>
      </trkpt>
      <trkpt lat="43.139294000000106" lon="-1.2397090000000002">
        <ele>318.871</ele>
        <time>2022-08-24T06:49:37Z</time>
      </trkpt>
      <trkpt lat="43.13924000000011" lon="-1.2396600000000002">
        <ele>318.678</ele>
        <time>2022-08-24T06:49:38Z</time>
      </trkpt>
      <trkpt lat="43.139187000000106" lon="-1.2396120000000002">
        <ele>318.421</ele>
        <time>2022-08-24T06:49:39Z</time>
      </trkpt>
      <trkpt lat="43.13913300000011" lon="-1.2395680000000002">
        <ele>318.485</ele>
        <time>2022-08-24T06:49:40Z</time>
      </trkpt>
      <trkpt lat="43.13908100000011" lon="-1.2395280000000002">
        <ele>318.254</ele>
        <time>2022-08-24T06:49:41Z</time>
      </trkpt>
      <trkpt lat="43.139029000000114" lon="-1.2394890000000003">
        <ele>318.244</ele>
        <time>2022-08-24T06:49:42Z</time>
      </trkpt>
      <trkpt lat="43.13898000000012" lon="-1.2394500000000004">
        <ele>318.005</ele>
        <time>2022-08-24T06:49:43Z</time>
      </trkpt>
      <trkpt lat="43.13898000000012" lon="-1.2394500000000004">
        <ele>318.015</ele>
        <time>2022-08-24T06:49:44Z</time>
      </trkpt>
      <trkpt lat="43.138885000000116" lon="-1.2393770000000004">
        <ele>317.809</ele>
        <time>2022-08-24T06:49:45Z</time>
      </trkpt>
      <trkpt lat="43.138750000000115" lon="-1.2392760000000005">
        <ele>317.685</ele>
        <time>2022-08-24T06:49:48Z</time>
      </trkpt>
      <trkpt lat="43.13872300000011" lon="-1.2392580000000004">
        <ele>317.655</ele>
        <time>2022-08-24T06:49:49Z</time>
      </trkpt>
      <trkpt lat="43.13869500000011" lon="-1.2392370000000004">
        <ele>317.675</ele>
        <time>2022-08-24T06:49:50Z</time>
      </trkpt>
      <trkpt lat="43.13854600000011" lon="-1.2391470000000004">
        <ele>317.461</ele>
        <time>2022-08-24T06:49:54Z</time>
      </trkpt>
      <trkpt lat="43.138503000000114" lon="-1.2391280000000005">
        <ele>317.483</ele>
        <time>2022-08-24T06:49:55Z</time>
      </trkpt>
      <trkpt lat="43.138232000000116" lon="-1.2390360000000005">
        <ele>316.840</ele>
        <time>2022-08-24T06:50:01Z</time>
      </trkpt>
      <trkpt lat="43.138190000000115" lon="-1.2390200000000005">
        <ele>316.823</ele>
        <time>2022-08-24T06:50:02Z</time>
      </trkpt>
      <trkpt lat="43.13814700000012" lon="-1.2390070000000004">
        <ele>316.827</ele>
        <time>2022-08-24T06:50:03Z</time>
      </trkpt>
      <trkpt lat="43.138103000000115" lon="-1.2389960000000004">
        <ele>316.866</ele>
        <time>2022-08-24T06:50:04Z</time>
      </trkpt>
      <trkpt lat="43.13796400000012" lon="-1.2389690000000004">
        <ele>316.873</ele>
        <time>2022-08-24T06:50:07Z</time>
      </trkpt>
      <trkpt lat="43.137669000000116" lon="-1.2389240000000004">
        <ele>316.885</ele>
        <time>2022-08-24T06:50:13Z</time>
      </trkpt>
      <trkpt lat="43.137622000000114" lon="-1.2389190000000003">
        <ele>316.613</ele>
        <time>2022-08-24T06:50:14Z</time>
      </trkpt>
      <trkpt lat="43.13757500000011" lon="-1.2389140000000003">
        <ele>316.609</ele>
        <time>2022-08-24T06:50:15Z</time>
      </trkpt>
      <trkpt lat="43.137529000000114" lon="-1.2389070000000002">
        <ele>316.678</ele>
        <time>2022-08-24T06:50:16Z</time>
      </trkpt>
      <trkpt lat="43.137529000000114" lon="-1.2389070000000002">
        <ele>316.488</ele>
        <time>2022-08-24T06:50:17Z</time>
      </trkpt>
      <trkpt lat="43.137444000000116" lon="-1.2388810000000001">
        <ele>316.448</ele>
        <time>2022-08-24T06:50:18Z</time>
      </trkpt>
      <trkpt lat="43.137402000000115" lon="-1.2388640000000002">
        <ele>316.274</ele>
        <time>2022-08-24T06:50:19Z</time>
      </trkpt>
      <trkpt lat="43.137363000000114" lon="-1.2388460000000001">
        <ele>316.216</ele>
        <time>2022-08-24T06:50:20Z</time>
      </trkpt>
      <trkpt lat="43.13732700000011" lon="-1.2388290000000002">
        <ele>316.283</ele>
        <time>2022-08-24T06:50:21Z</time>
      </trkpt>
      <trkpt lat="43.13729400000011" lon="-1.2388130000000002">
        <ele>316.216</ele>
        <time>2022-08-24T06:50:22Z</time>
      </trkpt>
      <trkpt lat="43.13729400000011" lon="-1.2388130000000002">
        <ele>316.280</ele>
        <time>2022-08-24T06:50:23Z</time>
      </trkpt>
      <trkpt lat="43.13722600000011" lon="-1.2387700000000001">
        <ele>316.269</ele>
        <time>2022-08-24T06:50:24Z</time>
      </trkpt>
      <trkpt lat="43.137200000000114" lon="-1.2387540000000001">
        <ele>316.285</ele>
        <time>2022-08-24T06:50:25Z</time>
      </trkpt>
      <trkpt lat="43.137200000000114" lon="-1.2387540000000001">
        <ele>316.489</ele>
        <time>2022-08-24T06:50:26Z</time>
      </trkpt>
      <trkpt lat="43.13715300000011" lon="-1.238733">
        <ele>316.617</ele>
        <time>2022-08-24T06:50:27Z</time>
      </trkpt>
      <trkpt lat="43.13712700000011" lon="-1.2387190000000001">
        <ele>316.809</ele>
        <time>2022-08-24T06:50:28Z</time>
      </trkpt>
      <trkpt lat="43.137098000000115" lon="-1.238703">
        <ele>317.039</ele>
        <time>2022-08-24T06:50:29Z</time>
      </trkpt>
      <trkpt lat="43.137042000000115" lon="-1.238666">
        <ele>317.489</ele>
        <time>2022-08-24T06:50:31Z</time>
      </trkpt>
      <trkpt lat="43.137014000000114" lon="-1.238644">
        <ele>317.689</ele>
        <time>2022-08-24T06:50:32Z</time>
      </trkpt>
      <trkpt lat="43.13698200000012" lon="-1.2386110000000001">
        <ele>317.895</ele>
        <time>2022-08-24T06:50:33Z</time>
      </trkpt>
      <trkpt lat="43.13696200000012" lon="-1.23859">
        <ele>318.047</ele>
        <time>2022-08-24T06:50:34Z</time>
      </trkpt>
      <trkpt lat="43.13693700000012" lon="-1.238566">
        <ele>318.224</ele>
        <time>2022-08-24T06:50:35Z</time>
      </trkpt>
      <trkpt lat="43.13691300000011" lon="-1.238542">
        <ele>318.467</ele>
        <time>2022-08-24T06:50:36Z</time>
      </trkpt>
      <trkpt lat="43.13688800000011" lon="-1.238515">
        <ele>318.611</ele>
        <time>2022-08-24T06:50:37Z</time>
      </trkpt>
      <trkpt lat="43.13681600000011" lon="-1.238415">
        <ele>319.420</ele>
        <time>2022-08-24T06:50:41Z</time>
      </trkpt>
      <trkpt lat="43.13678800000011" lon="-1.238397">
        <ele>319.687</ele>
        <time>2022-08-24T06:50:42Z</time>
      </trkpt>
      <trkpt lat="43.13675800000011" lon="-1.23838">
        <ele>319.642</ele>
        <time>2022-08-24T06:50:43Z</time>
      </trkpt>
      <trkpt lat="43.13673000000011" lon="-1.238362">
        <ele>320.026</ele>
        <time>2022-08-24T06:50:44Z</time>
      </trkpt>
      <trkpt lat="43.13669800000011" lon="-1.2383469999999999">
        <ele>320.209</ele>
        <time>2022-08-24T06:50:45Z</time>
      </trkpt>
      <trkpt lat="43.13665900000011" lon="-1.2383319999999998">
        <ele>320.289</ele>
        <time>2022-08-24T06:50:46Z</time>
      </trkpt>
      <trkpt lat="43.136612000000106" lon="-1.2383129999999998">
        <ele>320.489</ele>
        <time>2022-08-24T06:50:47Z</time>
      </trkpt>
      <trkpt lat="43.136556000000105" lon="-1.2382939999999998">
        <ele>320.429</ele>
        <time>2022-08-24T06:50:48Z</time>
      </trkpt>
      <trkpt lat="43.1364980000001" lon="-1.2382769999999999">
        <ele>320.475</ele>
        <time>2022-08-24T06:50:49Z</time>
      </trkpt>
      <trkpt lat="43.1364400000001" lon="-1.2382589999999998">
        <ele>320.277</ele>
        <time>2022-08-24T06:50:50Z</time>
      </trkpt>
      <trkpt lat="43.1363830000001" lon="-1.2382419999999998">
        <ele>320.254</ele>
        <time>2022-08-24T06:50:51Z</time>
      </trkpt>
      <trkpt lat="43.1363290000001" lon="-1.238225">
        <ele>320.247</ele>
        <time>2022-08-24T06:50:52Z</time>
      </trkpt>
      <trkpt lat="43.136280000000106" lon="-1.2382">
        <ele>319.821</ele>
        <time>2022-08-24T06:50:53Z</time>
      </trkpt>
      <trkpt lat="43.136280000000106" lon="-1.2382">
        <ele>319.640</ele>
        <time>2022-08-24T06:50:54Z</time>
      </trkpt>
      <trkpt lat="43.136193000000105" lon="-1.238163">
        <ele>319.427</ele>
        <time>2022-08-24T06:50:55Z</time>
      </trkpt>
      <trkpt lat="43.1361520000001" lon="-1.2381499999999999">
        <ele>319.468</ele>
        <time>2022-08-24T06:50:56Z</time>
      </trkpt>
      <trkpt lat="43.1361520000001" lon="-1.2381499999999999">
        <ele>319.414</ele>
        <time>2022-08-24T06:50:57Z</time>
      </trkpt>
      <trkpt lat="43.136072000000105" lon="-1.2381309999999999">
        <ele>319.209</ele>
        <time>2022-08-24T06:50:58Z</time>
      </trkpt>
      <trkpt lat="43.1360310000001" lon="-1.238127">
        <ele>319.253</ele>
        <time>2022-08-24T06:50:59Z</time>
      </trkpt>
      <trkpt lat="43.1360310000001" lon="-1.238127">
        <ele>319.263</ele>
        <time>2022-08-24T06:51:00Z</time>
      </trkpt>
      <trkpt lat="43.1359550000001" lon="-1.238118">
        <ele>319.213</ele>
        <time>2022-08-24T06:51:01Z</time>
      </trkpt>
      <trkpt lat="43.135920000000105" lon="-1.238116">
        <ele>319.259</ele>
        <time>2022-08-24T06:51:02Z</time>
      </trkpt>
      <trkpt lat="43.135920000000105" lon="-1.238116">
        <ele>319.221</ele>
        <time>2022-08-24T06:51:03Z</time>
      </trkpt>
      <trkpt lat="43.13584900000011" lon="-1.238108">
        <ele>319.288</ele>
        <time>2022-08-24T06:51:04Z</time>
      </trkpt>
      <trkpt lat="43.13581400000011" lon="-1.238101">
        <ele>319.831</ele>
        <time>2022-08-24T06:51:05Z</time>
      </trkpt>
      <trkpt lat="43.13577900000011" lon="-1.2381019999999998">
        <ele>320.095</ele>
        <time>2022-08-24T06:51:06Z</time>
      </trkpt>
      <trkpt lat="43.13570900000011" lon="-1.2381019999999998">
        <ele>320.434</ele>
        <time>2022-08-24T06:51:08Z</time>
      </trkpt>
      <trkpt lat="43.135677000000115" lon="-1.2381079999999998">
        <ele>320.633</ele>
        <time>2022-08-24T06:51:09Z</time>
      </trkpt>
      <trkpt lat="43.135638000000114" lon="-1.2381139999999997">
        <ele>320.823</ele>
        <time>2022-08-24T06:51:10Z</time>
      </trkpt>
      <trkpt lat="43.13561300000011" lon="-1.2381179999999996">
        <ele>321.015</ele>
        <time>2022-08-24T06:51:11Z</time>
      </trkpt>
      <trkpt lat="43.135584000000115" lon="-1.2381189999999995">
        <ele>321.209</ele>
        <time>2022-08-24T06:51:12Z</time>
      </trkpt>
      <trkpt lat="43.13555200000012" lon="-1.2381219999999995">
        <ele>321.424</ele>
        <time>2022-08-24T06:51:13Z</time>
      </trkpt>
      <trkpt lat="43.13552300000012" lon="-1.2381279999999995">
        <ele>321.874</ele>
        <time>2022-08-24T06:51:14Z</time>
      </trkpt>
      <trkpt lat="43.13549600000012" lon="-1.2381309999999994">
        <ele>322.064</ele>
        <time>2022-08-24T06:51:15Z</time>
      </trkpt>
      <trkpt lat="43.135469000000114" lon="-1.2381339999999994">
        <ele>322.250</ele>
        <time>2022-08-24T06:51:16Z</time>
      </trkpt>
      <trkpt lat="43.135469000000114" lon="-1.2381339999999994">
        <ele>322.442</ele>
        <time>2022-08-24T06:51:17Z</time>
      </trkpt>
      <trkpt lat="43.135421000000115" lon="-1.2381329999999995">
        <ele>322.649</ele>
        <time>2022-08-24T06:51:18Z</time>
      </trkpt>
      <trkpt lat="43.135395000000116" lon="-1.2381309999999994">
        <ele>322.882</ele>
        <time>2022-08-24T06:51:19Z</time>
      </trkpt>
      <trkpt lat="43.135370000000115" lon="-1.2381319999999993">
        <ele>323.066</ele>
        <time>2022-08-24T06:51:20Z</time>
      </trkpt>
      <trkpt lat="43.13534100000012" lon="-1.2381329999999993">
        <ele>323.065</ele>
        <time>2022-08-24T06:51:21Z</time>
      </trkpt>
      <trkpt lat="43.135311000000115" lon="-1.2381359999999992">
        <ele>323.046</ele>
        <time>2022-08-24T06:51:22Z</time>
      </trkpt>
      <trkpt lat="43.13528100000011" lon="-1.2381349999999993">
        <ele>323.288</ele>
        <time>2022-08-24T06:51:23Z</time>
      </trkpt>
      <trkpt lat="43.135249000000115" lon="-1.2381319999999993">
        <ele>323.416</ele>
        <time>2022-08-24T06:51:24Z</time>
      </trkpt>
      <trkpt lat="43.135218000000116" lon="-1.2381269999999993">
        <ele>323.609</ele>
        <time>2022-08-24T06:51:25Z</time>
      </trkpt>
      <trkpt lat="43.135218000000116" lon="-1.2381269999999993">
        <ele>323.645</ele>
        <time>2022-08-24T06:51:26Z</time>
      </trkpt>
      <trkpt lat="43.135154000000114" lon="-1.2381129999999994">
        <ele>323.615</ele>
        <time>2022-08-24T06:51:27Z</time>
      </trkpt>
      <trkpt lat="43.135154000000114" lon="-1.2381129999999994">
        <ele>323.895</ele>
        <time>2022-08-24T06:51:28Z</time>
      </trkpt>
      <trkpt lat="43.13508400000011" lon="-1.2380999999999993">
        <ele>323.831</ele>
        <time>2022-08-24T06:51:29Z</time>
      </trkpt>
      <trkpt lat="43.135049000000116" lon="-1.2380919999999993">
        <ele>323.873</ele>
        <time>2022-08-24T06:51:30Z</time>
      </trkpt>
      <trkpt lat="43.135049000000116" lon="-1.2380919999999993">
        <ele>323.870</ele>
        <time>2022-08-24T06:51:31Z</time>
      </trkpt>
      <trkpt lat="43.134982000000115" lon="-1.2380839999999993">
        <ele>323.883</ele>
        <time>2022-08-24T06:51:32Z</time>
      </trkpt>
      <trkpt lat="43.13495000000012" lon="-1.2380779999999993">
        <ele>323.827</ele>
        <time>2022-08-24T06:51:33Z</time>
      </trkpt>
      <trkpt lat="43.13491800000012" lon="-1.2380729999999993">
        <ele>323.846</ele>
        <time>2022-08-24T06:51:34Z</time>
      </trkpt>
      <trkpt lat="43.13488700000012" lon="-1.2380669999999994">
        <ele>323.883</ele>
        <time>2022-08-24T06:51:35Z</time>
      </trkpt>
      <trkpt lat="43.13488700000012" lon="-1.2380669999999994">
        <ele>323.825</ele>
        <time>2022-08-24T06:51:36Z</time>
      </trkpt>
      <trkpt lat="43.13482500000012" lon="-1.2380689999999994">
        <ele>323.817</ele>
        <time>2022-08-24T06:51:37Z</time>
      </trkpt>
      <trkpt lat="43.13479700000012" lon="-1.2380709999999995">
        <ele>323.809</ele>
        <time>2022-08-24T06:51:38Z</time>
      </trkpt>
      <trkpt lat="43.13479700000012" lon="-1.2380709999999995">
        <ele>323.829</ele>
        <time>2022-08-24T06:51:39Z</time>
      </trkpt>
      <trkpt lat="43.13475200000012" lon="-1.2380809999999995">
        <ele>324.299</ele>
        <time>2022-08-24T06:51:40Z</time>
      </trkpt>
      <trkpt lat="43.13473300000012" lon="-1.2380909999999996">
        <ele>324.289</ele>
        <time>2022-08-24T06:51:41Z</time>
      </trkpt>
      <trkpt lat="43.13471000000012" lon="-1.2381039999999996">
        <ele>324.455</ele>
        <time>2022-08-24T06:51:42Z</time>
      </trkpt>
      <trkpt lat="43.134686000000116" lon="-1.2381239999999996">
        <ele>324.667</ele>
        <time>2022-08-24T06:51:43Z</time>
      </trkpt>
      <trkpt lat="43.134548000000116" lon="-1.2382799999999996">
        <ele>324.844</ele>
        <time>2022-08-24T06:51:48Z</time>
      </trkpt>
      <trkpt lat="43.13451600000012" lon="-1.2383219999999997">
        <ele>324.857</ele>
        <time>2022-08-24T06:51:49Z</time>
      </trkpt>
      <trkpt lat="43.13435700000012" lon="-1.2385429999999997">
        <ele>324.671</ele>
        <time>2022-08-24T06:51:54Z</time>
      </trkpt>
      <trkpt lat="43.13432600000012" lon="-1.2385949999999997">
        <ele>324.640</ele>
        <time>2022-08-24T06:51:55Z</time>
      </trkpt>
      <trkpt lat="43.13425000000012" lon="-1.2387019999999997">
        <ele>324.443</ele>
        <time>2022-08-24T06:51:57Z</time>
      </trkpt>
      <trkpt lat="43.13416000000012" lon="-1.2387949999999996">
        <ele>324.464</ele>
        <time>2022-08-24T06:51:59Z</time>
      </trkpt>
      <trkpt lat="43.13411600000012" lon="-1.2388339999999995">
        <ele>324.210</ele>
        <time>2022-08-24T06:52:00Z</time>
      </trkpt>
      <trkpt lat="43.13407100000012" lon="-1.2388679999999996">
        <ele>323.809</ele>
        <time>2022-08-24T06:52:01Z</time>
      </trkpt>
      <trkpt lat="43.13402600000012" lon="-1.2388919999999997">
        <ele>323.855</ele>
        <time>2022-08-24T06:52:02Z</time>
      </trkpt>
      <trkpt lat="43.13397800000012" lon="-1.2389089999999996">
        <ele>323.645</ele>
        <time>2022-08-24T06:52:03Z</time>
      </trkpt>
      <trkpt lat="43.13393100000012" lon="-1.2389169999999996">
        <ele>323.675</ele>
        <time>2022-08-24T06:52:04Z</time>
      </trkpt>
      <trkpt lat="43.13393100000012" lon="-1.2389169999999996">
        <ele>323.671</ele>
        <time>2022-08-24T06:52:05Z</time>
      </trkpt>
      <trkpt lat="43.13384600000012" lon="-1.2389249999999996">
        <ele>323.453</ele>
        <time>2022-08-24T06:52:06Z</time>
      </trkpt>
      <trkpt lat="43.13380200000012" lon="-1.2389209999999997">
        <ele>323.450</ele>
        <time>2022-08-24T06:52:07Z</time>
      </trkpt>
      <trkpt lat="43.13375900000012" lon="-1.2389149999999998">
        <ele>323.473</ele>
        <time>2022-08-24T06:52:08Z</time>
      </trkpt>
      <trkpt lat="43.13375900000012" lon="-1.2389149999999998">
        <ele>323.457</ele>
        <time>2022-08-24T06:52:09Z</time>
      </trkpt>
      <trkpt lat="43.13371900000012" lon="-1.2389069999999998">
        <ele>323.456</ele>
        <time>2022-08-24T06:52:10Z</time>
      </trkpt>
      <trkpt lat="43.13364200000012" lon="-1.2388869999999998">
        <ele>323.474</ele>
        <time>2022-08-24T06:52:11Z</time>
      </trkpt>
      <trkpt lat="43.133602000000124" lon="-1.238878">
        <ele>323.456</ele>
        <time>2022-08-24T06:52:12Z</time>
      </trkpt>
      <trkpt lat="43.13356600000012" lon="-1.2388629999999998">
        <ele>323.421</ele>
        <time>2022-08-24T06:52:13Z</time>
      </trkpt>
      <trkpt lat="43.13353000000012" lon="-1.2388469999999998">
        <ele>323.409</ele>
        <time>2022-08-24T06:52:14Z</time>
      </trkpt>
      <trkpt lat="43.13349600000012" lon="-1.2388259999999998">
        <ele>323.448</ele>
        <time>2022-08-24T06:52:15Z</time>
      </trkpt>
      <trkpt lat="43.13346200000012" lon="-1.2388019999999997">
        <ele>323.698</ele>
        <time>2022-08-24T06:52:16Z</time>
      </trkpt>
      <trkpt lat="43.133427000000125" lon="-1.2387749999999997">
        <ele>323.488</ele>
        <time>2022-08-24T06:52:17Z</time>
      </trkpt>
      <trkpt lat="43.133363000000124" lon="-1.2387149999999998">
        <ele>323.474</ele>
        <time>2022-08-24T06:52:19Z</time>
      </trkpt>
      <trkpt lat="43.133363000000124" lon="-1.2387149999999998">
        <ele>323.446</ele>
        <time>2022-08-24T06:52:20Z</time>
      </trkpt>
      <trkpt lat="43.13331000000012" lon="-1.2386479999999997">
        <ele>323.653</ele>
        <time>2022-08-24T06:52:21Z</time>
      </trkpt>
      <trkpt lat="43.13328600000012" lon="-1.2386179999999998">
        <ele>323.686</ele>
        <time>2022-08-24T06:52:22Z</time>
      </trkpt>
      <trkpt lat="43.13326400000012" lon="-1.2385899999999999">
        <ele>323.830</ele>
        <time>2022-08-24T06:52:23Z</time>
      </trkpt>
      <trkpt lat="43.133245000000116" lon="-1.238565">
        <ele>324.069</ele>
        <time>2022-08-24T06:52:24Z</time>
      </trkpt>
      <trkpt lat="43.13322500000012" lon="-1.238535">
        <ele>324.292</ele>
        <time>2022-08-24T06:52:25Z</time>
      </trkpt>
      <trkpt lat="43.13322500000012" lon="-1.238535">
        <ele>324.473</ele>
        <time>2022-08-24T06:52:26Z</time>
      </trkpt>
      <trkpt lat="43.133186000000116" lon="-1.238483">
        <ele>324.420</ele>
        <time>2022-08-24T06:52:27Z</time>
      </trkpt>
      <trkpt lat="43.13316800000012" lon="-1.238455">
        <ele>324.609</ele>
        <time>2022-08-24T06:52:28Z</time>
      </trkpt>
      <trkpt lat="43.13316800000012" lon="-1.238455">
        <ele>324.640</ele>
        <time>2022-08-24T06:52:29Z</time>
      </trkpt>
      <trkpt lat="43.13312900000012" lon="-1.238407">
        <ele>324.840</ele>
        <time>2022-08-24T06:52:30Z</time>
      </trkpt>
      <trkpt lat="43.13310900000012" lon="-1.238382">
        <ele>324.820</ele>
        <time>2022-08-24T06:52:31Z</time>
      </trkpt>
      <trkpt lat="43.13309000000012" lon="-1.238361">
        <ele>325.276</ele>
        <time>2022-08-24T06:52:32Z</time>
      </trkpt>
      <trkpt lat="43.13307200000012" lon="-1.238342">
        <ele>325.288</ele>
        <time>2022-08-24T06:52:33Z</time>
      </trkpt>
      <trkpt lat="43.13307200000012" lon="-1.238342">
        <ele>325.445</ele>
        <time>2022-08-24T06:52:34Z</time>
      </trkpt>
      <trkpt lat="43.13303500000012" lon="-1.238324">
        <ele>325.668</ele>
        <time>2022-08-24T06:52:35Z</time>
      </trkpt>
      <trkpt lat="43.13301800000012" lon="-1.238316">
        <ele>325.882</ele>
        <time>2022-08-24T06:52:36Z</time>
      </trkpt>
      <trkpt lat="43.13300300000012" lon="-1.238311">
        <ele>326.061</ele>
        <time>2022-08-24T06:52:37Z</time>
      </trkpt>
      <trkpt lat="43.13298600000012" lon="-1.238306">
        <ele>326.215</ele>
        <time>2022-08-24T06:52:38Z</time>
      </trkpt>
      <trkpt lat="43.13298600000012" lon="-1.238306">
        <ele>326.465</ele>
        <time>2022-08-24T06:52:39Z</time>
      </trkpt>
      <trkpt lat="43.132938000000124" lon="-1.2382989999999998">
        <ele>327.011</ele>
        <time>2022-08-24T06:52:41Z</time>
      </trkpt>
      <trkpt lat="43.132921000000124" lon="-1.2383039999999998">
        <ele>327.209</ele>
        <time>2022-08-24T06:52:42Z</time>
      </trkpt>
      <trkpt lat="43.132904000000124" lon="-1.2383079999999997">
        <ele>327.452</ele>
        <time>2022-08-24T06:52:43Z</time>
      </trkpt>
      <trkpt lat="43.132890000000124" lon="-1.2383079999999997">
        <ele>327.822</ele>
        <time>2022-08-24T06:52:44Z</time>
      </trkpt>
      <trkpt lat="43.132873000000124" lon="-1.2383129999999998">
        <ele>328.022</ele>
        <time>2022-08-24T06:52:45Z</time>
      </trkpt>
      <trkpt lat="43.13285700000012" lon="-1.2383179999999998">
        <ele>328.438</ele>
        <time>2022-08-24T06:52:46Z</time>
      </trkpt>
      <trkpt lat="43.13284100000012" lon="-1.2383229999999998">
        <ele>328.860</ele>
        <time>2022-08-24T06:52:47Z</time>
      </trkpt>
      <trkpt lat="43.13282600000012" lon="-1.238325">
        <ele>328.827</ele>
        <time>2022-08-24T06:52:48Z</time>
      </trkpt>
      <trkpt lat="43.13281200000012" lon="-1.2383339999999998">
        <ele>329.040</ele>
        <time>2022-08-24T06:52:49Z</time>
      </trkpt>
      <trkpt lat="43.132797000000124" lon="-1.2383419999999998">
        <ele>329.274</ele>
        <time>2022-08-24T06:52:50Z</time>
      </trkpt>
      <trkpt lat="43.132783000000124" lon="-1.2383499999999998">
        <ele>329.493</ele>
        <time>2022-08-24T06:52:51Z</time>
      </trkpt>
      <trkpt lat="43.132769000000124" lon="-1.2383549999999999">
        <ele>329.621</ele>
        <time>2022-08-24T06:52:52Z</time>
      </trkpt>
      <trkpt lat="43.13275600000012" lon="-1.2383629999999999">
        <ele>330.041</ele>
        <time>2022-08-24T06:52:53Z</time>
      </trkpt>
      <trkpt lat="43.132741000000124" lon="-1.23837">
        <ele>330.205</ele>
        <time>2022-08-24T06:52:54Z</time>
      </trkpt>
      <trkpt lat="43.13272700000012" lon="-1.238375">
        <ele>330.409</ele>
        <time>2022-08-24T06:52:55Z</time>
      </trkpt>
      <trkpt lat="43.13271300000012" lon="-1.238381">
        <ele>330.813</ele>
        <time>2022-08-24T06:52:56Z</time>
      </trkpt>
      <trkpt lat="43.13269900000012" lon="-1.238386">
        <ele>331.043</ele>
        <time>2022-08-24T06:52:57Z</time>
      </trkpt>
      <trkpt lat="43.13268300000012" lon="-1.238392">
        <ele>331.263</ele>
        <time>2022-08-24T06:52:58Z</time>
      </trkpt>
      <trkpt lat="43.13266700000012" lon="-1.2384">
        <ele>331.479</ele>
        <time>2022-08-24T06:52:59Z</time>
      </trkpt>
      <trkpt lat="43.132651000000116" lon="-1.238405">
        <ele>331.831</ele>
        <time>2022-08-24T06:53:00Z</time>
      </trkpt>
      <trkpt lat="43.132635000000114" lon="-1.23841">
        <ele>331.848</ele>
        <time>2022-08-24T06:53:01Z</time>
      </trkpt>
      <trkpt lat="43.13261600000011" lon="-1.238417">
        <ele>332.281</ele>
        <time>2022-08-24T06:53:02Z</time>
      </trkpt>
      <trkpt lat="43.13261600000011" lon="-1.238417">
        <ele>332.485</ele>
        <time>2022-08-24T06:53:03Z</time>
      </trkpt>
      <trkpt lat="43.13258300000011" lon="-1.238425">
        <ele>332.454</ele>
        <time>2022-08-24T06:53:04Z</time>
      </trkpt>
      <trkpt lat="43.13256900000011" lon="-1.2384300000000001">
        <ele>332.871</ele>
        <time>2022-08-24T06:53:05Z</time>
      </trkpt>
      <trkpt lat="43.13255400000011" lon="-1.2384320000000002">
        <ele>332.841</ele>
        <time>2022-08-24T06:53:06Z</time>
      </trkpt>
      <trkpt lat="43.13254100000011" lon="-1.2384370000000002">
        <ele>333.015</ele>
        <time>2022-08-24T06:53:07Z</time>
      </trkpt>
      <trkpt lat="43.13252700000011" lon="-1.2384450000000002">
        <ele>333.209</ele>
        <time>2022-08-24T06:53:08Z</time>
      </trkpt>
      <trkpt lat="43.13251100000011" lon="-1.2384550000000003">
        <ele>333.458</ele>
        <time>2022-08-24T06:53:09Z</time>
      </trkpt>
      <trkpt lat="43.13251100000011" lon="-1.2384550000000003">
        <ele>333.878</ele>
        <time>2022-08-24T06:53:10Z</time>
      </trkpt>
      <trkpt lat="43.132495000000105" lon="-1.2384650000000004">
        <ele>334.058</ele>
        <time>2022-08-24T06:53:11Z</time>
      </trkpt>
      <trkpt lat="43.13246300000011" lon="-1.2384860000000004">
        <ele>334.254</ele>
        <time>2022-08-24T06:53:12Z</time>
      </trkpt>
      <trkpt lat="43.13244900000011" lon="-1.2384940000000004">
        <ele>334.296</ele>
        <time>2022-08-24T06:53:13Z</time>
      </trkpt>
      <trkpt lat="43.13243700000011" lon="-1.2385070000000005">
        <ele>334.623</ele>
        <time>2022-08-24T06:53:14Z</time>
      </trkpt>
      <trkpt lat="43.13242300000011" lon="-1.2385210000000004">
        <ele>334.876</ele>
        <time>2022-08-24T06:53:15Z</time>
      </trkpt>
      <trkpt lat="43.13241100000011" lon="-1.2385360000000005">
        <ele>335.250</ele>
        <time>2022-08-24T06:53:16Z</time>
      </trkpt>
      <trkpt lat="43.13239900000011" lon="-1.2385480000000004">
        <ele>335.669</ele>
        <time>2022-08-24T06:53:17Z</time>
      </trkpt>
      <trkpt lat="43.13238500000011" lon="-1.2385570000000004">
        <ele>335.628</ele>
        <time>2022-08-24T06:53:18Z</time>
      </trkpt>
      <trkpt lat="43.132370000000115" lon="-1.2385670000000004">
        <ele>335.889</ele>
        <time>2022-08-24T06:53:19Z</time>
      </trkpt>
      <trkpt lat="43.13235500000012" lon="-1.2385770000000005">
        <ele>336.017</ele>
        <time>2022-08-24T06:53:20Z</time>
      </trkpt>
      <trkpt lat="43.13234000000012" lon="-1.2385890000000004">
        <ele>336.209</ele>
        <time>2022-08-24T06:53:21Z</time>
      </trkpt>
      <trkpt lat="43.13234000000012" lon="-1.2385890000000004">
        <ele>336.453</ele>
        <time>2022-08-24T06:53:22Z</time>
      </trkpt>
      <trkpt lat="43.13230700000012" lon="-1.2386190000000004">
        <ele>336.873</ele>
        <time>2022-08-24T06:53:23Z</time>
      </trkpt>
      <trkpt lat="43.13229000000012" lon="-1.2386360000000003">
        <ele>336.883</ele>
        <time>2022-08-24T06:53:24Z</time>
      </trkpt>
      <trkpt lat="43.13229000000012" lon="-1.2386360000000003">
        <ele>337.069</ele>
        <time>2022-08-24T06:53:25Z</time>
      </trkpt>
      <trkpt lat="43.132260000000116" lon="-1.2386680000000003">
        <ele>337.261</ele>
        <time>2022-08-24T06:53:26Z</time>
      </trkpt>
      <trkpt lat="43.13224500000012" lon="-1.2386830000000004">
        <ele>337.248</ele>
        <time>2022-08-24T06:53:27Z</time>
      </trkpt>
      <trkpt lat="43.132229000000116" lon="-1.2386970000000004">
        <ele>337.441</ele>
        <time>2022-08-24T06:53:28Z</time>
      </trkpt>
      <trkpt lat="43.13221400000012" lon="-1.2387110000000003">
        <ele>337.625</ele>
        <time>2022-08-24T06:53:29Z</time>
      </trkpt>
      <trkpt lat="43.13220000000012" lon="-1.2387230000000002">
        <ele>337.694</ele>
        <time>2022-08-24T06:53:30Z</time>
      </trkpt>
      <trkpt lat="43.13217800000012" lon="-1.2387390000000003">
        <ele>337.854</ele>
        <time>2022-08-24T06:53:31Z</time>
      </trkpt>
      <trkpt lat="43.132162000000115" lon="-1.2387540000000004">
        <ele>337.856</ele>
        <time>2022-08-24T06:53:32Z</time>
      </trkpt>
      <trkpt lat="43.13214900000011" lon="-1.2387670000000004">
        <ele>338.011</ele>
        <time>2022-08-24T06:53:33Z</time>
      </trkpt>
      <trkpt lat="43.13213300000011" lon="-1.2387860000000004">
        <ele>338.209</ele>
        <time>2022-08-24T06:53:34Z</time>
      </trkpt>
      <trkpt lat="43.13212000000011" lon="-1.2387990000000004">
        <ele>338.436</ele>
        <time>2022-08-24T06:53:35Z</time>
      </trkpt>
      <trkpt lat="43.132109000000106" lon="-1.2388110000000003">
        <ele>338.436</ele>
        <time>2022-08-24T06:53:36Z</time>
      </trkpt>
      <trkpt lat="43.132098000000106" lon="-1.2388260000000004">
        <ele>338.466</ele>
        <time>2022-08-24T06:53:37Z</time>
      </trkpt>
      <trkpt lat="43.132084000000106" lon="-1.2388390000000005">
        <ele>338.642</ele>
        <time>2022-08-24T06:53:38Z</time>
      </trkpt>
      <trkpt lat="43.132070000000105" lon="-1.2388510000000004">
        <ele>338.684</ele>
        <time>2022-08-24T06:53:39Z</time>
      </trkpt>
      <trkpt lat="43.13205500000011" lon="-1.2388670000000004">
        <ele>338.851</ele>
        <time>2022-08-24T06:53:40Z</time>
      </trkpt>
      <trkpt lat="43.13204100000011" lon="-1.2388850000000005">
        <ele>338.874</ele>
        <time>2022-08-24T06:53:41Z</time>
      </trkpt>
      <trkpt lat="43.13203000000011" lon="-1.2389040000000004">
        <ele>339.028</ele>
        <time>2022-08-24T06:53:42Z</time>
      </trkpt>
      <trkpt lat="43.132020000000104" lon="-1.2389230000000004">
        <ele>339.047</ele>
        <time>2022-08-24T06:53:43Z</time>
      </trkpt>
      <trkpt lat="43.1320070000001" lon="-1.2389420000000004">
        <ele>339.028</ele>
        <time>2022-08-24T06:53:44Z</time>
      </trkpt>
      <trkpt lat="43.1320070000001" lon="-1.2389420000000004">
        <ele>339.289</ele>
        <time>2022-08-24T06:53:45Z</time>
      </trkpt>
      <trkpt lat="43.1319800000001" lon="-1.2389770000000004">
        <ele>339.217</ele>
        <time>2022-08-24T06:53:46Z</time>
      </trkpt>
      <trkpt lat="43.1319620000001" lon="-1.2389920000000005">
        <ele>339.209</ele>
        <time>2022-08-24T06:53:47Z</time>
      </trkpt>
      <trkpt lat="43.131944000000104" lon="-1.2390100000000006">
        <ele>339.443</ele>
        <time>2022-08-24T06:53:48Z</time>
      </trkpt>
      <trkpt lat="43.131927000000104" lon="-1.2390270000000005">
        <ele>339.463</ele>
        <time>2022-08-24T06:53:49Z</time>
      </trkpt>
      <trkpt lat="43.1319110000001" lon="-1.2390450000000006">
        <ele>339.683</ele>
        <time>2022-08-24T06:53:50Z</time>
      </trkpt>
      <trkpt lat="43.1318910000001" lon="-1.2390630000000007">
        <ele>339.669</ele>
        <time>2022-08-24T06:53:51Z</time>
      </trkpt>
      <trkpt lat="43.1318690000001" lon="-1.2390790000000007">
        <ele>339.681</ele>
        <time>2022-08-24T06:53:52Z</time>
      </trkpt>
      <trkpt lat="43.131848000000105" lon="-1.2390930000000007">
        <ele>339.868</ele>
        <time>2022-08-24T06:53:53Z</time>
      </trkpt>
      <trkpt lat="43.131825000000106" lon="-1.2391070000000006">
        <ele>339.871</ele>
        <time>2022-08-24T06:53:54Z</time>
      </trkpt>
      <trkpt lat="43.13180200000011" lon="-1.2391180000000006">
        <ele>339.875</ele>
        <time>2022-08-24T06:53:55Z</time>
      </trkpt>
      <trkpt lat="43.131780000000106" lon="-1.2391300000000005">
        <ele>339.814</ele>
        <time>2022-08-24T06:53:56Z</time>
      </trkpt>
      <trkpt lat="43.131758000000104" lon="-1.2391380000000005">
        <ele>339.827</ele>
        <time>2022-08-24T06:53:57Z</time>
      </trkpt>
      <trkpt lat="43.131758000000104" lon="-1.2391380000000005">
        <ele>339.868</ele>
        <time>2022-08-24T06:53:58Z</time>
      </trkpt>
      <trkpt lat="43.13157700000011" lon="-1.2392330000000005">
        <ele>340.014</ele>
        <time>2022-08-24T06:54:04Z</time>
      </trkpt>
      <trkpt lat="43.13157700000011" lon="-1.2392330000000005">
        <ele>340.009</ele>
        <time>2022-08-24T06:54:05Z</time>
      </trkpt>
      <trkpt lat="43.13152500000011" lon="-1.2392570000000005">
        <ele>340.033</ele>
        <time>2022-08-24T06:54:06Z</time>
      </trkpt>
      <trkpt lat="43.13150000000011" lon="-1.2392710000000005">
        <ele>340.063</ele>
        <time>2022-08-24T06:54:07Z</time>
      </trkpt>
      <trkpt lat="43.13147700000011" lon="-1.2392870000000005">
        <ele>340.063</ele>
        <time>2022-08-24T06:54:08Z</time>
      </trkpt>
      <trkpt lat="43.13145200000011" lon="-1.2393060000000005">
        <ele>340.239</ele>
        <time>2022-08-24T06:54:10Z</time>
      </trkpt>
      <trkpt lat="43.13136300000011" lon="-1.2393820000000004">
        <ele>340.281</ele>
        <time>2022-08-24T06:54:13Z</time>
      </trkpt>
      <trkpt lat="43.131341000000106" lon="-1.2394010000000004">
        <ele>340.228</ele>
        <time>2022-08-24T06:54:14Z</time>
      </trkpt>
      <trkpt lat="43.13132000000011" lon="-1.2394260000000004">
        <ele>340.241</ele>
        <time>2022-08-24T06:54:15Z</time>
      </trkpt>
      <trkpt lat="43.13121400000011" lon="-1.2395730000000003">
        <ele>340.665</ele>
        <time>2022-08-24T06:54:21Z</time>
      </trkpt>
      <trkpt lat="43.13117700000011" lon="-1.2396300000000002">
        <ele>340.634</ele>
        <time>2022-08-24T06:54:22Z</time>
      </trkpt>
      <trkpt lat="43.13111700000011" lon="-1.2397170000000002">
        <ele>340.823</ele>
        <time>2022-08-24T06:54:25Z</time>
      </trkpt>
      <trkpt lat="43.13109900000011" lon="-1.239745">
        <ele>341.083</ele>
        <time>2022-08-24T06:54:26Z</time>
      </trkpt>
      <trkpt lat="43.13108200000011" lon="-1.239776">
        <ele>341.211</ele>
        <time>2022-08-24T06:54:27Z</time>
      </trkpt>
      <trkpt lat="43.131064000000116" lon="-1.23981">
        <ele>341.209</ele>
        <time>2022-08-24T06:54:28Z</time>
      </trkpt>
      <trkpt lat="43.13105100000011" lon="-1.239829">
        <ele>341.473</ele>
        <time>2022-08-24T06:54:29Z</time>
      </trkpt>
      <trkpt lat="43.13103700000011" lon="-1.239853">
        <ele>341.453</ele>
        <time>2022-08-24T06:54:30Z</time>
      </trkpt>
      <trkpt lat="43.13102400000011" lon="-1.2398770000000001">
        <ele>341.453</ele>
        <time>2022-08-24T06:54:31Z</time>
      </trkpt>
      <trkpt lat="43.13101300000011" lon="-1.2399000000000002">
        <ele>341.659</ele>
        <time>2022-08-24T06:54:32Z</time>
      </trkpt>
      <trkpt lat="43.13099900000011" lon="-1.2399220000000002">
        <ele>341.821</ele>
        <time>2022-08-24T06:54:33Z</time>
      </trkpt>
      <trkpt lat="43.13098300000011" lon="-1.2399450000000003">
        <ele>341.858</ele>
        <time>2022-08-24T06:54:34Z</time>
      </trkpt>
      <trkpt lat="43.130956000000104" lon="-1.2399830000000003">
        <ele>342.211</ele>
        <time>2022-08-24T06:54:36Z</time>
      </trkpt>
      <trkpt lat="43.130944000000106" lon="-1.2400070000000003">
        <ele>342.485</ele>
        <time>2022-08-24T06:54:37Z</time>
      </trkpt>
      <trkpt lat="43.1309030000001" lon="-1.2400730000000002">
        <ele>342.824</ele>
        <time>2022-08-24T06:54:40Z</time>
      </trkpt>
      <trkpt lat="43.1308560000001" lon="-1.240139">
        <ele>343.082</ele>
        <time>2022-08-24T06:54:43Z</time>
      </trkpt>
      <trkpt lat="43.1308120000001" lon="-1.24021">
        <ele>343.243</ele>
        <time>2022-08-24T06:54:46Z</time>
      </trkpt>
      <trkpt lat="43.1307970000001" lon="-1.240234">
        <ele>343.217</ele>
        <time>2022-08-24T06:54:47Z</time>
      </trkpt>
      <trkpt lat="43.1307840000001" lon="-1.240261">
        <ele>343.409</ele>
        <time>2022-08-24T06:54:48Z</time>
      </trkpt>
      <trkpt lat="43.1307720000001" lon="-1.240288">
        <ele>343.449</ele>
        <time>2022-08-24T06:54:49Z</time>
      </trkpt>
      <trkpt lat="43.1307630000001" lon="-1.240316">
        <ele>343.669</ele>
        <time>2022-08-24T06:54:50Z</time>
      </trkpt>
      <trkpt lat="43.1307550000001" lon="-1.240342">
        <ele>343.679</ele>
        <time>2022-08-24T06:54:51Z</time>
      </trkpt>
      <trkpt lat="43.1307450000001" lon="-1.240369">
        <ele>343.665</ele>
        <time>2022-08-24T06:54:52Z</time>
      </trkpt>
      <trkpt lat="43.130737000000096" lon="-1.240397">
        <ele>343.647</ele>
        <time>2022-08-24T06:54:53Z</time>
      </trkpt>
      <trkpt lat="43.1307160000001" lon="-1.240484">
        <ele>343.874</ele>
        <time>2022-08-24T06:54:56Z</time>
      </trkpt>
      <trkpt lat="43.1307100000001" lon="-1.24051">
        <ele>343.817</ele>
        <time>2022-08-24T06:54:57Z</time>
      </trkpt>
      <trkpt lat="43.1307030000001" lon="-1.240537">
        <ele>343.861</ele>
        <time>2022-08-24T06:54:58Z</time>
      </trkpt>
      <trkpt lat="43.13069900000011" lon="-1.240562">
        <ele>343.860</ele>
        <time>2022-08-24T06:54:59Z</time>
      </trkpt>
      <trkpt lat="43.13069300000011" lon="-1.240588">
        <ele>343.893</ele>
        <time>2022-08-24T06:55:00Z</time>
      </trkpt>
      <trkpt lat="43.13068700000011" lon="-1.240613">
        <ele>344.065</ele>
        <time>2022-08-24T06:55:01Z</time>
      </trkpt>
      <trkpt lat="43.13068000000011" lon="-1.240639">
        <ele>344.021</ele>
        <time>2022-08-24T06:55:02Z</time>
      </trkpt>
      <trkpt lat="43.13067400000011" lon="-1.240663">
        <ele>344.209</ele>
        <time>2022-08-24T06:55:03Z</time>
      </trkpt>
      <trkpt lat="43.13067400000011" lon="-1.240663">
        <ele>344.240</ele>
        <time>2022-08-24T06:55:04Z</time>
      </trkpt>
      <trkpt lat="43.13065800000011" lon="-1.240712">
        <ele>344.470</ele>
        <time>2022-08-24T06:55:05Z</time>
      </trkpt>
      <trkpt lat="43.13064300000011" lon="-1.24076">
        <ele>344.470</ele>
        <time>2022-08-24T06:55:07Z</time>
      </trkpt>
      <trkpt lat="43.130637000000114" lon="-1.240779">
        <ele>344.696</ele>
        <time>2022-08-24T06:55:08Z</time>
      </trkpt>
      <trkpt lat="43.13063300000012" lon="-1.2407970000000001">
        <ele>344.868</ele>
        <time>2022-08-24T06:55:09Z</time>
      </trkpt>
      <trkpt lat="43.130628000000115" lon="-1.2408150000000002">
        <ele>345.075</ele>
        <time>2022-08-24T06:55:10Z</time>
      </trkpt>
      <trkpt lat="43.130623000000114" lon="-1.2408320000000002">
        <ele>345.028</ele>
        <time>2022-08-24T06:55:11Z</time>
      </trkpt>
      <trkpt lat="43.13061800000011" lon="-1.2408640000000002">
        <ele>345.412</ele>
        <time>2022-08-24T06:55:13Z</time>
      </trkpt>
      <trkpt lat="43.13061200000011" lon="-1.2408830000000002">
        <ele>345.661</ele>
        <time>2022-08-24T06:55:14Z</time>
      </trkpt>
      <trkpt lat="43.130606000000114" lon="-1.2409040000000002">
        <ele>345.885</ele>
        <time>2022-08-24T06:55:15Z</time>
      </trkpt>
      <trkpt lat="43.130591000000116" lon="-1.2409410000000003">
        <ele>346.689</ele>
        <time>2022-08-24T06:55:17Z</time>
      </trkpt>
      <trkpt lat="43.13058100000011" lon="-1.2409580000000002">
        <ele>347.017</ele>
        <time>2022-08-24T06:55:18Z</time>
      </trkpt>
      <trkpt lat="43.13057400000012" lon="-1.2409760000000003">
        <ele>347.409</ele>
        <time>2022-08-24T06:55:19Z</time>
      </trkpt>
      <trkpt lat="43.13056700000012" lon="-1.2409890000000003">
        <ele>347.629</ele>
        <time>2022-08-24T06:55:20Z</time>
      </trkpt>
      <trkpt lat="43.13055600000012" lon="-1.2410060000000003">
        <ele>348.059</ele>
        <time>2022-08-24T06:55:21Z</time>
      </trkpt>
      <trkpt lat="43.13054500000012" lon="-1.2410220000000003">
        <ele>348.049</ele>
        <time>2022-08-24T06:55:22Z</time>
      </trkpt>
      <trkpt lat="43.13053400000012" lon="-1.2410360000000003">
        <ele>348.415</ele>
        <time>2022-08-24T06:55:23Z</time>
      </trkpt>
      <trkpt lat="43.130524000000115" lon="-1.2410520000000003">
        <ele>348.637</ele>
        <time>2022-08-24T06:55:24Z</time>
      </trkpt>
      <trkpt lat="43.130515000000116" lon="-1.2410700000000003">
        <ele>349.094</ele>
        <time>2022-08-24T06:55:25Z</time>
      </trkpt>
      <trkpt lat="43.13050500000011" lon="-1.2410860000000004">
        <ele>349.457</ele>
        <time>2022-08-24T06:55:26Z</time>
      </trkpt>
      <trkpt lat="43.13050500000011" lon="-1.2410860000000004">
        <ele>349.621</ele>
        <time>2022-08-24T06:55:27Z</time>
      </trkpt>
      <trkpt lat="43.130484000000116" lon="-1.2411180000000004">
        <ele>349.830</ele>
        <time>2022-08-24T06:55:28Z</time>
      </trkpt>
      <trkpt lat="43.13047400000011" lon="-1.2411350000000003">
        <ele>350.072</ele>
        <time>2022-08-24T06:55:29Z</time>
      </trkpt>
      <trkpt lat="43.13046400000011" lon="-1.2411490000000003">
        <ele>350.413</ele>
        <time>2022-08-24T06:55:30Z</time>
      </trkpt>
      <trkpt lat="43.13045600000011" lon="-1.2411650000000003">
        <ele>350.414</ele>
        <time>2022-08-24T06:55:31Z</time>
      </trkpt>
      <trkpt lat="43.13044700000011" lon="-1.2411810000000003">
        <ele>350.809</ele>
        <time>2022-08-24T06:55:32Z</time>
      </trkpt>
      <trkpt lat="43.13043500000011" lon="-1.2411970000000003">
        <ele>351.288</ele>
        <time>2022-08-24T06:55:33Z</time>
      </trkpt>
      <trkpt lat="43.13042100000011" lon="-1.2412140000000003">
        <ele>351.488</ele>
        <time>2022-08-24T06:55:34Z</time>
      </trkpt>
      <trkpt lat="43.13040500000011" lon="-1.2412330000000003">
        <ele>351.628</ele>
        <time>2022-08-24T06:55:35Z</time>
      </trkpt>
      <trkpt lat="43.13038800000011" lon="-1.2412510000000003">
        <ele>351.864</ele>
        <time>2022-08-24T06:55:36Z</time>
      </trkpt>
      <trkpt lat="43.13036600000011" lon="-1.2412700000000003">
        <ele>351.886</ele>
        <time>2022-08-24T06:55:37Z</time>
      </trkpt>
      <trkpt lat="43.13034300000011" lon="-1.2412900000000002">
        <ele>351.893</ele>
        <time>2022-08-24T06:55:38Z</time>
      </trkpt>
      <trkpt lat="43.13031900000011" lon="-1.2413140000000003">
        <ele>352.036</ele>
        <time>2022-08-24T06:55:39Z</time>
      </trkpt>
      <trkpt lat="43.1302950000001" lon="-1.2413370000000004">
        <ele>352.250</ele>
        <time>2022-08-24T06:55:40Z</time>
      </trkpt>
      <trkpt lat="43.130269000000105" lon="-1.2413580000000004">
        <ele>352.289</ele>
        <time>2022-08-24T06:55:41Z</time>
      </trkpt>
      <trkpt lat="43.1302420000001" lon="-1.2413790000000005">
        <ele>352.247</ele>
        <time>2022-08-24T06:55:42Z</time>
      </trkpt>
      <trkpt lat="43.1302150000001" lon="-1.2414000000000005">
        <ele>352.229</ele>
        <time>2022-08-24T06:55:43Z</time>
      </trkpt>
      <trkpt lat="43.130188000000096" lon="-1.2414200000000004">
        <ele>352.021</ele>
        <time>2022-08-24T06:55:44Z</time>
      </trkpt>
      <trkpt lat="43.130160000000096" lon="-1.2414410000000005">
        <ele>351.809</ele>
        <time>2022-08-24T06:55:45Z</time>
      </trkpt>
      <trkpt lat="43.130135000000095" lon="-1.2414610000000004">
        <ele>351.835</ele>
        <time>2022-08-24T06:55:46Z</time>
      </trkpt>
      <trkpt lat="43.13011100000009" lon="-1.2414790000000004">
        <ele>351.865</ele>
        <time>2022-08-24T06:55:47Z</time>
      </trkpt>
      <trkpt lat="43.13008900000009" lon="-1.2415000000000005">
        <ele>351.865</ele>
        <time>2022-08-24T06:55:48Z</time>
      </trkpt>
      <trkpt lat="43.13006600000009" lon="-1.2415190000000005">
        <ele>351.831</ele>
        <time>2022-08-24T06:55:49Z</time>
      </trkpt>
      <trkpt lat="43.130045000000095" lon="-1.2415330000000004">
        <ele>351.833</ele>
        <time>2022-08-24T06:55:50Z</time>
      </trkpt>
      <trkpt lat="43.13002600000009" lon="-1.2415440000000004">
        <ele>351.820</ele>
        <time>2022-08-24T06:55:51Z</time>
      </trkpt>
      <trkpt lat="43.13000900000009" lon="-1.2415520000000004">
        <ele>351.853</ele>
        <time>2022-08-24T06:55:52Z</time>
      </trkpt>
      <trkpt lat="43.129992000000094" lon="-1.2415590000000005">
        <ele>351.847</ele>
        <time>2022-08-24T06:55:53Z</time>
      </trkpt>
      <trkpt lat="43.129975000000094" lon="-1.2415730000000005">
        <ele>351.856</ele>
        <time>2022-08-24T06:55:54Z</time>
      </trkpt>
      <trkpt lat="43.12996200000009" lon="-1.2415930000000004">
        <ele>351.855</ele>
        <time>2022-08-24T06:55:55Z</time>
      </trkpt>
      <trkpt lat="43.12990800000009" lon="-1.2416450000000003">
        <ele>351.807</ele>
        <time>2022-08-24T06:55:58Z</time>
      </trkpt>
      <trkpt lat="43.12989100000009" lon="-1.2416580000000004">
        <ele>351.817</ele>
        <time>2022-08-24T06:55:59Z</time>
      </trkpt>
      <trkpt lat="43.129876000000095" lon="-1.2416730000000005">
        <ele>351.809</ele>
        <time>2022-08-24T06:56:00Z</time>
      </trkpt>
      <trkpt lat="43.1298610000001" lon="-1.2416880000000006">
        <ele>351.886</ele>
        <time>2022-08-24T06:56:01Z</time>
      </trkpt>
      <trkpt lat="43.1298460000001" lon="-1.2417040000000006">
        <ele>351.886</ele>
        <time>2022-08-24T06:56:02Z</time>
      </trkpt>
      <trkpt lat="43.1298040000001" lon="-1.2417660000000006">
        <ele>352.086</ele>
        <time>2022-08-24T06:56:05Z</time>
      </trkpt>
      <trkpt lat="43.1297760000001" lon="-1.2418070000000005">
        <ele>352.052</ele>
        <time>2022-08-24T06:56:07Z</time>
      </trkpt>
      <trkpt lat="43.1297340000001" lon="-1.2419000000000004">
        <ele>352.074</ele>
        <time>2022-08-24T06:56:11Z</time>
      </trkpt>
      <trkpt lat="43.1297260000001" lon="-1.2419220000000004">
        <ele>352.061</ele>
        <time>2022-08-24T06:56:12Z</time>
      </trkpt>
      <trkpt lat="43.1297190000001" lon="-1.2419430000000005">
        <ele>352.074</ele>
        <time>2022-08-24T06:56:13Z</time>
      </trkpt>
      <trkpt lat="43.1297130000001" lon="-1.2419650000000004">
        <ele>352.088</ele>
        <time>2022-08-24T06:56:14Z</time>
      </trkpt>
      <trkpt lat="43.1297050000001" lon="-1.2419870000000004">
        <ele>352.057</ele>
        <time>2022-08-24T06:56:15Z</time>
      </trkpt>
      <trkpt lat="43.1296970000001" lon="-1.2420060000000004">
        <ele>352.245</ele>
        <time>2022-08-24T06:56:16Z</time>
      </trkpt>
      <trkpt lat="43.1296710000001" lon="-1.2420670000000005">
        <ele>352.247</ele>
        <time>2022-08-24T06:56:19Z</time>
      </trkpt>
      <trkpt lat="43.1296630000001" lon="-1.2420840000000004">
        <ele>352.211</ele>
        <time>2022-08-24T06:56:20Z</time>
      </trkpt>
      <trkpt lat="43.1296480000001" lon="-1.2421240000000004">
        <ele>352.409</ele>
        <time>2022-08-24T06:56:22Z</time>
      </trkpt>
      <trkpt lat="43.129641000000106" lon="-1.2421450000000005">
        <ele>352.425</ele>
        <time>2022-08-24T06:56:23Z</time>
      </trkpt>
      <trkpt lat="43.1296140000001" lon="-1.2422080000000004">
        <ele>352.885</ele>
        <time>2022-08-24T06:56:26Z</time>
      </trkpt>
      <trkpt lat="43.1295870000001" lon="-1.2423010000000003">
        <ele>353.215</ele>
        <time>2022-08-24T06:56:30Z</time>
      </trkpt>
      <trkpt lat="43.1295820000001" lon="-1.2423240000000004">
        <ele>353.421</ele>
        <time>2022-08-24T06:56:31Z</time>
      </trkpt>
      <trkpt lat="43.1295760000001" lon="-1.2423470000000005">
        <ele>353.673</ele>
        <time>2022-08-24T06:56:32Z</time>
      </trkpt>
      <trkpt lat="43.1295690000001" lon="-1.2423690000000005">
        <ele>354.010</ele>
        <time>2022-08-24T06:56:33Z</time>
      </trkpt>
      <trkpt lat="43.1295590000001" lon="-1.2424100000000005">
        <ele>354.453</ele>
        <time>2022-08-24T06:56:36Z</time>
      </trkpt>
      <trkpt lat="43.1295540000001" lon="-1.2424500000000005">
        <ele>354.827</ele>
        <time>2022-08-24T06:56:37Z</time>
      </trkpt>
      <trkpt lat="43.1295310000001" lon="-1.2425320000000004">
        <ele>356.036</ele>
        <time>2022-08-24T06:56:41Z</time>
      </trkpt>
      <trkpt lat="43.1295280000001" lon="-1.2425510000000004">
        <ele>356.442</ele>
        <time>2022-08-24T06:56:42Z</time>
      </trkpt>
      <trkpt lat="43.1295230000001" lon="-1.2425670000000004">
        <ele>356.422</ele>
        <time>2022-08-24T06:56:43Z</time>
      </trkpt>
      <trkpt lat="43.1295150000001" lon="-1.2425820000000005">
        <ele>356.814</ele>
        <time>2022-08-24T06:56:44Z</time>
      </trkpt>
      <trkpt lat="43.1295090000001" lon="-1.2425980000000005">
        <ele>357.009</ele>
        <time>2022-08-24T06:56:45Z</time>
      </trkpt>
      <trkpt lat="43.1295030000001" lon="-1.2426170000000005">
        <ele>357.275</ele>
        <time>2022-08-24T06:56:46Z</time>
      </trkpt>
      <trkpt lat="43.1294980000001" lon="-1.2426360000000005">
        <ele>357.685</ele>
        <time>2022-08-24T06:56:47Z</time>
      </trkpt>
      <trkpt lat="43.1294950000001" lon="-1.2426550000000005">
        <ele>357.825</ele>
        <time>2022-08-24T06:56:48Z</time>
      </trkpt>
      <trkpt lat="43.129493000000096" lon="-1.2426720000000004">
        <ele>358.221</ele>
        <time>2022-08-24T06:56:49Z</time>
      </trkpt>
      <trkpt lat="43.129493000000096" lon="-1.2426870000000005">
        <ele>358.453</ele>
        <time>2022-08-24T06:56:50Z</time>
      </trkpt>
      <trkpt lat="43.129493000000096" lon="-1.2427020000000006">
        <ele>358.840</ele>
        <time>2022-08-24T06:56:51Z</time>
      </trkpt>
      <trkpt lat="43.1294900000001" lon="-1.2427170000000007">
        <ele>358.823</ele>
        <time>2022-08-24T06:56:52Z</time>
      </trkpt>
      <trkpt lat="43.1294890000001" lon="-1.2427330000000008">
        <ele>359.487</ele>
        <time>2022-08-24T06:56:53Z</time>
      </trkpt>
      <trkpt lat="43.1294890000001" lon="-1.2427500000000007">
        <ele>359.866</ele>
        <time>2022-08-24T06:56:54Z</time>
      </trkpt>
      <trkpt lat="43.1294890000001" lon="-1.2427500000000007">
        <ele>360.049</ele>
        <time>2022-08-24T06:56:55Z</time>
      </trkpt>
      <trkpt lat="43.1294860000001" lon="-1.2427850000000007">
        <ele>360.202</ele>
        <time>2022-08-24T06:56:56Z</time>
      </trkpt>
      <trkpt lat="43.1294850000001" lon="-1.2428020000000006">
        <ele>360.422</ele>
        <time>2022-08-24T06:56:57Z</time>
      </trkpt>
      <trkpt lat="43.1294850000001" lon="-1.2428190000000006">
        <ele>360.809</ele>
        <time>2022-08-24T06:56:58Z</time>
      </trkpt>
      <trkpt lat="43.1294830000001" lon="-1.2428350000000006">
        <ele>361.035</ele>
        <time>2022-08-24T06:56:59Z</time>
      </trkpt>
      <trkpt lat="43.1294790000001" lon="-1.2428530000000007">
        <ele>361.265</ele>
        <time>2022-08-24T06:57:00Z</time>
      </trkpt>
      <trkpt lat="43.129478000000105" lon="-1.2428690000000007">
        <ele>361.255</ele>
        <time>2022-08-24T06:57:01Z</time>
      </trkpt>
      <trkpt lat="43.129478000000105" lon="-1.2428850000000007">
        <ele>361.611</ele>
        <time>2022-08-24T06:57:02Z</time>
      </trkpt>
      <trkpt lat="43.129478000000105" lon="-1.2429000000000008">
        <ele>362.083</ele>
        <time>2022-08-24T06:57:03Z</time>
      </trkpt>
      <trkpt lat="43.1294790000001" lon="-1.2429140000000007">
        <ele>362.250</ele>
        <time>2022-08-24T06:57:04Z</time>
      </trkpt>
      <trkpt lat="43.1294820000001" lon="-1.2429260000000006">
        <ele>362.493</ele>
        <time>2022-08-24T06:57:05Z</time>
      </trkpt>
      <trkpt lat="43.1294830000001" lon="-1.2429400000000006">
        <ele>362.617</ele>
        <time>2022-08-24T06:57:06Z</time>
      </trkpt>
      <trkpt lat="43.1294800000001" lon="-1.2429540000000006">
        <ele>363.096</ele>
        <time>2022-08-24T06:57:07Z</time>
      </trkpt>
      <trkpt lat="43.1294810000001" lon="-1.2429700000000006">
        <ele>363.098</ele>
        <time>2022-08-24T06:57:08Z</time>
      </trkpt>
      <trkpt lat="43.1294830000001" lon="-1.2429830000000006">
        <ele>363.415</ele>
        <time>2022-08-24T06:57:09Z</time>
      </trkpt>
      <trkpt lat="43.1294860000001" lon="-1.2429920000000005">
        <ele>363.626</ele>
        <time>2022-08-24T06:57:10Z</time>
      </trkpt>
      <trkpt lat="43.1294910000001" lon="-1.2430050000000006">
        <ele>363.809</ele>
        <time>2022-08-24T06:57:11Z</time>
      </trkpt>
      <trkpt lat="43.1294970000001" lon="-1.2430230000000007">
        <ele>364.080</ele>
        <time>2022-08-24T06:57:12Z</time>
      </trkpt>
      <trkpt lat="43.1295010000001" lon="-1.2430410000000007">
        <ele>364.240</ele>
        <time>2022-08-24T06:57:13Z</time>
      </trkpt>
      <trkpt lat="43.1295010000001" lon="-1.2430580000000007">
        <ele>364.420</ele>
        <time>2022-08-24T06:57:14Z</time>
      </trkpt>
      <trkpt lat="43.1295010000001" lon="-1.2430750000000006">
        <ele>364.616</ele>
        <time>2022-08-24T06:57:15Z</time>
      </trkpt>
      <trkpt lat="43.1295040000001" lon="-1.2430900000000007">
        <ele>364.858</ele>
        <time>2022-08-24T06:57:16Z</time>
      </trkpt>
      <trkpt lat="43.1295090000001" lon="-1.2431050000000008">
        <ele>365.025</ele>
        <time>2022-08-24T06:57:17Z</time>
      </trkpt>
      <trkpt lat="43.1295150000001" lon="-1.2431220000000007">
        <ele>365.088</ele>
        <time>2022-08-24T06:57:18Z</time>
      </trkpt>
      <trkpt lat="43.129519000000094" lon="-1.2431380000000007">
        <ele>365.432</ele>
        <time>2022-08-24T06:57:19Z</time>
      </trkpt>
      <trkpt lat="43.129521000000096" lon="-1.2431550000000007">
        <ele>365.641</ele>
        <time>2022-08-24T06:57:20Z</time>
      </trkpt>
      <trkpt lat="43.129524000000096" lon="-1.2431750000000006">
        <ele>366.055</ele>
        <time>2022-08-24T06:57:21Z</time>
      </trkpt>
      <trkpt lat="43.12952800000009" lon="-1.2431950000000005">
        <ele>366.207</ele>
        <time>2022-08-24T06:57:22Z</time>
      </trkpt>
      <trkpt lat="43.12953200000009" lon="-1.2432100000000006">
        <ele>366.417</ele>
        <time>2022-08-24T06:57:23Z</time>
      </trkpt>
      <trkpt lat="43.12953200000009" lon="-1.2432100000000006">
        <ele>366.809</ele>
        <time>2022-08-24T06:57:24Z</time>
      </trkpt>
      <trkpt lat="43.12954300000009" lon="-1.2432380000000005">
        <ele>367.076</ele>
        <time>2022-08-24T06:57:25Z</time>
      </trkpt>
      <trkpt lat="43.12955000000009" lon="-1.2432520000000005">
        <ele>367.426</ele>
        <time>2022-08-24T06:57:26Z</time>
      </trkpt>
      <trkpt lat="43.129557000000084" lon="-1.2432680000000005">
        <ele>367.696</ele>
        <time>2022-08-24T06:57:27Z</time>
      </trkpt>
      <trkpt lat="43.129562000000085" lon="-1.2432840000000005">
        <ele>367.892</ele>
        <time>2022-08-24T06:57:28Z</time>
      </trkpt>
      <trkpt lat="43.12956400000009" lon="-1.2433010000000004">
        <ele>368.034</ele>
        <time>2022-08-24T06:57:29Z</time>
      </trkpt>
      <trkpt lat="43.12956700000009" lon="-1.2433170000000004">
        <ele>368.241</ele>
        <time>2022-08-24T06:57:30Z</time>
      </trkpt>
      <trkpt lat="43.129571000000084" lon="-1.2433350000000005">
        <ele>368.624</ele>
        <time>2022-08-24T06:57:31Z</time>
      </trkpt>
      <trkpt lat="43.129576000000085" lon="-1.2433540000000005">
        <ele>368.868</ele>
        <time>2022-08-24T06:57:32Z</time>
      </trkpt>
      <trkpt lat="43.12958000000008" lon="-1.2433750000000006">
        <ele>369.247</ele>
        <time>2022-08-24T06:57:33Z</time>
      </trkpt>
      <trkpt lat="43.12958600000008" lon="-1.2433910000000006">
        <ele>369.222</ele>
        <time>2022-08-24T06:57:34Z</time>
      </trkpt>
      <trkpt lat="43.12959000000008" lon="-1.2434080000000005">
        <ele>369.662</ele>
        <time>2022-08-24T06:57:35Z</time>
      </trkpt>
      <trkpt lat="43.12959800000008" lon="-1.2434230000000006">
        <ele>369.608</ele>
        <time>2022-08-24T06:57:36Z</time>
      </trkpt>
      <trkpt lat="43.12960800000008" lon="-1.2434370000000006">
        <ele>370.009</ele>
        <time>2022-08-24T06:57:37Z</time>
      </trkpt>
      <trkpt lat="43.12961700000008" lon="-1.2434510000000005">
        <ele>370.243</ele>
        <time>2022-08-24T06:57:38Z</time>
      </trkpt>
      <trkpt lat="43.129627000000085" lon="-1.2434680000000005">
        <ele>370.643</ele>
        <time>2022-08-24T06:57:39Z</time>
      </trkpt>
      <trkpt lat="43.129632000000086" lon="-1.2434830000000006">
        <ele>371.013</ele>
        <time>2022-08-24T06:57:40Z</time>
      </trkpt>
      <trkpt lat="43.12963600000008" lon="-1.2434990000000006">
        <ele>371.229</ele>
        <time>2022-08-24T06:57:41Z</time>
      </trkpt>
      <trkpt lat="43.12964300000008" lon="-1.2435110000000005">
        <ele>371.481</ele>
        <time>2022-08-24T06:57:42Z</time>
      </trkpt>
      <trkpt lat="43.12964600000008" lon="-1.2435290000000006">
        <ele>371.698</ele>
        <time>2022-08-24T06:57:43Z</time>
      </trkpt>
      <trkpt lat="43.12965100000008" lon="-1.2435450000000006">
        <ele>371.691</ele>
        <time>2022-08-24T06:57:44Z</time>
      </trkpt>
      <trkpt lat="43.12965800000008" lon="-1.2435600000000007">
        <ele>371.875</ele>
        <time>2022-08-24T06:57:45Z</time>
      </trkpt>
      <trkpt lat="43.12966300000008" lon="-1.2435750000000008">
        <ele>371.844</ele>
        <time>2022-08-24T06:57:46Z</time>
      </trkpt>
      <trkpt lat="43.12967100000008" lon="-1.2435970000000007">
        <ele>372.244</ele>
        <time>2022-08-24T06:57:47Z</time>
      </trkpt>
      <trkpt lat="43.12967800000008" lon="-1.2436140000000007">
        <ele>372.205</ele>
        <time>2022-08-24T06:57:48Z</time>
      </trkpt>
      <trkpt lat="43.12967800000008" lon="-1.2436140000000007">
        <ele>372.615</ele>
        <time>2022-08-24T06:57:49Z</time>
      </trkpt>
      <trkpt lat="43.129690000000075" lon="-1.2436470000000006">
        <ele>372.809</ele>
        <time>2022-08-24T06:57:50Z</time>
      </trkpt>
      <trkpt lat="43.129693000000074" lon="-1.2436620000000007">
        <ele>373.045</ele>
        <time>2022-08-24T06:57:51Z</time>
      </trkpt>
      <trkpt lat="43.129695000000076" lon="-1.2436790000000006">
        <ele>373.035</ele>
        <time>2022-08-24T06:57:52Z</time>
      </trkpt>
      <trkpt lat="43.12970000000008" lon="-1.2436970000000007">
        <ele>373.465</ele>
        <time>2022-08-24T06:57:53Z</time>
      </trkpt>
      <trkpt lat="43.129707000000074" lon="-1.2437150000000008">
        <ele>373.621</ele>
        <time>2022-08-24T06:57:54Z</time>
      </trkpt>
      <trkpt lat="43.129715000000076" lon="-1.2437320000000007">
        <ele>373.893</ele>
        <time>2022-08-24T06:57:55Z</time>
      </trkpt>
      <trkpt lat="43.12972000000008" lon="-1.2437510000000007">
        <ele>374.080</ele>
        <time>2022-08-24T06:57:56Z</time>
      </trkpt>
      <trkpt lat="43.129724000000074" lon="-1.2437690000000008">
        <ele>374.023</ele>
        <time>2022-08-24T06:57:57Z</time>
      </trkpt>
      <trkpt lat="43.12973000000007" lon="-1.2437850000000008">
        <ele>374.287</ele>
        <time>2022-08-24T06:57:58Z</time>
      </trkpt>
      <trkpt lat="43.12973700000007" lon="-1.243800000000001">
        <ele>374.446</ele>
        <time>2022-08-24T06:57:59Z</time>
      </trkpt>
      <trkpt lat="43.12974600000007" lon="-1.2438120000000008">
        <ele>374.848</ele>
        <time>2022-08-24T06:58:00Z</time>
      </trkpt>
      <trkpt lat="43.12975600000007" lon="-1.2438250000000008">
        <ele>375.061</ele>
        <time>2022-08-24T06:58:01Z</time>
      </trkpt>
      <trkpt lat="43.12976400000007" lon="-1.243843000000001">
        <ele>375.217</ele>
        <time>2022-08-24T06:58:02Z</time>
      </trkpt>
      <trkpt lat="43.12976800000007" lon="-1.2438600000000009">
        <ele>375.409</ele>
        <time>2022-08-24T06:58:03Z</time>
      </trkpt>
      <trkpt lat="43.12977400000007" lon="-1.243878000000001">
        <ele>375.675</ele>
        <time>2022-08-24T06:58:04Z</time>
      </trkpt>
      <trkpt lat="43.12977600000007" lon="-1.2438980000000008">
        <ele>375.675</ele>
        <time>2022-08-24T06:58:05Z</time>
      </trkpt>
      <trkpt lat="43.12977600000007" lon="-1.2438980000000008">
        <ele>375.685</ele>
        <time>2022-08-24T06:58:06Z</time>
      </trkpt>
      <trkpt lat="43.12978400000007" lon="-1.243935000000001">
        <ele>375.841</ele>
        <time>2022-08-24T06:58:07Z</time>
      </trkpt>
      <trkpt lat="43.12979000000007" lon="-1.2439490000000009">
        <ele>376.023</ele>
        <time>2022-08-24T06:58:08Z</time>
      </trkpt>
      <trkpt lat="43.12979900000007" lon="-1.2439610000000008">
        <ele>376.270</ele>
        <time>2022-08-24T06:58:09Z</time>
      </trkpt>
      <trkpt lat="43.12980800000007" lon="-1.2439740000000008">
        <ele>376.263</ele>
        <time>2022-08-24T06:58:10Z</time>
      </trkpt>
      <trkpt lat="43.12981400000007" lon="-1.2439900000000008">
        <ele>376.257</ele>
        <time>2022-08-24T06:58:11Z</time>
      </trkpt>
      <trkpt lat="43.129820000000066" lon="-1.244005000000001">
        <ele>376.446</ele>
        <time>2022-08-24T06:58:12Z</time>
      </trkpt>
      <trkpt lat="43.129826000000065" lon="-1.2440220000000008">
        <ele>376.646</ele>
        <time>2022-08-24T06:58:13Z</time>
      </trkpt>
      <trkpt lat="43.12983300000006" lon="-1.2440380000000009">
        <ele>376.688</ele>
        <time>2022-08-24T06:58:14Z</time>
      </trkpt>
      <trkpt lat="43.12984100000006" lon="-1.244051000000001">
        <ele>376.816</ele>
        <time>2022-08-24T06:58:15Z</time>
      </trkpt>
      <trkpt lat="43.12985000000006" lon="-1.244066000000001">
        <ele>376.809</ele>
        <time>2022-08-24T06:58:16Z</time>
      </trkpt>
      <trkpt lat="43.12985500000006" lon="-1.244086000000001">
        <ele>376.835</ele>
        <time>2022-08-24T06:58:17Z</time>
      </trkpt>
      <trkpt lat="43.12986100000006" lon="-1.2441060000000008">
        <ele>376.875</ele>
        <time>2022-08-24T06:58:18Z</time>
      </trkpt>
      <trkpt lat="43.12986700000006" lon="-1.2441260000000007">
        <ele>377.035</ele>
        <time>2022-08-24T06:58:19Z</time>
      </trkpt>
      <trkpt lat="43.12987500000006" lon="-1.2441440000000008">
        <ele>377.261</ele>
        <time>2022-08-24T06:58:20Z</time>
      </trkpt>
      <trkpt lat="43.12988300000006" lon="-1.244159000000001">
        <ele>377.433</ele>
        <time>2022-08-24T06:58:21Z</time>
      </trkpt>
      <trkpt lat="43.129891000000065" lon="-1.244177000000001">
        <ele>377.430</ele>
        <time>2022-08-24T06:58:22Z</time>
      </trkpt>
      <trkpt lat="43.129897000000064" lon="-1.244195000000001">
        <ele>377.653</ele>
        <time>2022-08-24T06:58:23Z</time>
      </trkpt>
      <trkpt lat="43.12990300000006" lon="-1.2442130000000011">
        <ele>377.687</ele>
        <time>2022-08-24T06:58:24Z</time>
      </trkpt>
      <trkpt lat="43.12990700000006" lon="-1.2442310000000012">
        <ele>377.846</ele>
        <time>2022-08-24T06:58:25Z</time>
      </trkpt>
      <trkpt lat="43.129914000000056" lon="-1.2442460000000013">
        <ele>378.094</ele>
        <time>2022-08-24T06:58:26Z</time>
      </trkpt>
      <trkpt lat="43.12992100000005" lon="-1.2442630000000012">
        <ele>378.057</ele>
        <time>2022-08-24T06:58:27Z</time>
      </trkpt>
      <trkpt lat="43.12993000000005" lon="-1.2442760000000013">
        <ele>378.222</ele>
        <time>2022-08-24T06:58:28Z</time>
      </trkpt>
      <trkpt lat="43.129940000000055" lon="-1.2442900000000012">
        <ele>378.209</ele>
        <time>2022-08-24T06:58:29Z</time>
      </trkpt>
      <trkpt lat="43.12995200000005" lon="-1.2443050000000013">
        <ele>378.410</ele>
        <time>2022-08-24T06:58:30Z</time>
      </trkpt>
      <trkpt lat="43.12996300000005" lon="-1.2443240000000013">
        <ele>378.880</ele>
        <time>2022-08-24T06:58:31Z</time>
      </trkpt>
      <trkpt lat="43.12997200000005" lon="-1.2443470000000014">
        <ele>378.880</ele>
        <time>2022-08-24T06:58:32Z</time>
      </trkpt>
      <trkpt lat="43.12997900000005" lon="-1.2443710000000014">
        <ele>378.816</ele>
        <time>2022-08-24T06:58:33Z</time>
      </trkpt>
      <trkpt lat="43.12998500000005" lon="-1.2443960000000014">
        <ele>379.088</ele>
        <time>2022-08-24T06:58:34Z</time>
      </trkpt>
      <trkpt lat="43.12999300000005" lon="-1.2444170000000014">
        <ele>379.045</ele>
        <time>2022-08-24T06:58:35Z</time>
      </trkpt>
      <trkpt lat="43.13000400000005" lon="-1.2444380000000015">
        <ele>379.058</ele>
        <time>2022-08-24T06:58:36Z</time>
      </trkpt>
      <trkpt lat="43.13001600000005" lon="-1.2444550000000014">
        <ele>379.222</ele>
        <time>2022-08-24T06:58:37Z</time>
      </trkpt>
      <trkpt lat="43.13002700000005" lon="-1.2444730000000015">
        <ele>379.471</ele>
        <time>2022-08-24T06:58:38Z</time>
      </trkpt>
      <trkpt lat="43.13003700000005" lon="-1.2444920000000015">
        <ele>379.464</ele>
        <time>2022-08-24T06:58:39Z</time>
      </trkpt>
      <trkpt lat="43.13004600000005" lon="-1.2445100000000016">
        <ele>379.606</ele>
        <time>2022-08-24T06:58:40Z</time>
      </trkpt>
      <trkpt lat="43.130053000000046" lon="-1.2445290000000016">
        <ele>379.616</ele>
        <time>2022-08-24T06:58:41Z</time>
      </trkpt>
      <trkpt lat="43.13005700000004" lon="-1.2445480000000015">
        <ele>379.809</ele>
        <time>2022-08-24T06:58:42Z</time>
      </trkpt>
      <trkpt lat="43.13006400000004" lon="-1.2445650000000015">
        <ele>379.857</ele>
        <time>2022-08-24T06:58:43Z</time>
      </trkpt>
      <trkpt lat="43.13007100000004" lon="-1.2445810000000015">
        <ele>380.097</ele>
        <time>2022-08-24T06:58:44Z</time>
      </trkpt>
      <trkpt lat="43.13007800000003" lon="-1.2445940000000015">
        <ele>380.287</ele>
        <time>2022-08-24T06:58:45Z</time>
      </trkpt>
      <trkpt lat="43.13008500000003" lon="-1.2446070000000016">
        <ele>380.243</ele>
        <time>2022-08-24T06:58:46Z</time>
      </trkpt>
      <trkpt lat="43.13009300000003" lon="-1.2446230000000016">
        <ele>380.455</ele>
        <time>2022-08-24T06:58:47Z</time>
      </trkpt>
      <trkpt lat="43.13010000000003" lon="-1.2446350000000015">
        <ele>380.442</ele>
        <time>2022-08-24T06:58:48Z</time>
      </trkpt>
      <trkpt lat="43.130109000000026" lon="-1.2446480000000015">
        <ele>380.685</ele>
        <time>2022-08-24T06:58:49Z</time>
      </trkpt>
      <trkpt lat="43.13011600000002" lon="-1.2446660000000016">
        <ele>380.699</ele>
        <time>2022-08-24T06:58:50Z</time>
      </trkpt>
      <trkpt lat="43.13012300000002" lon="-1.2446830000000015">
        <ele>380.668</ele>
        <time>2022-08-24T06:58:51Z</time>
      </trkpt>
      <trkpt lat="43.13013300000002" lon="-1.2446970000000015">
        <ele>380.876</ele>
        <time>2022-08-24T06:58:52Z</time>
      </trkpt>
      <trkpt lat="43.130143000000025" lon="-1.2447110000000015">
        <ele>381.090</ele>
        <time>2022-08-24T06:58:53Z</time>
      </trkpt>
      <trkpt lat="43.130152000000024" lon="-1.2447240000000015">
        <ele>381.019</ele>
        <time>2022-08-24T06:58:54Z</time>
      </trkpt>
      <trkpt lat="43.13016200000003" lon="-1.2447380000000015">
        <ele>381.009</ele>
        <time>2022-08-24T06:58:55Z</time>
      </trkpt>
      <trkpt lat="43.13017000000003" lon="-1.2447520000000014">
        <ele>381.288</ele>
        <time>2022-08-24T06:58:56Z</time>
      </trkpt>
      <trkpt lat="43.13017900000003" lon="-1.2447650000000015">
        <ele>381.248</ele>
        <time>2022-08-24T06:58:57Z</time>
      </trkpt>
      <trkpt lat="43.13019000000003" lon="-1.2447770000000014">
        <ele>381.458</ele>
        <time>2022-08-24T06:58:58Z</time>
      </trkpt>
      <trkpt lat="43.13020000000003" lon="-1.2447930000000014">
        <ele>381.624</ele>
        <time>2022-08-24T06:58:59Z</time>
      </trkpt>
      <trkpt lat="43.13020800000003" lon="-1.2448090000000014">
        <ele>381.636</ele>
        <time>2022-08-24T06:59:00Z</time>
      </trkpt>
      <trkpt lat="43.13021700000003" lon="-1.2448250000000014">
        <ele>381.613</ele>
        <time>2022-08-24T06:59:01Z</time>
      </trkpt>
      <trkpt lat="43.13022600000003" lon="-1.2448370000000013">
        <ele>381.856</ele>
        <time>2022-08-24T06:59:02Z</time>
      </trkpt>
      <trkpt lat="43.13023500000003" lon="-1.2448520000000014">
        <ele>381.830</ele>
        <time>2022-08-24T06:59:03Z</time>
      </trkpt>
      <trkpt lat="43.130244000000026" lon="-1.2448640000000013">
        <ele>381.829</ele>
        <time>2022-08-24T06:59:04Z</time>
      </trkpt>
      <trkpt lat="43.130253000000025" lon="-1.2448760000000012">
        <ele>382.025</ele>
        <time>2022-08-24T06:59:05Z</time>
      </trkpt>
      <trkpt lat="43.130259000000024" lon="-1.2448890000000012">
        <ele>382.226</ele>
        <time>2022-08-24T06:59:06Z</time>
      </trkpt>
      <trkpt lat="43.130267000000025" lon="-1.2448990000000013">
        <ele>382.608</ele>
        <time>2022-08-24T06:59:07Z</time>
      </trkpt>
      <trkpt lat="43.13027600000002" lon="-1.2449100000000013">
        <ele>383.009</ele>
        <time>2022-08-24T06:59:08Z</time>
      </trkpt>
      <trkpt lat="43.130284000000024" lon="-1.2449220000000012">
        <ele>383.043</ele>
        <time>2022-08-24T06:59:09Z</time>
      </trkpt>
      <trkpt lat="43.130292000000026" lon="-1.2449360000000012">
        <ele>383.453</ele>
        <time>2022-08-24T06:59:10Z</time>
      </trkpt>
      <trkpt lat="43.13030200000003" lon="-1.2449510000000013">
        <ele>383.653</ele>
        <time>2022-08-24T06:59:11Z</time>
      </trkpt>
      <trkpt lat="43.13031200000003" lon="-1.2449660000000013">
        <ele>383.639</ele>
        <time>2022-08-24T06:59:12Z</time>
      </trkpt>
      <trkpt lat="43.13031900000003" lon="-1.2449760000000014">
        <ele>383.861</ele>
        <time>2022-08-24T06:59:13Z</time>
      </trkpt>
      <trkpt lat="43.13032900000003" lon="-1.2449850000000013">
        <ele>384.098</ele>
        <time>2022-08-24T06:59:14Z</time>
      </trkpt>
      <trkpt lat="43.13033600000003" lon="-1.2449990000000013">
        <ele>384.281</ele>
        <time>2022-08-24T06:59:15Z</time>
      </trkpt>
      <trkpt lat="43.13034400000003" lon="-1.2450110000000012">
        <ele>384.255</ele>
        <time>2022-08-24T06:59:16Z</time>
      </trkpt>
      <trkpt lat="43.13035200000003" lon="-1.245023000000001">
        <ele>384.634</ele>
        <time>2022-08-24T06:59:17Z</time>
      </trkpt>
      <trkpt lat="43.13036100000003" lon="-1.2450380000000012">
        <ele>384.645</ele>
        <time>2022-08-24T06:59:18Z</time>
      </trkpt>
      <trkpt lat="43.13036700000003" lon="-1.2450520000000012">
        <ele>385.047</ele>
        <time>2022-08-24T06:59:19Z</time>
      </trkpt>
      <trkpt lat="43.13037300000003" lon="-1.2450670000000013">
        <ele>385.211</ele>
        <time>2022-08-24T06:59:20Z</time>
      </trkpt>
      <trkpt lat="43.13037500000003" lon="-1.2450810000000012">
        <ele>385.209</ele>
        <time>2022-08-24T06:59:21Z</time>
      </trkpt>
      <trkpt lat="43.13037800000003" lon="-1.2450970000000012">
        <ele>385.675</ele>
        <time>2022-08-24T06:59:22Z</time>
      </trkpt>
      <trkpt lat="43.13038300000003" lon="-1.2451130000000012">
        <ele>385.685</ele>
        <time>2022-08-24T06:59:23Z</time>
      </trkpt>
      <trkpt lat="43.13038300000003" lon="-1.2451130000000012">
        <ele>386.025</ele>
        <time>2022-08-24T06:59:24Z</time>
      </trkpt>
      <trkpt lat="43.13039700000003" lon="-1.2451400000000012">
        <ele>386.251</ele>
        <time>2022-08-24T06:59:25Z</time>
      </trkpt>
      <trkpt lat="43.13040300000003" lon="-1.2451640000000013">
        <ele>386.473</ele>
        <time>2022-08-24T06:59:26Z</time>
      </trkpt>
      <trkpt lat="43.13040700000003" lon="-1.2451830000000013">
        <ele>386.610</ele>
        <time>2022-08-24T06:59:27Z</time>
      </trkpt>
      <trkpt lat="43.13041200000003" lon="-1.2452020000000013">
        <ele>386.843</ele>
        <time>2022-08-24T06:59:28Z</time>
      </trkpt>
      <trkpt lat="43.13041500000003" lon="-1.2452180000000013">
        <ele>387.297</ele>
        <time>2022-08-24T06:59:29Z</time>
      </trkpt>
      <trkpt lat="43.13041700000003" lon="-1.2452370000000013">
        <ele>387.226</ele>
        <time>2022-08-24T06:59:30Z</time>
      </trkpt>
      <trkpt lat="43.13041300000003" lon="-1.2452550000000013">
        <ele>387.488</ele>
        <time>2022-08-24T06:59:31Z</time>
      </trkpt>
      <trkpt lat="43.13040500000003" lon="-1.2452710000000013">
        <ele>387.424</ele>
        <time>2022-08-24T06:59:32Z</time>
      </trkpt>
      <trkpt lat="43.13039300000003" lon="-1.2452810000000014">
        <ele>387.826</ele>
        <time>2022-08-24T06:59:33Z</time>
      </trkpt>
      <trkpt lat="43.13038000000003" lon="-1.2452850000000013">
        <ele>388.009</ele>
        <time>2022-08-24T06:59:34Z</time>
      </trkpt>
      <trkpt lat="43.13037000000003" lon="-1.2452880000000013">
        <ele>388.479</ele>
        <time>2022-08-24T06:59:35Z</time>
      </trkpt>
      <trkpt lat="43.13036100000003" lon="-1.2452900000000013">
        <ele>388.679</ele>
        <time>2022-08-24T06:59:36Z</time>
      </trkpt>
      <trkpt lat="43.13034900000003" lon="-1.2452890000000014">
        <ele>388.639</ele>
        <time>2022-08-24T06:59:37Z</time>
      </trkpt>
      <trkpt lat="43.13033600000003" lon="-1.2452850000000015">
        <ele>388.875</ele>
        <time>2022-08-24T06:59:38Z</time>
      </trkpt>
      <trkpt lat="43.13032900000003" lon="-1.2452840000000016">
        <ele>389.037</ele>
        <time>2022-08-24T06:59:39Z</time>
      </trkpt>
      <trkpt lat="43.13032900000003" lon="-1.2452840000000016">
        <ele>389.284</ele>
        <time>2022-08-24T06:59:40Z</time>
      </trkpt>
      <trkpt lat="43.13031200000003" lon="-1.2452790000000016">
        <ele>389.237</ele>
        <time>2022-08-24T06:59:41Z</time>
      </trkpt>
      <trkpt lat="43.13029600000003" lon="-1.2452680000000016">
        <ele>389.471</ele>
        <time>2022-08-24T06:59:42Z</time>
      </trkpt>
      <trkpt lat="43.13029600000003" lon="-1.2452680000000016">
        <ele>389.650</ele>
        <time>2022-08-24T06:59:43Z</time>
      </trkpt>
      <trkpt lat="43.13027400000003" lon="-1.2452450000000015">
        <ele>389.812</ele>
        <time>2022-08-24T06:59:44Z</time>
      </trkpt>
      <trkpt lat="43.13026700000003" lon="-1.2452360000000016">
        <ele>390.032</ele>
        <time>2022-08-24T06:59:45Z</time>
      </trkpt>
      <trkpt lat="43.130255000000034" lon="-1.2452240000000017">
        <ele>390.205</ele>
        <time>2022-08-24T06:59:46Z</time>
      </trkpt>
      <trkpt lat="43.130241000000034" lon="-1.2452080000000016">
        <ele>390.409</ele>
        <time>2022-08-24T06:59:47Z</time>
      </trkpt>
      <trkpt lat="43.13022700000003" lon="-1.2451960000000017">
        <ele>390.462</ele>
        <time>2022-08-24T06:59:48Z</time>
      </trkpt>
      <trkpt lat="43.13021400000003" lon="-1.2451840000000018">
        <ele>390.682</ele>
        <time>2022-08-24T06:59:49Z</time>
      </trkpt>
      <trkpt lat="43.13020300000003" lon="-1.2451740000000018">
        <ele>390.812</ele>
        <time>2022-08-24T06:59:50Z</time>
      </trkpt>
      <trkpt lat="43.13019100000003" lon="-1.2451610000000017">
        <ele>391.068</ele>
        <time>2022-08-24T06:59:51Z</time>
      </trkpt>
      <trkpt lat="43.130179000000034" lon="-1.2451500000000018">
        <ele>391.260</ele>
        <time>2022-08-24T06:59:52Z</time>
      </trkpt>
      <trkpt lat="43.13016900000003" lon="-1.2451440000000018">
        <ele>391.267</ele>
        <time>2022-08-24T06:59:53Z</time>
      </trkpt>
      <trkpt lat="43.13016000000003" lon="-1.2451350000000019">
        <ele>391.420</ele>
        <time>2022-08-24T06:59:54Z</time>
      </trkpt>
      <trkpt lat="43.13014700000003" lon="-1.245126000000002">
        <ele>391.624</ele>
        <time>2022-08-24T06:59:55Z</time>
      </trkpt>
      <trkpt lat="43.13013200000003" lon="-1.245118000000002">
        <ele>391.843</ele>
        <time>2022-08-24T06:59:56Z</time>
      </trkpt>
      <trkpt lat="43.13012100000003" lon="-1.245110000000002">
        <ele>392.073</ele>
        <time>2022-08-24T06:59:57Z</time>
      </trkpt>
      <trkpt lat="43.13010500000003" lon="-1.245101000000002">
        <ele>392.285</ele>
        <time>2022-08-24T06:59:58Z</time>
      </trkpt>
      <trkpt lat="43.13008700000003" lon="-1.245088000000002">
        <ele>392.213</ele>
        <time>2022-08-24T06:59:59Z</time>
      </trkpt>
      <trkpt lat="43.13007300000003" lon="-1.245078000000002">
        <ele>392.209</ele>
        <time>2022-08-24T07:00:00Z</time>
      </trkpt>
      <trkpt lat="43.13005900000003" lon="-1.245070000000002">
        <ele>392.458</ele>
        <time>2022-08-24T07:00:01Z</time>
      </trkpt>
      <trkpt lat="43.13004600000003" lon="-1.2450650000000019">
        <ele>392.668</ele>
        <time>2022-08-24T07:00:02Z</time>
      </trkpt>
      <trkpt lat="43.13003400000003" lon="-1.2450580000000018">
        <ele>393.048</ele>
        <time>2022-08-24T07:00:03Z</time>
      </trkpt>
      <trkpt lat="43.13002300000003" lon="-1.2450520000000018">
        <ele>393.024</ele>
        <time>2022-08-24T07:00:04Z</time>
      </trkpt>
      <trkpt lat="43.13001300000003" lon="-1.2450470000000018">
        <ele>393.226</ele>
        <time>2022-08-24T07:00:05Z</time>
      </trkpt>
      <trkpt lat="43.13000300000002" lon="-1.2450390000000018">
        <ele>393.493</ele>
        <time>2022-08-24T07:00:06Z</time>
      </trkpt>
      <trkpt lat="43.12999300000002" lon="-1.2450320000000017">
        <ele>393.676</ele>
        <time>2022-08-24T07:00:07Z</time>
      </trkpt>
      <trkpt lat="43.12997900000002" lon="-1.2450240000000017">
        <ele>393.860</ele>
        <time>2022-08-24T07:00:08Z</time>
      </trkpt>
      <trkpt lat="43.12996600000002" lon="-1.2450180000000017">
        <ele>393.879</ele>
        <time>2022-08-24T07:00:09Z</time>
      </trkpt>
      <trkpt lat="43.12995200000002" lon="-1.2450140000000018">
        <ele>394.268</ele>
        <time>2022-08-24T07:00:10Z</time>
      </trkpt>
      <trkpt lat="43.129939000000014" lon="-1.2450110000000019">
        <ele>394.242</ele>
        <time>2022-08-24T07:00:11Z</time>
      </trkpt>
      <trkpt lat="43.12992900000001" lon="-1.245007000000002">
        <ele>394.426</ele>
        <time>2022-08-24T07:00:12Z</time>
      </trkpt>
      <trkpt lat="43.12992100000001" lon="-1.245006000000002">
        <ele>394.409</ele>
        <time>2022-08-24T07:00:13Z</time>
      </trkpt>
      <trkpt lat="43.12991300000001" lon="-1.245003000000002">
        <ele>394.677</ele>
        <time>2022-08-24T07:00:14Z</time>
      </trkpt>
      <trkpt lat="43.129900000000006" lon="-1.244998000000002">
        <ele>394.887</ele>
        <time>2022-08-24T07:00:15Z</time>
      </trkpt>
      <trkpt lat="43.12988300000001" lon="-1.244991000000002">
        <ele>394.897</ele>
        <time>2022-08-24T07:00:16Z</time>
      </trkpt>
      <trkpt lat="43.12986600000001" lon="-1.244983000000002">
        <ele>395.253</ele>
        <time>2022-08-24T07:00:17Z</time>
      </trkpt>
      <trkpt lat="43.12985200000001" lon="-1.244978000000002">
        <ele>395.415</ele>
        <time>2022-08-24T07:00:18Z</time>
      </trkpt>
      <trkpt lat="43.129841000000006" lon="-1.244972000000002">
        <ele>395.682</ele>
        <time>2022-08-24T07:00:19Z</time>
      </trkpt>
      <trkpt lat="43.129824000000006" lon="-1.244964000000002">
        <ele>396.045</ele>
        <time>2022-08-24T07:00:20Z</time>
      </trkpt>
      <trkpt lat="43.12980900000001" lon="-1.244954000000002">
        <ele>396.049</ele>
        <time>2022-08-24T07:00:21Z</time>
      </trkpt>
      <trkpt lat="43.12979000000001" lon="-1.244943000000002">
        <ele>396.468</ele>
        <time>2022-08-24T07:00:22Z</time>
      </trkpt>
      <trkpt lat="43.12976200000001" lon="-1.2449380000000019">
        <ele>396.436</ele>
        <time>2022-08-24T07:00:23Z</time>
      </trkpt>
      <trkpt lat="43.12973100000001" lon="-1.244926000000002">
        <ele>396.817</ele>
        <time>2022-08-24T07:00:24Z</time>
      </trkpt>
      <trkpt lat="43.12971400000001" lon="-1.244915000000002">
        <ele>396.818</ele>
        <time>2022-08-24T07:00:25Z</time>
      </trkpt>
      <trkpt lat="43.129701000000004" lon="-1.244905000000002">
        <ele>397.009</ele>
        <time>2022-08-24T07:00:26Z</time>
      </trkpt>
      <trkpt lat="43.12968600000001" lon="-1.244894000000002">
        <ele>397.234</ele>
        <time>2022-08-24T07:00:27Z</time>
      </trkpt>
      <trkpt lat="43.129673000000004" lon="-1.244885000000002">
        <ele>397.494</ele>
        <time>2022-08-24T07:00:28Z</time>
      </trkpt>
      <trkpt lat="43.12965500000001" lon="-1.244879000000002">
        <ele>397.614</ele>
        <time>2022-08-24T07:00:29Z</time>
      </trkpt>
      <trkpt lat="43.129636000000005" lon="-1.2448730000000021">
        <ele>397.820</ele>
        <time>2022-08-24T07:00:30Z</time>
      </trkpt>
      <trkpt lat="43.129636000000005" lon="-1.2448730000000021">
        <ele>398.092</ele>
        <time>2022-08-24T07:00:31Z</time>
      </trkpt>
      <trkpt lat="43.129611000000004" lon="-1.244857000000002">
        <ele>398.069</ele>
        <time>2022-08-24T07:00:32Z</time>
      </trkpt>
      <trkpt lat="43.12960400000001" lon="-1.2448460000000021">
        <ele>398.422</ele>
        <time>2022-08-24T07:00:33Z</time>
      </trkpt>
      <trkpt lat="43.129582000000006" lon="-1.2448320000000022">
        <ele>398.686</ele>
        <time>2022-08-24T07:00:34Z</time>
      </trkpt>
      <trkpt lat="43.12955900000001" lon="-1.2448210000000022">
        <ele>398.875</ele>
        <time>2022-08-24T07:00:35Z</time>
      </trkpt>
      <trkpt lat="43.12953800000001" lon="-1.2448100000000022">
        <ele>399.055</ele>
        <time>2022-08-24T07:00:36Z</time>
      </trkpt>
      <trkpt lat="43.12951200000001" lon="-1.2447890000000021">
        <ele>399.207</ele>
        <time>2022-08-24T07:00:37Z</time>
      </trkpt>
      <trkpt lat="43.12948500000001" lon="-1.2447780000000022">
        <ele>399.417</ele>
        <time>2022-08-24T07:00:38Z</time>
      </trkpt>
      <trkpt lat="43.12946500000001" lon="-1.244782000000002">
        <ele>399.609</ele>
        <time>2022-08-24T07:00:39Z</time>
      </trkpt>
      <trkpt lat="43.12945400000001" lon="-1.244777000000002">
        <ele>399.846</ele>
        <time>2022-08-24T07:00:40Z</time>
      </trkpt>
      <trkpt lat="43.12944500000001" lon="-1.244769000000002">
        <ele>400.246</ele>
        <time>2022-08-24T07:00:41Z</time>
      </trkpt>
      <trkpt lat="43.12943100000001" lon="-1.244759000000002">
        <ele>400.426</ele>
        <time>2022-08-24T07:00:42Z</time>
      </trkpt>
      <trkpt lat="43.12942300000001" lon="-1.244746000000002">
        <ele>400.642</ele>
        <time>2022-08-24T07:00:43Z</time>
      </trkpt>
      <trkpt lat="43.12941100000001" lon="-1.2447360000000018">
        <ele>400.864</ele>
        <time>2022-08-24T07:00:44Z</time>
      </trkpt>
      <trkpt lat="43.12939800000001" lon="-1.2447310000000018">
        <ele>401.071</ele>
        <time>2022-08-24T07:00:45Z</time>
      </trkpt>
      <trkpt lat="43.12938100000001" lon="-1.2447200000000018">
        <ele>401.054</ele>
        <time>2022-08-24T07:00:46Z</time>
      </trkpt>
      <trkpt lat="43.12936500000001" lon="-1.2447130000000017">
        <ele>401.458</ele>
        <time>2022-08-24T07:00:47Z</time>
      </trkpt>
      <trkpt lat="43.12935100000001" lon="-1.2447080000000017">
        <ele>401.447</ele>
        <time>2022-08-24T07:00:48Z</time>
      </trkpt>
      <trkpt lat="43.129340000000006" lon="-1.2447020000000018">
        <ele>401.662</ele>
        <time>2022-08-24T07:00:49Z</time>
      </trkpt>
      <trkpt lat="43.129329000000006" lon="-1.2446990000000018">
        <ele>401.883</ele>
        <time>2022-08-24T07:00:50Z</time>
      </trkpt>
      <trkpt lat="43.129319" lon="-1.2446950000000019">
        <ele>401.811</ele>
        <time>2022-08-24T07:00:51Z</time>
      </trkpt>
      <trkpt lat="43.129308" lon="-1.2446950000000019">
        <ele>401.809</ele>
        <time>2022-08-24T07:00:52Z</time>
      </trkpt>
      <trkpt lat="43.129298" lon="-1.244694000000002">
        <ele>402.037</ele>
        <time>2022-08-24T07:00:53Z</time>
      </trkpt>
      <trkpt lat="43.129284" lon="-1.244689000000002">
        <ele>402.227</ele>
        <time>2022-08-24T07:00:54Z</time>
      </trkpt>
      <trkpt lat="43.129273999999995" lon="-1.244685000000002">
        <ele>402.427</ele>
        <time>2022-08-24T07:00:55Z</time>
      </trkpt>
      <trkpt lat="43.129262999999995" lon="-1.244683000000002">
        <ele>402.853</ele>
        <time>2022-08-24T07:00:56Z</time>
      </trkpt>
      <trkpt lat="43.129262999999995" lon="-1.244683000000002">
        <ele>403.025</ele>
        <time>2022-08-24T07:00:57Z</time>
      </trkpt>
      <trkpt lat="43.12924399999999" lon="-1.244676000000002">
        <ele>403.292</ele>
        <time>2022-08-24T07:00:58Z</time>
      </trkpt>
      <trkpt lat="43.12923599999999" lon="-1.244675000000002">
        <ele>403.485</ele>
        <time>2022-08-24T07:00:59Z</time>
      </trkpt>
      <trkpt lat="43.12922499999999" lon="-1.244670000000002">
        <ele>403.459</ele>
        <time>2022-08-24T07:01:00Z</time>
      </trkpt>
      <trkpt lat="43.12921199999999" lon="-1.2446630000000019">
        <ele>403.688</ele>
        <time>2022-08-24T07:01:01Z</time>
      </trkpt>
      <trkpt lat="43.12919499999999" lon="-1.244654000000002">
        <ele>403.648</ele>
        <time>2022-08-24T07:01:02Z</time>
      </trkpt>
      <trkpt lat="43.12917999999999" lon="-1.244648000000002">
        <ele>403.861</ele>
        <time>2022-08-24T07:01:03Z</time>
      </trkpt>
      <trkpt lat="43.12916799999999" lon="-1.244646000000002">
        <ele>404.217</ele>
        <time>2022-08-24T07:01:04Z</time>
      </trkpt>
      <trkpt lat="43.12915399999999" lon="-1.244645000000002">
        <ele>404.209</ele>
        <time>2022-08-24T07:01:05Z</time>
      </trkpt>
      <trkpt lat="43.129138999999995" lon="-1.244643000000002">
        <ele>404.435</ele>
        <time>2022-08-24T07:01:06Z</time>
      </trkpt>
      <trkpt lat="43.12912599999999" lon="-1.2446410000000019">
        <ele>404.645</ele>
        <time>2022-08-24T07:01:07Z</time>
      </trkpt>
      <trkpt lat="43.129113999999994" lon="-1.2446390000000018">
        <ele>404.865</ele>
        <time>2022-08-24T07:01:08Z</time>
      </trkpt>
      <trkpt lat="43.129096999999994" lon="-1.2446340000000018">
        <ele>404.811</ele>
        <time>2022-08-24T07:01:09Z</time>
      </trkpt>
      <trkpt lat="43.129084999999996" lon="-1.2446270000000017">
        <ele>405.043</ele>
        <time>2022-08-24T07:01:10Z</time>
      </trkpt>
      <trkpt lat="43.129084999999996" lon="-1.2446270000000017">
        <ele>405.430</ele>
        <time>2022-08-24T07:01:11Z</time>
      </trkpt>
      <trkpt lat="43.129062" lon="-1.2446110000000017">
        <ele>405.623</ele>
        <time>2022-08-24T07:01:12Z</time>
      </trkpt>
      <trkpt lat="43.129051999999994" lon="-1.2446090000000016">
        <ele>405.887</ele>
        <time>2022-08-24T07:01:13Z</time>
      </trkpt>
      <trkpt lat="43.129037999999994" lon="-1.2446080000000017">
        <ele>405.836</ele>
        <time>2022-08-24T07:01:14Z</time>
      </trkpt>
      <trkpt lat="43.12902499999999" lon="-1.2446060000000017">
        <ele>406.012</ele>
        <time>2022-08-24T07:01:15Z</time>
      </trkpt>
      <trkpt lat="43.12901199999999" lon="-1.2446010000000016">
        <ele>406.032</ele>
        <time>2022-08-24T07:01:16Z</time>
      </trkpt>
      <trkpt lat="43.12899999999999" lon="-1.2445950000000017">
        <ele>406.205</ele>
        <time>2022-08-24T07:01:17Z</time>
      </trkpt>
      <trkpt lat="43.12898899999999" lon="-1.2445910000000018">
        <ele>406.409</ele>
        <time>2022-08-24T07:01:18Z</time>
      </trkpt>
      <trkpt lat="43.12897599999999" lon="-1.2445870000000019">
        <ele>406.482</ele>
        <time>2022-08-24T07:01:19Z</time>
      </trkpt>
      <trkpt lat="43.128962999999985" lon="-1.2445820000000019">
        <ele>406.632</ele>
        <time>2022-08-24T07:01:20Z</time>
      </trkpt>
      <trkpt lat="43.12895099999999" lon="-1.2445790000000019">
        <ele>406.832</ele>
        <time>2022-08-24T07:01:21Z</time>
      </trkpt>
      <trkpt lat="43.128939999999986" lon="-1.244573000000002">
        <ele>406.838</ele>
        <time>2022-08-24T07:01:22Z</time>
      </trkpt>
      <trkpt lat="43.128928999999985" lon="-1.2445710000000019">
        <ele>407.010</ele>
        <time>2022-08-24T07:01:23Z</time>
      </trkpt>
      <trkpt lat="43.128917999999985" lon="-1.244567000000002">
        <ele>407.027</ele>
        <time>2022-08-24T07:01:24Z</time>
      </trkpt>
      <trkpt lat="43.128905999999986" lon="-1.244563000000002">
        <ele>407.280</ele>
        <time>2022-08-24T07:01:25Z</time>
      </trkpt>
      <trkpt lat="43.12889399999999" lon="-1.2445620000000022">
        <ele>407.234</ele>
        <time>2022-08-24T07:01:26Z</time>
      </trkpt>
      <trkpt lat="43.128883999999985" lon="-1.2445590000000022">
        <ele>407.443</ele>
        <time>2022-08-24T07:01:27Z</time>
      </trkpt>
      <trkpt lat="43.128872999999984" lon="-1.2445580000000023">
        <ele>407.477</ele>
        <time>2022-08-24T07:01:28Z</time>
      </trkpt>
      <trkpt lat="43.12885999999998" lon="-1.2445550000000023">
        <ele>407.661</ele>
        <time>2022-08-24T07:01:29Z</time>
      </trkpt>
      <trkpt lat="43.12884699999998" lon="-1.2445480000000022">
        <ele>407.627</ele>
        <time>2022-08-24T07:01:30Z</time>
      </trkpt>
      <trkpt lat="43.12883299999998" lon="-1.2445340000000022">
        <ele>407.809</ele>
        <time>2022-08-24T07:01:31Z</time>
      </trkpt>
      <trkpt lat="43.12882199999998" lon="-1.2445180000000022">
        <ele>408.038</ele>
        <time>2022-08-24T07:01:32Z</time>
      </trkpt>
      <trkpt lat="43.12881099999998" lon="-1.2445060000000023">
        <ele>408.248</ele>
        <time>2022-08-24T07:01:33Z</time>
      </trkpt>
      <trkpt lat="43.128794999999975" lon="-1.2444990000000022">
        <ele>408.428</ele>
        <time>2022-08-24T07:01:34Z</time>
      </trkpt>
      <trkpt lat="43.12877999999998" lon="-1.2444970000000022">
        <ele>408.694</ele>
        <time>2022-08-24T07:01:35Z</time>
      </trkpt>
      <trkpt lat="43.12876799999998" lon="-1.2444990000000022">
        <ele>408.696</ele>
        <time>2022-08-24T07:01:36Z</time>
      </trkpt>
      <trkpt lat="43.12875499999998" lon="-1.2445050000000022">
        <ele>408.813</ele>
        <time>2022-08-24T07:01:37Z</time>
      </trkpt>
      <trkpt lat="43.128743999999976" lon="-1.2445050000000022">
        <ele>409.086</ele>
        <time>2022-08-24T07:01:38Z</time>
      </trkpt>
      <trkpt lat="43.12873199999998" lon="-1.2445020000000022">
        <ele>409.070</ele>
        <time>2022-08-24T07:01:39Z</time>
      </trkpt>
      <trkpt lat="43.12871799999998" lon="-1.2445000000000022">
        <ele>409.269</ele>
        <time>2022-08-24T07:01:40Z</time>
      </trkpt>
      <trkpt lat="43.12870699999998" lon="-1.244490000000002">
        <ele>409.457</ele>
        <time>2022-08-24T07:01:41Z</time>
      </trkpt>
      <trkpt lat="43.12869499999998" lon="-1.2444810000000022">
        <ele>409.400</ele>
        <time>2022-08-24T07:01:42Z</time>
      </trkpt>
      <trkpt lat="43.12868399999998" lon="-1.244471000000002">
        <ele>409.620</ele>
        <time>2022-08-24T07:01:43Z</time>
      </trkpt>
      <trkpt lat="43.128673999999975" lon="-1.2444600000000021">
        <ele>409.609</ele>
        <time>2022-08-24T07:01:44Z</time>
      </trkpt>
      <trkpt lat="43.128662999999975" lon="-1.2444510000000022">
        <ele>409.836</ele>
        <time>2022-08-24T07:01:45Z</time>
      </trkpt>
      <trkpt lat="43.12864999999997" lon="-1.2444510000000022">
        <ele>410.016</ele>
        <time>2022-08-24T07:01:46Z</time>
      </trkpt>
      <trkpt lat="43.12863899999997" lon="-1.2444530000000023">
        <ele>410.066</ele>
        <time>2022-08-24T07:01:47Z</time>
      </trkpt>
      <trkpt lat="43.12863099999997" lon="-1.2444530000000023">
        <ele>410.262</ele>
        <time>2022-08-24T07:01:48Z</time>
      </trkpt>
      <trkpt lat="43.12862199999997" lon="-1.2444520000000023">
        <ele>410.464</ele>
        <time>2022-08-24T07:01:49Z</time>
      </trkpt>
      <trkpt lat="43.12861099999997" lon="-1.2444470000000023">
        <ele>410.621</ele>
        <time>2022-08-24T07:01:50Z</time>
      </trkpt>
      <trkpt lat="43.12859699999997" lon="-1.2444450000000022">
        <ele>410.644</ele>
        <time>2022-08-24T07:01:51Z</time>
      </trkpt>
      <trkpt lat="43.12858199999997" lon="-1.2444380000000022">
        <ele>410.658</ele>
        <time>2022-08-24T07:01:52Z</time>
      </trkpt>
      <trkpt lat="43.12856899999997" lon="-1.2444300000000021">
        <ele>410.857</ele>
        <time>2022-08-24T07:01:53Z</time>
      </trkpt>
      <trkpt lat="43.12855799999997" lon="-1.2444160000000022">
        <ele>411.029</ele>
        <time>2022-08-24T07:01:54Z</time>
      </trkpt>
      <trkpt lat="43.12854899999997" lon="-1.2444060000000021">
        <ele>411.200</ele>
        <time>2022-08-24T07:01:55Z</time>
      </trkpt>
      <trkpt lat="43.12853799999997" lon="-1.2443950000000021">
        <ele>411.220</ele>
        <time>2022-08-24T07:01:56Z</time>
      </trkpt>
      <trkpt lat="43.12852699999997" lon="-1.244390000000002">
        <ele>411.409</ele>
        <time>2022-08-24T07:01:57Z</time>
      </trkpt>
      <trkpt lat="43.12851599999997" lon="-1.2443840000000022">
        <ele>411.633</ele>
        <time>2022-08-24T07:01:58Z</time>
      </trkpt>
      <trkpt lat="43.12850199999997" lon="-1.2443810000000022">
        <ele>411.823</ele>
        <time>2022-08-24T07:01:59Z</time>
      </trkpt>
      <trkpt lat="43.12849099999997" lon="-1.2443750000000022">
        <ele>412.263</ele>
        <time>2022-08-24T07:02:00Z</time>
      </trkpt>
      <trkpt lat="43.12847899999997" lon="-1.2443710000000023">
        <ele>412.419</ele>
        <time>2022-08-24T07:02:01Z</time>
      </trkpt>
      <trkpt lat="43.12846599999997" lon="-1.2443720000000023">
        <ele>412.661</ele>
        <time>2022-08-24T07:02:02Z</time>
      </trkpt>
      <trkpt lat="43.128452999999965" lon="-1.2443660000000023">
        <ele>412.488</ele>
        <time>2022-08-24T07:02:03Z</time>
      </trkpt>
      <trkpt lat="43.128441999999964" lon="-1.2443630000000023">
        <ele>412.851</ele>
        <time>2022-08-24T07:02:04Z</time>
      </trkpt>
      <trkpt lat="43.128429999999966" lon="-1.2443580000000023">
        <ele>412.865</ele>
        <time>2022-08-24T07:02:05Z</time>
      </trkpt>
      <trkpt lat="43.12841999999996" lon="-1.2443580000000023">
        <ele>413.054</ele>
        <time>2022-08-24T07:02:06Z</time>
      </trkpt>
      <trkpt lat="43.12840999999996" lon="-1.2443590000000022">
        <ele>413.256</ele>
        <time>2022-08-24T07:02:07Z</time>
      </trkpt>
      <trkpt lat="43.12839899999996" lon="-1.2443580000000023">
        <ele>413.659</ele>
        <time>2022-08-24T07:02:08Z</time>
      </trkpt>
      <trkpt lat="43.128385999999956" lon="-1.2443570000000024">
        <ele>413.814</ele>
        <time>2022-08-24T07:02:09Z</time>
      </trkpt>
      <trkpt lat="43.128371999999956" lon="-1.2443520000000023">
        <ele>414.009</ele>
        <time>2022-08-24T07:02:10Z</time>
      </trkpt>
      <trkpt lat="43.12835999999996" lon="-1.2443450000000023">
        <ele>414.466</ele>
        <time>2022-08-24T07:02:11Z</time>
      </trkpt>
      <trkpt lat="43.12834799999996" lon="-1.2443400000000022">
        <ele>414.696</ele>
        <time>2022-08-24T07:02:12Z</time>
      </trkpt>
      <trkpt lat="43.12833499999996" lon="-1.2443340000000023">
        <ele>414.876</ele>
        <time>2022-08-24T07:02:13Z</time>
      </trkpt>
      <trkpt lat="43.12832399999996" lon="-1.2443330000000024">
        <ele>415.022</ele>
        <time>2022-08-24T07:02:14Z</time>
      </trkpt>
      <trkpt lat="43.12831399999995" lon="-1.2443170000000023">
        <ele>415.484</ele>
        <time>2022-08-24T07:02:15Z</time>
      </trkpt>
      <trkpt lat="43.12830099999995" lon="-1.2443120000000023">
        <ele>415.661</ele>
        <time>2022-08-24T07:02:16Z</time>
      </trkpt>
      <trkpt lat="43.12828999999995" lon="-1.2443100000000022">
        <ele>415.664</ele>
        <time>2022-08-24T07:02:17Z</time>
      </trkpt>
      <trkpt lat="43.12827499999995" lon="-1.2443040000000023">
        <ele>416.028</ele>
        <time>2022-08-24T07:02:18Z</time>
      </trkpt>
      <trkpt lat="43.128259999999955" lon="-1.2443000000000024">
        <ele>416.297</ele>
        <time>2022-08-24T07:02:19Z</time>
      </trkpt>
      <trkpt lat="43.12824699999995" lon="-1.2442980000000023">
        <ele>416.451</ele>
        <time>2022-08-24T07:02:20Z</time>
      </trkpt>
      <trkpt lat="43.12824699999995" lon="-1.2442980000000023">
        <ele>416.601</ele>
        <time>2022-08-24T07:02:21Z</time>
      </trkpt>
      <trkpt lat="43.12821899999995" lon="-1.2442930000000023">
        <ele>416.811</ele>
        <time>2022-08-24T07:02:22Z</time>
      </trkpt>
      <trkpt lat="43.12820999999995" lon="-1.2442880000000023">
        <ele>417.009</ele>
        <time>2022-08-24T07:02:23Z</time>
      </trkpt>
      <trkpt lat="43.12819899999995" lon="-1.2442850000000023">
        <ele>417.286</ele>
        <time>2022-08-24T07:02:24Z</time>
      </trkpt>
      <trkpt lat="43.128183999999955" lon="-1.2442820000000023">
        <ele>417.436</ele>
        <time>2022-08-24T07:02:25Z</time>
      </trkpt>
      <trkpt lat="43.12816599999996" lon="-1.2442840000000024">
        <ele>417.436</ele>
        <time>2022-08-24T07:02:26Z</time>
      </trkpt>
      <trkpt lat="43.12815199999996" lon="-1.2442820000000023">
        <ele>417.662</ele>
        <time>2022-08-24T07:02:27Z</time>
      </trkpt>
      <trkpt lat="43.12813799999996" lon="-1.2442750000000022">
        <ele>417.884</ele>
        <time>2022-08-24T07:02:28Z</time>
      </trkpt>
      <trkpt lat="43.12812399999996" lon="-1.2442680000000022">
        <ele>418.231</ele>
        <time>2022-08-24T07:02:29Z</time>
      </trkpt>
      <trkpt lat="43.12810999999996" lon="-1.2442710000000021">
        <ele>418.484</ele>
        <time>2022-08-24T07:02:30Z</time>
      </trkpt>
      <trkpt lat="43.128098999999956" lon="-1.2442710000000021">
        <ele>418.688</ele>
        <time>2022-08-24T07:02:31Z</time>
      </trkpt>
      <trkpt lat="43.128082999999954" lon="-1.2442670000000022">
        <ele>418.827</ele>
        <time>2022-08-24T07:02:32Z</time>
      </trkpt>
      <trkpt lat="43.128070999999956" lon="-1.2442600000000021">
        <ele>419.027</ele>
        <time>2022-08-24T07:02:33Z</time>
      </trkpt>
      <trkpt lat="43.12805799999995" lon="-1.2442570000000022">
        <ele>419.468</ele>
        <time>2022-08-24T07:02:34Z</time>
      </trkpt>
      <trkpt lat="43.12805799999995" lon="-1.2442570000000022">
        <ele>419.414</ele>
        <time>2022-08-24T07:02:35Z</time>
      </trkpt>
      <trkpt lat="43.12803099999995" lon="-1.244250000000002">
        <ele>419.609</ele>
        <time>2022-08-24T07:02:36Z</time>
      </trkpt>
      <trkpt lat="43.12801899999995" lon="-1.244247000000002">
        <ele>420.083</ele>
        <time>2022-08-24T07:02:37Z</time>
      </trkpt>
      <trkpt lat="43.12800799999995" lon="-1.2442440000000021">
        <ele>420.093</ele>
        <time>2022-08-24T07:02:38Z</time>
      </trkpt>
      <trkpt lat="43.12799799999995" lon="-1.2442430000000022">
        <ele>420.483</ele>
        <time>2022-08-24T07:02:39Z</time>
      </trkpt>
      <trkpt lat="43.12798899999995" lon="-1.2442510000000022">
        <ele>420.679</ele>
        <time>2022-08-24T07:02:40Z</time>
      </trkpt>
      <trkpt lat="43.12797699999995" lon="-1.2442560000000022">
        <ele>420.881</ele>
        <time>2022-08-24T07:02:41Z</time>
      </trkpt>
      <trkpt lat="43.12796499999995" lon="-1.2442560000000022">
        <ele>420.888</ele>
        <time>2022-08-24T07:02:42Z</time>
      </trkpt>
      <trkpt lat="43.12795399999995" lon="-1.2442580000000023">
        <ele>421.281</ele>
        <time>2022-08-24T07:02:43Z</time>
      </trkpt>
      <trkpt lat="43.12794099999995" lon="-1.2442570000000024">
        <ele>421.425</ele>
        <time>2022-08-24T07:02:44Z</time>
      </trkpt>
      <trkpt lat="43.12792599999995" lon="-1.2442540000000024">
        <ele>421.444</ele>
        <time>2022-08-24T07:02:45Z</time>
      </trkpt>
      <trkpt lat="43.127910999999955" lon="-1.2442500000000025">
        <ele>421.834</ele>
        <time>2022-08-24T07:02:46Z</time>
      </trkpt>
      <trkpt lat="43.127896999999955" lon="-1.2442430000000024">
        <ele>422.055</ele>
        <time>2022-08-24T07:02:47Z</time>
      </trkpt>
      <trkpt lat="43.127896999999955" lon="-1.2442430000000024">
        <ele>422.410</ele>
        <time>2022-08-24T07:02:48Z</time>
      </trkpt>
      <trkpt lat="43.12786799999996" lon="-1.2442340000000025">
        <ele>422.409</ele>
        <time>2022-08-24T07:02:49Z</time>
      </trkpt>
      <trkpt lat="43.127856999999956" lon="-1.2442350000000024">
        <ele>422.884</ele>
        <time>2022-08-24T07:02:50Z</time>
      </trkpt>
      <trkpt lat="43.12784499999996" lon="-1.2442370000000025">
        <ele>423.294</ele>
        <time>2022-08-24T07:02:51Z</time>
      </trkpt>
      <trkpt lat="43.12783699999996" lon="-1.2442290000000025">
        <ele>423.274</ele>
        <time>2022-08-24T07:02:52Z</time>
      </trkpt>
      <trkpt lat="43.12782799999996" lon="-1.2442220000000024">
        <ele>423.660</ele>
        <time>2022-08-24T07:02:53Z</time>
      </trkpt>
      <trkpt lat="43.12782799999996" lon="-1.2442220000000024">
        <ele>423.862</ele>
        <time>2022-08-24T07:02:54Z</time>
      </trkpt>
      <trkpt lat="43.12780899999996" lon="-1.2442210000000025">
        <ele>424.079</ele>
        <time>2022-08-24T07:02:55Z</time>
      </trkpt>
      <trkpt lat="43.127797999999956" lon="-1.2442220000000024">
        <ele>424.262</ele>
        <time>2022-08-24T07:02:56Z</time>
      </trkpt>
      <trkpt lat="43.12778799999995" lon="-1.2442230000000023">
        <ele>424.426</ele>
        <time>2022-08-24T07:02:57Z</time>
      </trkpt>
      <trkpt lat="43.127772999999955" lon="-1.2442250000000024">
        <ele>424.835</ele>
        <time>2022-08-24T07:02:58Z</time>
      </trkpt>
      <trkpt lat="43.12776099999996" lon="-1.2442210000000025">
        <ele>425.078</ele>
        <time>2022-08-24T07:02:59Z</time>
      </trkpt>
      <trkpt lat="43.127755999999955" lon="-1.2442200000000025">
        <ele>425.233</ele>
        <time>2022-08-24T07:03:00Z</time>
      </trkpt>
      <trkpt lat="43.12775399999995" lon="-1.2442100000000025">
        <ele>425.426</ele>
        <time>2022-08-24T07:03:01Z</time>
      </trkpt>
      <trkpt lat="43.127744999999955" lon="-1.2442050000000024">
        <ele>425.609</ele>
        <time>2022-08-24T07:03:02Z</time>
      </trkpt>
      <trkpt lat="43.12773199999995" lon="-1.2442000000000024">
        <ele>425.678</ele>
        <time>2022-08-24T07:03:03Z</time>
      </trkpt>
      <trkpt lat="43.12771899999995" lon="-1.2442020000000025">
        <ele>425.878</ele>
        <time>2022-08-24T07:03:04Z</time>
      </trkpt>
      <trkpt lat="43.12771099999995" lon="-1.2442110000000024">
        <ele>426.238</ele>
        <time>2022-08-24T07:03:05Z</time>
      </trkpt>
      <trkpt lat="43.12770199999995" lon="-1.2442210000000025">
        <ele>426.284</ele>
        <time>2022-08-24T07:03:06Z</time>
      </trkpt>
      <trkpt lat="43.127691999999946" lon="-1.2442300000000024">
        <ele>426.686</ele>
        <time>2022-08-24T07:03:07Z</time>
      </trkpt>
      <trkpt lat="43.12768199999994" lon="-1.2442310000000023">
        <ele>426.813</ele>
        <time>2022-08-24T07:03:08Z</time>
      </trkpt>
      <trkpt lat="43.12767499999995" lon="-1.2442210000000022">
        <ele>427.076</ele>
        <time>2022-08-24T07:03:09Z</time>
      </trkpt>
      <trkpt lat="43.127663999999946" lon="-1.2442140000000022">
        <ele>427.220</ele>
        <time>2022-08-24T07:03:10Z</time>
      </trkpt>
      <trkpt lat="43.12764899999995" lon="-1.2442080000000022">
        <ele>427.419</ele>
        <time>2022-08-24T07:03:11Z</time>
      </trkpt>
      <trkpt lat="43.12763499999995" lon="-1.2442070000000023">
        <ele>427.887</ele>
        <time>2022-08-24T07:03:12Z</time>
      </trkpt>
      <trkpt lat="43.127621999999946" lon="-1.2442160000000022">
        <ele>428.042</ele>
        <time>2022-08-24T07:03:13Z</time>
      </trkpt>
      <trkpt lat="43.127610999999945" lon="-1.2442270000000022">
        <ele>428.226</ele>
        <time>2022-08-24T07:03:14Z</time>
      </trkpt>
      <trkpt lat="43.12760399999995" lon="-1.2442360000000021">
        <ele>428.409</ele>
        <time>2022-08-24T07:03:15Z</time>
      </trkpt>
      <trkpt lat="43.12760399999995" lon="-1.2442360000000021">
        <ele>428.629</ele>
        <time>2022-08-24T07:03:16Z</time>
      </trkpt>
      <trkpt lat="43.12757799999995" lon="-1.244231000000002">
        <ele>428.699</ele>
        <time>2022-08-24T07:03:17Z</time>
      </trkpt>
      <trkpt lat="43.12756299999995" lon="-1.2442220000000022">
        <ele>428.859</ele>
        <time>2022-08-24T07:03:18Z</time>
      </trkpt>
      <trkpt lat="43.127547999999955" lon="-1.2442140000000022">
        <ele>429.035</ele>
        <time>2022-08-24T07:03:19Z</time>
      </trkpt>
      <trkpt lat="43.12753299999996" lon="-1.2442080000000022">
        <ele>429.247</ele>
        <time>2022-08-24T07:03:20Z</time>
      </trkpt>
      <trkpt lat="43.127521999999956" lon="-1.2442110000000022">
        <ele>429.444</ele>
        <time>2022-08-24T07:03:21Z</time>
      </trkpt>
      <trkpt lat="43.12751499999996" lon="-1.2442180000000023">
        <ele>429.627</ele>
        <time>2022-08-24T07:03:22Z</time>
      </trkpt>
      <trkpt lat="43.12750899999996" lon="-1.2442270000000022">
        <ele>430.061</ele>
        <time>2022-08-24T07:03:23Z</time>
      </trkpt>
      <trkpt lat="43.12749599999996" lon="-1.2442300000000022">
        <ele>430.060</ele>
        <time>2022-08-24T07:03:24Z</time>
      </trkpt>
      <trkpt lat="43.127482999999955" lon="-1.2442300000000022">
        <ele>430.434</ele>
        <time>2022-08-24T07:03:25Z</time>
      </trkpt>
      <trkpt lat="43.127471999999955" lon="-1.244231000000002">
        <ele>430.655</ele>
        <time>2022-08-24T07:03:26Z</time>
      </trkpt>
      <trkpt lat="43.127460999999954" lon="-1.244235000000002">
        <ele>430.810</ele>
        <time>2022-08-24T07:03:27Z</time>
      </trkpt>
      <trkpt lat="43.127448999999956" lon="-1.244242000000002">
        <ele>431.009</ele>
        <time>2022-08-24T07:03:28Z</time>
      </trkpt>
      <trkpt lat="43.12743899999995" lon="-1.244248000000002">
        <ele>431.434</ele>
        <time>2022-08-24T07:03:29Z</time>
      </trkpt>
      <trkpt lat="43.12742799999995" lon="-1.244251000000002">
        <ele>431.664</ele>
        <time>2022-08-24T07:03:30Z</time>
      </trkpt>
      <trkpt lat="43.12741699999995" lon="-1.244252000000002">
        <ele>432.034</ele>
        <time>2022-08-24T07:03:31Z</time>
      </trkpt>
      <trkpt lat="43.12740399999995" lon="-1.2442500000000019">
        <ele>432.480</ele>
        <time>2022-08-24T07:03:32Z</time>
      </trkpt>
      <trkpt lat="43.12738899999995" lon="-1.244249000000002">
        <ele>432.672</ele>
        <time>2022-08-24T07:03:33Z</time>
      </trkpt>
      <trkpt lat="43.12737599999995" lon="-1.244248000000002">
        <ele>432.839</ele>
        <time>2022-08-24T07:03:34Z</time>
      </trkpt>
      <trkpt lat="43.12736699999995" lon="-1.244254000000002">
        <ele>433.252</ele>
        <time>2022-08-24T07:03:35Z</time>
      </trkpt>
      <trkpt lat="43.12735599999995" lon="-1.244259000000002">
        <ele>433.436</ele>
        <time>2022-08-24T07:03:36Z</time>
      </trkpt>
      <trkpt lat="43.12734799999995" lon="-1.244266000000002">
        <ele>433.625</ele>
        <time>2022-08-24T07:03:37Z</time>
      </trkpt>
      <trkpt lat="43.12734099999995" lon="-1.244269000000002">
        <ele>433.814</ele>
        <time>2022-08-24T07:03:38Z</time>
      </trkpt>
      <trkpt lat="43.12733099999995" lon="-1.244266000000002">
        <ele>434.054</ele>
        <time>2022-08-24T07:03:39Z</time>
      </trkpt>
      <trkpt lat="43.12731899999995" lon="-1.2442620000000022">
        <ele>434.209</ele>
        <time>2022-08-24T07:03:40Z</time>
      </trkpt>
      <trkpt lat="43.12730499999995" lon="-1.2442620000000022">
        <ele>434.209</ele>
        <time>2022-08-24T07:03:41Z</time>
      </trkpt>
      <trkpt lat="43.12729499999995" lon="-1.2442630000000021">
        <ele>434.662</ele>
        <time>2022-08-24T07:03:42Z</time>
      </trkpt>
      <trkpt lat="43.12728599999995" lon="-1.244267000000002">
        <ele>434.862</ele>
        <time>2022-08-24T07:03:43Z</time>
      </trkpt>
      <trkpt lat="43.12727499999995" lon="-1.244268000000002">
        <ele>434.882</ele>
        <time>2022-08-24T07:03:44Z</time>
      </trkpt>
      <trkpt lat="43.12726699999995" lon="-1.2442720000000018">
        <ele>435.028</ele>
        <time>2022-08-24T07:03:45Z</time>
      </trkpt>
      <trkpt lat="43.12725499999995" lon="-1.2442720000000018">
        <ele>435.220</ele>
        <time>2022-08-24T07:03:46Z</time>
      </trkpt>
      <trkpt lat="43.12724599999995" lon="-1.2442670000000018">
        <ele>435.447</ele>
        <time>2022-08-24T07:03:47Z</time>
      </trkpt>
      <trkpt lat="43.12723399999995" lon="-1.2442690000000018">
        <ele>435.640</ele>
        <time>2022-08-24T07:03:48Z</time>
      </trkpt>
      <trkpt lat="43.12722299999995" lon="-1.2442740000000019">
        <ele>435.844</ele>
        <time>2022-08-24T07:03:49Z</time>
      </trkpt>
      <trkpt lat="43.12721199999995" lon="-1.2442770000000019">
        <ele>436.043</ele>
        <time>2022-08-24T07:03:50Z</time>
      </trkpt>
      <trkpt lat="43.12720099999995" lon="-1.2442800000000018">
        <ele>436.273</ele>
        <time>2022-08-24T07:03:51Z</time>
      </trkpt>
      <trkpt lat="43.12718999999995" lon="-1.2442820000000019">
        <ele>436.485</ele>
        <time>2022-08-24T07:03:52Z</time>
      </trkpt>
      <trkpt lat="43.12717799999995" lon="-1.244279000000002">
        <ele>436.613</ele>
        <time>2022-08-24T07:03:53Z</time>
      </trkpt>
      <trkpt lat="43.12716399999995" lon="-1.244279000000002">
        <ele>436.809</ele>
        <time>2022-08-24T07:03:54Z</time>
      </trkpt>
      <trkpt lat="43.12715099999995" lon="-1.244278000000002">
        <ele>437.288</ele>
        <time>2022-08-24T07:03:55Z</time>
      </trkpt>
      <trkpt lat="43.12713999999995" lon="-1.244275000000002">
        <ele>437.488</ele>
        <time>2022-08-24T07:03:56Z</time>
      </trkpt>
      <trkpt lat="43.12713099999995" lon="-1.2442710000000021">
        <ele>437.488</ele>
        <time>2022-08-24T07:03:57Z</time>
      </trkpt>
      <trkpt lat="43.12711899999995" lon="-1.244269000000002">
        <ele>437.634</ele>
        <time>2022-08-24T07:03:58Z</time>
      </trkpt>
      <trkpt lat="43.12710699999995" lon="-1.244269000000002">
        <ele>437.816</ele>
        <time>2022-08-24T07:03:59Z</time>
      </trkpt>
      <trkpt lat="43.127094999999954" lon="-1.244267000000002">
        <ele>438.263</ele>
        <time>2022-08-24T07:04:00Z</time>
      </trkpt>
      <trkpt lat="43.127094999999954" lon="-1.244267000000002">
        <ele>438.286</ele>
        <time>2022-08-24T07:04:01Z</time>
      </trkpt>
      <trkpt lat="43.12706799999995" lon="-1.244268000000002">
        <ele>438.660</ele>
        <time>2022-08-24T07:04:02Z</time>
      </trkpt>
      <trkpt lat="43.12705799999995" lon="-1.244270000000002">
        <ele>439.039</ele>
        <time>2022-08-24T07:04:03Z</time>
      </trkpt>
      <trkpt lat="43.12704999999995" lon="-1.244272000000002">
        <ele>439.282</ele>
        <time>2022-08-24T07:04:04Z</time>
      </trkpt>
      <trkpt lat="43.127039999999944" lon="-1.244278000000002">
        <ele>439.643</ele>
        <time>2022-08-24T07:04:05Z</time>
      </trkpt>
      <trkpt lat="43.12702899999994" lon="-1.244280000000002">
        <ele>439.817</ele>
        <time>2022-08-24T07:04:06Z</time>
      </trkpt>
      <trkpt lat="43.127019999999945" lon="-1.2442790000000021">
        <ele>440.009</ele>
        <time>2022-08-24T07:04:07Z</time>
      </trkpt>
      <trkpt lat="43.127011999999944" lon="-1.244277000000002">
        <ele>440.089</ele>
        <time>2022-08-24T07:04:08Z</time>
      </trkpt>
      <trkpt lat="43.127005999999945" lon="-1.2442710000000021">
        <ele>440.279</ele>
        <time>2022-08-24T07:04:09Z</time>
      </trkpt>
      <trkpt lat="43.126996999999946" lon="-1.244264000000002">
        <ele>440.489</ele>
        <time>2022-08-24T07:04:10Z</time>
      </trkpt>
      <trkpt lat="43.126985999999945" lon="-1.244259000000002">
        <ele>440.485</ele>
        <time>2022-08-24T07:04:11Z</time>
      </trkpt>
      <trkpt lat="43.12697599999994" lon="-1.244261000000002">
        <ele>440.647</ele>
        <time>2022-08-24T07:04:12Z</time>
      </trkpt>
      <trkpt lat="43.126968999999946" lon="-1.2442680000000022">
        <ele>440.844</ele>
        <time>2022-08-24T07:04:13Z</time>
      </trkpt>
      <trkpt lat="43.12696199999995" lon="-1.2442760000000022">
        <ele>441.047</ele>
        <time>2022-08-24T07:04:14Z</time>
      </trkpt>
      <trkpt lat="43.12695499999995" lon="-1.2442840000000022">
        <ele>441.081</ele>
        <time>2022-08-24T07:04:15Z</time>
      </trkpt>
      <trkpt lat="43.12694699999995" lon="-1.244288000000002">
        <ele>441.430</ele>
        <time>2022-08-24T07:04:16Z</time>
      </trkpt>
      <trkpt lat="43.12693799999995" lon="-1.2442900000000021">
        <ele>441.422</ele>
        <time>2022-08-24T07:04:17Z</time>
      </trkpt>
      <trkpt lat="43.12692699999995" lon="-1.2442890000000022">
        <ele>441.662</ele>
        <time>2022-08-24T07:04:18Z</time>
      </trkpt>
      <trkpt lat="43.12691699999995" lon="-1.2442850000000023">
        <ele>441.608</ele>
        <time>2022-08-24T07:04:19Z</time>
      </trkpt>
      <trkpt lat="43.126906999999946" lon="-1.2442750000000022">
        <ele>441.609</ele>
        <time>2022-08-24T07:04:20Z</time>
      </trkpt>
      <trkpt lat="43.12689799999995" lon="-1.2442660000000023">
        <ele>441.883</ele>
        <time>2022-08-24T07:04:21Z</time>
      </trkpt>
      <trkpt lat="43.12688899999995" lon="-1.2442580000000023">
        <ele>441.843</ele>
        <time>2022-08-24T07:04:22Z</time>
      </trkpt>
      <trkpt lat="43.12688099999995" lon="-1.2442610000000023">
        <ele>442.063</ele>
        <time>2022-08-24T07:04:23Z</time>
      </trkpt>
      <trkpt lat="43.12687399999995" lon="-1.2442660000000023">
        <ele>442.489</ele>
        <time>2022-08-24T07:04:24Z</time>
      </trkpt>
      <trkpt lat="43.126869999999954" lon="-1.2442780000000022">
        <ele>442.651</ele>
        <time>2022-08-24T07:04:25Z</time>
      </trkpt>
      <trkpt lat="43.126863999999955" lon="-1.2442900000000021">
        <ele>442.868</ele>
        <time>2022-08-24T07:04:26Z</time>
      </trkpt>
      <trkpt lat="43.12685699999996" lon="-1.244301000000002">
        <ele>443.071</ele>
        <time>2022-08-24T07:04:27Z</time>
      </trkpt>
      <trkpt lat="43.126846999999955" lon="-1.244305000000002">
        <ele>443.075</ele>
        <time>2022-08-24T07:04:28Z</time>
      </trkpt>
      <trkpt lat="43.12683799999996" lon="-1.244300000000002">
        <ele>443.294</ele>
        <time>2022-08-24T07:04:29Z</time>
      </trkpt>
      <trkpt lat="43.12682599999996" lon="-1.2442930000000019">
        <ele>443.288</ele>
        <time>2022-08-24T07:04:30Z</time>
      </trkpt>
      <trkpt lat="43.12681499999996" lon="-1.244284000000002">
        <ele>443.424</ele>
        <time>2022-08-24T07:04:31Z</time>
      </trkpt>
      <trkpt lat="43.126801999999955" lon="-1.244279000000002">
        <ele>443.426</ele>
        <time>2022-08-24T07:04:32Z</time>
      </trkpt>
      <trkpt lat="43.12678999999996" lon="-1.2442800000000018">
        <ele>443.409</ele>
        <time>2022-08-24T07:04:33Z</time>
      </trkpt>
      <trkpt lat="43.12677899999996" lon="-1.2442880000000018">
        <ele>443.679</ele>
        <time>2022-08-24T07:04:34Z</time>
      </trkpt>
      <trkpt lat="43.12676699999996" lon="-1.2442920000000017">
        <ele>443.879</ele>
        <time>2022-08-24T07:04:35Z</time>
      </trkpt>
      <trkpt lat="43.12675799999996" lon="-1.2442990000000018">
        <ele>443.879</ele>
        <time>2022-08-24T07:04:36Z</time>
      </trkpt>
      <trkpt lat="43.12674499999996" lon="-1.2443050000000018">
        <ele>444.035</ele>
        <time>2022-08-24T07:04:37Z</time>
      </trkpt>
      <trkpt lat="43.126733999999956" lon="-1.2443080000000017">
        <ele>444.267</ele>
        <time>2022-08-24T07:04:38Z</time>
      </trkpt>
      <trkpt lat="43.126722999999956" lon="-1.2443100000000018">
        <ele>444.224</ele>
        <time>2022-08-24T07:04:39Z</time>
      </trkpt>
      <trkpt lat="43.12671399999996" lon="-1.2443130000000018">
        <ele>444.487</ele>
        <time>2022-08-24T07:04:40Z</time>
      </trkpt>
      <trkpt lat="43.126703999999954" lon="-1.2443130000000018">
        <ele>444.421</ele>
        <time>2022-08-24T07:04:41Z</time>
      </trkpt>
      <trkpt lat="43.126691999999956" lon="-1.2443170000000017">
        <ele>444.890</ele>
        <time>2022-08-24T07:04:42Z</time>
      </trkpt>
      <trkpt lat="43.12667999999996" lon="-1.2443240000000018">
        <ele>445.064</ele>
        <time>2022-08-24T07:04:43Z</time>
      </trkpt>
      <trkpt lat="43.12666799999996" lon="-1.2443310000000019">
        <ele>445.206</ele>
        <time>2022-08-24T07:04:44Z</time>
      </trkpt>
      <trkpt lat="43.12665599999996" lon="-1.2443340000000018">
        <ele>445.416</ele>
        <time>2022-08-24T07:04:45Z</time>
      </trkpt>
      <trkpt lat="43.12664199999996" lon="-1.2443350000000017">
        <ele>445.409</ele>
        <time>2022-08-24T07:04:46Z</time>
      </trkpt>
      <trkpt lat="43.12663099999996" lon="-1.2443370000000018">
        <ele>445.687</ele>
        <time>2022-08-24T07:04:47Z</time>
      </trkpt>
      <trkpt lat="43.12661999999996" lon="-1.2443390000000019">
        <ele>445.637</ele>
        <time>2022-08-24T07:04:48Z</time>
      </trkpt>
      <trkpt lat="43.12660899999996" lon="-1.244341000000002">
        <ele>445.857</ele>
        <time>2022-08-24T07:04:49Z</time>
      </trkpt>
      <trkpt lat="43.12659999999996" lon="-1.2443450000000018">
        <ele>446.013</ele>
        <time>2022-08-24T07:04:50Z</time>
      </trkpt>
      <trkpt lat="43.12659099999996" lon="-1.2443500000000018">
        <ele>446.235</ele>
        <time>2022-08-24T07:04:51Z</time>
      </trkpt>
      <trkpt lat="43.12658099999996" lon="-1.2443540000000017">
        <ele>446.422</ele>
        <time>2022-08-24T07:04:52Z</time>
      </trkpt>
      <trkpt lat="43.126570999999956" lon="-1.2443560000000018">
        <ele>446.665</ele>
        <time>2022-08-24T07:04:53Z</time>
      </trkpt>
      <trkpt lat="43.12656199999996" lon="-1.2443580000000019">
        <ele>446.639</ele>
        <time>2022-08-24T07:04:54Z</time>
      </trkpt>
      <trkpt lat="43.12655099999996" lon="-1.2443580000000019">
        <ele>446.818</ele>
        <time>2022-08-24T07:04:55Z</time>
      </trkpt>
      <trkpt lat="43.12654099999995" lon="-1.2443560000000018">
        <ele>447.066</ele>
        <time>2022-08-24T07:04:56Z</time>
      </trkpt>
      <trkpt lat="43.12653099999995" lon="-1.2443540000000017">
        <ele>447.229</ele>
        <time>2022-08-24T07:04:57Z</time>
      </trkpt>
      <trkpt lat="43.12651999999995" lon="-1.2443550000000017">
        <ele>447.421</ele>
        <time>2022-08-24T07:04:58Z</time>
      </trkpt>
      <trkpt lat="43.12650899999995" lon="-1.2443570000000017">
        <ele>447.609</ele>
        <time>2022-08-24T07:04:59Z</time>
      </trkpt>
      <trkpt lat="43.12649799999995" lon="-1.2443620000000017">
        <ele>447.897</ele>
        <time>2022-08-24T07:05:00Z</time>
      </trkpt>
      <trkpt lat="43.126487999999945" lon="-1.2443690000000018">
        <ele>448.047</ele>
        <time>2022-08-24T07:05:01Z</time>
      </trkpt>
      <trkpt lat="43.12647799999994" lon="-1.2443770000000018">
        <ele>448.087</ele>
        <time>2022-08-24T07:05:02Z</time>
      </trkpt>
      <trkpt lat="43.12646799999994" lon="-1.2443820000000019">
        <ele>448.243</ele>
        <time>2022-08-24T07:05:03Z</time>
      </trkpt>
      <trkpt lat="43.126457999999936" lon="-1.2443850000000019">
        <ele>448.265</ele>
        <time>2022-08-24T07:05:04Z</time>
      </trkpt>
      <trkpt lat="43.126449999999934" lon="-1.2443890000000017">
        <ele>448.652</ele>
        <time>2022-08-24T07:05:05Z</time>
      </trkpt>
      <trkpt lat="43.126438999999934" lon="-1.2443910000000018">
        <ele>448.815</ele>
        <time>2022-08-24T07:05:06Z</time>
      </trkpt>
      <trkpt lat="43.12642899999993" lon="-1.2443970000000018">
        <ele>448.839</ele>
        <time>2022-08-24T07:05:07Z</time>
      </trkpt>
      <trkpt lat="43.12641999999993" lon="-1.2444040000000018">
        <ele>448.848</ele>
        <time>2022-08-24T07:05:08Z</time>
      </trkpt>
      <trkpt lat="43.12640899999993" lon="-1.2444090000000019">
        <ele>449.074</ele>
        <time>2022-08-24T07:05:09Z</time>
      </trkpt>
      <trkpt lat="43.12639999999993" lon="-1.2444130000000018">
        <ele>449.256</ele>
        <time>2022-08-24T07:05:10Z</time>
      </trkpt>
      <trkpt lat="43.126392999999936" lon="-1.2444160000000017">
        <ele>449.421</ele>
        <time>2022-08-24T07:05:11Z</time>
      </trkpt>
      <trkpt lat="43.12638399999994" lon="-1.2444200000000016">
        <ele>449.609</ele>
        <time>2022-08-24T07:05:12Z</time>
      </trkpt>
      <trkpt lat="43.12637699999994" lon="-1.2444270000000017">
        <ele>450.068</ele>
        <time>2022-08-24T07:05:13Z</time>
      </trkpt>
      <trkpt lat="43.12636599999994" lon="-1.2444310000000016">
        <ele>450.288</ele>
        <time>2022-08-24T07:05:14Z</time>
      </trkpt>
      <trkpt lat="43.12635399999994" lon="-1.2444350000000015">
        <ele>450.248</ele>
        <time>2022-08-24T07:05:15Z</time>
      </trkpt>
      <trkpt lat="43.12634299999994" lon="-1.2444420000000016">
        <ele>450.464</ele>
        <time>2022-08-24T07:05:16Z</time>
      </trkpt>
      <trkpt lat="43.12633299999994" lon="-1.2444490000000017">
        <ele>450.626</ele>
        <time>2022-08-24T07:05:17Z</time>
      </trkpt>
      <trkpt lat="43.12632099999994" lon="-1.2444520000000017">
        <ele>450.663</ele>
        <time>2022-08-24T07:05:18Z</time>
      </trkpt>
      <trkpt lat="43.12630899999994" lon="-1.2444570000000017">
        <ele>450.866</ele>
        <time>2022-08-24T07:05:19Z</time>
      </trkpt>
      <trkpt lat="43.12630899999994" lon="-1.2444570000000017">
        <ele>451.070</ele>
        <time>2022-08-24T07:05:20Z</time>
      </trkpt>
      <trkpt lat="43.12628899999994" lon="-1.2444680000000017">
        <ele>451.239</ele>
        <time>2022-08-24T07:05:21Z</time>
      </trkpt>
      <trkpt lat="43.12627899999994" lon="-1.2444720000000016">
        <ele>451.638</ele>
        <time>2022-08-24T07:05:22Z</time>
      </trkpt>
      <trkpt lat="43.12626899999994" lon="-1.2444790000000017">
        <ele>451.670</ele>
        <time>2022-08-24T07:05:23Z</time>
      </trkpt>
      <trkpt lat="43.12625899999993" lon="-1.2444870000000017">
        <ele>451.817</ele>
        <time>2022-08-24T07:05:24Z</time>
      </trkpt>
      <trkpt lat="43.12624899999993" lon="-1.2444930000000016">
        <ele>451.809</ele>
        <time>2022-08-24T07:05:25Z</time>
      </trkpt>
      <trkpt lat="43.12623999999993" lon="-1.2444920000000017">
        <ele>452.274</ele>
        <time>2022-08-24T07:05:26Z</time>
      </trkpt>
      <trkpt lat="43.126227999999934" lon="-1.2444930000000016">
        <ele>452.244</ele>
        <time>2022-08-24T07:05:27Z</time>
      </trkpt>
      <trkpt lat="43.12621699999993" lon="-1.2444960000000016">
        <ele>452.664</ele>
        <time>2022-08-24T07:05:28Z</time>
      </trkpt>
      <trkpt lat="43.12620699999993" lon="-1.2444990000000016">
        <ele>452.870</ele>
        <time>2022-08-24T07:05:29Z</time>
      </trkpt>
      <trkpt lat="43.12619699999993" lon="-1.2445040000000016">
        <ele>452.852</ele>
        <time>2022-08-24T07:05:30Z</time>
      </trkpt>
      <trkpt lat="43.12618699999992" lon="-1.2445100000000016">
        <ele>453.069</ele>
        <time>2022-08-24T07:05:31Z</time>
      </trkpt>
      <trkpt lat="43.12617699999992" lon="-1.2445130000000015">
        <ele>453.272</ele>
        <time>2022-08-24T07:05:32Z</time>
      </trkpt>
      <trkpt lat="43.12616699999992" lon="-1.2445180000000016">
        <ele>453.286</ele>
        <time>2022-08-24T07:05:33Z</time>
      </trkpt>
      <trkpt lat="43.12615799999992" lon="-1.2445230000000016">
        <ele>453.445</ele>
        <time>2022-08-24T07:05:34Z</time>
      </trkpt>
      <trkpt lat="43.12614899999992" lon="-1.2445300000000017">
        <ele>453.445</ele>
        <time>2022-08-24T07:05:35Z</time>
      </trkpt>
      <trkpt lat="43.12613999999992" lon="-1.2445380000000017">
        <ele>453.847</ele>
        <time>2022-08-24T07:05:36Z</time>
      </trkpt>
      <trkpt lat="43.12613099999992" lon="-1.2445460000000017">
        <ele>453.811</ele>
        <time>2022-08-24T07:05:37Z</time>
      </trkpt>
      <trkpt lat="43.12612099999992" lon="-1.2445530000000018">
        <ele>454.009</ele>
        <time>2022-08-24T07:05:38Z</time>
      </trkpt>
      <trkpt lat="43.126110999999916" lon="-1.2445580000000018">
        <ele>454.275</ele>
        <time>2022-08-24T07:05:39Z</time>
      </trkpt>
      <trkpt lat="43.12610099999991" lon="-1.2445600000000019">
        <ele>454.485</ele>
        <time>2022-08-24T07:05:40Z</time>
      </trkpt>
      <trkpt lat="43.12608999999991" lon="-1.244562000000002">
        <ele>454.685</ele>
        <time>2022-08-24T07:05:41Z</time>
      </trkpt>
      <trkpt lat="43.12608399999991" lon="-1.2445710000000019">
        <ele>454.871</ele>
        <time>2022-08-24T07:05:42Z</time>
      </trkpt>
      <trkpt lat="43.12607299999991" lon="-1.2445830000000018">
        <ele>455.023</ele>
        <time>2022-08-24T07:05:43Z</time>
      </trkpt>
      <trkpt lat="43.12606299999991" lon="-1.2445910000000018">
        <ele>455.230</ele>
        <time>2022-08-24T07:05:44Z</time>
      </trkpt>
      <trkpt lat="43.12605299999991" lon="-1.2445970000000017">
        <ele>455.443</ele>
        <time>2022-08-24T07:05:45Z</time>
      </trkpt>
      <trkpt lat="43.126041999999906" lon="-1.2446000000000017">
        <ele>455.437</ele>
        <time>2022-08-24T07:05:46Z</time>
      </trkpt>
      <trkpt lat="43.1260319999999" lon="-1.2446030000000017">
        <ele>455.666</ele>
        <time>2022-08-24T07:05:47Z</time>
      </trkpt>
      <trkpt lat="43.126019999999905" lon="-1.2446020000000018">
        <ele>455.659</ele>
        <time>2022-08-24T07:05:48Z</time>
      </trkpt>
      <trkpt lat="43.1260099999999" lon="-1.2445990000000018">
        <ele>455.803</ele>
        <time>2022-08-24T07:05:49Z</time>
      </trkpt>
      <trkpt lat="43.1259989999999" lon="-1.2445970000000017">
        <ele>456.223</ele>
        <time>2022-08-24T07:05:50Z</time>
      </trkpt>
      <trkpt lat="43.1259879999999" lon="-1.2445950000000017">
        <ele>456.209</ele>
        <time>2022-08-24T07:05:51Z</time>
      </trkpt>
      <trkpt lat="43.1259779999999" lon="-1.2445950000000017">
        <ele>456.466</ele>
        <time>2022-08-24T07:05:52Z</time>
      </trkpt>
      <trkpt lat="43.125969999999896" lon="-1.2446040000000016">
        <ele>456.466</ele>
        <time>2022-08-24T07:05:53Z</time>
      </trkpt>
      <trkpt lat="43.12595999999989" lon="-1.2446090000000016">
        <ele>456.626</ele>
        <time>2022-08-24T07:05:54Z</time>
      </trkpt>
      <trkpt lat="43.12594999999989" lon="-1.2446140000000017">
        <ele>456.842</ele>
        <time>2022-08-24T07:05:55Z</time>
      </trkpt>
      <trkpt lat="43.12594099999989" lon="-1.2446190000000017">
        <ele>457.074</ele>
        <time>2022-08-24T07:05:56Z</time>
      </trkpt>
      <trkpt lat="43.125933999999894" lon="-1.2446250000000016">
        <ele>457.441</ele>
        <time>2022-08-24T07:05:57Z</time>
      </trkpt>
      <trkpt lat="43.12592599999989" lon="-1.2446260000000016">
        <ele>457.484</ele>
        <time>2022-08-24T07:05:58Z</time>
      </trkpt>
      <trkpt lat="43.1259189999999" lon="-1.2446270000000015">
        <ele>457.648</ele>
        <time>2022-08-24T07:05:59Z</time>
      </trkpt>
      <trkpt lat="43.125910999999896" lon="-1.2446250000000014">
        <ele>457.687</ele>
        <time>2022-08-24T07:06:00Z</time>
      </trkpt>
      <trkpt lat="43.12590099999989" lon="-1.2446200000000014">
        <ele>458.052</ele>
        <time>2022-08-24T07:06:01Z</time>
      </trkpt>
      <trkpt lat="43.125891999999894" lon="-1.2446150000000014">
        <ele>458.053</ele>
        <time>2022-08-24T07:06:02Z</time>
      </trkpt>
      <trkpt lat="43.125879999999896" lon="-1.2446090000000014">
        <ele>458.208</ele>
        <time>2022-08-24T07:06:03Z</time>
      </trkpt>
      <trkpt lat="43.12586999999989" lon="-1.2446030000000015">
        <ele>458.409</ele>
        <time>2022-08-24T07:06:04Z</time>
      </trkpt>
      <trkpt lat="43.12585899999989" lon="-1.2446000000000015">
        <ele>458.436</ele>
        <time>2022-08-24T07:06:05Z</time>
      </trkpt>
      <trkpt lat="43.125846999999894" lon="-1.2446010000000014">
        <ele>458.646</ele>
        <time>2022-08-24T07:06:06Z</time>
      </trkpt>
      <trkpt lat="43.12583699999989" lon="-1.2446040000000014">
        <ele>458.876</ele>
        <time>2022-08-24T07:06:07Z</time>
      </trkpt>
      <trkpt lat="43.125829999999894" lon="-1.2446120000000014">
        <ele>459.022</ele>
        <time>2022-08-24T07:06:08Z</time>
      </trkpt>
      <trkpt lat="43.1258229999999" lon="-1.2446200000000014">
        <ele>459.244</ele>
        <time>2022-08-24T07:06:09Z</time>
      </trkpt>
      <trkpt lat="43.1258139999999" lon="-1.2446250000000014">
        <ele>459.251</ele>
        <time>2022-08-24T07:06:10Z</time>
      </trkpt>
      <trkpt lat="43.1257999999999" lon="-1.2446290000000013">
        <ele>459.424</ele>
        <time>2022-08-24T07:06:11Z</time>
      </trkpt>
      <trkpt lat="43.1257889999999" lon="-1.2446250000000014">
        <ele>459.628</ele>
        <time>2022-08-24T07:06:12Z</time>
      </trkpt>
      <trkpt lat="43.125778999999895" lon="-1.2446220000000014">
        <ele>459.817</ele>
        <time>2022-08-24T07:06:13Z</time>
      </trkpt>
      <trkpt lat="43.1257669999999" lon="-1.2446150000000014">
        <ele>460.094</ele>
        <time>2022-08-24T07:06:14Z</time>
      </trkpt>
      <trkpt lat="43.12575699999989" lon="-1.2446160000000013">
        <ele>460.257</ele>
        <time>2022-08-24T07:06:15Z</time>
      </trkpt>
      <trkpt lat="43.125747999999895" lon="-1.2446250000000012">
        <ele>460.222</ele>
        <time>2022-08-24T07:06:16Z</time>
      </trkpt>
      <trkpt lat="43.125747999999895" lon="-1.2446250000000012">
        <ele>460.409</ele>
        <time>2022-08-24T07:06:17Z</time>
      </trkpt>
      <trkpt lat="43.1257269999999" lon="-1.2446410000000012">
        <ele>460.670</ele>
        <time>2022-08-24T07:06:18Z</time>
      </trkpt>
      <trkpt lat="43.1257159999999" lon="-1.2446420000000011">
        <ele>460.880</ele>
        <time>2022-08-24T07:06:19Z</time>
      </trkpt>
      <trkpt lat="43.1257019999999" lon="-1.244646000000001">
        <ele>461.030</ele>
        <time>2022-08-24T07:06:20Z</time>
      </trkpt>
      <trkpt lat="43.125688999999895" lon="-1.244644000000001">
        <ele>461.246</ele>
        <time>2022-08-24T07:06:21Z</time>
      </trkpt>
      <trkpt lat="43.1256739999999" lon="-1.244642000000001">
        <ele>461.438</ele>
        <time>2022-08-24T07:06:22Z</time>
      </trkpt>
      <trkpt lat="43.125657999999895" lon="-1.2446400000000009">
        <ele>461.655</ele>
        <time>2022-08-24T07:06:23Z</time>
      </trkpt>
      <trkpt lat="43.1256459999999" lon="-1.2446430000000008">
        <ele>462.068</ele>
        <time>2022-08-24T07:06:24Z</time>
      </trkpt>
      <trkpt lat="43.1256309999999" lon="-1.244645000000001">
        <ele>462.662</ele>
        <time>2022-08-24T07:06:25Z</time>
      </trkpt>
      <trkpt lat="43.1256199999999" lon="-1.244644000000001">
        <ele>462.861</ele>
        <time>2022-08-24T07:06:26Z</time>
      </trkpt>
      <trkpt lat="43.1256029999999" lon="-1.244638000000001">
        <ele>463.062</ele>
        <time>2022-08-24T07:06:27Z</time>
      </trkpt>
      <trkpt lat="43.1255909999999" lon="-1.244637000000001">
        <ele>463.283</ele>
        <time>2022-08-24T07:06:28Z</time>
      </trkpt>
      <trkpt lat="43.1255769999999" lon="-1.244640000000001">
        <ele>463.411</ele>
        <time>2022-08-24T07:06:29Z</time>
      </trkpt>
      <trkpt lat="43.1255619999999" lon="-1.244649000000001">
        <ele>463.609</ele>
        <time>2022-08-24T07:06:30Z</time>
      </trkpt>
      <trkpt lat="43.125546999999905" lon="-1.244657000000001">
        <ele>463.897</ele>
        <time>2022-08-24T07:06:31Z</time>
      </trkpt>
      <trkpt lat="43.125532999999905" lon="-1.244660000000001">
        <ele>464.257</ele>
        <time>2022-08-24T07:06:32Z</time>
      </trkpt>
      <trkpt lat="43.125515999999905" lon="-1.244663000000001">
        <ele>464.427</ele>
        <time>2022-08-24T07:06:33Z</time>
      </trkpt>
      <trkpt lat="43.125501999999905" lon="-1.244665000000001">
        <ele>464.633</ele>
        <time>2022-08-24T07:06:34Z</time>
      </trkpt>
      <trkpt lat="43.12548999999991" lon="-1.244664000000001">
        <ele>465.075</ele>
        <time>2022-08-24T07:06:35Z</time>
      </trkpt>
      <trkpt lat="43.12548999999991" lon="-1.244664000000001">
        <ele>465.432</ele>
        <time>2022-08-24T07:06:36Z</time>
      </trkpt>
      <trkpt lat="43.12546699999991" lon="-1.244670000000001">
        <ele>465.655</ele>
        <time>2022-08-24T07:06:37Z</time>
      </trkpt>
      <trkpt lat="43.12545499999991" lon="-1.2446660000000012">
        <ele>466.049</ele>
        <time>2022-08-24T07:06:38Z</time>
      </trkpt>
      <trkpt lat="43.12544299999991" lon="-1.2446610000000011">
        <ele>466.218</ele>
        <time>2022-08-24T07:06:39Z</time>
      </trkpt>
      <trkpt lat="43.12543299999991" lon="-1.244664000000001">
        <ele>466.443</ele>
        <time>2022-08-24T07:06:40Z</time>
      </trkpt>
      <trkpt lat="43.12542499999991" lon="-1.244668000000001">
        <ele>466.864</ele>
        <time>2022-08-24T07:06:41Z</time>
      </trkpt>
      <trkpt lat="43.12541599999991" lon="-1.244671000000001">
        <ele>466.810</ele>
        <time>2022-08-24T07:06:42Z</time>
      </trkpt>
      <trkpt lat="43.125405999999906" lon="-1.2446750000000009">
        <ele>467.209</ele>
        <time>2022-08-24T07:06:43Z</time>
      </trkpt>
      <trkpt lat="43.12539399999991" lon="-1.244674000000001">
        <ele>467.255</ele>
        <time>2022-08-24T07:06:44Z</time>
      </trkpt>
      <trkpt lat="43.12538499999991" lon="-1.244676000000001">
        <ele>467.455</ele>
        <time>2022-08-24T07:06:45Z</time>
      </trkpt>
      <trkpt lat="43.125374999999906" lon="-1.244676000000001">
        <ele>467.685</ele>
        <time>2022-08-24T07:06:46Z</time>
      </trkpt>
      <trkpt lat="43.125366999999905" lon="-1.244676000000001">
        <ele>467.851</ele>
        <time>2022-08-24T07:06:47Z</time>
      </trkpt>
      <trkpt lat="43.12535499999991" lon="-1.244680000000001">
        <ele>468.283</ele>
        <time>2022-08-24T07:06:48Z</time>
      </trkpt>
      <trkpt lat="43.12534299999991" lon="-1.2446860000000008">
        <ele>468.460</ele>
        <time>2022-08-24T07:06:49Z</time>
      </trkpt>
      <trkpt lat="43.12532899999991" lon="-1.2446950000000008">
        <ele>468.633</ele>
        <time>2022-08-24T07:06:50Z</time>
      </trkpt>
      <trkpt lat="43.12531699999991" lon="-1.2447040000000007">
        <ele>468.837</ele>
        <time>2022-08-24T07:06:51Z</time>
      </trkpt>
      <trkpt lat="43.12530699999991" lon="-1.2447090000000007">
        <ele>469.076</ele>
        <time>2022-08-24T07:06:52Z</time>
      </trkpt>
      <trkpt lat="43.125293999999904" lon="-1.2447100000000006">
        <ele>469.224</ele>
        <time>2022-08-24T07:06:53Z</time>
      </trkpt>
      <trkpt lat="43.125282999999904" lon="-1.2447120000000007">
        <ele>469.204</ele>
        <time>2022-08-24T07:06:54Z</time>
      </trkpt>
      <trkpt lat="43.1252729999999" lon="-1.2447140000000008">
        <ele>469.414</ele>
        <time>2022-08-24T07:06:55Z</time>
      </trkpt>
      <trkpt lat="43.1252619999999" lon="-1.2447160000000008">
        <ele>469.609</ele>
        <time>2022-08-24T07:06:56Z</time>
      </trkpt>
      <trkpt lat="43.1252509999999" lon="-1.244715000000001">
        <ele>469.643</ele>
        <time>2022-08-24T07:06:57Z</time>
      </trkpt>
      <trkpt lat="43.125240999999896" lon="-1.244711000000001">
        <ele>469.833</ele>
        <time>2022-08-24T07:06:58Z</time>
      </trkpt>
      <trkpt lat="43.12523099999989" lon="-1.244706000000001">
        <ele>470.073</ele>
        <time>2022-08-24T07:06:59Z</time>
      </trkpt>
      <trkpt lat="43.12522099999989" lon="-1.2446990000000009">
        <ele>470.239</ele>
        <time>2022-08-24T07:07:00Z</time>
      </trkpt>
      <trkpt lat="43.12521099999989" lon="-1.2446910000000009">
        <ele>470.471</ele>
        <time>2022-08-24T07:07:01Z</time>
      </trkpt>
      <trkpt lat="43.125199999999886" lon="-1.244688000000001">
        <ele>470.648</ele>
        <time>2022-08-24T07:07:02Z</time>
      </trkpt>
      <trkpt lat="43.125188999999885" lon="-1.244685000000001">
        <ele>470.631</ele>
        <time>2022-08-24T07:07:03Z</time>
      </trkpt>
      <trkpt lat="43.125177999999885" lon="-1.2446860000000008">
        <ele>470.875</ele>
        <time>2022-08-24T07:07:04Z</time>
      </trkpt>
      <trkpt lat="43.12517099999989" lon="-1.2446910000000009">
        <ele>471.084</ele>
        <time>2022-08-24T07:07:05Z</time>
      </trkpt>
      <trkpt lat="43.125165999999886" lon="-1.2446940000000009">
        <ele>471.434</ele>
        <time>2022-08-24T07:07:06Z</time>
      </trkpt>
      <trkpt lat="43.12515899999989" lon="-1.2446970000000008">
        <ele>471.655</ele>
        <time>2022-08-24T07:07:07Z</time>
      </trkpt>
      <trkpt lat="43.12514599999989" lon="-1.2446980000000007">
        <ele>471.610</ele>
        <time>2022-08-24T07:07:08Z</time>
      </trkpt>
      <trkpt lat="43.12513199999989" lon="-1.2447020000000006">
        <ele>471.809</ele>
        <time>2022-08-24T07:07:09Z</time>
      </trkpt>
      <trkpt lat="43.125121999999884" lon="-1.2447020000000006">
        <ele>472.044</ele>
        <time>2022-08-24T07:07:10Z</time>
      </trkpt>
      <trkpt lat="43.125112999999885" lon="-1.2447040000000007">
        <ele>472.434</ele>
        <time>2022-08-24T07:07:11Z</time>
      </trkpt>
      <trkpt lat="43.12510399999989" lon="-1.2447100000000006">
        <ele>472.464</ele>
        <time>2022-08-24T07:07:12Z</time>
      </trkpt>
      <trkpt lat="43.12509199999989" lon="-1.2447140000000005">
        <ele>472.890</ele>
        <time>2022-08-24T07:07:13Z</time>
      </trkpt>
      <trkpt lat="43.125081999999885" lon="-1.2447180000000004">
        <ele>473.022</ele>
        <time>2022-08-24T07:07:14Z</time>
      </trkpt>
      <trkpt lat="43.12506999999989" lon="-1.2447190000000004">
        <ele>473.229</ele>
        <time>2022-08-24T07:07:15Z</time>
      </trkpt>
      <trkpt lat="43.12505899999989" lon="-1.2447180000000004">
        <ele>473.282</ele>
        <time>2022-08-24T07:07:16Z</time>
      </trkpt>
      <trkpt lat="43.12504699999989" lon="-1.2447100000000004">
        <ele>473.466</ele>
        <time>2022-08-24T07:07:17Z</time>
      </trkpt>
      <trkpt lat="43.12503299999989" lon="-1.2447070000000005">
        <ele>473.685</ele>
        <time>2022-08-24T07:07:18Z</time>
      </trkpt>
      <trkpt lat="43.12501899999989" lon="-1.2447060000000005">
        <ele>473.839</ele>
        <time>2022-08-24T07:07:19Z</time>
      </trkpt>
      <trkpt lat="43.12500999999989" lon="-1.2447090000000005">
        <ele>473.801</ele>
        <time>2022-08-24T07:07:20Z</time>
      </trkpt>
      <trkpt lat="43.12500199999989" lon="-1.2447090000000005">
        <ele>474.221</ele>
        <time>2022-08-24T07:07:21Z</time>
      </trkpt>
      <trkpt lat="43.12499499999989" lon="-1.2447080000000006">
        <ele>474.409</ele>
        <time>2022-08-24T07:07:22Z</time>
      </trkpt>
      <trkpt lat="43.124987999999895" lon="-1.2447030000000006">
        <ele>474.684</ele>
        <time>2022-08-24T07:07:23Z</time>
      </trkpt>
      <trkpt lat="43.12497799999989" lon="-1.2446960000000005">
        <ele>474.654</ele>
        <time>2022-08-24T07:07:24Z</time>
      </trkpt>
      <trkpt lat="43.12496399999989" lon="-1.2446940000000004">
        <ele>475.034</ele>
        <time>2022-08-24T07:07:25Z</time>
      </trkpt>
      <trkpt lat="43.124951999999894" lon="-1.2446990000000004">
        <ele>475.070</ele>
        <time>2022-08-24T07:07:26Z</time>
      </trkpt>
      <trkpt lat="43.12494099999989" lon="-1.2447040000000005">
        <ele>475.442</ele>
        <time>2022-08-24T07:07:27Z</time>
      </trkpt>
      <trkpt lat="43.12494099999989" lon="-1.2447040000000005">
        <ele>475.889</ele>
        <time>2022-08-24T07:07:28Z</time>
      </trkpt>
      <trkpt lat="43.12491899999989" lon="-1.2447190000000006">
        <ele>476.012</ele>
        <time>2022-08-24T07:07:29Z</time>
      </trkpt>
      <trkpt lat="43.12490899999989" lon="-1.2447250000000005">
        <ele>476.296</ele>
        <time>2022-08-24T07:07:30Z</time>
      </trkpt>
      <trkpt lat="43.12489999999989" lon="-1.2447320000000006">
        <ele>476.475</ele>
        <time>2022-08-24T07:07:31Z</time>
      </trkpt>
      <trkpt lat="43.12489199999989" lon="-1.2447420000000007">
        <ele>476.843</ele>
        <time>2022-08-24T07:07:32Z</time>
      </trkpt>
      <trkpt lat="43.12488399999989" lon="-1.2447520000000007">
        <ele>476.864</ele>
        <time>2022-08-24T07:07:33Z</time>
      </trkpt>
      <trkpt lat="43.124873999999885" lon="-1.2447600000000008">
        <ele>477.010</ele>
        <time>2022-08-24T07:07:34Z</time>
      </trkpt>
      <trkpt lat="43.124864999999886" lon="-1.2447630000000007">
        <ele>477.009</ele>
        <time>2022-08-24T07:07:35Z</time>
      </trkpt>
      <trkpt lat="43.12485599999989" lon="-1.2447670000000006">
        <ele>477.245</ele>
        <time>2022-08-24T07:07:36Z</time>
      </trkpt>
      <trkpt lat="43.124845999999884" lon="-1.2447740000000007">
        <ele>477.475</ele>
        <time>2022-08-24T07:07:37Z</time>
      </trkpt>
      <trkpt lat="43.124836999999886" lon="-1.2447820000000007">
        <ele>477.425</ele>
        <time>2022-08-24T07:07:38Z</time>
      </trkpt>
      <trkpt lat="43.124828999999885" lon="-1.2447870000000008">
        <ele>477.831</ele>
        <time>2022-08-24T07:07:39Z</time>
      </trkpt>
      <trkpt lat="43.12481899999988" lon="-1.2447910000000006">
        <ele>478.023</ele>
        <time>2022-08-24T07:07:40Z</time>
      </trkpt>
      <trkpt lat="43.12480599999988" lon="-1.2447950000000005">
        <ele>478.250</ele>
        <time>2022-08-24T07:07:41Z</time>
      </trkpt>
      <trkpt lat="43.124795999999876" lon="-1.2448010000000005">
        <ele>478.433</ele>
        <time>2022-08-24T07:07:42Z</time>
      </trkpt>
      <trkpt lat="43.124784999999875" lon="-1.2448040000000005">
        <ele>478.427</ele>
        <time>2022-08-24T07:07:43Z</time>
      </trkpt>
      <trkpt lat="43.124773999999874" lon="-1.2448010000000005">
        <ele>478.496</ele>
        <time>2022-08-24T07:07:44Z</time>
      </trkpt>
      <trkpt lat="43.124764999999876" lon="-1.2447970000000006">
        <ele>478.613</ele>
        <time>2022-08-24T07:07:45Z</time>
      </trkpt>
      <trkpt lat="43.12475299999988" lon="-1.2448030000000005">
        <ele>479.043</ele>
        <time>2022-08-24T07:07:46Z</time>
      </trkpt>
      <trkpt lat="43.124739999999875" lon="-1.2448120000000005">
        <ele>479.007</ele>
        <time>2022-08-24T07:07:47Z</time>
      </trkpt>
      <trkpt lat="43.12472499999988" lon="-1.2448190000000006">
        <ele>479.209</ele>
        <time>2022-08-24T07:07:48Z</time>
      </trkpt>
      <trkpt lat="43.12471399999988" lon="-1.2448270000000006">
        <ele>479.482</ele>
        <time>2022-08-24T07:07:49Z</time>
      </trkpt>
      <trkpt lat="43.12470499999988" lon="-1.2448390000000005">
        <ele>479.412</ele>
        <time>2022-08-24T07:07:50Z</time>
      </trkpt>
      <trkpt lat="43.12469699999988" lon="-1.2448490000000005">
        <ele>479.872</ele>
        <time>2022-08-24T07:07:51Z</time>
      </trkpt>
      <trkpt lat="43.124688999999876" lon="-1.2448570000000005">
        <ele>479.898</ele>
        <time>2022-08-24T07:07:52Z</time>
      </trkpt>
      <trkpt lat="43.124680999999875" lon="-1.2448630000000005">
        <ele>480.010</ele>
        <time>2022-08-24T07:07:53Z</time>
      </trkpt>
      <trkpt lat="43.124671999999876" lon="-1.2448660000000005">
        <ele>480.257</ele>
        <time>2022-08-24T07:07:54Z</time>
      </trkpt>
      <trkpt lat="43.12466299999988" lon="-1.2448670000000004">
        <ele>480.230</ele>
        <time>2022-08-24T07:07:55Z</time>
      </trkpt>
      <trkpt lat="43.12465199999988" lon="-1.2448670000000004">
        <ele>480.254</ele>
        <time>2022-08-24T07:07:56Z</time>
      </trkpt>
      <trkpt lat="43.124641999999874" lon="-1.2448690000000004">
        <ele>480.453</ele>
        <time>2022-08-24T07:07:57Z</time>
      </trkpt>
      <trkpt lat="43.12463099999987" lon="-1.2448740000000005">
        <ele>480.472</ele>
        <time>2022-08-24T07:07:58Z</time>
      </trkpt>
      <trkpt lat="43.124624999999874" lon="-1.2448810000000006">
        <ele>480.613</ele>
        <time>2022-08-24T07:07:59Z</time>
      </trkpt>
      <trkpt lat="43.124615999999875" lon="-1.2448910000000006">
        <ele>480.614</ele>
        <time>2022-08-24T07:08:00Z</time>
      </trkpt>
      <trkpt lat="43.12460699999988" lon="-1.2449000000000006">
        <ele>480.809</ele>
        <time>2022-08-24T07:08:01Z</time>
      </trkpt>
      <trkpt lat="43.12459799999988" lon="-1.2449080000000006">
        <ele>480.868</ele>
        <time>2022-08-24T07:08:02Z</time>
      </trkpt>
      <trkpt lat="43.12458699999988" lon="-1.2449150000000007">
        <ele>481.028</ele>
        <time>2022-08-24T07:08:03Z</time>
      </trkpt>
      <trkpt lat="43.124576999999874" lon="-1.2449200000000007">
        <ele>481.028</ele>
        <time>2022-08-24T07:08:04Z</time>
      </trkpt>
      <trkpt lat="43.124567999999876" lon="-1.2449240000000006">
        <ele>481.264</ele>
        <time>2022-08-24T07:08:05Z</time>
      </trkpt>
      <trkpt lat="43.12455899999988" lon="-1.2449260000000006">
        <ele>481.256</ele>
        <time>2022-08-24T07:08:06Z</time>
      </trkpt>
      <trkpt lat="43.12454699999988" lon="-1.2449220000000008">
        <ele>481.413</ele>
        <time>2022-08-24T07:08:07Z</time>
      </trkpt>
      <trkpt lat="43.124533999999876" lon="-1.2449220000000008">
        <ele>481.656</ele>
        <time>2022-08-24T07:08:08Z</time>
      </trkpt>
      <trkpt lat="43.12452099999987" lon="-1.2449210000000008">
        <ele>481.620</ele>
        <time>2022-08-24T07:08:09Z</time>
      </trkpt>
      <trkpt lat="43.124508999999875" lon="-1.2449240000000008">
        <ele>482.079</ele>
        <time>2022-08-24T07:08:10Z</time>
      </trkpt>
      <trkpt lat="43.12449599999987" lon="-1.2449270000000008">
        <ele>482.027</ele>
        <time>2022-08-24T07:08:11Z</time>
      </trkpt>
      <trkpt lat="43.124486999999874" lon="-1.2449260000000009">
        <ele>482.268</ele>
        <time>2022-08-24T07:08:12Z</time>
      </trkpt>
      <trkpt lat="43.12447699999987" lon="-1.2449270000000008">
        <ele>482.414</ele>
        <time>2022-08-24T07:08:13Z</time>
      </trkpt>
      <trkpt lat="43.12446799999987" lon="-1.2449290000000008">
        <ele>482.609</ele>
        <time>2022-08-24T07:08:14Z</time>
      </trkpt>
      <trkpt lat="43.12445799999987" lon="-1.2449320000000008">
        <ele>482.893</ele>
        <time>2022-08-24T07:08:15Z</time>
      </trkpt>
      <trkpt lat="43.12444599999987" lon="-1.2449360000000007">
        <ele>483.093</ele>
        <time>2022-08-24T07:08:16Z</time>
      </trkpt>
      <trkpt lat="43.12443599999987" lon="-1.2449400000000006">
        <ele>483.223</ele>
        <time>2022-08-24T07:08:17Z</time>
      </trkpt>
      <trkpt lat="43.12442899999987" lon="-1.2449430000000006">
        <ele>483.429</ele>
        <time>2022-08-24T07:08:18Z</time>
      </trkpt>
      <trkpt lat="43.12441899999987" lon="-1.2449450000000006">
        <ele>483.841</ele>
        <time>2022-08-24T07:08:19Z</time>
      </trkpt>
      <trkpt lat="43.124408999999865" lon="-1.2449450000000006">
        <ele>483.858</ele>
        <time>2022-08-24T07:08:20Z</time>
      </trkpt>
      <trkpt lat="43.12439899999986" lon="-1.2449450000000006">
        <ele>484.051</ele>
        <time>2022-08-24T07:08:21Z</time>
      </trkpt>
      <trkpt lat="43.124386999999864" lon="-1.2449470000000007">
        <ele>484.255</ele>
        <time>2022-08-24T07:08:22Z</time>
      </trkpt>
      <trkpt lat="43.124371999999866" lon="-1.2449500000000007">
        <ele>484.224</ele>
        <time>2022-08-24T07:08:23Z</time>
      </trkpt>
      <trkpt lat="43.12435999999987" lon="-1.2449570000000008">
        <ele>484.623</ele>
        <time>2022-08-24T07:08:24Z</time>
      </trkpt>
      <trkpt lat="43.12434899999987" lon="-1.2449580000000007">
        <ele>484.683</ele>
        <time>2022-08-24T07:08:25Z</time>
      </trkpt>
      <trkpt lat="43.12433699999987" lon="-1.2449590000000006">
        <ele>485.011</ele>
        <time>2022-08-24T07:08:26Z</time>
      </trkpt>
      <trkpt lat="43.12432899999987" lon="-1.2449610000000007">
        <ele>485.009</ele>
        <time>2022-08-24T07:08:27Z</time>
      </trkpt>
      <trkpt lat="43.12432099999987" lon="-1.2449640000000006">
        <ele>485.483</ele>
        <time>2022-08-24T07:08:28Z</time>
      </trkpt>
      <trkpt lat="43.124312999999866" lon="-1.2449640000000006">
        <ele>485.843</ele>
        <time>2022-08-24T07:08:29Z</time>
      </trkpt>
      <trkpt lat="43.12430299999986" lon="-1.2449650000000005">
        <ele>485.883</ele>
        <time>2022-08-24T07:08:30Z</time>
      </trkpt>
      <trkpt lat="43.124290999999864" lon="-1.2449660000000005">
        <ele>486.069</ele>
        <time>2022-08-24T07:08:31Z</time>
      </trkpt>
      <trkpt lat="43.124281999999866" lon="-1.2449690000000004">
        <ele>486.241</ele>
        <time>2022-08-24T07:08:32Z</time>
      </trkpt>
      <trkpt lat="43.124273999999865" lon="-1.2449730000000003">
        <ele>486.698</ele>
        <time>2022-08-24T07:08:33Z</time>
      </trkpt>
      <trkpt lat="43.124265999999864" lon="-1.2449790000000003">
        <ele>487.051</ele>
        <time>2022-08-24T07:08:34Z</time>
      </trkpt>
      <trkpt lat="43.12425799999986" lon="-1.2449890000000003">
        <ele>487.475</ele>
        <time>2022-08-24T07:08:35Z</time>
      </trkpt>
      <trkpt lat="43.12424999999986" lon="-1.2450000000000003">
        <ele>487.694</ele>
        <time>2022-08-24T07:08:36Z</time>
      </trkpt>
      <trkpt lat="43.12424199999986" lon="-1.2450060000000003">
        <ele>487.685</ele>
        <time>2022-08-24T07:08:37Z</time>
      </trkpt>
      <trkpt lat="43.12423699999986" lon="-1.2450100000000002">
        <ele>487.889</ele>
        <time>2022-08-24T07:08:38Z</time>
      </trkpt>
      <trkpt lat="43.12422999999986" lon="-1.2450170000000003">
        <ele>488.017</ele>
        <time>2022-08-24T07:08:39Z</time>
      </trkpt>
      <trkpt lat="43.124220999999864" lon="-1.2450280000000002">
        <ele>488.009</ele>
        <time>2022-08-24T07:08:40Z</time>
      </trkpt>
      <trkpt lat="43.12421099999986" lon="-1.2450390000000002">
        <ele>488.269</ele>
        <time>2022-08-24T07:08:41Z</time>
      </trkpt>
      <trkpt lat="43.12419999999986" lon="-1.2450440000000003">
        <ele>488.669</ele>
        <time>2022-08-24T07:08:42Z</time>
      </trkpt>
      <trkpt lat="43.12418499999986" lon="-1.2450520000000003">
        <ele>488.879</ele>
        <time>2022-08-24T07:08:43Z</time>
      </trkpt>
      <trkpt lat="43.124169999999864" lon="-1.2450550000000002">
        <ele>489.025</ele>
        <time>2022-08-24T07:08:44Z</time>
      </trkpt>
      <trkpt lat="43.124155999999864" lon="-1.2450580000000002">
        <ele>489.687</ele>
        <time>2022-08-24T07:08:45Z</time>
      </trkpt>
      <trkpt lat="43.124146999999866" lon="-1.2450620000000001">
        <ele>489.824</ele>
        <time>2022-08-24T07:08:46Z</time>
      </trkpt>
      <trkpt lat="43.12413799999987" lon="-1.2450640000000002">
        <ele>490.097</ele>
        <time>2022-08-24T07:08:47Z</time>
      </trkpt>
      <trkpt lat="43.12412899999987" lon="-1.2450670000000001">
        <ele>490.211</ele>
        <time>2022-08-24T07:08:48Z</time>
      </trkpt>
      <trkpt lat="43.12411799999987" lon="-1.245071">
        <ele>490.230</ele>
        <time>2022-08-24T07:08:49Z</time>
      </trkpt>
      <trkpt lat="43.124104999999865" lon="-1.245068">
        <ele>490.624</ele>
        <time>2022-08-24T07:08:50Z</time>
      </trkpt>
      <trkpt lat="43.124090999999865" lon="-1.2450620000000001">
        <ele>490.604</ele>
        <time>2022-08-24T07:08:51Z</time>
      </trkpt>
      <trkpt lat="43.12407899999987" lon="-1.245055">
        <ele>490.814</ele>
        <time>2022-08-24T07:08:52Z</time>
      </trkpt>
      <trkpt lat="43.12406999999987" lon="-1.2450510000000001">
        <ele>490.809</ele>
        <time>2022-08-24T07:08:53Z</time>
      </trkpt>
      <trkpt lat="43.124059999999865" lon="-1.2450450000000002">
        <ele>491.033</ele>
        <time>2022-08-24T07:08:54Z</time>
      </trkpt>
      <trkpt lat="43.12404799999987" lon="-1.2450450000000002">
        <ele>491.223</ele>
        <time>2022-08-24T07:08:55Z</time>
      </trkpt>
      <trkpt lat="43.124036999999866" lon="-1.2450520000000003">
        <ele>491.683</ele>
        <time>2022-08-24T07:08:56Z</time>
      </trkpt>
      <trkpt lat="43.12402799999987" lon="-1.2450580000000002">
        <ele>491.819</ele>
        <time>2022-08-24T07:08:57Z</time>
      </trkpt>
      <trkpt lat="43.12402199999987" lon="-1.2450560000000002">
        <ele>492.081</ele>
        <time>2022-08-24T07:08:58Z</time>
      </trkpt>
      <trkpt lat="43.12401599999987" lon="-1.2450500000000002">
        <ele>492.438</ele>
        <time>2022-08-24T07:08:59Z</time>
      </trkpt>
      <trkpt lat="43.124005999999866" lon="-1.2450420000000002">
        <ele>492.431</ele>
        <time>2022-08-24T07:09:00Z</time>
      </trkpt>
      <trkpt lat="43.12399699999987" lon="-1.2450360000000003">
        <ele>492.845</ele>
        <time>2022-08-24T07:09:01Z</time>
      </trkpt>
      <trkpt lat="43.12398799999987" lon="-1.2450280000000002">
        <ele>493.074</ele>
        <time>2022-08-24T07:09:02Z</time>
      </trkpt>
      <trkpt lat="43.123977999999866" lon="-1.2450240000000004">
        <ele>493.243</ele>
        <time>2022-08-24T07:09:03Z</time>
      </trkpt>
      <trkpt lat="43.12396499999986" lon="-1.2450220000000003">
        <ele>493.464</ele>
        <time>2022-08-24T07:09:04Z</time>
      </trkpt>
      <trkpt lat="43.12395499999986" lon="-1.2450210000000004">
        <ele>493.610</ele>
        <time>2022-08-24T07:09:05Z</time>
      </trkpt>
      <trkpt lat="43.12394499999986" lon="-1.2450180000000004">
        <ele>493.809</ele>
        <time>2022-08-24T07:09:06Z</time>
      </trkpt>
      <trkpt lat="43.123931999999854" lon="-1.2450140000000005">
        <ele>494.255</ele>
        <time>2022-08-24T07:09:07Z</time>
      </trkpt>
      <trkpt lat="43.12391899999985" lon="-1.2450100000000006">
        <ele>494.445</ele>
        <time>2022-08-24T07:09:08Z</time>
      </trkpt>
      <trkpt lat="43.12390599999985" lon="-1.2450050000000006">
        <ele>494.685</ele>
        <time>2022-08-24T07:09:09Z</time>
      </trkpt>
      <trkpt lat="43.123895999999846" lon="-1.2450000000000006">
        <ele>494.861</ele>
        <time>2022-08-24T07:09:10Z</time>
      </trkpt>
      <trkpt lat="43.12388399999985" lon="-1.2449930000000005">
        <ele>495.063</ele>
        <time>2022-08-24T07:09:11Z</time>
      </trkpt>
      <trkpt lat="43.123873999999844" lon="-1.2449850000000005">
        <ele>495.050</ele>
        <time>2022-08-24T07:09:12Z</time>
      </trkpt>
      <trkpt lat="43.123864999999846" lon="-1.2449770000000004">
        <ele>495.213</ele>
        <time>2022-08-24T07:09:13Z</time>
      </trkpt>
      <trkpt lat="43.123859999999844" lon="-1.2449640000000004">
        <ele>495.687</ele>
        <time>2022-08-24T07:09:14Z</time>
      </trkpt>
      <trkpt lat="43.12385499999984" lon="-1.2449510000000004">
        <ele>495.816</ele>
        <time>2022-08-24T07:09:15Z</time>
      </trkpt>
      <trkpt lat="43.12384999999984" lon="-1.2449400000000004">
        <ele>496.024</ele>
        <time>2022-08-24T07:09:16Z</time>
      </trkpt>
      <trkpt lat="43.12384199999984" lon="-1.2449360000000005">
        <ele>496.404</ele>
        <time>2022-08-24T07:09:17Z</time>
      </trkpt>
      <trkpt lat="43.12383599999984" lon="-1.2449340000000004">
        <ele>496.614</ele>
        <time>2022-08-24T07:09:18Z</time>
      </trkpt>
      <trkpt lat="43.12382799999984" lon="-1.2449300000000005">
        <ele>496.809</ele>
        <time>2022-08-24T07:09:19Z</time>
      </trkpt>
      <trkpt lat="43.12381899999984" lon="-1.2449290000000006">
        <ele>497.063</ele>
        <time>2022-08-24T07:09:20Z</time>
      </trkpt>
      <trkpt lat="43.123811999999845" lon="-1.2449230000000007">
        <ele>497.273</ele>
        <time>2022-08-24T07:09:21Z</time>
      </trkpt>
      <trkpt lat="43.123802999999846" lon="-1.2449210000000006">
        <ele>497.423</ele>
        <time>2022-08-24T07:09:22Z</time>
      </trkpt>
      <trkpt lat="43.12379599999985" lon="-1.2449170000000007">
        <ele>497.689</ele>
        <time>2022-08-24T07:09:23Z</time>
      </trkpt>
      <trkpt lat="43.12378799999985" lon="-1.2449170000000007">
        <ele>497.861</ele>
        <time>2022-08-24T07:09:24Z</time>
      </trkpt>
      <trkpt lat="43.12378499999985" lon="-1.2449130000000008">
        <ele>498.278</ele>
        <time>2022-08-24T07:09:25Z</time>
      </trkpt>
      <trkpt lat="43.12377899999985" lon="-1.244909000000001">
        <ele>498.241</ele>
        <time>2022-08-24T07:09:26Z</time>
      </trkpt>
      <trkpt lat="43.12376999999985" lon="-1.244906000000001">
        <ele>498.435</ele>
        <time>2022-08-24T07:09:27Z</time>
      </trkpt>
      <trkpt lat="43.12376199999985" lon="-1.244901000000001">
        <ele>498.454</ele>
        <time>2022-08-24T07:09:28Z</time>
      </trkpt>
      <trkpt lat="43.12375399999985" lon="-1.244901000000001">
        <ele>498.678</ele>
        <time>2022-08-24T07:09:29Z</time>
      </trkpt>
      <trkpt lat="43.12374699999985" lon="-1.244896000000001">
        <ele>498.833</ele>
        <time>2022-08-24T07:09:30Z</time>
      </trkpt>
      <trkpt lat="43.123739999999856" lon="-1.2448880000000009">
        <ele>498.826</ele>
        <time>2022-08-24T07:09:31Z</time>
      </trkpt>
      <trkpt lat="43.12372999999985" lon="-1.244887000000001">
        <ele>499.009</ele>
        <time>2022-08-24T07:09:32Z</time>
      </trkpt>
      <trkpt lat="43.123720999999854" lon="-1.244884000000001">
        <ele>499.268</ele>
        <time>2022-08-24T07:09:33Z</time>
      </trkpt>
      <trkpt lat="43.123711999999855" lon="-1.244878000000001">
        <ele>499.448</ele>
        <time>2022-08-24T07:09:34Z</time>
      </trkpt>
      <trkpt lat="43.12369999999986" lon="-1.2448740000000011">
        <ele>499.638</ele>
        <time>2022-08-24T07:09:35Z</time>
      </trkpt>
      <trkpt lat="43.12368899999986" lon="-1.2448710000000012">
        <ele>499.874</ele>
        <time>2022-08-24T07:09:36Z</time>
      </trkpt>
      <trkpt lat="43.12367699999986" lon="-1.2448690000000011">
        <ele>499.876</ele>
        <time>2022-08-24T07:09:37Z</time>
      </trkpt>
      <trkpt lat="43.123666999999855" lon="-1.2448660000000011">
        <ele>500.213</ele>
        <time>2022-08-24T07:09:38Z</time>
      </trkpt>
      <trkpt lat="43.12365799999986" lon="-1.2448600000000012">
        <ele>500.446</ele>
        <time>2022-08-24T07:09:39Z</time>
      </trkpt>
      <trkpt lat="43.12364599999986" lon="-1.2448580000000011">
        <ele>500.420</ele>
        <time>2022-08-24T07:09:40Z</time>
      </trkpt>
      <trkpt lat="43.123635999999856" lon="-1.244856000000001">
        <ele>500.829</ele>
        <time>2022-08-24T07:09:41Z</time>
      </trkpt>
      <trkpt lat="43.12362599999985" lon="-1.244856000000001">
        <ele>501.075</ele>
        <time>2022-08-24T07:09:42Z</time>
      </trkpt>
      <trkpt lat="43.12361599999985" lon="-1.2448520000000012">
        <ele>501.228</ele>
        <time>2022-08-24T07:09:43Z</time>
      </trkpt>
      <trkpt lat="43.12360499999985" lon="-1.244845000000001">
        <ele>501.620</ele>
        <time>2022-08-24T07:09:44Z</time>
      </trkpt>
      <trkpt lat="43.12359799999985" lon="-1.244838000000001">
        <ele>501.809</ele>
        <time>2022-08-24T07:09:45Z</time>
      </trkpt>
      <trkpt lat="43.123590999999855" lon="-1.244827000000001">
        <ele>502.258</ele>
        <time>2022-08-24T07:09:46Z</time>
      </trkpt>
      <trkpt lat="43.12358099999985" lon="-1.244817000000001">
        <ele>502.458</ele>
        <time>2022-08-24T07:09:47Z</time>
      </trkpt>
      <trkpt lat="43.12356799999985" lon="-1.244809000000001">
        <ele>502.668</ele>
        <time>2022-08-24T07:09:48Z</time>
      </trkpt>
      <trkpt lat="43.12354999999985" lon="-1.244806000000001">
        <ele>502.664</ele>
        <time>2022-08-24T07:09:49Z</time>
      </trkpt>
      <trkpt lat="43.123531999999855" lon="-1.244808000000001">
        <ele>503.016</ele>
        <time>2022-08-24T07:09:50Z</time>
      </trkpt>
      <trkpt lat="43.123517999999855" lon="-1.244809000000001">
        <ele>503.243</ele>
        <time>2022-08-24T07:09:51Z</time>
      </trkpt>
      <trkpt lat="43.123506999999854" lon="-1.2448070000000009">
        <ele>503.416</ele>
        <time>2022-08-24T07:09:52Z</time>
      </trkpt>
      <trkpt lat="43.12349699999985" lon="-1.244803000000001">
        <ele>503.680</ele>
        <time>2022-08-24T07:09:53Z</time>
      </trkpt>
      <trkpt lat="43.12348499999985" lon="-1.244803000000001">
        <ele>503.619</ele>
        <time>2022-08-24T07:09:54Z</time>
      </trkpt>
      <trkpt lat="43.12347399999985" lon="-1.244803000000001">
        <ele>504.044</ele>
        <time>2022-08-24T07:09:55Z</time>
      </trkpt>
      <trkpt lat="43.123461999999854" lon="-1.244798000000001">
        <ele>504.005</ele>
        <time>2022-08-24T07:09:56Z</time>
      </trkpt>
      <trkpt lat="43.12345199999985" lon="-1.244797000000001">
        <ele>504.415</ele>
        <time>2022-08-24T07:09:57Z</time>
      </trkpt>
      <trkpt lat="43.12344199999985" lon="-1.244795000000001">
        <ele>504.609</ele>
        <time>2022-08-24T07:09:58Z</time>
      </trkpt>
      <trkpt lat="43.12343499999985" lon="-1.244788000000001">
        <ele>504.875</ele>
        <time>2022-08-24T07:09:59Z</time>
      </trkpt>
      <trkpt lat="43.12342599999985" lon="-1.244785000000001">
        <ele>505.085</ele>
        <time>2022-08-24T07:10:00Z</time>
      </trkpt>
      <trkpt lat="43.12341599999985" lon="-1.244782000000001">
        <ele>505.295</ele>
        <time>2022-08-24T07:10:01Z</time>
      </trkpt>
      <trkpt lat="43.12340599999985" lon="-1.244778000000001">
        <ele>505.451</ele>
        <time>2022-08-24T07:10:02Z</time>
      </trkpt>
      <trkpt lat="43.12339599999984" lon="-1.244771000000001">
        <ele>505.433</ele>
        <time>2022-08-24T07:10:03Z</time>
      </trkpt>
      <trkpt lat="43.123386999999845" lon="-1.244767000000001">
        <ele>505.850</ele>
        <time>2022-08-24T07:10:04Z</time>
      </trkpt>
      <trkpt lat="43.123378999999844" lon="-1.2447660000000011">
        <ele>506.043</ele>
        <time>2022-08-24T07:10:05Z</time>
      </trkpt>
      <trkpt lat="43.123369999999845" lon="-1.2447630000000012">
        <ele>506.287</ele>
        <time>2022-08-24T07:10:06Z</time>
      </trkpt>
      <trkpt lat="43.123369999999845" lon="-1.2447630000000012">
        <ele>506.456</ele>
        <time>2022-08-24T07:10:07Z</time>
      </trkpt>
      <trkpt lat="43.123349999999846" lon="-1.244753000000001">
        <ele>506.488</ele>
        <time>2022-08-24T07:10:08Z</time>
      </trkpt>
      <trkpt lat="43.123341999999845" lon="-1.244751000000001">
        <ele>506.824</ele>
        <time>2022-08-24T07:10:09Z</time>
      </trkpt>
      <trkpt lat="43.12333399999984" lon="-1.2447500000000011">
        <ele>506.826</ele>
        <time>2022-08-24T07:10:10Z</time>
      </trkpt>
      <trkpt lat="43.12332699999985" lon="-1.2447490000000012">
        <ele>507.009</ele>
        <time>2022-08-24T07:10:11Z</time>
      </trkpt>
      <trkpt lat="43.12331799999985" lon="-1.2447460000000012">
        <ele>507.489</ele>
        <time>2022-08-24T07:10:12Z</time>
      </trkpt>
      <trkpt lat="43.12330999999985" lon="-1.2447420000000013">
        <ele>507.479</ele>
        <time>2022-08-24T07:10:13Z</time>
      </trkpt>
      <trkpt lat="43.123299999999844" lon="-1.2447380000000015">
        <ele>507.699</ele>
        <time>2022-08-24T07:10:14Z</time>
      </trkpt>
      <trkpt lat="43.12328999999984" lon="-1.2447370000000015">
        <ele>507.825</ele>
        <time>2022-08-24T07:10:15Z</time>
      </trkpt>
      <trkpt lat="43.123282999999844" lon="-1.2447350000000015">
        <ele>508.297</ele>
        <time>2022-08-24T07:10:16Z</time>
      </trkpt>
      <trkpt lat="43.123271999999844" lon="-1.2447320000000015">
        <ele>508.474</ele>
        <time>2022-08-24T07:10:17Z</time>
      </trkpt>
      <trkpt lat="43.12326399999984" lon="-1.2447330000000014">
        <ele>508.617</ele>
        <time>2022-08-24T07:10:18Z</time>
      </trkpt>
      <trkpt lat="43.12325599999984" lon="-1.2447310000000014">
        <ele>508.881</ele>
        <time>2022-08-24T07:10:19Z</time>
      </trkpt>
      <trkpt lat="43.123248999999845" lon="-1.2447300000000014">
        <ele>508.830</ele>
        <time>2022-08-24T07:10:20Z</time>
      </trkpt>
      <trkpt lat="43.12324199999985" lon="-1.2447270000000015">
        <ele>509.049</ele>
        <time>2022-08-24T07:10:21Z</time>
      </trkpt>
      <trkpt lat="43.123231999999845" lon="-1.2447220000000014">
        <ele>509.202</ele>
        <time>2022-08-24T07:10:22Z</time>
      </trkpt>
      <trkpt lat="43.12322299999985" lon="-1.2447220000000014">
        <ele>509.422</ele>
        <time>2022-08-24T07:10:23Z</time>
      </trkpt>
      <trkpt lat="43.12321299999984" lon="-1.2447210000000015">
        <ele>509.609</ele>
        <time>2022-08-24T07:10:24Z</time>
      </trkpt>
      <trkpt lat="43.12320499999984" lon="-1.2447190000000015">
        <ele>509.685</ele>
        <time>2022-08-24T07:10:25Z</time>
      </trkpt>
      <trkpt lat="43.12319699999984" lon="-1.2447200000000014">
        <ele>509.885</ele>
        <time>2022-08-24T07:10:26Z</time>
      </trkpt>
      <trkpt lat="43.12318599999984" lon="-1.2447120000000014">
        <ele>510.035</ele>
        <time>2022-08-24T07:10:27Z</time>
      </trkpt>
      <trkpt lat="43.12317599999984" lon="-1.2447080000000015">
        <ele>510.271</ele>
        <time>2022-08-24T07:10:28Z</time>
      </trkpt>
      <trkpt lat="43.12316699999984" lon="-1.2447010000000014">
        <ele>510.253</ele>
        <time>2022-08-24T07:10:29Z</time>
      </trkpt>
      <trkpt lat="43.12315899999984" lon="-1.2446940000000013">
        <ele>510.430</ele>
        <time>2022-08-24T07:10:30Z</time>
      </trkpt>
      <trkpt lat="43.12315099999984" lon="-1.2446890000000013">
        <ele>510.433</ele>
        <time>2022-08-24T07:10:31Z</time>
      </trkpt>
      <trkpt lat="43.12314199999984" lon="-1.2446840000000012">
        <ele>510.687</ele>
        <time>2022-08-24T07:10:32Z</time>
      </trkpt>
      <trkpt lat="43.123131999999835" lon="-1.2446770000000011">
        <ele>510.836</ele>
        <time>2022-08-24T07:10:33Z</time>
      </trkpt>
      <trkpt lat="43.123120999999834" lon="-1.244670000000001">
        <ele>510.882</ele>
        <time>2022-08-24T07:10:34Z</time>
      </trkpt>
      <trkpt lat="43.12311299999983" lon="-1.244665000000001">
        <ele>511.043</ele>
        <time>2022-08-24T07:10:35Z</time>
      </trkpt>
      <trkpt lat="43.12310599999984" lon="-1.244656000000001">
        <ele>511.017</ele>
        <time>2022-08-24T07:10:36Z</time>
      </trkpt>
      <trkpt lat="43.123097999999835" lon="-1.2446500000000011">
        <ele>511.209</ele>
        <time>2022-08-24T07:10:37Z</time>
      </trkpt>
      <trkpt lat="43.123089999999834" lon="-1.2446450000000011">
        <ele>511.259</ele>
        <time>2022-08-24T07:10:38Z</time>
      </trkpt>
      <trkpt lat="43.123078999999834" lon="-1.244638000000001">
        <ele>511.489</ele>
        <time>2022-08-24T07:10:39Z</time>
      </trkpt>
      <trkpt lat="43.12307099999983" lon="-1.2446260000000011">
        <ele>511.669</ele>
        <time>2022-08-24T07:10:40Z</time>
      </trkpt>
      <trkpt lat="43.12306499999983" lon="-1.2446170000000012">
        <ele>511.665</ele>
        <time>2022-08-24T07:10:41Z</time>
      </trkpt>
      <trkpt lat="43.123055999999835" lon="-1.2446070000000011">
        <ele>511.847</ele>
        <time>2022-08-24T07:10:42Z</time>
      </trkpt>
      <trkpt lat="43.123052999999835" lon="-1.244602000000001">
        <ele>512.074</ele>
        <time>2022-08-24T07:10:43Z</time>
      </trkpt>
      <trkpt lat="43.123058999999834" lon="-1.244597000000001">
        <ele>512.417</ele>
        <time>2022-08-24T07:16:03Z</time>
      </trkpt>
      <trkpt lat="43.123058999999834" lon="-1.244597000000001">
        <ele>512.431</ele>
        <time>2022-08-24T07:16:04Z</time>
      </trkpt>
      <trkpt lat="43.12305699999983" lon="-1.2445930000000012">
        <ele>513.270</ele>
        <time>2022-08-24T07:16:13Z</time>
      </trkpt>
      <trkpt lat="43.12303299999983" lon="-1.244559000000001">
        <ele>513.263</ele>
        <time>2022-08-24T07:16:15Z</time>
      </trkpt>
      <trkpt lat="43.12302899999983" lon="-1.244544000000001">
        <ele>513.244</ele>
        <time>2022-08-24T07:16:16Z</time>
      </trkpt>
      <trkpt lat="43.123033999999834" lon="-1.244536000000001">
        <ele>513.218</ele>
        <time>2022-08-24T07:16:17Z</time>
      </trkpt>
      <trkpt lat="43.12304599999983" lon="-1.244552000000001">
        <ele>513.209</ele>
        <time>2022-08-24T07:16:20Z</time>
      </trkpt>
      <trkpt lat="43.12304999999983" lon="-1.244558000000001">
        <ele>513.277</ele>
        <time>2022-08-24T07:16:21Z</time>
      </trkpt>
      <trkpt lat="43.12305199999983" lon="-1.2445620000000008">
        <ele>513.297</ele>
        <time>2022-08-24T07:16:22Z</time>
      </trkpt>
      <trkpt lat="43.12305199999983" lon="-1.2445710000000008">
        <ele>513.217</ele>
        <time>2022-08-24T07:16:23Z</time>
      </trkpt>
      <trkpt lat="43.12305499999983" lon="-1.2445830000000007">
        <ele>513.273</ele>
        <time>2022-08-24T07:16:24Z</time>
      </trkpt>
      <trkpt lat="43.12305799999983" lon="-1.2445990000000007">
        <ele>513.265</ele>
        <time>2022-08-24T07:16:25Z</time>
      </trkpt>
      <trkpt lat="43.12305899999983" lon="-1.2446130000000006">
        <ele>513.262</ele>
        <time>2022-08-24T07:16:26Z</time>
      </trkpt>
      <trkpt lat="43.123056999999825" lon="-1.2446310000000007">
        <ele>513.255</ele>
        <time>2022-08-24T07:16:27Z</time>
      </trkpt>
      <trkpt lat="43.123050999999826" lon="-1.2446450000000007">
        <ele>513.249</ele>
        <time>2022-08-24T07:16:28Z</time>
      </trkpt>
      <trkpt lat="43.123042999999825" lon="-1.2446540000000006">
        <ele>513.228</ele>
        <time>2022-08-24T07:16:29Z</time>
      </trkpt>
      <trkpt lat="43.12303099999983" lon="-1.2446540000000006">
        <ele>513.247</ele>
        <time>2022-08-24T07:16:30Z</time>
      </trkpt>
      <trkpt lat="43.122997999999825" lon="-1.2446240000000006">
        <ele>513.429</ele>
        <time>2022-08-24T07:16:33Z</time>
      </trkpt>
      <trkpt lat="43.12295799999983" lon="-1.2445940000000006">
        <ele>513.621</ele>
        <time>2022-08-24T07:16:36Z</time>
      </trkpt>
      <trkpt lat="43.122946999999826" lon="-1.2445890000000006">
        <ele>513.609</ele>
        <time>2022-08-24T07:16:37Z</time>
      </trkpt>
      <trkpt lat="43.12293799999983" lon="-1.2445840000000006">
        <ele>514.035</ele>
        <time>2022-08-24T07:16:38Z</time>
      </trkpt>
      <trkpt lat="43.12292699999983" lon="-1.2445790000000005">
        <ele>514.075</ele>
        <time>2022-08-24T07:16:39Z</time>
      </trkpt>
      <trkpt lat="43.12291499999983" lon="-1.2445740000000005">
        <ele>514.485</ele>
        <time>2022-08-24T07:16:40Z</time>
      </trkpt>
      <trkpt lat="43.12290399999983" lon="-1.2445690000000005">
        <ele>514.631</ele>
        <time>2022-08-24T07:16:41Z</time>
      </trkpt>
      <trkpt lat="43.12288999999983" lon="-1.2445620000000004">
        <ele>515.073</ele>
        <time>2022-08-24T07:16:42Z</time>
      </trkpt>
      <trkpt lat="43.122876999999825" lon="-1.2445570000000004">
        <ele>515.250</ele>
        <time>2022-08-24T07:16:43Z</time>
      </trkpt>
      <trkpt lat="43.12286199999983" lon="-1.2445510000000004">
        <ele>515.473</ele>
        <time>2022-08-24T07:16:44Z</time>
      </trkpt>
      <trkpt lat="43.12282499999983" lon="-1.2445360000000003">
        <ele>516.487</ele>
        <time>2022-08-24T07:16:47Z</time>
      </trkpt>
      <trkpt lat="43.12281299999983" lon="-1.2445280000000003">
        <ele>516.696</ele>
        <time>2022-08-24T07:16:48Z</time>
      </trkpt>
      <trkpt lat="43.12279899999983" lon="-1.2445170000000003">
        <ele>516.852</ele>
        <time>2022-08-24T07:16:49Z</time>
      </trkpt>
      <trkpt lat="43.12278499999983" lon="-1.2445060000000003">
        <ele>517.253</ele>
        <time>2022-08-24T07:16:50Z</time>
      </trkpt>
      <trkpt lat="43.12277299999983" lon="-1.2444970000000004">
        <ele>517.408</ele>
        <time>2022-08-24T07:16:51Z</time>
      </trkpt>
      <trkpt lat="43.122760999999834" lon="-1.2444890000000004">
        <ele>517.409</ele>
        <time>2022-08-24T07:16:52Z</time>
      </trkpt>
      <trkpt lat="43.12274999999983" lon="-1.2444860000000004">
        <ele>517.616</ele>
        <time>2022-08-24T07:16:53Z</time>
      </trkpt>
      <trkpt lat="43.12274199999983" lon="-1.2444830000000004">
        <ele>518.026</ele>
        <time>2022-08-24T07:16:54Z</time>
      </trkpt>
      <trkpt lat="43.12273299999983" lon="-1.2444730000000004">
        <ele>518.236</ele>
        <time>2022-08-24T07:16:55Z</time>
      </trkpt>
      <trkpt lat="43.122723999999835" lon="-1.2444610000000005">
        <ele>518.482</ele>
        <time>2022-08-24T07:16:56Z</time>
      </trkpt>
      <trkpt lat="43.12271399999983" lon="-1.2444510000000004">
        <ele>518.624</ele>
        <time>2022-08-24T07:16:57Z</time>
      </trkpt>
      <trkpt lat="43.12270399999983" lon="-1.2444420000000005">
        <ele>518.661</ele>
        <time>2022-08-24T07:16:58Z</time>
      </trkpt>
      <trkpt lat="43.12269499999983" lon="-1.2444330000000006">
        <ele>519.024</ele>
        <time>2022-08-24T07:16:59Z</time>
      </trkpt>
      <trkpt lat="43.12268699999983" lon="-1.2444170000000006">
        <ele>519.228</ele>
        <time>2022-08-24T07:17:00Z</time>
      </trkpt>
      <trkpt lat="43.122676999999825" lon="-1.2444030000000006">
        <ele>519.627</ele>
        <time>2022-08-24T07:17:01Z</time>
      </trkpt>
      <trkpt lat="43.12266799999983" lon="-1.2443960000000005">
        <ele>519.824</ele>
        <time>2022-08-24T07:17:02Z</time>
      </trkpt>
      <trkpt lat="43.122656999999826" lon="-1.2443920000000006">
        <ele>520.204</ele>
        <time>2022-08-24T07:17:03Z</time>
      </trkpt>
      <trkpt lat="43.122645999999826" lon="-1.2443840000000006">
        <ele>520.614</ele>
        <time>2022-08-24T07:17:04Z</time>
      </trkpt>
      <trkpt lat="43.122639999999826" lon="-1.2443740000000005">
        <ele>520.609</ele>
        <time>2022-08-24T07:17:05Z</time>
      </trkpt>
      <trkpt lat="43.122631999999825" lon="-1.2443600000000006">
        <ele>520.863</ele>
        <time>2022-08-24T07:17:06Z</time>
      </trkpt>
      <trkpt lat="43.12262199999982" lon="-1.2443480000000007">
        <ele>521.043</ele>
        <time>2022-08-24T07:17:07Z</time>
      </trkpt>
      <trkpt lat="43.122612999999824" lon="-1.2443360000000008">
        <ele>521.033</ele>
        <time>2022-08-24T07:17:08Z</time>
      </trkpt>
      <trkpt lat="43.122606999999824" lon="-1.2443300000000008">
        <ele>521.259</ele>
        <time>2022-08-24T07:17:09Z</time>
      </trkpt>
      <trkpt lat="43.122597999999826" lon="-1.2443250000000008">
        <ele>521.491</ele>
        <time>2022-08-24T07:17:10Z</time>
      </trkpt>
      <trkpt lat="43.12258799999982" lon="-1.2443160000000009">
        <ele>521.838</ele>
        <time>2022-08-24T07:17:11Z</time>
      </trkpt>
      <trkpt lat="43.122575999999825" lon="-1.2443080000000009">
        <ele>522.061</ele>
        <time>2022-08-24T07:17:12Z</time>
      </trkpt>
      <trkpt lat="43.122564999999824" lon="-1.2442980000000008">
        <ele>522.445</ele>
        <time>2022-08-24T07:17:13Z</time>
      </trkpt>
      <trkpt lat="43.12255399999982" lon="-1.2442880000000007">
        <ele>522.444</ele>
        <time>2022-08-24T07:17:14Z</time>
      </trkpt>
      <trkpt lat="43.12254299999982" lon="-1.2442780000000007">
        <ele>522.663</ele>
        <time>2022-08-24T07:17:15Z</time>
      </trkpt>
      <trkpt lat="43.12253299999982" lon="-1.2442710000000006">
        <ele>523.044</ele>
        <time>2022-08-24T07:17:16Z</time>
      </trkpt>
      <trkpt lat="43.12252399999982" lon="-1.2442630000000006">
        <ele>523.218</ele>
        <time>2022-08-24T07:17:17Z</time>
      </trkpt>
      <trkpt lat="43.12251399999982" lon="-1.2442540000000006">
        <ele>523.409</ele>
        <time>2022-08-24T07:17:18Z</time>
      </trkpt>
      <trkpt lat="43.12250499999982" lon="-1.2442470000000005">
        <ele>523.677</ele>
        <time>2022-08-24T07:17:19Z</time>
      </trkpt>
      <trkpt lat="43.12249699999982" lon="-1.2442380000000006">
        <ele>523.857</ele>
        <time>2022-08-24T07:17:20Z</time>
      </trkpt>
      <trkpt lat="43.122491999999816" lon="-1.2442270000000006">
        <ele>524.057</ele>
        <time>2022-08-24T07:17:21Z</time>
      </trkpt>
      <trkpt lat="43.12248599999982" lon="-1.2442120000000005">
        <ele>524.223</ele>
        <time>2022-08-24T07:17:22Z</time>
      </trkpt>
      <trkpt lat="43.122477999999816" lon="-1.2442000000000006">
        <ele>524.485</ele>
        <time>2022-08-24T07:17:23Z</time>
      </trkpt>
      <trkpt lat="43.12246899999982" lon="-1.2441920000000006">
        <ele>524.652</ele>
        <time>2022-08-24T07:17:24Z</time>
      </trkpt>
      <trkpt lat="43.12245999999982" lon="-1.2441840000000006">
        <ele>525.035</ele>
        <time>2022-08-24T07:17:25Z</time>
      </trkpt>
      <trkpt lat="43.12245399999982" lon="-1.2441780000000007">
        <ele>525.019</ele>
        <time>2022-08-24T07:17:26Z</time>
      </trkpt>
      <trkpt lat="43.12244499999982" lon="-1.2441730000000006">
        <ele>525.268</ele>
        <time>2022-08-24T07:17:27Z</time>
      </trkpt>
      <trkpt lat="43.12243699999982" lon="-1.2441640000000007">
        <ele>525.471</ele>
        <time>2022-08-24T07:17:28Z</time>
      </trkpt>
      <trkpt lat="43.122429999999824" lon="-1.2441550000000008">
        <ele>525.641</ele>
        <time>2022-08-24T07:17:29Z</time>
      </trkpt>
      <trkpt lat="43.12241999999982" lon="-1.2441470000000008">
        <ele>525.815</ele>
        <time>2022-08-24T07:17:30Z</time>
      </trkpt>
      <trkpt lat="43.12240999999982" lon="-1.2441420000000007">
        <ele>525.809</ele>
        <time>2022-08-24T07:17:31Z</time>
      </trkpt>
      <trkpt lat="43.122396999999815" lon="-1.2441350000000007">
        <ele>526.048</ele>
        <time>2022-08-24T07:17:32Z</time>
      </trkpt>
      <trkpt lat="43.122387999999816" lon="-1.2441280000000006">
        <ele>526.228</ele>
        <time>2022-08-24T07:17:33Z</time>
      </trkpt>
      <trkpt lat="43.12238099999982" lon="-1.2441180000000005">
        <ele>526.428</ele>
        <time>2022-08-24T07:17:34Z</time>
      </trkpt>
      <trkpt lat="43.12237399999982" lon="-1.2441080000000004">
        <ele>526.464</ele>
        <time>2022-08-24T07:17:35Z</time>
      </trkpt>
      <trkpt lat="43.122364999999824" lon="-1.2441010000000003">
        <ele>526.636</ele>
        <time>2022-08-24T07:17:36Z</time>
      </trkpt>
      <trkpt lat="43.122355999999826" lon="-1.2440960000000003">
        <ele>527.063</ele>
        <time>2022-08-24T07:17:37Z</time>
      </trkpt>
      <trkpt lat="43.12234599999982" lon="-1.2440930000000003">
        <ele>527.076</ele>
        <time>2022-08-24T07:17:38Z</time>
      </trkpt>
      <trkpt lat="43.12233599999982" lon="-1.2440880000000003">
        <ele>527.270</ele>
        <time>2022-08-24T07:17:39Z</time>
      </trkpt>
      <trkpt lat="43.12232699999982" lon="-1.2440790000000004">
        <ele>527.439</ele>
        <time>2022-08-24T07:17:40Z</time>
      </trkpt>
      <trkpt lat="43.12231799999982" lon="-1.2440710000000004">
        <ele>527.627</ele>
        <time>2022-08-24T07:17:41Z</time>
      </trkpt>
      <trkpt lat="43.12230699999982" lon="-1.2440650000000004">
        <ele>527.868</ele>
        <time>2022-08-24T07:17:42Z</time>
      </trkpt>
      <trkpt lat="43.12229699999982" lon="-1.2440590000000005">
        <ele>528.014</ele>
        <time>2022-08-24T07:17:43Z</time>
      </trkpt>
      <trkpt lat="43.12228799999982" lon="-1.2440540000000004">
        <ele>528.209</ele>
        <time>2022-08-24T07:17:44Z</time>
      </trkpt>
      <trkpt lat="43.12227899999982" lon="-1.2440500000000005">
        <ele>528.233</ele>
        <time>2022-08-24T07:17:45Z</time>
      </trkpt>
      <trkpt lat="43.12226899999982" lon="-1.2440460000000007">
        <ele>528.693</ele>
        <time>2022-08-24T07:17:46Z</time>
      </trkpt>
      <trkpt lat="43.12226099999982" lon="-1.2440410000000006">
        <ele>528.673</ele>
        <time>2022-08-24T07:17:47Z</time>
      </trkpt>
      <trkpt lat="43.12225399999982" lon="-1.2440330000000006">
        <ele>528.829</ele>
        <time>2022-08-24T07:17:48Z</time>
      </trkpt>
      <trkpt lat="43.12224599999982" lon="-1.2440250000000006">
        <ele>529.021</ele>
        <time>2022-08-24T07:17:49Z</time>
      </trkpt>
      <trkpt lat="43.12223699999982" lon="-1.2440190000000007">
        <ele>529.288</ele>
        <time>2022-08-24T07:17:50Z</time>
      </trkpt>
      <trkpt lat="43.12222799999982" lon="-1.2440160000000007">
        <ele>529.471</ele>
        <time>2022-08-24T07:17:51Z</time>
      </trkpt>
      <trkpt lat="43.12221799999982" lon="-1.2440150000000008">
        <ele>529.665</ele>
        <time>2022-08-24T07:17:52Z</time>
      </trkpt>
      <trkpt lat="43.122207999999816" lon="-1.2440110000000009">
        <ele>529.654</ele>
        <time>2022-08-24T07:17:53Z</time>
      </trkpt>
      <trkpt lat="43.122196999999815" lon="-1.2440060000000008">
        <ele>529.862</ele>
        <time>2022-08-24T07:17:54Z</time>
      </trkpt>
      <trkpt lat="43.122185999999814" lon="-1.2440030000000009">
        <ele>529.883</ele>
        <time>2022-08-24T07:17:55Z</time>
      </trkpt>
      <trkpt lat="43.122176999999816" lon="-1.2439980000000008">
        <ele>530.011</ele>
        <time>2022-08-24T07:17:56Z</time>
      </trkpt>
      <trkpt lat="43.12216799999982" lon="-1.2439920000000009">
        <ele>530.009</ele>
        <time>2022-08-24T07:17:57Z</time>
      </trkpt>
      <trkpt lat="43.122157999999814" lon="-1.2439850000000008">
        <ele>530.427</ele>
        <time>2022-08-24T07:17:58Z</time>
      </trkpt>
      <trkpt lat="43.122148999999816" lon="-1.2439800000000008">
        <ele>530.687</ele>
        <time>2022-08-24T07:17:59Z</time>
      </trkpt>
      <trkpt lat="43.12213899999981" lon="-1.2439740000000008">
        <ele>531.067</ele>
        <time>2022-08-24T07:18:00Z</time>
      </trkpt>
      <trkpt lat="43.122126999999814" lon="-1.2439680000000009">
        <ele>531.033</ele>
        <time>2022-08-24T07:18:01Z</time>
      </trkpt>
      <trkpt lat="43.122115999999814" lon="-1.243964000000001">
        <ele>531.285</ele>
        <time>2022-08-24T07:18:02Z</time>
      </trkpt>
      <trkpt lat="43.12210799999981" lon="-1.243958000000001">
        <ele>531.282</ele>
        <time>2022-08-24T07:18:03Z</time>
      </trkpt>
      <trkpt lat="43.12210199999981" lon="-1.243951000000001">
        <ele>531.465</ele>
        <time>2022-08-24T07:18:04Z</time>
      </trkpt>
      <trkpt lat="43.12209399999981" lon="-1.2439440000000008">
        <ele>531.669</ele>
        <time>2022-08-24T07:18:05Z</time>
      </trkpt>
      <trkpt lat="43.12208399999981" lon="-1.2439380000000009">
        <ele>531.678</ele>
        <time>2022-08-24T07:18:06Z</time>
      </trkpt>
      <trkpt lat="43.12207299999981" lon="-1.2439310000000008">
        <ele>531.826</ele>
        <time>2022-08-24T07:18:07Z</time>
      </trkpt>
      <trkpt lat="43.12206199999981" lon="-1.2439230000000008">
        <ele>531.847</ele>
        <time>2022-08-24T07:18:08Z</time>
      </trkpt>
      <trkpt lat="43.12205399999981" lon="-1.2439230000000008">
        <ele>532.011</ele>
        <time>2022-08-24T07:18:09Z</time>
      </trkpt>
      <trkpt lat="43.122045999999806" lon="-1.2439230000000008">
        <ele>532.209</ele>
        <time>2022-08-24T07:18:10Z</time>
      </trkpt>
      <trkpt lat="43.122037999999804" lon="-1.2439190000000009">
        <ele>532.433</ele>
        <time>2022-08-24T07:18:11Z</time>
      </trkpt>
      <trkpt lat="43.1220279999998" lon="-1.2439120000000008">
        <ele>532.653</ele>
        <time>2022-08-24T07:18:12Z</time>
      </trkpt>
      <trkpt lat="43.1220149999998" lon="-1.2439060000000008">
        <ele>532.663</ele>
        <time>2022-08-24T07:18:13Z</time>
      </trkpt>
      <trkpt lat="43.1220039999998" lon="-1.2439010000000008">
        <ele>532.839</ele>
        <time>2022-08-24T07:18:14Z</time>
      </trkpt>
      <trkpt lat="43.1219929999998" lon="-1.2438940000000007">
        <ele>532.831</ele>
        <time>2022-08-24T07:18:15Z</time>
      </trkpt>
      <trkpt lat="43.1219819999998" lon="-1.2438850000000008">
        <ele>533.088</ele>
        <time>2022-08-24T07:18:16Z</time>
      </trkpt>
      <trkpt lat="43.1219729999998" lon="-1.243873000000001">
        <ele>533.281</ele>
        <time>2022-08-24T07:18:17Z</time>
      </trkpt>
      <trkpt lat="43.1219619999998" lon="-1.243861000000001">
        <ele>533.455</ele>
        <time>2022-08-24T07:18:18Z</time>
      </trkpt>
      <trkpt lat="43.1219509999998" lon="-1.243851000000001">
        <ele>533.474</ele>
        <time>2022-08-24T07:18:19Z</time>
      </trkpt>
      <trkpt lat="43.121937999999794" lon="-1.2438440000000008">
        <ele>533.614</ele>
        <time>2022-08-24T07:18:20Z</time>
      </trkpt>
      <trkpt lat="43.12192499999979" lon="-1.2438380000000009">
        <ele>534.054</ele>
        <time>2022-08-24T07:18:21Z</time>
      </trkpt>
      <trkpt lat="43.12191299999979" lon="-1.243835000000001">
        <ele>534.009</ele>
        <time>2022-08-24T07:18:22Z</time>
      </trkpt>
      <trkpt lat="43.121900999999795" lon="-1.2438300000000009">
        <ele>534.409</ele>
        <time>2022-08-24T07:18:23Z</time>
      </trkpt>
      <trkpt lat="43.1218919999998" lon="-1.2438250000000008">
        <ele>534.432</ele>
        <time>2022-08-24T07:18:24Z</time>
      </trkpt>
      <trkpt lat="43.1218799999998" lon="-1.2438180000000008">
        <ele>534.682</ele>
        <time>2022-08-24T07:18:25Z</time>
      </trkpt>
      <trkpt lat="43.1218649999998" lon="-1.2438130000000007">
        <ele>534.882</ele>
        <time>2022-08-24T07:18:26Z</time>
      </trkpt>
      <trkpt lat="43.1218569999998" lon="-1.2438090000000008">
        <ele>535.088</ele>
        <time>2022-08-24T07:18:27Z</time>
      </trkpt>
      <trkpt lat="43.1218479999998" lon="-1.2438010000000008">
        <ele>535.240</ele>
        <time>2022-08-24T07:18:28Z</time>
      </trkpt>
      <trkpt lat="43.1218389999998" lon="-1.2437930000000008">
        <ele>535.437</ele>
        <time>2022-08-24T07:18:29Z</time>
      </trkpt>
      <trkpt lat="43.1218289999998" lon="-1.2437870000000009">
        <ele>535.440</ele>
        <time>2022-08-24T07:18:30Z</time>
      </trkpt>
      <trkpt lat="43.1218149999998" lon="-1.2437800000000008">
        <ele>535.624</ele>
        <time>2022-08-24T07:18:31Z</time>
      </trkpt>
      <trkpt lat="43.1218039999998" lon="-1.2437760000000009">
        <ele>535.853</ele>
        <time>2022-08-24T07:18:32Z</time>
      </trkpt>
      <trkpt lat="43.1217919999998" lon="-1.243773000000001">
        <ele>536.023</ele>
        <time>2022-08-24T07:18:33Z</time>
      </trkpt>
      <trkpt lat="43.1217799999998" lon="-1.243770000000001">
        <ele>536.083</ele>
        <time>2022-08-24T07:18:34Z</time>
      </trkpt>
      <trkpt lat="43.1217659999998" lon="-1.2437680000000009">
        <ele>536.411</ele>
        <time>2022-08-24T07:18:35Z</time>
      </trkpt>
      <trkpt lat="43.1217529999998" lon="-1.243767000000001">
        <ele>536.409</ele>
        <time>2022-08-24T07:18:36Z</time>
      </trkpt>
      <trkpt lat="43.1217419999998" lon="-1.243762000000001">
        <ele>536.893</ele>
        <time>2022-08-24T07:18:37Z</time>
      </trkpt>
      <trkpt lat="43.1217309999998" lon="-1.243757000000001">
        <ele>536.853</ele>
        <time>2022-08-24T07:18:38Z</time>
      </trkpt>
      <trkpt lat="43.1217199999998" lon="-1.2437550000000008">
        <ele>537.093</ele>
        <time>2022-08-24T07:18:39Z</time>
      </trkpt>
      <trkpt lat="43.121709999999794" lon="-1.2437600000000009">
        <ele>537.439</ele>
        <time>2022-08-24T07:18:40Z</time>
      </trkpt>
      <trkpt lat="43.121697999999796" lon="-1.243767000000001">
        <ele>537.491</ele>
        <time>2022-08-24T07:18:41Z</time>
      </trkpt>
      <trkpt lat="43.121689999999795" lon="-1.243772000000001">
        <ele>537.828</ele>
        <time>2022-08-24T07:18:42Z</time>
      </trkpt>
      <trkpt lat="43.121678999999794" lon="-1.243777000000001">
        <ele>538.041</ele>
        <time>2022-08-24T07:18:43Z</time>
      </trkpt>
      <trkpt lat="43.121664999999794" lon="-1.243780000000001">
        <ele>538.265</ele>
        <time>2022-08-24T07:18:44Z</time>
      </trkpt>
      <trkpt lat="43.121655999999795" lon="-1.243785000000001">
        <ele>538.274</ele>
        <time>2022-08-24T07:18:45Z</time>
      </trkpt>
      <trkpt lat="43.12164599999979" lon="-1.243794000000001">
        <ele>538.479</ele>
        <time>2022-08-24T07:18:46Z</time>
      </trkpt>
      <trkpt lat="43.121638999999796" lon="-1.243802000000001">
        <ele>538.805</ele>
        <time>2022-08-24T07:18:47Z</time>
      </trkpt>
      <trkpt lat="43.12162899999979" lon="-1.2438110000000009">
        <ele>539.025</ele>
        <time>2022-08-24T07:18:48Z</time>
      </trkpt>
      <trkpt lat="43.12161499999979" lon="-1.243821000000001">
        <ele>539.209</ele>
        <time>2022-08-24T07:18:49Z</time>
      </trkpt>
      <trkpt lat="43.12160199999979" lon="-1.243832000000001">
        <ele>539.278</ele>
        <time>2022-08-24T07:18:50Z</time>
      </trkpt>
      <trkpt lat="43.12159299999979" lon="-1.243846000000001">
        <ele>539.658</ele>
        <time>2022-08-24T07:18:51Z</time>
      </trkpt>
      <trkpt lat="43.12158499999979" lon="-1.2438580000000008">
        <ele>539.688</ele>
        <time>2022-08-24T07:18:52Z</time>
      </trkpt>
      <trkpt lat="43.12157499999979" lon="-1.2438720000000008">
        <ele>540.014</ele>
        <time>2022-08-24T07:18:53Z</time>
      </trkpt>
      <trkpt lat="43.121564999999784" lon="-1.2438880000000008">
        <ele>540.266</ele>
        <time>2022-08-24T07:18:54Z</time>
      </trkpt>
      <trkpt lat="43.12155699999978" lon="-1.2439040000000008">
        <ele>540.293</ele>
        <time>2022-08-24T07:18:55Z</time>
      </trkpt>
      <trkpt lat="43.12154899999978" lon="-1.2439170000000008">
        <ele>540.476</ele>
        <time>2022-08-24T07:18:56Z</time>
      </trkpt>
      <trkpt lat="43.12153999999978" lon="-1.2439250000000008">
        <ele>540.440</ele>
        <time>2022-08-24T07:18:57Z</time>
      </trkpt>
      <trkpt lat="43.121530999999784" lon="-1.243935000000001">
        <ele>540.689</ele>
        <time>2022-08-24T07:18:58Z</time>
      </trkpt>
      <trkpt lat="43.121518999999786" lon="-1.243954000000001">
        <ele>540.879</ele>
        <time>2022-08-24T07:18:59Z</time>
      </trkpt>
      <trkpt lat="43.12151199999979" lon="-1.2439710000000008">
        <ele>541.005</ele>
        <time>2022-08-24T07:19:00Z</time>
      </trkpt>
      <trkpt lat="43.12150399999979" lon="-1.2439850000000008">
        <ele>541.225</ele>
        <time>2022-08-24T07:19:01Z</time>
      </trkpt>
      <trkpt lat="43.12149499999979" lon="-1.2439980000000008">
        <ele>541.609</ele>
        <time>2022-08-24T07:19:02Z</time>
      </trkpt>
      <trkpt lat="43.12148699999979" lon="-1.2440120000000008">
        <ele>541.858</ele>
        <time>2022-08-24T07:19:03Z</time>
      </trkpt>
      <trkpt lat="43.121476999999786" lon="-1.2440300000000009">
        <ele>542.058</ele>
        <time>2022-08-24T07:19:04Z</time>
      </trkpt>
      <trkpt lat="43.12146799999979" lon="-1.244048000000001">
        <ele>542.218</ele>
        <time>2022-08-24T07:19:05Z</time>
      </trkpt>
      <trkpt lat="43.121457999999784" lon="-1.2440680000000008">
        <ele>542.254</ele>
        <time>2022-08-24T07:19:06Z</time>
      </trkpt>
      <trkpt lat="43.12144499999978" lon="-1.2440840000000009">
        <ele>542.426</ele>
        <time>2022-08-24T07:19:07Z</time>
      </trkpt>
      <trkpt lat="43.12143099999978" lon="-1.2441000000000009">
        <ele>542.453</ele>
        <time>2022-08-24T07:19:08Z</time>
      </trkpt>
      <trkpt lat="43.12141999999978" lon="-1.2441200000000008">
        <ele>542.466</ele>
        <time>2022-08-24T07:19:09Z</time>
      </trkpt>
      <trkpt lat="43.12141099999978" lon="-1.2441360000000008">
        <ele>542.670</ele>
        <time>2022-08-24T07:19:10Z</time>
      </trkpt>
      <trkpt lat="43.12140299999978" lon="-1.2441500000000008">
        <ele>542.689</ele>
        <time>2022-08-24T07:19:11Z</time>
      </trkpt>
      <trkpt lat="43.121395999999784" lon="-1.2441620000000007">
        <ele>542.667</ele>
        <time>2022-08-24T07:19:12Z</time>
      </trkpt>
      <trkpt lat="43.12138799999978" lon="-1.2441680000000006">
        <ele>542.681</ele>
        <time>2022-08-24T07:19:13Z</time>
      </trkpt>
      <trkpt lat="43.121378999999784" lon="-1.2441730000000006">
        <ele>542.619</ele>
        <time>2022-08-24T07:19:14Z</time>
      </trkpt>
      <trkpt lat="43.121366999999786" lon="-1.2441810000000006">
        <ele>542.609</ele>
        <time>2022-08-24T07:19:15Z</time>
      </trkpt>
      <trkpt lat="43.12135399999978" lon="-1.2441920000000006">
        <ele>542.627</ele>
        <time>2022-08-24T07:19:16Z</time>
      </trkpt>
      <trkpt lat="43.12133999999978" lon="-1.2442010000000006">
        <ele>542.647</ele>
        <time>2022-08-24T07:19:17Z</time>
      </trkpt>
      <trkpt lat="43.121324999999786" lon="-1.2442110000000006">
        <ele>542.637</ele>
        <time>2022-08-24T07:19:18Z</time>
      </trkpt>
      <trkpt lat="43.12130999999979" lon="-1.2442220000000006">
        <ele>542.613</ele>
        <time>2022-08-24T07:19:19Z</time>
      </trkpt>
      <trkpt lat="43.12129599999979" lon="-1.2442330000000006">
        <ele>542.625</ele>
        <time>2022-08-24T07:19:20Z</time>
      </trkpt>
      <trkpt lat="43.12128399999979" lon="-1.2442400000000007">
        <ele>542.642</ele>
        <time>2022-08-24T07:19:21Z</time>
      </trkpt>
      <trkpt lat="43.12127299999979" lon="-1.2442500000000007">
        <ele>542.685</ele>
        <time>2022-08-24T07:19:22Z</time>
      </trkpt>
      <trkpt lat="43.12126399999979" lon="-1.2442600000000008">
        <ele>542.689</ele>
        <time>2022-08-24T07:19:23Z</time>
      </trkpt>
      <trkpt lat="43.121256999999794" lon="-1.2442700000000009">
        <ele>542.858</ele>
        <time>2022-08-24T07:19:24Z</time>
      </trkpt>
      <trkpt lat="43.1212529999998" lon="-1.244277000000001">
        <ele>542.814</ele>
        <time>2022-08-24T07:19:25Z</time>
      </trkpt>
      <trkpt lat="43.1212489999998" lon="-1.244283000000001">
        <ele>542.854</ele>
        <time>2022-08-24T07:19:26Z</time>
      </trkpt>
      <trkpt lat="43.1212429999998" lon="-1.244288000000001">
        <ele>542.809</ele>
        <time>2022-08-24T07:19:27Z</time>
      </trkpt>
      <trkpt lat="43.1212339999998" lon="-1.244288000000001">
        <ele>542.809</ele>
        <time>2022-08-24T07:19:28Z</time>
      </trkpt>
      <trkpt lat="43.121224999999804" lon="-1.244287000000001">
        <ele>542.832</ele>
        <time>2022-08-24T07:19:29Z</time>
      </trkpt>
      <trkpt lat="43.1212149999998" lon="-1.244287000000001">
        <ele>542.842</ele>
        <time>2022-08-24T07:19:30Z</time>
      </trkpt>
      <trkpt lat="43.1211999999998" lon="-1.244289000000001">
        <ele>542.852</ele>
        <time>2022-08-24T07:19:32Z</time>
      </trkpt>
      <trkpt lat="43.1211899999998" lon="-1.2442960000000012">
        <ele>542.858</ele>
        <time>2022-08-24T07:19:33Z</time>
      </trkpt>
      <trkpt lat="43.1211789999998" lon="-1.2443040000000012">
        <ele>542.880</ele>
        <time>2022-08-24T07:19:34Z</time>
      </trkpt>
      <trkpt lat="43.121165999999796" lon="-1.2443120000000012">
        <ele>542.827</ele>
        <time>2022-08-24T07:19:35Z</time>
      </trkpt>
      <trkpt lat="43.1211259999998" lon="-1.2443390000000012">
        <ele>543.070</ele>
        <time>2022-08-24T07:19:38Z</time>
      </trkpt>
      <trkpt lat="43.121115999999795" lon="-1.2443470000000012">
        <ele>543.024</ele>
        <time>2022-08-24T07:19:39Z</time>
      </trkpt>
      <trkpt lat="43.1211039999998" lon="-1.2443540000000013">
        <ele>543.043</ele>
        <time>2022-08-24T07:19:40Z</time>
      </trkpt>
      <trkpt lat="43.121090999999794" lon="-1.2443590000000013">
        <ele>543.082</ele>
        <time>2022-08-24T07:19:41Z</time>
      </trkpt>
      <trkpt lat="43.12105799999979" lon="-1.2443630000000012">
        <ele>543.043</ele>
        <time>2022-08-24T07:19:43Z</time>
      </trkpt>
      <trkpt lat="43.12103899999979" lon="-1.2443690000000012">
        <ele>543.217</ele>
        <time>2022-08-24T07:19:44Z</time>
      </trkpt>
      <trkpt lat="43.12101999999979" lon="-1.2443760000000013">
        <ele>543.409</ele>
        <time>2022-08-24T07:19:45Z</time>
      </trkpt>
      <trkpt lat="43.12096799999979" lon="-1.2443930000000012">
        <ele>543.629</ele>
        <time>2022-08-24T07:19:48Z</time>
      </trkpt>
      <trkpt lat="43.12093499999979" lon="-1.2444020000000011">
        <ele>543.699</ele>
        <time>2022-08-24T07:19:50Z</time>
      </trkpt>
      <trkpt lat="43.12091899999979" lon="-1.2444040000000012">
        <ele>543.849</ele>
        <time>2022-08-24T07:19:51Z</time>
      </trkpt>
      <trkpt lat="43.120902999999785" lon="-1.2444100000000011">
        <ele>543.865</ele>
        <time>2022-08-24T07:19:52Z</time>
      </trkpt>
      <trkpt lat="43.120832999999784" lon="-1.2444370000000011">
        <ele>544.277</ele>
        <time>2022-08-24T07:19:56Z</time>
      </trkpt>
      <trkpt lat="43.120812999999785" lon="-1.244440000000001">
        <ele>544.464</ele>
        <time>2022-08-24T07:19:57Z</time>
      </trkpt>
      <trkpt lat="43.12077499999978" lon="-1.2444450000000011">
        <ele>544.687</ele>
        <time>2022-08-24T07:19:59Z</time>
      </trkpt>
      <trkpt lat="43.12073799999978" lon="-1.244454000000001">
        <ele>544.841</ele>
        <time>2022-08-24T07:20:01Z</time>
      </trkpt>
      <trkpt lat="43.12068799999978" lon="-1.244474000000001">
        <ele>545.450</ele>
        <time>2022-08-24T07:20:04Z</time>
      </trkpt>
      <trkpt lat="43.12067199999978" lon="-1.244479000000001">
        <ele>545.422</ele>
        <time>2022-08-24T07:20:05Z</time>
      </trkpt>
      <trkpt lat="43.12065599999978" lon="-1.244482000000001">
        <ele>545.662</ele>
        <time>2022-08-24T07:20:06Z</time>
      </trkpt>
      <trkpt lat="43.120639999999774" lon="-1.244484000000001">
        <ele>545.608</ele>
        <time>2022-08-24T07:20:07Z</time>
      </trkpt>
      <trkpt lat="43.120622999999775" lon="-1.244490000000001">
        <ele>545.809</ele>
        <time>2022-08-24T07:20:08Z</time>
      </trkpt>
      <trkpt lat="43.12059099999978" lon="-1.244498000000001">
        <ele>546.043</ele>
        <time>2022-08-24T07:20:10Z</time>
      </trkpt>
      <trkpt lat="43.120560999999775" lon="-1.244505000000001">
        <ele>546.253</ele>
        <time>2022-08-24T07:20:12Z</time>
      </trkpt>
      <trkpt lat="43.120546999999775" lon="-1.244509000000001">
        <ele>546.423</ele>
        <time>2022-08-24T07:20:13Z</time>
      </trkpt>
      <trkpt lat="43.12053399999977" lon="-1.2445130000000009">
        <ele>546.479</ele>
        <time>2022-08-24T07:20:14Z</time>
      </trkpt>
      <trkpt lat="43.12051999999977" lon="-1.2445130000000009">
        <ele>546.481</ele>
        <time>2022-08-24T07:20:15Z</time>
      </trkpt>
      <trkpt lat="43.12050399999977" lon="-1.244512000000001">
        <ele>546.658</ele>
        <time>2022-08-24T07:20:16Z</time>
      </trkpt>
      <trkpt lat="43.12048999999977" lon="-1.244512000000001">
        <ele>546.871</ele>
        <time>2022-08-24T07:20:17Z</time>
      </trkpt>
      <trkpt lat="43.12047699999977" lon="-1.244514000000001">
        <ele>547.035</ele>
        <time>2022-08-24T07:20:18Z</time>
      </trkpt>
      <trkpt lat="43.120463999999764" lon="-1.244518000000001">
        <ele>547.024</ele>
        <time>2022-08-24T07:20:19Z</time>
      </trkpt>
      <trkpt lat="43.120449999999764" lon="-1.2445190000000008">
        <ele>547.217</ele>
        <time>2022-08-24T07:20:20Z</time>
      </trkpt>
      <trkpt lat="43.12043699999976" lon="-1.244518000000001">
        <ele>547.487</ele>
        <time>2022-08-24T07:20:21Z</time>
      </trkpt>
      <trkpt lat="43.12042199999976" lon="-1.244515000000001">
        <ele>547.415</ele>
        <time>2022-08-24T07:20:22Z</time>
      </trkpt>
      <trkpt lat="43.120406999999766" lon="-1.244512000000001">
        <ele>547.609</ele>
        <time>2022-08-24T07:20:23Z</time>
      </trkpt>
      <trkpt lat="43.12039099999976" lon="-1.244511000000001">
        <ele>547.852</ele>
        <time>2022-08-24T07:20:24Z</time>
      </trkpt>
      <trkpt lat="43.12037199999976" lon="-1.244512000000001">
        <ele>548.072</ele>
        <time>2022-08-24T07:20:25Z</time>
      </trkpt>
      <trkpt lat="43.12035199999976" lon="-1.244512000000001">
        <ele>548.212</ele>
        <time>2022-08-24T07:20:26Z</time>
      </trkpt>
      <trkpt lat="43.12033299999976" lon="-1.244510000000001">
        <ele>549.068</ele>
        <time>2022-08-24T07:20:27Z</time>
      </trkpt>
      <trkpt lat="43.12031499999976" lon="-1.2445080000000008">
        <ele>549.460</ele>
        <time>2022-08-24T07:20:28Z</time>
      </trkpt>
      <trkpt lat="43.120296999999766" lon="-1.2445060000000008">
        <ele>549.437</ele>
        <time>2022-08-24T07:20:29Z</time>
      </trkpt>
      <trkpt lat="43.12027899999977" lon="-1.2445040000000007">
        <ele>549.620</ele>
        <time>2022-08-24T07:20:30Z</time>
      </trkpt>
      <trkpt lat="43.12026099999977" lon="-1.2445020000000007">
        <ele>549.674</ele>
        <time>2022-08-24T07:20:31Z</time>
      </trkpt>
      <trkpt lat="43.12024399999977" lon="-1.2444970000000006">
        <ele>549.883</ele>
        <time>2022-08-24T07:20:32Z</time>
      </trkpt>
      <trkpt lat="43.12022999999977" lon="-1.2444900000000005">
        <ele>550.048</ele>
        <time>2022-08-24T07:20:33Z</time>
      </trkpt>
      <trkpt lat="43.120214999999774" lon="-1.2444860000000006">
        <ele>550.261</ele>
        <time>2022-08-24T07:20:34Z</time>
      </trkpt>
      <trkpt lat="43.12019999999978" lon="-1.2444810000000006">
        <ele>550.417</ele>
        <time>2022-08-24T07:20:35Z</time>
      </trkpt>
      <trkpt lat="43.12018499999978" lon="-1.2444750000000007">
        <ele>550.609</ele>
        <time>2022-08-24T07:20:36Z</time>
      </trkpt>
      <trkpt lat="43.12017099999978" lon="-1.2444680000000006">
        <ele>550.855</ele>
        <time>2022-08-24T07:20:37Z</time>
      </trkpt>
      <trkpt lat="43.12015699999978" lon="-1.2444640000000007">
        <ele>551.035</ele>
        <time>2022-08-24T07:20:38Z</time>
      </trkpt>
      <trkpt lat="43.12014299999978" lon="-1.2444590000000006">
        <ele>551.495</ele>
        <time>2022-08-24T07:20:39Z</time>
      </trkpt>
      <trkpt lat="43.120129999999776" lon="-1.2444560000000007">
        <ele>551.421</ele>
        <time>2022-08-24T07:20:40Z</time>
      </trkpt>
      <trkpt lat="43.120115999999776" lon="-1.2444520000000008">
        <ele>551.653</ele>
        <time>2022-08-24T07:20:41Z</time>
      </trkpt>
      <trkpt lat="43.12010099999978" lon="-1.2444440000000008">
        <ele>551.820</ele>
        <time>2022-08-24T07:20:42Z</time>
      </trkpt>
      <trkpt lat="43.12008699999978" lon="-1.2444360000000008">
        <ele>552.023</ele>
        <time>2022-08-24T07:20:43Z</time>
      </trkpt>
      <trkpt lat="43.120073999999775" lon="-1.2444250000000008">
        <ele>552.227</ele>
        <time>2022-08-24T07:20:44Z</time>
      </trkpt>
      <trkpt lat="43.12006199999978" lon="-1.2444180000000007">
        <ele>552.496</ele>
        <time>2022-08-24T07:20:45Z</time>
      </trkpt>
      <trkpt lat="43.12004799999978" lon="-1.2444130000000007">
        <ele>552.678</ele>
        <time>2022-08-24T07:20:46Z</time>
      </trkpt>
      <trkpt lat="43.12003399999978" lon="-1.2444070000000007">
        <ele>552.833</ele>
        <time>2022-08-24T07:20:47Z</time>
      </trkpt>
      <trkpt lat="43.120019999999776" lon="-1.2443980000000008">
        <ele>553.026</ele>
        <time>2022-08-24T07:20:48Z</time>
      </trkpt>
      <trkpt lat="43.12000799999978" lon="-1.2443930000000007">
        <ele>553.209</ele>
        <time>2022-08-24T07:20:49Z</time>
      </trkpt>
      <trkpt lat="43.11999299999978" lon="-1.2443900000000008">
        <ele>553.458</ele>
        <time>2022-08-24T07:20:50Z</time>
      </trkpt>
      <trkpt lat="43.11997999999978" lon="-1.2443830000000007">
        <ele>553.448</ele>
        <time>2022-08-24T07:20:51Z</time>
      </trkpt>
      <trkpt lat="43.11996599999978" lon="-1.2443750000000007">
        <ele>553.688</ele>
        <time>2022-08-24T07:20:52Z</time>
      </trkpt>
      <trkpt lat="43.11995099999978" lon="-1.2443660000000007">
        <ele>553.824</ele>
        <time>2022-08-24T07:20:53Z</time>
      </trkpt>
      <trkpt lat="43.11993999999978" lon="-1.2443570000000008">
        <ele>554.056</ele>
        <time>2022-08-24T07:20:54Z</time>
      </trkpt>
      <trkpt lat="43.11992699999978" lon="-1.244348000000001">
        <ele>554.073</ele>
        <time>2022-08-24T07:20:55Z</time>
      </trkpt>
      <trkpt lat="43.119913999999774" lon="-1.2443410000000008">
        <ele>554.256</ele>
        <time>2022-08-24T07:20:56Z</time>
      </trkpt>
      <trkpt lat="43.119899999999774" lon="-1.2443350000000009">
        <ele>554.440</ele>
        <time>2022-08-24T07:20:57Z</time>
      </trkpt>
      <trkpt lat="43.119885999999774" lon="-1.244329000000001">
        <ele>554.699</ele>
        <time>2022-08-24T07:20:58Z</time>
      </trkpt>
      <trkpt lat="43.11987499999977" lon="-1.244321000000001">
        <ele>554.654</ele>
        <time>2022-08-24T07:20:59Z</time>
      </trkpt>
      <trkpt lat="43.11985899999977" lon="-1.2443140000000008">
        <ele>555.056</ele>
        <time>2022-08-24T07:21:00Z</time>
      </trkpt>
      <trkpt lat="43.11984899999977" lon="-1.2443060000000008">
        <ele>555.011</ele>
        <time>2022-08-24T07:21:01Z</time>
      </trkpt>
      <trkpt lat="43.11983799999977" lon="-1.2442960000000007">
        <ele>555.409</ele>
        <time>2022-08-24T07:21:02Z</time>
      </trkpt>
      <trkpt lat="43.11982599999977" lon="-1.2442880000000007">
        <ele>555.486</ele>
        <time>2022-08-24T07:21:03Z</time>
      </trkpt>
      <trkpt lat="43.119815999999766" lon="-1.2442810000000006">
        <ele>555.426</ele>
        <time>2022-08-24T07:21:04Z</time>
      </trkpt>
      <trkpt lat="43.11980599999976" lon="-1.2442730000000006">
        <ele>555.836</ele>
        <time>2022-08-24T07:21:05Z</time>
      </trkpt>
      <trkpt lat="43.11979599999976" lon="-1.2442670000000007">
        <ele>555.882</ele>
        <time>2022-08-24T07:21:06Z</time>
      </trkpt>
      <trkpt lat="43.119785999999756" lon="-1.2442620000000006">
        <ele>556.234</ele>
        <time>2022-08-24T07:21:07Z</time>
      </trkpt>
      <trkpt lat="43.11977599999975" lon="-1.2442610000000007">
        <ele>556.291</ele>
        <time>2022-08-24T07:21:08Z</time>
      </trkpt>
      <trkpt lat="43.119763999999755" lon="-1.2442540000000006">
        <ele>556.444</ele>
        <time>2022-08-24T07:21:09Z</time>
      </trkpt>
      <trkpt lat="43.11975199999976" lon="-1.2442470000000005">
        <ele>556.628</ele>
        <time>2022-08-24T07:21:10Z</time>
      </trkpt>
      <trkpt lat="43.119740999999756" lon="-1.2442410000000006">
        <ele>556.877</ele>
        <time>2022-08-24T07:21:11Z</time>
      </trkpt>
      <trkpt lat="43.11973099999975" lon="-1.2442370000000007">
        <ele>556.887</ele>
        <time>2022-08-24T07:21:12Z</time>
      </trkpt>
      <trkpt lat="43.119721999999754" lon="-1.2442300000000006">
        <ele>557.042</ele>
        <time>2022-08-24T07:21:13Z</time>
      </trkpt>
      <trkpt lat="43.11971199999975" lon="-1.2442180000000007">
        <ele>557.226</ele>
        <time>2022-08-24T07:21:14Z</time>
      </trkpt>
      <trkpt lat="43.11970199999975" lon="-1.2442080000000006">
        <ele>557.409</ele>
        <time>2022-08-24T07:21:15Z</time>
      </trkpt>
      <trkpt lat="43.119691999999745" lon="-1.2442010000000006">
        <ele>557.439</ele>
        <time>2022-08-24T07:21:16Z</time>
      </trkpt>
      <trkpt lat="43.119680999999744" lon="-1.2441980000000006">
        <ele>557.659</ele>
        <time>2022-08-24T07:21:17Z</time>
      </trkpt>
      <trkpt lat="43.11966999999974" lon="-1.2441920000000006">
        <ele>557.839</ele>
        <time>2022-08-24T07:21:18Z</time>
      </trkpt>
      <trkpt lat="43.119657999999745" lon="-1.2441830000000007">
        <ele>558.085</ele>
        <time>2022-08-24T07:21:19Z</time>
      </trkpt>
      <trkpt lat="43.11964599999975" lon="-1.2441700000000007">
        <ele>558.057</ele>
        <time>2022-08-24T07:21:20Z</time>
      </trkpt>
      <trkpt lat="43.11963499999975" lon="-1.2441570000000006">
        <ele>558.264</ele>
        <time>2022-08-24T07:21:21Z</time>
      </trkpt>
      <trkpt lat="43.119623999999746" lon="-1.2441440000000006">
        <ele>558.267</ele>
        <time>2022-08-24T07:21:22Z</time>
      </trkpt>
      <trkpt lat="43.119612999999745" lon="-1.2441360000000006">
        <ele>558.471</ele>
        <time>2022-08-24T07:21:23Z</time>
      </trkpt>
      <trkpt lat="43.11959999999974" lon="-1.2441310000000005">
        <ele>558.670</ele>
        <time>2022-08-24T07:21:24Z</time>
      </trkpt>
      <trkpt lat="43.119584999999745" lon="-1.2441220000000006">
        <ele>558.676</ele>
        <time>2022-08-24T07:21:25Z</time>
      </trkpt>
      <trkpt lat="43.11957299999975" lon="-1.2441100000000007">
        <ele>558.890</ele>
        <time>2022-08-24T07:21:26Z</time>
      </trkpt>
      <trkpt lat="43.11956399999975" lon="-1.2440980000000008">
        <ele>558.819</ele>
        <time>2022-08-24T07:21:27Z</time>
      </trkpt>
      <trkpt lat="43.11955499999975" lon="-1.2440840000000009">
        <ele>559.009</ele>
        <time>2022-08-24T07:21:28Z</time>
      </trkpt>
      <trkpt lat="43.11954399999975" lon="-1.244070000000001">
        <ele>559.428</ele>
        <time>2022-08-24T07:21:29Z</time>
      </trkpt>
      <trkpt lat="43.11953699999975" lon="-1.244058000000001">
        <ele>559.858</ele>
        <time>2022-08-24T07:21:30Z</time>
      </trkpt>
      <trkpt lat="43.119527999999754" lon="-1.244050000000001">
        <ele>560.028</ele>
        <time>2022-08-24T07:21:31Z</time>
      </trkpt>
      <trkpt lat="43.11951699999975" lon="-1.244042000000001">
        <ele>560.064</ele>
        <time>2022-08-24T07:21:32Z</time>
      </trkpt>
      <trkpt lat="43.11950699999975" lon="-1.244034000000001">
        <ele>560.236</ele>
        <time>2022-08-24T07:21:33Z</time>
      </trkpt>
      <trkpt lat="43.11949599999975" lon="-1.244026000000001">
        <ele>560.463</ele>
        <time>2022-08-24T07:21:34Z</time>
      </trkpt>
      <trkpt lat="43.11948499999975" lon="-1.244022000000001">
        <ele>561.066</ele>
        <time>2022-08-24T07:21:35Z</time>
      </trkpt>
      <trkpt lat="43.11947599999975" lon="-1.244020000000001">
        <ele>561.210</ele>
        <time>2022-08-24T07:21:36Z</time>
      </trkpt>
      <trkpt lat="43.11946299999975" lon="-1.244013000000001">
        <ele>561.669</ele>
        <time>2022-08-24T07:21:37Z</time>
      </trkpt>
      <trkpt lat="43.119452999999744" lon="-1.244004000000001">
        <ele>561.815</ele>
        <time>2022-08-24T07:21:38Z</time>
      </trkpt>
      <trkpt lat="43.119446999999745" lon="-1.243996000000001">
        <ele>561.865</ele>
        <time>2022-08-24T07:21:39Z</time>
      </trkpt>
      <trkpt lat="43.11944299999975" lon="-1.243982000000001">
        <ele>561.811</ele>
        <time>2022-08-24T07:21:40Z</time>
      </trkpt>
      <trkpt lat="43.11943599999975" lon="-1.2439700000000011">
        <ele>562.009</ele>
        <time>2022-08-24T07:21:41Z</time>
      </trkpt>
      <trkpt lat="43.11942999999975" lon="-1.2439620000000011">
        <ele>562.272</ele>
        <time>2022-08-24T07:21:42Z</time>
      </trkpt>
      <trkpt lat="43.11941999999975" lon="-1.2439540000000011">
        <ele>562.852</ele>
        <time>2022-08-24T07:21:43Z</time>
      </trkpt>
      <trkpt lat="43.11941199999975" lon="-1.2439480000000012">
        <ele>562.872</ele>
        <time>2022-08-24T07:21:44Z</time>
      </trkpt>
      <trkpt lat="43.119401999999745" lon="-1.2439430000000011">
        <ele>563.258</ele>
        <time>2022-08-24T07:21:45Z</time>
      </trkpt>
      <trkpt lat="43.119393999999744" lon="-1.2439390000000012">
        <ele>563.220</ele>
        <time>2022-08-24T07:21:46Z</time>
      </trkpt>
      <trkpt lat="43.11938599999974" lon="-1.2439310000000012">
        <ele>563.477</ele>
        <time>2022-08-24T07:21:47Z</time>
      </trkpt>
      <trkpt lat="43.119378999999746" lon="-1.2439180000000012">
        <ele>563.670</ele>
        <time>2022-08-24T07:21:48Z</time>
      </trkpt>
      <trkpt lat="43.11937199999975" lon="-1.2439100000000012">
        <ele>563.894</ele>
        <time>2022-08-24T07:21:49Z</time>
      </trkpt>
      <trkpt lat="43.11936399999975" lon="-1.2439040000000012">
        <ele>564.043</ele>
        <time>2022-08-24T07:21:50Z</time>
      </trkpt>
      <trkpt lat="43.11935599999975" lon="-1.2438970000000011">
        <ele>564.243</ele>
        <time>2022-08-24T07:21:51Z</time>
      </trkpt>
      <trkpt lat="43.119350999999746" lon="-1.2438890000000011">
        <ele>564.464</ele>
        <time>2022-08-24T07:21:52Z</time>
      </trkpt>
      <trkpt lat="43.119342999999745" lon="-1.2438810000000011">
        <ele>564.410</ele>
        <time>2022-08-24T07:21:53Z</time>
      </trkpt>
      <trkpt lat="43.119333999999746" lon="-1.2438720000000012">
        <ele>564.609</ele>
        <time>2022-08-24T07:21:54Z</time>
      </trkpt>
      <trkpt lat="43.119325999999745" lon="-1.2438630000000013">
        <ele>564.835</ele>
        <time>2022-08-24T07:21:55Z</time>
      </trkpt>
      <trkpt lat="43.119319999999746" lon="-1.2438550000000013">
        <ele>565.035</ele>
        <time>2022-08-24T07:21:56Z</time>
      </trkpt>
      <trkpt lat="43.11931299999975" lon="-1.2438480000000012">
        <ele>565.285</ele>
        <time>2022-08-24T07:21:57Z</time>
      </trkpt>
      <trkpt lat="43.11930599999975" lon="-1.2438400000000012">
        <ele>565.251</ele>
        <time>2022-08-24T07:21:58Z</time>
      </trkpt>
      <trkpt lat="43.11930099999975" lon="-1.2438280000000013">
        <ele>565.423</ele>
        <time>2022-08-24T07:21:59Z</time>
      </trkpt>
      <trkpt lat="43.119296999999754" lon="-1.2438170000000013">
        <ele>565.420</ele>
        <time>2022-08-24T07:22:00Z</time>
      </trkpt>
      <trkpt lat="43.11928999999976" lon="-1.2438090000000013">
        <ele>565.673</ele>
        <time>2022-08-24T07:22:01Z</time>
      </trkpt>
      <trkpt lat="43.11928199999976" lon="-1.2438030000000013">
        <ele>565.877</ele>
        <time>2022-08-24T07:22:02Z</time>
      </trkpt>
      <trkpt lat="43.119273999999756" lon="-1.2437990000000014">
        <ele>566.026</ele>
        <time>2022-08-24T07:22:03Z</time>
      </trkpt>
      <trkpt lat="43.11926499999976" lon="-1.2437920000000013">
        <ele>566.266</ele>
        <time>2022-08-24T07:22:04Z</time>
      </trkpt>
      <trkpt lat="43.119256999999756" lon="-1.2437840000000013">
        <ele>566.229</ele>
        <time>2022-08-24T07:22:05Z</time>
      </trkpt>
      <trkpt lat="43.11925099999976" lon="-1.2437760000000013">
        <ele>566.621</ele>
        <time>2022-08-24T07:22:06Z</time>
      </trkpt>
      <trkpt lat="43.11924399999976" lon="-1.2437690000000012">
        <ele>566.809</ele>
        <time>2022-08-24T07:22:07Z</time>
      </trkpt>
      <trkpt lat="43.11923599999976" lon="-1.2437600000000013">
        <ele>567.057</ele>
        <time>2022-08-24T07:22:08Z</time>
      </trkpt>
      <trkpt lat="43.11922899999976" lon="-1.2437500000000012">
        <ele>567.017</ele>
        <time>2022-08-24T07:22:09Z</time>
      </trkpt>
      <trkpt lat="43.119222999999764" lon="-1.2437360000000013">
        <ele>567.267</ele>
        <time>2022-08-24T07:22:10Z</time>
      </trkpt>
      <trkpt lat="43.11921799999976" lon="-1.2437210000000012">
        <ele>567.463</ele>
        <time>2022-08-24T07:22:11Z</time>
      </trkpt>
      <trkpt lat="43.119210999999765" lon="-1.2437070000000012">
        <ele>567.845</ele>
        <time>2022-08-24T07:22:12Z</time>
      </trkpt>
      <trkpt lat="43.11920399999977" lon="-1.2436910000000012">
        <ele>568.052</ele>
        <time>2022-08-24T07:22:13Z</time>
      </trkpt>
      <trkpt lat="43.11919599999977" lon="-1.2436790000000013">
        <ele>568.095</ele>
        <time>2022-08-24T07:22:14Z</time>
      </trkpt>
      <trkpt lat="43.119185999999765" lon="-1.2436680000000013">
        <ele>568.039</ele>
        <time>2022-08-24T07:22:15Z</time>
      </trkpt>
      <trkpt lat="43.119176999999766" lon="-1.2436600000000013">
        <ele>568.268</ele>
        <time>2022-08-24T07:22:16Z</time>
      </trkpt>
      <trkpt lat="43.119168999999765" lon="-1.2436520000000013">
        <ele>568.449</ele>
        <time>2022-08-24T07:22:17Z</time>
      </trkpt>
      <trkpt lat="43.11916199999977" lon="-1.2436450000000012">
        <ele>568.602</ele>
        <time>2022-08-24T07:22:18Z</time>
      </trkpt>
      <trkpt lat="43.11915399999977" lon="-1.2436370000000012">
        <ele>568.622</ele>
        <time>2022-08-24T07:22:19Z</time>
      </trkpt>
      <trkpt lat="43.11914699999977" lon="-1.2436260000000012">
        <ele>569.009</ele>
        <time>2022-08-24T07:22:20Z</time>
      </trkpt>
      <trkpt lat="43.119139999999774" lon="-1.2436180000000012">
        <ele>569.015</ele>
        <time>2022-08-24T07:22:21Z</time>
      </trkpt>
      <trkpt lat="43.11913199999977" lon="-1.2436110000000011">
        <ele>569.225</ele>
        <time>2022-08-24T07:22:22Z</time>
      </trkpt>
      <trkpt lat="43.119122999999774" lon="-1.2436050000000012">
        <ele>569.495</ele>
        <time>2022-08-24T07:22:23Z</time>
      </trkpt>
      <trkpt lat="43.11911499999977" lon="-1.2435960000000013">
        <ele>569.641</ele>
        <time>2022-08-24T07:22:24Z</time>
      </trkpt>
      <trkpt lat="43.11910699999977" lon="-1.2435870000000013">
        <ele>569.823</ele>
        <time>2022-08-24T07:22:25Z</time>
      </trkpt>
      <trkpt lat="43.11909899999977" lon="-1.2435790000000013">
        <ele>570.090</ele>
        <time>2022-08-24T07:22:26Z</time>
      </trkpt>
      <trkpt lat="43.119091999999775" lon="-1.2435690000000013">
        <ele>570.073</ele>
        <time>2022-08-24T07:22:27Z</time>
      </trkpt>
      <trkpt lat="43.119085999999776" lon="-1.2435540000000012">
        <ele>570.287</ele>
        <time>2022-08-24T07:22:28Z</time>
      </trkpt>
      <trkpt lat="43.11907999999978" lon="-1.2435400000000012">
        <ele>570.276</ele>
        <time>2022-08-24T07:22:29Z</time>
      </trkpt>
      <trkpt lat="43.11907099999978" lon="-1.2435290000000012">
        <ele>570.464</ele>
        <time>2022-08-24T07:22:30Z</time>
      </trkpt>
      <trkpt lat="43.119060999999775" lon="-1.2435200000000013">
        <ele>570.606</ele>
        <time>2022-08-24T07:22:31Z</time>
      </trkpt>
      <trkpt lat="43.119051999999776" lon="-1.2435110000000014">
        <ele>570.816</ele>
        <time>2022-08-24T07:22:32Z</time>
      </trkpt>
      <trkpt lat="43.119040999999775" lon="-1.2435030000000014">
        <ele>571.009</ele>
        <time>2022-08-24T07:22:33Z</time>
      </trkpt>
      <trkpt lat="43.11903099999977" lon="-1.2434910000000015">
        <ele>571.297</ele>
        <time>2022-08-24T07:22:34Z</time>
      </trkpt>
      <trkpt lat="43.11902599999977" lon="-1.2434820000000015">
        <ele>571.247</ele>
        <time>2022-08-24T07:22:35Z</time>
      </trkpt>
      <trkpt lat="43.119018999999774" lon="-1.2434730000000016">
        <ele>571.687</ele>
        <time>2022-08-24T07:22:36Z</time>
      </trkpt>
      <trkpt lat="43.11901099999977" lon="-1.2434640000000017">
        <ele>571.683</ele>
        <time>2022-08-24T07:22:37Z</time>
      </trkpt>
      <trkpt lat="43.11900399999978" lon="-1.2434520000000018">
        <ele>571.885</ele>
        <time>2022-08-24T07:22:38Z</time>
      </trkpt>
      <trkpt lat="43.11899799999978" lon="-1.2434390000000017">
        <ele>572.022</ele>
        <time>2022-08-24T07:22:39Z</time>
      </trkpt>
      <trkpt lat="43.11899099999978" lon="-1.2434290000000017">
        <ele>572.275</ele>
        <time>2022-08-24T07:22:40Z</time>
      </trkpt>
      <trkpt lat="43.11898199999978" lon="-1.2434200000000017">
        <ele>572.449</ele>
        <time>2022-08-24T07:22:41Z</time>
      </trkpt>
      <trkpt lat="43.11897199999978" lon="-1.2434110000000018">
        <ele>572.418</ele>
        <time>2022-08-24T07:22:42Z</time>
      </trkpt>
      <trkpt lat="43.11896099999978" lon="-1.2434030000000018">
        <ele>572.694</ele>
        <time>2022-08-24T07:22:43Z</time>
      </trkpt>
      <trkpt lat="43.11894899999978" lon="-1.2433940000000019">
        <ele>572.657</ele>
        <time>2022-08-24T07:22:44Z</time>
      </trkpt>
      <trkpt lat="43.11893699999978" lon="-1.243380000000002">
        <ele>572.822</ele>
        <time>2022-08-24T07:22:45Z</time>
      </trkpt>
      <trkpt lat="43.11892899999978" lon="-1.243371000000002">
        <ele>573.009</ele>
        <time>2022-08-24T07:22:46Z</time>
      </trkpt>
      <trkpt lat="43.11892099999978" lon="-1.243363000000002">
        <ele>573.270</ele>
        <time>2022-08-24T07:22:47Z</time>
      </trkpt>
      <trkpt lat="43.11891099999978" lon="-1.243356000000002">
        <ele>573.640</ele>
        <time>2022-08-24T07:22:48Z</time>
      </trkpt>
      <trkpt lat="43.118902999999776" lon="-1.243347000000002">
        <ele>573.660</ele>
        <time>2022-08-24T07:22:49Z</time>
      </trkpt>
      <trkpt lat="43.11889599999978" lon="-1.243335000000002">
        <ele>573.836</ele>
        <time>2022-08-24T07:22:50Z</time>
      </trkpt>
      <trkpt lat="43.11888999999978" lon="-1.2433230000000022">
        <ele>573.878</ele>
        <time>2022-08-24T07:22:51Z</time>
      </trkpt>
      <trkpt lat="43.11888199999978" lon="-1.2433120000000022">
        <ele>574.045</ele>
        <time>2022-08-24T07:22:52Z</time>
      </trkpt>
      <trkpt lat="43.11887299999978" lon="-1.2433040000000022">
        <ele>574.498</ele>
        <time>2022-08-24T07:22:53Z</time>
      </trkpt>
      <trkpt lat="43.11886299999978" lon="-1.2432960000000022">
        <ele>574.432</ele>
        <time>2022-08-24T07:22:54Z</time>
      </trkpt>
      <trkpt lat="43.118852999999774" lon="-1.243289000000002">
        <ele>574.661</ele>
        <time>2022-08-24T07:22:55Z</time>
      </trkpt>
      <trkpt lat="43.118843999999775" lon="-1.243282000000002">
        <ele>574.834</ele>
        <time>2022-08-24T07:22:56Z</time>
      </trkpt>
      <trkpt lat="43.11883499999978" lon="-1.243273000000002">
        <ele>574.855</ele>
        <time>2022-08-24T07:22:57Z</time>
      </trkpt>
      <trkpt lat="43.11882799999978" lon="-1.243263000000002">
        <ele>575.010</ele>
        <time>2022-08-24T07:22:58Z</time>
      </trkpt>
      <trkpt lat="43.11882199999978" lon="-1.243254000000002">
        <ele>575.209</ele>
        <time>2022-08-24T07:22:59Z</time>
      </trkpt>
      <trkpt lat="43.11881399999978" lon="-1.243247000000002">
        <ele>575.224</ele>
        <time>2022-08-24T07:23:00Z</time>
      </trkpt>
      <trkpt lat="43.11880299999978" lon="-1.243240000000002">
        <ele>575.214</ele>
        <time>2022-08-24T07:23:01Z</time>
      </trkpt>
      <trkpt lat="43.11879399999978" lon="-1.2432300000000018">
        <ele>575.484</ele>
        <time>2022-08-24T07:23:02Z</time>
      </trkpt>
      <trkpt lat="43.118786999999784" lon="-1.2432220000000018">
        <ele>575.650</ele>
        <time>2022-08-24T07:23:03Z</time>
      </trkpt>
      <trkpt lat="43.11877699999978" lon="-1.2432150000000017">
        <ele>575.812</ele>
        <time>2022-08-24T07:23:04Z</time>
      </trkpt>
      <trkpt lat="43.11876899999978" lon="-1.2432040000000018">
        <ele>575.899</ele>
        <time>2022-08-24T07:23:05Z</time>
      </trkpt>
      <trkpt lat="43.11875899999978" lon="-1.2431900000000018">
        <ele>576.282</ele>
        <time>2022-08-24T07:23:06Z</time>
      </trkpt>
      <trkpt lat="43.118745999999774" lon="-1.2431730000000019">
        <ele>576.046</ele>
        <time>2022-08-24T07:23:07Z</time>
      </trkpt>
      <trkpt lat="43.11873299999977" lon="-1.2431570000000018">
        <ele>576.445</ele>
        <time>2022-08-24T07:23:08Z</time>
      </trkpt>
      <trkpt lat="43.118717999999774" lon="-1.2431440000000018">
        <ele>576.676</ele>
        <time>2022-08-24T07:23:09Z</time>
      </trkpt>
      <trkpt lat="43.11870499999977" lon="-1.2431270000000019">
        <ele>576.690</ele>
        <time>2022-08-24T07:23:10Z</time>
      </trkpt>
      <trkpt lat="43.11869399999977" lon="-1.2431090000000018">
        <ele>576.819</ele>
        <time>2022-08-24T07:23:11Z</time>
      </trkpt>
      <trkpt lat="43.11868399999977" lon="-1.2430960000000018">
        <ele>576.809</ele>
        <time>2022-08-24T07:23:12Z</time>
      </trkpt>
      <trkpt lat="43.118670999999765" lon="-1.2430850000000018">
        <ele>577.038</ele>
        <time>2022-08-24T07:23:13Z</time>
      </trkpt>
      <trkpt lat="43.11865899999977" lon="-1.2430740000000018">
        <ele>577.428</ele>
        <time>2022-08-24T07:23:14Z</time>
      </trkpt>
      <trkpt lat="43.11864699999977" lon="-1.2430650000000019">
        <ele>577.438</ele>
        <time>2022-08-24T07:23:15Z</time>
      </trkpt>
      <trkpt lat="43.11863499999977" lon="-1.2430540000000019">
        <ele>577.624</ele>
        <time>2022-08-24T07:23:16Z</time>
      </trkpt>
      <trkpt lat="43.11862599999977" lon="-1.243040000000002">
        <ele>577.836</ele>
        <time>2022-08-24T07:23:17Z</time>
      </trkpt>
      <trkpt lat="43.11861599999977" lon="-1.243028000000002">
        <ele>578.023</ele>
        <time>2022-08-24T07:23:18Z</time>
      </trkpt>
      <trkpt lat="43.11860499999977" lon="-1.243017000000002">
        <ele>578.286</ele>
        <time>2022-08-24T07:23:19Z</time>
      </trkpt>
      <trkpt lat="43.11859599999977" lon="-1.2430080000000021">
        <ele>578.450</ele>
        <time>2022-08-24T07:23:20Z</time>
      </trkpt>
      <trkpt lat="43.11858699999977" lon="-1.242998000000002">
        <ele>578.879</ele>
        <time>2022-08-24T07:23:21Z</time>
      </trkpt>
      <trkpt lat="43.118579999999774" lon="-1.242985000000002">
        <ele>579.033</ele>
        <time>2022-08-24T07:23:22Z</time>
      </trkpt>
      <trkpt lat="43.118570999999775" lon="-1.242972000000002">
        <ele>579.223</ele>
        <time>2022-08-24T07:23:23Z</time>
      </trkpt>
      <trkpt lat="43.118559999999775" lon="-1.242960000000002">
        <ele>579.415</ele>
        <time>2022-08-24T07:23:24Z</time>
      </trkpt>
      <trkpt lat="43.11854999999977" lon="-1.242953000000002">
        <ele>579.409</ele>
        <time>2022-08-24T07:23:25Z</time>
      </trkpt>
      <trkpt lat="43.11854199999977" lon="-1.242945000000002">
        <ele>579.614</ele>
        <time>2022-08-24T07:23:26Z</time>
      </trkpt>
      <trkpt lat="43.11853199999977" lon="-1.242933000000002">
        <ele>579.684</ele>
        <time>2022-08-24T07:23:27Z</time>
      </trkpt>
      <trkpt lat="43.11852299999977" lon="-1.242923000000002">
        <ele>579.874</ele>
        <time>2022-08-24T07:23:28Z</time>
      </trkpt>
      <trkpt lat="43.11851399999977" lon="-1.242914000000002">
        <ele>580.040</ele>
        <time>2022-08-24T07:23:29Z</time>
      </trkpt>
      <trkpt lat="43.11850499999977" lon="-1.242903000000002">
        <ele>580.082</ele>
        <time>2022-08-24T07:23:30Z</time>
      </trkpt>
      <trkpt lat="43.11849399999977" lon="-1.2428910000000022">
        <ele>580.279</ele>
        <time>2022-08-24T07:23:31Z</time>
      </trkpt>
      <trkpt lat="43.11848599999977" lon="-1.2428820000000023">
        <ele>580.412</ele>
        <time>2022-08-24T07:23:32Z</time>
      </trkpt>
      <trkpt lat="43.11847699999977" lon="-1.2428720000000022">
        <ele>580.426</ele>
        <time>2022-08-24T07:23:33Z</time>
      </trkpt>
      <trkpt lat="43.11846899999977" lon="-1.2428640000000022">
        <ele>580.625</ele>
        <time>2022-08-24T07:23:34Z</time>
      </trkpt>
      <trkpt lat="43.11846099999977" lon="-1.2428550000000023">
        <ele>580.896</ele>
        <time>2022-08-24T07:23:35Z</time>
      </trkpt>
      <trkpt lat="43.11845499999977" lon="-1.2428450000000022">
        <ele>581.031</ele>
        <time>2022-08-24T07:23:36Z</time>
      </trkpt>
      <trkpt lat="43.11844999999977" lon="-1.2428320000000022">
        <ele>581.024</ele>
        <time>2022-08-24T07:23:37Z</time>
      </trkpt>
      <trkpt lat="43.11844099999977" lon="-1.2428210000000022">
        <ele>581.209</ele>
        <time>2022-08-24T07:23:38Z</time>
      </trkpt>
      <trkpt lat="43.11843199999977" lon="-1.242811000000002">
        <ele>581.490</ele>
        <time>2022-08-24T07:23:39Z</time>
      </trkpt>
      <trkpt lat="43.118424999999775" lon="-1.242801000000002">
        <ele>581.660</ele>
        <time>2022-08-24T07:23:40Z</time>
      </trkpt>
      <trkpt lat="43.11841699999977" lon="-1.2427920000000021">
        <ele>581.880</ele>
        <time>2022-08-24T07:23:41Z</time>
      </trkpt>
      <trkpt lat="43.11840899999977" lon="-1.242782000000002">
        <ele>581.886</ele>
        <time>2022-08-24T07:23:42Z</time>
      </trkpt>
      <trkpt lat="43.11839899999977" lon="-1.242771000000002">
        <ele>582.098</ele>
        <time>2022-08-24T07:23:43Z</time>
      </trkpt>
      <trkpt lat="43.11838699999977" lon="-1.242758000000002">
        <ele>582.015</ele>
        <time>2022-08-24T07:23:44Z</time>
      </trkpt>
      <trkpt lat="43.11837499999977" lon="-1.2427460000000021">
        <ele>582.288</ele>
        <time>2022-08-24T07:23:45Z</time>
      </trkpt>
      <trkpt lat="43.11836499999977" lon="-1.242736000000002">
        <ele>582.282</ele>
        <time>2022-08-24T07:23:46Z</time>
      </trkpt>
      <trkpt lat="43.11835399999977" lon="-1.242726000000002">
        <ele>582.491</ele>
        <time>2022-08-24T07:23:47Z</time>
      </trkpt>
      <trkpt lat="43.118343999999766" lon="-1.242714000000002">
        <ele>582.655</ele>
        <time>2022-08-24T07:23:48Z</time>
      </trkpt>
      <trkpt lat="43.11833199999977" lon="-1.2427000000000021">
        <ele>582.607</ele>
        <time>2022-08-24T07:23:49Z</time>
      </trkpt>
      <trkpt lat="43.11831999999977" lon="-1.2426880000000022">
        <ele>582.817</ele>
        <time>2022-08-24T07:23:50Z</time>
      </trkpt>
      <trkpt lat="43.11830899999977" lon="-1.2426780000000022">
        <ele>582.809</ele>
        <time>2022-08-24T07:23:51Z</time>
      </trkpt>
      <trkpt lat="43.11829999999977" lon="-1.242671000000002">
        <ele>582.866</ele>
        <time>2022-08-24T07:23:52Z</time>
      </trkpt>
      <trkpt lat="43.118292999999774" lon="-1.242661000000002">
        <ele>583.236</ele>
        <time>2022-08-24T07:23:53Z</time>
      </trkpt>
      <trkpt lat="43.11828799999977" lon="-1.242647000000002">
        <ele>583.276</ele>
        <time>2022-08-24T07:23:54Z</time>
      </trkpt>
      <trkpt lat="43.11827999999977" lon="-1.242628000000002">
        <ele>583.622</ele>
        <time>2022-08-24T07:23:55Z</time>
      </trkpt>
      <trkpt lat="43.11827499999977" lon="-1.242613000000002">
        <ele>583.844</ele>
        <time>2022-08-24T07:23:56Z</time>
      </trkpt>
      <trkpt lat="43.11826899999977" lon="-1.242599000000002">
        <ele>584.071</ele>
        <time>2022-08-24T07:23:57Z</time>
      </trkpt>
      <trkpt lat="43.11825999999977" lon="-1.242588000000002">
        <ele>584.284</ele>
        <time>2022-08-24T07:23:58Z</time>
      </trkpt>
      <trkpt lat="43.11825199999977" lon="-1.242577000000002">
        <ele>584.298</ele>
        <time>2022-08-24T07:23:59Z</time>
      </trkpt>
      <trkpt lat="43.11824199999977" lon="-1.2425650000000021">
        <ele>584.487</ele>
        <time>2022-08-24T07:24:00Z</time>
      </trkpt>
      <trkpt lat="43.11823299999977" lon="-1.242555000000002">
        <ele>584.494</ele>
        <time>2022-08-24T07:24:01Z</time>
      </trkpt>
      <trkpt lat="43.118222999999766" lon="-1.242545000000002">
        <ele>584.657</ele>
        <time>2022-08-24T07:24:02Z</time>
      </trkpt>
      <trkpt lat="43.11821299999976" lon="-1.242536000000002">
        <ele>585.022</ele>
        <time>2022-08-24T07:24:03Z</time>
      </trkpt>
      <trkpt lat="43.11820499999976" lon="-1.242525000000002">
        <ele>585.009</ele>
        <time>2022-08-24T07:24:04Z</time>
      </trkpt>
      <trkpt lat="43.118197999999765" lon="-1.242512000000002">
        <ele>585.460</ele>
        <time>2022-08-24T07:24:05Z</time>
      </trkpt>
      <trkpt lat="43.118191999999766" lon="-1.242499000000002">
        <ele>585.440</ele>
        <time>2022-08-24T07:24:06Z</time>
      </trkpt>
      <trkpt lat="43.11818499999977" lon="-1.242485000000002">
        <ele>585.690</ele>
        <time>2022-08-24T07:24:07Z</time>
      </trkpt>
      <trkpt lat="43.11817599999977" lon="-1.2424730000000022">
        <ele>585.646</ele>
        <time>2022-08-24T07:24:08Z</time>
      </trkpt>
      <trkpt lat="43.11816799999977" lon="-1.2424620000000022">
        <ele>585.838</ele>
        <time>2022-08-24T07:24:09Z</time>
      </trkpt>
      <trkpt lat="43.11815899999977" lon="-1.2424530000000023">
        <ele>586.065</ele>
        <time>2022-08-24T07:24:10Z</time>
      </trkpt>
      <trkpt lat="43.11814899999977" lon="-1.2424420000000023">
        <ele>586.058</ele>
        <time>2022-08-24T07:24:11Z</time>
      </trkpt>
      <trkpt lat="43.118138999999765" lon="-1.2424300000000024">
        <ele>586.232</ele>
        <time>2022-08-24T07:24:12Z</time>
      </trkpt>
      <trkpt lat="43.11812899999976" lon="-1.2424200000000023">
        <ele>586.281</ele>
        <time>2022-08-24T07:24:13Z</time>
      </trkpt>
      <trkpt lat="43.11811699999976" lon="-1.2424080000000024">
        <ele>586.451</ele>
        <time>2022-08-24T07:24:14Z</time>
      </trkpt>
      <trkpt lat="43.11810699999976" lon="-1.2423950000000024">
        <ele>586.601</ele>
        <time>2022-08-24T07:24:15Z</time>
      </trkpt>
      <trkpt lat="43.118099999999764" lon="-1.2423820000000023">
        <ele>586.811</ele>
        <time>2022-08-24T07:24:16Z</time>
      </trkpt>
      <trkpt lat="43.11809299999977" lon="-1.2423660000000023">
        <ele>587.009</ele>
        <time>2022-08-24T07:24:17Z</time>
      </trkpt>
      <trkpt lat="43.118084999999766" lon="-1.2423500000000023">
        <ele>587.036</ele>
        <time>2022-08-24T07:24:18Z</time>
      </trkpt>
      <trkpt lat="43.11807299999977" lon="-1.2423370000000022">
        <ele>587.276</ele>
        <time>2022-08-24T07:24:19Z</time>
      </trkpt>
      <trkpt lat="43.118059999999765" lon="-1.2423310000000023">
        <ele>587.286</ele>
        <time>2022-08-24T07:24:20Z</time>
      </trkpt>
      <trkpt lat="43.118045999999765" lon="-1.2423250000000023">
        <ele>587.442</ele>
        <time>2022-08-24T07:24:21Z</time>
      </trkpt>
      <trkpt lat="43.11803299999976" lon="-1.2423140000000024">
        <ele>587.484</ele>
        <time>2022-08-24T07:24:22Z</time>
      </trkpt>
      <trkpt lat="43.11802299999976" lon="-1.2423020000000025">
        <ele>587.651</ele>
        <time>2022-08-24T07:24:23Z</time>
      </trkpt>
      <trkpt lat="43.11801399999976" lon="-1.2422880000000025">
        <ele>587.834</ele>
        <time>2022-08-24T07:24:24Z</time>
      </trkpt>
      <trkpt lat="43.11800499999976" lon="-1.2422740000000025">
        <ele>587.888</ele>
        <time>2022-08-24T07:24:25Z</time>
      </trkpt>
      <trkpt lat="43.11799699999976" lon="-1.2422600000000026">
        <ele>588.237</ele>
        <time>2022-08-24T07:24:26Z</time>
      </trkpt>
      <trkpt lat="43.11798799999976" lon="-1.2422440000000026">
        <ele>588.239</ele>
        <time>2022-08-24T07:24:27Z</time>
      </trkpt>
      <trkpt lat="43.11797799999976" lon="-1.2422330000000026">
        <ele>588.401</ele>
        <time>2022-08-24T07:24:28Z</time>
      </trkpt>
      <trkpt lat="43.11796399999976" lon="-1.2422240000000027">
        <ele>588.621</ele>
        <time>2022-08-24T07:24:29Z</time>
      </trkpt>
      <trkpt lat="43.117953999999756" lon="-1.2422130000000027">
        <ele>588.609</ele>
        <time>2022-08-24T07:24:30Z</time>
      </trkpt>
      <trkpt lat="43.11794499999976" lon="-1.2422000000000026">
        <ele>589.034</ele>
        <time>2022-08-24T07:24:31Z</time>
      </trkpt>
      <trkpt lat="43.117934999999754" lon="-1.2421860000000027">
        <ele>589.024</ele>
        <time>2022-08-24T07:24:32Z</time>
      </trkpt>
      <trkpt lat="43.117925999999756" lon="-1.2421730000000026">
        <ele>589.244</ele>
        <time>2022-08-24T07:24:33Z</time>
      </trkpt>
      <trkpt lat="43.117914999999755" lon="-1.2421610000000027">
        <ele>589.420</ele>
        <time>2022-08-24T07:24:34Z</time>
      </trkpt>
      <trkpt lat="43.11790299999976" lon="-1.2421500000000028">
        <ele>589.672</ele>
        <time>2022-08-24T07:24:35Z</time>
      </trkpt>
      <trkpt lat="43.117891999999756" lon="-1.2421380000000029">
        <ele>589.619</ele>
        <time>2022-08-24T07:24:36Z</time>
      </trkpt>
      <trkpt lat="43.117880999999755" lon="-1.2421250000000028">
        <ele>589.882</ele>
        <time>2022-08-24T07:24:37Z</time>
      </trkpt>
      <trkpt lat="43.11787099999975" lon="-1.242113000000003">
        <ele>589.866</ele>
        <time>2022-08-24T07:24:38Z</time>
      </trkpt>
      <trkpt lat="43.11786099999975" lon="-1.2421000000000029">
        <ele>590.015</ele>
        <time>2022-08-24T07:24:39Z</time>
      </trkpt>
      <trkpt lat="43.11784999999975" lon="-1.2420870000000028">
        <ele>590.274</ele>
        <time>2022-08-24T07:24:40Z</time>
      </trkpt>
      <trkpt lat="43.11783799999975" lon="-1.2420740000000028">
        <ele>590.256</ele>
        <time>2022-08-24T07:24:41Z</time>
      </trkpt>
      <trkpt lat="43.11782899999975" lon="-1.2420610000000027">
        <ele>590.421</ele>
        <time>2022-08-24T07:24:42Z</time>
      </trkpt>
      <trkpt lat="43.11781899999975" lon="-1.2420490000000028">
        <ele>590.609</ele>
        <time>2022-08-24T07:24:43Z</time>
      </trkpt>
      <trkpt lat="43.11781099999975" lon="-1.2420340000000027">
        <ele>590.818</ele>
        <time>2022-08-24T07:24:44Z</time>
      </trkpt>
      <trkpt lat="43.117802999999746" lon="-1.2420190000000026">
        <ele>591.048</ele>
        <time>2022-08-24T07:24:45Z</time>
      </trkpt>
      <trkpt lat="43.11779599999975" lon="-1.2420030000000026">
        <ele>591.238</ele>
        <time>2022-08-24T07:24:46Z</time>
      </trkpt>
      <trkpt lat="43.11778799999975" lon="-1.2419870000000026">
        <ele>591.264</ele>
        <time>2022-08-24T07:24:47Z</time>
      </trkpt>
      <trkpt lat="43.11777899999975" lon="-1.2419740000000026">
        <ele>591.476</ele>
        <time>2022-08-24T07:24:48Z</time>
      </trkpt>
      <trkpt lat="43.11776799999975" lon="-1.2419660000000026">
        <ele>591.653</ele>
        <time>2022-08-24T07:24:49Z</time>
      </trkpt>
      <trkpt lat="43.11775699999975" lon="-1.2419620000000027">
        <ele>591.686</ele>
        <time>2022-08-24T07:24:50Z</time>
      </trkpt>
      <trkpt lat="43.11774599999975" lon="-1.2419570000000026">
        <ele>591.840</ele>
        <time>2022-08-24T07:24:51Z</time>
      </trkpt>
      <trkpt lat="43.117735999999745" lon="-1.2419500000000026">
        <ele>592.029</ele>
        <time>2022-08-24T07:24:52Z</time>
      </trkpt>
      <trkpt lat="43.11772599999974" lon="-1.2419400000000025">
        <ele>592.056</ele>
        <time>2022-08-24T07:24:53Z</time>
      </trkpt>
      <trkpt lat="43.11771599999974" lon="-1.2419310000000026">
        <ele>592.259</ele>
        <time>2022-08-24T07:24:54Z</time>
      </trkpt>
      <trkpt lat="43.117705999999735" lon="-1.2419200000000026">
        <ele>592.414</ele>
        <time>2022-08-24T07:24:55Z</time>
      </trkpt>
      <trkpt lat="43.11769599999973" lon="-1.2419090000000026">
        <ele>592.409</ele>
        <time>2022-08-24T07:24:56Z</time>
      </trkpt>
      <trkpt lat="43.117683999999734" lon="-1.2418990000000025">
        <ele>592.676</ele>
        <time>2022-08-24T07:24:57Z</time>
      </trkpt>
      <trkpt lat="43.11766899999974" lon="-1.2418880000000025">
        <ele>592.856</ele>
        <time>2022-08-24T07:24:58Z</time>
      </trkpt>
      <trkpt lat="43.117654999999736" lon="-1.2418790000000026">
        <ele>593.026</ele>
        <time>2022-08-24T07:24:59Z</time>
      </trkpt>
      <trkpt lat="43.117641999999734" lon="-1.2418680000000026">
        <ele>593.092</ele>
        <time>2022-08-24T07:25:00Z</time>
      </trkpt>
      <trkpt lat="43.11763099999973" lon="-1.2418570000000027">
        <ele>593.264</ele>
        <time>2022-08-24T07:25:01Z</time>
      </trkpt>
      <trkpt lat="43.11761699999973" lon="-1.2418480000000027">
        <ele>593.261</ele>
        <time>2022-08-24T07:25:02Z</time>
      </trkpt>
      <trkpt lat="43.117601999999735" lon="-1.2418420000000028">
        <ele>593.234</ele>
        <time>2022-08-24T07:25:03Z</time>
      </trkpt>
      <trkpt lat="43.117590999999734" lon="-1.2418340000000028">
        <ele>593.498</ele>
        <time>2022-08-24T07:25:04Z</time>
      </trkpt>
      <trkpt lat="43.11758099999973" lon="-1.2418260000000028">
        <ele>593.627</ele>
        <time>2022-08-24T07:25:05Z</time>
      </trkpt>
      <trkpt lat="43.11757199999973" lon="-1.2418190000000027">
        <ele>593.642</ele>
        <time>2022-08-24T07:25:06Z</time>
      </trkpt>
      <trkpt lat="43.11756199999973" lon="-1.2418090000000026">
        <ele>593.822</ele>
        <time>2022-08-24T07:25:07Z</time>
      </trkpt>
      <trkpt lat="43.117551999999726" lon="-1.2418010000000026">
        <ele>594.214</ele>
        <time>2022-08-24T07:25:08Z</time>
      </trkpt>
      <trkpt lat="43.11754199999972" lon="-1.2417930000000026">
        <ele>594.209</ele>
        <time>2022-08-24T07:25:09Z</time>
      </trkpt>
      <trkpt lat="43.117532999999725" lon="-1.2417820000000026">
        <ele>594.495</ele>
        <time>2022-08-24T07:25:10Z</time>
      </trkpt>
      <trkpt lat="43.117523999999726" lon="-1.2417720000000025">
        <ele>594.665</ele>
        <time>2022-08-24T07:25:11Z</time>
      </trkpt>
      <trkpt lat="43.117512999999725" lon="-1.2417630000000026">
        <ele>594.865</ele>
        <time>2022-08-24T07:25:12Z</time>
      </trkpt>
      <trkpt lat="43.11750099999973" lon="-1.2417550000000026">
        <ele>594.881</ele>
        <time>2022-08-24T07:25:13Z</time>
      </trkpt>
      <trkpt lat="43.11748899999973" lon="-1.2417470000000026">
        <ele>595.023</ele>
        <time>2022-08-24T07:25:14Z</time>
      </trkpt>
      <trkpt lat="43.11747699999973" lon="-1.2417410000000026">
        <ele>595.260</ele>
        <time>2022-08-24T07:25:15Z</time>
      </trkpt>
      <trkpt lat="43.11746199999973" lon="-1.2417350000000027">
        <ele>595.213</ele>
        <time>2022-08-24T07:25:16Z</time>
      </trkpt>
      <trkpt lat="43.117446999999736" lon="-1.2417280000000026">
        <ele>595.447</ele>
        <time>2022-08-24T07:25:17Z</time>
      </trkpt>
      <trkpt lat="43.11743499999974" lon="-1.2417170000000026">
        <ele>595.626</ele>
        <time>2022-08-24T07:25:18Z</time>
      </trkpt>
      <trkpt lat="43.11742399999974" lon="-1.2417050000000027">
        <ele>595.665</ele>
        <time>2022-08-24T07:25:19Z</time>
      </trkpt>
      <trkpt lat="43.117413999999734" lon="-1.2416920000000027">
        <ele>595.868</ele>
        <time>2022-08-24T07:25:20Z</time>
      </trkpt>
      <trkpt lat="43.117401999999736" lon="-1.2416790000000026">
        <ele>596.014</ele>
        <time>2022-08-24T07:25:21Z</time>
      </trkpt>
      <trkpt lat="43.117387999999735" lon="-1.2416660000000026">
        <ele>596.209</ele>
        <time>2022-08-24T07:25:22Z</time>
      </trkpt>
      <trkpt lat="43.11737599999974" lon="-1.2416570000000027">
        <ele>596.227</ele>
        <time>2022-08-24T07:25:23Z</time>
      </trkpt>
      <trkpt lat="43.11736499999974" lon="-1.2416490000000027">
        <ele>596.697</ele>
        <time>2022-08-24T07:25:24Z</time>
      </trkpt>
      <trkpt lat="43.117353999999736" lon="-1.2416470000000026">
        <ele>596.837</ele>
        <time>2022-08-24T07:25:25Z</time>
      </trkpt>
      <trkpt lat="43.117339999999736" lon="-1.2416500000000026">
        <ele>597.293</ele>
        <time>2022-08-24T07:25:26Z</time>
      </trkpt>
      <trkpt lat="43.11732699999973" lon="-1.2416510000000025">
        <ele>597.425</ele>
        <time>2022-08-24T07:25:27Z</time>
      </trkpt>
      <trkpt lat="43.117314999999735" lon="-1.2416510000000025">
        <ele>597.432</ele>
        <time>2022-08-24T07:25:28Z</time>
      </trkpt>
      <trkpt lat="43.11730299999974" lon="-1.2416450000000026">
        <ele>597.845</ele>
        <time>2022-08-24T07:25:29Z</time>
      </trkpt>
      <trkpt lat="43.117291999999736" lon="-1.2416400000000025">
        <ele>597.879</ele>
        <time>2022-08-24T07:25:30Z</time>
      </trkpt>
      <trkpt lat="43.11727999999974" lon="-1.2416390000000026">
        <ele>598.258</ele>
        <time>2022-08-24T07:25:31Z</time>
      </trkpt>
      <trkpt lat="43.117266999999735" lon="-1.2416410000000027">
        <ele>598.484</ele>
        <time>2022-08-24T07:25:32Z</time>
      </trkpt>
      <trkpt lat="43.117255999999735" lon="-1.2416430000000027">
        <ele>598.607</ele>
        <time>2022-08-24T07:25:33Z</time>
      </trkpt>
      <trkpt lat="43.11724299999973" lon="-1.2416430000000027">
        <ele>598.817</ele>
        <time>2022-08-24T07:25:34Z</time>
      </trkpt>
      <trkpt lat="43.11723299999973" lon="-1.2416420000000028">
        <ele>599.009</ele>
        <time>2022-08-24T07:25:35Z</time>
      </trkpt>
      <trkpt lat="43.11722199999973" lon="-1.241638000000003">
        <ele>599.299</ele>
        <time>2022-08-24T07:25:36Z</time>
      </trkpt>
      <trkpt lat="43.11721299999973" lon="-1.241638000000003">
        <ele>599.249</ele>
        <time>2022-08-24T07:25:37Z</time>
      </trkpt>
      <trkpt lat="43.117202999999726" lon="-1.2416390000000028">
        <ele>599.449</ele>
        <time>2022-08-24T07:25:38Z</time>
      </trkpt>
      <trkpt lat="43.117191999999726" lon="-1.2416400000000027">
        <ele>599.635</ele>
        <time>2022-08-24T07:25:39Z</time>
      </trkpt>
      <trkpt lat="43.11718199999972" lon="-1.2416420000000028">
        <ele>599.827</ele>
        <time>2022-08-24T07:25:40Z</time>
      </trkpt>
      <trkpt lat="43.11717199999972" lon="-1.241649000000003">
        <ele>599.864</ele>
        <time>2022-08-24T07:25:41Z</time>
      </trkpt>
      <trkpt lat="43.117161999999716" lon="-1.241654000000003">
        <ele>600.057</ele>
        <time>2022-08-24T07:25:42Z</time>
      </trkpt>
      <trkpt lat="43.11715199999971" lon="-1.241657000000003">
        <ele>600.241</ele>
        <time>2022-08-24T07:25:43Z</time>
      </trkpt>
      <trkpt lat="43.117139999999715" lon="-1.2416600000000029">
        <ele>600.250</ele>
        <time>2022-08-24T07:25:44Z</time>
      </trkpt>
      <trkpt lat="43.117128999999714" lon="-1.2416640000000028">
        <ele>600.446</ele>
        <time>2022-08-24T07:25:45Z</time>
      </trkpt>
      <trkpt lat="43.117117999999714" lon="-1.2416660000000028">
        <ele>600.688</ele>
        <time>2022-08-24T07:25:46Z</time>
      </trkpt>
      <trkpt lat="43.117105999999715" lon="-1.2416690000000028">
        <ele>600.616</ele>
        <time>2022-08-24T07:25:47Z</time>
      </trkpt>
      <trkpt lat="43.117094999999715" lon="-1.2416730000000027">
        <ele>600.809</ele>
        <time>2022-08-24T07:25:48Z</time>
      </trkpt>
      <trkpt lat="43.11708299999972" lon="-1.2416760000000027">
        <ele>600.845</ele>
        <time>2022-08-24T07:25:49Z</time>
      </trkpt>
      <trkpt lat="43.11707099999972" lon="-1.2416810000000027">
        <ele>601.285</ele>
        <time>2022-08-24T07:25:50Z</time>
      </trkpt>
      <trkpt lat="43.11705899999972" lon="-1.2416830000000028">
        <ele>601.245</ele>
        <time>2022-08-24T07:25:51Z</time>
      </trkpt>
      <trkpt lat="43.11704499999972" lon="-1.2416810000000027">
        <ele>601.641</ele>
        <time>2022-08-24T07:25:52Z</time>
      </trkpt>
      <trkpt lat="43.11703399999972" lon="-1.2416820000000026">
        <ele>601.653</ele>
        <time>2022-08-24T07:25:53Z</time>
      </trkpt>
      <trkpt lat="43.11702199999972" lon="-1.2416840000000027">
        <ele>601.860</ele>
        <time>2022-08-24T07:25:54Z</time>
      </trkpt>
      <trkpt lat="43.11700999999972" lon="-1.2416890000000027">
        <ele>601.833</ele>
        <time>2022-08-24T07:25:55Z</time>
      </trkpt>
      <trkpt lat="43.11699899999972" lon="-1.2416950000000027">
        <ele>602.077</ele>
        <time>2022-08-24T07:25:56Z</time>
      </trkpt>
      <trkpt lat="43.11698799999972" lon="-1.2416990000000026">
        <ele>602.066</ele>
        <time>2022-08-24T07:25:57Z</time>
      </trkpt>
      <trkpt lat="43.11697799999972" lon="-1.2417040000000026">
        <ele>602.231</ele>
        <time>2022-08-24T07:25:58Z</time>
      </trkpt>
      <trkpt lat="43.11696699999972" lon="-1.2417080000000025">
        <ele>602.461</ele>
        <time>2022-08-24T07:25:59Z</time>
      </trkpt>
      <trkpt lat="43.11695299999972" lon="-1.2417090000000024">
        <ele>602.407</ele>
        <time>2022-08-24T07:26:00Z</time>
      </trkpt>
      <trkpt lat="43.116939999999715" lon="-1.2417090000000024">
        <ele>602.609</ele>
        <time>2022-08-24T07:26:01Z</time>
      </trkpt>
      <trkpt lat="43.11692999999971" lon="-1.2417120000000024">
        <ele>602.664</ele>
        <time>2022-08-24T07:26:02Z</time>
      </trkpt>
      <trkpt lat="43.11691999999971" lon="-1.2417140000000024">
        <ele>602.684</ele>
        <time>2022-08-24T07:26:03Z</time>
      </trkpt>
      <trkpt lat="43.11691099999971" lon="-1.2417180000000023">
        <ele>602.844</ele>
        <time>2022-08-24T07:26:04Z</time>
      </trkpt>
      <trkpt lat="43.11690099999971" lon="-1.2417230000000024">
        <ele>602.860</ele>
        <time>2022-08-24T07:26:05Z</time>
      </trkpt>
      <trkpt lat="43.11688899999971" lon="-1.2417310000000024">
        <ele>603.012</ele>
        <time>2022-08-24T07:26:06Z</time>
      </trkpt>
      <trkpt lat="43.11688099999971" lon="-1.2417330000000024">
        <ele>603.269</ele>
        <time>2022-08-24T07:26:07Z</time>
      </trkpt>
      <trkpt lat="43.116867999999705" lon="-1.2417350000000025">
        <ele>603.062</ele>
        <time>2022-08-24T07:26:08Z</time>
      </trkpt>
      <trkpt lat="43.1168579999997" lon="-1.2417380000000025">
        <ele>603.256</ele>
        <time>2022-08-24T07:26:09Z</time>
      </trkpt>
      <trkpt lat="43.1168469999997" lon="-1.2417380000000025">
        <ele>603.285</ele>
        <time>2022-08-24T07:26:10Z</time>
      </trkpt>
      <trkpt lat="43.1168329999997" lon="-1.2417370000000025">
        <ele>603.287</ele>
        <time>2022-08-24T07:26:11Z</time>
      </trkpt>
      <trkpt lat="43.116817999999704" lon="-1.2417400000000025">
        <ele>603.442</ele>
        <time>2022-08-24T07:26:12Z</time>
      </trkpt>
      <trkpt lat="43.1168049999997" lon="-1.2417470000000026">
        <ele>603.426</ele>
        <time>2022-08-24T07:26:13Z</time>
      </trkpt>
      <trkpt lat="43.1167929999997" lon="-1.2417510000000025">
        <ele>603.409</ele>
        <time>2022-08-24T07:26:14Z</time>
      </trkpt>
      <trkpt lat="43.1167819999997" lon="-1.2417560000000025">
        <ele>603.879</ele>
        <time>2022-08-24T07:26:15Z</time>
      </trkpt>
      <trkpt lat="43.116769999999704" lon="-1.2417600000000024">
        <ele>604.089</ele>
        <time>2022-08-24T07:26:16Z</time>
      </trkpt>
      <trkpt lat="43.1167589999997" lon="-1.2417620000000025">
        <ele>604.029</ele>
        <time>2022-08-24T07:26:17Z</time>
      </trkpt>
      <trkpt lat="43.11675199999971" lon="-1.2417570000000024">
        <ele>604.255</ele>
        <time>2022-08-24T07:26:18Z</time>
      </trkpt>
      <trkpt lat="43.11673799999971" lon="-1.2417540000000025">
        <ele>604.257</ele>
        <time>2022-08-24T07:26:19Z</time>
      </trkpt>
      <trkpt lat="43.1167279999997" lon="-1.2417550000000024">
        <ele>604.424</ele>
        <time>2022-08-24T07:26:20Z</time>
      </trkpt>
      <trkpt lat="43.1167199999997" lon="-1.2417600000000024">
        <ele>604.447</ele>
        <time>2022-08-24T07:26:21Z</time>
      </trkpt>
      <trkpt lat="43.116707999999704" lon="-1.2417650000000025">
        <ele>604.481</ele>
        <time>2022-08-24T07:26:22Z</time>
      </trkpt>
      <trkpt lat="43.116695999999706" lon="-1.2417660000000024">
        <ele>604.620</ele>
        <time>2022-08-24T07:26:23Z</time>
      </trkpt>
      <trkpt lat="43.116684999999705" lon="-1.2417640000000023">
        <ele>604.682</ele>
        <time>2022-08-24T07:26:24Z</time>
      </trkpt>
      <trkpt lat="43.1166719999997" lon="-1.2417610000000023">
        <ele>604.843</ele>
        <time>2022-08-24T07:26:25Z</time>
      </trkpt>
      <trkpt lat="43.1166619999997" lon="-1.2417620000000023">
        <ele>604.817</ele>
        <time>2022-08-24T07:26:26Z</time>
      </trkpt>
      <trkpt lat="43.1166529999997" lon="-1.2417650000000022">
        <ele>604.809</ele>
        <time>2022-08-24T07:26:27Z</time>
      </trkpt>
      <trkpt lat="43.1166419999997" lon="-1.2417650000000022">
        <ele>605.079</ele>
        <time>2022-08-24T07:26:28Z</time>
      </trkpt>
      <trkpt lat="43.1166289999997" lon="-1.2417620000000023">
        <ele>605.079</ele>
        <time>2022-08-24T07:26:29Z</time>
      </trkpt>
      <trkpt lat="43.1166199999997" lon="-1.2417630000000022">
        <ele>605.289</ele>
        <time>2022-08-24T07:26:30Z</time>
      </trkpt>
      <trkpt lat="43.1166049999997" lon="-1.2417630000000022">
        <ele>605.485</ele>
        <time>2022-08-24T07:26:31Z</time>
      </trkpt>
      <trkpt lat="43.1165949999997" lon="-1.2417630000000022">
        <ele>605.657</ele>
        <time>2022-08-24T07:26:32Z</time>
      </trkpt>
      <trkpt lat="43.1165839999997" lon="-1.2417580000000021">
        <ele>605.684</ele>
        <time>2022-08-24T07:26:33Z</time>
      </trkpt>
      <trkpt lat="43.1165729999997" lon="-1.2417540000000022">
        <ele>605.867</ele>
        <time>2022-08-24T07:26:34Z</time>
      </trkpt>
      <trkpt lat="43.116562999999694" lon="-1.2417540000000022">
        <ele>606.071</ele>
        <time>2022-08-24T07:26:35Z</time>
      </trkpt>
      <trkpt lat="43.11655299999969" lon="-1.2417550000000022">
        <ele>606.080</ele>
        <time>2022-08-24T07:26:36Z</time>
      </trkpt>
      <trkpt lat="43.11654399999969" lon="-1.241756000000002">
        <ele>606.485</ele>
        <time>2022-08-24T07:26:37Z</time>
      </trkpt>
      <trkpt lat="43.11653499999969" lon="-1.241754000000002">
        <ele>606.489</ele>
        <time>2022-08-24T07:26:38Z</time>
      </trkpt>
      <trkpt lat="43.1165279999997" lon="-1.241757000000002">
        <ele>606.617</ele>
        <time>2022-08-24T07:26:39Z</time>
      </trkpt>
      <trkpt lat="43.116519999999696" lon="-1.241759000000002">
        <ele>606.609</ele>
        <time>2022-08-24T07:26:40Z</time>
      </trkpt>
      <trkpt lat="43.116514999999694" lon="-1.241759000000002">
        <ele>606.879</ele>
        <time>2022-08-24T07:26:41Z</time>
      </trkpt>
      <trkpt lat="43.1165079999997" lon="-1.2417580000000021">
        <ele>606.849</ele>
        <time>2022-08-24T07:26:42Z</time>
      </trkpt>
      <trkpt lat="43.1164989999997" lon="-1.241759000000002">
        <ele>607.049</ele>
        <time>2022-08-24T07:26:43Z</time>
      </trkpt>
      <trkpt lat="43.1164899999997" lon="-1.241762000000002">
        <ele>607.425</ele>
        <time>2022-08-24T07:26:44Z</time>
      </trkpt>
      <trkpt lat="43.1164819999997" lon="-1.2417580000000021">
        <ele>607.497</ele>
        <time>2022-08-24T07:26:45Z</time>
      </trkpt>
      <trkpt lat="43.1164729999997" lon="-1.2417500000000021">
        <ele>607.664</ele>
        <time>2022-08-24T07:26:46Z</time>
      </trkpt>
      <trkpt lat="43.1164649999997" lon="-1.2417460000000022">
        <ele>607.667</ele>
        <time>2022-08-24T07:26:47Z</time>
      </trkpt>
      <trkpt lat="43.1164539999997" lon="-1.2417430000000023">
        <ele>607.811</ele>
        <time>2022-08-24T07:26:48Z</time>
      </trkpt>
      <trkpt lat="43.1164429999997" lon="-1.2417420000000023">
        <ele>607.820</ele>
        <time>2022-08-24T07:26:49Z</time>
      </trkpt>
      <trkpt lat="43.1164339999997" lon="-1.2417450000000023">
        <ele>608.028</ele>
        <time>2022-08-24T07:26:50Z</time>
      </trkpt>
      <trkpt lat="43.1164259999997" lon="-1.2417510000000023">
        <ele>608.089</ele>
        <time>2022-08-24T07:26:51Z</time>
      </trkpt>
      <trkpt lat="43.116415999999695" lon="-1.2417550000000022">
        <ele>608.217</ele>
        <time>2022-08-24T07:26:52Z</time>
      </trkpt>
      <trkpt lat="43.11640599999969" lon="-1.2417550000000022">
        <ele>608.409</ele>
        <time>2022-08-24T07:26:53Z</time>
      </trkpt>
      <trkpt lat="43.11639599999969" lon="-1.2417600000000022">
        <ele>608.633</ele>
        <time>2022-08-24T07:26:54Z</time>
      </trkpt>
      <trkpt lat="43.11638799999969" lon="-1.2417610000000021">
        <ele>608.683</ele>
        <time>2022-08-24T07:26:55Z</time>
      </trkpt>
      <trkpt lat="43.11637899999969" lon="-1.2417600000000022">
        <ele>608.633</ele>
        <time>2022-08-24T07:26:56Z</time>
      </trkpt>
      <trkpt lat="43.11636799999969" lon="-1.2417580000000021">
        <ele>608.889</ele>
        <time>2022-08-24T07:26:57Z</time>
      </trkpt>
      <trkpt lat="43.11635599999969" lon="-1.2417540000000022">
        <ele>608.851</ele>
        <time>2022-08-24T07:26:58Z</time>
      </trkpt>
      <trkpt lat="43.116348999999694" lon="-1.2417530000000023">
        <ele>609.028</ele>
        <time>2022-08-24T07:26:59Z</time>
      </trkpt>
      <trkpt lat="43.11633599999969" lon="-1.2417540000000022">
        <ele>609.441</ele>
        <time>2022-08-24T07:27:00Z</time>
      </trkpt>
      <trkpt lat="43.11632499999969" lon="-1.2417560000000023">
        <ele>609.415</ele>
        <time>2022-08-24T07:27:01Z</time>
      </trkpt>
      <trkpt lat="43.11631399999969" lon="-1.2417590000000023">
        <ele>609.624</ele>
        <time>2022-08-24T07:27:02Z</time>
      </trkpt>
      <trkpt lat="43.11630299999969" lon="-1.2417620000000023">
        <ele>609.872</ele>
        <time>2022-08-24T07:27:03Z</time>
      </trkpt>
      <trkpt lat="43.116292999999686" lon="-1.2417640000000023">
        <ele>610.013</ele>
        <time>2022-08-24T07:27:04Z</time>
      </trkpt>
      <trkpt lat="43.11628099999969" lon="-1.2417650000000022">
        <ele>610.014</ele>
        <time>2022-08-24T07:27:05Z</time>
      </trkpt>
      <trkpt lat="43.116270999999685" lon="-1.2417620000000023">
        <ele>610.209</ele>
        <time>2022-08-24T07:27:06Z</time>
      </trkpt>
      <trkpt lat="43.11626099999968" lon="-1.2417580000000024">
        <ele>610.498</ele>
        <time>2022-08-24T07:27:07Z</time>
      </trkpt>
      <trkpt lat="43.11625199999968" lon="-1.2417570000000024">
        <ele>610.648</ele>
        <time>2022-08-24T07:27:08Z</time>
      </trkpt>
      <trkpt lat="43.11624199999968" lon="-1.2417560000000025">
        <ele>610.868</ele>
        <time>2022-08-24T07:27:09Z</time>
      </trkpt>
      <trkpt lat="43.11623299999968" lon="-1.2417550000000026">
        <ele>610.824</ele>
        <time>2022-08-24T07:27:10Z</time>
      </trkpt>
      <trkpt lat="43.11622299999968" lon="-1.2417550000000026">
        <ele>611.046</ele>
        <time>2022-08-24T07:27:11Z</time>
      </trkpt>
      <trkpt lat="43.11621199999968" lon="-1.2417560000000025">
        <ele>611.073</ele>
        <time>2022-08-24T07:27:12Z</time>
      </trkpt>
      <trkpt lat="43.11620099999968" lon="-1.2417540000000025">
        <ele>611.226</ele>
        <time>2022-08-24T07:27:13Z</time>
      </trkpt>
      <trkpt lat="43.116190999999674" lon="-1.2417520000000024">
        <ele>611.440</ele>
        <time>2022-08-24T07:27:14Z</time>
      </trkpt>
      <trkpt lat="43.11617999999967" lon="-1.2417510000000025">
        <ele>611.449</ele>
        <time>2022-08-24T07:27:15Z</time>
      </trkpt>
      <trkpt lat="43.116167999999675" lon="-1.2417530000000025">
        <ele>611.642</ele>
        <time>2022-08-24T07:27:16Z</time>
      </trkpt>
      <trkpt lat="43.11615599999968" lon="-1.2417560000000025">
        <ele>611.822</ele>
        <time>2022-08-24T07:27:17Z</time>
      </trkpt>
      <trkpt lat="43.116144999999676" lon="-1.2417610000000026">
        <ele>611.814</ele>
        <time>2022-08-24T07:27:18Z</time>
      </trkpt>
      <trkpt lat="43.11613199999967" lon="-1.2417620000000025">
        <ele>612.009</ele>
        <time>2022-08-24T07:27:19Z</time>
      </trkpt>
      <trkpt lat="43.11612099999967" lon="-1.2417560000000025">
        <ele>612.265</ele>
        <time>2022-08-24T07:27:20Z</time>
      </trkpt>
      <trkpt lat="43.11610799999967" lon="-1.2417510000000025">
        <ele>612.455</ele>
        <time>2022-08-24T07:27:21Z</time>
      </trkpt>
      <trkpt lat="43.11609799999967" lon="-1.2417530000000025">
        <ele>612.615</ele>
        <time>2022-08-24T07:27:22Z</time>
      </trkpt>
      <trkpt lat="43.116087999999664" lon="-1.2417550000000026">
        <ele>612.861</ele>
        <time>2022-08-24T07:27:23Z</time>
      </trkpt>
      <trkpt lat="43.11607799999966" lon="-1.2417570000000027">
        <ele>612.823</ele>
        <time>2022-08-24T07:27:24Z</time>
      </trkpt>
      <trkpt lat="43.11606799999966" lon="-1.2417540000000027">
        <ele>613.080</ele>
        <time>2022-08-24T07:27:25Z</time>
      </trkpt>
      <trkpt lat="43.11605899999966" lon="-1.2417490000000027">
        <ele>613.043</ele>
        <time>2022-08-24T07:27:26Z</time>
      </trkpt>
      <trkpt lat="43.11604999999966" lon="-1.2417470000000026">
        <ele>613.247</ele>
        <time>2022-08-24T07:27:27Z</time>
      </trkpt>
      <trkpt lat="43.11604099999966" lon="-1.2417460000000027">
        <ele>613.286</ele>
        <time>2022-08-24T07:27:28Z</time>
      </trkpt>
      <trkpt lat="43.11603199999966" lon="-1.2417440000000026">
        <ele>613.484</ele>
        <time>2022-08-24T07:27:29Z</time>
      </trkpt>
      <trkpt lat="43.116022999999664" lon="-1.2417450000000025">
        <ele>613.607</ele>
        <time>2022-08-24T07:27:30Z</time>
      </trkpt>
      <trkpt lat="43.116013999999666" lon="-1.2417470000000026">
        <ele>613.817</ele>
        <time>2022-08-24T07:27:31Z</time>
      </trkpt>
      <trkpt lat="43.11600399999966" lon="-1.2417490000000027">
        <ele>614.009</ele>
        <time>2022-08-24T07:27:32Z</time>
      </trkpt>
      <trkpt lat="43.11600399999966" lon="-1.2417490000000027">
        <ele>614.029</ele>
        <time>2022-08-24T07:27:33Z</time>
      </trkpt>
      <trkpt lat="43.115985999999666" lon="-1.2417500000000026">
        <ele>614.279</ele>
        <time>2022-08-24T07:27:34Z</time>
      </trkpt>
      <trkpt lat="43.11597299999966" lon="-1.2417520000000026">
        <ele>614.229</ele>
        <time>2022-08-24T07:27:35Z</time>
      </trkpt>
      <trkpt lat="43.115965999999666" lon="-1.2417530000000025">
        <ele>614.435</ele>
        <time>2022-08-24T07:27:36Z</time>
      </trkpt>
      <trkpt lat="43.11595099999967" lon="-1.2417480000000025">
        <ele>614.627</ele>
        <time>2022-08-24T07:27:37Z</time>
      </trkpt>
      <trkpt lat="43.11593999999967" lon="-1.2417420000000026">
        <ele>614.614</ele>
        <time>2022-08-24T07:27:38Z</time>
      </trkpt>
      <trkpt lat="43.11593099999967" lon="-1.2417410000000026">
        <ele>614.827</ele>
        <time>2022-08-24T07:27:39Z</time>
      </trkpt>
      <trkpt lat="43.11591999999967" lon="-1.2417430000000027">
        <ele>614.871</ele>
        <time>2022-08-24T07:27:40Z</time>
      </trkpt>
      <trkpt lat="43.11591199999967" lon="-1.2417430000000027">
        <ele>615.040</ele>
        <time>2022-08-24T07:27:41Z</time>
      </trkpt>
      <trkpt lat="43.115898999999665" lon="-1.2417400000000027">
        <ele>615.226</ele>
        <time>2022-08-24T07:27:42Z</time>
      </trkpt>
      <trkpt lat="43.11588899999966" lon="-1.2417390000000028">
        <ele>615.247</ele>
        <time>2022-08-24T07:27:43Z</time>
      </trkpt>
      <trkpt lat="43.11587799999966" lon="-1.2417400000000027">
        <ele>615.411</ele>
        <time>2022-08-24T07:27:44Z</time>
      </trkpt>
      <trkpt lat="43.11586699999966" lon="-1.2417400000000027">
        <ele>615.409</ele>
        <time>2022-08-24T07:27:45Z</time>
      </trkpt>
      <trkpt lat="43.11585699999966" lon="-1.2417410000000026">
        <ele>615.683</ele>
        <time>2022-08-24T07:27:46Z</time>
      </trkpt>
      <trkpt lat="43.11584599999966" lon="-1.2417430000000027">
        <ele>615.663</ele>
        <time>2022-08-24T07:27:47Z</time>
      </trkpt>
      <trkpt lat="43.11583599999965" lon="-1.2417480000000027">
        <ele>616.063</ele>
        <time>2022-08-24T07:27:48Z</time>
      </trkpt>
      <trkpt lat="43.11582599999965" lon="-1.2417520000000026">
        <ele>616.049</ele>
        <time>2022-08-24T07:27:49Z</time>
      </trkpt>
      <trkpt lat="43.11581599999965" lon="-1.2417540000000027">
        <ele>616.251</ele>
        <time>2022-08-24T07:27:50Z</time>
      </trkpt>
      <trkpt lat="43.115804999999646" lon="-1.2417530000000028">
        <ele>616.428</ele>
        <time>2022-08-24T07:27:51Z</time>
      </trkpt>
      <trkpt lat="43.11579599999965" lon="-1.2417510000000027">
        <ele>616.411</ele>
        <time>2022-08-24T07:27:52Z</time>
      </trkpt>
      <trkpt lat="43.11578699999965" lon="-1.2417470000000028">
        <ele>616.685</ele>
        <time>2022-08-24T07:27:53Z</time>
      </trkpt>
      <trkpt lat="43.11577599999965" lon="-1.2417450000000028">
        <ele>616.894</ele>
        <time>2022-08-24T07:27:54Z</time>
      </trkpt>
      <trkpt lat="43.11576399999965" lon="-1.2417450000000028">
        <ele>616.823</ele>
        <time>2022-08-24T07:27:55Z</time>
      </trkpt>
      <trkpt lat="43.11575299999965" lon="-1.2417460000000027">
        <ele>617.083</ele>
        <time>2022-08-24T07:27:56Z</time>
      </trkpt>
      <trkpt lat="43.11574199999965" lon="-1.2417490000000027">
        <ele>617.211</ele>
        <time>2022-08-24T07:27:57Z</time>
      </trkpt>
      <trkpt lat="43.11572999999965" lon="-1.2417510000000027">
        <ele>617.409</ele>
        <time>2022-08-24T07:27:58Z</time>
      </trkpt>
      <trkpt lat="43.11571999999965" lon="-1.2417500000000028">
        <ele>617.493</ele>
        <time>2022-08-24T07:27:59Z</time>
      </trkpt>
      <trkpt lat="43.115709999999645" lon="-1.2417480000000027">
        <ele>617.633</ele>
        <time>2022-08-24T07:28:00Z</time>
      </trkpt>
      <trkpt lat="43.115700999999646" lon="-1.2417490000000027">
        <ele>617.883</ele>
        <time>2022-08-24T07:28:01Z</time>
      </trkpt>
      <trkpt lat="43.11569399999965" lon="-1.2417500000000026">
        <ele>617.869</ele>
        <time>2022-08-24T07:28:02Z</time>
      </trkpt>
      <trkpt lat="43.11568299999965" lon="-1.2417480000000025">
        <ele>618.091</ele>
        <time>2022-08-24T07:28:03Z</time>
      </trkpt>
      <trkpt lat="43.115672999999646" lon="-1.2417450000000025">
        <ele>618.238</ele>
        <time>2022-08-24T07:28:04Z</time>
      </trkpt>
      <trkpt lat="43.11566299999964" lon="-1.2417450000000025">
        <ele>618.251</ele>
        <time>2022-08-24T07:28:05Z</time>
      </trkpt>
      <trkpt lat="43.115653999999644" lon="-1.2417450000000025">
        <ele>618.475</ele>
        <time>2022-08-24T07:28:06Z</time>
      </trkpt>
      <trkpt lat="43.115644999999645" lon="-1.2417450000000025">
        <ele>618.634</ele>
        <time>2022-08-24T07:28:07Z</time>
      </trkpt>
      <trkpt lat="43.115636999999644" lon="-1.2417500000000026">
        <ele>618.683</ele>
        <time>2022-08-24T07:28:08Z</time>
      </trkpt>
      <trkpt lat="43.115627999999646" lon="-1.2417510000000025">
        <ele>618.825</ele>
        <time>2022-08-24T07:28:09Z</time>
      </trkpt>
      <trkpt lat="43.115613999999646" lon="-1.2417500000000026">
        <ele>618.817</ele>
        <time>2022-08-24T07:28:10Z</time>
      </trkpt>
      <trkpt lat="43.115602999999645" lon="-1.2417490000000027">
        <ele>618.809</ele>
        <time>2022-08-24T07:28:11Z</time>
      </trkpt>
      <trkpt lat="43.115593999999646" lon="-1.2417520000000026">
        <ele>619.079</ele>
        <time>2022-08-24T07:28:12Z</time>
      </trkpt>
      <trkpt lat="43.115579999999646" lon="-1.2417510000000027">
        <ele>619.059</ele>
        <time>2022-08-24T07:28:13Z</time>
      </trkpt>
      <trkpt lat="43.11556999999964" lon="-1.2417490000000027">
        <ele>619.469</ele>
        <time>2022-08-24T07:28:14Z</time>
      </trkpt>
      <trkpt lat="43.115557999999645" lon="-1.2417480000000027">
        <ele>619.415</ele>
        <time>2022-08-24T07:28:15Z</time>
      </trkpt>
      <trkpt lat="43.115546999999644" lon="-1.2417470000000028">
        <ele>619.667</ele>
        <time>2022-08-24T07:28:16Z</time>
      </trkpt>
      <trkpt lat="43.11553599999964" lon="-1.2417470000000028">
        <ele>619.814</ele>
        <time>2022-08-24T07:28:17Z</time>
      </trkpt>
      <trkpt lat="43.115526999999645" lon="-1.2417470000000028">
        <ele>619.877</ele>
        <time>2022-08-24T07:28:18Z</time>
      </trkpt>
      <trkpt lat="43.11551699999964" lon="-1.2417470000000028">
        <ele>620.071</ele>
        <time>2022-08-24T07:28:19Z</time>
      </trkpt>
      <trkpt lat="43.11550699999964" lon="-1.241746000000003">
        <ele>620.260</ele>
        <time>2022-08-24T07:28:20Z</time>
      </trkpt>
      <trkpt lat="43.11549799999964" lon="-1.2417440000000028">
        <ele>620.074</ele>
        <time>2022-08-24T07:28:21Z</time>
      </trkpt>
      <trkpt lat="43.11548899999964" lon="-1.241740000000003">
        <ele>620.056</ele>
        <time>2022-08-24T07:28:22Z</time>
      </trkpt>
      <trkpt lat="43.11547899999964" lon="-1.241738000000003">
        <ele>620.221</ele>
        <time>2022-08-24T07:28:23Z</time>
      </trkpt>
      <trkpt lat="43.11546799999964" lon="-1.2417410000000029">
        <ele>620.209</ele>
        <time>2022-08-24T07:28:24Z</time>
      </trkpt>
      <trkpt lat="43.11545699999964" lon="-1.2417420000000028">
        <ele>620.478</ele>
        <time>2022-08-24T07:28:25Z</time>
      </trkpt>
      <trkpt lat="43.115448999999636" lon="-1.2417430000000027">
        <ele>620.648</ele>
        <time>2022-08-24T07:28:26Z</time>
      </trkpt>
      <trkpt lat="43.11543999999964" lon="-1.2417420000000028">
        <ele>620.638</ele>
        <time>2022-08-24T07:28:27Z</time>
      </trkpt>
      <trkpt lat="43.11543099999964" lon="-1.2417400000000027">
        <ele>620.834</ele>
        <time>2022-08-24T07:28:28Z</time>
      </trkpt>
      <trkpt lat="43.11541999999964" lon="-1.2417370000000028">
        <ele>620.836</ele>
        <time>2022-08-24T07:28:29Z</time>
      </trkpt>
      <trkpt lat="43.11540899999964" lon="-1.2417360000000028">
        <ele>621.043</ele>
        <time>2022-08-24T07:28:30Z</time>
      </trkpt>
      <trkpt lat="43.115398999999634" lon="-1.2417370000000028">
        <ele>621.236</ele>
        <time>2022-08-24T07:28:31Z</time>
      </trkpt>
      <trkpt lat="43.115389999999636" lon="-1.2417380000000027">
        <ele>621.220</ele>
        <time>2022-08-24T07:28:32Z</time>
      </trkpt>
      <trkpt lat="43.11537999999963" lon="-1.2417390000000026">
        <ele>621.439</ele>
        <time>2022-08-24T07:28:33Z</time>
      </trkpt>
      <trkpt lat="43.11536899999963" lon="-1.2417410000000026">
        <ele>621.476</ele>
        <time>2022-08-24T07:28:34Z</time>
      </trkpt>
      <trkpt lat="43.115356999999634" lon="-1.2417420000000026">
        <ele>621.690</ele>
        <time>2022-08-24T07:28:35Z</time>
      </trkpt>
      <trkpt lat="43.11534399999963" lon="-1.2417410000000026">
        <ele>621.819</ele>
        <time>2022-08-24T07:28:36Z</time>
      </trkpt>
      <trkpt lat="43.11533199999963" lon="-1.2417410000000026">
        <ele>622.009</ele>
        <time>2022-08-24T07:28:37Z</time>
      </trkpt>
      <trkpt lat="43.115322999999634" lon="-1.2417440000000026">
        <ele>622.048</ele>
        <time>2022-08-24T07:28:38Z</time>
      </trkpt>
      <trkpt lat="43.11531299999963" lon="-1.2417440000000026">
        <ele>622.238</ele>
        <time>2022-08-24T07:28:39Z</time>
      </trkpt>
      <trkpt lat="43.11530199999963" lon="-1.2417450000000025">
        <ele>622.288</ele>
        <time>2022-08-24T07:28:40Z</time>
      </trkpt>
      <trkpt lat="43.11528899999963" lon="-1.2417470000000026">
        <ele>622.294</ele>
        <time>2022-08-24T07:28:41Z</time>
      </trkpt>
      <trkpt lat="43.115275999999625" lon="-1.2417510000000025">
        <ele>622.446</ele>
        <time>2022-08-24T07:28:42Z</time>
      </trkpt>
      <trkpt lat="43.11526599999962" lon="-1.2417550000000024">
        <ele>622.453</ele>
        <time>2022-08-24T07:28:43Z</time>
      </trkpt>
      <trkpt lat="43.11525599999962" lon="-1.2417560000000023">
        <ele>622.686</ele>
        <time>2022-08-24T07:28:44Z</time>
      </trkpt>
      <trkpt lat="43.11524099999962" lon="-1.2417540000000022">
        <ele>622.840</ele>
        <time>2022-08-24T07:28:45Z</time>
      </trkpt>
      <trkpt lat="43.11522799999962" lon="-1.2417530000000023">
        <ele>623.069</ele>
        <time>2022-08-24T07:28:46Z</time>
      </trkpt>
      <trkpt lat="43.11521599999962" lon="-1.2417520000000024">
        <ele>623.255</ele>
        <time>2022-08-24T07:28:47Z</time>
      </trkpt>
      <trkpt lat="43.11520599999962" lon="-1.2417510000000025">
        <ele>623.207</ele>
        <time>2022-08-24T07:28:48Z</time>
      </trkpt>
      <trkpt lat="43.115192999999614" lon="-1.2417490000000024">
        <ele>623.417</ele>
        <time>2022-08-24T07:28:49Z</time>
      </trkpt>
      <trkpt lat="43.115180999999616" lon="-1.2417440000000024">
        <ele>623.409</ele>
        <time>2022-08-24T07:28:50Z</time>
      </trkpt>
      <trkpt lat="43.115169999999615" lon="-1.2417410000000024">
        <ele>623.696</ele>
        <time>2022-08-24T07:28:51Z</time>
      </trkpt>
      <trkpt lat="43.115158999999615" lon="-1.2417410000000024">
        <ele>623.656</ele>
        <time>2022-08-24T07:28:52Z</time>
      </trkpt>
      <trkpt lat="43.115147999999614" lon="-1.2417420000000023">
        <ele>623.896</ele>
        <time>2022-08-24T07:28:53Z</time>
      </trkpt>
      <trkpt lat="43.11513699999961" lon="-1.2417410000000024">
        <ele>624.082</ele>
        <time>2022-08-24T07:28:54Z</time>
      </trkpt>
      <trkpt lat="43.11512699999961" lon="-1.2417440000000024">
        <ele>624.064</ele>
        <time>2022-08-24T07:28:55Z</time>
      </trkpt>
      <trkpt lat="43.11511599999961" lon="-1.2417490000000024">
        <ele>624.241</ele>
        <time>2022-08-24T07:28:56Z</time>
      </trkpt>
      <trkpt lat="43.11510299999961" lon="-1.2417550000000024">
        <ele>624.264</ele>
        <time>2022-08-24T07:28:57Z</time>
      </trkpt>
      <trkpt lat="43.11509099999961" lon="-1.2417590000000023">
        <ele>624.458</ele>
        <time>2022-08-24T07:28:58Z</time>
      </trkpt>
      <trkpt lat="43.11507699999961" lon="-1.2417630000000022">
        <ele>624.687</ele>
        <time>2022-08-24T07:28:59Z</time>
      </trkpt>
      <trkpt lat="43.11506199999961" lon="-1.241767000000002">
        <ele>624.678</ele>
        <time>2022-08-24T07:29:00Z</time>
      </trkpt>
      <trkpt lat="43.11504899999961" lon="-1.241768000000002">
        <ele>624.833</ele>
        <time>2022-08-24T07:29:01Z</time>
      </trkpt>
      <trkpt lat="43.115035999999606" lon="-1.241768000000002">
        <ele>625.026</ele>
        <time>2022-08-24T07:29:02Z</time>
      </trkpt>
      <trkpt lat="43.11502399999961" lon="-1.241769000000002">
        <ele>625.409</ele>
        <time>2022-08-24T07:29:03Z</time>
      </trkpt>
      <trkpt lat="43.11501199999961" lon="-1.241771000000002">
        <ele>625.238</ele>
        <time>2022-08-24T07:29:04Z</time>
      </trkpt>
      <trkpt lat="43.11499999999961" lon="-1.241774000000002">
        <ele>625.438</ele>
        <time>2022-08-24T07:29:05Z</time>
      </trkpt>
      <trkpt lat="43.11498799999961" lon="-1.241777000000002">
        <ele>625.428</ele>
        <time>2022-08-24T07:29:06Z</time>
      </trkpt>
      <trkpt lat="43.114975999999615" lon="-1.2417810000000018">
        <ele>625.674</ele>
        <time>2022-08-24T07:29:07Z</time>
      </trkpt>
      <trkpt lat="43.114964999999614" lon="-1.2417840000000018">
        <ele>625.846</ele>
        <time>2022-08-24T07:29:08Z</time>
      </trkpt>
      <trkpt lat="43.11495499999961" lon="-1.2417850000000017">
        <ele>626.023</ele>
        <time>2022-08-24T07:29:09Z</time>
      </trkpt>
      <trkpt lat="43.11494599999961" lon="-1.2417820000000017">
        <ele>626.416</ele>
        <time>2022-08-24T07:29:10Z</time>
      </trkpt>
      <trkpt lat="43.11493499999961" lon="-1.2417760000000018">
        <ele>626.460</ele>
        <time>2022-08-24T07:29:11Z</time>
      </trkpt>
      <trkpt lat="43.114919999999614" lon="-1.2417730000000018">
        <ele>626.639</ele>
        <time>2022-08-24T07:29:12Z</time>
      </trkpt>
      <trkpt lat="43.114905999999614" lon="-1.2417740000000017">
        <ele>626.618</ele>
        <time>2022-08-24T07:29:13Z</time>
      </trkpt>
      <trkpt lat="43.114893999999616" lon="-1.2417780000000016">
        <ele>626.898</ele>
        <time>2022-08-24T07:29:14Z</time>
      </trkpt>
      <trkpt lat="43.11488099999961" lon="-1.2417820000000015">
        <ele>627.217</ele>
        <time>2022-08-24T07:29:15Z</time>
      </trkpt>
      <trkpt lat="43.11486999999961" lon="-1.2417830000000014">
        <ele>627.409</ele>
        <time>2022-08-24T07:29:16Z</time>
      </trkpt>
      <trkpt lat="43.11485999999961" lon="-1.2417820000000015">
        <ele>627.672</ele>
        <time>2022-08-24T07:29:17Z</time>
      </trkpt>
      <trkpt lat="43.114849999999606" lon="-1.2417820000000015">
        <ele>627.882</ele>
        <time>2022-08-24T07:29:18Z</time>
      </trkpt>
      <trkpt lat="43.114835999999606" lon="-1.2417800000000014">
        <ele>628.052</ele>
        <time>2022-08-24T07:29:19Z</time>
      </trkpt>
      <trkpt lat="43.114819999999604" lon="-1.2417780000000014">
        <ele>628.098</ele>
        <time>2022-08-24T07:29:20Z</time>
      </trkpt>
      <trkpt lat="43.1148089999996" lon="-1.2417810000000014">
        <ele>628.240</ele>
        <time>2022-08-24T07:29:21Z</time>
      </trkpt>
      <trkpt lat="43.114796999999605" lon="-1.2417850000000012">
        <ele>628.447</ele>
        <time>2022-08-24T07:29:22Z</time>
      </trkpt>
      <trkpt lat="43.1147869999996" lon="-1.2417880000000012">
        <ele>628.660</ele>
        <time>2022-08-24T07:29:23Z</time>
      </trkpt>
      <trkpt lat="43.1147739999996" lon="-1.2417910000000012">
        <ele>628.894</ele>
        <time>2022-08-24T07:29:24Z</time>
      </trkpt>
      <trkpt lat="43.114760999999596" lon="-1.2417910000000012">
        <ele>628.823</ele>
        <time>2022-08-24T07:29:25Z</time>
      </trkpt>
      <trkpt lat="43.114749999999596" lon="-1.2417900000000013">
        <ele>629.082</ele>
        <time>2022-08-24T07:29:26Z</time>
      </trkpt>
      <trkpt lat="43.1147379999996" lon="-1.2417920000000013">
        <ele>629.043</ele>
        <time>2022-08-24T07:29:27Z</time>
      </trkpt>
      <trkpt lat="43.1147269999996" lon="-1.2417950000000013">
        <ele>629.217</ele>
        <time>2022-08-24T07:29:28Z</time>
      </trkpt>
      <trkpt lat="43.114713999999594" lon="-1.2417990000000012">
        <ele>629.409</ele>
        <time>2022-08-24T07:29:29Z</time>
      </trkpt>
      <trkpt lat="43.114702999999594" lon="-1.2418020000000012">
        <ele>629.429</ele>
        <time>2022-08-24T07:29:30Z</time>
      </trkpt>
      <trkpt lat="43.11469199999959" lon="-1.2418020000000012">
        <ele>629.699</ele>
        <time>2022-08-24T07:29:31Z</time>
      </trkpt>
      <trkpt lat="43.11468399999959" lon="-1.2417990000000012">
        <ele>629.819</ele>
        <time>2022-08-24T07:29:32Z</time>
      </trkpt>
      <trkpt lat="43.11467499999959" lon="-1.2417990000000012">
        <ele>630.035</ele>
        <time>2022-08-24T07:29:33Z</time>
      </trkpt>
      <trkpt lat="43.11466199999959" lon="-1.2418040000000012">
        <ele>630.277</ele>
        <time>2022-08-24T07:29:34Z</time>
      </trkpt>
      <trkpt lat="43.11464399999959" lon="-1.2418120000000012">
        <ele>630.424</ele>
        <time>2022-08-24T07:29:35Z</time>
      </trkpt>
      <trkpt lat="43.114628999999596" lon="-1.2418180000000012">
        <ele>630.657</ele>
        <time>2022-08-24T07:29:36Z</time>
      </trkpt>
      <trkpt lat="43.1146139999996" lon="-1.241822000000001">
        <ele>630.631</ele>
        <time>2022-08-24T07:29:37Z</time>
      </trkpt>
      <trkpt lat="43.1145999999996" lon="-1.241830000000001">
        <ele>630.880</ele>
        <time>2022-08-24T07:29:38Z</time>
      </trkpt>
      <trkpt lat="43.114586999999595" lon="-1.241836000000001">
        <ele>631.065</ele>
        <time>2022-08-24T07:29:39Z</time>
      </trkpt>
      <trkpt lat="43.11457699999959" lon="-1.241841000000001">
        <ele>631.468</ele>
        <time>2022-08-24T07:29:40Z</time>
      </trkpt>
      <trkpt lat="43.114561999999594" lon="-1.241841000000001">
        <ele>631.414</ele>
        <time>2022-08-24T07:29:41Z</time>
      </trkpt>
      <trkpt lat="43.114544999999595" lon="-1.2418400000000012">
        <ele>631.809</ele>
        <time>2022-08-24T07:29:42Z</time>
      </trkpt>
      <trkpt lat="43.1145299999996" lon="-1.2418390000000012">
        <ele>632.247</ele>
        <time>2022-08-24T07:29:43Z</time>
      </trkpt>
      <trkpt lat="43.1145149999996" lon="-1.2418390000000012">
        <ele>632.237</ele>
        <time>2022-08-24T07:29:44Z</time>
      </trkpt>
      <trkpt lat="43.1145029999996" lon="-1.2418420000000012">
        <ele>632.427</ele>
        <time>2022-08-24T07:29:45Z</time>
      </trkpt>
      <trkpt lat="43.1144919999996" lon="-1.2418470000000013">
        <ele>632.443</ele>
        <time>2022-08-24T07:29:46Z</time>
      </trkpt>
      <trkpt lat="43.1144789999996" lon="-1.2418520000000013">
        <ele>632.875</ele>
        <time>2022-08-24T07:29:47Z</time>
      </trkpt>
      <trkpt lat="43.114465999999595" lon="-1.2418540000000013">
        <ele>632.832</ele>
        <time>2022-08-24T07:29:48Z</time>
      </trkpt>
      <trkpt lat="43.114457999999594" lon="-1.2418560000000014">
        <ele>633.025</ele>
        <time>2022-08-24T07:29:49Z</time>
      </trkpt>
      <trkpt lat="43.114448999999595" lon="-1.2418570000000013">
        <ele>633.059</ele>
        <time>2022-08-24T07:29:50Z</time>
      </trkpt>
      <trkpt lat="43.1144399999996" lon="-1.2418580000000012">
        <ele>633.678</ele>
        <time>2022-08-24T07:29:51Z</time>
      </trkpt>
      <trkpt lat="43.1144279999996" lon="-1.2418570000000013">
        <ele>633.833</ele>
        <time>2022-08-24T07:29:52Z</time>
      </trkpt>
      <trkpt lat="43.1144159999996" lon="-1.2418540000000013">
        <ele>633.823</ele>
        <time>2022-08-24T07:29:53Z</time>
      </trkpt>
      <trkpt lat="43.1144039999996" lon="-1.2418460000000013">
        <ele>634.015</ele>
        <time>2022-08-24T07:29:54Z</time>
      </trkpt>
      <trkpt lat="43.1143939999996" lon="-1.2418400000000014">
        <ele>634.209</ele>
        <time>2022-08-24T07:29:55Z</time>
      </trkpt>
      <trkpt lat="43.114383999999596" lon="-1.2418360000000015">
        <ele>634.654</ele>
        <time>2022-08-24T07:29:56Z</time>
      </trkpt>
      <trkpt lat="43.11437399999959" lon="-1.2418320000000016">
        <ele>634.844</ele>
        <time>2022-08-24T07:29:57Z</time>
      </trkpt>
      <trkpt lat="43.11436599999959" lon="-1.2418330000000015">
        <ele>634.884</ele>
        <time>2022-08-24T07:29:58Z</time>
      </trkpt>
      <trkpt lat="43.114353999999594" lon="-1.2418310000000015">
        <ele>635.030</ele>
        <time>2022-08-24T07:29:59Z</time>
      </trkpt>
      <trkpt lat="43.1143469999996" lon="-1.2418280000000015">
        <ele>635.262</ele>
        <time>2022-08-24T07:30:00Z</time>
      </trkpt>
      <trkpt lat="43.114338999999596" lon="-1.2418210000000014">
        <ele>635.449</ele>
        <time>2022-08-24T07:30:01Z</time>
      </trkpt>
      <trkpt lat="43.1143299999996" lon="-1.2418170000000015">
        <ele>635.462</ele>
        <time>2022-08-24T07:30:02Z</time>
      </trkpt>
      <trkpt lat="43.1143209999996" lon="-1.2418170000000015">
        <ele>635.666</ele>
        <time>2022-08-24T07:30:03Z</time>
      </trkpt>
      <trkpt lat="43.1143149999996" lon="-1.2418110000000016">
        <ele>635.655</ele>
        <time>2022-08-24T07:30:04Z</time>
      </trkpt>
      <trkpt lat="43.1143049999996" lon="-1.2418090000000015">
        <ele>635.856</ele>
        <time>2022-08-24T07:30:05Z</time>
      </trkpt>
      <trkpt lat="43.114293999999596" lon="-1.2418070000000014">
        <ele>635.859</ele>
        <time>2022-08-24T07:30:06Z</time>
      </trkpt>
      <trkpt lat="43.1142849999996" lon="-1.2418070000000014">
        <ele>635.814</ele>
        <time>2022-08-24T07:30:07Z</time>
      </trkpt>
      <trkpt lat="43.1142739999996" lon="-1.2418120000000015">
        <ele>636.009</ele>
        <time>2022-08-24T07:30:08Z</time>
      </trkpt>
      <trkpt lat="43.114263999999594" lon="-1.2418170000000015">
        <ele>636.086</ele>
        <time>2022-08-24T07:30:09Z</time>
      </trkpt>
      <trkpt lat="43.11425899999959" lon="-1.2418190000000016">
        <ele>636.036</ele>
        <time>2022-08-24T07:30:10Z</time>
      </trkpt>
      <trkpt lat="43.11425299999959" lon="-1.2418160000000016">
        <ele>636.836</ele>
        <time>2022-08-24T07:31:22Z</time>
      </trkpt>
      <trkpt lat="43.11425299999959" lon="-1.2418160000000016">
        <ele>636.862</ele>
        <time>2022-08-24T07:31:26Z</time>
      </trkpt>
      <trkpt lat="43.114254999999595" lon="-1.2418130000000016">
        <ele>636.824</ele>
        <time>2022-08-24T07:31:27Z</time>
      </trkpt>
      <trkpt lat="43.11428699999959" lon="-1.2417760000000015">
        <ele>636.611</ele>
        <time>2022-08-24T07:31:45Z</time>
      </trkpt>
      <trkpt lat="43.11432099999959" lon="-1.2417490000000015">
        <ele>636.684</ele>
        <time>2022-08-24T07:31:47Z</time>
      </trkpt>
      <trkpt lat="43.114412999999594" lon="-1.2416810000000016">
        <ele>636.678</ele>
        <time>2022-08-24T07:31:53Z</time>
      </trkpt>
      <trkpt lat="43.11442799999959" lon="-1.2416680000000015">
        <ele>636.817</ele>
        <time>2022-08-24T07:31:54Z</time>
      </trkpt>
      <trkpt lat="43.11446199999959" lon="-1.2416600000000015">
        <ele>636.875</ele>
        <time>2022-08-24T07:31:56Z</time>
      </trkpt>
      <trkpt lat="43.11452199999959" lon="-1.2416340000000015">
        <ele>637.628</ele>
        <time>2022-08-24T07:32:00Z</time>
      </trkpt>
      <trkpt lat="43.11453599999959" lon="-1.2416300000000016">
        <ele>637.820</ele>
        <time>2022-08-24T07:32:01Z</time>
      </trkpt>
      <trkpt lat="43.11454999999959" lon="-1.2416270000000016">
        <ele>638.009</ele>
        <time>2022-08-24T07:32:02Z</time>
      </trkpt>
      <trkpt lat="43.11459299999959" lon="-1.2416060000000015">
        <ele>638.628</ele>
        <time>2022-08-24T07:32:05Z</time>
      </trkpt>
      <trkpt lat="43.11460599999959" lon="-1.2415970000000016">
        <ele>639.058</ele>
        <time>2022-08-24T07:32:06Z</time>
      </trkpt>
      <trkpt lat="43.11461999999959" lon="-1.2415900000000015">
        <ele>639.278</ele>
        <time>2022-08-24T07:32:07Z</time>
      </trkpt>
      <trkpt lat="43.11463499999959" lon="-1.2415830000000014">
        <ele>639.274</ele>
        <time>2022-08-24T07:32:08Z</time>
      </trkpt>
      <trkpt lat="43.11470399999959" lon="-1.2415590000000014">
        <ele>639.896</ele>
        <time>2022-08-24T07:32:12Z</time>
      </trkpt>
      <trkpt lat="43.11472199999959" lon="-1.2415500000000015">
        <ele>640.233</ele>
        <time>2022-08-24T07:32:13Z</time>
      </trkpt>
      <trkpt lat="43.11473799999959" lon="-1.2415360000000015">
        <ele>640.466</ele>
        <time>2022-08-24T07:32:14Z</time>
      </trkpt>
      <trkpt lat="43.11475399999959" lon="-1.2415220000000016">
        <ele>640.680</ele>
        <time>2022-08-24T07:32:15Z</time>
      </trkpt>
      <trkpt lat="43.11477199999959" lon="-1.2415120000000015">
        <ele>640.649</ele>
        <time>2022-08-24T07:32:16Z</time>
      </trkpt>
      <trkpt lat="43.11478999999959" lon="-1.2414990000000015">
        <ele>640.823</ele>
        <time>2022-08-24T07:32:17Z</time>
      </trkpt>
      <trkpt lat="43.114807999999584" lon="-1.2414870000000016">
        <ele>641.283</ele>
        <time>2022-08-24T07:32:18Z</time>
      </trkpt>
      <trkpt lat="43.11482599999958" lon="-1.2414780000000016">
        <ele>641.211</ele>
        <time>2022-08-24T07:32:19Z</time>
      </trkpt>
      <trkpt lat="43.11484699999958" lon="-1.2414700000000016">
        <ele>641.409</ele>
        <time>2022-08-24T07:32:20Z</time>
      </trkpt>
      <trkpt lat="43.11486699999958" lon="-1.2414610000000017">
        <ele>641.413</ele>
        <time>2022-08-24T07:32:21Z</time>
      </trkpt>
      <trkpt lat="43.11488699999958" lon="-1.2414520000000018">
        <ele>642.063</ele>
        <time>2022-08-24T07:32:22Z</time>
      </trkpt>
      <trkpt lat="43.11490599999958" lon="-1.2414420000000017">
        <ele>642.493</ele>
        <time>2022-08-24T07:32:23Z</time>
      </trkpt>
      <trkpt lat="43.114920999999576" lon="-1.2414280000000018">
        <ele>642.469</ele>
        <time>2022-08-24T07:32:24Z</time>
      </trkpt>
      <trkpt lat="43.114932999999574" lon="-1.2414210000000017">
        <ele>642.621</ele>
        <time>2022-08-24T07:32:25Z</time>
      </trkpt>
      <trkpt lat="43.114954999999576" lon="-1.2414130000000017">
        <ele>642.848</ele>
        <time>2022-08-24T07:32:26Z</time>
      </trkpt>
      <trkpt lat="43.114979999999576" lon="-1.2413950000000016">
        <ele>643.261</ele>
        <time>2022-08-24T07:32:27Z</time>
      </trkpt>
      <trkpt lat="43.11499899999958" lon="-1.2413790000000016">
        <ele>643.295</ele>
        <time>2022-08-24T07:32:28Z</time>
      </trkpt>
      <trkpt lat="43.115016999999575" lon="-1.2413650000000016">
        <ele>643.664</ele>
        <time>2022-08-24T07:32:29Z</time>
      </trkpt>
      <trkpt lat="43.115039999999574" lon="-1.2413500000000015">
        <ele>644.244</ele>
        <time>2022-08-24T07:32:30Z</time>
      </trkpt>
      <trkpt lat="43.115058999999576" lon="-1.2413380000000016">
        <ele>644.205</ele>
        <time>2022-08-24T07:32:31Z</time>
      </trkpt>
      <trkpt lat="43.11507699999957" lon="-1.2413290000000017">
        <ele>644.615</ele>
        <time>2022-08-24T07:32:32Z</time>
      </trkpt>
      <trkpt lat="43.115092999999575" lon="-1.2413220000000016">
        <ele>644.809</ele>
        <time>2022-08-24T07:32:33Z</time>
      </trkpt>
      <trkpt lat="43.115109999999575" lon="-1.2413170000000016">
        <ele>645.065</ele>
        <time>2022-08-24T07:32:34Z</time>
      </trkpt>
      <trkpt lat="43.115126999999575" lon="-1.2413100000000015">
        <ele>645.295</ele>
        <time>2022-08-24T07:32:35Z</time>
      </trkpt>
      <trkpt lat="43.115146999999574" lon="-1.2412980000000016">
        <ele>645.435</ele>
        <time>2022-08-24T07:32:36Z</time>
      </trkpt>
      <trkpt lat="43.115162999999576" lon="-1.2412930000000015">
        <ele>645.841</ele>
        <time>2022-08-24T07:32:37Z</time>
      </trkpt>
      <trkpt lat="43.115177999999574" lon="-1.2412860000000014">
        <ele>646.023</ele>
        <time>2022-08-24T07:32:38Z</time>
      </trkpt>
      <trkpt lat="43.115193999999576" lon="-1.2412780000000014">
        <ele>646.030</ele>
        <time>2022-08-24T07:32:39Z</time>
      </trkpt>
      <trkpt lat="43.115205999999574" lon="-1.2412730000000014">
        <ele>646.233</ele>
        <time>2022-08-24T07:32:40Z</time>
      </trkpt>
      <trkpt lat="43.115219999999574" lon="-1.2412650000000014">
        <ele>646.617</ele>
        <time>2022-08-24T07:32:41Z</time>
      </trkpt>
      <trkpt lat="43.11523499999957" lon="-1.2412550000000013">
        <ele>646.646</ele>
        <time>2022-08-24T07:32:42Z</time>
      </trkpt>
      <trkpt lat="43.115253999999574" lon="-1.2412480000000012">
        <ele>647.064</ele>
        <time>2022-08-24T07:32:43Z</time>
      </trkpt>
      <trkpt lat="43.115270999999574" lon="-1.2412440000000013">
        <ele>647.006</ele>
        <time>2022-08-24T07:32:44Z</time>
      </trkpt>
      <trkpt lat="43.11528899999957" lon="-1.2412430000000014">
        <ele>647.416</ele>
        <time>2022-08-24T07:32:45Z</time>
      </trkpt>
      <trkpt lat="43.11530599999957" lon="-1.2412420000000015">
        <ele>647.609</ele>
        <time>2022-08-24T07:32:46Z</time>
      </trkpt>
      <trkpt lat="43.11532099999957" lon="-1.2412390000000015">
        <ele>647.897</ele>
        <time>2022-08-24T07:32:47Z</time>
      </trkpt>
      <trkpt lat="43.11533399999957" lon="-1.2412320000000014">
        <ele>648.097</ele>
        <time>2022-08-24T07:32:48Z</time>
      </trkpt>
      <trkpt lat="43.11534799999957" lon="-1.2412280000000016">
        <ele>648.057</ele>
        <time>2022-08-24T07:32:49Z</time>
      </trkpt>
      <trkpt lat="43.11535999999957" lon="-1.2412230000000015">
        <ele>648.253</ele>
        <time>2022-08-24T07:32:50Z</time>
      </trkpt>
      <trkpt lat="43.11537199999957" lon="-1.2412190000000016">
        <ele>648.455</ele>
        <time>2022-08-24T07:32:51Z</time>
      </trkpt>
      <trkpt lat="43.11538599999957" lon="-1.2412150000000017">
        <ele>648.632</ele>
        <time>2022-08-24T07:32:52Z</time>
      </trkpt>
      <trkpt lat="43.115397999999566" lon="-1.2412130000000017">
        <ele>648.835</ele>
        <time>2022-08-24T07:32:53Z</time>
      </trkpt>
      <trkpt lat="43.115408999999566" lon="-1.2412060000000016">
        <ele>649.089</ele>
        <time>2022-08-24T07:32:54Z</time>
      </trkpt>
      <trkpt lat="43.115420999999564" lon="-1.2412000000000016">
        <ele>649.468</ele>
        <time>2022-08-24T07:32:55Z</time>
      </trkpt>
      <trkpt lat="43.11543399999957" lon="-1.2411980000000016">
        <ele>649.431</ele>
        <time>2022-08-24T07:32:56Z</time>
      </trkpt>
      <trkpt lat="43.11544699999957" lon="-1.2411960000000015">
        <ele>649.661</ele>
        <time>2022-08-24T07:32:57Z</time>
      </trkpt>
      <trkpt lat="43.11546099999957" lon="-1.2411870000000016">
        <ele>649.807</ele>
        <time>2022-08-24T07:32:58Z</time>
      </trkpt>
      <trkpt lat="43.11547399999957" lon="-1.2411750000000017">
        <ele>650.009</ele>
        <time>2022-08-24T07:32:59Z</time>
      </trkpt>
      <trkpt lat="43.115486999999575" lon="-1.2411670000000017">
        <ele>650.294</ele>
        <time>2022-08-24T07:33:00Z</time>
      </trkpt>
      <trkpt lat="43.115500999999576" lon="-1.2411620000000017">
        <ele>650.424</ele>
        <time>2022-08-24T07:33:01Z</time>
      </trkpt>
      <trkpt lat="43.11551399999958" lon="-1.2411590000000017">
        <ele>650.684</ele>
        <time>2022-08-24T07:33:02Z</time>
      </trkpt>
      <trkpt lat="43.115525999999576" lon="-1.2411530000000017">
        <ele>650.690</ele>
        <time>2022-08-24T07:33:03Z</time>
      </trkpt>
      <trkpt lat="43.115540999999574" lon="-1.2411480000000017">
        <ele>651.032</ele>
        <time>2022-08-24T07:33:04Z</time>
      </trkpt>
      <trkpt lat="43.11555299999957" lon="-1.2411430000000017">
        <ele>651.049</ele>
        <time>2022-08-24T07:33:05Z</time>
      </trkpt>
      <trkpt lat="43.11556399999957" lon="-1.2411390000000018">
        <ele>651.432</ele>
        <time>2022-08-24T07:33:06Z</time>
      </trkpt>
      <trkpt lat="43.11557499999957" lon="-1.2411330000000018">
        <ele>651.676</ele>
        <time>2022-08-24T07:33:07Z</time>
      </trkpt>
      <trkpt lat="43.115585999999574" lon="-1.2411250000000018">
        <ele>651.865</ele>
        <time>2022-08-24T07:33:08Z</time>
      </trkpt>
      <trkpt lat="43.115596999999575" lon="-1.2411190000000019">
        <ele>652.045</ele>
        <time>2022-08-24T07:33:09Z</time>
      </trkpt>
      <trkpt lat="43.11560699999958" lon="-1.2411120000000018">
        <ele>652.047</ele>
        <time>2022-08-24T07:33:10Z</time>
      </trkpt>
      <trkpt lat="43.11561999999958" lon="-1.2411010000000018">
        <ele>652.211</ele>
        <time>2022-08-24T07:33:11Z</time>
      </trkpt>
      <trkpt lat="43.11563499999958" lon="-1.2410900000000018">
        <ele>652.409</ele>
        <time>2022-08-24T07:33:12Z</time>
      </trkpt>
      <trkpt lat="43.11565099999958" lon="-1.2410820000000018">
        <ele>652.455</ele>
        <time>2022-08-24T07:33:13Z</time>
      </trkpt>
      <trkpt lat="43.11566499999958" lon="-1.2410790000000018">
        <ele>652.655</ele>
        <time>2022-08-24T07:33:14Z</time>
      </trkpt>
      <trkpt lat="43.11567799999958" lon="-1.2410770000000018">
        <ele>652.845</ele>
        <time>2022-08-24T07:33:15Z</time>
      </trkpt>
      <trkpt lat="43.115688999999584" lon="-1.2410740000000018">
        <ele>653.041</ele>
        <time>2022-08-24T07:33:16Z</time>
      </trkpt>
      <trkpt lat="43.115699999999585" lon="-1.2410750000000017">
        <ele>653.283</ele>
        <time>2022-08-24T07:33:17Z</time>
      </trkpt>
      <trkpt lat="43.11570899999958" lon="-1.2410750000000017">
        <ele>653.410</ele>
        <time>2022-08-24T07:33:18Z</time>
      </trkpt>
      <trkpt lat="43.115719999999584" lon="-1.2410700000000017">
        <ele>653.663</ele>
        <time>2022-08-24T07:33:19Z</time>
      </trkpt>
      <trkpt lat="43.115730999999585" lon="-1.2410630000000016">
        <ele>653.837</ele>
        <time>2022-08-24T07:33:20Z</time>
      </trkpt>
      <trkpt lat="43.11574299999958" lon="-1.2410570000000016">
        <ele>654.036</ele>
        <time>2022-08-24T07:33:21Z</time>
      </trkpt>
      <trkpt lat="43.115755999999585" lon="-1.2410530000000017">
        <ele>654.299</ele>
        <time>2022-08-24T07:33:22Z</time>
      </trkpt>
      <trkpt lat="43.115766999999586" lon="-1.2410490000000018">
        <ele>654.207</ele>
        <time>2022-08-24T07:33:23Z</time>
      </trkpt>
      <trkpt lat="43.11577699999959" lon="-1.241043000000002">
        <ele>654.427</ele>
        <time>2022-08-24T07:33:24Z</time>
      </trkpt>
      <trkpt lat="43.11578699999959" lon="-1.241037000000002">
        <ele>654.609</ele>
        <time>2022-08-24T07:33:25Z</time>
      </trkpt>
      <trkpt lat="43.11579799999959" lon="-1.241032000000002">
        <ele>654.640</ele>
        <time>2022-08-24T07:33:26Z</time>
      </trkpt>
      <trkpt lat="43.11581299999959" lon="-1.241029000000002">
        <ele>654.840</ele>
        <time>2022-08-24T07:33:27Z</time>
      </trkpt>
      <trkpt lat="43.11582399999959" lon="-1.241021000000002">
        <ele>655.050</ele>
        <time>2022-08-24T07:33:28Z</time>
      </trkpt>
      <trkpt lat="43.11583499999959" lon="-1.241016000000002">
        <ele>655.246</ele>
        <time>2022-08-24T07:33:29Z</time>
      </trkpt>
      <trkpt lat="43.11584699999959" lon="-1.241010000000002">
        <ele>655.428</ele>
        <time>2022-08-24T07:33:30Z</time>
      </trkpt>
      <trkpt lat="43.11585799999959" lon="-1.241005000000002">
        <ele>655.475</ele>
        <time>2022-08-24T07:33:31Z</time>
      </trkpt>
      <trkpt lat="43.115867999999594" lon="-1.241001000000002">
        <ele>655.828</ele>
        <time>2022-08-24T07:33:32Z</time>
      </trkpt>
      <trkpt lat="43.11587999999959" lon="-1.240996000000002">
        <ele>656.082</ele>
        <time>2022-08-24T07:33:33Z</time>
      </trkpt>
      <trkpt lat="43.11589399999959" lon="-1.240991000000002">
        <ele>656.231</ele>
        <time>2022-08-24T07:33:34Z</time>
      </trkpt>
      <trkpt lat="43.11590899999959" lon="-1.240987000000002">
        <ele>656.499</ele>
        <time>2022-08-24T07:33:35Z</time>
      </trkpt>
      <trkpt lat="43.11592099999959" lon="-1.240982000000002">
        <ele>656.607</ele>
        <time>2022-08-24T07:33:36Z</time>
      </trkpt>
      <trkpt lat="43.11593199999959" lon="-1.240975000000002">
        <ele>656.827</ele>
        <time>2022-08-24T07:33:37Z</time>
      </trkpt>
      <trkpt lat="43.11594499999959" lon="-1.240970000000002">
        <ele>657.009</ele>
        <time>2022-08-24T07:33:38Z</time>
      </trkpt>
      <trkpt lat="43.11595699999959" lon="-1.240964000000002">
        <ele>657.230</ele>
        <time>2022-08-24T07:33:39Z</time>
      </trkpt>
      <trkpt lat="43.11596899999959" lon="-1.240956000000002">
        <ele>657.290</ele>
        <time>2022-08-24T07:33:40Z</time>
      </trkpt>
      <trkpt lat="43.115983999999585" lon="-1.240947000000002">
        <ele>657.640</ele>
        <time>2022-08-24T07:33:41Z</time>
      </trkpt>
      <trkpt lat="43.11599999999959" lon="-1.240942000000002">
        <ele>657.676</ele>
        <time>2022-08-24T07:33:42Z</time>
      </trkpt>
      <trkpt lat="43.116011999999586" lon="-1.240934000000002">
        <ele>657.848</ele>
        <time>2022-08-24T07:33:43Z</time>
      </trkpt>
      <trkpt lat="43.11602699999958" lon="-1.240926000000002">
        <ele>658.055</ele>
        <time>2022-08-24T07:33:44Z</time>
      </trkpt>
      <trkpt lat="43.11604399999958" lon="-1.240918000000002">
        <ele>658.098</ele>
        <time>2022-08-24T07:33:45Z</time>
      </trkpt>
      <trkpt lat="43.116062999999585" lon="-1.240908000000002">
        <ele>658.432</ele>
        <time>2022-08-24T07:33:46Z</time>
      </trkpt>
      <trkpt lat="43.11608199999959" lon="-1.240899000000002">
        <ele>658.421</ele>
        <time>2022-08-24T07:33:47Z</time>
      </trkpt>
      <trkpt lat="43.11610099999959" lon="-1.240889000000002">
        <ele>658.678</ele>
        <time>2022-08-24T07:33:48Z</time>
      </trkpt>
      <trkpt lat="43.11611699999959" lon="-1.2408790000000018">
        <ele>658.633</ele>
        <time>2022-08-24T07:33:49Z</time>
      </trkpt>
      <trkpt lat="43.11613599999959" lon="-1.240867000000002">
        <ele>658.826</ele>
        <time>2022-08-24T07:33:50Z</time>
      </trkpt>
      <trkpt lat="43.116151999999595" lon="-1.240855000000002">
        <ele>659.209</ele>
        <time>2022-08-24T07:33:51Z</time>
      </trkpt>
      <trkpt lat="43.1161679999996" lon="-1.2408430000000021">
        <ele>659.278</ele>
        <time>2022-08-24T07:33:52Z</time>
      </trkpt>
      <trkpt lat="43.116182999999594" lon="-1.2408310000000022">
        <ele>659.638</ele>
        <time>2022-08-24T07:33:53Z</time>
      </trkpt>
      <trkpt lat="43.1161959999996" lon="-1.2408220000000023">
        <ele>659.638</ele>
        <time>2022-08-24T07:33:54Z</time>
      </trkpt>
      <trkpt lat="43.1162089999996" lon="-1.2408140000000023">
        <ele>660.084</ele>
        <time>2022-08-24T07:33:55Z</time>
      </trkpt>
      <trkpt lat="43.1162249999996" lon="-1.2408060000000023">
        <ele>660.286</ele>
        <time>2022-08-24T07:33:56Z</time>
      </trkpt>
      <trkpt lat="43.116237999999605" lon="-1.2408030000000023">
        <ele>660.683</ele>
        <time>2022-08-24T07:33:57Z</time>
      </trkpt>
      <trkpt lat="43.116248999999605" lon="-1.2408000000000023">
        <ele>660.876</ele>
        <time>2022-08-24T07:33:58Z</time>
      </trkpt>
      <trkpt lat="43.11625899999961" lon="-1.2407950000000023">
        <ele>661.280</ele>
        <time>2022-08-24T07:33:59Z</time>
      </trkpt>
      <trkpt lat="43.11627199999961" lon="-1.2407880000000022">
        <ele>661.439</ele>
        <time>2022-08-24T07:34:00Z</time>
      </trkpt>
      <trkpt lat="43.11628299999961" lon="-1.2407830000000022">
        <ele>661.429</ele>
        <time>2022-08-24T07:34:01Z</time>
      </trkpt>
      <trkpt lat="43.116295999999615" lon="-1.2407780000000022">
        <ele>661.600</ele>
        <time>2022-08-24T07:34:02Z</time>
      </trkpt>
      <trkpt lat="43.116309999999615" lon="-1.2407740000000023">
        <ele>661.820</ele>
        <time>2022-08-24T07:34:03Z</time>
      </trkpt>
      <trkpt lat="43.116323999999615" lon="-1.2407690000000022">
        <ele>662.009</ele>
        <time>2022-08-24T07:34:04Z</time>
      </trkpt>
      <trkpt lat="43.116334999999616" lon="-1.2407590000000022">
        <ele>662.063</ele>
        <time>2022-08-24T07:34:05Z</time>
      </trkpt>
      <trkpt lat="43.11634499999962" lon="-1.2407480000000022">
        <ele>662.223</ele>
        <time>2022-08-24T07:34:06Z</time>
      </trkpt>
      <trkpt lat="43.11635899999962" lon="-1.240741000000002">
        <ele>662.673</ele>
        <time>2022-08-24T07:34:07Z</time>
      </trkpt>
      <trkpt lat="43.11637499999962" lon="-1.240731000000002">
        <ele>662.689</ele>
        <time>2022-08-24T07:34:08Z</time>
      </trkpt>
      <trkpt lat="43.11638999999962" lon="-1.240722000000002">
        <ele>662.841</ele>
        <time>2022-08-24T07:34:09Z</time>
      </trkpt>
      <trkpt lat="43.11640499999962" lon="-1.2407130000000022">
        <ele>663.068</ele>
        <time>2022-08-24T07:34:10Z</time>
      </trkpt>
      <trkpt lat="43.116416999999615" lon="-1.2407010000000023">
        <ele>663.051</ele>
        <time>2022-08-24T07:34:11Z</time>
      </trkpt>
      <trkpt lat="43.11642899999961" lon="-1.2406940000000022">
        <ele>663.255</ele>
        <time>2022-08-24T07:34:12Z</time>
      </trkpt>
      <trkpt lat="43.11644099999961" lon="-1.2406860000000022">
        <ele>663.244</ele>
        <time>2022-08-24T07:34:13Z</time>
      </trkpt>
      <trkpt lat="43.116453999999614" lon="-1.2406800000000022">
        <ele>663.233</ele>
        <time>2022-08-24T07:34:14Z</time>
      </trkpt>
      <trkpt lat="43.116466999999616" lon="-1.2406720000000022">
        <ele>663.423</ele>
        <time>2022-08-24T07:34:15Z</time>
      </trkpt>
      <trkpt lat="43.11648099999962" lon="-1.2406630000000023">
        <ele>663.415</ele>
        <time>2022-08-24T07:34:16Z</time>
      </trkpt>
      <trkpt lat="43.11649499999962" lon="-1.2406560000000022">
        <ele>663.609</ele>
        <time>2022-08-24T07:34:17Z</time>
      </trkpt>
      <trkpt lat="43.11650799999962" lon="-1.2406460000000021">
        <ele>663.864</ele>
        <time>2022-08-24T07:34:18Z</time>
      </trkpt>
      <trkpt lat="43.11651999999962" lon="-1.2406350000000022">
        <ele>663.874</ele>
        <time>2022-08-24T07:34:19Z</time>
      </trkpt>
      <trkpt lat="43.11653099999962" lon="-1.2406300000000021">
        <ele>664.214</ele>
        <time>2022-08-24T07:34:20Z</time>
      </trkpt>
      <trkpt lat="43.11653999999962" lon="-1.240620000000002">
        <ele>664.460</ele>
        <time>2022-08-24T07:34:21Z</time>
      </trkpt>
      <trkpt lat="43.11654999999962" lon="-1.240609000000002">
        <ele>664.472</ele>
        <time>2022-08-24T07:34:22Z</time>
      </trkpt>
      <trkpt lat="43.11655899999962" lon="-1.240594000000002">
        <ele>664.619</ele>
        <time>2022-08-24T07:34:23Z</time>
      </trkpt>
      <trkpt lat="43.11656999999962" lon="-1.240581000000002">
        <ele>664.672</ele>
        <time>2022-08-24T07:34:24Z</time>
      </trkpt>
      <trkpt lat="43.11658199999962" lon="-1.240568000000002">
        <ele>664.826</ele>
        <time>2022-08-24T07:34:25Z</time>
      </trkpt>
      <trkpt lat="43.11659499999962" lon="-1.2405610000000018">
        <ele>664.845</ele>
        <time>2022-08-24T07:34:26Z</time>
      </trkpt>
      <trkpt lat="43.11660799999962" lon="-1.240557000000002">
        <ele>665.222</ele>
        <time>2022-08-24T07:34:27Z</time>
      </trkpt>
      <trkpt lat="43.11661999999962" lon="-1.240551000000002">
        <ele>665.262</ele>
        <time>2022-08-24T07:34:28Z</time>
      </trkpt>
      <trkpt lat="43.11663499999962" lon="-1.240546000000002">
        <ele>665.208</ele>
        <time>2022-08-24T07:34:29Z</time>
      </trkpt>
      <trkpt lat="43.11664599999962" lon="-1.2405390000000018">
        <ele>665.409</ele>
        <time>2022-08-24T07:34:30Z</time>
      </trkpt>
      <trkpt lat="43.11665699999962" lon="-1.240530000000002">
        <ele>665.443</ele>
        <time>2022-08-24T07:34:31Z</time>
      </trkpt>
      <trkpt lat="43.11666899999962" lon="-1.240522000000002">
        <ele>665.483</ele>
        <time>2022-08-24T07:34:32Z</time>
      </trkpt>
      <trkpt lat="43.11667999999962" lon="-1.240513000000002">
        <ele>665.843</ele>
        <time>2022-08-24T07:34:33Z</time>
      </trkpt>
      <trkpt lat="43.11668999999962" lon="-1.240505000000002">
        <ele>665.889</ele>
        <time>2022-08-24T07:34:34Z</time>
      </trkpt>
      <trkpt lat="43.11670099999962" lon="-1.240496000000002">
        <ele>666.031</ele>
        <time>2022-08-24T07:34:35Z</time>
      </trkpt>
      <trkpt lat="43.11671199999962" lon="-1.240486000000002">
        <ele>666.068</ele>
        <time>2022-08-24T07:34:36Z</time>
      </trkpt>
      <trkpt lat="43.116721999999626" lon="-1.240477000000002">
        <ele>666.021</ele>
        <time>2022-08-24T07:34:37Z</time>
      </trkpt>
      <trkpt lat="43.11673199999963" lon="-1.2404680000000021">
        <ele>666.265</ele>
        <time>2022-08-24T07:34:38Z</time>
      </trkpt>
      <trkpt lat="43.11674299999963" lon="-1.2404620000000022">
        <ele>666.484</ele>
        <time>2022-08-24T07:34:39Z</time>
      </trkpt>
      <trkpt lat="43.11675399999963" lon="-1.2404560000000022">
        <ele>666.479</ele>
        <time>2022-08-24T07:34:40Z</time>
      </trkpt>
      <trkpt lat="43.11676499999963" lon="-1.2404510000000022">
        <ele>666.605</ele>
        <time>2022-08-24T07:34:41Z</time>
      </trkpt>
      <trkpt lat="43.11677699999963" lon="-1.2404480000000022">
        <ele>666.825</ele>
        <time>2022-08-24T07:34:42Z</time>
      </trkpt>
      <trkpt lat="43.11678799999963" lon="-1.2404430000000022">
        <ele>667.009</ele>
        <time>2022-08-24T07:34:43Z</time>
      </trkpt>
      <trkpt lat="43.11679899999963" lon="-1.2404340000000023">
        <ele>667.298</ele>
        <time>2022-08-24T07:34:44Z</time>
      </trkpt>
      <trkpt lat="43.11680799999963" lon="-1.2404240000000022">
        <ele>667.288</ele>
        <time>2022-08-24T07:34:45Z</time>
      </trkpt>
      <trkpt lat="43.11681699999963" lon="-1.2404130000000022">
        <ele>667.668</ele>
        <time>2022-08-24T07:34:46Z</time>
      </trkpt>
      <trkpt lat="43.11682799999963" lon="-1.2404060000000021">
        <ele>667.644</ele>
        <time>2022-08-24T07:34:47Z</time>
      </trkpt>
      <trkpt lat="43.11683699999963" lon="-1.240396000000002">
        <ele>667.826</ele>
        <time>2022-08-24T07:34:48Z</time>
      </trkpt>
      <trkpt lat="43.116848999999625" lon="-1.240388000000002">
        <ele>668.043</ele>
        <time>2022-08-24T07:34:49Z</time>
      </trkpt>
      <trkpt lat="43.11685899999963" lon="-1.240381000000002">
        <ele>668.026</ele>
        <time>2022-08-24T07:34:50Z</time>
      </trkpt>
      <trkpt lat="43.11686999999963" lon="-1.240377000000002">
        <ele>668.420</ele>
        <time>2022-08-24T07:34:51Z</time>
      </trkpt>
      <trkpt lat="43.11688399999963" lon="-1.240369000000002">
        <ele>668.429</ele>
        <time>2022-08-24T07:34:52Z</time>
      </trkpt>
      <trkpt lat="43.11689799999963" lon="-1.2403600000000021">
        <ele>668.635</ele>
        <time>2022-08-24T07:34:53Z</time>
      </trkpt>
      <trkpt lat="43.11691099999963" lon="-1.240350000000002">
        <ele>668.686</ele>
        <time>2022-08-24T07:34:54Z</time>
      </trkpt>
      <trkpt lat="43.11692499999963" lon="-1.2403440000000021">
        <ele>668.814</ele>
        <time>2022-08-24T07:34:55Z</time>
      </trkpt>
      <trkpt lat="43.11693599999963" lon="-1.2403330000000021">
        <ele>669.209</ele>
        <time>2022-08-24T07:34:56Z</time>
      </trkpt>
      <trkpt lat="43.11693599999963" lon="-1.2403330000000021">
        <ele>669.224</ele>
        <time>2022-08-24T07:34:57Z</time>
      </trkpt>
      <trkpt lat="43.116960999999634" lon="-1.240318000000002">
        <ele>669.674</ele>
        <time>2022-08-24T07:34:58Z</time>
      </trkpt>
      <trkpt lat="43.11697899999963" lon="-1.2403060000000021">
        <ele>669.644</ele>
        <time>2022-08-24T07:34:59Z</time>
      </trkpt>
      <trkpt lat="43.11698999999963" lon="-1.2402940000000022">
        <ele>669.880</ele>
        <time>2022-08-24T07:35:00Z</time>
      </trkpt>
      <trkpt lat="43.11699899999963" lon="-1.2402830000000022">
        <ele>670.012</ele>
        <time>2022-08-24T07:35:01Z</time>
      </trkpt>
      <trkpt lat="43.11700399999963" lon="-1.2402770000000023">
        <ele>670.289</ele>
        <time>2022-08-24T07:35:02Z</time>
      </trkpt>
      <trkpt lat="43.117013999999635" lon="-1.2402680000000024">
        <ele>670.222</ele>
        <time>2022-08-24T07:35:03Z</time>
      </trkpt>
      <trkpt lat="43.11702699999964" lon="-1.2402590000000024">
        <ele>670.686</ele>
        <time>2022-08-24T07:35:04Z</time>
      </trkpt>
      <trkpt lat="43.11703999999964" lon="-1.2402500000000025">
        <ele>670.865</ele>
        <time>2022-08-24T07:35:05Z</time>
      </trkpt>
      <trkpt lat="43.11705399999964" lon="-1.2402400000000025">
        <ele>671.051</ele>
        <time>2022-08-24T07:35:06Z</time>
      </trkpt>
      <trkpt lat="43.11706599999964" lon="-1.2402330000000024">
        <ele>671.001</ele>
        <time>2022-08-24T07:35:07Z</time>
      </trkpt>
      <trkpt lat="43.11707899999964" lon="-1.2402230000000023">
        <ele>671.211</ele>
        <time>2022-08-24T07:35:08Z</time>
      </trkpt>
      <trkpt lat="43.11709299999964" lon="-1.2402160000000022">
        <ele>671.609</ele>
        <time>2022-08-24T07:35:09Z</time>
      </trkpt>
      <trkpt lat="43.117108999999644" lon="-1.2402110000000022">
        <ele>671.826</ele>
        <time>2022-08-24T07:35:10Z</time>
      </trkpt>
      <trkpt lat="43.11712199999965" lon="-1.2402030000000022">
        <ele>672.036</ele>
        <time>2022-08-24T07:35:11Z</time>
      </trkpt>
      <trkpt lat="43.11713499999965" lon="-1.2401890000000022">
        <ele>672.286</ele>
        <time>2022-08-24T07:35:12Z</time>
      </trkpt>
      <trkpt lat="43.11714399999965" lon="-1.2401810000000022">
        <ele>672.442</ele>
        <time>2022-08-24T07:35:13Z</time>
      </trkpt>
      <trkpt lat="43.117155999999646" lon="-1.2401760000000022">
        <ele>672.874</ele>
        <time>2022-08-24T07:35:14Z</time>
      </trkpt>
      <trkpt lat="43.11716699999965" lon="-1.2401680000000022">
        <ele>672.881</ele>
        <time>2022-08-24T07:35:15Z</time>
      </trkpt>
      <trkpt lat="43.11718099999965" lon="-1.2401590000000022">
        <ele>673.294</ele>
        <time>2022-08-24T07:35:16Z</time>
      </trkpt>
      <trkpt lat="43.117192999999645" lon="-1.2401520000000021">
        <ele>673.478</ele>
        <time>2022-08-24T07:35:17Z</time>
      </trkpt>
      <trkpt lat="43.11720599999965" lon="-1.2401460000000022">
        <ele>673.627</ele>
        <time>2022-08-24T07:35:18Z</time>
      </trkpt>
      <trkpt lat="43.117220999999645" lon="-1.2401410000000022">
        <ele>673.661</ele>
        <time>2022-08-24T07:35:19Z</time>
      </trkpt>
      <trkpt lat="43.117234999999646" lon="-1.2401350000000022">
        <ele>673.821</ele>
        <time>2022-08-24T07:35:20Z</time>
      </trkpt>
      <trkpt lat="43.11725299999964" lon="-1.2401270000000022">
        <ele>674.013</ele>
        <time>2022-08-24T07:35:21Z</time>
      </trkpt>
      <trkpt lat="43.11726499999964" lon="-1.2401190000000022">
        <ele>674.209</ele>
        <time>2022-08-24T07:35:22Z</time>
      </trkpt>
      <trkpt lat="43.11727599999964" lon="-1.2401110000000022">
        <ele>674.487</ele>
        <time>2022-08-24T07:35:23Z</time>
      </trkpt>
      <trkpt lat="43.11728799999964" lon="-1.2401060000000022">
        <ele>674.467</ele>
        <time>2022-08-24T07:35:24Z</time>
      </trkpt>
      <trkpt lat="43.11729999999964" lon="-1.2401010000000021">
        <ele>674.817</ele>
        <time>2022-08-24T07:35:25Z</time>
      </trkpt>
      <trkpt lat="43.117311999999636" lon="-1.2400970000000022">
        <ele>675.083</ele>
        <time>2022-08-24T07:35:26Z</time>
      </trkpt>
      <trkpt lat="43.11732199999964" lon="-1.2400910000000023">
        <ele>675.225</ele>
        <time>2022-08-24T07:35:27Z</time>
      </trkpt>
      <trkpt lat="43.11733699999964" lon="-1.2400870000000024">
        <ele>675.492</ele>
        <time>2022-08-24T07:35:28Z</time>
      </trkpt>
      <trkpt lat="43.117348999999635" lon="-1.2400810000000024">
        <ele>675.415</ele>
        <time>2022-08-24T07:35:29Z</time>
      </trkpt>
      <trkpt lat="43.11734799999964" lon="-1.2400690000000025">
        <ele>675.449</ele>
        <time>2022-08-24T07:35:30Z</time>
      </trkpt>
      <trkpt lat="43.11734699999964" lon="-1.2400600000000026">
        <ele>675.628</ele>
        <time>2022-08-24T07:35:31Z</time>
      </trkpt>
      <trkpt lat="43.11735799999964" lon="-1.2400570000000026">
        <ele>675.863</ele>
        <time>2022-08-24T07:35:32Z</time>
      </trkpt>
      <trkpt lat="43.11737199999964" lon="-1.2400550000000026">
        <ele>676.044</ele>
        <time>2022-08-24T07:35:33Z</time>
      </trkpt>
      <trkpt lat="43.11738599999964" lon="-1.2400510000000027">
        <ele>676.018</ele>
        <time>2022-08-24T07:35:34Z</time>
      </trkpt>
      <trkpt lat="43.11740099999964" lon="-1.2400410000000026">
        <ele>676.409</ele>
        <time>2022-08-24T07:35:35Z</time>
      </trkpt>
      <trkpt lat="43.11741499999964" lon="-1.2400360000000026">
        <ele>676.427</ele>
        <time>2022-08-24T07:35:36Z</time>
      </trkpt>
      <trkpt lat="43.11742799999964" lon="-1.2400330000000026">
        <ele>676.877</ele>
        <time>2022-08-24T07:35:37Z</time>
      </trkpt>
      <trkpt lat="43.11743899999964" lon="-1.2400310000000025">
        <ele>676.867</ele>
        <time>2022-08-24T07:35:38Z</time>
      </trkpt>
      <trkpt lat="43.117451999999645" lon="-1.2400260000000025">
        <ele>677.263</ele>
        <time>2022-08-24T07:35:39Z</time>
      </trkpt>
      <trkpt lat="43.11746399999964" lon="-1.2400180000000025">
        <ele>677.435</ele>
        <time>2022-08-24T07:35:40Z</time>
      </trkpt>
      <trkpt lat="43.117476999999646" lon="-1.2400130000000025">
        <ele>677.462</ele>
        <time>2022-08-24T07:35:41Z</time>
      </trkpt>
      <trkpt lat="43.117487999999646" lon="-1.2400060000000024">
        <ele>677.835</ele>
        <time>2022-08-24T07:35:42Z</time>
      </trkpt>
      <trkpt lat="43.11749899999965" lon="-1.2400020000000025">
        <ele>678.019</ele>
        <time>2022-08-24T07:35:43Z</time>
      </trkpt>
      <trkpt lat="43.11751199999965" lon="-1.2399990000000025">
        <ele>678.218</ele>
        <time>2022-08-24T07:35:44Z</time>
      </trkpt>
      <trkpt lat="43.11752299999965" lon="-1.2399940000000025">
        <ele>678.233</ele>
        <time>2022-08-24T07:35:45Z</time>
      </trkpt>
      <trkpt lat="43.11753499999965" lon="-1.2399920000000024">
        <ele>678.423</ele>
        <time>2022-08-24T07:35:46Z</time>
      </trkpt>
      <trkpt lat="43.11754799999965" lon="-1.2399910000000025">
        <ele>678.815</ele>
        <time>2022-08-24T07:35:47Z</time>
      </trkpt>
      <trkpt lat="43.11756199999965" lon="-1.2399890000000025">
        <ele>679.009</ele>
        <time>2022-08-24T07:35:48Z</time>
      </trkpt>
      <trkpt lat="43.11757399999965" lon="-1.2399840000000024">
        <ele>679.054</ele>
        <time>2022-08-24T07:35:49Z</time>
      </trkpt>
      <trkpt lat="43.11758499999965" lon="-1.2399820000000024">
        <ele>679.254</ele>
        <time>2022-08-24T07:35:50Z</time>
      </trkpt>
      <trkpt lat="43.11759799999965" lon="-1.2399850000000023">
        <ele>679.474</ele>
        <time>2022-08-24T07:35:51Z</time>
      </trkpt>
      <trkpt lat="43.117607999999656" lon="-1.2399800000000023">
        <ele>679.620</ele>
        <time>2022-08-24T07:35:52Z</time>
      </trkpt>
      <trkpt lat="43.11761899999966" lon="-1.2399720000000023">
        <ele>679.882</ele>
        <time>2022-08-24T07:35:53Z</time>
      </trkpt>
      <trkpt lat="43.11763299999966" lon="-1.2399660000000023">
        <ele>679.879</ele>
        <time>2022-08-24T07:35:54Z</time>
      </trkpt>
      <trkpt lat="43.11764899999966" lon="-1.2399630000000024">
        <ele>680.242</ele>
        <time>2022-08-24T07:35:55Z</time>
      </trkpt>
      <trkpt lat="43.11766199999966" lon="-1.2399570000000024">
        <ele>680.456</ele>
        <time>2022-08-24T07:35:56Z</time>
      </trkpt>
      <trkpt lat="43.11767399999966" lon="-1.2399490000000024">
        <ele>680.455</ele>
        <time>2022-08-24T07:35:57Z</time>
      </trkpt>
      <trkpt lat="43.11768799999966" lon="-1.2399460000000024">
        <ele>680.666</ele>
        <time>2022-08-24T07:35:58Z</time>
      </trkpt>
      <trkpt lat="43.11770199999966" lon="-1.2399400000000025">
        <ele>680.829</ele>
        <time>2022-08-24T07:35:59Z</time>
      </trkpt>
      <trkpt lat="43.11771599999966" lon="-1.2399340000000025">
        <ele>681.021</ele>
        <time>2022-08-24T07:36:00Z</time>
      </trkpt>
      <trkpt lat="43.11772999999966" lon="-1.2399310000000026">
        <ele>681.209</ele>
        <time>2022-08-24T07:36:01Z</time>
      </trkpt>
      <trkpt lat="43.11773699999966" lon="-1.2399260000000025">
        <ele>681.427</ele>
        <time>2022-08-24T07:36:02Z</time>
      </trkpt>
      <trkpt lat="43.117742999999656" lon="-1.2399160000000025">
        <ele>681.427</ele>
        <time>2022-08-24T07:36:03Z</time>
      </trkpt>
      <trkpt lat="43.117754999999654" lon="-1.2399080000000025">
        <ele>681.697</ele>
        <time>2022-08-24T07:36:04Z</time>
      </trkpt>
      <trkpt lat="43.11776699999965" lon="-1.2399010000000024">
        <ele>681.853</ele>
        <time>2022-08-24T07:36:05Z</time>
      </trkpt>
      <trkpt lat="43.11777899999965" lon="-1.2398970000000025">
        <ele>681.835</ele>
        <time>2022-08-24T07:36:06Z</time>
      </trkpt>
      <trkpt lat="43.11778999999965" lon="-1.2398910000000025">
        <ele>682.212</ele>
        <time>2022-08-24T07:36:07Z</time>
      </trkpt>
      <trkpt lat="43.117802999999654" lon="-1.2398840000000024">
        <ele>682.215</ele>
        <time>2022-08-24T07:36:08Z</time>
      </trkpt>
      <trkpt lat="43.11781299999966" lon="-1.2398760000000024">
        <ele>682.479</ele>
        <time>2022-08-24T07:36:09Z</time>
      </trkpt>
      <trkpt lat="43.11782299999966" lon="-1.2398660000000024">
        <ele>682.618</ele>
        <time>2022-08-24T07:36:10Z</time>
      </trkpt>
      <trkpt lat="43.11783299999966" lon="-1.2398580000000023">
        <ele>682.682</ele>
        <time>2022-08-24T07:36:11Z</time>
      </trkpt>
      <trkpt lat="43.11784199999966" lon="-1.2398480000000023">
        <ele>682.843</ele>
        <time>2022-08-24T07:36:12Z</time>
      </trkpt>
      <trkpt lat="43.11785099999966" lon="-1.2398390000000024">
        <ele>683.017</ele>
        <time>2022-08-24T07:36:13Z</time>
      </trkpt>
      <trkpt lat="43.11785999999966" lon="-1.2398290000000023">
        <ele>683.209</ele>
        <time>2022-08-24T07:36:14Z</time>
      </trkpt>
      <trkpt lat="43.11786899999966" lon="-1.2398180000000023">
        <ele>683.239</ele>
        <time>2022-08-24T07:36:15Z</time>
      </trkpt>
      <trkpt lat="43.11787699999966" lon="-1.2398070000000023">
        <ele>683.289</ele>
        <time>2022-08-24T07:36:16Z</time>
      </trkpt>
      <trkpt lat="43.11788199999966" lon="-1.2397990000000023">
        <ele>683.659</ele>
        <time>2022-08-24T07:36:17Z</time>
      </trkpt>
      <trkpt lat="43.11788999999966" lon="-1.2397910000000023">
        <ele>683.875</ele>
        <time>2022-08-24T07:36:18Z</time>
      </trkpt>
      <trkpt lat="43.11789599999966" lon="-1.2397800000000023">
        <ele>684.067</ele>
        <time>2022-08-24T07:36:19Z</time>
      </trkpt>
      <trkpt lat="43.11790299999966" lon="-1.2397680000000024">
        <ele>684.244</ele>
        <time>2022-08-24T07:36:20Z</time>
      </trkpt>
      <trkpt lat="43.117909999999654" lon="-1.2397540000000025">
        <ele>684.227</ele>
        <time>2022-08-24T07:36:21Z</time>
      </trkpt>
      <trkpt lat="43.11791599999965" lon="-1.2397410000000024">
        <ele>684.461</ele>
        <time>2022-08-24T07:36:22Z</time>
      </trkpt>
      <trkpt lat="43.11792499999965" lon="-1.2397300000000024">
        <ele>684.470</ele>
        <time>2022-08-24T07:36:23Z</time>
      </trkpt>
      <trkpt lat="43.11793599999965" lon="-1.2397200000000024">
        <ele>684.856</ele>
        <time>2022-08-24T07:36:24Z</time>
      </trkpt>
      <trkpt lat="43.117945999999655" lon="-1.2397060000000024">
        <ele>684.859</ele>
        <time>2022-08-24T07:36:25Z</time>
      </trkpt>
      <trkpt lat="43.11795599999966" lon="-1.2396910000000023">
        <ele>685.014</ele>
        <time>2022-08-24T07:36:26Z</time>
      </trkpt>
      <trkpt lat="43.117962999999655" lon="-1.2396750000000023">
        <ele>685.009</ele>
        <time>2022-08-24T07:36:27Z</time>
      </trkpt>
      <trkpt lat="43.117970999999656" lon="-1.2396590000000023">
        <ele>685.246</ele>
        <time>2022-08-24T07:36:28Z</time>
      </trkpt>
      <trkpt lat="43.11798099999966" lon="-1.2396380000000022">
        <ele>685.256</ele>
        <time>2022-08-24T07:36:29Z</time>
      </trkpt>
      <trkpt lat="43.11798899999966" lon="-1.2396180000000023">
        <ele>685.256</ele>
        <time>2022-08-24T07:36:30Z</time>
      </trkpt>
      <trkpt lat="43.11799799999966" lon="-1.2395950000000022">
        <ele>685.492</ele>
        <time>2022-08-24T07:36:31Z</time>
      </trkpt>
      <trkpt lat="43.118001999999656" lon="-1.2395780000000023">
        <ele>685.634</ele>
        <time>2022-08-24T07:36:32Z</time>
      </trkpt>
      <trkpt lat="43.118004999999656" lon="-1.2395610000000024">
        <ele>686.041</ele>
        <time>2022-08-24T07:36:33Z</time>
      </trkpt>
      <trkpt lat="43.118010999999655" lon="-1.2395460000000023">
        <ele>686.284</ele>
        <time>2022-08-24T07:36:34Z</time>
      </trkpt>
      <trkpt lat="43.11801499999965" lon="-1.2395330000000022">
        <ele>686.418</ele>
        <time>2022-08-24T07:36:35Z</time>
      </trkpt>
      <trkpt lat="43.11802199999965" lon="-1.2395160000000023">
        <ele>686.647</ele>
        <time>2022-08-24T07:36:36Z</time>
      </trkpt>
      <trkpt lat="43.11802699999965" lon="-1.2395010000000022">
        <ele>686.867</ele>
        <time>2022-08-24T07:36:37Z</time>
      </trkpt>
      <trkpt lat="43.11803299999965" lon="-1.2394890000000023">
        <ele>686.881</ele>
        <time>2022-08-24T07:36:38Z</time>
      </trkpt>
      <trkpt lat="43.11803799999965" lon="-1.2394720000000023">
        <ele>687.219</ele>
        <time>2022-08-24T07:36:39Z</time>
      </trkpt>
      <trkpt lat="43.11804099999965" lon="-1.2394570000000023">
        <ele>687.609</ele>
        <time>2022-08-24T07:36:40Z</time>
      </trkpt>
      <trkpt lat="43.11804399999965" lon="-1.2394440000000022">
        <ele>687.867</ele>
        <time>2022-08-24T07:36:41Z</time>
      </trkpt>
      <trkpt lat="43.11804399999965" lon="-1.2394440000000022">
        <ele>688.087</ele>
        <time>2022-08-24T07:36:42Z</time>
      </trkpt>
      <trkpt lat="43.11805399999965" lon="-1.2394130000000023">
        <ele>688.277</ele>
        <time>2022-08-24T07:36:43Z</time>
      </trkpt>
      <trkpt lat="43.11805799999965" lon="-1.2393980000000022">
        <ele>688.453</ele>
        <time>2022-08-24T07:36:44Z</time>
      </trkpt>
      <trkpt lat="43.11806199999965" lon="-1.2393820000000022">
        <ele>688.455</ele>
        <time>2022-08-24T07:36:45Z</time>
      </trkpt>
      <trkpt lat="43.11806699999965" lon="-1.239367000000002">
        <ele>688.662</ele>
        <time>2022-08-24T07:36:46Z</time>
      </trkpt>
      <trkpt lat="43.11807199999965" lon="-1.239349000000002">
        <ele>688.855</ele>
        <time>2022-08-24T07:36:47Z</time>
      </trkpt>
      <trkpt lat="43.11807699999965" lon="-1.239336000000002">
        <ele>688.899</ele>
        <time>2022-08-24T07:36:48Z</time>
      </trkpt>
      <trkpt lat="43.11807999999965" lon="-1.239316000000002">
        <ele>689.088</ele>
        <time>2022-08-24T07:36:49Z</time>
      </trkpt>
      <trkpt lat="43.11808199999965" lon="-1.2392940000000021">
        <ele>689.227</ele>
        <time>2022-08-24T07:36:50Z</time>
      </trkpt>
      <trkpt lat="43.11808299999965" lon="-1.239271000000002">
        <ele>689.468</ele>
        <time>2022-08-24T07:36:51Z</time>
      </trkpt>
      <trkpt lat="43.11808499999965" lon="-1.239259000000002">
        <ele>689.614</ele>
        <time>2022-08-24T07:36:52Z</time>
      </trkpt>
      <trkpt lat="43.11808799999965" lon="-1.239244000000002">
        <ele>689.809</ele>
        <time>2022-08-24T07:36:53Z</time>
      </trkpt>
      <trkpt lat="43.11808799999965" lon="-1.239244000000002">
        <ele>690.033</ele>
        <time>2022-08-24T07:36:54Z</time>
      </trkpt>
      <trkpt lat="43.11809399999965" lon="-1.239209000000002">
        <ele>690.253</ele>
        <time>2022-08-24T07:36:55Z</time>
      </trkpt>
      <trkpt lat="43.11809499999965" lon="-1.239190000000002">
        <ele>690.253</ele>
        <time>2022-08-24T07:36:56Z</time>
      </trkpt>
      <trkpt lat="43.11809499999965" lon="-1.239179000000002">
        <ele>690.499</ele>
        <time>2022-08-24T07:36:57Z</time>
      </trkpt>
      <trkpt lat="43.11809499999965" lon="-1.2391670000000021">
        <ele>690.611</ele>
        <time>2022-08-24T07:36:58Z</time>
      </trkpt>
      <trkpt lat="43.11809699999965" lon="-1.2391470000000022">
        <ele>690.818</ele>
        <time>2022-08-24T07:36:59Z</time>
      </trkpt>
      <trkpt lat="43.11809699999965" lon="-1.2391340000000022">
        <ele>691.021</ele>
        <time>2022-08-24T07:37:00Z</time>
      </trkpt>
      <trkpt lat="43.11809599999965" lon="-1.2391180000000022">
        <ele>691.425</ele>
        <time>2022-08-24T07:37:01Z</time>
      </trkpt>
      <trkpt lat="43.118094999999656" lon="-1.2391040000000022">
        <ele>691.624</ele>
        <time>2022-08-24T07:37:02Z</time>
      </trkpt>
      <trkpt lat="43.11809699999966" lon="-1.2390920000000023">
        <ele>691.884</ele>
        <time>2022-08-24T07:37:03Z</time>
      </trkpt>
      <trkpt lat="43.118100999999655" lon="-1.2390760000000023">
        <ele>692.007</ele>
        <time>2022-08-24T07:37:04Z</time>
      </trkpt>
      <trkpt lat="43.11810299999966" lon="-1.2390590000000024">
        <ele>692.217</ele>
        <time>2022-08-24T07:37:05Z</time>
      </trkpt>
      <trkpt lat="43.118103999999654" lon="-1.2390470000000025">
        <ele>692.409</ele>
        <time>2022-08-24T07:37:06Z</time>
      </trkpt>
      <trkpt lat="43.118103999999654" lon="-1.2390320000000024">
        <ele>692.649</ele>
        <time>2022-08-24T07:37:07Z</time>
      </trkpt>
      <trkpt lat="43.118105999999656" lon="-1.2390210000000024">
        <ele>693.039</ele>
        <time>2022-08-24T07:37:08Z</time>
      </trkpt>
      <trkpt lat="43.11810799999966" lon="-1.2390080000000023">
        <ele>693.289</ele>
        <time>2022-08-24T07:37:09Z</time>
      </trkpt>
      <trkpt lat="43.11810699999966" lon="-1.2389940000000024">
        <ele>693.225</ele>
        <time>2022-08-24T07:37:10Z</time>
      </trkpt>
      <trkpt lat="43.11810199999966" lon="-1.2389810000000023">
        <ele>693.447</ele>
        <time>2022-08-24T07:37:11Z</time>
      </trkpt>
      <trkpt lat="43.11809799999966" lon="-1.2389700000000023">
        <ele>693.454</ele>
        <time>2022-08-24T07:37:12Z</time>
      </trkpt>
      <trkpt lat="43.118096999999665" lon="-1.2389560000000024">
        <ele>693.657</ele>
        <time>2022-08-24T07:37:13Z</time>
      </trkpt>
      <trkpt lat="43.118096999999665" lon="-1.2389420000000024">
        <ele>693.831</ele>
        <time>2022-08-24T07:37:14Z</time>
      </trkpt>
      <trkpt lat="43.11809499999966" lon="-1.2389280000000025">
        <ele>694.070</ele>
        <time>2022-08-24T07:37:15Z</time>
      </trkpt>
      <trkpt lat="43.11808999999966" lon="-1.2389130000000024">
        <ele>694.069</ele>
        <time>2022-08-24T07:37:16Z</time>
      </trkpt>
      <trkpt lat="43.11808499999966" lon="-1.2389000000000023">
        <ele>694.404</ele>
        <time>2022-08-24T07:37:17Z</time>
      </trkpt>
      <trkpt lat="43.11808199999966" lon="-1.2388870000000023">
        <ele>694.424</ele>
        <time>2022-08-24T07:37:18Z</time>
      </trkpt>
      <trkpt lat="43.11807599999966" lon="-1.2388740000000023">
        <ele>694.609</ele>
        <time>2022-08-24T07:37:19Z</time>
      </trkpt>
      <trkpt lat="43.11806999999966" lon="-1.2388630000000023">
        <ele>694.877</ele>
        <time>2022-08-24T07:37:20Z</time>
      </trkpt>
      <trkpt lat="43.11806499999966" lon="-1.2388490000000023">
        <ele>695.037</ele>
        <time>2022-08-24T07:37:21Z</time>
      </trkpt>
      <trkpt lat="43.11805699999966" lon="-1.2388310000000022">
        <ele>695.467</ele>
        <time>2022-08-24T07:37:22Z</time>
      </trkpt>
      <trkpt lat="43.11804999999966" lon="-1.2388150000000022">
        <ele>695.623</ele>
        <time>2022-08-24T07:37:23Z</time>
      </trkpt>
      <trkpt lat="43.118042999999666" lon="-1.2388000000000021">
        <ele>696.025</ele>
        <time>2022-08-24T07:37:24Z</time>
      </trkpt>
      <trkpt lat="43.118037999999665" lon="-1.2387810000000021">
        <ele>696.252</ele>
        <time>2022-08-24T07:37:25Z</time>
      </trkpt>
      <trkpt lat="43.11803399999967" lon="-1.2387640000000022">
        <ele>696.445</ele>
        <time>2022-08-24T07:37:26Z</time>
      </trkpt>
      <trkpt lat="43.11803099999967" lon="-1.2387510000000022">
        <ele>696.419</ele>
        <time>2022-08-24T07:37:27Z</time>
      </trkpt>
      <trkpt lat="43.11802399999967" lon="-1.2387370000000022">
        <ele>696.678</ele>
        <time>2022-08-24T07:37:28Z</time>
      </trkpt>
      <trkpt lat="43.11801599999967" lon="-1.2387250000000023">
        <ele>697.091</ele>
        <time>2022-08-24T07:37:29Z</time>
      </trkpt>
      <trkpt lat="43.11800699999967" lon="-1.2387130000000024">
        <ele>697.081</ele>
        <time>2022-08-24T07:37:30Z</time>
      </trkpt>
      <trkpt lat="43.11799899999967" lon="-1.2387020000000024">
        <ele>697.419</ele>
        <time>2022-08-24T07:37:31Z</time>
      </trkpt>
      <trkpt lat="43.11798999999967" lon="-1.2386930000000025">
        <ele>697.609</ele>
        <time>2022-08-24T07:37:32Z</time>
      </trkpt>
      <trkpt lat="43.11798099999967" lon="-1.2386810000000026">
        <ele>698.060</ele>
        <time>2022-08-24T07:37:33Z</time>
      </trkpt>
      <trkpt lat="43.117971999999675" lon="-1.2386670000000026">
        <ele>698.060</ele>
        <time>2022-08-24T07:37:34Z</time>
      </trkpt>
      <trkpt lat="43.117965999999676" lon="-1.2386530000000027">
        <ele>698.260</ele>
        <time>2022-08-24T07:37:35Z</time>
      </trkpt>
      <trkpt lat="43.117963999999674" lon="-1.2386370000000027">
        <ele>698.486</ele>
        <time>2022-08-24T07:37:36Z</time>
      </trkpt>
      <trkpt lat="43.117960999999674" lon="-1.2386210000000026">
        <ele>698.858</ele>
        <time>2022-08-24T07:37:37Z</time>
      </trkpt>
      <trkpt lat="43.11795599999967" lon="-1.2386080000000026">
        <ele>699.085</ele>
        <time>2022-08-24T07:37:38Z</time>
      </trkpt>
      <trkpt lat="43.11794799999967" lon="-1.2386010000000025">
        <ele>699.258</ele>
        <time>2022-08-24T07:37:39Z</time>
      </trkpt>
      <trkpt lat="43.11794199999967" lon="-1.2385960000000025">
        <ele>699.672</ele>
        <time>2022-08-24T07:37:40Z</time>
      </trkpt>
      <trkpt lat="43.117932999999674" lon="-1.2385880000000025">
        <ele>699.671</ele>
        <time>2022-08-24T07:37:41Z</time>
      </trkpt>
      <trkpt lat="43.11792499999967" lon="-1.2385770000000025">
        <ele>700.052</ele>
        <time>2022-08-24T07:37:42Z</time>
      </trkpt>
      <trkpt lat="43.117917999999676" lon="-1.2385680000000026">
        <ele>700.053</ele>
        <time>2022-08-24T07:37:43Z</time>
      </trkpt>
      <trkpt lat="43.11791199999968" lon="-1.2385570000000026">
        <ele>700.208</ele>
        <time>2022-08-24T07:37:44Z</time>
      </trkpt>
      <trkpt lat="43.117903999999676" lon="-1.2385460000000026">
        <ele>700.609</ele>
        <time>2022-08-24T07:37:45Z</time>
      </trkpt>
      <trkpt lat="43.11789699999968" lon="-1.2385350000000026">
        <ele>700.686</ele>
        <time>2022-08-24T07:37:46Z</time>
      </trkpt>
      <trkpt lat="43.11789199999968" lon="-1.2385240000000026">
        <ele>700.826</ele>
        <time>2022-08-24T07:37:47Z</time>
      </trkpt>
      <trkpt lat="43.11788499999968" lon="-1.2385120000000027">
        <ele>701.036</ele>
        <time>2022-08-24T07:37:48Z</time>
      </trkpt>
      <trkpt lat="43.11787999999968" lon="-1.2385030000000028">
        <ele>701.232</ele>
        <time>2022-08-24T07:37:49Z</time>
      </trkpt>
      <trkpt lat="43.11787099999968" lon="-1.2384930000000027">
        <ele>701.274</ele>
        <time>2022-08-24T07:37:50Z</time>
      </trkpt>
      <trkpt lat="43.11787099999968" lon="-1.2384930000000027">
        <ele>701.641</ele>
        <time>2022-08-24T07:37:51Z</time>
      </trkpt>
      <trkpt lat="43.11785599999968" lon="-1.2384790000000028">
        <ele>701.844</ele>
        <time>2022-08-24T07:37:52Z</time>
      </trkpt>
      <trkpt lat="43.11784899999969" lon="-1.2384680000000028">
        <ele>702.068</ele>
        <time>2022-08-24T07:37:53Z</time>
      </trkpt>
      <trkpt lat="43.11784299999969" lon="-1.2384560000000029">
        <ele>702.247</ele>
        <time>2022-08-24T07:37:54Z</time>
      </trkpt>
      <trkpt lat="43.11783699999969" lon="-1.2384460000000028">
        <ele>702.247</ele>
        <time>2022-08-24T07:37:55Z</time>
      </trkpt>
      <trkpt lat="43.11782999999969" lon="-1.238434000000003">
        <ele>702.429</ele>
        <time>2022-08-24T07:37:56Z</time>
      </trkpt>
      <trkpt lat="43.11782399999969" lon="-1.238426000000003">
        <ele>702.621</ele>
        <time>2022-08-24T07:37:57Z</time>
      </trkpt>
      <trkpt lat="43.1178169999997" lon="-1.2384190000000028">
        <ele>702.809</ele>
        <time>2022-08-24T07:37:58Z</time>
      </trkpt>
      <trkpt lat="43.117808999999696" lon="-1.2384140000000028">
        <ele>703.055</ele>
        <time>2022-08-24T07:37:59Z</time>
      </trkpt>
      <trkpt lat="43.117797999999695" lon="-1.2384090000000028">
        <ele>703.255</ele>
        <time>2022-08-24T07:38:00Z</time>
      </trkpt>
      <trkpt lat="43.1177909999997" lon="-1.2384000000000028">
        <ele>703.445</ele>
        <time>2022-08-24T07:38:01Z</time>
      </trkpt>
      <trkpt lat="43.1177849999997" lon="-1.2383920000000028">
        <ele>703.671</ele>
        <time>2022-08-24T07:38:02Z</time>
      </trkpt>
      <trkpt lat="43.117774999999696" lon="-1.2383810000000028">
        <ele>703.843</ele>
        <time>2022-08-24T07:38:03Z</time>
      </trkpt>
      <trkpt lat="43.117774999999696" lon="-1.2383810000000028">
        <ele>704.010</ele>
        <time>2022-08-24T07:38:04Z</time>
      </trkpt>
      <trkpt lat="43.1177579999997" lon="-1.238356000000003">
        <ele>704.253</ele>
        <time>2022-08-24T07:38:05Z</time>
      </trkpt>
      <trkpt lat="43.1177489999997" lon="-1.238344000000003">
        <ele>704.427</ele>
        <time>2022-08-24T07:38:06Z</time>
      </trkpt>
      <trkpt lat="43.1177409999997" lon="-1.238335000000003">
        <ele>704.656</ele>
        <time>2022-08-24T07:38:07Z</time>
      </trkpt>
      <trkpt lat="43.1177409999997" lon="-1.238335000000003">
        <ele>704.846</ele>
        <time>2022-08-24T07:38:08Z</time>
      </trkpt>
      <trkpt lat="43.1177209999997" lon="-1.238319000000003">
        <ele>705.088</ele>
        <time>2022-08-24T07:38:09Z</time>
      </trkpt>
      <trkpt lat="43.117710999999694" lon="-1.238316000000003">
        <ele>705.216</ele>
        <time>2022-08-24T07:38:10Z</time>
      </trkpt>
      <trkpt lat="43.117699999999694" lon="-1.2383150000000032">
        <ele>705.409</ele>
        <time>2022-08-24T07:38:11Z</time>
      </trkpt>
      <trkpt lat="43.11768999999969" lon="-1.238313000000003">
        <ele>705.675</ele>
        <time>2022-08-24T07:38:12Z</time>
      </trkpt>
      <trkpt lat="43.11768099999969" lon="-1.238311000000003">
        <ele>705.895</ele>
        <time>2022-08-24T07:38:13Z</time>
      </trkpt>
      <trkpt lat="43.11767199999969" lon="-1.2383070000000032">
        <ele>705.835</ele>
        <time>2022-08-24T07:38:14Z</time>
      </trkpt>
      <trkpt lat="43.11766399999969" lon="-1.238305000000003">
        <ele>706.421</ele>
        <time>2022-08-24T07:38:15Z</time>
      </trkpt>
      <trkpt lat="43.117654999999694" lon="-1.2383010000000032">
        <ele>706.623</ele>
        <time>2022-08-24T07:38:16Z</time>
      </trkpt>
      <trkpt lat="43.1176479999997" lon="-1.2382960000000032">
        <ele>707.050</ele>
        <time>2022-08-24T07:38:17Z</time>
      </trkpt>
      <trkpt lat="43.1176419999997" lon="-1.2382930000000032">
        <ele>707.223</ele>
        <time>2022-08-24T07:38:18Z</time>
      </trkpt>
      <trkpt lat="43.1176309999997" lon="-1.2382930000000032">
        <ele>707.467</ele>
        <time>2022-08-24T07:38:19Z</time>
      </trkpt>
      <trkpt lat="43.1176219999997" lon="-1.2383030000000033">
        <ele>707.856</ele>
        <time>2022-08-24T07:38:20Z</time>
      </trkpt>
      <trkpt lat="43.1176179999997" lon="-1.2383200000000032">
        <ele>708.055</ele>
        <time>2022-08-24T07:38:21Z</time>
      </trkpt>
      <trkpt lat="43.1176179999997" lon="-1.238340000000003">
        <ele>708.007</ele>
        <time>2022-08-24T07:38:22Z</time>
      </trkpt>
      <trkpt lat="43.1176219999997" lon="-1.238360000000003">
        <ele>708.217</ele>
        <time>2022-08-24T07:38:23Z</time>
      </trkpt>
      <trkpt lat="43.1176309999997" lon="-1.238374000000003">
        <ele>708.209</ele>
        <time>2022-08-24T07:38:24Z</time>
      </trkpt>
      <trkpt lat="43.1176439999997" lon="-1.238384000000003">
        <ele>708.256</ele>
        <time>2022-08-24T07:38:25Z</time>
      </trkpt>
      <trkpt lat="43.1176509999997" lon="-1.238388000000003">
        <ele>708.296</ele>
        <time>2022-08-24T07:38:26Z</time>
      </trkpt>
      <trkpt lat="43.117654999999694" lon="-1.238384000000003">
        <ele>708.646</ele>
        <time>2022-08-24T07:38:42Z</time>
      </trkpt>
      <trkpt lat="43.117656999999696" lon="-1.238365000000003">
        <ele>708.662</ele>
        <time>2022-08-24T07:38:43Z</time>
      </trkpt>
      <trkpt lat="43.117659999999695" lon="-1.2383450000000031">
        <ele>708.674</ele>
        <time>2022-08-24T07:38:44Z</time>
      </trkpt>
      <trkpt lat="43.117653999999696" lon="-1.2382850000000032">
        <ele>708.421</ele>
        <time>2022-08-24T07:38:47Z</time>
      </trkpt>
      <trkpt lat="43.11764399999969" lon="-1.2382750000000031">
        <ele>708.494</ele>
        <time>2022-08-24T07:38:48Z</time>
      </trkpt>
      <trkpt lat="43.11762999999969" lon="-1.2382740000000032">
        <ele>708.438</ele>
        <time>2022-08-24T07:38:49Z</time>
      </trkpt>
      <trkpt lat="43.117614999999695" lon="-1.2382720000000031">
        <ele>708.427</ele>
        <time>2022-08-24T07:38:50Z</time>
      </trkpt>
      <trkpt lat="43.1175859999997" lon="-1.2382630000000032">
        <ele>708.296</ele>
        <time>2022-08-24T07:38:52Z</time>
      </trkpt>
      <trkpt lat="43.117572999999695" lon="-1.2382570000000033">
        <ele>708.431</ele>
        <time>2022-08-24T07:38:53Z</time>
      </trkpt>
      <trkpt lat="43.11755999999969" lon="-1.2382500000000032">
        <ele>708.424</ele>
        <time>2022-08-24T07:38:54Z</time>
      </trkpt>
      <trkpt lat="43.11754999999969" lon="-1.2382460000000033">
        <ele>708.409</ele>
        <time>2022-08-24T07:38:55Z</time>
      </trkpt>
      <trkpt lat="43.11753899999969" lon="-1.2382440000000032">
        <ele>708.650</ele>
        <time>2022-08-24T07:38:56Z</time>
      </trkpt>
      <trkpt lat="43.11751399999969" lon="-1.2382450000000031">
        <ele>709.060</ele>
        <time>2022-08-24T07:38:58Z</time>
      </trkpt>
      <trkpt lat="43.117477999999686" lon="-1.2382400000000031">
        <ele>710.010</ele>
        <time>2022-08-24T07:39:01Z</time>
      </trkpt>
      <trkpt lat="43.117463999999686" lon="-1.2382360000000032">
        <ele>710.226</ele>
        <time>2022-08-24T07:39:02Z</time>
      </trkpt>
      <trkpt lat="43.11745399999968" lon="-1.2382350000000033">
        <ele>710.438</ele>
        <time>2022-08-24T07:39:03Z</time>
      </trkpt>
      <trkpt lat="43.11744099999968" lon="-1.2382330000000032">
        <ele>710.895</ele>
        <time>2022-08-24T07:39:04Z</time>
      </trkpt>
      <trkpt lat="43.11743299999968" lon="-1.2382310000000032">
        <ele>711.068</ele>
        <time>2022-08-24T07:39:05Z</time>
      </trkpt>
      <trkpt lat="43.11742099999968" lon="-1.2382230000000032">
        <ele>711.252</ele>
        <time>2022-08-24T07:39:06Z</time>
      </trkpt>
      <trkpt lat="43.11739799999968" lon="-1.2382110000000033">
        <ele>711.831</ele>
        <time>2022-08-24T07:39:08Z</time>
      </trkpt>
      <trkpt lat="43.11738499999968" lon="-1.2382120000000032">
        <ele>712.098</ele>
        <time>2022-08-24T07:39:09Z</time>
      </trkpt>
      <trkpt lat="43.11737299999968" lon="-1.2382070000000032">
        <ele>712.415</ele>
        <time>2022-08-24T07:39:10Z</time>
      </trkpt>
      <trkpt lat="43.11736499999968" lon="-1.2381990000000032">
        <ele>712.626</ele>
        <time>2022-08-24T07:39:11Z</time>
      </trkpt>
      <trkpt lat="43.11735299999968" lon="-1.238189000000003">
        <ele>712.809</ele>
        <time>2022-08-24T07:39:12Z</time>
      </trkpt>
      <trkpt lat="43.11734199999968" lon="-1.2381860000000031">
        <ele>713.050</ele>
        <time>2022-08-24T07:39:13Z</time>
      </trkpt>
      <trkpt lat="43.11732999999968" lon="-1.238184000000003">
        <ele>713.070</ele>
        <time>2022-08-24T07:39:14Z</time>
      </trkpt>
      <trkpt lat="43.11731999999968" lon="-1.2381860000000031">
        <ele>713.450</ele>
        <time>2022-08-24T07:39:15Z</time>
      </trkpt>
      <trkpt lat="43.11730699999968" lon="-1.238187000000003">
        <ele>713.656</ele>
        <time>2022-08-24T07:39:16Z</time>
      </trkpt>
      <trkpt lat="43.11729299999968" lon="-1.238181000000003">
        <ele>714.238</ele>
        <time>2022-08-24T07:39:17Z</time>
      </trkpt>
      <trkpt lat="43.117281999999676" lon="-1.2381770000000032">
        <ele>714.495</ele>
        <time>2022-08-24T07:39:18Z</time>
      </trkpt>
      <trkpt lat="43.117270999999675" lon="-1.2381760000000033">
        <ele>714.618</ele>
        <time>2022-08-24T07:39:19Z</time>
      </trkpt>
      <trkpt lat="43.11726199999968" lon="-1.2381740000000032">
        <ele>715.072</ele>
        <time>2022-08-24T07:39:20Z</time>
      </trkpt>
      <trkpt lat="43.117248999999674" lon="-1.2381690000000032">
        <ele>715.091</ele>
        <time>2022-08-24T07:39:21Z</time>
      </trkpt>
      <trkpt lat="43.11724099999967" lon="-1.2381640000000032">
        <ele>715.298</ele>
        <time>2022-08-24T07:39:22Z</time>
      </trkpt>
      <trkpt lat="43.11723099999967" lon="-1.238157000000003">
        <ele>715.215</ele>
        <time>2022-08-24T07:39:23Z</time>
      </trkpt>
      <trkpt lat="43.11722299999967" lon="-1.2381530000000032">
        <ele>715.426</ele>
        <time>2022-08-24T07:39:24Z</time>
      </trkpt>
      <trkpt lat="43.11721799999967" lon="-1.2381500000000032">
        <ele>715.609</ele>
        <time>2022-08-24T07:39:25Z</time>
      </trkpt>
      <trkpt lat="43.117207999999664" lon="-1.2381470000000032">
        <ele>715.830</ele>
        <time>2022-08-24T07:39:26Z</time>
      </trkpt>
      <trkpt lat="43.117198999999665" lon="-1.2381450000000032">
        <ele>716.050</ele>
        <time>2022-08-24T07:39:27Z</time>
      </trkpt>
      <trkpt lat="43.117187999999665" lon="-1.238138000000003">
        <ele>716.210</ele>
        <time>2022-08-24T07:39:28Z</time>
      </trkpt>
      <trkpt lat="43.11717499999966" lon="-1.2381320000000031">
        <ele>716.226</ele>
        <time>2022-08-24T07:39:29Z</time>
      </trkpt>
      <trkpt lat="43.11716399999966" lon="-1.238125000000003">
        <ele>716.238</ele>
        <time>2022-08-24T07:39:30Z</time>
      </trkpt>
      <trkpt lat="43.11715799999966" lon="-1.238122000000003">
        <ele>716.415</ele>
        <time>2022-08-24T07:39:31Z</time>
      </trkpt>
      <trkpt lat="43.11714399999966" lon="-1.238117000000003">
        <ele>716.698</ele>
        <time>2022-08-24T07:39:32Z</time>
      </trkpt>
      <trkpt lat="43.11713299999966" lon="-1.2381130000000031">
        <ele>716.862</ele>
        <time>2022-08-24T07:39:33Z</time>
      </trkpt>
      <trkpt lat="43.11712499999966" lon="-1.2381090000000032">
        <ele>717.031</ele>
        <time>2022-08-24T07:39:34Z</time>
      </trkpt>
      <trkpt lat="43.11711899999966" lon="-1.2381060000000033">
        <ele>717.085</ele>
        <time>2022-08-24T07:39:35Z</time>
      </trkpt>
      <trkpt lat="43.117114999999664" lon="-1.2381030000000033">
        <ele>717.489</ele>
        <time>2022-08-24T07:39:36Z</time>
      </trkpt>
      <trkpt lat="43.11710799999967" lon="-1.2380980000000033">
        <ele>717.417</ele>
        <time>2022-08-24T07:39:37Z</time>
      </trkpt>
      <trkpt lat="43.117097999999665" lon="-1.2380940000000034">
        <ele>717.609</ele>
        <time>2022-08-24T07:39:38Z</time>
      </trkpt>
      <trkpt lat="43.117086999999664" lon="-1.2380880000000034">
        <ele>717.839</ele>
        <time>2022-08-24T07:39:39Z</time>
      </trkpt>
      <trkpt lat="43.11707399999966" lon="-1.2380830000000034">
        <ele>718.099</ele>
        <time>2022-08-24T07:39:40Z</time>
      </trkpt>
      <trkpt lat="43.117066999999665" lon="-1.2380800000000034">
        <ele>718.239</ele>
        <time>2022-08-24T07:39:41Z</time>
      </trkpt>
      <trkpt lat="43.11705399999966" lon="-1.2380770000000034">
        <ele>718.455</ele>
        <time>2022-08-24T07:39:42Z</time>
      </trkpt>
      <trkpt lat="43.11704099999966" lon="-1.2380750000000034">
        <ele>718.487</ele>
        <time>2022-08-24T07:39:43Z</time>
      </trkpt>
      <trkpt lat="43.11704099999966" lon="-1.2380750000000034">
        <ele>718.674</ele>
        <time>2022-08-24T07:39:44Z</time>
      </trkpt>
      <trkpt lat="43.11701599999966" lon="-1.2380650000000033">
        <ele>718.887</ele>
        <time>2022-08-24T07:39:45Z</time>
      </trkpt>
      <trkpt lat="43.11700399999966" lon="-1.2380600000000033">
        <ele>719.041</ele>
        <time>2022-08-24T07:39:46Z</time>
      </trkpt>
      <trkpt lat="43.11698699999966" lon="-1.2380500000000032">
        <ele>719.070</ele>
        <time>2022-08-24T07:39:47Z</time>
      </trkpt>
      <trkpt lat="43.11696899999966" lon="-1.2380410000000033">
        <ele>719.473</ele>
        <time>2022-08-24T07:39:48Z</time>
      </trkpt>
      <trkpt lat="43.11694999999966" lon="-1.2380340000000032">
        <ele>719.685</ele>
        <time>2022-08-24T07:39:49Z</time>
      </trkpt>
      <trkpt lat="43.116934999999664" lon="-1.2380300000000033">
        <ele>719.813</ele>
        <time>2022-08-24T07:39:50Z</time>
      </trkpt>
      <trkpt lat="43.116922999999666" lon="-1.2380240000000033">
        <ele>720.009</ele>
        <time>2022-08-24T07:39:51Z</time>
      </trkpt>
      <trkpt lat="43.11691099999967" lon="-1.2380170000000033">
        <ele>720.238</ele>
        <time>2022-08-24T07:39:52Z</time>
      </trkpt>
      <trkpt lat="43.11689899999967" lon="-1.2380070000000032">
        <ele>720.468</ele>
        <time>2022-08-24T07:39:53Z</time>
      </trkpt>
      <trkpt lat="43.11688999999967" lon="-1.2379970000000031">
        <ele>720.688</ele>
        <time>2022-08-24T07:39:54Z</time>
      </trkpt>
      <trkpt lat="43.11687699999967" lon="-1.2379890000000031">
        <ele>720.864</ele>
        <time>2022-08-24T07:39:55Z</time>
      </trkpt>
      <trkpt lat="43.11686899999967" lon="-1.237979000000003">
        <ele>721.056</ele>
        <time>2022-08-24T07:39:56Z</time>
      </trkpt>
      <trkpt lat="43.116860999999666" lon="-1.237971000000003">
        <ele>721.473</ele>
        <time>2022-08-24T07:39:57Z</time>
      </trkpt>
      <trkpt lat="43.11685099999966" lon="-1.237965000000003">
        <ele>721.686</ele>
        <time>2022-08-24T07:39:58Z</time>
      </trkpt>
      <trkpt lat="43.11683999999966" lon="-1.237965000000003">
        <ele>721.850</ele>
        <time>2022-08-24T07:39:59Z</time>
      </trkpt>
      <trkpt lat="43.11682899999966" lon="-1.237963000000003">
        <ele>722.269</ele>
        <time>2022-08-24T07:40:00Z</time>
      </trkpt>
      <trkpt lat="43.11681999999966" lon="-1.237958000000003">
        <ele>722.258</ele>
        <time>2022-08-24T07:40:01Z</time>
      </trkpt>
      <trkpt lat="43.11680999999966" lon="-1.237953000000003">
        <ele>722.452</ele>
        <time>2022-08-24T07:40:02Z</time>
      </trkpt>
      <trkpt lat="43.11679899999966" lon="-1.237950000000003">
        <ele>722.617</ele>
        <time>2022-08-24T07:40:03Z</time>
      </trkpt>
      <trkpt lat="43.11678999999966" lon="-1.237946000000003">
        <ele>722.809</ele>
        <time>2022-08-24T07:40:04Z</time>
      </trkpt>
      <trkpt lat="43.11678099999966" lon="-1.2379420000000032">
        <ele>722.846</ele>
        <time>2022-08-24T07:40:05Z</time>
      </trkpt>
      <trkpt lat="43.11677099999966" lon="-1.2379350000000031">
        <ele>723.266</ele>
        <time>2022-08-24T07:40:06Z</time>
      </trkpt>
      <trkpt lat="43.11675999999966" lon="-1.237927000000003">
        <ele>723.476</ele>
        <time>2022-08-24T07:40:07Z</time>
      </trkpt>
      <trkpt lat="43.11675099999966" lon="-1.2379240000000031">
        <ele>723.422</ele>
        <time>2022-08-24T07:40:08Z</time>
      </trkpt>
      <trkpt lat="43.11674399999966" lon="-1.2379230000000032">
        <ele>723.884</ele>
        <time>2022-08-24T07:40:09Z</time>
      </trkpt>
      <trkpt lat="43.11676399999966" lon="-1.2379210000000032">
        <ele>724.041</ele>
        <time>2022-08-24T07:40:10Z</time>
      </trkpt>
      <trkpt lat="43.116762999999665" lon="-1.2379170000000033">
        <ele>724.264</ele>
        <time>2022-08-24T07:40:11Z</time>
      </trkpt>
      <trkpt lat="43.116753999999666" lon="-1.2379140000000033">
        <ele>724.488</ele>
        <time>2022-08-24T07:40:12Z</time>
      </trkpt>
      <trkpt lat="43.116742999999666" lon="-1.2379070000000032">
        <ele>724.437</ele>
        <time>2022-08-24T07:40:13Z</time>
      </trkpt>
      <trkpt lat="43.11673399999967" lon="-1.237911000000003">
        <ele>724.675</ele>
        <time>2022-08-24T07:40:14Z</time>
      </trkpt>
      <trkpt lat="43.11672999999967" lon="-1.2379100000000032">
        <ele>724.828</ele>
        <time>2022-08-24T07:40:15Z</time>
      </trkpt>
      <trkpt lat="43.11672099999967" lon="-1.237911000000003">
        <ele>725.020</ele>
        <time>2022-08-24T07:40:16Z</time>
      </trkpt>
      <trkpt lat="43.11671099999967" lon="-1.2379100000000032">
        <ele>725.009</ele>
        <time>2022-08-24T07:40:17Z</time>
      </trkpt>
      <trkpt lat="43.116700999999665" lon="-1.2379060000000033">
        <ele>725.428</ele>
        <time>2022-08-24T07:40:18Z</time>
      </trkpt>
      <trkpt lat="43.116689999999664" lon="-1.2379040000000032">
        <ele>725.418</ele>
        <time>2022-08-24T07:40:19Z</time>
      </trkpt>
      <trkpt lat="43.11667999999966" lon="-1.2378990000000032">
        <ele>725.638</ele>
        <time>2022-08-24T07:40:20Z</time>
      </trkpt>
      <trkpt lat="43.11667199999966" lon="-1.2378940000000032">
        <ele>725.834</ele>
        <time>2022-08-24T07:40:21Z</time>
      </trkpt>
      <trkpt lat="43.11666099999966" lon="-1.2378860000000032">
        <ele>726.066</ele>
        <time>2022-08-24T07:40:22Z</time>
      </trkpt>
      <trkpt lat="43.11664099999966" lon="-1.2378780000000031">
        <ele>726.213</ele>
        <time>2022-08-24T07:40:23Z</time>
      </trkpt>
      <trkpt lat="43.11662599999966" lon="-1.237868000000003">
        <ele>726.466</ele>
        <time>2022-08-24T07:40:24Z</time>
      </trkpt>
      <trkpt lat="43.11661299999966" lon="-1.237860000000003">
        <ele>726.670</ele>
        <time>2022-08-24T07:40:25Z</time>
      </trkpt>
      <trkpt lat="43.11660099999966" lon="-1.2378540000000031">
        <ele>726.629</ele>
        <time>2022-08-24T07:40:26Z</time>
      </trkpt>
      <trkpt lat="43.116593999999665" lon="-1.2378450000000032">
        <ele>727.083</ele>
        <time>2022-08-24T07:40:27Z</time>
      </trkpt>
      <trkpt lat="43.11657899999967" lon="-1.2378410000000033">
        <ele>727.225</ele>
        <time>2022-08-24T07:40:28Z</time>
      </trkpt>
      <trkpt lat="43.11655899999967" lon="-1.2378380000000033">
        <ele>727.417</ele>
        <time>2022-08-24T07:40:29Z</time>
      </trkpt>
      <trkpt lat="43.11654499999967" lon="-1.2378330000000033">
        <ele>727.609</ele>
        <time>2022-08-24T07:40:30Z</time>
      </trkpt>
      <trkpt lat="43.11652799999967" lon="-1.2378270000000033">
        <ele>727.839</ele>
        <time>2022-08-24T07:40:31Z</time>
      </trkpt>
      <trkpt lat="43.116511999999666" lon="-1.2378260000000034">
        <ele>728.089</ele>
        <time>2022-08-24T07:40:32Z</time>
      </trkpt>
      <trkpt lat="43.11649199999967" lon="-1.2378210000000034">
        <ele>728.089</ele>
        <time>2022-08-24T07:40:33Z</time>
      </trkpt>
      <trkpt lat="43.11648299999967" lon="-1.2378130000000034">
        <ele>728.235</ele>
        <time>2022-08-24T07:40:34Z</time>
      </trkpt>
      <trkpt lat="43.11647399999967" lon="-1.2378110000000033">
        <ele>728.667</ele>
        <time>2022-08-24T07:40:35Z</time>
      </trkpt>
      <trkpt lat="43.11646499999967" lon="-1.2378110000000033">
        <ele>728.884</ele>
        <time>2022-08-24T07:40:36Z</time>
      </trkpt>
      <trkpt lat="43.11645499999967" lon="-1.2378080000000034">
        <ele>729.067</ele>
        <time>2022-08-24T07:40:37Z</time>
      </trkpt>
      <trkpt lat="43.11644399999967" lon="-1.2378040000000035">
        <ele>729.291</ele>
        <time>2022-08-24T07:40:38Z</time>
      </trkpt>
      <trkpt lat="43.11642299999967" lon="-1.2378060000000035">
        <ele>729.440</ele>
        <time>2022-08-24T07:40:39Z</time>
      </trkpt>
      <trkpt lat="43.11641199999967" lon="-1.2378030000000035">
        <ele>729.695</ele>
        <time>2022-08-24T07:40:40Z</time>
      </trkpt>
      <trkpt lat="43.11640499999967" lon="-1.2378000000000036">
        <ele>729.849</ele>
        <time>2022-08-24T07:40:41Z</time>
      </trkpt>
      <trkpt lat="43.116387999999674" lon="-1.2377940000000036">
        <ele>730.223</ele>
        <time>2022-08-24T07:40:42Z</time>
      </trkpt>
      <trkpt lat="43.116375999999676" lon="-1.2377900000000037">
        <ele>730.209</ele>
        <time>2022-08-24T07:40:43Z</time>
      </trkpt>
      <trkpt lat="43.116364999999675" lon="-1.2377860000000038">
        <ele>730.490</ele>
        <time>2022-08-24T07:40:44Z</time>
      </trkpt>
      <trkpt lat="43.116353999999674" lon="-1.2377780000000038">
        <ele>730.480</ele>
        <time>2022-08-24T07:40:45Z</time>
      </trkpt>
      <trkpt lat="43.116344999999676" lon="-1.2377720000000039">
        <ele>730.640</ele>
        <time>2022-08-24T07:40:46Z</time>
      </trkpt>
      <trkpt lat="43.116333999999675" lon="-1.2377670000000038">
        <ele>730.886</ele>
        <time>2022-08-24T07:40:47Z</time>
      </trkpt>
      <trkpt lat="43.116322999999674" lon="-1.2377610000000039">
        <ele>731.278</ele>
        <time>2022-08-24T07:40:48Z</time>
      </trkpt>
      <trkpt lat="43.116311999999674" lon="-1.237750000000004">
        <ele>731.655</ele>
        <time>2022-08-24T07:40:49Z</time>
      </trkpt>
      <trkpt lat="43.11630099999967" lon="-1.2377430000000038">
        <ele>731.818</ele>
        <time>2022-08-24T07:40:50Z</time>
      </trkpt>
      <trkpt lat="43.116294999999674" lon="-1.237742000000004">
        <ele>732.052</ele>
        <time>2022-08-24T07:40:51Z</time>
      </trkpt>
      <trkpt lat="43.116285999999675" lon="-1.2377400000000038">
        <ele>732.221</ele>
        <time>2022-08-24T07:40:52Z</time>
      </trkpt>
      <trkpt lat="43.116271999999675" lon="-1.2377370000000039">
        <ele>732.618</ele>
        <time>2022-08-24T07:40:53Z</time>
      </trkpt>
      <trkpt lat="43.116251999999676" lon="-1.2377340000000039">
        <ele>732.898</ele>
        <time>2022-08-24T07:40:54Z</time>
      </trkpt>
      <trkpt lat="43.11623699999968" lon="-1.2377290000000039">
        <ele>733.017</ele>
        <time>2022-08-24T07:40:55Z</time>
      </trkpt>
      <trkpt lat="43.11622599999968" lon="-1.2377190000000038">
        <ele>733.409</ele>
        <time>2022-08-24T07:40:56Z</time>
      </trkpt>
      <trkpt lat="43.116212999999675" lon="-1.2377160000000038">
        <ele>733.432</ele>
        <time>2022-08-24T07:40:57Z</time>
      </trkpt>
      <trkpt lat="43.116195999999675" lon="-1.2377100000000039">
        <ele>733.842</ele>
        <time>2022-08-24T07:40:58Z</time>
      </trkpt>
      <trkpt lat="43.116181999999675" lon="-1.2377080000000038">
        <ele>733.852</ele>
        <time>2022-08-24T07:40:59Z</time>
      </trkpt>
      <trkpt lat="43.11616999999968" lon="-1.2377030000000038">
        <ele>734.288</ele>
        <time>2022-08-24T07:41:00Z</time>
      </trkpt>
      <trkpt lat="43.11615799999968" lon="-1.2376940000000038">
        <ele>734.290</ele>
        <time>2022-08-24T07:41:01Z</time>
      </trkpt>
      <trkpt lat="43.11614699999968" lon="-1.237690000000004">
        <ele>734.297</ele>
        <time>2022-08-24T07:41:02Z</time>
      </trkpt>
      <trkpt lat="43.11613499999968" lon="-1.237679000000004">
        <ele>734.650</ele>
        <time>2022-08-24T07:41:03Z</time>
      </trkpt>
      <trkpt lat="43.11612599999968" lon="-1.237676000000004">
        <ele>734.654</ele>
        <time>2022-08-24T07:41:04Z</time>
      </trkpt>
      <trkpt lat="43.11611399999968" lon="-1.237671000000004">
        <ele>734.893</ele>
        <time>2022-08-24T07:41:05Z</time>
      </trkpt>
      <trkpt lat="43.11610299999968" lon="-1.237661000000004">
        <ele>735.092</ele>
        <time>2022-08-24T07:41:06Z</time>
      </trkpt>
      <trkpt lat="43.11609299999968" lon="-1.2376560000000039">
        <ele>735.273</ele>
        <time>2022-08-24T07:41:07Z</time>
      </trkpt>
      <trkpt lat="43.11607999999968" lon="-1.237652000000004">
        <ele>735.220</ele>
        <time>2022-08-24T07:41:08Z</time>
      </trkpt>
      <trkpt lat="43.116068999999676" lon="-1.237650000000004">
        <ele>735.409</ele>
        <time>2022-08-24T07:41:09Z</time>
      </trkpt>
      <trkpt lat="43.11606199999968" lon="-1.237652000000004">
        <ele>735.820</ele>
        <time>2022-08-24T07:41:10Z</time>
      </trkpt>
      <trkpt lat="43.11605399999968" lon="-1.237660000000004">
        <ele>736.060</ele>
        <time>2022-08-24T07:41:11Z</time>
      </trkpt>
      <trkpt lat="43.116043999999675" lon="-1.237662000000004">
        <ele>736.250</ele>
        <time>2022-08-24T07:41:12Z</time>
      </trkpt>
      <trkpt lat="43.11603499999968" lon="-1.237665000000004">
        <ele>736.256</ele>
        <time>2022-08-24T07:41:13Z</time>
      </trkpt>
      <trkpt lat="43.116024999999674" lon="-1.237670000000004">
        <ele>736.448</ele>
        <time>2022-08-24T07:41:14Z</time>
      </trkpt>
      <trkpt lat="43.11601499999967" lon="-1.237670000000004">
        <ele>736.665</ele>
        <time>2022-08-24T07:41:15Z</time>
      </trkpt>
      <trkpt lat="43.11600699999967" lon="-1.2376660000000042">
        <ele>736.888</ele>
        <time>2022-08-24T07:41:16Z</time>
      </trkpt>
      <trkpt lat="43.11599899999967" lon="-1.2376630000000042">
        <ele>737.072</ele>
        <time>2022-08-24T07:41:17Z</time>
      </trkpt>
      <trkpt lat="43.11599099999967" lon="-1.2376600000000042">
        <ele>737.021</ele>
        <time>2022-08-24T07:41:18Z</time>
      </trkpt>
      <trkpt lat="43.11597899999967" lon="-1.2376580000000041">
        <ele>737.258</ele>
        <time>2022-08-24T07:41:19Z</time>
      </trkpt>
      <trkpt lat="43.11596999999967" lon="-1.2376610000000041">
        <ele>737.252</ele>
        <time>2022-08-24T07:41:20Z</time>
      </trkpt>
      <trkpt lat="43.11596099999967" lon="-1.237664000000004">
        <ele>737.417</ele>
        <time>2022-08-24T07:41:21Z</time>
      </trkpt>
      <trkpt lat="43.11595199999967" lon="-1.237659000000004">
        <ele>737.409</ele>
        <time>2022-08-24T07:41:22Z</time>
      </trkpt>
      <trkpt lat="43.115939999999675" lon="-1.237653000000004">
        <ele>737.656</ele>
        <time>2022-08-24T07:41:23Z</time>
      </trkpt>
      <trkpt lat="43.11592999999967" lon="-1.237643000000004">
        <ele>737.826</ele>
        <time>2022-08-24T07:41:24Z</time>
      </trkpt>
      <trkpt lat="43.11591999999967" lon="-1.237635000000004">
        <ele>738.026</ele>
        <time>2022-08-24T07:41:25Z</time>
      </trkpt>
      <trkpt lat="43.11591199999967" lon="-1.237633000000004">
        <ele>738.072</ele>
        <time>2022-08-24T07:41:26Z</time>
      </trkpt>
      <trkpt lat="43.11590399999967" lon="-1.237630000000004">
        <ele>738.264</ele>
        <time>2022-08-24T07:41:27Z</time>
      </trkpt>
      <trkpt lat="43.115895999999665" lon="-1.237631000000004">
        <ele>738.461</ele>
        <time>2022-08-24T07:41:28Z</time>
      </trkpt>
      <trkpt lat="43.11588699999967" lon="-1.2376290000000039">
        <ele>738.434</ele>
        <time>2022-08-24T07:41:29Z</time>
      </trkpt>
      <trkpt lat="43.115876999999664" lon="-1.237628000000004">
        <ele>738.638</ele>
        <time>2022-08-24T07:41:30Z</time>
      </trkpt>
      <trkpt lat="43.11586699999966" lon="-1.237628000000004">
        <ele>738.827</ele>
        <time>2022-08-24T07:41:31Z</time>
      </trkpt>
      <trkpt lat="43.11585699999966" lon="-1.237631000000004">
        <ele>739.068</ele>
        <time>2022-08-24T07:41:32Z</time>
      </trkpt>
      <trkpt lat="43.115846999999654" lon="-1.2376290000000039">
        <ele>739.242</ele>
        <time>2022-08-24T07:41:33Z</time>
      </trkpt>
      <trkpt lat="43.11583599999965" lon="-1.237625000000004">
        <ele>739.426</ele>
        <time>2022-08-24T07:41:34Z</time>
      </trkpt>
      <trkpt lat="43.11582299999965" lon="-1.237615000000004">
        <ele>739.609</ele>
        <time>2022-08-24T07:41:35Z</time>
      </trkpt>
      <trkpt lat="43.11581099999965" lon="-1.237615000000004">
        <ele>739.637</ele>
        <time>2022-08-24T07:41:36Z</time>
      </trkpt>
      <trkpt lat="43.11579999999965" lon="-1.237615000000004">
        <ele>739.847</ele>
        <time>2022-08-24T07:41:37Z</time>
      </trkpt>
      <trkpt lat="43.11578899999965" lon="-1.2376190000000038">
        <ele>740.077</ele>
        <time>2022-08-24T07:41:38Z</time>
      </trkpt>
      <trkpt lat="43.11577599999965" lon="-1.2376220000000038">
        <ele>740.233</ele>
        <time>2022-08-24T07:41:39Z</time>
      </trkpt>
      <trkpt lat="43.11576399999965" lon="-1.2376240000000038">
        <ele>740.245</ele>
        <time>2022-08-24T07:41:40Z</time>
      </trkpt>
      <trkpt lat="43.11574999999965" lon="-1.2376240000000038">
        <ele>740.452</ele>
        <time>2022-08-24T07:41:41Z</time>
      </trkpt>
      <trkpt lat="43.11573799999965" lon="-1.2376220000000038">
        <ele>740.665</ele>
        <time>2022-08-24T07:41:42Z</time>
      </trkpt>
      <trkpt lat="43.11572499999965" lon="-1.2376180000000039">
        <ele>740.889</ele>
        <time>2022-08-24T07:41:43Z</time>
      </trkpt>
      <trkpt lat="43.11571199999965" lon="-1.237615000000004">
        <ele>740.868</ele>
        <time>2022-08-24T07:41:44Z</time>
      </trkpt>
      <trkpt lat="43.115698999999644" lon="-1.237612000000004">
        <ele>741.267</ele>
        <time>2022-08-24T07:41:45Z</time>
      </trkpt>
      <trkpt lat="43.11568799999964" lon="-1.237606000000004">
        <ele>741.481</ele>
        <time>2022-08-24T07:41:46Z</time>
      </trkpt>
      <trkpt lat="43.115675999999645" lon="-1.237601000000004">
        <ele>741.619</ele>
        <time>2022-08-24T07:41:47Z</time>
      </trkpt>
      <trkpt lat="43.11566299999964" lon="-1.237597000000004">
        <ele>741.809</ele>
        <time>2022-08-24T07:41:48Z</time>
      </trkpt>
      <trkpt lat="43.11564899999964" lon="-1.237595000000004">
        <ele>742.017</ele>
        <time>2022-08-24T07:41:49Z</time>
      </trkpt>
      <trkpt lat="43.115636999999644" lon="-1.237598000000004">
        <ele>742.217</ele>
        <time>2022-08-24T07:41:50Z</time>
      </trkpt>
      <trkpt lat="43.115624999999646" lon="-1.237601000000004">
        <ele>742.487</ele>
        <time>2022-08-24T07:41:51Z</time>
      </trkpt>
      <trkpt lat="43.115613999999646" lon="-1.237604000000004">
        <ele>742.893</ele>
        <time>2022-08-24T07:41:52Z</time>
      </trkpt>
      <trkpt lat="43.115599999999645" lon="-1.2376080000000038">
        <ele>743.045</ele>
        <time>2022-08-24T07:41:53Z</time>
      </trkpt>
      <trkpt lat="43.11558799999965" lon="-1.2376110000000038">
        <ele>743.432</ele>
        <time>2022-08-24T07:41:54Z</time>
      </trkpt>
      <trkpt lat="43.11557599999965" lon="-1.2376140000000038">
        <ele>743.485</ele>
        <time>2022-08-24T07:41:55Z</time>
      </trkpt>
      <trkpt lat="43.11556399999965" lon="-1.2376100000000039">
        <ele>743.679</ele>
        <time>2022-08-24T07:41:56Z</time>
      </trkpt>
      <trkpt lat="43.11554999999965" lon="-1.2376050000000038">
        <ele>743.638</ele>
        <time>2022-08-24T07:41:57Z</time>
      </trkpt>
      <trkpt lat="43.11553499999965" lon="-1.2376000000000038">
        <ele>743.847</ele>
        <time>2022-08-24T07:41:58Z</time>
      </trkpt>
      <trkpt lat="43.11552199999965" lon="-1.2375930000000037">
        <ele>743.829</ele>
        <time>2022-08-24T07:41:59Z</time>
      </trkpt>
      <trkpt lat="43.11550499999965" lon="-1.2375820000000037">
        <ele>744.021</ele>
        <time>2022-08-24T07:42:00Z</time>
      </trkpt>
      <trkpt lat="43.11549499999965" lon="-1.2375770000000037">
        <ele>744.209</ele>
        <time>2022-08-24T07:42:01Z</time>
      </trkpt>
      <trkpt lat="43.11548399999965" lon="-1.2375720000000037">
        <ele>744.685</ele>
        <time>2022-08-24T07:42:02Z</time>
      </trkpt>
      <trkpt lat="43.115473999999644" lon="-1.2375690000000037">
        <ele>744.865</ele>
        <time>2022-08-24T07:42:03Z</time>
      </trkpt>
      <trkpt lat="43.115464999999645" lon="-1.2375650000000038">
        <ele>744.835</ele>
        <time>2022-08-24T07:42:04Z</time>
      </trkpt>
      <trkpt lat="43.11544999999965" lon="-1.2375620000000038">
        <ele>745.271</ele>
        <time>2022-08-24T07:42:05Z</time>
      </trkpt>
      <trkpt lat="43.11543499999965" lon="-1.2375620000000038">
        <ele>745.463</ele>
        <time>2022-08-24T07:42:06Z</time>
      </trkpt>
      <trkpt lat="43.11542199999965" lon="-1.2375620000000038">
        <ele>745.670</ele>
        <time>2022-08-24T07:42:07Z</time>
      </trkpt>
      <trkpt lat="43.11540799999965" lon="-1.2375620000000038">
        <ele>745.823</ele>
        <time>2022-08-24T07:42:08Z</time>
      </trkpt>
      <trkpt lat="43.115397999999644" lon="-1.237561000000004">
        <ele>746.067</ele>
        <time>2022-08-24T07:42:09Z</time>
      </trkpt>
      <trkpt lat="43.11538499999964" lon="-1.2375590000000039">
        <ele>746.266</ele>
        <time>2022-08-24T07:42:10Z</time>
      </trkpt>
      <trkpt lat="43.11537499999964" lon="-1.237561000000004">
        <ele>746.238</ele>
        <time>2022-08-24T07:42:11Z</time>
      </trkpt>
      <trkpt lat="43.11536599999964" lon="-1.2375620000000038">
        <ele>746.470</ele>
        <time>2022-08-24T07:42:12Z</time>
      </trkpt>
      <trkpt lat="43.11535899999964" lon="-1.2375640000000039">
        <ele>746.817</ele>
        <time>2022-08-24T07:42:13Z</time>
      </trkpt>
      <trkpt lat="43.11534799999964" lon="-1.2375650000000038">
        <ele>747.009</ele>
        <time>2022-08-24T07:42:14Z</time>
      </trkpt>
      <trkpt lat="43.115335999999644" lon="-1.2375670000000039">
        <ele>747.274</ele>
        <time>2022-08-24T07:42:15Z</time>
      </trkpt>
      <trkpt lat="43.11532299999964" lon="-1.2375650000000038">
        <ele>747.454</ele>
        <time>2022-08-24T07:42:16Z</time>
      </trkpt>
      <trkpt lat="43.11531199999964" lon="-1.2375680000000038">
        <ele>747.644</ele>
        <time>2022-08-24T07:42:17Z</time>
      </trkpt>
      <trkpt lat="43.11531199999964" lon="-1.2375680000000038">
        <ele>747.860</ele>
        <time>2022-08-24T07:42:18Z</time>
      </trkpt>
      <trkpt lat="43.11528999999964" lon="-1.2375670000000039">
        <ele>747.872</ele>
        <time>2022-08-24T07:42:19Z</time>
      </trkpt>
      <trkpt lat="43.11527799999964" lon="-1.2375670000000039">
        <ele>747.839</ele>
        <time>2022-08-24T07:42:20Z</time>
      </trkpt>
      <trkpt lat="43.11526399999964" lon="-1.237566000000004">
        <ele>748.042</ele>
        <time>2022-08-24T07:42:21Z</time>
      </trkpt>
      <trkpt lat="43.11525199999964" lon="-1.2375640000000039">
        <ele>748.256</ele>
        <time>2022-08-24T07:42:22Z</time>
      </trkpt>
      <trkpt lat="43.115239999999645" lon="-1.237561000000004">
        <ele>748.415</ele>
        <time>2022-08-24T07:42:23Z</time>
      </trkpt>
      <trkpt lat="43.11522999999964" lon="-1.2375560000000039">
        <ele>748.657</ele>
        <time>2022-08-24T07:42:24Z</time>
      </trkpt>
      <trkpt lat="43.11521999999964" lon="-1.2375540000000038">
        <ele>748.800</ele>
        <time>2022-08-24T07:42:25Z</time>
      </trkpt>
      <trkpt lat="43.11521099999964" lon="-1.2375550000000037">
        <ele>749.220</ele>
        <time>2022-08-24T07:42:26Z</time>
      </trkpt>
      <trkpt lat="43.11519999999964" lon="-1.2375550000000037">
        <ele>749.409</ele>
        <time>2022-08-24T07:42:27Z</time>
      </trkpt>
      <trkpt lat="43.11519999999964" lon="-1.2375550000000037">
        <ele>749.616</ele>
        <time>2022-08-24T07:42:28Z</time>
      </trkpt>
      <trkpt lat="43.11518099999964" lon="-1.2375510000000038">
        <ele>749.836</ele>
        <time>2022-08-24T07:42:29Z</time>
      </trkpt>
      <trkpt lat="43.115170999999634" lon="-1.2375510000000038">
        <ele>750.026</ele>
        <time>2022-08-24T07:42:30Z</time>
      </trkpt>
      <trkpt lat="43.115156999999634" lon="-1.2375510000000038">
        <ele>750.242</ele>
        <time>2022-08-24T07:42:31Z</time>
      </trkpt>
      <trkpt lat="43.115156999999634" lon="-1.2375510000000038">
        <ele>750.444</ele>
        <time>2022-08-24T07:42:32Z</time>
      </trkpt>
      <trkpt lat="43.115133999999635" lon="-1.2375480000000039">
        <ele>750.461</ele>
        <time>2022-08-24T07:42:33Z</time>
      </trkpt>
      <trkpt lat="43.115122999999635" lon="-1.237550000000004">
        <ele>750.664</ele>
        <time>2022-08-24T07:42:34Z</time>
      </trkpt>
      <trkpt lat="43.115111999999634" lon="-1.2375540000000038">
        <ele>750.868</ele>
        <time>2022-08-24T07:42:35Z</time>
      </trkpt>
      <trkpt lat="43.115099999999636" lon="-1.2375560000000039">
        <ele>751.087</ele>
        <time>2022-08-24T07:42:36Z</time>
      </trkpt>
      <trkpt lat="43.11508799999964" lon="-1.237558000000004">
        <ele>751.056</ele>
        <time>2022-08-24T07:42:37Z</time>
      </trkpt>
      <trkpt lat="43.11508799999964" lon="-1.237558000000004">
        <ele>751.459</ele>
        <time>2022-08-24T07:42:38Z</time>
      </trkpt>
      <trkpt lat="43.11506799999964" lon="-1.2375640000000039">
        <ele>751.414</ele>
        <time>2022-08-24T07:42:39Z</time>
      </trkpt>
      <trkpt lat="43.11505399999964" lon="-1.2375680000000038">
        <ele>751.809</ele>
        <time>2022-08-24T07:42:40Z</time>
      </trkpt>
      <trkpt lat="43.115043999999635" lon="-1.2375710000000038">
        <ele>752.266</ele>
        <time>2022-08-24T07:42:41Z</time>
      </trkpt>
      <trkpt lat="43.115032999999634" lon="-1.2375760000000038">
        <ele>752.226</ele>
        <time>2022-08-24T07:42:42Z</time>
      </trkpt>
      <trkpt lat="43.115021999999634" lon="-1.2375760000000038">
        <ele>752.416</ele>
        <time>2022-08-24T07:42:43Z</time>
      </trkpt>
      <trkpt lat="43.115012999999635" lon="-1.2375740000000037">
        <ele>752.682</ele>
        <time>2022-08-24T07:42:44Z</time>
      </trkpt>
      <trkpt lat="43.115001999999635" lon="-1.2375730000000038">
        <ele>752.824</ele>
        <time>2022-08-24T07:42:45Z</time>
      </trkpt>
      <trkpt lat="43.11498599999963" lon="-1.237572000000004">
        <ele>753.071</ele>
        <time>2022-08-24T07:42:46Z</time>
      </trkpt>
      <trkpt lat="43.11497199999963" lon="-1.2375750000000039">
        <ele>753.264</ele>
        <time>2022-08-24T07:42:47Z</time>
      </trkpt>
      <trkpt lat="43.11495899999963" lon="-1.2375760000000038">
        <ele>753.448</ele>
        <time>2022-08-24T07:42:48Z</time>
      </trkpt>
      <trkpt lat="43.11495899999963" lon="-1.2375760000000038">
        <ele>753.657</ele>
        <time>2022-08-24T07:42:49Z</time>
      </trkpt>
      <trkpt lat="43.11493099999963" lon="-1.2375750000000039">
        <ele>754.034</ele>
        <time>2022-08-24T07:42:50Z</time>
      </trkpt>
      <trkpt lat="43.114920999999626" lon="-1.2375790000000038">
        <ele>754.055</ele>
        <time>2022-08-24T07:42:51Z</time>
      </trkpt>
      <trkpt lat="43.114906999999626" lon="-1.2375800000000037">
        <ele>754.010</ele>
        <time>2022-08-24T07:42:52Z</time>
      </trkpt>
      <trkpt lat="43.114892999999626" lon="-1.2375800000000037">
        <ele>754.409</ele>
        <time>2022-08-24T07:42:53Z</time>
      </trkpt>
      <trkpt lat="43.114878999999625" lon="-1.2375790000000038">
        <ele>754.834</ele>
        <time>2022-08-24T07:42:54Z</time>
      </trkpt>
      <trkpt lat="43.114864999999625" lon="-1.2375800000000037">
        <ele>755.074</ele>
        <time>2022-08-24T07:42:55Z</time>
      </trkpt>
      <trkpt lat="43.114864999999625" lon="-1.2375800000000037">
        <ele>755.244</ele>
        <time>2022-08-24T07:42:56Z</time>
      </trkpt>
      <trkpt lat="43.11483799999962" lon="-1.2375800000000037">
        <ele>755.450</ele>
        <time>2022-08-24T07:42:57Z</time>
      </trkpt>
      <trkpt lat="43.11482699999962" lon="-1.2375820000000037">
        <ele>755.412</ele>
        <time>2022-08-24T07:42:58Z</time>
      </trkpt>
      <trkpt lat="43.11481499999962" lon="-1.2375880000000037">
        <ele>755.829</ele>
        <time>2022-08-24T07:42:59Z</time>
      </trkpt>
      <trkpt lat="43.11480199999962" lon="-1.2375930000000037">
        <ele>756.082</ele>
        <time>2022-08-24T07:43:00Z</time>
      </trkpt>
      <trkpt lat="43.11479099999962" lon="-1.2375970000000036">
        <ele>756.066</ele>
        <time>2022-08-24T07:43:01Z</time>
      </trkpt>
      <trkpt lat="43.11477899999962" lon="-1.2376000000000036">
        <ele>756.285</ele>
        <time>2022-08-24T07:43:02Z</time>
      </trkpt>
      <trkpt lat="43.114766999999624" lon="-1.2376050000000036">
        <ele>756.433</ele>
        <time>2022-08-24T07:43:03Z</time>
      </trkpt>
      <trkpt lat="43.11475399999962" lon="-1.2376070000000037">
        <ele>756.423</ele>
        <time>2022-08-24T07:43:04Z</time>
      </trkpt>
      <trkpt lat="43.114738999999624" lon="-1.2376080000000036">
        <ele>756.615</ele>
        <time>2022-08-24T07:43:05Z</time>
      </trkpt>
      <trkpt lat="43.11472499999962" lon="-1.2376100000000037">
        <ele>756.809</ele>
        <time>2022-08-24T07:43:06Z</time>
      </trkpt>
      <trkpt lat="43.11471199999962" lon="-1.2376160000000036">
        <ele>757.044</ele>
        <time>2022-08-24T07:43:07Z</time>
      </trkpt>
      <trkpt lat="43.11469899999962" lon="-1.2376160000000036">
        <ele>757.264</ele>
        <time>2022-08-24T07:43:08Z</time>
      </trkpt>
      <trkpt lat="43.114682999999616" lon="-1.2376160000000036">
        <ele>757.284</ele>
        <time>2022-08-24T07:43:09Z</time>
      </trkpt>
      <trkpt lat="43.114668999999616" lon="-1.2376160000000036">
        <ele>757.430</ele>
        <time>2022-08-24T07:43:10Z</time>
      </trkpt>
      <trkpt lat="43.11465399999962" lon="-1.2376150000000037">
        <ele>757.462</ele>
        <time>2022-08-24T07:43:11Z</time>
      </trkpt>
      <trkpt lat="43.114640999999615" lon="-1.2376140000000038">
        <ele>757.639</ele>
        <time>2022-08-24T07:43:12Z</time>
      </trkpt>
      <trkpt lat="43.11462899999962" lon="-1.2376160000000038">
        <ele>757.862</ele>
        <time>2022-08-24T07:43:13Z</time>
      </trkpt>
      <trkpt lat="43.11461699999962" lon="-1.2376180000000039">
        <ele>757.866</ele>
        <time>2022-08-24T07:43:14Z</time>
      </trkpt>
      <trkpt lat="43.11460599999962" lon="-1.237620000000004">
        <ele>758.035</ele>
        <time>2022-08-24T07:43:15Z</time>
      </trkpt>
      <trkpt lat="43.114595999999615" lon="-1.237623000000004">
        <ele>758.267</ele>
        <time>2022-08-24T07:43:16Z</time>
      </trkpt>
      <trkpt lat="43.114460999999615" lon="-1.2376320000000038">
        <ele>761.481</ele>
        <time>2022-08-24T07:57:29Z</time>
      </trkpt>
      <trkpt lat="43.114429999999615" lon="-1.237655000000004">
        <ele>761.619</ele>
        <time>2022-08-24T07:57:31Z</time>
      </trkpt>
      <trkpt lat="43.114418999999614" lon="-1.2376670000000038">
        <ele>761.609</ele>
        <time>2022-08-24T07:57:32Z</time>
      </trkpt>
      <trkpt lat="43.114404999999614" lon="-1.2376730000000038">
        <ele>761.887</ele>
        <time>2022-08-24T07:57:33Z</time>
      </trkpt>
      <trkpt lat="43.114392999999616" lon="-1.2376800000000039">
        <ele>762.057</ele>
        <time>2022-08-24T07:57:34Z</time>
      </trkpt>
      <trkpt lat="43.11437499999962" lon="-1.2376800000000039">
        <ele>762.287</ele>
        <time>2022-08-24T07:57:35Z</time>
      </trkpt>
      <trkpt lat="43.11436099999962" lon="-1.237682000000004">
        <ele>762.693</ele>
        <time>2022-08-24T07:57:36Z</time>
      </trkpt>
      <trkpt lat="43.11434599999962" lon="-1.237681000000004">
        <ele>762.875</ele>
        <time>2022-08-24T07:57:37Z</time>
      </trkpt>
      <trkpt lat="43.11431199999962" lon="-1.237676000000004">
        <ele>763.492</ele>
        <time>2022-08-24T07:57:39Z</time>
      </trkpt>
      <trkpt lat="43.11428499999962" lon="-1.237677000000004">
        <ele>763.845</ele>
        <time>2022-08-24T07:57:41Z</time>
      </trkpt>
      <trkpt lat="43.11426799999962" lon="-1.237679000000004">
        <ele>764.079</ele>
        <time>2022-08-24T07:57:42Z</time>
      </trkpt>
      <trkpt lat="43.114254999999616" lon="-1.2376800000000039">
        <ele>764.258</ele>
        <time>2022-08-24T07:57:43Z</time>
      </trkpt>
      <trkpt lat="43.11423999999962" lon="-1.2376800000000039">
        <ele>764.443</ele>
        <time>2022-08-24T07:57:44Z</time>
      </trkpt>
      <trkpt lat="43.11422799999962" lon="-1.237676000000004">
        <ele>764.464</ele>
        <time>2022-08-24T07:57:45Z</time>
      </trkpt>
      <trkpt lat="43.11421899999962" lon="-1.237671000000004">
        <ele>764.610</ele>
        <time>2022-08-24T07:57:46Z</time>
      </trkpt>
      <trkpt lat="43.114206999999624" lon="-1.237666000000004">
        <ele>764.609</ele>
        <time>2022-08-24T07:57:47Z</time>
      </trkpt>
      <trkpt lat="43.114194999999626" lon="-1.237661000000004">
        <ele>764.815</ele>
        <time>2022-08-24T07:57:48Z</time>
      </trkpt>
      <trkpt lat="43.11418499999962" lon="-1.237657000000004">
        <ele>765.075</ele>
        <time>2022-08-24T07:57:49Z</time>
      </trkpt>
      <trkpt lat="43.114175999999624" lon="-1.237658000000004">
        <ele>765.265</ele>
        <time>2022-08-24T07:57:50Z</time>
      </trkpt>
      <trkpt lat="43.11416499999962" lon="-1.237661000000004">
        <ele>765.681</ele>
        <time>2022-08-24T07:57:51Z</time>
      </trkpt>
      <trkpt lat="43.11415399999962" lon="-1.2376620000000038">
        <ele>765.623</ele>
        <time>2022-08-24T07:57:52Z</time>
      </trkpt>
      <trkpt lat="43.11413999999962" lon="-1.2376600000000038">
        <ele>766.060</ele>
        <time>2022-08-24T07:57:53Z</time>
      </trkpt>
      <trkpt lat="43.11413199999962" lon="-1.2376580000000037">
        <ele>766.043</ele>
        <time>2022-08-24T07:57:54Z</time>
      </trkpt>
      <trkpt lat="43.11412199999962" lon="-1.2376550000000037">
        <ele>766.257</ele>
        <time>2022-08-24T07:57:55Z</time>
      </trkpt>
      <trkpt lat="43.114111999999615" lon="-1.2376510000000038">
        <ele>766.486</ele>
        <time>2022-08-24T07:57:56Z</time>
      </trkpt>
      <trkpt lat="43.114097999999615" lon="-1.2376440000000037">
        <ele>766.613</ele>
        <time>2022-08-24T07:57:57Z</time>
      </trkpt>
      <trkpt lat="43.11408499999961" lon="-1.2376400000000038">
        <ele>766.643</ele>
        <time>2022-08-24T07:57:58Z</time>
      </trkpt>
      <trkpt lat="43.11407199999961" lon="-1.2376370000000039">
        <ele>766.807</ele>
        <time>2022-08-24T07:57:59Z</time>
      </trkpt>
      <trkpt lat="43.11405999999961" lon="-1.2376300000000038">
        <ele>767.009</ele>
        <time>2022-08-24T07:58:00Z</time>
      </trkpt>
      <trkpt lat="43.11404799999961" lon="-1.2376230000000037">
        <ele>767.062</ele>
        <time>2022-08-24T07:58:01Z</time>
      </trkpt>
      <trkpt lat="43.11403699999961" lon="-1.2376200000000037">
        <ele>767.272</ele>
        <time>2022-08-24T07:58:02Z</time>
      </trkpt>
      <trkpt lat="43.11402399999961" lon="-1.2376190000000038">
        <ele>767.482</ele>
        <time>2022-08-24T07:58:03Z</time>
      </trkpt>
      <trkpt lat="43.11400999999961" lon="-1.2376180000000039">
        <ele>767.698</ele>
        <time>2022-08-24T07:58:04Z</time>
      </trkpt>
      <trkpt lat="43.11399699999961" lon="-1.2376160000000038">
        <ele>767.650</ele>
        <time>2022-08-24T07:58:05Z</time>
      </trkpt>
      <trkpt lat="43.11398299999961" lon="-1.2376130000000038">
        <ele>767.877</ele>
        <time>2022-08-24T07:58:06Z</time>
      </trkpt>
      <trkpt lat="43.113971999999606" lon="-1.2376100000000039">
        <ele>768.080</ele>
        <time>2022-08-24T07:58:07Z</time>
      </trkpt>
      <trkpt lat="43.113960999999605" lon="-1.2376050000000038">
        <ele>768.244</ele>
        <time>2022-08-24T07:58:08Z</time>
      </trkpt>
      <trkpt lat="43.11394899999961" lon="-1.237599000000004">
        <ele>768.463</ele>
        <time>2022-08-24T07:58:09Z</time>
      </trkpt>
      <trkpt lat="43.11393999999961" lon="-1.2375910000000039">
        <ele>768.631</ele>
        <time>2022-08-24T07:58:10Z</time>
      </trkpt>
      <trkpt lat="43.11392799999961" lon="-1.2375860000000038">
        <ele>768.861</ele>
        <time>2022-08-24T07:58:11Z</time>
      </trkpt>
      <trkpt lat="43.11391699999961" lon="-1.2375840000000038">
        <ele>769.007</ele>
        <time>2022-08-24T07:58:12Z</time>
      </trkpt>
      <trkpt lat="43.11390599999961" lon="-1.2375830000000039">
        <ele>769.209</ele>
        <time>2022-08-24T07:58:13Z</time>
      </trkpt>
      <trkpt lat="43.11389499999961" lon="-1.2375840000000038">
        <ele>769.264</ele>
        <time>2022-08-24T07:58:14Z</time>
      </trkpt>
      <trkpt lat="43.11388399999961" lon="-1.2375820000000037">
        <ele>769.474</ele>
        <time>2022-08-24T07:58:15Z</time>
      </trkpt>
      <trkpt lat="43.113870999999605" lon="-1.2375770000000037">
        <ele>769.644</ele>
        <time>2022-08-24T07:58:16Z</time>
      </trkpt>
      <trkpt lat="43.113856999999605" lon="-1.2375710000000038">
        <ele>770.070</ele>
        <time>2022-08-24T07:58:17Z</time>
      </trkpt>
      <trkpt lat="43.1138439999996" lon="-1.2375660000000037">
        <ele>770.062</ele>
        <time>2022-08-24T07:58:18Z</time>
      </trkpt>
      <trkpt lat="43.1138309999996" lon="-1.2375620000000038">
        <ele>770.279</ele>
        <time>2022-08-24T07:58:19Z</time>
      </trkpt>
      <trkpt lat="43.1138189999996" lon="-1.2375570000000038">
        <ele>770.442</ele>
        <time>2022-08-24T07:58:20Z</time>
      </trkpt>
      <trkpt lat="43.1138059999996" lon="-1.237553000000004">
        <ele>770.436</ele>
        <time>2022-08-24T07:58:21Z</time>
      </trkpt>
      <trkpt lat="43.1137949999996" lon="-1.237550000000004">
        <ele>770.675</ele>
        <time>2022-08-24T07:58:22Z</time>
      </trkpt>
      <trkpt lat="43.113784999999595" lon="-1.2375480000000039">
        <ele>770.873</ele>
        <time>2022-08-24T07:58:23Z</time>
      </trkpt>
      <trkpt lat="43.113770999999595" lon="-1.2375410000000038">
        <ele>770.885</ele>
        <time>2022-08-24T07:58:24Z</time>
      </trkpt>
      <trkpt lat="43.1137589999996" lon="-1.2375330000000038">
        <ele>771.013</ele>
        <time>2022-08-24T07:58:25Z</time>
      </trkpt>
      <trkpt lat="43.113747999999596" lon="-1.2375270000000038">
        <ele>771.009</ele>
        <time>2022-08-24T07:58:26Z</time>
      </trkpt>
      <trkpt lat="43.113733999999596" lon="-1.2375210000000039">
        <ele>771.278</ele>
        <time>2022-08-24T07:58:27Z</time>
      </trkpt>
      <trkpt lat="43.113717999999594" lon="-1.2375160000000038">
        <ele>771.288</ele>
        <time>2022-08-24T07:58:28Z</time>
      </trkpt>
      <trkpt lat="43.113702999999596" lon="-1.2375140000000038">
        <ele>771.268</ele>
        <time>2022-08-24T07:58:29Z</time>
      </trkpt>
      <trkpt lat="43.113686999999594" lon="-1.2375130000000039">
        <ele>771.414</ele>
        <time>2022-08-24T07:58:30Z</time>
      </trkpt>
      <trkpt lat="43.113677999999595" lon="-1.2375100000000039">
        <ele>771.666</ele>
        <time>2022-08-24T07:58:31Z</time>
      </trkpt>
      <trkpt lat="43.113666999999595" lon="-1.2375030000000038">
        <ele>771.823</ele>
        <time>2022-08-24T07:58:32Z</time>
      </trkpt>
      <trkpt lat="43.1136519999996" lon="-1.2374950000000038">
        <ele>772.036</ele>
        <time>2022-08-24T07:58:33Z</time>
      </trkpt>
      <trkpt lat="43.113640999999596" lon="-1.2374890000000038">
        <ele>772.410</ele>
        <time>2022-08-24T07:58:34Z</time>
      </trkpt>
      <trkpt lat="43.11363099999959" lon="-1.2374870000000038">
        <ele>772.489</ele>
        <time>2022-08-24T07:58:35Z</time>
      </trkpt>
      <trkpt lat="43.11362299999959" lon="-1.2374850000000037">
        <ele>772.841</ele>
        <time>2022-08-24T07:58:36Z</time>
      </trkpt>
      <trkpt lat="43.11361399999959" lon="-1.2374860000000036">
        <ele>773.081</ele>
        <time>2022-08-24T07:58:37Z</time>
      </trkpt>
      <trkpt lat="43.113601999999595" lon="-1.2374850000000037">
        <ele>773.009</ele>
        <time>2022-08-24T07:58:38Z</time>
      </trkpt>
      <trkpt lat="43.1135899999996" lon="-1.2374830000000037">
        <ele>773.209</ele>
        <time>2022-08-24T07:58:39Z</time>
      </trkpt>
      <trkpt lat="43.113578999999596" lon="-1.2374800000000037">
        <ele>773.455</ele>
        <time>2022-08-24T07:58:40Z</time>
      </trkpt>
      <trkpt lat="43.11356899999959" lon="-1.2374750000000037">
        <ele>773.625</ele>
        <time>2022-08-24T07:58:41Z</time>
      </trkpt>
      <trkpt lat="43.113556999999595" lon="-1.2374670000000036">
        <ele>773.835</ele>
        <time>2022-08-24T07:58:42Z</time>
      </trkpt>
      <trkpt lat="43.1135449999996" lon="-1.2374610000000037">
        <ele>773.831</ele>
        <time>2022-08-24T07:58:43Z</time>
      </trkpt>
      <trkpt lat="43.113533999999596" lon="-1.2374550000000037">
        <ele>774.233</ele>
        <time>2022-08-24T07:58:44Z</time>
      </trkpt>
      <trkpt lat="43.113522999999596" lon="-1.2374460000000038">
        <ele>774.270</ele>
        <time>2022-08-24T07:58:45Z</time>
      </trkpt>
      <trkpt lat="43.1135109999996" lon="-1.2374390000000037">
        <ele>774.433</ele>
        <time>2022-08-24T07:58:46Z</time>
      </trkpt>
      <trkpt lat="43.113497999999595" lon="-1.2374340000000037">
        <ele>774.677</ele>
        <time>2022-08-24T07:58:47Z</time>
      </trkpt>
      <trkpt lat="43.11348499999959" lon="-1.2374310000000037">
        <ele>774.876</ele>
        <time>2022-08-24T07:58:48Z</time>
      </trkpt>
      <trkpt lat="43.11348199999959" lon="-1.2374250000000038">
        <ele>775.066</ele>
        <time>2022-08-24T07:58:49Z</time>
      </trkpt>
      <trkpt lat="43.11346899999959" lon="-1.2374230000000037">
        <ele>775.229</ele>
        <time>2022-08-24T07:58:50Z</time>
      </trkpt>
      <trkpt lat="43.11345599999959" lon="-1.2374190000000038">
        <ele>775.421</ele>
        <time>2022-08-24T07:58:51Z</time>
      </trkpt>
      <trkpt lat="43.113439999999585" lon="-1.2374140000000038">
        <ele>775.409</ele>
        <time>2022-08-24T07:58:52Z</time>
      </trkpt>
      <trkpt lat="43.113422999999585" lon="-1.2374070000000037">
        <ele>775.677</ele>
        <time>2022-08-24T07:58:53Z</time>
      </trkpt>
      <trkpt lat="43.11340799999959" lon="-1.2374010000000037">
        <ele>775.897</ele>
        <time>2022-08-24T07:58:54Z</time>
      </trkpt>
      <trkpt lat="43.11339299999959" lon="-1.2373940000000037">
        <ele>776.047</ele>
        <time>2022-08-24T07:58:55Z</time>
      </trkpt>
      <trkpt lat="43.11337999999959" lon="-1.2373860000000036">
        <ele>776.273</ele>
        <time>2022-08-24T07:58:56Z</time>
      </trkpt>
      <trkpt lat="43.11336799999959" lon="-1.2373740000000037">
        <ele>776.435</ele>
        <time>2022-08-24T07:58:57Z</time>
      </trkpt>
      <trkpt lat="43.11335399999959" lon="-1.2373650000000038">
        <ele>776.662</ele>
        <time>2022-08-24T07:58:58Z</time>
      </trkpt>
      <trkpt lat="43.11333899999959" lon="-1.237356000000004">
        <ele>776.875</ele>
        <time>2022-08-24T07:58:59Z</time>
      </trkpt>
      <trkpt lat="43.113323999999594" lon="-1.237352000000004">
        <ele>777.059</ele>
        <time>2022-08-24T07:59:00Z</time>
      </trkpt>
      <trkpt lat="43.113311999999596" lon="-1.2373480000000041">
        <ele>777.018</ele>
        <time>2022-08-24T07:59:01Z</time>
      </trkpt>
      <trkpt lat="43.11329599999959" lon="-1.2373420000000042">
        <ele>777.238</ele>
        <time>2022-08-24T07:59:02Z</time>
      </trkpt>
      <trkpt lat="43.11327999999959" lon="-1.237332000000004">
        <ele>777.470</ele>
        <time>2022-08-24T07:59:03Z</time>
      </trkpt>
      <trkpt lat="43.11325999999959" lon="-1.237325000000004">
        <ele>777.417</ele>
        <time>2022-08-24T07:59:04Z</time>
      </trkpt>
      <trkpt lat="43.11324599999959" lon="-1.237320000000004">
        <ele>777.609</ele>
        <time>2022-08-24T07:59:05Z</time>
      </trkpt>
      <trkpt lat="43.11323199999959" lon="-1.237316000000004">
        <ele>778.234</ele>
        <time>2022-08-24T07:59:06Z</time>
      </trkpt>
      <trkpt lat="43.11321499999959" lon="-1.237311000000004">
        <ele>778.254</ele>
        <time>2022-08-24T07:59:07Z</time>
      </trkpt>
      <trkpt lat="43.113196999999595" lon="-1.237305000000004">
        <ele>778.424</ele>
        <time>2022-08-24T07:59:08Z</time>
      </trkpt>
      <trkpt lat="43.113179999999595" lon="-1.2372990000000041">
        <ele>778.630</ele>
        <time>2022-08-24T07:59:09Z</time>
      </trkpt>
      <trkpt lat="43.1131619999996" lon="-1.2372940000000041">
        <ele>778.852</ele>
        <time>2022-08-24T07:59:10Z</time>
      </trkpt>
      <trkpt lat="43.1131439999996" lon="-1.2372880000000042">
        <ele>779.039</ele>
        <time>2022-08-24T07:59:11Z</time>
      </trkpt>
      <trkpt lat="43.1131289999996" lon="-1.237286000000004">
        <ele>779.272</ele>
        <time>2022-08-24T07:59:12Z</time>
      </trkpt>
      <trkpt lat="43.1131119999996" lon="-1.237284000000004">
        <ele>779.496</ele>
        <time>2022-08-24T07:59:13Z</time>
      </trkpt>
      <trkpt lat="43.113093999999606" lon="-1.237279000000004">
        <ele>779.665</ele>
        <time>2022-08-24T07:59:14Z</time>
      </trkpt>
      <trkpt lat="43.1130809999996" lon="-1.2372750000000041">
        <ele>779.831</ele>
        <time>2022-08-24T07:59:15Z</time>
      </trkpt>
      <trkpt lat="43.113062999999606" lon="-1.237270000000004">
        <ele>780.061</ele>
        <time>2022-08-24T07:59:16Z</time>
      </trkpt>
      <trkpt lat="43.113051999999605" lon="-1.2372640000000041">
        <ele>780.207</ele>
        <time>2022-08-24T07:59:17Z</time>
      </trkpt>
      <trkpt lat="43.1130389999996" lon="-1.2372580000000042">
        <ele>780.409</ele>
        <time>2022-08-24T07:59:18Z</time>
      </trkpt>
      <trkpt lat="43.1130229999996" lon="-1.2372520000000042">
        <ele>780.634</ele>
        <time>2022-08-24T07:59:19Z</time>
      </trkpt>
      <trkpt lat="43.1130079999996" lon="-1.2372470000000042">
        <ele>780.814</ele>
        <time>2022-08-24T07:59:20Z</time>
      </trkpt>
      <trkpt lat="43.1129909999996" lon="-1.2372450000000041">
        <ele>781.074</ele>
        <time>2022-08-24T07:59:21Z</time>
      </trkpt>
      <trkpt lat="43.1129749999996" lon="-1.237243000000004">
        <ele>781.260</ele>
        <time>2022-08-24T07:59:22Z</time>
      </trkpt>
      <trkpt lat="43.1129629999996" lon="-1.2372420000000042">
        <ele>781.482</ele>
        <time>2022-08-24T07:59:23Z</time>
      </trkpt>
      <trkpt lat="43.112944999999605" lon="-1.2372450000000041">
        <ele>781.479</ele>
        <time>2022-08-24T07:59:24Z</time>
      </trkpt>
      <trkpt lat="43.11292999999961" lon="-1.2372470000000042">
        <ele>781.652</ele>
        <time>2022-08-24T07:59:25Z</time>
      </trkpt>
      <trkpt lat="43.112913999999606" lon="-1.2372430000000043">
        <ele>781.616</ele>
        <time>2022-08-24T07:59:26Z</time>
      </trkpt>
      <trkpt lat="43.112902999999605" lon="-1.2372370000000044">
        <ele>781.875</ele>
        <time>2022-08-24T07:59:27Z</time>
      </trkpt>
      <trkpt lat="43.11288799999961" lon="-1.2372290000000044">
        <ele>782.033</ele>
        <time>2022-08-24T07:59:28Z</time>
      </trkpt>
      <trkpt lat="43.112871999999605" lon="-1.2372230000000044">
        <ele>782.223</ele>
        <time>2022-08-24T07:59:29Z</time>
      </trkpt>
      <trkpt lat="43.11285699999961" lon="-1.2372210000000043">
        <ele>782.415</ele>
        <time>2022-08-24T07:59:30Z</time>
      </trkpt>
      <trkpt lat="43.11283899999961" lon="-1.2372200000000044">
        <ele>782.409</ele>
        <time>2022-08-24T07:59:31Z</time>
      </trkpt>
      <trkpt lat="43.11282299999961" lon="-1.2372210000000043">
        <ele>782.864</ele>
        <time>2022-08-24T07:59:32Z</time>
      </trkpt>
      <trkpt lat="43.112809999999605" lon="-1.2372190000000043">
        <ele>782.854</ele>
        <time>2022-08-24T07:59:33Z</time>
      </trkpt>
      <trkpt lat="43.1127939999996" lon="-1.2372140000000043">
        <ele>783.274</ele>
        <time>2022-08-24T07:59:34Z</time>
      </trkpt>
      <trkpt lat="43.1127749999996" lon="-1.2372110000000043">
        <ele>783.480</ele>
        <time>2022-08-24T07:59:35Z</time>
      </trkpt>
      <trkpt lat="43.1127529999996" lon="-1.2372080000000043">
        <ele>783.412</ele>
        <time>2022-08-24T07:59:36Z</time>
      </trkpt>
      <trkpt lat="43.1127349999996" lon="-1.2372070000000044">
        <ele>783.649</ele>
        <time>2022-08-24T07:59:37Z</time>
      </trkpt>
      <trkpt lat="43.1127209999996" lon="-1.2372090000000044">
        <ele>783.662</ele>
        <time>2022-08-24T07:59:38Z</time>
      </trkpt>
      <trkpt lat="43.1127049999996" lon="-1.2372110000000045">
        <ele>783.836</ele>
        <time>2022-08-24T07:59:39Z</time>
      </trkpt>
      <trkpt lat="43.1126869999996" lon="-1.2372150000000044">
        <ele>783.825</ele>
        <time>2022-08-24T07:59:40Z</time>
      </trkpt>
      <trkpt lat="43.112674999999605" lon="-1.2372170000000045">
        <ele>784.064</ele>
        <time>2022-08-24T07:59:41Z</time>
      </trkpt>
      <trkpt lat="43.112660999999605" lon="-1.2372170000000045">
        <ele>784.206</ele>
        <time>2022-08-24T07:59:42Z</time>
      </trkpt>
      <trkpt lat="43.1126449999996" lon="-1.2372170000000045">
        <ele>784.216</ele>
        <time>2022-08-24T07:59:43Z</time>
      </trkpt>
      <trkpt lat="43.1126279999996" lon="-1.2372170000000045">
        <ele>784.609</ele>
        <time>2022-08-24T07:59:44Z</time>
      </trkpt>
      <trkpt lat="43.1126109999996" lon="-1.2372170000000045">
        <ele>784.677</ele>
        <time>2022-08-24T07:59:45Z</time>
      </trkpt>
      <trkpt lat="43.1125939999996" lon="-1.2372170000000045">
        <ele>784.837</ele>
        <time>2022-08-24T07:59:46Z</time>
      </trkpt>
      <trkpt lat="43.112573999999604" lon="-1.2372150000000044">
        <ele>785.097</ele>
        <time>2022-08-24T07:59:47Z</time>
      </trkpt>
      <trkpt lat="43.1125609999996" lon="-1.2372160000000043">
        <ele>785.053</ele>
        <time>2022-08-24T07:59:48Z</time>
      </trkpt>
      <trkpt lat="43.112545999999604" lon="-1.2372160000000043">
        <ele>785.245</ele>
        <time>2022-08-24T07:59:49Z</time>
      </trkpt>
      <trkpt lat="43.112530999999606" lon="-1.2372180000000044">
        <ele>785.242</ele>
        <time>2022-08-24T07:59:50Z</time>
      </trkpt>
      <trkpt lat="43.11251399999961" lon="-1.2372170000000045">
        <ele>785.475</ele>
        <time>2022-08-24T07:59:51Z</time>
      </trkpt>
      <trkpt lat="43.11249699999961" lon="-1.2372200000000044">
        <ele>785.689</ele>
        <time>2022-08-24T07:59:52Z</time>
      </trkpt>
      <trkpt lat="43.112477999999605" lon="-1.2372210000000043">
        <ele>785.858</ele>
        <time>2022-08-24T07:59:53Z</time>
      </trkpt>
      <trkpt lat="43.1124619999996" lon="-1.2372200000000044">
        <ele>786.017</ele>
        <time>2022-08-24T07:59:54Z</time>
      </trkpt>
      <trkpt lat="43.1124449999996" lon="-1.2372200000000044">
        <ele>786.087</ele>
        <time>2022-08-24T07:59:55Z</time>
      </trkpt>
      <trkpt lat="43.1124259999996" lon="-1.2372240000000043">
        <ele>786.215</ele>
        <time>2022-08-24T07:59:56Z</time>
      </trkpt>
      <trkpt lat="43.1124089999996" lon="-1.2372290000000044">
        <ele>786.209</ele>
        <time>2022-08-24T07:59:57Z</time>
      </trkpt>
      <trkpt lat="43.1123919999996" lon="-1.2372330000000042">
        <ele>786.682</ele>
        <time>2022-08-24T07:59:58Z</time>
      </trkpt>
      <trkpt lat="43.1123759999996" lon="-1.2372390000000042">
        <ele>786.622</ele>
        <time>2022-08-24T07:59:59Z</time>
      </trkpt>
      <trkpt lat="43.1123569999996" lon="-1.2372460000000043">
        <ele>786.892</ele>
        <time>2022-08-24T08:00:00Z</time>
      </trkpt>
      <trkpt lat="43.1123389999996" lon="-1.2372540000000043">
        <ele>787.018</ele>
        <time>2022-08-24T08:00:01Z</time>
      </trkpt>
      <trkpt lat="43.1123219999996" lon="-1.2372650000000043">
        <ele>786.830</ele>
        <time>2022-08-24T08:00:02Z</time>
      </trkpt>
      <trkpt lat="43.112300999999604" lon="-1.2372770000000042">
        <ele>786.847</ele>
        <time>2022-08-24T08:00:03Z</time>
      </trkpt>
      <trkpt lat="43.11227999999961" lon="-1.237286000000004">
        <ele>787.010</ele>
        <time>2022-08-24T08:00:04Z</time>
      </trkpt>
      <trkpt lat="43.11225499999961" lon="-1.237298000000004">
        <ele>787.054</ele>
        <time>2022-08-24T08:00:05Z</time>
      </trkpt>
      <trkpt lat="43.112229999999606" lon="-1.237316000000004">
        <ele>787.033</ele>
        <time>2022-08-24T08:00:06Z</time>
      </trkpt>
      <trkpt lat="43.1122029999996" lon="-1.237336000000004">
        <ele>787.286</ele>
        <time>2022-08-24T08:00:07Z</time>
      </trkpt>
      <trkpt lat="43.112170999999606" lon="-1.237358000000004">
        <ele>787.260</ele>
        <time>2022-08-24T08:00:08Z</time>
      </trkpt>
      <trkpt lat="43.112134999999604" lon="-1.237381000000004">
        <ele>787.026</ele>
        <time>2022-08-24T08:00:09Z</time>
      </trkpt>
      <trkpt lat="43.1120939999996" lon="-1.237405000000004">
        <ele>787.009</ele>
        <time>2022-08-24T08:00:10Z</time>
      </trkpt>
      <trkpt lat="43.1120489999996" lon="-1.237433000000004">
        <ele>787.059</ele>
        <time>2022-08-24T08:00:11Z</time>
      </trkpt>
      <trkpt lat="43.1120019999996" lon="-1.237464000000004">
        <ele>787.049</ele>
        <time>2022-08-24T08:00:12Z</time>
      </trkpt>
      <trkpt lat="43.1119509999996" lon="-1.2374950000000038">
        <ele>787.099</ele>
        <time>2022-08-24T08:00:13Z</time>
      </trkpt>
      <trkpt lat="43.1118979999996" lon="-1.2375260000000037">
        <ele>787.025</ele>
        <time>2022-08-24T08:00:14Z</time>
      </trkpt>
      <trkpt lat="43.111842999999595" lon="-1.2375580000000037">
        <ele>786.837</ele>
        <time>2022-08-24T08:00:15Z</time>
      </trkpt>
      <trkpt lat="43.11178499999959" lon="-1.2375910000000037">
        <ele>786.884</ele>
        <time>2022-08-24T08:00:16Z</time>
      </trkpt>
      <trkpt lat="43.11165899999959" lon="-1.2376650000000036">
        <ele>786.297</ele>
        <time>2022-08-24T08:00:18Z</time>
      </trkpt>
      <trkpt lat="43.111305999999594" lon="-1.2378690000000037">
        <ele>785.251</ele>
        <time>2022-08-24T08:00:24Z</time>
      </trkpt>
      <trkpt lat="43.111305999999594" lon="-1.2378690000000037">
        <ele>785.080</ele>
        <time>2022-08-24T08:00:25Z</time>
      </trkpt>
      <trkpt lat="43.1109219999996" lon="-1.2380360000000037">
        <ele>784.294</ele>
        <time>2022-08-24T08:00:30Z</time>
      </trkpt>
      <trkpt lat="43.1107919999996" lon="-1.2380640000000036">
        <ele>783.657</ele>
        <time>2022-08-24T08:00:32Z</time>
      </trkpt>
      <trkpt lat="43.1106249999996" lon="-1.2380880000000036">
        <ele>783.222</ele>
        <time>2022-08-24T08:00:34Z</time>
      </trkpt>
      <trkpt lat="43.1102469999996" lon="-1.2381320000000036">
        <ele>781.809</ele>
        <time>2022-08-24T08:00:39Z</time>
      </trkpt>
      <trkpt lat="43.110167999999604" lon="-1.2381450000000036">
        <ele>781.230</ele>
        <time>2022-08-24T08:00:40Z</time>
      </trkpt>
      <trkpt lat="43.110091999999604" lon="-1.2381630000000037">
        <ele>781.020</ele>
        <time>2022-08-24T08:00:41Z</time>
      </trkpt>
      <trkpt lat="43.1100189999996" lon="-1.2381860000000038">
        <ele>780.880</ele>
        <time>2022-08-24T08:00:42Z</time>
      </trkpt>
      <trkpt lat="43.1099469999996" lon="-1.2382130000000038">
        <ele>780.646</ele>
        <time>2022-08-24T08:00:43Z</time>
      </trkpt>
      <trkpt lat="43.1098619999996" lon="-1.2382450000000038">
        <ele>780.038</ele>
        <time>2022-08-24T08:00:44Z</time>
      </trkpt>
      <trkpt lat="43.1097939999996" lon="-1.2382740000000039">
        <ele>779.665</ele>
        <time>2022-08-24T08:00:45Z</time>
      </trkpt>
      <trkpt lat="43.109728999999604" lon="-1.2383050000000038">
        <ele>779.678</ele>
        <time>2022-08-24T08:00:46Z</time>
      </trkpt>
      <trkpt lat="43.1096789999996" lon="-1.2383310000000038">
        <ele>779.432</ele>
        <time>2022-08-24T08:00:47Z</time>
      </trkpt>
      <trkpt lat="43.1096179999996" lon="-1.238368000000004">
        <ele>779.251</ele>
        <time>2022-08-24T08:00:48Z</time>
      </trkpt>
      <trkpt lat="43.1095469999996" lon="-1.2384150000000038">
        <ele>779.247</ele>
        <time>2022-08-24T08:00:49Z</time>
      </trkpt>
      <trkpt lat="43.1094909999996" lon="-1.2384530000000038">
        <ele>779.029</ele>
        <time>2022-08-24T08:00:50Z</time>
      </trkpt>
      <trkpt lat="43.1094379999996" lon="-1.2384910000000038">
        <ele>778.621</ele>
        <time>2022-08-24T08:00:51Z</time>
      </trkpt>
      <trkpt lat="43.1093959999996" lon="-1.2385220000000037">
        <ele>778.609</ele>
        <time>2022-08-24T08:00:52Z</time>
      </trkpt>
      <trkpt lat="43.1093479999996" lon="-1.2385620000000037">
        <ele>778.675</ele>
        <time>2022-08-24T08:00:53Z</time>
      </trkpt>
      <trkpt lat="43.109292999999596" lon="-1.2386130000000037">
        <ele>778.475</ele>
        <time>2022-08-24T08:00:54Z</time>
      </trkpt>
      <trkpt lat="43.1092499999996" lon="-1.2386610000000038">
        <ele>778.425</ele>
        <time>2022-08-24T08:00:55Z</time>
      </trkpt>
      <trkpt lat="43.1091669999996" lon="-1.2387620000000037">
        <ele>778.471</ele>
        <time>2022-08-24T08:00:57Z</time>
      </trkpt>
      <trkpt lat="43.1088999999996" lon="-1.2391150000000037">
        <ele>778.613</ele>
        <time>2022-08-24T08:01:02Z</time>
      </trkpt>
      <trkpt lat="43.1088619999996" lon="-1.2391630000000038">
        <ele>778.860</ele>
        <time>2022-08-24T08:01:03Z</time>
      </trkpt>
      <trkpt lat="43.1088339999996" lon="-1.2391920000000038">
        <ele>778.873</ele>
        <time>2022-08-24T08:01:04Z</time>
      </trkpt>
      <trkpt lat="43.108851999999594" lon="-1.2391850000000038">
        <ele>779.027</ele>
        <time>2022-08-24T08:01:19Z</time>
      </trkpt>
      <trkpt lat="43.108856999999595" lon="-1.2391900000000038">
        <ele>779.046</ele>
        <time>2022-08-24T08:01:20Z</time>
      </trkpt>
      <trkpt lat="43.1088139999996" lon="-1.2391870000000038">
        <ele>778.053</ele>
        <time>2022-08-24T08:17:03Z</time>
      </trkpt>
      <trkpt lat="43.108786999999595" lon="-1.239194000000004">
        <ele>778.004</ele>
        <time>2022-08-24T08:17:05Z</time>
      </trkpt>
      <trkpt lat="43.10866399999959" lon="-1.239204000000004">
        <ele>778.214</ele>
        <time>2022-08-24T08:17:10Z</time>
      </trkpt>
      <trkpt lat="43.10864399999959" lon="-1.239211000000004">
        <ele>778.609</ele>
        <time>2022-08-24T08:17:11Z</time>
      </trkpt>
      <trkpt lat="43.10862699999959" lon="-1.239217000000004">
        <ele>778.656</ele>
        <time>2022-08-24T08:17:12Z</time>
      </trkpt>
      <trkpt lat="43.10861399999959" lon="-1.239220000000004">
        <ele>778.896</ele>
        <time>2022-08-24T08:17:13Z</time>
      </trkpt>
      <trkpt lat="43.10860399999959" lon="-1.239219000000004">
        <ele>778.876</ele>
        <time>2022-08-24T08:17:14Z</time>
      </trkpt>
      <trkpt lat="43.10858899999959" lon="-1.239222000000004">
        <ele>779.272</ele>
        <time>2022-08-24T08:17:15Z</time>
      </trkpt>
      <trkpt lat="43.10857499999959" lon="-1.239224000000004">
        <ele>779.454</ele>
        <time>2022-08-24T08:17:16Z</time>
      </trkpt>
      <trkpt lat="43.10856099999959" lon="-1.239228000000004">
        <ele>779.461</ele>
        <time>2022-08-24T08:17:17Z</time>
      </trkpt>
      <trkpt lat="43.10854299999959" lon="-1.239235000000004">
        <ele>779.814</ele>
        <time>2022-08-24T08:17:18Z</time>
      </trkpt>
      <trkpt lat="43.10852599999959" lon="-1.2392420000000042">
        <ele>780.028</ele>
        <time>2022-08-24T08:17:19Z</time>
      </trkpt>
      <trkpt lat="43.10850899999959" lon="-1.2392480000000041">
        <ele>780.277</ele>
        <time>2022-08-24T08:17:20Z</time>
      </trkpt>
      <trkpt lat="43.10849599999959" lon="-1.2392530000000042">
        <ele>780.447</ele>
        <time>2022-08-24T08:17:21Z</time>
      </trkpt>
      <trkpt lat="43.10846499999959" lon="-1.2392580000000042">
        <ele>780.829</ele>
        <time>2022-08-24T08:17:23Z</time>
      </trkpt>
      <trkpt lat="43.10844899999959" lon="-1.2392560000000041">
        <ele>780.821</ele>
        <time>2022-08-24T08:17:24Z</time>
      </trkpt>
      <trkpt lat="43.10843199999959" lon="-1.239257000000004">
        <ele>780.809</ele>
        <time>2022-08-24T08:17:25Z</time>
      </trkpt>
      <trkpt lat="43.108415999999586" lon="-1.239258000000004">
        <ele>781.055</ele>
        <time>2022-08-24T08:17:26Z</time>
      </trkpt>
      <trkpt lat="43.10840099999959" lon="-1.239263000000004">
        <ele>781.275</ele>
        <time>2022-08-24T08:17:27Z</time>
      </trkpt>
      <trkpt lat="43.10838599999959" lon="-1.239269000000004">
        <ele>781.445</ele>
        <time>2022-08-24T08:17:28Z</time>
      </trkpt>
      <trkpt lat="43.10837099999959" lon="-1.239274000000004">
        <ele>781.651</ele>
        <time>2022-08-24T08:17:29Z</time>
      </trkpt>
      <trkpt lat="43.10835699999959" lon="-1.239280000000004">
        <ele>781.663</ele>
        <time>2022-08-24T08:17:30Z</time>
      </trkpt>
      <trkpt lat="43.108344999999595" lon="-1.239285000000004">
        <ele>781.880</ele>
        <time>2022-08-24T08:17:31Z</time>
      </trkpt>
      <trkpt lat="43.1083299999996" lon="-1.239293000000004">
        <ele>782.053</ele>
        <time>2022-08-24T08:17:32Z</time>
      </trkpt>
      <trkpt lat="43.1083149999996" lon="-1.239299000000004">
        <ele>782.087</ele>
        <time>2022-08-24T08:17:33Z</time>
      </trkpt>
      <trkpt lat="43.1083029999996" lon="-1.239306000000004">
        <ele>782.296</ele>
        <time>2022-08-24T08:17:34Z</time>
      </trkpt>
      <trkpt lat="43.1082899999996" lon="-1.239313000000004">
        <ele>782.444</ele>
        <time>2022-08-24T08:17:35Z</time>
      </trkpt>
      <trkpt lat="43.1082779999996" lon="-1.239319000000004">
        <ele>782.405</ele>
        <time>2022-08-24T08:17:36Z</time>
      </trkpt>
      <trkpt lat="43.1082649999996" lon="-1.239323000000004">
        <ele>782.415</ele>
        <time>2022-08-24T08:17:37Z</time>
      </trkpt>
      <trkpt lat="43.108251999999595" lon="-1.239326000000004">
        <ele>782.609</ele>
        <time>2022-08-24T08:17:38Z</time>
      </trkpt>
      <trkpt lat="43.10823899999959" lon="-1.2393300000000038">
        <ele>782.835</ele>
        <time>2022-08-24T08:17:39Z</time>
      </trkpt>
      <trkpt lat="43.10822599999959" lon="-1.2393350000000039">
        <ele>783.035</ele>
        <time>2022-08-24T08:17:40Z</time>
      </trkpt>
      <trkpt lat="43.10821199999959" lon="-1.2393400000000039">
        <ele>783.235</ele>
        <time>2022-08-24T08:17:41Z</time>
      </trkpt>
      <trkpt lat="43.10819999999959" lon="-1.2393490000000038">
        <ele>783.261</ele>
        <time>2022-08-24T08:17:42Z</time>
      </trkpt>
      <trkpt lat="43.10818699999959" lon="-1.2393600000000038">
        <ele>783.423</ele>
        <time>2022-08-24T08:17:43Z</time>
      </trkpt>
      <trkpt lat="43.10817599999959" lon="-1.2393660000000037">
        <ele>783.480</ele>
        <time>2022-08-24T08:17:44Z</time>
      </trkpt>
      <trkpt lat="43.10815899999959" lon="-1.2393730000000038">
        <ele>783.683</ele>
        <time>2022-08-24T08:17:45Z</time>
      </trkpt>
      <trkpt lat="43.108145999999586" lon="-1.239383000000004">
        <ele>783.847</ele>
        <time>2022-08-24T08:17:46Z</time>
      </trkpt>
      <trkpt lat="43.10813299999958" lon="-1.239391000000004">
        <ele>784.036</ele>
        <time>2022-08-24T08:17:47Z</time>
      </trkpt>
      <trkpt lat="43.10811899999958" lon="-1.239396000000004">
        <ele>784.023</ele>
        <time>2022-08-24T08:17:48Z</time>
      </trkpt>
      <trkpt lat="43.108103999999585" lon="-1.2394000000000038">
        <ele>784.283</ele>
        <time>2022-08-24T08:17:49Z</time>
      </trkpt>
      <trkpt lat="43.108086999999585" lon="-1.239402000000004">
        <ele>784.411</ele>
        <time>2022-08-24T08:17:50Z</time>
      </trkpt>
      <trkpt lat="43.108072999999585" lon="-1.239404000000004">
        <ele>784.409</ele>
        <time>2022-08-24T08:17:51Z</time>
      </trkpt>
      <trkpt lat="43.10806099999959" lon="-1.2394080000000038">
        <ele>784.683</ele>
        <time>2022-08-24T08:17:52Z</time>
      </trkpt>
      <trkpt lat="43.108047999999584" lon="-1.2394170000000038">
        <ele>784.643</ele>
        <time>2022-08-24T08:17:53Z</time>
      </trkpt>
      <trkpt lat="43.10803799999958" lon="-1.2394240000000039">
        <ele>784.873</ele>
        <time>2022-08-24T08:17:54Z</time>
      </trkpt>
      <trkpt lat="43.108022999999584" lon="-1.239431000000004">
        <ele>785.059</ele>
        <time>2022-08-24T08:17:55Z</time>
      </trkpt>
      <trkpt lat="43.10800699999958" lon="-1.239430000000004">
        <ele>785.291</ele>
        <time>2022-08-24T08:17:56Z</time>
      </trkpt>
      <trkpt lat="43.10799399999958" lon="-1.239427000000004">
        <ele>785.238</ele>
        <time>2022-08-24T08:17:57Z</time>
      </trkpt>
      <trkpt lat="43.10797899999958" lon="-1.239428000000004">
        <ele>785.431</ele>
        <time>2022-08-24T08:17:58Z</time>
      </trkpt>
      <trkpt lat="43.107960999999584" lon="-1.2394290000000039">
        <ele>785.675</ele>
        <time>2022-08-24T08:17:59Z</time>
      </trkpt>
      <trkpt lat="43.10794299999959" lon="-1.2394300000000038">
        <ele>785.654</ele>
        <time>2022-08-24T08:18:00Z</time>
      </trkpt>
      <trkpt lat="43.10792799999959" lon="-1.2394330000000038">
        <ele>785.867</ele>
        <time>2022-08-24T08:18:01Z</time>
      </trkpt>
      <trkpt lat="43.10791199999959" lon="-1.2394360000000038">
        <ele>786.081</ele>
        <time>2022-08-24T08:18:02Z</time>
      </trkpt>
      <trkpt lat="43.10789699999959" lon="-1.2394370000000037">
        <ele>786.219</ele>
        <time>2022-08-24T08:18:03Z</time>
      </trkpt>
      <trkpt lat="43.107883999999586" lon="-1.2394380000000036">
        <ele>786.409</ele>
        <time>2022-08-24T08:18:04Z</time>
      </trkpt>
      <trkpt lat="43.107869999999586" lon="-1.2394430000000036">
        <ele>786.457</ele>
        <time>2022-08-24T08:18:05Z</time>
      </trkpt>
      <trkpt lat="43.10785499999959" lon="-1.2394500000000037">
        <ele>786.687</ele>
        <time>2022-08-24T08:18:06Z</time>
      </trkpt>
      <trkpt lat="43.107841999999586" lon="-1.2394570000000038">
        <ele>786.897</ele>
        <time>2022-08-24T08:18:07Z</time>
      </trkpt>
      <trkpt lat="43.10782899999958" lon="-1.2394600000000038">
        <ele>787.093</ele>
        <time>2022-08-24T08:18:08Z</time>
      </trkpt>
      <trkpt lat="43.107813999999586" lon="-1.2394630000000038">
        <ele>787.025</ele>
        <time>2022-08-24T08:18:09Z</time>
      </trkpt>
      <trkpt lat="43.10780199999959" lon="-1.2394600000000038">
        <ele>787.282</ele>
        <time>2022-08-24T08:18:10Z</time>
      </trkpt>
      <trkpt lat="43.10778999999959" lon="-1.2394610000000037">
        <ele>787.485</ele>
        <time>2022-08-24T08:18:11Z</time>
      </trkpt>
      <trkpt lat="43.10777699999959" lon="-1.2394620000000036">
        <ele>787.649</ele>
        <time>2022-08-24T08:18:12Z</time>
      </trkpt>
      <trkpt lat="43.10776499999959" lon="-1.2394600000000036">
        <ele>787.448</ele>
        <time>2022-08-24T08:18:13Z</time>
      </trkpt>
      <trkpt lat="43.107751999999586" lon="-1.2394590000000036">
        <ele>787.629</ele>
        <time>2022-08-24T08:18:14Z</time>
      </trkpt>
      <trkpt lat="43.10773999999959" lon="-1.2394580000000037">
        <ele>787.800</ele>
        <time>2022-08-24T08:18:15Z</time>
      </trkpt>
      <trkpt lat="43.107726999999585" lon="-1.2394570000000038">
        <ele>788.020</ele>
        <time>2022-08-24T08:18:16Z</time>
      </trkpt>
      <trkpt lat="43.107712999999585" lon="-1.2394600000000038">
        <ele>788.209</ele>
        <time>2022-08-24T08:18:17Z</time>
      </trkpt>
      <trkpt lat="43.10770299999958" lon="-1.2394600000000038">
        <ele>788.493</ele>
        <time>2022-08-24T08:18:18Z</time>
      </trkpt>
      <trkpt lat="43.10768999999958" lon="-1.2394590000000039">
        <ele>788.693</ele>
        <time>2022-08-24T08:18:19Z</time>
      </trkpt>
      <trkpt lat="43.107676999999576" lon="-1.2394600000000038">
        <ele>788.853</ele>
        <time>2022-08-24T08:18:20Z</time>
      </trkpt>
      <trkpt lat="43.10766399999957" lon="-1.2394590000000039">
        <ele>789.089</ele>
        <time>2022-08-24T08:18:21Z</time>
      </trkpt>
      <trkpt lat="43.107651999999575" lon="-1.2394560000000039">
        <ele>789.221</ele>
        <time>2022-08-24T08:18:22Z</time>
      </trkpt>
      <trkpt lat="43.107637999999575" lon="-1.2394540000000038">
        <ele>789.488</ele>
        <time>2022-08-24T08:18:23Z</time>
      </trkpt>
      <trkpt lat="43.107623999999575" lon="-1.2394540000000038">
        <ele>789.891</ele>
        <time>2022-08-24T08:18:24Z</time>
      </trkpt>
      <trkpt lat="43.10761099999957" lon="-1.2394570000000038">
        <ele>789.875</ele>
        <time>2022-08-24T08:18:25Z</time>
      </trkpt>
      <trkpt lat="43.107598999999574" lon="-1.2394550000000037">
        <ele>790.214</ele>
        <time>2022-08-24T08:18:26Z</time>
      </trkpt>
      <trkpt lat="43.107586999999576" lon="-1.2394550000000037">
        <ele>790.288</ele>
        <time>2022-08-24T08:18:27Z</time>
      </trkpt>
      <trkpt lat="43.107575999999575" lon="-1.2394570000000038">
        <ele>790.624</ele>
        <time>2022-08-24T08:18:28Z</time>
      </trkpt>
      <trkpt lat="43.10756399999958" lon="-1.2394540000000038">
        <ele>790.826</ele>
        <time>2022-08-24T08:18:29Z</time>
      </trkpt>
      <trkpt lat="43.10754899999958" lon="-1.2394510000000039">
        <ele>790.809</ele>
        <time>2022-08-24T08:18:30Z</time>
      </trkpt>
      <trkpt lat="43.10753499999958" lon="-1.239447000000004">
        <ele>791.049</ele>
        <time>2022-08-24T08:18:31Z</time>
      </trkpt>
      <trkpt lat="43.10751999999958" lon="-1.239446000000004">
        <ele>791.079</ele>
        <time>2022-08-24T08:18:32Z</time>
      </trkpt>
      <trkpt lat="43.10750699999958" lon="-1.239443000000004">
        <ele>791.239</ele>
        <time>2022-08-24T08:18:33Z</time>
      </trkpt>
      <trkpt lat="43.10749599999958" lon="-1.2394420000000042">
        <ele>791.475</ele>
        <time>2022-08-24T08:18:34Z</time>
      </trkpt>
      <trkpt lat="43.10748499999958" lon="-1.2394450000000041">
        <ele>791.667</ele>
        <time>2022-08-24T08:18:35Z</time>
      </trkpt>
      <trkpt lat="43.10747099999958" lon="-1.2394470000000042">
        <ele>792.024</ele>
        <time>2022-08-24T08:18:36Z</time>
      </trkpt>
      <trkpt lat="43.10745699999958" lon="-1.2394440000000042">
        <ele>792.057</ele>
        <time>2022-08-24T08:18:37Z</time>
      </trkpt>
      <trkpt lat="43.10744199999958" lon="-1.2394410000000042">
        <ele>792.481</ele>
        <time>2022-08-24T08:18:38Z</time>
      </trkpt>
      <trkpt lat="43.10742699999958" lon="-1.2394370000000043">
        <ele>792.660</ele>
        <time>2022-08-24T08:18:39Z</time>
      </trkpt>
      <trkpt lat="43.107411999999584" lon="-1.2394330000000044">
        <ele>792.883</ele>
        <time>2022-08-24T08:18:40Z</time>
      </trkpt>
      <trkpt lat="43.10739899999958" lon="-1.2394310000000044">
        <ele>793.225</ele>
        <time>2022-08-24T08:18:41Z</time>
      </trkpt>
      <trkpt lat="43.10738599999958" lon="-1.2394300000000045">
        <ele>793.217</ele>
        <time>2022-08-24T08:18:42Z</time>
      </trkpt>
      <trkpt lat="43.10737099999958" lon="-1.2394280000000044">
        <ele>793.609</ele>
        <time>2022-08-24T08:18:43Z</time>
      </trkpt>
      <trkpt lat="43.107355999999584" lon="-1.2394310000000044">
        <ele>793.879</ele>
        <time>2022-08-24T08:18:44Z</time>
      </trkpt>
      <trkpt lat="43.107340999999586" lon="-1.2394300000000045">
        <ele>794.069</ele>
        <time>2022-08-24T08:18:45Z</time>
      </trkpt>
      <trkpt lat="43.10732599999959" lon="-1.2394310000000044">
        <ele>794.469</ele>
        <time>2022-08-24T08:18:46Z</time>
      </trkpt>
      <trkpt lat="43.10731399999959" lon="-1.2394310000000044">
        <ele>794.465</ele>
        <time>2022-08-24T08:18:47Z</time>
      </trkpt>
      <trkpt lat="43.10729999999959" lon="-1.2394320000000043">
        <ele>794.877</ele>
        <time>2022-08-24T08:18:48Z</time>
      </trkpt>
      <trkpt lat="43.10728599999959" lon="-1.2394280000000044">
        <ele>795.054</ele>
        <time>2022-08-24T08:18:49Z</time>
      </trkpt>
      <trkpt lat="43.10727399999959" lon="-1.2394210000000043">
        <ele>795.277</ele>
        <time>2022-08-24T08:18:50Z</time>
      </trkpt>
      <trkpt lat="43.10726399999959" lon="-1.2394160000000043">
        <ele>795.421</ele>
        <time>2022-08-24T08:18:51Z</time>
      </trkpt>
      <trkpt lat="43.107253999999585" lon="-1.2394140000000042">
        <ele>795.640</ele>
        <time>2022-08-24T08:18:52Z</time>
      </trkpt>
      <trkpt lat="43.107242999999585" lon="-1.2394090000000042">
        <ele>795.873</ele>
        <time>2022-08-24T08:18:53Z</time>
      </trkpt>
      <trkpt lat="43.10723299999958" lon="-1.2394030000000043">
        <ele>796.085</ele>
        <time>2022-08-24T08:18:54Z</time>
      </trkpt>
      <trkpt lat="43.10722099999958" lon="-1.2394020000000043">
        <ele>796.413</ele>
        <time>2022-08-24T08:18:55Z</time>
      </trkpt>
      <trkpt lat="43.107211999999585" lon="-1.2393990000000044">
        <ele>796.609</ele>
        <time>2022-08-24T08:18:56Z</time>
      </trkpt>
      <trkpt lat="43.107202999999586" lon="-1.2393990000000044">
        <ele>796.878</ele>
        <time>2022-08-24T08:18:57Z</time>
      </trkpt>
      <trkpt lat="43.10719099999959" lon="-1.2393990000000044">
        <ele>797.038</ele>
        <time>2022-08-24T08:18:58Z</time>
      </trkpt>
      <trkpt lat="43.107180999999585" lon="-1.2393970000000043">
        <ele>797.058</ele>
        <time>2022-08-24T08:18:59Z</time>
      </trkpt>
      <trkpt lat="43.10716899999959" lon="-1.2393930000000044">
        <ele>797.434</ele>
        <time>2022-08-24T08:19:00Z</time>
      </trkpt>
      <trkpt lat="43.107157999999586" lon="-1.2393910000000044">
        <ele>797.436</ele>
        <time>2022-08-24T08:19:01Z</time>
      </trkpt>
      <trkpt lat="43.10714899999959" lon="-1.2393910000000044">
        <ele>797.613</ele>
        <time>2022-08-24T08:19:02Z</time>
      </trkpt>
      <trkpt lat="43.10713699999959" lon="-1.2393910000000044">
        <ele>797.866</ele>
        <time>2022-08-24T08:19:03Z</time>
      </trkpt>
      <trkpt lat="43.10712299999959" lon="-1.2393890000000043">
        <ele>797.830</ele>
        <time>2022-08-24T08:19:04Z</time>
      </trkpt>
      <trkpt lat="43.10710899999959" lon="-1.2393830000000043">
        <ele>798.049</ele>
        <time>2022-08-24T08:19:05Z</time>
      </trkpt>
      <trkpt lat="43.107098999999586" lon="-1.2393850000000044">
        <ele>798.221</ele>
        <time>2022-08-24T08:19:06Z</time>
      </trkpt>
      <trkpt lat="43.10709199999959" lon="-1.2393830000000043">
        <ele>798.441</ele>
        <time>2022-08-24T08:19:07Z</time>
      </trkpt>
      <trkpt lat="43.10708099999959" lon="-1.2393860000000043">
        <ele>798.605</ele>
        <time>2022-08-24T08:19:08Z</time>
      </trkpt>
      <trkpt lat="43.10706899999959" lon="-1.2393870000000042">
        <ele>799.009</ele>
        <time>2022-08-24T08:19:09Z</time>
      </trkpt>
      <trkpt lat="43.10705499999959" lon="-1.2393880000000042">
        <ele>799.283</ele>
        <time>2022-08-24T08:19:10Z</time>
      </trkpt>
      <trkpt lat="43.10704299999959" lon="-1.2393880000000042">
        <ele>799.453</ele>
        <time>2022-08-24T08:19:11Z</time>
      </trkpt>
      <trkpt lat="43.107030999999594" lon="-1.239389000000004">
        <ele>799.613</ele>
        <time>2022-08-24T08:19:12Z</time>
      </trkpt>
      <trkpt lat="43.10702599999959" lon="-1.239386000000004">
        <ele>799.869</ele>
        <time>2022-08-24T08:19:13Z</time>
      </trkpt>
      <trkpt lat="43.10701199999959" lon="-1.2393850000000042">
        <ele>799.841</ele>
        <time>2022-08-24T08:19:14Z</time>
      </trkpt>
      <trkpt lat="43.10700099999959" lon="-1.2393850000000042">
        <ele>800.018</ele>
        <time>2022-08-24T08:19:15Z</time>
      </trkpt>
      <trkpt lat="43.10698999999959" lon="-1.2393850000000042">
        <ele>800.061</ele>
        <time>2022-08-24T08:19:16Z</time>
      </trkpt>
      <trkpt lat="43.10697999999959" lon="-1.2393840000000043">
        <ele>800.255</ele>
        <time>2022-08-24T08:19:17Z</time>
      </trkpt>
      <trkpt lat="43.10697399999959" lon="-1.2393850000000042">
        <ele>800.484</ele>
        <time>2022-08-24T08:19:18Z</time>
      </trkpt>
      <trkpt lat="43.10696699999959" lon="-1.2393900000000042">
        <ele>800.843</ele>
        <time>2022-08-24T08:19:19Z</time>
      </trkpt>
      <trkpt lat="43.10695699999959" lon="-1.239394000000004">
        <ele>800.864</ele>
        <time>2022-08-24T08:19:20Z</time>
      </trkpt>
      <trkpt lat="43.106946999999586" lon="-1.239395000000004">
        <ele>800.810</ele>
        <time>2022-08-24T08:19:21Z</time>
      </trkpt>
      <trkpt lat="43.10693399999958" lon="-1.239390000000004">
        <ele>801.009</ele>
        <time>2022-08-24T08:19:22Z</time>
      </trkpt>
      <trkpt lat="43.106921999999585" lon="-1.239387000000004">
        <ele>801.255</ele>
        <time>2022-08-24T08:19:23Z</time>
      </trkpt>
      <trkpt lat="43.10690999999959" lon="-1.239391000000004">
        <ele>801.465</ele>
        <time>2022-08-24T08:19:24Z</time>
      </trkpt>
      <trkpt lat="43.106896999999584" lon="-1.2393970000000039">
        <ele>801.485</ele>
        <time>2022-08-24T08:19:25Z</time>
      </trkpt>
      <trkpt lat="43.10688699999958" lon="-1.239402000000004">
        <ele>801.871</ele>
        <time>2022-08-24T08:19:26Z</time>
      </trkpt>
      <trkpt lat="43.10687699999958" lon="-1.239409000000004">
        <ele>801.853</ele>
        <time>2022-08-24T08:19:27Z</time>
      </trkpt>
      <trkpt lat="43.10686499999958" lon="-1.239415000000004">
        <ele>802.040</ele>
        <time>2022-08-24T08:19:28Z</time>
      </trkpt>
      <trkpt lat="43.10685099999958" lon="-1.239418000000004">
        <ele>802.433</ele>
        <time>2022-08-24T08:19:29Z</time>
      </trkpt>
      <trkpt lat="43.10683699999958" lon="-1.2394210000000039">
        <ele>802.667</ele>
        <time>2022-08-24T08:19:30Z</time>
      </trkpt>
      <trkpt lat="43.10682799999958" lon="-1.239423000000004">
        <ele>803.076</ele>
        <time>2022-08-24T08:19:31Z</time>
      </trkpt>
      <trkpt lat="43.10681799999958" lon="-1.239418000000004">
        <ele>803.235</ele>
        <time>2022-08-24T08:19:32Z</time>
      </trkpt>
      <trkpt lat="43.10680299999958" lon="-1.2394160000000038">
        <ele>803.286</ele>
        <time>2022-08-24T08:19:33Z</time>
      </trkpt>
      <trkpt lat="43.10679099999958" lon="-1.2394160000000038">
        <ele>803.414</ele>
        <time>2022-08-24T08:19:34Z</time>
      </trkpt>
      <trkpt lat="43.10677699999958" lon="-1.2394210000000039">
        <ele>803.609</ele>
        <time>2022-08-24T08:19:35Z</time>
      </trkpt>
      <trkpt lat="43.10676399999958" lon="-1.2394250000000038">
        <ele>803.864</ele>
        <time>2022-08-24T08:19:36Z</time>
      </trkpt>
      <trkpt lat="43.10675299999958" lon="-1.2394320000000039">
        <ele>804.254</ele>
        <time>2022-08-24T08:19:37Z</time>
      </trkpt>
      <trkpt lat="43.106742999999575" lon="-1.2394330000000038">
        <ele>804.264</ele>
        <time>2022-08-24T08:19:38Z</time>
      </trkpt>
      <trkpt lat="43.10673099999958" lon="-1.2394400000000039">
        <ele>804.490</ele>
        <time>2022-08-24T08:19:39Z</time>
      </trkpt>
      <trkpt lat="43.10671999999958" lon="-1.2394460000000038">
        <ele>804.672</ele>
        <time>2022-08-24T08:19:40Z</time>
      </trkpt>
      <trkpt lat="43.10670799999958" lon="-1.2394480000000039">
        <ele>804.629</ele>
        <time>2022-08-24T08:19:41Z</time>
      </trkpt>
      <trkpt lat="43.10669699999958" lon="-1.2394490000000038">
        <ele>804.892</ele>
        <time>2022-08-24T08:19:42Z</time>
      </trkpt>
      <trkpt lat="43.106683999999575" lon="-1.2394530000000037">
        <ele>805.066</ele>
        <time>2022-08-24T08:19:43Z</time>
      </trkpt>
      <trkpt lat="43.10667099999957" lon="-1.2394610000000037">
        <ele>805.445</ele>
        <time>2022-08-24T08:19:44Z</time>
      </trkpt>
      <trkpt lat="43.106658999999574" lon="-1.2394630000000038">
        <ele>805.285</ele>
        <time>2022-08-24T08:19:45Z</time>
      </trkpt>
      <trkpt lat="43.10664599999957" lon="-1.2394670000000036">
        <ele>805.489</ele>
        <time>2022-08-24T08:19:46Z</time>
      </trkpt>
      <trkpt lat="43.10663399999957" lon="-1.2394700000000036">
        <ele>805.617</ele>
        <time>2022-08-24T08:19:47Z</time>
      </trkpt>
      <trkpt lat="43.106624999999575" lon="-1.2394660000000037">
        <ele>805.609</ele>
        <time>2022-08-24T08:19:48Z</time>
      </trkpt>
      <trkpt lat="43.10661199999957" lon="-1.2394620000000038">
        <ele>805.689</ele>
        <time>2022-08-24T08:19:49Z</time>
      </trkpt>
      <trkpt lat="43.106599999999574" lon="-1.2394590000000039">
        <ele>805.859</ele>
        <time>2022-08-24T08:19:50Z</time>
      </trkpt>
      <trkpt lat="43.106587999999576" lon="-1.2394560000000039">
        <ele>806.029</ele>
        <time>2022-08-24T08:19:51Z</time>
      </trkpt>
      <trkpt lat="43.106576999999575" lon="-1.239455000000004">
        <ele>806.035</ele>
        <time>2022-08-24T08:19:52Z</time>
      </trkpt>
      <trkpt lat="43.10656699999957" lon="-1.239443000000004">
        <ele>806.247</ele>
        <time>2022-08-24T08:19:53Z</time>
      </trkpt>
      <trkpt lat="43.10655699999957" lon="-1.239427000000004">
        <ele>806.444</ele>
        <time>2022-08-24T08:19:54Z</time>
      </trkpt>
      <trkpt lat="43.106543999999566" lon="-1.2394150000000042">
        <ele>806.457</ele>
        <time>2022-08-24T08:19:55Z</time>
      </trkpt>
      <trkpt lat="43.10653199999957" lon="-1.2394060000000042">
        <ele>806.691</ele>
        <time>2022-08-24T08:19:56Z</time>
      </trkpt>
      <trkpt lat="43.10652399999957" lon="-1.2393970000000043">
        <ele>806.670</ele>
        <time>2022-08-24T08:19:57Z</time>
      </trkpt>
      <trkpt lat="43.106512999999566" lon="-1.2393870000000042">
        <ele>806.876</ele>
        <time>2022-08-24T08:19:58Z</time>
      </trkpt>
      <trkpt lat="43.10650099999957" lon="-1.2393740000000042">
        <ele>806.890</ele>
        <time>2022-08-24T08:19:59Z</time>
      </trkpt>
      <trkpt lat="43.10649299999957" lon="-1.239359000000004">
        <ele>806.819</ele>
        <time>2022-08-24T08:20:00Z</time>
      </trkpt>
      <trkpt lat="43.10648399999957" lon="-1.2393450000000041">
        <ele>807.009</ele>
        <time>2022-08-24T08:20:01Z</time>
      </trkpt>
      <trkpt lat="43.10647499999957" lon="-1.2393250000000042">
        <ele>807.228</ele>
        <time>2022-08-24T08:20:02Z</time>
      </trkpt>
      <trkpt lat="43.10647199999957" lon="-1.2393150000000042">
        <ele>807.228</ele>
        <time>2022-08-24T08:20:03Z</time>
      </trkpt>
      <trkpt lat="43.10647199999957" lon="-1.239308000000004">
        <ele>807.498</ele>
        <time>2022-08-24T08:20:04Z</time>
      </trkpt>
      <trkpt lat="43.10646999999957" lon="-1.2392910000000041">
        <ele>807.644</ele>
        <time>2022-08-24T08:20:05Z</time>
      </trkpt>
      <trkpt lat="43.10646899999957" lon="-1.239273000000004">
        <ele>808.026</ele>
        <time>2022-08-24T08:20:06Z</time>
      </trkpt>
      <trkpt lat="43.10646399999957" lon="-1.239257000000004">
        <ele>808.223</ele>
        <time>2022-08-24T08:20:07Z</time>
      </trkpt>
      <trkpt lat="43.10645699999957" lon="-1.239242000000004">
        <ele>808.426</ele>
        <time>2022-08-24T08:20:08Z</time>
      </trkpt>
      <trkpt lat="43.106449999999576" lon="-1.239225000000004">
        <ele>808.440</ele>
        <time>2022-08-24T08:20:09Z</time>
      </trkpt>
      <trkpt lat="43.10644399999958" lon="-1.239205000000004">
        <ele>808.639</ele>
        <time>2022-08-24T08:20:10Z</time>
      </trkpt>
      <trkpt lat="43.106435999999576" lon="-1.2391860000000041">
        <ele>808.824</ele>
        <time>2022-08-24T08:20:11Z</time>
      </trkpt>
      <trkpt lat="43.10643699999957" lon="-1.239163000000004">
        <ele>808.804</ele>
        <time>2022-08-24T08:20:12Z</time>
      </trkpt>
      <trkpt lat="43.106441999999575" lon="-1.239141000000004">
        <ele>809.014</ele>
        <time>2022-08-24T08:20:13Z</time>
      </trkpt>
      <trkpt lat="43.10644399999958" lon="-1.239119000000004">
        <ele>809.209</ele>
        <time>2022-08-24T08:20:14Z</time>
      </trkpt>
      <trkpt lat="43.10645099999957" lon="-1.239090000000004">
        <ele>809.243</ele>
        <time>2022-08-24T08:20:15Z</time>
      </trkpt>
      <trkpt lat="43.10645199999957" lon="-1.239065000000004">
        <ele>809.423</ele>
        <time>2022-08-24T08:20:16Z</time>
      </trkpt>
      <trkpt lat="43.10645299999957" lon="-1.239036000000004">
        <ele>809.653</ele>
        <time>2022-08-24T08:20:17Z</time>
      </trkpt>
      <trkpt lat="43.10645299999957" lon="-1.239013000000004">
        <ele>809.689</ele>
        <time>2022-08-24T08:20:18Z</time>
      </trkpt>
      <trkpt lat="43.10644899999957" lon="-1.2389950000000038">
        <ele>809.861</ele>
        <time>2022-08-24T08:20:19Z</time>
      </trkpt>
      <trkpt lat="43.106447999999574" lon="-1.2389730000000039">
        <ele>810.078</ele>
        <time>2022-08-24T08:20:20Z</time>
      </trkpt>
      <trkpt lat="43.10644599999957" lon="-1.238953000000004">
        <ele>810.221</ele>
        <time>2022-08-24T08:20:21Z</time>
      </trkpt>
      <trkpt lat="43.10644299999957" lon="-1.238928000000004">
        <ele>810.475</ele>
        <time>2022-08-24T08:20:22Z</time>
      </trkpt>
      <trkpt lat="43.10644299999957" lon="-1.2389080000000041">
        <ele>810.624</ele>
        <time>2022-08-24T08:20:23Z</time>
      </trkpt>
      <trkpt lat="43.106444999999574" lon="-1.238885000000004">
        <ele>810.842</ele>
        <time>2022-08-24T08:20:24Z</time>
      </trkpt>
      <trkpt lat="43.10644299999957" lon="-1.238866000000004">
        <ele>811.022</ele>
        <time>2022-08-24T08:20:25Z</time>
      </trkpt>
      <trkpt lat="43.106441999999575" lon="-1.238845000000004">
        <ele>811.014</ele>
        <time>2022-08-24T08:20:26Z</time>
      </trkpt>
      <trkpt lat="43.106438999999575" lon="-1.2388300000000039">
        <ele>811.209</ele>
        <time>2022-08-24T08:20:27Z</time>
      </trkpt>
      <trkpt lat="43.10643799999958" lon="-1.238805000000004">
        <ele>811.475</ele>
        <time>2022-08-24T08:20:28Z</time>
      </trkpt>
      <trkpt lat="43.10643999999958" lon="-1.238781000000004">
        <ele>811.625</ele>
        <time>2022-08-24T08:20:29Z</time>
      </trkpt>
      <trkpt lat="43.10644099999958" lon="-1.238756000000004">
        <ele>812.045</ele>
        <time>2022-08-24T08:20:30Z</time>
      </trkpt>
      <trkpt lat="43.10643799999958" lon="-1.238735000000004">
        <ele>812.051</ele>
        <time>2022-08-24T08:20:31Z</time>
      </trkpt>
      <trkpt lat="43.106435999999576" lon="-1.238715000000004">
        <ele>812.243</ele>
        <time>2022-08-24T08:20:32Z</time>
      </trkpt>
      <trkpt lat="43.106435999999576" lon="-1.238692000000004">
        <ele>812.280</ele>
        <time>2022-08-24T08:20:33Z</time>
      </trkpt>
      <trkpt lat="43.106432999999576" lon="-1.2386690000000038">
        <ele>812.453</ele>
        <time>2022-08-24T08:20:34Z</time>
      </trkpt>
      <trkpt lat="43.10642899999958" lon="-1.2386480000000037">
        <ele>812.647</ele>
        <time>2022-08-24T08:20:35Z</time>
      </trkpt>
      <trkpt lat="43.10642499999958" lon="-1.2386270000000037">
        <ele>812.876</ele>
        <time>2022-08-24T08:20:36Z</time>
      </trkpt>
      <trkpt lat="43.106420999999585" lon="-1.2386030000000037">
        <ele>812.859</ele>
        <time>2022-08-24T08:20:37Z</time>
      </trkpt>
      <trkpt lat="43.10641699999959" lon="-1.2385780000000037">
        <ele>813.003</ele>
        <time>2022-08-24T08:20:38Z</time>
      </trkpt>
      <trkpt lat="43.10641199999959" lon="-1.2385580000000038">
        <ele>813.023</ele>
        <time>2022-08-24T08:20:39Z</time>
      </trkpt>
      <trkpt lat="43.10641099999959" lon="-1.2385350000000037">
        <ele>813.009</ele>
        <time>2022-08-24T08:20:40Z</time>
      </trkpt>
      <trkpt lat="43.10640399999959" lon="-1.2385160000000037">
        <ele>813.216</ele>
        <time>2022-08-24T08:20:41Z</time>
      </trkpt>
      <trkpt lat="43.106402999999595" lon="-1.2384930000000036">
        <ele>813.446</ele>
        <time>2022-08-24T08:20:42Z</time>
      </trkpt>
      <trkpt lat="43.1064019999996" lon="-1.2384710000000037">
        <ele>813.446</ele>
        <time>2022-08-24T08:20:43Z</time>
      </trkpt>
      <trkpt lat="43.1064019999996" lon="-1.2384440000000037">
        <ele>813.842</ele>
        <time>2022-08-24T08:20:44Z</time>
      </trkpt>
      <trkpt lat="43.1063979999996" lon="-1.2384250000000037">
        <ele>814.284</ele>
        <time>2022-08-24T08:20:45Z</time>
      </trkpt>
      <trkpt lat="43.1063919999996" lon="-1.2384050000000038">
        <ele>814.461</ele>
        <time>2022-08-24T08:20:46Z</time>
      </trkpt>
      <trkpt lat="43.1063929999996" lon="-1.2383870000000037">
        <ele>814.674</ele>
        <time>2022-08-24T08:20:47Z</time>
      </trkpt>
      <trkpt lat="43.1063919999996" lon="-1.2383650000000037">
        <ele>814.648</ele>
        <time>2022-08-24T08:20:48Z</time>
      </trkpt>
      <trkpt lat="43.106390999999604" lon="-1.2383430000000037">
        <ele>814.867</ele>
        <time>2022-08-24T08:20:49Z</time>
      </trkpt>
      <trkpt lat="43.10638699999961" lon="-1.2383180000000038">
        <ele>814.891</ele>
        <time>2022-08-24T08:20:50Z</time>
      </trkpt>
      <trkpt lat="43.10638399999961" lon="-1.2382960000000038">
        <ele>815.081</ele>
        <time>2022-08-24T08:20:51Z</time>
      </trkpt>
      <trkpt lat="43.10638099999961" lon="-1.238279000000004">
        <ele>815.019</ele>
        <time>2022-08-24T08:20:52Z</time>
      </trkpt>
      <trkpt lat="43.10637799999961" lon="-1.238257000000004">
        <ele>815.209</ele>
        <time>2022-08-24T08:20:53Z</time>
      </trkpt>
      <trkpt lat="43.10637299999961" lon="-1.238236000000004">
        <ele>815.230</ele>
        <time>2022-08-24T08:20:54Z</time>
      </trkpt>
      <trkpt lat="43.10636899999961" lon="-1.238216000000004">
        <ele>815.460</ele>
        <time>2022-08-24T08:20:55Z</time>
      </trkpt>
      <trkpt lat="43.10636199999961" lon="-1.2381930000000039">
        <ele>815.430</ele>
        <time>2022-08-24T08:20:56Z</time>
      </trkpt>
      <trkpt lat="43.10636299999961" lon="-1.2381740000000039">
        <ele>815.656</ele>
        <time>2022-08-24T08:20:57Z</time>
      </trkpt>
      <trkpt lat="43.10635399999961" lon="-1.2381560000000038">
        <ele>815.828</ele>
        <time>2022-08-24T08:20:58Z</time>
      </trkpt>
      <trkpt lat="43.10634399999961" lon="-1.2381400000000038">
        <ele>816.095</ele>
        <time>2022-08-24T08:20:59Z</time>
      </trkpt>
      <trkpt lat="43.10633499999961" lon="-1.2381170000000037">
        <ele>816.298</ele>
        <time>2022-08-24T08:21:00Z</time>
      </trkpt>
      <trkpt lat="43.10632899999961" lon="-1.2380950000000037">
        <ele>816.482</ele>
        <time>2022-08-24T08:21:01Z</time>
      </trkpt>
      <trkpt lat="43.10632099999961" lon="-1.2380770000000036">
        <ele>816.461</ele>
        <time>2022-08-24T08:21:02Z</time>
      </trkpt>
      <trkpt lat="43.106313999999614" lon="-1.2380670000000036">
        <ele>816.452</ele>
        <time>2022-08-24T08:21:03Z</time>
      </trkpt>
      <trkpt lat="43.106301999999616" lon="-1.2380540000000035">
        <ele>816.653</ele>
        <time>2022-08-24T08:21:04Z</time>
      </trkpt>
      <trkpt lat="43.106287999999616" lon="-1.2380440000000035">
        <ele>816.608</ele>
        <time>2022-08-24T08:21:05Z</time>
      </trkpt>
      <trkpt lat="43.10627199999961" lon="-1.2380280000000035">
        <ele>817.009</ele>
        <time>2022-08-24T08:21:06Z</time>
      </trkpt>
      <trkpt lat="43.10625899999961" lon="-1.2380140000000035">
        <ele>817.026</ele>
        <time>2022-08-24T08:21:07Z</time>
      </trkpt>
      <trkpt lat="43.10624999999961" lon="-1.2380040000000034">
        <ele>817.446</ele>
        <time>2022-08-24T08:21:08Z</time>
      </trkpt>
      <trkpt lat="43.106234999999614" lon="-1.2379920000000035">
        <ele>817.676</ele>
        <time>2022-08-24T08:21:09Z</time>
      </trkpt>
      <trkpt lat="43.10621599999961" lon="-1.2379810000000036">
        <ele>817.662</ele>
        <time>2022-08-24T08:21:10Z</time>
      </trkpt>
      <trkpt lat="43.106200999999615" lon="-1.2379730000000035">
        <ele>817.824</ele>
        <time>2022-08-24T08:21:11Z</time>
      </trkpt>
      <trkpt lat="43.10618799999961" lon="-1.2379660000000035">
        <ele>817.851</ele>
        <time>2022-08-24T08:21:12Z</time>
      </trkpt>
      <trkpt lat="43.10617799999961" lon="-1.2379600000000035">
        <ele>818.064</ele>
        <time>2022-08-24T08:21:13Z</time>
      </trkpt>
      <trkpt lat="43.10616299999961" lon="-1.2379560000000036">
        <ele>818.218</ele>
        <time>2022-08-24T08:21:14Z</time>
      </trkpt>
      <trkpt lat="43.10614899999961" lon="-1.2379500000000037">
        <ele>818.417</ele>
        <time>2022-08-24T08:21:15Z</time>
      </trkpt>
      <trkpt lat="43.10613299999961" lon="-1.2379400000000036">
        <ele>818.875</ele>
        <time>2022-08-24T08:21:16Z</time>
      </trkpt>
      <trkpt lat="43.10612099999961" lon="-1.2379310000000037">
        <ele>818.828</ele>
        <time>2022-08-24T08:21:17Z</time>
      </trkpt>
      <trkpt lat="43.10610699999961" lon="-1.2379220000000037">
        <ele>819.020</ele>
        <time>2022-08-24T08:21:18Z</time>
      </trkpt>
      <trkpt lat="43.10608999999961" lon="-1.2379160000000038">
        <ele>819.209</ele>
        <time>2022-08-24T08:21:19Z</time>
      </trkpt>
      <trkpt lat="43.10607499999961" lon="-1.2379140000000037">
        <ele>819.438</ele>
        <time>2022-08-24T08:21:20Z</time>
      </trkpt>
      <trkpt lat="43.10606099999961" lon="-1.2379100000000038">
        <ele>819.668</ele>
        <time>2022-08-24T08:21:21Z</time>
      </trkpt>
      <trkpt lat="43.10604499999961" lon="-1.237906000000004">
        <ele>819.858</ele>
        <time>2022-08-24T08:21:22Z</time>
      </trkpt>
      <trkpt lat="43.10603499999961" lon="-1.237903000000004">
        <ele>820.084</ele>
        <time>2022-08-24T08:21:23Z</time>
      </trkpt>
      <trkpt lat="43.10602299999961" lon="-1.237899000000004">
        <ele>820.046</ele>
        <time>2022-08-24T08:21:24Z</time>
      </trkpt>
      <trkpt lat="43.10600899999961" lon="-1.237896000000004">
        <ele>820.483</ele>
        <time>2022-08-24T08:21:25Z</time>
      </trkpt>
      <trkpt lat="43.10599299999961" lon="-1.2378950000000042">
        <ele>820.696</ele>
        <time>2022-08-24T08:21:26Z</time>
      </trkpt>
      <trkpt lat="43.105979999999605" lon="-1.237896000000004">
        <ele>820.630</ele>
        <time>2022-08-24T08:21:27Z</time>
      </trkpt>
      <trkpt lat="43.1059699999996" lon="-1.2378920000000042">
        <ele>821.029</ele>
        <time>2022-08-24T08:21:28Z</time>
      </trkpt>
      <trkpt lat="43.1059569999996" lon="-1.2378900000000042">
        <ele>821.298</ele>
        <time>2022-08-24T08:21:29Z</time>
      </trkpt>
      <trkpt lat="43.105943999999596" lon="-1.237891000000004">
        <ele>821.215</ele>
        <time>2022-08-24T08:21:30Z</time>
      </trkpt>
      <trkpt lat="43.1059289999996" lon="-1.2378930000000041">
        <ele>821.626</ele>
        <time>2022-08-24T08:21:31Z</time>
      </trkpt>
      <trkpt lat="43.105915999999596" lon="-1.2378920000000042">
        <ele>821.809</ele>
        <time>2022-08-24T08:21:32Z</time>
      </trkpt>
      <trkpt lat="43.105901999999595" lon="-1.2378910000000043">
        <ele>822.050</ele>
        <time>2022-08-24T08:21:33Z</time>
      </trkpt>
      <trkpt lat="43.105890999999595" lon="-1.2378890000000042">
        <ele>822.050</ele>
        <time>2022-08-24T08:21:34Z</time>
      </trkpt>
      <trkpt lat="43.10587199999959" lon="-1.2378890000000042">
        <ele>822.280</ele>
        <time>2022-08-24T08:21:35Z</time>
      </trkpt>
      <trkpt lat="43.10586199999959" lon="-1.2378920000000042">
        <ele>822.236</ele>
        <time>2022-08-24T08:21:36Z</time>
      </trkpt>
      <trkpt lat="43.10584199999959" lon="-1.2378980000000042">
        <ele>822.428</ele>
        <time>2022-08-24T08:21:37Z</time>
      </trkpt>
      <trkpt lat="43.10582599999959" lon="-1.237899000000004">
        <ele>822.675</ele>
        <time>2022-08-24T08:21:38Z</time>
      </trkpt>
      <trkpt lat="43.10581399999959" lon="-1.237899000000004">
        <ele>822.688</ele>
        <time>2022-08-24T08:21:39Z</time>
      </trkpt>
      <trkpt lat="43.10580199999959" lon="-1.237899000000004">
        <ele>822.862</ele>
        <time>2022-08-24T08:21:40Z</time>
      </trkpt>
      <trkpt lat="43.10578899999959" lon="-1.237903000000004">
        <ele>823.031</ele>
        <time>2022-08-24T08:21:41Z</time>
      </trkpt>
      <trkpt lat="43.10577199999959" lon="-1.237906000000004">
        <ele>823.481</ele>
        <time>2022-08-24T08:21:42Z</time>
      </trkpt>
      <trkpt lat="43.10575899999959" lon="-1.237909000000004">
        <ele>823.661</ele>
        <time>2022-08-24T08:21:43Z</time>
      </trkpt>
      <trkpt lat="43.10574699999959" lon="-1.2379100000000038">
        <ele>823.817</ele>
        <time>2022-08-24T08:21:44Z</time>
      </trkpt>
      <trkpt lat="43.10573299999959" lon="-1.2379140000000037">
        <ele>824.009</ele>
        <time>2022-08-24T08:21:45Z</time>
      </trkpt>
      <trkpt lat="43.10571899999959" lon="-1.2379190000000038">
        <ele>824.029</ele>
        <time>2022-08-24T08:21:46Z</time>
      </trkpt>
      <trkpt lat="43.10569999999959" lon="-1.2379270000000038">
        <ele>824.269</ele>
        <time>2022-08-24T08:21:47Z</time>
      </trkpt>
      <trkpt lat="43.10568499999959" lon="-1.2379340000000039">
        <ele>824.619</ele>
        <time>2022-08-24T08:21:48Z</time>
      </trkpt>
      <trkpt lat="43.10567099999959" lon="-1.237939000000004">
        <ele>824.675</ele>
        <time>2022-08-24T08:21:49Z</time>
      </trkpt>
      <trkpt lat="43.10565899999959" lon="-1.2379450000000038">
        <ele>824.817</ele>
        <time>2022-08-24T08:21:50Z</time>
      </trkpt>
      <trkpt lat="43.10564899999959" lon="-1.2379500000000039">
        <ele>825.074</ele>
        <time>2022-08-24T08:21:51Z</time>
      </trkpt>
      <trkpt lat="43.10563499999959" lon="-1.2379560000000038">
        <ele>825.227</ele>
        <time>2022-08-24T08:21:52Z</time>
      </trkpt>
      <trkpt lat="43.10562099999959" lon="-1.2379620000000038">
        <ele>825.251</ele>
        <time>2022-08-24T08:21:53Z</time>
      </trkpt>
      <trkpt lat="43.105607999999584" lon="-1.2379700000000038">
        <ele>825.460</ele>
        <time>2022-08-24T08:21:54Z</time>
      </trkpt>
      <trkpt lat="43.105596999999584" lon="-1.2379760000000037">
        <ele>825.612</ele>
        <time>2022-08-24T08:21:55Z</time>
      </trkpt>
      <trkpt lat="43.10558399999958" lon="-1.2379820000000037">
        <ele>825.632</ele>
        <time>2022-08-24T08:21:56Z</time>
      </trkpt>
      <trkpt lat="43.10557199999958" lon="-1.2379910000000036">
        <ele>825.805</ele>
        <time>2022-08-24T08:21:57Z</time>
      </trkpt>
      <trkpt lat="43.10555799999958" lon="-1.2380060000000037">
        <ele>825.809</ele>
        <time>2022-08-24T08:21:58Z</time>
      </trkpt>
      <trkpt lat="43.10554699999958" lon="-1.2380170000000037">
        <ele>826.272</ele>
        <time>2022-08-24T08:21:59Z</time>
      </trkpt>
      <trkpt lat="43.10554099999958" lon="-1.2380240000000038">
        <ele>826.432</ele>
        <time>2022-08-24T08:22:00Z</time>
      </trkpt>
      <trkpt lat="43.10552799999958" lon="-1.2380350000000038">
        <ele>826.642</ele>
        <time>2022-08-24T08:22:01Z</time>
      </trkpt>
      <trkpt lat="43.10551699999958" lon="-1.2380430000000038">
        <ele>826.898</ele>
        <time>2022-08-24T08:22:02Z</time>
      </trkpt>
      <trkpt lat="43.10550399999958" lon="-1.2380550000000037">
        <ele>827.020</ele>
        <time>2022-08-24T08:22:03Z</time>
      </trkpt>
      <trkpt lat="43.105493999999574" lon="-1.2380650000000037">
        <ele>827.257</ele>
        <time>2022-08-24T08:22:04Z</time>
      </trkpt>
      <trkpt lat="43.105481999999576" lon="-1.2380750000000038">
        <ele>827.440</ele>
        <time>2022-08-24T08:22:05Z</time>
      </trkpt>
      <trkpt lat="43.10547199999957" lon="-1.2380840000000037">
        <ele>827.684</ele>
        <time>2022-08-24T08:22:06Z</time>
      </trkpt>
      <trkpt lat="43.10545899999957" lon="-1.2380950000000037">
        <ele>827.863</ele>
        <time>2022-08-24T08:22:07Z</time>
      </trkpt>
      <trkpt lat="43.10544699999957" lon="-1.2381100000000038">
        <ele>828.086</ele>
        <time>2022-08-24T08:22:08Z</time>
      </trkpt>
      <trkpt lat="43.10543599999957" lon="-1.2381200000000039">
        <ele>828.260</ele>
        <time>2022-08-24T08:22:09Z</time>
      </trkpt>
      <trkpt lat="43.10542599999957" lon="-1.2381310000000039">
        <ele>828.226</ele>
        <time>2022-08-24T08:22:10Z</time>
      </trkpt>
      <trkpt lat="43.10541499999957" lon="-1.238141000000004">
        <ele>828.409</ele>
        <time>2022-08-24T08:22:11Z</time>
      </trkpt>
      <trkpt lat="43.10540399999957" lon="-1.2381530000000038">
        <ele>828.459</ele>
        <time>2022-08-24T08:22:12Z</time>
      </trkpt>
      <trkpt lat="43.105392999999566" lon="-1.2381650000000037">
        <ele>828.489</ele>
        <time>2022-08-24T08:22:13Z</time>
      </trkpt>
      <trkpt lat="43.10537999999956" lon="-1.2381780000000038">
        <ele>828.699</ele>
        <time>2022-08-24T08:22:14Z</time>
      </trkpt>
      <trkpt lat="43.10537199999956" lon="-1.2381850000000039">
        <ele>828.885</ele>
        <time>2022-08-24T08:22:15Z</time>
      </trkpt>
      <trkpt lat="43.10536099999956" lon="-1.2381990000000038">
        <ele>828.847</ele>
        <time>2022-08-24T08:22:16Z</time>
      </trkpt>
      <trkpt lat="43.10534999999956" lon="-1.238214000000004">
        <ele>829.094</ele>
        <time>2022-08-24T08:22:17Z</time>
      </trkpt>
      <trkpt lat="43.10533699999956" lon="-1.238227000000004">
        <ele>829.057</ele>
        <time>2022-08-24T08:22:18Z</time>
      </trkpt>
      <trkpt lat="43.10532299999956" lon="-1.238242000000004">
        <ele>829.241</ele>
        <time>2022-08-24T08:22:19Z</time>
      </trkpt>
      <trkpt lat="43.10531099999956" lon="-1.238254000000004">
        <ele>829.280</ele>
        <time>2022-08-24T08:22:20Z</time>
      </trkpt>
      <trkpt lat="43.10530099999956" lon="-1.238268000000004">
        <ele>829.472</ele>
        <time>2022-08-24T08:22:21Z</time>
      </trkpt>
      <trkpt lat="43.10529399999956" lon="-1.238279000000004">
        <ele>829.613</ele>
        <time>2022-08-24T08:22:22Z</time>
      </trkpt>
      <trkpt lat="43.10528299999956" lon="-1.2382910000000038">
        <ele>829.814</ele>
        <time>2022-08-24T08:22:23Z</time>
      </trkpt>
      <trkpt lat="43.10526899999956" lon="-1.2383070000000038">
        <ele>829.809</ele>
        <time>2022-08-24T08:22:24Z</time>
      </trkpt>
      <trkpt lat="43.10525599999956" lon="-1.2383200000000039">
        <ele>829.828</ele>
        <time>2022-08-24T08:22:25Z</time>
      </trkpt>
      <trkpt lat="43.105244999999556" lon="-1.2383310000000038">
        <ele>830.228</ele>
        <time>2022-08-24T08:22:26Z</time>
      </trkpt>
      <trkpt lat="43.10523599999956" lon="-1.2383420000000038">
        <ele>830.228</ele>
        <time>2022-08-24T08:22:27Z</time>
      </trkpt>
      <trkpt lat="43.10522399999956" lon="-1.2383560000000038">
        <ele>830.494</ele>
        <time>2022-08-24T08:22:28Z</time>
      </trkpt>
      <trkpt lat="43.10520899999956" lon="-1.2383740000000039">
        <ele>830.636</ele>
        <time>2022-08-24T08:22:29Z</time>
      </trkpt>
      <trkpt lat="43.10519499999956" lon="-1.2383880000000038">
        <ele>830.883</ele>
        <time>2022-08-24T08:22:30Z</time>
      </trkpt>
      <trkpt lat="43.10518199999956" lon="-1.2384010000000039">
        <ele>830.826</ele>
        <time>2022-08-24T08:22:31Z</time>
      </trkpt>
      <trkpt lat="43.10517099999956" lon="-1.2384150000000038">
        <ele>830.820</ele>
        <time>2022-08-24T08:22:32Z</time>
      </trkpt>
      <trkpt lat="43.10516299999956" lon="-1.2384240000000037">
        <ele>830.869</ele>
        <time>2022-08-24T08:22:33Z</time>
      </trkpt>
      <trkpt lat="43.105152999999554" lon="-1.2384370000000038">
        <ele>831.055</ele>
        <time>2022-08-24T08:22:34Z</time>
      </trkpt>
      <trkpt lat="43.105140999999556" lon="-1.2384520000000039">
        <ele>831.007</ele>
        <time>2022-08-24T08:22:35Z</time>
      </trkpt>
      <trkpt lat="43.10513099999955" lon="-1.238465000000004">
        <ele>831.217</ele>
        <time>2022-08-24T08:22:36Z</time>
      </trkpt>
      <trkpt lat="43.10511999999955" lon="-1.238478000000004">
        <ele>831.409</ele>
        <time>2022-08-24T08:22:37Z</time>
      </trkpt>
      <trkpt lat="43.10510899999955" lon="-1.238488000000004">
        <ele>831.476</ele>
        <time>2022-08-24T08:22:38Z</time>
      </trkpt>
      <trkpt lat="43.10509599999955" lon="-1.238500000000004">
        <ele>831.426</ele>
        <time>2022-08-24T08:22:39Z</time>
      </trkpt>
      <trkpt lat="43.10508199999955" lon="-1.2385120000000038">
        <ele>831.626</ele>
        <time>2022-08-24T08:22:40Z</time>
      </trkpt>
      <trkpt lat="43.10506699999955" lon="-1.2385280000000038">
        <ele>831.822</ele>
        <time>2022-08-24T08:22:41Z</time>
      </trkpt>
      <trkpt lat="43.10505799999955" lon="-1.238538000000004">
        <ele>831.884</ele>
        <time>2022-08-24T08:22:42Z</time>
      </trkpt>
      <trkpt lat="43.105045999999554" lon="-1.238551000000004">
        <ele>832.011</ele>
        <time>2022-08-24T08:22:43Z</time>
      </trkpt>
      <trkpt lat="43.10503299999955" lon="-1.2385630000000039">
        <ele>832.074</ele>
        <time>2022-08-24T08:22:44Z</time>
      </trkpt>
      <trkpt lat="43.10502399999955" lon="-1.2385770000000038">
        <ele>832.498</ele>
        <time>2022-08-24T08:22:45Z</time>
      </trkpt>
      <trkpt lat="43.10501099999955" lon="-1.2385970000000037">
        <ele>832.657</ele>
        <time>2022-08-24T08:22:46Z</time>
      </trkpt>
      <trkpt lat="43.10500099999955" lon="-1.2386130000000037">
        <ele>832.634</ele>
        <time>2022-08-24T08:22:47Z</time>
      </trkpt>
      <trkpt lat="43.10498699999955" lon="-1.2386280000000038">
        <ele>832.655</ele>
        <time>2022-08-24T08:22:48Z</time>
      </trkpt>
      <trkpt lat="43.10497699999954" lon="-1.238638000000004">
        <ele>832.810</ele>
        <time>2022-08-24T08:22:49Z</time>
      </trkpt>
      <trkpt lat="43.104964999999545" lon="-1.238651000000004">
        <ele>832.809</ele>
        <time>2022-08-24T08:22:50Z</time>
      </trkpt>
      <trkpt lat="43.104947999999546" lon="-1.238669000000004">
        <ele>832.834</ele>
        <time>2022-08-24T08:22:51Z</time>
      </trkpt>
      <trkpt lat="43.10493799999954" lon="-1.238683000000004">
        <ele>833.244</ele>
        <time>2022-08-24T08:22:52Z</time>
      </trkpt>
      <trkpt lat="43.10492399999954" lon="-1.238700000000004">
        <ele>833.294</ele>
        <time>2022-08-24T08:22:53Z</time>
      </trkpt>
      <trkpt lat="43.10491099999954" lon="-1.2387120000000038">
        <ele>833.450</ele>
        <time>2022-08-24T08:22:54Z</time>
      </trkpt>
      <trkpt lat="43.10489699999954" lon="-1.2387280000000038">
        <ele>833.462</ele>
        <time>2022-08-24T08:22:55Z</time>
      </trkpt>
      <trkpt lat="43.10487899999954" lon="-1.238746000000004">
        <ele>833.649</ele>
        <time>2022-08-24T08:22:56Z</time>
      </trkpt>
      <trkpt lat="43.10486499999954" lon="-1.2387630000000038">
        <ele>833.642</ele>
        <time>2022-08-24T08:22:57Z</time>
      </trkpt>
      <trkpt lat="43.10485199999954" lon="-1.2387800000000038">
        <ele>833.856</ele>
        <time>2022-08-24T08:22:58Z</time>
      </trkpt>
      <trkpt lat="43.10483799999954" lon="-1.2387970000000037">
        <ele>834.075</ele>
        <time>2022-08-24T08:22:59Z</time>
      </trkpt>
      <trkpt lat="43.10482099999954" lon="-1.2388140000000036">
        <ele>834.234</ele>
        <time>2022-08-24T08:23:00Z</time>
      </trkpt>
      <trkpt lat="43.10480499999954" lon="-1.2388300000000037">
        <ele>834.255</ele>
        <time>2022-08-24T08:23:01Z</time>
      </trkpt>
      <trkpt lat="43.10479099999954" lon="-1.2388460000000037">
        <ele>834.410</ele>
        <time>2022-08-24T08:23:02Z</time>
      </trkpt>
      <trkpt lat="43.104777999999534" lon="-1.2388630000000036">
        <ele>834.609</ele>
        <time>2022-08-24T08:23:03Z</time>
      </trkpt>
      <trkpt lat="43.104763999999534" lon="-1.2388810000000037">
        <ele>834.614</ele>
        <time>2022-08-24T08:23:04Z</time>
      </trkpt>
      <trkpt lat="43.10474799999953" lon="-1.2388990000000037">
        <ele>834.684</ele>
        <time>2022-08-24T08:23:05Z</time>
      </trkpt>
      <trkpt lat="43.10473099999953" lon="-1.2389140000000038">
        <ele>834.844</ele>
        <time>2022-08-24T08:23:06Z</time>
      </trkpt>
      <trkpt lat="43.10471699999953" lon="-1.238929000000004">
        <ele>834.880</ele>
        <time>2022-08-24T08:23:07Z</time>
      </trkpt>
      <trkpt lat="43.104704999999534" lon="-1.238944000000004">
        <ele>834.892</ele>
        <time>2022-08-24T08:23:08Z</time>
      </trkpt>
      <trkpt lat="43.104689999999536" lon="-1.2389590000000041">
        <ele>835.089</ele>
        <time>2022-08-24T08:23:09Z</time>
      </trkpt>
      <trkpt lat="43.104678999999535" lon="-1.2389750000000042">
        <ele>835.052</ele>
        <time>2022-08-24T08:23:10Z</time>
      </trkpt>
      <trkpt lat="43.104664999999535" lon="-1.2389910000000042">
        <ele>835.076</ele>
        <time>2022-08-24T08:23:11Z</time>
      </trkpt>
      <trkpt lat="43.10464999999954" lon="-1.2390060000000043">
        <ele>835.485</ele>
        <time>2022-08-24T08:23:12Z</time>
      </trkpt>
      <trkpt lat="43.104633999999535" lon="-1.2390250000000043">
        <ele>835.436</ele>
        <time>2022-08-24T08:23:13Z</time>
      </trkpt>
      <trkpt lat="43.10462199999954" lon="-1.2390420000000042">
        <ele>835.617</ele>
        <time>2022-08-24T08:23:14Z</time>
      </trkpt>
      <trkpt lat="43.104608999999535" lon="-1.2390590000000041">
        <ele>835.618</ele>
        <time>2022-08-24T08:23:15Z</time>
      </trkpt>
      <trkpt lat="43.104597999999534" lon="-1.2390750000000041">
        <ele>835.609</ele>
        <time>2022-08-24T08:23:16Z</time>
      </trkpt>
      <trkpt lat="43.104582999999536" lon="-1.239092000000004">
        <ele>835.874</ele>
        <time>2022-08-24T08:23:17Z</time>
      </trkpt>
      <trkpt lat="43.104566999999534" lon="-1.239108000000004">
        <ele>835.814</ele>
        <time>2022-08-24T08:23:18Z</time>
      </trkpt>
      <trkpt lat="43.104551999999536" lon="-1.239122000000004">
        <ele>836.054</ele>
        <time>2022-08-24T08:23:19Z</time>
      </trkpt>
      <trkpt lat="43.104535999999534" lon="-1.239138000000004">
        <ele>836.040</ele>
        <time>2022-08-24T08:23:20Z</time>
      </trkpt>
      <trkpt lat="43.10452299999953" lon="-1.239157000000004">
        <ele>836.022</ele>
        <time>2022-08-24T08:23:21Z</time>
      </trkpt>
      <trkpt lat="43.10450999999953" lon="-1.239177000000004">
        <ele>836.279</ele>
        <time>2022-08-24T08:23:22Z</time>
      </trkpt>
      <trkpt lat="43.10449799999953" lon="-1.239195000000004">
        <ele>836.232</ele>
        <time>2022-08-24T08:23:23Z</time>
      </trkpt>
      <trkpt lat="43.10448399999953" lon="-1.239214000000004">
        <ele>836.486</ele>
        <time>2022-08-24T08:23:24Z</time>
      </trkpt>
      <trkpt lat="43.10446899999953" lon="-1.239233000000004">
        <ele>836.465</ele>
        <time>2022-08-24T08:23:25Z</time>
      </trkpt>
      <trkpt lat="43.10443599999953" lon="-1.239274000000004">
        <ele>836.677</ele>
        <time>2022-08-24T08:23:27Z</time>
      </trkpt>
      <trkpt lat="43.10434399999953" lon="-1.239374000000004">
        <ele>836.861</ele>
        <time>2022-08-24T08:23:32Z</time>
      </trkpt>
      <trkpt lat="43.10432499999953" lon="-1.239393000000004">
        <ele>836.827</ele>
        <time>2022-08-24T08:23:33Z</time>
      </trkpt>
      <trkpt lat="43.104201999999525" lon="-1.239508000000004">
        <ele>837.209</ele>
        <time>2022-08-24T08:23:39Z</time>
      </trkpt>
      <trkpt lat="43.10418099999953" lon="-1.239524000000004">
        <ele>837.278</ele>
        <time>2022-08-24T08:23:40Z</time>
      </trkpt>
      <trkpt lat="43.10415999999953" lon="-1.239537000000004">
        <ele>837.238</ele>
        <time>2022-08-24T08:23:41Z</time>
      </trkpt>
      <trkpt lat="43.104141999999534" lon="-1.2395500000000041">
        <ele>837.248</ele>
        <time>2022-08-24T08:23:42Z</time>
      </trkpt>
      <trkpt lat="43.104051999999534" lon="-1.2396200000000042">
        <ele>837.294</ele>
        <time>2022-08-24T08:23:46Z</time>
      </trkpt>
      <trkpt lat="43.104031999999535" lon="-1.2396390000000042">
        <ele>837.256</ele>
        <time>2022-08-24T08:23:47Z</time>
      </trkpt>
      <trkpt lat="43.104011999999535" lon="-1.2396540000000043">
        <ele>837.423</ele>
        <time>2022-08-24T08:23:48Z</time>
      </trkpt>
      <trkpt lat="43.10399099999954" lon="-1.2396680000000042">
        <ele>837.446</ele>
        <time>2022-08-24T08:23:49Z</time>
      </trkpt>
      <trkpt lat="43.10397099999954" lon="-1.2396830000000043">
        <ele>837.840</ele>
        <time>2022-08-24T08:23:50Z</time>
      </trkpt>
      <trkpt lat="43.10394999999954" lon="-1.2396940000000043">
        <ele>837.679</ele>
        <time>2022-08-24T08:23:51Z</time>
      </trkpt>
      <trkpt lat="43.10392799999954" lon="-1.2397060000000042">
        <ele>837.612</ele>
        <time>2022-08-24T08:23:52Z</time>
      </trkpt>
      <trkpt lat="43.103906999999545" lon="-1.2397210000000043">
        <ele>837.832</ele>
        <time>2022-08-24T08:23:53Z</time>
      </trkpt>
      <trkpt lat="43.10382899999954" lon="-1.2397690000000043">
        <ele>838.005</ele>
        <time>2022-08-24T08:23:57Z</time>
      </trkpt>
      <trkpt lat="43.10380899999954" lon="-1.2397800000000043">
        <ele>838.209</ele>
        <time>2022-08-24T08:23:58Z</time>
      </trkpt>
      <trkpt lat="43.10378799999955" lon="-1.2397900000000044">
        <ele>838.292</ele>
        <time>2022-08-24T08:23:59Z</time>
      </trkpt>
      <trkpt lat="43.10377099999955" lon="-1.2397990000000043">
        <ele>838.472</ele>
        <time>2022-08-24T08:24:00Z</time>
      </trkpt>
      <trkpt lat="43.10372599999955" lon="-1.2398200000000044">
        <ele>838.442</ele>
        <time>2022-08-24T08:24:02Z</time>
      </trkpt>
      <trkpt lat="43.10368599999955" lon="-1.2398370000000043">
        <ele>838.658</ele>
        <time>2022-08-24T08:24:04Z</time>
      </trkpt>
      <trkpt lat="43.10366399999955" lon="-1.2398460000000042">
        <ele>838.860</ele>
        <time>2022-08-24T08:24:05Z</time>
      </trkpt>
      <trkpt lat="43.10364299999955" lon="-1.2398530000000043">
        <ele>838.887</ele>
        <time>2022-08-24T08:24:06Z</time>
      </trkpt>
      <trkpt lat="43.10362099999955" lon="-1.2398610000000043">
        <ele>839.060</ele>
        <time>2022-08-24T08:24:07Z</time>
      </trkpt>
      <trkpt lat="43.10360099999955" lon="-1.2398680000000044">
        <ele>839.094</ele>
        <time>2022-08-24T08:24:08Z</time>
      </trkpt>
      <trkpt lat="43.10358199999955" lon="-1.2398740000000044">
        <ele>839.273</ele>
        <time>2022-08-24T08:24:09Z</time>
      </trkpt>
      <trkpt lat="43.103548999999546" lon="-1.2398790000000044">
        <ele>839.454</ele>
        <time>2022-08-24T08:24:10Z</time>
      </trkpt>
      <trkpt lat="43.10349799999955" lon="-1.2398820000000044">
        <ele>839.456</ele>
        <time>2022-08-24T08:24:12Z</time>
      </trkpt>
      <trkpt lat="43.10347999999955" lon="-1.2398870000000044">
        <ele>839.611</ele>
        <time>2022-08-24T08:24:13Z</time>
      </trkpt>
      <trkpt lat="43.10346599999955" lon="-1.2398920000000044">
        <ele>839.809</ele>
        <time>2022-08-24T08:24:14Z</time>
      </trkpt>
      <trkpt lat="43.10341799999955" lon="-1.2399160000000045">
        <ele>840.296</ele>
        <time>2022-08-24T08:24:17Z</time>
      </trkpt>
      <trkpt lat="43.10340199999955" lon="-1.2399220000000044">
        <ele>840.256</ele>
        <time>2022-08-24T08:24:18Z</time>
      </trkpt>
      <trkpt lat="43.103371999999545" lon="-1.2399330000000044">
        <ele>840.456</ele>
        <time>2022-08-24T08:24:20Z</time>
      </trkpt>
      <trkpt lat="43.10335699999955" lon="-1.2399350000000045">
        <ele>840.872</ele>
        <time>2022-08-24T08:24:21Z</time>
      </trkpt>
      <trkpt lat="43.10333999999955" lon="-1.2399380000000044">
        <ele>841.084</ele>
        <time>2022-08-24T08:24:22Z</time>
      </trkpt>
      <trkpt lat="43.103323999999546" lon="-1.2399370000000045">
        <ele>841.251</ele>
        <time>2022-08-24T08:24:23Z</time>
      </trkpt>
      <trkpt lat="43.103306999999546" lon="-1.2399350000000045">
        <ele>841.464</ele>
        <time>2022-08-24T08:24:24Z</time>
      </trkpt>
      <trkpt lat="43.10328899999955" lon="-1.2399390000000043">
        <ele>841.438</ele>
        <time>2022-08-24T08:24:25Z</time>
      </trkpt>
      <trkpt lat="43.10327399999955" lon="-1.2399440000000044">
        <ele>841.647</ele>
        <time>2022-08-24T08:24:26Z</time>
      </trkpt>
      <trkpt lat="43.103258999999554" lon="-1.2399510000000045">
        <ele>841.843</ele>
        <time>2022-08-24T08:24:27Z</time>
      </trkpt>
      <trkpt lat="43.103241999999554" lon="-1.2399550000000044">
        <ele>841.864</ele>
        <time>2022-08-24T08:24:28Z</time>
      </trkpt>
      <trkpt lat="43.103227999999554" lon="-1.2399610000000043">
        <ele>842.010</ele>
        <time>2022-08-24T08:24:29Z</time>
      </trkpt>
      <trkpt lat="43.103212999999556" lon="-1.2399660000000043">
        <ele>842.209</ele>
        <time>2022-08-24T08:24:30Z</time>
      </trkpt>
      <trkpt lat="43.10319999999955" lon="-1.2399710000000044">
        <ele>842.445</ele>
        <time>2022-08-24T08:24:31Z</time>
      </trkpt>
      <trkpt lat="43.103184999999556" lon="-1.2399730000000044">
        <ele>842.615</ele>
        <time>2022-08-24T08:24:32Z</time>
      </trkpt>
      <trkpt lat="43.103162999999554" lon="-1.2399750000000045">
        <ele>842.815</ele>
        <time>2022-08-24T08:24:33Z</time>
      </trkpt>
      <trkpt lat="43.10314399999955" lon="-1.2399770000000045">
        <ele>843.031</ele>
        <time>2022-08-24T08:24:34Z</time>
      </trkpt>
      <trkpt lat="43.103125999999556" lon="-1.2399770000000045">
        <ele>843.063</ele>
        <time>2022-08-24T08:24:35Z</time>
      </trkpt>
      <trkpt lat="43.10311599999955" lon="-1.2399770000000045">
        <ele>843.460</ele>
        <time>2022-08-24T08:24:36Z</time>
      </trkpt>
      <trkpt lat="43.103097999999555" lon="-1.2399750000000045">
        <ele>843.443</ele>
        <time>2022-08-24T08:24:37Z</time>
      </trkpt>
      <trkpt lat="43.10308899999956" lon="-1.2399740000000046">
        <ele>843.697</ele>
        <time>2022-08-24T08:24:38Z</time>
      </trkpt>
      <trkpt lat="43.103074999999556" lon="-1.2399720000000045">
        <ele>843.816</ele>
        <time>2022-08-24T08:24:39Z</time>
      </trkpt>
      <trkpt lat="43.10305799999956" lon="-1.2399720000000045">
        <ele>844.074</ele>
        <time>2022-08-24T08:24:40Z</time>
      </trkpt>
      <trkpt lat="43.103044999999554" lon="-1.2399740000000046">
        <ele>844.256</ele>
        <time>2022-08-24T08:24:41Z</time>
      </trkpt>
      <trkpt lat="43.103029999999556" lon="-1.2399760000000046">
        <ele>844.221</ele>
        <time>2022-08-24T08:24:42Z</time>
      </trkpt>
      <trkpt lat="43.103013999999554" lon="-1.2399740000000046">
        <ele>844.609</ele>
        <time>2022-08-24T08:24:43Z</time>
      </trkpt>
      <trkpt lat="43.102993999999555" lon="-1.2399670000000045">
        <ele>844.858</ele>
        <time>2022-08-24T08:24:44Z</time>
      </trkpt>
      <trkpt lat="43.10298199999956" lon="-1.2399550000000046">
        <ele>845.078</ele>
        <time>2022-08-24T08:24:45Z</time>
      </trkpt>
      <trkpt lat="43.10296699999956" lon="-1.2399470000000046">
        <ele>845.428</ele>
        <time>2022-08-24T08:24:46Z</time>
      </trkpt>
      <trkpt lat="43.10295499999956" lon="-1.2399490000000046">
        <ele>845.654</ele>
        <time>2022-08-24T08:24:47Z</time>
      </trkpt>
      <trkpt lat="43.10293999999956" lon="-1.2399510000000047">
        <ele>845.876</ele>
        <time>2022-08-24T08:24:48Z</time>
      </trkpt>
      <trkpt lat="43.102921999999566" lon="-1.2399480000000047">
        <ele>846.043</ele>
        <time>2022-08-24T08:24:49Z</time>
      </trkpt>
      <trkpt lat="43.102905999999564" lon="-1.2399390000000048">
        <ele>846.236</ele>
        <time>2022-08-24T08:24:50Z</time>
      </trkpt>
      <trkpt lat="43.102890999999566" lon="-1.2399300000000049">
        <ele>846.650</ele>
        <time>2022-08-24T08:24:51Z</time>
      </trkpt>
      <trkpt lat="43.10287899999957" lon="-1.2399250000000048">
        <ele>846.619</ele>
        <time>2022-08-24T08:24:52Z</time>
      </trkpt>
      <trkpt lat="43.10286699999957" lon="-1.2399180000000047">
        <ele>846.886</ele>
        <time>2022-08-24T08:24:53Z</time>
      </trkpt>
      <trkpt lat="43.10285499999957" lon="-1.2399110000000046">
        <ele>847.060</ele>
        <time>2022-08-24T08:24:54Z</time>
      </trkpt>
      <trkpt lat="43.10283799999957" lon="-1.2399060000000046">
        <ele>847.226</ele>
        <time>2022-08-24T08:24:55Z</time>
      </trkpt>
      <trkpt lat="43.102822999999574" lon="-1.2398990000000045">
        <ele>847.609</ele>
        <time>2022-08-24T08:24:56Z</time>
      </trkpt>
      <trkpt lat="43.102811999999574" lon="-1.2398960000000046">
        <ele>847.819</ele>
        <time>2022-08-24T08:24:57Z</time>
      </trkpt>
      <trkpt lat="43.10279899999957" lon="-1.2398910000000045">
        <ele>847.899</ele>
        <time>2022-08-24T08:24:58Z</time>
      </trkpt>
      <trkpt lat="43.10278599999957" lon="-1.2398880000000045">
        <ele>848.089</ele>
        <time>2022-08-24T08:24:59Z</time>
      </trkpt>
      <trkpt lat="43.102769999999566" lon="-1.2398830000000045">
        <ele>848.025</ele>
        <time>2022-08-24T08:25:00Z</time>
      </trkpt>
      <trkpt lat="43.102758999999566" lon="-1.2398770000000046">
        <ele>848.277</ele>
        <time>2022-08-24T08:25:01Z</time>
      </trkpt>
      <trkpt lat="43.102744999999565" lon="-1.2398740000000046">
        <ele>848.474</ele>
        <time>2022-08-24T08:25:02Z</time>
      </trkpt>
      <trkpt lat="43.10273199999956" lon="-1.2398700000000047">
        <ele>848.847</ele>
        <time>2022-08-24T08:25:03Z</time>
      </trkpt>
      <trkpt lat="43.102719999999564" lon="-1.2398660000000048">
        <ele>849.021</ele>
        <time>2022-08-24T08:25:04Z</time>
      </trkpt>
      <trkpt lat="43.10270199999957" lon="-1.2398590000000047">
        <ele>849.250</ele>
        <time>2022-08-24T08:25:05Z</time>
      </trkpt>
      <trkpt lat="43.10268699999957" lon="-1.2398550000000048">
        <ele>849.257</ele>
        <time>2022-08-24T08:25:06Z</time>
      </trkpt>
      <trkpt lat="43.10267199999957" lon="-1.239851000000005">
        <ele>849.400</ele>
        <time>2022-08-24T08:25:07Z</time>
      </trkpt>
      <trkpt lat="43.10265899999957" lon="-1.239848000000005">
        <ele>849.620</ele>
        <time>2022-08-24T08:25:08Z</time>
      </trkpt>
      <trkpt lat="43.10264299999957" lon="-1.239845000000005">
        <ele>849.809</ele>
        <time>2022-08-24T08:25:09Z</time>
      </trkpt>
      <trkpt lat="43.10262799999957" lon="-1.239842000000005">
        <ele>850.066</ele>
        <time>2022-08-24T08:25:10Z</time>
      </trkpt>
      <trkpt lat="43.10261599999957" lon="-1.239838000000005">
        <ele>850.236</ele>
        <time>2022-08-24T08:25:11Z</time>
      </trkpt>
      <trkpt lat="43.10259999999957" lon="-1.239838000000005">
        <ele>850.466</ele>
        <time>2022-08-24T08:25:12Z</time>
      </trkpt>
      <trkpt lat="43.10258799999957" lon="-1.2398370000000052">
        <ele>850.652</ele>
        <time>2022-08-24T08:25:13Z</time>
      </trkpt>
      <trkpt lat="43.10257899999957" lon="-1.2398330000000053">
        <ele>851.064</ele>
        <time>2022-08-24T08:25:14Z</time>
      </trkpt>
      <trkpt lat="43.10256599999957" lon="-1.2398260000000052">
        <ele>851.271</ele>
        <time>2022-08-24T08:25:15Z</time>
      </trkpt>
      <trkpt lat="43.10254999999957" lon="-1.2398180000000052">
        <ele>851.414</ele>
        <time>2022-08-24T08:25:16Z</time>
      </trkpt>
      <trkpt lat="43.102536999999565" lon="-1.2398170000000053">
        <ele>851.458</ele>
        <time>2022-08-24T08:25:17Z</time>
      </trkpt>
      <trkpt lat="43.10252199999957" lon="-1.2398160000000054">
        <ele>851.677</ele>
        <time>2022-08-24T08:25:18Z</time>
      </trkpt>
      <trkpt lat="43.102510999999566" lon="-1.2398150000000054">
        <ele>852.074</ele>
        <time>2022-08-24T08:25:19Z</time>
      </trkpt>
      <trkpt lat="43.102496999999566" lon="-1.2398120000000055">
        <ele>852.256</ele>
        <time>2022-08-24T08:25:20Z</time>
      </trkpt>
      <trkpt lat="43.10247899999957" lon="-1.2398100000000054">
        <ele>852.221</ele>
        <time>2022-08-24T08:25:21Z</time>
      </trkpt>
      <trkpt lat="43.10246499999957" lon="-1.2398090000000055">
        <ele>852.409</ele>
        <time>2022-08-24T08:25:22Z</time>
      </trkpt>
      <trkpt lat="43.102451999999566" lon="-1.2398100000000054">
        <ele>852.428</ele>
        <time>2022-08-24T08:25:23Z</time>
      </trkpt>
      <trkpt lat="43.102440999999565" lon="-1.2398100000000054">
        <ele>852.628</ele>
        <time>2022-08-24T08:25:24Z</time>
      </trkpt>
      <trkpt lat="43.102426999999565" lon="-1.2398090000000055">
        <ele>852.828</ele>
        <time>2022-08-24T08:25:25Z</time>
      </trkpt>
      <trkpt lat="43.102415999999565" lon="-1.2398060000000055">
        <ele>853.044</ele>
        <time>2022-08-24T08:25:26Z</time>
      </trkpt>
      <trkpt lat="43.10240299999956" lon="-1.2398040000000055">
        <ele>853.216</ele>
        <time>2022-08-24T08:25:27Z</time>
      </trkpt>
      <trkpt lat="43.102390999999564" lon="-1.2398040000000055">
        <ele>853.263</ele>
        <time>2022-08-24T08:25:28Z</time>
      </trkpt>
      <trkpt lat="43.102378999999566" lon="-1.2398030000000055">
        <ele>853.456</ele>
        <time>2022-08-24T08:25:29Z</time>
      </trkpt>
      <trkpt lat="43.102370999999565" lon="-1.2398030000000055">
        <ele>853.480</ele>
        <time>2022-08-24T08:25:30Z</time>
      </trkpt>
      <trkpt lat="43.102359999999564" lon="-1.2398030000000055">
        <ele>853.889</ele>
        <time>2022-08-24T08:25:31Z</time>
      </trkpt>
      <trkpt lat="43.10234899999956" lon="-1.2398000000000056">
        <ele>853.836</ele>
        <time>2022-08-24T08:25:32Z</time>
      </trkpt>
      <trkpt lat="43.10233899999956" lon="-1.2398020000000056">
        <ele>854.017</ele>
        <time>2022-08-24T08:25:33Z</time>
      </trkpt>
      <trkpt lat="43.10232699999956" lon="-1.2398030000000055">
        <ele>854.018</ele>
        <time>2022-08-24T08:25:34Z</time>
      </trkpt>
      <trkpt lat="43.10231599999956" lon="-1.2398040000000055">
        <ele>854.209</ele>
        <time>2022-08-24T08:25:35Z</time>
      </trkpt>
      <trkpt lat="43.10230299999956" lon="-1.2398050000000054">
        <ele>854.284</ele>
        <time>2022-08-24T08:25:36Z</time>
      </trkpt>
      <trkpt lat="43.102286999999556" lon="-1.2398080000000054">
        <ele>854.254</ele>
        <time>2022-08-24T08:25:37Z</time>
      </trkpt>
      <trkpt lat="43.102272999999556" lon="-1.2398150000000054">
        <ele>854.414</ele>
        <time>2022-08-24T08:25:38Z</time>
      </trkpt>
      <trkpt lat="43.102258999999556" lon="-1.2398230000000054">
        <ele>854.460</ele>
        <time>2022-08-24T08:25:39Z</time>
      </trkpt>
      <trkpt lat="43.10224699999956" lon="-1.2398280000000055">
        <ele>854.652</ele>
        <time>2022-08-24T08:25:40Z</time>
      </trkpt>
      <trkpt lat="43.10223299999956" lon="-1.2398350000000056">
        <ele>854.689</ele>
        <time>2022-08-24T08:25:41Z</time>
      </trkpt>
      <trkpt lat="43.102219999999555" lon="-1.2398430000000056">
        <ele>854.882</ele>
        <time>2022-08-24T08:25:42Z</time>
      </trkpt>
      <trkpt lat="43.10220499999956" lon="-1.2398530000000056">
        <ele>854.886</ele>
        <time>2022-08-24T08:25:43Z</time>
      </trkpt>
      <trkpt lat="43.10219099999956" lon="-1.2398580000000057">
        <ele>855.065</ele>
        <time>2022-08-24T08:25:44Z</time>
      </trkpt>
      <trkpt lat="43.10217699999956" lon="-1.2398610000000057">
        <ele>855.096</ele>
        <time>2022-08-24T08:25:45Z</time>
      </trkpt>
      <trkpt lat="43.10216299999956" lon="-1.2398640000000056">
        <ele>855.231</ele>
        <time>2022-08-24T08:25:46Z</time>
      </trkpt>
      <trkpt lat="43.102146999999555" lon="-1.2398650000000055">
        <ele>855.224</ele>
        <time>2022-08-24T08:25:47Z</time>
      </trkpt>
      <trkpt lat="43.102134999999556" lon="-1.2398680000000055">
        <ele>855.409</ele>
        <time>2022-08-24T08:25:48Z</time>
      </trkpt>
      <trkpt lat="43.10211999999956" lon="-1.2398740000000055">
        <ele>855.480</ele>
        <time>2022-08-24T08:25:49Z</time>
      </trkpt>
      <trkpt lat="43.10210499999956" lon="-1.2398790000000055">
        <ele>855.420</ele>
        <time>2022-08-24T08:25:50Z</time>
      </trkpt>
      <trkpt lat="43.10208999999956" lon="-1.2398800000000054">
        <ele>855.640</ele>
        <time>2022-08-24T08:25:51Z</time>
      </trkpt>
      <trkpt lat="43.10207399999956" lon="-1.2398810000000053">
        <ele>855.646</ele>
        <time>2022-08-24T08:25:52Z</time>
      </trkpt>
      <trkpt lat="43.10205499999956" lon="-1.2398840000000053">
        <ele>855.628</ele>
        <time>2022-08-24T08:25:53Z</time>
      </trkpt>
      <trkpt lat="43.10203999999956" lon="-1.2398880000000052">
        <ele>855.845</ele>
        <time>2022-08-24T08:25:54Z</time>
      </trkpt>
      <trkpt lat="43.10202399999956" lon="-1.239892000000005">
        <ele>855.888</ele>
        <time>2022-08-24T08:25:55Z</time>
      </trkpt>
      <trkpt lat="43.10200899999956" lon="-1.239896000000005">
        <ele>856.052</ele>
        <time>2022-08-24T08:25:56Z</time>
      </trkpt>
      <trkpt lat="43.101990999999565" lon="-1.239903000000005">
        <ele>856.061</ele>
        <time>2022-08-24T08:25:57Z</time>
      </trkpt>
      <trkpt lat="43.101976999999565" lon="-1.2399050000000051">
        <ele>856.272</ele>
        <time>2022-08-24T08:25:58Z</time>
      </trkpt>
      <trkpt lat="43.10196099999956" lon="-1.2399080000000051">
        <ele>856.213</ele>
        <time>2022-08-24T08:25:59Z</time>
      </trkpt>
      <trkpt lat="43.10194699999956" lon="-1.239912000000005">
        <ele>856.414</ele>
        <time>2022-08-24T08:26:00Z</time>
      </trkpt>
      <trkpt lat="43.10192999999956" lon="-1.239918000000005">
        <ele>856.609</ele>
        <time>2022-08-24T08:26:01Z</time>
      </trkpt>
      <trkpt lat="43.10180899999956" lon="-1.2399490000000049">
        <ele>857.238</ele>
        <time>2022-08-24T08:26:08Z</time>
      </trkpt>
      <trkpt lat="43.101790999999565" lon="-1.239948000000005">
        <ele>857.258</ele>
        <time>2022-08-24T08:26:09Z</time>
      </trkpt>
      <trkpt lat="43.10177299999957" lon="-1.239950000000005">
        <ele>857.428</ele>
        <time>2022-08-24T08:26:10Z</time>
      </trkpt>
      <trkpt lat="43.10175799999957" lon="-1.239951000000005">
        <ele>857.444</ele>
        <time>2022-08-24T08:26:11Z</time>
      </trkpt>
      <trkpt lat="43.10170999999957" lon="-1.239958000000005">
        <ele>857.836</ele>
        <time>2022-08-24T08:26:14Z</time>
      </trkpt>
      <trkpt lat="43.10169499999957" lon="-1.239963000000005">
        <ele>857.823</ele>
        <time>2022-08-24T08:26:15Z</time>
      </trkpt>
      <trkpt lat="43.101679999999575" lon="-1.239964000000005">
        <ele>857.846</ele>
        <time>2022-08-24T08:26:16Z</time>
      </trkpt>
      <trkpt lat="43.10166799999958" lon="-1.2399650000000049">
        <ele>858.060</ele>
        <time>2022-08-24T08:26:17Z</time>
      </trkpt>
      <trkpt lat="43.10163699999958" lon="-1.2399650000000049">
        <ele>858.289</ele>
        <time>2022-08-24T08:26:19Z</time>
      </trkpt>
      <trkpt lat="43.10161999999958" lon="-1.239964000000005">
        <ele>858.438</ele>
        <time>2022-08-24T08:26:20Z</time>
      </trkpt>
      <trkpt lat="43.10158499999958" lon="-1.239970000000005">
        <ele>858.470</ele>
        <time>2022-08-24T08:26:22Z</time>
      </trkpt>
      <trkpt lat="43.10155499999958" lon="-1.239978000000005">
        <ele>858.617</ele>
        <time>2022-08-24T08:26:24Z</time>
      </trkpt>
      <trkpt lat="43.10147399999958" lon="-1.240002000000005">
        <ele>859.009</ele>
        <time>2022-08-24T08:26:29Z</time>
      </trkpt>
      <trkpt lat="43.101440999999575" lon="-1.2400060000000048">
        <ele>859.294</ele>
        <time>2022-08-24T08:26:31Z</time>
      </trkpt>
      <trkpt lat="43.101389999999576" lon="-1.2400120000000048">
        <ele>859.454</ele>
        <time>2022-08-24T08:26:34Z</time>
      </trkpt>
      <trkpt lat="43.10137399999957" lon="-1.2400190000000049">
        <ele>859.664</ele>
        <time>2022-08-24T08:26:35Z</time>
      </trkpt>
      <trkpt lat="43.101358999999576" lon="-1.2400250000000048">
        <ele>859.610</ele>
        <time>2022-08-24T08:26:36Z</time>
      </trkpt>
      <trkpt lat="43.101271999999575" lon="-1.2400360000000048">
        <ele>860.482</ele>
        <time>2022-08-24T08:26:41Z</time>
      </trkpt>
      <trkpt lat="43.10125999999958" lon="-1.2400400000000047">
        <ele>860.699</ele>
        <time>2022-08-24T08:26:42Z</time>
      </trkpt>
      <trkpt lat="43.10121199999958" lon="-1.2400560000000047">
        <ele>861.092</ele>
        <time>2022-08-24T08:26:45Z</time>
      </trkpt>
      <trkpt lat="43.10119699999958" lon="-1.2400650000000046">
        <ele>861.216</ele>
        <time>2022-08-24T08:26:46Z</time>
      </trkpt>
      <trkpt lat="43.10118099999958" lon="-1.2400720000000047">
        <ele>861.275</ele>
        <time>2022-08-24T08:26:47Z</time>
      </trkpt>
      <trkpt lat="43.10116699999958" lon="-1.2400780000000047">
        <ele>861.263</ele>
        <time>2022-08-24T08:26:48Z</time>
      </trkpt>
      <trkpt lat="43.101150999999575" lon="-1.2400830000000047">
        <ele>861.244</ele>
        <time>2022-08-24T08:26:49Z</time>
      </trkpt>
      <trkpt lat="43.10113799999957" lon="-1.2400870000000046">
        <ele>861.418</ele>
        <time>2022-08-24T08:26:50Z</time>
      </trkpt>
      <trkpt lat="43.101122999999575" lon="-1.2400920000000046">
        <ele>861.409</ele>
        <time>2022-08-24T08:26:51Z</time>
      </trkpt>
      <trkpt lat="43.101105999999575" lon="-1.2401010000000046">
        <ele>861.497</ele>
        <time>2022-08-24T08:26:52Z</time>
      </trkpt>
      <trkpt lat="43.10109099999958" lon="-1.2401110000000046">
        <ele>861.647</ele>
        <time>2022-08-24T08:26:53Z</time>
      </trkpt>
      <trkpt lat="43.10107399999958" lon="-1.2401170000000046">
        <ele>861.687</ele>
        <time>2022-08-24T08:26:54Z</time>
      </trkpt>
      <trkpt lat="43.101057999999576" lon="-1.2401250000000046">
        <ele>861.643</ele>
        <time>2022-08-24T08:26:55Z</time>
      </trkpt>
      <trkpt lat="43.10103999999958" lon="-1.2401350000000047">
        <ele>861.815</ele>
        <time>2022-08-24T08:26:56Z</time>
      </trkpt>
      <trkpt lat="43.10102099999958" lon="-1.2401430000000047">
        <ele>861.862</ele>
        <time>2022-08-24T08:26:57Z</time>
      </trkpt>
      <trkpt lat="43.10100299999958" lon="-1.2401490000000046">
        <ele>861.845</ele>
        <time>2022-08-24T08:26:58Z</time>
      </trkpt>
      <trkpt lat="43.10098499999958" lon="-1.2401570000000046">
        <ele>861.819</ele>
        <time>2022-08-24T08:26:59Z</time>
      </trkpt>
      <trkpt lat="43.10091799999958" lon="-1.2401800000000047">
        <ele>862.428</ele>
        <time>2022-08-24T08:27:03Z</time>
      </trkpt>
      <trkpt lat="43.10090199999958" lon="-1.2401920000000046">
        <ele>862.669</ele>
        <time>2022-08-24T08:27:04Z</time>
      </trkpt>
      <trkpt lat="43.10088199999958" lon="-1.2402070000000047">
        <ele>862.804</ele>
        <time>2022-08-24T08:27:05Z</time>
      </trkpt>
      <trkpt lat="43.10083399999958" lon="-1.2402310000000047">
        <ele>863.024</ele>
        <time>2022-08-24T08:27:08Z</time>
      </trkpt>
      <trkpt lat="43.10081899999958" lon="-1.2402390000000048">
        <ele>863.009</ele>
        <time>2022-08-24T08:27:09Z</time>
      </trkpt>
      <trkpt lat="43.100803999999584" lon="-1.2402440000000048">
        <ele>863.257</ele>
        <time>2022-08-24T08:27:10Z</time>
      </trkpt>
      <trkpt lat="43.10078799999958" lon="-1.2402470000000048">
        <ele>863.277</ele>
        <time>2022-08-24T08:27:11Z</time>
      </trkpt>
      <trkpt lat="43.10077199999958" lon="-1.2402550000000048">
        <ele>863.217</ele>
        <time>2022-08-24T08:27:12Z</time>
      </trkpt>
      <trkpt lat="43.10075599999958" lon="-1.2402660000000048">
        <ele>863.423</ele>
        <time>2022-08-24T08:27:13Z</time>
      </trkpt>
      <trkpt lat="43.100739999999576" lon="-1.2402730000000048">
        <ele>863.475</ele>
        <time>2022-08-24T08:27:14Z</time>
      </trkpt>
      <trkpt lat="43.10069299999957" lon="-1.240294000000005">
        <ele>863.822</ele>
        <time>2022-08-24T08:27:17Z</time>
      </trkpt>
      <trkpt lat="43.100677999999576" lon="-1.2403030000000048">
        <ele>863.865</ele>
        <time>2022-08-24T08:27:18Z</time>
      </trkpt>
      <trkpt lat="43.10066299999958" lon="-1.240310000000005">
        <ele>863.899</ele>
        <time>2022-08-24T08:27:19Z</time>
      </trkpt>
      <trkpt lat="43.10056699999958" lon="-1.240345000000005">
        <ele>864.268</ele>
        <time>2022-08-24T08:27:25Z</time>
      </trkpt>
      <trkpt lat="43.10055199999958" lon="-1.240352000000005">
        <ele>864.472</ele>
        <time>2022-08-24T08:27:26Z</time>
      </trkpt>
      <trkpt lat="43.10053599999958" lon="-1.240359000000005">
        <ele>864.413</ele>
        <time>2022-08-24T08:27:27Z</time>
      </trkpt>
      <trkpt lat="43.10045799999958" lon="-1.240398000000005">
        <ele>864.814</ele>
        <time>2022-08-24T08:27:32Z</time>
      </trkpt>
      <trkpt lat="43.10044099999958" lon="-1.240405000000005">
        <ele>864.809</ele>
        <time>2022-08-24T08:27:33Z</time>
      </trkpt>
      <trkpt lat="43.10042299999958" lon="-1.2404120000000052">
        <ele>864.828</ele>
        <time>2022-08-24T08:27:34Z</time>
      </trkpt>
      <trkpt lat="43.10033899999958" lon="-1.2404460000000053">
        <ele>865.278</ele>
        <time>2022-08-24T08:27:39Z</time>
      </trkpt>
      <trkpt lat="43.10032299999958" lon="-1.2404530000000054">
        <ele>865.428</ele>
        <time>2022-08-24T08:27:40Z</time>
      </trkpt>
      <trkpt lat="43.10030899999958" lon="-1.2404580000000054">
        <ele>865.634</ele>
        <time>2022-08-24T08:27:41Z</time>
      </trkpt>
      <trkpt lat="43.10026799999957" lon="-1.2404820000000054">
        <ele>865.896</ele>
        <time>2022-08-24T08:27:44Z</time>
      </trkpt>
      <trkpt lat="43.100216999999574" lon="-1.2405110000000055">
        <ele>866.083</ele>
        <time>2022-08-24T08:27:47Z</time>
      </trkpt>
      <trkpt lat="43.10020199999958" lon="-1.2405150000000054">
        <ele>866.246</ele>
        <time>2022-08-24T08:27:48Z</time>
      </trkpt>
      <trkpt lat="43.100134999999575" lon="-1.2405440000000054">
        <ele>866.260</ele>
        <time>2022-08-24T08:27:52Z</time>
      </trkpt>
      <trkpt lat="43.10011999999958" lon="-1.2405470000000054">
        <ele>866.439</ele>
        <time>2022-08-24T08:27:53Z</time>
      </trkpt>
      <trkpt lat="43.10009699999958" lon="-1.2405550000000054">
        <ele>866.467</ele>
        <time>2022-08-24T08:27:54Z</time>
      </trkpt>
      <trkpt lat="43.10007899999958" lon="-1.2405660000000054">
        <ele>866.481</ele>
        <time>2022-08-24T08:27:55Z</time>
      </trkpt>
      <trkpt lat="43.100063999999584" lon="-1.2405750000000053">
        <ele>866.619</ele>
        <time>2022-08-24T08:27:56Z</time>
      </trkpt>
      <trkpt lat="43.100032999999584" lon="-1.2405910000000053">
        <ele>866.809</ele>
        <time>2022-08-24T08:27:58Z</time>
      </trkpt>
      <trkpt lat="43.099998999999585" lon="-1.2406060000000054">
        <ele>867.287</ele>
        <time>2022-08-24T08:28:00Z</time>
      </trkpt>
      <trkpt lat="43.09992399999958" lon="-1.2406290000000055">
        <ele>867.627</ele>
        <time>2022-08-24T08:28:05Z</time>
      </trkpt>
      <trkpt lat="43.099905999999585" lon="-1.2406350000000055">
        <ele>867.877</ele>
        <time>2022-08-24T08:28:06Z</time>
      </trkpt>
      <trkpt lat="43.099869999999584" lon="-1.2406410000000054">
        <ele>868.073</ele>
        <time>2022-08-24T08:28:08Z</time>
      </trkpt>
      <trkpt lat="43.099852999999584" lon="-1.2406470000000054">
        <ele>868.055</ele>
        <time>2022-08-24T08:28:09Z</time>
      </trkpt>
      <trkpt lat="43.09982099999959" lon="-1.2406590000000053">
        <ele>868.232</ele>
        <time>2022-08-24T08:28:11Z</time>
      </trkpt>
      <trkpt lat="43.09976899999959" lon="-1.2406800000000053">
        <ele>869.065</ele>
        <time>2022-08-24T08:28:14Z</time>
      </trkpt>
      <trkpt lat="43.09975299999959" lon="-1.2406870000000054">
        <ele>869.299</ele>
        <time>2022-08-24T08:28:15Z</time>
      </trkpt>
      <trkpt lat="43.09973799999959" lon="-1.2406950000000054">
        <ele>869.238</ele>
        <time>2022-08-24T08:28:16Z</time>
      </trkpt>
      <trkpt lat="43.09971799999959" lon="-1.2406980000000054">
        <ele>869.428</ele>
        <time>2022-08-24T08:28:17Z</time>
      </trkpt>
      <trkpt lat="43.099699999999594" lon="-1.2407010000000054">
        <ele>869.689</ele>
        <time>2022-08-24T08:28:18Z</time>
      </trkpt>
      <trkpt lat="43.099682999999594" lon="-1.2407040000000054">
        <ele>869.617</ele>
        <time>2022-08-24T08:28:19Z</time>
      </trkpt>
      <trkpt lat="43.09966099999959" lon="-1.2407110000000054">
        <ele>869.609</ele>
        <time>2022-08-24T08:28:20Z</time>
      </trkpt>
      <trkpt lat="43.09964699999959" lon="-1.2407160000000055">
        <ele>869.853</ele>
        <time>2022-08-24T08:28:21Z</time>
      </trkpt>
      <trkpt lat="43.09962799999959" lon="-1.2407180000000055">
        <ele>870.063</ele>
        <time>2022-08-24T08:28:22Z</time>
      </trkpt>
      <trkpt lat="43.09960999999959" lon="-1.2407210000000055">
        <ele>870.283</ele>
        <time>2022-08-24T08:28:23Z</time>
      </trkpt>
      <trkpt lat="43.09959099999959" lon="-1.2407270000000055">
        <ele>870.279</ele>
        <time>2022-08-24T08:28:24Z</time>
      </trkpt>
      <trkpt lat="43.09957399999959" lon="-1.2407350000000055">
        <ele>870.471</ele>
        <time>2022-08-24T08:28:25Z</time>
      </trkpt>
      <trkpt lat="43.09955699999959" lon="-1.2407390000000054">
        <ele>870.688</ele>
        <time>2022-08-24T08:28:26Z</time>
      </trkpt>
      <trkpt lat="43.099538999999595" lon="-1.2407410000000054">
        <ele>870.671</ele>
        <time>2022-08-24T08:28:27Z</time>
      </trkpt>
      <trkpt lat="43.099521999999595" lon="-1.2407430000000055">
        <ele>870.825</ele>
        <time>2022-08-24T08:28:28Z</time>
      </trkpt>
      <trkpt lat="43.09950599999959" lon="-1.2407490000000054">
        <ele>870.844</ele>
        <time>2022-08-24T08:28:29Z</time>
      </trkpt>
      <trkpt lat="43.09948899999959" lon="-1.2407510000000055">
        <ele>871.236</ele>
        <time>2022-08-24T08:28:30Z</time>
      </trkpt>
      <trkpt lat="43.099473999999596" lon="-1.2407550000000054">
        <ele>871.217</ele>
        <time>2022-08-24T08:28:31Z</time>
      </trkpt>
      <trkpt lat="43.09946099999959" lon="-1.2407560000000053">
        <ele>871.418</ele>
        <time>2022-08-24T08:28:32Z</time>
      </trkpt>
      <trkpt lat="43.099445999999595" lon="-1.2407560000000053">
        <ele>871.609</ele>
        <time>2022-08-24T08:28:33Z</time>
      </trkpt>
      <trkpt lat="43.09942999999959" lon="-1.2407540000000052">
        <ele>871.684</ele>
        <time>2022-08-24T08:28:34Z</time>
      </trkpt>
      <trkpt lat="43.099411999999596" lon="-1.2407520000000052">
        <ele>871.824</ele>
        <time>2022-08-24T08:28:35Z</time>
      </trkpt>
      <trkpt lat="43.099394999999596" lon="-1.2407550000000052">
        <ele>871.814</ele>
        <time>2022-08-24T08:28:36Z</time>
      </trkpt>
      <trkpt lat="43.099380999999596" lon="-1.240759000000005">
        <ele>872.250</ele>
        <time>2022-08-24T08:28:37Z</time>
      </trkpt>
      <trkpt lat="43.099366999999596" lon="-1.240762000000005">
        <ele>872.232</ele>
        <time>2022-08-24T08:28:38Z</time>
      </trkpt>
      <trkpt lat="43.0993519999996" lon="-1.240768000000005">
        <ele>872.499</ele>
        <time>2022-08-24T08:28:39Z</time>
      </trkpt>
      <trkpt lat="43.099338999999596" lon="-1.240768000000005">
        <ele>872.442</ele>
        <time>2022-08-24T08:28:40Z</time>
      </trkpt>
      <trkpt lat="43.0993239999996" lon="-1.240770000000005">
        <ele>872.636</ele>
        <time>2022-08-24T08:28:41Z</time>
      </trkpt>
      <trkpt lat="43.0993059999996" lon="-1.240775000000005">
        <ele>872.865</ele>
        <time>2022-08-24T08:28:42Z</time>
      </trkpt>
      <trkpt lat="43.0992939999996" lon="-1.240781000000005">
        <ele>872.866</ele>
        <time>2022-08-24T08:28:43Z</time>
      </trkpt>
      <trkpt lat="43.099278999999605" lon="-1.240789000000005">
        <ele>872.829</ele>
        <time>2022-08-24T08:28:44Z</time>
      </trkpt>
      <trkpt lat="43.09926399999961" lon="-1.240795000000005">
        <ele>873.021</ele>
        <time>2022-08-24T08:28:45Z</time>
      </trkpt>
      <trkpt lat="43.099247999999605" lon="-1.240797000000005">
        <ele>873.209</ele>
        <time>2022-08-24T08:28:46Z</time>
      </trkpt>
      <trkpt lat="43.099230999999605" lon="-1.240800000000005">
        <ele>873.627</ele>
        <time>2022-08-24T08:28:47Z</time>
      </trkpt>
      <trkpt lat="43.0992119999996" lon="-1.240805000000005">
        <ele>873.627</ele>
        <time>2022-08-24T08:28:48Z</time>
      </trkpt>
      <trkpt lat="43.0991959999996" lon="-1.240810000000005">
        <ele>873.837</ele>
        <time>2022-08-24T08:28:49Z</time>
      </trkpt>
      <trkpt lat="43.099180999999604" lon="-1.240815000000005">
        <ele>874.053</ele>
        <time>2022-08-24T08:28:50Z</time>
      </trkpt>
      <trkpt lat="43.099165999999606" lon="-1.240824000000005">
        <ele>874.225</ele>
        <time>2022-08-24T08:28:51Z</time>
      </trkpt>
      <trkpt lat="43.0991529999996" lon="-1.2408310000000051">
        <ele>874.222</ele>
        <time>2022-08-24T08:28:52Z</time>
      </trkpt>
      <trkpt lat="43.0991339999996" lon="-1.2408390000000051">
        <ele>874.235</ele>
        <time>2022-08-24T08:28:53Z</time>
      </trkpt>
      <trkpt lat="43.0991169999996" lon="-1.2408440000000052">
        <ele>874.479</ele>
        <time>2022-08-24T08:28:54Z</time>
      </trkpt>
      <trkpt lat="43.099098999999605" lon="-1.2408470000000051">
        <ele>874.468</ele>
        <time>2022-08-24T08:28:55Z</time>
      </trkpt>
      <trkpt lat="43.09908699999961" lon="-1.240853000000005">
        <ele>874.654</ele>
        <time>2022-08-24T08:28:56Z</time>
      </trkpt>
      <trkpt lat="43.09907199999961" lon="-1.240865000000005">
        <ele>874.656</ele>
        <time>2022-08-24T08:28:57Z</time>
      </trkpt>
      <trkpt lat="43.09905499999961" lon="-1.240873000000005">
        <ele>874.811</ele>
        <time>2022-08-24T08:28:58Z</time>
      </trkpt>
      <trkpt lat="43.09903999999961" lon="-1.240881000000005">
        <ele>875.009</ele>
        <time>2022-08-24T08:28:59Z</time>
      </trkpt>
      <trkpt lat="43.09903999999961" lon="-1.240881000000005">
        <ele>875.076</ele>
        <time>2022-08-24T08:29:00Z</time>
      </trkpt>
      <trkpt lat="43.09900399999961" lon="-1.240896000000005">
        <ele>875.226</ele>
        <time>2022-08-24T08:29:01Z</time>
      </trkpt>
      <trkpt lat="43.09898599999961" lon="-1.2409040000000051">
        <ele>875.226</ele>
        <time>2022-08-24T08:29:02Z</time>
      </trkpt>
      <trkpt lat="43.09896899999961" lon="-1.2409090000000051">
        <ele>875.432</ele>
        <time>2022-08-24T08:29:03Z</time>
      </trkpt>
      <trkpt lat="43.098950999999616" lon="-1.2409160000000052">
        <ele>875.624</ele>
        <time>2022-08-24T08:29:04Z</time>
      </trkpt>
      <trkpt lat="43.098933999999616" lon="-1.2409230000000053">
        <ele>875.841</ele>
        <time>2022-08-24T08:29:05Z</time>
      </trkpt>
      <trkpt lat="43.09891699999962" lon="-1.2409310000000053">
        <ele>876.064</ele>
        <time>2022-08-24T08:29:06Z</time>
      </trkpt>
      <trkpt lat="43.09889899999962" lon="-1.2409390000000053">
        <ele>876.088</ele>
        <time>2022-08-24T08:29:07Z</time>
      </trkpt>
      <trkpt lat="43.09888299999962" lon="-1.2409440000000054">
        <ele>876.247</ele>
        <time>2022-08-24T08:29:08Z</time>
      </trkpt>
      <trkpt lat="43.09886599999962" lon="-1.2409540000000054">
        <ele>876.492</ele>
        <time>2022-08-24T08:29:09Z</time>
      </trkpt>
      <trkpt lat="43.09884299999962" lon="-1.2409630000000054">
        <ele>876.673</ele>
        <time>2022-08-24T08:29:10Z</time>
      </trkpt>
      <trkpt lat="43.09882799999962" lon="-1.2409690000000053">
        <ele>876.820</ele>
        <time>2022-08-24T08:29:11Z</time>
      </trkpt>
      <trkpt lat="43.09881099999962" lon="-1.2409740000000054">
        <ele>877.009</ele>
        <time>2022-08-24T08:29:12Z</time>
      </trkpt>
      <trkpt lat="43.09879599999962" lon="-1.2409790000000054">
        <ele>877.270</ele>
        <time>2022-08-24T08:29:13Z</time>
      </trkpt>
      <trkpt lat="43.098778999999624" lon="-1.2409850000000053">
        <ele>877.270</ele>
        <time>2022-08-24T08:29:14Z</time>
      </trkpt>
      <trkpt lat="43.09875999999962" lon="-1.2409920000000054">
        <ele>877.660</ele>
        <time>2022-08-24T08:29:15Z</time>
      </trkpt>
      <trkpt lat="43.09874299999962" lon="-1.2409950000000054">
        <ele>877.616</ele>
        <time>2022-08-24T08:29:16Z</time>
      </trkpt>
      <trkpt lat="43.09872599999962" lon="-1.2409990000000053">
        <ele>877.838</ele>
        <time>2022-08-24T08:29:17Z</time>
      </trkpt>
      <trkpt lat="43.098713999999624" lon="-1.2410060000000054">
        <ele>878.075</ele>
        <time>2022-08-24T08:29:18Z</time>
      </trkpt>
      <trkpt lat="43.09869799999962" lon="-1.2410100000000053">
        <ele>878.218</ele>
        <time>2022-08-24T08:29:19Z</time>
      </trkpt>
      <trkpt lat="43.09868199999962" lon="-1.2410140000000052">
        <ele>878.622</ele>
        <time>2022-08-24T08:29:20Z</time>
      </trkpt>
      <trkpt lat="43.09866399999962" lon="-1.2410160000000052">
        <ele>878.851</ele>
        <time>2022-08-24T08:29:21Z</time>
      </trkpt>
      <trkpt lat="43.09864999999962" lon="-1.2410200000000051">
        <ele>879.088</ele>
        <time>2022-08-24T08:29:22Z</time>
      </trkpt>
      <trkpt lat="43.098637999999625" lon="-1.241026000000005">
        <ele>879.224</ele>
        <time>2022-08-24T08:29:23Z</time>
      </trkpt>
      <trkpt lat="43.098617999999625" lon="-1.2410410000000052">
        <ele>879.226</ele>
        <time>2022-08-24T08:29:24Z</time>
      </trkpt>
      <trkpt lat="43.098600999999626" lon="-1.2410460000000052">
        <ele>879.409</ele>
        <time>2022-08-24T08:29:25Z</time>
      </trkpt>
      <trkpt lat="43.098586999999625" lon="-1.241050000000005">
        <ele>879.669</ele>
        <time>2022-08-24T08:29:26Z</time>
      </trkpt>
      <trkpt lat="43.09857399999962" lon="-1.241051000000005">
        <ele>879.869</ele>
        <time>2022-08-24T08:29:27Z</time>
      </trkpt>
      <trkpt lat="43.09856399999962" lon="-1.241053000000005">
        <ele>880.069</ele>
        <time>2022-08-24T08:29:28Z</time>
      </trkpt>
      <trkpt lat="43.09854999999962" lon="-1.2410550000000051">
        <ele>880.235</ele>
        <time>2022-08-24T08:29:29Z</time>
      </trkpt>
      <trkpt lat="43.09852999999962" lon="-1.2410570000000052">
        <ele>880.437</ele>
        <time>2022-08-24T08:29:30Z</time>
      </trkpt>
      <trkpt lat="43.09851599999962" lon="-1.2410620000000052">
        <ele>880.474</ele>
        <time>2022-08-24T08:29:31Z</time>
      </trkpt>
      <trkpt lat="43.09850199999962" lon="-1.2410690000000053">
        <ele>880.857</ele>
        <time>2022-08-24T08:29:32Z</time>
      </trkpt>
      <trkpt lat="43.09849099999962" lon="-1.2410710000000054">
        <ele>881.041</ele>
        <time>2022-08-24T08:29:33Z</time>
      </trkpt>
      <trkpt lat="43.09847699999962" lon="-1.2410760000000054">
        <ele>881.270</ele>
        <time>2022-08-24T08:29:34Z</time>
      </trkpt>
      <trkpt lat="43.098463999999616" lon="-1.2410800000000053">
        <ele>881.435</ele>
        <time>2022-08-24T08:29:35Z</time>
      </trkpt>
      <trkpt lat="43.09845199999962" lon="-1.2410850000000053">
        <ele>881.686</ele>
        <time>2022-08-24T08:29:36Z</time>
      </trkpt>
      <trkpt lat="43.09843999999962" lon="-1.2410910000000053">
        <ele>881.814</ele>
        <time>2022-08-24T08:29:37Z</time>
      </trkpt>
      <trkpt lat="43.09842899999962" lon="-1.2410950000000052">
        <ele>881.809</ele>
        <time>2022-08-24T08:29:38Z</time>
      </trkpt>
      <trkpt lat="43.09841599999962" lon="-1.2411000000000052">
        <ele>882.064</ele>
        <time>2022-08-24T08:29:39Z</time>
      </trkpt>
      <trkpt lat="43.09839899999962" lon="-1.241104000000005">
        <ele>882.224</ele>
        <time>2022-08-24T08:29:40Z</time>
      </trkpt>
      <trkpt lat="43.09838099999962" lon="-1.241104000000005">
        <ele>882.484</ele>
        <time>2022-08-24T08:29:41Z</time>
      </trkpt>
      <trkpt lat="43.09836999999962" lon="-1.241107000000005">
        <ele>882.450</ele>
        <time>2022-08-24T08:29:42Z</time>
      </trkpt>
      <trkpt lat="43.09835599999962" lon="-1.241113000000005">
        <ele>882.622</ele>
        <time>2022-08-24T08:29:43Z</time>
      </trkpt>
      <trkpt lat="43.09834399999962" lon="-1.241119000000005">
        <ele>882.649</ele>
        <time>2022-08-24T08:29:44Z</time>
      </trkpt>
      <trkpt lat="43.09832999999962" lon="-1.241124000000005">
        <ele>882.632</ele>
        <time>2022-08-24T08:29:45Z</time>
      </trkpt>
      <trkpt lat="43.09831799999962" lon="-1.241130000000005">
        <ele>882.856</ele>
        <time>2022-08-24T08:29:46Z</time>
      </trkpt>
      <trkpt lat="43.09830699999962" lon="-1.241130000000005">
        <ele>883.065</ele>
        <time>2022-08-24T08:29:47Z</time>
      </trkpt>
      <trkpt lat="43.098291999999624" lon="-1.241135000000005">
        <ele>883.088</ele>
        <time>2022-08-24T08:29:48Z</time>
      </trkpt>
      <trkpt lat="43.09827399999963" lon="-1.2411390000000049">
        <ele>883.424</ele>
        <time>2022-08-24T08:29:49Z</time>
      </trkpt>
      <trkpt lat="43.098257999999625" lon="-1.2411470000000049">
        <ele>883.426</ele>
        <time>2022-08-24T08:29:50Z</time>
      </trkpt>
      <trkpt lat="43.09824299999963" lon="-1.2411560000000048">
        <ele>883.809</ele>
        <time>2022-08-24T08:29:51Z</time>
      </trkpt>
      <trkpt lat="43.09822499999963" lon="-1.2411640000000048">
        <ele>884.079</ele>
        <time>2022-08-24T08:29:52Z</time>
      </trkpt>
      <trkpt lat="43.09821599999963" lon="-1.2411700000000048">
        <ele>884.229</ele>
        <time>2022-08-24T08:29:53Z</time>
      </trkpt>
      <trkpt lat="43.09820199999963" lon="-1.2411800000000048">
        <ele>884.689</ele>
        <time>2022-08-24T08:29:54Z</time>
      </trkpt>
      <trkpt lat="43.09818999999963" lon="-1.241190000000005">
        <ele>884.885</ele>
        <time>2022-08-24T08:29:55Z</time>
      </trkpt>
      <trkpt lat="43.098174999999635" lon="-1.2411990000000048">
        <ele>885.297</ele>
        <time>2022-08-24T08:29:56Z</time>
      </trkpt>
      <trkpt lat="43.098160999999635" lon="-1.241209000000005">
        <ele>885.294</ele>
        <time>2022-08-24T08:29:57Z</time>
      </trkpt>
      <trkpt lat="43.098149999999634" lon="-1.241219000000005">
        <ele>885.627</ele>
        <time>2022-08-24T08:29:58Z</time>
      </trkpt>
      <trkpt lat="43.098149999999634" lon="-1.241219000000005">
        <ele>885.881</ele>
        <time>2022-08-24T08:29:59Z</time>
      </trkpt>
      <trkpt lat="43.098132999999635" lon="-1.241241000000005">
        <ele>886.060</ele>
        <time>2022-08-24T08:30:00Z</time>
      </trkpt>
      <trkpt lat="43.09812599999964" lon="-1.241248000000005">
        <ele>886.226</ele>
        <time>2022-08-24T08:30:01Z</time>
      </trkpt>
      <trkpt lat="43.09811399999964" lon="-1.241253000000005">
        <ele>886.247</ele>
        <time>2022-08-24T08:30:02Z</time>
      </trkpt>
      <trkpt lat="43.09810199999964" lon="-1.241255000000005">
        <ele>886.411</ele>
        <time>2022-08-24T08:30:03Z</time>
      </trkpt>
      <trkpt lat="43.098089999999644" lon="-1.2412510000000052">
        <ele>886.609</ele>
        <time>2022-08-24T08:30:04Z</time>
      </trkpt>
      <trkpt lat="43.09807099999964" lon="-1.2412460000000052">
        <ele>886.883</ele>
        <time>2022-08-24T08:30:05Z</time>
      </trkpt>
      <trkpt lat="43.098058999999644" lon="-1.2412510000000052">
        <ele>886.823</ele>
        <time>2022-08-24T08:30:06Z</time>
      </trkpt>
      <trkpt lat="43.09804899999964" lon="-1.2412630000000051">
        <ele>887.093</ele>
        <time>2022-08-24T08:30:07Z</time>
      </trkpt>
      <trkpt lat="43.09803999999964" lon="-1.241277000000005">
        <ele>887.249</ele>
        <time>2022-08-24T08:30:08Z</time>
      </trkpt>
      <trkpt lat="43.09802999999964" lon="-1.2412870000000051">
        <ele>887.441</ele>
        <time>2022-08-24T08:30:09Z</time>
      </trkpt>
      <trkpt lat="43.09802099999964" lon="-1.241293000000005">
        <ele>887.638</ele>
        <time>2022-08-24T08:30:10Z</time>
      </trkpt>
      <trkpt lat="43.09801199999964" lon="-1.241302000000005">
        <ele>888.061</ele>
        <time>2022-08-24T08:30:11Z</time>
      </trkpt>
      <trkpt lat="43.09800299999964" lon="-1.241309000000005">
        <ele>888.285</ele>
        <time>2022-08-24T08:30:12Z</time>
      </trkpt>
      <trkpt lat="43.09799199999964" lon="-1.2413140000000051">
        <ele>888.274</ele>
        <time>2022-08-24T08:30:13Z</time>
      </trkpt>
      <trkpt lat="43.09798099999964" lon="-1.241320000000005">
        <ele>888.434</ele>
        <time>2022-08-24T08:30:14Z</time>
      </trkpt>
      <trkpt lat="43.09796699999964" lon="-1.241328000000005">
        <ele>888.455</ele>
        <time>2022-08-24T08:30:15Z</time>
      </trkpt>
      <trkpt lat="43.097954999999644" lon="-1.241334000000005">
        <ele>888.610</ele>
        <time>2022-08-24T08:30:16Z</time>
      </trkpt>
      <trkpt lat="43.097942999999646" lon="-1.241339000000005">
        <ele>888.609</ele>
        <time>2022-08-24T08:30:17Z</time>
      </trkpt>
      <trkpt lat="43.09793299999964" lon="-1.241343000000005">
        <ele>888.824</ele>
        <time>2022-08-24T08:30:18Z</time>
      </trkpt>
      <trkpt lat="43.097923999999644" lon="-1.241348000000005">
        <ele>889.024</ele>
        <time>2022-08-24T08:30:19Z</time>
      </trkpt>
      <trkpt lat="43.09791599999964" lon="-1.241356000000005">
        <ele>889.274</ele>
        <time>2022-08-24T08:30:20Z</time>
      </trkpt>
      <trkpt lat="43.09790799999964" lon="-1.241369000000005">
        <ele>889.230</ele>
        <time>2022-08-24T08:30:21Z</time>
      </trkpt>
      <trkpt lat="43.09789799999964" lon="-1.2413760000000051">
        <ele>889.632</ele>
        <time>2022-08-24T08:30:22Z</time>
      </trkpt>
      <trkpt lat="43.09788099999964" lon="-1.241374000000005">
        <ele>889.879</ele>
        <time>2022-08-24T08:30:23Z</time>
      </trkpt>
      <trkpt lat="43.09786999999964" lon="-1.241377000000005">
        <ele>889.842</ele>
        <time>2022-08-24T08:30:24Z</time>
      </trkpt>
      <trkpt lat="43.09786199999964" lon="-1.2413790000000051">
        <ele>890.096</ele>
        <time>2022-08-24T08:30:25Z</time>
      </trkpt>
      <trkpt lat="43.09784999999964" lon="-1.241383000000005">
        <ele>890.265</ele>
        <time>2022-08-24T08:30:26Z</time>
      </trkpt>
      <trkpt lat="43.09783599999964" lon="-1.241390000000005">
        <ele>890.466</ele>
        <time>2022-08-24T08:30:27Z</time>
      </trkpt>
      <trkpt lat="43.09782499999964" lon="-1.2413950000000051">
        <ele>890.629</ele>
        <time>2022-08-24T08:30:28Z</time>
      </trkpt>
      <trkpt lat="43.09781299999964" lon="-1.241398000000005">
        <ele>890.621</ele>
        <time>2022-08-24T08:30:29Z</time>
      </trkpt>
      <trkpt lat="43.09780099999964" lon="-1.241402000000005">
        <ele>890.809</ele>
        <time>2022-08-24T08:30:30Z</time>
      </trkpt>
      <trkpt lat="43.09778899999964" lon="-1.241407000000005">
        <ele>890.857</ele>
        <time>2022-08-24T08:30:31Z</time>
      </trkpt>
      <trkpt lat="43.09777599999964" lon="-1.241409000000005">
        <ele>891.077</ele>
        <time>2022-08-24T08:30:32Z</time>
      </trkpt>
      <trkpt lat="43.09776699999964" lon="-1.2414110000000051">
        <ele>891.287</ele>
        <time>2022-08-24T08:30:33Z</time>
      </trkpt>
      <trkpt lat="43.09775399999964" lon="-1.2414140000000051">
        <ele>891.433</ele>
        <time>2022-08-24T08:30:34Z</time>
      </trkpt>
      <trkpt lat="43.09774299999964" lon="-1.241415000000005">
        <ele>891.645</ele>
        <time>2022-08-24T08:30:35Z</time>
      </trkpt>
      <trkpt lat="43.09773099999964" lon="-1.2414140000000051">
        <ele>891.612</ele>
        <time>2022-08-24T08:30:36Z</time>
      </trkpt>
      <trkpt lat="43.09771899999964" lon="-1.2414140000000051">
        <ele>892.065</ele>
        <time>2022-08-24T08:30:37Z</time>
      </trkpt>
      <trkpt lat="43.09770499999964" lon="-1.241417000000005">
        <ele>892.029</ele>
        <time>2022-08-24T08:30:38Z</time>
      </trkpt>
      <trkpt lat="43.09769199999964" lon="-1.241420000000005">
        <ele>892.488</ele>
        <time>2022-08-24T08:30:39Z</time>
      </trkpt>
      <trkpt lat="43.09768099999964" lon="-1.2414190000000052">
        <ele>892.643</ele>
        <time>2022-08-24T08:30:40Z</time>
      </trkpt>
      <trkpt lat="43.09766899999964" lon="-1.2414190000000052">
        <ele>892.664</ele>
        <time>2022-08-24T08:30:41Z</time>
      </trkpt>
      <trkpt lat="43.09765599999964" lon="-1.241420000000005">
        <ele>892.610</ele>
        <time>2022-08-24T08:30:42Z</time>
      </trkpt>
      <trkpt lat="43.09764699999964" lon="-1.241421000000005">
        <ele>892.609</ele>
        <time>2022-08-24T08:30:43Z</time>
      </trkpt>
      <trkpt lat="43.09763599999964" lon="-1.2414250000000049">
        <ele>892.875</ele>
        <time>2022-08-24T08:30:44Z</time>
      </trkpt>
      <trkpt lat="43.09762499999964" lon="-1.2414290000000048">
        <ele>893.035</ele>
        <time>2022-08-24T08:30:45Z</time>
      </trkpt>
      <trkpt lat="43.097614999999635" lon="-1.2414300000000047">
        <ele>893.415</ele>
        <time>2022-08-24T08:30:46Z</time>
      </trkpt>
      <trkpt lat="43.09760199999963" lon="-1.2414250000000047">
        <ele>893.671</ele>
        <time>2022-08-24T08:30:47Z</time>
      </trkpt>
      <trkpt lat="43.09759099999963" lon="-1.2414230000000046">
        <ele>893.843</ele>
        <time>2022-08-24T08:30:48Z</time>
      </trkpt>
      <trkpt lat="43.09757999999963" lon="-1.2414200000000046">
        <ele>894.070</ele>
        <time>2022-08-24T08:30:49Z</time>
      </trkpt>
      <trkpt lat="43.09757199999963" lon="-1.2414190000000047">
        <ele>894.053</ele>
        <time>2022-08-24T08:30:50Z</time>
      </trkpt>
      <trkpt lat="43.09755999999963" lon="-1.2414230000000046">
        <ele>894.287</ele>
        <time>2022-08-24T08:30:51Z</time>
      </trkpt>
      <trkpt lat="43.09755099999963" lon="-1.2414210000000045">
        <ele>894.466</ele>
        <time>2022-08-24T08:30:52Z</time>
      </trkpt>
      <trkpt lat="43.09754099999963" lon="-1.2414160000000045">
        <ele>894.641</ele>
        <time>2022-08-24T08:30:53Z</time>
      </trkpt>
      <trkpt lat="43.09752999999963" lon="-1.2414110000000045">
        <ele>894.881</ele>
        <time>2022-08-24T08:30:54Z</time>
      </trkpt>
      <trkpt lat="43.09751699999963" lon="-1.2414110000000045">
        <ele>894.809</ele>
        <time>2022-08-24T08:30:55Z</time>
      </trkpt>
      <trkpt lat="43.09750799999963" lon="-1.2414150000000044">
        <ele>895.009</ele>
        <time>2022-08-24T08:30:56Z</time>
      </trkpt>
      <trkpt lat="43.09749699999963" lon="-1.2414190000000043">
        <ele>895.215</ele>
        <time>2022-08-24T08:30:57Z</time>
      </trkpt>
      <trkpt lat="43.09748799999963" lon="-1.2414250000000042">
        <ele>895.485</ele>
        <time>2022-08-24T08:30:58Z</time>
      </trkpt>
      <trkpt lat="43.09747999999963" lon="-1.2414320000000043">
        <ele>895.685</ele>
        <time>2022-08-24T08:30:59Z</time>
      </trkpt>
      <trkpt lat="43.09747099999963" lon="-1.2414370000000043">
        <ele>895.641</ele>
        <time>2022-08-24T08:31:00Z</time>
      </trkpt>
      <trkpt lat="43.097460999999626" lon="-1.2414420000000044">
        <ele>895.853</ele>
        <time>2022-08-24T08:31:01Z</time>
      </trkpt>
      <trkpt lat="43.097449999999625" lon="-1.2414400000000043">
        <ele>895.830</ele>
        <time>2022-08-24T08:31:02Z</time>
      </trkpt>
      <trkpt lat="43.09743999999962" lon="-1.2414280000000044">
        <ele>896.033</ele>
        <time>2022-08-24T08:31:03Z</time>
      </trkpt>
      <trkpt lat="43.09742999999962" lon="-1.2414240000000045">
        <ele>896.287</ele>
        <time>2022-08-24T08:31:04Z</time>
      </trkpt>
      <trkpt lat="43.09741799999962" lon="-1.2414250000000044">
        <ele>896.476</ele>
        <time>2022-08-24T08:31:05Z</time>
      </trkpt>
      <trkpt lat="43.09741199999962" lon="-1.2414290000000043">
        <ele>896.675</ele>
        <time>2022-08-24T08:31:06Z</time>
      </trkpt>
      <trkpt lat="43.09740399999962" lon="-1.2414380000000043">
        <ele>896.628</ele>
        <time>2022-08-24T08:31:07Z</time>
      </trkpt>
      <trkpt lat="43.097399999999624" lon="-1.2414440000000042">
        <ele>897.020</ele>
        <time>2022-08-24T08:31:08Z</time>
      </trkpt>
      <trkpt lat="43.097399999999624" lon="-1.2414450000000041">
        <ele>897.209</ele>
        <time>2022-08-24T08:31:09Z</time>
      </trkpt>
      <trkpt lat="43.09739299999963" lon="-1.2414470000000042">
        <ele>897.488</ele>
        <time>2022-08-24T08:31:10Z</time>
      </trkpt>
      <trkpt lat="43.097384999999626" lon="-1.2414550000000042">
        <ele>897.658</ele>
        <time>2022-08-24T08:31:11Z</time>
      </trkpt>
      <trkpt lat="43.097376999999625" lon="-1.2414630000000042">
        <ele>897.628</ele>
        <time>2022-08-24T08:31:12Z</time>
      </trkpt>
      <trkpt lat="43.097368999999624" lon="-1.2414690000000042">
        <ele>897.864</ele>
        <time>2022-08-24T08:31:13Z</time>
      </trkpt>
      <trkpt lat="43.09736099999962" lon="-1.2414740000000042">
        <ele>897.836</ele>
        <time>2022-08-24T08:31:14Z</time>
      </trkpt>
      <trkpt lat="43.097351999999624" lon="-1.2414790000000042">
        <ele>898.023</ele>
        <time>2022-08-24T08:31:15Z</time>
      </trkpt>
      <trkpt lat="43.09734199999962" lon="-1.2414810000000043">
        <ele>897.886</ele>
        <time>2022-08-24T08:31:16Z</time>
      </trkpt>
      <trkpt lat="43.09733299999962" lon="-1.2414840000000043">
        <ele>898.030</ele>
        <time>2022-08-24T08:31:17Z</time>
      </trkpt>
      <trkpt lat="43.097323999999624" lon="-1.2414900000000042">
        <ele>898.059</ele>
        <time>2022-08-24T08:31:18Z</time>
      </trkpt>
      <trkpt lat="43.09731399999962" lon="-1.2414980000000042">
        <ele>898.268</ele>
        <time>2022-08-24T08:31:19Z</time>
      </trkpt>
      <trkpt lat="43.09730499999962" lon="-1.2415060000000042">
        <ele>898.242</ele>
        <time>2022-08-24T08:31:20Z</time>
      </trkpt>
      <trkpt lat="43.09729499999962" lon="-1.2415080000000043">
        <ele>898.226</ele>
        <time>2022-08-24T08:31:21Z</time>
      </trkpt>
      <trkpt lat="43.09728599999962" lon="-1.2415110000000043">
        <ele>898.609</ele>
        <time>2022-08-24T08:31:22Z</time>
      </trkpt>
      <trkpt lat="43.09727399999962" lon="-1.2415130000000043">
        <ele>898.677</ele>
        <time>2022-08-24T08:31:23Z</time>
      </trkpt>
      <trkpt lat="43.09727399999962" lon="-1.2415130000000043">
        <ele>898.677</ele>
        <time>2022-08-24T08:31:24Z</time>
      </trkpt>
      <trkpt lat="43.09724999999962" lon="-1.2415210000000043">
        <ele>899.077</ele>
        <time>2022-08-24T08:31:25Z</time>
      </trkpt>
      <trkpt lat="43.097239999999616" lon="-1.2415290000000043">
        <ele>899.083</ele>
        <time>2022-08-24T08:31:26Z</time>
      </trkpt>
      <trkpt lat="43.09723099999962" lon="-1.2415370000000043">
        <ele>899.255</ele>
        <time>2022-08-24T08:31:27Z</time>
      </trkpt>
      <trkpt lat="43.09722399999962" lon="-1.2415480000000043">
        <ele>899.472</ele>
        <time>2022-08-24T08:31:28Z</time>
      </trkpt>
      <trkpt lat="43.09721599999962" lon="-1.2415570000000042">
        <ele>899.685</ele>
        <time>2022-08-24T08:31:29Z</time>
      </trkpt>
      <trkpt lat="43.09720799999962" lon="-1.2415650000000042">
        <ele>899.839</ele>
        <time>2022-08-24T08:31:30Z</time>
      </trkpt>
      <trkpt lat="43.09719999999962" lon="-1.2415730000000043">
        <ele>900.058</ele>
        <time>2022-08-24T08:31:31Z</time>
      </trkpt>
      <trkpt lat="43.097189999999614" lon="-1.2415790000000042">
        <ele>900.067</ele>
        <time>2022-08-24T08:31:32Z</time>
      </trkpt>
      <trkpt lat="43.09717999999961" lon="-1.2415800000000041">
        <ele>900.281</ele>
        <time>2022-08-24T08:31:33Z</time>
      </trkpt>
      <trkpt lat="43.09716899999961" lon="-1.241578000000004">
        <ele>900.419</ele>
        <time>2022-08-24T08:31:34Z</time>
      </trkpt>
      <trkpt lat="43.09715699999961" lon="-1.241579000000004">
        <ele>900.609</ele>
        <time>2022-08-24T08:31:35Z</time>
      </trkpt>
      <trkpt lat="43.09714299999961" lon="-1.241582000000004">
        <ele>900.627</ele>
        <time>2022-08-24T08:31:36Z</time>
      </trkpt>
      <trkpt lat="43.09713299999961" lon="-1.241587000000004">
        <ele>900.827</ele>
        <time>2022-08-24T08:31:37Z</time>
      </trkpt>
      <trkpt lat="43.09712199999961" lon="-1.241597000000004">
        <ele>900.897</ele>
        <time>2022-08-24T08:31:38Z</time>
      </trkpt>
      <trkpt lat="43.09711399999961" lon="-1.2416070000000041">
        <ele>901.013</ele>
        <time>2022-08-24T08:31:39Z</time>
      </trkpt>
      <trkpt lat="43.09711399999961" lon="-1.2416070000000041">
        <ele>901.235</ele>
        <time>2022-08-24T08:31:40Z</time>
      </trkpt>
      <trkpt lat="43.097097999999605" lon="-1.241627000000004">
        <ele>901.242</ele>
        <time>2022-08-24T08:31:41Z</time>
      </trkpt>
      <trkpt lat="43.097086999999604" lon="-1.241636000000004">
        <ele>901.465</ele>
        <time>2022-08-24T08:31:42Z</time>
      </trkpt>
      <trkpt lat="43.0970759999996" lon="-1.2416400000000039">
        <ele>901.489</ele>
        <time>2022-08-24T08:31:43Z</time>
      </trkpt>
      <trkpt lat="43.0970659999996" lon="-1.2416450000000039">
        <ele>901.438</ele>
        <time>2022-08-24T08:31:44Z</time>
      </trkpt>
      <trkpt lat="43.0970559999996" lon="-1.241652000000004">
        <ele>901.671</ele>
        <time>2022-08-24T08:31:45Z</time>
      </trkpt>
      <trkpt lat="43.0970469999996" lon="-1.241662000000004">
        <ele>901.641</ele>
        <time>2022-08-24T08:31:46Z</time>
      </trkpt>
      <trkpt lat="43.0970389999996" lon="-1.241672000000004">
        <ele>901.815</ele>
        <time>2022-08-24T08:31:47Z</time>
      </trkpt>
      <trkpt lat="43.0970269999996" lon="-1.2416820000000042">
        <ele>902.009</ele>
        <time>2022-08-24T08:31:48Z</time>
      </trkpt>
      <trkpt lat="43.097016999999596" lon="-1.2416890000000043">
        <ele>902.238</ele>
        <time>2022-08-24T08:31:49Z</time>
      </trkpt>
      <trkpt lat="43.09700699999959" lon="-1.2416930000000042">
        <ele>902.238</ele>
        <time>2022-08-24T08:31:50Z</time>
      </trkpt>
      <trkpt lat="43.09699899999959" lon="-1.241697000000004">
        <ele>902.468</ele>
        <time>2022-08-24T08:31:51Z</time>
      </trkpt>
      <trkpt lat="43.09698899999959" lon="-1.241701000000004">
        <ele>902.484</ele>
        <time>2022-08-24T08:31:52Z</time>
      </trkpt>
      <trkpt lat="43.096975999999586" lon="-1.241708000000004">
        <ele>902.446</ele>
        <time>2022-08-24T08:31:53Z</time>
      </trkpt>
      <trkpt lat="43.09696299999958" lon="-1.2417150000000041">
        <ele>902.693</ele>
        <time>2022-08-24T08:31:54Z</time>
      </trkpt>
      <trkpt lat="43.09695199999958" lon="-1.241719000000004">
        <ele>902.856</ele>
        <time>2022-08-24T08:31:55Z</time>
      </trkpt>
      <trkpt lat="43.09694699999958" lon="-1.241721000000004">
        <ele>903.050</ele>
        <time>2022-08-24T08:31:56Z</time>
      </trkpt>
      <trkpt lat="43.09693599999958" lon="-1.241726000000004">
        <ele>903.249</ele>
        <time>2022-08-24T08:31:57Z</time>
      </trkpt>
      <trkpt lat="43.09692699999958" lon="-1.2417340000000041">
        <ele>903.672</ele>
        <time>2022-08-24T08:31:58Z</time>
      </trkpt>
      <trkpt lat="43.09691599999958" lon="-1.241745000000004">
        <ele>903.613</ele>
        <time>2022-08-24T08:31:59Z</time>
      </trkpt>
      <trkpt lat="43.09690699999958" lon="-1.241749000000004">
        <ele>903.814</ele>
        <time>2022-08-24T08:32:00Z</time>
      </trkpt>
      <trkpt lat="43.096891999999585" lon="-1.2417530000000039">
        <ele>904.009</ele>
        <time>2022-08-24T08:32:01Z</time>
      </trkpt>
      <trkpt lat="43.096882999999586" lon="-1.241752000000004">
        <ele>904.018</ele>
        <time>2022-08-24T08:32:02Z</time>
      </trkpt>
      <trkpt lat="43.09687099999959" lon="-1.241749000000004">
        <ele>904.288</ele>
        <time>2022-08-24T08:32:03Z</time>
      </trkpt>
      <trkpt lat="43.09685999999959" lon="-1.241752000000004">
        <ele>904.468</ele>
        <time>2022-08-24T08:32:04Z</time>
      </trkpt>
      <trkpt lat="43.09685099999959" lon="-1.241758000000004">
        <ele>904.644</ele>
        <time>2022-08-24T08:32:05Z</time>
      </trkpt>
      <trkpt lat="43.09684499999959" lon="-1.241765000000004">
        <ele>904.826</ele>
        <time>2022-08-24T08:32:06Z</time>
      </trkpt>
      <trkpt lat="43.09683499999959" lon="-1.241771000000004">
        <ele>904.853</ele>
        <time>2022-08-24T08:32:07Z</time>
      </trkpt>
      <trkpt lat="43.09682299999959" lon="-1.241777000000004">
        <ele>905.076</ele>
        <time>2022-08-24T08:32:08Z</time>
      </trkpt>
      <trkpt lat="43.09680799999959" lon="-1.2417800000000039">
        <ele>905.060</ele>
        <time>2022-08-24T08:32:09Z</time>
      </trkpt>
      <trkpt lat="43.09679799999959" lon="-1.2417810000000038">
        <ele>905.229</ele>
        <time>2022-08-24T08:32:10Z</time>
      </trkpt>
      <trkpt lat="43.096787999999584" lon="-1.2417860000000038">
        <ele>905.482</ele>
        <time>2022-08-24T08:32:11Z</time>
      </trkpt>
      <trkpt lat="43.09678099999959" lon="-1.2417870000000037">
        <ele>905.643</ele>
        <time>2022-08-24T08:32:12Z</time>
      </trkpt>
      <trkpt lat="43.096770999999585" lon="-1.2417900000000037">
        <ele>905.617</ele>
        <time>2022-08-24T08:32:13Z</time>
      </trkpt>
      <trkpt lat="43.09675899999959" lon="-1.2417920000000038">
        <ele>905.609</ele>
        <time>2022-08-24T08:32:14Z</time>
      </trkpt>
      <trkpt lat="43.096745999999584" lon="-1.2417950000000038">
        <ele>905.889</ele>
        <time>2022-08-24T08:32:15Z</time>
      </trkpt>
      <trkpt lat="43.09673599999958" lon="-1.2417990000000036">
        <ele>906.039</ele>
        <time>2022-08-24T08:32:16Z</time>
      </trkpt>
      <trkpt lat="43.09672799999958" lon="-1.2418030000000035">
        <ele>906.269</ele>
        <time>2022-08-24T08:32:17Z</time>
      </trkpt>
      <trkpt lat="43.09671699999958" lon="-1.2418080000000036">
        <ele>906.265</ele>
        <time>2022-08-24T08:32:18Z</time>
      </trkpt>
      <trkpt lat="43.09670299999958" lon="-1.2418160000000036">
        <ele>906.237</ele>
        <time>2022-08-24T08:32:19Z</time>
      </trkpt>
      <trkpt lat="43.09669199999958" lon="-1.2418210000000036">
        <ele>906.474</ele>
        <time>2022-08-24T08:32:20Z</time>
      </trkpt>
      <trkpt lat="43.09668499999958" lon="-1.2418230000000037">
        <ele>906.447</ele>
        <time>2022-08-24T08:32:21Z</time>
      </trkpt>
      <trkpt lat="43.09667299999958" lon="-1.2418270000000036">
        <ele>906.821</ele>
        <time>2022-08-24T08:32:22Z</time>
      </trkpt>
      <trkpt lat="43.09665899999958" lon="-1.2418310000000035">
        <ele>906.810</ele>
        <time>2022-08-24T08:32:23Z</time>
      </trkpt>
      <trkpt lat="43.09664799999958" lon="-1.2418360000000035">
        <ele>907.025</ele>
        <time>2022-08-24T08:32:24Z</time>
      </trkpt>
      <trkpt lat="43.09663199999958" lon="-1.2418420000000034">
        <ele>907.226</ele>
        <time>2022-08-24T08:32:25Z</time>
      </trkpt>
      <trkpt lat="43.09661799999958" lon="-1.2418500000000035">
        <ele>907.208</ele>
        <time>2022-08-24T08:32:26Z</time>
      </trkpt>
      <trkpt lat="43.09660899999958" lon="-1.2418530000000034">
        <ele>907.409</ele>
        <time>2022-08-24T08:32:27Z</time>
      </trkpt>
      <trkpt lat="43.09659599999958" lon="-1.2418540000000033">
        <ele>907.663</ele>
        <time>2022-08-24T08:32:28Z</time>
      </trkpt>
      <trkpt lat="43.09657599999958" lon="-1.2418560000000034">
        <ele>907.673</ele>
        <time>2022-08-24T08:32:29Z</time>
      </trkpt>
      <trkpt lat="43.09656199999958" lon="-1.2418640000000034">
        <ele>907.883</ele>
        <time>2022-08-24T08:32:30Z</time>
      </trkpt>
      <trkpt lat="43.096551999999576" lon="-1.2418690000000034">
        <ele>908.039</ele>
        <time>2022-08-24T08:32:31Z</time>
      </trkpt>
      <trkpt lat="43.096537999999576" lon="-1.2418710000000035">
        <ele>908.081</ele>
        <time>2022-08-24T08:32:32Z</time>
      </trkpt>
      <trkpt lat="43.096523999999576" lon="-1.2418750000000034">
        <ele>908.238</ele>
        <time>2022-08-24T08:32:33Z</time>
      </trkpt>
      <trkpt lat="43.096507999999574" lon="-1.2418820000000035">
        <ele>908.451</ele>
        <time>2022-08-24T08:32:34Z</time>
      </trkpt>
      <trkpt lat="43.09649399999957" lon="-1.2418850000000035">
        <ele>908.675</ele>
        <time>2022-08-24T08:32:35Z</time>
      </trkpt>
      <trkpt lat="43.096481999999575" lon="-1.2418890000000034">
        <ele>908.624</ele>
        <time>2022-08-24T08:32:36Z</time>
      </trkpt>
      <trkpt lat="43.09647199999957" lon="-1.2418950000000033">
        <ele>908.827</ele>
        <time>2022-08-24T08:32:37Z</time>
      </trkpt>
      <trkpt lat="43.09645799999957" lon="-1.2419030000000033">
        <ele>909.068</ele>
        <time>2022-08-24T08:32:38Z</time>
      </trkpt>
      <trkpt lat="43.09644199999957" lon="-1.2419090000000033">
        <ele>909.214</ele>
        <time>2022-08-24T08:32:39Z</time>
      </trkpt>
      <trkpt lat="43.09642899999957" lon="-1.2419110000000033">
        <ele>909.209</ele>
        <time>2022-08-24T08:32:40Z</time>
      </trkpt>
      <trkpt lat="43.096415999999564" lon="-1.2419130000000034">
        <ele>909.413</ele>
        <time>2022-08-24T08:32:41Z</time>
      </trkpt>
      <trkpt lat="43.09640599999956" lon="-1.2419160000000034">
        <ele>909.623</ele>
        <time>2022-08-24T08:32:42Z</time>
      </trkpt>
      <trkpt lat="43.09639299999956" lon="-1.2419200000000032">
        <ele>909.623</ele>
        <time>2022-08-24T08:32:43Z</time>
      </trkpt>
      <trkpt lat="43.09637799999956" lon="-1.2419250000000033">
        <ele>910.069</ele>
        <time>2022-08-24T08:32:44Z</time>
      </trkpt>
      <trkpt lat="43.09636699999956" lon="-1.2419310000000032">
        <ele>910.061</ele>
        <time>2022-08-24T08:32:45Z</time>
      </trkpt>
      <trkpt lat="43.09635399999956" lon="-1.2419350000000031">
        <ele>910.058</ele>
        <time>2022-08-24T08:32:46Z</time>
      </trkpt>
      <trkpt lat="43.096343999999554" lon="-1.2419370000000032">
        <ele>910.441</ele>
        <time>2022-08-24T08:32:47Z</time>
      </trkpt>
      <trkpt lat="43.09633099999955" lon="-1.2419400000000032">
        <ele>910.645</ele>
        <time>2022-08-24T08:32:48Z</time>
      </trkpt>
      <trkpt lat="43.09631399999955" lon="-1.2419480000000032">
        <ele>910.814</ele>
        <time>2022-08-24T08:32:49Z</time>
      </trkpt>
      <trkpt lat="43.09630099999955" lon="-1.2419560000000032">
        <ele>911.063</ele>
        <time>2022-08-24T08:32:50Z</time>
      </trkpt>
      <trkpt lat="43.09628899999955" lon="-1.2419640000000032">
        <ele>911.044</ele>
        <time>2022-08-24T08:32:51Z</time>
      </trkpt>
      <trkpt lat="43.09628099999955" lon="-1.2419670000000032">
        <ele>911.218</ele>
        <time>2022-08-24T08:32:52Z</time>
      </trkpt>
      <trkpt lat="43.09626799999955" lon="-1.2419720000000032">
        <ele>911.209</ele>
        <time>2022-08-24T08:32:53Z</time>
      </trkpt>
      <trkpt lat="43.096251999999545" lon="-1.2419790000000033">
        <ele>911.687</ele>
        <time>2022-08-24T08:32:54Z</time>
      </trkpt>
      <trkpt lat="43.09623999999955" lon="-1.2419810000000033">
        <ele>911.687</ele>
        <time>2022-08-24T08:32:55Z</time>
      </trkpt>
      <trkpt lat="43.09622599999955" lon="-1.2419820000000033">
        <ele>911.897</ele>
        <time>2022-08-24T08:32:56Z</time>
      </trkpt>
      <trkpt lat="43.096214999999546" lon="-1.2419840000000033">
        <ele>911.883</ele>
        <time>2022-08-24T08:32:57Z</time>
      </trkpt>
      <trkpt lat="43.09620299999955" lon="-1.2419900000000033">
        <ele>912.025</ele>
        <time>2022-08-24T08:32:58Z</time>
      </trkpt>
      <trkpt lat="43.096189999999545" lon="-1.2419980000000033">
        <ele>912.452</ele>
        <time>2022-08-24T08:32:59Z</time>
      </trkpt>
      <trkpt lat="43.09618099999955" lon="-1.2420070000000032">
        <ele>912.655</ele>
        <time>2022-08-24T08:33:00Z</time>
      </trkpt>
      <trkpt lat="43.09617099999954" lon="-1.2420130000000031">
        <ele>912.839</ele>
        <time>2022-08-24T08:33:01Z</time>
      </trkpt>
      <trkpt lat="43.09616299999954" lon="-1.242017000000003">
        <ele>912.878</ele>
        <time>2022-08-24T08:33:02Z</time>
      </trkpt>
      <trkpt lat="43.09614999999954" lon="-1.242020000000003">
        <ele>912.881</ele>
        <time>2022-08-24T08:33:03Z</time>
      </trkpt>
      <trkpt lat="43.09613399999954" lon="-1.242022000000003">
        <ele>913.061</ele>
        <time>2022-08-24T08:33:04Z</time>
      </trkpt>
      <trkpt lat="43.09612299999954" lon="-1.242028000000003">
        <ele>913.217</ele>
        <time>2022-08-24T08:33:05Z</time>
      </trkpt>
      <trkpt lat="43.096112999999534" lon="-1.242038000000003">
        <ele>913.209</ele>
        <time>2022-08-24T08:33:06Z</time>
      </trkpt>
      <trkpt lat="43.09610599999954" lon="-1.2420450000000032">
        <ele>913.239</ele>
        <time>2022-08-24T08:33:07Z</time>
      </trkpt>
      <trkpt lat="43.09609699999954" lon="-1.2420520000000033">
        <ele>913.489</ele>
        <time>2022-08-24T08:33:08Z</time>
      </trkpt>
      <trkpt lat="43.096083999999536" lon="-1.2420580000000032">
        <ele>913.639</ele>
        <time>2022-08-24T08:33:09Z</time>
      </trkpt>
      <trkpt lat="43.09607099999953" lon="-1.2420650000000033">
        <ele>914.035</ele>
        <time>2022-08-24T08:33:10Z</time>
      </trkpt>
      <trkpt lat="43.09605799999953" lon="-1.2420740000000032">
        <ele>914.477</ele>
        <time>2022-08-24T08:33:11Z</time>
      </trkpt>
      <trkpt lat="43.09605199999953" lon="-1.2420780000000031">
        <ele>914.664</ele>
        <time>2022-08-24T08:33:12Z</time>
      </trkpt>
      <trkpt lat="43.09604099999953" lon="-1.2420830000000032">
        <ele>914.837</ele>
        <time>2022-08-24T08:33:13Z</time>
      </trkpt>
      <trkpt lat="43.09602999999953" lon="-1.242087000000003">
        <ele>914.831</ele>
        <time>2022-08-24T08:33:14Z</time>
      </trkpt>
      <trkpt lat="43.09601999999953" lon="-1.242091000000003">
        <ele>915.050</ele>
        <time>2022-08-24T08:33:15Z</time>
      </trkpt>
      <trkpt lat="43.096006999999524" lon="-1.2420950000000028">
        <ele>915.214</ele>
        <time>2022-08-24T08:33:16Z</time>
      </trkpt>
      <trkpt lat="43.09599699999952" lon="-1.2420980000000028">
        <ele>915.654</ele>
        <time>2022-08-24T08:33:17Z</time>
      </trkpt>
      <trkpt lat="43.09598399999952" lon="-1.2421010000000028">
        <ele>916.009</ele>
        <time>2022-08-24T08:33:18Z</time>
      </trkpt>
      <trkpt lat="43.09596699999952" lon="-1.2421080000000029">
        <ele>916.009</ele>
        <time>2022-08-24T08:33:19Z</time>
      </trkpt>
      <trkpt lat="43.095953999999516" lon="-1.242115000000003">
        <ele>916.422</ele>
        <time>2022-08-24T08:33:20Z</time>
      </trkpt>
      <trkpt lat="43.09594399999951" lon="-1.242118000000003">
        <ele>916.482</ele>
        <time>2022-08-24T08:33:21Z</time>
      </trkpt>
      <trkpt lat="43.09593399999951" lon="-1.242125000000003">
        <ele>916.442</ele>
        <time>2022-08-24T08:33:22Z</time>
      </trkpt>
      <trkpt lat="43.09592299999951" lon="-1.242133000000003">
        <ele>916.848</ele>
        <time>2022-08-24T08:33:23Z</time>
      </trkpt>
      <trkpt lat="43.09591199999951" lon="-1.2421400000000031">
        <ele>917.010</ele>
        <time>2022-08-24T08:33:24Z</time>
      </trkpt>
      <trkpt lat="43.09590099999951" lon="-1.242144000000003">
        <ele>917.067</ele>
        <time>2022-08-24T08:33:25Z</time>
      </trkpt>
      <trkpt lat="43.09588999999951" lon="-1.242149000000003">
        <ele>917.280</ele>
        <time>2022-08-24T08:33:26Z</time>
      </trkpt>
      <trkpt lat="43.095879999999504" lon="-1.2421510000000031">
        <ele>917.444</ele>
        <time>2022-08-24T08:33:27Z</time>
      </trkpt>
      <trkpt lat="43.0958689999995" lon="-1.242155000000003">
        <ele>917.413</ele>
        <time>2022-08-24T08:33:28Z</time>
      </trkpt>
      <trkpt lat="43.0958559999995" lon="-1.242164000000003">
        <ele>917.613</ele>
        <time>2022-08-24T08:33:29Z</time>
      </trkpt>
      <trkpt lat="43.0958439999995" lon="-1.2421730000000029">
        <ele>918.043</ele>
        <time>2022-08-24T08:33:30Z</time>
      </trkpt>
      <trkpt lat="43.095836999999506" lon="-1.2421840000000028">
        <ele>918.007</ele>
        <time>2022-08-24T08:33:31Z</time>
      </trkpt>
      <trkpt lat="43.0958269999995" lon="-1.2421890000000029">
        <ele>918.209</ele>
        <time>2022-08-24T08:33:32Z</time>
      </trkpt>
      <trkpt lat="43.0958159999995" lon="-1.2421930000000028">
        <ele>918.492</ele>
        <time>2022-08-24T08:33:33Z</time>
      </trkpt>
      <trkpt lat="43.095803999999504" lon="-1.2421950000000028">
        <ele>918.622</ele>
        <time>2022-08-24T08:33:34Z</time>
      </trkpt>
      <trkpt lat="43.095791999999506" lon="-1.2421980000000028">
        <ele>918.842</ele>
        <time>2022-08-24T08:33:35Z</time>
      </trkpt>
      <trkpt lat="43.09578299999951" lon="-1.242205000000003">
        <ele>919.058</ele>
        <time>2022-08-24T08:33:36Z</time>
      </trkpt>
      <trkpt lat="43.09577399999951" lon="-1.242215000000003">
        <ele>919.230</ele>
        <time>2022-08-24T08:33:37Z</time>
      </trkpt>
      <trkpt lat="43.09576299999951" lon="-1.242223000000003">
        <ele>919.237</ele>
        <time>2022-08-24T08:33:38Z</time>
      </trkpt>
      <trkpt lat="43.09575099999951" lon="-1.242226000000003">
        <ele>919.470</ele>
        <time>2022-08-24T08:33:39Z</time>
      </trkpt>
      <trkpt lat="43.09574299999951" lon="-1.2422300000000028">
        <ele>919.464</ele>
        <time>2022-08-24T08:33:40Z</time>
      </trkpt>
      <trkpt lat="43.09573499999951" lon="-1.2422360000000028">
        <ele>919.473</ele>
        <time>2022-08-24T08:33:41Z</time>
      </trkpt>
      <trkpt lat="43.095726999999506" lon="-1.2422440000000028">
        <ele>919.692</ele>
        <time>2022-08-24T08:33:42Z</time>
      </trkpt>
      <trkpt lat="43.09571799999951" lon="-1.2422500000000027">
        <ele>919.673</ele>
        <time>2022-08-24T08:33:43Z</time>
      </trkpt>
      <trkpt lat="43.09570599999951" lon="-1.2422560000000027">
        <ele>919.820</ele>
        <time>2022-08-24T08:33:44Z</time>
      </trkpt>
      <trkpt lat="43.09569699999951" lon="-1.2422620000000026">
        <ele>920.009</ele>
        <time>2022-08-24T08:33:45Z</time>
      </trkpt>
      <trkpt lat="43.09568899999951" lon="-1.2422650000000026">
        <ele>920.210</ele>
        <time>2022-08-24T08:33:46Z</time>
      </trkpt>
      <trkpt lat="43.09567799999951" lon="-1.2422690000000025">
        <ele>920.420</ele>
        <time>2022-08-24T08:33:47Z</time>
      </trkpt>
      <trkpt lat="43.09566599999951" lon="-1.2422710000000026">
        <ele>920.430</ele>
        <time>2022-08-24T08:33:48Z</time>
      </trkpt>
      <trkpt lat="43.09565299999951" lon="-1.2422760000000026">
        <ele>920.886</ele>
        <time>2022-08-24T08:33:49Z</time>
      </trkpt>
      <trkpt lat="43.095642999999505" lon="-1.2422820000000026">
        <ele>920.898</ele>
        <time>2022-08-24T08:33:50Z</time>
      </trkpt>
      <trkpt lat="43.09563399999951" lon="-1.2422870000000026">
        <ele>921.275</ele>
        <time>2022-08-24T08:33:51Z</time>
      </trkpt>
      <trkpt lat="43.09562199999951" lon="-1.2422920000000026">
        <ele>921.258</ele>
        <time>2022-08-24T08:33:52Z</time>
      </trkpt>
      <trkpt lat="43.09560999999951" lon="-1.2422990000000027">
        <ele>921.422</ele>
        <time>2022-08-24T08:33:53Z</time>
      </trkpt>
      <trkpt lat="43.09559999999951" lon="-1.2423080000000026">
        <ele>921.481</ele>
        <time>2022-08-24T08:33:54Z</time>
      </trkpt>
      <trkpt lat="43.09558799999951" lon="-1.2423160000000026">
        <ele>921.657</ele>
        <time>2022-08-24T08:33:55Z</time>
      </trkpt>
      <trkpt lat="43.095577999999506" lon="-1.2423210000000027">
        <ele>921.800</ele>
        <time>2022-08-24T08:33:56Z</time>
      </trkpt>
      <trkpt lat="43.0955679999995" lon="-1.2423230000000027">
        <ele>921.820</ele>
        <time>2022-08-24T08:33:57Z</time>
      </trkpt>
      <trkpt lat="43.095552999999505" lon="-1.2423260000000027">
        <ele>922.009</ele>
        <time>2022-08-24T08:33:58Z</time>
      </trkpt>
      <trkpt lat="43.0955339999995" lon="-1.2423310000000027">
        <ele>922.236</ele>
        <time>2022-08-24T08:33:59Z</time>
      </trkpt>
      <trkpt lat="43.0955209999995" lon="-1.2423390000000027">
        <ele>922.466</ele>
        <time>2022-08-24T08:34:00Z</time>
      </trkpt>
      <trkpt lat="43.0955119999995" lon="-1.2423480000000027">
        <ele>922.646</ele>
        <time>2022-08-24T08:34:01Z</time>
      </trkpt>
      <trkpt lat="43.0955039999995" lon="-1.2423570000000026">
        <ele>922.632</ele>
        <time>2022-08-24T08:34:02Z</time>
      </trkpt>
      <trkpt lat="43.0954939999995" lon="-1.2423660000000025">
        <ele>923.034</ele>
        <time>2022-08-24T08:34:03Z</time>
      </trkpt>
      <trkpt lat="43.095480999999495" lon="-1.2423730000000026">
        <ele>923.071</ele>
        <time>2022-08-24T08:34:04Z</time>
      </trkpt>
      <trkpt lat="43.09546799999949" lon="-1.2423760000000026">
        <ele>923.224</ele>
        <time>2022-08-24T08:34:05Z</time>
      </trkpt>
      <trkpt lat="43.09545699999949" lon="-1.2423770000000025">
        <ele>923.448</ele>
        <time>2022-08-24T08:34:06Z</time>
      </trkpt>
      <trkpt lat="43.09544099999949" lon="-1.2423770000000025">
        <ele>923.687</ele>
        <time>2022-08-24T08:34:07Z</time>
      </trkpt>
      <trkpt lat="43.09542499999949" lon="-1.2423780000000024">
        <ele>923.866</ele>
        <time>2022-08-24T08:34:08Z</time>
      </trkpt>
      <trkpt lat="43.095405999999485" lon="-1.2423830000000025">
        <ele>924.029</ele>
        <time>2022-08-24T08:34:09Z</time>
      </trkpt>
      <trkpt lat="43.09538999999948" lon="-1.2423870000000024">
        <ele>924.221</ele>
        <time>2022-08-24T08:34:10Z</time>
      </trkpt>
      <trkpt lat="43.09537899999948" lon="-1.2423860000000024">
        <ele>924.409</ele>
        <time>2022-08-24T08:34:11Z</time>
      </trkpt>
      <trkpt lat="43.095366999999484" lon="-1.2423840000000024">
        <ele>924.447</ele>
        <time>2022-08-24T08:34:12Z</time>
      </trkpt>
      <trkpt lat="43.095355999999484" lon="-1.2423840000000024">
        <ele>924.827</ele>
        <time>2022-08-24T08:34:13Z</time>
      </trkpt>
      <trkpt lat="43.095341999999484" lon="-1.2423840000000024">
        <ele>925.027</ele>
        <time>2022-08-24T08:34:14Z</time>
      </trkpt>
      <trkpt lat="43.09532899999948" lon="-1.2423860000000024">
        <ele>925.223</ele>
        <time>2022-08-24T08:34:15Z</time>
      </trkpt>
      <trkpt lat="43.09531699999948" lon="-1.2423860000000024">
        <ele>925.235</ele>
        <time>2022-08-24T08:34:16Z</time>
      </trkpt>
      <trkpt lat="43.09530299999948" lon="-1.2423880000000025">
        <ele>925.482</ele>
        <time>2022-08-24T08:34:17Z</time>
      </trkpt>
      <trkpt lat="43.09529199999948" lon="-1.2423930000000025">
        <ele>925.835</ele>
        <time>2022-08-24T08:34:18Z</time>
      </trkpt>
      <trkpt lat="43.09527899999948" lon="-1.2423960000000025">
        <ele>926.089</ele>
        <time>2022-08-24T08:34:19Z</time>
      </trkpt>
      <trkpt lat="43.09526399999948" lon="-1.2423980000000026">
        <ele>926.258</ele>
        <time>2022-08-24T08:34:20Z</time>
      </trkpt>
      <trkpt lat="43.09525299999948" lon="-1.2423990000000025">
        <ele>926.296</ele>
        <time>2022-08-24T08:34:21Z</time>
      </trkpt>
      <trkpt lat="43.09523999999948" lon="-1.2423970000000024">
        <ele>926.631</ele>
        <time>2022-08-24T08:34:22Z</time>
      </trkpt>
      <trkpt lat="43.09522599999948" lon="-1.2423980000000023">
        <ele>926.824</ele>
        <time>2022-08-24T08:34:23Z</time>
      </trkpt>
      <trkpt lat="43.09521399999948" lon="-1.2423990000000023">
        <ele>926.809</ele>
        <time>2022-08-24T08:34:24Z</time>
      </trkpt>
      <trkpt lat="43.09520299999948" lon="-1.2423990000000023">
        <ele>927.070</ele>
        <time>2022-08-24T08:34:25Z</time>
      </trkpt>
      <trkpt lat="43.09519599999948" lon="-1.2424030000000021">
        <ele>927.070</ele>
        <time>2022-08-24T08:34:26Z</time>
      </trkpt>
      <trkpt lat="43.095180999999485" lon="-1.2424050000000022">
        <ele>927.230</ele>
        <time>2022-08-24T08:34:27Z</time>
      </trkpt>
      <trkpt lat="43.09516599999949" lon="-1.2424060000000021">
        <ele>927.436</ele>
        <time>2022-08-24T08:34:28Z</time>
      </trkpt>
      <trkpt lat="43.09515199999949" lon="-1.2424050000000022">
        <ele>927.678</ele>
        <time>2022-08-24T08:34:29Z</time>
      </trkpt>
      <trkpt lat="43.09513999999949" lon="-1.2424050000000022">
        <ele>927.865</ele>
        <time>2022-08-24T08:34:30Z</time>
      </trkpt>
      <trkpt lat="43.09512899999949" lon="-1.2424060000000021">
        <ele>927.888</ele>
        <time>2022-08-24T08:34:31Z</time>
      </trkpt>
      <trkpt lat="43.095115999999486" lon="-1.2424060000000021">
        <ele>928.032</ele>
        <time>2022-08-24T08:34:32Z</time>
      </trkpt>
      <trkpt lat="43.095104999999485" lon="-1.2424030000000021">
        <ele>928.241</ele>
        <time>2022-08-24T08:34:33Z</time>
      </trkpt>
      <trkpt lat="43.09509299999949" lon="-1.2423990000000023">
        <ele>928.429</ele>
        <time>2022-08-24T08:34:34Z</time>
      </trkpt>
      <trkpt lat="43.095081999999486" lon="-1.2423950000000024">
        <ele>928.600</ele>
        <time>2022-08-24T08:34:35Z</time>
      </trkpt>
      <trkpt lat="43.095076999999485" lon="-1.2423930000000023">
        <ele>928.620</ele>
        <time>2022-08-24T08:34:36Z</time>
      </trkpt>
      <trkpt lat="43.09506699999948" lon="-1.2423940000000022">
        <ele>928.809</ele>
        <time>2022-08-24T08:34:37Z</time>
      </trkpt>
      <trkpt lat="43.09505599999948" lon="-1.2423970000000022">
        <ele>929.033</ele>
        <time>2022-08-24T08:34:38Z</time>
      </trkpt>
      <trkpt lat="43.09504099999948" lon="-1.2423980000000021">
        <ele>929.223</ele>
        <time>2022-08-24T08:34:39Z</time>
      </trkpt>
      <trkpt lat="43.095028999999485" lon="-1.2424000000000022">
        <ele>929.213</ele>
        <time>2022-08-24T08:34:40Z</time>
      </trkpt>
      <trkpt lat="43.09502199999949" lon="-1.2424000000000022">
        <ele>929.499</ele>
        <time>2022-08-24T08:34:41Z</time>
      </trkpt>
      <trkpt lat="43.095011999999485" lon="-1.2423990000000023">
        <ele>929.651</ele>
        <time>2022-08-24T08:34:42Z</time>
      </trkpt>
      <trkpt lat="43.09500199999948" lon="-1.2423950000000024">
        <ele>929.668</ele>
        <time>2022-08-24T08:34:43Z</time>
      </trkpt>
      <trkpt lat="43.09498899999948" lon="-1.2423910000000025">
        <ele>929.631</ele>
        <time>2022-08-24T08:34:44Z</time>
      </trkpt>
      <trkpt lat="43.09497599999948" lon="-1.2423890000000024">
        <ele>929.865</ele>
        <time>2022-08-24T08:34:45Z</time>
      </trkpt>
      <trkpt lat="43.094967999999476" lon="-1.2423840000000024">
        <ele>930.044</ele>
        <time>2022-08-24T08:34:46Z</time>
      </trkpt>
      <trkpt lat="43.094956999999475" lon="-1.2423770000000023">
        <ele>930.211</ele>
        <time>2022-08-24T08:34:47Z</time>
      </trkpt>
      <trkpt lat="43.09494399999947" lon="-1.2423720000000023">
        <ele>930.421</ele>
        <time>2022-08-24T08:34:48Z</time>
      </trkpt>
      <trkpt lat="43.09493899999947" lon="-1.2423710000000023">
        <ele>930.803</ele>
        <time>2022-08-24T08:34:49Z</time>
      </trkpt>
      <trkpt lat="43.09492799999947" lon="-1.2423700000000024">
        <ele>930.809</ele>
        <time>2022-08-24T08:34:50Z</time>
      </trkpt>
      <trkpt lat="43.09491599999947" lon="-1.2423680000000024">
        <ele>931.022</ele>
        <time>2022-08-24T08:34:51Z</time>
      </trkpt>
      <trkpt lat="43.09490499999947" lon="-1.2423670000000024">
        <ele>931.242</ele>
        <time>2022-08-24T08:34:52Z</time>
      </trkpt>
      <trkpt lat="43.09489299999947" lon="-1.2423670000000024">
        <ele>931.222</ele>
        <time>2022-08-24T08:34:53Z</time>
      </trkpt>
      <trkpt lat="43.09488199999947" lon="-1.2423660000000025">
        <ele>931.428</ele>
        <time>2022-08-24T08:34:54Z</time>
      </trkpt>
      <trkpt lat="43.094869999999474" lon="-1.2423630000000025">
        <ele>931.660</ele>
        <time>2022-08-24T08:34:55Z</time>
      </trkpt>
      <trkpt lat="43.094860999999476" lon="-1.2423600000000026">
        <ele>931.877</ele>
        <time>2022-08-24T08:34:56Z</time>
      </trkpt>
      <trkpt lat="43.09484899999948" lon="-1.2423600000000026">
        <ele>932.020</ele>
        <time>2022-08-24T08:34:57Z</time>
      </trkpt>
      <trkpt lat="43.09483799999948" lon="-1.2423600000000026">
        <ele>932.254</ele>
        <time>2022-08-24T08:34:58Z</time>
      </trkpt>
      <trkpt lat="43.094827999999474" lon="-1.2423550000000025">
        <ele>932.283</ele>
        <time>2022-08-24T08:34:59Z</time>
      </trkpt>
      <trkpt lat="43.09481499999947" lon="-1.2423540000000026">
        <ele>932.486</ele>
        <time>2022-08-24T08:35:00Z</time>
      </trkpt>
      <trkpt lat="43.09480199999947" lon="-1.2423520000000026">
        <ele>932.460</ele>
        <time>2022-08-24T08:35:01Z</time>
      </trkpt>
      <trkpt lat="43.094791999999465" lon="-1.2423460000000026">
        <ele>932.626</ele>
        <time>2022-08-24T08:35:02Z</time>
      </trkpt>
      <trkpt lat="43.094777999999465" lon="-1.2423390000000025">
        <ele>932.609</ele>
        <time>2022-08-24T08:35:03Z</time>
      </trkpt>
      <trkpt lat="43.09476499999946" lon="-1.2423400000000024">
        <ele>932.699</ele>
        <time>2022-08-24T08:35:04Z</time>
      </trkpt>
      <trkpt lat="43.09475099999946" lon="-1.2423420000000025">
        <ele>932.839</ele>
        <time>2022-08-24T08:35:05Z</time>
      </trkpt>
      <trkpt lat="43.094738999999464" lon="-1.2423450000000025">
        <ele>933.069</ele>
        <time>2022-08-24T08:35:06Z</time>
      </trkpt>
      <trkpt lat="43.094726999999466" lon="-1.2423450000000025">
        <ele>933.295</ele>
        <time>2022-08-24T08:35:07Z</time>
      </trkpt>
      <trkpt lat="43.094715999999465" lon="-1.2423430000000024">
        <ele>933.487</ele>
        <time>2022-08-24T08:35:08Z</time>
      </trkpt>
      <trkpt lat="43.09470599999946" lon="-1.2423420000000025">
        <ele>933.484</ele>
        <time>2022-08-24T08:35:09Z</time>
      </trkpt>
      <trkpt lat="43.09469499999946" lon="-1.2423410000000026">
        <ele>933.647</ele>
        <time>2022-08-24T08:35:10Z</time>
      </trkpt>
      <trkpt lat="43.09468199999946" lon="-1.2423410000000026">
        <ele>933.851</ele>
        <time>2022-08-24T08:35:11Z</time>
      </trkpt>
      <trkpt lat="43.09467099999946" lon="-1.2423420000000025">
        <ele>933.820</ele>
        <time>2022-08-24T08:35:12Z</time>
      </trkpt>
      <trkpt lat="43.09465399999946" lon="-1.2423410000000026">
        <ele>934.089</ele>
        <time>2022-08-24T08:35:13Z</time>
      </trkpt>
      <trkpt lat="43.09464199999946" lon="-1.2423400000000027">
        <ele>934.006</ele>
        <time>2022-08-24T08:35:14Z</time>
      </trkpt>
      <trkpt lat="43.09462999999946" lon="-1.2423400000000027">
        <ele>934.226</ele>
        <time>2022-08-24T08:35:15Z</time>
      </trkpt>
      <trkpt lat="43.09461899999946" lon="-1.2423380000000026">
        <ele>934.409</ele>
        <time>2022-08-24T08:35:16Z</time>
      </trkpt>
      <trkpt lat="43.09460899999946" lon="-1.2423360000000025">
        <ele>934.629</ele>
        <time>2022-08-24T08:35:17Z</time>
      </trkpt>
      <trkpt lat="43.09459699999946" lon="-1.2423350000000026">
        <ele>934.619</ele>
        <time>2022-08-24T08:35:18Z</time>
      </trkpt>
      <trkpt lat="43.09458299999946" lon="-1.2423350000000026">
        <ele>934.879</ele>
        <time>2022-08-24T08:35:19Z</time>
      </trkpt>
      <trkpt lat="43.09457199999946" lon="-1.2423310000000027">
        <ele>935.045</ele>
        <time>2022-08-24T08:35:20Z</time>
      </trkpt>
      <trkpt lat="43.09455899999946" lon="-1.2423320000000027">
        <ele>935.237</ele>
        <time>2022-08-24T08:35:21Z</time>
      </trkpt>
      <trkpt lat="43.09454899999945" lon="-1.2423320000000027">
        <ele>935.214</ele>
        <time>2022-08-24T08:35:22Z</time>
      </trkpt>
      <trkpt lat="43.094536999999455" lon="-1.2423300000000026">
        <ele>935.497</ele>
        <time>2022-08-24T08:35:23Z</time>
      </trkpt>
      <trkpt lat="43.09452499999946" lon="-1.2423280000000025">
        <ele>935.671</ele>
        <time>2022-08-24T08:35:24Z</time>
      </trkpt>
      <trkpt lat="43.09451099999946" lon="-1.2423280000000025">
        <ele>935.860</ele>
        <time>2022-08-24T08:35:25Z</time>
      </trkpt>
      <trkpt lat="43.09450699999946" lon="-1.2423260000000025">
        <ele>935.865</ele>
        <time>2022-08-24T08:35:26Z</time>
      </trkpt>
      <trkpt lat="43.09449499999946" lon="-1.2423250000000026">
        <ele>936.068</ele>
        <time>2022-08-24T08:35:27Z</time>
      </trkpt>
      <trkpt lat="43.094482999999464" lon="-1.2423220000000026">
        <ele>936.214</ele>
        <time>2022-08-24T08:35:28Z</time>
      </trkpt>
      <trkpt lat="43.09447299999946" lon="-1.2423240000000026">
        <ele>936.409</ele>
        <time>2022-08-24T08:35:29Z</time>
      </trkpt>
      <trkpt lat="43.09445899999946" lon="-1.2423260000000027">
        <ele>936.887</ele>
        <time>2022-08-24T08:35:30Z</time>
      </trkpt>
      <trkpt lat="43.09444799999946" lon="-1.2423270000000026">
        <ele>936.837</ele>
        <time>2022-08-24T08:35:31Z</time>
      </trkpt>
      <trkpt lat="43.09443399999946" lon="-1.2423300000000026">
        <ele>937.027</ele>
        <time>2022-08-24T08:35:32Z</time>
      </trkpt>
      <trkpt lat="43.09442299999946" lon="-1.2423320000000027">
        <ele>937.443</ele>
        <time>2022-08-24T08:35:33Z</time>
      </trkpt>
      <trkpt lat="43.09440899999946" lon="-1.2423330000000026">
        <ele>937.615</ele>
        <time>2022-08-24T08:35:34Z</time>
      </trkpt>
      <trkpt lat="43.09439399999946" lon="-1.2423310000000025">
        <ele>937.692</ele>
        <time>2022-08-24T08:35:35Z</time>
      </trkpt>
      <trkpt lat="43.09438099999946" lon="-1.2423310000000025">
        <ele>937.815</ele>
        <time>2022-08-24T08:35:36Z</time>
      </trkpt>
      <trkpt lat="43.09436899999946" lon="-1.2423320000000024">
        <ele>937.899</ele>
        <time>2022-08-24T08:35:37Z</time>
      </trkpt>
      <trkpt lat="43.09435699999946" lon="-1.2423340000000025">
        <ele>938.048</ele>
        <time>2022-08-24T08:35:38Z</time>
      </trkpt>
      <trkpt lat="43.094341999999465" lon="-1.2423340000000025">
        <ele>938.417</ele>
        <time>2022-08-24T08:35:39Z</time>
      </trkpt>
      <trkpt lat="43.094327999999464" lon="-1.2423340000000025">
        <ele>938.487</ele>
        <time>2022-08-24T08:35:40Z</time>
      </trkpt>
      <trkpt lat="43.094315999999466" lon="-1.2423380000000024">
        <ele>938.815</ele>
        <time>2022-08-24T08:35:41Z</time>
      </trkpt>
      <trkpt lat="43.09430099999947" lon="-1.2423430000000024">
        <ele>939.209</ele>
        <time>2022-08-24T08:35:42Z</time>
      </trkpt>
      <trkpt lat="43.094290999999465" lon="-1.2423460000000024">
        <ele>939.442</ele>
        <time>2022-08-24T08:35:43Z</time>
      </trkpt>
      <trkpt lat="43.09428099999946" lon="-1.2423480000000025">
        <ele>939.832</ele>
        <time>2022-08-24T08:35:44Z</time>
      </trkpt>
      <trkpt lat="43.09426999999946" lon="-1.2423520000000023">
        <ele>940.072</ele>
        <time>2022-08-24T08:35:45Z</time>
      </trkpt>
      <trkpt lat="43.09425699999946" lon="-1.2423540000000024">
        <ele>940.058</ele>
        <time>2022-08-24T08:35:46Z</time>
      </trkpt>
      <trkpt lat="43.094243999999456" lon="-1.2423580000000023">
        <ele>940.040</ele>
        <time>2022-08-24T08:35:47Z</time>
      </trkpt>
      <trkpt lat="43.09423199999946" lon="-1.2423610000000023">
        <ele>940.267</ele>
        <time>2022-08-24T08:35:48Z</time>
      </trkpt>
      <trkpt lat="43.094221999999455" lon="-1.2423640000000022">
        <ele>940.460</ele>
        <time>2022-08-24T08:35:49Z</time>
      </trkpt>
      <trkpt lat="43.094212999999456" lon="-1.2423670000000022">
        <ele>940.644</ele>
        <time>2022-08-24T08:35:50Z</time>
      </trkpt>
      <trkpt lat="43.094201999999456" lon="-1.2423680000000021">
        <ele>940.683</ele>
        <time>2022-08-24T08:35:51Z</time>
      </trkpt>
      <trkpt lat="43.09419499999946" lon="-1.2423700000000022">
        <ele>940.879</ele>
        <time>2022-08-24T08:35:52Z</time>
      </trkpt>
      <trkpt lat="43.094181999999456" lon="-1.2423750000000022">
        <ele>940.805</ele>
        <time>2022-08-24T08:35:53Z</time>
      </trkpt>
      <trkpt lat="43.09416499999946" lon="-1.2423810000000022">
        <ele>941.225</ele>
        <time>2022-08-24T08:35:54Z</time>
      </trkpt>
      <trkpt lat="43.094151999999454" lon="-1.2423810000000022">
        <ele>941.209</ele>
        <time>2022-08-24T08:35:55Z</time>
      </trkpt>
      <trkpt lat="43.094139999999456" lon="-1.242382000000002">
        <ele>941.448</ele>
        <time>2022-08-24T08:35:56Z</time>
      </trkpt>
      <trkpt lat="43.09412699999945" lon="-1.2423870000000021">
        <ele>941.668</ele>
        <time>2022-08-24T08:35:57Z</time>
      </trkpt>
      <trkpt lat="43.094114999999455" lon="-1.242390000000002">
        <ele>941.688</ele>
        <time>2022-08-24T08:35:58Z</time>
      </trkpt>
      <trkpt lat="43.09410199999945" lon="-1.242391000000002">
        <ele>941.834</ele>
        <time>2022-08-24T08:35:59Z</time>
      </trkpt>
      <trkpt lat="43.09408899999945" lon="-1.242389000000002">
        <ele>942.046</ele>
        <time>2022-08-24T08:36:00Z</time>
      </trkpt>
      <trkpt lat="43.09407699999945" lon="-1.242386000000002">
        <ele>942.463</ele>
        <time>2022-08-24T08:36:01Z</time>
      </trkpt>
      <trkpt lat="43.09406299999945" lon="-1.242387000000002">
        <ele>942.476</ele>
        <time>2022-08-24T08:36:02Z</time>
      </trkpt>
      <trkpt lat="43.09405199999945" lon="-1.242392000000002">
        <ele>942.680</ele>
        <time>2022-08-24T08:36:03Z</time>
      </trkpt>
      <trkpt lat="43.09403999999945" lon="-1.242397000000002">
        <ele>942.629</ele>
        <time>2022-08-24T08:36:04Z</time>
      </trkpt>
      <trkpt lat="43.09402599999945" lon="-1.242403000000002">
        <ele>943.045</ele>
        <time>2022-08-24T08:36:05Z</time>
      </trkpt>
      <trkpt lat="43.09401599999945" lon="-1.2424070000000018">
        <ele>943.247</ele>
        <time>2022-08-24T08:36:06Z</time>
      </trkpt>
      <trkpt lat="43.09400499999945" lon="-1.2424100000000018">
        <ele>943.211</ele>
        <time>2022-08-24T08:36:07Z</time>
      </trkpt>
      <trkpt lat="43.093994999999445" lon="-1.2424120000000018">
        <ele>943.609</ele>
        <time>2022-08-24T08:36:08Z</time>
      </trkpt>
      <trkpt lat="43.093980999999445" lon="-1.2424130000000018">
        <ele>943.655</ele>
        <time>2022-08-24T08:36:09Z</time>
      </trkpt>
      <trkpt lat="43.09396499999944" lon="-1.2424190000000017">
        <ele>943.855</ele>
        <time>2022-08-24T08:36:10Z</time>
      </trkpt>
      <trkpt lat="43.09395399999944" lon="-1.2424260000000018">
        <ele>943.815</ele>
        <time>2022-08-24T08:36:11Z</time>
      </trkpt>
      <trkpt lat="43.09393999999944" lon="-1.2424300000000017">
        <ele>944.021</ele>
        <time>2022-08-24T08:36:12Z</time>
      </trkpt>
      <trkpt lat="43.09392699999944" lon="-1.2424380000000017">
        <ele>944.243</ele>
        <time>2022-08-24T08:36:13Z</time>
      </trkpt>
      <trkpt lat="43.093916999999436" lon="-1.2424410000000017">
        <ele>944.210</ele>
        <time>2022-08-24T08:36:14Z</time>
      </trkpt>
      <trkpt lat="43.09390499999944" lon="-1.2424460000000017">
        <ele>944.443</ele>
        <time>2022-08-24T08:36:15Z</time>
      </trkpt>
      <trkpt lat="43.09388999999944" lon="-1.2424540000000017">
        <ele>944.627</ele>
        <time>2022-08-24T08:36:16Z</time>
      </trkpt>
      <trkpt lat="43.09388199999944" lon="-1.2424600000000017">
        <ele>944.636</ele>
        <time>2022-08-24T08:36:17Z</time>
      </trkpt>
      <trkpt lat="43.09386899999944" lon="-1.2424640000000016">
        <ele>944.835</ele>
        <time>2022-08-24T08:36:18Z</time>
      </trkpt>
      <trkpt lat="43.093857999999436" lon="-1.2424640000000016">
        <ele>945.086</ele>
        <time>2022-08-24T08:36:19Z</time>
      </trkpt>
      <trkpt lat="43.093846999999435" lon="-1.2424640000000016">
        <ele>945.214</ele>
        <time>2022-08-24T08:36:20Z</time>
      </trkpt>
      <trkpt lat="43.09383499999944" lon="-1.2424680000000015">
        <ele>945.209</ele>
        <time>2022-08-24T08:36:21Z</time>
      </trkpt>
      <trkpt lat="43.09381999999944" lon="-1.2424770000000014">
        <ele>945.474</ele>
        <time>2022-08-24T08:36:22Z</time>
      </trkpt>
      <trkpt lat="43.09380699999944" lon="-1.2424840000000015">
        <ele>945.434</ele>
        <time>2022-08-24T08:36:23Z</time>
      </trkpt>
      <trkpt lat="43.09379199999944" lon="-1.2424900000000014">
        <ele>945.614</ele>
        <time>2022-08-24T08:36:24Z</time>
      </trkpt>
      <trkpt lat="43.09377499999944" lon="-1.2424950000000015">
        <ele>945.860</ele>
        <time>2022-08-24T08:36:25Z</time>
      </trkpt>
      <trkpt lat="43.09375899999944" lon="-1.2425060000000014">
        <ele>946.052</ele>
        <time>2022-08-24T08:36:26Z</time>
      </trkpt>
      <trkpt lat="43.093745999999435" lon="-1.2425120000000014">
        <ele>946.229</ele>
        <time>2022-08-24T08:36:27Z</time>
      </trkpt>
      <trkpt lat="43.093734999999434" lon="-1.2425140000000015">
        <ele>946.482</ele>
        <time>2022-08-24T08:36:28Z</time>
      </trkpt>
      <trkpt lat="43.09372999999943" lon="-1.2425150000000014">
        <ele>946.416</ele>
        <time>2022-08-24T08:36:29Z</time>
      </trkpt>
      <trkpt lat="43.09371599999943" lon="-1.2425200000000014">
        <ele>946.675</ele>
        <time>2022-08-24T08:36:30Z</time>
      </trkpt>
      <trkpt lat="43.09370299999943" lon="-1.2425250000000014">
        <ele>946.665</ele>
        <time>2022-08-24T08:36:31Z</time>
      </trkpt>
      <trkpt lat="43.09369099999943" lon="-1.2425290000000013">
        <ele>946.868</ele>
        <time>2022-08-24T08:36:32Z</time>
      </trkpt>
      <trkpt lat="43.09367799999943" lon="-1.2425350000000013">
        <ele>946.814</ele>
        <time>2022-08-24T08:36:33Z</time>
      </trkpt>
      <trkpt lat="43.09366599999943" lon="-1.2425400000000013">
        <ele>947.009</ele>
        <time>2022-08-24T08:36:34Z</time>
      </trkpt>
      <trkpt lat="43.09364899999943" lon="-1.2425460000000013">
        <ele>947.027</ele>
        <time>2022-08-24T08:36:35Z</time>
      </trkpt>
      <trkpt lat="43.09363599999943" lon="-1.2425520000000012">
        <ele>947.287</ele>
        <time>2022-08-24T08:36:36Z</time>
      </trkpt>
      <trkpt lat="43.09362099999943" lon="-1.2425590000000013">
        <ele>947.617</ele>
        <time>2022-08-24T08:36:37Z</time>
      </trkpt>
      <trkpt lat="43.09360799999943" lon="-1.2425640000000013">
        <ele>947.693</ele>
        <time>2022-08-24T08:36:38Z</time>
      </trkpt>
      <trkpt lat="43.09360799999943" lon="-1.2425640000000013">
        <ele>947.825</ele>
        <time>2022-08-24T08:36:39Z</time>
      </trkpt>
      <trkpt lat="43.09359699999943" lon="-1.2425690000000014">
        <ele>948.062</ele>
        <time>2022-08-24T08:36:40Z</time>
      </trkpt>
      <trkpt lat="43.093580999999425" lon="-1.2425740000000014">
        <ele>948.245</ele>
        <time>2022-08-24T08:36:41Z</time>
      </trkpt>
      <trkpt lat="43.09356899999943" lon="-1.2425810000000015">
        <ele>948.239</ele>
        <time>2022-08-24T08:36:42Z</time>
      </trkpt>
      <trkpt lat="43.09355499999943" lon="-1.2425870000000014">
        <ele>948.478</ele>
        <time>2022-08-24T08:36:43Z</time>
      </trkpt>
      <trkpt lat="43.093538999999424" lon="-1.2425900000000014">
        <ele>948.816</ele>
        <time>2022-08-24T08:36:44Z</time>
      </trkpt>
      <trkpt lat="43.093526999999426" lon="-1.2425940000000013">
        <ele>948.876</ele>
        <time>2022-08-24T08:36:45Z</time>
      </trkpt>
      <trkpt lat="43.093509999999426" lon="-1.2426070000000013">
        <ele>949.013</ele>
        <time>2022-08-24T08:36:46Z</time>
      </trkpt>
      <trkpt lat="43.09349799999943" lon="-1.2426170000000014">
        <ele>949.009</ele>
        <time>2022-08-24T08:36:47Z</time>
      </trkpt>
      <trkpt lat="43.09348299999943" lon="-1.2426300000000015">
        <ele>949.482</ele>
        <time>2022-08-24T08:36:48Z</time>
      </trkpt>
      <trkpt lat="43.09346699999943" lon="-1.2426470000000014">
        <ele>949.422</ele>
        <time>2022-08-24T08:36:49Z</time>
      </trkpt>
      <trkpt lat="43.093453999999426" lon="-1.2426580000000014">
        <ele>949.692</ele>
        <time>2022-08-24T08:36:50Z</time>
      </trkpt>
      <trkpt lat="43.09343599999943" lon="-1.2426690000000014">
        <ele>949.638</ele>
        <time>2022-08-24T08:36:51Z</time>
      </trkpt>
      <trkpt lat="43.09342199999943" lon="-1.2426760000000014">
        <ele>949.810</ele>
        <time>2022-08-24T08:36:52Z</time>
      </trkpt>
      <trkpt lat="43.09340699999943" lon="-1.2426830000000015">
        <ele>950.037</ele>
        <time>2022-08-24T08:36:53Z</time>
      </trkpt>
      <trkpt lat="43.09339599999943" lon="-1.2426900000000016">
        <ele>950.040</ele>
        <time>2022-08-24T08:36:54Z</time>
      </trkpt>
      <trkpt lat="43.09338099999943" lon="-1.2426970000000017">
        <ele>950.264</ele>
        <time>2022-08-24T08:36:55Z</time>
      </trkpt>
      <trkpt lat="43.093365999999435" lon="-1.2427060000000016">
        <ele>950.263</ele>
        <time>2022-08-24T08:36:56Z</time>
      </trkpt>
      <trkpt lat="43.093351999999435" lon="-1.2427160000000017">
        <ele>950.267</ele>
        <time>2022-08-24T08:36:57Z</time>
      </trkpt>
      <trkpt lat="43.093339999999436" lon="-1.2427210000000017">
        <ele>950.481</ele>
        <time>2022-08-24T08:36:58Z</time>
      </trkpt>
      <trkpt lat="43.093325999999436" lon="-1.2427250000000016">
        <ele>950.419</ele>
        <time>2022-08-24T08:36:59Z</time>
      </trkpt>
      <trkpt lat="43.093311999999436" lon="-1.2427310000000016">
        <ele>950.609</ele>
        <time>2022-08-24T08:37:00Z</time>
      </trkpt>
      <trkpt lat="43.09329899999943" lon="-1.2427420000000016">
        <ele>950.827</ele>
        <time>2022-08-24T08:37:01Z</time>
      </trkpt>
      <trkpt lat="43.093283999999436" lon="-1.2427490000000017">
        <ele>951.077</ele>
        <time>2022-08-24T08:37:02Z</time>
      </trkpt>
      <trkpt lat="43.09327099999943" lon="-1.2427560000000017">
        <ele>951.267</ele>
        <time>2022-08-24T08:37:03Z</time>
      </trkpt>
      <trkpt lat="43.09325799999943" lon="-1.2427650000000017">
        <ele>951.453</ele>
        <time>2022-08-24T08:37:04Z</time>
      </trkpt>
      <trkpt lat="43.09324799999943" lon="-1.2427720000000018">
        <ele>951.665</ele>
        <time>2022-08-24T08:37:05Z</time>
      </trkpt>
      <trkpt lat="43.09323399999943" lon="-1.2427790000000019">
        <ele>951.862</ele>
        <time>2022-08-24T08:37:06Z</time>
      </trkpt>
      <trkpt lat="43.093220999999424" lon="-1.2427880000000018">
        <ele>952.065</ele>
        <time>2022-08-24T08:37:07Z</time>
      </trkpt>
      <trkpt lat="43.093206999999424" lon="-1.2427970000000017">
        <ele>952.239</ele>
        <time>2022-08-24T08:37:08Z</time>
      </trkpt>
      <trkpt lat="43.09319399999942" lon="-1.2428050000000017">
        <ele>952.288</ele>
        <time>2022-08-24T08:37:09Z</time>
      </trkpt>
      <trkpt lat="43.093178999999424" lon="-1.2428130000000017">
        <ele>952.271</ele>
        <time>2022-08-24T08:37:10Z</time>
      </trkpt>
      <trkpt lat="43.09316599999942" lon="-1.2428210000000017">
        <ele>952.441</ele>
        <time>2022-08-24T08:37:11Z</time>
      </trkpt>
      <trkpt lat="43.09314999999942" lon="-1.2428290000000017">
        <ele>952.415</ele>
        <time>2022-08-24T08:37:12Z</time>
      </trkpt>
      <trkpt lat="43.09313199999942" lon="-1.2428390000000018">
        <ele>952.409</ele>
        <time>2022-08-24T08:37:13Z</time>
      </trkpt>
      <trkpt lat="43.09312099999942" lon="-1.2428450000000018">
        <ele>952.678</ele>
        <time>2022-08-24T08:37:14Z</time>
      </trkpt>
      <trkpt lat="43.09310599999942" lon="-1.2428540000000017">
        <ele>952.878</ele>
        <time>2022-08-24T08:37:15Z</time>
      </trkpt>
      <trkpt lat="43.09309299999942" lon="-1.2428630000000016">
        <ele>952.888</ele>
        <time>2022-08-24T08:37:16Z</time>
      </trkpt>
      <trkpt lat="43.09307799999942" lon="-1.2428730000000017">
        <ele>953.034</ele>
        <time>2022-08-24T08:37:17Z</time>
      </trkpt>
      <trkpt lat="43.09305899999942" lon="-1.2428830000000017">
        <ele>953.066</ele>
        <time>2022-08-24T08:37:18Z</time>
      </trkpt>
      <trkpt lat="43.093037999999424" lon="-1.2428910000000017">
        <ele>953.083</ele>
        <time>2022-08-24T08:37:19Z</time>
      </trkpt>
      <trkpt lat="43.09302199999942" lon="-1.2428940000000017">
        <ele>953.216</ele>
        <time>2022-08-24T08:37:20Z</time>
      </trkpt>
      <trkpt lat="43.093003999999425" lon="-1.2429030000000016">
        <ele>953.430</ele>
        <time>2022-08-24T08:37:21Z</time>
      </trkpt>
      <trkpt lat="43.09298899999943" lon="-1.2429070000000015">
        <ele>953.439</ele>
        <time>2022-08-24T08:37:22Z</time>
      </trkpt>
      <trkpt lat="43.092972999999425" lon="-1.2429140000000016">
        <ele>953.643</ele>
        <time>2022-08-24T08:37:23Z</time>
      </trkpt>
      <trkpt lat="43.092958999999425" lon="-1.2429190000000017">
        <ele>953.864</ele>
        <time>2022-08-24T08:37:24Z</time>
      </trkpt>
      <trkpt lat="43.09294099999943" lon="-1.2429270000000017">
        <ele>953.810</ele>
        <time>2022-08-24T08:37:25Z</time>
      </trkpt>
      <trkpt lat="43.09292599999943" lon="-1.2429370000000017">
        <ele>954.009</ele>
        <time>2022-08-24T08:37:26Z</time>
      </trkpt>
      <trkpt lat="43.09291199999943" lon="-1.2429450000000017">
        <ele>954.225</ele>
        <time>2022-08-24T08:37:27Z</time>
      </trkpt>
      <trkpt lat="43.09289799999943" lon="-1.2429560000000017">
        <ele>954.495</ele>
        <time>2022-08-24T08:37:28Z</time>
      </trkpt>
      <trkpt lat="43.09288199999943" lon="-1.2429700000000017">
        <ele>954.455</ele>
        <time>2022-08-24T08:37:29Z</time>
      </trkpt>
      <trkpt lat="43.09286999999943" lon="-1.2429800000000018">
        <ele>954.431</ele>
        <time>2022-08-24T08:37:30Z</time>
      </trkpt>
      <trkpt lat="43.09285599999943" lon="-1.2429910000000017">
        <ele>954.643</ele>
        <time>2022-08-24T08:37:31Z</time>
      </trkpt>
      <trkpt lat="43.09284199999943" lon="-1.2430020000000017">
        <ele>954.880</ele>
        <time>2022-08-24T08:37:32Z</time>
      </trkpt>
      <trkpt lat="43.09282799999943" lon="-1.2430130000000017">
        <ele>954.833</ele>
        <time>2022-08-24T08:37:33Z</time>
      </trkpt>
      <trkpt lat="43.09281199999943" lon="-1.2430250000000016">
        <ele>954.827</ele>
        <time>2022-08-24T08:37:34Z</time>
      </trkpt>
      <trkpt lat="43.09279699999943" lon="-1.2430360000000016">
        <ele>955.036</ele>
        <time>2022-08-24T08:37:35Z</time>
      </trkpt>
      <trkpt lat="43.09277999999943" lon="-1.2430430000000017">
        <ele>955.084</ele>
        <time>2022-08-24T08:37:36Z</time>
      </trkpt>
      <trkpt lat="43.09276399999943" lon="-1.2430490000000016">
        <ele>955.207</ele>
        <time>2022-08-24T08:37:37Z</time>
      </trkpt>
      <trkpt lat="43.092744999999425" lon="-1.2430600000000016">
        <ele>955.417</ele>
        <time>2022-08-24T08:37:38Z</time>
      </trkpt>
      <trkpt lat="43.09272599999942" lon="-1.2430740000000016">
        <ele>955.409</ele>
        <time>2022-08-24T08:37:39Z</time>
      </trkpt>
      <trkpt lat="43.092707999999426" lon="-1.2430870000000016">
        <ele>955.459</ele>
        <time>2022-08-24T08:37:40Z</time>
      </trkpt>
      <trkpt lat="43.09269299999943" lon="-1.2430980000000016">
        <ele>955.679</ele>
        <time>2022-08-24T08:37:41Z</time>
      </trkpt>
      <trkpt lat="43.09267899999943" lon="-1.2431100000000015">
        <ele>955.649</ele>
        <time>2022-08-24T08:37:42Z</time>
      </trkpt>
      <trkpt lat="43.092662999999426" lon="-1.2431240000000015">
        <ele>955.635</ele>
        <time>2022-08-24T08:37:43Z</time>
      </trkpt>
      <trkpt lat="43.09264799999943" lon="-1.2431340000000015">
        <ele>955.857</ele>
        <time>2022-08-24T08:37:44Z</time>
      </trkpt>
      <trkpt lat="43.09263299999943" lon="-1.2431410000000016">
        <ele>955.834</ele>
        <time>2022-08-24T08:37:45Z</time>
      </trkpt>
      <trkpt lat="43.09261999999943" lon="-1.2431520000000016">
        <ele>956.087</ele>
        <time>2022-08-24T08:37:46Z</time>
      </trkpt>
      <trkpt lat="43.09260499999943" lon="-1.2431610000000015">
        <ele>956.061</ele>
        <time>2022-08-24T08:37:47Z</time>
      </trkpt>
      <trkpt lat="43.09259199999943" lon="-1.2431750000000015">
        <ele>956.270</ele>
        <time>2022-08-24T08:37:48Z</time>
      </trkpt>
      <trkpt lat="43.09257799999943" lon="-1.2431870000000014">
        <ele>956.278</ele>
        <time>2022-08-24T08:37:49Z</time>
      </trkpt>
      <trkpt lat="43.09256299999943" lon="-1.2431980000000014">
        <ele>956.233</ele>
        <time>2022-08-24T08:37:50Z</time>
      </trkpt>
      <trkpt lat="43.09254699999943" lon="-1.2432070000000013">
        <ele>956.626</ele>
        <time>2022-08-24T08:37:51Z</time>
      </trkpt>
      <trkpt lat="43.09254299999943" lon="-1.2432130000000012">
        <ele>956.609</ele>
        <time>2022-08-24T08:37:52Z</time>
      </trkpt>
      <trkpt lat="43.09253099999943" lon="-1.2432220000000012">
        <ele>956.888</ele>
        <time>2022-08-24T08:37:53Z</time>
      </trkpt>
      <trkpt lat="43.09251699999943" lon="-1.2432350000000012">
        <ele>956.838</ele>
        <time>2022-08-24T08:37:54Z</time>
      </trkpt>
      <trkpt lat="43.09250399999943" lon="-1.243247000000001">
        <ele>957.068</ele>
        <time>2022-08-24T08:37:55Z</time>
      </trkpt>
      <trkpt lat="43.09249199999943" lon="-1.2432600000000011">
        <ele>957.014</ele>
        <time>2022-08-24T08:37:56Z</time>
      </trkpt>
      <trkpt lat="43.09247999999943" lon="-1.2432730000000012">
        <ele>957.216</ele>
        <time>2022-08-24T08:37:57Z</time>
      </trkpt>
      <trkpt lat="43.09246699999943" lon="-1.243285000000001">
        <ele>957.433</ele>
        <time>2022-08-24T08:37:58Z</time>
      </trkpt>
      <trkpt lat="43.09245499999943" lon="-1.243296000000001">
        <ele>957.426</ele>
        <time>2022-08-24T08:37:59Z</time>
      </trkpt>
      <trkpt lat="43.09244499999943" lon="-1.243305000000001">
        <ele>957.660</ele>
        <time>2022-08-24T08:38:00Z</time>
      </trkpt>
      <trkpt lat="43.09243599999943" lon="-1.243312000000001">
        <ele>957.829</ele>
        <time>2022-08-24T08:38:01Z</time>
      </trkpt>
      <trkpt lat="43.09242499999943" lon="-1.243320000000001">
        <ele>958.051</ele>
        <time>2022-08-24T08:38:02Z</time>
      </trkpt>
      <trkpt lat="43.09241399999943" lon="-1.243331000000001">
        <ele>958.201</ele>
        <time>2022-08-24T08:38:03Z</time>
      </trkpt>
      <trkpt lat="43.09240299999943" lon="-1.243340000000001">
        <ele>958.411</ele>
        <time>2022-08-24T08:38:04Z</time>
      </trkpt>
      <trkpt lat="43.09239099999943" lon="-1.243350000000001">
        <ele>958.409</ele>
        <time>2022-08-24T08:38:05Z</time>
      </trkpt>
      <trkpt lat="43.09237999999943" lon="-1.243359000000001">
        <ele>958.656</ele>
        <time>2022-08-24T08:38:06Z</time>
      </trkpt>
      <trkpt lat="43.09236799999943" lon="-1.243371000000001">
        <ele>958.666</ele>
        <time>2022-08-24T08:38:07Z</time>
      </trkpt>
      <trkpt lat="43.092355999999434" lon="-1.243381000000001">
        <ele>958.686</ele>
        <time>2022-08-24T08:38:08Z</time>
      </trkpt>
      <trkpt lat="43.09234299999943" lon="-1.243392000000001">
        <ele>958.672</ele>
        <time>2022-08-24T08:38:09Z</time>
      </trkpt>
      <trkpt lat="43.09233199999943" lon="-1.2434040000000008">
        <ele>958.834</ele>
        <time>2022-08-24T08:38:10Z</time>
      </trkpt>
      <trkpt lat="43.09232199999943" lon="-1.2434160000000007">
        <ele>958.841</ele>
        <time>2022-08-24T08:38:11Z</time>
      </trkpt>
      <trkpt lat="43.09231299999943" lon="-1.2434280000000006">
        <ele>959.064</ele>
        <time>2022-08-24T08:38:12Z</time>
      </trkpt>
      <trkpt lat="43.09230199999943" lon="-1.2434410000000007">
        <ele>959.258</ele>
        <time>2022-08-24T08:38:13Z</time>
      </trkpt>
      <trkpt lat="43.09228999999943" lon="-1.2434520000000007">
        <ele>959.237</ele>
        <time>2022-08-24T08:38:14Z</time>
      </trkpt>
      <trkpt lat="43.09227799999943" lon="-1.2434620000000007">
        <ele>959.466</ele>
        <time>2022-08-24T08:38:15Z</time>
      </trkpt>
      <trkpt lat="43.09226799999943" lon="-1.2434710000000007">
        <ele>959.429</ele>
        <time>2022-08-24T08:38:16Z</time>
      </trkpt>
      <trkpt lat="43.09225399999943" lon="-1.2434840000000007">
        <ele>959.621</ele>
        <time>2022-08-24T08:38:17Z</time>
      </trkpt>
      <trkpt lat="43.092243999999425" lon="-1.2434940000000008">
        <ele>959.609</ele>
        <time>2022-08-24T08:38:18Z</time>
      </trkpt>
      <trkpt lat="43.09223399999942" lon="-1.2435040000000008">
        <ele>959.887</ele>
        <time>2022-08-24T08:38:19Z</time>
      </trkpt>
      <trkpt lat="43.09222299999942" lon="-1.2435150000000008">
        <ele>959.827</ele>
        <time>2022-08-24T08:38:20Z</time>
      </trkpt>
      <trkpt lat="43.09221399999942" lon="-1.2435240000000007">
        <ele>960.267</ele>
        <time>2022-08-24T08:38:21Z</time>
      </trkpt>
      <trkpt lat="43.09220299999942" lon="-1.2435370000000008">
        <ele>960.273</ele>
        <time>2022-08-24T08:38:22Z</time>
      </trkpt>
      <trkpt lat="43.092187999999425" lon="-1.2435500000000008">
        <ele>960.485</ele>
        <time>2022-08-24T08:38:23Z</time>
      </trkpt>
      <trkpt lat="43.09217799999942" lon="-1.243557000000001">
        <ele>960.432</ele>
        <time>2022-08-24T08:38:24Z</time>
      </trkpt>
      <trkpt lat="43.09216199999942" lon="-1.243565000000001">
        <ele>960.635</ele>
        <time>2022-08-24T08:38:25Z</time>
      </trkpt>
      <trkpt lat="43.09214699999942" lon="-1.243575000000001">
        <ele>960.649</ele>
        <time>2022-08-24T08:38:26Z</time>
      </trkpt>
      <trkpt lat="43.09213299999942" lon="-1.243583000000001">
        <ele>960.838</ele>
        <time>2022-08-24T08:38:27Z</time>
      </trkpt>
      <trkpt lat="43.09211999999942" lon="-1.243589000000001">
        <ele>961.078</ele>
        <time>2022-08-24T08:38:28Z</time>
      </trkpt>
      <trkpt lat="43.092106999999416" lon="-1.243597000000001">
        <ele>961.233</ele>
        <time>2022-08-24T08:38:29Z</time>
      </trkpt>
      <trkpt lat="43.09209399999941" lon="-1.243610000000001">
        <ele>961.426</ele>
        <time>2022-08-24T08:38:30Z</time>
      </trkpt>
      <trkpt lat="43.09208099999941" lon="-1.243626000000001">
        <ele>961.609</ele>
        <time>2022-08-24T08:38:31Z</time>
      </trkpt>
      <trkpt lat="43.09206899999941" lon="-1.243641000000001">
        <ele>961.848</ele>
        <time>2022-08-24T08:38:32Z</time>
      </trkpt>
      <trkpt lat="43.092056999999414" lon="-1.243655000000001">
        <ele>962.238</ele>
        <time>2022-08-24T08:38:33Z</time>
      </trkpt>
      <trkpt lat="43.092044999999416" lon="-1.2436650000000011">
        <ele>962.428</ele>
        <time>2022-08-24T08:38:34Z</time>
      </trkpt>
      <trkpt lat="43.09203299999942" lon="-1.2436750000000012">
        <ele>962.684</ele>
        <time>2022-08-24T08:38:35Z</time>
      </trkpt>
      <trkpt lat="43.09202099999942" lon="-1.2436820000000013">
        <ele>963.046</ele>
        <time>2022-08-24T08:38:36Z</time>
      </trkpt>
      <trkpt lat="43.09201299999942" lon="-1.2436870000000013">
        <ele>963.273</ele>
        <time>2022-08-24T08:38:37Z</time>
      </trkpt>
      <trkpt lat="43.09200199999942" lon="-1.2436950000000013">
        <ele>963.886</ele>
        <time>2022-08-24T08:38:38Z</time>
      </trkpt>
      <trkpt lat="43.09199699999942" lon="-1.2437000000000014">
        <ele>963.870</ele>
        <time>2022-08-24T08:38:39Z</time>
      </trkpt>
      <trkpt lat="43.09198499999942" lon="-1.2437070000000015">
        <ele>964.269</ele>
        <time>2022-08-24T08:38:40Z</time>
      </trkpt>
      <trkpt lat="43.09197699999942" lon="-1.2437150000000015">
        <ele>964.224</ele>
        <time>2022-08-24T08:38:41Z</time>
      </trkpt>
      <trkpt lat="43.09196999999942" lon="-1.2437240000000014">
        <ele>964.404</ele>
        <time>2022-08-24T08:38:42Z</time>
      </trkpt>
      <trkpt lat="43.09195699999942" lon="-1.2437340000000014">
        <ele>964.414</ele>
        <time>2022-08-24T08:38:43Z</time>
      </trkpt>
      <trkpt lat="43.091943999999415" lon="-1.2437430000000014">
        <ele>964.409</ele>
        <time>2022-08-24T08:38:44Z</time>
      </trkpt>
      <trkpt lat="43.09193099999941" lon="-1.2437490000000013">
        <ele>964.623</ele>
        <time>2022-08-24T08:38:45Z</time>
      </trkpt>
      <trkpt lat="43.09191399999941" lon="-1.2437560000000014">
        <ele>964.693</ele>
        <time>2022-08-24T08:38:46Z</time>
      </trkpt>
      <trkpt lat="43.09189699999941" lon="-1.2437660000000015">
        <ele>964.633</ele>
        <time>2022-08-24T08:38:47Z</time>
      </trkpt>
      <trkpt lat="43.09188399999941" lon="-1.2437730000000016">
        <ele>964.629</ele>
        <time>2022-08-24T08:38:48Z</time>
      </trkpt>
      <trkpt lat="43.09187099999941" lon="-1.2437810000000016">
        <ele>964.651</ele>
        <time>2022-08-24T08:38:49Z</time>
      </trkpt>
      <trkpt lat="43.091857999999405" lon="-1.2437870000000015">
        <ele>964.878</ele>
        <time>2022-08-24T08:38:50Z</time>
      </trkpt>
      <trkpt lat="43.091846999999404" lon="-1.2437920000000016">
        <ele>964.861</ele>
        <time>2022-08-24T08:38:51Z</time>
      </trkpt>
      <trkpt lat="43.091835999999404" lon="-1.2437990000000017">
        <ele>965.085</ele>
        <time>2022-08-24T08:38:52Z</time>
      </trkpt>
      <trkpt lat="43.0918199999994" lon="-1.2438110000000016">
        <ele>965.054</ele>
        <time>2022-08-24T08:38:53Z</time>
      </trkpt>
      <trkpt lat="43.0918099999994" lon="-1.2438180000000016">
        <ele>965.032</ele>
        <time>2022-08-24T08:38:54Z</time>
      </trkpt>
      <trkpt lat="43.0917949999994" lon="-1.2438280000000017">
        <ele>965.292</ele>
        <time>2022-08-24T08:38:55Z</time>
      </trkpt>
      <trkpt lat="43.0917819999994" lon="-1.2438350000000018">
        <ele>965.211</ele>
        <time>2022-08-24T08:38:56Z</time>
      </trkpt>
      <trkpt lat="43.091768999999395" lon="-1.2438430000000018">
        <ele>965.409</ele>
        <time>2022-08-24T08:38:57Z</time>
      </trkpt>
      <trkpt lat="43.091754999999395" lon="-1.2438510000000018">
        <ele>965.454</ele>
        <time>2022-08-24T08:38:58Z</time>
      </trkpt>
      <trkpt lat="43.0917399999994" lon="-1.2438640000000019">
        <ele>965.654</ele>
        <time>2022-08-24T08:38:59Z</time>
      </trkpt>
      <trkpt lat="43.0917259999994" lon="-1.2438750000000018">
        <ele>965.884</ele>
        <time>2022-08-24T08:39:00Z</time>
      </trkpt>
      <trkpt lat="43.0917139999994" lon="-1.2438800000000019">
        <ele>965.830</ele>
        <time>2022-08-24T08:39:01Z</time>
      </trkpt>
      <trkpt lat="43.0916999999994" lon="-1.243885000000002">
        <ele>966.022</ele>
        <time>2022-08-24T08:39:02Z</time>
      </trkpt>
      <trkpt lat="43.0916859999994" lon="-1.2438910000000019">
        <ele>966.029</ele>
        <time>2022-08-24T08:39:03Z</time>
      </trkpt>
      <trkpt lat="43.0916719999994" lon="-1.2438970000000018">
        <ele>966.282</ele>
        <time>2022-08-24T08:39:04Z</time>
      </trkpt>
      <trkpt lat="43.0916599999994" lon="-1.2439020000000018">
        <ele>966.436</ele>
        <time>2022-08-24T08:39:05Z</time>
      </trkpt>
      <trkpt lat="43.0916479999994" lon="-1.2439060000000017">
        <ele>966.495</ele>
        <time>2022-08-24T08:39:06Z</time>
      </trkpt>
      <trkpt lat="43.0916349999994" lon="-1.2439150000000017">
        <ele>966.646</ele>
        <time>2022-08-24T08:39:07Z</time>
      </trkpt>
      <trkpt lat="43.0916199999994" lon="-1.2439250000000017">
        <ele>966.688</ele>
        <time>2022-08-24T08:39:08Z</time>
      </trkpt>
      <trkpt lat="43.0916069999994" lon="-1.2439340000000016">
        <ele>966.616</ele>
        <time>2022-08-24T08:39:09Z</time>
      </trkpt>
      <trkpt lat="43.0915919999994" lon="-1.2439480000000016">
        <ele>966.609</ele>
        <time>2022-08-24T08:39:10Z</time>
      </trkpt>
      <trkpt lat="43.091576999999404" lon="-1.2439560000000016">
        <ele>966.875</ele>
        <time>2022-08-24T08:39:11Z</time>
      </trkpt>
      <trkpt lat="43.0915639999994" lon="-1.2439620000000016">
        <ele>966.855</ele>
        <time>2022-08-24T08:39:12Z</time>
      </trkpt>
      <trkpt lat="43.0915519999994" lon="-1.2439680000000015">
        <ele>967.025</ele>
        <time>2022-08-24T08:39:13Z</time>
      </trkpt>
      <trkpt lat="43.0915379999994" lon="-1.2439720000000014">
        <ele>967.081</ele>
        <time>2022-08-24T08:39:14Z</time>
      </trkpt>
      <trkpt lat="43.0915249999994" lon="-1.2439740000000015">
        <ele>967.263</ele>
        <time>2022-08-24T08:39:15Z</time>
      </trkpt>
      <trkpt lat="43.0915079999994" lon="-1.2439770000000014">
        <ele>967.480</ele>
        <time>2022-08-24T08:39:16Z</time>
      </trkpt>
      <trkpt lat="43.0914929999994" lon="-1.2439800000000014">
        <ele>967.643</ele>
        <time>2022-08-24T08:39:17Z</time>
      </trkpt>
      <trkpt lat="43.091480999999405" lon="-1.2439870000000015">
        <ele>967.697</ele>
        <time>2022-08-24T08:39:18Z</time>
      </trkpt>
      <trkpt lat="43.091466999999405" lon="-1.2439920000000015">
        <ele>967.856</ele>
        <time>2022-08-24T08:39:19Z</time>
      </trkpt>
      <trkpt lat="43.09145199999941" lon="-1.2439980000000015">
        <ele>967.828</ele>
        <time>2022-08-24T08:39:20Z</time>
      </trkpt>
      <trkpt lat="43.09143699999941" lon="-1.2440050000000016">
        <ele>967.889</ele>
        <time>2022-08-24T08:39:21Z</time>
      </trkpt>
      <trkpt lat="43.09142299999941" lon="-1.2440090000000015">
        <ele>968.017</ele>
        <time>2022-08-24T08:39:22Z</time>
      </trkpt>
      <trkpt lat="43.09140999999941" lon="-1.2440140000000015">
        <ele>968.409</ele>
        <time>2022-08-24T08:39:23Z</time>
      </trkpt>
      <trkpt lat="43.09139499999941" lon="-1.2440200000000015">
        <ele>968.823</ele>
        <time>2022-08-24T08:39:24Z</time>
      </trkpt>
      <trkpt lat="43.091381999999406" lon="-1.2440240000000014">
        <ele>969.023</ele>
        <time>2022-08-24T08:39:25Z</time>
      </trkpt>
      <trkpt lat="43.09136699999941" lon="-1.2440290000000014">
        <ele>969.433</ele>
        <time>2022-08-24T08:39:26Z</time>
      </trkpt>
      <trkpt lat="43.09135199999941" lon="-1.2440360000000015">
        <ele>969.469</ele>
        <time>2022-08-24T08:39:27Z</time>
      </trkpt>
      <trkpt lat="43.09133799999941" lon="-1.2440450000000014">
        <ele>969.671</ele>
        <time>2022-08-24T08:39:28Z</time>
      </trkpt>
      <trkpt lat="43.09132299999941" lon="-1.2440530000000014">
        <ele>970.048</ele>
        <time>2022-08-24T08:39:29Z</time>
      </trkpt>
      <trkpt lat="43.09130999999941" lon="-1.2440580000000014">
        <ele>970.051</ele>
        <time>2022-08-24T08:39:30Z</time>
      </trkpt>
      <trkpt lat="43.09129899999941" lon="-1.2440560000000014">
        <ele>970.285</ele>
        <time>2022-08-24T08:39:31Z</time>
      </trkpt>
      <trkpt lat="43.09128499999941" lon="-1.2440590000000014">
        <ele>970.254</ele>
        <time>2022-08-24T08:39:32Z</time>
      </trkpt>
      <trkpt lat="43.09127099999941" lon="-1.2440650000000013">
        <ele>970.454</ele>
        <time>2022-08-24T08:39:33Z</time>
      </trkpt>
      <trkpt lat="43.09125599999941" lon="-1.2440740000000012">
        <ele>970.456</ele>
        <time>2022-08-24T08:39:34Z</time>
      </trkpt>
      <trkpt lat="43.091240999999414" lon="-1.2440810000000013">
        <ele>970.411</ele>
        <time>2022-08-24T08:39:35Z</time>
      </trkpt>
      <trkpt lat="43.091226999999414" lon="-1.2440810000000013">
        <ele>970.409</ele>
        <time>2022-08-24T08:39:36Z</time>
      </trkpt>
      <trkpt lat="43.091211999999416" lon="-1.2440880000000014">
        <ele>970.646</ele>
        <time>2022-08-24T08:39:37Z</time>
      </trkpt>
      <trkpt lat="43.09119699999942" lon="-1.2440950000000015">
        <ele>970.686</ele>
        <time>2022-08-24T08:39:38Z</time>
      </trkpt>
      <trkpt lat="43.09118299999942" lon="-1.2441010000000015">
        <ele>970.696</ele>
        <time>2022-08-24T08:39:39Z</time>
      </trkpt>
      <trkpt lat="43.091169999999416" lon="-1.2441080000000015">
        <ele>970.682</ele>
        <time>2022-08-24T08:39:40Z</time>
      </trkpt>
      <trkpt lat="43.091155999999415" lon="-1.2441140000000015">
        <ele>970.634</ele>
        <time>2022-08-24T08:39:41Z</time>
      </trkpt>
      <trkpt lat="43.09114099999942" lon="-1.2441180000000014">
        <ele>970.861</ele>
        <time>2022-08-24T08:39:42Z</time>
      </trkpt>
      <trkpt lat="43.09112699999942" lon="-1.2441220000000013">
        <ele>970.874</ele>
        <time>2022-08-24T08:39:43Z</time>
      </trkpt>
      <trkpt lat="43.09111299999942" lon="-1.2441230000000012">
        <ele>971.098</ele>
        <time>2022-08-24T08:39:44Z</time>
      </trkpt>
      <trkpt lat="43.09110099999942" lon="-1.2441250000000013">
        <ele>971.227</ele>
        <time>2022-08-24T08:39:45Z</time>
      </trkpt>
      <trkpt lat="43.09108699999942" lon="-1.2441270000000013">
        <ele>971.235</ele>
        <time>2022-08-24T08:39:46Z</time>
      </trkpt>
      <trkpt lat="43.09107199999942" lon="-1.2441320000000013">
        <ele>971.286</ele>
        <time>2022-08-24T08:39:47Z</time>
      </trkpt>
      <trkpt lat="43.09105799999942" lon="-1.2441360000000012">
        <ele>971.414</ele>
        <time>2022-08-24T08:39:48Z</time>
      </trkpt>
      <trkpt lat="43.09104799999942" lon="-1.2441400000000011">
        <ele>971.409</ele>
        <time>2022-08-24T08:39:49Z</time>
      </trkpt>
      <trkpt lat="43.09103099999942" lon="-1.2441480000000011">
        <ele>971.634</ele>
        <time>2022-08-24T08:39:50Z</time>
      </trkpt>
      <trkpt lat="43.09101699999942" lon="-1.2441500000000012">
        <ele>971.654</ele>
        <time>2022-08-24T08:39:51Z</time>
      </trkpt>
      <trkpt lat="43.09100199999942" lon="-1.2441560000000011">
        <ele>971.834</ele>
        <time>2022-08-24T08:39:52Z</time>
      </trkpt>
      <trkpt lat="43.09098699999942" lon="-1.2441630000000012">
        <ele>971.870</ele>
        <time>2022-08-24T08:39:53Z</time>
      </trkpt>
      <trkpt lat="43.090971999999425" lon="-1.2441740000000012">
        <ele>972.022</ele>
        <time>2022-08-24T08:39:54Z</time>
      </trkpt>
      <trkpt lat="43.09095399999943" lon="-1.2441830000000011">
        <ele>972.099</ele>
        <time>2022-08-24T08:39:55Z</time>
      </trkpt>
      <trkpt lat="43.090937999999426" lon="-1.244187000000001">
        <ele>972.082</ele>
        <time>2022-08-24T08:39:56Z</time>
      </trkpt>
      <trkpt lat="43.09092299999943" lon="-1.244193000000001">
        <ele>972.256</ele>
        <time>2022-08-24T08:39:57Z</time>
      </trkpt>
      <trkpt lat="43.09088099999943" lon="-1.244199000000001">
        <ele>972.825</ele>
        <time>2022-08-24T08:40:00Z</time>
      </trkpt>
      <trkpt lat="43.090858999999426" lon="-1.244199000000001">
        <ele>973.016</ele>
        <time>2022-08-24T08:40:02Z</time>
      </trkpt>
      <trkpt lat="43.090844999999426" lon="-1.244199000000001">
        <ele>973.276</ele>
        <time>2022-08-24T08:40:03Z</time>
      </trkpt>
      <trkpt lat="43.09082999999943" lon="-1.244201000000001">
        <ele>973.413</ele>
        <time>2022-08-24T08:40:04Z</time>
      </trkpt>
      <trkpt lat="43.09081599999943" lon="-1.244203000000001">
        <ele>973.409</ele>
        <time>2022-08-24T08:40:05Z</time>
      </trkpt>
      <trkpt lat="43.09080199999943" lon="-1.2442050000000011">
        <ele>973.682</ele>
        <time>2022-08-24T08:40:06Z</time>
      </trkpt>
      <trkpt lat="43.09078799999943" lon="-1.2442070000000012">
        <ele>973.852</ele>
        <time>2022-08-24T08:40:07Z</time>
      </trkpt>
      <trkpt lat="43.09077399999943" lon="-1.2442100000000011">
        <ele>974.062</ele>
        <time>2022-08-24T08:40:08Z</time>
      </trkpt>
      <trkpt lat="43.090760999999425" lon="-1.2442130000000011">
        <ele>974.218</ele>
        <time>2022-08-24T08:40:09Z</time>
      </trkpt>
      <trkpt lat="43.09074599999943" lon="-1.2442210000000011">
        <ele>974.490</ele>
        <time>2022-08-24T08:40:10Z</time>
      </trkpt>
      <trkpt lat="43.09073099999943" lon="-1.244224000000001">
        <ele>974.637</ele>
        <time>2022-08-24T08:40:11Z</time>
      </trkpt>
      <trkpt lat="43.09071499999943" lon="-1.244228000000001">
        <ele>974.610</ele>
        <time>2022-08-24T08:40:12Z</time>
      </trkpt>
      <trkpt lat="43.090698999999425" lon="-1.244233000000001">
        <ele>974.874</ele>
        <time>2022-08-24T08:40:13Z</time>
      </trkpt>
      <trkpt lat="43.090684999999425" lon="-1.244236000000001">
        <ele>974.833</ele>
        <time>2022-08-24T08:40:14Z</time>
      </trkpt>
      <trkpt lat="43.090670999999425" lon="-1.244239000000001">
        <ele>975.089</ele>
        <time>2022-08-24T08:40:15Z</time>
      </trkpt>
      <trkpt lat="43.09065299999943" lon="-1.244242000000001">
        <ele>975.006</ele>
        <time>2022-08-24T08:40:16Z</time>
      </trkpt>
      <trkpt lat="43.090636999999425" lon="-1.244244000000001">
        <ele>975.026</ele>
        <time>2022-08-24T08:40:17Z</time>
      </trkpt>
      <trkpt lat="43.090622999999425" lon="-1.244244000000001">
        <ele>975.209</ele>
        <time>2022-08-24T08:40:18Z</time>
      </trkpt>
      <trkpt lat="43.090608999999425" lon="-1.244246000000001">
        <ele>975.249</ele>
        <time>2022-08-24T08:40:19Z</time>
      </trkpt>
      <trkpt lat="43.090594999999425" lon="-1.244249000000001">
        <ele>975.239</ele>
        <time>2022-08-24T08:40:20Z</time>
      </trkpt>
      <trkpt lat="43.09057899999942" lon="-1.244254000000001">
        <ele>975.429</ele>
        <time>2022-08-24T08:40:21Z</time>
      </trkpt>
      <trkpt lat="43.090563999999425" lon="-1.2442590000000011">
        <ele>975.415</ele>
        <time>2022-08-24T08:40:22Z</time>
      </trkpt>
      <trkpt lat="43.09055099999942" lon="-1.2442610000000012">
        <ele>975.657</ele>
        <time>2022-08-24T08:40:23Z</time>
      </trkpt>
      <trkpt lat="43.090535999999425" lon="-1.2442630000000012">
        <ele>975.684</ele>
        <time>2022-08-24T08:40:24Z</time>
      </trkpt>
      <trkpt lat="43.09052099999943" lon="-1.2442640000000011">
        <ele>975.867</ele>
        <time>2022-08-24T08:40:25Z</time>
      </trkpt>
      <trkpt lat="43.090507999999424" lon="-1.2442630000000012">
        <ele>975.851</ele>
        <time>2022-08-24T08:40:26Z</time>
      </trkpt>
      <trkpt lat="43.09049299999943" lon="-1.2442640000000011">
        <ele>975.850</ele>
        <time>2022-08-24T08:40:27Z</time>
      </trkpt>
      <trkpt lat="43.09047799999943" lon="-1.244265000000001">
        <ele>976.055</ele>
        <time>2022-08-24T08:40:28Z</time>
      </trkpt>
      <trkpt lat="43.09046399999943" lon="-1.244265000000001">
        <ele>976.207</ele>
        <time>2022-08-24T08:40:29Z</time>
      </trkpt>
      <trkpt lat="43.09044699999943" lon="-1.244273000000001">
        <ele>976.417</ele>
        <time>2022-08-24T08:40:30Z</time>
      </trkpt>
      <trkpt lat="43.09042999999943" lon="-1.244278000000001">
        <ele>976.609</ele>
        <time>2022-08-24T08:40:31Z</time>
      </trkpt>
      <trkpt lat="43.09041299999943" lon="-1.244284000000001">
        <ele>976.836</ele>
        <time>2022-08-24T08:40:32Z</time>
      </trkpt>
      <trkpt lat="43.09039599999943" lon="-1.2442860000000011">
        <ele>977.086</ele>
        <time>2022-08-24T08:40:33Z</time>
      </trkpt>
      <trkpt lat="43.09037999999943" lon="-1.244287000000001">
        <ele>977.226</ele>
        <time>2022-08-24T08:40:34Z</time>
      </trkpt>
      <trkpt lat="43.09036599999943" lon="-1.244287000000001">
        <ele>977.442</ele>
        <time>2022-08-24T08:40:35Z</time>
      </trkpt>
      <trkpt lat="43.09034899999943" lon="-1.244288000000001">
        <ele>977.424</ele>
        <time>2022-08-24T08:40:36Z</time>
      </trkpt>
      <trkpt lat="43.090332999999426" lon="-1.244290000000001">
        <ele>977.681</ele>
        <time>2022-08-24T08:40:37Z</time>
      </trkpt>
      <trkpt lat="43.09031699999942" lon="-1.244291000000001">
        <ele>977.874</ele>
        <time>2022-08-24T08:40:38Z</time>
      </trkpt>
      <trkpt lat="43.090301999999426" lon="-1.2442920000000008">
        <ele>978.028</ele>
        <time>2022-08-24T08:40:39Z</time>
      </trkpt>
      <trkpt lat="43.090284999999426" lon="-1.2442920000000008">
        <ele>978.277</ele>
        <time>2022-08-24T08:40:40Z</time>
      </trkpt>
      <trkpt lat="43.09026399999943" lon="-1.2442980000000008">
        <ele>978.221</ele>
        <time>2022-08-24T08:40:41Z</time>
      </trkpt>
      <trkpt lat="43.09024699999943" lon="-1.2442990000000007">
        <ele>978.441</ele>
        <time>2022-08-24T08:40:42Z</time>
      </trkpt>
      <trkpt lat="43.09022999999943" lon="-1.2443020000000007">
        <ele>978.605</ele>
        <time>2022-08-24T08:40:43Z</time>
      </trkpt>
      <trkpt lat="43.09021499999943" lon="-1.2443040000000007">
        <ele>978.609</ele>
        <time>2022-08-24T08:40:44Z</time>
      </trkpt>
      <trkpt lat="43.09019899999943" lon="-1.2443030000000008">
        <ele>978.613</ele>
        <time>2022-08-24T08:40:45Z</time>
      </trkpt>
      <trkpt lat="43.09018299999943" lon="-1.2443030000000008">
        <ele>978.843</ele>
        <time>2022-08-24T08:40:46Z</time>
      </trkpt>
      <trkpt lat="43.09016499999943" lon="-1.2443010000000008">
        <ele>978.863</ele>
        <time>2022-08-24T08:40:47Z</time>
      </trkpt>
      <trkpt lat="43.09015099999943" lon="-1.2442980000000008">
        <ele>978.859</ele>
        <time>2022-08-24T08:40:48Z</time>
      </trkpt>
      <trkpt lat="43.09013399999943" lon="-1.2442960000000007">
        <ele>979.051</ele>
        <time>2022-08-24T08:40:49Z</time>
      </trkpt>
      <trkpt lat="43.09011799999943" lon="-1.2442940000000007">
        <ele>979.028</ele>
        <time>2022-08-24T08:40:50Z</time>
      </trkpt>
      <trkpt lat="43.090101999999426" lon="-1.2442930000000008">
        <ele>979.021</ele>
        <time>2022-08-24T08:40:51Z</time>
      </trkpt>
      <trkpt lat="43.090084999999426" lon="-1.2442950000000008">
        <ele>979.045</ele>
        <time>2022-08-24T08:40:52Z</time>
      </trkpt>
      <trkpt lat="43.09006799999943" lon="-1.2442970000000009">
        <ele>979.054</ele>
        <time>2022-08-24T08:40:53Z</time>
      </trkpt>
      <trkpt lat="43.090051999999424" lon="-1.244299000000001">
        <ele>979.038</ele>
        <time>2022-08-24T08:40:54Z</time>
      </trkpt>
      <trkpt lat="43.09003699999943" lon="-1.244301000000001">
        <ele>979.270</ele>
        <time>2022-08-24T08:40:55Z</time>
      </trkpt>
      <trkpt lat="43.09002299999943" lon="-1.244302000000001">
        <ele>979.417</ele>
        <time>2022-08-24T08:40:56Z</time>
      </trkpt>
      <trkpt lat="43.09000899999943" lon="-1.244304000000001">
        <ele>979.609</ele>
        <time>2022-08-24T08:40:57Z</time>
      </trkpt>
      <trkpt lat="43.08999199999943" lon="-1.244309000000001">
        <ele>979.694</ele>
        <time>2022-08-24T08:40:58Z</time>
      </trkpt>
      <trkpt lat="43.08997799999943" lon="-1.244313000000001">
        <ele>979.854</ele>
        <time>2022-08-24T08:40:59Z</time>
      </trkpt>
      <trkpt lat="43.08996299999943" lon="-1.2443140000000008">
        <ele>979.834</ele>
        <time>2022-08-24T08:41:00Z</time>
      </trkpt>
      <trkpt lat="43.08994699999943" lon="-1.2443160000000009">
        <ele>980.290</ele>
        <time>2022-08-24T08:41:01Z</time>
      </trkpt>
      <trkpt lat="43.08992999999943" lon="-1.2443160000000009">
        <ele>980.632</ele>
        <time>2022-08-24T08:41:02Z</time>
      </trkpt>
      <trkpt lat="43.08991299999943" lon="-1.2443170000000008">
        <ele>980.679</ele>
        <time>2022-08-24T08:41:03Z</time>
      </trkpt>
      <trkpt lat="43.08989799999943" lon="-1.2443170000000008">
        <ele>980.842</ele>
        <time>2022-08-24T08:41:04Z</time>
      </trkpt>
      <trkpt lat="43.08988199999943" lon="-1.2443180000000007">
        <ele>980.856</ele>
        <time>2022-08-24T08:41:05Z</time>
      </trkpt>
      <trkpt lat="43.08986499999943" lon="-1.2443230000000007">
        <ele>980.865</ele>
        <time>2022-08-24T08:41:06Z</time>
      </trkpt>
      <trkpt lat="43.08984999999943" lon="-1.2443250000000008">
        <ele>980.824</ele>
        <time>2022-08-24T08:41:07Z</time>
      </trkpt>
      <trkpt lat="43.08983299999943" lon="-1.2443280000000008">
        <ele>980.804</ele>
        <time>2022-08-24T08:41:08Z</time>
      </trkpt>
      <trkpt lat="43.08981499999943" lon="-1.2443340000000007">
        <ele>980.814</ele>
        <time>2022-08-24T08:41:09Z</time>
      </trkpt>
      <trkpt lat="43.089794999999434" lon="-1.2443380000000006">
        <ele>980.809</ele>
        <time>2022-08-24T08:41:10Z</time>
      </trkpt>
      <trkpt lat="43.08977699999944" lon="-1.2443410000000006">
        <ele>980.873</ele>
        <time>2022-08-24T08:41:11Z</time>
      </trkpt>
      <trkpt lat="43.08976199999944" lon="-1.2443430000000006">
        <ele>980.853</ele>
        <time>2022-08-24T08:41:12Z</time>
      </trkpt>
      <trkpt lat="43.08974499999944" lon="-1.2443460000000006">
        <ele>980.693</ele>
        <time>2022-08-24T08:41:13Z</time>
      </trkpt>
      <trkpt lat="43.08972999999944" lon="-1.2443510000000007">
        <ele>980.679</ele>
        <time>2022-08-24T08:41:14Z</time>
      </trkpt>
      <trkpt lat="43.089711999999444" lon="-1.2443590000000007">
        <ele>980.671</ele>
        <time>2022-08-24T08:41:15Z</time>
      </trkpt>
      <trkpt lat="43.08969599999944" lon="-1.2443670000000007">
        <ele>980.638</ele>
        <time>2022-08-24T08:41:16Z</time>
      </trkpt>
      <trkpt lat="43.08967899999944" lon="-1.2443720000000007">
        <ele>980.621</ele>
        <time>2022-08-24T08:41:17Z</time>
      </trkpt>
      <trkpt lat="43.08963099999944" lon="-1.2443930000000007">
        <ele>980.625</ele>
        <time>2022-08-24T08:41:20Z</time>
      </trkpt>
      <trkpt lat="43.089562999999444" lon="-1.2444390000000007">
        <ele>980.694</ele>
        <time>2022-08-24T08:41:24Z</time>
      </trkpt>
      <trkpt lat="43.089545999999444" lon="-1.2444500000000007">
        <ele>980.634</ele>
        <time>2022-08-24T08:41:25Z</time>
      </trkpt>
      <trkpt lat="43.089528999999445" lon="-1.2444590000000006">
        <ele>980.655</ele>
        <time>2022-08-24T08:41:26Z</time>
      </trkpt>
      <trkpt lat="43.089514999999444" lon="-1.2444680000000006">
        <ele>980.610</ele>
        <time>2022-08-24T08:41:27Z</time>
      </trkpt>
      <trkpt lat="43.08949599999944" lon="-1.2444780000000006">
        <ele>980.609</ele>
        <time>2022-08-24T08:41:28Z</time>
      </trkpt>
      <trkpt lat="43.08948199999944" lon="-1.2444850000000007">
        <ele>980.674</ele>
        <time>2022-08-24T08:41:29Z</time>
      </trkpt>
      <trkpt lat="43.08942299999944" lon="-1.2445130000000006">
        <ele>980.854</ele>
        <time>2022-08-24T08:41:32Z</time>
      </trkpt>
      <trkpt lat="43.08940699999944" lon="-1.2445210000000007">
        <ele>981.024</ele>
        <time>2022-08-24T08:41:33Z</time>
      </trkpt>
      <trkpt lat="43.08939099999944" lon="-1.2445250000000005">
        <ele>980.850</ele>
        <time>2022-08-24T08:41:34Z</time>
      </trkpt>
      <trkpt lat="43.08937399999944" lon="-1.2445310000000005">
        <ele>980.862</ele>
        <time>2022-08-24T08:41:35Z</time>
      </trkpt>
      <trkpt lat="43.08935699999944" lon="-1.2445370000000004">
        <ele>981.069</ele>
        <time>2022-08-24T08:41:36Z</time>
      </trkpt>
      <trkpt lat="43.089298999999436" lon="-1.2445690000000005">
        <ele>981.492</ele>
        <time>2022-08-24T08:41:40Z</time>
      </trkpt>
      <trkpt lat="43.089259999999435" lon="-1.2446100000000004">
        <ele>981.636</ele>
        <time>2022-08-24T08:41:43Z</time>
      </trkpt>
      <trkpt lat="43.08924499999944" lon="-1.2446260000000005">
        <ele>981.885</ele>
        <time>2022-08-24T08:41:44Z</time>
      </trkpt>
      <trkpt lat="43.08923099999944" lon="-1.2446400000000004">
        <ele>982.042</ele>
        <time>2022-08-24T08:41:45Z</time>
      </trkpt>
      <trkpt lat="43.08921599999944" lon="-1.2446560000000004">
        <ele>982.022</ele>
        <time>2022-08-24T08:41:46Z</time>
      </trkpt>
      <trkpt lat="43.089205999999436" lon="-1.2446690000000005">
        <ele>982.014</ele>
        <time>2022-08-24T08:41:47Z</time>
      </trkpt>
      <trkpt lat="43.08913699999943" lon="-1.2447390000000005">
        <ele>982.409</ele>
        <time>2022-08-24T08:41:53Z</time>
      </trkpt>
      <trkpt lat="43.08911699999943" lon="-1.2447640000000004">
        <ele>982.835</ele>
        <time>2022-08-24T08:41:55Z</time>
      </trkpt>
      <trkpt lat="43.089104999999435" lon="-1.2447740000000005">
        <ele>983.085</ele>
        <time>2022-08-24T08:41:56Z</time>
      </trkpt>
      <trkpt lat="43.089093999999434" lon="-1.2447880000000004">
        <ele>983.095</ele>
        <time>2022-08-24T08:41:57Z</time>
      </trkpt>
      <trkpt lat="43.089082999999434" lon="-1.2448020000000004">
        <ele>983.281</ele>
        <time>2022-08-24T08:41:58Z</time>
      </trkpt>
      <trkpt lat="43.08904999999943" lon="-1.2448380000000003">
        <ele>983.643</ele>
        <time>2022-08-24T08:42:01Z</time>
      </trkpt>
      <trkpt lat="43.08903699999943" lon="-1.2448480000000004">
        <ele>983.660</ele>
        <time>2022-08-24T08:42:02Z</time>
      </trkpt>
      <trkpt lat="43.08893899999943" lon="-1.2449280000000005">
        <ele>984.463</ele>
        <time>2022-08-24T08:42:09Z</time>
      </trkpt>
      <trkpt lat="43.08892699999943" lon="-1.2449410000000005">
        <ele>984.647</ele>
        <time>2022-08-24T08:42:10Z</time>
      </trkpt>
      <trkpt lat="43.08891499999943" lon="-1.2449550000000005">
        <ele>985.026</ele>
        <time>2022-08-24T08:42:11Z</time>
      </trkpt>
      <trkpt lat="43.08890299999943" lon="-1.2449690000000004">
        <ele>984.847</ele>
        <time>2022-08-24T08:42:12Z</time>
      </trkpt>
      <trkpt lat="43.088890999999435" lon="-1.2449810000000003">
        <ele>985.029</ele>
        <time>2022-08-24T08:42:13Z</time>
      </trkpt>
      <trkpt lat="43.08887799999943" lon="-1.2449930000000002">
        <ele>985.221</ele>
        <time>2022-08-24T08:42:14Z</time>
      </trkpt>
      <trkpt lat="43.08886799999943" lon="-1.2450020000000002">
        <ele>985.209</ele>
        <time>2022-08-24T08:42:15Z</time>
      </trkpt>
      <trkpt lat="43.08885299999943" lon="-1.245019">
        <ele>985.295</ele>
        <time>2022-08-24T08:42:16Z</time>
      </trkpt>
      <trkpt lat="43.08884399999943" lon="-1.2450290000000002">
        <ele>985.475</ele>
        <time>2022-08-24T08:42:17Z</time>
      </trkpt>
      <trkpt lat="43.088831999999435" lon="-1.245041">
        <ele>985.435</ele>
        <time>2022-08-24T08:42:18Z</time>
      </trkpt>
      <trkpt lat="43.08882299999944" lon="-1.245053">
        <ele>985.461</ele>
        <time>2022-08-24T08:42:19Z</time>
      </trkpt>
      <trkpt lat="43.088817999999435" lon="-1.245064">
        <ele>985.643</ele>
        <time>2022-08-24T08:42:20Z</time>
      </trkpt>
      <trkpt lat="43.08880599999944" lon="-1.245077">
        <ele>985.670</ele>
        <time>2022-08-24T08:42:21Z</time>
      </trkpt>
      <trkpt lat="43.08879099999944" lon="-1.245089">
        <ele>985.843</ele>
        <time>2022-08-24T08:42:22Z</time>
      </trkpt>
      <trkpt lat="43.08877799999944" lon="-1.245102">
        <ele>985.817</ele>
        <time>2022-08-24T08:42:23Z</time>
      </trkpt>
      <trkpt lat="43.08876599999944" lon="-1.245117">
        <ele>986.086</ele>
        <time>2022-08-24T08:42:24Z</time>
      </trkpt>
      <trkpt lat="43.08875399999944" lon="-1.24513">
        <ele>986.049</ele>
        <time>2022-08-24T08:42:25Z</time>
      </trkpt>
      <trkpt lat="43.08874199999944" lon="-1.245142">
        <ele>986.202</ele>
        <time>2022-08-24T08:42:26Z</time>
      </trkpt>
      <trkpt lat="43.08872599999944" lon="-1.245156">
        <ele>986.422</ele>
        <time>2022-08-24T08:42:27Z</time>
      </trkpt>
      <trkpt lat="43.08871399999944" lon="-1.245167">
        <ele>986.409</ele>
        <time>2022-08-24T08:42:28Z</time>
      </trkpt>
      <trkpt lat="43.08870099999944" lon="-1.245175">
        <ele>986.655</ele>
        <time>2022-08-24T08:42:29Z</time>
      </trkpt>
      <trkpt lat="43.08868899999944" lon="-1.2451869999999998">
        <ele>986.845</ele>
        <time>2022-08-24T08:42:30Z</time>
      </trkpt>
      <trkpt lat="43.08867699999944" lon="-1.2452009999999998">
        <ele>986.835</ele>
        <time>2022-08-24T08:42:31Z</time>
      </trkpt>
      <trkpt lat="43.088661999999445" lon="-1.2452149999999997">
        <ele>986.871</ele>
        <time>2022-08-24T08:42:32Z</time>
      </trkpt>
      <trkpt lat="43.08864999999945" lon="-1.2452279999999998">
        <ele>987.063</ele>
        <time>2022-08-24T08:42:33Z</time>
      </trkpt>
      <trkpt lat="43.088636999999444" lon="-1.2452399999999997">
        <ele>986.870</ele>
        <time>2022-08-24T08:42:34Z</time>
      </trkpt>
      <trkpt lat="43.08862399999944" lon="-1.2452529999999997">
        <ele>987.023</ele>
        <time>2022-08-24T08:42:35Z</time>
      </trkpt>
      <trkpt lat="43.08861399999944" lon="-1.2452679999999998">
        <ele>987.047</ele>
        <time>2022-08-24T08:42:36Z</time>
      </trkpt>
      <trkpt lat="43.088603999999435" lon="-1.2452849999999998">
        <ele>987.226</ele>
        <time>2022-08-24T08:42:37Z</time>
      </trkpt>
      <trkpt lat="43.08859399999943" lon="-1.2452999999999999">
        <ele>987.426</ele>
        <time>2022-08-24T08:42:38Z</time>
      </trkpt>
      <trkpt lat="43.088581999999434" lon="-1.245313">
        <ele>987.647</ele>
        <time>2022-08-24T08:42:39Z</time>
      </trkpt>
      <trkpt lat="43.08856899999943" lon="-1.2453269999999999">
        <ele>987.611</ele>
        <time>2022-08-24T08:42:40Z</time>
      </trkpt>
      <trkpt lat="43.08855899999943" lon="-1.2453409999999998">
        <ele>987.809</ele>
        <time>2022-08-24T08:42:41Z</time>
      </trkpt>
      <trkpt lat="43.08855199999943" lon="-1.2453569999999998">
        <ele>988.023</ele>
        <time>2022-08-24T08:42:42Z</time>
      </trkpt>
      <trkpt lat="43.08853899999943" lon="-1.2453789999999998">
        <ele>988.073</ele>
        <time>2022-08-24T08:42:43Z</time>
      </trkpt>
      <trkpt lat="43.08852999999943" lon="-1.2453979999999998">
        <ele>988.073</ele>
        <time>2022-08-24T08:42:44Z</time>
      </trkpt>
      <trkpt lat="43.08851899999943" lon="-1.2454179999999997">
        <ele>988.079</ele>
        <time>2022-08-24T08:42:45Z</time>
      </trkpt>
      <trkpt lat="43.088508999999426" lon="-1.2454379999999996">
        <ele>988.261</ele>
        <time>2022-08-24T08:42:46Z</time>
      </trkpt>
      <trkpt lat="43.088497999999426" lon="-1.2454589999999996">
        <ele>988.458</ele>
        <time>2022-08-24T08:42:47Z</time>
      </trkpt>
      <trkpt lat="43.08849199999943" lon="-1.2454799999999997">
        <ele>988.631</ele>
        <time>2022-08-24T08:42:48Z</time>
      </trkpt>
      <trkpt lat="43.08848799999943" lon="-1.2455009999999997">
        <ele>988.615</ele>
        <time>2022-08-24T08:42:49Z</time>
      </trkpt>
      <trkpt lat="43.08848899999943" lon="-1.2455219999999998">
        <ele>988.644</ele>
        <time>2022-08-24T08:42:50Z</time>
      </trkpt>
      <trkpt lat="43.088494999999426" lon="-1.2455429999999998">
        <ele>988.886</ele>
        <time>2022-08-24T08:42:51Z</time>
      </trkpt>
      <trkpt lat="43.08850499999943" lon="-1.245561">
        <ele>989.060</ele>
        <time>2022-08-24T08:42:52Z</time>
      </trkpt>
      <trkpt lat="43.08851299999943" lon="-1.2455779999999999">
        <ele>989.226</ele>
        <time>2022-08-24T08:42:53Z</time>
      </trkpt>
      <trkpt lat="43.08852599999943" lon="-1.245591">
        <ele>989.209</ele>
        <time>2022-08-24T08:42:54Z</time>
      </trkpt>
      <trkpt lat="43.088535999999436" lon="-1.245606">
        <ele>989.279</ele>
        <time>2022-08-24T08:42:55Z</time>
      </trkpt>
      <trkpt lat="43.088544999999435" lon="-1.245618">
        <ele>989.679</ele>
        <time>2022-08-24T08:42:56Z</time>
      </trkpt>
      <trkpt lat="43.08855799999944" lon="-1.245626">
        <ele>989.689</ele>
        <time>2022-08-24T08:42:57Z</time>
      </trkpt>
      <trkpt lat="43.08857399999944" lon="-1.2456319999999999">
        <ele>989.845</ele>
        <time>2022-08-24T08:42:58Z</time>
      </trkpt>
      <trkpt lat="43.08859099999944" lon="-1.245634">
        <ele>989.857</ele>
        <time>2022-08-24T08:42:59Z</time>
      </trkpt>
      <trkpt lat="43.08860599999944" lon="-1.245636">
        <ele>990.084</ele>
        <time>2022-08-24T08:43:00Z</time>
      </trkpt>
      <trkpt lat="43.088620999999435" lon="-1.2456399999999999">
        <ele>990.497</ele>
        <time>2022-08-24T08:43:01Z</time>
      </trkpt>
      <trkpt lat="43.088640999999434" lon="-1.2456429999999998">
        <ele>990.631</ele>
        <time>2022-08-24T08:43:02Z</time>
      </trkpt>
      <trkpt lat="43.088654999999434" lon="-1.2456469999999997">
        <ele>990.840</ele>
        <time>2022-08-24T08:43:03Z</time>
      </trkpt>
      <trkpt lat="43.08867099999944" lon="-1.2456509999999996">
        <ele>991.079</ele>
        <time>2022-08-24T08:43:04Z</time>
      </trkpt>
      <trkpt lat="43.08868499999944" lon="-1.2456569999999996">
        <ele>991.205</ele>
        <time>2022-08-24T08:43:05Z</time>
      </trkpt>
      <trkpt lat="43.08869899999944" lon="-1.2456619999999996">
        <ele>991.225</ele>
        <time>2022-08-24T08:43:06Z</time>
      </trkpt>
      <trkpt lat="43.08871199999944" lon="-1.2456689999999997">
        <ele>991.409</ele>
        <time>2022-08-24T08:43:07Z</time>
      </trkpt>
      <trkpt lat="43.08872599999944" lon="-1.2456749999999996">
        <ele>991.668</ele>
        <time>2022-08-24T08:43:08Z</time>
      </trkpt>
      <trkpt lat="43.08873999999944" lon="-1.2456809999999996">
        <ele>991.878</ele>
        <time>2022-08-24T08:43:09Z</time>
      </trkpt>
      <trkpt lat="43.08875399999944" lon="-1.2456879999999997">
        <ele>992.068</ele>
        <time>2022-08-24T08:43:10Z</time>
      </trkpt>
      <trkpt lat="43.08877099999944" lon="-1.2456949999999998">
        <ele>992.084</ele>
        <time>2022-08-24T08:43:11Z</time>
      </trkpt>
      <trkpt lat="43.08878699999944" lon="-1.2457009999999997">
        <ele>992.446</ele>
        <time>2022-08-24T08:43:12Z</time>
      </trkpt>
      <trkpt lat="43.088802999999444" lon="-1.2457069999999997">
        <ele>992.433</ele>
        <time>2022-08-24T08:43:13Z</time>
      </trkpt>
      <trkpt lat="43.088816999999445" lon="-1.2457149999999997">
        <ele>992.426</ele>
        <time>2022-08-24T08:43:14Z</time>
      </trkpt>
      <trkpt lat="43.08883199999944" lon="-1.2457219999999998">
        <ele>992.450</ele>
        <time>2022-08-24T08:43:15Z</time>
      </trkpt>
      <trkpt lat="43.08884699999944" lon="-1.2457269999999998">
        <ele>992.629</ele>
        <time>2022-08-24T08:43:16Z</time>
      </trkpt>
      <trkpt lat="43.08885899999944" lon="-1.2457319999999998">
        <ele>992.663</ele>
        <time>2022-08-24T08:43:17Z</time>
      </trkpt>
      <trkpt lat="43.08886999999944" lon="-1.2457429999999998">
        <ele>992.844</ele>
        <time>2022-08-24T08:43:18Z</time>
      </trkpt>
      <trkpt lat="43.08887899999944" lon="-1.2457549999999997">
        <ele>993.218</ele>
        <time>2022-08-24T08:43:19Z</time>
      </trkpt>
      <trkpt lat="43.08888999999944" lon="-1.2457639999999996">
        <ele>993.409</ele>
        <time>2022-08-24T08:43:20Z</time>
      </trkpt>
      <trkpt lat="43.08889899999944" lon="-1.2457729999999996">
        <ele>993.647</ele>
        <time>2022-08-24T08:43:21Z</time>
      </trkpt>
      <trkpt lat="43.08890699999944" lon="-1.2457879999999997">
        <ele>993.827</ele>
        <time>2022-08-24T08:43:22Z</time>
      </trkpt>
      <trkpt lat="43.088913999999434" lon="-1.2458039999999997">
        <ele>993.837</ele>
        <time>2022-08-24T08:43:23Z</time>
      </trkpt>
      <trkpt lat="43.08892299999943" lon="-1.2458159999999996">
        <ele>994.213</ele>
        <time>2022-08-24T08:43:24Z</time>
      </trkpt>
      <trkpt lat="43.088932999999436" lon="-1.2458279999999995">
        <ele>994.225</ele>
        <time>2022-08-24T08:43:25Z</time>
      </trkpt>
      <trkpt lat="43.088944999999434" lon="-1.2458389999999995">
        <ele>994.462</ele>
        <time>2022-08-24T08:43:26Z</time>
      </trkpt>
      <trkpt lat="43.088955999999435" lon="-1.2458539999999996">
        <ele>994.445</ele>
        <time>2022-08-24T08:43:27Z</time>
      </trkpt>
      <trkpt lat="43.088961999999434" lon="-1.2458689999999997">
        <ele>994.639</ele>
        <time>2022-08-24T08:43:28Z</time>
      </trkpt>
      <trkpt lat="43.088969999999435" lon="-1.2458819999999997">
        <ele>994.838</ele>
        <time>2022-08-24T08:43:29Z</time>
      </trkpt>
      <trkpt lat="43.088980999999436" lon="-1.2458909999999996">
        <ele>995.073</ele>
        <time>2022-08-24T08:43:30Z</time>
      </trkpt>
      <trkpt lat="43.088989999999434" lon="-1.2458999999999996">
        <ele>995.285</ele>
        <time>2022-08-24T08:43:31Z</time>
      </trkpt>
      <trkpt lat="43.08899899999943" lon="-1.2459099999999996">
        <ele>995.613</ele>
        <time>2022-08-24T08:43:32Z</time>
      </trkpt>
      <trkpt lat="43.08900999999943" lon="-1.2459229999999997">
        <ele>995.609</ele>
        <time>2022-08-24T08:43:33Z</time>
      </trkpt>
      <trkpt lat="43.08901899999943" lon="-1.2459349999999996">
        <ele>995.658</ele>
        <time>2022-08-24T08:43:34Z</time>
      </trkpt>
      <trkpt lat="43.08902999999943" lon="-1.2459519999999995">
        <ele>995.898</ele>
        <time>2022-08-24T08:43:35Z</time>
      </trkpt>
      <trkpt lat="43.089034999999434" lon="-1.2459649999999995">
        <ele>995.848</ele>
        <time>2022-08-24T08:43:36Z</time>
      </trkpt>
      <trkpt lat="43.089042999999435" lon="-1.2459799999999996">
        <ele>995.864</ele>
        <time>2022-08-24T08:43:37Z</time>
      </trkpt>
      <trkpt lat="43.089050999999436" lon="-1.2459959999999997">
        <ele>996.036</ele>
        <time>2022-08-24T08:43:38Z</time>
      </trkpt>
      <trkpt lat="43.08905899999944" lon="-1.2460139999999997">
        <ele>996.023</ele>
        <time>2022-08-24T08:43:39Z</time>
      </trkpt>
      <trkpt lat="43.08906499999944" lon="-1.2460289999999998">
        <ele>996.066</ele>
        <time>2022-08-24T08:43:40Z</time>
      </trkpt>
      <trkpt lat="43.089070999999436" lon="-1.2460449999999998">
        <ele>996.220</ele>
        <time>2022-08-24T08:43:41Z</time>
      </trkpt>
      <trkpt lat="43.08907899999944" lon="-1.24606">
        <ele>996.469</ele>
        <time>2022-08-24T08:43:42Z</time>
      </trkpt>
      <trkpt lat="43.08908399999944" lon="-1.2460719999999998">
        <ele>996.639</ele>
        <time>2022-08-24T08:43:43Z</time>
      </trkpt>
      <trkpt lat="43.089090999999435" lon="-1.246087">
        <ele>996.801</ele>
        <time>2022-08-24T08:43:44Z</time>
      </trkpt>
      <trkpt lat="43.08910099999944" lon="-1.246106">
        <ele>996.821</ele>
        <time>2022-08-24T08:43:45Z</time>
      </trkpt>
      <trkpt lat="43.089107999999435" lon="-1.246117">
        <ele>997.009</ele>
        <time>2022-08-24T08:43:46Z</time>
      </trkpt>
      <trkpt lat="43.08911799999944" lon="-1.246135">
        <ele>997.234</ele>
        <time>2022-08-24T08:43:47Z</time>
      </trkpt>
      <trkpt lat="43.089129999999436" lon="-1.246148">
        <ele>997.444</ele>
        <time>2022-08-24T08:43:48Z</time>
      </trkpt>
      <trkpt lat="43.08913199999944" lon="-1.246166">
        <ele>997.644</ele>
        <time>2022-08-24T08:43:49Z</time>
      </trkpt>
      <trkpt lat="43.08914099999944" lon="-1.2461810000000002">
        <ele>998.040</ele>
        <time>2022-08-24T08:43:50Z</time>
      </trkpt>
      <trkpt lat="43.08914799999943" lon="-1.2461950000000002">
        <ele>998.282</ele>
        <time>2022-08-24T08:43:51Z</time>
      </trkpt>
      <trkpt lat="43.08915199999943" lon="-1.2462100000000003">
        <ele>998.249</ele>
        <time>2022-08-24T08:43:52Z</time>
      </trkpt>
      <trkpt lat="43.08915699999943" lon="-1.2462230000000003">
        <ele>998.442</ele>
        <time>2022-08-24T08:43:53Z</time>
      </trkpt>
      <trkpt lat="43.08916599999943" lon="-1.2462380000000004">
        <ele>998.676</ele>
        <time>2022-08-24T08:43:54Z</time>
      </trkpt>
      <trkpt lat="43.08917899999943" lon="-1.2462500000000003">
        <ele>998.855</ele>
        <time>2022-08-24T08:43:55Z</time>
      </trkpt>
      <trkpt lat="43.089189999999434" lon="-1.2462570000000004">
        <ele>999.088</ele>
        <time>2022-08-24T08:43:56Z</time>
      </trkpt>
      <trkpt lat="43.089203999999434" lon="-1.2462640000000005">
        <ele>999.224</ele>
        <time>2022-08-24T08:43:57Z</time>
      </trkpt>
      <trkpt lat="43.08921399999944" lon="-1.2462720000000005">
        <ele>999.426</ele>
        <time>2022-08-24T08:43:58Z</time>
      </trkpt>
      <trkpt lat="43.08922799999944" lon="-1.2462810000000004">
        <ele>999.409</ele>
        <time>2022-08-24T08:43:59Z</time>
      </trkpt>
      <trkpt lat="43.089242999999435" lon="-1.2462910000000005">
        <ele>999.689</ele>
        <time>2022-08-24T08:44:00Z</time>
      </trkpt>
      <trkpt lat="43.08925299999944" lon="-1.2463020000000005">
        <ele>999.629</ele>
        <time>2022-08-24T08:44:01Z</time>
      </trkpt>
      <trkpt lat="43.08926599999944" lon="-1.2463090000000006">
        <ele>999.889</ele>
        <time>2022-08-24T08:44:02Z</time>
      </trkpt>
      <trkpt lat="43.08927699999944" lon="-1.2463140000000006">
        <ele>1000.225</ele>
        <time>2022-08-24T08:44:03Z</time>
      </trkpt>
      <trkpt lat="43.089289999999444" lon="-1.2463210000000007">
        <ele>1000.217</ele>
        <time>2022-08-24T08:44:04Z</time>
      </trkpt>
      <trkpt lat="43.08930299999945" lon="-1.2463300000000006">
        <ele>1000.214</ele>
        <time>2022-08-24T08:44:05Z</time>
      </trkpt>
      <trkpt lat="43.089314999999445" lon="-1.2463360000000006">
        <ele>1000.437</ele>
        <time>2022-08-24T08:44:06Z</time>
      </trkpt>
      <trkpt lat="43.089328999999445" lon="-1.2463460000000006">
        <ele>1000.621</ele>
        <time>2022-08-24T08:44:07Z</time>
      </trkpt>
      <trkpt lat="43.08934199999945" lon="-1.2463550000000005">
        <ele>1000.650</ele>
        <time>2022-08-24T08:44:08Z</time>
      </trkpt>
      <trkpt lat="43.08935899999945" lon="-1.2463650000000006">
        <ele>1000.867</ele>
        <time>2022-08-24T08:44:09Z</time>
      </trkpt>
      <trkpt lat="43.08937199999945" lon="-1.2463760000000006">
        <ele>1001.081</ele>
        <time>2022-08-24T08:44:10Z</time>
      </trkpt>
      <trkpt lat="43.08938499999945" lon="-1.2463860000000007">
        <ele>1001.219</ele>
        <time>2022-08-24T08:44:11Z</time>
      </trkpt>
      <trkpt lat="43.089397999999456" lon="-1.2463950000000006">
        <ele>1001.409</ele>
        <time>2022-08-24T08:44:12Z</time>
      </trkpt>
      <trkpt lat="43.089409999999454" lon="-1.2464060000000006">
        <ele>1001.427</ele>
        <time>2022-08-24T08:44:13Z</time>
      </trkpt>
      <trkpt lat="43.089420999999454" lon="-1.2464170000000006">
        <ele>1001.677</ele>
        <time>2022-08-24T08:44:14Z</time>
      </trkpt>
      <trkpt lat="43.08943399999946" lon="-1.2464260000000005">
        <ele>1001.817</ele>
        <time>2022-08-24T08:44:15Z</time>
      </trkpt>
      <trkpt lat="43.08944499999946" lon="-1.2464330000000006">
        <ele>1002.063</ele>
        <time>2022-08-24T08:44:16Z</time>
      </trkpt>
      <trkpt lat="43.08945599999946" lon="-1.2464420000000005">
        <ele>1002.285</ele>
        <time>2022-08-24T08:44:17Z</time>
      </trkpt>
      <trkpt lat="43.08946799999946" lon="-1.2464550000000005">
        <ele>1002.242</ele>
        <time>2022-08-24T08:44:18Z</time>
      </trkpt>
      <trkpt lat="43.089476999999455" lon="-1.2464650000000006">
        <ele>1002.425</ele>
        <time>2022-08-24T08:44:19Z</time>
      </trkpt>
      <trkpt lat="43.089485999999454" lon="-1.2464770000000005">
        <ele>1002.449</ele>
        <time>2022-08-24T08:44:20Z</time>
      </trkpt>
      <trkpt lat="43.089490999999455" lon="-1.2464890000000004">
        <ele>1002.638</ele>
        <time>2022-08-24T08:44:21Z</time>
      </trkpt>
      <trkpt lat="43.089501999999456" lon="-1.2465030000000004">
        <ele>1003.063</ele>
        <time>2022-08-24T08:44:22Z</time>
      </trkpt>
      <trkpt lat="43.08950999999946" lon="-1.2465170000000003">
        <ele>1003.044</ele>
        <time>2022-08-24T08:44:23Z</time>
      </trkpt>
      <trkpt lat="43.08951799999946" lon="-1.2465310000000003">
        <ele>1003.218</ele>
        <time>2022-08-24T08:44:24Z</time>
      </trkpt>
      <trkpt lat="43.08952599999946" lon="-1.2465470000000003">
        <ele>1003.209</ele>
        <time>2022-08-24T08:44:25Z</time>
      </trkpt>
      <trkpt lat="43.08953499999946" lon="-1.2465670000000002">
        <ele>1003.487</ele>
        <time>2022-08-24T08:44:26Z</time>
      </trkpt>
      <trkpt lat="43.089538999999455" lon="-1.2465840000000001">
        <ele>1003.867</ele>
        <time>2022-08-24T08:44:27Z</time>
      </trkpt>
      <trkpt lat="43.08954299999945" lon="-1.2465970000000002">
        <ele>1003.867</ele>
        <time>2022-08-24T08:44:28Z</time>
      </trkpt>
      <trkpt lat="43.08954599999945" lon="-1.2466120000000003">
        <ele>1004.233</ele>
        <time>2022-08-24T08:44:29Z</time>
      </trkpt>
      <trkpt lat="43.08954999999945" lon="-1.2466260000000002">
        <ele>1004.485</ele>
        <time>2022-08-24T08:44:30Z</time>
      </trkpt>
      <trkpt lat="43.08954899999945" lon="-1.2466430000000002">
        <ele>1004.842</ele>
        <time>2022-08-24T08:44:31Z</time>
      </trkpt>
      <trkpt lat="43.08954599999945" lon="-1.24666">
        <ele>1005.055</ele>
        <time>2022-08-24T08:44:32Z</time>
      </trkpt>
      <trkpt lat="43.08954399999945" lon="-1.2466730000000001">
        <ele>1005.429</ele>
        <time>2022-08-24T08:44:33Z</time>
      </trkpt>
      <trkpt lat="43.08954099999945" lon="-1.246687">
        <ele>1005.678</ele>
        <time>2022-08-24T08:44:34Z</time>
      </trkpt>
      <trkpt lat="43.08953799999945" lon="-1.246701">
        <ele>1005.642</ele>
        <time>2022-08-24T08:44:35Z</time>
      </trkpt>
      <trkpt lat="43.08953399999945" lon="-1.2467190000000001">
        <ele>1005.822</ele>
        <time>2022-08-24T08:44:36Z</time>
      </trkpt>
      <trkpt lat="43.089527999999454" lon="-1.2467350000000001">
        <ele>1006.014</ele>
        <time>2022-08-24T08:44:37Z</time>
      </trkpt>
      <trkpt lat="43.089524999999455" lon="-1.2467480000000002">
        <ele>1006.209</ele>
        <time>2022-08-24T08:44:38Z</time>
      </trkpt>
      <trkpt lat="43.08952299999945" lon="-1.2467650000000001">
        <ele>1006.485</ele>
        <time>2022-08-24T08:44:39Z</time>
      </trkpt>
      <trkpt lat="43.08952299999945" lon="-1.2467840000000001">
        <ele>1006.615</ele>
        <time>2022-08-24T08:44:40Z</time>
      </trkpt>
      <trkpt lat="43.08952299999945" lon="-1.246806">
        <ele>1006.865</ele>
        <time>2022-08-24T08:44:41Z</time>
      </trkpt>
      <trkpt lat="43.08952399999945" lon="-1.246822">
        <ele>1007.051</ele>
        <time>2022-08-24T08:44:42Z</time>
      </trkpt>
      <trkpt lat="43.08952299999945" lon="-1.246834">
        <ele>1007.253</ele>
        <time>2022-08-24T08:44:43Z</time>
      </trkpt>
      <trkpt lat="43.08952099999945" lon="-1.246846">
        <ele>1007.290</ele>
        <time>2022-08-24T08:44:44Z</time>
      </trkpt>
      <trkpt lat="43.089516999999454" lon="-1.2468629999999998">
        <ele>1007.413</ele>
        <time>2022-08-24T08:44:45Z</time>
      </trkpt>
      <trkpt lat="43.08951299999946" lon="-1.246881">
        <ele>1007.647</ele>
        <time>2022-08-24T08:44:46Z</time>
      </trkpt>
      <trkpt lat="43.08951299999946" lon="-1.2468979999999998">
        <ele>1007.656</ele>
        <time>2022-08-24T08:44:47Z</time>
      </trkpt>
      <trkpt lat="43.08951299999946" lon="-1.246916">
        <ele>1007.882</ele>
        <time>2022-08-24T08:44:48Z</time>
      </trkpt>
      <trkpt lat="43.089513999999454" lon="-1.2469329999999998">
        <ele>1007.843</ele>
        <time>2022-08-24T08:44:49Z</time>
      </trkpt>
      <trkpt lat="43.089513999999454" lon="-1.2469439999999998">
        <ele>1008.017</ele>
        <time>2022-08-24T08:44:50Z</time>
      </trkpt>
      <trkpt lat="43.089516999999454" lon="-1.2469609999999998">
        <ele>1008.009</ele>
        <time>2022-08-24T08:44:51Z</time>
      </trkpt>
      <trkpt lat="43.089521999999455" lon="-1.2469729999999997">
        <ele>1008.069</ele>
        <time>2022-08-24T08:44:52Z</time>
      </trkpt>
      <trkpt lat="43.089524999999455" lon="-1.2469829999999997">
        <ele>1008.279</ele>
        <time>2022-08-24T08:44:53Z</time>
      </trkpt>
      <trkpt lat="43.08952599999945" lon="-1.2469909999999997">
        <ele>1008.279</ele>
        <time>2022-08-24T08:44:54Z</time>
      </trkpt>
      <trkpt lat="43.08951799999945" lon="-1.2470049999999997">
        <ele>1009.015</ele>
        <time>2022-08-24T08:48:35Z</time>
      </trkpt>
      <trkpt lat="43.08944599999945" lon="-1.2470029999999996">
        <ele>1009.237</ele>
        <time>2022-08-24T08:48:40Z</time>
      </trkpt>
      <trkpt lat="43.089432999999445" lon="-1.2470029999999996">
        <ele>1009.214</ele>
        <time>2022-08-24T08:48:41Z</time>
      </trkpt>
      <trkpt lat="43.089418999999445" lon="-1.2470059999999996">
        <ele>1009.687</ele>
        <time>2022-08-24T08:48:42Z</time>
      </trkpt>
      <trkpt lat="43.089404999999445" lon="-1.2470049999999997">
        <ele>1009.871</ele>
        <time>2022-08-24T08:48:43Z</time>
      </trkpt>
      <trkpt lat="43.08938999999945" lon="-1.2470019999999997">
        <ele>1010.020</ele>
        <time>2022-08-24T08:48:44Z</time>
      </trkpt>
      <trkpt lat="43.08937599999945" lon="-1.2470019999999997">
        <ele>1010.242</ele>
        <time>2022-08-24T08:48:45Z</time>
      </trkpt>
      <trkpt lat="43.08933599999945" lon="-1.2470239999999997">
        <ele>1010.222</ele>
        <time>2022-08-24T08:48:48Z</time>
      </trkpt>
      <trkpt lat="43.08932199999945" lon="-1.2470329999999996">
        <ele>1010.214</ele>
        <time>2022-08-24T08:48:49Z</time>
      </trkpt>
      <trkpt lat="43.08929299999945" lon="-1.2470509999999997">
        <ele>1010.209</ele>
        <time>2022-08-24T08:48:51Z</time>
      </trkpt>
      <trkpt lat="43.08928099999945" lon="-1.2470659999999998">
        <ele>1010.245</ele>
        <time>2022-08-24T08:48:52Z</time>
      </trkpt>
      <trkpt lat="43.08925299999945" lon="-1.2470899999999998">
        <ele>1010.045</ele>
        <time>2022-08-24T08:48:54Z</time>
      </trkpt>
      <trkpt lat="43.08919399999945" lon="-1.2471469999999998">
        <ele>1010.075</ele>
        <time>2022-08-24T08:48:58Z</time>
      </trkpt>
      <trkpt lat="43.089178999999454" lon="-1.2471589999999997">
        <ele>1010.251</ele>
        <time>2022-08-24T08:48:59Z</time>
      </trkpt>
      <trkpt lat="43.08916399999946" lon="-1.2471679999999996">
        <ele>1010.253</ele>
        <time>2022-08-24T08:49:00Z</time>
      </trkpt>
      <trkpt lat="43.089150999999454" lon="-1.2471779999999997">
        <ele>1010.280</ele>
        <time>2022-08-24T08:49:01Z</time>
      </trkpt>
      <trkpt lat="43.08913999999945" lon="-1.2471899999999996">
        <ele>1010.653</ele>
        <time>2022-08-24T08:49:02Z</time>
      </trkpt>
      <trkpt lat="43.08912699999945" lon="-1.2472009999999996">
        <ele>1010.627</ele>
        <time>2022-08-24T08:49:03Z</time>
      </trkpt>
      <trkpt lat="43.08911499999945" lon="-1.2472129999999995">
        <ele>1010.836</ele>
        <time>2022-08-24T08:49:04Z</time>
      </trkpt>
      <trkpt lat="43.089102999999454" lon="-1.2472219999999994">
        <ele>1010.851</ele>
        <time>2022-08-24T08:49:05Z</time>
      </trkpt>
      <trkpt lat="43.08906199999945" lon="-1.2472659999999993">
        <ele>1011.201</ele>
        <time>2022-08-24T08:49:09Z</time>
      </trkpt>
      <trkpt lat="43.08905299999945" lon="-1.2472779999999992">
        <ele>1011.211</ele>
        <time>2022-08-24T08:49:10Z</time>
      </trkpt>
      <trkpt lat="43.089029999999454" lon="-1.2473009999999993">
        <ele>1011.409</ele>
        <time>2022-08-24T08:49:12Z</time>
      </trkpt>
      <trkpt lat="43.08895499999945" lon="-1.2473799999999993">
        <ele>1011.846</ele>
        <time>2022-08-24T08:49:18Z</time>
      </trkpt>
      <trkpt lat="43.088922999999454" lon="-1.2474169999999993">
        <ele>1012.296</ele>
        <time>2022-08-24T08:49:21Z</time>
      </trkpt>
      <trkpt lat="43.08891199999945" lon="-1.2474309999999993">
        <ele>1012.286</ele>
        <time>2022-08-24T08:49:22Z</time>
      </trkpt>
      <trkpt lat="43.08885899999945" lon="-1.2474879999999993">
        <ele>1012.652</ele>
        <time>2022-08-24T08:49:26Z</time>
      </trkpt>
      <trkpt lat="43.088837999999456" lon="-1.2475159999999992">
        <ele>1012.834</ele>
        <time>2022-08-24T08:49:28Z</time>
      </trkpt>
      <trkpt lat="43.08882799999945" lon="-1.2475319999999992">
        <ele>1012.841</ele>
        <time>2022-08-24T08:49:29Z</time>
      </trkpt>
      <trkpt lat="43.08881799999945" lon="-1.2475489999999991">
        <ele>1012.844</ele>
        <time>2022-08-24T08:49:30Z</time>
      </trkpt>
      <trkpt lat="43.088790999999446" lon="-1.2475989999999992">
        <ele>1013.068</ele>
        <time>2022-08-24T08:49:33Z</time>
      </trkpt>
      <trkpt lat="43.08877899999945" lon="-1.2476139999999993">
        <ele>1013.027</ele>
        <time>2022-08-24T08:49:34Z</time>
      </trkpt>
      <trkpt lat="43.088768999999445" lon="-1.2476279999999993">
        <ele>1013.259</ele>
        <time>2022-08-24T08:49:35Z</time>
      </trkpt>
      <trkpt lat="43.088746999999444" lon="-1.2476619999999994">
        <ele>1013.203</ele>
        <time>2022-08-24T08:49:37Z</time>
      </trkpt>
      <trkpt lat="43.088737999999445" lon="-1.2476779999999994">
        <ele>1013.423</ele>
        <time>2022-08-24T08:49:38Z</time>
      </trkpt>
      <trkpt lat="43.08871099999944" lon="-1.2477209999999994">
        <ele>1013.409</ele>
        <time>2022-08-24T08:49:41Z</time>
      </trkpt>
      <trkpt lat="43.08869999999944" lon="-1.2477339999999995">
        <ele>1013.436</ele>
        <time>2022-08-24T08:49:42Z</time>
      </trkpt>
      <trkpt lat="43.088667999999444" lon="-1.2477999999999994">
        <ele>1014.226</ele>
        <time>2022-08-24T08:49:46Z</time>
      </trkpt>
      <trkpt lat="43.08865799999944" lon="-1.2478149999999995">
        <ele>1014.666</ele>
        <time>2022-08-24T08:49:47Z</time>
      </trkpt>
      <trkpt lat="43.08861199999944" lon="-1.2478899999999995">
        <ele>1015.272</ele>
        <time>2022-08-24T08:49:52Z</time>
      </trkpt>
      <trkpt lat="43.088599999999445" lon="-1.2479099999999994">
        <ele>1015.254</ele>
        <time>2022-08-24T08:49:53Z</time>
      </trkpt>
      <trkpt lat="43.08859099999945" lon="-1.2479229999999994">
        <ele>1015.251</ele>
        <time>2022-08-24T08:49:54Z</time>
      </trkpt>
      <trkpt lat="43.088580999999444" lon="-1.2479379999999995">
        <ele>1015.254</ele>
        <time>2022-08-24T08:49:55Z</time>
      </trkpt>
      <trkpt lat="43.088571999999445" lon="-1.2479569999999995">
        <ele>1015.268</ele>
        <time>2022-08-24T08:49:56Z</time>
      </trkpt>
      <trkpt lat="43.088562999999446" lon="-1.2479729999999996">
        <ele>1015.287</ele>
        <time>2022-08-24T08:49:57Z</time>
      </trkpt>
      <trkpt lat="43.08855299999944" lon="-1.2479919999999995">
        <ele>1015.226</ele>
        <time>2022-08-24T08:49:58Z</time>
      </trkpt>
      <trkpt lat="43.088543999999445" lon="-1.2480109999999995">
        <ele>1015.247</ele>
        <time>2022-08-24T08:49:59Z</time>
      </trkpt>
      <trkpt lat="43.088532999999444" lon="-1.2480289999999996">
        <ele>1015.411</ele>
        <time>2022-08-24T08:50:00Z</time>
      </trkpt>
      <trkpt lat="43.088523999999445" lon="-1.2480449999999996">
        <ele>1015.609</ele>
        <time>2022-08-24T08:50:01Z</time>
      </trkpt>
      <trkpt lat="43.088512999999445" lon="-1.2480629999999997">
        <ele>1015.863</ele>
        <time>2022-08-24T08:50:02Z</time>
      </trkpt>
      <trkpt lat="43.088501999999444" lon="-1.2480779999999998">
        <ele>1016.283</ele>
        <time>2022-08-24T08:50:03Z</time>
      </trkpt>
      <trkpt lat="43.08849099999944" lon="-1.2480939999999998">
        <ele>1016.243</ele>
        <time>2022-08-24T08:50:04Z</time>
      </trkpt>
      <trkpt lat="43.08848299999944" lon="-1.248109">
        <ele>1016.679</ele>
        <time>2022-08-24T08:50:05Z</time>
      </trkpt>
      <trkpt lat="43.088475999999446" lon="-1.248124">
        <ele>1016.831</ele>
        <time>2022-08-24T08:50:06Z</time>
      </trkpt>
      <trkpt lat="43.088464999999445" lon="-1.24814">
        <ele>1017.038</ele>
        <time>2022-08-24T08:50:07Z</time>
      </trkpt>
      <trkpt lat="43.08845299999945" lon="-1.248156">
        <ele>1017.021</ele>
        <time>2022-08-24T08:50:08Z</time>
      </trkpt>
      <trkpt lat="43.08844099999945" lon="-1.248172">
        <ele>1017.245</ele>
        <time>2022-08-24T08:50:09Z</time>
      </trkpt>
      <trkpt lat="43.08842899999945" lon="-1.248188">
        <ele>1017.244</ele>
        <time>2022-08-24T08:50:10Z</time>
      </trkpt>
      <trkpt lat="43.08841899999945" lon="-1.248204">
        <ele>1017.287</ele>
        <time>2022-08-24T08:50:11Z</time>
      </trkpt>
      <trkpt lat="43.08841099999945" lon="-1.248218">
        <ele>1017.642</ele>
        <time>2022-08-24T08:50:12Z</time>
      </trkpt>
      <trkpt lat="43.08839899999945" lon="-1.2482330000000001">
        <ele>1017.826</ele>
        <time>2022-08-24T08:50:13Z</time>
      </trkpt>
      <trkpt lat="43.08838499999945" lon="-1.2482480000000002">
        <ele>1017.809</ele>
        <time>2022-08-24T08:50:14Z</time>
      </trkpt>
      <trkpt lat="43.088374999999445" lon="-1.2482620000000002">
        <ele>1018.039</ele>
        <time>2022-08-24T08:50:15Z</time>
      </trkpt>
      <trkpt lat="43.08836299999945" lon="-1.2482780000000002">
        <ele>1018.079</ele>
        <time>2022-08-24T08:50:16Z</time>
      </trkpt>
      <trkpt lat="43.08835099999945" lon="-1.2482910000000003">
        <ele>1018.299</ele>
        <time>2022-08-24T08:50:17Z</time>
      </trkpt>
      <trkpt lat="43.08833999999945" lon="-1.2483020000000002">
        <ele>1018.485</ele>
        <time>2022-08-24T08:50:18Z</time>
      </trkpt>
      <trkpt lat="43.08832899999945" lon="-1.2483150000000003">
        <ele>1018.647</ele>
        <time>2022-08-24T08:50:19Z</time>
      </trkpt>
      <trkpt lat="43.08831999999945" lon="-1.2483300000000004">
        <ele>1018.814</ele>
        <time>2022-08-24T08:50:20Z</time>
      </trkpt>
      <trkpt lat="43.088309999999446" lon="-1.2483420000000003">
        <ele>1018.837</ele>
        <time>2022-08-24T08:50:21Z</time>
      </trkpt>
      <trkpt lat="43.088298999999445" lon="-1.2483560000000002">
        <ele>1019.031</ele>
        <time>2022-08-24T08:50:22Z</time>
      </trkpt>
      <trkpt lat="43.08828699999945" lon="-1.2483720000000003">
        <ele>1019.030</ele>
        <time>2022-08-24T08:50:23Z</time>
      </trkpt>
      <trkpt lat="43.088276999999444" lon="-1.2483850000000003">
        <ele>1019.412</ele>
        <time>2022-08-24T08:50:24Z</time>
      </trkpt>
      <trkpt lat="43.088264999999446" lon="-1.2483980000000003">
        <ele>1019.432</ele>
        <time>2022-08-24T08:50:25Z</time>
      </trkpt>
      <trkpt lat="43.08825299999945" lon="-1.2484110000000004">
        <ele>1019.605</ele>
        <time>2022-08-24T08:50:26Z</time>
      </trkpt>
      <trkpt lat="43.088242999999444" lon="-1.2484230000000003">
        <ele>1019.809</ele>
        <time>2022-08-24T08:50:27Z</time>
      </trkpt>
      <trkpt lat="43.088233999999446" lon="-1.2484330000000003">
        <ele>1019.862</ele>
        <time>2022-08-24T08:50:28Z</time>
      </trkpt>
      <trkpt lat="43.08822499999945" lon="-1.2484460000000004">
        <ele>1019.852</ele>
        <time>2022-08-24T08:50:29Z</time>
      </trkpt>
      <trkpt lat="43.088216999999446" lon="-1.2484600000000003">
        <ele>1019.822</ele>
        <time>2022-08-24T08:50:30Z</time>
      </trkpt>
      <trkpt lat="43.08820799999945" lon="-1.2484750000000004">
        <ele>1020.098</ele>
        <time>2022-08-24T08:50:31Z</time>
      </trkpt>
      <trkpt lat="43.08819899999945" lon="-1.2484900000000005">
        <ele>1020.020</ele>
        <time>2022-08-24T08:50:32Z</time>
      </trkpt>
      <trkpt lat="43.08818699999945" lon="-1.2485040000000005">
        <ele>1020.297</ele>
        <time>2022-08-24T08:50:33Z</time>
      </trkpt>
      <trkpt lat="43.08817499999945" lon="-1.2485160000000004">
        <ele>1020.280</ele>
        <time>2022-08-24T08:50:34Z</time>
      </trkpt>
      <trkpt lat="43.08816099999945" lon="-1.2485310000000005">
        <ele>1020.234</ele>
        <time>2022-08-24T08:50:35Z</time>
      </trkpt>
      <trkpt lat="43.088153999999456" lon="-1.2485480000000004">
        <ele>1020.483</ele>
        <time>2022-08-24T08:50:36Z</time>
      </trkpt>
      <trkpt lat="43.08814699999946" lon="-1.2485630000000005">
        <ele>1020.473</ele>
        <time>2022-08-24T08:50:37Z</time>
      </trkpt>
      <trkpt lat="43.08813999999946" lon="-1.2485760000000006">
        <ele>1020.685</ele>
        <time>2022-08-24T08:50:38Z</time>
      </trkpt>
      <trkpt lat="43.08813199999946" lon="-1.2485910000000007">
        <ele>1020.613</ele>
        <time>2022-08-24T08:50:39Z</time>
      </trkpt>
      <trkpt lat="43.08812399999946" lon="-1.2486030000000006">
        <ele>1020.809</ele>
        <time>2022-08-24T08:50:40Z</time>
      </trkpt>
      <trkpt lat="43.08811399999946" lon="-1.2486160000000006">
        <ele>1020.878</ele>
        <time>2022-08-24T08:50:41Z</time>
      </trkpt>
      <trkpt lat="43.088105999999456" lon="-1.2486310000000007">
        <ele>1021.078</ele>
        <time>2022-08-24T08:50:42Z</time>
      </trkpt>
      <trkpt lat="43.08809899999946" lon="-1.2486470000000007">
        <ele>1021.018</ele>
        <time>2022-08-24T08:50:43Z</time>
      </trkpt>
      <trkpt lat="43.08809099999946" lon="-1.2486630000000007">
        <ele>1021.084</ele>
        <time>2022-08-24T08:50:44Z</time>
      </trkpt>
      <trkpt lat="43.088080999999455" lon="-1.2486770000000007">
        <ele>1021.266</ele>
        <time>2022-08-24T08:50:45Z</time>
      </trkpt>
      <trkpt lat="43.08807099999945" lon="-1.2486900000000007">
        <ele>1021.463</ele>
        <time>2022-08-24T08:50:46Z</time>
      </trkpt>
      <trkpt lat="43.088061999999454" lon="-1.2487030000000008">
        <ele>1021.486</ele>
        <time>2022-08-24T08:50:47Z</time>
      </trkpt>
      <trkpt lat="43.08805399999945" lon="-1.2487190000000008">
        <ele>1021.660</ele>
        <time>2022-08-24T08:50:48Z</time>
      </trkpt>
      <trkpt lat="43.088046999999456" lon="-1.2487310000000007">
        <ele>1021.659</ele>
        <time>2022-08-24T08:50:49Z</time>
      </trkpt>
      <trkpt lat="43.08803999999946" lon="-1.2487430000000006">
        <ele>1021.856</ele>
        <time>2022-08-24T08:50:50Z</time>
      </trkpt>
      <trkpt lat="43.08803299999946" lon="-1.2487560000000006">
        <ele>1021.859</ele>
        <time>2022-08-24T08:50:51Z</time>
      </trkpt>
      <trkpt lat="43.08802499999946" lon="-1.2487720000000007">
        <ele>1022.014</ele>
        <time>2022-08-24T08:50:52Z</time>
      </trkpt>
      <trkpt lat="43.08801999999946" lon="-1.2487880000000007">
        <ele>1022.209</ele>
        <time>2022-08-24T08:50:53Z</time>
      </trkpt>
      <trkpt lat="43.08801499999946" lon="-1.2488030000000008">
        <ele>1022.256</ele>
        <time>2022-08-24T08:50:54Z</time>
      </trkpt>
      <trkpt lat="43.08800799999946" lon="-1.2488200000000007">
        <ele>1022.436</ele>
        <time>2022-08-24T08:50:55Z</time>
      </trkpt>
      <trkpt lat="43.08799999999946" lon="-1.2488340000000007">
        <ele>1022.426</ele>
        <time>2022-08-24T08:50:56Z</time>
      </trkpt>
      <trkpt lat="43.08799399999946" lon="-1.2488500000000007">
        <ele>1022.472</ele>
        <time>2022-08-24T08:50:57Z</time>
      </trkpt>
      <trkpt lat="43.08798499999946" lon="-1.2488670000000006">
        <ele>1022.644</ele>
        <time>2022-08-24T08:50:58Z</time>
      </trkpt>
      <trkpt lat="43.087975999999465" lon="-1.2488870000000005">
        <ele>1022.641</ele>
        <time>2022-08-24T08:50:59Z</time>
      </trkpt>
      <trkpt lat="43.087969999999466" lon="-1.2489080000000006">
        <ele>1022.864</ele>
        <time>2022-08-24T08:51:00Z</time>
      </trkpt>
      <trkpt lat="43.087961999999465" lon="-1.2489300000000005">
        <ele>1022.898</ele>
        <time>2022-08-24T08:51:01Z</time>
      </trkpt>
      <trkpt lat="43.087952999999466" lon="-1.2489520000000005">
        <ele>1023.067</ele>
        <time>2022-08-24T08:51:02Z</time>
      </trkpt>
      <trkpt lat="43.087944999999465" lon="-1.2489740000000005">
        <ele>1023.253</ele>
        <time>2022-08-24T08:51:03Z</time>
      </trkpt>
      <trkpt lat="43.087935999999466" lon="-1.2489990000000004">
        <ele>1023.404</ele>
        <time>2022-08-24T08:51:04Z</time>
      </trkpt>
      <trkpt lat="43.08792599999946" lon="-1.2490220000000005">
        <ele>1023.614</ele>
        <time>2022-08-24T08:51:05Z</time>
      </trkpt>
      <trkpt lat="43.08791499999946" lon="-1.2490470000000005">
        <ele>1023.809</ele>
        <time>2022-08-24T08:51:06Z</time>
      </trkpt>
      <trkpt lat="43.08790699999946" lon="-1.2490700000000006">
        <ele>1024.276</ele>
        <time>2022-08-24T08:51:07Z</time>
      </trkpt>
      <trkpt lat="43.08789699999946" lon="-1.2490930000000007">
        <ele>1024.426</ele>
        <time>2022-08-24T08:51:08Z</time>
      </trkpt>
      <trkpt lat="43.08788599999946" lon="-1.2491170000000007">
        <ele>1024.446</ele>
        <time>2022-08-24T08:51:09Z</time>
      </trkpt>
      <trkpt lat="43.087877999999456" lon="-1.2491410000000007">
        <ele>1024.632</ele>
        <time>2022-08-24T08:51:10Z</time>
      </trkpt>
      <trkpt lat="43.087869999999455" lon="-1.2491600000000007">
        <ele>1024.894</ele>
        <time>2022-08-24T08:51:11Z</time>
      </trkpt>
      <trkpt lat="43.08786099999946" lon="-1.2491840000000007">
        <ele>1025.231</ele>
        <time>2022-08-24T08:51:12Z</time>
      </trkpt>
      <trkpt lat="43.087852999999456" lon="-1.2492080000000008">
        <ele>1025.494</ele>
        <time>2022-08-24T08:51:13Z</time>
      </trkpt>
      <trkpt lat="43.087844999999454" lon="-1.2492300000000007">
        <ele>1025.638</ele>
        <time>2022-08-24T08:51:14Z</time>
      </trkpt>
      <trkpt lat="43.087835999999456" lon="-1.2492530000000008">
        <ele>1025.837</ele>
        <time>2022-08-24T08:51:15Z</time>
      </trkpt>
      <trkpt lat="43.087832999999456" lon="-1.2492740000000009">
        <ele>1026.061</ele>
        <time>2022-08-24T08:51:16Z</time>
      </trkpt>
      <trkpt lat="43.087824999999455" lon="-1.2492960000000009">
        <ele>1026.021</ele>
        <time>2022-08-24T08:51:17Z</time>
      </trkpt>
      <trkpt lat="43.087813999999454" lon="-1.249317000000001">
        <ele>1026.213</ele>
        <time>2022-08-24T08:51:18Z</time>
      </trkpt>
      <trkpt lat="43.087807999999455" lon="-1.249338000000001">
        <ele>1026.409</ele>
        <time>2022-08-24T08:51:19Z</time>
      </trkpt>
      <trkpt lat="43.087802999999454" lon="-1.249360000000001">
        <ele>1026.447</ele>
        <time>2022-08-24T08:51:20Z</time>
      </trkpt>
      <trkpt lat="43.087796999999455" lon="-1.249383000000001">
        <ele>1026.627</ele>
        <time>2022-08-24T08:51:21Z</time>
      </trkpt>
      <trkpt lat="43.08778999999946" lon="-1.249403000000001">
        <ele>1026.627</ele>
        <time>2022-08-24T08:51:22Z</time>
      </trkpt>
      <trkpt lat="43.08778299999946" lon="-1.249424000000001">
        <ele>1026.863</ele>
        <time>2022-08-24T08:51:23Z</time>
      </trkpt>
      <trkpt lat="43.08777699999946" lon="-1.2494440000000009">
        <ele>1026.885</ele>
        <time>2022-08-24T08:51:24Z</time>
      </trkpt>
      <trkpt lat="43.087769999999466" lon="-1.249465000000001">
        <ele>1027.032</ele>
        <time>2022-08-24T08:51:25Z</time>
      </trkpt>
      <trkpt lat="43.08776299999947" lon="-1.249484000000001">
        <ele>1027.275</ele>
        <time>2022-08-24T08:51:26Z</time>
      </trkpt>
      <trkpt lat="43.08775499999947" lon="-1.249502000000001">
        <ele>1027.229</ele>
        <time>2022-08-24T08:51:27Z</time>
      </trkpt>
      <trkpt lat="43.08774599999947" lon="-1.249518000000001">
        <ele>1027.448</ele>
        <time>2022-08-24T08:51:28Z</time>
      </trkpt>
      <trkpt lat="43.08773799999947" lon="-1.249532000000001">
        <ele>1027.471</ele>
        <time>2022-08-24T08:51:29Z</time>
      </trkpt>
      <trkpt lat="43.08772699999947" lon="-1.249546000000001">
        <ele>1027.441</ele>
        <time>2022-08-24T08:51:30Z</time>
      </trkpt>
      <trkpt lat="43.087716999999465" lon="-1.249559000000001">
        <ele>1027.615</ele>
        <time>2022-08-24T08:51:31Z</time>
      </trkpt>
      <trkpt lat="43.087707999999466" lon="-1.249575000000001">
        <ele>1027.609</ele>
        <time>2022-08-24T08:51:32Z</time>
      </trkpt>
      <trkpt lat="43.08769899999947" lon="-1.249589000000001">
        <ele>1028.098</ele>
        <time>2022-08-24T08:51:33Z</time>
      </trkpt>
      <trkpt lat="43.08769099999947" lon="-1.249603000000001">
        <ele>1027.818</ele>
        <time>2022-08-24T08:51:34Z</time>
      </trkpt>
      <trkpt lat="43.08768399999947" lon="-1.249618000000001">
        <ele>1028.048</ele>
        <time>2022-08-24T08:51:35Z</time>
      </trkpt>
      <trkpt lat="43.08767899999947" lon="-1.249631000000001">
        <ele>1028.224</ele>
        <time>2022-08-24T08:51:36Z</time>
      </trkpt>
      <trkpt lat="43.08767099999947" lon="-1.249648000000001">
        <ele>1028.216</ele>
        <time>2022-08-24T08:51:37Z</time>
      </trkpt>
      <trkpt lat="43.087665999999466" lon="-1.249664000000001">
        <ele>1028.293</ele>
        <time>2022-08-24T08:51:38Z</time>
      </trkpt>
      <trkpt lat="43.08765999999947" lon="-1.249680000000001">
        <ele>1028.496</ele>
        <time>2022-08-24T08:51:39Z</time>
      </trkpt>
      <trkpt lat="43.087654999999465" lon="-1.249699000000001">
        <ele>1028.650</ele>
        <time>2022-08-24T08:51:40Z</time>
      </trkpt>
      <trkpt lat="43.08764799999947" lon="-1.249718000000001">
        <ele>1028.679</ele>
        <time>2022-08-24T08:51:41Z</time>
      </trkpt>
      <trkpt lat="43.08763899999947" lon="-1.249735000000001">
        <ele>1028.838</ele>
        <time>2022-08-24T08:51:42Z</time>
      </trkpt>
      <trkpt lat="43.08762599999947" lon="-1.249750000000001">
        <ele>1029.070</ele>
        <time>2022-08-24T08:51:43Z</time>
      </trkpt>
      <trkpt lat="43.087615999999464" lon="-1.249763000000001">
        <ele>1029.017</ele>
        <time>2022-08-24T08:51:44Z</time>
      </trkpt>
      <trkpt lat="43.08760299999946" lon="-1.249780000000001">
        <ele>1029.209</ele>
        <time>2022-08-24T08:51:45Z</time>
      </trkpt>
      <trkpt lat="43.08759199999946" lon="-1.249798000000001">
        <ele>1029.444</ele>
        <time>2022-08-24T08:51:46Z</time>
      </trkpt>
      <trkpt lat="43.08757999999946" lon="-1.2498130000000012">
        <ele>1029.614</ele>
        <time>2022-08-24T08:51:47Z</time>
      </trkpt>
      <trkpt lat="43.087567999999465" lon="-1.249825000000001">
        <ele>1029.634</ele>
        <time>2022-08-24T08:51:48Z</time>
      </trkpt>
      <trkpt lat="43.087553999999464" lon="-1.249839000000001">
        <ele>1029.630</ele>
        <time>2022-08-24T08:51:49Z</time>
      </trkpt>
      <trkpt lat="43.087541999999466" lon="-1.249852000000001">
        <ele>1029.882</ele>
        <time>2022-08-24T08:51:50Z</time>
      </trkpt>
      <trkpt lat="43.087530999999466" lon="-1.249866000000001">
        <ele>1030.059</ele>
        <time>2022-08-24T08:51:51Z</time>
      </trkpt>
      <trkpt lat="43.08752099999946" lon="-1.249880000000001">
        <ele>1030.232</ele>
        <time>2022-08-24T08:51:52Z</time>
      </trkpt>
      <trkpt lat="43.087508999999464" lon="-1.249895000000001">
        <ele>1030.266</ele>
        <time>2022-08-24T08:51:53Z</time>
      </trkpt>
      <trkpt lat="43.08749599999946" lon="-1.2499080000000011">
        <ele>1030.485</ele>
        <time>2022-08-24T08:51:54Z</time>
      </trkpt>
      <trkpt lat="43.08748399999946" lon="-1.2499160000000011">
        <ele>1030.473</ele>
        <time>2022-08-24T08:51:55Z</time>
      </trkpt>
      <trkpt lat="43.08747099999946" lon="-1.2499260000000012">
        <ele>1030.885</ele>
        <time>2022-08-24T08:51:56Z</time>
      </trkpt>
      <trkpt lat="43.08745699999946" lon="-1.2499370000000012">
        <ele>1031.013</ele>
        <time>2022-08-24T08:51:57Z</time>
      </trkpt>
      <trkpt lat="43.08744399999946" lon="-1.2499480000000012">
        <ele>1031.209</ele>
        <time>2022-08-24T08:51:58Z</time>
      </trkpt>
      <trkpt lat="43.08742999999946" lon="-1.249960000000001">
        <ele>1031.478</ele>
        <time>2022-08-24T08:51:59Z</time>
      </trkpt>
      <trkpt lat="43.08741599999946" lon="-1.249972000000001">
        <ele>1031.678</ele>
        <time>2022-08-24T08:52:00Z</time>
      </trkpt>
      <trkpt lat="43.08740099999946" lon="-1.249982000000001">
        <ele>1031.828</ele>
        <time>2022-08-24T08:52:01Z</time>
      </trkpt>
      <trkpt lat="43.08738599999946" lon="-1.249988000000001">
        <ele>1032.054</ele>
        <time>2022-08-24T08:52:02Z</time>
      </trkpt>
      <trkpt lat="43.08737299999946" lon="-1.249991000000001">
        <ele>1032.446</ele>
        <time>2022-08-24T08:52:03Z</time>
      </trkpt>
      <trkpt lat="43.08736199999946" lon="-1.249996000000001">
        <ele>1032.663</ele>
        <time>2022-08-24T08:52:04Z</time>
      </trkpt>
      <trkpt lat="43.08734799999946" lon="-1.2500000000000009">
        <ele>1032.626</ele>
        <time>2022-08-24T08:52:05Z</time>
      </trkpt>
      <trkpt lat="43.08733699999946" lon="-1.2500060000000008">
        <ele>1032.890</ele>
        <time>2022-08-24T08:52:06Z</time>
      </trkpt>
      <trkpt lat="43.087323999999455" lon="-1.250013000000001">
        <ele>1032.859</ele>
        <time>2022-08-24T08:52:07Z</time>
      </trkpt>
      <trkpt lat="43.087306999999456" lon="-1.250021000000001">
        <ele>1033.052</ele>
        <time>2022-08-24T08:52:08Z</time>
      </trkpt>
      <trkpt lat="43.087292999999455" lon="-1.250023000000001">
        <ele>1033.253</ele>
        <time>2022-08-24T08:52:09Z</time>
      </trkpt>
      <trkpt lat="43.08727999999945" lon="-1.250029000000001">
        <ele>1033.408</ele>
        <time>2022-08-24T08:52:10Z</time>
      </trkpt>
      <trkpt lat="43.08726899999945" lon="-1.250034000000001">
        <ele>1033.609</ele>
        <time>2022-08-24T08:52:11Z</time>
      </trkpt>
      <trkpt lat="43.08725799999945" lon="-1.250040000000001">
        <ele>1033.686</ele>
        <time>2022-08-24T08:52:12Z</time>
      </trkpt>
      <trkpt lat="43.087242999999454" lon="-1.250047000000001">
        <ele>1033.696</ele>
        <time>2022-08-24T08:52:13Z</time>
      </trkpt>
      <trkpt lat="43.08722899999945" lon="-1.250049000000001">
        <ele>1033.846</ele>
        <time>2022-08-24T08:52:14Z</time>
      </trkpt>
      <trkpt lat="43.08721299999945" lon="-1.250050000000001">
        <ele>1033.832</ele>
        <time>2022-08-24T08:52:15Z</time>
      </trkpt>
      <trkpt lat="43.08719599999945" lon="-1.250055000000001">
        <ele>1034.054</ele>
        <time>2022-08-24T08:52:16Z</time>
      </trkpt>
      <trkpt lat="43.087180999999454" lon="-1.250060000000001">
        <ele>1034.251</ele>
        <time>2022-08-24T08:52:17Z</time>
      </trkpt>
      <trkpt lat="43.087165999999456" lon="-1.250064000000001">
        <ele>1034.444</ele>
        <time>2022-08-24T08:52:18Z</time>
      </trkpt>
      <trkpt lat="43.087152999999454" lon="-1.250069000000001">
        <ele>1034.678</ele>
        <time>2022-08-24T08:52:19Z</time>
      </trkpt>
      <trkpt lat="43.087140999999455" lon="-1.2500730000000009">
        <ele>1034.637</ele>
        <time>2022-08-24T08:52:20Z</time>
      </trkpt>
      <trkpt lat="43.08712899999946" lon="-1.2500770000000008">
        <ele>1034.827</ele>
        <time>2022-08-24T08:52:21Z</time>
      </trkpt>
      <trkpt lat="43.08711399999946" lon="-1.2500780000000007">
        <ele>1035.068</ele>
        <time>2022-08-24T08:52:22Z</time>
      </trkpt>
      <trkpt lat="43.08709699999946" lon="-1.2500800000000007">
        <ele>1035.014</ele>
        <time>2022-08-24T08:52:23Z</time>
      </trkpt>
      <trkpt lat="43.08708199999946" lon="-1.2500820000000008">
        <ele>1035.009</ele>
        <time>2022-08-24T08:52:24Z</time>
      </trkpt>
      <trkpt lat="43.08706599999946" lon="-1.2500840000000009">
        <ele>1035.273</ele>
        <time>2022-08-24T08:52:25Z</time>
      </trkpt>
      <trkpt lat="43.08705399999946" lon="-1.2500870000000008">
        <ele>1035.213</ele>
        <time>2022-08-24T08:52:26Z</time>
      </trkpt>
      <trkpt lat="43.087038999999464" lon="-1.2500900000000008">
        <ele>1035.223</ele>
        <time>2022-08-24T08:52:27Z</time>
      </trkpt>
      <trkpt lat="43.087024999999464" lon="-1.2500960000000008">
        <ele>1035.259</ele>
        <time>2022-08-24T08:52:28Z</time>
      </trkpt>
      <trkpt lat="43.087010999999464" lon="-1.2501010000000008">
        <ele>1035.461</ele>
        <time>2022-08-24T08:52:29Z</time>
      </trkpt>
      <trkpt lat="43.08699499999946" lon="-1.2501060000000008">
        <ele>1035.488</ele>
        <time>2022-08-24T08:52:30Z</time>
      </trkpt>
      <trkpt lat="43.086979999999464" lon="-1.2501070000000007">
        <ele>1035.411</ele>
        <time>2022-08-24T08:52:31Z</time>
      </trkpt>
      <trkpt lat="43.08696199999947" lon="-1.2501110000000006">
        <ele>1035.615</ele>
        <time>2022-08-24T08:52:32Z</time>
      </trkpt>
      <trkpt lat="43.086945999999465" lon="-1.2501150000000005">
        <ele>1035.624</ele>
        <time>2022-08-24T08:52:33Z</time>
      </trkpt>
      <trkpt lat="43.086928999999465" lon="-1.2501180000000005">
        <ele>1035.857</ele>
        <time>2022-08-24T08:52:34Z</time>
      </trkpt>
      <trkpt lat="43.08691099999947" lon="-1.2501230000000005">
        <ele>1036.000</ele>
        <time>2022-08-24T08:52:35Z</time>
      </trkpt>
      <trkpt lat="43.08689399999947" lon="-1.2501250000000006">
        <ele>1036.220</ele>
        <time>2022-08-24T08:52:36Z</time>
      </trkpt>
      <trkpt lat="43.08687899999947" lon="-1.2501280000000006">
        <ele>1036.409</ele>
        <time>2022-08-24T08:52:37Z</time>
      </trkpt>
      <trkpt lat="43.08686399999947" lon="-1.2501330000000006">
        <ele>1036.616</ele>
        <time>2022-08-24T08:52:38Z</time>
      </trkpt>
      <trkpt lat="43.08684799999947" lon="-1.2501390000000006">
        <ele>1036.866</ele>
        <time>2022-08-24T08:52:39Z</time>
      </trkpt>
      <trkpt lat="43.08683399999947" lon="-1.2501400000000005">
        <ele>1037.026</ele>
        <time>2022-08-24T08:52:40Z</time>
      </trkpt>
      <trkpt lat="43.08681899999947" lon="-1.2501410000000004">
        <ele>1037.462</ele>
        <time>2022-08-24T08:52:41Z</time>
      </trkpt>
      <trkpt lat="43.086806999999474" lon="-1.2501410000000004">
        <ele>1037.624</ele>
        <time>2022-08-24T08:52:42Z</time>
      </trkpt>
      <trkpt lat="43.086786999999475" lon="-1.2501450000000003">
        <ele>1037.671</ele>
        <time>2022-08-24T08:52:43Z</time>
      </trkpt>
      <trkpt lat="43.086769999999476" lon="-1.2501510000000002">
        <ele>1037.824</ele>
        <time>2022-08-24T08:52:44Z</time>
      </trkpt>
      <trkpt lat="43.08675499999948" lon="-1.2501570000000002">
        <ele>1037.888</ele>
        <time>2022-08-24T08:52:45Z</time>
      </trkpt>
      <trkpt lat="43.086741999999475" lon="-1.2501650000000002">
        <ele>1038.017</ele>
        <time>2022-08-24T08:52:46Z</time>
      </trkpt>
      <trkpt lat="43.08672899999947" lon="-1.2501720000000003">
        <ele>1038.031</ele>
        <time>2022-08-24T08:52:47Z</time>
      </trkpt>
      <trkpt lat="43.08671499999947" lon="-1.2501780000000002">
        <ele>1038.061</ele>
        <time>2022-08-24T08:52:48Z</time>
      </trkpt>
      <trkpt lat="43.086699999999475" lon="-1.2501890000000002">
        <ele>1038.207</ele>
        <time>2022-08-24T08:52:49Z</time>
      </trkpt>
      <trkpt lat="43.08668399999947" lon="-1.2501960000000003">
        <ele>1038.209</ele>
        <time>2022-08-24T08:52:50Z</time>
      </trkpt>
      <trkpt lat="43.08666999999947" lon="-1.2502020000000003">
        <ele>1038.464</ele>
        <time>2022-08-24T08:52:51Z</time>
      </trkpt>
      <trkpt lat="43.08665399999947" lon="-1.2502080000000002">
        <ele>1038.674</ele>
        <time>2022-08-24T08:52:52Z</time>
      </trkpt>
      <trkpt lat="43.08663899999947" lon="-1.2502180000000003">
        <ele>1038.864</ele>
        <time>2022-08-24T08:52:53Z</time>
      </trkpt>
      <trkpt lat="43.08662599999947" lon="-1.2502280000000003">
        <ele>1039.050</ele>
        <time>2022-08-24T08:52:54Z</time>
      </trkpt>
      <trkpt lat="43.08661199999947" lon="-1.2502410000000004">
        <ele>1039.292</ele>
        <time>2022-08-24T08:52:55Z</time>
      </trkpt>
      <trkpt lat="43.08659999999947" lon="-1.2502540000000004">
        <ele>1039.469</ele>
        <time>2022-08-24T08:52:56Z</time>
      </trkpt>
      <trkpt lat="43.08658799999947" lon="-1.2502640000000005">
        <ele>1039.412</ele>
        <time>2022-08-24T08:52:57Z</time>
      </trkpt>
      <trkpt lat="43.086575999999475" lon="-1.2502720000000005">
        <ele>1039.646</ele>
        <time>2022-08-24T08:52:58Z</time>
      </trkpt>
      <trkpt lat="43.08656399999948" lon="-1.2502800000000005">
        <ele>1039.855</ele>
        <time>2022-08-24T08:52:59Z</time>
      </trkpt>
      <trkpt lat="43.086550999999474" lon="-1.2502880000000005">
        <ele>1040.044</ele>
        <time>2022-08-24T08:53:00Z</time>
      </trkpt>
      <trkpt lat="43.086536999999474" lon="-1.2503010000000006">
        <ele>1040.005</ele>
        <time>2022-08-24T08:53:01Z</time>
      </trkpt>
      <trkpt lat="43.08652399999947" lon="-1.2503140000000006">
        <ele>1040.215</ele>
        <time>2022-08-24T08:53:02Z</time>
      </trkpt>
      <trkpt lat="43.08650999999947" lon="-1.2503250000000006">
        <ele>1040.409</ele>
        <time>2022-08-24T08:53:03Z</time>
      </trkpt>
      <trkpt lat="43.08649899999947" lon="-1.2503370000000005">
        <ele>1040.455</ele>
        <time>2022-08-24T08:53:04Z</time>
      </trkpt>
      <trkpt lat="43.08648899999947" lon="-1.2503520000000006">
        <ele>1041.085</ele>
        <time>2022-08-24T08:53:05Z</time>
      </trkpt>
      <trkpt lat="43.08647799999947" lon="-1.2503670000000007">
        <ele>1041.235</ele>
        <time>2022-08-24T08:53:06Z</time>
      </trkpt>
      <trkpt lat="43.08646899999947" lon="-1.2503830000000007">
        <ele>1041.271</ele>
        <time>2022-08-24T08:53:07Z</time>
      </trkpt>
      <trkpt lat="43.086458999999465" lon="-1.2503980000000008">
        <ele>1041.633</ele>
        <time>2022-08-24T08:53:08Z</time>
      </trkpt>
      <trkpt lat="43.08644899999946" lon="-1.2504110000000008">
        <ele>1041.810</ele>
        <time>2022-08-24T08:53:09Z</time>
      </trkpt>
      <trkpt lat="43.08643799999946" lon="-1.2504280000000008">
        <ele>1042.073</ele>
        <time>2022-08-24T08:53:10Z</time>
      </trkpt>
      <trkpt lat="43.08642599999946" lon="-1.2504450000000007">
        <ele>1042.037</ele>
        <time>2022-08-24T08:53:11Z</time>
      </trkpt>
      <trkpt lat="43.086416999999464" lon="-1.2504590000000007">
        <ele>1042.236</ele>
        <time>2022-08-24T08:53:12Z</time>
      </trkpt>
      <trkpt lat="43.08640699999946" lon="-1.2504760000000006">
        <ele>1042.477</ele>
        <time>2022-08-24T08:53:13Z</time>
      </trkpt>
      <trkpt lat="43.08639699999946" lon="-1.2504920000000006">
        <ele>1042.861</ele>
        <time>2022-08-24T08:53:14Z</time>
      </trkpt>
      <trkpt lat="43.086386999999455" lon="-1.2505080000000006">
        <ele>1043.027</ele>
        <time>2022-08-24T08:53:15Z</time>
      </trkpt>
      <trkpt lat="43.08637499999946" lon="-1.2505240000000006">
        <ele>1043.209</ele>
        <time>2022-08-24T08:53:16Z</time>
      </trkpt>
      <trkpt lat="43.08636299999946" lon="-1.2505440000000005">
        <ele>1043.498</ele>
        <time>2022-08-24T08:53:17Z</time>
      </trkpt>
      <trkpt lat="43.08635399999946" lon="-1.2505640000000005">
        <ele>1043.648</ele>
        <time>2022-08-24T08:53:18Z</time>
      </trkpt>
      <trkpt lat="43.08634599999946" lon="-1.2505820000000005">
        <ele>1043.838</ele>
        <time>2022-08-24T08:53:19Z</time>
      </trkpt>
      <trkpt lat="43.08633499999946" lon="-1.2506010000000005">
        <ele>1044.234</ele>
        <time>2022-08-24T08:53:20Z</time>
      </trkpt>
      <trkpt lat="43.08632399999946" lon="-1.2506180000000005">
        <ele>1044.276</ele>
        <time>2022-08-24T08:53:21Z</time>
      </trkpt>
      <trkpt lat="43.08631599999946" lon="-1.2506350000000004">
        <ele>1044.433</ele>
        <time>2022-08-24T08:53:22Z</time>
      </trkpt>
      <trkpt lat="43.08630599999945" lon="-1.2506530000000005">
        <ele>1044.426</ele>
        <time>2022-08-24T08:53:23Z</time>
      </trkpt>
      <trkpt lat="43.08629799999945" lon="-1.2506690000000005">
        <ele>1044.630</ele>
        <time>2022-08-24T08:53:24Z</time>
      </trkpt>
      <trkpt lat="43.08628799999945" lon="-1.2506880000000005">
        <ele>1044.689</ele>
        <time>2022-08-24T08:53:25Z</time>
      </trkpt>
      <trkpt lat="43.08628299999945" lon="-1.2507040000000005">
        <ele>1044.666</ele>
        <time>2022-08-24T08:53:26Z</time>
      </trkpt>
      <trkpt lat="43.08627899999945" lon="-1.2507190000000006">
        <ele>1044.829</ele>
        <time>2022-08-24T08:53:27Z</time>
      </trkpt>
      <trkpt lat="43.08627099999945" lon="-1.2507340000000007">
        <ele>1044.821</ele>
        <time>2022-08-24T08:53:28Z</time>
      </trkpt>
      <trkpt lat="43.08625999999945" lon="-1.2507480000000006">
        <ele>1045.009</ele>
        <time>2022-08-24T08:53:29Z</time>
      </trkpt>
      <trkpt lat="43.08624899999945" lon="-1.2507650000000006">
        <ele>1045.057</ele>
        <time>2022-08-24T08:53:30Z</time>
      </trkpt>
      <trkpt lat="43.086238999999445" lon="-1.2507830000000006">
        <ele>1045.257</ele>
        <time>2022-08-24T08:53:31Z</time>
      </trkpt>
      <trkpt lat="43.086230999999444" lon="-1.2508030000000006">
        <ele>1045.277</ele>
        <time>2022-08-24T08:53:32Z</time>
      </trkpt>
      <trkpt lat="43.08622399999945" lon="-1.2508200000000005">
        <ele>1045.623</ele>
        <time>2022-08-24T08:53:33Z</time>
      </trkpt>
      <trkpt lat="43.08621499999945" lon="-1.2508400000000004">
        <ele>1045.865</ele>
        <time>2022-08-24T08:53:34Z</time>
      </trkpt>
      <trkpt lat="43.08620599999945" lon="-1.2508570000000003">
        <ele>1045.832</ele>
        <time>2022-08-24T08:53:35Z</time>
      </trkpt>
      <trkpt lat="43.08619599999945" lon="-1.2508690000000002">
        <ele>1046.085</ele>
        <time>2022-08-24T08:53:36Z</time>
      </trkpt>
      <trkpt lat="43.086185999999444" lon="-1.2508830000000002">
        <ele>1046.039</ele>
        <time>2022-08-24T08:53:37Z</time>
      </trkpt>
      <trkpt lat="43.08617599999944" lon="-1.2508990000000002">
        <ele>1046.228</ele>
        <time>2022-08-24T08:53:38Z</time>
      </trkpt>
      <trkpt lat="43.08616599999944" lon="-1.2509180000000002">
        <ele>1046.673</ele>
        <time>2022-08-24T08:53:39Z</time>
      </trkpt>
      <trkpt lat="43.08615999999944" lon="-1.2509360000000003">
        <ele>1046.685</ele>
        <time>2022-08-24T08:53:40Z</time>
      </trkpt>
      <trkpt lat="43.08615399999944" lon="-1.2509520000000003">
        <ele>1046.813</ele>
        <time>2022-08-24T08:53:41Z</time>
      </trkpt>
      <trkpt lat="43.086143999999436" lon="-1.2509690000000002">
        <ele>1046.609</ele>
        <time>2022-08-24T08:53:42Z</time>
      </trkpt>
      <trkpt lat="43.08613699999944" lon="-1.2509860000000002">
        <ele>1046.828</ele>
        <time>2022-08-24T08:53:43Z</time>
      </trkpt>
      <trkpt lat="43.08613099999944" lon="-1.2510040000000002">
        <ele>1047.078</ele>
        <time>2022-08-24T08:53:44Z</time>
      </trkpt>
      <trkpt lat="43.08612099999944" lon="-1.2510220000000003">
        <ele>1047.248</ele>
        <time>2022-08-24T08:53:45Z</time>
      </trkpt>
      <trkpt lat="43.08611199999944" lon="-1.2510380000000003">
        <ele>1047.484</ele>
        <time>2022-08-24T08:53:46Z</time>
      </trkpt>
      <trkpt lat="43.08610399999944" lon="-1.2510530000000004">
        <ele>1047.486</ele>
        <time>2022-08-24T08:53:47Z</time>
      </trkpt>
      <trkpt lat="43.086093999999434" lon="-1.2510690000000004">
        <ele>1047.633</ele>
        <time>2022-08-24T08:53:48Z</time>
      </trkpt>
      <trkpt lat="43.08608599999943" lon="-1.2510850000000004">
        <ele>1047.656</ele>
        <time>2022-08-24T08:53:49Z</time>
      </trkpt>
      <trkpt lat="43.08607899999944" lon="-1.2511030000000005">
        <ele>1047.860</ele>
        <time>2022-08-24T08:53:50Z</time>
      </trkpt>
      <trkpt lat="43.08607199999944" lon="-1.2511210000000006">
        <ele>1047.849</ele>
        <time>2022-08-24T08:53:51Z</time>
      </trkpt>
      <trkpt lat="43.08606299999944" lon="-1.2511390000000007">
        <ele>1048.284</ele>
        <time>2022-08-24T08:53:52Z</time>
      </trkpt>
      <trkpt lat="43.08605399999944" lon="-1.2511580000000007">
        <ele>1048.407</ele>
        <time>2022-08-24T08:53:53Z</time>
      </trkpt>
      <trkpt lat="43.086044999999444" lon="-1.2511760000000007">
        <ele>1048.617</ele>
        <time>2022-08-24T08:53:54Z</time>
      </trkpt>
      <trkpt lat="43.086033999999444" lon="-1.2511910000000008">
        <ele>1048.809</ele>
        <time>2022-08-24T08:53:55Z</time>
      </trkpt>
      <trkpt lat="43.08601999999944" lon="-1.2512070000000008">
        <ele>1049.059</ele>
        <time>2022-08-24T08:53:56Z</time>
      </trkpt>
      <trkpt lat="43.08600899999944" lon="-1.2512210000000008">
        <ele>1049.259</ele>
        <time>2022-08-24T08:53:57Z</time>
      </trkpt>
      <trkpt lat="43.085999999999444" lon="-1.251236000000001">
        <ele>1049.469</ele>
        <time>2022-08-24T08:53:58Z</time>
      </trkpt>
      <trkpt lat="43.085993999999445" lon="-1.251251000000001">
        <ele>1049.475</ele>
        <time>2022-08-24T08:53:59Z</time>
      </trkpt>
      <trkpt lat="43.08598699999945" lon="-1.251271000000001">
        <ele>1049.677</ele>
        <time>2022-08-24T08:54:00Z</time>
      </trkpt>
      <trkpt lat="43.08598199999945" lon="-1.251289000000001">
        <ele>1049.854</ele>
        <time>2022-08-24T08:54:01Z</time>
      </trkpt>
      <trkpt lat="43.08597599999945" lon="-1.251306000000001">
        <ele>1049.827</ele>
        <time>2022-08-24T08:54:02Z</time>
      </trkpt>
      <trkpt lat="43.08596999999945" lon="-1.2513230000000009">
        <ele>1050.031</ele>
        <time>2022-08-24T08:54:03Z</time>
      </trkpt>
      <trkpt lat="43.08596099999945" lon="-1.251336000000001">
        <ele>1050.440</ele>
        <time>2022-08-24T08:54:04Z</time>
      </trkpt>
      <trkpt lat="43.08595599999945" lon="-1.2513500000000009">
        <ele>1050.845</ele>
        <time>2022-08-24T08:54:05Z</time>
      </trkpt>
      <trkpt lat="43.08594999999945" lon="-1.2513720000000008">
        <ele>1050.847</ele>
        <time>2022-08-24T08:54:06Z</time>
      </trkpt>
      <trkpt lat="43.08594299999945" lon="-1.2513910000000008">
        <ele>1051.011</ele>
        <time>2022-08-24T08:54:07Z</time>
      </trkpt>
      <trkpt lat="43.085936999999454" lon="-1.2514110000000007">
        <ele>1051.209</ele>
        <time>2022-08-24T08:54:08Z</time>
      </trkpt>
      <trkpt lat="43.085930999999455" lon="-1.2514300000000007">
        <ele>1051.475</ele>
        <time>2022-08-24T08:54:09Z</time>
      </trkpt>
      <trkpt lat="43.08592399999946" lon="-1.2514500000000006">
        <ele>1051.885</ele>
        <time>2022-08-24T08:54:10Z</time>
      </trkpt>
      <trkpt lat="43.08591799999946" lon="-1.2514670000000006">
        <ele>1052.265</ele>
        <time>2022-08-24T08:54:11Z</time>
      </trkpt>
      <trkpt lat="43.08591199999946" lon="-1.2514820000000006">
        <ele>1052.671</ele>
        <time>2022-08-24T08:54:12Z</time>
      </trkpt>
      <trkpt lat="43.08590399999946" lon="-1.2515000000000007">
        <ele>1052.633</ele>
        <time>2022-08-24T08:54:13Z</time>
      </trkpt>
      <trkpt lat="43.08589799999946" lon="-1.2515180000000008">
        <ele>1053.030</ele>
        <time>2022-08-24T08:54:14Z</time>
      </trkpt>
      <trkpt lat="43.085890999999464" lon="-1.2515380000000007">
        <ele>1053.253</ele>
        <time>2022-08-24T08:54:15Z</time>
      </trkpt>
      <trkpt lat="43.085881999999465" lon="-1.2515550000000006">
        <ele>1053.277</ele>
        <time>2022-08-24T08:54:16Z</time>
      </trkpt>
      <trkpt lat="43.08587199999946" lon="-1.2515710000000007">
        <ele>1053.486</ele>
        <time>2022-08-24T08:54:17Z</time>
      </trkpt>
      <trkpt lat="43.08586299999946" lon="-1.2515850000000006">
        <ele>1053.686</ele>
        <time>2022-08-24T08:54:18Z</time>
      </trkpt>
      <trkpt lat="43.08584999999946" lon="-1.2516020000000005">
        <ele>1053.860</ele>
        <time>2022-08-24T08:54:19Z</time>
      </trkpt>
      <trkpt lat="43.08583999999946" lon="-1.2516180000000006">
        <ele>1053.826</ele>
        <time>2022-08-24T08:54:20Z</time>
      </trkpt>
      <trkpt lat="43.085831999999456" lon="-1.2516330000000007">
        <ele>1053.809</ele>
        <time>2022-08-24T08:54:21Z</time>
      </trkpt>
      <trkpt lat="43.085823999999455" lon="-1.2516470000000006">
        <ele>1054.039</ele>
        <time>2022-08-24T08:54:22Z</time>
      </trkpt>
      <trkpt lat="43.085815999999454" lon="-1.2516580000000006">
        <ele>1054.019</ele>
        <time>2022-08-24T08:54:23Z</time>
      </trkpt>
      <trkpt lat="43.08580499999945" lon="-1.2516700000000005">
        <ele>1054.299</ele>
        <time>2022-08-24T08:54:24Z</time>
      </trkpt>
      <trkpt lat="43.085792999999455" lon="-1.2516810000000005">
        <ele>1054.245</ele>
        <time>2022-08-24T08:54:25Z</time>
      </trkpt>
      <trkpt lat="43.08578299999945" lon="-1.2516920000000005">
        <ele>1054.637</ele>
        <time>2022-08-24T08:54:26Z</time>
      </trkpt>
      <trkpt lat="43.08577199999945" lon="-1.2517040000000004">
        <ele>1054.684</ele>
        <time>2022-08-24T08:54:27Z</time>
      </trkpt>
      <trkpt lat="43.085764999999455" lon="-1.2517110000000005">
        <ele>1054.897</ele>
        <time>2022-08-24T08:54:28Z</time>
      </trkpt>
      <trkpt lat="43.085753999999454" lon="-1.2517190000000005">
        <ele>1055.031</ele>
        <time>2022-08-24T08:54:29Z</time>
      </trkpt>
      <trkpt lat="43.085739999999454" lon="-1.2517260000000006">
        <ele>1055.020</ele>
        <time>2022-08-24T08:54:30Z</time>
      </trkpt>
      <trkpt lat="43.085727999999456" lon="-1.2517320000000005">
        <ele>1055.412</ele>
        <time>2022-08-24T08:54:31Z</time>
      </trkpt>
      <trkpt lat="43.085710999999456" lon="-1.2517360000000004">
        <ele>1055.432</ele>
        <time>2022-08-24T08:54:32Z</time>
      </trkpt>
      <trkpt lat="43.08570099999945" lon="-1.2517380000000005">
        <ele>1055.605</ele>
        <time>2022-08-24T08:54:33Z</time>
      </trkpt>
      <trkpt lat="43.08568699999945" lon="-1.2517400000000005">
        <ele>1055.809</ele>
        <time>2022-08-24T08:54:34Z</time>
      </trkpt>
      <trkpt lat="43.08566999999945" lon="-1.2517510000000005">
        <ele>1056.052</ele>
        <time>2022-08-24T08:54:35Z</time>
      </trkpt>
      <trkpt lat="43.08565699999945" lon="-1.2517590000000005">
        <ele>1056.242</ele>
        <time>2022-08-24T08:54:36Z</time>
      </trkpt>
      <trkpt lat="43.08564399999945" lon="-1.2517680000000004">
        <ele>1056.482</ele>
        <time>2022-08-24T08:54:37Z</time>
      </trkpt>
      <trkpt lat="43.08563699999945" lon="-1.2517750000000005">
        <ele>1056.678</ele>
        <time>2022-08-24T08:54:38Z</time>
      </trkpt>
      <trkpt lat="43.08562099999945" lon="-1.2517870000000004">
        <ele>1056.880</ele>
        <time>2022-08-24T08:54:39Z</time>
      </trkpt>
      <trkpt lat="43.08560399999945" lon="-1.2518000000000005">
        <ele>1057.087</ele>
        <time>2022-08-24T08:54:40Z</time>
      </trkpt>
      <trkpt lat="43.08558799999945" lon="-1.2518090000000004">
        <ele>1057.240</ele>
        <time>2022-08-24T08:54:41Z</time>
      </trkpt>
      <trkpt lat="43.085571999999445" lon="-1.2518130000000003">
        <ele>1057.464</ele>
        <time>2022-08-24T08:54:42Z</time>
      </trkpt>
      <trkpt lat="43.08555599999944" lon="-1.2518190000000002">
        <ele>1057.663</ele>
        <time>2022-08-24T08:54:43Z</time>
      </trkpt>
      <trkpt lat="43.08554199999944" lon="-1.2518270000000002">
        <ele>1057.873</ele>
        <time>2022-08-24T08:54:44Z</time>
      </trkpt>
      <trkpt lat="43.085526999999445" lon="-1.2518350000000003">
        <ele>1057.885</ele>
        <time>2022-08-24T08:54:45Z</time>
      </trkpt>
      <trkpt lat="43.08551099999944" lon="-1.2518400000000003">
        <ele>1057.813</ele>
        <time>2022-08-24T08:54:46Z</time>
      </trkpt>
      <trkpt lat="43.08549399999944" lon="-1.2518480000000003">
        <ele>1057.809</ele>
        <time>2022-08-24T08:54:47Z</time>
      </trkpt>
      <trkpt lat="43.085478999999445" lon="-1.2518580000000004">
        <ele>1058.088</ele>
        <time>2022-08-24T08:54:48Z</time>
      </trkpt>
      <trkpt lat="43.08546299999944" lon="-1.2518670000000003">
        <ele>1058.088</ele>
        <time>2022-08-24T08:54:49Z</time>
      </trkpt>
      <trkpt lat="43.08544999999944" lon="-1.2518720000000003">
        <ele>1058.088</ele>
        <time>2022-08-24T08:54:50Z</time>
      </trkpt>
      <trkpt lat="43.08543299999944" lon="-1.2518810000000002">
        <ele>1058.024</ele>
        <time>2022-08-24T08:54:51Z</time>
      </trkpt>
      <trkpt lat="43.08541999999944" lon="-1.2518910000000003">
        <ele>1058.226</ele>
        <time>2022-08-24T08:54:52Z</time>
      </trkpt>
      <trkpt lat="43.08540799999944" lon="-1.2518970000000003">
        <ele>1058.223</ele>
        <time>2022-08-24T08:54:53Z</time>
      </trkpt>
      <trkpt lat="43.08539499999944" lon="-1.2519010000000002">
        <ele>1058.626</ele>
        <time>2022-08-24T08:54:54Z</time>
      </trkpt>
      <trkpt lat="43.085381999999434" lon="-1.251907">
        <ele>1058.620</ele>
        <time>2022-08-24T08:54:55Z</time>
      </trkpt>
      <trkpt lat="43.085361999999435" lon="-1.251921">
        <ele>1058.829</ele>
        <time>2022-08-24T08:54:56Z</time>
      </trkpt>
      <trkpt lat="43.085347999999435" lon="-1.251934">
        <ele>1059.075</ele>
        <time>2022-08-24T08:54:57Z</time>
      </trkpt>
      <trkpt lat="43.08533299999944" lon="-1.2519440000000002">
        <ele>1059.028</ele>
        <time>2022-08-24T08:54:58Z</time>
      </trkpt>
      <trkpt lat="43.08531799999944" lon="-1.2519520000000002">
        <ele>1059.220</ele>
        <time>2022-08-24T08:54:59Z</time>
      </trkpt>
      <trkpt lat="43.08530699999944" lon="-1.2519580000000001">
        <ele>1059.209</ele>
        <time>2022-08-24T08:55:00Z</time>
      </trkpt>
      <trkpt lat="43.08528999999944" lon="-1.2519680000000002">
        <ele>1059.468</ele>
        <time>2022-08-24T08:55:01Z</time>
      </trkpt>
      <trkpt lat="43.08527399999944" lon="-1.2519770000000001">
        <ele>1059.688</ele>
        <time>2022-08-24T08:55:02Z</time>
      </trkpt>
      <trkpt lat="43.08525699999944" lon="-1.2519850000000001">
        <ele>1059.668</ele>
        <time>2022-08-24T08:55:03Z</time>
      </trkpt>
      <trkpt lat="43.08524199999944" lon="-1.251991">
        <ele>1059.854</ele>
        <time>2022-08-24T08:55:04Z</time>
      </trkpt>
      <trkpt lat="43.08522899999944" lon="-1.251997">
        <ele>1059.836</ele>
        <time>2022-08-24T08:55:05Z</time>
      </trkpt>
      <trkpt lat="43.08521099999944" lon="-1.252005">
        <ele>1059.853</ele>
        <time>2022-08-24T08:55:06Z</time>
      </trkpt>
      <trkpt lat="43.08519499999944" lon="-1.252013">
        <ele>1060.096</ele>
        <time>2022-08-24T08:55:07Z</time>
      </trkpt>
      <trkpt lat="43.08518099999944" lon="-1.252021">
        <ele>1060.460</ele>
        <time>2022-08-24T08:55:08Z</time>
      </trkpt>
      <trkpt lat="43.085167999999435" lon="-1.252027">
        <ele>1060.649</ele>
        <time>2022-08-24T08:55:09Z</time>
      </trkpt>
      <trkpt lat="43.08515199999943" lon="-1.252034">
        <ele>1060.858</ele>
        <time>2022-08-24T08:55:10Z</time>
      </trkpt>
      <trkpt lat="43.08513299999943" lon="-1.2520410000000002">
        <ele>1061.252</ele>
        <time>2022-08-24T08:55:11Z</time>
      </trkpt>
      <trkpt lat="43.08511699999943" lon="-1.2520490000000002">
        <ele>1061.217</ele>
        <time>2022-08-24T08:55:12Z</time>
      </trkpt>
      <trkpt lat="43.08509699999943" lon="-1.2520560000000003">
        <ele>1061.409</ele>
        <time>2022-08-24T08:55:13Z</time>
      </trkpt>
      <trkpt lat="43.08508099999943" lon="-1.2520610000000003">
        <ele>1061.876</ele>
        <time>2022-08-24T08:55:14Z</time>
      </trkpt>
      <trkpt lat="43.085061999999425" lon="-1.2520660000000003">
        <ele>1061.816</ele>
        <time>2022-08-24T08:55:15Z</time>
      </trkpt>
      <trkpt lat="43.08504099999943" lon="-1.2520730000000004">
        <ele>1062.036</ele>
        <time>2022-08-24T08:55:16Z</time>
      </trkpt>
      <trkpt lat="43.08502399999943" lon="-1.2520810000000004">
        <ele>1062.062</ele>
        <time>2022-08-24T08:55:17Z</time>
      </trkpt>
      <trkpt lat="43.08500499999943" lon="-1.2520890000000005">
        <ele>1062.264</ele>
        <time>2022-08-24T08:55:18Z</time>
      </trkpt>
      <trkpt lat="43.08498999999943" lon="-1.2520940000000005">
        <ele>1062.241</ele>
        <time>2022-08-24T08:55:19Z</time>
      </trkpt>
      <trkpt lat="43.08497099999943" lon="-1.2521010000000006">
        <ele>1062.254</ele>
        <time>2022-08-24T08:55:20Z</time>
      </trkpt>
      <trkpt lat="43.08495099999943" lon="-1.2521060000000006">
        <ele>1062.468</ele>
        <time>2022-08-24T08:55:21Z</time>
      </trkpt>
      <trkpt lat="43.08492499999943" lon="-1.2521130000000007">
        <ele>1062.447</ele>
        <time>2022-08-24T08:55:22Z</time>
      </trkpt>
      <trkpt lat="43.08490299999943" lon="-1.2521190000000006">
        <ele>1062.495</ele>
        <time>2022-08-24T08:55:23Z</time>
      </trkpt>
      <trkpt lat="43.08487999999943" lon="-1.2521240000000007">
        <ele>1062.449</ele>
        <time>2022-08-24T08:55:24Z</time>
      </trkpt>
      <trkpt lat="43.08486099999943" lon="-1.2521290000000007">
        <ele>1062.423</ele>
        <time>2022-08-24T08:55:25Z</time>
      </trkpt>
      <trkpt lat="43.08483799999943" lon="-1.2521350000000007">
        <ele>1062.409</ele>
        <time>2022-08-24T08:55:26Z</time>
      </trkpt>
      <trkpt lat="43.08480899999943" lon="-1.2521420000000008">
        <ele>1062.460</ele>
        <time>2022-08-24T08:55:27Z</time>
      </trkpt>
      <trkpt lat="43.08478699999943" lon="-1.2521480000000007">
        <ele>1062.680</ele>
        <time>2022-08-24T08:55:28Z</time>
      </trkpt>
      <trkpt lat="43.08476299999943" lon="-1.2521540000000007">
        <ele>1062.630</ele>
        <time>2022-08-24T08:55:29Z</time>
      </trkpt>
      <trkpt lat="43.08474299999943" lon="-1.2521590000000007">
        <ele>1062.666</ele>
        <time>2022-08-24T08:55:30Z</time>
      </trkpt>
      <trkpt lat="43.08471799999943" lon="-1.2521620000000007">
        <ele>1062.678</ele>
        <time>2022-08-24T08:55:31Z</time>
      </trkpt>
      <trkpt lat="43.084684999999425" lon="-1.2521640000000007">
        <ele>1062.855</ele>
        <time>2022-08-24T08:55:32Z</time>
      </trkpt>
      <trkpt lat="43.08465799999942" lon="-1.2521640000000007">
        <ele>1063.068</ele>
        <time>2022-08-24T08:55:33Z</time>
      </trkpt>
      <trkpt lat="43.08463299999942" lon="-1.2521650000000006">
        <ele>1063.022</ele>
        <time>2022-08-24T08:55:34Z</time>
      </trkpt>
      <trkpt lat="43.08461299999942" lon="-1.2521670000000007">
        <ele>1063.071</ele>
        <time>2022-08-24T08:55:35Z</time>
      </trkpt>
      <trkpt lat="43.08455499999942" lon="-1.2521640000000007">
        <ele>1063.266</ele>
        <time>2022-08-24T08:55:37Z</time>
      </trkpt>
      <trkpt lat="43.08450299999942" lon="-1.2521620000000007">
        <ele>1063.429</ele>
        <time>2022-08-24T08:55:39Z</time>
      </trkpt>
      <trkpt lat="43.084397999999425" lon="-1.2521490000000006">
        <ele>1063.621</ele>
        <time>2022-08-24T08:55:43Z</time>
      </trkpt>
      <trkpt lat="43.08437399999942" lon="-1.2521440000000006">
        <ele>1063.609</ele>
        <time>2022-08-24T08:55:44Z</time>
      </trkpt>
      <trkpt lat="43.08435199999942" lon="-1.2521420000000005">
        <ele>1063.657</ele>
        <time>2022-08-24T08:55:45Z</time>
      </trkpt>
      <trkpt lat="43.08410699999942" lon="-1.2521110000000006">
        <ele>1063.447</ele>
        <time>2022-08-24T08:55:53Z</time>
      </trkpt>
      <trkpt lat="43.08407699999942" lon="-1.2521020000000007">
        <ele>1063.257</ele>
        <time>2022-08-24T08:55:54Z</time>
      </trkpt>
      <trkpt lat="43.08401499999942" lon="-1.2520970000000007">
        <ele>1063.253</ele>
        <time>2022-08-24T08:55:56Z</time>
      </trkpt>
      <trkpt lat="43.083925999999416" lon="-1.2520750000000007">
        <ele>1063.065</ele>
        <time>2022-08-24T08:55:59Z</time>
      </trkpt>
      <trkpt lat="43.08389699999942" lon="-1.2520640000000007">
        <ele>1063.042</ele>
        <time>2022-08-24T08:56:00Z</time>
      </trkpt>
      <trkpt lat="43.08386799999942" lon="-1.2520550000000008">
        <ele>1062.825</ele>
        <time>2022-08-24T08:56:01Z</time>
      </trkpt>
      <trkpt lat="43.08383999999942" lon="-1.2520460000000009">
        <ele>1062.849</ele>
        <time>2022-08-24T08:56:02Z</time>
      </trkpt>
      <trkpt lat="43.08381299999942" lon="-1.252037000000001">
        <ele>1062.828</ele>
        <time>2022-08-24T08:56:03Z</time>
      </trkpt>
      <trkpt lat="43.083785999999414" lon="-1.252028000000001">
        <ele>1062.832</ele>
        <time>2022-08-24T08:56:04Z</time>
      </trkpt>
      <trkpt lat="43.08375899999941" lon="-1.252020000000001">
        <ele>1062.892</ele>
        <time>2022-08-24T08:56:05Z</time>
      </trkpt>
      <trkpt lat="43.08373099999941" lon="-1.252013000000001">
        <ele>1062.811</ele>
        <time>2022-08-24T08:56:06Z</time>
      </trkpt>
      <trkpt lat="43.08364899999941" lon="-1.251994000000001">
        <ele>1062.809</ele>
        <time>2022-08-24T08:56:09Z</time>
      </trkpt>
      <trkpt lat="43.08362299999941" lon="-1.251985000000001">
        <ele>1063.014</ele>
        <time>2022-08-24T08:56:10Z</time>
      </trkpt>
      <trkpt lat="43.08359599999941" lon="-1.251978000000001">
        <ele>1063.044</ele>
        <time>2022-08-24T08:56:11Z</time>
      </trkpt>
      <trkpt lat="43.08356799999941" lon="-1.251975000000001">
        <ele>1063.044</ele>
        <time>2022-08-24T08:56:12Z</time>
      </trkpt>
      <trkpt lat="43.08354099999941" lon="-1.251970000000001">
        <ele>1063.070</ele>
        <time>2022-08-24T08:56:13Z</time>
      </trkpt>
      <trkpt lat="43.08351499999941" lon="-1.2519650000000009">
        <ele>1063.052</ele>
        <time>2022-08-24T08:56:14Z</time>
      </trkpt>
      <trkpt lat="43.08340799999941" lon="-1.2519410000000009">
        <ele>1063.069</ele>
        <time>2022-08-24T08:56:18Z</time>
      </trkpt>
      <trkpt lat="43.08337999999941" lon="-1.251935000000001">
        <ele>1063.022</ele>
        <time>2022-08-24T08:56:19Z</time>
      </trkpt>
      <trkpt lat="43.083352999999406" lon="-1.2519330000000009">
        <ele>1063.066</ele>
        <time>2022-08-24T08:56:20Z</time>
      </trkpt>
      <trkpt lat="43.083217999999405" lon="-1.251927000000001">
        <ele>1063.265</ele>
        <time>2022-08-24T08:56:25Z</time>
      </trkpt>
      <trkpt lat="43.0831909999994" lon="-1.251929000000001">
        <ele>1063.424</ele>
        <time>2022-08-24T08:56:26Z</time>
      </trkpt>
      <trkpt lat="43.0830529999994" lon="-1.251942000000001">
        <ele>1063.604</ele>
        <time>2022-08-24T08:56:31Z</time>
      </trkpt>
      <trkpt lat="43.083026999999404" lon="-1.251942000000001">
        <ele>1063.614</ele>
        <time>2022-08-24T08:56:32Z</time>
      </trkpt>
      <trkpt lat="43.08300599999941" lon="-1.251943000000001">
        <ele>1063.609</ele>
        <time>2022-08-24T08:56:33Z</time>
      </trkpt>
      <trkpt lat="43.082975999999405" lon="-1.251945000000001">
        <ele>1063.873</ele>
        <time>2022-08-24T08:56:34Z</time>
      </trkpt>
      <trkpt lat="43.08294999999941" lon="-1.251946000000001">
        <ele>1063.833</ele>
        <time>2022-08-24T08:56:35Z</time>
      </trkpt>
      <trkpt lat="43.08289899999941" lon="-1.2519580000000008">
        <ele>1063.883</ele>
        <time>2022-08-24T08:56:37Z</time>
      </trkpt>
      <trkpt lat="43.08287299999941" lon="-1.2519620000000007">
        <ele>1064.019</ele>
        <time>2022-08-24T08:56:38Z</time>
      </trkpt>
      <trkpt lat="43.08282099999941" lon="-1.2519710000000006">
        <ele>1064.061</ele>
        <time>2022-08-24T08:56:40Z</time>
      </trkpt>
      <trkpt lat="43.08279699999941" lon="-1.2519740000000006">
        <ele>1064.258</ele>
        <time>2022-08-24T08:56:41Z</time>
      </trkpt>
      <trkpt lat="43.08272299999941" lon="-1.2519810000000007">
        <ele>1064.481</ele>
        <time>2022-08-24T08:56:44Z</time>
      </trkpt>
      <trkpt lat="43.08269699999941" lon="-1.2519850000000006">
        <ele>1064.475</ele>
        <time>2022-08-24T08:56:45Z</time>
      </trkpt>
      <trkpt lat="43.082673999999415" lon="-1.2519860000000005">
        <ele>1064.624</ele>
        <time>2022-08-24T08:56:46Z</time>
      </trkpt>
      <trkpt lat="43.08264999999941" lon="-1.2519870000000004">
        <ele>1064.687</ele>
        <time>2022-08-24T08:56:47Z</time>
      </trkpt>
      <trkpt lat="43.082600999999414" lon="-1.2519900000000004">
        <ele>1064.842</ele>
        <time>2022-08-24T08:56:49Z</time>
      </trkpt>
      <trkpt lat="43.08252299999941" lon="-1.2519940000000003">
        <ele>1065.026</ele>
        <time>2022-08-24T08:56:52Z</time>
      </trkpt>
      <trkpt lat="43.08231799999941" lon="-1.2519690000000003">
        <ele>1065.809</ele>
        <time>2022-08-24T08:57:00Z</time>
      </trkpt>
      <trkpt lat="43.08228999999941" lon="-1.2519680000000004">
        <ele>1065.669</ele>
        <time>2022-08-24T08:57:01Z</time>
      </trkpt>
      <trkpt lat="43.08226299999941" lon="-1.2519680000000004">
        <ele>1065.819</ele>
        <time>2022-08-24T08:57:02Z</time>
      </trkpt>
      <trkpt lat="43.08223699999941" lon="-1.2519680000000004">
        <ele>1065.829</ele>
        <time>2022-08-24T08:57:03Z</time>
      </trkpt>
      <trkpt lat="43.08221199999941" lon="-1.2519680000000004">
        <ele>1066.045</ele>
        <time>2022-08-24T08:57:04Z</time>
      </trkpt>
      <trkpt lat="43.08218599999941" lon="-1.2519650000000004">
        <ele>1066.027</ele>
        <time>2022-08-24T08:57:05Z</time>
      </trkpt>
      <trkpt lat="43.08213499999941" lon="-1.2519580000000003">
        <ele>1066.274</ele>
        <time>2022-08-24T08:57:07Z</time>
      </trkpt>
      <trkpt lat="43.08208099999941" lon="-1.2519590000000003">
        <ele>1066.227</ele>
        <time>2022-08-24T08:57:09Z</time>
      </trkpt>
      <trkpt lat="43.08199399999941" lon="-1.2519610000000003">
        <ele>1066.431</ele>
        <time>2022-08-24T08:57:12Z</time>
      </trkpt>
      <trkpt lat="43.08193899999941" lon="-1.2519540000000002">
        <ele>1066.450</ele>
        <time>2022-08-24T08:57:14Z</time>
      </trkpt>
      <trkpt lat="43.08185699999941" lon="-1.2519560000000003">
        <ele>1066.642</ele>
        <time>2022-08-24T08:57:17Z</time>
      </trkpt>
      <trkpt lat="43.081832999999406" lon="-1.2519560000000003">
        <ele>1066.622</ele>
        <time>2022-08-24T08:57:18Z</time>
      </trkpt>
      <trkpt lat="43.0818089999994" lon="-1.2519550000000004">
        <ele>1066.614</ele>
        <time>2022-08-24T08:57:19Z</time>
      </trkpt>
      <trkpt lat="43.081782999999405" lon="-1.2519550000000004">
        <ele>1066.809</ele>
        <time>2022-08-24T08:57:20Z</time>
      </trkpt>
      <trkpt lat="43.081756999999406" lon="-1.2519560000000003">
        <ele>1066.845</ele>
        <time>2022-08-24T08:57:21Z</time>
      </trkpt>
      <trkpt lat="43.081737999999405" lon="-1.2519550000000004">
        <ele>1067.035</ele>
        <time>2022-08-24T08:57:22Z</time>
      </trkpt>
      <trkpt lat="43.0816879999994" lon="-1.2519460000000004">
        <ele>1067.015</ele>
        <time>2022-08-24T08:57:24Z</time>
      </trkpt>
      <trkpt lat="43.0816379999994" lon="-1.2519440000000004">
        <ele>1067.011</ele>
        <time>2022-08-24T08:57:26Z</time>
      </trkpt>
      <trkpt lat="43.0816119999994" lon="-1.2519450000000003">
        <ele>1067.023</ele>
        <time>2022-08-24T08:57:27Z</time>
      </trkpt>
      <trkpt lat="43.0815949999994" lon="-1.2519480000000003">
        <ele>1067.050</ele>
        <time>2022-08-24T08:57:28Z</time>
      </trkpt>
      <trkpt lat="43.081574999999404" lon="-1.2519480000000003">
        <ele>1066.873</ele>
        <time>2022-08-24T08:57:29Z</time>
      </trkpt>
      <trkpt lat="43.081554999999405" lon="-1.2519450000000003">
        <ele>1066.667</ele>
        <time>2022-08-24T08:57:30Z</time>
      </trkpt>
      <trkpt lat="43.0815359999994" lon="-1.2519390000000004">
        <ele>1066.656</ele>
        <time>2022-08-24T08:57:31Z</time>
      </trkpt>
      <trkpt lat="43.081515999999404" lon="-1.2519300000000004">
        <ele>1066.442</ele>
        <time>2022-08-24T08:57:32Z</time>
      </trkpt>
      <trkpt lat="43.081498999999404" lon="-1.2519240000000005">
        <ele>1066.422</ele>
        <time>2022-08-24T08:57:33Z</time>
      </trkpt>
      <trkpt lat="43.08148099999941" lon="-1.2519210000000005">
        <ele>1066.414</ele>
        <time>2022-08-24T08:57:34Z</time>
      </trkpt>
      <trkpt lat="43.08141799999941" lon="-1.2519160000000005">
        <ele>1066.209</ele>
        <time>2022-08-24T08:57:37Z</time>
      </trkpt>
      <trkpt lat="43.08139899999941" lon="-1.2519250000000004">
        <ele>1066.275</ele>
        <time>2022-08-24T08:57:38Z</time>
      </trkpt>
      <trkpt lat="43.08138099999941" lon="-1.2519360000000004">
        <ele>1066.295</ele>
        <time>2022-08-24T08:57:39Z</time>
      </trkpt>
      <trkpt lat="43.08136799999941" lon="-1.2519360000000004">
        <ele>1066.275</ele>
        <time>2022-08-24T08:57:40Z</time>
      </trkpt>
      <trkpt lat="43.08130499999941" lon="-1.2519260000000003">
        <ele>1066.631</ele>
        <time>2022-08-24T08:57:43Z</time>
      </trkpt>
      <trkpt lat="43.08129299999941" lon="-1.2519210000000003">
        <ele>1066.663</ele>
        <time>2022-08-24T08:57:44Z</time>
      </trkpt>
      <trkpt lat="43.08127699999941" lon="-1.2519140000000002">
        <ele>1066.830</ele>
        <time>2022-08-24T08:57:45Z</time>
      </trkpt>
      <trkpt lat="43.08125899999941" lon="-1.2519080000000002">
        <ele>1067.053</ele>
        <time>2022-08-24T08:57:46Z</time>
      </trkpt>
      <trkpt lat="43.081246999999415" lon="-1.2519060000000002">
        <ele>1067.087</ele>
        <time>2022-08-24T08:57:47Z</time>
      </trkpt>
      <trkpt lat="43.081229999999415" lon="-1.251907">
        <ele>1067.096</ele>
        <time>2022-08-24T08:57:48Z</time>
      </trkpt>
      <trkpt lat="43.081173999999415" lon="-1.251902">
        <ele>1067.098</ele>
        <time>2022-08-24T08:57:51Z</time>
      </trkpt>
      <trkpt lat="43.08115599999942" lon="-1.251899">
        <ele>1067.215</ele>
        <time>2022-08-24T08:57:52Z</time>
      </trkpt>
      <trkpt lat="43.08113499999942" lon="-1.2518980000000002">
        <ele>1067.226</ele>
        <time>2022-08-24T08:57:53Z</time>
      </trkpt>
      <trkpt lat="43.08111499999942" lon="-1.2519030000000002">
        <ele>1067.409</ele>
        <time>2022-08-24T08:57:54Z</time>
      </trkpt>
      <trkpt lat="43.08110199999942" lon="-1.2519040000000001">
        <ele>1067.620</ele>
        <time>2022-08-24T08:57:55Z</time>
      </trkpt>
      <trkpt lat="43.08108699999942" lon="-1.251902">
        <ele>1067.670</ele>
        <time>2022-08-24T08:57:56Z</time>
      </trkpt>
      <trkpt lat="43.081051999999424" lon="-1.2518930000000001">
        <ele>1068.450</ele>
        <time>2022-08-24T08:57:58Z</time>
      </trkpt>
      <trkpt lat="43.081037999999424" lon="-1.251891">
        <ele>1068.676</ele>
        <time>2022-08-24T08:57:59Z</time>
      </trkpt>
      <trkpt lat="43.08099399999942" lon="-1.251878">
        <ele>1069.048</ele>
        <time>2022-08-24T08:58:02Z</time>
      </trkpt>
      <trkpt lat="43.080975999999424" lon="-1.2518770000000001">
        <ele>1069.015</ele>
        <time>2022-08-24T08:58:03Z</time>
      </trkpt>
      <trkpt lat="43.080949999999426" lon="-1.2518770000000001">
        <ele>1069.088</ele>
        <time>2022-08-24T08:58:05Z</time>
      </trkpt>
      <trkpt lat="43.08094099999943" lon="-1.2518760000000002">
        <ele>1069.052</ele>
        <time>2022-08-24T08:58:06Z</time>
      </trkpt>
      <trkpt lat="43.080930999999424" lon="-1.2518750000000003">
        <ele>1069.061</ele>
        <time>2022-08-24T08:58:07Z</time>
      </trkpt>
      <trkpt lat="43.08091999999942" lon="-1.2518730000000002">
        <ele>1069.031</ele>
        <time>2022-08-24T08:58:08Z</time>
      </trkpt>
      <trkpt lat="43.080901999999426" lon="-1.2518680000000002">
        <ele>1069.061</ele>
        <time>2022-08-24T08:58:09Z</time>
      </trkpt>
      <trkpt lat="43.080888999999424" lon="-1.2518680000000002">
        <ele>1069.007</ele>
        <time>2022-08-24T08:58:10Z</time>
      </trkpt>
      <trkpt lat="43.08087799999942" lon="-1.2518730000000002">
        <ele>1069.009</ele>
        <time>2022-08-24T08:58:11Z</time>
      </trkpt>
      <trkpt lat="43.08086499999942" lon="-1.2518770000000001">
        <ele>1069.044</ele>
        <time>2022-08-24T08:58:12Z</time>
      </trkpt>
      <trkpt lat="43.08085199999942" lon="-1.2518820000000002">
        <ele>1069.244</ele>
        <time>2022-08-24T08:58:13Z</time>
      </trkpt>
      <trkpt lat="43.08084299999942" lon="-1.251886">
        <ele>1069.424</ele>
        <time>2022-08-24T08:58:14Z</time>
      </trkpt>
      <trkpt lat="43.08097399999942" lon="-1.251946">
        <ele>1067.860</ele>
        <time>2022-08-24T09:08:07Z</time>
      </trkpt>
      <trkpt lat="43.08100299999942" lon="-1.251965">
        <ele>1067.882</ele>
        <time>2022-08-24T09:08:08Z</time>
      </trkpt>
      <trkpt lat="43.08100299999942" lon="-1.251965">
        <ele>1067.889</ele>
        <time>2022-08-24T09:08:09Z</time>
      </trkpt>
      <trkpt lat="43.08102899999942" lon="-1.251987">
        <ele>1067.662</ele>
        <time>2022-08-24T09:08:10Z</time>
      </trkpt>
      <trkpt lat="43.08107899999942" lon="-1.252025">
        <ele>1067.436</ele>
        <time>2022-08-24T09:08:11Z</time>
      </trkpt>
      <trkpt lat="43.08110199999942" lon="-1.2520419999999999">
        <ele>1067.275</ele>
        <time>2022-08-24T09:08:12Z</time>
      </trkpt>
      <trkpt lat="43.08112899999942" lon="-1.2520559999999998">
        <ele>1067.055</ele>
        <time>2022-08-24T09:08:13Z</time>
      </trkpt>
      <trkpt lat="43.08115999999942" lon="-1.2520759999999997">
        <ele>1066.807</ele>
        <time>2022-08-24T09:08:14Z</time>
      </trkpt>
      <trkpt lat="43.081259999999425" lon="-1.2521589999999998">
        <ele>1066.217</ele>
        <time>2022-08-24T09:08:17Z</time>
      </trkpt>
      <trkpt lat="43.081270999999425" lon="-1.2522029999999997">
        <ele>1066.209</ele>
        <time>2022-08-24T09:08:18Z</time>
      </trkpt>
      <trkpt lat="43.081270999999425" lon="-1.2522029999999997">
        <ele>1066.216</ele>
        <time>2022-08-24T09:08:19Z</time>
      </trkpt>
      <trkpt lat="43.08125499999942" lon="-1.2522839999999997">
        <ele>1066.226</ele>
        <time>2022-08-24T09:08:20Z</time>
      </trkpt>
      <trkpt lat="43.081250999999426" lon="-1.2523199999999997">
        <ele>1066.246</ele>
        <time>2022-08-24T09:08:21Z</time>
      </trkpt>
      <trkpt lat="43.08124799999943" lon="-1.2523529999999996">
        <ele>1066.252</ele>
        <time>2022-08-24T09:08:22Z</time>
      </trkpt>
      <trkpt lat="43.081242999999425" lon="-1.2523839999999995">
        <ele>1066.284</ele>
        <time>2022-08-24T09:08:23Z</time>
      </trkpt>
      <trkpt lat="43.08123799999942" lon="-1.2524169999999994">
        <ele>1066.221</ele>
        <time>2022-08-24T09:08:24Z</time>
      </trkpt>
      <trkpt lat="43.081225999999425" lon="-1.2525179999999994">
        <ele>1067.074</ele>
        <time>2022-08-24T09:08:27Z</time>
      </trkpt>
      <trkpt lat="43.081222999999426" lon="-1.2525499999999994">
        <ele>1067.278</ele>
        <time>2022-08-24T09:08:28Z</time>
      </trkpt>
      <trkpt lat="43.08121899999943" lon="-1.2525789999999994">
        <ele>1067.667</ele>
        <time>2022-08-24T09:08:29Z</time>
      </trkpt>
      <trkpt lat="43.08121399999943" lon="-1.2526089999999994">
        <ele>1068.064</ele>
        <time>2022-08-24T09:08:30Z</time>
      </trkpt>
      <trkpt lat="43.08120999999943" lon="-1.2526359999999994">
        <ele>1068.006</ele>
        <time>2022-08-24T09:08:31Z</time>
      </trkpt>
      <trkpt lat="43.08120599999943" lon="-1.2526619999999995">
        <ele>1068.416</ele>
        <time>2022-08-24T09:08:32Z</time>
      </trkpt>
      <trkpt lat="43.08120599999943" lon="-1.2526619999999995">
        <ele>1068.409</ele>
        <time>2022-08-24T09:08:33Z</time>
      </trkpt>
      <trkpt lat="43.08119799999943" lon="-1.2527109999999995">
        <ele>1068.817</ele>
        <time>2022-08-24T09:08:34Z</time>
      </trkpt>
      <trkpt lat="43.08119299999943" lon="-1.2527379999999995">
        <ele>1068.847</ele>
        <time>2022-08-24T09:08:35Z</time>
      </trkpt>
      <trkpt lat="43.08118799999943" lon="-1.2527649999999995">
        <ele>1069.047</ele>
        <time>2022-08-24T09:08:36Z</time>
      </trkpt>
      <trkpt lat="43.08118699999943" lon="-1.2527889999999995">
        <ele>1069.253</ele>
        <time>2022-08-24T09:08:37Z</time>
      </trkpt>
      <trkpt lat="43.08118499999943" lon="-1.2528139999999994">
        <ele>1069.415</ele>
        <time>2022-08-24T09:08:38Z</time>
      </trkpt>
      <trkpt lat="43.08117699999943" lon="-1.2528629999999994">
        <ele>1069.672</ele>
        <time>2022-08-24T09:08:40Z</time>
      </trkpt>
      <trkpt lat="43.081166999999425" lon="-1.2529179999999993">
        <ele>1069.665</ele>
        <time>2022-08-24T09:08:42Z</time>
      </trkpt>
      <trkpt lat="43.08115999999943" lon="-1.2529459999999992">
        <ele>1069.859</ele>
        <time>2022-08-24T09:08:43Z</time>
      </trkpt>
      <trkpt lat="43.08115499999943" lon="-1.2529709999999992">
        <ele>1070.248</ele>
        <time>2022-08-24T09:08:44Z</time>
      </trkpt>
      <trkpt lat="43.081149999999425" lon="-1.252995999999999">
        <ele>1070.261</ele>
        <time>2022-08-24T09:08:45Z</time>
      </trkpt>
      <trkpt lat="43.08114299999943" lon="-1.253020999999999">
        <ele>1070.421</ele>
        <time>2022-08-24T09:08:46Z</time>
      </trkpt>
      <trkpt lat="43.08114299999943" lon="-1.253020999999999">
        <ele>1070.613</ele>
        <time>2022-08-24T09:08:47Z</time>
      </trkpt>
      <trkpt lat="43.08112699999943" lon="-1.2530709999999992">
        <ele>1070.609</ele>
        <time>2022-08-24T09:08:48Z</time>
      </trkpt>
      <trkpt lat="43.08112099999943" lon="-1.2530939999999993">
        <ele>1070.877</ele>
        <time>2022-08-24T09:08:49Z</time>
      </trkpt>
      <trkpt lat="43.08111499999943" lon="-1.2531189999999992">
        <ele>1070.887</ele>
        <time>2022-08-24T09:08:50Z</time>
      </trkpt>
      <trkpt lat="43.08110999999943" lon="-1.2531429999999992">
        <ele>1071.037</ele>
        <time>2022-08-24T09:08:51Z</time>
      </trkpt>
      <trkpt lat="43.08110099999943" lon="-1.2531659999999993">
        <ele>1071.013</ele>
        <time>2022-08-24T09:08:52Z</time>
      </trkpt>
      <trkpt lat="43.08109299999943" lon="-1.2531879999999993">
        <ele>1071.235</ele>
        <time>2022-08-24T09:08:53Z</time>
      </trkpt>
      <trkpt lat="43.08108399999943" lon="-1.2532089999999994">
        <ele>1071.432</ele>
        <time>2022-08-24T09:08:54Z</time>
      </trkpt>
      <trkpt lat="43.081073999999425" lon="-1.2532309999999993">
        <ele>1071.865</ele>
        <time>2022-08-24T09:08:55Z</time>
      </trkpt>
      <trkpt lat="43.08106499999943" lon="-1.2532539999999994">
        <ele>1072.039</ele>
        <time>2022-08-24T09:08:56Z</time>
      </trkpt>
      <trkpt lat="43.081053999999426" lon="-1.2532749999999995">
        <ele>1072.278</ele>
        <time>2022-08-24T09:08:57Z</time>
      </trkpt>
      <trkpt lat="43.08104399999942" lon="-1.2532959999999995">
        <ele>1072.645</ele>
        <time>2022-08-24T09:08:58Z</time>
      </trkpt>
      <trkpt lat="43.08103699999943" lon="-1.2533169999999996">
        <ele>1073.047</ele>
        <time>2022-08-24T09:08:59Z</time>
      </trkpt>
      <trkpt lat="43.08102999999943" lon="-1.2533399999999997">
        <ele>1073.411</ele>
        <time>2022-08-24T09:09:00Z</time>
      </trkpt>
      <trkpt lat="43.08102999999943" lon="-1.2533399999999997">
        <ele>1073.409</ele>
        <time>2022-08-24T09:09:01Z</time>
      </trkpt>
      <trkpt lat="43.08101699999943" lon="-1.2533809999999996">
        <ele>1074.025</ele>
        <time>2022-08-24T09:09:02Z</time>
      </trkpt>
      <trkpt lat="43.08100599999943" lon="-1.2534039999999997">
        <ele>1074.495</ele>
        <time>2022-08-24T09:09:03Z</time>
      </trkpt>
      <trkpt lat="43.080997999999425" lon="-1.2534279999999998">
        <ele>1074.425</ele>
        <time>2022-08-24T09:09:04Z</time>
      </trkpt>
      <trkpt lat="43.080991999999426" lon="-1.2534509999999999">
        <ele>1074.661</ele>
        <time>2022-08-24T09:09:05Z</time>
      </trkpt>
      <trkpt lat="43.08098499999943" lon="-1.253474">
        <ele>1074.863</ele>
        <time>2022-08-24T09:09:06Z</time>
      </trkpt>
      <trkpt lat="43.08098499999943" lon="-1.253474">
        <ele>1074.830</ele>
        <time>2022-08-24T09:09:07Z</time>
      </trkpt>
      <trkpt lat="43.08097099999943" lon="-1.253517">
        <ele>1074.873</ele>
        <time>2022-08-24T09:09:08Z</time>
      </trkpt>
      <trkpt lat="43.08096299999943" lon="-1.25354">
        <ele>1075.067</ele>
        <time>2022-08-24T09:09:09Z</time>
      </trkpt>
      <trkpt lat="43.08096299999943" lon="-1.25354">
        <ele>1075.026</ele>
        <time>2022-08-24T09:09:10Z</time>
      </trkpt>
      <trkpt lat="43.08094599999943" lon="-1.253586">
        <ele>1075.023</ele>
        <time>2022-08-24T09:09:11Z</time>
      </trkpt>
      <trkpt lat="43.08093699999943" lon="-1.253608">
        <ele>1075.083</ele>
        <time>2022-08-24T09:09:12Z</time>
      </trkpt>
      <trkpt lat="43.08092799999943" lon="-1.253629">
        <ele>1075.011</ele>
        <time>2022-08-24T09:09:13Z</time>
      </trkpt>
      <trkpt lat="43.08091899999943" lon="-1.253651">
        <ele>1075.009</ele>
        <time>2022-08-24T09:09:14Z</time>
      </trkpt>
      <trkpt lat="43.08091899999943" lon="-1.253651">
        <ele>1075.293</ele>
        <time>2022-08-24T09:09:15Z</time>
      </trkpt>
      <trkpt lat="43.080900999999436" lon="-1.253689">
        <ele>1075.263</ele>
        <time>2022-08-24T09:09:16Z</time>
      </trkpt>
      <trkpt lat="43.08089099999943" lon="-1.25371">
        <ele>1075.663</ele>
        <time>2022-08-24T09:09:17Z</time>
      </trkpt>
      <trkpt lat="43.080881999999434" lon="-1.2537330000000002">
        <ele>1075.879</ele>
        <time>2022-08-24T09:09:18Z</time>
      </trkpt>
      <trkpt lat="43.08087399999943" lon="-1.2537570000000002">
        <ele>1076.051</ele>
        <time>2022-08-24T09:09:19Z</time>
      </trkpt>
      <trkpt lat="43.08086699999944" lon="-1.2537800000000003">
        <ele>1076.058</ele>
        <time>2022-08-24T09:09:20Z</time>
      </trkpt>
      <trkpt lat="43.080858999999435" lon="-1.2538030000000004">
        <ele>1076.451</ele>
        <time>2022-08-24T09:09:21Z</time>
      </trkpt>
      <trkpt lat="43.08084999999944" lon="-1.2538240000000005">
        <ele>1076.645</ele>
        <time>2022-08-24T09:09:22Z</time>
      </trkpt>
      <trkpt lat="43.080841999999436" lon="-1.2538460000000005">
        <ele>1076.894</ele>
        <time>2022-08-24T09:09:23Z</time>
      </trkpt>
      <trkpt lat="43.08083499999944" lon="-1.2538660000000004">
        <ele>1077.099</ele>
        <time>2022-08-24T09:09:24Z</time>
      </trkpt>
      <trkpt lat="43.08082999999944" lon="-1.2538860000000003">
        <ele>1077.207</ele>
        <time>2022-08-24T09:09:25Z</time>
      </trkpt>
      <trkpt lat="43.08082299999944" lon="-1.2539060000000002">
        <ele>1077.227</ele>
        <time>2022-08-24T09:09:26Z</time>
      </trkpt>
      <trkpt lat="43.08081299999944" lon="-1.253926">
        <ele>1077.409</ele>
        <time>2022-08-24T09:09:27Z</time>
      </trkpt>
      <trkpt lat="43.080802999999435" lon="-1.253946">
        <ele>1077.430</ele>
        <time>2022-08-24T09:09:28Z</time>
      </trkpt>
      <trkpt lat="43.080802999999435" lon="-1.253946">
        <ele>1077.810</ele>
        <time>2022-08-24T09:09:29Z</time>
      </trkpt>
      <trkpt lat="43.080788999999434" lon="-1.253985">
        <ele>1078.020</ele>
        <time>2022-08-24T09:09:30Z</time>
      </trkpt>
      <trkpt lat="43.08078399999943" lon="-1.2540049999999998">
        <ele>1078.646</ele>
        <time>2022-08-24T09:09:31Z</time>
      </trkpt>
      <trkpt lat="43.080779999999436" lon="-1.2540259999999999">
        <ele>1078.888</ele>
        <time>2022-08-24T09:09:32Z</time>
      </trkpt>
      <trkpt lat="43.08077299999944" lon="-1.254047">
        <ele>1079.035</ele>
        <time>2022-08-24T09:09:33Z</time>
      </trkpt>
      <trkpt lat="43.08076499999944" lon="-1.254068">
        <ele>1079.298</ele>
        <time>2022-08-24T09:09:34Z</time>
      </trkpt>
      <trkpt lat="43.08075799999944" lon="-1.254089">
        <ele>1079.432</ele>
        <time>2022-08-24T09:09:35Z</time>
      </trkpt>
      <trkpt lat="43.08074999999944" lon="-1.2541120000000001">
        <ele>1079.681</ele>
        <time>2022-08-24T09:09:36Z</time>
      </trkpt>
      <trkpt lat="43.080742999999444" lon="-1.2541330000000002">
        <ele>1079.678</ele>
        <time>2022-08-24T09:09:37Z</time>
      </trkpt>
      <trkpt lat="43.080742999999444" lon="-1.2541330000000002">
        <ele>1080.033</ele>
        <time>2022-08-24T09:09:38Z</time>
      </trkpt>
      <trkpt lat="43.08072699999944" lon="-1.2541750000000003">
        <ele>1080.026</ele>
        <time>2022-08-24T09:09:39Z</time>
      </trkpt>
      <trkpt lat="43.080719999999445" lon="-1.2541970000000002">
        <ele>1080.209</ele>
        <time>2022-08-24T09:09:40Z</time>
      </trkpt>
      <trkpt lat="43.08071299999945" lon="-1.2542180000000003">
        <ele>1080.418</ele>
        <time>2022-08-24T09:09:41Z</time>
      </trkpt>
      <trkpt lat="43.08070599999945" lon="-1.2542410000000004">
        <ele>1080.498</ele>
        <time>2022-08-24T09:09:42Z</time>
      </trkpt>
      <trkpt lat="43.08070099999945" lon="-1.2542630000000003">
        <ele>1080.638</ele>
        <time>2022-08-24T09:09:43Z</time>
      </trkpt>
      <trkpt lat="43.08069499999945" lon="-1.2542860000000005">
        <ele>1080.644</ele>
        <time>2022-08-24T09:09:44Z</time>
      </trkpt>
      <trkpt lat="43.08068699999945" lon="-1.2543060000000004">
        <ele>1080.616</ele>
        <time>2022-08-24T09:09:45Z</time>
      </trkpt>
      <trkpt lat="43.08067799999945" lon="-1.2543260000000003">
        <ele>1080.863</ele>
        <time>2022-08-24T09:09:46Z</time>
      </trkpt>
      <trkpt lat="43.080673999999455" lon="-1.2543460000000002">
        <ele>1080.816</ele>
        <time>2022-08-24T09:09:47Z</time>
      </trkpt>
      <trkpt lat="43.08066999999946" lon="-1.2543650000000002">
        <ele>1080.890</ele>
        <time>2022-08-24T09:09:48Z</time>
      </trkpt>
      <trkpt lat="43.08066399999946" lon="-1.254385">
        <ele>1080.829</ele>
        <time>2022-08-24T09:09:49Z</time>
      </trkpt>
      <trkpt lat="43.08065899999946" lon="-1.2544060000000001">
        <ele>1081.078</ele>
        <time>2022-08-24T09:09:50Z</time>
      </trkpt>
      <trkpt lat="43.080653999999456" lon="-1.254426">
        <ele>1081.033</ele>
        <time>2022-08-24T09:09:51Z</time>
      </trkpt>
      <trkpt lat="43.080653999999456" lon="-1.254426">
        <ele>1081.226</ele>
        <time>2022-08-24T09:09:52Z</time>
      </trkpt>
      <trkpt lat="43.08064399999945" lon="-1.254465">
        <ele>1081.409</ele>
        <time>2022-08-24T09:09:53Z</time>
      </trkpt>
      <trkpt lat="43.08064099999945" lon="-1.254487">
        <ele>1081.438</ele>
        <time>2022-08-24T09:09:54Z</time>
      </trkpt>
      <trkpt lat="43.08063799999945" lon="-1.254508">
        <ele>1081.448</ele>
        <time>2022-08-24T09:09:55Z</time>
      </trkpt>
      <trkpt lat="43.080631999999454" lon="-1.25453">
        <ele>1081.688</ele>
        <time>2022-08-24T09:09:56Z</time>
      </trkpt>
      <trkpt lat="43.080625999999455" lon="-1.254552">
        <ele>1081.674</ele>
        <time>2022-08-24T09:09:57Z</time>
      </trkpt>
      <trkpt lat="43.080619999999456" lon="-1.2545739999999999">
        <ele>1081.696</ele>
        <time>2022-08-24T09:09:58Z</time>
      </trkpt>
      <trkpt lat="43.08061299999946" lon="-1.254595">
        <ele>1081.823</ele>
        <time>2022-08-24T09:09:59Z</time>
      </trkpt>
      <trkpt lat="43.08060599999946" lon="-1.254616">
        <ele>1081.836</ele>
        <time>2022-08-24T09:10:00Z</time>
      </trkpt>
      <trkpt lat="43.08060099999946" lon="-1.254637">
        <ele>1082.090</ele>
        <time>2022-08-24T09:10:01Z</time>
      </trkpt>
      <trkpt lat="43.08059599999946" lon="-1.254658">
        <ele>1082.269</ele>
        <time>2022-08-24T09:10:02Z</time>
      </trkpt>
      <trkpt lat="43.08059599999946" lon="-1.254658">
        <ele>1082.284</ele>
        <time>2022-08-24T09:10:03Z</time>
      </trkpt>
      <trkpt lat="43.08058199999946" lon="-1.254697">
        <ele>1082.407</ele>
        <time>2022-08-24T09:10:04Z</time>
      </trkpt>
      <trkpt lat="43.08057399999946" lon="-1.2547169999999999">
        <ele>1082.417</ele>
        <time>2022-08-24T09:10:05Z</time>
      </trkpt>
      <trkpt lat="43.08057399999946" lon="-1.2547169999999999">
        <ele>1082.809</ele>
        <time>2022-08-24T09:10:06Z</time>
      </trkpt>
      <trkpt lat="43.080560999999456" lon="-1.254759">
        <ele>1083.029</ele>
        <time>2022-08-24T09:10:07Z</time>
      </trkpt>
      <trkpt lat="43.080555999999454" lon="-1.254778">
        <ele>1083.079</ele>
        <time>2022-08-24T09:10:08Z</time>
      </trkpt>
      <trkpt lat="43.080549999999455" lon="-1.254797">
        <ele>1083.279</ele>
        <time>2022-08-24T09:10:09Z</time>
      </trkpt>
      <trkpt lat="43.080541999999454" lon="-1.254818">
        <ele>1083.475</ele>
        <time>2022-08-24T09:10:10Z</time>
      </trkpt>
      <trkpt lat="43.08053499999946" lon="-1.254838">
        <ele>1083.627</ele>
        <time>2022-08-24T09:10:11Z</time>
      </trkpt>
      <trkpt lat="43.08052599999946" lon="-1.254859">
        <ele>1084.074</ele>
        <time>2022-08-24T09:10:12Z</time>
      </trkpt>
      <trkpt lat="43.08051699999946" lon="-1.254878">
        <ele>1084.047</ele>
        <time>2022-08-24T09:10:13Z</time>
      </trkpt>
      <trkpt lat="43.080509999999464" lon="-1.2548979999999998">
        <ele>1084.031</ele>
        <time>2022-08-24T09:10:14Z</time>
      </trkpt>
      <trkpt lat="43.080503999999465" lon="-1.254919">
        <ele>1084.240</ele>
        <time>2022-08-24T09:10:15Z</time>
      </trkpt>
      <trkpt lat="43.08049699999947" lon="-1.2549389999999998">
        <ele>1084.458</ele>
        <time>2022-08-24T09:10:16Z</time>
      </trkpt>
      <trkpt lat="43.08049099999947" lon="-1.2549589999999997">
        <ele>1084.452</ele>
        <time>2022-08-24T09:10:17Z</time>
      </trkpt>
      <trkpt lat="43.08048399999947" lon="-1.2549789999999996">
        <ele>1084.617</ele>
        <time>2022-08-24T09:10:18Z</time>
      </trkpt>
      <trkpt lat="43.080476999999476" lon="-1.2549969999999997">
        <ele>1084.809</ele>
        <time>2022-08-24T09:10:19Z</time>
      </trkpt>
      <trkpt lat="43.080476999999476" lon="-1.2549969999999997">
        <ele>1084.826</ele>
        <time>2022-08-24T09:10:20Z</time>
      </trkpt>
      <trkpt lat="43.080462999999476" lon="-1.2550329999999996">
        <ele>1084.886</ele>
        <time>2022-08-24T09:10:21Z</time>
      </trkpt>
      <trkpt lat="43.080454999999475" lon="-1.2550489999999996">
        <ele>1084.856</ele>
        <time>2022-08-24T09:10:22Z</time>
      </trkpt>
      <trkpt lat="43.080446999999474" lon="-1.2550669999999997">
        <ele>1085.052</ele>
        <time>2022-08-24T09:10:23Z</time>
      </trkpt>
      <trkpt lat="43.08043599999947" lon="-1.2550839999999996">
        <ele>1085.054</ele>
        <time>2022-08-24T09:10:24Z</time>
      </trkpt>
      <trkpt lat="43.08042599999947" lon="-1.2551029999999996">
        <ele>1085.071</ele>
        <time>2022-08-24T09:10:25Z</time>
      </trkpt>
      <trkpt lat="43.08041699999947" lon="-1.2551219999999996">
        <ele>1085.284</ele>
        <time>2022-08-24T09:10:26Z</time>
      </trkpt>
      <trkpt lat="43.080409999999475" lon="-1.2551389999999996">
        <ele>1085.248</ele>
        <time>2022-08-24T09:10:27Z</time>
      </trkpt>
      <trkpt lat="43.080400999999476" lon="-1.2551549999999996">
        <ele>1085.457</ele>
        <time>2022-08-24T09:10:28Z</time>
      </trkpt>
      <trkpt lat="43.080392999999475" lon="-1.2551699999999997">
        <ele>1085.482</ele>
        <time>2022-08-24T09:10:29Z</time>
      </trkpt>
      <trkpt lat="43.080381999999474" lon="-1.2551879999999997">
        <ele>1085.643</ele>
        <time>2022-08-24T09:10:30Z</time>
      </trkpt>
      <trkpt lat="43.08037399999947" lon="-1.2552039999999998">
        <ele>1086.017</ele>
        <time>2022-08-24T09:10:31Z</time>
      </trkpt>
      <trkpt lat="43.080364999999475" lon="-1.2552179999999997">
        <ele>1086.209</ele>
        <time>2022-08-24T09:10:32Z</time>
      </trkpt>
      <trkpt lat="43.080355999999476" lon="-1.2552299999999996">
        <ele>1086.289</ele>
        <time>2022-08-24T09:10:33Z</time>
      </trkpt>
      <trkpt lat="43.08034599999947" lon="-1.2552409999999996">
        <ele>1086.459</ele>
        <time>2022-08-24T09:10:34Z</time>
      </trkpt>
      <trkpt lat="43.08033599999947" lon="-1.2552539999999996">
        <ele>1086.829</ele>
        <time>2022-08-24T09:10:35Z</time>
      </trkpt>
      <trkpt lat="43.08032699999947" lon="-1.2552699999999997">
        <ele>1087.045</ele>
        <time>2022-08-24T09:10:36Z</time>
      </trkpt>
      <trkpt lat="43.08031699999947" lon="-1.2552859999999997">
        <ele>1087.257</ele>
        <time>2022-08-24T09:10:37Z</time>
      </trkpt>
      <trkpt lat="43.080306999999465" lon="-1.2553029999999996">
        <ele>1087.494</ele>
        <time>2022-08-24T09:10:38Z</time>
      </trkpt>
      <trkpt lat="43.080298999999464" lon="-1.2553189999999996">
        <ele>1087.687</ele>
        <time>2022-08-24T09:10:39Z</time>
      </trkpt>
      <trkpt lat="43.08029199999947" lon="-1.2553339999999997">
        <ele>1087.811</ele>
        <time>2022-08-24T09:10:40Z</time>
      </trkpt>
      <trkpt lat="43.080283999999466" lon="-1.2553489999999998">
        <ele>1087.870</ele>
        <time>2022-08-24T09:10:41Z</time>
      </trkpt>
      <trkpt lat="43.08027499999947" lon="-1.2553609999999997">
        <ele>1088.227</ele>
        <time>2022-08-24T09:10:42Z</time>
      </trkpt>
      <trkpt lat="43.08027499999947" lon="-1.2553609999999997">
        <ele>1088.468</ele>
        <time>2022-08-24T09:10:43Z</time>
      </trkpt>
      <trkpt lat="43.080250999999464" lon="-1.2553839999999998">
        <ele>1088.814</ele>
        <time>2022-08-24T09:10:44Z</time>
      </trkpt>
      <trkpt lat="43.08023799999946" lon="-1.255399">
        <ele>1088.809</ele>
        <time>2022-08-24T09:10:45Z</time>
      </trkpt>
      <trkpt lat="43.08022399999946" lon="-1.255413">
        <ele>1089.033</ele>
        <time>2022-08-24T09:10:46Z</time>
      </trkpt>
      <trkpt lat="43.08021099999946" lon="-1.255428">
        <ele>1089.273</ele>
        <time>2022-08-24T09:10:47Z</time>
      </trkpt>
      <trkpt lat="43.08021099999946" lon="-1.255428">
        <ele>1089.273</ele>
        <time>2022-08-24T09:10:48Z</time>
      </trkpt>
      <trkpt lat="43.08018999999946" lon="-1.255465">
        <ele>1089.659</ele>
        <time>2022-08-24T09:10:49Z</time>
      </trkpt>
      <trkpt lat="43.08017999999946" lon="-1.255484">
        <ele>1089.621</ele>
        <time>2022-08-24T09:10:50Z</time>
      </trkpt>
      <trkpt lat="43.080169999999455" lon="-1.2555020000000001">
        <ele>1090.018</ele>
        <time>2022-08-24T09:10:51Z</time>
      </trkpt>
      <trkpt lat="43.080161999999454" lon="-1.2555200000000002">
        <ele>1090.481</ele>
        <time>2022-08-24T09:10:52Z</time>
      </trkpt>
      <trkpt lat="43.08015199999945" lon="-1.2555390000000002">
        <ele>1090.445</ele>
        <time>2022-08-24T09:10:53Z</time>
      </trkpt>
      <trkpt lat="43.08014099999945" lon="-1.2555580000000002">
        <ele>1090.644</ele>
        <time>2022-08-24T09:10:54Z</time>
      </trkpt>
      <trkpt lat="43.08013099999945" lon="-1.2555730000000003">
        <ele>1090.845</ele>
        <time>2022-08-24T09:10:55Z</time>
      </trkpt>
      <trkpt lat="43.080120999999444" lon="-1.2555870000000002">
        <ele>1091.047</ele>
        <time>2022-08-24T09:10:56Z</time>
      </trkpt>
      <trkpt lat="43.08010999999944" lon="-1.2556040000000002">
        <ele>1091.011</ele>
        <time>2022-08-24T09:10:57Z</time>
      </trkpt>
      <trkpt lat="43.08009999999944" lon="-1.255621">
        <ele>1091.209</ele>
        <time>2022-08-24T09:10:58Z</time>
      </trkpt>
      <trkpt lat="43.08009099999944" lon="-1.255638">
        <ele>1091.285</ele>
        <time>2022-08-24T09:10:59Z</time>
      </trkpt>
      <trkpt lat="43.08008099999944" lon="-1.255656">
        <ele>1091.485</ele>
        <time>2022-08-24T09:11:00Z</time>
      </trkpt>
      <trkpt lat="43.08006999999944" lon="-1.25567">
        <ele>1091.635</ele>
        <time>2022-08-24T09:11:01Z</time>
      </trkpt>
      <trkpt lat="43.08006099999944" lon="-1.255684">
        <ele>1091.631</ele>
        <time>2022-08-24T09:11:02Z</time>
      </trkpt>
      <trkpt lat="43.080050999999436" lon="-1.255698">
        <ele>1091.893</ele>
        <time>2022-08-24T09:11:03Z</time>
      </trkpt>
      <trkpt lat="43.08004099999943" lon="-1.255712">
        <ele>1092.010</ele>
        <time>2022-08-24T09:11:04Z</time>
      </trkpt>
      <trkpt lat="43.08003099999943" lon="-1.255725">
        <ele>1092.253</ele>
        <time>2022-08-24T09:11:05Z</time>
      </trkpt>
      <trkpt lat="43.08002099999943" lon="-1.255743">
        <ele>1092.257</ele>
        <time>2022-08-24T09:11:06Z</time>
      </trkpt>
      <trkpt lat="43.08001199999943" lon="-1.2557610000000001">
        <ele>1092.476</ele>
        <time>2022-08-24T09:11:07Z</time>
      </trkpt>
      <trkpt lat="43.08001199999943" lon="-1.2557610000000001">
        <ele>1092.885</ele>
        <time>2022-08-24T09:11:08Z</time>
      </trkpt>
      <trkpt lat="43.07999499999943" lon="-1.255792">
        <ele>1093.089</ele>
        <time>2022-08-24T09:11:09Z</time>
      </trkpt>
      <trkpt lat="43.07998299999943" lon="-1.255808">
        <ele>1093.217</ele>
        <time>2022-08-24T09:11:10Z</time>
      </trkpt>
      <trkpt lat="43.07998299999943" lon="-1.255808">
        <ele>1093.409</ele>
        <time>2022-08-24T09:11:11Z</time>
      </trkpt>
      <trkpt lat="43.07996599999943" lon="-1.255841">
        <ele>1093.689</ele>
        <time>2022-08-24T09:11:12Z</time>
      </trkpt>
      <trkpt lat="43.079958999999434" lon="-1.255855">
        <ele>1094.029</ele>
        <time>2022-08-24T09:11:13Z</time>
      </trkpt>
      <trkpt lat="43.079958999999434" lon="-1.255855">
        <ele>1094.299</ele>
        <time>2022-08-24T09:11:14Z</time>
      </trkpt>
      <trkpt lat="43.079943999999436" lon="-1.255882">
        <ele>1094.635</ele>
        <time>2022-08-24T09:11:15Z</time>
      </trkpt>
      <trkpt lat="43.07993499999944" lon="-1.255898">
        <ele>1094.837</ele>
        <time>2022-08-24T09:11:16Z</time>
      </trkpt>
      <trkpt lat="43.07992699999944" lon="-1.255915">
        <ele>1095.024</ele>
        <time>2022-08-24T09:11:17Z</time>
      </trkpt>
      <trkpt lat="43.07991799999944" lon="-1.255931">
        <ele>1095.287</ele>
        <time>2022-08-24T09:11:18Z</time>
      </trkpt>
      <trkpt lat="43.07990899999944" lon="-1.255947">
        <ele>1095.441</ele>
        <time>2022-08-24T09:11:19Z</time>
      </trkpt>
      <trkpt lat="43.079898999999436" lon="-1.2559639999999999">
        <ele>1095.640</ele>
        <time>2022-08-24T09:11:20Z</time>
      </trkpt>
      <trkpt lat="43.07988999999944" lon="-1.255979">
        <ele>1095.824</ele>
        <time>2022-08-24T09:11:21Z</time>
      </trkpt>
      <trkpt lat="43.07987599999944" lon="-1.255995">
        <ele>1096.004</ele>
        <time>2022-08-24T09:11:22Z</time>
      </trkpt>
      <trkpt lat="43.07986399999944" lon="-1.256011">
        <ele>1096.014</ele>
        <time>2022-08-24T09:11:23Z</time>
      </trkpt>
      <trkpt lat="43.07985299999944" lon="-1.256029">
        <ele>1096.009</ele>
        <time>2022-08-24T09:11:24Z</time>
      </trkpt>
      <trkpt lat="43.07984599999944" lon="-1.2560470000000001">
        <ele>1096.273</ele>
        <time>2022-08-24T09:11:25Z</time>
      </trkpt>
      <trkpt lat="43.07983799999944" lon="-1.2560650000000002">
        <ele>1096.223</ele>
        <time>2022-08-24T09:11:26Z</time>
      </trkpt>
      <trkpt lat="43.07982899999944" lon="-1.2560800000000003">
        <ele>1096.473</ele>
        <time>2022-08-24T09:11:27Z</time>
      </trkpt>
      <trkpt lat="43.079819999999444" lon="-1.2560940000000003">
        <ele>1096.429</ele>
        <time>2022-08-24T09:11:28Z</time>
      </trkpt>
      <trkpt lat="43.07980999999944" lon="-1.2561090000000004">
        <ele>1096.461</ele>
        <time>2022-08-24T09:11:29Z</time>
      </trkpt>
      <trkpt lat="43.07979999999944" lon="-1.2561240000000005">
        <ele>1096.488</ele>
        <time>2022-08-24T09:11:30Z</time>
      </trkpt>
      <trkpt lat="43.07978899999944" lon="-1.2561350000000004">
        <ele>1096.411</ele>
        <time>2022-08-24T09:11:31Z</time>
      </trkpt>
      <trkpt lat="43.079777999999436" lon="-1.2561490000000004">
        <ele>1096.485</ele>
        <time>2022-08-24T09:11:32Z</time>
      </trkpt>
      <trkpt lat="43.07976899999944" lon="-1.2561670000000005">
        <ele>1096.454</ele>
        <time>2022-08-24T09:11:33Z</time>
      </trkpt>
      <trkpt lat="43.079758999999434" lon="-1.2561850000000006">
        <ele>1096.467</ele>
        <time>2022-08-24T09:11:34Z</time>
      </trkpt>
      <trkpt lat="43.07974899999943" lon="-1.2562020000000005">
        <ele>1096.481</ele>
        <time>2022-08-24T09:11:35Z</time>
      </trkpt>
      <trkpt lat="43.07973999999943" lon="-1.2562180000000005">
        <ele>1096.619</ele>
        <time>2022-08-24T09:11:36Z</time>
      </trkpt>
      <trkpt lat="43.07972999999943" lon="-1.2562350000000004">
        <ele>1096.809</ele>
        <time>2022-08-24T09:11:37Z</time>
      </trkpt>
      <trkpt lat="43.079719999999426" lon="-1.2562520000000004">
        <ele>1097.027</ele>
        <time>2022-08-24T09:11:38Z</time>
      </trkpt>
      <trkpt lat="43.07971299999943" lon="-1.2562670000000005">
        <ele>1097.677</ele>
        <time>2022-08-24T09:11:39Z</time>
      </trkpt>
      <trkpt lat="43.07970299999943" lon="-1.2562800000000005">
        <ele>1097.827</ele>
        <time>2022-08-24T09:11:40Z</time>
      </trkpt>
      <trkpt lat="43.07969299999942" lon="-1.2562930000000005">
        <ele>1098.033</ele>
        <time>2022-08-24T09:11:41Z</time>
      </trkpt>
      <trkpt lat="43.07968299999942" lon="-1.2563100000000005">
        <ele>1098.285</ele>
        <time>2022-08-24T09:11:42Z</time>
      </trkpt>
      <trkpt lat="43.07967299999942" lon="-1.2563240000000004">
        <ele>1098.652</ele>
        <time>2022-08-24T09:11:43Z</time>
      </trkpt>
      <trkpt lat="43.07966399999942" lon="-1.2563420000000005">
        <ele>1099.075</ele>
        <time>2022-08-24T09:11:44Z</time>
      </trkpt>
      <trkpt lat="43.07965799999942" lon="-1.2563620000000004">
        <ele>1099.019</ele>
        <time>2022-08-24T09:11:45Z</time>
      </trkpt>
      <trkpt lat="43.07964999999942" lon="-1.2563830000000005">
        <ele>1099.238</ele>
        <time>2022-08-24T09:11:46Z</time>
      </trkpt>
      <trkpt lat="43.07964599999942" lon="-1.2563990000000005">
        <ele>1099.436</ele>
        <time>2022-08-24T09:11:47Z</time>
      </trkpt>
      <trkpt lat="43.079641999999424" lon="-1.2564150000000005">
        <ele>1099.417</ele>
        <time>2022-08-24T09:11:48Z</time>
      </trkpt>
      <trkpt lat="43.07963499999943" lon="-1.2564310000000005">
        <ele>1099.618</ele>
        <time>2022-08-24T09:11:49Z</time>
      </trkpt>
      <trkpt lat="43.07963199999943" lon="-1.2564490000000006">
        <ele>1099.609</ele>
        <time>2022-08-24T09:11:50Z</time>
      </trkpt>
      <trkpt lat="43.079629999999426" lon="-1.2564670000000007">
        <ele>1099.674</ele>
        <time>2022-08-24T09:11:51Z</time>
      </trkpt>
      <trkpt lat="43.07962699999943" lon="-1.2564880000000007">
        <ele>1099.624</ele>
        <time>2022-08-24T09:11:52Z</time>
      </trkpt>
      <trkpt lat="43.07962099999943" lon="-1.2565080000000006">
        <ele>1099.624</ele>
        <time>2022-08-24T09:11:53Z</time>
      </trkpt>
      <trkpt lat="43.079615999999426" lon="-1.2565280000000005">
        <ele>1099.660</ele>
        <time>2022-08-24T09:11:54Z</time>
      </trkpt>
      <trkpt lat="43.07961199999943" lon="-1.2565490000000006">
        <ele>1099.442</ele>
        <time>2022-08-24T09:11:55Z</time>
      </trkpt>
      <trkpt lat="43.07960999999943" lon="-1.2565680000000006">
        <ele>1099.469</ele>
        <time>2022-08-24T09:11:56Z</time>
      </trkpt>
      <trkpt lat="43.07960599999943" lon="-1.2565900000000005">
        <ele>1099.432</ele>
        <time>2022-08-24T09:11:57Z</time>
      </trkpt>
      <trkpt lat="43.07960599999943" lon="-1.2566120000000005">
        <ele>1099.466</ele>
        <time>2022-08-24T09:11:58Z</time>
      </trkpt>
      <trkpt lat="43.07960699999943" lon="-1.2566320000000004">
        <ele>1099.475</ele>
        <time>2022-08-24T09:11:59Z</time>
      </trkpt>
      <trkpt lat="43.07960599999943" lon="-1.2566540000000004">
        <ele>1099.435</ele>
        <time>2022-08-24T09:12:00Z</time>
      </trkpt>
      <trkpt lat="43.07960699999943" lon="-1.2566780000000004">
        <ele>1099.486</ele>
        <time>2022-08-24T09:12:01Z</time>
      </trkpt>
      <trkpt lat="43.079607999999425" lon="-1.2567030000000003">
        <ele>1099.614</ele>
        <time>2022-08-24T09:12:02Z</time>
      </trkpt>
      <trkpt lat="43.079610999999424" lon="-1.2567270000000004">
        <ele>1099.409</ele>
        <time>2022-08-24T09:12:03Z</time>
      </trkpt>
      <trkpt lat="43.079635999999425" lon="-1.2567680000000003">
        <ele>1099.434</ele>
        <time>2022-08-24T09:12:05Z</time>
      </trkpt>
      <trkpt lat="43.07965099999942" lon="-1.2567880000000002">
        <ele>1099.464</ele>
        <time>2022-08-24T09:12:06Z</time>
      </trkpt>
      <trkpt lat="43.07966499999942" lon="-1.2568060000000003">
        <ele>1099.474</ele>
        <time>2022-08-24T09:12:07Z</time>
      </trkpt>
      <trkpt lat="43.079680999999425" lon="-1.2568230000000002">
        <ele>1099.420</ele>
        <time>2022-08-24T09:12:08Z</time>
      </trkpt>
      <trkpt lat="43.07969599999942" lon="-1.2568380000000003">
        <ele>1099.442</ele>
        <time>2022-08-24T09:12:09Z</time>
      </trkpt>
      <trkpt lat="43.079728999999425" lon="-1.2568600000000003">
        <ele>1099.669</ele>
        <time>2022-08-24T09:12:11Z</time>
      </trkpt>
      <trkpt lat="43.07974499999943" lon="-1.2568690000000002">
        <ele>1099.682</ele>
        <time>2022-08-24T09:12:12Z</time>
      </trkpt>
      <trkpt lat="43.079759999999425" lon="-1.2568780000000002">
        <ele>1099.686</ele>
        <time>2022-08-24T09:12:13Z</time>
      </trkpt>
      <trkpt lat="43.07978999999943" lon="-1.2569000000000001">
        <ele>1099.875</ele>
        <time>2022-08-24T09:12:15Z</time>
      </trkpt>
      <trkpt lat="43.079886999999424" lon="-1.256982">
        <ele>1100.259</ele>
        <time>2022-08-24T09:12:21Z</time>
      </trkpt>
      <trkpt lat="43.07990199999942" lon="-1.256994">
        <ele>1100.403</ele>
        <time>2022-08-24T09:12:22Z</time>
      </trkpt>
      <trkpt lat="43.07991399999942" lon="-1.25701">
        <ele>1100.423</ele>
        <time>2022-08-24T09:12:23Z</time>
      </trkpt>
      <trkpt lat="43.07995699999942" lon="-1.257063">
        <ele>1100.809</ele>
        <time>2022-08-24T09:12:26Z</time>
      </trkpt>
      <trkpt lat="43.079979999999416" lon="-1.2571">
        <ele>1101.046</ele>
        <time>2022-08-24T09:12:28Z</time>
      </trkpt>
      <trkpt lat="43.079991999999415" lon="-1.2571210000000002">
        <ele>1101.226</ele>
        <time>2022-08-24T09:12:29Z</time>
      </trkpt>
      <trkpt lat="43.08000199999942" lon="-1.257141">
        <ele>1101.276</ele>
        <time>2022-08-24T09:12:30Z</time>
      </trkpt>
      <trkpt lat="43.08002599999942" lon="-1.257181">
        <ele>1101.462</ele>
        <time>2022-08-24T09:12:32Z</time>
      </trkpt>
      <trkpt lat="43.080038999999424" lon="-1.2572040000000002">
        <ele>1101.674</ele>
        <time>2022-08-24T09:12:34Z</time>
      </trkpt>
      <trkpt lat="43.08006199999942" lon="-1.2572510000000001">
        <ele>1101.891</ele>
        <time>2022-08-24T09:12:35Z</time>
      </trkpt>
      <trkpt lat="43.080099999999426" lon="-1.2573280000000002">
        <ele>1102.864</ele>
        <time>2022-08-24T09:12:38Z</time>
      </trkpt>
      <trkpt lat="43.08011299999943" lon="-1.2573570000000003">
        <ele>1103.288</ele>
        <time>2022-08-24T09:12:40Z</time>
      </trkpt>
      <trkpt lat="43.08013699999943" lon="-1.2574170000000002">
        <ele>1103.467</ele>
        <time>2022-08-24T09:12:41Z</time>
      </trkpt>
      <trkpt lat="43.08014599999943" lon="-1.2574490000000003">
        <ele>1103.691</ele>
        <time>2022-08-24T09:12:42Z</time>
      </trkpt>
      <trkpt lat="43.08015399999943" lon="-1.2574780000000003">
        <ele>1103.881</ele>
        <time>2022-08-24T09:12:43Z</time>
      </trkpt>
      <trkpt lat="43.08015899999943" lon="-1.2575070000000004">
        <ele>1104.019</ele>
        <time>2022-08-24T09:12:44Z</time>
      </trkpt>
      <trkpt lat="43.08016499999943" lon="-1.2575360000000004">
        <ele>1104.209</ele>
        <time>2022-08-24T09:12:45Z</time>
      </trkpt>
      <trkpt lat="43.08016799999943" lon="-1.2575680000000005">
        <ele>1104.420</ele>
        <time>2022-08-24T09:12:46Z</time>
      </trkpt>
      <trkpt lat="43.080169999999434" lon="-1.2576020000000006">
        <ele>1104.690</ele>
        <time>2022-08-24T09:12:47Z</time>
      </trkpt>
      <trkpt lat="43.080169999999434" lon="-1.2576360000000006">
        <ele>1104.830</ele>
        <time>2022-08-24T09:12:48Z</time>
      </trkpt>
      <trkpt lat="43.08017099999943" lon="-1.2576700000000007">
        <ele>1104.816</ele>
        <time>2022-08-24T09:12:49Z</time>
      </trkpt>
      <trkpt lat="43.08017199999943" lon="-1.2577010000000006">
        <ele>1105.238</ele>
        <time>2022-08-24T09:12:50Z</time>
      </trkpt>
      <trkpt lat="43.08017299999943" lon="-1.2577290000000005">
        <ele>1105.235</ele>
        <time>2022-08-24T09:12:51Z</time>
      </trkpt>
      <trkpt lat="43.08017299999943" lon="-1.2577580000000006">
        <ele>1105.418</ele>
        <time>2022-08-24T09:12:52Z</time>
      </trkpt>
      <trkpt lat="43.08017499999943" lon="-1.2577850000000006">
        <ele>1105.662</ele>
        <time>2022-08-24T09:12:53Z</time>
      </trkpt>
      <trkpt lat="43.080175999999426" lon="-1.2578150000000006">
        <ele>1105.631</ele>
        <time>2022-08-24T09:12:54Z</time>
      </trkpt>
      <trkpt lat="43.080178999999426" lon="-1.2578450000000005">
        <ele>1105.896</ele>
        <time>2022-08-24T09:12:55Z</time>
      </trkpt>
      <trkpt lat="43.08017999999942" lon="-1.2578790000000006">
        <ele>1105.831</ele>
        <time>2022-08-24T09:12:56Z</time>
      </trkpt>
      <trkpt lat="43.08018099999942" lon="-1.2579160000000007">
        <ele>1105.824</ele>
        <time>2022-08-24T09:12:57Z</time>
      </trkpt>
      <trkpt lat="43.08018299999942" lon="-1.2579560000000007">
        <ele>1106.009</ele>
        <time>2022-08-24T09:12:58Z</time>
      </trkpt>
      <trkpt lat="43.08018699999942" lon="-1.2579970000000007">
        <ele>1106.060</ele>
        <time>2022-08-24T09:12:59Z</time>
      </trkpt>
      <trkpt lat="43.08018999999942" lon="-1.2580400000000007">
        <ele>1106.070</ele>
        <time>2022-08-24T09:13:00Z</time>
      </trkpt>
      <trkpt lat="43.08019199999942" lon="-1.2580850000000008">
        <ele>1106.060</ele>
        <time>2022-08-24T09:13:01Z</time>
      </trkpt>
      <trkpt lat="43.08019399999942" lon="-1.2581300000000009">
        <ele>1106.096</ele>
        <time>2022-08-24T09:13:02Z</time>
      </trkpt>
      <trkpt lat="43.080192999999426" lon="-1.258178000000001">
        <ele>1106.048</ele>
        <time>2022-08-24T09:13:03Z</time>
      </trkpt>
      <trkpt lat="43.08019199999943" lon="-1.258229000000001">
        <ele>1106.085</ele>
        <time>2022-08-24T09:13:04Z</time>
      </trkpt>
      <trkpt lat="43.08018799999943" lon="-1.258285000000001">
        <ele>1106.018</ele>
        <time>2022-08-24T09:13:05Z</time>
      </trkpt>
      <trkpt lat="43.08018199999943" lon="-1.258337000000001">
        <ele>1106.052</ele>
        <time>2022-08-24T09:13:06Z</time>
      </trkpt>
      <trkpt lat="43.080174999999436" lon="-1.2583840000000008">
        <ele>1105.841</ele>
        <time>2022-08-24T09:13:07Z</time>
      </trkpt>
      <trkpt lat="43.08016899999944" lon="-1.2584320000000009">
        <ele>1105.834</ele>
        <time>2022-08-24T09:13:08Z</time>
      </trkpt>
      <trkpt lat="43.080160999999435" lon="-1.258483000000001">
        <ele>1105.855</ele>
        <time>2022-08-24T09:13:09Z</time>
      </trkpt>
      <trkpt lat="43.080146999999435" lon="-1.2585400000000009">
        <ele>1105.810</ele>
        <time>2022-08-24T09:13:10Z</time>
      </trkpt>
      <trkpt lat="43.08012799999943" lon="-1.2585980000000008">
        <ele>1105.609</ele>
        <time>2022-08-24T09:13:11Z</time>
      </trkpt>
      <trkpt lat="43.08012799999943" lon="-1.2585980000000008">
        <ele>1105.694</ele>
        <time>2022-08-24T09:13:12Z</time>
      </trkpt>
      <trkpt lat="43.08005499999943" lon="-1.2587720000000007">
        <ele>1105.454</ele>
        <time>2022-08-24T09:13:14Z</time>
      </trkpt>
      <trkpt lat="43.08005499999943" lon="-1.2587720000000007">
        <ele>1105.274</ele>
        <time>2022-08-24T09:13:15Z</time>
      </trkpt>
      <trkpt lat="43.07997999999943" lon="-1.2589370000000006">
        <ele>1104.850</ele>
        <time>2022-08-24T09:13:18Z</time>
      </trkpt>
      <trkpt lat="43.07992999999943" lon="-1.2590560000000006">
        <ele>1104.452</ele>
        <time>2022-08-24T09:13:19Z</time>
      </trkpt>
      <trkpt lat="43.07990399999943" lon="-1.2591150000000007">
        <ele>1104.289</ele>
        <time>2022-08-24T09:13:20Z</time>
      </trkpt>
      <trkpt lat="43.07987799999943" lon="-1.2591750000000006">
        <ele>1103.472</ele>
        <time>2022-08-24T09:13:21Z</time>
      </trkpt>
      <trkpt lat="43.07981899999943" lon="-1.2593010000000007">
        <ele>1102.226</ele>
        <time>2022-08-24T09:13:23Z</time>
      </trkpt>
      <trkpt lat="43.07975099999943" lon="-1.2594280000000007">
        <ele>1100.865</ele>
        <time>2022-08-24T09:13:25Z</time>
      </trkpt>
      <trkpt lat="43.07962499999943" lon="-1.2596100000000006">
        <ele>1099.226</ele>
        <time>2022-08-24T09:13:28Z</time>
      </trkpt>
      <trkpt lat="43.07952699999943" lon="-1.2597340000000006">
        <ele>1098.247</ele>
        <time>2022-08-24T09:13:30Z</time>
      </trkpt>
      <trkpt lat="43.07947699999943" lon="-1.2597950000000007">
        <ele>1098.011</ele>
        <time>2022-08-24T09:13:31Z</time>
      </trkpt>
      <trkpt lat="43.079370999999426" lon="-1.2599160000000007">
        <ele>1096.809</ele>
        <time>2022-08-24T09:13:33Z</time>
      </trkpt>
      <trkpt lat="43.079171999999424" lon="-1.2601730000000007">
        <ele>1095.423</ele>
        <time>2022-08-24T09:13:37Z</time>
      </trkpt>
      <trkpt lat="43.07912799999942" lon="-1.2602420000000008">
        <ele>1094.683</ele>
        <time>2022-08-24T09:13:38Z</time>
      </trkpt>
      <trkpt lat="43.07907699999942" lon="-1.2603260000000007">
        <ele>1094.413</ele>
        <time>2022-08-24T09:13:39Z</time>
      </trkpt>
      <trkpt lat="43.07895599999942" lon="-1.2605310000000007">
        <ele>1093.239</ele>
        <time>2022-08-24T09:13:42Z</time>
      </trkpt>
      <trkpt lat="43.07880999999942" lon="-1.2607730000000008">
        <ele>1091.851</ele>
        <time>2022-08-24T09:13:45Z</time>
      </trkpt>
      <trkpt lat="43.07870099999942" lon="-1.260939000000001">
        <ele>1091.038</ele>
        <time>2022-08-24T09:13:47Z</time>
      </trkpt>
      <trkpt lat="43.07864299999942" lon="-1.2610240000000008">
        <ele>1090.691</ele>
        <time>2022-08-24T09:13:48Z</time>
      </trkpt>
      <trkpt lat="43.078524999999416" lon="-1.2611910000000008">
        <ele>1089.425</ele>
        <time>2022-08-24T09:13:50Z</time>
      </trkpt>
      <trkpt lat="43.07846499999942" lon="-1.2612760000000007">
        <ele>1088.224</ele>
        <time>2022-08-24T09:13:51Z</time>
      </trkpt>
      <trkpt lat="43.07833999999942" lon="-1.2614520000000007">
        <ele>1087.065</ele>
        <time>2022-08-24T09:13:53Z</time>
      </trkpt>
      <trkpt lat="43.07827899999942" lon="-1.2615420000000006">
        <ele>1086.468</ele>
        <time>2022-08-24T09:13:54Z</time>
      </trkpt>
      <trkpt lat="43.07822099999942" lon="-1.2616380000000007">
        <ele>1086.014</ele>
        <time>2022-08-24T09:13:55Z</time>
      </trkpt>
      <trkpt lat="43.07810999999942" lon="-1.2618330000000006">
        <ele>1084.809</ele>
        <time>2022-08-24T09:13:57Z</time>
      </trkpt>
      <trkpt lat="43.07805499999942" lon="-1.2619290000000007">
        <ele>1084.657</ele>
        <time>2022-08-24T09:13:58Z</time>
      </trkpt>
      <trkpt lat="43.07800299999942" lon="-1.2620210000000007">
        <ele>1084.227</ele>
        <time>2022-08-24T09:13:59Z</time>
      </trkpt>
      <trkpt lat="43.07795199999942" lon="-1.2621070000000008">
        <ele>1083.867</ele>
        <time>2022-08-24T09:14:00Z</time>
      </trkpt>
      <trkpt lat="43.077902999999424" lon="-1.2621860000000007">
        <ele>1083.233</ele>
        <time>2022-08-24T09:14:01Z</time>
      </trkpt>
      <trkpt lat="43.07785599999942" lon="-1.2622590000000007">
        <ele>1083.225</ele>
        <time>2022-08-24T09:14:02Z</time>
      </trkpt>
      <trkpt lat="43.07780899999942" lon="-1.2623270000000006">
        <ele>1083.022</ele>
        <time>2022-08-24T09:14:03Z</time>
      </trkpt>
      <trkpt lat="43.07776399999942" lon="-1.2623870000000006">
        <ele>1083.055</ele>
        <time>2022-08-24T09:14:04Z</time>
      </trkpt>
      <trkpt lat="43.07771999999942" lon="-1.2624390000000005">
        <ele>1083.059</ele>
        <time>2022-08-24T09:14:05Z</time>
      </trkpt>
      <trkpt lat="43.077677999999416" lon="-1.2624850000000005">
        <ele>1083.078</ele>
        <time>2022-08-24T09:14:06Z</time>
      </trkpt>
      <trkpt lat="43.077632999999416" lon="-1.2625320000000004">
        <ele>1083.071</ele>
        <time>2022-08-24T09:14:07Z</time>
      </trkpt>
      <trkpt lat="43.07760399999942" lon="-1.2625580000000005">
        <ele>1083.241</ele>
        <time>2022-08-24T09:14:08Z</time>
      </trkpt>
      <trkpt lat="43.07756899999942" lon="-1.2625900000000005">
        <ele>1083.415</ele>
        <time>2022-08-24T09:14:09Z</time>
      </trkpt>
      <trkpt lat="43.077536999999424" lon="-1.2626200000000005">
        <ele>1084.009</ele>
        <time>2022-08-24T09:14:10Z</time>
      </trkpt>
      <trkpt lat="43.07750499999943" lon="-1.2626480000000004">
        <ele>1084.278</ele>
        <time>2022-08-24T09:14:11Z</time>
      </trkpt>
      <trkpt lat="43.07747299999943" lon="-1.2626740000000005">
        <ele>1084.438</ele>
        <time>2022-08-24T09:14:12Z</time>
      </trkpt>
      <trkpt lat="43.07744099999943" lon="-1.2627020000000004">
        <ele>1084.838</ele>
        <time>2022-08-24T09:14:13Z</time>
      </trkpt>
      <trkpt lat="43.07740999999943" lon="-1.2627290000000004">
        <ele>1085.044</ele>
        <time>2022-08-24T09:14:14Z</time>
      </trkpt>
      <trkpt lat="43.077377999999435" lon="-1.2627520000000005">
        <ele>1085.486</ele>
        <time>2022-08-24T09:14:15Z</time>
      </trkpt>
      <trkpt lat="43.07734799999943" lon="-1.2627740000000005">
        <ele>1085.633</ele>
        <time>2022-08-24T09:14:16Z</time>
      </trkpt>
      <trkpt lat="43.07731499999943" lon="-1.2627960000000005">
        <ele>1085.866</ele>
        <time>2022-08-24T09:14:17Z</time>
      </trkpt>
      <trkpt lat="43.07728199999943" lon="-1.2628160000000004">
        <ele>1086.030</ele>
        <time>2022-08-24T09:14:18Z</time>
      </trkpt>
      <trkpt lat="43.07724699999943" lon="-1.2628320000000004">
        <ele>1086.259</ele>
        <time>2022-08-24T09:14:19Z</time>
      </trkpt>
      <trkpt lat="43.077214999999434" lon="-1.2628490000000003">
        <ele>1086.484</ele>
        <time>2022-08-24T09:14:20Z</time>
      </trkpt>
      <trkpt lat="43.07718299999944" lon="-1.2628640000000004">
        <ele>1086.407</ele>
        <time>2022-08-24T09:14:21Z</time>
      </trkpt>
      <trkpt lat="43.07714899999944" lon="-1.2628810000000004">
        <ele>1086.617</ele>
        <time>2022-08-24T09:14:22Z</time>
      </trkpt>
      <trkpt lat="43.07708299999944" lon="-1.2629170000000003">
        <ele>1086.809</ele>
        <time>2022-08-24T09:14:24Z</time>
      </trkpt>
      <trkpt lat="43.07700699999944" lon="-1.2629490000000003">
        <ele>1087.249</ele>
        <time>2022-08-24T09:14:26Z</time>
      </trkpt>
      <trkpt lat="43.07694199999944" lon="-1.2629740000000003">
        <ele>1087.099</ele>
        <time>2022-08-24T09:14:28Z</time>
      </trkpt>
      <trkpt lat="43.07687499999944" lon="-1.2630040000000002">
        <ele>1086.649</ele>
        <time>2022-08-24T09:14:30Z</time>
      </trkpt>
      <trkpt lat="43.07684199999944" lon="-1.2630160000000001">
        <ele>1086.485</ele>
        <time>2022-08-24T09:14:31Z</time>
      </trkpt>
      <trkpt lat="43.076808999999436" lon="-1.2630290000000002">
        <ele>1086.247</ele>
        <time>2022-08-24T09:14:32Z</time>
      </trkpt>
      <trkpt lat="43.076808999999436" lon="-1.2630290000000002">
        <ele>1086.224</ele>
        <time>2022-08-24T09:14:33Z</time>
      </trkpt>
      <trkpt lat="43.076749999999436" lon="-1.2630550000000003">
        <ele>1086.247</ele>
        <time>2022-08-24T09:14:34Z</time>
      </trkpt>
      <trkpt lat="43.07672299999943" lon="-1.2630690000000002">
        <ele>1086.061</ele>
        <time>2022-08-24T09:14:35Z</time>
      </trkpt>
      <trkpt lat="43.07669499999943" lon="-1.2630820000000003">
        <ele>1086.010</ele>
        <time>2022-08-24T09:14:36Z</time>
      </trkpt>
      <trkpt lat="43.076668999999434" lon="-1.2630920000000003">
        <ele>1085.618</ele>
        <time>2022-08-24T09:14:37Z</time>
      </trkpt>
      <trkpt lat="43.07664399999943" lon="-1.2630970000000004">
        <ele>1085.698</ele>
        <time>2022-08-24T09:14:38Z</time>
      </trkpt>
      <trkpt lat="43.07662299999944" lon="-1.2631060000000003">
        <ele>1085.217</ele>
        <time>2022-08-24T09:14:39Z</time>
      </trkpt>
      <trkpt lat="43.07659699999944" lon="-1.2631150000000002">
        <ele>1085.209</ele>
        <time>2022-08-24T09:14:40Z</time>
      </trkpt>
      <trkpt lat="43.07657099999944" lon="-1.2631240000000001">
        <ele>1085.212</ele>
        <time>2022-08-24T09:14:41Z</time>
      </trkpt>
      <trkpt lat="43.07654699999944" lon="-1.26313">
        <ele>1085.092</ele>
        <time>2022-08-24T09:14:42Z</time>
      </trkpt>
      <trkpt lat="43.07652599999944" lon="-1.2631320000000001">
        <ele>1085.032</ele>
        <time>2022-08-24T09:14:43Z</time>
      </trkpt>
      <trkpt lat="43.07650199999944" lon="-1.2631370000000002">
        <ele>1084.888</ele>
        <time>2022-08-24T09:14:44Z</time>
      </trkpt>
      <trkpt lat="43.07637799999944" lon="-1.263173">
        <ele>1084.280</ele>
        <time>2022-08-24T09:14:49Z</time>
      </trkpt>
      <trkpt lat="43.076352999999436" lon="-1.263174">
        <ele>1084.217</ele>
        <time>2022-08-24T09:14:50Z</time>
      </trkpt>
      <trkpt lat="43.07627599999944" lon="-1.263181">
        <ele>1084.260</ele>
        <time>2022-08-24T09:14:53Z</time>
      </trkpt>
      <trkpt lat="43.076251999999435" lon="-1.2631880000000002">
        <ele>1084.294</ele>
        <time>2022-08-24T09:14:54Z</time>
      </trkpt>
      <trkpt lat="43.07622899999944" lon="-1.2631960000000002">
        <ele>1084.273</ele>
        <time>2022-08-24T09:14:55Z</time>
      </trkpt>
      <trkpt lat="43.07620499999943" lon="-1.2632020000000002">
        <ele>1084.472</ele>
        <time>2022-08-24T09:14:56Z</time>
      </trkpt>
      <trkpt lat="43.07618099999943" lon="-1.2632050000000001">
        <ele>1084.413</ele>
        <time>2022-08-24T09:14:57Z</time>
      </trkpt>
      <trkpt lat="43.07615799999943" lon="-1.263209">
        <ele>1084.414</ele>
        <time>2022-08-24T09:14:58Z</time>
      </trkpt>
      <trkpt lat="43.07593599999943" lon="-1.263261">
        <ele>1084.609</ele>
        <time>2022-08-24T09:15:06Z</time>
      </trkpt>
      <trkpt lat="43.07590499999943" lon="-1.263271">
        <ele>1084.838</ele>
        <time>2022-08-24T09:15:07Z</time>
      </trkpt>
      <trkpt lat="43.07587599999943" lon="-1.263279">
        <ele>1084.888</ele>
        <time>2022-08-24T09:15:08Z</time>
      </trkpt>
      <trkpt lat="43.07579199999943" lon="-1.263319">
        <ele>1084.888</ele>
        <time>2022-08-24T09:15:11Z</time>
      </trkpt>
      <trkpt lat="43.07576799999943" lon="-1.2633340000000002">
        <ele>1085.224</ele>
        <time>2022-08-24T09:15:12Z</time>
      </trkpt>
      <trkpt lat="43.075743999999425" lon="-1.263354">
        <ele>1085.246</ele>
        <time>2022-08-24T09:15:13Z</time>
      </trkpt>
      <trkpt lat="43.075720999999426" lon="-1.2633770000000002">
        <ele>1085.663</ele>
        <time>2022-08-24T09:15:14Z</time>
      </trkpt>
      <trkpt lat="43.07569799999943" lon="-1.2634010000000002">
        <ele>1085.836</ele>
        <time>2022-08-24T09:15:15Z</time>
      </trkpt>
      <trkpt lat="43.07567699999943" lon="-1.2634260000000002">
        <ele>1086.220</ele>
        <time>2022-08-24T09:15:16Z</time>
      </trkpt>
      <trkpt lat="43.07565699999943" lon="-1.2634520000000002">
        <ele>1086.889</ele>
        <time>2022-08-24T09:15:17Z</time>
      </trkpt>
      <trkpt lat="43.07561699999943" lon="-1.2635040000000002">
        <ele>1087.463</ele>
        <time>2022-08-24T09:15:19Z</time>
      </trkpt>
      <trkpt lat="43.07555499999943" lon="-1.263586">
        <ele>1088.044</ele>
        <time>2022-08-24T09:15:22Z</time>
      </trkpt>
      <trkpt lat="43.075534999999434" lon="-1.263614">
        <ele>1088.218</ele>
        <time>2022-08-24T09:15:23Z</time>
      </trkpt>
      <trkpt lat="43.075534999999434" lon="-1.263614">
        <ele>1088.209</ele>
        <time>2022-08-24T09:15:24Z</time>
      </trkpt>
      <trkpt lat="43.07549699999943" lon="-1.263669">
        <ele>1088.297</ele>
        <time>2022-08-24T09:15:25Z</time>
      </trkpt>
      <trkpt lat="43.07547799999943" lon="-1.2636969999999998">
        <ele>1088.287</ele>
        <time>2022-08-24T09:15:26Z</time>
      </trkpt>
      <trkpt lat="43.07547799999943" lon="-1.2636969999999998">
        <ele>1088.277</ele>
        <time>2022-08-24T09:15:27Z</time>
      </trkpt>
      <trkpt lat="43.07544299999943" lon="-1.2637509999999998">
        <ele>1088.293</ele>
        <time>2022-08-24T09:15:28Z</time>
      </trkpt>
      <trkpt lat="43.07542599999943" lon="-1.2637749999999999">
        <ele>1088.225</ele>
        <time>2022-08-24T09:15:29Z</time>
      </trkpt>
      <trkpt lat="43.07542599999943" lon="-1.2637749999999999">
        <ele>1088.042</ele>
        <time>2022-08-24T09:15:30Z</time>
      </trkpt>
      <trkpt lat="43.075393999999434" lon="-1.2638219999999998">
        <ele>1087.855</ele>
        <time>2022-08-24T09:15:31Z</time>
      </trkpt>
      <trkpt lat="43.075381999999436" lon="-1.2638459999999998">
        <ele>1087.699</ele>
        <time>2022-08-24T09:15:32Z</time>
      </trkpt>
      <trkpt lat="43.075367999999436" lon="-1.263869">
        <ele>1087.418</ele>
        <time>2022-08-24T09:15:33Z</time>
      </trkpt>
      <trkpt lat="43.07535299999944" lon="-1.2638889999999998">
        <ele>1087.225</ele>
        <time>2022-08-24T09:15:34Z</time>
      </trkpt>
      <trkpt lat="43.075339999999436" lon="-1.263904">
        <ele>1087.026</ele>
        <time>2022-08-24T09:15:35Z</time>
      </trkpt>
      <trkpt lat="43.075334999999434" lon="-1.263911">
        <ele>1086.808</ele>
        <time>2022-08-24T09:15:36Z</time>
      </trkpt>
      <trkpt lat="43.07529899999943" lon="-1.263955">
        <ele>1084.409</ele>
        <time>2022-08-24T09:16:54Z</time>
      </trkpt>
      <trkpt lat="43.07522099999943" lon="-1.264077">
        <ele>1084.633</ele>
        <time>2022-08-24T09:16:59Z</time>
      </trkpt>
      <trkpt lat="43.07519899999943" lon="-1.264114">
        <ele>1084.883</ele>
        <time>2022-08-24T09:17:01Z</time>
      </trkpt>
      <trkpt lat="43.07518999999943" lon="-1.264131">
        <ele>1085.073</ele>
        <time>2022-08-24T09:17:02Z</time>
      </trkpt>
      <trkpt lat="43.07516799999943" lon="-1.2641689999999999">
        <ele>1085.299</ele>
        <time>2022-08-24T09:17:04Z</time>
      </trkpt>
      <trkpt lat="43.07515599999943" lon="-1.2641889999999998">
        <ele>1085.651</ele>
        <time>2022-08-24T09:17:05Z</time>
      </trkpt>
      <trkpt lat="43.07514499999943" lon="-1.2642069999999999">
        <ele>1086.038</ele>
        <time>2022-08-24T09:17:06Z</time>
      </trkpt>
      <trkpt lat="43.07513099999943" lon="-1.2642239999999998">
        <ele>1086.061</ele>
        <time>2022-08-24T09:17:07Z</time>
      </trkpt>
      <trkpt lat="43.07508099999943" lon="-1.2643059999999997">
        <ele>1086.425</ele>
        <time>2022-08-24T09:17:11Z</time>
      </trkpt>
      <trkpt lat="43.075070999999426" lon="-1.2643259999999996">
        <ele>1086.614</ele>
        <time>2022-08-24T09:17:12Z</time>
      </trkpt>
      <trkpt lat="43.075059999999425" lon="-1.2643429999999996">
        <ele>1086.643</ele>
        <time>2022-08-24T09:17:13Z</time>
      </trkpt>
      <trkpt lat="43.07504699999942" lon="-1.2643589999999996">
        <ele>1086.664</ele>
        <time>2022-08-24T09:17:14Z</time>
      </trkpt>
      <trkpt lat="43.07503699999942" lon="-1.2643759999999995">
        <ele>1086.610</ele>
        <time>2022-08-24T09:17:15Z</time>
      </trkpt>
      <trkpt lat="43.07502499999942" lon="-1.2643919999999995">
        <ele>1086.609</ele>
        <time>2022-08-24T09:17:16Z</time>
      </trkpt>
      <trkpt lat="43.07501099999942" lon="-1.2644059999999995">
        <ele>1086.665</ele>
        <time>2022-08-24T09:17:17Z</time>
      </trkpt>
      <trkpt lat="43.07499899999942" lon="-1.2644229999999994">
        <ele>1086.645</ele>
        <time>2022-08-24T09:17:18Z</time>
      </trkpt>
      <trkpt lat="43.074975999999424" lon="-1.2644629999999994">
        <ele>1086.895</ele>
        <time>2022-08-24T09:17:20Z</time>
      </trkpt>
      <trkpt lat="43.07488399999942" lon="-1.2646279999999994">
        <ele>1087.081</ele>
        <time>2022-08-24T09:17:28Z</time>
      </trkpt>
      <trkpt lat="43.07483899999942" lon="-1.2647099999999993">
        <ele>1087.023</ele>
        <time>2022-08-24T09:17:32Z</time>
      </trkpt>
      <trkpt lat="43.07482799999942" lon="-1.2647279999999994">
        <ele>1087.040</ele>
        <time>2022-08-24T09:17:33Z</time>
      </trkpt>
      <trkpt lat="43.07480599999942" lon="-1.2647699999999995">
        <ele>1087.063</ele>
        <time>2022-08-24T09:17:35Z</time>
      </trkpt>
      <trkpt lat="43.07479799999942" lon="-1.2647909999999996">
        <ele>1087.057</ele>
        <time>2022-08-24T09:17:36Z</time>
      </trkpt>
      <trkpt lat="43.07478699999942" lon="-1.2648129999999995">
        <ele>1087.046</ele>
        <time>2022-08-24T09:17:37Z</time>
      </trkpt>
      <trkpt lat="43.07477499999942" lon="-1.2648359999999996">
        <ele>1087.077</ele>
        <time>2022-08-24T09:17:38Z</time>
      </trkpt>
      <trkpt lat="43.07471799999942" lon="-1.2649409999999996">
        <ele>1087.261</ele>
        <time>2022-08-24T09:17:43Z</time>
      </trkpt>
      <trkpt lat="43.07470599999942" lon="-1.2649609999999996">
        <ele>1087.227</ele>
        <time>2022-08-24T09:17:44Z</time>
      </trkpt>
      <trkpt lat="43.07469499999942" lon="-1.2649809999999995">
        <ele>1087.209</ele>
        <time>2022-08-24T09:17:45Z</time>
      </trkpt>
      <trkpt lat="43.07468499999942" lon="-1.2650009999999994">
        <ele>1087.488</ele>
        <time>2022-08-24T09:17:46Z</time>
      </trkpt>
      <trkpt lat="43.07467499999942" lon="-1.2650229999999993">
        <ele>1087.448</ele>
        <time>2022-08-24T09:17:47Z</time>
      </trkpt>
      <trkpt lat="43.07466499999941" lon="-1.2650449999999993">
        <ele>1087.418</ele>
        <time>2022-08-24T09:17:48Z</time>
      </trkpt>
      <trkpt lat="43.074644999999414" lon="-1.2650919999999992">
        <ele>1087.674</ele>
        <time>2022-08-24T09:17:50Z</time>
      </trkpt>
      <trkpt lat="43.07463499999941" lon="-1.2651149999999993">
        <ele>1087.656</ele>
        <time>2022-08-24T09:17:51Z</time>
      </trkpt>
      <trkpt lat="43.074602999999414" lon="-1.2651759999999994">
        <ele>1088.093</ele>
        <time>2022-08-24T09:17:54Z</time>
      </trkpt>
      <trkpt lat="43.074570999999416" lon="-1.2652359999999994">
        <ele>1088.466</ele>
        <time>2022-08-24T09:17:57Z</time>
      </trkpt>
      <trkpt lat="43.074559999999416" lon="-1.2652569999999994">
        <ele>1088.640</ele>
        <time>2022-08-24T09:17:58Z</time>
      </trkpt>
      <trkpt lat="43.074525999999416" lon="-1.2653159999999994">
        <ele>1088.619</ele>
        <time>2022-08-24T09:18:01Z</time>
      </trkpt>
      <trkpt lat="43.074503999999415" lon="-1.2653579999999995">
        <ele>1088.856</ele>
        <time>2022-08-24T09:18:03Z</time>
      </trkpt>
      <trkpt lat="43.07449399999941" lon="-1.2653779999999994">
        <ele>1089.059</ele>
        <time>2022-08-24T09:18:04Z</time>
      </trkpt>
      <trkpt lat="43.07448099999941" lon="-1.2653989999999995">
        <ele>1089.214</ele>
        <time>2022-08-24T09:18:05Z</time>
      </trkpt>
      <trkpt lat="43.07447199999941" lon="-1.2654119999999995">
        <ele>1089.209</ele>
        <time>2022-08-24T09:18:06Z</time>
      </trkpt>
      <trkpt lat="43.07445899999941" lon="-1.2654299999999996">
        <ele>1089.226</ele>
        <time>2022-08-24T09:18:07Z</time>
      </trkpt>
      <trkpt lat="43.074436999999406" lon="-1.2654709999999996">
        <ele>1089.436</ele>
        <time>2022-08-24T09:18:09Z</time>
      </trkpt>
      <trkpt lat="43.07442799999941" lon="-1.2654899999999996">
        <ele>1089.626</ele>
        <time>2022-08-24T09:18:10Z</time>
      </trkpt>
      <trkpt lat="43.07441899999941" lon="-1.2655079999999996">
        <ele>1089.882</ele>
        <time>2022-08-24T09:18:11Z</time>
      </trkpt>
      <trkpt lat="43.07436999999941" lon="-1.2656069999999997">
        <ele>1090.484</ele>
        <time>2022-08-24T09:18:16Z</time>
      </trkpt>
      <trkpt lat="43.074357999999414" lon="-1.2656259999999997">
        <ele>1090.671</ele>
        <time>2022-08-24T09:18:17Z</time>
      </trkpt>
      <trkpt lat="43.074348999999415" lon="-1.2656449999999997">
        <ele>1090.654</ele>
        <time>2022-08-24T09:18:18Z</time>
      </trkpt>
      <trkpt lat="43.07433899999941" lon="-1.2656629999999998">
        <ele>1090.878</ele>
        <time>2022-08-24T09:18:19Z</time>
      </trkpt>
      <trkpt lat="43.074326999999414" lon="-1.2656839999999998">
        <ele>1090.847</ele>
        <time>2022-08-24T09:18:20Z</time>
      </trkpt>
      <trkpt lat="43.074317999999415" lon="-1.2657059999999998">
        <ele>1091.083</ele>
        <time>2022-08-24T09:18:21Z</time>
      </trkpt>
      <trkpt lat="43.07430899999942" lon="-1.2657279999999997">
        <ele>1091.425</ele>
        <time>2022-08-24T09:18:22Z</time>
      </trkpt>
      <trkpt lat="43.074298999999414" lon="-1.2657479999999997">
        <ele>1091.617</ele>
        <time>2022-08-24T09:18:23Z</time>
      </trkpt>
      <trkpt lat="43.074289999999415" lon="-1.2657669999999996">
        <ele>1091.809</ele>
        <time>2022-08-24T09:18:24Z</time>
      </trkpt>
      <trkpt lat="43.074278999999414" lon="-1.2657859999999996">
        <ele>1092.059</ele>
        <time>2022-08-24T09:18:25Z</time>
      </trkpt>
      <trkpt lat="43.074269999999416" lon="-1.2658059999999995">
        <ele>1092.029</ele>
        <time>2022-08-24T09:18:26Z</time>
      </trkpt>
      <trkpt lat="43.07425999999941" lon="-1.2658259999999995">
        <ele>1092.029</ele>
        <time>2022-08-24T09:18:27Z</time>
      </trkpt>
      <trkpt lat="43.07425199999941" lon="-1.2658479999999994">
        <ele>1092.215</ele>
        <time>2022-08-24T09:18:28Z</time>
      </trkpt>
      <trkpt lat="43.07424099999941" lon="-1.2658689999999995">
        <ele>1092.437</ele>
        <time>2022-08-24T09:18:29Z</time>
      </trkpt>
      <trkpt lat="43.07423099999941" lon="-1.2658889999999994">
        <ele>1092.484</ele>
        <time>2022-08-24T09:18:30Z</time>
      </trkpt>
      <trkpt lat="43.074220999999405" lon="-1.2659079999999994">
        <ele>1092.667</ele>
        <time>2022-08-24T09:18:31Z</time>
      </trkpt>
      <trkpt lat="43.0742129999994" lon="-1.2659279999999993">
        <ele>1092.861</ele>
        <time>2022-08-24T09:18:32Z</time>
      </trkpt>
      <trkpt lat="43.0742029999994" lon="-1.2659489999999993">
        <ele>1093.020</ele>
        <time>2022-08-24T09:18:33Z</time>
      </trkpt>
      <trkpt lat="43.0741949999994" lon="-1.2659689999999992">
        <ele>1093.057</ele>
        <time>2022-08-24T09:18:34Z</time>
      </trkpt>
      <trkpt lat="43.074184999999396" lon="-1.2659909999999992">
        <ele>1093.400</ele>
        <time>2022-08-24T09:18:35Z</time>
      </trkpt>
      <trkpt lat="43.074173999999395" lon="-1.2660129999999992">
        <ele>1093.620</ele>
        <time>2022-08-24T09:18:36Z</time>
      </trkpt>
      <trkpt lat="43.074162999999395" lon="-1.2660319999999992">
        <ele>1093.609</ele>
        <time>2022-08-24T09:18:37Z</time>
      </trkpt>
      <trkpt lat="43.07415299999939" lon="-1.2660509999999991">
        <ele>1093.836</ele>
        <time>2022-08-24T09:18:38Z</time>
      </trkpt>
      <trkpt lat="43.07414499999939" lon="-1.2660719999999992">
        <ele>1094.066</ele>
        <time>2022-08-24T09:18:39Z</time>
      </trkpt>
      <trkpt lat="43.074137999999394" lon="-1.2660899999999993">
        <ele>1094.066</ele>
        <time>2022-08-24T09:18:40Z</time>
      </trkpt>
      <trkpt lat="43.0741309999994" lon="-1.2661079999999993">
        <ele>1094.072</ele>
        <time>2022-08-24T09:18:41Z</time>
      </trkpt>
      <trkpt lat="43.0741249999994" lon="-1.2661259999999994">
        <ele>1094.294</ele>
        <time>2022-08-24T09:18:42Z</time>
      </trkpt>
      <trkpt lat="43.0741179999994" lon="-1.2661449999999994">
        <ele>1094.231</ele>
        <time>2022-08-24T09:18:43Z</time>
      </trkpt>
      <trkpt lat="43.0741089999994" lon="-1.2661649999999993">
        <ele>1094.294</ele>
        <time>2022-08-24T09:18:44Z</time>
      </trkpt>
      <trkpt lat="43.0740989999994" lon="-1.2661849999999992">
        <ele>1094.278</ele>
        <time>2022-08-24T09:18:45Z</time>
      </trkpt>
      <trkpt lat="43.0740879999994" lon="-1.2662029999999993">
        <ele>1094.487</ele>
        <time>2022-08-24T09:18:46Z</time>
      </trkpt>
      <trkpt lat="43.0740799999994" lon="-1.2662179999999994">
        <ele>1094.431</ele>
        <time>2022-08-24T09:18:47Z</time>
      </trkpt>
      <trkpt lat="43.074069999999395" lon="-1.2662329999999995">
        <ele>1094.661</ele>
        <time>2022-08-24T09:18:48Z</time>
      </trkpt>
      <trkpt lat="43.07405999999939" lon="-1.2662479999999996">
        <ele>1094.807</ele>
        <time>2022-08-24T09:18:49Z</time>
      </trkpt>
      <trkpt lat="43.07404599999939" lon="-1.2662659999999997">
        <ele>1095.009</ele>
        <time>2022-08-24T09:18:50Z</time>
      </trkpt>
      <trkpt lat="43.07403699999939" lon="-1.2662839999999997">
        <ele>1095.084</ele>
        <time>2022-08-24T09:18:51Z</time>
      </trkpt>
      <trkpt lat="43.07402699999939" lon="-1.2662969999999998">
        <ele>1095.244</ele>
        <time>2022-08-24T09:18:52Z</time>
      </trkpt>
      <trkpt lat="43.07401699999939" lon="-1.2663109999999997">
        <ele>1095.224</ele>
        <time>2022-08-24T09:18:53Z</time>
      </trkpt>
      <trkpt lat="43.074005999999386" lon="-1.2663239999999998">
        <ele>1095.450</ele>
        <time>2022-08-24T09:18:54Z</time>
      </trkpt>
      <trkpt lat="43.073991999999386" lon="-1.2663369999999998">
        <ele>1095.692</ele>
        <time>2022-08-24T09:18:55Z</time>
      </trkpt>
      <trkpt lat="43.07397999999939" lon="-1.2663479999999998">
        <ele>1095.849</ele>
        <time>2022-08-24T09:18:56Z</time>
      </trkpt>
      <trkpt lat="43.07397099999939" lon="-1.2663599999999997">
        <ele>1095.822</ele>
        <time>2022-08-24T09:18:57Z</time>
      </trkpt>
      <trkpt lat="43.073960999999386" lon="-1.2663729999999997">
        <ele>1096.076</ele>
        <time>2022-08-24T09:18:58Z</time>
      </trkpt>
      <trkpt lat="43.073949999999385" lon="-1.2663859999999998">
        <ele>1096.085</ele>
        <time>2022-08-24T09:18:59Z</time>
      </trkpt>
      <trkpt lat="43.07393499999939" lon="-1.2663989999999998">
        <ele>1096.062</ele>
        <time>2022-08-24T09:19:00Z</time>
      </trkpt>
      <trkpt lat="43.07392099999939" lon="-1.2664079999999998">
        <ele>1096.483</ele>
        <time>2022-08-24T09:19:01Z</time>
      </trkpt>
      <trkpt lat="43.07390699999939" lon="-1.2664169999999997">
        <ele>1096.811</ele>
        <time>2022-08-24T09:19:02Z</time>
      </trkpt>
      <trkpt lat="43.07389499999939" lon="-1.2664269999999997">
        <ele>1097.009</ele>
        <time>2022-08-24T09:19:03Z</time>
      </trkpt>
      <trkpt lat="43.07388399999939" lon="-1.2664369999999998">
        <ele>1097.487</ele>
        <time>2022-08-24T09:19:04Z</time>
      </trkpt>
      <trkpt lat="43.07387199999939" lon="-1.2664459999999997">
        <ele>1097.447</ele>
        <time>2022-08-24T09:19:05Z</time>
      </trkpt>
      <trkpt lat="43.07385999999939" lon="-1.2664539999999997">
        <ele>1097.667</ele>
        <time>2022-08-24T09:19:06Z</time>
      </trkpt>
      <trkpt lat="43.07384599999939" lon="-1.2664609999999998">
        <ele>1097.833</ele>
        <time>2022-08-24T09:19:07Z</time>
      </trkpt>
      <trkpt lat="43.07383199999939" lon="-1.266468">
        <ele>1097.865</ele>
        <time>2022-08-24T09:19:08Z</time>
      </trkpt>
      <trkpt lat="43.07383199999939" lon="-1.266468">
        <ele>1097.832</ele>
        <time>2022-08-24T09:19:09Z</time>
      </trkpt>
      <trkpt lat="43.07380099999939" lon="-1.266483">
        <ele>1098.035</ele>
        <time>2022-08-24T09:19:10Z</time>
      </trkpt>
      <trkpt lat="43.07378699999939" lon="-1.266488">
        <ele>1098.249</ele>
        <time>2022-08-24T09:19:11Z</time>
      </trkpt>
      <trkpt lat="43.07377399999939" lon="-1.266494">
        <ele>1098.448</ele>
        <time>2022-08-24T09:19:12Z</time>
      </trkpt>
      <trkpt lat="43.07376099999939" lon="-1.2665">
        <ele>1098.638</ele>
        <time>2022-08-24T09:19:13Z</time>
      </trkpt>
      <trkpt lat="43.07374599999939" lon="-1.266505">
        <ele>1099.070</ele>
        <time>2022-08-24T09:19:14Z</time>
      </trkpt>
      <trkpt lat="43.07372999999939" lon="-1.2665089999999999">
        <ele>1099.217</ele>
        <time>2022-08-24T09:19:15Z</time>
      </trkpt>
      <trkpt lat="43.073713999999384" lon="-1.2665149999999998">
        <ele>1099.409</ele>
        <time>2022-08-24T09:19:16Z</time>
      </trkpt>
      <trkpt lat="43.07369799999938" lon="-1.2665199999999999">
        <ele>1099.684</ele>
        <time>2022-08-24T09:19:17Z</time>
      </trkpt>
      <trkpt lat="43.073682999999384" lon="-1.266527">
        <ele>1099.644</ele>
        <time>2022-08-24T09:19:18Z</time>
      </trkpt>
      <trkpt lat="43.07366799999939" lon="-1.2665359999999999">
        <ele>1100.044</ele>
        <time>2022-08-24T09:19:19Z</time>
      </trkpt>
      <trkpt lat="43.07365599999939" lon="-1.266544">
        <ele>1100.440</ele>
        <time>2022-08-24T09:19:20Z</time>
      </trkpt>
      <trkpt lat="43.07364099999939" lon="-1.266551">
        <ele>1100.442</ele>
        <time>2022-08-24T09:19:21Z</time>
      </trkpt>
      <trkpt lat="43.07362499999939" lon="-1.266556">
        <ele>1100.889</ele>
        <time>2022-08-24T09:19:22Z</time>
      </trkpt>
      <trkpt lat="43.07360699999939" lon="-1.26656">
        <ele>1101.022</ele>
        <time>2022-08-24T09:19:23Z</time>
      </trkpt>
      <trkpt lat="43.07359099999939" lon="-1.266565">
        <ele>1101.086</ele>
        <time>2022-08-24T09:19:24Z</time>
      </trkpt>
      <trkpt lat="43.07357499999939" lon="-1.2665739999999999">
        <ele>1101.035</ele>
        <time>2022-08-24T09:19:25Z</time>
      </trkpt>
      <trkpt lat="43.073558999999385" lon="-1.2665819999999999">
        <ele>1101.475</ele>
        <time>2022-08-24T09:19:26Z</time>
      </trkpt>
      <trkpt lat="43.07354399999939" lon="-1.266587">
        <ele>1101.628</ele>
        <time>2022-08-24T09:19:27Z</time>
      </trkpt>
      <trkpt lat="43.07352599999939" lon="-1.266592">
        <ele>1101.820</ele>
        <time>2022-08-24T09:19:28Z</time>
      </trkpt>
      <trkpt lat="43.07351099999939" lon="-1.266597">
        <ele>1102.009</ele>
        <time>2022-08-24T09:19:29Z</time>
      </trkpt>
      <trkpt lat="43.07349399999939" lon="-1.266604">
        <ele>1102.238</ele>
        <time>2022-08-24T09:19:30Z</time>
      </trkpt>
      <trkpt lat="43.073478999999395" lon="-1.266609">
        <ele>1102.488</ele>
        <time>2022-08-24T09:19:31Z</time>
      </trkpt>
      <trkpt lat="43.073461999999395" lon="-1.266615">
        <ele>1102.628</ele>
        <time>2022-08-24T09:19:32Z</time>
      </trkpt>
      <trkpt lat="43.07344599999939" lon="-1.266619">
        <ele>1102.854</ele>
        <time>2022-08-24T09:19:33Z</time>
      </trkpt>
      <trkpt lat="43.07342999999939" lon="-1.266622">
        <ele>1103.056</ele>
        <time>2022-08-24T09:19:34Z</time>
      </trkpt>
      <trkpt lat="43.07341399999939" lon="-1.2666279999999999">
        <ele>1103.233</ele>
        <time>2022-08-24T09:19:35Z</time>
      </trkpt>
      <trkpt lat="43.073400999999386" lon="-1.2666319999999998">
        <ele>1103.446</ele>
        <time>2022-08-24T09:19:36Z</time>
      </trkpt>
      <trkpt lat="43.073384999999384" lon="-1.2666389999999998">
        <ele>1103.690</ele>
        <time>2022-08-24T09:19:37Z</time>
      </trkpt>
      <trkpt lat="43.07336899999938" lon="-1.2666429999999997">
        <ele>1103.849</ele>
        <time>2022-08-24T09:19:38Z</time>
      </trkpt>
      <trkpt lat="43.07335599999938" lon="-1.2666439999999997">
        <ele>1104.055</ele>
        <time>2022-08-24T09:19:39Z</time>
      </trkpt>
      <trkpt lat="43.07334199999938" lon="-1.2666459999999997">
        <ele>1104.207</ele>
        <time>2022-08-24T09:19:40Z</time>
      </trkpt>
      <trkpt lat="43.07332699999938" lon="-1.2666509999999997">
        <ele>1104.217</ele>
        <time>2022-08-24T09:19:41Z</time>
      </trkpt>
      <trkpt lat="43.07331099999938" lon="-1.2666569999999997">
        <ele>1104.409</ele>
        <time>2022-08-24T09:19:42Z</time>
      </trkpt>
      <trkpt lat="43.07329699999938" lon="-1.2666619999999997">
        <ele>1104.416</ele>
        <time>2022-08-24T09:19:43Z</time>
      </trkpt>
      <trkpt lat="43.073283999999376" lon="-1.2666649999999997">
        <ele>1104.686</ele>
        <time>2022-08-24T09:19:44Z</time>
      </trkpt>
      <trkpt lat="43.073269999999376" lon="-1.2666709999999997">
        <ele>1104.836</ele>
        <time>2022-08-24T09:19:45Z</time>
      </trkpt>
      <trkpt lat="43.07325399999937" lon="-1.2666779999999997">
        <ele>1104.852</ele>
        <time>2022-08-24T09:19:46Z</time>
      </trkpt>
      <trkpt lat="43.073236999999374" lon="-1.2666839999999997">
        <ele>1105.064</ele>
        <time>2022-08-24T09:19:47Z</time>
      </trkpt>
      <trkpt lat="43.073218999999376" lon="-1.2666879999999996">
        <ele>1105.291</ele>
        <time>2022-08-24T09:19:48Z</time>
      </trkpt>
      <trkpt lat="43.073218999999376" lon="-1.2666879999999996">
        <ele>1105.424</ele>
        <time>2022-08-24T09:19:49Z</time>
      </trkpt>
      <trkpt lat="43.07318799999938" lon="-1.2666959999999996">
        <ele>1105.458</ele>
        <time>2022-08-24T09:19:50Z</time>
      </trkpt>
      <trkpt lat="43.073171999999374" lon="-1.2666999999999995">
        <ele>1105.637</ele>
        <time>2022-08-24T09:19:51Z</time>
      </trkpt>
      <trkpt lat="43.07315599999937" lon="-1.2667059999999994">
        <ele>1105.839</ele>
        <time>2022-08-24T09:19:52Z</time>
      </trkpt>
      <trkpt lat="43.07313899999937" lon="-1.2667119999999994">
        <ele>1106.001</ele>
        <time>2022-08-24T09:19:53Z</time>
      </trkpt>
      <trkpt lat="43.07312299999937" lon="-1.2667169999999994">
        <ele>1106.021</ele>
        <time>2022-08-24T09:19:54Z</time>
      </trkpt>
      <trkpt lat="43.07310499999937" lon="-1.2667229999999994">
        <ele>1106.209</ele>
        <time>2022-08-24T09:19:55Z</time>
      </trkpt>
      <trkpt lat="43.073089999999375" lon="-1.2667279999999994">
        <ele>1106.484</ele>
        <time>2022-08-24T09:19:56Z</time>
      </trkpt>
      <trkpt lat="43.07307699999937" lon="-1.2667319999999993">
        <ele>1106.434</ele>
        <time>2022-08-24T09:19:57Z</time>
      </trkpt>
      <trkpt lat="43.073058999999375" lon="-1.2667359999999992">
        <ele>1106.624</ele>
        <time>2022-08-24T09:19:58Z</time>
      </trkpt>
      <trkpt lat="43.073041999999376" lon="-1.2667409999999992">
        <ele>1106.680</ele>
        <time>2022-08-24T09:19:59Z</time>
      </trkpt>
      <trkpt lat="43.07302699999938" lon="-1.2667479999999993">
        <ele>1106.832</ele>
        <time>2022-08-24T09:20:00Z</time>
      </trkpt>
      <trkpt lat="43.07301199999938" lon="-1.2667519999999992">
        <ele>1106.869</ele>
        <time>2022-08-24T09:20:01Z</time>
      </trkpt>
      <trkpt lat="43.07299399999938" lon="-1.2667519999999992">
        <ele>1107.052</ele>
        <time>2022-08-24T09:20:02Z</time>
      </trkpt>
      <trkpt lat="43.072975999999386" lon="-1.2667519999999992">
        <ele>1107.256</ele>
        <time>2022-08-24T09:20:03Z</time>
      </trkpt>
      <trkpt lat="43.072958999999386" lon="-1.2667539999999993">
        <ele>1107.255</ele>
        <time>2022-08-24T09:20:04Z</time>
      </trkpt>
      <trkpt lat="43.07294099999939" lon="-1.2667569999999992">
        <ele>1107.444</ele>
        <time>2022-08-24T09:20:05Z</time>
      </trkpt>
      <trkpt lat="43.07292199999939" lon="-1.2667599999999992">
        <ele>1107.605</ele>
        <time>2022-08-24T09:20:06Z</time>
      </trkpt>
      <trkpt lat="43.072902999999386" lon="-1.2667619999999993">
        <ele>1107.815</ele>
        <time>2022-08-24T09:20:07Z</time>
      </trkpt>
      <trkpt lat="43.07288699999938" lon="-1.2667649999999993">
        <ele>1108.009</ele>
        <time>2022-08-24T09:20:08Z</time>
      </trkpt>
      <trkpt lat="43.072871999999386" lon="-1.2667659999999992">
        <ele>1108.045</ele>
        <time>2022-08-24T09:20:09Z</time>
      </trkpt>
      <trkpt lat="43.072854999999386" lon="-1.2667639999999991">
        <ele>1108.255</ele>
        <time>2022-08-24T09:20:10Z</time>
      </trkpt>
      <trkpt lat="43.072840999999386" lon="-1.2667639999999991">
        <ele>1108.475</ele>
        <time>2022-08-24T09:20:11Z</time>
      </trkpt>
      <trkpt lat="43.072823999999386" lon="-1.2667639999999991">
        <ele>1108.481</ele>
        <time>2022-08-24T09:20:12Z</time>
      </trkpt>
      <trkpt lat="43.072807999999384" lon="-1.2667629999999992">
        <ele>1108.633</ele>
        <time>2022-08-24T09:20:13Z</time>
      </trkpt>
      <trkpt lat="43.07278999999939" lon="-1.2667639999999991">
        <ele>1108.610</ele>
        <time>2022-08-24T09:20:14Z</time>
      </trkpt>
      <trkpt lat="43.07277299999939" lon="-1.2667659999999992">
        <ele>1109.023</ele>
        <time>2022-08-24T09:20:15Z</time>
      </trkpt>
      <trkpt lat="43.07275499999939" lon="-1.2667639999999991">
        <ele>1109.077</ele>
        <time>2022-08-24T09:20:16Z</time>
      </trkpt>
      <trkpt lat="43.07273699999939" lon="-1.2667629999999992">
        <ele>1109.286</ele>
        <time>2022-08-24T09:20:17Z</time>
      </trkpt>
      <trkpt lat="43.072718999999395" lon="-1.2667629999999992">
        <ele>1109.242</ele>
        <time>2022-08-24T09:20:18Z</time>
      </trkpt>
      <trkpt lat="43.072701999999396" lon="-1.2667619999999993">
        <ele>1109.222</ele>
        <time>2022-08-24T09:20:19Z</time>
      </trkpt>
      <trkpt lat="43.0726839999994" lon="-1.2667589999999993">
        <ele>1109.414</ele>
        <time>2022-08-24T09:20:20Z</time>
      </trkpt>
      <trkpt lat="43.0726669999994" lon="-1.2667559999999993">
        <ele>1109.409</ele>
        <time>2022-08-24T09:20:21Z</time>
      </trkpt>
      <trkpt lat="43.0726469999994" lon="-1.2667549999999994">
        <ele>1109.635</ele>
        <time>2022-08-24T09:20:22Z</time>
      </trkpt>
      <trkpt lat="43.0726279999994" lon="-1.2667529999999994">
        <ele>1109.665</ele>
        <time>2022-08-24T09:20:23Z</time>
      </trkpt>
      <trkpt lat="43.072608999999396" lon="-1.2667489999999995">
        <ele>1109.835</ele>
        <time>2022-08-24T09:20:24Z</time>
      </trkpt>
      <trkpt lat="43.0725889999994" lon="-1.2667469999999994">
        <ele>1110.241</ele>
        <time>2022-08-24T09:20:25Z</time>
      </trkpt>
      <trkpt lat="43.0725719999994" lon="-1.2667439999999994">
        <ele>1110.053</ele>
        <time>2022-08-24T09:20:26Z</time>
      </trkpt>
      <trkpt lat="43.0725539999994" lon="-1.2667399999999995">
        <ele>1110.290</ele>
        <time>2022-08-24T09:20:27Z</time>
      </trkpt>
      <trkpt lat="43.0725379999994" lon="-1.2667379999999995">
        <ele>1110.023</ele>
        <time>2022-08-24T09:20:28Z</time>
      </trkpt>
      <trkpt lat="43.0725209999994" lon="-1.2667329999999994">
        <ele>1110.447</ele>
        <time>2022-08-24T09:20:29Z</time>
      </trkpt>
      <trkpt lat="43.0725059999994" lon="-1.2667259999999994">
        <ele>1110.466</ele>
        <time>2022-08-24T09:20:30Z</time>
      </trkpt>
      <trkpt lat="43.0724909999994" lon="-1.2667209999999993">
        <ele>1110.658</ele>
        <time>2022-08-24T09:20:31Z</time>
      </trkpt>
      <trkpt lat="43.0724749999994" lon="-1.2667159999999993">
        <ele>1110.852</ele>
        <time>2022-08-24T09:20:32Z</time>
      </trkpt>
      <trkpt lat="43.0724579999994" lon="-1.2667129999999993">
        <ele>1110.817</ele>
        <time>2022-08-24T09:20:33Z</time>
      </trkpt>
      <trkpt lat="43.0724419999994" lon="-1.2667109999999993">
        <ele>1111.009</ele>
        <time>2022-08-24T09:20:34Z</time>
      </trkpt>
      <trkpt lat="43.0724239999994" lon="-1.2667079999999993">
        <ele>1111.066</ele>
        <time>2022-08-24T09:20:35Z</time>
      </trkpt>
      <trkpt lat="43.072405999999404" lon="-1.2667039999999994">
        <ele>1111.276</ele>
        <time>2022-08-24T09:20:36Z</time>
      </trkpt>
      <trkpt lat="43.072388999999404" lon="-1.2666999999999995">
        <ele>1111.466</ele>
        <time>2022-08-24T09:20:37Z</time>
      </trkpt>
      <trkpt lat="43.0723729999994" lon="-1.2666919999999995">
        <ele>1111.662</ele>
        <time>2022-08-24T09:20:38Z</time>
      </trkpt>
      <trkpt lat="43.0723559999994" lon="-1.2666849999999994">
        <ele>1111.884</ele>
        <time>2022-08-24T09:20:39Z</time>
      </trkpt>
      <trkpt lat="43.0723389999994" lon="-1.2666819999999994">
        <ele>1111.821</ele>
        <time>2022-08-24T09:20:40Z</time>
      </trkpt>
      <trkpt lat="43.072320999999405" lon="-1.2666809999999995">
        <ele>1112.074</ele>
        <time>2022-08-24T09:20:41Z</time>
      </trkpt>
      <trkpt lat="43.07230299999941" lon="-1.2666769999999996">
        <ele>1112.028</ele>
        <time>2022-08-24T09:20:42Z</time>
      </trkpt>
      <trkpt lat="43.07228599999941" lon="-1.2666709999999997">
        <ele>1112.097</ele>
        <time>2022-08-24T09:20:43Z</time>
      </trkpt>
      <trkpt lat="43.07226899999941" lon="-1.2666649999999997">
        <ele>1112.257</ele>
        <time>2022-08-24T09:20:44Z</time>
      </trkpt>
      <trkpt lat="43.07225099999941" lon="-1.2666599999999997">
        <ele>1112.200</ele>
        <time>2022-08-24T09:20:45Z</time>
      </trkpt>
      <trkpt lat="43.07223399999941" lon="-1.2666569999999997">
        <ele>1112.220</ele>
        <time>2022-08-24T09:20:46Z</time>
      </trkpt>
      <trkpt lat="43.07221799999941" lon="-1.2666529999999998">
        <ele>1112.409</ele>
        <time>2022-08-24T09:20:47Z</time>
      </trkpt>
      <trkpt lat="43.07219999999941" lon="-1.2666479999999998">
        <ele>1112.486</ele>
        <time>2022-08-24T09:20:48Z</time>
      </trkpt>
      <trkpt lat="43.072184999999415" lon="-1.2666429999999997">
        <ele>1112.626</ele>
        <time>2022-08-24T09:20:49Z</time>
      </trkpt>
      <trkpt lat="43.07216899999941" lon="-1.2666389999999998">
        <ele>1112.696</ele>
        <time>2022-08-24T09:20:50Z</time>
      </trkpt>
      <trkpt lat="43.07215199999941" lon="-1.2666339999999998">
        <ele>1112.882</ele>
        <time>2022-08-24T09:20:51Z</time>
      </trkpt>
      <trkpt lat="43.07213299999941" lon="-1.2666309999999998">
        <ele>1113.044</ele>
        <time>2022-08-24T09:20:52Z</time>
      </trkpt>
      <trkpt lat="43.07211299999941" lon="-1.2666289999999998">
        <ele>1113.081</ele>
        <time>2022-08-24T09:20:53Z</time>
      </trkpt>
      <trkpt lat="43.07209599999941" lon="-1.2666269999999997">
        <ele>1113.284</ele>
        <time>2022-08-24T09:20:54Z</time>
      </trkpt>
      <trkpt lat="43.07207999999941" lon="-1.2666219999999997">
        <ele>1113.468</ele>
        <time>2022-08-24T09:20:55Z</time>
      </trkpt>
      <trkpt lat="43.07206299999941" lon="-1.2666169999999997">
        <ele>1113.627</ele>
        <time>2022-08-24T09:20:56Z</time>
      </trkpt>
      <trkpt lat="43.07204499999941" lon="-1.2666129999999998">
        <ele>1113.872</ele>
        <time>2022-08-24T09:20:57Z</time>
      </trkpt>
      <trkpt lat="43.072024999999414" lon="-1.2666079999999997">
        <ele>1113.813</ele>
        <time>2022-08-24T09:20:58Z</time>
      </trkpt>
      <trkpt lat="43.07200699999942" lon="-1.2666049999999998">
        <ele>1114.014</ele>
        <time>2022-08-24T09:20:59Z</time>
      </trkpt>
      <trkpt lat="43.07198899999942" lon="-1.2665989999999998">
        <ele>1114.009</ele>
        <time>2022-08-24T09:21:00Z</time>
      </trkpt>
      <trkpt lat="43.07197099999942" lon="-1.266595">
        <ele>1114.038</ele>
        <time>2022-08-24T09:21:01Z</time>
      </trkpt>
      <trkpt lat="43.07195399999942" lon="-1.2665899999999999">
        <ele>1114.268</ele>
        <time>2022-08-24T09:21:02Z</time>
      </trkpt>
      <trkpt lat="43.071935999999425" lon="-1.266587">
        <ele>1114.488</ele>
        <time>2022-08-24T09:21:03Z</time>
      </trkpt>
      <trkpt lat="43.07191799999943" lon="-1.2665849999999998">
        <ele>1114.464</ele>
        <time>2022-08-24T09:21:04Z</time>
      </trkpt>
      <trkpt lat="43.07190099999943" lon="-1.266587">
        <ele>1114.436</ele>
        <time>2022-08-24T09:21:05Z</time>
      </trkpt>
      <trkpt lat="43.07188299999943" lon="-1.266587">
        <ele>1114.683</ele>
        <time>2022-08-24T09:21:06Z</time>
      </trkpt>
      <trkpt lat="43.07186599999943" lon="-1.266584">
        <ele>1114.676</ele>
        <time>2022-08-24T09:21:07Z</time>
      </trkpt>
      <trkpt lat="43.071850999999434" lon="-1.2665819999999999">
        <ele>1114.830</ele>
        <time>2022-08-24T09:21:08Z</time>
      </trkpt>
      <trkpt lat="43.07183499999943" lon="-1.266584">
        <ele>1114.849</ele>
        <time>2022-08-24T09:21:09Z</time>
      </trkpt>
      <trkpt lat="43.07181799999943" lon="-1.266583">
        <ele>1115.046</ele>
        <time>2022-08-24T09:21:10Z</time>
      </trkpt>
      <trkpt lat="43.07180199999943" lon="-1.266582">
        <ele>1114.888</ele>
        <time>2022-08-24T09:21:11Z</time>
      </trkpt>
      <trkpt lat="43.07178499999943" lon="-1.26658">
        <ele>1115.016</ele>
        <time>2022-08-24T09:21:12Z</time>
      </trkpt>
      <trkpt lat="43.07176599999943" lon="-1.2665790000000001">
        <ele>1115.009</ele>
        <time>2022-08-24T09:21:13Z</time>
      </trkpt>
      <trkpt lat="43.07174799999943" lon="-1.26658">
        <ele>1115.455</ele>
        <time>2022-08-24T09:21:14Z</time>
      </trkpt>
      <trkpt lat="43.071729999999434" lon="-1.266583">
        <ele>1115.635</ele>
        <time>2022-08-24T09:21:15Z</time>
      </trkpt>
      <trkpt lat="43.071712999999434" lon="-1.266584">
        <ele>1115.875</ele>
        <time>2022-08-24T09:21:16Z</time>
      </trkpt>
      <trkpt lat="43.071695999999434" lon="-1.2665849999999998">
        <ele>1116.091</ele>
        <time>2022-08-24T09:21:17Z</time>
      </trkpt>
      <trkpt lat="43.07167799999944" lon="-1.266584">
        <ele>1116.033</ele>
        <time>2022-08-24T09:21:18Z</time>
      </trkpt>
      <trkpt lat="43.071658999999435" lon="-1.26658">
        <ele>1116.410</ele>
        <time>2022-08-24T09:21:19Z</time>
      </trkpt>
      <trkpt lat="43.07164299999943" lon="-1.266581">
        <ele>1116.473</ele>
        <time>2022-08-24T09:21:20Z</time>
      </trkpt>
      <trkpt lat="43.07162599999943" lon="-1.266584">
        <ele>1116.617</ele>
        <time>2022-08-24T09:21:21Z</time>
      </trkpt>
      <trkpt lat="43.071607999999436" lon="-1.2665849999999998">
        <ele>1116.696</ele>
        <time>2022-08-24T09:21:22Z</time>
      </trkpt>
      <trkpt lat="43.07159099999944" lon="-1.2665889999999997">
        <ele>1116.643</ele>
        <time>2022-08-24T09:21:23Z</time>
      </trkpt>
      <trkpt lat="43.071574999999434" lon="-1.2665949999999997">
        <ele>1116.664</ele>
        <time>2022-08-24T09:21:24Z</time>
      </trkpt>
      <trkpt lat="43.07155899999943" lon="-1.2665989999999996">
        <ele>1116.810</ele>
        <time>2022-08-24T09:21:25Z</time>
      </trkpt>
      <trkpt lat="43.07154199999943" lon="-1.2665999999999995">
        <ele>1116.809</ele>
        <time>2022-08-24T09:21:26Z</time>
      </trkpt>
      <trkpt lat="43.07152499999943" lon="-1.2666009999999994">
        <ele>1116.845</ele>
        <time>2022-08-24T09:21:27Z</time>
      </trkpt>
      <trkpt lat="43.07150799999943" lon="-1.2666029999999995">
        <ele>1116.855</ele>
        <time>2022-08-24T09:21:28Z</time>
      </trkpt>
      <trkpt lat="43.071489999999436" lon="-1.2666059999999995">
        <ele>1116.825</ele>
        <time>2022-08-24T09:21:29Z</time>
      </trkpt>
      <trkpt lat="43.071472999999436" lon="-1.2666109999999995">
        <ele>1117.031</ele>
        <time>2022-08-24T09:21:30Z</time>
      </trkpt>
      <trkpt lat="43.071455999999436" lon="-1.2666179999999996">
        <ele>1117.013</ele>
        <time>2022-08-24T09:21:31Z</time>
      </trkpt>
      <trkpt lat="43.071439999999434" lon="-1.2666239999999995">
        <ele>1117.070</ele>
        <time>2022-08-24T09:21:32Z</time>
      </trkpt>
      <trkpt lat="43.07142399999943" lon="-1.2666279999999994">
        <ele>1117.083</ele>
        <time>2022-08-24T09:21:33Z</time>
      </trkpt>
      <trkpt lat="43.07140799999943" lon="-1.2666329999999995">
        <ele>1117.277</ele>
        <time>2022-08-24T09:21:34Z</time>
      </trkpt>
      <trkpt lat="43.07139299999943" lon="-1.2666389999999994">
        <ele>1117.286</ele>
        <time>2022-08-24T09:21:35Z</time>
      </trkpt>
      <trkpt lat="43.07137699999943" lon="-1.2666469999999994">
        <ele>1117.467</ele>
        <time>2022-08-24T09:21:36Z</time>
      </trkpt>
      <trkpt lat="43.07136099999943" lon="-1.2666559999999993">
        <ele>1117.481</ele>
        <time>2022-08-24T09:21:37Z</time>
      </trkpt>
      <trkpt lat="43.07126499999943" lon="-1.2667049999999993">
        <ele>1118.419</ele>
        <time>2022-08-24T09:21:43Z</time>
      </trkpt>
      <trkpt lat="43.07124999999943" lon="-1.2667189999999993">
        <ele>1118.609</ele>
        <time>2022-08-24T09:21:44Z</time>
      </trkpt>
      <trkpt lat="43.07123799999943" lon="-1.2667349999999993">
        <ele>1118.837</ele>
        <time>2022-08-24T09:21:45Z</time>
      </trkpt>
      <trkpt lat="43.07122499999943" lon="-1.2667479999999993">
        <ele>1119.097</ele>
        <time>2022-08-24T09:21:46Z</time>
      </trkpt>
      <trkpt lat="43.07121099999943" lon="-1.2667579999999994">
        <ele>1119.447</ele>
        <time>2022-08-24T09:21:47Z</time>
      </trkpt>
      <trkpt lat="43.07119799999943" lon="-1.2667679999999995">
        <ele>1119.853</ele>
        <time>2022-08-24T09:21:48Z</time>
      </trkpt>
      <trkpt lat="43.07118599999943" lon="-1.2667779999999995">
        <ele>1120.075</ele>
        <time>2022-08-24T09:21:49Z</time>
      </trkpt>
      <trkpt lat="43.07117399999943" lon="-1.2667909999999996">
        <ele>1120.252</ele>
        <time>2022-08-24T09:21:50Z</time>
      </trkpt>
      <trkpt lat="43.07116399999943" lon="-1.2668059999999997">
        <ele>1120.245</ele>
        <time>2022-08-24T09:21:51Z</time>
      </trkpt>
      <trkpt lat="43.07115299999943" lon="-1.2668239999999997">
        <ele>1120.289</ele>
        <time>2022-08-24T09:21:52Z</time>
      </trkpt>
      <trkpt lat="43.07114399999943" lon="-1.2668409999999997">
        <ele>1120.428</ele>
        <time>2022-08-24T09:21:53Z</time>
      </trkpt>
      <trkpt lat="43.07113699999943" lon="-1.2668619999999997">
        <ele>1120.654</ele>
        <time>2022-08-24T09:21:54Z</time>
      </trkpt>
      <trkpt lat="43.07113099999943" lon="-1.2668819999999996">
        <ele>1120.856</ele>
        <time>2022-08-24T09:21:55Z</time>
      </trkpt>
      <trkpt lat="43.071124999999434" lon="-1.2669009999999996">
        <ele>1120.811</ele>
        <time>2022-08-24T09:21:56Z</time>
      </trkpt>
      <trkpt lat="43.071115999999435" lon="-1.2669199999999996">
        <ele>1121.009</ele>
        <time>2022-08-24T09:21:57Z</time>
      </trkpt>
      <trkpt lat="43.07110699999944" lon="-1.2669379999999997">
        <ele>1121.066</ele>
        <time>2022-08-24T09:21:58Z</time>
      </trkpt>
      <trkpt lat="43.07109999999944" lon="-1.2669569999999997">
        <ele>1121.296</ele>
        <time>2022-08-24T09:21:59Z</time>
      </trkpt>
      <trkpt lat="43.07109599999944" lon="-1.2669749999999997">
        <ele>1121.446</ele>
        <time>2022-08-24T09:22:00Z</time>
      </trkpt>
      <trkpt lat="43.071094999999445" lon="-1.2669929999999998">
        <ele>1121.422</ele>
        <time>2022-08-24T09:22:01Z</time>
      </trkpt>
      <trkpt lat="43.07109299999944" lon="-1.2670119999999998">
        <ele>1121.654</ele>
        <time>2022-08-24T09:22:02Z</time>
      </trkpt>
      <trkpt lat="43.071091999999446" lon="-1.2670319999999997">
        <ele>1121.861</ele>
        <time>2022-08-24T09:22:03Z</time>
      </trkpt>
      <trkpt lat="43.071088999999446" lon="-1.2670519999999996">
        <ele>1122.274</ele>
        <time>2022-08-24T09:22:04Z</time>
      </trkpt>
      <trkpt lat="43.071086999999444" lon="-1.2670719999999995">
        <ele>1122.278</ele>
        <time>2022-08-24T09:22:05Z</time>
      </trkpt>
      <trkpt lat="43.071083999999445" lon="-1.2670899999999996">
        <ele>1122.457</ele>
        <time>2022-08-24T09:22:06Z</time>
      </trkpt>
      <trkpt lat="43.07108199999944" lon="-1.2671089999999996">
        <ele>1122.696</ele>
        <time>2022-08-24T09:22:07Z</time>
      </trkpt>
      <trkpt lat="43.071083999999445" lon="-1.2671289999999995">
        <ele>1122.831</ele>
        <time>2022-08-24T09:22:08Z</time>
      </trkpt>
      <trkpt lat="43.07108799999944" lon="-1.2671479999999995">
        <ele>1123.024</ele>
        <time>2022-08-24T09:22:09Z</time>
      </trkpt>
      <trkpt lat="43.07109299999944" lon="-1.2671669999999995">
        <ele>1123.009</ele>
        <time>2022-08-24T09:22:10Z</time>
      </trkpt>
      <trkpt lat="43.071094999999445" lon="-1.2671889999999995">
        <ele>1123.270</ele>
        <time>2022-08-24T09:22:11Z</time>
      </trkpt>
      <trkpt lat="43.07109599999944" lon="-1.2672039999999996">
        <ele>1123.460</ele>
        <time>2022-08-24T09:22:12Z</time>
      </trkpt>
      <trkpt lat="43.071097999999445" lon="-1.2672259999999995">
        <ele>1123.670</ele>
        <time>2022-08-24T09:22:13Z</time>
      </trkpt>
      <trkpt lat="43.07109999999945" lon="-1.2672449999999995">
        <ele>1123.866</ele>
        <time>2022-08-24T09:22:14Z</time>
      </trkpt>
      <trkpt lat="43.071103999999444" lon="-1.2672649999999994">
        <ele>1123.858</ele>
        <time>2022-08-24T09:22:15Z</time>
      </trkpt>
      <trkpt lat="43.07110499999944" lon="-1.2672849999999993">
        <ele>1124.075</ele>
        <time>2022-08-24T09:22:16Z</time>
      </trkpt>
      <trkpt lat="43.07110899999944" lon="-1.2673069999999993">
        <ele>1124.278</ele>
        <time>2022-08-24T09:22:17Z</time>
      </trkpt>
      <trkpt lat="43.07111099999944" lon="-1.2673269999999992">
        <ele>1124.452</ele>
        <time>2022-08-24T09:22:18Z</time>
      </trkpt>
      <trkpt lat="43.07111399999944" lon="-1.2673449999999993">
        <ele>1124.441</ele>
        <time>2022-08-24T09:22:19Z</time>
      </trkpt>
      <trkpt lat="43.07111499999944" lon="-1.2673639999999993">
        <ele>1124.648</ele>
        <time>2022-08-24T09:22:20Z</time>
      </trkpt>
      <trkpt lat="43.071115999999435" lon="-1.2673829999999993">
        <ele>1124.861</ele>
        <time>2022-08-24T09:22:21Z</time>
      </trkpt>
      <trkpt lat="43.071115999999435" lon="-1.2674049999999992">
        <ele>1125.017</ele>
        <time>2022-08-24T09:22:22Z</time>
      </trkpt>
      <trkpt lat="43.07111699999943" lon="-1.2674239999999992">
        <ele>1125.009</ele>
        <time>2022-08-24T09:22:23Z</time>
      </trkpt>
      <trkpt lat="43.07112099999943" lon="-1.2674429999999992">
        <ele>1125.235</ele>
        <time>2022-08-24T09:22:24Z</time>
      </trkpt>
      <trkpt lat="43.07112699999943" lon="-1.2674599999999991">
        <ele>1125.265</ele>
        <time>2022-08-24T09:22:25Z</time>
      </trkpt>
      <trkpt lat="43.07112999999943" lon="-1.267479999999999">
        <ele>1125.435</ele>
        <time>2022-08-24T09:22:26Z</time>
      </trkpt>
      <trkpt lat="43.071133999999425" lon="-1.267498999999999">
        <ele>1125.451</ele>
        <time>2022-08-24T09:22:27Z</time>
      </trkpt>
      <trkpt lat="43.07113599999943" lon="-1.267519999999999">
        <ele>1125.673</ele>
        <time>2022-08-24T09:22:28Z</time>
      </trkpt>
      <trkpt lat="43.07113499999943" lon="-1.267541999999999">
        <ele>1125.830</ele>
        <time>2022-08-24T09:22:29Z</time>
      </trkpt>
      <trkpt lat="43.07113599999943" lon="-1.2675649999999992">
        <ele>1126.073</ele>
        <time>2022-08-24T09:22:30Z</time>
      </trkpt>
      <trkpt lat="43.07113799999943" lon="-1.2675869999999991">
        <ele>1126.017</ele>
        <time>2022-08-24T09:22:31Z</time>
      </trkpt>
      <trkpt lat="43.07114299999943" lon="-1.267608999999999">
        <ele>1126.256</ele>
        <time>2022-08-24T09:22:32Z</time>
      </trkpt>
      <trkpt lat="43.07114699999943" lon="-1.2676319999999992">
        <ele>1126.475</ele>
        <time>2022-08-24T09:22:33Z</time>
      </trkpt>
      <trkpt lat="43.07114699999943" lon="-1.2676549999999993">
        <ele>1126.428</ele>
        <time>2022-08-24T09:22:34Z</time>
      </trkpt>
      <trkpt lat="43.07114599999943" lon="-1.2676779999999994">
        <ele>1126.620</ele>
        <time>2022-08-24T09:22:35Z</time>
      </trkpt>
      <trkpt lat="43.07114899999943" lon="-1.2676999999999994">
        <ele>1126.809</ele>
        <time>2022-08-24T09:22:36Z</time>
      </trkpt>
      <trkpt lat="43.07115399999943" lon="-1.2677199999999993">
        <ele>1126.888</ele>
        <time>2022-08-24T09:22:37Z</time>
      </trkpt>
      <trkpt lat="43.07115799999943" lon="-1.2677409999999993">
        <ele>1127.018</ele>
        <time>2022-08-24T09:22:38Z</time>
      </trkpt>
      <trkpt lat="43.071158999999426" lon="-1.2677629999999993">
        <ele>1127.098</ele>
        <time>2022-08-24T09:22:39Z</time>
      </trkpt>
      <trkpt lat="43.07116299999942" lon="-1.2677839999999994">
        <ele>1127.464</ele>
        <time>2022-08-24T09:22:40Z</time>
      </trkpt>
      <trkpt lat="43.07116599999942" lon="-1.2678059999999993">
        <ele>1127.496</ele>
        <time>2022-08-24T09:22:41Z</time>
      </trkpt>
      <trkpt lat="43.07116999999942" lon="-1.2678289999999994">
        <ele>1127.683</ele>
        <time>2022-08-24T09:22:42Z</time>
      </trkpt>
      <trkpt lat="43.07117099999942" lon="-1.2678529999999995">
        <ele>1127.876</ele>
        <time>2022-08-24T09:22:43Z</time>
      </trkpt>
      <trkpt lat="43.07117299999942" lon="-1.2678749999999994">
        <ele>1127.820</ele>
        <time>2022-08-24T09:22:44Z</time>
      </trkpt>
      <trkpt lat="43.07117399999942" lon="-1.2678969999999994">
        <ele>1128.069</ele>
        <time>2022-08-24T09:22:45Z</time>
      </trkpt>
      <trkpt lat="43.07117399999942" lon="-1.2679159999999994">
        <ele>1128.065</ele>
        <time>2022-08-24T09:22:46Z</time>
      </trkpt>
      <trkpt lat="43.07117399999942" lon="-1.2679399999999994">
        <ele>1128.468</ele>
        <time>2022-08-24T09:22:47Z</time>
      </trkpt>
      <trkpt lat="43.07117099999942" lon="-1.2679639999999994">
        <ele>1128.614</ele>
        <time>2022-08-24T09:22:48Z</time>
      </trkpt>
      <trkpt lat="43.071171999999414" lon="-1.2679869999999995">
        <ele>1129.009</ele>
        <time>2022-08-24T09:22:49Z</time>
      </trkpt>
      <trkpt lat="43.07117299999941" lon="-1.2680089999999995">
        <ele>1129.257</ele>
        <time>2022-08-24T09:22:50Z</time>
      </trkpt>
      <trkpt lat="43.07116999999941" lon="-1.2680349999999996">
        <ele>1129.457</ele>
        <time>2022-08-24T09:22:51Z</time>
      </trkpt>
      <trkpt lat="43.07116999999941" lon="-1.2680629999999995">
        <ele>1129.897</ele>
        <time>2022-08-24T09:22:52Z</time>
      </trkpt>
      <trkpt lat="43.07116999999941" lon="-1.2680919999999996">
        <ele>1129.873</ele>
        <time>2022-08-24T09:22:53Z</time>
      </trkpt>
      <trkpt lat="43.071168999999415" lon="-1.2681199999999995">
        <ele>1130.095</ele>
        <time>2022-08-24T09:22:54Z</time>
      </trkpt>
      <trkpt lat="43.071168999999415" lon="-1.2681449999999994">
        <ele>1130.242</ele>
        <time>2022-08-24T09:22:55Z</time>
      </trkpt>
      <trkpt lat="43.071168999999415" lon="-1.2681689999999994">
        <ele>1130.625</ele>
        <time>2022-08-24T09:22:56Z</time>
      </trkpt>
      <trkpt lat="43.07116799999942" lon="-1.2681919999999995">
        <ele>1130.839</ele>
        <time>2022-08-24T09:22:57Z</time>
      </trkpt>
      <trkpt lat="43.07116699999942" lon="-1.2682129999999996">
        <ele>1131.028</ele>
        <time>2022-08-24T09:22:58Z</time>
      </trkpt>
      <trkpt lat="43.07116499999942" lon="-1.2682339999999996">
        <ele>1131.286</ele>
        <time>2022-08-24T09:22:59Z</time>
      </trkpt>
      <trkpt lat="43.07116099999942" lon="-1.2682549999999997">
        <ele>1131.460</ele>
        <time>2022-08-24T09:23:00Z</time>
      </trkpt>
      <trkpt lat="43.07116099999942" lon="-1.2682759999999997">
        <ele>1131.626</ele>
        <time>2022-08-24T09:23:01Z</time>
      </trkpt>
      <trkpt lat="43.07116099999942" lon="-1.2682969999999998">
        <ele>1131.809</ele>
        <time>2022-08-24T09:23:02Z</time>
      </trkpt>
      <trkpt lat="43.07115799999942" lon="-1.2683179999999998">
        <ele>1132.029</ele>
        <time>2022-08-24T09:23:03Z</time>
      </trkpt>
      <trkpt lat="43.07115299999942" lon="-1.268341">
        <ele>1132.269</ele>
        <time>2022-08-24T09:23:04Z</time>
      </trkpt>
      <trkpt lat="43.07114999999942" lon="-1.268362">
        <ele>1132.289</ele>
        <time>2022-08-24T09:23:05Z</time>
      </trkpt>
      <trkpt lat="43.07114899999942" lon="-1.268381">
        <ele>1132.425</ele>
        <time>2022-08-24T09:23:06Z</time>
      </trkpt>
      <trkpt lat="43.07114999999942" lon="-1.268401">
        <ele>1132.497</ele>
        <time>2022-08-24T09:23:07Z</time>
      </trkpt>
      <trkpt lat="43.07114599999942" lon="-1.2684199999999999">
        <ele>1132.624</ele>
        <time>2022-08-24T09:23:08Z</time>
      </trkpt>
      <trkpt lat="43.071142999999424" lon="-1.268438">
        <ele>1132.637</ele>
        <time>2022-08-24T09:23:09Z</time>
      </trkpt>
      <trkpt lat="43.07113899999943" lon="-1.2684549999999999">
        <ele>1132.811</ele>
        <time>2022-08-24T09:23:10Z</time>
      </trkpt>
      <trkpt lat="43.07113499999943" lon="-1.268473">
        <ele>1133.070</ele>
        <time>2022-08-24T09:23:11Z</time>
      </trkpt>
      <trkpt lat="43.07113199999943" lon="-1.268489">
        <ele>1133.041</ele>
        <time>2022-08-24T09:23:12Z</time>
      </trkpt>
      <trkpt lat="43.07112999999943" lon="-1.268505">
        <ele>1133.281</ele>
        <time>2022-08-24T09:23:13Z</time>
      </trkpt>
      <trkpt lat="43.07112999999943" lon="-1.26852">
        <ele>1133.409</ele>
        <time>2022-08-24T09:23:14Z</time>
      </trkpt>
      <trkpt lat="43.07112599999943" lon="-1.268536">
        <ele>1133.609</ele>
        <time>2022-08-24T09:23:15Z</time>
      </trkpt>
      <trkpt lat="43.07112299999943" lon="-1.2685510000000002">
        <ele>1133.635</ele>
        <time>2022-08-24T09:23:16Z</time>
      </trkpt>
      <trkpt lat="43.07111999999943" lon="-1.2685680000000001">
        <ele>1133.815</ele>
        <time>2022-08-24T09:23:17Z</time>
      </trkpt>
      <trkpt lat="43.07111699999943" lon="-1.268582">
        <ele>1134.065</ele>
        <time>2022-08-24T09:23:18Z</time>
      </trkpt>
      <trkpt lat="43.07111099999943" lon="-1.268596">
        <ele>1134.061</ele>
        <time>2022-08-24T09:23:19Z</time>
      </trkpt>
      <trkpt lat="43.07110699999944" lon="-1.268609">
        <ele>1134.213</ele>
        <time>2022-08-24T09:23:20Z</time>
      </trkpt>
      <trkpt lat="43.07110399999944" lon="-1.2686250000000001">
        <ele>1134.220</ele>
        <time>2022-08-24T09:23:21Z</time>
      </trkpt>
      <trkpt lat="43.07109999999944" lon="-1.2686400000000002">
        <ele>1134.643</ele>
        <time>2022-08-24T09:23:22Z</time>
      </trkpt>
      <trkpt lat="43.07109599999944" lon="-1.2686570000000001">
        <ele>1135.077</ele>
        <time>2022-08-24T09:23:23Z</time>
      </trkpt>
      <trkpt lat="43.07109399999944" lon="-1.2686700000000002">
        <ele>1135.256</ele>
        <time>2022-08-24T09:23:24Z</time>
      </trkpt>
      <trkpt lat="43.07108899999944" lon="-1.2686840000000001">
        <ele>1135.299</ele>
        <time>2022-08-24T09:23:25Z</time>
      </trkpt>
      <trkpt lat="43.07108399999944" lon="-1.2687020000000002">
        <ele>1135.407</ele>
        <time>2022-08-24T09:23:26Z</time>
      </trkpt>
      <trkpt lat="43.07107799999944" lon="-1.2687210000000002">
        <ele>1136.027</ele>
        <time>2022-08-24T09:23:27Z</time>
      </trkpt>
      <trkpt lat="43.07107099999944" lon="-1.2687380000000001">
        <ele>1136.209</ele>
        <time>2022-08-24T09:23:28Z</time>
      </trkpt>
      <trkpt lat="43.07106299999944" lon="-1.26876">
        <ele>1136.450</ele>
        <time>2022-08-24T09:23:29Z</time>
      </trkpt>
      <trkpt lat="43.07105799999944" lon="-1.2687810000000002">
        <ele>1136.660</ele>
        <time>2022-08-24T09:23:30Z</time>
      </trkpt>
      <trkpt lat="43.07105099999944" lon="-1.268801">
        <ele>1136.640</ele>
        <time>2022-08-24T09:23:31Z</time>
      </trkpt>
      <trkpt lat="43.071043999999446" lon="-1.26882">
        <ele>1137.026</ele>
        <time>2022-08-24T09:23:32Z</time>
      </trkpt>
      <trkpt lat="43.07103499999945" lon="-1.268841">
        <ele>1137.268</ele>
        <time>2022-08-24T09:23:33Z</time>
      </trkpt>
      <trkpt lat="43.07102799999945" lon="-1.26886">
        <ele>1137.435</ele>
        <time>2022-08-24T09:23:34Z</time>
      </trkpt>
      <trkpt lat="43.071020999999455" lon="-1.268877">
        <ele>1137.418</ele>
        <time>2022-08-24T09:23:35Z</time>
      </trkpt>
      <trkpt lat="43.07101099999945" lon="-1.268894">
        <ele>1137.662</ele>
        <time>2022-08-24T09:23:36Z</time>
      </trkpt>
      <trkpt lat="43.07100199999945" lon="-1.268911">
        <ele>1137.681</ele>
        <time>2022-08-24T09:23:37Z</time>
      </trkpt>
      <trkpt lat="43.070994999999456" lon="-1.268929">
        <ele>1137.862</ele>
        <time>2022-08-24T09:23:38Z</time>
      </trkpt>
      <trkpt lat="43.07098499999945" lon="-1.268948">
        <ele>1137.883</ele>
        <time>2022-08-24T09:23:39Z</time>
      </trkpt>
      <trkpt lat="43.07097399999945" lon="-1.268965">
        <ele>1137.811</ele>
        <time>2022-08-24T09:23:40Z</time>
      </trkpt>
      <trkpt lat="43.07096399999945" lon="-1.268981">
        <ele>1138.009</ele>
        <time>2022-08-24T09:23:41Z</time>
      </trkpt>
      <trkpt lat="43.070953999999446" lon="-1.2689979999999998">
        <ele>1138.247</ele>
        <time>2022-08-24T09:23:42Z</time>
      </trkpt>
      <trkpt lat="43.070942999999446" lon="-1.2690139999999999">
        <ele>1138.227</ele>
        <time>2022-08-24T09:23:43Z</time>
      </trkpt>
      <trkpt lat="43.07092999999944" lon="-1.269029">
        <ele>1138.427</ele>
        <time>2022-08-24T09:23:44Z</time>
      </trkpt>
      <trkpt lat="43.07091699999944" lon="-1.269044">
        <ele>1138.413</ele>
        <time>2022-08-24T09:23:45Z</time>
      </trkpt>
      <trkpt lat="43.07090299999944" lon="-1.269057">
        <ele>1138.655</ele>
        <time>2022-08-24T09:23:46Z</time>
      </trkpt>
      <trkpt lat="43.07088799999944" lon="-1.269069">
        <ele>1138.662</ele>
        <time>2022-08-24T09:23:47Z</time>
      </trkpt>
      <trkpt lat="43.070872999999445" lon="-1.269082">
        <ele>1138.835</ele>
        <time>2022-08-24T09:23:48Z</time>
      </trkpt>
      <trkpt lat="43.07085699999944" lon="-1.269092">
        <ele>1138.869</ele>
        <time>2022-08-24T09:23:49Z</time>
      </trkpt>
      <trkpt lat="43.070841999999445" lon="-1.269101">
        <ele>1139.068</ele>
        <time>2022-08-24T09:23:50Z</time>
      </trkpt>
      <trkpt lat="43.070824999999445" lon="-1.26911">
        <ele>1139.066</ele>
        <time>2022-08-24T09:23:51Z</time>
      </trkpt>
      <trkpt lat="43.070810999999445" lon="-1.269121">
        <ele>1139.029</ele>
        <time>2022-08-24T09:23:52Z</time>
      </trkpt>
      <trkpt lat="43.07079899999945" lon="-1.269134">
        <ele>1139.221</ele>
        <time>2022-08-24T09:23:53Z</time>
      </trkpt>
      <trkpt lat="43.07078499999945" lon="-1.2691459999999999">
        <ele>1139.409</ele>
        <time>2022-08-24T09:23:54Z</time>
      </trkpt>
      <trkpt lat="43.070770999999446" lon="-1.2691499999999998">
        <ele>1139.487</ele>
        <time>2022-08-24T09:23:55Z</time>
      </trkpt>
      <trkpt lat="43.070754999999444" lon="-1.2691549999999998">
        <ele>1139.457</ele>
        <time>2022-08-24T09:23:56Z</time>
      </trkpt>
      <trkpt lat="43.07073899999944" lon="-1.269162">
        <ele>1139.687</ele>
        <time>2022-08-24T09:23:57Z</time>
      </trkpt>
      <trkpt lat="43.07072499999944" lon="-1.269172">
        <ele>1139.643</ele>
        <time>2022-08-24T09:23:58Z</time>
      </trkpt>
      <trkpt lat="43.070709999999444" lon="-1.269181">
        <ele>1139.665</ele>
        <time>2022-08-24T09:23:59Z</time>
      </trkpt>
      <trkpt lat="43.070694999999446" lon="-1.269188">
        <ele>1139.642</ele>
        <time>2022-08-24T09:24:00Z</time>
      </trkpt>
      <trkpt lat="43.070680999999446" lon="-1.269194">
        <ele>1139.625</ele>
        <time>2022-08-24T09:24:01Z</time>
      </trkpt>
      <trkpt lat="43.070666999999446" lon="-1.269201">
        <ele>1139.859</ele>
        <time>2022-08-24T09:24:02Z</time>
      </trkpt>
      <trkpt lat="43.070652999999446" lon="-1.269207">
        <ele>1140.058</ele>
        <time>2022-08-24T09:24:03Z</time>
      </trkpt>
      <trkpt lat="43.07063999999944" lon="-1.269213">
        <ele>1140.014</ele>
        <time>2022-08-24T09:24:04Z</time>
      </trkpt>
      <trkpt lat="43.07062899999944" lon="-1.2692219999999999">
        <ele>1140.254</ele>
        <time>2022-08-24T09:24:05Z</time>
      </trkpt>
      <trkpt lat="43.07062099999944" lon="-1.269232">
        <ele>1140.409</ele>
        <time>2022-08-24T09:24:06Z</time>
      </trkpt>
      <trkpt lat="43.070605999999444" lon="-1.2692379999999999">
        <ele>1140.409</ele>
        <time>2022-08-24T09:24:07Z</time>
      </trkpt>
      <trkpt lat="43.07058999999944" lon="-1.2692419999999998">
        <ele>1140.692</ele>
        <time>2022-08-24T09:24:08Z</time>
      </trkpt>
      <trkpt lat="43.070574999999444" lon="-1.2692489999999998">
        <ele>1140.872</ele>
        <time>2022-08-24T09:24:09Z</time>
      </trkpt>
      <trkpt lat="43.070559999999446" lon="-1.2692549999999998">
        <ele>1140.832</ele>
        <time>2022-08-24T09:24:10Z</time>
      </trkpt>
      <trkpt lat="43.07054499999945" lon="-1.2692569999999999">
        <ele>1141.028</ele>
        <time>2022-08-24T09:24:11Z</time>
      </trkpt>
      <trkpt lat="43.070528999999446" lon="-1.2692649999999999">
        <ele>1141.090</ele>
        <time>2022-08-24T09:24:12Z</time>
      </trkpt>
      <trkpt lat="43.070509999999445" lon="-1.2692729999999999">
        <ele>1141.267</ele>
        <time>2022-08-24T09:24:13Z</time>
      </trkpt>
      <trkpt lat="43.070486999999446" lon="-1.26928">
        <ele>1141.670</ele>
        <time>2022-08-24T09:24:14Z</time>
      </trkpt>
      <trkpt lat="43.07046399999945" lon="-1.269289">
        <ele>1141.884</ele>
        <time>2022-08-24T09:24:15Z</time>
      </trkpt>
      <trkpt lat="43.07044099999945" lon="-1.2692979999999998">
        <ele>1141.853</ele>
        <time>2022-08-24T09:24:16Z</time>
      </trkpt>
      <trkpt lat="43.07041999999945" lon="-1.2693039999999998">
        <ele>1142.074</ele>
        <time>2022-08-24T09:24:17Z</time>
      </trkpt>
      <trkpt lat="43.070398999999455" lon="-1.2693099999999997">
        <ele>1142.256</ele>
        <time>2022-08-24T09:24:18Z</time>
      </trkpt>
      <trkpt lat="43.070381999999455" lon="-1.2693159999999997">
        <ele>1142.421</ele>
        <time>2022-08-24T09:24:19Z</time>
      </trkpt>
      <trkpt lat="43.07036599999945" lon="-1.2693179999999997">
        <ele>1142.609</ele>
        <time>2022-08-24T09:24:20Z</time>
      </trkpt>
      <trkpt lat="43.07034899999945" lon="-1.2693179999999997">
        <ele>1143.228</ele>
        <time>2022-08-24T09:24:21Z</time>
      </trkpt>
      <trkpt lat="43.07033199999945" lon="-1.2693199999999998">
        <ele>1143.628</ele>
        <time>2022-08-24T09:24:22Z</time>
      </trkpt>
      <trkpt lat="43.070313999999456" lon="-1.2693239999999997">
        <ele>1143.878</ele>
        <time>2022-08-24T09:24:23Z</time>
      </trkpt>
      <trkpt lat="43.070294999999454" lon="-1.2693259999999997">
        <ele>1144.244</ele>
        <time>2022-08-24T09:24:24Z</time>
      </trkpt>
      <trkpt lat="43.07027299999945" lon="-1.2693279999999998">
        <ele>1144.296</ele>
        <time>2022-08-24T09:24:25Z</time>
      </trkpt>
      <trkpt lat="43.070252999999454" lon="-1.2693309999999998">
        <ele>1144.453</ele>
        <time>2022-08-24T09:24:26Z</time>
      </trkpt>
      <trkpt lat="43.07023399999945" lon="-1.2693319999999997">
        <ele>1144.836</ele>
        <time>2022-08-24T09:24:27Z</time>
      </trkpt>
      <trkpt lat="43.07020999999945" lon="-1.2693349999999997">
        <ele>1144.840</ele>
        <time>2022-08-24T09:24:28Z</time>
      </trkpt>
      <trkpt lat="43.07018699999945" lon="-1.2693379999999996">
        <ele>1145.079</ele>
        <time>2022-08-24T09:24:29Z</time>
      </trkpt>
      <trkpt lat="43.07016599999945" lon="-1.2693409999999996">
        <ele>1145.258</ele>
        <time>2022-08-24T09:24:30Z</time>
      </trkpt>
      <trkpt lat="43.070150999999456" lon="-1.2693429999999997">
        <ele>1145.252</ele>
        <time>2022-08-24T09:24:31Z</time>
      </trkpt>
      <trkpt lat="43.07013799999945" lon="-1.2693459999999996">
        <ele>1145.417</ele>
        <time>2022-08-24T09:24:32Z</time>
      </trkpt>
      <trkpt lat="43.070125999999455" lon="-1.2693489999999996">
        <ele>1146.009</ele>
        <time>2022-08-24T09:24:33Z</time>
      </trkpt>
      <trkpt lat="43.070114999999454" lon="-1.2693509999999997">
        <ele>1146.416</ele>
        <time>2022-08-24T09:24:34Z</time>
      </trkpt>
      <trkpt lat="43.070102999999456" lon="-1.2693529999999997">
        <ele>1146.676</ele>
        <time>2022-08-24T09:24:35Z</time>
      </trkpt>
      <trkpt lat="43.07008799999946" lon="-1.2693569999999996">
        <ele>1146.666</ele>
        <time>2022-08-24T09:24:36Z</time>
      </trkpt>
      <trkpt lat="43.070074999999456" lon="-1.2693579999999995">
        <ele>1147.032</ele>
        <time>2022-08-24T09:24:37Z</time>
      </trkpt>
      <trkpt lat="43.07005999999946" lon="-1.2693609999999995">
        <ele>1147.474</ele>
        <time>2022-08-24T09:24:38Z</time>
      </trkpt>
      <trkpt lat="43.070046999999455" lon="-1.2693629999999996">
        <ele>1147.661</ele>
        <time>2022-08-24T09:24:39Z</time>
      </trkpt>
      <trkpt lat="43.070032999999455" lon="-1.2693629999999996">
        <ele>1147.884</ele>
        <time>2022-08-24T09:24:40Z</time>
      </trkpt>
      <trkpt lat="43.07001999999945" lon="-1.2693619999999997">
        <ele>1147.868</ele>
        <time>2022-08-24T09:24:41Z</time>
      </trkpt>
      <trkpt lat="43.07000699999945" lon="-1.2693629999999996">
        <ele>1147.847</ele>
        <time>2022-08-24T09:24:42Z</time>
      </trkpt>
      <trkpt lat="43.06999299999945" lon="-1.2693629999999996">
        <ele>1147.836</ele>
        <time>2022-08-24T09:24:43Z</time>
      </trkpt>
      <trkpt lat="43.06997999999945" lon="-1.2693619999999997">
        <ele>1148.017</ele>
        <time>2022-08-24T09:24:44Z</time>
      </trkpt>
      <trkpt lat="43.069966999999444" lon="-1.2693599999999996">
        <ele>1148.218</ele>
        <time>2022-08-24T09:24:45Z</time>
      </trkpt>
      <trkpt lat="43.06995099999944" lon="-1.2693589999999997">
        <ele>1148.209</ele>
        <time>2022-08-24T09:24:46Z</time>
      </trkpt>
      <trkpt lat="43.069935999999444" lon="-1.2693589999999997">
        <ele>1148.284</ele>
        <time>2022-08-24T09:24:47Z</time>
      </trkpt>
      <trkpt lat="43.069918999999445" lon="-1.2693559999999997">
        <ele>1148.474</ele>
        <time>2022-08-24T09:24:48Z</time>
      </trkpt>
      <trkpt lat="43.069904999999444" lon="-1.2693579999999998">
        <ele>1148.644</ele>
        <time>2022-08-24T09:24:49Z</time>
      </trkpt>
      <trkpt lat="43.069890999999444" lon="-1.2693619999999997">
        <ele>1148.860</ele>
        <time>2022-08-24T09:24:50Z</time>
      </trkpt>
      <trkpt lat="43.069876999999444" lon="-1.2693659999999996">
        <ele>1148.862</ele>
        <time>2022-08-24T09:24:51Z</time>
      </trkpt>
      <trkpt lat="43.069862999999444" lon="-1.2693679999999996">
        <ele>1149.069</ele>
        <time>2022-08-24T09:24:52Z</time>
      </trkpt>
      <trkpt lat="43.069847999999446" lon="-1.2693699999999997">
        <ele>1149.222</ele>
        <time>2022-08-24T09:24:53Z</time>
      </trkpt>
      <trkpt lat="43.069833999999446" lon="-1.2693689999999997">
        <ele>1149.226</ele>
        <time>2022-08-24T09:24:54Z</time>
      </trkpt>
      <trkpt lat="43.06981899999945" lon="-1.2693659999999998">
        <ele>1149.495</ele>
        <time>2022-08-24T09:24:55Z</time>
      </trkpt>
      <trkpt lat="43.06980399999945" lon="-1.2693619999999999">
        <ele>1149.422</ele>
        <time>2022-08-24T09:24:56Z</time>
      </trkpt>
      <trkpt lat="43.06978899999945" lon="-1.2693569999999998">
        <ele>1149.662</ele>
        <time>2022-08-24T09:24:57Z</time>
      </trkpt>
      <trkpt lat="43.06977599999945" lon="-1.269356">
        <ele>1149.808</ele>
        <time>2022-08-24T09:24:58Z</time>
      </trkpt>
      <trkpt lat="43.06976099999945" lon="-1.269356">
        <ele>1150.009</ele>
        <time>2022-08-24T09:24:59Z</time>
      </trkpt>
      <trkpt lat="43.069745999999455" lon="-1.269356">
        <ele>1150.243</ele>
        <time>2022-08-24T09:25:00Z</time>
      </trkpt>
      <trkpt lat="43.06972999999945" lon="-1.2693539999999999">
        <ele>1150.433</ele>
        <time>2022-08-24T09:25:01Z</time>
      </trkpt>
      <trkpt lat="43.06971299999945" lon="-1.269356">
        <ele>1150.673</ele>
        <time>2022-08-24T09:25:02Z</time>
      </trkpt>
      <trkpt lat="43.06969899999945" lon="-1.26935">
        <ele>1150.829</ele>
        <time>2022-08-24T09:25:03Z</time>
      </trkpt>
      <trkpt lat="43.06968599999945" lon="-1.269346">
        <ele>1151.031</ele>
        <time>2022-08-24T09:25:04Z</time>
      </trkpt>
      <trkpt lat="43.06967299999945" lon="-1.2693420000000002">
        <ele>1151.268</ele>
        <time>2022-08-24T09:25:05Z</time>
      </trkpt>
      <trkpt lat="43.06965799999945" lon="-1.2693390000000002">
        <ele>1151.261</ele>
        <time>2022-08-24T09:25:06Z</time>
      </trkpt>
      <trkpt lat="43.06964199999945" lon="-1.2693350000000003">
        <ele>1151.495</ele>
        <time>2022-08-24T09:25:07Z</time>
      </trkpt>
      <trkpt lat="43.06962699999945" lon="-1.2693330000000003">
        <ele>1151.664</ele>
        <time>2022-08-24T09:25:08Z</time>
      </trkpt>
      <trkpt lat="43.06961199999945" lon="-1.2693340000000002">
        <ele>1151.858</ele>
        <time>2022-08-24T09:25:09Z</time>
      </trkpt>
      <trkpt lat="43.069596999999455" lon="-1.2693310000000002">
        <ele>1151.852</ele>
        <time>2022-08-24T09:25:10Z</time>
      </trkpt>
      <trkpt lat="43.069582999999454" lon="-1.2693270000000003">
        <ele>1152.017</ele>
        <time>2022-08-24T09:25:11Z</time>
      </trkpt>
      <trkpt lat="43.06956799999946" lon="-1.2693230000000004">
        <ele>1152.209</ele>
        <time>2022-08-24T09:25:12Z</time>
      </trkpt>
      <trkpt lat="43.06955099999946" lon="-1.2693200000000004">
        <ele>1152.436</ele>
        <time>2022-08-24T09:25:13Z</time>
      </trkpt>
      <trkpt lat="43.06953399999946" lon="-1.2693180000000004">
        <ele>1152.686</ele>
        <time>2022-08-24T09:25:14Z</time>
      </trkpt>
      <trkpt lat="43.06951599999946" lon="-1.2693120000000004">
        <ele>1152.656</ele>
        <time>2022-08-24T09:25:15Z</time>
      </trkpt>
      <trkpt lat="43.06949599999946" lon="-1.2693070000000004">
        <ele>1152.832</ele>
        <time>2022-08-24T09:25:16Z</time>
      </trkpt>
      <trkpt lat="43.069477999999464" lon="-1.2692990000000004">
        <ele>1153.024</ele>
        <time>2022-08-24T09:25:17Z</time>
      </trkpt>
      <trkpt lat="43.069460999999464" lon="-1.2692910000000004">
        <ele>1153.421</ele>
        <time>2022-08-24T09:25:18Z</time>
      </trkpt>
      <trkpt lat="43.06944299999947" lon="-1.2692860000000004">
        <ele>1153.634</ele>
        <time>2022-08-24T09:25:19Z</time>
      </trkpt>
      <trkpt lat="43.06942299999947" lon="-1.2692840000000003">
        <ele>1153.688</ele>
        <time>2022-08-24T09:25:20Z</time>
      </trkpt>
      <trkpt lat="43.06940199999947" lon="-1.2692820000000002">
        <ele>1153.647</ele>
        <time>2022-08-24T09:25:21Z</time>
      </trkpt>
      <trkpt lat="43.069380999999474" lon="-1.2692790000000003">
        <ele>1153.683</ele>
        <time>2022-08-24T09:25:22Z</time>
      </trkpt>
      <trkpt lat="43.06936199999947" lon="-1.2692790000000003">
        <ele>1153.625</ele>
        <time>2022-08-24T09:25:23Z</time>
      </trkpt>
      <trkpt lat="43.06934299999947" lon="-1.2692770000000002">
        <ele>1153.617</ele>
        <time>2022-08-24T09:25:24Z</time>
      </trkpt>
      <trkpt lat="43.06932399999947" lon="-1.2692710000000003">
        <ele>1153.609</ele>
        <time>2022-08-24T09:25:25Z</time>
      </trkpt>
      <trkpt lat="43.06930499999947" lon="-1.2692660000000002">
        <ele>1153.839</ele>
        <time>2022-08-24T09:25:26Z</time>
      </trkpt>
      <trkpt lat="43.069285999999465" lon="-1.2692610000000002">
        <ele>1153.869</ele>
        <time>2022-08-24T09:25:27Z</time>
      </trkpt>
      <trkpt lat="43.069265999999466" lon="-1.2692550000000002">
        <ele>1154.039</ele>
        <time>2022-08-24T09:25:28Z</time>
      </trkpt>
      <trkpt lat="43.069246999999464" lon="-1.2692510000000004">
        <ele>1154.015</ele>
        <time>2022-08-24T09:25:29Z</time>
      </trkpt>
      <trkpt lat="43.069226999999465" lon="-1.2692480000000004">
        <ele>1154.257</ele>
        <time>2022-08-24T09:25:30Z</time>
      </trkpt>
      <trkpt lat="43.069206999999466" lon="-1.2692450000000004">
        <ele>1154.424</ele>
        <time>2022-08-24T09:25:31Z</time>
      </trkpt>
      <trkpt lat="43.06918599999947" lon="-1.2692410000000005">
        <ele>1154.867</ele>
        <time>2022-08-24T09:25:32Z</time>
      </trkpt>
      <trkpt lat="43.06916599999947" lon="-1.2692360000000005">
        <ele>1155.031</ele>
        <time>2022-08-24T09:25:33Z</time>
      </trkpt>
      <trkpt lat="43.06914499999947" lon="-1.2692300000000005">
        <ele>1155.040</ele>
        <time>2022-08-24T09:25:34Z</time>
      </trkpt>
      <trkpt lat="43.069123999999476" lon="-1.2692230000000004">
        <ele>1155.224</ele>
        <time>2022-08-24T09:25:35Z</time>
      </trkpt>
      <trkpt lat="43.06910299999948" lon="-1.2692170000000005">
        <ele>1155.404</ele>
        <time>2022-08-24T09:25:36Z</time>
      </trkpt>
      <trkpt lat="43.06908299999948" lon="-1.2692130000000006">
        <ele>1155.614</ele>
        <time>2022-08-24T09:25:37Z</time>
      </trkpt>
      <trkpt lat="43.069061999999484" lon="-1.2692110000000005">
        <ele>1155.809</ele>
        <time>2022-08-24T09:25:38Z</time>
      </trkpt>
      <trkpt lat="43.06903999999948" lon="-1.2692070000000006">
        <ele>1155.863</ele>
        <time>2022-08-24T09:25:39Z</time>
      </trkpt>
      <trkpt lat="43.069018999999486" lon="-1.2692040000000007">
        <ele>1156.033</ele>
        <time>2022-08-24T09:25:40Z</time>
      </trkpt>
      <trkpt lat="43.068998999999486" lon="-1.2692000000000008">
        <ele>1156.293</ele>
        <time>2022-08-24T09:25:41Z</time>
      </trkpt>
      <trkpt lat="43.068979999999485" lon="-1.2691990000000009">
        <ele>1156.279</ele>
        <time>2022-08-24T09:25:42Z</time>
      </trkpt>
      <trkpt lat="43.06896099999948" lon="-1.2691940000000008">
        <ele>1156.441</ele>
        <time>2022-08-24T09:25:43Z</time>
      </trkpt>
      <trkpt lat="43.068939999999486" lon="-1.2691890000000008">
        <ele>1156.438</ele>
        <time>2022-08-24T09:25:44Z</time>
      </trkpt>
      <trkpt lat="43.06891999999949" lon="-1.269185000000001">
        <ele>1156.681</ele>
        <time>2022-08-24T09:25:45Z</time>
      </trkpt>
      <trkpt lat="43.06889999999949" lon="-1.269181000000001">
        <ele>1156.825</ele>
        <time>2022-08-24T09:25:46Z</time>
      </trkpt>
      <trkpt lat="43.06887999999949" lon="-1.269178000000001">
        <ele>1157.014</ele>
        <time>2022-08-24T09:25:47Z</time>
      </trkpt>
      <trkpt lat="43.06885899999949" lon="-1.269178000000001">
        <ele>1157.074</ele>
        <time>2022-08-24T09:25:48Z</time>
      </trkpt>
      <trkpt lat="43.06883899999949" lon="-1.269172000000001">
        <ele>1157.456</ele>
        <time>2022-08-24T09:25:49Z</time>
      </trkpt>
      <trkpt lat="43.068815999999494" lon="-1.2691680000000012">
        <ele>1157.621</ele>
        <time>2022-08-24T09:25:50Z</time>
      </trkpt>
      <trkpt lat="43.068792999999495" lon="-1.2691660000000011">
        <ele>1157.809</ele>
        <time>2022-08-24T09:25:51Z</time>
      </trkpt>
      <trkpt lat="43.068770999999494" lon="-1.269161000000001">
        <ele>1158.088</ele>
        <time>2022-08-24T09:25:52Z</time>
      </trkpt>
      <trkpt lat="43.0687499999995" lon="-1.2691570000000012">
        <ele>1158.248</ele>
        <time>2022-08-24T09:25:53Z</time>
      </trkpt>
      <trkpt lat="43.0687289999995" lon="-1.2691510000000013">
        <ele>1158.228</ele>
        <time>2022-08-24T09:25:54Z</time>
      </trkpt>
      <trkpt lat="43.0687079999995" lon="-1.2691440000000012">
        <ele>1158.294</ele>
        <time>2022-08-24T09:25:55Z</time>
      </trkpt>
      <trkpt lat="43.06868699999951" lon="-1.2691380000000012">
        <ele>1158.236</ele>
        <time>2022-08-24T09:25:56Z</time>
      </trkpt>
      <trkpt lat="43.06866599999951" lon="-1.2691320000000013">
        <ele>1158.263</ele>
        <time>2022-08-24T09:25:57Z</time>
      </trkpt>
      <trkpt lat="43.06864699999951" lon="-1.2691270000000012">
        <ele>1158.236</ele>
        <time>2022-08-24T09:25:58Z</time>
      </trkpt>
      <trkpt lat="43.06862599999951" lon="-1.2691240000000013">
        <ele>1158.250</ele>
        <time>2022-08-24T09:25:59Z</time>
      </trkpt>
      <trkpt lat="43.068604999999515" lon="-1.2691190000000012">
        <ele>1158.229</ele>
        <time>2022-08-24T09:26:00Z</time>
      </trkpt>
      <trkpt lat="43.06858599999951" lon="-1.2691120000000011">
        <ele>1158.258</ele>
        <time>2022-08-24T09:26:01Z</time>
      </trkpt>
      <trkpt lat="43.068565999999514" lon="-1.2691060000000012">
        <ele>1158.052</ele>
        <time>2022-08-24T09:26:02Z</time>
      </trkpt>
      <trkpt lat="43.068545999999515" lon="-1.2691000000000012">
        <ele>1158.217</ele>
        <time>2022-08-24T09:26:03Z</time>
      </trkpt>
      <trkpt lat="43.068522999999516" lon="-1.2690930000000011">
        <ele>1158.209</ele>
        <time>2022-08-24T09:26:04Z</time>
      </trkpt>
      <trkpt lat="43.068494999999515" lon="-1.2690840000000012">
        <ele>1158.286</ele>
        <time>2022-08-24T09:26:05Z</time>
      </trkpt>
      <trkpt lat="43.068466999999515" lon="-1.2690790000000012">
        <ele>1158.286</ele>
        <time>2022-08-24T09:26:06Z</time>
      </trkpt>
      <trkpt lat="43.068438999999515" lon="-1.2690750000000013">
        <ele>1158.246</ele>
        <time>2022-08-24T09:26:07Z</time>
      </trkpt>
      <trkpt lat="43.06840999999952" lon="-1.2690690000000013">
        <ele>1158.472</ele>
        <time>2022-08-24T09:26:08Z</time>
      </trkpt>
      <trkpt lat="43.06835299999952" lon="-1.2690570000000014">
        <ele>1158.854</ele>
        <time>2022-08-24T09:26:10Z</time>
      </trkpt>
      <trkpt lat="43.06832499999952" lon="-1.2690470000000014">
        <ele>1159.031</ele>
        <time>2022-08-24T09:26:11Z</time>
      </trkpt>
      <trkpt lat="43.06829899999952" lon="-1.2690370000000013">
        <ele>1159.074</ele>
        <time>2022-08-24T09:26:12Z</time>
      </trkpt>
      <trkpt lat="43.06827499999952" lon="-1.2690270000000012">
        <ele>1159.268</ele>
        <time>2022-08-24T09:26:13Z</time>
      </trkpt>
      <trkpt lat="43.06825099999951" lon="-1.2690190000000012">
        <ele>1159.467</ele>
        <time>2022-08-24T09:26:14Z</time>
      </trkpt>
      <trkpt lat="43.06822699999951" lon="-1.2690080000000012">
        <ele>1159.863</ele>
        <time>2022-08-24T09:26:15Z</time>
      </trkpt>
      <trkpt lat="43.06820299999951" lon="-1.2689950000000012">
        <ele>1160.244</ele>
        <time>2022-08-24T09:26:16Z</time>
      </trkpt>
      <trkpt lat="43.06815499999951" lon="-1.2689710000000012">
        <ele>1160.818</ele>
        <time>2022-08-24T09:26:18Z</time>
      </trkpt>
      <trkpt lat="43.06813199999951" lon="-1.2689570000000012">
        <ele>1160.809</ele>
        <time>2022-08-24T09:26:19Z</time>
      </trkpt>
      <trkpt lat="43.06811099999951" lon="-1.2689420000000011">
        <ele>1161.047</ele>
        <time>2022-08-24T09:26:20Z</time>
      </trkpt>
      <trkpt lat="43.06809199999951" lon="-1.2689230000000011">
        <ele>1161.087</ele>
        <time>2022-08-24T09:26:21Z</time>
      </trkpt>
      <trkpt lat="43.06807299999951" lon="-1.268905000000001">
        <ele>1161.497</ele>
        <time>2022-08-24T09:26:22Z</time>
      </trkpt>
      <trkpt lat="43.068053999999506" lon="-1.2688880000000011">
        <ele>1161.433</ele>
        <time>2022-08-24T09:26:23Z</time>
      </trkpt>
      <trkpt lat="43.06803399999951" lon="-1.268872000000001">
        <ele>1161.845</ele>
        <time>2022-08-24T09:26:24Z</time>
      </trkpt>
      <trkpt lat="43.068014999999505" lon="-1.268856000000001">
        <ele>1162.252</ele>
        <time>2022-08-24T09:26:25Z</time>
      </trkpt>
      <trkpt lat="43.067997999999506" lon="-1.268840000000001">
        <ele>1162.495</ele>
        <time>2022-08-24T09:26:26Z</time>
      </trkpt>
      <trkpt lat="43.06798299999951" lon="-1.268824000000001">
        <ele>1162.869</ele>
        <time>2022-08-24T09:26:27Z</time>
      </trkpt>
      <trkpt lat="43.067966999999506" lon="-1.268808000000001">
        <ele>1163.258</ele>
        <time>2022-08-24T09:26:28Z</time>
      </trkpt>
      <trkpt lat="43.06795199999951" lon="-1.268793000000001">
        <ele>1163.459</ele>
        <time>2022-08-24T09:26:29Z</time>
      </trkpt>
      <trkpt lat="43.06793799999951" lon="-1.268773000000001">
        <ele>1163.603</ele>
        <time>2022-08-24T09:26:30Z</time>
      </trkpt>
      <trkpt lat="43.067924999999505" lon="-1.268751000000001">
        <ele>1164.023</ele>
        <time>2022-08-24T09:26:31Z</time>
      </trkpt>
      <trkpt lat="43.0679119999995" lon="-1.268730000000001">
        <ele>1164.209</ele>
        <time>2022-08-24T09:26:32Z</time>
      </trkpt>
      <trkpt lat="43.0678979999995" lon="-1.268706000000001">
        <ele>1164.476</ele>
        <time>2022-08-24T09:26:33Z</time>
      </trkpt>
      <trkpt lat="43.067882999999505" lon="-1.268679000000001">
        <ele>1164.636</ele>
        <time>2022-08-24T09:26:34Z</time>
      </trkpt>
      <trkpt lat="43.067868999999504" lon="-1.268652000000001">
        <ele>1164.856</ele>
        <time>2022-08-24T09:26:35Z</time>
      </trkpt>
      <trkpt lat="43.0678559999995" lon="-1.268625000000001">
        <ele>1165.232</ele>
        <time>2022-08-24T09:26:36Z</time>
      </trkpt>
      <trkpt lat="43.0678429999995" lon="-1.268598000000001">
        <ele>1165.454</ele>
        <time>2022-08-24T09:26:37Z</time>
      </trkpt>
      <trkpt lat="43.0678289999995" lon="-1.268570000000001">
        <ele>1165.891</ele>
        <time>2022-08-24T09:26:38Z</time>
      </trkpt>
      <trkpt lat="43.0678149999995" lon="-1.2685390000000012">
        <ele>1165.874</ele>
        <time>2022-08-24T09:26:39Z</time>
      </trkpt>
      <trkpt lat="43.067801999999496" lon="-1.2685070000000012">
        <ele>1165.828</ele>
        <time>2022-08-24T09:26:40Z</time>
      </trkpt>
      <trkpt lat="43.067785999999494" lon="-1.2684740000000012">
        <ele>1165.887</ele>
        <time>2022-08-24T09:26:41Z</time>
      </trkpt>
      <trkpt lat="43.06776999999949" lon="-1.2684410000000013">
        <ele>1165.868</ele>
        <time>2022-08-24T09:26:42Z</time>
      </trkpt>
      <trkpt lat="43.06775599999949" lon="-1.2684070000000012">
        <ele>1165.442</ele>
        <time>2022-08-24T09:26:43Z</time>
      </trkpt>
      <trkpt lat="43.06774299999949" lon="-1.268370000000001">
        <ele>1165.226</ele>
        <time>2022-08-24T09:26:44Z</time>
      </trkpt>
      <trkpt lat="43.067729999999486" lon="-1.2683310000000012">
        <ele>1165.009</ele>
        <time>2022-08-24T09:26:45Z</time>
      </trkpt>
      <trkpt lat="43.06771499999949" lon="-1.2682910000000012">
        <ele>1164.647</ele>
        <time>2022-08-24T09:26:46Z</time>
      </trkpt>
      <trkpt lat="43.06769999999949" lon="-1.268249000000001">
        <ele>1164.447</ele>
        <time>2022-08-24T09:26:47Z</time>
      </trkpt>
      <trkpt lat="43.06768099999949" lon="-1.268206000000001">
        <ele>1164.467</ele>
        <time>2022-08-24T09:26:48Z</time>
      </trkpt>
      <trkpt lat="43.06765799999949" lon="-1.268161000000001">
        <ele>1164.433</ele>
        <time>2022-08-24T09:26:49Z</time>
      </trkpt>
      <trkpt lat="43.06763299999949" lon="-1.268114000000001">
        <ele>1164.415</ele>
        <time>2022-08-24T09:26:50Z</time>
      </trkpt>
      <trkpt lat="43.06760299999949" lon="-1.268066000000001">
        <ele>1164.442</ele>
        <time>2022-08-24T09:26:51Z</time>
      </trkpt>
      <trkpt lat="43.06756899999949" lon="-1.268020000000001">
        <ele>1164.435</ele>
        <time>2022-08-24T09:26:52Z</time>
      </trkpt>
      <trkpt lat="43.067530999999484" lon="-1.267974000000001">
        <ele>1164.429</ele>
        <time>2022-08-24T09:26:53Z</time>
      </trkpt>
      <trkpt lat="43.06744699999948" lon="-1.267878000000001">
        <ele>1164.248</ele>
        <time>2022-08-24T09:26:55Z</time>
      </trkpt>
      <trkpt lat="43.06739899999948" lon="-1.267832000000001">
        <ele>1164.065</ele>
        <time>2022-08-24T09:26:56Z</time>
      </trkpt>
      <trkpt lat="43.067349999999486" lon="-1.267792000000001">
        <ele>1163.468</ele>
        <time>2022-08-24T09:26:57Z</time>
      </trkpt>
      <trkpt lat="43.06730099999949" lon="-1.2677580000000008">
        <ele>1162.414</ele>
        <time>2022-08-24T09:26:58Z</time>
      </trkpt>
      <trkpt lat="43.06719499999949" lon="-1.2677010000000009">
        <ele>1161.409</ele>
        <time>2022-08-24T09:27:00Z</time>
      </trkpt>
      <trkpt lat="43.06714399999949" lon="-1.2676740000000009">
        <ele>1160.847</ele>
        <time>2022-08-24T09:27:01Z</time>
      </trkpt>
      <trkpt lat="43.067093999999486" lon="-1.2676500000000008">
        <ele>1160.277</ele>
        <time>2022-08-24T09:27:02Z</time>
      </trkpt>
      <trkpt lat="43.067045999999486" lon="-1.2676310000000008">
        <ele>1159.427</ele>
        <time>2022-08-24T09:27:03Z</time>
      </trkpt>
      <trkpt lat="43.06700199999948" lon="-1.2676120000000008">
        <ele>1159.023</ele>
        <time>2022-08-24T09:27:04Z</time>
      </trkpt>
      <trkpt lat="43.06695999999948" lon="-1.2675960000000008">
        <ele>1158.275</ele>
        <time>2022-08-24T09:27:05Z</time>
      </trkpt>
      <trkpt lat="43.06692399999948" lon="-1.2675800000000008">
        <ele>1158.082</ele>
        <time>2022-08-24T09:27:06Z</time>
      </trkpt>
      <trkpt lat="43.06688999999948" lon="-1.2675650000000007">
        <ele>1157.635</ele>
        <time>2022-08-24T09:27:07Z</time>
      </trkpt>
      <trkpt lat="43.06685399999948" lon="-1.2675500000000006">
        <ele>1157.469</ele>
        <time>2022-08-24T09:27:08Z</time>
      </trkpt>
      <trkpt lat="43.06681999999948" lon="-1.2675400000000006">
        <ele>1157.228</ele>
        <time>2022-08-24T09:27:09Z</time>
      </trkpt>
      <trkpt lat="43.066784999999484" lon="-1.2675330000000005">
        <ele>1157.069</ele>
        <time>2022-08-24T09:27:10Z</time>
      </trkpt>
      <trkpt lat="43.06674899999948" lon="-1.2675270000000005">
        <ele>1156.804</ele>
        <time>2022-08-24T09:27:11Z</time>
      </trkpt>
      <trkpt lat="43.06671599999948" lon="-1.2675160000000005">
        <ele>1156.624</ele>
        <time>2022-08-24T09:27:12Z</time>
      </trkpt>
      <trkpt lat="43.06665099999948" lon="-1.2674930000000004">
        <ele>1156.409</ele>
        <time>2022-08-24T09:27:14Z</time>
      </trkpt>
      <trkpt lat="43.066618999999484" lon="-1.2674820000000004">
        <ele>1156.487</ele>
        <time>2022-08-24T09:27:15Z</time>
      </trkpt>
      <trkpt lat="43.066550999999485" lon="-1.2674540000000005">
        <ele>1156.247</ele>
        <time>2022-08-24T09:27:17Z</time>
      </trkpt>
      <trkpt lat="43.06651799999948" lon="-1.2674470000000004">
        <ele>1156.227</ele>
        <time>2022-08-24T09:27:18Z</time>
      </trkpt>
      <trkpt lat="43.066488999999486" lon="-1.2674410000000005">
        <ele>1156.453</ele>
        <time>2022-08-24T09:27:19Z</time>
      </trkpt>
      <trkpt lat="43.066460999999485" lon="-1.2674360000000005">
        <ele>1156.425</ele>
        <time>2022-08-24T09:27:20Z</time>
      </trkpt>
      <trkpt lat="43.066432999999485" lon="-1.2674330000000005">
        <ele>1156.642</ele>
        <time>2022-08-24T09:27:21Z</time>
      </trkpt>
      <trkpt lat="43.066404999999484" lon="-1.2674270000000005">
        <ele>1156.885</ele>
        <time>2022-08-24T09:27:22Z</time>
      </trkpt>
      <trkpt lat="43.06632099999948" lon="-1.2674030000000005">
        <ele>1156.879</ele>
        <time>2022-08-24T09:27:25Z</time>
      </trkpt>
      <trkpt lat="43.06629299999948" lon="-1.2673960000000004">
        <ele>1157.088</ele>
        <time>2022-08-24T09:27:26Z</time>
      </trkpt>
      <trkpt lat="43.06626599999948" lon="-1.2673940000000004">
        <ele>1157.056</ele>
        <time>2022-08-24T09:27:27Z</time>
      </trkpt>
      <trkpt lat="43.06624099999948" lon="-1.2673930000000004">
        <ele>1157.259</ele>
        <time>2022-08-24T09:27:28Z</time>
      </trkpt>
      <trkpt lat="43.06621499999948" lon="-1.2673860000000003">
        <ele>1157.414</ele>
        <time>2022-08-24T09:27:29Z</time>
      </trkpt>
      <trkpt lat="43.06618799999948" lon="-1.2673780000000003">
        <ele>1157.409</ele>
        <time>2022-08-24T09:27:30Z</time>
      </trkpt>
      <trkpt lat="43.06608299999948" lon="-1.2673460000000003">
        <ele>1157.426</ele>
        <time>2022-08-24T09:27:34Z</time>
      </trkpt>
      <trkpt lat="43.06585699999948" lon="-1.2672920000000003">
        <ele>1157.666</ele>
        <time>2022-08-24T09:27:42Z</time>
      </trkpt>
      <trkpt lat="43.06580199999948" lon="-1.2672780000000003">
        <ele>1157.676</ele>
        <time>2022-08-24T09:27:44Z</time>
      </trkpt>
      <trkpt lat="43.06556199999948" lon="-1.2671990000000004">
        <ele>1157.652</ele>
        <time>2022-08-24T09:27:52Z</time>
      </trkpt>
      <trkpt lat="43.06553099999948" lon="-1.2671890000000003">
        <ele>1157.644</ele>
        <time>2022-08-24T09:27:53Z</time>
      </trkpt>
      <trkpt lat="43.06550199999948" lon="-1.2671780000000004">
        <ele>1157.671</ele>
        <time>2022-08-24T09:27:54Z</time>
      </trkpt>
      <trkpt lat="43.06547199999948" lon="-1.2671670000000004">
        <ele>1157.664</ele>
        <time>2022-08-24T09:27:55Z</time>
      </trkpt>
      <trkpt lat="43.06538399999948" lon="-1.2671390000000005">
        <ele>1157.828</ele>
        <time>2022-08-24T09:27:58Z</time>
      </trkpt>
      <trkpt lat="43.06535699999948" lon="-1.2671310000000005">
        <ele>1157.837</ele>
        <time>2022-08-24T09:27:59Z</time>
      </trkpt>
      <trkpt lat="43.06533099999948" lon="-1.2671240000000004">
        <ele>1157.862</ele>
        <time>2022-08-24T09:28:00Z</time>
      </trkpt>
      <trkpt lat="43.06530599999948" lon="-1.2671140000000003">
        <ele>1157.883</ele>
        <time>2022-08-24T09:28:01Z</time>
      </trkpt>
      <trkpt lat="43.06527999999948" lon="-1.2671080000000003">
        <ele>1157.811</ele>
        <time>2022-08-24T09:28:02Z</time>
      </trkpt>
      <trkpt lat="43.06525499999948" lon="-1.2671030000000003">
        <ele>1157.809</ele>
        <time>2022-08-24T09:28:03Z</time>
      </trkpt>
      <trkpt lat="43.065205999999485" lon="-1.2670910000000004">
        <ele>1157.857</ele>
        <time>2022-08-24T09:28:05Z</time>
      </trkpt>
      <trkpt lat="43.065179999999486" lon="-1.2670840000000003">
        <ele>1158.057</ele>
        <time>2022-08-24T09:28:06Z</time>
      </trkpt>
      <trkpt lat="43.065076999999484" lon="-1.2670430000000004">
        <ele>1157.857</ele>
        <time>2022-08-24T09:28:10Z</time>
      </trkpt>
      <trkpt lat="43.06502499999949" lon="-1.2670230000000005">
        <ele>1157.873</ele>
        <time>2022-08-24T09:28:12Z</time>
      </trkpt>
      <trkpt lat="43.06500199999949" lon="-1.2670120000000005">
        <ele>1157.845</ele>
        <time>2022-08-24T09:28:13Z</time>
      </trkpt>
      <trkpt lat="43.06497899999949" lon="-1.2670030000000005">
        <ele>1157.862</ele>
        <time>2022-08-24T09:28:14Z</time>
      </trkpt>
      <trkpt lat="43.06495799999949" lon="-1.2669910000000006">
        <ele>1157.665</ele>
        <time>2022-08-24T09:28:15Z</time>
      </trkpt>
      <trkpt lat="43.06493899999949" lon="-1.2669780000000006">
        <ele>1157.699</ele>
        <time>2022-08-24T09:28:16Z</time>
      </trkpt>
      <trkpt lat="43.06491899999949" lon="-1.2669660000000007">
        <ele>1157.468</ele>
        <time>2022-08-24T09:28:17Z</time>
      </trkpt>
      <trkpt lat="43.06490299999949" lon="-1.2669590000000006">
        <ele>1157.433</ele>
        <time>2022-08-24T09:28:18Z</time>
      </trkpt>
      <trkpt lat="43.06488999999949" lon="-1.2669580000000007">
        <ele>1157.423</ele>
        <time>2022-08-24T09:28:19Z</time>
      </trkpt>
      <trkpt lat="43.06487599999949" lon="-1.2669570000000008">
        <ele>1157.215</ele>
        <time>2022-08-24T09:28:20Z</time>
      </trkpt>
      <trkpt lat="43.06486099999949" lon="-1.2669540000000008">
        <ele>1157.209</ele>
        <time>2022-08-24T09:28:21Z</time>
      </trkpt>
      <trkpt lat="43.06484399999949" lon="-1.2669480000000009">
        <ele>1157.254</ele>
        <time>2022-08-24T09:28:22Z</time>
      </trkpt>
      <trkpt lat="43.06481099999949" lon="-1.266936000000001">
        <ele>1157.024</ele>
        <time>2022-08-24T09:28:24Z</time>
      </trkpt>
      <trkpt lat="43.06474799999949" lon="-1.2669020000000009">
        <ele>1157.054</ele>
        <time>2022-08-24T09:28:28Z</time>
      </trkpt>
      <trkpt lat="43.06468999999949" lon="-1.266882000000001">
        <ele>1157.280</ele>
        <time>2022-08-24T09:28:31Z</time>
      </trkpt>
      <trkpt lat="43.06451699999949" lon="-1.266797000000001">
        <ele>1158.072</ele>
        <time>2022-08-24T09:28:39Z</time>
      </trkpt>
      <trkpt lat="43.064495999999494" lon="-1.266790000000001">
        <ele>1158.049</ele>
        <time>2022-08-24T09:28:40Z</time>
      </trkpt>
      <trkpt lat="43.06447699999949" lon="-1.266785000000001">
        <ele>1158.242</ele>
        <time>2022-08-24T09:28:41Z</time>
      </trkpt>
      <trkpt lat="43.06445799999949" lon="-1.266779000000001">
        <ele>1158.246</ele>
        <time>2022-08-24T09:28:42Z</time>
      </trkpt>
      <trkpt lat="43.064436999999494" lon="-1.266770000000001">
        <ele>1158.285</ele>
        <time>2022-08-24T09:28:43Z</time>
      </trkpt>
      <trkpt lat="43.06439899999949" lon="-1.2667530000000011">
        <ele>1158.492</ele>
        <time>2022-08-24T09:28:45Z</time>
      </trkpt>
      <trkpt lat="43.06438099999949" lon="-1.2667450000000011">
        <ele>1158.473</ele>
        <time>2022-08-24T09:28:46Z</time>
      </trkpt>
      <trkpt lat="43.06436499999949" lon="-1.2667370000000011">
        <ele>1158.420</ele>
        <time>2022-08-24T09:28:47Z</time>
      </trkpt>
      <trkpt lat="43.06434799999949" lon="-1.266727000000001">
        <ele>1158.609</ele>
        <time>2022-08-24T09:28:48Z</time>
      </trkpt>
      <trkpt lat="43.064329999999494" lon="-1.266720000000001">
        <ele>1158.610</ele>
        <time>2022-08-24T09:28:49Z</time>
      </trkpt>
      <trkpt lat="43.064312999999494" lon="-1.266711000000001">
        <ele>1158.610</ele>
        <time>2022-08-24T09:28:50Z</time>
      </trkpt>
      <trkpt lat="43.0642049999995" lon="-1.266669000000001">
        <ele>1158.820</ele>
        <time>2022-08-24T09:28:56Z</time>
      </trkpt>
      <trkpt lat="43.064188999999494" lon="-1.266661000000001">
        <ele>1158.846</ele>
        <time>2022-08-24T09:28:57Z</time>
      </trkpt>
      <trkpt lat="43.0641709999995" lon="-1.2666540000000008">
        <ele>1159.078</ele>
        <time>2022-08-24T09:28:58Z</time>
      </trkpt>
      <trkpt lat="43.0641529999995" lon="-1.2666460000000008">
        <ele>1159.015</ele>
        <time>2022-08-24T09:28:59Z</time>
      </trkpt>
      <trkpt lat="43.0641219999995" lon="-1.2666320000000009">
        <ele>1159.278</ele>
        <time>2022-08-24T09:29:01Z</time>
      </trkpt>
      <trkpt lat="43.0641059999995" lon="-1.266626000000001">
        <ele>1159.292</ele>
        <time>2022-08-24T09:29:02Z</time>
      </trkpt>
      <trkpt lat="43.0640909999995" lon="-1.266618000000001">
        <ele>1159.221</ele>
        <time>2022-08-24T09:29:03Z</time>
      </trkpt>
      <trkpt lat="43.0640159999995" lon="-1.2665940000000009">
        <ele>1159.457</ele>
        <time>2022-08-24T09:29:07Z</time>
      </trkpt>
      <trkpt lat="43.0638149999995" lon="-1.266531000000001">
        <ele>1159.400</ele>
        <time>2022-08-24T09:29:16Z</time>
      </trkpt>
      <trkpt lat="43.0637689999995" lon="-1.266515000000001">
        <ele>1159.620</ele>
        <time>2022-08-24T09:29:18Z</time>
      </trkpt>
      <trkpt lat="43.0637449999995" lon="-1.2665080000000009">
        <ele>1160.009</ele>
        <time>2022-08-24T09:29:19Z</time>
      </trkpt>
      <trkpt lat="43.0637249999995" lon="-1.2665010000000008">
        <ele>1160.286</ele>
        <time>2022-08-24T09:29:20Z</time>
      </trkpt>
      <trkpt lat="43.0637029999995" lon="-1.2664940000000007">
        <ele>1160.426</ele>
        <time>2022-08-24T09:29:21Z</time>
      </trkpt>
      <trkpt lat="43.0636769999995" lon="-1.2664900000000008">
        <ele>1160.446</ele>
        <time>2022-08-24T09:29:22Z</time>
      </trkpt>
      <trkpt lat="43.0635619999995" lon="-1.2664770000000007">
        <ele>1160.622</ele>
        <time>2022-08-24T09:29:26Z</time>
      </trkpt>
      <trkpt lat="43.0633479999995" lon="-1.2664700000000007">
        <ele>1160.434</ele>
        <time>2022-08-24T09:29:33Z</time>
      </trkpt>
      <trkpt lat="43.0632159999995" lon="-1.2664970000000007">
        <ele>1160.271</ele>
        <time>2022-08-24T09:29:37Z</time>
      </trkpt>
      <trkpt lat="43.0630459999995" lon="-1.2665490000000006">
        <ele>1159.844</ele>
        <time>2022-08-24T09:29:42Z</time>
      </trkpt>
      <trkpt lat="43.0629429999995" lon="-1.2665880000000005">
        <ele>1159.658</ele>
        <time>2022-08-24T09:29:45Z</time>
      </trkpt>
      <trkpt lat="43.0628339999995" lon="-1.2666300000000006">
        <ele>1159.287</ele>
        <time>2022-08-24T09:29:48Z</time>
      </trkpt>
      <trkpt lat="43.062727999999495" lon="-1.2666680000000006">
        <ele>1159.078</ele>
        <time>2022-08-24T09:29:51Z</time>
      </trkpt>
      <trkpt lat="43.06265899999949" lon="-1.2666880000000005">
        <ele>1158.833</ele>
        <time>2022-08-24T09:29:53Z</time>
      </trkpt>
      <trkpt lat="43.06262599999949" lon="-1.2667010000000005">
        <ele>1158.426</ele>
        <time>2022-08-24T09:29:54Z</time>
      </trkpt>
      <trkpt lat="43.06259199999949" lon="-1.2667110000000006">
        <ele>1158.409</ele>
        <time>2022-08-24T09:29:55Z</time>
      </trkpt>
      <trkpt lat="43.06255999999949" lon="-1.2667230000000005">
        <ele>1158.438</ele>
        <time>2022-08-24T09:29:56Z</time>
      </trkpt>
      <trkpt lat="43.062525999999494" lon="-1.2667350000000004">
        <ele>1158.058</ele>
        <time>2022-08-24T09:29:57Z</time>
      </trkpt>
      <trkpt lat="43.06249299999949" lon="-1.2667450000000005">
        <ele>1158.018</ele>
        <time>2022-08-24T09:29:58Z</time>
      </trkpt>
      <trkpt lat="43.062460999999495" lon="-1.2667540000000004">
        <ele>1158.044</ele>
        <time>2022-08-24T09:29:59Z</time>
      </trkpt>
      <trkpt lat="43.0624259999995" lon="-1.2667630000000003">
        <ele>1157.876</ele>
        <time>2022-08-24T09:30:00Z</time>
      </trkpt>
      <trkpt lat="43.0623939999995" lon="-1.2667710000000003">
        <ele>1157.883</ele>
        <time>2022-08-24T09:30:01Z</time>
      </trkpt>
      <trkpt lat="43.0623639999995" lon="-1.2667800000000002">
        <ele>1157.466</ele>
        <time>2022-08-24T09:30:02Z</time>
      </trkpt>
      <trkpt lat="43.062333999999495" lon="-1.2667890000000002">
        <ele>1157.270</ele>
        <time>2022-08-24T09:30:03Z</time>
      </trkpt>
      <trkpt lat="43.06230399999949" lon="-1.2667960000000003">
        <ele>1157.289</ele>
        <time>2022-08-24T09:30:04Z</time>
      </trkpt>
      <trkpt lat="43.06227399999949" lon="-1.2668050000000002">
        <ele>1157.253</ele>
        <time>2022-08-24T09:30:05Z</time>
      </trkpt>
      <trkpt lat="43.06224499999949" lon="-1.266814">
        <ele>1157.204</ele>
        <time>2022-08-24T09:30:06Z</time>
      </trkpt>
      <trkpt lat="43.06221799999949" lon="-1.2668210000000002">
        <ele>1157.214</ele>
        <time>2022-08-24T09:30:07Z</time>
      </trkpt>
      <trkpt lat="43.06219199999949" lon="-1.2668270000000001">
        <ele>1157.209</ele>
        <time>2022-08-24T09:30:08Z</time>
      </trkpt>
      <trkpt lat="43.06216599999949" lon="-1.2668320000000002">
        <ele>1157.046</ele>
        <time>2022-08-24T09:30:09Z</time>
      </trkpt>
      <trkpt lat="43.06214199999949" lon="-1.2668390000000003">
        <ele>1157.046</ele>
        <time>2022-08-24T09:30:10Z</time>
      </trkpt>
      <trkpt lat="43.06211999999949" lon="-1.2668440000000003">
        <ele>1157.056</ele>
        <time>2022-08-24T09:30:11Z</time>
      </trkpt>
      <trkpt lat="43.06209899999949" lon="-1.2668490000000003">
        <ele>1157.042</ele>
        <time>2022-08-24T09:30:12Z</time>
      </trkpt>
      <trkpt lat="43.06207699999949" lon="-1.2668550000000003">
        <ele>1157.044</ele>
        <time>2022-08-24T09:30:13Z</time>
      </trkpt>
      <trkpt lat="43.06205499999949" lon="-1.2668600000000003">
        <ele>1157.231</ele>
        <time>2022-08-24T09:30:14Z</time>
      </trkpt>
      <trkpt lat="43.06203299999949" lon="-1.2668650000000004">
        <ele>1157.284</ele>
        <time>2022-08-24T09:30:15Z</time>
      </trkpt>
      <trkpt lat="43.06200999999949" lon="-1.2668710000000003">
        <ele>1157.248</ele>
        <time>2022-08-24T09:30:16Z</time>
      </trkpt>
      <trkpt lat="43.06198999999949" lon="-1.2668780000000004">
        <ele>1157.437</ele>
        <time>2022-08-24T09:30:17Z</time>
      </trkpt>
      <trkpt lat="43.06196999999949" lon="-1.2668860000000004">
        <ele>1157.623</ele>
        <time>2022-08-24T09:30:18Z</time>
      </trkpt>
      <trkpt lat="43.06195199999949" lon="-1.2668950000000003">
        <ele>1157.883</ele>
        <time>2022-08-24T09:30:19Z</time>
      </trkpt>
      <trkpt lat="43.06193299999949" lon="-1.2669020000000004">
        <ele>1158.211</ele>
        <time>2022-08-24T09:30:20Z</time>
      </trkpt>
      <trkpt lat="43.06191299999949" lon="-1.2669080000000004">
        <ele>1158.609</ele>
        <time>2022-08-24T09:30:21Z</time>
      </trkpt>
      <trkpt lat="43.06187699999949" lon="-1.2669270000000004">
        <ele>1159.013</ele>
        <time>2022-08-24T09:30:23Z</time>
      </trkpt>
      <trkpt lat="43.06185999999949" lon="-1.2669360000000003">
        <ele>1159.223</ele>
        <time>2022-08-24T09:30:24Z</time>
      </trkpt>
      <trkpt lat="43.061844999999494" lon="-1.2669450000000002">
        <ele>1159.273</ele>
        <time>2022-08-24T09:30:25Z</time>
      </trkpt>
      <trkpt lat="43.061827999999494" lon="-1.2669520000000003">
        <ele>1159.299</ele>
        <time>2022-08-24T09:30:26Z</time>
      </trkpt>
      <trkpt lat="43.06181199999949" lon="-1.2669610000000002">
        <ele>1159.441</ele>
        <time>2022-08-24T09:30:27Z</time>
      </trkpt>
      <trkpt lat="43.06179299999949" lon="-1.2669740000000003">
        <ele>1159.698</ele>
        <time>2022-08-24T09:30:28Z</time>
      </trkpt>
      <trkpt lat="43.06177699999949" lon="-1.2669860000000002">
        <ele>1159.631</ele>
        <time>2022-08-24T09:30:29Z</time>
      </trkpt>
      <trkpt lat="43.06175999999949" lon="-1.2670050000000002">
        <ele>1159.855</ele>
        <time>2022-08-24T09:30:30Z</time>
      </trkpt>
      <trkpt lat="43.06172799999949" lon="-1.2670400000000002">
        <ele>1160.044</ele>
        <time>2022-08-24T09:30:32Z</time>
      </trkpt>
      <trkpt lat="43.06171499999949" lon="-1.2670580000000002">
        <ele>1160.039</ele>
        <time>2022-08-24T09:30:33Z</time>
      </trkpt>
      <trkpt lat="43.06170599999949" lon="-1.2670790000000003">
        <ele>1160.001</ele>
        <time>2022-08-24T09:30:34Z</time>
      </trkpt>
      <trkpt lat="43.061695999999486" lon="-1.2671000000000003">
        <ele>1160.221</ele>
        <time>2022-08-24T09:30:35Z</time>
      </trkpt>
      <trkpt lat="43.06168399999949" lon="-1.2671210000000004">
        <ele>1160.209</ele>
        <time>2022-08-24T09:30:36Z</time>
      </trkpt>
      <trkpt lat="43.06167299999949" lon="-1.2671440000000005">
        <ele>1160.844</ele>
        <time>2022-08-24T09:30:37Z</time>
      </trkpt>
      <trkpt lat="43.061662999999484" lon="-1.2671650000000005">
        <ele>1161.074</ele>
        <time>2022-08-24T09:30:38Z</time>
      </trkpt>
      <trkpt lat="43.061653999999486" lon="-1.2671870000000005">
        <ele>1161.484</ele>
        <time>2022-08-24T09:30:39Z</time>
      </trkpt>
      <trkpt lat="43.06164699999949" lon="-1.2672080000000006">
        <ele>1161.680</ele>
        <time>2022-08-24T09:30:40Z</time>
      </trkpt>
      <trkpt lat="43.06163899999949" lon="-1.2672280000000005">
        <ele>1162.072</ele>
        <time>2022-08-24T09:30:41Z</time>
      </trkpt>
      <trkpt lat="43.06162999999949" lon="-1.2672490000000005">
        <ele>1162.019</ele>
        <time>2022-08-24T09:30:42Z</time>
      </trkpt>
      <trkpt lat="43.06162099999949" lon="-1.2672710000000005">
        <ele>1162.242</ele>
        <time>2022-08-24T09:30:43Z</time>
      </trkpt>
      <trkpt lat="43.061613999999494" lon="-1.2672950000000005">
        <ele>1162.276</ele>
        <time>2022-08-24T09:30:44Z</time>
      </trkpt>
      <trkpt lat="43.06160899999949" lon="-1.2673200000000004">
        <ele>1162.295</ele>
        <time>2022-08-24T09:30:45Z</time>
      </trkpt>
      <trkpt lat="43.06159899999949" lon="-1.2673440000000005">
        <ele>1162.413</ele>
        <time>2022-08-24T09:30:46Z</time>
      </trkpt>
      <trkpt lat="43.06158999999949" lon="-1.2673660000000004">
        <ele>1162.443</ele>
        <time>2022-08-24T09:30:47Z</time>
      </trkpt>
      <trkpt lat="43.06158199999949" lon="-1.2673890000000005">
        <ele>1162.607</ele>
        <time>2022-08-24T09:30:48Z</time>
      </trkpt>
      <trkpt lat="43.06157499999949" lon="-1.2674130000000006">
        <ele>1163.009</ele>
        <time>2022-08-24T09:30:49Z</time>
      </trkpt>
      <trkpt lat="43.0615679999995" lon="-1.2674360000000007">
        <ele>1163.052</ele>
        <time>2022-08-24T09:30:50Z</time>
      </trkpt>
      <trkpt lat="43.0615609999995" lon="-1.2674610000000006">
        <ele>1163.282</ele>
        <time>2022-08-24T09:30:51Z</time>
      </trkpt>
      <trkpt lat="43.0615559999995" lon="-1.2674850000000006">
        <ele>1163.222</ele>
        <time>2022-08-24T09:30:52Z</time>
      </trkpt>
      <trkpt lat="43.0615539999995" lon="-1.2675090000000007">
        <ele>1163.448</ele>
        <time>2022-08-24T09:30:53Z</time>
      </trkpt>
      <trkpt lat="43.0615529999995" lon="-1.2675310000000006">
        <ele>1163.430</ele>
        <time>2022-08-24T09:30:54Z</time>
      </trkpt>
      <trkpt lat="43.0615529999995" lon="-1.2675480000000006">
        <ele>1163.447</ele>
        <time>2022-08-24T09:30:55Z</time>
      </trkpt>
      <trkpt lat="43.0615489999995" lon="-1.2675640000000006">
        <ele>1163.660</ele>
        <time>2022-08-24T09:30:56Z</time>
      </trkpt>
      <trkpt lat="43.061541999999505" lon="-1.2675810000000005">
        <ele>1163.644</ele>
        <time>2022-08-24T09:30:57Z</time>
      </trkpt>
      <trkpt lat="43.06153499999951" lon="-1.2675990000000006">
        <ele>1163.683</ele>
        <time>2022-08-24T09:30:58Z</time>
      </trkpt>
      <trkpt lat="43.06152899999951" lon="-1.2676200000000006">
        <ele>1163.893</ele>
        <time>2022-08-24T09:30:59Z</time>
      </trkpt>
      <trkpt lat="43.06152599999951" lon="-1.2676410000000007">
        <ele>1164.065</ele>
        <time>2022-08-24T09:31:00Z</time>
      </trkpt>
      <trkpt lat="43.06152599999951" lon="-1.2676630000000007">
        <ele>1164.021</ele>
        <time>2022-08-24T09:31:01Z</time>
      </trkpt>
      <trkpt lat="43.06152399999951" lon="-1.2676840000000007">
        <ele>1164.209</ele>
        <time>2022-08-24T09:31:02Z</time>
      </trkpt>
      <trkpt lat="43.06151999999951" lon="-1.2677060000000007">
        <ele>1164.230</ele>
        <time>2022-08-24T09:31:03Z</time>
      </trkpt>
      <trkpt lat="43.06151499999951" lon="-1.2677270000000007">
        <ele>1164.460</ele>
        <time>2022-08-24T09:31:04Z</time>
      </trkpt>
      <trkpt lat="43.06151299999951" lon="-1.2677450000000008">
        <ele>1164.470</ele>
        <time>2022-08-24T09:31:05Z</time>
      </trkpt>
      <trkpt lat="43.06150999999951" lon="-1.2677620000000007">
        <ele>1164.676</ele>
        <time>2022-08-24T09:31:06Z</time>
      </trkpt>
      <trkpt lat="43.06150499999951" lon="-1.2677800000000008">
        <ele>1164.868</ele>
        <time>2022-08-24T09:31:07Z</time>
      </trkpt>
      <trkpt lat="43.061499999999505" lon="-1.2677980000000009">
        <ele>1164.835</ele>
        <time>2022-08-24T09:31:08Z</time>
      </trkpt>
      <trkpt lat="43.06149599999951" lon="-1.2678180000000008">
        <ele>1165.018</ele>
        <time>2022-08-24T09:31:09Z</time>
      </trkpt>
      <trkpt lat="43.06149199999951" lon="-1.2678370000000008">
        <ele>1165.072</ele>
        <time>2022-08-24T09:31:10Z</time>
      </trkpt>
      <trkpt lat="43.06148999999951" lon="-1.2678550000000008">
        <ele>1165.251</ele>
        <time>2022-08-24T09:31:11Z</time>
      </trkpt>
      <trkpt lat="43.06148899999951" lon="-1.2678670000000007">
        <ele>1165.248</ele>
        <time>2022-08-24T09:31:12Z</time>
      </trkpt>
      <trkpt lat="43.06148399999951" lon="-1.2678790000000006">
        <ele>1165.461</ele>
        <time>2022-08-24T09:31:13Z</time>
      </trkpt>
      <trkpt lat="43.06147699999951" lon="-1.2678940000000007">
        <ele>1165.617</ele>
        <time>2022-08-24T09:31:14Z</time>
      </trkpt>
      <trkpt lat="43.061470999999514" lon="-1.2679120000000008">
        <ele>1165.609</ele>
        <time>2022-08-24T09:31:15Z</time>
      </trkpt>
      <trkpt lat="43.06146599999951" lon="-1.2679320000000007">
        <ele>1165.635</ele>
        <time>2022-08-24T09:31:16Z</time>
      </trkpt>
      <trkpt lat="43.061464999999515" lon="-1.2679520000000006">
        <ele>1165.895</ele>
        <time>2022-08-24T09:31:17Z</time>
      </trkpt>
      <trkpt lat="43.061461999999516" lon="-1.2679700000000007">
        <ele>1166.045</ele>
        <time>2022-08-24T09:31:18Z</time>
      </trkpt>
      <trkpt lat="43.06145499999952" lon="-1.2679840000000007">
        <ele>1166.651</ele>
        <time>2022-08-24T09:31:19Z</time>
      </trkpt>
      <trkpt lat="43.06144799999952" lon="-1.2679970000000007">
        <ele>1167.043</ele>
        <time>2022-08-24T09:31:20Z</time>
      </trkpt>
      <trkpt lat="43.06143999999952" lon="-1.2680100000000007">
        <ele>1167.040</ele>
        <time>2022-08-24T09:31:21Z</time>
      </trkpt>
      <trkpt lat="43.06142999999952" lon="-1.2680200000000008">
        <ele>1167.483</ele>
        <time>2022-08-24T09:31:22Z</time>
      </trkpt>
      <trkpt lat="43.061419999999515" lon="-1.2680290000000007">
        <ele>1167.497</ele>
        <time>2022-08-24T09:31:23Z</time>
      </trkpt>
      <trkpt lat="43.061408999999514" lon="-1.2680350000000007">
        <ele>1167.886</ele>
        <time>2022-08-24T09:31:24Z</time>
      </trkpt>
      <trkpt lat="43.061397999999514" lon="-1.2680390000000006">
        <ele>1167.865</ele>
        <time>2022-08-24T09:31:25Z</time>
      </trkpt>
      <trkpt lat="43.06138699999951" lon="-1.2680410000000006">
        <ele>1168.068</ele>
        <time>2022-08-24T09:31:26Z</time>
      </trkpt>
      <trkpt lat="43.06138199999951" lon="-1.2680410000000006">
        <ele>1168.214</ele>
        <time>2022-08-24T09:31:27Z</time>
      </trkpt>
      <trkpt lat="43.06138199999951" lon="-1.2680410000000006">
        <ele>1167.209</ele>
        <time>2022-08-24T09:32:31Z</time>
      </trkpt>
      <trkpt lat="43.061380999999514" lon="-1.2680420000000006">
        <ele>1167.267</ele>
        <time>2022-08-24T09:32:32Z</time>
      </trkpt>
      <trkpt lat="43.061352999999514" lon="-1.2680520000000006">
        <ele>1167.287</ele>
        <time>2022-08-24T09:32:55Z</time>
      </trkpt>
      <trkpt lat="43.06135399999951" lon="-1.2680520000000006">
        <ele>1167.267</ele>
        <time>2022-08-24T09:32:57Z</time>
      </trkpt>
      <trkpt lat="43.06135499999951" lon="-1.2680620000000007">
        <ele>1167.233</ele>
        <time>2022-08-24T09:32:58Z</time>
      </trkpt>
      <trkpt lat="43.061355999999506" lon="-1.2680700000000007">
        <ele>1167.275</ele>
        <time>2022-08-24T09:32:59Z</time>
      </trkpt>
      <trkpt lat="43.061356999999504" lon="-1.2680800000000008">
        <ele>1167.232</ele>
        <time>2022-08-24T09:33:00Z</time>
      </trkpt>
      <trkpt lat="43.0613549999995" lon="-1.2680890000000007">
        <ele>1167.265</ele>
        <time>2022-08-24T09:33:01Z</time>
      </trkpt>
      <trkpt lat="43.061353999999504" lon="-1.2680970000000007">
        <ele>1167.279</ele>
        <time>2022-08-24T09:33:02Z</time>
      </trkpt>
      <trkpt lat="43.0613519999995" lon="-1.2681070000000008">
        <ele>1167.448</ele>
        <time>2022-08-24T09:33:03Z</time>
      </trkpt>
      <trkpt lat="43.0613549999995" lon="-1.2681320000000007">
        <ele>1167.432</ele>
        <time>2022-08-24T09:33:05Z</time>
      </trkpt>
      <trkpt lat="43.061356999999504" lon="-1.2681410000000006">
        <ele>1167.492</ele>
        <time>2022-08-24T09:33:06Z</time>
      </trkpt>
      <trkpt lat="43.061358999999506" lon="-1.2682140000000006">
        <ele>1169.211</ele>
        <time>2022-08-24T09:43:04Z</time>
      </trkpt>
      <trkpt lat="43.061344999999505" lon="-1.2682300000000006">
        <ele>1169.409</ele>
        <time>2022-08-24T09:43:05Z</time>
      </trkpt>
      <trkpt lat="43.0613119999995" lon="-1.2682600000000006">
        <ele>1170.254</ele>
        <time>2022-08-24T09:43:07Z</time>
      </trkpt>
      <trkpt lat="43.061296999999506" lon="-1.2682730000000006">
        <ele>1171.074</ele>
        <time>2022-08-24T09:43:08Z</time>
      </trkpt>
      <trkpt lat="43.061285999999505" lon="-1.2682830000000007">
        <ele>1171.684</ele>
        <time>2022-08-24T09:43:09Z</time>
      </trkpt>
      <trkpt lat="43.061274999999505" lon="-1.2682950000000006">
        <ele>1171.820</ele>
        <time>2022-08-24T09:43:10Z</time>
      </trkpt>
      <trkpt lat="43.061263999999504" lon="-1.2683050000000007">
        <ele>1172.072</ele>
        <time>2022-08-24T09:43:11Z</time>
      </trkpt>
      <trkpt lat="43.0612509999995" lon="-1.2683140000000006">
        <ele>1172.499</ele>
        <time>2022-08-24T09:43:12Z</time>
      </trkpt>
      <trkpt lat="43.0612369999995" lon="-1.2683210000000007">
        <ele>1172.652</ele>
        <time>2022-08-24T09:43:13Z</time>
      </trkpt>
      <trkpt lat="43.0612199999995" lon="-1.2683270000000006">
        <ele>1172.836</ele>
        <time>2022-08-24T09:43:14Z</time>
      </trkpt>
      <trkpt lat="43.0612039999995" lon="-1.2683340000000007">
        <ele>1173.025</ele>
        <time>2022-08-24T09:43:15Z</time>
      </trkpt>
      <trkpt lat="43.0611889999995" lon="-1.2683410000000008">
        <ele>1173.484</ele>
        <time>2022-08-24T09:43:16Z</time>
      </trkpt>
      <trkpt lat="43.061173999999504" lon="-1.2683460000000009">
        <ele>1173.607</ele>
        <time>2022-08-24T09:43:17Z</time>
      </trkpt>
      <trkpt lat="43.061158999999506" lon="-1.268351000000001">
        <ele>1173.817</ele>
        <time>2022-08-24T09:43:18Z</time>
      </trkpt>
      <trkpt lat="43.06114399999951" lon="-1.2683540000000009">
        <ele>1173.809</ele>
        <time>2022-08-24T09:43:19Z</time>
      </trkpt>
      <trkpt lat="43.06112899999951" lon="-1.2683540000000009">
        <ele>1174.069</ele>
        <time>2022-08-24T09:43:20Z</time>
      </trkpt>
      <trkpt lat="43.06111399999951" lon="-1.268350000000001">
        <ele>1174.029</ele>
        <time>2022-08-24T09:43:21Z</time>
      </trkpt>
      <trkpt lat="43.06109699999951" lon="-1.268346000000001">
        <ele>1174.029</ele>
        <time>2022-08-24T09:43:22Z</time>
      </trkpt>
      <trkpt lat="43.061081999999516" lon="-1.268341000000001">
        <ele>1174.275</ele>
        <time>2022-08-24T09:43:23Z</time>
      </trkpt>
      <trkpt lat="43.06106699999952" lon="-1.268335000000001">
        <ele>1174.227</ele>
        <time>2022-08-24T09:43:24Z</time>
      </trkpt>
      <trkpt lat="43.06105199999952" lon="-1.2683320000000011">
        <ele>1174.284</ele>
        <time>2022-08-24T09:43:25Z</time>
      </trkpt>
      <trkpt lat="43.06103699999952" lon="-1.2683310000000012">
        <ele>1174.457</ele>
        <time>2022-08-24T09:43:26Z</time>
      </trkpt>
      <trkpt lat="43.06102299999952" lon="-1.2683310000000012">
        <ele>1174.471</ele>
        <time>2022-08-24T09:43:27Z</time>
      </trkpt>
      <trkpt lat="43.06100899999952" lon="-1.2683310000000012">
        <ele>1174.480</ele>
        <time>2022-08-24T09:43:28Z</time>
      </trkpt>
      <trkpt lat="43.06099299999952" lon="-1.2683300000000013">
        <ele>1174.416</ele>
        <time>2022-08-24T09:43:29Z</time>
      </trkpt>
      <trkpt lat="43.06097999999952" lon="-1.2683300000000013">
        <ele>1174.676</ele>
        <time>2022-08-24T09:43:30Z</time>
      </trkpt>
      <trkpt lat="43.06096599999952" lon="-1.2683310000000012">
        <ele>1174.613</ele>
        <time>2022-08-24T09:43:31Z</time>
      </trkpt>
      <trkpt lat="43.060952999999515" lon="-1.2683310000000012">
        <ele>1174.609</ele>
        <time>2022-08-24T09:43:32Z</time>
      </trkpt>
      <trkpt lat="43.06093999999951" lon="-1.2683260000000012">
        <ele>1174.662</ele>
        <time>2022-08-24T09:43:33Z</time>
      </trkpt>
      <trkpt lat="43.06092699999951" lon="-1.268319000000001">
        <ele>1174.642</ele>
        <time>2022-08-24T09:43:34Z</time>
      </trkpt>
      <trkpt lat="43.06091299999951" lon="-1.268316000000001">
        <ele>1174.642</ele>
        <time>2022-08-24T09:43:35Z</time>
      </trkpt>
      <trkpt lat="43.060899999999506" lon="-1.2683130000000011">
        <ele>1174.888</ele>
        <time>2022-08-24T09:43:36Z</time>
      </trkpt>
      <trkpt lat="43.060886999999504" lon="-1.2683100000000012">
        <ele>1174.840</ele>
        <time>2022-08-24T09:43:37Z</time>
      </trkpt>
      <trkpt lat="43.060874999999506" lon="-1.2683050000000011">
        <ele>1174.837</ele>
        <time>2022-08-24T09:43:38Z</time>
      </trkpt>
      <trkpt lat="43.06086299999951" lon="-1.2683050000000011">
        <ele>1175.040</ele>
        <time>2022-08-24T09:43:39Z</time>
      </trkpt>
      <trkpt lat="43.06085099999951" lon="-1.268303000000001">
        <ele>1175.254</ele>
        <time>2022-08-24T09:43:40Z</time>
      </trkpt>
      <trkpt lat="43.06083899999951" lon="-1.268301000000001">
        <ele>1175.293</ele>
        <time>2022-08-24T09:43:41Z</time>
      </trkpt>
      <trkpt lat="43.06082499999951" lon="-1.268298000000001">
        <ele>1175.227</ele>
        <time>2022-08-24T09:43:42Z</time>
      </trkpt>
      <trkpt lat="43.06081099999951" lon="-1.2682970000000011">
        <ele>1175.468</ele>
        <time>2022-08-24T09:43:43Z</time>
      </trkpt>
      <trkpt lat="43.06073199999951" lon="-1.268292000000001">
        <ele>1175.814</ele>
        <time>2022-08-24T09:43:48Z</time>
      </trkpt>
      <trkpt lat="43.060716999999514" lon="-1.268287000000001">
        <ele>1175.809</ele>
        <time>2022-08-24T09:43:49Z</time>
      </trkpt>
      <trkpt lat="43.060654999999514" lon="-1.268268000000001">
        <ele>1176.423</ele>
        <time>2022-08-24T09:43:53Z</time>
      </trkpt>
      <trkpt lat="43.060606999999514" lon="-1.268266000000001">
        <ele>1176.843</ele>
        <time>2022-08-24T09:43:56Z</time>
      </trkpt>
      <trkpt lat="43.06059399999951" lon="-1.268265000000001">
        <ele>1177.073</ele>
        <time>2022-08-24T09:43:57Z</time>
      </trkpt>
      <trkpt lat="43.060578999999514" lon="-1.268265000000001">
        <ele>1177.099</ele>
        <time>2022-08-24T09:43:58Z</time>
      </trkpt>
      <trkpt lat="43.060566999999516" lon="-1.268262000000001">
        <ele>1177.221</ele>
        <time>2022-08-24T09:43:59Z</time>
      </trkpt>
      <trkpt lat="43.06055399999951" lon="-1.2682590000000011">
        <ele>1177.468</ele>
        <time>2022-08-24T09:44:00Z</time>
      </trkpt>
      <trkpt lat="43.060521999999516" lon="-1.268262000000001">
        <ele>1177.841</ele>
        <time>2022-08-24T09:44:02Z</time>
      </trkpt>
      <trkpt lat="43.060507999999516" lon="-1.268263000000001">
        <ele>1177.865</ele>
        <time>2022-08-24T09:44:03Z</time>
      </trkpt>
      <trkpt lat="43.06049599999952" lon="-1.2682590000000011">
        <ele>1178.074</ele>
        <time>2022-08-24T09:44:04Z</time>
      </trkpt>
      <trkpt lat="43.06048099999952" lon="-1.268254000000001">
        <ele>1178.259</ele>
        <time>2022-08-24T09:44:05Z</time>
      </trkpt>
      <trkpt lat="43.06046599999952" lon="-1.2682510000000011">
        <ele>1178.403</ele>
        <time>2022-08-24T09:44:06Z</time>
      </trkpt>
      <trkpt lat="43.06045199999952" lon="-1.2682470000000012">
        <ele>1178.823</ele>
        <time>2022-08-24T09:44:07Z</time>
      </trkpt>
      <trkpt lat="43.06043799999952" lon="-1.2682450000000012">
        <ele>1178.809</ele>
        <time>2022-08-24T09:44:08Z</time>
      </trkpt>
      <trkpt lat="43.06042499999952" lon="-1.2682430000000011">
        <ele>1179.236</ele>
        <time>2022-08-24T09:44:09Z</time>
      </trkpt>
      <trkpt lat="43.060411999999516" lon="-1.268246000000001">
        <ele>1179.226</ele>
        <time>2022-08-24T09:44:10Z</time>
      </trkpt>
      <trkpt lat="43.060397999999516" lon="-1.268247000000001">
        <ele>1179.456</ele>
        <time>2022-08-24T09:44:11Z</time>
      </trkpt>
      <trkpt lat="43.060383999999516" lon="-1.268246000000001">
        <ele>1179.652</ele>
        <time>2022-08-24T09:44:12Z</time>
      </trkpt>
      <trkpt lat="43.060372999999515" lon="-1.268238000000001">
        <ele>1179.894</ele>
        <time>2022-08-24T09:44:13Z</time>
      </trkpt>
      <trkpt lat="43.06036299999951" lon="-1.268227000000001">
        <ele>1179.841</ele>
        <time>2022-08-24T09:44:14Z</time>
      </trkpt>
      <trkpt lat="43.06034999999951" lon="-1.268220000000001">
        <ele>1179.854</ele>
        <time>2022-08-24T09:44:15Z</time>
      </trkpt>
      <trkpt lat="43.06033699999951" lon="-1.2682160000000011">
        <ele>1179.888</ele>
        <time>2022-08-24T09:44:16Z</time>
      </trkpt>
      <trkpt lat="43.06032299999951" lon="-1.268219000000001">
        <ele>1180.067</ele>
        <time>2022-08-24T09:44:17Z</time>
      </trkpt>
      <trkpt lat="43.060309999999504" lon="-1.268222000000001">
        <ele>1180.069</ele>
        <time>2022-08-24T09:44:18Z</time>
      </trkpt>
      <trkpt lat="43.060295999999504" lon="-1.268223000000001">
        <ele>1180.004</ele>
        <time>2022-08-24T09:44:19Z</time>
      </trkpt>
      <trkpt lat="43.0602829999995" lon="-1.268219000000001">
        <ele>1180.024</ele>
        <time>2022-08-24T09:44:20Z</time>
      </trkpt>
      <trkpt lat="43.0602699999995" lon="-1.2682100000000012">
        <ele>1180.009</ele>
        <time>2022-08-24T09:44:21Z</time>
      </trkpt>
      <trkpt lat="43.0602549999995" lon="-1.2682050000000011">
        <ele>1180.287</ele>
        <time>2022-08-24T09:44:22Z</time>
      </trkpt>
      <trkpt lat="43.0602389999995" lon="-1.268203000000001">
        <ele>1180.247</ele>
        <time>2022-08-24T09:44:23Z</time>
      </trkpt>
      <trkpt lat="43.0602249999995" lon="-1.268201000000001">
        <ele>1180.427</ele>
        <time>2022-08-24T09:44:24Z</time>
      </trkpt>
      <trkpt lat="43.0602109999995" lon="-1.268198000000001">
        <ele>1180.473</ele>
        <time>2022-08-24T09:44:25Z</time>
      </trkpt>
      <trkpt lat="43.0601969999995" lon="-1.268192000000001">
        <ele>1180.645</ele>
        <time>2022-08-24T09:44:26Z</time>
      </trkpt>
      <trkpt lat="43.0601849999995" lon="-1.2681890000000011">
        <ele>1180.872</ele>
        <time>2022-08-24T09:44:27Z</time>
      </trkpt>
      <trkpt lat="43.0601669999995" lon="-1.2681890000000011">
        <ele>1181.065</ele>
        <time>2022-08-24T09:44:28Z</time>
      </trkpt>
      <trkpt lat="43.0601559999995" lon="-1.2681880000000012">
        <ele>1181.089</ele>
        <time>2022-08-24T09:44:29Z</time>
      </trkpt>
      <trkpt lat="43.060143999999504" lon="-1.2681810000000011">
        <ele>1181.268</ele>
        <time>2022-08-24T09:44:30Z</time>
      </trkpt>
      <trkpt lat="43.0601309999995" lon="-1.2681770000000012">
        <ele>1181.432</ele>
        <time>2022-08-24T09:44:31Z</time>
      </trkpt>
      <trkpt lat="43.0601169999995" lon="-1.2681750000000012">
        <ele>1181.492</ele>
        <time>2022-08-24T09:44:32Z</time>
      </trkpt>
      <trkpt lat="43.0601049999995" lon="-1.2681720000000012">
        <ele>1181.411</ele>
        <time>2022-08-24T09:44:33Z</time>
      </trkpt>
      <trkpt lat="43.0600919999995" lon="-1.2681710000000013">
        <ele>1181.409</ele>
        <time>2022-08-24T09:44:34Z</time>
      </trkpt>
      <trkpt lat="43.0600789999995" lon="-1.2681690000000012">
        <ele>1182.084</ele>
        <time>2022-08-24T09:44:35Z</time>
      </trkpt>
      <trkpt lat="43.0600649999995" lon="-1.2681700000000011">
        <ele>1182.264</ele>
        <time>2022-08-24T09:44:36Z</time>
      </trkpt>
      <trkpt lat="43.0600529999995" lon="-1.2681660000000012">
        <ele>1182.284</ele>
        <time>2022-08-24T09:44:37Z</time>
      </trkpt>
      <trkpt lat="43.0600409999995" lon="-1.2681600000000013">
        <ele>1182.490</ele>
        <time>2022-08-24T09:44:38Z</time>
      </trkpt>
      <trkpt lat="43.0600279999995" lon="-1.2681570000000013">
        <ele>1182.642</ele>
        <time>2022-08-24T09:44:39Z</time>
      </trkpt>
      <trkpt lat="43.0600139999995" lon="-1.2681540000000013">
        <ele>1182.639</ele>
        <time>2022-08-24T09:44:40Z</time>
      </trkpt>
      <trkpt lat="43.0599989999995" lon="-1.2681490000000013">
        <ele>1182.822</ele>
        <time>2022-08-24T09:44:41Z</time>
      </trkpt>
      <trkpt lat="43.0599839999995" lon="-1.2681450000000014">
        <ele>1182.896</ele>
        <time>2022-08-24T09:44:42Z</time>
      </trkpt>
      <trkpt lat="43.0599679999995" lon="-1.2681440000000015">
        <ele>1183.255</ele>
        <time>2022-08-24T09:44:43Z</time>
      </trkpt>
      <trkpt lat="43.0599539999995" lon="-1.2681400000000016">
        <ele>1183.285</ele>
        <time>2022-08-24T09:44:44Z</time>
      </trkpt>
      <trkpt lat="43.0599399999995" lon="-1.2681360000000017">
        <ele>1183.489</ele>
        <time>2022-08-24T09:44:45Z</time>
      </trkpt>
      <trkpt lat="43.0599259999995" lon="-1.2681340000000016">
        <ele>1183.617</ele>
        <time>2022-08-24T09:44:46Z</time>
      </trkpt>
      <trkpt lat="43.0599129999995" lon="-1.2681310000000017">
        <ele>1183.809</ele>
        <time>2022-08-24T09:44:47Z</time>
      </trkpt>
      <trkpt lat="43.0598989999995" lon="-1.2681270000000018">
        <ele>1184.069</ele>
        <time>2022-08-24T09:44:48Z</time>
      </trkpt>
      <trkpt lat="43.0598849999995" lon="-1.2681240000000018">
        <ele>1184.089</ele>
        <time>2022-08-24T09:44:49Z</time>
      </trkpt>
      <trkpt lat="43.0598709999995" lon="-1.2681190000000018">
        <ele>1184.219</ele>
        <time>2022-08-24T09:44:50Z</time>
      </trkpt>
      <trkpt lat="43.059857999999494" lon="-1.2681150000000019">
        <ele>1184.265</ele>
        <time>2022-08-24T09:44:51Z</time>
      </trkpt>
      <trkpt lat="43.05984499999949" lon="-1.268114000000002">
        <ele>1184.477</ele>
        <time>2022-08-24T09:44:52Z</time>
      </trkpt>
      <trkpt lat="43.05983099999949" lon="-1.268112000000002">
        <ele>1184.414</ele>
        <time>2022-08-24T09:44:53Z</time>
      </trkpt>
      <trkpt lat="43.05981799999949" lon="-1.2681050000000018">
        <ele>1184.897</ele>
        <time>2022-08-24T09:44:54Z</time>
      </trkpt>
      <trkpt lat="43.059804999999486" lon="-1.2680980000000017">
        <ele>1184.891</ele>
        <time>2022-08-24T09:44:55Z</time>
      </trkpt>
      <trkpt lat="43.05979499999948" lon="-1.2680880000000017">
        <ele>1185.060</ele>
        <time>2022-08-24T09:44:56Z</time>
      </trkpt>
      <trkpt lat="43.05978199999948" lon="-1.2680800000000017">
        <ele>1185.227</ele>
        <time>2022-08-24T09:44:57Z</time>
      </trkpt>
      <trkpt lat="43.05976799999948" lon="-1.2680740000000017">
        <ele>1185.268</ele>
        <time>2022-08-24T09:44:58Z</time>
      </trkpt>
      <trkpt lat="43.05975399999948" lon="-1.2680690000000017">
        <ele>1185.414</ele>
        <time>2022-08-24T09:44:59Z</time>
      </trkpt>
      <trkpt lat="43.05974099999948" lon="-1.2680610000000017">
        <ele>1185.409</ele>
        <time>2022-08-24T09:45:00Z</time>
      </trkpt>
      <trkpt lat="43.059727999999474" lon="-1.2680510000000016">
        <ele>1185.473</ele>
        <time>2022-08-24T09:45:01Z</time>
      </trkpt>
      <trkpt lat="43.05971499999947" lon="-1.2680410000000015">
        <ele>1185.613</ele>
        <time>2022-08-24T09:45:02Z</time>
      </trkpt>
      <trkpt lat="43.05970199999947" lon="-1.2680310000000015">
        <ele>1185.613</ele>
        <time>2022-08-24T09:45:03Z</time>
      </trkpt>
      <trkpt lat="43.05968799999947" lon="-1.2680210000000014">
        <ele>1185.819</ele>
        <time>2022-08-24T09:45:04Z</time>
      </trkpt>
      <trkpt lat="43.059674999999466" lon="-1.2680140000000013">
        <ele>1185.811</ele>
        <time>2022-08-24T09:45:05Z</time>
      </trkpt>
      <trkpt lat="43.059663999999465" lon="-1.2680030000000013">
        <ele>1186.278</ele>
        <time>2022-08-24T09:45:06Z</time>
      </trkpt>
      <trkpt lat="43.05965199999947" lon="-1.2679930000000013">
        <ele>1186.451</ele>
        <time>2022-08-24T09:45:07Z</time>
      </trkpt>
      <trkpt lat="43.05963999999947" lon="-1.2679850000000012">
        <ele>1186.475</ele>
        <time>2022-08-24T09:45:08Z</time>
      </trkpt>
      <trkpt lat="43.059626999999466" lon="-1.2679760000000013">
        <ele>1186.664</ele>
        <time>2022-08-24T09:45:09Z</time>
      </trkpt>
      <trkpt lat="43.059615999999465" lon="-1.2679650000000013">
        <ele>1186.411</ele>
        <time>2022-08-24T09:45:10Z</time>
      </trkpt>
      <trkpt lat="43.05960399999947" lon="-1.2679540000000014">
        <ele>1186.621</ele>
        <time>2022-08-24T09:45:11Z</time>
      </trkpt>
      <trkpt lat="43.059590999999465" lon="-1.2679420000000015">
        <ele>1186.603</ele>
        <time>2022-08-24T09:45:12Z</time>
      </trkpt>
      <trkpt lat="43.05958099999946" lon="-1.2679320000000014">
        <ele>1186.809</ele>
        <time>2022-08-24T09:45:13Z</time>
      </trkpt>
      <trkpt lat="43.05957099999946" lon="-1.2679230000000015">
        <ele>1187.072</ele>
        <time>2022-08-24T09:45:14Z</time>
      </trkpt>
      <trkpt lat="43.059560999999455" lon="-1.2679130000000014">
        <ele>1187.082</ele>
        <time>2022-08-24T09:45:15Z</time>
      </trkpt>
      <trkpt lat="43.059549999999454" lon="-1.2679040000000015">
        <ele>1187.222</ele>
        <time>2022-08-24T09:45:16Z</time>
      </trkpt>
      <trkpt lat="43.05953999999945" lon="-1.2678950000000015">
        <ele>1187.428</ele>
        <time>2022-08-24T09:45:17Z</time>
      </trkpt>
      <trkpt lat="43.05952799999945" lon="-1.2678870000000015">
        <ele>1187.470</ele>
        <time>2022-08-24T09:45:18Z</time>
      </trkpt>
      <trkpt lat="43.059515999999455" lon="-1.2678780000000016">
        <ele>1187.657</ele>
        <time>2022-08-24T09:45:19Z</time>
      </trkpt>
      <trkpt lat="43.059504999999454" lon="-1.2678650000000016">
        <ele>1187.860</ele>
        <time>2022-08-24T09:45:20Z</time>
      </trkpt>
      <trkpt lat="43.05949199999945" lon="-1.2678540000000016">
        <ele>1188.054</ele>
        <time>2022-08-24T09:45:21Z</time>
      </trkpt>
      <trkpt lat="43.05947999999945" lon="-1.2678460000000016">
        <ele>1188.073</ele>
        <time>2022-08-24T09:45:22Z</time>
      </trkpt>
      <trkpt lat="43.059467999999455" lon="-1.2678360000000015">
        <ele>1188.037</ele>
        <time>2022-08-24T09:45:23Z</time>
      </trkpt>
      <trkpt lat="43.05945599999946" lon="-1.2678230000000015">
        <ele>1188.249</ele>
        <time>2022-08-24T09:45:24Z</time>
      </trkpt>
      <trkpt lat="43.05944099999946" lon="-1.2678120000000015">
        <ele>1188.413</ele>
        <time>2022-08-24T09:45:25Z</time>
      </trkpt>
      <trkpt lat="43.05942599999946" lon="-1.2678020000000014">
        <ele>1188.609</ele>
        <time>2022-08-24T09:45:26Z</time>
      </trkpt>
      <trkpt lat="43.05941299999946" lon="-1.2677900000000015">
        <ele>1188.684</ele>
        <time>2022-08-24T09:45:27Z</time>
      </trkpt>
      <trkpt lat="43.05939899999946" lon="-1.2677780000000016">
        <ele>1188.864</ele>
        <time>2022-08-24T09:45:28Z</time>
      </trkpt>
      <trkpt lat="43.05938399999946" lon="-1.2677660000000017">
        <ele>1188.884</ele>
        <time>2022-08-24T09:45:29Z</time>
      </trkpt>
      <trkpt lat="43.05937199999946" lon="-1.2677550000000017">
        <ele>1188.850</ele>
        <time>2022-08-24T09:45:30Z</time>
      </trkpt>
      <trkpt lat="43.05935899999946" lon="-1.2677430000000018">
        <ele>1189.042</ele>
        <time>2022-08-24T09:45:31Z</time>
      </trkpt>
      <trkpt lat="43.05934499999946" lon="-1.2677320000000019">
        <ele>1189.039</ele>
        <time>2022-08-24T09:45:32Z</time>
      </trkpt>
      <trkpt lat="43.05933299999946" lon="-1.2677240000000018">
        <ele>1189.222</ele>
        <time>2022-08-24T09:45:33Z</time>
      </trkpt>
      <trkpt lat="43.05931999999946" lon="-1.267715000000002">
        <ele>1189.416</ele>
        <time>2022-08-24T09:45:34Z</time>
      </trkpt>
      <trkpt lat="43.05930599999946" lon="-1.267704000000002">
        <ele>1189.615</ele>
        <time>2022-08-24T09:45:35Z</time>
      </trkpt>
      <trkpt lat="43.05929399999946" lon="-1.267695000000002">
        <ele>1189.884</ele>
        <time>2022-08-24T09:45:36Z</time>
      </trkpt>
      <trkpt lat="43.05928299999946" lon="-1.267686000000002">
        <ele>1190.007</ele>
        <time>2022-08-24T09:45:37Z</time>
      </trkpt>
      <trkpt lat="43.05926999999946" lon="-1.267676000000002">
        <ele>1190.217</ele>
        <time>2022-08-24T09:45:38Z</time>
      </trkpt>
      <trkpt lat="43.05925499999946" lon="-1.267663000000002">
        <ele>1190.209</ele>
        <time>2022-08-24T09:45:39Z</time>
      </trkpt>
      <trkpt lat="43.05924499999946" lon="-1.267653000000002">
        <ele>1190.429</ele>
        <time>2022-08-24T09:45:40Z</time>
      </trkpt>
      <trkpt lat="43.059225999999455" lon="-1.267642000000002">
        <ele>1190.439</ele>
        <time>2022-08-24T09:45:41Z</time>
      </trkpt>
      <trkpt lat="43.059208999999456" lon="-1.267633000000002">
        <ele>1190.479</ele>
        <time>2022-08-24T09:45:42Z</time>
      </trkpt>
      <trkpt lat="43.059194999999455" lon="-1.267626000000002">
        <ele>1190.485</ele>
        <time>2022-08-24T09:45:43Z</time>
      </trkpt>
      <trkpt lat="43.05917699999946" lon="-1.267614000000002">
        <ele>1190.427</ele>
        <time>2022-08-24T09:45:44Z</time>
      </trkpt>
      <trkpt lat="43.059160999999456" lon="-1.2676020000000021">
        <ele>1190.414</ele>
        <time>2022-08-24T09:45:45Z</time>
      </trkpt>
      <trkpt lat="43.05914899999946" lon="-1.267594000000002">
        <ele>1190.477</ele>
        <time>2022-08-24T09:45:46Z</time>
      </trkpt>
      <trkpt lat="43.05913499999946" lon="-1.2675850000000022">
        <ele>1190.281</ele>
        <time>2022-08-24T09:45:47Z</time>
      </trkpt>
      <trkpt lat="43.059118999999455" lon="-1.2675760000000023">
        <ele>1190.240</ele>
        <time>2022-08-24T09:45:48Z</time>
      </trkpt>
      <trkpt lat="43.05910399999946" lon="-1.2675670000000023">
        <ele>1190.225</ele>
        <time>2022-08-24T09:45:49Z</time>
      </trkpt>
      <trkpt lat="43.059084999999456" lon="-1.2675560000000023">
        <ele>1190.226</ele>
        <time>2022-08-24T09:45:50Z</time>
      </trkpt>
      <trkpt lat="43.059068999999454" lon="-1.2675490000000023">
        <ele>1190.208</ele>
        <time>2022-08-24T09:45:51Z</time>
      </trkpt>
      <trkpt lat="43.05905599999945" lon="-1.2675450000000024">
        <ele>1190.009</ele>
        <time>2022-08-24T09:45:52Z</time>
      </trkpt>
      <trkpt lat="43.05903599999945" lon="-1.2675380000000023">
        <ele>1190.043</ele>
        <time>2022-08-24T09:45:53Z</time>
      </trkpt>
      <trkpt lat="43.05898799999945" lon="-1.2675280000000022">
        <ele>1190.043</ele>
        <time>2022-08-24T09:45:56Z</time>
      </trkpt>
      <trkpt lat="43.05897399999945" lon="-1.2675250000000022">
        <ele>1190.063</ele>
        <time>2022-08-24T09:45:57Z</time>
      </trkpt>
      <trkpt lat="43.05895999999945" lon="-1.2675230000000022">
        <ele>1190.069</ele>
        <time>2022-08-24T09:45:58Z</time>
      </trkpt>
      <trkpt lat="43.058941999999455" lon="-1.2675190000000023">
        <ele>1189.881</ele>
        <time>2022-08-24T09:45:59Z</time>
      </trkpt>
      <trkpt lat="43.05892599999945" lon="-1.2675160000000023">
        <ele>1189.848</ele>
        <time>2022-08-24T09:46:00Z</time>
      </trkpt>
      <trkpt lat="43.05891299999945" lon="-1.2675130000000023">
        <ele>1189.871</ele>
        <time>2022-08-24T09:46:01Z</time>
      </trkpt>
      <trkpt lat="43.05889499999945" lon="-1.2675080000000023">
        <ele>1189.665</ele>
        <time>2022-08-24T09:46:02Z</time>
      </trkpt>
      <trkpt lat="43.058873999999456" lon="-1.2674880000000024">
        <ele>1189.824</ele>
        <time>2022-08-24T09:46:04Z</time>
      </trkpt>
      <trkpt lat="43.05885899999946" lon="-1.2674760000000025">
        <ele>1189.818</ele>
        <time>2022-08-24T09:46:05Z</time>
      </trkpt>
      <trkpt lat="43.058842999999456" lon="-1.2674680000000025">
        <ele>1190.098</ele>
        <time>2022-08-24T09:46:06Z</time>
      </trkpt>
      <trkpt lat="43.05880899999946" lon="-1.2674560000000026">
        <ele>1190.017</ele>
        <time>2022-08-24T09:46:08Z</time>
      </trkpt>
      <trkpt lat="43.05875199999946" lon="-1.2674190000000025">
        <ele>1190.009</ele>
        <time>2022-08-24T09:46:12Z</time>
      </trkpt>
      <trkpt lat="43.05871499999946" lon="-1.2673940000000026">
        <ele>1190.452</ele>
        <time>2022-08-24T09:46:15Z</time>
      </trkpt>
      <trkpt lat="43.05870399999946" lon="-1.2673820000000027">
        <ele>1190.422</ele>
        <time>2022-08-24T09:46:16Z</time>
      </trkpt>
      <trkpt lat="43.058676999999456" lon="-1.2673600000000027">
        <ele>1190.622</ele>
        <time>2022-08-24T09:46:18Z</time>
      </trkpt>
      <trkpt lat="43.05866699999945" lon="-1.2673520000000027">
        <ele>1190.628</ele>
        <time>2022-08-24T09:46:19Z</time>
      </trkpt>
      <trkpt lat="43.05864999999945" lon="-1.2673430000000028">
        <ele>1190.660</ele>
        <time>2022-08-24T09:46:20Z</time>
      </trkpt>
      <trkpt lat="43.05862499999945" lon="-1.2673280000000027">
        <ele>1190.857</ele>
        <time>2022-08-24T09:46:22Z</time>
      </trkpt>
      <trkpt lat="43.05861499999945" lon="-1.2673170000000027">
        <ele>1190.810</ele>
        <time>2022-08-24T09:46:23Z</time>
      </trkpt>
      <trkpt lat="43.05860399999945" lon="-1.2673060000000027">
        <ele>1190.884</ele>
        <time>2022-08-24T09:46:24Z</time>
      </trkpt>
      <trkpt lat="43.058576999999445" lon="-1.2672840000000027">
        <ele>1191.063</ele>
        <time>2022-08-24T09:46:26Z</time>
      </trkpt>
      <trkpt lat="43.05856399999944" lon="-1.2672770000000027">
        <ele>1191.243</ele>
        <time>2022-08-24T09:46:27Z</time>
      </trkpt>
      <trkpt lat="43.05855399999944" lon="-1.2672720000000026">
        <ele>1191.264</ele>
        <time>2022-08-24T09:46:28Z</time>
      </trkpt>
      <trkpt lat="43.05850399999944" lon="-1.2672480000000026">
        <ele>1191.610</ele>
        <time>2022-08-24T09:46:32Z</time>
      </trkpt>
      <trkpt lat="43.05841299999944" lon="-1.2671890000000026">
        <ele>1192.609</ele>
        <time>2022-08-24T09:46:39Z</time>
      </trkpt>
      <trkpt lat="43.05839899999944" lon="-1.2671820000000025">
        <ele>1192.645</ele>
        <time>2022-08-24T09:46:40Z</time>
      </trkpt>
      <trkpt lat="43.05838799999944" lon="-1.2671780000000026">
        <ele>1192.865</ele>
        <time>2022-08-24T09:46:41Z</time>
      </trkpt>
      <trkpt lat="43.05837599999944" lon="-1.2671740000000027">
        <ele>1193.075</ele>
        <time>2022-08-24T09:46:42Z</time>
      </trkpt>
      <trkpt lat="43.05836499999944" lon="-1.2671710000000027">
        <ele>1193.261</ele>
        <time>2022-08-24T09:46:43Z</time>
      </trkpt>
      <trkpt lat="43.05835499999944" lon="-1.2671660000000027">
        <ele>1193.663</ele>
        <time>2022-08-24T09:46:44Z</time>
      </trkpt>
      <trkpt lat="43.058341999999435" lon="-1.2671630000000027">
        <ele>1193.810</ele>
        <time>2022-08-24T09:46:45Z</time>
      </trkpt>
      <trkpt lat="43.058333999999434" lon="-1.2671610000000026">
        <ele>1194.083</ele>
        <time>2022-08-24T09:46:46Z</time>
      </trkpt>
      <trkpt lat="43.058321999999436" lon="-1.2671570000000028">
        <ele>1194.237</ele>
        <time>2022-08-24T09:46:47Z</time>
      </trkpt>
      <trkpt lat="43.058307999999435" lon="-1.2671530000000029">
        <ele>1194.426</ele>
        <time>2022-08-24T09:46:48Z</time>
      </trkpt>
      <trkpt lat="43.05829599999944" lon="-1.2671480000000028">
        <ele>1194.677</ele>
        <time>2022-08-24T09:46:49Z</time>
      </trkpt>
      <trkpt lat="43.05828699999944" lon="-1.2671450000000029">
        <ele>1194.861</ele>
        <time>2022-08-24T09:46:50Z</time>
      </trkpt>
      <trkpt lat="43.05827499999944" lon="-1.2671420000000029">
        <ele>1195.027</ele>
        <time>2022-08-24T09:46:51Z</time>
      </trkpt>
      <trkpt lat="43.05826099999944" lon="-1.267138000000003">
        <ele>1195.009</ele>
        <time>2022-08-24T09:46:52Z</time>
      </trkpt>
      <trkpt lat="43.05824799999944" lon="-1.267135000000003">
        <ele>1195.248</ele>
        <time>2022-08-24T09:46:53Z</time>
      </trkpt>
      <trkpt lat="43.05823699999944" lon="-1.267128000000003">
        <ele>1195.248</ele>
        <time>2022-08-24T09:46:54Z</time>
      </trkpt>
      <trkpt lat="43.058228999999436" lon="-1.2671230000000029">
        <ele>1195.498</ele>
        <time>2022-08-24T09:46:55Z</time>
      </trkpt>
      <trkpt lat="43.058212999999434" lon="-1.2671160000000028">
        <ele>1195.474</ele>
        <time>2022-08-24T09:46:56Z</time>
      </trkpt>
      <trkpt lat="43.05820299999943" lon="-1.267112000000003">
        <ele>1195.456</ele>
        <time>2022-08-24T09:46:57Z</time>
      </trkpt>
      <trkpt lat="43.05818799999943" lon="-1.267106000000003">
        <ele>1195.423</ele>
        <time>2022-08-24T09:46:58Z</time>
      </trkpt>
      <trkpt lat="43.05817999999943" lon="-1.267103000000003">
        <ele>1195.436</ele>
        <time>2022-08-24T09:46:59Z</time>
      </trkpt>
      <trkpt lat="43.05816899999943" lon="-1.267097000000003">
        <ele>1195.690</ele>
        <time>2022-08-24T09:47:00Z</time>
      </trkpt>
      <trkpt lat="43.05815699999943" lon="-1.267090000000003">
        <ele>1195.639</ele>
        <time>2022-08-24T09:47:01Z</time>
      </trkpt>
      <trkpt lat="43.05814599999943" lon="-1.2670830000000028">
        <ele>1195.841</ele>
        <time>2022-08-24T09:47:02Z</time>
      </trkpt>
      <trkpt lat="43.058133999999434" lon="-1.2670760000000028">
        <ele>1195.881</ele>
        <time>2022-08-24T09:47:03Z</time>
      </trkpt>
      <trkpt lat="43.05812599999943" lon="-1.2670710000000027">
        <ele>1195.809</ele>
        <time>2022-08-24T09:47:04Z</time>
      </trkpt>
      <trkpt lat="43.05811499999943" lon="-1.2670650000000028">
        <ele>1196.009</ele>
        <time>2022-08-24T09:47:05Z</time>
      </trkpt>
      <trkpt lat="43.05810399999943" lon="-1.2670570000000028">
        <ele>1196.075</ele>
        <time>2022-08-24T09:47:06Z</time>
      </trkpt>
      <trkpt lat="43.05809399999943" lon="-1.2670520000000027">
        <ele>1196.235</ele>
        <time>2022-08-24T09:47:07Z</time>
      </trkpt>
      <trkpt lat="43.05808299999943" lon="-1.2670480000000028">
        <ele>1196.465</ele>
        <time>2022-08-24T09:47:08Z</time>
      </trkpt>
      <trkpt lat="43.05807399999943" lon="-1.2670460000000028">
        <ele>1196.481</ele>
        <time>2022-08-24T09:47:09Z</time>
      </trkpt>
      <trkpt lat="43.05805799999943" lon="-1.2670410000000027">
        <ele>1196.623</ele>
        <time>2022-08-24T09:47:10Z</time>
      </trkpt>
      <trkpt lat="43.058047999999424" lon="-1.2670390000000027">
        <ele>1196.860</ele>
        <time>2022-08-24T09:47:11Z</time>
      </trkpt>
      <trkpt lat="43.05803199999942" lon="-1.2670350000000028">
        <ele>1196.823</ele>
        <time>2022-08-24T09:47:12Z</time>
      </trkpt>
      <trkpt lat="43.05802199999942" lon="-1.267031000000003">
        <ele>1197.037</ele>
        <time>2022-08-24T09:47:13Z</time>
      </trkpt>
      <trkpt lat="43.058008999999416" lon="-1.2670260000000029">
        <ele>1197.096</ele>
        <time>2022-08-24T09:47:14Z</time>
      </trkpt>
      <trkpt lat="43.057991999999416" lon="-1.2670210000000028">
        <ele>1197.037</ele>
        <time>2022-08-24T09:47:15Z</time>
      </trkpt>
      <trkpt lat="43.05797999999942" lon="-1.2670190000000028">
        <ele>1197.249</ele>
        <time>2022-08-24T09:47:16Z</time>
      </trkpt>
      <trkpt lat="43.05796499999942" lon="-1.2670140000000027">
        <ele>1197.413</ele>
        <time>2022-08-24T09:47:17Z</time>
      </trkpt>
      <trkpt lat="43.05795099999942" lon="-1.2670080000000028">
        <ele>1197.409</ele>
        <time>2022-08-24T09:47:18Z</time>
      </trkpt>
      <trkpt lat="43.05793699999942" lon="-1.2670010000000027">
        <ele>1197.654</ele>
        <time>2022-08-24T09:47:19Z</time>
      </trkpt>
      <trkpt lat="43.05792199999942" lon="-1.2669940000000026">
        <ele>1197.864</ele>
        <time>2022-08-24T09:47:20Z</time>
      </trkpt>
      <trkpt lat="43.057909999999424" lon="-1.2669870000000025">
        <ele>1197.834</ele>
        <time>2022-08-24T09:47:21Z</time>
      </trkpt>
      <trkpt lat="43.05789899999942" lon="-1.2669800000000024">
        <ele>1197.840</ele>
        <time>2022-08-24T09:47:22Z</time>
      </trkpt>
      <trkpt lat="43.05788499999942" lon="-1.2669760000000025">
        <ele>1197.842</ele>
        <time>2022-08-24T09:47:23Z</time>
      </trkpt>
      <trkpt lat="43.05787199999942" lon="-1.2669710000000025">
        <ele>1198.079</ele>
        <time>2022-08-24T09:47:24Z</time>
      </trkpt>
      <trkpt lat="43.05785999999942" lon="-1.2669640000000024">
        <ele>1198.032</ele>
        <time>2022-08-24T09:47:25Z</time>
      </trkpt>
      <trkpt lat="43.05784399999942" lon="-1.2669540000000024">
        <ele>1198.086</ele>
        <time>2022-08-24T09:47:26Z</time>
      </trkpt>
      <trkpt lat="43.05783299999942" lon="-1.2669470000000023">
        <ele>1198.235</ele>
        <time>2022-08-24T09:47:27Z</time>
      </trkpt>
      <trkpt lat="43.05781799999942" lon="-1.2669410000000023">
        <ele>1198.247</ele>
        <time>2022-08-24T09:47:28Z</time>
      </trkpt>
      <trkpt lat="43.05780399999942" lon="-1.2669350000000024">
        <ele>1198.429</ele>
        <time>2022-08-24T09:47:29Z</time>
      </trkpt>
      <trkpt lat="43.05778999999942" lon="-1.2669290000000024">
        <ele>1198.421</ele>
        <time>2022-08-24T09:47:30Z</time>
      </trkpt>
      <trkpt lat="43.05775099999942" lon="-1.2669090000000025">
        <ele>1199.009</ele>
        <time>2022-08-24T09:47:33Z</time>
      </trkpt>
      <trkpt lat="43.05773799999942" lon="-1.2669020000000024">
        <ele>1199.465</ele>
        <time>2022-08-24T09:47:34Z</time>
      </trkpt>
      <trkpt lat="43.05772599999942" lon="-1.2668920000000023">
        <ele>1199.485</ele>
        <time>2022-08-24T09:47:35Z</time>
      </trkpt>
      <trkpt lat="43.05771399999942" lon="-1.2668800000000024">
        <ele>1199.645</ele>
        <time>2022-08-24T09:47:36Z</time>
      </trkpt>
      <trkpt lat="43.05770199999942" lon="-1.2668710000000025">
        <ele>1199.671</ele>
        <time>2022-08-24T09:47:37Z</time>
      </trkpt>
      <trkpt lat="43.057686999999426" lon="-1.2668630000000025">
        <ele>1199.633</ele>
        <time>2022-08-24T09:47:38Z</time>
      </trkpt>
      <trkpt lat="43.05767499999943" lon="-1.2668560000000024">
        <ele>1199.890</ele>
        <time>2022-08-24T09:47:39Z</time>
      </trkpt>
      <trkpt lat="43.057664999999425" lon="-1.2668510000000024">
        <ele>1199.833</ele>
        <time>2022-08-24T09:47:40Z</time>
      </trkpt>
      <trkpt lat="43.057652999999426" lon="-1.2668440000000023">
        <ele>1200.077</ele>
        <time>2022-08-24T09:47:41Z</time>
      </trkpt>
      <trkpt lat="43.05764099999943" lon="-1.2668390000000023">
        <ele>1200.246</ele>
        <time>2022-08-24T09:47:42Z</time>
      </trkpt>
      <trkpt lat="43.05762899999943" lon="-1.2668310000000023">
        <ele>1200.243</ele>
        <time>2022-08-24T09:47:43Z</time>
      </trkpt>
      <trkpt lat="43.05761599999943" lon="-1.2668250000000023">
        <ele>1200.464</ele>
        <time>2022-08-24T09:47:44Z</time>
      </trkpt>
      <trkpt lat="43.05760399999943" lon="-1.2668200000000023">
        <ele>1200.410</ele>
        <time>2022-08-24T09:47:45Z</time>
      </trkpt>
      <trkpt lat="43.05758999999943" lon="-1.2668180000000022">
        <ele>1200.609</ele>
        <time>2022-08-24T09:47:46Z</time>
      </trkpt>
      <trkpt lat="43.05757699999943" lon="-1.2668130000000022">
        <ele>1200.625</ele>
        <time>2022-08-24T09:47:47Z</time>
      </trkpt>
      <trkpt lat="43.05756699999942" lon="-1.266806000000002">
        <ele>1200.695</ele>
        <time>2022-08-24T09:47:48Z</time>
      </trkpt>
      <trkpt lat="43.05755599999942" lon="-1.266796000000002">
        <ele>1200.645</ele>
        <time>2022-08-24T09:47:49Z</time>
      </trkpt>
      <trkpt lat="43.05754499999942" lon="-1.266786000000002">
        <ele>1200.841</ele>
        <time>2022-08-24T09:47:50Z</time>
      </trkpt>
      <trkpt lat="43.05753399999942" lon="-1.266776000000002">
        <ele>1201.043</ele>
        <time>2022-08-24T09:47:51Z</time>
      </trkpt>
      <trkpt lat="43.05752299999942" lon="-1.266767000000002">
        <ele>1201.050</ele>
        <time>2022-08-24T09:47:52Z</time>
      </trkpt>
      <trkpt lat="43.05751199999942" lon="-1.266761000000002">
        <ele>1201.413</ele>
        <time>2022-08-24T09:47:53Z</time>
      </trkpt>
      <trkpt lat="43.05749799999942" lon="-1.266758000000002">
        <ele>1201.667</ele>
        <time>2022-08-24T09:47:54Z</time>
      </trkpt>
      <trkpt lat="43.05748899999942" lon="-1.2667570000000021">
        <ele>1201.856</ele>
        <time>2022-08-24T09:47:55Z</time>
      </trkpt>
      <trkpt lat="43.05747799999942" lon="-1.2667530000000022">
        <ele>1201.829</ele>
        <time>2022-08-24T09:47:56Z</time>
      </trkpt>
      <trkpt lat="43.05746699999942" lon="-1.2667470000000023">
        <ele>1202.000</ele>
        <time>2022-08-24T09:47:57Z</time>
      </trkpt>
      <trkpt lat="43.05745299999942" lon="-1.2667400000000022">
        <ele>1202.220</ele>
        <time>2022-08-24T09:47:58Z</time>
      </trkpt>
      <trkpt lat="43.05744299999942" lon="-1.2667320000000022">
        <ele>1202.209</ele>
        <time>2022-08-24T09:47:59Z</time>
      </trkpt>
      <trkpt lat="43.057434999999415" lon="-1.2667260000000022">
        <ele>1202.453</ele>
        <time>2022-08-24T09:48:00Z</time>
      </trkpt>
      <trkpt lat="43.05742599999942" lon="-1.2667200000000023">
        <ele>1202.483</ele>
        <time>2022-08-24T09:48:01Z</time>
      </trkpt>
      <trkpt lat="43.057414999999416" lon="-1.2667160000000024">
        <ele>1202.693</ele>
        <time>2022-08-24T09:48:02Z</time>
      </trkpt>
      <trkpt lat="43.05740499999941" lon="-1.2667110000000024">
        <ele>1202.659</ele>
        <time>2022-08-24T09:48:03Z</time>
      </trkpt>
      <trkpt lat="43.05739399999941" lon="-1.2667050000000024">
        <ele>1202.641</ele>
        <time>2022-08-24T09:48:04Z</time>
      </trkpt>
      <trkpt lat="43.05738399999941" lon="-1.2666980000000023">
        <ele>1202.868</ele>
        <time>2022-08-24T09:48:05Z</time>
      </trkpt>
      <trkpt lat="43.05737299999941" lon="-1.2666890000000024">
        <ele>1203.091</ele>
        <time>2022-08-24T09:48:06Z</time>
      </trkpt>
      <trkpt lat="43.05736199999941" lon="-1.2666810000000024">
        <ele>1203.055</ele>
        <time>2022-08-24T09:48:07Z</time>
      </trkpt>
      <trkpt lat="43.057351999999405" lon="-1.2666730000000024">
        <ele>1203.224</ele>
        <time>2022-08-24T09:48:08Z</time>
      </trkpt>
      <trkpt lat="43.0573419999994" lon="-1.2666650000000024">
        <ele>1203.227</ele>
        <time>2022-08-24T09:48:09Z</time>
      </trkpt>
      <trkpt lat="43.0573329999994" lon="-1.2666570000000024">
        <ele>1203.268</ele>
        <time>2022-08-24T09:48:10Z</time>
      </trkpt>
      <trkpt lat="43.057323999999404" lon="-1.2666490000000024">
        <ele>1203.414</ele>
        <time>2022-08-24T09:48:11Z</time>
      </trkpt>
      <trkpt lat="43.05731699999941" lon="-1.2666430000000024">
        <ele>1203.609</ele>
        <time>2022-08-24T09:48:12Z</time>
      </trkpt>
      <trkpt lat="43.05730599999941" lon="-1.2666350000000024">
        <ele>1203.623</ele>
        <time>2022-08-24T09:48:13Z</time>
      </trkpt>
      <trkpt lat="43.05729499999941" lon="-1.2666300000000024">
        <ele>1203.873</ele>
        <time>2022-08-24T09:48:14Z</time>
      </trkpt>
      <trkpt lat="43.05728799999941" lon="-1.2666240000000024">
        <ele>1204.083</ele>
        <time>2022-08-24T09:48:15Z</time>
      </trkpt>
      <trkpt lat="43.05728099999941" lon="-1.2666170000000023">
        <ele>1204.269</ele>
        <time>2022-08-24T09:48:16Z</time>
      </trkpt>
      <trkpt lat="43.05727099999941" lon="-1.2666060000000023">
        <ele>1204.461</ele>
        <time>2022-08-24T09:48:17Z</time>
      </trkpt>
      <trkpt lat="43.05726199999941" lon="-1.2665980000000023">
        <ele>1204.628</ele>
        <time>2022-08-24T09:48:18Z</time>
      </trkpt>
      <trkpt lat="43.057254999999415" lon="-1.2665900000000023">
        <ele>1204.851</ele>
        <time>2022-08-24T09:48:19Z</time>
      </trkpt>
      <trkpt lat="43.05724199999941" lon="-1.2665840000000024">
        <ele>1204.825</ele>
        <time>2022-08-24T09:48:20Z</time>
      </trkpt>
      <trkpt lat="43.05722799999941" lon="-1.2665770000000023">
        <ele>1205.284</ele>
        <time>2022-08-24T09:48:21Z</time>
      </trkpt>
      <trkpt lat="43.05721799999941" lon="-1.2665720000000023">
        <ele>1205.236</ele>
        <time>2022-08-24T09:48:22Z</time>
      </trkpt>
      <trkpt lat="43.05720599999941" lon="-1.2665670000000022">
        <ele>1205.617</ele>
        <time>2022-08-24T09:48:23Z</time>
      </trkpt>
      <trkpt lat="43.05719199999941" lon="-1.2665610000000023">
        <ele>1206.018</ele>
        <time>2022-08-24T09:48:24Z</time>
      </trkpt>
      <trkpt lat="43.05717799999941" lon="-1.2665520000000023">
        <ele>1206.209</ele>
        <time>2022-08-24T09:48:25Z</time>
      </trkpt>
      <trkpt lat="43.05716499999941" lon="-1.2665430000000024">
        <ele>1206.634</ele>
        <time>2022-08-24T09:48:26Z</time>
      </trkpt>
      <trkpt lat="43.057154999999405" lon="-1.2665380000000024">
        <ele>1206.664</ele>
        <time>2022-08-24T09:48:27Z</time>
      </trkpt>
      <trkpt lat="43.05714299999941" lon="-1.2665310000000023">
        <ele>1206.834</ele>
        <time>2022-08-24T09:48:28Z</time>
      </trkpt>
      <trkpt lat="43.05712899999941" lon="-1.2665250000000023">
        <ele>1206.820</ele>
        <time>2022-08-24T09:48:29Z</time>
      </trkpt>
      <trkpt lat="43.057120999999405" lon="-1.2665220000000024">
        <ele>1207.092</ele>
        <time>2022-08-24T09:48:30Z</time>
      </trkpt>
      <trkpt lat="43.05710899999941" lon="-1.2665130000000024">
        <ele>1207.079</ele>
        <time>2022-08-24T09:48:31Z</time>
      </trkpt>
      <trkpt lat="43.05709999999941" lon="-1.2665080000000024">
        <ele>1207.242</ele>
        <time>2022-08-24T09:48:32Z</time>
      </trkpt>
      <trkpt lat="43.05708899999941" lon="-1.2665020000000025">
        <ele>1207.416</ele>
        <time>2022-08-24T09:48:33Z</time>
      </trkpt>
      <trkpt lat="43.05707399999941" lon="-1.2664940000000025">
        <ele>1207.485</ele>
        <time>2022-08-24T09:48:34Z</time>
      </trkpt>
      <trkpt lat="43.05706399999941" lon="-1.2664900000000026">
        <ele>1207.474</ele>
        <time>2022-08-24T09:48:35Z</time>
      </trkpt>
      <trkpt lat="43.05705199999941" lon="-1.2664860000000027">
        <ele>1207.456</ele>
        <time>2022-08-24T09:48:36Z</time>
      </trkpt>
      <trkpt lat="43.05703999999941" lon="-1.2664830000000027">
        <ele>1207.621</ele>
        <time>2022-08-24T09:48:37Z</time>
      </trkpt>
      <trkpt lat="43.05702799999941" lon="-1.2664760000000026">
        <ele>1207.809</ele>
        <time>2022-08-24T09:48:38Z</time>
      </trkpt>
      <trkpt lat="43.057018999999414" lon="-1.2664720000000027">
        <ele>1208.018</ele>
        <time>2022-08-24T09:48:39Z</time>
      </trkpt>
      <trkpt lat="43.05700399999942" lon="-1.2664680000000028">
        <ele>1208.068</ele>
        <time>2022-08-24T09:48:40Z</time>
      </trkpt>
      <trkpt lat="43.05699399999941" lon="-1.266467000000003">
        <ele>1208.068</ele>
        <time>2022-08-24T09:48:41Z</time>
      </trkpt>
      <trkpt lat="43.056981999999415" lon="-1.2664680000000028">
        <ele>1208.034</ele>
        <time>2022-08-24T09:48:42Z</time>
      </trkpt>
      <trkpt lat="43.05696699999942" lon="-1.2664680000000028">
        <ele>1208.026</ele>
        <time>2022-08-24T09:48:43Z</time>
      </trkpt>
      <trkpt lat="43.05695599999942" lon="-1.266467000000003">
        <ele>1208.283</ele>
        <time>2022-08-24T09:48:44Z</time>
      </trkpt>
      <trkpt lat="43.056942999999414" lon="-1.266463000000003">
        <ele>1208.266</ele>
        <time>2022-08-24T09:48:45Z</time>
      </trkpt>
      <trkpt lat="43.05692999999941" lon="-1.266456000000003">
        <ele>1208.470</ele>
        <time>2022-08-24T09:48:46Z</time>
      </trkpt>
      <trkpt lat="43.05691799999941" lon="-1.266450000000003">
        <ele>1208.429</ele>
        <time>2022-08-24T09:48:47Z</time>
      </trkpt>
      <trkpt lat="43.056905999999415" lon="-1.266448000000003">
        <ele>1208.673</ele>
        <time>2022-08-24T09:48:48Z</time>
      </trkpt>
      <trkpt lat="43.05689299999941" lon="-1.266447000000003">
        <ele>1208.885</ele>
        <time>2022-08-24T09:48:49Z</time>
      </trkpt>
      <trkpt lat="43.05687999999941" lon="-1.266446000000003">
        <ele>1209.013</ele>
        <time>2022-08-24T09:48:50Z</time>
      </trkpt>
      <trkpt lat="43.05687099999941" lon="-1.266447000000003">
        <ele>1209.209</ele>
        <time>2022-08-24T09:48:51Z</time>
      </trkpt>
      <trkpt lat="43.05685899999941" lon="-1.266449000000003">
        <ele>1209.418</ele>
        <time>2022-08-24T09:48:52Z</time>
      </trkpt>
      <trkpt lat="43.056846999999415" lon="-1.2664480000000031">
        <ele>1209.498</ele>
        <time>2022-08-24T09:48:53Z</time>
      </trkpt>
      <trkpt lat="43.05683099999941" lon="-1.266443000000003">
        <ele>1210.088</ele>
        <time>2022-08-24T09:48:54Z</time>
      </trkpt>
      <trkpt lat="43.05681999999941" lon="-1.2664400000000031">
        <ele>1210.264</ele>
        <time>2022-08-24T09:48:55Z</time>
      </trkpt>
      <trkpt lat="43.05680699999941" lon="-1.2664370000000031">
        <ele>1210.486</ele>
        <time>2022-08-24T09:48:56Z</time>
      </trkpt>
      <trkpt lat="43.05679399999941" lon="-1.266432000000003">
        <ele>1210.433</ele>
        <time>2022-08-24T09:48:57Z</time>
      </trkpt>
      <trkpt lat="43.0567839999994" lon="-1.2664290000000031">
        <ele>1210.616</ele>
        <time>2022-08-24T09:48:58Z</time>
      </trkpt>
      <trkpt lat="43.0567709999994" lon="-1.2664230000000032">
        <ele>1210.630</ele>
        <time>2022-08-24T09:48:59Z</time>
      </trkpt>
      <trkpt lat="43.0567609999994" lon="-1.2664200000000032">
        <ele>1210.689</ele>
        <time>2022-08-24T09:49:00Z</time>
      </trkpt>
      <trkpt lat="43.0567499999994" lon="-1.2664160000000033">
        <ele>1210.812</ele>
        <time>2022-08-24T09:49:01Z</time>
      </trkpt>
      <trkpt lat="43.0567359999994" lon="-1.2664130000000033">
        <ele>1210.832</ele>
        <time>2022-08-24T09:49:02Z</time>
      </trkpt>
      <trkpt lat="43.0567239999994" lon="-1.2664110000000033">
        <ele>1211.005</ele>
        <time>2022-08-24T09:49:03Z</time>
      </trkpt>
      <trkpt lat="43.056713999999396" lon="-1.2664060000000033">
        <ele>1211.209</ele>
        <time>2022-08-24T09:49:04Z</time>
      </trkpt>
      <trkpt lat="43.056699999999395" lon="-1.2664010000000032">
        <ele>1211.472</ele>
        <time>2022-08-24T09:49:05Z</time>
      </trkpt>
      <trkpt lat="43.056685999999395" lon="-1.2663940000000031">
        <ele>1211.692</ele>
        <time>2022-08-24T09:49:06Z</time>
      </trkpt>
      <trkpt lat="43.05667299999939" lon="-1.266387000000003">
        <ele>1211.612</ele>
        <time>2022-08-24T09:49:07Z</time>
      </trkpt>
      <trkpt lat="43.056660999999394" lon="-1.266374000000003">
        <ele>1211.818</ele>
        <time>2022-08-24T09:49:08Z</time>
      </trkpt>
      <trkpt lat="43.05665099999939" lon="-1.266360000000003">
        <ele>1212.020</ele>
        <time>2022-08-24T09:49:09Z</time>
      </trkpt>
      <trkpt lat="43.056643999999395" lon="-1.266352000000003">
        <ele>1212.087</ele>
        <time>2022-08-24T09:49:10Z</time>
      </trkpt>
      <trkpt lat="43.056632999999394" lon="-1.266343000000003">
        <ele>1212.280</ele>
        <time>2022-08-24T09:49:11Z</time>
      </trkpt>
      <trkpt lat="43.056620999999396" lon="-1.2663370000000032">
        <ele>1212.224</ele>
        <time>2022-08-24T09:49:12Z</time>
      </trkpt>
      <trkpt lat="43.056612999999395" lon="-1.2663340000000032">
        <ele>1212.443</ele>
        <time>2022-08-24T09:49:13Z</time>
      </trkpt>
      <trkpt lat="43.056601999999394" lon="-1.266327000000003">
        <ele>1212.642</ele>
        <time>2022-08-24T09:49:14Z</time>
      </trkpt>
      <trkpt lat="43.05658899999939" lon="-1.266320000000003">
        <ele>1212.822</ele>
        <time>2022-08-24T09:49:15Z</time>
      </trkpt>
      <trkpt lat="43.05657599999939" lon="-1.266312000000003">
        <ele>1213.014</ele>
        <time>2022-08-24T09:49:16Z</time>
      </trkpt>
      <trkpt lat="43.05656499999939" lon="-1.266310000000003">
        <ele>1213.209</ele>
        <time>2022-08-24T09:49:17Z</time>
      </trkpt>
      <trkpt lat="43.05655299999939" lon="-1.266306000000003">
        <ele>1213.235</ele>
        <time>2022-08-24T09:49:18Z</time>
      </trkpt>
      <trkpt lat="43.05654499999939" lon="-1.266301000000003">
        <ele>1213.235</ele>
        <time>2022-08-24T09:49:19Z</time>
      </trkpt>
      <trkpt lat="43.05653099999939" lon="-1.266293000000003">
        <ele>1213.445</ele>
        <time>2022-08-24T09:49:20Z</time>
      </trkpt>
      <trkpt lat="43.056520999999385" lon="-1.266286000000003">
        <ele>1213.411</ele>
        <time>2022-08-24T09:49:21Z</time>
      </trkpt>
      <trkpt lat="43.056509999999385" lon="-1.2662810000000029">
        <ele>1213.693</ele>
        <time>2022-08-24T09:49:22Z</time>
      </trkpt>
      <trkpt lat="43.056501999999384" lon="-1.266278000000003">
        <ele>1213.870</ele>
        <time>2022-08-24T09:49:23Z</time>
      </trkpt>
      <trkpt lat="43.05649099999938" lon="-1.266272000000003">
        <ele>1214.053</ele>
        <time>2022-08-24T09:49:24Z</time>
      </trkpt>
      <trkpt lat="43.05647999999938" lon="-1.266264000000003">
        <ele>1214.467</ele>
        <time>2022-08-24T09:49:25Z</time>
      </trkpt>
      <trkpt lat="43.05646699999938" lon="-1.266259000000003">
        <ele>1214.696</ele>
        <time>2022-08-24T09:49:26Z</time>
      </trkpt>
      <trkpt lat="43.05645299999938" lon="-1.266258000000003">
        <ele>1214.677</ele>
        <time>2022-08-24T09:49:27Z</time>
      </trkpt>
      <trkpt lat="43.05644199999938" lon="-1.266256000000003">
        <ele>1214.861</ele>
        <time>2022-08-24T09:49:28Z</time>
      </trkpt>
      <trkpt lat="43.05643399999938" lon="-1.266248000000003">
        <ele>1214.827</ele>
        <time>2022-08-24T09:49:29Z</time>
      </trkpt>
      <trkpt lat="43.056423999999375" lon="-1.2662410000000028">
        <ele>1215.009</ele>
        <time>2022-08-24T09:49:30Z</time>
      </trkpt>
      <trkpt lat="43.056411999999376" lon="-1.2662390000000028">
        <ele>1215.038</ele>
        <time>2022-08-24T09:49:31Z</time>
      </trkpt>
      <trkpt lat="43.05640299999938" lon="-1.2662380000000029">
        <ele>1215.288</ele>
        <time>2022-08-24T09:49:32Z</time>
      </trkpt>
      <trkpt lat="43.05639499999938" lon="-1.2662390000000028">
        <ele>1215.218</ele>
        <time>2022-08-24T09:49:33Z</time>
      </trkpt>
      <trkpt lat="43.05637999999938" lon="-1.2662430000000027">
        <ele>1215.474</ele>
        <time>2022-08-24T09:49:34Z</time>
      </trkpt>
      <trkpt lat="43.05636899999938" lon="-1.2662450000000027">
        <ele>1215.486</ele>
        <time>2022-08-24T09:49:35Z</time>
      </trkpt>
      <trkpt lat="43.05635699999938" lon="-1.2662420000000028">
        <ele>1215.463</ele>
        <time>2022-08-24T09:49:36Z</time>
      </trkpt>
      <trkpt lat="43.05635099999938" lon="-1.2662350000000027">
        <ele>1215.616</ele>
        <time>2022-08-24T09:49:37Z</time>
      </trkpt>
      <trkpt lat="43.05634299999938" lon="-1.2662250000000026">
        <ele>1215.820</ele>
        <time>2022-08-24T09:49:38Z</time>
      </trkpt>
      <trkpt lat="43.05633099999938" lon="-1.2662190000000026">
        <ele>1216.049</ele>
        <time>2022-08-24T09:49:39Z</time>
      </trkpt>
      <trkpt lat="43.056318999999384" lon="-1.2662200000000026">
        <ele>1216.072</ele>
        <time>2022-08-24T09:49:40Z</time>
      </trkpt>
      <trkpt lat="43.05630899999938" lon="-1.2662280000000026">
        <ele>1216.213</ele>
        <time>2022-08-24T09:49:41Z</time>
      </trkpt>
      <trkpt lat="43.05629899999938" lon="-1.2662400000000025">
        <ele>1216.414</ele>
        <time>2022-08-24T09:49:42Z</time>
      </trkpt>
      <trkpt lat="43.05628699999938" lon="-1.2662430000000024">
        <ele>1216.609</ele>
        <time>2022-08-24T09:49:43Z</time>
      </trkpt>
      <trkpt lat="43.05627499999938" lon="-1.2662410000000024">
        <ele>1216.858</ele>
        <time>2022-08-24T09:49:44Z</time>
      </trkpt>
      <trkpt lat="43.056253999999385" lon="-1.2662350000000024">
        <ele>1216.868</ele>
        <time>2022-08-24T09:49:45Z</time>
      </trkpt>
      <trkpt lat="43.056239999999384" lon="-1.2662310000000025">
        <ele>1217.248</ele>
        <time>2022-08-24T09:49:46Z</time>
      </trkpt>
      <trkpt lat="43.05622199999939" lon="-1.2662270000000027">
        <ele>1217.634</ele>
        <time>2022-08-24T09:49:47Z</time>
      </trkpt>
      <trkpt lat="43.05620499999939" lon="-1.2662240000000027">
        <ele>1217.876</ele>
        <time>2022-08-24T09:49:48Z</time>
      </trkpt>
      <trkpt lat="43.056188999999385" lon="-1.2662200000000028">
        <ele>1218.243</ele>
        <time>2022-08-24T09:49:49Z</time>
      </trkpt>
      <trkpt lat="43.05617299999938" lon="-1.2662170000000028">
        <ele>1218.296</ele>
        <time>2022-08-24T09:49:50Z</time>
      </trkpt>
      <trkpt lat="43.056157999999385" lon="-1.2662150000000028">
        <ele>1218.630</ele>
        <time>2022-08-24T09:49:51Z</time>
      </trkpt>
      <trkpt lat="43.05614299999939" lon="-1.2662130000000027">
        <ele>1218.689</ele>
        <time>2022-08-24T09:49:52Z</time>
      </trkpt>
      <trkpt lat="43.05612899999939" lon="-1.2662120000000028">
        <ele>1219.086</ele>
        <time>2022-08-24T09:49:53Z</time>
      </trkpt>
      <trkpt lat="43.05611499999939" lon="-1.2662070000000027">
        <ele>1219.460</ele>
        <time>2022-08-24T09:49:54Z</time>
      </trkpt>
      <trkpt lat="43.056104999999384" lon="-1.2661990000000027">
        <ele>1219.626</ele>
        <time>2022-08-24T09:49:55Z</time>
      </trkpt>
      <trkpt lat="43.056095999999386" lon="-1.2661910000000027">
        <ele>1219.809</ele>
        <time>2022-08-24T09:49:56Z</time>
      </trkpt>
      <trkpt lat="43.05607999999938" lon="-1.2661810000000027">
        <ele>1220.069</ele>
        <time>2022-08-24T09:49:57Z</time>
      </trkpt>
      <trkpt lat="43.05606699999938" lon="-1.2661770000000028">
        <ele>1220.439</ele>
        <time>2022-08-24T09:49:58Z</time>
      </trkpt>
      <trkpt lat="43.05605199999938" lon="-1.2661760000000029">
        <ele>1220.299</ele>
        <time>2022-08-24T09:49:59Z</time>
      </trkpt>
      <trkpt lat="43.05604199999938" lon="-1.266175000000003">
        <ele>1220.675</ele>
        <time>2022-08-24T09:50:00Z</time>
      </trkpt>
      <trkpt lat="43.05602999999938" lon="-1.266172000000003">
        <ele>1220.857</ele>
        <time>2022-08-24T09:50:01Z</time>
      </trkpt>
      <trkpt lat="43.05601899999938" lon="-1.2661650000000029">
        <ele>1221.054</ele>
        <time>2022-08-24T09:50:02Z</time>
      </trkpt>
      <trkpt lat="43.05600699999938" lon="-1.2661570000000029">
        <ele>1221.227</ele>
        <time>2022-08-24T09:50:03Z</time>
      </trkpt>
      <trkpt lat="43.05599599999938" lon="-1.2661500000000028">
        <ele>1221.291</ele>
        <time>2022-08-24T09:50:04Z</time>
      </trkpt>
      <trkpt lat="43.055986999999384" lon="-1.2661460000000029">
        <ele>1221.660</ele>
        <time>2022-08-24T09:50:05Z</time>
      </trkpt>
      <trkpt lat="43.05596799999938" lon="-1.2661390000000028">
        <ele>1221.866</ele>
        <time>2022-08-24T09:50:06Z</time>
      </trkpt>
      <trkpt lat="43.05595499999938" lon="-1.2661330000000028">
        <ele>1222.029</ele>
        <time>2022-08-24T09:50:07Z</time>
      </trkpt>
      <trkpt lat="43.05594999999938" lon="-1.2661260000000027">
        <ele>1222.021</ele>
        <time>2022-08-24T09:50:08Z</time>
      </trkpt>
      <trkpt lat="43.05594699999938" lon="-1.2661210000000027">
        <ele>1222.409</ele>
        <time>2022-08-24T09:50:10Z</time>
      </trkpt>
      <trkpt lat="43.05594399999938" lon="-1.2661110000000027">
        <ele>1222.487</ele>
        <time>2022-08-24T09:50:11Z</time>
      </trkpt>
      <trkpt lat="43.055944999999376" lon="-1.2660970000000027">
        <ele>1222.487</ele>
        <time>2022-08-24T09:50:12Z</time>
      </trkpt>
      <trkpt lat="43.055941999999376" lon="-1.2660770000000028">
        <ele>1222.687</ele>
        <time>2022-08-24T09:50:13Z</time>
      </trkpt>
      <trkpt lat="43.055936999999375" lon="-1.2660630000000028">
        <ele>1222.653</ele>
        <time>2022-08-24T09:50:14Z</time>
      </trkpt>
      <trkpt lat="43.055928999999374" lon="-1.2660450000000028">
        <ele>1222.835</ele>
        <time>2022-08-24T09:50:15Z</time>
      </trkpt>
      <trkpt lat="43.05591899999937" lon="-1.2660210000000027">
        <ele>1222.892</ele>
        <time>2022-08-24T09:50:16Z</time>
      </trkpt>
      <trkpt lat="43.05590899999937" lon="-1.2660010000000028">
        <ele>1222.885</ele>
        <time>2022-08-24T09:50:17Z</time>
      </trkpt>
      <trkpt lat="43.055898999999364" lon="-1.265989000000003">
        <ele>1222.849</ele>
        <time>2022-08-24T09:50:18Z</time>
      </trkpt>
      <trkpt lat="43.05589199999937" lon="-1.265985000000003">
        <ele>1222.648</ele>
        <time>2022-08-24T09:50:19Z</time>
      </trkpt>
      <trkpt lat="43.05588299999937" lon="-1.265979000000003">
        <ele>1222.635</ele>
        <time>2022-08-24T09:50:20Z</time>
      </trkpt>
      <trkpt lat="43.05587099999937" lon="-1.2659730000000031">
        <ele>1222.686</ele>
        <time>2022-08-24T09:50:21Z</time>
      </trkpt>
      <trkpt lat="43.05586099999937" lon="-1.2659700000000031">
        <ele>1222.614</ele>
        <time>2022-08-24T09:50:22Z</time>
      </trkpt>
      <trkpt lat="43.055847999999365" lon="-1.2659670000000032">
        <ele>1222.609</ele>
        <time>2022-08-24T09:50:23Z</time>
      </trkpt>
      <trkpt lat="43.055833999999365" lon="-1.2659630000000033">
        <ele>1222.684</ele>
        <time>2022-08-24T09:50:24Z</time>
      </trkpt>
      <trkpt lat="43.05582199999937" lon="-1.2659550000000033">
        <ele>1222.664</ele>
        <time>2022-08-24T09:50:25Z</time>
      </trkpt>
      <trkpt lat="43.055810999999366" lon="-1.2659470000000033">
        <ele>1222.674</ele>
        <time>2022-08-24T09:50:26Z</time>
      </trkpt>
      <trkpt lat="43.05580099999936" lon="-1.2659370000000032">
        <ele>1222.450</ele>
        <time>2022-08-24T09:50:27Z</time>
      </trkpt>
      <trkpt lat="43.05579099999936" lon="-1.2659280000000033">
        <ele>1222.632</ele>
        <time>2022-08-24T09:50:28Z</time>
      </trkpt>
      <trkpt lat="43.05578099999936" lon="-1.2659190000000033">
        <ele>1222.659</ele>
        <time>2022-08-24T09:50:29Z</time>
      </trkpt>
      <trkpt lat="43.05573599999936" lon="-1.2658960000000032">
        <ele>1223.082</ele>
        <time>2022-08-24T09:50:33Z</time>
      </trkpt>
      <trkpt lat="43.05572699999936" lon="-1.2658920000000033">
        <ele>1222.896</ele>
        <time>2022-08-24T09:50:34Z</time>
      </trkpt>
      <trkpt lat="43.055716999999355" lon="-1.2658850000000033">
        <ele>1222.825</ele>
        <time>2022-08-24T09:50:35Z</time>
      </trkpt>
      <trkpt lat="43.055705999999354" lon="-1.2658800000000032">
        <ele>1223.031</ele>
        <time>2022-08-24T09:50:36Z</time>
      </trkpt>
      <trkpt lat="43.055685999999355" lon="-1.2658680000000033">
        <ele>1223.261</ele>
        <time>2022-08-24T09:50:38Z</time>
      </trkpt>
      <trkpt lat="43.05566799999936" lon="-1.2658530000000032">
        <ele>1223.407</ele>
        <time>2022-08-24T09:50:40Z</time>
      </trkpt>
      <trkpt lat="43.05565999999936" lon="-1.2658430000000032">
        <ele>1223.609</ele>
        <time>2022-08-24T09:50:41Z</time>
      </trkpt>
      <trkpt lat="43.055651999999355" lon="-1.2658340000000032">
        <ele>1223.874</ele>
        <time>2022-08-24T09:50:42Z</time>
      </trkpt>
      <trkpt lat="43.05564199999935" lon="-1.2658270000000031">
        <ele>1224.044</ele>
        <time>2022-08-24T09:50:43Z</time>
      </trkpt>
      <trkpt lat="43.05560599999935" lon="-1.265806000000003">
        <ele>1224.454</ele>
        <time>2022-08-24T09:50:46Z</time>
      </trkpt>
      <trkpt lat="43.05556299999935" lon="-1.265780000000003">
        <ele>1224.850</ele>
        <time>2022-08-24T09:50:50Z</time>
      </trkpt>
      <trkpt lat="43.05555299999935" lon="-1.265774000000003">
        <ele>1225.042</ele>
        <time>2022-08-24T09:50:51Z</time>
      </trkpt>
      <trkpt lat="43.05554199999935" lon="-1.2657680000000031">
        <ele>1225.249</ele>
        <time>2022-08-24T09:50:52Z</time>
      </trkpt>
      <trkpt lat="43.05552099999935" lon="-1.265761000000003">
        <ele>1225.432</ele>
        <time>2022-08-24T09:50:54Z</time>
      </trkpt>
      <trkpt lat="43.05550999999935" lon="-1.265754000000003">
        <ele>1225.666</ele>
        <time>2022-08-24T09:50:55Z</time>
      </trkpt>
      <trkpt lat="43.05550199999935" lon="-1.265743000000003">
        <ele>1225.625</ele>
        <time>2022-08-24T09:50:56Z</time>
      </trkpt>
      <trkpt lat="43.055494999999354" lon="-1.265730000000003">
        <ele>1226.062</ele>
        <time>2022-08-24T09:50:57Z</time>
      </trkpt>
      <trkpt lat="43.05548799999936" lon="-1.2657200000000028">
        <ele>1226.283</ele>
        <time>2022-08-24T09:50:58Z</time>
      </trkpt>
      <trkpt lat="43.055477999999354" lon="-1.2657100000000028">
        <ele>1226.211</ele>
        <time>2022-08-24T09:50:59Z</time>
      </trkpt>
      <trkpt lat="43.055466999999354" lon="-1.2657040000000028">
        <ele>1226.409</ele>
        <time>2022-08-24T09:51:00Z</time>
      </trkpt>
      <trkpt lat="43.05545699999935" lon="-1.2657010000000029">
        <ele>1226.647</ele>
        <time>2022-08-24T09:51:01Z</time>
      </trkpt>
      <trkpt lat="43.05544799999935" lon="-1.2656960000000028">
        <ele>1226.897</ele>
        <time>2022-08-24T09:51:02Z</time>
      </trkpt>
      <trkpt lat="43.05543999999935" lon="-1.2656930000000028">
        <ele>1226.857</ele>
        <time>2022-08-24T09:51:03Z</time>
      </trkpt>
      <trkpt lat="43.05542699999935" lon="-1.265687000000003">
        <ele>1227.063</ele>
        <time>2022-08-24T09:51:04Z</time>
      </trkpt>
      <trkpt lat="43.05541799999935" lon="-1.2656820000000029">
        <ele>1227.085</ele>
        <time>2022-08-24T09:51:05Z</time>
      </trkpt>
      <trkpt lat="43.05540899999935" lon="-1.265676000000003">
        <ele>1227.062</ele>
        <time>2022-08-24T09:51:06Z</time>
      </trkpt>
      <trkpt lat="43.055401999999354" lon="-1.265670000000003">
        <ele>1227.275</ele>
        <time>2022-08-24T09:51:07Z</time>
      </trkpt>
      <trkpt lat="43.055392999999356" lon="-1.265665000000003">
        <ele>1227.619</ele>
        <time>2022-08-24T09:51:08Z</time>
      </trkpt>
      <trkpt lat="43.055381999999355" lon="-1.265657000000003">
        <ele>1227.638</ele>
        <time>2022-08-24T09:51:09Z</time>
      </trkpt>
      <trkpt lat="43.05537199999935" lon="-1.2656500000000028">
        <ele>1227.694</ele>
        <time>2022-08-24T09:51:10Z</time>
      </trkpt>
      <trkpt lat="43.05536199999935" lon="-1.2656440000000029">
        <ele>1227.857</ele>
        <time>2022-08-24T09:51:11Z</time>
      </trkpt>
      <trkpt lat="43.05535499999935" lon="-1.265640000000003">
        <ele>1227.822</ele>
        <time>2022-08-24T09:51:12Z</time>
      </trkpt>
      <trkpt lat="43.05534499999935" lon="-1.265632000000003">
        <ele>1228.009</ele>
        <time>2022-08-24T09:51:13Z</time>
      </trkpt>
      <trkpt lat="43.05533399999935" lon="-1.265620000000003">
        <ele>1228.050</ele>
        <time>2022-08-24T09:51:14Z</time>
      </trkpt>
      <trkpt lat="43.05532499999935" lon="-1.2656110000000032">
        <ele>1228.260</ele>
        <time>2022-08-24T09:51:15Z</time>
      </trkpt>
      <trkpt lat="43.05531499999935" lon="-1.2656030000000031">
        <ele>1228.250</ele>
        <time>2022-08-24T09:51:16Z</time>
      </trkpt>
      <trkpt lat="43.055306999999345" lon="-1.2655970000000032">
        <ele>1228.446</ele>
        <time>2022-08-24T09:51:17Z</time>
      </trkpt>
      <trkpt lat="43.055295999999345" lon="-1.2655920000000032">
        <ele>1228.488</ele>
        <time>2022-08-24T09:51:18Z</time>
      </trkpt>
      <trkpt lat="43.055284999999344" lon="-1.2655870000000031">
        <ele>1228.625</ele>
        <time>2022-08-24T09:51:19Z</time>
      </trkpt>
      <trkpt lat="43.055272999999346" lon="-1.2655890000000032">
        <ele>1228.858</ele>
        <time>2022-08-24T09:51:20Z</time>
      </trkpt>
      <trkpt lat="43.05526299999934" lon="-1.2655960000000033">
        <ele>1228.832</ele>
        <time>2022-08-24T09:51:21Z</time>
      </trkpt>
      <trkpt lat="43.05525499999934" lon="-1.2656020000000032">
        <ele>1228.851</ele>
        <time>2022-08-24T09:51:22Z</time>
      </trkpt>
      <trkpt lat="43.05524099999934" lon="-1.2656110000000032">
        <ele>1229.033</ele>
        <time>2022-08-24T09:51:23Z</time>
      </trkpt>
      <trkpt lat="43.05523499999934" lon="-1.265620000000003">
        <ele>1229.223</ele>
        <time>2022-08-24T09:51:24Z</time>
      </trkpt>
      <trkpt lat="43.055230999999345" lon="-1.2656330000000031">
        <ele>1229.415</ele>
        <time>2022-08-24T09:51:25Z</time>
      </trkpt>
      <trkpt lat="43.05522699999935" lon="-1.2656460000000032">
        <ele>1229.809</ele>
        <time>2022-08-24T09:51:26Z</time>
      </trkpt>
      <trkpt lat="43.05522199999935" lon="-1.2656650000000031">
        <ele>1230.024</ele>
        <time>2022-08-24T09:51:27Z</time>
      </trkpt>
      <trkpt lat="43.05522199999935" lon="-1.265685000000003">
        <ele>1230.284</ele>
        <time>2022-08-24T09:51:28Z</time>
      </trkpt>
      <trkpt lat="43.055222999999344" lon="-1.265699000000003">
        <ele>1230.254</ele>
        <time>2022-08-24T09:51:29Z</time>
      </trkpt>
      <trkpt lat="43.055224999999346" lon="-1.2657140000000031">
        <ele>1230.460</ele>
        <time>2022-08-24T09:51:30Z</time>
      </trkpt>
      <trkpt lat="43.05522699999935" lon="-1.2657240000000032">
        <ele>1230.622</ele>
        <time>2022-08-24T09:51:31Z</time>
      </trkpt>
      <trkpt lat="43.055227999999346" lon="-1.2657390000000033">
        <ele>1230.659</ele>
        <time>2022-08-24T09:51:32Z</time>
      </trkpt>
      <trkpt lat="43.05522899999934" lon="-1.2657540000000034">
        <ele>1230.652</ele>
        <time>2022-08-24T09:51:33Z</time>
      </trkpt>
      <trkpt lat="43.05522999999934" lon="-1.2657700000000034">
        <ele>1230.646</ele>
        <time>2022-08-24T09:51:34Z</time>
      </trkpt>
      <trkpt lat="43.05523099999934" lon="-1.2657850000000035">
        <ele>1230.835</ele>
        <time>2022-08-24T09:51:35Z</time>
      </trkpt>
      <trkpt lat="43.055228999999336" lon="-1.2658020000000034">
        <ele>1230.887</ele>
        <time>2022-08-24T09:51:36Z</time>
      </trkpt>
      <trkpt lat="43.05522799999934" lon="-1.2658150000000035">
        <ele>1231.042</ele>
        <time>2022-08-24T09:51:37Z</time>
      </trkpt>
      <trkpt lat="43.05522999999934" lon="-1.2658280000000035">
        <ele>1231.226</ele>
        <time>2022-08-24T09:51:38Z</time>
      </trkpt>
      <trkpt lat="43.05523399999934" lon="-1.2658420000000035">
        <ele>1231.209</ele>
        <time>2022-08-24T09:51:39Z</time>
      </trkpt>
      <trkpt lat="43.055234999999335" lon="-1.2658610000000035">
        <ele>1231.249</ele>
        <time>2022-08-24T09:51:40Z</time>
      </trkpt>
      <trkpt lat="43.05523399999934" lon="-1.2658730000000034">
        <ele>1231.259</ele>
        <time>2022-08-24T09:51:41Z</time>
      </trkpt>
      <trkpt lat="43.05523299999934" lon="-1.2658860000000034">
        <ele>1231.479</ele>
        <time>2022-08-24T09:51:42Z</time>
      </trkpt>
      <trkpt lat="43.05523399999934" lon="-1.2659000000000034">
        <ele>1231.425</ele>
        <time>2022-08-24T09:51:43Z</time>
      </trkpt>
      <trkpt lat="43.055234999999335" lon="-1.2659140000000033">
        <ele>1231.627</ele>
        <time>2022-08-24T09:51:44Z</time>
      </trkpt>
      <trkpt lat="43.055231999999336" lon="-1.2659280000000033">
        <ele>1232.084</ele>
        <time>2022-08-24T09:51:45Z</time>
      </trkpt>
      <trkpt lat="43.05522799999934" lon="-1.2659410000000033">
        <ele>1232.047</ele>
        <time>2022-08-24T09:51:46Z</time>
      </trkpt>
      <trkpt lat="43.05522699999934" lon="-1.2659560000000034">
        <ele>1232.241</ele>
        <time>2022-08-24T09:51:47Z</time>
      </trkpt>
      <trkpt lat="43.05522899999934" lon="-1.2659710000000035">
        <ele>1232.450</ele>
        <time>2022-08-24T09:51:48Z</time>
      </trkpt>
      <trkpt lat="43.05523299999934" lon="-1.2659880000000034">
        <ele>1232.653</ele>
        <time>2022-08-24T09:51:49Z</time>
      </trkpt>
      <trkpt lat="43.05523699999934" lon="-1.2660050000000034">
        <ele>1232.604</ele>
        <time>2022-08-24T09:51:50Z</time>
      </trkpt>
      <trkpt lat="43.05524199999934" lon="-1.2660180000000034">
        <ele>1232.814</ele>
        <time>2022-08-24T09:51:51Z</time>
      </trkpt>
      <trkpt lat="43.055245999999336" lon="-1.2660320000000034">
        <ele>1233.009</ele>
        <time>2022-08-24T09:51:52Z</time>
      </trkpt>
      <trkpt lat="43.055248999999336" lon="-1.2660480000000034">
        <ele>1233.236</ele>
        <time>2022-08-24T09:51:53Z</time>
      </trkpt>
      <trkpt lat="43.055251999999335" lon="-1.2660610000000034">
        <ele>1233.426</ele>
        <time>2022-08-24T09:51:54Z</time>
      </trkpt>
      <trkpt lat="43.055251999999335" lon="-1.2660740000000035">
        <ele>1233.636</ele>
        <time>2022-08-24T09:51:55Z</time>
      </trkpt>
      <trkpt lat="43.05525299999933" lon="-1.2660880000000034">
        <ele>1233.652</ele>
        <time>2022-08-24T09:51:56Z</time>
      </trkpt>
      <trkpt lat="43.05525299999933" lon="-1.2661010000000035">
        <ele>1233.864</ele>
        <time>2022-08-24T09:51:57Z</time>
      </trkpt>
      <trkpt lat="43.05525399999933" lon="-1.2661150000000034">
        <ele>1234.021</ele>
        <time>2022-08-24T09:51:58Z</time>
      </trkpt>
      <trkpt lat="43.05525199999933" lon="-1.2661270000000033">
        <ele>1234.264</ele>
        <time>2022-08-24T09:51:59Z</time>
      </trkpt>
      <trkpt lat="43.05524899999933" lon="-1.2661390000000032">
        <ele>1234.458</ele>
        <time>2022-08-24T09:52:00Z</time>
      </trkpt>
      <trkpt lat="43.05524399999933" lon="-1.2661520000000033">
        <ele>1234.627</ele>
        <time>2022-08-24T09:52:01Z</time>
      </trkpt>
      <trkpt lat="43.055238999999325" lon="-1.2661640000000032">
        <ele>1235.077</ele>
        <time>2022-08-24T09:52:02Z</time>
      </trkpt>
      <trkpt lat="43.055232999999326" lon="-1.2661750000000032">
        <ele>1235.261</ele>
        <time>2022-08-24T09:52:03Z</time>
      </trkpt>
      <trkpt lat="43.05522699999933" lon="-1.266184000000003">
        <ele>1235.427</ele>
        <time>2022-08-24T09:52:04Z</time>
      </trkpt>
      <trkpt lat="43.05522399999933" lon="-1.266192000000003">
        <ele>1235.609</ele>
        <time>2022-08-24T09:52:05Z</time>
      </trkpt>
      <trkpt lat="43.055218999999326" lon="-1.266204000000003">
        <ele>1236.278</ele>
        <time>2022-08-24T09:52:06Z</time>
      </trkpt>
      <trkpt lat="43.05521499999933" lon="-1.266217000000003">
        <ele>1236.458</ele>
        <time>2022-08-24T09:52:07Z</time>
      </trkpt>
      <trkpt lat="43.05520799999933" lon="-1.266229000000003">
        <ele>1236.688</ele>
        <time>2022-08-24T09:52:08Z</time>
      </trkpt>
      <trkpt lat="43.05519999999933" lon="-1.266237000000003">
        <ele>1237.094</ele>
        <time>2022-08-24T09:52:09Z</time>
      </trkpt>
      <trkpt lat="43.055192999999335" lon="-1.266243000000003">
        <ele>1237.476</ele>
        <time>2022-08-24T09:52:10Z</time>
      </trkpt>
      <trkpt lat="43.055184999999334" lon="-1.2662490000000028">
        <ele>1237.683</ele>
        <time>2022-08-24T09:52:11Z</time>
      </trkpt>
      <trkpt lat="43.05517799999934" lon="-1.2662600000000028">
        <ele>1237.846</ele>
        <time>2022-08-24T09:52:12Z</time>
      </trkpt>
      <trkpt lat="43.05517099999934" lon="-1.2662740000000028">
        <ele>1238.270</ele>
        <time>2022-08-24T09:52:13Z</time>
      </trkpt>
      <trkpt lat="43.05516099999934" lon="-1.2662850000000028">
        <ele>1238.419</ele>
        <time>2022-08-24T09:52:14Z</time>
      </trkpt>
      <trkpt lat="43.055150999999334" lon="-1.2662950000000028">
        <ele>1238.659</ele>
        <time>2022-08-24T09:52:15Z</time>
      </trkpt>
      <trkpt lat="43.055141999999336" lon="-1.2663040000000028">
        <ele>1238.803</ele>
        <time>2022-08-24T09:52:16Z</time>
      </trkpt>
      <trkpt lat="43.05513199999933" lon="-1.2663140000000028">
        <ele>1238.823</ele>
        <time>2022-08-24T09:52:17Z</time>
      </trkpt>
      <trkpt lat="43.05512099999933" lon="-1.266329000000003">
        <ele>1239.209</ele>
        <time>2022-08-24T09:52:18Z</time>
      </trkpt>
      <trkpt lat="43.055113999999335" lon="-1.266342000000003">
        <ele>1239.476</ele>
        <time>2022-08-24T09:52:19Z</time>
      </trkpt>
      <trkpt lat="43.055105999999334" lon="-1.266351000000003">
        <ele>1239.646</ele>
        <time>2022-08-24T09:52:20Z</time>
      </trkpt>
      <trkpt lat="43.055096999999336" lon="-1.2663650000000028">
        <ele>1239.856</ele>
        <time>2022-08-24T09:52:21Z</time>
      </trkpt>
      <trkpt lat="43.05508799999934" lon="-1.266378000000003">
        <ele>1240.042</ele>
        <time>2022-08-24T09:52:22Z</time>
      </trkpt>
      <trkpt lat="43.055076999999336" lon="-1.2663920000000028">
        <ele>1240.234</ele>
        <time>2022-08-24T09:52:23Z</time>
      </trkpt>
      <trkpt lat="43.05506699999933" lon="-1.2664040000000027">
        <ele>1240.491</ele>
        <time>2022-08-24T09:52:24Z</time>
      </trkpt>
      <trkpt lat="43.05505899999933" lon="-1.2664190000000028">
        <ele>1240.644</ele>
        <time>2022-08-24T09:52:25Z</time>
      </trkpt>
      <trkpt lat="43.05504999999933" lon="-1.2664330000000028">
        <ele>1241.038</ele>
        <time>2022-08-24T09:52:26Z</time>
      </trkpt>
      <trkpt lat="43.055040999999335" lon="-1.2664470000000028">
        <ele>1241.447</ele>
        <time>2022-08-24T09:52:27Z</time>
      </trkpt>
      <trkpt lat="43.055032999999334" lon="-1.2664600000000028">
        <ele>1241.452</ele>
        <time>2022-08-24T09:52:28Z</time>
      </trkpt>
      <trkpt lat="43.05502199999933" lon="-1.2664700000000029">
        <ele>1241.853</ele>
        <time>2022-08-24T09:52:29Z</time>
      </trkpt>
      <trkpt lat="43.05501199999933" lon="-1.266480000000003">
        <ele>1242.208</ele>
        <time>2022-08-24T09:52:30Z</time>
      </trkpt>
      <trkpt lat="43.05500199999933" lon="-1.266490000000003">
        <ele>1242.409</ele>
        <time>2022-08-24T09:52:31Z</time>
      </trkpt>
      <trkpt lat="43.054993999999326" lon="-1.266500000000003">
        <ele>1242.636</ele>
        <time>2022-08-24T09:52:32Z</time>
      </trkpt>
      <trkpt lat="43.054985999999325" lon="-1.2665100000000031">
        <ele>1243.016</ele>
        <time>2022-08-24T09:52:33Z</time>
      </trkpt>
      <trkpt lat="43.054979999999325" lon="-1.2665170000000032">
        <ele>1243.456</ele>
        <time>2022-08-24T09:52:34Z</time>
      </trkpt>
      <trkpt lat="43.054971999999324" lon="-1.2665250000000032">
        <ele>1243.822</ele>
        <time>2022-08-24T09:52:35Z</time>
      </trkpt>
      <trkpt lat="43.05496699999932" lon="-1.2665300000000033">
        <ele>1244.024</ele>
        <time>2022-08-24T09:52:36Z</time>
      </trkpt>
      <trkpt lat="43.054965999999325" lon="-1.2665390000000032">
        <ele>1246.211</ele>
        <time>2022-08-24T09:53:13Z</time>
      </trkpt>
      <trkpt lat="43.05496699999932" lon="-1.2665470000000032">
        <ele>1246.294</ele>
        <time>2022-08-24T09:53:15Z</time>
      </trkpt>
      <trkpt lat="43.054965999999325" lon="-1.2665470000000032">
        <ele>1247.688</ele>
        <time>2022-08-24T09:53:26Z</time>
      </trkpt>
      <trkpt lat="43.05496399999932" lon="-1.2665540000000033">
        <ele>1247.447</ele>
        <time>2022-08-24T09:53:27Z</time>
      </trkpt>
      <trkpt lat="43.054937999999325" lon="-1.2666090000000032">
        <ele>1247.646</ele>
        <time>2022-08-24T09:53:31Z</time>
      </trkpt>
      <trkpt lat="43.05493299999932" lon="-1.2666200000000032">
        <ele>1247.888</ele>
        <time>2022-08-24T09:53:32Z</time>
      </trkpt>
      <trkpt lat="43.05492499999932" lon="-1.2666470000000032">
        <ele>1248.016</ele>
        <time>2022-08-24T09:53:34Z</time>
      </trkpt>
      <trkpt lat="43.05488699999932" lon="-1.2667230000000032">
        <ele>1248.409</ele>
        <time>2022-08-24T09:53:42Z</time>
      </trkpt>
      <trkpt lat="43.05488099999932" lon="-1.2667340000000031">
        <ele>1248.455</ele>
        <time>2022-08-24T09:53:43Z</time>
      </trkpt>
      <trkpt lat="43.05487699999932" lon="-1.2667450000000031">
        <ele>1248.675</ele>
        <time>2022-08-24T09:53:44Z</time>
      </trkpt>
      <trkpt lat="43.05484599999932" lon="-1.266783000000003">
        <ele>1248.885</ele>
        <time>2022-08-24T09:53:49Z</time>
      </trkpt>
      <trkpt lat="43.05483799999932" lon="-1.266784000000003">
        <ele>1249.051</ele>
        <time>2022-08-24T09:53:50Z</time>
      </trkpt>
      <trkpt lat="43.05483499999932" lon="-1.266784000000003">
        <ele>1249.253</ele>
        <time>2022-08-24T09:53:51Z</time>
      </trkpt>
      <trkpt lat="43.05483499999932" lon="-1.266784000000003">
        <ele>1249.450</ele>
        <time>2022-08-24T09:53:52Z</time>
      </trkpt>
      <trkpt lat="43.05483499999932" lon="-1.266784000000003">
        <ele>1249.453</ele>
        <time>2022-08-24T09:53:53Z</time>
      </trkpt>
      <trkpt lat="43.05481499999932" lon="-1.266797000000003">
        <ele>1249.467</ele>
        <time>2022-08-24T09:54:19Z</time>
      </trkpt>
      <trkpt lat="43.05476799999932" lon="-1.2668120000000032">
        <ele>1249.646</ele>
        <time>2022-08-24T09:54:23Z</time>
      </trkpt>
      <trkpt lat="43.05472999999932" lon="-1.2668200000000032">
        <ele>1249.629</ele>
        <time>2022-08-24T09:54:27Z</time>
      </trkpt>
      <trkpt lat="43.054721999999316" lon="-1.266821000000003">
        <ele>1249.600</ele>
        <time>2022-08-24T09:54:28Z</time>
      </trkpt>
      <trkpt lat="43.054713999999315" lon="-1.266822000000003">
        <ele>1249.620</ele>
        <time>2022-08-24T09:54:29Z</time>
      </trkpt>
      <trkpt lat="43.05468699999931" lon="-1.266825000000003">
        <ele>1249.809</ele>
        <time>2022-08-24T09:54:33Z</time>
      </trkpt>
      <trkpt lat="43.054654999999315" lon="-1.266834000000003">
        <ele>1249.883</ele>
        <time>2022-08-24T09:54:37Z</time>
      </trkpt>
      <trkpt lat="43.054645999999316" lon="-1.266836000000003">
        <ele>1249.813</ele>
        <time>2022-08-24T09:54:38Z</time>
      </trkpt>
      <trkpt lat="43.05463699999932" lon="-1.2668400000000029">
        <ele>1250.013</ele>
        <time>2022-08-24T09:54:39Z</time>
      </trkpt>
      <trkpt lat="43.05462799999932" lon="-1.266842000000003">
        <ele>1250.229</ele>
        <time>2022-08-24T09:54:40Z</time>
      </trkpt>
      <trkpt lat="43.05461999999932" lon="-1.266842000000003">
        <ele>1250.491</ele>
        <time>2022-08-24T09:54:41Z</time>
      </trkpt>
      <trkpt lat="43.05461199999932" lon="-1.2668430000000028">
        <ele>1250.488</ele>
        <time>2022-08-24T09:54:42Z</time>
      </trkpt>
      <trkpt lat="43.05460599999932" lon="-1.2668440000000027">
        <ele>1250.451</ele>
        <time>2022-08-24T09:54:43Z</time>
      </trkpt>
      <trkpt lat="43.05459699999932" lon="-1.2668450000000027">
        <ele>1250.625</ele>
        <time>2022-08-24T09:54:44Z</time>
      </trkpt>
      <trkpt lat="43.05459099999932" lon="-1.2668460000000026">
        <ele>1250.654</ele>
        <time>2022-08-24T09:54:45Z</time>
      </trkpt>
      <trkpt lat="43.05458299999932" lon="-1.2668480000000026">
        <ele>1250.843</ele>
        <time>2022-08-24T09:54:46Z</time>
      </trkpt>
      <trkpt lat="43.05457599999932" lon="-1.2668500000000027">
        <ele>1250.864</ele>
        <time>2022-08-24T09:54:47Z</time>
      </trkpt>
      <trkpt lat="43.054568999999326" lon="-1.2668500000000027">
        <ele>1250.810</ele>
        <time>2022-08-24T09:54:48Z</time>
      </trkpt>
      <trkpt lat="43.05455999999933" lon="-1.2668520000000028">
        <ele>1250.809</ele>
        <time>2022-08-24T09:54:49Z</time>
      </trkpt>
      <trkpt lat="43.054551999999326" lon="-1.2668540000000028">
        <ele>1251.065</ele>
        <time>2022-08-24T09:54:50Z</time>
      </trkpt>
      <trkpt lat="43.05454599999933" lon="-1.2668550000000027">
        <ele>1251.055</ele>
        <time>2022-08-24T09:54:51Z</time>
      </trkpt>
      <trkpt lat="43.05453999999933" lon="-1.2668560000000026">
        <ele>1251.095</ele>
        <time>2022-08-24T09:54:52Z</time>
      </trkpt>
      <trkpt lat="43.05453299999933" lon="-1.2668590000000026">
        <ele>1251.071</ele>
        <time>2022-08-24T09:54:53Z</time>
      </trkpt>
      <trkpt lat="43.054525999999335" lon="-1.2668640000000027">
        <ele>1251.063</ele>
        <time>2022-08-24T09:54:54Z</time>
      </trkpt>
      <trkpt lat="43.05451899999934" lon="-1.2668690000000027">
        <ele>1251.080</ele>
        <time>2022-08-24T09:54:55Z</time>
      </trkpt>
      <trkpt lat="43.05451099999934" lon="-1.2668710000000027">
        <ele>1251.093</ele>
        <time>2022-08-24T09:54:56Z</time>
      </trkpt>
      <trkpt lat="43.05449899999934" lon="-1.2668770000000027">
        <ele>1251.087</ele>
        <time>2022-08-24T09:54:57Z</time>
      </trkpt>
      <trkpt lat="43.05449199999934" lon="-1.2668800000000027">
        <ele>1251.076</ele>
        <time>2022-08-24T09:54:58Z</time>
      </trkpt>
      <trkpt lat="43.05446999999934" lon="-1.2668910000000027">
        <ele>1250.264</ele>
        <time>2022-08-24T09:55:08Z</time>
      </trkpt>
      <trkpt lat="43.05438099999934" lon="-1.2669250000000027">
        <ele>1249.806</ele>
        <time>2022-08-24T09:55:12Z</time>
      </trkpt>
      <trkpt lat="43.05431099999934" lon="-1.2669590000000028">
        <ele>1250.016</ele>
        <time>2022-08-24T09:55:14Z</time>
      </trkpt>
      <trkpt lat="43.054204999999335" lon="-1.2670250000000027">
        <ele>1250.009</ele>
        <time>2022-08-24T09:55:17Z</time>
      </trkpt>
      <trkpt lat="43.05416999999934" lon="-1.2670410000000027">
        <ele>1249.847</ele>
        <time>2022-08-24T09:55:18Z</time>
      </trkpt>
      <trkpt lat="43.05397899999934" lon="-1.2671320000000028">
        <ele>1249.227</ele>
        <time>2022-08-24T09:55:23Z</time>
      </trkpt>
      <trkpt lat="43.053939999999336" lon="-1.2671480000000028">
        <ele>1249.077</ele>
        <time>2022-08-24T09:55:24Z</time>
      </trkpt>
      <trkpt lat="43.05389999999934" lon="-1.267166000000003">
        <ele>1248.683</ele>
        <time>2022-08-24T09:55:25Z</time>
      </trkpt>
      <trkpt lat="43.05386899999934" lon="-1.2671780000000028">
        <ele>1248.495</ele>
        <time>2022-08-24T09:55:26Z</time>
      </trkpt>
      <trkpt lat="43.05382299999934" lon="-1.2671970000000028">
        <ele>1248.222</ele>
        <time>2022-08-24T09:55:27Z</time>
      </trkpt>
      <trkpt lat="43.05378699999934" lon="-1.2672110000000028">
        <ele>1248.085</ele>
        <time>2022-08-24T09:55:28Z</time>
      </trkpt>
      <trkpt lat="43.05375299999934" lon="-1.2672250000000027">
        <ele>1247.829</ele>
        <time>2022-08-24T09:55:29Z</time>
      </trkpt>
      <trkpt lat="43.05371999999934" lon="-1.2672410000000027">
        <ele>1247.638</ele>
        <time>2022-08-24T09:55:30Z</time>
      </trkpt>
      <trkpt lat="43.053686999999336" lon="-1.2672550000000027">
        <ele>1247.689</ele>
        <time>2022-08-24T09:55:31Z</time>
      </trkpt>
      <trkpt lat="43.05365199999934" lon="-1.2672690000000026">
        <ele>1247.406</ele>
        <time>2022-08-24T09:55:32Z</time>
      </trkpt>
      <trkpt lat="43.05361999999934" lon="-1.2672830000000026">
        <ele>1247.426</ele>
        <time>2022-08-24T09:55:33Z</time>
      </trkpt>
      <trkpt lat="43.05358899999934" lon="-1.2672950000000025">
        <ele>1247.209</ele>
        <time>2022-08-24T09:55:34Z</time>
      </trkpt>
      <trkpt lat="43.05355899999934" lon="-1.2673070000000024">
        <ele>1247.219</ele>
        <time>2022-08-24T09:55:35Z</time>
      </trkpt>
      <trkpt lat="43.05352999999934" lon="-1.2673200000000024">
        <ele>1247.029</ele>
        <time>2022-08-24T09:55:36Z</time>
      </trkpt>
      <trkpt lat="43.05347099999934" lon="-1.2673430000000026">
        <ele>1247.089</ele>
        <time>2022-08-24T09:55:38Z</time>
      </trkpt>
      <trkpt lat="43.05337999999934" lon="-1.2673800000000026">
        <ele>1247.035</ele>
        <time>2022-08-24T09:55:41Z</time>
      </trkpt>
      <trkpt lat="43.05335299999934" lon="-1.2673870000000027">
        <ele>1247.027</ele>
        <time>2022-08-24T09:55:42Z</time>
      </trkpt>
      <trkpt lat="43.05332699999934" lon="-1.2673910000000026">
        <ele>1247.054</ele>
        <time>2022-08-24T09:55:43Z</time>
      </trkpt>
      <trkpt lat="43.05330299999934" lon="-1.2673990000000026">
        <ele>1246.687</ele>
        <time>2022-08-24T09:55:44Z</time>
      </trkpt>
      <trkpt lat="43.05327699999934" lon="-1.2674050000000026">
        <ele>1246.671</ele>
        <time>2022-08-24T09:55:45Z</time>
      </trkpt>
      <trkpt lat="43.05325199999934" lon="-1.2674090000000025">
        <ele>1246.670</ele>
        <time>2022-08-24T09:55:46Z</time>
      </trkpt>
      <trkpt lat="43.053227999999336" lon="-1.2674140000000025">
        <ele>1246.651</ele>
        <time>2022-08-24T09:55:47Z</time>
      </trkpt>
      <trkpt lat="43.053202999999336" lon="-1.2674180000000024">
        <ele>1246.601</ele>
        <time>2022-08-24T09:55:48Z</time>
      </trkpt>
      <trkpt lat="43.05315399999934" lon="-1.2674260000000024">
        <ele>1246.611</ele>
        <time>2022-08-24T09:55:50Z</time>
      </trkpt>
      <trkpt lat="43.05313099999934" lon="-1.2674280000000024">
        <ele>1246.609</ele>
        <time>2022-08-24T09:55:51Z</time>
      </trkpt>
      <trkpt lat="43.05310799999934" lon="-1.2674310000000024">
        <ele>1246.686</ele>
        <time>2022-08-24T09:55:52Z</time>
      </trkpt>
      <trkpt lat="43.05308799999934" lon="-1.2674380000000025">
        <ele>1246.456</ele>
        <time>2022-08-24T09:55:53Z</time>
      </trkpt>
      <trkpt lat="43.05306899999934" lon="-1.2674440000000025">
        <ele>1246.436</ele>
        <time>2022-08-24T09:55:54Z</time>
      </trkpt>
      <trkpt lat="43.05304699999934" lon="-1.2674480000000024">
        <ele>1246.682</ele>
        <time>2022-08-24T09:55:55Z</time>
      </trkpt>
      <trkpt lat="43.05302499999934" lon="-1.2674490000000023">
        <ele>1246.834</ele>
        <time>2022-08-24T09:55:56Z</time>
      </trkpt>
      <trkpt lat="43.05300399999934" lon="-1.2674480000000024">
        <ele>1246.831</ele>
        <time>2022-08-24T09:55:57Z</time>
      </trkpt>
      <trkpt lat="43.05298499999934" lon="-1.2674440000000025">
        <ele>1246.864</ele>
        <time>2022-08-24T09:55:58Z</time>
      </trkpt>
      <trkpt lat="43.05296699999934" lon="-1.2674420000000024">
        <ele>1247.058</ele>
        <time>2022-08-24T09:55:59Z</time>
      </trkpt>
      <trkpt lat="43.052948999999344" lon="-1.2674430000000023">
        <ele>1247.077</ele>
        <time>2022-08-24T09:56:00Z</time>
      </trkpt>
      <trkpt lat="43.05293099999935" lon="-1.2674440000000022">
        <ele>1247.225</ele>
        <time>2022-08-24T09:56:01Z</time>
      </trkpt>
      <trkpt lat="43.052892999999344" lon="-1.2674500000000022">
        <ele>1247.626</ele>
        <time>2022-08-24T09:56:03Z</time>
      </trkpt>
      <trkpt lat="43.05281199999934" lon="-1.2674750000000021">
        <ele>1247.808</ele>
        <time>2022-08-24T09:56:06Z</time>
      </trkpt>
      <trkpt lat="43.05271599999934" lon="-1.2674990000000022">
        <ele>1247.809</ele>
        <time>2022-08-24T09:56:09Z</time>
      </trkpt>
      <trkpt lat="43.05268499999934" lon="-1.267511000000002">
        <ele>1247.893</ele>
        <time>2022-08-24T09:56:10Z</time>
      </trkpt>
      <trkpt lat="43.05258199999934" lon="-1.2675610000000022">
        <ele>1246.893</ele>
        <time>2022-08-24T09:56:13Z</time>
      </trkpt>
      <trkpt lat="43.05255299999934" lon="-1.2675740000000022">
        <ele>1246.443</ele>
        <time>2022-08-24T09:56:14Z</time>
      </trkpt>
      <trkpt lat="43.05252499999934" lon="-1.2675850000000022">
        <ele>1246.279</ele>
        <time>2022-08-24T09:56:15Z</time>
      </trkpt>
      <trkpt lat="43.052492999999345" lon="-1.2676000000000023">
        <ele>1246.061</ele>
        <time>2022-08-24T09:56:16Z</time>
      </trkpt>
      <trkpt lat="43.05239299999934" lon="-1.2676390000000022">
        <ele>1245.468</ele>
        <time>2022-08-24T09:56:19Z</time>
      </trkpt>
      <trkpt lat="43.05235899999934" lon="-1.2676460000000023">
        <ele>1245.241</ele>
        <time>2022-08-24T09:56:20Z</time>
      </trkpt>
      <trkpt lat="43.052326999999345" lon="-1.2676490000000022">
        <ele>1244.835</ele>
        <time>2022-08-24T09:56:21Z</time>
      </trkpt>
      <trkpt lat="43.05229699999934" lon="-1.2676480000000023">
        <ele>1244.894</ele>
        <time>2022-08-24T09:56:22Z</time>
      </trkpt>
      <trkpt lat="43.05226699999934" lon="-1.2676470000000024">
        <ele>1244.672</ele>
        <time>2022-08-24T09:56:23Z</time>
      </trkpt>
      <trkpt lat="43.05223499999934" lon="-1.2676480000000023">
        <ele>1244.413</ele>
        <time>2022-08-24T09:56:24Z</time>
      </trkpt>
      <trkpt lat="43.05220199999934" lon="-1.2676490000000022">
        <ele>1244.214</ele>
        <time>2022-08-24T09:56:25Z</time>
      </trkpt>
      <trkpt lat="43.05211099999934" lon="-1.2676620000000023">
        <ele>1243.209</ele>
        <time>2022-08-24T09:56:28Z</time>
      </trkpt>
      <trkpt lat="43.05207699999934" lon="-1.2676690000000024">
        <ele>1243.098</ele>
        <time>2022-08-24T09:56:29Z</time>
      </trkpt>
      <trkpt lat="43.05193199999934" lon="-1.2676910000000023">
        <ele>1242.668</ele>
        <time>2022-08-24T09:56:33Z</time>
      </trkpt>
      <trkpt lat="43.05189799999934" lon="-1.2676980000000024">
        <ele>1242.488</ele>
        <time>2022-08-24T09:56:34Z</time>
      </trkpt>
      <trkpt lat="43.05179299999934" lon="-1.2677500000000024">
        <ele>1242.234</ele>
        <time>2022-08-24T09:56:37Z</time>
      </trkpt>
      <trkpt lat="43.05175999999934" lon="-1.2677600000000024">
        <ele>1242.046</ele>
        <time>2022-08-24T09:56:38Z</time>
      </trkpt>
      <trkpt lat="43.05172599999934" lon="-1.2677660000000024">
        <ele>1242.023</ele>
        <time>2022-08-24T09:56:39Z</time>
      </trkpt>
      <trkpt lat="43.05169499999934" lon="-1.2677720000000023">
        <ele>1241.856</ele>
        <time>2022-08-24T09:56:40Z</time>
      </trkpt>
      <trkpt lat="43.05166699999934" lon="-1.2677800000000023">
        <ele>1241.880</ele>
        <time>2022-08-24T09:56:41Z</time>
      </trkpt>
      <trkpt lat="43.05164099999934" lon="-1.2677840000000022">
        <ele>1241.839</ele>
        <time>2022-08-24T09:56:42Z</time>
      </trkpt>
      <trkpt lat="43.051617999999344" lon="-1.2677920000000023">
        <ele>1242.016</ele>
        <time>2022-08-24T09:56:43Z</time>
      </trkpt>
      <trkpt lat="43.05150699999935" lon="-1.2678440000000022">
        <ele>1242.476</ele>
        <time>2022-08-24T09:56:47Z</time>
      </trkpt>
      <trkpt lat="43.05148099999935" lon="-1.2678510000000023">
        <ele>1242.813</ele>
        <time>2022-08-24T09:56:48Z</time>
      </trkpt>
      <trkpt lat="43.05145799999935" lon="-1.2678600000000022">
        <ele>1243.009</ele>
        <time>2022-08-24T09:56:49Z</time>
      </trkpt>
      <trkpt lat="43.05143599999935" lon="-1.2678730000000022">
        <ele>1243.282</ele>
        <time>2022-08-24T09:56:50Z</time>
      </trkpt>
      <trkpt lat="43.05130599999935" lon="-1.2679390000000021">
        <ele>1243.622</ele>
        <time>2022-08-24T09:56:55Z</time>
      </trkpt>
      <trkpt lat="43.05127699999935" lon="-1.2679440000000022">
        <ele>1243.682</ele>
        <time>2022-08-24T09:56:56Z</time>
      </trkpt>
      <trkpt lat="43.05125199999935" lon="-1.2679510000000023">
        <ele>1243.648</ele>
        <time>2022-08-24T09:56:57Z</time>
      </trkpt>
      <trkpt lat="43.05122899999935" lon="-1.2679540000000022">
        <ele>1243.650</ele>
        <time>2022-08-24T09:56:58Z</time>
      </trkpt>
      <trkpt lat="43.05120899999935" lon="-1.2679490000000022">
        <ele>1243.877</ele>
        <time>2022-08-24T09:56:59Z</time>
      </trkpt>
      <trkpt lat="43.05118799999936" lon="-1.2679470000000022">
        <ele>1244.070</ele>
        <time>2022-08-24T09:57:00Z</time>
      </trkpt>
      <trkpt lat="43.05116699999936" lon="-1.267951000000002">
        <ele>1244.044</ele>
        <time>2022-08-24T09:57:01Z</time>
      </trkpt>
      <trkpt lat="43.05114499999936" lon="-1.2679610000000021">
        <ele>1244.263</ele>
        <time>2022-08-24T09:57:02Z</time>
      </trkpt>
      <trkpt lat="43.05112599999936" lon="-1.267967000000002">
        <ele>1244.257</ele>
        <time>2022-08-24T09:57:03Z</time>
      </trkpt>
      <trkpt lat="43.051109999999355" lon="-1.267972000000002">
        <ele>1244.400</ele>
        <time>2022-08-24T09:57:04Z</time>
      </trkpt>
      <trkpt lat="43.05109399999935" lon="-1.267976000000002">
        <ele>1244.420</ele>
        <time>2022-08-24T09:57:05Z</time>
      </trkpt>
      <trkpt lat="43.051078999999355" lon="-1.267979000000002">
        <ele>1244.609</ele>
        <time>2022-08-24T09:57:06Z</time>
      </trkpt>
      <trkpt lat="43.05106399999936" lon="-1.267984000000002">
        <ele>1244.656</ele>
        <time>2022-08-24T09:57:07Z</time>
      </trkpt>
      <trkpt lat="43.05104899999936" lon="-1.267990000000002">
        <ele>1244.666</ele>
        <time>2022-08-24T09:57:08Z</time>
      </trkpt>
      <trkpt lat="43.05103299999936" lon="-1.267995000000002">
        <ele>1244.866</ele>
        <time>2022-08-24T09:57:09Z</time>
      </trkpt>
      <trkpt lat="43.05100099999936" lon="-1.268009000000002">
        <ele>1245.052</ele>
        <time>2022-08-24T09:57:11Z</time>
      </trkpt>
      <trkpt lat="43.05089699999936" lon="-1.268069000000002">
        <ele>1245.884</ele>
        <time>2022-08-24T09:57:16Z</time>
      </trkpt>
      <trkpt lat="43.050841999999356" lon="-1.2681210000000018">
        <ele>1246.011</ele>
        <time>2022-08-24T09:57:18Z</time>
      </trkpt>
      <trkpt lat="43.05081499999935" lon="-1.2681530000000019">
        <ele>1246.074</ele>
        <time>2022-08-24T09:57:19Z</time>
      </trkpt>
      <trkpt lat="43.05079299999935" lon="-1.2681880000000019">
        <ele>1246.058</ele>
        <time>2022-08-24T09:57:20Z</time>
      </trkpt>
      <trkpt lat="43.05077699999935" lon="-1.2682240000000018">
        <ele>1246.077</ele>
        <time>2022-08-24T09:57:21Z</time>
      </trkpt>
      <trkpt lat="43.05075799999935" lon="-1.2682550000000017">
        <ele>1246.053</ele>
        <time>2022-08-24T09:57:22Z</time>
      </trkpt>
      <trkpt lat="43.05073599999935" lon="-1.2682780000000018">
        <ele>1246.004</ele>
        <time>2022-08-24T09:57:23Z</time>
      </trkpt>
      <trkpt lat="43.050713999999346" lon="-1.2682920000000018">
        <ele>1246.014</ele>
        <time>2022-08-24T09:57:24Z</time>
      </trkpt>
      <trkpt lat="43.050691999999344" lon="-1.2683030000000017">
        <ele>1246.009</ele>
        <time>2022-08-24T09:57:25Z</time>
      </trkpt>
      <trkpt lat="43.050671999999345" lon="-1.2683110000000017">
        <ele>1246.066</ele>
        <time>2022-08-24T09:57:26Z</time>
      </trkpt>
      <trkpt lat="43.05065099999935" lon="-1.2683150000000016">
        <ele>1246.246</ele>
        <time>2022-08-24T09:57:27Z</time>
      </trkpt>
      <trkpt lat="43.05063199999935" lon="-1.2683200000000017">
        <ele>1246.256</ele>
        <time>2022-08-24T09:57:28Z</time>
      </trkpt>
      <trkpt lat="43.05061399999935" lon="-1.2683290000000016">
        <ele>1246.482</ele>
        <time>2022-08-24T09:57:29Z</time>
      </trkpt>
      <trkpt lat="43.05059799999935" lon="-1.2683380000000015">
        <ele>1246.414</ele>
        <time>2022-08-24T09:57:30Z</time>
      </trkpt>
      <trkpt lat="43.05058299999935" lon="-1.2683460000000015">
        <ele>1246.651</ele>
        <time>2022-08-24T09:57:31Z</time>
      </trkpt>
      <trkpt lat="43.05056699999935" lon="-1.2683510000000016">
        <ele>1247.024</ele>
        <time>2022-08-24T09:57:32Z</time>
      </trkpt>
      <trkpt lat="43.05055199999935" lon="-1.2683580000000017">
        <ele>1247.028</ele>
        <time>2022-08-24T09:57:33Z</time>
      </trkpt>
      <trkpt lat="43.05053399999935" lon="-1.2683640000000016">
        <ele>1247.257</ele>
        <time>2022-08-24T09:57:34Z</time>
      </trkpt>
      <trkpt lat="43.05051799999935" lon="-1.2683720000000016">
        <ele>1247.222</ele>
        <time>2022-08-24T09:57:35Z</time>
      </trkpt>
      <trkpt lat="43.05049299999935" lon="-1.2683940000000016">
        <ele>1247.662</ele>
        <time>2022-08-24T09:57:37Z</time>
      </trkpt>
      <trkpt lat="43.05048099999935" lon="-1.2684080000000015">
        <ele>1247.808</ele>
        <time>2022-08-24T09:57:38Z</time>
      </trkpt>
      <trkpt lat="43.05047099999935" lon="-1.2684220000000015">
        <ele>1248.009</ele>
        <time>2022-08-24T09:57:39Z</time>
      </trkpt>
      <trkpt lat="43.05045999999935" lon="-1.2684300000000015">
        <ele>1248.273</ele>
        <time>2022-08-24T09:57:40Z</time>
      </trkpt>
      <trkpt lat="43.05043399999935" lon="-1.2684300000000015">
        <ele>1248.653</ele>
        <time>2022-08-24T09:57:42Z</time>
      </trkpt>
      <trkpt lat="43.05041899999935" lon="-1.2684240000000016">
        <ele>1248.863</ele>
        <time>2022-08-24T09:57:43Z</time>
      </trkpt>
      <trkpt lat="43.05040499999935" lon="-1.2684170000000015">
        <ele>1249.239</ele>
        <time>2022-08-24T09:57:44Z</time>
      </trkpt>
      <trkpt lat="43.05039099999935" lon="-1.2684110000000015">
        <ele>1249.841</ele>
        <time>2022-08-24T09:57:45Z</time>
      </trkpt>
      <trkpt lat="43.05037699999935" lon="-1.2684040000000014">
        <ele>1250.058</ele>
        <time>2022-08-24T09:57:46Z</time>
      </trkpt>
      <trkpt lat="43.05036099999935" lon="-1.2683970000000013">
        <ele>1250.211</ele>
        <time>2022-08-24T09:57:47Z</time>
      </trkpt>
      <trkpt lat="43.05034999999935" lon="-1.2683890000000013">
        <ele>1250.425</ele>
        <time>2022-08-24T09:57:48Z</time>
      </trkpt>
      <trkpt lat="43.05033799999935" lon="-1.2683780000000013">
        <ele>1250.664</ele>
        <time>2022-08-24T09:57:49Z</time>
      </trkpt>
      <trkpt lat="43.05032699999935" lon="-1.2683680000000013">
        <ele>1250.637</ele>
        <time>2022-08-24T09:57:50Z</time>
      </trkpt>
      <trkpt lat="43.050316999999346" lon="-1.2683550000000012">
        <ele>1251.049</ele>
        <time>2022-08-24T09:57:51Z</time>
      </trkpt>
      <trkpt lat="43.050305999999345" lon="-1.2683450000000012">
        <ele>1251.213</ele>
        <time>2022-08-24T09:57:52Z</time>
      </trkpt>
      <trkpt lat="43.05029399999935" lon="-1.268335000000001">
        <ele>1251.409</ele>
        <time>2022-08-24T09:57:53Z</time>
      </trkpt>
      <trkpt lat="43.05028299999935" lon="-1.2683260000000012">
        <ele>1251.474</ele>
        <time>2022-08-24T09:57:54Z</time>
      </trkpt>
      <trkpt lat="43.050269999999344" lon="-1.268319000000001">
        <ele>1251.684</ele>
        <time>2022-08-24T09:57:55Z</time>
      </trkpt>
      <trkpt lat="43.05025999999934" lon="-1.268311000000001">
        <ele>1251.874</ele>
        <time>2022-08-24T09:57:56Z</time>
      </trkpt>
      <trkpt lat="43.05024999999934" lon="-1.268304000000001">
        <ele>1252.240</ele>
        <time>2022-08-24T09:57:57Z</time>
      </trkpt>
      <trkpt lat="43.05023799999934" lon="-1.268300000000001">
        <ele>1252.482</ele>
        <time>2022-08-24T09:57:58Z</time>
      </trkpt>
      <trkpt lat="43.05022699999934" lon="-1.268293000000001">
        <ele>1252.889</ele>
        <time>2022-08-24T09:57:59Z</time>
      </trkpt>
      <trkpt lat="43.050216999999336" lon="-1.268285000000001">
        <ele>1252.662</ele>
        <time>2022-08-24T09:58:00Z</time>
      </trkpt>
      <trkpt lat="43.05020699999933" lon="-1.268278000000001">
        <ele>1253.096</ele>
        <time>2022-08-24T09:58:01Z</time>
      </trkpt>
      <trkpt lat="43.05019699999933" lon="-1.268272000000001">
        <ele>1253.235</ele>
        <time>2022-08-24T09:58:02Z</time>
      </trkpt>
      <trkpt lat="43.05018599999933" lon="-1.2682620000000009">
        <ele>1253.438</ele>
        <time>2022-08-24T09:58:03Z</time>
      </trkpt>
      <trkpt lat="43.05017499999933" lon="-1.268250000000001">
        <ele>1253.670</ele>
        <time>2022-08-24T09:58:04Z</time>
      </trkpt>
      <trkpt lat="43.05016399999933" lon="-1.268238000000001">
        <ele>1253.617</ele>
        <time>2022-08-24T09:58:05Z</time>
      </trkpt>
      <trkpt lat="43.05015299999933" lon="-1.268227000000001">
        <ele>1253.609</ele>
        <time>2022-08-24T09:58:06Z</time>
      </trkpt>
      <trkpt lat="43.050139999999324" lon="-1.268222000000001">
        <ele>1253.844</ele>
        <time>2022-08-24T09:58:07Z</time>
      </trkpt>
      <trkpt lat="43.05012899999932" lon="-1.268215000000001">
        <ele>1253.844</ele>
        <time>2022-08-24T09:58:08Z</time>
      </trkpt>
      <trkpt lat="43.050116999999325" lon="-1.268206000000001">
        <ele>1254.074</ele>
        <time>2022-08-24T09:58:09Z</time>
      </trkpt>
      <trkpt lat="43.05010499999933" lon="-1.268193000000001">
        <ele>1254.030</ele>
        <time>2022-08-24T09:58:10Z</time>
      </trkpt>
      <trkpt lat="43.050094999999324" lon="-1.268183000000001">
        <ele>1254.252</ele>
        <time>2022-08-24T09:58:11Z</time>
      </trkpt>
      <trkpt lat="43.05008399999932" lon="-1.268175000000001">
        <ele>1254.279</ele>
        <time>2022-08-24T09:58:12Z</time>
      </trkpt>
      <trkpt lat="43.050071999999325" lon="-1.2681680000000009">
        <ele>1254.662</ele>
        <time>2022-08-24T09:58:13Z</time>
      </trkpt>
      <trkpt lat="43.05006199999932" lon="-1.268159000000001">
        <ele>1254.616</ele>
        <time>2022-08-24T09:58:14Z</time>
      </trkpt>
      <trkpt lat="43.05005199999932" lon="-1.2681490000000009">
        <ele>1254.875</ele>
        <time>2022-08-24T09:58:15Z</time>
      </trkpt>
      <trkpt lat="43.05004099999932" lon="-1.268140000000001">
        <ele>1255.087</ele>
        <time>2022-08-24T09:58:16Z</time>
      </trkpt>
      <trkpt lat="43.05002999999932" lon="-1.268132000000001">
        <ele>1255.242</ele>
        <time>2022-08-24T09:58:17Z</time>
      </trkpt>
      <trkpt lat="43.05001899999932" lon="-1.268123000000001">
        <ele>1255.426</ele>
        <time>2022-08-24T09:58:18Z</time>
      </trkpt>
      <trkpt lat="43.050007999999316" lon="-1.268115000000001">
        <ele>1255.609</ele>
        <time>2022-08-24T09:58:19Z</time>
      </trkpt>
      <trkpt lat="43.049996999999316" lon="-1.268104000000001">
        <ele>1255.849</ele>
        <time>2022-08-24T09:58:20Z</time>
      </trkpt>
      <trkpt lat="43.049985999999315" lon="-1.268092000000001">
        <ele>1255.869</ele>
        <time>2022-08-24T09:58:21Z</time>
      </trkpt>
      <trkpt lat="43.04997299999931" lon="-1.2680830000000012">
        <ele>1256.029</ele>
        <time>2022-08-24T09:58:22Z</time>
      </trkpt>
      <trkpt lat="43.049960999999314" lon="-1.2680730000000011">
        <ele>1256.255</ele>
        <time>2022-08-24T09:58:23Z</time>
      </trkpt>
      <trkpt lat="43.04994799999931" lon="-1.268063000000001">
        <ele>1256.267</ele>
        <time>2022-08-24T09:58:24Z</time>
      </trkpt>
      <trkpt lat="43.04993599999931" lon="-1.268053000000001">
        <ele>1256.224</ele>
        <time>2022-08-24T09:58:25Z</time>
      </trkpt>
      <trkpt lat="43.04992499999931" lon="-1.268043000000001">
        <ele>1256.247</ele>
        <time>2022-08-24T09:58:26Z</time>
      </trkpt>
      <trkpt lat="43.04991399999931" lon="-1.268031000000001">
        <ele>1256.231</ele>
        <time>2022-08-24T09:58:27Z</time>
      </trkpt>
      <trkpt lat="43.04990399999931" lon="-1.268017000000001">
        <ele>1256.440</ele>
        <time>2022-08-24T09:58:28Z</time>
      </trkpt>
      <trkpt lat="43.04989199999931" lon="-1.2680050000000012">
        <ele>1256.477</ele>
        <time>2022-08-24T09:58:29Z</time>
      </trkpt>
      <trkpt lat="43.04988199999931" lon="-1.2679920000000011">
        <ele>1256.461</ele>
        <time>2022-08-24T09:58:30Z</time>
      </trkpt>
      <trkpt lat="43.049871999999304" lon="-1.2679800000000012">
        <ele>1256.427</ele>
        <time>2022-08-24T09:58:31Z</time>
      </trkpt>
      <trkpt lat="43.0498619999993" lon="-1.2679690000000012">
        <ele>1256.409</ele>
        <time>2022-08-24T09:58:32Z</time>
      </trkpt>
      <trkpt lat="43.0498529999993" lon="-1.2679560000000012">
        <ele>1256.418</ele>
        <time>2022-08-24T09:58:33Z</time>
      </trkpt>
      <trkpt lat="43.0498449999993" lon="-1.2679390000000013">
        <ele>1256.458</ele>
        <time>2022-08-24T09:58:34Z</time>
      </trkpt>
      <trkpt lat="43.0498389999993" lon="-1.2679220000000013">
        <ele>1256.478</ele>
        <time>2022-08-24T09:58:35Z</time>
      </trkpt>
      <trkpt lat="43.049831999999306" lon="-1.2679040000000013">
        <ele>1256.624</ele>
        <time>2022-08-24T09:58:36Z</time>
      </trkpt>
      <trkpt lat="43.04982299999931" lon="-1.2678850000000013">
        <ele>1256.626</ele>
        <time>2022-08-24T09:58:37Z</time>
      </trkpt>
      <trkpt lat="43.04981399999931" lon="-1.2678660000000013">
        <ele>1256.873</ele>
        <time>2022-08-24T09:58:38Z</time>
      </trkpt>
      <trkpt lat="43.04980599999931" lon="-1.2678470000000013">
        <ele>1256.856</ele>
        <time>2022-08-24T09:58:39Z</time>
      </trkpt>
      <trkpt lat="43.04979099999931" lon="-1.2678070000000012">
        <ele>1256.860</ele>
        <time>2022-08-24T09:58:41Z</time>
      </trkpt>
      <trkpt lat="43.04976199999931" lon="-1.2677190000000012">
        <ele>1256.829</ele>
        <time>2022-08-24T09:58:45Z</time>
      </trkpt>
      <trkpt lat="43.04975199999931" lon="-1.2676970000000012">
        <ele>1256.858</ele>
        <time>2022-08-24T09:58:46Z</time>
      </trkpt>
      <trkpt lat="43.04972399999931" lon="-1.2676300000000011">
        <ele>1257.052</ele>
        <time>2022-08-24T09:58:49Z</time>
      </trkpt>
      <trkpt lat="43.04970699999931" lon="-1.2675810000000012">
        <ele>1257.017</ele>
        <time>2022-08-24T09:58:51Z</time>
      </trkpt>
      <trkpt lat="43.049696999999306" lon="-1.2675570000000012">
        <ele>1257.009</ele>
        <time>2022-08-24T09:58:52Z</time>
      </trkpt>
      <trkpt lat="43.049677999999304" lon="-1.267509000000001">
        <ele>1257.236</ele>
        <time>2022-08-24T09:58:54Z</time>
      </trkpt>
      <trkpt lat="43.049626999999305" lon="-1.2674110000000012">
        <ele>1257.496</ele>
        <time>2022-08-24T09:58:58Z</time>
      </trkpt>
      <trkpt lat="43.04956399999931" lon="-1.267312000000001">
        <ele>1257.666</ele>
        <time>2022-08-24T09:59:02Z</time>
      </trkpt>
      <trkpt lat="43.049547999999305" lon="-1.2672870000000012">
        <ele>1257.662</ele>
        <time>2022-08-24T09:59:03Z</time>
      </trkpt>
      <trkpt lat="43.04953299999931" lon="-1.2672630000000011">
        <ele>1257.644</ele>
        <time>2022-08-24T09:59:04Z</time>
      </trkpt>
      <trkpt lat="43.04950099999931" lon="-1.2672160000000012">
        <ele>1257.681</ele>
        <time>2022-08-24T09:59:06Z</time>
      </trkpt>
      <trkpt lat="43.04948799999931" lon="-1.2671930000000011">
        <ele>1257.474</ele>
        <time>2022-08-24T09:59:07Z</time>
      </trkpt>
      <trkpt lat="43.04947599999931" lon="-1.2671680000000012">
        <ele>1257.458</ele>
        <time>2022-08-24T09:59:08Z</time>
      </trkpt>
      <trkpt lat="43.04946099999931" lon="-1.2671440000000012">
        <ele>1257.457</ele>
        <time>2022-08-24T09:59:09Z</time>
      </trkpt>
      <trkpt lat="43.049380999999315" lon="-1.2670190000000012">
        <ele>1257.632</ele>
        <time>2022-08-24T09:59:14Z</time>
      </trkpt>
      <trkpt lat="43.049366999999314" lon="-1.2669940000000013">
        <ele>1257.692</ele>
        <time>2022-08-24T09:59:15Z</time>
      </trkpt>
      <trkpt lat="43.04935199999932" lon="-1.2669690000000013">
        <ele>1257.611</ele>
        <time>2022-08-24T09:59:16Z</time>
      </trkpt>
      <trkpt lat="43.04933699999932" lon="-1.2669460000000012">
        <ele>1257.609</ele>
        <time>2022-08-24T09:59:17Z</time>
      </trkpt>
      <trkpt lat="43.04932099999932" lon="-1.2669230000000011">
        <ele>1257.684</ele>
        <time>2022-08-24T09:59:18Z</time>
      </trkpt>
      <trkpt lat="43.049304999999315" lon="-1.266900000000001">
        <ele>1257.644</ele>
        <time>2022-08-24T09:59:19Z</time>
      </trkpt>
      <trkpt lat="43.049287999999315" lon="-1.266879000000001">
        <ele>1257.634</ele>
        <time>2022-08-24T09:59:20Z</time>
      </trkpt>
      <trkpt lat="43.04925599999932" lon="-1.266836000000001">
        <ele>1257.660</ele>
        <time>2022-08-24T09:59:22Z</time>
      </trkpt>
      <trkpt lat="43.04924099999932" lon="-1.266814000000001">
        <ele>1257.842</ele>
        <time>2022-08-24T09:59:23Z</time>
      </trkpt>
      <trkpt lat="43.04921199999932" lon="-1.266774000000001">
        <ele>1257.889</ele>
        <time>2022-08-24T09:59:25Z</time>
      </trkpt>
      <trkpt lat="43.049196999999324" lon="-1.266753000000001">
        <ele>1257.832</ele>
        <time>2022-08-24T09:59:26Z</time>
      </trkpt>
      <trkpt lat="43.04916099999932" lon="-1.266707000000001">
        <ele>1257.876</ele>
        <time>2022-08-24T09:59:28Z</time>
      </trkpt>
      <trkpt lat="43.04897899999932" lon="-1.2664810000000009">
        <ele>1258.045</ele>
        <time>2022-08-24T09:59:38Z</time>
      </trkpt>
      <trkpt lat="43.04894099999932" lon="-1.266434000000001">
        <ele>1258.036</ele>
        <time>2022-08-24T09:59:40Z</time>
      </trkpt>
      <trkpt lat="43.04892299999932" lon="-1.266412000000001">
        <ele>1258.417</ele>
        <time>2022-08-24T09:59:41Z</time>
      </trkpt>
      <trkpt lat="43.04890699999932" lon="-1.266392000000001">
        <ele>1258.418</ele>
        <time>2022-08-24T09:59:42Z</time>
      </trkpt>
      <trkpt lat="43.04888999999932" lon="-1.266371000000001">
        <ele>1258.409</ele>
        <time>2022-08-24T09:59:43Z</time>
      </trkpt>
      <trkpt lat="43.04887299999932" lon="-1.266353000000001">
        <ele>1258.474</ele>
        <time>2022-08-24T09:59:44Z</time>
      </trkpt>
      <trkpt lat="43.04885799999932" lon="-1.2663350000000009">
        <ele>1258.474</ele>
        <time>2022-08-24T09:59:45Z</time>
      </trkpt>
      <trkpt lat="43.04884599999932" lon="-1.266318000000001">
        <ele>1258.464</ele>
        <time>2022-08-24T09:59:46Z</time>
      </trkpt>
      <trkpt lat="43.04883299999932" lon="-1.266301000000001">
        <ele>1258.480</ele>
        <time>2022-08-24T09:59:47Z</time>
      </trkpt>
      <trkpt lat="43.04882099999932" lon="-1.266285000000001">
        <ele>1258.422</ele>
        <time>2022-08-24T09:59:48Z</time>
      </trkpt>
      <trkpt lat="43.04880999999932" lon="-1.266271000000001">
        <ele>1258.449</ele>
        <time>2022-08-24T09:59:49Z</time>
      </trkpt>
      <trkpt lat="43.04880099999932" lon="-1.266260000000001">
        <ele>1258.642</ele>
        <time>2022-08-24T09:59:50Z</time>
      </trkpt>
      <trkpt lat="43.04879099999932" lon="-1.266246000000001">
        <ele>1258.646</ele>
        <time>2022-08-24T09:59:51Z</time>
      </trkpt>
      <trkpt lat="43.04877999999932" lon="-1.266231000000001">
        <ele>1258.685</ele>
        <time>2022-08-24T09:59:52Z</time>
      </trkpt>
      <trkpt lat="43.04876499999932" lon="-1.266211000000001">
        <ele>1258.634</ele>
        <time>2022-08-24T09:59:53Z</time>
      </trkpt>
      <trkpt lat="43.04871899999932" lon="-1.266142000000001">
        <ele>1258.855</ele>
        <time>2022-08-24T09:59:56Z</time>
      </trkpt>
      <trkpt lat="43.048605999999324" lon="-1.265989000000001">
        <ele>1259.010</ele>
        <time>2022-08-24T10:00:02Z</time>
      </trkpt>
      <trkpt lat="43.04858799999933" lon="-1.2659680000000009">
        <ele>1259.209</ele>
        <time>2022-08-24T10:00:03Z</time>
      </trkpt>
      <trkpt lat="43.04857599999933" lon="-1.265943000000001">
        <ele>1259.254</ele>
        <time>2022-08-24T10:00:04Z</time>
      </trkpt>
      <trkpt lat="43.04856299999933" lon="-1.2659200000000008">
        <ele>1259.284</ele>
        <time>2022-08-24T10:00:05Z</time>
      </trkpt>
      <trkpt lat="43.04854799999933" lon="-1.2658990000000008">
        <ele>1259.234</ele>
        <time>2022-08-24T10:00:06Z</time>
      </trkpt>
      <trkpt lat="43.04851099999933" lon="-1.2658560000000008">
        <ele>1259.430</ele>
        <time>2022-08-24T10:00:08Z</time>
      </trkpt>
      <trkpt lat="43.04848799999933" lon="-1.2658400000000007">
        <ele>1259.692</ele>
        <time>2022-08-24T10:00:09Z</time>
      </trkpt>
      <trkpt lat="43.048466999999334" lon="-1.2658230000000008">
        <ele>1259.649</ele>
        <time>2022-08-24T10:00:10Z</time>
      </trkpt>
      <trkpt lat="43.04844599999934" lon="-1.2658080000000007">
        <ele>1259.862</ele>
        <time>2022-08-24T10:00:11Z</time>
      </trkpt>
      <trkpt lat="43.04842499999934" lon="-1.2657910000000008">
        <ele>1259.896</ele>
        <time>2022-08-24T10:00:12Z</time>
      </trkpt>
      <trkpt lat="43.048341999999344" lon="-1.2657200000000008">
        <ele>1260.475</ele>
        <time>2022-08-24T10:00:16Z</time>
      </trkpt>
      <trkpt lat="43.04831999999934" lon="-1.2657010000000009">
        <ele>1260.415</ele>
        <time>2022-08-24T10:00:17Z</time>
      </trkpt>
      <trkpt lat="43.048251999999344" lon="-1.2656400000000008">
        <ele>1260.465</ele>
        <time>2022-08-24T10:00:20Z</time>
      </trkpt>
      <trkpt lat="43.04820499999934" lon="-1.2656020000000008">
        <ele>1260.411</ele>
        <time>2022-08-24T10:00:22Z</time>
      </trkpt>
      <trkpt lat="43.04818199999934" lon="-1.2655840000000007">
        <ele>1260.609</ele>
        <time>2022-08-24T10:00:23Z</time>
      </trkpt>
      <trkpt lat="43.04815999999934" lon="-1.2655680000000007">
        <ele>1260.662</ele>
        <time>2022-08-24T10:00:24Z</time>
      </trkpt>
      <trkpt lat="43.04813799999934" lon="-1.2655530000000006">
        <ele>1260.852</ele>
        <time>2022-08-24T10:00:25Z</time>
      </trkpt>
      <trkpt lat="43.04811799999934" lon="-1.2655390000000006">
        <ele>1260.822</ele>
        <time>2022-08-24T10:00:26Z</time>
      </trkpt>
      <trkpt lat="43.048096999999345" lon="-1.2655280000000007">
        <ele>1261.068</ele>
        <time>2022-08-24T10:00:27Z</time>
      </trkpt>
      <trkpt lat="43.04807899999935" lon="-1.2655140000000007">
        <ele>1261.040</ele>
        <time>2022-08-24T10:00:28Z</time>
      </trkpt>
      <trkpt lat="43.04806199999935" lon="-1.2655010000000007">
        <ele>1261.077</ele>
        <time>2022-08-24T10:00:29Z</time>
      </trkpt>
      <trkpt lat="43.04804799999935" lon="-1.2654880000000006">
        <ele>1261.020</ele>
        <time>2022-08-24T10:00:30Z</time>
      </trkpt>
      <trkpt lat="43.048034999999345" lon="-1.2654740000000007">
        <ele>1261.294</ele>
        <time>2022-08-24T10:00:31Z</time>
      </trkpt>
      <trkpt lat="43.04802299999935" lon="-1.2654620000000008">
        <ele>1261.473</ele>
        <time>2022-08-24T10:00:32Z</time>
      </trkpt>
      <trkpt lat="43.04800899999935" lon="-1.2654550000000007">
        <ele>1261.414</ele>
        <time>2022-08-24T10:00:33Z</time>
      </trkpt>
      <trkpt lat="43.047992999999344" lon="-1.2654470000000007">
        <ele>1261.454</ele>
        <time>2022-08-24T10:00:34Z</time>
      </trkpt>
      <trkpt lat="43.047978999999344" lon="-1.2654390000000006">
        <ele>1261.209</ele>
        <time>2022-08-24T10:00:35Z</time>
      </trkpt>
      <trkpt lat="43.047966999999346" lon="-1.2654310000000006">
        <ele>1261.209</ele>
        <time>2022-08-24T10:00:36Z</time>
      </trkpt>
      <trkpt lat="43.04795699999934" lon="-1.2654230000000006">
        <ele>1261.222</ele>
        <time>2022-08-24T10:00:37Z</time>
      </trkpt>
      <trkpt lat="43.047944999999345" lon="-1.2654140000000007">
        <ele>1261.282</ele>
        <time>2022-08-24T10:00:38Z</time>
      </trkpt>
      <trkpt lat="43.04793499999934" lon="-1.2654100000000008">
        <ele>1261.232</ele>
        <time>2022-08-24T10:00:39Z</time>
      </trkpt>
      <trkpt lat="43.04792499999934" lon="-1.265406000000001">
        <ele>1261.068</ele>
        <time>2022-08-24T10:00:40Z</time>
      </trkpt>
      <trkpt lat="43.04791799999934" lon="-1.2654010000000009">
        <ele>1261.030</ele>
        <time>2022-08-24T10:00:41Z</time>
      </trkpt>
      <trkpt lat="43.04790899999934" lon="-1.265398000000001">
        <ele>1261.057</ele>
        <time>2022-08-24T10:00:42Z</time>
      </trkpt>
      <trkpt lat="43.04790099999934" lon="-1.265389000000001">
        <ele>1261.060</ele>
        <time>2022-08-24T10:00:43Z</time>
      </trkpt>
      <trkpt lat="43.04789599999934" lon="-1.265378000000001">
        <ele>1261.084</ele>
        <time>2022-08-24T10:00:44Z</time>
      </trkpt>
      <trkpt lat="43.04788699999934" lon="-1.265370000000001">
        <ele>1261.093</ele>
        <time>2022-08-24T10:00:45Z</time>
      </trkpt>
      <trkpt lat="43.047874999999344" lon="-1.265362000000001">
        <ele>1261.075</ele>
        <time>2022-08-24T10:00:46Z</time>
      </trkpt>
      <trkpt lat="43.047848999999346" lon="-1.265346000000001">
        <ele>1261.028</ele>
        <time>2022-08-24T10:00:48Z</time>
      </trkpt>
      <trkpt lat="43.04782799999935" lon="-1.265333000000001">
        <ele>1261.220</ele>
        <time>2022-08-24T10:00:49Z</time>
      </trkpt>
      <trkpt lat="43.04775799999935" lon="-1.265293000000001">
        <ele>1261.409</ele>
        <time>2022-08-24T10:00:52Z</time>
      </trkpt>
      <trkpt lat="43.047612999999345" lon="-1.2651910000000008">
        <ele>1261.628</ele>
        <time>2022-08-24T10:00:58Z</time>
      </trkpt>
      <trkpt lat="43.047589999999346" lon="-1.2651760000000007">
        <ele>1261.858</ele>
        <time>2022-08-24T10:00:59Z</time>
      </trkpt>
      <trkpt lat="43.047525999999344" lon="-1.2651290000000008">
        <ele>1261.878</ele>
        <time>2022-08-24T10:01:02Z</time>
      </trkpt>
      <trkpt lat="43.047502999999345" lon="-1.2651160000000008">
        <ele>1262.074</ele>
        <time>2022-08-24T10:01:03Z</time>
      </trkpt>
      <trkpt lat="43.04747999999935" lon="-1.2651010000000007">
        <ele>1262.076</ele>
        <time>2022-08-24T10:01:04Z</time>
      </trkpt>
      <trkpt lat="43.04745899999935" lon="-1.2650880000000007">
        <ele>1262.283</ele>
        <time>2022-08-24T10:01:05Z</time>
      </trkpt>
      <trkpt lat="43.04743899999935" lon="-1.2650770000000007">
        <ele>1262.296</ele>
        <time>2022-08-24T10:01:06Z</time>
      </trkpt>
      <trkpt lat="43.04741999999935" lon="-1.2650650000000008">
        <ele>1262.280</ele>
        <time>2022-08-24T10:01:07Z</time>
      </trkpt>
      <trkpt lat="43.04740099999935" lon="-1.2650520000000007">
        <ele>1262.429</ele>
        <time>2022-08-24T10:01:08Z</time>
      </trkpt>
      <trkpt lat="43.04733499999935" lon="-1.2650150000000007">
        <ele>1262.866</ele>
        <time>2022-08-24T10:01:11Z</time>
      </trkpt>
      <trkpt lat="43.04729299999935" lon="-1.2649960000000007">
        <ele>1263.029</ele>
        <time>2022-08-24T10:01:13Z</time>
      </trkpt>
      <trkpt lat="43.04726699999935" lon="-1.2649810000000006">
        <ele>1263.221</ele>
        <time>2022-08-24T10:01:14Z</time>
      </trkpt>
      <trkpt lat="43.04721399999935" lon="-1.2649500000000007">
        <ele>1263.209</ele>
        <time>2022-08-24T10:01:16Z</time>
      </trkpt>
      <trkpt lat="43.04719199999935" lon="-1.2649420000000007">
        <ele>1263.687</ele>
        <time>2022-08-24T10:01:17Z</time>
      </trkpt>
      <trkpt lat="43.04717099999935" lon="-1.2649340000000007">
        <ele>1263.677</ele>
        <time>2022-08-24T10:01:18Z</time>
      </trkpt>
      <trkpt lat="43.047152999999355" lon="-1.2649220000000008">
        <ele>1264.067</ele>
        <time>2022-08-24T10:01:19Z</time>
      </trkpt>
      <trkpt lat="43.04713499999936" lon="-1.2649080000000008">
        <ele>1264.033</ele>
        <time>2022-08-24T10:01:20Z</time>
      </trkpt>
      <trkpt lat="43.047110999999354" lon="-1.2648970000000008">
        <ele>1264.015</ele>
        <time>2022-08-24T10:01:21Z</time>
      </trkpt>
      <trkpt lat="43.04708999999936" lon="-1.264885000000001">
        <ele>1264.012</ele>
        <time>2022-08-24T10:01:22Z</time>
      </trkpt>
      <trkpt lat="43.047073999999355" lon="-1.264876000000001">
        <ele>1264.295</ele>
        <time>2022-08-24T10:01:23Z</time>
      </trkpt>
      <trkpt lat="43.047053999999356" lon="-1.264863000000001">
        <ele>1264.289</ele>
        <time>2022-08-24T10:01:24Z</time>
      </trkpt>
      <trkpt lat="43.04703699999936" lon="-1.2648480000000009">
        <ele>1264.428</ele>
        <time>2022-08-24T10:01:25Z</time>
      </trkpt>
      <trkpt lat="43.047022999999356" lon="-1.2648350000000008">
        <ele>1264.471</ele>
        <time>2022-08-24T10:01:26Z</time>
      </trkpt>
      <trkpt lat="43.04700799999936" lon="-1.2648240000000008">
        <ele>1264.641</ele>
        <time>2022-08-24T10:01:27Z</time>
      </trkpt>
      <trkpt lat="43.04698899999936" lon="-1.2648140000000008">
        <ele>1264.415</ele>
        <time>2022-08-24T10:01:28Z</time>
      </trkpt>
      <trkpt lat="43.046975999999354" lon="-1.2648040000000007">
        <ele>1264.609</ele>
        <time>2022-08-24T10:01:29Z</time>
      </trkpt>
      <trkpt lat="43.04695799999936" lon="-1.2647880000000007">
        <ele>1264.838</ele>
        <time>2022-08-24T10:01:30Z</time>
      </trkpt>
      <trkpt lat="43.04694399999936" lon="-1.2647820000000007">
        <ele>1264.878</ele>
        <time>2022-08-24T10:01:31Z</time>
      </trkpt>
      <trkpt lat="43.04692899999936" lon="-1.2647710000000008">
        <ele>1265.068</ele>
        <time>2022-08-24T10:01:32Z</time>
      </trkpt>
      <trkpt lat="43.04691499999936" lon="-1.2647660000000007">
        <ele>1265.224</ele>
        <time>2022-08-24T10:01:33Z</time>
      </trkpt>
      <trkpt lat="43.04691199999936" lon="-1.2647610000000007">
        <ele>1265.236</ele>
        <time>2022-08-24T10:01:34Z</time>
      </trkpt>
      <trkpt lat="43.04689499999936" lon="-1.2647380000000006">
        <ele>1264.893</ele>
        <time>2022-08-24T10:03:46Z</time>
      </trkpt>
      <trkpt lat="43.04689499999936" lon="-1.2647380000000006">
        <ele>1264.846</ele>
        <time>2022-08-24T10:03:47Z</time>
      </trkpt>
      <trkpt lat="43.04689499999936" lon="-1.2647380000000006">
        <ele>1264.840</ele>
        <time>2022-08-24T10:03:48Z</time>
      </trkpt>
      <trkpt lat="43.04689499999936" lon="-1.2647380000000006">
        <ele>1264.849</ele>
        <time>2022-08-24T10:03:49Z</time>
      </trkpt>
      <trkpt lat="43.04689299999936" lon="-1.2647390000000005">
        <ele>1264.866</ele>
        <time>2022-08-24T10:03:50Z</time>
      </trkpt>
      <trkpt lat="43.046876999999355" lon="-1.2647410000000006">
        <ele>1264.629</ele>
        <time>2022-08-24T10:03:51Z</time>
      </trkpt>
      <trkpt lat="43.046842999999356" lon="-1.2647540000000006">
        <ele>1264.621</ele>
        <time>2022-08-24T10:03:53Z</time>
      </trkpt>
      <trkpt lat="43.04683599999936" lon="-1.2647600000000006">
        <ele>1264.409</ele>
        <time>2022-08-24T10:03:54Z</time>
      </trkpt>
      <trkpt lat="43.04683299999936" lon="-1.2647610000000005">
        <ele>1264.287</ele>
        <time>2022-08-24T10:04:00Z</time>
      </trkpt>
      <trkpt lat="43.04681699999936" lon="-1.2647600000000006">
        <ele>1264.217</ele>
        <time>2022-08-24T10:04:01Z</time>
      </trkpt>
      <trkpt lat="43.04666499999936" lon="-1.2647690000000005">
        <ele>1264.657</ele>
        <time>2022-08-24T10:04:08Z</time>
      </trkpt>
      <trkpt lat="43.04660899999936" lon="-1.2647680000000006">
        <ele>1264.613</ele>
        <time>2022-08-24T10:04:10Z</time>
      </trkpt>
      <trkpt lat="43.04652599999936" lon="-1.2647600000000006">
        <ele>1264.695</ele>
        <time>2022-08-24T10:04:14Z</time>
      </trkpt>
      <trkpt lat="43.04645399999936" lon="-1.2647600000000006">
        <ele>1264.452</ele>
        <time>2022-08-24T10:04:17Z</time>
      </trkpt>
      <trkpt lat="43.04643099999936" lon="-1.2647570000000006">
        <ele>1264.425</ele>
        <time>2022-08-24T10:04:18Z</time>
      </trkpt>
      <trkpt lat="43.04635399999936" lon="-1.2647580000000005">
        <ele>1264.229</ele>
        <time>2022-08-24T10:04:21Z</time>
      </trkpt>
      <trkpt lat="43.04632799999936" lon="-1.2647600000000006">
        <ele>1264.228</ele>
        <time>2022-08-24T10:04:22Z</time>
      </trkpt>
      <trkpt lat="43.04630099999936" lon="-1.2647620000000006">
        <ele>1264.222</ele>
        <time>2022-08-24T10:04:23Z</time>
      </trkpt>
      <trkpt lat="43.04627499999936" lon="-1.2647630000000005">
        <ele>1264.262</ele>
        <time>2022-08-24T10:04:24Z</time>
      </trkpt>
      <trkpt lat="43.04624799999936" lon="-1.2647610000000005">
        <ele>1264.208</ele>
        <time>2022-08-24T10:04:25Z</time>
      </trkpt>
      <trkpt lat="43.046175999999356" lon="-1.2647680000000006">
        <ele>1264.609</ele>
        <time>2022-08-24T10:04:28Z</time>
      </trkpt>
      <trkpt lat="43.046153999999355" lon="-1.2647710000000005">
        <ele>1265.013</ele>
        <time>2022-08-24T10:04:29Z</time>
      </trkpt>
      <trkpt lat="43.04613299999936" lon="-1.2647710000000005">
        <ele>1265.043</ele>
        <time>2022-08-24T10:04:30Z</time>
      </trkpt>
      <trkpt lat="43.04611299999936" lon="-1.2647730000000006">
        <ele>1265.243</ele>
        <time>2022-08-24T10:04:31Z</time>
      </trkpt>
      <trkpt lat="43.04609399999936" lon="-1.2647730000000006">
        <ele>1265.229</ele>
        <time>2022-08-24T10:04:32Z</time>
      </trkpt>
      <trkpt lat="43.04607699999936" lon="-1.2647710000000005">
        <ele>1265.241</ele>
        <time>2022-08-24T10:04:33Z</time>
      </trkpt>
      <trkpt lat="43.046057999999356" lon="-1.2647720000000005">
        <ele>1265.248</ele>
        <time>2022-08-24T10:04:34Z</time>
      </trkpt>
      <trkpt lat="43.045992999999356" lon="-1.2647850000000005">
        <ele>1265.241</ele>
        <time>2022-08-24T10:04:37Z</time>
      </trkpt>
      <trkpt lat="43.04597199999936" lon="-1.2647840000000006">
        <ele>1265.245</ele>
        <time>2022-08-24T10:04:38Z</time>
      </trkpt>
      <trkpt lat="43.04595199999936" lon="-1.2647800000000007">
        <ele>1265.274</ele>
        <time>2022-08-24T10:04:39Z</time>
      </trkpt>
      <trkpt lat="43.04593699999936" lon="-1.2647810000000006">
        <ele>1265.046</ele>
        <time>2022-08-24T10:04:40Z</time>
      </trkpt>
      <trkpt lat="43.045921999999365" lon="-1.2647850000000005">
        <ele>1265.088</ele>
        <time>2022-08-24T10:04:41Z</time>
      </trkpt>
      <trkpt lat="43.04590599999936" lon="-1.2647850000000005">
        <ele>1265.016</ele>
        <time>2022-08-24T10:04:42Z</time>
      </trkpt>
      <trkpt lat="43.04588999999936" lon="-1.2647890000000004">
        <ele>1265.209</ele>
        <time>2022-08-24T10:04:43Z</time>
      </trkpt>
      <trkpt lat="43.04587499999936" lon="-1.2647950000000003">
        <ele>1265.245</ele>
        <time>2022-08-24T10:04:44Z</time>
      </trkpt>
      <trkpt lat="43.04585899999936" lon="-1.2647990000000002">
        <ele>1265.425</ele>
        <time>2022-08-24T10:04:45Z</time>
      </trkpt>
      <trkpt lat="43.04576999999936" lon="-1.2648180000000002">
        <ele>1266.055</ele>
        <time>2022-08-24T10:04:50Z</time>
      </trkpt>
      <trkpt lat="43.045756999999355" lon="-1.2648210000000002">
        <ele>1266.021</ele>
        <time>2022-08-24T10:04:51Z</time>
      </trkpt>
      <trkpt lat="43.04574199999936" lon="-1.2648240000000002">
        <ele>1266.253</ele>
        <time>2022-08-24T10:04:52Z</time>
      </trkpt>
      <trkpt lat="43.04572799999936" lon="-1.2648290000000002">
        <ele>1266.240</ele>
        <time>2022-08-24T10:04:53Z</time>
      </trkpt>
      <trkpt lat="43.04571399999936" lon="-1.2648310000000003">
        <ele>1266.893</ele>
        <time>2022-08-24T10:04:54Z</time>
      </trkpt>
      <trkpt lat="43.045700999999355" lon="-1.2648360000000003">
        <ele>1267.267</ele>
        <time>2022-08-24T10:04:55Z</time>
      </trkpt>
      <trkpt lat="43.04563199999935" lon="-1.2648510000000004">
        <ele>1267.846</ele>
        <time>2022-08-24T10:04:59Z</time>
      </trkpt>
      <trkpt lat="43.04559599999935" lon="-1.2648610000000005">
        <ele>1268.244</ele>
        <time>2022-08-24T10:05:01Z</time>
      </trkpt>
      <trkpt lat="43.04557699999935" lon="-1.2648620000000004">
        <ele>1268.205</ele>
        <time>2022-08-24T10:05:02Z</time>
      </trkpt>
      <trkpt lat="43.04555999999935" lon="-1.2648620000000004">
        <ele>1268.415</ele>
        <time>2022-08-24T10:05:03Z</time>
      </trkpt>
      <trkpt lat="43.04554599999935" lon="-1.2648610000000005">
        <ele>1268.409</ele>
        <time>2022-08-24T10:05:04Z</time>
      </trkpt>
      <trkpt lat="43.04553199999935" lon="-1.2648630000000005">
        <ele>1268.475</ele>
        <time>2022-08-24T10:05:05Z</time>
      </trkpt>
      <trkpt lat="43.04551699999935" lon="-1.2648660000000005">
        <ele>1268.645</ele>
        <time>2022-08-24T10:05:06Z</time>
      </trkpt>
      <trkpt lat="43.04550299999935" lon="-1.2648680000000005">
        <ele>1268.655</ele>
        <time>2022-08-24T10:05:07Z</time>
      </trkpt>
      <trkpt lat="43.04548699999935" lon="-1.2648710000000005">
        <ele>1268.671</ele>
        <time>2022-08-24T10:05:08Z</time>
      </trkpt>
      <trkpt lat="43.045473999999345" lon="-1.2648690000000005">
        <ele>1268.813</ele>
        <time>2022-08-24T10:05:09Z</time>
      </trkpt>
      <trkpt lat="43.045456999999345" lon="-1.2648650000000006">
        <ele>1269.040</ele>
        <time>2022-08-24T10:05:10Z</time>
      </trkpt>
      <trkpt lat="43.045436999999346" lon="-1.2648620000000006">
        <ele>1269.283</ele>
        <time>2022-08-24T10:05:11Z</time>
      </trkpt>
      <trkpt lat="43.045420999999344" lon="-1.2648610000000007">
        <ele>1269.427</ele>
        <time>2022-08-24T10:05:12Z</time>
      </trkpt>
      <trkpt lat="43.045406999999344" lon="-1.2648620000000006">
        <ele>1269.646</ele>
        <time>2022-08-24T10:05:13Z</time>
      </trkpt>
      <trkpt lat="43.045394999999345" lon="-1.2648630000000005">
        <ele>1269.886</ele>
        <time>2022-08-24T10:05:14Z</time>
      </trkpt>
      <trkpt lat="43.04538199999934" lon="-1.2648660000000005">
        <ele>1269.860</ele>
        <time>2022-08-24T10:05:15Z</time>
      </trkpt>
      <trkpt lat="43.045369999999345" lon="-1.2648710000000005">
        <ele>1270.026</ele>
        <time>2022-08-24T10:05:16Z</time>
      </trkpt>
      <trkpt lat="43.04535499999935" lon="-1.2648760000000006">
        <ele>1270.009</ele>
        <time>2022-08-24T10:05:17Z</time>
      </trkpt>
      <trkpt lat="43.045343999999346" lon="-1.2648800000000004">
        <ele>1270.249</ele>
        <time>2022-08-24T10:05:18Z</time>
      </trkpt>
      <trkpt lat="43.04533199999935" lon="-1.2648880000000005">
        <ele>1270.439</ele>
        <time>2022-08-24T10:05:19Z</time>
      </trkpt>
      <trkpt lat="43.045321999999345" lon="-1.2648970000000004">
        <ele>1270.629</ele>
        <time>2022-08-24T10:05:20Z</time>
      </trkpt>
      <trkpt lat="43.04531299999935" lon="-1.2649070000000004">
        <ele>1271.085</ele>
        <time>2022-08-24T10:05:21Z</time>
      </trkpt>
      <trkpt lat="43.04530699999935" lon="-1.2649170000000005">
        <ele>1271.077</ele>
        <time>2022-08-24T10:05:22Z</time>
      </trkpt>
      <trkpt lat="43.04529999999935" lon="-1.2649270000000006">
        <ele>1271.244</ele>
        <time>2022-08-24T10:05:23Z</time>
      </trkpt>
      <trkpt lat="43.045292999999354" lon="-1.2649380000000006">
        <ele>1271.447</ele>
        <time>2022-08-24T10:05:24Z</time>
      </trkpt>
      <trkpt lat="43.04528599999936" lon="-1.2649500000000005">
        <ele>1271.651</ele>
        <time>2022-08-24T10:05:25Z</time>
      </trkpt>
      <trkpt lat="43.045275999999355" lon="-1.2649600000000005">
        <ele>1271.870</ele>
        <time>2022-08-24T10:05:26Z</time>
      </trkpt>
      <trkpt lat="43.045266999999356" lon="-1.2649720000000004">
        <ele>1271.883</ele>
        <time>2022-08-24T10:05:27Z</time>
      </trkpt>
      <trkpt lat="43.045255999999355" lon="-1.2649830000000004">
        <ele>1272.025</ele>
        <time>2022-08-24T10:05:28Z</time>
      </trkpt>
      <trkpt lat="43.045241999999355" lon="-1.2649950000000003">
        <ele>1272.017</ele>
        <time>2022-08-24T10:05:29Z</time>
      </trkpt>
      <trkpt lat="43.04523299999936" lon="-1.2650070000000002">
        <ele>1272.209</ele>
        <time>2022-08-24T10:05:30Z</time>
      </trkpt>
      <trkpt lat="43.045221999999356" lon="-1.2650200000000003">
        <ele>1272.429</ele>
        <time>2022-08-24T10:05:31Z</time>
      </trkpt>
      <trkpt lat="43.045213999999355" lon="-1.2650350000000004">
        <ele>1272.479</ele>
        <time>2022-08-24T10:05:32Z</time>
      </trkpt>
      <trkpt lat="43.045204999999356" lon="-1.2650490000000003">
        <ele>1272.859</ele>
        <time>2022-08-24T10:05:33Z</time>
      </trkpt>
      <trkpt lat="43.04519599999936" lon="-1.2650620000000004">
        <ele>1273.075</ele>
        <time>2022-08-24T10:05:34Z</time>
      </trkpt>
      <trkpt lat="43.04518699999936" lon="-1.2650770000000005">
        <ele>1273.297</ele>
        <time>2022-08-24T10:05:35Z</time>
      </trkpt>
      <trkpt lat="43.04517799999936" lon="-1.2650910000000004">
        <ele>1273.254</ele>
        <time>2022-08-24T10:05:36Z</time>
      </trkpt>
      <trkpt lat="43.04516799999936" lon="-1.2651050000000004">
        <ele>1273.477</ele>
        <time>2022-08-24T10:05:37Z</time>
      </trkpt>
      <trkpt lat="43.04515899999936" lon="-1.2651170000000003">
        <ele>1273.471</ele>
        <time>2022-08-24T10:05:38Z</time>
      </trkpt>
      <trkpt lat="43.04514999999936" lon="-1.2651300000000003">
        <ele>1273.470</ele>
        <time>2022-08-24T10:05:39Z</time>
      </trkpt>
      <trkpt lat="43.04514199999936" lon="-1.2651430000000004">
        <ele>1273.863</ele>
        <time>2022-08-24T10:05:40Z</time>
      </trkpt>
      <trkpt lat="43.045131999999356" lon="-1.2651560000000004">
        <ele>1273.844</ele>
        <time>2022-08-24T10:05:41Z</time>
      </trkpt>
      <trkpt lat="43.04512599999936" lon="-1.2651720000000004">
        <ele>1274.018</ele>
        <time>2022-08-24T10:05:42Z</time>
      </trkpt>
      <trkpt lat="43.045115999999354" lon="-1.2651830000000004">
        <ele>1274.009</ele>
        <time>2022-08-24T10:05:43Z</time>
      </trkpt>
      <trkpt lat="43.045106999999355" lon="-1.2651930000000005">
        <ele>1274.297</ele>
        <time>2022-08-24T10:05:44Z</time>
      </trkpt>
      <trkpt lat="43.045097999999356" lon="-1.2652040000000004">
        <ele>1274.657</ele>
        <time>2022-08-24T10:05:45Z</time>
      </trkpt>
      <trkpt lat="43.04508799999935" lon="-1.2652150000000004">
        <ele>1274.887</ele>
        <time>2022-08-24T10:05:46Z</time>
      </trkpt>
      <trkpt lat="43.04507699999935" lon="-1.2652300000000005">
        <ele>1274.853</ele>
        <time>2022-08-24T10:05:47Z</time>
      </trkpt>
      <trkpt lat="43.04506599999935" lon="-1.2652420000000004">
        <ele>1275.045</ele>
        <time>2022-08-24T10:05:48Z</time>
      </trkpt>
      <trkpt lat="43.04505599999935" lon="-1.2652540000000003">
        <ele>1275.052</ele>
        <time>2022-08-24T10:05:49Z</time>
      </trkpt>
      <trkpt lat="43.045042999999346" lon="-1.2652650000000003">
        <ele>1275.055</ele>
        <time>2022-08-24T10:05:50Z</time>
      </trkpt>
      <trkpt lat="43.045031999999345" lon="-1.2652750000000004">
        <ele>1275.039</ele>
        <time>2022-08-24T10:05:51Z</time>
      </trkpt>
      <trkpt lat="43.04502299999935" lon="-1.2652840000000003">
        <ele>1275.298</ele>
        <time>2022-08-24T10:05:52Z</time>
      </trkpt>
      <trkpt lat="43.04501099999935" lon="-1.2652940000000004">
        <ele>1275.456</ele>
        <time>2022-08-24T10:05:53Z</time>
      </trkpt>
      <trkpt lat="43.044997999999346" lon="-1.2653070000000004">
        <ele>1275.659</ele>
        <time>2022-08-24T10:05:54Z</time>
      </trkpt>
      <trkpt lat="43.044986999999345" lon="-1.2653210000000004">
        <ele>1275.614</ele>
        <time>2022-08-24T10:05:55Z</time>
      </trkpt>
      <trkpt lat="43.04497499999935" lon="-1.2653330000000003">
        <ele>1275.809</ele>
        <time>2022-08-24T10:05:56Z</time>
      </trkpt>
      <trkpt lat="43.044964999999344" lon="-1.2653480000000004">
        <ele>1275.896</ele>
        <time>2022-08-24T10:05:57Z</time>
      </trkpt>
      <trkpt lat="43.04495399999934" lon="-1.2653640000000004">
        <ele>1276.086</ele>
        <time>2022-08-24T10:05:58Z</time>
      </trkpt>
      <trkpt lat="43.044941999999345" lon="-1.2653820000000005">
        <ele>1276.086</ele>
        <time>2022-08-24T10:05:59Z</time>
      </trkpt>
      <trkpt lat="43.044930999999345" lon="-1.2653960000000004">
        <ele>1276.282</ele>
        <time>2022-08-24T10:06:00Z</time>
      </trkpt>
      <trkpt lat="43.04491799999934" lon="-1.2654100000000004">
        <ele>1276.234</ele>
        <time>2022-08-24T10:06:01Z</time>
      </trkpt>
      <trkpt lat="43.04490499999934" lon="-1.2654300000000003">
        <ele>1276.421</ele>
        <time>2022-08-24T10:06:02Z</time>
      </trkpt>
      <trkpt lat="43.04489399999934" lon="-1.2654480000000004">
        <ele>1276.444</ele>
        <time>2022-08-24T10:06:03Z</time>
      </trkpt>
      <trkpt lat="43.044880999999336" lon="-1.2654630000000004">
        <ele>1276.488</ele>
        <time>2022-08-24T10:06:04Z</time>
      </trkpt>
      <trkpt lat="43.044869999999335" lon="-1.2654770000000004">
        <ele>1276.657</ele>
        <time>2022-08-24T10:06:05Z</time>
      </trkpt>
      <trkpt lat="43.04485999999933" lon="-1.2654910000000004">
        <ele>1276.892</ele>
        <time>2022-08-24T10:06:06Z</time>
      </trkpt>
      <trkpt lat="43.04485099999933" lon="-1.2655050000000003">
        <ele>1276.873</ele>
        <time>2022-08-24T10:06:07Z</time>
      </trkpt>
      <trkpt lat="43.04484299999933" lon="-1.2655180000000004">
        <ele>1277.220</ele>
        <time>2022-08-24T10:06:08Z</time>
      </trkpt>
      <trkpt lat="43.044833999999334" lon="-1.2655330000000005">
        <ele>1277.209</ele>
        <time>2022-08-24T10:06:09Z</time>
      </trkpt>
      <trkpt lat="43.04482299999933" lon="-1.2655470000000004">
        <ele>1277.440</ele>
        <time>2022-08-24T10:06:10Z</time>
      </trkpt>
      <trkpt lat="43.044813999999334" lon="-1.2655590000000003">
        <ele>1277.480</ele>
        <time>2022-08-24T10:06:11Z</time>
      </trkpt>
      <trkpt lat="43.04480399999933" lon="-1.2655720000000004">
        <ele>1277.450</ele>
        <time>2022-08-24T10:06:12Z</time>
      </trkpt>
      <trkpt lat="43.04479399999933" lon="-1.2655800000000004">
        <ele>1277.666</ele>
        <time>2022-08-24T10:06:13Z</time>
      </trkpt>
      <trkpt lat="43.04478699999933" lon="-1.2655890000000003">
        <ele>1277.688</ele>
        <time>2022-08-24T10:06:14Z</time>
      </trkpt>
      <trkpt lat="43.04477799999933" lon="-1.2656010000000002">
        <ele>1277.825</ele>
        <time>2022-08-24T10:06:15Z</time>
      </trkpt>
      <trkpt lat="43.044770999999336" lon="-1.2656150000000002">
        <ele>1278.048</ele>
        <time>2022-08-24T10:06:16Z</time>
      </trkpt>
      <trkpt lat="43.044762999999335" lon="-1.265627">
        <ele>1278.272</ele>
        <time>2022-08-24T10:06:17Z</time>
      </trkpt>
      <trkpt lat="43.04475599999934" lon="-1.265643">
        <ele>1278.411</ele>
        <time>2022-08-24T10:06:18Z</time>
      </trkpt>
      <trkpt lat="43.04475099999934" lon="-1.265665">
        <ele>1278.478</ele>
        <time>2022-08-24T10:06:19Z</time>
      </trkpt>
      <trkpt lat="43.04474399999934" lon="-1.265689">
        <ele>1278.433</ele>
        <time>2022-08-24T10:06:20Z</time>
      </trkpt>
      <trkpt lat="43.04473499999934" lon="-1.265711">
        <ele>1278.426</ele>
        <time>2022-08-24T10:06:21Z</time>
      </trkpt>
      <trkpt lat="43.044727999999346" lon="-1.265736">
        <ele>1278.609</ele>
        <time>2022-08-24T10:06:22Z</time>
      </trkpt>
      <trkpt lat="43.04471899999935" lon="-1.26576">
        <ele>1278.638</ele>
        <time>2022-08-24T10:06:23Z</time>
      </trkpt>
      <trkpt lat="43.04471299999935" lon="-1.265788">
        <ele>1278.838</ele>
        <time>2022-08-24T10:06:24Z</time>
      </trkpt>
      <trkpt lat="43.04470999999935" lon="-1.2658179999999999">
        <ele>1278.888</ele>
        <time>2022-08-24T10:06:25Z</time>
      </trkpt>
      <trkpt lat="43.044707999999346" lon="-1.2658449999999999">
        <ele>1279.034</ele>
        <time>2022-08-24T10:06:26Z</time>
      </trkpt>
      <trkpt lat="43.044702999999345" lon="-1.2658719999999999">
        <ele>1279.076</ele>
        <time>2022-08-24T10:06:27Z</time>
      </trkpt>
      <trkpt lat="43.044696999999346" lon="-1.2658969999999998">
        <ele>1279.073</ele>
        <time>2022-08-24T10:06:28Z</time>
      </trkpt>
      <trkpt lat="43.04469099999935" lon="-1.2659239999999998">
        <ele>1279.056</ele>
        <time>2022-08-24T10:06:29Z</time>
      </trkpt>
      <trkpt lat="43.04468499999935" lon="-1.2659549999999997">
        <ele>1279.080</ele>
        <time>2022-08-24T10:06:30Z</time>
      </trkpt>
      <trkpt lat="43.04468199999935" lon="-1.2659879999999997">
        <ele>1279.079</ele>
        <time>2022-08-24T10:06:31Z</time>
      </trkpt>
      <trkpt lat="43.04468199999935" lon="-1.2660229999999997">
        <ele>1279.033</ele>
        <time>2022-08-24T10:06:32Z</time>
      </trkpt>
      <trkpt lat="43.04468199999935" lon="-1.2660589999999996">
        <ele>1279.023</ele>
        <time>2022-08-24T10:06:33Z</time>
      </trkpt>
      <trkpt lat="43.044679999999346" lon="-1.2660969999999996">
        <ele>1279.015</ele>
        <time>2022-08-24T10:06:34Z</time>
      </trkpt>
      <trkpt lat="43.04467299999935" lon="-1.2662009999999997">
        <ele>1279.009</ele>
        <time>2022-08-24T10:06:37Z</time>
      </trkpt>
      <trkpt lat="43.04467099999935" lon="-1.2662349999999998">
        <ele>1279.284</ele>
        <time>2022-08-24T10:06:38Z</time>
      </trkpt>
      <trkpt lat="43.04466799999935" lon="-1.2662999999999998">
        <ele>1279.454</ele>
        <time>2022-08-24T10:06:40Z</time>
      </trkpt>
      <trkpt lat="43.044668999999345" lon="-1.2663319999999998">
        <ele>1279.444</ele>
        <time>2022-08-24T10:06:41Z</time>
      </trkpt>
      <trkpt lat="43.044668999999345" lon="-1.2663609999999998">
        <ele>1279.430</ele>
        <time>2022-08-24T10:06:42Z</time>
      </trkpt>
      <trkpt lat="43.04466799999935" lon="-1.2663879999999998">
        <ele>1279.442</ele>
        <time>2022-08-24T10:06:43Z</time>
      </trkpt>
      <trkpt lat="43.04466499999935" lon="-1.2664129999999998">
        <ele>1279.629</ele>
        <time>2022-08-24T10:06:44Z</time>
      </trkpt>
      <trkpt lat="43.04465999999935" lon="-1.2664399999999998">
        <ele>1279.652</ele>
        <time>2022-08-24T10:06:45Z</time>
      </trkpt>
      <trkpt lat="43.044648999999346" lon="-1.2664869999999997">
        <ele>1279.876</ele>
        <time>2022-08-24T10:06:47Z</time>
      </trkpt>
      <trkpt lat="43.04463899999934" lon="-1.2665069999999996">
        <ele>1280.085</ele>
        <time>2022-08-24T10:06:48Z</time>
      </trkpt>
      <trkpt lat="43.04459699999934" lon="-1.2665779999999995">
        <ele>1280.272</ele>
        <time>2022-08-24T10:06:51Z</time>
      </trkpt>
      <trkpt lat="43.04458399999934" lon="-1.2666009999999996">
        <ele>1280.213</ele>
        <time>2022-08-24T10:06:52Z</time>
      </trkpt>
      <trkpt lat="43.04453299999934" lon="-1.2666969999999997">
        <ele>1280.214</ele>
        <time>2022-08-24T10:06:56Z</time>
      </trkpt>
      <trkpt lat="43.04449199999934" lon="-1.2667829999999998">
        <ele>1279.209</ele>
        <time>2022-08-24T10:06:59Z</time>
      </trkpt>
      <trkpt lat="43.04447099999934" lon="-1.2668419999999998">
        <ele>1278.878</ele>
        <time>2022-08-24T10:07:01Z</time>
      </trkpt>
      <trkpt lat="43.04446099999934" lon="-1.2668679999999999">
        <ele>1278.658</ele>
        <time>2022-08-24T10:07:02Z</time>
      </trkpt>
      <trkpt lat="43.044452999999336" lon="-1.266892">
        <ele>1278.248</ele>
        <time>2022-08-24T10:07:03Z</time>
      </trkpt>
      <trkpt lat="43.044444999999335" lon="-1.2669139999999999">
        <ele>1278.024</ele>
        <time>2022-08-24T10:07:04Z</time>
      </trkpt>
      <trkpt lat="43.044438999999336" lon="-1.2669339999999998">
        <ele>1277.486</ele>
        <time>2022-08-24T10:07:05Z</time>
      </trkpt>
      <trkpt lat="43.044430999999335" lon="-1.2669589999999997">
        <ele>1277.013</ele>
        <time>2022-08-24T10:07:06Z</time>
      </trkpt>
      <trkpt lat="43.044419999999334" lon="-1.2669899999999996">
        <ele>1276.626</ele>
        <time>2022-08-24T10:07:07Z</time>
      </trkpt>
      <trkpt lat="43.044388999999335" lon="-1.2670579999999996">
        <ele>1276.270</ele>
        <time>2022-08-24T10:07:09Z</time>
      </trkpt>
      <trkpt lat="43.04433099999933" lon="-1.2671919999999997">
        <ele>1275.889</ele>
        <time>2022-08-24T10:07:12Z</time>
      </trkpt>
      <trkpt lat="43.04430699999933" lon="-1.2672409999999996">
        <ele>1275.822</ele>
        <time>2022-08-24T10:07:13Z</time>
      </trkpt>
      <trkpt lat="43.04425399999933" lon="-1.2673469999999996">
        <ele>1275.462</ele>
        <time>2022-08-24T10:07:15Z</time>
      </trkpt>
      <trkpt lat="43.04411599999933" lon="-1.2676149999999995">
        <ele>1275.208</ele>
        <time>2022-08-24T10:07:20Z</time>
      </trkpt>
      <trkpt lat="43.044079999999326" lon="-1.2676739999999995">
        <ele>1275.209</ele>
        <time>2022-08-24T10:07:21Z</time>
      </trkpt>
      <trkpt lat="43.04401699999933" lon="-1.2677719999999995">
        <ele>1275.453</ele>
        <time>2022-08-24T10:07:23Z</time>
      </trkpt>
      <trkpt lat="43.04396999999933" lon="-1.2678799999999995">
        <ele>1275.453</ele>
        <time>2022-08-24T10:07:25Z</time>
      </trkpt>
      <trkpt lat="43.04394899999933" lon="-1.2679159999999994">
        <ele>1275.443</ele>
        <time>2022-08-24T10:07:26Z</time>
      </trkpt>
      <trkpt lat="43.04390599999933" lon="-1.2680059999999993">
        <ele>1275.689</ele>
        <time>2022-08-24T10:07:28Z</time>
      </trkpt>
      <trkpt lat="43.04388899999933" lon="-1.2680539999999993">
        <ele>1275.641</ele>
        <time>2022-08-24T10:07:29Z</time>
      </trkpt>
      <trkpt lat="43.04386599999933" lon="-1.2681059999999993">
        <ele>1275.628</ele>
        <time>2022-08-24T10:07:30Z</time>
      </trkpt>
      <trkpt lat="43.043848999999334" lon="-1.2681409999999993">
        <ele>1275.471</ele>
        <time>2022-08-24T10:07:31Z</time>
      </trkpt>
      <trkpt lat="43.04382999999933" lon="-1.2681809999999993">
        <ele>1275.475</ele>
        <time>2022-08-24T10:07:32Z</time>
      </trkpt>
      <trkpt lat="43.04381299999933" lon="-1.2682179999999994">
        <ele>1275.474</ele>
        <time>2022-08-24T10:07:33Z</time>
      </trkpt>
      <trkpt lat="43.04379899999933" lon="-1.2682509999999994">
        <ele>1275.627</ele>
        <time>2022-08-24T10:07:34Z</time>
      </trkpt>
      <trkpt lat="43.043783999999334" lon="-1.2682869999999993">
        <ele>1275.668</ele>
        <time>2022-08-24T10:07:35Z</time>
      </trkpt>
      <trkpt lat="43.04377399999933" lon="-1.2683219999999993">
        <ele>1275.814</ele>
        <time>2022-08-24T10:07:36Z</time>
      </trkpt>
      <trkpt lat="43.04376199999933" lon="-1.2683589999999993">
        <ele>1275.809</ele>
        <time>2022-08-24T10:07:37Z</time>
      </trkpt>
      <trkpt lat="43.04375399999933" lon="-1.2683959999999994">
        <ele>1276.013</ele>
        <time>2022-08-24T10:07:38Z</time>
      </trkpt>
      <trkpt lat="43.043738999999334" lon="-1.2684309999999994">
        <ele>1276.033</ele>
        <time>2022-08-24T10:07:39Z</time>
      </trkpt>
      <trkpt lat="43.04371699999933" lon="-1.2684679999999995">
        <ele>1276.033</ele>
        <time>2022-08-24T10:07:40Z</time>
      </trkpt>
      <trkpt lat="43.043698999999336" lon="-1.2685099999999996">
        <ele>1276.029</ele>
        <time>2022-08-24T10:07:41Z</time>
      </trkpt>
      <trkpt lat="43.04367899999934" lon="-1.2685529999999996">
        <ele>1276.221</ele>
        <time>2022-08-24T10:07:42Z</time>
      </trkpt>
      <trkpt lat="43.04365799999934" lon="-1.2685939999999996">
        <ele>1276.448</ele>
        <time>2022-08-24T10:07:43Z</time>
      </trkpt>
      <trkpt lat="43.04363599999934" lon="-1.2686369999999996">
        <ele>1276.421</ele>
        <time>2022-08-24T10:07:44Z</time>
      </trkpt>
      <trkpt lat="43.04361299999934" lon="-1.2686789999999997">
        <ele>1276.625</ele>
        <time>2022-08-24T10:07:45Z</time>
      </trkpt>
      <trkpt lat="43.04359899999934" lon="-1.2687229999999996">
        <ele>1276.874</ele>
        <time>2022-08-24T10:07:46Z</time>
      </trkpt>
      <trkpt lat="43.04359299999934" lon="-1.2687549999999996">
        <ele>1276.838</ele>
        <time>2022-08-24T10:07:47Z</time>
      </trkpt>
      <trkpt lat="43.04357999999934" lon="-1.2688129999999995">
        <ele>1277.070</ele>
        <time>2022-08-24T10:07:49Z</time>
      </trkpt>
      <trkpt lat="43.04354899999934" lon="-1.2688519999999994">
        <ele>1277.217</ele>
        <time>2022-08-24T10:07:50Z</time>
      </trkpt>
      <trkpt lat="43.04353399999934" lon="-1.2688819999999994">
        <ele>1277.409</ele>
        <time>2022-08-24T10:07:51Z</time>
      </trkpt>
      <trkpt lat="43.04347999999934" lon="-1.2690669999999995">
        <ele>1278.454</ele>
        <time>2022-08-24T10:07:55Z</time>
      </trkpt>
      <trkpt lat="43.04347399999934" lon="-1.2691069999999995">
        <ele>1278.684</ele>
        <time>2022-08-24T10:07:56Z</time>
      </trkpt>
      <trkpt lat="43.043452999999346" lon="-1.2691519999999996">
        <ele>1278.684</ele>
        <time>2022-08-24T10:07:57Z</time>
      </trkpt>
      <trkpt lat="43.04343199999935" lon="-1.2692299999999996">
        <ele>1278.670</ele>
        <time>2022-08-24T10:07:59Z</time>
      </trkpt>
      <trkpt lat="43.043418999999346" lon="-1.2692819999999996">
        <ele>1278.862</ele>
        <time>2022-08-24T10:08:00Z</time>
      </trkpt>
      <trkpt lat="43.04341299999935" lon="-1.2693209999999995">
        <ele>1278.859</ele>
        <time>2022-08-24T10:08:01Z</time>
      </trkpt>
      <trkpt lat="43.04338699999935" lon="-1.2693879999999995">
        <ele>1279.022</ele>
        <time>2022-08-24T10:08:02Z</time>
      </trkpt>
      <trkpt lat="43.04335399999935" lon="-1.2694389999999995">
        <ele>1279.086</ele>
        <time>2022-08-24T10:08:03Z</time>
      </trkpt>
      <trkpt lat="43.043331999999346" lon="-1.2694959999999995">
        <ele>1279.085</ele>
        <time>2022-08-24T10:08:04Z</time>
      </trkpt>
      <trkpt lat="43.04331699999935" lon="-1.2695549999999995">
        <ele>1279.223</ele>
        <time>2022-08-24T10:08:05Z</time>
      </trkpt>
      <trkpt lat="43.04330599999935" lon="-1.2696249999999996">
        <ele>1279.283</ele>
        <time>2022-08-24T10:08:06Z</time>
      </trkpt>
      <trkpt lat="43.04329099999935" lon="-1.2697069999999995">
        <ele>1279.011</ele>
        <time>2022-08-24T10:08:07Z</time>
      </trkpt>
      <trkpt lat="43.04327799999935" lon="-1.2697609999999995">
        <ele>1279.009</ele>
        <time>2022-08-24T10:08:08Z</time>
      </trkpt>
      <trkpt lat="43.043261999999345" lon="-1.2698249999999995">
        <ele>1278.833</ele>
        <time>2022-08-24T10:08:09Z</time>
      </trkpt>
      <trkpt lat="43.04323199999934" lon="-1.2698829999999994">
        <ele>1278.833</ele>
        <time>2022-08-24T10:08:10Z</time>
      </trkpt>
      <trkpt lat="43.04321899999934" lon="-1.2699409999999993">
        <ele>1278.883</ele>
        <time>2022-08-24T10:08:11Z</time>
      </trkpt>
      <trkpt lat="43.04320399999934" lon="-1.2699979999999993">
        <ele>1278.689</ele>
        <time>2022-08-24T10:08:12Z</time>
      </trkpt>
      <trkpt lat="43.04319599999934" lon="-1.2700589999999994">
        <ele>1278.481</ele>
        <time>2022-08-24T10:08:13Z</time>
      </trkpt>
      <trkpt lat="43.04318499999934" lon="-1.2701399999999994">
        <ele>1278.298</ele>
        <time>2022-08-24T10:08:14Z</time>
      </trkpt>
      <trkpt lat="43.04314599999934" lon="-1.2703709999999995">
        <ele>1277.231</ele>
        <time>2022-08-24T10:08:17Z</time>
      </trkpt>
      <trkpt lat="43.04313399999934" lon="-1.2704299999999995">
        <ele>1276.695</ele>
        <time>2022-08-24T10:08:18Z</time>
      </trkpt>
      <trkpt lat="43.04311499999934" lon="-1.2704869999999995">
        <ele>1275.844</ele>
        <time>2022-08-24T10:08:19Z</time>
      </trkpt>
      <trkpt lat="43.04309899999934" lon="-1.2705379999999995">
        <ele>1275.492</ele>
        <time>2022-08-24T10:08:20Z</time>
      </trkpt>
      <trkpt lat="43.043079999999335" lon="-1.2705799999999996">
        <ele>1275.073</ele>
        <time>2022-08-24T10:08:21Z</time>
      </trkpt>
      <trkpt lat="43.04305699999934" lon="-1.2706309999999996">
        <ele>1274.820</ele>
        <time>2022-08-24T10:08:22Z</time>
      </trkpt>
      <trkpt lat="43.043029999999334" lon="-1.2706869999999997">
        <ele>1274.609</ele>
        <time>2022-08-24T10:08:23Z</time>
      </trkpt>
      <trkpt lat="43.04300499999933" lon="-1.2708239999999997">
        <ele>1274.440</ele>
        <time>2022-08-24T10:08:25Z</time>
      </trkpt>
      <trkpt lat="43.042984999999334" lon="-1.2709589999999997">
        <ele>1274.070</ele>
        <time>2022-08-24T10:08:27Z</time>
      </trkpt>
      <trkpt lat="43.04295799999933" lon="-1.2710169999999996">
        <ele>1273.690</ele>
        <time>2022-08-24T10:08:28Z</time>
      </trkpt>
      <trkpt lat="43.04293499999933" lon="-1.2710779999999997">
        <ele>1273.476</ele>
        <time>2022-08-24T10:08:29Z</time>
      </trkpt>
      <trkpt lat="43.04291499999933" lon="-1.2711349999999997">
        <ele>1273.248</ele>
        <time>2022-08-24T10:08:30Z</time>
      </trkpt>
      <trkpt lat="43.042908999999334" lon="-1.2712029999999996">
        <ele>1273.095</ele>
        <time>2022-08-24T10:08:31Z</time>
      </trkpt>
      <trkpt lat="43.04290399999933" lon="-1.2712529999999997">
        <ele>1273.038</ele>
        <time>2022-08-24T10:08:32Z</time>
      </trkpt>
      <trkpt lat="43.04288999999933" lon="-1.2712969999999997">
        <ele>1273.022</ele>
        <time>2022-08-24T10:08:33Z</time>
      </trkpt>
      <trkpt lat="43.04283599999933" lon="-1.2714149999999997">
        <ele>1273.031</ele>
        <time>2022-08-24T10:08:35Z</time>
      </trkpt>
      <trkpt lat="43.042834999999336" lon="-1.2715029999999998">
        <ele>1273.056</ele>
        <time>2022-08-24T10:08:36Z</time>
      </trkpt>
      <trkpt lat="43.042832999999334" lon="-1.2715489999999998">
        <ele>1273.059</ele>
        <time>2022-08-24T10:08:37Z</time>
      </trkpt>
      <trkpt lat="43.042832999999334" lon="-1.2715799999999997">
        <ele>1272.814</ele>
        <time>2022-08-24T10:08:38Z</time>
      </trkpt>
      <trkpt lat="43.04281999999933" lon="-1.2716509999999996">
        <ele>1272.809</ele>
        <time>2022-08-24T10:08:40Z</time>
      </trkpt>
      <trkpt lat="43.04280699999933" lon="-1.2716899999999995">
        <ele>1272.626</ele>
        <time>2022-08-24T10:08:41Z</time>
      </trkpt>
      <trkpt lat="43.04279299999933" lon="-1.2717309999999995">
        <ele>1272.446</ele>
        <time>2022-08-24T10:08:42Z</time>
      </trkpt>
      <trkpt lat="43.04277599999933" lon="-1.2717729999999996">
        <ele>1271.836</ele>
        <time>2022-08-24T10:08:43Z</time>
      </trkpt>
      <trkpt lat="43.04276199999933" lon="-1.2718159999999996">
        <ele>1271.622</ele>
        <time>2022-08-24T10:08:44Z</time>
      </trkpt>
      <trkpt lat="43.04275299999933" lon="-1.2718669999999996">
        <ele>1271.274</ele>
        <time>2022-08-24T10:08:45Z</time>
      </trkpt>
      <trkpt lat="43.04275299999933" lon="-1.2718999999999996">
        <ele>1271.061</ele>
        <time>2022-08-24T10:08:46Z</time>
      </trkpt>
      <trkpt lat="43.04275099999933" lon="-1.2719349999999996">
        <ele>1270.454</ele>
        <time>2022-08-24T10:08:47Z</time>
      </trkpt>
      <trkpt lat="43.04275099999933" lon="-1.2719649999999996">
        <ele>1270.458</ele>
        <time>2022-08-24T10:08:48Z</time>
      </trkpt>
      <trkpt lat="43.042751999999325" lon="-1.2719989999999997">
        <ele>1270.087</ele>
        <time>2022-08-24T10:08:49Z</time>
      </trkpt>
      <trkpt lat="43.04274499999933" lon="-1.2720409999999998">
        <ele>1269.849</ele>
        <time>2022-08-24T10:08:50Z</time>
      </trkpt>
      <trkpt lat="43.04273299999933" lon="-1.2720779999999998">
        <ele>1269.602</ele>
        <time>2022-08-24T10:08:51Z</time>
      </trkpt>
      <trkpt lat="43.04272299999933" lon="-1.2721149999999999">
        <ele>1269.422</ele>
        <time>2022-08-24T10:08:52Z</time>
      </trkpt>
      <trkpt lat="43.04271399999933" lon="-1.272168">
        <ele>1269.209</ele>
        <time>2022-08-24T10:08:53Z</time>
      </trkpt>
      <trkpt lat="43.04270599999933" lon="-1.272202">
        <ele>1269.055</ele>
        <time>2022-08-24T10:08:54Z</time>
      </trkpt>
      <trkpt lat="43.042703999999326" lon="-1.2722310000000001">
        <ele>1268.835</ele>
        <time>2022-08-24T10:08:55Z</time>
      </trkpt>
      <trkpt lat="43.04270599999933" lon="-1.2722580000000001">
        <ele>1268.215</ele>
        <time>2022-08-24T10:08:56Z</time>
      </trkpt>
      <trkpt lat="43.04270899999933" lon="-1.272353">
        <ele>1268.041</ele>
        <time>2022-08-24T10:08:58Z</time>
      </trkpt>
      <trkpt lat="43.04270899999933" lon="-1.272513">
        <ele>1266.453</ele>
        <time>2022-08-24T10:09:02Z</time>
      </trkpt>
      <trkpt lat="43.04270599999933" lon="-1.272689">
        <ele>1265.660</ele>
        <time>2022-08-24T10:09:05Z</time>
      </trkpt>
      <trkpt lat="43.042695999999324" lon="-1.27274">
        <ele>1265.023</ele>
        <time>2022-08-24T10:09:06Z</time>
      </trkpt>
      <trkpt lat="43.042684999999324" lon="-1.2727979999999999">
        <ele>1264.847</ele>
        <time>2022-08-24T10:09:07Z</time>
      </trkpt>
      <trkpt lat="43.04266399999933" lon="-1.2728689999999998">
        <ele>1264.686</ele>
        <time>2022-08-24T10:09:08Z</time>
      </trkpt>
      <trkpt lat="43.042661999999325" lon="-1.2729399999999997">
        <ele>1264.247</ele>
        <time>2022-08-24T10:09:09Z</time>
      </trkpt>
      <trkpt lat="43.04263599999933" lon="-1.2730969999999997">
        <ele>1263.829</ele>
        <time>2022-08-24T10:09:11Z</time>
      </trkpt>
      <trkpt lat="43.04258699999933" lon="-1.2732349999999997">
        <ele>1263.221</ele>
        <time>2022-08-24T10:09:13Z</time>
      </trkpt>
      <trkpt lat="43.04257999999933" lon="-1.2732969999999997">
        <ele>1263.009</ele>
        <time>2022-08-24T10:09:14Z</time>
      </trkpt>
      <trkpt lat="43.04254999999933" lon="-1.2733489999999996">
        <ele>1262.635</ele>
        <time>2022-08-24T10:09:15Z</time>
      </trkpt>
      <trkpt lat="43.04254199999933" lon="-1.2734059999999996">
        <ele>1261.865</ele>
        <time>2022-08-24T10:09:16Z</time>
      </trkpt>
      <trkpt lat="43.04254499999933" lon="-1.2734589999999997">
        <ele>1261.425</ele>
        <time>2022-08-24T10:09:17Z</time>
      </trkpt>
      <trkpt lat="43.042534999999326" lon="-1.2735039999999997">
        <ele>1260.821</ele>
        <time>2022-08-24T10:09:18Z</time>
      </trkpt>
      <trkpt lat="43.042529999999324" lon="-1.2735469999999998">
        <ele>1260.813</ele>
        <time>2022-08-24T10:09:19Z</time>
      </trkpt>
      <trkpt lat="43.042523999999325" lon="-1.2735809999999999">
        <ele>1260.860</ele>
        <time>2022-08-24T10:09:20Z</time>
      </trkpt>
      <trkpt lat="43.04250899999933" lon="-1.2736319999999999">
        <ele>1260.423</ele>
        <time>2022-08-24T10:09:21Z</time>
      </trkpt>
      <trkpt lat="43.04250199999933" lon="-1.2736939999999999">
        <ele>1260.237</ele>
        <time>2022-08-24T10:09:22Z</time>
      </trkpt>
      <trkpt lat="43.04248499999933" lon="-1.273763">
        <ele>1260.266</ele>
        <time>2022-08-24T10:09:23Z</time>
      </trkpt>
      <trkpt lat="43.04245999999933" lon="-1.273827">
        <ele>1260.086</ele>
        <time>2022-08-24T10:09:24Z</time>
      </trkpt>
      <trkpt lat="43.04243799999933" lon="-1.273881">
        <ele>1260.060</ele>
        <time>2022-08-24T10:09:25Z</time>
      </trkpt>
      <trkpt lat="43.04243099999933" lon="-1.273936">
        <ele>1260.026</ele>
        <time>2022-08-24T10:09:26Z</time>
      </trkpt>
      <trkpt lat="43.042412999999335" lon="-1.273982">
        <ele>1259.809</ele>
        <time>2022-08-24T10:09:27Z</time>
      </trkpt>
      <trkpt lat="43.04239499999934" lon="-1.274027">
        <ele>1259.699</ele>
        <time>2022-08-24T10:09:28Z</time>
      </trkpt>
      <trkpt lat="43.04237299999934" lon="-1.274078">
        <ele>1259.449</ele>
        <time>2022-08-24T10:09:29Z</time>
      </trkpt>
      <trkpt lat="43.04237199999934" lon="-1.2740960000000001">
        <ele>1259.289</ele>
        <time>2022-08-24T10:09:30Z</time>
      </trkpt>
      <trkpt lat="43.04237799999934" lon="-1.2741330000000002">
        <ele>1259.025</ele>
        <time>2022-08-24T10:09:31Z</time>
      </trkpt>
      <trkpt lat="43.042378999999336" lon="-1.2741650000000002">
        <ele>1258.677</ele>
        <time>2022-08-24T10:09:32Z</time>
      </trkpt>
      <trkpt lat="43.042376999999334" lon="-1.2742100000000003">
        <ele>1258.234</ele>
        <time>2022-08-24T10:09:33Z</time>
      </trkpt>
      <trkpt lat="43.042367999999335" lon="-1.2742570000000002">
        <ele>1257.657</ele>
        <time>2022-08-24T10:09:34Z</time>
      </trkpt>
      <trkpt lat="43.04236899999933" lon="-1.2742840000000002">
        <ele>1256.851</ele>
        <time>2022-08-24T10:09:35Z</time>
      </trkpt>
      <trkpt lat="43.042347999999336" lon="-1.2743590000000002">
        <ele>1256.250</ele>
        <time>2022-08-24T10:09:37Z</time>
      </trkpt>
      <trkpt lat="43.04233799999933" lon="-1.2743850000000003">
        <ele>1256.024</ele>
        <time>2022-08-24T10:09:38Z</time>
      </trkpt>
      <trkpt lat="43.04232699999933" lon="-1.2744190000000004">
        <ele>1255.604</ele>
        <time>2022-08-24T10:09:39Z</time>
      </trkpt>
      <trkpt lat="43.04230699999933" lon="-1.2744680000000004">
        <ele>1255.414</ele>
        <time>2022-08-24T10:09:40Z</time>
      </trkpt>
      <trkpt lat="43.04227599999933" lon="-1.2745590000000004">
        <ele>1254.609</ele>
        <time>2022-08-24T10:09:42Z</time>
      </trkpt>
      <trkpt lat="43.04224599999933" lon="-1.2747060000000003">
        <ele>1253.823</ele>
        <time>2022-08-24T10:09:45Z</time>
      </trkpt>
      <trkpt lat="43.04223599999933" lon="-1.2747580000000003">
        <ele>1253.853</ele>
        <time>2022-08-24T10:09:46Z</time>
      </trkpt>
      <trkpt lat="43.04221299999933" lon="-1.2748130000000002">
        <ele>1253.253</ele>
        <time>2022-08-24T10:09:47Z</time>
      </trkpt>
      <trkpt lat="43.04220599999933" lon="-1.2748770000000003">
        <ele>1253.079</ele>
        <time>2022-08-24T10:09:48Z</time>
      </trkpt>
      <trkpt lat="43.04221199999933" lon="-1.2749280000000003">
        <ele>1252.681</ele>
        <time>2022-08-24T10:09:49Z</time>
      </trkpt>
      <trkpt lat="43.042210999999334" lon="-1.2749750000000002">
        <ele>1252.268</ele>
        <time>2022-08-24T10:09:50Z</time>
      </trkpt>
      <trkpt lat="43.04221499999933" lon="-1.275014">
        <ele>1251.861</ele>
        <time>2022-08-24T10:09:51Z</time>
      </trkpt>
      <trkpt lat="43.042196999999334" lon="-1.27509">
        <ele>1251.225</ele>
        <time>2022-08-24T10:09:52Z</time>
      </trkpt>
      <trkpt lat="43.042165999999334" lon="-1.27516">
        <ele>1250.834</ele>
        <time>2022-08-24T10:09:53Z</time>
      </trkpt>
      <trkpt lat="43.042139999999335" lon="-1.2752210000000002">
        <ele>1250.673</ele>
        <time>2022-08-24T10:09:54Z</time>
      </trkpt>
      <trkpt lat="43.04212499999934" lon="-1.2752960000000002">
        <ele>1250.485</ele>
        <time>2022-08-24T10:09:55Z</time>
      </trkpt>
      <trkpt lat="43.042108999999336" lon="-1.2753560000000002">
        <ele>1250.413</ele>
        <time>2022-08-24T10:09:56Z</time>
      </trkpt>
      <trkpt lat="43.042088999999336" lon="-1.2754090000000002">
        <ele>1250.209</ele>
        <time>2022-08-24T10:09:57Z</time>
      </trkpt>
      <trkpt lat="43.04206599999934" lon="-1.2754450000000002">
        <ele>1250.048</ele>
        <time>2022-08-24T10:09:58Z</time>
      </trkpt>
      <trkpt lat="43.04206799999934" lon="-1.2754960000000002">
        <ele>1250.038</ele>
        <time>2022-08-24T10:09:59Z</time>
      </trkpt>
      <trkpt lat="43.04207299999934" lon="-1.275524">
        <ele>1249.688</ele>
        <time>2022-08-24T10:10:00Z</time>
      </trkpt>
      <trkpt lat="43.04207799999934" lon="-1.27556">
        <ele>1249.414</ele>
        <time>2022-08-24T10:10:01Z</time>
      </trkpt>
      <trkpt lat="43.04208199999934" lon="-1.275615">
        <ele>1249.216</ele>
        <time>2022-08-24T10:10:02Z</time>
      </trkpt>
      <trkpt lat="43.04204999999934" lon="-1.27565">
        <ele>1249.023</ele>
        <time>2022-08-24T10:10:03Z</time>
      </trkpt>
      <trkpt lat="43.042045999999345" lon="-1.275695">
        <ele>1249.066</ele>
        <time>2022-08-24T10:10:04Z</time>
      </trkpt>
      <trkpt lat="43.04203699999935" lon="-1.275739">
        <ele>1248.850</ele>
        <time>2022-08-24T10:10:05Z</time>
      </trkpt>
      <trkpt lat="43.042031999999345" lon="-1.275777">
        <ele>1248.889</ele>
        <time>2022-08-24T10:10:06Z</time>
      </trkpt>
      <trkpt lat="43.042034999999345" lon="-1.2758099999999999">
        <ele>1249.053</ele>
        <time>2022-08-24T10:10:07Z</time>
      </trkpt>
      <trkpt lat="43.042034999999345" lon="-1.275836">
        <ele>1249.004</ele>
        <time>2022-08-24T10:10:08Z</time>
      </trkpt>
      <trkpt lat="43.042031999999345" lon="-1.275862">
        <ele>1249.014</ele>
        <time>2022-08-24T10:10:09Z</time>
      </trkpt>
      <trkpt lat="43.04202499999935" lon="-1.275898">
        <ele>1249.009</ele>
        <time>2022-08-24T10:10:10Z</time>
      </trkpt>
      <trkpt lat="43.04201299999935" lon="-1.2759369999999999">
        <ele>1249.026</ele>
        <time>2022-08-24T10:10:11Z</time>
      </trkpt>
      <trkpt lat="43.042005999999354" lon="-1.2759649999999998">
        <ele>1249.236</ele>
        <time>2022-08-24T10:10:12Z</time>
      </trkpt>
      <trkpt lat="43.041999999999355" lon="-1.2759869999999998">
        <ele>1249.646</ele>
        <time>2022-08-24T10:10:13Z</time>
      </trkpt>
      <trkpt lat="43.04199299999936" lon="-1.2760129999999998">
        <ele>1249.652</ele>
        <time>2022-08-24T10:10:14Z</time>
      </trkpt>
      <trkpt lat="43.04197399999936" lon="-1.2760869999999997">
        <ele>1249.634</ele>
        <time>2022-08-24T10:10:16Z</time>
      </trkpt>
      <trkpt lat="43.04193999999936" lon="-1.2762549999999997">
        <ele>1250.011</ele>
        <time>2022-08-24T10:10:20Z</time>
      </trkpt>
      <trkpt lat="43.04193399999936" lon="-1.2762869999999997">
        <ele>1249.854</ele>
        <time>2022-08-24T10:10:21Z</time>
      </trkpt>
      <trkpt lat="43.04193099999936" lon="-1.2763079999999998">
        <ele>1250.028</ele>
        <time>2022-08-24T10:10:22Z</time>
      </trkpt>
      <trkpt lat="43.04192499999936" lon="-1.2763309999999999">
        <ele>1250.267</ele>
        <time>2022-08-24T10:10:23Z</time>
      </trkpt>
      <trkpt lat="43.04192699999936" lon="-1.27636">
        <ele>1250.424</ele>
        <time>2022-08-24T10:10:24Z</time>
      </trkpt>
      <trkpt lat="43.04191399999936" lon="-1.2764">
        <ele>1250.404</ele>
        <time>2022-08-24T10:10:25Z</time>
      </trkpt>
      <trkpt lat="43.04190699999936" lon="-1.276428">
        <ele>1250.614</ele>
        <time>2022-08-24T10:10:26Z</time>
      </trkpt>
      <trkpt lat="43.04189599999936" lon="-1.276457">
        <ele>1250.609</ele>
        <time>2022-08-24T10:10:27Z</time>
      </trkpt>
      <trkpt lat="43.041891999999365" lon="-1.276487">
        <ele>1250.843</ele>
        <time>2022-08-24T10:10:28Z</time>
      </trkpt>
      <trkpt lat="43.041883999999364" lon="-1.276544">
        <ele>1251.043</ele>
        <time>2022-08-24T10:10:30Z</time>
      </trkpt>
      <trkpt lat="43.04186599999937" lon="-1.276616">
        <ele>1251.023</ele>
        <time>2022-08-24T10:10:32Z</time>
      </trkpt>
      <trkpt lat="43.04184899999937" lon="-1.276678">
        <ele>1251.049</ele>
        <time>2022-08-24T10:10:34Z</time>
      </trkpt>
      <trkpt lat="43.04181199999937" lon="-1.276865">
        <ele>1251.031</ele>
        <time>2022-08-24T10:10:39Z</time>
      </trkpt>
      <trkpt lat="43.04178899999937" lon="-1.2769059999999999">
        <ele>1251.248</ele>
        <time>2022-08-24T10:10:40Z</time>
      </trkpt>
      <trkpt lat="43.04177799999937" lon="-1.2769449999999998">
        <ele>1251.231</ele>
        <time>2022-08-24T10:10:41Z</time>
      </trkpt>
      <trkpt lat="43.04177499999937" lon="-1.2769759999999997">
        <ele>1251.235</ele>
        <time>2022-08-24T10:10:42Z</time>
      </trkpt>
      <trkpt lat="43.04176699999937" lon="-1.2769969999999997">
        <ele>1251.234</ele>
        <time>2022-08-24T10:10:43Z</time>
      </trkpt>
      <trkpt lat="43.04175899999937" lon="-1.2770149999999998">
        <ele>1251.265</ele>
        <time>2022-08-24T10:10:44Z</time>
      </trkpt>
      <trkpt lat="43.04174099999937" lon="-1.277065">
        <ele>1251.268</ele>
        <time>2022-08-24T10:10:46Z</time>
      </trkpt>
      <trkpt lat="43.04174299999937" lon="-1.2771839999999999">
        <ele>1251.214</ele>
        <time>2022-08-24T10:10:50Z</time>
      </trkpt>
      <trkpt lat="43.04174099999937" lon="-1.277208">
        <ele>1251.209</ele>
        <time>2022-08-24T10:10:51Z</time>
      </trkpt>
      <trkpt lat="43.04172699999937" lon="-1.277267">
        <ele>1251.057</ele>
        <time>2022-08-24T10:10:53Z</time>
      </trkpt>
      <trkpt lat="43.04171799999937" lon="-1.277299">
        <ele>1251.077</ele>
        <time>2022-08-24T10:10:54Z</time>
      </trkpt>
      <trkpt lat="43.04169799999937" lon="-1.2773539999999999">
        <ele>1251.287</ele>
        <time>2022-08-24T10:10:56Z</time>
      </trkpt>
      <trkpt lat="43.04168499999937" lon="-1.277386">
        <ele>1251.493</ele>
        <time>2022-08-24T10:10:57Z</time>
      </trkpt>
      <trkpt lat="43.04166599999937" lon="-1.2774219999999998">
        <ele>1251.475</ele>
        <time>2022-08-24T10:10:58Z</time>
      </trkpt>
      <trkpt lat="43.041641999999364" lon="-1.2774539999999999">
        <ele>1251.662</ele>
        <time>2022-08-24T10:10:59Z</time>
      </trkpt>
      <trkpt lat="43.04158899999936" lon="-1.277502">
        <ele>1252.045</ele>
        <time>2022-08-24T10:11:01Z</time>
      </trkpt>
      <trkpt lat="43.04156699999936" lon="-1.2775219999999998">
        <ele>1252.239</ele>
        <time>2022-08-24T10:11:02Z</time>
      </trkpt>
      <trkpt lat="43.041545999999364" lon="-1.2775389999999998">
        <ele>1252.458</ele>
        <time>2022-08-24T10:11:03Z</time>
      </trkpt>
      <trkpt lat="43.04152799999937" lon="-1.2775519999999998">
        <ele>1252.622</ele>
        <time>2022-08-24T10:11:04Z</time>
      </trkpt>
      <trkpt lat="43.04151299999937" lon="-1.2775689999999997">
        <ele>1253.062</ele>
        <time>2022-08-24T10:11:05Z</time>
      </trkpt>
      <trkpt lat="43.04149799999937" lon="-1.2775919999999998">
        <ele>1253.208</ele>
        <time>2022-08-24T10:11:06Z</time>
      </trkpt>
      <trkpt lat="43.04148199999937" lon="-1.2776079999999999">
        <ele>1253.809</ele>
        <time>2022-08-24T10:11:07Z</time>
      </trkpt>
      <trkpt lat="43.04146599999937" lon="-1.2776249999999998">
        <ele>1254.013</ele>
        <time>2022-08-24T10:11:08Z</time>
      </trkpt>
      <trkpt lat="43.04145199999937" lon="-1.2776399999999999">
        <ele>1254.283</ele>
        <time>2022-08-24T10:11:09Z</time>
      </trkpt>
      <trkpt lat="43.04144599999937" lon="-1.277656">
        <ele>1254.633</ele>
        <time>2022-08-24T10:11:10Z</time>
      </trkpt>
      <trkpt lat="43.04143699999937" lon="-1.2776729999999998">
        <ele>1255.029</ele>
        <time>2022-08-24T10:11:11Z</time>
      </trkpt>
      <trkpt lat="43.04142499999937" lon="-1.2776859999999999">
        <ele>1255.081</ele>
        <time>2022-08-24T10:11:12Z</time>
      </trkpt>
      <trkpt lat="43.04140899999937" lon="-1.277696">
        <ele>1255.218</ele>
        <time>2022-08-24T10:11:13Z</time>
      </trkpt>
      <trkpt lat="43.04139099999937" lon="-1.2777079999999998">
        <ele>1255.211</ele>
        <time>2022-08-24T10:11:14Z</time>
      </trkpt>
      <trkpt lat="43.04138499999937" lon="-1.277729">
        <ele>1255.265</ele>
        <time>2022-08-24T10:11:15Z</time>
      </trkpt>
      <trkpt lat="43.041378999999374" lon="-1.277745">
        <ele>1255.454</ele>
        <time>2022-08-24T10:11:16Z</time>
      </trkpt>
      <trkpt lat="43.04136099999938" lon="-1.277758">
        <ele>1255.485</ele>
        <time>2022-08-24T10:11:17Z</time>
      </trkpt>
      <trkpt lat="43.04134599999938" lon="-1.277777">
        <ele>1255.889</ele>
        <time>2022-08-24T10:11:18Z</time>
      </trkpt>
      <trkpt lat="43.04133799999938" lon="-1.277791">
        <ele>1255.817</ele>
        <time>2022-08-24T10:11:19Z</time>
      </trkpt>
      <trkpt lat="43.04133099999938" lon="-1.2777969999999998">
        <ele>1255.809</ele>
        <time>2022-08-24T10:11:20Z</time>
      </trkpt>
      <trkpt lat="43.04132899999938" lon="-1.2778189999999998">
        <ele>1256.079</ele>
        <time>2022-08-24T10:11:21Z</time>
      </trkpt>
      <trkpt lat="43.04131799999938" lon="-1.2778459999999998">
        <ele>1256.289</ele>
        <time>2022-08-24T10:11:22Z</time>
      </trkpt>
      <trkpt lat="43.04130599999938" lon="-1.277861">
        <ele>1256.469</ele>
        <time>2022-08-24T10:11:23Z</time>
      </trkpt>
      <trkpt lat="43.041298999999384" lon="-1.2778749999999999">
        <ele>1256.495</ele>
        <time>2022-08-24T10:11:24Z</time>
      </trkpt>
      <trkpt lat="43.04129999999938" lon="-1.277893">
        <ele>1256.437</ele>
        <time>2022-08-24T10:11:25Z</time>
      </trkpt>
      <trkpt lat="43.04128699999938" lon="-1.27792">
        <ele>1256.654</ele>
        <time>2022-08-24T10:11:26Z</time>
      </trkpt>
      <trkpt lat="43.041276999999376" lon="-1.277934">
        <ele>1256.887</ele>
        <time>2022-08-24T10:11:27Z</time>
      </trkpt>
      <trkpt lat="43.041271999999374" lon="-1.277961">
        <ele>1257.071</ele>
        <time>2022-08-24T10:11:28Z</time>
      </trkpt>
      <trkpt lat="43.04126399999937" lon="-1.277977">
        <ele>1257.280</ele>
        <time>2022-08-24T10:11:29Z</time>
      </trkpt>
      <trkpt lat="43.04125399999937" lon="-1.277993">
        <ele>1257.497</ele>
        <time>2022-08-24T10:11:30Z</time>
      </trkpt>
      <trkpt lat="43.04124299999937" lon="-1.278012">
        <ele>1257.423</ele>
        <time>2022-08-24T10:11:31Z</time>
      </trkpt>
      <trkpt lat="43.04123599999937" lon="-1.278031">
        <ele>1257.625</ele>
        <time>2022-08-24T10:11:32Z</time>
      </trkpt>
      <trkpt lat="43.04122999999937" lon="-1.278049">
        <ele>1257.809</ele>
        <time>2022-08-24T10:11:33Z</time>
      </trkpt>
      <trkpt lat="43.04122499999937" lon="-1.278069">
        <ele>1257.870</ele>
        <time>2022-08-24T10:11:34Z</time>
      </trkpt>
      <trkpt lat="43.04122299999937" lon="-1.2780909999999999">
        <ele>1258.020</ele>
        <time>2022-08-24T10:11:35Z</time>
      </trkpt>
      <trkpt lat="43.04121599999937" lon="-1.278117">
        <ele>1258.060</ele>
        <time>2022-08-24T10:11:36Z</time>
      </trkpt>
      <trkpt lat="43.04120299999937" lon="-1.278147">
        <ele>1258.066</ele>
        <time>2022-08-24T10:11:37Z</time>
      </trkpt>
      <trkpt lat="43.04119099999937" lon="-1.2781749999999998">
        <ele>1258.078</ele>
        <time>2022-08-24T10:11:38Z</time>
      </trkpt>
      <trkpt lat="43.041181999999374" lon="-1.2782059999999997">
        <ele>1258.085</ele>
        <time>2022-08-24T10:11:39Z</time>
      </trkpt>
      <trkpt lat="43.04116899999937" lon="-1.2782349999999998">
        <ele>1258.068</ele>
        <time>2022-08-24T10:11:40Z</time>
      </trkpt>
      <trkpt lat="43.04115599999937" lon="-1.2782659999999997">
        <ele>1258.022</ele>
        <time>2022-08-24T10:11:41Z</time>
      </trkpt>
      <trkpt lat="43.04114099999937" lon="-1.2783009999999997">
        <ele>1257.861</ele>
        <time>2022-08-24T10:11:42Z</time>
      </trkpt>
      <trkpt lat="43.04112699999937" lon="-1.2783389999999997">
        <ele>1257.888</ele>
        <time>2022-08-24T10:11:43Z</time>
      </trkpt>
      <trkpt lat="43.04111299999937" lon="-1.2783769999999997">
        <ele>1257.424</ele>
        <time>2022-08-24T10:11:44Z</time>
      </trkpt>
      <trkpt lat="43.04109799999937" lon="-1.2784139999999997">
        <ele>1257.226</ele>
        <time>2022-08-24T10:11:45Z</time>
      </trkpt>
      <trkpt lat="43.041082999999375" lon="-1.2784479999999998">
        <ele>1257.009</ele>
        <time>2022-08-24T10:11:46Z</time>
      </trkpt>
      <trkpt lat="43.041071999999374" lon="-1.2784779999999998">
        <ele>1256.879</ele>
        <time>2022-08-24T10:11:47Z</time>
      </trkpt>
      <trkpt lat="43.04106199999937" lon="-1.2785089999999997">
        <ele>1256.879</ele>
        <time>2022-08-24T10:11:48Z</time>
      </trkpt>
      <trkpt lat="43.041054999999375" lon="-1.2785359999999997">
        <ele>1256.649</ele>
        <time>2022-08-24T10:11:49Z</time>
      </trkpt>
      <trkpt lat="43.041046999999374" lon="-1.2785589999999998">
        <ele>1256.615</ele>
        <time>2022-08-24T10:11:50Z</time>
      </trkpt>
      <trkpt lat="43.041040999999375" lon="-1.2785829999999998">
        <ele>1256.437</ele>
        <time>2022-08-24T10:11:51Z</time>
      </trkpt>
      <trkpt lat="43.04102899999938" lon="-1.2786209999999998">
        <ele>1256.024</ele>
        <time>2022-08-24T10:11:53Z</time>
      </trkpt>
      <trkpt lat="43.04102499999938" lon="-1.2786429999999998">
        <ele>1255.817</ele>
        <time>2022-08-24T10:11:54Z</time>
      </trkpt>
      <trkpt lat="43.04101599999938" lon="-1.2786679999999997">
        <ele>1255.631</ele>
        <time>2022-08-24T10:11:55Z</time>
      </trkpt>
      <trkpt lat="43.04096299999938" lon="-1.2787649999999997">
        <ele>1255.260</ele>
        <time>2022-08-24T10:11:58Z</time>
      </trkpt>
      <trkpt lat="43.04094399999938" lon="-1.2787969999999997">
        <ele>1255.065</ele>
        <time>2022-08-24T10:11:59Z</time>
      </trkpt>
      <trkpt lat="43.040927999999376" lon="-1.2788289999999998">
        <ele>1255.068</ele>
        <time>2022-08-24T10:12:00Z</time>
      </trkpt>
      <trkpt lat="43.040908999999374" lon="-1.2788939999999998">
        <ele>1254.414</ele>
        <time>2022-08-24T10:12:02Z</time>
      </trkpt>
      <trkpt lat="43.04090199999938" lon="-1.2789219999999997">
        <ele>1254.209</ele>
        <time>2022-08-24T10:12:03Z</time>
      </trkpt>
      <trkpt lat="43.04088799999938" lon="-1.2789489999999997">
        <ele>1254.027</ele>
        <time>2022-08-24T10:12:04Z</time>
      </trkpt>
      <trkpt lat="43.04087299999938" lon="-1.2789759999999997">
        <ele>1253.267</ele>
        <time>2022-08-24T10:12:05Z</time>
      </trkpt>
      <trkpt lat="43.04080899999938" lon="-1.2791329999999996">
        <ele>1252.447</ele>
        <time>2022-08-24T10:12:10Z</time>
      </trkpt>
      <trkpt lat="43.04079199999938" lon="-1.2791829999999997">
        <ele>1252.233</ele>
        <time>2022-08-24T10:12:11Z</time>
      </trkpt>
      <trkpt lat="43.04077199999938" lon="-1.2792649999999997">
        <ele>1252.025</ele>
        <time>2022-08-24T10:12:13Z</time>
      </trkpt>
      <trkpt lat="43.04073599999938" lon="-1.2793709999999996">
        <ele>1251.822</ele>
        <time>2022-08-24T10:12:15Z</time>
      </trkpt>
      <trkpt lat="43.04070199999938" lon="-1.2794809999999996">
        <ele>1251.655</ele>
        <time>2022-08-24T10:12:17Z</time>
      </trkpt>
      <trkpt lat="43.040663999999374" lon="-1.2796299999999996">
        <ele>1251.659</ele>
        <time>2022-08-24T10:12:19Z</time>
      </trkpt>
      <trkpt lat="43.04064499999937" lon="-1.2796939999999997">
        <ele>1251.648</ele>
        <time>2022-08-24T10:12:20Z</time>
      </trkpt>
      <trkpt lat="43.04062799999937" lon="-1.2797619999999996">
        <ele>1251.624</ele>
        <time>2022-08-24T10:12:21Z</time>
      </trkpt>
      <trkpt lat="43.040604999999374" lon="-1.2798349999999996">
        <ele>1251.604</ele>
        <time>2022-08-24T10:12:22Z</time>
      </trkpt>
      <trkpt lat="43.04059399999937" lon="-1.2799049999999996">
        <ele>1251.614</ele>
        <time>2022-08-24T10:12:23Z</time>
      </trkpt>
      <trkpt lat="43.04058399999937" lon="-1.2799729999999996">
        <ele>1251.609</ele>
        <time>2022-08-24T10:12:24Z</time>
      </trkpt>
      <trkpt lat="43.04056799999937" lon="-1.2800209999999996">
        <ele>1251.643</ele>
        <time>2022-08-24T10:12:25Z</time>
      </trkpt>
      <trkpt lat="43.04054799999937" lon="-1.2800639999999996">
        <ele>1251.623</ele>
        <time>2022-08-24T10:12:26Z</time>
      </trkpt>
      <trkpt lat="43.04052299999937" lon="-1.2801729999999996">
        <ele>1251.223</ele>
        <time>2022-08-24T10:12:28Z</time>
      </trkpt>
      <trkpt lat="43.040520999999366" lon="-1.2802409999999995">
        <ele>1250.869</ele>
        <time>2022-08-24T10:12:29Z</time>
      </trkpt>
      <trkpt lat="43.040518999999364" lon="-1.2802859999999996">
        <ele>1250.471</ele>
        <time>2022-08-24T10:12:30Z</time>
      </trkpt>
      <trkpt lat="43.04051099999936" lon="-1.2803389999999997">
        <ele>1250.088</ele>
        <time>2022-08-24T10:12:31Z</time>
      </trkpt>
      <trkpt lat="43.04049999999936" lon="-1.2804149999999996">
        <ele>1249.631</ele>
        <time>2022-08-24T10:12:32Z</time>
      </trkpt>
      <trkpt lat="43.04045299999936" lon="-1.2806419999999996">
        <ele>1249.025</ele>
        <time>2022-08-24T10:12:35Z</time>
      </trkpt>
      <trkpt lat="43.04042399999936" lon="-1.2807259999999996">
        <ele>1248.874</ele>
        <time>2022-08-24T10:12:36Z</time>
      </trkpt>
      <trkpt lat="43.04039899999936" lon="-1.2807919999999995">
        <ele>1248.447</ele>
        <time>2022-08-24T10:12:37Z</time>
      </trkpt>
      <trkpt lat="43.04034899999936" lon="-1.2809109999999995">
        <ele>1247.629</ele>
        <time>2022-08-24T10:12:39Z</time>
      </trkpt>
      <trkpt lat="43.040324999999356" lon="-1.2809709999999994">
        <ele>1247.621</ele>
        <time>2022-08-24T10:12:40Z</time>
      </trkpt>
      <trkpt lat="43.040305999999354" lon="-1.2810219999999994">
        <ele>1247.409</ele>
        <time>2022-08-24T10:12:41Z</time>
      </trkpt>
      <trkpt lat="43.04027699999936" lon="-1.2810779999999995">
        <ele>1247.255</ele>
        <time>2022-08-24T10:12:42Z</time>
      </trkpt>
      <trkpt lat="43.040254999999355" lon="-1.2811249999999994">
        <ele>1247.245</ele>
        <time>2022-08-24T10:12:43Z</time>
      </trkpt>
      <trkpt lat="43.04023699999936" lon="-1.2811669999999995">
        <ele>1247.245</ele>
        <time>2022-08-24T10:12:44Z</time>
      </trkpt>
      <trkpt lat="43.04021899999936" lon="-1.2812099999999995">
        <ele>1247.031</ele>
        <time>2022-08-24T10:12:45Z</time>
      </trkpt>
      <trkpt lat="43.04019599999936" lon="-1.2812529999999995">
        <ele>1247.023</ele>
        <time>2022-08-24T10:12:46Z</time>
      </trkpt>
      <trkpt lat="43.04014499999936" lon="-1.2813399999999995">
        <ele>1246.850</ele>
        <time>2022-08-24T10:12:48Z</time>
      </trkpt>
      <trkpt lat="43.040059999999364" lon="-1.2814799999999995">
        <ele>1246.623</ele>
        <time>2022-08-24T10:12:51Z</time>
      </trkpt>
      <trkpt lat="43.040022999999366" lon="-1.2815209999999995">
        <ele>1246.237</ele>
        <time>2022-08-24T10:12:52Z</time>
      </trkpt>
      <trkpt lat="43.039988999999366" lon="-1.2815619999999994">
        <ele>1246.026</ele>
        <time>2022-08-24T10:12:53Z</time>
      </trkpt>
      <trkpt lat="43.039958999999364" lon="-1.2815999999999994">
        <ele>1246.097</ele>
        <time>2022-08-24T10:12:54Z</time>
      </trkpt>
      <trkpt lat="43.039935999999365" lon="-1.2816379999999994">
        <ele>1245.823</ele>
        <time>2022-08-24T10:12:55Z</time>
      </trkpt>
      <trkpt lat="43.03990399999937" lon="-1.2816729999999994">
        <ele>1245.825</ele>
        <time>2022-08-24T10:12:56Z</time>
      </trkpt>
      <trkpt lat="43.039870999999366" lon="-1.2817029999999994">
        <ele>1245.609</ele>
        <time>2022-08-24T10:12:57Z</time>
      </trkpt>
      <trkpt lat="43.039848999999364" lon="-1.2817339999999993">
        <ele>1245.460</ele>
        <time>2022-08-24T10:12:58Z</time>
      </trkpt>
      <trkpt lat="43.03982499999936" lon="-1.2817629999999993">
        <ele>1245.420</ele>
        <time>2022-08-24T10:12:59Z</time>
      </trkpt>
      <trkpt lat="43.03979799999936" lon="-1.2817959999999993">
        <ele>1245.250</ele>
        <time>2022-08-24T10:13:00Z</time>
      </trkpt>
      <trkpt lat="43.039773999999355" lon="-1.2818289999999992">
        <ele>1245.076</ele>
        <time>2022-08-24T10:13:01Z</time>
      </trkpt>
      <trkpt lat="43.03974999999935" lon="-1.2818539999999992">
        <ele>1244.878</ele>
        <time>2022-08-24T10:13:02Z</time>
      </trkpt>
      <trkpt lat="43.03973399999935" lon="-1.2818799999999992">
        <ele>1244.865</ele>
        <time>2022-08-24T10:13:03Z</time>
      </trkpt>
      <trkpt lat="43.03972299999935" lon="-1.2819039999999993">
        <ele>1244.428</ele>
        <time>2022-08-24T10:13:04Z</time>
      </trkpt>
      <trkpt lat="43.03967299999935" lon="-1.2819839999999993">
        <ele>1244.062</ele>
        <time>2022-08-24T10:13:07Z</time>
      </trkpt>
      <trkpt lat="43.039656999999345" lon="-1.2820079999999994">
        <ele>1244.031</ele>
        <time>2022-08-24T10:13:08Z</time>
      </trkpt>
      <trkpt lat="43.03963799999934" lon="-1.2820319999999994">
        <ele>1244.054</ele>
        <time>2022-08-24T10:13:09Z</time>
      </trkpt>
      <trkpt lat="43.03962199999934" lon="-1.2820529999999994">
        <ele>1244.056</ele>
        <time>2022-08-24T10:13:10Z</time>
      </trkpt>
      <trkpt lat="43.03960899999934" lon="-1.2820779999999994">
        <ele>1244.011</ele>
        <time>2022-08-24T10:13:11Z</time>
      </trkpt>
      <trkpt lat="43.03959699999934" lon="-1.2820919999999993">
        <ele>1244.009</ele>
        <time>2022-08-24T10:13:12Z</time>
      </trkpt>
      <trkpt lat="43.03958599999934" lon="-1.2821079999999994">
        <ele>1244.086</ele>
        <time>2022-08-24T10:13:13Z</time>
      </trkpt>
      <trkpt lat="43.039572999999336" lon="-1.2821289999999994">
        <ele>1244.016</ele>
        <time>2022-08-24T10:13:14Z</time>
      </trkpt>
      <trkpt lat="43.03955199999934" lon="-1.2821549999999995">
        <ele>1244.066</ele>
        <time>2022-08-24T10:13:15Z</time>
      </trkpt>
      <trkpt lat="43.03953599999934" lon="-1.2821739999999995">
        <ele>1244.272</ele>
        <time>2022-08-24T10:13:16Z</time>
      </trkpt>
      <trkpt lat="43.039511999999334" lon="-1.2821919999999996">
        <ele>1244.294</ele>
        <time>2022-08-24T10:13:17Z</time>
      </trkpt>
      <trkpt lat="43.03948199999933" lon="-1.2822069999999997">
        <ele>1244.441</ele>
        <time>2022-08-24T10:13:18Z</time>
      </trkpt>
      <trkpt lat="43.03945399999933" lon="-1.2822149999999997">
        <ele>1244.684</ele>
        <time>2022-08-24T10:13:19Z</time>
      </trkpt>
      <trkpt lat="43.03940999999933" lon="-1.2822319999999996">
        <ele>1244.878</ele>
        <time>2022-08-24T10:13:21Z</time>
      </trkpt>
      <trkpt lat="43.03939199999933" lon="-1.2822329999999995">
        <ele>1245.097</ele>
        <time>2022-08-24T10:13:22Z</time>
      </trkpt>
      <trkpt lat="43.03936599999933" lon="-1.2822299999999995">
        <ele>1245.444</ele>
        <time>2022-08-24T10:13:23Z</time>
      </trkpt>
      <trkpt lat="43.039345999999334" lon="-1.2822199999999995">
        <ele>1245.605</ele>
        <time>2022-08-24T10:13:24Z</time>
      </trkpt>
      <trkpt lat="43.039331999999334" lon="-1.2822129999999994">
        <ele>1245.815</ele>
        <time>2022-08-24T10:13:25Z</time>
      </trkpt>
      <trkpt lat="43.03931599999933" lon="-1.2822099999999994">
        <ele>1245.809</ele>
        <time>2022-08-24T10:13:26Z</time>
      </trkpt>
      <trkpt lat="43.03930299999933" lon="-1.2822099999999994">
        <ele>1246.065</ele>
        <time>2022-08-24T10:13:27Z</time>
      </trkpt>
      <trkpt lat="43.03928899999933" lon="-1.2822099999999994">
        <ele>1246.295</ele>
        <time>2022-08-24T10:13:28Z</time>
      </trkpt>
      <trkpt lat="43.03927399999933" lon="-1.2822109999999993">
        <ele>1246.475</ele>
        <time>2022-08-24T10:13:29Z</time>
      </trkpt>
      <trkpt lat="43.03925899999933" lon="-1.2822079999999993">
        <ele>1247.051</ele>
        <time>2022-08-24T10:13:30Z</time>
      </trkpt>
      <trkpt lat="43.03924599999933" lon="-1.2822069999999994">
        <ele>1247.253</ele>
        <time>2022-08-24T10:13:31Z</time>
      </trkpt>
      <trkpt lat="43.03923199999933" lon="-1.2822079999999993">
        <ele>1247.620</ele>
        <time>2022-08-24T10:13:32Z</time>
      </trkpt>
      <trkpt lat="43.039148999999334" lon="-1.2822319999999994">
        <ele>1248.213</ele>
        <time>2022-08-24T10:13:36Z</time>
      </trkpt>
      <trkpt lat="43.03910999999933" lon="-1.2822489999999993">
        <ele>1248.297</ele>
        <time>2022-08-24T10:13:37Z</time>
      </trkpt>
      <trkpt lat="43.03906599999933" lon="-1.2822729999999993">
        <ele>1248.256</ele>
        <time>2022-08-24T10:13:38Z</time>
      </trkpt>
      <trkpt lat="43.03902299999933" lon="-1.2822959999999994">
        <ele>1248.288</ele>
        <time>2022-08-24T10:13:39Z</time>
      </trkpt>
      <trkpt lat="43.03898499999933" lon="-1.2823179999999994">
        <ele>1247.824</ele>
        <time>2022-08-24T10:13:40Z</time>
      </trkpt>
      <trkpt lat="43.03895399999933" lon="-1.2823419999999994">
        <ele>1247.826</ele>
        <time>2022-08-24T10:13:41Z</time>
      </trkpt>
      <trkpt lat="43.038926999999326" lon="-1.2823689999999994">
        <ele>1247.609</ele>
        <time>2022-08-24T10:13:42Z</time>
      </trkpt>
      <trkpt lat="43.038904999999325" lon="-1.2823989999999994">
        <ele>1247.669</ele>
        <time>2022-08-24T10:13:43Z</time>
      </trkpt>
      <trkpt lat="43.038881999999326" lon="-1.2824329999999995">
        <ele>1247.459</ele>
        <time>2022-08-24T10:13:44Z</time>
      </trkpt>
      <trkpt lat="43.03886199999933" lon="-1.2824679999999995">
        <ele>1247.429</ele>
        <time>2022-08-24T10:13:45Z</time>
      </trkpt>
      <trkpt lat="43.03884199999933" lon="-1.2825049999999996">
        <ele>1247.275</ele>
        <time>2022-08-24T10:13:46Z</time>
      </trkpt>
      <trkpt lat="43.03882099999933" lon="-1.2825439999999995">
        <ele>1247.087</ele>
        <time>2022-08-24T10:13:47Z</time>
      </trkpt>
      <trkpt lat="43.038802999999334" lon="-1.2825819999999994">
        <ele>1247.074</ele>
        <time>2022-08-24T10:13:48Z</time>
      </trkpt>
      <trkpt lat="43.038742999999336" lon="-1.2826889999999995">
        <ele>1246.817</ele>
        <time>2022-08-24T10:13:51Z</time>
      </trkpt>
      <trkpt lat="43.038723999999334" lon="-1.2827219999999995">
        <ele>1246.421</ele>
        <time>2022-08-24T10:13:52Z</time>
      </trkpt>
      <trkpt lat="43.03868599999933" lon="-1.2827979999999994">
        <ele>1246.410</ele>
        <time>2022-08-24T10:13:54Z</time>
      </trkpt>
      <trkpt lat="43.03866799999933" lon="-1.2828339999999994">
        <ele>1246.448</ele>
        <time>2022-08-24T10:13:55Z</time>
      </trkpt>
      <trkpt lat="43.038652999999336" lon="-1.2828659999999994">
        <ele>1246.461</ele>
        <time>2022-08-24T10:13:56Z</time>
      </trkpt>
      <trkpt lat="43.038635999999336" lon="-1.2828989999999993">
        <ele>1246.417</ele>
        <time>2022-08-24T10:13:57Z</time>
      </trkpt>
      <trkpt lat="43.038619999999334" lon="-1.2829299999999992">
        <ele>1246.409</ele>
        <time>2022-08-24T10:13:58Z</time>
      </trkpt>
      <trkpt lat="43.038587999999336" lon="-1.2829919999999992">
        <ele>1246.475</ele>
        <time>2022-08-24T10:14:00Z</time>
      </trkpt>
      <trkpt lat="43.038571999999334" lon="-1.2830219999999992">
        <ele>1246.655</ele>
        <time>2022-08-24T10:14:01Z</time>
      </trkpt>
      <trkpt lat="43.03855699999934" lon="-1.2830539999999993">
        <ele>1246.625</ele>
        <time>2022-08-24T10:14:02Z</time>
      </trkpt>
      <trkpt lat="43.03854499999934" lon="-1.2830819999999992">
        <ele>1246.871</ele>
        <time>2022-08-24T10:14:03Z</time>
      </trkpt>
      <trkpt lat="43.03853299999934" lon="-1.2831089999999992">
        <ele>1246.833</ele>
        <time>2022-08-24T10:14:04Z</time>
      </trkpt>
      <trkpt lat="43.03852399999934" lon="-1.2831379999999992">
        <ele>1246.840</ele>
        <time>2022-08-24T10:14:05Z</time>
      </trkpt>
      <trkpt lat="43.03851899999934" lon="-1.2831679999999992">
        <ele>1246.863</ele>
        <time>2022-08-24T10:14:06Z</time>
      </trkpt>
      <trkpt lat="43.03851199999934" lon="-1.2831939999999993">
        <ele>1247.077</ele>
        <time>2022-08-24T10:14:07Z</time>
      </trkpt>
      <trkpt lat="43.03850199999934" lon="-1.2832219999999992">
        <ele>1247.236</ele>
        <time>2022-08-24T10:14:08Z</time>
      </trkpt>
      <trkpt lat="43.03849299999934" lon="-1.2832509999999993">
        <ele>1247.277</ele>
        <time>2022-08-24T10:14:09Z</time>
      </trkpt>
      <trkpt lat="43.03848799999934" lon="-1.2832769999999993">
        <ele>1247.461</ele>
        <time>2022-08-24T10:14:10Z</time>
      </trkpt>
      <trkpt lat="43.03848299999934" lon="-1.2832969999999992">
        <ele>1247.427</ele>
        <time>2022-08-24T10:14:11Z</time>
      </trkpt>
      <trkpt lat="43.03847599999934" lon="-1.2833129999999993">
        <ele>1247.609</ele>
        <time>2022-08-24T10:14:12Z</time>
      </trkpt>
      <trkpt lat="43.03847399999934" lon="-1.2833359999999994">
        <ele>1247.668</ele>
        <time>2022-08-24T10:14:13Z</time>
      </trkpt>
      <trkpt lat="43.03847299999934" lon="-1.2833569999999994">
        <ele>1247.888</ele>
        <time>2022-08-24T10:14:14Z</time>
      </trkpt>
      <trkpt lat="43.03846999999934" lon="-1.2833749999999995">
        <ele>1248.028</ele>
        <time>2022-08-24T10:14:15Z</time>
      </trkpt>
      <trkpt lat="43.038465999999346" lon="-1.2833969999999995">
        <ele>1248.264</ele>
        <time>2022-08-24T10:14:16Z</time>
      </trkpt>
      <trkpt lat="43.038463999999344" lon="-1.2834129999999995">
        <ele>1248.626</ele>
        <time>2022-08-24T10:14:17Z</time>
      </trkpt>
      <trkpt lat="43.038460999999344" lon="-1.2834259999999995">
        <ele>1249.023</ele>
        <time>2022-08-24T10:14:18Z</time>
      </trkpt>
      <trkpt lat="43.03845299999934" lon="-1.2834429999999994">
        <ele>1249.086</ele>
        <time>2022-08-24T10:14:19Z</time>
      </trkpt>
      <trkpt lat="43.038449999999344" lon="-1.2834629999999994">
        <ele>1249.030</ele>
        <time>2022-08-24T10:14:20Z</time>
      </trkpt>
      <trkpt lat="43.03844499999934" lon="-1.2834789999999994">
        <ele>1249.249</ele>
        <time>2022-08-24T10:14:21Z</time>
      </trkpt>
      <trkpt lat="43.03843099999934" lon="-1.2834989999999993">
        <ele>1249.274</ele>
        <time>2022-08-24T10:14:22Z</time>
      </trkpt>
      <trkpt lat="43.03841799999934" lon="-1.2835149999999993">
        <ele>1249.456</ele>
        <time>2022-08-24T10:14:23Z</time>
      </trkpt>
      <trkpt lat="43.03841399999934" lon="-1.2835289999999993">
        <ele>1249.421</ele>
        <time>2022-08-24T10:14:24Z</time>
      </trkpt>
      <trkpt lat="43.038412999999345" lon="-1.2835389999999993">
        <ele>1249.609</ele>
        <time>2022-08-24T10:14:25Z</time>
      </trkpt>
      <trkpt lat="43.03840599999935" lon="-1.2835489999999994">
        <ele>1249.688</ele>
        <time>2022-08-24T10:14:26Z</time>
      </trkpt>
      <trkpt lat="43.03839799999935" lon="-1.2835609999999993">
        <ele>1249.818</ele>
        <time>2022-08-24T10:14:27Z</time>
      </trkpt>
      <trkpt lat="43.038392999999346" lon="-1.2835759999999994">
        <ele>1250.058</ele>
        <time>2022-08-24T10:14:28Z</time>
      </trkpt>
      <trkpt lat="43.038392999999346" lon="-1.2835899999999993">
        <ele>1250.294</ele>
        <time>2022-08-24T10:14:29Z</time>
      </trkpt>
      <trkpt lat="43.03838399999935" lon="-1.2836039999999993">
        <ele>1250.226</ele>
        <time>2022-08-24T10:14:30Z</time>
      </trkpt>
      <trkpt lat="43.038370999999344" lon="-1.2836239999999992">
        <ele>1250.243</ele>
        <time>2022-08-24T10:14:31Z</time>
      </trkpt>
      <trkpt lat="43.038359999999344" lon="-1.2836469999999993">
        <ele>1250.456</ele>
        <time>2022-08-24T10:14:32Z</time>
      </trkpt>
      <trkpt lat="43.03835799999934" lon="-1.2836619999999994">
        <ele>1250.430</ele>
        <time>2022-08-24T10:14:33Z</time>
      </trkpt>
      <trkpt lat="43.038356999999344" lon="-1.2836669999999994">
        <ele>1250.659</ele>
        <time>2022-08-24T10:14:34Z</time>
      </trkpt>
      <trkpt lat="43.038356999999344" lon="-1.2836779999999994">
        <ele>1250.826</ele>
        <time>2022-08-24T10:14:35Z</time>
      </trkpt>
      <trkpt lat="43.03834899999934" lon="-1.2836879999999995">
        <ele>1251.047</ele>
        <time>2022-08-24T10:14:36Z</time>
      </trkpt>
      <trkpt lat="43.038350999999345" lon="-1.2837059999999996">
        <ele>1251.211</ele>
        <time>2022-08-24T10:14:37Z</time>
      </trkpt>
      <trkpt lat="43.03834599999934" lon="-1.2837229999999995">
        <ele>1251.409</ele>
        <time>2022-08-24T10:14:38Z</time>
      </trkpt>
      <trkpt lat="43.038347999999345" lon="-1.2837339999999995">
        <ele>1251.483</ele>
        <time>2022-08-24T10:14:39Z</time>
      </trkpt>
      <trkpt lat="43.038356999999344" lon="-1.2837489999999996">
        <ele>1251.433</ele>
        <time>2022-08-24T10:14:40Z</time>
      </trkpt>
      <trkpt lat="43.03836099999934" lon="-1.2837619999999996">
        <ele>1251.673</ele>
        <time>2022-08-24T10:14:41Z</time>
      </trkpt>
      <trkpt lat="43.03836199999934" lon="-1.2837729999999996">
        <ele>1251.839</ele>
        <time>2022-08-24T10:14:42Z</time>
      </trkpt>
      <trkpt lat="43.03835799999934" lon="-1.2837849999999995">
        <ele>1252.031</ele>
        <time>2022-08-24T10:14:43Z</time>
      </trkpt>
      <trkpt lat="43.03834599999934" lon="-1.2838019999999994">
        <ele>1252.228</ele>
        <time>2022-08-24T10:14:44Z</time>
      </trkpt>
      <trkpt lat="43.038341999999346" lon="-1.2838199999999995">
        <ele>1252.481</ele>
        <time>2022-08-24T10:14:45Z</time>
      </trkpt>
      <trkpt lat="43.03834099999935" lon="-1.2838349999999996">
        <ele>1252.665</ele>
        <time>2022-08-24T10:14:46Z</time>
      </trkpt>
      <trkpt lat="43.03833999999935" lon="-1.2838509999999996">
        <ele>1252.614</ele>
        <time>2022-08-24T10:14:47Z</time>
      </trkpt>
      <trkpt lat="43.038335999999354" lon="-1.2838679999999996">
        <ele>1252.877</ele>
        <time>2022-08-24T10:14:48Z</time>
      </trkpt>
      <trkpt lat="43.03833699999935" lon="-1.2838869999999996">
        <ele>1252.861</ele>
        <time>2022-08-24T10:14:49Z</time>
      </trkpt>
      <trkpt lat="43.03834199999935" lon="-1.2839069999999995">
        <ele>1253.227</ele>
        <time>2022-08-24T10:14:50Z</time>
      </trkpt>
      <trkpt lat="43.03833999999935" lon="-1.2839239999999994">
        <ele>1253.209</ele>
        <time>2022-08-24T10:14:51Z</time>
      </trkpt>
      <trkpt lat="43.03833699999935" lon="-1.2839429999999994">
        <ele>1253.438</ele>
        <time>2022-08-24T10:14:52Z</time>
      </trkpt>
      <trkpt lat="43.03832699999935" lon="-1.2839689999999995">
        <ele>1253.648</ele>
        <time>2022-08-24T10:14:53Z</time>
      </trkpt>
      <trkpt lat="43.03831599999935" lon="-1.2839859999999994">
        <ele>1253.638</ele>
        <time>2022-08-24T10:14:54Z</time>
      </trkpt>
      <trkpt lat="43.03830399999935" lon="-1.2839989999999994">
        <ele>1253.884</ele>
        <time>2022-08-24T10:14:55Z</time>
      </trkpt>
      <trkpt lat="43.03830199999935" lon="-1.2840089999999995">
        <ele>1253.826</ele>
        <time>2022-08-24T10:14:56Z</time>
      </trkpt>
      <trkpt lat="43.03829899999935" lon="-1.2840239999999996">
        <ele>1254.043</ele>
        <time>2022-08-24T10:14:57Z</time>
      </trkpt>
      <trkpt lat="43.03829499999935" lon="-1.2840439999999995">
        <ele>1254.276</ele>
        <time>2022-08-24T10:14:58Z</time>
      </trkpt>
      <trkpt lat="43.03829199999935" lon="-1.2840649999999996">
        <ele>1254.420</ele>
        <time>2022-08-24T10:14:59Z</time>
      </trkpt>
      <trkpt lat="43.03828899999935" lon="-1.2840859999999996">
        <ele>1254.699</ele>
        <time>2022-08-24T10:15:00Z</time>
      </trkpt>
      <trkpt lat="43.038284999999355" lon="-1.2841129999999996">
        <ele>1254.625</ele>
        <time>2022-08-24T10:15:01Z</time>
      </trkpt>
      <trkpt lat="43.038276999999354" lon="-1.2841349999999996">
        <ele>1254.826</ele>
        <time>2022-08-24T10:15:02Z</time>
      </trkpt>
      <trkpt lat="43.03826399999935" lon="-1.2841599999999995">
        <ele>1254.808</ele>
        <time>2022-08-24T10:15:03Z</time>
      </trkpt>
      <trkpt lat="43.03825099999935" lon="-1.2841759999999995">
        <ele>1255.209</ele>
        <time>2022-08-24T10:15:04Z</time>
      </trkpt>
      <trkpt lat="43.03825099999935" lon="-1.2841949999999995">
        <ele>1255.253</ele>
        <time>2022-08-24T10:15:05Z</time>
      </trkpt>
      <trkpt lat="43.03824199999935" lon="-1.2842139999999995">
        <ele>1255.263</ele>
        <time>2022-08-24T10:15:06Z</time>
      </trkpt>
      <trkpt lat="43.03824299999935" lon="-1.2842319999999996">
        <ele>1255.443</ele>
        <time>2022-08-24T10:15:07Z</time>
      </trkpt>
      <trkpt lat="43.038246999999345" lon="-1.2842489999999995">
        <ele>1255.499</ele>
        <time>2022-08-24T10:15:08Z</time>
      </trkpt>
      <trkpt lat="43.038243999999345" lon="-1.2842679999999995">
        <ele>1255.631</ele>
        <time>2022-08-24T10:15:09Z</time>
      </trkpt>
      <trkpt lat="43.038252999999344" lon="-1.2842799999999994">
        <ele>1255.628</ele>
        <time>2022-08-24T10:15:10Z</time>
      </trkpt>
      <trkpt lat="43.038257999999345" lon="-1.2842899999999995">
        <ele>1255.841</ele>
        <time>2022-08-24T10:15:11Z</time>
      </trkpt>
      <trkpt lat="43.03825899999934" lon="-1.2843049999999996">
        <ele>1255.885</ele>
        <time>2022-08-24T10:15:12Z</time>
      </trkpt>
      <trkpt lat="43.03825699999934" lon="-1.2843219999999995">
        <ele>1256.014</ele>
        <time>2022-08-24T10:15:13Z</time>
      </trkpt>
      <trkpt lat="43.038252999999344" lon="-1.2843359999999995">
        <ele>1256.447</ele>
        <time>2022-08-24T10:15:14Z</time>
      </trkpt>
      <trkpt lat="43.038246999999345" lon="-1.2843519999999995">
        <ele>1256.429</ele>
        <time>2022-08-24T10:15:15Z</time>
      </trkpt>
      <trkpt lat="43.03823999999935" lon="-1.2843739999999995">
        <ele>1256.421</ele>
        <time>2022-08-24T10:15:16Z</time>
      </trkpt>
      <trkpt lat="43.03823199999935" lon="-1.2843899999999995">
        <ele>1256.609</ele>
        <time>2022-08-24T10:15:17Z</time>
      </trkpt>
      <trkpt lat="43.03822799999935" lon="-1.2844119999999994">
        <ele>1256.675</ele>
        <time>2022-08-24T10:15:18Z</time>
      </trkpt>
      <trkpt lat="43.03821999999935" lon="-1.2844279999999995">
        <ele>1256.635</ele>
        <time>2022-08-24T10:15:19Z</time>
      </trkpt>
      <trkpt lat="43.03821999999935" lon="-1.2844479999999994">
        <ele>1256.645</ele>
        <time>2022-08-24T10:15:20Z</time>
      </trkpt>
      <trkpt lat="43.03821699999935" lon="-1.2844659999999994">
        <ele>1256.831</ele>
        <time>2022-08-24T10:15:21Z</time>
      </trkpt>
      <trkpt lat="43.03821299999935" lon="-1.2844859999999994">
        <ele>1256.863</ele>
        <time>2022-08-24T10:15:22Z</time>
      </trkpt>
      <trkpt lat="43.038211999999355" lon="-1.2844979999999993">
        <ele>1257.060</ele>
        <time>2022-08-24T10:15:23Z</time>
      </trkpt>
      <trkpt lat="43.03820699999935" lon="-1.2845129999999993">
        <ele>1257.263</ele>
        <time>2022-08-24T10:15:24Z</time>
      </trkpt>
      <trkpt lat="43.038203999999354" lon="-1.2845279999999994">
        <ele>1257.267</ele>
        <time>2022-08-24T10:15:25Z</time>
      </trkpt>
      <trkpt lat="43.038203999999354" lon="-1.2845409999999995">
        <ele>1257.696</ele>
        <time>2022-08-24T10:15:26Z</time>
      </trkpt>
      <trkpt lat="43.038203999999354" lon="-1.2845539999999995">
        <ele>1257.887</ele>
        <time>2022-08-24T10:15:27Z</time>
      </trkpt>
      <trkpt lat="43.038202999999356" lon="-1.2845669999999996">
        <ele>1257.842</ele>
        <time>2022-08-24T10:15:28Z</time>
      </trkpt>
      <trkpt lat="43.038200999999354" lon="-1.2845789999999995">
        <ele>1258.026</ele>
        <time>2022-08-24T10:15:29Z</time>
      </trkpt>
      <trkpt lat="43.038200999999354" lon="-1.2845929999999994">
        <ele>1258.409</ele>
        <time>2022-08-24T10:15:30Z</time>
      </trkpt>
      <trkpt lat="43.03820499999935" lon="-1.2846049999999993">
        <ele>1258.419</ele>
        <time>2022-08-24T10:15:31Z</time>
      </trkpt>
      <trkpt lat="43.03821099999935" lon="-1.2846159999999993">
        <ele>1258.869</ele>
        <time>2022-08-24T10:15:32Z</time>
      </trkpt>
      <trkpt lat="43.03821299999935" lon="-1.2846259999999994">
        <ele>1259.079</ele>
        <time>2022-08-24T10:15:33Z</time>
      </trkpt>
      <trkpt lat="43.03821099999935" lon="-1.2846399999999993">
        <ele>1259.055</ele>
        <time>2022-08-24T10:15:34Z</time>
      </trkpt>
      <trkpt lat="43.03821299999935" lon="-1.2846479999999993">
        <ele>1259.267</ele>
        <time>2022-08-24T10:15:35Z</time>
      </trkpt>
      <trkpt lat="43.038208999999355" lon="-1.2846509999999993">
        <ele>1259.434</ele>
        <time>2022-08-24T10:15:36Z</time>
      </trkpt>
      <trkpt lat="43.03820699999935" lon="-1.2846699999999993">
        <ele>1259.667</ele>
        <time>2022-08-24T10:15:37Z</time>
      </trkpt>
      <trkpt lat="43.038205999999356" lon="-1.2846869999999992">
        <ele>1259.671</ele>
        <time>2022-08-24T10:15:38Z</time>
      </trkpt>
      <trkpt lat="43.03820499999936" lon="-1.2847049999999993">
        <ele>1259.840</ele>
        <time>2022-08-24T10:15:39Z</time>
      </trkpt>
      <trkpt lat="43.03820399999936" lon="-1.2847249999999992">
        <ele>1260.015</ele>
        <time>2022-08-24T10:15:40Z</time>
      </trkpt>
      <trkpt lat="43.03820299999936" lon="-1.2847399999999993">
        <ele>1260.065</ele>
        <time>2022-08-24T10:15:41Z</time>
      </trkpt>
      <trkpt lat="43.03819799999936" lon="-1.2847539999999993">
        <ele>1260.011</ele>
        <time>2022-08-24T10:15:42Z</time>
      </trkpt>
      <trkpt lat="43.038193999999365" lon="-1.2847669999999993">
        <ele>1260.009</ele>
        <time>2022-08-24T10:15:43Z</time>
      </trkpt>
      <trkpt lat="43.038193999999365" lon="-1.2847819999999994">
        <ele>1260.252</ele>
        <time>2022-08-24T10:15:44Z</time>
      </trkpt>
      <trkpt lat="43.03819299999937" lon="-1.2847959999999994">
        <ele>1260.232</ele>
        <time>2022-08-24T10:15:45Z</time>
      </trkpt>
      <trkpt lat="43.03818099999937" lon="-1.2848109999999995">
        <ele>1260.432</ele>
        <time>2022-08-24T10:15:46Z</time>
      </trkpt>
      <trkpt lat="43.03817599999937" lon="-1.2848259999999996">
        <ele>1260.458</ele>
        <time>2022-08-24T10:15:47Z</time>
      </trkpt>
      <trkpt lat="43.038173999999366" lon="-1.2848389999999996">
        <ele>1260.650</ele>
        <time>2022-08-24T10:15:48Z</time>
      </trkpt>
      <trkpt lat="43.038173999999366" lon="-1.2848539999999997">
        <ele>1261.047</ele>
        <time>2022-08-24T10:15:49Z</time>
      </trkpt>
      <trkpt lat="43.038176999999365" lon="-1.2848629999999996">
        <ele>1261.060</ele>
        <time>2022-08-24T10:15:50Z</time>
      </trkpt>
      <trkpt lat="43.038173999999366" lon="-1.2848759999999997">
        <ele>1261.274</ele>
        <time>2022-08-24T10:15:51Z</time>
      </trkpt>
      <trkpt lat="43.03817199999936" lon="-1.2848849999999996">
        <ele>1261.483</ele>
        <time>2022-08-24T10:15:52Z</time>
      </trkpt>
      <trkpt lat="43.038168999999364" lon="-1.2848899999999996">
        <ele>1261.456</ele>
        <time>2022-08-24T10:15:53Z</time>
      </trkpt>
      <trkpt lat="43.03816499999937" lon="-1.2849039999999996">
        <ele>1261.659</ele>
        <time>2022-08-24T10:15:54Z</time>
      </trkpt>
      <trkpt lat="43.03816399999937" lon="-1.2849199999999996">
        <ele>1261.814</ele>
        <time>2022-08-24T10:15:55Z</time>
      </trkpt>
      <trkpt lat="43.03816399999937" lon="-1.2849329999999997">
        <ele>1262.009</ele>
        <time>2022-08-24T10:15:56Z</time>
      </trkpt>
      <trkpt lat="43.03816299999937" lon="-1.2849449999999996">
        <ele>1262.096</ele>
        <time>2022-08-24T10:15:57Z</time>
      </trkpt>
      <trkpt lat="43.03815999999937" lon="-1.2849599999999997">
        <ele>1262.256</ele>
        <time>2022-08-24T10:15:58Z</time>
      </trkpt>
      <trkpt lat="43.03815199999937" lon="-1.2849749999999998">
        <ele>1262.436</ele>
        <time>2022-08-24T10:15:59Z</time>
      </trkpt>
      <trkpt lat="43.038147999999374" lon="-1.2849909999999998">
        <ele>1262.632</ele>
        <time>2022-08-24T10:16:00Z</time>
      </trkpt>
      <trkpt lat="43.03814399999938" lon="-1.2850099999999998">
        <ele>1262.664</ele>
        <time>2022-08-24T10:16:01Z</time>
      </trkpt>
      <trkpt lat="43.038130999999375" lon="-1.2850279999999998">
        <ele>1262.881</ele>
        <time>2022-08-24T10:16:02Z</time>
      </trkpt>
      <trkpt lat="43.038127999999375" lon="-1.2850419999999998">
        <ele>1263.024</ele>
        <time>2022-08-24T10:16:03Z</time>
      </trkpt>
      <trkpt lat="43.03811899999938" lon="-1.285057">
        <ele>1263.278</ele>
        <time>2022-08-24T10:16:04Z</time>
      </trkpt>
      <trkpt lat="43.038116999999374" lon="-1.2850739999999998">
        <ele>1263.457</ele>
        <time>2022-08-24T10:16:05Z</time>
      </trkpt>
      <trkpt lat="43.03811799999937" lon="-1.2850859999999997">
        <ele>1263.851</ele>
        <time>2022-08-24T10:16:06Z</time>
      </trkpt>
      <trkpt lat="43.03811899999937" lon="-1.2850979999999996">
        <ele>1263.801</ele>
        <time>2022-08-24T10:16:07Z</time>
      </trkpt>
      <trkpt lat="43.03811699999937" lon="-1.2851089999999996">
        <ele>1264.011</ele>
        <time>2022-08-24T10:16:08Z</time>
      </trkpt>
      <trkpt lat="43.03811599999937" lon="-1.2851229999999996">
        <ele>1264.009</ele>
        <time>2022-08-24T10:16:09Z</time>
      </trkpt>
      <trkpt lat="43.03811299999937" lon="-1.2851389999999996">
        <ele>1264.026</ele>
        <time>2022-08-24T10:16:10Z</time>
      </trkpt>
      <trkpt lat="43.03811299999937" lon="-1.2851529999999995">
        <ele>1264.246</ele>
        <time>2022-08-24T10:16:11Z</time>
      </trkpt>
      <trkpt lat="43.03811199999937" lon="-1.2851649999999994">
        <ele>1264.446</ele>
        <time>2022-08-24T10:16:12Z</time>
      </trkpt>
      <trkpt lat="43.03811199999937" lon="-1.2851759999999994">
        <ele>1264.622</ele>
        <time>2022-08-24T10:16:13Z</time>
      </trkpt>
      <trkpt lat="43.038110999999375" lon="-1.2851859999999995">
        <ele>1264.634</ele>
        <time>2022-08-24T10:16:14Z</time>
      </trkpt>
      <trkpt lat="43.03810699999938" lon="-1.2851979999999994">
        <ele>1264.861</ele>
        <time>2022-08-24T10:16:15Z</time>
      </trkpt>
      <trkpt lat="43.038107999999376" lon="-1.2852089999999994">
        <ele>1264.864</ele>
        <time>2022-08-24T10:16:16Z</time>
      </trkpt>
      <trkpt lat="43.038110999999375" lon="-1.2852209999999993">
        <ele>1265.048</ele>
        <time>2022-08-24T10:16:17Z</time>
      </trkpt>
      <trkpt lat="43.03810699999938" lon="-1.2852369999999993">
        <ele>1265.017</ele>
        <time>2022-08-24T10:16:18Z</time>
      </trkpt>
      <trkpt lat="43.03810199999938" lon="-1.2852519999999994">
        <ele>1265.299</ele>
        <time>2022-08-24T10:16:19Z</time>
      </trkpt>
      <trkpt lat="43.038096999999375" lon="-1.2852659999999994">
        <ele>1265.207</ele>
        <time>2022-08-24T10:16:20Z</time>
      </trkpt>
      <trkpt lat="43.03808999999938" lon="-1.2852849999999993">
        <ele>1265.227</ele>
        <time>2022-08-24T10:16:21Z</time>
      </trkpt>
      <trkpt lat="43.03808599999938" lon="-1.2853039999999993">
        <ele>1265.409</ele>
        <time>2022-08-24T10:16:22Z</time>
      </trkpt>
      <trkpt lat="43.038084999999384" lon="-1.2853209999999993">
        <ele>1265.440</ele>
        <time>2022-08-24T10:16:23Z</time>
      </trkpt>
      <trkpt lat="43.03807799999939" lon="-1.2853409999999992">
        <ele>1265.470</ele>
        <time>2022-08-24T10:16:24Z</time>
      </trkpt>
      <trkpt lat="43.03807099999939" lon="-1.2853559999999993">
        <ele>1265.670</ele>
        <time>2022-08-24T10:16:25Z</time>
      </trkpt>
      <trkpt lat="43.03806899999939" lon="-1.2853729999999992">
        <ele>1265.886</ele>
        <time>2022-08-24T10:16:26Z</time>
      </trkpt>
      <trkpt lat="43.03806799999939" lon="-1.2853899999999991">
        <ele>1266.018</ele>
        <time>2022-08-24T10:16:27Z</time>
      </trkpt>
      <trkpt lat="43.03806599999939" lon="-1.285406999999999">
        <ele>1266.065</ele>
        <time>2022-08-24T10:16:28Z</time>
      </trkpt>
      <trkpt lat="43.03806399999939" lon="-1.2854199999999991">
        <ele>1266.268</ele>
        <time>2022-08-24T10:16:29Z</time>
      </trkpt>
      <trkpt lat="43.03806399999939" lon="-1.285430999999999">
        <ele>1266.282</ele>
        <time>2022-08-24T10:16:30Z</time>
      </trkpt>
      <trkpt lat="43.03806699999939" lon="-1.2854469999999991">
        <ele>1266.471</ele>
        <time>2022-08-24T10:16:31Z</time>
      </trkpt>
      <trkpt lat="43.03805999999939" lon="-1.285468999999999">
        <ele>1266.458</ele>
        <time>2022-08-24T10:16:32Z</time>
      </trkpt>
      <trkpt lat="43.03805599999939" lon="-1.285488999999999">
        <ele>1266.652</ele>
        <time>2022-08-24T10:16:33Z</time>
      </trkpt>
      <trkpt lat="43.038052999999394" lon="-1.285507999999999">
        <ele>1266.617</ele>
        <time>2022-08-24T10:16:35Z</time>
      </trkpt>
      <trkpt lat="43.0380459999994" lon="-1.285527999999999">
        <ele>1266.609</ele>
        <time>2022-08-24T10:16:36Z</time>
      </trkpt>
      <trkpt lat="43.0380389999994" lon="-1.2855449999999988">
        <ele>1266.896</ele>
        <time>2022-08-24T10:16:37Z</time>
      </trkpt>
      <trkpt lat="43.038031999999404" lon="-1.2855689999999989">
        <ele>1267.046</ele>
        <time>2022-08-24T10:16:38Z</time>
      </trkpt>
      <trkpt lat="43.0380269999994" lon="-1.2855969999999988">
        <ele>1267.026</ele>
        <time>2022-08-24T10:16:39Z</time>
      </trkpt>
      <trkpt lat="43.038014999999405" lon="-1.2856249999999987">
        <ele>1267.232</ele>
        <time>2022-08-24T10:16:40Z</time>
      </trkpt>
      <trkpt lat="43.038008999999406" lon="-1.2856559999999986">
        <ele>1267.264</ele>
        <time>2022-08-24T10:16:41Z</time>
      </trkpt>
      <trkpt lat="43.03800799999941" lon="-1.2856839999999985">
        <ele>1267.451</ele>
        <time>2022-08-24T10:16:42Z</time>
      </trkpt>
      <trkpt lat="43.03800699999941" lon="-1.2857109999999985">
        <ele>1267.434</ele>
        <time>2022-08-24T10:16:43Z</time>
      </trkpt>
      <trkpt lat="43.03800099999941" lon="-1.2857389999999984">
        <ele>1267.458</ele>
        <time>2022-08-24T10:16:44Z</time>
      </trkpt>
      <trkpt lat="43.037996999999415" lon="-1.2857629999999984">
        <ele>1267.477</ele>
        <time>2022-08-24T10:16:45Z</time>
      </trkpt>
      <trkpt lat="43.037987999999416" lon="-1.2857869999999985">
        <ele>1267.643</ele>
        <time>2022-08-24T10:16:46Z</time>
      </trkpt>
      <trkpt lat="43.03797899999942" lon="-1.2858059999999985">
        <ele>1267.664</ele>
        <time>2022-08-24T10:16:47Z</time>
      </trkpt>
      <trkpt lat="43.037973999999416" lon="-1.2858299999999985">
        <ele>1267.610</ele>
        <time>2022-08-24T10:16:48Z</time>
      </trkpt>
      <trkpt lat="43.03796499999942" lon="-1.2858549999999984">
        <ele>1267.609</ele>
        <time>2022-08-24T10:16:49Z</time>
      </trkpt>
      <trkpt lat="43.037956999999416" lon="-1.2858839999999985">
        <ele>1267.625</ele>
        <time>2022-08-24T10:16:50Z</time>
      </trkpt>
      <trkpt lat="43.037956999999416" lon="-1.2859129999999985">
        <ele>1267.855</ele>
        <time>2022-08-24T10:16:51Z</time>
      </trkpt>
      <trkpt lat="43.037945999999415" lon="-1.2859489999999985">
        <ele>1267.885</ele>
        <time>2022-08-24T10:16:52Z</time>
      </trkpt>
      <trkpt lat="43.03794199999942" lon="-1.2860169999999984">
        <ele>1268.021</ele>
        <time>2022-08-24T10:16:54Z</time>
      </trkpt>
      <trkpt lat="43.03793899999942" lon="-1.2860539999999985">
        <ele>1268.013</ele>
        <time>2022-08-24T10:16:55Z</time>
      </trkpt>
      <trkpt lat="43.03793199999942" lon="-1.2861259999999985">
        <ele>1268.420</ele>
        <time>2022-08-24T10:16:57Z</time>
      </trkpt>
      <trkpt lat="43.03792999999942" lon="-1.2861689999999986">
        <ele>1268.413</ele>
        <time>2022-08-24T10:16:58Z</time>
      </trkpt>
      <trkpt lat="43.03790699999942" lon="-1.2862519999999986">
        <ele>1268.617</ele>
        <time>2022-08-24T10:17:00Z</time>
      </trkpt>
      <trkpt lat="43.03788999999942" lon="-1.2862959999999986">
        <ele>1268.836</ele>
        <time>2022-08-24T10:17:01Z</time>
      </trkpt>
      <trkpt lat="43.037871999999425" lon="-1.2863389999999986">
        <ele>1268.865</ele>
        <time>2022-08-24T10:17:02Z</time>
      </trkpt>
      <trkpt lat="43.03785699999943" lon="-1.2863669999999985">
        <ele>1269.068</ele>
        <time>2022-08-24T10:17:03Z</time>
      </trkpt>
      <trkpt lat="43.03786399999942" lon="-1.2864169999999986">
        <ele>1269.214</ele>
        <time>2022-08-24T10:17:05Z</time>
      </trkpt>
      <trkpt lat="43.03785599999942" lon="-1.2864649999999986">
        <ele>1269.209</ele>
        <time>2022-08-24T10:17:06Z</time>
      </trkpt>
      <trkpt lat="43.03784199999942" lon="-1.2864989999999987">
        <ele>1269.287</ele>
        <time>2022-08-24T10:17:07Z</time>
      </trkpt>
      <trkpt lat="43.03783399999942" lon="-1.2865299999999986">
        <ele>1269.457</ele>
        <time>2022-08-24T10:17:08Z</time>
      </trkpt>
      <trkpt lat="43.03782799999942" lon="-1.2866139999999986">
        <ele>1269.257</ele>
        <time>2022-08-24T10:17:10Z</time>
      </trkpt>
      <trkpt lat="43.03780299999942" lon="-1.2867499999999985">
        <ele>1269.473</ele>
        <time>2022-08-24T10:17:14Z</time>
      </trkpt>
      <trkpt lat="43.03779099999942" lon="-1.2868109999999986">
        <ele>1269.445</ele>
        <time>2022-08-24T10:17:16Z</time>
      </trkpt>
      <trkpt lat="43.03778799999942" lon="-1.2868359999999985">
        <ele>1269.432</ele>
        <time>2022-08-24T10:17:17Z</time>
      </trkpt>
      <trkpt lat="43.03778399999943" lon="-1.2868619999999986">
        <ele>1269.485</ele>
        <time>2022-08-24T10:17:18Z</time>
      </trkpt>
      <trkpt lat="43.03775799999943" lon="-1.2869559999999987">
        <ele>1269.279</ele>
        <time>2022-08-24T10:17:22Z</time>
      </trkpt>
      <trkpt lat="43.03775199999943" lon="-1.2869759999999986">
        <ele>1269.248</ele>
        <time>2022-08-24T10:17:23Z</time>
      </trkpt>
      <trkpt lat="43.03768599999943" lon="-1.2872049999999986">
        <ele>1269.228</ele>
        <time>2022-08-24T10:17:30Z</time>
      </trkpt>
      <trkpt lat="43.03766199999943" lon="-1.2873639999999986">
        <ele>1268.489</ele>
        <time>2022-08-24T10:17:34Z</time>
      </trkpt>
      <trkpt lat="43.03764299999943" lon="-1.2874359999999987">
        <ele>1268.217</ele>
        <time>2022-08-24T10:17:36Z</time>
      </trkpt>
      <trkpt lat="43.037632999999424" lon="-1.2874679999999987">
        <ele>1268.009</ele>
        <time>2022-08-24T10:17:37Z</time>
      </trkpt>
      <trkpt lat="43.03762199999942" lon="-1.2874999999999988">
        <ele>1267.673</ele>
        <time>2022-08-24T10:17:38Z</time>
      </trkpt>
      <trkpt lat="43.03760299999942" lon="-1.2875659999999987">
        <ele>1267.453</ele>
        <time>2022-08-24T10:17:40Z</time>
      </trkpt>
      <trkpt lat="43.03757899999942" lon="-1.2876329999999987">
        <ele>1267.223</ele>
        <time>2022-08-24T10:17:42Z</time>
      </trkpt>
      <trkpt lat="43.03756699999942" lon="-1.2876639999999986">
        <ele>1267.299</ele>
        <time>2022-08-24T10:17:43Z</time>
      </trkpt>
      <trkpt lat="43.03755599999942" lon="-1.2876899999999987">
        <ele>1267.221</ele>
        <time>2022-08-24T10:17:44Z</time>
      </trkpt>
      <trkpt lat="43.03754699999942" lon="-1.2877139999999987">
        <ele>1267.248</ele>
        <time>2022-08-24T10:17:45Z</time>
      </trkpt>
      <trkpt lat="43.03753499999942" lon="-1.2877399999999988">
        <ele>1267.231</ele>
        <time>2022-08-24T10:17:46Z</time>
      </trkpt>
      <trkpt lat="43.037522999999425" lon="-1.2877659999999989">
        <ele>1267.465</ele>
        <time>2022-08-24T10:17:47Z</time>
      </trkpt>
      <trkpt lat="43.03751499999942" lon="-1.2877909999999988">
        <ele>1267.674</ele>
        <time>2022-08-24T10:17:48Z</time>
      </trkpt>
      <trkpt lat="43.037505999999425" lon="-1.2878149999999988">
        <ele>1267.652</ele>
        <time>2022-08-24T10:17:49Z</time>
      </trkpt>
      <trkpt lat="43.037497999999424" lon="-1.287837999999999">
        <ele>1268.053</ele>
        <time>2022-08-24T10:17:50Z</time>
      </trkpt>
      <trkpt lat="43.03748999999942" lon="-1.287858999999999">
        <ele>1268.608</ele>
        <time>2022-08-24T10:17:51Z</time>
      </trkpt>
      <trkpt lat="43.03748499999942" lon="-1.287879999999999">
        <ele>1268.809</ele>
        <time>2022-08-24T10:17:52Z</time>
      </trkpt>
      <trkpt lat="43.03747999999942" lon="-1.287900999999999">
        <ele>1269.256</ele>
        <time>2022-08-24T10:17:53Z</time>
      </trkpt>
      <trkpt lat="43.03747699999942" lon="-1.287919999999999">
        <ele>1269.286</ele>
        <time>2022-08-24T10:17:54Z</time>
      </trkpt>
      <trkpt lat="43.03747099999942" lon="-1.2879409999999991">
        <ele>1269.876</ele>
        <time>2022-08-24T10:17:55Z</time>
      </trkpt>
      <trkpt lat="43.03746299999942" lon="-1.2879839999999991">
        <ele>1270.482</ele>
        <time>2022-08-24T10:17:57Z</time>
      </trkpt>
      <trkpt lat="43.03744999999942" lon="-1.2880459999999991">
        <ele>1271.054</ele>
        <time>2022-08-24T10:18:00Z</time>
      </trkpt>
      <trkpt lat="43.03744299999942" lon="-1.2880639999999992">
        <ele>1271.241</ele>
        <time>2022-08-24T10:18:01Z</time>
      </trkpt>
      <trkpt lat="43.03743499999942" lon="-1.2880789999999993">
        <ele>1271.464</ele>
        <time>2022-08-24T10:18:02Z</time>
      </trkpt>
      <trkpt lat="43.03742699999942" lon="-1.2880909999999992">
        <ele>1271.468</ele>
        <time>2022-08-24T10:18:03Z</time>
      </trkpt>
      <trkpt lat="43.03742099999942" lon="-1.2881059999999993">
        <ele>1271.847</ele>
        <time>2022-08-24T10:18:04Z</time>
      </trkpt>
      <trkpt lat="43.03741499999942" lon="-1.2881209999999994">
        <ele>1272.023</ele>
        <time>2022-08-24T10:18:05Z</time>
      </trkpt>
      <trkpt lat="43.03740999999942" lon="-1.2881369999999994">
        <ele>1272.283</ele>
        <time>2022-08-24T10:18:06Z</time>
      </trkpt>
      <trkpt lat="43.03740499999942" lon="-1.2881549999999995">
        <ele>1272.411</ele>
        <time>2022-08-24T10:18:07Z</time>
      </trkpt>
      <trkpt lat="43.03740199999942" lon="-1.2881709999999995">
        <ele>1272.409</ele>
        <time>2022-08-24T10:18:08Z</time>
      </trkpt>
      <trkpt lat="43.03739499999942" lon="-1.2881869999999995">
        <ele>1272.853</ele>
        <time>2022-08-24T10:18:09Z</time>
      </trkpt>
      <trkpt lat="43.03738899999942" lon="-1.2881999999999996">
        <ele>1273.043</ele>
        <time>2022-08-24T10:18:10Z</time>
      </trkpt>
      <trkpt lat="43.03738099999942" lon="-1.2882159999999996">
        <ele>1273.063</ele>
        <time>2022-08-24T10:18:11Z</time>
      </trkpt>
      <trkpt lat="43.037376999999424" lon="-1.2882339999999997">
        <ele>1273.459</ele>
        <time>2022-08-24T10:18:12Z</time>
      </trkpt>
      <trkpt lat="43.03737299999943" lon="-1.2882509999999996">
        <ele>1273.621</ele>
        <time>2022-08-24T10:18:13Z</time>
      </trkpt>
      <trkpt lat="43.03736899999943" lon="-1.2882699999999996">
        <ele>1273.688</ele>
        <time>2022-08-24T10:18:14Z</time>
      </trkpt>
      <trkpt lat="43.03736599999943" lon="-1.2882859999999996">
        <ele>1273.831</ele>
        <time>2022-08-24T10:18:15Z</time>
      </trkpt>
      <trkpt lat="43.03736499999943" lon="-1.2882979999999995">
        <ele>1273.855</ele>
        <time>2022-08-24T10:18:16Z</time>
      </trkpt>
      <trkpt lat="43.03736499999943" lon="-1.2883139999999995">
        <ele>1274.054</ele>
        <time>2022-08-24T10:18:17Z</time>
      </trkpt>
      <trkpt lat="43.03736299999943" lon="-1.2883299999999995">
        <ele>1274.052</ele>
        <time>2022-08-24T10:18:18Z</time>
      </trkpt>
      <trkpt lat="43.037355999999434" lon="-1.2883459999999995">
        <ele>1274.253</ele>
        <time>2022-08-24T10:18:19Z</time>
      </trkpt>
      <trkpt lat="43.037349999999435" lon="-1.2883619999999996">
        <ele>1274.208</ele>
        <time>2022-08-24T10:18:20Z</time>
      </trkpt>
      <trkpt lat="43.037341999999434" lon="-1.2883769999999997">
        <ele>1274.409</ele>
        <time>2022-08-24T10:18:21Z</time>
      </trkpt>
      <trkpt lat="43.03733699999943" lon="-1.2883899999999997">
        <ele>1274.486</ele>
        <time>2022-08-24T10:18:22Z</time>
      </trkpt>
      <trkpt lat="43.03733499999943" lon="-1.2884059999999997">
        <ele>1274.656</ele>
        <time>2022-08-24T10:18:23Z</time>
      </trkpt>
      <trkpt lat="43.03733199999943" lon="-1.2884189999999998">
        <ele>1274.856</ele>
        <time>2022-08-24T10:18:24Z</time>
      </trkpt>
      <trkpt lat="43.03733099999943" lon="-1.2884319999999998">
        <ele>1275.032</ele>
        <time>2022-08-24T10:18:25Z</time>
      </trkpt>
      <trkpt lat="43.037327999999434" lon="-1.2884439999999997">
        <ele>1275.284</ele>
        <time>2022-08-24T10:18:26Z</time>
      </trkpt>
      <trkpt lat="43.03732099999944" lon="-1.2884579999999997">
        <ele>1275.411</ele>
        <time>2022-08-24T10:18:27Z</time>
      </trkpt>
      <trkpt lat="43.037315999999436" lon="-1.2884699999999996">
        <ele>1275.694</ele>
        <time>2022-08-24T10:18:28Z</time>
      </trkpt>
      <trkpt lat="43.03730999999944" lon="-1.2884819999999995">
        <ele>1275.868</ele>
        <time>2022-08-24T10:18:29Z</time>
      </trkpt>
      <trkpt lat="43.037301999999436" lon="-1.2884969999999996">
        <ele>1275.837</ele>
        <time>2022-08-24T10:18:30Z</time>
      </trkpt>
      <trkpt lat="43.037290999999435" lon="-1.2885139999999995">
        <ele>1276.293</ele>
        <time>2022-08-24T10:18:31Z</time>
      </trkpt>
      <trkpt lat="43.03728099999943" lon="-1.2885329999999995">
        <ele>1276.465</ele>
        <time>2022-08-24T10:18:32Z</time>
      </trkpt>
      <trkpt lat="43.03727299999943" lon="-1.2885439999999995">
        <ele>1276.621</ele>
        <time>2022-08-24T10:18:33Z</time>
      </trkpt>
      <trkpt lat="43.03726399999943" lon="-1.2885589999999996">
        <ele>1276.609</ele>
        <time>2022-08-24T10:18:34Z</time>
      </trkpt>
      <trkpt lat="43.037256999999435" lon="-1.2885759999999995">
        <ele>1276.860</ele>
        <time>2022-08-24T10:18:35Z</time>
      </trkpt>
      <trkpt lat="43.037250999999436" lon="-1.2885969999999995">
        <ele>1276.850</ele>
        <time>2022-08-24T10:18:36Z</time>
      </trkpt>
      <trkpt lat="43.03724499999944" lon="-1.2886189999999995">
        <ele>1277.080</ele>
        <time>2022-08-24T10:18:37Z</time>
      </trkpt>
      <trkpt lat="43.03723899999944" lon="-1.2886399999999996">
        <ele>1277.066</ele>
        <time>2022-08-24T10:18:38Z</time>
      </trkpt>
      <trkpt lat="43.03723299999944" lon="-1.2886649999999995">
        <ele>1277.028</ele>
        <time>2022-08-24T10:18:39Z</time>
      </trkpt>
      <trkpt lat="43.03722399999944" lon="-1.2886889999999995">
        <ele>1277.025</ele>
        <time>2022-08-24T10:18:40Z</time>
      </trkpt>
      <trkpt lat="43.03720899999944" lon="-1.2887119999999996">
        <ele>1277.288</ele>
        <time>2022-08-24T10:18:41Z</time>
      </trkpt>
      <trkpt lat="43.03719899999944" lon="-1.2887309999999996">
        <ele>1277.262</ele>
        <time>2022-08-24T10:18:42Z</time>
      </trkpt>
      <trkpt lat="43.03718899999944" lon="-1.2887459999999997">
        <ele>1277.461</ele>
        <time>2022-08-24T10:18:43Z</time>
      </trkpt>
      <trkpt lat="43.037174999999436" lon="-1.2887649999999997">
        <ele>1277.694</ele>
        <time>2022-08-24T10:18:44Z</time>
      </trkpt>
      <trkpt lat="43.03716299999944" lon="-1.2887859999999998">
        <ele>1277.857</ele>
        <time>2022-08-24T10:18:45Z</time>
      </trkpt>
      <trkpt lat="43.037152999999435" lon="-1.2888099999999998">
        <ele>1277.822</ele>
        <time>2022-08-24T10:18:46Z</time>
      </trkpt>
      <trkpt lat="43.037141999999434" lon="-1.2888269999999997">
        <ele>1278.009</ele>
        <time>2022-08-24T10:18:47Z</time>
      </trkpt>
      <trkpt lat="43.037130999999434" lon="-1.2888459999999997">
        <ele>1278.030</ele>
        <time>2022-08-24T10:18:48Z</time>
      </trkpt>
      <trkpt lat="43.03712099999943" lon="-1.2888599999999997">
        <ele>1278.030</ele>
        <time>2022-08-24T10:18:49Z</time>
      </trkpt>
      <trkpt lat="43.03710899999943" lon="-1.2888769999999996">
        <ele>1278.030</ele>
        <time>2022-08-24T10:18:50Z</time>
      </trkpt>
      <trkpt lat="43.03709799999943" lon="-1.2888939999999995">
        <ele>1278.026</ele>
        <time>2022-08-24T10:18:51Z</time>
      </trkpt>
      <trkpt lat="43.03708499999943" lon="-1.2889159999999995">
        <ele>1278.058</ele>
        <time>2022-08-24T10:18:52Z</time>
      </trkpt>
      <trkpt lat="43.03707599999943" lon="-1.2889349999999995">
        <ele>1278.235</ele>
        <time>2022-08-24T10:18:53Z</time>
      </trkpt>
      <trkpt lat="43.03706699999943" lon="-1.2889489999999995">
        <ele>1278.288</ele>
        <time>2022-08-24T10:18:54Z</time>
      </trkpt>
      <trkpt lat="43.037054999999434" lon="-1.2889659999999994">
        <ele>1278.262</ele>
        <time>2022-08-24T10:18:55Z</time>
      </trkpt>
      <trkpt lat="43.03704199999943" lon="-1.2889879999999994">
        <ele>1278.281</ele>
        <time>2022-08-24T10:18:56Z</time>
      </trkpt>
      <trkpt lat="43.03702799999943" lon="-1.2890139999999994">
        <ele>1278.238</ele>
        <time>2022-08-24T10:18:57Z</time>
      </trkpt>
      <trkpt lat="43.03701599999943" lon="-1.2890349999999995">
        <ele>1278.270</ele>
        <time>2022-08-24T10:18:58Z</time>
      </trkpt>
      <trkpt lat="43.03700499999943" lon="-1.2890549999999994">
        <ele>1278.217</ele>
        <time>2022-08-24T10:18:59Z</time>
      </trkpt>
      <trkpt lat="43.036997999999436" lon="-1.2890709999999994">
        <ele>1278.209</ele>
        <time>2022-08-24T10:19:00Z</time>
      </trkpt>
      <trkpt lat="43.03697999999944" lon="-1.2891119999999994">
        <ele>1278.224</ele>
        <time>2022-08-24T10:19:02Z</time>
      </trkpt>
      <trkpt lat="43.03697199999944" lon="-1.2891339999999993">
        <ele>1278.214</ele>
        <time>2022-08-24T10:19:03Z</time>
      </trkpt>
      <trkpt lat="43.03695499999944" lon="-1.2891749999999993">
        <ele>1278.244</ele>
        <time>2022-08-24T10:19:05Z</time>
      </trkpt>
      <trkpt lat="43.03694699999944" lon="-1.2891939999999993">
        <ele>1278.020</ele>
        <time>2022-08-24T10:19:06Z</time>
      </trkpt>
      <trkpt lat="43.03693799999944" lon="-1.2892159999999993">
        <ele>1278.042</ele>
        <time>2022-08-24T10:19:07Z</time>
      </trkpt>
      <trkpt lat="43.03691499999944" lon="-1.2892819999999992">
        <ele>1278.079</ele>
        <time>2022-08-24T10:19:10Z</time>
      </trkpt>
      <trkpt lat="43.03690099999944" lon="-1.289322999999999">
        <ele>1278.042</ele>
        <time>2022-08-24T10:19:12Z</time>
      </trkpt>
      <trkpt lat="43.03689599999944" lon="-1.2893489999999992">
        <ele>1277.826</ele>
        <time>2022-08-24T10:19:13Z</time>
      </trkpt>
      <trkpt lat="43.03689199999944" lon="-1.2893699999999992">
        <ele>1277.845</ele>
        <time>2022-08-24T10:19:14Z</time>
      </trkpt>
      <trkpt lat="43.03688599999944" lon="-1.2893919999999992">
        <ele>1278.044</ele>
        <time>2022-08-24T10:19:15Z</time>
      </trkpt>
      <trkpt lat="43.03687999999944" lon="-1.2894089999999991">
        <ele>1278.005</ele>
        <time>2022-08-24T10:19:16Z</time>
      </trkpt>
      <trkpt lat="43.036861999999445" lon="-1.289479999999999">
        <ele>1277.815</ele>
        <time>2022-08-24T10:19:19Z</time>
      </trkpt>
      <trkpt lat="43.03685799999945" lon="-1.2895009999999991">
        <ele>1277.809</ele>
        <time>2022-08-24T10:19:20Z</time>
      </trkpt>
      <trkpt lat="43.03685399999945" lon="-1.2895169999999991">
        <ele>1277.865</ele>
        <time>2022-08-24T10:19:21Z</time>
      </trkpt>
      <trkpt lat="43.03684899999945" lon="-1.289538999999999">
        <ele>1277.855</ele>
        <time>2022-08-24T10:19:22Z</time>
      </trkpt>
      <trkpt lat="43.03684299999945" lon="-1.289563999999999">
        <ele>1277.875</ele>
        <time>2022-08-24T10:19:23Z</time>
      </trkpt>
      <trkpt lat="43.03683899999945" lon="-1.289583999999999">
        <ele>1277.881</ele>
        <time>2022-08-24T10:19:24Z</time>
      </trkpt>
      <trkpt lat="43.03683399999945" lon="-1.289602999999999">
        <ele>1277.823</ele>
        <time>2022-08-24T10:19:25Z</time>
      </trkpt>
      <trkpt lat="43.03683099999945" lon="-1.289618999999999">
        <ele>1277.850</ele>
        <time>2022-08-24T10:19:26Z</time>
      </trkpt>
      <trkpt lat="43.03682599999945" lon="-1.289637999999999">
        <ele>1277.663</ele>
        <time>2022-08-24T10:19:27Z</time>
      </trkpt>
      <trkpt lat="43.03680799999945" lon="-1.289712999999999">
        <ele>1277.677</ele>
        <time>2022-08-24T10:19:31Z</time>
      </trkpt>
      <trkpt lat="43.03680399999946" lon="-1.289733999999999">
        <ele>1277.636</ele>
        <time>2022-08-24T10:19:32Z</time>
      </trkpt>
      <trkpt lat="43.03679999999946" lon="-1.289752999999999">
        <ele>1277.656</ele>
        <time>2022-08-24T10:19:33Z</time>
      </trkpt>
      <trkpt lat="43.03679399999946" lon="-1.2897759999999991">
        <ele>1277.859</ele>
        <time>2022-08-24T10:19:34Z</time>
      </trkpt>
      <trkpt lat="43.03678199999946" lon="-1.2898319999999992">
        <ele>1277.814</ele>
        <time>2022-08-24T10:19:37Z</time>
      </trkpt>
      <trkpt lat="43.03677599999946" lon="-1.2898499999999993">
        <ele>1278.009</ele>
        <time>2022-08-24T10:19:38Z</time>
      </trkpt>
      <trkpt lat="43.03676899999947" lon="-1.2898699999999992">
        <ele>1278.236</ele>
        <time>2022-08-24T10:19:39Z</time>
      </trkpt>
      <trkpt lat="43.036763999999465" lon="-1.2898859999999992">
        <ele>1278.286</ele>
        <time>2022-08-24T10:19:40Z</time>
      </trkpt>
      <trkpt lat="43.03675899999946" lon="-1.2899019999999992">
        <ele>1278.456</ele>
        <time>2022-08-24T10:19:41Z</time>
      </trkpt>
      <trkpt lat="43.03674899999946" lon="-1.2900009999999993">
        <ele>1278.852</ele>
        <time>2022-08-24T10:19:46Z</time>
      </trkpt>
      <trkpt lat="43.03674599999946" lon="-1.2900169999999993">
        <ele>1279.064</ele>
        <time>2022-08-24T10:19:47Z</time>
      </trkpt>
      <trkpt lat="43.03674299999946" lon="-1.2900369999999992">
        <ele>1279.041</ele>
        <time>2022-08-24T10:19:48Z</time>
      </trkpt>
      <trkpt lat="43.03673399999946" lon="-1.2901039999999993">
        <ele>1279.034</ele>
        <time>2022-08-24T10:19:51Z</time>
      </trkpt>
      <trkpt lat="43.03673099999946" lon="-1.2901199999999993">
        <ele>1279.028</ele>
        <time>2022-08-24T10:19:52Z</time>
      </trkpt>
      <trkpt lat="43.036726999999466" lon="-1.2901329999999993">
        <ele>1279.037</ele>
        <time>2022-08-24T10:19:53Z</time>
      </trkpt>
      <trkpt lat="43.03672299999947" lon="-1.2901489999999993">
        <ele>1279.215</ele>
        <time>2022-08-24T10:19:54Z</time>
      </trkpt>
      <trkpt lat="43.03671899999947" lon="-1.2901689999999992">
        <ele>1279.265</ele>
        <time>2022-08-24T10:19:55Z</time>
      </trkpt>
      <trkpt lat="43.03671699999947" lon="-1.2901839999999993">
        <ele>1279.411</ele>
        <time>2022-08-24T10:19:56Z</time>
      </trkpt>
      <trkpt lat="43.03671299999947" lon="-1.2901989999999994">
        <ele>1279.409</ele>
        <time>2022-08-24T10:19:57Z</time>
      </trkpt>
      <trkpt lat="43.036706999999474" lon="-1.2902119999999995">
        <ele>1279.662</ele>
        <time>2022-08-24T10:19:58Z</time>
      </trkpt>
      <trkpt lat="43.036703999999474" lon="-1.2902239999999994">
        <ele>1279.642</ele>
        <time>2022-08-24T10:19:59Z</time>
      </trkpt>
      <trkpt lat="43.036694999999476" lon="-1.2902389999999995">
        <ele>1279.812</ele>
        <time>2022-08-24T10:20:00Z</time>
      </trkpt>
      <trkpt lat="43.03668899999948" lon="-1.2902549999999995">
        <ele>1279.868</ele>
        <time>2022-08-24T10:20:01Z</time>
      </trkpt>
      <trkpt lat="43.03668599999948" lon="-1.2902689999999994">
        <ele>1280.050</ele>
        <time>2022-08-24T10:20:02Z</time>
      </trkpt>
      <trkpt lat="43.036683999999475" lon="-1.2902819999999995">
        <ele>1280.277</ele>
        <time>2022-08-24T10:20:03Z</time>
      </trkpt>
      <trkpt lat="43.03667699999948" lon="-1.2903169999999995">
        <ele>1280.480</ele>
        <time>2022-08-24T10:20:05Z</time>
      </trkpt>
      <trkpt lat="43.03667099999948" lon="-1.2903349999999996">
        <ele>1280.464</ele>
        <time>2022-08-24T10:20:06Z</time>
      </trkpt>
      <trkpt lat="43.03666399999948" lon="-1.2903469999999995">
        <ele>1280.673</ele>
        <time>2022-08-24T10:20:07Z</time>
      </trkpt>
      <trkpt lat="43.036657999999484" lon="-1.2903579999999994">
        <ele>1280.643</ele>
        <time>2022-08-24T10:20:08Z</time>
      </trkpt>
      <trkpt lat="43.03665299999948" lon="-1.2903689999999994">
        <ele>1281.064</ele>
        <time>2022-08-24T10:20:09Z</time>
      </trkpt>
      <trkpt lat="43.03664499999948" lon="-1.2903929999999995">
        <ele>1281.210</ele>
        <time>2022-08-24T10:20:11Z</time>
      </trkpt>
      <trkpt lat="43.036623999999485" lon="-1.2904269999999995">
        <ele>1282.009</ele>
        <time>2022-08-24T10:20:14Z</time>
      </trkpt>
      <trkpt lat="43.03661999999949" lon="-1.2904389999999994">
        <ele>1282.255</ele>
        <time>2022-08-24T10:20:15Z</time>
      </trkpt>
      <trkpt lat="43.036614999999486" lon="-1.2904559999999994">
        <ele>1282.655</ele>
        <time>2022-08-24T10:20:16Z</time>
      </trkpt>
      <trkpt lat="43.036609999999484" lon="-1.2904689999999994">
        <ele>1282.845</ele>
        <time>2022-08-24T10:20:17Z</time>
      </trkpt>
      <trkpt lat="43.036600999999486" lon="-1.2904799999999994">
        <ele>1283.051</ele>
        <time>2022-08-24T10:20:18Z</time>
      </trkpt>
      <trkpt lat="43.03659199999949" lon="-1.2904909999999994">
        <ele>1283.053</ele>
        <time>2022-08-24T10:20:19Z</time>
      </trkpt>
      <trkpt lat="43.03658499999949" lon="-1.2905029999999993">
        <ele>1283.230</ele>
        <time>2022-08-24T10:20:20Z</time>
      </trkpt>
      <trkpt lat="43.03657599999949" lon="-1.2905189999999993">
        <ele>1283.683</ele>
        <time>2022-08-24T10:20:21Z</time>
      </trkpt>
      <trkpt lat="43.03656699999949" lon="-1.2905319999999993">
        <ele>1283.697</ele>
        <time>2022-08-24T10:20:22Z</time>
      </trkpt>
      <trkpt lat="43.0365599999995" lon="-1.2905439999999992">
        <ele>1283.826</ele>
        <time>2022-08-24T10:20:23Z</time>
      </trkpt>
      <trkpt lat="43.036551999999496" lon="-1.2905559999999991">
        <ele>1284.063</ele>
        <time>2022-08-24T10:20:24Z</time>
      </trkpt>
      <trkpt lat="43.036546999999494" lon="-1.2905659999999992">
        <ele>1284.044</ele>
        <time>2022-08-24T10:20:25Z</time>
      </trkpt>
      <trkpt lat="43.036537999999496" lon="-1.2905779999999991">
        <ele>1284.218</ele>
        <time>2022-08-24T10:20:26Z</time>
      </trkpt>
      <trkpt lat="43.0365289999995" lon="-1.2905879999999992">
        <ele>1284.209</ele>
        <time>2022-08-24T10:20:27Z</time>
      </trkpt>
      <trkpt lat="43.0365199999995" lon="-1.2905949999999993">
        <ele>1284.297</ele>
        <time>2022-08-24T10:20:28Z</time>
      </trkpt>
      <trkpt lat="43.0365149999995" lon="-1.2906049999999993">
        <ele>1284.227</ele>
        <time>2022-08-24T10:20:29Z</time>
      </trkpt>
      <trkpt lat="43.0365079999995" lon="-1.2906149999999994">
        <ele>1284.257</ele>
        <time>2022-08-24T10:20:30Z</time>
      </trkpt>
      <trkpt lat="43.0364999999995" lon="-1.2906239999999993">
        <ele>1284.273</ele>
        <time>2022-08-24T10:20:31Z</time>
      </trkpt>
      <trkpt lat="43.0364919999995" lon="-1.2906339999999994">
        <ele>1284.275</ele>
        <time>2022-08-24T10:20:32Z</time>
      </trkpt>
      <trkpt lat="43.0364879999995" lon="-1.2906439999999995">
        <ele>1284.232</ele>
        <time>2022-08-24T10:20:33Z</time>
      </trkpt>
      <trkpt lat="43.0364849999995" lon="-1.2906509999999995">
        <ele>1284.245</ele>
        <time>2022-08-24T10:20:34Z</time>
      </trkpt>
      <trkpt lat="43.0364819999995" lon="-1.2906509999999995">
        <ele>1285.889</ele>
        <time>2022-08-24T10:21:12Z</time>
      </trkpt>
      <trkpt lat="43.036474999999506" lon="-1.2906649999999995">
        <ele>1285.898</ele>
        <time>2022-08-24T10:21:14Z</time>
      </trkpt>
      <trkpt lat="43.03646799999951" lon="-1.2906739999999994">
        <ele>1285.833</ele>
        <time>2022-08-24T10:21:17Z</time>
      </trkpt>
      <trkpt lat="43.03646799999951" lon="-1.2906739999999994">
        <ele>1286.023</ele>
        <time>2022-08-24T10:21:18Z</time>
      </trkpt>
      <trkpt lat="43.03646799999951" lon="-1.2906739999999994">
        <ele>1286.015</ele>
        <time>2022-08-24T10:21:19Z</time>
      </trkpt>
      <trkpt lat="43.03646799999951" lon="-1.2906739999999994">
        <ele>1286.009</ele>
        <time>2022-08-24T10:21:20Z</time>
      </trkpt>
      <trkpt lat="43.03646799999951" lon="-1.2906739999999994">
        <ele>1286.074</ele>
        <time>2022-08-24T10:21:21Z</time>
      </trkpt>
      <trkpt lat="43.03646799999951" lon="-1.2906749999999994">
        <ele>1286.064</ele>
        <time>2022-08-24T10:21:22Z</time>
      </trkpt>
      <trkpt lat="43.03644499999951" lon="-1.2907219999999993">
        <ele>1286.874</ele>
        <time>2022-08-24T10:21:29Z</time>
      </trkpt>
      <trkpt lat="43.03644099999951" lon="-1.2907289999999993">
        <ele>1287.020</ele>
        <time>2022-08-24T10:21:30Z</time>
      </trkpt>
      <trkpt lat="43.036405999999516" lon="-1.2907949999999992">
        <ele>1287.672</ele>
        <time>2022-08-24T10:21:34Z</time>
      </trkpt>
      <trkpt lat="43.03639699999952" lon="-1.2908139999999992">
        <ele>1287.649</ele>
        <time>2022-08-24T10:21:35Z</time>
      </trkpt>
      <trkpt lat="43.03638899999952" lon="-1.2908309999999992">
        <ele>1287.662</ele>
        <time>2022-08-24T10:21:36Z</time>
      </trkpt>
      <trkpt lat="43.03638199999952" lon="-1.290847999999999">
        <ele>1287.886</ele>
        <time>2022-08-24T10:21:37Z</time>
      </trkpt>
      <trkpt lat="43.03637399999952" lon="-1.290866999999999">
        <ele>1287.815</ele>
        <time>2022-08-24T10:21:38Z</time>
      </trkpt>
      <trkpt lat="43.03636499999952" lon="-1.2908879999999991">
        <ele>1287.882</ele>
        <time>2022-08-24T10:21:39Z</time>
      </trkpt>
      <trkpt lat="43.03635999999952" lon="-1.2909199999999992">
        <ele>1287.843</ele>
        <time>2022-08-24T10:21:41Z</time>
      </trkpt>
      <trkpt lat="43.03635799999952" lon="-1.2909269999999993">
        <ele>1287.817</ele>
        <time>2022-08-24T10:21:42Z</time>
      </trkpt>
      <trkpt lat="43.03635399999952" lon="-1.2909349999999993">
        <ele>1287.809</ele>
        <time>2022-08-24T10:21:43Z</time>
      </trkpt>
      <trkpt lat="43.03635099999952" lon="-1.2909429999999993">
        <ele>1288.069</ele>
        <time>2022-08-24T10:21:44Z</time>
      </trkpt>
      <trkpt lat="43.03634799999952" lon="-1.2909489999999992">
        <ele>1288.099</ele>
        <time>2022-08-24T10:21:45Z</time>
      </trkpt>
      <trkpt lat="43.03634499999952" lon="-1.2909559999999993">
        <ele>1288.029</ele>
        <time>2022-08-24T10:21:46Z</time>
      </trkpt>
      <trkpt lat="43.036343999999524" lon="-1.2909599999999992">
        <ele>1288.215</ele>
        <time>2022-08-24T10:21:47Z</time>
      </trkpt>
      <trkpt lat="43.03633699999953" lon="-1.2909619999999993">
        <ele>1288.217</ele>
        <time>2022-08-24T10:21:49Z</time>
      </trkpt>
      <trkpt lat="43.036331999999526" lon="-1.2909669999999993">
        <ele>1288.454</ele>
        <time>2022-08-24T10:21:50Z</time>
      </trkpt>
      <trkpt lat="43.03632499999953" lon="-1.2909839999999992">
        <ele>1288.627</ele>
        <time>2022-08-24T10:21:52Z</time>
      </trkpt>
      <trkpt lat="43.03632099999953" lon="-1.2909919999999993">
        <ele>1288.681</ele>
        <time>2022-08-24T10:21:53Z</time>
      </trkpt>
      <trkpt lat="43.036316999999535" lon="-1.2910059999999992">
        <ele>1288.870</ele>
        <time>2022-08-24T10:21:56Z</time>
      </trkpt>
      <trkpt lat="43.03630999999954" lon="-1.291017999999999">
        <ele>1288.859</ele>
        <time>2022-08-24T10:21:58Z</time>
      </trkpt>
      <trkpt lat="43.03629099999954" lon="-1.2910439999999992">
        <ele>1289.203</ele>
        <time>2022-08-24T10:22:02Z</time>
      </trkpt>
      <trkpt lat="43.03627599999954" lon="-1.2910789999999992">
        <ele>1289.823</ele>
        <time>2022-08-24T10:22:08Z</time>
      </trkpt>
      <trkpt lat="43.03627499999954" lon="-1.2910809999999993">
        <ele>1290.009</ele>
        <time>2022-08-24T10:22:09Z</time>
      </trkpt>
      <trkpt lat="43.036253999999545" lon="-1.2911259999999993">
        <ele>1290.476</ele>
        <time>2022-08-24T10:22:16Z</time>
      </trkpt>
      <trkpt lat="43.036250999999545" lon="-1.2911329999999994">
        <ele>1290.476</ele>
        <time>2022-08-24T10:22:17Z</time>
      </trkpt>
      <trkpt lat="43.036247999999546" lon="-1.2911359999999994">
        <ele>1290.636</ele>
        <time>2022-08-24T10:22:18Z</time>
      </trkpt>
      <trkpt lat="43.03624699999955" lon="-1.2911389999999994">
        <ele>1290.622</ele>
        <time>2022-08-24T10:22:19Z</time>
      </trkpt>
      <trkpt lat="43.03624299999955" lon="-1.2911459999999995">
        <ele>1290.614</ele>
        <time>2022-08-24T10:22:20Z</time>
      </trkpt>
      <trkpt lat="43.036238999999554" lon="-1.2911539999999995">
        <ele>1290.691</ele>
        <time>2022-08-24T10:22:21Z</time>
      </trkpt>
      <trkpt lat="43.03623499999956" lon="-1.2911639999999995">
        <ele>1290.634</ele>
        <time>2022-08-24T10:22:23Z</time>
      </trkpt>
      <trkpt lat="43.03623499999956" lon="-1.2911639999999995">
        <ele>1291.428</ele>
        <time>2022-08-24T10:22:37Z</time>
      </trkpt>
      <trkpt lat="43.036232999999555" lon="-1.2911679999999994">
        <ele>1291.427</ele>
        <time>2022-08-24T10:22:40Z</time>
      </trkpt>
      <trkpt lat="43.03617499999955" lon="-1.2912699999999995">
        <ele>1291.439</ele>
        <time>2022-08-24T10:22:46Z</time>
      </trkpt>
      <trkpt lat="43.03614499999955" lon="-1.2913289999999995">
        <ele>1291.801</ele>
        <time>2022-08-24T10:22:49Z</time>
      </trkpt>
      <trkpt lat="43.03613899999955" lon="-1.2913429999999995">
        <ele>1292.021</ele>
        <time>2022-08-24T10:22:50Z</time>
      </trkpt>
      <trkpt lat="43.036134999999554" lon="-1.2913609999999995">
        <ele>1292.009</ele>
        <time>2022-08-24T10:22:51Z</time>
      </trkpt>
      <trkpt lat="43.03612699999955" lon="-1.2913799999999995">
        <ele>1292.474</ele>
        <time>2022-08-24T10:22:52Z</time>
      </trkpt>
      <trkpt lat="43.03611599999955" lon="-1.2914059999999996">
        <ele>1293.074</ele>
        <time>2022-08-24T10:22:54Z</time>
      </trkpt>
      <trkpt lat="43.036111999999555" lon="-1.2914149999999995">
        <ele>1293.244</ele>
        <time>2022-08-24T10:22:55Z</time>
      </trkpt>
      <trkpt lat="43.036100999999555" lon="-1.2914269999999994">
        <ele>1293.280</ele>
        <time>2022-08-24T10:22:56Z</time>
      </trkpt>
      <trkpt lat="43.03609099999955" lon="-1.2914439999999994">
        <ele>1293.252</ele>
        <time>2022-08-24T10:22:57Z</time>
      </trkpt>
      <trkpt lat="43.03608199999955" lon="-1.2914579999999993">
        <ele>1293.669</ele>
        <time>2022-08-24T10:22:58Z</time>
      </trkpt>
      <trkpt lat="43.036075999999554" lon="-1.2914749999999993">
        <ele>1293.892</ele>
        <time>2022-08-24T10:22:59Z</time>
      </trkpt>
      <trkpt lat="43.036060999999556" lon="-1.2915009999999993">
        <ele>1294.246</ele>
        <time>2022-08-24T10:23:01Z</time>
      </trkpt>
      <trkpt lat="43.03605699999956" lon="-1.2915129999999992">
        <ele>1294.485</ele>
        <time>2022-08-24T10:23:02Z</time>
      </trkpt>
      <trkpt lat="43.03604999999956" lon="-1.2915199999999993">
        <ele>1294.683</ele>
        <time>2022-08-24T10:23:03Z</time>
      </trkpt>
      <trkpt lat="43.03603999999956" lon="-1.2915269999999994">
        <ele>1294.625</ele>
        <time>2022-08-24T10:23:04Z</time>
      </trkpt>
      <trkpt lat="43.03603499999956" lon="-1.2915379999999994">
        <ele>1294.817</ele>
        <time>2022-08-24T10:23:05Z</time>
      </trkpt>
      <trkpt lat="43.036029999999556" lon="-1.2915509999999994">
        <ele>1295.209</ele>
        <time>2022-08-24T10:23:06Z</time>
      </trkpt>
      <trkpt lat="43.03602399999956" lon="-1.2915629999999994">
        <ele>1295.259</ele>
        <time>2022-08-24T10:23:07Z</time>
      </trkpt>
      <trkpt lat="43.036010999999554" lon="-1.2915729999999994">
        <ele>1295.499</ele>
        <time>2022-08-24T10:23:08Z</time>
      </trkpt>
      <trkpt lat="43.035999999999554" lon="-1.2915809999999994">
        <ele>1295.699</ele>
        <time>2022-08-24T10:23:09Z</time>
      </trkpt>
      <trkpt lat="43.035990999999555" lon="-1.2915899999999993">
        <ele>1295.845</ele>
        <time>2022-08-24T10:23:10Z</time>
      </trkpt>
      <trkpt lat="43.03598599999955" lon="-1.2915989999999993">
        <ele>1296.237</ele>
        <time>2022-08-24T10:23:11Z</time>
      </trkpt>
      <trkpt lat="43.035979999999554" lon="-1.2916099999999993">
        <ele>1296.484</ele>
        <time>2022-08-24T10:23:12Z</time>
      </trkpt>
      <trkpt lat="43.035976999999555" lon="-1.2916229999999993">
        <ele>1296.437</ele>
        <time>2022-08-24T10:23:13Z</time>
      </trkpt>
      <trkpt lat="43.035968999999554" lon="-1.2916359999999993">
        <ele>1296.631</ele>
        <time>2022-08-24T10:23:14Z</time>
      </trkpt>
      <trkpt lat="43.03596099999955" lon="-1.2916479999999992">
        <ele>1296.840</ele>
        <time>2022-08-24T10:23:15Z</time>
      </trkpt>
      <trkpt lat="43.03595099999955" lon="-1.2916569999999992">
        <ele>1297.493</ele>
        <time>2022-08-24T10:23:16Z</time>
      </trkpt>
      <trkpt lat="43.03593999999955" lon="-1.2916649999999992">
        <ele>1297.865</ele>
        <time>2022-08-24T10:23:17Z</time>
      </trkpt>
      <trkpt lat="43.035929999999546" lon="-1.2916709999999991">
        <ele>1298.021</ele>
        <time>2022-08-24T10:23:18Z</time>
      </trkpt>
      <trkpt lat="43.03592299999955" lon="-1.291679999999999">
        <ele>1298.209</ele>
        <time>2022-08-24T10:23:19Z</time>
      </trkpt>
      <trkpt lat="43.035912999999546" lon="-1.291688999999999">
        <ele>1298.440</ele>
        <time>2022-08-24T10:23:20Z</time>
      </trkpt>
      <trkpt lat="43.035901999999545" lon="-1.291693999999999">
        <ele>1298.460</ele>
        <time>2022-08-24T10:23:21Z</time>
      </trkpt>
      <trkpt lat="43.035890999999545" lon="-1.291700999999999">
        <ele>1298.620</ele>
        <time>2022-08-24T10:23:22Z</time>
      </trkpt>
      <trkpt lat="43.03587799999954" lon="-1.291709999999999">
        <ele>1298.636</ele>
        <time>2022-08-24T10:23:23Z</time>
      </trkpt>
      <trkpt lat="43.035865999999544" lon="-1.291715999999999">
        <ele>1298.888</ele>
        <time>2022-08-24T10:23:24Z</time>
      </trkpt>
      <trkpt lat="43.035856999999545" lon="-1.2917199999999989">
        <ele>1298.625</ele>
        <time>2022-08-24T10:23:25Z</time>
      </trkpt>
      <trkpt lat="43.03584799999955" lon="-1.291724999999999">
        <ele>1299.098</ele>
        <time>2022-08-24T10:23:26Z</time>
      </trkpt>
      <trkpt lat="43.03583899999955" lon="-1.291726999999999">
        <ele>1299.012</ele>
        <time>2022-08-24T10:23:27Z</time>
      </trkpt>
      <trkpt lat="43.03583099999955" lon="-1.291733999999999">
        <ele>1299.231</ele>
        <time>2022-08-24T10:23:28Z</time>
      </trkpt>
      <trkpt lat="43.035819999999546" lon="-1.291742999999999">
        <ele>1299.075</ele>
        <time>2022-08-24T10:23:29Z</time>
      </trkpt>
      <trkpt lat="43.03580799999955" lon="-1.2917469999999989">
        <ele>1299.028</ele>
        <time>2022-08-24T10:23:30Z</time>
      </trkpt>
      <trkpt lat="43.035797999999545" lon="-1.2917479999999988">
        <ele>1299.020</ele>
        <time>2022-08-24T10:23:31Z</time>
      </trkpt>
      <trkpt lat="43.03578599999955" lon="-1.2917469999999989">
        <ele>1299.009</ele>
        <time>2022-08-24T10:23:32Z</time>
      </trkpt>
      <trkpt lat="43.035774999999546" lon="-1.2917509999999988">
        <ele>1299.288</ele>
        <time>2022-08-24T10:23:33Z</time>
      </trkpt>
      <trkpt lat="43.03576499999954" lon="-1.2917519999999987">
        <ele>1299.418</ele>
        <time>2022-08-24T10:23:34Z</time>
      </trkpt>
      <trkpt lat="43.035755999999544" lon="-1.2917539999999987">
        <ele>1299.428</ele>
        <time>2022-08-24T10:23:35Z</time>
      </trkpt>
      <trkpt lat="43.035746999999546" lon="-1.2917569999999987">
        <ele>1299.664</ele>
        <time>2022-08-24T10:23:36Z</time>
      </trkpt>
      <trkpt lat="43.03573499999955" lon="-1.2917599999999987">
        <ele>1299.876</ele>
        <time>2022-08-24T10:23:37Z</time>
      </trkpt>
      <trkpt lat="43.03572599999955" lon="-1.2917649999999987">
        <ele>1300.073</ele>
        <time>2022-08-24T10:23:38Z</time>
      </trkpt>
      <trkpt lat="43.03571399999955" lon="-1.2917699999999988">
        <ele>1300.246</ele>
        <time>2022-08-24T10:23:39Z</time>
      </trkpt>
      <trkpt lat="43.03570099999955" lon="-1.2917759999999987">
        <ele>1300.420</ele>
        <time>2022-08-24T10:23:40Z</time>
      </trkpt>
      <trkpt lat="43.03568899999955" lon="-1.2917809999999987">
        <ele>1300.459</ele>
        <time>2022-08-24T10:23:41Z</time>
      </trkpt>
      <trkpt lat="43.03567999999955" lon="-1.2917859999999988">
        <ele>1300.667</ele>
        <time>2022-08-24T10:23:42Z</time>
      </trkpt>
      <trkpt lat="43.03567399999955" lon="-1.2917889999999987">
        <ele>1300.881</ele>
        <time>2022-08-24T10:23:43Z</time>
      </trkpt>
      <trkpt lat="43.03566399999955" lon="-1.2917949999999987">
        <ele>1301.019</ele>
        <time>2022-08-24T10:23:44Z</time>
      </trkpt>
      <trkpt lat="43.03565199999955" lon="-1.2918029999999987">
        <ele>1301.409</ele>
        <time>2022-08-24T10:23:45Z</time>
      </trkpt>
      <trkpt lat="43.03563899999955" lon="-1.2918079999999987">
        <ele>1301.437</ele>
        <time>2022-08-24T10:23:46Z</time>
      </trkpt>
      <trkpt lat="43.03563099999955" lon="-1.2918099999999988">
        <ele>1301.637</ele>
        <time>2022-08-24T10:23:47Z</time>
      </trkpt>
      <trkpt lat="43.03562399999955" lon="-1.2918119999999989">
        <ele>1301.887</ele>
        <time>2022-08-24T10:23:48Z</time>
      </trkpt>
      <trkpt lat="43.03561599999955" lon="-1.2918159999999987">
        <ele>1302.023</ele>
        <time>2022-08-24T10:23:49Z</time>
      </trkpt>
      <trkpt lat="43.03560699999955" lon="-1.2918229999999988">
        <ele>1302.485</ele>
        <time>2022-08-24T10:23:50Z</time>
      </trkpt>
      <trkpt lat="43.035599999999555" lon="-1.291829999999999">
        <ele>1302.632</ele>
        <time>2022-08-24T10:23:51Z</time>
      </trkpt>
      <trkpt lat="43.03559299999956" lon="-1.291836999999999">
        <ele>1302.625</ele>
        <time>2022-08-24T10:23:52Z</time>
      </trkpt>
      <trkpt lat="43.03558599999956" lon="-1.291841999999999">
        <ele>1302.849</ele>
        <time>2022-08-24T10:23:53Z</time>
      </trkpt>
      <trkpt lat="43.03557999999956" lon="-1.291849999999999">
        <ele>1302.868</ele>
        <time>2022-08-24T10:23:54Z</time>
      </trkpt>
      <trkpt lat="43.035572999999566" lon="-1.291853999999999">
        <ele>1303.053</ele>
        <time>2022-08-24T10:23:55Z</time>
      </trkpt>
      <trkpt lat="43.03556299999956" lon="-1.291855999999999">
        <ele>1303.204</ele>
        <time>2022-08-24T10:23:56Z</time>
      </trkpt>
      <trkpt lat="43.03555499999956" lon="-1.291858999999999">
        <ele>1303.214</ele>
        <time>2022-08-24T10:23:57Z</time>
      </trkpt>
      <trkpt lat="43.03554499999956" lon="-1.291859999999999">
        <ele>1303.209</ele>
        <time>2022-08-24T10:23:58Z</time>
      </trkpt>
      <trkpt lat="43.03553699999956" lon="-1.291859999999999">
        <ele>1303.466</ele>
        <time>2022-08-24T10:23:59Z</time>
      </trkpt>
      <trkpt lat="43.035526999999554" lon="-1.291864999999999">
        <ele>1303.666</ele>
        <time>2022-08-24T10:24:00Z</time>
      </trkpt>
      <trkpt lat="43.03551699999955" lon="-1.2918689999999988">
        <ele>1303.696</ele>
        <time>2022-08-24T10:24:01Z</time>
      </trkpt>
      <trkpt lat="43.03550899999955" lon="-1.2918739999999989">
        <ele>1303.692</ele>
        <time>2022-08-24T10:24:02Z</time>
      </trkpt>
      <trkpt lat="43.03549699999955" lon="-1.2918749999999988">
        <ele>1303.824</ele>
        <time>2022-08-24T10:24:03Z</time>
      </trkpt>
      <trkpt lat="43.03548699999955" lon="-1.2918769999999988">
        <ele>1303.831</ele>
        <time>2022-08-24T10:24:04Z</time>
      </trkpt>
      <trkpt lat="43.03547599999955" lon="-1.2918779999999987">
        <ele>1304.074</ele>
        <time>2022-08-24T10:24:05Z</time>
      </trkpt>
      <trkpt lat="43.035465999999545" lon="-1.2918779999999987">
        <ele>1304.238</ele>
        <time>2022-08-24T10:24:06Z</time>
      </trkpt>
      <trkpt lat="43.035456999999546" lon="-1.2918749999999988">
        <ele>1304.217</ele>
        <time>2022-08-24T10:24:07Z</time>
      </trkpt>
      <trkpt lat="43.03544799999955" lon="-1.2918709999999989">
        <ele>1304.473</ele>
        <time>2022-08-24T10:24:08Z</time>
      </trkpt>
      <trkpt lat="43.03543899999955" lon="-1.2918719999999988">
        <ele>1304.885</ele>
        <time>2022-08-24T10:24:09Z</time>
      </trkpt>
      <trkpt lat="43.035428999999546" lon="-1.2918729999999987">
        <ele>1304.813</ele>
        <time>2022-08-24T10:24:10Z</time>
      </trkpt>
      <trkpt lat="43.03541699999955" lon="-1.2918729999999987">
        <ele>1305.209</ele>
        <time>2022-08-24T10:24:11Z</time>
      </trkpt>
      <trkpt lat="43.03540899999955" lon="-1.2918709999999987">
        <ele>1305.498</ele>
        <time>2022-08-24T10:24:12Z</time>
      </trkpt>
      <trkpt lat="43.035400999999545" lon="-1.2918699999999987">
        <ele>1305.638</ele>
        <time>2022-08-24T10:24:13Z</time>
      </trkpt>
      <trkpt lat="43.035392999999544" lon="-1.2918699999999987">
        <ele>1305.838</ele>
        <time>2022-08-24T10:24:14Z</time>
      </trkpt>
      <trkpt lat="43.035380999999546" lon="-1.2918699999999987">
        <ele>1305.864</ele>
        <time>2022-08-24T10:24:15Z</time>
      </trkpt>
      <trkpt lat="43.03536899999955" lon="-1.2918689999999988">
        <ele>1306.026</ele>
        <time>2022-08-24T10:24:16Z</time>
      </trkpt>
      <trkpt lat="43.03535799999955" lon="-1.291864999999999">
        <ele>1306.013</ele>
        <time>2022-08-24T10:24:17Z</time>
      </trkpt>
      <trkpt lat="43.03534899999955" lon="-1.291859999999999">
        <ele>1306.076</ele>
        <time>2022-08-24T10:24:18Z</time>
      </trkpt>
      <trkpt lat="43.03534099999955" lon="-1.2918579999999988">
        <ele>1306.240</ele>
        <time>2022-08-24T10:24:19Z</time>
      </trkpt>
      <trkpt lat="43.035330999999545" lon="-1.2918529999999988">
        <ele>1306.259</ele>
        <time>2022-08-24T10:24:20Z</time>
      </trkpt>
      <trkpt lat="43.035321999999546" lon="-1.291840999999999">
        <ele>1306.488</ele>
        <time>2022-08-24T10:24:21Z</time>
      </trkpt>
      <trkpt lat="43.035313999999545" lon="-1.2918309999999988">
        <ele>1306.624</ele>
        <time>2022-08-24T10:24:22Z</time>
      </trkpt>
      <trkpt lat="43.03530899999954" lon="-1.291821999999999">
        <ele>1306.826</ele>
        <time>2022-08-24T10:24:23Z</time>
      </trkpt>
      <trkpt lat="43.03530199999955" lon="-1.291812999999999">
        <ele>1306.809</ele>
        <time>2022-08-24T10:24:24Z</time>
      </trkpt>
      <trkpt lat="43.03529599999955" lon="-1.291798999999999">
        <ele>1307.259</ele>
        <time>2022-08-24T10:24:25Z</time>
      </trkpt>
      <trkpt lat="43.03528999999955" lon="-1.291789999999999">
        <ele>1307.439</ele>
        <time>2022-08-24T10:24:26Z</time>
      </trkpt>
      <trkpt lat="43.03528399999955" lon="-1.2917809999999992">
        <ele>1307.659</ele>
        <time>2022-08-24T10:24:27Z</time>
      </trkpt>
      <trkpt lat="43.03527699999955" lon="-1.2917669999999992">
        <ele>1307.835</ele>
        <time>2022-08-24T10:24:28Z</time>
      </trkpt>
      <trkpt lat="43.035270999999554" lon="-1.2917549999999993">
        <ele>1308.017</ele>
        <time>2022-08-24T10:24:29Z</time>
      </trkpt>
      <trkpt lat="43.03526399999956" lon="-1.2917449999999993">
        <ele>1308.244</ele>
        <time>2022-08-24T10:24:30Z</time>
      </trkpt>
      <trkpt lat="43.035258999999556" lon="-1.2917299999999992">
        <ele>1308.227</ele>
        <time>2022-08-24T10:24:31Z</time>
      </trkpt>
      <trkpt lat="43.035250999999555" lon="-1.291714999999999">
        <ele>1308.471</ele>
        <time>2022-08-24T10:24:32Z</time>
      </trkpt>
      <trkpt lat="43.035244999999556" lon="-1.291704999999999">
        <ele>1308.480</ele>
        <time>2022-08-24T10:24:33Z</time>
      </trkpt>
      <trkpt lat="43.03523499999955" lon="-1.291693999999999">
        <ele>1308.468</ele>
        <time>2022-08-24T10:24:34Z</time>
      </trkpt>
      <trkpt lat="43.03522899999955" lon="-1.291678999999999">
        <ele>1308.642</ele>
        <time>2022-08-24T10:24:35Z</time>
      </trkpt>
      <trkpt lat="43.03522099999955" lon="-1.291664999999999">
        <ele>1308.626</ele>
        <time>2022-08-24T10:24:36Z</time>
      </trkpt>
      <trkpt lat="43.035211999999554" lon="-1.291647999999999">
        <ele>1308.609</ele>
        <time>2022-08-24T10:24:37Z</time>
      </trkpt>
      <trkpt lat="43.03520499999956" lon="-1.2916359999999991">
        <ele>1308.687</ele>
        <time>2022-08-24T10:24:38Z</time>
      </trkpt>
      <trkpt lat="43.03519899999956" lon="-1.2916249999999991">
        <ele>1308.627</ele>
        <time>2022-08-24T10:24:39Z</time>
      </trkpt>
      <trkpt lat="43.03519299999956" lon="-1.2916159999999992">
        <ele>1308.677</ele>
        <time>2022-08-24T10:24:40Z</time>
      </trkpt>
      <trkpt lat="43.03518799999956" lon="-1.2916029999999992">
        <ele>1308.643</ele>
        <time>2022-08-24T10:24:41Z</time>
      </trkpt>
      <trkpt lat="43.03518199999956" lon="-1.2915869999999992">
        <ele>1308.815</ele>
        <time>2022-08-24T10:24:42Z</time>
      </trkpt>
      <trkpt lat="43.03517699999956" lon="-1.2915749999999993">
        <ele>1308.842</ele>
        <time>2022-08-24T10:24:43Z</time>
      </trkpt>
      <trkpt lat="43.03516799999956" lon="-1.2915639999999993">
        <ele>1308.875</ele>
        <time>2022-08-24T10:24:44Z</time>
      </trkpt>
      <trkpt lat="43.03515899999956" lon="-1.2915499999999993">
        <ele>1308.849</ele>
        <time>2022-08-24T10:24:45Z</time>
      </trkpt>
      <trkpt lat="43.03515299999956" lon="-1.2915389999999993">
        <ele>1309.078</ele>
        <time>2022-08-24T10:24:46Z</time>
      </trkpt>
      <trkpt lat="43.03514499999956" lon="-1.2915259999999993">
        <ele>1309.043</ele>
        <time>2022-08-24T10:24:47Z</time>
      </trkpt>
      <trkpt lat="43.03513799999956" lon="-1.2915199999999993">
        <ele>1309.064</ele>
        <time>2022-08-24T10:24:48Z</time>
      </trkpt>
      <trkpt lat="43.035131999999564" lon="-1.2915109999999994">
        <ele>1309.010</ele>
        <time>2022-08-24T10:24:49Z</time>
      </trkpt>
      <trkpt lat="43.03512399999956" lon="-1.2915009999999993">
        <ele>1309.209</ele>
        <time>2022-08-24T10:24:50Z</time>
      </trkpt>
      <trkpt lat="43.035117999999564" lon="-1.2914949999999994">
        <ele>1309.455</ele>
        <time>2022-08-24T10:24:51Z</time>
      </trkpt>
      <trkpt lat="43.035108999999565" lon="-1.2914789999999994">
        <ele>1309.695</ele>
        <time>2022-08-24T10:24:52Z</time>
      </trkpt>
      <trkpt lat="43.035102999999566" lon="-1.2914639999999993">
        <ele>1310.015</ele>
        <time>2022-08-24T10:24:53Z</time>
      </trkpt>
      <trkpt lat="43.03509599999957" lon="-1.2914479999999993">
        <ele>1310.251</ele>
        <time>2022-08-24T10:24:54Z</time>
      </trkpt>
      <trkpt lat="43.03508799999957" lon="-1.2914329999999992">
        <ele>1310.473</ele>
        <time>2022-08-24T10:24:55Z</time>
      </trkpt>
      <trkpt lat="43.03507099999957" lon="-1.291398999999999">
        <ele>1310.870</ele>
        <time>2022-08-24T10:24:57Z</time>
      </trkpt>
      <trkpt lat="43.03506599999957" lon="-1.291383999999999">
        <ele>1311.063</ele>
        <time>2022-08-24T10:24:58Z</time>
      </trkpt>
      <trkpt lat="43.03505999999957" lon="-1.291370999999999">
        <ele>1311.077</ele>
        <time>2022-08-24T10:24:59Z</time>
      </trkpt>
      <trkpt lat="43.03505399999957" lon="-1.291357999999999">
        <ele>1311.086</ele>
        <time>2022-08-24T10:25:00Z</time>
      </trkpt>
      <trkpt lat="43.03504699999957" lon="-1.2913429999999988">
        <ele>1311.056</ele>
        <time>2022-08-24T10:25:01Z</time>
      </trkpt>
      <trkpt lat="43.035037999999574" lon="-1.2913269999999988">
        <ele>1311.059</ele>
        <time>2022-08-24T10:25:02Z</time>
      </trkpt>
      <trkpt lat="43.035031999999575" lon="-1.2913119999999987">
        <ele>1311.014</ele>
        <time>2022-08-24T10:25:03Z</time>
      </trkpt>
      <trkpt lat="43.03502499999958" lon="-1.2912979999999987">
        <ele>1311.209</ele>
        <time>2022-08-24T10:25:04Z</time>
      </trkpt>
      <trkpt lat="43.03501899999958" lon="-1.2912809999999988">
        <ele>1311.216</ele>
        <time>2022-08-24T10:25:05Z</time>
      </trkpt>
      <trkpt lat="43.03501499999958" lon="-1.291268999999999">
        <ele>1311.446</ele>
        <time>2022-08-24T10:25:06Z</time>
      </trkpt>
      <trkpt lat="43.03500399999958" lon="-1.291256999999999">
        <ele>1311.626</ele>
        <time>2022-08-24T10:25:07Z</time>
      </trkpt>
      <trkpt lat="43.03499599999958" lon="-1.291244999999999">
        <ele>1311.822</ele>
        <time>2022-08-24T10:25:08Z</time>
      </trkpt>
      <trkpt lat="43.03498799999958" lon="-1.291229999999999">
        <ele>1311.834</ele>
        <time>2022-08-24T10:25:09Z</time>
      </trkpt>
      <trkpt lat="43.03498199999958" lon="-1.291215999999999">
        <ele>1312.021</ele>
        <time>2022-08-24T10:25:10Z</time>
      </trkpt>
      <trkpt lat="43.034974999999584" lon="-1.291192999999999">
        <ele>1312.084</ele>
        <time>2022-08-24T10:25:11Z</time>
      </trkpt>
      <trkpt lat="43.03496999999958" lon="-1.291173999999999">
        <ele>1312.238</ele>
        <time>2022-08-24T10:25:12Z</time>
      </trkpt>
      <trkpt lat="43.03496399999958" lon="-1.291159999999999">
        <ele>1312.477</ele>
        <time>2022-08-24T10:25:13Z</time>
      </trkpt>
      <trkpt lat="43.03495699999959" lon="-1.2911449999999989">
        <ele>1312.464</ele>
        <time>2022-08-24T10:25:14Z</time>
      </trkpt>
      <trkpt lat="43.03495099999959" lon="-1.2911289999999989">
        <ele>1312.606</ele>
        <time>2022-08-24T10:25:15Z</time>
      </trkpt>
      <trkpt lat="43.03494799999959" lon="-1.291116999999999">
        <ele>1312.616</ele>
        <time>2022-08-24T10:25:16Z</time>
      </trkpt>
      <trkpt lat="43.034942999999586" lon="-1.291099999999999">
        <ele>1312.609</ele>
        <time>2022-08-24T10:25:17Z</time>
      </trkpt>
      <trkpt lat="43.03493599999959" lon="-1.291088999999999">
        <ele>1313.057</ele>
        <time>2022-08-24T10:25:18Z</time>
      </trkpt>
      <trkpt lat="43.03492699999959" lon="-1.2910799999999991">
        <ele>1313.247</ele>
        <time>2022-08-24T10:25:19Z</time>
      </trkpt>
      <trkpt lat="43.034919999999595" lon="-1.2910709999999992">
        <ele>1313.437</ele>
        <time>2022-08-24T10:25:20Z</time>
      </trkpt>
      <trkpt lat="43.034913999999596" lon="-1.291055999999999">
        <ele>1313.643</ele>
        <time>2022-08-24T10:25:21Z</time>
      </trkpt>
      <trkpt lat="43.0349069999996" lon="-1.291040999999999">
        <ele>1313.445</ele>
        <time>2022-08-24T10:25:22Z</time>
      </trkpt>
      <trkpt lat="43.0348989999996" lon="-1.291031999999999">
        <ele>1313.832</ele>
        <time>2022-08-24T10:25:23Z</time>
      </trkpt>
      <trkpt lat="43.0348929999996" lon="-1.291018999999999">
        <ele>1313.855</ele>
        <time>2022-08-24T10:25:24Z</time>
      </trkpt>
      <trkpt lat="43.0348869999996" lon="-1.2910069999999991">
        <ele>1314.239</ele>
        <time>2022-08-24T10:25:25Z</time>
      </trkpt>
      <trkpt lat="43.0348819999996" lon="-1.2909929999999992">
        <ele>1314.068</ele>
        <time>2022-08-24T10:25:26Z</time>
      </trkpt>
      <trkpt lat="43.0348729999996" lon="-1.2909789999999992">
        <ele>1314.237</ele>
        <time>2022-08-24T10:25:27Z</time>
      </trkpt>
      <trkpt lat="43.0348639999996" lon="-1.2909699999999993">
        <ele>1314.449</ele>
        <time>2022-08-24T10:25:28Z</time>
      </trkpt>
      <trkpt lat="43.0348559999996" lon="-1.2909619999999993">
        <ele>1314.613</ele>
        <time>2022-08-24T10:25:29Z</time>
      </trkpt>
      <trkpt lat="43.0348499999996" lon="-1.2909529999999994">
        <ele>1315.009</ele>
        <time>2022-08-24T10:25:30Z</time>
      </trkpt>
      <trkpt lat="43.0348409999996" lon="-1.2909479999999993">
        <ele>1315.464</ele>
        <time>2022-08-24T10:25:31Z</time>
      </trkpt>
      <trkpt lat="43.0348309999996" lon="-1.2909429999999993">
        <ele>1315.654</ele>
        <time>2022-08-24T10:25:32Z</time>
      </trkpt>
      <trkpt lat="43.034820999999596" lon="-1.2909399999999993">
        <ele>1315.844</ele>
        <time>2022-08-24T10:25:33Z</time>
      </trkpt>
      <trkpt lat="43.03481099999959" lon="-1.2909379999999993">
        <ele>1316.220</ele>
        <time>2022-08-24T10:25:34Z</time>
      </trkpt>
      <trkpt lat="43.03480299999959" lon="-1.2909359999999992">
        <ele>1316.252</ele>
        <time>2022-08-24T10:25:35Z</time>
      </trkpt>
      <trkpt lat="43.03479299999959" lon="-1.2909319999999993">
        <ele>1316.089</ele>
        <time>2022-08-24T10:25:36Z</time>
      </trkpt>
      <trkpt lat="43.034779999999586" lon="-1.2909299999999992">
        <ele>1316.432</ele>
        <time>2022-08-24T10:25:37Z</time>
      </trkpt>
      <trkpt lat="43.03476699999958" lon="-1.2909359999999992">
        <ele>1316.496</ele>
        <time>2022-08-24T10:25:38Z</time>
      </trkpt>
      <trkpt lat="43.03475599999958" lon="-1.2909439999999992">
        <ele>1316.445</ele>
        <time>2022-08-24T10:25:39Z</time>
      </trkpt>
      <trkpt lat="43.03474799999958" lon="-1.2909489999999992">
        <ele>1316.445</ele>
        <time>2022-08-24T10:25:40Z</time>
      </trkpt>
      <trkpt lat="43.03473699999958" lon="-1.2909579999999992">
        <ele>1316.647</ele>
        <time>2022-08-24T10:25:41Z</time>
      </trkpt>
      <trkpt lat="43.03472499999958" lon="-1.2909719999999991">
        <ele>1316.611</ele>
        <time>2022-08-24T10:25:42Z</time>
      </trkpt>
      <trkpt lat="43.03471399999958" lon="-1.2909849999999992">
        <ele>1316.609</ele>
        <time>2022-08-24T10:25:43Z</time>
      </trkpt>
      <trkpt lat="43.03470399999958" lon="-1.290996999999999">
        <ele>1317.055</ele>
        <time>2022-08-24T10:25:44Z</time>
      </trkpt>
      <trkpt lat="43.03469699999958" lon="-1.291007999999999">
        <ele>1317.055</ele>
        <time>2022-08-24T10:25:45Z</time>
      </trkpt>
      <trkpt lat="43.03468799999958" lon="-1.291019999999999">
        <ele>1317.075</ele>
        <time>2022-08-24T10:25:46Z</time>
      </trkpt>
      <trkpt lat="43.03467799999958" lon="-1.291033999999999">
        <ele>1317.271</ele>
        <time>2022-08-24T10:25:47Z</time>
      </trkpt>
      <trkpt lat="43.03467199999958" lon="-1.291043999999999">
        <ele>1317.233</ele>
        <time>2022-08-24T10:25:48Z</time>
      </trkpt>
      <trkpt lat="43.03466299999958" lon="-1.291059999999999">
        <ele>1317.460</ele>
        <time>2022-08-24T10:25:49Z</time>
      </trkpt>
      <trkpt lat="43.03465799999958" lon="-1.2910719999999989">
        <ele>1317.443</ele>
        <time>2022-08-24T10:25:50Z</time>
      </trkpt>
      <trkpt lat="43.03465199999958" lon="-1.2910829999999989">
        <ele>1317.257</ele>
        <time>2022-08-24T10:25:51Z</time>
      </trkpt>
      <trkpt lat="43.034644999999585" lon="-1.2910989999999989">
        <ele>1317.246</ele>
        <time>2022-08-24T10:25:52Z</time>
      </trkpt>
      <trkpt lat="43.03464099999959" lon="-1.291113999999999">
        <ele>1317.273</ele>
        <time>2022-08-24T10:25:53Z</time>
      </trkpt>
      <trkpt lat="43.03463599999959" lon="-1.291128999999999">
        <ele>1317.285</ele>
        <time>2022-08-24T10:25:54Z</time>
      </trkpt>
      <trkpt lat="43.034633999999585" lon="-1.291140999999999">
        <ele>1317.213</ele>
        <time>2022-08-24T10:25:55Z</time>
      </trkpt>
      <trkpt lat="43.03462699999959" lon="-1.291155999999999">
        <ele>1317.009</ele>
        <time>2022-08-24T10:25:56Z</time>
      </trkpt>
      <trkpt lat="43.03461799999959" lon="-1.291174999999999">
        <ele>1317.088</ele>
        <time>2022-08-24T10:25:57Z</time>
      </trkpt>
      <trkpt lat="43.03460799999959" lon="-1.291207999999999">
        <ele>1317.028</ele>
        <time>2022-08-24T10:25:59Z</time>
      </trkpt>
      <trkpt lat="43.03460399999959" lon="-1.291223999999999">
        <ele>1317.038</ele>
        <time>2022-08-24T10:26:00Z</time>
      </trkpt>
      <trkpt lat="43.03460099999959" lon="-1.2912469999999991">
        <ele>1317.084</ele>
        <time>2022-08-24T10:26:01Z</time>
      </trkpt>
      <trkpt lat="43.03459599999959" lon="-1.291271999999999">
        <ele>1317.076</ele>
        <time>2022-08-24T10:26:02Z</time>
      </trkpt>
      <trkpt lat="43.034593999999586" lon="-1.2912899999999992">
        <ele>1317.043</ele>
        <time>2022-08-24T10:26:03Z</time>
      </trkpt>
      <trkpt lat="43.034591999999584" lon="-1.291306999999999">
        <ele>1317.066</ele>
        <time>2022-08-24T10:26:04Z</time>
      </trkpt>
      <trkpt lat="43.034585999999585" lon="-1.2913199999999991">
        <ele>1317.040</ele>
        <time>2022-08-24T10:26:05Z</time>
      </trkpt>
      <trkpt lat="43.034580999999584" lon="-1.2913359999999992">
        <ele>1317.069</ele>
        <time>2022-08-24T10:26:06Z</time>
      </trkpt>
      <trkpt lat="43.03457299999958" lon="-1.291355999999999">
        <ele>1317.267</ele>
        <time>2022-08-24T10:26:07Z</time>
      </trkpt>
      <trkpt lat="43.034565999999586" lon="-1.2913739999999991">
        <ele>1317.281</ele>
        <time>2022-08-24T10:26:08Z</time>
      </trkpt>
      <trkpt lat="43.034560999999584" lon="-1.2913899999999991">
        <ele>1317.219</ele>
        <time>2022-08-24T10:26:09Z</time>
      </trkpt>
      <trkpt lat="43.03455699999959" lon="-1.291401999999999">
        <ele>1317.409</ele>
        <time>2022-08-24T10:26:10Z</time>
      </trkpt>
      <trkpt lat="43.03455299999959" lon="-1.291420999999999">
        <ele>1317.467</ele>
        <time>2022-08-24T10:26:11Z</time>
      </trkpt>
      <trkpt lat="43.03454899999959" lon="-1.291436999999999">
        <ele>1317.477</ele>
        <time>2022-08-24T10:26:12Z</time>
      </trkpt>
      <trkpt lat="43.034545999999594" lon="-1.291450999999999">
        <ele>1317.457</ele>
        <time>2022-08-24T10:26:13Z</time>
      </trkpt>
      <trkpt lat="43.0345419999996" lon="-1.291462999999999">
        <ele>1317.663</ele>
        <time>2022-08-24T10:26:14Z</time>
      </trkpt>
      <trkpt lat="43.034536999999595" lon="-1.2914719999999988">
        <ele>1317.815</ele>
        <time>2022-08-24T10:26:15Z</time>
      </trkpt>
      <trkpt lat="43.034530999999596" lon="-1.2914889999999988">
        <ele>1317.862</ele>
        <time>2022-08-24T10:26:16Z</time>
      </trkpt>
      <trkpt lat="43.034502999999596" lon="-1.2915779999999988">
        <ele>1318.485</ele>
        <time>2022-08-24T10:26:21Z</time>
      </trkpt>
      <trkpt lat="43.0344959999996" lon="-1.2915959999999989">
        <ele>1318.669</ele>
        <time>2022-08-24T10:26:22Z</time>
      </trkpt>
      <trkpt lat="43.0344899999996" lon="-1.2916099999999988">
        <ele>1319.038</ele>
        <time>2022-08-24T10:26:23Z</time>
      </trkpt>
      <trkpt lat="43.0344849999996" lon="-1.2916239999999988">
        <ele>1319.277</ele>
        <time>2022-08-24T10:26:24Z</time>
      </trkpt>
      <trkpt lat="43.0344809999996" lon="-1.2916339999999988">
        <ele>1319.461</ele>
        <time>2022-08-24T10:26:25Z</time>
      </trkpt>
      <trkpt lat="43.034459999999605" lon="-1.291683999999999">
        <ele>1320.027</ele>
        <time>2022-08-24T10:26:28Z</time>
      </trkpt>
      <trkpt lat="43.03443899999961" lon="-1.291710999999999">
        <ele>1320.409</ele>
        <time>2022-08-24T10:26:30Z</time>
      </trkpt>
      <trkpt lat="43.03443199999961" lon="-1.2917199999999989">
        <ele>1320.868</ele>
        <time>2022-08-24T10:26:31Z</time>
      </trkpt>
      <trkpt lat="43.03442299999961" lon="-1.2917309999999989">
        <ele>1321.018</ele>
        <time>2022-08-24T10:26:32Z</time>
      </trkpt>
      <trkpt lat="43.034413999999614" lon="-1.291737999999999">
        <ele>1321.278</ele>
        <time>2022-08-24T10:26:33Z</time>
      </trkpt>
      <trkpt lat="43.03440099999961" lon="-1.2917419999999988">
        <ele>1321.474</ele>
        <time>2022-08-24T10:26:34Z</time>
      </trkpt>
      <trkpt lat="43.034388999999614" lon="-1.2917459999999987">
        <ele>1321.636</ele>
        <time>2022-08-24T10:26:35Z</time>
      </trkpt>
      <trkpt lat="43.03437799999961" lon="-1.2917499999999986">
        <ele>1321.873</ele>
        <time>2022-08-24T10:26:36Z</time>
      </trkpt>
      <trkpt lat="43.034368999999614" lon="-1.2917489999999987">
        <ele>1322.056</ele>
        <time>2022-08-24T10:26:37Z</time>
      </trkpt>
      <trkpt lat="43.03436099999961" lon="-1.2917509999999988">
        <ele>1322.020</ele>
        <time>2022-08-24T10:26:38Z</time>
      </trkpt>
      <trkpt lat="43.034348999999615" lon="-1.2917529999999988">
        <ele>1322.039</ele>
        <time>2022-08-24T10:26:39Z</time>
      </trkpt>
      <trkpt lat="43.03433699999962" lon="-1.2917569999999987">
        <ele>1322.278</ele>
        <time>2022-08-24T10:26:40Z</time>
      </trkpt>
      <trkpt lat="43.034326999999614" lon="-1.2917619999999987">
        <ele>1322.233</ele>
        <time>2022-08-24T10:26:41Z</time>
      </trkpt>
      <trkpt lat="43.03431599999961" lon="-1.2917669999999988">
        <ele>1322.226</ele>
        <time>2022-08-24T10:26:42Z</time>
      </trkpt>
      <trkpt lat="43.03430599999961" lon="-1.2917719999999988">
        <ele>1322.209</ele>
        <time>2022-08-24T10:26:43Z</time>
      </trkpt>
      <trkpt lat="43.03429099999961" lon="-1.2917749999999988">
        <ele>1322.238</ele>
        <time>2022-08-24T10:26:44Z</time>
      </trkpt>
      <trkpt lat="43.034278999999614" lon="-1.2917769999999988">
        <ele>1322.278</ele>
        <time>2022-08-24T10:26:45Z</time>
      </trkpt>
      <trkpt lat="43.034267999999614" lon="-1.2917809999999987">
        <ele>1322.248</ele>
        <time>2022-08-24T10:26:46Z</time>
      </trkpt>
      <trkpt lat="43.03425699999961" lon="-1.2917829999999988">
        <ele>1322.284</ele>
        <time>2022-08-24T10:26:47Z</time>
      </trkpt>
      <trkpt lat="43.03424599999961" lon="-1.2917859999999988">
        <ele>1322.286</ele>
        <time>2022-08-24T10:26:48Z</time>
      </trkpt>
      <trkpt lat="43.03423299999961" lon="-1.2917919999999987">
        <ele>1322.453</ele>
        <time>2022-08-24T10:26:49Z</time>
      </trkpt>
      <trkpt lat="43.03422099999961" lon="-1.2917969999999988">
        <ele>1322.436</ele>
        <time>2022-08-24T10:26:50Z</time>
      </trkpt>
      <trkpt lat="43.03420899999961" lon="-1.2917989999999988">
        <ele>1322.490</ele>
        <time>2022-08-24T10:26:51Z</time>
      </trkpt>
      <trkpt lat="43.034196999999615" lon="-1.2918049999999988">
        <ele>1322.489</ele>
        <time>2022-08-24T10:26:52Z</time>
      </trkpt>
      <trkpt lat="43.034182999999615" lon="-1.2918089999999987">
        <ele>1322.647</ele>
        <time>2022-08-24T10:26:53Z</time>
      </trkpt>
      <trkpt lat="43.03417399999962" lon="-1.2918119999999986">
        <ele>1322.829</ele>
        <time>2022-08-24T10:26:54Z</time>
      </trkpt>
      <trkpt lat="43.034168999999615" lon="-1.2918129999999985">
        <ele>1322.821</ele>
        <time>2022-08-24T10:26:55Z</time>
      </trkpt>
      <trkpt lat="43.03416699999961" lon="-1.2918129999999985">
        <ele>1324.009</ele>
        <time>2022-08-24T10:27:39Z</time>
      </trkpt>
      <trkpt lat="43.034157999999614" lon="-1.2918169999999984">
        <ele>1324.095</ele>
        <time>2022-08-24T10:27:40Z</time>
      </trkpt>
      <trkpt lat="43.03414799999961" lon="-1.2918189999999985">
        <ele>1324.215</ele>
        <time>2022-08-24T10:27:41Z</time>
      </trkpt>
      <trkpt lat="43.03407599999961" lon="-1.2918329999999985">
        <ele>1324.285</ele>
        <time>2022-08-24T10:27:47Z</time>
      </trkpt>
      <trkpt lat="43.03403099999961" lon="-1.2918409999999985">
        <ele>1324.271</ele>
        <time>2022-08-24T10:27:50Z</time>
      </trkpt>
      <trkpt lat="43.03392899999961" lon="-1.2918519999999984">
        <ele>1323.853</ele>
        <time>2022-08-24T10:27:56Z</time>
      </trkpt>
      <trkpt lat="43.03391199999961" lon="-1.2918509999999985">
        <ele>1323.810</ele>
        <time>2022-08-24T10:27:57Z</time>
      </trkpt>
      <trkpt lat="43.03389499999961" lon="-1.2918489999999985">
        <ele>1323.893</ele>
        <time>2022-08-24T10:27:58Z</time>
      </trkpt>
      <trkpt lat="43.03380299999961" lon="-1.2918369999999986">
        <ele>1323.687</ele>
        <time>2022-08-24T10:28:03Z</time>
      </trkpt>
      <trkpt lat="43.03375099999961" lon="-1.2918219999999985">
        <ele>1323.866</ele>
        <time>2022-08-24T10:28:06Z</time>
      </trkpt>
      <trkpt lat="43.03373699999961" lon="-1.2918189999999985">
        <ele>1323.866</ele>
        <time>2022-08-24T10:28:07Z</time>
      </trkpt>
      <trkpt lat="43.033721999999614" lon="-1.2918119999999984">
        <ele>1323.829</ele>
        <time>2022-08-24T10:28:08Z</time>
      </trkpt>
      <trkpt lat="43.03370799999961" lon="-1.2918079999999985">
        <ele>1324.021</ele>
        <time>2022-08-24T10:28:09Z</time>
      </trkpt>
      <trkpt lat="43.033678999999616" lon="-1.2918069999999986">
        <ele>1324.009</ele>
        <time>2022-08-24T10:28:11Z</time>
      </trkpt>
      <trkpt lat="43.03366399999962" lon="-1.2918039999999986">
        <ele>1324.037</ele>
        <time>2022-08-24T10:28:12Z</time>
      </trkpt>
      <trkpt lat="43.03362999999962" lon="-1.2917999999999987">
        <ele>1324.227</ele>
        <time>2022-08-24T10:28:14Z</time>
      </trkpt>
      <trkpt lat="43.03361299999962" lon="-1.2917959999999988">
        <ele>1324.447</ele>
        <time>2022-08-24T10:28:15Z</time>
      </trkpt>
      <trkpt lat="43.033599999999616" lon="-1.2917939999999988">
        <ele>1324.433</ele>
        <time>2022-08-24T10:28:16Z</time>
      </trkpt>
      <trkpt lat="43.03358699999961" lon="-1.2917919999999987">
        <ele>1324.645</ele>
        <time>2022-08-24T10:28:17Z</time>
      </trkpt>
      <trkpt lat="43.03357299999961" lon="-1.2917889999999987">
        <ele>1324.852</ele>
        <time>2022-08-24T10:28:18Z</time>
      </trkpt>
      <trkpt lat="43.03355899999961" lon="-1.2917869999999987">
        <ele>1324.875</ele>
        <time>2022-08-24T10:28:19Z</time>
      </trkpt>
      <trkpt lat="43.033524999999614" lon="-1.2917799999999986">
        <ele>1325.089</ele>
        <time>2022-08-24T10:28:22Z</time>
      </trkpt>
      <trkpt lat="43.03350899999961" lon="-1.2917829999999986">
        <ele>1325.028</ele>
        <time>2022-08-24T10:28:23Z</time>
      </trkpt>
      <trkpt lat="43.033493999999614" lon="-1.2917809999999985">
        <ele>1325.256</ele>
        <time>2022-08-24T10:28:24Z</time>
      </trkpt>
      <trkpt lat="43.03340999999961" lon="-1.2917549999999984">
        <ele>1325.259</ele>
        <time>2022-08-24T10:28:28Z</time>
      </trkpt>
      <trkpt lat="43.03333699999961" lon="-1.2917279999999984">
        <ele>1325.414</ele>
        <time>2022-08-24T10:28:31Z</time>
      </trkpt>
      <trkpt lat="43.03328399999961" lon="-1.2917109999999985">
        <ele>1325.409</ele>
        <time>2022-08-24T10:28:33Z</time>
      </trkpt>
      <trkpt lat="43.03325999999961" lon="-1.2917099999999986">
        <ele>1325.626</ele>
        <time>2022-08-24T10:28:34Z</time>
      </trkpt>
      <trkpt lat="43.03323199999961" lon="-1.2917089999999987">
        <ele>1325.666</ele>
        <time>2022-08-24T10:28:35Z</time>
      </trkpt>
      <trkpt lat="43.033204999999604" lon="-1.2917109999999987">
        <ele>1325.836</ele>
        <time>2022-08-24T10:28:36Z</time>
      </trkpt>
      <trkpt lat="43.033187999999605" lon="-1.2917129999999988">
        <ele>1325.882</ele>
        <time>2022-08-24T10:28:37Z</time>
      </trkpt>
      <trkpt lat="43.033162999999604" lon="-1.2917149999999988">
        <ele>1326.084</ele>
        <time>2022-08-24T10:28:38Z</time>
      </trkpt>
      <trkpt lat="43.033133999999606" lon="-1.291713999999999">
        <ele>1326.081</ele>
        <time>2022-08-24T10:28:39Z</time>
      </trkpt>
      <trkpt lat="43.0331099999996" lon="-1.2917199999999989">
        <ele>1326.084</ele>
        <time>2022-08-24T10:28:40Z</time>
      </trkpt>
      <trkpt lat="43.0330879999996" lon="-1.2917239999999988">
        <ele>1326.238</ele>
        <time>2022-08-24T10:28:41Z</time>
      </trkpt>
      <trkpt lat="43.0330649999996" lon="-1.2917169999999987">
        <ele>1326.437</ele>
        <time>2022-08-24T10:28:42Z</time>
      </trkpt>
      <trkpt lat="43.033049999999605" lon="-1.2917129999999988">
        <ele>1326.815</ele>
        <time>2022-08-24T10:28:43Z</time>
      </trkpt>
      <trkpt lat="43.0330309999996" lon="-1.2917139999999987">
        <ele>1327.065</ele>
        <time>2022-08-24T10:28:44Z</time>
      </trkpt>
      <trkpt lat="43.0330119999996" lon="-1.2917189999999987">
        <ele>1327.211</ele>
        <time>2022-08-24T10:28:45Z</time>
      </trkpt>
      <trkpt lat="43.032993999999604" lon="-1.2917169999999987">
        <ele>1327.609</ele>
        <time>2022-08-24T10:28:46Z</time>
      </trkpt>
      <trkpt lat="43.03297599999961" lon="-1.2917209999999986">
        <ele>1327.892</ele>
        <time>2022-08-24T10:28:47Z</time>
      </trkpt>
      <trkpt lat="43.03296099999961" lon="-1.2917239999999985">
        <ele>1328.092</ele>
        <time>2022-08-24T10:28:48Z</time>
      </trkpt>
      <trkpt lat="43.03294699999961" lon="-1.2917289999999986">
        <ele>1328.222</ele>
        <time>2022-08-24T10:28:49Z</time>
      </trkpt>
      <trkpt lat="43.03292699999961" lon="-1.2917339999999986">
        <ele>1328.258</ele>
        <time>2022-08-24T10:28:50Z</time>
      </trkpt>
      <trkpt lat="43.03291099999961" lon="-1.2917399999999986">
        <ele>1328.460</ele>
        <time>2022-08-24T10:28:51Z</time>
      </trkpt>
      <trkpt lat="43.032897999999605" lon="-1.2917509999999985">
        <ele>1328.657</ele>
        <time>2022-08-24T10:28:52Z</time>
      </trkpt>
      <trkpt lat="43.0328849999996" lon="-1.2917619999999985">
        <ele>1328.830</ele>
        <time>2022-08-24T10:28:53Z</time>
      </trkpt>
      <trkpt lat="43.032872999999604" lon="-1.2917709999999984">
        <ele>1328.864</ele>
        <time>2022-08-24T10:28:54Z</time>
      </trkpt>
      <trkpt lat="43.03285799999961" lon="-1.2917809999999985">
        <ele>1329.053</ele>
        <time>2022-08-24T10:28:55Z</time>
      </trkpt>
      <trkpt lat="43.032844999999604" lon="-1.2917879999999986">
        <ele>1329.217</ele>
        <time>2022-08-24T10:28:56Z</time>
      </trkpt>
      <trkpt lat="43.032835999999605" lon="-1.2917979999999987">
        <ele>1329.487</ele>
        <time>2022-08-24T10:28:57Z</time>
      </trkpt>
      <trkpt lat="43.032827999999604" lon="-1.2918089999999987">
        <ele>1329.615</ele>
        <time>2022-08-24T10:28:58Z</time>
      </trkpt>
      <trkpt lat="43.0328169999996" lon="-1.2918219999999987">
        <ele>1329.609</ele>
        <time>2022-08-24T10:28:59Z</time>
      </trkpt>
      <trkpt lat="43.0328059999996" lon="-1.2918329999999987">
        <ele>1330.242</ele>
        <time>2022-08-24T10:29:00Z</time>
      </trkpt>
      <trkpt lat="43.0327949999996" lon="-1.2918449999999986">
        <ele>1330.482</ele>
        <time>2022-08-24T10:29:01Z</time>
      </trkpt>
      <trkpt lat="43.0327849999996" lon="-1.2918529999999986">
        <ele>1330.822</ele>
        <time>2022-08-24T10:29:02Z</time>
      </trkpt>
      <trkpt lat="43.0327779999996" lon="-1.2918569999999985">
        <ele>1331.018</ele>
        <time>2022-08-24T10:29:03Z</time>
      </trkpt>
      <trkpt lat="43.0327679999996" lon="-1.2918659999999984">
        <ele>1331.030</ele>
        <time>2022-08-24T10:29:04Z</time>
      </trkpt>
      <trkpt lat="43.032757999999596" lon="-1.2918749999999983">
        <ele>1331.447</ele>
        <time>2022-08-24T10:29:05Z</time>
      </trkpt>
      <trkpt lat="43.032749999999595" lon="-1.2918869999999982">
        <ele>1331.440</ele>
        <time>2022-08-24T10:29:06Z</time>
      </trkpt>
      <trkpt lat="43.032741999999594" lon="-1.2918959999999982">
        <ele>1331.634</ele>
        <time>2022-08-24T10:29:07Z</time>
      </trkpt>
      <trkpt lat="43.03273199999959" lon="-1.2919039999999982">
        <ele>1331.873</ele>
        <time>2022-08-24T10:29:08Z</time>
      </trkpt>
      <trkpt lat="43.03272199999959" lon="-1.2919109999999983">
        <ele>1331.868</ele>
        <time>2022-08-24T10:29:09Z</time>
      </trkpt>
      <trkpt lat="43.03271299999959" lon="-1.2919139999999982">
        <ele>1332.042</ele>
        <time>2022-08-24T10:29:10Z</time>
      </trkpt>
      <trkpt lat="43.03270399999959" lon="-1.2919209999999983">
        <ele>1332.026</ele>
        <time>2022-08-24T10:29:11Z</time>
      </trkpt>
      <trkpt lat="43.03269499999959" lon="-1.2919259999999984">
        <ele>1332.209</ele>
        <time>2022-08-24T10:29:12Z</time>
      </trkpt>
      <trkpt lat="43.03268699999959" lon="-1.2919279999999984">
        <ele>1332.447</ele>
        <time>2022-08-24T10:29:13Z</time>
      </trkpt>
      <trkpt lat="43.03267799999959" lon="-1.2919339999999984">
        <ele>1332.457</ele>
        <time>2022-08-24T10:29:14Z</time>
      </trkpt>
      <trkpt lat="43.03266899999959" lon="-1.2919409999999985">
        <ele>1332.667</ele>
        <time>2022-08-24T10:29:15Z</time>
      </trkpt>
      <trkpt lat="43.03265799999959" lon="-1.2919459999999985">
        <ele>1332.673</ele>
        <time>2022-08-24T10:29:16Z</time>
      </trkpt>
      <trkpt lat="43.03264499999959" lon="-1.2919519999999984">
        <ele>1332.645</ele>
        <time>2022-08-24T10:29:17Z</time>
      </trkpt>
      <trkpt lat="43.03263299999959" lon="-1.2919599999999984">
        <ele>1332.692</ele>
        <time>2022-08-24T10:29:18Z</time>
      </trkpt>
      <trkpt lat="43.03262499999959" lon="-1.2919689999999984">
        <ele>1332.825</ele>
        <time>2022-08-24T10:29:19Z</time>
      </trkpt>
      <trkpt lat="43.032617999999594" lon="-1.2919769999999984">
        <ele>1332.819</ele>
        <time>2022-08-24T10:29:20Z</time>
      </trkpt>
      <trkpt lat="43.032611999999595" lon="-1.2919869999999984">
        <ele>1333.288</ele>
        <time>2022-08-24T10:29:21Z</time>
      </trkpt>
      <trkpt lat="43.0326079999996" lon="-1.2919939999999985">
        <ele>1333.214</ele>
        <time>2022-08-24T10:29:22Z</time>
      </trkpt>
      <trkpt lat="43.0326029999996" lon="-1.2919999999999985">
        <ele>1333.454</ele>
        <time>2022-08-24T10:29:23Z</time>
      </trkpt>
      <trkpt lat="43.032597999999595" lon="-1.2920079999999985">
        <ele>1333.409</ele>
        <time>2022-08-24T10:29:24Z</time>
      </trkpt>
      <trkpt lat="43.032591999999596" lon="-1.2920159999999985">
        <ele>1333.409</ele>
        <time>2022-08-24T10:29:25Z</time>
      </trkpt>
      <trkpt lat="43.0325849999996" lon="-1.2920229999999986">
        <ele>1333.862</ele>
        <time>2022-08-24T10:29:26Z</time>
      </trkpt>
      <trkpt lat="43.0325789999996" lon="-1.2920299999999987">
        <ele>1334.082</ele>
        <time>2022-08-24T10:29:27Z</time>
      </trkpt>
      <trkpt lat="43.0325729999996" lon="-1.2920409999999987">
        <ele>1334.232</ele>
        <time>2022-08-24T10:29:28Z</time>
      </trkpt>
      <trkpt lat="43.0325649999996" lon="-1.2920469999999986">
        <ele>1334.288</ele>
        <time>2022-08-24T10:29:29Z</time>
      </trkpt>
      <trkpt lat="43.0325599999996" lon="-1.2920539999999987">
        <ele>1334.230</ele>
        <time>2022-08-24T10:29:30Z</time>
      </trkpt>
      <trkpt lat="43.0325509999996" lon="-1.2920599999999987">
        <ele>1334.467</ele>
        <time>2022-08-24T10:29:31Z</time>
      </trkpt>
      <trkpt lat="43.032543999999604" lon="-1.2920679999999987">
        <ele>1334.450</ele>
        <time>2022-08-24T10:29:32Z</time>
      </trkpt>
      <trkpt lat="43.03253699999961" lon="-1.2920709999999986">
        <ele>1334.864</ele>
        <time>2022-08-24T10:29:33Z</time>
      </trkpt>
      <trkpt lat="43.032528999999606" lon="-1.2920749999999985">
        <ele>1334.873</ele>
        <time>2022-08-24T10:29:34Z</time>
      </trkpt>
      <trkpt lat="43.03251699999961" lon="-1.2920829999999985">
        <ele>1335.022</ele>
        <time>2022-08-24T10:29:35Z</time>
      </trkpt>
      <trkpt lat="43.03250799999961" lon="-1.2920929999999986">
        <ele>1335.062</ele>
        <time>2022-08-24T10:29:36Z</time>
      </trkpt>
      <trkpt lat="43.03250099999961" lon="-1.2921039999999986">
        <ele>1335.208</ele>
        <time>2022-08-24T10:29:37Z</time>
      </trkpt>
      <trkpt lat="43.032493999999616" lon="-1.2921159999999985">
        <ele>1335.209</ele>
        <time>2022-08-24T10:29:38Z</time>
      </trkpt>
      <trkpt lat="43.03248499999962" lon="-1.2921239999999985">
        <ele>1335.243</ele>
        <time>2022-08-24T10:29:39Z</time>
      </trkpt>
      <trkpt lat="43.032474999999614" lon="-1.2921339999999986">
        <ele>1335.453</ele>
        <time>2022-08-24T10:29:40Z</time>
      </trkpt>
      <trkpt lat="43.03246699999961" lon="-1.2921499999999986">
        <ele>1335.433</ele>
        <time>2022-08-24T10:29:41Z</time>
      </trkpt>
      <trkpt lat="43.03246199999961" lon="-1.2921599999999986">
        <ele>1335.459</ele>
        <time>2022-08-24T10:29:42Z</time>
      </trkpt>
      <trkpt lat="43.03245199999961" lon="-1.2921739999999986">
        <ele>1335.611</ele>
        <time>2022-08-24T10:29:43Z</time>
      </trkpt>
      <trkpt lat="43.032441999999605" lon="-1.2921789999999986">
        <ele>1335.688</ele>
        <time>2022-08-24T10:29:44Z</time>
      </trkpt>
      <trkpt lat="43.03243299999961" lon="-1.2921889999999987">
        <ele>1335.631</ele>
        <time>2022-08-24T10:29:45Z</time>
      </trkpt>
      <trkpt lat="43.03242699999961" lon="-1.2922039999999988">
        <ele>1335.845</ele>
        <time>2022-08-24T10:29:46Z</time>
      </trkpt>
      <trkpt lat="43.03241799999961" lon="-1.2922139999999989">
        <ele>1336.024</ele>
        <time>2022-08-24T10:29:47Z</time>
      </trkpt>
      <trkpt lat="43.03240999999961" lon="-1.2922229999999988">
        <ele>1336.287</ele>
        <time>2022-08-24T10:29:48Z</time>
      </trkpt>
      <trkpt lat="43.03240199999961" lon="-1.2922309999999988">
        <ele>1336.442</ele>
        <time>2022-08-24T10:29:49Z</time>
      </trkpt>
      <trkpt lat="43.032391999999604" lon="-1.2922359999999988">
        <ele>1336.426</ele>
        <time>2022-08-24T10:29:50Z</time>
      </trkpt>
      <trkpt lat="43.032379999999606" lon="-1.292245999999999">
        <ele>1336.609</ele>
        <time>2022-08-24T10:29:51Z</time>
      </trkpt>
      <trkpt lat="43.03237099999961" lon="-1.292255999999999">
        <ele>1336.879</ele>
        <time>2022-08-24T10:29:52Z</time>
      </trkpt>
      <trkpt lat="43.032359999999606" lon="-1.2922649999999989">
        <ele>1337.019</ele>
        <time>2022-08-24T10:29:53Z</time>
      </trkpt>
      <trkpt lat="43.032345999999606" lon="-1.292269999999999">
        <ele>1337.049</ele>
        <time>2022-08-24T10:29:54Z</time>
      </trkpt>
      <trkpt lat="43.0323359999996" lon="-1.292282999999999">
        <ele>1337.265</ele>
        <time>2022-08-24T10:29:55Z</time>
      </trkpt>
      <trkpt lat="43.0323279999996" lon="-1.292295999999999">
        <ele>1337.297</ele>
        <time>2022-08-24T10:29:56Z</time>
      </trkpt>
      <trkpt lat="43.0323199999996" lon="-1.292307999999999">
        <ele>1337.444</ele>
        <time>2022-08-24T10:29:57Z</time>
      </trkpt>
      <trkpt lat="43.0323109999996" lon="-1.292320999999999">
        <ele>1337.487</ele>
        <time>2022-08-24T10:29:58Z</time>
      </trkpt>
      <trkpt lat="43.0323029999996" lon="-1.292328999999999">
        <ele>1337.621</ele>
        <time>2022-08-24T10:29:59Z</time>
      </trkpt>
      <trkpt lat="43.0322919999996" lon="-1.292338999999999">
        <ele>1337.850</ele>
        <time>2022-08-24T10:30:00Z</time>
      </trkpt>
      <trkpt lat="43.0322879999996" lon="-1.292346999999999">
        <ele>1337.874</ele>
        <time>2022-08-24T10:30:01Z</time>
      </trkpt>
      <trkpt lat="43.032284999999604" lon="-1.292345999999999">
        <ele>1338.056</ele>
        <time>2022-08-24T10:30:02Z</time>
      </trkpt>
      <trkpt lat="43.032278999999605" lon="-1.2923539999999991">
        <ele>1338.021</ele>
        <time>2022-08-24T10:30:03Z</time>
      </trkpt>
      <trkpt lat="43.032269999999606" lon="-1.292367999999999">
        <ele>1338.209</ele>
        <time>2022-08-24T10:30:04Z</time>
      </trkpt>
      <trkpt lat="43.03226299999961" lon="-1.292379999999999">
        <ele>1338.278</ele>
        <time>2022-08-24T10:30:05Z</time>
      </trkpt>
      <trkpt lat="43.03225699999961" lon="-1.292390999999999">
        <ele>1338.498</ele>
        <time>2022-08-24T10:30:06Z</time>
      </trkpt>
      <trkpt lat="43.03224899999961" lon="-1.292401999999999">
        <ele>1338.868</ele>
        <time>2022-08-24T10:30:07Z</time>
      </trkpt>
      <trkpt lat="43.03224399999961" lon="-1.292415999999999">
        <ele>1339.044</ele>
        <time>2022-08-24T10:30:08Z</time>
      </trkpt>
      <trkpt lat="43.032230999999605" lon="-1.292422999999999">
        <ele>1339.256</ele>
        <time>2022-08-24T10:30:09Z</time>
      </trkpt>
      <trkpt lat="43.0322179999996" lon="-1.292429999999999">
        <ele>1339.493</ele>
        <time>2022-08-24T10:30:10Z</time>
      </trkpt>
      <trkpt lat="43.0322069999996" lon="-1.2924369999999992">
        <ele>1339.826</ele>
        <time>2022-08-24T10:30:11Z</time>
      </trkpt>
      <trkpt lat="43.032194999999604" lon="-1.2924509999999991">
        <ele>1339.870</ele>
        <time>2022-08-24T10:30:12Z</time>
      </trkpt>
      <trkpt lat="43.0321849999996" lon="-1.2924619999999991">
        <ele>1340.089</ele>
        <time>2022-08-24T10:30:13Z</time>
      </trkpt>
      <trkpt lat="43.0321749999996" lon="-1.2924699999999991">
        <ele>1340.231</ele>
        <time>2022-08-24T10:30:14Z</time>
      </trkpt>
      <trkpt lat="43.032166999999596" lon="-1.292478999999999">
        <ele>1340.461</ele>
        <time>2022-08-24T10:30:15Z</time>
      </trkpt>
      <trkpt lat="43.0321579999996" lon="-1.292488999999999">
        <ele>1340.607</ele>
        <time>2022-08-24T10:30:16Z</time>
      </trkpt>
      <trkpt lat="43.032147999999594" lon="-1.2924989999999992">
        <ele>1340.609</ele>
        <time>2022-08-24T10:30:17Z</time>
      </trkpt>
      <trkpt lat="43.0321329999996" lon="-1.292507999999999">
        <ele>1340.874</ele>
        <time>2022-08-24T10:30:18Z</time>
      </trkpt>
      <trkpt lat="43.032119999999594" lon="-1.292519999999999">
        <ele>1341.024</ele>
        <time>2022-08-24T10:30:19Z</time>
      </trkpt>
      <trkpt lat="43.032107999999596" lon="-1.292530999999999">
        <ele>1341.254</ele>
        <time>2022-08-24T10:30:20Z</time>
      </trkpt>
      <trkpt lat="43.032096999999595" lon="-1.292541999999999">
        <ele>1341.270</ele>
        <time>2022-08-24T10:30:21Z</time>
      </trkpt>
      <trkpt lat="43.032088999999594" lon="-1.2925539999999989">
        <ele>1341.462</ele>
        <time>2022-08-24T10:30:22Z</time>
      </trkpt>
      <trkpt lat="43.032079999999596" lon="-1.2925649999999989">
        <ele>1341.659</ele>
        <time>2022-08-24T10:30:23Z</time>
      </trkpt>
      <trkpt lat="43.0320729999996" lon="-1.292574999999999">
        <ele>1341.832</ele>
        <time>2022-08-24T10:30:24Z</time>
      </trkpt>
      <trkpt lat="43.0320609999996" lon="-1.292579999999999">
        <ele>1342.026</ele>
        <time>2022-08-24T10:30:25Z</time>
      </trkpt>
      <trkpt lat="43.0320479999996" lon="-1.292584999999999">
        <ele>1342.295</ele>
        <time>2022-08-24T10:30:26Z</time>
      </trkpt>
      <trkpt lat="43.032031999999596" lon="-1.292584999999999">
        <ele>1342.491</ele>
        <time>2022-08-24T10:30:27Z</time>
      </trkpt>
      <trkpt lat="43.03201899999959" lon="-1.292583999999999">
        <ele>1342.481</ele>
        <time>2022-08-24T10:30:28Z</time>
      </trkpt>
      <trkpt lat="43.03200599999959" lon="-1.292586999999999">
        <ele>1342.419</ele>
        <time>2022-08-24T10:30:29Z</time>
      </trkpt>
      <trkpt lat="43.03199599999959" lon="-1.292592999999999">
        <ele>1343.009</ele>
        <time>2022-08-24T10:30:30Z</time>
      </trkpt>
      <trkpt lat="43.03198699999959" lon="-1.2925969999999989">
        <ele>1343.220</ele>
        <time>2022-08-24T10:30:31Z</time>
      </trkpt>
      <trkpt lat="43.03197899999959" lon="-1.2926029999999988">
        <ele>1343.620</ele>
        <time>2022-08-24T10:30:32Z</time>
      </trkpt>
      <trkpt lat="43.03197199999959" lon="-1.2926119999999988">
        <ele>1344.090</ele>
        <time>2022-08-24T10:30:33Z</time>
      </trkpt>
      <trkpt lat="43.03196599999959" lon="-1.2926209999999987">
        <ele>1344.036</ele>
        <time>2022-08-24T10:30:34Z</time>
      </trkpt>
      <trkpt lat="43.03195799999959" lon="-1.2926299999999986">
        <ele>1344.258</ele>
        <time>2022-08-24T10:30:35Z</time>
      </trkpt>
      <trkpt lat="43.031950999999594" lon="-1.2926429999999987">
        <ele>1344.265</ele>
        <time>2022-08-24T10:30:36Z</time>
      </trkpt>
      <trkpt lat="43.03194099999959" lon="-1.2926549999999986">
        <ele>1344.278</ele>
        <time>2022-08-24T10:30:37Z</time>
      </trkpt>
      <trkpt lat="43.03193299999959" lon="-1.2926649999999986">
        <ele>1344.682</ele>
        <time>2022-08-24T10:30:38Z</time>
      </trkpt>
      <trkpt lat="43.031925999999594" lon="-1.2926779999999987">
        <ele>1344.611</ele>
        <time>2022-08-24T10:30:39Z</time>
      </trkpt>
      <trkpt lat="43.0319189999996" lon="-1.2926899999999986">
        <ele>1344.845</ele>
        <time>2022-08-24T10:30:40Z</time>
      </trkpt>
      <trkpt lat="43.0319099999996" lon="-1.2927009999999985">
        <ele>1345.047</ele>
        <time>2022-08-24T10:30:41Z</time>
      </trkpt>
      <trkpt lat="43.0319009999996" lon="-1.2927139999999986">
        <ele>1345.211</ele>
        <time>2022-08-24T10:30:42Z</time>
      </trkpt>
      <trkpt lat="43.0318929999996" lon="-1.2927209999999987">
        <ele>1345.209</ele>
        <time>2022-08-24T10:30:43Z</time>
      </trkpt>
      <trkpt lat="43.031882999999596" lon="-1.2927269999999986">
        <ele>1345.665</ele>
        <time>2022-08-24T10:30:44Z</time>
      </trkpt>
      <trkpt lat="43.0318709999996" lon="-1.2927349999999986">
        <ele>1345.875</ele>
        <time>2022-08-24T10:30:45Z</time>
      </trkpt>
      <trkpt lat="43.031860999999594" lon="-1.2927439999999986">
        <ele>1346.055</ele>
        <time>2022-08-24T10:30:46Z</time>
      </trkpt>
      <trkpt lat="43.03185099999959" lon="-1.2927549999999985">
        <ele>1346.291</ele>
        <time>2022-08-24T10:30:47Z</time>
      </trkpt>
      <trkpt lat="43.031843999999595" lon="-1.2927709999999986">
        <ele>1346.253</ele>
        <time>2022-08-24T10:30:48Z</time>
      </trkpt>
      <trkpt lat="43.031834999999596" lon="-1.2927819999999985">
        <ele>1346.610</ele>
        <time>2022-08-24T10:30:49Z</time>
      </trkpt>
      <trkpt lat="43.031826999999595" lon="-1.2927919999999986">
        <ele>1346.653</ele>
        <time>2022-08-24T10:30:50Z</time>
      </trkpt>
      <trkpt lat="43.03182499999959" lon="-1.2928029999999986">
        <ele>1346.867</ele>
        <time>2022-08-24T10:30:51Z</time>
      </trkpt>
      <trkpt lat="43.03182199999959" lon="-1.2928199999999985">
        <ele>1347.246</ele>
        <time>2022-08-24T10:30:52Z</time>
      </trkpt>
      <trkpt lat="43.031817999999596" lon="-1.2928329999999986">
        <ele>1347.264</ele>
        <time>2022-08-24T10:30:53Z</time>
      </trkpt>
      <trkpt lat="43.0318119999996" lon="-1.2928419999999985">
        <ele>1347.406</ele>
        <time>2022-08-24T10:30:54Z</time>
      </trkpt>
      <trkpt lat="43.031806999999596" lon="-1.2928519999999986">
        <ele>1347.616</ele>
        <time>2022-08-24T10:30:55Z</time>
      </trkpt>
      <trkpt lat="43.0317979999996" lon="-1.2928579999999985">
        <ele>1347.809</ele>
        <time>2022-08-24T10:30:56Z</time>
      </trkpt>
      <trkpt lat="43.031787999999594" lon="-1.2928649999999986">
        <ele>1348.067</ele>
        <time>2022-08-24T10:30:57Z</time>
      </trkpt>
      <trkpt lat="43.031781999999595" lon="-1.2928759999999986">
        <ele>1348.017</ele>
        <time>2022-08-24T10:30:58Z</time>
      </trkpt>
      <trkpt lat="43.0317779999996" lon="-1.2928799999999985">
        <ele>1348.227</ele>
        <time>2022-08-24T10:30:59Z</time>
      </trkpt>
      <trkpt lat="43.031772999999596" lon="-1.2928889999999984">
        <ele>1348.223</ele>
        <time>2022-08-24T10:31:00Z</time>
      </trkpt>
      <trkpt lat="43.0317669999996" lon="-1.2928959999999985">
        <ele>1348.445</ele>
        <time>2022-08-24T10:31:01Z</time>
      </trkpt>
      <trkpt lat="43.031758999999596" lon="-1.2929099999999984">
        <ele>1348.462</ele>
        <time>2022-08-24T10:31:02Z</time>
      </trkpt>
      <trkpt lat="43.0317519999996" lon="-1.2929199999999985">
        <ele>1348.635</ele>
        <time>2022-08-24T10:31:03Z</time>
      </trkpt>
      <trkpt lat="43.031741999999596" lon="-1.2929299999999986">
        <ele>1349.069</ele>
        <time>2022-08-24T10:31:04Z</time>
      </trkpt>
      <trkpt lat="43.031733999999595" lon="-1.2929359999999985">
        <ele>1349.098</ele>
        <time>2022-08-24T10:31:05Z</time>
      </trkpt>
      <trkpt lat="43.031728999999594" lon="-1.2929449999999985">
        <ele>1349.224</ele>
        <time>2022-08-24T10:31:06Z</time>
      </trkpt>
      <trkpt lat="43.031719999999595" lon="-1.2929479999999984">
        <ele>1349.204</ele>
        <time>2022-08-24T10:31:07Z</time>
      </trkpt>
      <trkpt lat="43.0317159999996" lon="-1.2929549999999985">
        <ele>1349.414</ele>
        <time>2022-08-24T10:31:08Z</time>
      </trkpt>
      <trkpt lat="43.031713999999596" lon="-1.2929629999999985">
        <ele>1349.609</ele>
        <time>2022-08-24T10:31:09Z</time>
      </trkpt>
      <trkpt lat="43.0317129999996" lon="-1.2929749999999984">
        <ele>1349.893</ele>
        <time>2022-08-24T10:31:10Z</time>
      </trkpt>
      <trkpt lat="43.0317089999996" lon="-1.2929819999999985">
        <ele>1349.873</ele>
        <time>2022-08-24T10:31:11Z</time>
      </trkpt>
      <trkpt lat="43.0317029999996" lon="-1.2929889999999986">
        <ele>1350.023</ele>
        <time>2022-08-24T10:31:12Z</time>
      </trkpt>
      <trkpt lat="43.0316949999996" lon="-1.2929949999999986">
        <ele>1350.299</ele>
        <time>2022-08-24T10:31:13Z</time>
      </trkpt>
      <trkpt lat="43.0316889999996" lon="-1.2930029999999986">
        <ele>1350.261</ele>
        <time>2022-08-24T10:31:14Z</time>
      </trkpt>
      <trkpt lat="43.031679999999604" lon="-1.2930109999999986">
        <ele>1350.238</ele>
        <time>2022-08-24T10:31:15Z</time>
      </trkpt>
      <trkpt lat="43.0316669999996" lon="-1.2930159999999986">
        <ele>1350.421</ele>
        <time>2022-08-24T10:31:16Z</time>
      </trkpt>
      <trkpt lat="43.0316589999996" lon="-1.2930249999999985">
        <ele>1350.445</ele>
        <time>2022-08-24T10:31:17Z</time>
      </trkpt>
      <trkpt lat="43.0316529999996" lon="-1.2930339999999985">
        <ele>1350.664</ele>
        <time>2022-08-24T10:31:18Z</time>
      </trkpt>
      <trkpt lat="43.0316479999996" lon="-1.2930419999999985">
        <ele>1350.633</ele>
        <time>2022-08-24T10:31:19Z</time>
      </trkpt>
      <trkpt lat="43.0316439999996" lon="-1.2930489999999986">
        <ele>1350.623</ele>
        <time>2022-08-24T10:31:20Z</time>
      </trkpt>
      <trkpt lat="43.0316339999996" lon="-1.2930579999999985">
        <ele>1350.815</ele>
        <time>2022-08-24T10:31:21Z</time>
      </trkpt>
      <trkpt lat="43.0316259999996" lon="-1.2930669999999984">
        <ele>1350.809</ele>
        <time>2022-08-24T10:31:22Z</time>
      </trkpt>
      <trkpt lat="43.031620999999596" lon="-1.2930769999999985">
        <ele>1351.044</ele>
        <time>2022-08-24T10:31:23Z</time>
      </trkpt>
      <trkpt lat="43.0316139999996" lon="-1.2930869999999985">
        <ele>1351.254</ele>
        <time>2022-08-24T10:31:24Z</time>
      </trkpt>
      <trkpt lat="43.0316089999996" lon="-1.2930959999999985">
        <ele>1351.414</ele>
        <time>2022-08-24T10:31:25Z</time>
      </trkpt>
      <trkpt lat="43.0316039999996" lon="-1.2931029999999986">
        <ele>1351.430</ele>
        <time>2022-08-24T10:31:26Z</time>
      </trkpt>
      <trkpt lat="43.0315979999996" lon="-1.2931129999999986">
        <ele>1351.632</ele>
        <time>2022-08-24T10:31:27Z</time>
      </trkpt>
      <trkpt lat="43.0315909999996" lon="-1.2931239999999986">
        <ele>1351.659</ele>
        <time>2022-08-24T10:31:28Z</time>
      </trkpt>
      <trkpt lat="43.0315849999996" lon="-1.2931369999999986">
        <ele>1351.822</ele>
        <time>2022-08-24T10:31:29Z</time>
      </trkpt>
      <trkpt lat="43.0315769999996" lon="-1.2931499999999987">
        <ele>1352.066</ele>
        <time>2022-08-24T10:31:30Z</time>
      </trkpt>
      <trkpt lat="43.031572999999604" lon="-1.2931659999999987">
        <ele>1352.035</ele>
        <time>2022-08-24T10:31:31Z</time>
      </trkpt>
      <trkpt lat="43.0315679999996" lon="-1.2931799999999987">
        <ele>1352.216</ele>
        <time>2022-08-24T10:31:32Z</time>
      </trkpt>
      <trkpt lat="43.031560999999606" lon="-1.2931909999999986">
        <ele>1352.276</ele>
        <time>2022-08-24T10:31:33Z</time>
      </trkpt>
      <trkpt lat="43.03155399999961" lon="-1.2932019999999986">
        <ele>1352.413</ele>
        <time>2022-08-24T10:31:34Z</time>
      </trkpt>
      <trkpt lat="43.03154799999961" lon="-1.2932109999999986">
        <ele>1352.409</ele>
        <time>2022-08-24T10:31:35Z</time>
      </trkpt>
      <trkpt lat="43.03153999999961" lon="-1.2932169999999985">
        <ele>1352.472</ele>
        <time>2022-08-24T10:31:36Z</time>
      </trkpt>
      <trkpt lat="43.03153399999961" lon="-1.2932289999999984">
        <ele>1352.422</ele>
        <time>2022-08-24T10:31:37Z</time>
      </trkpt>
      <trkpt lat="43.03152999999961" lon="-1.2932439999999985">
        <ele>1352.472</ele>
        <time>2022-08-24T10:31:38Z</time>
      </trkpt>
      <trkpt lat="43.03152499999961" lon="-1.2932549999999985">
        <ele>1352.698</ele>
        <time>2022-08-24T10:31:39Z</time>
      </trkpt>
      <trkpt lat="43.03151599999961" lon="-1.2932639999999984">
        <ele>1352.670</ele>
        <time>2022-08-24T10:31:40Z</time>
      </trkpt>
      <trkpt lat="43.031506999999614" lon="-1.2932709999999985">
        <ele>1352.667</ele>
        <time>2022-08-24T10:31:41Z</time>
      </trkpt>
      <trkpt lat="43.031497999999615" lon="-1.2932779999999986">
        <ele>1352.840</ele>
        <time>2022-08-24T10:31:42Z</time>
      </trkpt>
      <trkpt lat="43.03149099999962" lon="-1.2932849999999987">
        <ele>1352.884</ele>
        <time>2022-08-24T10:31:43Z</time>
      </trkpt>
      <trkpt lat="43.031480999999616" lon="-1.2932929999999987">
        <ele>1353.083</ele>
        <time>2022-08-24T10:31:44Z</time>
      </trkpt>
      <trkpt lat="43.03147399999962" lon="-1.2933019999999986">
        <ele>1353.039</ele>
        <time>2022-08-24T10:31:45Z</time>
      </trkpt>
      <trkpt lat="43.03146099999962" lon="-1.2933189999999986">
        <ele>1353.401</ele>
        <time>2022-08-24T10:31:47Z</time>
      </trkpt>
      <trkpt lat="43.031449999999616" lon="-1.2933229999999984">
        <ele>1353.621</ele>
        <time>2022-08-24T10:31:48Z</time>
      </trkpt>
      <trkpt lat="43.031441999999615" lon="-1.2933319999999984">
        <ele>1353.609</ele>
        <time>2022-08-24T10:31:49Z</time>
      </trkpt>
      <trkpt lat="43.03142999999962" lon="-1.2933509999999984">
        <ele>1353.874</ele>
        <time>2022-08-24T10:31:51Z</time>
      </trkpt>
      <trkpt lat="43.03141299999962" lon="-1.2933749999999984">
        <ele>1353.864</ele>
        <time>2022-08-24T10:31:53Z</time>
      </trkpt>
      <trkpt lat="43.03140399999962" lon="-1.2933839999999983">
        <ele>1354.024</ele>
        <time>2022-08-24T10:31:54Z</time>
      </trkpt>
      <trkpt lat="43.03139599999962" lon="-1.2933939999999984">
        <ele>1354.060</ele>
        <time>2022-08-24T10:31:55Z</time>
      </trkpt>
      <trkpt lat="43.031371999999614" lon="-1.2934179999999984">
        <ele>1354.252</ele>
        <time>2022-08-24T10:31:58Z</time>
      </trkpt>
      <trkpt lat="43.03136699999961" lon="-1.2934269999999983">
        <ele>1354.429</ele>
        <time>2022-08-24T10:31:59Z</time>
      </trkpt>
      <trkpt lat="43.03132499999961" lon="-1.2934709999999983">
        <ele>1354.872</ele>
        <time>2022-08-24T10:32:04Z</time>
      </trkpt>
      <trkpt lat="43.031317999999615" lon="-1.2934769999999982">
        <ele>1355.046</ele>
        <time>2022-08-24T10:32:05Z</time>
      </trkpt>
      <trkpt lat="43.03131099999962" lon="-1.2934849999999982">
        <ele>1355.045</ele>
        <time>2022-08-24T10:32:06Z</time>
      </trkpt>
      <trkpt lat="43.03128999999962" lon="-1.2935059999999983">
        <ele>1355.272</ele>
        <time>2022-08-24T10:32:08Z</time>
      </trkpt>
      <trkpt lat="43.031229999999624" lon="-1.2935689999999982">
        <ele>1355.813</ele>
        <time>2022-08-24T10:32:15Z</time>
      </trkpt>
      <trkpt lat="43.03117199999962" lon="-1.2936169999999982">
        <ele>1356.214</ele>
        <time>2022-08-24T10:32:20Z</time>
      </trkpt>
      <trkpt lat="43.03116099999962" lon="-1.2936279999999982">
        <ele>1356.409</ele>
        <time>2022-08-24T10:32:21Z</time>
      </trkpt>
      <trkpt lat="43.03114099999962" lon="-1.2936509999999983">
        <ele>1356.488</ele>
        <time>2022-08-24T10:32:23Z</time>
      </trkpt>
      <trkpt lat="43.03105499999962" lon="-1.2937449999999984">
        <ele>1357.288</ele>
        <time>2022-08-24T10:32:31Z</time>
      </trkpt>
      <trkpt lat="43.03101599999962" lon="-1.2937869999999985">
        <ele>1357.478</ele>
        <time>2022-08-24T10:32:33Z</time>
      </trkpt>
      <trkpt lat="43.03096799999962" lon="-1.2938479999999986">
        <ele>1357.684</ele>
        <time>2022-08-24T10:32:36Z</time>
      </trkpt>
      <trkpt lat="43.030954999999615" lon="-1.2938689999999986">
        <ele>1357.646</ele>
        <time>2022-08-24T10:32:37Z</time>
      </trkpt>
      <trkpt lat="43.030940999999615" lon="-1.2938949999999987">
        <ele>1357.883</ele>
        <time>2022-08-24T10:32:38Z</time>
      </trkpt>
      <trkpt lat="43.03092899999962" lon="-1.2939159999999987">
        <ele>1358.076</ele>
        <time>2022-08-24T10:32:39Z</time>
      </trkpt>
      <trkpt lat="43.03091399999962" lon="-1.2939349999999987">
        <ele>1358.050</ele>
        <time>2022-08-24T10:32:40Z</time>
      </trkpt>
      <trkpt lat="43.03090199999962" lon="-1.2939499999999988">
        <ele>1358.269</ele>
        <time>2022-08-24T10:32:41Z</time>
      </trkpt>
      <trkpt lat="43.030869999999624" lon="-1.294026999999999">
        <ele>1358.432</ele>
        <time>2022-08-24T10:32:44Z</time>
      </trkpt>
      <trkpt lat="43.030854999999626" lon="-1.294076999999999">
        <ele>1358.492</ele>
        <time>2022-08-24T10:32:46Z</time>
      </trkpt>
      <trkpt lat="43.03083199999963" lon="-1.294238999999999">
        <ele>1359.011</ele>
        <time>2022-08-24T10:32:51Z</time>
      </trkpt>
      <trkpt lat="43.030829999999625" lon="-1.294278999999999">
        <ele>1359.409</ele>
        <time>2022-08-24T10:32:52Z</time>
      </trkpt>
      <trkpt lat="43.03082299999963" lon="-1.294354999999999">
        <ele>1359.664</ele>
        <time>2022-08-24T10:32:54Z</time>
      </trkpt>
      <trkpt lat="43.03081799999963" lon="-1.294385999999999">
        <ele>1359.654</ele>
        <time>2022-08-24T10:32:55Z</time>
      </trkpt>
      <trkpt lat="43.03081399999963" lon="-1.294417999999999">
        <ele>1359.694</ele>
        <time>2022-08-24T10:32:56Z</time>
      </trkpt>
      <trkpt lat="43.03081099999963" lon="-1.294447999999999">
        <ele>1359.630</ele>
        <time>2022-08-24T10:32:57Z</time>
      </trkpt>
      <trkpt lat="43.03080899999963" lon="-1.2944729999999989">
        <ele>1359.852</ele>
        <time>2022-08-24T10:32:58Z</time>
      </trkpt>
      <trkpt lat="43.03080499999963" lon="-1.294512999999999">
        <ele>1359.859</ele>
        <time>2022-08-24T10:32:59Z</time>
      </trkpt>
      <trkpt lat="43.030800999999634" lon="-1.294544999999999">
        <ele>1359.682</ele>
        <time>2022-08-24T10:33:00Z</time>
      </trkpt>
      <trkpt lat="43.030794999999635" lon="-1.294571999999999">
        <ele>1359.656</ele>
        <time>2022-08-24T10:33:01Z</time>
      </trkpt>
      <trkpt lat="43.03079299999963" lon="-1.2945919999999989">
        <ele>1359.675</ele>
        <time>2022-08-24T10:33:02Z</time>
      </trkpt>
      <trkpt lat="43.030788999999636" lon="-1.2946139999999988">
        <ele>1359.653</ele>
        <time>2022-08-24T10:33:03Z</time>
      </trkpt>
      <trkpt lat="43.030777999999636" lon="-1.2946689999999987">
        <ele>1359.404</ele>
        <time>2022-08-24T10:33:05Z</time>
      </trkpt>
      <trkpt lat="43.03075699999964" lon="-1.2947439999999988">
        <ele>1359.414</ele>
        <time>2022-08-24T10:33:08Z</time>
      </trkpt>
      <trkpt lat="43.03074899999964" lon="-1.2947709999999988">
        <ele>1359.609</ele>
        <time>2022-08-24T10:33:09Z</time>
      </trkpt>
      <trkpt lat="43.03074199999964" lon="-1.2947949999999988">
        <ele>1359.676</ele>
        <time>2022-08-24T10:33:10Z</time>
      </trkpt>
      <trkpt lat="43.030734999999645" lon="-1.294817999999999">
        <ele>1359.676</ele>
        <time>2022-08-24T10:33:11Z</time>
      </trkpt>
      <trkpt lat="43.03073099999965" lon="-1.294838999999999">
        <ele>1359.646</ele>
        <time>2022-08-24T10:33:12Z</time>
      </trkpt>
      <trkpt lat="43.03072199999965" lon="-1.2948699999999989">
        <ele>1359.842</ele>
        <time>2022-08-24T10:33:13Z</time>
      </trkpt>
      <trkpt lat="43.030697999999646" lon="-1.2949679999999988">
        <ele>1360.094</ele>
        <time>2022-08-24T10:33:17Z</time>
      </trkpt>
      <trkpt lat="43.030695999999644" lon="-1.2949889999999988">
        <ele>1360.441</ele>
        <time>2022-08-24T10:33:18Z</time>
      </trkpt>
      <trkpt lat="43.030697999999646" lon="-1.295006999999999">
        <ele>1360.614</ele>
        <time>2022-08-24T10:33:19Z</time>
      </trkpt>
      <trkpt lat="43.03069199999965" lon="-1.295024999999999">
        <ele>1360.898</ele>
        <time>2022-08-24T10:33:20Z</time>
      </trkpt>
      <trkpt lat="43.030683999999646" lon="-1.295044999999999">
        <ele>1361.077</ele>
        <time>2022-08-24T10:33:21Z</time>
      </trkpt>
      <trkpt lat="43.03067399999964" lon="-1.295060999999999">
        <ele>1361.082</ele>
        <time>2022-08-24T10:33:22Z</time>
      </trkpt>
      <trkpt lat="43.030661999999644" lon="-1.2950809999999988">
        <ele>1361.243</ele>
        <time>2022-08-24T10:33:23Z</time>
      </trkpt>
      <trkpt lat="43.03064899999964" lon="-1.2950999999999988">
        <ele>1361.217</ele>
        <time>2022-08-24T10:33:24Z</time>
      </trkpt>
      <trkpt lat="43.03062399999964" lon="-1.2951359999999987">
        <ele>1361.409</ele>
        <time>2022-08-24T10:33:26Z</time>
      </trkpt>
      <trkpt lat="43.03060999999964" lon="-1.2951509999999988">
        <ele>1361.659</ele>
        <time>2022-08-24T10:33:27Z</time>
      </trkpt>
      <trkpt lat="43.03045499999964" lon="-1.295319999999999">
        <ele>1361.829</ele>
        <time>2022-08-24T10:33:36Z</time>
      </trkpt>
      <trkpt lat="43.03035299999964" lon="-1.295470999999999">
        <ele>1361.849</ele>
        <time>2022-08-24T10:33:42Z</time>
      </trkpt>
      <trkpt lat="43.03018799999964" lon="-1.2957529999999988">
        <ele>1361.285</ele>
        <time>2022-08-24T10:33:50Z</time>
      </trkpt>
      <trkpt lat="43.03016399999964" lon="-1.295786999999999">
        <ele>1361.097</ele>
        <time>2022-08-24T10:33:51Z</time>
      </trkpt>
      <trkpt lat="43.030121999999636" lon="-1.295851999999999">
        <ele>1361.084</ele>
        <time>2022-08-24T10:33:53Z</time>
      </trkpt>
      <trkpt lat="43.03007599999964" lon="-1.295907999999999">
        <ele>1361.037</ele>
        <time>2022-08-24T10:33:55Z</time>
      </trkpt>
      <trkpt lat="43.03005299999964" lon="-1.295933999999999">
        <ele>1361.041</ele>
        <time>2022-08-24T10:33:56Z</time>
      </trkpt>
      <trkpt lat="43.03003199999964" lon="-1.295958999999999">
        <ele>1361.090</ele>
        <time>2022-08-24T10:33:57Z</time>
      </trkpt>
      <trkpt lat="43.03001099999965" lon="-1.295980999999999">
        <ele>1361.034</ele>
        <time>2022-08-24T10:33:58Z</time>
      </trkpt>
      <trkpt lat="43.02999399999965" lon="-1.295995999999999">
        <ele>1361.055</ele>
        <time>2022-08-24T10:33:59Z</time>
      </trkpt>
      <trkpt lat="43.029971999999646" lon="-1.296017999999999">
        <ele>1361.010</ele>
        <time>2022-08-24T10:34:00Z</time>
      </trkpt>
      <trkpt lat="43.02995399999965" lon="-1.296035999999999">
        <ele>1361.009</ele>
        <time>2022-08-24T10:34:01Z</time>
      </trkpt>
      <trkpt lat="43.02993399999965" lon="-1.296047999999999">
        <ele>1361.024</ele>
        <time>2022-08-24T10:34:02Z</time>
      </trkpt>
      <trkpt lat="43.02991399999965" lon="-1.296056999999999">
        <ele>1361.294</ele>
        <time>2022-08-24T10:34:03Z</time>
      </trkpt>
      <trkpt lat="43.02989799999965" lon="-1.296066999999999">
        <ele>1361.264</ele>
        <time>2022-08-24T10:34:04Z</time>
      </trkpt>
      <trkpt lat="43.02988299999965" lon="-1.2960789999999989">
        <ele>1361.240</ele>
        <time>2022-08-24T10:34:05Z</time>
      </trkpt>
      <trkpt lat="43.02986899999965" lon="-1.2960909999999988">
        <ele>1361.492</ele>
        <time>2022-08-24T10:34:06Z</time>
      </trkpt>
      <trkpt lat="43.02985699999965" lon="-1.2961019999999988">
        <ele>1361.639</ele>
        <time>2022-08-24T10:34:07Z</time>
      </trkpt>
      <trkpt lat="43.02984299999965" lon="-1.2961109999999987">
        <ele>1361.872</ele>
        <time>2022-08-24T10:34:08Z</time>
      </trkpt>
      <trkpt lat="43.02982899999965" lon="-1.2961229999999986">
        <ele>1362.046</ele>
        <time>2022-08-24T10:34:09Z</time>
      </trkpt>
      <trkpt lat="43.02981699999965" lon="-1.2961339999999986">
        <ele>1362.035</ele>
        <time>2022-08-24T10:34:10Z</time>
      </trkpt>
      <trkpt lat="43.02976099999965" lon="-1.2961559999999985">
        <ele>1362.453</ele>
        <time>2022-08-24T10:34:13Z</time>
      </trkpt>
      <trkpt lat="43.029745999999655" lon="-1.2961599999999984">
        <ele>1362.404</ele>
        <time>2022-08-24T10:34:14Z</time>
      </trkpt>
      <trkpt lat="43.02973299999965" lon="-1.2961619999999985">
        <ele>1362.814</ele>
        <time>2022-08-24T10:34:15Z</time>
      </trkpt>
      <trkpt lat="43.029717999999654" lon="-1.2961639999999985">
        <ele>1363.009</ele>
        <time>2022-08-24T10:34:16Z</time>
      </trkpt>
      <trkpt lat="43.029703999999654" lon="-1.2961659999999986">
        <ele>1363.046</ele>
        <time>2022-08-24T10:34:17Z</time>
      </trkpt>
      <trkpt lat="43.029658999999654" lon="-1.2961689999999986">
        <ele>1363.836</ele>
        <time>2022-08-24T10:34:20Z</time>
      </trkpt>
      <trkpt lat="43.029638999999655" lon="-1.2961669999999985">
        <ele>1364.066</ele>
        <time>2022-08-24T10:34:21Z</time>
      </trkpt>
      <trkpt lat="43.02962399999966" lon="-1.2961649999999985">
        <ele>1364.422</ele>
        <time>2022-08-24T10:34:22Z</time>
      </trkpt>
      <trkpt lat="43.02960999999966" lon="-1.2961659999999984">
        <ele>1364.814</ele>
        <time>2022-08-24T10:34:23Z</time>
      </trkpt>
      <trkpt lat="43.02959599999966" lon="-1.2961669999999983">
        <ele>1364.811</ele>
        <time>2022-08-24T10:34:24Z</time>
      </trkpt>
      <trkpt lat="43.02958199999966" lon="-1.2961699999999983">
        <ele>1365.024</ele>
        <time>2022-08-24T10:34:25Z</time>
      </trkpt>
      <trkpt lat="43.02956699999966" lon="-1.2961719999999983">
        <ele>1365.228</ele>
        <time>2022-08-24T10:34:26Z</time>
      </trkpt>
      <trkpt lat="43.029553999999656" lon="-1.2961749999999983">
        <ele>1365.477</ele>
        <time>2022-08-24T10:34:27Z</time>
      </trkpt>
      <trkpt lat="43.029539999999656" lon="-1.2961759999999982">
        <ele>1365.647</ele>
        <time>2022-08-24T10:34:28Z</time>
      </trkpt>
      <trkpt lat="43.029523999999654" lon="-1.2961709999999982">
        <ele>1365.829</ele>
        <time>2022-08-24T10:34:29Z</time>
      </trkpt>
      <trkpt lat="43.029509999999654" lon="-1.2961709999999982">
        <ele>1366.021</ele>
        <time>2022-08-24T10:34:30Z</time>
      </trkpt>
      <trkpt lat="43.029494999999656" lon="-1.2961709999999982">
        <ele>1366.009</ele>
        <time>2022-08-24T10:34:31Z</time>
      </trkpt>
      <trkpt lat="43.02947999999966" lon="-1.2961699999999983">
        <ele>1366.295</ele>
        <time>2022-08-24T10:34:32Z</time>
      </trkpt>
      <trkpt lat="43.029469999999655" lon="-1.2961699999999983">
        <ele>1366.475</ele>
        <time>2022-08-24T10:34:33Z</time>
      </trkpt>
      <trkpt lat="43.029455999999655" lon="-1.2961699999999983">
        <ele>1366.685</ele>
        <time>2022-08-24T10:34:34Z</time>
      </trkpt>
      <trkpt lat="43.02943799999966" lon="-1.2961709999999982">
        <ele>1366.611</ele>
        <time>2022-08-24T10:34:35Z</time>
      </trkpt>
      <trkpt lat="43.02942399999966" lon="-1.296174999999998">
        <ele>1366.623</ele>
        <time>2022-08-24T10:34:36Z</time>
      </trkpt>
      <trkpt lat="43.029410999999655" lon="-1.296177999999998">
        <ele>1366.840</ele>
        <time>2022-08-24T10:34:37Z</time>
      </trkpt>
      <trkpt lat="43.029399999999654" lon="-1.296180999999998">
        <ele>1366.823</ele>
        <time>2022-08-24T10:34:38Z</time>
      </trkpt>
      <trkpt lat="43.029390999999656" lon="-1.296184999999998">
        <ele>1366.857</ele>
        <time>2022-08-24T10:34:39Z</time>
      </trkpt>
      <trkpt lat="43.02938099999965" lon="-1.2961889999999978">
        <ele>1366.846</ele>
        <time>2022-08-24T10:34:40Z</time>
      </trkpt>
      <trkpt lat="43.029368999999654" lon="-1.2961909999999979">
        <ele>1367.049</ele>
        <time>2022-08-24T10:34:41Z</time>
      </trkpt>
      <trkpt lat="43.02935599999965" lon="-1.2961889999999978">
        <ele>1367.202</ele>
        <time>2022-08-24T10:34:42Z</time>
      </trkpt>
      <trkpt lat="43.02934299999965" lon="-1.2961869999999978">
        <ele>1367.422</ele>
        <time>2022-08-24T10:34:43Z</time>
      </trkpt>
      <trkpt lat="43.02932799999965" lon="-1.2961869999999978">
        <ele>1367.409</ele>
        <time>2022-08-24T10:34:44Z</time>
      </trkpt>
      <trkpt lat="43.02931399999965" lon="-1.2961889999999978">
        <ele>1367.445</ele>
        <time>2022-08-24T10:34:45Z</time>
      </trkpt>
      <trkpt lat="43.02930199999965" lon="-1.2961919999999978">
        <ele>1367.695</ele>
        <time>2022-08-24T10:34:46Z</time>
      </trkpt>
      <trkpt lat="43.02928899999965" lon="-1.2961979999999977">
        <ele>1367.655</ele>
        <time>2022-08-24T10:34:47Z</time>
      </trkpt>
      <trkpt lat="43.02927299999965" lon="-1.2961969999999978">
        <ele>1367.671</ele>
        <time>2022-08-24T10:34:48Z</time>
      </trkpt>
      <trkpt lat="43.02925899999965" lon="-1.2961919999999978">
        <ele>1367.843</ele>
        <time>2022-08-24T10:34:49Z</time>
      </trkpt>
      <trkpt lat="43.02924799999965" lon="-1.296187999999998">
        <ele>1367.870</ele>
        <time>2022-08-24T10:34:50Z</time>
      </trkpt>
      <trkpt lat="43.02923699999965" lon="-1.296186999999998">
        <ele>1368.033</ele>
        <time>2022-08-24T10:34:51Z</time>
      </trkpt>
      <trkpt lat="43.02921899999965" lon="-1.296186999999998">
        <ele>1368.087</ele>
        <time>2022-08-24T10:34:52Z</time>
      </trkpt>
      <trkpt lat="43.02920399999965" lon="-1.296186999999998">
        <ele>1368.296</ele>
        <time>2022-08-24T10:34:53Z</time>
      </trkpt>
      <trkpt lat="43.029188999999654" lon="-1.296181999999998">
        <ele>1368.225</ele>
        <time>2022-08-24T10:34:54Z</time>
      </trkpt>
      <trkpt lat="43.02917399999966" lon="-1.296180999999998">
        <ele>1368.426</ele>
        <time>2022-08-24T10:34:55Z</time>
      </trkpt>
      <trkpt lat="43.029157999999654" lon="-1.2961799999999981">
        <ele>1368.608</ele>
        <time>2022-08-24T10:34:56Z</time>
      </trkpt>
      <trkpt lat="43.02914199999965" lon="-1.2961769999999981">
        <ele>1368.809</ele>
        <time>2022-08-24T10:34:57Z</time>
      </trkpt>
      <trkpt lat="43.029126999999654" lon="-1.2961759999999982">
        <ele>1368.863</ele>
        <time>2022-08-24T10:34:58Z</time>
      </trkpt>
      <trkpt lat="43.02910899999966" lon="-1.2961709999999982">
        <ele>1368.863</ele>
        <time>2022-08-24T10:34:59Z</time>
      </trkpt>
      <trkpt lat="43.02909799999966" lon="-1.2961669999999983">
        <ele>1369.073</ele>
        <time>2022-08-24T10:35:00Z</time>
      </trkpt>
      <trkpt lat="43.02908099999966" lon="-1.2961609999999983">
        <ele>1369.039</ele>
        <time>2022-08-24T10:35:01Z</time>
      </trkpt>
      <trkpt lat="43.029064999999655" lon="-1.2961589999999983">
        <ele>1369.251</ele>
        <time>2022-08-24T10:35:02Z</time>
      </trkpt>
      <trkpt lat="43.02904899999965" lon="-1.2961529999999983">
        <ele>1369.258</ele>
        <time>2022-08-24T10:35:03Z</time>
      </trkpt>
      <trkpt lat="43.029036999999654" lon="-1.2961459999999982">
        <ele>1369.271</ele>
        <time>2022-08-24T10:35:04Z</time>
      </trkpt>
      <trkpt lat="43.02902099999965" lon="-1.2961389999999982">
        <ele>1369.255</ele>
        <time>2022-08-24T10:35:05Z</time>
      </trkpt>
      <trkpt lat="43.02900499999965" lon="-1.2961349999999983">
        <ele>1369.434</ele>
        <time>2022-08-24T10:35:06Z</time>
      </trkpt>
      <trkpt lat="43.02898199999965" lon="-1.2961299999999982">
        <ele>1369.488</ele>
        <time>2022-08-24T10:35:07Z</time>
      </trkpt>
      <trkpt lat="43.028963999999654" lon="-1.2961249999999982">
        <ele>1369.424</ele>
        <time>2022-08-24T10:35:08Z</time>
      </trkpt>
      <trkpt lat="43.02894799999965" lon="-1.2961219999999982">
        <ele>1369.426</ele>
        <time>2022-08-24T10:35:09Z</time>
      </trkpt>
      <trkpt lat="43.02892799999965" lon="-1.2961189999999982">
        <ele>1369.409</ele>
        <time>2022-08-24T10:35:10Z</time>
      </trkpt>
      <trkpt lat="43.02891099999965" lon="-1.2961149999999984">
        <ele>1369.439</ele>
        <time>2022-08-24T10:35:11Z</time>
      </trkpt>
      <trkpt lat="43.02888899999965" lon="-1.2961079999999983">
        <ele>1369.449</ele>
        <time>2022-08-24T10:35:12Z</time>
      </trkpt>
      <trkpt lat="43.02886999999965" lon="-1.2961029999999982">
        <ele>1369.459</ele>
        <time>2022-08-24T10:35:13Z</time>
      </trkpt>
      <trkpt lat="43.02885299999965" lon="-1.2960979999999982">
        <ele>1369.425</ele>
        <time>2022-08-24T10:35:14Z</time>
      </trkpt>
      <trkpt lat="43.02883899999965" lon="-1.2960949999999982">
        <ele>1369.427</ele>
        <time>2022-08-24T10:35:15Z</time>
      </trkpt>
      <trkpt lat="43.02878099999965" lon="-1.2960749999999983">
        <ele>1369.634</ele>
        <time>2022-08-24T10:35:18Z</time>
      </trkpt>
      <trkpt lat="43.02876299999965" lon="-1.2960699999999983">
        <ele>1369.657</ele>
        <time>2022-08-24T10:35:19Z</time>
      </trkpt>
      <trkpt lat="43.02871299999965" lon="-1.2960519999999982">
        <ele>1370.011</ele>
        <time>2022-08-24T10:35:22Z</time>
      </trkpt>
      <trkpt lat="43.028696999999646" lon="-1.2960459999999983">
        <ele>1370.020</ele>
        <time>2022-08-24T10:35:23Z</time>
      </trkpt>
      <trkpt lat="43.028660999999644" lon="-1.2960339999999984">
        <ele>1370.255</ele>
        <time>2022-08-24T10:35:25Z</time>
      </trkpt>
      <trkpt lat="43.02863999999965" lon="-1.2960259999999983">
        <ele>1370.407</ele>
        <time>2022-08-24T10:35:26Z</time>
      </trkpt>
      <trkpt lat="43.02850699999965" lon="-1.2959719999999983">
        <ele>1370.817</ele>
        <time>2022-08-24T10:35:33Z</time>
      </trkpt>
      <trkpt lat="43.02848699999965" lon="-1.2959619999999983">
        <ele>1370.609</ele>
        <time>2022-08-24T10:35:34Z</time>
      </trkpt>
      <trkpt lat="43.02827599999965" lon="-1.2958879999999984">
        <ele>1370.826</ele>
        <time>2022-08-24T10:35:42Z</time>
      </trkpt>
      <trkpt lat="43.02824999999965" lon="-1.2958769999999984">
        <ele>1370.836</ele>
        <time>2022-08-24T10:35:43Z</time>
      </trkpt>
      <trkpt lat="43.02822599999965" lon="-1.2958629999999984">
        <ele>1370.896</ele>
        <time>2022-08-24T10:35:44Z</time>
      </trkpt>
      <trkpt lat="43.02820099999965" lon="-1.2958499999999984">
        <ele>1370.842</ele>
        <time>2022-08-24T10:35:45Z</time>
      </trkpt>
      <trkpt lat="43.02817499999965" lon="-1.2958379999999985">
        <ele>1370.864</ele>
        <time>2022-08-24T10:35:46Z</time>
      </trkpt>
      <trkpt lat="43.02814999999965" lon="-1.2958269999999985">
        <ele>1371.081</ele>
        <time>2022-08-24T10:35:47Z</time>
      </trkpt>
      <trkpt lat="43.028125999999645" lon="-1.2958179999999986">
        <ele>1370.844</ele>
        <time>2022-08-24T10:35:48Z</time>
      </trkpt>
      <trkpt lat="43.027965999999644" lon="-1.2957299999999985">
        <ele>1370.848</ele>
        <time>2022-08-24T10:35:54Z</time>
      </trkpt>
      <trkpt lat="43.02791299999964" lon="-1.2957009999999984">
        <ele>1370.477</ele>
        <time>2022-08-24T10:35:56Z</time>
      </trkpt>
      <trkpt lat="43.02788799999964" lon="-1.2956889999999985">
        <ele>1370.416</ele>
        <time>2022-08-24T10:35:57Z</time>
      </trkpt>
      <trkpt lat="43.02786499999964" lon="-1.2956759999999985">
        <ele>1370.476</ele>
        <time>2022-08-24T10:35:58Z</time>
      </trkpt>
      <trkpt lat="43.02783999999964" lon="-1.2956649999999985">
        <ele>1370.213</ele>
        <time>2022-08-24T10:35:59Z</time>
      </trkpt>
      <trkpt lat="43.02776799999964" lon="-1.2956319999999986">
        <ele>1370.009</ele>
        <time>2022-08-24T10:36:02Z</time>
      </trkpt>
      <trkpt lat="43.02773999999964" lon="-1.2956199999999987">
        <ele>1370.032</ele>
        <time>2022-08-24T10:36:03Z</time>
      </trkpt>
      <trkpt lat="43.02771799999964" lon="-1.2956129999999986">
        <ele>1369.852</ele>
        <time>2022-08-24T10:36:04Z</time>
      </trkpt>
      <trkpt lat="43.02769799999964" lon="-1.2956049999999986">
        <ele>1369.832</ele>
        <time>2022-08-24T10:36:05Z</time>
      </trkpt>
      <trkpt lat="43.02768299999964" lon="-1.2955989999999986">
        <ele>1369.838</ele>
        <time>2022-08-24T10:36:06Z</time>
      </trkpt>
      <trkpt lat="43.027664999999644" lon="-1.2955919999999985">
        <ele>1369.850</ele>
        <time>2022-08-24T10:36:07Z</time>
      </trkpt>
      <trkpt lat="43.02764399999965" lon="-1.2955839999999985">
        <ele>1369.817</ele>
        <time>2022-08-24T10:36:08Z</time>
      </trkpt>
      <trkpt lat="43.02762399999965" lon="-1.2955769999999984">
        <ele>1369.880</ele>
        <time>2022-08-24T10:36:09Z</time>
      </trkpt>
      <trkpt lat="43.02760599999965" lon="-1.2955689999999984">
        <ele>1369.824</ele>
        <time>2022-08-24T10:36:10Z</time>
      </trkpt>
      <trkpt lat="43.02759199999965" lon="-1.2955649999999985">
        <ele>1369.823</ele>
        <time>2022-08-24T10:36:11Z</time>
      </trkpt>
      <trkpt lat="43.02757499999965" lon="-1.2955569999999985">
        <ele>1370.086</ele>
        <time>2022-08-24T10:36:12Z</time>
      </trkpt>
      <trkpt lat="43.027553999999654" lon="-1.2955479999999986">
        <ele>1370.060</ele>
        <time>2022-08-24T10:36:13Z</time>
      </trkpt>
      <trkpt lat="43.02753799999965" lon="-1.2955429999999986">
        <ele>1370.226</ele>
        <time>2022-08-24T10:36:14Z</time>
      </trkpt>
      <trkpt lat="43.02752499999965" lon="-1.2955409999999985">
        <ele>1370.209</ele>
        <time>2022-08-24T10:36:15Z</time>
      </trkpt>
      <trkpt lat="43.02751699999965" lon="-1.2955369999999986">
        <ele>1370.279</ele>
        <time>2022-08-24T10:36:16Z</time>
      </trkpt>
      <trkpt lat="43.02750599999965" lon="-1.2955309999999987">
        <ele>1370.249</ele>
        <time>2022-08-24T10:36:17Z</time>
      </trkpt>
      <trkpt lat="43.02749399999965" lon="-1.2955239999999986">
        <ele>1370.249</ele>
        <time>2022-08-24T10:36:18Z</time>
      </trkpt>
      <trkpt lat="43.027466999999646" lon="-1.2955039999999987">
        <ele>1370.225</ele>
        <time>2022-08-24T10:36:20Z</time>
      </trkpt>
      <trkpt lat="43.02741199999964" lon="-1.2954949999999987">
        <ele>1370.277</ele>
        <time>2022-08-24T10:36:23Z</time>
      </trkpt>
      <trkpt lat="43.027329999999644" lon="-1.2954719999999986">
        <ele>1370.454</ele>
        <time>2022-08-24T10:36:27Z</time>
      </trkpt>
      <trkpt lat="43.027272999999646" lon="-1.2954609999999986">
        <ele>1370.477</ele>
        <time>2022-08-24T10:36:29Z</time>
      </trkpt>
      <trkpt lat="43.02725299999965" lon="-1.2954569999999987">
        <ele>1370.431</ele>
        <time>2022-08-24T10:36:30Z</time>
      </trkpt>
      <trkpt lat="43.027238999999646" lon="-1.2954519999999987">
        <ele>1370.680</ele>
        <time>2022-08-24T10:36:31Z</time>
      </trkpt>
      <trkpt lat="43.02721499999964" lon="-1.2954429999999988">
        <ele>1370.832</ele>
        <time>2022-08-24T10:36:32Z</time>
      </trkpt>
      <trkpt lat="43.027196999999646" lon="-1.295438999999999">
        <ele>1371.092</ele>
        <time>2022-08-24T10:36:33Z</time>
      </trkpt>
      <trkpt lat="43.02717699999965" lon="-1.2954339999999989">
        <ele>1371.011</ele>
        <time>2022-08-24T10:36:34Z</time>
      </trkpt>
      <trkpt lat="43.02715899999965" lon="-1.2954259999999989">
        <ele>1371.009</ele>
        <time>2022-08-24T10:36:35Z</time>
      </trkpt>
      <trkpt lat="43.02714199999965" lon="-1.295416999999999">
        <ele>1371.064</ele>
        <time>2022-08-24T10:36:36Z</time>
      </trkpt>
      <trkpt lat="43.02712799999965" lon="-1.295407999999999">
        <ele>1371.484</ele>
        <time>2022-08-24T10:36:37Z</time>
      </trkpt>
      <trkpt lat="43.02711299999965" lon="-1.295399999999999">
        <ele>1371.864</ele>
        <time>2022-08-24T10:36:38Z</time>
      </trkpt>
      <trkpt lat="43.02709699999965" lon="-1.295390999999999">
        <ele>1371.830</ele>
        <time>2022-08-24T10:36:39Z</time>
      </trkpt>
      <trkpt lat="43.02708399999965" lon="-1.295388999999999">
        <ele>1372.072</ele>
        <time>2022-08-24T10:36:40Z</time>
      </trkpt>
      <trkpt lat="43.027070999999644" lon="-1.295385999999999">
        <ele>1372.039</ele>
        <time>2022-08-24T10:36:41Z</time>
      </trkpt>
      <trkpt lat="43.02706099999964" lon="-1.2953849999999991">
        <ele>1372.292</ele>
        <time>2022-08-24T10:36:42Z</time>
      </trkpt>
      <trkpt lat="43.02704599999964" lon="-1.2953849999999991">
        <ele>1372.256</ele>
        <time>2022-08-24T10:36:43Z</time>
      </trkpt>
      <trkpt lat="43.027028999999644" lon="-1.2953789999999992">
        <ele>1372.225</ele>
        <time>2022-08-24T10:36:44Z</time>
      </trkpt>
      <trkpt lat="43.027013999999646" lon="-1.295368999999999">
        <ele>1372.426</ele>
        <time>2022-08-24T10:36:45Z</time>
      </trkpt>
      <trkpt lat="43.026999999999646" lon="-1.295363999999999">
        <ele>1372.447</ele>
        <time>2022-08-24T10:36:46Z</time>
      </trkpt>
      <trkpt lat="43.026971999999645" lon="-1.2953659999999991">
        <ele>1372.611</ele>
        <time>2022-08-24T10:36:48Z</time>
      </trkpt>
      <trkpt lat="43.02695399999965" lon="-1.295368999999999">
        <ele>1372.809</ele>
        <time>2022-08-24T10:36:49Z</time>
      </trkpt>
      <trkpt lat="43.02693899999965" lon="-1.2953679999999992">
        <ele>1373.053</ele>
        <time>2022-08-24T10:36:50Z</time>
      </trkpt>
      <trkpt lat="43.02692299999965" lon="-1.2953649999999992">
        <ele>1373.253</ele>
        <time>2022-08-24T10:36:51Z</time>
      </trkpt>
      <trkpt lat="43.02687799999965" lon="-1.2953559999999993">
        <ele>1373.673</ele>
        <time>2022-08-24T10:36:54Z</time>
      </trkpt>
      <trkpt lat="43.02686399999965" lon="-1.2953519999999994">
        <ele>1373.619</ele>
        <time>2022-08-24T10:36:55Z</time>
      </trkpt>
      <trkpt lat="43.02684999999965" lon="-1.2953489999999994">
        <ele>1374.041</ele>
        <time>2022-08-24T10:36:56Z</time>
      </trkpt>
      <trkpt lat="43.02683499999965" lon="-1.2953469999999994">
        <ele>1374.248</ele>
        <time>2022-08-24T10:36:57Z</time>
      </trkpt>
      <trkpt lat="43.02682399999965" lon="-1.2953469999999994">
        <ele>1374.231</ele>
        <time>2022-08-24T10:36:58Z</time>
      </trkpt>
      <trkpt lat="43.02680599999965" lon="-1.2953479999999993">
        <ele>1374.485</ele>
        <time>2022-08-24T10:36:59Z</time>
      </trkpt>
      <trkpt lat="43.026790999999655" lon="-1.2953469999999994">
        <ele>1374.464</ele>
        <time>2022-08-24T10:37:00Z</time>
      </trkpt>
      <trkpt lat="43.02677799999965" lon="-1.2953449999999993">
        <ele>1374.621</ele>
        <time>2022-08-24T10:37:01Z</time>
      </trkpt>
      <trkpt lat="43.02676499999965" lon="-1.2953439999999994">
        <ele>1374.641</ele>
        <time>2022-08-24T10:37:02Z</time>
      </trkpt>
      <trkpt lat="43.02675199999965" lon="-1.2953449999999993">
        <ele>1374.605</ele>
        <time>2022-08-24T10:37:03Z</time>
      </trkpt>
      <trkpt lat="43.026738999999644" lon="-1.2953439999999994">
        <ele>1374.809</ele>
        <time>2022-08-24T10:37:04Z</time>
      </trkpt>
      <trkpt lat="43.02672599999964" lon="-1.2953409999999994">
        <ele>1375.083</ele>
        <time>2022-08-24T10:37:05Z</time>
      </trkpt>
      <trkpt lat="43.02671099999964" lon="-1.2953379999999994">
        <ele>1375.463</ele>
        <time>2022-08-24T10:37:06Z</time>
      </trkpt>
      <trkpt lat="43.026698999999645" lon="-1.2953309999999993">
        <ele>1375.493</ele>
        <time>2022-08-24T10:37:07Z</time>
      </trkpt>
      <trkpt lat="43.02668299999964" lon="-1.2953299999999994">
        <ele>1375.639</ele>
        <time>2022-08-24T10:37:08Z</time>
      </trkpt>
      <trkpt lat="43.02666999999964" lon="-1.2953299999999994">
        <ele>1375.851</ele>
        <time>2022-08-24T10:37:09Z</time>
      </trkpt>
      <trkpt lat="43.02665899999964" lon="-1.2953299999999994">
        <ele>1376.088</ele>
        <time>2022-08-24T10:37:10Z</time>
      </trkpt>
      <trkpt lat="43.02664699999964" lon="-1.2953289999999995">
        <ele>1376.061</ele>
        <time>2022-08-24T10:37:11Z</time>
      </trkpt>
      <trkpt lat="43.02663299999964" lon="-1.2953289999999995">
        <ele>1376.085</ele>
        <time>2022-08-24T10:37:12Z</time>
      </trkpt>
      <trkpt lat="43.02662399999964" lon="-1.2953279999999996">
        <ele>1376.254</ele>
        <time>2022-08-24T10:37:13Z</time>
      </trkpt>
      <trkpt lat="43.02661299999964" lon="-1.2953279999999996">
        <ele>1376.483</ele>
        <time>2022-08-24T10:37:14Z</time>
      </trkpt>
      <trkpt lat="43.026597999999645" lon="-1.2953289999999995">
        <ele>1376.625</ele>
        <time>2022-08-24T10:37:15Z</time>
      </trkpt>
      <trkpt lat="43.02658499999964" lon="-1.2953279999999996">
        <ele>1377.017</ele>
        <time>2022-08-24T10:37:16Z</time>
      </trkpt>
      <trkpt lat="43.02657399999964" lon="-1.2953269999999997">
        <ele>1377.009</ele>
        <time>2022-08-24T10:37:17Z</time>
      </trkpt>
      <trkpt lat="43.02656099999964" lon="-1.2953249999999996">
        <ele>1377.229</ele>
        <time>2022-08-24T10:37:18Z</time>
      </trkpt>
      <trkpt lat="43.026547999999636" lon="-1.2953239999999997">
        <ele>1377.259</ele>
        <time>2022-08-24T10:37:19Z</time>
      </trkpt>
      <trkpt lat="43.026533999999636" lon="-1.2953199999999998">
        <ele>1377.439</ele>
        <time>2022-08-24T10:37:20Z</time>
      </trkpt>
      <trkpt lat="43.02651899999964" lon="-1.2953179999999997">
        <ele>1377.495</ele>
        <time>2022-08-24T10:37:21Z</time>
      </trkpt>
      <trkpt lat="43.02650799999964" lon="-1.2953199999999998">
        <ele>1377.647</ele>
        <time>2022-08-24T10:37:22Z</time>
      </trkpt>
      <trkpt lat="43.026497999999634" lon="-1.2953209999999997">
        <ele>1377.624</ele>
        <time>2022-08-24T10:37:23Z</time>
      </trkpt>
      <trkpt lat="43.026486999999634" lon="-1.2953229999999998">
        <ele>1377.847</ele>
        <time>2022-08-24T10:37:24Z</time>
      </trkpt>
      <trkpt lat="43.026469999999634" lon="-1.2953289999999997">
        <ele>1378.081</ele>
        <time>2022-08-24T10:37:25Z</time>
      </trkpt>
      <trkpt lat="43.026457999999636" lon="-1.2953299999999996">
        <ele>1378.060</ele>
        <time>2022-08-24T10:37:26Z</time>
      </trkpt>
      <trkpt lat="43.02644499999963" lon="-1.2953309999999996">
        <ele>1378.247</ele>
        <time>2022-08-24T10:37:27Z</time>
      </trkpt>
      <trkpt lat="43.02643399999963" lon="-1.2953309999999996">
        <ele>1378.229</ele>
        <time>2022-08-24T10:37:28Z</time>
      </trkpt>
      <trkpt lat="43.02641999999963" lon="-1.2953359999999996">
        <ele>1378.421</ele>
        <time>2022-08-24T10:37:29Z</time>
      </trkpt>
      <trkpt lat="43.02640399999963" lon="-1.2953419999999995">
        <ele>1378.409</ele>
        <time>2022-08-24T10:37:30Z</time>
      </trkpt>
      <trkpt lat="43.02639199999963" lon="-1.2953459999999994">
        <ele>1378.695</ele>
        <time>2022-08-24T10:37:31Z</time>
      </trkpt>
      <trkpt lat="43.02637799999963" lon="-1.2953499999999993">
        <ele>1378.655</ele>
        <time>2022-08-24T10:37:32Z</time>
      </trkpt>
      <trkpt lat="43.02636799999963" lon="-1.2953529999999993">
        <ele>1378.865</ele>
        <time>2022-08-24T10:37:33Z</time>
      </trkpt>
      <trkpt lat="43.02635399999963" lon="-1.2953589999999993">
        <ele>1378.651</ele>
        <time>2022-08-24T10:37:34Z</time>
      </trkpt>
      <trkpt lat="43.02633899999963" lon="-1.2953649999999992">
        <ele>1379.033</ele>
        <time>2022-08-24T10:37:35Z</time>
      </trkpt>
      <trkpt lat="43.02632699999963" lon="-1.2953709999999992">
        <ele>1379.050</ele>
        <time>2022-08-24T10:37:36Z</time>
      </trkpt>
      <trkpt lat="43.02631299999963" lon="-1.295374999999999">
        <ele>1379.233</ele>
        <time>2022-08-24T10:37:37Z</time>
      </trkpt>
      <trkpt lat="43.026300999999634" lon="-1.295378999999999">
        <ele>1379.477</ele>
        <time>2022-08-24T10:37:38Z</time>
      </trkpt>
      <trkpt lat="43.02628799999963" lon="-1.295384999999999">
        <ele>1379.656</ele>
        <time>2022-08-24T10:37:39Z</time>
      </trkpt>
      <trkpt lat="43.02627699999963" lon="-1.295391999999999">
        <ele>1380.083</ele>
        <time>2022-08-24T10:37:40Z</time>
      </trkpt>
      <trkpt lat="43.02626299999963" lon="-1.295399999999999">
        <ele>1380.225</ele>
        <time>2022-08-24T10:37:41Z</time>
      </trkpt>
      <trkpt lat="43.02625499999963" lon="-1.295404999999999">
        <ele>1380.217</ele>
        <time>2022-08-24T10:37:42Z</time>
      </trkpt>
      <trkpt lat="43.026244999999626" lon="-1.295408999999999">
        <ele>1380.409</ele>
        <time>2022-08-24T10:37:43Z</time>
      </trkpt>
      <trkpt lat="43.02623299999963" lon="-1.295411999999999">
        <ele>1380.679</ele>
        <time>2022-08-24T10:37:44Z</time>
      </trkpt>
      <trkpt lat="43.026222999999625" lon="-1.295419999999999">
        <ele>1380.649</ele>
        <time>2022-08-24T10:37:45Z</time>
      </trkpt>
      <trkpt lat="43.02620999999962" lon="-1.295437999999999">
        <ele>1380.869</ele>
        <time>2022-08-24T10:37:46Z</time>
      </trkpt>
      <trkpt lat="43.026202999999626" lon="-1.295453999999999">
        <ele>1380.845</ele>
        <time>2022-08-24T10:37:47Z</time>
      </trkpt>
      <trkpt lat="43.02619599999963" lon="-1.295468999999999">
        <ele>1381.047</ele>
        <time>2022-08-24T10:37:48Z</time>
      </trkpt>
      <trkpt lat="43.02618399999963" lon="-1.295484999999999">
        <ele>1381.254</ele>
        <time>2022-08-24T10:37:49Z</time>
      </trkpt>
      <trkpt lat="43.02616799999963" lon="-1.2954999999999992">
        <ele>1381.237</ele>
        <time>2022-08-24T10:37:50Z</time>
      </trkpt>
      <trkpt lat="43.02615299999963" lon="-1.2955219999999992">
        <ele>1381.251</ele>
        <time>2022-08-24T10:37:51Z</time>
      </trkpt>
      <trkpt lat="43.02614399999963" lon="-1.2955439999999991">
        <ele>1381.230</ele>
        <time>2022-08-24T10:37:52Z</time>
      </trkpt>
      <trkpt lat="43.02613899999963" lon="-1.2955649999999992">
        <ele>1381.278</ele>
        <time>2022-08-24T10:37:53Z</time>
      </trkpt>
      <trkpt lat="43.026134999999634" lon="-1.2955809999999992">
        <ele>1381.233</ele>
        <time>2022-08-24T10:37:54Z</time>
      </trkpt>
      <trkpt lat="43.02613299999963" lon="-1.2956019999999993">
        <ele>1381.226</ele>
        <time>2022-08-24T10:37:55Z</time>
      </trkpt>
      <trkpt lat="43.026128999999635" lon="-1.2956209999999992">
        <ele>1381.009</ele>
        <time>2022-08-24T10:37:56Z</time>
      </trkpt>
      <trkpt lat="43.026125999999635" lon="-1.2956279999999993">
        <ele>1380.878</ele>
        <time>2022-08-24T10:37:57Z</time>
      </trkpt>
      <trkpt lat="43.02612399999963" lon="-1.2956319999999992">
        <ele>1380.068</ele>
        <time>2022-08-24T10:43:12Z</time>
      </trkpt>
      <trkpt lat="43.026119999999636" lon="-1.2956309999999993">
        <ele>1380.018</ele>
        <time>2022-08-24T10:43:13Z</time>
      </trkpt>
      <trkpt lat="43.02599599999964" lon="-1.2956399999999992">
        <ele>1379.824</ele>
        <time>2022-08-24T10:43:17Z</time>
      </trkpt>
      <trkpt lat="43.02593399999964" lon="-1.2956949999999992">
        <ele>1379.486</ele>
        <time>2022-08-24T10:43:19Z</time>
      </trkpt>
      <trkpt lat="43.025906999999634" lon="-1.2957239999999992">
        <ele>1379.283</ele>
        <time>2022-08-24T10:43:20Z</time>
      </trkpt>
      <trkpt lat="43.02588199999963" lon="-1.2957509999999992">
        <ele>1379.056</ele>
        <time>2022-08-24T10:43:21Z</time>
      </trkpt>
      <trkpt lat="43.02585999999963" lon="-1.2957749999999992">
        <ele>1378.880</ele>
        <time>2022-08-24T10:43:22Z</time>
      </trkpt>
      <trkpt lat="43.02584299999963" lon="-1.2957999999999992">
        <ele>1378.639</ele>
        <time>2022-08-24T10:43:23Z</time>
      </trkpt>
      <trkpt lat="43.025824999999635" lon="-1.2958259999999993">
        <ele>1378.241</ele>
        <time>2022-08-24T10:43:24Z</time>
      </trkpt>
      <trkpt lat="43.02578699999963" lon="-1.2958749999999992">
        <ele>1377.481</ele>
        <time>2022-08-24T10:43:26Z</time>
      </trkpt>
      <trkpt lat="43.02574499999963" lon="-1.2959209999999992">
        <ele>1376.609</ele>
        <time>2022-08-24T10:43:28Z</time>
      </trkpt>
      <trkpt lat="43.02572599999963" lon="-1.2959429999999992">
        <ele>1376.209</ele>
        <time>2022-08-24T10:43:29Z</time>
      </trkpt>
      <trkpt lat="43.02570499999963" lon="-1.2959639999999992">
        <ele>1376.045</ele>
        <time>2022-08-24T10:43:30Z</time>
      </trkpt>
      <trkpt lat="43.025658999999635" lon="-1.2960039999999993">
        <ele>1375.295</ele>
        <time>2022-08-24T10:43:32Z</time>
      </trkpt>
      <trkpt lat="43.025636999999634" lon="-1.2960209999999992">
        <ele>1374.695</ele>
        <time>2022-08-24T10:43:33Z</time>
      </trkpt>
      <trkpt lat="43.02558399999963" lon="-1.2960549999999993">
        <ele>1373.861</ele>
        <time>2022-08-24T10:43:35Z</time>
      </trkpt>
      <trkpt lat="43.025531999999636" lon="-1.2960879999999992">
        <ele>1373.453</ele>
        <time>2022-08-24T10:43:37Z</time>
      </trkpt>
      <trkpt lat="43.025506999999635" lon="-1.2961049999999992">
        <ele>1372.860</ele>
        <time>2022-08-24T10:43:38Z</time>
      </trkpt>
      <trkpt lat="43.02548099999964" lon="-1.2961209999999992">
        <ele>1372.613</ele>
        <time>2022-08-24T10:43:39Z</time>
      </trkpt>
      <trkpt lat="43.02542999999964" lon="-1.2961529999999992">
        <ele>1372.497</ele>
        <time>2022-08-24T10:43:41Z</time>
      </trkpt>
      <trkpt lat="43.025405999999634" lon="-1.2961719999999992">
        <ele>1372.056</ele>
        <time>2022-08-24T10:43:42Z</time>
      </trkpt>
      <trkpt lat="43.025379999999636" lon="-1.2961889999999991">
        <ele>1371.054</ele>
        <time>2022-08-24T10:43:43Z</time>
      </trkpt>
      <trkpt lat="43.02529699999964" lon="-1.2962399999999992">
        <ele>1369.856</ele>
        <time>2022-08-24T10:43:46Z</time>
      </trkpt>
      <trkpt lat="43.02526999999964" lon="-1.2962539999999991">
        <ele>1369.411</ele>
        <time>2022-08-24T10:43:47Z</time>
      </trkpt>
      <trkpt lat="43.025244999999636" lon="-1.2962669999999992">
        <ele>1368.609</ele>
        <time>2022-08-24T10:43:48Z</time>
      </trkpt>
      <trkpt lat="43.02522399999964" lon="-1.296278999999999">
        <ele>1368.236</ele>
        <time>2022-08-24T10:43:49Z</time>
      </trkpt>
      <trkpt lat="43.02517299999964" lon="-1.296295999999999">
        <ele>1367.246</ele>
        <time>2022-08-24T10:43:51Z</time>
      </trkpt>
      <trkpt lat="43.02514799999964" lon="-1.296300999999999">
        <ele>1366.686</ele>
        <time>2022-08-24T10:43:52Z</time>
      </trkpt>
      <trkpt lat="43.02509399999964" lon="-1.296309999999999">
        <ele>1366.042</ele>
        <time>2022-08-24T10:43:54Z</time>
      </trkpt>
      <trkpt lat="43.02506499999964" lon="-1.2963109999999989">
        <ele>1365.864</ele>
        <time>2022-08-24T10:43:55Z</time>
      </trkpt>
      <trkpt lat="43.02497199999964" lon="-1.2963119999999988">
        <ele>1364.831</ele>
        <time>2022-08-24T10:43:58Z</time>
      </trkpt>
      <trkpt lat="43.02488799999964" lon="-1.2963069999999988">
        <ele>1363.624</ele>
        <time>2022-08-24T10:44:01Z</time>
      </trkpt>
      <trkpt lat="43.02486099999964" lon="-1.2963039999999988">
        <ele>1362.898</ele>
        <time>2022-08-24T10:44:02Z</time>
      </trkpt>
      <trkpt lat="43.02483599999964" lon="-1.296299999999999">
        <ele>1362.687</ele>
        <time>2022-08-24T10:44:03Z</time>
      </trkpt>
      <trkpt lat="43.02481299999964" lon="-1.296307999999999">
        <ele>1361.648</ele>
        <time>2022-08-24T10:44:04Z</time>
      </trkpt>
      <trkpt lat="43.02479499999964" lon="-1.296328999999999">
        <ele>1361.461</ele>
        <time>2022-08-24T10:44:05Z</time>
      </trkpt>
      <trkpt lat="43.02478499999964" lon="-1.296358999999999">
        <ele>1361.017</ele>
        <time>2022-08-24T10:44:06Z</time>
      </trkpt>
      <trkpt lat="43.02478799999964" lon="-1.296390999999999">
        <ele>1360.409</ele>
        <time>2022-08-24T10:44:07Z</time>
      </trkpt>
      <trkpt lat="43.024794999999635" lon="-1.296419999999999">
        <ele>1360.045</ele>
        <time>2022-08-24T10:44:08Z</time>
      </trkpt>
      <trkpt lat="43.02480999999963" lon="-1.2964429999999991">
        <ele>1359.655</ele>
        <time>2022-08-24T10:44:09Z</time>
      </trkpt>
      <trkpt lat="43.02485799999963" lon="-1.296473999999999">
        <ele>1359.075</ele>
        <time>2022-08-24T10:44:11Z</time>
      </trkpt>
      <trkpt lat="43.02491999999963" lon="-1.2964889999999991">
        <ele>1358.421</ele>
        <time>2022-08-24T10:44:13Z</time>
      </trkpt>
      <trkpt lat="43.02495499999963" lon="-1.2964939999999991">
        <ele>1358.283</ele>
        <time>2022-08-24T10:44:14Z</time>
      </trkpt>
      <trkpt lat="43.02502599999963" lon="-1.296497999999999">
        <ele>1357.850</ele>
        <time>2022-08-24T10:44:16Z</time>
      </trkpt>
      <trkpt lat="43.02506499999963" lon="-1.296501999999999">
        <ele>1357.423</ele>
        <time>2022-08-24T10:44:17Z</time>
      </trkpt>
      <trkpt lat="43.02510499999963" lon="-1.296504999999999">
        <ele>1356.867</ele>
        <time>2022-08-24T10:44:18Z</time>
      </trkpt>
      <trkpt lat="43.02531599999963" lon="-1.296514999999999">
        <ele>1355.416</ele>
        <time>2022-08-24T10:44:23Z</time>
      </trkpt>
      <trkpt lat="43.025414999999626" lon="-1.296515999999999">
        <ele>1355.256</ele>
        <time>2022-08-24T10:44:25Z</time>
      </trkpt>
      <trkpt lat="43.02545899999963" lon="-1.296517999999999">
        <ele>1355.259</ele>
        <time>2022-08-24T10:44:26Z</time>
      </trkpt>
      <trkpt lat="43.02549899999963" lon="-1.296520999999999">
        <ele>1355.214</ele>
        <time>2022-08-24T10:44:27Z</time>
      </trkpt>
      <trkpt lat="43.02553799999963" lon="-1.296523999999999">
        <ele>1355.209</ele>
        <time>2022-08-24T10:44:28Z</time>
      </trkpt>
      <trkpt lat="43.02557699999963" lon="-1.2965279999999988">
        <ele>1354.866</ele>
        <time>2022-08-24T10:44:29Z</time>
      </trkpt>
      <trkpt lat="43.02561499999963" lon="-1.2965289999999987">
        <ele>1354.826</ele>
        <time>2022-08-24T10:44:30Z</time>
      </trkpt>
      <trkpt lat="43.02565399999963" lon="-1.2965259999999987">
        <ele>1354.826</ele>
        <time>2022-08-24T10:44:31Z</time>
      </trkpt>
      <trkpt lat="43.025734999999635" lon="-1.2965159999999987">
        <ele>1354.442</ele>
        <time>2022-08-24T10:44:33Z</time>
      </trkpt>
      <trkpt lat="43.02577299999964" lon="-1.2965099999999987">
        <ele>1354.434</ele>
        <time>2022-08-24T10:44:34Z</time>
      </trkpt>
      <trkpt lat="43.02580899999964" lon="-1.2965039999999988">
        <ele>1354.441</ele>
        <time>2022-08-24T10:44:35Z</time>
      </trkpt>
      <trkpt lat="43.02584499999964" lon="-1.2965029999999989">
        <ele>1354.494</ele>
        <time>2022-08-24T10:44:36Z</time>
      </trkpt>
      <trkpt lat="43.02587699999964" lon="-1.296504999999999">
        <ele>1354.298</ele>
        <time>2022-08-24T10:44:37Z</time>
      </trkpt>
      <trkpt lat="43.02593699999964" lon="-1.296511999999999">
        <ele>1354.257</ele>
        <time>2022-08-24T10:44:39Z</time>
      </trkpt>
      <trkpt lat="43.025965999999634" lon="-1.296537999999999">
        <ele>1354.229</ele>
        <time>2022-08-24T10:44:40Z</time>
      </trkpt>
      <trkpt lat="43.02599599999964" lon="-1.296572999999999">
        <ele>1354.200</ele>
        <time>2022-08-24T10:44:41Z</time>
      </trkpt>
      <trkpt lat="43.02602399999964" lon="-1.2966099999999992">
        <ele>1354.220</ele>
        <time>2022-08-24T10:44:42Z</time>
      </trkpt>
      <trkpt lat="43.02605099999964" lon="-1.2966479999999991">
        <ele>1354.209</ele>
        <time>2022-08-24T10:44:43Z</time>
      </trkpt>
      <trkpt lat="43.02611899999964" lon="-1.296759999999999">
        <ele>1354.053</ele>
        <time>2022-08-24T10:44:46Z</time>
      </trkpt>
      <trkpt lat="43.02613599999964" lon="-1.296794999999999">
        <ele>1353.233</ele>
        <time>2022-08-24T10:44:47Z</time>
      </trkpt>
      <trkpt lat="43.026150999999636" lon="-1.296831999999999">
        <ele>1353.023</ele>
        <time>2022-08-24T10:44:48Z</time>
      </trkpt>
      <trkpt lat="43.02617299999964" lon="-1.2969099999999991">
        <ele>1352.099</ele>
        <time>2022-08-24T10:44:50Z</time>
      </trkpt>
      <trkpt lat="43.026181999999636" lon="-1.296956999999999">
        <ele>1351.861</ele>
        <time>2022-08-24T10:44:51Z</time>
      </trkpt>
      <trkpt lat="43.026195999999636" lon="-1.296996999999999">
        <ele>1351.478</ele>
        <time>2022-08-24T10:44:52Z</time>
      </trkpt>
      <trkpt lat="43.026213999999634" lon="-1.297032999999999">
        <ele>1351.261</ele>
        <time>2022-08-24T10:44:53Z</time>
      </trkpt>
      <trkpt lat="43.02623499999963" lon="-1.297079999999999">
        <ele>1350.615</ele>
        <time>2022-08-24T10:44:54Z</time>
      </trkpt>
      <trkpt lat="43.02626399999963" lon="-1.297132999999999">
        <ele>1350.484</ele>
        <time>2022-08-24T10:44:55Z</time>
      </trkpt>
      <trkpt lat="43.02632299999963" lon="-1.297241999999999">
        <ele>1349.226</ele>
        <time>2022-08-24T10:44:57Z</time>
      </trkpt>
      <trkpt lat="43.026351999999626" lon="-1.2973019999999988">
        <ele>1349.047</ele>
        <time>2022-08-24T10:44:58Z</time>
      </trkpt>
      <trkpt lat="43.026383999999624" lon="-1.2973559999999988">
        <ele>1348.411</ele>
        <time>2022-08-24T10:44:59Z</time>
      </trkpt>
      <trkpt lat="43.02641499999962" lon="-1.2974029999999988">
        <ele>1348.209</ele>
        <time>2022-08-24T10:45:00Z</time>
      </trkpt>
      <trkpt lat="43.02644599999962" lon="-1.2974549999999987">
        <ele>1347.493</ele>
        <time>2022-08-24T10:45:01Z</time>
      </trkpt>
      <trkpt lat="43.02646599999962" lon="-1.2974999999999988">
        <ele>1346.883</ele>
        <time>2022-08-24T10:45:02Z</time>
      </trkpt>
      <trkpt lat="43.02649699999962" lon="-1.2975509999999988">
        <ele>1346.623</ele>
        <time>2022-08-24T10:45:03Z</time>
      </trkpt>
      <trkpt lat="43.02651699999962" lon="-1.2975939999999988">
        <ele>1346.079</ele>
        <time>2022-08-24T10:45:04Z</time>
      </trkpt>
      <trkpt lat="43.02653499999962" lon="-1.2976229999999989">
        <ele>1345.841</ele>
        <time>2022-08-24T10:45:05Z</time>
      </trkpt>
      <trkpt lat="43.02655699999962" lon="-1.2976539999999988">
        <ele>1345.228</ele>
        <time>2022-08-24T10:45:06Z</time>
      </trkpt>
      <trkpt lat="43.02659299999962" lon="-1.2976939999999988">
        <ele>1345.071</ele>
        <time>2022-08-24T10:45:07Z</time>
      </trkpt>
      <trkpt lat="43.026622999999624" lon="-1.2977349999999988">
        <ele>1344.425</ele>
        <time>2022-08-24T10:45:08Z</time>
      </trkpt>
      <trkpt lat="43.02676199999962" lon="-1.2978819999999986">
        <ele>1343.244</ele>
        <time>2022-08-24T10:45:11Z</time>
      </trkpt>
      <trkpt lat="43.02680999999962" lon="-1.2979519999999987">
        <ele>1341.825</ele>
        <time>2022-08-24T10:45:13Z</time>
      </trkpt>
      <trkpt lat="43.02689699999962" lon="-1.2980839999999987">
        <ele>1340.426</ele>
        <time>2022-08-24T10:45:16Z</time>
      </trkpt>
      <trkpt lat="43.02692599999962" lon="-1.2981189999999987">
        <ele>1340.008</ele>
        <time>2022-08-24T10:45:17Z</time>
      </trkpt>
      <trkpt lat="43.02700699999962" lon="-1.2982099999999988">
        <ele>1339.209</ele>
        <time>2022-08-24T10:45:19Z</time>
      </trkpt>
      <trkpt lat="43.027047999999624" lon="-1.2982539999999987">
        <ele>1337.833</ele>
        <time>2022-08-24T10:45:20Z</time>
      </trkpt>
      <trkpt lat="43.02708799999962" lon="-1.2982979999999986">
        <ele>1336.853</ele>
        <time>2022-08-24T10:45:21Z</time>
      </trkpt>
      <trkpt lat="43.027117999999625" lon="-1.2983329999999986">
        <ele>1336.433</ele>
        <time>2022-08-24T10:45:22Z</time>
      </trkpt>
      <trkpt lat="43.027151999999624" lon="-1.2983759999999986">
        <ele>1335.499</ele>
        <time>2022-08-24T10:45:23Z</time>
      </trkpt>
      <trkpt lat="43.02722899999962" lon="-1.2984809999999987">
        <ele>1334.261</ele>
        <time>2022-08-24T10:45:25Z</time>
      </trkpt>
      <trkpt lat="43.027297999999625" lon="-1.2985809999999987">
        <ele>1332.628</ele>
        <time>2022-08-24T10:45:27Z</time>
      </trkpt>
      <trkpt lat="43.02733399999963" lon="-1.2986319999999987">
        <ele>1331.631</ele>
        <time>2022-08-24T10:45:28Z</time>
      </trkpt>
      <trkpt lat="43.02736499999963" lon="-1.2986829999999987">
        <ele>1331.255</ele>
        <time>2022-08-24T10:45:29Z</time>
      </trkpt>
      <trkpt lat="43.02739299999963" lon="-1.2987319999999987">
        <ele>1330.854</ele>
        <time>2022-08-24T10:45:30Z</time>
      </trkpt>
      <trkpt lat="43.02741799999963" lon="-1.2987819999999988">
        <ele>1330.227</ele>
        <time>2022-08-24T10:45:31Z</time>
      </trkpt>
      <trkpt lat="43.02743699999963" lon="-1.2988319999999989">
        <ele>1329.668</ele>
        <time>2022-08-24T10:45:32Z</time>
      </trkpt>
      <trkpt lat="43.02745399999963" lon="-1.2989479999999989">
        <ele>1329.214</ele>
        <time>2022-08-24T10:45:34Z</time>
      </trkpt>
      <trkpt lat="43.02745899999963" lon="-1.2990159999999988">
        <ele>1328.809</ele>
        <time>2022-08-24T10:45:35Z</time>
      </trkpt>
      <trkpt lat="43.027468999999634" lon="-1.2990809999999988">
        <ele>1328.663</ele>
        <time>2022-08-24T10:45:36Z</time>
      </trkpt>
      <trkpt lat="43.02747799999963" lon="-1.2991539999999988">
        <ele>1328.463</ele>
        <time>2022-08-24T10:45:37Z</time>
      </trkpt>
      <trkpt lat="43.027490999999635" lon="-1.2993059999999987">
        <ele>1327.673</ele>
        <time>2022-08-24T10:45:39Z</time>
      </trkpt>
      <trkpt lat="43.02750099999964" lon="-1.2994489999999987">
        <ele>1326.269</ele>
        <time>2022-08-24T10:45:41Z</time>
      </trkpt>
      <trkpt lat="43.02750599999964" lon="-1.2995139999999987">
        <ele>1325.621</ele>
        <time>2022-08-24T10:45:42Z</time>
      </trkpt>
      <trkpt lat="43.02751099999964" lon="-1.2995789999999987">
        <ele>1325.278</ele>
        <time>2022-08-24T10:45:43Z</time>
      </trkpt>
      <trkpt lat="43.02751599999964" lon="-1.2996429999999988">
        <ele>1324.411</ele>
        <time>2022-08-24T10:45:44Z</time>
      </trkpt>
      <trkpt lat="43.02751999999964" lon="-1.2997039999999989">
        <ele>1324.045</ele>
        <time>2022-08-24T10:45:45Z</time>
      </trkpt>
      <trkpt lat="43.02752199999964" lon="-1.299756999999999">
        <ele>1323.424</ele>
        <time>2022-08-24T10:45:46Z</time>
      </trkpt>
      <trkpt lat="43.02752499999964" lon="-1.299979999999999">
        <ele>1322.259</ele>
        <time>2022-08-24T10:45:49Z</time>
      </trkpt>
      <trkpt lat="43.027520999999645" lon="-1.300047999999999">
        <ele>1321.803</ele>
        <time>2022-08-24T10:45:50Z</time>
      </trkpt>
      <trkpt lat="43.02751999999965" lon="-1.300115999999999">
        <ele>1321.023</ele>
        <time>2022-08-24T10:45:51Z</time>
      </trkpt>
      <trkpt lat="43.02751599999965" lon="-1.300335999999999">
        <ele>1319.609</ele>
        <time>2022-08-24T10:45:54Z</time>
      </trkpt>
      <trkpt lat="43.02751699999965" lon="-1.300394999999999">
        <ele>1319.056</ele>
        <time>2022-08-24T10:45:55Z</time>
      </trkpt>
      <trkpt lat="43.02751599999965" lon="-1.300468999999999">
        <ele>1318.296</ele>
        <time>2022-08-24T10:45:56Z</time>
      </trkpt>
      <trkpt lat="43.02751499999965" lon="-1.300551999999999">
        <ele>1318.066</ele>
        <time>2022-08-24T10:45:57Z</time>
      </trkpt>
      <trkpt lat="43.027510999999656" lon="-1.300619999999999">
        <ele>1317.032</ele>
        <time>2022-08-24T10:45:58Z</time>
      </trkpt>
      <trkpt lat="43.027507999999656" lon="-1.300687999999999">
        <ele>1316.274</ele>
        <time>2022-08-24T10:45:59Z</time>
      </trkpt>
      <trkpt lat="43.027505999999654" lon="-1.300736999999999">
        <ele>1316.081</ele>
        <time>2022-08-24T10:46:00Z</time>
      </trkpt>
      <trkpt lat="43.027499999999655" lon="-1.300797999999999">
        <ele>1315.224</ele>
        <time>2022-08-24T10:46:01Z</time>
      </trkpt>
      <trkpt lat="43.02749299999966" lon="-1.300867999999999">
        <ele>1314.668</ele>
        <time>2022-08-24T10:46:02Z</time>
      </trkpt>
      <trkpt lat="43.02747299999966" lon="-1.300997999999999">
        <ele>1313.417</ele>
        <time>2022-08-24T10:46:04Z</time>
      </trkpt>
      <trkpt lat="43.02745399999966" lon="-1.301133999999999">
        <ele>1312.624</ele>
        <time>2022-08-24T10:46:06Z</time>
      </trkpt>
      <trkpt lat="43.027443999999655" lon="-1.3011989999999989">
        <ele>1312.404</ele>
        <time>2022-08-24T10:46:07Z</time>
      </trkpt>
      <trkpt lat="43.027418999999654" lon="-1.3013319999999988">
        <ele>1311.014</ele>
        <time>2022-08-24T10:46:09Z</time>
      </trkpt>
      <trkpt lat="43.02740599999965" lon="-1.3013979999999987">
        <ele>1310.009</ele>
        <time>2022-08-24T10:46:10Z</time>
      </trkpt>
      <trkpt lat="43.02738899999965" lon="-1.3014669999999988">
        <ele>1309.423</ele>
        <time>2022-08-24T10:46:11Z</time>
      </trkpt>
      <trkpt lat="43.02736099999965" lon="-1.3016119999999989">
        <ele>1308.273</ele>
        <time>2022-08-24T10:46:13Z</time>
      </trkpt>
      <trkpt lat="43.02734799999965" lon="-1.3016749999999988">
        <ele>1308.063</ele>
        <time>2022-08-24T10:46:14Z</time>
      </trkpt>
      <trkpt lat="43.027331999999646" lon="-1.3017299999999987">
        <ele>1307.689</ele>
        <time>2022-08-24T10:46:15Z</time>
      </trkpt>
      <trkpt lat="43.02731699999965" lon="-1.3017829999999988">
        <ele>1307.241</ele>
        <time>2022-08-24T10:46:16Z</time>
      </trkpt>
      <trkpt lat="43.02730199999965" lon="-1.3018399999999988">
        <ele>1306.258</ele>
        <time>2022-08-24T10:46:17Z</time>
      </trkpt>
      <trkpt lat="43.02728699999965" lon="-1.3018969999999987">
        <ele>1305.451</ele>
        <time>2022-08-24T10:46:18Z</time>
      </trkpt>
      <trkpt lat="43.02727299999965" lon="-1.3019479999999988">
        <ele>1305.035</ele>
        <time>2022-08-24T10:46:19Z</time>
      </trkpt>
      <trkpt lat="43.02724299999965" lon="-1.3020599999999987">
        <ele>1304.014</ele>
        <time>2022-08-24T10:46:21Z</time>
      </trkpt>
      <trkpt lat="43.02721499999965" lon="-1.3021879999999986">
        <ele>1302.866</ele>
        <time>2022-08-24T10:46:23Z</time>
      </trkpt>
      <trkpt lat="43.02718899999965" lon="-1.3023279999999986">
        <ele>1301.029</ele>
        <time>2022-08-24T10:46:25Z</time>
      </trkpt>
      <trkpt lat="43.02716399999965" lon="-1.3024809999999987">
        <ele>1299.221</ele>
        <time>2022-08-24T10:46:27Z</time>
      </trkpt>
      <trkpt lat="43.02714399999965" lon="-1.3026349999999987">
        <ele>1297.209</ele>
        <time>2022-08-24T10:46:29Z</time>
      </trkpt>
      <trkpt lat="43.027128999999654" lon="-1.3027109999999986">
        <ele>1296.067</ele>
        <time>2022-08-24T10:46:30Z</time>
      </trkpt>
      <trkpt lat="43.02711099999966" lon="-1.3027839999999986">
        <ele>1295.467</ele>
        <time>2022-08-24T10:46:31Z</time>
      </trkpt>
      <trkpt lat="43.02709599999966" lon="-1.3028529999999987">
        <ele>1294.667</ele>
        <time>2022-08-24T10:46:32Z</time>
      </trkpt>
      <trkpt lat="43.02708399999966" lon="-1.3029099999999987">
        <ele>1294.683</ele>
        <time>2022-08-24T10:46:33Z</time>
      </trkpt>
      <trkpt lat="43.02707199999966" lon="-1.3029589999999986">
        <ele>1294.215</ele>
        <time>2022-08-24T10:46:34Z</time>
      </trkpt>
      <trkpt lat="43.02705899999966" lon="-1.3030029999999986">
        <ele>1294.022</ele>
        <time>2022-08-24T10:46:35Z</time>
      </trkpt>
      <trkpt lat="43.02704799999966" lon="-1.3030409999999986">
        <ele>1293.635</ele>
        <time>2022-08-24T10:46:36Z</time>
      </trkpt>
      <trkpt lat="43.02704099999966" lon="-1.3030769999999985">
        <ele>1292.829</ele>
        <time>2022-08-24T10:46:37Z</time>
      </trkpt>
      <trkpt lat="43.02702999999966" lon="-1.3031109999999986">
        <ele>1292.678</ele>
        <time>2022-08-24T10:46:38Z</time>
      </trkpt>
      <trkpt lat="43.02702399999966" lon="-1.3031409999999986">
        <ele>1292.447</ele>
        <time>2022-08-24T10:46:39Z</time>
      </trkpt>
      <trkpt lat="43.02699099999966" lon="-1.3032649999999986">
        <ele>1291.029</ele>
        <time>2022-08-24T10:46:42Z</time>
      </trkpt>
      <trkpt lat="43.026941999999664" lon="-1.3034309999999987">
        <ele>1289.821</ele>
        <time>2022-08-24T10:46:45Z</time>
      </trkpt>
      <trkpt lat="43.02691699999966" lon="-1.3035349999999988">
        <ele>1288.809</ele>
        <time>2022-08-24T10:46:47Z</time>
      </trkpt>
      <trkpt lat="43.02690399999966" lon="-1.3035899999999987">
        <ele>1288.015</ele>
        <time>2022-08-24T10:46:48Z</time>
      </trkpt>
      <trkpt lat="43.02689199999966" lon="-1.3036429999999988">
        <ele>1287.685</ele>
        <time>2022-08-24T10:46:49Z</time>
      </trkpt>
      <trkpt lat="43.026882999999664" lon="-1.3037019999999988">
        <ele>1287.065</ele>
        <time>2022-08-24T10:46:50Z</time>
      </trkpt>
      <trkpt lat="43.026876999999665" lon="-1.3037449999999988">
        <ele>1286.661</ele>
        <time>2022-08-24T10:46:51Z</time>
      </trkpt>
      <trkpt lat="43.026870999999666" lon="-1.303778999999999">
        <ele>1286.243</ele>
        <time>2022-08-24T10:46:52Z</time>
      </trkpt>
      <trkpt lat="43.026867999999666" lon="-1.303801999999999">
        <ele>1285.840</ele>
        <time>2022-08-24T10:46:53Z</time>
      </trkpt>
      <trkpt lat="43.02686499999967" lon="-1.303828999999999">
        <ele>1285.683</ele>
        <time>2022-08-24T10:46:54Z</time>
      </trkpt>
      <trkpt lat="43.02685799999967" lon="-1.303858999999999">
        <ele>1285.447</ele>
        <time>2022-08-24T10:46:55Z</time>
      </trkpt>
      <trkpt lat="43.02684599999967" lon="-1.303885999999999">
        <ele>1285.236</ele>
        <time>2022-08-24T10:46:56Z</time>
      </trkpt>
      <trkpt lat="43.026833999999674" lon="-1.303907999999999">
        <ele>1285.252</ele>
        <time>2022-08-24T10:46:57Z</time>
      </trkpt>
      <trkpt lat="43.026824999999675" lon="-1.3039199999999989">
        <ele>1285.253</ele>
        <time>2022-08-24T10:46:58Z</time>
      </trkpt>
      <trkpt lat="43.026813999999675" lon="-1.303940999999999">
        <ele>1285.208</ele>
        <time>2022-08-24T10:46:59Z</time>
      </trkpt>
      <trkpt lat="43.026804999999676" lon="-1.3039609999999988">
        <ele>1285.209</ele>
        <time>2022-08-24T10:47:00Z</time>
      </trkpt>
      <trkpt lat="43.026706999999675" lon="-1.3041499999999988">
        <ele>1285.426</ele>
        <time>2022-08-24T10:47:08Z</time>
      </trkpt>
      <trkpt lat="43.02669199999968" lon="-1.3041709999999989">
        <ele>1285.456</ele>
        <time>2022-08-24T10:47:09Z</time>
      </trkpt>
      <trkpt lat="43.02667799999968" lon="-1.3041929999999988">
        <ele>1284.646</ele>
        <time>2022-08-24T10:47:10Z</time>
      </trkpt>
      <trkpt lat="43.026664999999674" lon="-1.3042139999999989">
        <ele>1284.232</ele>
        <time>2022-08-24T10:47:11Z</time>
      </trkpt>
      <trkpt lat="43.02665199999967" lon="-1.3042329999999989">
        <ele>1283.824</ele>
        <time>2022-08-24T10:47:12Z</time>
      </trkpt>
      <trkpt lat="43.02663899999967" lon="-1.3042499999999988">
        <ele>1283.431</ele>
        <time>2022-08-24T10:47:13Z</time>
      </trkpt>
      <trkpt lat="43.02660199999967" lon="-1.3042879999999988">
        <ele>1281.824</ele>
        <time>2022-08-24T10:47:15Z</time>
      </trkpt>
      <trkpt lat="43.02658499999967" lon="-1.3043129999999987">
        <ele>1281.478</ele>
        <time>2022-08-24T10:47:16Z</time>
      </trkpt>
      <trkpt lat="43.02657699999967" lon="-1.3043409999999986">
        <ele>1280.887</ele>
        <time>2022-08-24T10:47:17Z</time>
      </trkpt>
      <trkpt lat="43.02657299999967" lon="-1.3043739999999986">
        <ele>1280.682</ele>
        <time>2022-08-24T10:47:18Z</time>
      </trkpt>
      <trkpt lat="43.026571999999675" lon="-1.3044119999999986">
        <ele>1280.043</ele>
        <time>2022-08-24T10:47:19Z</time>
      </trkpt>
      <trkpt lat="43.02657299999967" lon="-1.3044509999999985">
        <ele>1279.817</ele>
        <time>2022-08-24T10:47:20Z</time>
      </trkpt>
      <trkpt lat="43.026571999999675" lon="-1.3044919999999984">
        <ele>1279.409</ele>
        <time>2022-08-24T10:47:21Z</time>
      </trkpt>
      <trkpt lat="43.02657099999968" lon="-1.3045769999999983">
        <ele>1278.269</ele>
        <time>2022-08-24T10:47:23Z</time>
      </trkpt>
      <trkpt lat="43.02655599999968" lon="-1.3046629999999984">
        <ele>1276.649</ele>
        <time>2022-08-24T10:47:25Z</time>
      </trkpt>
      <trkpt lat="43.02654399999968" lon="-1.3047029999999984">
        <ele>1275.679</ele>
        <time>2022-08-24T10:47:26Z</time>
      </trkpt>
      <trkpt lat="43.02653099999968" lon="-1.3047389999999983">
        <ele>1275.085</ele>
        <time>2022-08-24T10:47:27Z</time>
      </trkpt>
      <trkpt lat="43.02651499999968" lon="-1.3047729999999984">
        <ele>1274.087</ele>
        <time>2022-08-24T10:47:28Z</time>
      </trkpt>
      <trkpt lat="43.026498999999674" lon="-1.3048029999999984">
        <ele>1272.864</ele>
        <time>2022-08-24T10:47:29Z</time>
      </trkpt>
      <trkpt lat="43.02648299999967" lon="-1.3048339999999983">
        <ele>1272.427</ele>
        <time>2022-08-24T10:47:30Z</time>
      </trkpt>
      <trkpt lat="43.026470999999674" lon="-1.3048589999999982">
        <ele>1272.071</ele>
        <time>2022-08-24T10:47:31Z</time>
      </trkpt>
      <trkpt lat="43.02645999999967" lon="-1.3048759999999981">
        <ele>1271.870</ele>
        <time>2022-08-24T10:47:32Z</time>
      </trkpt>
      <trkpt lat="43.02645199999967" lon="-1.304889999999998">
        <ele>1271.262</ele>
        <time>2022-08-24T10:47:33Z</time>
      </trkpt>
      <trkpt lat="43.02643899999967" lon="-1.304922999999998">
        <ele>1267.683</ele>
        <time>2022-08-24T10:48:03Z</time>
      </trkpt>
      <trkpt lat="43.02636199999967" lon="-1.305111999999998">
        <ele>1267.211</ele>
        <time>2022-08-24T10:48:08Z</time>
      </trkpt>
      <trkpt lat="43.02634799999967" lon="-1.3051489999999981">
        <ele>1267.209</ele>
        <time>2022-08-24T10:48:09Z</time>
      </trkpt>
      <trkpt lat="43.02631999999967" lon="-1.3052299999999981">
        <ele>1266.617</ele>
        <time>2022-08-24T10:48:11Z</time>
      </trkpt>
      <trkpt lat="43.02630299999967" lon="-1.305267999999998">
        <ele>1266.237</ele>
        <time>2022-08-24T10:48:12Z</time>
      </trkpt>
      <trkpt lat="43.02628699999967" lon="-1.305303999999998">
        <ele>1265.837</ele>
        <time>2022-08-24T10:48:13Z</time>
      </trkpt>
      <trkpt lat="43.02626899999967" lon="-1.305337999999998">
        <ele>1265.293</ele>
        <time>2022-08-24T10:48:14Z</time>
      </trkpt>
      <trkpt lat="43.026233999999675" lon="-1.3053999999999981">
        <ele>1264.275</ele>
        <time>2022-08-24T10:48:16Z</time>
      </trkpt>
      <trkpt lat="43.026213999999676" lon="-1.3054339999999982">
        <ele>1263.882</ele>
        <time>2022-08-24T10:48:17Z</time>
      </trkpt>
      <trkpt lat="43.02617299999967" lon="-1.3054979999999983">
        <ele>1263.695</ele>
        <time>2022-08-24T10:48:19Z</time>
      </trkpt>
      <trkpt lat="43.02613099999967" lon="-1.3055649999999983">
        <ele>1263.089</ele>
        <time>2022-08-24T10:48:21Z</time>
      </trkpt>
      <trkpt lat="43.02606599999967" lon="-1.3056899999999982">
        <ele>1262.428</ele>
        <time>2022-08-24T10:48:24Z</time>
      </trkpt>
      <trkpt lat="43.02603799999967" lon="-1.3057939999999983">
        <ele>1261.859</ele>
        <time>2022-08-24T10:48:26Z</time>
      </trkpt>
      <trkpt lat="43.02602199999967" lon="-1.3059029999999983">
        <ele>1260.803</ele>
        <time>2022-08-24T10:48:28Z</time>
      </trkpt>
      <trkpt lat="43.02601599999967" lon="-1.3059529999999984">
        <ele>1259.623</ele>
        <time>2022-08-24T10:48:29Z</time>
      </trkpt>
      <trkpt lat="43.026008999999675" lon="-1.3059999999999983">
        <ele>1259.009</ele>
        <time>2022-08-24T10:48:30Z</time>
      </trkpt>
      <trkpt lat="43.026000999999674" lon="-1.3060429999999983">
        <ele>1258.446</ele>
        <time>2022-08-24T10:48:31Z</time>
      </trkpt>
      <trkpt lat="43.02599099999967" lon="-1.3060789999999982">
        <ele>1258.226</ele>
        <time>2022-08-24T10:48:32Z</time>
      </trkpt>
      <trkpt lat="43.02598099999967" lon="-1.3061129999999983">
        <ele>1257.436</ele>
        <time>2022-08-24T10:48:33Z</time>
      </trkpt>
      <trkpt lat="43.02596599999967" lon="-1.3061479999999983">
        <ele>1257.092</ele>
        <time>2022-08-24T10:48:34Z</time>
      </trkpt>
      <trkpt lat="43.02593999999967" lon="-1.3061799999999983">
        <ele>1256.624</ele>
        <time>2022-08-24T10:48:35Z</time>
      </trkpt>
      <trkpt lat="43.02590299999967" lon="-1.3062049999999983">
        <ele>1256.051</ele>
        <time>2022-08-24T10:48:36Z</time>
      </trkpt>
      <trkpt lat="43.02586199999967" lon="-1.3062219999999982">
        <ele>1255.874</ele>
        <time>2022-08-24T10:48:37Z</time>
      </trkpt>
      <trkpt lat="43.02582199999967" lon="-1.3062309999999981">
        <ele>1255.498</ele>
        <time>2022-08-24T10:48:38Z</time>
      </trkpt>
      <trkpt lat="43.02578099999967" lon="-1.306239999999998">
        <ele>1255.247</ele>
        <time>2022-08-24T10:48:39Z</time>
      </trkpt>
      <trkpt lat="43.02573799999967" lon="-1.3062549999999982">
        <ele>1255.029</ele>
        <time>2022-08-24T10:48:40Z</time>
      </trkpt>
      <trkpt lat="43.02569599999967" lon="-1.3062649999999982">
        <ele>1255.000</ele>
        <time>2022-08-24T10:48:41Z</time>
      </trkpt>
      <trkpt lat="43.02565299999967" lon="-1.3062739999999982">
        <ele>1254.820</ele>
        <time>2022-08-24T10:48:42Z</time>
      </trkpt>
      <trkpt lat="43.02551499999967" lon="-1.3063039999999981">
        <ele>1254.009</ele>
        <time>2022-08-24T10:48:45Z</time>
      </trkpt>
      <trkpt lat="43.02547499999967" lon="-1.3063009999999982">
        <ele>1253.883</ele>
        <time>2022-08-24T10:48:46Z</time>
      </trkpt>
      <trkpt lat="43.02544199999967" lon="-1.3062969999999983">
        <ele>1253.023</ele>
        <time>2022-08-24T10:48:47Z</time>
      </trkpt>
      <trkpt lat="43.02541799999967" lon="-1.3062949999999982">
        <ele>1252.263</ele>
        <time>2022-08-24T10:48:48Z</time>
      </trkpt>
      <trkpt lat="43.02540599999967" lon="-1.3062929999999982">
        <ele>1249.639</ele>
        <time>2022-08-24T10:48:52Z</time>
      </trkpt>
      <trkpt lat="43.02536699999967" lon="-1.3062929999999982">
        <ele>1248.641</ele>
        <time>2022-08-24T10:48:54Z</time>
      </trkpt>
      <trkpt lat="43.02533299999967" lon="-1.306293999999998">
        <ele>1248.268</ele>
        <time>2022-08-24T10:48:55Z</time>
      </trkpt>
      <trkpt lat="43.02526999999967" lon="-1.306312999999998">
        <ele>1247.861</ele>
        <time>2022-08-24T10:48:57Z</time>
      </trkpt>
      <trkpt lat="43.025248999999675" lon="-1.306336999999998">
        <ele>1247.865</ele>
        <time>2022-08-24T10:48:58Z</time>
      </trkpt>
      <trkpt lat="43.02523699999968" lon="-1.306364999999998">
        <ele>1247.884</ele>
        <time>2022-08-24T10:48:59Z</time>
      </trkpt>
      <trkpt lat="43.02523099999968" lon="-1.306391999999998">
        <ele>1247.658</ele>
        <time>2022-08-24T10:49:00Z</time>
      </trkpt>
      <trkpt lat="43.025231999999676" lon="-1.306418999999998">
        <ele>1247.652</ele>
        <time>2022-08-24T10:49:01Z</time>
      </trkpt>
      <trkpt lat="43.02523599999967" lon="-1.306446999999998">
        <ele>1247.417</ele>
        <time>2022-08-24T10:49:02Z</time>
      </trkpt>
      <trkpt lat="43.02524799999967" lon="-1.3064779999999978">
        <ele>1247.209</ele>
        <time>2022-08-24T10:49:03Z</time>
      </trkpt>
      <trkpt lat="43.02528199999967" lon="-1.3065349999999978">
        <ele>1247.226</ele>
        <time>2022-08-24T10:49:05Z</time>
      </trkpt>
      <trkpt lat="43.02530499999967" lon="-1.3065709999999977">
        <ele>1246.486</ele>
        <time>2022-08-24T10:49:06Z</time>
      </trkpt>
      <trkpt lat="43.02533299999967" lon="-1.3066109999999977">
        <ele>1245.256</ele>
        <time>2022-08-24T10:49:07Z</time>
      </trkpt>
      <trkpt lat="43.02539599999967" lon="-1.3066999999999978">
        <ele>1244.252</ele>
        <time>2022-08-24T10:49:09Z</time>
      </trkpt>
      <trkpt lat="43.02546299999967" lon="-1.3067919999999977">
        <ele>1243.264</ele>
        <time>2022-08-24T10:49:11Z</time>
      </trkpt>
      <trkpt lat="43.025536999999666" lon="-1.3068799999999978">
        <ele>1242.041</ele>
        <time>2022-08-24T10:49:13Z</time>
      </trkpt>
      <trkpt lat="43.025573999999665" lon="-1.3069199999999979">
        <ele>1241.014</ele>
        <time>2022-08-24T10:49:14Z</time>
      </trkpt>
      <trkpt lat="43.025610999999664" lon="-1.3069589999999978">
        <ele>1240.438</ele>
        <time>2022-08-24T10:49:15Z</time>
      </trkpt>
      <trkpt lat="43.02564899999967" lon="-1.3069939999999978">
        <ele>1239.437</ele>
        <time>2022-08-24T10:49:16Z</time>
      </trkpt>
      <trkpt lat="43.025685999999666" lon="-1.3070239999999977">
        <ele>1239.285</ele>
        <time>2022-08-24T10:49:17Z</time>
      </trkpt>
      <trkpt lat="43.02572199999967" lon="-1.3070519999999977">
        <ele>1238.489</ele>
        <time>2022-08-24T10:49:18Z</time>
      </trkpt>
      <trkpt lat="43.025753999999665" lon="-1.3070729999999977">
        <ele>1237.817</ele>
        <time>2022-08-24T10:49:19Z</time>
      </trkpt>
      <trkpt lat="43.02577999999966" lon="-1.3070909999999978">
        <ele>1237.609</ele>
        <time>2022-08-24T10:49:20Z</time>
      </trkpt>
      <trkpt lat="43.02580599999966" lon="-1.3071099999999978">
        <ele>1236.869</ele>
        <time>2022-08-24T10:49:21Z</time>
      </trkpt>
      <trkpt lat="43.02583199999966" lon="-1.3071349999999977">
        <ele>1236.659</ele>
        <time>2022-08-24T10:49:22Z</time>
      </trkpt>
      <trkpt lat="43.02586699999966" lon="-1.3071999999999977">
        <ele>1235.249</ele>
        <time>2022-08-24T10:49:24Z</time>
      </trkpt>
      <trkpt lat="43.025875999999656" lon="-1.3072369999999978">
        <ele>1234.475</ele>
        <time>2022-08-24T10:49:25Z</time>
      </trkpt>
      <trkpt lat="43.02587799999966" lon="-1.3072799999999978">
        <ele>1234.087</ele>
        <time>2022-08-24T10:49:26Z</time>
      </trkpt>
      <trkpt lat="43.02587399999966" lon="-1.3073259999999978">
        <ele>1233.874</ele>
        <time>2022-08-24T10:49:27Z</time>
      </trkpt>
      <trkpt lat="43.02586399999966" lon="-1.3073689999999978">
        <ele>1233.417</ele>
        <time>2022-08-24T10:49:28Z</time>
      </trkpt>
      <trkpt lat="43.02585199999966" lon="-1.3074209999999977">
        <ele>1233.421</ele>
        <time>2022-08-24T10:49:29Z</time>
      </trkpt>
      <trkpt lat="43.02584799999966" lon="-1.3074569999999976">
        <ele>1233.220</ele>
        <time>2022-08-24T10:49:30Z</time>
      </trkpt>
      <trkpt lat="43.02584599999966" lon="-1.3075019999999977">
        <ele>1233.063</ele>
        <time>2022-08-24T10:49:31Z</time>
      </trkpt>
      <trkpt lat="43.02584499999966" lon="-1.3075379999999976">
        <ele>1232.844</ele>
        <time>2022-08-24T10:49:32Z</time>
      </trkpt>
      <trkpt lat="43.02584199999966" lon="-1.3075689999999975">
        <ele>1232.418</ele>
        <time>2022-08-24T10:49:33Z</time>
      </trkpt>
      <trkpt lat="43.02583999999966" lon="-1.3076009999999976">
        <ele>1232.209</ele>
        <time>2022-08-24T10:49:34Z</time>
      </trkpt>
      <trkpt lat="43.02583999999966" lon="-1.3076319999999975">
        <ele>1231.867</ele>
        <time>2022-08-24T10:49:35Z</time>
      </trkpt>
      <trkpt lat="43.02583699999966" lon="-1.3076589999999975">
        <ele>1231.677</ele>
        <time>2022-08-24T10:49:36Z</time>
      </trkpt>
      <trkpt lat="43.02583399999966" lon="-1.3076819999999976">
        <ele>1230.447</ele>
        <time>2022-08-24T10:49:37Z</time>
      </trkpt>
      <trkpt lat="43.02582899999966" lon="-1.3077059999999976">
        <ele>1229.693</ele>
        <time>2022-08-24T10:49:38Z</time>
      </trkpt>
      <trkpt lat="43.025824999999664" lon="-1.3077299999999976">
        <ele>1229.035</ele>
        <time>2022-08-24T10:49:39Z</time>
      </trkpt>
      <trkpt lat="43.02581799999967" lon="-1.3077799999999977">
        <ele>1228.032</ele>
        <time>2022-08-24T10:49:41Z</time>
      </trkpt>
      <trkpt lat="43.02581499999967" lon="-1.3078009999999978">
        <ele>1227.685</ele>
        <time>2022-08-24T10:49:42Z</time>
      </trkpt>
      <trkpt lat="43.02580299999967" lon="-1.3078529999999977">
        <ele>1227.099</ele>
        <time>2022-08-24T10:49:44Z</time>
      </trkpt>
      <trkpt lat="43.02580199999967" lon="-1.3078769999999977">
        <ele>1226.088</ele>
        <time>2022-08-24T10:49:45Z</time>
      </trkpt>
      <trkpt lat="43.02580299999967" lon="-1.3078999999999978">
        <ele>1225.663</ele>
        <time>2022-08-24T10:49:46Z</time>
      </trkpt>
      <trkpt lat="43.02579999999967" lon="-1.3079349999999978">
        <ele>1225.244</ele>
        <time>2022-08-24T10:49:47Z</time>
      </trkpt>
      <trkpt lat="43.02579199999967" lon="-1.3079619999999978">
        <ele>1225.218</ele>
        <time>2022-08-24T10:49:48Z</time>
      </trkpt>
      <trkpt lat="43.02577499999967" lon="-1.308011999999998">
        <ele>1224.409</ele>
        <time>2022-08-24T10:49:50Z</time>
      </trkpt>
      <trkpt lat="43.025764999999666" lon="-1.308043999999998">
        <ele>1224.237</ele>
        <time>2022-08-24T10:49:51Z</time>
      </trkpt>
      <trkpt lat="43.02575799999967" lon="-1.308067999999998">
        <ele>1223.887</ele>
        <time>2022-08-24T10:49:52Z</time>
      </trkpt>
      <trkpt lat="43.02573899999967" lon="-1.308122999999998">
        <ele>1223.257</ele>
        <time>2022-08-24T10:49:54Z</time>
      </trkpt>
      <trkpt lat="43.02570999999967" lon="-1.308216999999998">
        <ele>1221.873</ele>
        <time>2022-08-24T10:49:57Z</time>
      </trkpt>
      <trkpt lat="43.02570199999967" lon="-1.3082449999999979">
        <ele>1221.635</ele>
        <time>2022-08-24T10:49:58Z</time>
      </trkpt>
      <trkpt lat="43.02569099999967" lon="-1.3082719999999979">
        <ele>1221.252</ele>
        <time>2022-08-24T10:49:59Z</time>
      </trkpt>
      <trkpt lat="43.02568299999967" lon="-1.3082999999999978">
        <ele>1221.065</ele>
        <time>2022-08-24T10:50:00Z</time>
      </trkpt>
      <trkpt lat="43.02567399999967" lon="-1.3083329999999977">
        <ele>1220.819</ele>
        <time>2022-08-24T10:50:01Z</time>
      </trkpt>
      <trkpt lat="43.025646999999665" lon="-1.3084149999999977">
        <ele>1219.668</ele>
        <time>2022-08-24T10:50:04Z</time>
      </trkpt>
      <trkpt lat="43.025632999999665" lon="-1.3084369999999976">
        <ele>1219.467</ele>
        <time>2022-08-24T10:50:05Z</time>
      </trkpt>
      <trkpt lat="43.025618999999665" lon="-1.3084619999999976">
        <ele>1218.881</ele>
        <time>2022-08-24T10:50:06Z</time>
      </trkpt>
      <trkpt lat="43.025601999999665" lon="-1.3084909999999976">
        <ele>1218.419</ele>
        <time>2022-08-24T10:50:07Z</time>
      </trkpt>
      <trkpt lat="43.02556099999966" lon="-1.3085489999999975">
        <ele>1217.209</ele>
        <time>2022-08-24T10:50:09Z</time>
      </trkpt>
      <trkpt lat="43.025517999999664" lon="-1.3086099999999976">
        <ele>1216.287</ele>
        <time>2022-08-24T10:50:11Z</time>
      </trkpt>
      <trkpt lat="43.02549899999966" lon="-1.3086369999999976">
        <ele>1215.817</ele>
        <time>2022-08-24T10:50:12Z</time>
      </trkpt>
      <trkpt lat="43.02548299999966" lon="-1.3086679999999975">
        <ele>1215.077</ele>
        <time>2022-08-24T10:50:13Z</time>
      </trkpt>
      <trkpt lat="43.02547499999966" lon="-1.3086889999999975">
        <ele>1214.623</ele>
        <time>2022-08-24T10:50:14Z</time>
      </trkpt>
      <trkpt lat="43.02546599999966" lon="-1.3087159999999975">
        <ele>1213.675</ele>
        <time>2022-08-24T10:50:15Z</time>
      </trkpt>
      <trkpt lat="43.02545399999966" lon="-1.3087429999999975">
        <ele>1212.482</ele>
        <time>2022-08-24T10:50:16Z</time>
      </trkpt>
      <trkpt lat="43.025413999999664" lon="-1.3088009999999974">
        <ele>1211.065</ele>
        <time>2022-08-24T10:50:18Z</time>
      </trkpt>
      <trkpt lat="43.02539199999966" lon="-1.3088339999999974">
        <ele>1210.669</ele>
        <time>2022-08-24T10:50:19Z</time>
      </trkpt>
      <trkpt lat="43.02538199999966" lon="-1.3088519999999975">
        <ele>1209.858</ele>
        <time>2022-08-24T10:50:20Z</time>
      </trkpt>
      <trkpt lat="43.02535699999966" lon="-1.3089219999999975">
        <ele>1208.636</ele>
        <time>2022-08-24T10:50:22Z</time>
      </trkpt>
      <trkpt lat="43.025318999999655" lon="-1.3090849999999974">
        <ele>1207.217</ele>
        <time>2022-08-24T10:50:25Z</time>
      </trkpt>
      <trkpt lat="43.02525599999966" lon="-1.3092679999999974">
        <ele>1205.618</ele>
        <time>2022-08-24T10:50:28Z</time>
      </trkpt>
      <trkpt lat="43.02523599999966" lon="-1.3093269999999975">
        <ele>1205.209</ele>
        <time>2022-08-24T10:50:29Z</time>
      </trkpt>
      <trkpt lat="43.025191999999656" lon="-1.3094469999999974">
        <ele>1204.484</ele>
        <time>2022-08-24T10:50:31Z</time>
      </trkpt>
      <trkpt lat="43.02517199999966" lon="-1.3095089999999974">
        <ele>1204.274</ele>
        <time>2022-08-24T10:50:32Z</time>
      </trkpt>
      <trkpt lat="43.025129999999656" lon="-1.3096379999999974">
        <ele>1203.234</ele>
        <time>2022-08-24T10:50:34Z</time>
      </trkpt>
      <trkpt lat="43.025087999999656" lon="-1.3097979999999974">
        <ele>1202.070</ele>
        <time>2022-08-24T10:50:36Z</time>
      </trkpt>
      <trkpt lat="43.02506699999966" lon="-1.3098679999999974">
        <ele>1201.472</ele>
        <time>2022-08-24T10:50:37Z</time>
      </trkpt>
      <trkpt lat="43.02504999999966" lon="-1.3099349999999974">
        <ele>1200.869</ele>
        <time>2022-08-24T10:50:38Z</time>
      </trkpt>
      <trkpt lat="43.02503699999966" lon="-1.3099889999999974">
        <ele>1199.832</ele>
        <time>2022-08-24T10:50:39Z</time>
      </trkpt>
      <trkpt lat="43.025020999999654" lon="-1.3100489999999974">
        <ele>1199.056</ele>
        <time>2022-08-24T10:50:40Z</time>
      </trkpt>
      <trkpt lat="43.025009999999654" lon="-1.3101089999999973">
        <ele>1198.495</ele>
        <time>2022-08-24T10:50:41Z</time>
      </trkpt>
      <trkpt lat="43.02500499999965" lon="-1.3101689999999973">
        <ele>1196.882</ele>
        <time>2022-08-24T10:50:42Z</time>
      </trkpt>
      <trkpt lat="43.02500199999965" lon="-1.3102389999999973">
        <ele>1196.243</ele>
        <time>2022-08-24T10:50:43Z</time>
      </trkpt>
      <trkpt lat="43.025000999999655" lon="-1.3102849999999973">
        <ele>1195.417</ele>
        <time>2022-08-24T10:50:44Z</time>
      </trkpt>
      <trkpt lat="43.025003999999655" lon="-1.3104149999999972">
        <ele>1194.209</ele>
        <time>2022-08-24T10:50:46Z</time>
      </trkpt>
      <trkpt lat="43.025008999999656" lon="-1.3105479999999972">
        <ele>1193.029</ele>
        <time>2022-08-24T10:50:48Z</time>
      </trkpt>
      <trkpt lat="43.025009999999654" lon="-1.3105989999999972">
        <ele>1192.659</ele>
        <time>2022-08-24T10:50:49Z</time>
      </trkpt>
      <trkpt lat="43.025014999999655" lon="-1.3107439999999972">
        <ele>1191.459</ele>
        <time>2022-08-24T10:50:51Z</time>
      </trkpt>
      <trkpt lat="43.02502199999965" lon="-1.3108639999999971">
        <ele>1190.275</ele>
        <time>2022-08-24T10:50:53Z</time>
      </trkpt>
      <trkpt lat="43.02502899999965" lon="-1.311077999999997">
        <ele>1188.687</ele>
        <time>2022-08-24T10:50:56Z</time>
      </trkpt>
      <trkpt lat="43.02502599999965" lon="-1.3112309999999971">
        <ele>1187.624</ele>
        <time>2022-08-24T10:50:58Z</time>
      </trkpt>
      <trkpt lat="43.02502199999965" lon="-1.3113079999999973">
        <ele>1186.687</ele>
        <time>2022-08-24T10:50:59Z</time>
      </trkpt>
      <trkpt lat="43.02501599999965" lon="-1.3114729999999972">
        <ele>1185.031</ele>
        <time>2022-08-24T10:51:01Z</time>
      </trkpt>
      <trkpt lat="43.02501599999965" lon="-1.3116499999999973">
        <ele>1183.690</ele>
        <time>2022-08-24T10:51:03Z</time>
      </trkpt>
      <trkpt lat="43.02502499999965" lon="-1.3117879999999973">
        <ele>1182.087</ele>
        <time>2022-08-24T10:51:05Z</time>
      </trkpt>
      <trkpt lat="43.02503699999965" lon="-1.3118689999999973">
        <ele>1180.842</ele>
        <time>2022-08-24T10:51:06Z</time>
      </trkpt>
      <trkpt lat="43.02506499999965" lon="-1.3120409999999973">
        <ele>1179.626</ele>
        <time>2022-08-24T10:51:08Z</time>
      </trkpt>
      <trkpt lat="43.02507599999965" lon="-1.3122059999999973">
        <ele>1178.409</ele>
        <time>2022-08-24T10:51:10Z</time>
      </trkpt>
      <trkpt lat="43.02508299999965" lon="-1.3122859999999974">
        <ele>1178.039</ele>
        <time>2022-08-24T10:51:11Z</time>
      </trkpt>
      <trkpt lat="43.02507999999965" lon="-1.3123809999999974">
        <ele>1176.869</ele>
        <time>2022-08-24T10:51:12Z</time>
      </trkpt>
      <trkpt lat="43.025069999999644" lon="-1.3124729999999973">
        <ele>1175.629</ele>
        <time>2022-08-24T10:51:13Z</time>
      </trkpt>
      <trkpt lat="43.02505099999964" lon="-1.3126609999999974">
        <ele>1174.875</ele>
        <time>2022-08-24T10:51:15Z</time>
      </trkpt>
      <trkpt lat="43.02503999999964" lon="-1.3127549999999975">
        <ele>1174.257</ele>
        <time>2022-08-24T10:51:16Z</time>
      </trkpt>
      <trkpt lat="43.02503799999964" lon="-1.3128409999999975">
        <ele>1172.684</ele>
        <time>2022-08-24T10:51:17Z</time>
      </trkpt>
      <trkpt lat="43.02503199999964" lon="-1.3129069999999974">
        <ele>1171.667</ele>
        <time>2022-08-24T10:51:18Z</time>
      </trkpt>
      <trkpt lat="43.02500399999964" lon="-1.3130179999999974">
        <ele>1170.861</ele>
        <time>2022-08-24T10:51:19Z</time>
      </trkpt>
      <trkpt lat="43.02498899999964" lon="-1.3131599999999974">
        <ele>1169.870</ele>
        <time>2022-08-24T10:51:20Z</time>
      </trkpt>
      <trkpt lat="43.02496899999964" lon="-1.3132739999999974">
        <ele>1169.694</ele>
        <time>2022-08-24T10:51:21Z</time>
      </trkpt>
      <trkpt lat="43.024959999999645" lon="-1.3133529999999973">
        <ele>1169.257</ele>
        <time>2022-08-24T10:51:22Z</time>
      </trkpt>
      <trkpt lat="43.024956999999645" lon="-1.3134399999999973">
        <ele>1168.422</ele>
        <time>2022-08-24T10:51:23Z</time>
      </trkpt>
      <trkpt lat="43.02494799999965" lon="-1.3135359999999974">
        <ele>1167.209</ele>
        <time>2022-08-24T10:51:24Z</time>
      </trkpt>
      <trkpt lat="43.02493899999965" lon="-1.3136099999999973">
        <ele>1166.240</ele>
        <time>2022-08-24T10:51:25Z</time>
      </trkpt>
      <trkpt lat="43.02492099999965" lon="-1.3136879999999973">
        <ele>1165.650</ele>
        <time>2022-08-24T10:51:26Z</time>
      </trkpt>
      <trkpt lat="43.02490499999965" lon="-1.3137369999999973">
        <ele>1164.630</ele>
        <time>2022-08-24T10:51:27Z</time>
      </trkpt>
      <trkpt lat="43.02488999999965" lon="-1.3138019999999972">
        <ele>1164.036</ele>
        <time>2022-08-24T10:51:28Z</time>
      </trkpt>
      <trkpt lat="43.02485999999965" lon="-1.3139309999999973">
        <ele>1162.228</ele>
        <time>2022-08-24T10:51:30Z</time>
      </trkpt>
      <trkpt lat="43.02481499999965" lon="-1.3139719999999973">
        <ele>1161.685</ele>
        <time>2022-08-24T10:51:31Z</time>
      </trkpt>
      <trkpt lat="43.02477199999965" lon="-1.3139849999999973">
        <ele>1160.888</ele>
        <time>2022-08-24T10:51:32Z</time>
      </trkpt>
      <trkpt lat="43.02471299999965" lon="-1.3139789999999973">
        <ele>1160.472</ele>
        <time>2022-08-24T10:51:33Z</time>
      </trkpt>
      <trkpt lat="43.02467099999965" lon="-1.3139609999999973">
        <ele>1159.621</ele>
        <time>2022-08-24T10:51:34Z</time>
      </trkpt>
      <trkpt lat="43.02462799999965" lon="-1.3139029999999974">
        <ele>1159.447</ele>
        <time>2022-08-24T10:51:35Z</time>
      </trkpt>
      <trkpt lat="43.02460899999965" lon="-1.3137929999999973">
        <ele>1158.429</ele>
        <time>2022-08-24T10:51:37Z</time>
      </trkpt>
      <trkpt lat="43.02461899999965" lon="-1.3135749999999973">
        <ele>1157.621</ele>
        <time>2022-08-24T10:51:40Z</time>
      </trkpt>
      <trkpt lat="43.02462299999965" lon="-1.3135049999999973">
        <ele>1157.009</ele>
        <time>2022-08-24T10:51:41Z</time>
      </trkpt>
      <trkpt lat="43.02462599999965" lon="-1.3134379999999972">
        <ele>1156.875</ele>
        <time>2022-08-24T10:51:42Z</time>
      </trkpt>
      <trkpt lat="43.02462599999965" lon="-1.3133849999999971">
        <ele>1156.645</ele>
        <time>2022-08-24T10:51:43Z</time>
      </trkpt>
      <trkpt lat="43.02462599999965" lon="-1.3133249999999972">
        <ele>1156.425</ele>
        <time>2022-08-24T10:51:44Z</time>
      </trkpt>
      <trkpt lat="43.02463199999965" lon="-1.3131949999999972">
        <ele>1155.891</ele>
        <time>2022-08-24T10:51:46Z</time>
      </trkpt>
      <trkpt lat="43.024632999999646" lon="-1.3131329999999972">
        <ele>1155.623</ele>
        <time>2022-08-24T10:51:47Z</time>
      </trkpt>
      <trkpt lat="43.02463499999965" lon="-1.3130769999999972">
        <ele>1155.450</ele>
        <time>2022-08-24T10:51:48Z</time>
      </trkpt>
      <trkpt lat="43.02463799999965" lon="-1.313023999999997">
        <ele>1155.243</ele>
        <time>2022-08-24T10:51:49Z</time>
      </trkpt>
      <trkpt lat="43.02464099999965" lon="-1.3129849999999972">
        <ele>1155.077</ele>
        <time>2022-08-24T10:51:50Z</time>
      </trkpt>
      <trkpt lat="43.02463999999965" lon="-1.3129549999999972">
        <ele>1154.436</ele>
        <time>2022-08-24T10:51:51Z</time>
      </trkpt>
      <trkpt lat="43.02463399999965" lon="-1.3129269999999973">
        <ele>1154.276</ele>
        <time>2022-08-24T10:51:52Z</time>
      </trkpt>
      <trkpt lat="43.02462099999965" lon="-1.3129039999999972">
        <ele>1154.090</ele>
        <time>2022-08-24T10:51:53Z</time>
      </trkpt>
      <trkpt lat="43.02457899999965" lon="-1.3129069999999972">
        <ele>1153.219</ele>
        <time>2022-08-24T10:51:55Z</time>
      </trkpt>
      <trkpt lat="43.024551999999645" lon="-1.3129369999999971">
        <ele>1152.609</ele>
        <time>2022-08-24T10:51:56Z</time>
      </trkpt>
      <trkpt lat="43.024489999999645" lon="-1.3130309999999972">
        <ele>1151.848</ele>
        <time>2022-08-24T10:51:58Z</time>
      </trkpt>
      <trkpt lat="43.02445499999965" lon="-1.3130979999999972">
        <ele>1151.438</ele>
        <time>2022-08-24T10:51:59Z</time>
      </trkpt>
      <trkpt lat="43.02441899999965" lon="-1.3131629999999972">
        <ele>1150.888</ele>
        <time>2022-08-24T10:52:00Z</time>
      </trkpt>
      <trkpt lat="43.02438399999965" lon="-1.3132249999999972">
        <ele>1150.454</ele>
        <time>2022-08-24T10:52:01Z</time>
      </trkpt>
      <trkpt lat="43.02434799999965" lon="-1.3132879999999971">
        <ele>1149.476</ele>
        <time>2022-08-24T10:52:02Z</time>
      </trkpt>
      <trkpt lat="43.02430899999965" lon="-1.313345999999997">
        <ele>1148.473</ele>
        <time>2022-08-24T10:52:03Z</time>
      </trkpt>
      <trkpt lat="43.02422699999965" lon="-1.313444999999997">
        <ele>1147.276</ele>
        <time>2022-08-24T10:52:05Z</time>
      </trkpt>
      <trkpt lat="43.02418399999965" lon="-1.313487999999997">
        <ele>1146.850</ele>
        <time>2022-08-24T10:52:06Z</time>
      </trkpt>
      <trkpt lat="43.02414199999965" lon="-1.313523999999997">
        <ele>1145.849</ele>
        <time>2022-08-24T10:52:07Z</time>
      </trkpt>
      <trkpt lat="43.024100999999646" lon="-1.313553999999997">
        <ele>1145.663</ele>
        <time>2022-08-24T10:52:08Z</time>
      </trkpt>
      <trkpt lat="43.02405999999964" lon="-1.313578999999997">
        <ele>1145.444</ele>
        <time>2022-08-24T10:52:09Z</time>
      </trkpt>
      <trkpt lat="43.02402099999964" lon="-1.313604999999997">
        <ele>1144.818</ele>
        <time>2022-08-24T10:52:10Z</time>
      </trkpt>
      <trkpt lat="43.023943999999645" lon="-1.313650999999997">
        <ele>1144.209</ele>
        <time>2022-08-24T10:52:12Z</time>
      </trkpt>
      <trkpt lat="43.02390899999965" lon="-1.313670999999997">
        <ele>1143.897</ele>
        <time>2022-08-24T10:52:13Z</time>
      </trkpt>
      <trkpt lat="43.023878999999646" lon="-1.313685999999997">
        <ele>1143.087</ele>
        <time>2022-08-24T10:52:14Z</time>
      </trkpt>
      <trkpt lat="43.02384699999965" lon="-1.313699999999997">
        <ele>1142.867</ele>
        <time>2022-08-24T10:52:15Z</time>
      </trkpt>
      <trkpt lat="43.023813999999646" lon="-1.313714999999997">
        <ele>1142.633</ele>
        <time>2022-08-24T10:52:16Z</time>
      </trkpt>
      <trkpt lat="43.023777999999645" lon="-1.313728999999997">
        <ele>1142.495</ele>
        <time>2022-08-24T10:52:17Z</time>
      </trkpt>
      <trkpt lat="43.023740999999646" lon="-1.313742999999997">
        <ele>1142.262</ele>
        <time>2022-08-24T10:52:18Z</time>
      </trkpt>
      <trkpt lat="43.02370399999965" lon="-1.313752999999997">
        <ele>1142.035</ele>
        <time>2022-08-24T10:52:19Z</time>
      </trkpt>
      <trkpt lat="43.02362999999965" lon="-1.313772999999997">
        <ele>1141.079</ele>
        <time>2022-08-24T10:52:21Z</time>
      </trkpt>
      <trkpt lat="43.02359399999965" lon="-1.313789999999997">
        <ele>1140.288</ele>
        <time>2022-08-24T10:52:22Z</time>
      </trkpt>
      <trkpt lat="43.023557999999646" lon="-1.313813999999997">
        <ele>1139.835</ele>
        <time>2022-08-24T10:52:23Z</time>
      </trkpt>
      <trkpt lat="43.02352399999965" lon="-1.3138529999999968">
        <ele>1138.886</ele>
        <time>2022-08-24T10:52:24Z</time>
      </trkpt>
      <trkpt lat="43.02348999999965" lon="-1.3138939999999968">
        <ele>1138.414</ele>
        <time>2022-08-24T10:52:25Z</time>
      </trkpt>
      <trkpt lat="43.023459999999645" lon="-1.3139359999999969">
        <ele>1137.409</ele>
        <time>2022-08-24T10:52:26Z</time>
      </trkpt>
      <trkpt lat="43.02343099999965" lon="-1.313983999999997">
        <ele>1136.884</ele>
        <time>2022-08-24T10:52:27Z</time>
      </trkpt>
      <trkpt lat="43.023405999999646" lon="-1.314028999999997">
        <ele>1136.834</ele>
        <time>2022-08-24T10:52:28Z</time>
      </trkpt>
      <trkpt lat="43.02338299999965" lon="-1.314082999999997">
        <ele>1136.034</ele>
        <time>2022-08-24T10:52:29Z</time>
      </trkpt>
      <trkpt lat="43.02336499999965" lon="-1.314143999999997">
        <ele>1135.450</ele>
        <time>2022-08-24T10:52:30Z</time>
      </trkpt>
      <trkpt lat="43.02335299999965" lon="-1.314209999999997">
        <ele>1133.632</ele>
        <time>2022-08-24T10:52:31Z</time>
      </trkpt>
      <trkpt lat="43.023348999999655" lon="-1.314277999999997">
        <ele>1133.019</ele>
        <time>2022-08-24T10:52:32Z</time>
      </trkpt>
      <trkpt lat="43.023348999999655" lon="-1.314349999999997">
        <ele>1132.062</ele>
        <time>2022-08-24T10:52:33Z</time>
      </trkpt>
      <trkpt lat="43.023348999999655" lon="-1.314424999999997">
        <ele>1131.426</ele>
        <time>2022-08-24T10:52:34Z</time>
      </trkpt>
      <trkpt lat="43.02334499999966" lon="-1.3145049999999971">
        <ele>1131.035</ele>
        <time>2022-08-24T10:52:35Z</time>
      </trkpt>
      <trkpt lat="43.02330799999966" lon="-1.314753999999997">
        <ele>1129.657</ele>
        <time>2022-08-24T10:52:38Z</time>
      </trkpt>
      <trkpt lat="43.02329599999966" lon="-1.314838999999997">
        <ele>1128.800</ele>
        <time>2022-08-24T10:52:39Z</time>
      </trkpt>
      <trkpt lat="43.02328299999966" lon="-1.314925999999997">
        <ele>1128.420</ele>
        <time>2022-08-24T10:52:40Z</time>
      </trkpt>
      <trkpt lat="43.02324899999966" lon="-1.315106999999997">
        <ele>1127.409</ele>
        <time>2022-08-24T10:52:42Z</time>
      </trkpt>
      <trkpt lat="43.023204999999656" lon="-1.315387999999997">
        <ele>1126.066</ele>
        <time>2022-08-24T10:52:45Z</time>
      </trkpt>
      <trkpt lat="43.02319599999966" lon="-1.315481999999997">
        <ele>1125.276</ele>
        <time>2022-08-24T10:52:46Z</time>
      </trkpt>
      <trkpt lat="43.02319199999966" lon="-1.3155769999999969">
        <ele>1124.846</ele>
        <time>2022-08-24T10:52:47Z</time>
      </trkpt>
      <trkpt lat="43.02318699999966" lon="-1.315667999999997">
        <ele>1123.872</ele>
        <time>2022-08-24T10:52:48Z</time>
      </trkpt>
      <trkpt lat="43.02317899999966" lon="-1.315751999999997">
        <ele>1123.234</ele>
        <time>2022-08-24T10:52:49Z</time>
      </trkpt>
      <trkpt lat="43.02317299999966" lon="-1.315834999999997">
        <ele>1121.451</ele>
        <time>2022-08-24T10:52:50Z</time>
      </trkpt>
      <trkpt lat="43.02316899999966" lon="-1.315918999999997">
        <ele>1120.644</ele>
        <time>2022-08-24T10:52:51Z</time>
      </trkpt>
      <trkpt lat="43.023164999999665" lon="-1.3160009999999969">
        <ele>1119.888</ele>
        <time>2022-08-24T10:52:52Z</time>
      </trkpt>
      <trkpt lat="43.02316099999967" lon="-1.3160709999999969">
        <ele>1119.057</ele>
        <time>2022-08-24T10:52:53Z</time>
      </trkpt>
      <trkpt lat="43.023158999999666" lon="-1.3161289999999968">
        <ele>1118.891</ele>
        <time>2022-08-24T10:52:54Z</time>
      </trkpt>
      <trkpt lat="43.02315999999966" lon="-1.3161749999999968">
        <ele>1118.281</ele>
        <time>2022-08-24T10:52:55Z</time>
      </trkpt>
      <trkpt lat="43.02316099999966" lon="-1.3162159999999967">
        <ele>1117.619</ele>
        <time>2022-08-24T10:52:56Z</time>
      </trkpt>
      <trkpt lat="43.02316799999966" lon="-1.3162529999999968">
        <ele>1116.009</ele>
        <time>2022-08-24T10:52:57Z</time>
      </trkpt>
      <trkpt lat="43.02318099999966" lon="-1.3163349999999967">
        <ele>1114.870</ele>
        <time>2022-08-24T10:52:59Z</time>
      </trkpt>
      <trkpt lat="43.02317999999966" lon="-1.3163749999999967">
        <ele>1114.080</ele>
        <time>2022-08-24T10:53:00Z</time>
      </trkpt>
      <trkpt lat="43.023164999999665" lon="-1.3164129999999967">
        <ele>1113.810</ele>
        <time>2022-08-24T10:53:01Z</time>
      </trkpt>
      <trkpt lat="43.023130999999665" lon="-1.3164409999999966">
        <ele>1113.456</ele>
        <time>2022-08-24T10:53:02Z</time>
      </trkpt>
      <trkpt lat="43.02303899999966" lon="-1.3164569999999967">
        <ele>1112.628</ele>
        <time>2022-08-24T10:53:04Z</time>
      </trkpt>
      <trkpt lat="43.022925999999664" lon="-1.3164359999999966">
        <ele>1111.885</ele>
        <time>2022-08-24T10:53:06Z</time>
      </trkpt>
      <trkpt lat="43.022863999999664" lon="-1.3164319999999967">
        <ele>1111.448</ele>
        <time>2022-08-24T10:53:07Z</time>
      </trkpt>
      <trkpt lat="43.022804999999664" lon="-1.3164369999999967">
        <ele>1111.232</ele>
        <time>2022-08-24T10:53:08Z</time>
      </trkpt>
      <trkpt lat="43.02261999999966" lon="-1.3164899999999968">
        <ele>1110.231</ele>
        <time>2022-08-24T10:53:11Z</time>
      </trkpt>
      <trkpt lat="43.02256099999966" lon="-1.3165069999999968">
        <ele>1109.863</ele>
        <time>2022-08-24T10:53:12Z</time>
      </trkpt>
      <trkpt lat="43.022503999999664" lon="-1.3165229999999968">
        <ele>1109.444</ele>
        <time>2022-08-24T10:53:13Z</time>
      </trkpt>
      <trkpt lat="43.02244799999966" lon="-1.3165389999999968">
        <ele>1109.018</ele>
        <time>2022-08-24T10:53:14Z</time>
      </trkpt>
      <trkpt lat="43.02239599999967" lon="-1.3165569999999969">
        <ele>1108.609</ele>
        <time>2022-08-24T10:53:15Z</time>
      </trkpt>
      <trkpt lat="43.022351999999664" lon="-1.3165759999999969">
        <ele>1108.027</ele>
        <time>2022-08-24T10:53:16Z</time>
      </trkpt>
      <trkpt lat="43.022314999999665" lon="-1.3165959999999968">
        <ele>1107.437</ele>
        <time>2022-08-24T10:53:17Z</time>
      </trkpt>
      <trkpt lat="43.02227899999966" lon="-1.3166129999999967">
        <ele>1107.087</ele>
        <time>2022-08-24T10:53:18Z</time>
      </trkpt>
      <trkpt lat="43.022244999999664" lon="-1.3166239999999967">
        <ele>1106.673</ele>
        <time>2022-08-24T10:53:19Z</time>
      </trkpt>
      <trkpt lat="43.022218999999666" lon="-1.3166329999999966">
        <ele>1106.425</ele>
        <time>2022-08-24T10:53:20Z</time>
      </trkpt>
      <trkpt lat="43.02216999999967" lon="-1.3166569999999966">
        <ele>1106.052</ele>
        <time>2022-08-24T10:53:22Z</time>
      </trkpt>
      <trkpt lat="43.02212799999967" lon="-1.3166709999999966">
        <ele>1105.665</ele>
        <time>2022-08-24T10:53:23Z</time>
      </trkpt>
      <trkpt lat="43.02208599999967" lon="-1.3166819999999966">
        <ele>1105.229</ele>
        <time>2022-08-24T10:53:24Z</time>
      </trkpt>
      <trkpt lat="43.02199599999967" lon="-1.3167109999999966">
        <ele>1104.658</ele>
        <time>2022-08-24T10:53:26Z</time>
      </trkpt>
      <trkpt lat="43.02194999999967" lon="-1.3167239999999967">
        <ele>1104.473</ele>
        <time>2022-08-24T10:53:27Z</time>
      </trkpt>
      <trkpt lat="43.02189499999967" lon="-1.3167339999999967">
        <ele>1104.085</ele>
        <time>2022-08-24T10:53:28Z</time>
      </trkpt>
      <trkpt lat="43.02176399999966" lon="-1.3167569999999968">
        <ele>1103.813</ele>
        <time>2022-08-24T10:53:30Z</time>
      </trkpt>
      <trkpt lat="43.02157399999966" lon="-1.3168029999999968">
        <ele>1103.409</ele>
        <time>2022-08-24T10:53:33Z</time>
      </trkpt>
      <trkpt lat="43.02151099999966" lon="-1.3168229999999967">
        <ele>1103.278</ele>
        <time>2022-08-24T10:53:34Z</time>
      </trkpt>
      <trkpt lat="43.02144899999966" lon="-1.3168419999999967">
        <ele>1102.868</ele>
        <time>2022-08-24T10:53:35Z</time>
      </trkpt>
      <trkpt lat="43.02138799999966" lon="-1.3168519999999968">
        <ele>1102.868</ele>
        <time>2022-08-24T10:53:36Z</time>
      </trkpt>
      <trkpt lat="43.02133299999966" lon="-1.316858999999997">
        <ele>1102.644</ele>
        <time>2022-08-24T10:53:37Z</time>
      </trkpt>
      <trkpt lat="43.02128099999966" lon="-1.3168649999999968">
        <ele>1102.236</ele>
        <time>2022-08-24T10:53:38Z</time>
      </trkpt>
      <trkpt lat="43.02123599999966" lon="-1.3168659999999968">
        <ele>1102.043</ele>
        <time>2022-08-24T10:53:39Z</time>
      </trkpt>
      <trkpt lat="43.02119199999966" lon="-1.3168719999999967">
        <ele>1101.856</ele>
        <time>2022-08-24T10:53:40Z</time>
      </trkpt>
      <trkpt lat="43.02114299999966" lon="-1.3168779999999967">
        <ele>1101.610</ele>
        <time>2022-08-24T10:53:41Z</time>
      </trkpt>
      <trkpt lat="43.02089199999966" lon="-1.3169219999999966">
        <ele>1100.849</ele>
        <time>2022-08-24T10:53:45Z</time>
      </trkpt>
      <trkpt lat="43.02082799999966" lon="-1.3169359999999966">
        <ele>1100.822</ele>
        <time>2022-08-24T10:53:46Z</time>
      </trkpt>
      <trkpt lat="43.02076999999966" lon="-1.3169489999999966">
        <ele>1100.662</ele>
        <time>2022-08-24T10:53:47Z</time>
      </trkpt>
      <trkpt lat="43.020714999999655" lon="-1.3169679999999966">
        <ele>1100.008</ele>
        <time>2022-08-24T10:53:48Z</time>
      </trkpt>
      <trkpt lat="43.02066299999966" lon="-1.3169919999999966">
        <ele>1099.809</ele>
        <time>2022-08-24T10:53:49Z</time>
      </trkpt>
      <trkpt lat="43.02061399999966" lon="-1.3170219999999966">
        <ele>1099.453</ele>
        <time>2022-08-24T10:53:50Z</time>
      </trkpt>
      <trkpt lat="43.02056399999966" lon="-1.3170579999999965">
        <ele>1099.263</ele>
        <time>2022-08-24T10:53:51Z</time>
      </trkpt>
      <trkpt lat="43.02051499999966" lon="-1.3171039999999965">
        <ele>1099.043</ele>
        <time>2022-08-24T10:53:52Z</time>
      </trkpt>
      <trkpt lat="43.02046799999966" lon="-1.3171549999999965">
        <ele>1098.859</ele>
        <time>2022-08-24T10:53:53Z</time>
      </trkpt>
      <trkpt lat="43.02042199999966" lon="-1.3172059999999965">
        <ele>1098.041</ele>
        <time>2022-08-24T10:53:54Z</time>
      </trkpt>
      <trkpt lat="43.02037699999966" lon="-1.3172529999999965">
        <ele>1097.668</ele>
        <time>2022-08-24T10:53:55Z</time>
      </trkpt>
      <trkpt lat="43.02033499999966" lon="-1.3173019999999964">
        <ele>1097.421</ele>
        <time>2022-08-24T10:53:56Z</time>
      </trkpt>
      <trkpt lat="43.02030099999966" lon="-1.3173519999999965">
        <ele>1096.655</ele>
        <time>2022-08-24T10:53:57Z</time>
      </trkpt>
      <trkpt lat="43.02027299999966" lon="-1.3174019999999966">
        <ele>1096.034</ele>
        <time>2022-08-24T10:53:58Z</time>
      </trkpt>
      <trkpt lat="43.02025399999966" lon="-1.3174559999999966">
        <ele>1095.465</ele>
        <time>2022-08-24T10:53:59Z</time>
      </trkpt>
      <trkpt lat="43.02024399999966" lon="-1.3175129999999966">
        <ele>1094.268</ele>
        <time>2022-08-24T10:54:00Z</time>
      </trkpt>
      <trkpt lat="43.020247999999654" lon="-1.3175709999999965">
        <ele>1093.614</ele>
        <time>2022-08-24T10:54:01Z</time>
      </trkpt>
      <trkpt lat="43.02026099999966" lon="-1.3176209999999966">
        <ele>1092.809</ele>
        <time>2022-08-24T10:54:02Z</time>
      </trkpt>
      <trkpt lat="43.02027999999966" lon="-1.3176659999999967">
        <ele>1092.637</ele>
        <time>2022-08-24T10:54:03Z</time>
      </trkpt>
      <trkpt lat="43.02029999999966" lon="-1.3177029999999967">
        <ele>1092.417</ele>
        <time>2022-08-24T10:54:04Z</time>
      </trkpt>
      <trkpt lat="43.020317999999655" lon="-1.3177339999999966">
        <ele>1092.267</ele>
        <time>2022-08-24T10:54:05Z</time>
      </trkpt>
      <trkpt lat="43.02033699999966" lon="-1.3177609999999966">
        <ele>1092.093</ele>
        <time>2022-08-24T10:54:06Z</time>
      </trkpt>
      <trkpt lat="43.02037799999966" lon="-1.3178139999999967">
        <ele>1091.855</ele>
        <time>2022-08-24T10:54:08Z</time>
      </trkpt>
      <trkpt lat="43.02040299999966" lon="-1.3178499999999966">
        <ele>1091.882</ele>
        <time>2022-08-24T10:54:09Z</time>
      </trkpt>
      <trkpt lat="43.02052099999966" lon="-1.3180029999999967">
        <ele>1091.835</ele>
        <time>2022-08-24T10:54:13Z</time>
      </trkpt>
      <trkpt lat="43.02055499999966" lon="-1.3180359999999967">
        <ele>1091.849</ele>
        <time>2022-08-24T10:54:14Z</time>
      </trkpt>
      <trkpt lat="43.020671999999664" lon="-1.3181319999999968">
        <ele>1091.678</ele>
        <time>2022-08-24T10:54:17Z</time>
      </trkpt>
      <trkpt lat="43.02071199999966" lon="-1.3181509999999967">
        <ele>1091.664</ele>
        <time>2022-08-24T10:54:18Z</time>
      </trkpt>
      <trkpt lat="43.02075399999966" lon="-1.3181569999999967">
        <ele>1091.606</ele>
        <time>2022-08-24T10:54:19Z</time>
      </trkpt>
      <trkpt lat="43.02079399999966" lon="-1.3181539999999967">
        <ele>1091.416</ele>
        <time>2022-08-24T10:54:20Z</time>
      </trkpt>
      <trkpt lat="43.020834999999664" lon="-1.3181519999999967">
        <ele>1091.009</ele>
        <time>2022-08-24T10:54:21Z</time>
      </trkpt>
      <trkpt lat="43.02087299999967" lon="-1.3181619999999967">
        <ele>1090.817</ele>
        <time>2022-08-24T10:54:22Z</time>
      </trkpt>
      <trkpt lat="43.02090899999967" lon="-1.3181829999999968">
        <ele>1090.427</ele>
        <time>2022-08-24T10:54:23Z</time>
      </trkpt>
      <trkpt lat="43.02093899999967" lon="-1.3182119999999968">
        <ele>1090.267</ele>
        <time>2022-08-24T10:54:24Z</time>
      </trkpt>
      <trkpt lat="43.020954999999674" lon="-1.318248999999997">
        <ele>1090.023</ele>
        <time>2022-08-24T10:54:25Z</time>
      </trkpt>
      <trkpt lat="43.020954999999674" lon="-1.318291999999997">
        <ele>1089.885</ele>
        <time>2022-08-24T10:54:26Z</time>
      </trkpt>
      <trkpt lat="43.02094399999967" lon="-1.318331999999997">
        <ele>1089.662</ele>
        <time>2022-08-24T10:54:27Z</time>
      </trkpt>
      <trkpt lat="43.020917999999675" lon="-1.3183629999999968">
        <ele>1089.495</ele>
        <time>2022-08-24T10:54:28Z</time>
      </trkpt>
      <trkpt lat="43.02088199999967" lon="-1.3183819999999968">
        <ele>1089.479</ele>
        <time>2022-08-24T10:54:29Z</time>
      </trkpt>
      <trkpt lat="43.020841999999675" lon="-1.3183879999999968">
        <ele>1089.248</ele>
        <time>2022-08-24T10:54:30Z</time>
      </trkpt>
      <trkpt lat="43.02079799999967" lon="-1.3183899999999968">
        <ele>1089.076</ele>
        <time>2022-08-24T10:54:31Z</time>
      </trkpt>
      <trkpt lat="43.02074999999967" lon="-1.318388999999997">
        <ele>1089.090</ele>
        <time>2022-08-24T10:54:32Z</time>
      </trkpt>
      <trkpt lat="43.020700999999676" lon="-1.3183899999999968">
        <ele>1088.819</ele>
        <time>2022-08-24T10:54:33Z</time>
      </trkpt>
      <trkpt lat="43.02059499999967" lon="-1.318377999999997">
        <ele>1088.609</ele>
        <time>2022-08-24T10:54:35Z</time>
      </trkpt>
      <trkpt lat="43.02047799999967" lon="-1.3183549999999968">
        <ele>1087.828</ele>
        <time>2022-08-24T10:54:37Z</time>
      </trkpt>
      <trkpt lat="43.02041799999967" lon="-1.3183289999999968">
        <ele>1087.258</ele>
        <time>2022-08-24T10:54:38Z</time>
      </trkpt>
      <trkpt lat="43.02030299999967" lon="-1.3182469999999968">
        <ele>1086.088</ele>
        <time>2022-08-24T10:54:40Z</time>
      </trkpt>
      <trkpt lat="43.02013199999967" lon="-1.3180979999999969">
        <ele>1084.824</ele>
        <time>2022-08-24T10:54:43Z</time>
      </trkpt>
      <trkpt lat="43.02000499999967" lon="-1.317996999999997">
        <ele>1083.646</ele>
        <time>2022-08-24T10:54:45Z</time>
      </trkpt>
      <trkpt lat="43.01993999999967" lon="-1.317945999999997">
        <ele>1083.283</ele>
        <time>2022-08-24T10:54:46Z</time>
      </trkpt>
      <trkpt lat="43.019876999999674" lon="-1.317894999999997">
        <ele>1082.846</ele>
        <time>2022-08-24T10:54:47Z</time>
      </trkpt>
      <trkpt lat="43.01981899999967" lon="-1.317842999999997">
        <ele>1082.410</ele>
        <time>2022-08-24T10:54:48Z</time>
      </trkpt>
      <trkpt lat="43.01977099999967" lon="-1.317796999999997">
        <ele>1082.059</ele>
        <time>2022-08-24T10:54:49Z</time>
      </trkpt>
      <trkpt lat="43.019727999999674" lon="-1.317758999999997">
        <ele>1081.425</ele>
        <time>2022-08-24T10:54:50Z</time>
      </trkpt>
      <trkpt lat="43.019687999999675" lon="-1.317724999999997">
        <ele>1080.426</ele>
        <time>2022-08-24T10:54:51Z</time>
      </trkpt>
      <trkpt lat="43.01964799999968" lon="-1.317694999999997">
        <ele>1079.608</ele>
        <time>2022-08-24T10:54:52Z</time>
      </trkpt>
      <trkpt lat="43.01960999999967" lon="-1.317669999999997">
        <ele>1079.409</ele>
        <time>2022-08-24T10:54:53Z</time>
      </trkpt>
      <trkpt lat="43.01957199999967" lon="-1.317650999999997">
        <ele>1078.853</ele>
        <time>2022-08-24T10:54:54Z</time>
      </trkpt>
      <trkpt lat="43.019533999999666" lon="-1.317642999999997">
        <ele>1078.283</ele>
        <time>2022-08-24T10:54:55Z</time>
      </trkpt>
      <trkpt lat="43.01949699999967" lon="-1.317654999999997">
        <ele>1077.453</ele>
        <time>2022-08-24T10:54:56Z</time>
      </trkpt>
      <trkpt lat="43.01946899999967" lon="-1.3176879999999969">
        <ele>1076.429</ele>
        <time>2022-08-24T10:54:57Z</time>
      </trkpt>
      <trkpt lat="43.019452999999665" lon="-1.3177319999999968">
        <ele>1076.261</ele>
        <time>2022-08-24T10:54:58Z</time>
      </trkpt>
      <trkpt lat="43.01945199999967" lon="-1.3177829999999968">
        <ele>1075.638</ele>
        <time>2022-08-24T10:54:59Z</time>
      </trkpt>
      <trkpt lat="43.01947099999967" lon="-1.317827999999997">
        <ele>1075.441</ele>
        <time>2022-08-24T10:55:00Z</time>
      </trkpt>
      <trkpt lat="43.01954199999967" lon="-1.3179019999999968">
        <ele>1074.825</ele>
        <time>2022-08-24T10:55:02Z</time>
      </trkpt>
      <trkpt lat="43.01958399999967" lon="-1.3179309999999969">
        <ele>1074.484</ele>
        <time>2022-08-24T10:55:03Z</time>
      </trkpt>
      <trkpt lat="43.019626999999666" lon="-1.317964999999997">
        <ele>1074.222</ele>
        <time>2022-08-24T10:55:04Z</time>
      </trkpt>
      <trkpt lat="43.01967099999967" lon="-1.3180039999999968">
        <ele>1074.062</ele>
        <time>2022-08-24T10:55:05Z</time>
      </trkpt>
      <trkpt lat="43.01976099999967" lon="-1.3180969999999967">
        <ele>1073.608</ele>
        <time>2022-08-24T10:55:07Z</time>
      </trkpt>
      <trkpt lat="43.019806999999666" lon="-1.3181479999999968">
        <ele>1073.209</ele>
        <time>2022-08-24T10:55:08Z</time>
      </trkpt>
      <trkpt lat="43.02002199999966" lon="-1.3184269999999967">
        <ele>1072.243</ele>
        <time>2022-08-24T10:55:13Z</time>
      </trkpt>
      <trkpt lat="43.02005999999967" lon="-1.3184889999999967">
        <ele>1071.853</ele>
        <time>2022-08-24T10:55:14Z</time>
      </trkpt>
      <trkpt lat="43.020096999999666" lon="-1.3185549999999966">
        <ele>1071.043</ele>
        <time>2022-08-24T10:55:15Z</time>
      </trkpt>
      <trkpt lat="43.02013199999966" lon="-1.3186269999999967">
        <ele>1070.439</ele>
        <time>2022-08-24T10:55:16Z</time>
      </trkpt>
      <trkpt lat="43.020186999999666" lon="-1.3187959999999967">
        <ele>1069.841</ele>
        <time>2022-08-24T10:55:18Z</time>
      </trkpt>
      <trkpt lat="43.02021399999967" lon="-1.3188799999999967">
        <ele>1069.678</ele>
        <time>2022-08-24T10:55:19Z</time>
      </trkpt>
      <trkpt lat="43.02023699999967" lon="-1.3189559999999967">
        <ele>1069.081</ele>
        <time>2022-08-24T10:55:20Z</time>
      </trkpt>
      <trkpt lat="43.02025599999967" lon="-1.3190279999999968">
        <ele>1068.675</ele>
        <time>2022-08-24T10:55:21Z</time>
      </trkpt>
      <trkpt lat="43.02027799999967" lon="-1.3190989999999967">
        <ele>1068.074</ele>
        <time>2022-08-24T10:55:22Z</time>
      </trkpt>
      <trkpt lat="43.02030699999967" lon="-1.3191679999999968">
        <ele>1067.875</ele>
        <time>2022-08-24T10:55:23Z</time>
      </trkpt>
      <trkpt lat="43.020335999999666" lon="-1.3192319999999969">
        <ele>1067.228</ele>
        <time>2022-08-24T10:55:24Z</time>
      </trkpt>
      <trkpt lat="43.02040199999966" lon="-1.319362999999997">
        <ele>1066.820</ele>
        <time>2022-08-24T10:55:26Z</time>
      </trkpt>
      <trkpt lat="43.020516999999664" lon="-1.319556999999997">
        <ele>1065.609</ele>
        <time>2022-08-24T10:55:29Z</time>
      </trkpt>
      <trkpt lat="43.020586999999665" lon="-1.319685999999997">
        <ele>1064.238</ele>
        <time>2022-08-24T10:55:31Z</time>
      </trkpt>
      <trkpt lat="43.020662999999665" lon="-1.319806999999997">
        <ele>1063.048</ele>
        <time>2022-08-24T10:55:33Z</time>
      </trkpt>
      <trkpt lat="43.020755999999665" lon="-1.319919999999997">
        <ele>1061.268</ele>
        <time>2022-08-24T10:55:35Z</time>
      </trkpt>
      <trkpt lat="43.02079699999967" lon="-1.319968999999997">
        <ele>1061.064</ele>
        <time>2022-08-24T10:55:36Z</time>
      </trkpt>
      <trkpt lat="43.02083499999967" lon="-1.3200139999999971">
        <ele>1060.636</ele>
        <time>2022-08-24T10:55:37Z</time>
      </trkpt>
      <trkpt lat="43.02087099999967" lon="-1.3200569999999971">
        <ele>1060.293</ele>
        <time>2022-08-24T10:55:38Z</time>
      </trkpt>
      <trkpt lat="43.020903999999675" lon="-1.3201019999999972">
        <ele>1059.856</ele>
        <time>2022-08-24T10:55:39Z</time>
      </trkpt>
      <trkpt lat="43.02092999999967" lon="-1.3201469999999973">
        <ele>1059.460</ele>
        <time>2022-08-24T10:55:40Z</time>
      </trkpt>
      <trkpt lat="43.020948999999675" lon="-1.3201939999999972">
        <ele>1058.429</ele>
        <time>2022-08-24T10:55:41Z</time>
      </trkpt>
      <trkpt lat="43.02095799999967" lon="-1.3202429999999972">
        <ele>1057.652</ele>
        <time>2022-08-24T10:55:42Z</time>
      </trkpt>
      <trkpt lat="43.02095899999967" lon="-1.3202959999999972">
        <ele>1057.253</ele>
        <time>2022-08-24T10:55:43Z</time>
      </trkpt>
      <trkpt lat="43.02094799999967" lon="-1.3203489999999973">
        <ele>1056.808</ele>
        <time>2022-08-24T10:55:44Z</time>
      </trkpt>
      <trkpt lat="43.02091899999967" lon="-1.3203939999999974">
        <ele>1056.609</ele>
        <time>2022-08-24T10:55:45Z</time>
      </trkpt>
      <trkpt lat="43.02087699999967" lon="-1.3204339999999974">
        <ele>1056.286</ele>
        <time>2022-08-24T10:55:46Z</time>
      </trkpt>
      <trkpt lat="43.020793999999675" lon="-1.3205119999999975">
        <ele>1055.286</ele>
        <time>2022-08-24T10:55:48Z</time>
      </trkpt>
      <trkpt lat="43.020751999999675" lon="-1.3205539999999976">
        <ele>1055.066</ele>
        <time>2022-08-24T10:55:49Z</time>
      </trkpt>
      <trkpt lat="43.02067199999968" lon="-1.3206539999999976">
        <ele>1054.422</ele>
        <time>2022-08-24T10:55:51Z</time>
      </trkpt>
      <trkpt lat="43.020638999999676" lon="-1.3207109999999975">
        <ele>1054.274</ele>
        <time>2022-08-24T10:55:52Z</time>
      </trkpt>
      <trkpt lat="43.02061299999968" lon="-1.3207679999999975">
        <ele>1054.041</ele>
        <time>2022-08-24T10:55:53Z</time>
      </trkpt>
      <trkpt lat="43.02058699999968" lon="-1.3208229999999974">
        <ele>1053.844</ele>
        <time>2022-08-24T10:55:54Z</time>
      </trkpt>
      <trkpt lat="43.020500999999676" lon="-1.3210169999999974">
        <ele>1053.278</ele>
        <time>2022-08-24T10:55:57Z</time>
      </trkpt>
      <trkpt lat="43.02046599999968" lon="-1.3210769999999974">
        <ele>1052.697</ele>
        <time>2022-08-24T10:55:58Z</time>
      </trkpt>
      <trkpt lat="43.02043499999968" lon="-1.3211289999999973">
        <ele>1051.838</ele>
        <time>2022-08-24T10:55:59Z</time>
      </trkpt>
      <trkpt lat="43.02040099999968" lon="-1.3211759999999972">
        <ele>1051.670</ele>
        <time>2022-08-24T10:56:00Z</time>
      </trkpt>
      <trkpt lat="43.02036899999968" lon="-1.3212209999999973">
        <ele>1051.217</ele>
        <time>2022-08-24T10:56:01Z</time>
      </trkpt>
      <trkpt lat="43.02033899999968" lon="-1.3212669999999973">
        <ele>1051.009</ele>
        <time>2022-08-24T10:56:02Z</time>
      </trkpt>
      <trkpt lat="43.02031299999968" lon="-1.3213169999999974">
        <ele>1050.644</ele>
        <time>2022-08-24T10:56:03Z</time>
      </trkpt>
      <trkpt lat="43.02028899999968" lon="-1.3213619999999975">
        <ele>1050.454</ele>
        <time>2022-08-24T10:56:04Z</time>
      </trkpt>
      <trkpt lat="43.02026599999968" lon="-1.3214019999999975">
        <ele>1049.444</ele>
        <time>2022-08-24T10:56:05Z</time>
      </trkpt>
      <trkpt lat="43.02024699999968" lon="-1.3214379999999974">
        <ele>1048.440</ele>
        <time>2022-08-24T10:56:06Z</time>
      </trkpt>
      <trkpt lat="43.02022999999968" lon="-1.3214789999999974">
        <ele>1048.272</ele>
        <time>2022-08-24T10:56:07Z</time>
      </trkpt>
      <trkpt lat="43.02021799999968" lon="-1.3215189999999974">
        <ele>1047.619</ele>
        <time>2022-08-24T10:56:08Z</time>
      </trkpt>
      <trkpt lat="43.02021199999968" lon="-1.3215519999999974">
        <ele>1047.422</ele>
        <time>2022-08-24T10:56:09Z</time>
      </trkpt>
      <trkpt lat="43.020207999999684" lon="-1.3215919999999974">
        <ele>1047.076</ele>
        <time>2022-08-24T10:56:10Z</time>
      </trkpt>
      <trkpt lat="43.020204999999685" lon="-1.3216389999999973">
        <ele>1046.865</ele>
        <time>2022-08-24T10:56:11Z</time>
      </trkpt>
      <trkpt lat="43.02020699999969" lon="-1.3216869999999974">
        <ele>1046.442</ele>
        <time>2022-08-24T10:56:12Z</time>
      </trkpt>
      <trkpt lat="43.020212999999686" lon="-1.3217869999999974">
        <ele>1045.822</ele>
        <time>2022-08-24T10:56:14Z</time>
      </trkpt>
      <trkpt lat="43.02021499999969" lon="-1.3218389999999973">
        <ele>1045.214</ele>
        <time>2022-08-24T10:56:15Z</time>
      </trkpt>
      <trkpt lat="43.02021799999969" lon="-1.3218839999999974">
        <ele>1044.809</ele>
        <time>2022-08-24T10:56:16Z</time>
      </trkpt>
      <trkpt lat="43.02021999999969" lon="-1.3219279999999973">
        <ele>1043.815</ele>
        <time>2022-08-24T10:56:17Z</time>
      </trkpt>
      <trkpt lat="43.02021999999969" lon="-1.3219729999999974">
        <ele>1043.025</ele>
        <time>2022-08-24T10:56:18Z</time>
      </trkpt>
      <trkpt lat="43.02022199999969" lon="-1.3220539999999974">
        <ele>1041.835</ele>
        <time>2022-08-24T10:56:20Z</time>
      </trkpt>
      <trkpt lat="43.02022599999969" lon="-1.3220849999999973">
        <ele>1041.661</ele>
        <time>2022-08-24T10:56:21Z</time>
      </trkpt>
      <trkpt lat="43.02023399999969" lon="-1.3221119999999973">
        <ele>1040.883</ele>
        <time>2022-08-24T10:56:22Z</time>
      </trkpt>
      <trkpt lat="43.02024499999969" lon="-1.3221399999999972">
        <ele>1040.660</ele>
        <time>2022-08-24T10:56:23Z</time>
      </trkpt>
      <trkpt lat="43.02025099999969" lon="-1.3221749999999972">
        <ele>1040.473</ele>
        <time>2022-08-24T10:56:24Z</time>
      </trkpt>
      <trkpt lat="43.02028899999969" lon="-1.3222919999999971">
        <ele>1040.047</ele>
        <time>2022-08-24T10:56:27Z</time>
      </trkpt>
      <trkpt lat="43.02031499999969" lon="-1.3223829999999972">
        <ele>1039.846</ele>
        <time>2022-08-24T10:56:29Z</time>
      </trkpt>
      <trkpt lat="43.02033399999969" lon="-1.3224809999999971">
        <ele>1039.283</ele>
        <time>2022-08-24T10:56:31Z</time>
      </trkpt>
      <trkpt lat="43.020338999999694" lon="-1.3225309999999972">
        <ele>1038.625</ele>
        <time>2022-08-24T10:56:32Z</time>
      </trkpt>
      <trkpt lat="43.020335999999695" lon="-1.3225799999999972">
        <ele>1038.617</ele>
        <time>2022-08-24T10:56:33Z</time>
      </trkpt>
      <trkpt lat="43.0203099999997" lon="-1.3227419999999972">
        <ele>1037.409</ele>
        <time>2022-08-24T10:56:36Z</time>
      </trkpt>
      <trkpt lat="43.020265999999694" lon="-1.3229449999999972">
        <ele>1036.629</ele>
        <time>2022-08-24T10:56:39Z</time>
      </trkpt>
      <trkpt lat="43.0202479999997" lon="-1.3230169999999972">
        <ele>1036.479</ele>
        <time>2022-08-24T10:56:40Z</time>
      </trkpt>
      <trkpt lat="43.0202139999997" lon="-1.3231579999999972">
        <ele>1035.889</ele>
        <time>2022-08-24T10:56:42Z</time>
      </trkpt>
      <trkpt lat="43.0201999999997" lon="-1.3232219999999972">
        <ele>1035.065</ele>
        <time>2022-08-24T10:56:43Z</time>
      </trkpt>
      <trkpt lat="43.0201929999997" lon="-1.3232899999999972">
        <ele>1034.857</ele>
        <time>2022-08-24T10:56:44Z</time>
      </trkpt>
      <trkpt lat="43.0201929999997" lon="-1.323363999999997">
        <ele>1034.444</ele>
        <time>2022-08-24T10:56:45Z</time>
      </trkpt>
      <trkpt lat="43.0201949999997" lon="-1.323436999999997">
        <ele>1033.847</ele>
        <time>2022-08-24T10:56:46Z</time>
      </trkpt>
      <trkpt lat="43.020196999999705" lon="-1.323507999999997">
        <ele>1033.661</ele>
        <time>2022-08-24T10:56:47Z</time>
      </trkpt>
      <trkpt lat="43.02019299999971" lon="-1.323661999999997">
        <ele>1032.850</ele>
        <time>2022-08-24T10:56:49Z</time>
      </trkpt>
      <trkpt lat="43.02018099999971" lon="-1.323742999999997">
        <ele>1032.016</ele>
        <time>2022-08-24T10:56:50Z</time>
      </trkpt>
      <trkpt lat="43.02016199999971" lon="-1.323813999999997">
        <ele>1031.476</ele>
        <time>2022-08-24T10:56:51Z</time>
      </trkpt>
      <trkpt lat="43.020142999999706" lon="-1.323874999999997">
        <ele>1031.213</ele>
        <time>2022-08-24T10:56:52Z</time>
      </trkpt>
      <trkpt lat="43.02012799999971" lon="-1.323925999999997">
        <ele>1030.609</ele>
        <time>2022-08-24T10:56:53Z</time>
      </trkpt>
      <trkpt lat="43.02011999999971" lon="-1.3239679999999971">
        <ele>1030.232</ele>
        <time>2022-08-24T10:56:54Z</time>
      </trkpt>
      <trkpt lat="43.020126999999704" lon="-1.3240019999999972">
        <ele>1030.082</ele>
        <time>2022-08-24T10:56:55Z</time>
      </trkpt>
      <trkpt lat="43.020148999999705" lon="-1.3240259999999973">
        <ele>1029.652</ele>
        <time>2022-08-24T10:56:56Z</time>
      </trkpt>
      <trkpt lat="43.02017899999971" lon="-1.3240399999999972">
        <ele>1029.638</ele>
        <time>2022-08-24T10:56:57Z</time>
      </trkpt>
      <trkpt lat="43.020210999999705" lon="-1.3240509999999972">
        <ele>1029.690</ele>
        <time>2022-08-24T10:56:58Z</time>
      </trkpt>
      <trkpt lat="43.0202399999997" lon="-1.3240659999999973">
        <ele>1029.647</ele>
        <time>2022-08-24T10:56:59Z</time>
      </trkpt>
      <trkpt lat="43.0202709999997" lon="-1.3240769999999973">
        <ele>1029.690</ele>
        <time>2022-08-24T10:57:00Z</time>
      </trkpt>
      <trkpt lat="43.0202999999997" lon="-1.3240939999999972">
        <ele>1029.624</ele>
        <time>2022-08-24T10:57:01Z</time>
      </trkpt>
      <trkpt lat="43.0203249999997" lon="-1.3241109999999972">
        <ele>1029.873</ele>
        <time>2022-08-24T10:57:02Z</time>
      </trkpt>
      <trkpt lat="43.0203479999997" lon="-1.324130999999997">
        <ele>1029.878</ele>
        <time>2022-08-24T10:57:03Z</time>
      </trkpt>
      <trkpt lat="43.0203739999997" lon="-1.324146999999997">
        <ele>1029.833</ele>
        <time>2022-08-24T10:57:04Z</time>
      </trkpt>
      <trkpt lat="43.0203939999997" lon="-1.324160999999997">
        <ele>1030.026</ele>
        <time>2022-08-24T10:57:05Z</time>
      </trkpt>
      <trkpt lat="43.020408999999695" lon="-1.324176999999997">
        <ele>1030.009</ele>
        <time>2022-08-24T10:57:06Z</time>
      </trkpt>
      <trkpt lat="43.020416999999696" lon="-1.3241949999999971">
        <ele>1030.028</ele>
        <time>2022-08-24T10:57:07Z</time>
      </trkpt>
      <trkpt lat="43.0204159999997" lon="-1.3242109999999971">
        <ele>1030.278</ele>
        <time>2022-08-24T10:57:08Z</time>
      </trkpt>
      <trkpt lat="43.0204069999997" lon="-1.3242129999999972">
        <ele>1030.488</ele>
        <time>2022-08-24T10:57:09Z</time>
      </trkpt>
      <trkpt lat="43.0203949999997" lon="-1.3242089999999973">
        <ele>1030.434</ele>
        <time>2022-08-24T10:57:10Z</time>
      </trkpt>
      <trkpt lat="43.020382999999704" lon="-1.3242039999999973">
        <ele>1030.636</ele>
        <time>2022-08-24T10:57:11Z</time>
      </trkpt>
      <trkpt lat="43.02037599999971" lon="-1.3242019999999972">
        <ele>1030.683</ele>
        <time>2022-08-24T10:57:12Z</time>
      </trkpt>
      <trkpt lat="43.02037599999971" lon="-1.3241999999999972">
        <ele>1030.846</ele>
        <time>2022-08-24T10:57:36Z</time>
      </trkpt>
      <trkpt lat="43.020376999999705" lon="-1.3241939999999972">
        <ele>1030.840</ele>
        <time>2022-08-24T10:57:37Z</time>
      </trkpt>
      <trkpt lat="43.020373999999705" lon="-1.3241769999999973">
        <ele>1030.629</ele>
        <time>2022-08-24T10:57:59Z</time>
      </trkpt>
      <trkpt lat="43.0203499999997" lon="-1.3241539999999972">
        <ele>1030.478</ele>
        <time>2022-08-24T10:58:01Z</time>
      </trkpt>
      <trkpt lat="43.0202809999997" lon="-1.3241189999999972">
        <ele>1030.433</ele>
        <time>2022-08-24T10:58:04Z</time>
      </trkpt>
      <trkpt lat="43.020253999999696" lon="-1.324103999999997">
        <ele>1030.426</ele>
        <time>2022-08-24T10:58:05Z</time>
      </trkpt>
      <trkpt lat="43.02022699999969" lon="-1.324085999999997">
        <ele>1030.409</ele>
        <time>2022-08-24T10:58:06Z</time>
      </trkpt>
      <trkpt lat="43.02010299999969" lon="-1.324002999999997">
        <ele>1030.438</ele>
        <time>2022-08-24T10:58:10Z</time>
      </trkpt>
      <trkpt lat="43.020017999999695" lon="-1.323971999999997">
        <ele>1030.288</ele>
        <time>2022-08-24T10:58:12Z</time>
      </trkpt>
      <trkpt lat="43.01992899999969" lon="-1.3239599999999971">
        <ele>1029.838</ele>
        <time>2022-08-24T10:58:14Z</time>
      </trkpt>
      <trkpt lat="43.01989099999969" lon="-1.3239619999999972">
        <ele>1029.634</ele>
        <time>2022-08-24T10:58:15Z</time>
      </trkpt>
      <trkpt lat="43.01986499999969" lon="-1.3239639999999973">
        <ele>1029.256</ele>
        <time>2022-08-24T10:58:16Z</time>
      </trkpt>
      <trkpt lat="43.01984899999969" lon="-1.3239649999999972">
        <ele>1028.883</ele>
        <time>2022-08-24T10:58:17Z</time>
      </trkpt>
      <trkpt lat="43.01983799999969" lon="-1.3239639999999973">
        <ele>1028.696</ele>
        <time>2022-08-24T10:58:18Z</time>
      </trkpt>
      <trkpt lat="43.019824999999685" lon="-1.3239659999999973">
        <ele>1028.430</ele>
        <time>2022-08-24T10:58:19Z</time>
      </trkpt>
      <trkpt lat="43.019753999999686" lon="-1.3239809999999974">
        <ele>1028.239</ele>
        <time>2022-08-24T10:58:22Z</time>
      </trkpt>
      <trkpt lat="43.019675999999684" lon="-1.3239709999999973">
        <ele>1028.074</ele>
        <time>2022-08-24T10:58:24Z</time>
      </trkpt>
      <trkpt lat="43.019632999999686" lon="-1.3239479999999972">
        <ele>1028.056</ele>
        <time>2022-08-24T10:58:25Z</time>
      </trkpt>
      <trkpt lat="43.01958999999969" lon="-1.3239189999999972">
        <ele>1027.821</ele>
        <time>2022-08-24T10:58:26Z</time>
      </trkpt>
      <trkpt lat="43.01954699999969" lon="-1.3238819999999971">
        <ele>1027.809</ele>
        <time>2022-08-24T10:58:27Z</time>
      </trkpt>
      <trkpt lat="43.01949799999969" lon="-1.323849999999997">
        <ele>1027.688</ele>
        <time>2022-08-24T10:58:28Z</time>
      </trkpt>
      <trkpt lat="43.019448999999696" lon="-1.3238189999999972">
        <ele>1027.688</ele>
        <time>2022-08-24T10:58:29Z</time>
      </trkpt>
      <trkpt lat="43.0194029999997" lon="-1.3237919999999972">
        <ele>1027.278</ele>
        <time>2022-08-24T10:58:30Z</time>
      </trkpt>
      <trkpt lat="43.0193639999997" lon="-1.3237659999999971">
        <ele>1026.834</ele>
        <time>2022-08-24T10:58:31Z</time>
      </trkpt>
      <trkpt lat="43.0193269999997" lon="-1.3237409999999972">
        <ele>1026.616</ele>
        <time>2022-08-24T10:58:32Z</time>
      </trkpt>
      <trkpt lat="43.0192869999997" lon="-1.3237209999999973">
        <ele>1026.233</ele>
        <time>2022-08-24T10:58:33Z</time>
      </trkpt>
      <trkpt lat="43.0191609999997" lon="-1.3236769999999973">
        <ele>1025.266</ele>
        <time>2022-08-24T10:58:36Z</time>
      </trkpt>
      <trkpt lat="43.0191179999997" lon="-1.3236609999999973">
        <ele>1025.250</ele>
        <time>2022-08-24T10:58:37Z</time>
      </trkpt>
      <trkpt lat="43.0190769999997" lon="-1.3236459999999972">
        <ele>1024.869</ele>
        <time>2022-08-24T10:58:38Z</time>
      </trkpt>
      <trkpt lat="43.0190369999997" lon="-1.3236329999999972">
        <ele>1024.677</ele>
        <time>2022-08-24T10:58:39Z</time>
      </trkpt>
      <trkpt lat="43.0189999999997" lon="-1.3236219999999972">
        <ele>1024.261</ele>
        <time>2022-08-24T10:58:40Z</time>
      </trkpt>
      <trkpt lat="43.018961999999696" lon="-1.3236109999999972">
        <ele>1024.027</ele>
        <time>2022-08-24T10:58:41Z</time>
      </trkpt>
      <trkpt lat="43.0188789999997" lon="-1.3235859999999973">
        <ele>1023.009</ele>
        <time>2022-08-24T10:58:43Z</time>
      </trkpt>
      <trkpt lat="43.0188349999997" lon="-1.3235759999999972">
        <ele>1023.038</ele>
        <time>2022-08-24T10:58:44Z</time>
      </trkpt>
      <trkpt lat="43.018700999999695" lon="-1.3235489999999972">
        <ele>1021.818</ele>
        <time>2022-08-24T10:58:47Z</time>
      </trkpt>
      <trkpt lat="43.01865399999969" lon="-1.3235379999999972">
        <ele>1021.648</ele>
        <time>2022-08-24T10:58:48Z</time>
      </trkpt>
      <trkpt lat="43.01844699999969" lon="-1.3234939999999973">
        <ele>1020.464</ele>
        <time>2022-08-24T10:58:52Z</time>
      </trkpt>
      <trkpt lat="43.01833599999969" lon="-1.3234729999999972">
        <ele>1019.446</ele>
        <time>2022-08-24T10:58:54Z</time>
      </trkpt>
      <trkpt lat="43.01827499999969" lon="-1.3234619999999973">
        <ele>1019.023</ele>
        <time>2022-08-24T10:58:55Z</time>
      </trkpt>
      <trkpt lat="43.01800199999969" lon="-1.3234129999999973">
        <ele>1018.046</ele>
        <time>2022-08-24T10:58:59Z</time>
      </trkpt>
      <trkpt lat="43.01793699999969" lon="-1.3233979999999972">
        <ele>1017.660</ele>
        <time>2022-08-24T10:59:00Z</time>
      </trkpt>
      <trkpt lat="43.01787499999969" lon="-1.3233809999999973">
        <ele>1017.059</ele>
        <time>2022-08-24T10:59:01Z</time>
      </trkpt>
      <trkpt lat="43.017811999999694" lon="-1.3233719999999973">
        <ele>1016.424</ele>
        <time>2022-08-24T10:59:02Z</time>
      </trkpt>
      <trkpt lat="43.0176839999997" lon="-1.3233399999999973">
        <ele>1015.404</ele>
        <time>2022-08-24T10:59:04Z</time>
      </trkpt>
      <trkpt lat="43.017622999999695" lon="-1.3233199999999974">
        <ele>1015.014</ele>
        <time>2022-08-24T10:59:05Z</time>
      </trkpt>
      <trkpt lat="43.01743499999969" lon="-1.3232589999999973">
        <ele>1013.809</ele>
        <time>2022-08-24T10:59:08Z</time>
      </trkpt>
      <trkpt lat="43.01722799999969" lon="-1.3231609999999974">
        <ele>1012.433</ele>
        <time>2022-08-24T10:59:11Z</time>
      </trkpt>
      <trkpt lat="43.01708799999969" lon="-1.3230769999999974">
        <ele>1011.613</ele>
        <time>2022-08-24T10:59:13Z</time>
      </trkpt>
      <trkpt lat="43.017018999999685" lon="-1.3230329999999975">
        <ele>1011.273</ele>
        <time>2022-08-24T10:59:14Z</time>
      </trkpt>
      <trkpt lat="43.01685099999968" lon="-1.3229379999999975">
        <ele>1010.449</ele>
        <time>2022-08-24T10:59:16Z</time>
      </trkpt>
      <trkpt lat="43.01671599999968" lon="-1.3228069999999974">
        <ele>1009.621</ele>
        <time>2022-08-24T10:59:18Z</time>
      </trkpt>
      <trkpt lat="43.01662599999968" lon="-1.3226519999999975">
        <ele>1008.638</ele>
        <time>2022-08-24T10:59:20Z</time>
      </trkpt>
      <trkpt lat="43.016571999999684" lon="-1.3225419999999974">
        <ele>1008.071</ele>
        <time>2022-08-24T10:59:21Z</time>
      </trkpt>
      <trkpt lat="43.016542999999686" lon="-1.3224629999999975">
        <ele>1007.865</ele>
        <time>2022-08-24T10:59:22Z</time>
      </trkpt>
      <trkpt lat="43.01649999999969" lon="-1.3223669999999974">
        <ele>1006.874</ele>
        <time>2022-08-24T10:59:23Z</time>
      </trkpt>
      <trkpt lat="43.016427999999685" lon="-1.3221589999999974">
        <ele>1006.242</ele>
        <time>2022-08-24T10:59:25Z</time>
      </trkpt>
      <trkpt lat="43.01640199999969" lon="-1.3220489999999974">
        <ele>1005.222</ele>
        <time>2022-08-24T10:59:26Z</time>
      </trkpt>
      <trkpt lat="43.01633299999968" lon="-1.3216959999999973">
        <ele>1004.014</ele>
        <time>2022-08-24T10:59:29Z</time>
      </trkpt>
      <trkpt lat="43.016286999999686" lon="-1.3215519999999974">
        <ele>1003.409</ele>
        <time>2022-08-24T10:59:30Z</time>
      </trkpt>
      <trkpt lat="43.016250999999684" lon="-1.3214569999999974">
        <ele>1003.075</ele>
        <time>2022-08-24T10:59:31Z</time>
      </trkpt>
      <trkpt lat="43.01613599999968" lon="-1.3212319999999975">
        <ele>1001.255</ele>
        <time>2022-08-24T10:59:33Z</time>
      </trkpt>
      <trkpt lat="43.01599799999968" lon="-1.3210289999999976">
        <ele>999.825</ele>
        <time>2022-08-24T10:59:35Z</time>
      </trkpt>
      <trkpt lat="43.01592599999968" lon="-1.3209399999999976">
        <ele>999.471</ele>
        <time>2022-08-24T10:59:36Z</time>
      </trkpt>
      <trkpt lat="43.01584699999968" lon="-1.3208339999999976">
        <ele>998.233</ele>
        <time>2022-08-24T10:59:37Z</time>
      </trkpt>
      <trkpt lat="43.01579699999968" lon="-1.3207669999999976">
        <ele>998.080</ele>
        <time>2022-08-24T10:59:38Z</time>
      </trkpt>
      <trkpt lat="43.01573899999968" lon="-1.3206839999999975">
        <ele>997.613</ele>
        <time>2022-08-24T10:59:39Z</time>
      </trkpt>
      <trkpt lat="43.01567899999968" lon="-1.3206079999999976">
        <ele>996.087</ele>
        <time>2022-08-24T10:59:40Z</time>
      </trkpt>
      <trkpt lat="43.01562299999968" lon="-1.3205389999999975">
        <ele>995.276</ele>
        <time>2022-08-24T10:59:41Z</time>
      </trkpt>
      <trkpt lat="43.01556699999968" lon="-1.3204779999999974">
        <ele>994.023</ele>
        <time>2022-08-24T10:59:42Z</time>
      </trkpt>
      <trkpt lat="43.01552099999968" lon="-1.3204149999999975">
        <ele>993.283</ele>
        <time>2022-08-24T10:59:43Z</time>
      </trkpt>
      <trkpt lat="43.01547299999968" lon="-1.3203559999999974">
        <ele>992.211</ele>
        <time>2022-08-24T10:59:44Z</time>
      </trkpt>
      <trkpt lat="43.01541799999968" lon="-1.3202939999999974">
        <ele>991.409</ele>
        <time>2022-08-24T10:59:45Z</time>
      </trkpt>
      <trkpt lat="43.015362999999674" lon="-1.3202259999999975">
        <ele>991.043</ele>
        <time>2022-08-24T10:59:46Z</time>
      </trkpt>
      <trkpt lat="43.015235999999675" lon="-1.3200839999999974">
        <ele>989.623</ele>
        <time>2022-08-24T10:59:48Z</time>
      </trkpt>
      <trkpt lat="43.01511299999967" lon="-1.3199399999999974">
        <ele>988.453</ele>
        <time>2022-08-24T10:59:50Z</time>
      </trkpt>
      <trkpt lat="43.01497599999967" lon="-1.3197769999999975">
        <ele>987.229</ele>
        <time>2022-08-24T10:59:52Z</time>
      </trkpt>
      <trkpt lat="43.014757999999674" lon="-1.3195599999999976">
        <ele>985.881</ele>
        <time>2022-08-24T10:59:55Z</time>
      </trkpt>
      <trkpt lat="43.01467999999967" lon="-1.3194879999999976">
        <ele>984.628</ele>
        <time>2022-08-24T10:59:56Z</time>
      </trkpt>
      <trkpt lat="43.01453099999967" lon="-1.3193769999999976">
        <ele>983.431</ele>
        <time>2022-08-24T10:59:58Z</time>
      </trkpt>
      <trkpt lat="43.014346999999674" lon="-1.3192969999999975">
        <ele>982.275</ele>
        <time>2022-08-24T11:00:00Z</time>
      </trkpt>
      <trkpt lat="43.01415399999967" lon="-1.3192629999999974">
        <ele>981.064</ele>
        <time>2022-08-24T11:00:02Z</time>
      </trkpt>
      <trkpt lat="43.01405499999967" lon="-1.3192499999999974">
        <ele>980.436</ele>
        <time>2022-08-24T11:00:03Z</time>
      </trkpt>
      <trkpt lat="43.013839999999675" lon="-1.3192519999999974">
        <ele>979.617</ele>
        <time>2022-08-24T11:00:05Z</time>
      </trkpt>
      <trkpt lat="43.01366199999968" lon="-1.3192709999999974">
        <ele>978.618</ele>
        <time>2022-08-24T11:00:07Z</time>
      </trkpt>
      <trkpt lat="43.013560999999676" lon="-1.3192789999999974">
        <ele>977.409</ele>
        <time>2022-08-24T11:00:08Z</time>
      </trkpt>
      <trkpt lat="43.01333199999968" lon="-1.3193139999999974">
        <ele>975.864</ele>
        <time>2022-08-24T11:00:10Z</time>
      </trkpt>
      <trkpt lat="43.01322799999968" lon="-1.3193369999999975">
        <ele>974.614</ele>
        <time>2022-08-24T11:00:11Z</time>
      </trkpt>
      <trkpt lat="43.013037999999675" lon="-1.3193819999999976">
        <ele>972.864</ele>
        <time>2022-08-24T11:00:13Z</time>
      </trkpt>
      <trkpt lat="43.012826999999675" lon="-1.3194349999999977">
        <ele>971.220</ele>
        <time>2022-08-24T11:00:15Z</time>
      </trkpt>
      <trkpt lat="43.012612999999675" lon="-1.3194889999999977">
        <ele>970.062</ele>
        <time>2022-08-24T11:00:17Z</time>
      </trkpt>
      <trkpt lat="43.01251099999968" lon="-1.3195219999999976">
        <ele>968.849</ele>
        <time>2022-08-24T11:00:18Z</time>
      </trkpt>
      <trkpt lat="43.01231399999968" lon="-1.3196019999999977">
        <ele>967.472</ele>
        <time>2022-08-24T11:00:20Z</time>
      </trkpt>
      <trkpt lat="43.012218999999675" lon="-1.3196499999999978">
        <ele>967.076</ele>
        <time>2022-08-24T11:00:21Z</time>
      </trkpt>
      <trkpt lat="43.01212799999968" lon="-1.3196969999999977">
        <ele>965.895</ele>
        <time>2022-08-24T11:00:22Z</time>
      </trkpt>
      <trkpt lat="43.01203699999968" lon="-1.3197339999999977">
        <ele>965.087</ele>
        <time>2022-08-24T11:00:23Z</time>
      </trkpt>
      <trkpt lat="43.01194399999968" lon="-1.3197529999999977">
        <ele>964.642</ele>
        <time>2022-08-24T11:00:24Z</time>
      </trkpt>
      <trkpt lat="43.01184799999968" lon="-1.3197529999999977">
        <ele>963.826</ele>
        <time>2022-08-24T11:00:25Z</time>
      </trkpt>
      <trkpt lat="43.01173199999968" lon="-1.3197369999999977">
        <ele>963.209</ele>
        <time>2022-08-24T11:00:26Z</time>
      </trkpt>
      <trkpt lat="43.01165399999968" lon="-1.3197219999999976">
        <ele>962.849</ele>
        <time>2022-08-24T11:00:27Z</time>
      </trkpt>
      <trkpt lat="43.01155999999968" lon="-1.3196939999999977">
        <ele>961.869</ele>
        <time>2022-08-24T11:00:28Z</time>
      </trkpt>
      <trkpt lat="43.01136699999968" lon="-1.3196659999999978">
        <ele>960.459</ele>
        <time>2022-08-24T11:00:30Z</time>
      </trkpt>
      <trkpt lat="43.01125399999968" lon="-1.3196499999999978">
        <ele>960.295</ele>
        <time>2022-08-24T11:00:31Z</time>
      </trkpt>
      <trkpt lat="43.01118099999968" lon="-1.3196439999999978">
        <ele>959.427</ele>
        <time>2022-08-24T11:00:32Z</time>
      </trkpt>
      <trkpt lat="43.01108999999968" lon="-1.3196409999999978">
        <ele>959.284</ele>
        <time>2022-08-24T11:00:33Z</time>
      </trkpt>
      <trkpt lat="43.011001999999685" lon="-1.3196549999999978">
        <ele>958.667</ele>
        <time>2022-08-24T11:00:34Z</time>
      </trkpt>
      <trkpt lat="43.01089699999969" lon="-1.3196829999999977">
        <ele>958.081</ele>
        <time>2022-08-24T11:00:35Z</time>
      </trkpt>
      <trkpt lat="43.01081399999969" lon="-1.3197229999999978">
        <ele>957.270</ele>
        <time>2022-08-24T11:00:36Z</time>
      </trkpt>
      <trkpt lat="43.01074999999969" lon="-1.3197669999999977">
        <ele>956.087</ele>
        <time>2022-08-24T11:00:37Z</time>
      </trkpt>
      <trkpt lat="43.01067099999969" lon="-1.3198189999999976">
        <ele>955.642</ele>
        <time>2022-08-24T11:00:38Z</time>
      </trkpt>
      <trkpt lat="43.010570999999686" lon="-1.3198769999999975">
        <ele>954.226</ele>
        <time>2022-08-24T11:00:39Z</time>
      </trkpt>
      <trkpt lat="43.01049099999969" lon="-1.3199389999999975">
        <ele>953.809</ele>
        <time>2022-08-24T11:00:40Z</time>
      </trkpt>
      <trkpt lat="43.01043099999969" lon="-1.3199899999999976">
        <ele>952.879</ele>
        <time>2022-08-24T11:00:41Z</time>
      </trkpt>
      <trkpt lat="43.01035999999969" lon="-1.3200639999999975">
        <ele>952.039</ele>
        <time>2022-08-24T11:00:42Z</time>
      </trkpt>
      <trkpt lat="43.01029599999969" lon="-1.3201759999999974">
        <ele>951.689</ele>
        <time>2022-08-24T11:00:43Z</time>
      </trkpt>
      <trkpt lat="43.01025899999969" lon="-1.3202879999999972">
        <ele>950.685</ele>
        <time>2022-08-24T11:00:44Z</time>
      </trkpt>
      <trkpt lat="43.01022899999969" lon="-1.3204079999999971">
        <ele>950.287</ele>
        <time>2022-08-24T11:00:45Z</time>
      </trkpt>
      <trkpt lat="43.01021199999969" lon="-1.3205149999999972">
        <ele>949.064</ele>
        <time>2022-08-24T11:00:46Z</time>
      </trkpt>
      <trkpt lat="43.01018599999969" lon="-1.3206399999999971">
        <ele>948.077</ele>
        <time>2022-08-24T11:00:47Z</time>
      </trkpt>
      <trkpt lat="43.01013599999969" lon="-1.320778999999997">
        <ele>947.651</ele>
        <time>2022-08-24T11:00:48Z</time>
      </trkpt>
      <trkpt lat="43.01008299999969" lon="-1.320878999999997">
        <ele>946.850</ele>
        <time>2022-08-24T11:00:49Z</time>
      </trkpt>
      <trkpt lat="43.01001599999969" lon="-1.320958999999997">
        <ele>946.418</ele>
        <time>2022-08-24T11:00:50Z</time>
      </trkpt>
      <trkpt lat="43.00996199999969" lon="-1.321018999999997">
        <ele>945.898</ele>
        <time>2022-08-24T11:00:51Z</time>
      </trkpt>
      <trkpt lat="43.00988199999969" lon="-1.3210749999999971">
        <ele>945.617</ele>
        <time>2022-08-24T11:00:52Z</time>
      </trkpt>
      <trkpt lat="43.009787999999695" lon="-1.3211179999999971">
        <ele>945.209</ele>
        <time>2022-08-24T11:00:53Z</time>
      </trkpt>
      <trkpt lat="43.009711999999695" lon="-1.321158999999997">
        <ele>945.032</ele>
        <time>2022-08-24T11:00:54Z</time>
      </trkpt>
      <trkpt lat="43.009649999999695" lon="-1.3212229999999971">
        <ele>945.082</ele>
        <time>2022-08-24T11:00:55Z</time>
      </trkpt>
      <trkpt lat="43.0096069999997" lon="-1.3212899999999972">
        <ele>944.852</ele>
        <time>2022-08-24T11:00:56Z</time>
      </trkpt>
      <trkpt lat="43.0095669999997" lon="-1.3213789999999972">
        <ele>944.828</ele>
        <time>2022-08-24T11:00:57Z</time>
      </trkpt>
      <trkpt lat="43.0095379999997" lon="-1.3214769999999971">
        <ele>944.650</ele>
        <time>2022-08-24T11:00:58Z</time>
      </trkpt>
      <trkpt lat="43.009516999999704" lon="-1.3215789999999972">
        <ele>944.467</ele>
        <time>2022-08-24T11:00:59Z</time>
      </trkpt>
      <trkpt lat="43.00951299999971" lon="-1.3216829999999973">
        <ele>944.490</ele>
        <time>2022-08-24T11:01:00Z</time>
      </trkpt>
      <trkpt lat="43.009527999999705" lon="-1.3217819999999973">
        <ele>943.854</ele>
        <time>2022-08-24T11:01:01Z</time>
      </trkpt>
      <trkpt lat="43.0095539999997" lon="-1.3218819999999973">
        <ele>943.833</ele>
        <time>2022-08-24T11:01:02Z</time>
      </trkpt>
      <trkpt lat="43.009583999999705" lon="-1.3219769999999973">
        <ele>943.065</ele>
        <time>2022-08-24T11:01:03Z</time>
      </trkpt>
      <trkpt lat="43.0096129999997" lon="-1.3220699999999972">
        <ele>942.868</ele>
        <time>2022-08-24T11:01:04Z</time>
      </trkpt>
      <trkpt lat="43.0096219999997" lon="-1.3221589999999972">
        <ele>942.414</ele>
        <time>2022-08-24T11:01:05Z</time>
      </trkpt>
      <trkpt lat="43.0096139999997" lon="-1.3222259999999972">
        <ele>941.809</ele>
        <time>2022-08-24T11:01:06Z</time>
      </trkpt>
      <trkpt lat="43.0095829999997" lon="-1.3222649999999971">
        <ele>941.817</ele>
        <time>2022-08-24T11:01:07Z</time>
      </trkpt>
      <trkpt lat="43.0095379999997" lon="-1.3222639999999972">
        <ele>941.467</ele>
        <time>2022-08-24T11:01:08Z</time>
      </trkpt>
      <trkpt lat="43.0094679999997" lon="-1.3221749999999972">
        <ele>941.067</ele>
        <time>2022-08-24T11:01:10Z</time>
      </trkpt>
      <trkpt lat="43.0094389999997" lon="-1.3220969999999972">
        <ele>941.023</ele>
        <time>2022-08-24T11:01:11Z</time>
      </trkpt>
      <trkpt lat="43.009375999999705" lon="-1.3219259999999973">
        <ele>940.485</ele>
        <time>2022-08-24T11:01:13Z</time>
      </trkpt>
      <trkpt lat="43.0093429999997" lon="-1.3218379999999972">
        <ele>940.242</ele>
        <time>2022-08-24T11:01:14Z</time>
      </trkpt>
      <trkpt lat="43.0093149999997" lon="-1.3217459999999972">
        <ele>940.085</ele>
        <time>2022-08-24T11:01:15Z</time>
      </trkpt>
      <trkpt lat="43.0092809999997" lon="-1.3216529999999973">
        <ele>939.879</ele>
        <time>2022-08-24T11:01:16Z</time>
      </trkpt>
      <trkpt lat="43.0092249999997" lon="-1.3214539999999972">
        <ele>939.288</ele>
        <time>2022-08-24T11:01:18Z</time>
      </trkpt>
      <trkpt lat="43.009209999999705" lon="-1.3213539999999973">
        <ele>939.079</ele>
        <time>2022-08-24T11:01:19Z</time>
      </trkpt>
      <trkpt lat="43.00920299999971" lon="-1.3212599999999972">
        <ele>938.605</ele>
        <time>2022-08-24T11:01:20Z</time>
      </trkpt>
      <trkpt lat="43.009200999999706" lon="-1.3211709999999972">
        <ele>938.425</ele>
        <time>2022-08-24T11:01:21Z</time>
      </trkpt>
      <trkpt lat="43.009200999999706" lon="-1.3210899999999972">
        <ele>938.009</ele>
        <time>2022-08-24T11:01:22Z</time>
      </trkpt>
      <trkpt lat="43.009206999999705" lon="-1.3210139999999972">
        <ele>937.868</ele>
        <time>2022-08-24T11:01:23Z</time>
      </trkpt>
      <trkpt lat="43.009212999999704" lon="-1.3209459999999973">
        <ele>937.238</ele>
        <time>2022-08-24T11:01:24Z</time>
      </trkpt>
      <trkpt lat="43.009257999999704" lon="-1.3207259999999972">
        <ele>936.228</ele>
        <time>2022-08-24T11:01:27Z</time>
      </trkpt>
      <trkpt lat="43.00926799999971" lon="-1.3206689999999972">
        <ele>936.064</ele>
        <time>2022-08-24T11:01:28Z</time>
      </trkpt>
      <trkpt lat="43.00927599999971" lon="-1.3206239999999971">
        <ele>935.426</ele>
        <time>2022-08-24T11:01:29Z</time>
      </trkpt>
      <trkpt lat="43.009279999999706" lon="-1.320599999999997">
        <ele>935.033</ele>
        <time>2022-08-24T11:01:30Z</time>
      </trkpt>
      <trkpt lat="43.009349999999706" lon="-1.320624999999997">
        <ele>934.876</ele>
        <time>2022-08-24T11:26:15Z</time>
      </trkpt>
      <trkpt lat="43.009335999999706" lon="-1.320613999999997">
        <ele>935.270</ele>
        <time>2022-08-24T11:26:16Z</time>
      </trkpt>
      <trkpt lat="43.009291999999704" lon="-1.320592999999997">
        <ele>936.449</ele>
        <time>2022-08-24T11:27:58Z</time>
      </trkpt>
      <trkpt lat="43.0093209999997" lon="-1.320610999999997">
        <ele>936.688</ele>
        <time>2022-08-24T11:28:00Z</time>
      </trkpt>
      <trkpt lat="43.0093289999997" lon="-1.320605999999997">
        <ele>936.624</ele>
        <time>2022-08-24T11:28:01Z</time>
      </trkpt>
      <trkpt lat="43.009330999999705" lon="-1.3205969999999971">
        <ele>936.626</ele>
        <time>2022-08-24T11:28:02Z</time>
      </trkpt>
      <trkpt lat="43.00934399999971" lon="-1.320613999999997">
        <ele>936.809</ele>
        <time>2022-08-24T12:07:20Z</time>
      </trkpt>
      <trkpt lat="43.009330999999705" lon="-1.320594999999997">
        <ele>936.869</ele>
        <time>2022-08-24T12:07:22Z</time>
      </trkpt>
      <trkpt lat="43.0088759999997" lon="-1.320320999999997">
        <ele>938.079</ele>
        <time>2022-08-24T12:07:41Z</time>
      </trkpt>
      <trkpt lat="43.0088539999997" lon="-1.320311999999997">
        <ele>938.039</ele>
        <time>2022-08-24T12:07:42Z</time>
      </trkpt>
      <trkpt lat="43.0092689999997" lon="-1.320532999999997">
        <ele>937.655</ele>
        <time>2022-08-24T12:08:03Z</time>
      </trkpt>
      <trkpt lat="43.0094739999997" lon="-1.3206159999999971">
        <ele>937.837</ele>
        <time>2022-08-24T12:08:08Z</time>
      </trkpt>
      <trkpt lat="43.0094699999997" lon="-1.3206339999999972">
        <ele>937.864</ele>
        <time>2022-08-24T12:08:09Z</time>
      </trkpt>
      <trkpt lat="43.0088409999997" lon="-1.3203019999999972">
        <ele>937.427</ele>
        <time>2022-08-24T12:08:22Z</time>
      </trkpt>
      <trkpt lat="43.0088829999997" lon="-1.3203109999999971">
        <ele>937.471</ele>
        <time>2022-08-24T12:08:23Z</time>
      </trkpt>
      <trkpt lat="43.0092879999997" lon="-1.320613999999997">
        <ele>937.220</ele>
        <time>2022-08-24T12:08:44Z</time>
      </trkpt>
      <trkpt lat="43.0092919999997" lon="-1.320610999999997">
        <ele>937.251</ele>
        <time>2022-08-24T12:08:45Z</time>
      </trkpt>
      <trkpt lat="43.009632999999695" lon="-1.3199919999999972">
        <ele>935.001</ele>
        <time>2022-08-24T12:28:21Z</time>
      </trkpt>
      <trkpt lat="43.00970999999969" lon="-1.3199779999999972">
        <ele>935.211</ele>
        <time>2022-08-24T12:28:26Z</time>
      </trkpt>
      <trkpt lat="43.00975199999969" lon="-1.3199419999999973">
        <ele>935.209</ele>
        <time>2022-08-24T12:28:29Z</time>
      </trkpt>
      <trkpt lat="43.009779999999694" lon="-1.3199269999999972">
        <ele>935.496</ele>
        <time>2022-08-24T12:28:31Z</time>
      </trkpt>
      <trkpt lat="43.009792999999696" lon="-1.3199189999999972">
        <ele>935.466</ele>
        <time>2022-08-24T12:28:32Z</time>
      </trkpt>
      <trkpt lat="43.009804999999695" lon="-1.3199149999999973">
        <ele>935.476</ele>
        <time>2022-08-24T12:28:33Z</time>
      </trkpt>
      <trkpt lat="43.00980899999969" lon="-1.3199039999999973">
        <ele>935.442</ele>
        <time>2022-08-24T12:28:35Z</time>
      </trkpt>
      <trkpt lat="43.009807999999694" lon="-1.3199019999999972">
        <ele>935.464</ele>
        <time>2022-08-24T12:28:36Z</time>
      </trkpt>
      <trkpt lat="43.009812999999696" lon="-1.3199029999999972">
        <ele>935.481</ele>
        <time>2022-08-24T12:28:37Z</time>
      </trkpt>
      <trkpt lat="43.0098149999997" lon="-1.3199169999999971">
        <ele>935.454</ele>
        <time>2022-08-24T12:28:38Z</time>
      </trkpt>
      <trkpt lat="43.0098249999997" lon="-1.319911999999997">
        <ele>935.428</ele>
        <time>2022-08-24T12:28:39Z</time>
      </trkpt>
      <trkpt lat="43.0098619999997" lon="-1.3198869999999971">
        <ele>935.477</ele>
        <time>2022-08-24T12:28:42Z</time>
      </trkpt>
      <trkpt lat="43.0098669999997" lon="-1.3198819999999971">
        <ele>935.676</ele>
        <time>2022-08-24T12:28:43Z</time>
      </trkpt>
      <trkpt lat="43.0098749999997" lon="-1.3198649999999972">
        <ele>935.890</ele>
        <time>2022-08-24T12:28:44Z</time>
      </trkpt>
      <trkpt lat="43.0098789999997" lon="-1.3198529999999973">
        <ele>935.819</ele>
        <time>2022-08-24T12:28:45Z</time>
      </trkpt>
      <trkpt lat="43.0098729999997" lon="-1.3198439999999974">
        <ele>936.009</ele>
        <time>2022-08-24T12:28:46Z</time>
      </trkpt>
      <trkpt lat="43.0098579999997" lon="-1.3198359999999973">
        <ele>936.228</ele>
        <time>2022-08-24T12:28:47Z</time>
      </trkpt>
      <trkpt lat="43.0098669999997" lon="-1.3197309999999973">
        <ele>936.668</ele>
        <time>2022-08-24T12:28:53Z</time>
      </trkpt>
      <trkpt lat="43.0100099999997" lon="-1.3196389999999973">
        <ele>936.628</ele>
        <time>2022-08-24T12:28:55Z</time>
      </trkpt>
      <trkpt lat="43.010031999999704" lon="-1.3196259999999973">
        <ele>936.214</ele>
        <time>2022-08-24T12:28:56Z</time>
      </trkpt>
      <trkpt lat="43.0100689999997" lon="-1.3195949999999974">
        <ele>936.286</ele>
        <time>2022-08-24T12:28:57Z</time>
      </trkpt>
      <trkpt lat="43.0101029999997" lon="-1.3195679999999974">
        <ele>936.253</ele>
        <time>2022-08-24T12:28:58Z</time>
      </trkpt>
      <trkpt lat="43.010124999999704" lon="-1.3195539999999975">
        <ele>936.296</ele>
        <time>2022-08-24T12:28:59Z</time>
      </trkpt>
      <trkpt lat="43.010163999999705" lon="-1.3195239999999975">
        <ele>936.050</ele>
        <time>2022-08-24T12:29:01Z</time>
      </trkpt>
      <trkpt lat="43.0101819999997" lon="-1.3195049999999975">
        <ele>936.099</ele>
        <time>2022-08-24T12:29:02Z</time>
      </trkpt>
      <trkpt lat="43.0102309999997" lon="-1.3194369999999975">
        <ele>935.297</ele>
        <time>2022-08-24T12:29:06Z</time>
      </trkpt>
      <trkpt lat="43.0102749999997" lon="-1.3193969999999975">
        <ele>935.023</ele>
        <time>2022-08-24T12:29:08Z</time>
      </trkpt>
      <trkpt lat="43.0102939999997" lon="-1.3193879999999976">
        <ele>935.025</ele>
        <time>2022-08-24T12:29:09Z</time>
      </trkpt>
      <trkpt lat="43.0103139999997" lon="-1.3193789999999976">
        <ele>934.609</ele>
        <time>2022-08-24T12:29:10Z</time>
      </trkpt>
      <trkpt lat="43.010329999999705" lon="-1.3193719999999975">
        <ele>934.620</ele>
        <time>2022-08-24T12:29:11Z</time>
      </trkpt>
      <trkpt lat="43.01033999999971" lon="-1.3193619999999975">
        <ele>934.650</ele>
        <time>2022-08-24T12:29:12Z</time>
      </trkpt>
      <trkpt lat="43.01035099999971" lon="-1.3193499999999976">
        <ele>934.630</ele>
        <time>2022-08-24T12:29:13Z</time>
      </trkpt>
      <trkpt lat="43.01035599999971" lon="-1.3193479999999975">
        <ele>934.456</ele>
        <time>2022-08-24T12:29:14Z</time>
      </trkpt>
      <trkpt lat="43.01035499999971" lon="-1.3193539999999975">
        <ele>934.488</ele>
        <time>2022-08-24T12:29:15Z</time>
      </trkpt>
      <trkpt lat="43.010353999999715" lon="-1.3193579999999974">
        <ele>934.455</ele>
        <time>2022-08-24T12:29:16Z</time>
      </trkpt>
      <trkpt lat="43.01035499999971" lon="-1.3193619999999973">
        <ele>934.448</ele>
        <time>2022-08-24T12:29:17Z</time>
      </trkpt>
      <trkpt lat="43.01035599999971" lon="-1.3193689999999973">
        <ele>934.432</ele>
        <time>2022-08-24T12:29:18Z</time>
      </trkpt>
      <trkpt lat="43.01035799999971" lon="-1.3193839999999974">
        <ele>934.461</ele>
        <time>2022-08-24T12:29:19Z</time>
      </trkpt>
      <trkpt lat="43.01036399999971" lon="-1.3193949999999974">
        <ele>934.423</ele>
        <time>2022-08-24T12:29:20Z</time>
      </trkpt>
      <trkpt lat="43.01025099999971" lon="-1.3196379999999974">
        <ele>933.083</ele>
        <time>2022-08-24T12:32:33Z</time>
      </trkpt>
      <trkpt lat="43.010246999999715" lon="-1.3196449999999975">
        <ele>933.211</ele>
        <time>2022-08-24T12:32:34Z</time>
      </trkpt>
      <trkpt lat="43.01023099999971" lon="-1.3196479999999975">
        <ele>933.409</ele>
        <time>2022-08-24T12:32:37Z</time>
      </trkpt>
      <trkpt lat="43.010243999999716" lon="-1.3195149999999976">
        <ele>934.053</ele>
        <time>2022-08-24T12:34:42Z</time>
      </trkpt>
      <trkpt lat="43.01024299999972" lon="-1.3195129999999975">
        <ele>934.023</ele>
        <time>2022-08-24T12:34:43Z</time>
      </trkpt>
      <trkpt lat="43.01026299999972" lon="-1.3193919999999975">
        <ele>934.693</ele>
        <time>2022-08-24T12:35:51Z</time>
      </trkpt>
      <trkpt lat="43.01025199999972" lon="-1.3193909999999975">
        <ele>934.689</ele>
        <time>2022-08-24T12:35:53Z</time>
      </trkpt>
      <trkpt lat="43.01024299999972" lon="-1.3194019999999975">
        <ele>934.651</ele>
        <time>2022-08-24T12:35:54Z</time>
      </trkpt>
      <trkpt lat="43.01022499999972" lon="-1.3194259999999975">
        <ele>934.418</ele>
        <time>2022-08-24T12:35:56Z</time>
      </trkpt>
      <trkpt lat="43.01021699999972" lon="-1.3194339999999976">
        <ele>934.231</ele>
        <time>2022-08-24T12:35:57Z</time>
      </trkpt>
      <trkpt lat="43.01020699999972" lon="-1.3194389999999976">
        <ele>934.235</ele>
        <time>2022-08-24T12:35:58Z</time>
      </trkpt>
      <trkpt lat="43.01019299999972" lon="-1.3194449999999975">
        <ele>934.264</ele>
        <time>2022-08-24T12:35:59Z</time>
      </trkpt>
      <trkpt lat="43.01017499999972" lon="-1.3194699999999975">
        <ele>934.238</ele>
        <time>2022-08-24T12:36:01Z</time>
      </trkpt>
      <trkpt lat="43.01016199999972" lon="-1.3194889999999975">
        <ele>934.470</ele>
        <time>2022-08-24T12:36:03Z</time>
      </trkpt>
      <trkpt lat="43.010156999999715" lon="-1.3194949999999974">
        <ele>934.417</ele>
        <time>2022-08-24T12:36:04Z</time>
      </trkpt>
      <trkpt lat="43.010145999999715" lon="-1.3195149999999973">
        <ele>934.609</ele>
        <time>2022-08-24T12:36:06Z</time>
      </trkpt>
      <trkpt lat="43.010139999999716" lon="-1.3195249999999974">
        <ele>934.624</ele>
        <time>2022-08-24T12:36:07Z</time>
      </trkpt>
      <trkpt lat="43.01012199999972" lon="-1.3195439999999974">
        <ele>934.824</ele>
        <time>2022-08-24T12:36:09Z</time>
      </trkpt>
      <trkpt lat="43.01011399999972" lon="-1.3195509999999975">
        <ele>934.844</ele>
        <time>2022-08-24T12:36:10Z</time>
      </trkpt>
      <trkpt lat="43.010108999999716" lon="-1.3195559999999975">
        <ele>935.070</ele>
        <time>2022-08-24T12:36:11Z</time>
      </trkpt>
      <trkpt lat="43.01009899999971" lon="-1.3195679999999974">
        <ele>935.022</ele>
        <time>2022-08-24T12:36:12Z</time>
      </trkpt>
      <trkpt lat="43.010091999999716" lon="-1.3195779999999975">
        <ele>935.079</ele>
        <time>2022-08-24T12:36:13Z</time>
      </trkpt>
      <trkpt lat="43.01008899999972" lon="-1.3195849999999976">
        <ele>935.082</ele>
        <time>2022-08-24T12:36:14Z</time>
      </trkpt>
      <trkpt lat="43.01008499999972" lon="-1.3195889999999975">
        <ele>935.056</ele>
        <time>2022-08-24T12:36:15Z</time>
      </trkpt>
      <trkpt lat="43.01008599999972" lon="-1.3196219999999974">
        <ele>936.025</ele>
        <time>2022-08-24T12:36:24Z</time>
      </trkpt>
      <trkpt lat="43.01009599999972" lon="-1.3196239999999975">
        <ele>936.023</ele>
        <time>2022-08-24T12:36:25Z</time>
      </trkpt>
      <trkpt lat="43.01011599999972" lon="-1.3196229999999975">
        <ele>936.083</ele>
        <time>2022-08-24T12:36:26Z</time>
      </trkpt>
      <trkpt lat="43.01014399999972" lon="-1.3196339999999975">
        <ele>936.011</ele>
        <time>2022-08-24T12:36:28Z</time>
      </trkpt>
      <trkpt lat="43.01015999999972" lon="-1.3196339999999975">
        <ele>936.009</ele>
        <time>2022-08-24T12:36:29Z</time>
      </trkpt>
      <trkpt lat="43.01017399999972" lon="-1.3196339999999975">
        <ele>936.063</ele>
        <time>2022-08-24T12:36:30Z</time>
      </trkpt>
      <trkpt lat="43.01019099999972" lon="-1.3196329999999976">
        <ele>936.053</ele>
        <time>2022-08-24T12:36:31Z</time>
      </trkpt>
      <trkpt lat="43.01019999999972" lon="-1.3196299999999976">
        <ele>936.223</ele>
        <time>2022-08-24T12:36:32Z</time>
      </trkpt>
      <trkpt lat="43.01021199999972" lon="-1.3196189999999977">
        <ele>936.279</ele>
        <time>2022-08-24T12:36:33Z</time>
      </trkpt>
      <trkpt lat="43.01021999999972" lon="-1.3196059999999976">
        <ele>936.221</ele>
        <time>2022-08-24T12:36:34Z</time>
      </trkpt>
      <trkpt lat="43.01020799999972" lon="-1.3195339999999975">
        <ele>936.238</ele>
        <time>2022-08-24T12:36:38Z</time>
      </trkpt>
      <trkpt lat="43.010200999999725" lon="-1.3195269999999975">
        <ele>936.281</ele>
        <time>2022-08-24T12:36:39Z</time>
      </trkpt>
      <trkpt lat="43.010191999999726" lon="-1.3195269999999975">
        <ele>936.075</ele>
        <time>2022-08-24T12:36:40Z</time>
      </trkpt>
      <trkpt lat="43.01018199999972" lon="-1.3195309999999973">
        <ele>936.074</ele>
        <time>2022-08-24T12:36:41Z</time>
      </trkpt>
      <trkpt lat="43.01017399999972" lon="-1.3195379999999974">
        <ele>936.095</ele>
        <time>2022-08-24T12:36:42Z</time>
      </trkpt>
      <trkpt lat="43.010161999999724" lon="-1.3195489999999974">
        <ele>936.049</ele>
        <time>2022-08-24T12:36:43Z</time>
      </trkpt>
      <trkpt lat="43.01013199999972" lon="-1.3195689999999973">
        <ele>936.023</ele>
        <time>2022-08-24T12:36:46Z</time>
      </trkpt>
      <trkpt lat="43.010124999999725" lon="-1.3195759999999974">
        <ele>936.009</ele>
        <time>2022-08-24T12:36:47Z</time>
      </trkpt>
      <trkpt lat="43.010124999999725" lon="-1.3195799999999973">
        <ele>936.050</ele>
        <time>2022-08-24T12:36:48Z</time>
      </trkpt>
      <trkpt lat="43.01012299999972" lon="-1.3195779999999973">
        <ele>936.090</ele>
        <time>2022-08-24T12:36:49Z</time>
      </trkpt>
      <trkpt lat="43.01010599999972" lon="-1.3195879999999973">
        <ele>936.070</ele>
        <time>2022-08-24T12:36:51Z</time>
      </trkpt>
      <trkpt lat="43.010110999999725" lon="-1.3195879999999973">
        <ele>936.096</ele>
        <time>2022-08-24T12:36:52Z</time>
      </trkpt>
      <trkpt lat="43.01011999999972" lon="-1.3195879999999973">
        <ele>936.278</ele>
        <time>2022-08-24T12:36:53Z</time>
      </trkpt>
      <trkpt lat="43.00989899999972" lon="-1.3196849999999973">
        <ele>937.215</ele>
        <time>2022-08-24T12:37:03Z</time>
      </trkpt>
      <trkpt lat="43.00986199999972" lon="-1.3196769999999973">
        <ele>937.088</ele>
        <time>2022-08-24T12:37:04Z</time>
      </trkpt>
      <trkpt lat="43.00978099999972" lon="-1.3197639999999973">
        <ele>936.892</ele>
        <time>2022-08-24T12:37:09Z</time>
      </trkpt>
      <trkpt lat="43.00974899999972" lon="-1.3198209999999972">
        <ele>936.841</ele>
        <time>2022-08-24T12:37:10Z</time>
      </trkpt>
      <trkpt lat="43.00972099999972" lon="-1.3198649999999972">
        <ele>936.642</ele>
        <time>2022-08-24T12:37:11Z</time>
      </trkpt>
      <trkpt lat="43.00968999999972" lon="-1.3198749999999972">
        <ele>936.422</ele>
        <time>2022-08-24T12:37:12Z</time>
      </trkpt>
      <trkpt lat="43.009668999999725" lon="-1.3198839999999972">
        <ele>936.214</ele>
        <time>2022-08-24T12:37:13Z</time>
      </trkpt>
      <trkpt lat="43.009651999999726" lon="-1.3198969999999972">
        <ele>936.209</ele>
        <time>2022-08-24T12:37:14Z</time>
      </trkpt>
      <trkpt lat="43.009626999999725" lon="-1.3199179999999973">
        <ele>936.245</ele>
        <time>2022-08-24T12:37:15Z</time>
      </trkpt>
      <trkpt lat="43.00961399999972" lon="-1.3199329999999974">
        <ele>936.065</ele>
        <time>2022-08-24T12:37:16Z</time>
      </trkpt>
      <trkpt lat="43.009612999999725" lon="-1.3199509999999974">
        <ele>936.085</ele>
        <time>2022-08-24T12:37:17Z</time>
      </trkpt>
      <trkpt lat="43.00962799999972" lon="-1.3199609999999975">
        <ele>936.031</ele>
        <time>2022-08-24T12:37:18Z</time>
      </trkpt>
      <trkpt lat="43.00964499999972" lon="-1.3199479999999975">
        <ele>935.823</ele>
        <time>2022-08-24T12:37:19Z</time>
      </trkpt>
      <trkpt lat="43.009353999999725" lon="-1.3197719999999975">
        <ele>935.430</ele>
        <time>2022-08-24T12:37:23Z</time>
      </trkpt>
      <trkpt lat="43.00933899999973" lon="-1.3197449999999975">
        <ele>935.253</ele>
        <time>2022-08-24T12:37:24Z</time>
      </trkpt>
      <trkpt lat="43.009246999999725" lon="-1.3197929999999976">
        <ele>935.057</ele>
        <time>2022-08-24T12:37:25Z</time>
      </trkpt>
      <trkpt lat="43.009277999999725" lon="-1.3197629999999976">
        <ele>935.086</ele>
        <time>2022-08-24T12:37:27Z</time>
      </trkpt>
      <trkpt lat="43.00927099999973" lon="-1.3197579999999975">
        <ele>935.094</ele>
        <time>2022-08-24T12:37:28Z</time>
      </trkpt>
      <trkpt lat="43.00925899999973" lon="-1.3197539999999977">
        <ele>935.057</ele>
        <time>2022-08-24T12:37:29Z</time>
      </trkpt>
      <trkpt lat="43.00924699999973" lon="-1.3197499999999978">
        <ele>935.022</ele>
        <time>2022-08-24T12:37:30Z</time>
      </trkpt>
      <trkpt lat="43.00923299999973" lon="-1.3197499999999978">
        <ele>935.009</ele>
        <time>2022-08-24T12:37:31Z</time>
      </trkpt>
      <trkpt lat="43.00920899999973" lon="-1.3197389999999978">
        <ele>934.890</ele>
        <time>2022-08-24T12:37:33Z</time>
      </trkpt>
      <trkpt lat="43.009206999999726" lon="-1.3197239999999977">
        <ele>934.830</ele>
        <time>2022-08-24T12:37:34Z</time>
      </trkpt>
      <trkpt lat="43.00921399999972" lon="-1.3197049999999977">
        <ele>934.820</ele>
        <time>2022-08-24T12:37:35Z</time>
      </trkpt>
      <trkpt lat="43.00921999999972" lon="-1.3196929999999978">
        <ele>934.836</ele>
        <time>2022-08-24T12:37:36Z</time>
      </trkpt>
      <trkpt lat="43.00923199999972" lon="-1.3196809999999979">
        <ele>934.648</ele>
        <time>2022-08-24T12:37:37Z</time>
      </trkpt>
      <trkpt lat="43.00924599999972" lon="-1.319674999999998">
        <ele>934.695</ele>
        <time>2022-08-24T12:37:38Z</time>
      </trkpt>
      <trkpt lat="43.00926199999972" lon="-1.319676999999998">
        <ele>934.698</ele>
        <time>2022-08-24T12:37:39Z</time>
      </trkpt>
      <trkpt lat="43.00927999999972" lon="-1.319683999999998">
        <ele>934.682</ele>
        <time>2022-08-24T12:37:40Z</time>
      </trkpt>
      <trkpt lat="43.00930799999972" lon="-1.319700999999998">
        <ele>934.671</ele>
        <time>2022-08-24T12:37:42Z</time>
      </trkpt>
      <trkpt lat="43.00932299999972" lon="-1.319708999999998">
        <ele>934.654</ele>
        <time>2022-08-24T12:37:43Z</time>
      </trkpt>
      <trkpt lat="43.009343999999714" lon="-1.319716999999998">
        <ele>934.656</ele>
        <time>2022-08-24T12:37:44Z</time>
      </trkpt>
      <trkpt lat="43.009362999999716" lon="-1.319718999999998">
        <ele>934.611</ele>
        <time>2022-08-24T12:37:45Z</time>
      </trkpt>
      <trkpt lat="43.009391999999714" lon="-1.319707999999998">
        <ele>934.809</ele>
        <time>2022-08-24T12:37:47Z</time>
      </trkpt>
      <trkpt lat="43.00940399999971" lon="-1.319705999999998">
        <ele>934.836</ele>
        <time>2022-08-24T12:37:48Z</time>
      </trkpt>
      <trkpt lat="43.009416999999715" lon="-1.3197049999999981">
        <ele>934.896</ele>
        <time>2022-08-24T12:37:49Z</time>
      </trkpt>
      <trkpt lat="43.00944299999971" lon="-1.3197009999999982">
        <ele>934.846</ele>
        <time>2022-08-24T12:37:51Z</time>
      </trkpt>
      <trkpt lat="43.009453999999714" lon="-1.3197029999999983">
        <ele>935.052</ele>
        <time>2022-08-24T12:37:52Z</time>
      </trkpt>
      <trkpt lat="43.00946399999972" lon="-1.3197039999999982">
        <ele>935.054</ele>
        <time>2022-08-24T12:37:53Z</time>
      </trkpt>
      <trkpt lat="43.009467999999714" lon="-1.3197019999999982">
        <ele>935.281</ele>
        <time>2022-08-24T12:37:54Z</time>
      </trkpt>
      <trkpt lat="43.009467999999714" lon="-1.3196989999999982">
        <ele>935.454</ele>
        <time>2022-08-24T12:37:55Z</time>
      </trkpt>
      <trkpt lat="43.00921599999971" lon="-1.3197559999999982">
        <ele>936.078</ele>
        <time>2022-08-24T12:42:04Z</time>
      </trkpt>
      <trkpt lat="43.00925599999971" lon="-1.319732999999998">
        <ele>935.877</ele>
        <time>2022-08-24T12:42:09Z</time>
      </trkpt>
      <trkpt lat="43.00912399999971" lon="-1.3197669999999981">
        <ele>935.444</ele>
        <time>2022-08-24T12:42:14Z</time>
      </trkpt>
      <trkpt lat="43.00907399999971" lon="-1.3197739999999982">
        <ele>935.205</ele>
        <time>2022-08-24T12:42:15Z</time>
      </trkpt>
      <trkpt lat="43.009037999999705" lon="-1.3197839999999983">
        <ele>935.015</ele>
        <time>2022-08-24T12:42:16Z</time>
      </trkpt>
      <trkpt lat="43.009001999999704" lon="-1.3197989999999984">
        <ele>934.809</ele>
        <time>2022-08-24T12:42:17Z</time>
      </trkpt>
      <trkpt lat="43.0089659999997" lon="-1.3198119999999984">
        <ele>934.645</ele>
        <time>2022-08-24T12:42:18Z</time>
      </trkpt>
      <trkpt lat="43.0089049999997" lon="-1.3198379999999985">
        <ele>934.615</ele>
        <time>2022-08-24T12:42:20Z</time>
      </trkpt>
      <trkpt lat="43.0088779999997" lon="-1.3198379999999985">
        <ele>934.655</ele>
        <time>2022-08-24T12:42:21Z</time>
      </trkpt>
      <trkpt lat="43.0088519999997" lon="-1.3198359999999985">
        <ele>934.481</ele>
        <time>2022-08-24T12:42:22Z</time>
      </trkpt>
      <trkpt lat="43.0088259999997" lon="-1.3198359999999985">
        <ele>934.433</ele>
        <time>2022-08-24T12:42:23Z</time>
      </trkpt>
      <trkpt lat="43.0088069999997" lon="-1.3198339999999984">
        <ele>934.250</ele>
        <time>2022-08-24T12:42:24Z</time>
      </trkpt>
      <trkpt lat="43.0087839999997" lon="-1.3198339999999984">
        <ele>934.243</ele>
        <time>2022-08-24T12:42:25Z</time>
      </trkpt>
      <trkpt lat="43.0087629999997" lon="-1.3198309999999984">
        <ele>933.877</ele>
        <time>2022-08-24T12:42:26Z</time>
      </trkpt>
      <trkpt lat="43.0087439999997" lon="-1.3198309999999984">
        <ele>933.686</ele>
        <time>2022-08-24T12:42:27Z</time>
      </trkpt>
      <trkpt lat="43.0087269999997" lon="-1.3198269999999985">
        <ele>933.638</ele>
        <time>2022-08-24T12:42:28Z</time>
      </trkpt>
      <trkpt lat="43.0087069999997" lon="-1.3198199999999984">
        <ele>933.470</ele>
        <time>2022-08-24T12:42:29Z</time>
      </trkpt>
      <trkpt lat="43.0086679999997" lon="-1.3197929999999984">
        <ele>933.217</ele>
        <time>2022-08-24T12:42:31Z</time>
      </trkpt>
      <trkpt lat="43.0086459999997" lon="-1.3197779999999983">
        <ele>933.209</ele>
        <time>2022-08-24T12:42:32Z</time>
      </trkpt>
      <trkpt lat="43.0085789999997" lon="-1.3197149999999984">
        <ele>933.044</ele>
        <time>2022-08-24T12:42:35Z</time>
      </trkpt>
      <trkpt lat="43.0085569999997" lon="-1.3196979999999985">
        <ele>933.084</ele>
        <time>2022-08-24T12:42:36Z</time>
      </trkpt>
      <trkpt lat="43.008537999999696" lon="-1.3196829999999984">
        <ele>933.014</ele>
        <time>2022-08-24T12:42:37Z</time>
      </trkpt>
      <trkpt lat="43.008523999999696" lon="-1.3196739999999985">
        <ele>932.810</ele>
        <time>2022-08-24T12:42:38Z</time>
      </trkpt>
      <trkpt lat="43.00851399999969" lon="-1.3196699999999986">
        <ele>932.282</ele>
        <time>2022-08-24T12:42:39Z</time>
      </trkpt>
      <trkpt lat="43.00851999999969" lon="-1.3196789999999985">
        <ele>931.079</ele>
        <time>2022-08-24T12:42:52Z</time>
      </trkpt>
      <trkpt lat="43.00850299999969" lon="-1.3197179999999984">
        <ele>930.832</ele>
        <time>2022-08-24T12:42:54Z</time>
      </trkpt>
      <trkpt lat="43.00848699999969" lon="-1.3197929999999984">
        <ele>930.856</ele>
        <time>2022-08-24T12:42:57Z</time>
      </trkpt>
      <trkpt lat="43.00844999999969" lon="-1.3198139999999985">
        <ele>930.685</ele>
        <time>2022-08-24T12:42:59Z</time>
      </trkpt>
      <trkpt lat="43.00843099999969" lon="-1.3198089999999985">
        <ele>930.664</ele>
        <time>2022-08-24T12:43:00Z</time>
      </trkpt>
      <trkpt lat="43.00841199999969" lon="-1.3198039999999984">
        <ele>930.606</ele>
        <time>2022-08-24T12:43:01Z</time>
      </trkpt>
      <trkpt lat="43.008305999999685" lon="-1.3197559999999984">
        <ele>930.416</ele>
        <time>2022-08-24T12:43:06Z</time>
      </trkpt>
      <trkpt lat="43.008285999999686" lon="-1.3197499999999984">
        <ele>930.409</ele>
        <time>2022-08-24T12:43:07Z</time>
      </trkpt>
      <trkpt lat="43.00807299999968" lon="-1.3196569999999985">
        <ele>930.237</ele>
        <time>2022-08-24T12:43:15Z</time>
      </trkpt>
      <trkpt lat="43.00792799999968" lon="-1.3196109999999985">
        <ele>930.067</ele>
        <time>2022-08-24T12:43:19Z</time>
      </trkpt>
      <trkpt lat="43.007889999999676" lon="-1.3196019999999986">
        <ele>930.087</ele>
        <time>2022-08-24T12:43:20Z</time>
      </trkpt>
      <trkpt lat="43.007811999999674" lon="-1.3195799999999986">
        <ele>929.673</ele>
        <time>2022-08-24T12:43:22Z</time>
      </trkpt>
      <trkpt lat="43.00765799999967" lon="-1.3195389999999987">
        <ele>928.875</ele>
        <time>2022-08-24T12:43:26Z</time>
      </trkpt>
      <trkpt lat="43.007580999999675" lon="-1.3195219999999988">
        <ele>928.452</ele>
        <time>2022-08-24T12:43:28Z</time>
      </trkpt>
      <trkpt lat="43.00753499999968" lon="-1.3195059999999987">
        <ele>928.075</ele>
        <time>2022-08-24T12:43:29Z</time>
      </trkpt>
      <trkpt lat="43.00746499999968" lon="-1.3194909999999986">
        <ele>927.869</ele>
        <time>2022-08-24T12:43:31Z</time>
      </trkpt>
      <trkpt lat="43.007172999999675" lon="-1.3194239999999986">
        <ele>927.258</ele>
        <time>2022-08-24T12:43:38Z</time>
      </trkpt>
      <trkpt lat="43.00713199999967" lon="-1.3194159999999986">
        <ele>926.868</ele>
        <time>2022-08-24T12:43:39Z</time>
      </trkpt>
      <trkpt lat="43.00708199999967" lon="-1.3194089999999985">
        <ele>926.642</ele>
        <time>2022-08-24T12:43:40Z</time>
      </trkpt>
      <trkpt lat="43.00698399999967" lon="-1.3193979999999985">
        <ele>926.226</ele>
        <time>2022-08-24T12:43:42Z</time>
      </trkpt>
      <trkpt lat="43.00693399999967" lon="-1.3193939999999986">
        <ele>926.009</ele>
        <time>2022-08-24T12:43:43Z</time>
      </trkpt>
      <trkpt lat="43.006886999999665" lon="-1.3193889999999986">
        <ele>925.877</ele>
        <time>2022-08-24T12:43:44Z</time>
      </trkpt>
      <trkpt lat="43.006844999999664" lon="-1.3193839999999986">
        <ele>925.647</ele>
        <time>2022-08-24T12:43:45Z</time>
      </trkpt>
      <trkpt lat="43.00680999999967" lon="-1.3193819999999985">
        <ele>925.617</ele>
        <time>2022-08-24T12:43:46Z</time>
      </trkpt>
      <trkpt lat="43.00668899999967" lon="-1.3193639999999984">
        <ele>925.283</ele>
        <time>2022-08-24T12:43:49Z</time>
      </trkpt>
      <trkpt lat="43.006647999999664" lon="-1.3193509999999984">
        <ele>925.285</ele>
        <time>2022-08-24T12:43:50Z</time>
      </trkpt>
      <trkpt lat="43.00661299999967" lon="-1.3193399999999984">
        <ele>925.052</ele>
        <time>2022-08-24T12:43:51Z</time>
      </trkpt>
      <trkpt lat="43.006576999999666" lon="-1.3193329999999983">
        <ele>925.085</ele>
        <time>2022-08-24T12:43:52Z</time>
      </trkpt>
      <trkpt lat="43.00654499999967" lon="-1.3193289999999984">
        <ele>925.029</ele>
        <time>2022-08-24T12:43:53Z</time>
      </trkpt>
      <trkpt lat="43.00651399999967" lon="-1.3193259999999984">
        <ele>924.868</ele>
        <time>2022-08-24T12:43:54Z</time>
      </trkpt>
      <trkpt lat="43.00648199999967" lon="-1.3193319999999984">
        <ele>924.839</ele>
        <time>2022-08-24T12:43:55Z</time>
      </trkpt>
      <trkpt lat="43.00645399999967" lon="-1.3193359999999983">
        <ele>924.601</ele>
        <time>2022-08-24T12:43:56Z</time>
      </trkpt>
      <trkpt lat="43.00642599999967" lon="-1.3193329999999983">
        <ele>924.621</ele>
        <time>2022-08-24T12:43:57Z</time>
      </trkpt>
      <trkpt lat="43.00636399999967" lon="-1.3193259999999982">
        <ele>924.409</ele>
        <time>2022-08-24T12:43:59Z</time>
      </trkpt>
      <trkpt lat="43.00632299999967" lon="-1.3193279999999983">
        <ele>924.264</ele>
        <time>2022-08-24T12:44:00Z</time>
      </trkpt>
      <trkpt lat="43.00623999999967" lon="-1.3193409999999983">
        <ele>924.014</ele>
        <time>2022-08-24T12:44:02Z</time>
      </trkpt>
      <trkpt lat="43.00619199999967" lon="-1.3193449999999982">
        <ele>923.894</ele>
        <time>2022-08-24T12:44:03Z</time>
      </trkpt>
      <trkpt lat="43.00613299999967" lon="-1.3193519999999983">
        <ele>923.610</ele>
        <time>2022-08-24T12:44:04Z</time>
      </trkpt>
      <trkpt lat="43.00609599999967" lon="-1.3193539999999984">
        <ele>923.672</ele>
        <time>2022-08-24T12:44:05Z</time>
      </trkpt>
      <trkpt lat="43.00606299999967" lon="-1.3193529999999984">
        <ele>923.619</ele>
        <time>2022-08-24T12:44:06Z</time>
      </trkpt>
      <trkpt lat="43.00603099999967" lon="-1.3193529999999984">
        <ele>923.442</ele>
        <time>2022-08-24T12:44:07Z</time>
      </trkpt>
      <trkpt lat="43.005962999999674" lon="-1.3193409999999985">
        <ele>923.236</ele>
        <time>2022-08-24T12:44:09Z</time>
      </trkpt>
      <trkpt lat="43.005936999999676" lon="-1.3193329999999985">
        <ele>923.055</ele>
        <time>2022-08-24T12:44:10Z</time>
      </trkpt>
      <trkpt lat="43.00590799999968" lon="-1.3193229999999985">
        <ele>923.059</ele>
        <time>2022-08-24T12:44:11Z</time>
      </trkpt>
      <trkpt lat="43.00588599999968" lon="-1.3193249999999985">
        <ele>922.803</ele>
        <time>2022-08-24T12:44:12Z</time>
      </trkpt>
      <trkpt lat="43.00586799999968" lon="-1.3193179999999984">
        <ele>922.623</ele>
        <time>2022-08-24T12:44:13Z</time>
      </trkpt>
      <trkpt lat="43.00585199999968" lon="-1.3193169999999985">
        <ele>922.609</ele>
        <time>2022-08-24T12:44:14Z</time>
      </trkpt>
      <trkpt lat="43.00583499999968" lon="-1.3193139999999985">
        <ele>922.626</ele>
        <time>2022-08-24T12:44:15Z</time>
      </trkpt>
      <trkpt lat="43.005784999999676" lon="-1.3193299999999986">
        <ele>922.046</ele>
        <time>2022-08-24T12:44:17Z</time>
      </trkpt>
      <trkpt lat="43.005753999999676" lon="-1.3193379999999986">
        <ele>922.096</ele>
        <time>2022-08-24T12:44:18Z</time>
      </trkpt>
      <trkpt lat="43.005686999999675" lon="-1.3193389999999985">
        <ele>921.822</ele>
        <time>2022-08-24T12:44:20Z</time>
      </trkpt>
      <trkpt lat="43.005646999999676" lon="-1.3193359999999985">
        <ele>921.644</ele>
        <time>2022-08-24T12:44:22Z</time>
      </trkpt>
      <trkpt lat="43.00556999999968" lon="-1.3193539999999986">
        <ele>921.441</ele>
        <time>2022-08-24T12:44:24Z</time>
      </trkpt>
      <trkpt lat="43.00553799999968" lon="-1.3193749999999986">
        <ele>921.224</ele>
        <time>2022-08-24T12:44:25Z</time>
      </trkpt>
      <trkpt lat="43.00548499999968" lon="-1.3194159999999986">
        <ele>921.038</ele>
        <time>2022-08-24T12:44:26Z</time>
      </trkpt>
      <trkpt lat="43.00542999999968" lon="-1.3194409999999985">
        <ele>921.087</ele>
        <time>2022-08-24T12:44:27Z</time>
      </trkpt>
      <trkpt lat="43.005374999999674" lon="-1.3194559999999986">
        <ele>921.067</ele>
        <time>2022-08-24T12:44:28Z</time>
      </trkpt>
      <trkpt lat="43.005328999999676" lon="-1.3194609999999987">
        <ele>921.081</ele>
        <time>2022-08-24T12:44:29Z</time>
      </trkpt>
      <trkpt lat="43.005227999999676" lon="-1.3194909999999986">
        <ele>921.019</ele>
        <time>2022-08-24T12:44:32Z</time>
      </trkpt>
      <trkpt lat="43.00521299999968" lon="-1.3194989999999986">
        <ele>921.009</ele>
        <time>2022-08-24T12:44:33Z</time>
      </trkpt>
      <trkpt lat="43.00518799999968" lon="-1.3195189999999986">
        <ele>921.027</ele>
        <time>2022-08-24T12:44:34Z</time>
      </trkpt>
      <trkpt lat="43.00515299999968" lon="-1.3195419999999987">
        <ele>921.097</ele>
        <time>2022-08-24T12:44:35Z</time>
      </trkpt>
      <trkpt lat="43.00512499999968" lon="-1.3195449999999986">
        <ele>921.077</ele>
        <time>2022-08-24T12:44:36Z</time>
      </trkpt>
      <trkpt lat="43.00507799999968" lon="-1.3195719999999986">
        <ele>920.823</ele>
        <time>2022-08-24T12:44:38Z</time>
      </trkpt>
      <trkpt lat="43.00502099999968" lon="-1.3196289999999986">
        <ele>920.875</ele>
        <time>2022-08-24T12:44:40Z</time>
      </trkpt>
      <trkpt lat="43.00497599999968" lon="-1.3196649999999985">
        <ele>920.612</ele>
        <time>2022-08-24T12:44:41Z</time>
      </trkpt>
      <trkpt lat="43.00494699999968" lon="-1.3196859999999986">
        <ele>920.645</ele>
        <time>2022-08-24T12:44:42Z</time>
      </trkpt>
      <trkpt lat="43.00485799999968" lon="-1.3197549999999987">
        <ele>920.489</ele>
        <time>2022-08-24T12:44:45Z</time>
      </trkpt>
      <trkpt lat="43.00477799999968" lon="-1.3198149999999986">
        <ele>920.468</ele>
        <time>2022-08-24T12:44:47Z</time>
      </trkpt>
      <trkpt lat="43.00471899999968" lon="-1.3198629999999987">
        <ele>920.483</ele>
        <time>2022-08-24T12:44:49Z</time>
      </trkpt>
      <trkpt lat="43.00468799999968" lon="-1.3198849999999986">
        <ele>920.425</ele>
        <time>2022-08-24T12:44:50Z</time>
      </trkpt>
      <trkpt lat="43.00462099999968" lon="-1.3199429999999985">
        <ele>920.217</ele>
        <time>2022-08-24T12:44:52Z</time>
      </trkpt>
      <trkpt lat="43.00459699999968" lon="-1.3199629999999984">
        <ele>920.209</ele>
        <time>2022-08-24T12:44:53Z</time>
      </trkpt>
      <trkpt lat="43.004465999999674" lon="-1.3200179999999984">
        <ele>919.639</ele>
        <time>2022-08-24T12:44:56Z</time>
      </trkpt>
      <trkpt lat="43.00442699999967" lon="-1.3200169999999984">
        <ele>919.429</ele>
        <time>2022-08-24T12:44:57Z</time>
      </trkpt>
      <trkpt lat="43.00440299999967" lon="-1.3200189999999985">
        <ele>919.289</ele>
        <time>2022-08-24T12:44:58Z</time>
      </trkpt>
      <trkpt lat="43.00436799999967" lon="-1.3200399999999985">
        <ele>919.245</ele>
        <time>2022-08-24T12:44:59Z</time>
      </trkpt>
      <trkpt lat="43.00434099999967" lon="-1.3200619999999985">
        <ele>919.257</ele>
        <time>2022-08-24T12:45:00Z</time>
      </trkpt>
      <trkpt lat="43.00425199999967" lon="-1.3201209999999985">
        <ele>919.014</ele>
        <time>2022-08-24T12:45:03Z</time>
      </trkpt>
      <trkpt lat="43.00409699999967" lon="-1.3201999999999985">
        <ele>919.297</ele>
        <time>2022-08-24T12:45:06Z</time>
      </trkpt>
      <trkpt lat="43.00400999999967" lon="-1.3202399999999985">
        <ele>919.081</ele>
        <time>2022-08-24T12:45:08Z</time>
      </trkpt>
      <trkpt lat="43.00394199999967" lon="-1.3202719999999986">
        <ele>919.020</ele>
        <time>2022-08-24T12:45:10Z</time>
      </trkpt>
      <trkpt lat="43.00385999999967" lon="-1.3203379999999985">
        <ele>918.632</ele>
        <time>2022-08-24T12:45:12Z</time>
      </trkpt>
      <trkpt lat="43.00378499999967" lon="-1.3203939999999985">
        <ele>918.092</ele>
        <time>2022-08-24T12:45:14Z</time>
      </trkpt>
      <trkpt lat="43.003703999999665" lon="-1.3204509999999985">
        <ele>918.011</ele>
        <time>2022-08-24T12:45:16Z</time>
      </trkpt>
      <trkpt lat="43.00360699999967" lon="-1.3205099999999985">
        <ele>917.409</ele>
        <time>2022-08-24T12:45:18Z</time>
      </trkpt>
      <trkpt lat="43.003551999999665" lon="-1.3205329999999986">
        <ele>917.244</ele>
        <time>2022-08-24T12:45:19Z</time>
      </trkpt>
      <trkpt lat="43.00351399999966" lon="-1.3205509999999987">
        <ele>917.064</ele>
        <time>2022-08-24T12:45:20Z</time>
      </trkpt>
      <trkpt lat="43.003467999999664" lon="-1.3205759999999986">
        <ele>917.074</ele>
        <time>2022-08-24T12:45:21Z</time>
      </trkpt>
      <trkpt lat="43.00335899999966" lon="-1.3206299999999986">
        <ele>917.060</ele>
        <time>2022-08-24T12:45:23Z</time>
      </trkpt>
      <trkpt lat="43.00333099999966" lon="-1.3206159999999987">
        <ele>917.042</ele>
        <time>2022-08-24T12:45:24Z</time>
      </trkpt>
      <trkpt lat="43.00329799999966" lon="-1.3206289999999987">
        <ele>917.059</ele>
        <time>2022-08-24T12:45:25Z</time>
      </trkpt>
      <trkpt lat="43.00324599999966" lon="-1.3206799999999987">
        <ele>917.062</ele>
        <time>2022-08-24T12:45:26Z</time>
      </trkpt>
      <trkpt lat="43.003205999999665" lon="-1.3207469999999988">
        <ele>917.066</ele>
        <time>2022-08-24T12:45:27Z</time>
      </trkpt>
      <trkpt lat="43.00315399999967" lon="-1.3208239999999989">
        <ele>916.845</ele>
        <time>2022-08-24T12:45:29Z</time>
      </trkpt>
      <trkpt lat="43.00312899999967" lon="-1.320865999999999">
        <ele>916.628</ele>
        <time>2022-08-24T12:45:30Z</time>
      </trkpt>
      <trkpt lat="43.00309799999967" lon="-1.320935999999999">
        <ele>916.489</ele>
        <time>2022-08-24T12:45:31Z</time>
      </trkpt>
      <trkpt lat="43.003067999999665" lon="-1.320988999999999">
        <ele>916.217</ele>
        <time>2022-08-24T12:45:32Z</time>
      </trkpt>
      <trkpt lat="43.003033999999666" lon="-1.321019999999999">
        <ele>916.009</ele>
        <time>2022-08-24T12:45:33Z</time>
      </trkpt>
      <trkpt lat="43.002994999999665" lon="-1.321045999999999">
        <ele>916.063</ele>
        <time>2022-08-24T12:45:34Z</time>
      </trkpt>
      <trkpt lat="43.002893999999664" lon="-1.321166999999999">
        <ele>915.663</ele>
        <time>2022-08-24T12:45:37Z</time>
      </trkpt>
      <trkpt lat="43.00287199999966" lon="-1.321212999999999">
        <ele>915.623</ele>
        <time>2022-08-24T12:45:38Z</time>
      </trkpt>
      <trkpt lat="43.00283499999966" lon="-1.321258999999999">
        <ele>915.289</ele>
        <time>2022-08-24T12:45:39Z</time>
      </trkpt>
      <trkpt lat="43.00277399999966" lon="-1.321315999999999">
        <ele>915.021</ele>
        <time>2022-08-24T12:45:40Z</time>
      </trkpt>
      <trkpt lat="43.00267599999966" lon="-1.321451999999999">
        <ele>914.868</ele>
        <time>2022-08-24T12:45:42Z</time>
      </trkpt>
      <trkpt lat="43.00264799999966" lon="-1.321505999999999">
        <ele>914.631</ele>
        <time>2022-08-24T12:45:43Z</time>
      </trkpt>
      <trkpt lat="43.00262299999966" lon="-1.3215689999999989">
        <ele>914.485</ele>
        <time>2022-08-24T12:45:44Z</time>
      </trkpt>
      <trkpt lat="43.00254599999966" lon="-1.321719999999999">
        <ele>913.884</ele>
        <time>2022-08-24T12:45:46Z</time>
      </trkpt>
      <trkpt lat="43.00252399999966" lon="-1.321761999999999">
        <ele>913.249</ele>
        <time>2022-08-24T12:45:47Z</time>
      </trkpt>
      <trkpt lat="43.00250499999966" lon="-1.321824999999999">
        <ele>913.002</ele>
        <time>2022-08-24T12:45:48Z</time>
      </trkpt>
      <trkpt lat="43.00246199999966" lon="-1.3218929999999989">
        <ele>912.822</ele>
        <time>2022-08-24T12:45:49Z</time>
      </trkpt>
      <trkpt lat="43.00242799999966" lon="-1.3219559999999988">
        <ele>912.609</ele>
        <time>2022-08-24T12:45:50Z</time>
      </trkpt>
      <trkpt lat="43.00238799999966" lon="-1.3220029999999987">
        <ele>912.045</ele>
        <time>2022-08-24T12:45:51Z</time>
      </trkpt>
      <trkpt lat="43.00236399999966" lon="-1.3220379999999987">
        <ele>911.825</ele>
        <time>2022-08-24T12:45:52Z</time>
      </trkpt>
      <trkpt lat="43.00232699999966" lon="-1.3220949999999987">
        <ele>911.635</ele>
        <time>2022-08-24T12:45:53Z</time>
      </trkpt>
      <trkpt lat="43.00229099999966" lon="-1.3221479999999988">
        <ele>911.491</ele>
        <time>2022-08-24T12:45:54Z</time>
      </trkpt>
      <trkpt lat="43.00227099999966" lon="-1.3221719999999988">
        <ele>911.263</ele>
        <time>2022-08-24T12:45:55Z</time>
      </trkpt>
      <trkpt lat="43.00224099999966" lon="-1.3222049999999987">
        <ele>910.610</ele>
        <time>2022-08-24T12:45:56Z</time>
      </trkpt>
      <trkpt lat="43.00221299999966" lon="-1.3222589999999987">
        <ele>910.443</ele>
        <time>2022-08-24T12:45:57Z</time>
      </trkpt>
      <trkpt lat="43.002187999999656" lon="-1.3223219999999987">
        <ele>910.087</ele>
        <time>2022-08-24T12:45:58Z</time>
      </trkpt>
      <trkpt lat="43.00215099999966" lon="-1.3223939999999987">
        <ele>909.876</ele>
        <time>2022-08-24T12:45:59Z</time>
      </trkpt>
      <trkpt lat="43.00212999999966" lon="-1.3224529999999988">
        <ele>909.638</ele>
        <time>2022-08-24T12:46:00Z</time>
      </trkpt>
      <trkpt lat="43.00209399999966" lon="-1.3225259999999988">
        <ele>909.670</ele>
        <time>2022-08-24T12:46:01Z</time>
      </trkpt>
      <trkpt lat="43.00206899999966" lon="-1.3225849999999988">
        <ele>909.617</ele>
        <time>2022-08-24T12:46:02Z</time>
      </trkpt>
      <trkpt lat="43.00206799999966" lon="-1.3226169999999988">
        <ele>909.609</ele>
        <time>2022-08-24T12:46:03Z</time>
      </trkpt>
      <trkpt lat="43.00205999999966" lon="-1.3226539999999989">
        <ele>909.694</ele>
        <time>2022-08-24T12:46:04Z</time>
      </trkpt>
      <trkpt lat="43.00205699999966" lon="-1.322717999999999">
        <ele>909.654</ele>
        <time>2022-08-24T12:46:05Z</time>
      </trkpt>
      <trkpt lat="43.00206799999966" lon="-1.322750999999999">
        <ele>909.464</ele>
        <time>2022-08-24T12:46:06Z</time>
      </trkpt>
      <trkpt lat="43.00207099999966" lon="-1.3228079999999989">
        <ele>909.430</ele>
        <time>2022-08-24T12:46:07Z</time>
      </trkpt>
      <trkpt lat="43.002046999999656" lon="-1.3228759999999988">
        <ele>909.632</ele>
        <time>2022-08-24T12:46:08Z</time>
      </trkpt>
      <trkpt lat="43.002032999999656" lon="-1.3229589999999989">
        <ele>909.679</ele>
        <time>2022-08-24T12:46:09Z</time>
      </trkpt>
      <trkpt lat="43.00200099999966" lon="-1.323027999999999">
        <ele>909.672</ele>
        <time>2022-08-24T12:46:10Z</time>
      </trkpt>
      <trkpt lat="43.00198199999966" lon="-1.323081999999999">
        <ele>909.646</ele>
        <time>2022-08-24T12:46:11Z</time>
      </trkpt>
      <trkpt lat="43.00195399999966" lon="-1.323132999999999">
        <ele>909.675</ele>
        <time>2022-08-24T12:46:12Z</time>
      </trkpt>
      <trkpt lat="43.001945999999656" lon="-1.323229999999999">
        <ele>909.463</ele>
        <time>2022-08-24T12:46:14Z</time>
      </trkpt>
      <trkpt lat="43.001937999999654" lon="-1.323272999999999">
        <ele>909.244</ele>
        <time>2022-08-24T12:46:15Z</time>
      </trkpt>
      <trkpt lat="43.001914999999656" lon="-1.323370999999999">
        <ele>909.218</ele>
        <time>2022-08-24T12:46:18Z</time>
      </trkpt>
      <trkpt lat="43.00187199999966" lon="-1.323403999999999">
        <ele>909.209</ele>
        <time>2022-08-24T12:46:19Z</time>
      </trkpt>
      <trkpt lat="43.00181999999966" lon="-1.323445999999999">
        <ele>909.217</ele>
        <time>2022-08-24T12:46:20Z</time>
      </trkpt>
      <trkpt lat="43.00180499999966" lon="-1.323492999999999">
        <ele>909.217</ele>
        <time>2022-08-24T12:46:21Z</time>
      </trkpt>
      <trkpt lat="43.00177999999966" lon="-1.323557999999999">
        <ele>909.047</ele>
        <time>2022-08-24T12:46:23Z</time>
      </trkpt>
      <trkpt lat="43.00176699999966" lon="-1.3235859999999988">
        <ele>909.083</ele>
        <time>2022-08-24T12:46:24Z</time>
      </trkpt>
      <trkpt lat="43.00173399999966" lon="-1.323684999999999">
        <ele>909.045</ele>
        <time>2022-08-24T12:46:26Z</time>
      </trkpt>
      <trkpt lat="43.00167099999966" lon="-1.323834999999999">
        <ele>909.022</ele>
        <time>2022-08-24T12:46:28Z</time>
      </trkpt>
      <trkpt lat="43.00166599999966" lon="-1.323898999999999">
        <ele>909.085</ele>
        <time>2022-08-24T12:46:29Z</time>
      </trkpt>
      <trkpt lat="43.00165799999966" lon="-1.324003999999999">
        <ele>908.889</ele>
        <time>2022-08-24T12:46:31Z</time>
      </trkpt>
      <trkpt lat="43.00165099999966" lon="-1.3240809999999992">
        <ele>908.898</ele>
        <time>2022-08-24T12:46:32Z</time>
      </trkpt>
      <trkpt lat="43.001632999999664" lon="-1.3241679999999991">
        <ele>908.852</ele>
        <time>2022-08-24T12:46:33Z</time>
      </trkpt>
      <trkpt lat="43.00161499999967" lon="-1.324273999999999">
        <ele>908.253</ele>
        <time>2022-08-24T12:46:35Z</time>
      </trkpt>
      <trkpt lat="43.00153299999967" lon="-1.3244509999999992">
        <ele>908.008</ele>
        <time>2022-08-24T12:46:38Z</time>
      </trkpt>
      <trkpt lat="43.001508999999665" lon="-1.3245179999999992">
        <ele>907.809</ele>
        <time>2022-08-24T12:46:39Z</time>
      </trkpt>
      <trkpt lat="43.001446999999665" lon="-1.3246039999999992">
        <ele>907.886</ele>
        <time>2022-08-24T12:46:40Z</time>
      </trkpt>
      <trkpt lat="43.001401999999665" lon="-1.3246729999999993">
        <ele>907.686</ele>
        <time>2022-08-24T12:46:41Z</time>
      </trkpt>
      <trkpt lat="43.001367999999665" lon="-1.3247309999999992">
        <ele>907.426</ele>
        <time>2022-08-24T12:46:42Z</time>
      </trkpt>
      <trkpt lat="43.001345999999664" lon="-1.3247829999999992">
        <ele>907.442</ele>
        <time>2022-08-24T12:46:43Z</time>
      </trkpt>
      <trkpt lat="43.001322999999665" lon="-1.3248289999999991">
        <ele>907.094</ele>
        <time>2022-08-24T12:46:44Z</time>
      </trkpt>
      <trkpt lat="43.00127099999967" lon="-1.3249849999999992">
        <ele>906.651</ele>
        <time>2022-08-24T12:46:47Z</time>
      </trkpt>
      <trkpt lat="43.001240999999666" lon="-1.3250389999999992">
        <ele>906.654</ele>
        <time>2022-08-24T12:46:48Z</time>
      </trkpt>
      <trkpt lat="43.00118599999966" lon="-1.3250919999999993">
        <ele>906.818</ele>
        <time>2022-08-24T12:46:49Z</time>
      </trkpt>
      <trkpt lat="43.00113099999966" lon="-1.3251369999999993">
        <ele>906.837</ele>
        <time>2022-08-24T12:46:50Z</time>
      </trkpt>
      <trkpt lat="43.00110599999966" lon="-1.3251669999999993">
        <ele>906.645</ele>
        <time>2022-08-24T12:46:51Z</time>
      </trkpt>
      <trkpt lat="43.00109099999966" lon="-1.3251989999999993">
        <ele>906.647</ele>
        <time>2022-08-24T12:46:52Z</time>
      </trkpt>
      <trkpt lat="43.001069999999665" lon="-1.3252239999999993">
        <ele>906.411</ele>
        <time>2022-08-24T12:46:53Z</time>
      </trkpt>
      <trkpt lat="43.001046999999666" lon="-1.3252459999999993">
        <ele>906.409</ele>
        <time>2022-08-24T12:46:54Z</time>
      </trkpt>
      <trkpt lat="43.000970999999666" lon="-1.3253289999999993">
        <ele>906.435</ele>
        <time>2022-08-24T12:46:56Z</time>
      </trkpt>
      <trkpt lat="43.00088499999966" lon="-1.3254359999999994">
        <ele>906.275</ele>
        <time>2022-08-24T12:46:58Z</time>
      </trkpt>
      <trkpt lat="43.00078199999966" lon="-1.3256069999999993">
        <ele>906.055</ele>
        <time>2022-08-24T12:47:01Z</time>
      </trkpt>
      <trkpt lat="43.00075099999966" lon="-1.3256539999999992">
        <ele>906.021</ele>
        <time>2022-08-24T12:47:02Z</time>
      </trkpt>
      <trkpt lat="43.00067799999966" lon="-1.3257649999999992">
        <ele>905.683</ele>
        <time>2022-08-24T12:47:04Z</time>
      </trkpt>
      <trkpt lat="43.00064599999966" lon="-1.3258049999999992">
        <ele>905.210</ele>
        <time>2022-08-24T12:47:05Z</time>
      </trkpt>
      <trkpt lat="43.000619999999664" lon="-1.3258509999999992">
        <ele>905.253</ele>
        <time>2022-08-24T12:47:06Z</time>
      </trkpt>
      <trkpt lat="43.00061199999966" lon="-1.3258949999999992">
        <ele>905.277</ele>
        <time>2022-08-24T12:47:07Z</time>
      </trkpt>
      <trkpt lat="43.000596999999665" lon="-1.3259439999999991">
        <ele>905.056</ele>
        <time>2022-08-24T12:47:08Z</time>
      </trkpt>
      <trkpt lat="43.00058399999966" lon="-1.3259949999999991">
        <ele>905.033</ele>
        <time>2022-08-24T12:47:09Z</time>
      </trkpt>
      <trkpt lat="43.00056399999966" lon="-1.3260459999999992">
        <ele>905.023</ele>
        <time>2022-08-24T12:47:10Z</time>
      </trkpt>
      <trkpt lat="43.00046399999966" lon="-1.3261749999999992">
        <ele>905.215</ele>
        <time>2022-08-24T12:47:13Z</time>
      </trkpt>
      <trkpt lat="43.00044799999966" lon="-1.3262109999999991">
        <ele>905.009</ele>
        <time>2022-08-24T12:47:14Z</time>
      </trkpt>
      <trkpt lat="43.000437999999654" lon="-1.3262449999999992">
        <ele>904.844</ele>
        <time>2022-08-24T12:47:15Z</time>
      </trkpt>
      <trkpt lat="43.00041099999965" lon="-1.3262999999999991">
        <ele>904.644</ele>
        <time>2022-08-24T12:47:16Z</time>
      </trkpt>
      <trkpt lat="43.000389999999655" lon="-1.3263589999999992">
        <ele>904.644</ele>
        <time>2022-08-24T12:47:17Z</time>
      </trkpt>
      <trkpt lat="43.00039399999965" lon="-1.326386999999999">
        <ele>904.480</ele>
        <time>2022-08-24T12:47:18Z</time>
      </trkpt>
      <trkpt lat="43.00037499999965" lon="-1.3264319999999992">
        <ele>904.422</ele>
        <time>2022-08-24T12:47:19Z</time>
      </trkpt>
      <trkpt lat="43.00025699999965" lon="-1.3266399999999992">
        <ele>903.869</ele>
        <time>2022-08-24T12:47:22Z</time>
      </trkpt>
      <trkpt lat="43.00018499999965" lon="-1.3267559999999992">
        <ele>903.682</ele>
        <time>2022-08-24T12:47:24Z</time>
      </trkpt>
      <trkpt lat="43.00016699999965" lon="-1.3268179999999992">
        <ele>903.646</ele>
        <time>2022-08-24T12:47:25Z</time>
      </trkpt>
      <trkpt lat="43.000142999999646" lon="-1.326891999999999">
        <ele>903.465</ele>
        <time>2022-08-24T12:47:26Z</time>
      </trkpt>
      <trkpt lat="43.00009899999964" lon="-1.327078999999999">
        <ele>903.246</ele>
        <time>2022-08-24T12:47:29Z</time>
      </trkpt>
      <trkpt lat="43.000078999999644" lon="-1.327156999999999">
        <ele>903.088</ele>
        <time>2022-08-24T12:47:30Z</time>
      </trkpt>
      <trkpt lat="43.00003799999964" lon="-1.3272449999999991">
        <ele>902.816</ele>
        <time>2022-08-24T12:47:31Z</time>
      </trkpt>
      <trkpt lat="42.99999299999964" lon="-1.327307999999999">
        <ele>902.409</ele>
        <time>2022-08-24T12:47:32Z</time>
      </trkpt>
      <trkpt lat="42.99994299999964" lon="-1.327364999999999">
        <ele>902.495</ele>
        <time>2022-08-24T12:47:33Z</time>
      </trkpt>
      <trkpt lat="42.99990899999964" lon="-1.327391999999999">
        <ele>902.295</ele>
        <time>2022-08-24T12:47:34Z</time>
      </trkpt>
      <trkpt lat="42.99988399999964" lon="-1.327405999999999">
        <ele>902.285</ele>
        <time>2022-08-24T12:47:35Z</time>
      </trkpt>
      <trkpt lat="42.99984799999964" lon="-1.327438999999999">
        <ele>902.031</ele>
        <time>2022-08-24T12:47:36Z</time>
      </trkpt>
      <trkpt lat="42.99981599999964" lon="-1.3274589999999988">
        <ele>902.043</ele>
        <time>2022-08-24T12:47:37Z</time>
      </trkpt>
      <trkpt lat="42.99978099999964" lon="-1.327468999999999">
        <ele>902.070</ele>
        <time>2022-08-24T12:47:38Z</time>
      </trkpt>
      <trkpt lat="42.99976499999964" lon="-1.3274779999999988">
        <ele>902.083</ele>
        <time>2022-08-24T12:47:39Z</time>
      </trkpt>
      <trkpt lat="42.99974999999964" lon="-1.327495999999999">
        <ele>902.017</ele>
        <time>2022-08-24T12:47:40Z</time>
      </trkpt>
      <trkpt lat="42.999715999999644" lon="-1.3275159999999988">
        <ele>902.026</ele>
        <time>2022-08-24T12:47:41Z</time>
      </trkpt>
      <trkpt lat="42.99968599999964" lon="-1.327530999999999">
        <ele>902.028</ele>
        <time>2022-08-24T12:47:42Z</time>
      </trkpt>
      <trkpt lat="42.99964499999964" lon="-1.327519999999999">
        <ele>902.289</ele>
        <time>2022-08-24T12:47:43Z</time>
      </trkpt>
      <trkpt lat="42.99961299999964" lon="-1.3274969999999988">
        <ele>902.217</ele>
        <time>2022-08-24T12:47:44Z</time>
      </trkpt>
      <trkpt lat="42.99957599999964" lon="-1.327487999999999">
        <ele>902.409</ele>
        <time>2022-08-24T12:47:45Z</time>
      </trkpt>
      <trkpt lat="42.99953999999964" lon="-1.3274719999999989">
        <ele>902.483</ele>
        <time>2022-08-24T12:47:46Z</time>
      </trkpt>
      <trkpt lat="42.99949299999964" lon="-1.3274699999999988">
        <ele>902.453</ele>
        <time>2022-08-24T12:47:47Z</time>
      </trkpt>
      <trkpt lat="42.999423999999635" lon="-1.3274809999999988">
        <ele>902.413</ele>
        <time>2022-08-24T12:47:48Z</time>
      </trkpt>
      <trkpt lat="42.999378999999635" lon="-1.3274939999999988">
        <ele>902.429</ele>
        <time>2022-08-24T12:47:49Z</time>
      </trkpt>
      <trkpt lat="42.99932499999964" lon="-1.327514999999999">
        <ele>902.451</ele>
        <time>2022-08-24T12:47:50Z</time>
      </trkpt>
      <trkpt lat="42.99928499999964" lon="-1.3275319999999988">
        <ele>902.438</ele>
        <time>2022-08-24T12:47:51Z</time>
      </trkpt>
      <trkpt lat="42.99907299999964" lon="-1.327608999999999">
        <ele>902.251</ele>
        <time>2022-08-24T12:47:56Z</time>
      </trkpt>
      <trkpt lat="42.99895699999964" lon="-1.327629999999999">
        <ele>901.495</ele>
        <time>2022-08-24T12:47:58Z</time>
      </trkpt>
      <trkpt lat="42.99881399999964" lon="-1.327661999999999">
        <ele>901.224</ele>
        <time>2022-08-24T12:48:01Z</time>
      </trkpt>
      <trkpt lat="42.99877399999964" lon="-1.327686999999999">
        <ele>901.289</ele>
        <time>2022-08-24T12:48:02Z</time>
      </trkpt>
      <trkpt lat="42.99873599999964" lon="-1.327712999999999">
        <ele>901.206</ele>
        <time>2022-08-24T12:48:03Z</time>
      </trkpt>
      <trkpt lat="42.99865399999964" lon="-1.327766999999999">
        <ele>901.226</ele>
        <time>2022-08-24T12:48:04Z</time>
      </trkpt>
      <trkpt lat="42.99858099999964" lon="-1.327806999999999">
        <ele>901.209</ele>
        <time>2022-08-24T12:48:05Z</time>
      </trkpt>
      <trkpt lat="42.99852799999964" lon="-1.327834999999999">
        <ele>901.019</ele>
        <time>2022-08-24T12:48:06Z</time>
      </trkpt>
      <trkpt lat="42.998489999999634" lon="-1.327847999999999">
        <ele>901.049</ele>
        <time>2022-08-24T12:48:07Z</time>
      </trkpt>
      <trkpt lat="42.998444999999634" lon="-1.3278549999999991">
        <ele>900.869</ele>
        <time>2022-08-24T12:48:08Z</time>
      </trkpt>
      <trkpt lat="42.998390999999636" lon="-1.3278779999999992">
        <ele>900.665</ele>
        <time>2022-08-24T12:48:09Z</time>
      </trkpt>
      <trkpt lat="42.998359999999636" lon="-1.3278999999999992">
        <ele>900.417</ele>
        <time>2022-08-24T12:48:10Z</time>
      </trkpt>
      <trkpt lat="42.99832799999964" lon="-1.3279239999999992">
        <ele>900.464</ele>
        <time>2022-08-24T12:48:11Z</time>
      </trkpt>
      <trkpt lat="42.99828499999964" lon="-1.3279539999999992">
        <ele>900.467</ele>
        <time>2022-08-24T12:48:12Z</time>
      </trkpt>
      <trkpt lat="42.998232999999644" lon="-1.3279799999999993">
        <ele>900.411</ele>
        <time>2022-08-24T12:48:13Z</time>
      </trkpt>
      <trkpt lat="42.99816299999964" lon="-1.3279989999999993">
        <ele>900.260</ele>
        <time>2022-08-24T12:48:14Z</time>
      </trkpt>
      <trkpt lat="42.99811299999964" lon="-1.3280089999999993">
        <ele>900.247</ele>
        <time>2022-08-24T12:48:15Z</time>
      </trkpt>
      <trkpt lat="42.99805499999964" lon="-1.3280429999999994">
        <ele>900.029</ele>
        <time>2022-08-24T12:48:16Z</time>
      </trkpt>
      <trkpt lat="42.99801599999964" lon="-1.3280789999999993">
        <ele>900.021</ele>
        <time>2022-08-24T12:48:17Z</time>
      </trkpt>
      <trkpt lat="42.99799099999964" lon="-1.3281009999999993">
        <ele>899.609</ele>
        <time>2022-08-24T12:48:18Z</time>
      </trkpt>
      <trkpt lat="42.997917999999636" lon="-1.3281429999999994">
        <ele>899.425</ele>
        <time>2022-08-24T12:48:20Z</time>
      </trkpt>
      <trkpt lat="42.99786099999964" lon="-1.3281849999999995">
        <ele>899.495</ele>
        <time>2022-08-24T12:48:21Z</time>
      </trkpt>
      <trkpt lat="42.99781299999964" lon="-1.3282239999999994">
        <ele>899.065</ele>
        <time>2022-08-24T12:48:22Z</time>
      </trkpt>
      <trkpt lat="42.99775699999964" lon="-1.3282739999999995">
        <ele>899.041</ele>
        <time>2022-08-24T12:48:23Z</time>
      </trkpt>
      <trkpt lat="42.997706999999636" lon="-1.3283119999999995">
        <ele>899.033</ele>
        <time>2022-08-24T12:48:24Z</time>
      </trkpt>
      <trkpt lat="42.99766699999964" lon="-1.3283289999999994">
        <ele>898.820</ele>
        <time>2022-08-24T12:48:25Z</time>
      </trkpt>
      <trkpt lat="42.99762999999964" lon="-1.3283559999999994">
        <ele>898.823</ele>
        <time>2022-08-24T12:48:26Z</time>
      </trkpt>
      <trkpt lat="42.997602999999636" lon="-1.3283879999999995">
        <ele>898.637</ele>
        <time>2022-08-24T12:48:27Z</time>
      </trkpt>
      <trkpt lat="42.997588999999635" lon="-1.3284329999999995">
        <ele>898.666</ele>
        <time>2022-08-24T12:48:28Z</time>
      </trkpt>
      <trkpt lat="42.997571999999636" lon="-1.3284719999999994">
        <ele>898.422</ele>
        <time>2022-08-24T12:48:29Z</time>
      </trkpt>
      <trkpt lat="42.997537999999636" lon="-1.3285059999999995">
        <ele>898.462</ele>
        <time>2022-08-24T12:48:30Z</time>
      </trkpt>
      <trkpt lat="42.997495999999636" lon="-1.3285239999999996">
        <ele>898.208</ele>
        <time>2022-08-24T12:48:31Z</time>
      </trkpt>
      <trkpt lat="42.99746899999963" lon="-1.3285429999999996">
        <ele>898.009</ele>
        <time>2022-08-24T12:48:32Z</time>
      </trkpt>
      <trkpt lat="42.99742799999963" lon="-1.3285739999999995">
        <ele>898.083</ele>
        <time>2022-08-24T12:48:33Z</time>
      </trkpt>
      <trkpt lat="42.99737399999963" lon="-1.3286329999999995">
        <ele>897.883</ele>
        <time>2022-08-24T12:48:34Z</time>
      </trkpt>
      <trkpt lat="42.99724999999963" lon="-1.3287659999999994">
        <ele>897.673</ele>
        <time>2022-08-24T12:48:37Z</time>
      </trkpt>
      <trkpt lat="42.99722199999963" lon="-1.3288099999999994">
        <ele>897.689</ele>
        <time>2022-08-24T12:48:38Z</time>
      </trkpt>
      <trkpt lat="42.997175999999634" lon="-1.3288989999999994">
        <ele>897.631</ele>
        <time>2022-08-24T12:48:40Z</time>
      </trkpt>
      <trkpt lat="42.997149999999635" lon="-1.3289459999999993">
        <ele>897.458</ele>
        <time>2022-08-24T12:48:41Z</time>
      </trkpt>
      <trkpt lat="42.99713199999964" lon="-1.3289959999999994">
        <ele>897.231</ele>
        <time>2022-08-24T12:48:42Z</time>
      </trkpt>
      <trkpt lat="42.99711799999964" lon="-1.3290569999999995">
        <ele>897.085</ele>
        <time>2022-08-24T12:48:43Z</time>
      </trkpt>
      <trkpt lat="42.997098999999636" lon="-1.3291209999999996">
        <ele>896.644</ele>
        <time>2022-08-24T12:48:44Z</time>
      </trkpt>
      <trkpt lat="42.99706499999964" lon="-1.3291969999999995">
        <ele>896.467</ele>
        <time>2022-08-24T12:48:45Z</time>
      </trkpt>
      <trkpt lat="42.99703899999964" lon="-1.3292469999999996">
        <ele>896.081</ele>
        <time>2022-08-24T12:48:46Z</time>
      </trkpt>
      <trkpt lat="42.99697399999964" lon="-1.3294599999999996">
        <ele>895.419</ele>
        <time>2022-08-24T12:48:49Z</time>
      </trkpt>
      <trkpt lat="42.99692499999964" lon="-1.3296029999999996">
        <ele>895.209</ele>
        <time>2022-08-24T12:48:51Z</time>
      </trkpt>
      <trkpt lat="42.99689799999964" lon="-1.3296729999999997">
        <ele>895.237</ele>
        <time>2022-08-24T12:48:52Z</time>
      </trkpt>
      <trkpt lat="42.99686399999964" lon="-1.3297419999999998">
        <ele>895.047</ele>
        <time>2022-08-24T12:48:53Z</time>
      </trkpt>
      <trkpt lat="42.99684599999964" lon="-1.3297789999999998">
        <ele>894.657</ele>
        <time>2022-08-24T12:48:54Z</time>
      </trkpt>
      <trkpt lat="42.99683199999964" lon="-1.3298199999999998">
        <ele>894.273</ele>
        <time>2022-08-24T12:48:55Z</time>
      </trkpt>
      <trkpt lat="42.99680799999964" lon="-1.3298879999999997">
        <ele>893.835</ele>
        <time>2022-08-24T12:48:56Z</time>
      </trkpt>
      <trkpt lat="42.99679199999964" lon="-1.3299549999999998">
        <ele>893.872</ele>
        <time>2022-08-24T12:48:57Z</time>
      </trkpt>
      <trkpt lat="42.99675799999964" lon="-1.3300509999999999">
        <ele>893.285</ele>
        <time>2022-08-24T12:48:58Z</time>
      </trkpt>
      <trkpt lat="42.996702999999634" lon="-1.3301599999999998">
        <ele>893.079</ele>
        <time>2022-08-24T12:48:59Z</time>
      </trkpt>
      <trkpt lat="42.996634999999635" lon="-1.3302399999999999">
        <ele>892.668</ele>
        <time>2022-08-24T12:49:00Z</time>
      </trkpt>
      <trkpt lat="42.996583999999636" lon="-1.3302979999999998">
        <ele>892.615</ele>
        <time>2022-08-24T12:49:01Z</time>
      </trkpt>
      <trkpt lat="42.996539999999634" lon="-1.3303409999999998">
        <ele>892.665</ele>
        <time>2022-08-24T12:49:02Z</time>
      </trkpt>
      <trkpt lat="42.996488999999634" lon="-1.3303689999999997">
        <ele>892.211</ele>
        <time>2022-08-24T12:49:03Z</time>
      </trkpt>
      <trkpt lat="42.99643999999964" lon="-1.3303819999999997">
        <ele>892.009</ele>
        <time>2022-08-24T12:49:04Z</time>
      </trkpt>
      <trkpt lat="42.996392999999635" lon="-1.3303839999999998">
        <ele>891.852</ele>
        <time>2022-08-24T12:49:05Z</time>
      </trkpt>
      <trkpt lat="42.996344999999636" lon="-1.33038">
        <ele>891.692</ele>
        <time>2022-08-24T12:49:06Z</time>
      </trkpt>
      <trkpt lat="42.996296999999636" lon="-1.330369">
        <ele>891.052</ele>
        <time>2022-08-24T12:49:07Z</time>
      </trkpt>
      <trkpt lat="42.99624199999963" lon="-1.33036">
        <ele>890.678</ele>
        <time>2022-08-24T12:49:08Z</time>
      </trkpt>
      <trkpt lat="42.996085999999636" lon="-1.330336">
        <ele>889.890</ele>
        <time>2022-08-24T12:49:11Z</time>
      </trkpt>
      <trkpt lat="42.996029999999635" lon="-1.330325">
        <ele>889.677</ele>
        <time>2022-08-24T12:49:12Z</time>
      </trkpt>
      <trkpt lat="42.995694999999635" lon="-1.330222">
        <ele>888.850</ele>
        <time>2022-08-24T12:49:18Z</time>
      </trkpt>
      <trkpt lat="42.99564099999964" lon="-1.330205">
        <ele>888.694</ele>
        <time>2022-08-24T12:49:19Z</time>
      </trkpt>
      <trkpt lat="42.99558699999964" lon="-1.330189">
        <ele>888.673</ele>
        <time>2022-08-24T12:49:20Z</time>
      </trkpt>
      <trkpt lat="42.99553399999964" lon="-1.330173">
        <ele>888.617</ele>
        <time>2022-08-24T12:49:21Z</time>
      </trkpt>
      <trkpt lat="42.99548199999964" lon="-1.330158">
        <ele>888.687</ele>
        <time>2022-08-24T12:49:22Z</time>
      </trkpt>
      <trkpt lat="42.99543099999964" lon="-1.3301429999999999">
        <ele>888.615</ele>
        <time>2022-08-24T12:49:23Z</time>
      </trkpt>
      <trkpt lat="42.99538099999964" lon="-1.3301279999999998">
        <ele>888.409</ele>
        <time>2022-08-24T12:49:24Z</time>
      </trkpt>
      <trkpt lat="42.99533199999964" lon="-1.3301159999999999">
        <ele>888.482</ele>
        <time>2022-08-24T12:49:25Z</time>
      </trkpt>
      <trkpt lat="42.99527399999964" lon="-1.3301029999999998">
        <ele>888.492</ele>
        <time>2022-08-24T12:49:26Z</time>
      </trkpt>
      <trkpt lat="42.99523499999964" lon="-1.3300929999999997">
        <ele>888.452</ele>
        <time>2022-08-24T12:49:27Z</time>
      </trkpt>
      <trkpt lat="42.99518499999964" lon="-1.3300799999999997">
        <ele>888.468</ele>
        <time>2022-08-24T12:49:28Z</time>
      </trkpt>
      <trkpt lat="42.99512799999964" lon="-1.3300689999999997">
        <ele>888.610</ele>
        <time>2022-08-24T12:49:29Z</time>
      </trkpt>
      <trkpt lat="42.99509399999964" lon="-1.3300619999999996">
        <ele>888.667</ele>
        <time>2022-08-24T12:49:30Z</time>
      </trkpt>
      <trkpt lat="42.995052999999636" lon="-1.3300559999999997">
        <ele>888.630</ele>
        <time>2022-08-24T12:49:31Z</time>
      </trkpt>
      <trkpt lat="42.99501299999964" lon="-1.3300419999999997">
        <ele>888.844</ele>
        <time>2022-08-24T12:49:32Z</time>
      </trkpt>
      <trkpt lat="42.994974999999634" lon="-1.3300299999999998">
        <ele>888.823</ele>
        <time>2022-08-24T12:49:33Z</time>
      </trkpt>
      <trkpt lat="42.994932999999634" lon="-1.3300159999999999">
        <ele>889.266</ele>
        <time>2022-08-24T12:49:34Z</time>
      </trkpt>
      <trkpt lat="42.99490499999963" lon="-1.3300079999999999">
        <ele>889.429</ele>
        <time>2022-08-24T12:49:35Z</time>
      </trkpt>
      <trkpt lat="42.994794999999634" lon="-1.329988">
        <ele>889.621</ele>
        <time>2022-08-24T12:49:38Z</time>
      </trkpt>
      <trkpt lat="42.994636999999635" lon="-1.329933">
        <ele>889.809</ele>
        <time>2022-08-24T12:49:42Z</time>
      </trkpt>
      <trkpt lat="42.994515999999635" lon="-1.329903">
        <ele>889.837</ele>
        <time>2022-08-24T12:49:45Z</time>
      </trkpt>
      <trkpt lat="42.99448599999963" lon="-1.329897">
        <ele>889.827</ele>
        <time>2022-08-24T12:49:46Z</time>
      </trkpt>
      <trkpt lat="42.99444799999963" lon="-1.329889">
        <ele>889.847</ele>
        <time>2022-08-24T12:49:47Z</time>
      </trkpt>
      <trkpt lat="42.99441199999963" lon="-1.329882">
        <ele>889.843</ele>
        <time>2022-08-24T12:49:48Z</time>
      </trkpt>
      <trkpt lat="42.994375999999626" lon="-1.329874">
        <ele>889.825</ele>
        <time>2022-08-24T12:49:49Z</time>
      </trkpt>
      <trkpt lat="42.994336999999625" lon="-1.329865">
        <ele>889.832</ele>
        <time>2022-08-24T12:49:50Z</time>
      </trkpt>
      <trkpt lat="42.99431599999963" lon="-1.329855">
        <ele>889.645</ele>
        <time>2022-08-24T12:49:51Z</time>
      </trkpt>
      <trkpt lat="42.994291999999625" lon="-1.329844">
        <ele>889.649</ele>
        <time>2022-08-24T12:49:52Z</time>
      </trkpt>
      <trkpt lat="42.99426799999962" lon="-1.329829">
        <ele>889.698</ele>
        <time>2022-08-24T12:49:53Z</time>
      </trkpt>
      <trkpt lat="42.99424499999962" lon="-1.3298109999999999">
        <ele>889.653</ele>
        <time>2022-08-24T12:49:54Z</time>
      </trkpt>
      <trkpt lat="42.99422299999962" lon="-1.3297959999999998">
        <ele>889.604</ele>
        <time>2022-08-24T12:49:55Z</time>
      </trkpt>
      <trkpt lat="42.99420299999962" lon="-1.3297829999999997">
        <ele>889.614</ele>
        <time>2022-08-24T12:49:56Z</time>
      </trkpt>
      <trkpt lat="42.99418299999962" lon="-1.3297659999999998">
        <ele>889.609</ele>
        <time>2022-08-24T12:49:57Z</time>
      </trkpt>
      <trkpt lat="42.99417299999962" lon="-1.3297509999999997">
        <ele>889.456</ele>
        <time>2022-08-24T12:49:58Z</time>
      </trkpt>
      <trkpt lat="42.99415899999962" lon="-1.3297289999999997">
        <ele>889.426</ele>
        <time>2022-08-24T12:49:59Z</time>
      </trkpt>
      <trkpt lat="42.99405499999962" lon="-1.3295749999999997">
        <ele>889.296</ele>
        <time>2022-08-24T12:50:05Z</time>
      </trkpt>
      <trkpt lat="42.99402999999962" lon="-1.3295609999999998">
        <ele>889.242</ele>
        <time>2022-08-24T12:50:06Z</time>
      </trkpt>
      <trkpt lat="42.99400099999962" lon="-1.3295609999999998">
        <ele>889.234</ele>
        <time>2022-08-24T12:50:07Z</time>
      </trkpt>
      <trkpt lat="42.99397099999962" lon="-1.3295769999999998">
        <ele>889.271</ele>
        <time>2022-08-24T12:50:08Z</time>
      </trkpt>
      <trkpt lat="42.99390799999962" lon="-1.3296279999999998">
        <ele>889.254</ele>
        <time>2022-08-24T12:50:10Z</time>
      </trkpt>
      <trkpt lat="42.99387399999962" lon="-1.3296629999999998">
        <ele>889.068</ele>
        <time>2022-08-24T12:50:11Z</time>
      </trkpt>
      <trkpt lat="42.99383699999962" lon="-1.3296979999999998">
        <ele>889.067</ele>
        <time>2022-08-24T12:50:12Z</time>
      </trkpt>
      <trkpt lat="42.99375599999962" lon="-1.3297739999999998">
        <ele>888.843</ele>
        <time>2022-08-24T12:50:14Z</time>
      </trkpt>
      <trkpt lat="42.99371499999962" lon="-1.3298119999999998">
        <ele>888.864</ele>
        <time>2022-08-24T12:50:15Z</time>
      </trkpt>
      <trkpt lat="42.99338899999962" lon="-1.3301279999999998">
        <ele>888.010</ele>
        <time>2022-08-24T12:50:23Z</time>
      </trkpt>
      <trkpt lat="42.99324499999962" lon="-1.3302679999999998">
        <ele>887.809</ele>
        <time>2022-08-24T12:50:26Z</time>
      </trkpt>
      <trkpt lat="42.99301299999962" lon="-1.3304949999999998">
        <ele>887.025</ele>
        <time>2022-08-24T12:50:31Z</time>
      </trkpt>
      <trkpt lat="42.99289899999962" lon="-1.3306089999999997">
        <ele>886.655</ele>
        <time>2022-08-24T12:50:33Z</time>
      </trkpt>
      <trkpt lat="42.99263899999962" lon="-1.3308639999999996">
        <ele>885.625</ele>
        <time>2022-08-24T12:50:38Z</time>
      </trkpt>
      <trkpt lat="42.99247499999962" lon="-1.3310469999999996">
        <ele>885.041</ele>
        <time>2022-08-24T12:50:41Z</time>
      </trkpt>
      <trkpt lat="42.992428999999625" lon="-1.3311029999999997">
        <ele>884.823</ele>
        <time>2022-08-24T12:50:42Z</time>
      </trkpt>
      <trkpt lat="42.992394999999625" lon="-1.3311469999999996">
        <ele>884.660</ele>
        <time>2022-08-24T12:50:43Z</time>
      </trkpt>
      <trkpt lat="42.99237399999963" lon="-1.3311849999999996">
        <ele>884.443</ele>
        <time>2022-08-24T12:50:44Z</time>
      </trkpt>
      <trkpt lat="42.99235699999963" lon="-1.3312189999999997">
        <ele>883.847</ele>
        <time>2022-08-24T12:50:45Z</time>
      </trkpt>
      <trkpt lat="42.99233899999963" lon="-1.3312509999999997">
        <ele>883.696</ele>
        <time>2022-08-24T12:50:46Z</time>
      </trkpt>
      <trkpt lat="42.99232799999963" lon="-1.3312679999999997">
        <ele>883.424</ele>
        <time>2022-08-24T12:50:47Z</time>
      </trkpt>
      <trkpt lat="42.99231299999963" lon="-1.3312929999999996">
        <ele>883.204</ele>
        <time>2022-08-24T12:50:48Z</time>
      </trkpt>
      <trkpt lat="42.99229999999963" lon="-1.3313159999999997">
        <ele>883.014</ele>
        <time>2022-08-24T12:50:49Z</time>
      </trkpt>
      <trkpt lat="42.99228699999963" lon="-1.3313369999999998">
        <ele>882.809</ele>
        <time>2022-08-24T12:50:50Z</time>
      </trkpt>
      <trkpt lat="42.99226999999963" lon="-1.3313479999999998">
        <ele>882.633</ele>
        <time>2022-08-24T12:50:51Z</time>
      </trkpt>
      <trkpt lat="42.992256999999626" lon="-1.3313379999999997">
        <ele>882.443</ele>
        <time>2022-08-24T12:50:52Z</time>
      </trkpt>
      <trkpt lat="42.99225299999963" lon="-1.3313159999999997">
        <ele>882.253</ele>
        <time>2022-08-24T12:50:53Z</time>
      </trkpt>
      <trkpt lat="42.99225799999963" lon="-1.3312919999999997">
        <ele>882.259</ele>
        <time>2022-08-24T12:50:54Z</time>
      </trkpt>
      <trkpt lat="42.99226499999963" lon="-1.3312689999999996">
        <ele>882.081</ele>
        <time>2022-08-24T12:50:55Z</time>
      </trkpt>
      <trkpt lat="42.992270999999626" lon="-1.3312369999999996">
        <ele>882.018</ele>
        <time>2022-08-24T12:50:56Z</time>
      </trkpt>
      <trkpt lat="42.99225299999963" lon="-1.3310229999999996">
        <ele>882.061</ele>
        <time>2022-08-24T12:51:01Z</time>
      </trkpt>
      <trkpt lat="42.99223599999963" lon="-1.3309839999999997">
        <ele>882.035</ele>
        <time>2022-08-24T12:51:02Z</time>
      </trkpt>
      <trkpt lat="42.99221399999963" lon="-1.3309399999999998">
        <ele>882.044</ele>
        <time>2022-08-24T12:51:03Z</time>
      </trkpt>
      <trkpt lat="42.992197999999625" lon="-1.3309129999999998">
        <ele>882.063</ele>
        <time>2022-08-24T12:51:04Z</time>
      </trkpt>
      <trkpt lat="42.992175999999624" lon="-1.330882">
        <ele>882.044</ele>
        <time>2022-08-24T12:51:05Z</time>
      </trkpt>
      <trkpt lat="42.992152999999625" lon="-1.330854">
        <ele>882.018</ele>
        <time>2022-08-24T12:51:06Z</time>
      </trkpt>
      <trkpt lat="42.99213199999963" lon="-1.330826">
        <ele>882.209</ele>
        <time>2022-08-24T12:51:07Z</time>
      </trkpt>
      <trkpt lat="42.99207799999963" lon="-1.330778">
        <ele>882.457</ele>
        <time>2022-08-24T12:51:09Z</time>
      </trkpt>
      <trkpt lat="42.99202399999963" lon="-1.330764">
        <ele>882.637</ele>
        <time>2022-08-24T12:51:11Z</time>
      </trkpt>
      <trkpt lat="42.99198699999963" lon="-1.330777">
        <ele>882.837</ele>
        <time>2022-08-24T12:51:12Z</time>
      </trkpt>
      <trkpt lat="42.99189699999963" lon="-1.3308550000000001">
        <ele>883.223</ele>
        <time>2022-08-24T12:51:15Z</time>
      </trkpt>
      <trkpt lat="42.991864999999635" lon="-1.330885">
        <ele>883.235</ele>
        <time>2022-08-24T12:51:16Z</time>
      </trkpt>
      <trkpt lat="42.99175599999963" lon="-1.3309980000000001">
        <ele>883.432</ele>
        <time>2022-08-24T12:51:19Z</time>
      </trkpt>
      <trkpt lat="42.99152799999963" lon="-1.3312700000000002">
        <ele>883.075</ele>
        <time>2022-08-24T12:51:26Z</time>
      </trkpt>
      <trkpt lat="42.991487999999634" lon="-1.3313210000000002">
        <ele>883.259</ele>
        <time>2022-08-24T12:51:27Z</time>
      </trkpt>
      <trkpt lat="42.99129699999963" lon="-1.3315630000000003">
        <ele>883.238</ele>
        <time>2022-08-24T12:51:33Z</time>
      </trkpt>
      <trkpt lat="42.991262999999634" lon="-1.3316060000000003">
        <ele>883.257</ele>
        <time>2022-08-24T12:51:34Z</time>
      </trkpt>
      <trkpt lat="42.99122099999963" lon="-1.3316520000000003">
        <ele>883.200</ele>
        <time>2022-08-24T12:51:35Z</time>
      </trkpt>
      <trkpt lat="42.99096899999963" lon="-1.3320210000000003">
        <ele>883.220</ele>
        <time>2022-08-24T12:51:43Z</time>
      </trkpt>
      <trkpt lat="42.99093499999963" lon="-1.3320610000000004">
        <ele>883.209</ele>
        <time>2022-08-24T12:51:44Z</time>
      </trkpt>
      <trkpt lat="42.99090299999963" lon="-1.3321070000000004">
        <ele>883.046</ele>
        <time>2022-08-24T12:51:45Z</time>
      </trkpt>
      <trkpt lat="42.99084499999963" lon="-1.3322010000000004">
        <ele>883.056</ele>
        <time>2022-08-24T12:51:47Z</time>
      </trkpt>
      <trkpt lat="42.99078499999963" lon="-1.3322920000000005">
        <ele>882.836</ele>
        <time>2022-08-24T12:51:49Z</time>
      </trkpt>
      <trkpt lat="42.99054599999963" lon="-1.3326250000000004">
        <ele>882.242</ele>
        <time>2022-08-24T12:51:56Z</time>
      </trkpt>
      <trkpt lat="42.99051599999963" lon="-1.3326670000000005">
        <ele>882.064</ele>
        <time>2022-08-24T12:51:57Z</time>
      </trkpt>
      <trkpt lat="42.99048899999963" lon="-1.3327100000000005">
        <ele>881.831</ele>
        <time>2022-08-24T12:51:58Z</time>
      </trkpt>
      <trkpt lat="42.990461999999624" lon="-1.3327510000000005">
        <ele>881.854</ele>
        <time>2022-08-24T12:51:59Z</time>
      </trkpt>
      <trkpt lat="42.99043499999962" lon="-1.3327950000000004">
        <ele>881.618</ele>
        <time>2022-08-24T12:52:00Z</time>
      </trkpt>
      <trkpt lat="42.99033999999962" lon="-1.3329190000000004">
        <ele>881.457</ele>
        <time>2022-08-24T12:52:03Z</time>
      </trkpt>
      <trkpt lat="42.99011699999962" lon="-1.3332630000000003">
        <ele>881.256</ele>
        <time>2022-08-24T12:52:10Z</time>
      </trkpt>
      <trkpt lat="42.99008399999962" lon="-1.3333120000000003">
        <ele>881.059</ele>
        <time>2022-08-24T12:52:11Z</time>
      </trkpt>
      <trkpt lat="42.98994999999962" lon="-1.3334990000000002">
        <ele>880.814</ele>
        <time>2022-08-24T12:52:15Z</time>
      </trkpt>
      <trkpt lat="42.98991799999962" lon="-1.3335460000000001">
        <ele>880.809</ele>
        <time>2022-08-24T12:52:16Z</time>
      </trkpt>
      <trkpt lat="42.98984699999962" lon="-1.333633">
        <ele>880.636</ele>
        <time>2022-08-24T12:52:18Z</time>
      </trkpt>
      <trkpt lat="42.98963699999962" lon="-1.333915">
        <ele>880.436</ele>
        <time>2022-08-24T12:52:24Z</time>
      </trkpt>
      <trkpt lat="42.98960299999962" lon="-1.333965">
        <ele>880.446</ele>
        <time>2022-08-24T12:52:25Z</time>
      </trkpt>
      <trkpt lat="42.989496999999616" lon="-1.334117">
        <ele>880.262</ele>
        <time>2022-08-24T12:52:28Z</time>
      </trkpt>
      <trkpt lat="42.98946499999962" lon="-1.334167">
        <ele>880.074</ele>
        <time>2022-08-24T12:52:29Z</time>
      </trkpt>
      <trkpt lat="42.98943399999962" lon="-1.3342180000000001">
        <ele>880.041</ele>
        <time>2022-08-24T12:52:30Z</time>
      </trkpt>
      <trkpt lat="42.98939899999962" lon="-1.334267">
        <ele>879.684</ele>
        <time>2022-08-24T12:52:31Z</time>
      </trkpt>
      <trkpt lat="42.98936599999962" lon="-1.3343120000000002">
        <ele>879.678</ele>
        <time>2022-08-24T12:52:32Z</time>
      </trkpt>
      <trkpt lat="42.98933199999962" lon="-1.3343580000000002">
        <ele>879.477</ele>
        <time>2022-08-24T12:52:33Z</time>
      </trkpt>
      <trkpt lat="42.98929799999962" lon="-1.3344040000000001">
        <ele>879.445</ele>
        <time>2022-08-24T12:52:34Z</time>
      </trkpt>
      <trkpt lat="42.98926699999962" lon="-1.3344470000000002">
        <ele>879.247</ele>
        <time>2022-08-24T12:52:35Z</time>
      </trkpt>
      <trkpt lat="42.989234999999624" lon="-1.3344850000000001">
        <ele>879.211</ele>
        <time>2022-08-24T12:52:36Z</time>
      </trkpt>
      <trkpt lat="42.98908199999963" lon="-1.3347220000000002">
        <ele>879.209</ele>
        <time>2022-08-24T12:52:41Z</time>
      </trkpt>
      <trkpt lat="42.98905099999963" lon="-1.3347740000000001">
        <ele>879.225</ele>
        <time>2022-08-24T12:52:42Z</time>
      </trkpt>
      <trkpt lat="42.98903099999963" lon="-1.334821">
        <ele>879.025</ele>
        <time>2022-08-24T12:52:43Z</time>
      </trkpt>
      <trkpt lat="42.98901899999963" lon="-1.334862">
        <ele>879.225</ele>
        <time>2022-08-24T12:52:44Z</time>
      </trkpt>
      <trkpt lat="42.98901499999963" lon="-1.3349">
        <ele>879.041</ele>
        <time>2022-08-24T12:52:45Z</time>
      </trkpt>
      <trkpt lat="42.98901199999963" lon="-1.3349309999999999">
        <ele>879.013</ele>
        <time>2022-08-24T12:52:46Z</time>
      </trkpt>
      <trkpt lat="42.988999999999635" lon="-1.334952">
        <ele>878.830</ele>
        <time>2022-08-24T12:52:47Z</time>
      </trkpt>
      <trkpt lat="42.98898099999963" lon="-1.334968">
        <ele>878.843</ele>
        <time>2022-08-24T12:52:48Z</time>
      </trkpt>
      <trkpt lat="42.98895899999963" lon="-1.334981">
        <ele>878.887</ele>
        <time>2022-08-24T12:52:49Z</time>
      </trkpt>
      <trkpt lat="42.98882699999963" lon="-1.3351279999999999">
        <ele>878.666</ele>
        <time>2022-08-24T12:52:55Z</time>
      </trkpt>
      <trkpt lat="42.98881399999963" lon="-1.335168">
        <ele>878.633</ele>
        <time>2022-08-24T12:52:56Z</time>
      </trkpt>
      <trkpt lat="42.98880699999963" lon="-1.335213">
        <ele>878.623</ele>
        <time>2022-08-24T12:52:57Z</time>
      </trkpt>
      <trkpt lat="42.98880499999963" lon="-1.335261">
        <ele>878.615</ele>
        <time>2022-08-24T12:52:58Z</time>
      </trkpt>
      <trkpt lat="42.98880599999963" lon="-1.33531">
        <ele>878.609</ele>
        <time>2022-08-24T12:52:59Z</time>
      </trkpt>
      <trkpt lat="42.98880799999963" lon="-1.335357">
        <ele>878.634</ele>
        <time>2022-08-24T12:53:00Z</time>
      </trkpt>
      <trkpt lat="42.98880999999963" lon="-1.3354009999999998">
        <ele>878.434</ele>
        <time>2022-08-24T12:53:01Z</time>
      </trkpt>
      <trkpt lat="42.98881499999963" lon="-1.335443">
        <ele>878.454</ele>
        <time>2022-08-24T12:53:02Z</time>
      </trkpt>
      <trkpt lat="42.98882699999963" lon="-1.335478">
        <ele>878.440</ele>
        <time>2022-08-24T12:53:03Z</time>
      </trkpt>
      <trkpt lat="42.98884099999963" lon="-1.3355089999999998">
        <ele>878.422</ele>
        <time>2022-08-24T12:53:04Z</time>
      </trkpt>
      <trkpt lat="42.98885299999963" lon="-1.3355369999999998">
        <ele>878.469</ele>
        <time>2022-08-24T12:53:05Z</time>
      </trkpt>
      <trkpt lat="42.98886499999963" lon="-1.3355629999999998">
        <ele>878.412</ele>
        <time>2022-08-24T12:53:06Z</time>
      </trkpt>
      <trkpt lat="42.988882999999625" lon="-1.3355829999999997">
        <ele>878.836</ele>
        <time>2022-08-24T12:53:07Z</time>
      </trkpt>
      <trkpt lat="42.98890399999962" lon="-1.3355969999999997">
        <ele>879.045</ele>
        <time>2022-08-24T12:53:08Z</time>
      </trkpt>
      <trkpt lat="42.98891299999962" lon="-1.3356129999999997">
        <ele>879.454</ele>
        <time>2022-08-24T12:53:09Z</time>
      </trkpt>
      <trkpt lat="42.98891699999962" lon="-1.3356209999999997">
        <ele>879.656</ele>
        <time>2022-08-24T12:53:10Z</time>
      </trkpt>
      <trkpt lat="42.988911999999615" lon="-1.3356149999999998">
        <ele>879.611</ele>
        <time>2022-08-24T12:53:11Z</time>
      </trkpt>
      <trkpt lat="42.98890799999962" lon="-1.3356069999999998">
        <ele>879.609</ele>
        <time>2022-08-24T12:53:12Z</time>
      </trkpt>
      <trkpt lat="42.98889899999962" lon="-1.3355939999999997">
        <ele>879.656</ele>
        <time>2022-08-24T12:53:13Z</time>
      </trkpt>
      <trkpt lat="42.98887399999962" lon="-1.3355689999999998">
        <ele>879.436</ele>
        <time>2022-08-24T12:53:15Z</time>
      </trkpt>
      <trkpt lat="42.98884899999962" lon="-1.335511">
        <ele>879.236</ele>
        <time>2022-08-24T12:53:17Z</time>
      </trkpt>
      <trkpt lat="42.988838999999615" lon="-1.335462">
        <ele>879.082</ele>
        <time>2022-08-24T12:53:18Z</time>
      </trkpt>
      <trkpt lat="42.98883199999962" lon="-1.335402">
        <ele>879.244</ele>
        <time>2022-08-24T12:53:19Z</time>
      </trkpt>
      <trkpt lat="42.988835999999615" lon="-1.335339">
        <ele>879.081</ele>
        <time>2022-08-24T12:53:20Z</time>
      </trkpt>
      <trkpt lat="42.988841999999615" lon="-1.335264">
        <ele>879.094</ele>
        <time>2022-08-24T12:53:21Z</time>
      </trkpt>
      <trkpt lat="42.988849999999616" lon="-1.335205">
        <ele>879.078</ele>
        <time>2022-08-24T12:53:22Z</time>
      </trkpt>
      <trkpt lat="42.98885499999962" lon="-1.335154">
        <ele>879.067</ele>
        <time>2022-08-24T12:53:23Z</time>
      </trkpt>
      <trkpt lat="42.98886499999962" lon="-1.335105">
        <ele>878.861</ele>
        <time>2022-08-24T12:53:24Z</time>
      </trkpt>
      <trkpt lat="42.98887799999962" lon="-1.335073">
        <ele>878.821</ele>
        <time>2022-08-24T12:53:25Z</time>
      </trkpt>
      <trkpt lat="42.988890999999626" lon="-1.335038">
        <ele>878.813</ele>
        <time>2022-08-24T12:53:26Z</time>
      </trkpt>
      <trkpt lat="42.98890599999962" lon="-1.335">
        <ele>878.809</ele>
        <time>2022-08-24T12:53:27Z</time>
      </trkpt>
      <trkpt lat="42.988919999999624" lon="-1.334968">
        <ele>878.817</ele>
        <time>2022-08-24T12:53:28Z</time>
      </trkpt>
      <trkpt lat="42.98893499999962" lon="-1.33494">
        <ele>878.687</ele>
        <time>2022-08-24T12:53:29Z</time>
      </trkpt>
      <trkpt lat="42.98894999999962" lon="-1.334911">
        <ele>878.657</ele>
        <time>2022-08-24T12:53:30Z</time>
      </trkpt>
      <trkpt lat="42.98895799999962" lon="-1.334886">
        <ele>878.653</ele>
        <time>2022-08-24T12:53:31Z</time>
      </trkpt>
      <trkpt lat="42.98895899999962" lon="-1.334861">
        <ele>878.625</ele>
        <time>2022-08-24T12:53:32Z</time>
      </trkpt>
      <trkpt lat="42.988959999999615" lon="-1.3348330000000002">
        <ele>878.622</ele>
        <time>2022-08-24T12:53:33Z</time>
      </trkpt>
      <trkpt lat="42.98895499999961" lon="-1.3348030000000002">
        <ele>878.635</ele>
        <time>2022-08-24T12:53:34Z</time>
      </trkpt>
      <trkpt lat="42.98894799999962" lon="-1.3347860000000003">
        <ele>878.629</ele>
        <time>2022-08-24T12:53:35Z</time>
      </trkpt>
      <trkpt lat="42.98894099999962" lon="-1.3347710000000002">
        <ele>878.648</ele>
        <time>2022-08-24T12:53:36Z</time>
      </trkpt>
      <trkpt lat="42.98893499999962" lon="-1.3347590000000003">
        <ele>878.657</ele>
        <time>2022-08-24T12:53:37Z</time>
      </trkpt>
      <trkpt lat="42.98893299999962" lon="-1.3347520000000002">
        <ele>878.400</ele>
        <time>2022-08-24T12:53:58Z</time>
      </trkpt>
      <trkpt lat="42.98894699999962" lon="-1.334745">
        <ele>878.420</ele>
        <time>2022-08-24T12:53:59Z</time>
      </trkpt>
      <trkpt lat="42.98896299999962" lon="-1.334748">
        <ele>878.409</ele>
        <time>2022-08-24T12:54:00Z</time>
      </trkpt>
      <trkpt lat="42.98901999999962" lon="-1.334848">
        <ele>878.426</ele>
        <time>2022-08-24T12:54:04Z</time>
      </trkpt>
      <trkpt lat="42.98903099999962" lon="-1.33488">
        <ele>878.476</ele>
        <time>2022-08-24T12:54:05Z</time>
      </trkpt>
      <trkpt lat="42.98904399999962" lon="-1.334913">
        <ele>878.476</ele>
        <time>2022-08-24T12:54:06Z</time>
      </trkpt>
      <trkpt lat="42.98915199999962" lon="-1.335137">
        <ele>878.832</ele>
        <time>2022-08-24T12:54:12Z</time>
      </trkpt>
      <trkpt lat="42.98917099999962" lon="-1.335166">
        <ele>878.854</ele>
        <time>2022-08-24T12:54:13Z</time>
      </trkpt>
      <trkpt lat="42.989186999999625" lon="-1.335201">
        <ele>878.881</ele>
        <time>2022-08-24T12:54:14Z</time>
      </trkpt>
      <trkpt lat="42.989200999999625" lon="-1.335237">
        <ele>879.024</ele>
        <time>2022-08-24T12:54:15Z</time>
      </trkpt>
      <trkpt lat="42.989217999999624" lon="-1.33527">
        <ele>879.068</ele>
        <time>2022-08-24T12:54:16Z</time>
      </trkpt>
      <trkpt lat="42.989237999999624" lon="-1.335302">
        <ele>879.027</ele>
        <time>2022-08-24T12:54:17Z</time>
      </trkpt>
      <trkpt lat="42.989253999999626" lon="-1.3353329999999999">
        <ele>879.243</ele>
        <time>2022-08-24T12:54:18Z</time>
      </trkpt>
      <trkpt lat="42.989267999999626" lon="-1.335365">
        <ele>879.464</ele>
        <time>2022-08-24T12:54:19Z</time>
      </trkpt>
      <trkpt lat="42.989279999999624" lon="-1.335397">
        <ele>879.610</ele>
        <time>2022-08-24T12:54:20Z</time>
      </trkpt>
      <trkpt lat="42.98929599999963" lon="-1.33543">
        <ele>879.809</ele>
        <time>2022-08-24T12:54:21Z</time>
      </trkpt>
      <trkpt lat="42.989304999999625" lon="-1.3354609999999998">
        <ele>879.875</ele>
        <time>2022-08-24T12:54:22Z</time>
      </trkpt>
      <trkpt lat="42.989312999999626" lon="-1.3355349999999997">
        <ele>880.015</ele>
        <time>2022-08-24T12:54:24Z</time>
      </trkpt>
      <trkpt lat="42.98931199999963" lon="-1.3355729999999997">
        <ele>880.065</ele>
        <time>2022-08-24T12:54:25Z</time>
      </trkpt>
      <trkpt lat="42.98931499999963" lon="-1.3356079999999997">
        <ele>880.011</ele>
        <time>2022-08-24T12:54:26Z</time>
      </trkpt>
      <trkpt lat="42.989332999999625" lon="-1.3356709999999996">
        <ele>880.273</ele>
        <time>2022-08-24T12:54:28Z</time>
      </trkpt>
      <trkpt lat="42.989346999999626" lon="-1.3356989999999995">
        <ele>880.260</ele>
        <time>2022-08-24T12:54:29Z</time>
      </trkpt>
      <trkpt lat="42.98935499999963" lon="-1.3357259999999995">
        <ele>880.463</ele>
        <time>2022-08-24T12:54:30Z</time>
      </trkpt>
      <trkpt lat="42.98935999999963" lon="-1.3357509999999995">
        <ele>880.247</ele>
        <time>2022-08-24T12:54:31Z</time>
      </trkpt>
      <trkpt lat="42.989357999999626" lon="-1.3357749999999995">
        <ele>880.276</ele>
        <time>2022-08-24T12:54:32Z</time>
      </trkpt>
      <trkpt lat="42.98934899999963" lon="-1.3358019999999995">
        <ele>880.257</ele>
        <time>2022-08-24T12:54:33Z</time>
      </trkpt>
      <trkpt lat="42.989293999999624" lon="-1.3358819999999996">
        <ele>880.000</ele>
        <time>2022-08-24T12:54:36Z</time>
      </trkpt>
      <trkpt lat="42.989265999999624" lon="-1.3358989999999995">
        <ele>880.020</ele>
        <time>2022-08-24T12:54:37Z</time>
      </trkpt>
      <trkpt lat="42.98922999999962" lon="-1.3359189999999994">
        <ele>879.809</ele>
        <time>2022-08-24T12:54:38Z</time>
      </trkpt>
      <trkpt lat="42.98912599999962" lon="-1.3359939999999995">
        <ele>879.826</ele>
        <time>2022-08-24T12:54:41Z</time>
      </trkpt>
      <trkpt lat="42.98904699999962" lon="-1.3360629999999996">
        <ele>879.636</ele>
        <time>2022-08-24T12:54:43Z</time>
      </trkpt>
      <trkpt lat="42.98896299999962" lon="-1.3361259999999995">
        <ele>879.466</ele>
        <time>2022-08-24T12:54:45Z</time>
      </trkpt>
      <trkpt lat="42.98884699999962" lon="-1.3362159999999994">
        <ele>879.252</ele>
        <time>2022-08-24T12:54:48Z</time>
      </trkpt>
      <trkpt lat="42.98875999999962" lon="-1.3362729999999994">
        <ele>879.034</ele>
        <time>2022-08-24T12:54:50Z</time>
      </trkpt>
      <trkpt lat="42.988589999999625" lon="-1.3363729999999994">
        <ele>878.651</ele>
        <time>2022-08-24T12:54:54Z</time>
      </trkpt>
      <trkpt lat="42.98854599999962" lon="-1.3363969999999994">
        <ele>878.464</ele>
        <time>2022-08-24T12:54:55Z</time>
      </trkpt>
      <trkpt lat="42.988505999999624" lon="-1.3364169999999993">
        <ele>878.448</ele>
        <time>2022-08-24T12:54:56Z</time>
      </trkpt>
      <trkpt lat="42.98846699999962" lon="-1.3364379999999993">
        <ele>878.267</ele>
        <time>2022-08-24T12:54:57Z</time>
      </trkpt>
      <trkpt lat="42.98843399999962" lon="-1.3364509999999994">
        <ele>878.233</ele>
        <time>2022-08-24T12:54:58Z</time>
      </trkpt>
      <trkpt lat="42.988415999999624" lon="-1.3364709999999993">
        <ele>878.023</ele>
        <time>2022-08-24T12:54:59Z</time>
      </trkpt>
      <trkpt lat="42.98841199999963" lon="-1.3364989999999992">
        <ele>878.015</ele>
        <time>2022-08-24T12:55:00Z</time>
      </trkpt>
      <trkpt lat="42.988417999999626" lon="-1.3365259999999992">
        <ele>877.809</ele>
        <time>2022-08-24T12:55:01Z</time>
      </trkpt>
      <trkpt lat="42.98845099999963" lon="-1.3366619999999991">
        <ele>877.474</ele>
        <time>2022-08-24T12:55:05Z</time>
      </trkpt>
      <trkpt lat="42.98845899999963" lon="-1.3366969999999991">
        <ele>877.464</ele>
        <time>2022-08-24T12:55:06Z</time>
      </trkpt>
      <trkpt lat="42.98846699999963" lon="-1.3367309999999992">
        <ele>877.424</ele>
        <time>2022-08-24T12:55:07Z</time>
      </trkpt>
      <trkpt lat="42.98847499999963" lon="-1.3367629999999993">
        <ele>877.230</ele>
        <time>2022-08-24T12:55:08Z</time>
      </trkpt>
      <trkpt lat="42.98848299999963" lon="-1.3367909999999992">
        <ele>876.852</ele>
        <time>2022-08-24T12:55:09Z</time>
      </trkpt>
      <trkpt lat="42.98848899999963" lon="-1.3368119999999992">
        <ele>876.689</ele>
        <time>2022-08-24T12:55:10Z</time>
      </trkpt>
      <trkpt lat="42.98849499999963" lon="-1.3368429999999991">
        <ele>876.222</ele>
        <time>2022-08-24T12:55:11Z</time>
      </trkpt>
      <trkpt lat="42.98850199999963" lon="-1.3368849999999992">
        <ele>876.256</ele>
        <time>2022-08-24T12:55:12Z</time>
      </trkpt>
      <trkpt lat="42.98853599999963" lon="-1.3370039999999992">
        <ele>875.225</ele>
        <time>2022-08-24T12:55:15Z</time>
      </trkpt>
      <trkpt lat="42.98854599999963" lon="-1.3370469999999992">
        <ele>874.884</ele>
        <time>2022-08-24T12:55:16Z</time>
      </trkpt>
      <trkpt lat="42.98855599999963" lon="-1.3370839999999993">
        <ele>874.607</ele>
        <time>2022-08-24T12:55:17Z</time>
      </trkpt>
      <trkpt lat="42.988557999999635" lon="-1.3371159999999993">
        <ele>873.417</ele>
        <time>2022-08-24T12:55:18Z</time>
      </trkpt>
      <trkpt lat="42.988557999999635" lon="-1.3371449999999994">
        <ele>872.809</ele>
        <time>2022-08-24T12:55:19Z</time>
      </trkpt>
      <trkpt lat="42.988554999999636" lon="-1.3371749999999993">
        <ele>872.039</ele>
        <time>2022-08-24T12:55:20Z</time>
      </trkpt>
      <trkpt lat="42.98854599999964" lon="-1.3372059999999992">
        <ele>871.679</ele>
        <time>2022-08-24T12:55:21Z</time>
      </trkpt>
      <trkpt lat="42.98853699999964" lon="-1.3372339999999991">
        <ele>871.279</ele>
        <time>2022-08-24T12:55:22Z</time>
      </trkpt>
      <trkpt lat="42.988526999999635" lon="-1.3372579999999992">
        <ele>870.465</ele>
        <time>2022-08-24T12:55:23Z</time>
      </trkpt>
      <trkpt lat="42.988512999999635" lon="-1.337304999999999">
        <ele>870.267</ele>
        <time>2022-08-24T12:55:24Z</time>
      </trkpt>
      <trkpt lat="42.988512999999635" lon="-1.337304999999999">
        <ele>869.654</ele>
        <time>2022-08-24T12:55:25Z</time>
      </trkpt>
      <trkpt lat="42.98850599999964" lon="-1.337374999999999">
        <ele>869.227</ele>
        <time>2022-08-24T12:55:27Z</time>
      </trkpt>
      <trkpt lat="42.988509999999636" lon="-1.3375059999999992">
        <ele>868.871</ele>
        <time>2022-08-24T12:55:30Z</time>
      </trkpt>
      <trkpt lat="42.988520999999636" lon="-1.337587999999999">
        <ele>868.660</ele>
        <time>2022-08-24T12:55:31Z</time>
      </trkpt>
      <trkpt lat="42.988520999999636" lon="-1.337587999999999">
        <ele>868.269</ele>
        <time>2022-08-24T12:55:32Z</time>
      </trkpt>
      <trkpt lat="42.98853099999964" lon="-1.337644999999999">
        <ele>867.804</ele>
        <time>2022-08-24T12:55:33Z</time>
      </trkpt>
      <trkpt lat="42.98853499999964" lon="-1.3376679999999992">
        <ele>867.424</ele>
        <time>2022-08-24T12:55:34Z</time>
      </trkpt>
      <trkpt lat="42.988540999999636" lon="-1.3376939999999993">
        <ele>867.209</ele>
        <time>2022-08-24T12:55:35Z</time>
      </trkpt>
      <trkpt lat="42.988549999999634" lon="-1.3377209999999993">
        <ele>867.047</ele>
        <time>2022-08-24T12:55:36Z</time>
      </trkpt>
      <trkpt lat="42.988566999999634" lon="-1.3377739999999994">
        <ele>866.877</ele>
        <time>2022-08-24T12:55:38Z</time>
      </trkpt>
      <trkpt lat="42.988577999999634" lon="-1.3377989999999993">
        <ele>866.687</ele>
        <time>2022-08-24T12:55:39Z</time>
      </trkpt>
      <trkpt lat="42.98859099999964" lon="-1.3378309999999993">
        <ele>866.263</ele>
        <time>2022-08-24T12:55:41Z</time>
      </trkpt>
      <trkpt lat="42.98860999999964" lon="-1.3379199999999993">
        <ele>866.225</ele>
        <time>2022-08-24T12:55:42Z</time>
      </trkpt>
      <trkpt lat="42.98863999999964" lon="-1.3380889999999994">
        <ele>865.872</ele>
        <time>2022-08-24T12:55:45Z</time>
      </trkpt>
      <trkpt lat="42.98867299999964" lon="-1.3384329999999993">
        <ele>865.655</ele>
        <time>2022-08-24T12:55:51Z</time>
      </trkpt>
      <trkpt lat="42.988677999999645" lon="-1.3384969999999994">
        <ele>865.829</ele>
        <time>2022-08-24T12:55:52Z</time>
      </trkpt>
      <trkpt lat="42.98870199999965" lon="-1.3387439999999995">
        <ele>866.028</ele>
        <time>2022-08-24T12:55:56Z</time>
      </trkpt>
      <trkpt lat="42.98871099999965" lon="-1.3387969999999996">
        <ele>866.093</ele>
        <time>2022-08-24T12:55:57Z</time>
      </trkpt>
      <trkpt lat="42.988722999999645" lon="-1.3388509999999996">
        <ele>866.065</ele>
        <time>2022-08-24T12:55:58Z</time>
      </trkpt>
      <trkpt lat="42.988731999999644" lon="-1.3389079999999995">
        <ele>866.221</ele>
        <time>2022-08-24T12:55:59Z</time>
      </trkpt>
      <trkpt lat="42.988744999999646" lon="-1.3389579999999996">
        <ele>866.209</ele>
        <time>2022-08-24T12:56:00Z</time>
      </trkpt>
      <trkpt lat="42.98876299999964" lon="-1.3390019999999996">
        <ele>866.220</ele>
        <time>2022-08-24T12:56:01Z</time>
      </trkpt>
      <trkpt lat="42.988781999999645" lon="-1.3390479999999996">
        <ele>866.280</ele>
        <time>2022-08-24T12:56:02Z</time>
      </trkpt>
      <trkpt lat="42.98879999999964" lon="-1.3390969999999995">
        <ele>866.240</ele>
        <time>2022-08-24T12:56:03Z</time>
      </trkpt>
      <trkpt lat="42.98881799999964" lon="-1.3391459999999995">
        <ele>866.226</ele>
        <time>2022-08-24T12:56:04Z</time>
      </trkpt>
      <trkpt lat="42.98883599999964" lon="-1.3391899999999994">
        <ele>866.238</ele>
        <time>2022-08-24T12:56:05Z</time>
      </trkpt>
      <trkpt lat="42.988850999999634" lon="-1.3392349999999995">
        <ele>866.435</ele>
        <time>2022-08-24T12:56:06Z</time>
      </trkpt>
      <trkpt lat="42.98885799999963" lon="-1.3392769999999996">
        <ele>866.478</ele>
        <time>2022-08-24T12:56:07Z</time>
      </trkpt>
      <trkpt lat="42.98886599999963" lon="-1.3393139999999997">
        <ele>866.612</ele>
        <time>2022-08-24T12:56:08Z</time>
      </trkpt>
      <trkpt lat="42.98887799999963" lon="-1.3393509999999997">
        <ele>866.661</ele>
        <time>2022-08-24T12:56:09Z</time>
      </trkpt>
      <trkpt lat="42.98889499999963" lon="-1.3393929999999998">
        <ele>866.855</ele>
        <time>2022-08-24T12:56:10Z</time>
      </trkpt>
      <trkpt lat="42.98890899999963" lon="-1.3394359999999998">
        <ele>867.007</ele>
        <time>2022-08-24T12:56:11Z</time>
      </trkpt>
      <trkpt lat="42.98891999999963" lon="-1.3394739999999998">
        <ele>867.017</ele>
        <time>2022-08-24T12:56:12Z</time>
      </trkpt>
      <trkpt lat="42.98893099999963" lon="-1.3395119999999998">
        <ele>867.209</ele>
        <time>2022-08-24T12:56:13Z</time>
      </trkpt>
      <trkpt lat="42.98895399999963" lon="-1.3396169999999998">
        <ele>867.476</ele>
        <time>2022-08-24T12:56:15Z</time>
      </trkpt>
      <trkpt lat="42.98905699999963" lon="-1.339924">
        <ele>868.046</ele>
        <time>2022-08-24T12:56:23Z</time>
      </trkpt>
      <trkpt lat="42.989128999999636" lon="-1.3401379999999998">
        <ele>868.246</ele>
        <time>2022-08-24T12:56:27Z</time>
      </trkpt>
      <trkpt lat="42.989142999999636" lon="-1.3401769999999997">
        <ele>868.242</ele>
        <time>2022-08-24T12:56:28Z</time>
      </trkpt>
      <trkpt lat="42.989156999999636" lon="-1.3402209999999997">
        <ele>868.234</ele>
        <time>2022-08-24T12:56:30Z</time>
      </trkpt>
      <trkpt lat="42.989171999999634" lon="-1.3402629999999998">
        <ele>868.261</ele>
        <time>2022-08-24T12:56:31Z</time>
      </trkpt>
      <trkpt lat="42.98918699999963" lon="-1.3403019999999997">
        <ele>868.264</ele>
        <time>2022-08-24T12:56:32Z</time>
      </trkpt>
      <trkpt lat="42.98921799999963" lon="-1.3403779999999996">
        <ele>868.238</ele>
        <time>2022-08-24T12:56:33Z</time>
      </trkpt>
      <trkpt lat="42.98923199999963" lon="-1.3404179999999997">
        <ele>868.247</ele>
        <time>2022-08-24T12:56:34Z</time>
      </trkpt>
      <trkpt lat="42.98926399999963" lon="-1.3404929999999997">
        <ele>868.499</ele>
        <time>2022-08-24T12:56:36Z</time>
      </trkpt>
      <trkpt lat="42.98927799999963" lon="-1.3405279999999997">
        <ele>868.407</ele>
        <time>2022-08-24T12:56:37Z</time>
      </trkpt>
      <trkpt lat="42.98929299999963" lon="-1.3405629999999997">
        <ele>868.427</ele>
        <time>2022-08-24T12:56:38Z</time>
      </trkpt>
      <trkpt lat="42.98930599999963" lon="-1.3406009999999997">
        <ele>868.609</ele>
        <time>2022-08-24T12:56:39Z</time>
      </trkpt>
      <trkpt lat="42.98945699999963" lon="-1.3410549999999997">
        <ele>869.080</ele>
        <time>2022-08-24T12:56:49Z</time>
      </trkpt>
      <trkpt lat="42.98950199999963" lon="-1.3411789999999997">
        <ele>868.850</ele>
        <time>2022-08-24T12:56:51Z</time>
      </trkpt>
      <trkpt lat="42.98952699999963" lon="-1.3413219999999997">
        <ele>868.690</ele>
        <time>2022-08-24T12:56:53Z</time>
      </trkpt>
      <trkpt lat="42.98952399999963" lon="-1.3414039999999996">
        <ele>868.216</ele>
        <time>2022-08-24T12:56:55Z</time>
      </trkpt>
      <trkpt lat="42.98950799999963" lon="-1.3415479999999995">
        <ele>868.088</ele>
        <time>2022-08-24T12:56:56Z</time>
      </trkpt>
      <trkpt lat="42.98949799999963" lon="-1.3416159999999995">
        <ele>867.885</ele>
        <time>2022-08-24T12:56:57Z</time>
      </trkpt>
      <trkpt lat="42.98949799999963" lon="-1.3416159999999995">
        <ele>867.818</ele>
        <time>2022-08-24T12:56:58Z</time>
      </trkpt>
      <trkpt lat="42.98948099999963" lon="-1.3417539999999994">
        <ele>867.622</ele>
        <time>2022-08-24T12:56:59Z</time>
      </trkpt>
      <trkpt lat="42.98947499999963" lon="-1.3418189999999994">
        <ele>867.451</ele>
        <time>2022-08-24T12:57:00Z</time>
      </trkpt>
      <trkpt lat="42.98947499999963" lon="-1.3418189999999994">
        <ele>867.439</ele>
        <time>2022-08-24T12:57:01Z</time>
      </trkpt>
      <trkpt lat="42.989478999999626" lon="-1.3419379999999994">
        <ele>867.401</ele>
        <time>2022-08-24T12:57:02Z</time>
      </trkpt>
      <trkpt lat="42.98948599999962" lon="-1.3419949999999994">
        <ele>867.421</ele>
        <time>2022-08-24T12:57:03Z</time>
      </trkpt>
      <trkpt lat="42.98948599999962" lon="-1.3419949999999994">
        <ele>867.409</ele>
        <time>2022-08-24T12:57:04Z</time>
      </trkpt>
      <trkpt lat="42.989515999999625" lon="-1.3420939999999995">
        <ele>867.434</ele>
        <time>2022-08-24T12:57:05Z</time>
      </trkpt>
      <trkpt lat="42.98953399999962" lon="-1.3421409999999994">
        <ele>867.484</ele>
        <time>2022-08-24T12:57:06Z</time>
      </trkpt>
      <trkpt lat="42.98953399999962" lon="-1.3421409999999994">
        <ele>867.474</ele>
        <time>2022-08-24T12:57:07Z</time>
      </trkpt>
      <trkpt lat="42.98957299999962" lon="-1.3422279999999993">
        <ele>867.650</ele>
        <time>2022-08-24T12:57:08Z</time>
      </trkpt>
      <trkpt lat="42.98959399999962" lon="-1.3422649999999994">
        <ele>867.652</ele>
        <time>2022-08-24T12:57:09Z</time>
      </trkpt>
      <trkpt lat="42.98959399999962" lon="-1.3422649999999994">
        <ele>867.899</ele>
        <time>2022-08-24T12:57:10Z</time>
      </trkpt>
      <trkpt lat="42.98963399999962" lon="-1.3423349999999994">
        <ele>868.242</ele>
        <time>2022-08-24T12:57:11Z</time>
      </trkpt>
      <trkpt lat="42.98965599999962" lon="-1.3423679999999993">
        <ele>868.286</ele>
        <time>2022-08-24T12:57:12Z</time>
      </trkpt>
      <trkpt lat="42.98965599999962" lon="-1.3423679999999993">
        <ele>868.465</ele>
        <time>2022-08-24T12:57:13Z</time>
      </trkpt>
      <trkpt lat="42.98969099999962" lon="-1.3424369999999994">
        <ele>868.669</ele>
        <time>2022-08-24T12:57:14Z</time>
      </trkpt>
      <trkpt lat="42.989702999999615" lon="-1.3424719999999994">
        <ele>869.004</ele>
        <time>2022-08-24T12:57:15Z</time>
      </trkpt>
      <trkpt lat="42.989711999999614" lon="-1.3425079999999994">
        <ele>869.024</ele>
        <time>2022-08-24T12:57:16Z</time>
      </trkpt>
      <trkpt lat="42.98971899999961" lon="-1.3425459999999994">
        <ele>869.409</ele>
        <time>2022-08-24T12:57:17Z</time>
      </trkpt>
      <trkpt lat="42.98972099999961" lon="-1.3425849999999993">
        <ele>869.627</ele>
        <time>2022-08-24T12:57:18Z</time>
      </trkpt>
      <trkpt lat="42.98972399999961" lon="-1.3426229999999992">
        <ele>869.817</ele>
        <time>2022-08-24T12:57:19Z</time>
      </trkpt>
      <trkpt lat="42.989719999999615" lon="-1.3426989999999992">
        <ele>870.247</ele>
        <time>2022-08-24T12:57:21Z</time>
      </trkpt>
      <trkpt lat="42.98970999999961" lon="-1.3427749999999992">
        <ele>870.823</ele>
        <time>2022-08-24T12:57:23Z</time>
      </trkpt>
      <trkpt lat="42.98969599999961" lon="-1.3429039999999992">
        <ele>871.465</ele>
        <time>2022-08-24T12:57:26Z</time>
      </trkpt>
      <trkpt lat="42.989691999999614" lon="-1.3429469999999992">
        <ele>871.652</ele>
        <time>2022-08-24T12:57:27Z</time>
      </trkpt>
      <trkpt lat="42.989685999999615" lon="-1.3429909999999992">
        <ele>871.685</ele>
        <time>2022-08-24T12:57:28Z</time>
      </trkpt>
      <trkpt lat="42.989680999999614" lon="-1.3430329999999993">
        <ele>871.859</ele>
        <time>2022-08-24T12:57:29Z</time>
      </trkpt>
      <trkpt lat="42.98967299999961" lon="-1.3430769999999992">
        <ele>871.818</ele>
        <time>2022-08-24T12:57:30Z</time>
      </trkpt>
      <trkpt lat="42.98966499999961" lon="-1.3431199999999992">
        <ele>872.029</ele>
        <time>2022-08-24T12:57:31Z</time>
      </trkpt>
      <trkpt lat="42.98965499999961" lon="-1.3431649999999993">
        <ele>872.000</ele>
        <time>2022-08-24T12:57:32Z</time>
      </trkpt>
      <trkpt lat="42.98964799999961" lon="-1.3432139999999992">
        <ele>872.020</ele>
        <time>2022-08-24T12:57:33Z</time>
      </trkpt>
      <trkpt lat="42.989640999999615" lon="-1.3432669999999993">
        <ele>872.009</ele>
        <time>2022-08-24T12:57:34Z</time>
      </trkpt>
      <trkpt lat="42.98963699999962" lon="-1.3433189999999993">
        <ele>872.073</ele>
        <time>2022-08-24T12:57:35Z</time>
      </trkpt>
      <trkpt lat="42.98963699999962" lon="-1.3433189999999993">
        <ele>872.033</ele>
        <time>2022-08-24T12:57:36Z</time>
      </trkpt>
      <trkpt lat="42.98963099999962" lon="-1.3434289999999993">
        <ele>872.083</ele>
        <time>2022-08-24T12:57:37Z</time>
      </trkpt>
      <trkpt lat="42.98963099999962" lon="-1.3434849999999994">
        <ele>872.079</ele>
        <time>2022-08-24T12:57:38Z</time>
      </trkpt>
      <trkpt lat="42.989634999999616" lon="-1.3435429999999993">
        <ele>872.081</ele>
        <time>2022-08-24T12:57:39Z</time>
      </trkpt>
      <trkpt lat="42.989640999999615" lon="-1.3436019999999993">
        <ele>872.098</ele>
        <time>2022-08-24T12:57:40Z</time>
      </trkpt>
      <trkpt lat="42.98964599999962" lon="-1.3436629999999994">
        <ele>871.871</ele>
        <time>2022-08-24T12:57:41Z</time>
      </trkpt>
      <trkpt lat="42.98965099999962" lon="-1.3437259999999993">
        <ele>871.835</ele>
        <time>2022-08-24T12:57:42Z</time>
      </trkpt>
      <trkpt lat="42.98965299999962" lon="-1.3437899999999994">
        <ele>871.854</ele>
        <time>2022-08-24T12:57:43Z</time>
      </trkpt>
      <trkpt lat="42.98965799999962" lon="-1.3438589999999995">
        <ele>871.467</ele>
        <time>2022-08-24T12:57:44Z</time>
      </trkpt>
      <trkpt lat="42.989681999999625" lon="-1.3441509999999994">
        <ele>870.881</ele>
        <time>2022-08-24T12:57:48Z</time>
      </trkpt>
      <trkpt lat="42.989690999999624" lon="-1.3442969999999994">
        <ele>870.619</ele>
        <time>2022-08-24T12:57:50Z</time>
      </trkpt>
      <trkpt lat="42.98970899999962" lon="-1.3446939999999994">
        <ele>869.809</ele>
        <time>2022-08-24T12:57:55Z</time>
      </trkpt>
      <trkpt lat="42.98970699999962" lon="-1.3448559999999994">
        <ele>869.467</ele>
        <time>2022-08-24T12:57:57Z</time>
      </trkpt>
      <trkpt lat="42.98969799999962" lon="-1.3449279999999995">
        <ele>869.247</ele>
        <time>2022-08-24T12:57:58Z</time>
      </trkpt>
      <trkpt lat="42.98969799999962" lon="-1.3449279999999995">
        <ele>869.297</ele>
        <time>2022-08-24T12:57:59Z</time>
      </trkpt>
      <trkpt lat="42.98964899999962" lon="-1.3450599999999995">
        <ele>868.843</ele>
        <time>2022-08-24T12:58:00Z</time>
      </trkpt>
      <trkpt lat="42.989614999999624" lon="-1.3451209999999996">
        <ele>868.685</ele>
        <time>2022-08-24T12:58:01Z</time>
      </trkpt>
      <trkpt lat="42.98957999999963" lon="-1.3451799999999996">
        <ele>868.422</ele>
        <time>2022-08-24T12:58:02Z</time>
      </trkpt>
      <trkpt lat="42.989541999999624" lon="-1.3452369999999996">
        <ele>868.275</ele>
        <time>2022-08-24T12:58:03Z</time>
      </trkpt>
      <trkpt lat="42.989504999999625" lon="-1.3452899999999997">
        <ele>868.059</ele>
        <time>2022-08-24T12:58:04Z</time>
      </trkpt>
      <trkpt lat="42.98946699999962" lon="-1.3453409999999997">
        <ele>867.848</ele>
        <time>2022-08-24T12:58:05Z</time>
      </trkpt>
      <trkpt lat="42.98942999999962" lon="-1.3453919999999997">
        <ele>867.886</ele>
        <time>2022-08-24T12:58:06Z</time>
      </trkpt>
      <trkpt lat="42.989394999999625" lon="-1.3454409999999997">
        <ele>868.060</ele>
        <time>2022-08-24T12:58:07Z</time>
      </trkpt>
      <trkpt lat="42.989394999999625" lon="-1.3454409999999997">
        <ele>868.026</ele>
        <time>2022-08-24T12:58:08Z</time>
      </trkpt>
      <trkpt lat="42.989338999999624" lon="-1.3455429999999997">
        <ele>868.009</ele>
        <time>2022-08-24T12:58:09Z</time>
      </trkpt>
      <trkpt lat="42.989318999999625" lon="-1.3455959999999998">
        <ele>868.049</ele>
        <time>2022-08-24T12:58:10Z</time>
      </trkpt>
      <trkpt lat="42.989318999999625" lon="-1.3455959999999998">
        <ele>868.039</ele>
        <time>2022-08-24T12:58:11Z</time>
      </trkpt>
      <trkpt lat="42.989304999999625" lon="-1.3457159999999997">
        <ele>868.469</ele>
        <time>2022-08-24T12:58:12Z</time>
      </trkpt>
      <trkpt lat="42.98930599999962" lon="-1.3457759999999996">
        <ele>868.465</ele>
        <time>2022-08-24T12:58:13Z</time>
      </trkpt>
      <trkpt lat="42.98930599999962" lon="-1.3457759999999996">
        <ele>868.457</ele>
        <time>2022-08-24T12:58:14Z</time>
      </trkpt>
      <trkpt lat="42.989310999999624" lon="-1.3459019999999997">
        <ele>868.454</ele>
        <time>2022-08-24T12:58:15Z</time>
      </trkpt>
      <trkpt lat="42.98933099999962" lon="-1.3465329999999998">
        <ele>867.627</ele>
        <time>2022-08-24T12:58:24Z</time>
      </trkpt>
      <trkpt lat="42.98933999999962" lon="-1.3468329999999997">
        <ele>867.451</ele>
        <time>2022-08-24T12:58:28Z</time>
      </trkpt>
      <trkpt lat="42.989341999999624" lon="-1.3469019999999998">
        <ele>867.220</ele>
        <time>2022-08-24T12:58:29Z</time>
      </trkpt>
      <trkpt lat="42.989343999999626" lon="-1.3469679999999997">
        <ele>867.297</ele>
        <time>2022-08-24T12:58:30Z</time>
      </trkpt>
      <trkpt lat="42.989343999999626" lon="-1.3469679999999997">
        <ele>867.223</ele>
        <time>2022-08-24T12:58:31Z</time>
      </trkpt>
      <trkpt lat="42.98934599999963" lon="-1.3470939999999998">
        <ele>867.225</ele>
        <time>2022-08-24T12:58:32Z</time>
      </trkpt>
      <trkpt lat="42.989346999999626" lon="-1.3471559999999998">
        <ele>867.209</ele>
        <time>2022-08-24T12:58:33Z</time>
      </trkpt>
      <trkpt lat="42.98934799999962" lon="-1.3472139999999997">
        <ele>867.260</ele>
        <time>2022-08-24T12:58:34Z</time>
      </trkpt>
      <trkpt lat="42.98935199999962" lon="-1.3473319999999998">
        <ele>867.450</ele>
        <time>2022-08-24T12:58:36Z</time>
      </trkpt>
      <trkpt lat="42.98935399999962" lon="-1.3474409999999997">
        <ele>867.620</ele>
        <time>2022-08-24T12:58:38Z</time>
      </trkpt>
      <trkpt lat="42.98935499999962" lon="-1.3474979999999996">
        <ele>867.876</ele>
        <time>2022-08-24T12:58:39Z</time>
      </trkpt>
      <trkpt lat="42.98935399999962" lon="-1.3475539999999997">
        <ele>867.868</ele>
        <time>2022-08-24T12:58:40Z</time>
      </trkpt>
      <trkpt lat="42.989352999999625" lon="-1.3476089999999996">
        <ele>868.035</ele>
        <time>2022-08-24T12:58:41Z</time>
      </trkpt>
      <trkpt lat="42.989352999999625" lon="-1.3476089999999996">
        <ele>868.288</ele>
        <time>2022-08-24T12:58:42Z</time>
      </trkpt>
      <trkpt lat="42.98935399999962" lon="-1.3477129999999997">
        <ele>868.462</ele>
        <time>2022-08-24T12:58:43Z</time>
      </trkpt>
      <trkpt lat="42.98936199999962" lon="-1.3477709999999996">
        <ele>868.681</ele>
        <time>2022-08-24T12:58:44Z</time>
      </trkpt>
      <trkpt lat="42.98936199999962" lon="-1.3477709999999996">
        <ele>868.683</ele>
        <time>2022-08-24T12:58:45Z</time>
      </trkpt>
      <trkpt lat="42.989366999999625" lon="-1.3478619999999997">
        <ele>868.825</ele>
        <time>2022-08-24T12:58:46Z</time>
      </trkpt>
      <trkpt lat="42.98936599999963" lon="-1.3479069999999997">
        <ele>868.817</ele>
        <time>2022-08-24T12:58:47Z</time>
      </trkpt>
      <trkpt lat="42.98936599999963" lon="-1.3479069999999997">
        <ele>868.809</ele>
        <time>2022-08-24T12:58:48Z</time>
      </trkpt>
      <trkpt lat="42.989366999999625" lon="-1.3479999999999996">
        <ele>869.039</ele>
        <time>2022-08-24T12:58:49Z</time>
      </trkpt>
      <trkpt lat="42.98937099999962" lon="-1.3480459999999996">
        <ele>869.029</ele>
        <time>2022-08-24T12:58:50Z</time>
      </trkpt>
      <trkpt lat="42.98937499999962" lon="-1.3482089999999995">
        <ele>869.459</ele>
        <time>2022-08-24T12:58:54Z</time>
      </trkpt>
      <trkpt lat="42.98938499999962" lon="-1.3483249999999996">
        <ele>869.425</ele>
        <time>2022-08-24T12:58:55Z</time>
      </trkpt>
      <trkpt lat="42.98941899999962" lon="-1.3485239999999996">
        <ele>869.287</ele>
        <time>2022-08-24T12:58:58Z</time>
      </trkpt>
      <trkpt lat="42.989493999999624" lon="-1.3488949999999995">
        <ele>868.074</ele>
        <time>2022-08-24T12:59:04Z</time>
      </trkpt>
      <trkpt lat="42.98952599999962" lon="-1.3490579999999994">
        <ele>867.887</ele>
        <time>2022-08-24T12:59:05Z</time>
      </trkpt>
      <trkpt lat="42.989538999999624" lon="-1.3491259999999994">
        <ele>868.041</ele>
        <time>2022-08-24T12:59:06Z</time>
      </trkpt>
      <trkpt lat="42.989538999999624" lon="-1.3491259999999994">
        <ele>867.650</ele>
        <time>2022-08-24T12:59:07Z</time>
      </trkpt>
      <trkpt lat="42.98956499999962" lon="-1.3492539999999993">
        <ele>867.873</ele>
        <time>2022-08-24T12:59:08Z</time>
      </trkpt>
      <trkpt lat="42.989577999999625" lon="-1.3493169999999992">
        <ele>867.685</ele>
        <time>2022-08-24T12:59:09Z</time>
      </trkpt>
      <trkpt lat="42.989577999999625" lon="-1.3493169999999992">
        <ele>867.613</ele>
        <time>2022-08-24T12:59:10Z</time>
      </trkpt>
      <trkpt lat="42.989600999999624" lon="-1.3494339999999991">
        <ele>867.609</ele>
        <time>2022-08-24T12:59:11Z</time>
      </trkpt>
      <trkpt lat="42.98961299999962" lon="-1.3494879999999991">
        <ele>867.618</ele>
        <time>2022-08-24T12:59:12Z</time>
      </trkpt>
      <trkpt lat="42.98961299999962" lon="-1.3494879999999991">
        <ele>867.618</ele>
        <time>2022-08-24T12:59:13Z</time>
      </trkpt>
      <trkpt lat="42.98963299999962" lon="-1.349590999999999">
        <ele>867.678</ele>
        <time>2022-08-24T12:59:14Z</time>
      </trkpt>
      <trkpt lat="42.989642999999624" lon="-1.3496409999999992">
        <ele>867.894</ele>
        <time>2022-08-24T12:59:15Z</time>
      </trkpt>
      <trkpt lat="42.98965299999963" lon="-1.3496909999999993">
        <ele>868.036</ele>
        <time>2022-08-24T12:59:16Z</time>
      </trkpt>
      <trkpt lat="42.989675999999626" lon="-1.3497959999999993">
        <ele>868.273</ele>
        <time>2022-08-24T12:59:18Z</time>
      </trkpt>
      <trkpt lat="42.989684999999625" lon="-1.3498519999999994">
        <ele>868.246</ele>
        <time>2022-08-24T12:59:19Z</time>
      </trkpt>
      <trkpt lat="42.989777999999625" lon="-1.3502969999999994">
        <ele>868.680</ele>
        <time>2022-08-24T12:59:26Z</time>
      </trkpt>
      <trkpt lat="42.98981899999963" lon="-1.3505099999999994">
        <ele>868.429</ele>
        <time>2022-08-24T12:59:29Z</time>
      </trkpt>
      <trkpt lat="42.989850999999625" lon="-1.3506429999999994">
        <ele>868.057</ele>
        <time>2022-08-24T12:59:31Z</time>
      </trkpt>
      <trkpt lat="42.98986599999962" lon="-1.3507079999999994">
        <ele>868.000</ele>
        <time>2022-08-24T12:59:32Z</time>
      </trkpt>
      <trkpt lat="42.98987799999962" lon="-1.3507719999999994">
        <ele>868.020</ele>
        <time>2022-08-24T12:59:33Z</time>
      </trkpt>
      <trkpt lat="42.98989099999962" lon="-1.3508329999999995">
        <ele>867.809</ele>
        <time>2022-08-24T12:59:34Z</time>
      </trkpt>
      <trkpt lat="42.989904999999624" lon="-1.3508909999999994">
        <ele>867.866</ele>
        <time>2022-08-24T12:59:35Z</time>
      </trkpt>
      <trkpt lat="42.98991699999962" lon="-1.3509449999999994">
        <ele>867.836</ele>
        <time>2022-08-24T12:59:36Z</time>
      </trkpt>
      <trkpt lat="42.98992799999962" lon="-1.3510039999999994">
        <ele>867.886</ele>
        <time>2022-08-24T12:59:37Z</time>
      </trkpt>
      <trkpt lat="42.98993899999962" lon="-1.3510609999999994">
        <ele>867.882</ele>
        <time>2022-08-24T12:59:38Z</time>
      </trkpt>
      <trkpt lat="42.989948999999626" lon="-1.3511159999999993">
        <ele>867.874</ele>
        <time>2022-08-24T12:59:39Z</time>
      </trkpt>
      <trkpt lat="42.989948999999626" lon="-1.3511159999999993">
        <ele>867.881</ele>
        <time>2022-08-24T12:59:40Z</time>
      </trkpt>
      <trkpt lat="42.99000099999962" lon="-1.3514449999999993">
        <ele>868.224</ele>
        <time>2022-08-24T12:59:45Z</time>
      </trkpt>
      <trkpt lat="42.99000799999962" lon="-1.3515669999999993">
        <ele>868.648</ele>
        <time>2022-08-24T12:59:47Z</time>
      </trkpt>
      <trkpt lat="42.98999599999962" lon="-1.3516859999999993">
        <ele>868.677</ele>
        <time>2022-08-24T12:59:50Z</time>
      </trkpt>
      <trkpt lat="42.98997699999962" lon="-1.3518579999999993">
        <ele>868.891</ele>
        <time>2022-08-24T12:59:52Z</time>
      </trkpt>
      <trkpt lat="42.98997099999962" lon="-1.3519179999999993">
        <ele>868.881</ele>
        <time>2022-08-24T12:59:53Z</time>
      </trkpt>
      <trkpt lat="42.98995099999962" lon="-1.3520879999999993">
        <ele>868.819</ele>
        <time>2022-08-24T12:59:56Z</time>
      </trkpt>
      <trkpt lat="42.98991799999962" lon="-1.3523349999999994">
        <ele>868.809</ele>
        <time>2022-08-24T13:00:00Z</time>
      </trkpt>
      <trkpt lat="42.98987599999962" lon="-1.3527059999999993">
        <ele>868.870</ele>
        <time>2022-08-24T13:00:06Z</time>
      </trkpt>
      <trkpt lat="42.98986199999962" lon="-1.3528159999999994">
        <ele>869.450</ele>
        <time>2022-08-24T13:00:08Z</time>
      </trkpt>
      <trkpt lat="42.98984499999962" lon="-1.3529399999999994">
        <ele>869.420</ele>
        <time>2022-08-24T13:00:10Z</time>
      </trkpt>
      <trkpt lat="42.98982799999962" lon="-1.3530599999999993">
        <ele>869.676</ele>
        <time>2022-08-24T13:00:12Z</time>
      </trkpt>
      <trkpt lat="42.98982299999962" lon="-1.3531149999999992">
        <ele>869.678</ele>
        <time>2022-08-24T13:00:13Z</time>
      </trkpt>
      <trkpt lat="42.98981399999962" lon="-1.3531749999999991">
        <ele>869.815</ele>
        <time>2022-08-24T13:00:14Z</time>
      </trkpt>
      <trkpt lat="42.98980499999962" lon="-1.3532359999999992">
        <ele>869.828</ele>
        <time>2022-08-24T13:00:15Z</time>
      </trkpt>
      <trkpt lat="42.98980099999962" lon="-1.3532949999999992">
        <ele>869.872</ele>
        <time>2022-08-24T13:00:16Z</time>
      </trkpt>
      <trkpt lat="42.989794999999624" lon="-1.3533549999999992">
        <ele>869.881</ele>
        <time>2022-08-24T13:00:18Z</time>
      </trkpt>
      <trkpt lat="42.989757999999625" lon="-1.353671999999999">
        <ele>869.825</ele>
        <time>2022-08-24T13:00:22Z</time>
      </trkpt>
      <trkpt lat="42.989754999999626" lon="-1.3537329999999992">
        <ele>869.826</ele>
        <time>2022-08-24T13:00:23Z</time>
      </trkpt>
      <trkpt lat="42.989749999999624" lon="-1.3537949999999992">
        <ele>869.808</ele>
        <time>2022-08-24T13:00:24Z</time>
      </trkpt>
      <trkpt lat="42.989749999999624" lon="-1.3537949999999992">
        <ele>869.809</ele>
        <time>2022-08-24T13:00:25Z</time>
      </trkpt>
      <trkpt lat="42.989735999999624" lon="-1.3539159999999992">
        <ele>869.823</ele>
        <time>2022-08-24T13:00:26Z</time>
      </trkpt>
      <trkpt lat="42.98971199999962" lon="-1.3541629999999993">
        <ele>870.013</ele>
        <time>2022-08-24T13:00:30Z</time>
      </trkpt>
      <trkpt lat="42.98966799999962" lon="-1.3547249999999993">
        <ele>869.873</ele>
        <time>2022-08-24T13:00:38Z</time>
      </trkpt>
      <trkpt lat="42.98966499999962" lon="-1.3547909999999992">
        <ele>869.689</ele>
        <time>2022-08-24T13:00:39Z</time>
      </trkpt>
      <trkpt lat="42.98966099999962" lon="-1.3548499999999992">
        <ele>869.471</ele>
        <time>2022-08-24T13:00:40Z</time>
      </trkpt>
      <trkpt lat="42.989656999999625" lon="-1.3549059999999993">
        <ele>868.888</ele>
        <time>2022-08-24T13:00:41Z</time>
      </trkpt>
      <trkpt lat="42.98965499999962" lon="-1.3549609999999992">
        <ele>868.631</ele>
        <time>2022-08-24T13:00:42Z</time>
      </trkpt>
      <trkpt lat="42.98965199999962" lon="-1.3550139999999993">
        <ele>868.425</ele>
        <time>2022-08-24T13:00:43Z</time>
      </trkpt>
      <trkpt lat="42.98965599999962" lon="-1.3550579999999992">
        <ele>868.074</ele>
        <time>2022-08-24T13:00:44Z</time>
      </trkpt>
      <trkpt lat="42.98966399999962" lon="-1.3550899999999992">
        <ele>867.678</ele>
        <time>2022-08-24T13:00:45Z</time>
      </trkpt>
      <trkpt lat="42.98966999999962" lon="-1.3551129999999993">
        <ele>867.233</ele>
        <time>2022-08-24T13:00:46Z</time>
      </trkpt>
      <trkpt lat="42.98966999999962" lon="-1.3551129999999993">
        <ele>867.226</ele>
        <time>2022-08-24T13:00:47Z</time>
      </trkpt>
      <trkpt lat="42.98965199999962" lon="-1.3551529999999994">
        <ele>866.209</ele>
        <time>2022-08-24T13:01:00Z</time>
      </trkpt>
      <trkpt lat="42.98965199999962" lon="-1.3551529999999994">
        <ele>866.268</ele>
        <time>2022-08-24T13:01:01Z</time>
      </trkpt>
      <trkpt lat="42.989633999999626" lon="-1.3551939999999993">
        <ele>866.258</ele>
        <time>2022-08-24T13:01:02Z</time>
      </trkpt>
      <trkpt lat="42.98962199999963" lon="-1.3552689999999994">
        <ele>866.048</ele>
        <time>2022-08-24T13:01:06Z</time>
      </trkpt>
      <trkpt lat="42.98961599999963" lon="-1.3552879999999994">
        <ele>866.024</ele>
        <time>2022-08-24T13:01:07Z</time>
      </trkpt>
      <trkpt lat="42.98961099999963" lon="-1.3553029999999995">
        <ele>866.086</ele>
        <time>2022-08-24T13:01:08Z</time>
      </trkpt>
      <trkpt lat="42.989588999999626" lon="-1.3553379999999995">
        <ele>866.043</ele>
        <time>2022-08-24T13:01:10Z</time>
      </trkpt>
      <trkpt lat="42.98957599999962" lon="-1.3553569999999995">
        <ele>866.226</ele>
        <time>2022-08-24T13:01:11Z</time>
      </trkpt>
      <trkpt lat="42.989560999999625" lon="-1.3553789999999994">
        <ele>866.230</ele>
        <time>2022-08-24T13:01:12Z</time>
      </trkpt>
      <trkpt lat="42.98953199999963" lon="-1.3554499999999994">
        <ele>866.059</ele>
        <time>2022-08-24T13:01:16Z</time>
      </trkpt>
      <trkpt lat="42.98953199999963" lon="-1.3554499999999994">
        <ele>866.046</ele>
        <time>2022-08-24T13:01:17Z</time>
      </trkpt>
      <trkpt lat="42.98952099999963" lon="-1.3554589999999993">
        <ele>866.088</ele>
        <time>2022-08-24T13:01:52Z</time>
      </trkpt>
      <trkpt lat="42.98952099999963" lon="-1.3554589999999993">
        <ele>866.016</ele>
        <time>2022-08-24T13:01:53Z</time>
      </trkpt>
      <trkpt lat="42.98952099999963" lon="-1.3554589999999993">
        <ele>866.009</ele>
        <time>2022-08-24T13:01:54Z</time>
      </trkpt>
      <trkpt lat="42.98951799999963" lon="-1.3554599999999992">
        <ele>865.895</ele>
        <time>2022-08-24T13:01:55Z</time>
      </trkpt>
      <trkpt lat="42.98950399999963" lon="-1.3554669999999993">
        <ele>865.875</ele>
        <time>2022-08-24T13:01:56Z</time>
      </trkpt>
      <trkpt lat="42.989445999999624" lon="-1.3555079999999993">
        <ele>865.875</ele>
        <time>2022-08-24T13:02:00Z</time>
      </trkpt>
      <trkpt lat="42.989383999999625" lon="-1.3555699999999993">
        <ele>865.871</ele>
        <time>2022-08-24T13:02:03Z</time>
      </trkpt>
      <trkpt lat="42.98935699999962" lon="-1.3556129999999993">
        <ele>866.263</ele>
        <time>2022-08-24T13:02:05Z</time>
      </trkpt>
      <trkpt lat="42.98934599999962" lon="-1.3556389999999994">
        <ele>866.220</ele>
        <time>2022-08-24T13:02:06Z</time>
      </trkpt>
      <trkpt lat="42.98932899999962" lon="-1.3556919999999995">
        <ele>866.443</ele>
        <time>2022-08-24T13:02:08Z</time>
      </trkpt>
      <trkpt lat="42.989321999999625" lon="-1.3557169999999994">
        <ele>866.677</ele>
        <time>2022-08-24T13:02:09Z</time>
      </trkpt>
      <trkpt lat="42.989315999999626" lon="-1.3557449999999993">
        <ele>866.636</ele>
        <time>2022-08-24T13:02:10Z</time>
      </trkpt>
      <trkpt lat="42.98931699999962" lon="-1.3557969999999993">
        <ele>867.227</ele>
        <time>2022-08-24T13:02:12Z</time>
      </trkpt>
      <trkpt lat="42.98931999999962" lon="-1.3558269999999992">
        <ele>867.468</ele>
        <time>2022-08-24T13:02:13Z</time>
      </trkpt>
      <trkpt lat="42.989338999999624" lon="-1.3558839999999992">
        <ele>867.814</ele>
        <time>2022-08-24T13:02:15Z</time>
      </trkpt>
      <trkpt lat="42.98934099999963" lon="-1.3559179999999993">
        <ele>868.009</ele>
        <time>2022-08-24T13:02:16Z</time>
      </trkpt>
      <trkpt lat="42.98934099999963" lon="-1.3559499999999993">
        <ele>868.073</ele>
        <time>2022-08-24T13:02:17Z</time>
      </trkpt>
      <trkpt lat="42.98934299999963" lon="-1.3560109999999994">
        <ele>868.863</ele>
        <time>2022-08-24T13:02:19Z</time>
      </trkpt>
      <trkpt lat="42.98934299999963" lon="-1.3560379999999994">
        <ele>868.863</ele>
        <time>2022-08-24T13:02:20Z</time>
      </trkpt>
      <trkpt lat="42.989349999999625" lon="-1.3560969999999994">
        <ele>869.459</ele>
        <time>2022-08-24T13:02:23Z</time>
      </trkpt>
      <trkpt lat="42.989349999999625" lon="-1.3561179999999995">
        <ele>869.621</ele>
        <time>2022-08-24T13:02:24Z</time>
      </trkpt>
      <trkpt lat="42.989344999999624" lon="-1.3561389999999995">
        <ele>869.668</ele>
        <time>2022-08-24T13:02:25Z</time>
      </trkpt>
      <trkpt lat="42.989338999999624" lon="-1.3561639999999995">
        <ele>869.641</ele>
        <time>2022-08-24T13:02:26Z</time>
      </trkpt>
      <trkpt lat="42.989332999999625" lon="-1.3561909999999995">
        <ele>869.815</ele>
        <time>2022-08-24T13:02:27Z</time>
      </trkpt>
      <trkpt lat="42.98932599999963" lon="-1.3562189999999994">
        <ele>869.814</ele>
        <time>2022-08-24T13:02:28Z</time>
      </trkpt>
      <trkpt lat="42.98931899999963" lon="-1.3562429999999994">
        <ele>869.843</ele>
        <time>2022-08-24T13:02:29Z</time>
      </trkpt>
      <trkpt lat="42.989309999999634" lon="-1.3562679999999994">
        <ele>870.064</ele>
        <time>2022-08-24T13:02:30Z</time>
      </trkpt>
      <trkpt lat="42.98930299999964" lon="-1.3562909999999995">
        <ele>870.410</ele>
        <time>2022-08-24T13:02:31Z</time>
      </trkpt>
      <trkpt lat="42.98930599999964" lon="-1.3563189999999994">
        <ele>870.409</ele>
        <time>2022-08-24T13:02:32Z</time>
      </trkpt>
      <trkpt lat="42.98930799999964" lon="-1.3563459999999994">
        <ele>870.685</ele>
        <time>2022-08-24T13:02:33Z</time>
      </trkpt>
      <trkpt lat="42.989308999999636" lon="-1.3563719999999995">
        <ele>870.845</ele>
        <time>2022-08-24T13:02:34Z</time>
      </trkpt>
      <trkpt lat="42.989308999999636" lon="-1.3563719999999995">
        <ele>871.025</ele>
        <time>2022-08-24T13:02:35Z</time>
      </trkpt>
      <trkpt lat="42.98932499999964" lon="-1.3564469999999995">
        <ele>871.051</ele>
        <time>2022-08-24T13:02:36Z</time>
      </trkpt>
      <trkpt lat="42.98933799999964" lon="-1.3564849999999995">
        <ele>871.273</ele>
        <time>2022-08-24T13:02:37Z</time>
      </trkpt>
      <trkpt lat="42.98934099999964" lon="-1.3565239999999994">
        <ele>871.250</ele>
        <time>2022-08-24T13:02:38Z</time>
      </trkpt>
      <trkpt lat="42.98934599999964" lon="-1.3565509999999994">
        <ele>871.243</ele>
        <time>2022-08-24T13:02:39Z</time>
      </trkpt>
      <trkpt lat="42.98935399999964" lon="-1.3565839999999993">
        <ele>871.437</ele>
        <time>2022-08-24T13:02:40Z</time>
      </trkpt>
      <trkpt lat="42.989361999999645" lon="-1.3566179999999994">
        <ele>871.476</ele>
        <time>2022-08-24T13:02:41Z</time>
      </trkpt>
      <trkpt lat="42.98936099999965" lon="-1.3566609999999995">
        <ele>871.675</ele>
        <time>2022-08-24T13:02:42Z</time>
      </trkpt>
      <trkpt lat="42.98935999999965" lon="-1.3567029999999995">
        <ele>871.628</ele>
        <time>2022-08-24T13:02:43Z</time>
      </trkpt>
      <trkpt lat="42.98935599999965" lon="-1.3567449999999996">
        <ele>871.820</ele>
        <time>2022-08-24T13:02:44Z</time>
      </trkpt>
      <trkpt lat="42.989357999999655" lon="-1.3567869999999997">
        <ele>872.209</ele>
        <time>2022-08-24T13:02:45Z</time>
      </trkpt>
      <trkpt lat="42.98935899999965" lon="-1.3568219999999998">
        <ele>872.438</ele>
        <time>2022-08-24T13:02:46Z</time>
      </trkpt>
      <trkpt lat="42.98936499999965" lon="-1.3568499999999997">
        <ele>872.468</ele>
        <time>2022-08-24T13:02:47Z</time>
      </trkpt>
      <trkpt lat="42.989374999999654" lon="-1.3568849999999997">
        <ele>872.638</ele>
        <time>2022-08-24T13:02:48Z</time>
      </trkpt>
      <trkpt lat="42.98938499999966" lon="-1.3569139999999997">
        <ele>872.884</ele>
        <time>2022-08-24T13:02:49Z</time>
      </trkpt>
      <trkpt lat="42.98939499999966" lon="-1.3569619999999998">
        <ele>872.686</ele>
        <time>2022-08-24T13:02:50Z</time>
      </trkpt>
      <trkpt lat="42.98941099999966" lon="-1.3570059999999997">
        <ele>872.683</ele>
        <time>2022-08-24T13:02:51Z</time>
      </trkpt>
      <trkpt lat="42.989421999999664" lon="-1.3570489999999997">
        <ele>872.626</ele>
        <time>2022-08-24T13:02:52Z</time>
      </trkpt>
      <trkpt lat="42.98942499999966" lon="-1.3570849999999997">
        <ele>872.610</ele>
        <time>2022-08-24T13:02:53Z</time>
      </trkpt>
      <trkpt lat="42.98943199999966" lon="-1.3571369999999996">
        <ele>872.629</ele>
        <time>2022-08-24T13:02:54Z</time>
      </trkpt>
      <trkpt lat="42.98943799999966" lon="-1.3571809999999995">
        <ele>872.833</ele>
        <time>2022-08-24T13:02:55Z</time>
      </trkpt>
      <trkpt lat="42.98944799999966" lon="-1.3572249999999995">
        <ele>872.823</ele>
        <time>2022-08-24T13:02:56Z</time>
      </trkpt>
      <trkpt lat="42.98945199999966" lon="-1.3572649999999995">
        <ele>872.815</ele>
        <time>2022-08-24T13:02:57Z</time>
      </trkpt>
      <trkpt lat="42.98946199999966" lon="-1.3572959999999994">
        <ele>872.809</ele>
        <time>2022-08-24T13:02:58Z</time>
      </trkpt>
      <trkpt lat="42.98947599999966" lon="-1.3573419999999994">
        <ele>872.844</ele>
        <time>2022-08-24T13:02:59Z</time>
      </trkpt>
      <trkpt lat="42.98948399999966" lon="-1.3573799999999994">
        <ele>872.814</ele>
        <time>2022-08-24T13:03:00Z</time>
      </trkpt>
      <trkpt lat="42.98949399999967" lon="-1.3574189999999993">
        <ele>873.064</ele>
        <time>2022-08-24T13:03:01Z</time>
      </trkpt>
      <trkpt lat="42.989508999999664" lon="-1.3574989999999993">
        <ele>873.250</ele>
        <time>2022-08-24T13:03:03Z</time>
      </trkpt>
      <trkpt lat="42.98954999999967" lon="-1.3577439999999994">
        <ele>873.652</ele>
        <time>2022-08-24T13:03:09Z</time>
      </trkpt>
      <trkpt lat="42.989553999999664" lon="-1.3577769999999993">
        <ele>873.659</ele>
        <time>2022-08-24T13:03:10Z</time>
      </trkpt>
      <trkpt lat="42.989553999999664" lon="-1.3578029999999994">
        <ele>873.892</ele>
        <time>2022-08-24T13:03:11Z</time>
      </trkpt>
      <trkpt lat="42.989550999999665" lon="-1.3578989999999995">
        <ele>874.226</ele>
        <time>2022-08-24T13:03:14Z</time>
      </trkpt>
      <trkpt lat="42.989547999999665" lon="-1.3579559999999995">
        <ele>874.465</ele>
        <time>2022-08-24T13:03:16Z</time>
      </trkpt>
      <trkpt lat="42.98954599999966" lon="-1.3579959999999995">
        <ele>874.483</ele>
        <time>2022-08-24T13:03:17Z</time>
      </trkpt>
      <trkpt lat="42.98954899999966" lon="-1.3580619999999994">
        <ele>874.625</ele>
        <time>2022-08-24T13:03:19Z</time>
      </trkpt>
      <trkpt lat="42.989547999999665" lon="-1.3580909999999995">
        <ele>874.817</ele>
        <time>2022-08-24T13:03:20Z</time>
      </trkpt>
      <trkpt lat="42.98955999999966" lon="-1.3582109999999994">
        <ele>875.609</ele>
        <time>2022-08-24T13:03:23Z</time>
      </trkpt>
      <trkpt lat="42.98956399999966" lon="-1.3583099999999995">
        <ele>875.879</ele>
        <time>2022-08-24T13:03:25Z</time>
      </trkpt>
      <trkpt lat="42.98958099999966" lon="-1.3584389999999995">
        <ele>876.089</ele>
        <time>2022-08-24T13:03:28Z</time>
      </trkpt>
      <trkpt lat="42.98957899999966" lon="-1.3584759999999996">
        <ele>876.059</ele>
        <time>2022-08-24T13:03:29Z</time>
      </trkpt>
      <trkpt lat="42.98957799999966" lon="-1.3585229999999995">
        <ele>876.235</ele>
        <time>2022-08-24T13:03:30Z</time>
      </trkpt>
      <trkpt lat="42.98958199999966" lon="-1.3585569999999996">
        <ele>876.237</ele>
        <time>2022-08-24T13:03:31Z</time>
      </trkpt>
      <trkpt lat="42.989588999999654" lon="-1.3585919999999996">
        <ele>876.244</ele>
        <time>2022-08-24T13:03:32Z</time>
      </trkpt>
      <trkpt lat="42.989596999999655" lon="-1.3586249999999995">
        <ele>876.477</ele>
        <time>2022-08-24T13:03:33Z</time>
      </trkpt>
      <trkpt lat="42.98960099999965" lon="-1.3586599999999995">
        <ele>876.461</ele>
        <time>2022-08-24T13:03:34Z</time>
      </trkpt>
      <trkpt lat="42.989605999999654" lon="-1.3587049999999996">
        <ele>876.420</ele>
        <time>2022-08-24T13:03:35Z</time>
      </trkpt>
      <trkpt lat="42.989607999999656" lon="-1.3587339999999997">
        <ele>876.441</ele>
        <time>2022-08-24T13:03:36Z</time>
      </trkpt>
      <trkpt lat="42.989599999999655" lon="-1.3587719999999996">
        <ele>876.481</ele>
        <time>2022-08-24T13:03:37Z</time>
      </trkpt>
      <trkpt lat="42.98958799999966" lon="-1.3588179999999996">
        <ele>876.609</ele>
        <time>2022-08-24T13:03:38Z</time>
      </trkpt>
      <trkpt lat="42.989588999999654" lon="-1.3588559999999996">
        <ele>876.609</ele>
        <time>2022-08-24T13:03:39Z</time>
      </trkpt>
      <trkpt lat="42.989602999999654" lon="-1.3589829999999996">
        <ele>876.675</ele>
        <time>2022-08-24T13:03:41Z</time>
      </trkpt>
      <trkpt lat="42.989636999999654" lon="-1.3590479999999996">
        <ele>876.465</ele>
        <time>2022-08-24T13:03:42Z</time>
      </trkpt>
      <trkpt lat="42.98966299999965" lon="-1.3591089999999997">
        <ele>876.495</ele>
        <time>2022-08-24T13:03:43Z</time>
      </trkpt>
      <trkpt lat="42.98965399999965" lon="-1.3591729999999997">
        <ele>876.221</ele>
        <time>2022-08-24T13:03:44Z</time>
      </trkpt>
      <trkpt lat="42.98963299999966" lon="-1.3592359999999997">
        <ele>876.253</ele>
        <time>2022-08-24T13:03:45Z</time>
      </trkpt>
      <trkpt lat="42.989607999999656" lon="-1.3592929999999996">
        <ele>876.010</ele>
        <time>2022-08-24T13:03:46Z</time>
      </trkpt>
      <trkpt lat="42.989607999999656" lon="-1.3592929999999996">
        <ele>876.093</ele>
        <time>2022-08-24T13:03:47Z</time>
      </trkpt>
      <trkpt lat="42.98954999999965" lon="-1.3594199999999996">
        <ele>876.087</ele>
        <time>2022-08-24T13:03:48Z</time>
      </trkpt>
      <trkpt lat="42.98953299999965" lon="-1.3595019999999995">
        <ele>876.086</ele>
        <time>2022-08-24T13:03:49Z</time>
      </trkpt>
      <trkpt lat="42.98950799999965" lon="-1.3595959999999996">
        <ele>876.296</ele>
        <time>2022-08-24T13:03:51Z</time>
      </trkpt>
      <trkpt lat="42.98949399999965" lon="-1.3596389999999996">
        <ele>876.431</ele>
        <time>2022-08-24T13:03:52Z</time>
      </trkpt>
      <trkpt lat="42.98945799999965" lon="-1.3597409999999996">
        <ele>876.424</ele>
        <time>2022-08-24T13:03:54Z</time>
      </trkpt>
      <trkpt lat="42.98944599999965" lon="-1.3597799999999995">
        <ele>876.409</ele>
        <time>2022-08-24T13:03:55Z</time>
      </trkpt>
      <trkpt lat="42.98942699999965" lon="-1.3598079999999995">
        <ele>876.620</ele>
        <time>2022-08-24T13:03:56Z</time>
      </trkpt>
      <trkpt lat="42.98941199999965" lon="-1.3598369999999995">
        <ele>876.620</ele>
        <time>2022-08-24T13:03:57Z</time>
      </trkpt>
      <trkpt lat="42.98939599999965" lon="-1.3598619999999995">
        <ele>876.660</ele>
        <time>2022-08-24T13:03:58Z</time>
      </trkpt>
      <trkpt lat="42.98937899999965" lon="-1.3598829999999995">
        <ele>876.826</ele>
        <time>2022-08-24T13:03:59Z</time>
      </trkpt>
      <trkpt lat="42.98936299999965" lon="-1.3599059999999996">
        <ele>877.028</ele>
        <time>2022-08-24T13:04:00Z</time>
      </trkpt>
      <trkpt lat="42.98934099999965" lon="-1.3599379999999996">
        <ele>877.485</ele>
        <time>2022-08-24T13:04:01Z</time>
      </trkpt>
      <trkpt lat="42.989321999999646" lon="-1.3599639999999997">
        <ele>877.678</ele>
        <time>2022-08-24T13:04:02Z</time>
      </trkpt>
      <trkpt lat="42.989307999999646" lon="-1.3599869999999998">
        <ele>877.822</ele>
        <time>2022-08-24T13:04:03Z</time>
      </trkpt>
      <trkpt lat="42.989296999999645" lon="-1.3600059999999998">
        <ele>877.881</ele>
        <time>2022-08-24T13:04:04Z</time>
      </trkpt>
      <trkpt lat="42.98927899999965" lon="-1.360024">
        <ele>878.096</ele>
        <time>2022-08-24T13:04:05Z</time>
      </trkpt>
      <trkpt lat="42.98918799999965" lon="-1.360118">
        <ele>878.431</ele>
        <time>2022-08-24T13:04:09Z</time>
      </trkpt>
      <trkpt lat="42.98914099999965" lon="-1.360185">
        <ele>878.824</ele>
        <time>2022-08-24T13:04:11Z</time>
      </trkpt>
      <trkpt lat="42.98912699999965" lon="-1.360225">
        <ele>878.809</ele>
        <time>2022-08-24T13:04:12Z</time>
      </trkpt>
      <trkpt lat="42.98912399999965" lon="-1.360268">
        <ele>878.890</ele>
        <time>2022-08-24T13:04:13Z</time>
      </trkpt>
      <trkpt lat="42.98912599999965" lon="-1.360326">
        <ele>878.890</ele>
        <time>2022-08-24T13:04:14Z</time>
      </trkpt>
      <trkpt lat="42.98912499999965" lon="-1.3603889999999998">
        <ele>878.890</ele>
        <time>2022-08-24T13:04:15Z</time>
      </trkpt>
      <trkpt lat="42.989129999999655" lon="-1.3604559999999999">
        <ele>878.836</ele>
        <time>2022-08-24T13:04:16Z</time>
      </trkpt>
      <trkpt lat="42.98913699999965" lon="-1.360517">
        <ele>878.668</ele>
        <time>2022-08-24T13:04:17Z</time>
      </trkpt>
      <trkpt lat="42.98913699999965" lon="-1.360563">
        <ele>878.265</ele>
        <time>2022-08-24T13:04:18Z</time>
      </trkpt>
      <trkpt lat="42.989129999999655" lon="-1.360596">
        <ele>877.638</ele>
        <time>2022-08-24T13:04:19Z</time>
      </trkpt>
      <trkpt lat="42.98911099999965" lon="-1.360619">
        <ele>877.032</ele>
        <time>2022-08-24T13:04:20Z</time>
      </trkpt>
      <trkpt lat="42.989090999999654" lon="-1.360628">
        <ele>876.861</ele>
        <time>2022-08-24T13:04:21Z</time>
      </trkpt>
      <trkpt lat="42.98907299999966" lon="-1.360628">
        <ele>876.437</ele>
        <time>2022-08-24T13:04:22Z</time>
      </trkpt>
      <trkpt lat="42.98901899999966" lon="-1.360626">
        <ele>875.649</ele>
        <time>2022-08-24T13:04:24Z</time>
      </trkpt>
      <trkpt lat="42.988994999999655" lon="-1.360633">
        <ele>875.413</ele>
        <time>2022-08-24T13:04:25Z</time>
      </trkpt>
      <trkpt lat="42.988977999999655" lon="-1.360649">
        <ele>875.209</ele>
        <time>2022-08-24T13:04:26Z</time>
      </trkpt>
      <trkpt lat="42.98895999999966" lon="-1.36067">
        <ele>874.674</ele>
        <time>2022-08-24T13:04:27Z</time>
      </trkpt>
      <trkpt lat="42.988937999999656" lon="-1.360682">
        <ele>874.434</ele>
        <time>2022-08-24T13:04:28Z</time>
      </trkpt>
      <trkpt lat="42.98892099999966" lon="-1.36069">
        <ele>874.264</ele>
        <time>2022-08-24T13:04:29Z</time>
      </trkpt>
      <trkpt lat="42.98891099999965" lon="-1.360704">
        <ele>874.040</ele>
        <time>2022-08-24T13:04:30Z</time>
      </trkpt>
      <trkpt lat="42.98890599999965" lon="-1.360703">
        <ele>873.862</ele>
        <time>2022-08-24T13:04:31Z</time>
      </trkpt>
      <trkpt lat="42.98888099999965" lon="-1.360718">
        <ele>873.889</ele>
        <time>2022-08-24T13:04:45Z</time>
      </trkpt>
      <trkpt lat="42.98884799999965" lon="-1.360713">
        <ele>873.812</ele>
        <time>2022-08-24T13:04:46Z</time>
      </trkpt>
      <trkpt lat="42.98881999999965" lon="-1.36071">
        <ele>873.856</ele>
        <time>2022-08-24T13:04:47Z</time>
      </trkpt>
      <trkpt lat="42.98879499999965" lon="-1.3607090000000002">
        <ele>873.885</ele>
        <time>2022-08-24T13:04:48Z</time>
      </trkpt>
      <trkpt lat="42.98877699999965" lon="-1.3607160000000003">
        <ele>873.655</ele>
        <time>2022-08-24T13:04:49Z</time>
      </trkpt>
      <trkpt lat="42.98871199999965" lon="-1.3607620000000002">
        <ele>873.607</ele>
        <time>2022-08-24T13:04:51Z</time>
      </trkpt>
      <trkpt lat="42.98867299999965" lon="-1.3607870000000002">
        <ele>873.617</ele>
        <time>2022-08-24T13:04:52Z</time>
      </trkpt>
      <trkpt lat="42.98862799999965" lon="-1.360815">
        <ele>873.609</ele>
        <time>2022-08-24T13:04:53Z</time>
      </trkpt>
      <trkpt lat="42.98846099999965" lon="-1.360856">
        <ele>873.686</ele>
        <time>2022-08-24T13:04:56Z</time>
      </trkpt>
      <trkpt lat="42.98835499999965" lon="-1.360862">
        <ele>873.646</ele>
        <time>2022-08-24T13:04:59Z</time>
      </trkpt>
      <trkpt lat="42.98833799999965" lon="-1.360872">
        <ele>873.616</ele>
        <time>2022-08-24T13:05:00Z</time>
      </trkpt>
      <trkpt lat="42.98832899999965" lon="-1.360891">
        <ele>873.692</ele>
        <time>2022-08-24T13:05:01Z</time>
      </trkpt>
      <trkpt lat="42.98831199999965" lon="-1.360897">
        <ele>873.694</ele>
        <time>2022-08-24T13:05:02Z</time>
      </trkpt>
      <trkpt lat="42.988296999999655" lon="-1.360905">
        <ele>873.661</ele>
        <time>2022-08-24T13:05:03Z</time>
      </trkpt>
      <trkpt lat="42.98828199999966" lon="-1.360921">
        <ele>873.644</ele>
        <time>2022-08-24T13:05:04Z</time>
      </trkpt>
      <trkpt lat="42.988271999999654" lon="-1.36094">
        <ele>874.018</ele>
        <time>2022-08-24T13:05:05Z</time>
      </trkpt>
      <trkpt lat="42.988262999999655" lon="-1.36095">
        <ele>874.257</ele>
        <time>2022-08-24T13:05:06Z</time>
      </trkpt>
      <trkpt lat="42.98825899999966" lon="-1.360959">
        <ele>874.464</ele>
        <time>2022-08-24T13:05:07Z</time>
      </trkpt>
      <trkpt lat="42.98825299999966" lon="-1.360969">
        <ele>874.606</ele>
        <time>2022-08-24T13:05:08Z</time>
      </trkpt>
      <trkpt lat="42.98824699999966" lon="-1.360977">
        <ele>874.816</ele>
        <time>2022-08-24T13:05:09Z</time>
      </trkpt>
      <trkpt lat="42.98822399999966" lon="-1.3610010000000001">
        <ele>875.209</ele>
        <time>2022-08-24T13:05:11Z</time>
      </trkpt>
      <trkpt lat="42.988171999999665" lon="-1.361061">
        <ele>875.827</ele>
        <time>2022-08-24T13:05:15Z</time>
      </trkpt>
      <trkpt lat="42.98813999999967" lon="-1.3611110000000002">
        <ele>876.267</ele>
        <time>2022-08-24T13:05:18Z</time>
      </trkpt>
      <trkpt lat="42.98812799999967" lon="-1.361123">
        <ele>876.677</ele>
        <time>2022-08-24T13:05:19Z</time>
      </trkpt>
      <trkpt lat="42.98811399999967" lon="-1.3611300000000002">
        <ele>877.073</ele>
        <time>2022-08-24T13:05:20Z</time>
      </trkpt>
      <trkpt lat="42.98810499999967" lon="-1.3611440000000001">
        <ele>877.015</ele>
        <time>2022-08-24T13:05:21Z</time>
      </trkpt>
      <trkpt lat="42.98810499999967" lon="-1.3611440000000001">
        <ele>877.262</ele>
        <time>2022-08-24T13:05:22Z</time>
      </trkpt>
      <trkpt lat="42.98808199999967" lon="-1.3611630000000001">
        <ele>877.465</ele>
        <time>2022-08-24T13:05:23Z</time>
      </trkpt>
      <trkpt lat="42.98806799999967" lon="-1.3611730000000002">
        <ele>877.659</ele>
        <time>2022-08-24T13:05:24Z</time>
      </trkpt>
      <trkpt lat="42.98806799999967" lon="-1.3611730000000002">
        <ele>877.828</ele>
        <time>2022-08-24T13:05:25Z</time>
      </trkpt>
      <trkpt lat="42.98804399999967" lon="-1.361193">
        <ele>877.851</ele>
        <time>2022-08-24T13:05:26Z</time>
      </trkpt>
      <trkpt lat="42.988030999999665" lon="-1.361202">
        <ele>877.801</ele>
        <time>2022-08-24T13:05:27Z</time>
      </trkpt>
      <trkpt lat="42.98801799999966" lon="-1.361213">
        <ele>877.811</ele>
        <time>2022-08-24T13:05:28Z</time>
      </trkpt>
      <trkpt lat="42.98800399999966" lon="-1.361224">
        <ele>878.009</ele>
        <time>2022-08-24T13:05:29Z</time>
      </trkpt>
      <trkpt lat="42.987994999999664" lon="-1.3612279999999999">
        <ele>878.036</ele>
        <time>2022-08-24T13:05:30Z</time>
      </trkpt>
      <trkpt lat="42.98798699999966" lon="-1.361233">
        <ele>878.236</ele>
        <time>2022-08-24T13:05:31Z</time>
      </trkpt>
      <trkpt lat="42.98798699999966" lon="-1.361233">
        <ele>878.446</ele>
        <time>2022-08-24T13:05:32Z</time>
      </trkpt>
      <trkpt lat="42.987985999999665" lon="-1.361254">
        <ele>878.662</ele>
        <time>2022-08-24T13:05:33Z</time>
      </trkpt>
      <trkpt lat="42.987980999999664" lon="-1.361261">
        <ele>878.844</ele>
        <time>2022-08-24T13:05:34Z</time>
      </trkpt>
      <trkpt lat="42.987980999999664" lon="-1.361261">
        <ele>878.841</ele>
        <time>2022-08-24T13:05:35Z</time>
      </trkpt>
      <trkpt lat="42.98795099999966" lon="-1.361282">
        <ele>879.284</ele>
        <time>2022-08-24T13:05:36Z</time>
      </trkpt>
      <trkpt lat="42.98794799999966" lon="-1.361283">
        <ele>879.418</ele>
        <time>2022-08-24T13:05:37Z</time>
      </trkpt>
      <trkpt lat="42.98793999999966" lon="-1.361287">
        <ele>879.657</ele>
        <time>2022-08-24T13:05:38Z</time>
      </trkpt>
      <trkpt lat="42.98792999999966" lon="-1.361302">
        <ele>880.072</ele>
        <time>2022-08-24T13:05:39Z</time>
      </trkpt>
      <trkpt lat="42.98791599999966" lon="-1.36131">
        <ele>880.013</ele>
        <time>2022-08-24T13:05:40Z</time>
      </trkpt>
      <trkpt lat="42.987902999999655" lon="-1.36132">
        <ele>880.414</ele>
        <time>2022-08-24T13:05:41Z</time>
      </trkpt>
      <trkpt lat="42.98789799999965" lon="-1.361326">
        <ele>880.609</ele>
        <time>2022-08-24T13:05:42Z</time>
      </trkpt>
      <trkpt lat="42.987893999999656" lon="-1.361327">
        <ele>880.848</ele>
        <time>2022-08-24T13:05:43Z</time>
      </trkpt>
      <trkpt lat="42.98788399999965" lon="-1.3613309999999998">
        <ele>881.268</ele>
        <time>2022-08-24T13:05:44Z</time>
      </trkpt>
      <trkpt lat="42.98787899999965" lon="-1.3613349999999997">
        <ele>881.478</ele>
        <time>2022-08-24T13:05:45Z</time>
      </trkpt>
      <trkpt lat="42.98786499999965" lon="-1.3613389999999996">
        <ele>881.654</ele>
        <time>2022-08-24T13:05:46Z</time>
      </trkpt>
      <trkpt lat="42.987857999999655" lon="-1.3613449999999996">
        <ele>881.626</ele>
        <time>2022-08-24T13:05:47Z</time>
      </trkpt>
      <trkpt lat="42.98784799999965" lon="-1.3613519999999997">
        <ele>881.883</ele>
        <time>2022-08-24T13:05:48Z</time>
      </trkpt>
      <trkpt lat="42.98783399999965" lon="-1.3613589999999998">
        <ele>882.086</ele>
        <time>2022-08-24T13:05:49Z</time>
      </trkpt>
      <trkpt lat="42.98782499999965" lon="-1.3613669999999998">
        <ele>882.250</ele>
        <time>2022-08-24T13:05:50Z</time>
      </trkpt>
      <trkpt lat="42.98781099999965" lon="-1.3613709999999997">
        <ele>882.429</ele>
        <time>2022-08-24T13:05:51Z</time>
      </trkpt>
      <trkpt lat="42.987801999999654" lon="-1.3613819999999996">
        <ele>882.676</ele>
        <time>2022-08-24T13:05:52Z</time>
      </trkpt>
      <trkpt lat="42.987784999999654" lon="-1.3613949999999997">
        <ele>882.890</ele>
        <time>2022-08-24T13:05:53Z</time>
      </trkpt>
      <trkpt lat="42.98777399999965" lon="-1.3614019999999998">
        <ele>883.019</ele>
        <time>2022-08-24T13:05:54Z</time>
      </trkpt>
      <trkpt lat="42.987753999999654" lon="-1.3614089999999999">
        <ele>883.209</ele>
        <time>2022-08-24T13:05:55Z</time>
      </trkpt>
      <trkpt lat="42.98773599999966" lon="-1.3614169999999999">
        <ele>883.418</ele>
        <time>2022-08-24T13:05:56Z</time>
      </trkpt>
      <trkpt lat="42.98772099999966" lon="-1.3614229999999998">
        <ele>883.498</ele>
        <time>2022-08-24T13:05:57Z</time>
      </trkpt>
      <trkpt lat="42.98770199999966" lon="-1.36143">
        <ele>883.638</ele>
        <time>2022-08-24T13:05:58Z</time>
      </trkpt>
      <trkpt lat="42.98768199999966" lon="-1.361438">
        <ele>883.854</ele>
        <time>2022-08-24T13:05:59Z</time>
      </trkpt>
      <trkpt lat="42.98765899999966" lon="-1.361443">
        <ele>884.056</ele>
        <time>2022-08-24T13:06:00Z</time>
      </trkpt>
      <trkpt lat="42.98763799999966" lon="-1.361448">
        <ele>884.233</ele>
        <time>2022-08-24T13:06:01Z</time>
      </trkpt>
      <trkpt lat="42.98761399999966" lon="-1.361461">
        <ele>884.876</ele>
        <time>2022-08-24T13:06:02Z</time>
      </trkpt>
      <trkpt lat="42.98759899999966" lon="-1.36147">
        <ele>885.280</ele>
        <time>2022-08-24T13:06:03Z</time>
      </trkpt>
      <trkpt lat="42.98758799999966" lon="-1.3614899999999999">
        <ele>885.489</ele>
        <time>2022-08-24T13:06:04Z</time>
      </trkpt>
      <trkpt lat="42.98757699999966" lon="-1.3615009999999999">
        <ele>885.833</ele>
        <time>2022-08-24T13:06:05Z</time>
      </trkpt>
      <trkpt lat="42.98756299999966" lon="-1.361508">
        <ele>886.223</ele>
        <time>2022-08-24T13:06:06Z</time>
      </trkpt>
      <trkpt lat="42.98754799999966" lon="-1.3615119999999998">
        <ele>886.415</ele>
        <time>2022-08-24T13:06:07Z</time>
      </trkpt>
      <trkpt lat="42.987532999999665" lon="-1.3615159999999997">
        <ele>886.609</ele>
        <time>2022-08-24T13:06:08Z</time>
      </trkpt>
      <trkpt lat="42.98751799999967" lon="-1.3615239999999997">
        <ele>886.644</ele>
        <time>2022-08-24T13:06:09Z</time>
      </trkpt>
      <trkpt lat="42.98750299999967" lon="-1.3615349999999997">
        <ele>887.054</ele>
        <time>2022-08-24T13:06:10Z</time>
      </trkpt>
      <trkpt lat="42.98748799999967" lon="-1.3615409999999997">
        <ele>887.274</ele>
        <time>2022-08-24T13:06:11Z</time>
      </trkpt>
      <trkpt lat="42.98747199999967" lon="-1.3615509999999997">
        <ele>887.890</ele>
        <time>2022-08-24T13:06:12Z</time>
      </trkpt>
      <trkpt lat="42.98746199999967" lon="-1.3615719999999998">
        <ele>888.292</ele>
        <time>2022-08-24T13:06:13Z</time>
      </trkpt>
      <trkpt lat="42.98744699999967" lon="-1.3615839999999997">
        <ele>888.449</ele>
        <time>2022-08-24T13:06:14Z</time>
      </trkpt>
      <trkpt lat="42.98743499999967" lon="-1.3615899999999996">
        <ele>888.652</ele>
        <time>2022-08-24T13:06:15Z</time>
      </trkpt>
      <trkpt lat="42.98741599999967" lon="-1.3616049999999997">
        <ele>888.826</ele>
        <time>2022-08-24T13:06:16Z</time>
      </trkpt>
      <trkpt lat="42.987391999999666" lon="-1.3616359999999996">
        <ele>889.025</ele>
        <time>2022-08-24T13:06:17Z</time>
      </trkpt>
      <trkpt lat="42.98737999999967" lon="-1.3616369999999995">
        <ele>889.216</ele>
        <time>2022-08-24T13:06:18Z</time>
      </trkpt>
      <trkpt lat="42.98737199999967" lon="-1.3616439999999996">
        <ele>889.276</ele>
        <time>2022-08-24T13:06:19Z</time>
      </trkpt>
      <trkpt lat="42.987374999999666" lon="-1.3616439999999996">
        <ele>889.413</ele>
        <time>2022-08-24T13:06:20Z</time>
      </trkpt>
      <trkpt lat="42.987366999999665" lon="-1.3616459999999997">
        <ele>889.609</ele>
        <time>2022-08-24T13:06:21Z</time>
      </trkpt>
      <trkpt lat="42.98736499999966" lon="-1.3616439999999996">
        <ele>890.082</ele>
        <time>2022-08-24T13:06:22Z</time>
      </trkpt>
      <trkpt lat="42.987360999999666" lon="-1.3616509999999997">
        <ele>890.272</ele>
        <time>2022-08-24T13:06:23Z</time>
      </trkpt>
      <trkpt lat="42.98735999999967" lon="-1.3616569999999997">
        <ele>890.672</ele>
        <time>2022-08-24T13:06:24Z</time>
      </trkpt>
      <trkpt lat="42.98735899999967" lon="-1.3616589999999997">
        <ele>890.628</ele>
        <time>2022-08-24T13:06:25Z</time>
      </trkpt>
      <trkpt lat="42.98735899999967" lon="-1.3616589999999997">
        <ele>891.070</ele>
        <time>2022-08-24T13:06:26Z</time>
      </trkpt>
      <trkpt lat="42.98734999999967" lon="-1.3616629999999996">
        <ele>891.247</ele>
        <time>2022-08-24T13:06:27Z</time>
      </trkpt>
      <trkpt lat="42.98734699999967" lon="-1.3616659999999996">
        <ele>891.680</ele>
        <time>2022-08-24T13:06:28Z</time>
      </trkpt>
      <trkpt lat="42.98734399999967" lon="-1.3616659999999996">
        <ele>892.024</ele>
        <time>2022-08-24T13:06:29Z</time>
      </trkpt>
      <trkpt lat="42.98733599999967" lon="-1.3616699999999995">
        <ele>892.233</ele>
        <time>2022-08-24T13:06:30Z</time>
      </trkpt>
      <trkpt lat="42.987326999999674" lon="-1.3616789999999994">
        <ele>892.464</ele>
        <time>2022-08-24T13:06:31Z</time>
      </trkpt>
      <trkpt lat="42.98731899999967" lon="-1.3616849999999994">
        <ele>892.406</ele>
        <time>2022-08-24T13:06:32Z</time>
      </trkpt>
      <trkpt lat="42.987306999999674" lon="-1.3616879999999993">
        <ele>892.816</ele>
        <time>2022-08-24T13:06:33Z</time>
      </trkpt>
      <trkpt lat="42.98729699999967" lon="-1.3616909999999993">
        <ele>892.809</ele>
        <time>2022-08-24T13:06:34Z</time>
      </trkpt>
      <trkpt lat="42.98728299999967" lon="-1.3616969999999993">
        <ele>893.057</ele>
        <time>2022-08-24T13:06:35Z</time>
      </trkpt>
      <trkpt lat="42.987278999999674" lon="-1.3616989999999993">
        <ele>893.257</ele>
        <time>2022-08-24T13:06:36Z</time>
      </trkpt>
      <trkpt lat="42.987269999999675" lon="-1.3616999999999992">
        <ele>893.477</ele>
        <time>2022-08-24T13:06:37Z</time>
      </trkpt>
      <trkpt lat="42.98725499999968" lon="-1.3616989999999993">
        <ele>893.643</ele>
        <time>2022-08-24T13:06:38Z</time>
      </trkpt>
      <trkpt lat="42.987252999999676" lon="-1.3616989999999993">
        <ele>893.875</ele>
        <time>2022-08-24T13:06:39Z</time>
      </trkpt>
      <trkpt lat="42.98724299999967" lon="-1.3617039999999994">
        <ele>894.082</ele>
        <time>2022-08-24T13:06:40Z</time>
      </trkpt>
      <trkpt lat="42.98723199999967" lon="-1.3617139999999994">
        <ele>894.455</ele>
        <time>2022-08-24T13:06:41Z</time>
      </trkpt>
      <trkpt lat="42.98721599999967" lon="-1.3617179999999993">
        <ele>894.689</ele>
        <time>2022-08-24T13:06:42Z</time>
      </trkpt>
      <trkpt lat="42.98721099999967" lon="-1.3617249999999994">
        <ele>894.818</ele>
        <time>2022-08-24T13:06:43Z</time>
      </trkpt>
      <trkpt lat="42.98719999999967" lon="-1.3617339999999993">
        <ele>894.826</ele>
        <time>2022-08-24T13:06:44Z</time>
      </trkpt>
      <trkpt lat="42.98719699999967" lon="-1.3617369999999993">
        <ele>895.247</ele>
        <time>2022-08-24T13:06:45Z</time>
      </trkpt>
      <trkpt lat="42.987186999999665" lon="-1.3617489999999992">
        <ele>895.211</ele>
        <time>2022-08-24T13:06:46Z</time>
      </trkpt>
      <trkpt lat="42.98716899999967" lon="-1.3617619999999993">
        <ele>895.409</ele>
        <time>2022-08-24T13:06:47Z</time>
      </trkpt>
      <trkpt lat="42.987152999999665" lon="-1.3617739999999992">
        <ele>895.833</ele>
        <time>2022-08-24T13:06:48Z</time>
      </trkpt>
      <trkpt lat="42.98713699999966" lon="-1.3617839999999992">
        <ele>896.023</ele>
        <time>2022-08-24T13:06:49Z</time>
      </trkpt>
      <trkpt lat="42.98712999999967" lon="-1.3617889999999993">
        <ele>896.243</ele>
        <time>2022-08-24T13:06:50Z</time>
      </trkpt>
      <trkpt lat="42.987121999999665" lon="-1.3617899999999992">
        <ele>896.219</ele>
        <time>2022-08-24T13:06:51Z</time>
      </trkpt>
      <trkpt lat="42.987110999999665" lon="-1.3617919999999992">
        <ele>896.421</ele>
        <time>2022-08-24T13:06:52Z</time>
      </trkpt>
      <trkpt lat="42.98710099999966" lon="-1.3617979999999992">
        <ele>896.668</ele>
        <time>2022-08-24T13:06:53Z</time>
      </trkpt>
      <trkpt lat="42.98708399999966" lon="-1.3618089999999992">
        <ele>897.061</ele>
        <time>2022-08-24T13:06:54Z</time>
      </trkpt>
      <trkpt lat="42.987071999999664" lon="-1.3618109999999992">
        <ele>897.215</ele>
        <time>2022-08-24T13:06:55Z</time>
      </trkpt>
      <trkpt lat="42.98705899999966" lon="-1.3618139999999992">
        <ele>897.464</ele>
        <time>2022-08-24T13:06:56Z</time>
      </trkpt>
      <trkpt lat="42.98705899999966" lon="-1.3618079999999992">
        <ele>897.647</ele>
        <time>2022-08-24T13:06:57Z</time>
      </trkpt>
      <trkpt lat="42.98705099999966" lon="-1.3618059999999992">
        <ele>897.829</ele>
        <time>2022-08-24T13:06:58Z</time>
      </trkpt>
      <trkpt lat="42.98704399999966" lon="-1.3618079999999992">
        <ele>898.021</ele>
        <time>2022-08-24T13:06:59Z</time>
      </trkpt>
      <trkpt lat="42.98703599999966" lon="-1.3618129999999993">
        <ele>898.209</ele>
        <time>2022-08-24T13:07:00Z</time>
      </trkpt>
      <trkpt lat="42.98702499999966" lon="-1.3618209999999993">
        <ele>898.475</ele>
        <time>2022-08-24T13:07:01Z</time>
      </trkpt>
      <trkpt lat="42.987020999999665" lon="-1.3618229999999993">
        <ele>898.675</ele>
        <time>2022-08-24T13:07:02Z</time>
      </trkpt>
      <trkpt lat="42.98701899999966" lon="-1.3618289999999993">
        <ele>898.865</ele>
        <time>2022-08-24T13:07:03Z</time>
      </trkpt>
      <trkpt lat="42.98701399999966" lon="-1.3618399999999993">
        <ele>898.871</ele>
        <time>2022-08-24T13:07:04Z</time>
      </trkpt>
      <trkpt lat="42.98700899999966" lon="-1.3618489999999992">
        <ele>899.033</ele>
        <time>2022-08-24T13:07:05Z</time>
      </trkpt>
      <trkpt lat="42.98699599999966" lon="-1.361852999999999">
        <ele>899.210</ele>
        <time>2022-08-24T13:07:06Z</time>
      </trkpt>
      <trkpt lat="42.98699199999966" lon="-1.361852999999999">
        <ele>899.243</ele>
        <time>2022-08-24T13:07:07Z</time>
      </trkpt>
      <trkpt lat="42.98698899999966" lon="-1.361860999999999">
        <ele>899.487</ele>
        <time>2022-08-24T13:07:08Z</time>
      </trkpt>
      <trkpt lat="42.986981999999664" lon="-1.361868999999999">
        <ele>899.486</ele>
        <time>2022-08-24T13:07:09Z</time>
      </trkpt>
      <trkpt lat="42.98697799999967" lon="-1.361872999999999">
        <ele>899.433</ele>
        <time>2022-08-24T13:07:10Z</time>
      </trkpt>
      <trkpt lat="42.98697499999967" lon="-1.361873999999999">
        <ele>899.623</ele>
        <time>2022-08-24T13:07:11Z</time>
      </trkpt>
      <trkpt lat="42.98697499999967" lon="-1.361873999999999">
        <ele>899.815</ele>
        <time>2022-08-24T13:07:12Z</time>
      </trkpt>
      <trkpt lat="42.98696899999967" lon="-1.361876999999999">
        <ele>900.009</ele>
        <time>2022-08-24T13:07:13Z</time>
      </trkpt>
      <trkpt lat="42.986966999999666" lon="-1.361878999999999">
        <ele>900.284</ele>
        <time>2022-08-24T13:07:14Z</time>
      </trkpt>
      <trkpt lat="42.986966999999666" lon="-1.361878999999999">
        <ele>900.274</ele>
        <time>2022-08-24T13:07:15Z</time>
      </trkpt>
      <trkpt lat="42.986952999999666" lon="-1.361883999999999">
        <ele>900.414</ele>
        <time>2022-08-24T13:07:16Z</time>
      </trkpt>
      <trkpt lat="42.98694899999967" lon="-1.361882999999999">
        <ele>900.410</ele>
        <time>2022-08-24T13:07:17Z</time>
      </trkpt>
      <trkpt lat="42.98693699999967" lon="-1.361885999999999">
        <ele>900.682</ele>
        <time>2022-08-24T13:07:18Z</time>
      </trkpt>
      <trkpt lat="42.98692499999967" lon="-1.361899999999999">
        <ele>900.829</ele>
        <time>2022-08-24T13:07:19Z</time>
      </trkpt>
      <trkpt lat="42.98690899999967" lon="-1.361908999999999">
        <ele>900.832</ele>
        <time>2022-08-24T13:07:20Z</time>
      </trkpt>
      <trkpt lat="42.98688899999967" lon="-1.361903999999999">
        <ele>901.066</ele>
        <time>2022-08-24T13:07:21Z</time>
      </trkpt>
      <trkpt lat="42.98687499999967" lon="-1.3619049999999988">
        <ele>901.045</ele>
        <time>2022-08-24T13:07:22Z</time>
      </trkpt>
      <trkpt lat="42.98685499999967" lon="-1.361911999999999">
        <ele>901.272</ele>
        <time>2022-08-24T13:07:23Z</time>
      </trkpt>
      <trkpt lat="42.98684099999967" lon="-1.3619149999999989">
        <ele>901.213</ele>
        <time>2022-08-24T13:07:24Z</time>
      </trkpt>
      <trkpt lat="42.98682799999967" lon="-1.361921999999999">
        <ele>901.414</ele>
        <time>2022-08-24T13:07:25Z</time>
      </trkpt>
      <trkpt lat="42.98681199999967" lon="-1.361926999999999">
        <ele>901.809</ele>
        <time>2022-08-24T13:07:26Z</time>
      </trkpt>
      <trkpt lat="42.986789999999665" lon="-1.361929999999999">
        <ele>901.828</ele>
        <time>2022-08-24T13:07:27Z</time>
      </trkpt>
      <trkpt lat="42.986783999999666" lon="-1.361927999999999">
        <ele>902.038</ele>
        <time>2022-08-24T13:07:28Z</time>
      </trkpt>
      <trkpt lat="42.986772999999666" lon="-1.361932999999999">
        <ele>902.028</ele>
        <time>2022-08-24T13:07:29Z</time>
      </trkpt>
      <trkpt lat="42.98675999999966" lon="-1.3619339999999989">
        <ele>902.414</ele>
        <time>2022-08-24T13:07:30Z</time>
      </trkpt>
      <trkpt lat="42.986747999999665" lon="-1.3619369999999988">
        <ele>902.646</ele>
        <time>2022-08-24T13:07:31Z</time>
      </trkpt>
      <trkpt lat="42.986730999999665" lon="-1.3619339999999989">
        <ele>902.883</ele>
        <time>2022-08-24T13:07:32Z</time>
      </trkpt>
      <trkpt lat="42.986705999999664" lon="-1.361946999999999">
        <ele>903.096</ele>
        <time>2022-08-24T13:07:33Z</time>
      </trkpt>
      <trkpt lat="42.98668699999966" lon="-1.3619399999999988">
        <ele>903.210</ele>
        <time>2022-08-24T13:07:34Z</time>
      </trkpt>
      <trkpt lat="42.98666799999966" lon="-1.361930999999999">
        <ele>903.239</ele>
        <time>2022-08-24T13:07:35Z</time>
      </trkpt>
      <trkpt lat="42.98666699999966" lon="-1.3619069999999989">
        <ele>903.483</ele>
        <time>2022-08-24T13:07:36Z</time>
      </trkpt>
      <trkpt lat="42.986657999999665" lon="-1.3619069999999989">
        <ele>903.825</ele>
        <time>2022-08-24T13:07:37Z</time>
      </trkpt>
      <trkpt lat="42.98664999999966" lon="-1.3619079999999988">
        <ele>903.817</ele>
        <time>2022-08-24T13:07:38Z</time>
      </trkpt>
      <trkpt lat="42.986645999999666" lon="-1.3619109999999988">
        <ele>904.009</ele>
        <time>2022-08-24T13:07:39Z</time>
      </trkpt>
      <trkpt lat="42.98663999999967" lon="-1.3619189999999988">
        <ele>904.219</ele>
        <time>2022-08-24T13:07:40Z</time>
      </trkpt>
      <trkpt lat="42.98663399999967" lon="-1.3619239999999988">
        <ele>904.489</ele>
        <time>2022-08-24T13:07:41Z</time>
      </trkpt>
      <trkpt lat="42.98663399999967" lon="-1.3619239999999988">
        <ele>904.689</ele>
        <time>2022-08-24T13:07:42Z</time>
      </trkpt>
      <trkpt lat="42.98660799999967" lon="-1.361938999999999">
        <ele>904.855</ele>
        <time>2022-08-24T13:07:43Z</time>
      </trkpt>
      <trkpt lat="42.98659599999967" lon="-1.361946999999999">
        <ele>905.047</ele>
        <time>2022-08-24T13:07:44Z</time>
      </trkpt>
      <trkpt lat="42.98658999999967" lon="-1.361956999999999">
        <ele>905.424</ele>
        <time>2022-08-24T13:07:45Z</time>
      </trkpt>
      <trkpt lat="42.98658699999967" lon="-1.3619689999999989">
        <ele>905.437</ele>
        <time>2022-08-24T13:07:46Z</time>
      </trkpt>
      <trkpt lat="42.98658499999967" lon="-1.3619799999999989">
        <ele>905.671</ele>
        <time>2022-08-24T13:07:47Z</time>
      </trkpt>
      <trkpt lat="42.986577999999675" lon="-1.361997999999999">
        <ele>905.670</ele>
        <time>2022-08-24T13:07:48Z</time>
      </trkpt>
      <trkpt lat="42.98657099999968" lon="-1.362008999999999">
        <ele>905.879</ele>
        <time>2022-08-24T13:07:49Z</time>
      </trkpt>
      <trkpt lat="42.98656399999968" lon="-1.3620229999999989">
        <ele>905.805</ele>
        <time>2022-08-24T13:07:50Z</time>
      </trkpt>
      <trkpt lat="42.98655499999968" lon="-1.3620349999999988">
        <ele>906.025</ele>
        <time>2022-08-24T13:07:51Z</time>
      </trkpt>
      <trkpt lat="42.98654999999968" lon="-1.3620529999999988">
        <ele>906.009</ele>
        <time>2022-08-24T13:07:52Z</time>
      </trkpt>
      <trkpt lat="42.98654799999968" lon="-1.3620669999999988">
        <ele>906.058</ele>
        <time>2022-08-24T13:07:53Z</time>
      </trkpt>
      <trkpt lat="42.98653899999968" lon="-1.3620779999999988">
        <ele>906.278</ele>
        <time>2022-08-24T13:07:54Z</time>
      </trkpt>
      <trkpt lat="42.98652399999968" lon="-1.3620919999999987">
        <ele>906.228</ele>
        <time>2022-08-24T13:07:55Z</time>
      </trkpt>
      <trkpt lat="42.986517999999684" lon="-1.3621019999999988">
        <ele>906.224</ele>
        <time>2022-08-24T13:07:56Z</time>
      </trkpt>
      <trkpt lat="42.986511999999685" lon="-1.3621159999999988">
        <ele>906.486</ele>
        <time>2022-08-24T13:07:57Z</time>
      </trkpt>
      <trkpt lat="42.986503999999684" lon="-1.3621299999999987">
        <ele>906.473</ele>
        <time>2022-08-24T13:07:58Z</time>
      </trkpt>
      <trkpt lat="42.986488999999686" lon="-1.3621429999999988">
        <ele>906.626</ele>
        <time>2022-08-24T13:07:59Z</time>
      </trkpt>
      <trkpt lat="42.98647699999969" lon="-1.3621589999999988">
        <ele>906.670</ele>
        <time>2022-08-24T13:08:00Z</time>
      </trkpt>
      <trkpt lat="42.98646299999969" lon="-1.3621769999999989">
        <ele>906.639</ele>
        <time>2022-08-24T13:08:01Z</time>
      </trkpt>
      <trkpt lat="42.98645399999969" lon="-1.3621969999999988">
        <ele>906.844</ele>
        <time>2022-08-24T13:08:02Z</time>
      </trkpt>
      <trkpt lat="42.98644799999969" lon="-1.3622179999999988">
        <ele>907.005</ele>
        <time>2022-08-24T13:08:03Z</time>
      </trkpt>
      <trkpt lat="42.98643699999969" lon="-1.362243999999999">
        <ele>907.215</ele>
        <time>2022-08-24T13:08:04Z</time>
      </trkpt>
      <trkpt lat="42.986443999999686" lon="-1.3622689999999988">
        <ele>907.209</ele>
        <time>2022-08-24T13:08:05Z</time>
      </trkpt>
      <trkpt lat="42.986444999999684" lon="-1.362291999999999">
        <ele>907.455</ele>
        <time>2022-08-24T13:08:06Z</time>
      </trkpt>
      <trkpt lat="42.986441999999684" lon="-1.3623119999999989">
        <ele>907.635</ele>
        <time>2022-08-24T13:08:07Z</time>
      </trkpt>
      <trkpt lat="42.98643499999969" lon="-1.3623359999999989">
        <ele>907.655</ele>
        <time>2022-08-24T13:08:08Z</time>
      </trkpt>
      <trkpt lat="42.986426999999686" lon="-1.3623529999999988">
        <ele>907.861</ele>
        <time>2022-08-24T13:08:09Z</time>
      </trkpt>
      <trkpt lat="42.98642399999969" lon="-1.3623709999999989">
        <ele>907.893</ele>
        <time>2022-08-24T13:08:10Z</time>
      </trkpt>
      <trkpt lat="42.98642099999969" lon="-1.3623879999999988">
        <ele>907.860</ele>
        <time>2022-08-24T13:08:11Z</time>
      </trkpt>
      <trkpt lat="42.98641199999969" lon="-1.3624069999999988">
        <ele>907.813</ele>
        <time>2022-08-24T13:08:12Z</time>
      </trkpt>
      <trkpt lat="42.98641199999969" lon="-1.3624069999999988">
        <ele>908.027</ele>
        <time>2022-08-24T13:08:13Z</time>
      </trkpt>
      <trkpt lat="42.98639299999969" lon="-1.3624449999999988">
        <ele>908.256</ele>
        <time>2022-08-24T13:08:14Z</time>
      </trkpt>
      <trkpt lat="42.986384999999686" lon="-1.3624659999999988">
        <ele>908.072</ele>
        <time>2022-08-24T13:08:15Z</time>
      </trkpt>
      <trkpt lat="42.986373999999685" lon="-1.362488999999999">
        <ele>908.213</ele>
        <time>2022-08-24T13:08:16Z</time>
      </trkpt>
      <trkpt lat="42.98636699999969" lon="-1.362511999999999">
        <ele>908.214</ele>
        <time>2022-08-24T13:08:17Z</time>
      </trkpt>
      <trkpt lat="42.98636299999969" lon="-1.362533999999999">
        <ele>908.409</ele>
        <time>2022-08-24T13:08:18Z</time>
      </trkpt>
      <trkpt lat="42.98635999999969" lon="-1.362553999999999">
        <ele>908.698</ele>
        <time>2022-08-24T13:08:19Z</time>
      </trkpt>
      <trkpt lat="42.98635699999969" lon="-1.3625739999999988">
        <ele>908.638</ele>
        <time>2022-08-24T13:08:20Z</time>
      </trkpt>
      <trkpt lat="42.98635499999969" lon="-1.3625939999999988">
        <ele>908.688</ele>
        <time>2022-08-24T13:08:21Z</time>
      </trkpt>
      <trkpt lat="42.986347999999694" lon="-1.3626129999999987">
        <ele>908.864</ele>
        <time>2022-08-24T13:08:22Z</time>
      </trkpt>
      <trkpt lat="42.986338999999695" lon="-1.3626399999999987">
        <ele>908.876</ele>
        <time>2022-08-24T13:08:23Z</time>
      </trkpt>
      <trkpt lat="42.9863319999997" lon="-1.3626689999999988">
        <ele>908.823</ele>
        <time>2022-08-24T13:08:24Z</time>
      </trkpt>
      <trkpt lat="42.9863259999997" lon="-1.3626989999999988">
        <ele>908.896</ele>
        <time>2022-08-24T13:08:25Z</time>
      </trkpt>
      <trkpt lat="42.9863209999997" lon="-1.3627329999999989">
        <ele>908.830</ele>
        <time>2022-08-24T13:08:26Z</time>
      </trkpt>
      <trkpt lat="42.9863099999997" lon="-1.3627739999999988">
        <ele>908.889</ele>
        <time>2022-08-24T13:08:27Z</time>
      </trkpt>
      <trkpt lat="42.9862979999997" lon="-1.3628209999999987">
        <ele>909.031</ele>
        <time>2022-08-24T13:08:28Z</time>
      </trkpt>
      <trkpt lat="42.9862779999997" lon="-1.3628699999999987">
        <ele>908.861</ele>
        <time>2022-08-24T13:08:29Z</time>
      </trkpt>
      <trkpt lat="42.9862089999997" lon="-1.3629569999999986">
        <ele>908.807</ele>
        <time>2022-08-24T13:08:31Z</time>
      </trkpt>
      <trkpt lat="42.9861569999997" lon="-1.3629969999999987">
        <ele>908.809</ele>
        <time>2022-08-24T13:08:32Z</time>
      </trkpt>
      <trkpt lat="42.9860979999997" lon="-1.3630289999999987">
        <ele>908.684</ele>
        <time>2022-08-24T13:08:33Z</time>
      </trkpt>
      <trkpt lat="42.9860429999997" lon="-1.3630599999999986">
        <ele>908.664</ele>
        <time>2022-08-24T13:08:34Z</time>
      </trkpt>
      <trkpt lat="42.9859949999997" lon="-1.3630809999999987">
        <ele>908.674</ele>
        <time>2022-08-24T13:08:35Z</time>
      </trkpt>
      <trkpt lat="42.9859949999997" lon="-1.3630809999999987">
        <ele>908.260</ele>
        <time>2022-08-24T13:08:36Z</time>
      </trkpt>
      <trkpt lat="42.9859299999997" lon="-1.3631089999999986">
        <ele>907.642</ele>
        <time>2022-08-24T13:08:37Z</time>
      </trkpt>
      <trkpt lat="42.985910999999696" lon="-1.3631209999999985">
        <ele>907.459</ele>
        <time>2022-08-24T13:08:38Z</time>
      </trkpt>
      <trkpt lat="42.98590099999969" lon="-1.3631329999999984">
        <ele>906.832</ele>
        <time>2022-08-24T13:08:39Z</time>
      </trkpt>
      <trkpt lat="42.98589299999969" lon="-1.3631489999999984">
        <ele>906.446</ele>
        <time>2022-08-24T13:08:40Z</time>
      </trkpt>
      <trkpt lat="42.98589099999969" lon="-1.3631509999999984">
        <ele>905.835</ele>
        <time>2022-08-24T13:08:41Z</time>
      </trkpt>
      <trkpt lat="42.98588999999969" lon="-1.3631519999999984">
        <ele>904.648</ele>
        <time>2022-08-24T13:09:25Z</time>
      </trkpt>
      <trkpt lat="42.98585299999969" lon="-1.3631759999999984">
        <ele>904.661</ele>
        <time>2022-08-24T13:09:27Z</time>
      </trkpt>
      <trkpt lat="42.98578899999969" lon="-1.3632099999999985">
        <ele>904.417</ele>
        <time>2022-08-24T13:09:29Z</time>
      </trkpt>
      <trkpt lat="42.98555099999969" lon="-1.3633659999999985">
        <ele>904.009</ele>
        <time>2022-08-24T13:09:33Z</time>
      </trkpt>
      <trkpt lat="42.985298999999685" lon="-1.3635259999999985">
        <ele>903.665</ele>
        <time>2022-08-24T13:09:36Z</time>
      </trkpt>
      <trkpt lat="42.985228999999684" lon="-1.3635919999999984">
        <ele>903.475</ele>
        <time>2022-08-24T13:09:37Z</time>
      </trkpt>
      <trkpt lat="42.98494599999968" lon="-1.3638189999999983">
        <ele>901.645</ele>
        <time>2022-08-24T13:09:40Z</time>
      </trkpt>
      <trkpt lat="42.98474899999968" lon="-1.3639759999999983">
        <ele>900.281</ele>
        <time>2022-08-24T13:09:42Z</time>
      </trkpt>
      <trkpt lat="42.98465999999968" lon="-1.3640429999999983">
        <ele>899.283</ele>
        <time>2022-08-24T13:09:43Z</time>
      </trkpt>
      <trkpt lat="42.98457299999968" lon="-1.3641149999999984">
        <ele>898.440</ele>
        <time>2022-08-24T13:09:44Z</time>
      </trkpt>
      <trkpt lat="42.98448999999968" lon="-1.3641889999999983">
        <ele>897.243</ele>
        <time>2022-08-24T13:09:45Z</time>
      </trkpt>
      <trkpt lat="42.984409999999684" lon="-1.3642649999999983">
        <ele>896.467</ele>
        <time>2022-08-24T13:09:46Z</time>
      </trkpt>
      <trkpt lat="42.98432599999968" lon="-1.3643359999999982">
        <ele>895.076</ele>
        <time>2022-08-24T13:09:47Z</time>
      </trkpt>
      <trkpt lat="42.984248999999686" lon="-1.3644109999999983">
        <ele>893.845</ele>
        <time>2022-08-24T13:09:48Z</time>
      </trkpt>
      <trkpt lat="42.98417399999968" lon="-1.3644579999999982">
        <ele>893.447</ele>
        <time>2022-08-24T13:09:49Z</time>
      </trkpt>
      <trkpt lat="42.984102999999685" lon="-1.3645329999999982">
        <ele>892.211</ele>
        <time>2022-08-24T13:09:50Z</time>
      </trkpt>
      <trkpt lat="42.984032999999684" lon="-1.3646089999999982">
        <ele>891.809</ele>
        <time>2022-08-24T13:09:51Z</time>
      </trkpt>
      <trkpt lat="42.98396699999969" lon="-1.364690999999998">
        <ele>890.845</ele>
        <time>2022-08-24T13:09:52Z</time>
      </trkpt>
      <trkpt lat="42.98383499999969" lon="-1.3648569999999982">
        <ele>889.285</ele>
        <time>2022-08-24T13:09:54Z</time>
      </trkpt>
      <trkpt lat="42.98376899999969" lon="-1.3649339999999983">
        <ele>888.075</ele>
        <time>2022-08-24T13:09:55Z</time>
      </trkpt>
      <trkpt lat="42.98370299999969" lon="-1.3650109999999984">
        <ele>887.451</ele>
        <time>2022-08-24T13:09:56Z</time>
      </trkpt>
      <trkpt lat="42.983636999999696" lon="-1.3650889999999984">
        <ele>886.223</ele>
        <time>2022-08-24T13:09:57Z</time>
      </trkpt>
      <trkpt lat="42.9834869999997" lon="-1.3652629999999983">
        <ele>884.430</ele>
        <time>2022-08-24T13:09:59Z</time>
      </trkpt>
      <trkpt lat="42.9834049999997" lon="-1.3653569999999984">
        <ele>883.083</ele>
        <time>2022-08-24T13:10:00Z</time>
      </trkpt>
      <trkpt lat="42.9833159999997" lon="-1.3654549999999983">
        <ele>882.457</ele>
        <time>2022-08-24T13:10:01Z</time>
      </trkpt>
      <trkpt lat="42.9832229999997" lon="-1.3655569999999984">
        <ele>881.036</ele>
        <time>2022-08-24T13:10:02Z</time>
      </trkpt>
      <trkpt lat="42.983029999999694" lon="-1.3657689999999985">
        <ele>878.628</ele>
        <time>2022-08-24T13:10:04Z</time>
      </trkpt>
      <trkpt lat="42.98283399999969" lon="-1.3659769999999984">
        <ele>876.489</ele>
        <time>2022-08-24T13:10:06Z</time>
      </trkpt>
      <trkpt lat="42.98274099999969" lon="-1.3660849999999984">
        <ele>874.417</ele>
        <time>2022-08-24T13:10:07Z</time>
      </trkpt>
      <trkpt lat="42.98264499999969" lon="-1.3661869999999985">
        <ele>873.409</ele>
        <time>2022-08-24T13:10:08Z</time>
      </trkpt>
      <trkpt lat="42.98255299999969" lon="-1.3662889999999985">
        <ele>871.653</ele>
        <time>2022-08-24T13:10:09Z</time>
      </trkpt>
      <trkpt lat="42.98246499999969" lon="-1.3663879999999986">
        <ele>870.873</ele>
        <time>2022-08-24T13:10:10Z</time>
      </trkpt>
      <trkpt lat="42.98238099999969" lon="-1.3664909999999986">
        <ele>869.443</ele>
        <time>2022-08-24T13:10:11Z</time>
      </trkpt>
      <trkpt lat="42.98229399999969" lon="-1.3665879999999986">
        <ele>869.069</ele>
        <time>2022-08-24T13:10:12Z</time>
      </trkpt>
      <trkpt lat="42.98220499999969" lon="-1.3666869999999987">
        <ele>868.021</ele>
        <time>2022-08-24T13:10:13Z</time>
      </trkpt>
      <trkpt lat="42.98211099999969" lon="-1.3667789999999986">
        <ele>866.868</ele>
        <time>2022-08-24T13:10:14Z</time>
      </trkpt>
      <trkpt lat="42.98189799999969" lon="-1.3669509999999987">
        <ele>865.661</ele>
        <time>2022-08-24T13:10:16Z</time>
      </trkpt>
      <trkpt lat="42.98172399999969" lon="-1.3670719999999987">
        <ele>864.675</ele>
        <time>2022-08-24T13:10:18Z</time>
      </trkpt>
      <trkpt lat="42.98160499999969" lon="-1.3671379999999986">
        <ele>864.284</ele>
        <time>2022-08-24T13:10:19Z</time>
      </trkpt>
      <trkpt lat="42.98150899999969" lon="-1.3671819999999986">
        <ele>863.454</ele>
        <time>2022-08-24T13:10:20Z</time>
      </trkpt>
      <trkpt lat="42.98141799999969" lon="-1.3672219999999986">
        <ele>862.456</ele>
        <time>2022-08-24T13:10:21Z</time>
      </trkpt>
      <trkpt lat="42.98133399999969" lon="-1.3672609999999985">
        <ele>862.211</ele>
        <time>2022-08-24T13:10:22Z</time>
      </trkpt>
      <trkpt lat="42.98127299999969" lon="-1.3672909999999985">
        <ele>861.809</ele>
        <time>2022-08-24T13:10:23Z</time>
      </trkpt>
      <trkpt lat="42.98119199999969" lon="-1.3673359999999986">
        <ele>861.646</ele>
        <time>2022-08-24T13:10:24Z</time>
      </trkpt>
      <trkpt lat="42.981150999999684" lon="-1.3673779999999987">
        <ele>860.826</ele>
        <time>2022-08-24T13:10:25Z</time>
      </trkpt>
      <trkpt lat="42.981108999999684" lon="-1.3674349999999986">
        <ele>860.226</ele>
        <time>2022-08-24T13:10:26Z</time>
      </trkpt>
      <trkpt lat="42.981074999999684" lon="-1.3674869999999986">
        <ele>860.082</ele>
        <time>2022-08-24T13:10:27Z</time>
      </trkpt>
      <trkpt lat="42.98104299999969" lon="-1.3675319999999986">
        <ele>859.684</ele>
        <time>2022-08-24T13:10:28Z</time>
      </trkpt>
      <trkpt lat="42.98100799999969" lon="-1.3675809999999986">
        <ele>859.021</ele>
        <time>2022-08-24T13:10:29Z</time>
      </trkpt>
      <trkpt lat="42.98097599999969" lon="-1.3676289999999987">
        <ele>858.434</ele>
        <time>2022-08-24T13:10:30Z</time>
      </trkpt>
      <trkpt lat="42.98094799999969" lon="-1.3676799999999987">
        <ele>858.258</ele>
        <time>2022-08-24T13:10:31Z</time>
      </trkpt>
      <trkpt lat="42.98091799999969" lon="-1.3677309999999987">
        <ele>857.857</ele>
        <time>2022-08-24T13:10:32Z</time>
      </trkpt>
      <trkpt lat="42.98089199999969" lon="-1.3677829999999986">
        <ele>857.418</ele>
        <time>2022-08-24T13:10:33Z</time>
      </trkpt>
      <trkpt lat="42.98086599999969" lon="-1.3678319999999986">
        <ele>857.298</ele>
        <time>2022-08-24T13:10:34Z</time>
      </trkpt>
      <trkpt lat="42.980766999999695" lon="-1.3680549999999987">
        <ele>856.417</ele>
        <time>2022-08-24T13:10:38Z</time>
      </trkpt>
      <trkpt lat="42.980743999999696" lon="-1.3681129999999986">
        <ele>856.409</ele>
        <time>2022-08-24T13:10:39Z</time>
      </trkpt>
      <trkpt lat="42.9807259999997" lon="-1.3681649999999985">
        <ele>856.452</ele>
        <time>2022-08-24T13:10:40Z</time>
      </trkpt>
      <trkpt lat="42.9807069999997" lon="-1.3682139999999985">
        <ele>856.482</ele>
        <time>2022-08-24T13:10:41Z</time>
      </trkpt>
      <trkpt lat="42.98063799999969" lon="-1.3683599999999985">
        <ele>856.442</ele>
        <time>2022-08-24T13:10:44Z</time>
      </trkpt>
      <trkpt lat="42.98059299999969" lon="-1.3684649999999985">
        <ele>856.498</ele>
        <time>2022-08-24T13:10:46Z</time>
      </trkpt>
      <trkpt lat="42.980569999999695" lon="-1.3685139999999985">
        <ele>856.450</ele>
        <time>2022-08-24T13:10:47Z</time>
      </trkpt>
      <trkpt lat="42.98044999999969" lon="-1.3687519999999984">
        <ele>856.277</ele>
        <time>2022-08-24T13:10:52Z</time>
      </trkpt>
      <trkpt lat="42.98042799999969" lon="-1.3687999999999985">
        <ele>856.280</ele>
        <time>2022-08-24T13:10:53Z</time>
      </trkpt>
      <trkpt lat="42.98040399999969" lon="-1.3688439999999984">
        <ele>856.274</ele>
        <time>2022-08-24T13:10:54Z</time>
      </trkpt>
      <trkpt lat="42.98038099999969" lon="-1.3688869999999984">
        <ele>856.243</ele>
        <time>2022-08-24T13:10:55Z</time>
      </trkpt>
      <trkpt lat="42.980356999999685" lon="-1.3689279999999984">
        <ele>856.257</ele>
        <time>2022-08-24T13:10:56Z</time>
      </trkpt>
      <trkpt lat="42.980331999999684" lon="-1.3689649999999984">
        <ele>856.200</ele>
        <time>2022-08-24T13:10:57Z</time>
      </trkpt>
      <trkpt lat="42.98030799999968" lon="-1.3689979999999984">
        <ele>856.220</ele>
        <time>2022-08-24T13:10:58Z</time>
      </trkpt>
      <trkpt lat="42.98028299999968" lon="-1.3690259999999983">
        <ele>856.209</ele>
        <time>2022-08-24T13:10:59Z</time>
      </trkpt>
      <trkpt lat="42.98025599999968" lon="-1.3690509999999982">
        <ele>856.256</ele>
        <time>2022-08-24T13:11:00Z</time>
      </trkpt>
      <trkpt lat="42.98022399999968" lon="-1.3690739999999983">
        <ele>856.246</ele>
        <time>2022-08-24T13:11:01Z</time>
      </trkpt>
      <trkpt lat="42.98015999999968" lon="-1.3691099999999983">
        <ele>856.246</ele>
        <time>2022-08-24T13:11:03Z</time>
      </trkpt>
      <trkpt lat="42.980129999999676" lon="-1.3691189999999982">
        <ele>856.222</ele>
        <time>2022-08-24T13:11:04Z</time>
      </trkpt>
      <trkpt lat="42.98009799999968" lon="-1.3691289999999983">
        <ele>856.224</ele>
        <time>2022-08-24T13:11:05Z</time>
      </trkpt>
      <trkpt lat="42.98006599999968" lon="-1.3691389999999983">
        <ele>856.261</ele>
        <time>2022-08-24T13:11:06Z</time>
      </trkpt>
      <trkpt lat="42.980033999999684" lon="-1.3691459999999984">
        <ele>856.294</ele>
        <time>2022-08-24T13:11:07Z</time>
      </trkpt>
      <trkpt lat="42.979970999999686" lon="-1.3691649999999984">
        <ele>856.238</ele>
        <time>2022-08-24T13:11:09Z</time>
      </trkpt>
      <trkpt lat="42.979906999999685" lon="-1.3691689999999983">
        <ele>856.267</ele>
        <time>2022-08-24T13:11:11Z</time>
      </trkpt>
      <trkpt lat="42.97984599999968" lon="-1.3691909999999983">
        <ele>856.287</ele>
        <time>2022-08-24T13:11:13Z</time>
      </trkpt>
      <trkpt lat="42.979816999999684" lon="-1.3692089999999983">
        <ele>856.242</ele>
        <time>2022-08-24T13:11:14Z</time>
      </trkpt>
      <trkpt lat="42.97973599999968" lon="-1.3692429999999984">
        <ele>856.226</ele>
        <time>2022-08-24T13:11:17Z</time>
      </trkpt>
      <trkpt lat="42.979729999999684" lon="-1.3692459999999984">
        <ele>856.009</ele>
        <time>2022-08-24T13:11:18Z</time>
      </trkpt>
      <trkpt lat="42.97967499999968" lon="-1.3692729999999984">
        <ele>855.899</ele>
        <time>2022-08-24T13:11:46Z</time>
      </trkpt>
      <trkpt lat="42.97964499999968" lon="-1.3692889999999984">
        <ele>855.869</ele>
        <time>2022-08-24T13:11:47Z</time>
      </trkpt>
      <trkpt lat="42.97960899999968" lon="-1.3693189999999984">
        <ele>855.849</ele>
        <time>2022-08-24T13:11:48Z</time>
      </trkpt>
      <trkpt lat="42.979521999999676" lon="-1.3694049999999984">
        <ele>855.615</ele>
        <time>2022-08-24T13:11:50Z</time>
      </trkpt>
      <trkpt lat="42.979389999999675" lon="-1.3695029999999984">
        <ele>855.237</ele>
        <time>2022-08-24T13:11:53Z</time>
      </trkpt>
      <trkpt lat="42.97933599999968" lon="-1.3695339999999983">
        <ele>855.054</ele>
        <time>2022-08-24T13:11:54Z</time>
      </trkpt>
      <trkpt lat="42.979293999999676" lon="-1.3695529999999982">
        <ele>855.037</ele>
        <time>2022-08-24T13:11:55Z</time>
      </trkpt>
      <trkpt lat="42.979260999999674" lon="-1.3695669999999982">
        <ele>854.871</ele>
        <time>2022-08-24T13:11:56Z</time>
      </trkpt>
      <trkpt lat="42.97923599999967" lon="-1.3695779999999982">
        <ele>854.820</ele>
        <time>2022-08-24T13:11:57Z</time>
      </trkpt>
      <trkpt lat="42.97920499999967" lon="-1.3695939999999982">
        <ele>854.457</ele>
        <time>2022-08-24T13:11:58Z</time>
      </trkpt>
      <trkpt lat="42.979184999999674" lon="-1.3696129999999982">
        <ele>854.400</ele>
        <time>2022-08-24T13:11:59Z</time>
      </trkpt>
      <trkpt lat="42.979172999999676" lon="-1.369643999999998">
        <ele>854.420</ele>
        <time>2022-08-24T13:12:00Z</time>
      </trkpt>
      <trkpt lat="42.97918599999968" lon="-1.369730999999998">
        <ele>854.209</ele>
        <time>2022-08-24T13:12:02Z</time>
      </trkpt>
      <trkpt lat="42.97922499999968" lon="-1.369892999999998">
        <ele>854.286</ele>
        <time>2022-08-24T13:12:05Z</time>
      </trkpt>
      <trkpt lat="42.97923599999968" lon="-1.369938999999998">
        <ele>854.276</ele>
        <time>2022-08-24T13:12:06Z</time>
      </trkpt>
      <trkpt lat="42.97926699999968" lon="-1.370062999999998">
        <ele>853.876</ele>
        <time>2022-08-24T13:12:08Z</time>
      </trkpt>
      <trkpt lat="42.97927499999968" lon="-1.370114999999998">
        <ele>853.692</ele>
        <time>2022-08-24T13:12:09Z</time>
      </trkpt>
      <trkpt lat="42.97928899999968" lon="-1.370167999999998">
        <ele>853.654</ele>
        <time>2022-08-24T13:12:10Z</time>
      </trkpt>
      <trkpt lat="42.97931499999968" lon="-1.370267999999998">
        <ele>853.441</ele>
        <time>2022-08-24T13:12:12Z</time>
      </trkpt>
      <trkpt lat="42.97933299999968" lon="-1.3703289999999981">
        <ele>853.494</ele>
        <time>2022-08-24T13:12:13Z</time>
      </trkpt>
      <trkpt lat="42.979344999999675" lon="-1.370377999999998">
        <ele>853.478</ele>
        <time>2022-08-24T13:12:14Z</time>
      </trkpt>
      <trkpt lat="42.979353999999674" lon="-1.3704279999999982">
        <ele>853.437</ele>
        <time>2022-08-24T13:12:15Z</time>
      </trkpt>
      <trkpt lat="42.979361999999675" lon="-1.3704649999999983">
        <ele>853.443</ele>
        <time>2022-08-24T13:12:16Z</time>
      </trkpt>
      <trkpt lat="42.979375999999675" lon="-1.3705209999999983">
        <ele>853.464</ele>
        <time>2022-08-24T13:12:17Z</time>
      </trkpt>
      <trkpt lat="42.97938299999967" lon="-1.3705649999999983">
        <ele>853.410</ele>
        <time>2022-08-24T13:12:18Z</time>
      </trkpt>
      <trkpt lat="42.97939399999967" lon="-1.3706049999999983">
        <ele>853.409</ele>
        <time>2022-08-24T13:12:19Z</time>
      </trkpt>
      <trkpt lat="42.97941399999967" lon="-1.3706559999999983">
        <ele>853.475</ele>
        <time>2022-08-24T13:12:20Z</time>
      </trkpt>
      <trkpt lat="42.97943099999967" lon="-1.3706969999999983">
        <ele>853.685</ele>
        <time>2022-08-24T13:12:21Z</time>
      </trkpt>
      <trkpt lat="42.97949499999967" lon="-1.3708809999999982">
        <ele>853.675</ele>
        <time>2022-08-24T13:12:25Z</time>
      </trkpt>
      <trkpt lat="42.979507999999676" lon="-1.3709229999999983">
        <ele>853.661</ele>
        <time>2022-08-24T13:12:26Z</time>
      </trkpt>
      <trkpt lat="42.97951899999968" lon="-1.3709639999999983">
        <ele>853.633</ele>
        <time>2022-08-24T13:12:27Z</time>
      </trkpt>
      <trkpt lat="42.97955199999968" lon="-1.3710879999999983">
        <ele>853.810</ele>
        <time>2022-08-24T13:12:30Z</time>
      </trkpt>
      <trkpt lat="42.97957999999968" lon="-1.3711819999999983">
        <ele>854.073</ele>
        <time>2022-08-24T13:12:32Z</time>
      </trkpt>
      <trkpt lat="42.979642999999676" lon="-1.3713899999999983">
        <ele>854.417</ele>
        <time>2022-08-24T13:12:37Z</time>
      </trkpt>
      <trkpt lat="42.97965299999968" lon="-1.3714329999999983">
        <ele>854.856</ele>
        <time>2022-08-24T13:12:38Z</time>
      </trkpt>
      <trkpt lat="42.97970299999968" lon="-1.3715699999999984">
        <ele>855.264</ele>
        <time>2022-08-24T13:12:41Z</time>
      </trkpt>
      <trkpt lat="42.97972899999968" lon="-1.3716599999999983">
        <ele>855.606</ele>
        <time>2022-08-24T13:12:43Z</time>
      </trkpt>
      <trkpt lat="42.97974199999968" lon="-1.3717049999999984">
        <ele>855.616</ele>
        <time>2022-08-24T13:12:44Z</time>
      </trkpt>
      <trkpt lat="42.97975399999968" lon="-1.3717499999999985">
        <ele>855.809</ele>
        <time>2022-08-24T13:12:45Z</time>
      </trkpt>
      <trkpt lat="42.97978199999968" lon="-1.3718409999999985">
        <ele>856.077</ele>
        <time>2022-08-24T13:12:47Z</time>
      </trkpt>
      <trkpt lat="42.97981499999968" lon="-1.3719159999999986">
        <ele>856.427</ele>
        <time>2022-08-24T13:12:49Z</time>
      </trkpt>
      <trkpt lat="42.97982699999968" lon="-1.3719579999999987">
        <ele>856.417</ele>
        <time>2022-08-24T13:12:50Z</time>
      </trkpt>
      <trkpt lat="42.97983899999968" lon="-1.3719989999999986">
        <ele>856.473</ele>
        <time>2022-08-24T13:12:51Z</time>
      </trkpt>
      <trkpt lat="42.97986999999968" lon="-1.3721209999999986">
        <ele>856.875</ele>
        <time>2022-08-24T13:12:54Z</time>
      </trkpt>
      <trkpt lat="42.97987599999968" lon="-1.3721619999999985">
        <ele>857.032</ele>
        <time>2022-08-24T13:12:55Z</time>
      </trkpt>
      <trkpt lat="42.979890999999675" lon="-1.3722079999999985">
        <ele>857.055</ele>
        <time>2022-08-24T13:12:56Z</time>
      </trkpt>
      <trkpt lat="42.97990699999968" lon="-1.3722509999999986">
        <ele>857.089</ele>
        <time>2022-08-24T13:12:57Z</time>
      </trkpt>
      <trkpt lat="42.97991999999968" lon="-1.3722889999999985">
        <ele>857.228</ele>
        <time>2022-08-24T13:12:58Z</time>
      </trkpt>
      <trkpt lat="42.97993199999968" lon="-1.3723309999999986">
        <ele>857.255</ele>
        <time>2022-08-24T13:12:59Z</time>
      </trkpt>
      <trkpt lat="42.979938999999675" lon="-1.3723659999999986">
        <ele>857.607</ele>
        <time>2022-08-24T13:13:00Z</time>
      </trkpt>
      <trkpt lat="42.979946999999676" lon="-1.3723999999999987">
        <ele>857.617</ele>
        <time>2022-08-24T13:13:01Z</time>
      </trkpt>
      <trkpt lat="42.97995699999968" lon="-1.3724339999999988">
        <ele>857.609</ele>
        <time>2022-08-24T13:13:02Z</time>
      </trkpt>
      <trkpt lat="42.979960999999676" lon="-1.3724689999999988">
        <ele>857.646</ele>
        <time>2022-08-24T13:13:03Z</time>
      </trkpt>
      <trkpt lat="42.97994899999968" lon="-1.372494999999999">
        <ele>857.686</ele>
        <time>2022-08-24T13:13:04Z</time>
      </trkpt>
      <trkpt lat="42.97992299999968" lon="-1.372512999999999">
        <ele>857.846</ele>
        <time>2022-08-24T13:13:05Z</time>
      </trkpt>
      <trkpt lat="42.97989199999968" lon="-1.372525999999999">
        <ele>858.272</ele>
        <time>2022-08-24T13:13:06Z</time>
      </trkpt>
      <trkpt lat="42.97986199999968" lon="-1.3725409999999991">
        <ele>858.484</ele>
        <time>2022-08-24T13:13:07Z</time>
      </trkpt>
      <trkpt lat="42.97982799999968" lon="-1.372554999999999">
        <ele>858.461</ele>
        <time>2022-08-24T13:13:08Z</time>
      </trkpt>
      <trkpt lat="42.97979399999968" lon="-1.372570999999999">
        <ele>858.424</ele>
        <time>2022-08-24T13:13:09Z</time>
      </trkpt>
      <trkpt lat="42.97975699999968" lon="-1.3725919999999991">
        <ele>858.468</ele>
        <time>2022-08-24T13:13:10Z</time>
      </trkpt>
      <trkpt lat="42.97973099999968" lon="-1.372611999999999">
        <ele>858.867</ele>
        <time>2022-08-24T13:13:11Z</time>
      </trkpt>
      <trkpt lat="42.97970799999968" lon="-1.372633999999999">
        <ele>858.895</ele>
        <time>2022-08-24T13:13:12Z</time>
      </trkpt>
      <trkpt lat="42.979689999999685" lon="-1.372658999999999">
        <ele>859.049</ele>
        <time>2022-08-24T13:13:13Z</time>
      </trkpt>
      <trkpt lat="42.97967499999969" lon="-1.372683999999999">
        <ele>859.423</ele>
        <time>2022-08-24T13:13:14Z</time>
      </trkpt>
      <trkpt lat="42.97966599999969" lon="-1.372707999999999">
        <ele>859.409</ele>
        <time>2022-08-24T13:13:15Z</time>
      </trkpt>
      <trkpt lat="42.97964899999969" lon="-1.3727329999999989">
        <ele>859.620</ele>
        <time>2022-08-24T13:13:16Z</time>
      </trkpt>
      <trkpt lat="42.97962999999969" lon="-1.3727579999999988">
        <ele>859.680</ele>
        <time>2022-08-24T13:13:17Z</time>
      </trkpt>
      <trkpt lat="42.979613999999685" lon="-1.3727829999999988">
        <ele>859.610</ele>
        <time>2022-08-24T13:13:18Z</time>
      </trkpt>
      <trkpt lat="42.97959599999969" lon="-1.3728099999999988">
        <ele>859.646</ele>
        <time>2022-08-24T13:13:19Z</time>
      </trkpt>
      <trkpt lat="42.979571999999685" lon="-1.3728369999999988">
        <ele>860.088</ele>
        <time>2022-08-24T13:13:20Z</time>
      </trkpt>
      <trkpt lat="42.979540999999685" lon="-1.3728739999999988">
        <ele>860.025</ele>
        <time>2022-08-24T13:13:21Z</time>
      </trkpt>
      <trkpt lat="42.97950599999969" lon="-1.3729099999999987">
        <ele>860.038</ele>
        <time>2022-08-24T13:13:22Z</time>
      </trkpt>
      <trkpt lat="42.979461999999685" lon="-1.3729479999999987">
        <ele>860.022</ele>
        <time>2022-08-24T13:13:23Z</time>
      </trkpt>
      <trkpt lat="42.979416999999685" lon="-1.3729889999999987">
        <ele>859.891</ele>
        <time>2022-08-24T13:13:24Z</time>
      </trkpt>
      <trkpt lat="42.979368999999686" lon="-1.3730339999999988">
        <ele>859.688</ele>
        <time>2022-08-24T13:13:25Z</time>
      </trkpt>
      <trkpt lat="42.979318999999684" lon="-1.3730809999999987">
        <ele>859.624</ele>
        <time>2022-08-24T13:13:26Z</time>
      </trkpt>
      <trkpt lat="42.979264999999685" lon="-1.3731299999999986">
        <ele>859.626</ele>
        <time>2022-08-24T13:13:27Z</time>
      </trkpt>
      <trkpt lat="42.979197999999684" lon="-1.3731889999999987">
        <ele>859.609</ele>
        <time>2022-08-24T13:13:28Z</time>
      </trkpt>
      <trkpt lat="42.97915599999968" lon="-1.3732299999999986">
        <ele>859.469</ele>
        <time>2022-08-24T13:13:29Z</time>
      </trkpt>
      <trkpt lat="42.978994999999685" lon="-1.3733689999999985">
        <ele>858.859</ele>
        <time>2022-08-24T13:13:32Z</time>
      </trkpt>
      <trkpt lat="42.97894299999969" lon="-1.3734159999999984">
        <ele>858.649</ele>
        <time>2022-08-24T13:13:33Z</time>
      </trkpt>
      <trkpt lat="42.97889299999969" lon="-1.3734589999999984">
        <ele>858.475</ele>
        <time>2022-08-24T13:13:34Z</time>
      </trkpt>
      <trkpt lat="42.97884499999969" lon="-1.3735029999999984">
        <ele>858.097</ele>
        <time>2022-08-24T13:13:35Z</time>
      </trkpt>
      <trkpt lat="42.97879999999969" lon="-1.3735439999999983">
        <ele>857.844</ele>
        <time>2022-08-24T13:13:36Z</time>
      </trkpt>
      <trkpt lat="42.978755999999684" lon="-1.3735849999999983">
        <ele>857.627</ele>
        <time>2022-08-24T13:13:37Z</time>
      </trkpt>
      <trkpt lat="42.97871199999968" lon="-1.3736229999999983">
        <ele>857.691</ele>
        <time>2022-08-24T13:13:38Z</time>
      </trkpt>
      <trkpt lat="42.97867299999968" lon="-1.3736609999999982">
        <ele>857.630</ele>
        <time>2022-08-24T13:13:39Z</time>
      </trkpt>
      <trkpt lat="42.97863699999968" lon="-1.3736969999999982">
        <ele>857.624</ele>
        <time>2022-08-24T13:13:40Z</time>
      </trkpt>
      <trkpt lat="42.97860599999968" lon="-1.3737299999999981">
        <ele>857.604</ele>
        <time>2022-08-24T13:13:41Z</time>
      </trkpt>
      <trkpt lat="42.97857899999968" lon="-1.373759999999998">
        <ele>857.614</ele>
        <time>2022-08-24T13:13:42Z</time>
      </trkpt>
      <trkpt lat="42.97855499999967" lon="-1.3737859999999982">
        <ele>857.609</ele>
        <time>2022-08-24T13:13:43Z</time>
      </trkpt>
      <trkpt lat="42.97853299999967" lon="-1.3738089999999983">
        <ele>857.663</ele>
        <time>2022-08-24T13:13:44Z</time>
      </trkpt>
      <trkpt lat="42.97851299999967" lon="-1.3738269999999984">
        <ele>857.863</ele>
        <time>2022-08-24T13:13:45Z</time>
      </trkpt>
      <trkpt lat="42.97849399999967" lon="-1.3738449999999984">
        <ele>857.853</ele>
        <time>2022-08-24T13:13:46Z</time>
      </trkpt>
      <trkpt lat="42.97847799999967" lon="-1.3738659999999985">
        <ele>858.019</ele>
        <time>2022-08-24T13:13:47Z</time>
      </trkpt>
      <trkpt lat="42.97846299999967" lon="-1.3738859999999984">
        <ele>858.091</ele>
        <time>2022-08-24T13:13:48Z</time>
      </trkpt>
      <trkpt lat="42.97844799999967" lon="-1.3739069999999984">
        <ele>858.278</ele>
        <time>2022-08-24T13:13:49Z</time>
      </trkpt>
      <trkpt lat="42.97843399999967" lon="-1.3739269999999983">
        <ele>858.421</ele>
        <time>2022-08-24T13:13:50Z</time>
      </trkpt>
      <trkpt lat="42.97841799999967" lon="-1.3739459999999983">
        <ele>858.625</ele>
        <time>2022-08-24T13:13:51Z</time>
      </trkpt>
      <trkpt lat="42.97839099999967" lon="-1.3739839999999983">
        <ele>858.624</ele>
        <time>2022-08-24T13:13:53Z</time>
      </trkpt>
      <trkpt lat="42.97837699999967" lon="-1.3740079999999983">
        <ele>859.056</ele>
        <time>2022-08-24T13:13:54Z</time>
      </trkpt>
      <trkpt lat="42.97834499999967" lon="-1.3740619999999983">
        <ele>859.459</ele>
        <time>2022-08-24T13:13:57Z</time>
      </trkpt>
      <trkpt lat="42.97833399999967" lon="-1.3740799999999984">
        <ele>859.614</ele>
        <time>2022-08-24T13:13:58Z</time>
      </trkpt>
      <trkpt lat="42.97832399999967" lon="-1.3740969999999983">
        <ele>859.809</ele>
        <time>2022-08-24T13:13:59Z</time>
      </trkpt>
      <trkpt lat="42.978310999999664" lon="-1.3741149999999984">
        <ele>859.866</ele>
        <time>2022-08-24T13:14:00Z</time>
      </trkpt>
      <trkpt lat="42.97826099999966" lon="-1.3741859999999984">
        <ele>860.826</ele>
        <time>2022-08-24T13:14:04Z</time>
      </trkpt>
      <trkpt lat="42.97825099999966" lon="-1.3742039999999984">
        <ele>860.876</ele>
        <time>2022-08-24T13:14:05Z</time>
      </trkpt>
      <trkpt lat="42.97823999999966" lon="-1.3742219999999985">
        <ele>861.232</ele>
        <time>2022-08-24T13:14:06Z</time>
      </trkpt>
      <trkpt lat="42.97822899999966" lon="-1.3742429999999985">
        <ele>861.234</ele>
        <time>2022-08-24T13:14:07Z</time>
      </trkpt>
      <trkpt lat="42.97821799999966" lon="-1.3742619999999985">
        <ele>861.451</ele>
        <time>2022-08-24T13:14:08Z</time>
      </trkpt>
      <trkpt lat="42.97820399999966" lon="-1.3742809999999985">
        <ele>861.474</ele>
        <time>2022-08-24T13:14:09Z</time>
      </trkpt>
      <trkpt lat="42.978192999999656" lon="-1.3742989999999986">
        <ele>861.658</ele>
        <time>2022-08-24T13:14:10Z</time>
      </trkpt>
      <trkpt lat="42.978181999999656" lon="-1.3743169999999987">
        <ele>861.867</ele>
        <time>2022-08-24T13:14:11Z</time>
      </trkpt>
      <trkpt lat="42.97816999999966" lon="-1.3743369999999986">
        <ele>862.036</ele>
        <time>2022-08-24T13:14:12Z</time>
      </trkpt>
      <trkpt lat="42.97815899999966" lon="-1.3743569999999985">
        <ele>862.217</ele>
        <time>2022-08-24T13:14:13Z</time>
      </trkpt>
      <trkpt lat="42.978147999999656" lon="-1.3743779999999985">
        <ele>862.418</ele>
        <time>2022-08-24T13:14:14Z</time>
      </trkpt>
      <trkpt lat="42.978139999999655" lon="-1.3744009999999987">
        <ele>862.409</ele>
        <time>2022-08-24T13:14:15Z</time>
      </trkpt>
      <trkpt lat="42.97813099999966" lon="-1.3744219999999987">
        <ele>862.684</ele>
        <time>2022-08-24T13:14:16Z</time>
      </trkpt>
      <trkpt lat="42.97811899999966" lon="-1.3744409999999987">
        <ele>862.864</ele>
        <time>2022-08-24T13:14:17Z</time>
      </trkpt>
      <trkpt lat="42.97810499999966" lon="-1.3744599999999987">
        <ele>863.054</ele>
        <time>2022-08-24T13:14:18Z</time>
      </trkpt>
      <trkpt lat="42.978091999999656" lon="-1.3744769999999986">
        <ele>863.290</ele>
        <time>2022-08-24T13:14:19Z</time>
      </trkpt>
      <trkpt lat="42.978080999999655" lon="-1.3744949999999987">
        <ele>863.432</ele>
        <time>2022-08-24T13:14:20Z</time>
      </trkpt>
      <trkpt lat="42.978069999999654" lon="-1.3745139999999987">
        <ele>863.689</ele>
        <time>2022-08-24T13:14:21Z</time>
      </trkpt>
      <trkpt lat="42.97806199999965" lon="-1.3745339999999986">
        <ele>863.862</ele>
        <time>2022-08-24T13:14:22Z</time>
      </trkpt>
      <trkpt lat="42.97805399999965" lon="-1.3745539999999985">
        <ele>864.086</ele>
        <time>2022-08-24T13:14:23Z</time>
      </trkpt>
      <trkpt lat="42.97804499999965" lon="-1.3745739999999984">
        <ele>864.255</ele>
        <time>2022-08-24T13:14:24Z</time>
      </trkpt>
      <trkpt lat="42.97803999999965" lon="-1.3745959999999984">
        <ele>864.438</ele>
        <time>2022-08-24T13:14:25Z</time>
      </trkpt>
      <trkpt lat="42.978035999999655" lon="-1.3746169999999984">
        <ele>864.470</ele>
        <time>2022-08-24T13:14:26Z</time>
      </trkpt>
      <trkpt lat="42.97802899999966" lon="-1.3746389999999984">
        <ele>864.817</ele>
        <time>2022-08-24T13:14:27Z</time>
      </trkpt>
      <trkpt lat="42.97802499999966" lon="-1.3746619999999985">
        <ele>864.809</ele>
        <time>2022-08-24T13:14:28Z</time>
      </trkpt>
      <trkpt lat="42.97801999999966" lon="-1.3746839999999985">
        <ele>865.034</ele>
        <time>2022-08-24T13:14:29Z</time>
      </trkpt>
      <trkpt lat="42.97801199999966" lon="-1.3747069999999986">
        <ele>865.234</ele>
        <time>2022-08-24T13:14:30Z</time>
      </trkpt>
      <trkpt lat="42.97799999999966" lon="-1.3747299999999987">
        <ele>865.444</ele>
        <time>2022-08-24T13:14:31Z</time>
      </trkpt>
      <trkpt lat="42.97799099999966" lon="-1.3747499999999986">
        <ele>865.410</ele>
        <time>2022-08-24T13:14:32Z</time>
      </trkpt>
      <trkpt lat="42.97798599999966" lon="-1.3747709999999986">
        <ele>865.682</ele>
        <time>2022-08-24T13:14:33Z</time>
      </trkpt>
      <trkpt lat="42.97798199999966" lon="-1.3747939999999987">
        <ele>865.849</ele>
        <time>2022-08-24T13:14:34Z</time>
      </trkpt>
      <trkpt lat="42.977975999999664" lon="-1.3748179999999988">
        <ele>865.872</ele>
        <time>2022-08-24T13:14:35Z</time>
      </trkpt>
      <trkpt lat="42.977969999999665" lon="-1.3748399999999987">
        <ele>866.076</ele>
        <time>2022-08-24T13:14:36Z</time>
      </trkpt>
      <trkpt lat="42.97796099999967" lon="-1.3748639999999988">
        <ele>866.455</ele>
        <time>2022-08-24T13:14:37Z</time>
      </trkpt>
      <trkpt lat="42.97795499999967" lon="-1.3748789999999989">
        <ele>866.826</ele>
        <time>2022-08-24T13:14:38Z</time>
      </trkpt>
      <trkpt lat="42.97794899999967" lon="-1.3748979999999988">
        <ele>867.047</ele>
        <time>2022-08-24T13:14:39Z</time>
      </trkpt>
      <trkpt lat="42.97794099999967" lon="-1.3749149999999988">
        <ele>867.211</ele>
        <time>2022-08-24T13:14:40Z</time>
      </trkpt>
      <trkpt lat="42.97793499999967" lon="-1.3749369999999987">
        <ele>867.609</ele>
        <time>2022-08-24T13:14:41Z</time>
      </trkpt>
      <trkpt lat="42.97792799999967" lon="-1.3749569999999987">
        <ele>868.063</ele>
        <time>2022-08-24T13:14:42Z</time>
      </trkpt>
      <trkpt lat="42.977920999999675" lon="-1.3749769999999986">
        <ele>868.053</ele>
        <time>2022-08-24T13:14:43Z</time>
      </trkpt>
      <trkpt lat="42.97791399999968" lon="-1.3749959999999986">
        <ele>868.073</ele>
        <time>2022-08-24T13:14:44Z</time>
      </trkpt>
      <trkpt lat="42.97790599999968" lon="-1.3750139999999986">
        <ele>868.049</ele>
        <time>2022-08-24T13:14:45Z</time>
      </trkpt>
      <trkpt lat="42.977900999999676" lon="-1.3750339999999985">
        <ele>868.251</ele>
        <time>2022-08-24T13:14:46Z</time>
      </trkpt>
      <trkpt lat="42.977897999999676" lon="-1.3750549999999986">
        <ele>868.448</ele>
        <time>2022-08-24T13:14:47Z</time>
      </trkpt>
      <trkpt lat="42.977895999999674" lon="-1.3750769999999986">
        <ele>868.471</ele>
        <time>2022-08-24T13:14:48Z</time>
      </trkpt>
      <trkpt lat="42.97789099999967" lon="-1.3750999999999987">
        <ele>868.685</ele>
        <time>2022-08-24T13:14:49Z</time>
      </trkpt>
      <trkpt lat="42.977884999999674" lon="-1.3751189999999986">
        <ele>868.664</ele>
        <time>2022-08-24T13:14:50Z</time>
      </trkpt>
      <trkpt lat="42.97788099999968" lon="-1.3751359999999986">
        <ele>869.047</ele>
        <time>2022-08-24T13:14:51Z</time>
      </trkpt>
      <trkpt lat="42.97787699999968" lon="-1.3751529999999985">
        <ele>869.029</ele>
        <time>2022-08-24T13:14:52Z</time>
      </trkpt>
      <trkpt lat="42.97786999999968" lon="-1.3751709999999986">
        <ele>869.221</ele>
        <time>2022-08-24T13:14:53Z</time>
      </trkpt>
      <trkpt lat="42.97786299999969" lon="-1.3751879999999985">
        <ele>869.409</ele>
        <time>2022-08-24T13:14:54Z</time>
      </trkpt>
      <trkpt lat="42.97785399999969" lon="-1.3752059999999986">
        <ele>869.855</ele>
        <time>2022-08-24T13:14:55Z</time>
      </trkpt>
      <trkpt lat="42.97784799999969" lon="-1.3752249999999986">
        <ele>870.075</ele>
        <time>2022-08-24T13:14:56Z</time>
      </trkpt>
      <trkpt lat="42.97784199999969" lon="-1.3752449999999985">
        <ele>870.075</ele>
        <time>2022-08-24T13:14:57Z</time>
      </trkpt>
      <trkpt lat="42.97783599999969" lon="-1.3752649999999984">
        <ele>870.471</ele>
        <time>2022-08-24T13:14:58Z</time>
      </trkpt>
      <trkpt lat="42.977828999999694" lon="-1.3752849999999983">
        <ele>870.423</ele>
        <time>2022-08-24T13:14:59Z</time>
      </trkpt>
      <trkpt lat="42.97781899999969" lon="-1.3753039999999983">
        <ele>870.640</ele>
        <time>2022-08-24T13:15:00Z</time>
      </trkpt>
      <trkpt lat="42.97781299999969" lon="-1.3753219999999984">
        <ele>870.843</ele>
        <time>2022-08-24T13:15:01Z</time>
      </trkpt>
      <trkpt lat="42.977805999999696" lon="-1.3753409999999984">
        <ele>871.027</ele>
        <time>2022-08-24T13:15:02Z</time>
      </trkpt>
      <trkpt lat="42.977794999999695" lon="-1.3753619999999984">
        <ele>871.226</ele>
        <time>2022-08-24T13:15:03Z</time>
      </trkpt>
      <trkpt lat="42.9777879999997" lon="-1.3753759999999984">
        <ele>871.249</ele>
        <time>2022-08-24T13:15:04Z</time>
      </trkpt>
      <trkpt lat="42.9777799999997" lon="-1.3753919999999984">
        <ele>871.402</ele>
        <time>2022-08-24T13:15:05Z</time>
      </trkpt>
      <trkpt lat="42.9777739999997" lon="-1.3754089999999983">
        <ele>871.422</ele>
        <time>2022-08-24T13:15:06Z</time>
      </trkpt>
      <trkpt lat="42.9777709999997" lon="-1.3754229999999983">
        <ele>871.609</ele>
        <time>2022-08-24T13:15:07Z</time>
      </trkpt>
      <trkpt lat="42.9777699999997" lon="-1.3754389999999983">
        <ele>871.875</ele>
        <time>2022-08-24T13:15:08Z</time>
      </trkpt>
      <trkpt lat="42.9777679999997" lon="-1.3754579999999983">
        <ele>872.085</ele>
        <time>2022-08-24T13:15:09Z</time>
      </trkpt>
      <trkpt lat="42.977757999999696" lon="-1.3754789999999983">
        <ele>872.215</ele>
        <time>2022-08-24T13:15:10Z</time>
      </trkpt>
      <trkpt lat="42.977752999999694" lon="-1.3754989999999983">
        <ele>872.461</ele>
        <time>2022-08-24T13:15:11Z</time>
      </trkpt>
      <trkpt lat="42.97774799999969" lon="-1.3755169999999983">
        <ele>872.623</ele>
        <time>2022-08-24T13:15:12Z</time>
      </trkpt>
      <trkpt lat="42.97774299999969" lon="-1.3755329999999983">
        <ele>872.890</ele>
        <time>2022-08-24T13:15:13Z</time>
      </trkpt>
      <trkpt lat="42.97773699999969" lon="-1.3755479999999984">
        <ele>873.043</ele>
        <time>2022-08-24T13:15:14Z</time>
      </trkpt>
      <trkpt lat="42.97772799999969" lon="-1.3755639999999985">
        <ele>873.087</ele>
        <time>2022-08-24T13:15:15Z</time>
      </trkpt>
      <trkpt lat="42.977718999999695" lon="-1.3755819999999985">
        <ele>873.046</ele>
        <time>2022-08-24T13:15:16Z</time>
      </trkpt>
      <trkpt lat="42.977712999999696" lon="-1.3755949999999986">
        <ele>873.293</ele>
        <time>2022-08-24T13:15:17Z</time>
      </trkpt>
      <trkpt lat="42.977704999999695" lon="-1.3756109999999986">
        <ele>873.265</ele>
        <time>2022-08-24T13:15:18Z</time>
      </trkpt>
      <trkpt lat="42.97769999999969" lon="-1.3756279999999985">
        <ele>873.421</ele>
        <time>2022-08-24T13:15:19Z</time>
      </trkpt>
      <trkpt lat="42.977690999999695" lon="-1.3756459999999986">
        <ele>873.409</ele>
        <time>2022-08-24T13:15:20Z</time>
      </trkpt>
      <trkpt lat="42.977681999999696" lon="-1.3756619999999986">
        <ele>873.660</ele>
        <time>2022-08-24T13:15:21Z</time>
      </trkpt>
      <trkpt lat="42.9776729999997" lon="-1.3756789999999985">
        <ele>873.880</ele>
        <time>2022-08-24T13:15:22Z</time>
      </trkpt>
      <trkpt lat="42.9776619999997" lon="-1.3756969999999986">
        <ele>873.860</ele>
        <time>2022-08-24T13:15:23Z</time>
      </trkpt>
      <trkpt lat="42.97765199999969" lon="-1.3757089999999985">
        <ele>874.056</ele>
        <time>2022-08-24T13:15:24Z</time>
      </trkpt>
      <trkpt lat="42.977639999999695" lon="-1.3757289999999984">
        <ele>874.048</ele>
        <time>2022-08-24T13:15:25Z</time>
      </trkpt>
      <trkpt lat="42.977634999999694" lon="-1.3757449999999984">
        <ele>874.295</ele>
        <time>2022-08-24T13:15:26Z</time>
      </trkpt>
      <trkpt lat="42.9776279999997" lon="-1.3757649999999984">
        <ele>874.238</ele>
        <time>2022-08-24T13:15:27Z</time>
      </trkpt>
      <trkpt lat="42.977617999999694" lon="-1.3757879999999985">
        <ele>874.212</ele>
        <time>2022-08-24T13:15:28Z</time>
      </trkpt>
      <trkpt lat="42.977611999999695" lon="-1.3758069999999984">
        <ele>874.461</ele>
        <time>2022-08-24T13:15:29Z</time>
      </trkpt>
      <trkpt lat="42.977608999999696" lon="-1.3758249999999985">
        <ele>874.458</ele>
        <time>2022-08-24T13:15:30Z</time>
      </trkpt>
      <trkpt lat="42.977600999999694" lon="-1.3758459999999986">
        <ele>874.452</ele>
        <time>2022-08-24T13:15:31Z</time>
      </trkpt>
      <trkpt lat="42.977594999999695" lon="-1.3758619999999986">
        <ele>874.417</ele>
        <time>2022-08-24T13:15:32Z</time>
      </trkpt>
      <trkpt lat="42.9775879999997" lon="-1.3758809999999986">
        <ele>874.609</ele>
        <time>2022-08-24T13:15:33Z</time>
      </trkpt>
      <trkpt lat="42.9775819999997" lon="-1.3758959999999987">
        <ele>874.696</ele>
        <time>2022-08-24T13:15:34Z</time>
      </trkpt>
      <trkpt lat="42.9775749999997" lon="-1.3759149999999987">
        <ele>874.876</ele>
        <time>2022-08-24T13:15:35Z</time>
      </trkpt>
      <trkpt lat="42.9775669999997" lon="-1.3759349999999986">
        <ele>875.016</ele>
        <time>2022-08-24T13:15:36Z</time>
      </trkpt>
      <trkpt lat="42.9775589999997" lon="-1.3759539999999986">
        <ele>875.032</ele>
        <time>2022-08-24T13:15:37Z</time>
      </trkpt>
      <trkpt lat="42.9775499999997" lon="-1.3759689999999987">
        <ele>875.254</ele>
        <time>2022-08-24T13:15:38Z</time>
      </trkpt>
      <trkpt lat="42.9775419999997" lon="-1.3759869999999987">
        <ele>875.431</ele>
        <time>2022-08-24T13:15:39Z</time>
      </trkpt>
      <trkpt lat="42.977534999999705" lon="-1.3760069999999986">
        <ele>875.434</ele>
        <time>2022-08-24T13:15:40Z</time>
      </trkpt>
      <trkpt lat="42.977523999999704" lon="-1.3760269999999986">
        <ele>875.648</ele>
        <time>2022-08-24T13:15:41Z</time>
      </trkpt>
      <trkpt lat="42.9775139999997" lon="-1.3760419999999987">
        <ele>875.677</ele>
        <time>2022-08-24T13:15:42Z</time>
      </trkpt>
      <trkpt lat="42.9775059999997" lon="-1.3760589999999986">
        <ele>875.637</ele>
        <time>2022-08-24T13:15:43Z</time>
      </trkpt>
      <trkpt lat="42.9774979999997" lon="-1.3760729999999985">
        <ele>875.849</ele>
        <time>2022-08-24T13:15:44Z</time>
      </trkpt>
      <trkpt lat="42.9774859999997" lon="-1.3760879999999986">
        <ele>875.813</ele>
        <time>2022-08-24T13:15:45Z</time>
      </trkpt>
      <trkpt lat="42.9774739999997" lon="-1.3761059999999987">
        <ele>876.009</ele>
        <time>2022-08-24T13:15:46Z</time>
      </trkpt>
      <trkpt lat="42.9774679999997" lon="-1.3761239999999988">
        <ele>876.274</ele>
        <time>2022-08-24T13:15:47Z</time>
      </trkpt>
      <trkpt lat="42.97746099999971" lon="-1.3761499999999989">
        <ele>876.284</ele>
        <time>2022-08-24T13:15:48Z</time>
      </trkpt>
      <trkpt lat="42.97745499999971" lon="-1.376164999999999">
        <ele>876.284</ele>
        <time>2022-08-24T13:15:49Z</time>
      </trkpt>
      <trkpt lat="42.97744799999971" lon="-1.376183999999999">
        <ele>876.630</ele>
        <time>2022-08-24T13:15:50Z</time>
      </trkpt>
      <trkpt lat="42.97743899999971" lon="-1.376204999999999">
        <ele>876.822</ele>
        <time>2022-08-24T13:15:51Z</time>
      </trkpt>
      <trkpt lat="42.97743099999971" lon="-1.376219999999999">
        <ele>877.049</ele>
        <time>2022-08-24T13:15:52Z</time>
      </trkpt>
      <trkpt lat="42.97741899999971" lon="-1.3762409999999992">
        <ele>877.212</ele>
        <time>2022-08-24T13:15:53Z</time>
      </trkpt>
      <trkpt lat="42.977412999999714" lon="-1.3762569999999992">
        <ele>877.286</ele>
        <time>2022-08-24T13:15:54Z</time>
      </trkpt>
      <trkpt lat="42.977403999999716" lon="-1.376273999999999">
        <ele>877.465</ele>
        <time>2022-08-24T13:15:55Z</time>
      </trkpt>
      <trkpt lat="42.97739499999972" lon="-1.376295999999999">
        <ele>877.261</ele>
        <time>2022-08-24T13:15:56Z</time>
      </trkpt>
      <trkpt lat="42.977386999999716" lon="-1.376314999999999">
        <ele>877.221</ele>
        <time>2022-08-24T13:15:57Z</time>
      </trkpt>
      <trkpt lat="42.97737999999972" lon="-1.376327999999999">
        <ele>877.413</ele>
        <time>2022-08-24T13:15:58Z</time>
      </trkpt>
      <trkpt lat="42.97737399999972" lon="-1.376347999999999">
        <ele>877.409</ele>
        <time>2022-08-24T13:15:59Z</time>
      </trkpt>
      <trkpt lat="42.97736799999972" lon="-1.376366999999999">
        <ele>877.617</ele>
        <time>2022-08-24T13:16:00Z</time>
      </trkpt>
      <trkpt lat="42.97735799999972" lon="-1.376390999999999">
        <ele>877.657</ele>
        <time>2022-08-24T13:16:01Z</time>
      </trkpt>
      <trkpt lat="42.97735399999972" lon="-1.376407999999999">
        <ele>877.867</ele>
        <time>2022-08-24T13:16:02Z</time>
      </trkpt>
      <trkpt lat="42.97734399999972" lon="-1.376431999999999">
        <ele>877.813</ele>
        <time>2022-08-24T13:16:03Z</time>
      </trkpt>
      <trkpt lat="42.97733699999972" lon="-1.376448999999999">
        <ele>878.085</ele>
        <time>2022-08-24T13:16:04Z</time>
      </trkpt>
      <trkpt lat="42.97732899999972" lon="-1.3764689999999988">
        <ele>878.242</ele>
        <time>2022-08-24T13:16:05Z</time>
      </trkpt>
      <trkpt lat="42.97731699999972" lon="-1.3764859999999988">
        <ele>878.255</ele>
        <time>2022-08-24T13:16:06Z</time>
      </trkpt>
      <trkpt lat="42.97730599999972" lon="-1.3765069999999988">
        <ele>878.229</ele>
        <time>2022-08-24T13:16:07Z</time>
      </trkpt>
      <trkpt lat="42.97729799999972" lon="-1.3765289999999988">
        <ele>878.458</ele>
        <time>2022-08-24T13:16:08Z</time>
      </trkpt>
      <trkpt lat="42.97728999999972" lon="-1.3765489999999987">
        <ele>878.457</ele>
        <time>2022-08-24T13:16:09Z</time>
      </trkpt>
      <trkpt lat="42.97728299999972" lon="-1.3765709999999987">
        <ele>878.600</ele>
        <time>2022-08-24T13:16:10Z</time>
      </trkpt>
      <trkpt lat="42.97727199999972" lon="-1.3765969999999987">
        <ele>878.620</ele>
        <time>2022-08-24T13:16:11Z</time>
      </trkpt>
      <trkpt lat="42.97726399999972" lon="-1.3766129999999988">
        <ele>878.809</ele>
        <time>2022-08-24T13:16:12Z</time>
      </trkpt>
      <trkpt lat="42.97725299999972" lon="-1.3766369999999988">
        <ele>878.876</ele>
        <time>2022-08-24T13:16:13Z</time>
      </trkpt>
      <trkpt lat="42.97724699999972" lon="-1.3766529999999988">
        <ele>879.086</ele>
        <time>2022-08-24T13:16:14Z</time>
      </trkpt>
      <trkpt lat="42.97724099999972" lon="-1.3766729999999987">
        <ele>879.086</ele>
        <time>2022-08-24T13:16:15Z</time>
      </trkpt>
      <trkpt lat="42.977233999999726" lon="-1.3766939999999988">
        <ele>879.212</ele>
        <time>2022-08-24T13:16:16Z</time>
      </trkpt>
      <trkpt lat="42.97722499999973" lon="-1.3767129999999987">
        <ele>879.234</ele>
        <time>2022-08-24T13:16:17Z</time>
      </trkpt>
      <trkpt lat="42.97721299999973" lon="-1.3767379999999987">
        <ele>879.281</ele>
        <time>2022-08-24T13:16:18Z</time>
      </trkpt>
      <trkpt lat="42.97720699999973" lon="-1.3767519999999986">
        <ele>879.454</ele>
        <time>2022-08-24T13:16:19Z</time>
      </trkpt>
      <trkpt lat="42.97719299999973" lon="-1.3767719999999986">
        <ele>879.428</ele>
        <time>2022-08-24T13:16:20Z</time>
      </trkpt>
      <trkpt lat="42.97718299999973" lon="-1.3767929999999986">
        <ele>879.667</ele>
        <time>2022-08-24T13:16:21Z</time>
      </trkpt>
      <trkpt lat="42.97717699999973" lon="-1.3768129999999985">
        <ele>879.695</ele>
        <time>2022-08-24T13:16:22Z</time>
      </trkpt>
      <trkpt lat="42.977168999999726" lon="-1.3768349999999985">
        <ele>879.849</ele>
        <time>2022-08-24T13:16:23Z</time>
      </trkpt>
      <trkpt lat="42.977160999999725" lon="-1.3768519999999984">
        <ele>879.823</ele>
        <time>2022-08-24T13:16:24Z</time>
      </trkpt>
      <trkpt lat="42.97714199999972" lon="-1.3768959999999983">
        <ele>880.009</ele>
        <time>2022-08-24T13:16:26Z</time>
      </trkpt>
      <trkpt lat="42.977107999999724" lon="-1.3769709999999984">
        <ele>880.410</ele>
        <time>2022-08-24T13:16:30Z</time>
      </trkpt>
      <trkpt lat="42.97708999999973" lon="-1.3770159999999985">
        <ele>880.880</ele>
        <time>2022-08-24T13:16:32Z</time>
      </trkpt>
      <trkpt lat="42.977059999999724" lon="-1.3770949999999984">
        <ele>881.220</ele>
        <time>2022-08-24T13:16:36Z</time>
      </trkpt>
      <trkpt lat="42.97705299999973" lon="-1.3771159999999985">
        <ele>881.426</ele>
        <time>2022-08-24T13:16:37Z</time>
      </trkpt>
      <trkpt lat="42.97704399999973" lon="-1.3771349999999984">
        <ele>881.438</ele>
        <time>2022-08-24T13:16:38Z</time>
      </trkpt>
      <trkpt lat="42.977033999999726" lon="-1.3771549999999984">
        <ele>881.455</ele>
        <time>2022-08-24T13:16:39Z</time>
      </trkpt>
      <trkpt lat="42.97702399999972" lon="-1.3771729999999984">
        <ele>881.668</ele>
        <time>2022-08-24T13:16:40Z</time>
      </trkpt>
      <trkpt lat="42.977011999999725" lon="-1.3771969999999985">
        <ele>881.882</ele>
        <time>2022-08-24T13:16:41Z</time>
      </trkpt>
      <trkpt lat="42.97700499999973" lon="-1.3772189999999984">
        <ele>882.091</ele>
        <time>2022-08-24T13:16:42Z</time>
      </trkpt>
      <trkpt lat="42.97699899999973" lon="-1.3772379999999984">
        <ele>882.236</ele>
        <time>2022-08-24T13:16:43Z</time>
      </trkpt>
      <trkpt lat="42.97699299999973" lon="-1.3772539999999984">
        <ele>882.217</ele>
        <time>2022-08-24T13:16:44Z</time>
      </trkpt>
      <trkpt lat="42.97698299999973" lon="-1.3772719999999985">
        <ele>882.418</ele>
        <time>2022-08-24T13:16:45Z</time>
      </trkpt>
      <trkpt lat="42.976972999999724" lon="-1.3772959999999985">
        <ele>882.409</ele>
        <time>2022-08-24T13:16:46Z</time>
      </trkpt>
      <trkpt lat="42.97696599999973" lon="-1.3773079999999984">
        <ele>882.624</ele>
        <time>2022-08-24T13:16:47Z</time>
      </trkpt>
      <trkpt lat="42.97695699999973" lon="-1.3773269999999984">
        <ele>882.654</ele>
        <time>2022-08-24T13:16:48Z</time>
      </trkpt>
      <trkpt lat="42.97694899999973" lon="-1.3773459999999984">
        <ele>882.854</ele>
        <time>2022-08-24T13:16:49Z</time>
      </trkpt>
      <trkpt lat="42.97694099999973" lon="-1.3773659999999983">
        <ele>883.070</ele>
        <time>2022-08-24T13:16:50Z</time>
      </trkpt>
      <trkpt lat="42.97693099999972" lon="-1.3773909999999983">
        <ele>883.012</ele>
        <time>2022-08-24T13:16:51Z</time>
      </trkpt>
      <trkpt lat="42.97692399999973" lon="-1.3774069999999983">
        <ele>883.229</ele>
        <time>2022-08-24T13:16:52Z</time>
      </trkpt>
      <trkpt lat="42.976915999999726" lon="-1.3774249999999983">
        <ele>883.262</ele>
        <time>2022-08-24T13:16:53Z</time>
      </trkpt>
      <trkpt lat="42.976904999999725" lon="-1.3774449999999983">
        <ele>883.676</ele>
        <time>2022-08-24T13:16:54Z</time>
      </trkpt>
      <trkpt lat="42.976895999999726" lon="-1.3774659999999983">
        <ele>884.075</ele>
        <time>2022-08-24T13:16:55Z</time>
      </trkpt>
      <trkpt lat="42.976884999999726" lon="-1.3774889999999984">
        <ele>884.229</ele>
        <time>2022-08-24T13:16:56Z</time>
      </trkpt>
      <trkpt lat="42.97687799999973" lon="-1.3775019999999984">
        <ele>884.400</ele>
        <time>2022-08-24T13:16:57Z</time>
      </trkpt>
      <trkpt lat="42.97686699999973" lon="-1.3775239999999984">
        <ele>884.420</ele>
        <time>2022-08-24T13:16:58Z</time>
      </trkpt>
      <trkpt lat="42.97685599999973" lon="-1.3775379999999984">
        <ele>884.609</ele>
        <time>2022-08-24T13:16:59Z</time>
      </trkpt>
      <trkpt lat="42.97684399999973" lon="-1.3775559999999984">
        <ele>884.823</ele>
        <time>2022-08-24T13:17:00Z</time>
      </trkpt>
      <trkpt lat="42.97683399999973" lon="-1.3775759999999984">
        <ele>884.873</ele>
        <time>2022-08-24T13:17:01Z</time>
      </trkpt>
      <trkpt lat="42.97682499999973" lon="-1.3775919999999984">
        <ele>884.863</ele>
        <time>2022-08-24T13:17:02Z</time>
      </trkpt>
      <trkpt lat="42.976814999999725" lon="-1.3776129999999984">
        <ele>884.879</ele>
        <time>2022-08-24T13:17:03Z</time>
      </trkpt>
      <trkpt lat="42.976805999999726" lon="-1.3776339999999985">
        <ele>885.081</ele>
        <time>2022-08-24T13:17:04Z</time>
      </trkpt>
      <trkpt lat="42.97679699999973" lon="-1.3776549999999985">
        <ele>885.088</ele>
        <time>2022-08-24T13:17:05Z</time>
      </trkpt>
      <trkpt lat="42.97678899999973" lon="-1.3776769999999985">
        <ele>885.021</ele>
        <time>2022-08-24T13:17:06Z</time>
      </trkpt>
      <trkpt lat="42.97677899999972" lon="-1.3776949999999986">
        <ele>885.255</ele>
        <time>2022-08-24T13:17:07Z</time>
      </trkpt>
      <trkpt lat="42.976766999999725" lon="-1.3777199999999985">
        <ele>885.264</ele>
        <time>2022-08-24T13:17:08Z</time>
      </trkpt>
      <trkpt lat="42.97675999999973" lon="-1.3777349999999986">
        <ele>885.869</ele>
        <time>2022-08-24T13:17:09Z</time>
      </trkpt>
      <trkpt lat="42.97674899999973" lon="-1.3777529999999987">
        <ele>885.804</ele>
        <time>2022-08-24T13:17:10Z</time>
      </trkpt>
      <trkpt lat="42.97673499999973" lon="-1.3777759999999988">
        <ele>886.224</ele>
        <time>2022-08-24T13:17:11Z</time>
      </trkpt>
      <trkpt lat="42.97672699999973" lon="-1.3777969999999988">
        <ele>886.409</ele>
        <time>2022-08-24T13:17:12Z</time>
      </trkpt>
      <trkpt lat="42.97671999999973" lon="-1.3778179999999989">
        <ele>886.627</ele>
        <time>2022-08-24T13:17:13Z</time>
      </trkpt>
      <trkpt lat="42.97671399999973" lon="-1.3778349999999988">
        <ele>886.857</ele>
        <time>2022-08-24T13:17:14Z</time>
      </trkpt>
      <trkpt lat="42.97670399999973" lon="-1.3778549999999987">
        <ele>886.827</ele>
        <time>2022-08-24T13:17:15Z</time>
      </trkpt>
      <trkpt lat="42.97669799999973" lon="-1.3778769999999987">
        <ele>887.223</ele>
        <time>2022-08-24T13:17:16Z</time>
      </trkpt>
      <trkpt lat="42.97669099999973" lon="-1.3778979999999987">
        <ele>887.215</ele>
        <time>2022-08-24T13:17:17Z</time>
      </trkpt>
      <trkpt lat="42.976681999999734" lon="-1.3779159999999988">
        <ele>887.472</ele>
        <time>2022-08-24T13:17:18Z</time>
      </trkpt>
      <trkpt lat="42.97667399999973" lon="-1.3779289999999988">
        <ele>887.635</ele>
        <time>2022-08-24T13:17:19Z</time>
      </trkpt>
      <trkpt lat="42.97666599999973" lon="-1.3779509999999988">
        <ele>887.829</ele>
        <time>2022-08-24T13:17:20Z</time>
      </trkpt>
      <trkpt lat="42.97665699999973" lon="-1.3779729999999988">
        <ele>888.268</ele>
        <time>2022-08-24T13:17:21Z</time>
      </trkpt>
      <trkpt lat="42.976647999999734" lon="-1.3779949999999987">
        <ele>888.446</ele>
        <time>2022-08-24T13:17:22Z</time>
      </trkpt>
      <trkpt lat="42.976635999999736" lon="-1.3780199999999987">
        <ele>888.488</ele>
        <time>2022-08-24T13:17:23Z</time>
      </trkpt>
      <trkpt lat="42.97663199999974" lon="-1.3780379999999988">
        <ele>888.616</ele>
        <time>2022-08-24T13:17:24Z</time>
      </trkpt>
      <trkpt lat="42.97662299999974" lon="-1.3780589999999988">
        <ele>888.609</ele>
        <time>2022-08-24T13:17:25Z</time>
      </trkpt>
      <trkpt lat="42.97661199999974" lon="-1.378084999999999">
        <ele>888.875</ele>
        <time>2022-08-24T13:17:26Z</time>
      </trkpt>
      <trkpt lat="42.97660199999974" lon="-1.378105999999999">
        <ele>889.045</ele>
        <time>2022-08-24T13:17:27Z</time>
      </trkpt>
      <trkpt lat="42.97659299999974" lon="-1.3781259999999989">
        <ele>889.245</ele>
        <time>2022-08-24T13:17:28Z</time>
      </trkpt>
      <trkpt lat="42.97658699999974" lon="-1.3781419999999989">
        <ele>889.481</ele>
        <time>2022-08-24T13:17:29Z</time>
      </trkpt>
      <trkpt lat="42.97657799999974" lon="-1.3781609999999989">
        <ele>889.623</ele>
        <time>2022-08-24T13:17:30Z</time>
      </trkpt>
      <trkpt lat="42.97656799999974" lon="-1.3781849999999989">
        <ele>889.850</ele>
        <time>2022-08-24T13:17:31Z</time>
      </trkpt>
      <trkpt lat="42.97655899999974" lon="-1.3782049999999988">
        <ele>890.063</ele>
        <time>2022-08-24T13:17:32Z</time>
      </trkpt>
      <trkpt lat="42.97655299999974" lon="-1.3782209999999988">
        <ele>890.087</ele>
        <time>2022-08-24T13:17:33Z</time>
      </trkpt>
      <trkpt lat="42.97654399999974" lon="-1.3782419999999989">
        <ele>890.226</ele>
        <time>2022-08-24T13:17:34Z</time>
      </trkpt>
      <trkpt lat="42.976536999999745" lon="-1.378264999999999">
        <ele>890.477</ele>
        <time>2022-08-24T13:17:35Z</time>
      </trkpt>
      <trkpt lat="42.97652999999975" lon="-1.378285999999999">
        <ele>890.661</ele>
        <time>2022-08-24T13:17:36Z</time>
      </trkpt>
      <trkpt lat="42.97652299999975" lon="-1.378303999999999">
        <ele>890.827</ele>
        <time>2022-08-24T13:17:37Z</time>
      </trkpt>
      <trkpt lat="42.976515999999755" lon="-1.378325999999999">
        <ele>890.809</ele>
        <time>2022-08-24T13:17:38Z</time>
      </trkpt>
      <trkpt lat="42.976506999999756" lon="-1.3783439999999991">
        <ele>891.048</ele>
        <time>2022-08-24T13:17:39Z</time>
      </trkpt>
      <trkpt lat="42.976495999999756" lon="-1.378360999999999">
        <ele>891.058</ele>
        <time>2022-08-24T13:17:40Z</time>
      </trkpt>
      <trkpt lat="42.97648599999975" lon="-1.3783789999999991">
        <ele>891.038</ele>
        <time>2022-08-24T13:17:41Z</time>
      </trkpt>
      <trkpt lat="42.976476999999754" lon="-1.3783969999999992">
        <ele>891.254</ele>
        <time>2022-08-24T13:17:42Z</time>
      </trkpt>
      <trkpt lat="42.97646699999975" lon="-1.3784149999999993">
        <ele>891.236</ele>
        <time>2022-08-24T13:17:43Z</time>
      </trkpt>
      <trkpt lat="42.97645599999975" lon="-1.3784349999999992">
        <ele>891.263</ele>
        <time>2022-08-24T13:17:44Z</time>
      </trkpt>
      <trkpt lat="42.97644799999975" lon="-1.3784539999999992">
        <ele>891.476</ele>
        <time>2022-08-24T13:17:45Z</time>
      </trkpt>
      <trkpt lat="42.97644099999975" lon="-1.3784749999999992">
        <ele>891.640</ele>
        <time>2022-08-24T13:17:46Z</time>
      </trkpt>
      <trkpt lat="42.97643299999975" lon="-1.3784969999999992">
        <ele>891.859</ele>
        <time>2022-08-24T13:17:47Z</time>
      </trkpt>
      <trkpt lat="42.97642199999975" lon="-1.3785189999999992">
        <ele>891.878</ele>
        <time>2022-08-24T13:17:48Z</time>
      </trkpt>
      <trkpt lat="42.97641599999975" lon="-1.3785339999999993">
        <ele>892.233</ele>
        <time>2022-08-24T13:17:49Z</time>
      </trkpt>
      <trkpt lat="42.97640799999975" lon="-1.3785569999999994">
        <ele>892.426</ele>
        <time>2022-08-24T13:17:50Z</time>
      </trkpt>
      <trkpt lat="42.97639999999975" lon="-1.3785799999999995">
        <ele>892.409</ele>
        <time>2022-08-24T13:17:51Z</time>
      </trkpt>
      <trkpt lat="42.97639299999975" lon="-1.3786009999999995">
        <ele>892.698</ele>
        <time>2022-08-24T13:17:52Z</time>
      </trkpt>
      <trkpt lat="42.976380999999755" lon="-1.3786229999999995">
        <ele>892.678</ele>
        <time>2022-08-24T13:17:53Z</time>
      </trkpt>
      <trkpt lat="42.976371999999756" lon="-1.3786439999999995">
        <ele>892.848</ele>
        <time>2022-08-24T13:17:54Z</time>
      </trkpt>
      <trkpt lat="42.97636199999975" lon="-1.3786639999999994">
        <ele>892.884</ele>
        <time>2022-08-24T13:17:55Z</time>
      </trkpt>
      <trkpt lat="42.97635099999975" lon="-1.3786849999999995">
        <ele>893.016</ele>
        <time>2022-08-24T13:17:56Z</time>
      </trkpt>
      <trkpt lat="42.97633999999975" lon="-1.3787059999999995">
        <ele>893.223</ele>
        <time>2022-08-24T13:17:57Z</time>
      </trkpt>
      <trkpt lat="42.97632999999975" lon="-1.3787269999999996">
        <ele>893.476</ele>
        <time>2022-08-24T13:17:58Z</time>
      </trkpt>
      <trkpt lat="42.97631899999975" lon="-1.3787459999999996">
        <ele>893.660</ele>
        <time>2022-08-24T13:17:59Z</time>
      </trkpt>
      <trkpt lat="42.97630999999975" lon="-1.3787629999999995">
        <ele>893.689</ele>
        <time>2022-08-24T13:18:00Z</time>
      </trkpt>
      <trkpt lat="42.976299999999746" lon="-1.3787809999999996">
        <ele>893.654</ele>
        <time>2022-08-24T13:18:01Z</time>
      </trkpt>
      <trkpt lat="42.976288999999745" lon="-1.3788039999999997">
        <ele>893.656</ele>
        <time>2022-08-24T13:18:02Z</time>
      </trkpt>
      <trkpt lat="42.976280999999744" lon="-1.3788169999999997">
        <ele>893.811</ele>
        <time>2022-08-24T13:18:03Z</time>
      </trkpt>
      <trkpt lat="42.97627099999974" lon="-1.3788339999999997">
        <ele>893.809</ele>
        <time>2022-08-24T13:18:04Z</time>
      </trkpt>
      <trkpt lat="42.97625999999974" lon="-1.3788499999999997">
        <ele>893.836</ele>
        <time>2022-08-24T13:18:05Z</time>
      </trkpt>
      <trkpt lat="42.97624899999974" lon="-1.3788679999999998">
        <ele>894.066</ele>
        <time>2022-08-24T13:18:06Z</time>
      </trkpt>
      <trkpt lat="42.97623699999974" lon="-1.3788819999999997">
        <ele>894.026</ele>
        <time>2022-08-24T13:18:07Z</time>
      </trkpt>
      <trkpt lat="42.976224999999744" lon="-1.3788959999999997">
        <ele>894.462</ele>
        <time>2022-08-24T13:18:08Z</time>
      </trkpt>
      <trkpt lat="42.97621199999974" lon="-1.3789109999999998">
        <ele>894.684</ele>
        <time>2022-08-24T13:18:09Z</time>
      </trkpt>
      <trkpt lat="42.97619999999974" lon="-1.3789229999999997">
        <ele>894.821</ele>
        <time>2022-08-24T13:18:10Z</time>
      </trkpt>
      <trkpt lat="42.976187999999745" lon="-1.3789359999999997">
        <ele>895.084</ele>
        <time>2022-08-24T13:18:11Z</time>
      </trkpt>
      <trkpt lat="42.976173999999745" lon="-1.3789479999999996">
        <ele>895.248</ele>
        <time>2022-08-24T13:18:12Z</time>
      </trkpt>
      <trkpt lat="42.976162999999744" lon="-1.3789579999999997">
        <ele>895.257</ele>
        <time>2022-08-24T13:18:13Z</time>
      </trkpt>
      <trkpt lat="42.97615299999974" lon="-1.3789639999999996">
        <ele>895.284</ele>
        <time>2022-08-24T13:18:14Z</time>
      </trkpt>
      <trkpt lat="42.97614299999974" lon="-1.3789729999999996">
        <ele>895.607</ele>
        <time>2022-08-24T13:18:15Z</time>
      </trkpt>
      <trkpt lat="42.976134999999736" lon="-1.3789829999999996">
        <ele>895.617</ele>
        <time>2022-08-24T13:18:16Z</time>
      </trkpt>
      <trkpt lat="42.97612799999974" lon="-1.3789949999999995">
        <ele>895.809</ele>
        <time>2022-08-24T13:18:17Z</time>
      </trkpt>
      <trkpt lat="42.97611899999974" lon="-1.3790059999999995">
        <ele>895.839</ele>
        <time>2022-08-24T13:18:18Z</time>
      </trkpt>
      <trkpt lat="42.97610999999974" lon="-1.3790149999999994">
        <ele>895.899</ele>
        <time>2022-08-24T13:18:19Z</time>
      </trkpt>
      <trkpt lat="42.97610199999974" lon="-1.3790239999999994">
        <ele>896.069</ele>
        <time>2022-08-24T13:18:20Z</time>
      </trkpt>
      <trkpt lat="42.976097999999745" lon="-1.3790289999999994">
        <ele>896.055</ele>
        <time>2022-08-24T13:18:21Z</time>
      </trkpt>
      <trkpt lat="42.976083999999744" lon="-1.3790669999999994">
        <ele>896.447</ele>
        <time>2022-08-24T13:18:32Z</time>
      </trkpt>
      <trkpt lat="42.97607899999974" lon="-1.3790779999999994">
        <ele>896.614</ele>
        <time>2022-08-24T13:18:33Z</time>
      </trkpt>
      <trkpt lat="42.97607399999974" lon="-1.3790889999999993">
        <ele>896.687</ele>
        <time>2022-08-24T13:18:34Z</time>
      </trkpt>
      <trkpt lat="42.976066999999745" lon="-1.3791049999999994">
        <ele>896.621</ele>
        <time>2022-08-24T13:18:35Z</time>
      </trkpt>
      <trkpt lat="42.97604899999975" lon="-1.3791559999999994">
        <ele>896.830</ele>
        <time>2022-08-24T13:18:38Z</time>
      </trkpt>
      <trkpt lat="42.97603399999975" lon="-1.3791979999999995">
        <ele>897.044</ele>
        <time>2022-08-24T13:18:40Z</time>
      </trkpt>
      <trkpt lat="42.97602599999975" lon="-1.3792219999999995">
        <ele>897.005</ele>
        <time>2022-08-24T13:18:41Z</time>
      </trkpt>
      <trkpt lat="42.97602099999975" lon="-1.3792479999999996">
        <ele>897.015</ele>
        <time>2022-08-24T13:18:42Z</time>
      </trkpt>
      <trkpt lat="42.97601499999975" lon="-1.3792669999999996">
        <ele>897.009</ele>
        <time>2022-08-24T13:18:43Z</time>
      </trkpt>
      <trkpt lat="42.97600699999975" lon="-1.3792879999999996">
        <ele>897.075</ele>
        <time>2022-08-24T13:18:44Z</time>
      </trkpt>
      <trkpt lat="42.975984999999746" lon="-1.3793629999999997">
        <ele>897.665</ele>
        <time>2022-08-24T13:18:47Z</time>
      </trkpt>
      <trkpt lat="42.97597899999975" lon="-1.3794079999999997">
        <ele>897.825</ele>
        <time>2022-08-24T13:18:49Z</time>
      </trkpt>
      <trkpt lat="42.97596699999975" lon="-1.3794309999999999">
        <ele>897.821</ele>
        <time>2022-08-24T13:18:50Z</time>
      </trkpt>
      <trkpt lat="42.975956999999745" lon="-1.379449">
        <ele>898.043</ele>
        <time>2022-08-24T13:18:51Z</time>
      </trkpt>
      <trkpt lat="42.975945999999745" lon="-1.379546">
        <ele>898.620</ele>
        <time>2022-08-24T13:18:55Z</time>
      </trkpt>
      <trkpt lat="42.975951999999744" lon="-1.37957">
        <ele>899.063</ele>
        <time>2022-08-24T13:18:56Z</time>
      </trkpt>
      <trkpt lat="42.97594799999975" lon="-1.3796059999999999">
        <ele>899.257</ele>
        <time>2022-08-24T13:18:57Z</time>
      </trkpt>
      <trkpt lat="42.97593799999974" lon="-1.379629">
        <ele>899.616</ele>
        <time>2022-08-24T13:18:58Z</time>
      </trkpt>
      <trkpt lat="42.97592799999974" lon="-1.379663">
        <ele>900.075</ele>
        <time>2022-08-24T13:18:59Z</time>
      </trkpt>
      <trkpt lat="42.97593899999974" lon="-1.379698">
        <ele>900.228</ele>
        <time>2022-08-24T13:19:00Z</time>
      </trkpt>
      <trkpt lat="42.97594499999974" lon="-1.3797220000000001">
        <ele>900.620</ele>
        <time>2022-08-24T13:19:01Z</time>
      </trkpt>
      <trkpt lat="42.97594799999974" lon="-1.379742">
        <ele>900.609</ele>
        <time>2022-08-24T13:19:02Z</time>
      </trkpt>
      <trkpt lat="42.97594199999974" lon="-1.3797760000000001">
        <ele>900.888</ele>
        <time>2022-08-24T13:19:03Z</time>
      </trkpt>
      <trkpt lat="42.97593299999974" lon="-1.3798130000000002">
        <ele>901.248</ele>
        <time>2022-08-24T13:19:04Z</time>
      </trkpt>
      <trkpt lat="42.97592299999974" lon="-1.3798370000000002">
        <ele>901.288</ele>
        <time>2022-08-24T13:19:05Z</time>
      </trkpt>
      <trkpt lat="42.97591899999974" lon="-1.3798650000000001">
        <ele>901.884</ele>
        <time>2022-08-24T13:19:06Z</time>
      </trkpt>
      <trkpt lat="42.975917999999744" lon="-1.3798920000000001">
        <ele>902.026</ele>
        <time>2022-08-24T13:19:07Z</time>
      </trkpt>
      <trkpt lat="42.97590199999974" lon="-1.3799160000000001">
        <ele>902.223</ele>
        <time>2022-08-24T13:19:08Z</time>
      </trkpt>
      <trkpt lat="42.975889999999744" lon="-1.3799350000000001">
        <ele>902.266</ele>
        <time>2022-08-24T13:19:09Z</time>
      </trkpt>
      <trkpt lat="42.97587399999974" lon="-1.3799560000000002">
        <ele>902.670</ele>
        <time>2022-08-24T13:19:10Z</time>
      </trkpt>
      <trkpt lat="42.975866999999745" lon="-1.3799710000000003">
        <ele>902.859</ele>
        <time>2022-08-24T13:19:11Z</time>
      </trkpt>
      <trkpt lat="42.97585699999974" lon="-1.3799730000000003">
        <ele>902.839</ele>
        <time>2022-08-24T13:19:12Z</time>
      </trkpt>
      <trkpt lat="42.97584899999974" lon="-1.3799790000000003">
        <ele>903.201</ele>
        <time>2022-08-24T13:19:13Z</time>
      </trkpt>
      <trkpt lat="42.975844999999744" lon="-1.3799890000000004">
        <ele>903.221</ele>
        <time>2022-08-24T13:19:14Z</time>
      </trkpt>
      <trkpt lat="42.97584299999974" lon="-1.3800040000000005">
        <ele>903.409</ele>
        <time>2022-08-24T13:19:15Z</time>
      </trkpt>
      <trkpt lat="42.975838999999745" lon="-1.3800270000000006">
        <ele>903.664</ele>
        <time>2022-08-24T13:19:16Z</time>
      </trkpt>
      <trkpt lat="42.97583399999974" lon="-1.3800450000000006">
        <ele>903.674</ele>
        <time>2022-08-24T13:19:17Z</time>
      </trkpt>
      <trkpt lat="42.97582699999975" lon="-1.3800570000000005">
        <ele>903.834</ele>
        <time>2022-08-24T13:19:18Z</time>
      </trkpt>
      <trkpt lat="42.97582099999975" lon="-1.3800710000000005">
        <ele>904.010</ele>
        <time>2022-08-24T13:19:19Z</time>
      </trkpt>
      <trkpt lat="42.97581799999975" lon="-1.3800880000000004">
        <ele>904.632</ele>
        <time>2022-08-24T13:19:20Z</time>
      </trkpt>
      <trkpt lat="42.97581099999975" lon="-1.3801050000000004">
        <ele>904.869</ele>
        <time>2022-08-24T13:19:21Z</time>
      </trkpt>
      <trkpt lat="42.97580599999975" lon="-1.3801200000000005">
        <ele>905.082</ele>
        <time>2022-08-24T13:19:22Z</time>
      </trkpt>
      <trkpt lat="42.97580099999975" lon="-1.3801330000000005">
        <ele>905.086</ele>
        <time>2022-08-24T13:19:23Z</time>
      </trkpt>
      <trkpt lat="42.97579299999975" lon="-1.3801470000000005">
        <ele>905.215</ele>
        <time>2022-08-24T13:19:24Z</time>
      </trkpt>
      <trkpt lat="42.975784999999746" lon="-1.3801630000000005">
        <ele>905.438</ele>
        <time>2022-08-24T13:19:25Z</time>
      </trkpt>
      <trkpt lat="42.97578199999975" lon="-1.3801690000000004">
        <ele>905.470</ele>
        <time>2022-08-24T13:19:26Z</time>
      </trkpt>
      <trkpt lat="42.975779999999745" lon="-1.3801720000000004">
        <ele>905.617</ele>
        <time>2022-08-24T13:19:27Z</time>
      </trkpt>
      <trkpt lat="42.97577499999974" lon="-1.3801820000000005">
        <ele>905.609</ele>
        <time>2022-08-24T13:19:28Z</time>
      </trkpt>
      <trkpt lat="42.975768999999744" lon="-1.3801980000000005">
        <ele>905.884</ele>
        <time>2022-08-24T13:19:29Z</time>
      </trkpt>
      <trkpt lat="42.975765999999744" lon="-1.3802190000000005">
        <ele>906.014</ele>
        <time>2022-08-24T13:19:30Z</time>
      </trkpt>
      <trkpt lat="42.97576199999975" lon="-1.3802350000000005">
        <ele>906.084</ele>
        <time>2022-08-24T13:19:31Z</time>
      </trkpt>
      <trkpt lat="42.97575499999975" lon="-1.3802540000000005">
        <ele>906.250</ele>
        <time>2022-08-24T13:19:32Z</time>
      </trkpt>
      <trkpt lat="42.97574699999975" lon="-1.3802690000000006">
        <ele>906.212</ele>
        <time>2022-08-24T13:19:33Z</time>
      </trkpt>
      <trkpt lat="42.97573899999975" lon="-1.3802840000000007">
        <ele>906.449</ele>
        <time>2022-08-24T13:19:34Z</time>
      </trkpt>
      <trkpt lat="42.97573699999975" lon="-1.3803000000000007">
        <ele>906.662</ele>
        <time>2022-08-24T13:19:35Z</time>
      </trkpt>
      <trkpt lat="42.97573699999975" lon="-1.3803160000000008">
        <ele>906.636</ele>
        <time>2022-08-24T13:19:36Z</time>
      </trkpt>
      <trkpt lat="42.97573399999975" lon="-1.3803260000000008">
        <ele>906.835</ele>
        <time>2022-08-24T13:19:37Z</time>
      </trkpt>
      <trkpt lat="42.975723999999744" lon="-1.380341000000001">
        <ele>906.881</ele>
        <time>2022-08-24T13:19:38Z</time>
      </trkpt>
      <trkpt lat="42.975717999999745" lon="-1.380357000000001">
        <ele>907.261</ele>
        <time>2022-08-24T13:19:39Z</time>
      </trkpt>
      <trkpt lat="42.97571099999975" lon="-1.380368000000001">
        <ele>907.417</ele>
        <time>2022-08-24T13:19:40Z</time>
      </trkpt>
      <trkpt lat="42.975700999999745" lon="-1.3803800000000008">
        <ele>907.609</ele>
        <time>2022-08-24T13:19:41Z</time>
      </trkpt>
      <trkpt lat="42.975694999999746" lon="-1.380395000000001">
        <ele>907.849</ele>
        <time>2022-08-24T13:19:42Z</time>
      </trkpt>
      <trkpt lat="42.97569599999974" lon="-1.380405000000001">
        <ele>907.839</ele>
        <time>2022-08-24T13:19:43Z</time>
      </trkpt>
      <trkpt lat="42.97569399999974" lon="-1.380417000000001">
        <ele>908.059</ele>
        <time>2022-08-24T13:19:44Z</time>
      </trkpt>
      <trkpt lat="42.975692999999744" lon="-1.380433000000001">
        <ele>908.075</ele>
        <time>2022-08-24T13:19:45Z</time>
      </trkpt>
      <trkpt lat="42.97568799999974" lon="-1.3804500000000008">
        <ele>908.297</ele>
        <time>2022-08-24T13:19:46Z</time>
      </trkpt>
      <trkpt lat="42.97568599999974" lon="-1.3804690000000008">
        <ele>908.674</ele>
        <time>2022-08-24T13:19:47Z</time>
      </trkpt>
      <trkpt lat="42.97568299999974" lon="-1.3804820000000009">
        <ele>908.877</ele>
        <time>2022-08-24T13:19:48Z</time>
      </trkpt>
      <trkpt lat="42.97567499999974" lon="-1.380492000000001">
        <ele>908.841</ele>
        <time>2022-08-24T13:19:49Z</time>
      </trkpt>
      <trkpt lat="42.97566799999974" lon="-1.380503000000001">
        <ele>909.040</ele>
        <time>2022-08-24T13:19:50Z</time>
      </trkpt>
      <trkpt lat="42.975663999999746" lon="-1.380514000000001">
        <ele>909.264</ele>
        <time>2022-08-24T13:19:51Z</time>
      </trkpt>
      <trkpt lat="42.97565999999975" lon="-1.380522000000001">
        <ele>909.206</ele>
        <time>2022-08-24T13:19:52Z</time>
      </trkpt>
      <trkpt lat="42.97565499999975" lon="-1.3805360000000009">
        <ele>909.416</ele>
        <time>2022-08-24T13:19:53Z</time>
      </trkpt>
      <trkpt lat="42.97565199999975" lon="-1.3805640000000008">
        <ele>909.609</ele>
        <time>2022-08-24T13:19:54Z</time>
      </trkpt>
      <trkpt lat="42.975649999999746" lon="-1.380587000000001">
        <ele>909.687</ele>
        <time>2022-08-24T13:19:55Z</time>
      </trkpt>
      <trkpt lat="42.975646999999746" lon="-1.380592000000001">
        <ele>909.847</ele>
        <time>2022-08-24T13:19:56Z</time>
      </trkpt>
      <trkpt lat="42.975655999999745" lon="-1.3806060000000009">
        <ele>910.017</ele>
        <time>2022-08-24T13:19:57Z</time>
      </trkpt>
      <trkpt lat="42.975661999999744" lon="-1.380621000000001">
        <ele>910.243</ele>
        <time>2022-08-24T13:19:58Z</time>
      </trkpt>
      <trkpt lat="42.97565799999975" lon="-1.3806330000000009">
        <ele>910.265</ele>
        <time>2022-08-24T13:19:59Z</time>
      </trkpt>
      <trkpt lat="42.97565499999975" lon="-1.3806500000000008">
        <ele>910.472</ele>
        <time>2022-08-24T13:20:00Z</time>
      </trkpt>
      <trkpt lat="42.975652999999745" lon="-1.3806540000000007">
        <ele>910.675</ele>
        <time>2022-08-24T13:20:01Z</time>
      </trkpt>
      <trkpt lat="42.975652999999745" lon="-1.3806540000000007">
        <ele>910.619</ele>
        <time>2022-08-24T13:20:02Z</time>
      </trkpt>
      <trkpt lat="42.975652999999745" lon="-1.3806540000000007">
        <ele>910.838</ele>
        <time>2022-08-24T13:20:03Z</time>
      </trkpt>
      <trkpt lat="42.975669999999745" lon="-1.3806790000000007">
        <ele>911.094</ele>
        <time>2022-08-24T13:20:04Z</time>
      </trkpt>
      <trkpt lat="42.97566499999974" lon="-1.3806980000000006">
        <ele>911.257</ele>
        <time>2022-08-24T13:20:05Z</time>
      </trkpt>
      <trkpt lat="42.97566299999974" lon="-1.3807020000000005">
        <ele>911.622</ele>
        <time>2022-08-24T13:20:06Z</time>
      </trkpt>
      <trkpt lat="42.97566299999974" lon="-1.3807020000000005">
        <ele>911.809</ele>
        <time>2022-08-24T13:20:07Z</time>
      </trkpt>
      <trkpt lat="42.97567799999974" lon="-1.3807420000000006">
        <ele>912.050</ele>
        <time>2022-08-24T13:20:08Z</time>
      </trkpt>
      <trkpt lat="42.97568299999974" lon="-1.3807680000000007">
        <ele>912.040</ele>
        <time>2022-08-24T13:20:09Z</time>
      </trkpt>
      <trkpt lat="42.97567399999974" lon="-1.3807900000000006">
        <ele>912.470</ele>
        <time>2022-08-24T13:20:10Z</time>
      </trkpt>
      <trkpt lat="42.97566899999974" lon="-1.3808210000000005">
        <ele>912.436</ele>
        <time>2022-08-24T13:20:11Z</time>
      </trkpt>
      <trkpt lat="42.97566799999974" lon="-1.3808260000000006">
        <ele>912.648</ele>
        <time>2022-08-24T13:20:12Z</time>
      </trkpt>
      <trkpt lat="42.97565699999974" lon="-1.3808470000000006">
        <ele>912.895</ele>
        <time>2022-08-24T13:20:13Z</time>
      </trkpt>
      <trkpt lat="42.97565399999974" lon="-1.3808710000000006">
        <ele>912.878</ele>
        <time>2022-08-24T13:20:14Z</time>
      </trkpt>
      <trkpt lat="42.97564599999974" lon="-1.3808870000000006">
        <ele>913.022</ele>
        <time>2022-08-24T13:20:15Z</time>
      </trkpt>
      <trkpt lat="42.97564399999974" lon="-1.3808910000000005">
        <ele>913.431</ele>
        <time>2022-08-24T13:20:16Z</time>
      </trkpt>
      <trkpt lat="42.97563099999974" lon="-1.3809070000000006">
        <ele>913.657</ele>
        <time>2022-08-24T13:20:17Z</time>
      </trkpt>
      <trkpt lat="42.97562999999974" lon="-1.3809120000000006">
        <ele>913.800</ele>
        <time>2022-08-24T13:20:18Z</time>
      </trkpt>
      <trkpt lat="42.97563799999974" lon="-1.3809340000000005">
        <ele>913.820</ele>
        <time>2022-08-24T13:20:19Z</time>
      </trkpt>
      <trkpt lat="42.97563999999974" lon="-1.3809390000000006">
        <ele>914.009</ele>
        <time>2022-08-24T13:20:20Z</time>
      </trkpt>
      <trkpt lat="42.97564399999974" lon="-1.3809520000000006">
        <ele>914.226</ele>
        <time>2022-08-24T13:20:21Z</time>
      </trkpt>
      <trkpt lat="42.97564299999974" lon="-1.3809720000000005">
        <ele>914.626</ele>
        <time>2022-08-24T13:20:22Z</time>
      </trkpt>
      <trkpt lat="42.97564299999974" lon="-1.3809760000000004">
        <ele>914.896</ele>
        <time>2022-08-24T13:20:23Z</time>
      </trkpt>
      <trkpt lat="42.97564399999974" lon="-1.3810140000000004">
        <ele>915.092</ele>
        <time>2022-08-24T13:20:24Z</time>
      </trkpt>
      <trkpt lat="42.97563899999974" lon="-1.3810350000000005">
        <ele>915.224</ele>
        <time>2022-08-24T13:20:25Z</time>
      </trkpt>
      <trkpt lat="42.97563299999974" lon="-1.3810580000000006">
        <ele>915.411</ele>
        <time>2022-08-24T13:20:26Z</time>
      </trkpt>
      <trkpt lat="42.975636999999736" lon="-1.3810800000000005">
        <ele>915.674</ele>
        <time>2022-08-24T13:20:27Z</time>
      </trkpt>
      <trkpt lat="42.97563799999973" lon="-1.3810840000000004">
        <ele>915.688</ele>
        <time>2022-08-24T13:20:28Z</time>
      </trkpt>
      <trkpt lat="42.97563799999973" lon="-1.3810840000000004">
        <ele>915.867</ele>
        <time>2022-08-24T13:20:29Z</time>
      </trkpt>
      <trkpt lat="42.97563799999973" lon="-1.3810840000000004">
        <ele>916.067</ele>
        <time>2022-08-24T13:20:30Z</time>
      </trkpt>
      <trkpt lat="42.97563799999973" lon="-1.3810840000000004">
        <ele>916.081</ele>
        <time>2022-08-24T13:20:31Z</time>
      </trkpt>
      <trkpt lat="42.97563799999973" lon="-1.3810840000000004">
        <ele>916.219</ele>
        <time>2022-08-24T13:20:32Z</time>
      </trkpt>
      <trkpt lat="42.97563799999973" lon="-1.3810840000000004">
        <ele>916.209</ele>
        <time>2022-08-24T13:20:33Z</time>
      </trkpt>
      <trkpt lat="42.97563799999973" lon="-1.3810840000000004">
        <ele>916.467</ele>
        <time>2022-08-24T13:20:34Z</time>
      </trkpt>
      <trkpt lat="42.975628999999735" lon="-1.3810950000000004">
        <ele>916.697</ele>
        <time>2022-08-24T13:20:35Z</time>
      </trkpt>
      <trkpt lat="42.975622999999736" lon="-1.3811220000000004">
        <ele>916.877</ele>
        <time>2022-08-24T13:20:36Z</time>
      </trkpt>
      <trkpt lat="42.97562199999974" lon="-1.3811270000000004">
        <ele>917.253</ele>
        <time>2022-08-24T13:20:37Z</time>
      </trkpt>
      <trkpt lat="42.97562199999974" lon="-1.3811270000000004">
        <ele>917.465</ele>
        <time>2022-08-24T13:20:38Z</time>
      </trkpt>
      <trkpt lat="42.97562199999974" lon="-1.3811300000000004">
        <ele>917.652</ele>
        <time>2022-08-24T13:20:39Z</time>
      </trkpt>
      <trkpt lat="42.97562399999974" lon="-1.3811330000000004">
        <ele>917.645</ele>
        <time>2022-08-24T13:20:40Z</time>
      </trkpt>
      <trkpt lat="42.97562399999974" lon="-1.3811330000000004">
        <ele>917.889</ele>
        <time>2022-08-24T13:20:41Z</time>
      </trkpt>
      <trkpt lat="42.97562399999974" lon="-1.3811330000000004">
        <ele>918.088</ele>
        <time>2022-08-24T13:20:42Z</time>
      </trkpt>
      <trkpt lat="42.97562399999974" lon="-1.3811330000000004">
        <ele>918.243</ele>
        <time>2022-08-24T13:20:43Z</time>
      </trkpt>
      <trkpt lat="42.97562399999974" lon="-1.3811330000000004">
        <ele>918.264</ele>
        <time>2022-08-24T13:20:44Z</time>
      </trkpt>
      <trkpt lat="42.97562399999974" lon="-1.3811330000000004">
        <ele>918.410</ele>
        <time>2022-08-24T13:20:45Z</time>
      </trkpt>
      <trkpt lat="42.97562299999974" lon="-1.3811360000000004">
        <ele>918.409</ele>
        <time>2022-08-24T13:20:46Z</time>
      </trkpt>
      <trkpt lat="42.97562299999974" lon="-1.3811360000000004">
        <ele>918.435</ele>
        <time>2022-08-24T13:20:47Z</time>
      </trkpt>
      <trkpt lat="42.97562299999974" lon="-1.3811360000000004">
        <ele>918.675</ele>
        <time>2022-08-24T13:20:48Z</time>
      </trkpt>
      <trkpt lat="42.97562299999974" lon="-1.3811360000000004">
        <ele>918.825</ele>
        <time>2022-08-24T13:20:49Z</time>
      </trkpt>
      <trkpt lat="42.97562299999974" lon="-1.3811360000000004">
        <ele>919.091</ele>
        <time>2022-08-24T13:20:50Z</time>
      </trkpt>
      <trkpt lat="42.97562299999974" lon="-1.3811360000000004">
        <ele>919.283</ele>
        <time>2022-08-24T13:20:51Z</time>
      </trkpt>
      <trkpt lat="42.97562299999974" lon="-1.3811360000000004">
        <ele>919.440</ele>
        <time>2022-08-24T13:20:52Z</time>
      </trkpt>
      <trkpt lat="42.97562299999974" lon="-1.3811360000000004">
        <ele>919.653</ele>
        <time>2022-08-24T13:20:53Z</time>
      </trkpt>
      <trkpt lat="42.97562299999974" lon="-1.3811360000000004">
        <ele>919.837</ele>
        <time>2022-08-24T13:20:54Z</time>
      </trkpt>
      <trkpt lat="42.97562299999974" lon="-1.3811360000000004">
        <ele>920.026</ele>
        <time>2022-08-24T13:20:55Z</time>
      </trkpt>
      <trkpt lat="42.97562299999974" lon="-1.3811360000000004">
        <ele>920.225</ele>
        <time>2022-08-24T13:20:56Z</time>
      </trkpt>
      <trkpt lat="42.975621999999746" lon="-1.3811360000000004">
        <ele>920.426</ele>
        <time>2022-08-24T13:20:57Z</time>
      </trkpt>
      <trkpt lat="42.975621999999746" lon="-1.3811360000000004">
        <ele>920.608</ele>
        <time>2022-08-24T13:20:58Z</time>
      </trkpt>
      <trkpt lat="42.97561999999974" lon="-1.3811410000000004">
        <ele>920.809</ele>
        <time>2022-08-24T13:20:59Z</time>
      </trkpt>
      <trkpt lat="42.975616999999744" lon="-1.3811520000000004">
        <ele>921.283</ele>
        <time>2022-08-24T13:21:00Z</time>
      </trkpt>
      <trkpt lat="42.975613999999744" lon="-1.3811600000000004">
        <ele>921.423</ele>
        <time>2022-08-24T13:21:01Z</time>
      </trkpt>
      <trkpt lat="42.97560599999974" lon="-1.3811920000000004">
        <ele>921.483</ele>
        <time>2022-08-24T13:21:02Z</time>
      </trkpt>
      <trkpt lat="42.975599999999744" lon="-1.3812220000000004">
        <ele>921.629</ele>
        <time>2022-08-24T13:21:03Z</time>
      </trkpt>
      <trkpt lat="42.97559599999975" lon="-1.3812560000000005">
        <ele>921.671</ele>
        <time>2022-08-24T13:21:04Z</time>
      </trkpt>
      <trkpt lat="42.97558899999975" lon="-1.3812910000000005">
        <ele>922.088</ele>
        <time>2022-08-24T13:21:05Z</time>
      </trkpt>
      <trkpt lat="42.975584999999754" lon="-1.3813030000000004">
        <ele>922.091</ele>
        <time>2022-08-24T13:21:06Z</time>
      </trkpt>
      <trkpt lat="42.97558299999975" lon="-1.3813110000000004">
        <ele>922.275</ele>
        <time>2022-08-24T13:21:07Z</time>
      </trkpt>
      <trkpt lat="42.975578999999755" lon="-1.3813390000000003">
        <ele>922.434</ele>
        <time>2022-08-24T13:21:08Z</time>
      </trkpt>
      <trkpt lat="42.97557699999975" lon="-1.3813510000000002">
        <ele>922.642</ele>
        <time>2022-08-24T13:21:09Z</time>
      </trkpt>
      <trkpt lat="42.975569999999756" lon="-1.3813900000000001">
        <ele>922.822</ele>
        <time>2022-08-24T13:21:10Z</time>
      </trkpt>
      <trkpt lat="42.97557099999975" lon="-1.3814140000000001">
        <ele>922.814</ele>
        <time>2022-08-24T13:21:11Z</time>
      </trkpt>
      <trkpt lat="42.975572999999756" lon="-1.3814410000000001">
        <ele>923.209</ele>
        <time>2022-08-24T13:21:12Z</time>
      </trkpt>
      <trkpt lat="42.975575999999755" lon="-1.381466">
        <ele>923.215</ele>
        <time>2022-08-24T13:21:13Z</time>
      </trkpt>
      <trkpt lat="42.97557699999975" lon="-1.3814710000000001">
        <ele>923.615</ele>
        <time>2022-08-24T13:21:14Z</time>
      </trkpt>
      <trkpt lat="42.975575999999755" lon="-1.3814840000000002">
        <ele>923.855</ele>
        <time>2022-08-24T13:21:15Z</time>
      </trkpt>
      <trkpt lat="42.975572999999756" lon="-1.3815130000000002">
        <ele>924.221</ele>
        <time>2022-08-24T13:21:16Z</time>
      </trkpt>
      <trkpt lat="42.975578999999755" lon="-1.3815350000000002">
        <ele>924.423</ele>
        <time>2022-08-24T13:21:17Z</time>
      </trkpt>
      <trkpt lat="42.97557999999975" lon="-1.3815670000000002">
        <ele>924.680</ele>
        <time>2022-08-24T13:21:18Z</time>
      </trkpt>
      <trkpt lat="42.97558299999975" lon="-1.3815810000000002">
        <ele>924.883</ele>
        <time>2022-08-24T13:21:19Z</time>
      </trkpt>
      <trkpt lat="42.97558899999975" lon="-1.3815840000000001">
        <ele>924.867</ele>
        <time>2022-08-24T13:21:20Z</time>
      </trkpt>
      <trkpt lat="42.975598999999754" lon="-1.381593">
        <ele>925.036</ele>
        <time>2022-08-24T13:21:21Z</time>
      </trkpt>
      <trkpt lat="42.97560899999976" lon="-1.381609">
        <ele>925.067</ele>
        <time>2022-08-24T13:21:22Z</time>
      </trkpt>
      <trkpt lat="42.975617999999756" lon="-1.381628">
        <ele>925.081</ele>
        <time>2022-08-24T13:21:23Z</time>
      </trkpt>
      <trkpt lat="42.97562599999976" lon="-1.3816300000000001">
        <ele>925.219</ele>
        <time>2022-08-24T13:21:24Z</time>
      </trkpt>
      <trkpt lat="42.97562799999976" lon="-1.3816270000000002">
        <ele>925.209</ele>
        <time>2022-08-24T13:21:25Z</time>
      </trkpt>
      <trkpt lat="42.97564299999976" lon="-1.381636">
        <ele>925.247</ele>
        <time>2022-08-24T13:21:26Z</time>
      </trkpt>
      <trkpt lat="42.97564799999976" lon="-1.381636">
        <ele>925.217</ele>
        <time>2022-08-24T13:21:27Z</time>
      </trkpt>
      <trkpt lat="42.97566199999976" lon="-1.3816490000000001">
        <ele>925.457</ele>
        <time>2022-08-24T13:21:28Z</time>
      </trkpt>
      <trkpt lat="42.975693999999756" lon="-1.38166">
        <ele>925.423</ele>
        <time>2022-08-24T13:21:29Z</time>
      </trkpt>
      <trkpt lat="42.975730999999755" lon="-1.381672">
        <ele>925.465</ele>
        <time>2022-08-24T13:21:30Z</time>
      </trkpt>
      <trkpt lat="42.97575699999975" lon="-1.381675">
        <ele>925.682</ele>
        <time>2022-08-24T13:21:31Z</time>
      </trkpt>
      <trkpt lat="42.975781999999754" lon="-1.381677">
        <ele>925.655</ele>
        <time>2022-08-24T13:21:32Z</time>
      </trkpt>
      <trkpt lat="42.97580299999975" lon="-1.381679">
        <ele>925.669</ele>
        <time>2022-08-24T13:21:33Z</time>
      </trkpt>
      <trkpt lat="42.975826999999754" lon="-1.381696">
        <ele>925.838</ele>
        <time>2022-08-24T13:21:34Z</time>
      </trkpt>
      <trkpt lat="42.97584999999975" lon="-1.381706">
        <ele>925.846</ele>
        <time>2022-08-24T13:21:35Z</time>
      </trkpt>
      <trkpt lat="42.97585399999975" lon="-1.381709">
        <ele>925.888</ele>
        <time>2022-08-24T13:21:36Z</time>
      </trkpt>
      <trkpt lat="42.97586999999975" lon="-1.381725">
        <ele>925.816</ele>
        <time>2022-08-24T13:21:37Z</time>
      </trkpt>
      <trkpt lat="42.97589799999975" lon="-1.381733">
        <ele>925.609</ele>
        <time>2022-08-24T13:21:38Z</time>
      </trkpt>
      <trkpt lat="42.975924999999755" lon="-1.381747">
        <ele>925.665</ele>
        <time>2022-08-24T13:21:39Z</time>
      </trkpt>
      <trkpt lat="42.975963999999756" lon="-1.381769">
        <ele>925.865</ele>
        <time>2022-08-24T13:21:40Z</time>
      </trkpt>
      <trkpt lat="42.97600499999976" lon="-1.3817920000000001">
        <ele>925.685</ele>
        <time>2022-08-24T13:21:41Z</time>
      </trkpt>
      <trkpt lat="42.97603899999976" lon="-1.3818100000000002">
        <ele>925.611</ele>
        <time>2022-08-24T13:21:42Z</time>
      </trkpt>
      <trkpt lat="42.97612799999976" lon="-1.381822">
        <ele>925.453</ele>
        <time>2022-08-24T13:21:45Z</time>
      </trkpt>
      <trkpt lat="42.97618099999976" lon="-1.381847">
        <ele>925.440</ele>
        <time>2022-08-24T13:21:47Z</time>
      </trkpt>
      <trkpt lat="42.976193999999765" lon="-1.381848">
        <ele>925.443</ele>
        <time>2022-08-24T13:21:48Z</time>
      </trkpt>
      <trkpt lat="42.976210999999765" lon="-1.381815">
        <ele>925.477</ele>
        <time>2022-08-24T13:21:49Z</time>
      </trkpt>
      <trkpt lat="42.976255999999765" lon="-1.381824">
        <ele>925.476</ele>
        <time>2022-08-24T13:21:50Z</time>
      </trkpt>
      <trkpt lat="42.976317999999765" lon="-1.381858">
        <ele>925.445</ele>
        <time>2022-08-24T13:21:51Z</time>
      </trkpt>
      <trkpt lat="42.97634999999976" lon="-1.3818810000000001">
        <ele>925.247</ele>
        <time>2022-08-24T13:21:52Z</time>
      </trkpt>
      <trkpt lat="42.976365999999764" lon="-1.3818940000000002">
        <ele>925.211</ele>
        <time>2022-08-24T13:21:53Z</time>
      </trkpt>
      <trkpt lat="42.97638399999976" lon="-1.3819100000000002">
        <ele>925.209</ele>
        <time>2022-08-24T13:21:54Z</time>
      </trkpt>
      <trkpt lat="42.97638699999976" lon="-1.3819090000000003">
        <ele>925.225</ele>
        <time>2022-08-24T13:21:55Z</time>
      </trkpt>
      <trkpt lat="42.97639199999976" lon="-1.3819210000000002">
        <ele>924.835</ele>
        <time>2022-08-24T13:22:49Z</time>
      </trkpt>
      <trkpt lat="42.976393999999765" lon="-1.381925">
        <ele>924.835</ele>
        <time>2022-08-24T13:22:51Z</time>
      </trkpt>
      <trkpt lat="42.976424999999765" lon="-1.381955">
        <ele>924.881</ele>
        <time>2022-08-24T13:22:53Z</time>
      </trkpt>
      <trkpt lat="42.976446999999766" lon="-1.3819730000000001">
        <ele>924.653</ele>
        <time>2022-08-24T13:22:55Z</time>
      </trkpt>
      <trkpt lat="42.97645199999977" lon="-1.381976">
        <ele>924.620</ele>
        <time>2022-08-24T13:22:56Z</time>
      </trkpt>
      <trkpt lat="42.976460999999766" lon="-1.38198">
        <ele>924.693</ele>
        <time>2022-08-24T13:22:57Z</time>
      </trkpt>
      <trkpt lat="42.97647399999977" lon="-1.381982">
        <ele>924.677</ele>
        <time>2022-08-24T13:22:58Z</time>
      </trkpt>
      <trkpt lat="42.976488999999766" lon="-1.381988">
        <ele>924.626</ele>
        <time>2022-08-24T13:22:59Z</time>
      </trkpt>
      <trkpt lat="42.976494999999765" lon="-1.381994">
        <ele>924.856</ele>
        <time>2022-08-24T13:23:00Z</time>
      </trkpt>
      <trkpt lat="42.976494999999765" lon="-1.381994">
        <ele>924.859</ele>
        <time>2022-08-24T13:23:01Z</time>
      </trkpt>
      <trkpt lat="42.97653599999977" lon="-1.382012">
        <ele>925.214</ele>
        <time>2022-08-24T13:23:04Z</time>
      </trkpt>
      <trkpt lat="42.976564999999766" lon="-1.38203">
        <ele>925.409</ele>
        <time>2022-08-24T13:23:06Z</time>
      </trkpt>
      <trkpt lat="42.976573999999765" lon="-1.382033">
        <ele>925.656</ele>
        <time>2022-08-24T13:23:07Z</time>
      </trkpt>
      <trkpt lat="42.976587999999765" lon="-1.382037">
        <ele>925.876</ele>
        <time>2022-08-24T13:23:08Z</time>
      </trkpt>
      <trkpt lat="42.97661199999977" lon="-1.38205">
        <ele>926.026</ele>
        <time>2022-08-24T13:23:09Z</time>
      </trkpt>
      <trkpt lat="42.97663099999977" lon="-1.382062">
        <ele>926.252</ele>
        <time>2022-08-24T13:23:10Z</time>
      </trkpt>
      <trkpt lat="42.97663499999977" lon="-1.3820649999999999">
        <ele>926.424</ele>
        <time>2022-08-24T13:23:11Z</time>
      </trkpt>
      <trkpt lat="42.97664499999977" lon="-1.3820729999999999">
        <ele>926.831</ele>
        <time>2022-08-24T13:23:12Z</time>
      </trkpt>
      <trkpt lat="42.97665899999977" lon="-1.382081">
        <ele>927.074</ele>
        <time>2022-08-24T13:23:13Z</time>
      </trkpt>
      <trkpt lat="42.97667499999977" lon="-1.382088">
        <ele>927.258</ele>
        <time>2022-08-24T13:23:14Z</time>
      </trkpt>
      <trkpt lat="42.97673499999977" lon="-1.382125">
        <ele>927.677</ele>
        <time>2022-08-24T13:23:17Z</time>
      </trkpt>
      <trkpt lat="42.97675099999977" lon="-1.3821320000000001">
        <ele>928.082</ele>
        <time>2022-08-24T13:23:18Z</time>
      </trkpt>
      <trkpt lat="42.97677099999977" lon="-1.382149">
        <ele>928.243</ele>
        <time>2022-08-24T13:23:19Z</time>
      </trkpt>
      <trkpt lat="42.976775999999774" lon="-1.382154">
        <ele>928.217</ele>
        <time>2022-08-24T13:23:20Z</time>
      </trkpt>
      <trkpt lat="42.97677899999977" lon="-1.382155">
        <ele>928.409</ele>
        <time>2022-08-24T13:23:21Z</time>
      </trkpt>
      <trkpt lat="42.976789999999774" lon="-1.382164">
        <ele>928.679</ele>
        <time>2022-08-24T13:23:22Z</time>
      </trkpt>
      <trkpt lat="42.97679699999977" lon="-1.382174">
        <ele>928.819</ele>
        <time>2022-08-24T13:23:23Z</time>
      </trkpt>
      <trkpt lat="42.97681999999977" lon="-1.382191">
        <ele>929.069</ele>
        <time>2022-08-24T13:23:24Z</time>
      </trkpt>
      <trkpt lat="42.97683199999977" lon="-1.382199">
        <ele>929.085</ele>
        <time>2022-08-24T13:23:25Z</time>
      </trkpt>
      <trkpt lat="42.976843999999765" lon="-1.3821999999999999">
        <ele>929.217</ele>
        <time>2022-08-24T13:23:26Z</time>
      </trkpt>
      <trkpt lat="42.976852999999764" lon="-1.382197">
        <ele>929.484</ele>
        <time>2022-08-24T13:23:27Z</time>
      </trkpt>
      <trkpt lat="42.97686299999977" lon="-1.382204">
        <ele>929.687</ele>
        <time>2022-08-24T13:23:28Z</time>
      </trkpt>
      <trkpt lat="42.976869999999764" lon="-1.3822079999999999">
        <ele>929.641</ele>
        <time>2022-08-24T13:23:29Z</time>
      </trkpt>
      <trkpt lat="42.976911999999764" lon="-1.382245">
        <ele>929.850</ele>
        <time>2022-08-24T13:23:30Z</time>
      </trkpt>
      <trkpt lat="42.97693199999976" lon="-1.382266">
        <ele>930.043</ele>
        <time>2022-08-24T13:23:31Z</time>
      </trkpt>
      <trkpt lat="42.97694899999976" lon="-1.382277">
        <ele>930.264</ele>
        <time>2022-08-24T13:23:32Z</time>
      </trkpt>
      <trkpt lat="42.976964999999765" lon="-1.382292">
        <ele>930.410</ele>
        <time>2022-08-24T13:23:33Z</time>
      </trkpt>
      <trkpt lat="42.97697699999976" lon="-1.382306">
        <ele>930.409</ele>
        <time>2022-08-24T13:23:34Z</time>
      </trkpt>
      <trkpt lat="42.976989999999766" lon="-1.382322">
        <ele>930.675</ele>
        <time>2022-08-24T13:23:35Z</time>
      </trkpt>
      <trkpt lat="42.977003999999766" lon="-1.382342">
        <ele>930.885</ele>
        <time>2022-08-24T13:23:36Z</time>
      </trkpt>
      <trkpt lat="42.97701699999977" lon="-1.382361">
        <ele>931.075</ele>
        <time>2022-08-24T13:23:37Z</time>
      </trkpt>
      <trkpt lat="42.97702799999977" lon="-1.382379">
        <ele>931.041</ele>
        <time>2022-08-24T13:23:38Z</time>
      </trkpt>
      <trkpt lat="42.97704299999977" lon="-1.382403">
        <ele>931.053</ele>
        <time>2022-08-24T13:23:39Z</time>
      </trkpt>
      <trkpt lat="42.977057999999765" lon="-1.3824260000000002">
        <ele>931.070</ele>
        <time>2022-08-24T13:23:40Z</time>
      </trkpt>
      <trkpt lat="42.977074999999765" lon="-1.3824490000000003">
        <ele>931.063</ele>
        <time>2022-08-24T13:23:41Z</time>
      </trkpt>
      <trkpt lat="42.977096999999766" lon="-1.3824760000000003">
        <ele>931.277</ele>
        <time>2022-08-24T13:23:42Z</time>
      </trkpt>
      <trkpt lat="42.977113999999766" lon="-1.3825000000000003">
        <ele>931.226</ele>
        <time>2022-08-24T13:23:43Z</time>
      </trkpt>
      <trkpt lat="42.97713499999976" lon="-1.3825280000000002">
        <ele>931.238</ele>
        <time>2022-08-24T13:23:44Z</time>
      </trkpt>
      <trkpt lat="42.97715799999976" lon="-1.3825530000000001">
        <ele>931.270</ele>
        <time>2022-08-24T13:23:45Z</time>
      </trkpt>
      <trkpt lat="42.97717999999976" lon="-1.3825760000000002">
        <ele>931.217</ele>
        <time>2022-08-24T13:23:46Z</time>
      </trkpt>
      <trkpt lat="42.97720299999976" lon="-1.3826010000000002">
        <ele>931.209</ele>
        <time>2022-08-24T13:23:47Z</time>
      </trkpt>
      <trkpt lat="42.97722399999976" lon="-1.3826300000000002">
        <ele>931.464</ele>
        <time>2022-08-24T13:23:48Z</time>
      </trkpt>
      <trkpt lat="42.97724699999976" lon="-1.3826600000000002">
        <ele>931.424</ele>
        <time>2022-08-24T13:23:49Z</time>
      </trkpt>
      <trkpt lat="42.977267999999754" lon="-1.3826900000000002">
        <ele>931.444</ele>
        <time>2022-08-24T13:23:50Z</time>
      </trkpt>
      <trkpt lat="42.977286999999755" lon="-1.3827190000000003">
        <ele>931.480</ele>
        <time>2022-08-24T13:23:51Z</time>
      </trkpt>
      <trkpt lat="42.97730899999976" lon="-1.3827530000000003">
        <ele>931.632</ele>
        <time>2022-08-24T13:23:52Z</time>
      </trkpt>
      <trkpt lat="42.977331999999755" lon="-1.3827890000000003">
        <ele>931.649</ele>
        <time>2022-08-24T13:23:53Z</time>
      </trkpt>
      <trkpt lat="42.977399999999754" lon="-1.3828890000000003">
        <ele>931.462</ele>
        <time>2022-08-24T13:23:56Z</time>
      </trkpt>
      <trkpt lat="42.97746599999975" lon="-1.3829740000000001">
        <ele>931.456</ele>
        <time>2022-08-24T13:23:59Z</time>
      </trkpt>
      <trkpt lat="42.97747999999975" lon="-1.3829950000000002">
        <ele>931.065</ele>
        <time>2022-08-24T13:24:00Z</time>
      </trkpt>
      <trkpt lat="42.97749699999975" lon="-1.3830190000000002">
        <ele>931.094</ele>
        <time>2022-08-24T13:24:01Z</time>
      </trkpt>
      <trkpt lat="42.97751399999975" lon="-1.3830430000000002">
        <ele>931.057</ele>
        <time>2022-08-24T13:24:02Z</time>
      </trkpt>
      <trkpt lat="42.97752999999975" lon="-1.3830660000000004">
        <ele>931.022</ele>
        <time>2022-08-24T13:24:03Z</time>
      </trkpt>
      <trkpt lat="42.977545999999755" lon="-1.3830860000000003">
        <ele>931.009</ele>
        <time>2022-08-24T13:24:04Z</time>
      </trkpt>
      <trkpt lat="42.977672999999754" lon="-1.3832420000000003">
        <ele>931.430</ele>
        <time>2022-08-24T13:24:10Z</time>
      </trkpt>
      <trkpt lat="42.97792999999975" lon="-1.3834840000000004">
        <ele>930.680</ele>
        <time>2022-08-24T13:24:16Z</time>
      </trkpt>
      <trkpt lat="42.97812399999975" lon="-1.3836500000000005">
        <ele>930.030</ele>
        <time>2022-08-24T13:24:20Z</time>
      </trkpt>
      <trkpt lat="42.97822899999975" lon="-1.3837250000000005">
        <ele>929.886</ele>
        <time>2022-08-24T13:24:22Z</time>
      </trkpt>
      <trkpt lat="42.97843899999975" lon="-1.3839040000000005">
        <ele>928.848</ele>
        <time>2022-08-24T13:24:26Z</time>
      </trkpt>
      <trkpt lat="42.97863399999975" lon="-1.3841420000000004">
        <ele>928.445</ele>
        <time>2022-08-24T13:24:30Z</time>
      </trkpt>
      <trkpt lat="42.978781999999754" lon="-1.3843430000000003">
        <ele>927.448</ele>
        <time>2022-08-24T13:24:33Z</time>
      </trkpt>
      <trkpt lat="42.978873999999756" lon="-1.3844730000000003">
        <ele>927.072</ele>
        <time>2022-08-24T13:24:35Z</time>
      </trkpt>
      <trkpt lat="42.97892099999976" lon="-1.3845390000000002">
        <ele>926.461</ele>
        <time>2022-08-24T13:24:36Z</time>
      </trkpt>
      <trkpt lat="42.97896499999976" lon="-1.384605">
        <ele>926.053</ele>
        <time>2022-08-24T13:24:37Z</time>
      </trkpt>
      <trkpt lat="42.979005999999764" lon="-1.384671">
        <ele>925.604</ele>
        <time>2022-08-24T13:24:38Z</time>
      </trkpt>
      <trkpt lat="42.979047999999764" lon="-1.384736">
        <ele>924.414</ele>
        <time>2022-08-24T13:24:39Z</time>
      </trkpt>
      <trkpt lat="42.97908899999977" lon="-1.384801">
        <ele>923.809</ele>
        <time>2022-08-24T13:24:40Z</time>
      </trkpt>
      <trkpt lat="42.97912699999977" lon="-1.384865">
        <ele>923.486</ele>
        <time>2022-08-24T13:24:41Z</time>
      </trkpt>
      <trkpt lat="42.97916299999977" lon="-1.38493">
        <ele>922.846</ele>
        <time>2022-08-24T13:24:42Z</time>
      </trkpt>
      <trkpt lat="42.97928099999977" lon="-1.385135">
        <ele>921.066</ele>
        <time>2022-08-24T13:24:45Z</time>
      </trkpt>
      <trkpt lat="42.97935999999977" lon="-1.385269">
        <ele>919.622</ele>
        <time>2022-08-24T13:24:47Z</time>
      </trkpt>
      <trkpt lat="42.97943899999977" lon="-1.385397">
        <ele>918.074</ele>
        <time>2022-08-24T13:24:49Z</time>
      </trkpt>
      <trkpt lat="42.97947499999977" lon="-1.385452">
        <ele>917.641</ele>
        <time>2022-08-24T13:24:50Z</time>
      </trkpt>
      <trkpt lat="42.97950699999977" lon="-1.3854989999999998">
        <ele>916.294</ele>
        <time>2022-08-24T13:24:51Z</time>
      </trkpt>
      <trkpt lat="42.97953799999977" lon="-1.3855379999999997">
        <ele>915.698</ele>
        <time>2022-08-24T13:24:52Z</time>
      </trkpt>
      <trkpt lat="42.97956799999977" lon="-1.3855649999999997">
        <ele>915.237</ele>
        <time>2022-08-24T13:24:53Z</time>
      </trkpt>
      <trkpt lat="42.979589999999774" lon="-1.3855859999999998">
        <ele>914.249</ele>
        <time>2022-08-24T13:24:54Z</time>
      </trkpt>
      <trkpt lat="42.979606999999774" lon="-1.3856009999999999">
        <ele>913.802</ele>
        <time>2022-08-24T13:24:55Z</time>
      </trkpt>
      <trkpt lat="42.97962199999977" lon="-1.3856099999999998">
        <ele>913.222</ele>
        <time>2022-08-24T13:24:56Z</time>
      </trkpt>
      <trkpt lat="42.97963399999977" lon="-1.3856169999999999">
        <ele>912.809</ele>
        <time>2022-08-24T13:24:57Z</time>
      </trkpt>
      <trkpt lat="42.97964199999977" lon="-1.3856209999999998">
        <ele>912.045</ele>
        <time>2022-08-24T13:24:58Z</time>
      </trkpt>
      <trkpt lat="42.97964599999977" lon="-1.3856219999999997">
        <ele>908.835</ele>
        <time>2022-08-24T13:25:18Z</time>
      </trkpt>
      <trkpt lat="42.979646999999765" lon="-1.3856259999999996">
        <ele>909.065</ele>
        <time>2022-08-24T13:25:20Z</time>
      </trkpt>
      <trkpt lat="42.97970499999977" lon="-1.3857769999999996">
        <ele>909.081</ele>
        <time>2022-08-24T13:25:25Z</time>
      </trkpt>
      <trkpt lat="42.97983399999977" lon="-1.3860049999999995">
        <ele>908.273</ele>
        <time>2022-08-24T13:25:30Z</time>
      </trkpt>
      <trkpt lat="42.97986399999977" lon="-1.3860539999999995">
        <ele>908.040</ele>
        <time>2022-08-24T13:25:31Z</time>
      </trkpt>
      <trkpt lat="42.97986899999977" lon="-1.3860989999999995">
        <ele>907.863</ele>
        <time>2022-08-24T13:25:32Z</time>
      </trkpt>
      <trkpt lat="42.979865999999774" lon="-1.3861319999999995">
        <ele>907.837</ele>
        <time>2022-08-24T13:25:33Z</time>
      </trkpt>
      <trkpt lat="42.979864999999776" lon="-1.3861869999999994">
        <ele>907.626</ele>
        <time>2022-08-24T13:25:34Z</time>
      </trkpt>
      <trkpt lat="42.97987199999977" lon="-1.3862379999999994">
        <ele>907.623</ele>
        <time>2022-08-24T13:25:35Z</time>
      </trkpt>
      <trkpt lat="42.979873999999775" lon="-1.3862839999999994">
        <ele>907.683</ele>
        <time>2022-08-24T13:25:36Z</time>
      </trkpt>
      <trkpt lat="42.979881999999776" lon="-1.3863159999999994">
        <ele>907.411</ele>
        <time>2022-08-24T13:25:37Z</time>
      </trkpt>
      <trkpt lat="42.979879999999774" lon="-1.3863399999999995">
        <ele>907.409</ele>
        <time>2022-08-24T13:25:38Z</time>
      </trkpt>
      <trkpt lat="42.97987799999977" lon="-1.3863759999999994">
        <ele>907.453</ele>
        <time>2022-08-24T13:25:39Z</time>
      </trkpt>
      <trkpt lat="42.97987899999977" lon="-1.3864129999999995">
        <ele>907.493</ele>
        <time>2022-08-24T13:25:40Z</time>
      </trkpt>
      <trkpt lat="42.97987699999977" lon="-1.3864549999999995">
        <ele>907.263</ele>
        <time>2022-08-24T13:25:41Z</time>
      </trkpt>
      <trkpt lat="42.979897999999764" lon="-1.3866539999999996">
        <ele>907.069</ele>
        <time>2022-08-24T13:25:46Z</time>
      </trkpt>
      <trkpt lat="42.979905999999765" lon="-1.3867409999999996">
        <ele>906.831</ele>
        <time>2022-08-24T13:25:49Z</time>
      </trkpt>
      <trkpt lat="42.97990499999977" lon="-1.3867719999999994">
        <ele>906.888</ele>
        <time>2022-08-24T13:25:50Z</time>
      </trkpt>
      <trkpt lat="42.979908999999765" lon="-1.3868009999999995">
        <ele>906.841</ele>
        <time>2022-08-24T13:25:51Z</time>
      </trkpt>
      <trkpt lat="42.97994099999976" lon="-1.3868719999999994">
        <ele>906.695</ele>
        <time>2022-08-24T13:25:53Z</time>
      </trkpt>
      <trkpt lat="42.97994499999976" lon="-1.3869029999999993">
        <ele>906.664</ele>
        <time>2022-08-24T13:25:54Z</time>
      </trkpt>
      <trkpt lat="42.97995099999976" lon="-1.3869309999999992">
        <ele>906.647</ele>
        <time>2022-08-24T13:25:55Z</time>
      </trkpt>
      <trkpt lat="42.979965999999756" lon="-1.3869519999999993">
        <ele>906.229</ele>
        <time>2022-08-24T13:25:56Z</time>
      </trkpt>
      <trkpt lat="42.97997899999976" lon="-1.3869739999999993">
        <ele>906.221</ele>
        <time>2022-08-24T13:25:57Z</time>
      </trkpt>
      <trkpt lat="42.98000499999976" lon="-1.3870309999999992">
        <ele>905.809</ele>
        <time>2022-08-24T13:25:59Z</time>
      </trkpt>
      <trkpt lat="42.98009199999976" lon="-1.3871279999999993">
        <ele>905.435</ele>
        <time>2022-08-24T13:26:02Z</time>
      </trkpt>
      <trkpt lat="42.980112999999754" lon="-1.3871589999999991">
        <ele>905.475</ele>
        <time>2022-08-24T13:26:03Z</time>
      </trkpt>
      <trkpt lat="42.980126999999754" lon="-1.3872019999999992">
        <ele>905.285</ele>
        <time>2022-08-24T13:26:04Z</time>
      </trkpt>
      <trkpt lat="42.980131999999756" lon="-1.3872279999999992">
        <ele>905.281</ele>
        <time>2022-08-24T13:26:05Z</time>
      </trkpt>
      <trkpt lat="42.98013599999975" lon="-1.3872559999999992">
        <ele>905.083</ele>
        <time>2022-08-24T13:26:06Z</time>
      </trkpt>
      <trkpt lat="42.98014799999975" lon="-1.3872989999999992">
        <ele>905.010</ele>
        <time>2022-08-24T13:26:07Z</time>
      </trkpt>
      <trkpt lat="42.98017399999975" lon="-1.3873509999999991">
        <ele>904.673</ele>
        <time>2022-08-24T13:26:08Z</time>
      </trkpt>
      <trkpt lat="42.98019999999975" lon="-1.3873959999999992">
        <ele>904.437</ele>
        <time>2022-08-24T13:26:09Z</time>
      </trkpt>
      <trkpt lat="42.980211999999746" lon="-1.387434999999999">
        <ele>903.846</ele>
        <time>2022-08-24T13:26:10Z</time>
      </trkpt>
      <trkpt lat="42.98021099999975" lon="-1.3874719999999992">
        <ele>903.437</ele>
        <time>2022-08-24T13:26:11Z</time>
      </trkpt>
      <trkpt lat="42.980208999999746" lon="-1.3875179999999991">
        <ele>902.649</ele>
        <time>2022-08-24T13:26:12Z</time>
      </trkpt>
      <trkpt lat="42.98021599999974" lon="-1.387569999999999">
        <ele>902.213</ele>
        <time>2022-08-24T13:26:13Z</time>
      </trkpt>
      <trkpt lat="42.98021099999974" lon="-1.387623999999999">
        <ele>901.809</ele>
        <time>2022-08-24T13:26:14Z</time>
      </trkpt>
      <trkpt lat="42.980203999999745" lon="-1.387654999999999">
        <ele>901.484</ele>
        <time>2022-08-24T13:26:15Z</time>
      </trkpt>
      <trkpt lat="42.98019999999975" lon="-1.387661999999999">
        <ele>901.244</ele>
        <time>2022-08-24T13:26:16Z</time>
      </trkpt>
      <trkpt lat="42.980197999999746" lon="-1.3876719999999991">
        <ele>901.084</ele>
        <time>2022-08-24T13:26:17Z</time>
      </trkpt>
      <trkpt lat="42.980195999999744" lon="-1.3876739999999992">
        <ele>900.870</ele>
        <time>2022-08-24T13:26:18Z</time>
      </trkpt>
      <trkpt lat="42.980195999999744" lon="-1.3876739999999992">
        <ele>900.462</ele>
        <time>2022-08-24T13:26:19Z</time>
      </trkpt>
      <trkpt lat="42.980203999999745" lon="-1.3877249999999992">
        <ele>900.039</ele>
        <time>2022-08-24T13:26:20Z</time>
      </trkpt>
      <trkpt lat="42.980206999999744" lon="-1.3877279999999992">
        <ele>899.842</ele>
        <time>2022-08-24T13:26:21Z</time>
      </trkpt>
      <trkpt lat="42.980206999999744" lon="-1.3877279999999992">
        <ele>899.496</ele>
        <time>2022-08-24T13:26:22Z</time>
      </trkpt>
      <trkpt lat="42.980206999999744" lon="-1.3877279999999992">
        <ele>899.245</ele>
        <time>2022-08-24T13:26:23Z</time>
      </trkpt>
      <trkpt lat="42.980206999999744" lon="-1.3877279999999992">
        <ele>898.636</ele>
        <time>2022-08-24T13:26:24Z</time>
      </trkpt>
      <trkpt lat="42.98020299999975" lon="-1.3877519999999992">
        <ele>898.217</ele>
        <time>2022-08-24T13:26:25Z</time>
      </trkpt>
      <trkpt lat="42.980200999999745" lon="-1.3877539999999993">
        <ele>898.218</ele>
        <time>2022-08-24T13:26:26Z</time>
      </trkpt>
      <trkpt lat="42.98021999999975" lon="-1.3877939999999993">
        <ele>898.009</ele>
        <time>2022-08-24T13:26:27Z</time>
      </trkpt>
      <trkpt lat="42.980206999999744" lon="-1.3878549999999994">
        <ele>897.844</ele>
        <time>2022-08-24T13:26:28Z</time>
      </trkpt>
      <trkpt lat="42.98019899999974" lon="-1.3879409999999994">
        <ele>897.834</ele>
        <time>2022-08-24T13:26:30Z</time>
      </trkpt>
      <trkpt lat="42.98019099999974" lon="-1.3879729999999995">
        <ele>897.654</ele>
        <time>2022-08-24T13:26:31Z</time>
      </trkpt>
      <trkpt lat="42.98017399999974" lon="-1.3880029999999994">
        <ele>897.480</ele>
        <time>2022-08-24T13:26:32Z</time>
      </trkpt>
      <trkpt lat="42.98015499999974" lon="-1.3880399999999995">
        <ele>897.292</ele>
        <time>2022-08-24T13:26:33Z</time>
      </trkpt>
      <trkpt lat="42.98013599999974" lon="-1.3880599999999994">
        <ele>896.689</ele>
        <time>2022-08-24T13:26:34Z</time>
      </trkpt>
      <trkpt lat="42.98007299999974" lon="-1.3881989999999993">
        <ele>895.242</ele>
        <time>2022-08-24T13:26:38Z</time>
      </trkpt>
      <trkpt lat="42.98005299999974" lon="-1.3882379999999992">
        <ele>894.876</ele>
        <time>2022-08-24T13:26:39Z</time>
      </trkpt>
      <trkpt lat="42.98002199999974" lon="-1.3883149999999993">
        <ele>893.855</ele>
        <time>2022-08-24T13:26:41Z</time>
      </trkpt>
      <trkpt lat="42.97996299999974" lon="-1.3884109999999994">
        <ele>892.865</ele>
        <time>2022-08-24T13:26:44Z</time>
      </trkpt>
      <trkpt lat="42.97993799999974" lon="-1.3884969999999994">
        <ele>892.068</ele>
        <time>2022-08-24T13:26:46Z</time>
      </trkpt>
      <trkpt lat="42.97991199999974" lon="-1.3885359999999993">
        <ele>891.814</ele>
        <time>2022-08-24T13:26:47Z</time>
      </trkpt>
      <trkpt lat="42.979874999999744" lon="-1.3885769999999993">
        <ele>891.209</ele>
        <time>2022-08-24T13:26:48Z</time>
      </trkpt>
      <trkpt lat="42.979846999999744" lon="-1.3886169999999993">
        <ele>890.687</ele>
        <time>2022-08-24T13:26:49Z</time>
      </trkpt>
      <trkpt lat="42.97981999999974" lon="-1.3886459999999994">
        <ele>890.067</ele>
        <time>2022-08-24T13:26:50Z</time>
      </trkpt>
      <trkpt lat="42.97979199999974" lon="-1.3886919999999994">
        <ele>889.247</ele>
        <time>2022-08-24T13:26:51Z</time>
      </trkpt>
      <trkpt lat="42.97975299999974" lon="-1.3887099999999994">
        <ele>888.883</ele>
        <time>2022-08-24T13:26:52Z</time>
      </trkpt>
      <trkpt lat="42.97970199999974" lon="-1.3887789999999995">
        <ele>888.035</ele>
        <time>2022-08-24T13:26:54Z</time>
      </trkpt>
      <trkpt lat="42.97967699999974" lon="-1.3888329999999995">
        <ele>887.652</ele>
        <time>2022-08-24T13:26:55Z</time>
      </trkpt>
      <trkpt lat="42.97964399999974" lon="-1.3889109999999996">
        <ele>886.255</ele>
        <time>2022-08-24T13:26:57Z</time>
      </trkpt>
      <trkpt lat="42.979610999999736" lon="-1.3889609999999997">
        <ele>885.629</ele>
        <time>2022-08-24T13:26:58Z</time>
      </trkpt>
      <trkpt lat="42.979593999999736" lon="-1.3889909999999996">
        <ele>885.248</ele>
        <time>2022-08-24T13:26:59Z</time>
      </trkpt>
      <trkpt lat="42.979591999999734" lon="-1.3890189999999996">
        <ele>884.428</ele>
        <time>2022-08-24T13:27:00Z</time>
      </trkpt>
      <trkpt lat="42.97957399999974" lon="-1.3890789999999995">
        <ele>884.289</ele>
        <time>2022-08-24T13:27:01Z</time>
      </trkpt>
      <trkpt lat="42.979562999999736" lon="-1.3891489999999995">
        <ele>883.617</ele>
        <time>2022-08-24T13:27:02Z</time>
      </trkpt>
      <trkpt lat="42.979512999999734" lon="-1.3892459999999995">
        <ele>882.609</ele>
        <time>2022-08-24T13:27:03Z</time>
      </trkpt>
      <trkpt lat="42.97949099999973" lon="-1.3893369999999996">
        <ele>882.483</ele>
        <time>2022-08-24T13:27:04Z</time>
      </trkpt>
      <trkpt lat="42.97948099999973" lon="-1.3893999999999995">
        <ele>881.433</ele>
        <time>2022-08-24T13:27:05Z</time>
      </trkpt>
      <trkpt lat="42.97945999999973" lon="-1.3894329999999995">
        <ele>881.083</ele>
        <time>2022-08-24T13:27:06Z</time>
      </trkpt>
      <trkpt lat="42.97944599999973" lon="-1.3894649999999995">
        <ele>880.219</ele>
        <time>2022-08-24T13:27:07Z</time>
      </trkpt>
      <trkpt lat="42.97943299999973" lon="-1.3895149999999996">
        <ele>880.041</ele>
        <time>2022-08-24T13:27:08Z</time>
      </trkpt>
      <trkpt lat="42.97944199999973" lon="-1.3895589999999995">
        <ele>879.268</ele>
        <time>2022-08-24T13:27:09Z</time>
      </trkpt>
      <trkpt lat="42.97943099999973" lon="-1.3896009999999996">
        <ele>878.891</ele>
        <time>2022-08-24T13:27:10Z</time>
      </trkpt>
      <trkpt lat="42.97939399999973" lon="-1.3896789999999997">
        <ele>877.615</ele>
        <time>2022-08-24T13:27:12Z</time>
      </trkpt>
      <trkpt lat="42.97933399999973" lon="-1.3897699999999997">
        <ele>877.444</ele>
        <time>2022-08-24T13:27:13Z</time>
      </trkpt>
      <trkpt lat="42.97927699999973" lon="-1.3898789999999996">
        <ele>876.426</ele>
        <time>2022-08-24T13:27:15Z</time>
      </trkpt>
      <trkpt lat="42.97926099999973" lon="-1.3899259999999996">
        <ele>876.047</ele>
        <time>2022-08-24T13:27:16Z</time>
      </trkpt>
      <trkpt lat="42.97925099999973" lon="-1.3899669999999995">
        <ele>875.411</ele>
        <time>2022-08-24T13:27:17Z</time>
      </trkpt>
      <trkpt lat="42.97920299999973" lon="-1.3900389999999996">
        <ele>875.009</ele>
        <time>2022-08-24T13:27:18Z</time>
      </trkpt>
      <trkpt lat="42.97915799999973" lon="-1.3901489999999996">
        <ele>873.883</ele>
        <time>2022-08-24T13:27:20Z</time>
      </trkpt>
      <trkpt lat="42.979130999999725" lon="-1.3902859999999997">
        <ele>872.033</ele>
        <time>2022-08-24T13:27:22Z</time>
      </trkpt>
      <trkpt lat="42.97910799999973" lon="-1.3903719999999997">
        <ele>871.643</ele>
        <time>2022-08-24T13:27:23Z</time>
      </trkpt>
      <trkpt lat="42.979048999999726" lon="-1.3904099999999997">
        <ele>870.059</ele>
        <time>2022-08-24T13:27:24Z</time>
      </trkpt>
      <trkpt lat="42.97901199999973" lon="-1.3904399999999997">
        <ele>869.471</ele>
        <time>2022-08-24T13:27:25Z</time>
      </trkpt>
      <trkpt lat="42.97900599999973" lon="-1.3904619999999996">
        <ele>868.628</ele>
        <time>2022-08-24T13:27:26Z</time>
      </trkpt>
      <trkpt lat="42.97901499999973" lon="-1.3904929999999995">
        <ele>868.241</ele>
        <time>2022-08-24T13:27:27Z</time>
      </trkpt>
      <trkpt lat="42.978989999999726" lon="-1.3905339999999995">
        <ele>867.485</ele>
        <time>2022-08-24T13:27:28Z</time>
      </trkpt>
      <trkpt lat="42.97893599999973" lon="-1.3905889999999994">
        <ele>866.674</ele>
        <time>2022-08-24T13:27:29Z</time>
      </trkpt>
      <trkpt lat="42.978911999999724" lon="-1.3906199999999993">
        <ele>866.258</ele>
        <time>2022-08-24T13:27:30Z</time>
      </trkpt>
      <trkpt lat="42.97887099999972" lon="-1.3906659999999993">
        <ele>865.452</ele>
        <time>2022-08-24T13:27:31Z</time>
      </trkpt>
      <trkpt lat="42.97887299999972" lon="-1.3907189999999994">
        <ele>864.817</ele>
        <time>2022-08-24T13:27:32Z</time>
      </trkpt>
      <trkpt lat="42.978874999999725" lon="-1.3907579999999993">
        <ele>864.409</ele>
        <time>2022-08-24T13:27:33Z</time>
      </trkpt>
      <trkpt lat="42.978854999999726" lon="-1.3907949999999993">
        <ele>863.836</ele>
        <time>2022-08-24T13:27:34Z</time>
      </trkpt>
      <trkpt lat="42.97881199999973" lon="-1.3908629999999993">
        <ele>863.866</ele>
        <time>2022-08-24T13:27:35Z</time>
      </trkpt>
      <trkpt lat="42.978691999999725" lon="-1.3910389999999992">
        <ele>862.846</ele>
        <time>2022-08-24T13:27:37Z</time>
      </trkpt>
      <trkpt lat="42.97865399999972" lon="-1.3910759999999993">
        <ele>861.642</ele>
        <time>2022-08-24T13:27:38Z</time>
      </trkpt>
      <trkpt lat="42.97862299999972" lon="-1.3911419999999992">
        <ele>861.424</ele>
        <time>2022-08-24T13:27:39Z</time>
      </trkpt>
      <trkpt lat="42.97864399999972" lon="-1.3913469999999992">
        <ele>860.681</ele>
        <time>2022-08-24T13:27:41Z</time>
      </trkpt>
      <trkpt lat="42.978644999999716" lon="-1.3914289999999991">
        <ele>860.284</ele>
        <time>2022-08-24T13:27:42Z</time>
      </trkpt>
      <trkpt lat="42.978639999999714" lon="-1.391510999999999">
        <ele>859.648</ele>
        <time>2022-08-24T13:27:43Z</time>
      </trkpt>
      <trkpt lat="42.97863199999971" lon="-1.391565999999999">
        <ele>859.487</ele>
        <time>2022-08-24T13:27:44Z</time>
      </trkpt>
      <trkpt lat="42.97861099999972" lon="-1.391632999999999">
        <ele>858.893</ele>
        <time>2022-08-24T13:27:45Z</time>
      </trkpt>
      <trkpt lat="42.978580999999714" lon="-1.391697999999999">
        <ele>858.665</ele>
        <time>2022-08-24T13:27:46Z</time>
      </trkpt>
      <trkpt lat="42.97853099999971" lon="-1.391766999999999">
        <ele>858.021</ele>
        <time>2022-08-24T13:27:47Z</time>
      </trkpt>
      <trkpt lat="42.978470999999715" lon="-1.3918199999999992">
        <ele>857.409</ele>
        <time>2022-08-24T13:27:48Z</time>
      </trkpt>
      <trkpt lat="42.97843899999972" lon="-1.3918569999999992">
        <ele>857.050</ele>
        <time>2022-08-24T13:27:49Z</time>
      </trkpt>
      <trkpt lat="42.978312999999716" lon="-1.3919939999999993">
        <ele>856.230</ele>
        <time>2022-08-24T13:27:51Z</time>
      </trkpt>
      <trkpt lat="42.978253999999716" lon="-1.3920659999999994">
        <ele>856.010</ele>
        <time>2022-08-24T13:27:52Z</time>
      </trkpt>
      <trkpt lat="42.978200999999714" lon="-1.3921519999999994">
        <ele>855.636</ele>
        <time>2022-08-24T13:27:53Z</time>
      </trkpt>
      <trkpt lat="42.97816799999971" lon="-1.3922229999999993">
        <ele>855.458</ele>
        <time>2022-08-24T13:27:54Z</time>
      </trkpt>
      <trkpt lat="42.97816899999971" lon="-1.3922699999999992">
        <ele>855.075</ele>
        <time>2022-08-24T13:27:55Z</time>
      </trkpt>
      <trkpt lat="42.97819499999971" lon="-1.3923429999999992">
        <ele>854.828</ele>
        <time>2022-08-24T13:27:56Z</time>
      </trkpt>
      <trkpt lat="42.97819999999971" lon="-1.3924149999999993">
        <ele>854.672</ele>
        <time>2022-08-24T13:27:57Z</time>
      </trkpt>
      <trkpt lat="42.97817199999971" lon="-1.3924669999999992">
        <ele>854.451</ele>
        <time>2022-08-24T13:27:58Z</time>
      </trkpt>
      <trkpt lat="42.97813799999971" lon="-1.3925219999999991">
        <ele>854.248</ele>
        <time>2022-08-24T13:27:59Z</time>
      </trkpt>
      <trkpt lat="42.97810099999971" lon="-1.3925599999999991">
        <ele>854.261</ele>
        <time>2022-08-24T13:28:00Z</time>
      </trkpt>
      <trkpt lat="42.97807699999971" lon="-1.392606999999999">
        <ele>854.017</ele>
        <time>2022-08-24T13:28:01Z</time>
      </trkpt>
      <trkpt lat="42.97805599999971" lon="-1.392654999999999">
        <ele>854.009</ele>
        <time>2022-08-24T13:28:02Z</time>
      </trkpt>
      <trkpt lat="42.97802899999971" lon="-1.392695999999999">
        <ele>854.065</ele>
        <time>2022-08-24T13:28:03Z</time>
      </trkpt>
      <trkpt lat="42.977995999999706" lon="-1.392735999999999">
        <ele>854.085</ele>
        <time>2022-08-24T13:28:04Z</time>
      </trkpt>
      <trkpt lat="42.9779689999997" lon="-1.3927779999999992">
        <ele>854.275</ele>
        <time>2022-08-24T13:28:05Z</time>
      </trkpt>
      <trkpt lat="42.9779419999997" lon="-1.3928179999999992">
        <ele>854.461</ele>
        <time>2022-08-24T13:28:06Z</time>
      </trkpt>
      <trkpt lat="42.9779219999997" lon="-1.3928709999999993">
        <ele>854.693</ele>
        <time>2022-08-24T13:28:07Z</time>
      </trkpt>
      <trkpt lat="42.9778769999997" lon="-1.3930389999999993">
        <ele>855.050</ele>
        <time>2022-08-24T13:28:10Z</time>
      </trkpt>
      <trkpt lat="42.9778649999997" lon="-1.3931349999999993">
        <ele>855.243</ele>
        <time>2022-08-24T13:28:12Z</time>
      </trkpt>
      <trkpt lat="42.9778339999997" lon="-1.3932439999999993">
        <ele>855.027</ele>
        <time>2022-08-24T13:28:14Z</time>
      </trkpt>
      <trkpt lat="42.9778209999997" lon="-1.3933029999999993">
        <ele>855.036</ele>
        <time>2022-08-24T13:28:15Z</time>
      </trkpt>
      <trkpt lat="42.9778079999997" lon="-1.3933589999999993">
        <ele>854.661</ele>
        <time>2022-08-24T13:28:16Z</time>
      </trkpt>
      <trkpt lat="42.9777969999997" lon="-1.3934029999999993">
        <ele>854.421</ele>
        <time>2022-08-24T13:28:17Z</time>
      </trkpt>
      <trkpt lat="42.977797999999694" lon="-1.3934329999999993">
        <ele>854.013</ele>
        <time>2022-08-24T13:28:18Z</time>
      </trkpt>
      <trkpt lat="42.9778109999997" lon="-1.3934629999999992">
        <ele>853.609</ele>
        <time>2022-08-24T13:28:19Z</time>
      </trkpt>
      <trkpt lat="42.9778269999997" lon="-1.3934979999999992">
        <ele>853.647</ele>
        <time>2022-08-24T13:28:20Z</time>
      </trkpt>
      <trkpt lat="42.9778089999997" lon="-1.3935739999999992">
        <ele>853.437</ele>
        <time>2022-08-24T13:28:22Z</time>
      </trkpt>
      <trkpt lat="42.9777929999997" lon="-1.393620999999999">
        <ele>853.057</ele>
        <time>2022-08-24T13:28:23Z</time>
      </trkpt>
      <trkpt lat="42.9777779999997" lon="-1.393675999999999">
        <ele>853.053</ele>
        <time>2022-08-24T13:28:24Z</time>
      </trkpt>
      <trkpt lat="42.977768999999704" lon="-1.393728999999999">
        <ele>852.825</ele>
        <time>2022-08-24T13:28:25Z</time>
      </trkpt>
      <trkpt lat="42.97777899999971" lon="-1.3937739999999992">
        <ele>852.652</ele>
        <time>2022-08-24T13:28:26Z</time>
      </trkpt>
      <trkpt lat="42.97778699999971" lon="-1.393820999999999">
        <ele>852.255</ele>
        <time>2022-08-24T13:28:27Z</time>
      </trkpt>
      <trkpt lat="42.977793999999705" lon="-1.3938739999999992">
        <ele>852.079</ele>
        <time>2022-08-24T13:28:28Z</time>
      </trkpt>
      <trkpt lat="42.977787999999705" lon="-1.393936999999999">
        <ele>852.068</ele>
        <time>2022-08-24T13:28:29Z</time>
      </trkpt>
      <trkpt lat="42.97777299999971" lon="-1.3939929999999991">
        <ele>851.894</ele>
        <time>2022-08-24T13:28:30Z</time>
      </trkpt>
      <trkpt lat="42.97776899999971" lon="-1.3940419999999991">
        <ele>851.657</ele>
        <time>2022-08-24T13:28:31Z</time>
      </trkpt>
      <trkpt lat="42.97777599999971" lon="-1.394074999999999">
        <ele>851.422</ele>
        <time>2022-08-24T13:28:32Z</time>
      </trkpt>
      <trkpt lat="42.97779199999971" lon="-1.394115999999999">
        <ele>851.209</ele>
        <time>2022-08-24T13:28:33Z</time>
      </trkpt>
      <trkpt lat="42.97779099999971" lon="-1.394175999999999">
        <ele>851.230</ele>
        <time>2022-08-24T13:28:34Z</time>
      </trkpt>
      <trkpt lat="42.97778299999971" lon="-1.394235999999999">
        <ele>851.030</ele>
        <time>2022-08-24T13:28:35Z</time>
      </trkpt>
      <trkpt lat="42.97778599999971" lon="-1.3942849999999989">
        <ele>851.080</ele>
        <time>2022-08-24T13:28:36Z</time>
      </trkpt>
      <trkpt lat="42.97775299999971" lon="-1.3944399999999988">
        <ele>850.276</ele>
        <time>2022-08-24T13:28:39Z</time>
      </trkpt>
      <trkpt lat="42.97776199999971" lon="-1.3944999999999987">
        <ele>849.848</ele>
        <time>2022-08-24T13:28:40Z</time>
      </trkpt>
      <trkpt lat="42.97775899999971" lon="-1.3945529999999988">
        <ele>849.695</ele>
        <time>2022-08-24T13:28:41Z</time>
      </trkpt>
      <trkpt lat="42.97776699999971" lon="-1.3946019999999988">
        <ele>849.258</ele>
        <time>2022-08-24T13:28:42Z</time>
      </trkpt>
      <trkpt lat="42.97779099999971" lon="-1.3946539999999987">
        <ele>849.062</ele>
        <time>2022-08-24T13:28:43Z</time>
      </trkpt>
      <trkpt lat="42.97781199999971" lon="-1.3946999999999987">
        <ele>848.861</ele>
        <time>2022-08-24T13:28:44Z</time>
      </trkpt>
      <trkpt lat="42.977818999999705" lon="-1.3947339999999988">
        <ele>848.452</ele>
        <time>2022-08-24T13:28:45Z</time>
      </trkpt>
      <trkpt lat="42.9778059999997" lon="-1.3948259999999988">
        <ele>847.853</ele>
        <time>2022-08-24T13:28:47Z</time>
      </trkpt>
      <trkpt lat="42.9777959999997" lon="-1.3949759999999989">
        <ele>847.608</ele>
        <time>2022-08-24T13:28:49Z</time>
      </trkpt>
      <trkpt lat="42.9777759999997" lon="-1.395074999999999">
        <ele>847.409</ele>
        <time>2022-08-24T13:28:50Z</time>
      </trkpt>
      <trkpt lat="42.9777609999997" lon="-1.395174999999999">
        <ele>847.286</ele>
        <time>2022-08-24T13:28:51Z</time>
      </trkpt>
      <trkpt lat="42.977723999999704" lon="-1.395357999999999">
        <ele>846.846</ele>
        <time>2022-08-24T13:28:53Z</time>
      </trkpt>
      <trkpt lat="42.977703999999704" lon="-1.395435999999999">
        <ele>846.056</ele>
        <time>2022-08-24T13:28:54Z</time>
      </trkpt>
      <trkpt lat="42.9776739999997" lon="-1.395506999999999">
        <ele>845.832</ele>
        <time>2022-08-24T13:28:55Z</time>
      </trkpt>
      <trkpt lat="42.977666999999705" lon="-1.395575999999999">
        <ele>845.274</ele>
        <time>2022-08-24T13:28:56Z</time>
      </trkpt>
      <trkpt lat="42.977663999999706" lon="-1.395633999999999">
        <ele>844.821</ele>
        <time>2022-08-24T13:28:57Z</time>
      </trkpt>
      <trkpt lat="42.977669999999705" lon="-1.3957079999999988">
        <ele>844.654</ele>
        <time>2022-08-24T13:28:58Z</time>
      </trkpt>
      <trkpt lat="42.977675999999704" lon="-1.3957489999999988">
        <ele>844.258</ele>
        <time>2022-08-24T13:28:59Z</time>
      </trkpt>
      <trkpt lat="42.9776989999997" lon="-1.3957979999999988">
        <ele>844.017</ele>
        <time>2022-08-24T13:29:00Z</time>
      </trkpt>
      <trkpt lat="42.9776989999997" lon="-1.3958379999999988">
        <ele>843.057</ele>
        <time>2022-08-24T13:29:01Z</time>
      </trkpt>
      <trkpt lat="42.977692999999704" lon="-1.3958659999999987">
        <ele>842.600</ele>
        <time>2022-08-24T13:29:02Z</time>
      </trkpt>
      <trkpt lat="42.977669999999705" lon="-1.3959259999999987">
        <ele>842.620</ele>
        <time>2022-08-24T13:29:03Z</time>
      </trkpt>
      <trkpt lat="42.97766299999971" lon="-1.3959769999999987">
        <ele>842.009</ele>
        <time>2022-08-24T13:29:04Z</time>
      </trkpt>
      <trkpt lat="42.97768699999971" lon="-1.3960059999999987">
        <ele>841.686</ele>
        <time>2022-08-24T13:29:05Z</time>
      </trkpt>
      <trkpt lat="42.977699999999714" lon="-1.3960349999999988">
        <ele>841.036</ele>
        <time>2022-08-24T13:29:06Z</time>
      </trkpt>
      <trkpt lat="42.97769599999972" lon="-1.3960539999999988">
        <ele>840.886</ele>
        <time>2022-08-24T13:29:07Z</time>
      </trkpt>
      <trkpt lat="42.97770099999972" lon="-1.3960799999999989">
        <ele>840.652</ele>
        <time>2022-08-24T13:29:08Z</time>
      </trkpt>
      <trkpt lat="42.97770199999972" lon="-1.3960839999999988">
        <ele>840.224</ele>
        <time>2022-08-24T13:29:09Z</time>
      </trkpt>
      <trkpt lat="42.97770099999972" lon="-1.3960839999999988">
        <ele>838.481</ele>
        <time>2022-08-24T13:29:37Z</time>
      </trkpt>
      <trkpt lat="42.97770099999972" lon="-1.3960839999999988">
        <ele>838.264</ele>
        <time>2022-08-24T13:29:39Z</time>
      </trkpt>
      <trkpt lat="42.97768399999972" lon="-1.3960999999999988">
        <ele>837.858</ele>
        <time>2022-08-24T13:29:42Z</time>
      </trkpt>
      <trkpt lat="42.97768399999972" lon="-1.3960999999999988">
        <ele>837.647</ele>
        <time>2022-08-24T13:29:43Z</time>
      </trkpt>
      <trkpt lat="42.97768399999972" lon="-1.3960999999999988">
        <ele>837.443</ele>
        <time>2022-08-24T13:29:44Z</time>
      </trkpt>
      <trkpt lat="42.97768399999972" lon="-1.3960999999999988">
        <ele>836.464</ele>
        <time>2022-08-24T13:29:47Z</time>
      </trkpt>
      <trkpt lat="42.97768399999972" lon="-1.3960999999999988">
        <ele>836.210</ele>
        <time>2022-08-24T13:29:48Z</time>
      </trkpt>
      <trkpt lat="42.977659999999716" lon="-1.3961259999999989">
        <ele>835.809</ele>
        <time>2022-08-24T13:29:52Z</time>
      </trkpt>
      <trkpt lat="42.977643999999714" lon="-1.3961449999999989">
        <ele>835.685</ele>
        <time>2022-08-24T13:29:55Z</time>
      </trkpt>
      <trkpt lat="42.97753799999971" lon="-1.3962999999999988">
        <ele>835.235</ele>
        <time>2022-08-24T13:29:58Z</time>
      </trkpt>
      <trkpt lat="42.97750499999971" lon="-1.3963509999999988">
        <ele>835.225</ele>
        <time>2022-08-24T13:29:59Z</time>
      </trkpt>
      <trkpt lat="42.97745799999971" lon="-1.3963989999999988">
        <ele>835.261</ele>
        <time>2022-08-24T13:30:00Z</time>
      </trkpt>
      <trkpt lat="42.97740599999971" lon="-1.3965179999999988">
        <ele>835.273</ele>
        <time>2022-08-24T13:30:02Z</time>
      </trkpt>
      <trkpt lat="42.97739499999971" lon="-1.3965829999999988">
        <ele>835.080</ele>
        <time>2022-08-24T13:30:03Z</time>
      </trkpt>
      <trkpt lat="42.97737399999971" lon="-1.3966349999999987">
        <ele>835.263</ele>
        <time>2022-08-24T13:30:04Z</time>
      </trkpt>
      <trkpt lat="42.97735299999972" lon="-1.3967209999999988">
        <ele>835.277</ele>
        <time>2022-08-24T13:30:05Z</time>
      </trkpt>
      <trkpt lat="42.97732199999972" lon="-1.3968019999999988">
        <ele>835.276</ele>
        <time>2022-08-24T13:30:06Z</time>
      </trkpt>
      <trkpt lat="42.97730099999972" lon="-1.3968549999999988">
        <ele>835.452</ele>
        <time>2022-08-24T13:30:07Z</time>
      </trkpt>
      <trkpt lat="42.97728299999972" lon="-1.3968909999999988">
        <ele>835.453</ele>
        <time>2022-08-24T13:30:08Z</time>
      </trkpt>
      <trkpt lat="42.97726699999972" lon="-1.3969259999999988">
        <ele>835.808</ele>
        <time>2022-08-24T13:30:09Z</time>
      </trkpt>
      <trkpt lat="42.97727299999972" lon="-1.3969889999999987">
        <ele>836.009</ele>
        <time>2022-08-24T13:30:11Z</time>
      </trkpt>
      <trkpt lat="42.97728299999972" lon="-1.3970149999999988">
        <ele>836.286</ele>
        <time>2022-08-24T13:30:12Z</time>
      </trkpt>
      <trkpt lat="42.977284999999725" lon="-1.3970529999999988">
        <ele>836.456</ele>
        <time>2022-08-24T13:30:13Z</time>
      </trkpt>
      <trkpt lat="42.97728699999973" lon="-1.3970569999999987">
        <ele>836.466</ele>
        <time>2022-08-24T13:30:14Z</time>
      </trkpt>
      <trkpt lat="42.97728699999973" lon="-1.3970569999999987">
        <ele>836.472</ele>
        <time>2022-08-24T13:30:15Z</time>
      </trkpt>
      <trkpt lat="42.97728699999973" lon="-1.3970569999999987">
        <ele>836.454</ele>
        <time>2022-08-24T13:30:16Z</time>
      </trkpt>
      <trkpt lat="42.97728699999973" lon="-1.3970569999999987">
        <ele>836.461</ele>
        <time>2022-08-24T13:30:17Z</time>
      </trkpt>
      <trkpt lat="42.97728699999973" lon="-1.3970569999999987">
        <ele>836.484</ele>
        <time>2022-08-24T13:30:18Z</time>
      </trkpt>
      <trkpt lat="42.97728399999973" lon="-1.3970859999999987">
        <ele>836.098</ele>
        <time>2022-08-24T13:30:33Z</time>
      </trkpt>
      <trkpt lat="42.97728399999973" lon="-1.3971039999999988">
        <ele>836.097</ele>
        <time>2022-08-24T13:30:34Z</time>
      </trkpt>
      <trkpt lat="42.97728899999973" lon="-1.3971229999999988">
        <ele>836.086</ele>
        <time>2022-08-24T13:30:35Z</time>
      </trkpt>
      <trkpt lat="42.977289999999726" lon="-1.3971329999999988">
        <ele>835.660</ele>
        <time>2022-08-24T13:30:38Z</time>
      </trkpt>
      <trkpt lat="42.977289999999726" lon="-1.3971329999999988">
        <ele>834.426</ele>
        <time>2022-08-24T13:30:41Z</time>
      </trkpt>
      <trkpt lat="42.977289999999726" lon="-1.3971329999999988">
        <ele>834.409</ele>
        <time>2022-08-24T13:30:42Z</time>
      </trkpt>
      <trkpt lat="42.97728899999973" lon="-1.3971409999999989">
        <ele>833.449</ele>
        <time>2022-08-24T13:30:45Z</time>
      </trkpt>
      <trkpt lat="42.97734999999973" lon="-1.3973189999999989">
        <ele>832.869</ele>
        <time>2022-08-24T13:30:50Z</time>
      </trkpt>
      <trkpt lat="42.977387999999735" lon="-1.3974079999999989">
        <ele>832.669</ele>
        <time>2022-08-24T13:30:52Z</time>
      </trkpt>
      <trkpt lat="42.97740399999974" lon="-1.397444999999999">
        <ele>832.085</ele>
        <time>2022-08-24T13:30:53Z</time>
      </trkpt>
      <trkpt lat="42.97741699999974" lon="-1.397476999999999">
        <ele>831.847</ele>
        <time>2022-08-24T13:30:54Z</time>
      </trkpt>
      <trkpt lat="42.97742599999974" lon="-1.397498999999999">
        <ele>831.434</ele>
        <time>2022-08-24T13:30:55Z</time>
      </trkpt>
      <trkpt lat="42.97743699999974" lon="-1.3975269999999989">
        <ele>831.287</ele>
        <time>2022-08-24T13:30:56Z</time>
      </trkpt>
      <trkpt lat="42.97744799999974" lon="-1.397555999999999">
        <ele>830.821</ele>
        <time>2022-08-24T13:30:57Z</time>
      </trkpt>
      <trkpt lat="42.97746199999974" lon="-1.397579999999999">
        <ele>830.670</ele>
        <time>2022-08-24T13:30:58Z</time>
      </trkpt>
      <trkpt lat="42.97746699999974" lon="-1.397600999999999">
        <ele>830.483</ele>
        <time>2022-08-24T13:30:59Z</time>
      </trkpt>
      <trkpt lat="42.977476999999745" lon="-1.397623999999999">
        <ele>829.825</ele>
        <time>2022-08-24T13:31:00Z</time>
      </trkpt>
      <trkpt lat="42.977487999999745" lon="-1.397645999999999">
        <ele>829.817</ele>
        <time>2022-08-24T13:31:01Z</time>
      </trkpt>
      <trkpt lat="42.97748999999975" lon="-1.397656999999999">
        <ele>829.609</ele>
        <time>2022-08-24T13:31:02Z</time>
      </trkpt>
      <trkpt lat="42.97750999999975" lon="-1.397680999999999">
        <ele>829.259</ele>
        <time>2022-08-24T13:31:03Z</time>
      </trkpt>
      <trkpt lat="42.97752099999975" lon="-1.3977069999999991">
        <ele>829.039</ele>
        <time>2022-08-24T13:31:04Z</time>
      </trkpt>
      <trkpt lat="42.977524999999744" lon="-1.3977179999999991">
        <ele>828.819</ele>
        <time>2022-08-24T13:31:05Z</time>
      </trkpt>
      <trkpt lat="42.97752599999974" lon="-1.397720999999999">
        <ele>828.465</ele>
        <time>2022-08-24T13:31:06Z</time>
      </trkpt>
      <trkpt lat="42.97752599999974" lon="-1.397720999999999">
        <ele>828.077</ele>
        <time>2022-08-24T13:31:07Z</time>
      </trkpt>
      <trkpt lat="42.97752699999974" lon="-1.397831999999999">
        <ele>826.024</ele>
        <time>2022-08-24T13:31:22Z</time>
      </trkpt>
      <trkpt lat="42.97752599999974" lon="-1.397842999999999">
        <ele>826.017</ele>
        <time>2022-08-24T13:31:23Z</time>
      </trkpt>
      <trkpt lat="42.97752099999974" lon="-1.397856999999999">
        <ele>826.041</ele>
        <time>2022-08-24T13:31:24Z</time>
      </trkpt>
      <trkpt lat="42.97751999999974" lon="-1.397895999999999">
        <ele>825.640</ele>
        <time>2022-08-24T13:31:27Z</time>
      </trkpt>
      <trkpt lat="42.97751699999974" lon="-1.397906999999999">
        <ele>825.433</ele>
        <time>2022-08-24T13:31:28Z</time>
      </trkpt>
      <trkpt lat="42.97751399999974" lon="-1.397919999999999">
        <ele>825.223</ele>
        <time>2022-08-24T13:31:29Z</time>
      </trkpt>
      <trkpt lat="42.97750899999974" lon="-1.397942999999999">
        <ele>825.015</ele>
        <time>2022-08-24T13:31:31Z</time>
      </trkpt>
      <trkpt lat="42.97750099999974" lon="-1.3979769999999991">
        <ele>824.409</ele>
        <time>2022-08-24T13:31:34Z</time>
      </trkpt>
      <trkpt lat="42.97749899999974" lon="-1.397988999999999">
        <ele>824.274</ele>
        <time>2022-08-24T13:31:35Z</time>
      </trkpt>
      <trkpt lat="42.97749699999974" lon="-1.398001999999999">
        <ele>824.044</ele>
        <time>2022-08-24T13:31:36Z</time>
      </trkpt>
      <trkpt lat="42.97749699999974" lon="-1.3980149999999991">
        <ele>823.874</ele>
        <time>2022-08-24T13:31:37Z</time>
      </trkpt>
      <trkpt lat="42.977500999999734" lon="-1.398047999999999">
        <ele>822.680</ele>
        <time>2022-08-24T13:31:40Z</time>
      </trkpt>
      <trkpt lat="42.97750199999973" lon="-1.3980499999999991">
        <ele>822.432</ele>
        <time>2022-08-24T13:31:41Z</time>
      </trkpt>
      <trkpt lat="42.97750399999973" lon="-1.3980549999999992">
        <ele>822.269</ele>
        <time>2022-08-24T13:31:42Z</time>
      </trkpt>
      <trkpt lat="42.97750399999973" lon="-1.3980549999999992">
        <ele>822.082</ele>
        <time>2022-08-24T13:31:43Z</time>
      </trkpt>
      <trkpt lat="42.97750399999973" lon="-1.3980549999999992">
        <ele>821.846</ele>
        <time>2022-08-24T13:31:44Z</time>
      </trkpt>
      <trkpt lat="42.977502999999736" lon="-1.398058999999999">
        <ele>821.645</ele>
        <time>2022-08-24T13:31:45Z</time>
      </trkpt>
      <trkpt lat="42.977513999999736" lon="-1.398086999999999">
        <ele>821.232</ele>
        <time>2022-08-24T13:31:48Z</time>
      </trkpt>
      <trkpt lat="42.97752399999974" lon="-1.398112999999999">
        <ele>820.892</ele>
        <time>2022-08-24T13:31:50Z</time>
      </trkpt>
      <trkpt lat="42.97752499999974" lon="-1.398126999999999">
        <ele>820.811</ele>
        <time>2022-08-24T13:31:51Z</time>
      </trkpt>
      <trkpt lat="42.977530999999736" lon="-1.398153999999999">
        <ele>820.409</ele>
        <time>2022-08-24T13:31:53Z</time>
      </trkpt>
      <trkpt lat="42.977533999999736" lon="-1.398170999999999">
        <ele>819.824</ele>
        <time>2022-08-24T13:31:55Z</time>
      </trkpt>
      <trkpt lat="42.97753499999973" lon="-1.398175999999999">
        <ele>819.254</ele>
        <time>2022-08-24T13:31:57Z</time>
      </trkpt>
      <trkpt lat="42.97753499999973" lon="-1.398175999999999">
        <ele>818.824</ele>
        <time>2022-08-24T13:31:59Z</time>
      </trkpt>
      <trkpt lat="42.97752999999973" lon="-1.398199999999999">
        <ele>818.470</ele>
        <time>2022-08-24T13:32:05Z</time>
      </trkpt>
      <trkpt lat="42.97753099999973" lon="-1.398201999999999">
        <ele>818.242</ele>
        <time>2022-08-24T13:32:07Z</time>
      </trkpt>
      <trkpt lat="42.97753599999973" lon="-1.3982249999999992">
        <ele>817.629</ele>
        <time>2022-08-24T13:32:13Z</time>
      </trkpt>
      <trkpt lat="42.97754799999973" lon="-1.3982519999999992">
        <ele>817.422</ele>
        <time>2022-08-24T13:32:16Z</time>
      </trkpt>
      <trkpt lat="42.97754799999973" lon="-1.3982519999999992">
        <ele>817.066</ele>
        <time>2022-08-24T13:32:20Z</time>
      </trkpt>
      <trkpt lat="42.97754799999973" lon="-1.3982519999999992">
        <ele>816.835</ele>
        <time>2022-08-24T13:32:22Z</time>
      </trkpt>
      <trkpt lat="42.97754799999973" lon="-1.3982519999999992">
        <ele>816.432</ele>
        <time>2022-08-24T13:32:23Z</time>
      </trkpt>
      <trkpt lat="42.97755099999973" lon="-1.3982599999999992">
        <ele>816.292</ele>
        <time>2022-08-24T13:32:24Z</time>
      </trkpt>
      <trkpt lat="42.977554999999725" lon="-1.3982809999999992">
        <ele>816.011</ele>
        <time>2022-08-24T13:32:25Z</time>
      </trkpt>
      <trkpt lat="42.977557999999725" lon="-1.3982929999999991">
        <ele>815.809</ele>
        <time>2022-08-24T13:32:26Z</time>
      </trkpt>
      <trkpt lat="42.97757399999973" lon="-1.398387999999999">
        <ele>814.654</ele>
        <time>2022-08-24T13:32:37Z</time>
      </trkpt>
      <trkpt lat="42.977560999999724" lon="-1.398414999999999">
        <ele>814.424</ele>
        <time>2022-08-24T13:32:41Z</time>
      </trkpt>
      <trkpt lat="42.97755899999972" lon="-1.398415999999999">
        <ele>814.034</ele>
        <time>2022-08-24T13:32:47Z</time>
      </trkpt>
      <trkpt lat="42.977549999999724" lon="-1.398424999999999">
        <ele>814.040</ele>
        <time>2022-08-24T13:32:48Z</time>
      </trkpt>
      <trkpt lat="42.977498999999725" lon="-1.398453999999999">
        <ele>814.082</ele>
        <time>2022-08-24T13:32:51Z</time>
      </trkpt>
      <trkpt lat="42.97747799999973" lon="-1.3984579999999989">
        <ele>813.839</ele>
        <time>2022-08-24T13:32:52Z</time>
      </trkpt>
      <trkpt lat="42.977363999999724" lon="-1.398459999999999">
        <ele>813.282</ele>
        <time>2022-08-24T13:32:56Z</time>
      </trkpt>
      <trkpt lat="42.977340999999726" lon="-1.398455999999999">
        <ele>813.286</ele>
        <time>2022-08-24T13:32:57Z</time>
      </trkpt>
      <trkpt lat="42.97730599999973" lon="-1.398448999999999">
        <ele>813.075</ele>
        <time>2022-08-24T13:32:58Z</time>
      </trkpt>
      <trkpt lat="42.977250999999725" lon="-1.398429999999999">
        <ele>812.842</ele>
        <time>2022-08-24T13:33:00Z</time>
      </trkpt>
      <trkpt lat="42.97719599999972" lon="-1.398408999999999">
        <ele>812.622</ele>
        <time>2022-08-24T13:33:02Z</time>
      </trkpt>
      <trkpt lat="42.97710599999972" lon="-1.398399999999999">
        <ele>812.014</ele>
        <time>2022-08-24T13:33:05Z</time>
      </trkpt>
      <trkpt lat="42.977084999999725" lon="-1.398400999999999">
        <ele>811.409</ele>
        <time>2022-08-24T13:33:06Z</time>
      </trkpt>
      <trkpt lat="42.97705299999973" lon="-1.3984119999999989">
        <ele>811.225</ele>
        <time>2022-08-24T13:33:07Z</time>
      </trkpt>
      <trkpt lat="42.97701399999973" lon="-1.3984239999999988">
        <ele>810.435</ele>
        <time>2022-08-24T13:33:08Z</time>
      </trkpt>
      <trkpt lat="42.97696599999973" lon="-1.3984389999999989">
        <ele>810.295</ele>
        <time>2022-08-24T13:33:09Z</time>
      </trkpt>
      <trkpt lat="42.976938999999724" lon="-1.3984499999999989">
        <ele>809.841</ele>
        <time>2022-08-24T13:33:10Z</time>
      </trkpt>
      <trkpt lat="42.976901999999725" lon="-1.3984619999999988">
        <ele>809.293</ele>
        <time>2022-08-24T13:33:11Z</time>
      </trkpt>
      <trkpt lat="42.976820999999724" lon="-1.3985049999999988">
        <ele>808.280</ele>
        <time>2022-08-24T13:33:14Z</time>
      </trkpt>
      <trkpt lat="42.97680799999972" lon="-1.3985359999999987">
        <ele>807.833</ele>
        <time>2022-08-24T13:33:15Z</time>
      </trkpt>
      <trkpt lat="42.97679799999972" lon="-1.3985719999999986">
        <ele>807.617</ele>
        <time>2022-08-24T13:33:16Z</time>
      </trkpt>
      <trkpt lat="42.976784999999715" lon="-1.3986069999999986">
        <ele>806.456</ele>
        <time>2022-08-24T13:33:17Z</time>
      </trkpt>
      <trkpt lat="42.97676199999972" lon="-1.3986369999999986">
        <ele>805.885</ele>
        <time>2022-08-24T13:33:18Z</time>
      </trkpt>
      <trkpt lat="42.97673299999972" lon="-1.3986519999999987">
        <ele>805.689</ele>
        <time>2022-08-24T13:33:19Z</time>
      </trkpt>
      <trkpt lat="42.97669699999972" lon="-1.3986579999999986">
        <ele>805.417</ele>
        <time>2022-08-24T13:33:20Z</time>
      </trkpt>
      <trkpt lat="42.976660999999716" lon="-1.3986539999999987">
        <ele>805.209</ele>
        <time>2022-08-24T13:33:21Z</time>
      </trkpt>
      <trkpt lat="42.976627999999714" lon="-1.3986459999999987">
        <ele>805.059</ele>
        <time>2022-08-24T13:33:22Z</time>
      </trkpt>
      <trkpt lat="42.97659599999972" lon="-1.3986339999999988">
        <ele>804.819</ele>
        <time>2022-08-24T13:33:23Z</time>
      </trkpt>
      <trkpt lat="42.97656499999972" lon="-1.3986189999999987">
        <ele>804.849</ele>
        <time>2022-08-24T13:33:24Z</time>
      </trkpt>
      <trkpt lat="42.97653599999972" lon="-1.3986119999999986">
        <ele>804.685</ele>
        <time>2022-08-24T13:33:25Z</time>
      </trkpt>
      <trkpt lat="42.97651099999972" lon="-1.3986149999999986">
        <ele>804.677</ele>
        <time>2022-08-24T13:33:26Z</time>
      </trkpt>
      <trkpt lat="42.976491999999716" lon="-1.3986229999999986">
        <ele>804.644</ele>
        <time>2022-08-24T13:33:27Z</time>
      </trkpt>
      <trkpt lat="42.97647199999972" lon="-1.3986309999999986">
        <ele>804.617</ele>
        <time>2022-08-24T13:33:28Z</time>
      </trkpt>
      <trkpt lat="42.976455999999715" lon="-1.3986439999999987">
        <ele>804.671</ele>
        <time>2022-08-24T13:33:29Z</time>
      </trkpt>
      <trkpt lat="42.97644099999972" lon="-1.3986619999999987">
        <ele>804.460</ele>
        <time>2022-08-24T13:33:30Z</time>
      </trkpt>
      <trkpt lat="42.976429999999716" lon="-1.3986809999999987">
        <ele>804.455</ele>
        <time>2022-08-24T13:33:31Z</time>
      </trkpt>
      <trkpt lat="42.976427999999714" lon="-1.3986939999999988">
        <ele>804.407</ele>
        <time>2022-08-24T13:33:32Z</time>
      </trkpt>
      <trkpt lat="42.976421999999715" lon="-1.3987079999999987">
        <ele>804.417</ele>
        <time>2022-08-24T13:33:33Z</time>
      </trkpt>
      <trkpt lat="42.976415999999716" lon="-1.3987239999999987">
        <ele>804.609</ele>
        <time>2022-08-24T13:33:34Z</time>
      </trkpt>
      <trkpt lat="42.97640999999972" lon="-1.3987429999999987">
        <ele>804.656</ele>
        <time>2022-08-24T13:33:35Z</time>
      </trkpt>
      <trkpt lat="42.976404999999716" lon="-1.3987639999999988">
        <ele>804.676</ele>
        <time>2022-08-24T13:33:36Z</time>
      </trkpt>
      <trkpt lat="42.97639599999972" lon="-1.3987809999999987">
        <ele>804.816</ele>
        <time>2022-08-24T13:33:37Z</time>
      </trkpt>
      <trkpt lat="42.976384999999716" lon="-1.3987989999999988">
        <ele>805.072</ele>
        <time>2022-08-24T13:33:38Z</time>
      </trkpt>
      <trkpt lat="42.976373999999716" lon="-1.3988179999999988">
        <ele>805.244</ele>
        <time>2022-08-24T13:33:39Z</time>
      </trkpt>
      <trkpt lat="42.976362999999715" lon="-1.3988319999999987">
        <ele>805.481</ele>
        <time>2022-08-24T13:33:40Z</time>
      </trkpt>
      <trkpt lat="42.97635099999972" lon="-1.3988429999999987">
        <ele>805.834</ele>
        <time>2022-08-24T13:33:41Z</time>
      </trkpt>
      <trkpt lat="42.97633599999972" lon="-1.3988539999999987">
        <ele>806.048</ele>
        <time>2022-08-24T13:33:42Z</time>
      </trkpt>
      <trkpt lat="42.97631999999972" lon="-1.3988679999999987">
        <ele>806.287</ele>
        <time>2022-08-24T13:33:43Z</time>
      </trkpt>
      <trkpt lat="42.976306999999714" lon="-1.3988769999999986">
        <ele>806.624</ele>
        <time>2022-08-24T13:33:44Z</time>
      </trkpt>
      <trkpt lat="42.97628799999971" lon="-1.3989029999999987">
        <ele>807.204</ele>
        <time>2022-08-24T13:33:46Z</time>
      </trkpt>
      <trkpt lat="42.976283999999715" lon="-1.3989159999999987">
        <ele>807.414</ele>
        <time>2022-08-24T13:33:47Z</time>
      </trkpt>
      <trkpt lat="42.97627499999972" lon="-1.3989279999999986">
        <ele>807.609</ele>
        <time>2022-08-24T13:33:48Z</time>
      </trkpt>
      <trkpt lat="42.97624599999972" lon="-1.3989779999999987">
        <ele>808.443</ele>
        <time>2022-08-24T13:33:52Z</time>
      </trkpt>
      <trkpt lat="42.97623799999972" lon="-1.3989909999999988">
        <ele>808.643</ele>
        <time>2022-08-24T13:33:53Z</time>
      </trkpt>
      <trkpt lat="42.97621799999972" lon="-1.3990319999999987">
        <ele>808.833</ele>
        <time>2022-08-24T13:33:55Z</time>
      </trkpt>
      <trkpt lat="42.97619799999972" lon="-1.3990509999999987">
        <ele>808.839</ele>
        <time>2022-08-24T13:33:56Z</time>
      </trkpt>
      <trkpt lat="42.97618899999972" lon="-1.3990639999999988">
        <ele>808.821</ele>
        <time>2022-08-24T13:33:57Z</time>
      </trkpt>
      <trkpt lat="42.97618099999972" lon="-1.3990849999999988">
        <ele>809.248</ele>
        <time>2022-08-24T13:33:58Z</time>
      </trkpt>
      <trkpt lat="42.97616499999972" lon="-1.3991039999999988">
        <ele>809.211</ele>
        <time>2022-08-24T13:33:59Z</time>
      </trkpt>
      <trkpt lat="42.976159999999716" lon="-1.3991179999999988">
        <ele>809.435</ele>
        <time>2022-08-24T13:34:00Z</time>
      </trkpt>
      <trkpt lat="42.976157999999714" lon="-1.3991209999999987">
        <ele>809.874</ele>
        <time>2022-08-24T13:34:01Z</time>
      </trkpt>
      <trkpt lat="42.97615899999971" lon="-1.3991279999999988">
        <ele>810.048</ele>
        <time>2022-08-24T13:34:02Z</time>
      </trkpt>
      <trkpt lat="42.97615099999971" lon="-1.3991309999999988">
        <ele>810.261</ele>
        <time>2022-08-24T13:34:03Z</time>
      </trkpt>
      <trkpt lat="42.97613299999971" lon="-1.3991359999999988">
        <ele>810.417</ele>
        <time>2022-08-24T13:34:04Z</time>
      </trkpt>
      <trkpt lat="42.976126999999714" lon="-1.3991599999999988">
        <ele>810.409</ele>
        <time>2022-08-24T13:34:05Z</time>
      </trkpt>
      <trkpt lat="42.976111999999716" lon="-1.3991789999999988">
        <ele>810.475</ele>
        <time>2022-08-24T13:34:06Z</time>
      </trkpt>
      <trkpt lat="42.97609499999972" lon="-1.3992029999999989">
        <ele>810.845</ele>
        <time>2022-08-24T13:34:07Z</time>
      </trkpt>
      <trkpt lat="42.976075999999715" lon="-1.3992299999999989">
        <ele>811.275</ele>
        <time>2022-08-24T13:34:08Z</time>
      </trkpt>
      <trkpt lat="42.97605799999972" lon="-1.3992489999999989">
        <ele>811.281</ele>
        <time>2022-08-24T13:34:09Z</time>
      </trkpt>
      <trkpt lat="42.97604099999972" lon="-1.399261999999999">
        <ele>811.483</ele>
        <time>2022-08-24T13:34:10Z</time>
      </trkpt>
      <trkpt lat="42.97602999999972" lon="-1.3992659999999988">
        <ele>811.440</ele>
        <time>2022-08-24T13:34:11Z</time>
      </trkpt>
      <trkpt lat="42.976027999999715" lon="-1.3992679999999988">
        <ele>811.663</ele>
        <time>2022-08-24T13:34:12Z</time>
      </trkpt>
      <trkpt lat="42.97601199999971" lon="-1.399269999999999">
        <ele>811.877</ele>
        <time>2022-08-24T13:34:13Z</time>
      </trkpt>
      <trkpt lat="42.97601299999971" lon="-1.399287999999999">
        <ele>812.066</ele>
        <time>2022-08-24T13:34:14Z</time>
      </trkpt>
      <trkpt lat="42.97599799999971" lon="-1.399294999999999">
        <ele>812.282</ele>
        <time>2022-08-24T13:34:15Z</time>
      </trkpt>
      <trkpt lat="42.97599799999971" lon="-1.399306999999999">
        <ele>812.443</ele>
        <time>2022-08-24T13:34:16Z</time>
      </trkpt>
      <trkpt lat="42.97599599999971" lon="-1.399333999999999">
        <ele>812.617</ele>
        <time>2022-08-24T13:34:17Z</time>
      </trkpt>
      <trkpt lat="42.97598999999971" lon="-1.399360999999999">
        <ele>812.609</ele>
        <time>2022-08-24T13:34:18Z</time>
      </trkpt>
      <trkpt lat="42.97598999999971" lon="-1.399381999999999">
        <ele>812.829</ele>
        <time>2022-08-24T13:34:19Z</time>
      </trkpt>
      <trkpt lat="42.97598399999971" lon="-1.399393999999999">
        <ele>812.859</ele>
        <time>2022-08-24T13:34:20Z</time>
      </trkpt>
      <trkpt lat="42.97597599999971" lon="-1.3993999999999989">
        <ele>813.069</ele>
        <time>2022-08-24T13:34:21Z</time>
      </trkpt>
      <trkpt lat="42.975968999999715" lon="-1.399409999999999">
        <ele>813.265</ele>
        <time>2022-08-24T13:34:22Z</time>
      </trkpt>
      <trkpt lat="42.975965999999715" lon="-1.399422999999999">
        <ele>813.487</ele>
        <time>2022-08-24T13:34:23Z</time>
      </trkpt>
      <trkpt lat="42.97595899999972" lon="-1.3994349999999989">
        <ele>813.654</ele>
        <time>2022-08-24T13:34:24Z</time>
      </trkpt>
      <trkpt lat="42.97595099999972" lon="-1.3994429999999989">
        <ele>813.617</ele>
        <time>2022-08-24T13:34:25Z</time>
      </trkpt>
      <trkpt lat="42.97593899999972" lon="-1.399450999999999">
        <ele>813.891</ele>
        <time>2022-08-24T13:34:26Z</time>
      </trkpt>
      <trkpt lat="42.97592699999972" lon="-1.3994569999999988">
        <ele>813.860</ele>
        <time>2022-08-24T13:34:27Z</time>
      </trkpt>
      <trkpt lat="42.97591599999972" lon="-1.399458999999999">
        <ele>814.073</ele>
        <time>2022-08-24T13:34:28Z</time>
      </trkpt>
      <trkpt lat="42.97590299999972" lon="-1.3994679999999988">
        <ele>814.085</ele>
        <time>2022-08-24T13:34:29Z</time>
      </trkpt>
      <trkpt lat="42.97588599999972" lon="-1.399482999999999">
        <ele>814.213</ele>
        <time>2022-08-24T13:34:30Z</time>
      </trkpt>
      <trkpt lat="42.975869999999716" lon="-1.399497999999999">
        <ele>814.209</ele>
        <time>2022-08-24T13:34:31Z</time>
      </trkpt>
      <trkpt lat="42.975847999999715" lon="-1.399513999999999">
        <ele>814.458</ele>
        <time>2022-08-24T13:34:32Z</time>
      </trkpt>
      <trkpt lat="42.975824999999716" lon="-1.399531999999999">
        <ele>814.448</ele>
        <time>2022-08-24T13:34:33Z</time>
      </trkpt>
      <trkpt lat="42.97580199999972" lon="-1.399548999999999">
        <ele>814.638</ele>
        <time>2022-08-24T13:34:34Z</time>
      </trkpt>
      <trkpt lat="42.97578199999972" lon="-1.399562999999999">
        <ele>814.644</ele>
        <time>2022-08-24T13:34:35Z</time>
      </trkpt>
      <trkpt lat="42.975762999999716" lon="-1.399579999999999">
        <ele>814.676</ele>
        <time>2022-08-24T13:34:36Z</time>
      </trkpt>
      <trkpt lat="42.975748999999716" lon="-1.399598999999999">
        <ele>814.683</ele>
        <time>2022-08-24T13:34:37Z</time>
      </trkpt>
      <trkpt lat="42.975732999999714" lon="-1.3996159999999989">
        <ele>814.686</ele>
        <time>2022-08-24T13:34:38Z</time>
      </trkpt>
      <trkpt lat="42.97571699999971" lon="-1.3996359999999988">
        <ele>814.820</ele>
        <time>2022-08-24T13:34:39Z</time>
      </trkpt>
      <trkpt lat="42.975698999999715" lon="-1.3996569999999988">
        <ele>814.879</ele>
        <time>2022-08-24T13:34:40Z</time>
      </trkpt>
      <trkpt lat="42.975684999999714" lon="-1.3996809999999988">
        <ele>814.838</ele>
        <time>2022-08-24T13:34:41Z</time>
      </trkpt>
      <trkpt lat="42.97566399999972" lon="-1.3997049999999989">
        <ele>815.070</ele>
        <time>2022-08-24T13:34:42Z</time>
      </trkpt>
      <trkpt lat="42.97565499999972" lon="-1.399722999999999">
        <ele>815.017</ele>
        <time>2022-08-24T13:34:43Z</time>
      </trkpt>
      <trkpt lat="42.97563899999972" lon="-1.399743999999999">
        <ele>815.009</ele>
        <time>2022-08-24T13:34:44Z</time>
      </trkpt>
      <trkpt lat="42.975625999999714" lon="-1.399764999999999">
        <ele>815.284</ele>
        <time>2022-08-24T13:34:45Z</time>
      </trkpt>
      <trkpt lat="42.97561099999972" lon="-1.399784999999999">
        <ele>815.654</ele>
        <time>2022-08-24T13:34:46Z</time>
      </trkpt>
      <trkpt lat="42.97559899999972" lon="-1.3998019999999989">
        <ele>815.664</ele>
        <time>2022-08-24T13:34:47Z</time>
      </trkpt>
      <trkpt lat="42.97554999999972" lon="-1.399881999999999">
        <ele>816.260</ele>
        <time>2022-08-24T13:34:51Z</time>
      </trkpt>
      <trkpt lat="42.97553999999972" lon="-1.399900999999999">
        <ele>816.232</ele>
        <time>2022-08-24T13:34:52Z</time>
      </trkpt>
      <trkpt lat="42.97551999999972" lon="-1.3999319999999988">
        <ele>816.289</ele>
        <time>2022-08-24T13:34:54Z</time>
      </trkpt>
      <trkpt lat="42.97547399999972" lon="-1.4000029999999988">
        <ele>816.842</ele>
        <time>2022-08-24T13:34:58Z</time>
      </trkpt>
      <trkpt lat="42.97546199999972" lon="-1.4000179999999989">
        <ele>817.066</ele>
        <time>2022-08-24T13:34:59Z</time>
      </trkpt>
      <trkpt lat="42.97543099999972" lon="-1.400046999999999">
        <ele>817.255</ele>
        <time>2022-08-24T13:35:01Z</time>
      </trkpt>
      <trkpt lat="42.975421999999725" lon="-1.400060999999999">
        <ele>817.476</ele>
        <time>2022-08-24T13:35:02Z</time>
      </trkpt>
      <trkpt lat="42.97540699999973" lon="-1.4000729999999988">
        <ele>817.490</ele>
        <time>2022-08-24T13:35:03Z</time>
      </trkpt>
      <trkpt lat="42.97538999999973" lon="-1.4000839999999988">
        <ele>817.819</ele>
        <time>2022-08-24T13:35:04Z</time>
      </trkpt>
      <trkpt lat="42.975376999999725" lon="-1.4000959999999987">
        <ele>817.809</ele>
        <time>2022-08-24T13:35:05Z</time>
      </trkpt>
      <trkpt lat="42.97536099999972" lon="-1.4001069999999987">
        <ele>817.838</ele>
        <time>2022-08-24T13:35:06Z</time>
      </trkpt>
      <trkpt lat="42.97534799999972" lon="-1.4001209999999986">
        <ele>818.258</ele>
        <time>2022-08-24T13:35:07Z</time>
      </trkpt>
      <trkpt lat="42.97533499999972" lon="-1.4001389999999987">
        <ele>818.288</ele>
        <time>2022-08-24T13:35:08Z</time>
      </trkpt>
      <trkpt lat="42.975329999999715" lon="-1.4001599999999987">
        <ele>818.274</ele>
        <time>2022-08-24T13:35:09Z</time>
      </trkpt>
      <trkpt lat="42.975315999999715" lon="-1.4001789999999987">
        <ele>818.226</ele>
        <time>2022-08-24T13:35:10Z</time>
      </trkpt>
      <trkpt lat="42.97530099999972" lon="-1.4001959999999987">
        <ele>818.433</ele>
        <time>2022-08-24T13:35:11Z</time>
      </trkpt>
      <trkpt lat="42.97527799999972" lon="-1.4002179999999986">
        <ele>818.486</ele>
        <time>2022-08-24T13:35:12Z</time>
      </trkpt>
      <trkpt lat="42.97525799999972" lon="-1.4002429999999986">
        <ele>818.630</ele>
        <time>2022-08-24T13:35:13Z</time>
      </trkpt>
      <trkpt lat="42.97523599999972" lon="-1.4002739999999985">
        <ele>818.639</ele>
        <time>2022-08-24T13:35:14Z</time>
      </trkpt>
      <trkpt lat="42.97521599999972" lon="-1.4003049999999984">
        <ele>818.673</ele>
        <time>2022-08-24T13:35:15Z</time>
      </trkpt>
      <trkpt lat="42.97519599999972" lon="-1.4003359999999982">
        <ele>818.685</ele>
        <time>2022-08-24T13:35:16Z</time>
      </trkpt>
      <trkpt lat="42.97517599999972" lon="-1.4003639999999982">
        <ele>818.813</ele>
        <time>2022-08-24T13:35:17Z</time>
      </trkpt>
      <trkpt lat="42.97515399999972" lon="-1.400394999999998">
        <ele>819.009</ele>
        <time>2022-08-24T13:35:18Z</time>
      </trkpt>
      <trkpt lat="42.97513399999972" lon="-1.400424999999998">
        <ele>819.058</ele>
        <time>2022-08-24T13:35:19Z</time>
      </trkpt>
      <trkpt lat="42.97510599999972" lon="-1.400454999999998">
        <ele>819.058</ele>
        <time>2022-08-24T13:35:20Z</time>
      </trkpt>
      <trkpt lat="42.97507799999972" lon="-1.400480999999998">
        <ele>819.278</ele>
        <time>2022-08-24T13:35:21Z</time>
      </trkpt>
      <trkpt lat="42.97505299999972" lon="-1.4005069999999982">
        <ele>819.274</ele>
        <time>2022-08-24T13:35:22Z</time>
      </trkpt>
      <trkpt lat="42.975028999999715" lon="-1.400534999999998">
        <ele>819.476</ele>
        <time>2022-08-24T13:35:23Z</time>
      </trkpt>
      <trkpt lat="42.975003999999714" lon="-1.400561999999998">
        <ele>819.413</ele>
        <time>2022-08-24T13:35:24Z</time>
      </trkpt>
      <trkpt lat="42.974885999999714" lon="-1.400699999999998">
        <ele>819.476</ele>
        <time>2022-08-24T13:35:29Z</time>
      </trkpt>
      <trkpt lat="42.974701999999716" lon="-1.400897999999998">
        <ele>819.040</ele>
        <time>2022-08-24T13:35:35Z</time>
      </trkpt>
      <trkpt lat="42.97459399999972" lon="-1.401000999999998">
        <ele>818.679</ele>
        <time>2022-08-24T13:35:38Z</time>
      </trkpt>
      <trkpt lat="42.97456099999972" lon="-1.401034999999998">
        <ele>818.483</ele>
        <time>2022-08-24T13:35:39Z</time>
      </trkpt>
      <trkpt lat="42.974527999999715" lon="-1.401067999999998">
        <ele>818.625</ele>
        <time>2022-08-24T13:35:40Z</time>
      </trkpt>
      <trkpt lat="42.97446199999972" lon="-1.4011339999999979">
        <ele>818.417</ele>
        <time>2022-08-24T13:35:42Z</time>
      </trkpt>
      <trkpt lat="42.97442499999972" lon="-1.401162999999998">
        <ele>818.209</ele>
        <time>2022-08-24T13:35:43Z</time>
      </trkpt>
      <trkpt lat="42.97421699999972" lon="-1.401380999999998">
        <ele>817.469</ele>
        <time>2022-08-24T13:35:49Z</time>
      </trkpt>
      <trkpt lat="42.974147999999715" lon="-1.401475999999998">
        <ele>817.299</ele>
        <time>2022-08-24T13:35:51Z</time>
      </trkpt>
      <trkpt lat="42.974021999999714" lon="-1.4017089999999979">
        <ele>816.899</ele>
        <time>2022-08-24T13:35:55Z</time>
      </trkpt>
      <trkpt lat="42.973970999999715" lon="-1.4018279999999979">
        <ele>816.495</ele>
        <time>2022-08-24T13:35:57Z</time>
      </trkpt>
      <trkpt lat="42.973945999999714" lon="-1.4018909999999978">
        <ele>816.287</ele>
        <time>2022-08-24T13:35:58Z</time>
      </trkpt>
      <trkpt lat="42.97387899999971" lon="-1.4020919999999977">
        <ele>815.264</ele>
        <time>2022-08-24T13:36:01Z</time>
      </trkpt>
      <trkpt lat="42.97383399999971" lon="-1.4022289999999977">
        <ele>813.637</ele>
        <time>2022-08-24T13:36:03Z</time>
      </trkpt>
      <trkpt lat="42.97380999999971" lon="-1.4023099999999977">
        <ele>812.841</ele>
        <time>2022-08-24T13:36:04Z</time>
      </trkpt>
      <trkpt lat="42.97378399999971" lon="-1.4023809999999977">
        <ele>812.430</ele>
        <time>2022-08-24T13:36:05Z</time>
      </trkpt>
      <trkpt lat="42.97367799999971" lon="-1.4025839999999976">
        <ele>811.477</ele>
        <time>2022-08-24T13:36:08Z</time>
      </trkpt>
      <trkpt lat="42.97363299999971" lon="-1.4026479999999977">
        <ele>810.661</ele>
        <time>2022-08-24T13:36:09Z</time>
      </trkpt>
      <trkpt lat="42.97359799999971" lon="-1.4026999999999976">
        <ele>810.027</ele>
        <time>2022-08-24T13:36:10Z</time>
      </trkpt>
      <trkpt lat="42.97355299999971" lon="-1.4027599999999976">
        <ele>809.209</ele>
        <time>2022-08-24T13:36:11Z</time>
      </trkpt>
      <trkpt lat="42.97350499999971" lon="-1.4028169999999975">
        <ele>809.068</ele>
        <time>2022-08-24T13:36:12Z</time>
      </trkpt>
      <trkpt lat="42.97340699999971" lon="-1.4029349999999976">
        <ele>807.678</ele>
        <time>2022-08-24T13:36:14Z</time>
      </trkpt>
      <trkpt lat="42.97336099999971" lon="-1.4029899999999975">
        <ele>806.848</ele>
        <time>2022-08-24T13:36:15Z</time>
      </trkpt>
      <trkpt lat="42.973323999999714" lon="-1.4030439999999975">
        <ele>805.624</ele>
        <time>2022-08-24T13:36:16Z</time>
      </trkpt>
      <trkpt lat="42.97327999999971" lon="-1.4031009999999975">
        <ele>805.226</ele>
        <time>2022-08-24T13:36:17Z</time>
      </trkpt>
      <trkpt lat="42.97324199999971" lon="-1.4031399999999974">
        <ele>804.473</ele>
        <time>2022-08-24T13:36:18Z</time>
      </trkpt>
      <trkpt lat="42.97320699999971" lon="-1.4031819999999975">
        <ele>803.846</ele>
        <time>2022-08-24T13:36:19Z</time>
      </trkpt>
      <trkpt lat="42.97317699999971" lon="-1.4032199999999975">
        <ele>802.880</ele>
        <time>2022-08-24T13:36:20Z</time>
      </trkpt>
      <trkpt lat="42.97313099999971" lon="-1.4032739999999975">
        <ele>802.089</ele>
        <time>2022-08-24T13:36:21Z</time>
      </trkpt>
      <trkpt lat="42.97307999999971" lon="-1.4033419999999974">
        <ele>801.846</ele>
        <time>2022-08-24T13:36:22Z</time>
      </trkpt>
      <trkpt lat="42.97300799999971" lon="-1.4034669999999974">
        <ele>800.888</ele>
        <time>2022-08-24T13:36:24Z</time>
      </trkpt>
      <trkpt lat="42.972980999999706" lon="-1.4035099999999974">
        <ele>800.416</ele>
        <time>2022-08-24T13:36:25Z</time>
      </trkpt>
      <trkpt lat="42.972910999999705" lon="-1.4036279999999974">
        <ele>799.209</ele>
        <time>2022-08-24T13:36:27Z</time>
      </trkpt>
      <trkpt lat="42.97288999999971" lon="-1.4036719999999974">
        <ele>798.655</ele>
        <time>2022-08-24T13:36:28Z</time>
      </trkpt>
      <trkpt lat="42.97286099999971" lon="-1.4037249999999974">
        <ele>798.475</ele>
        <time>2022-08-24T13:36:29Z</time>
      </trkpt>
      <trkpt lat="42.97282999999971" lon="-1.4037809999999975">
        <ele>797.435</ele>
        <time>2022-08-24T13:36:30Z</time>
      </trkpt>
      <trkpt lat="42.97279299999971" lon="-1.4038389999999974">
        <ele>796.881</ele>
        <time>2022-08-24T13:36:31Z</time>
      </trkpt>
      <trkpt lat="42.97273099999971" lon="-1.4039009999999974">
        <ele>795.823</ele>
        <time>2022-08-24T13:36:32Z</time>
      </trkpt>
      <trkpt lat="42.97266699999971" lon="-1.4039429999999975">
        <ele>794.810</ele>
        <time>2022-08-24T13:36:33Z</time>
      </trkpt>
      <trkpt lat="42.97260299999971" lon="-1.4039759999999974">
        <ele>793.683</ele>
        <time>2022-08-24T13:36:34Z</time>
      </trkpt>
      <trkpt lat="42.97255099999971" lon="-1.4039959999999974">
        <ele>792.867</ele>
        <time>2022-08-24T13:36:35Z</time>
      </trkpt>
      <trkpt lat="42.97248599999971" lon="-1.4040189999999975">
        <ele>792.456</ele>
        <time>2022-08-24T13:36:36Z</time>
      </trkpt>
      <trkpt lat="42.97241099999971" lon="-1.4040409999999974">
        <ele>791.428</ele>
        <time>2022-08-24T13:36:37Z</time>
      </trkpt>
      <trkpt lat="42.97235099999971" lon="-1.4040579999999974">
        <ele>790.689</ele>
        <time>2022-08-24T13:36:38Z</time>
      </trkpt>
      <trkpt lat="42.97230399999971" lon="-1.4040669999999973">
        <ele>789.617</ele>
        <time>2022-08-24T13:36:39Z</time>
      </trkpt>
      <trkpt lat="42.97224799999971" lon="-1.4040749999999973">
        <ele>788.209</ele>
        <time>2022-08-24T13:36:40Z</time>
      </trkpt>
      <trkpt lat="42.97219699999971" lon="-1.4040769999999974">
        <ele>787.423</ele>
        <time>2022-08-24T13:36:41Z</time>
      </trkpt>
      <trkpt lat="42.97215399999971" lon="-1.4040759999999974">
        <ele>786.423</ele>
        <time>2022-08-24T13:36:42Z</time>
      </trkpt>
      <trkpt lat="42.97211699999971" lon="-1.4040719999999975">
        <ele>786.043</ele>
        <time>2022-08-24T13:36:43Z</time>
      </trkpt>
      <trkpt lat="42.97208599999971" lon="-1.4040679999999977">
        <ele>785.449</ele>
        <time>2022-08-24T13:36:44Z</time>
      </trkpt>
      <trkpt lat="42.972050999999716" lon="-1.4040699999999977">
        <ele>785.271</ele>
        <time>2022-08-24T13:36:45Z</time>
      </trkpt>
      <trkpt lat="42.971977999999716" lon="-1.4040909999999978">
        <ele>784.028</ele>
        <time>2022-08-24T13:36:47Z</time>
      </trkpt>
      <trkpt lat="42.971958999999714" lon="-1.4041099999999977">
        <ele>783.411</ele>
        <time>2022-08-24T13:36:48Z</time>
      </trkpt>
      <trkpt lat="42.971943999999716" lon="-1.4041259999999978">
        <ele>782.685</ele>
        <time>2022-08-24T13:36:49Z</time>
      </trkpt>
      <trkpt lat="42.971932999999716" lon="-1.4041469999999978">
        <ele>782.024</ele>
        <time>2022-08-24T13:36:50Z</time>
      </trkpt>
      <trkpt lat="42.97190699999972" lon="-1.4041949999999979">
        <ele>781.228</ele>
        <time>2022-08-24T13:36:51Z</time>
      </trkpt>
      <trkpt lat="42.97189999999972" lon="-1.404247999999998">
        <ele>780.889</ele>
        <time>2022-08-24T13:36:52Z</time>
      </trkpt>
      <trkpt lat="42.97189499999972" lon="-1.4042919999999979">
        <ele>780.417</ele>
        <time>2022-08-24T13:36:53Z</time>
      </trkpt>
      <trkpt lat="42.971870999999716" lon="-1.404341999999998">
        <ele>780.009</ele>
        <time>2022-08-24T13:36:54Z</time>
      </trkpt>
      <trkpt lat="42.97185899999972" lon="-1.404396999999998">
        <ele>779.453</ele>
        <time>2022-08-24T13:36:55Z</time>
      </trkpt>
      <trkpt lat="42.97183799999972" lon="-1.4044699999999979">
        <ele>778.663</ele>
        <time>2022-08-24T13:36:56Z</time>
      </trkpt>
      <trkpt lat="42.971836999999724" lon="-1.404595999999998">
        <ele>777.653</ele>
        <time>2022-08-24T13:36:58Z</time>
      </trkpt>
      <trkpt lat="42.97182299999972" lon="-1.404665999999998">
        <ele>776.489</ele>
        <time>2022-08-24T13:36:59Z</time>
      </trkpt>
      <trkpt lat="42.971818999999726" lon="-1.4047239999999979">
        <ele>776.041</ele>
        <time>2022-08-24T13:37:00Z</time>
      </trkpt>
      <trkpt lat="42.97180399999973" lon="-1.404771999999998">
        <ele>774.848</ele>
        <time>2022-08-24T13:37:01Z</time>
      </trkpt>
      <trkpt lat="42.97181699999973" lon="-1.4048289999999979">
        <ele>774.481</ele>
        <time>2022-08-24T13:37:02Z</time>
      </trkpt>
      <trkpt lat="42.97182199999973" lon="-1.404879999999998">
        <ele>773.265</ele>
        <time>2022-08-24T13:37:03Z</time>
      </trkpt>
      <trkpt lat="42.97180899999973" lon="-1.4049289999999979">
        <ele>772.834</ele>
        <time>2022-08-24T13:37:04Z</time>
      </trkpt>
      <trkpt lat="42.97178999999973" lon="-1.404979999999998">
        <ele>771.434</ele>
        <time>2022-08-24T13:37:05Z</time>
      </trkpt>
      <trkpt lat="42.971762999999726" lon="-1.405019999999998">
        <ele>770.455</ele>
        <time>2022-08-24T13:37:06Z</time>
      </trkpt>
      <trkpt lat="42.971683999999726" lon="-1.405075999999998">
        <ele>769.010</ele>
        <time>2022-08-24T13:37:08Z</time>
      </trkpt>
      <trkpt lat="42.97163599999973" lon="-1.405090999999998">
        <ele>768.609</ele>
        <time>2022-08-24T13:37:09Z</time>
      </trkpt>
      <trkpt lat="42.97157599999973" lon="-1.4051009999999982">
        <ele>767.644</ele>
        <time>2022-08-24T13:37:10Z</time>
      </trkpt>
      <trkpt lat="42.97153399999973" lon="-1.405104999999998">
        <ele>767.494</ele>
        <time>2022-08-24T13:37:11Z</time>
      </trkpt>
      <trkpt lat="42.97147399999973" lon="-1.405109999999998">
        <ele>767.094</ele>
        <time>2022-08-24T13:37:12Z</time>
      </trkpt>
      <trkpt lat="42.97143599999973" lon="-1.4051169999999982">
        <ele>766.620</ele>
        <time>2022-08-24T13:37:13Z</time>
      </trkpt>
      <trkpt lat="42.971391999999724" lon="-1.4051249999999982">
        <ele>766.492</ele>
        <time>2022-08-24T13:37:14Z</time>
      </trkpt>
      <trkpt lat="42.971343999999725" lon="-1.4051419999999981">
        <ele>765.849</ele>
        <time>2022-08-24T13:37:15Z</time>
      </trkpt>
      <trkpt lat="42.97130599999972" lon="-1.405169999999998">
        <ele>765.462</ele>
        <time>2022-08-24T13:37:16Z</time>
      </trkpt>
      <trkpt lat="42.97127699999972" lon="-1.405205999999998">
        <ele>764.686</ele>
        <time>2022-08-24T13:37:17Z</time>
      </trkpt>
      <trkpt lat="42.971250999999725" lon="-1.4052369999999978">
        <ele>764.025</ele>
        <time>2022-08-24T13:37:18Z</time>
      </trkpt>
      <trkpt lat="42.97122699999972" lon="-1.4052749999999978">
        <ele>763.884</ele>
        <time>2022-08-24T13:37:19Z</time>
      </trkpt>
      <trkpt lat="42.97120099999972" lon="-1.4053179999999978">
        <ele>763.407</ele>
        <time>2022-08-24T13:37:20Z</time>
      </trkpt>
      <trkpt lat="42.971183999999724" lon="-1.4053499999999979">
        <ele>763.217</ele>
        <time>2022-08-24T13:37:21Z</time>
      </trkpt>
      <trkpt lat="42.971160999999725" lon="-1.4053909999999978">
        <ele>762.009</ele>
        <time>2022-08-24T13:37:22Z</time>
      </trkpt>
      <trkpt lat="42.97113199999973" lon="-1.405440999999998">
        <ele>761.439</ele>
        <time>2022-08-24T13:37:23Z</time>
      </trkpt>
      <trkpt lat="42.971109999999726" lon="-1.405473999999998">
        <ele>760.839</ele>
        <time>2022-08-24T13:37:24Z</time>
      </trkpt>
      <trkpt lat="42.97108299999972" lon="-1.4055149999999978">
        <ele>760.229</ele>
        <time>2022-08-24T13:37:25Z</time>
      </trkpt>
      <trkpt lat="42.97104399999972" lon="-1.405564999999998">
        <ele>759.635</ele>
        <time>2022-08-24T13:37:26Z</time>
      </trkpt>
      <trkpt lat="42.97097899999972" lon="-1.405634999999998">
        <ele>758.277</ele>
        <time>2022-08-24T13:37:28Z</time>
      </trkpt>
      <trkpt lat="42.97095099999972" lon="-1.405670999999998">
        <ele>757.214</ele>
        <time>2022-08-24T13:37:29Z</time>
      </trkpt>
      <trkpt lat="42.970915999999725" lon="-1.405707999999998">
        <ele>757.027</ele>
        <time>2022-08-24T13:37:30Z</time>
      </trkpt>
      <trkpt lat="42.97088899999972" lon="-1.405742999999998">
        <ele>756.231</ele>
        <time>2022-08-24T13:37:31Z</time>
      </trkpt>
      <trkpt lat="42.97086199999972" lon="-1.405780999999998">
        <ele>755.870</ele>
        <time>2022-08-24T13:37:32Z</time>
      </trkpt>
      <trkpt lat="42.97084499999972" lon="-1.405812999999998">
        <ele>755.644</ele>
        <time>2022-08-24T13:37:33Z</time>
      </trkpt>
      <trkpt lat="42.97083299999972" lon="-1.4058519999999979">
        <ele>755.005</ele>
        <time>2022-08-24T13:37:34Z</time>
      </trkpt>
      <trkpt lat="42.970825999999725" lon="-1.405885999999998">
        <ele>754.615</ele>
        <time>2022-08-24T13:37:35Z</time>
      </trkpt>
      <trkpt lat="42.97082199999973" lon="-1.4059139999999979">
        <ele>753.609</ele>
        <time>2022-08-24T13:37:36Z</time>
      </trkpt>
      <trkpt lat="42.97082699999973" lon="-1.4059409999999979">
        <ele>752.625</ele>
        <time>2022-08-24T13:37:37Z</time>
      </trkpt>
      <trkpt lat="42.97083699999973" lon="-1.4059629999999979">
        <ele>752.225</ele>
        <time>2022-08-24T13:37:38Z</time>
      </trkpt>
      <trkpt lat="42.97085199999973" lon="-1.4059989999999978">
        <ele>751.435</ele>
        <time>2022-08-24T13:37:39Z</time>
      </trkpt>
      <trkpt lat="42.97086299999973" lon="-1.4060389999999978">
        <ele>751.041</ele>
        <time>2022-08-24T13:37:40Z</time>
      </trkpt>
      <trkpt lat="42.97087399999973" lon="-1.4060859999999977">
        <ele>750.433</ele>
        <time>2022-08-24T13:37:41Z</time>
      </trkpt>
      <trkpt lat="42.97088299999973" lon="-1.4061219999999977">
        <ele>750.490</ele>
        <time>2022-08-24T13:37:42Z</time>
      </trkpt>
      <trkpt lat="42.97088499999973" lon="-1.4061539999999977">
        <ele>750.033</ele>
        <time>2022-08-24T13:37:43Z</time>
      </trkpt>
      <trkpt lat="42.97089199999973" lon="-1.4061909999999977">
        <ele>749.617</ele>
        <time>2022-08-24T13:37:44Z</time>
      </trkpt>
      <trkpt lat="42.97089699999973" lon="-1.4062229999999978">
        <ele>749.486</ele>
        <time>2022-08-24T13:37:45Z</time>
      </trkpt>
      <trkpt lat="42.97089699999973" lon="-1.4062599999999978">
        <ele>748.851</ele>
        <time>2022-08-24T13:37:46Z</time>
      </trkpt>
      <trkpt lat="42.97089599999973" lon="-1.4063149999999978">
        <ele>748.001</ele>
        <time>2022-08-24T13:37:48Z</time>
      </trkpt>
      <trkpt lat="42.97089599999973" lon="-1.4063399999999977">
        <ele>748.011</ele>
        <time>2022-08-24T13:37:49Z</time>
      </trkpt>
      <trkpt lat="42.97090199999973" lon="-1.4063629999999978">
        <ele>747.409</ele>
        <time>2022-08-24T13:37:50Z</time>
      </trkpt>
      <trkpt lat="42.970914999999735" lon="-1.4063929999999978">
        <ele>746.816</ele>
        <time>2022-08-24T13:37:51Z</time>
      </trkpt>
      <trkpt lat="42.97092999999973" lon="-1.4064149999999978">
        <ele>746.896</ele>
        <time>2022-08-24T13:37:52Z</time>
      </trkpt>
      <trkpt lat="42.970939999999736" lon="-1.4064349999999977">
        <ele>746.496</ele>
        <time>2022-08-24T13:37:53Z</time>
      </trkpt>
      <trkpt lat="42.97094699999973" lon="-1.4064559999999977">
        <ele>746.432</ele>
        <time>2022-08-24T13:37:54Z</time>
      </trkpt>
      <trkpt lat="42.97095099999973" lon="-1.4064649999999976">
        <ele>746.444</ele>
        <time>2022-08-24T13:37:55Z</time>
      </trkpt>
      <trkpt lat="42.97095199999973" lon="-1.4065299999999976">
        <ele>747.411</ele>
        <time>2022-08-24T13:38:06Z</time>
      </trkpt>
      <trkpt lat="42.970955999999724" lon="-1.4065549999999976">
        <ele>747.484</ele>
        <time>2022-08-24T13:38:08Z</time>
      </trkpt>
      <trkpt lat="42.970957999999726" lon="-1.4066249999999976">
        <ele>748.268</ele>
        <time>2022-08-24T13:38:12Z</time>
      </trkpt>
      <trkpt lat="42.97095399999973" lon="-1.4066849999999975">
        <ele>748.687</ele>
        <time>2022-08-24T13:38:15Z</time>
      </trkpt>
      <trkpt lat="42.97094899999973" lon="-1.4067059999999976">
        <ele>748.847</ele>
        <time>2022-08-24T13:38:18Z</time>
      </trkpt>
      <trkpt lat="42.97094899999973" lon="-1.4067059999999976">
        <ele>748.829</ele>
        <time>2022-08-24T13:38:19Z</time>
      </trkpt>
      <trkpt lat="42.97094899999973" lon="-1.4067059999999976">
        <ele>749.021</ele>
        <time>2022-08-24T13:38:31Z</time>
      </trkpt>
      <trkpt lat="42.97094899999973" lon="-1.4067099999999975">
        <ele>749.009</ele>
        <time>2022-08-24T13:38:32Z</time>
      </trkpt>
      <trkpt lat="42.970988999999726" lon="-1.4068849999999975">
        <ele>749.075</ele>
        <time>2022-08-24T13:38:38Z</time>
      </trkpt>
      <trkpt lat="42.97100999999972" lon="-1.4069319999999974">
        <ele>749.065</ele>
        <time>2022-08-24T13:38:40Z</time>
      </trkpt>
      <trkpt lat="42.97105499999972" lon="-1.4070439999999973">
        <ele>749.075</ele>
        <time>2022-08-24T13:38:44Z</time>
      </trkpt>
      <trkpt lat="42.971062999999724" lon="-1.4070619999999974">
        <ele>749.031</ele>
        <time>2022-08-24T13:38:45Z</time>
      </trkpt>
      <trkpt lat="42.971067999999725" lon="-1.4070759999999973">
        <ele>749.033</ele>
        <time>2022-08-24T13:38:46Z</time>
      </trkpt>
      <trkpt lat="42.971078999999726" lon="-1.4070939999999974">
        <ele>749.070</ele>
        <time>2022-08-24T13:38:47Z</time>
      </trkpt>
      <trkpt lat="42.97113099999972" lon="-1.4071569999999973">
        <ele>749.263</ele>
        <time>2022-08-24T13:38:51Z</time>
      </trkpt>
      <trkpt lat="42.971149999999724" lon="-1.4071809999999974">
        <ele>749.467</ele>
        <time>2022-08-24T13:38:52Z</time>
      </trkpt>
      <trkpt lat="42.97117699999973" lon="-1.4072309999999975">
        <ele>749.466</ele>
        <time>2022-08-24T13:38:54Z</time>
      </trkpt>
      <trkpt lat="42.971183999999724" lon="-1.4072479999999974">
        <ele>749.452</ele>
        <time>2022-08-24T13:38:55Z</time>
      </trkpt>
      <trkpt lat="42.97119399999973" lon="-1.4072699999999974">
        <ele>749.453</ele>
        <time>2022-08-24T13:38:56Z</time>
      </trkpt>
      <trkpt lat="42.97120199999973" lon="-1.4072919999999973">
        <ele>749.408</ele>
        <time>2022-08-24T13:38:57Z</time>
      </trkpt>
      <trkpt lat="42.97121499999973" lon="-1.4073379999999973">
        <ele>749.609</ele>
        <time>2022-08-24T13:38:59Z</time>
      </trkpt>
      <trkpt lat="42.97122299999973" lon="-1.4073629999999973">
        <ele>749.696</ele>
        <time>2022-08-24T13:39:00Z</time>
      </trkpt>
      <trkpt lat="42.97125699999973" lon="-1.4074619999999973">
        <ele>750.066</ele>
        <time>2022-08-24T13:39:04Z</time>
      </trkpt>
      <trkpt lat="42.97126599999973" lon="-1.4074769999999974">
        <ele>750.266</ele>
        <time>2022-08-24T13:39:05Z</time>
      </trkpt>
      <trkpt lat="42.97129099999973" lon="-1.4075319999999973">
        <ele>750.462</ele>
        <time>2022-08-24T13:39:07Z</time>
      </trkpt>
      <trkpt lat="42.97132799999973" lon="-1.4076129999999973">
        <ele>750.624</ele>
        <time>2022-08-24T13:39:11Z</time>
      </trkpt>
      <trkpt lat="42.97133699999973" lon="-1.4076359999999974">
        <ele>750.641</ele>
        <time>2022-08-24T13:39:12Z</time>
      </trkpt>
      <trkpt lat="42.97134199999973" lon="-1.4076599999999975">
        <ele>750.834</ele>
        <time>2022-08-24T13:39:13Z</time>
      </trkpt>
      <trkpt lat="42.97134599999973" lon="-1.4076829999999976">
        <ele>750.848</ele>
        <time>2022-08-24T13:39:14Z</time>
      </trkpt>
      <trkpt lat="42.97134499999973" lon="-1.4077019999999976">
        <ele>751.087</ele>
        <time>2022-08-24T13:39:15Z</time>
      </trkpt>
      <trkpt lat="42.97134799999973" lon="-1.4077239999999975">
        <ele>751.274</ele>
        <time>2022-08-24T13:39:16Z</time>
      </trkpt>
      <trkpt lat="42.971351999999726" lon="-1.4077489999999975">
        <ele>751.456</ele>
        <time>2022-08-24T13:39:17Z</time>
      </trkpt>
      <trkpt lat="42.97135099999973" lon="-1.4077749999999976">
        <ele>751.421</ele>
        <time>2022-08-24T13:39:18Z</time>
      </trkpt>
      <trkpt lat="42.971337999999726" lon="-1.4079079999999975">
        <ele>752.009</ele>
        <time>2022-08-24T13:39:24Z</time>
      </trkpt>
      <trkpt lat="42.97133399999973" lon="-1.4079249999999974">
        <ele>752.228</ele>
        <time>2022-08-24T13:39:25Z</time>
      </trkpt>
      <trkpt lat="42.97132799999973" lon="-1.4079449999999973">
        <ele>752.478</ele>
        <time>2022-08-24T13:39:26Z</time>
      </trkpt>
      <trkpt lat="42.97130199999973" lon="-1.4080129999999973">
        <ele>752.618</ele>
        <time>2022-08-24T13:39:29Z</time>
      </trkpt>
      <trkpt lat="42.97129399999973" lon="-1.4080399999999973">
        <ele>752.874</ele>
        <time>2022-08-24T13:39:30Z</time>
      </trkpt>
      <trkpt lat="42.97126599999973" lon="-1.4081329999999972">
        <ele>753.276</ele>
        <time>2022-08-24T13:39:34Z</time>
      </trkpt>
      <trkpt lat="42.97126099999973" lon="-1.4081499999999971">
        <ele>753.473</ele>
        <time>2022-08-24T13:39:35Z</time>
      </trkpt>
      <trkpt lat="42.97124999999973" lon="-1.408174999999997">
        <ele>753.466</ele>
        <time>2022-08-24T13:39:36Z</time>
      </trkpt>
      <trkpt lat="42.97123199999973" lon="-1.4082229999999971">
        <ele>753.670</ele>
        <time>2022-08-24T13:39:38Z</time>
      </trkpt>
      <trkpt lat="42.97121399999973" lon="-1.408266999999997">
        <ele>753.849</ele>
        <time>2022-08-24T13:39:40Z</time>
      </trkpt>
      <trkpt lat="42.97120399999973" lon="-1.408286999999997">
        <ele>753.889</ele>
        <time>2022-08-24T13:39:41Z</time>
      </trkpt>
      <trkpt lat="42.97119599999973" lon="-1.408305999999997">
        <ele>753.806</ele>
        <time>2022-08-24T13:39:42Z</time>
      </trkpt>
      <trkpt lat="42.971168999999726" lon="-1.408392999999997">
        <ele>754.626</ele>
        <time>2022-08-24T13:39:46Z</time>
      </trkpt>
      <trkpt lat="42.97116599999973" lon="-1.408415999999997">
        <ele>754.809</ele>
        <time>2022-08-24T13:39:47Z</time>
      </trkpt>
      <trkpt lat="42.971160999999725" lon="-1.408431999999997">
        <ele>754.879</ele>
        <time>2022-08-24T13:39:48Z</time>
      </trkpt>
      <trkpt lat="42.97115399999973" lon="-1.408458999999997">
        <ele>755.039</ele>
        <time>2022-08-24T13:39:49Z</time>
      </trkpt>
      <trkpt lat="42.97114799999973" lon="-1.4084819999999971">
        <ele>755.049</ele>
        <time>2022-08-24T13:39:50Z</time>
      </trkpt>
      <trkpt lat="42.97114099999973" lon="-1.4085049999999972">
        <ele>755.225</ele>
        <time>2022-08-24T13:39:51Z</time>
      </trkpt>
      <trkpt lat="42.97113799999973" lon="-1.4085249999999971">
        <ele>755.277</ele>
        <time>2022-08-24T13:39:52Z</time>
      </trkpt>
      <trkpt lat="42.971133999999736" lon="-1.4085489999999972">
        <ele>755.224</ele>
        <time>2022-08-24T13:39:53Z</time>
      </trkpt>
      <trkpt lat="42.971128999999735" lon="-1.4085779999999972">
        <ele>755.237</ele>
        <time>2022-08-24T13:39:54Z</time>
      </trkpt>
      <trkpt lat="42.97112499999974" lon="-1.4086009999999973">
        <ele>755.231</ele>
        <time>2022-08-24T13:39:55Z</time>
      </trkpt>
      <trkpt lat="42.97112199999974" lon="-1.4086279999999973">
        <ele>755.460</ele>
        <time>2022-08-24T13:39:56Z</time>
      </trkpt>
      <trkpt lat="42.97111899999974" lon="-1.4086489999999974">
        <ele>755.455</ele>
        <time>2022-08-24T13:39:57Z</time>
      </trkpt>
      <trkpt lat="42.971108999999736" lon="-1.4086769999999973">
        <ele>755.407</ele>
        <time>2022-08-24T13:39:58Z</time>
      </trkpt>
      <trkpt lat="42.971097999999735" lon="-1.4087019999999972">
        <ele>755.617</ele>
        <time>2022-08-24T13:39:59Z</time>
      </trkpt>
      <trkpt lat="42.971089999999734" lon="-1.4087269999999972">
        <ele>755.609</ele>
        <time>2022-08-24T13:40:00Z</time>
      </trkpt>
      <trkpt lat="42.97108199999973" lon="-1.4087519999999971">
        <ele>755.886</ele>
        <time>2022-08-24T13:40:01Z</time>
      </trkpt>
      <trkpt lat="42.971077999999736" lon="-1.4087809999999972">
        <ele>756.026</ele>
        <time>2022-08-24T13:40:02Z</time>
      </trkpt>
      <trkpt lat="42.97107199999974" lon="-1.4088069999999973">
        <ele>756.096</ele>
        <time>2022-08-24T13:40:03Z</time>
      </trkpt>
      <trkpt lat="42.971066999999735" lon="-1.4088319999999972">
        <ele>756.492</ele>
        <time>2022-08-24T13:40:04Z</time>
      </trkpt>
      <trkpt lat="42.97103799999974" lon="-1.4089659999999973">
        <ele>756.874</ele>
        <time>2022-08-24T13:40:09Z</time>
      </trkpt>
      <trkpt lat="42.971032999999736" lon="-1.4089949999999973">
        <ele>756.851</ele>
        <time>2022-08-24T13:40:10Z</time>
      </trkpt>
      <trkpt lat="42.97102899999974" lon="-1.4090179999999974">
        <ele>756.884</ele>
        <time>2022-08-24T13:40:11Z</time>
      </trkpt>
      <trkpt lat="42.97102199999974" lon="-1.4090469999999975">
        <ele>756.878</ele>
        <time>2022-08-24T13:40:12Z</time>
      </trkpt>
      <trkpt lat="42.97101399999974" lon="-1.4090809999999976">
        <ele>756.877</ele>
        <time>2022-08-24T13:40:13Z</time>
      </trkpt>
      <trkpt lat="42.971006999999744" lon="-1.4091109999999976">
        <ele>756.817</ele>
        <time>2022-08-24T13:40:14Z</time>
      </trkpt>
      <trkpt lat="42.97099899999974" lon="-1.4091599999999975">
        <ele>756.887</ele>
        <time>2022-08-24T13:40:16Z</time>
      </trkpt>
      <trkpt lat="42.97099099999974" lon="-1.4091899999999975">
        <ele>756.815</ele>
        <time>2022-08-24T13:40:17Z</time>
      </trkpt>
      <trkpt lat="42.970983999999746" lon="-1.4092099999999974">
        <ele>756.809</ele>
        <time>2022-08-24T13:40:18Z</time>
      </trkpt>
      <trkpt lat="42.97097699999975" lon="-1.4092369999999974">
        <ele>756.892</ele>
        <time>2022-08-24T13:40:19Z</time>
      </trkpt>
      <trkpt lat="42.97095799999975" lon="-1.4093499999999974">
        <ele>756.872</ele>
        <time>2022-08-24T13:40:23Z</time>
      </trkpt>
      <trkpt lat="42.970952999999746" lon="-1.4093689999999974">
        <ele>757.042</ele>
        <time>2022-08-24T13:40:24Z</time>
      </trkpt>
      <trkpt lat="42.970950999999744" lon="-1.4093959999999974">
        <ele>757.298</ele>
        <time>2022-08-24T13:40:25Z</time>
      </trkpt>
      <trkpt lat="42.97094699999975" lon="-1.4094249999999975">
        <ele>757.430</ele>
        <time>2022-08-24T13:40:26Z</time>
      </trkpt>
      <trkpt lat="42.97092999999975" lon="-1.4095399999999976">
        <ele>757.667</ele>
        <time>2022-08-24T13:40:30Z</time>
      </trkpt>
      <trkpt lat="42.970924999999745" lon="-1.4095679999999975">
        <ele>757.630</ele>
        <time>2022-08-24T13:40:31Z</time>
      </trkpt>
      <trkpt lat="42.97092299999974" lon="-1.4095999999999975">
        <ele>757.824</ele>
        <time>2022-08-24T13:40:32Z</time>
      </trkpt>
      <trkpt lat="42.97092099999974" lon="-1.4096269999999975">
        <ele>758.023</ele>
        <time>2022-08-24T13:40:33Z</time>
      </trkpt>
      <trkpt lat="42.97091599999974" lon="-1.4096719999999976">
        <ele>758.077</ele>
        <time>2022-08-24T13:40:35Z</time>
      </trkpt>
      <trkpt lat="42.97090999999974" lon="-1.4097029999999975">
        <ele>758.061</ele>
        <time>2022-08-24T13:40:36Z</time>
      </trkpt>
      <trkpt lat="42.97088999999974" lon="-1.4097389999999974">
        <ele>758.227</ele>
        <time>2022-08-24T13:40:38Z</time>
      </trkpt>
      <trkpt lat="42.97088399999974" lon="-1.4097539999999975">
        <ele>758.209</ele>
        <time>2022-08-24T13:40:39Z</time>
      </trkpt>
      <trkpt lat="42.970826999999744" lon="-1.4098459999999975">
        <ele>758.888</ele>
        <time>2022-08-24T13:40:44Z</time>
      </trkpt>
      <trkpt lat="42.97080599999975" lon="-1.4098819999999974">
        <ele>758.888</ele>
        <time>2022-08-24T13:40:46Z</time>
      </trkpt>
      <trkpt lat="42.970789999999745" lon="-1.4099159999999975">
        <ele>759.038</ele>
        <time>2022-08-24T13:40:48Z</time>
      </trkpt>
      <trkpt lat="42.970772999999745" lon="-1.4099549999999974">
        <ele>759.234</ele>
        <time>2022-08-24T13:40:50Z</time>
      </trkpt>
      <trkpt lat="42.97073299999975" lon="-1.4100209999999973">
        <ele>759.816</ele>
        <time>2022-08-24T13:40:53Z</time>
      </trkpt>
      <trkpt lat="42.970719999999744" lon="-1.4100409999999972">
        <ele>760.023</ele>
        <time>2022-08-24T13:40:54Z</time>
      </trkpt>
      <trkpt lat="42.97070699999974" lon="-1.4100579999999971">
        <ele>760.266</ele>
        <time>2022-08-24T13:40:55Z</time>
      </trkpt>
      <trkpt lat="42.97069099999974" lon="-1.410082999999997">
        <ele>760.260</ele>
        <time>2022-08-24T13:40:56Z</time>
      </trkpt>
      <trkpt lat="42.97068199999974" lon="-1.4101059999999972">
        <ele>760.629</ele>
        <time>2022-08-24T13:40:57Z</time>
      </trkpt>
      <trkpt lat="42.97067399999974" lon="-1.4101229999999971">
        <ele>760.652</ele>
        <time>2022-08-24T13:40:58Z</time>
      </trkpt>
      <trkpt lat="42.97066599999974" lon="-1.410144999999997">
        <ele>761.253</ele>
        <time>2022-08-24T13:40:59Z</time>
      </trkpt>
      <trkpt lat="42.97065099999974" lon="-1.4101659999999971">
        <ele>761.008</ele>
        <time>2022-08-24T13:41:00Z</time>
      </trkpt>
      <trkpt lat="42.97064499999974" lon="-1.4101839999999972">
        <ele>761.409</ele>
        <time>2022-08-24T13:41:01Z</time>
      </trkpt>
      <trkpt lat="42.97063499999974" lon="-1.4102079999999972">
        <ele>761.486</ele>
        <time>2022-08-24T13:41:02Z</time>
      </trkpt>
      <trkpt lat="42.97062399999974" lon="-1.4102249999999972">
        <ele>761.616</ele>
        <time>2022-08-24T13:41:03Z</time>
      </trkpt>
      <trkpt lat="42.970610999999735" lon="-1.4102439999999972">
        <ele>761.846</ele>
        <time>2022-08-24T13:41:04Z</time>
      </trkpt>
      <trkpt lat="42.970596999999735" lon="-1.4102679999999972">
        <ele>761.882</ele>
        <time>2022-08-24T13:41:05Z</time>
      </trkpt>
      <trkpt lat="42.97058999999974" lon="-1.4102929999999971">
        <ele>762.044</ele>
        <time>2022-08-24T13:41:06Z</time>
      </trkpt>
      <trkpt lat="42.97058499999974" lon="-1.4103139999999972">
        <ele>762.221</ele>
        <time>2022-08-24T13:41:07Z</time>
      </trkpt>
      <trkpt lat="42.970576999999736" lon="-1.410333999999997">
        <ele>762.474</ele>
        <time>2022-08-24T13:41:08Z</time>
      </trkpt>
      <trkpt lat="42.97056799999974" lon="-1.410355999999997">
        <ele>762.488</ele>
        <time>2022-08-24T13:41:09Z</time>
      </trkpt>
      <trkpt lat="42.970557999999734" lon="-1.4103789999999972">
        <ele>762.657</ele>
        <time>2022-08-24T13:41:10Z</time>
      </trkpt>
      <trkpt lat="42.97055099999974" lon="-1.4104019999999973">
        <ele>762.879</ele>
        <time>2022-08-24T13:41:11Z</time>
      </trkpt>
      <trkpt lat="42.97054999999974" lon="-1.4104279999999974">
        <ele>763.005</ele>
        <time>2022-08-24T13:41:12Z</time>
      </trkpt>
      <trkpt lat="42.97054999999974" lon="-1.4104539999999974">
        <ele>763.225</ele>
        <time>2022-08-24T13:41:13Z</time>
      </trkpt>
      <trkpt lat="42.97054599999974" lon="-1.4104819999999973">
        <ele>763.209</ele>
        <time>2022-08-24T13:41:14Z</time>
      </trkpt>
      <trkpt lat="42.97054299999974" lon="-1.4105159999999974">
        <ele>763.448</ele>
        <time>2022-08-24T13:41:15Z</time>
      </trkpt>
      <trkpt lat="42.970533999999745" lon="-1.4105539999999974">
        <ele>763.648</ele>
        <time>2022-08-24T13:41:16Z</time>
      </trkpt>
      <trkpt lat="42.97052199999975" lon="-1.4105869999999974">
        <ele>763.698</ele>
        <time>2022-08-24T13:41:17Z</time>
      </trkpt>
      <trkpt lat="42.97050799999975" lon="-1.4106169999999973">
        <ele>763.814</ele>
        <time>2022-08-24T13:41:18Z</time>
      </trkpt>
      <trkpt lat="42.970494999999744" lon="-1.4106479999999972">
        <ele>763.856</ele>
        <time>2022-08-24T13:41:19Z</time>
      </trkpt>
      <trkpt lat="42.970479999999746" lon="-1.4106769999999973">
        <ele>763.843</ele>
        <time>2022-08-24T13:41:20Z</time>
      </trkpt>
      <trkpt lat="42.970465999999746" lon="-1.4107069999999973">
        <ele>763.866</ele>
        <time>2022-08-24T13:41:21Z</time>
      </trkpt>
      <trkpt lat="42.970451999999746" lon="-1.4107379999999972">
        <ele>763.820</ele>
        <time>2022-08-24T13:41:22Z</time>
      </trkpt>
      <trkpt lat="42.970437999999746" lon="-1.410765999999997">
        <ele>763.819</ele>
        <time>2022-08-24T13:41:23Z</time>
      </trkpt>
      <trkpt lat="42.97043099999975" lon="-1.410792999999997">
        <ele>763.875</ele>
        <time>2022-08-24T13:41:24Z</time>
      </trkpt>
      <trkpt lat="42.97042399999975" lon="-1.410817999999997">
        <ele>763.828</ele>
        <time>2022-08-24T13:41:25Z</time>
      </trkpt>
      <trkpt lat="42.97041799999975" lon="-1.410844999999997">
        <ele>763.820</ele>
        <time>2022-08-24T13:41:26Z</time>
      </trkpt>
      <trkpt lat="42.97040799999975" lon="-1.410868999999997">
        <ele>763.809</ele>
        <time>2022-08-24T13:41:27Z</time>
      </trkpt>
      <trkpt lat="42.97039899999975" lon="-1.410892999999997">
        <ele>763.878</ele>
        <time>2022-08-24T13:41:28Z</time>
      </trkpt>
      <trkpt lat="42.97039299999975" lon="-1.410919999999997">
        <ele>763.858</ele>
        <time>2022-08-24T13:41:29Z</time>
      </trkpt>
      <trkpt lat="42.97038799999975" lon="-1.410947999999997">
        <ele>764.058</ele>
        <time>2022-08-24T13:41:30Z</time>
      </trkpt>
      <trkpt lat="42.97038199999975" lon="-1.410973999999997">
        <ele>764.294</ele>
        <time>2022-08-24T13:41:31Z</time>
      </trkpt>
      <trkpt lat="42.970377999999755" lon="-1.410997999999997">
        <ele>764.446</ele>
        <time>2022-08-24T13:41:32Z</time>
      </trkpt>
      <trkpt lat="42.97037299999975" lon="-1.411022999999997">
        <ele>764.413</ele>
        <time>2022-08-24T13:41:33Z</time>
      </trkpt>
      <trkpt lat="42.97036899999976" lon="-1.411047999999997">
        <ele>764.666</ele>
        <time>2022-08-24T13:41:34Z</time>
      </trkpt>
      <trkpt lat="42.97036199999976" lon="-1.411073999999997">
        <ele>764.680</ele>
        <time>2022-08-24T13:41:35Z</time>
      </trkpt>
      <trkpt lat="42.97034199999976" lon="-1.411119999999997">
        <ele>764.889</ele>
        <time>2022-08-24T13:41:37Z</time>
      </trkpt>
      <trkpt lat="42.97033599999976" lon="-1.411144999999997">
        <ele>765.038</ele>
        <time>2022-08-24T13:41:38Z</time>
      </trkpt>
      <trkpt lat="42.97033299999976" lon="-1.411169999999997">
        <ele>765.270</ele>
        <time>2022-08-24T13:41:39Z</time>
      </trkpt>
      <trkpt lat="42.97032299999976" lon="-1.411218999999997">
        <ele>765.417</ele>
        <time>2022-08-24T13:41:41Z</time>
      </trkpt>
      <trkpt lat="42.97031699999976" lon="-1.411241999999997">
        <ele>765.409</ele>
        <time>2022-08-24T13:41:42Z</time>
      </trkpt>
      <trkpt lat="42.97031199999976" lon="-1.411264999999997">
        <ele>765.634</ele>
        <time>2022-08-24T13:41:43Z</time>
      </trkpt>
      <trkpt lat="42.970309999999756" lon="-1.4112889999999971">
        <ele>766.014</ele>
        <time>2022-08-24T13:41:44Z</time>
      </trkpt>
      <trkpt lat="42.97030699999976" lon="-1.411310999999997">
        <ele>766.084</ele>
        <time>2022-08-24T13:41:45Z</time>
      </trkpt>
      <trkpt lat="42.97030399999976" lon="-1.4113319999999971">
        <ele>766.270</ele>
        <time>2022-08-24T13:41:46Z</time>
      </trkpt>
      <trkpt lat="42.97030099999976" lon="-1.411353999999997">
        <ele>766.452</ele>
        <time>2022-08-24T13:41:47Z</time>
      </trkpt>
      <trkpt lat="42.97029699999976" lon="-1.4113749999999972">
        <ele>766.429</ele>
        <time>2022-08-24T13:41:48Z</time>
      </trkpt>
      <trkpt lat="42.97028799999976" lon="-1.4113929999999972">
        <ele>766.812</ele>
        <time>2022-08-24T13:41:49Z</time>
      </trkpt>
      <trkpt lat="42.97028199999976" lon="-1.4114129999999971">
        <ele>766.836</ele>
        <time>2022-08-24T13:41:50Z</time>
      </trkpt>
      <trkpt lat="42.97028199999976" lon="-1.411432999999997">
        <ele>767.245</ele>
        <time>2022-08-24T13:41:51Z</time>
      </trkpt>
      <trkpt lat="42.97027899999976" lon="-1.411453999999997">
        <ele>767.214</ele>
        <time>2022-08-24T13:41:52Z</time>
      </trkpt>
      <trkpt lat="42.970274999999766" lon="-1.411473999999997">
        <ele>767.654</ele>
        <time>2022-08-24T13:41:53Z</time>
      </trkpt>
      <trkpt lat="42.970269999999765" lon="-1.411491999999997">
        <ele>767.809</ele>
        <time>2022-08-24T13:41:54Z</time>
      </trkpt>
      <trkpt lat="42.970269999999765" lon="-1.411508999999997">
        <ele>768.009</ele>
        <time>2022-08-24T13:41:55Z</time>
      </trkpt>
      <trkpt lat="42.970277999999766" lon="-1.411522999999997">
        <ele>768.232</ele>
        <time>2022-08-24T13:41:56Z</time>
      </trkpt>
      <trkpt lat="42.97028199999976" lon="-1.411527999999997">
        <ele>768.222</ele>
        <time>2022-08-24T13:41:57Z</time>
      </trkpt>
      <trkpt lat="42.97027899999976" lon="-1.411528999999997">
        <ele>768.652</ele>
        <time>2022-08-24T13:41:58Z</time>
      </trkpt>
      <trkpt lat="42.97027899999976" lon="-1.4115269999999969">
        <ele>768.858</ele>
        <time>2022-08-24T13:41:59Z</time>
      </trkpt>
      <trkpt lat="42.97028199999976" lon="-1.411514999999997">
        <ele>768.860</ele>
        <time>2022-08-24T13:42:00Z</time>
      </trkpt>
      <trkpt lat="42.97028299999976" lon="-1.411504999999997">
        <ele>769.237</ele>
        <time>2022-08-24T13:42:01Z</time>
      </trkpt>
      <trkpt lat="42.970275999999764" lon="-1.411496999999997">
        <ele>769.290</ele>
        <time>2022-08-24T13:42:02Z</time>
      </trkpt>
      <trkpt lat="42.970272999999764" lon="-1.411493999999997">
        <ele>769.424</ele>
        <time>2022-08-24T13:42:03Z</time>
      </trkpt>
      <trkpt lat="42.970272999999764" lon="-1.411493999999997">
        <ele>769.463</ele>
        <time>2022-08-24T13:42:20Z</time>
      </trkpt>
      <trkpt lat="42.970272999999764" lon="-1.4114979999999968">
        <ele>769.435</ele>
        <time>2022-08-24T13:42:22Z</time>
      </trkpt>
      <trkpt lat="42.970275999999764" lon="-1.4115159999999969">
        <ele>769.486</ele>
        <time>2022-08-24T13:42:23Z</time>
      </trkpt>
      <trkpt lat="42.970277999999766" lon="-1.4115349999999969">
        <ele>769.414</ele>
        <time>2022-08-24T13:42:24Z</time>
      </trkpt>
      <trkpt lat="42.97025999999977" lon="-1.4116189999999968">
        <ele>769.809</ele>
        <time>2022-08-24T13:42:27Z</time>
      </trkpt>
      <trkpt lat="42.97025399999977" lon="-1.4116389999999968">
        <ele>769.814</ele>
        <time>2022-08-24T13:42:28Z</time>
      </trkpt>
      <trkpt lat="42.97024999999977" lon="-1.4116689999999967">
        <ele>770.094</ele>
        <time>2022-08-24T13:42:29Z</time>
      </trkpt>
      <trkpt lat="42.97024799999977" lon="-1.4116899999999968">
        <ele>770.264</ele>
        <time>2022-08-24T13:42:30Z</time>
      </trkpt>
      <trkpt lat="42.97024699999977" lon="-1.4117119999999967">
        <ele>770.270</ele>
        <time>2022-08-24T13:42:31Z</time>
      </trkpt>
      <trkpt lat="42.97024799999977" lon="-1.4117329999999968">
        <ele>770.692</ele>
        <time>2022-08-24T13:42:32Z</time>
      </trkpt>
      <trkpt lat="42.97024899999977" lon="-1.4117499999999967">
        <ele>770.859</ele>
        <time>2022-08-24T13:42:33Z</time>
      </trkpt>
      <trkpt lat="42.97024499999977" lon="-1.4117669999999967">
        <ele>771.072</ele>
        <time>2022-08-24T13:42:34Z</time>
      </trkpt>
      <trkpt lat="42.97024699999977" lon="-1.4118079999999966">
        <ele>771.416</ele>
        <time>2022-08-24T13:42:36Z</time>
      </trkpt>
      <trkpt lat="42.970248999999775" lon="-1.4118249999999966">
        <ele>771.625</ele>
        <time>2022-08-24T13:42:37Z</time>
      </trkpt>
      <trkpt lat="42.97024799999978" lon="-1.4118489999999966">
        <ele>771.832</ele>
        <time>2022-08-24T13:42:38Z</time>
      </trkpt>
      <trkpt lat="42.970237999999775" lon="-1.4119079999999966">
        <ele>772.492</ele>
        <time>2022-08-24T13:42:41Z</time>
      </trkpt>
      <trkpt lat="42.970237999999775" lon="-1.4119269999999966">
        <ele>772.611</ele>
        <time>2022-08-24T13:42:42Z</time>
      </trkpt>
      <trkpt lat="42.97023699999978" lon="-1.4119419999999967">
        <ele>772.609</ele>
        <time>2022-08-24T13:42:43Z</time>
      </trkpt>
      <trkpt lat="42.97023599999978" lon="-1.4119579999999967">
        <ele>772.824</ele>
        <time>2022-08-24T13:42:44Z</time>
      </trkpt>
      <trkpt lat="42.97023299999978" lon="-1.4119769999999967">
        <ele>773.074</ele>
        <time>2022-08-24T13:42:45Z</time>
      </trkpt>
      <trkpt lat="42.97023099999978" lon="-1.4119929999999967">
        <ele>773.494</ele>
        <time>2022-08-24T13:42:46Z</time>
      </trkpt>
      <trkpt lat="42.970228999999776" lon="-1.4120139999999968">
        <ele>773.430</ele>
        <time>2022-08-24T13:42:47Z</time>
      </trkpt>
      <trkpt lat="42.970223999999774" lon="-1.4120269999999968">
        <ele>773.622</ele>
        <time>2022-08-24T13:42:48Z</time>
      </trkpt>
      <trkpt lat="42.970225999999776" lon="-1.4120459999999968">
        <ele>773.879</ele>
        <time>2022-08-24T13:42:49Z</time>
      </trkpt>
      <trkpt lat="42.97022799999978" lon="-1.412068999999997">
        <ele>773.832</ele>
        <time>2022-08-24T13:42:50Z</time>
      </trkpt>
      <trkpt lat="42.970228999999776" lon="-1.412084999999997">
        <ele>774.086</ele>
        <time>2022-08-24T13:42:51Z</time>
      </trkpt>
      <trkpt lat="42.970228999999776" lon="-1.4121019999999969">
        <ele>774.255</ele>
        <time>2022-08-24T13:42:52Z</time>
      </trkpt>
      <trkpt lat="42.97023099999978" lon="-1.4121219999999968">
        <ele>774.462</ele>
        <time>2022-08-24T13:42:53Z</time>
      </trkpt>
      <trkpt lat="42.970231999999775" lon="-1.4121419999999967">
        <ele>774.483</ele>
        <time>2022-08-24T13:42:54Z</time>
      </trkpt>
      <trkpt lat="42.97022999999977" lon="-1.4121599999999968">
        <ele>774.811</ele>
        <time>2022-08-24T13:42:55Z</time>
      </trkpt>
      <trkpt lat="42.970228999999776" lon="-1.4121779999999968">
        <ele>775.009</ele>
        <time>2022-08-24T13:42:56Z</time>
      </trkpt>
      <trkpt lat="42.970228999999776" lon="-1.4121979999999967">
        <ele>775.227</ele>
        <time>2022-08-24T13:42:57Z</time>
      </trkpt>
      <trkpt lat="42.97022999999977" lon="-1.4122159999999968">
        <ele>775.477</ele>
        <time>2022-08-24T13:42:58Z</time>
      </trkpt>
      <trkpt lat="42.970231999999775" lon="-1.4122319999999968">
        <ele>775.477</ele>
        <time>2022-08-24T13:42:59Z</time>
      </trkpt>
      <trkpt lat="42.970231999999775" lon="-1.412249999999997">
        <ele>775.663</ele>
        <time>2022-08-24T13:43:00Z</time>
      </trkpt>
      <trkpt lat="42.97023099999978" lon="-1.4122699999999968">
        <ele>775.685</ele>
        <time>2022-08-24T13:43:01Z</time>
      </trkpt>
      <trkpt lat="42.97022999999978" lon="-1.4122939999999968">
        <ele>775.852</ele>
        <time>2022-08-24T13:43:02Z</time>
      </trkpt>
      <trkpt lat="42.97022899999978" lon="-1.4123109999999968">
        <ele>775.825</ele>
        <time>2022-08-24T13:43:03Z</time>
      </trkpt>
      <trkpt lat="42.97022699999978" lon="-1.4123299999999968">
        <ele>776.069</ele>
        <time>2022-08-24T13:43:04Z</time>
      </trkpt>
      <trkpt lat="42.97022599999978" lon="-1.4123509999999968">
        <ele>776.048</ele>
        <time>2022-08-24T13:43:05Z</time>
      </trkpt>
      <trkpt lat="42.97022599999978" lon="-1.4123709999999967">
        <ele>776.095</ele>
        <time>2022-08-24T13:43:06Z</time>
      </trkpt>
      <trkpt lat="42.970224999999786" lon="-1.4123859999999968">
        <ele>776.249</ele>
        <time>2022-08-24T13:43:07Z</time>
      </trkpt>
      <trkpt lat="42.97022599999978" lon="-1.4124059999999967">
        <ele>776.623</ele>
        <time>2022-08-24T13:43:08Z</time>
      </trkpt>
      <trkpt lat="42.970227999999786" lon="-1.4124279999999967">
        <ele>776.809</ele>
        <time>2022-08-24T13:43:09Z</time>
      </trkpt>
      <trkpt lat="42.97022999999979" lon="-1.4124539999999968">
        <ele>777.070</ele>
        <time>2022-08-24T13:43:10Z</time>
      </trkpt>
      <trkpt lat="42.97022999999979" lon="-1.4124749999999968">
        <ele>777.060</ele>
        <time>2022-08-24T13:43:11Z</time>
      </trkpt>
      <trkpt lat="42.970227999999786" lon="-1.4124919999999968">
        <ele>777.240</ele>
        <time>2022-08-24T13:43:12Z</time>
      </trkpt>
      <trkpt lat="42.970227999999786" lon="-1.4125129999999968">
        <ele>777.416</ele>
        <time>2022-08-24T13:43:13Z</time>
      </trkpt>
      <trkpt lat="42.97022999999979" lon="-1.4125409999999967">
        <ele>777.438</ele>
        <time>2022-08-24T13:43:14Z</time>
      </trkpt>
      <trkpt lat="42.97023199999979" lon="-1.4125549999999967">
        <ele>777.665</ele>
        <time>2022-08-24T13:43:15Z</time>
      </trkpt>
      <trkpt lat="42.97023199999979" lon="-1.4125759999999967">
        <ele>777.688</ele>
        <time>2022-08-24T13:43:16Z</time>
      </trkpt>
      <trkpt lat="42.97022999999979" lon="-1.4125959999999966">
        <ele>777.852</ele>
        <time>2022-08-24T13:43:17Z</time>
      </trkpt>
      <trkpt lat="42.970230999999785" lon="-1.4126149999999966">
        <ele>777.831</ele>
        <time>2022-08-24T13:43:18Z</time>
      </trkpt>
      <trkpt lat="42.97023199999978" lon="-1.4126409999999967">
        <ele>778.096</ele>
        <time>2022-08-24T13:43:19Z</time>
      </trkpt>
      <trkpt lat="42.97022999999978" lon="-1.4126579999999966">
        <ele>778.231</ele>
        <time>2022-08-24T13:43:20Z</time>
      </trkpt>
      <trkpt lat="42.97022799999978" lon="-1.4126799999999966">
        <ele>778.224</ele>
        <time>2022-08-24T13:43:21Z</time>
      </trkpt>
      <trkpt lat="42.97022699999978" lon="-1.4127019999999966">
        <ele>778.409</ele>
        <time>2022-08-24T13:43:22Z</time>
      </trkpt>
      <trkpt lat="42.97022499999978" lon="-1.4127229999999966">
        <ele>778.480</ele>
        <time>2022-08-24T13:43:23Z</time>
      </trkpt>
      <trkpt lat="42.97021999999978" lon="-1.4127459999999967">
        <ele>778.410</ele>
        <time>2022-08-24T13:43:24Z</time>
      </trkpt>
      <trkpt lat="42.97021399999978" lon="-1.4127639999999968">
        <ele>778.470</ele>
        <time>2022-08-24T13:43:25Z</time>
      </trkpt>
      <trkpt lat="42.97020999999978" lon="-1.412778999999997">
        <ele>778.646</ele>
        <time>2022-08-24T13:43:26Z</time>
      </trkpt>
      <trkpt lat="42.97020999999978" lon="-1.412796999999997">
        <ele>779.048</ele>
        <time>2022-08-24T13:43:27Z</time>
      </trkpt>
      <trkpt lat="42.97020699999978" lon="-1.4128169999999969">
        <ele>779.245</ele>
        <time>2022-08-24T13:43:28Z</time>
      </trkpt>
      <trkpt lat="42.97020099999978" lon="-1.412834999999997">
        <ele>779.288</ele>
        <time>2022-08-24T13:43:29Z</time>
      </trkpt>
      <trkpt lat="42.970196999999786" lon="-1.412847999999997">
        <ele>779.412</ele>
        <time>2022-08-24T13:43:30Z</time>
      </trkpt>
      <trkpt lat="42.970193999999786" lon="-1.412864999999997">
        <ele>779.621</ele>
        <time>2022-08-24T13:43:31Z</time>
      </trkpt>
      <trkpt lat="42.97019099999979" lon="-1.412883999999997">
        <ele>779.679</ele>
        <time>2022-08-24T13:43:32Z</time>
      </trkpt>
      <trkpt lat="42.97018399999979" lon="-1.4129059999999969">
        <ele>779.605</ele>
        <time>2022-08-24T13:43:33Z</time>
      </trkpt>
      <trkpt lat="42.970176999999794" lon="-1.412926999999997">
        <ele>779.825</ele>
        <time>2022-08-24T13:43:34Z</time>
      </trkpt>
      <trkpt lat="42.9701729999998" lon="-1.412944999999997">
        <ele>780.009</ele>
        <time>2022-08-24T13:43:35Z</time>
      </trkpt>
      <trkpt lat="42.9701689999998" lon="-1.4129679999999971">
        <ele>780.068</ele>
        <time>2022-08-24T13:43:36Z</time>
      </trkpt>
      <trkpt lat="42.9701609999998" lon="-1.4129889999999972">
        <ele>780.028</ele>
        <time>2022-08-24T13:43:37Z</time>
      </trkpt>
      <trkpt lat="42.9701519999998" lon="-1.4130119999999973">
        <ele>780.088</ele>
        <time>2022-08-24T13:43:38Z</time>
      </trkpt>
      <trkpt lat="42.9701439999998" lon="-1.4130369999999972">
        <ele>780.274</ele>
        <time>2022-08-24T13:43:39Z</time>
      </trkpt>
      <trkpt lat="42.9701369999998" lon="-1.4130649999999971">
        <ele>780.266</ele>
        <time>2022-08-24T13:43:40Z</time>
      </trkpt>
      <trkpt lat="42.9701289999998" lon="-1.413094999999997">
        <ele>780.453</ele>
        <time>2022-08-24T13:43:41Z</time>
      </trkpt>
      <trkpt lat="42.9701189999998" lon="-1.413127999999997">
        <ele>780.416</ele>
        <time>2022-08-24T13:43:42Z</time>
      </trkpt>
      <trkpt lat="42.9701039999998" lon="-1.413166999999997">
        <ele>780.470</ele>
        <time>2022-08-24T13:43:43Z</time>
      </trkpt>
      <trkpt lat="42.9700909999998" lon="-1.413209999999997">
        <ele>780.429</ele>
        <time>2022-08-24T13:43:44Z</time>
      </trkpt>
      <trkpt lat="42.9700789999998" lon="-1.413255999999997">
        <ele>780.224</ele>
        <time>2022-08-24T13:43:45Z</time>
      </trkpt>
      <trkpt lat="42.970068999999796" lon="-1.4133029999999969">
        <ele>780.204</ele>
        <time>2022-08-24T13:43:46Z</time>
      </trkpt>
      <trkpt lat="42.9700369999998" lon="-1.4135409999999968">
        <ele>780.014</ele>
        <time>2022-08-24T13:43:50Z</time>
      </trkpt>
      <trkpt lat="42.9700339999998" lon="-1.4136149999999967">
        <ele>779.609</ele>
        <time>2022-08-24T13:43:51Z</time>
      </trkpt>
      <trkpt lat="42.9700179999998" lon="-1.4138449999999967">
        <ele>779.273</ele>
        <time>2022-08-24T13:43:54Z</time>
      </trkpt>
      <trkpt lat="42.9699979999998" lon="-1.4139149999999967">
        <ele>779.023</ele>
        <time>2022-08-24T13:43:55Z</time>
      </trkpt>
      <trkpt lat="42.9699699999998" lon="-1.4139749999999967">
        <ele>779.073</ele>
        <time>2022-08-24T13:43:56Z</time>
      </trkpt>
      <trkpt lat="42.9699409999998" lon="-1.4140289999999966">
        <ele>778.479</ele>
        <time>2022-08-24T13:43:57Z</time>
      </trkpt>
      <trkpt lat="42.969916999999796" lon="-1.4140809999999966">
        <ele>778.231</ele>
        <time>2022-08-24T13:43:58Z</time>
      </trkpt>
      <trkpt lat="42.969894999999795" lon="-1.4141289999999966">
        <ele>778.058</ele>
        <time>2022-08-24T13:43:59Z</time>
      </trkpt>
      <trkpt lat="42.9698739999998" lon="-1.4141759999999965">
        <ele>778.011</ele>
        <time>2022-08-24T13:44:00Z</time>
      </trkpt>
      <trkpt lat="42.9698549999998" lon="-1.4142219999999965">
        <ele>777.825</ele>
        <time>2022-08-24T13:44:01Z</time>
      </trkpt>
      <trkpt lat="42.969838999999794" lon="-1.4142689999999964">
        <ele>777.864</ele>
        <time>2022-08-24T13:44:02Z</time>
      </trkpt>
      <trkpt lat="42.96982299999979" lon="-1.4143269999999963">
        <ele>777.658</ele>
        <time>2022-08-24T13:44:03Z</time>
      </trkpt>
      <trkpt lat="42.96981399999979" lon="-1.4143679999999963">
        <ele>777.652</ele>
        <time>2022-08-24T13:44:04Z</time>
      </trkpt>
      <trkpt lat="42.96977299999979" lon="-1.4145399999999964">
        <ele>777.417</ele>
        <time>2022-08-24T13:44:07Z</time>
      </trkpt>
      <trkpt lat="42.96974499999979" lon="-1.4146549999999964">
        <ele>777.209</ele>
        <time>2022-08-24T13:44:09Z</time>
      </trkpt>
      <trkpt lat="42.96973499999979" lon="-1.4147179999999964">
        <ele>777.286</ele>
        <time>2022-08-24T13:44:10Z</time>
      </trkpt>
      <trkpt lat="42.96972599999979" lon="-1.4147669999999963">
        <ele>777.266</ele>
        <time>2022-08-24T13:44:11Z</time>
      </trkpt>
      <trkpt lat="42.969715999999785" lon="-1.4148169999999964">
        <ele>777.056</ele>
        <time>2022-08-24T13:44:12Z</time>
      </trkpt>
      <trkpt lat="42.969707999999784" lon="-1.4148579999999964">
        <ele>776.822</ele>
        <time>2022-08-24T13:44:13Z</time>
      </trkpt>
      <trkpt lat="42.96967299999979" lon="-1.4149789999999964">
        <ele>776.044</ele>
        <time>2022-08-24T13:44:15Z</time>
      </trkpt>
      <trkpt lat="42.96963599999979" lon="-1.4150719999999963">
        <ele>775.691</ele>
        <time>2022-08-24T13:44:17Z</time>
      </trkpt>
      <trkpt lat="42.96957699999979" lon="-1.4151619999999963">
        <ele>774.674</ele>
        <time>2022-08-24T13:44:19Z</time>
      </trkpt>
      <trkpt lat="42.96955099999979" lon="-1.4151939999999963">
        <ele>774.068</ele>
        <time>2022-08-24T13:44:20Z</time>
      </trkpt>
      <trkpt lat="42.96952799999979" lon="-1.4152259999999963">
        <ele>773.237</ele>
        <time>2022-08-24T13:44:21Z</time>
      </trkpt>
      <trkpt lat="42.96951399999979" lon="-1.4152669999999963">
        <ele>772.668</ele>
        <time>2022-08-24T13:44:22Z</time>
      </trkpt>
      <trkpt lat="42.969506999999794" lon="-1.4153129999999963">
        <ele>772.242</ele>
        <time>2022-08-24T13:44:23Z</time>
      </trkpt>
      <trkpt lat="42.9695029999998" lon="-1.4153609999999963">
        <ele>771.826</ele>
        <time>2022-08-24T13:44:24Z</time>
      </trkpt>
      <trkpt lat="42.9694959999998" lon="-1.4154099999999963">
        <ele>771.609</ele>
        <time>2022-08-24T13:44:25Z</time>
      </trkpt>
      <trkpt lat="42.9694769999998" lon="-1.4154609999999963">
        <ele>771.267</ele>
        <time>2022-08-24T13:44:26Z</time>
      </trkpt>
      <trkpt lat="42.9694609999998" lon="-1.4154929999999963">
        <ele>771.067</ele>
        <time>2022-08-24T13:44:27Z</time>
      </trkpt>
      <trkpt lat="42.9694439999998" lon="-1.4155319999999962">
        <ele>771.027</ele>
        <time>2022-08-24T13:44:28Z</time>
      </trkpt>
      <trkpt lat="42.9694229999998" lon="-1.4155779999999962">
        <ele>771.083</ele>
        <time>2022-08-24T13:44:29Z</time>
      </trkpt>
      <trkpt lat="42.9694069999998" lon="-1.4156119999999963">
        <ele>771.055</ele>
        <time>2022-08-24T13:44:30Z</time>
      </trkpt>
      <trkpt lat="42.9693959999998" lon="-1.4156409999999964">
        <ele>771.092</ele>
        <time>2022-08-24T13:44:31Z</time>
      </trkpt>
      <trkpt lat="42.969382999999794" lon="-1.4156759999999964">
        <ele>771.055</ele>
        <time>2022-08-24T13:44:32Z</time>
      </trkpt>
      <trkpt lat="42.969368999999794" lon="-1.4157109999999964">
        <ele>771.289</ele>
        <time>2022-08-24T13:44:33Z</time>
      </trkpt>
      <trkpt lat="42.969359999999796" lon="-1.4157429999999964">
        <ele>771.488</ele>
        <time>2022-08-24T13:44:34Z</time>
      </trkpt>
      <trkpt lat="42.969337999999794" lon="-1.4158109999999964">
        <ele>771.867</ele>
        <time>2022-08-24T13:44:36Z</time>
      </trkpt>
      <trkpt lat="42.969295999999794" lon="-1.4159159999999964">
        <ele>772.481</ele>
        <time>2022-08-24T13:44:39Z</time>
      </trkpt>
      <trkpt lat="42.96928599999979" lon="-1.4159529999999965">
        <ele>772.419</ele>
        <time>2022-08-24T13:44:40Z</time>
      </trkpt>
      <trkpt lat="42.96927799999979" lon="-1.4159879999999965">
        <ele>772.409</ele>
        <time>2022-08-24T13:44:41Z</time>
      </trkpt>
      <trkpt lat="42.96921499999979" lon="-1.4162419999999964">
        <ele>772.467</ele>
        <time>2022-08-24T13:44:47Z</time>
      </trkpt>
      <trkpt lat="42.96913899999979" lon="-1.4165739999999964">
        <ele>772.027</ele>
        <time>2022-08-24T13:44:54Z</time>
      </trkpt>
      <trkpt lat="42.96911899999979" lon="-1.4166139999999965">
        <ele>772.057</ele>
        <time>2022-08-24T13:44:55Z</time>
      </trkpt>
      <trkpt lat="42.96909499999979" lon="-1.4166589999999966">
        <ele>772.023</ele>
        <time>2022-08-24T13:44:56Z</time>
      </trkpt>
      <trkpt lat="42.96900599999979" lon="-1.4167939999999966">
        <ele>771.875</ele>
        <time>2022-08-24T13:45:00Z</time>
      </trkpt>
      <trkpt lat="42.96897799999979" lon="-1.4168179999999966">
        <ele>772.072</ele>
        <time>2022-08-24T13:45:01Z</time>
      </trkpt>
      <trkpt lat="42.968947999999784" lon="-1.4168449999999966">
        <ele>771.845</ele>
        <time>2022-08-24T13:45:02Z</time>
      </trkpt>
      <trkpt lat="42.968924999999786" lon="-1.4168589999999965">
        <ele>771.849</ele>
        <time>2022-08-24T13:45:03Z</time>
      </trkpt>
      <trkpt lat="42.968902999999784" lon="-1.4168639999999966">
        <ele>771.858</ele>
        <time>2022-08-24T13:45:04Z</time>
      </trkpt>
      <trkpt lat="42.96888099999978" lon="-1.4168669999999965">
        <ele>771.842</ele>
        <time>2022-08-24T13:45:05Z</time>
      </trkpt>
      <trkpt lat="42.96886199999978" lon="-1.4168749999999966">
        <ele>771.822</ele>
        <time>2022-08-24T13:45:06Z</time>
      </trkpt>
      <trkpt lat="42.96879399999978" lon="-1.4169069999999966">
        <ele>772.214</ele>
        <time>2022-08-24T13:45:09Z</time>
      </trkpt>
      <trkpt lat="42.96871599999978" lon="-1.4169319999999965">
        <ele>772.209</ele>
        <time>2022-08-24T13:45:12Z</time>
      </trkpt>
      <trkpt lat="42.96869099999978" lon="-1.4169399999999965">
        <ele>772.255</ele>
        <time>2022-08-24T13:45:13Z</time>
      </trkpt>
      <trkpt lat="42.96865999999978" lon="-1.4169469999999966">
        <ele>772.465</ele>
        <time>2022-08-24T13:45:14Z</time>
      </trkpt>
      <trkpt lat="42.96863199999978" lon="-1.4169519999999967">
        <ele>772.415</ele>
        <time>2022-08-24T13:45:15Z</time>
      </trkpt>
      <trkpt lat="42.96860599999978" lon="-1.4169559999999966">
        <ele>772.431</ele>
        <time>2022-08-24T13:45:16Z</time>
      </trkpt>
      <trkpt lat="42.96858599999978" lon="-1.4169559999999966">
        <ele>772.463</ele>
        <time>2022-08-24T13:45:17Z</time>
      </trkpt>
      <trkpt lat="42.96857299999978" lon="-1.4169549999999966">
        <ele>772.420</ele>
        <time>2022-08-24T13:45:18Z</time>
      </trkpt>
      <trkpt lat="42.968559999999776" lon="-1.4169519999999967">
        <ele>772.433</ele>
        <time>2022-08-24T13:45:19Z</time>
      </trkpt>
      <trkpt lat="42.968545999999776" lon="-1.4169499999999966">
        <ele>772.687</ele>
        <time>2022-08-24T13:45:20Z</time>
      </trkpt>
      <trkpt lat="42.96853999999978" lon="-1.4169489999999967">
        <ele>772.686</ele>
        <time>2022-08-24T13:45:21Z</time>
      </trkpt>
      <trkpt lat="42.96853999999978" lon="-1.4169489999999967">
        <ele>772.652</ele>
        <time>2022-08-24T13:45:22Z</time>
      </trkpt>
      <trkpt lat="42.96853999999978" lon="-1.4169489999999967">
        <ele>772.853</ele>
        <time>2022-08-24T13:45:23Z</time>
      </trkpt>
      <trkpt lat="42.96850499999978" lon="-1.4169539999999967">
        <ele>773.008</ele>
        <time>2022-08-24T13:45:31Z</time>
      </trkpt>
      <trkpt lat="42.96848699999978" lon="-1.4169539999999967">
        <ele>773.009</ele>
        <time>2022-08-24T13:45:32Z</time>
      </trkpt>
      <trkpt lat="42.96841399999978" lon="-1.4169689999999968">
        <ele>773.086</ele>
        <time>2022-08-24T13:45:35Z</time>
      </trkpt>
      <trkpt lat="42.96839799999978" lon="-1.4169799999999968">
        <ele>773.036</ele>
        <time>2022-08-24T13:45:36Z</time>
      </trkpt>
      <trkpt lat="42.96837099999978" lon="-1.4169959999999968">
        <ele>773.036</ele>
        <time>2022-08-24T13:45:37Z</time>
      </trkpt>
      <trkpt lat="42.96835399999978" lon="-1.4170039999999968">
        <ele>773.052</ele>
        <time>2022-08-24T13:45:38Z</time>
      </trkpt>
      <trkpt lat="42.968331999999776" lon="-1.4170159999999967">
        <ele>773.024</ele>
        <time>2022-08-24T13:45:39Z</time>
      </trkpt>
      <trkpt lat="42.968318999999774" lon="-1.4170259999999968">
        <ele>773.221</ele>
        <time>2022-08-24T13:45:40Z</time>
      </trkpt>
      <trkpt lat="42.96830099999978" lon="-1.4170349999999967">
        <ele>773.434</ele>
        <time>2022-08-24T13:45:41Z</time>
      </trkpt>
      <trkpt lat="42.96828399999978" lon="-1.4170459999999967">
        <ele>773.458</ele>
        <time>2022-08-24T13:45:42Z</time>
      </trkpt>
      <trkpt lat="42.96826899999978" lon="-1.4170589999999967">
        <ele>773.697</ele>
        <time>2022-08-24T13:45:43Z</time>
      </trkpt>
      <trkpt lat="42.96825399999978" lon="-1.4170679999999967">
        <ele>773.657</ele>
        <time>2022-08-24T13:45:44Z</time>
      </trkpt>
      <trkpt lat="42.96823999999978" lon="-1.4170819999999966">
        <ele>773.600</ele>
        <time>2022-08-24T13:45:45Z</time>
      </trkpt>
      <trkpt lat="42.96822699999978" lon="-1.4170949999999967">
        <ele>773.620</ele>
        <time>2022-08-24T13:45:46Z</time>
      </trkpt>
      <trkpt lat="42.968210999999776" lon="-1.4171079999999967">
        <ele>773.809</ele>
        <time>2022-08-24T13:45:47Z</time>
      </trkpt>
      <trkpt lat="42.96819899999978" lon="-1.4171229999999968">
        <ele>773.876</ele>
        <time>2022-08-24T13:45:48Z</time>
      </trkpt>
      <trkpt lat="42.96818399999978" lon="-1.4171369999999968">
        <ele>773.836</ele>
        <time>2022-08-24T13:45:49Z</time>
      </trkpt>
      <trkpt lat="42.96806799999978" lon="-1.4172709999999968">
        <ele>774.416</ele>
        <time>2022-08-24T13:45:56Z</time>
      </trkpt>
      <trkpt lat="42.96805099999978" lon="-1.417288999999997">
        <ele>774.652</ele>
        <time>2022-08-24T13:45:57Z</time>
      </trkpt>
      <trkpt lat="42.968021999999785" lon="-1.4173249999999968">
        <ele>774.854</ele>
        <time>2022-08-24T13:45:59Z</time>
      </trkpt>
      <trkpt lat="42.968004999999785" lon="-1.4173409999999969">
        <ele>774.851</ele>
        <time>2022-08-24T13:46:00Z</time>
      </trkpt>
      <trkpt lat="42.967984999999786" lon="-1.4173569999999969">
        <ele>775.074</ele>
        <time>2022-08-24T13:46:01Z</time>
      </trkpt>
      <trkpt lat="42.96797299999979" lon="-1.417377999999997">
        <ele>775.238</ele>
        <time>2022-08-24T13:46:02Z</time>
      </trkpt>
      <trkpt lat="42.96791099999979" lon="-1.417436999999997">
        <ele>775.667</ele>
        <time>2022-08-24T13:46:06Z</time>
      </trkpt>
      <trkpt lat="42.96790199999979" lon="-1.417452999999997">
        <ele>776.048</ele>
        <time>2022-08-24T13:46:07Z</time>
      </trkpt>
      <trkpt lat="42.96788499999979" lon="-1.417470999999997">
        <ele>776.061</ele>
        <time>2022-08-24T13:46:08Z</time>
      </trkpt>
      <trkpt lat="42.96785399999979" lon="-1.4175159999999971">
        <ele>776.217</ele>
        <time>2022-08-24T13:46:10Z</time>
      </trkpt>
      <trkpt lat="42.96783199999979" lon="-1.417572999999997">
        <ele>776.609</ele>
        <time>2022-08-24T13:46:12Z</time>
      </trkpt>
      <trkpt lat="42.967770999999786" lon="-1.417716999999997">
        <ele>776.825</ele>
        <time>2022-08-24T13:46:17Z</time>
      </trkpt>
      <trkpt lat="42.96775899999979" lon="-1.4177399999999971">
        <ele>776.865</ele>
        <time>2022-08-24T13:46:18Z</time>
      </trkpt>
      <trkpt lat="42.96773799999979" lon="-1.4177769999999972">
        <ele>776.845</ele>
        <time>2022-08-24T13:46:19Z</time>
      </trkpt>
      <trkpt lat="42.96772699999979" lon="-1.4178109999999973">
        <ele>777.061</ele>
        <time>2022-08-24T13:46:20Z</time>
      </trkpt>
      <trkpt lat="42.96771599999979" lon="-1.4178449999999974">
        <ele>777.093</ele>
        <time>2022-08-24T13:46:21Z</time>
      </trkpt>
      <trkpt lat="42.96762999999979" lon="-1.4179589999999973">
        <ele>777.250</ele>
        <time>2022-08-24T13:46:25Z</time>
      </trkpt>
      <trkpt lat="42.96760999999979" lon="-1.4179749999999973">
        <ele>777.273</ele>
        <time>2022-08-24T13:46:26Z</time>
      </trkpt>
      <trkpt lat="42.96758199999979" lon="-1.4179939999999973">
        <ele>777.267</ele>
        <time>2022-08-24T13:46:27Z</time>
      </trkpt>
      <trkpt lat="42.967548999999785" lon="-1.4180129999999973">
        <ele>777.286</ele>
        <time>2022-08-24T13:46:28Z</time>
      </trkpt>
      <trkpt lat="42.967444999999785" lon="-1.4180829999999973">
        <ele>777.265</ele>
        <time>2022-08-24T13:46:31Z</time>
      </trkpt>
      <trkpt lat="42.96733899999978" lon="-1.4182709999999974">
        <ele>777.068</ele>
        <time>2022-08-24T13:46:36Z</time>
      </trkpt>
      <trkpt lat="42.96734199999978" lon="-1.4183109999999974">
        <ele>777.014</ele>
        <time>2022-08-24T13:46:37Z</time>
      </trkpt>
      <trkpt lat="42.96736199999978" lon="-1.4183509999999975">
        <ele>777.009</ele>
        <time>2022-08-24T13:46:38Z</time>
      </trkpt>
      <trkpt lat="42.96738199999978" lon="-1.4183769999999976">
        <ele>776.837</ele>
        <time>2022-08-24T13:46:39Z</time>
      </trkpt>
      <trkpt lat="42.96739699999978" lon="-1.4183979999999976">
        <ele>776.827</ele>
        <time>2022-08-24T13:46:40Z</time>
      </trkpt>
      <trkpt lat="42.967414999999775" lon="-1.4184229999999975">
        <ele>776.837</ele>
        <time>2022-08-24T13:46:41Z</time>
      </trkpt>
      <trkpt lat="42.96743399999978" lon="-1.4184479999999975">
        <ele>776.643</ele>
        <time>2022-08-24T13:46:42Z</time>
      </trkpt>
      <trkpt lat="42.96752599999978" lon="-1.4185649999999974">
        <ele>776.255</ele>
        <time>2022-08-24T13:46:46Z</time>
      </trkpt>
      <trkpt lat="42.96754599999978" lon="-1.4185929999999973">
        <ele>776.252</ele>
        <time>2022-08-24T13:46:47Z</time>
      </trkpt>
      <trkpt lat="42.967560999999776" lon="-1.4186209999999972">
        <ele>776.245</ele>
        <time>2022-08-24T13:46:48Z</time>
      </trkpt>
      <trkpt lat="42.967566999999775" lon="-1.4186489999999972">
        <ele>776.019</ele>
        <time>2022-08-24T13:46:49Z</time>
      </trkpt>
      <trkpt lat="42.96756199999977" lon="-1.418673999999997">
        <ele>776.018</ele>
        <time>2022-08-24T13:46:50Z</time>
      </trkpt>
      <trkpt lat="42.96754799999977" lon="-1.4186969999999972">
        <ele>775.875</ele>
        <time>2022-08-24T13:46:51Z</time>
      </trkpt>
      <trkpt lat="42.967538999999775" lon="-1.4187149999999973">
        <ele>775.628</ele>
        <time>2022-08-24T13:46:52Z</time>
      </trkpt>
      <trkpt lat="42.967535999999775" lon="-1.4187219999999974">
        <ele>775.620</ele>
        <time>2022-08-24T13:46:53Z</time>
      </trkpt>
      <trkpt lat="42.967535999999775" lon="-1.4187219999999974">
        <ele>775.409</ele>
        <time>2022-08-24T13:46:54Z</time>
      </trkpt>
      <trkpt lat="42.96753699999977" lon="-1.4187249999999973">
        <ele>775.468</ele>
        <time>2022-08-24T13:46:55Z</time>
      </trkpt>
      <trkpt lat="42.96754299999977" lon="-1.4187299999999974">
        <ele>775.458</ele>
        <time>2022-08-24T13:46:56Z</time>
      </trkpt>
      <trkpt lat="42.96755099999977" lon="-1.4187409999999974">
        <ele>775.488</ele>
        <time>2022-08-24T13:46:57Z</time>
      </trkpt>
      <trkpt lat="42.967560999999776" lon="-1.4187669999999974">
        <ele>775.474</ele>
        <time>2022-08-24T13:46:58Z</time>
      </trkpt>
      <trkpt lat="42.967563999999776" lon="-1.4188309999999975">
        <ele>775.256</ele>
        <time>2022-08-24T13:47:00Z</time>
      </trkpt>
      <trkpt lat="42.96755999999978" lon="-1.4189019999999974">
        <ele>775.253</ele>
        <time>2022-08-24T13:47:02Z</time>
      </trkpt>
      <trkpt lat="42.96755999999978" lon="-1.4189469999999975">
        <ele>775.276</ele>
        <time>2022-08-24T13:47:03Z</time>
      </trkpt>
      <trkpt lat="42.96755899999978" lon="-1.4190509999999976">
        <ele>775.030</ele>
        <time>2022-08-24T13:47:05Z</time>
      </trkpt>
      <trkpt lat="42.96755299999978" lon="-1.4191729999999976">
        <ele>773.859</ele>
        <time>2022-08-24T13:47:07Z</time>
      </trkpt>
      <trkpt lat="42.967531999999785" lon="-1.4193779999999976">
        <ele>772.872</ele>
        <time>2022-08-24T13:47:10Z</time>
      </trkpt>
      <trkpt lat="42.96752499999979" lon="-1.4194529999999976">
        <ele>772.813</ele>
        <time>2022-08-24T13:47:11Z</time>
      </trkpt>
      <trkpt lat="42.96750899999979" lon="-1.4195959999999976">
        <ele>772.014</ele>
        <time>2022-08-24T13:47:13Z</time>
      </trkpt>
      <trkpt lat="42.96750199999979" lon="-1.4196569999999977">
        <ele>771.409</ele>
        <time>2022-08-24T13:47:14Z</time>
      </trkpt>
      <trkpt lat="42.96749799999979" lon="-1.4197169999999977">
        <ele>771.268</ele>
        <time>2022-08-24T13:47:15Z</time>
      </trkpt>
      <trkpt lat="42.96749499999979" lon="-1.4197739999999976">
        <ele>770.458</ele>
        <time>2022-08-24T13:47:16Z</time>
      </trkpt>
      <trkpt lat="42.96749499999979" lon="-1.4198299999999977">
        <ele>770.258</ele>
        <time>2022-08-24T13:47:17Z</time>
      </trkpt>
      <trkpt lat="42.967496999999796" lon="-1.4198899999999977">
        <ele>769.484</ele>
        <time>2022-08-24T13:47:18Z</time>
      </trkpt>
      <trkpt lat="42.96750099999979" lon="-1.4199499999999976">
        <ele>769.046</ele>
        <time>2022-08-24T13:47:19Z</time>
      </trkpt>
      <trkpt lat="42.96750699999979" lon="-1.4200129999999975">
        <ele>768.873</ele>
        <time>2022-08-24T13:47:20Z</time>
      </trkpt>
      <trkpt lat="42.96751899999979" lon="-1.4201509999999975">
        <ele>768.226</ele>
        <time>2022-08-24T13:47:22Z</time>
      </trkpt>
      <trkpt lat="42.96752699999979" lon="-1.4202219999999974">
        <ele>767.840</ele>
        <time>2022-08-24T13:47:23Z</time>
      </trkpt>
      <trkpt lat="42.96753599999979" lon="-1.4203549999999974">
        <ele>767.699</ele>
        <time>2022-08-24T13:47:25Z</time>
      </trkpt>
      <trkpt lat="42.96753999999979" lon="-1.4204119999999973">
        <ele>767.021</ele>
        <time>2022-08-24T13:47:26Z</time>
      </trkpt>
      <trkpt lat="42.96753999999979" lon="-1.4204649999999974">
        <ele>766.841</ele>
        <time>2022-08-24T13:47:27Z</time>
      </trkpt>
      <trkpt lat="42.967537999999784" lon="-1.4205189999999974">
        <ele>766.605</ele>
        <time>2022-08-24T13:47:28Z</time>
      </trkpt>
      <trkpt lat="42.96754199999978" lon="-1.4205729999999974">
        <ele>766.409</ele>
        <time>2022-08-24T13:47:29Z</time>
      </trkpt>
      <trkpt lat="42.96754899999978" lon="-1.4206279999999973">
        <ele>766.483</ele>
        <time>2022-08-24T13:47:30Z</time>
      </trkpt>
      <trkpt lat="42.967555999999774" lon="-1.4206809999999974">
        <ele>766.423</ele>
        <time>2022-08-24T13:47:31Z</time>
      </trkpt>
      <trkpt lat="42.967560999999776" lon="-1.4207279999999973">
        <ele>766.443</ele>
        <time>2022-08-24T13:47:32Z</time>
      </trkpt>
      <trkpt lat="42.967563999999776" lon="-1.4207669999999972">
        <ele>766.479</ele>
        <time>2022-08-24T13:47:33Z</time>
      </trkpt>
      <trkpt lat="42.967560999999776" lon="-1.4208009999999973">
        <ele>766.461</ele>
        <time>2022-08-24T13:47:34Z</time>
      </trkpt>
      <trkpt lat="42.967560999999776" lon="-1.4208309999999973">
        <ele>766.448</ele>
        <time>2022-08-24T13:47:35Z</time>
      </trkpt>
      <trkpt lat="42.967563999999776" lon="-1.4208609999999973">
        <ele>766.641</ele>
        <time>2022-08-24T13:47:36Z</time>
      </trkpt>
      <trkpt lat="42.96756599999978" lon="-1.4208869999999973">
        <ele>766.875</ele>
        <time>2022-08-24T13:47:37Z</time>
      </trkpt>
      <trkpt lat="42.967566999999775" lon="-1.4209129999999974">
        <ele>767.294</ele>
        <time>2022-08-24T13:47:38Z</time>
      </trkpt>
      <trkpt lat="42.967566999999775" lon="-1.4209379999999974">
        <ele>767.485</ele>
        <time>2022-08-24T13:47:39Z</time>
      </trkpt>
      <trkpt lat="42.96756799999977" lon="-1.4209609999999975">
        <ele>767.489</ele>
        <time>2022-08-24T13:47:40Z</time>
      </trkpt>
      <trkpt lat="42.967569999999775" lon="-1.4209809999999974">
        <ele>767.617</ele>
        <time>2022-08-24T13:47:41Z</time>
      </trkpt>
      <trkpt lat="42.967569999999775" lon="-1.4210019999999974">
        <ele>767.609</ele>
        <time>2022-08-24T13:47:42Z</time>
      </trkpt>
      <trkpt lat="42.96756899999978" lon="-1.4210219999999973">
        <ele>767.659</ele>
        <time>2022-08-24T13:47:43Z</time>
      </trkpt>
      <trkpt lat="42.96756799999978" lon="-1.4210439999999973">
        <ele>767.849</ele>
        <time>2022-08-24T13:47:44Z</time>
      </trkpt>
      <trkpt lat="42.96756699999978" lon="-1.4210669999999974">
        <ele>767.859</ele>
        <time>2022-08-24T13:47:45Z</time>
      </trkpt>
      <trkpt lat="42.967562999999785" lon="-1.4211139999999973">
        <ele>768.095</ele>
        <time>2022-08-24T13:47:47Z</time>
      </trkpt>
      <trkpt lat="42.96755899999979" lon="-1.4211599999999973">
        <ele>768.277</ele>
        <time>2022-08-24T13:47:49Z</time>
      </trkpt>
      <trkpt lat="42.967559999999786" lon="-1.4211759999999973">
        <ele>768.424</ele>
        <time>2022-08-24T13:47:50Z</time>
      </trkpt>
      <trkpt lat="42.96756099999978" lon="-1.4211949999999973">
        <ele>768.627</ele>
        <time>2022-08-24T13:47:51Z</time>
      </trkpt>
      <trkpt lat="42.96756099999978" lon="-1.4212149999999972">
        <ele>769.221</ele>
        <time>2022-08-24T13:47:52Z</time>
      </trkpt>
      <trkpt lat="42.96756199999978" lon="-1.4212359999999973">
        <ele>769.440</ele>
        <time>2022-08-24T13:47:53Z</time>
      </trkpt>
      <trkpt lat="42.96756499999978" lon="-1.4213219999999973">
        <ele>770.493</ele>
        <time>2022-08-24T13:47:57Z</time>
      </trkpt>
      <trkpt lat="42.96755999999978" lon="-1.4214089999999973">
        <ele>771.065</ele>
        <time>2022-08-24T13:48:01Z</time>
      </trkpt>
      <trkpt lat="42.96755799999978" lon="-1.4214269999999973">
        <ele>771.221</ele>
        <time>2022-08-24T13:48:02Z</time>
      </trkpt>
      <trkpt lat="42.96755199999978" lon="-1.4214469999999972">
        <ele>771.409</ele>
        <time>2022-08-24T13:48:03Z</time>
      </trkpt>
      <trkpt lat="42.96755199999978" lon="-1.4214659999999972">
        <ele>771.630</ele>
        <time>2022-08-24T13:48:04Z</time>
      </trkpt>
      <trkpt lat="42.967552999999775" lon="-1.4214819999999972">
        <ele>771.820</ele>
        <time>2022-08-24T13:48:05Z</time>
      </trkpt>
      <trkpt lat="42.96755099999977" lon="-1.4214999999999973">
        <ele>772.050</ele>
        <time>2022-08-24T13:48:06Z</time>
      </trkpt>
      <trkpt lat="42.967549999999775" lon="-1.4215189999999973">
        <ele>772.256</ele>
        <time>2022-08-24T13:48:07Z</time>
      </trkpt>
      <trkpt lat="42.967546999999776" lon="-1.4215369999999974">
        <ele>772.468</ele>
        <time>2022-08-24T13:48:08Z</time>
      </trkpt>
      <trkpt lat="42.967544999999774" lon="-1.4215549999999975">
        <ele>772.635</ele>
        <time>2022-08-24T13:48:09Z</time>
      </trkpt>
      <trkpt lat="42.96754299999977" lon="-1.4215729999999975">
        <ele>772.638</ele>
        <time>2022-08-24T13:48:10Z</time>
      </trkpt>
      <trkpt lat="42.96754099999977" lon="-1.4215899999999975">
        <ele>772.892</ele>
        <time>2022-08-24T13:48:11Z</time>
      </trkpt>
      <trkpt lat="42.96754099999977" lon="-1.4216059999999975">
        <ele>773.061</ele>
        <time>2022-08-24T13:48:12Z</time>
      </trkpt>
      <trkpt lat="42.96754099999977" lon="-1.4216249999999975">
        <ele>773.042</ele>
        <time>2022-08-24T13:48:13Z</time>
      </trkpt>
      <trkpt lat="42.96754099999977" lon="-1.4216459999999975">
        <ele>773.222</ele>
        <time>2022-08-24T13:48:14Z</time>
      </trkpt>
      <trkpt lat="42.96753999999977" lon="-1.4216659999999974">
        <ele>773.214</ele>
        <time>2022-08-24T13:48:15Z</time>
      </trkpt>
      <trkpt lat="42.96753999999977" lon="-1.4216879999999974">
        <ele>773.409</ele>
        <time>2022-08-24T13:48:16Z</time>
      </trkpt>
      <trkpt lat="42.96753799999977" lon="-1.4217089999999974">
        <ele>773.445</ele>
        <time>2022-08-24T13:48:17Z</time>
      </trkpt>
      <trkpt lat="42.96753799999977" lon="-1.4217299999999975">
        <ele>773.635</ele>
        <time>2022-08-24T13:48:18Z</time>
      </trkpt>
      <trkpt lat="42.96753699999977" lon="-1.4217499999999974">
        <ele>774.025</ele>
        <time>2022-08-24T13:48:19Z</time>
      </trkpt>
      <trkpt lat="42.96753499999977" lon="-1.4217689999999974">
        <ele>774.261</ele>
        <time>2022-08-24T13:48:20Z</time>
      </trkpt>
      <trkpt lat="42.96753199999977" lon="-1.4217879999999974">
        <ele>774.453</ele>
        <time>2022-08-24T13:48:21Z</time>
      </trkpt>
      <trkpt lat="42.967527999999774" lon="-1.4218119999999974">
        <ele>774.680</ele>
        <time>2022-08-24T13:48:22Z</time>
      </trkpt>
      <trkpt lat="42.96752599999977" lon="-1.4218289999999973">
        <ele>774.883</ele>
        <time>2022-08-24T13:48:23Z</time>
      </trkpt>
      <trkpt lat="42.96752299999977" lon="-1.4218499999999974">
        <ele>775.067</ele>
        <time>2022-08-24T13:48:24Z</time>
      </trkpt>
      <trkpt lat="42.96752099999977" lon="-1.4218679999999975">
        <ele>775.026</ele>
        <time>2022-08-24T13:48:25Z</time>
      </trkpt>
      <trkpt lat="42.96752099999977" lon="-1.4218839999999975">
        <ele>775.463</ele>
        <time>2022-08-24T13:48:26Z</time>
      </trkpt>
      <trkpt lat="42.96751899999977" lon="-1.4219009999999974">
        <ele>775.444</ele>
        <time>2022-08-24T13:48:27Z</time>
      </trkpt>
      <trkpt lat="42.967516999999766" lon="-1.4219189999999975">
        <ele>775.618</ele>
        <time>2022-08-24T13:48:28Z</time>
      </trkpt>
      <trkpt lat="42.967514999999764" lon="-1.4219369999999976">
        <ele>775.609</ele>
        <time>2022-08-24T13:48:29Z</time>
      </trkpt>
      <trkpt lat="42.967514999999764" lon="-1.4219549999999976">
        <ele>775.857</ele>
        <time>2022-08-24T13:48:30Z</time>
      </trkpt>
      <trkpt lat="42.967514999999764" lon="-1.4219749999999975">
        <ele>776.067</ele>
        <time>2022-08-24T13:48:31Z</time>
      </trkpt>
      <trkpt lat="42.96751399999977" lon="-1.4219949999999975">
        <ele>776.047</ele>
        <time>2022-08-24T13:48:32Z</time>
      </trkpt>
      <trkpt lat="42.96751299999977" lon="-1.4220149999999974">
        <ele>776.293</ele>
        <time>2022-08-24T13:48:33Z</time>
      </trkpt>
      <trkpt lat="42.96751199999977" lon="-1.4220339999999974">
        <ele>776.285</ele>
        <time>2022-08-24T13:48:34Z</time>
      </trkpt>
      <trkpt lat="42.96750999999977" lon="-1.4220519999999974">
        <ele>776.462</ele>
        <time>2022-08-24T13:48:35Z</time>
      </trkpt>
      <trkpt lat="42.96750999999977" lon="-1.4220739999999974">
        <ele>776.445</ele>
        <time>2022-08-24T13:48:36Z</time>
      </trkpt>
      <trkpt lat="42.96750999999977" lon="-1.4220949999999974">
        <ele>776.419</ele>
        <time>2022-08-24T13:48:37Z</time>
      </trkpt>
      <trkpt lat="42.96750799999977" lon="-1.4221159999999975">
        <ele>776.698</ele>
        <time>2022-08-24T13:48:38Z</time>
      </trkpt>
      <trkpt lat="42.96750499999977" lon="-1.4221369999999975">
        <ele>776.635</ele>
        <time>2022-08-24T13:48:39Z</time>
      </trkpt>
      <trkpt lat="42.96750699999977" lon="-1.4221599999999976">
        <ele>776.686</ele>
        <time>2022-08-24T13:48:40Z</time>
      </trkpt>
      <trkpt lat="42.96750699999977" lon="-1.4221829999999978">
        <ele>776.814</ele>
        <time>2022-08-24T13:48:41Z</time>
      </trkpt>
      <trkpt lat="42.96750599999977" lon="-1.4222039999999978">
        <ele>776.809</ele>
        <time>2022-08-24T13:48:42Z</time>
      </trkpt>
      <trkpt lat="42.967501999999776" lon="-1.4222239999999977">
        <ele>776.834</ele>
        <time>2022-08-24T13:48:43Z</time>
      </trkpt>
      <trkpt lat="42.967496999999774" lon="-1.4222439999999976">
        <ele>776.884</ele>
        <time>2022-08-24T13:48:44Z</time>
      </trkpt>
      <trkpt lat="42.96749299999978" lon="-1.4222639999999975">
        <ele>776.814</ele>
        <time>2022-08-24T13:48:45Z</time>
      </trkpt>
      <trkpt lat="42.96748699999978" lon="-1.4222809999999975">
        <ele>777.070</ele>
        <time>2022-08-24T13:48:46Z</time>
      </trkpt>
      <trkpt lat="42.96748099999978" lon="-1.4222979999999974">
        <ele>777.062</ele>
        <time>2022-08-24T13:48:47Z</time>
      </trkpt>
      <trkpt lat="42.96747499999978" lon="-1.4223179999999973">
        <ele>777.289</ele>
        <time>2022-08-24T13:48:48Z</time>
      </trkpt>
      <trkpt lat="42.96746999999978" lon="-1.4223369999999973">
        <ele>777.492</ele>
        <time>2022-08-24T13:48:49Z</time>
      </trkpt>
      <trkpt lat="42.96746699999978" lon="-1.4223579999999973">
        <ele>777.636</ele>
        <time>2022-08-24T13:48:50Z</time>
      </trkpt>
      <trkpt lat="42.96746399999978" lon="-1.4223779999999973">
        <ele>777.675</ele>
        <time>2022-08-24T13:48:51Z</time>
      </trkpt>
      <trkpt lat="42.96745699999978" lon="-1.4223979999999972">
        <ele>777.867</ele>
        <time>2022-08-24T13:48:52Z</time>
      </trkpt>
      <trkpt lat="42.967424999999785" lon="-1.4224789999999972">
        <ele>778.481</ele>
        <time>2022-08-24T13:48:56Z</time>
      </trkpt>
      <trkpt lat="42.967416999999784" lon="-1.4225199999999971">
        <ele>778.619</ele>
        <time>2022-08-24T13:48:58Z</time>
      </trkpt>
      <trkpt lat="42.96741199999978" lon="-1.4225389999999971">
        <ele>778.809</ele>
        <time>2022-08-24T13:48:59Z</time>
      </trkpt>
      <trkpt lat="42.967407999999786" lon="-1.4225569999999972">
        <ele>779.087</ele>
        <time>2022-08-24T13:49:00Z</time>
      </trkpt>
      <trkpt lat="42.967402999999784" lon="-1.422576999999997">
        <ele>779.287</ele>
        <time>2022-08-24T13:49:01Z</time>
      </trkpt>
      <trkpt lat="42.96740099999978" lon="-1.4225979999999971">
        <ele>779.477</ele>
        <time>2022-08-24T13:49:02Z</time>
      </trkpt>
      <trkpt lat="42.967396999999785" lon="-1.4226189999999972">
        <ele>779.463</ele>
        <time>2022-08-24T13:49:03Z</time>
      </trkpt>
      <trkpt lat="42.967393999999786" lon="-1.4226369999999973">
        <ele>779.665</ele>
        <time>2022-08-24T13:49:04Z</time>
      </trkpt>
      <trkpt lat="42.96738999999979" lon="-1.4226589999999972">
        <ele>779.672</ele>
        <time>2022-08-24T13:49:05Z</time>
      </trkpt>
      <trkpt lat="42.96738799999979" lon="-1.4226749999999972">
        <ele>779.895</ele>
        <time>2022-08-24T13:49:06Z</time>
      </trkpt>
      <trkpt lat="42.967385999999784" lon="-1.4226959999999973">
        <ele>780.019</ele>
        <time>2022-08-24T13:49:07Z</time>
      </trkpt>
      <trkpt lat="42.96738699999978" lon="-1.4227179999999973">
        <ele>780.238</ele>
        <time>2022-08-24T13:49:08Z</time>
      </trkpt>
      <trkpt lat="42.967388999999784" lon="-1.4227389999999973">
        <ele>780.458</ele>
        <time>2022-08-24T13:49:09Z</time>
      </trkpt>
      <trkpt lat="42.967388999999784" lon="-1.4227649999999974">
        <ele>780.652</ele>
        <time>2022-08-24T13:49:10Z</time>
      </trkpt>
      <trkpt lat="42.96738799999979" lon="-1.4227979999999973">
        <ele>780.817</ele>
        <time>2022-08-24T13:49:11Z</time>
      </trkpt>
      <trkpt lat="42.967385999999784" lon="-1.4228359999999973">
        <ele>780.809</ele>
        <time>2022-08-24T13:49:12Z</time>
      </trkpt>
      <trkpt lat="42.96738399999978" lon="-1.4228749999999972">
        <ele>781.056</ele>
        <time>2022-08-24T13:49:13Z</time>
      </trkpt>
      <trkpt lat="42.967382999999785" lon="-1.4229079999999972">
        <ele>781.046</ele>
        <time>2022-08-24T13:49:14Z</time>
      </trkpt>
      <trkpt lat="42.96738499999979" lon="-1.4229459999999972">
        <ele>781.076</ele>
        <time>2022-08-24T13:49:15Z</time>
      </trkpt>
      <trkpt lat="42.967385999999784" lon="-1.422981999999997">
        <ele>781.062</ele>
        <time>2022-08-24T13:49:16Z</time>
      </trkpt>
      <trkpt lat="42.96738799999979" lon="-1.423012999999997">
        <ele>781.024</ele>
        <time>2022-08-24T13:49:17Z</time>
      </trkpt>
      <trkpt lat="42.96738699999979" lon="-1.423036999999997">
        <ele>780.821</ele>
        <time>2022-08-24T13:49:18Z</time>
      </trkpt>
      <trkpt lat="42.96738399999979" lon="-1.423058999999997">
        <ele>780.624</ele>
        <time>2022-08-24T13:49:19Z</time>
      </trkpt>
      <trkpt lat="42.96737299999979" lon="-1.423084999999997">
        <ele>780.248</ele>
        <time>2022-08-24T13:49:20Z</time>
      </trkpt>
      <trkpt lat="42.96735499999979" lon="-1.423114999999997">
        <ele>779.897</ele>
        <time>2022-08-24T13:49:21Z</time>
      </trkpt>
      <trkpt lat="42.96733799999979" lon="-1.423150999999997">
        <ele>779.637</ele>
        <time>2022-08-24T13:49:22Z</time>
      </trkpt>
      <trkpt lat="42.967322999999794" lon="-1.423192999999997">
        <ele>779.249</ele>
        <time>2022-08-24T13:49:23Z</time>
      </trkpt>
      <trkpt lat="42.967302999999795" lon="-1.423274999999997">
        <ele>778.813</ele>
        <time>2022-08-24T13:49:25Z</time>
      </trkpt>
      <trkpt lat="42.9672959999998" lon="-1.4233139999999969">
        <ele>778.409</ele>
        <time>2022-08-24T13:49:26Z</time>
      </trkpt>
      <trkpt lat="42.9672739999998" lon="-1.4234279999999968">
        <ele>778.054</ele>
        <time>2022-08-24T13:49:29Z</time>
      </trkpt>
      <trkpt lat="42.967274999999795" lon="-1.4234689999999968">
        <ele>778.024</ele>
        <time>2022-08-24T13:49:30Z</time>
      </trkpt>
      <trkpt lat="42.9672769999998" lon="-1.4235079999999967">
        <ele>777.894</ele>
        <time>2022-08-24T13:49:31Z</time>
      </trkpt>
      <trkpt lat="42.967271999999795" lon="-1.4235459999999966">
        <ele>777.860</ele>
        <time>2022-08-24T13:49:32Z</time>
      </trkpt>
      <trkpt lat="42.9672679999998" lon="-1.4235809999999967">
        <ele>777.652</ele>
        <time>2022-08-24T13:49:33Z</time>
      </trkpt>
      <trkpt lat="42.9672639999998" lon="-1.4236169999999966">
        <ele>777.679</ele>
        <time>2022-08-24T13:49:34Z</time>
      </trkpt>
      <trkpt lat="42.9672519999998" lon="-1.4236549999999966">
        <ele>776.842</ele>
        <time>2022-08-24T13:49:35Z</time>
      </trkpt>
      <trkpt lat="42.967239999999805" lon="-1.4236919999999966">
        <ele>776.616</ele>
        <time>2022-08-24T13:49:36Z</time>
      </trkpt>
      <trkpt lat="42.96722499999981" lon="-1.4237309999999965">
        <ele>776.295</ele>
        <time>2022-08-24T13:49:37Z</time>
      </trkpt>
      <trkpt lat="42.96721299999981" lon="-1.4237719999999965">
        <ele>775.453</ele>
        <time>2022-08-24T13:49:38Z</time>
      </trkpt>
      <trkpt lat="42.96720799999981" lon="-1.4238109999999964">
        <ele>775.204</ele>
        <time>2022-08-24T13:49:39Z</time>
      </trkpt>
      <trkpt lat="42.96720399999981" lon="-1.4238459999999964">
        <ele>774.814</ele>
        <time>2022-08-24T13:49:40Z</time>
      </trkpt>
      <trkpt lat="42.967196999999814" lon="-1.4239199999999963">
        <ele>774.009</ele>
        <time>2022-08-24T13:49:42Z</time>
      </trkpt>
      <trkpt lat="42.96719199999981" lon="-1.4239689999999963">
        <ele>773.686</ele>
        <time>2022-08-24T13:49:43Z</time>
      </trkpt>
      <trkpt lat="42.967184999999816" lon="-1.4240489999999963">
        <ele>773.056</ele>
        <time>2022-08-24T13:49:45Z</time>
      </trkpt>
      <trkpt lat="42.967176999999815" lon="-1.4241059999999963">
        <ele>772.616</ele>
        <time>2022-08-24T13:49:46Z</time>
      </trkpt>
      <trkpt lat="42.96714199999982" lon="-1.4242639999999964">
        <ele>772.072</ele>
        <time>2022-08-24T13:49:48Z</time>
      </trkpt>
      <trkpt lat="42.96711399999982" lon="-1.4243429999999964">
        <ele>771.674</ele>
        <time>2022-08-24T13:49:49Z</time>
      </trkpt>
      <trkpt lat="42.96709999999982" lon="-1.4244129999999964">
        <ele>771.221</ele>
        <time>2022-08-24T13:49:50Z</time>
      </trkpt>
      <trkpt lat="42.96707899999982" lon="-1.4244619999999963">
        <ele>771.044</ele>
        <time>2022-08-24T13:49:51Z</time>
      </trkpt>
      <trkpt lat="42.96702999999982" lon="-1.4245499999999964">
        <ele>770.678</ele>
        <time>2022-08-24T13:49:53Z</time>
      </trkpt>
      <trkpt lat="42.96700899999983" lon="-1.4246289999999964">
        <ele>770.027</ele>
        <time>2022-08-24T13:49:54Z</time>
      </trkpt>
      <trkpt lat="42.96699099999983" lon="-1.4246959999999964">
        <ele>769.885</ele>
        <time>2022-08-24T13:49:55Z</time>
      </trkpt>
      <trkpt lat="42.96697599999983" lon="-1.4247529999999964">
        <ele>769.689</ele>
        <time>2022-08-24T13:49:56Z</time>
      </trkpt>
      <trkpt lat="42.966968999999835" lon="-1.4248129999999963">
        <ele>769.417</ele>
        <time>2022-08-24T13:49:57Z</time>
      </trkpt>
      <trkpt lat="42.96697399999984" lon="-1.4249309999999964">
        <ele>768.409</ele>
        <time>2022-08-24T13:49:59Z</time>
      </trkpt>
      <trkpt lat="42.96694499999984" lon="-1.4250269999999965">
        <ele>768.019</ele>
        <time>2022-08-24T13:50:00Z</time>
      </trkpt>
      <trkpt lat="42.96688199999984" lon="-1.4251859999999965">
        <ele>767.289</ele>
        <time>2022-08-24T13:50:02Z</time>
      </trkpt>
      <trkpt lat="42.96685399999984" lon="-1.4252519999999964">
        <ele>767.299</ele>
        <time>2022-08-24T13:50:03Z</time>
      </trkpt>
      <trkpt lat="42.96680999999984" lon="-1.4253199999999964">
        <ele>766.865</ele>
        <time>2022-08-24T13:50:04Z</time>
      </trkpt>
      <trkpt lat="42.966782999999836" lon="-1.4253719999999963">
        <ele>766.457</ele>
        <time>2022-08-24T13:50:05Z</time>
      </trkpt>
      <trkpt lat="42.96677299999983" lon="-1.4254059999999964">
        <ele>766.094</ele>
        <time>2022-08-24T13:50:06Z</time>
      </trkpt>
      <trkpt lat="42.96671399999983" lon="-1.4254729999999964">
        <ele>765.817</ele>
        <time>2022-08-24T13:50:08Z</time>
      </trkpt>
      <trkpt lat="42.96667299999983" lon="-1.4255159999999965">
        <ele>765.671</ele>
        <time>2022-08-24T13:50:09Z</time>
      </trkpt>
      <trkpt lat="42.96661299999983" lon="-1.4256149999999965">
        <ele>765.280</ele>
        <time>2022-08-24T13:50:11Z</time>
      </trkpt>
      <trkpt lat="42.96658599999983" lon="-1.4256879999999965">
        <ele>765.026</ele>
        <time>2022-08-24T13:50:12Z</time>
      </trkpt>
      <trkpt lat="42.96655599999983" lon="-1.4257479999999965">
        <ele>765.047</ele>
        <time>2022-08-24T13:50:13Z</time>
      </trkpt>
      <trkpt lat="42.966553999999824" lon="-1.4257919999999964">
        <ele>764.811</ele>
        <time>2022-08-24T13:50:14Z</time>
      </trkpt>
      <trkpt lat="42.966559999999824" lon="-1.4258209999999965">
        <ele>764.609</ele>
        <time>2022-08-24T13:50:15Z</time>
      </trkpt>
      <trkpt lat="42.966559999999824" lon="-1.4258719999999965">
        <ele>764.213</ele>
        <time>2022-08-24T13:50:16Z</time>
      </trkpt>
      <trkpt lat="42.966558999999826" lon="-1.4259149999999965">
        <ele>764.293</ele>
        <time>2022-08-24T13:50:17Z</time>
      </trkpt>
      <trkpt lat="42.966558999999826" lon="-1.4259589999999964">
        <ele>763.883</ele>
        <time>2022-08-24T13:50:18Z</time>
      </trkpt>
      <trkpt lat="42.96654599999982" lon="-1.4260079999999964">
        <ele>763.869</ele>
        <time>2022-08-24T13:50:19Z</time>
      </trkpt>
      <trkpt lat="42.96649299999982" lon="-1.4260719999999965">
        <ele>763.051</ele>
        <time>2022-08-24T13:50:20Z</time>
      </trkpt>
      <trkpt lat="42.96644899999982" lon="-1.4261099999999964">
        <ele>762.468</ele>
        <time>2022-08-24T13:50:21Z</time>
      </trkpt>
      <trkpt lat="42.966424999999816" lon="-1.4261579999999965">
        <ele>762.021</ele>
        <time>2022-08-24T13:50:22Z</time>
      </trkpt>
      <trkpt lat="42.966413999999816" lon="-1.4261999999999966">
        <ele>761.695</ele>
        <time>2022-08-24T13:50:23Z</time>
      </trkpt>
      <trkpt lat="42.96641799999981" lon="-1.4262479999999966">
        <ele>761.474</ele>
        <time>2022-08-24T13:50:24Z</time>
      </trkpt>
      <trkpt lat="42.96641299999981" lon="-1.4262879999999967">
        <ele>761.044</ele>
        <time>2022-08-24T13:50:25Z</time>
      </trkpt>
      <trkpt lat="42.96638799999981" lon="-1.4264109999999968">
        <ele>760.405</ele>
        <time>2022-08-24T13:50:27Z</time>
      </trkpt>
      <trkpt lat="42.96634999999981" lon="-1.4264899999999967">
        <ele>759.815</ele>
        <time>2022-08-24T13:50:28Z</time>
      </trkpt>
      <trkpt lat="42.96633199999981" lon="-1.4265339999999966">
        <ele>759.809</ele>
        <time>2022-08-24T13:50:29Z</time>
      </trkpt>
      <trkpt lat="42.96632799999981" lon="-1.4265589999999966">
        <ele>759.425</ele>
        <time>2022-08-24T13:50:30Z</time>
      </trkpt>
      <trkpt lat="42.966315999999814" lon="-1.4266239999999966">
        <ele>759.265</ele>
        <time>2022-08-24T13:50:31Z</time>
      </trkpt>
      <trkpt lat="42.96630299999981" lon="-1.4266559999999966">
        <ele>758.625</ele>
        <time>2022-08-24T13:50:32Z</time>
      </trkpt>
      <trkpt lat="42.96625199999981" lon="-1.4267819999999967">
        <ele>757.851</ele>
        <time>2022-08-24T13:50:35Z</time>
      </trkpt>
      <trkpt lat="42.96621499999981" lon="-1.4268229999999966">
        <ele>757.853</ele>
        <time>2022-08-24T13:50:36Z</time>
      </trkpt>
      <trkpt lat="42.96618199999981" lon="-1.4268499999999966">
        <ele>757.240</ele>
        <time>2022-08-24T13:50:37Z</time>
      </trkpt>
      <trkpt lat="42.96616999999981" lon="-1.4268709999999967">
        <ele>757.093</ele>
        <time>2022-08-24T13:50:38Z</time>
      </trkpt>
      <trkpt lat="42.96615999999981" lon="-1.4268929999999966">
        <ele>756.837</ele>
        <time>2022-08-24T13:50:39Z</time>
      </trkpt>
      <trkpt lat="42.96614299999981" lon="-1.4269599999999967">
        <ele>756.276</ele>
        <time>2022-08-24T13:50:41Z</time>
      </trkpt>
      <trkpt lat="42.96611299999981" lon="-1.4270849999999966">
        <ele>755.884</ele>
        <time>2022-08-24T13:50:43Z</time>
      </trkpt>
      <trkpt lat="42.96607799999981" lon="-1.4272609999999966">
        <ele>755.007</ele>
        <time>2022-08-24T13:50:45Z</time>
      </trkpt>
      <trkpt lat="42.96604399999981" lon="-1.4273279999999966">
        <ele>754.817</ele>
        <time>2022-08-24T13:50:46Z</time>
      </trkpt>
      <trkpt lat="42.96603099999981" lon="-1.4273649999999967">
        <ele>754.609</ele>
        <time>2022-08-24T13:50:47Z</time>
      </trkpt>
      <trkpt lat="42.96601199999981" lon="-1.4274689999999968">
        <ele>754.089</ele>
        <time>2022-08-24T13:50:49Z</time>
      </trkpt>
      <trkpt lat="42.96599399999981" lon="-1.4275289999999967">
        <ele>753.889</ele>
        <time>2022-08-24T13:50:50Z</time>
      </trkpt>
      <trkpt lat="42.96598499999981" lon="-1.4275749999999967">
        <ele>753.669</ele>
        <time>2022-08-24T13:50:51Z</time>
      </trkpt>
      <trkpt lat="42.965969999999814" lon="-1.4276289999999967">
        <ele>753.465</ele>
        <time>2022-08-24T13:50:52Z</time>
      </trkpt>
      <trkpt lat="42.96593499999982" lon="-1.4277719999999967">
        <ele>752.847</ele>
        <time>2022-08-24T13:50:54Z</time>
      </trkpt>
      <trkpt lat="42.96591799999982" lon="-1.4278389999999967">
        <ele>752.654</ele>
        <time>2022-08-24T13:50:55Z</time>
      </trkpt>
      <trkpt lat="42.96589699999982" lon="-1.4278889999999969">
        <ele>752.647</ele>
        <time>2022-08-24T13:50:56Z</time>
      </trkpt>
      <trkpt lat="42.96585599999982" lon="-1.4279979999999968">
        <ele>752.421</ele>
        <time>2022-08-24T13:50:58Z</time>
      </trkpt>
      <trkpt lat="42.96580799999982" lon="-1.4280949999999968">
        <ele>752.270</ele>
        <time>2022-08-24T13:51:00Z</time>
      </trkpt>
      <trkpt lat="42.965769999999814" lon="-1.4281949999999968">
        <ele>752.045</ele>
        <time>2022-08-24T13:51:02Z</time>
      </trkpt>
      <trkpt lat="42.965741999999814" lon="-1.4282379999999968">
        <ele>752.047</ele>
        <time>2022-08-24T13:51:03Z</time>
      </trkpt>
      <trkpt lat="42.965710999999814" lon="-1.4282779999999968">
        <ele>751.811</ele>
        <time>2022-08-24T13:51:04Z</time>
      </trkpt>
      <trkpt lat="42.96569999999981" lon="-1.4282969999999968">
        <ele>751.809</ele>
        <time>2022-08-24T13:51:05Z</time>
      </trkpt>
      <trkpt lat="42.965681999999816" lon="-1.4283459999999968">
        <ele>751.895</ele>
        <time>2022-08-24T13:51:06Z</time>
      </trkpt>
      <trkpt lat="42.96567199999981" lon="-1.4283869999999967">
        <ele>751.855</ele>
        <time>2022-08-24T13:51:07Z</time>
      </trkpt>
      <trkpt lat="42.965659999999815" lon="-1.4284059999999967">
        <ele>751.685</ele>
        <time>2022-08-24T13:51:08Z</time>
      </trkpt>
      <trkpt lat="42.96575399999981" lon="-1.4285049999999968">
        <ele>750.881</ele>
        <time>2022-08-24T13:51:13Z</time>
      </trkpt>
      <trkpt lat="42.96577399999981" lon="-1.4285339999999969">
        <ele>750.613</ele>
        <time>2022-08-24T13:51:14Z</time>
      </trkpt>
      <trkpt lat="42.96585399999981" lon="-1.428632999999997">
        <ele>750.070</ele>
        <time>2022-08-24T13:51:17Z</time>
      </trkpt>
      <trkpt lat="42.965882999999806" lon="-1.428661999999997">
        <ele>749.863</ele>
        <time>2022-08-24T13:51:18Z</time>
      </trkpt>
      <trkpt lat="42.96590999999981" lon="-1.428694999999997">
        <ele>749.627</ele>
        <time>2022-08-24T13:51:19Z</time>
      </trkpt>
      <trkpt lat="42.965930999999806" lon="-1.428721999999997">
        <ele>749.656</ele>
        <time>2022-08-24T13:51:20Z</time>
      </trkpt>
      <trkpt lat="42.965939999999804" lon="-1.4287419999999968">
        <ele>749.619</ele>
        <time>2022-08-24T13:51:21Z</time>
      </trkpt>
      <trkpt lat="42.9659379999998" lon="-1.4287739999999969">
        <ele>749.609</ele>
        <time>2022-08-24T13:51:22Z</time>
      </trkpt>
      <trkpt lat="42.9659299999998" lon="-1.4288019999999968">
        <ele>749.619</ele>
        <time>2022-08-24T13:51:23Z</time>
      </trkpt>
      <trkpt lat="42.965911999999804" lon="-1.4288489999999967">
        <ele>749.809</ele>
        <time>2022-08-24T13:51:25Z</time>
      </trkpt>
      <trkpt lat="42.9659099999998" lon="-1.4288579999999966">
        <ele>750.272</ele>
        <time>2022-08-24T13:51:28Z</time>
      </trkpt>
      <trkpt lat="42.965908999999805" lon="-1.4288859999999965">
        <ele>750.432</ele>
        <time>2022-08-24T13:51:30Z</time>
      </trkpt>
      <trkpt lat="42.965874999999805" lon="-1.4290289999999966">
        <ele>750.672</ele>
        <time>2022-08-24T13:51:35Z</time>
      </trkpt>
      <trkpt lat="42.96585699999981" lon="-1.4290879999999966">
        <ele>750.638</ele>
        <time>2022-08-24T13:51:37Z</time>
      </trkpt>
      <trkpt lat="42.96585099999981" lon="-1.4291119999999966">
        <ele>750.630</ele>
        <time>2022-08-24T13:51:38Z</time>
      </trkpt>
      <trkpt lat="42.96584899999981" lon="-1.4291249999999966">
        <ele>750.687</ele>
        <time>2022-08-24T13:51:39Z</time>
      </trkpt>
      <trkpt lat="42.96584799999981" lon="-1.4291289999999965">
        <ele>750.690</ele>
        <time>2022-08-24T13:51:40Z</time>
      </trkpt>
      <trkpt lat="42.96583599999981" lon="-1.4291659999999966">
        <ele>750.024</ele>
        <time>2022-08-24T13:51:49Z</time>
      </trkpt>
      <trkpt lat="42.96578099999981" lon="-1.4292659999999966">
        <ele>750.063</ele>
        <time>2022-08-24T13:51:52Z</time>
      </trkpt>
      <trkpt lat="42.96567999999981" lon="-1.4295369999999965">
        <ele>749.662</ele>
        <time>2022-08-24T13:51:57Z</time>
      </trkpt>
      <trkpt lat="42.965654999999806" lon="-1.4295849999999966">
        <ele>749.483</ele>
        <time>2022-08-24T13:51:58Z</time>
      </trkpt>
      <trkpt lat="42.965629999999805" lon="-1.4296319999999965">
        <ele>749.211</ele>
        <time>2022-08-24T13:51:59Z</time>
      </trkpt>
      <trkpt lat="42.9656059999998" lon="-1.4296779999999965">
        <ele>749.009</ele>
        <time>2022-08-24T13:52:00Z</time>
      </trkpt>
      <trkpt lat="42.9655889999998" lon="-1.4297309999999965">
        <ele>749.017</ele>
        <time>2022-08-24T13:52:01Z</time>
      </trkpt>
      <trkpt lat="42.9655789999998" lon="-1.4297879999999965">
        <ele>749.077</ele>
        <time>2022-08-24T13:52:02Z</time>
      </trkpt>
      <trkpt lat="42.9655639999998" lon="-1.4298409999999966">
        <ele>749.057</ele>
        <time>2022-08-24T13:52:03Z</time>
      </trkpt>
      <trkpt lat="42.9655559999998" lon="-1.4298969999999966">
        <ele>748.833</ele>
        <time>2022-08-24T13:52:04Z</time>
      </trkpt>
      <trkpt lat="42.9655469999998" lon="-1.4299519999999966">
        <ele>748.655</ele>
        <time>2022-08-24T13:52:05Z</time>
      </trkpt>
      <trkpt lat="42.9655329999998" lon="-1.4300049999999966">
        <ele>748.692</ele>
        <time>2022-08-24T13:52:06Z</time>
      </trkpt>
      <trkpt lat="42.9654999999998" lon="-1.4301159999999966">
        <ele>748.475</ele>
        <time>2022-08-24T13:52:08Z</time>
      </trkpt>
      <trkpt lat="42.9654779999998" lon="-1.4302389999999967">
        <ele>747.679</ele>
        <time>2022-08-24T13:52:10Z</time>
      </trkpt>
      <trkpt lat="42.9654099999998" lon="-1.4306509999999968">
        <ele>746.848</ele>
        <time>2022-08-24T13:52:16Z</time>
      </trkpt>
      <trkpt lat="42.9653819999998" lon="-1.4308039999999969">
        <ele>746.658</ele>
        <time>2022-08-24T13:52:18Z</time>
      </trkpt>
      <trkpt lat="42.9653689999998" lon="-1.430878999999997">
        <ele>746.652</ele>
        <time>2022-08-24T13:52:19Z</time>
      </trkpt>
      <trkpt lat="42.965315999999795" lon="-1.431098999999997">
        <ele>746.017</ele>
        <time>2022-08-24T13:52:22Z</time>
      </trkpt>
      <trkpt lat="42.965298999999796" lon="-1.431167999999997">
        <ele>745.809</ele>
        <time>2022-08-24T13:52:23Z</time>
      </trkpt>
      <trkpt lat="42.9652809999998" lon="-1.4312349999999971">
        <ele>745.896</ele>
        <time>2022-08-24T13:52:24Z</time>
      </trkpt>
      <trkpt lat="42.9652589999998" lon="-1.431300999999997">
        <ele>745.666</ele>
        <time>2022-08-24T13:52:25Z</time>
      </trkpt>
      <trkpt lat="42.965234999999794" lon="-1.431363999999997">
        <ele>745.646</ele>
        <time>2022-08-24T13:52:26Z</time>
      </trkpt>
      <trkpt lat="42.9651859999998" lon="-1.431490999999997">
        <ele>745.022</ele>
        <time>2022-08-24T13:52:28Z</time>
      </trkpt>
      <trkpt lat="42.9650749999998" lon="-1.431747999999997">
        <ele>744.684</ele>
        <time>2022-08-24T13:52:32Z</time>
      </trkpt>
      <trkpt lat="42.9649679999998" lon="-1.432003999999997">
        <ele>744.261</ele>
        <time>2022-08-24T13:52:36Z</time>
      </trkpt>
      <trkpt lat="42.9649409999998" lon="-1.432065999999997">
        <ele>744.244</ele>
        <time>2022-08-24T13:52:37Z</time>
      </trkpt>
      <trkpt lat="42.9649119999998" lon="-1.4321239999999968">
        <ele>744.258</ele>
        <time>2022-08-24T13:52:38Z</time>
      </trkpt>
      <trkpt lat="42.9648799999998" lon="-1.4321759999999968">
        <ele>744.027</ele>
        <time>2022-08-24T13:52:39Z</time>
      </trkpt>
      <trkpt lat="42.9648439999998" lon="-1.4322229999999967">
        <ele>743.825</ele>
        <time>2022-08-24T13:52:40Z</time>
      </trkpt>
      <trkpt lat="42.9648069999998" lon="-1.4322709999999967">
        <ele>743.426</ele>
        <time>2022-08-24T13:52:41Z</time>
      </trkpt>
      <trkpt lat="42.9647649999998" lon="-1.4323169999999967">
        <ele>743.208</ele>
        <time>2022-08-24T13:52:42Z</time>
      </trkpt>
      <trkpt lat="42.9647259999998" lon="-1.4323639999999966">
        <ele>743.009</ele>
        <time>2022-08-24T13:52:43Z</time>
      </trkpt>
      <trkpt lat="42.9646899999998" lon="-1.4324079999999966">
        <ele>742.433</ele>
        <time>2022-08-24T13:52:44Z</time>
      </trkpt>
      <trkpt lat="42.9646559999998" lon="-1.4324519999999965">
        <ele>742.453</ele>
        <time>2022-08-24T13:52:45Z</time>
      </trkpt>
      <trkpt lat="42.9646239999998" lon="-1.4324999999999966">
        <ele>742.093</ele>
        <time>2022-08-24T13:52:46Z</time>
      </trkpt>
      <trkpt lat="42.964594999999804" lon="-1.4325459999999965">
        <ele>742.059</ele>
        <time>2022-08-24T13:52:47Z</time>
      </trkpt>
      <trkpt lat="42.9645419999998" lon="-1.4326439999999965">
        <ele>742.081</ele>
        <time>2022-08-24T13:52:49Z</time>
      </trkpt>
      <trkpt lat="42.9645219999998" lon="-1.4326929999999964">
        <ele>742.288</ele>
        <time>2022-08-24T13:52:50Z</time>
      </trkpt>
      <trkpt lat="42.9644999999998" lon="-1.4327349999999965">
        <ele>742.451</ele>
        <time>2022-08-24T13:52:51Z</time>
      </trkpt>
      <trkpt lat="42.9644779999998" lon="-1.4327779999999966">
        <ele>742.475</ele>
        <time>2022-08-24T13:52:52Z</time>
      </trkpt>
      <trkpt lat="42.964456999999804" lon="-1.4328209999999966">
        <ele>742.624</ele>
        <time>2022-08-24T13:52:53Z</time>
      </trkpt>
      <trkpt lat="42.9644379999998" lon="-1.4328629999999967">
        <ele>742.623</ele>
        <time>2022-08-24T13:52:54Z</time>
      </trkpt>
      <trkpt lat="42.9644189999998" lon="-1.4329059999999967">
        <ele>742.683</ele>
        <time>2022-08-24T13:52:55Z</time>
      </trkpt>
      <trkpt lat="42.9643989999998" lon="-1.4329469999999966">
        <ele>743.011</ele>
        <time>2022-08-24T13:52:56Z</time>
      </trkpt>
      <trkpt lat="42.9642419999998" lon="-1.4332419999999966">
        <ele>743.809</ele>
        <time>2022-08-24T13:53:03Z</time>
      </trkpt>
      <trkpt lat="42.9642189999998" lon="-1.4332749999999965">
        <ele>743.883</ele>
        <time>2022-08-24T13:53:04Z</time>
      </trkpt>
      <trkpt lat="42.9641959999998" lon="-1.4333059999999964">
        <ele>743.823</ele>
        <time>2022-08-24T13:53:05Z</time>
      </trkpt>
      <trkpt lat="42.9641769999998" lon="-1.4333379999999964">
        <ele>744.043</ele>
        <time>2022-08-24T13:53:06Z</time>
      </trkpt>
      <trkpt lat="42.9641629999998" lon="-1.4333719999999965">
        <ele>744.259</ele>
        <time>2022-08-24T13:53:07Z</time>
      </trkpt>
      <trkpt lat="42.9641499999998" lon="-1.4334049999999965">
        <ele>744.211</ele>
        <time>2022-08-24T13:53:08Z</time>
      </trkpt>
      <trkpt lat="42.9641349999998" lon="-1.4334349999999965">
        <ele>744.488</ele>
        <time>2022-08-24T13:53:09Z</time>
      </trkpt>
      <trkpt lat="42.9641179999998" lon="-1.4334629999999964">
        <ele>744.671</ele>
        <time>2022-08-24T13:53:10Z</time>
      </trkpt>
      <trkpt lat="42.9641019999998" lon="-1.4334939999999963">
        <ele>744.885</ele>
        <time>2022-08-24T13:53:11Z</time>
      </trkpt>
      <trkpt lat="42.9640869999998" lon="-1.4335269999999962">
        <ele>745.034</ele>
        <time>2022-08-24T13:53:12Z</time>
      </trkpt>
      <trkpt lat="42.9640619999998" lon="-1.4335899999999961">
        <ele>745.475</ele>
        <time>2022-08-24T13:53:14Z</time>
      </trkpt>
      <trkpt lat="42.9640529999998" lon="-1.4336219999999962">
        <ele>745.628</ele>
        <time>2022-08-24T13:53:15Z</time>
      </trkpt>
      <trkpt lat="42.9640449999998" lon="-1.4336509999999962">
        <ele>746.020</ele>
        <time>2022-08-24T13:53:16Z</time>
      </trkpt>
      <trkpt lat="42.9640359999998" lon="-1.4336809999999962">
        <ele>746.409</ele>
        <time>2022-08-24T13:53:17Z</time>
      </trkpt>
      <trkpt lat="42.9640259999998" lon="-1.4337099999999963">
        <ele>746.698</ele>
        <time>2022-08-24T13:53:18Z</time>
      </trkpt>
      <trkpt lat="42.9640149999998" lon="-1.4337379999999962">
        <ele>747.028</ele>
        <time>2022-08-24T13:53:19Z</time>
      </trkpt>
      <trkpt lat="42.9640039999998" lon="-1.4337669999999962">
        <ele>747.258</ele>
        <time>2022-08-24T13:53:20Z</time>
      </trkpt>
      <trkpt lat="42.96399399999979" lon="-1.4337999999999962">
        <ele>747.474</ele>
        <time>2022-08-24T13:53:21Z</time>
      </trkpt>
      <trkpt lat="42.963984999999795" lon="-1.4338339999999963">
        <ele>747.646</ele>
        <time>2022-08-24T13:53:22Z</time>
      </trkpt>
      <trkpt lat="42.9639729999998" lon="-1.4338679999999964">
        <ele>747.683</ele>
        <time>2022-08-24T13:53:23Z</time>
      </trkpt>
      <trkpt lat="42.9639589999998" lon="-1.4339059999999964">
        <ele>747.876</ele>
        <time>2022-08-24T13:53:24Z</time>
      </trkpt>
      <trkpt lat="42.963942999999794" lon="-1.4339469999999963">
        <ele>748.020</ele>
        <time>2022-08-24T13:53:25Z</time>
      </trkpt>
      <trkpt lat="42.9639249999998" lon="-1.4339869999999963">
        <ele>748.029</ele>
        <time>2022-08-24T13:53:26Z</time>
      </trkpt>
      <trkpt lat="42.9639099999998" lon="-1.4340269999999964">
        <ele>748.057</ele>
        <time>2022-08-24T13:53:27Z</time>
      </trkpt>
      <trkpt lat="42.9638889999998" lon="-1.4340649999999964">
        <ele>748.000</ele>
        <time>2022-08-24T13:53:28Z</time>
      </trkpt>
      <trkpt lat="42.963867999999806" lon="-1.4341019999999964">
        <ele>748.020</ele>
        <time>2022-08-24T13:53:29Z</time>
      </trkpt>
      <trkpt lat="42.963845999999805" lon="-1.4341389999999965">
        <ele>748.009</ele>
        <time>2022-08-24T13:53:30Z</time>
      </trkpt>
      <trkpt lat="42.9638219999998" lon="-1.4341769999999965">
        <ele>747.886</ele>
        <time>2022-08-24T13:53:31Z</time>
      </trkpt>
      <trkpt lat="42.9637949999998" lon="-1.4342159999999964">
        <ele>747.466</ele>
        <time>2022-08-24T13:53:32Z</time>
      </trkpt>
      <trkpt lat="42.9637699999998" lon="-1.4342569999999963">
        <ele>747.416</ele>
        <time>2022-08-24T13:53:33Z</time>
      </trkpt>
      <trkpt lat="42.9637449999998" lon="-1.4342999999999964">
        <ele>746.822</ele>
        <time>2022-08-24T13:53:34Z</time>
      </trkpt>
      <trkpt lat="42.963722999999796" lon="-1.4343449999999964">
        <ele>746.654</ele>
        <time>2022-08-24T13:53:35Z</time>
      </trkpt>
      <trkpt lat="42.963705999999796" lon="-1.4343909999999964">
        <ele>746.071</ele>
        <time>2022-08-24T13:53:36Z</time>
      </trkpt>
      <trkpt lat="42.963688999999796" lon="-1.4344379999999963">
        <ele>745.264</ele>
        <time>2022-08-24T13:53:37Z</time>
      </trkpt>
      <trkpt lat="42.963672999999794" lon="-1.4344919999999963">
        <ele>744.648</ele>
        <time>2022-08-24T13:53:38Z</time>
      </trkpt>
      <trkpt lat="42.963635999999795" lon="-1.4346499999999964">
        <ele>743.057</ele>
        <time>2022-08-24T13:53:41Z</time>
      </trkpt>
      <trkpt lat="42.963624999999794" lon="-1.4346939999999964">
        <ele>742.839</ele>
        <time>2022-08-24T13:53:42Z</time>
      </trkpt>
      <trkpt lat="42.96361699999979" lon="-1.4347399999999964">
        <ele>742.201</ele>
        <time>2022-08-24T13:53:43Z</time>
      </trkpt>
      <trkpt lat="42.96361199999979" lon="-1.4347839999999963">
        <ele>741.821</ele>
        <time>2022-08-24T13:53:44Z</time>
      </trkpt>
      <trkpt lat="42.96359899999979" lon="-1.4350199999999962">
        <ele>740.609</ele>
        <time>2022-08-24T13:53:48Z</time>
      </trkpt>
      <trkpt lat="42.96360399999979" lon="-1.4350949999999962">
        <ele>740.034</ele>
        <time>2022-08-24T13:53:49Z</time>
      </trkpt>
      <trkpt lat="42.96361199999979" lon="-1.4351799999999961">
        <ele>739.624</ele>
        <time>2022-08-24T13:53:50Z</time>
      </trkpt>
      <trkpt lat="42.96362299999979" lon="-1.4354299999999962">
        <ele>738.044</ele>
        <time>2022-08-24T13:53:53Z</time>
      </trkpt>
      <trkpt lat="42.96361699999979" lon="-1.4355129999999963">
        <ele>737.880</ele>
        <time>2022-08-24T13:53:54Z</time>
      </trkpt>
      <trkpt lat="42.96360399999979" lon="-1.4355939999999963">
        <ele>737.452</ele>
        <time>2022-08-24T13:53:55Z</time>
      </trkpt>
      <trkpt lat="42.96357799999979" lon="-1.4356679999999962">
        <ele>737.049</ele>
        <time>2022-08-24T13:53:56Z</time>
      </trkpt>
      <trkpt lat="42.96354399999979" lon="-1.4357349999999962">
        <ele>737.072</ele>
        <time>2022-08-24T13:53:57Z</time>
      </trkpt>
      <trkpt lat="42.96350599999979" lon="-1.4357969999999962">
        <ele>736.446</ele>
        <time>2022-08-24T13:53:58Z</time>
      </trkpt>
      <trkpt lat="42.96346999999979" lon="-1.4358589999999962">
        <ele>736.245</ele>
        <time>2022-08-24T13:53:59Z</time>
      </trkpt>
      <trkpt lat="42.963428999999785" lon="-1.4359199999999963">
        <ele>735.845</ele>
        <time>2022-08-24T13:54:00Z</time>
      </trkpt>
      <trkpt lat="42.963388999999786" lon="-1.4359799999999963">
        <ele>735.447</ele>
        <time>2022-08-24T13:54:01Z</time>
      </trkpt>
      <trkpt lat="42.963349999999785" lon="-1.4360389999999963">
        <ele>735.211</ele>
        <time>2022-08-24T13:54:02Z</time>
      </trkpt>
      <trkpt lat="42.96330999999979" lon="-1.4360979999999963">
        <ele>735.009</ele>
        <time>2022-08-24T13:54:03Z</time>
      </trkpt>
      <trkpt lat="42.96327199999978" lon="-1.4361569999999964">
        <ele>734.855</ele>
        <time>2022-08-24T13:54:04Z</time>
      </trkpt>
      <trkpt lat="42.963236999999786" lon="-1.4362189999999964">
        <ele>734.875</ele>
        <time>2022-08-24T13:54:05Z</time>
      </trkpt>
      <trkpt lat="42.96317199999979" lon="-1.4363499999999965">
        <ele>734.435</ele>
        <time>2022-08-24T13:54:07Z</time>
      </trkpt>
      <trkpt lat="42.963141999999785" lon="-1.4364169999999965">
        <ele>734.411</ele>
        <time>2022-08-24T13:54:08Z</time>
      </trkpt>
      <trkpt lat="42.963025999999786" lon="-1.4366829999999966">
        <ele>734.483</ele>
        <time>2022-08-24T13:54:12Z</time>
      </trkpt>
      <trkpt lat="42.96296299999979" lon="-1.4367989999999966">
        <ele>734.280</ele>
        <time>2022-08-24T13:54:14Z</time>
      </trkpt>
      <trkpt lat="42.96292399999979" lon="-1.4369379999999965">
        <ele>734.493</ele>
        <time>2022-08-24T13:54:16Z</time>
      </trkpt>
      <trkpt lat="42.962893999999785" lon="-1.4371059999999964">
        <ele>734.287</ele>
        <time>2022-08-24T13:54:18Z</time>
      </trkpt>
      <trkpt lat="42.962874999999784" lon="-1.4371829999999965">
        <ele>734.276</ele>
        <time>2022-08-24T13:54:19Z</time>
      </trkpt>
      <trkpt lat="42.962854999999784" lon="-1.4372549999999966">
        <ele>734.045</ele>
        <time>2022-08-24T13:54:20Z</time>
      </trkpt>
      <trkpt lat="42.96283899999978" lon="-1.4373229999999966">
        <ele>734.047</ele>
        <time>2022-08-24T13:54:21Z</time>
      </trkpt>
      <trkpt lat="42.962823999999785" lon="-1.4373889999999965">
        <ele>734.011</ele>
        <time>2022-08-24T13:54:22Z</time>
      </trkpt>
      <trkpt lat="42.96280899999979" lon="-1.4374519999999964">
        <ele>734.009</ele>
        <time>2022-08-24T13:54:23Z</time>
      </trkpt>
      <trkpt lat="42.96279499999979" lon="-1.4375089999999964">
        <ele>733.885</ele>
        <time>2022-08-24T13:54:24Z</time>
      </trkpt>
      <trkpt lat="42.96278099999979" lon="-1.4375619999999965">
        <ele>733.855</ele>
        <time>2022-08-24T13:54:25Z</time>
      </trkpt>
      <trkpt lat="42.96277099999978" lon="-1.4376119999999966">
        <ele>733.685</ele>
        <time>2022-08-24T13:54:26Z</time>
      </trkpt>
      <trkpt lat="42.96276299999978" lon="-1.4376539999999967">
        <ele>733.661</ele>
        <time>2022-08-24T13:54:27Z</time>
      </trkpt>
      <trkpt lat="42.96275699999978" lon="-1.4376869999999966">
        <ele>733.673</ele>
        <time>2022-08-24T13:54:28Z</time>
      </trkpt>
      <trkpt lat="42.96275199999978" lon="-1.4377109999999966">
        <ele>733.680</ele>
        <time>2022-08-24T13:54:29Z</time>
      </trkpt>
      <trkpt lat="42.962747999999785" lon="-1.4377269999999966">
        <ele>733.623</ele>
        <time>2022-08-24T13:54:30Z</time>
      </trkpt>
      <trkpt lat="42.962741999999785" lon="-1.4377389999999965">
        <ele>733.627</ele>
        <time>2022-08-24T13:54:31Z</time>
      </trkpt>
      <trkpt lat="42.962741999999785" lon="-1.4377519999999966">
        <ele>733.696</ele>
        <time>2022-08-24T13:54:32Z</time>
      </trkpt>
      <trkpt lat="42.96273999999978" lon="-1.4377619999999967">
        <ele>733.848</ele>
        <time>2022-08-24T13:54:33Z</time>
      </trkpt>
      <trkpt lat="42.96273799999978" lon="-1.4377689999999967">
        <ele>733.861</ele>
        <time>2022-08-24T13:54:34Z</time>
      </trkpt>
      <trkpt lat="42.96273599999978" lon="-1.4377719999999967">
        <ele>734.017</ele>
        <time>2022-08-24T13:54:35Z</time>
      </trkpt>
      <trkpt lat="42.96273599999978" lon="-1.4377719999999967">
        <ele>734.009</ele>
        <time>2022-08-24T13:56:01Z</time>
      </trkpt>
      <trkpt lat="42.96273699999978" lon="-1.4377589999999967">
        <ele>734.025</ele>
        <time>2022-08-24T13:56:03Z</time>
      </trkpt>
      <trkpt lat="42.96273699999978" lon="-1.4377589999999967">
        <ele>734.065</ele>
        <time>2022-08-24T13:56:04Z</time>
      </trkpt>
      <trkpt lat="42.962737999999774" lon="-1.4377559999999967">
        <ele>734.065</ele>
        <time>2022-08-24T13:56:05Z</time>
      </trkpt>
      <trkpt lat="42.96275599999977" lon="-1.4377149999999967">
        <ele>733.871</ele>
        <time>2022-08-24T13:56:07Z</time>
      </trkpt>
      <trkpt lat="42.96275599999977" lon="-1.4377149999999967">
        <ele>734.013</ele>
        <time>2022-08-24T13:56:08Z</time>
      </trkpt>
      <trkpt lat="42.96275599999977" lon="-1.4377149999999967">
        <ele>734.070</ele>
        <time>2022-08-24T13:56:09Z</time>
      </trkpt>
      <trkpt lat="42.96275599999977" lon="-1.4377089999999968">
        <ele>733.843</ele>
        <time>2022-08-24T13:56:10Z</time>
      </trkpt>
      <trkpt lat="42.962751999999774" lon="-1.4376859999999967">
        <ele>733.877</ele>
        <time>2022-08-24T13:56:11Z</time>
      </trkpt>
      <trkpt lat="42.962745999999775" lon="-1.4376719999999967">
        <ele>733.886</ele>
        <time>2022-08-24T13:56:12Z</time>
      </trkpt>
      <trkpt lat="42.962739999999776" lon="-1.4376709999999968">
        <ele>733.816</ele>
        <time>2022-08-24T13:56:14Z</time>
      </trkpt>
      <trkpt lat="42.96273899999978" lon="-1.4376789999999968">
        <ele>733.876</ele>
        <time>2022-08-24T13:56:15Z</time>
      </trkpt>
      <trkpt lat="42.96273699999978" lon="-1.4376849999999968">
        <ele>733.813</ele>
        <time>2022-08-24T13:56:16Z</time>
      </trkpt>
      <trkpt lat="42.962737999999774" lon="-1.4376879999999967">
        <ele>733.809</ele>
        <time>2022-08-24T13:56:17Z</time>
      </trkpt>
      <trkpt lat="42.96274199999977" lon="-1.4376939999999967">
        <ele>733.882</ele>
        <time>2022-08-24T13:56:18Z</time>
      </trkpt>
      <trkpt lat="42.96273899999977" lon="-1.4376959999999968">
        <ele>733.652</ele>
        <time>2022-08-24T13:56:19Z</time>
      </trkpt>
      <trkpt lat="42.962737999999774" lon="-1.4377069999999967">
        <ele>733.692</ele>
        <time>2022-08-24T13:56:20Z</time>
      </trkpt>
      <trkpt lat="42.96273899999977" lon="-1.4377189999999966">
        <ele>733.668</ele>
        <time>2022-08-24T13:56:21Z</time>
      </trkpt>
      <trkpt lat="42.96273599999977" lon="-1.4377259999999967">
        <ele>733.690</ele>
        <time>2022-08-24T13:56:22Z</time>
      </trkpt>
      <trkpt lat="42.96273099999977" lon="-1.4377299999999966">
        <ele>733.677</ele>
        <time>2022-08-24T13:56:23Z</time>
      </trkpt>
      <trkpt lat="42.96270599999977" lon="-1.4377409999999966">
        <ele>733.670</ele>
        <time>2022-08-24T13:56:26Z</time>
      </trkpt>
      <trkpt lat="42.96270299999977" lon="-1.4377409999999966">
        <ele>733.494</ele>
        <time>2022-08-24T13:57:20Z</time>
      </trkpt>
      <trkpt lat="42.96267899999977" lon="-1.4377659999999965">
        <ele>733.483</ele>
        <time>2022-08-24T13:57:23Z</time>
      </trkpt>
      <trkpt lat="42.96263899999977" lon="-1.4377939999999965">
        <ele>733.692</ele>
        <time>2022-08-24T13:57:25Z</time>
      </trkpt>
      <trkpt lat="42.96262099999977" lon="-1.4377979999999964">
        <ele>733.673</ele>
        <time>2022-08-24T13:57:26Z</time>
      </trkpt>
      <trkpt lat="42.962599999999775" lon="-1.4378029999999964">
        <ele>733.620</ele>
        <time>2022-08-24T13:57:27Z</time>
      </trkpt>
      <trkpt lat="42.962579999999775" lon="-1.4378049999999964">
        <ele>733.609</ele>
        <time>2022-08-24T13:57:28Z</time>
      </trkpt>
      <trkpt lat="42.962551999999775" lon="-1.4377999999999964">
        <ele>733.890</ele>
        <time>2022-08-24T13:57:29Z</time>
      </trkpt>
      <trkpt lat="42.962526999999774" lon="-1.4377949999999964">
        <ele>733.870</ele>
        <time>2022-08-24T13:57:30Z</time>
      </trkpt>
      <trkpt lat="42.962497999999776" lon="-1.4377909999999965">
        <ele>734.050</ele>
        <time>2022-08-24T13:57:31Z</time>
      </trkpt>
      <trkpt lat="42.96245999999977" lon="-1.4377809999999964">
        <ele>734.056</ele>
        <time>2022-08-24T13:57:32Z</time>
      </trkpt>
      <trkpt lat="42.962436999999774" lon="-1.4377789999999964">
        <ele>734.258</ele>
        <time>2022-08-24T13:57:33Z</time>
      </trkpt>
      <trkpt lat="42.962419999999774" lon="-1.4377749999999965">
        <ele>734.245</ele>
        <time>2022-08-24T13:57:34Z</time>
      </trkpt>
      <trkpt lat="42.962408999999774" lon="-1.4377839999999964">
        <ele>734.428</ele>
        <time>2022-08-24T13:57:35Z</time>
      </trkpt>
      <trkpt lat="42.96240099999977" lon="-1.4377979999999964">
        <ele>734.452</ele>
        <time>2022-08-24T13:57:36Z</time>
      </trkpt>
      <trkpt lat="42.962391999999774" lon="-1.4378139999999964">
        <ele>734.471</ele>
        <time>2022-08-24T13:57:37Z</time>
      </trkpt>
      <trkpt lat="42.962376999999776" lon="-1.4378299999999964">
        <ele>734.881</ele>
        <time>2022-08-24T13:57:38Z</time>
      </trkpt>
      <trkpt lat="42.96236499999978" lon="-1.4378379999999964">
        <ele>734.861</ele>
        <time>2022-08-24T13:57:39Z</time>
      </trkpt>
      <trkpt lat="42.96236199999978" lon="-1.4378479999999965">
        <ele>735.017</ele>
        <time>2022-08-24T13:57:40Z</time>
      </trkpt>
      <trkpt lat="42.96236499999978" lon="-1.4378479999999965">
        <ele>735.009</ele>
        <time>2022-08-24T13:57:41Z</time>
      </trkpt>
      <trkpt lat="42.96235999999978" lon="-1.4378539999999964">
        <ele>735.049</ele>
        <time>2022-08-24T13:57:42Z</time>
      </trkpt>
      <trkpt lat="42.96235399999978" lon="-1.4378639999999965">
        <ele>735.219</ele>
        <time>2022-08-24T13:57:43Z</time>
      </trkpt>
      <trkpt lat="42.96234999999978" lon="-1.4378769999999965">
        <ele>735.289</ele>
        <time>2022-08-24T13:57:44Z</time>
      </trkpt>
      <trkpt lat="42.962342999999784" lon="-1.4378929999999965">
        <ele>735.225</ele>
        <time>2022-08-24T13:57:45Z</time>
      </trkpt>
      <trkpt lat="42.962341999999786" lon="-1.4379069999999965">
        <ele>735.287</ele>
        <time>2022-08-24T13:57:46Z</time>
      </trkpt>
      <trkpt lat="42.96233299999979" lon="-1.4379429999999964">
        <ele>735.414</ele>
        <time>2022-08-24T13:57:48Z</time>
      </trkpt>
      <trkpt lat="42.96232699999979" lon="-1.4379559999999965">
        <ele>735.467</ele>
        <time>2022-08-24T13:57:49Z</time>
      </trkpt>
      <trkpt lat="42.96232599999979" lon="-1.4379729999999964">
        <ele>735.661</ele>
        <time>2022-08-24T13:57:50Z</time>
      </trkpt>
      <trkpt lat="42.96232299999979" lon="-1.4379849999999963">
        <ele>735.640</ele>
        <time>2022-08-24T13:57:51Z</time>
      </trkpt>
      <trkpt lat="42.962318999999795" lon="-1.4379999999999964">
        <ele>735.668</ele>
        <time>2022-08-24T13:57:52Z</time>
      </trkpt>
      <trkpt lat="42.9623179999998" lon="-1.4380109999999964">
        <ele>735.642</ele>
        <time>2022-08-24T13:57:53Z</time>
      </trkpt>
      <trkpt lat="42.9623119999998" lon="-1.4380259999999965">
        <ele>735.826</ele>
        <time>2022-08-24T13:57:54Z</time>
      </trkpt>
      <trkpt lat="42.962309999999796" lon="-1.4380389999999965">
        <ele>736.009</ele>
        <time>2022-08-24T13:57:55Z</time>
      </trkpt>
      <trkpt lat="42.9623039999998" lon="-1.4380519999999966">
        <ele>736.037</ele>
        <time>2022-08-24T13:57:56Z</time>
      </trkpt>
      <trkpt lat="42.9622929999998" lon="-1.4380649999999966">
        <ele>736.267</ele>
        <time>2022-08-24T13:57:57Z</time>
      </trkpt>
      <trkpt lat="42.9622869999998" lon="-1.4380809999999966">
        <ele>736.437</ele>
        <time>2022-08-24T13:57:58Z</time>
      </trkpt>
      <trkpt lat="42.9622779999998" lon="-1.4381109999999966">
        <ele>736.673</ele>
        <time>2022-08-24T13:58:00Z</time>
      </trkpt>
      <trkpt lat="42.9622699999998" lon="-1.4381249999999965">
        <ele>736.645</ele>
        <time>2022-08-24T13:58:01Z</time>
      </trkpt>
      <trkpt lat="42.9622549999998" lon="-1.4381559999999964">
        <ele>736.862</ele>
        <time>2022-08-24T13:58:03Z</time>
      </trkpt>
      <trkpt lat="42.9622469999998" lon="-1.4381849999999965">
        <ele>737.025</ele>
        <time>2022-08-24T13:58:05Z</time>
      </trkpt>
      <trkpt lat="42.9622419999998" lon="-1.4382049999999964">
        <ele>737.069</ele>
        <time>2022-08-24T13:58:06Z</time>
      </trkpt>
      <trkpt lat="42.962233999999796" lon="-1.4382199999999965">
        <ele>737.228</ele>
        <time>2022-08-24T13:58:07Z</time>
      </trkpt>
      <trkpt lat="42.9622279999998" lon="-1.4382339999999965">
        <ele>737.243</ele>
        <time>2022-08-24T13:58:08Z</time>
      </trkpt>
      <trkpt lat="42.9622239999998" lon="-1.4382449999999964">
        <ele>737.464</ele>
        <time>2022-08-24T13:58:09Z</time>
      </trkpt>
      <trkpt lat="42.962216999999804" lon="-1.4382589999999964">
        <ele>737.410</ele>
        <time>2022-08-24T13:58:10Z</time>
      </trkpt>
      <trkpt lat="42.9622089999998" lon="-1.4382749999999964">
        <ele>737.409</ele>
        <time>2022-08-24T13:58:11Z</time>
      </trkpt>
      <trkpt lat="42.962201999999806" lon="-1.4382889999999964">
        <ele>737.615</ele>
        <time>2022-08-24T13:58:12Z</time>
      </trkpt>
      <trkpt lat="42.96219299999981" lon="-1.4383049999999964">
        <ele>737.845</ele>
        <time>2022-08-24T13:58:13Z</time>
      </trkpt>
      <trkpt lat="42.96218999999981" lon="-1.4383199999999965">
        <ele>738.095</ele>
        <time>2022-08-24T13:58:14Z</time>
      </trkpt>
      <trkpt lat="42.96218899999981" lon="-1.4383579999999965">
        <ele>738.661</ele>
        <time>2022-08-24T13:58:16Z</time>
      </trkpt>
      <trkpt lat="42.96218499999981" lon="-1.4383709999999965">
        <ele>739.053</ele>
        <time>2022-08-24T13:58:17Z</time>
      </trkpt>
      <trkpt lat="42.96217999999981" lon="-1.4383849999999965">
        <ele>739.450</ele>
        <time>2022-08-24T13:58:18Z</time>
      </trkpt>
      <trkpt lat="42.96217799999981" lon="-1.4383979999999965">
        <ele>739.643</ele>
        <time>2022-08-24T13:58:19Z</time>
      </trkpt>
      <trkpt lat="42.96217699999981" lon="-1.4384199999999965">
        <ele>739.657</ele>
        <time>2022-08-24T13:58:20Z</time>
      </trkpt>
      <trkpt lat="42.96217499999981" lon="-1.4384379999999966">
        <ele>739.686</ele>
        <time>2022-08-24T13:58:21Z</time>
      </trkpt>
      <trkpt lat="42.96216999999981" lon="-1.4384549999999965">
        <ele>739.887</ele>
        <time>2022-08-24T13:58:22Z</time>
      </trkpt>
      <trkpt lat="42.96217499999981" lon="-1.4384719999999964">
        <ele>739.842</ele>
        <time>2022-08-24T13:58:23Z</time>
      </trkpt>
      <trkpt lat="42.96217299999981" lon="-1.4384909999999964">
        <ele>739.826</ele>
        <time>2022-08-24T13:58:24Z</time>
      </trkpt>
      <trkpt lat="42.96216799999981" lon="-1.4385129999999964">
        <ele>739.809</ele>
        <time>2022-08-24T13:58:25Z</time>
      </trkpt>
      <trkpt lat="42.962162999999805" lon="-1.4385299999999963">
        <ele>739.819</ele>
        <time>2022-08-24T13:58:26Z</time>
      </trkpt>
      <trkpt lat="42.962156999999806" lon="-1.4385449999999964">
        <ele>739.839</ele>
        <time>2022-08-24T13:58:27Z</time>
      </trkpt>
      <trkpt lat="42.962148999999805" lon="-1.4385539999999963">
        <ele>739.889</ele>
        <time>2022-08-24T13:58:28Z</time>
      </trkpt>
      <trkpt lat="42.962140999999804" lon="-1.4385679999999963">
        <ele>739.875</ele>
        <time>2022-08-24T13:58:29Z</time>
      </trkpt>
      <trkpt lat="42.96213399999981" lon="-1.4385879999999962">
        <ele>740.057</ele>
        <time>2022-08-24T13:58:30Z</time>
      </trkpt>
      <trkpt lat="42.962128999999806" lon="-1.4386059999999963">
        <ele>740.014</ele>
        <time>2022-08-24T13:58:31Z</time>
      </trkpt>
      <trkpt lat="42.962125999999806" lon="-1.4386239999999964">
        <ele>740.277</ele>
        <time>2022-08-24T13:58:32Z</time>
      </trkpt>
      <trkpt lat="42.96212499999981" lon="-1.4386359999999963">
        <ele>740.241</ele>
        <time>2022-08-24T13:58:33Z</time>
      </trkpt>
      <trkpt lat="42.96211599999981" lon="-1.4386539999999963">
        <ele>740.270</ele>
        <time>2022-08-24T13:58:34Z</time>
      </trkpt>
      <trkpt lat="42.96210899999981" lon="-1.4386699999999963">
        <ele>740.423</ele>
        <time>2022-08-24T13:58:35Z</time>
      </trkpt>
      <trkpt lat="42.962105999999814" lon="-1.4386889999999963">
        <ele>740.683</ele>
        <time>2022-08-24T13:58:36Z</time>
      </trkpt>
      <trkpt lat="42.96210699999981" lon="-1.4387089999999962">
        <ele>740.611</ele>
        <time>2022-08-24T13:58:37Z</time>
      </trkpt>
      <trkpt lat="42.96210099999981" lon="-1.4387209999999961">
        <ele>740.809</ele>
        <time>2022-08-24T13:58:38Z</time>
      </trkpt>
      <trkpt lat="42.96209299999981" lon="-1.4387369999999962">
        <ele>740.853</ele>
        <time>2022-08-24T13:58:39Z</time>
      </trkpt>
      <trkpt lat="42.96208699999981" lon="-1.4387529999999962">
        <ele>741.263</ele>
        <time>2022-08-24T13:58:40Z</time>
      </trkpt>
      <trkpt lat="42.96207899999981" lon="-1.4387689999999962">
        <ele>741.473</ele>
        <time>2022-08-24T13:58:41Z</time>
      </trkpt>
      <trkpt lat="42.96207599999981" lon="-1.4387849999999962">
        <ele>741.669</ele>
        <time>2022-08-24T13:58:42Z</time>
      </trkpt>
      <trkpt lat="42.96207299999981" lon="-1.4387959999999962">
        <ele>741.661</ele>
        <time>2022-08-24T13:58:43Z</time>
      </trkpt>
      <trkpt lat="42.962065999999815" lon="-1.4388289999999961">
        <ele>742.068</ele>
        <time>2022-08-24T13:58:45Z</time>
      </trkpt>
      <trkpt lat="42.962060999999814" lon="-1.4388389999999962">
        <ele>742.061</ele>
        <time>2022-08-24T13:58:46Z</time>
      </trkpt>
      <trkpt lat="42.96205399999982" lon="-1.438850999999996">
        <ele>742.055</ele>
        <time>2022-08-24T13:58:47Z</time>
      </trkpt>
      <trkpt lat="42.96204999999982" lon="-1.4388639999999961">
        <ele>742.084</ele>
        <time>2022-08-24T13:58:48Z</time>
      </trkpt>
      <trkpt lat="42.96204599999982" lon="-1.4388789999999962">
        <ele>742.236</ele>
        <time>2022-08-24T13:58:49Z</time>
      </trkpt>
      <trkpt lat="42.962039999999824" lon="-1.4388909999999961">
        <ele>742.417</ele>
        <time>2022-08-24T13:58:50Z</time>
      </trkpt>
      <trkpt lat="42.96203199999982" lon="-1.4389059999999962">
        <ele>742.618</ele>
        <time>2022-08-24T13:58:51Z</time>
      </trkpt>
      <trkpt lat="42.962019999999825" lon="-1.4389219999999963">
        <ele>742.809</ele>
        <time>2022-08-24T13:58:52Z</time>
      </trkpt>
      <trkpt lat="42.96200999999982" lon="-1.4389379999999963">
        <ele>742.874</ele>
        <time>2022-08-24T13:58:53Z</time>
      </trkpt>
      <trkpt lat="42.96200699999982" lon="-1.4389529999999964">
        <ele>743.054</ele>
        <time>2022-08-24T13:58:54Z</time>
      </trkpt>
      <trkpt lat="42.962002999999825" lon="-1.4389669999999963">
        <ele>743.284</ele>
        <time>2022-08-24T13:58:55Z</time>
      </trkpt>
      <trkpt lat="42.961999999999826" lon="-1.4389779999999963">
        <ele>743.210</ele>
        <time>2022-08-24T13:58:56Z</time>
      </trkpt>
      <trkpt lat="42.961994999999824" lon="-1.4389939999999963">
        <ele>743.462</ele>
        <time>2022-08-24T13:58:57Z</time>
      </trkpt>
      <trkpt lat="42.96198699999982" lon="-1.4390119999999964">
        <ele>743.499</ele>
        <time>2022-08-24T13:58:58Z</time>
      </trkpt>
      <trkpt lat="42.96198499999982" lon="-1.4390299999999965">
        <ele>743.642</ele>
        <time>2022-08-24T13:58:59Z</time>
      </trkpt>
      <trkpt lat="42.96198599999982" lon="-1.4390479999999966">
        <ele>743.626</ele>
        <time>2022-08-24T13:59:00Z</time>
      </trkpt>
      <trkpt lat="42.961986999999816" lon="-1.4390629999999967">
        <ele>743.835</ele>
        <time>2022-08-24T13:59:01Z</time>
      </trkpt>
      <trkpt lat="42.96198599999982" lon="-1.4390849999999966">
        <ele>744.075</ele>
        <time>2022-08-24T13:59:02Z</time>
      </trkpt>
      <trkpt lat="42.961986999999816" lon="-1.4391039999999966">
        <ele>744.028</ele>
        <time>2022-08-24T13:59:03Z</time>
      </trkpt>
      <trkpt lat="42.96198099999982" lon="-1.4391189999999967">
        <ele>744.220</ele>
        <time>2022-08-24T13:59:04Z</time>
      </trkpt>
      <trkpt lat="42.96197499999982" lon="-1.4391299999999967">
        <ele>744.409</ele>
        <time>2022-08-24T13:59:05Z</time>
      </trkpt>
      <trkpt lat="42.96196699999982" lon="-1.4391429999999967">
        <ele>744.428</ele>
        <time>2022-08-24T13:59:06Z</time>
      </trkpt>
      <trkpt lat="42.961964999999815" lon="-1.4391589999999967">
        <ele>744.468</ele>
        <time>2022-08-24T13:59:07Z</time>
      </trkpt>
      <trkpt lat="42.961961999999815" lon="-1.4391699999999967">
        <ele>744.668</ele>
        <time>2022-08-24T13:59:08Z</time>
      </trkpt>
      <trkpt lat="42.96195999999981" lon="-1.4391789999999967">
        <ele>744.864</ele>
        <time>2022-08-24T13:59:09Z</time>
      </trkpt>
      <trkpt lat="42.96195699999981" lon="-1.4391889999999967">
        <ele>744.896</ele>
        <time>2022-08-24T13:59:10Z</time>
      </trkpt>
      <trkpt lat="42.96195499999981" lon="-1.4392019999999968">
        <ele>745.033</ele>
        <time>2022-08-24T13:59:11Z</time>
      </trkpt>
      <trkpt lat="42.96195799999981" lon="-1.4392189999999967">
        <ele>745.096</ele>
        <time>2022-08-24T13:59:12Z</time>
      </trkpt>
      <trkpt lat="42.96195799999981" lon="-1.4392339999999968">
        <ele>745.080</ele>
        <time>2022-08-24T13:59:13Z</time>
      </trkpt>
      <trkpt lat="42.96195499999981" lon="-1.4392479999999968">
        <ele>745.239</ele>
        <time>2022-08-24T13:59:14Z</time>
      </trkpt>
      <trkpt lat="42.96195199999981" lon="-1.4392589999999967">
        <ele>745.271</ele>
        <time>2022-08-24T13:59:15Z</time>
      </trkpt>
      <trkpt lat="42.96194299999981" lon="-1.4392769999999968">
        <ele>745.441</ele>
        <time>2022-08-24T13:59:16Z</time>
      </trkpt>
      <trkpt lat="42.961938999999816" lon="-1.4392929999999968">
        <ele>745.415</ele>
        <time>2022-08-24T13:59:17Z</time>
      </trkpt>
      <trkpt lat="42.96193299999982" lon="-1.4393049999999967">
        <ele>745.609</ele>
        <time>2022-08-24T13:59:18Z</time>
      </trkpt>
      <trkpt lat="42.96192899999982" lon="-1.4393149999999968">
        <ele>745.658</ele>
        <time>2022-08-24T13:59:19Z</time>
      </trkpt>
      <trkpt lat="42.96192999999982" lon="-1.4393329999999969">
        <ele>745.828</ele>
        <time>2022-08-24T13:59:20Z</time>
      </trkpt>
      <trkpt lat="42.96192899999982" lon="-1.4393529999999968">
        <ele>745.878</ele>
        <time>2022-08-24T13:59:21Z</time>
      </trkpt>
      <trkpt lat="42.961921999999824" lon="-1.4393669999999967">
        <ele>746.014</ele>
        <time>2022-08-24T13:59:22Z</time>
      </trkpt>
      <trkpt lat="42.96191799999983" lon="-1.4393829999999967">
        <ele>746.036</ele>
        <time>2022-08-24T13:59:23Z</time>
      </trkpt>
      <trkpt lat="42.961915999999825" lon="-1.4393949999999966">
        <ele>746.043</ele>
        <time>2022-08-24T13:59:24Z</time>
      </trkpt>
      <trkpt lat="42.961912999999825" lon="-1.4394119999999966">
        <ele>746.246</ele>
        <time>2022-08-24T13:59:25Z</time>
      </trkpt>
      <trkpt lat="42.961909999999826" lon="-1.4394319999999965">
        <ele>746.220</ele>
        <time>2022-08-24T13:59:26Z</time>
      </trkpt>
      <trkpt lat="42.96190899999983" lon="-1.4394489999999964">
        <ele>746.499</ele>
        <time>2022-08-24T13:59:27Z</time>
      </trkpt>
      <trkpt lat="42.961906999999826" lon="-1.4394679999999964">
        <ele>746.653</ele>
        <time>2022-08-24T13:59:28Z</time>
      </trkpt>
      <trkpt lat="42.961901999999824" lon="-1.4394789999999964">
        <ele>746.604</ele>
        <time>2022-08-24T13:59:29Z</time>
      </trkpt>
      <trkpt lat="42.961895999999825" lon="-1.4394969999999965">
        <ele>746.814</ele>
        <time>2022-08-24T13:59:30Z</time>
      </trkpt>
      <trkpt lat="42.96189199999983" lon="-1.4395119999999966">
        <ele>746.809</ele>
        <time>2022-08-24T13:59:31Z</time>
      </trkpt>
      <trkpt lat="42.961889999999826" lon="-1.4395239999999965">
        <ele>747.016</ele>
        <time>2022-08-24T13:59:32Z</time>
      </trkpt>
      <trkpt lat="42.96188599999983" lon="-1.4395399999999965">
        <ele>747.086</ele>
        <time>2022-08-24T13:59:33Z</time>
      </trkpt>
      <trkpt lat="42.96188299999983" lon="-1.4395569999999964">
        <ele>747.246</ele>
        <time>2022-08-24T13:59:34Z</time>
      </trkpt>
      <trkpt lat="42.96188199999983" lon="-1.4395779999999965">
        <ele>747.232</ele>
        <time>2022-08-24T13:59:35Z</time>
      </trkpt>
      <trkpt lat="42.96187699999983" lon="-1.4395959999999965">
        <ele>747.214</ele>
        <time>2022-08-24T13:59:36Z</time>
      </trkpt>
      <trkpt lat="42.96187399999983" lon="-1.4396189999999967">
        <ele>747.451</ele>
        <time>2022-08-24T13:59:37Z</time>
      </trkpt>
      <trkpt lat="42.961869999999834" lon="-1.4396359999999966">
        <ele>747.624</ele>
        <time>2022-08-24T13:59:38Z</time>
      </trkpt>
      <trkpt lat="42.96186499999983" lon="-1.4396579999999966">
        <ele>747.848</ele>
        <time>2022-08-24T13:59:39Z</time>
      </trkpt>
      <trkpt lat="42.96185999999983" lon="-1.4396769999999965">
        <ele>748.077</ele>
        <time>2022-08-24T13:59:40Z</time>
      </trkpt>
      <trkpt lat="42.96185199999983" lon="-1.4396899999999966">
        <ele>748.241</ele>
        <time>2022-08-24T13:59:41Z</time>
      </trkpt>
      <trkpt lat="42.96184799999983" lon="-1.4397019999999965">
        <ele>748.481</ele>
        <time>2022-08-24T13:59:42Z</time>
      </trkpt>
      <trkpt lat="42.96184499999983" lon="-1.4397169999999966">
        <ele>748.609</ele>
        <time>2022-08-24T13:59:43Z</time>
      </trkpt>
      <trkpt lat="42.961843999999836" lon="-1.4397319999999967">
        <ele>748.809</ele>
        <time>2022-08-24T13:59:44Z</time>
      </trkpt>
      <trkpt lat="42.961841999999834" lon="-1.4397459999999966">
        <ele>749.025</ele>
        <time>2022-08-24T13:59:45Z</time>
      </trkpt>
      <trkpt lat="42.961840999999836" lon="-1.4397599999999966">
        <ele>749.045</ele>
        <time>2022-08-24T13:59:46Z</time>
      </trkpt>
      <trkpt lat="42.961838999999834" lon="-1.4397719999999965">
        <ele>749.225</ele>
        <time>2022-08-24T13:59:47Z</time>
      </trkpt>
      <trkpt lat="42.961835999999835" lon="-1.4397869999999966">
        <ele>749.211</ele>
        <time>2022-08-24T13:59:48Z</time>
      </trkpt>
      <trkpt lat="42.96183399999983" lon="-1.4397999999999966">
        <ele>749.463</ele>
        <time>2022-08-24T13:59:49Z</time>
      </trkpt>
      <trkpt lat="42.96183099999983" lon="-1.4398129999999967">
        <ele>749.650</ele>
        <time>2022-08-24T13:59:50Z</time>
      </trkpt>
      <trkpt lat="42.96182599999983" lon="-1.4398289999999967">
        <ele>749.863</ele>
        <time>2022-08-24T13:59:51Z</time>
      </trkpt>
      <trkpt lat="42.96182399999983" lon="-1.4398459999999966">
        <ele>750.057</ele>
        <time>2022-08-24T13:59:52Z</time>
      </trkpt>
      <trkpt lat="42.96182399999983" lon="-1.4398619999999966">
        <ele>750.036</ele>
        <time>2022-08-24T13:59:53Z</time>
      </trkpt>
      <trkpt lat="42.96182599999983" lon="-1.4398809999999966">
        <ele>750.448</ele>
        <time>2022-08-24T13:59:54Z</time>
      </trkpt>
      <trkpt lat="42.961824999999834" lon="-1.4398959999999967">
        <ele>750.461</ele>
        <time>2022-08-24T13:59:55Z</time>
      </trkpt>
      <trkpt lat="42.961824999999834" lon="-1.4399109999999968">
        <ele>750.617</ele>
        <time>2022-08-24T13:59:56Z</time>
      </trkpt>
      <trkpt lat="42.961824999999834" lon="-1.4399219999999968">
        <ele>751.009</ele>
        <time>2022-08-24T13:59:57Z</time>
      </trkpt>
      <trkpt lat="42.96182399999984" lon="-1.4399389999999967">
        <ele>751.095</ele>
        <time>2022-08-24T13:59:58Z</time>
      </trkpt>
      <trkpt lat="42.961824999999834" lon="-1.4399539999999968">
        <ele>751.295</ele>
        <time>2022-08-24T13:59:59Z</time>
      </trkpt>
      <trkpt lat="42.96182399999984" lon="-1.4399659999999967">
        <ele>751.275</ele>
        <time>2022-08-24T14:00:00Z</time>
      </trkpt>
      <trkpt lat="42.96181999999984" lon="-1.4399749999999967">
        <ele>751.691</ele>
        <time>2022-08-24T14:00:01Z</time>
      </trkpt>
      <trkpt lat="42.96181699999984" lon="-1.4399849999999967">
        <ele>751.853</ele>
        <time>2022-08-24T14:00:02Z</time>
      </trkpt>
      <trkpt lat="42.96181399999984" lon="-1.4399989999999967">
        <ele>752.070</ele>
        <time>2022-08-24T14:00:03Z</time>
      </trkpt>
      <trkpt lat="42.96181499999984" lon="-1.4400129999999967">
        <ele>752.293</ele>
        <time>2022-08-24T14:00:04Z</time>
      </trkpt>
      <trkpt lat="42.961815999999835" lon="-1.4400269999999966">
        <ele>752.447</ele>
        <time>2022-08-24T14:00:05Z</time>
      </trkpt>
      <trkpt lat="42.96181699999983" lon="-1.4400369999999967">
        <ele>752.656</ele>
        <time>2022-08-24T14:00:06Z</time>
      </trkpt>
      <trkpt lat="42.96181399999983" lon="-1.4400479999999967">
        <ele>752.836</ele>
        <time>2022-08-24T14:00:07Z</time>
      </trkpt>
      <trkpt lat="42.96180899999983" lon="-1.4400579999999967">
        <ele>753.217</ele>
        <time>2022-08-24T14:00:08Z</time>
      </trkpt>
      <trkpt lat="42.96180299999983" lon="-1.4400689999999967">
        <ele>753.418</ele>
        <time>2022-08-24T14:00:09Z</time>
      </trkpt>
      <trkpt lat="42.96180099999983" lon="-1.4400809999999966">
        <ele>753.609</ele>
        <time>2022-08-24T14:00:10Z</time>
      </trkpt>
      <trkpt lat="42.96179899999983" lon="-1.4400899999999965">
        <ele>753.844</ele>
        <time>2022-08-24T14:00:11Z</time>
      </trkpt>
      <trkpt lat="42.96179399999983" lon="-1.4401019999999964">
        <ele>754.034</ele>
        <time>2022-08-24T14:00:12Z</time>
      </trkpt>
      <trkpt lat="42.961782999999826" lon="-1.4401129999999964">
        <ele>754.284</ele>
        <time>2022-08-24T14:00:13Z</time>
      </trkpt>
      <trkpt lat="42.961777999999825" lon="-1.4401239999999964">
        <ele>754.240</ele>
        <time>2022-08-24T14:00:14Z</time>
      </trkpt>
      <trkpt lat="42.96177699999983" lon="-1.4401329999999963">
        <ele>754.432</ele>
        <time>2022-08-24T14:00:15Z</time>
      </trkpt>
      <trkpt lat="42.96177599999983" lon="-1.4401449999999962">
        <ele>754.439</ele>
        <time>2022-08-24T14:00:16Z</time>
      </trkpt>
      <trkpt lat="42.96177199999983" lon="-1.4401619999999962">
        <ele>754.682</ele>
        <time>2022-08-24T14:00:17Z</time>
      </trkpt>
      <trkpt lat="42.961770999999835" lon="-1.4401729999999962">
        <ele>754.836</ele>
        <time>2022-08-24T14:00:18Z</time>
      </trkpt>
      <trkpt lat="42.961762999999834" lon="-1.4401829999999962">
        <ele>754.865</ele>
        <time>2022-08-24T14:00:19Z</time>
      </trkpt>
      <trkpt lat="42.96175799999983" lon="-1.4401919999999961">
        <ele>755.057</ele>
        <time>2022-08-24T14:00:20Z</time>
      </trkpt>
      <trkpt lat="42.961751999999834" lon="-1.440203999999996">
        <ele>755.200</ele>
        <time>2022-08-24T14:00:21Z</time>
      </trkpt>
      <trkpt lat="42.96174399999983" lon="-1.440215999999996">
        <ele>755.420</ele>
        <time>2022-08-24T14:00:22Z</time>
      </trkpt>
      <trkpt lat="42.96173799999983" lon="-1.440225999999996">
        <ele>755.609</ele>
        <time>2022-08-24T14:00:23Z</time>
      </trkpt>
      <trkpt lat="42.96173099999984" lon="-1.440236999999996">
        <ele>755.646</ele>
        <time>2022-08-24T14:00:24Z</time>
      </trkpt>
      <trkpt lat="42.96172799999984" lon="-1.440244999999996">
        <ele>755.876</ele>
        <time>2022-08-24T14:00:25Z</time>
      </trkpt>
      <trkpt lat="42.96172499999984" lon="-1.440259999999996">
        <ele>755.836</ele>
        <time>2022-08-24T14:00:26Z</time>
      </trkpt>
      <trkpt lat="42.96172099999984" lon="-1.440268999999996">
        <ele>756.082</ele>
        <time>2022-08-24T14:00:27Z</time>
      </trkpt>
      <trkpt lat="42.961716999999844" lon="-1.440281999999996">
        <ele>756.244</ele>
        <time>2022-08-24T14:00:28Z</time>
      </trkpt>
      <trkpt lat="42.96171299999985" lon="-1.4402889999999962">
        <ele>756.261</ele>
        <time>2022-08-24T14:00:29Z</time>
      </trkpt>
      <trkpt lat="42.961713999999844" lon="-1.4403029999999961">
        <ele>756.634</ele>
        <time>2022-08-24T14:00:30Z</time>
      </trkpt>
      <trkpt lat="42.96171499999984" lon="-1.440319999999996">
        <ele>756.888</ele>
        <time>2022-08-24T14:00:31Z</time>
      </trkpt>
      <trkpt lat="42.961713999999844" lon="-1.440335999999996">
        <ele>757.017</ele>
        <time>2022-08-24T14:00:32Z</time>
      </trkpt>
      <trkpt lat="42.961713999999844" lon="-1.440349999999996">
        <ele>757.066</ele>
        <time>2022-08-24T14:00:33Z</time>
      </trkpt>
      <trkpt lat="42.96171499999984" lon="-1.440362999999996">
        <ele>757.229</ele>
        <time>2022-08-24T14:00:34Z</time>
      </trkpt>
      <trkpt lat="42.96171499999984" lon="-1.440384999999996">
        <ele>757.421</ele>
        <time>2022-08-24T14:00:35Z</time>
      </trkpt>
      <trkpt lat="42.96171199999984" lon="-1.440403999999996">
        <ele>757.409</ele>
        <time>2022-08-24T14:00:36Z</time>
      </trkpt>
      <trkpt lat="42.96170399999984" lon="-1.4404189999999961">
        <ele>757.647</ele>
        <time>2022-08-24T14:00:37Z</time>
      </trkpt>
      <trkpt lat="42.96170099999984" lon="-1.440427999999996">
        <ele>757.817</ele>
        <time>2022-08-24T14:00:38Z</time>
      </trkpt>
      <trkpt lat="42.961696999999845" lon="-1.440437999999996">
        <ele>758.277</ele>
        <time>2022-08-24T14:00:39Z</time>
      </trkpt>
      <trkpt lat="42.96169599999985" lon="-1.440451999999996">
        <ele>758.423</ele>
        <time>2022-08-24T14:00:40Z</time>
      </trkpt>
      <trkpt lat="42.961693999999845" lon="-1.440465999999996">
        <ele>758.655</ele>
        <time>2022-08-24T14:00:41Z</time>
      </trkpt>
      <trkpt lat="42.96169299999985" lon="-1.440478999999996">
        <ele>758.852</ele>
        <time>2022-08-24T14:00:42Z</time>
      </trkpt>
      <trkpt lat="42.96169299999985" lon="-1.440484999999996">
        <ele>759.045</ele>
        <time>2022-08-24T14:00:43Z</time>
      </trkpt>
      <trkpt lat="42.961693999999845" lon="-1.440494999999996">
        <ele>759.229</ele>
        <time>2022-08-24T14:00:44Z</time>
      </trkpt>
      <trkpt lat="42.961693999999845" lon="-1.440508999999996">
        <ele>759.248</ele>
        <time>2022-08-24T14:00:45Z</time>
      </trkpt>
      <trkpt lat="42.96168899999984" lon="-1.4405239999999961">
        <ele>759.474</ele>
        <time>2022-08-24T14:00:46Z</time>
      </trkpt>
      <trkpt lat="42.96168499999985" lon="-1.440532999999996">
        <ele>759.656</ele>
        <time>2022-08-24T14:00:47Z</time>
      </trkpt>
      <trkpt lat="42.96168099999985" lon="-1.440541999999996">
        <ele>759.821</ele>
        <time>2022-08-24T14:00:48Z</time>
      </trkpt>
      <trkpt lat="42.96167699999985" lon="-1.440555999999996">
        <ele>760.009</ele>
        <time>2022-08-24T14:00:49Z</time>
      </trkpt>
      <trkpt lat="42.96167099999985" lon="-1.440569999999996">
        <ele>760.248</ele>
        <time>2022-08-24T14:00:50Z</time>
      </trkpt>
      <trkpt lat="42.961669999999856" lon="-1.440579999999996">
        <ele>760.428</ele>
        <time>2022-08-24T14:00:51Z</time>
      </trkpt>
      <trkpt lat="42.961669999999856" lon="-1.440588999999996">
        <ele>760.678</ele>
        <time>2022-08-24T14:00:52Z</time>
      </trkpt>
      <trkpt lat="42.96167099999985" lon="-1.440598999999996">
        <ele>760.674</ele>
        <time>2022-08-24T14:00:53Z</time>
      </trkpt>
      <trkpt lat="42.961672999999855" lon="-1.440608999999996">
        <ele>761.086</ele>
        <time>2022-08-24T14:00:54Z</time>
      </trkpt>
      <trkpt lat="42.96167199999986" lon="-1.440618999999996">
        <ele>761.273</ele>
        <time>2022-08-24T14:00:55Z</time>
      </trkpt>
      <trkpt lat="42.961672999999855" lon="-1.440629999999996">
        <ele>761.446</ele>
        <time>2022-08-24T14:00:56Z</time>
      </trkpt>
      <trkpt lat="42.96167099999985" lon="-1.440640999999996">
        <ele>761.610</ele>
        <time>2022-08-24T14:00:57Z</time>
      </trkpt>
      <trkpt lat="42.961667999999854" lon="-1.440652999999996">
        <ele>761.679</ele>
        <time>2022-08-24T14:00:58Z</time>
      </trkpt>
      <trkpt lat="42.96166899999985" lon="-1.440666999999996">
        <ele>761.887</ele>
        <time>2022-08-24T14:00:59Z</time>
      </trkpt>
      <trkpt lat="42.96166999999985" lon="-1.440676999999996">
        <ele>762.042</ele>
        <time>2022-08-24T14:01:00Z</time>
      </trkpt>
      <trkpt lat="42.96166999999985" lon="-1.440687999999996">
        <ele>762.226</ele>
        <time>2022-08-24T14:01:01Z</time>
      </trkpt>
      <trkpt lat="42.96166699999985" lon="-1.440695999999996">
        <ele>762.209</ele>
        <time>2022-08-24T14:01:02Z</time>
      </trkpt>
      <trkpt lat="42.96166599999985" lon="-1.440704999999996">
        <ele>762.659</ele>
        <time>2022-08-24T14:01:03Z</time>
      </trkpt>
      <trkpt lat="42.96166299999985" lon="-1.4407169999999958">
        <ele>762.659</ele>
        <time>2022-08-24T14:01:04Z</time>
      </trkpt>
      <trkpt lat="42.96165999999985" lon="-1.4407279999999958">
        <ele>762.889</ele>
        <time>2022-08-24T14:01:05Z</time>
      </trkpt>
      <trkpt lat="42.961652999999856" lon="-1.4407399999999957">
        <ele>763.055</ele>
        <time>2022-08-24T14:01:06Z</time>
      </trkpt>
      <trkpt lat="42.96164899999986" lon="-1.4407529999999957">
        <ele>763.247</ele>
        <time>2022-08-24T14:01:07Z</time>
      </trkpt>
      <trkpt lat="42.96164599999986" lon="-1.4407639999999957">
        <ele>763.494</ele>
        <time>2022-08-24T14:01:08Z</time>
      </trkpt>
      <trkpt lat="42.96164199999986" lon="-1.4407729999999956">
        <ele>763.467</ele>
        <time>2022-08-24T14:01:09Z</time>
      </trkpt>
      <trkpt lat="42.961637999999866" lon="-1.4407799999999957">
        <ele>763.871</ele>
        <time>2022-08-24T14:01:10Z</time>
      </trkpt>
      <trkpt lat="42.961632999999864" lon="-1.4407859999999957">
        <ele>764.050</ele>
        <time>2022-08-24T14:01:11Z</time>
      </trkpt>
      <trkpt lat="42.96162899999987" lon="-1.4407959999999957">
        <ele>764.236</ele>
        <time>2022-08-24T14:01:12Z</time>
      </trkpt>
      <trkpt lat="42.961623999999865" lon="-1.4408059999999958">
        <ele>764.417</ele>
        <time>2022-08-24T14:01:13Z</time>
      </trkpt>
      <trkpt lat="42.961618999999864" lon="-1.4408149999999957">
        <ele>764.418</ele>
        <time>2022-08-24T14:01:14Z</time>
      </trkpt>
      <trkpt lat="42.961612999999865" lon="-1.4408239999999957">
        <ele>764.809</ele>
        <time>2022-08-24T14:01:15Z</time>
      </trkpt>
      <trkpt lat="42.96160899999987" lon="-1.4408339999999957">
        <ele>764.854</ele>
        <time>2022-08-24T14:01:16Z</time>
      </trkpt>
      <trkpt lat="42.96160799999987" lon="-1.4408489999999958">
        <ele>765.074</ele>
        <time>2022-08-24T14:01:17Z</time>
      </trkpt>
      <trkpt lat="42.96160399999987" lon="-1.440863999999996">
        <ele>765.244</ele>
        <time>2022-08-24T14:01:18Z</time>
      </trkpt>
      <trkpt lat="42.96159899999987" lon="-1.440876999999996">
        <ele>765.270</ele>
        <time>2022-08-24T14:01:19Z</time>
      </trkpt>
      <trkpt lat="42.96159399999987" lon="-1.440889999999996">
        <ele>765.282</ele>
        <time>2022-08-24T14:01:20Z</time>
      </trkpt>
      <trkpt lat="42.96159099999987" lon="-1.440899999999996">
        <ele>765.259</ele>
        <time>2022-08-24T14:01:21Z</time>
      </trkpt>
      <trkpt lat="42.96158799999987" lon="-1.440910999999996">
        <ele>765.442</ele>
        <time>2022-08-24T14:01:22Z</time>
      </trkpt>
      <trkpt lat="42.961583999999874" lon="-1.4409209999999961">
        <ele>765.476</ele>
        <time>2022-08-24T14:01:23Z</time>
      </trkpt>
      <trkpt lat="42.96157999999988" lon="-1.4409339999999962">
        <ele>765.635</ele>
        <time>2022-08-24T14:01:24Z</time>
      </trkpt>
      <trkpt lat="42.961580999999875" lon="-1.4409469999999962">
        <ele>765.612</ele>
        <time>2022-08-24T14:01:25Z</time>
      </trkpt>
      <trkpt lat="42.961580999999875" lon="-1.4409609999999962">
        <ele>765.632</ele>
        <time>2022-08-24T14:01:26Z</time>
      </trkpt>
      <trkpt lat="42.96157699999988" lon="-1.4409749999999961">
        <ele>765.805</ele>
        <time>2022-08-24T14:01:27Z</time>
      </trkpt>
      <trkpt lat="42.96157299999988" lon="-1.4409879999999962">
        <ele>766.009</ele>
        <time>2022-08-24T14:01:28Z</time>
      </trkpt>
      <trkpt lat="42.96156699999988" lon="-1.4410009999999962">
        <ele>766.242</ele>
        <time>2022-08-24T14:01:29Z</time>
      </trkpt>
      <trkpt lat="42.96156099999988" lon="-1.4410119999999962">
        <ele>766.432</ele>
        <time>2022-08-24T14:01:30Z</time>
      </trkpt>
      <trkpt lat="42.96155799999988" lon="-1.4410249999999962">
        <ele>766.462</ele>
        <time>2022-08-24T14:01:31Z</time>
      </trkpt>
      <trkpt lat="42.96155299999988" lon="-1.4410369999999961">
        <ele>766.448</ele>
        <time>2022-08-24T14:01:32Z</time>
      </trkpt>
      <trkpt lat="42.961548999999884" lon="-1.441047999999996">
        <ele>766.470</ele>
        <time>2022-08-24T14:01:33Z</time>
      </trkpt>
      <trkpt lat="42.96154499999989" lon="-1.441056999999996">
        <ele>766.677</ele>
        <time>2022-08-24T14:01:34Z</time>
      </trkpt>
      <trkpt lat="42.961542999999885" lon="-1.441068999999996">
        <ele>766.650</ele>
        <time>2022-08-24T14:01:35Z</time>
      </trkpt>
      <trkpt lat="42.96153899999989" lon="-1.441081999999996">
        <ele>766.654</ele>
        <time>2022-08-24T14:01:36Z</time>
      </trkpt>
      <trkpt lat="42.96153499999989" lon="-1.441097999999996">
        <ele>766.823</ele>
        <time>2022-08-24T14:01:37Z</time>
      </trkpt>
      <trkpt lat="42.96153199999989" lon="-1.441112999999996">
        <ele>767.054</ele>
        <time>2022-08-24T14:01:38Z</time>
      </trkpt>
      <trkpt lat="42.96152699999989" lon="-1.4411279999999962">
        <ele>767.456</ele>
        <time>2022-08-24T14:01:39Z</time>
      </trkpt>
      <trkpt lat="42.96152199999989" lon="-1.4411439999999962">
        <ele>767.411</ele>
        <time>2022-08-24T14:01:40Z</time>
      </trkpt>
      <trkpt lat="42.96151699999989" lon="-1.4411589999999963">
        <ele>767.609</ele>
        <time>2022-08-24T14:01:41Z</time>
      </trkpt>
      <trkpt lat="42.96151399999989" lon="-1.4411739999999964">
        <ele>767.666</ele>
        <time>2022-08-24T14:01:42Z</time>
      </trkpt>
      <trkpt lat="42.961508999999886" lon="-1.4411919999999965">
        <ele>767.636</ele>
        <time>2022-08-24T14:01:43Z</time>
      </trkpt>
      <trkpt lat="42.96150499999989" lon="-1.4412079999999965">
        <ele>767.676</ele>
        <time>2022-08-24T14:01:44Z</time>
      </trkpt>
      <trkpt lat="42.96149999999989" lon="-1.4412229999999966">
        <ele>767.642</ele>
        <time>2022-08-24T14:01:45Z</time>
      </trkpt>
      <trkpt lat="42.961494999999886" lon="-1.4412369999999965">
        <ele>767.844</ele>
        <time>2022-08-24T14:01:46Z</time>
      </trkpt>
      <trkpt lat="42.96148899999989" lon="-1.4412509999999965">
        <ele>767.841</ele>
        <time>2022-08-24T14:01:47Z</time>
      </trkpt>
      <trkpt lat="42.96148299999989" lon="-1.4412629999999964">
        <ele>768.074</ele>
        <time>2022-08-24T14:01:48Z</time>
      </trkpt>
      <trkpt lat="42.96147599999989" lon="-1.4412759999999964">
        <ele>768.038</ele>
        <time>2022-08-24T14:01:49Z</time>
      </trkpt>
      <trkpt lat="42.961468999999894" lon="-1.4412889999999965">
        <ele>768.037</ele>
        <time>2022-08-24T14:01:50Z</time>
      </trkpt>
      <trkpt lat="42.96146399999989" lon="-1.4413039999999966">
        <ele>768.227</ele>
        <time>2022-08-24T14:01:51Z</time>
      </trkpt>
      <trkpt lat="42.96144799999989" lon="-1.4413629999999966">
        <ele>768.468</ele>
        <time>2022-08-24T14:01:55Z</time>
      </trkpt>
      <trkpt lat="42.96143499999989" lon="-1.4413909999999965">
        <ele>768.414</ele>
        <time>2022-08-24T14:01:57Z</time>
      </trkpt>
      <trkpt lat="42.96142299999989" lon="-1.4414179999999965">
        <ele>768.609</ele>
        <time>2022-08-24T14:01:59Z</time>
      </trkpt>
      <trkpt lat="42.96140499999989" lon="-1.4414619999999965">
        <ele>768.683</ele>
        <time>2022-08-24T14:02:02Z</time>
      </trkpt>
      <trkpt lat="42.961381999999894" lon="-1.4415249999999964">
        <ele>769.253</ele>
        <time>2022-08-24T14:02:06Z</time>
      </trkpt>
      <trkpt lat="42.96137699999989" lon="-1.4415399999999965">
        <ele>769.213</ele>
        <time>2022-08-24T14:02:07Z</time>
      </trkpt>
      <trkpt lat="42.96137399999989" lon="-1.4415529999999965">
        <ele>769.699</ele>
        <time>2022-08-24T14:02:08Z</time>
      </trkpt>
      <trkpt lat="42.96137199999989" lon="-1.4415629999999966">
        <ele>769.641</ele>
        <time>2022-08-24T14:02:09Z</time>
      </trkpt>
      <trkpt lat="42.96136699999989" lon="-1.4415759999999966">
        <ele>769.668</ele>
        <time>2022-08-24T14:02:10Z</time>
      </trkpt>
      <trkpt lat="42.96136099999989" lon="-1.4416019999999967">
        <ele>770.041</ele>
        <time>2022-08-24T14:02:12Z</time>
      </trkpt>
      <trkpt lat="42.96135599999989" lon="-1.4416149999999968">
        <ele>770.275</ele>
        <time>2022-08-24T14:02:13Z</time>
      </trkpt>
      <trkpt lat="42.96135199999989" lon="-1.4416269999999967">
        <ele>770.494</ele>
        <time>2022-08-24T14:02:14Z</time>
      </trkpt>
      <trkpt lat="42.961344999999895" lon="-1.4416409999999966">
        <ele>770.698</ele>
        <time>2022-08-24T14:02:15Z</time>
      </trkpt>
      <trkpt lat="42.961338999999896" lon="-1.4416559999999967">
        <ele>771.015</ele>
        <time>2022-08-24T14:02:16Z</time>
      </trkpt>
      <trkpt lat="42.961330999999895" lon="-1.4416979999999968">
        <ele>771.426</ele>
        <time>2022-08-24T14:02:19Z</time>
      </trkpt>
      <trkpt lat="42.96132899999989" lon="-1.441712999999997">
        <ele>771.609</ele>
        <time>2022-08-24T14:02:20Z</time>
      </trkpt>
      <trkpt lat="42.961327999999895" lon="-1.4417269999999969">
        <ele>771.620</ele>
        <time>2022-08-24T14:02:21Z</time>
      </trkpt>
      <trkpt lat="42.961322999999894" lon="-1.441741999999997">
        <ele>771.630</ele>
        <time>2022-08-24T14:02:22Z</time>
      </trkpt>
      <trkpt lat="42.9613159999999" lon="-1.441757999999997">
        <ele>771.680</ele>
        <time>2022-08-24T14:02:23Z</time>
      </trkpt>
      <trkpt lat="42.9613129999999" lon="-1.4417699999999969">
        <ele>771.816</ele>
        <time>2022-08-24T14:02:24Z</time>
      </trkpt>
      <trkpt lat="42.9613129999999" lon="-1.4417819999999968">
        <ele>771.838</ele>
        <time>2022-08-24T14:02:25Z</time>
      </trkpt>
      <trkpt lat="42.9613119999999" lon="-1.4417959999999967">
        <ele>771.845</ele>
        <time>2022-08-24T14:02:26Z</time>
      </trkpt>
      <trkpt lat="42.9613119999999" lon="-1.4418089999999968">
        <ele>771.858</ele>
        <time>2022-08-24T14:02:27Z</time>
      </trkpt>
      <trkpt lat="42.9613119999999" lon="-1.4418219999999968">
        <ele>771.872</ele>
        <time>2022-08-24T14:02:28Z</time>
      </trkpt>
      <trkpt lat="42.9613099999999" lon="-1.441836999999997">
        <ele>771.841</ele>
        <time>2022-08-24T14:02:29Z</time>
      </trkpt>
      <trkpt lat="42.961310999999895" lon="-1.441852999999997">
        <ele>772.049</ele>
        <time>2022-08-24T14:02:30Z</time>
      </trkpt>
      <trkpt lat="42.961310999999895" lon="-1.441867999999997">
        <ele>772.002</ele>
        <time>2022-08-24T14:02:31Z</time>
      </trkpt>
      <trkpt lat="42.9613099999999" lon="-1.441883999999997">
        <ele>772.022</ele>
        <time>2022-08-24T14:02:32Z</time>
      </trkpt>
      <trkpt lat="42.9613099999999" lon="-1.441899999999997">
        <ele>772.009</ele>
        <time>2022-08-24T14:02:33Z</time>
      </trkpt>
      <trkpt lat="42.961307999999896" lon="-1.441916999999997">
        <ele>772.095</ele>
        <time>2022-08-24T14:02:34Z</time>
      </trkpt>
      <trkpt lat="42.9613069999999" lon="-1.441934999999997">
        <ele>772.045</ele>
        <time>2022-08-24T14:02:35Z</time>
      </trkpt>
      <trkpt lat="42.9613069999999" lon="-1.4419529999999972">
        <ele>772.235</ele>
        <time>2022-08-24T14:02:36Z</time>
      </trkpt>
      <trkpt lat="42.961304999999896" lon="-1.4419709999999972">
        <ele>772.461</ele>
        <time>2022-08-24T14:02:37Z</time>
      </trkpt>
      <trkpt lat="42.9613009999999" lon="-1.4420459999999973">
        <ele>772.853</ele>
        <time>2022-08-24T14:02:41Z</time>
      </trkpt>
      <trkpt lat="42.9612979999999" lon="-1.4420629999999972">
        <ele>772.850</ele>
        <time>2022-08-24T14:02:42Z</time>
      </trkpt>
      <trkpt lat="42.9612919999999" lon="-1.4421169999999972">
        <ele>773.063</ele>
        <time>2022-08-24T14:02:45Z</time>
      </trkpt>
      <trkpt lat="42.9612919999999" lon="-1.4421339999999971">
        <ele>773.247</ele>
        <time>2022-08-24T14:02:46Z</time>
      </trkpt>
      <trkpt lat="42.9612919999999" lon="-1.442147999999997">
        <ele>773.256</ele>
        <time>2022-08-24T14:02:47Z</time>
      </trkpt>
      <trkpt lat="42.9612959999999" lon="-1.4421629999999972">
        <ele>773.448</ele>
        <time>2022-08-24T14:02:48Z</time>
      </trkpt>
      <trkpt lat="42.9612949999999" lon="-1.4421799999999971">
        <ele>773.661</ele>
        <time>2022-08-24T14:02:49Z</time>
      </trkpt>
      <trkpt lat="42.9612939999999" lon="-1.4422169999999972">
        <ele>773.817</ele>
        <time>2022-08-24T14:02:51Z</time>
      </trkpt>
      <trkpt lat="42.9612939999999" lon="-1.4422349999999973">
        <ele>774.009</ele>
        <time>2022-08-24T14:02:52Z</time>
      </trkpt>
      <trkpt lat="42.9612889999999" lon="-1.4422519999999972">
        <ele>774.295</ele>
        <time>2022-08-24T14:02:53Z</time>
      </trkpt>
      <trkpt lat="42.961281999999905" lon="-1.4422689999999971">
        <ele>774.235</ele>
        <time>2022-08-24T14:02:54Z</time>
      </trkpt>
      <trkpt lat="42.9612769999999" lon="-1.442285999999997">
        <ele>774.485</ele>
        <time>2022-08-24T14:02:55Z</time>
      </trkpt>
      <trkpt lat="42.9612719999999" lon="-1.442302999999997">
        <ele>774.661</ele>
        <time>2022-08-24T14:02:56Z</time>
      </trkpt>
      <trkpt lat="42.961267999999905" lon="-1.442318999999997">
        <ele>774.643</ele>
        <time>2022-08-24T14:02:57Z</time>
      </trkpt>
      <trkpt lat="42.96126399999991" lon="-1.442337999999997">
        <ele>775.060</ele>
        <time>2022-08-24T14:02:58Z</time>
      </trkpt>
      <trkpt lat="42.96125999999991" lon="-1.442354999999997">
        <ele>775.073</ele>
        <time>2022-08-24T14:02:59Z</time>
      </trkpt>
      <trkpt lat="42.96125599999991" lon="-1.442372999999997">
        <ele>775.287</ele>
        <time>2022-08-24T14:03:00Z</time>
      </trkpt>
      <trkpt lat="42.961252999999914" lon="-1.442388999999997">
        <ele>775.266</ele>
        <time>2022-08-24T14:03:01Z</time>
      </trkpt>
      <trkpt lat="42.961252999999914" lon="-1.442405999999997">
        <ele>775.263</ele>
        <time>2022-08-24T14:03:02Z</time>
      </trkpt>
      <trkpt lat="42.96125099999991" lon="-1.442419999999997">
        <ele>775.444</ele>
        <time>2022-08-24T14:03:03Z</time>
      </trkpt>
      <trkpt lat="42.961249999999914" lon="-1.4424319999999968">
        <ele>775.418</ele>
        <time>2022-08-24T14:03:04Z</time>
      </trkpt>
      <trkpt lat="42.96124899999992" lon="-1.4424459999999968">
        <ele>775.809</ele>
        <time>2022-08-24T14:03:05Z</time>
      </trkpt>
      <trkpt lat="42.96124799999992" lon="-1.4424589999999968">
        <ele>776.017</ele>
        <time>2022-08-24T14:03:06Z</time>
      </trkpt>
      <trkpt lat="42.96124799999992" lon="-1.4424719999999969">
        <ele>776.477</ele>
        <time>2022-08-24T14:03:07Z</time>
      </trkpt>
      <trkpt lat="42.96124499999992" lon="-1.4424889999999968">
        <ele>776.657</ele>
        <time>2022-08-24T14:03:08Z</time>
      </trkpt>
      <trkpt lat="42.96124199999992" lon="-1.4425009999999967">
        <ele>776.893</ele>
        <time>2022-08-24T14:03:09Z</time>
      </trkpt>
      <trkpt lat="42.96123899999992" lon="-1.4425149999999967">
        <ele>777.025</ele>
        <time>2022-08-24T14:03:10Z</time>
      </trkpt>
      <trkpt lat="42.96123699999992" lon="-1.4425279999999967">
        <ele>777.262</ele>
        <time>2022-08-24T14:03:11Z</time>
      </trkpt>
      <trkpt lat="42.96123299999992" lon="-1.4425409999999967">
        <ele>777.495</ele>
        <time>2022-08-24T14:03:12Z</time>
      </trkpt>
      <trkpt lat="42.961231999999924" lon="-1.4425519999999967">
        <ele>777.689</ele>
        <time>2022-08-24T14:03:13Z</time>
      </trkpt>
      <trkpt lat="42.96123099999993" lon="-1.4425649999999968">
        <ele>777.678</ele>
        <time>2022-08-24T14:03:14Z</time>
      </trkpt>
      <trkpt lat="42.96122699999993" lon="-1.4425829999999968">
        <ele>778.042</ele>
        <time>2022-08-24T14:03:15Z</time>
      </trkpt>
      <trkpt lat="42.96122399999993" lon="-1.442600999999997">
        <ele>778.222</ele>
        <time>2022-08-24T14:03:16Z</time>
      </trkpt>
      <trkpt lat="42.96122099999993" lon="-1.442616999999997">
        <ele>778.214</ele>
        <time>2022-08-24T14:03:17Z</time>
      </trkpt>
      <trkpt lat="42.96121899999993" lon="-1.442635999999997">
        <ele>778.409</ele>
        <time>2022-08-24T14:03:18Z</time>
      </trkpt>
      <trkpt lat="42.96121799999993" lon="-1.442650999999997">
        <ele>778.495</ele>
        <time>2022-08-24T14:03:19Z</time>
      </trkpt>
      <trkpt lat="42.961216999999934" lon="-1.442666999999997">
        <ele>778.615</ele>
        <time>2022-08-24T14:03:20Z</time>
      </trkpt>
      <trkpt lat="42.96121499999993" lon="-1.442679999999997">
        <ele>778.625</ele>
        <time>2022-08-24T14:03:21Z</time>
      </trkpt>
      <trkpt lat="42.96121299999993" lon="-1.4426929999999971">
        <ele>779.081</ele>
        <time>2022-08-24T14:03:22Z</time>
      </trkpt>
      <trkpt lat="42.96121099999993" lon="-1.4427079999999972">
        <ele>779.263</ele>
        <time>2022-08-24T14:03:23Z</time>
      </trkpt>
      <trkpt lat="42.96120699999993" lon="-1.4427199999999971">
        <ele>779.670</ele>
        <time>2022-08-24T14:03:24Z</time>
      </trkpt>
      <trkpt lat="42.961202999999934" lon="-1.4427299999999972">
        <ele>779.853</ele>
        <time>2022-08-24T14:03:25Z</time>
      </trkpt>
      <trkpt lat="42.961199999999934" lon="-1.442741999999997">
        <ele>779.867</ele>
        <time>2022-08-24T14:03:26Z</time>
      </trkpt>
      <trkpt lat="42.96119599999994" lon="-1.442757999999997">
        <ele>780.076</ele>
        <time>2022-08-24T14:03:27Z</time>
      </trkpt>
      <trkpt lat="42.96119299999994" lon="-1.442771999999997">
        <ele>780.088</ele>
        <time>2022-08-24T14:03:28Z</time>
      </trkpt>
      <trkpt lat="42.961187999999936" lon="-1.442783999999997">
        <ele>780.024</ele>
        <time>2022-08-24T14:03:29Z</time>
      </trkpt>
      <trkpt lat="42.96118399999994" lon="-1.442793999999997">
        <ele>780.226</ele>
        <time>2022-08-24T14:03:30Z</time>
      </trkpt>
      <trkpt lat="42.96117799999994" lon="-1.442799999999997">
        <ele>780.409</ele>
        <time>2022-08-24T14:03:31Z</time>
      </trkpt>
      <trkpt lat="42.96117099999994" lon="-1.442804999999997">
        <ele>780.469</ele>
        <time>2022-08-24T14:03:32Z</time>
      </trkpt>
      <trkpt lat="42.96116399999995" lon="-1.442811999999997">
        <ele>780.459</ele>
        <time>2022-08-24T14:03:33Z</time>
      </trkpt>
      <trkpt lat="42.961155999999946" lon="-1.442819999999997">
        <ele>780.639</ele>
        <time>2022-08-24T14:03:34Z</time>
      </trkpt>
      <trkpt lat="42.961147999999945" lon="-1.4428279999999971">
        <ele>780.635</ele>
        <time>2022-08-24T14:03:35Z</time>
      </trkpt>
      <trkpt lat="42.96113999999994" lon="-1.4428349999999972">
        <ele>780.897</ele>
        <time>2022-08-24T14:03:36Z</time>
      </trkpt>
      <trkpt lat="42.96113299999995" lon="-1.4428409999999972">
        <ele>780.844</ele>
        <time>2022-08-24T14:03:37Z</time>
      </trkpt>
      <trkpt lat="42.96112399999995" lon="-1.4428459999999972">
        <ele>780.857</ele>
        <time>2022-08-24T14:03:38Z</time>
      </trkpt>
      <trkpt lat="42.96111499999995" lon="-1.4428539999999972">
        <ele>780.821</ele>
        <time>2022-08-24T14:03:39Z</time>
      </trkpt>
      <trkpt lat="42.96110599999995" lon="-1.442865999999997">
        <ele>781.070</ele>
        <time>2022-08-24T14:03:40Z</time>
      </trkpt>
      <trkpt lat="42.96109999999995" lon="-1.442876999999997">
        <ele>781.027</ele>
        <time>2022-08-24T14:03:41Z</time>
      </trkpt>
      <trkpt lat="42.961095999999955" lon="-1.4428919999999972">
        <ele>781.268</ele>
        <time>2022-08-24T14:03:42Z</time>
      </trkpt>
      <trkpt lat="42.96108899999996" lon="-1.4429129999999972">
        <ele>781.214</ele>
        <time>2022-08-24T14:03:43Z</time>
      </trkpt>
      <trkpt lat="42.96108599999996" lon="-1.4429299999999972">
        <ele>781.209</ele>
        <time>2022-08-24T14:03:44Z</time>
      </trkpt>
      <trkpt lat="42.96108099999996" lon="-1.4429449999999973">
        <ele>781.283</ele>
        <time>2022-08-24T14:03:45Z</time>
      </trkpt>
      <trkpt lat="42.96107699999996" lon="-1.4429589999999972">
        <ele>781.443</ele>
        <time>2022-08-24T14:03:46Z</time>
      </trkpt>
      <trkpt lat="42.96107099999996" lon="-1.4429759999999971">
        <ele>781.493</ele>
        <time>2022-08-24T14:03:47Z</time>
      </trkpt>
      <trkpt lat="42.96106499999996" lon="-1.4429919999999972">
        <ele>781.459</ele>
        <time>2022-08-24T14:03:48Z</time>
      </trkpt>
      <trkpt lat="42.961057999999966" lon="-1.443011999999997">
        <ele>781.471</ele>
        <time>2022-08-24T14:03:49Z</time>
      </trkpt>
      <trkpt lat="42.96105099999997" lon="-1.443025999999997">
        <ele>781.448</ele>
        <time>2022-08-24T14:03:50Z</time>
      </trkpt>
      <trkpt lat="42.96104799999997" lon="-1.443041999999997">
        <ele>781.631</ele>
        <time>2022-08-24T14:03:51Z</time>
      </trkpt>
      <trkpt lat="42.96104699999997" lon="-1.443062999999997">
        <ele>781.665</ele>
        <time>2022-08-24T14:03:52Z</time>
      </trkpt>
      <trkpt lat="42.96104099999997" lon="-1.443097999999997">
        <ele>781.874</ele>
        <time>2022-08-24T14:03:54Z</time>
      </trkpt>
      <trkpt lat="42.96102499999997" lon="-1.4431459999999972">
        <ele>781.845</ele>
        <time>2022-08-24T14:03:57Z</time>
      </trkpt>
      <trkpt lat="42.96101999999997" lon="-1.4431649999999971">
        <ele>782.047</ele>
        <time>2022-08-24T14:03:58Z</time>
      </trkpt>
      <trkpt lat="42.96101399999997" lon="-1.4431999999999972">
        <ele>782.411</ele>
        <time>2022-08-24T14:04:00Z</time>
      </trkpt>
      <trkpt lat="42.96100999999997" lon="-1.4432149999999973">
        <ele>782.409</ele>
        <time>2022-08-24T14:04:01Z</time>
      </trkpt>
      <trkpt lat="42.961005999999976" lon="-1.4432299999999973">
        <ele>782.665</ele>
        <time>2022-08-24T14:04:02Z</time>
      </trkpt>
      <trkpt lat="42.961000999999975" lon="-1.4432439999999973">
        <ele>782.665</ele>
        <time>2022-08-24T14:04:03Z</time>
      </trkpt>
      <trkpt lat="42.960983999999975" lon="-1.4432879999999972">
        <ele>783.265</ele>
        <time>2022-08-24T14:04:06Z</time>
      </trkpt>
      <trkpt lat="42.960963999999976" lon="-1.4433479999999972">
        <ele>783.621</ele>
        <time>2022-08-24T14:04:10Z</time>
      </trkpt>
      <trkpt lat="42.960960999999976" lon="-1.4433629999999973">
        <ele>783.683</ele>
        <time>2022-08-24T14:04:11Z</time>
      </trkpt>
      <trkpt lat="42.96095999999998" lon="-1.4433769999999972">
        <ele>783.890</ele>
        <time>2022-08-24T14:04:12Z</time>
      </trkpt>
      <trkpt lat="42.96095799999998" lon="-1.4433949999999973">
        <ele>784.083</ele>
        <time>2022-08-24T14:04:13Z</time>
      </trkpt>
      <trkpt lat="42.96095499999998" lon="-1.4434049999999974">
        <ele>784.267</ele>
        <time>2022-08-24T14:04:14Z</time>
      </trkpt>
      <trkpt lat="42.96093799999998" lon="-1.4434489999999973">
        <ele>784.816</ele>
        <time>2022-08-24T14:04:17Z</time>
      </trkpt>
      <trkpt lat="42.960935999999975" lon="-1.4434619999999974">
        <ele>784.892</ele>
        <time>2022-08-24T14:04:18Z</time>
      </trkpt>
      <trkpt lat="42.96093499999998" lon="-1.4434729999999973">
        <ele>785.073</ele>
        <time>2022-08-24T14:04:19Z</time>
      </trkpt>
      <trkpt lat="42.96093399999998" lon="-1.4434889999999974">
        <ele>785.020</ele>
        <time>2022-08-24T14:04:20Z</time>
      </trkpt>
      <trkpt lat="42.96093599999998" lon="-1.4435109999999973">
        <ele>785.209</ele>
        <time>2022-08-24T14:04:21Z</time>
      </trkpt>
      <trkpt lat="42.96093899999998" lon="-1.4435289999999974">
        <ele>785.260</ele>
        <time>2022-08-24T14:04:22Z</time>
      </trkpt>
      <trkpt lat="42.96094199999998" lon="-1.4435459999999973">
        <ele>785.450</ele>
        <time>2022-08-24T14:04:23Z</time>
      </trkpt>
      <trkpt lat="42.96094299999998" lon="-1.4435559999999974">
        <ele>785.680</ele>
        <time>2022-08-24T14:04:24Z</time>
      </trkpt>
      <trkpt lat="42.960946999999976" lon="-1.4435729999999973">
        <ele>785.856</ele>
        <time>2022-08-24T14:04:25Z</time>
      </trkpt>
      <trkpt lat="42.96094799999997" lon="-1.4435849999999972">
        <ele>785.868</ele>
        <time>2022-08-24T14:04:26Z</time>
      </trkpt>
      <trkpt lat="42.960949999999976" lon="-1.4435989999999972">
        <ele>786.045</ele>
        <time>2022-08-24T14:04:27Z</time>
      </trkpt>
      <trkpt lat="42.96095399999997" lon="-1.4436069999999972">
        <ele>786.248</ele>
        <time>2022-08-24T14:04:28Z</time>
      </trkpt>
      <trkpt lat="42.96095799999997" lon="-1.4436219999999973">
        <ele>786.462</ele>
        <time>2022-08-24T14:04:29Z</time>
      </trkpt>
      <trkpt lat="42.96095899999997" lon="-1.4436389999999972">
        <ele>786.431</ele>
        <time>2022-08-24T14:04:30Z</time>
      </trkpt>
      <trkpt lat="42.96095599999997" lon="-1.4436529999999972">
        <ele>786.673</ele>
        <time>2022-08-24T14:04:31Z</time>
      </trkpt>
      <trkpt lat="42.96095499999997" lon="-1.4436689999999972">
        <ele>786.885</ele>
        <time>2022-08-24T14:04:32Z</time>
      </trkpt>
      <trkpt lat="42.96095499999997" lon="-1.443680999999997">
        <ele>786.813</ele>
        <time>2022-08-24T14:04:33Z</time>
      </trkpt>
      <trkpt lat="42.96095399999997" lon="-1.4436989999999972">
        <ele>787.009</ele>
        <time>2022-08-24T14:04:34Z</time>
      </trkpt>
      <trkpt lat="42.960952999999975" lon="-1.4437169999999973">
        <ele>787.048</ele>
        <time>2022-08-24T14:04:35Z</time>
      </trkpt>
      <trkpt lat="42.96095099999997" lon="-1.4437349999999973">
        <ele>787.298</ele>
        <time>2022-08-24T14:04:36Z</time>
      </trkpt>
      <trkpt lat="42.96095099999997" lon="-1.4437519999999973">
        <ele>787.658</ele>
        <time>2022-08-24T14:04:37Z</time>
      </trkpt>
      <trkpt lat="42.96095199999997" lon="-1.4437669999999974">
        <ele>787.824</ele>
        <time>2022-08-24T14:04:38Z</time>
      </trkpt>
      <trkpt lat="42.96094899999997" lon="-1.4437879999999974">
        <ele>788.046</ele>
        <time>2022-08-24T14:04:39Z</time>
      </trkpt>
      <trkpt lat="42.96094599999997" lon="-1.4438009999999974">
        <ele>788.243</ele>
        <time>2022-08-24T14:04:40Z</time>
      </trkpt>
      <trkpt lat="42.96094599999997" lon="-1.4438169999999975">
        <ele>788.676</ele>
        <time>2022-08-24T14:04:41Z</time>
      </trkpt>
      <trkpt lat="42.96094399999997" lon="-1.4438299999999975">
        <ele>788.660</ele>
        <time>2022-08-24T14:04:42Z</time>
      </trkpt>
      <trkpt lat="42.96094099999997" lon="-1.4438409999999975">
        <ele>789.019</ele>
        <time>2022-08-24T14:04:43Z</time>
      </trkpt>
      <trkpt lat="42.96093899999997" lon="-1.4438519999999975">
        <ele>789.283</ele>
        <time>2022-08-24T14:04:44Z</time>
      </trkpt>
      <trkpt lat="42.96093899999997" lon="-1.4438669999999976">
        <ele>789.425</ele>
        <time>2022-08-24T14:04:45Z</time>
      </trkpt>
      <trkpt lat="42.960939999999965" lon="-1.4438789999999975">
        <ele>789.617</ele>
        <time>2022-08-24T14:04:46Z</time>
      </trkpt>
      <trkpt lat="42.96093899999997" lon="-1.4438899999999975">
        <ele>789.809</ele>
        <time>2022-08-24T14:04:47Z</time>
      </trkpt>
      <trkpt lat="42.960939999999965" lon="-1.4439009999999974">
        <ele>790.089</ele>
        <time>2022-08-24T14:04:48Z</time>
      </trkpt>
      <trkpt lat="42.960942999999965" lon="-1.4439099999999974">
        <ele>790.489</ele>
        <time>2022-08-24T14:04:49Z</time>
      </trkpt>
      <trkpt lat="42.960945999999964" lon="-1.4439219999999973">
        <ele>790.669</ele>
        <time>2022-08-24T14:04:50Z</time>
      </trkpt>
      <trkpt lat="42.960950999999966" lon="-1.4439309999999972">
        <ele>791.075</ele>
        <time>2022-08-24T14:04:51Z</time>
      </trkpt>
      <trkpt lat="42.96095299999997" lon="-1.4439389999999972">
        <ele>791.057</ele>
        <time>2022-08-24T14:04:52Z</time>
      </trkpt>
      <trkpt lat="42.960953999999965" lon="-1.443950999999997">
        <ele>791.264</ele>
        <time>2022-08-24T14:04:53Z</time>
      </trkpt>
      <trkpt lat="42.960956999999965" lon="-1.443962999999997">
        <ele>791.257</ele>
        <time>2022-08-24T14:04:54Z</time>
      </trkpt>
      <trkpt lat="42.96095899999997" lon="-1.443972999999997">
        <ele>791.621</ele>
        <time>2022-08-24T14:04:55Z</time>
      </trkpt>
      <trkpt lat="42.96095899999997" lon="-1.443985999999997">
        <ele>791.870</ele>
        <time>2022-08-24T14:04:56Z</time>
      </trkpt>
      <trkpt lat="42.96095899999997" lon="-1.4439959999999972">
        <ele>791.855</ele>
        <time>2022-08-24T14:04:57Z</time>
      </trkpt>
      <trkpt lat="42.96095799999997" lon="-1.4440069999999972">
        <ele>792.007</ele>
        <time>2022-08-24T14:04:58Z</time>
      </trkpt>
      <trkpt lat="42.96095699999997" lon="-1.4440209999999971">
        <ele>792.217</ele>
        <time>2022-08-24T14:04:59Z</time>
      </trkpt>
      <trkpt lat="42.96095699999997" lon="-1.4440359999999972">
        <ele>792.409</ele>
        <time>2022-08-24T14:05:00Z</time>
      </trkpt>
      <trkpt lat="42.960961999999974" lon="-1.4440489999999973">
        <ele>792.426</ele>
        <time>2022-08-24T14:05:01Z</time>
      </trkpt>
      <trkpt lat="42.96096599999997" lon="-1.4440609999999972">
        <ele>792.626</ele>
        <time>2022-08-24T14:05:02Z</time>
      </trkpt>
      <trkpt lat="42.96096899999997" lon="-1.444069999999997">
        <ele>792.876</ele>
        <time>2022-08-24T14:05:03Z</time>
      </trkpt>
      <trkpt lat="42.96097099999997" lon="-1.4440799999999971">
        <ele>793.052</ele>
        <time>2022-08-24T14:05:04Z</time>
      </trkpt>
      <trkpt lat="42.96097199999997" lon="-1.444085999999997">
        <ele>793.844</ele>
        <time>2022-08-24T14:06:38Z</time>
      </trkpt>
      <trkpt lat="42.96097199999997" lon="-1.444085999999997">
        <ele>793.841</ele>
        <time>2022-08-24T14:06:39Z</time>
      </trkpt>
      <trkpt lat="42.96097199999997" lon="-1.444085999999997">
        <ele>794.074</ele>
        <time>2022-08-24T14:06:41Z</time>
      </trkpt>
      <trkpt lat="42.96098699999997" lon="-1.444170999999997">
        <ele>795.288</ele>
        <time>2022-08-24T14:07:12Z</time>
      </trkpt>
      <trkpt lat="42.96098899999997" lon="-1.444210999999997">
        <ele>795.837</ele>
        <time>2022-08-24T14:07:18Z</time>
      </trkpt>
      <trkpt lat="42.96098599999997" lon="-1.444231999999997">
        <ele>796.032</ele>
        <time>2022-08-24T14:07:20Z</time>
      </trkpt>
      <trkpt lat="42.96098599999997" lon="-1.4442469999999972">
        <ele>796.292</ele>
        <time>2022-08-24T14:07:21Z</time>
      </trkpt>
      <trkpt lat="42.96098599999997" lon="-1.4442649999999972">
        <ele>796.211</ele>
        <time>2022-08-24T14:07:22Z</time>
      </trkpt>
      <trkpt lat="42.96098999999997" lon="-1.4443069999999973">
        <ele>796.409</ele>
        <time>2022-08-24T14:07:26Z</time>
      </trkpt>
      <trkpt lat="42.96098699999997" lon="-1.4443169999999974">
        <ele>796.624</ele>
        <time>2022-08-24T14:07:28Z</time>
      </trkpt>
      <trkpt lat="42.96098599999997" lon="-1.4443209999999973">
        <ele>796.654</ele>
        <time>2022-08-24T14:07:29Z</time>
      </trkpt>
      <trkpt lat="42.96098699999997" lon="-1.4443259999999973">
        <ele>796.614</ele>
        <time>2022-08-24T14:07:30Z</time>
      </trkpt>
      <trkpt lat="42.960984999999965" lon="-1.4443819999999974">
        <ele>797.830</ele>
        <time>2022-08-24T14:07:55Z</time>
      </trkpt>
      <trkpt lat="42.960981999999966" lon="-1.4444519999999974">
        <ele>798.652</ele>
        <time>2022-08-24T14:08:01Z</time>
      </trkpt>
      <trkpt lat="42.960981999999966" lon="-1.4444609999999973">
        <ele>798.889</ele>
        <time>2022-08-24T14:08:02Z</time>
      </trkpt>
      <trkpt lat="42.96097499999997" lon="-1.4444839999999974">
        <ele>799.042</ele>
        <time>2022-08-24T14:08:05Z</time>
      </trkpt>
      <trkpt lat="42.96097299999997" lon="-1.4444879999999973">
        <ele>799.246</ele>
        <time>2022-08-24T14:08:06Z</time>
      </trkpt>
      <trkpt lat="42.96096399999997" lon="-1.4445099999999973">
        <ele>799.465</ele>
        <time>2022-08-24T14:08:10Z</time>
      </trkpt>
      <trkpt lat="42.96096099999997" lon="-1.4445149999999973">
        <ele>799.476</ele>
        <time>2022-08-24T14:08:11Z</time>
      </trkpt>
      <trkpt lat="42.96094699999997" lon="-1.4445599999999974">
        <ele>800.090</ele>
        <time>2022-08-24T14:08:17Z</time>
      </trkpt>
      <trkpt lat="42.96094399999997" lon="-1.4445709999999974">
        <ele>800.219</ele>
        <time>2022-08-24T14:08:19Z</time>
      </trkpt>
      <trkpt lat="42.96093499999997" lon="-1.4445979999999974">
        <ele>800.809</ele>
        <time>2022-08-24T14:08:22Z</time>
      </trkpt>
      <trkpt lat="42.96093499999997" lon="-1.4446089999999974">
        <ele>800.898</ele>
        <time>2022-08-24T14:08:23Z</time>
      </trkpt>
      <trkpt lat="42.96093399999997" lon="-1.4446179999999973">
        <ele>801.028</ele>
        <time>2022-08-24T14:08:24Z</time>
      </trkpt>
      <trkpt lat="42.960929999999976" lon="-1.4446239999999972">
        <ele>801.098</ele>
        <time>2022-08-24T14:08:25Z</time>
      </trkpt>
      <trkpt lat="42.96092899999998" lon="-1.4446299999999972">
        <ele>801.254</ele>
        <time>2022-08-24T14:08:26Z</time>
      </trkpt>
      <trkpt lat="42.96091999999998" lon="-1.4446439999999972">
        <ele>801.416</ele>
        <time>2022-08-24T14:08:28Z</time>
      </trkpt>
      <trkpt lat="42.96091899999998" lon="-1.444647999999997">
        <ele>801.663</ele>
        <time>2022-08-24T14:08:29Z</time>
      </trkpt>
      <trkpt lat="42.96091699999998" lon="-1.444651999999997">
        <ele>801.646</ele>
        <time>2022-08-24T14:08:30Z</time>
      </trkpt>
      <trkpt lat="42.96091499999998" lon="-1.444653999999997">
        <ele>801.810</ele>
        <time>2022-08-24T14:08:31Z</time>
      </trkpt>
      <trkpt lat="42.96090799999998" lon="-1.444674999999997">
        <ele>802.229</ele>
        <time>2022-08-24T14:08:37Z</time>
      </trkpt>
      <trkpt lat="42.96090799999998" lon="-1.444674999999997">
        <ele>802.265</ele>
        <time>2022-08-24T14:08:39Z</time>
      </trkpt>
      <trkpt lat="42.96090599999998" lon="-1.444679999999997">
        <ele>802.468</ele>
        <time>2022-08-24T14:08:40Z</time>
      </trkpt>
      <trkpt lat="42.96090199999998" lon="-1.444687999999997">
        <ele>802.414</ele>
        <time>2022-08-24T14:08:41Z</time>
      </trkpt>
      <trkpt lat="42.960895999999984" lon="-1.444696999999997">
        <ele>802.609</ele>
        <time>2022-08-24T14:08:42Z</time>
      </trkpt>
      <trkpt lat="42.96089399999998" lon="-1.444709999999997">
        <ele>802.657</ele>
        <time>2022-08-24T14:08:43Z</time>
      </trkpt>
      <trkpt lat="42.96089499999998" lon="-1.444714999999997">
        <ele>802.627</ele>
        <time>2022-08-24T14:08:44Z</time>
      </trkpt>
      <trkpt lat="42.96089499999998" lon="-1.444714999999997">
        <ele>802.827</ele>
        <time>2022-08-24T14:08:45Z</time>
      </trkpt>
      <trkpt lat="42.96089499999998" lon="-1.444714999999997">
        <ele>802.813</ele>
        <time>2022-08-24T14:08:46Z</time>
      </trkpt>
      <trkpt lat="42.96089499999998" lon="-1.444714999999997">
        <ele>803.085</ele>
        <time>2022-08-24T14:08:50Z</time>
      </trkpt>
      <trkpt lat="42.96089499999998" lon="-1.444714999999997">
        <ele>803.262</ele>
        <time>2022-08-24T14:08:51Z</time>
      </trkpt>
      <trkpt lat="42.96089499999998" lon="-1.444714999999997">
        <ele>803.285</ele>
        <time>2022-08-24T14:08:53Z</time>
      </trkpt>
      <trkpt lat="42.96088299999998" lon="-1.444730999999997">
        <ele>803.429</ele>
        <time>2022-08-24T14:08:56Z</time>
      </trkpt>
      <trkpt lat="42.96087399999998" lon="-1.444760999999997">
        <ele>803.658</ele>
        <time>2022-08-24T14:08:58Z</time>
      </trkpt>
      <trkpt lat="42.960852999999986" lon="-1.444787999999997">
        <ele>803.889</ele>
        <time>2022-08-24T14:09:01Z</time>
      </trkpt>
      <trkpt lat="42.960850999999984" lon="-1.444798999999997">
        <ele>804.006</ele>
        <time>2022-08-24T14:09:02Z</time>
      </trkpt>
      <trkpt lat="42.96083999999998" lon="-1.4448249999999971">
        <ele>804.426</ele>
        <time>2022-08-24T14:09:10Z</time>
      </trkpt>
      <trkpt lat="42.960833999999984" lon="-1.4448379999999972">
        <ele>804.609</ele>
        <time>2022-08-24T14:09:11Z</time>
      </trkpt>
      <trkpt lat="42.960827999999985" lon="-1.4448569999999972">
        <ele>804.649</ele>
        <time>2022-08-24T14:09:13Z</time>
      </trkpt>
      <trkpt lat="42.96082399999999" lon="-1.4448649999999972">
        <ele>804.649</ele>
        <time>2022-08-24T14:09:14Z</time>
      </trkpt>
      <trkpt lat="42.96082099999999" lon="-1.4448709999999971">
        <ele>804.639</ele>
        <time>2022-08-24T14:09:15Z</time>
      </trkpt>
      <trkpt lat="42.96081599999999" lon="-1.444879999999997">
        <ele>804.855</ele>
        <time>2022-08-24T14:09:16Z</time>
      </trkpt>
      <trkpt lat="42.960810999999985" lon="-1.444885999999997">
        <ele>804.857</ele>
        <time>2022-08-24T14:09:17Z</time>
      </trkpt>
      <trkpt lat="42.960805999999984" lon="-1.444897999999997">
        <ele>805.044</ele>
        <time>2022-08-24T14:09:18Z</time>
      </trkpt>
      <trkpt lat="42.96080399999998" lon="-1.444904999999997">
        <ele>805.237</ele>
        <time>2022-08-24T14:09:19Z</time>
      </trkpt>
      <trkpt lat="42.96078499999998" lon="-1.444916999999997">
        <ele>806.071</ele>
        <time>2022-08-24T14:09:31Z</time>
      </trkpt>
      <trkpt lat="42.96077399999998" lon="-1.4449259999999968">
        <ele>806.070</ele>
        <time>2022-08-24T14:09:33Z</time>
      </trkpt>
      <trkpt lat="42.96077199999998" lon="-1.4449309999999969">
        <ele>806.428</ele>
        <time>2022-08-24T14:09:38Z</time>
      </trkpt>
      <trkpt lat="42.96077199999998" lon="-1.4449309999999969">
        <ele>806.489</ele>
        <time>2022-08-24T14:09:39Z</time>
      </trkpt>
      <trkpt lat="42.960769999999975" lon="-1.444932999999997">
        <ele>806.617</ele>
        <time>2022-08-24T14:09:40Z</time>
      </trkpt>
      <trkpt lat="42.960761999999974" lon="-1.4449419999999968">
        <ele>806.609</ele>
        <time>2022-08-24T14:09:41Z</time>
      </trkpt>
      <trkpt lat="42.96075699999997" lon="-1.4449449999999968">
        <ele>806.893</ele>
        <time>2022-08-24T14:09:42Z</time>
      </trkpt>
      <trkpt lat="42.96075699999997" lon="-1.4449449999999968">
        <ele>806.873</ele>
        <time>2022-08-24T14:09:43Z</time>
      </trkpt>
      <trkpt lat="42.96075699999997" lon="-1.4449449999999968">
        <ele>807.443</ele>
        <time>2022-08-24T14:09:51Z</time>
      </trkpt>
      <trkpt lat="42.960749999999976" lon="-1.4449459999999967">
        <ele>807.639</ele>
        <time>2022-08-24T14:09:54Z</time>
      </trkpt>
      <trkpt lat="42.96069899999998" lon="-1.4450319999999968">
        <ele>808.021</ele>
        <time>2022-08-24T14:10:02Z</time>
      </trkpt>
      <trkpt lat="42.960688999999974" lon="-1.4450439999999967">
        <ele>808.278</ele>
        <time>2022-08-24T14:10:03Z</time>
      </trkpt>
      <trkpt lat="42.96064999999997" lon="-1.4450939999999968">
        <ele>808.621</ele>
        <time>2022-08-24T14:10:07Z</time>
      </trkpt>
      <trkpt lat="42.96062499999997" lon="-1.4451509999999967">
        <ele>809.075</ele>
        <time>2022-08-24T14:10:13Z</time>
      </trkpt>
      <trkpt lat="42.960620999999975" lon="-1.4451569999999967">
        <ele>809.054</ele>
        <time>2022-08-24T14:10:14Z</time>
      </trkpt>
      <trkpt lat="42.96061699999998" lon="-1.4451629999999966">
        <ele>809.214</ele>
        <time>2022-08-24T14:10:15Z</time>
      </trkpt>
      <trkpt lat="42.960614999999976" lon="-1.4451749999999965">
        <ele>809.254</ele>
        <time>2022-08-24T14:10:16Z</time>
      </trkpt>
      <trkpt lat="42.96061399999998" lon="-1.4452089999999966">
        <ele>809.409</ele>
        <time>2022-08-24T14:10:19Z</time>
      </trkpt>
      <trkpt lat="42.960611999999976" lon="-1.4452169999999966">
        <ele>809.409</ele>
        <time>2022-08-24T14:10:20Z</time>
      </trkpt>
      <trkpt lat="42.96060899999998" lon="-1.4452369999999966">
        <ele>809.682</ele>
        <time>2022-08-24T14:10:22Z</time>
      </trkpt>
      <trkpt lat="42.96060799999998" lon="-1.4452699999999965">
        <ele>810.032</ele>
        <time>2022-08-24T14:10:25Z</time>
      </trkpt>
      <trkpt lat="42.96060599999998" lon="-1.4452789999999964">
        <ele>810.252</ele>
        <time>2022-08-24T14:10:26Z</time>
      </trkpt>
      <trkpt lat="42.96060299999998" lon="-1.4452879999999964">
        <ele>810.268</ele>
        <time>2022-08-24T14:10:27Z</time>
      </trkpt>
      <trkpt lat="42.96059499999998" lon="-1.4453139999999964">
        <ele>810.660</ele>
        <time>2022-08-24T14:10:30Z</time>
      </trkpt>
      <trkpt lat="42.960592999999974" lon="-1.4453259999999963">
        <ele>810.637</ele>
        <time>2022-08-24T14:10:31Z</time>
      </trkpt>
      <trkpt lat="42.96059099999997" lon="-1.4453309999999964">
        <ele>810.880</ele>
        <time>2022-08-24T14:10:32Z</time>
      </trkpt>
      <trkpt lat="42.960589999999975" lon="-1.4453379999999965">
        <ele>810.844</ele>
        <time>2022-08-24T14:10:33Z</time>
      </trkpt>
      <trkpt lat="42.960589999999975" lon="-1.4453499999999964">
        <ele>810.863</ele>
        <time>2022-08-24T14:10:34Z</time>
      </trkpt>
      <trkpt lat="42.96058899999998" lon="-1.4453569999999965">
        <ele>811.061</ele>
        <time>2022-08-24T14:10:35Z</time>
      </trkpt>
      <trkpt lat="42.96058899999998" lon="-1.4453569999999965">
        <ele>811.021</ele>
        <time>2022-08-24T14:10:36Z</time>
      </trkpt>
      <trkpt lat="42.960589999999975" lon="-1.4453699999999965">
        <ele>811.213</ele>
        <time>2022-08-24T14:10:42Z</time>
      </trkpt>
      <trkpt lat="42.960580999999976" lon="-1.4454009999999964">
        <ele>811.209</ele>
        <time>2022-08-24T14:10:45Z</time>
      </trkpt>
      <trkpt lat="42.960578999999974" lon="-1.4454119999999964">
        <ele>811.247</ele>
        <time>2022-08-24T14:10:46Z</time>
      </trkpt>
      <trkpt lat="42.96057699999997" lon="-1.4454219999999964">
        <ele>811.257</ele>
        <time>2022-08-24T14:10:47Z</time>
      </trkpt>
      <trkpt lat="42.96056599999997" lon="-1.4454459999999965">
        <ele>811.497</ele>
        <time>2022-08-24T14:10:50Z</time>
      </trkpt>
      <trkpt lat="42.96056399999997" lon="-1.4454509999999965">
        <ele>811.643</ele>
        <time>2022-08-24T14:10:51Z</time>
      </trkpt>
      <trkpt lat="42.96056099999997" lon="-1.4454619999999965">
        <ele>811.655</ele>
        <time>2022-08-24T14:10:52Z</time>
      </trkpt>
      <trkpt lat="42.96055799999997" lon="-1.4454689999999966">
        <ele>811.832</ele>
        <time>2022-08-24T14:10:53Z</time>
      </trkpt>
      <trkpt lat="42.96055399999997" lon="-1.4454749999999965">
        <ele>811.845</ele>
        <time>2022-08-24T14:10:54Z</time>
      </trkpt>
      <trkpt lat="42.96054699999998" lon="-1.4454999999999965">
        <ele>812.079</ele>
        <time>2022-08-24T14:10:56Z</time>
      </trkpt>
      <trkpt lat="42.96054699999998" lon="-1.4455179999999965">
        <ele>812.218</ele>
        <time>2022-08-24T14:10:58Z</time>
      </trkpt>
      <trkpt lat="42.960544999999975" lon="-1.4455279999999966">
        <ele>812.226</ele>
        <time>2022-08-24T14:10:59Z</time>
      </trkpt>
      <trkpt lat="42.960547999999974" lon="-1.4455409999999966">
        <ele>812.247</ele>
        <time>2022-08-24T14:11:00Z</time>
      </trkpt>
      <trkpt lat="42.96054599999997" lon="-1.4455519999999966">
        <ele>812.411</ele>
        <time>2022-08-24T14:11:01Z</time>
      </trkpt>
      <trkpt lat="42.96054299999997" lon="-1.4455859999999967">
        <ele>812.809</ele>
        <time>2022-08-24T14:11:04Z</time>
      </trkpt>
      <trkpt lat="42.96054299999997" lon="-1.4456279999999968">
        <ele>813.443</ele>
        <time>2022-08-24T14:11:07Z</time>
      </trkpt>
      <trkpt lat="42.96054299999997" lon="-1.4456409999999968">
        <ele>813.463</ele>
        <time>2022-08-24T14:11:08Z</time>
      </trkpt>
      <trkpt lat="42.960535999999976" lon="-1.4456709999999968">
        <ele>813.613</ele>
        <time>2022-08-24T14:11:11Z</time>
      </trkpt>
      <trkpt lat="42.96053499999998" lon="-1.4456799999999967">
        <ele>813.619</ele>
        <time>2022-08-24T14:11:12Z</time>
      </trkpt>
      <trkpt lat="42.96053499999998" lon="-1.4456929999999968">
        <ele>813.841</ele>
        <time>2022-08-24T14:11:13Z</time>
      </trkpt>
      <trkpt lat="42.96053499999998" lon="-1.4457039999999968">
        <ele>813.888</ele>
        <time>2022-08-24T14:11:14Z</time>
      </trkpt>
      <trkpt lat="42.960535999999976" lon="-1.4457129999999967">
        <ele>813.811</ele>
        <time>2022-08-24T14:11:15Z</time>
      </trkpt>
      <trkpt lat="42.960535999999976" lon="-1.4457179999999967">
        <ele>814.085</ele>
        <time>2022-08-24T14:11:16Z</time>
      </trkpt>
      <trkpt lat="42.96053499999998" lon="-1.4457199999999968">
        <ele>814.064</ele>
        <time>2022-08-24T14:11:17Z</time>
      </trkpt>
      <trkpt lat="42.96053399999998" lon="-1.4457269999999969">
        <ele>814.224</ele>
        <time>2022-08-24T14:11:18Z</time>
      </trkpt>
      <trkpt lat="42.96053399999998" lon="-1.445731999999997">
        <ele>814.204</ele>
        <time>2022-08-24T14:11:19Z</time>
      </trkpt>
      <trkpt lat="42.960532999999984" lon="-1.445736999999997">
        <ele>814.214</ele>
        <time>2022-08-24T14:11:20Z</time>
      </trkpt>
      <trkpt lat="42.960531999999986" lon="-1.4457489999999968">
        <ele>814.209</ele>
        <time>2022-08-24T14:11:21Z</time>
      </trkpt>
      <trkpt lat="42.960532999999984" lon="-1.445758999999997">
        <ele>814.423</ele>
        <time>2022-08-24T14:11:22Z</time>
      </trkpt>
      <trkpt lat="42.96050099999999" lon="-1.4457949999999968">
        <ele>814.653</ele>
        <time>2022-08-24T14:11:28Z</time>
      </trkpt>
      <trkpt lat="42.960498999999984" lon="-1.445804999999997">
        <ele>814.653</ele>
        <time>2022-08-24T14:11:29Z</time>
      </trkpt>
      <trkpt lat="42.96049799999999" lon="-1.4458159999999969">
        <ele>814.889</ele>
        <time>2022-08-24T14:11:30Z</time>
      </trkpt>
      <trkpt lat="42.96049699999999" lon="-1.445831999999997">
        <ele>815.051</ele>
        <time>2022-08-24T14:11:32Z</time>
      </trkpt>
      <trkpt lat="42.96048799999999" lon="-1.4458679999999968">
        <ele>815.688</ele>
        <time>2022-08-24T14:11:36Z</time>
      </trkpt>
      <trkpt lat="42.96048899999999" lon="-1.4458709999999968">
        <ele>815.811</ele>
        <time>2022-08-24T14:11:37Z</time>
      </trkpt>
      <trkpt lat="42.96048899999999" lon="-1.4458769999999967">
        <ele>815.825</ele>
        <time>2022-08-24T14:11:38Z</time>
      </trkpt>
      <trkpt lat="42.96048899999999" lon="-1.4458809999999966">
        <ele>817.034</ele>
        <time>2022-08-24T14:11:51Z</time>
      </trkpt>
      <trkpt lat="42.96048399999999" lon="-1.4459469999999965">
        <ele>817.065</ele>
        <time>2022-08-24T14:11:55Z</time>
      </trkpt>
      <trkpt lat="42.96048399999999" lon="-1.4459789999999966">
        <ele>817.268</ele>
        <time>2022-08-24T14:11:57Z</time>
      </trkpt>
      <trkpt lat="42.96048099999999" lon="-1.4459999999999966">
        <ele>817.214</ele>
        <time>2022-08-24T14:11:58Z</time>
      </trkpt>
      <trkpt lat="42.96048099999999" lon="-1.4460099999999967">
        <ele>817.409</ele>
        <time>2022-08-24T14:11:59Z</time>
      </trkpt>
      <trkpt lat="42.96048099999999" lon="-1.4460139999999966">
        <ele>817.667</ele>
        <time>2022-08-24T14:12:00Z</time>
      </trkpt>
      <trkpt lat="42.96047799999999" lon="-1.4460209999999967">
        <ele>817.847</ele>
        <time>2022-08-24T14:12:01Z</time>
      </trkpt>
      <trkpt lat="42.960475999999986" lon="-1.4460239999999966">
        <ele>818.097</ele>
        <time>2022-08-24T14:12:02Z</time>
      </trkpt>
      <trkpt lat="42.960475999999986" lon="-1.4460309999999967">
        <ele>818.243</ele>
        <time>2022-08-24T14:12:03Z</time>
      </trkpt>
      <trkpt lat="42.96047499999999" lon="-1.4460339999999967">
        <ele>818.225</ele>
        <time>2022-08-24T14:12:04Z</time>
      </trkpt>
      <trkpt lat="42.96047499999999" lon="-1.4460339999999967">
        <ele>818.472</ele>
        <time>2022-08-24T14:12:05Z</time>
      </trkpt>
      <trkpt lat="42.96046899999999" lon="-1.4460869999999968">
        <ele>818.695</ele>
        <time>2022-08-24T14:12:09Z</time>
      </trkpt>
      <trkpt lat="42.96046899999999" lon="-1.4460889999999968">
        <ele>819.259</ele>
        <time>2022-08-24T14:12:34Z</time>
      </trkpt>
      <trkpt lat="42.96046899999999" lon="-1.4460949999999968">
        <ele>819.688</ele>
        <time>2022-08-24T14:12:38Z</time>
      </trkpt>
      <trkpt lat="42.96046899999999" lon="-1.4460949999999968">
        <ele>819.813</ele>
        <time>2022-08-24T14:12:39Z</time>
      </trkpt>
      <trkpt lat="42.96046899999999" lon="-1.4460949999999968">
        <ele>820.043</ele>
        <time>2022-08-24T14:12:40Z</time>
      </trkpt>
      <trkpt lat="42.96046699999999" lon="-1.4461209999999969">
        <ele>820.407</ele>
        <time>2022-08-24T14:12:44Z</time>
      </trkpt>
      <trkpt lat="42.960461999999985" lon="-1.4461399999999969">
        <ele>820.409</ele>
        <time>2022-08-24T14:12:45Z</time>
      </trkpt>
      <trkpt lat="42.960456999999984" lon="-1.446163999999997">
        <ele>820.692</ele>
        <time>2022-08-24T14:12:46Z</time>
      </trkpt>
      <trkpt lat="42.960447999999985" lon="-1.446187999999997">
        <ele>820.892</ele>
        <time>2022-08-24T14:12:47Z</time>
      </trkpt>
      <trkpt lat="42.96042399999998" lon="-1.446276999999997">
        <ele>821.052</ele>
        <time>2022-08-24T14:12:53Z</time>
      </trkpt>
      <trkpt lat="42.960416999999985" lon="-1.446297999999997">
        <ele>821.428</ele>
        <time>2022-08-24T14:12:55Z</time>
      </trkpt>
      <trkpt lat="42.960396999999986" lon="-1.446319999999997">
        <ele>821.890</ele>
        <time>2022-08-24T14:12:57Z</time>
      </trkpt>
      <trkpt lat="42.960388999999985" lon="-1.446330999999997">
        <ele>821.857</ele>
        <time>2022-08-24T14:12:58Z</time>
      </trkpt>
      <trkpt lat="42.960380999999984" lon="-1.4463369999999969">
        <ele>822.040</ele>
        <time>2022-08-24T14:12:59Z</time>
      </trkpt>
      <trkpt lat="42.96037699999999" lon="-1.4463399999999969">
        <ele>822.014</ele>
        <time>2022-08-24T14:13:00Z</time>
      </trkpt>
      <trkpt lat="42.960371999999985" lon="-1.446352999999997">
        <ele>822.013</ele>
        <time>2022-08-24T14:13:01Z</time>
      </trkpt>
      <trkpt lat="42.96035999999999" lon="-1.4463589999999968">
        <ele>822.229</ele>
        <time>2022-08-24T14:13:02Z</time>
      </trkpt>
      <trkpt lat="42.960354999999986" lon="-1.4463599999999968">
        <ele>822.400</ele>
        <time>2022-08-24T14:13:03Z</time>
      </trkpt>
      <trkpt lat="42.960351999999986" lon="-1.4463679999999968">
        <ele>822.620</ele>
        <time>2022-08-24T14:13:04Z</time>
      </trkpt>
      <trkpt lat="42.96035099999999" lon="-1.4463699999999968">
        <ele>822.809</ele>
        <time>2022-08-24T14:13:06Z</time>
      </trkpt>
      <trkpt lat="42.96035099999999" lon="-1.4463699999999968">
        <ele>822.823</ele>
        <time>2022-08-24T14:13:07Z</time>
      </trkpt>
      <trkpt lat="42.96034999999999" lon="-1.4463739999999967">
        <ele>823.083</ele>
        <time>2022-08-24T14:13:08Z</time>
      </trkpt>
      <trkpt lat="42.96034699999999" lon="-1.4463879999999967">
        <ele>823.033</ele>
        <time>2022-08-24T14:13:09Z</time>
      </trkpt>
      <trkpt lat="42.96034499999999" lon="-1.4464009999999967">
        <ele>823.039</ele>
        <time>2022-08-24T14:13:10Z</time>
      </trkpt>
      <trkpt lat="42.96034499999999" lon="-1.4464119999999967">
        <ele>823.271</ele>
        <time>2022-08-24T14:13:11Z</time>
      </trkpt>
      <trkpt lat="42.96034299999999" lon="-1.4464169999999967">
        <ele>823.478</ele>
        <time>2022-08-24T14:13:12Z</time>
      </trkpt>
      <trkpt lat="42.960340999999985" lon="-1.4464159999999968">
        <ele>823.671</ele>
        <time>2022-08-24T14:13:13Z</time>
      </trkpt>
      <trkpt lat="42.960340999999985" lon="-1.4464159999999968">
        <ele>823.695</ele>
        <time>2022-08-24T14:13:14Z</time>
      </trkpt>
      <trkpt lat="42.960340999999985" lon="-1.4464159999999968">
        <ele>823.884</ele>
        <time>2022-08-24T14:13:15Z</time>
      </trkpt>
      <trkpt lat="42.96033999999999" lon="-1.446422999999997">
        <ele>823.844</ele>
        <time>2022-08-24T14:13:16Z</time>
      </trkpt>
      <trkpt lat="42.96033899999999" lon="-1.446429999999997">
        <ele>823.805</ele>
        <time>2022-08-24T14:13:17Z</time>
      </trkpt>
      <trkpt lat="42.96033899999999" lon="-1.446429999999997">
        <ele>824.015</ele>
        <time>2022-08-24T14:13:18Z</time>
      </trkpt>
      <trkpt lat="42.96033899999999" lon="-1.446429999999997">
        <ele>824.009</ele>
        <time>2022-08-24T14:13:19Z</time>
      </trkpt>
      <trkpt lat="42.96033899999999" lon="-1.446429999999997">
        <ele>824.225</ele>
        <time>2022-08-24T14:13:20Z</time>
      </trkpt>
      <trkpt lat="42.96033899999999" lon="-1.446429999999997">
        <ele>824.275</ele>
        <time>2022-08-24T14:13:21Z</time>
      </trkpt>
      <trkpt lat="42.96033899999999" lon="-1.446429999999997">
        <ele>824.435</ele>
        <time>2022-08-24T14:13:22Z</time>
      </trkpt>
      <trkpt lat="42.96033899999999" lon="-1.446429999999997">
        <ele>824.411</ele>
        <time>2022-08-24T14:13:23Z</time>
      </trkpt>
      <trkpt lat="42.96033899999999" lon="-1.446429999999997">
        <ele>824.483</ele>
        <time>2022-08-24T14:13:24Z</time>
      </trkpt>
      <trkpt lat="42.96033999999999" lon="-1.446434999999997">
        <ele>824.640</ele>
        <time>2022-08-24T14:13:25Z</time>
      </trkpt>
      <trkpt lat="42.96034899999999" lon="-1.446448999999997">
        <ele>824.623</ele>
        <time>2022-08-24T14:13:26Z</time>
      </trkpt>
      <trkpt lat="42.96035999999999" lon="-1.446465999999997">
        <ele>824.887</ele>
        <time>2022-08-24T14:13:27Z</time>
      </trkpt>
      <trkpt lat="42.960363999999984" lon="-1.4464749999999968">
        <ele>824.826</ele>
        <time>2022-08-24T14:13:28Z</time>
      </trkpt>
      <trkpt lat="42.960363999999984" lon="-1.4464749999999968">
        <ele>824.898</ele>
        <time>2022-08-24T14:13:29Z</time>
      </trkpt>
      <trkpt lat="42.960363999999984" lon="-1.4464749999999968">
        <ele>825.215</ele>
        <time>2022-08-24T14:13:33Z</time>
      </trkpt>
      <trkpt lat="42.960363999999984" lon="-1.4464749999999968">
        <ele>825.426</ele>
        <time>2022-08-24T14:13:34Z</time>
      </trkpt>
      <trkpt lat="42.960363999999984" lon="-1.4464749999999968">
        <ele>825.809</ele>
        <time>2022-08-24T14:13:35Z</time>
      </trkpt>
      <trkpt lat="42.96036499999998" lon="-1.4464809999999968">
        <ele>825.880</ele>
        <time>2022-08-24T14:13:36Z</time>
      </trkpt>
      <trkpt lat="42.96036899999998" lon="-1.4465009999999967">
        <ele>826.040</ele>
        <time>2022-08-24T14:13:37Z</time>
      </trkpt>
      <trkpt lat="42.96037199999998" lon="-1.4465239999999968">
        <ele>826.280</ele>
        <time>2022-08-24T14:13:38Z</time>
      </trkpt>
      <trkpt lat="42.96037499999998" lon="-1.4465459999999968">
        <ele>826.456</ele>
        <time>2022-08-24T14:13:39Z</time>
      </trkpt>
      <trkpt lat="42.96037499999998" lon="-1.4465659999999967">
        <ele>826.478</ele>
        <time>2022-08-24T14:13:40Z</time>
      </trkpt>
      <trkpt lat="42.96038099999998" lon="-1.4465909999999966">
        <ele>826.675</ele>
        <time>2022-08-24T14:13:41Z</time>
      </trkpt>
      <trkpt lat="42.960392999999975" lon="-1.4466079999999966">
        <ele>826.848</ele>
        <time>2022-08-24T14:13:42Z</time>
      </trkpt>
      <trkpt lat="42.96039999999997" lon="-1.4466189999999965">
        <ele>826.822</ele>
        <time>2022-08-24T14:13:43Z</time>
      </trkpt>
      <trkpt lat="42.96039699999997" lon="-1.4466329999999965">
        <ele>827.031</ele>
        <time>2022-08-24T14:13:44Z</time>
      </trkpt>
      <trkpt lat="42.96039399999997" lon="-1.4466549999999965">
        <ele>827.049</ele>
        <time>2022-08-24T14:13:45Z</time>
      </trkpt>
      <trkpt lat="42.96039199999997" lon="-1.4466739999999965">
        <ele>827.002</ele>
        <time>2022-08-24T14:13:46Z</time>
      </trkpt>
      <trkpt lat="42.96038199999997" lon="-1.4466849999999964">
        <ele>827.222</ele>
        <time>2022-08-24T14:13:47Z</time>
      </trkpt>
      <trkpt lat="42.960376999999966" lon="-1.4466989999999964">
        <ele>827.209</ele>
        <time>2022-08-24T14:13:48Z</time>
      </trkpt>
      <trkpt lat="42.960374999999964" lon="-1.4467129999999964">
        <ele>827.455</ele>
        <time>2022-08-24T14:13:49Z</time>
      </trkpt>
      <trkpt lat="42.960371999999964" lon="-1.4467239999999963">
        <ele>827.435</ele>
        <time>2022-08-24T14:13:50Z</time>
      </trkpt>
      <trkpt lat="42.960368999999965" lon="-1.4467279999999962">
        <ele>827.615</ele>
        <time>2022-08-24T14:13:51Z</time>
      </trkpt>
      <trkpt lat="42.96036199999997" lon="-1.4467349999999963">
        <ele>827.661</ele>
        <time>2022-08-24T14:13:52Z</time>
      </trkpt>
      <trkpt lat="42.96036199999997" lon="-1.4467399999999964">
        <ele>827.643</ele>
        <time>2022-08-24T14:13:53Z</time>
      </trkpt>
      <trkpt lat="42.96036099999997" lon="-1.4467439999999963">
        <ele>827.840</ele>
        <time>2022-08-24T14:13:54Z</time>
      </trkpt>
      <trkpt lat="42.96036299999997" lon="-1.4467539999999963">
        <ele>828.083</ele>
        <time>2022-08-24T14:13:55Z</time>
      </trkpt>
      <trkpt lat="42.96035999999997" lon="-1.4467699999999963">
        <ele>828.267</ele>
        <time>2022-08-24T14:13:56Z</time>
      </trkpt>
      <trkpt lat="42.96035699999997" lon="-1.4467839999999963">
        <ele>828.216</ele>
        <time>2022-08-24T14:13:57Z</time>
      </trkpt>
      <trkpt lat="42.96035299999998" lon="-1.4467919999999963">
        <ele>828.483</ele>
        <time>2022-08-24T14:13:58Z</time>
      </trkpt>
      <trkpt lat="42.960353999999974" lon="-1.4467959999999962">
        <ele>828.625</ele>
        <time>2022-08-24T14:13:59Z</time>
      </trkpt>
      <trkpt lat="42.96035299999998" lon="-1.446799999999996">
        <ele>828.617</ele>
        <time>2022-08-24T14:14:00Z</time>
      </trkpt>
      <trkpt lat="42.96035299999998" lon="-1.446799999999996">
        <ele>829.209</ele>
        <time>2022-08-24T14:14:49Z</time>
      </trkpt>
      <trkpt lat="42.96034699999998" lon="-1.4468529999999962">
        <ele>829.049</ele>
        <time>2022-08-24T14:14:52Z</time>
      </trkpt>
      <trkpt lat="42.960341999999976" lon="-1.4468849999999962">
        <ele>829.059</ele>
        <time>2022-08-24T14:14:53Z</time>
      </trkpt>
      <trkpt lat="42.96030099999997" lon="-1.4470109999999963">
        <ele>829.089</ele>
        <time>2022-08-24T14:14:56Z</time>
      </trkpt>
      <trkpt lat="42.960271999999975" lon="-1.4470759999999963">
        <ele>828.835</ele>
        <time>2022-08-24T14:14:57Z</time>
      </trkpt>
      <trkpt lat="42.960234999999976" lon="-1.4471499999999962">
        <ele>828.687</ele>
        <time>2022-08-24T14:14:58Z</time>
      </trkpt>
      <trkpt lat="42.96014999999998" lon="-1.4472679999999962">
        <ele>828.264</ele>
        <time>2022-08-24T14:15:00Z</time>
      </trkpt>
      <trkpt lat="42.960088999999975" lon="-1.4473689999999961">
        <ele>828.037</ele>
        <time>2022-08-24T14:15:02Z</time>
      </trkpt>
      <trkpt lat="42.96006299999998" lon="-1.447436999999996">
        <ele>828.031</ele>
        <time>2022-08-24T14:15:03Z</time>
      </trkpt>
      <trkpt lat="42.96003899999997" lon="-1.4474959999999961">
        <ele>828.080</ele>
        <time>2022-08-24T14:15:04Z</time>
      </trkpt>
      <trkpt lat="42.960029999999975" lon="-1.4476119999999961">
        <ele>827.833</ele>
        <time>2022-08-24T14:15:06Z</time>
      </trkpt>
      <trkpt lat="42.960006999999976" lon="-1.447701999999996">
        <ele>827.823</ele>
        <time>2022-08-24T14:15:07Z</time>
      </trkpt>
      <trkpt lat="42.959990999999974" lon="-1.4477789999999962">
        <ele>827.415</ele>
        <time>2022-08-24T14:15:08Z</time>
      </trkpt>
      <trkpt lat="42.95997299999998" lon="-1.447852999999996">
        <ele>827.409</ele>
        <time>2022-08-24T14:15:09Z</time>
      </trkpt>
      <trkpt lat="42.95996699999998" lon="-1.447896999999996">
        <ele>827.294</ele>
        <time>2022-08-24T14:15:10Z</time>
      </trkpt>
      <trkpt lat="42.95995899999998" lon="-1.447948999999996">
        <ele>827.084</ele>
        <time>2022-08-24T14:15:11Z</time>
      </trkpt>
      <trkpt lat="42.95996899999998" lon="-1.447991999999996">
        <ele>826.634</ele>
        <time>2022-08-24T14:15:12Z</time>
      </trkpt>
      <trkpt lat="42.95995499999998" lon="-1.4480499999999958">
        <ele>826.430</ele>
        <time>2022-08-24T14:15:13Z</time>
      </trkpt>
      <trkpt lat="42.959944999999976" lon="-1.4480939999999958">
        <ele>826.492</ele>
        <time>2022-08-24T14:15:14Z</time>
      </trkpt>
      <trkpt lat="42.959931999999974" lon="-1.4482169999999959">
        <ele>826.449</ele>
        <time>2022-08-24T14:15:16Z</time>
      </trkpt>
      <trkpt lat="42.95993599999997" lon="-1.4482739999999958">
        <ele>826.082</ele>
        <time>2022-08-24T14:15:17Z</time>
      </trkpt>
      <trkpt lat="42.959928999999974" lon="-1.4483589999999957">
        <ele>825.696</ele>
        <time>2022-08-24T14:15:18Z</time>
      </trkpt>
      <trkpt lat="42.959900999999974" lon="-1.4484189999999957">
        <ele>825.665</ele>
        <time>2022-08-24T14:15:19Z</time>
      </trkpt>
      <trkpt lat="42.959894999999975" lon="-1.4484699999999957">
        <ele>825.468</ele>
        <time>2022-08-24T14:15:20Z</time>
      </trkpt>
      <trkpt lat="42.959925999999975" lon="-1.4485309999999958">
        <ele>825.442</ele>
        <time>2022-08-24T14:15:21Z</time>
      </trkpt>
      <trkpt lat="42.959959999999974" lon="-1.4485709999999958">
        <ele>825.226</ele>
        <time>2022-08-24T14:15:22Z</time>
      </trkpt>
      <trkpt lat="42.959992999999976" lon="-1.4486019999999957">
        <ele>825.009</ele>
        <time>2022-08-24T14:15:23Z</time>
      </trkpt>
      <trkpt lat="42.96001199999998" lon="-1.4486229999999958">
        <ele>824.857</ele>
        <time>2022-08-24T14:15:24Z</time>
      </trkpt>
      <trkpt lat="42.960029999999975" lon="-1.4486499999999958">
        <ele>824.837</ele>
        <time>2022-08-24T14:15:25Z</time>
      </trkpt>
      <trkpt lat="42.96006199999997" lon="-1.4486919999999959">
        <ele>824.847</ele>
        <time>2022-08-24T14:15:26Z</time>
      </trkpt>
      <trkpt lat="42.96008399999997" lon="-1.448717999999996">
        <ele>824.823</ele>
        <time>2022-08-24T14:15:27Z</time>
      </trkpt>
      <trkpt lat="42.96010099999997" lon="-1.448740999999996">
        <ele>824.845</ele>
        <time>2022-08-24T14:15:28Z</time>
      </trkpt>
      <trkpt lat="42.960105999999975" lon="-1.448762999999996">
        <ele>824.842</ele>
        <time>2022-08-24T14:15:29Z</time>
      </trkpt>
      <trkpt lat="42.960105999999975" lon="-1.448773999999996">
        <ele>824.875</ele>
        <time>2022-08-24T14:15:30Z</time>
      </trkpt>
      <trkpt lat="42.96011499999997" lon="-1.448797999999996">
        <ele>824.869</ele>
        <time>2022-08-24T14:15:31Z</time>
      </trkpt>
      <trkpt lat="42.960128999999974" lon="-1.4488239999999961">
        <ele>825.268</ele>
        <time>2022-08-24T14:15:32Z</time>
      </trkpt>
      <trkpt lat="42.960128999999974" lon="-1.448840999999996">
        <ele>825.292</ele>
        <time>2022-08-24T14:15:33Z</time>
      </trkpt>
      <trkpt lat="42.960125999999974" lon="-1.4488639999999962">
        <ele>825.473</ele>
        <time>2022-08-24T14:15:34Z</time>
      </trkpt>
      <trkpt lat="42.96012099999997" lon="-1.448891999999996">
        <ele>825.420</ele>
        <time>2022-08-24T14:15:35Z</time>
      </trkpt>
      <trkpt lat="42.960116999999975" lon="-1.4489099999999961">
        <ele>825.609</ele>
        <time>2022-08-24T14:15:36Z</time>
      </trkpt>
      <trkpt lat="42.960116999999975" lon="-1.4489309999999962">
        <ele>825.820</ele>
        <time>2022-08-24T14:15:37Z</time>
      </trkpt>
      <trkpt lat="42.96012499999998" lon="-1.4489569999999963">
        <ele>825.860</ele>
        <time>2022-08-24T14:15:38Z</time>
      </trkpt>
      <trkpt lat="42.960128999999974" lon="-1.4489739999999962">
        <ele>826.050</ele>
        <time>2022-08-24T14:15:39Z</time>
      </trkpt>
      <trkpt lat="42.960141999999976" lon="-1.4490809999999963">
        <ele>827.286</ele>
        <time>2022-08-24T14:15:50Z</time>
      </trkpt>
      <trkpt lat="42.96013499999998" lon="-1.4491209999999963">
        <ele>827.438</ele>
        <time>2022-08-24T14:15:52Z</time>
      </trkpt>
      <trkpt lat="42.96014699999998" lon="-1.4491959999999964">
        <ele>827.825</ele>
        <time>2022-08-24T14:15:57Z</time>
      </trkpt>
      <trkpt lat="42.960144999999976" lon="-1.4492199999999964">
        <ele>827.828</ele>
        <time>2022-08-24T14:15:58Z</time>
      </trkpt>
      <trkpt lat="42.960141999999976" lon="-1.4492289999999963">
        <ele>827.832</ele>
        <time>2022-08-24T14:15:59Z</time>
      </trkpt>
      <trkpt lat="42.960141999999976" lon="-1.4492349999999963">
        <ele>828.271</ele>
        <time>2022-08-24T14:16:00Z</time>
      </trkpt>
      <trkpt lat="42.96014099999998" lon="-1.4492519999999962">
        <ele>828.694</ele>
        <time>2022-08-24T14:16:02Z</time>
      </trkpt>
      <trkpt lat="42.96014299999998" lon="-1.449263999999996">
        <ele>828.857</ele>
        <time>2022-08-24T14:16:03Z</time>
      </trkpt>
      <trkpt lat="42.96014599999998" lon="-1.449283999999996">
        <ele>828.822</ele>
        <time>2022-08-24T14:16:05Z</time>
      </trkpt>
      <trkpt lat="42.96014699999998" lon="-1.449287999999996">
        <ele>828.809</ele>
        <time>2022-08-24T14:16:06Z</time>
      </trkpt>
      <trkpt lat="42.960147999999975" lon="-1.449300999999996">
        <ele>829.080</ele>
        <time>2022-08-24T14:16:07Z</time>
      </trkpt>
      <trkpt lat="42.960144999999976" lon="-1.4493129999999959">
        <ele>829.050</ele>
        <time>2022-08-24T14:16:08Z</time>
      </trkpt>
      <trkpt lat="42.960144999999976" lon="-1.4493219999999958">
        <ele>829.040</ele>
        <time>2022-08-24T14:16:09Z</time>
      </trkpt>
      <trkpt lat="42.96014599999997" lon="-1.4493329999999958">
        <ele>829.086</ele>
        <time>2022-08-24T14:16:10Z</time>
      </trkpt>
      <trkpt lat="42.960147999999975" lon="-1.4493439999999957">
        <ele>829.078</ele>
        <time>2022-08-24T14:16:11Z</time>
      </trkpt>
      <trkpt lat="42.96014999999998" lon="-1.4493559999999956">
        <ele>829.275</ele>
        <time>2022-08-24T14:16:12Z</time>
      </trkpt>
      <trkpt lat="42.96015299999998" lon="-1.4493689999999957">
        <ele>829.278</ele>
        <time>2022-08-24T14:16:13Z</time>
      </trkpt>
      <trkpt lat="42.960156999999974" lon="-1.4493839999999958">
        <ele>829.422</ele>
        <time>2022-08-24T14:16:14Z</time>
      </trkpt>
      <trkpt lat="42.96016599999997" lon="-1.4493999999999958">
        <ele>829.451</ele>
        <time>2022-08-24T14:16:15Z</time>
      </trkpt>
      <trkpt lat="42.96017299999997" lon="-1.4494099999999959">
        <ele>829.424</ele>
        <time>2022-08-24T14:16:16Z</time>
      </trkpt>
      <trkpt lat="42.96017799999997" lon="-1.4494219999999958">
        <ele>829.604</ele>
        <time>2022-08-24T14:16:17Z</time>
      </trkpt>
      <trkpt lat="42.96018299999997" lon="-1.4494329999999958">
        <ele>829.614</ele>
        <time>2022-08-24T14:16:18Z</time>
      </trkpt>
      <trkpt lat="42.96018699999997" lon="-1.4494409999999958">
        <ele>829.609</ele>
        <time>2022-08-24T14:16:19Z</time>
      </trkpt>
      <trkpt lat="42.960193999999966" lon="-1.4494539999999958">
        <ele>829.823</ele>
        <time>2022-08-24T14:16:25Z</time>
      </trkpt>
      <trkpt lat="42.96019499999996" lon="-1.4494649999999958">
        <ele>830.053</ele>
        <time>2022-08-24T14:16:26Z</time>
      </trkpt>
      <trkpt lat="42.960204999999966" lon="-1.4494809999999958">
        <ele>830.833</ele>
        <time>2022-08-24T14:16:30Z</time>
      </trkpt>
      <trkpt lat="42.960204999999966" lon="-1.4494809999999958">
        <ele>830.869</ele>
        <time>2022-08-24T14:16:31Z</time>
      </trkpt>
      <trkpt lat="42.960205999999964" lon="-1.4494929999999957">
        <ele>830.891</ele>
        <time>2022-08-24T14:16:32Z</time>
      </trkpt>
      <trkpt lat="42.960207999999966" lon="-1.4495039999999957">
        <ele>830.828</ele>
        <time>2022-08-24T14:16:33Z</time>
      </trkpt>
      <trkpt lat="42.96020999999997" lon="-1.4495169999999957">
        <ele>831.021</ele>
        <time>2022-08-24T14:16:34Z</time>
      </trkpt>
      <trkpt lat="42.96022299999997" lon="-1.4495589999999958">
        <ele>831.045</ele>
        <time>2022-08-24T14:16:36Z</time>
      </trkpt>
      <trkpt lat="42.96023399999997" lon="-1.4496069999999959">
        <ele>831.224</ele>
        <time>2022-08-24T14:16:39Z</time>
      </trkpt>
      <trkpt lat="42.960232999999974" lon="-1.4496419999999959">
        <ele>831.445</ele>
        <time>2022-08-24T14:16:42Z</time>
      </trkpt>
      <trkpt lat="42.960229999999974" lon="-1.449662999999996">
        <ele>831.447</ele>
        <time>2022-08-24T14:16:43Z</time>
      </trkpt>
      <trkpt lat="42.96022899999998" lon="-1.449667999999996">
        <ele>831.611</ele>
        <time>2022-08-24T14:16:44Z</time>
      </trkpt>
      <trkpt lat="42.960231999999976" lon="-1.449682999999996">
        <ele>831.609</ele>
        <time>2022-08-24T14:16:45Z</time>
      </trkpt>
      <trkpt lat="42.96024299999998" lon="-1.449714999999996">
        <ele>831.815</ele>
        <time>2022-08-24T14:16:46Z</time>
      </trkpt>
      <trkpt lat="42.960246999999974" lon="-1.4497299999999962">
        <ele>831.855</ele>
        <time>2022-08-24T14:16:47Z</time>
      </trkpt>
      <trkpt lat="42.960248999999976" lon="-1.449733999999996">
        <ele>832.055</ele>
        <time>2022-08-24T14:16:48Z</time>
      </trkpt>
      <trkpt lat="42.96025099999998" lon="-1.449752999999996">
        <ele>832.011</ele>
        <time>2022-08-24T14:16:49Z</time>
      </trkpt>
      <trkpt lat="42.960257999999975" lon="-1.449776999999996">
        <ele>832.023</ele>
        <time>2022-08-24T14:16:51Z</time>
      </trkpt>
      <trkpt lat="42.96025999999998" lon="-1.449780999999996">
        <ele>832.070</ele>
        <time>2022-08-24T14:16:52Z</time>
      </trkpt>
      <trkpt lat="42.96027099999998" lon="-1.449803999999996">
        <ele>832.263</ele>
        <time>2022-08-24T14:16:53Z</time>
      </trkpt>
      <trkpt lat="42.96028399999998" lon="-1.449822999999996">
        <ele>832.257</ele>
        <time>2022-08-24T14:16:54Z</time>
      </trkpt>
      <trkpt lat="42.96028599999998" lon="-1.449833999999996">
        <ele>832.236</ele>
        <time>2022-08-24T14:16:55Z</time>
      </trkpt>
      <trkpt lat="42.96029399999998" lon="-1.449852999999996">
        <ele>832.464</ele>
        <time>2022-08-24T14:16:56Z</time>
      </trkpt>
      <trkpt lat="42.96029499999998" lon="-1.449869999999996">
        <ele>832.406</ele>
        <time>2022-08-24T14:16:57Z</time>
      </trkpt>
      <trkpt lat="42.96030199999998" lon="-1.449894999999996">
        <ele>832.616</ele>
        <time>2022-08-24T14:16:58Z</time>
      </trkpt>
      <trkpt lat="42.96031799999998" lon="-1.4499309999999959">
        <ele>833.009</ele>
        <time>2022-08-24T14:17:02Z</time>
      </trkpt>
      <trkpt lat="42.96032899999998" lon="-1.4499479999999958">
        <ele>833.217</ele>
        <time>2022-08-24T14:17:03Z</time>
      </trkpt>
      <trkpt lat="42.96032999999998" lon="-1.4499499999999959">
        <ele>833.277</ele>
        <time>2022-08-24T14:17:04Z</time>
      </trkpt>
      <trkpt lat="42.960330999999975" lon="-1.4499549999999959">
        <ele>833.677</ele>
        <time>2022-08-24T14:17:06Z</time>
      </trkpt>
      <trkpt lat="42.960330999999975" lon="-1.449959999999996">
        <ele>833.663</ele>
        <time>2022-08-24T14:17:07Z</time>
      </trkpt>
      <trkpt lat="42.960330999999975" lon="-1.449959999999996">
        <ele>833.655</ele>
        <time>2022-08-24T14:17:08Z</time>
      </trkpt>
      <trkpt lat="42.96033299999998" lon="-1.449967999999996">
        <ele>833.812</ele>
        <time>2022-08-24T14:17:24Z</time>
      </trkpt>
      <trkpt lat="42.960333999999975" lon="-1.4499689999999958">
        <ele>833.875</ele>
        <time>2022-08-24T14:17:25Z</time>
      </trkpt>
      <trkpt lat="42.96034599999997" lon="-1.4500089999999959">
        <ele>833.869</ele>
        <time>2022-08-24T14:17:27Z</time>
      </trkpt>
      <trkpt lat="42.96042199999997" lon="-1.450132999999996">
        <ele>833.828</ele>
        <time>2022-08-24T14:17:31Z</time>
      </trkpt>
      <trkpt lat="42.96045599999997" lon="-1.4501719999999958">
        <ele>833.692</ele>
        <time>2022-08-24T14:17:32Z</time>
      </trkpt>
      <trkpt lat="42.960485999999975" lon="-1.4501989999999958">
        <ele>833.673</ele>
        <time>2022-08-24T14:17:33Z</time>
      </trkpt>
      <trkpt lat="42.960513999999975" lon="-1.4502289999999958">
        <ele>833.620</ele>
        <time>2022-08-24T14:17:34Z</time>
      </trkpt>
      <trkpt lat="42.960536999999974" lon="-1.4502519999999959">
        <ele>833.609</ele>
        <time>2022-08-24T14:17:35Z</time>
      </trkpt>
      <trkpt lat="42.96059399999997" lon="-1.4502909999999958">
        <ele>833.650</ele>
        <time>2022-08-24T14:17:37Z</time>
      </trkpt>
      <trkpt lat="42.960651999999975" lon="-1.4503249999999959">
        <ele>833.680</ele>
        <time>2022-08-24T14:17:39Z</time>
      </trkpt>
      <trkpt lat="42.960676999999976" lon="-1.450331999999996">
        <ele>833.880</ele>
        <time>2022-08-24T14:17:40Z</time>
      </trkpt>
      <trkpt lat="42.96069299999998" lon="-1.4503329999999959">
        <ele>833.846</ele>
        <time>2022-08-24T14:17:41Z</time>
      </trkpt>
      <trkpt lat="42.96072099999998" lon="-1.450348999999996">
        <ele>833.888</ele>
        <time>2022-08-24T14:17:42Z</time>
      </trkpt>
      <trkpt lat="42.96080799999998" lon="-1.4504229999999958">
        <ele>833.855</ele>
        <time>2022-08-24T14:17:45Z</time>
      </trkpt>
      <trkpt lat="42.96083599999998" lon="-1.4504339999999958">
        <ele>833.838</ele>
        <time>2022-08-24T14:17:46Z</time>
      </trkpt>
      <trkpt lat="42.96085499999998" lon="-1.4504399999999957">
        <ele>833.832</ele>
        <time>2022-08-24T14:17:47Z</time>
      </trkpt>
      <trkpt lat="42.96087499999998" lon="-1.4504479999999957">
        <ele>833.851</ele>
        <time>2022-08-24T14:17:48Z</time>
      </trkpt>
      <trkpt lat="42.96089499999998" lon="-1.4504529999999958">
        <ele>833.854</ele>
        <time>2022-08-24T14:17:49Z</time>
      </trkpt>
      <trkpt lat="42.96090999999998" lon="-1.4504459999999957">
        <ele>833.856</ele>
        <time>2022-08-24T14:17:50Z</time>
      </trkpt>
      <trkpt lat="42.96093399999998" lon="-1.4504509999999957">
        <ele>834.011</ele>
        <time>2022-08-24T14:17:51Z</time>
      </trkpt>
      <trkpt lat="42.96099999999998" lon="-1.4504859999999957">
        <ele>834.009</ele>
        <time>2022-08-24T14:17:53Z</time>
      </trkpt>
      <trkpt lat="42.96102799999998" lon="-1.4505169999999956">
        <ele>834.066</ele>
        <time>2022-08-24T14:17:54Z</time>
      </trkpt>
      <trkpt lat="42.96104499999998" lon="-1.4505479999999955">
        <ele>834.246</ele>
        <time>2022-08-24T14:17:55Z</time>
      </trkpt>
      <trkpt lat="42.961067999999976" lon="-1.4505799999999955">
        <ele>834.266</ele>
        <time>2022-08-24T14:17:56Z</time>
      </trkpt>
      <trkpt lat="42.96108899999997" lon="-1.4506059999999956">
        <ele>834.462</ele>
        <time>2022-08-24T14:17:57Z</time>
      </trkpt>
      <trkpt lat="42.961107999999975" lon="-1.4506319999999957">
        <ele>834.424</ele>
        <time>2022-08-24T14:17:58Z</time>
      </trkpt>
      <trkpt lat="42.96114299999997" lon="-1.4506929999999958">
        <ele>834.461</ele>
        <time>2022-08-24T14:18:00Z</time>
      </trkpt>
      <trkpt lat="42.96115499999997" lon="-1.4507139999999958">
        <ele>834.664</ele>
        <time>2022-08-24T14:18:01Z</time>
      </trkpt>
      <trkpt lat="42.96116499999997" lon="-1.4507349999999959">
        <ele>834.648</ele>
        <time>2022-08-24T14:18:02Z</time>
      </trkpt>
      <trkpt lat="42.96117699999997" lon="-1.4507599999999958">
        <ele>834.897</ele>
        <time>2022-08-24T14:18:03Z</time>
      </trkpt>
      <trkpt lat="42.96118899999997" lon="-1.4507769999999958">
        <ele>835.082</ele>
        <time>2022-08-24T14:18:04Z</time>
      </trkpt>
      <trkpt lat="42.96120099999997" lon="-1.4507939999999957">
        <ele>835.043</ele>
        <time>2022-08-24T14:18:05Z</time>
      </trkpt>
      <trkpt lat="42.96121099999997" lon="-1.4508119999999958">
        <ele>835.217</ele>
        <time>2022-08-24T14:18:06Z</time>
      </trkpt>
      <trkpt lat="42.96122099999997" lon="-1.4508289999999957">
        <ele>835.409</ele>
        <time>2022-08-24T14:18:07Z</time>
      </trkpt>
      <trkpt lat="42.961228999999975" lon="-1.4508439999999958">
        <ele>835.499</ele>
        <time>2022-08-24T14:18:08Z</time>
      </trkpt>
      <trkpt lat="42.96123899999998" lon="-1.4508619999999959">
        <ele>835.859</ele>
        <time>2022-08-24T14:18:09Z</time>
      </trkpt>
      <trkpt lat="42.961245999999974" lon="-1.450877999999996">
        <ele>835.869</ele>
        <time>2022-08-24T14:18:10Z</time>
      </trkpt>
      <trkpt lat="42.96125499999997" lon="-1.4508889999999959">
        <ele>836.035</ele>
        <time>2022-08-24T14:18:11Z</time>
      </trkpt>
      <trkpt lat="42.96128099999997" lon="-1.450958999999996">
        <ele>836.647</ele>
        <time>2022-08-24T14:18:15Z</time>
      </trkpt>
      <trkpt lat="42.96128499999997" lon="-1.450984999999996">
        <ele>836.894</ele>
        <time>2022-08-24T14:18:16Z</time>
      </trkpt>
      <trkpt lat="42.961291999999965" lon="-1.451008999999996">
        <ele>837.047</ele>
        <time>2022-08-24T14:18:17Z</time>
      </trkpt>
      <trkpt lat="42.961297999999964" lon="-1.451053999999996">
        <ele>837.231</ele>
        <time>2022-08-24T14:18:19Z</time>
      </trkpt>
      <trkpt lat="42.96130199999996" lon="-1.4510769999999962">
        <ele>837.230</ele>
        <time>2022-08-24T14:18:20Z</time>
      </trkpt>
      <trkpt lat="42.96130799999996" lon="-1.4510989999999961">
        <ele>837.494</ele>
        <time>2022-08-24T14:18:21Z</time>
      </trkpt>
      <trkpt lat="42.96131299999996" lon="-1.4511199999999962">
        <ele>837.657</ele>
        <time>2022-08-24T14:18:22Z</time>
      </trkpt>
      <trkpt lat="42.96131399999996" lon="-1.4511419999999962">
        <ele>837.622</ele>
        <time>2022-08-24T14:18:23Z</time>
      </trkpt>
      <trkpt lat="42.96131299999996" lon="-1.451161999999996">
        <ele>838.009</ele>
        <time>2022-08-24T14:18:24Z</time>
      </trkpt>
      <trkpt lat="42.96130799999996" lon="-1.451186999999996">
        <ele>838.270</ele>
        <time>2022-08-24T14:18:25Z</time>
      </trkpt>
      <trkpt lat="42.961314999999956" lon="-1.451213999999996">
        <ele>838.450</ele>
        <time>2022-08-24T14:18:26Z</time>
      </trkpt>
      <trkpt lat="42.96131999999996" lon="-1.451238999999996">
        <ele>838.660</ele>
        <time>2022-08-24T14:18:27Z</time>
      </trkpt>
      <trkpt lat="42.96131899999996" lon="-1.451262999999996">
        <ele>838.826</ele>
        <time>2022-08-24T14:18:28Z</time>
      </trkpt>
      <trkpt lat="42.96132099999996" lon="-1.451286999999996">
        <ele>839.028</ele>
        <time>2022-08-24T14:18:29Z</time>
      </trkpt>
      <trkpt lat="42.96132399999996" lon="-1.451313999999996">
        <ele>839.035</ele>
        <time>2022-08-24T14:18:30Z</time>
      </trkpt>
      <trkpt lat="42.96132799999996" lon="-1.451339999999996">
        <ele>839.258</ele>
        <time>2022-08-24T14:18:31Z</time>
      </trkpt>
      <trkpt lat="42.96132999999996" lon="-1.451359999999996">
        <ele>839.252</ele>
        <time>2022-08-24T14:18:32Z</time>
      </trkpt>
      <trkpt lat="42.96133499999996" lon="-1.451376999999996">
        <ele>839.661</ele>
        <time>2022-08-24T14:18:33Z</time>
      </trkpt>
      <trkpt lat="42.96134099999996" lon="-1.451397999999996">
        <ele>839.694</ele>
        <time>2022-08-24T14:18:34Z</time>
      </trkpt>
      <trkpt lat="42.96134499999996" lon="-1.451421999999996">
        <ele>839.857</ele>
        <time>2022-08-24T14:18:35Z</time>
      </trkpt>
      <trkpt lat="42.96134499999996" lon="-1.451443999999996">
        <ele>839.822</ele>
        <time>2022-08-24T14:18:36Z</time>
      </trkpt>
      <trkpt lat="42.96134499999996" lon="-1.451467999999996">
        <ele>839.809</ele>
        <time>2022-08-24T14:18:37Z</time>
      </trkpt>
      <trkpt lat="42.96134399999996" lon="-1.451489999999996">
        <ele>840.060</ele>
        <time>2022-08-24T14:18:38Z</time>
      </trkpt>
      <trkpt lat="42.96134499999996" lon="-1.451507999999996">
        <ele>840.020</ele>
        <time>2022-08-24T14:18:39Z</time>
      </trkpt>
      <trkpt lat="42.96134499999996" lon="-1.451526999999996">
        <ele>840.060</ele>
        <time>2022-08-24T14:18:40Z</time>
      </trkpt>
      <trkpt lat="42.96134199999996" lon="-1.451552999999996">
        <ele>840.046</ele>
        <time>2022-08-24T14:18:41Z</time>
      </trkpt>
      <trkpt lat="42.96133999999996" lon="-1.451583999999996">
        <ele>840.068</ele>
        <time>2022-08-24T14:18:42Z</time>
      </trkpt>
      <trkpt lat="42.96133699999996" lon="-1.451608999999996">
        <ele>840.225</ele>
        <time>2022-08-24T14:18:43Z</time>
      </trkpt>
      <trkpt lat="42.96132599999996" lon="-1.451635999999996">
        <ele>840.288</ele>
        <time>2022-08-24T14:18:44Z</time>
      </trkpt>
      <trkpt lat="42.961315999999954" lon="-1.451662999999996">
        <ele>840.252</ele>
        <time>2022-08-24T14:18:45Z</time>
      </trkpt>
      <trkpt lat="42.961312999999954" lon="-1.451696999999996">
        <ele>840.211</ele>
        <time>2022-08-24T14:18:46Z</time>
      </trkpt>
      <trkpt lat="42.961300999999956" lon="-1.451729999999996">
        <ele>840.474</ele>
        <time>2022-08-24T14:18:47Z</time>
      </trkpt>
      <trkpt lat="42.96129199999996" lon="-1.4517609999999959">
        <ele>840.456</ele>
        <time>2022-08-24T14:18:48Z</time>
      </trkpt>
      <trkpt lat="42.961275999999955" lon="-1.451792999999996">
        <ele>840.421</ele>
        <time>2022-08-24T14:18:49Z</time>
      </trkpt>
      <trkpt lat="42.96126599999995" lon="-1.451824999999996">
        <ele>840.409</ele>
        <time>2022-08-24T14:18:50Z</time>
      </trkpt>
      <trkpt lat="42.96125599999995" lon="-1.4518609999999958">
        <ele>840.448</ele>
        <time>2022-08-24T14:18:51Z</time>
      </trkpt>
      <trkpt lat="42.961245999999946" lon="-1.4518919999999957">
        <ele>840.488</ele>
        <time>2022-08-24T14:18:52Z</time>
      </trkpt>
      <trkpt lat="42.961198999999944" lon="-1.4519819999999957">
        <ele>840.418</ele>
        <time>2022-08-24T14:18:55Z</time>
      </trkpt>
      <trkpt lat="42.961124999999946" lon="-1.4520829999999956">
        <ele>840.224</ele>
        <time>2022-08-24T14:18:59Z</time>
      </trkpt>
      <trkpt lat="42.961102999999945" lon="-1.4521329999999957">
        <ele>840.236</ele>
        <time>2022-08-24T14:19:00Z</time>
      </trkpt>
      <trkpt lat="42.96108799999995" lon="-1.4521649999999957">
        <ele>840.243</ele>
        <time>2022-08-24T14:19:01Z</time>
      </trkpt>
      <trkpt lat="42.96107099999995" lon="-1.4521929999999956">
        <ele>840.266</ele>
        <time>2022-08-24T14:19:02Z</time>
      </trkpt>
      <trkpt lat="42.961054999999945" lon="-1.4522209999999955">
        <ele>840.210</ele>
        <time>2022-08-24T14:19:03Z</time>
      </trkpt>
      <trkpt lat="42.961031999999946" lon="-1.4522479999999955">
        <ele>840.299</ele>
        <time>2022-08-24T14:19:04Z</time>
      </trkpt>
      <trkpt lat="42.96093599999995" lon="-1.4523689999999956">
        <ele>840.017</ele>
        <time>2022-08-24T14:19:08Z</time>
      </trkpt>
      <trkpt lat="42.96091499999995" lon="-1.4523979999999956">
        <ele>840.087</ele>
        <time>2022-08-24T14:19:09Z</time>
      </trkpt>
      <trkpt lat="42.96089799999995" lon="-1.4524179999999955">
        <ele>840.015</ele>
        <time>2022-08-24T14:19:10Z</time>
      </trkpt>
      <trkpt lat="42.96088599999995" lon="-1.4524389999999956">
        <ele>839.809</ele>
        <time>2022-08-24T14:19:11Z</time>
      </trkpt>
      <trkpt lat="42.96087599999995" lon="-1.4524559999999955">
        <ele>839.872</ele>
        <time>2022-08-24T14:19:12Z</time>
      </trkpt>
      <trkpt lat="42.96086299999995" lon="-1.4524699999999955">
        <ele>839.682</ele>
        <time>2022-08-24T14:19:13Z</time>
      </trkpt>
      <trkpt lat="42.960848999999946" lon="-1.4524809999999955">
        <ele>839.652</ele>
        <time>2022-08-24T14:19:14Z</time>
      </trkpt>
      <trkpt lat="42.96083399999995" lon="-1.4524929999999954">
        <ele>839.618</ele>
        <time>2022-08-24T14:19:15Z</time>
      </trkpt>
      <trkpt lat="42.96076299999995" lon="-1.4525329999999954">
        <ele>839.460</ele>
        <time>2022-08-24T14:19:18Z</time>
      </trkpt>
      <trkpt lat="42.96070199999995" lon="-1.4525499999999953">
        <ele>839.037</ele>
        <time>2022-08-24T14:19:20Z</time>
      </trkpt>
      <trkpt lat="42.96054399999995" lon="-1.4525679999999954">
        <ele>838.080</ele>
        <time>2022-08-24T14:19:24Z</time>
      </trkpt>
      <trkpt lat="42.96050899999995" lon="-1.4525779999999955">
        <ele>837.424</ele>
        <time>2022-08-24T14:19:25Z</time>
      </trkpt>
      <trkpt lat="42.96047199999995" lon="-1.4525979999999954">
        <ele>837.283</ele>
        <time>2022-08-24T14:19:26Z</time>
      </trkpt>
      <trkpt lat="42.96042999999995" lon="-1.4526219999999954">
        <ele>837.053</ele>
        <time>2022-08-24T14:19:27Z</time>
      </trkpt>
      <trkpt lat="42.960392999999954" lon="-1.4526419999999953">
        <ele>836.404</ele>
        <time>2022-08-24T14:19:28Z</time>
      </trkpt>
      <trkpt lat="42.960366999999955" lon="-1.4526539999999952">
        <ele>836.214</ele>
        <time>2022-08-24T14:19:29Z</time>
      </trkpt>
      <trkpt lat="42.96034099999996" lon="-1.4526659999999951">
        <ele>835.609</ele>
        <time>2022-08-24T14:19:30Z</time>
      </trkpt>
      <trkpt lat="42.96031999999996" lon="-1.4526789999999952">
        <ele>835.426</ele>
        <time>2022-08-24T14:19:31Z</time>
      </trkpt>
      <trkpt lat="42.96029799999996" lon="-1.4526889999999952">
        <ele>834.876</ele>
        <time>2022-08-24T14:19:32Z</time>
      </trkpt>
      <trkpt lat="42.96026999999996" lon="-1.4527049999999953">
        <ele>834.496</ele>
        <time>2022-08-24T14:19:33Z</time>
      </trkpt>
      <trkpt lat="42.96014399999996" lon="-1.4527589999999952">
        <ele>834.092</ele>
        <time>2022-08-24T14:19:36Z</time>
      </trkpt>
      <trkpt lat="42.96011599999996" lon="-1.4527559999999953">
        <ele>834.024</ele>
        <time>2022-08-24T14:19:37Z</time>
      </trkpt>
      <trkpt lat="42.960043999999954" lon="-1.4527529999999953">
        <ele>833.431</ele>
        <time>2022-08-24T14:19:39Z</time>
      </trkpt>
      <trkpt lat="42.95997799999996" lon="-1.4527569999999952">
        <ele>833.014</ele>
        <time>2022-08-24T14:19:41Z</time>
      </trkpt>
      <trkpt lat="42.95994399999996" lon="-1.4527749999999953">
        <ele>832.488</ele>
        <time>2022-08-24T14:19:42Z</time>
      </trkpt>
      <trkpt lat="42.95991799999996" lon="-1.4527809999999952">
        <ele>832.217</ele>
        <time>2022-08-24T14:19:43Z</time>
      </trkpt>
      <trkpt lat="42.95988899999996" lon="-1.4527809999999952">
        <ele>831.644</ele>
        <time>2022-08-24T14:19:44Z</time>
      </trkpt>
      <trkpt lat="42.95977399999996" lon="-1.4527709999999951">
        <ele>831.205</ele>
        <time>2022-08-24T14:19:47Z</time>
      </trkpt>
      <trkpt lat="42.95973199999996" lon="-1.452774999999995">
        <ele>831.015</ele>
        <time>2022-08-24T14:19:48Z</time>
      </trkpt>
      <trkpt lat="42.95969899999996" lon="-1.452780999999995">
        <ele>830.809</ele>
        <time>2022-08-24T14:19:49Z</time>
      </trkpt>
      <trkpt lat="42.959654999999955" lon="-1.452786999999995">
        <ele>830.625</ele>
        <time>2022-08-24T14:19:50Z</time>
      </trkpt>
      <trkpt lat="42.959609999999955" lon="-1.452796999999995">
        <ele>830.465</ele>
        <time>2022-08-24T14:19:51Z</time>
      </trkpt>
      <trkpt lat="42.95957199999995" lon="-1.452796999999995">
        <ele>830.035</ele>
        <time>2022-08-24T14:19:52Z</time>
      </trkpt>
      <trkpt lat="42.959446999999955" lon="-1.452754999999995">
        <ele>828.861</ele>
        <time>2022-08-24T14:19:56Z</time>
      </trkpt>
      <trkpt lat="42.959415999999955" lon="-1.452759999999995">
        <ele>828.833</ele>
        <time>2022-08-24T14:19:57Z</time>
      </trkpt>
      <trkpt lat="42.959389999999956" lon="-1.452772999999995">
        <ele>828.840</ele>
        <time>2022-08-24T14:19:58Z</time>
      </trkpt>
      <trkpt lat="42.95934699999996" lon="-1.452810999999995">
        <ele>828.663</ele>
        <time>2022-08-24T14:19:59Z</time>
      </trkpt>
      <trkpt lat="42.95928399999996" lon="-1.452810999999995">
        <ele>828.417</ele>
        <time>2022-08-24T14:20:00Z</time>
      </trkpt>
      <trkpt lat="42.95923399999996" lon="-1.452827999999995">
        <ele>828.276</ele>
        <time>2022-08-24T14:20:01Z</time>
      </trkpt>
      <trkpt lat="42.95914599999996" lon="-1.452845999999995">
        <ele>828.022</ele>
        <time>2022-08-24T14:20:03Z</time>
      </trkpt>
      <trkpt lat="42.95910899999996" lon="-1.452842999999995">
        <ele>827.862</ele>
        <time>2022-08-24T14:20:04Z</time>
      </trkpt>
      <trkpt lat="42.959068999999964" lon="-1.452856999999995">
        <ele>827.808</ele>
        <time>2022-08-24T14:20:05Z</time>
      </trkpt>
      <trkpt lat="42.95895099999996" lon="-1.452908999999995">
        <ele>827.409</ele>
        <time>2022-08-24T14:20:08Z</time>
      </trkpt>
      <trkpt lat="42.958885999999964" lon="-1.4529849999999949">
        <ele>827.083</ele>
        <time>2022-08-24T14:20:10Z</time>
      </trkpt>
      <trkpt lat="42.95885599999996" lon="-1.453016999999995">
        <ele>827.033</ele>
        <time>2022-08-24T14:20:11Z</time>
      </trkpt>
      <trkpt lat="42.95879399999996" lon="-1.453094999999995">
        <ele>827.043</ele>
        <time>2022-08-24T14:20:13Z</time>
      </trkpt>
      <trkpt lat="42.958716999999965" lon="-1.453226999999995">
        <ele>827.069</ele>
        <time>2022-08-24T14:20:16Z</time>
      </trkpt>
      <trkpt lat="42.95868799999997" lon="-1.453266999999995">
        <ele>827.091</ele>
        <time>2022-08-24T14:20:17Z</time>
      </trkpt>
      <trkpt lat="42.958662999999966" lon="-1.453307999999995">
        <ele>827.028</ele>
        <time>2022-08-24T14:20:18Z</time>
      </trkpt>
      <trkpt lat="42.95862499999996" lon="-1.4533819999999948">
        <ele>827.091</ele>
        <time>2022-08-24T14:20:20Z</time>
      </trkpt>
      <trkpt lat="42.95862299999996" lon="-1.4534229999999948">
        <ele>827.085</ele>
        <time>2022-08-24T14:20:21Z</time>
      </trkpt>
      <trkpt lat="42.95862299999996" lon="-1.4534629999999948">
        <ele>827.044</ele>
        <time>2022-08-24T14:20:22Z</time>
      </trkpt>
      <trkpt lat="42.95862099999996" lon="-1.4535099999999948">
        <ele>827.256</ele>
        <time>2022-08-24T14:20:23Z</time>
      </trkpt>
      <trkpt lat="42.95861499999996" lon="-1.4535569999999947">
        <ele>827.259</ele>
        <time>2022-08-24T14:20:24Z</time>
      </trkpt>
      <trkpt lat="42.95862099999996" lon="-1.4535959999999946">
        <ele>827.414</ele>
        <time>2022-08-24T14:20:25Z</time>
      </trkpt>
      <trkpt lat="42.958624999999955" lon="-1.4536369999999945">
        <ele>827.409</ele>
        <time>2022-08-24T14:20:26Z</time>
      </trkpt>
      <trkpt lat="42.958624999999955" lon="-1.4536749999999945">
        <ele>827.616</ele>
        <time>2022-08-24T14:20:27Z</time>
      </trkpt>
      <trkpt lat="42.958624999999955" lon="-1.4537049999999945">
        <ele>827.626</ele>
        <time>2022-08-24T14:20:28Z</time>
      </trkpt>
      <trkpt lat="42.95862899999995" lon="-1.4537329999999944">
        <ele>827.886</ele>
        <time>2022-08-24T14:20:29Z</time>
      </trkpt>
      <trkpt lat="42.958627999999955" lon="-1.4537669999999945">
        <ele>828.022</ele>
        <time>2022-08-24T14:20:30Z</time>
      </trkpt>
      <trkpt lat="42.95862699999996" lon="-1.4538179999999945">
        <ele>828.294</ele>
        <time>2022-08-24T14:20:32Z</time>
      </trkpt>
      <trkpt lat="42.95862999999996" lon="-1.4538479999999945">
        <ele>828.441</ele>
        <time>2022-08-24T14:20:33Z</time>
      </trkpt>
      <trkpt lat="42.958635999999956" lon="-1.4538769999999945">
        <ele>828.434</ele>
        <time>2022-08-24T14:20:34Z</time>
      </trkpt>
      <trkpt lat="42.95864299999995" lon="-1.4539109999999946">
        <ele>828.458</ele>
        <time>2022-08-24T14:20:35Z</time>
      </trkpt>
      <trkpt lat="42.95865399999995" lon="-1.4539409999999946">
        <ele>828.487</ele>
        <time>2022-08-24T14:20:36Z</time>
      </trkpt>
      <trkpt lat="42.958655999999955" lon="-1.4539699999999947">
        <ele>828.685</ele>
        <time>2022-08-24T14:20:37Z</time>
      </trkpt>
      <trkpt lat="42.95865699999995" lon="-1.4540059999999946">
        <ele>828.889</ele>
        <time>2022-08-24T14:20:38Z</time>
      </trkpt>
      <trkpt lat="42.95866899999995" lon="-1.4540599999999946">
        <ele>828.817</ele>
        <time>2022-08-24T14:20:39Z</time>
      </trkpt>
      <trkpt lat="42.95866599999995" lon="-1.4540909999999945">
        <ele>828.809</ele>
        <time>2022-08-24T14:20:40Z</time>
      </trkpt>
      <trkpt lat="42.95866899999995" lon="-1.4541209999999944">
        <ele>829.039</ele>
        <time>2022-08-24T14:20:41Z</time>
      </trkpt>
      <trkpt lat="42.958678999999954" lon="-1.4541619999999944">
        <ele>829.469</ele>
        <time>2022-08-24T14:20:42Z</time>
      </trkpt>
      <trkpt lat="42.958680999999956" lon="-1.4541859999999944">
        <ele>829.639</ele>
        <time>2022-08-24T14:20:43Z</time>
      </trkpt>
      <trkpt lat="42.958683999999955" lon="-1.4542139999999943">
        <ele>829.875</ele>
        <time>2022-08-24T14:20:44Z</time>
      </trkpt>
      <trkpt lat="42.95869199999996" lon="-1.4542519999999943">
        <ele>830.087</ele>
        <time>2022-08-24T14:20:45Z</time>
      </trkpt>
      <trkpt lat="42.95870499999996" lon="-1.4542849999999943">
        <ele>830.274</ele>
        <time>2022-08-24T14:20:46Z</time>
      </trkpt>
      <trkpt lat="42.95873399999996" lon="-1.4543219999999943">
        <ele>830.437</ele>
        <time>2022-08-24T14:20:47Z</time>
      </trkpt>
      <trkpt lat="42.95875799999996" lon="-1.4543569999999943">
        <ele>830.421</ele>
        <time>2022-08-24T14:20:48Z</time>
      </trkpt>
      <trkpt lat="42.95876599999996" lon="-1.4543929999999943">
        <ele>830.610</ele>
        <time>2022-08-24T14:20:49Z</time>
      </trkpt>
      <trkpt lat="42.958761999999965" lon="-1.4544369999999942">
        <ele>830.658</ele>
        <time>2022-08-24T14:20:50Z</time>
      </trkpt>
      <trkpt lat="42.958766999999966" lon="-1.4544779999999942">
        <ele>830.652</ele>
        <time>2022-08-24T14:20:51Z</time>
      </trkpt>
      <trkpt lat="42.958761999999965" lon="-1.4545199999999943">
        <ele>830.817</ele>
        <time>2022-08-24T14:20:52Z</time>
      </trkpt>
      <trkpt lat="42.958769999999966" lon="-1.4545669999999942">
        <ele>830.809</ele>
        <time>2022-08-24T14:20:53Z</time>
      </trkpt>
      <trkpt lat="42.95877399999996" lon="-1.4546159999999941">
        <ele>830.856</ele>
        <time>2022-08-24T14:20:54Z</time>
      </trkpt>
      <trkpt lat="42.958781999999964" lon="-1.454654999999994">
        <ele>830.836</ele>
        <time>2022-08-24T14:20:55Z</time>
      </trkpt>
      <trkpt lat="42.95879099999996" lon="-1.4546889999999941">
        <ele>830.646</ele>
        <time>2022-08-24T14:20:56Z</time>
      </trkpt>
      <trkpt lat="42.95879899999996" lon="-1.454716999999994">
        <ele>830.632</ele>
        <time>2022-08-24T14:20:57Z</time>
      </trkpt>
      <trkpt lat="42.958795999999964" lon="-1.454755999999994">
        <ele>830.414</ele>
        <time>2022-08-24T14:20:58Z</time>
      </trkpt>
      <trkpt lat="42.958780999999966" lon="-1.454801999999994">
        <ele>830.421</ele>
        <time>2022-08-24T14:20:59Z</time>
      </trkpt>
      <trkpt lat="42.958775999999965" lon="-1.454824999999994">
        <ele>830.254</ele>
        <time>2022-08-24T14:21:00Z</time>
      </trkpt>
      <trkpt lat="42.95877999999996" lon="-1.454852999999994">
        <ele>830.058</ele>
        <time>2022-08-24T14:21:01Z</time>
      </trkpt>
      <trkpt lat="42.95877099999996" lon="-1.454882999999994">
        <ele>830.087</ele>
        <time>2022-08-24T14:21:02Z</time>
      </trkpt>
      <trkpt lat="42.958747999999964" lon="-1.454914999999994">
        <ele>829.869</ele>
        <time>2022-08-24T14:21:03Z</time>
      </trkpt>
      <trkpt lat="42.95871799999996" lon="-1.454948999999994">
        <ele>829.604</ele>
        <time>2022-08-24T14:21:04Z</time>
      </trkpt>
      <trkpt lat="42.95869599999996" lon="-1.454972999999994">
        <ele>829.024</ele>
        <time>2022-08-24T14:21:05Z</time>
      </trkpt>
      <trkpt lat="42.95867299999996" lon="-1.4549939999999941">
        <ele>828.609</ele>
        <time>2022-08-24T14:21:06Z</time>
      </trkpt>
      <trkpt lat="42.95864899999996" lon="-1.4549959999999942">
        <ele>828.617</ele>
        <time>2022-08-24T14:21:07Z</time>
      </trkpt>
      <trkpt lat="42.95862699999996" lon="-1.4549939999999941">
        <ele>828.487</ele>
        <time>2022-08-24T14:21:08Z</time>
      </trkpt>
      <trkpt lat="42.95860899999996" lon="-1.454996999999994">
        <ele>828.437</ele>
        <time>2022-08-24T14:21:09Z</time>
      </trkpt>
      <trkpt lat="42.95859399999996" lon="-1.4549939999999941">
        <ele>828.243</ele>
        <time>2022-08-24T14:21:10Z</time>
      </trkpt>
      <trkpt lat="42.95854599999996" lon="-1.4549529999999942">
        <ele>827.885</ele>
        <time>2022-08-24T14:21:12Z</time>
      </trkpt>
      <trkpt lat="42.95851899999996" lon="-1.4549369999999942">
        <ele>827.662</ele>
        <time>2022-08-24T14:21:13Z</time>
      </trkpt>
      <trkpt lat="42.95848699999996" lon="-1.4549199999999942">
        <ele>827.675</ele>
        <time>2022-08-24T14:21:14Z</time>
      </trkpt>
      <trkpt lat="42.95843899999996" lon="-1.4548959999999942">
        <ele>827.029</ele>
        <time>2022-08-24T14:21:15Z</time>
      </trkpt>
      <trkpt lat="42.95840599999996" lon="-1.4548799999999942">
        <ele>826.688</ele>
        <time>2022-08-24T14:21:16Z</time>
      </trkpt>
      <trkpt lat="42.958370999999964" lon="-1.4548749999999941">
        <ele>826.222</ele>
        <time>2022-08-24T14:21:17Z</time>
      </trkpt>
      <trkpt lat="42.95833599999997" lon="-1.454883999999994">
        <ele>826.262</ele>
        <time>2022-08-24T14:21:18Z</time>
      </trkpt>
      <trkpt lat="42.958305999999965" lon="-1.454894999999994">
        <ele>826.008</ele>
        <time>2022-08-24T14:21:19Z</time>
      </trkpt>
      <trkpt lat="42.95827899999996" lon="-1.454908999999994">
        <ele>825.809</ele>
        <time>2022-08-24T14:21:20Z</time>
      </trkpt>
      <trkpt lat="42.95824199999996" lon="-1.454926999999994">
        <ele>825.843</ele>
        <time>2022-08-24T14:21:21Z</time>
      </trkpt>
      <trkpt lat="42.958201999999964" lon="-1.4549339999999942">
        <ele>825.443</ele>
        <time>2022-08-24T14:21:22Z</time>
      </trkpt>
      <trkpt lat="42.958159999999964" lon="-1.4549449999999942">
        <ele>825.023</ele>
        <time>2022-08-24T14:21:23Z</time>
      </trkpt>
      <trkpt lat="42.958122999999965" lon="-1.4549559999999941">
        <ele>824.669</ele>
        <time>2022-08-24T14:21:24Z</time>
      </trkpt>
      <trkpt lat="42.95809599999996" lon="-1.4549559999999941">
        <ele>824.491</ele>
        <time>2022-08-24T14:21:25Z</time>
      </trkpt>
      <trkpt lat="42.958069999999964" lon="-1.454953999999994">
        <ele>824.278</ele>
        <time>2022-08-24T14:21:26Z</time>
      </trkpt>
      <trkpt lat="42.958043999999965" lon="-1.4549479999999941">
        <ele>823.851</ele>
        <time>2022-08-24T14:21:27Z</time>
      </trkpt>
      <trkpt lat="42.958012999999966" lon="-1.4549389999999942">
        <ele>823.885</ele>
        <time>2022-08-24T14:21:28Z</time>
      </trkpt>
      <trkpt lat="42.957970999999965" lon="-1.4549299999999943">
        <ele>823.634</ele>
        <time>2022-08-24T14:21:29Z</time>
      </trkpt>
      <trkpt lat="42.95794399999996" lon="-1.4549209999999944">
        <ele>823.447</ele>
        <time>2022-08-24T14:21:30Z</time>
      </trkpt>
      <trkpt lat="42.95790299999996" lon="-1.4549199999999944">
        <ele>823.029</ele>
        <time>2022-08-24T14:21:31Z</time>
      </trkpt>
      <trkpt lat="42.95785299999996" lon="-1.4549079999999945">
        <ele>822.021</ele>
        <time>2022-08-24T14:21:32Z</time>
      </trkpt>
      <trkpt lat="42.95780499999996" lon="-1.4549259999999946">
        <ele>821.609</ele>
        <time>2022-08-24T14:21:33Z</time>
      </trkpt>
      <trkpt lat="42.95770099999996" lon="-1.4549639999999946">
        <ele>820.035</ele>
        <time>2022-08-24T14:21:35Z</time>
      </trkpt>
      <trkpt lat="42.95764499999996" lon="-1.4549599999999947">
        <ele>819.435</ele>
        <time>2022-08-24T14:21:36Z</time>
      </trkpt>
      <trkpt lat="42.95759099999996" lon="-1.4549389999999947">
        <ele>819.215</ele>
        <time>2022-08-24T14:21:37Z</time>
      </trkpt>
      <trkpt lat="42.957529999999956" lon="-1.4549289999999946">
        <ele>818.851</ele>
        <time>2022-08-24T14:21:38Z</time>
      </trkpt>
      <trkpt lat="42.95747799999996" lon="-1.4549339999999946">
        <ele>818.443</ele>
        <time>2022-08-24T14:21:39Z</time>
      </trkpt>
      <trkpt lat="42.957422999999956" lon="-1.4549309999999946">
        <ele>818.430</ele>
        <time>2022-08-24T14:21:40Z</time>
      </trkpt>
      <trkpt lat="42.95735999999996" lon="-1.4549329999999947">
        <ele>818.253</ele>
        <time>2022-08-24T14:21:41Z</time>
      </trkpt>
      <trkpt lat="42.95724699999996" lon="-1.4549409999999947">
        <ele>817.437</ele>
        <time>2022-08-24T14:21:43Z</time>
      </trkpt>
      <trkpt lat="42.95716599999996" lon="-1.4549039999999946">
        <ele>817.086</ele>
        <time>2022-08-24T14:21:45Z</time>
      </trkpt>
      <trkpt lat="42.957124999999955" lon="-1.4549079999999945">
        <ele>816.841</ele>
        <time>2022-08-24T14:21:46Z</time>
      </trkpt>
      <trkpt lat="42.95708199999996" lon="-1.4549129999999946">
        <ele>816.681</ele>
        <time>2022-08-24T14:21:47Z</time>
      </trkpt>
      <trkpt lat="42.957034999999955" lon="-1.4549179999999946">
        <ele>816.209</ele>
        <time>2022-08-24T14:21:48Z</time>
      </trkpt>
      <trkpt lat="42.956983999999956" lon="-1.4549259999999946">
        <ele>816.209</ele>
        <time>2022-08-24T14:21:49Z</time>
      </trkpt>
      <trkpt lat="42.95693799999996" lon="-1.4549119999999947">
        <ele>816.265</ele>
        <time>2022-08-24T14:21:50Z</time>
      </trkpt>
      <trkpt lat="42.95688599999996" lon="-1.4549169999999947">
        <ele>816.075</ele>
        <time>2022-08-24T14:21:51Z</time>
      </trkpt>
      <trkpt lat="42.95684599999996" lon="-1.4549089999999947">
        <ele>816.035</ele>
        <time>2022-08-24T14:21:52Z</time>
      </trkpt>
      <trkpt lat="42.95682499999997" lon="-1.4549059999999947">
        <ele>816.071</ele>
        <time>2022-08-24T14:21:53Z</time>
      </trkpt>
      <trkpt lat="42.95680499999997" lon="-1.4549049999999948">
        <ele>816.053</ele>
        <time>2022-08-24T14:21:54Z</time>
      </trkpt>
      <trkpt lat="42.95669499999997" lon="-1.4549589999999948">
        <ele>816.050</ele>
        <time>2022-08-24T14:21:57Z</time>
      </trkpt>
      <trkpt lat="42.95666399999997" lon="-1.4549499999999949">
        <ele>816.023</ele>
        <time>2022-08-24T14:21:58Z</time>
      </trkpt>
      <trkpt lat="42.956630999999966" lon="-1.4549449999999948">
        <ele>816.077</ele>
        <time>2022-08-24T14:21:59Z</time>
      </trkpt>
      <trkpt lat="42.956599999999966" lon="-1.4549509999999948">
        <ele>816.026</ele>
        <time>2022-08-24T14:22:00Z</time>
      </trkpt>
      <trkpt lat="42.95657399999997" lon="-1.4549559999999948">
        <ele>816.083</ele>
        <time>2022-08-24T14:22:01Z</time>
      </trkpt>
      <trkpt lat="42.956549999999964" lon="-1.4549559999999948">
        <ele>816.025</ele>
        <time>2022-08-24T14:22:02Z</time>
      </trkpt>
      <trkpt lat="42.95653199999997" lon="-1.4549509999999948">
        <ele>815.817</ele>
        <time>2022-08-24T14:22:03Z</time>
      </trkpt>
      <trkpt lat="42.956501999999965" lon="-1.4549389999999949">
        <ele>815.609</ele>
        <time>2022-08-24T14:22:04Z</time>
      </trkpt>
      <trkpt lat="42.95647499999996" lon="-1.454929999999995">
        <ele>816.029</ele>
        <time>2022-08-24T14:22:05Z</time>
      </trkpt>
      <trkpt lat="42.95644499999996" lon="-1.454928999999995">
        <ele>816.039</ele>
        <time>2022-08-24T14:22:06Z</time>
      </trkpt>
      <trkpt lat="42.95639499999996" lon="-1.454926999999995">
        <ele>816.029</ele>
        <time>2022-08-24T14:22:08Z</time>
      </trkpt>
      <trkpt lat="42.95632899999996" lon="-1.454916999999995">
        <ele>816.235</ele>
        <time>2022-08-24T14:22:11Z</time>
      </trkpt>
      <trkpt lat="42.95619199999996" lon="-1.454907999999995">
        <ele>816.847</ele>
        <time>2022-08-24T14:22:16Z</time>
      </trkpt>
      <trkpt lat="42.95615999999996" lon="-1.454902999999995">
        <ele>816.874</ele>
        <time>2022-08-24T14:22:17Z</time>
      </trkpt>
      <trkpt lat="42.95613499999996" lon="-1.454901999999995">
        <ele>816.837</ele>
        <time>2022-08-24T14:22:18Z</time>
      </trkpt>
      <trkpt lat="42.956099999999964" lon="-1.454912999999995">
        <ele>816.691</ele>
        <time>2022-08-24T14:22:20Z</time>
      </trkpt>
      <trkpt lat="42.956085999999964" lon="-1.454923999999995">
        <ele>816.660</ele>
        <time>2022-08-24T14:22:21Z</time>
      </trkpt>
      <trkpt lat="42.956065999999964" lon="-1.454942999999995">
        <ele>816.884</ele>
        <time>2022-08-24T14:22:22Z</time>
      </trkpt>
      <trkpt lat="42.956039999999966" lon="-1.454966999999995">
        <ele>817.007</ele>
        <time>2022-08-24T14:22:23Z</time>
      </trkpt>
      <trkpt lat="42.956014999999965" lon="-1.454993999999995">
        <ele>817.017</ele>
        <time>2022-08-24T14:22:24Z</time>
      </trkpt>
      <trkpt lat="42.95597999999997" lon="-1.455036999999995">
        <ele>817.409</ele>
        <time>2022-08-24T14:22:26Z</time>
      </trkpt>
      <trkpt lat="42.95590299999997" lon="-1.4551249999999951">
        <ele>817.859</ele>
        <time>2022-08-24T14:22:29Z</time>
      </trkpt>
      <trkpt lat="42.95580299999997" lon="-1.455225999999995">
        <ele>818.059</ele>
        <time>2022-08-24T14:22:33Z</time>
      </trkpt>
      <trkpt lat="42.95577799999997" lon="-1.455253999999995">
        <ele>818.029</ele>
        <time>2022-08-24T14:22:34Z</time>
      </trkpt>
      <trkpt lat="42.95575799999997" lon="-1.4552789999999949">
        <ele>818.035</ele>
        <time>2022-08-24T14:22:35Z</time>
      </trkpt>
      <trkpt lat="42.955738999999966" lon="-1.455304999999995">
        <ele>818.037</ele>
        <time>2022-08-24T14:22:36Z</time>
      </trkpt>
      <trkpt lat="42.955724999999966" lon="-1.455326999999995">
        <ele>818.294</ele>
        <time>2022-08-24T14:22:37Z</time>
      </trkpt>
      <trkpt lat="42.95571199999996" lon="-1.455347999999995">
        <ele>818.227</ele>
        <time>2022-08-24T14:22:38Z</time>
      </trkpt>
      <trkpt lat="42.95570099999996" lon="-1.455369999999995">
        <ele>818.291</ele>
        <time>2022-08-24T14:22:39Z</time>
      </trkpt>
      <trkpt lat="42.955693999999966" lon="-1.455395999999995">
        <ele>818.640</ele>
        <time>2022-08-24T14:22:40Z</time>
      </trkpt>
      <trkpt lat="42.95568199999997" lon="-1.455420999999995">
        <ele>818.638</ele>
        <time>2022-08-24T14:22:41Z</time>
      </trkpt>
      <trkpt lat="42.955671999999964" lon="-1.455438999999995">
        <ele>818.670</ele>
        <time>2022-08-24T14:22:42Z</time>
      </trkpt>
      <trkpt lat="42.95566399999996" lon="-1.455457999999995">
        <ele>818.617</ele>
        <time>2022-08-24T14:22:43Z</time>
      </trkpt>
      <trkpt lat="42.955660999999964" lon="-1.455481999999995">
        <ele>818.809</ele>
        <time>2022-08-24T14:22:44Z</time>
      </trkpt>
      <trkpt lat="42.95565099999996" lon="-1.455503999999995">
        <ele>819.084</ele>
        <time>2022-08-24T14:22:45Z</time>
      </trkpt>
      <trkpt lat="42.95563299999996" lon="-1.455523999999995">
        <ele>819.264</ele>
        <time>2022-08-24T14:22:46Z</time>
      </trkpt>
      <trkpt lat="42.955612999999964" lon="-1.455544999999995">
        <ele>819.284</ele>
        <time>2022-08-24T14:22:47Z</time>
      </trkpt>
      <trkpt lat="42.95560599999997" lon="-1.4555569999999949">
        <ele>819.620</ele>
        <time>2022-08-24T14:22:48Z</time>
      </trkpt>
      <trkpt lat="42.955595999999964" lon="-1.4555769999999948">
        <ele>819.822</ele>
        <time>2022-08-24T14:22:49Z</time>
      </trkpt>
      <trkpt lat="42.955567999999964" lon="-1.4556249999999948">
        <ele>820.279</ele>
        <time>2022-08-24T14:22:51Z</time>
      </trkpt>
      <trkpt lat="42.955552999999966" lon="-1.4556569999999949">
        <ele>820.222</ele>
        <time>2022-08-24T14:22:52Z</time>
      </trkpt>
      <trkpt lat="42.95553599999997" lon="-1.455680999999995">
        <ele>820.236</ele>
        <time>2022-08-24T14:22:53Z</time>
      </trkpt>
      <trkpt lat="42.95552599999996" lon="-1.4556999999999949">
        <ele>820.645</ele>
        <time>2022-08-24T14:22:54Z</time>
      </trkpt>
      <trkpt lat="42.95552199999997" lon="-1.455714999999995">
        <ele>820.822</ele>
        <time>2022-08-24T14:22:55Z</time>
      </trkpt>
      <trkpt lat="42.955519999999964" lon="-1.455730999999995">
        <ele>821.062</ele>
        <time>2022-08-24T14:22:56Z</time>
      </trkpt>
      <trkpt lat="42.95551799999996" lon="-1.455748999999995">
        <ele>821.208</ele>
        <time>2022-08-24T14:22:57Z</time>
      </trkpt>
      <trkpt lat="42.955513999999965" lon="-1.4557699999999951">
        <ele>821.209</ele>
        <time>2022-08-24T14:22:58Z</time>
      </trkpt>
      <trkpt lat="42.955510999999966" lon="-1.4557879999999952">
        <ele>821.453</ele>
        <time>2022-08-24T14:22:59Z</time>
      </trkpt>
      <trkpt lat="42.95549799999996" lon="-1.4558089999999952">
        <ele>821.463</ele>
        <time>2022-08-24T14:23:00Z</time>
      </trkpt>
      <trkpt lat="42.955485999999965" lon="-1.4558349999999953">
        <ele>821.473</ele>
        <time>2022-08-24T14:23:01Z</time>
      </trkpt>
      <trkpt lat="42.955479999999966" lon="-1.4558699999999953">
        <ele>821.639</ele>
        <time>2022-08-24T14:23:02Z</time>
      </trkpt>
      <trkpt lat="42.95547299999997" lon="-1.4558989999999954">
        <ele>821.661</ele>
        <time>2022-08-24T14:23:03Z</time>
      </trkpt>
      <trkpt lat="42.95547099999997" lon="-1.4559219999999955">
        <ele>821.658</ele>
        <time>2022-08-24T14:23:04Z</time>
      </trkpt>
      <trkpt lat="42.955465999999966" lon="-1.4559509999999956">
        <ele>821.631</ele>
        <time>2022-08-24T14:23:05Z</time>
      </trkpt>
      <trkpt lat="42.95546699999996" lon="-1.4559769999999956">
        <ele>821.845</ele>
        <time>2022-08-24T14:23:06Z</time>
      </trkpt>
      <trkpt lat="42.95546699999996" lon="-1.4559979999999957">
        <ele>822.244</ele>
        <time>2022-08-24T14:23:07Z</time>
      </trkpt>
      <trkpt lat="42.955468999999965" lon="-1.4560179999999956">
        <ele>822.274</ele>
        <time>2022-08-24T14:23:08Z</time>
      </trkpt>
      <trkpt lat="42.955468999999965" lon="-1.4560379999999955">
        <ele>822.456</ele>
        <time>2022-08-24T14:23:09Z</time>
      </trkpt>
      <trkpt lat="42.955468999999965" lon="-1.4560629999999954">
        <ele>822.621</ele>
        <time>2022-08-24T14:23:10Z</time>
      </trkpt>
      <trkpt lat="42.95546999999996" lon="-1.4560869999999955">
        <ele>822.609</ele>
        <time>2022-08-24T14:23:11Z</time>
      </trkpt>
      <trkpt lat="42.955468999999965" lon="-1.4561099999999956">
        <ele>822.818</ele>
        <time>2022-08-24T14:23:12Z</time>
      </trkpt>
      <trkpt lat="42.95546999999996" lon="-1.4561359999999957">
        <ele>822.898</ele>
        <time>2022-08-24T14:23:13Z</time>
      </trkpt>
      <trkpt lat="42.95546999999996" lon="-1.4561669999999955">
        <ele>823.078</ele>
        <time>2022-08-24T14:23:14Z</time>
      </trkpt>
      <trkpt lat="42.95547299999996" lon="-1.4561979999999954">
        <ele>823.044</ele>
        <time>2022-08-24T14:23:15Z</time>
      </trkpt>
      <trkpt lat="42.95547099999996" lon="-1.4562279999999954">
        <ele>823.286</ele>
        <time>2022-08-24T14:23:16Z</time>
      </trkpt>
      <trkpt lat="42.95546799999996" lon="-1.4562599999999954">
        <ele>823.273</ele>
        <time>2022-08-24T14:23:17Z</time>
      </trkpt>
      <trkpt lat="42.955463999999964" lon="-1.4562949999999955">
        <ele>823.246</ele>
        <time>2022-08-24T14:23:18Z</time>
      </trkpt>
      <trkpt lat="42.955463999999964" lon="-1.4563279999999954">
        <ele>823.240</ele>
        <time>2022-08-24T14:23:19Z</time>
      </trkpt>
      <trkpt lat="42.95545899999996" lon="-1.4563629999999954">
        <ele>823.249</ele>
        <time>2022-08-24T14:23:20Z</time>
      </trkpt>
      <trkpt lat="42.95544599999996" lon="-1.4564079999999955">
        <ele>823.257</ele>
        <time>2022-08-24T14:23:21Z</time>
      </trkpt>
      <trkpt lat="42.95542799999996" lon="-1.4564409999999954">
        <ele>823.200</ele>
        <time>2022-08-24T14:23:22Z</time>
      </trkpt>
      <trkpt lat="42.95541799999996" lon="-1.4564809999999955">
        <ele>822.620</ele>
        <time>2022-08-24T14:23:23Z</time>
      </trkpt>
      <trkpt lat="42.95540699999996" lon="-1.4565279999999954">
        <ele>822.409</ele>
        <time>2022-08-24T14:23:24Z</time>
      </trkpt>
      <trkpt lat="42.95538799999996" lon="-1.4565959999999953">
        <ele>822.266</ele>
        <time>2022-08-24T14:23:26Z</time>
      </trkpt>
      <trkpt lat="42.95535699999996" lon="-1.4566769999999953">
        <ele>822.046</ele>
        <time>2022-08-24T14:23:28Z</time>
      </trkpt>
      <trkpt lat="42.95534699999995" lon="-1.4567059999999954">
        <ele>822.066</ele>
        <time>2022-08-24T14:23:29Z</time>
      </trkpt>
      <trkpt lat="42.95531899999995" lon="-1.4568009999999953">
        <ele>821.622</ele>
        <time>2022-08-24T14:23:31Z</time>
      </trkpt>
      <trkpt lat="42.95528099999995" lon="-1.4569449999999953">
        <ele>821.274</ele>
        <time>2022-08-24T14:23:33Z</time>
      </trkpt>
      <trkpt lat="42.95524899999995" lon="-1.4570039999999953">
        <ele>821.281</ele>
        <time>2022-08-24T14:23:34Z</time>
      </trkpt>
      <trkpt lat="42.95521899999995" lon="-1.4570519999999954">
        <ele>820.844</ele>
        <time>2022-08-24T14:23:35Z</time>
      </trkpt>
      <trkpt lat="42.95517899999995" lon="-1.4571019999999955">
        <ele>820.878</ele>
        <time>2022-08-24T14:23:36Z</time>
      </trkpt>
      <trkpt lat="42.955146999999954" lon="-1.4571369999999955">
        <ele>820.057</ele>
        <time>2022-08-24T14:23:37Z</time>
      </trkpt>
      <trkpt lat="42.95513399999995" lon="-1.4571679999999954">
        <ele>819.888</ele>
        <time>2022-08-24T14:23:38Z</time>
      </trkpt>
      <trkpt lat="42.955098999999954" lon="-1.4572019999999954">
        <ele>819.624</ele>
        <time>2022-08-24T14:23:39Z</time>
      </trkpt>
      <trkpt lat="42.954966999999954" lon="-1.4573029999999954">
        <ele>819.026</ele>
        <time>2022-08-24T14:23:42Z</time>
      </trkpt>
      <trkpt lat="42.954791999999955" lon="-1.4574609999999955">
        <ele>818.809</ele>
        <time>2022-08-24T14:23:45Z</time>
      </trkpt>
      <trkpt lat="42.95468399999996" lon="-1.4575969999999954">
        <ele>818.859</ele>
        <time>2022-08-24T14:23:48Z</time>
      </trkpt>
      <trkpt lat="42.95461099999996" lon="-1.4576639999999954">
        <ele>818.839</ele>
        <time>2022-08-24T14:23:50Z</time>
      </trkpt>
      <trkpt lat="42.95458799999996" lon="-1.4576999999999953">
        <ele>818.499</ele>
        <time>2022-08-24T14:23:51Z</time>
      </trkpt>
      <trkpt lat="42.95449499999996" lon="-1.4578309999999954">
        <ele>818.245</ele>
        <time>2022-08-24T14:23:54Z</time>
      </trkpt>
      <trkpt lat="42.95446299999996" lon="-1.4578799999999954">
        <ele>818.217</ele>
        <time>2022-08-24T14:23:55Z</time>
      </trkpt>
      <trkpt lat="42.95438999999996" lon="-1.4579729999999953">
        <ele>817.484</ele>
        <time>2022-08-24T14:23:57Z</time>
      </trkpt>
      <trkpt lat="42.95435599999996" lon="-1.4580189999999953">
        <ele>817.287</ele>
        <time>2022-08-24T14:23:58Z</time>
      </trkpt>
      <trkpt lat="42.95429199999996" lon="-1.4581289999999953">
        <ele>816.821</ele>
        <time>2022-08-24T14:24:00Z</time>
      </trkpt>
      <trkpt lat="42.95425599999996" lon="-1.4581809999999953">
        <ele>816.680</ele>
        <time>2022-08-24T14:24:01Z</time>
      </trkpt>
      <trkpt lat="42.95422199999996" lon="-1.4582259999999954">
        <ele>816.259</ele>
        <time>2022-08-24T14:24:02Z</time>
      </trkpt>
      <trkpt lat="42.95418599999996" lon="-1.4582719999999953">
        <ele>816.203</ele>
        <time>2022-08-24T14:24:03Z</time>
      </trkpt>
      <trkpt lat="42.95415999999996" lon="-1.4583149999999954">
        <ele>816.223</ele>
        <time>2022-08-24T14:24:04Z</time>
      </trkpt>
      <trkpt lat="42.954132999999956" lon="-1.4583519999999954">
        <ele>816.209</ele>
        <time>2022-08-24T14:24:05Z</time>
      </trkpt>
      <trkpt lat="42.954099999999954" lon="-1.4583859999999955">
        <ele>816.226</ele>
        <time>2022-08-24T14:24:06Z</time>
      </trkpt>
      <trkpt lat="42.95405899999995" lon="-1.4584169999999954">
        <ele>816.296</ele>
        <time>2022-08-24T14:24:07Z</time>
      </trkpt>
      <trkpt lat="42.95402999999995" lon="-1.4584459999999955">
        <ele>816.046</ele>
        <time>2022-08-24T14:24:08Z</time>
      </trkpt>
      <trkpt lat="42.95400299999995" lon="-1.4584709999999954">
        <ele>816.042</ele>
        <time>2022-08-24T14:24:09Z</time>
      </trkpt>
      <trkpt lat="42.95397399999995" lon="-1.4584889999999955">
        <ele>816.084</ele>
        <time>2022-08-24T14:24:10Z</time>
      </trkpt>
      <trkpt lat="42.953947999999954" lon="-1.4585109999999954">
        <ele>816.061</ele>
        <time>2022-08-24T14:24:11Z</time>
      </trkpt>
      <trkpt lat="42.95392099999995" lon="-1.4585389999999954">
        <ele>816.264</ele>
        <time>2022-08-24T14:24:12Z</time>
      </trkpt>
      <trkpt lat="42.95382499999995" lon="-1.4586119999999954">
        <ele>816.278</ele>
        <time>2022-08-24T14:24:15Z</time>
      </trkpt>
      <trkpt lat="42.95377699999995" lon="-1.4586599999999954">
        <ele>816.227</ele>
        <time>2022-08-24T14:24:16Z</time>
      </trkpt>
      <trkpt lat="42.953744999999955" lon="-1.4586879999999953">
        <ele>816.282</ele>
        <time>2022-08-24T14:24:17Z</time>
      </trkpt>
      <trkpt lat="42.95372999999996" lon="-1.4587199999999954">
        <ele>816.643</ele>
        <time>2022-08-24T14:24:18Z</time>
      </trkpt>
      <trkpt lat="42.95371899999996" lon="-1.4587549999999954">
        <ele>816.617</ele>
        <time>2022-08-24T14:24:19Z</time>
      </trkpt>
      <trkpt lat="42.95370399999996" lon="-1.4587939999999953">
        <ele>816.809</ele>
        <time>2022-08-24T14:24:20Z</time>
      </trkpt>
      <trkpt lat="42.95369899999996" lon="-1.4588219999999952">
        <ele>816.889</ele>
        <time>2022-08-24T14:24:21Z</time>
      </trkpt>
      <trkpt lat="42.95370199999996" lon="-1.4588549999999951">
        <ele>816.889</ele>
        <time>2022-08-24T14:24:22Z</time>
      </trkpt>
      <trkpt lat="42.95370099999996" lon="-1.4588819999999951">
        <ele>817.029</ele>
        <time>2022-08-24T14:24:23Z</time>
      </trkpt>
      <trkpt lat="42.95369299999996" lon="-1.4589379999999952">
        <ele>817.065</ele>
        <time>2022-08-24T14:24:24Z</time>
      </trkpt>
      <trkpt lat="42.953693999999956" lon="-1.4590219999999952">
        <ele>817.447</ele>
        <time>2022-08-24T14:24:25Z</time>
      </trkpt>
      <trkpt lat="42.953699999999955" lon="-1.4591289999999952">
        <ele>817.654</ele>
        <time>2022-08-24T14:24:27Z</time>
      </trkpt>
      <trkpt lat="42.953708999999954" lon="-1.4591709999999953">
        <ele>817.877</ele>
        <time>2022-08-24T14:24:28Z</time>
      </trkpt>
      <trkpt lat="42.95371299999995" lon="-1.4592209999999954">
        <ele>817.821</ele>
        <time>2022-08-24T14:24:29Z</time>
      </trkpt>
      <trkpt lat="42.95373599999995" lon="-1.4593759999999953">
        <ele>817.430</ele>
        <time>2022-08-24T14:24:31Z</time>
      </trkpt>
      <trkpt lat="42.95379599999995" lon="-1.4595909999999954">
        <ele>815.446</ele>
        <time>2022-08-24T14:24:34Z</time>
      </trkpt>
      <trkpt lat="42.95380699999995" lon="-1.4596669999999954">
        <ele>814.888</ele>
        <time>2022-08-24T14:24:35Z</time>
      </trkpt>
      <trkpt lat="42.95381699999995" lon="-1.4597409999999953">
        <ele>814.216</ele>
        <time>2022-08-24T14:24:36Z</time>
      </trkpt>
      <trkpt lat="42.95391399999995" lon="-1.4599149999999952">
        <ele>813.209</ele>
        <time>2022-08-24T14:24:39Z</time>
      </trkpt>
      <trkpt lat="42.953931999999945" lon="-1.4599839999999953">
        <ele>812.855</ele>
        <time>2022-08-24T14:24:40Z</time>
      </trkpt>
      <trkpt lat="42.95394399999994" lon="-1.4600559999999954">
        <ele>811.865</ele>
        <time>2022-08-24T14:24:41Z</time>
      </trkpt>
      <trkpt lat="42.953948999999945" lon="-1.4601209999999953">
        <ele>811.035</ele>
        <time>2022-08-24T14:24:42Z</time>
      </trkpt>
      <trkpt lat="42.95394999999994" lon="-1.4601889999999953">
        <ele>810.891</ele>
        <time>2022-08-24T14:24:43Z</time>
      </trkpt>
      <trkpt lat="42.953937999999944" lon="-1.4602559999999953">
        <ele>810.243</ele>
        <time>2022-08-24T14:24:44Z</time>
      </trkpt>
      <trkpt lat="42.953925999999946" lon="-1.4603019999999953">
        <ele>810.250</ele>
        <time>2022-08-24T14:24:45Z</time>
      </trkpt>
      <trkpt lat="42.95391599999994" lon="-1.4603419999999954">
        <ele>810.073</ele>
        <time>2022-08-24T14:24:46Z</time>
      </trkpt>
      <trkpt lat="42.95390799999994" lon="-1.4603879999999954">
        <ele>810.057</ele>
        <time>2022-08-24T14:24:47Z</time>
      </trkpt>
      <trkpt lat="42.95389899999994" lon="-1.4604399999999953">
        <ele>809.866</ele>
        <time>2022-08-24T14:24:48Z</time>
      </trkpt>
      <trkpt lat="42.95388899999994" lon="-1.4605009999999954">
        <ele>809.897</ele>
        <time>2022-08-24T14:24:49Z</time>
      </trkpt>
      <trkpt lat="42.95388399999994" lon="-1.4605709999999954">
        <ele>809.823</ele>
        <time>2022-08-24T14:24:50Z</time>
      </trkpt>
      <trkpt lat="42.953881999999936" lon="-1.4606319999999955">
        <ele>809.825</ele>
        <time>2022-08-24T14:24:51Z</time>
      </trkpt>
      <trkpt lat="42.953882999999934" lon="-1.4606879999999955">
        <ele>809.809</ele>
        <time>2022-08-24T14:24:52Z</time>
      </trkpt>
      <trkpt lat="42.95388699999993" lon="-1.4607339999999955">
        <ele>809.830</ele>
        <time>2022-08-24T14:24:53Z</time>
      </trkpt>
      <trkpt lat="42.95388999999993" lon="-1.4607669999999955">
        <ele>809.850</ele>
        <time>2022-08-24T14:24:54Z</time>
      </trkpt>
      <trkpt lat="42.95389099999993" lon="-1.4608079999999954">
        <ele>810.030</ele>
        <time>2022-08-24T14:24:55Z</time>
      </trkpt>
      <trkpt lat="42.95388999999993" lon="-1.4608319999999955">
        <ele>810.236</ele>
        <time>2022-08-24T14:24:56Z</time>
      </trkpt>
      <trkpt lat="42.95388899999993" lon="-1.4608589999999955">
        <ele>810.438</ele>
        <time>2022-08-24T14:24:57Z</time>
      </trkpt>
      <trkpt lat="42.95388899999993" lon="-1.4608809999999954">
        <ele>810.825</ele>
        <time>2022-08-24T14:24:58Z</time>
      </trkpt>
      <trkpt lat="42.953890999999935" lon="-1.4609029999999954">
        <ele>811.048</ele>
        <time>2022-08-24T14:24:59Z</time>
      </trkpt>
      <trkpt lat="42.95391799999994" lon="-1.4609909999999955">
        <ele>811.652</ele>
        <time>2022-08-24T14:25:02Z</time>
      </trkpt>
      <trkpt lat="42.953921999999935" lon="-1.4610229999999955">
        <ele>811.641</ele>
        <time>2022-08-24T14:25:03Z</time>
      </trkpt>
      <trkpt lat="42.95392099999994" lon="-1.4610489999999956">
        <ele>811.668</ele>
        <time>2022-08-24T14:25:04Z</time>
      </trkpt>
      <trkpt lat="42.95392099999994" lon="-1.4610799999999955">
        <ele>811.842</ele>
        <time>2022-08-24T14:25:05Z</time>
      </trkpt>
      <trkpt lat="42.953918999999935" lon="-1.4611509999999954">
        <ele>812.026</ele>
        <time>2022-08-24T14:25:07Z</time>
      </trkpt>
      <trkpt lat="42.95391499999994" lon="-1.4611769999999955">
        <ele>812.009</ele>
        <time>2022-08-24T14:25:08Z</time>
      </trkpt>
      <trkpt lat="42.953915999999936" lon="-1.4612109999999956">
        <ele>812.087</ele>
        <time>2022-08-24T14:25:09Z</time>
      </trkpt>
      <trkpt lat="42.95392099999994" lon="-1.4612649999999956">
        <ele>812.257</ele>
        <time>2022-08-24T14:25:11Z</time>
      </trkpt>
      <trkpt lat="42.95392899999994" lon="-1.4612949999999956">
        <ele>812.667</ele>
        <time>2022-08-24T14:25:12Z</time>
      </trkpt>
      <trkpt lat="42.95393199999994" lon="-1.4613289999999957">
        <ele>812.663</ele>
        <time>2022-08-24T14:25:13Z</time>
      </trkpt>
      <trkpt lat="42.95393699999994" lon="-1.4613639999999957">
        <ele>812.875</ele>
        <time>2022-08-24T14:25:14Z</time>
      </trkpt>
      <trkpt lat="42.95394199999994" lon="-1.4613949999999956">
        <ele>813.032</ele>
        <time>2022-08-24T14:25:15Z</time>
      </trkpt>
      <trkpt lat="42.95393599999994" lon="-1.4614509999999956">
        <ele>813.275</ele>
        <time>2022-08-24T14:25:17Z</time>
      </trkpt>
      <trkpt lat="42.95392599999994" lon="-1.4614709999999955">
        <ele>813.279</ele>
        <time>2022-08-24T14:25:18Z</time>
      </trkpt>
      <trkpt lat="42.95391699999994" lon="-1.4614919999999956">
        <ele>813.248</ele>
        <time>2022-08-24T14:25:19Z</time>
      </trkpt>
      <trkpt lat="42.95390799999994" lon="-1.4615109999999956">
        <ele>813.483</ele>
        <time>2022-08-24T14:25:20Z</time>
      </trkpt>
      <trkpt lat="42.953900999999945" lon="-1.4615319999999956">
        <ele>813.425</ele>
        <time>2022-08-24T14:25:21Z</time>
      </trkpt>
      <trkpt lat="42.95389199999995" lon="-1.4615539999999956">
        <ele>813.617</ele>
        <time>2022-08-24T14:25:22Z</time>
      </trkpt>
      <trkpt lat="42.95387699999995" lon="-1.4615899999999955">
        <ele>814.009</ele>
        <time>2022-08-24T14:25:24Z</time>
      </trkpt>
      <trkpt lat="42.95384199999995" lon="-1.4616979999999955">
        <ele>814.649</ele>
        <time>2022-08-24T14:25:28Z</time>
      </trkpt>
      <trkpt lat="42.95383299999995" lon="-1.4617289999999954">
        <ele>814.619</ele>
        <time>2022-08-24T14:25:29Z</time>
      </trkpt>
      <trkpt lat="42.953823999999955" lon="-1.4617599999999953">
        <ele>814.659</ele>
        <time>2022-08-24T14:25:30Z</time>
      </trkpt>
      <trkpt lat="42.953815999999954" lon="-1.4617919999999953">
        <ele>814.825</ele>
        <time>2022-08-24T14:25:31Z</time>
      </trkpt>
      <trkpt lat="42.95380599999995" lon="-1.4618259999999954">
        <ele>814.877</ele>
        <time>2022-08-24T14:25:32Z</time>
      </trkpt>
      <trkpt lat="42.95379799999995" lon="-1.4618589999999954">
        <ele>814.844</ele>
        <time>2022-08-24T14:25:33Z</time>
      </trkpt>
      <trkpt lat="42.95378999999995" lon="-1.4618889999999953">
        <ele>814.827</ele>
        <time>2022-08-24T14:25:34Z</time>
      </trkpt>
      <trkpt lat="42.95377799999995" lon="-1.4619229999999954">
        <ele>814.851</ele>
        <time>2022-08-24T14:25:35Z</time>
      </trkpt>
      <trkpt lat="42.95377299999995" lon="-1.4619529999999954">
        <ele>814.840</ele>
        <time>2022-08-24T14:25:36Z</time>
      </trkpt>
      <trkpt lat="42.95375099999995" lon="-1.4620999999999953">
        <ele>814.869</ele>
        <time>2022-08-24T14:25:40Z</time>
      </trkpt>
      <trkpt lat="42.953745999999946" lon="-1.4621379999999953">
        <ele>814.804</ele>
        <time>2022-08-24T14:25:41Z</time>
      </trkpt>
      <trkpt lat="42.95373599999994" lon="-1.4621719999999954">
        <ele>814.824</ele>
        <time>2022-08-24T14:25:42Z</time>
      </trkpt>
      <trkpt lat="42.953712999999944" lon="-1.4622459999999953">
        <ele>814.809</ele>
        <time>2022-08-24T14:25:44Z</time>
      </trkpt>
      <trkpt lat="42.95368599999994" lon="-1.4623559999999953">
        <ele>815.027</ele>
        <time>2022-08-24T14:25:47Z</time>
      </trkpt>
      <trkpt lat="42.95364099999994" lon="-1.4625009999999954">
        <ele>815.037</ele>
        <time>2022-08-24T14:25:51Z</time>
      </trkpt>
      <trkpt lat="42.95363599999994" lon="-1.4625309999999954">
        <ele>815.037</ele>
        <time>2022-08-24T14:25:52Z</time>
      </trkpt>
      <trkpt lat="42.95362999999994" lon="-1.4625659999999954">
        <ele>815.033</ele>
        <time>2022-08-24T14:25:53Z</time>
      </trkpt>
      <trkpt lat="42.95362499999994" lon="-1.4625999999999955">
        <ele>815.045</ele>
        <time>2022-08-24T14:25:54Z</time>
      </trkpt>
      <trkpt lat="42.95362199999994" lon="-1.4626309999999954">
        <ele>815.032</ele>
        <time>2022-08-24T14:25:55Z</time>
      </trkpt>
      <trkpt lat="42.95362099999994" lon="-1.4626579999999954">
        <ele>815.035</ele>
        <time>2022-08-24T14:25:56Z</time>
      </trkpt>
      <trkpt lat="42.95361899999994" lon="-1.4626869999999954">
        <ele>815.029</ele>
        <time>2022-08-24T14:25:57Z</time>
      </trkpt>
      <trkpt lat="42.95361399999994" lon="-1.4627149999999953">
        <ele>815.038</ele>
        <time>2022-08-24T14:25:58Z</time>
      </trkpt>
      <trkpt lat="42.95361099999994" lon="-1.4627359999999954">
        <ele>815.096</ele>
        <time>2022-08-24T14:25:59Z</time>
      </trkpt>
      <trkpt lat="42.95360799999994" lon="-1.4627599999999954">
        <ele>815.231</ele>
        <time>2022-08-24T14:26:00Z</time>
      </trkpt>
      <trkpt lat="42.95360299999994" lon="-1.4627879999999953">
        <ele>815.224</ele>
        <time>2022-08-24T14:26:01Z</time>
      </trkpt>
      <trkpt lat="42.953592999999934" lon="-1.4628109999999954">
        <ele>815.409</ele>
        <time>2022-08-24T14:26:02Z</time>
      </trkpt>
      <trkpt lat="42.95357399999993" lon="-1.4628499999999953">
        <ele>815.680</ele>
        <time>2022-08-24T14:26:04Z</time>
      </trkpt>
      <trkpt lat="42.95356299999993" lon="-1.4628659999999953">
        <ele>815.850</ele>
        <time>2022-08-24T14:26:05Z</time>
      </trkpt>
      <trkpt lat="42.95355399999993" lon="-1.4628869999999954">
        <ele>816.080</ele>
        <time>2022-08-24T14:26:06Z</time>
      </trkpt>
      <trkpt lat="42.953544999999934" lon="-1.4628999999999954">
        <ele>816.266</ele>
        <time>2022-08-24T14:26:07Z</time>
      </trkpt>
      <trkpt lat="42.95352999999994" lon="-1.4629169999999954">
        <ele>816.288</ele>
        <time>2022-08-24T14:26:08Z</time>
      </trkpt>
      <trkpt lat="42.95351999999993" lon="-1.4629319999999955">
        <ele>816.285</ele>
        <time>2022-08-24T14:26:09Z</time>
      </trkpt>
      <trkpt lat="42.95350599999993" lon="-1.4629609999999955">
        <ele>816.428</ele>
        <time>2022-08-24T14:26:11Z</time>
      </trkpt>
      <trkpt lat="42.95349299999993" lon="-1.4629789999999956">
        <ele>816.432</ele>
        <time>2022-08-24T14:26:12Z</time>
      </trkpt>
      <trkpt lat="42.95347099999993" lon="-1.4630029999999956">
        <ele>816.681</ele>
        <time>2022-08-24T14:26:14Z</time>
      </trkpt>
      <trkpt lat="42.95345699999993" lon="-1.4630389999999955">
        <ele>816.886</ele>
        <time>2022-08-24T14:26:16Z</time>
      </trkpt>
      <trkpt lat="42.953429999999926" lon="-1.4630719999999955">
        <ele>817.260</ele>
        <time>2022-08-24T14:26:19Z</time>
      </trkpt>
      <trkpt lat="42.95340899999993" lon="-1.4630999999999954">
        <ele>817.226</ele>
        <time>2022-08-24T14:26:20Z</time>
      </trkpt>
      <trkpt lat="42.95335299999993" lon="-1.4631689999999955">
        <ele>817.609</ele>
        <time>2022-08-24T14:26:24Z</time>
      </trkpt>
      <trkpt lat="42.95331299999993" lon="-1.4632089999999955">
        <ele>818.049</ele>
        <time>2022-08-24T14:26:27Z</time>
      </trkpt>
      <trkpt lat="42.95322699999993" lon="-1.4633399999999956">
        <ele>818.089</ele>
        <time>2022-08-24T14:26:32Z</time>
      </trkpt>
      <trkpt lat="42.95320599999993" lon="-1.4633679999999956">
        <ele>818.079</ele>
        <time>2022-08-24T14:26:33Z</time>
      </trkpt>
      <trkpt lat="42.95317199999993" lon="-1.4634129999999956">
        <ele>817.865</ele>
        <time>2022-08-24T14:26:35Z</time>
      </trkpt>
      <trkpt lat="42.95315499999993" lon="-1.4634309999999957">
        <ele>817.637</ele>
        <time>2022-08-24T14:26:36Z</time>
      </trkpt>
      <trkpt lat="42.95305399999993" lon="-1.4635119999999957">
        <ele>817.064</ele>
        <time>2022-08-24T14:26:40Z</time>
      </trkpt>
      <trkpt lat="42.95305399999993" lon="-1.4635119999999957">
        <ele>816.617</ele>
        <time>2022-08-24T14:26:41Z</time>
      </trkpt>
      <trkpt lat="42.95301299999993" lon="-1.4635559999999956">
        <ele>816.411</ele>
        <time>2022-08-24T14:26:42Z</time>
      </trkpt>
      <trkpt lat="42.95299499999993" lon="-1.4635849999999957">
        <ele>816.040</ele>
        <time>2022-08-24T14:26:43Z</time>
      </trkpt>
      <trkpt lat="42.95297199999993" lon="-1.4636109999999958">
        <ele>815.658</ele>
        <time>2022-08-24T14:26:44Z</time>
      </trkpt>
      <trkpt lat="42.95295799999993" lon="-1.4636259999999959">
        <ele>815.052</ele>
        <time>2022-08-24T14:26:45Z</time>
      </trkpt>
      <trkpt lat="42.952942999999934" lon="-1.463638999999996">
        <ele>814.817</ele>
        <time>2022-08-24T14:26:46Z</time>
      </trkpt>
      <trkpt lat="42.95292999999993" lon="-1.4636529999999959">
        <ele>814.609</ele>
        <time>2022-08-24T14:26:47Z</time>
      </trkpt>
      <trkpt lat="42.95288499999993" lon="-1.463732999999996">
        <ele>814.416</ele>
        <time>2022-08-24T14:26:50Z</time>
      </trkpt>
      <trkpt lat="42.95286999999993" lon="-1.4637529999999959">
        <ele>814.256</ele>
        <time>2022-08-24T14:26:51Z</time>
      </trkpt>
      <trkpt lat="42.952823999999936" lon="-1.4637969999999958">
        <ele>813.476</ele>
        <time>2022-08-24T14:26:53Z</time>
      </trkpt>
      <trkpt lat="42.95280099999994" lon="-1.4638359999999957">
        <ele>813.042</ele>
        <time>2022-08-24T14:26:54Z</time>
      </trkpt>
      <trkpt lat="42.95274899999994" lon="-1.4639219999999957">
        <ele>812.414</ele>
        <time>2022-08-24T14:26:56Z</time>
      </trkpt>
      <trkpt lat="42.95272599999994" lon="-1.4639509999999958">
        <ele>812.231</ele>
        <time>2022-08-24T14:26:57Z</time>
      </trkpt>
      <trkpt lat="42.952693999999944" lon="-1.4640059999999957">
        <ele>812.244</ele>
        <time>2022-08-24T14:26:58Z</time>
      </trkpt>
      <trkpt lat="42.95264699999994" lon="-1.4640879999999956">
        <ele>812.088</ele>
        <time>2022-08-24T14:27:00Z</time>
      </trkpt>
      <trkpt lat="42.95261899999994" lon="-1.4641249999999957">
        <ele>811.827</ele>
        <time>2022-08-24T14:27:01Z</time>
      </trkpt>
      <trkpt lat="42.952482999999944" lon="-1.4643539999999957">
        <ele>811.845</ele>
        <time>2022-08-24T14:27:06Z</time>
      </trkpt>
      <trkpt lat="42.95246199999995" lon="-1.4643929999999956">
        <ele>812.047</ele>
        <time>2022-08-24T14:27:07Z</time>
      </trkpt>
      <trkpt lat="42.952439999999946" lon="-1.4644169999999956">
        <ele>812.011</ele>
        <time>2022-08-24T14:27:08Z</time>
      </trkpt>
      <trkpt lat="42.95240499999995" lon="-1.4644499999999956">
        <ele>812.009</ele>
        <time>2022-08-24T14:27:09Z</time>
      </trkpt>
      <trkpt lat="42.95236599999995" lon="-1.4644769999999956">
        <ele>812.245</ele>
        <time>2022-08-24T14:27:10Z</time>
      </trkpt>
      <trkpt lat="42.952293999999945" lon="-1.4645419999999956">
        <ele>812.265</ele>
        <time>2022-08-24T14:27:12Z</time>
      </trkpt>
      <trkpt lat="42.952211999999946" lon="-1.4646459999999957">
        <ele>812.485</ele>
        <time>2022-08-24T14:27:15Z</time>
      </trkpt>
      <trkpt lat="42.952166999999946" lon="-1.4646719999999958">
        <ele>812.451</ele>
        <time>2022-08-24T14:27:16Z</time>
      </trkpt>
      <trkpt lat="42.952076999999946" lon="-1.4647199999999958">
        <ele>812.483</ele>
        <time>2022-08-24T14:27:18Z</time>
      </trkpt>
      <trkpt lat="42.952037999999945" lon="-1.4647379999999959">
        <ele>812.210</ele>
        <time>2022-08-24T14:27:19Z</time>
      </trkpt>
      <trkpt lat="42.95200299999995" lon="-1.4647579999999958">
        <ele>812.083</ele>
        <time>2022-08-24T14:27:20Z</time>
      </trkpt>
      <trkpt lat="42.95196799999995" lon="-1.4647769999999958">
        <ele>812.017</ele>
        <time>2022-08-24T14:27:21Z</time>
      </trkpt>
      <trkpt lat="42.95185099999995" lon="-1.4648419999999958">
        <ele>811.476</ele>
        <time>2022-08-24T14:27:24Z</time>
      </trkpt>
      <trkpt lat="42.95176099999995" lon="-1.4648769999999958">
        <ele>811.082</ele>
        <time>2022-08-24T14:27:26Z</time>
      </trkpt>
      <trkpt lat="42.95171599999995" lon="-1.4648839999999959">
        <ele>810.843</ele>
        <time>2022-08-24T14:27:27Z</time>
      </trkpt>
      <trkpt lat="42.951674999999945" lon="-1.4648949999999958">
        <ele>810.617</ele>
        <time>2022-08-24T14:27:28Z</time>
      </trkpt>
      <trkpt lat="42.951629999999945" lon="-1.4649199999999958">
        <ele>810.609</ele>
        <time>2022-08-24T14:27:29Z</time>
      </trkpt>
      <trkpt lat="42.95160099999995" lon="-1.4649439999999958">
        <ele>810.669</ele>
        <time>2022-08-24T14:27:30Z</time>
      </trkpt>
      <trkpt lat="42.95156699999995" lon="-1.4649719999999957">
        <ele>810.859</ele>
        <time>2022-08-24T14:27:31Z</time>
      </trkpt>
      <trkpt lat="42.951533999999945" lon="-1.4650039999999958">
        <ele>810.839</ele>
        <time>2022-08-24T14:27:32Z</time>
      </trkpt>
      <trkpt lat="42.95150699999994" lon="-1.4650279999999958">
        <ele>810.885</ele>
        <time>2022-08-24T14:27:33Z</time>
      </trkpt>
      <trkpt lat="42.951474999999945" lon="-1.4650439999999958">
        <ele>810.867</ele>
        <time>2022-08-24T14:27:34Z</time>
      </trkpt>
      <trkpt lat="42.95146199999994" lon="-1.4650549999999958">
        <ele>810.624</ele>
        <time>2022-08-24T14:27:35Z</time>
      </trkpt>
      <trkpt lat="42.95143499999994" lon="-1.4650709999999958">
        <ele>810.677</ele>
        <time>2022-08-24T14:27:36Z</time>
      </trkpt>
      <trkpt lat="42.95140199999994" lon="-1.4650909999999957">
        <ele>810.641</ele>
        <time>2022-08-24T14:27:37Z</time>
      </trkpt>
      <trkpt lat="42.95137899999994" lon="-1.4650979999999958">
        <ele>810.820</ele>
        <time>2022-08-24T14:27:38Z</time>
      </trkpt>
      <trkpt lat="42.95135999999994" lon="-1.4650969999999959">
        <ele>811.047</ele>
        <time>2022-08-24T14:27:39Z</time>
      </trkpt>
      <trkpt lat="42.95135399999994" lon="-1.4650969999999959">
        <ele>811.229</ele>
        <time>2022-08-24T14:27:40Z</time>
      </trkpt>
      <trkpt lat="42.95135399999994" lon="-1.4650969999999959">
        <ele>811.221</ele>
        <time>2022-08-24T14:27:41Z</time>
      </trkpt>
      <trkpt lat="42.95133299999994" lon="-1.4651009999999958">
        <ele>811.409</ele>
        <time>2022-08-24T14:27:42Z</time>
      </trkpt>
      <trkpt lat="42.951286999999944" lon="-1.4651019999999957">
        <ele>811.475</ele>
        <time>2022-08-24T14:27:43Z</time>
      </trkpt>
      <trkpt lat="42.951260999999946" lon="-1.4650989999999957">
        <ele>811.675</ele>
        <time>2022-08-24T14:27:44Z</time>
      </trkpt>
      <trkpt lat="42.95122899999995" lon="-1.4650949999999958">
        <ele>811.655</ele>
        <time>2022-08-24T14:27:45Z</time>
      </trkpt>
      <trkpt lat="42.95119799999995" lon="-1.4650879999999957">
        <ele>811.841</ele>
        <time>2022-08-24T14:27:46Z</time>
      </trkpt>
      <trkpt lat="42.951159999999945" lon="-1.4650839999999958">
        <ele>812.013</ele>
        <time>2022-08-24T14:27:47Z</time>
      </trkpt>
      <trkpt lat="42.95113799999994" lon="-1.4650849999999958">
        <ele>812.030</ele>
        <time>2022-08-24T14:27:48Z</time>
      </trkpt>
      <trkpt lat="42.951097999999945" lon="-1.4650829999999957">
        <ele>812.243</ele>
        <time>2022-08-24T14:27:50Z</time>
      </trkpt>
      <trkpt lat="42.951083999999945" lon="-1.4650779999999957">
        <ele>812.237</ele>
        <time>2022-08-24T14:27:51Z</time>
      </trkpt>
      <trkpt lat="42.951074999999946" lon="-1.4650649999999956">
        <ele>812.466</ele>
        <time>2022-08-24T14:27:52Z</time>
      </trkpt>
      <trkpt lat="42.951058999999944" lon="-1.4650569999999956">
        <ele>812.464</ele>
        <time>2022-08-24T14:27:53Z</time>
      </trkpt>
      <trkpt lat="42.95104299999994" lon="-1.4650369999999957">
        <ele>812.806</ele>
        <time>2022-08-24T14:27:54Z</time>
      </trkpt>
      <trkpt lat="42.95104099999994" lon="-1.4650339999999957">
        <ele>813.016</ele>
        <time>2022-08-24T14:27:55Z</time>
      </trkpt>
      <trkpt lat="42.95102999999994" lon="-1.4650219999999958">
        <ele>813.209</ele>
        <time>2022-08-24T14:27:56Z</time>
      </trkpt>
      <trkpt lat="42.95101299999994" lon="-1.465017999999996">
        <ele>813.217</ele>
        <time>2022-08-24T14:27:57Z</time>
      </trkpt>
      <trkpt lat="42.95100399999994" lon="-1.465017999999996">
        <ele>813.417</ele>
        <time>2022-08-24T14:27:58Z</time>
      </trkpt>
      <trkpt lat="42.95100199999994" lon="-1.4650159999999959">
        <ele>813.647</ele>
        <time>2022-08-24T14:27:59Z</time>
      </trkpt>
      <trkpt lat="42.950960999999936" lon="-1.465020999999996">
        <ele>813.863</ele>
        <time>2022-08-24T14:28:00Z</time>
      </trkpt>
      <trkpt lat="42.95095699999994" lon="-1.465020999999996">
        <ele>814.085</ele>
        <time>2022-08-24T14:28:01Z</time>
      </trkpt>
      <trkpt lat="42.95094599999994" lon="-1.4650109999999958">
        <ele>814.252</ele>
        <time>2022-08-24T14:28:02Z</time>
      </trkpt>
      <trkpt lat="42.950929999999936" lon="-1.4649979999999958">
        <ele>814.225</ele>
        <time>2022-08-24T14:28:03Z</time>
      </trkpt>
      <trkpt lat="42.95090299999993" lon="-1.4649849999999958">
        <ele>814.829</ele>
        <time>2022-08-24T14:28:04Z</time>
      </trkpt>
      <trkpt lat="42.95088699999993" lon="-1.4649839999999958">
        <ele>814.888</ele>
        <time>2022-08-24T14:28:05Z</time>
      </trkpt>
      <trkpt lat="42.95088399999993" lon="-1.464963999999996">
        <ele>815.258</ele>
        <time>2022-08-24T14:28:06Z</time>
      </trkpt>
      <trkpt lat="42.95087299999993" lon="-1.4649489999999958">
        <ele>815.052</ele>
        <time>2022-08-24T14:28:07Z</time>
      </trkpt>
      <trkpt lat="42.95086999999993" lon="-1.4649469999999958">
        <ele>815.217</ele>
        <time>2022-08-24T14:28:08Z</time>
      </trkpt>
      <trkpt lat="42.95086999999993" lon="-1.4649469999999958">
        <ele>815.409</ele>
        <time>2022-08-24T14:28:09Z</time>
      </trkpt>
      <trkpt lat="42.95086999999993" lon="-1.4649459999999959">
        <ele>816.296</ele>
        <time>2022-08-24T14:28:24Z</time>
      </trkpt>
      <trkpt lat="42.95086999999993" lon="-1.4649459999999959">
        <ele>816.236</ele>
        <time>2022-08-24T14:28:25Z</time>
      </trkpt>
      <trkpt lat="42.95086899999993" lon="-1.464944999999996">
        <ele>816.226</ele>
        <time>2022-08-24T14:28:26Z</time>
      </trkpt>
      <trkpt lat="42.95086899999993" lon="-1.464944999999996">
        <ele>816.422</ele>
        <time>2022-08-24T14:28:27Z</time>
      </trkpt>
      <trkpt lat="42.95086899999993" lon="-1.464944999999996">
        <ele>816.454</ele>
        <time>2022-08-24T14:28:28Z</time>
      </trkpt>
      <trkpt lat="42.95086899999993" lon="-1.464944999999996">
        <ele>816.491</ele>
        <time>2022-08-24T14:28:29Z</time>
      </trkpt>
      <trkpt lat="42.95086899999993" lon="-1.464944999999996">
        <ele>816.444</ele>
        <time>2022-08-24T14:28:31Z</time>
      </trkpt>
      <trkpt lat="42.95086899999993" lon="-1.464944999999996">
        <ele>816.848</ele>
        <time>2022-08-24T14:28:32Z</time>
      </trkpt>
      <trkpt lat="42.950865999999934" lon="-1.464940999999996">
        <ele>816.687</ele>
        <time>2022-08-24T14:28:33Z</time>
      </trkpt>
      <trkpt lat="42.950865999999934" lon="-1.464940999999996">
        <ele>817.038</ele>
        <time>2022-08-24T14:28:39Z</time>
      </trkpt>
      <trkpt lat="42.95086399999993" lon="-1.464937999999996">
        <ele>817.070</ele>
        <time>2022-08-24T14:28:40Z</time>
      </trkpt>
      <trkpt lat="42.95086099999993" lon="-1.464932999999996">
        <ele>817.217</ele>
        <time>2022-08-24T14:28:42Z</time>
      </trkpt>
      <trkpt lat="42.95086099999993" lon="-1.464932999999996">
        <ele>817.609</ele>
        <time>2022-08-24T14:28:47Z</time>
      </trkpt>
      <trkpt lat="42.950839999999936" lon="-1.464905999999996">
        <ele>817.634</ele>
        <time>2022-08-24T14:28:48Z</time>
      </trkpt>
      <trkpt lat="42.95083899999994" lon="-1.4649049999999961">
        <ele>817.854</ele>
        <time>2022-08-24T14:28:49Z</time>
      </trkpt>
      <trkpt lat="42.95083499999994" lon="-1.464899999999996">
        <ele>817.824</ele>
        <time>2022-08-24T14:28:50Z</time>
      </trkpt>
      <trkpt lat="42.950833999999944" lon="-1.4648859999999961">
        <ele>817.820</ele>
        <time>2022-08-24T14:28:51Z</time>
      </trkpt>
      <trkpt lat="42.950833999999944" lon="-1.4648859999999961">
        <ele>818.082</ele>
        <time>2022-08-24T14:28:53Z</time>
      </trkpt>
      <trkpt lat="42.950833999999944" lon="-1.4648859999999961">
        <ele>818.079</ele>
        <time>2022-08-24T14:28:54Z</time>
      </trkpt>
      <trkpt lat="42.950824999999945" lon="-1.4648779999999961">
        <ele>818.462</ele>
        <time>2022-08-24T14:28:58Z</time>
      </trkpt>
      <trkpt lat="42.95080999999995" lon="-1.464854999999996">
        <ele>818.436</ele>
        <time>2022-08-24T14:28:59Z</time>
      </trkpt>
      <trkpt lat="42.950801999999946" lon="-1.464841999999996">
        <ele>818.475</ele>
        <time>2022-08-24T14:29:00Z</time>
      </trkpt>
      <trkpt lat="42.95079299999995" lon="-1.464833999999996">
        <ele>818.648</ele>
        <time>2022-08-24T14:29:01Z</time>
      </trkpt>
      <trkpt lat="42.95078399999995" lon="-1.464825999999996">
        <ele>818.661</ele>
        <time>2022-08-24T14:29:02Z</time>
      </trkpt>
      <trkpt lat="42.95077599999995" lon="-1.464816999999996">
        <ele>818.817</ele>
        <time>2022-08-24T14:29:03Z</time>
      </trkpt>
      <trkpt lat="42.95076699999995" lon="-1.464808999999996">
        <ele>818.809</ele>
        <time>2022-08-24T14:29:04Z</time>
      </trkpt>
      <trkpt lat="42.95075799999995" lon="-1.464800999999996">
        <ele>819.075</ele>
        <time>2022-08-24T14:29:05Z</time>
      </trkpt>
      <trkpt lat="42.95074899999995" lon="-1.464792999999996">
        <ele>819.075</ele>
        <time>2022-08-24T14:29:06Z</time>
      </trkpt>
      <trkpt lat="42.95074099999995" lon="-1.464784999999996">
        <ele>819.075</ele>
        <time>2022-08-24T14:29:07Z</time>
      </trkpt>
      <trkpt lat="42.95074099999995" lon="-1.464784999999996">
        <ele>819.281</ele>
        <time>2022-08-24T14:29:08Z</time>
      </trkpt>
      <trkpt lat="42.95074099999995" lon="-1.464784999999996">
        <ele>819.223</ele>
        <time>2022-08-24T14:29:09Z</time>
      </trkpt>
      <trkpt lat="42.95071199999995" lon="-1.464751999999996">
        <ele>819.640</ele>
        <time>2022-08-24T14:29:12Z</time>
      </trkpt>
      <trkpt lat="42.95071199999995" lon="-1.464751999999996">
        <ele>819.893</ele>
        <time>2022-08-24T14:29:13Z</time>
      </trkpt>
      <trkpt lat="42.95071199999995" lon="-1.464751999999996">
        <ele>819.877</ele>
        <time>2022-08-24T14:29:14Z</time>
      </trkpt>
      <trkpt lat="42.95071199999995" lon="-1.464751999999996">
        <ele>820.046</ele>
        <time>2022-08-24T14:29:15Z</time>
      </trkpt>
      <trkpt lat="42.95071199999995" lon="-1.464751999999996">
        <ele>820.089</ele>
        <time>2022-08-24T14:29:16Z</time>
      </trkpt>
      <trkpt lat="42.950710999999956" lon="-1.464749999999996">
        <ele>820.206</ele>
        <time>2022-08-24T14:29:17Z</time>
      </trkpt>
      <trkpt lat="42.950710999999956" lon="-1.464749999999996">
        <ele>820.426</ele>
        <time>2022-08-24T14:29:18Z</time>
      </trkpt>
      <trkpt lat="42.950710999999956" lon="-1.464749999999996">
        <ele>820.609</ele>
        <time>2022-08-24T14:29:23Z</time>
      </trkpt>
      <trkpt lat="42.950707999999956" lon="-1.464746999999996">
        <ele>820.889</ele>
        <time>2022-08-24T14:29:27Z</time>
      </trkpt>
      <trkpt lat="42.950707999999956" lon="-1.464746999999996">
        <ele>821.079</ele>
        <time>2022-08-24T14:29:29Z</time>
      </trkpt>
      <trkpt lat="42.95070199999996" lon="-1.464739999999996">
        <ele>821.289</ele>
        <time>2022-08-24T14:29:32Z</time>
      </trkpt>
      <trkpt lat="42.95070199999996" lon="-1.464739999999996">
        <ele>821.815</ele>
        <time>2022-08-24T14:29:38Z</time>
      </trkpt>
      <trkpt lat="42.950679999999956" lon="-1.464715999999996">
        <ele>822.037</ele>
        <time>2022-08-24T14:29:40Z</time>
      </trkpt>
      <trkpt lat="42.950668999999955" lon="-1.464714999999996">
        <ele>822.024</ele>
        <time>2022-08-24T14:29:41Z</time>
      </trkpt>
      <trkpt lat="42.950665999999956" lon="-1.464713999999996">
        <ele>822.227</ele>
        <time>2022-08-24T14:29:42Z</time>
      </trkpt>
      <trkpt lat="42.95064199999995" lon="-1.464670999999996">
        <ele>822.841</ele>
        <time>2022-08-24T14:29:56Z</time>
      </trkpt>
      <trkpt lat="42.950634999999956" lon="-1.464660999999996">
        <ele>822.830</ele>
        <time>2022-08-24T14:29:57Z</time>
      </trkpt>
      <trkpt lat="42.95062899999996" lon="-1.464649999999996">
        <ele>823.274</ele>
        <time>2022-08-24T14:29:58Z</time>
      </trkpt>
      <trkpt lat="42.95058899999996" lon="-1.464612999999996">
        <ele>823.256</ele>
        <time>2022-08-24T14:29:59Z</time>
      </trkpt>
      <trkpt lat="42.95057999999996" lon="-1.4645979999999958">
        <ele>823.421</ele>
        <time>2022-08-24T14:30:00Z</time>
      </trkpt>
      <trkpt lat="42.95056299999996" lon="-1.4645659999999958">
        <ele>823.609</ele>
        <time>2022-08-24T14:30:01Z</time>
      </trkpt>
      <trkpt lat="42.95053299999996" lon="-1.4645399999999957">
        <ele>823.828</ele>
        <time>2022-08-24T14:30:02Z</time>
      </trkpt>
      <trkpt lat="42.950516999999955" lon="-1.4645069999999958">
        <ele>823.888</ele>
        <time>2022-08-24T14:30:04Z</time>
      </trkpt>
      <trkpt lat="42.950496999999956" lon="-1.4644929999999958">
        <ele>824.028</ele>
        <time>2022-08-24T14:30:05Z</time>
      </trkpt>
      <trkpt lat="42.95049599999996" lon="-1.4644909999999958">
        <ele>824.034</ele>
        <time>2022-08-24T14:30:06Z</time>
      </trkpt>
      <trkpt lat="42.95049599999996" lon="-1.4644909999999958">
        <ele>824.016</ele>
        <time>2022-08-24T14:30:08Z</time>
      </trkpt>
      <trkpt lat="42.95049599999996" lon="-1.4644909999999958">
        <ele>824.223</ele>
        <time>2022-08-24T14:30:09Z</time>
      </trkpt>
      <trkpt lat="42.95041699999996" lon="-1.4643699999999957">
        <ele>824.866</ele>
        <time>2022-08-24T14:30:18Z</time>
      </trkpt>
      <trkpt lat="42.95041399999996" lon="-1.4643659999999958">
        <ele>824.860</ele>
        <time>2022-08-24T14:30:19Z</time>
      </trkpt>
      <trkpt lat="42.95041399999996" lon="-1.4643659999999958">
        <ele>825.259</ele>
        <time>2022-08-24T14:30:23Z</time>
      </trkpt>
      <trkpt lat="42.95037699999996" lon="-1.4642799999999958">
        <ele>825.634</ele>
        <time>2022-08-24T14:30:27Z</time>
      </trkpt>
      <trkpt lat="42.95036499999996" lon="-1.4642289999999958">
        <ele>825.655</ele>
        <time>2022-08-24T14:30:29Z</time>
      </trkpt>
      <trkpt lat="42.950352999999964" lon="-1.464197999999996">
        <ele>825.810</ele>
        <time>2022-08-24T14:30:31Z</time>
      </trkpt>
      <trkpt lat="42.950352999999964" lon="-1.464197999999996">
        <ele>825.809</ele>
        <time>2022-08-24T14:30:32Z</time>
      </trkpt>
      <trkpt lat="42.950352999999964" lon="-1.464197999999996">
        <ele>826.084</ele>
        <time>2022-08-24T14:30:33Z</time>
      </trkpt>
      <trkpt lat="42.950352999999964" lon="-1.464197999999996">
        <ele>826.054</ele>
        <time>2022-08-24T14:30:34Z</time>
      </trkpt>
      <trkpt lat="42.950352999999964" lon="-1.464197999999996">
        <ele>826.034</ele>
        <time>2022-08-24T14:30:35Z</time>
      </trkpt>
      <trkpt lat="42.95034899999997" lon="-1.464169999999996">
        <ele>826.240</ele>
        <time>2022-08-24T14:30:36Z</time>
      </trkpt>
      <trkpt lat="42.950346999999965" lon="-1.464147999999996">
        <ele>826.242</ele>
        <time>2022-08-24T14:30:37Z</time>
      </trkpt>
      <trkpt lat="42.950346999999965" lon="-1.464144999999996">
        <ele>826.249</ele>
        <time>2022-08-24T14:30:38Z</time>
      </trkpt>
      <trkpt lat="42.950346999999965" lon="-1.464144999999996">
        <ele>826.422</ele>
        <time>2022-08-24T14:30:39Z</time>
      </trkpt>
      <trkpt lat="42.950341999999964" lon="-1.464119999999996">
        <ele>826.426</ele>
        <time>2022-08-24T14:30:41Z</time>
      </trkpt>
      <trkpt lat="42.950318999999965" lon="-1.4641079999999962">
        <ele>826.445</ele>
        <time>2022-08-24T14:30:42Z</time>
      </trkpt>
      <trkpt lat="42.95031799999997" lon="-1.4641059999999961">
        <ele>826.465</ele>
        <time>2022-08-24T14:30:43Z</time>
      </trkpt>
      <trkpt lat="42.950318999999965" lon="-1.4640919999999962">
        <ele>826.668</ele>
        <time>2022-08-24T14:30:44Z</time>
      </trkpt>
      <trkpt lat="42.95030299999996" lon="-1.4640559999999962">
        <ele>826.614</ele>
        <time>2022-08-24T14:30:47Z</time>
      </trkpt>
      <trkpt lat="42.95030299999996" lon="-1.4640369999999963">
        <ele>826.809</ele>
        <time>2022-08-24T14:30:48Z</time>
      </trkpt>
      <trkpt lat="42.950301999999965" lon="-1.4640329999999964">
        <ele>826.837</ele>
        <time>2022-08-24T14:30:49Z</time>
      </trkpt>
      <trkpt lat="42.950293999999964" lon="-1.4640239999999964">
        <ele>826.867</ele>
        <time>2022-08-24T14:30:50Z</time>
      </trkpt>
      <trkpt lat="42.95027599999997" lon="-1.4640119999999965">
        <ele>826.867</ele>
        <time>2022-08-24T14:30:51Z</time>
      </trkpt>
      <trkpt lat="42.95025899999997" lon="-1.4639879999999965">
        <ele>827.093</ele>
        <time>2022-08-24T14:30:52Z</time>
      </trkpt>
      <trkpt lat="42.950250999999966" lon="-1.4639669999999965">
        <ele>827.015</ele>
        <time>2022-08-24T14:30:53Z</time>
      </trkpt>
      <trkpt lat="42.950253999999966" lon="-1.4639559999999965">
        <ele>827.092</ele>
        <time>2022-08-24T14:30:54Z</time>
      </trkpt>
      <trkpt lat="42.95024399999996" lon="-1.4639399999999965">
        <ele>827.225</ele>
        <time>2022-08-24T14:30:59Z</time>
      </trkpt>
      <trkpt lat="42.95024099999996" lon="-1.4639319999999965">
        <ele>827.289</ele>
        <time>2022-08-24T14:31:00Z</time>
      </trkpt>
      <trkpt lat="42.950239999999965" lon="-1.4639279999999966">
        <ele>827.488</ele>
        <time>2022-08-24T14:31:01Z</time>
      </trkpt>
      <trkpt lat="42.95023099999997" lon="-1.4638739999999966">
        <ele>827.861</ele>
        <time>2022-08-24T14:31:05Z</time>
      </trkpt>
      <trkpt lat="42.950231999999964" lon="-1.4638609999999965">
        <ele>827.821</ele>
        <time>2022-08-24T14:31:06Z</time>
      </trkpt>
      <trkpt lat="42.950231999999964" lon="-1.4638539999999964">
        <ele>828.013</ele>
        <time>2022-08-24T14:31:07Z</time>
      </trkpt>
      <trkpt lat="42.950233999999966" lon="-1.4638429999999965">
        <ele>828.009</ele>
        <time>2022-08-24T14:31:08Z</time>
      </trkpt>
      <trkpt lat="42.95023599999997" lon="-1.4638399999999965">
        <ele>828.277</ele>
        <time>2022-08-24T14:31:09Z</time>
      </trkpt>
      <trkpt lat="42.95023599999997" lon="-1.4638399999999965">
        <ele>828.257</ele>
        <time>2022-08-24T14:31:10Z</time>
      </trkpt>
      <trkpt lat="42.95022099999997" lon="-1.4638339999999965">
        <ele>828.417</ele>
        <time>2022-08-24T14:31:11Z</time>
      </trkpt>
      <trkpt lat="42.95021999999997" lon="-1.4638309999999966">
        <ele>828.463</ele>
        <time>2022-08-24T14:31:12Z</time>
      </trkpt>
      <trkpt lat="42.95021999999997" lon="-1.4638309999999966">
        <ele>828.425</ele>
        <time>2022-08-24T14:31:13Z</time>
      </trkpt>
      <trkpt lat="42.950218999999976" lon="-1.4638269999999967">
        <ele>828.662</ele>
        <time>2022-08-24T14:31:14Z</time>
      </trkpt>
      <trkpt lat="42.95021799999998" lon="-1.4638239999999967">
        <ele>828.645</ele>
        <time>2022-08-24T14:31:15Z</time>
      </trkpt>
      <trkpt lat="42.95021499999998" lon="-1.4638159999999967">
        <ele>828.889</ele>
        <time>2022-08-24T14:31:17Z</time>
      </trkpt>
      <trkpt lat="42.95021399999998" lon="-1.4638059999999966">
        <ele>828.868</ele>
        <time>2022-08-24T14:31:18Z</time>
      </trkpt>
      <trkpt lat="42.95021499999998" lon="-1.4638019999999967">
        <ele>828.857</ele>
        <time>2022-08-24T14:31:19Z</time>
      </trkpt>
      <trkpt lat="42.95021499999998" lon="-1.4638019999999967">
        <ele>829.000</ele>
        <time>2022-08-24T14:31:20Z</time>
      </trkpt>
      <trkpt lat="42.95021499999998" lon="-1.4638019999999967">
        <ele>829.420</ele>
        <time>2022-08-24T14:31:25Z</time>
      </trkpt>
      <trkpt lat="42.95021499999998" lon="-1.4638019999999967">
        <ele>829.809</ele>
        <time>2022-08-24T14:31:29Z</time>
      </trkpt>
      <trkpt lat="42.95021499999998" lon="-1.4638019999999967">
        <ele>829.836</ele>
        <time>2022-08-24T14:31:30Z</time>
      </trkpt>
      <trkpt lat="42.95021399999998" lon="-1.4637939999999967">
        <ele>830.446</ele>
        <time>2022-08-24T14:31:36Z</time>
      </trkpt>
      <trkpt lat="42.95021399999998" lon="-1.4637789999999966">
        <ele>830.686</ele>
        <time>2022-08-24T14:31:37Z</time>
      </trkpt>
      <trkpt lat="42.95021399999998" lon="-1.4637789999999966">
        <ele>830.652</ele>
        <time>2022-08-24T14:31:38Z</time>
      </trkpt>
      <trkpt lat="42.95021199999998" lon="-1.4637699999999967">
        <ele>830.684</ele>
        <time>2022-08-24T14:31:39Z</time>
      </trkpt>
      <trkpt lat="42.950201999999976" lon="-1.4637579999999968">
        <ele>830.821</ele>
        <time>2022-08-24T14:31:42Z</time>
      </trkpt>
      <trkpt lat="42.950201999999976" lon="-1.4637579999999968">
        <ele>830.844</ele>
        <time>2022-08-24T14:31:43Z</time>
      </trkpt>
      <trkpt lat="42.950185999999974" lon="-1.4637479999999967">
        <ele>831.218</ele>
        <time>2022-08-24T14:31:47Z</time>
      </trkpt>
      <trkpt lat="42.950185999999974" lon="-1.4637479999999967">
        <ele>831.287</ele>
        <time>2022-08-24T14:31:48Z</time>
      </trkpt>
      <trkpt lat="42.95017499999997" lon="-1.4637469999999968">
        <ele>831.454</ele>
        <time>2022-08-24T14:31:53Z</time>
      </trkpt>
      <trkpt lat="42.950123999999974" lon="-1.4637469999999968">
        <ele>832.256</ele>
        <time>2022-08-24T14:32:01Z</time>
      </trkpt>
      <trkpt lat="42.95012299999998" lon="-1.4637469999999968">
        <ele>832.211</ele>
        <time>2022-08-24T14:32:02Z</time>
      </trkpt>
      <trkpt lat="42.95012299999998" lon="-1.4637469999999968">
        <ele>832.409</ele>
        <time>2022-08-24T14:32:03Z</time>
      </trkpt>
      <trkpt lat="42.95012199999998" lon="-1.4637489999999969">
        <ele>832.436</ele>
        <time>2022-08-24T14:32:04Z</time>
      </trkpt>
      <trkpt lat="42.95011499999998" lon="-1.4637549999999968">
        <ele>832.836</ele>
        <time>2022-08-24T14:32:06Z</time>
      </trkpt>
      <trkpt lat="42.95011499999998" lon="-1.4637549999999968">
        <ele>832.826</ele>
        <time>2022-08-24T14:32:07Z</time>
      </trkpt>
      <trkpt lat="42.95010499999998" lon="-1.4637569999999969">
        <ele>833.052</ele>
        <time>2022-08-24T14:32:08Z</time>
      </trkpt>
      <trkpt lat="42.95010499999998" lon="-1.4637569999999969">
        <ele>833.064</ele>
        <time>2022-08-24T14:32:09Z</time>
      </trkpt>
      <trkpt lat="42.95008699999998" lon="-1.463769999999997">
        <ele>833.261</ele>
        <time>2022-08-24T14:32:12Z</time>
      </trkpt>
      <trkpt lat="42.95008499999998" lon="-1.4637739999999968">
        <ele>833.224</ele>
        <time>2022-08-24T14:32:13Z</time>
      </trkpt>
      <trkpt lat="42.95008499999998" lon="-1.4637739999999968">
        <ele>833.278</ele>
        <time>2022-08-24T14:32:14Z</time>
      </trkpt>
      <trkpt lat="42.95008299999998" lon="-1.463780999999997">
        <ele>833.457</ele>
        <time>2022-08-24T14:32:15Z</time>
      </trkpt>
      <trkpt lat="42.95008199999998" lon="-1.4637849999999968">
        <ele>833.497</ele>
        <time>2022-08-24T14:32:16Z</time>
      </trkpt>
      <trkpt lat="42.95008099999998" lon="-1.4637869999999968">
        <ele>833.423</ele>
        <time>2022-08-24T14:32:17Z</time>
      </trkpt>
      <trkpt lat="42.95007599999998" lon="-1.463788999999997">
        <ele>833.425</ele>
        <time>2022-08-24T14:32:20Z</time>
      </trkpt>
      <trkpt lat="42.95006499999998" lon="-1.4637999999999969">
        <ele>833.809</ele>
        <time>2022-08-24T14:32:23Z</time>
      </trkpt>
      <trkpt lat="42.95006499999998" lon="-1.4637999999999969">
        <ele>833.810</ele>
        <time>2022-08-24T14:32:24Z</time>
      </trkpt>
      <trkpt lat="42.94999299999998" lon="-1.4638839999999969">
        <ele>834.250</ele>
        <time>2022-08-24T14:33:17Z</time>
      </trkpt>
      <trkpt lat="42.94998699999998" lon="-1.463906999999997">
        <ele>834.050</ele>
        <time>2022-08-24T14:33:19Z</time>
      </trkpt>
      <trkpt lat="42.949959999999976" lon="-1.463955999999997">
        <ele>834.016</ele>
        <time>2022-08-24T14:33:22Z</time>
      </trkpt>
      <trkpt lat="42.94995099999998" lon="-1.4639679999999968">
        <ele>834.048</ele>
        <time>2022-08-24T14:33:23Z</time>
      </trkpt>
      <trkpt lat="42.949940999999974" lon="-1.4639849999999968">
        <ele>834.015</ele>
        <time>2022-08-24T14:33:24Z</time>
      </trkpt>
      <trkpt lat="42.94992499999997" lon="-1.4640169999999968">
        <ele>834.238</ele>
        <time>2022-08-24T14:33:25Z</time>
      </trkpt>
      <trkpt lat="42.94988499999997" lon="-1.4641119999999967">
        <ele>834.462</ele>
        <time>2022-08-24T14:33:30Z</time>
      </trkpt>
      <trkpt lat="42.94986099999997" lon="-1.4641519999999968">
        <ele>834.681</ele>
        <time>2022-08-24T14:33:32Z</time>
      </trkpt>
      <trkpt lat="42.94986099999997" lon="-1.4641519999999968">
        <ele>834.849</ele>
        <time>2022-08-24T14:33:33Z</time>
      </trkpt>
      <trkpt lat="42.94985199999997" lon="-1.4641739999999968">
        <ele>835.002</ele>
        <time>2022-08-24T14:33:34Z</time>
      </trkpt>
      <trkpt lat="42.94979099999997" lon="-1.4643139999999968">
        <ele>835.822</ele>
        <time>2022-08-24T14:33:38Z</time>
      </trkpt>
      <trkpt lat="42.94978499999997" lon="-1.4643389999999967">
        <ele>836.009</ele>
        <time>2022-08-24T14:33:40Z</time>
      </trkpt>
      <trkpt lat="42.94975099999997" lon="-1.4644159999999968">
        <ele>836.445</ele>
        <time>2022-08-24T14:33:42Z</time>
      </trkpt>
      <trkpt lat="42.94974299999997" lon="-1.4644549999999967">
        <ele>836.655</ele>
        <time>2022-08-24T14:33:44Z</time>
      </trkpt>
      <trkpt lat="42.94972599999997" lon="-1.4644919999999968">
        <ele>836.865</ele>
        <time>2022-08-24T14:33:45Z</time>
      </trkpt>
      <trkpt lat="42.94972599999997" lon="-1.4644919999999968">
        <ele>836.821</ele>
        <time>2022-08-24T14:33:46Z</time>
      </trkpt>
      <trkpt lat="42.949732999999966" lon="-1.4645249999999967">
        <ele>837.073</ele>
        <time>2022-08-24T14:33:47Z</time>
      </trkpt>
      <trkpt lat="42.94972999999997" lon="-1.4645419999999967">
        <ele>837.250</ele>
        <time>2022-08-24T14:33:48Z</time>
      </trkpt>
      <trkpt lat="42.94972099999997" lon="-1.4645579999999967">
        <ele>837.423</ele>
        <time>2022-08-24T14:33:49Z</time>
      </trkpt>
      <trkpt lat="42.94971499999997" lon="-1.4645709999999967">
        <ele>837.657</ele>
        <time>2022-08-24T14:33:50Z</time>
      </trkpt>
      <trkpt lat="42.94970699999997" lon="-1.4645829999999966">
        <ele>837.836</ele>
        <time>2022-08-24T14:33:51Z</time>
      </trkpt>
      <trkpt lat="42.94969299999997" lon="-1.4645979999999967">
        <ele>837.869</ele>
        <time>2022-08-24T14:33:52Z</time>
      </trkpt>
      <trkpt lat="42.94968599999997" lon="-1.4646129999999968">
        <ele>838.004</ele>
        <time>2022-08-24T14:33:53Z</time>
      </trkpt>
      <trkpt lat="42.94968599999997" lon="-1.4646129999999968">
        <ele>838.024</ele>
        <time>2022-08-24T14:33:54Z</time>
      </trkpt>
      <trkpt lat="42.94968299999997" lon="-1.4646319999999968">
        <ele>838.009</ele>
        <time>2022-08-24T14:33:55Z</time>
      </trkpt>
      <trkpt lat="42.94966699999997" lon="-1.4646649999999968">
        <ele>837.887</ele>
        <time>2022-08-24T14:33:56Z</time>
      </trkpt>
      <trkpt lat="42.94965899999997" lon="-1.4646859999999968">
        <ele>837.877</ele>
        <time>2022-08-24T14:33:57Z</time>
      </trkpt>
      <trkpt lat="42.94964699999997" lon="-1.4647149999999969">
        <ele>837.817</ele>
        <time>2022-08-24T14:33:58Z</time>
      </trkpt>
      <trkpt lat="42.94963099999997" lon="-1.4647479999999968">
        <ele>838.083</ele>
        <time>2022-08-24T14:33:59Z</time>
      </trkpt>
      <trkpt lat="42.94960899999997" lon="-1.4647749999999968">
        <ele>838.055</ele>
        <time>2022-08-24T14:34:00Z</time>
      </trkpt>
      <trkpt lat="42.94958499999996" lon="-1.464808999999997">
        <ele>838.092</ele>
        <time>2022-08-24T14:34:01Z</time>
      </trkpt>
      <trkpt lat="42.94956899999996" lon="-1.464856999999997">
        <ele>838.075</ele>
        <time>2022-08-24T14:34:02Z</time>
      </trkpt>
      <trkpt lat="42.949553999999964" lon="-1.464892999999997">
        <ele>837.869</ele>
        <time>2022-08-24T14:34:03Z</time>
      </trkpt>
      <trkpt lat="42.94954099999996" lon="-1.464924999999997">
        <ele>837.858</ele>
        <time>2022-08-24T14:34:04Z</time>
      </trkpt>
      <trkpt lat="42.949536999999964" lon="-1.464959999999997">
        <ele>837.875</ele>
        <time>2022-08-24T14:34:05Z</time>
      </trkpt>
      <trkpt lat="42.949527999999965" lon="-1.465012999999997">
        <ele>837.828</ele>
        <time>2022-08-24T14:34:06Z</time>
      </trkpt>
      <trkpt lat="42.949516999999965" lon="-1.465067999999997">
        <ele>837.620</ele>
        <time>2022-08-24T14:34:07Z</time>
      </trkpt>
      <trkpt lat="42.949490999999966" lon="-1.4651739999999969">
        <ele>837.609</ele>
        <time>2022-08-24T14:34:09Z</time>
      </trkpt>
      <trkpt lat="42.949392999999965" lon="-1.465480999999997">
        <ele>837.048</ele>
        <time>2022-08-24T14:34:15Z</time>
      </trkpt>
      <trkpt lat="42.94937999999996" lon="-1.465564999999997">
        <ele>837.048</ele>
        <time>2022-08-24T14:34:17Z</time>
      </trkpt>
      <trkpt lat="42.949364999999965" lon="-1.4656039999999968">
        <ele>836.838</ele>
        <time>2022-08-24T14:34:18Z</time>
      </trkpt>
      <trkpt lat="42.94932099999996" lon="-1.4656719999999968">
        <ele>836.894</ele>
        <time>2022-08-24T14:34:20Z</time>
      </trkpt>
      <trkpt lat="42.94927999999996" lon="-1.4657079999999967">
        <ele>836.686</ele>
        <time>2022-08-24T14:34:21Z</time>
      </trkpt>
      <trkpt lat="42.94925899999996" lon="-1.4657519999999966">
        <ele>836.673</ele>
        <time>2022-08-24T14:34:22Z</time>
      </trkpt>
      <trkpt lat="42.949243999999965" lon="-1.4658089999999966">
        <ele>836.426</ele>
        <time>2022-08-24T14:34:23Z</time>
      </trkpt>
      <trkpt lat="42.94920799999996" lon="-1.4658729999999967">
        <ele>836.470</ele>
        <time>2022-08-24T14:34:25Z</time>
      </trkpt>
      <trkpt lat="42.94913899999996" lon="-1.4659339999999967">
        <ele>836.429</ele>
        <time>2022-08-24T14:34:27Z</time>
      </trkpt>
      <trkpt lat="42.94911299999996" lon="-1.4659719999999967">
        <ele>836.485</ele>
        <time>2022-08-24T14:34:28Z</time>
      </trkpt>
      <trkpt lat="42.94908799999996" lon="-1.4660089999999968">
        <ele>836.489</ele>
        <time>2022-08-24T14:34:29Z</time>
      </trkpt>
      <trkpt lat="42.94903199999996" lon="-1.4660879999999967">
        <ele>836.417</ele>
        <time>2022-08-24T14:34:31Z</time>
      </trkpt>
      <trkpt lat="42.94900799999996" lon="-1.4661259999999967">
        <ele>836.409</ele>
        <time>2022-08-24T14:34:32Z</time>
      </trkpt>
      <trkpt lat="42.948960999999954" lon="-1.4661979999999968">
        <ele>836.419</ele>
        <time>2022-08-24T14:34:34Z</time>
      </trkpt>
      <trkpt lat="42.94890599999995" lon="-1.4662679999999968">
        <ele>836.439</ele>
        <time>2022-08-24T14:34:36Z</time>
      </trkpt>
      <trkpt lat="42.94888699999995" lon="-1.4663039999999967">
        <ele>836.439</ele>
        <time>2022-08-24T14:34:37Z</time>
      </trkpt>
      <trkpt lat="42.94886499999995" lon="-1.4663359999999968">
        <ele>836.065</ele>
        <time>2022-08-24T14:34:38Z</time>
      </trkpt>
      <trkpt lat="42.94883899999995" lon="-1.4663699999999968">
        <ele>835.897</ele>
        <time>2022-08-24T14:34:39Z</time>
      </trkpt>
      <trkpt lat="42.94881299999995" lon="-1.4664009999999967">
        <ele>835.664</ele>
        <time>2022-08-24T14:34:40Z</time>
      </trkpt>
      <trkpt lat="42.94870999999995" lon="-1.4664869999999968">
        <ele>835.047</ele>
        <time>2022-08-24T14:34:43Z</time>
      </trkpt>
      <trkpt lat="42.94867899999995" lon="-1.4665159999999968">
        <ele>834.651</ele>
        <time>2022-08-24T14:34:44Z</time>
      </trkpt>
      <trkpt lat="42.94865299999995" lon="-1.4665449999999969">
        <ele>834.280</ele>
        <time>2022-08-24T14:34:45Z</time>
      </trkpt>
      <trkpt lat="42.94860399999995" lon="-1.4666339999999969">
        <ele>834.082</ele>
        <time>2022-08-24T14:34:47Z</time>
      </trkpt>
      <trkpt lat="42.94857399999995" lon="-1.4666969999999968">
        <ele>834.043</ele>
        <time>2022-08-24T14:34:48Z</time>
      </trkpt>
      <trkpt lat="42.94855199999995" lon="-1.4667329999999967">
        <ele>834.017</ele>
        <time>2022-08-24T14:34:49Z</time>
      </trkpt>
      <trkpt lat="42.948527999999946" lon="-1.4667639999999966">
        <ele>834.009</ele>
        <time>2022-08-24T14:34:50Z</time>
      </trkpt>
      <trkpt lat="42.948466999999944" lon="-1.4668409999999967">
        <ele>834.049</ele>
        <time>2022-08-24T14:34:53Z</time>
      </trkpt>
      <trkpt lat="42.94843399999994" lon="-1.4668759999999967">
        <ele>834.289</ele>
        <time>2022-08-24T14:34:54Z</time>
      </trkpt>
      <trkpt lat="42.94836599999994" lon="-1.4669409999999967">
        <ele>834.249</ele>
        <time>2022-08-24T14:34:56Z</time>
      </trkpt>
      <trkpt lat="42.94828799999994" lon="-1.4669879999999966">
        <ele>834.225</ele>
        <time>2022-08-24T14:34:58Z</time>
      </trkpt>
      <trkpt lat="42.94824299999994" lon="-1.4670209999999966">
        <ele>834.227</ele>
        <time>2022-08-24T14:34:59Z</time>
      </trkpt>
      <trkpt lat="42.94821299999994" lon="-1.4670419999999966">
        <ele>834.264</ele>
        <time>2022-08-24T14:35:01Z</time>
      </trkpt>
      <trkpt lat="42.94811199999994" lon="-1.4670939999999966">
        <ele>834.037</ele>
        <time>2022-08-24T14:35:02Z</time>
      </trkpt>
      <trkpt lat="42.948056999999935" lon="-1.4671269999999965">
        <ele>834.091</ele>
        <time>2022-08-24T14:35:03Z</time>
      </trkpt>
      <trkpt lat="42.94801899999993" lon="-1.4671479999999966">
        <ele>833.830</ele>
        <time>2022-08-24T14:35:04Z</time>
      </trkpt>
      <trkpt lat="42.94798199999993" lon="-1.4671609999999966">
        <ele>833.662</ele>
        <time>2022-08-24T14:35:05Z</time>
      </trkpt>
      <trkpt lat="42.947960999999935" lon="-1.4671719999999966">
        <ele>833.283</ele>
        <time>2022-08-24T14:35:06Z</time>
      </trkpt>
      <trkpt lat="42.94793099999993" lon="-1.4671899999999967">
        <ele>833.211</ele>
        <time>2022-08-24T14:35:07Z</time>
      </trkpt>
      <trkpt lat="42.94790299999993" lon="-1.4671989999999966">
        <ele>833.009</ele>
        <time>2022-08-24T14:35:08Z</time>
      </trkpt>
      <trkpt lat="42.94787899999993" lon="-1.4672169999999967">
        <ele>833.057</ele>
        <time>2022-08-24T14:35:09Z</time>
      </trkpt>
      <trkpt lat="42.94774599999993" lon="-1.4672739999999966">
        <ele>832.837</ele>
        <time>2022-08-24T14:35:14Z</time>
      </trkpt>
      <trkpt lat="42.94772399999993" lon="-1.4672859999999965">
        <ele>832.667</ele>
        <time>2022-08-24T14:35:15Z</time>
      </trkpt>
      <trkpt lat="42.94770099999993" lon="-1.4672979999999964">
        <ele>832.443</ele>
        <time>2022-08-24T14:35:16Z</time>
      </trkpt>
      <trkpt lat="42.94761399999993" lon="-1.4673489999999965">
        <ele>831.025</ele>
        <time>2022-08-24T14:35:20Z</time>
      </trkpt>
      <trkpt lat="42.94758099999993" lon="-1.4673589999999965">
        <ele>831.092</ele>
        <time>2022-08-24T14:35:21Z</time>
      </trkpt>
      <trkpt lat="42.947539999999925" lon="-1.4673759999999965">
        <ele>830.295</ele>
        <time>2022-08-24T14:35:23Z</time>
      </trkpt>
      <trkpt lat="42.94752199999993" lon="-1.4673889999999965">
        <ele>830.079</ele>
        <time>2022-08-24T14:35:24Z</time>
      </trkpt>
      <trkpt lat="42.94750099999993" lon="-1.4674039999999966">
        <ele>829.868</ele>
        <time>2022-08-24T14:35:25Z</time>
      </trkpt>
      <trkpt lat="42.94748499999993" lon="-1.4674149999999966">
        <ele>829.464</ele>
        <time>2022-08-24T14:35:26Z</time>
      </trkpt>
      <trkpt lat="42.94748499999993" lon="-1.4674149999999966">
        <ele>829.206</ele>
        <time>2022-08-24T14:35:27Z</time>
      </trkpt>
      <trkpt lat="42.94738199999993" lon="-1.4674709999999966">
        <ele>828.616</ele>
        <time>2022-08-24T14:35:32Z</time>
      </trkpt>
      <trkpt lat="42.94735899999993" lon="-1.4674849999999966">
        <ele>828.409</ele>
        <time>2022-08-24T14:35:33Z</time>
      </trkpt>
      <trkpt lat="42.94733599999993" lon="-1.4675049999999965">
        <ele>828.297</ele>
        <time>2022-08-24T14:35:34Z</time>
      </trkpt>
      <trkpt lat="42.94727899999993" lon="-1.4675289999999965">
        <ele>828.097</ele>
        <time>2022-08-24T14:35:35Z</time>
      </trkpt>
      <trkpt lat="42.94724599999993" lon="-1.4675449999999965">
        <ele>827.237</ele>
        <time>2022-08-24T14:35:37Z</time>
      </trkpt>
      <trkpt lat="42.94721399999993" lon="-1.4675609999999966">
        <ele>827.253</ele>
        <time>2022-08-24T14:35:38Z</time>
      </trkpt>
      <trkpt lat="42.94718399999993" lon="-1.4675739999999966">
        <ele>826.815</ele>
        <time>2022-08-24T14:35:39Z</time>
      </trkpt>
      <trkpt lat="42.947125999999926" lon="-1.4675959999999966">
        <ele>826.422</ele>
        <time>2022-08-24T14:35:40Z</time>
      </trkpt>
      <trkpt lat="42.94709899999992" lon="-1.4676069999999966">
        <ele>826.285</ele>
        <time>2022-08-24T14:35:41Z</time>
      </trkpt>
      <trkpt lat="42.94709899999992" lon="-1.4676069999999966">
        <ele>826.049</ele>
        <time>2022-08-24T14:35:42Z</time>
      </trkpt>
      <trkpt lat="42.94686899999992" lon="-1.4676649999999964">
        <ele>825.648</ele>
        <time>2022-08-24T14:35:49Z</time>
      </trkpt>
      <trkpt lat="42.94679099999992" lon="-1.4676689999999963">
        <ele>825.468</ele>
        <time>2022-08-24T14:35:50Z</time>
      </trkpt>
      <trkpt lat="42.94671099999992" lon="-1.4676789999999964">
        <ele>825.242</ele>
        <time>2022-08-24T14:35:52Z</time>
      </trkpt>
      <trkpt lat="42.946644999999926" lon="-1.4677019999999965">
        <ele>824.826</ele>
        <time>2022-08-24T14:35:54Z</time>
      </trkpt>
      <trkpt lat="42.94655099999993" lon="-1.4677449999999965">
        <ele>824.609</ele>
        <time>2022-08-24T14:35:57Z</time>
      </trkpt>
      <trkpt lat="42.94652199999993" lon="-1.4677579999999966">
        <ele>824.457</ele>
        <time>2022-08-24T14:35:59Z</time>
      </trkpt>
      <trkpt lat="42.94646799999993" lon="-1.4677849999999966">
        <ele>824.247</ele>
        <time>2022-08-24T14:36:00Z</time>
      </trkpt>
      <trkpt lat="42.94646799999993" lon="-1.4677849999999966">
        <ele>824.037</ele>
        <time>2022-08-24T14:36:01Z</time>
      </trkpt>
      <trkpt lat="42.94639199999993" lon="-1.4678139999999966">
        <ele>824.033</ele>
        <time>2022-08-24T14:36:02Z</time>
      </trkpt>
      <trkpt lat="42.94639199999993" lon="-1.4678139999999966">
        <ele>824.055</ele>
        <time>2022-08-24T14:36:03Z</time>
      </trkpt>
      <trkpt lat="42.94635299999993" lon="-1.4678279999999966">
        <ele>824.082</ele>
        <time>2022-08-24T14:36:04Z</time>
      </trkpt>
      <trkpt lat="42.94631699999993" lon="-1.4678429999999967">
        <ele>823.875</ele>
        <time>2022-08-24T14:36:05Z</time>
      </trkpt>
      <trkpt lat="42.94625099999993" lon="-1.4678769999999968">
        <ele>823.649</ele>
        <time>2022-08-24T14:36:06Z</time>
      </trkpt>
      <trkpt lat="42.94622099999993" lon="-1.4678899999999968">
        <ele>823.668</ele>
        <time>2022-08-24T14:36:07Z</time>
      </trkpt>
      <trkpt lat="42.94622099999993" lon="-1.4678899999999968">
        <ele>823.282</ele>
        <time>2022-08-24T14:36:08Z</time>
      </trkpt>
      <trkpt lat="42.94619999999993" lon="-1.467896999999997">
        <ele>823.243</ele>
        <time>2022-08-24T14:36:09Z</time>
      </trkpt>
      <trkpt lat="42.946151999999934" lon="-1.4679029999999968">
        <ele>823.017</ele>
        <time>2022-08-24T14:36:10Z</time>
      </trkpt>
      <trkpt lat="42.94613099999994" lon="-1.4678999999999969">
        <ele>822.809</ele>
        <time>2022-08-24T14:36:11Z</time>
      </trkpt>
      <trkpt lat="42.94607899999994" lon="-1.4679169999999968">
        <ele>821.839</ele>
        <time>2022-08-24T14:36:14Z</time>
      </trkpt>
      <trkpt lat="42.946057999999944" lon="-1.4679269999999969">
        <ele>821.469</ele>
        <time>2022-08-24T14:36:15Z</time>
      </trkpt>
      <trkpt lat="42.946011999999946" lon="-1.467933999999997">
        <ele>821.239</ele>
        <time>2022-08-24T14:36:16Z</time>
      </trkpt>
      <trkpt lat="42.946011999999946" lon="-1.467933999999997">
        <ele>821.055</ele>
        <time>2022-08-24T14:36:17Z</time>
      </trkpt>
      <trkpt lat="42.94598099999995" lon="-1.4679349999999969">
        <ele>820.827</ele>
        <time>2022-08-24T14:36:18Z</time>
      </trkpt>
      <trkpt lat="42.94598099999995" lon="-1.4679349999999969">
        <ele>820.464</ele>
        <time>2022-08-24T14:36:19Z</time>
      </trkpt>
      <trkpt lat="42.945941999999945" lon="-1.467942999999997">
        <ele>819.637</ele>
        <time>2022-08-24T14:36:21Z</time>
      </trkpt>
      <trkpt lat="42.94591899999995" lon="-1.4679379999999969">
        <ele>819.051</ele>
        <time>2022-08-24T14:36:22Z</time>
      </trkpt>
      <trkpt lat="42.94583599999995" lon="-1.4679579999999968">
        <ele>818.280</ele>
        <time>2022-08-24T14:36:26Z</time>
      </trkpt>
      <trkpt lat="42.94579799999995" lon="-1.4679589999999967">
        <ele>817.879</ele>
        <time>2022-08-24T14:36:27Z</time>
      </trkpt>
      <trkpt lat="42.94577799999995" lon="-1.4679559999999967">
        <ele>817.405</ele>
        <time>2022-08-24T14:36:29Z</time>
      </trkpt>
      <trkpt lat="42.94568399999995" lon="-1.4679679999999966">
        <ele>816.825</ele>
        <time>2022-08-24T14:36:32Z</time>
      </trkpt>
      <trkpt lat="42.94566099999995" lon="-1.4679819999999966">
        <ele>816.809</ele>
        <time>2022-08-24T14:36:33Z</time>
      </trkpt>
      <trkpt lat="42.94564399999995" lon="-1.4679949999999966">
        <ele>816.238</ele>
        <time>2022-08-24T14:36:34Z</time>
      </trkpt>
      <trkpt lat="42.94563099999995" lon="-1.4680129999999967">
        <ele>816.048</ele>
        <time>2022-08-24T14:36:35Z</time>
      </trkpt>
      <trkpt lat="42.94563099999995" lon="-1.4680129999999967">
        <ele>815.468</ele>
        <time>2022-08-24T14:36:36Z</time>
      </trkpt>
      <trkpt lat="42.94560299999995" lon="-1.4680659999999968">
        <ele>815.244</ele>
        <time>2022-08-24T14:36:37Z</time>
      </trkpt>
      <trkpt lat="42.94558299999995" lon="-1.4680949999999968">
        <ele>814.856</ele>
        <time>2022-08-24T14:36:38Z</time>
      </trkpt>
      <trkpt lat="42.94556599999995" lon="-1.4681319999999969">
        <ele>814.673</ele>
        <time>2022-08-24T14:36:39Z</time>
      </trkpt>
      <trkpt lat="42.94554899999995" lon="-1.468166999999997">
        <ele>814.256</ele>
        <time>2022-08-24T14:36:41Z</time>
      </trkpt>
      <trkpt lat="42.94553699999995" lon="-1.4682029999999968">
        <ele>814.220</ele>
        <time>2022-08-24T14:36:42Z</time>
      </trkpt>
      <trkpt lat="42.94549699999995" lon="-1.4682649999999968">
        <ele>814.259</ele>
        <time>2022-08-24T14:36:43Z</time>
      </trkpt>
      <trkpt lat="42.945422999999955" lon="-1.4683499999999967">
        <ele>813.473</ele>
        <time>2022-08-24T14:36:46Z</time>
      </trkpt>
      <trkpt lat="42.945422999999955" lon="-1.4683499999999967">
        <ele>813.285</ele>
        <time>2022-08-24T14:36:47Z</time>
      </trkpt>
      <trkpt lat="42.94536899999996" lon="-1.4684049999999966">
        <ele>812.813</ele>
        <time>2022-08-24T14:36:48Z</time>
      </trkpt>
      <trkpt lat="42.94530299999996" lon="-1.4684659999999967">
        <ele>812.009</ele>
        <time>2022-08-24T14:36:51Z</time>
      </trkpt>
      <trkpt lat="42.94527699999996" lon="-1.4684889999999968">
        <ele>811.698</ele>
        <time>2022-08-24T14:36:52Z</time>
      </trkpt>
      <trkpt lat="42.94518499999996" lon="-1.4685729999999968">
        <ele>810.868</ele>
        <time>2022-08-24T14:36:54Z</time>
      </trkpt>
      <trkpt lat="42.94494899999996" lon="-1.4687089999999967">
        <ele>809.658</ele>
        <time>2022-08-24T14:37:00Z</time>
      </trkpt>
      <trkpt lat="42.94486799999996" lon="-1.4687579999999967">
        <ele>809.434</ele>
        <time>2022-08-24T14:37:02Z</time>
      </trkpt>
      <trkpt lat="42.94486799999996" lon="-1.4687579999999967">
        <ele>809.236</ele>
        <time>2022-08-24T14:37:03Z</time>
      </trkpt>
      <trkpt lat="42.94470199999996" lon="-1.4688719999999966">
        <ele>808.873</ele>
        <time>2022-08-24T14:37:06Z</time>
      </trkpt>
      <trkpt lat="42.94470199999996" lon="-1.4688719999999966">
        <ele>808.476</ele>
        <time>2022-08-24T14:37:07Z</time>
      </trkpt>
      <trkpt lat="42.944626999999954" lon="-1.4689279999999967">
        <ele>808.220</ele>
        <time>2022-08-24T14:37:08Z</time>
      </trkpt>
      <trkpt lat="42.94450199999996" lon="-1.4689979999999967">
        <ele>808.049</ele>
        <time>2022-08-24T14:37:11Z</time>
      </trkpt>
      <trkpt lat="42.94445899999996" lon="-1.4690169999999967">
        <ele>808.077</ele>
        <time>2022-08-24T14:37:12Z</time>
      </trkpt>
      <trkpt lat="42.94436699999996" lon="-1.4690609999999966">
        <ele>807.461</ele>
        <time>2022-08-24T14:37:14Z</time>
      </trkpt>
      <trkpt lat="42.94431899999996" lon="-1.4690799999999966">
        <ele>807.427</ele>
        <time>2022-08-24T14:37:15Z</time>
      </trkpt>
      <trkpt lat="42.94421699999996" lon="-1.4691229999999966">
        <ele>807.009</ele>
        <time>2022-08-24T14:37:17Z</time>
      </trkpt>
      <trkpt lat="42.94386599999996" lon="-1.4692179999999966">
        <ele>806.438</ele>
        <time>2022-08-24T14:37:23Z</time>
      </trkpt>
      <trkpt lat="42.94381399999996" lon="-1.4692359999999967">
        <ele>806.218</ele>
        <time>2022-08-24T14:37:24Z</time>
      </trkpt>
      <trkpt lat="42.94381399999996" lon="-1.4692359999999967">
        <ele>806.228</ele>
        <time>2022-08-24T14:37:25Z</time>
      </trkpt>
      <trkpt lat="42.943716999999964" lon="-1.4692939999999965">
        <ele>806.234</ele>
        <time>2022-08-24T14:37:26Z</time>
      </trkpt>
      <trkpt lat="42.94366799999997" lon="-1.4693189999999965">
        <ele>806.446</ele>
        <time>2022-08-24T14:37:27Z</time>
      </trkpt>
      <trkpt lat="42.94361699999997" lon="-1.4693329999999964">
        <ele>806.433</ele>
        <time>2022-08-24T14:37:28Z</time>
      </trkpt>
      <trkpt lat="42.943569999999966" lon="-1.4693479999999965">
        <ele>806.696</ele>
        <time>2022-08-24T14:37:29Z</time>
      </trkpt>
      <trkpt lat="42.94352399999997" lon="-1.4693579999999966">
        <ele>806.210</ele>
        <time>2022-08-24T14:37:30Z</time>
      </trkpt>
      <trkpt lat="42.943482999999965" lon="-1.4693699999999965">
        <ele>806.239</ele>
        <time>2022-08-24T14:37:31Z</time>
      </trkpt>
      <trkpt lat="42.943443999999964" lon="-1.4693819999999964">
        <ele>806.249</ele>
        <time>2022-08-24T14:37:32Z</time>
      </trkpt>
      <trkpt lat="42.94340799999996" lon="-1.4694009999999964">
        <ele>806.402</ele>
        <time>2022-08-24T14:37:33Z</time>
      </trkpt>
      <trkpt lat="42.94321699999996" lon="-1.4695419999999964">
        <ele>806.022</ele>
        <time>2022-08-24T14:37:38Z</time>
      </trkpt>
      <trkpt lat="42.94307599999996" lon="-1.4696139999999964">
        <ele>805.609</ele>
        <time>2022-08-24T14:37:40Z</time>
      </trkpt>
      <trkpt lat="42.94307599999996" lon="-1.4696139999999964">
        <ele>805.695</ele>
        <time>2022-08-24T14:37:41Z</time>
      </trkpt>
      <trkpt lat="42.94297799999996" lon="-1.4696599999999964">
        <ele>805.655</ele>
        <time>2022-08-24T14:37:42Z</time>
      </trkpt>
      <trkpt lat="42.94297799999996" lon="-1.4696599999999964">
        <ele>805.695</ele>
        <time>2022-08-24T14:37:43Z</time>
      </trkpt>
      <trkpt lat="42.94293199999996" lon="-1.4696879999999963">
        <ele>805.691</ele>
        <time>2022-08-24T14:37:44Z</time>
      </trkpt>
      <trkpt lat="42.94284199999996" lon="-1.4697489999999964">
        <ele>805.433</ele>
        <time>2022-08-24T14:37:45Z</time>
      </trkpt>
      <trkpt lat="42.94279999999996" lon="-1.4697759999999964">
        <ele>805.420</ele>
        <time>2022-08-24T14:37:46Z</time>
      </trkpt>
      <trkpt lat="42.942759999999964" lon="-1.4698039999999963">
        <ele>805.473</ele>
        <time>2022-08-24T14:37:47Z</time>
      </trkpt>
      <trkpt lat="42.94272199999996" lon="-1.4698279999999964">
        <ele>805.477</ele>
        <time>2022-08-24T14:37:48Z</time>
      </trkpt>
      <trkpt lat="42.94268299999996" lon="-1.4698509999999965">
        <ele>805.426</ele>
        <time>2022-08-24T14:37:50Z</time>
      </trkpt>
      <trkpt lat="42.94249799999996" lon="-1.4699819999999966">
        <ele>804.821</ele>
        <time>2022-08-24T14:37:53Z</time>
      </trkpt>
      <trkpt lat="42.94244399999996" lon="-1.4700359999999966">
        <ele>804.641</ele>
        <time>2022-08-24T14:37:55Z</time>
      </trkpt>
      <trkpt lat="42.94236199999996" lon="-1.4701109999999966">
        <ele>804.605</ele>
        <time>2022-08-24T14:37:56Z</time>
      </trkpt>
      <trkpt lat="42.94232799999996" lon="-1.4701329999999966">
        <ele>804.409</ele>
        <time>2022-08-24T14:37:57Z</time>
      </trkpt>
      <trkpt lat="42.94232799999996" lon="-1.4701329999999966">
        <ele>804.273</ele>
        <time>2022-08-24T14:37:58Z</time>
      </trkpt>
      <trkpt lat="42.94229899999996" lon="-1.4701559999999967">
        <ele>804.023</ele>
        <time>2022-08-24T14:37:59Z</time>
      </trkpt>
      <trkpt lat="42.94222299999996" lon="-1.4702429999999966">
        <ele>802.253</ele>
        <time>2022-08-24T14:38:02Z</time>
      </trkpt>
      <trkpt lat="42.94219499999996" lon="-1.4702719999999967">
        <ele>802.039</ele>
        <time>2022-08-24T14:38:03Z</time>
      </trkpt>
      <trkpt lat="42.94216099999996" lon="-1.4702999999999966">
        <ele>801.621</ele>
        <time>2022-08-24T14:38:04Z</time>
      </trkpt>
      <trkpt lat="42.94213399999996" lon="-1.4703119999999965">
        <ele>801.288</ele>
        <time>2022-08-24T14:38:05Z</time>
      </trkpt>
      <trkpt lat="42.94207099999996" lon="-1.4703489999999966">
        <ele>800.861</ele>
        <time>2022-08-24T14:38:06Z</time>
      </trkpt>
      <trkpt lat="42.942044999999965" lon="-1.4703699999999966">
        <ele>800.425</ele>
        <time>2022-08-24T14:38:07Z</time>
      </trkpt>
      <trkpt lat="42.942021999999966" lon="-1.4703899999999965">
        <ele>800.064</ele>
        <time>2022-08-24T14:38:08Z</time>
      </trkpt>
      <trkpt lat="42.942021999999966" lon="-1.4703899999999965">
        <ele>799.887</ele>
        <time>2022-08-24T14:38:09Z</time>
      </trkpt>
      <trkpt lat="42.941943999999964" lon="-1.4704249999999965">
        <ele>799.242</ele>
        <time>2022-08-24T14:38:11Z</time>
      </trkpt>
      <trkpt lat="42.941943999999964" lon="-1.4704249999999965">
        <ele>799.226</ele>
        <time>2022-08-24T14:38:12Z</time>
      </trkpt>
      <trkpt lat="42.94189099999996" lon="-1.4704159999999966">
        <ele>798.809</ele>
        <time>2022-08-24T14:38:13Z</time>
      </trkpt>
      <trkpt lat="42.94186099999996" lon="-1.4704099999999967">
        <ele>798.059</ele>
        <time>2022-08-24T14:38:15Z</time>
      </trkpt>
      <trkpt lat="42.94180199999996" lon="-1.4704069999999967">
        <ele>797.639</ele>
        <time>2022-08-24T14:38:16Z</time>
      </trkpt>
      <trkpt lat="42.94177499999996" lon="-1.4704099999999967">
        <ele>797.639</ele>
        <time>2022-08-24T14:38:17Z</time>
      </trkpt>
      <trkpt lat="42.941749999999956" lon="-1.4704169999999968">
        <ele>797.065</ele>
        <time>2022-08-24T14:38:18Z</time>
      </trkpt>
      <trkpt lat="42.94172599999995" lon="-1.4704279999999967">
        <ele>796.857</ele>
        <time>2022-08-24T14:38:19Z</time>
      </trkpt>
      <trkpt lat="42.94170399999995" lon="-1.4704419999999967">
        <ele>796.464</ele>
        <time>2022-08-24T14:38:20Z</time>
      </trkpt>
      <trkpt lat="42.94168499999995" lon="-1.4704539999999966">
        <ele>796.067</ele>
        <time>2022-08-24T14:38:21Z</time>
      </trkpt>
      <trkpt lat="42.94166899999995" lon="-1.4704649999999966">
        <ele>795.871</ele>
        <time>2022-08-24T14:38:22Z</time>
      </trkpt>
      <trkpt lat="42.94165699999995" lon="-1.4704749999999966">
        <ele>795.430</ele>
        <time>2022-08-24T14:38:23Z</time>
      </trkpt>
      <trkpt lat="42.94164899999995" lon="-1.4704799999999967">
        <ele>795.287</ele>
        <time>2022-08-24T14:38:24Z</time>
      </trkpt>
      <trkpt lat="42.941621999999946" lon="-1.4705169999999967">
        <ele>794.042</ele>
        <time>2022-08-24T14:39:09Z</time>
      </trkpt>
      <trkpt lat="42.941557999999944" lon="-1.4705899999999967">
        <ele>794.226</ele>
        <time>2022-08-24T14:39:12Z</time>
      </trkpt>
      <trkpt lat="42.941404999999946" lon="-1.4706959999999967">
        <ele>794.409</ele>
        <time>2022-08-24T14:39:18Z</time>
      </trkpt>
      <trkpt lat="42.941382999999945" lon="-1.4707159999999966">
        <ele>794.489</ele>
        <time>2022-08-24T14:39:19Z</time>
      </trkpt>
      <trkpt lat="42.94125499999995" lon="-1.4708099999999966">
        <ele>794.459</ele>
        <time>2022-08-24T14:39:24Z</time>
      </trkpt>
      <trkpt lat="42.94122899999995" lon="-1.4708229999999967">
        <ele>794.469</ele>
        <time>2022-08-24T14:39:25Z</time>
      </trkpt>
      <trkpt lat="42.94120399999995" lon="-1.4708329999999967">
        <ele>794.485</ele>
        <time>2022-08-24T14:39:26Z</time>
      </trkpt>
      <trkpt lat="42.94117899999995" lon="-1.4708449999999966">
        <ele>794.437</ele>
        <time>2022-08-24T14:39:27Z</time>
      </trkpt>
      <trkpt lat="42.941154999999945" lon="-1.4708569999999965">
        <ele>794.664</ele>
        <time>2022-08-24T14:39:28Z</time>
      </trkpt>
      <trkpt lat="42.94112899999995" lon="-1.4708679999999965">
        <ele>794.697</ele>
        <time>2022-08-24T14:39:29Z</time>
      </trkpt>
      <trkpt lat="42.940996999999946" lon="-1.4709479999999966">
        <ele>794.831</ele>
        <time>2022-08-24T14:39:34Z</time>
      </trkpt>
      <trkpt lat="42.940949999999944" lon="-1.4709679999999965">
        <ele>794.870</ele>
        <time>2022-08-24T14:39:36Z</time>
      </trkpt>
      <trkpt lat="42.94092899999995" lon="-1.4709699999999966">
        <ele>795.075</ele>
        <time>2022-08-24T14:39:37Z</time>
      </trkpt>
      <trkpt lat="42.94090799999995" lon="-1.4709779999999966">
        <ele>795.028</ele>
        <time>2022-08-24T14:39:38Z</time>
      </trkpt>
      <trkpt lat="42.940886999999954" lon="-1.4709899999999965">
        <ele>795.220</ele>
        <time>2022-08-24T14:39:39Z</time>
      </trkpt>
      <trkpt lat="42.94084599999995" lon="-1.4710239999999966">
        <ele>795.409</ele>
        <time>2022-08-24T14:39:41Z</time>
      </trkpt>
      <trkpt lat="42.94082399999995" lon="-1.4710419999999966">
        <ele>795.428</ele>
        <time>2022-08-24T14:39:42Z</time>
      </trkpt>
      <trkpt lat="42.94079799999995" lon="-1.4710599999999967">
        <ele>795.448</ele>
        <time>2022-08-24T14:39:43Z</time>
      </trkpt>
      <trkpt lat="42.94077099999995" lon="-1.4710739999999967">
        <ele>795.438</ele>
        <time>2022-08-24T14:39:44Z</time>
      </trkpt>
      <trkpt lat="42.94074999999995" lon="-1.4710839999999967">
        <ele>795.454</ele>
        <time>2022-08-24T14:39:45Z</time>
      </trkpt>
      <trkpt lat="42.940613999999954" lon="-1.4711419999999966">
        <ele>795.286</ele>
        <time>2022-08-24T14:39:49Z</time>
      </trkpt>
      <trkpt lat="42.94057599999995" lon="-1.4711549999999967">
        <ele>795.263</ele>
        <time>2022-08-24T14:39:50Z</time>
      </trkpt>
      <trkpt lat="42.94054699999995" lon="-1.4711669999999966">
        <ele>794.846</ele>
        <time>2022-08-24T14:39:51Z</time>
      </trkpt>
      <trkpt lat="42.940520999999954" lon="-1.4711819999999967">
        <ele>794.660</ele>
        <time>2022-08-24T14:39:52Z</time>
      </trkpt>
      <trkpt lat="42.940494999999956" lon="-1.4711989999999966">
        <ele>794.449</ele>
        <time>2022-08-24T14:39:53Z</time>
      </trkpt>
      <trkpt lat="42.940461999999954" lon="-1.4712169999999967">
        <ele>794.062</ele>
        <time>2022-08-24T14:39:54Z</time>
      </trkpt>
      <trkpt lat="42.94042999999996" lon="-1.4712329999999967">
        <ele>793.083</ele>
        <time>2022-08-24T14:39:55Z</time>
      </trkpt>
      <trkpt lat="42.94040699999996" lon="-1.4712439999999967">
        <ele>792.411</ele>
        <time>2022-08-24T14:39:56Z</time>
      </trkpt>
      <trkpt lat="42.940356999999956" lon="-1.4712619999999967">
        <ele>791.809</ele>
        <time>2022-08-24T14:39:58Z</time>
      </trkpt>
      <trkpt lat="42.940281999999954" lon="-1.4712989999999968">
        <ele>791.257</ele>
        <time>2022-08-24T14:40:00Z</time>
      </trkpt>
      <trkpt lat="42.940188999999954" lon="-1.471340999999997">
        <ele>790.647</ele>
        <time>2022-08-24T14:40:02Z</time>
      </trkpt>
      <trkpt lat="42.940109999999954" lon="-1.471391999999997">
        <ele>789.667</ele>
        <time>2022-08-24T14:40:04Z</time>
      </trkpt>
      <trkpt lat="42.94008799999995" lon="-1.471412999999997">
        <ele>789.033</ele>
        <time>2022-08-24T14:40:05Z</time>
      </trkpt>
      <trkpt lat="42.940067999999954" lon="-1.471437999999997">
        <ele>788.475</ele>
        <time>2022-08-24T14:40:06Z</time>
      </trkpt>
      <trkpt lat="42.940044999999955" lon="-1.471469999999997">
        <ele>787.422</ele>
        <time>2022-08-24T14:40:07Z</time>
      </trkpt>
      <trkpt lat="42.94001299999996" lon="-1.471506999999997">
        <ele>787.015</ele>
        <time>2022-08-24T14:40:08Z</time>
      </trkpt>
      <trkpt lat="42.939917999999956" lon="-1.471588999999997">
        <ele>786.289</ele>
        <time>2022-08-24T14:40:10Z</time>
      </trkpt>
      <trkpt lat="42.939864999999955" lon="-1.471614999999997">
        <ele>786.028</ele>
        <time>2022-08-24T14:40:11Z</time>
      </trkpt>
      <trkpt lat="42.93983599999996" lon="-1.471646999999997">
        <ele>785.857</ele>
        <time>2022-08-24T14:40:12Z</time>
      </trkpt>
      <trkpt lat="42.939810999999956" lon="-1.471684999999997">
        <ele>785.600</ele>
        <time>2022-08-24T14:40:13Z</time>
      </trkpt>
      <trkpt lat="42.93978199999996" lon="-1.471716999999997">
        <ele>785.220</ele>
        <time>2022-08-24T14:40:14Z</time>
      </trkpt>
      <trkpt lat="42.939751999999956" lon="-1.471740999999997">
        <ele>784.809</ele>
        <time>2022-08-24T14:40:15Z</time>
      </trkpt>
      <trkpt lat="42.939695999999955" lon="-1.471806999999997">
        <ele>783.846</ele>
        <time>2022-08-24T14:40:17Z</time>
      </trkpt>
      <trkpt lat="42.93966699999996" lon="-1.471849999999997">
        <ele>783.656</ele>
        <time>2022-08-24T14:40:18Z</time>
      </trkpt>
      <trkpt lat="42.93960699999996" lon="-1.471950999999997">
        <ele>783.226</ele>
        <time>2022-08-24T14:40:20Z</time>
      </trkpt>
      <trkpt lat="42.93953999999996" lon="-1.4719999999999969">
        <ele>782.662</ele>
        <time>2022-08-24T14:40:22Z</time>
      </trkpt>
      <trkpt lat="42.93949399999996" lon="-1.4720519999999968">
        <ele>782.464</ele>
        <time>2022-08-24T14:40:23Z</time>
      </trkpt>
      <trkpt lat="42.93944699999996" lon="-1.4721199999999968">
        <ele>782.071</ele>
        <time>2022-08-24T14:40:24Z</time>
      </trkpt>
      <trkpt lat="42.93942099999996" lon="-1.4721349999999969">
        <ele>781.864</ele>
        <time>2022-08-24T14:40:25Z</time>
      </trkpt>
      <trkpt lat="42.93936599999996" lon="-1.4721709999999968">
        <ele>781.698</ele>
        <time>2022-08-24T14:40:26Z</time>
      </trkpt>
      <trkpt lat="42.93931799999996" lon="-1.4722009999999968">
        <ele>781.237</ele>
        <time>2022-08-24T14:40:27Z</time>
      </trkpt>
      <trkpt lat="42.939293999999954" lon="-1.4722269999999968">
        <ele>780.861</ele>
        <time>2022-08-24T14:40:28Z</time>
      </trkpt>
      <trkpt lat="42.939245999999955" lon="-1.472276999999997">
        <ele>780.421</ele>
        <time>2022-08-24T14:40:29Z</time>
      </trkpt>
      <trkpt lat="42.939203999999954" lon="-1.472330999999997">
        <ele>780.413</ele>
        <time>2022-08-24T14:40:30Z</time>
      </trkpt>
      <trkpt lat="42.93914099999996" lon="-1.472411999999997">
        <ele>779.609</ele>
        <time>2022-08-24T14:40:32Z</time>
      </trkpt>
      <trkpt lat="42.93910999999996" lon="-1.472438999999997">
        <ele>779.437</ele>
        <time>2022-08-24T14:40:33Z</time>
      </trkpt>
      <trkpt lat="42.939093999999955" lon="-1.472475999999997">
        <ele>779.487</ele>
        <time>2022-08-24T14:40:34Z</time>
      </trkpt>
      <trkpt lat="42.93907799999995" lon="-1.472506999999997">
        <ele>779.297</ele>
        <time>2022-08-24T14:40:35Z</time>
      </trkpt>
      <trkpt lat="42.939056999999956" lon="-1.4725429999999968">
        <ele>778.833</ele>
        <time>2022-08-24T14:40:36Z</time>
      </trkpt>
      <trkpt lat="42.939037999999954" lon="-1.4725809999999968">
        <ele>778.885</ele>
        <time>2022-08-24T14:40:37Z</time>
      </trkpt>
      <trkpt lat="42.939020999999954" lon="-1.472622999999997">
        <ele>778.432</ele>
        <time>2022-08-24T14:40:38Z</time>
      </trkpt>
      <trkpt lat="42.939006999999954" lon="-1.472646999999997">
        <ele>778.215</ele>
        <time>2022-08-24T14:40:39Z</time>
      </trkpt>
      <trkpt lat="42.93899699999995" lon="-1.472660999999997">
        <ele>777.899</ele>
        <time>2022-08-24T14:40:40Z</time>
      </trkpt>
      <trkpt lat="42.93898599999995" lon="-1.472681999999997">
        <ele>777.228</ele>
        <time>2022-08-24T14:40:41Z</time>
      </trkpt>
      <trkpt lat="42.93897499999995" lon="-1.472697999999997">
        <ele>776.824</ele>
        <time>2022-08-24T14:40:42Z</time>
      </trkpt>
      <trkpt lat="42.93896099999995" lon="-1.472726999999997">
        <ele>776.204</ele>
        <time>2022-08-24T14:40:43Z</time>
      </trkpt>
      <trkpt lat="42.93894999999995" lon="-1.472754999999997">
        <ele>776.014</ele>
        <time>2022-08-24T14:40:44Z</time>
      </trkpt>
      <trkpt lat="42.938936999999946" lon="-1.472783999999997">
        <ele>775.809</ele>
        <time>2022-08-24T14:40:45Z</time>
      </trkpt>
      <trkpt lat="42.938858999999944" lon="-1.472865999999997">
        <ele>775.233</ele>
        <time>2022-08-24T14:40:48Z</time>
      </trkpt>
      <trkpt lat="42.93883799999995" lon="-1.472884999999997">
        <ele>775.023</ele>
        <time>2022-08-24T14:40:49Z</time>
      </trkpt>
      <trkpt lat="42.93881699999995" lon="-1.4729099999999968">
        <ele>774.463</ele>
        <time>2022-08-24T14:40:50Z</time>
      </trkpt>
      <trkpt lat="42.93879999999995" lon="-1.4729449999999968">
        <ele>774.059</ele>
        <time>2022-08-24T14:40:51Z</time>
      </trkpt>
      <trkpt lat="42.93878599999995" lon="-1.472978999999997">
        <ele>773.281</ele>
        <time>2022-08-24T14:40:52Z</time>
      </trkpt>
      <trkpt lat="42.93877099999995" lon="-1.473004999999997">
        <ele>773.078</ele>
        <time>2022-08-24T14:40:53Z</time>
      </trkpt>
      <trkpt lat="42.93872999999995" lon="-1.473062999999997">
        <ele>771.881</ele>
        <time>2022-08-24T14:40:55Z</time>
      </trkpt>
      <trkpt lat="42.93868499999995" lon="-1.473166999999997">
        <ele>771.435</ele>
        <time>2022-08-24T14:40:57Z</time>
      </trkpt>
      <trkpt lat="42.93867099999995" lon="-1.473205999999997">
        <ele>771.044</ele>
        <time>2022-08-24T14:40:58Z</time>
      </trkpt>
      <trkpt lat="42.93865499999995" lon="-1.473245999999997">
        <ele>770.433</ele>
        <time>2022-08-24T14:40:59Z</time>
      </trkpt>
      <trkpt lat="42.938624999999945" lon="-1.4733279999999969">
        <ele>770.023</ele>
        <time>2022-08-24T14:41:01Z</time>
      </trkpt>
      <trkpt lat="42.93860399999995" lon="-1.4733739999999969">
        <ele>769.815</ele>
        <time>2022-08-24T14:41:02Z</time>
      </trkpt>
      <trkpt lat="42.938570999999946" lon="-1.473418999999997">
        <ele>769.409</ele>
        <time>2022-08-24T14:41:03Z</time>
      </trkpt>
      <trkpt lat="42.93853899999995" lon="-1.473464999999997">
        <ele>769.064</ele>
        <time>2022-08-24T14:41:04Z</time>
      </trkpt>
      <trkpt lat="42.938525999999946" lon="-1.4735039999999968">
        <ele>768.834</ele>
        <time>2022-08-24T14:41:05Z</time>
      </trkpt>
      <trkpt lat="42.938511999999946" lon="-1.4735439999999969">
        <ele>768.434</ele>
        <time>2022-08-24T14:41:06Z</time>
      </trkpt>
      <trkpt lat="42.938495999999944" lon="-1.4735759999999969">
        <ele>768.050</ele>
        <time>2022-08-24T14:41:07Z</time>
      </trkpt>
      <trkpt lat="42.93847799999995" lon="-1.4736169999999968">
        <ele>767.832</ele>
        <time>2022-08-24T14:41:08Z</time>
      </trkpt>
      <trkpt lat="42.93845399999994" lon="-1.473672999999997">
        <ele>767.019</ele>
        <time>2022-08-24T14:41:09Z</time>
      </trkpt>
      <trkpt lat="42.93842599999994" lon="-1.4737249999999968">
        <ele>766.872</ele>
        <time>2022-08-24T14:41:10Z</time>
      </trkpt>
      <trkpt lat="42.93838699999994" lon="-1.4737869999999968">
        <ele>766.046</ele>
        <time>2022-08-24T14:41:11Z</time>
      </trkpt>
      <trkpt lat="42.93831399999994" lon="-1.4739409999999968">
        <ele>765.425</ele>
        <time>2022-08-24T14:41:13Z</time>
      </trkpt>
      <trkpt lat="42.93822099999994" lon="-1.474104999999997">
        <ele>765.077</ele>
        <time>2022-08-24T14:41:15Z</time>
      </trkpt>
      <trkpt lat="42.93820799999994" lon="-1.474166999999997">
        <ele>764.661</ele>
        <time>2022-08-24T14:41:16Z</time>
      </trkpt>
      <trkpt lat="42.93814399999994" lon="-1.474297999999997">
        <ele>764.227</ele>
        <time>2022-08-24T14:41:18Z</time>
      </trkpt>
      <trkpt lat="42.938119999999934" lon="-1.474335999999997">
        <ele>764.009</ele>
        <time>2022-08-24T14:41:19Z</time>
      </trkpt>
      <trkpt lat="42.93810199999994" lon="-1.474403999999997">
        <ele>763.838</ele>
        <time>2022-08-24T14:41:20Z</time>
      </trkpt>
      <trkpt lat="42.938082999999935" lon="-1.474549999999997">
        <ele>763.688</ele>
        <time>2022-08-24T14:41:22Z</time>
      </trkpt>
      <trkpt lat="42.93806799999994" lon="-1.4746129999999968">
        <ele>763.628</ele>
        <time>2022-08-24T14:41:23Z</time>
      </trkpt>
      <trkpt lat="42.938048999999936" lon="-1.4746479999999969">
        <ele>763.624</ele>
        <time>2022-08-24T14:41:24Z</time>
      </trkpt>
      <trkpt lat="42.93799099999993" lon="-1.474692999999997">
        <ele>763.636</ele>
        <time>2022-08-24T14:41:25Z</time>
      </trkpt>
      <trkpt lat="42.93795299999993" lon="-1.4747799999999969">
        <ele>763.473</ele>
        <time>2022-08-24T14:41:26Z</time>
      </trkpt>
      <trkpt lat="42.93792799999993" lon="-1.4748499999999969">
        <ele>763.416</ele>
        <time>2022-08-24T14:41:27Z</time>
      </trkpt>
      <trkpt lat="42.93791899999993" lon="-1.474910999999997">
        <ele>763.240</ele>
        <time>2022-08-24T14:41:28Z</time>
      </trkpt>
      <trkpt lat="42.93792299999993" lon="-1.474982999999997">
        <ele>763.289</ele>
        <time>2022-08-24T14:41:29Z</time>
      </trkpt>
      <trkpt lat="42.937934999999925" lon="-1.475075999999997">
        <ele>763.273</ele>
        <time>2022-08-24T14:41:30Z</time>
      </trkpt>
      <trkpt lat="42.93795299999992" lon="-1.475139999999997">
        <ele>763.085</ele>
        <time>2022-08-24T14:41:31Z</time>
      </trkpt>
      <trkpt lat="42.93793099999992" lon="-1.475204999999997">
        <ele>763.213</ele>
        <time>2022-08-24T14:41:32Z</time>
      </trkpt>
      <trkpt lat="42.93788999999992" lon="-1.475292999999997">
        <ele>763.209</ele>
        <time>2022-08-24T14:41:33Z</time>
      </trkpt>
      <trkpt lat="42.93786899999992" lon="-1.475360999999997">
        <ele>763.298</ele>
        <time>2022-08-24T14:41:34Z</time>
      </trkpt>
      <trkpt lat="42.937850999999924" lon="-1.4753869999999971">
        <ele>763.278</ele>
        <time>2022-08-24T14:41:35Z</time>
      </trkpt>
      <trkpt lat="42.937841999999925" lon="-1.4754019999999972">
        <ele>763.438</ele>
        <time>2022-08-24T14:41:36Z</time>
      </trkpt>
      <trkpt lat="42.93783499999993" lon="-1.4754289999999972">
        <ele>763.844</ele>
        <time>2022-08-24T14:41:37Z</time>
      </trkpt>
      <trkpt lat="42.93781499999993" lon="-1.4754659999999973">
        <ele>764.026</ele>
        <time>2022-08-24T14:41:38Z</time>
      </trkpt>
      <trkpt lat="42.93780699999993" lon="-1.4754859999999972">
        <ele>763.843</ele>
        <time>2022-08-24T14:41:39Z</time>
      </trkpt>
      <trkpt lat="42.937804999999926" lon="-1.4755109999999971">
        <ele>764.236</ele>
        <time>2022-08-24T14:41:40Z</time>
      </trkpt>
      <trkpt lat="42.93777799999992" lon="-1.475594999999997">
        <ele>764.480</ele>
        <time>2022-08-24T14:41:43Z</time>
      </trkpt>
      <trkpt lat="42.93776999999992" lon="-1.4756179999999972">
        <ele>764.649</ele>
        <time>2022-08-24T14:41:44Z</time>
      </trkpt>
      <trkpt lat="42.93776699999992" lon="-1.4756399999999972">
        <ele>764.464</ele>
        <time>2022-08-24T14:41:45Z</time>
      </trkpt>
      <trkpt lat="42.93774999999992" lon="-1.4756999999999971">
        <ele>765.006</ele>
        <time>2022-08-24T14:41:47Z</time>
      </trkpt>
      <trkpt lat="42.93773399999992" lon="-1.4757559999999972">
        <ele>765.416</ele>
        <time>2022-08-24T14:41:49Z</time>
      </trkpt>
      <trkpt lat="42.93772799999992" lon="-1.4757939999999972">
        <ele>765.609</ele>
        <time>2022-08-24T14:41:50Z</time>
      </trkpt>
      <trkpt lat="42.93773199999992" lon="-1.4758369999999972">
        <ele>765.827</ele>
        <time>2022-08-24T14:41:51Z</time>
      </trkpt>
      <trkpt lat="42.93774199999992" lon="-1.4759099999999972">
        <ele>766.267</ele>
        <time>2022-08-24T14:41:53Z</time>
      </trkpt>
      <trkpt lat="42.93774299999992" lon="-1.4759399999999971">
        <ele>766.437</ele>
        <time>2022-08-24T14:41:54Z</time>
      </trkpt>
      <trkpt lat="42.937732999999916" lon="-1.4759689999999972">
        <ele>766.653</ele>
        <time>2022-08-24T14:41:55Z</time>
      </trkpt>
      <trkpt lat="42.93771999999991" lon="-1.4760389999999972">
        <ele>766.865</ele>
        <time>2022-08-24T14:41:57Z</time>
      </trkpt>
      <trkpt lat="42.937727999999915" lon="-1.4760739999999972">
        <ele>767.062</ele>
        <time>2022-08-24T14:41:58Z</time>
      </trkpt>
      <trkpt lat="42.937727999999915" lon="-1.4761139999999973">
        <ele>767.465</ele>
        <time>2022-08-24T14:41:59Z</time>
      </trkpt>
      <trkpt lat="42.93772299999991" lon="-1.4761539999999973">
        <ele>767.689</ele>
        <time>2022-08-24T14:42:00Z</time>
      </trkpt>
      <trkpt lat="42.93772399999991" lon="-1.4761869999999973">
        <ele>767.818</ele>
        <time>2022-08-24T14:42:01Z</time>
      </trkpt>
      <trkpt lat="42.93769999999991" lon="-1.4762379999999973">
        <ele>767.879</ele>
        <time>2022-08-24T14:42:02Z</time>
      </trkpt>
      <trkpt lat="42.93769099999991" lon="-1.4762919999999973">
        <ele>767.805</ele>
        <time>2022-08-24T14:42:03Z</time>
      </trkpt>
      <trkpt lat="42.93768499999991" lon="-1.4763419999999974">
        <ele>767.825</ele>
        <time>2022-08-24T14:42:04Z</time>
      </trkpt>
      <trkpt lat="42.93767799999991" lon="-1.4763839999999975">
        <ele>767.809</ele>
        <time>2022-08-24T14:42:05Z</time>
      </trkpt>
      <trkpt lat="42.937670999999916" lon="-1.4764309999999974">
        <ele>768.098</ele>
        <time>2022-08-24T14:42:06Z</time>
      </trkpt>
      <trkpt lat="42.937670999999916" lon="-1.4764659999999974">
        <ele>768.048</ele>
        <time>2022-08-24T14:42:07Z</time>
      </trkpt>
      <trkpt lat="42.937673999999916" lon="-1.4765089999999974">
        <ele>768.268</ele>
        <time>2022-08-24T14:42:08Z</time>
      </trkpt>
      <trkpt lat="42.93766799999992" lon="-1.4765489999999974">
        <ele>768.244</ele>
        <time>2022-08-24T14:42:09Z</time>
      </trkpt>
      <trkpt lat="42.93766099999992" lon="-1.4765899999999974">
        <ele>768.226</ele>
        <time>2022-08-24T14:42:10Z</time>
      </trkpt>
      <trkpt lat="42.93765899999992" lon="-1.4766429999999975">
        <ele>768.213</ele>
        <time>2022-08-24T14:42:11Z</time>
      </trkpt>
      <trkpt lat="42.93764999999992" lon="-1.4766979999999974">
        <ele>768.456</ele>
        <time>2022-08-24T14:42:12Z</time>
      </trkpt>
      <trkpt lat="42.93763999999992" lon="-1.4767369999999973">
        <ele>768.410</ele>
        <time>2022-08-24T14:42:13Z</time>
      </trkpt>
      <trkpt lat="42.937611999999916" lon="-1.4767839999999972">
        <ele>768.439</ele>
        <time>2022-08-24T14:42:14Z</time>
      </trkpt>
      <trkpt lat="42.93760299999992" lon="-1.4768089999999972">
        <ele>768.444</ele>
        <time>2022-08-24T14:42:15Z</time>
      </trkpt>
      <trkpt lat="42.937589999999915" lon="-1.4768589999999973">
        <ele>768.405</ele>
        <time>2022-08-24T14:42:16Z</time>
      </trkpt>
      <trkpt lat="42.93758899999992" lon="-1.4769109999999972">
        <ele>768.415</ele>
        <time>2022-08-24T14:42:17Z</time>
      </trkpt>
      <trkpt lat="42.937572999999915" lon="-1.4769469999999971">
        <ele>768.609</ele>
        <time>2022-08-24T14:42:18Z</time>
      </trkpt>
      <trkpt lat="42.93755499999992" lon="-1.4769709999999971">
        <ele>768.855</ele>
        <time>2022-08-24T14:42:19Z</time>
      </trkpt>
      <trkpt lat="42.93754399999992" lon="-1.4769889999999972">
        <ele>769.435</ele>
        <time>2022-08-24T14:42:20Z</time>
      </trkpt>
      <trkpt lat="42.937533999999914" lon="-1.4770079999999972">
        <ele>769.675</ele>
        <time>2022-08-24T14:42:21Z</time>
      </trkpt>
      <trkpt lat="42.93752699999992" lon="-1.4770259999999973">
        <ele>769.891</ele>
        <time>2022-08-24T14:42:22Z</time>
      </trkpt>
      <trkpt lat="42.93751899999992" lon="-1.4770429999999972">
        <ele>769.823</ele>
        <time>2022-08-24T14:42:23Z</time>
      </trkpt>
      <trkpt lat="42.93750699999992" lon="-1.4770589999999972">
        <ele>770.020</ele>
        <time>2022-08-24T14:42:24Z</time>
      </trkpt>
      <trkpt lat="42.93749299999992" lon="-1.4770839999999972">
        <ele>770.083</ele>
        <time>2022-08-24T14:42:25Z</time>
      </trkpt>
      <trkpt lat="42.93748499999992" lon="-1.4771069999999973">
        <ele>770.067</ele>
        <time>2022-08-24T14:42:26Z</time>
      </trkpt>
      <trkpt lat="42.93748199999992" lon="-1.4771229999999973">
        <ele>770.246</ele>
        <time>2022-08-24T14:42:27Z</time>
      </trkpt>
      <trkpt lat="42.93747599999992" lon="-1.4771519999999974">
        <ele>770.267</ele>
        <time>2022-08-24T14:42:28Z</time>
      </trkpt>
      <trkpt lat="42.937473999999916" lon="-1.4771859999999974">
        <ele>770.681</ele>
        <time>2022-08-24T14:42:29Z</time>
      </trkpt>
      <trkpt lat="42.937473999999916" lon="-1.4772229999999975">
        <ele>770.619</ele>
        <time>2022-08-24T14:42:30Z</time>
      </trkpt>
      <trkpt lat="42.93747799999991" lon="-1.4772569999999976">
        <ele>770.809</ele>
        <time>2022-08-24T14:42:31Z</time>
      </trkpt>
      <trkpt lat="42.937485999999915" lon="-1.4772949999999976">
        <ele>770.857</ele>
        <time>2022-08-24T14:42:32Z</time>
      </trkpt>
      <trkpt lat="42.937490999999916" lon="-1.4773339999999975">
        <ele>770.877</ele>
        <time>2022-08-24T14:42:33Z</time>
      </trkpt>
      <trkpt lat="42.93750099999992" lon="-1.4773779999999974">
        <ele>770.847</ele>
        <time>2022-08-24T14:42:34Z</time>
      </trkpt>
      <trkpt lat="42.93751199999992" lon="-1.4774349999999974">
        <ele>771.053</ele>
        <time>2022-08-24T14:42:35Z</time>
      </trkpt>
      <trkpt lat="42.93752199999992" lon="-1.4774859999999974">
        <ele>771.065</ele>
        <time>2022-08-24T14:42:36Z</time>
      </trkpt>
      <trkpt lat="42.937532999999924" lon="-1.4775419999999975">
        <ele>771.052</ele>
        <time>2022-08-24T14:42:37Z</time>
      </trkpt>
      <trkpt lat="42.937540999999925" lon="-1.4775879999999975">
        <ele>771.015</ele>
        <time>2022-08-24T14:42:38Z</time>
      </trkpt>
      <trkpt lat="42.93754999999992" lon="-1.4776489999999975">
        <ele>771.069</ele>
        <time>2022-08-24T14:42:39Z</time>
      </trkpt>
      <trkpt lat="42.93755999999993" lon="-1.4777249999999975">
        <ele>770.868</ele>
        <time>2022-08-24T14:42:40Z</time>
      </trkpt>
      <trkpt lat="42.93757099999993" lon="-1.4777869999999975">
        <ele>770.638</ele>
        <time>2022-08-24T14:42:41Z</time>
      </trkpt>
      <trkpt lat="42.937582999999925" lon="-1.4778479999999976">
        <ele>770.670</ele>
        <time>2022-08-24T14:42:42Z</time>
      </trkpt>
      <trkpt lat="42.93761499999992" lon="-1.4780219999999975">
        <ele>770.017</ele>
        <time>2022-08-24T14:42:45Z</time>
      </trkpt>
      <trkpt lat="42.93762699999992" lon="-1.4780889999999975">
        <ele>769.609</ele>
        <time>2022-08-24T14:42:46Z</time>
      </trkpt>
      <trkpt lat="42.93763299999992" lon="-1.4781389999999976">
        <ele>769.654</ele>
        <time>2022-08-24T14:42:47Z</time>
      </trkpt>
      <trkpt lat="42.93763099999992" lon="-1.4781799999999976">
        <ele>769.484</ele>
        <time>2022-08-24T14:42:48Z</time>
      </trkpt>
      <trkpt lat="42.93763099999992" lon="-1.4782239999999975">
        <ele>769.444</ele>
        <time>2022-08-24T14:42:49Z</time>
      </trkpt>
      <trkpt lat="42.93763099999992" lon="-1.4782659999999976">
        <ele>769.470</ele>
        <time>2022-08-24T14:42:50Z</time>
      </trkpt>
      <trkpt lat="42.93764399999992" lon="-1.4785169999999976">
        <ele>769.022</ele>
        <time>2022-08-24T14:42:55Z</time>
      </trkpt>
      <trkpt lat="42.93765199999992" lon="-1.4787049999999977">
        <ele>768.849</ele>
        <time>2022-08-24T14:42:58Z</time>
      </trkpt>
      <trkpt lat="42.93765699999992" lon="-1.4787449999999978">
        <ele>768.872</ele>
        <time>2022-08-24T14:42:59Z</time>
      </trkpt>
      <trkpt lat="42.93767099999992" lon="-1.4788609999999978">
        <ele>768.666</ele>
        <time>2022-08-24T14:43:01Z</time>
      </trkpt>
      <trkpt lat="42.937681999999924" lon="-1.4789349999999977">
        <ele>768.465</ele>
        <time>2022-08-24T14:43:02Z</time>
      </trkpt>
      <trkpt lat="42.93769699999992" lon="-1.4789919999999976">
        <ele>768.033</ele>
        <time>2022-08-24T14:43:03Z</time>
      </trkpt>
      <trkpt lat="42.93771399999992" lon="-1.4790309999999975">
        <ele>767.823</ele>
        <time>2022-08-24T14:43:04Z</time>
      </trkpt>
      <trkpt lat="42.93774999999992" lon="-1.4791399999999975">
        <ele>767.215</ele>
        <time>2022-08-24T14:43:06Z</time>
      </trkpt>
      <trkpt lat="42.937765999999925" lon="-1.4792139999999974">
        <ele>766.609</ele>
        <time>2022-08-24T14:43:07Z</time>
      </trkpt>
      <trkpt lat="42.937791999999924" lon="-1.4793409999999974">
        <ele>766.264</ele>
        <time>2022-08-24T14:43:09Z</time>
      </trkpt>
      <trkpt lat="42.93781299999992" lon="-1.4794539999999974">
        <ele>765.884</ele>
        <time>2022-08-24T14:43:11Z</time>
      </trkpt>
      <trkpt lat="42.93781499999992" lon="-1.4794999999999974">
        <ele>765.624</ele>
        <time>2022-08-24T14:43:12Z</time>
      </trkpt>
      <trkpt lat="42.93781599999992" lon="-1.4795469999999973">
        <ele>765.420</ele>
        <time>2022-08-24T14:43:13Z</time>
      </trkpt>
      <trkpt lat="42.93782199999992" lon="-1.4795829999999972">
        <ele>765.442</ele>
        <time>2022-08-24T14:43:14Z</time>
      </trkpt>
      <trkpt lat="42.93783499999992" lon="-1.4796659999999973">
        <ele>765.219</ele>
        <time>2022-08-24T14:43:16Z</time>
      </trkpt>
      <trkpt lat="42.93785399999992" lon="-1.4797679999999973">
        <ele>765.032</ele>
        <time>2022-08-24T14:43:18Z</time>
      </trkpt>
      <trkpt lat="42.937864999999924" lon="-1.4798389999999972">
        <ele>764.816</ele>
        <time>2022-08-24T14:43:19Z</time>
      </trkpt>
      <trkpt lat="42.93788299999992" lon="-1.4799159999999973">
        <ele>764.665</ele>
        <time>2022-08-24T14:43:20Z</time>
      </trkpt>
      <trkpt lat="42.93790099999992" lon="-1.4799879999999974">
        <ele>764.276</ele>
        <time>2022-08-24T14:43:21Z</time>
      </trkpt>
      <trkpt lat="42.93792299999992" lon="-1.4800549999999975">
        <ele>764.090</ele>
        <time>2022-08-24T14:43:22Z</time>
      </trkpt>
      <trkpt lat="42.93794599999992" lon="-1.4801139999999975">
        <ele>763.819</ele>
        <time>2022-08-24T14:43:23Z</time>
      </trkpt>
      <trkpt lat="42.937966999999915" lon="-1.4801729999999975">
        <ele>763.609</ele>
        <time>2022-08-24T14:43:24Z</time>
      </trkpt>
      <trkpt lat="42.93798499999991" lon="-1.4802349999999975">
        <ele>763.448</ele>
        <time>2022-08-24T14:43:25Z</time>
      </trkpt>
      <trkpt lat="42.93799299999991" lon="-1.4802829999999976">
        <ele>763.228</ele>
        <time>2022-08-24T14:43:26Z</time>
      </trkpt>
      <trkpt lat="42.938003999999914" lon="-1.4803309999999976">
        <ele>763.298</ele>
        <time>2022-08-24T14:43:27Z</time>
      </trkpt>
      <trkpt lat="42.93801599999991" lon="-1.4803769999999976">
        <ele>763.274</ele>
        <time>2022-08-24T14:43:28Z</time>
      </trkpt>
      <trkpt lat="42.93803099999991" lon="-1.4804369999999976">
        <ele>763.086</ele>
        <time>2022-08-24T14:43:29Z</time>
      </trkpt>
      <trkpt lat="42.93806299999991" lon="-1.4805839999999975">
        <ele>762.853</ele>
        <time>2022-08-24T14:43:32Z</time>
      </trkpt>
      <trkpt lat="42.938071999999906" lon="-1.4806339999999976">
        <ele>762.626</ele>
        <time>2022-08-24T14:43:33Z</time>
      </trkpt>
      <trkpt lat="42.938083999999904" lon="-1.4806899999999976">
        <ele>762.420</ele>
        <time>2022-08-24T14:43:34Z</time>
      </trkpt>
      <trkpt lat="42.938091999999905" lon="-1.4807319999999977">
        <ele>762.449</ele>
        <time>2022-08-24T14:43:35Z</time>
      </trkpt>
      <trkpt lat="42.9380989999999" lon="-1.4807619999999977">
        <ele>762.075</ele>
        <time>2022-08-24T14:43:36Z</time>
      </trkpt>
      <trkpt lat="42.9381079999999" lon="-1.4807909999999977">
        <ele>761.828</ele>
        <time>2022-08-24T14:43:37Z</time>
      </trkpt>
      <trkpt lat="42.9381199999999" lon="-1.4808119999999978">
        <ele>761.620</ele>
        <time>2022-08-24T14:43:38Z</time>
      </trkpt>
      <trkpt lat="42.9381359999999" lon="-1.4808449999999977">
        <ele>761.409</ele>
        <time>2022-08-24T14:43:39Z</time>
      </trkpt>
      <trkpt lat="42.9381509999999" lon="-1.4808779999999977">
        <ele>761.228</ele>
        <time>2022-08-24T14:43:40Z</time>
      </trkpt>
      <trkpt lat="42.938165999999896" lon="-1.4809399999999977">
        <ele>761.058</ele>
        <time>2022-08-24T14:43:42Z</time>
      </trkpt>
      <trkpt lat="42.938171999999895" lon="-1.4809729999999977">
        <ele>760.648</ele>
        <time>2022-08-24T14:43:43Z</time>
      </trkpt>
      <trkpt lat="42.938180999999894" lon="-1.4810149999999977">
        <ele>760.464</ele>
        <time>2022-08-24T14:43:44Z</time>
      </trkpt>
      <trkpt lat="42.93818699999989" lon="-1.4810489999999978">
        <ele>760.246</ele>
        <time>2022-08-24T14:43:45Z</time>
      </trkpt>
      <trkpt lat="42.93819399999989" lon="-1.481077999999998">
        <ele>760.273</ele>
        <time>2022-08-24T14:43:46Z</time>
      </trkpt>
      <trkpt lat="42.93820899999989" lon="-1.481184999999998">
        <ele>760.076</ele>
        <time>2022-08-24T14:43:49Z</time>
      </trkpt>
      <trkpt lat="42.938217999999885" lon="-1.481225999999998">
        <ele>759.630</ele>
        <time>2022-08-24T14:43:50Z</time>
      </trkpt>
      <trkpt lat="42.93822599999989" lon="-1.481257999999998">
        <ele>759.629</ele>
        <time>2022-08-24T14:43:51Z</time>
      </trkpt>
      <trkpt lat="42.93824199999989" lon="-1.481316999999998">
        <ele>759.233</ele>
        <time>2022-08-24T14:43:53Z</time>
      </trkpt>
      <trkpt lat="42.938248999999885" lon="-1.481346999999998">
        <ele>759.023</ele>
        <time>2022-08-24T14:43:54Z</time>
      </trkpt>
      <trkpt lat="42.93825599999988" lon="-1.481378999999998">
        <ele>758.815</ele>
        <time>2022-08-24T14:43:55Z</time>
      </trkpt>
      <trkpt lat="42.93825999999988" lon="-1.481404999999998">
        <ele>758.609</ele>
        <time>2022-08-24T14:43:56Z</time>
      </trkpt>
      <trkpt lat="42.938260999999876" lon="-1.4814339999999981">
        <ele>758.234</ele>
        <time>2022-08-24T14:43:57Z</time>
      </trkpt>
      <trkpt lat="42.938266999999875" lon="-1.4814959999999981">
        <ele>757.834</ele>
        <time>2022-08-24T14:43:59Z</time>
      </trkpt>
      <trkpt lat="42.93827499999988" lon="-1.4815579999999982">
        <ele>757.214</ele>
        <time>2022-08-24T14:44:01Z</time>
      </trkpt>
      <trkpt lat="42.93827499999988" lon="-1.4815799999999981">
        <ele>756.820</ele>
        <time>2022-08-24T14:44:02Z</time>
      </trkpt>
      <trkpt lat="42.93827399999988" lon="-1.4815979999999982">
        <ele>756.692</ele>
        <time>2022-08-24T14:44:03Z</time>
      </trkpt>
      <trkpt lat="42.93827099999988" lon="-1.4816229999999981">
        <ele>756.229</ele>
        <time>2022-08-24T14:44:04Z</time>
      </trkpt>
      <trkpt lat="42.93827599999988" lon="-1.4817119999999981">
        <ele>755.642</ele>
        <time>2022-08-24T14:44:07Z</time>
      </trkpt>
      <trkpt lat="42.93828399999988" lon="-1.4817349999999982">
        <ele>755.436</ele>
        <time>2022-08-24T14:44:08Z</time>
      </trkpt>
      <trkpt lat="42.938293999999885" lon="-1.4817609999999983">
        <ele>755.085</ele>
        <time>2022-08-24T14:44:09Z</time>
      </trkpt>
      <trkpt lat="42.938302999999884" lon="-1.4817889999999982">
        <ele>754.827</ele>
        <time>2022-08-24T14:44:10Z</time>
      </trkpt>
      <trkpt lat="42.938313999999885" lon="-1.4818249999999982">
        <ele>754.468</ele>
        <time>2022-08-24T14:44:11Z</time>
      </trkpt>
      <trkpt lat="42.93833999999988" lon="-1.4819779999999982">
        <ele>753.814</ele>
        <time>2022-08-24T14:44:15Z</time>
      </trkpt>
      <trkpt lat="42.938349999999886" lon="-1.4820239999999982">
        <ele>753.409</ele>
        <time>2022-08-24T14:44:16Z</time>
      </trkpt>
      <trkpt lat="42.938355999999885" lon="-1.4820579999999983">
        <ele>753.273</ele>
        <time>2022-08-24T14:44:17Z</time>
      </trkpt>
      <trkpt lat="42.93836099999989" lon="-1.4820859999999982">
        <ele>752.893</ele>
        <time>2022-08-24T14:44:18Z</time>
      </trkpt>
      <trkpt lat="42.938363999999886" lon="-1.4821089999999983">
        <ele>752.873</ele>
        <time>2022-08-24T14:44:19Z</time>
      </trkpt>
      <trkpt lat="42.93836799999988" lon="-1.4821369999999983">
        <ele>752.469</ele>
        <time>2022-08-24T14:44:20Z</time>
      </trkpt>
      <trkpt lat="42.93837499999988" lon="-1.4821709999999984">
        <ele>752.031</ele>
        <time>2022-08-24T14:44:21Z</time>
      </trkpt>
      <trkpt lat="42.93839299999988" lon="-1.4822739999999983">
        <ele>751.228</ele>
        <time>2022-08-24T14:44:24Z</time>
      </trkpt>
      <trkpt lat="42.938398999999876" lon="-1.4823049999999982">
        <ele>751.271</ele>
        <time>2022-08-24T14:44:25Z</time>
      </trkpt>
      <trkpt lat="42.938412999999876" lon="-1.4823779999999982">
        <ele>751.085</ele>
        <time>2022-08-24T14:44:27Z</time>
      </trkpt>
      <trkpt lat="42.938418999999875" lon="-1.4824119999999983">
        <ele>751.044</ele>
        <time>2022-08-24T14:44:28Z</time>
      </trkpt>
      <trkpt lat="42.93846799999987" lon="-1.4826219999999983">
        <ele>749.852</ele>
        <time>2022-08-24T14:44:33Z</time>
      </trkpt>
      <trkpt lat="42.93849299999987" lon="-1.4827009999999983">
        <ele>749.253</ele>
        <time>2022-08-24T14:44:35Z</time>
      </trkpt>
      <trkpt lat="42.93850199999987" lon="-1.4827479999999982">
        <ele>748.808</ele>
        <time>2022-08-24T14:44:36Z</time>
      </trkpt>
      <trkpt lat="42.93851299999987" lon="-1.482802999999998">
        <ele>748.409</ele>
        <time>2022-08-24T14:44:37Z</time>
      </trkpt>
      <trkpt lat="42.93852499999987" lon="-1.482841999999998">
        <ele>748.256</ele>
        <time>2022-08-24T14:44:38Z</time>
      </trkpt>
      <trkpt lat="42.93853699999987" lon="-1.482867999999998">
        <ele>747.826</ele>
        <time>2022-08-24T14:44:39Z</time>
      </trkpt>
      <trkpt lat="42.938568999999866" lon="-1.482900999999998">
        <ele>747.456</ele>
        <time>2022-08-24T14:44:41Z</time>
      </trkpt>
      <trkpt lat="42.938591999999865" lon="-1.482922999999998">
        <ele>746.872</ele>
        <time>2022-08-24T14:44:42Z</time>
      </trkpt>
      <trkpt lat="42.93861899999987" lon="-1.482942999999998">
        <ele>746.674</ele>
        <time>2022-08-24T14:44:43Z</time>
      </trkpt>
      <trkpt lat="42.93864099999987" lon="-1.4829629999999978">
        <ele>746.221</ele>
        <time>2022-08-24T14:44:44Z</time>
      </trkpt>
      <trkpt lat="42.93865799999987" lon="-1.4829809999999979">
        <ele>746.264</ele>
        <time>2022-08-24T14:44:45Z</time>
      </trkpt>
      <trkpt lat="42.938678999999865" lon="-1.483003999999998">
        <ele>745.878</ele>
        <time>2022-08-24T14:44:46Z</time>
      </trkpt>
      <trkpt lat="42.93869499999987" lon="-1.483018999999998">
        <ele>745.467</ele>
        <time>2022-08-24T14:44:47Z</time>
      </trkpt>
      <trkpt lat="42.93871099999987" lon="-1.4830319999999981">
        <ele>745.229</ele>
        <time>2022-08-24T14:44:48Z</time>
      </trkpt>
      <trkpt lat="42.93875599999987" lon="-1.4831009999999982">
        <ele>744.000</ele>
        <time>2022-08-24T14:44:51Z</time>
      </trkpt>
      <trkpt lat="42.93876999999987" lon="-1.4831359999999982">
        <ele>743.620</ele>
        <time>2022-08-24T14:44:52Z</time>
      </trkpt>
      <trkpt lat="42.93877099999987" lon="-1.4831649999999983">
        <ele>743.409</ele>
        <time>2022-08-24T14:44:53Z</time>
      </trkpt>
      <trkpt lat="42.93876499999987" lon="-1.4831899999999982">
        <ele>742.883</ele>
        <time>2022-08-24T14:44:54Z</time>
      </trkpt>
      <trkpt lat="42.93875399999987" lon="-1.4832469999999982">
        <ele>741.643</ele>
        <time>2022-08-24T14:44:56Z</time>
      </trkpt>
      <trkpt lat="42.93874499999987" lon="-1.4832879999999982">
        <ele>741.283</ele>
        <time>2022-08-24T14:44:57Z</time>
      </trkpt>
      <trkpt lat="42.93873399999987" lon="-1.4833329999999982">
        <ele>740.289</ele>
        <time>2022-08-24T14:44:58Z</time>
      </trkpt>
      <trkpt lat="42.93873299999987" lon="-1.4833689999999982">
        <ele>739.651</ele>
        <time>2022-08-24T14:44:59Z</time>
      </trkpt>
      <trkpt lat="42.93873299999987" lon="-1.4833979999999982">
        <ele>739.468</ele>
        <time>2022-08-24T14:45:00Z</time>
      </trkpt>
      <trkpt lat="42.93872699999987" lon="-1.4834299999999983">
        <ele>739.091</ele>
        <time>2022-08-24T14:45:01Z</time>
      </trkpt>
      <trkpt lat="42.938674999999876" lon="-1.4835749999999983">
        <ele>738.085</ele>
        <time>2022-08-24T14:45:05Z</time>
      </trkpt>
      <trkpt lat="42.93867299999987" lon="-1.4836079999999983">
        <ele>737.864</ele>
        <time>2022-08-24T14:45:06Z</time>
      </trkpt>
      <trkpt lat="42.93867299999987" lon="-1.4836269999999983">
        <ele>737.417</ele>
        <time>2022-08-24T14:45:07Z</time>
      </trkpt>
      <trkpt lat="42.93867099999987" lon="-1.4836319999999983">
        <ele>737.087</ele>
        <time>2022-08-24T14:45:08Z</time>
      </trkpt>
      <trkpt lat="42.938666999999874" lon="-1.4836469999999984">
        <ele>736.815</ele>
        <time>2022-08-24T14:45:09Z</time>
      </trkpt>
      <trkpt lat="42.938652999999874" lon="-1.4836679999999984">
        <ele>736.609</ele>
        <time>2022-08-24T14:45:10Z</time>
      </trkpt>
      <trkpt lat="42.938641999999874" lon="-1.4836969999999985">
        <ele>736.642</ele>
        <time>2022-08-24T14:45:11Z</time>
      </trkpt>
      <trkpt lat="42.93862899999987" lon="-1.4837239999999985">
        <ele>736.422</ele>
        <time>2022-08-24T14:45:12Z</time>
      </trkpt>
      <trkpt lat="42.93859499999987" lon="-1.4838429999999985">
        <ele>735.852</ele>
        <time>2022-08-24T14:45:15Z</time>
      </trkpt>
      <trkpt lat="42.93859299999987" lon="-1.4838809999999985">
        <ele>735.818</ele>
        <time>2022-08-24T14:45:16Z</time>
      </trkpt>
      <trkpt lat="42.93859699999987" lon="-1.4839289999999985">
        <ele>735.410</ele>
        <time>2022-08-24T14:45:17Z</time>
      </trkpt>
      <trkpt lat="42.938591999999865" lon="-1.4839619999999984">
        <ele>735.027</ele>
        <time>2022-08-24T14:45:18Z</time>
      </trkpt>
      <trkpt lat="42.93858799999987" lon="-1.4840289999999985">
        <ele>734.420</ele>
        <time>2022-08-24T14:45:20Z</time>
      </trkpt>
      <trkpt lat="42.938574999999865" lon="-1.4840659999999986">
        <ele>734.234</ele>
        <time>2022-08-24T14:45:21Z</time>
      </trkpt>
      <trkpt lat="42.93855699999987" lon="-1.4840989999999985">
        <ele>733.833</ele>
        <time>2022-08-24T14:45:22Z</time>
      </trkpt>
      <trkpt lat="42.93855099999987" lon="-1.4841199999999986">
        <ele>733.417</ele>
        <time>2022-08-24T14:45:23Z</time>
      </trkpt>
      <trkpt lat="42.938537999999866" lon="-1.4841549999999986">
        <ele>733.287</ele>
        <time>2022-08-24T14:45:24Z</time>
      </trkpt>
      <trkpt lat="42.93852499999986" lon="-1.4841889999999986">
        <ele>732.815</ele>
        <time>2022-08-24T14:45:25Z</time>
      </trkpt>
      <trkpt lat="42.93851499999986" lon="-1.4842169999999986">
        <ele>732.409</ele>
        <time>2022-08-24T14:45:26Z</time>
      </trkpt>
      <trkpt lat="42.93850699999986" lon="-1.4842449999999985">
        <ele>732.212</ele>
        <time>2022-08-24T14:45:27Z</time>
      </trkpt>
      <trkpt lat="42.93850099999986" lon="-1.4842709999999986">
        <ele>732.072</ele>
        <time>2022-08-24T14:45:28Z</time>
      </trkpt>
      <trkpt lat="42.93850099999986" lon="-1.4842929999999985">
        <ele>731.862</ele>
        <time>2022-08-24T14:45:29Z</time>
      </trkpt>
      <trkpt lat="42.93850699999986" lon="-1.4843129999999984">
        <ele>731.878</ele>
        <time>2022-08-24T14:45:30Z</time>
      </trkpt>
      <trkpt lat="42.93851499999986" lon="-1.4843339999999985">
        <ele>731.690</ele>
        <time>2022-08-24T14:45:31Z</time>
      </trkpt>
      <trkpt lat="42.93852499999986" lon="-1.4843519999999986">
        <ele>731.637</ele>
        <time>2022-08-24T14:45:32Z</time>
      </trkpt>
      <trkpt lat="42.938535999999864" lon="-1.4843719999999985">
        <ele>731.680</ele>
        <time>2022-08-24T14:45:33Z</time>
      </trkpt>
      <trkpt lat="42.93854299999986" lon="-1.4843909999999985">
        <ele>731.244</ele>
        <time>2022-08-24T14:45:34Z</time>
      </trkpt>
      <trkpt lat="42.93855099999986" lon="-1.4844109999999984">
        <ele>731.493</ele>
        <time>2022-08-24T14:45:35Z</time>
      </trkpt>
      <trkpt lat="42.93855899999986" lon="-1.4844329999999983">
        <ele>731.044</ele>
        <time>2022-08-24T14:45:36Z</time>
      </trkpt>
      <trkpt lat="42.938563999999865" lon="-1.4844499999999983">
        <ele>730.605</ele>
        <time>2022-08-24T14:45:37Z</time>
      </trkpt>
      <trkpt lat="42.93856299999987" lon="-1.4844619999999982">
        <ele>730.615</ele>
        <time>2022-08-24T14:45:38Z</time>
      </trkpt>
      <trkpt lat="42.93855599999987" lon="-1.4844799999999982">
        <ele>730.409</ele>
        <time>2022-08-24T14:45:39Z</time>
      </trkpt>
      <trkpt lat="42.938548999999874" lon="-1.4845029999999984">
        <ele>730.415</ele>
        <time>2022-08-24T14:45:40Z</time>
      </trkpt>
      <trkpt lat="42.93854199999988" lon="-1.4845409999999983">
        <ele>730.295</ele>
        <time>2022-08-24T14:45:41Z</time>
      </trkpt>
      <trkpt lat="42.938539999999875" lon="-1.4845649999999984">
        <ele>730.255</ele>
        <time>2022-08-24T14:45:42Z</time>
      </trkpt>
      <trkpt lat="42.93854099999987" lon="-1.4845869999999983">
        <ele>730.021</ele>
        <time>2022-08-24T14:45:43Z</time>
      </trkpt>
      <trkpt lat="42.93854199999987" lon="-1.4846069999999982">
        <ele>729.863</ele>
        <time>2022-08-24T14:45:44Z</time>
      </trkpt>
      <trkpt lat="42.93854299999987" lon="-1.4846259999999982">
        <ele>729.660</ele>
        <time>2022-08-24T14:45:45Z</time>
      </trkpt>
      <trkpt lat="42.93853999999987" lon="-1.4846719999999982">
        <ele>729.053</ele>
        <time>2022-08-24T14:45:47Z</time>
      </trkpt>
      <trkpt lat="42.93853899999987" lon="-1.4847009999999983">
        <ele>728.667</ele>
        <time>2022-08-24T14:45:48Z</time>
      </trkpt>
      <trkpt lat="42.93854399999987" lon="-1.4847549999999983">
        <ele>728.266</ele>
        <time>2022-08-24T14:45:50Z</time>
      </trkpt>
      <trkpt lat="42.938548999999874" lon="-1.4847879999999982">
        <ele>728.092</ele>
        <time>2022-08-24T14:45:51Z</time>
      </trkpt>
      <trkpt lat="42.93855899999988" lon="-1.4848169999999983">
        <ele>728.073</ele>
        <time>2022-08-24T14:45:52Z</time>
      </trkpt>
      <trkpt lat="42.938567999999876" lon="-1.4848469999999983">
        <ele>727.820</ele>
        <time>2022-08-24T14:45:53Z</time>
      </trkpt>
      <trkpt lat="42.938573999999875" lon="-1.4848819999999983">
        <ele>727.609</ele>
        <time>2022-08-24T14:45:54Z</time>
      </trkpt>
      <trkpt lat="42.93860899999987" lon="-1.4849759999999983">
        <ele>726.670</ele>
        <time>2022-08-24T14:45:57Z</time>
      </trkpt>
      <trkpt lat="42.93861799999987" lon="-1.4850009999999982">
        <ele>726.280</ele>
        <time>2022-08-24T14:45:58Z</time>
      </trkpt>
      <trkpt lat="42.93863099999987" lon="-1.4850209999999981">
        <ele>726.270</ele>
        <time>2022-08-24T14:45:59Z</time>
      </trkpt>
      <trkpt lat="42.93864499999987" lon="-1.4850449999999982">
        <ele>726.046</ele>
        <time>2022-08-24T14:46:00Z</time>
      </trkpt>
      <trkpt lat="42.93865899999987" lon="-1.485064999999998">
        <ele>725.838</ele>
        <time>2022-08-24T14:46:01Z</time>
      </trkpt>
      <trkpt lat="42.93866799999987" lon="-1.4850829999999982">
        <ele>725.465</ele>
        <time>2022-08-24T14:46:02Z</time>
      </trkpt>
      <trkpt lat="42.93867199999987" lon="-1.4851019999999981">
        <ele>724.888</ele>
        <time>2022-08-24T14:46:03Z</time>
      </trkpt>
      <trkpt lat="42.93868199999987" lon="-1.485115999999998">
        <ele>724.632</ele>
        <time>2022-08-24T14:46:04Z</time>
      </trkpt>
      <trkpt lat="42.938691999999875" lon="-1.4851289999999981">
        <ele>724.231</ele>
        <time>2022-08-24T14:46:05Z</time>
      </trkpt>
      <trkpt lat="42.938702999999876" lon="-1.4851519999999983">
        <ele>724.413</ele>
        <time>2022-08-24T14:46:06Z</time>
      </trkpt>
      <trkpt lat="42.938708999999875" lon="-1.4851699999999983">
        <ele>724.043</ele>
        <time>2022-08-24T14:46:07Z</time>
      </trkpt>
      <trkpt lat="42.938711999999875" lon="-1.4851869999999983">
        <ele>723.807</ele>
        <time>2022-08-24T14:46:08Z</time>
      </trkpt>
      <trkpt lat="42.93871299999987" lon="-1.4852029999999983">
        <ele>723.609</ele>
        <time>2022-08-24T14:46:09Z</time>
      </trkpt>
      <trkpt lat="42.93871599999987" lon="-1.4852159999999983">
        <ele>723.632</ele>
        <time>2022-08-24T14:46:10Z</time>
      </trkpt>
      <trkpt lat="42.93874799999987" lon="-1.4852739999999982">
        <ele>722.832</ele>
        <time>2022-08-24T14:46:14Z</time>
      </trkpt>
      <trkpt lat="42.938751999999866" lon="-1.4852849999999982">
        <ele>722.862</ele>
        <time>2022-08-24T14:46:15Z</time>
      </trkpt>
      <trkpt lat="42.93875699999987" lon="-1.485296999999998">
        <ele>722.238</ele>
        <time>2022-08-24T14:46:16Z</time>
      </trkpt>
      <trkpt lat="42.93875699999987" lon="-1.485308999999998">
        <ele>722.090</ele>
        <time>2022-08-24T14:46:17Z</time>
      </trkpt>
      <trkpt lat="42.93876499999987" lon="-1.485333999999998">
        <ele>722.077</ele>
        <time>2022-08-24T14:46:18Z</time>
      </trkpt>
      <trkpt lat="42.93877499999987" lon="-1.485355999999998">
        <ele>721.890</ele>
        <time>2022-08-24T14:46:19Z</time>
      </trkpt>
      <trkpt lat="42.93878399999987" lon="-1.485374999999998">
        <ele>721.854</ele>
        <time>2022-08-24T14:46:20Z</time>
      </trkpt>
      <trkpt lat="42.93878999999987" lon="-1.485398999999998">
        <ele>721.623</ele>
        <time>2022-08-24T14:46:21Z</time>
      </trkpt>
      <trkpt lat="42.93879499999987" lon="-1.4854189999999978">
        <ele>721.478</ele>
        <time>2022-08-24T14:46:22Z</time>
      </trkpt>
      <trkpt lat="42.93880299999987" lon="-1.4854399999999979">
        <ele>721.233</ele>
        <time>2022-08-24T14:46:23Z</time>
      </trkpt>
      <trkpt lat="42.938804999999874" lon="-1.485446999999998">
        <ele>721.026</ele>
        <time>2022-08-24T14:46:24Z</time>
      </trkpt>
      <trkpt lat="42.938812999999875" lon="-1.485462999999998">
        <ele>721.009</ele>
        <time>2022-08-24T14:46:25Z</time>
      </trkpt>
      <trkpt lat="42.93882099999988" lon="-1.485479999999998">
        <ele>720.618</ele>
        <time>2022-08-24T14:46:26Z</time>
      </trkpt>
      <trkpt lat="42.93883099999988" lon="-1.485497999999998">
        <ele>720.678</ele>
        <time>2022-08-24T14:46:27Z</time>
      </trkpt>
      <trkpt lat="42.93888699999988" lon="-1.4856179999999979">
        <ele>720.078</ele>
        <time>2022-08-24T14:46:32Z</time>
      </trkpt>
      <trkpt lat="42.93889099999988" lon="-1.4856449999999979">
        <ele>719.894</ele>
        <time>2022-08-24T14:46:33Z</time>
      </trkpt>
      <trkpt lat="42.93889299999988" lon="-1.4856779999999978">
        <ele>719.656</ele>
        <time>2022-08-24T14:46:34Z</time>
      </trkpt>
      <trkpt lat="42.93891099999988" lon="-1.4857139999999978">
        <ele>719.273</ele>
        <time>2022-08-24T14:46:35Z</time>
      </trkpt>
      <trkpt lat="42.938939999999874" lon="-1.4857949999999978">
        <ele>718.266</ele>
        <time>2022-08-24T14:46:38Z</time>
      </trkpt>
      <trkpt lat="42.93894999999988" lon="-1.4858149999999977">
        <ele>718.070</ele>
        <time>2022-08-24T14:46:39Z</time>
      </trkpt>
      <trkpt lat="42.938964999999875" lon="-1.4858469999999977">
        <ele>717.899</ele>
        <time>2022-08-24T14:46:40Z</time>
      </trkpt>
      <trkpt lat="42.93897799999988" lon="-1.4858709999999977">
        <ele>717.871</ele>
        <time>2022-08-24T14:46:41Z</time>
      </trkpt>
      <trkpt lat="42.93899399999988" lon="-1.4859329999999977">
        <ele>717.641</ele>
        <time>2022-08-24T14:46:43Z</time>
      </trkpt>
      <trkpt lat="42.93901099999988" lon="-1.4859929999999977">
        <ele>717.215</ele>
        <time>2022-08-24T14:46:45Z</time>
      </trkpt>
      <trkpt lat="42.93900999999988" lon="-1.4860299999999977">
        <ele>717.009</ele>
        <time>2022-08-24T14:46:46Z</time>
      </trkpt>
      <trkpt lat="42.93902699999988" lon="-1.4860699999999978">
        <ele>716.858</ele>
        <time>2022-08-24T14:46:47Z</time>
      </trkpt>
      <trkpt lat="42.93905199999988" lon="-1.4861059999999977">
        <ele>716.678</ele>
        <time>2022-08-24T14:46:48Z</time>
      </trkpt>
      <trkpt lat="42.939081999999885" lon="-1.4861599999999977">
        <ele>716.698</ele>
        <time>2022-08-24T14:46:49Z</time>
      </trkpt>
      <trkpt lat="42.939092999999886" lon="-1.4861899999999977">
        <ele>716.414</ele>
        <time>2022-08-24T14:46:50Z</time>
      </trkpt>
      <trkpt lat="42.93910099999989" lon="-1.4862179999999976">
        <ele>716.446</ele>
        <time>2022-08-24T14:46:51Z</time>
      </trkpt>
      <trkpt lat="42.93910599999989" lon="-1.4862539999999975">
        <ele>716.213</ele>
        <time>2022-08-24T14:46:52Z</time>
      </trkpt>
      <trkpt lat="42.939112999999885" lon="-1.4862719999999976">
        <ele>716.036</ele>
        <time>2022-08-24T14:46:53Z</time>
      </trkpt>
      <trkpt lat="42.939121999999884" lon="-1.4862909999999976">
        <ele>715.830</ele>
        <time>2022-08-24T14:46:54Z</time>
      </trkpt>
      <trkpt lat="42.93913399999988" lon="-1.4863139999999977">
        <ele>715.449</ele>
        <time>2022-08-24T14:46:55Z</time>
      </trkpt>
      <trkpt lat="42.939157999999885" lon="-1.4863609999999976">
        <ele>715.296</ele>
        <time>2022-08-24T14:46:57Z</time>
      </trkpt>
      <trkpt lat="42.93919099999989" lon="-1.4864409999999977">
        <ele>715.231</ele>
        <time>2022-08-24T14:47:00Z</time>
      </trkpt>
      <trkpt lat="42.939199999999886" lon="-1.4864649999999977">
        <ele>715.024</ele>
        <time>2022-08-24T14:47:01Z</time>
      </trkpt>
      <trkpt lat="42.93923899999989" lon="-1.4865319999999977">
        <ele>714.609</ele>
        <time>2022-08-24T14:47:04Z</time>
      </trkpt>
      <trkpt lat="42.93929499999989" lon="-1.4866289999999978">
        <ele>714.050</ele>
        <time>2022-08-24T14:47:07Z</time>
      </trkpt>
      <trkpt lat="42.939309999999885" lon="-1.4866529999999978">
        <ele>713.630</ele>
        <time>2022-08-24T14:47:08Z</time>
      </trkpt>
      <trkpt lat="42.93934199999988" lon="-1.4867039999999978">
        <ele>713.430</ele>
        <time>2022-08-24T14:47:10Z</time>
      </trkpt>
      <trkpt lat="42.939354999999885" lon="-1.4867299999999979">
        <ele>713.286</ele>
        <time>2022-08-24T14:47:11Z</time>
      </trkpt>
      <trkpt lat="42.939380999999884" lon="-1.4867689999999978">
        <ele>713.088</ele>
        <time>2022-08-24T14:47:13Z</time>
      </trkpt>
      <trkpt lat="42.939393999999886" lon="-1.4867849999999978">
        <ele>712.855</ele>
        <time>2022-08-24T14:47:14Z</time>
      </trkpt>
      <trkpt lat="42.93940699999989" lon="-1.486791999999998">
        <ele>712.688</ele>
        <time>2022-08-24T14:47:15Z</time>
      </trkpt>
      <trkpt lat="42.93942099999989" lon="-1.4868009999999978">
        <ele>712.482</ele>
        <time>2022-08-24T14:47:16Z</time>
      </trkpt>
      <trkpt lat="42.93943799999989" lon="-1.486818999999998">
        <ele>712.231</ele>
        <time>2022-08-24T14:47:17Z</time>
      </trkpt>
      <trkpt lat="42.93947799999989" lon="-1.4868549999999978">
        <ele>712.013</ele>
        <time>2022-08-24T14:47:19Z</time>
      </trkpt>
      <trkpt lat="42.93949399999989" lon="-1.486861999999998">
        <ele>711.843</ele>
        <time>2022-08-24T14:47:20Z</time>
      </trkpt>
      <trkpt lat="42.93950999999989" lon="-1.4868679999999979">
        <ele>711.407</ele>
        <time>2022-08-24T14:47:21Z</time>
      </trkpt>
      <trkpt lat="42.93952199999989" lon="-1.486882999999998">
        <ele>711.409</ele>
        <time>2022-08-24T14:47:22Z</time>
      </trkpt>
      <trkpt lat="42.93953399999989" lon="-1.486898999999998">
        <ele>711.272</ele>
        <time>2022-08-24T14:47:23Z</time>
      </trkpt>
      <trkpt lat="42.93954199999989" lon="-1.486915999999998">
        <ele>711.012</ele>
        <time>2022-08-24T14:47:24Z</time>
      </trkpt>
      <trkpt lat="42.93956999999989" lon="-1.486952999999998">
        <ele>710.622</ele>
        <time>2022-08-24T14:47:26Z</time>
      </trkpt>
      <trkpt lat="42.93959199999989" lon="-1.486987999999998">
        <ele>710.458</ele>
        <time>2022-08-24T14:47:29Z</time>
      </trkpt>
      <trkpt lat="42.93959799999989" lon="-1.487003999999998">
        <ele>710.230</ele>
        <time>2022-08-24T14:47:30Z</time>
      </trkpt>
      <trkpt lat="42.93960499999989" lon="-1.487019999999998">
        <ele>710.027</ele>
        <time>2022-08-24T14:47:31Z</time>
      </trkpt>
      <trkpt lat="42.939610999999886" lon="-1.487037999999998">
        <ele>709.840</ele>
        <time>2022-08-24T14:47:32Z</time>
      </trkpt>
      <trkpt lat="42.939613999999885" lon="-1.487051999999998">
        <ele>709.894</ele>
        <time>2022-08-24T14:47:33Z</time>
      </trkpt>
      <trkpt lat="42.939613999999885" lon="-1.487071999999998">
        <ele>709.493</ele>
        <time>2022-08-24T14:47:34Z</time>
      </trkpt>
      <trkpt lat="42.93961299999989" lon="-1.487098999999998">
        <ele>709.274</ele>
        <time>2022-08-24T14:47:35Z</time>
      </trkpt>
      <trkpt lat="42.93961499999989" lon="-1.487120999999998">
        <ele>709.256</ele>
        <time>2022-08-24T14:47:36Z</time>
      </trkpt>
      <trkpt lat="42.93962699999989" lon="-1.4872269999999979">
        <ele>709.021</ele>
        <time>2022-08-24T14:47:39Z</time>
      </trkpt>
      <trkpt lat="42.939638999999886" lon="-1.4872929999999978">
        <ele>708.609</ele>
        <time>2022-08-24T14:47:41Z</time>
      </trkpt>
      <trkpt lat="42.93964299999988" lon="-1.4873289999999977">
        <ele>708.458</ele>
        <time>2022-08-24T14:47:42Z</time>
      </trkpt>
      <trkpt lat="42.939647999999885" lon="-1.4873899999999978">
        <ele>708.058</ele>
        <time>2022-08-24T14:47:44Z</time>
      </trkpt>
      <trkpt lat="42.93964699999989" lon="-1.4874119999999977">
        <ele>707.878</ele>
        <time>2022-08-24T14:47:45Z</time>
      </trkpt>
      <trkpt lat="42.939647999999885" lon="-1.4874399999999977">
        <ele>707.494</ele>
        <time>2022-08-24T14:47:46Z</time>
      </trkpt>
      <trkpt lat="42.93964999999989" lon="-1.4874599999999976">
        <ele>707.246</ele>
        <time>2022-08-24T14:47:47Z</time>
      </trkpt>
      <trkpt lat="42.93964699999989" lon="-1.4874859999999976">
        <ele>707.213</ele>
        <time>2022-08-24T14:47:48Z</time>
      </trkpt>
      <trkpt lat="42.93963999999989" lon="-1.4875099999999977">
        <ele>707.036</ele>
        <time>2022-08-24T14:47:49Z</time>
      </trkpt>
      <trkpt lat="42.93961599999989" lon="-1.4875649999999976">
        <ele>706.670</ele>
        <time>2022-08-24T14:47:51Z</time>
      </trkpt>
      <trkpt lat="42.93961199999989" lon="-1.4875719999999977">
        <ele>706.659</ele>
        <time>2022-08-24T14:47:52Z</time>
      </trkpt>
      <trkpt lat="42.93961199999989" lon="-1.4875719999999977">
        <ele>706.635</ele>
        <time>2022-08-24T14:47:53Z</time>
      </trkpt>
      <trkpt lat="42.93961199999989" lon="-1.4875719999999977">
        <ele>706.486</ele>
        <time>2022-08-24T14:47:54Z</time>
      </trkpt>
      <trkpt lat="42.93961699999989" lon="-1.4876029999999976">
        <ele>706.214</ele>
        <time>2022-08-24T14:47:55Z</time>
      </trkpt>
      <trkpt lat="42.93960699999989" lon="-1.4876519999999975">
        <ele>705.809</ele>
        <time>2022-08-24T14:47:56Z</time>
      </trkpt>
      <trkpt lat="42.93960099999989" lon="-1.4876979999999975">
        <ele>705.244</ele>
        <time>2022-08-24T14:47:59Z</time>
      </trkpt>
      <trkpt lat="42.93959899999989" lon="-1.4877179999999974">
        <ele>705.244</ele>
        <time>2022-08-24T14:48:00Z</time>
      </trkpt>
      <trkpt lat="42.93960499999989" lon="-1.4877349999999974">
        <ele>705.054</ele>
        <time>2022-08-24T14:48:01Z</time>
      </trkpt>
      <trkpt lat="42.93960199999989" lon="-1.4877499999999975">
        <ele>705.020</ele>
        <time>2022-08-24T14:48:02Z</time>
      </trkpt>
      <trkpt lat="42.939608999999884" lon="-1.4877799999999974">
        <ele>704.692</ele>
        <time>2022-08-24T14:48:03Z</time>
      </trkpt>
      <trkpt lat="42.939607999999886" lon="-1.4878009999999975">
        <ele>704.459</ele>
        <time>2022-08-24T14:48:04Z</time>
      </trkpt>
      <trkpt lat="42.93960999999989" lon="-1.4878219999999975">
        <ele>704.282</ele>
        <time>2022-08-24T14:48:05Z</time>
      </trkpt>
      <trkpt lat="42.93960899999989" lon="-1.4878429999999976">
        <ele>703.686</ele>
        <time>2022-08-24T14:48:06Z</time>
      </trkpt>
      <trkpt lat="42.93960399999989" lon="-1.4878649999999976">
        <ele>703.625</ele>
        <time>2022-08-24T14:48:07Z</time>
      </trkpt>
      <trkpt lat="42.93959999999989" lon="-1.4878829999999976">
        <ele>703.236</ele>
        <time>2022-08-24T14:48:08Z</time>
      </trkpt>
      <trkpt lat="42.93959699999989" lon="-1.4878999999999976">
        <ele>703.017</ele>
        <time>2022-08-24T14:48:09Z</time>
      </trkpt>
      <trkpt lat="42.93958699999989" lon="-1.4879129999999976">
        <ele>702.818</ele>
        <time>2022-08-24T14:48:10Z</time>
      </trkpt>
      <trkpt lat="42.93957299999989" lon="-1.4879289999999976">
        <ele>702.609</ele>
        <time>2022-08-24T14:48:11Z</time>
      </trkpt>
      <trkpt lat="42.93955399999989" lon="-1.4879529999999976">
        <ele>702.274</ele>
        <time>2022-08-24T14:48:12Z</time>
      </trkpt>
      <trkpt lat="42.93955399999989" lon="-1.4879529999999976">
        <ele>701.814</ele>
        <time>2022-08-24T14:48:13Z</time>
      </trkpt>
      <trkpt lat="42.93952899999989" lon="-1.4879889999999976">
        <ele>701.674</ele>
        <time>2022-08-24T14:48:14Z</time>
      </trkpt>
      <trkpt lat="42.93951199999989" lon="-1.4880289999999976">
        <ele>701.240</ele>
        <time>2022-08-24T14:48:16Z</time>
      </trkpt>
      <trkpt lat="42.93950299999989" lon="-1.4880489999999975">
        <ele>701.072</ele>
        <time>2022-08-24T14:48:17Z</time>
      </trkpt>
      <trkpt lat="42.93950199999989" lon="-1.4880729999999975">
        <ele>700.859</ele>
        <time>2022-08-24T14:48:18Z</time>
      </trkpt>
      <trkpt lat="42.93949099999989" lon="-1.4880999999999975">
        <ele>700.242</ele>
        <time>2022-08-24T14:48:19Z</time>
      </trkpt>
      <trkpt lat="42.93947599999989" lon="-1.4881219999999975">
        <ele>699.466</ele>
        <time>2022-08-24T14:48:20Z</time>
      </trkpt>
      <trkpt lat="42.93946799999989" lon="-1.4881379999999975">
        <ele>699.285</ele>
        <time>2022-08-24T14:48:21Z</time>
      </trkpt>
      <trkpt lat="42.93945999999989" lon="-1.4881559999999976">
        <ele>699.079</ele>
        <time>2022-08-24T14:48:22Z</time>
      </trkpt>
      <trkpt lat="42.93942699999989" lon="-1.4882139999999975">
        <ele>698.605</ele>
        <time>2022-08-24T14:48:25Z</time>
      </trkpt>
      <trkpt lat="42.93942399999989" lon="-1.4882359999999974">
        <ele>698.425</ele>
        <time>2022-08-24T14:48:26Z</time>
      </trkpt>
      <trkpt lat="42.93940699999989" lon="-1.4882809999999975">
        <ele>698.009</ele>
        <time>2022-08-24T14:48:28Z</time>
      </trkpt>
      <trkpt lat="42.93940099999989" lon="-1.4883049999999975">
        <ele>697.828</ele>
        <time>2022-08-24T14:48:29Z</time>
      </trkpt>
      <trkpt lat="42.93940099999989" lon="-1.4883259999999976">
        <ele>697.838</ele>
        <time>2022-08-24T14:48:30Z</time>
      </trkpt>
      <trkpt lat="42.93939199999989" lon="-1.4883489999999977">
        <ele>697.058</ele>
        <time>2022-08-24T14:48:31Z</time>
      </trkpt>
      <trkpt lat="42.93939199999989" lon="-1.4883509999999978">
        <ele>696.414</ele>
        <time>2022-08-24T14:48:32Z</time>
      </trkpt>
      <trkpt lat="42.93937999999989" lon="-1.4883549999999977">
        <ele>694.876</ele>
        <time>2022-08-24T14:49:20Z</time>
      </trkpt>
      <trkpt lat="42.939376999999894" lon="-1.4883809999999977">
        <ele>694.863</ele>
        <time>2022-08-24T14:49:21Z</time>
      </trkpt>
      <trkpt lat="42.939373999999894" lon="-1.4884039999999978">
        <ele>694.886</ele>
        <time>2022-08-24T14:49:22Z</time>
      </trkpt>
      <trkpt lat="42.9393669999999" lon="-1.4884579999999978">
        <ele>694.680</ele>
        <time>2022-08-24T14:49:24Z</time>
      </trkpt>
      <trkpt lat="42.9393589999999" lon="-1.4884799999999978">
        <ele>694.689</ele>
        <time>2022-08-24T14:49:25Z</time>
      </trkpt>
      <trkpt lat="42.939350999999895" lon="-1.4885019999999978">
        <ele>694.297</ele>
        <time>2022-08-24T14:49:26Z</time>
      </trkpt>
      <trkpt lat="42.9393439999999" lon="-1.4885269999999977">
        <ele>694.223</ele>
        <time>2022-08-24T14:49:27Z</time>
      </trkpt>
      <trkpt lat="42.9393439999999" lon="-1.4885269999999977">
        <ele>693.825</ele>
        <time>2022-08-24T14:49:28Z</time>
      </trkpt>
      <trkpt lat="42.9393229999999" lon="-1.4885789999999977">
        <ele>693.609</ele>
        <time>2022-08-24T14:49:29Z</time>
      </trkpt>
      <trkpt lat="42.939304999999905" lon="-1.4886089999999976">
        <ele>693.030</ele>
        <time>2022-08-24T14:49:31Z</time>
      </trkpt>
      <trkpt lat="42.93929299999991" lon="-1.4886359999999976">
        <ele>692.870</ele>
        <time>2022-08-24T14:49:32Z</time>
      </trkpt>
      <trkpt lat="42.93928599999991" lon="-1.4886579999999976">
        <ele>692.480</ele>
        <time>2022-08-24T14:49:33Z</time>
      </trkpt>
      <trkpt lat="42.93928299999991" lon="-1.4886789999999976">
        <ele>692.256</ele>
        <time>2022-08-24T14:49:34Z</time>
      </trkpt>
      <trkpt lat="42.93927799999991" lon="-1.4887009999999976">
        <ele>692.058</ele>
        <time>2022-08-24T14:49:35Z</time>
      </trkpt>
      <trkpt lat="42.93926899999991" lon="-1.4887299999999977">
        <ele>691.865</ele>
        <time>2022-08-24T14:49:36Z</time>
      </trkpt>
      <trkpt lat="42.93926899999991" lon="-1.4887299999999977">
        <ele>691.698</ele>
        <time>2022-08-24T14:49:37Z</time>
      </trkpt>
      <trkpt lat="42.93921299999991" lon="-1.4888689999999976">
        <ele>689.442</ele>
        <time>2022-08-24T14:49:55Z</time>
      </trkpt>
      <trkpt lat="42.93918299999991" lon="-1.4889069999999975">
        <ele>689.271</ele>
        <time>2022-08-24T14:49:59Z</time>
      </trkpt>
      <trkpt lat="42.939172999999904" lon="-1.4889289999999975">
        <ele>689.224</ele>
        <time>2022-08-24T14:50:00Z</time>
      </trkpt>
      <trkpt lat="42.9391569999999" lon="-1.4889339999999975">
        <ele>689.004</ele>
        <time>2022-08-24T14:50:02Z</time>
      </trkpt>
      <trkpt lat="42.9391479999999" lon="-1.4889489999999976">
        <ele>688.214</ele>
        <time>2022-08-24T14:50:04Z</time>
      </trkpt>
      <trkpt lat="42.9391349999999" lon="-1.4889509999999977">
        <ele>688.009</ele>
        <time>2022-08-24T14:50:05Z</time>
      </trkpt>
      <trkpt lat="42.9391289999999" lon="-1.4889609999999978">
        <ele>687.863</ele>
        <time>2022-08-24T14:50:06Z</time>
      </trkpt>
      <trkpt lat="42.939121999999905" lon="-1.4889909999999977">
        <ele>687.263</ele>
        <time>2022-08-24T14:50:09Z</time>
      </trkpt>
      <trkpt lat="42.93912399999991" lon="-1.4889929999999978">
        <ele>687.283</ele>
        <time>2022-08-24T14:50:10Z</time>
      </trkpt>
      <trkpt lat="42.93912399999991" lon="-1.4889949999999978">
        <ele>687.029</ele>
        <time>2022-08-24T14:50:11Z</time>
      </trkpt>
      <trkpt lat="42.93912299999991" lon="-1.4889999999999979">
        <ele>687.011</ele>
        <time>2022-08-24T14:50:12Z</time>
      </trkpt>
      <trkpt lat="42.93911999999991" lon="-1.4890029999999979">
        <ele>686.888</ele>
        <time>2022-08-24T14:50:13Z</time>
      </trkpt>
      <trkpt lat="42.93911799999991" lon="-1.4890059999999978">
        <ele>686.231</ele>
        <time>2022-08-24T14:50:16Z</time>
      </trkpt>
      <trkpt lat="42.93911399999991" lon="-1.489012999999998">
        <ele>686.025</ele>
        <time>2022-08-24T14:50:17Z</time>
      </trkpt>
      <trkpt lat="42.93910799999991" lon="-1.489022999999998">
        <ele>685.864</ele>
        <time>2022-08-24T14:50:18Z</time>
      </trkpt>
      <trkpt lat="42.93909699999991" lon="-1.489041999999998">
        <ele>685.698</ele>
        <time>2022-08-24T14:50:20Z</time>
      </trkpt>
      <trkpt lat="42.93909699999991" lon="-1.489041999999998">
        <ele>684.415</ele>
        <time>2022-08-24T14:50:25Z</time>
      </trkpt>
      <trkpt lat="42.93908099999991" lon="-1.489056999999998">
        <ele>684.226</ele>
        <time>2022-08-24T14:50:27Z</time>
      </trkpt>
      <trkpt lat="42.93897099999991" lon="-1.489146999999998">
        <ele>684.209</ele>
        <time>2022-08-24T14:50:32Z</time>
      </trkpt>
      <trkpt lat="42.93888999999991" lon="-1.489271999999998">
        <ele>683.620</ele>
        <time>2022-08-24T14:50:36Z</time>
      </trkpt>
      <trkpt lat="42.938814999999906" lon="-1.489371999999998">
        <ele>682.820</ele>
        <time>2022-08-24T14:50:39Z</time>
      </trkpt>
      <trkpt lat="42.93879499999991" lon="-1.4893939999999979">
        <ele>682.660</ele>
        <time>2022-08-24T14:50:40Z</time>
      </trkpt>
      <trkpt lat="42.93877399999991" lon="-1.4894249999999978">
        <ele>682.496</ele>
        <time>2022-08-24T14:50:41Z</time>
      </trkpt>
      <trkpt lat="42.93875299999991" lon="-1.4894569999999978">
        <ele>682.028</ele>
        <time>2022-08-24T14:50:42Z</time>
      </trkpt>
      <trkpt lat="42.938687999999914" lon="-1.4895839999999978">
        <ele>681.425</ele>
        <time>2022-08-24T14:50:45Z</time>
      </trkpt>
      <trkpt lat="42.93865999999991" lon="-1.4896459999999978">
        <ele>681.028</ele>
        <time>2022-08-24T14:50:46Z</time>
      </trkpt>
      <trkpt lat="42.93859299999991" lon="-1.4897449999999979">
        <ele>680.232</ele>
        <time>2022-08-24T14:50:48Z</time>
      </trkpt>
      <trkpt lat="42.93856599999991" lon="-1.4897939999999978">
        <ele>680.091</ele>
        <time>2022-08-24T14:50:49Z</time>
      </trkpt>
      <trkpt lat="42.93851899999991" lon="-1.4898589999999978">
        <ele>679.848</ele>
        <time>2022-08-24T14:50:50Z</time>
      </trkpt>
      <trkpt lat="42.938494999999904" lon="-1.489900999999998">
        <ele>679.861</ele>
        <time>2022-08-24T14:50:51Z</time>
      </trkpt>
      <trkpt lat="42.938494999999904" lon="-1.489900999999998">
        <ele>679.817</ele>
        <time>2022-08-24T14:50:52Z</time>
      </trkpt>
      <trkpt lat="42.9384649999999" lon="-1.489965999999998">
        <ele>679.609</ele>
        <time>2022-08-24T14:50:53Z</time>
      </trkpt>
      <trkpt lat="42.9384149999999" lon="-1.4900859999999978">
        <ele>679.295</ele>
        <time>2022-08-24T14:50:56Z</time>
      </trkpt>
      <trkpt lat="42.9383829999999" lon="-1.4901499999999979">
        <ele>679.025</ele>
        <time>2022-08-24T14:50:57Z</time>
      </trkpt>
      <trkpt lat="42.938361999999906" lon="-1.490194999999998">
        <ele>678.655</ele>
        <time>2022-08-24T14:50:58Z</time>
      </trkpt>
      <trkpt lat="42.9383459999999" lon="-1.4902339999999978">
        <ele>678.671</ele>
        <time>2022-08-24T14:50:59Z</time>
      </trkpt>
      <trkpt lat="42.9383239999999" lon="-1.4902619999999978">
        <ele>678.263</ele>
        <time>2022-08-24T14:51:00Z</time>
      </trkpt>
      <trkpt lat="42.9383129999999" lon="-1.4902869999999977">
        <ele>677.860</ele>
        <time>2022-08-24T14:51:01Z</time>
      </trkpt>
      <trkpt lat="42.9383069999999" lon="-1.4903099999999978">
        <ele>677.253</ele>
        <time>2022-08-24T14:51:02Z</time>
      </trkpt>
      <trkpt lat="42.938299999999906" lon="-1.4903419999999978">
        <ele>676.617</ele>
        <time>2022-08-24T14:51:03Z</time>
      </trkpt>
      <trkpt lat="42.938299999999906" lon="-1.4903619999999977">
        <ele>676.496</ele>
        <time>2022-08-24T14:51:04Z</time>
      </trkpt>
      <trkpt lat="42.938299999999906" lon="-1.4903769999999978">
        <ele>676.016</ele>
        <time>2022-08-24T14:51:05Z</time>
      </trkpt>
      <trkpt lat="42.93829099999991" lon="-1.4904039999999978">
        <ele>676.076</ele>
        <time>2022-08-24T14:51:06Z</time>
      </trkpt>
      <trkpt lat="42.93828999999991" lon="-1.4904149999999978">
        <ele>675.813</ele>
        <time>2022-08-24T14:51:07Z</time>
      </trkpt>
      <trkpt lat="42.93828799999991" lon="-1.4904289999999978">
        <ele>675.809</ele>
        <time>2022-08-24T14:51:08Z</time>
      </trkpt>
      <trkpt lat="42.93828399999991" lon="-1.4904459999999977">
        <ele>675.872</ele>
        <time>2022-08-24T14:51:09Z</time>
      </trkpt>
      <trkpt lat="42.93828299999991" lon="-1.4904639999999978">
        <ele>675.872</ele>
        <time>2022-08-24T14:51:10Z</time>
      </trkpt>
      <trkpt lat="42.938279999999914" lon="-1.4904999999999977">
        <ele>675.852</ele>
        <time>2022-08-24T14:51:11Z</time>
      </trkpt>
      <trkpt lat="42.93826399999991" lon="-1.4905589999999977">
        <ele>675.898</ele>
        <time>2022-08-24T14:51:13Z</time>
      </trkpt>
      <trkpt lat="42.93822399999991" lon="-1.4906969999999977">
        <ele>675.250</ele>
        <time>2022-08-24T14:51:16Z</time>
      </trkpt>
      <trkpt lat="42.93821099999991" lon="-1.4907419999999978">
        <ele>674.627</ele>
        <time>2022-08-24T14:51:17Z</time>
      </trkpt>
      <trkpt lat="42.93821099999991" lon="-1.4907419999999978">
        <ele>674.860</ele>
        <time>2022-08-24T14:51:18Z</time>
      </trkpt>
      <trkpt lat="42.93819599999991" lon="-1.4908129999999977">
        <ele>674.444</ele>
        <time>2022-08-24T14:51:19Z</time>
      </trkpt>
      <trkpt lat="42.93818999999991" lon="-1.4908289999999977">
        <ele>674.273</ele>
        <time>2022-08-24T14:51:20Z</time>
      </trkpt>
      <trkpt lat="42.93818299999992" lon="-1.4908429999999977">
        <ele>674.088</ele>
        <time>2022-08-24T14:51:21Z</time>
      </trkpt>
      <trkpt lat="42.93817699999992" lon="-1.4908569999999977">
        <ele>673.624</ele>
        <time>2022-08-24T14:51:22Z</time>
      </trkpt>
      <trkpt lat="42.93817899999992" lon="-1.4909049999999977">
        <ele>672.826</ele>
        <time>2022-08-24T14:51:35Z</time>
      </trkpt>
      <trkpt lat="42.93817899999992" lon="-1.4909049999999977">
        <ele>672.809</ele>
        <time>2022-08-24T14:51:38Z</time>
      </trkpt>
      <trkpt lat="42.93817899999992" lon="-1.4909049999999977">
        <ele>672.659</ele>
        <time>2022-08-24T14:51:39Z</time>
      </trkpt>
      <trkpt lat="42.93817499999992" lon="-1.4909219999999976">
        <ele>672.679</ele>
        <time>2022-08-24T14:51:42Z</time>
      </trkpt>
      <trkpt lat="42.938170999999926" lon="-1.4909359999999976">
        <ele>672.619</ele>
        <time>2022-08-24T14:51:43Z</time>
      </trkpt>
      <trkpt lat="42.938156999999926" lon="-1.4910039999999976">
        <ele>672.295</ele>
        <time>2022-08-24T14:51:47Z</time>
      </trkpt>
      <trkpt lat="42.938154999999924" lon="-1.4910169999999976">
        <ele>672.077</ele>
        <time>2022-08-24T14:51:49Z</time>
      </trkpt>
      <trkpt lat="42.93815099999993" lon="-1.4910319999999977">
        <ele>671.694</ele>
        <time>2022-08-24T14:51:53Z</time>
      </trkpt>
      <trkpt lat="42.938151999999924" lon="-1.4910399999999977">
        <ele>671.497</ele>
        <time>2022-08-24T14:51:54Z</time>
      </trkpt>
      <trkpt lat="42.93815599999992" lon="-1.4910519999999976">
        <ele>671.241</ele>
        <time>2022-08-24T14:51:55Z</time>
      </trkpt>
      <trkpt lat="42.93815299999992" lon="-1.4910689999999975">
        <ele>671.260</ele>
        <time>2022-08-24T14:51:56Z</time>
      </trkpt>
      <trkpt lat="42.93815299999992" lon="-1.4910869999999976">
        <ele>671.253</ele>
        <time>2022-08-24T14:51:57Z</time>
      </trkpt>
      <trkpt lat="42.93814999999992" lon="-1.4911209999999977">
        <ele>671.004</ele>
        <time>2022-08-24T14:52:00Z</time>
      </trkpt>
      <trkpt lat="42.93814999999992" lon="-1.4911209999999977">
        <ele>671.014</ele>
        <time>2022-08-24T14:52:01Z</time>
      </trkpt>
      <trkpt lat="42.93814999999992" lon="-1.4911209999999977">
        <ele>671.009</ele>
        <time>2022-08-24T14:52:02Z</time>
      </trkpt>
      <trkpt lat="42.93814199999992" lon="-1.4911509999999977">
        <ele>670.816</ele>
        <time>2022-08-24T14:52:04Z</time>
      </trkpt>
      <trkpt lat="42.93813699999992" lon="-1.4911679999999976">
        <ele>670.816</ele>
        <time>2022-08-24T14:52:05Z</time>
      </trkpt>
      <trkpt lat="42.93813199999992" lon="-1.4911909999999977">
        <ele>670.646</ele>
        <time>2022-08-24T14:52:07Z</time>
      </trkpt>
      <trkpt lat="42.93812299999992" lon="-1.4912159999999977">
        <ele>670.652</ele>
        <time>2022-08-24T14:52:08Z</time>
      </trkpt>
      <trkpt lat="42.93810999999992" lon="-1.4912819999999976">
        <ele>670.244</ele>
        <time>2022-08-24T14:52:12Z</time>
      </trkpt>
      <trkpt lat="42.93811199999992" lon="-1.4912929999999975">
        <ele>670.051</ele>
        <time>2022-08-24T14:52:13Z</time>
      </trkpt>
      <trkpt lat="42.938112999999916" lon="-1.4913049999999974">
        <ele>669.664</ele>
        <time>2022-08-24T14:52:14Z</time>
      </trkpt>
      <trkpt lat="42.938107999999914" lon="-1.4913339999999975">
        <ele>669.228</ele>
        <time>2022-08-24T14:52:16Z</time>
      </trkpt>
      <trkpt lat="42.93810599999991" lon="-1.4913449999999975">
        <ele>669.027</ele>
        <time>2022-08-24T14:52:17Z</time>
      </trkpt>
      <trkpt lat="42.938101999999915" lon="-1.4913569999999974">
        <ele>668.883</ele>
        <time>2022-08-24T14:52:18Z</time>
      </trkpt>
      <trkpt lat="42.93809799999992" lon="-1.4913669999999974">
        <ele>668.825</ele>
        <time>2022-08-24T14:52:19Z</time>
      </trkpt>
      <trkpt lat="42.938095999999916" lon="-1.4913799999999975">
        <ele>668.817</ele>
        <time>2022-08-24T14:52:20Z</time>
      </trkpt>
      <trkpt lat="42.938093999999914" lon="-1.4913949999999976">
        <ele>668.809</ele>
        <time>2022-08-24T14:52:21Z</time>
      </trkpt>
      <trkpt lat="42.938093999999914" lon="-1.4914029999999976">
        <ele>668.869</ele>
        <time>2022-08-24T14:52:22Z</time>
      </trkpt>
      <trkpt lat="42.93809299999992" lon="-1.4914149999999975">
        <ele>668.829</ele>
        <time>2022-08-24T14:52:23Z</time>
      </trkpt>
      <trkpt lat="42.93809299999992" lon="-1.4914539999999974">
        <ele>668.659</ele>
        <time>2022-08-24T14:52:28Z</time>
      </trkpt>
      <trkpt lat="42.93809199999992" lon="-1.4914649999999974">
        <ele>668.425</ele>
        <time>2022-08-24T14:52:29Z</time>
      </trkpt>
      <trkpt lat="42.93809199999992" lon="-1.4914699999999974">
        <ele>668.267</ele>
        <time>2022-08-24T14:52:30Z</time>
      </trkpt>
      <trkpt lat="42.93808899999992" lon="-1.4914759999999974">
        <ele>668.254</ele>
        <time>2022-08-24T14:52:31Z</time>
      </trkpt>
      <trkpt lat="42.93807699999992" lon="-1.4915059999999973">
        <ele>668.027</ele>
        <time>2022-08-24T14:52:34Z</time>
      </trkpt>
      <trkpt lat="42.93807099999992" lon="-1.4915209999999974">
        <ele>667.881</ele>
        <time>2022-08-24T14:52:35Z</time>
      </trkpt>
      <trkpt lat="42.938066999999926" lon="-1.4915309999999975">
        <ele>667.850</ele>
        <time>2022-08-24T14:52:36Z</time>
      </trkpt>
      <trkpt lat="42.93805699999992" lon="-1.4915539999999976">
        <ele>667.637</ele>
        <time>2022-08-24T14:52:38Z</time>
      </trkpt>
      <trkpt lat="42.93805399999992" lon="-1.4915659999999975">
        <ele>667.649</ele>
        <time>2022-08-24T14:52:39Z</time>
      </trkpt>
      <trkpt lat="42.938052999999925" lon="-1.4915779999999974">
        <ele>667.613</ele>
        <time>2022-08-24T14:52:40Z</time>
      </trkpt>
      <trkpt lat="42.93805499999993" lon="-1.4915899999999973">
        <ele>667.409</ele>
        <time>2022-08-24T14:52:41Z</time>
      </trkpt>
      <trkpt lat="42.93805399999993" lon="-1.4916059999999973">
        <ele>667.484</ele>
        <time>2022-08-24T14:52:42Z</time>
      </trkpt>
      <trkpt lat="42.93805199999993" lon="-1.4916179999999972">
        <ele>667.294</ele>
        <time>2022-08-24T14:52:43Z</time>
      </trkpt>
      <trkpt lat="42.938046999999926" lon="-1.4916269999999971">
        <ele>667.014</ele>
        <time>2022-08-24T14:52:44Z</time>
      </trkpt>
      <trkpt lat="42.93804399999993" lon="-1.4916379999999971">
        <ele>666.860</ele>
        <time>2022-08-24T14:52:45Z</time>
      </trkpt>
      <trkpt lat="42.93804299999993" lon="-1.491643999999997">
        <ele>666.842</ele>
        <time>2022-08-24T14:52:46Z</time>
      </trkpt>
      <trkpt lat="42.93804099999993" lon="-1.491647999999997">
        <ele>666.839</ele>
        <time>2022-08-24T14:52:47Z</time>
      </trkpt>
      <trkpt lat="42.938032999999926" lon="-1.491663999999997">
        <ele>666.692</ele>
        <time>2022-08-24T14:52:50Z</time>
      </trkpt>
      <trkpt lat="42.938030999999924" lon="-1.491670999999997">
        <ele>666.646</ele>
        <time>2022-08-24T14:52:51Z</time>
      </trkpt>
      <trkpt lat="42.938027999999925" lon="-1.491674999999997">
        <ele>666.675</ele>
        <time>2022-08-24T14:52:52Z</time>
      </trkpt>
      <trkpt lat="42.93802699999993" lon="-1.491679999999997">
        <ele>666.623</ele>
        <time>2022-08-24T14:52:53Z</time>
      </trkpt>
      <trkpt lat="42.93802399999993" lon="-1.491689999999997">
        <ele>666.683</ele>
        <time>2022-08-24T14:52:54Z</time>
      </trkpt>
      <trkpt lat="42.93801699999993" lon="-1.4917109999999971">
        <ele>666.211</ele>
        <time>2022-08-24T14:52:58Z</time>
      </trkpt>
      <trkpt lat="42.938012999999934" lon="-1.4917289999999972">
        <ele>666.009</ele>
        <time>2022-08-24T14:52:59Z</time>
      </trkpt>
      <trkpt lat="42.93801199999994" lon="-1.4917359999999973">
        <ele>665.823</ele>
        <time>2022-08-24T14:53:01Z</time>
      </trkpt>
      <trkpt lat="42.93801099999994" lon="-1.4917449999999972">
        <ele>665.883</ele>
        <time>2022-08-24T14:53:02Z</time>
      </trkpt>
      <trkpt lat="42.93800999999994" lon="-1.4917549999999973">
        <ele>665.683</ele>
        <time>2022-08-24T14:53:03Z</time>
      </trkpt>
      <trkpt lat="42.93801099999994" lon="-1.4917589999999972">
        <ele>665.449</ele>
        <time>2022-08-24T14:53:05Z</time>
      </trkpt>
      <trkpt lat="42.93801099999994" lon="-1.4917589999999972">
        <ele>665.221</ele>
        <time>2022-08-24T14:53:06Z</time>
      </trkpt>
      <trkpt lat="42.93800999999994" lon="-1.491767999999997">
        <ele>665.288</ele>
        <time>2022-08-24T14:53:07Z</time>
      </trkpt>
      <trkpt lat="42.938005999999945" lon="-1.4917859999999972">
        <ele>665.221</ele>
        <time>2022-08-24T14:53:08Z</time>
      </trkpt>
      <trkpt lat="42.937999999999946" lon="-1.4918449999999972">
        <ele>665.025</ele>
        <time>2022-08-24T14:53:10Z</time>
      </trkpt>
      <trkpt lat="42.93799299999995" lon="-1.4919009999999973">
        <ele>665.014</ele>
        <time>2022-08-24T14:53:12Z</time>
      </trkpt>
      <trkpt lat="42.93799099999995" lon="-1.4919299999999973">
        <ele>664.836</ele>
        <time>2022-08-24T14:53:13Z</time>
      </trkpt>
      <trkpt lat="42.93799299999995" lon="-1.4919529999999974">
        <ele>664.817</ele>
        <time>2022-08-24T14:53:14Z</time>
      </trkpt>
      <trkpt lat="42.93799599999995" lon="-1.4919589999999974">
        <ele>664.618</ele>
        <time>2022-08-24T14:53:15Z</time>
      </trkpt>
      <trkpt lat="42.93798999999995" lon="-1.4920339999999974">
        <ele>663.009</ele>
        <time>2022-08-24T14:53:42Z</time>
      </trkpt>
      <trkpt lat="42.93798999999995" lon="-1.4920339999999974">
        <ele>663.054</ele>
        <time>2022-08-24T14:53:46Z</time>
      </trkpt>
      <trkpt lat="42.93798999999995" lon="-1.4920339999999974">
        <ele>663.064</ele>
        <time>2022-08-24T14:53:47Z</time>
      </trkpt>
      <trkpt lat="42.93798999999995" lon="-1.4920339999999974">
        <ele>663.024</ele>
        <time>2022-08-24T14:53:48Z</time>
      </trkpt>
      <trkpt lat="42.93798899999995" lon="-1.4920389999999975">
        <ele>662.810</ele>
        <time>2022-08-24T14:54:01Z</time>
      </trkpt>
      <trkpt lat="42.93798099999995" lon="-1.4920849999999974">
        <ele>662.272</ele>
        <time>2022-08-24T14:54:05Z</time>
      </trkpt>
      <trkpt lat="42.93797899999995" lon="-1.4921069999999974">
        <ele>662.229</ele>
        <time>2022-08-24T14:54:06Z</time>
      </trkpt>
      <trkpt lat="42.93797499999995" lon="-1.4921319999999973">
        <ele>662.042</ele>
        <time>2022-08-24T14:54:07Z</time>
      </trkpt>
      <trkpt lat="42.93796899999995" lon="-1.4921849999999974">
        <ele>661.646</ele>
        <time>2022-08-24T14:54:09Z</time>
      </trkpt>
      <trkpt lat="42.93796399999995" lon="-1.4922299999999975">
        <ele>661.235</ele>
        <time>2022-08-24T14:54:11Z</time>
      </trkpt>
      <trkpt lat="42.93796199999995" lon="-1.4922549999999974">
        <ele>660.828</ele>
        <time>2022-08-24T14:54:12Z</time>
      </trkpt>
      <trkpt lat="42.93795999999995" lon="-1.4922669999999973">
        <ele>660.889</ele>
        <time>2022-08-24T14:54:13Z</time>
      </trkpt>
      <trkpt lat="42.937960999999945" lon="-1.4922859999999973">
        <ele>660.617</ele>
        <time>2022-08-24T14:54:15Z</time>
      </trkpt>
      <trkpt lat="42.93795999999995" lon="-1.4922989999999974">
        <ele>660.409</ele>
        <time>2022-08-24T14:54:16Z</time>
      </trkpt>
      <trkpt lat="42.93794799999995" lon="-1.4923659999999974">
        <ele>660.213</ele>
        <time>2022-08-24T14:54:19Z</time>
      </trkpt>
      <trkpt lat="42.93793699999995" lon="-1.4923979999999974">
        <ele>660.033</ele>
        <time>2022-08-24T14:54:21Z</time>
      </trkpt>
      <trkpt lat="42.93792899999995" lon="-1.4924119999999974">
        <ele>660.013</ele>
        <time>2022-08-24T14:54:22Z</time>
      </trkpt>
      <trkpt lat="42.93792799999995" lon="-1.4924169999999974">
        <ele>659.839</ele>
        <time>2022-08-24T14:54:23Z</time>
      </trkpt>
      <trkpt lat="42.93792799999995" lon="-1.4924169999999974">
        <ele>659.831</ele>
        <time>2022-08-24T14:54:25Z</time>
      </trkpt>
      <trkpt lat="42.93792099999995" lon="-1.4924569999999975">
        <ele>659.638</ele>
        <time>2022-08-24T14:54:29Z</time>
      </trkpt>
      <trkpt lat="42.93790699999995" lon="-1.4925299999999975">
        <ele>659.021</ele>
        <time>2022-08-24T14:54:35Z</time>
      </trkpt>
      <trkpt lat="42.937908999999955" lon="-1.4925539999999975">
        <ele>658.475</ele>
        <time>2022-08-24T14:54:38Z</time>
      </trkpt>
      <trkpt lat="42.93790699999995" lon="-1.4925629999999974">
        <ele>658.244</ele>
        <time>2022-08-24T14:54:39Z</time>
      </trkpt>
      <trkpt lat="42.937905999999955" lon="-1.4925679999999975">
        <ele>658.269</ele>
        <time>2022-08-24T14:54:40Z</time>
      </trkpt>
      <trkpt lat="42.937894999999955" lon="-1.4925889999999975">
        <ele>657.604</ele>
        <time>2022-08-24T14:54:50Z</time>
      </trkpt>
      <trkpt lat="42.937891999999955" lon="-1.4925909999999976">
        <ele>657.824</ele>
        <time>2022-08-24T14:54:54Z</time>
      </trkpt>
      <trkpt lat="42.937891999999955" lon="-1.4925909999999976">
        <ele>657.609</ele>
        <time>2022-08-24T14:54:55Z</time>
      </trkpt>
      <trkpt lat="42.937891999999955" lon="-1.4925909999999976">
        <ele>657.447</ele>
        <time>2022-08-24T14:54:57Z</time>
      </trkpt>
      <trkpt lat="42.937891999999955" lon="-1.4925909999999976">
        <ele>657.247</ele>
        <time>2022-08-24T14:55:00Z</time>
      </trkpt>
      <trkpt lat="42.937891999999955" lon="-1.4925909999999976">
        <ele>657.257</ele>
        <time>2022-08-24T14:55:01Z</time>
      </trkpt>
      <trkpt lat="42.937891999999955" lon="-1.4925909999999976">
        <ele>656.853</ele>
        <time>2022-08-24T14:55:03Z</time>
      </trkpt>
      <trkpt lat="42.937891999999955" lon="-1.4925909999999976">
        <ele>656.255</ele>
        <time>2022-08-24T14:55:07Z</time>
      </trkpt>
      <trkpt lat="42.93788999999995" lon="-1.4925949999999975">
        <ele>656.252</ele>
        <time>2022-08-24T14:55:08Z</time>
      </trkpt>
      <trkpt lat="42.93787599999995" lon="-1.4926409999999974">
        <ele>655.855</ele>
        <time>2022-08-24T14:55:12Z</time>
      </trkpt>
      <trkpt lat="42.93784499999995" lon="-1.4927419999999973">
        <ele>655.249</ele>
        <time>2022-08-24T14:55:18Z</time>
      </trkpt>
      <trkpt lat="42.93783099999995" lon="-1.4927759999999974">
        <ele>655.058</ele>
        <time>2022-08-24T14:55:20Z</time>
      </trkpt>
      <trkpt lat="42.93783099999995" lon="-1.4927759999999974">
        <ele>654.835</ele>
        <time>2022-08-24T14:55:22Z</time>
      </trkpt>
      <trkpt lat="42.93783099999995" lon="-1.4927759999999974">
        <ele>654.686</ele>
        <time>2022-08-24T14:55:23Z</time>
      </trkpt>
      <trkpt lat="42.93782899999995" lon="-1.4927849999999974">
        <ele>654.414</ele>
        <time>2022-08-24T14:55:25Z</time>
      </trkpt>
      <trkpt lat="42.93782599999995" lon="-1.4927959999999973">
        <ele>654.209</ele>
        <time>2022-08-24T14:55:26Z</time>
      </trkpt>
      <trkpt lat="42.93782399999995" lon="-1.4928069999999973">
        <ele>654.274</ele>
        <time>2022-08-24T14:55:27Z</time>
      </trkpt>
      <trkpt lat="42.93782199999995" lon="-1.4928119999999974">
        <ele>653.654</ele>
        <time>2022-08-24T14:55:35Z</time>
      </trkpt>
      <trkpt lat="42.93782199999995" lon="-1.4928119999999974">
        <ele>653.634</ele>
        <time>2022-08-24T14:55:36Z</time>
      </trkpt>
      <trkpt lat="42.93782199999995" lon="-1.4928119999999974">
        <ele>653.440</ele>
        <time>2022-08-24T14:55:43Z</time>
      </trkpt>
      <trkpt lat="42.93782199999995" lon="-1.4928119999999974">
        <ele>653.262</ele>
        <time>2022-08-24T14:55:44Z</time>
      </trkpt>
      <trkpt lat="42.937805999999945" lon="-1.4929159999999975">
        <ele>653.059</ele>
        <time>2022-08-24T14:55:49Z</time>
      </trkpt>
      <trkpt lat="42.93778999999994" lon="-1.4930129999999975">
        <ele>652.642</ele>
        <time>2022-08-24T14:55:53Z</time>
      </trkpt>
      <trkpt lat="42.937788999999945" lon="-1.4930639999999975">
        <ele>652.076</ele>
        <time>2022-08-24T14:55:56Z</time>
      </trkpt>
      <trkpt lat="42.93778699999994" lon="-1.4930719999999975">
        <ele>652.045</ele>
        <time>2022-08-24T14:55:57Z</time>
      </trkpt>
      <trkpt lat="42.93777999999995" lon="-1.4930959999999975">
        <ele>651.872</ele>
        <time>2022-08-24T14:55:59Z</time>
      </trkpt>
      <trkpt lat="42.937774999999945" lon="-1.4931149999999975">
        <ele>651.613</ele>
        <time>2022-08-24T14:56:00Z</time>
      </trkpt>
      <trkpt lat="42.93777399999995" lon="-1.4931369999999975">
        <ele>651.614</ele>
        <time>2022-08-24T14:56:01Z</time>
      </trkpt>
      <trkpt lat="42.93777099999995" lon="-1.4931759999999974">
        <ele>650.809</ele>
        <time>2022-08-24T14:56:04Z</time>
      </trkpt>
      <trkpt lat="42.93776199999995" lon="-1.4932149999999973">
        <ele>650.288</ele>
        <time>2022-08-24T14:56:11Z</time>
      </trkpt>
      <trkpt lat="42.93772299999995" lon="-1.4932789999999974">
        <ele>649.888</ele>
        <time>2022-08-24T14:56:14Z</time>
      </trkpt>
      <trkpt lat="42.937712999999945" lon="-1.4933059999999974">
        <ele>649.628</ele>
        <time>2022-08-24T14:56:15Z</time>
      </trkpt>
      <trkpt lat="42.937707999999944" lon="-1.4933189999999974">
        <ele>649.624</ele>
        <time>2022-08-24T14:56:16Z</time>
      </trkpt>
      <trkpt lat="42.93770399999995" lon="-1.4933379999999974">
        <ele>649.086</ele>
        <time>2022-08-24T14:56:20Z</time>
      </trkpt>
      <trkpt lat="42.93769499999995" lon="-1.4933559999999975">
        <ele>648.443</ele>
        <time>2022-08-24T14:56:23Z</time>
      </trkpt>
      <trkpt lat="42.93768799999995" lon="-1.4933569999999974">
        <ele>648.286</ele>
        <time>2022-08-24T14:56:24Z</time>
      </trkpt>
      <trkpt lat="42.93766299999995" lon="-1.4933689999999973">
        <ele>647.870</ele>
        <time>2022-08-24T14:56:32Z</time>
      </trkpt>
      <trkpt lat="42.937655999999954" lon="-1.4933819999999973">
        <ele>647.499</ele>
        <time>2022-08-24T14:56:35Z</time>
      </trkpt>
      <trkpt lat="42.937655999999954" lon="-1.4933819999999973">
        <ele>647.472</ele>
        <time>2022-08-24T14:56:36Z</time>
      </trkpt>
      <trkpt lat="42.93765499999996" lon="-1.4933839999999974">
        <ele>647.213</ele>
        <time>2022-08-24T14:56:37Z</time>
      </trkpt>
      <trkpt lat="42.93763199999996" lon="-1.4934179999999975">
        <ele>647.014</ele>
        <time>2022-08-24T14:56:40Z</time>
      </trkpt>
      <trkpt lat="42.93762399999996" lon="-1.4934269999999974">
        <ele>647.009</ele>
        <time>2022-08-24T14:56:41Z</time>
      </trkpt>
      <trkpt lat="42.937618999999955" lon="-1.4934369999999975">
        <ele>647.048</ele>
        <time>2022-08-24T14:56:42Z</time>
      </trkpt>
      <trkpt lat="42.937613999999954" lon="-1.4934479999999974">
        <ele>646.828</ele>
        <time>2022-08-24T14:56:43Z</time>
      </trkpt>
      <trkpt lat="42.937607999999955" lon="-1.4934579999999975">
        <ele>646.648</ele>
        <time>2022-08-24T14:56:44Z</time>
      </trkpt>
      <trkpt lat="42.93755299999995" lon="-1.4935379999999976">
        <ele>646.014</ele>
        <time>2022-08-24T14:56:50Z</time>
      </trkpt>
      <trkpt lat="42.93754399999995" lon="-1.4935509999999976">
        <ele>645.696</ele>
        <time>2022-08-24T14:56:51Z</time>
      </trkpt>
      <trkpt lat="42.937536999999956" lon="-1.4935609999999977">
        <ele>645.633</ele>
        <time>2022-08-24T14:56:52Z</time>
      </trkpt>
      <trkpt lat="42.937531999999955" lon="-1.4935669999999976">
        <ele>645.666</ele>
        <time>2022-08-24T14:56:53Z</time>
      </trkpt>
      <trkpt lat="42.93752199999995" lon="-1.4935819999999977">
        <ele>644.860</ele>
        <time>2022-08-24T14:57:00Z</time>
      </trkpt>
      <trkpt lat="42.93749999999995" lon="-1.4936119999999977">
        <ele>644.629</ele>
        <time>2022-08-24T14:57:02Z</time>
      </trkpt>
      <trkpt lat="42.93741199999995" lon="-1.4937079999999978">
        <ele>644.459</ele>
        <time>2022-08-24T14:57:07Z</time>
      </trkpt>
      <trkpt lat="42.93738999999995" lon="-1.4937379999999978">
        <ele>644.403</ele>
        <time>2022-08-24T14:57:08Z</time>
      </trkpt>
      <trkpt lat="42.93735099999995" lon="-1.4937929999999977">
        <ele>644.223</ele>
        <time>2022-08-24T14:57:10Z</time>
      </trkpt>
      <trkpt lat="42.93733299999995" lon="-1.4938239999999976">
        <ele>644.209</ele>
        <time>2022-08-24T14:57:11Z</time>
      </trkpt>
      <trkpt lat="42.93730799999995" lon="-1.4938529999999977">
        <ele>643.886</ele>
        <time>2022-08-24T14:57:12Z</time>
      </trkpt>
      <trkpt lat="42.93726699999995" lon="-1.4938769999999977">
        <ele>643.656</ele>
        <time>2022-08-24T14:57:13Z</time>
      </trkpt>
      <trkpt lat="42.93721699999995" lon="-1.4939039999999977">
        <ele>643.246</ele>
        <time>2022-08-24T14:57:14Z</time>
      </trkpt>
      <trkpt lat="42.93717999999995" lon="-1.4939249999999977">
        <ele>643.082</ele>
        <time>2022-08-24T14:57:15Z</time>
      </trkpt>
      <trkpt lat="42.93714899999995" lon="-1.4939519999999977">
        <ele>642.824</ele>
        <time>2022-08-24T14:57:16Z</time>
      </trkpt>
      <trkpt lat="42.93711199999995" lon="-1.4939789999999977">
        <ele>642.411</ele>
        <time>2022-08-24T14:57:17Z</time>
      </trkpt>
      <trkpt lat="42.93698799999995" lon="-1.4940709999999977">
        <ele>641.864</ele>
        <time>2022-08-24T14:57:20Z</time>
      </trkpt>
      <trkpt lat="42.93695299999995" lon="-1.4941079999999978">
        <ele>641.858</ele>
        <time>2022-08-24T14:57:21Z</time>
      </trkpt>
      <trkpt lat="42.93680699999995" lon="-1.4942499999999979">
        <ele>641.427</ele>
        <time>2022-08-24T14:57:24Z</time>
      </trkpt>
      <trkpt lat="42.93674199999995" lon="-1.494302999999998">
        <ele>641.235</ele>
        <time>2022-08-24T14:57:25Z</time>
      </trkpt>
      <trkpt lat="42.93668399999995" lon="-1.494353999999998">
        <ele>640.886</ele>
        <time>2022-08-24T14:57:26Z</time>
      </trkpt>
      <trkpt lat="42.93663899999995" lon="-1.494402999999998">
        <ele>640.614</ele>
        <time>2022-08-24T14:57:27Z</time>
      </trkpt>
      <trkpt lat="42.93659199999995" lon="-1.4944439999999979">
        <ele>640.609</ele>
        <time>2022-08-24T14:57:28Z</time>
      </trkpt>
      <trkpt lat="42.936555999999946" lon="-1.4944819999999979">
        <ele>640.264</ele>
        <time>2022-08-24T14:57:29Z</time>
      </trkpt>
      <trkpt lat="42.936516999999945" lon="-1.4945199999999979">
        <ele>640.024</ele>
        <time>2022-08-24T14:57:30Z</time>
      </trkpt>
      <trkpt lat="42.936457999999945" lon="-1.4945819999999979">
        <ele>639.644</ele>
        <time>2022-08-24T14:57:31Z</time>
      </trkpt>
      <trkpt lat="42.936350999999945" lon="-1.4946599999999979">
        <ele>639.490</ele>
        <time>2022-08-24T14:57:33Z</time>
      </trkpt>
      <trkpt lat="42.936297999999944" lon="-1.4946959999999978">
        <ele>639.252</ele>
        <time>2022-08-24T14:57:34Z</time>
      </trkpt>
      <trkpt lat="42.93625099999994" lon="-1.4947279999999978">
        <ele>639.249</ele>
        <time>2022-08-24T14:57:35Z</time>
      </trkpt>
      <trkpt lat="42.93621399999994" lon="-1.4947489999999979">
        <ele>639.272</ele>
        <time>2022-08-24T14:57:36Z</time>
      </trkpt>
      <trkpt lat="42.93616699999994" lon="-1.4947629999999978">
        <ele>639.046</ele>
        <time>2022-08-24T14:57:37Z</time>
      </trkpt>
      <trkpt lat="42.93613099999994" lon="-1.4947789999999979">
        <ele>639.215</ele>
        <time>2022-08-24T14:57:38Z</time>
      </trkpt>
      <trkpt lat="42.93610599999994" lon="-1.4947949999999979">
        <ele>639.248</ele>
        <time>2022-08-24T14:57:39Z</time>
      </trkpt>
      <trkpt lat="42.93606999999994" lon="-1.494817999999998">
        <ele>639.061</ele>
        <time>2022-08-24T14:57:40Z</time>
      </trkpt>
      <trkpt lat="42.936039999999934" lon="-1.494840999999998">
        <ele>639.217</ele>
        <time>2022-08-24T14:57:41Z</time>
      </trkpt>
      <trkpt lat="42.93600999999993" lon="-1.494856999999998">
        <ele>639.209</ele>
        <time>2022-08-24T14:57:42Z</time>
      </trkpt>
      <trkpt lat="42.93592099999993" lon="-1.494916999999998">
        <ele>639.225</ele>
        <time>2022-08-24T14:57:45Z</time>
      </trkpt>
      <trkpt lat="42.935882999999926" lon="-1.494935999999998">
        <ele>639.495</ele>
        <time>2022-08-24T14:57:46Z</time>
      </trkpt>
      <trkpt lat="42.93578099999993" lon="-1.4949969999999981">
        <ele>639.275</ele>
        <time>2022-08-24T14:57:49Z</time>
      </trkpt>
      <trkpt lat="42.935713999999926" lon="-1.4950289999999982">
        <ele>639.241</ele>
        <time>2022-08-24T14:57:51Z</time>
      </trkpt>
      <trkpt lat="42.93562899999993" lon="-1.4951089999999982">
        <ele>639.053</ele>
        <time>2022-08-24T14:57:53Z</time>
      </trkpt>
      <trkpt lat="42.93558299999993" lon="-1.4951679999999983">
        <ele>639.050</ele>
        <time>2022-08-24T14:57:54Z</time>
      </trkpt>
      <trkpt lat="42.93555899999993" lon="-1.4951939999999984">
        <ele>639.073</ele>
        <time>2022-08-24T14:57:55Z</time>
      </trkpt>
      <trkpt lat="42.935530999999926" lon="-1.4952249999999982">
        <ele>639.087</ele>
        <time>2022-08-24T14:57:56Z</time>
      </trkpt>
      <trkpt lat="42.93549399999993" lon="-1.4952419999999982">
        <ele>639.056</ele>
        <time>2022-08-24T14:57:57Z</time>
      </trkpt>
      <trkpt lat="42.93546899999993" lon="-1.4952589999999981">
        <ele>639.063</ele>
        <time>2022-08-24T14:57:58Z</time>
      </trkpt>
      <trkpt lat="42.93544599999993" lon="-1.4952799999999982">
        <ele>639.044</ele>
        <time>2022-08-24T14:57:59Z</time>
      </trkpt>
      <trkpt lat="42.93539199999993" lon="-1.4953039999999982">
        <ele>639.018</ele>
        <time>2022-08-24T14:58:01Z</time>
      </trkpt>
      <trkpt lat="42.935364999999926" lon="-1.4953139999999983">
        <ele>639.009</ele>
        <time>2022-08-24T14:58:02Z</time>
      </trkpt>
      <trkpt lat="42.935339999999925" lon="-1.4953249999999982">
        <ele>639.037</ele>
        <time>2022-08-24T14:58:03Z</time>
      </trkpt>
      <trkpt lat="42.93517299999993" lon="-1.4954199999999982">
        <ele>639.257</ele>
        <time>2022-08-24T14:58:09Z</time>
      </trkpt>
      <trkpt lat="42.93514499999993" lon="-1.495439999999998">
        <ele>639.287</ele>
        <time>2022-08-24T14:58:10Z</time>
      </trkpt>
      <trkpt lat="42.935117999999925" lon="-1.495456999999998">
        <ele>639.293</ele>
        <time>2022-08-24T14:58:11Z</time>
      </trkpt>
      <trkpt lat="42.935092999999924" lon="-1.495467999999998">
        <ele>639.295</ele>
        <time>2022-08-24T14:58:12Z</time>
      </trkpt>
      <trkpt lat="42.935066999999925" lon="-1.495479999999998">
        <ele>639.282</ele>
        <time>2022-08-24T14:58:13Z</time>
      </trkpt>
      <trkpt lat="42.93503999999992" lon="-1.495495999999998">
        <ele>639.255</ele>
        <time>2022-08-24T14:58:14Z</time>
      </trkpt>
      <trkpt lat="42.93489399999992" lon="-1.495576999999998">
        <ele>639.689</ele>
        <time>2022-08-24T14:58:19Z</time>
      </trkpt>
      <trkpt lat="42.934833999999924" lon="-1.495595999999998">
        <ele>639.688</ele>
        <time>2022-08-24T14:58:21Z</time>
      </trkpt>
      <trkpt lat="42.934644999999925" lon="-1.4956779999999978">
        <ele>639.644</ele>
        <time>2022-08-24T14:58:27Z</time>
      </trkpt>
      <trkpt lat="42.934616999999925" lon="-1.495684999999998">
        <ele>639.605</ele>
        <time>2022-08-24T14:58:28Z</time>
      </trkpt>
      <trkpt lat="42.93459499999992" lon="-1.495687999999998">
        <ele>639.615</ele>
        <time>2022-08-24T14:58:29Z</time>
      </trkpt>
      <trkpt lat="42.93457399999993" lon="-1.495692999999998">
        <ele>639.609</ele>
        <time>2022-08-24T14:58:30Z</time>
      </trkpt>
      <trkpt lat="42.93455399999993" lon="-1.4957019999999979">
        <ele>639.615</ele>
        <time>2022-08-24T14:58:31Z</time>
      </trkpt>
      <trkpt lat="42.93453699999993" lon="-1.495708999999998">
        <ele>639.665</ele>
        <time>2022-08-24T14:58:32Z</time>
      </trkpt>
      <trkpt lat="42.93451899999993" lon="-1.4957129999999978">
        <ele>640.045</ele>
        <time>2022-08-24T14:58:33Z</time>
      </trkpt>
      <trkpt lat="42.93449999999993" lon="-1.4957209999999979">
        <ele>640.031</ele>
        <time>2022-08-24T14:58:34Z</time>
      </trkpt>
      <trkpt lat="42.93447999999993" lon="-1.495727999999998">
        <ele>640.273</ele>
        <time>2022-08-24T14:58:35Z</time>
      </trkpt>
      <trkpt lat="42.93446299999993" lon="-1.495730999999998">
        <ele>640.230</ele>
        <time>2022-08-24T14:58:36Z</time>
      </trkpt>
      <trkpt lat="42.93444699999993" lon="-1.495732999999998">
        <ele>640.433</ele>
        <time>2022-08-24T14:58:37Z</time>
      </trkpt>
      <trkpt lat="42.934430999999925" lon="-1.495739999999998">
        <ele>640.487</ele>
        <time>2022-08-24T14:58:38Z</time>
      </trkpt>
      <trkpt lat="42.934402999999925" lon="-1.495743999999998">
        <ele>640.616</ele>
        <time>2022-08-24T14:58:40Z</time>
      </trkpt>
      <trkpt lat="42.93438699999992" lon="-1.495750999999998">
        <ele>640.686</ele>
        <time>2022-08-24T14:58:41Z</time>
      </trkpt>
      <trkpt lat="42.934371999999925" lon="-1.4957609999999981">
        <ele>640.660</ele>
        <time>2022-08-24T14:58:42Z</time>
      </trkpt>
      <trkpt lat="42.93435699999993" lon="-1.4957679999999982">
        <ele>640.826</ele>
        <time>2022-08-24T14:58:43Z</time>
      </trkpt>
      <trkpt lat="42.93433599999993" lon="-1.4957749999999983">
        <ele>641.009</ele>
        <time>2022-08-24T14:58:44Z</time>
      </trkpt>
      <trkpt lat="42.934314999999934" lon="-1.4957869999999982">
        <ele>641.279</ele>
        <time>2022-08-24T14:58:45Z</time>
      </trkpt>
      <trkpt lat="42.93429299999993" lon="-1.4957939999999983">
        <ele>641.229</ele>
        <time>2022-08-24T14:58:46Z</time>
      </trkpt>
      <trkpt lat="42.934238999999934" lon="-1.4958309999999984">
        <ele>641.829</ele>
        <time>2022-08-24T14:58:49Z</time>
      </trkpt>
      <trkpt lat="42.934223999999936" lon="-1.4958449999999983">
        <ele>641.855</ele>
        <time>2022-08-24T14:58:50Z</time>
      </trkpt>
      <trkpt lat="42.93420899999994" lon="-1.4958579999999984">
        <ele>642.037</ele>
        <time>2022-08-24T14:58:51Z</time>
      </trkpt>
      <trkpt lat="42.93418299999994" lon="-1.4958709999999984">
        <ele>642.214</ele>
        <time>2022-08-24T14:58:52Z</time>
      </trkpt>
      <trkpt lat="42.93415899999994" lon="-1.4958819999999984">
        <ele>642.267</ele>
        <time>2022-08-24T14:58:53Z</time>
      </trkpt>
      <trkpt lat="42.93410799999994" lon="-1.4958979999999984">
        <ele>642.221</ele>
        <time>2022-08-24T14:58:55Z</time>
      </trkpt>
      <trkpt lat="42.93408699999994" lon="-1.4959019999999983">
        <ele>642.450</ele>
        <time>2022-08-24T14:58:56Z</time>
      </trkpt>
      <trkpt lat="42.93393299999994" lon="-1.4959289999999983">
        <ele>642.257</ele>
        <time>2022-08-24T14:59:00Z</time>
      </trkpt>
      <trkpt lat="42.93389099999994" lon="-1.4959379999999982">
        <ele>642.200</ele>
        <time>2022-08-24T14:59:01Z</time>
      </trkpt>
      <trkpt lat="42.93379999999994" lon="-1.4959459999999982">
        <ele>641.420</ele>
        <time>2022-08-24T14:59:03Z</time>
      </trkpt>
      <trkpt lat="42.93376399999994" lon="-1.4959469999999981">
        <ele>641.009</ele>
        <time>2022-08-24T14:59:04Z</time>
      </trkpt>
      <trkpt lat="42.93373099999994" lon="-1.495950999999998">
        <ele>640.886</ele>
        <time>2022-08-24T14:59:05Z</time>
      </trkpt>
      <trkpt lat="42.933700999999935" lon="-1.495959999999998">
        <ele>640.266</ele>
        <time>2022-08-24T14:59:06Z</time>
      </trkpt>
      <trkpt lat="42.93366099999994" lon="-1.495961999999998">
        <ele>640.036</ele>
        <time>2022-08-24T14:59:07Z</time>
      </trkpt>
      <trkpt lat="42.933633999999934" lon="-1.495972999999998">
        <ele>639.812</ele>
        <time>2022-08-24T14:59:08Z</time>
      </trkpt>
      <trkpt lat="42.933602999999934" lon="-1.495989999999998">
        <ele>639.444</ele>
        <time>2022-08-24T14:59:09Z</time>
      </trkpt>
      <trkpt lat="42.93357599999993" lon="-1.496004999999998">
        <ele>639.291</ele>
        <time>2022-08-24T14:59:10Z</time>
      </trkpt>
      <trkpt lat="42.93354299999993" lon="-1.496025999999998">
        <ele>639.024</ele>
        <time>2022-08-24T14:59:11Z</time>
      </trkpt>
      <trkpt lat="42.93350699999993" lon="-1.496049999999998">
        <ele>639.048</ele>
        <time>2022-08-24T14:59:12Z</time>
      </trkpt>
      <trkpt lat="42.933479999999925" lon="-1.4960629999999981">
        <ele>638.217</ele>
        <time>2022-08-24T14:59:13Z</time>
      </trkpt>
      <trkpt lat="42.93345099999993" lon="-1.4960839999999982">
        <ele>637.832</ele>
        <time>2022-08-24T14:59:14Z</time>
      </trkpt>
      <trkpt lat="42.933349999999926" lon="-1.4961569999999982">
        <ele>636.692</ele>
        <time>2022-08-24T14:59:17Z</time>
      </trkpt>
      <trkpt lat="42.93332899999993" lon="-1.4961779999999982">
        <ele>636.211</ele>
        <time>2022-08-24T14:59:18Z</time>
      </trkpt>
      <trkpt lat="42.93330799999993" lon="-1.4962019999999983">
        <ele>635.609</ele>
        <time>2022-08-24T14:59:19Z</time>
      </trkpt>
      <trkpt lat="42.93328799999993" lon="-1.4962319999999982">
        <ele>635.024</ele>
        <time>2022-08-24T14:59:20Z</time>
      </trkpt>
      <trkpt lat="42.933177999999934" lon="-1.4963589999999982">
        <ele>634.074</ele>
        <time>2022-08-24T14:59:23Z</time>
      </trkpt>
      <trkpt lat="42.93314599999994" lon="-1.4964009999999983">
        <ele>633.824</ele>
        <time>2022-08-24T14:59:24Z</time>
      </trkpt>
      <trkpt lat="42.933126999999935" lon="-1.4964249999999983">
        <ele>633.450</ele>
        <time>2022-08-24T14:59:25Z</time>
      </trkpt>
      <trkpt lat="42.933115999999934" lon="-1.4964409999999984">
        <ele>632.682</ele>
        <time>2022-08-24T14:59:26Z</time>
      </trkpt>
      <trkpt lat="42.93309399999993" lon="-1.4964579999999983">
        <ele>631.469</ele>
        <time>2022-08-24T14:59:27Z</time>
      </trkpt>
      <trkpt lat="42.933070999999934" lon="-1.4964809999999984">
        <ele>631.242</ele>
        <time>2022-08-24T14:59:28Z</time>
      </trkpt>
      <trkpt lat="42.93304599999993" lon="-1.4964889999999984">
        <ele>630.656</ele>
        <time>2022-08-24T14:59:29Z</time>
      </trkpt>
      <trkpt lat="42.93302099999993" lon="-1.4964939999999984">
        <ele>630.485</ele>
        <time>2022-08-24T14:59:30Z</time>
      </trkpt>
      <trkpt lat="42.932994999999934" lon="-1.4964979999999983">
        <ele>630.414</ele>
        <time>2022-08-24T14:59:31Z</time>
      </trkpt>
      <trkpt lat="42.93296999999993" lon="-1.4964989999999982">
        <ele>630.054</ele>
        <time>2022-08-24T14:59:32Z</time>
      </trkpt>
      <trkpt lat="42.932946999999935" lon="-1.4964999999999982">
        <ele>629.809</ele>
        <time>2022-08-24T14:59:33Z</time>
      </trkpt>
      <trkpt lat="42.932926999999935" lon="-1.4964969999999982">
        <ele>629.809</ele>
        <time>2022-08-24T14:59:34Z</time>
      </trkpt>
      <trkpt lat="42.932915999999935" lon="-1.4964949999999981">
        <ele>629.622</ele>
        <time>2022-08-24T14:59:35Z</time>
      </trkpt>
      <trkpt lat="42.932870999999935" lon="-1.496506999999998">
        <ele>628.052</ele>
        <time>2022-08-24T14:59:49Z</time>
      </trkpt>
      <trkpt lat="42.932861999999936" lon="-1.496515999999998">
        <ele>628.032</ele>
        <time>2022-08-24T14:59:50Z</time>
      </trkpt>
      <trkpt lat="42.93285199999993" lon="-1.496526999999998">
        <ele>627.838</ele>
        <time>2022-08-24T14:59:51Z</time>
      </trkpt>
      <trkpt lat="42.932842999999934" lon="-1.496533999999998">
        <ele>626.650</ele>
        <time>2022-08-24T14:59:58Z</time>
      </trkpt>
      <trkpt lat="42.932828999999934" lon="-1.496547999999998">
        <ele>626.627</ele>
        <time>2022-08-24T14:59:59Z</time>
      </trkpt>
      <trkpt lat="42.932808999999935" lon="-1.496569999999998">
        <ele>626.460</ele>
        <time>2022-08-24T15:00:00Z</time>
      </trkpt>
      <trkpt lat="42.932791999999935" lon="-1.496596999999998">
        <ele>626.454</ele>
        <time>2022-08-24T15:00:01Z</time>
      </trkpt>
      <trkpt lat="42.93276599999994" lon="-1.4966949999999979">
        <ele>626.233</ele>
        <time>2022-08-24T15:00:04Z</time>
      </trkpt>
      <trkpt lat="42.932752999999934" lon="-1.4967219999999979">
        <ele>625.836</ele>
        <time>2022-08-24T15:00:05Z</time>
      </trkpt>
      <trkpt lat="42.932738999999934" lon="-1.4967409999999979">
        <ele>625.617</ele>
        <time>2022-08-24T15:00:06Z</time>
      </trkpt>
      <trkpt lat="42.932723999999936" lon="-1.4967579999999978">
        <ele>625.018</ele>
        <time>2022-08-24T15:00:07Z</time>
      </trkpt>
      <trkpt lat="42.93270099999994" lon="-1.4967719999999978">
        <ele>624.609</ele>
        <time>2022-08-24T15:00:08Z</time>
      </trkpt>
      <trkpt lat="42.93267499999994" lon="-1.4967809999999977">
        <ele>624.484</ele>
        <time>2022-08-24T15:00:09Z</time>
      </trkpt>
      <trkpt lat="42.93264399999994" lon="-1.4967869999999976">
        <ele>623.814</ele>
        <time>2022-08-24T15:00:10Z</time>
      </trkpt>
      <trkpt lat="42.93260899999994" lon="-1.4967949999999977">
        <ele>623.674</ele>
        <time>2022-08-24T15:00:11Z</time>
      </trkpt>
      <trkpt lat="42.93257599999994" lon="-1.4968119999999976">
        <ele>622.830</ele>
        <time>2022-08-24T15:00:12Z</time>
      </trkpt>
      <trkpt lat="42.93254799999994" lon="-1.4968279999999976">
        <ele>622.632</ele>
        <time>2022-08-24T15:00:13Z</time>
      </trkpt>
      <trkpt lat="42.93252699999994" lon="-1.4968389999999976">
        <ele>621.829</ele>
        <time>2022-08-24T15:00:14Z</time>
      </trkpt>
      <trkpt lat="42.932509999999944" lon="-1.4968449999999975">
        <ele>621.482</ele>
        <time>2022-08-24T15:00:15Z</time>
      </trkpt>
      <trkpt lat="42.93249699999994" lon="-1.4968489999999974">
        <ele>621.296</ele>
        <time>2022-08-24T15:00:16Z</time>
      </trkpt>
      <trkpt lat="42.93248299999994" lon="-1.4968539999999975">
        <ele>620.675</ele>
        <time>2022-08-24T15:00:17Z</time>
      </trkpt>
      <trkpt lat="42.93246799999994" lon="-1.4968529999999975">
        <ele>620.496</ele>
        <time>2022-08-24T15:00:18Z</time>
      </trkpt>
      <trkpt lat="42.93245399999994" lon="-1.4968509999999975">
        <ele>620.231</ele>
        <time>2022-08-24T15:00:19Z</time>
      </trkpt>
      <trkpt lat="42.932399999999944" lon="-1.4968809999999975">
        <ele>618.424</ele>
        <time>2022-08-24T15:00:31Z</time>
      </trkpt>
      <trkpt lat="42.932385999999944" lon="-1.4968929999999974">
        <ele>618.409</ele>
        <time>2022-08-24T15:00:32Z</time>
      </trkpt>
      <trkpt lat="42.93237599999994" lon="-1.4968999999999975">
        <ele>618.220</ele>
        <time>2022-08-24T15:00:33Z</time>
      </trkpt>
      <trkpt lat="42.932354999999944" lon="-1.4969059999999974">
        <ele>617.460</ele>
        <time>2022-08-24T15:00:35Z</time>
      </trkpt>
      <trkpt lat="42.93234799999995" lon="-1.4969079999999975">
        <ele>617.260</ele>
        <time>2022-08-24T15:00:36Z</time>
      </trkpt>
      <trkpt lat="42.932314999999946" lon="-1.4969249999999974">
        <ele>616.266</ele>
        <time>2022-08-24T15:00:41Z</time>
      </trkpt>
      <trkpt lat="42.93229699999995" lon="-1.4969319999999975">
        <ele>616.288</ele>
        <time>2022-08-24T15:00:42Z</time>
      </trkpt>
      <trkpt lat="42.93228199999995" lon="-1.4969349999999975">
        <ele>616.245</ele>
        <time>2022-08-24T15:00:43Z</time>
      </trkpt>
      <trkpt lat="42.93226599999995" lon="-1.4969369999999975">
        <ele>616.258</ele>
        <time>2022-08-24T15:00:44Z</time>
      </trkpt>
      <trkpt lat="42.932252999999946" lon="-1.4969389999999976">
        <ele>616.032</ele>
        <time>2022-08-24T15:00:45Z</time>
      </trkpt>
      <trkpt lat="42.93224399999995" lon="-1.4969399999999975">
        <ele>615.621</ele>
        <time>2022-08-24T15:00:46Z</time>
      </trkpt>
      <trkpt lat="42.932233999999944" lon="-1.4969399999999975">
        <ele>615.692</ele>
        <time>2022-08-24T15:00:47Z</time>
      </trkpt>
      <trkpt lat="42.932224999999946" lon="-1.4969499999999976">
        <ele>614.873</ele>
        <time>2022-08-24T15:00:48Z</time>
      </trkpt>
      <trkpt lat="42.93221599999995" lon="-1.4969559999999975">
        <ele>614.420</ele>
        <time>2022-08-24T15:00:49Z</time>
      </trkpt>
      <trkpt lat="42.93220699999995" lon="-1.4969659999999976">
        <ele>614.209</ele>
        <time>2022-08-24T15:00:50Z</time>
      </trkpt>
      <trkpt lat="42.932190999999946" lon="-1.4969809999999977">
        <ele>613.630</ele>
        <time>2022-08-24T15:00:52Z</time>
      </trkpt>
      <trkpt lat="42.932185999999945" lon="-1.4969849999999976">
        <ele>613.450</ele>
        <time>2022-08-24T15:00:53Z</time>
      </trkpt>
      <trkpt lat="42.932182999999945" lon="-1.4969869999999976">
        <ele>613.220</ele>
        <time>2022-08-24T15:00:54Z</time>
      </trkpt>
      <trkpt lat="42.932182999999945" lon="-1.4969869999999976">
        <ele>613.286</ele>
        <time>2022-08-24T15:00:55Z</time>
      </trkpt>
      <trkpt lat="42.93218399999994" lon="-1.4969899999999976">
        <ele>612.698</ele>
        <time>2022-08-24T15:00:57Z</time>
      </trkpt>
      <trkpt lat="42.93218199999994" lon="-1.4969959999999976">
        <ele>612.665</ele>
        <time>2022-08-24T15:00:58Z</time>
      </trkpt>
      <trkpt lat="42.93218199999994" lon="-1.4969999999999974">
        <ele>612.258</ele>
        <time>2022-08-24T15:00:59Z</time>
      </trkpt>
      <trkpt lat="42.93217899999994" lon="-1.4970049999999975">
        <ele>611.832</ele>
        <time>2022-08-24T15:01:00Z</time>
      </trkpt>
      <trkpt lat="42.93217899999994" lon="-1.4970049999999975">
        <ele>610.871</ele>
        <time>2022-08-24T15:01:08Z</time>
      </trkpt>
      <trkpt lat="42.93216899999994" lon="-1.4970269999999974">
        <ele>610.624</ele>
        <time>2022-08-24T15:01:10Z</time>
      </trkpt>
      <trkpt lat="42.93212399999994" lon="-1.4971869999999974">
        <ele>609.404</ele>
        <time>2022-08-24T15:01:16Z</time>
      </trkpt>
      <trkpt lat="42.932087999999936" lon="-1.4972569999999974">
        <ele>609.014</ele>
        <time>2022-08-24T15:01:18Z</time>
      </trkpt>
      <trkpt lat="42.93206799999994" lon="-1.4972909999999975">
        <ele>608.609</ele>
        <time>2022-08-24T15:01:19Z</time>
      </trkpt>
      <trkpt lat="42.93204699999994" lon="-1.4973199999999975">
        <ele>608.683</ele>
        <time>2022-08-24T15:01:20Z</time>
      </trkpt>
      <trkpt lat="42.932025999999944" lon="-1.4973409999999976">
        <ele>608.223</ele>
        <time>2022-08-24T15:01:21Z</time>
      </trkpt>
      <trkpt lat="42.93200499999995" lon="-1.4973579999999975">
        <ele>607.863</ele>
        <time>2022-08-24T15:01:22Z</time>
      </trkpt>
      <trkpt lat="42.93198499999995" lon="-1.4973709999999976">
        <ele>607.019</ele>
        <time>2022-08-24T15:01:23Z</time>
      </trkpt>
      <trkpt lat="42.931965999999946" lon="-1.4973889999999976">
        <ele>606.211</ele>
        <time>2022-08-24T15:01:24Z</time>
      </trkpt>
      <trkpt lat="42.931948999999946" lon="-1.4974159999999976">
        <ele>605.868</ele>
        <time>2022-08-24T15:01:25Z</time>
      </trkpt>
      <trkpt lat="42.931929999999944" lon="-1.4974419999999977">
        <ele>605.231</ele>
        <time>2022-08-24T15:01:26Z</time>
      </trkpt>
      <trkpt lat="42.931909999999945" lon="-1.4974689999999977">
        <ele>605.255</ele>
        <time>2022-08-24T15:01:27Z</time>
      </trkpt>
      <trkpt lat="42.93189199999995" lon="-1.4974929999999977">
        <ele>604.864</ele>
        <time>2022-08-24T15:01:28Z</time>
      </trkpt>
      <trkpt lat="42.93187099999995" lon="-1.4975179999999977">
        <ele>604.855</ele>
        <time>2022-08-24T15:01:29Z</time>
      </trkpt>
      <trkpt lat="42.93185499999995" lon="-1.4975429999999976">
        <ele>604.207</ele>
        <time>2022-08-24T15:01:30Z</time>
      </trkpt>
      <trkpt lat="42.93184099999995" lon="-1.4975739999999975">
        <ele>603.817</ele>
        <time>2022-08-24T15:01:31Z</time>
      </trkpt>
      <trkpt lat="42.93182399999995" lon="-1.4975959999999975">
        <ele>603.609</ele>
        <time>2022-08-24T15:01:32Z</time>
      </trkpt>
      <trkpt lat="42.93175999999995" lon="-1.4977099999999974">
        <ele>602.636</ele>
        <time>2022-08-24T15:01:36Z</time>
      </trkpt>
      <trkpt lat="42.93172599999995" lon="-1.4977739999999975">
        <ele>601.476</ele>
        <time>2022-08-24T15:01:38Z</time>
      </trkpt>
      <trkpt lat="42.931709999999946" lon="-1.4978039999999975">
        <ele>601.066</ele>
        <time>2022-08-24T15:01:39Z</time>
      </trkpt>
      <trkpt lat="42.93169799999995" lon="-1.4978179999999974">
        <ele>600.222</ele>
        <time>2022-08-24T15:01:40Z</time>
      </trkpt>
      <trkpt lat="42.93167799999995" lon="-1.4978309999999975">
        <ele>600.044</ele>
        <time>2022-08-24T15:01:41Z</time>
      </trkpt>
      <trkpt lat="42.93166699999995" lon="-1.4978529999999974">
        <ele>599.451</ele>
        <time>2022-08-24T15:01:42Z</time>
      </trkpt>
      <trkpt lat="42.93165499999995" lon="-1.4978619999999974">
        <ele>599.284</ele>
        <time>2022-08-24T15:01:43Z</time>
      </trkpt>
      <trkpt lat="42.93164299999995" lon="-1.4978709999999973">
        <ele>598.668</ele>
        <time>2022-08-24T15:01:44Z</time>
      </trkpt>
      <trkpt lat="42.93163199999995" lon="-1.4978809999999974">
        <ele>598.237</ele>
        <time>2022-08-24T15:01:45Z</time>
      </trkpt>
      <trkpt lat="42.93162899999995" lon="-1.4978819999999973">
        <ele>598.035</ele>
        <time>2022-08-24T15:01:46Z</time>
      </trkpt>
      <trkpt lat="42.93162899999995" lon="-1.4978819999999973">
        <ele>597.886</ele>
        <time>2022-08-24T15:01:47Z</time>
      </trkpt>
      <trkpt lat="42.931624999999954" lon="-1.4978819999999973">
        <ele>597.614</ele>
        <time>2022-08-24T15:01:48Z</time>
      </trkpt>
      <trkpt lat="42.93162299999995" lon="-1.4978819999999973">
        <ele>597.409</ele>
        <time>2022-08-24T15:01:49Z</time>
      </trkpt>
      <trkpt lat="42.93160299999995" lon="-1.4978649999999973">
        <ele>597.074</ele>
        <time>2022-08-24T15:01:52Z</time>
      </trkpt>
      <trkpt lat="42.93158899999995" lon="-1.4978589999999974">
        <ele>596.844</ele>
        <time>2022-08-24T15:01:55Z</time>
      </trkpt>
      <trkpt lat="42.931556999999955" lon="-1.4978939999999974">
        <ele>596.484</ele>
        <time>2022-08-24T15:02:03Z</time>
      </trkpt>
      <trkpt lat="42.931548999999954" lon="-1.4979119999999975">
        <ele>596.430</ele>
        <time>2022-08-24T15:02:05Z</time>
      </trkpt>
      <trkpt lat="42.931548999999954" lon="-1.4979119999999975">
        <ele>596.242</ele>
        <time>2022-08-24T15:02:07Z</time>
      </trkpt>
      <trkpt lat="42.931536999999956" lon="-1.4979249999999975">
        <ele>595.039</ele>
        <time>2022-08-24T15:02:09Z</time>
      </trkpt>
      <trkpt lat="42.931525999999955" lon="-1.4980769999999974">
        <ele>594.442</ele>
        <time>2022-08-24T15:02:14Z</time>
      </trkpt>
      <trkpt lat="42.93151399999996" lon="-1.4981409999999975">
        <ele>593.836</ele>
        <time>2022-08-24T15:02:16Z</time>
      </trkpt>
      <trkpt lat="42.93150699999996" lon="-1.4981699999999976">
        <ele>593.675</ele>
        <time>2022-08-24T15:02:17Z</time>
      </trkpt>
      <trkpt lat="42.93148499999996" lon="-1.4982139999999975">
        <ele>592.878</ele>
        <time>2022-08-24T15:02:19Z</time>
      </trkpt>
      <trkpt lat="42.93146799999996" lon="-1.4982289999999976">
        <ele>592.033</ele>
        <time>2022-08-24T15:02:20Z</time>
      </trkpt>
      <trkpt lat="42.93144899999996" lon="-1.4982469999999977">
        <ele>591.626</ele>
        <time>2022-08-24T15:02:21Z</time>
      </trkpt>
      <trkpt lat="42.93143199999996" lon="-1.4982669999999976">
        <ele>590.609</ele>
        <time>2022-08-24T15:02:22Z</time>
      </trkpt>
      <trkpt lat="42.931353999999956" lon="-1.4983479999999976">
        <ele>589.218</ele>
        <time>2022-08-24T15:02:26Z</time>
      </trkpt>
      <trkpt lat="42.93133299999996" lon="-1.4983649999999975">
        <ele>588.628</ele>
        <time>2022-08-24T15:02:27Z</time>
      </trkpt>
      <trkpt lat="42.93131099999996" lon="-1.4983799999999976">
        <ele>587.638</ele>
        <time>2022-08-24T15:02:28Z</time>
      </trkpt>
      <trkpt lat="42.93129599999996" lon="-1.4983909999999976">
        <ele>587.284</ele>
        <time>2022-08-24T15:02:29Z</time>
      </trkpt>
      <trkpt lat="42.93127899999996" lon="-1.4984119999999976">
        <ele>586.896</ele>
        <time>2022-08-24T15:02:30Z</time>
      </trkpt>
      <trkpt lat="42.93127099999996" lon="-1.4984299999999977">
        <ele>586.423</ele>
        <time>2022-08-24T15:02:31Z</time>
      </trkpt>
      <trkpt lat="42.93125499999996" lon="-1.4984579999999976">
        <ele>586.026</ele>
        <time>2022-08-24T15:02:32Z</time>
      </trkpt>
      <trkpt lat="42.93124299999996" lon="-1.4984809999999977">
        <ele>585.250</ele>
        <time>2022-08-24T15:02:33Z</time>
      </trkpt>
      <trkpt lat="42.93122899999996" lon="-1.4985049999999978">
        <ele>584.459</ele>
        <time>2022-08-24T15:02:34Z</time>
      </trkpt>
      <trkpt lat="42.93121199999996" lon="-1.4985279999999979">
        <ele>584.013</ele>
        <time>2022-08-24T15:02:35Z</time>
      </trkpt>
      <trkpt lat="42.93118199999996" lon="-1.498559999999998">
        <ele>583.643</ele>
        <time>2022-08-24T15:02:37Z</time>
      </trkpt>
      <trkpt lat="42.93117499999996" lon="-1.498569999999998">
        <ele>583.007</ele>
        <time>2022-08-24T15:02:38Z</time>
      </trkpt>
      <trkpt lat="42.931167999999964" lon="-1.498576999999998">
        <ele>582.609</ele>
        <time>2022-08-24T15:02:39Z</time>
      </trkpt>
      <trkpt lat="42.93115699999996" lon="-1.498587999999998">
        <ele>582.272</ele>
        <time>2022-08-24T15:02:40Z</time>
      </trkpt>
      <trkpt lat="42.931138999999966" lon="-1.498603999999998">
        <ele>581.472</ele>
        <time>2022-08-24T15:02:41Z</time>
      </trkpt>
      <trkpt lat="42.931099999999965" lon="-1.498623999999998">
        <ele>580.822</ele>
        <time>2022-08-24T15:02:43Z</time>
      </trkpt>
      <trkpt lat="42.93107399999997" lon="-1.498625999999998">
        <ele>580.028</ele>
        <time>2022-08-24T15:02:44Z</time>
      </trkpt>
      <trkpt lat="42.93104799999997" lon="-1.498627999999998">
        <ele>580.020</ele>
        <time>2022-08-24T15:02:45Z</time>
      </trkpt>
      <trkpt lat="42.93101899999997" lon="-1.498625999999998">
        <ele>579.817</ele>
        <time>2022-08-24T15:02:46Z</time>
      </trkpt>
      <trkpt lat="42.93099199999997" lon="-1.498630999999998">
        <ele>579.010</ele>
        <time>2022-08-24T15:02:47Z</time>
      </trkpt>
      <trkpt lat="42.93096899999997" lon="-1.498635999999998">
        <ele>578.854</ele>
        <time>2022-08-24T15:02:48Z</time>
      </trkpt>
      <trkpt lat="42.93094999999997" lon="-1.4986459999999981">
        <ele>578.463</ele>
        <time>2022-08-24T15:02:49Z</time>
      </trkpt>
      <trkpt lat="42.93093199999997" lon="-1.4986619999999982">
        <ele>578.283</ele>
        <time>2022-08-24T15:02:50Z</time>
      </trkpt>
      <trkpt lat="42.93092099999997" lon="-1.4986779999999982">
        <ele>577.625</ele>
        <time>2022-08-24T15:02:51Z</time>
      </trkpt>
      <trkpt lat="42.93091399999997" lon="-1.4986909999999982">
        <ele>577.417</ele>
        <time>2022-08-24T15:02:52Z</time>
      </trkpt>
      <trkpt lat="42.93090899999997" lon="-1.4987059999999983">
        <ele>577.009</ele>
        <time>2022-08-24T15:02:53Z</time>
      </trkpt>
      <trkpt lat="42.93090599999997" lon="-1.4987259999999982">
        <ele>576.489</ele>
        <time>2022-08-24T15:02:54Z</time>
      </trkpt>
      <trkpt lat="42.93090299999997" lon="-1.4987499999999983">
        <ele>576.229</ele>
        <time>2022-08-24T15:02:55Z</time>
      </trkpt>
      <trkpt lat="42.930898999999975" lon="-1.4987789999999983">
        <ele>575.869</ele>
        <time>2022-08-24T15:02:56Z</time>
      </trkpt>
      <trkpt lat="42.93087799999998" lon="-1.4988479999999984">
        <ele>575.685</ele>
        <time>2022-08-24T15:02:58Z</time>
      </trkpt>
      <trkpt lat="42.93086699999998" lon="-1.4988879999999984">
        <ele>575.627</ele>
        <time>2022-08-24T15:02:59Z</time>
      </trkpt>
      <trkpt lat="42.93086399999998" lon="-1.4989249999999985">
        <ele>575.024</ele>
        <time>2022-08-24T15:03:00Z</time>
      </trkpt>
      <trkpt lat="42.930853999999975" lon="-1.4989609999999984">
        <ele>574.697</ele>
        <time>2022-08-24T15:03:01Z</time>
      </trkpt>
      <trkpt lat="42.930842999999975" lon="-1.4989939999999984">
        <ele>574.451</ele>
        <time>2022-08-24T15:03:02Z</time>
      </trkpt>
      <trkpt lat="42.930833999999976" lon="-1.4990289999999984">
        <ele>573.440</ele>
        <time>2022-08-24T15:03:03Z</time>
      </trkpt>
      <trkpt lat="42.93082699999998" lon="-1.4990619999999983">
        <ele>573.045</ele>
        <time>2022-08-24T15:03:04Z</time>
      </trkpt>
      <trkpt lat="42.93081999999998" lon="-1.4990909999999984">
        <ele>572.447</ele>
        <time>2022-08-24T15:03:05Z</time>
      </trkpt>
      <trkpt lat="42.930801999999986" lon="-1.4991369999999984">
        <ele>572.211</ele>
        <time>2022-08-24T15:03:06Z</time>
      </trkpt>
      <trkpt lat="42.930742999999985" lon="-1.4992359999999985">
        <ele>571.209</ele>
        <time>2022-08-24T15:03:09Z</time>
      </trkpt>
      <trkpt lat="42.93072499999999" lon="-1.4992539999999985">
        <ele>570.475</ele>
        <time>2022-08-24T15:03:10Z</time>
      </trkpt>
      <trkpt lat="42.93070799999999" lon="-1.4992759999999985">
        <ele>570.045</ele>
        <time>2022-08-24T15:03:11Z</time>
      </trkpt>
      <trkpt lat="42.930663999999986" lon="-1.4993859999999986">
        <ele>568.855</ele>
        <time>2022-08-24T15:03:14Z</time>
      </trkpt>
      <trkpt lat="42.930652999999985" lon="-1.4994189999999985">
        <ele>567.821</ele>
        <time>2022-08-24T15:03:15Z</time>
      </trkpt>
      <trkpt lat="42.93064899999999" lon="-1.4994529999999986">
        <ele>567.453</ele>
        <time>2022-08-24T15:03:16Z</time>
      </trkpt>
      <trkpt lat="42.930646999999986" lon="-1.4994859999999985">
        <ele>566.810</ele>
        <time>2022-08-24T15:03:17Z</time>
      </trkpt>
      <trkpt lat="42.930644999999984" lon="-1.4995229999999986">
        <ele>566.433</ele>
        <time>2022-08-24T15:03:18Z</time>
      </trkpt>
      <trkpt lat="42.93063699999998" lon="-1.4995669999999985">
        <ele>565.857</ele>
        <time>2022-08-24T15:03:19Z</time>
      </trkpt>
      <trkpt lat="42.930621999999985" lon="-1.4996169999999986">
        <ele>565.036</ele>
        <time>2022-08-24T15:03:20Z</time>
      </trkpt>
      <trkpt lat="42.930601999999986" lon="-1.4996689999999986">
        <ele>564.661</ele>
        <time>2022-08-24T15:03:21Z</time>
      </trkpt>
      <trkpt lat="42.930576999999985" lon="-1.4997149999999986">
        <ele>564.221</ele>
        <time>2022-08-24T15:03:22Z</time>
      </trkpt>
      <trkpt lat="42.93054999999998" lon="-1.4997579999999986">
        <ele>563.813</ele>
        <time>2022-08-24T15:03:23Z</time>
      </trkpt>
      <trkpt lat="42.93052499999998" lon="-1.4998069999999986">
        <ele>563.409</ele>
        <time>2022-08-24T15:03:24Z</time>
      </trkpt>
      <trkpt lat="42.930503999999985" lon="-1.4998609999999986">
        <ele>562.827</ele>
        <time>2022-08-24T15:03:25Z</time>
      </trkpt>
      <trkpt lat="42.930464999999984" lon="-1.4999689999999986">
        <ele>561.687</ele>
        <time>2022-08-24T15:03:27Z</time>
      </trkpt>
      <trkpt lat="42.93044699999999" lon="-1.5000199999999986">
        <ele>561.437</ele>
        <time>2022-08-24T15:03:28Z</time>
      </trkpt>
      <trkpt lat="42.93043199999999" lon="-1.5000699999999987">
        <ele>560.413</ele>
        <time>2022-08-24T15:03:29Z</time>
      </trkpt>
      <trkpt lat="42.930418999999986" lon="-1.5001189999999986">
        <ele>560.025</ele>
        <time>2022-08-24T15:03:30Z</time>
      </trkpt>
      <trkpt lat="42.930410999999985" lon="-1.5001659999999986">
        <ele>559.662</ele>
        <time>2022-08-24T15:03:31Z</time>
      </trkpt>
      <trkpt lat="42.930407999999986" lon="-1.5002089999999986">
        <ele>559.215</ele>
        <time>2022-08-24T15:03:32Z</time>
      </trkpt>
      <trkpt lat="42.93040699999999" lon="-1.5002489999999986">
        <ele>558.829</ele>
        <time>2022-08-24T15:03:33Z</time>
      </trkpt>
      <trkpt lat="42.93040599999999" lon="-1.5002909999999987">
        <ele>558.248</ele>
        <time>2022-08-24T15:03:34Z</time>
      </trkpt>
      <trkpt lat="42.93040399999999" lon="-1.5003349999999986">
        <ele>557.642</ele>
        <time>2022-08-24T15:03:35Z</time>
      </trkpt>
      <trkpt lat="42.93039199999999" lon="-1.5005049999999986">
        <ele>556.622</ele>
        <time>2022-08-24T15:03:38Z</time>
      </trkpt>
      <trkpt lat="42.93038699999999" lon="-1.5005659999999987">
        <ele>556.014</ele>
        <time>2022-08-24T15:03:39Z</time>
      </trkpt>
      <trkpt lat="42.93037799999999" lon="-1.5006229999999987">
        <ele>555.609</ele>
        <time>2022-08-24T15:03:40Z</time>
      </trkpt>
      <trkpt lat="42.93036599999999" lon="-1.5006769999999987">
        <ele>555.085</ele>
        <time>2022-08-24T15:03:41Z</time>
      </trkpt>
      <trkpt lat="42.93035599999999" lon="-1.5007279999999987">
        <ele>554.895</ele>
        <time>2022-08-24T15:03:42Z</time>
      </trkpt>
      <trkpt lat="42.930345999999986" lon="-1.5007799999999987">
        <ele>554.665</ele>
        <time>2022-08-24T15:03:43Z</time>
      </trkpt>
      <trkpt lat="42.93033699999999" lon="-1.5008359999999987">
        <ele>554.461</ele>
        <time>2022-08-24T15:03:44Z</time>
      </trkpt>
      <trkpt lat="42.93032799999999" lon="-1.5008939999999986">
        <ele>554.023</ele>
        <time>2022-08-24T15:03:45Z</time>
      </trkpt>
      <trkpt lat="42.930300999999986" lon="-1.5010219999999985">
        <ele>553.490</ele>
        <time>2022-08-24T15:03:47Z</time>
      </trkpt>
      <trkpt lat="42.93026899999999" lon="-1.5011489999999985">
        <ele>552.283</ele>
        <time>2022-08-24T15:03:49Z</time>
      </trkpt>
      <trkpt lat="42.93025199999999" lon="-1.5012159999999986">
        <ele>551.837</ele>
        <time>2022-08-24T15:03:50Z</time>
      </trkpt>
      <trkpt lat="42.930238999999986" lon="-1.5012809999999985">
        <ele>551.476</ele>
        <time>2022-08-24T15:03:51Z</time>
      </trkpt>
      <trkpt lat="42.93022999999999" lon="-1.5013449999999986">
        <ele>551.233</ele>
        <time>2022-08-24T15:03:52Z</time>
      </trkpt>
      <trkpt lat="42.930221999999986" lon="-1.5014039999999986">
        <ele>550.623</ele>
        <time>2022-08-24T15:03:53Z</time>
      </trkpt>
      <trkpt lat="42.93021199999998" lon="-1.5014609999999986">
        <ele>550.215</ele>
        <time>2022-08-24T15:03:54Z</time>
      </trkpt>
      <trkpt lat="42.93019799999998" lon="-1.5015179999999986">
        <ele>549.809</ele>
        <time>2022-08-24T15:03:55Z</time>
      </trkpt>
      <trkpt lat="42.93018799999998" lon="-1.5015779999999985">
        <ele>549.654</ele>
        <time>2022-08-24T15:03:56Z</time>
      </trkpt>
      <trkpt lat="42.93017399999998" lon="-1.5017139999999984">
        <ele>548.814</ele>
        <time>2022-08-24T15:03:58Z</time>
      </trkpt>
      <trkpt lat="42.93016099999998" lon="-1.5018549999999984">
        <ele>548.254</ele>
        <time>2022-08-24T15:04:00Z</time>
      </trkpt>
      <trkpt lat="42.93016099999998" lon="-1.5019209999999983">
        <ele>547.810</ele>
        <time>2022-08-24T15:04:01Z</time>
      </trkpt>
      <trkpt lat="42.93016599999998" lon="-1.5019779999999983">
        <ele>547.052</ele>
        <time>2022-08-24T15:04:02Z</time>
      </trkpt>
      <trkpt lat="42.93017399999998" lon="-1.5020239999999982">
        <ele>546.669</ele>
        <time>2022-08-24T15:04:03Z</time>
      </trkpt>
      <trkpt lat="42.93018299999998" lon="-1.5020649999999982">
        <ele>546.462</ele>
        <time>2022-08-24T15:04:04Z</time>
      </trkpt>
      <trkpt lat="42.930186999999975" lon="-1.5021079999999982">
        <ele>546.076</ele>
        <time>2022-08-24T15:04:05Z</time>
      </trkpt>
      <trkpt lat="42.930192999999974" lon="-1.5021539999999982">
        <ele>545.675</ele>
        <time>2022-08-24T15:04:06Z</time>
      </trkpt>
      <trkpt lat="42.93020299999998" lon="-1.5022519999999981">
        <ele>544.446</ele>
        <time>2022-08-24T15:04:08Z</time>
      </trkpt>
      <trkpt lat="42.930200999999975" lon="-1.5022979999999981">
        <ele>544.088</ele>
        <time>2022-08-24T15:04:09Z</time>
      </trkpt>
      <trkpt lat="42.930194999999976" lon="-1.5023399999999982">
        <ele>543.616</ele>
        <time>2022-08-24T15:04:10Z</time>
      </trkpt>
      <trkpt lat="42.93018599999998" lon="-1.5023779999999982">
        <ele>543.409</ele>
        <time>2022-08-24T15:04:11Z</time>
      </trkpt>
      <trkpt lat="42.93016599999998" lon="-1.5024119999999983">
        <ele>542.445</ele>
        <time>2022-08-24T15:04:12Z</time>
      </trkpt>
      <trkpt lat="42.93013399999998" lon="-1.5024439999999983">
        <ele>542.095</ele>
        <time>2022-08-24T15:04:13Z</time>
      </trkpt>
      <trkpt lat="42.93009699999998" lon="-1.5024809999999984">
        <ele>541.665</ele>
        <time>2022-08-24T15:04:14Z</time>
      </trkpt>
      <trkpt lat="42.93006099999998" lon="-1.5025229999999985">
        <ele>541.261</ele>
        <time>2022-08-24T15:04:15Z</time>
      </trkpt>
      <trkpt lat="42.93002499999998" lon="-1.5025629999999985">
        <ele>540.883</ele>
        <time>2022-08-24T15:04:16Z</time>
      </trkpt>
      <trkpt lat="42.92996399999998" lon="-1.5026379999999986">
        <ele>540.020</ele>
        <time>2022-08-24T15:04:18Z</time>
      </trkpt>
      <trkpt lat="42.929939999999974" lon="-1.5026909999999987">
        <ele>539.223</ele>
        <time>2022-08-24T15:04:19Z</time>
      </trkpt>
      <trkpt lat="42.92991799999997" lon="-1.5027379999999986">
        <ele>539.067</ele>
        <time>2022-08-24T15:04:20Z</time>
      </trkpt>
      <trkpt lat="42.92990099999997" lon="-1.5027769999999985">
        <ele>538.436</ele>
        <time>2022-08-24T15:04:21Z</time>
      </trkpt>
      <trkpt lat="42.92989099999997" lon="-1.5028119999999985">
        <ele>538.089</ele>
        <time>2022-08-24T15:04:22Z</time>
      </trkpt>
      <trkpt lat="42.92988299999997" lon="-1.5028459999999986">
        <ele>537.606</ele>
        <time>2022-08-24T15:04:23Z</time>
      </trkpt>
      <trkpt lat="42.92987399999997" lon="-1.5028729999999986">
        <ele>537.226</ele>
        <time>2022-08-24T15:04:24Z</time>
      </trkpt>
      <trkpt lat="42.92986699999997" lon="-1.5028909999999986">
        <ele>537.009</ele>
        <time>2022-08-24T15:04:25Z</time>
      </trkpt>
      <trkpt lat="42.929857999999975" lon="-1.5029169999999987">
        <ele>535.239</ele>
        <time>2022-08-24T15:05:28Z</time>
      </trkpt>
      <trkpt lat="42.92985399999998" lon="-1.5029389999999987">
        <ele>535.249</ele>
        <time>2022-08-24T15:05:29Z</time>
      </trkpt>
      <trkpt lat="42.92984499999998" lon="-1.5030549999999987">
        <ele>535.489</ele>
        <time>2022-08-24T15:05:32Z</time>
      </trkpt>
      <trkpt lat="42.929851999999975" lon="-1.5030929999999987">
        <ele>535.465</ele>
        <time>2022-08-24T15:05:33Z</time>
      </trkpt>
      <trkpt lat="42.92985899999997" lon="-1.5031269999999988">
        <ele>535.447</ele>
        <time>2022-08-24T15:05:34Z</time>
      </trkpt>
      <trkpt lat="42.92986299999997" lon="-1.5031579999999987">
        <ele>535.684</ele>
        <time>2022-08-24T15:05:35Z</time>
      </trkpt>
      <trkpt lat="42.92986399999997" lon="-1.5031879999999986">
        <ele>535.647</ele>
        <time>2022-08-24T15:05:36Z</time>
      </trkpt>
      <trkpt lat="42.92985799999997" lon="-1.5032129999999986">
        <ele>535.891</ele>
        <time>2022-08-24T15:05:37Z</time>
      </trkpt>
      <trkpt lat="42.92985499999997" lon="-1.5032379999999985">
        <ele>536.240</ele>
        <time>2022-08-24T15:05:38Z</time>
      </trkpt>
      <trkpt lat="42.929855999999965" lon="-1.5032639999999986">
        <ele>536.649</ele>
        <time>2022-08-24T15:05:39Z</time>
      </trkpt>
      <trkpt lat="42.929858999999965" lon="-1.5032899999999987">
        <ele>536.802</ele>
        <time>2022-08-24T15:05:40Z</time>
      </trkpt>
      <trkpt lat="42.929861999999964" lon="-1.5033169999999987">
        <ele>537.022</ele>
        <time>2022-08-24T15:05:41Z</time>
      </trkpt>
      <trkpt lat="42.929866999999966" lon="-1.5033449999999986">
        <ele>537.209</ele>
        <time>2022-08-24T15:05:42Z</time>
      </trkpt>
      <trkpt lat="42.929869999999966" lon="-1.5033739999999987">
        <ele>537.285</ele>
        <time>2022-08-24T15:05:43Z</time>
      </trkpt>
      <trkpt lat="42.929872999999965" lon="-1.5034019999999986">
        <ele>537.275</ele>
        <time>2022-08-24T15:05:44Z</time>
      </trkpt>
      <trkpt lat="42.92989199999997" lon="-1.5035609999999986">
        <ele>537.235</ele>
        <time>2022-08-24T15:05:49Z</time>
      </trkpt>
      <trkpt lat="42.929945999999966" lon="-1.5037889999999985">
        <ele>535.811</ele>
        <time>2022-08-24T15:05:55Z</time>
      </trkpt>
      <trkpt lat="42.929959999999966" lon="-1.5038159999999985">
        <ele>535.453</ele>
        <time>2022-08-24T15:05:56Z</time>
      </trkpt>
      <trkpt lat="42.929971999999964" lon="-1.5038429999999985">
        <ele>535.230</ele>
        <time>2022-08-24T15:05:57Z</time>
      </trkpt>
      <trkpt lat="42.929982999999964" lon="-1.5038679999999984">
        <ele>535.053</ele>
        <time>2022-08-24T15:05:58Z</time>
      </trkpt>
      <trkpt lat="42.929993999999965" lon="-1.5038939999999985">
        <ele>534.627</ele>
        <time>2022-08-24T15:05:59Z</time>
      </trkpt>
      <trkpt lat="42.93000399999997" lon="-1.5039159999999985">
        <ele>534.446</ele>
        <time>2022-08-24T15:06:00Z</time>
      </trkpt>
      <trkpt lat="42.93001299999997" lon="-1.5039329999999984">
        <ele>534.074</ele>
        <time>2022-08-24T15:06:01Z</time>
      </trkpt>
      <trkpt lat="42.930024999999965" lon="-1.5039479999999985">
        <ele>534.056</ele>
        <time>2022-08-24T15:06:02Z</time>
      </trkpt>
      <trkpt lat="42.930035999999966" lon="-1.5039609999999985">
        <ele>534.021</ele>
        <time>2022-08-24T15:06:03Z</time>
      </trkpt>
      <trkpt lat="42.93005099999996" lon="-1.5039989999999985">
        <ele>533.809</ele>
        <time>2022-08-24T15:06:05Z</time>
      </trkpt>
      <trkpt lat="42.930061999999964" lon="-1.5040149999999985">
        <ele>533.848</ele>
        <time>2022-08-24T15:06:06Z</time>
      </trkpt>
      <trkpt lat="42.930069999999965" lon="-1.5040319999999985">
        <ele>533.868</ele>
        <time>2022-08-24T15:06:07Z</time>
      </trkpt>
      <trkpt lat="42.930075999999964" lon="-1.5040479999999985">
        <ele>533.888</ele>
        <time>2022-08-24T15:06:08Z</time>
      </trkpt>
      <trkpt lat="42.93008499999996" lon="-1.5040679999999984">
        <ele>533.874</ele>
        <time>2022-08-24T15:06:11Z</time>
      </trkpt>
      <trkpt lat="42.93008499999996" lon="-1.5040679999999984">
        <ele>533.896</ele>
        <time>2022-08-24T15:06:12Z</time>
      </trkpt>
      <trkpt lat="42.93008499999996" lon="-1.5040679999999984">
        <ele>533.873</ele>
        <time>2022-08-24T15:06:13Z</time>
      </trkpt>
      <trkpt lat="42.93008499999996" lon="-1.5040679999999984">
        <ele>533.876</ele>
        <time>2022-08-24T15:07:08Z</time>
      </trkpt>
      <trkpt lat="42.93008499999996" lon="-1.5040679999999984">
        <ele>534.010</ele>
        <time>2022-08-24T15:07:14Z</time>
      </trkpt>
      <trkpt lat="42.930077999999966" lon="-1.5040899999999984">
        <ele>531.829</ele>
        <time>2022-08-24T15:15:31Z</time>
      </trkpt>
      <trkpt lat="42.93007199999997" lon="-1.5040749999999983">
        <ele>531.847</ele>
        <time>2022-08-24T15:15:33Z</time>
      </trkpt>
      <trkpt lat="42.93006599999997" lon="-1.5040619999999982">
        <ele>531.829</ele>
        <time>2022-08-24T15:15:34Z</time>
      </trkpt>
      <trkpt lat="42.93005799999997" lon="-1.5040489999999982">
        <ele>531.821</ele>
        <time>2022-08-24T15:15:35Z</time>
      </trkpt>
      <trkpt lat="42.93005099999997" lon="-1.5040309999999981">
        <ele>531.809</ele>
        <time>2022-08-24T15:15:36Z</time>
      </trkpt>
      <trkpt lat="42.93004199999997" lon="-1.5040089999999982">
        <ele>531.825</ele>
        <time>2022-08-24T15:15:38Z</time>
      </trkpt>
      <trkpt lat="42.93003399999997" lon="-1.504001999999998">
        <ele>531.895</ele>
        <time>2022-08-24T15:15:39Z</time>
      </trkpt>
      <trkpt lat="42.930026999999974" lon="-1.503990999999998">
        <ele>531.685</ele>
        <time>2022-08-24T15:15:40Z</time>
      </trkpt>
      <trkpt lat="42.930020999999975" lon="-1.503975999999998">
        <ele>531.621</ele>
        <time>2022-08-24T15:15:41Z</time>
      </trkpt>
      <trkpt lat="42.930012999999974" lon="-1.503965999999998">
        <ele>531.673</ele>
        <time>2022-08-24T15:15:42Z</time>
      </trkpt>
      <trkpt lat="42.930003999999975" lon="-1.503964999999998">
        <ele>531.660</ele>
        <time>2022-08-24T15:15:43Z</time>
      </trkpt>
      <trkpt lat="42.929997999999976" lon="-1.503959999999998">
        <ele>531.673</ele>
        <time>2022-08-24T15:15:44Z</time>
      </trkpt>
      <trkpt lat="42.92999499999998" lon="-1.5039529999999979">
        <ele>531.467</ele>
        <time>2022-08-24T15:15:45Z</time>
      </trkpt>
      <trkpt lat="42.92998299999998" lon="-1.503938999999998">
        <ele>531.456</ele>
        <time>2022-08-24T15:15:48Z</time>
      </trkpt>
      <trkpt lat="42.92997999999998" lon="-1.503938999999998">
        <ele>531.484</ele>
        <time>2022-08-24T15:15:49Z</time>
      </trkpt>
      <trkpt lat="42.92997499999998" lon="-1.5039529999999979">
        <ele>531.407</ele>
        <time>2022-08-24T15:15:51Z</time>
      </trkpt>
      <trkpt lat="42.929961999999975" lon="-1.503962999999998">
        <ele>531.417</ele>
        <time>2022-08-24T15:15:53Z</time>
      </trkpt>
      <trkpt lat="42.929955999999976" lon="-1.503964999999998">
        <ele>531.409</ele>
        <time>2022-08-24T15:15:54Z</time>
      </trkpt>
      <trkpt lat="42.929947999999975" lon="-1.503968999999998">
        <ele>531.449</ele>
        <time>2022-08-24T15:15:55Z</time>
      </trkpt>
      <trkpt lat="42.92993799999997" lon="-1.503973999999998">
        <ele>531.469</ele>
        <time>2022-08-24T15:15:56Z</time>
      </trkpt>
      <trkpt lat="42.92992699999997" lon="-1.503976999999998">
        <ele>531.489</ele>
        <time>2022-08-24T15:15:57Z</time>
      </trkpt>
      <trkpt lat="42.92991199999997" lon="-1.503976999999998">
        <ele>531.435</ele>
        <time>2022-08-24T15:15:58Z</time>
      </trkpt>
      <trkpt lat="42.929899999999975" lon="-1.5039809999999978">
        <ele>531.487</ele>
        <time>2022-08-24T15:15:59Z</time>
      </trkpt>
      <trkpt lat="42.92989099999998" lon="-1.5039909999999979">
        <ele>531.444</ele>
        <time>2022-08-24T15:16:00Z</time>
      </trkpt>
      <trkpt lat="42.92988499999998" lon="-1.5040029999999978">
        <ele>531.477</ele>
        <time>2022-08-24T15:16:01Z</time>
      </trkpt>
      <trkpt lat="42.929876999999976" lon="-1.5040089999999977">
        <ele>531.481</ele>
        <time>2022-08-24T15:16:02Z</time>
      </trkpt>
      <trkpt lat="42.92985699999998" lon="-1.5040009999999977">
        <ele>531.410</ele>
        <time>2022-08-24T15:16:03Z</time>
      </trkpt>
      <trkpt lat="42.929832999999974" lon="-1.5040089999999977">
        <ele>531.433</ele>
        <time>2022-08-24T15:16:05Z</time>
      </trkpt>
      <trkpt lat="42.92981999999997" lon="-1.5040099999999976">
        <ele>531.423</ele>
        <time>2022-08-24T15:16:06Z</time>
      </trkpt>
      <trkpt lat="42.92980299999997" lon="-1.5040079999999976">
        <ele>531.415</ele>
        <time>2022-08-24T15:16:07Z</time>
      </trkpt>
      <trkpt lat="42.92978399999997" lon="-1.5040069999999977">
        <ele>531.409</ele>
        <time>2022-08-24T15:16:08Z</time>
      </trkpt>
      <trkpt lat="42.92971399999997" lon="-1.5040119999999977">
        <ele>531.454</ele>
        <time>2022-08-24T15:16:12Z</time>
      </trkpt>
      <trkpt lat="42.92970199999997" lon="-1.5040249999999977">
        <ele>531.424</ele>
        <time>2022-08-24T15:16:13Z</time>
      </trkpt>
      <trkpt lat="42.92969699999997" lon="-1.5040289999999976">
        <ele>531.434</ele>
        <time>2022-08-24T15:16:14Z</time>
      </trkpt>
      <trkpt lat="42.92968599999997" lon="-1.5040319999999976">
        <ele>531.450</ele>
        <time>2022-08-24T15:16:15Z</time>
      </trkpt>
      <trkpt lat="42.92967199999997" lon="-1.5040359999999975">
        <ele>531.682</ele>
        <time>2022-08-24T15:16:16Z</time>
      </trkpt>
      <trkpt lat="42.92966099999997" lon="-1.5040409999999975">
        <ele>531.469</ele>
        <time>2022-08-24T15:16:17Z</time>
      </trkpt>
      <trkpt lat="42.92965499999997" lon="-1.5040489999999975">
        <ele>531.462</ele>
        <time>2022-08-24T15:16:18Z</time>
      </trkpt>
      <trkpt lat="42.92963499999997" lon="-1.5040589999999976">
        <ele>531.456</ele>
        <time>2022-08-24T15:16:19Z</time>
      </trkpt>
      <trkpt lat="42.92961899999997" lon="-1.5040619999999976">
        <ele>531.465</ele>
        <time>2022-08-24T15:16:20Z</time>
      </trkpt>
      <trkpt lat="42.929607999999966" lon="-1.5040749999999976">
        <ele>531.479</ele>
        <time>2022-08-24T15:16:21Z</time>
      </trkpt>
      <trkpt lat="42.929596999999966" lon="-1.5040769999999977">
        <ele>531.405</ele>
        <time>2022-08-24T15:16:22Z</time>
      </trkpt>
      <trkpt lat="42.929593999999966" lon="-1.5040839999999978">
        <ele>531.425</ele>
        <time>2022-08-24T15:16:23Z</time>
      </trkpt>
      <trkpt lat="42.929593999999966" lon="-1.5040839999999978">
        <ele>531.409</ele>
        <time>2022-08-24T15:16:24Z</time>
      </trkpt>
      <trkpt lat="42.929579999999966" lon="-1.5040659999999977">
        <ele>531.428</ele>
        <time>2022-08-24T15:16:25Z</time>
      </trkpt>
      <trkpt lat="42.92957599999997" lon="-1.5040609999999976">
        <ele>531.248</ele>
        <time>2022-08-24T15:16:26Z</time>
      </trkpt>
      <trkpt lat="42.92957499999997" lon="-1.5040489999999977">
        <ele>531.228</ele>
        <time>2022-08-24T15:16:27Z</time>
      </trkpt>
      <trkpt lat="42.92957499999997" lon="-1.5040189999999978">
        <ele>531.234</ele>
        <time>2022-08-24T15:16:29Z</time>
      </trkpt>
      <trkpt lat="42.92956999999997" lon="-1.5040089999999977">
        <ele>531.256</ele>
        <time>2022-08-24T15:16:30Z</time>
      </trkpt>
      <trkpt lat="42.92956899999997" lon="-1.5040059999999977">
        <ele>531.273</ele>
        <time>2022-08-24T15:16:31Z</time>
      </trkpt>
      <trkpt lat="42.929567999999975" lon="-1.5040019999999978">
        <ele>531.056</ele>
        <time>2022-08-24T15:16:32Z</time>
      </trkpt>
      <trkpt lat="42.929570999999974" lon="-1.5039829999999978">
        <ele>531.090</ele>
        <time>2022-08-24T15:16:33Z</time>
      </trkpt>
      <trkpt lat="42.92956999999998" lon="-1.5039639999999979">
        <ele>531.039</ele>
        <time>2022-08-24T15:16:34Z</time>
      </trkpt>
      <trkpt lat="42.92956999999998" lon="-1.503959999999998">
        <ele>531.225</ele>
        <time>2022-08-24T15:16:36Z</time>
      </trkpt>
      <trkpt lat="42.92956999999998" lon="-1.503959999999998">
        <ele>531.226</ele>
        <time>2022-08-24T15:16:38Z</time>
      </trkpt>
      <trkpt lat="42.92957199999998" lon="-1.503965999999998">
        <ele>531.008</ele>
        <time>2022-08-24T15:16:39Z</time>
      </trkpt>
      <trkpt lat="42.92957199999998" lon="-1.503965999999998">
        <ele>531.009</ele>
        <time>2022-08-24T15:16:40Z</time>
      </trkpt>
      <trkpt lat="42.92956999999998" lon="-1.503976999999998">
        <ele>530.613</ele>
        <time>2022-08-24T15:18:08Z</time>
      </trkpt>
      <trkpt lat="42.929572999999976" lon="-1.503997999999998">
        <ele>530.853</ele>
        <time>2022-08-24T15:18:10Z</time>
      </trkpt>
      <trkpt lat="42.92957499999998" lon="-1.504007999999998">
        <ele>530.853</ele>
        <time>2022-08-24T15:18:11Z</time>
      </trkpt>
      <trkpt lat="42.92957399999998" lon="-1.504006999999998">
        <ele>530.829</ele>
        <time>2022-08-24T15:18:14Z</time>
      </trkpt>
      <trkpt lat="42.92956299999998" lon="-1.503985999999998">
        <ele>530.831</ele>
        <time>2022-08-24T15:18:15Z</time>
      </trkpt>
      <trkpt lat="42.92954499999998" lon="-1.503950999999998">
        <ele>530.868</ele>
        <time>2022-08-24T15:18:17Z</time>
      </trkpt>
      <trkpt lat="42.92953699999998" lon="-1.503928999999998">
        <ele>530.821</ele>
        <time>2022-08-24T15:18:18Z</time>
      </trkpt>
      <trkpt lat="42.928446999999984" lon="-1.505708999999998">
        <ele>530.045</ele>
        <time>2022-08-24T15:52:52Z</time>
      </trkpt>
      <trkpt lat="42.92827899999998" lon="-1.5057909999999979">
        <ele>529.854</ele>
        <time>2022-08-24T15:52:57Z</time>
      </trkpt>
      <trkpt lat="42.92824499999998" lon="-1.505805999999998">
        <ele>529.818</ele>
        <time>2022-08-24T15:52:58Z</time>
      </trkpt>
      <trkpt lat="42.92813099999998" lon="-1.505865999999998">
        <ele>530.098</ele>
        <time>2022-08-24T15:53:01Z</time>
      </trkpt>
      <trkpt lat="42.92805199999998" lon="-1.505905999999998">
        <ele>530.017</ele>
        <time>2022-08-24T15:53:03Z</time>
      </trkpt>
      <trkpt lat="42.927709999999976" lon="-1.506128999999998">
        <ele>530.209</ele>
        <time>2022-08-24T15:53:12Z</time>
      </trkpt>
      <trkpt lat="42.92735699999998" lon="-1.506425999999998">
        <ele>530.462</ele>
        <time>2022-08-24T15:53:21Z</time>
      </trkpt>
      <trkpt lat="42.92727599999998" lon="-1.506495999999998">
        <ele>530.432</ele>
        <time>2022-08-24T15:53:23Z</time>
      </trkpt>
      <trkpt lat="42.927200999999975" lon="-1.506561999999998">
        <ele>530.422</ele>
        <time>2022-08-24T15:53:25Z</time>
      </trkpt>
      <trkpt lat="42.92716099999998" lon="-1.506596999999998">
        <ele>530.498</ele>
        <time>2022-08-24T15:53:26Z</time>
      </trkpt>
      <trkpt lat="42.927043999999974" lon="-1.5066979999999979">
        <ele>530.480</ele>
        <time>2022-08-24T15:53:29Z</time>
      </trkpt>
      <trkpt lat="42.92692899999997" lon="-1.506799999999998">
        <ele>530.467</ele>
        <time>2022-08-24T15:53:32Z</time>
      </trkpt>
      <trkpt lat="42.92688399999997" lon="-1.506841999999998">
        <ele>530.410</ele>
        <time>2022-08-24T15:53:33Z</time>
      </trkpt>
      <trkpt lat="42.92685399999997" lon="-1.506869999999998">
        <ele>530.414</ele>
        <time>2022-08-24T15:53:34Z</time>
      </trkpt>
      <trkpt lat="42.92681899999997" lon="-1.506898999999998">
        <ele>530.473</ele>
        <time>2022-08-24T15:53:35Z</time>
      </trkpt>
      <trkpt lat="42.926325999999975" lon="-1.507343999999998">
        <ele>530.244</ele>
        <time>2022-08-24T15:53:47Z</time>
      </trkpt>
      <trkpt lat="42.92612799999998" lon="-1.507513999999998">
        <ele>530.205</ele>
        <time>2022-08-24T15:53:52Z</time>
      </trkpt>
      <trkpt lat="42.92612799999998" lon="-1.507513999999998">
        <ele>530.215</ele>
        <time>2022-08-24T15:53:53Z</time>
      </trkpt>
      <trkpt lat="42.92609099999998" lon="-1.507546999999998">
        <ele>530.209</ele>
        <time>2022-08-24T15:53:54Z</time>
      </trkpt>
      <trkpt lat="42.925855999999975" lon="-1.507748999999998">
        <ele>530.475</ele>
        <time>2022-08-24T15:54:00Z</time>
      </trkpt>
      <trkpt lat="42.925610999999975" lon="-1.507955999999998">
        <ele>530.655</ele>
        <time>2022-08-24T15:54:05Z</time>
      </trkpt>
      <trkpt lat="42.92557099999998" lon="-1.507988999999998">
        <ele>530.665</ele>
        <time>2022-08-24T15:54:06Z</time>
      </trkpt>
      <trkpt lat="42.925531999999976" lon="-1.508020999999998">
        <ele>530.641</ele>
        <time>2022-08-24T15:54:07Z</time>
      </trkpt>
      <trkpt lat="42.92549199999998" lon="-1.5080549999999981">
        <ele>530.633</ele>
        <time>2022-08-24T15:54:08Z</time>
      </trkpt>
      <trkpt lat="42.925453999999974" lon="-1.508087999999998">
        <ele>530.680</ele>
        <time>2022-08-24T15:54:09Z</time>
      </trkpt>
      <trkpt lat="42.92541599999997" lon="-1.508118999999998">
        <ele>530.663</ele>
        <time>2022-08-24T15:54:10Z</time>
      </trkpt>
      <trkpt lat="42.92537899999997" lon="-1.5081499999999979">
        <ele>530.657</ele>
        <time>2022-08-24T15:54:11Z</time>
      </trkpt>
      <trkpt lat="42.92534299999997" lon="-1.508178999999998">
        <ele>530.646</ele>
        <time>2022-08-24T15:54:12Z</time>
      </trkpt>
      <trkpt lat="42.92530799999997" lon="-1.508207999999998">
        <ele>530.633</ele>
        <time>2022-08-24T15:54:13Z</time>
      </trkpt>
      <trkpt lat="42.92527199999997" lon="-1.5082389999999979">
        <ele>530.623</ele>
        <time>2022-08-24T15:54:14Z</time>
      </trkpt>
      <trkpt lat="42.92495699999997" lon="-1.5084739999999979">
        <ele>530.215</ele>
        <time>2022-08-24T15:54:22Z</time>
      </trkpt>
      <trkpt lat="42.92470099999997" lon="-1.508658999999998">
        <ele>530.009</ele>
        <time>2022-08-24T15:54:29Z</time>
      </trkpt>
      <trkpt lat="42.92465799999997" lon="-1.5086899999999979">
        <ele>530.034</ele>
        <time>2022-08-24T15:54:30Z</time>
      </trkpt>
      <trkpt lat="42.924614999999974" lon="-1.508721999999998">
        <ele>530.044</ele>
        <time>2022-08-24T15:54:31Z</time>
      </trkpt>
      <trkpt lat="42.92453199999998" lon="-1.5087799999999978">
        <ele>530.014</ele>
        <time>2022-08-24T15:54:32Z</time>
      </trkpt>
      <trkpt lat="42.924490999999975" lon="-1.5088109999999977">
        <ele>530.220</ele>
        <time>2022-08-24T15:54:33Z</time>
      </trkpt>
      <trkpt lat="42.924490999999975" lon="-1.5088109999999977">
        <ele>530.282</ele>
        <time>2022-08-24T15:54:34Z</time>
      </trkpt>
      <trkpt lat="42.92444399999997" lon="-1.5088469999999976">
        <ele>530.239</ele>
        <time>2022-08-24T15:54:35Z</time>
      </trkpt>
      <trkpt lat="42.92441299999997" lon="-1.5088679999999977">
        <ele>530.282</ele>
        <time>2022-08-24T15:54:36Z</time>
      </trkpt>
      <trkpt lat="42.92429299999997" lon="-1.5089509999999977">
        <ele>530.246</ele>
        <time>2022-08-24T15:54:38Z</time>
      </trkpt>
      <trkpt lat="42.92425499999997" lon="-1.5089799999999978">
        <ele>530.285</ele>
        <time>2022-08-24T15:54:39Z</time>
      </trkpt>
      <trkpt lat="42.92420999999997" lon="-1.5090129999999977">
        <ele>530.247</ele>
        <time>2022-08-24T15:54:40Z</time>
      </trkpt>
      <trkpt lat="42.92420999999997" lon="-1.5090129999999977">
        <ele>530.229</ele>
        <time>2022-08-24T15:54:41Z</time>
      </trkpt>
      <trkpt lat="42.92414399999997" lon="-1.5090639999999977">
        <ele>530.421</ele>
        <time>2022-08-24T15:54:42Z</time>
      </trkpt>
      <trkpt lat="42.92410899999997" lon="-1.5090899999999978">
        <ele>530.409</ele>
        <time>2022-08-24T15:54:43Z</time>
      </trkpt>
      <trkpt lat="42.924074999999974" lon="-1.5091149999999978">
        <ele>530.445</ele>
        <time>2022-08-24T15:54:44Z</time>
      </trkpt>
      <trkpt lat="42.924034999999975" lon="-1.5091449999999977">
        <ele>530.485</ele>
        <time>2022-08-24T15:54:45Z</time>
      </trkpt>
      <trkpt lat="42.92400199999997" lon="-1.5091719999999977">
        <ele>530.485</ele>
        <time>2022-08-24T15:54:47Z</time>
      </trkpt>
      <trkpt lat="42.923801999999974" lon="-1.5093319999999977">
        <ele>530.881</ele>
        <time>2022-08-24T15:54:53Z</time>
      </trkpt>
      <trkpt lat="42.923699999999975" lon="-1.5094149999999977">
        <ele>531.023</ele>
        <time>2022-08-24T15:54:56Z</time>
      </trkpt>
      <trkpt lat="42.92363399999998" lon="-1.5094729999999976">
        <ele>531.060</ele>
        <time>2022-08-24T15:54:58Z</time>
      </trkpt>
      <trkpt lat="42.92360099999998" lon="-1.5095019999999977">
        <ele>531.233</ele>
        <time>2022-08-24T15:54:59Z</time>
      </trkpt>
      <trkpt lat="42.923347999999976" lon="-1.5097509999999976">
        <ele>531.827</ele>
        <time>2022-08-24T15:55:07Z</time>
      </trkpt>
      <trkpt lat="42.923313999999976" lon="-1.5097849999999977">
        <ele>531.856</ele>
        <time>2022-08-24T15:55:08Z</time>
      </trkpt>
      <trkpt lat="42.92325199999998" lon="-1.5098489999999978">
        <ele>531.855</ele>
        <time>2022-08-24T15:55:09Z</time>
      </trkpt>
      <trkpt lat="42.92325199999998" lon="-1.5098489999999978">
        <ele>531.807</ele>
        <time>2022-08-24T15:55:10Z</time>
      </trkpt>
      <trkpt lat="42.923221999999974" lon="-1.5098799999999977">
        <ele>531.817</ele>
        <time>2022-08-24T15:55:11Z</time>
      </trkpt>
      <trkpt lat="42.92319199999997" lon="-1.5099129999999976">
        <ele>532.009</ele>
        <time>2022-08-24T15:55:12Z</time>
      </trkpt>
      <trkpt lat="42.92310499999997" lon="-1.5100129999999976">
        <ele>532.026</ele>
        <time>2022-08-24T15:55:15Z</time>
      </trkpt>
      <trkpt lat="42.92307399999997" lon="-1.5100469999999977">
        <ele>532.046</ele>
        <time>2022-08-24T15:55:16Z</time>
      </trkpt>
      <trkpt lat="42.92304499999997" lon="-1.5100799999999976">
        <ele>532.246</ele>
        <time>2022-08-24T15:55:17Z</time>
      </trkpt>
      <trkpt lat="42.922931999999975" lon="-1.5102139999999977">
        <ele>532.082</ele>
        <time>2022-08-24T15:55:21Z</time>
      </trkpt>
      <trkpt lat="42.92284299999997" lon="-1.5103139999999977">
        <ele>532.014</ele>
        <time>2022-08-24T15:55:24Z</time>
      </trkpt>
      <trkpt lat="42.92268799999997" lon="-1.5104999999999977">
        <ele>531.811</ele>
        <time>2022-08-24T15:55:29Z</time>
      </trkpt>
      <trkpt lat="42.922447999999974" lon="-1.5107719999999978">
        <ele>531.674</ele>
        <time>2022-08-24T15:55:36Z</time>
      </trkpt>
      <trkpt lat="42.92231199999998" lon="-1.5109289999999977">
        <ele>531.628</ele>
        <time>2022-08-24T15:55:40Z</time>
      </trkpt>
      <trkpt lat="42.922278999999975" lon="-1.5109629999999978">
        <ele>531.637</ele>
        <time>2022-08-24T15:55:41Z</time>
      </trkpt>
      <trkpt lat="42.92224699999998" lon="-1.5109989999999978">
        <ele>531.444</ele>
        <time>2022-08-24T15:55:42Z</time>
      </trkpt>
      <trkpt lat="42.92221599999998" lon="-1.5110389999999978">
        <ele>531.405</ele>
        <time>2022-08-24T15:55:43Z</time>
      </trkpt>
      <trkpt lat="42.92218499999998" lon="-1.5110799999999978">
        <ele>531.215</ele>
        <time>2022-08-24T15:55:44Z</time>
      </trkpt>
      <trkpt lat="42.92215299999998" lon="-1.5111199999999978">
        <ele>531.209</ele>
        <time>2022-08-24T15:55:45Z</time>
      </trkpt>
      <trkpt lat="42.92211999999998" lon="-1.5111569999999979">
        <ele>531.255</ele>
        <time>2022-08-24T15:55:46Z</time>
      </trkpt>
      <trkpt lat="42.922086999999976" lon="-1.5111899999999978">
        <ele>531.035</ele>
        <time>2022-08-24T15:55:47Z</time>
      </trkpt>
      <trkpt lat="42.92206399999998" lon="-1.5112209999999977">
        <ele>531.085</ele>
        <time>2022-08-24T15:55:48Z</time>
      </trkpt>
      <trkpt lat="42.92204299999998" lon="-1.5112469999999978">
        <ele>531.081</ele>
        <time>2022-08-24T15:55:49Z</time>
      </trkpt>
      <trkpt lat="42.92202399999998" lon="-1.5112709999999978">
        <ele>531.063</ele>
        <time>2022-08-24T15:55:50Z</time>
      </trkpt>
      <trkpt lat="42.92200399999998" lon="-1.5112949999999978">
        <ele>530.870</ele>
        <time>2022-08-24T15:55:51Z</time>
      </trkpt>
      <trkpt lat="42.92196099999998" lon="-1.5113339999999977">
        <ele>530.873</ele>
        <time>2022-08-24T15:55:53Z</time>
      </trkpt>
      <trkpt lat="42.92181699999998" lon="-1.5114839999999978">
        <ele>530.637</ele>
        <time>2022-08-24T15:55:59Z</time>
      </trkpt>
      <trkpt lat="42.921756999999985" lon="-1.511544999999998">
        <ele>530.656</ele>
        <time>2022-08-24T15:56:01Z</time>
      </trkpt>
      <trkpt lat="42.92163199999999" lon="-1.511689999999998">
        <ele>530.641</ele>
        <time>2022-08-24T15:56:05Z</time>
      </trkpt>
      <trkpt lat="42.92156599999999" lon="-1.511775999999998">
        <ele>530.681</ele>
        <time>2022-08-24T15:56:07Z</time>
      </trkpt>
      <trkpt lat="42.92146199999999" lon="-1.511895999999998">
        <ele>530.609</ele>
        <time>2022-08-24T15:56:10Z</time>
      </trkpt>
      <trkpt lat="42.92139199999999" lon="-1.511983999999998">
        <ele>530.409</ele>
        <time>2022-08-24T15:56:12Z</time>
      </trkpt>
      <trkpt lat="42.92126799999999" lon="-1.512193999999998">
        <ele>530.015</ele>
        <time>2022-08-24T15:56:16Z</time>
      </trkpt>
      <trkpt lat="42.92097099999999" lon="-1.512689999999998">
        <ele>529.245</ele>
        <time>2022-08-24T15:56:25Z</time>
      </trkpt>
      <trkpt lat="42.920903999999986" lon="-1.5127999999999981">
        <ele>529.085</ele>
        <time>2022-08-24T15:56:27Z</time>
      </trkpt>
      <trkpt lat="42.92083799999999" lon="-1.5129099999999982">
        <ele>528.831</ele>
        <time>2022-08-24T15:56:29Z</time>
      </trkpt>
      <trkpt lat="42.92063199999999" lon="-1.5132399999999981">
        <ele>527.823</ele>
        <time>2022-08-24T15:56:35Z</time>
      </trkpt>
      <trkpt lat="42.920489999999994" lon="-1.513467999999998">
        <ele>527.680</ele>
        <time>2022-08-24T15:56:39Z</time>
      </trkpt>
      <trkpt lat="42.920351" lon="-1.513701999999998">
        <ele>526.863</ele>
        <time>2022-08-24T15:56:43Z</time>
      </trkpt>
      <trkpt lat="42.920212" lon="-1.513945999999998">
        <ele>526.457</ele>
        <time>2022-08-24T15:56:47Z</time>
      </trkpt>
      <trkpt lat="42.920178" lon="-1.514005999999998">
        <ele>526.256</ele>
        <time>2022-08-24T15:56:48Z</time>
      </trkpt>
      <trkpt lat="42.920111" lon="-1.514128999999998">
        <ele>526.061</ele>
        <time>2022-08-24T15:56:50Z</time>
      </trkpt>
      <trkpt lat="42.920078" lon="-1.5141899999999981">
        <ele>525.821</ele>
        <time>2022-08-24T15:56:51Z</time>
      </trkpt>
      <trkpt lat="42.919976" lon="-1.5143649999999982">
        <ele>525.613</ele>
        <time>2022-08-24T15:56:54Z</time>
      </trkpt>
      <trkpt lat="42.919798" lon="-1.5146499999999983">
        <ele>525.209</ele>
        <time>2022-08-24T15:56:59Z</time>
      </trkpt>
      <trkpt lat="42.919761" lon="-1.5147039999999983">
        <ele>525.267</ele>
        <time>2022-08-24T15:57:00Z</time>
      </trkpt>
      <trkpt lat="42.919725" lon="-1.5147599999999983">
        <ele>525.227</ele>
        <time>2022-08-24T15:57:01Z</time>
      </trkpt>
      <trkpt lat="42.919609" lon="-1.5149149999999982">
        <ele>524.627</ele>
        <time>2022-08-24T15:57:04Z</time>
      </trkpt>
      <trkpt lat="42.91932" lon="-1.5152889999999983">
        <ele>523.853</ele>
        <time>2022-08-24T15:57:11Z</time>
      </trkpt>
      <trkpt lat="42.919235" lon="-1.5153969999999983">
        <ele>523.675</ele>
        <time>2022-08-24T15:57:12Z</time>
      </trkpt>
      <trkpt lat="42.919014" lon="-1.5156839999999983">
        <ele>522.422</ele>
        <time>2022-08-24T15:57:17Z</time>
      </trkpt>
      <trkpt lat="42.918882999999994" lon="-1.5158569999999982">
        <ele>522.025</ele>
        <time>2022-08-24T15:57:21Z</time>
      </trkpt>
      <trkpt lat="42.918741" lon="-1.5160229999999983">
        <ele>521.639</ele>
        <time>2022-08-24T15:57:24Z</time>
      </trkpt>
      <trkpt lat="42.918692" lon="-1.5160759999999984">
        <ele>521.458</ele>
        <time>2022-08-24T15:57:25Z</time>
      </trkpt>
      <trkpt lat="42.918592" lon="-1.5161779999999985">
        <ele>521.445</ele>
        <time>2022-08-24T15:57:26Z</time>
      </trkpt>
      <trkpt lat="42.918499" lon="-1.5162669999999985">
        <ele>521.047</ele>
        <time>2022-08-24T15:57:28Z</time>
      </trkpt>
      <trkpt lat="42.918499" lon="-1.5162669999999985">
        <ele>521.011</ele>
        <time>2022-08-24T15:57:29Z</time>
      </trkpt>
      <trkpt lat="42.918453" lon="-1.5163099999999985">
        <ele>521.009</ele>
        <time>2022-08-24T15:57:30Z</time>
      </trkpt>
      <trkpt lat="42.91841" lon="-1.5163519999999986">
        <ele>520.875</ele>
        <time>2022-08-24T15:57:31Z</time>
      </trkpt>
      <trkpt lat="42.918328" lon="-1.5164269999999986">
        <ele>520.865</ele>
        <time>2022-08-24T15:57:32Z</time>
      </trkpt>
      <trkpt lat="42.918291" lon="-1.5164609999999987">
        <ele>520.875</ele>
        <time>2022-08-24T15:57:33Z</time>
      </trkpt>
      <trkpt lat="42.918291" lon="-1.5164609999999987">
        <ele>520.831</ele>
        <time>2022-08-24T15:57:34Z</time>
      </trkpt>
      <trkpt lat="42.918249" lon="-1.5164979999999988">
        <ele>520.853</ele>
        <time>2022-08-24T15:57:35Z</time>
      </trkpt>
      <trkpt lat="42.918206000000005" lon="-1.5165309999999987">
        <ele>520.820</ele>
        <time>2022-08-24T15:57:36Z</time>
      </trkpt>
      <trkpt lat="42.918164000000004" lon="-1.5165639999999987">
        <ele>520.883</ele>
        <time>2022-08-24T15:57:37Z</time>
      </trkpt>
      <trkpt lat="42.918038" lon="-1.5166739999999987">
        <ele>520.877</ele>
        <time>2022-08-24T15:57:39Z</time>
      </trkpt>
      <trkpt lat="42.917955000000006" lon="-1.5167479999999987">
        <ele>520.866</ele>
        <time>2022-08-24T15:57:41Z</time>
      </trkpt>
      <trkpt lat="42.917655" lon="-1.5170079999999986">
        <ele>521.042</ele>
        <time>2022-08-24T15:57:48Z</time>
      </trkpt>
      <trkpt lat="42.917655" lon="-1.5170079999999986">
        <ele>521.022</ele>
        <time>2022-08-24T15:57:49Z</time>
      </trkpt>
      <trkpt lat="42.917570000000005" lon="-1.5170799999999987">
        <ele>521.014</ele>
        <time>2022-08-24T15:57:51Z</time>
      </trkpt>
      <trkpt lat="42.917528000000004" lon="-1.5171159999999986">
        <ele>521.009</ele>
        <time>2022-08-24T15:57:52Z</time>
      </trkpt>
      <trkpt lat="42.917485000000006" lon="-1.5171479999999986">
        <ele>521.215</ele>
        <time>2022-08-24T15:57:53Z</time>
      </trkpt>
      <trkpt lat="42.917027000000004" lon="-1.5175409999999987">
        <ele>521.235</ele>
        <time>2022-08-24T15:58:04Z</time>
      </trkpt>
      <trkpt lat="42.91698100000001" lon="-1.5175789999999987">
        <ele>521.265</ele>
        <time>2022-08-24T15:58:05Z</time>
      </trkpt>
      <trkpt lat="42.916706000000005" lon="-1.5178029999999987">
        <ele>521.221</ele>
        <time>2022-08-24T15:58:11Z</time>
      </trkpt>
      <trkpt lat="42.916470000000004" lon="-1.5179839999999987">
        <ele>521.283</ele>
        <time>2022-08-24T15:58:16Z</time>
      </trkpt>
      <trkpt lat="42.916424000000006" lon="-1.5180199999999986">
        <ele>521.270</ele>
        <time>2022-08-24T15:58:17Z</time>
      </trkpt>
      <trkpt lat="42.91633300000001" lon="-1.5180869999999986">
        <ele>521.213</ele>
        <time>2022-08-24T15:58:18Z</time>
      </trkpt>
      <trkpt lat="42.91633300000001" lon="-1.5180869999999986">
        <ele>521.247</ele>
        <time>2022-08-24T15:58:19Z</time>
      </trkpt>
      <trkpt lat="42.916292000000006" lon="-1.5181179999999985">
        <ele>521.486</ele>
        <time>2022-08-24T15:58:20Z</time>
      </trkpt>
      <trkpt lat="42.91625500000001" lon="-1.5181479999999985">
        <ele>521.472</ele>
        <time>2022-08-24T15:58:21Z</time>
      </trkpt>
      <trkpt lat="42.91622000000001" lon="-1.5181779999999985">
        <ele>521.213</ele>
        <time>2022-08-24T15:58:22Z</time>
      </trkpt>
      <trkpt lat="42.91618300000001" lon="-1.5182059999999984">
        <ele>521.214</ele>
        <time>2022-08-24T15:58:23Z</time>
      </trkpt>
      <trkpt lat="42.91614900000001" lon="-1.5182339999999983">
        <ele>521.209</ele>
        <time>2022-08-24T15:58:24Z</time>
      </trkpt>
      <trkpt lat="42.91593000000001" lon="-1.5184139999999984">
        <ele>521.048</ele>
        <time>2022-08-24T15:58:30Z</time>
      </trkpt>
      <trkpt lat="42.91556200000001" lon="-1.5187229999999983">
        <ele>521.078</ele>
        <time>2022-08-24T15:58:39Z</time>
      </trkpt>
      <trkpt lat="42.91544400000001" lon="-1.5188469999999983">
        <ele>521.028</ele>
        <time>2022-08-24T15:58:42Z</time>
      </trkpt>
      <trkpt lat="42.91540900000001" lon="-1.5188889999999984">
        <ele>521.064</ele>
        <time>2022-08-24T15:58:43Z</time>
      </trkpt>
      <trkpt lat="42.91530900000001" lon="-1.5190279999999983">
        <ele>521.046</ele>
        <time>2022-08-24T15:58:46Z</time>
      </trkpt>
      <trkpt lat="42.91503200000001" lon="-1.5195149999999982">
        <ele>520.633</ele>
        <time>2022-08-24T15:58:56Z</time>
      </trkpt>
      <trkpt lat="42.914845000000014" lon="-1.5198709999999982">
        <ele>520.226</ele>
        <time>2022-08-24T15:59:01Z</time>
      </trkpt>
      <trkpt lat="42.91468500000001" lon="-1.5201849999999981">
        <ele>519.840</ele>
        <time>2022-08-24T15:59:05Z</time>
      </trkpt>
      <trkpt lat="42.91465200000001" lon="-1.5202459999999982">
        <ele>519.679</ele>
        <time>2022-08-24T15:59:06Z</time>
      </trkpt>
      <trkpt lat="42.91448700000001" lon="-1.5205579999999983">
        <ele>519.052</ele>
        <time>2022-08-24T15:59:11Z</time>
      </trkpt>
      <trkpt lat="42.91434900000001" lon="-1.5208179999999982">
        <ele>518.453</ele>
        <time>2022-08-24T15:59:15Z</time>
      </trkpt>
      <trkpt lat="42.91432300000001" lon="-1.5208669999999982">
        <ele>518.408</ele>
        <time>2022-08-24T15:59:16Z</time>
      </trkpt>
      <trkpt lat="42.91429000000001" lon="-1.5209269999999981">
        <ele>518.209</ele>
        <time>2022-08-24T15:59:17Z</time>
      </trkpt>
      <trkpt lat="42.914257000000006" lon="-1.520984999999998">
        <ele>518.086</ele>
        <time>2022-08-24T15:59:18Z</time>
      </trkpt>
      <trkpt lat="42.91422500000001" lon="-1.521041999999998">
        <ele>518.066</ele>
        <time>2022-08-24T15:59:19Z</time>
      </trkpt>
      <trkpt lat="42.91413300000001" lon="-1.521222999999998">
        <ele>517.826</ele>
        <time>2022-08-24T15:59:22Z</time>
      </trkpt>
      <trkpt lat="42.91410200000001" lon="-1.521281999999998">
        <ele>517.622</ele>
        <time>2022-08-24T15:59:23Z</time>
      </trkpt>
      <trkpt lat="42.914066000000005" lon="-1.5213509999999981">
        <ele>517.684</ele>
        <time>2022-08-24T15:59:24Z</time>
      </trkpt>
      <trkpt lat="42.914038000000005" lon="-1.5214049999999981">
        <ele>517.661</ele>
        <time>2022-08-24T15:59:25Z</time>
      </trkpt>
      <trkpt lat="42.914038000000005" lon="-1.5214049999999981">
        <ele>517.684</ele>
        <time>2022-08-24T15:59:26Z</time>
      </trkpt>
      <trkpt lat="42.914015000000006" lon="-1.521448999999998">
        <ele>517.498</ele>
        <time>2022-08-24T15:59:27Z</time>
      </trkpt>
      <trkpt lat="42.91395800000001" lon="-1.521551999999998">
        <ele>517.487</ele>
        <time>2022-08-24T15:59:28Z</time>
      </trkpt>
      <trkpt lat="42.91392100000001" lon="-1.521611999999998">
        <ele>517.432</ele>
        <time>2022-08-24T15:59:29Z</time>
      </trkpt>
      <trkpt lat="42.91385700000001" lon="-1.521689999999998">
        <ele>517.492</ele>
        <time>2022-08-24T15:59:31Z</time>
      </trkpt>
      <trkpt lat="42.91382000000001" lon="-1.521729999999998">
        <ele>517.411</ele>
        <time>2022-08-24T15:59:32Z</time>
      </trkpt>
      <trkpt lat="42.913596000000005" lon="-1.521982999999998">
        <ele>517.409</ele>
        <time>2022-08-24T15:59:38Z</time>
      </trkpt>
      <trkpt lat="42.91347100000001" lon="-1.522101999999998">
        <ele>517.244</ele>
        <time>2022-08-24T15:59:41Z</time>
      </trkpt>
      <trkpt lat="42.913306000000006" lon="-1.522234999999998">
        <ele>517.244</ele>
        <time>2022-08-24T15:59:45Z</time>
      </trkpt>
      <trkpt lat="42.91307400000001" lon="-1.522399999999998">
        <ele>517.084</ele>
        <time>2022-08-24T15:59:51Z</time>
      </trkpt>
      <trkpt lat="42.91299100000001" lon="-1.522451999999998">
        <ele>516.830</ele>
        <time>2022-08-24T15:59:52Z</time>
      </trkpt>
      <trkpt lat="42.91275500000001" lon="-1.522602999999998">
        <ele>516.632</ele>
        <time>2022-08-24T15:59:57Z</time>
      </trkpt>
      <trkpt lat="42.91270800000001" lon="-1.5226339999999978">
        <ele>516.639</ele>
        <time>2022-08-24T15:59:58Z</time>
      </trkpt>
      <trkpt lat="42.91261300000001" lon="-1.5226959999999978">
        <ele>516.442</ele>
        <time>2022-08-24T16:00:00Z</time>
      </trkpt>
      <trkpt lat="42.912423000000004" lon="-1.5228199999999978">
        <ele>516.276</ele>
        <time>2022-08-24T16:00:04Z</time>
      </trkpt>
      <trkpt lat="42.912164000000004" lon="-1.522996999999998">
        <ele>515.815</ele>
        <time>2022-08-24T16:00:09Z</time>
      </trkpt>
      <trkpt lat="42.911919000000005" lon="-1.523219999999998">
        <ele>515.687</ele>
        <time>2022-08-24T16:00:14Z</time>
      </trkpt>
      <trkpt lat="42.91182800000001" lon="-1.523321999999998">
        <ele>515.442</ele>
        <time>2022-08-24T16:00:16Z</time>
      </trkpt>
      <trkpt lat="42.91162500000001" lon="-1.523599999999998">
        <ele>515.226</ele>
        <time>2022-08-24T16:00:21Z</time>
      </trkpt>
      <trkpt lat="42.91162500000001" lon="-1.523599999999998">
        <ele>515.009</ele>
        <time>2022-08-24T16:00:22Z</time>
      </trkpt>
      <trkpt lat="42.91152700000001" lon="-1.523770999999998">
        <ele>515.079</ele>
        <time>2022-08-24T16:00:24Z</time>
      </trkpt>
      <trkpt lat="42.91152700000001" lon="-1.523770999999998">
        <ele>515.089</ele>
        <time>2022-08-24T16:00:25Z</time>
      </trkpt>
      <trkpt lat="42.911432000000005" lon="-1.523965999999998">
        <ele>515.099</ele>
        <time>2022-08-24T16:00:28Z</time>
      </trkpt>
      <trkpt lat="42.911404000000005" lon="-1.524033999999998">
        <ele>514.835</ele>
        <time>2022-08-24T16:00:29Z</time>
      </trkpt>
      <trkpt lat="42.911376000000004" lon="-1.5241019999999978">
        <ele>515.077</ele>
        <time>2022-08-24T16:00:30Z</time>
      </trkpt>
      <trkpt lat="42.911328000000005" lon="-1.5242369999999978">
        <ele>514.634</ele>
        <time>2022-08-24T16:00:32Z</time>
      </trkpt>
      <trkpt lat="42.911304" lon="-1.5243049999999978">
        <ele>514.847</ele>
        <time>2022-08-24T16:00:33Z</time>
      </trkpt>
      <trkpt lat="42.911212" lon="-1.5246779999999978">
        <ele>514.851</ele>
        <time>2022-08-24T16:00:37Z</time>
      </trkpt>
      <trkpt lat="42.911159" lon="-1.5251089999999978">
        <ele>514.660</ele>
        <time>2022-08-24T16:00:43Z</time>
      </trkpt>
      <trkpt lat="42.911145999999995" lon="-1.525274999999998">
        <ele>514.835</ele>
        <time>2022-08-24T16:00:45Z</time>
      </trkpt>
      <trkpt lat="42.91113599999999" lon="-1.525424999999998">
        <ele>514.886</ele>
        <time>2022-08-24T16:00:47Z</time>
      </trkpt>
      <trkpt lat="42.91112599999999" lon="-1.525560999999998">
        <ele>514.814</ele>
        <time>2022-08-24T16:00:49Z</time>
      </trkpt>
      <trkpt lat="42.91110999999999" lon="-1.525861999999998">
        <ele>514.809</ele>
        <time>2022-08-24T16:00:53Z</time>
      </trkpt>
      <trkpt lat="42.91110699999999" lon="-1.525935999999998">
        <ele>514.824</ele>
        <time>2022-08-24T16:00:54Z</time>
      </trkpt>
      <trkpt lat="42.91110099999999" lon="-1.526008999999998">
        <ele>514.834</ele>
        <time>2022-08-24T16:00:55Z</time>
      </trkpt>
      <trkpt lat="42.91109399999999" lon="-1.526091999999998">
        <ele>514.874</ele>
        <time>2022-08-24T16:00:56Z</time>
      </trkpt>
      <trkpt lat="42.91109199999999" lon="-1.526155999999998">
        <ele>514.830</ele>
        <time>2022-08-24T16:00:57Z</time>
      </trkpt>
      <trkpt lat="42.91108699999999" lon="-1.526207999999998">
        <ele>515.052</ele>
        <time>2022-08-24T16:00:58Z</time>
      </trkpt>
      <trkpt lat="42.911081999999986" lon="-1.526286999999998">
        <ele>515.029</ele>
        <time>2022-08-24T16:00:59Z</time>
      </trkpt>
      <trkpt lat="42.91107599999999" lon="-1.5263499999999979">
        <ele>515.272</ele>
        <time>2022-08-24T16:01:00Z</time>
      </trkpt>
      <trkpt lat="42.911070999999986" lon="-1.526413999999998">
        <ele>515.226</ele>
        <time>2022-08-24T16:01:01Z</time>
      </trkpt>
      <trkpt lat="42.911065999999984" lon="-1.526475999999998">
        <ele>515.435</ele>
        <time>2022-08-24T16:01:02Z</time>
      </trkpt>
      <trkpt lat="42.911062999999984" lon="-1.526535999999998">
        <ele>515.467</ele>
        <time>2022-08-24T16:01:03Z</time>
      </trkpt>
      <trkpt lat="42.911048999999984" lon="-1.5267819999999979">
        <ele>515.681</ele>
        <time>2022-08-24T16:01:07Z</time>
      </trkpt>
      <trkpt lat="42.91094899999998" lon="-1.5275459999999978">
        <ele>515.819</ele>
        <time>2022-08-24T16:01:19Z</time>
      </trkpt>
      <trkpt lat="42.91093299999998" lon="-1.5276249999999978">
        <ele>516.009</ele>
        <time>2022-08-24T16:01:20Z</time>
      </trkpt>
      <trkpt lat="42.91091499999998" lon="-1.5276879999999977">
        <ele>516.087</ele>
        <time>2022-08-24T16:01:21Z</time>
      </trkpt>
      <trkpt lat="42.910899999999984" lon="-1.5277479999999977">
        <ele>516.027</ele>
        <time>2022-08-24T16:01:22Z</time>
      </trkpt>
      <trkpt lat="42.91078599999998" lon="-1.5281969999999976">
        <ele>516.077</ele>
        <time>2022-08-24T16:01:29Z</time>
      </trkpt>
      <trkpt lat="42.91060599999998" lon="-1.5288739999999976">
        <ele>515.463</ele>
        <time>2022-08-24T16:01:39Z</time>
      </trkpt>
      <trkpt lat="42.91055199999998" lon="-1.5290839999999977">
        <ele>515.255</ele>
        <time>2022-08-24T16:01:42Z</time>
      </trkpt>
      <trkpt lat="42.91051199999998" lon="-1.5292229999999976">
        <ele>515.072</ele>
        <time>2022-08-24T16:01:44Z</time>
      </trkpt>
      <trkpt lat="42.910491999999984" lon="-1.5292899999999976">
        <ele>515.085</ele>
        <time>2022-08-24T16:01:45Z</time>
      </trkpt>
      <trkpt lat="42.91041399999998" lon="-1.5295689999999975">
        <ele>514.829</ele>
        <time>2022-08-24T16:01:49Z</time>
      </trkpt>
      <trkpt lat="42.91037299999998" lon="-1.5297089999999975">
        <ele>514.858</ele>
        <time>2022-08-24T16:01:51Z</time>
      </trkpt>
      <trkpt lat="42.910196999999975" lon="-1.5303519999999975">
        <ele>514.037</ele>
        <time>2022-08-24T16:02:00Z</time>
      </trkpt>
      <trkpt lat="42.91017599999998" lon="-1.5304249999999975">
        <ele>514.049</ele>
        <time>2022-08-24T16:02:01Z</time>
      </trkpt>
      <trkpt lat="42.91015299999998" lon="-1.5304999999999975">
        <ele>514.013</ele>
        <time>2022-08-24T16:02:02Z</time>
      </trkpt>
      <trkpt lat="42.90998699999998" lon="-1.5310889999999975">
        <ele>513.009</ele>
        <time>2022-08-24T16:02:10Z</time>
      </trkpt>
      <trkpt lat="42.90998699999998" lon="-1.5310889999999975">
        <ele>513.034</ele>
        <time>2022-08-24T16:02:11Z</time>
      </trkpt>
      <trkpt lat="42.90994499999998" lon="-1.5312379999999974">
        <ele>512.874</ele>
        <time>2022-08-24T16:02:12Z</time>
      </trkpt>
      <trkpt lat="42.90992599999998" lon="-1.5313109999999974">
        <ele>512.854</ele>
        <time>2022-08-24T16:02:13Z</time>
      </trkpt>
      <trkpt lat="42.909802999999975" lon="-1.5317419999999975">
        <ele>512.670</ele>
        <time>2022-08-24T16:02:19Z</time>
      </trkpt>
      <trkpt lat="42.90977899999997" lon="-1.5318309999999975">
        <ele>512.472</ele>
        <time>2022-08-24T16:02:21Z</time>
      </trkpt>
      <trkpt lat="42.909763999999974" lon="-1.5318889999999974">
        <ele>512.489</ele>
        <time>2022-08-24T16:02:22Z</time>
      </trkpt>
      <trkpt lat="42.90965899999998" lon="-1.5322399999999974">
        <ele>512.092</ele>
        <time>2022-08-24T16:02:27Z</time>
      </trkpt>
      <trkpt lat="42.909636999999975" lon="-1.5323109999999973">
        <ele>512.086</ele>
        <time>2022-08-24T16:02:28Z</time>
      </trkpt>
      <trkpt lat="42.90957899999997" lon="-1.5325199999999972">
        <ele>511.885</ele>
        <time>2022-08-24T16:02:30Z</time>
      </trkpt>
      <trkpt lat="42.90955999999997" lon="-1.5325909999999972">
        <ele>511.854</ele>
        <time>2022-08-24T16:02:32Z</time>
      </trkpt>
      <trkpt lat="42.909538999999974" lon="-1.5326599999999972">
        <ele>511.656</ele>
        <time>2022-08-24T16:02:33Z</time>
      </trkpt>
      <trkpt lat="42.90949999999997" lon="-1.5327969999999973">
        <ele>511.611</ele>
        <time>2022-08-24T16:02:35Z</time>
      </trkpt>
      <trkpt lat="42.909479999999974" lon="-1.5328659999999974">
        <ele>511.609</ele>
        <time>2022-08-24T16:02:36Z</time>
      </trkpt>
      <trkpt lat="42.90943899999997" lon="-1.5329979999999974">
        <ele>511.686</ele>
        <time>2022-08-24T16:02:38Z</time>
      </trkpt>
      <trkpt lat="42.90937699999997" lon="-1.5331949999999974">
        <ele>511.666</ele>
        <time>2022-08-24T16:02:41Z</time>
      </trkpt>
      <trkpt lat="42.909358999999974" lon="-1.5332599999999974">
        <ele>511.496</ele>
        <time>2022-08-24T16:02:42Z</time>
      </trkpt>
      <trkpt lat="42.909295999999976" lon="-1.5334499999999973">
        <ele>511.462</ele>
        <time>2022-08-24T16:02:44Z</time>
      </trkpt>
      <trkpt lat="42.90923299999998" lon="-1.5336439999999973">
        <ele>511.424</ele>
        <time>2022-08-24T16:02:47Z</time>
      </trkpt>
      <trkpt lat="42.90910699999998" lon="-1.5339629999999973">
        <ele>511.251</ele>
        <time>2022-08-24T16:02:53Z</time>
      </trkpt>
      <trkpt lat="42.90894599999998" lon="-1.5342649999999973">
        <ele>511.074</ele>
        <time>2022-08-24T16:02:58Z</time>
      </trkpt>
      <trkpt lat="42.908825999999976" lon="-1.5344429999999973">
        <ele>510.848</ele>
        <time>2022-08-24T16:03:00Z</time>
      </trkpt>
      <trkpt lat="42.90851299999998" lon="-1.5347889999999973">
        <ele>510.287</ele>
        <time>2022-08-24T16:03:08Z</time>
      </trkpt>
      <trkpt lat="42.90830899999998" lon="-1.5349509999999973">
        <ele>509.822</ele>
        <time>2022-08-24T16:03:11Z</time>
      </trkpt>
      <trkpt lat="42.90808999999998" lon="-1.5350999999999972">
        <ele>509.262</ele>
        <time>2022-08-24T16:03:16Z</time>
      </trkpt>
      <trkpt lat="42.90791799999998" lon="-1.5351939999999973">
        <ele>508.808</ele>
        <time>2022-08-24T16:03:19Z</time>
      </trkpt>
      <trkpt lat="42.90779899999998" lon="-1.5352489999999972">
        <ele>508.609</ele>
        <time>2022-08-24T16:03:21Z</time>
      </trkpt>
      <trkpt lat="42.90767799999998" lon="-1.535295999999997">
        <ele>508.413</ele>
        <time>2022-08-24T16:03:22Z</time>
      </trkpt>
      <trkpt lat="42.90767799999998" lon="-1.535295999999997">
        <ele>508.433</ele>
        <time>2022-08-24T16:03:23Z</time>
      </trkpt>
      <trkpt lat="42.90749899999998" lon="-1.5353599999999972">
        <ele>508.253</ele>
        <time>2022-08-24T16:03:25Z</time>
      </trkpt>
      <trkpt lat="42.90738899999998" lon="-1.5353999999999972">
        <ele>508.069</ele>
        <time>2022-08-24T16:03:28Z</time>
      </trkpt>
      <trkpt lat="42.90728299999998" lon="-1.5354429999999972">
        <ele>508.021</ele>
        <time>2022-08-24T16:03:29Z</time>
      </trkpt>
      <trkpt lat="42.90728299999998" lon="-1.5354429999999972">
        <ele>508.098</ele>
        <time>2022-08-24T16:03:30Z</time>
      </trkpt>
      <trkpt lat="42.90717099999998" lon="-1.5354769999999973">
        <ele>508.071</ele>
        <time>2022-08-24T16:03:31Z</time>
      </trkpt>
      <trkpt lat="42.90711699999998" lon="-1.5354949999999974">
        <ele>508.085</ele>
        <time>2022-08-24T16:03:33Z</time>
      </trkpt>
      <trkpt lat="42.90700199999998" lon="-1.5355319999999975">
        <ele>508.084</ele>
        <time>2022-08-24T16:03:35Z</time>
      </trkpt>
      <trkpt lat="42.906886999999976" lon="-1.5355699999999974">
        <ele>508.057</ele>
        <time>2022-08-24T16:03:36Z</time>
      </trkpt>
      <trkpt lat="42.906490999999974" lon="-1.5356979999999973">
        <ele>507.800</ele>
        <time>2022-08-24T16:03:44Z</time>
      </trkpt>
      <trkpt lat="42.906206999999974" lon="-1.5358519999999973">
        <ele>507.820</ele>
        <time>2022-08-24T16:03:48Z</time>
      </trkpt>
      <trkpt lat="42.90615199999997" lon="-1.5358949999999973">
        <ele>507.609</ele>
        <time>2022-08-24T16:03:50Z</time>
      </trkpt>
      <trkpt lat="42.90609899999997" lon="-1.5359419999999973">
        <ele>507.626</ele>
        <time>2022-08-24T16:03:51Z</time>
      </trkpt>
      <trkpt lat="42.90604699999997" lon="-1.5359909999999972">
        <ele>507.626</ele>
        <time>2022-08-24T16:03:52Z</time>
      </trkpt>
      <trkpt lat="42.905947999999974" lon="-1.5360909999999972">
        <ele>507.646</ele>
        <time>2022-08-24T16:03:53Z</time>
      </trkpt>
      <trkpt lat="42.90584999999997" lon="-1.5361969999999971">
        <ele>507.232</ele>
        <time>2022-08-24T16:03:56Z</time>
      </trkpt>
      <trkpt lat="42.90575799999997" lon="-1.536302999999997">
        <ele>507.244</ele>
        <time>2022-08-24T16:03:57Z</time>
      </trkpt>
      <trkpt lat="42.90562199999997" lon="-1.536465999999997">
        <ele>507.041</ele>
        <time>2022-08-24T16:04:00Z</time>
      </trkpt>
      <trkpt lat="42.905533999999975" lon="-1.536576999999997">
        <ele>506.864</ele>
        <time>2022-08-24T16:04:02Z</time>
      </trkpt>
      <trkpt lat="42.905434999999976" lon="-1.536698999999997">
        <ele>506.888</ele>
        <time>2022-08-24T16:04:05Z</time>
      </trkpt>
      <trkpt lat="42.90539999999998" lon="-1.536743999999997">
        <ele>506.827</ele>
        <time>2022-08-24T16:04:06Z</time>
      </trkpt>
      <trkpt lat="42.90531199999998" lon="-1.536851999999997">
        <ele>506.865</ele>
        <time>2022-08-24T16:04:07Z</time>
      </trkpt>
      <trkpt lat="42.90526799999998" lon="-1.536902999999997">
        <ele>506.868</ele>
        <time>2022-08-24T16:04:08Z</time>
      </trkpt>
      <trkpt lat="42.90522599999998" lon="-1.5369529999999971">
        <ele>506.814</ele>
        <time>2022-08-24T16:04:09Z</time>
      </trkpt>
      <trkpt lat="42.90522599999998" lon="-1.5369529999999971">
        <ele>506.609</ele>
        <time>2022-08-24T16:04:10Z</time>
      </trkpt>
      <trkpt lat="42.905184999999975" lon="-1.5370029999999972">
        <ele>506.677</ele>
        <time>2022-08-24T16:04:11Z</time>
      </trkpt>
      <trkpt lat="42.90501999999997" lon="-1.5372029999999972">
        <ele>506.477</ele>
        <time>2022-08-24T16:04:15Z</time>
      </trkpt>
      <trkpt lat="42.90481199999997" lon="-1.5374589999999972">
        <ele>506.437</ele>
        <time>2022-08-24T16:04:19Z</time>
      </trkpt>
      <trkpt lat="42.90459799999997" lon="-1.5377189999999972">
        <ele>506.423</ele>
        <time>2022-08-24T16:04:24Z</time>
      </trkpt>
      <trkpt lat="42.90459799999997" lon="-1.5377189999999972">
        <ele>506.465</ele>
        <time>2022-08-24T16:04:25Z</time>
      </trkpt>
      <trkpt lat="42.90455699999997" lon="-1.5377689999999973">
        <ele>506.492</ele>
        <time>2022-08-24T16:04:26Z</time>
      </trkpt>
      <trkpt lat="42.904515999999965" lon="-1.5378189999999974">
        <ele>506.275</ele>
        <time>2022-08-24T16:04:27Z</time>
      </trkpt>
      <trkpt lat="42.90439399999997" lon="-1.5379639999999974">
        <ele>506.229</ele>
        <time>2022-08-24T16:04:29Z</time>
      </trkpt>
      <trkpt lat="42.90439399999997" lon="-1.5379639999999974">
        <ele>506.278</ele>
        <time>2022-08-24T16:04:30Z</time>
      </trkpt>
      <trkpt lat="42.90423299999997" lon="-1.5381679999999975">
        <ele>506.283</ele>
        <time>2022-08-24T16:04:33Z</time>
      </trkpt>
      <trkpt lat="42.903966999999966" lon="-1.5385589999999976">
        <ele>506.025</ele>
        <time>2022-08-24T16:04:40Z</time>
      </trkpt>
      <trkpt lat="42.903966999999966" lon="-1.5385589999999976">
        <ele>506.017</ele>
        <time>2022-08-24T16:04:41Z</time>
      </trkpt>
      <trkpt lat="42.903930999999965" lon="-1.5386169999999975">
        <ele>506.009</ele>
        <time>2022-08-24T16:04:42Z</time>
      </trkpt>
      <trkpt lat="42.903899999999965" lon="-1.5386789999999975">
        <ele>506.089</ele>
        <time>2022-08-24T16:04:43Z</time>
      </trkpt>
      <trkpt lat="42.90383899999996" lon="-1.5387989999999974">
        <ele>505.819</ele>
        <time>2022-08-24T16:04:44Z</time>
      </trkpt>
      <trkpt lat="42.90380899999996" lon="-1.5388599999999975">
        <ele>505.889</ele>
        <time>2022-08-24T16:04:45Z</time>
      </trkpt>
      <trkpt lat="42.90380899999996" lon="-1.5388599999999975">
        <ele>505.885</ele>
        <time>2022-08-24T16:04:46Z</time>
      </trkpt>
      <trkpt lat="42.90378199999996" lon="-1.5389249999999974">
        <ele>505.827</ele>
        <time>2022-08-24T16:04:47Z</time>
      </trkpt>
      <trkpt lat="42.903757999999954" lon="-1.5389879999999974">
        <ele>505.874</ele>
        <time>2022-08-24T16:04:48Z</time>
      </trkpt>
      <trkpt lat="42.90371399999995" lon="-1.5391109999999975">
        <ele>505.877</ele>
        <time>2022-08-24T16:04:49Z</time>
      </trkpt>
      <trkpt lat="42.90371399999995" lon="-1.5391109999999975">
        <ele>505.841</ele>
        <time>2022-08-24T16:04:50Z</time>
      </trkpt>
      <trkpt lat="42.90367199999995" lon="-1.5392339999999975">
        <ele>505.870</ele>
        <time>2022-08-24T16:04:52Z</time>
      </trkpt>
      <trkpt lat="42.903650999999954" lon="-1.5392949999999976">
        <ele>505.846</ele>
        <time>2022-08-24T16:04:53Z</time>
      </trkpt>
      <trkpt lat="42.90361299999995" lon="-1.5394209999999977">
        <ele>505.888</ele>
        <time>2022-08-24T16:04:54Z</time>
      </trkpt>
      <trkpt lat="42.90359799999995" lon="-1.5394819999999978">
        <ele>505.816</ele>
        <time>2022-08-24T16:04:55Z</time>
      </trkpt>
      <trkpt lat="42.90359799999995" lon="-1.5394819999999978">
        <ele>505.809</ele>
        <time>2022-08-24T16:04:56Z</time>
      </trkpt>
      <trkpt lat="42.903571999999954" lon="-1.5396119999999978">
        <ele>506.025</ele>
        <time>2022-08-24T16:04:58Z</time>
      </trkpt>
      <trkpt lat="42.90354699999995" lon="-1.5397409999999978">
        <ele>506.065</ele>
        <time>2022-08-24T16:04:59Z</time>
      </trkpt>
      <trkpt lat="42.90347199999995" lon="-1.5402569999999978">
        <ele>506.245</ele>
        <time>2022-08-24T16:05:08Z</time>
      </trkpt>
      <trkpt lat="42.90345899999995" lon="-1.5403219999999977">
        <ele>506.261</ele>
        <time>2022-08-24T16:05:09Z</time>
      </trkpt>
      <trkpt lat="42.903445999999946" lon="-1.5404449999999978">
        <ele>506.253</ele>
        <time>2022-08-24T16:05:10Z</time>
      </trkpt>
      <trkpt lat="42.90343699999995" lon="-1.540508999999998">
        <ele>506.280</ele>
        <time>2022-08-24T16:05:11Z</time>
      </trkpt>
      <trkpt lat="42.90343699999995" lon="-1.540508999999998">
        <ele>506.413</ele>
        <time>2022-08-24T16:05:12Z</time>
      </trkpt>
      <trkpt lat="42.90340199999995" lon="-1.5407609999999978">
        <ele>506.667</ele>
        <time>2022-08-24T16:05:15Z</time>
      </trkpt>
      <trkpt lat="42.90336099999995" lon="-1.5409529999999978">
        <ele>506.866</ele>
        <time>2022-08-24T16:05:19Z</time>
      </trkpt>
      <trkpt lat="42.903203999999945" lon="-1.5415229999999978">
        <ele>506.824</ele>
        <time>2022-08-24T16:05:28Z</time>
      </trkpt>
      <trkpt lat="42.90318299999995" lon="-1.5415859999999977">
        <ele>506.804</ele>
        <time>2022-08-24T16:05:29Z</time>
      </trkpt>
      <trkpt lat="42.90293199999995" lon="-1.5421389999999977">
        <ele>506.814</ele>
        <time>2022-08-24T16:05:37Z</time>
      </trkpt>
      <trkpt lat="42.90260099999995" lon="-1.5426429999999978">
        <ele>506.609</ele>
        <time>2022-08-24T16:05:47Z</time>
      </trkpt>
      <trkpt lat="42.90256099999995" lon="-1.5426969999999978">
        <ele>506.683</ele>
        <time>2022-08-24T16:05:48Z</time>
      </trkpt>
      <trkpt lat="42.90215099999995" lon="-1.5431729999999977">
        <ele>506.073</ele>
        <time>2022-08-24T16:05:57Z</time>
      </trkpt>
      <trkpt lat="42.90205399999995" lon="-1.5432849999999976">
        <ele>505.813</ele>
        <time>2022-08-24T16:05:58Z</time>
      </trkpt>
      <trkpt lat="42.90205399999995" lon="-1.5432849999999976">
        <ele>505.689</ele>
        <time>2022-08-24T16:05:59Z</time>
      </trkpt>
      <trkpt lat="42.90174999999995" lon="-1.5436289999999975">
        <ele>504.671</ele>
        <time>2022-08-24T16:06:05Z</time>
      </trkpt>
      <trkpt lat="42.90170099999995" lon="-1.5436859999999974">
        <ele>504.698</ele>
        <time>2022-08-24T16:06:06Z</time>
      </trkpt>
      <trkpt lat="42.901651999999956" lon="-1.5437449999999975">
        <ele>504.421</ele>
        <time>2022-08-24T16:06:07Z</time>
      </trkpt>
      <trkpt lat="42.90155299999996" lon="-1.5438569999999974">
        <ele>504.495</ele>
        <time>2022-08-24T16:06:08Z</time>
      </trkpt>
      <trkpt lat="42.90140099999996" lon="-1.5440269999999974">
        <ele>503.694</ele>
        <time>2022-08-24T16:06:12Z</time>
      </trkpt>
      <trkpt lat="42.901255999999954" lon="-1.5442109999999973">
        <ele>503.275</ele>
        <time>2022-08-24T16:06:15Z</time>
      </trkpt>
      <trkpt lat="42.90112199999995" lon="-1.5444079999999973">
        <ele>502.828</ele>
        <time>2022-08-24T16:06:18Z</time>
      </trkpt>
      <trkpt lat="42.90103599999995" lon="-1.5445459999999973">
        <ele>502.620</ele>
        <time>2022-08-24T16:06:19Z</time>
      </trkpt>
      <trkpt lat="42.900918999999945" lon="-1.5447669999999973">
        <ele>502.009</ele>
        <time>2022-08-24T16:06:23Z</time>
      </trkpt>
      <trkpt lat="42.90084799999995" lon="-1.5449189999999973">
        <ele>501.828</ele>
        <time>2022-08-24T16:06:24Z</time>
      </trkpt>
      <trkpt lat="42.90084799999995" lon="-1.5449189999999973">
        <ele>501.638</ele>
        <time>2022-08-24T16:06:25Z</time>
      </trkpt>
      <trkpt lat="42.900814999999945" lon="-1.5449979999999972">
        <ele>501.458</ele>
        <time>2022-08-24T16:06:26Z</time>
      </trkpt>
      <trkpt lat="42.90078499999994" lon="-1.5450799999999971">
        <ele>501.484</ele>
        <time>2022-08-24T16:06:27Z</time>
      </trkpt>
      <trkpt lat="42.90073399999994" lon="-1.5452419999999971">
        <ele>501.286</ele>
        <time>2022-08-24T16:06:28Z</time>
      </trkpt>
      <trkpt lat="42.90071199999994" lon="-1.5453219999999972">
        <ele>501.223</ele>
        <time>2022-08-24T16:06:29Z</time>
      </trkpt>
      <trkpt lat="42.90071199999994" lon="-1.5453219999999972">
        <ele>501.226</ele>
        <time>2022-08-24T16:06:30Z</time>
      </trkpt>
      <trkpt lat="42.90069199999994" lon="-1.5454019999999973">
        <ele>501.050</ele>
        <time>2022-08-24T16:06:31Z</time>
      </trkpt>
      <trkpt lat="42.90067299999994" lon="-1.5454809999999972">
        <ele>501.079</ele>
        <time>2022-08-24T16:06:32Z</time>
      </trkpt>
      <trkpt lat="42.90063699999994" lon="-1.5456379999999972">
        <ele>500.645</ele>
        <time>2022-08-24T16:06:33Z</time>
      </trkpt>
      <trkpt lat="42.90063699999994" lon="-1.5456379999999972">
        <ele>500.647</ele>
        <time>2022-08-24T16:06:34Z</time>
      </trkpt>
      <trkpt lat="42.90062299999994" lon="-1.5457129999999972">
        <ele>500.411</ele>
        <time>2022-08-24T16:06:35Z</time>
      </trkpt>
      <trkpt lat="42.90060899999994" lon="-1.5457869999999971">
        <ele>500.409</ele>
        <time>2022-08-24T16:06:36Z</time>
      </trkpt>
      <trkpt lat="42.90059699999994" lon="-1.545860999999997">
        <ele>500.215</ele>
        <time>2022-08-24T16:06:37Z</time>
      </trkpt>
      <trkpt lat="42.90058599999994" lon="-1.5459329999999971">
        <ele>500.235</ele>
        <time>2022-08-24T16:06:38Z</time>
      </trkpt>
      <trkpt lat="42.90052899999994" lon="-1.5462999999999971">
        <ele>500.065</ele>
        <time>2022-08-24T16:06:43Z</time>
      </trkpt>
      <trkpt lat="42.90049299999994" lon="-1.5465229999999972">
        <ele>500.011</ele>
        <time>2022-08-24T16:06:46Z</time>
      </trkpt>
      <trkpt lat="42.90048199999994" lon="-1.5465959999999972">
        <ele>500.033</ele>
        <time>2022-08-24T16:06:47Z</time>
      </trkpt>
      <trkpt lat="42.90047199999994" lon="-1.5466669999999971">
        <ele>500.060</ele>
        <time>2022-08-24T16:06:48Z</time>
      </trkpt>
      <trkpt lat="42.900452999999935" lon="-1.546805999999997">
        <ele>500.083</ele>
        <time>2022-08-24T16:06:49Z</time>
      </trkpt>
      <trkpt lat="42.90043399999993" lon="-1.546945999999997">
        <ele>499.887</ele>
        <time>2022-08-24T16:06:52Z</time>
      </trkpt>
      <trkpt lat="42.900399999999934" lon="-1.547161999999997">
        <ele>500.276</ele>
        <time>2022-08-24T16:06:54Z</time>
      </trkpt>
      <trkpt lat="42.90037299999993" lon="-1.547302999999997">
        <ele>500.228</ele>
        <time>2022-08-24T16:06:57Z</time>
      </trkpt>
      <trkpt lat="42.90028599999993" lon="-1.547654999999997">
        <ele>500.289</ele>
        <time>2022-08-24T16:07:01Z</time>
      </trkpt>
      <trkpt lat="42.90017499999993" lon="-1.547993999999997">
        <ele>500.017</ele>
        <time>2022-08-24T16:07:06Z</time>
      </trkpt>
      <trkpt lat="42.89997599999993" lon="-1.548449999999997">
        <ele>499.809</ele>
        <time>2022-08-24T16:07:14Z</time>
      </trkpt>
      <trkpt lat="42.89994299999993" lon="-1.548511999999997">
        <ele>499.813</ele>
        <time>2022-08-24T16:07:15Z</time>
      </trkpt>
      <trkpt lat="42.89983899999993" lon="-1.548695999999997">
        <ele>499.833</ele>
        <time>2022-08-24T16:07:17Z</time>
      </trkpt>
      <trkpt lat="42.89983899999993" lon="-1.548695999999997">
        <ele>499.623</ele>
        <time>2022-08-24T16:07:18Z</time>
      </trkpt>
      <trkpt lat="42.89969599999993" lon="-1.548928999999997">
        <ele>499.689</ele>
        <time>2022-08-24T16:07:21Z</time>
      </trkpt>
      <trkpt lat="42.89965899999993" lon="-1.548987999999997">
        <ele>499.431</ele>
        <time>2022-08-24T16:07:23Z</time>
      </trkpt>
      <trkpt lat="42.899507999999926" lon="-1.549222999999997">
        <ele>499.078</ele>
        <time>2022-08-24T16:07:26Z</time>
      </trkpt>
      <trkpt lat="42.89947099999993" lon="-1.549281999999997">
        <ele>498.831</ele>
        <time>2022-08-24T16:07:27Z</time>
      </trkpt>
      <trkpt lat="42.89942599999993" lon="-1.549353999999997">
        <ele>498.845</ele>
        <time>2022-08-24T16:07:28Z</time>
      </trkpt>
      <trkpt lat="42.89939099999993" lon="-1.549413999999997">
        <ele>498.654</ele>
        <time>2022-08-24T16:07:29Z</time>
      </trkpt>
      <trkpt lat="42.89939099999993" lon="-1.549413999999997">
        <ele>498.445</ele>
        <time>2022-08-24T16:07:30Z</time>
      </trkpt>
      <trkpt lat="42.89932699999993" lon="-1.549520999999997">
        <ele>498.247</ele>
        <time>2022-08-24T16:07:31Z</time>
      </trkpt>
      <trkpt lat="42.89921899999993" lon="-1.549691999999997">
        <ele>498.011</ele>
        <time>2022-08-24T16:07:35Z</time>
      </trkpt>
      <trkpt lat="42.89918299999993" lon="-1.549747999999997">
        <ele>498.009</ele>
        <time>2022-08-24T16:07:36Z</time>
      </trkpt>
      <trkpt lat="42.89911499999993" lon="-1.549860999999997">
        <ele>497.865</ele>
        <time>2022-08-24T16:07:37Z</time>
      </trkpt>
      <trkpt lat="42.89900499999993" lon="-1.550038999999997">
        <ele>497.865</ele>
        <time>2022-08-24T16:07:41Z</time>
      </trkpt>
      <trkpt lat="42.89866699999993" lon="-1.550586999999997">
        <ele>497.665</ele>
        <time>2022-08-24T16:07:50Z</time>
      </trkpt>
      <trkpt lat="42.89862799999993" lon="-1.550649999999997">
        <ele>497.631</ele>
        <time>2022-08-24T16:07:51Z</time>
      </trkpt>
      <trkpt lat="42.89859099999993" lon="-1.550711999999997">
        <ele>497.623</ele>
        <time>2022-08-24T16:07:52Z</time>
      </trkpt>
      <trkpt lat="42.89855499999993" lon="-1.550771999999997">
        <ele>497.480</ele>
        <time>2022-08-24T16:07:53Z</time>
      </trkpt>
      <trkpt lat="42.89851799999993" lon="-1.550830999999997">
        <ele>497.473</ele>
        <time>2022-08-24T16:07:54Z</time>
      </trkpt>
      <trkpt lat="42.89836899999993" lon="-1.551077999999997">
        <ele>497.277</ele>
        <time>2022-08-24T16:07:58Z</time>
      </trkpt>
      <trkpt lat="42.89829299999993" lon="-1.551196999999997">
        <ele>497.236</ele>
        <time>2022-08-24T16:07:59Z</time>
      </trkpt>
      <trkpt lat="42.89829299999993" lon="-1.551196999999997">
        <ele>497.478</ele>
        <time>2022-08-24T16:08:00Z</time>
      </trkpt>
      <trkpt lat="42.89825499999993" lon="-1.551256999999997">
        <ele>497.433</ele>
        <time>2022-08-24T16:08:01Z</time>
      </trkpt>
      <trkpt lat="42.89821799999993" lon="-1.551314999999997">
        <ele>497.226</ele>
        <time>2022-08-24T16:08:02Z</time>
      </trkpt>
      <trkpt lat="42.898142999999926" lon="-1.551437999999997">
        <ele>496.809</ele>
        <time>2022-08-24T16:08:03Z</time>
      </trkpt>
      <trkpt lat="42.897827999999926" lon="-1.5519439999999969">
        <ele>496.068</ele>
        <time>2022-08-24T16:08:12Z</time>
      </trkpt>
      <trkpt lat="42.89770899999993" lon="-1.5521359999999969">
        <ele>496.058</ele>
        <time>2022-08-24T16:08:14Z</time>
      </trkpt>
      <trkpt lat="42.89746599999993" lon="-1.552523999999997">
        <ele>495.468</ele>
        <time>2022-08-24T16:08:21Z</time>
      </trkpt>
      <trkpt lat="42.89731199999993" lon="-1.5527789999999968">
        <ele>495.234</ele>
        <time>2022-08-24T16:08:24Z</time>
      </trkpt>
      <trkpt lat="42.89723099999993" lon="-1.5529039999999967">
        <ele>495.056</ele>
        <time>2022-08-24T16:08:26Z</time>
      </trkpt>
      <trkpt lat="42.897188999999926" lon="-1.5529629999999968">
        <ele>495.093</ele>
        <time>2022-08-24T16:08:27Z</time>
      </trkpt>
      <trkpt lat="42.89710399999993" lon="-1.5530789999999968">
        <ele>495.046</ele>
        <time>2022-08-24T16:08:29Z</time>
      </trkpt>
      <trkpt lat="42.89701599999993" lon="-1.5531899999999967">
        <ele>495.060</ele>
        <time>2022-08-24T16:08:32Z</time>
      </trkpt>
      <trkpt lat="42.89661599999993" lon="-1.5535679999999967">
        <ele>495.089</ele>
        <time>2022-08-24T16:08:39Z</time>
      </trkpt>
      <trkpt lat="42.89650099999993" lon="-1.5536529999999966">
        <ele>494.877</ele>
        <time>2022-08-24T16:08:42Z</time>
      </trkpt>
      <trkpt lat="42.89638899999993" lon="-1.5537349999999965">
        <ele>494.861</ele>
        <time>2022-08-24T16:08:43Z</time>
      </trkpt>
      <trkpt lat="42.89628099999993" lon="-1.5538239999999965">
        <ele>494.627</ele>
        <time>2022-08-24T16:08:45Z</time>
      </trkpt>
      <trkpt lat="42.89622599999993" lon="-1.5538639999999966">
        <ele>494.609</ele>
        <time>2022-08-24T16:08:46Z</time>
      </trkpt>
      <trkpt lat="42.896105999999925" lon="-1.5539529999999966">
        <ele>494.498</ele>
        <time>2022-08-24T16:08:48Z</time>
      </trkpt>
      <trkpt lat="42.89606199999992" lon="-1.5539879999999966">
        <ele>494.238</ele>
        <time>2022-08-24T16:08:49Z</time>
      </trkpt>
      <trkpt lat="42.89555899999992" lon="-1.5543589999999965">
        <ele>494.068</ele>
        <time>2022-08-24T16:08:58Z</time>
      </trkpt>
      <trkpt lat="42.89550599999992" lon="-1.5544039999999966">
        <ele>494.034</ele>
        <time>2022-08-24T16:08:59Z</time>
      </trkpt>
      <trkpt lat="42.89545199999992" lon="-1.5544469999999966">
        <ele>494.026</ele>
        <time>2022-08-24T16:09:00Z</time>
      </trkpt>
      <trkpt lat="42.89539799999992" lon="-1.5544879999999965">
        <ele>494.023</ele>
        <time>2022-08-24T16:09:01Z</time>
      </trkpt>
      <trkpt lat="42.89534399999992" lon="-1.5545269999999964">
        <ele>494.056</ele>
        <time>2022-08-24T16:09:02Z</time>
      </trkpt>
      <trkpt lat="42.895278999999924" lon="-1.5545739999999963">
        <ele>494.020</ele>
        <time>2022-08-24T16:09:03Z</time>
      </trkpt>
      <trkpt lat="42.895278999999924" lon="-1.5545739999999963">
        <ele>494.049</ele>
        <time>2022-08-24T16:09:04Z</time>
      </trkpt>
      <trkpt lat="42.89523499999992" lon="-1.5546019999999963">
        <ele>494.054</ele>
        <time>2022-08-24T16:09:05Z</time>
      </trkpt>
      <trkpt lat="42.895126999999924" lon="-1.5546739999999963">
        <ele>494.056</ele>
        <time>2022-08-24T16:09:06Z</time>
      </trkpt>
      <trkpt lat="42.89506299999992" lon="-1.5547169999999964">
        <ele>494.011</ele>
        <time>2022-08-24T16:09:07Z</time>
      </trkpt>
      <trkpt lat="42.89502099999992" lon="-1.5547439999999964">
        <ele>494.009</ele>
        <time>2022-08-24T16:09:08Z</time>
      </trkpt>
      <trkpt lat="42.89491199999992" lon="-1.5548089999999963">
        <ele>493.856</ele>
        <time>2022-08-24T16:09:10Z</time>
      </trkpt>
      <trkpt lat="42.89462699999992" lon="-1.5549759999999964">
        <ele>493.476</ele>
        <time>2022-08-24T16:09:15Z</time>
      </trkpt>
      <trkpt lat="42.89458599999992" lon="-1.5550029999999964">
        <ele>493.246</ele>
        <time>2022-08-24T16:09:16Z</time>
      </trkpt>
      <trkpt lat="42.89453399999992" lon="-1.5550329999999963">
        <ele>493.272</ele>
        <time>2022-08-24T16:09:17Z</time>
      </trkpt>
      <trkpt lat="42.89447299999992" lon="-1.5550699999999964">
        <ele>493.264</ele>
        <time>2022-08-24T16:09:18Z</time>
      </trkpt>
      <trkpt lat="42.89447299999992" lon="-1.5550699999999964">
        <ele>493.251</ele>
        <time>2022-08-24T16:09:19Z</time>
      </trkpt>
      <trkpt lat="42.89438299999992" lon="-1.5551259999999965">
        <ele>493.224</ele>
        <time>2022-08-24T16:09:20Z</time>
      </trkpt>
      <trkpt lat="42.89417999999992" lon="-1.5552549999999965">
        <ele>493.028</ele>
        <time>2022-08-24T16:09:24Z</time>
      </trkpt>
      <trkpt lat="42.89414099999992" lon="-1.5552829999999964">
        <ele>493.057</ele>
        <time>2022-08-24T16:09:25Z</time>
      </trkpt>
      <trkpt lat="42.89398399999992" lon="-1.5553899999999965">
        <ele>493.289</ele>
        <time>2022-08-24T16:09:28Z</time>
      </trkpt>
      <trkpt lat="42.89394499999992" lon="-1.5554149999999964">
        <ele>493.206</ele>
        <time>2022-08-24T16:09:29Z</time>
      </trkpt>
      <trkpt lat="42.893888999999916" lon="-1.5554529999999964">
        <ele>493.226</ele>
        <time>2022-08-24T16:09:30Z</time>
      </trkpt>
      <trkpt lat="42.89385399999992" lon="-1.5554769999999964">
        <ele>493.409</ele>
        <time>2022-08-24T16:09:31Z</time>
      </trkpt>
      <trkpt lat="42.89380699999992" lon="-1.5555089999999965">
        <ele>493.429</ele>
        <time>2022-08-24T16:09:32Z</time>
      </trkpt>
      <trkpt lat="42.893751999999914" lon="-1.5555479999999964">
        <ele>493.449</ele>
        <time>2022-08-24T16:09:33Z</time>
      </trkpt>
      <trkpt lat="42.89353099999991" lon="-1.5557159999999963">
        <ele>494.259</ele>
        <time>2022-08-24T16:09:38Z</time>
      </trkpt>
      <trkpt lat="42.89334499999991" lon="-1.5558459999999963">
        <ele>494.475</ele>
        <time>2022-08-24T16:09:42Z</time>
      </trkpt>
      <trkpt lat="42.893008999999914" lon="-1.5561049999999963">
        <ele>494.647</ele>
        <time>2022-08-24T16:09:49Z</time>
      </trkpt>
      <trkpt lat="42.89296199999991" lon="-1.5561439999999962">
        <ele>494.624</ele>
        <time>2022-08-24T16:09:50Z</time>
      </trkpt>
      <trkpt lat="42.892915999999914" lon="-1.5561849999999962">
        <ele>494.687</ele>
        <time>2022-08-24T16:09:51Z</time>
      </trkpt>
      <trkpt lat="42.892872999999916" lon="-1.5562249999999962">
        <ele>494.661</ele>
        <time>2022-08-24T16:09:52Z</time>
      </trkpt>
      <trkpt lat="42.892828999999914" lon="-1.5562649999999962">
        <ele>494.490</ele>
        <time>2022-08-24T16:09:53Z</time>
      </trkpt>
      <trkpt lat="42.89278699999991" lon="-1.5563029999999962">
        <ele>494.415</ele>
        <time>2022-08-24T16:09:54Z</time>
      </trkpt>
      <trkpt lat="42.892743999999915" lon="-1.5563429999999963">
        <ele>494.465</ele>
        <time>2022-08-24T16:09:55Z</time>
      </trkpt>
      <trkpt lat="42.89271099999991" lon="-1.5563769999999963">
        <ele>494.411</ele>
        <time>2022-08-24T16:09:56Z</time>
      </trkpt>
      <trkpt lat="42.89271099999991" lon="-1.5563769999999963">
        <ele>494.409</ele>
        <time>2022-08-24T16:09:57Z</time>
      </trkpt>
      <trkpt lat="42.892630999999916" lon="-1.5564569999999964">
        <ele>494.422</ele>
        <time>2022-08-24T16:09:58Z</time>
      </trkpt>
      <trkpt lat="42.89259399999992" lon="-1.5564949999999964">
        <ele>494.452</ele>
        <time>2022-08-24T16:09:59Z</time>
      </trkpt>
      <trkpt lat="42.89236599999992" lon="-1.5567579999999963">
        <ele>494.272</ele>
        <time>2022-08-24T16:10:06Z</time>
      </trkpt>
      <trkpt lat="42.892045999999915" lon="-1.5571509999999964">
        <ele>494.258</ele>
        <time>2022-08-24T16:10:13Z</time>
      </trkpt>
      <trkpt lat="42.892006999999914" lon="-1.5571959999999965">
        <ele>494.240</ele>
        <time>2022-08-24T16:10:14Z</time>
      </trkpt>
      <trkpt lat="42.89196899999991" lon="-1.5572409999999965">
        <ele>494.297</ele>
        <time>2022-08-24T16:10:15Z</time>
      </trkpt>
      <trkpt lat="42.89189399999991" lon="-1.5573339999999964">
        <ele>494.010</ele>
        <time>2022-08-24T16:10:17Z</time>
      </trkpt>
      <trkpt lat="42.89185499999991" lon="-1.5573799999999964">
        <ele>494.064</ele>
        <time>2022-08-24T16:10:18Z</time>
      </trkpt>
      <trkpt lat="42.89170299999991" lon="-1.5575639999999964">
        <ele>494.013</ele>
        <time>2022-08-24T16:10:22Z</time>
      </trkpt>
      <trkpt lat="42.891663999999906" lon="-1.5576089999999965">
        <ele>494.047</ele>
        <time>2022-08-24T16:10:23Z</time>
      </trkpt>
      <trkpt lat="42.89162699999991" lon="-1.5576519999999965">
        <ele>493.829</ele>
        <time>2022-08-24T16:10:24Z</time>
      </trkpt>
      <trkpt lat="42.89158999999991" lon="-1.5576959999999964">
        <ele>493.821</ele>
        <time>2022-08-24T16:10:25Z</time>
      </trkpt>
      <trkpt lat="42.89155299999991" lon="-1.5577419999999964">
        <ele>493.809</ele>
        <time>2022-08-24T16:10:26Z</time>
      </trkpt>
      <trkpt lat="42.89151599999991" lon="-1.5577859999999963">
        <ele>493.825</ele>
        <time>2022-08-24T16:10:27Z</time>
      </trkpt>
      <trkpt lat="42.89112999999991" lon="-1.5582389999999964">
        <ele>493.655</ele>
        <time>2022-08-24T16:10:37Z</time>
      </trkpt>
      <trkpt lat="42.89092699999991" lon="-1.5584779999999965">
        <ele>493.655</ele>
        <time>2022-08-24T16:10:42Z</time>
      </trkpt>
      <trkpt lat="42.89088599999991" lon="-1.5585249999999964">
        <ele>493.631</ele>
        <time>2022-08-24T16:10:43Z</time>
      </trkpt>
      <trkpt lat="42.890847999999906" lon="-1.5585709999999964">
        <ele>493.653</ele>
        <time>2022-08-24T16:10:44Z</time>
      </trkpt>
      <trkpt lat="42.8908099999999" lon="-1.5586179999999963">
        <ele>493.650</ele>
        <time>2022-08-24T16:10:45Z</time>
      </trkpt>
      <trkpt lat="42.8907709999999" lon="-1.5586639999999963">
        <ele>493.653</ele>
        <time>2022-08-24T16:10:46Z</time>
      </trkpt>
      <trkpt lat="42.8907319999999" lon="-1.5587099999999963">
        <ele>493.697</ele>
        <time>2022-08-24T16:10:47Z</time>
      </trkpt>
      <trkpt lat="42.8906939999999" lon="-1.5587549999999963">
        <ele>493.486</ele>
        <time>2022-08-24T16:10:48Z</time>
      </trkpt>
      <trkpt lat="42.89065599999989" lon="-1.5587989999999963">
        <ele>493.456</ele>
        <time>2022-08-24T16:10:49Z</time>
      </trkpt>
      <trkpt lat="42.890618999999894" lon="-1.5588449999999963">
        <ele>493.459</ele>
        <time>2022-08-24T16:10:50Z</time>
      </trkpt>
      <trkpt lat="42.89034999999989" lon="-1.5591649999999964">
        <ele>493.214</ele>
        <time>2022-08-24T16:10:57Z</time>
      </trkpt>
      <trkpt lat="42.89031299999989" lon="-1.5592089999999963">
        <ele>493.209</ele>
        <time>2022-08-24T16:10:58Z</time>
      </trkpt>
      <trkpt lat="42.89027499999989" lon="-1.5592539999999964">
        <ele>493.276</ele>
        <time>2022-08-24T16:10:59Z</time>
      </trkpt>
      <trkpt lat="42.89008299999989" lon="-1.5594809999999963">
        <ele>493.056</ele>
        <time>2022-08-24T16:11:04Z</time>
      </trkpt>
      <trkpt lat="42.89004699999989" lon="-1.5595239999999964">
        <ele>493.026</ele>
        <time>2022-08-24T16:11:05Z</time>
      </trkpt>
      <trkpt lat="42.88985199999989" lon="-1.5597479999999964">
        <ele>492.882</ele>
        <time>2022-08-24T16:11:10Z</time>
      </trkpt>
      <trkpt lat="42.88964899999989" lon="-1.5599859999999963">
        <ele>493.024</ele>
        <time>2022-08-24T16:11:15Z</time>
      </trkpt>
      <trkpt lat="42.88948799999989" lon="-1.5601709999999964">
        <ele>493.051</ele>
        <time>2022-08-24T16:11:19Z</time>
      </trkpt>
      <trkpt lat="42.88932199999989" lon="-1.5603639999999965">
        <ele>492.824</ele>
        <time>2022-08-24T16:11:23Z</time>
      </trkpt>
      <trkpt lat="42.88928099999989" lon="-1.5604139999999966">
        <ele>492.648</ele>
        <time>2022-08-24T16:11:24Z</time>
      </trkpt>
      <trkpt lat="42.88911799999989" lon="-1.5606119999999966">
        <ele>492.677</ele>
        <time>2022-08-24T16:11:28Z</time>
      </trkpt>
      <trkpt lat="42.88869099999989" lon="-1.5611199999999965">
        <ele>491.847</ele>
        <time>2022-08-24T16:11:38Z</time>
      </trkpt>
      <trkpt lat="42.88864799999989" lon="-1.5611709999999965">
        <ele>491.829</ele>
        <time>2022-08-24T16:11:39Z</time>
      </trkpt>
      <trkpt lat="42.88860199999989" lon="-1.5612219999999966">
        <ele>491.621</ele>
        <time>2022-08-24T16:11:40Z</time>
      </trkpt>
      <trkpt lat="42.88856799999989" lon="-1.5612619999999966">
        <ele>491.609</ele>
        <time>2022-08-24T16:11:41Z</time>
      </trkpt>
      <trkpt lat="42.88852599999989" lon="-1.5613129999999966">
        <ele>491.465</ele>
        <time>2022-08-24T16:11:42Z</time>
      </trkpt>
      <trkpt lat="42.88852599999989" lon="-1.5613129999999966">
        <ele>491.475</ele>
        <time>2022-08-24T16:11:43Z</time>
      </trkpt>
      <trkpt lat="42.88848499999989" lon="-1.5613619999999966">
        <ele>491.435</ele>
        <time>2022-08-24T16:11:44Z</time>
      </trkpt>
      <trkpt lat="42.88814499999989" lon="-1.5617619999999965">
        <ele>490.841</ele>
        <time>2022-08-24T16:11:51Z</time>
      </trkpt>
      <trkpt lat="42.88798199999989" lon="-1.5619509999999965">
        <ele>490.673</ele>
        <time>2022-08-24T16:11:55Z</time>
      </trkpt>
      <trkpt lat="42.887886999999886" lon="-1.5620569999999965">
        <ele>490.460</ele>
        <time>2022-08-24T16:11:57Z</time>
      </trkpt>
      <trkpt lat="42.887847999999885" lon="-1.5621079999999965">
        <ele>490.453</ele>
        <time>2022-08-24T16:11:58Z</time>
      </trkpt>
      <trkpt lat="42.88780899999988" lon="-1.5621579999999966">
        <ele>490.457</ele>
        <time>2022-08-24T16:11:59Z</time>
      </trkpt>
      <trkpt lat="42.88776999999988" lon="-1.5622069999999966">
        <ele>490.676</ele>
        <time>2022-08-24T16:12:00Z</time>
      </trkpt>
      <trkpt lat="42.88733499999988" lon="-1.5627209999999965">
        <ele>490.087</ele>
        <time>2022-08-24T16:12:10Z</time>
      </trkpt>
      <trkpt lat="42.88725399999988" lon="-1.5628179999999965">
        <ele>489.842</ele>
        <time>2022-08-24T16:12:12Z</time>
      </trkpt>
      <trkpt lat="42.886950999999875" lon="-1.5631809999999964">
        <ele>489.026</ele>
        <time>2022-08-24T16:12:18Z</time>
      </trkpt>
      <trkpt lat="42.88689599999987" lon="-1.5632389999999963">
        <ele>488.809</ele>
        <time>2022-08-24T16:12:19Z</time>
      </trkpt>
      <trkpt lat="42.886677999999876" lon="-1.5634479999999962">
        <ele>487.689</ele>
        <time>2022-08-24T16:12:24Z</time>
      </trkpt>
      <trkpt lat="42.88655899999988" lon="-1.563540999999996">
        <ele>487.029</ele>
        <time>2022-08-24T16:12:26Z</time>
      </trkpt>
      <trkpt lat="42.886373999999876" lon="-1.563660999999996">
        <ele>486.869</ele>
        <time>2022-08-24T16:12:28Z</time>
      </trkpt>
      <trkpt lat="42.886311999999876" lon="-1.563696999999996">
        <ele>486.635</ele>
        <time>2022-08-24T16:12:29Z</time>
      </trkpt>
      <trkpt lat="42.886311999999876" lon="-1.563696999999996">
        <ele>486.467</ele>
        <time>2022-08-24T16:12:30Z</time>
      </trkpt>
      <trkpt lat="42.886249999999876" lon="-1.5637279999999958">
        <ele>486.424</ele>
        <time>2022-08-24T16:12:31Z</time>
      </trkpt>
      <trkpt lat="42.886173999999876" lon="-1.5637559999999957">
        <ele>486.067</ele>
        <time>2022-08-24T16:12:32Z</time>
      </trkpt>
      <trkpt lat="42.88604699999988" lon="-1.5637929999999958">
        <ele>485.851</ele>
        <time>2022-08-24T16:12:33Z</time>
      </trkpt>
      <trkpt lat="42.88599599999988" lon="-1.5638059999999958">
        <ele>485.640</ele>
        <time>2022-08-24T16:12:34Z</time>
      </trkpt>
      <trkpt lat="42.885920999999875" lon="-1.563831999999996">
        <ele>485.634</ele>
        <time>2022-08-24T16:12:35Z</time>
      </trkpt>
      <trkpt lat="42.88586099999988" lon="-1.5638489999999958">
        <ele>485.455</ele>
        <time>2022-08-24T16:12:36Z</time>
      </trkpt>
      <trkpt lat="42.885802999999875" lon="-1.5638619999999959">
        <ele>485.410</ele>
        <time>2022-08-24T16:12:37Z</time>
      </trkpt>
      <trkpt lat="42.88574299999988" lon="-1.563871999999996">
        <ele>485.209</ele>
        <time>2022-08-24T16:12:38Z</time>
      </trkpt>
      <trkpt lat="42.885442999999874" lon="-1.563900999999996">
        <ele>485.254</ele>
        <time>2022-08-24T16:12:43Z</time>
      </trkpt>
      <trkpt lat="42.885259999999874" lon="-1.563897999999996">
        <ele>485.254</ele>
        <time>2022-08-24T16:12:46Z</time>
      </trkpt>
      <trkpt lat="42.88519699999988" lon="-1.563896999999996">
        <ele>485.274</ele>
        <time>2022-08-24T16:12:47Z</time>
      </trkpt>
      <trkpt lat="42.88513799999988" lon="-1.5638929999999962">
        <ele>485.280</ele>
        <time>2022-08-24T16:12:48Z</time>
      </trkpt>
      <trkpt lat="42.885079999999874" lon="-1.5638889999999963">
        <ele>485.472</ele>
        <time>2022-08-24T16:12:49Z</time>
      </trkpt>
      <trkpt lat="42.88502399999987" lon="-1.5638839999999963">
        <ele>485.479</ele>
        <time>2022-08-24T16:12:50Z</time>
      </trkpt>
      <trkpt lat="42.884966999999875" lon="-1.5638799999999964">
        <ele>485.472</ele>
        <time>2022-08-24T16:12:51Z</time>
      </trkpt>
      <trkpt lat="42.884910999999875" lon="-1.5638769999999964">
        <ele>485.466</ele>
        <time>2022-08-24T16:12:52Z</time>
      </trkpt>
      <trkpt lat="42.884856999999876" lon="-1.5638739999999964">
        <ele>485.685</ele>
        <time>2022-08-24T16:12:53Z</time>
      </trkpt>
      <trkpt lat="42.88480499999988" lon="-1.5638679999999965">
        <ele>485.693</ele>
        <time>2022-08-24T16:12:54Z</time>
      </trkpt>
      <trkpt lat="42.88476299999988" lon="-1.5638659999999964">
        <ele>485.865</ele>
        <time>2022-08-24T16:12:55Z</time>
      </trkpt>
      <trkpt lat="42.884642999999876" lon="-1.5638659999999964">
        <ele>486.021</ele>
        <time>2022-08-24T16:12:57Z</time>
      </trkpt>
      <trkpt lat="42.88458899999988" lon="-1.5638639999999964">
        <ele>486.209</ele>
        <time>2022-08-24T16:12:58Z</time>
      </trkpt>
      <trkpt lat="42.88453799999988" lon="-1.5638599999999965">
        <ele>486.430</ele>
        <time>2022-08-24T16:12:59Z</time>
      </trkpt>
      <trkpt lat="42.88448699999988" lon="-1.5638579999999964">
        <ele>486.670</ele>
        <time>2022-08-24T16:13:00Z</time>
      </trkpt>
      <trkpt lat="42.88424599999988" lon="-1.5638609999999964">
        <ele>487.490</ele>
        <time>2022-08-24T16:13:05Z</time>
      </trkpt>
      <trkpt lat="42.88419499999988" lon="-1.5638619999999963">
        <ele>487.486</ele>
        <time>2022-08-24T16:13:06Z</time>
      </trkpt>
      <trkpt lat="42.88399399999988" lon="-1.5638709999999962">
        <ele>488.028</ele>
        <time>2022-08-24T16:13:10Z</time>
      </trkpt>
      <trkpt lat="42.88373299999988" lon="-1.5638929999999962">
        <ele>488.645</ele>
        <time>2022-08-24T16:13:15Z</time>
      </trkpt>
      <trkpt lat="42.88363999999988" lon="-1.5639069999999962">
        <ele>488.858</ele>
        <time>2022-08-24T16:13:17Z</time>
      </trkpt>
      <trkpt lat="42.88357799999988" lon="-1.5639139999999963">
        <ele>488.872</ele>
        <time>2022-08-24T16:13:18Z</time>
      </trkpt>
      <trkpt lat="42.88352399999988" lon="-1.5639199999999962">
        <ele>488.841</ele>
        <time>2022-08-24T16:13:19Z</time>
      </trkpt>
      <trkpt lat="42.88346799999988" lon="-1.5639279999999962">
        <ele>488.879</ele>
        <time>2022-08-24T16:13:20Z</time>
      </trkpt>
      <trkpt lat="42.88342199999988" lon="-1.5639339999999962">
        <ele>488.805</ele>
        <time>2022-08-24T16:13:21Z</time>
      </trkpt>
      <trkpt lat="42.88335399999988" lon="-1.563942999999996">
        <ele>488.825</ele>
        <time>2022-08-24T16:13:22Z</time>
      </trkpt>
      <trkpt lat="42.88330899999988" lon="-1.563950999999996">
        <ele>488.809</ele>
        <time>2022-08-24T16:13:23Z</time>
      </trkpt>
      <trkpt lat="42.883240999999884" lon="-1.563961999999996">
        <ele>488.898</ele>
        <time>2022-08-24T16:13:24Z</time>
      </trkpt>
      <trkpt lat="42.883184999999884" lon="-1.563972999999996">
        <ele>488.868</ele>
        <time>2022-08-24T16:13:25Z</time>
      </trkpt>
      <trkpt lat="42.88283199999989" lon="-1.564032999999996">
        <ele>488.898</ele>
        <time>2022-08-24T16:13:31Z</time>
      </trkpt>
      <trkpt lat="42.882258999999884" lon="-1.564131999999996">
        <ele>487.634</ele>
        <time>2022-08-24T16:13:40Z</time>
      </trkpt>
      <trkpt lat="42.88219199999988" lon="-1.564148999999996">
        <ele>487.436</ele>
        <time>2022-08-24T16:13:41Z</time>
      </trkpt>
      <trkpt lat="42.88199499999988" lon="-1.564209999999996">
        <ele>487.023</ele>
        <time>2022-08-24T16:13:44Z</time>
      </trkpt>
      <trkpt lat="42.88191399999988" lon="-1.564240999999996">
        <ele>487.056</ele>
        <time>2022-08-24T16:13:45Z</time>
      </trkpt>
      <trkpt lat="42.88184599999988" lon="-1.564267999999996">
        <ele>487.080</ele>
        <time>2022-08-24T16:13:46Z</time>
      </trkpt>
      <trkpt lat="42.88179299999988" lon="-1.564292999999996">
        <ele>486.679</ele>
        <time>2022-08-24T16:13:47Z</time>
      </trkpt>
      <trkpt lat="42.88171399999988" lon="-1.5643319999999958">
        <ele>486.471</ele>
        <time>2022-08-24T16:13:48Z</time>
      </trkpt>
      <trkpt lat="42.88166099999988" lon="-1.5643589999999958">
        <ele>486.441</ele>
        <time>2022-08-24T16:13:49Z</time>
      </trkpt>
      <trkpt lat="42.88166099999988" lon="-1.5643589999999958">
        <ele>486.215</ele>
        <time>2022-08-24T16:13:50Z</time>
      </trkpt>
      <trkpt lat="42.88153699999988" lon="-1.564427999999996">
        <ele>486.209</ele>
        <time>2022-08-24T16:13:51Z</time>
      </trkpt>
      <trkpt lat="42.88147599999988" lon="-1.564462999999996">
        <ele>486.048</ele>
        <time>2022-08-24T16:13:52Z</time>
      </trkpt>
      <trkpt lat="42.88123299999988" lon="-1.564608999999996">
        <ele>485.668</ele>
        <time>2022-08-24T16:13:56Z</time>
      </trkpt>
      <trkpt lat="42.88098199999988" lon="-1.564753999999996">
        <ele>485.428</ele>
        <time>2022-08-24T16:14:00Z</time>
      </trkpt>
      <trkpt lat="42.88091699999988" lon="-1.5647849999999959">
        <ele>485.464</ele>
        <time>2022-08-24T16:14:01Z</time>
      </trkpt>
      <trkpt lat="42.88085299999988" lon="-1.564818999999996">
        <ele>485.456</ele>
        <time>2022-08-24T16:14:02Z</time>
      </trkpt>
      <trkpt lat="42.88072999999988" lon="-1.564890999999996">
        <ele>485.443</ele>
        <time>2022-08-24T16:14:04Z</time>
      </trkpt>
      <trkpt lat="42.88072999999988" lon="-1.564890999999996">
        <ele>485.486</ele>
        <time>2022-08-24T16:14:05Z</time>
      </trkpt>
      <trkpt lat="42.88025099999988" lon="-1.565193999999996">
        <ele>485.250</ele>
        <time>2022-08-24T16:14:12Z</time>
      </trkpt>
      <trkpt lat="42.88025099999988" lon="-1.565193999999996">
        <ele>485.269</ele>
        <time>2022-08-24T16:14:13Z</time>
      </trkpt>
      <trkpt lat="42.87994399999988" lon="-1.565382999999996">
        <ele>485.049</ele>
        <time>2022-08-24T16:14:17Z</time>
      </trkpt>
      <trkpt lat="42.87984199999988" lon="-1.5654489999999959">
        <ele>485.002</ele>
        <time>2022-08-24T16:14:19Z</time>
      </trkpt>
      <trkpt lat="42.87984199999988" lon="-1.5654489999999959">
        <ele>485.022</ele>
        <time>2022-08-24T16:14:20Z</time>
      </trkpt>
      <trkpt lat="42.87978599999988" lon="-1.5654879999999958">
        <ele>485.009</ele>
        <time>2022-08-24T16:14:21Z</time>
      </trkpt>
      <trkpt lat="42.879728999999884" lon="-1.5655229999999958">
        <ele>484.845</ele>
        <time>2022-08-24T16:14:22Z</time>
      </trkpt>
      <trkpt lat="42.879618999999884" lon="-1.5655939999999957">
        <ele>484.855</ele>
        <time>2022-08-24T16:14:23Z</time>
      </trkpt>
      <trkpt lat="42.879218999999885" lon="-1.5658349999999956">
        <ele>484.625</ele>
        <time>2022-08-24T16:14:31Z</time>
      </trkpt>
      <trkpt lat="42.87904399999989" lon="-1.5659379999999956">
        <ele>484.441</ele>
        <time>2022-08-24T16:14:33Z</time>
      </trkpt>
      <trkpt lat="42.87898999999989" lon="-1.5659789999999956">
        <ele>484.493</ele>
        <time>2022-08-24T16:14:34Z</time>
      </trkpt>
      <trkpt lat="42.87893599999989" lon="-1.5660139999999956">
        <ele>484.420</ele>
        <time>2022-08-24T16:14:35Z</time>
      </trkpt>
      <trkpt lat="42.87888199999989" lon="-1.5660479999999957">
        <ele>484.453</ele>
        <time>2022-08-24T16:14:36Z</time>
      </trkpt>
      <trkpt lat="42.87882899999989" lon="-1.5660799999999957">
        <ele>484.247</ele>
        <time>2022-08-24T16:14:37Z</time>
      </trkpt>
      <trkpt lat="42.87876299999989" lon="-1.5661169999999958">
        <ele>484.256</ele>
        <time>2022-08-24T16:14:38Z</time>
      </trkpt>
      <trkpt lat="42.878665999999896" lon="-1.5661729999999958">
        <ele>484.234</ele>
        <time>2022-08-24T16:14:40Z</time>
      </trkpt>
      <trkpt lat="42.878601999999894" lon="-1.5662099999999959">
        <ele>484.255</ele>
        <time>2022-08-24T16:14:41Z</time>
      </trkpt>
      <trkpt lat="42.878561999999896" lon="-1.566235999999996">
        <ele>484.210</ele>
        <time>2022-08-24T16:14:42Z</time>
      </trkpt>
      <trkpt lat="42.878511999999894" lon="-1.566270999999996">
        <ele>484.209</ele>
        <time>2022-08-24T16:14:43Z</time>
      </trkpt>
      <trkpt lat="42.87839799999989" lon="-1.566343999999996">
        <ele>484.284</ele>
        <time>2022-08-24T16:14:45Z</time>
      </trkpt>
      <trkpt lat="42.87814799999989" lon="-1.566504999999996">
        <ele>484.064</ele>
        <time>2022-08-24T16:14:50Z</time>
      </trkpt>
      <trkpt lat="42.87787599999989" lon="-1.566682999999996">
        <ele>483.884</ele>
        <time>2022-08-24T16:14:55Z</time>
      </trkpt>
      <trkpt lat="42.877833999999886" lon="-1.5667089999999961">
        <ele>483.840</ele>
        <time>2022-08-24T16:14:56Z</time>
      </trkpt>
      <trkpt lat="42.87778199999989" lon="-1.5667409999999962">
        <ele>483.822</ele>
        <time>2022-08-24T16:14:57Z</time>
      </trkpt>
      <trkpt lat="42.87778199999989" lon="-1.5667409999999962">
        <ele>483.889</ele>
        <time>2022-08-24T16:14:58Z</time>
      </trkpt>
      <trkpt lat="42.87767999999989" lon="-1.566803999999996">
        <ele>483.872</ele>
        <time>2022-08-24T16:14:59Z</time>
      </trkpt>
      <trkpt lat="42.87762899999989" lon="-1.5668329999999961">
        <ele>483.816</ele>
        <time>2022-08-24T16:15:00Z</time>
      </trkpt>
      <trkpt lat="42.87753299999989" lon="-1.5668949999999962">
        <ele>483.885</ele>
        <time>2022-08-24T16:15:02Z</time>
      </trkpt>
      <trkpt lat="42.877269999999896" lon="-1.5670639999999962">
        <ele>483.435</ele>
        <time>2022-08-24T16:15:07Z</time>
      </trkpt>
      <trkpt lat="42.87716699999989" lon="-1.5671289999999962">
        <ele>483.486</ele>
        <time>2022-08-24T16:15:09Z</time>
      </trkpt>
      <trkpt lat="42.87695899999989" lon="-1.5672579999999963">
        <ele>483.214</ele>
        <time>2022-08-24T16:15:13Z</time>
      </trkpt>
      <trkpt lat="42.87690899999989" lon="-1.5672899999999963">
        <ele>483.209</ele>
        <time>2022-08-24T16:15:14Z</time>
      </trkpt>
      <trkpt lat="42.87685899999989" lon="-1.5673219999999963">
        <ele>483.254</ele>
        <time>2022-08-24T16:15:15Z</time>
      </trkpt>
      <trkpt lat="42.87680799999989" lon="-1.5673529999999962">
        <ele>483.264</ele>
        <time>2022-08-24T16:15:16Z</time>
      </trkpt>
      <trkpt lat="42.87669799999989" lon="-1.5674209999999962">
        <ele>483.244</ele>
        <time>2022-08-24T16:15:18Z</time>
      </trkpt>
      <trkpt lat="42.87618099999989" lon="-1.5677639999999962">
        <ele>482.880</ele>
        <time>2022-08-24T16:15:28Z</time>
      </trkpt>
      <trkpt lat="42.87607199999989" lon="-1.5678339999999962">
        <ele>482.632</ele>
        <time>2022-08-24T16:15:30Z</time>
      </trkpt>
      <trkpt lat="42.87596199999989" lon="-1.567904999999996">
        <ele>482.239</ele>
        <time>2022-08-24T16:15:32Z</time>
      </trkpt>
      <trkpt lat="42.875906999999884" lon="-1.567940999999996">
        <ele>482.272</ele>
        <time>2022-08-24T16:15:33Z</time>
      </trkpt>
      <trkpt lat="42.875852999999886" lon="-1.567978999999996">
        <ele>482.026</ele>
        <time>2022-08-24T16:15:34Z</time>
      </trkpt>
      <trkpt lat="42.87579899999989" lon="-1.568015999999996">
        <ele>482.035</ele>
        <time>2022-08-24T16:15:35Z</time>
      </trkpt>
      <trkpt lat="42.875743999999884" lon="-1.568048999999996">
        <ele>482.065</ele>
        <time>2022-08-24T16:15:36Z</time>
      </trkpt>
      <trkpt lat="42.87569099999988" lon="-1.568081999999996">
        <ele>482.068</ele>
        <time>2022-08-24T16:15:37Z</time>
      </trkpt>
      <trkpt lat="42.87564099999988" lon="-1.568115999999996">
        <ele>482.014</ele>
        <time>2022-08-24T16:15:38Z</time>
      </trkpt>
      <trkpt lat="42.875591999999884" lon="-1.568146999999996">
        <ele>482.009</ele>
        <time>2022-08-24T16:15:39Z</time>
      </trkpt>
      <trkpt lat="42.87554299999989" lon="-1.568179999999996">
        <ele>482.047</ele>
        <time>2022-08-24T16:15:40Z</time>
      </trkpt>
      <trkpt lat="42.87549399999989" lon="-1.5682129999999959">
        <ele>481.827</ele>
        <time>2022-08-24T16:15:41Z</time>
      </trkpt>
      <trkpt lat="42.87544599999989" lon="-1.5682459999999958">
        <ele>481.827</ele>
        <time>2022-08-24T16:15:42Z</time>
      </trkpt>
      <trkpt lat="42.87539799999989" lon="-1.5682789999999958">
        <ele>481.823</ele>
        <time>2022-08-24T16:15:43Z</time>
      </trkpt>
      <trkpt lat="42.87534899999989" lon="-1.5683109999999958">
        <ele>481.825</ele>
        <time>2022-08-24T16:15:44Z</time>
      </trkpt>
      <trkpt lat="42.87525399999989" lon="-1.5683769999999957">
        <ele>481.652</ele>
        <time>2022-08-24T16:15:46Z</time>
      </trkpt>
      <trkpt lat="42.87520599999989" lon="-1.5684089999999957">
        <ele>481.655</ele>
        <time>2022-08-24T16:15:47Z</time>
      </trkpt>
      <trkpt lat="42.875111999999895" lon="-1.5684689999999957">
        <ele>481.689</ele>
        <time>2022-08-24T16:15:49Z</time>
      </trkpt>
      <trkpt lat="42.875018999999895" lon="-1.5685299999999958">
        <ele>481.618</ele>
        <time>2022-08-24T16:15:51Z</time>
      </trkpt>
      <trkpt lat="42.8749729999999" lon="-1.5685609999999957">
        <ele>481.688</ele>
        <time>2022-08-24T16:15:52Z</time>
      </trkpt>
      <trkpt lat="42.874925999999896" lon="-1.5685899999999957">
        <ele>481.624</ele>
        <time>2022-08-24T16:15:53Z</time>
      </trkpt>
      <trkpt lat="42.87488199999989" lon="-1.5686189999999958">
        <ele>481.626</ele>
        <time>2022-08-24T16:15:54Z</time>
      </trkpt>
      <trkpt lat="42.87469399999989" lon="-1.5687429999999958">
        <ele>481.609</ele>
        <time>2022-08-24T16:15:58Z</time>
      </trkpt>
      <trkpt lat="42.87464899999989" lon="-1.5687749999999958">
        <ele>481.669</ele>
        <time>2022-08-24T16:15:59Z</time>
      </trkpt>
      <trkpt lat="42.87454599999989" lon="-1.5688429999999958">
        <ele>481.889</ele>
        <time>2022-08-24T16:16:01Z</time>
      </trkpt>
      <trkpt lat="42.87403999999989" lon="-1.5691759999999957">
        <ele>482.279</ele>
        <time>2022-08-24T16:16:12Z</time>
      </trkpt>
      <trkpt lat="42.873992999999885" lon="-1.5692069999999956">
        <ele>482.235</ele>
        <time>2022-08-24T16:16:13Z</time>
      </trkpt>
      <trkpt lat="42.87385399999989" lon="-1.5693019999999955">
        <ele>482.277</ele>
        <time>2022-08-24T16:16:16Z</time>
      </trkpt>
      <trkpt lat="42.87379799999989" lon="-1.5693379999999955">
        <ele>482.284</ele>
        <time>2022-08-24T16:16:17Z</time>
      </trkpt>
      <trkpt lat="42.87376299999989" lon="-1.5693609999999956">
        <ele>482.287</ele>
        <time>2022-08-24T16:16:18Z</time>
      </trkpt>
      <trkpt lat="42.87371899999989" lon="-1.5693899999999956">
        <ele>482.421</ele>
        <time>2022-08-24T16:16:19Z</time>
      </trkpt>
      <trkpt lat="42.87367099999989" lon="-1.5694239999999957">
        <ele>482.430</ele>
        <time>2022-08-24T16:16:20Z</time>
      </trkpt>
      <trkpt lat="42.87363899999989" lon="-1.5694469999999958">
        <ele>482.684</ele>
        <time>2022-08-24T16:16:21Z</time>
      </trkpt>
      <trkpt lat="42.87359999999989" lon="-1.5694719999999958">
        <ele>482.607</ele>
        <time>2022-08-24T16:16:22Z</time>
      </trkpt>
      <trkpt lat="42.873561999999886" lon="-1.5694989999999958">
        <ele>482.817</ele>
        <time>2022-08-24T16:16:23Z</time>
      </trkpt>
      <trkpt lat="42.87352499999989" lon="-1.5695229999999958">
        <ele>482.809</ele>
        <time>2022-08-24T16:16:24Z</time>
      </trkpt>
      <trkpt lat="42.87348799999989" lon="-1.5695469999999958">
        <ele>482.859</ele>
        <time>2022-08-24T16:16:25Z</time>
      </trkpt>
      <trkpt lat="42.873449999999885" lon="-1.569569999999996">
        <ele>483.069</ele>
        <time>2022-08-24T16:16:26Z</time>
      </trkpt>
      <trkpt lat="42.87340899999988" lon="-1.5695999999999959">
        <ele>483.269</ele>
        <time>2022-08-24T16:16:27Z</time>
      </trkpt>
      <trkpt lat="42.873379999999884" lon="-1.5696189999999959">
        <ele>483.455</ele>
        <time>2022-08-24T16:16:28Z</time>
      </trkpt>
      <trkpt lat="42.873345999999884" lon="-1.5696439999999958">
        <ele>483.877</ele>
        <time>2022-08-24T16:16:29Z</time>
      </trkpt>
      <trkpt lat="42.87330999999988" lon="-1.5696679999999958">
        <ele>483.894</ele>
        <time>2022-08-24T16:16:30Z</time>
      </trkpt>
      <trkpt lat="42.87323999999988" lon="-1.5697169999999958">
        <ele>484.047</ele>
        <time>2022-08-24T16:16:32Z</time>
      </trkpt>
      <trkpt lat="42.87320099999988" lon="-1.5697459999999959">
        <ele>484.281</ele>
        <time>2022-08-24T16:16:33Z</time>
      </trkpt>
      <trkpt lat="42.87317499999988" lon="-1.569763999999996">
        <ele>484.480</ele>
        <time>2022-08-24T16:16:34Z</time>
      </trkpt>
      <trkpt lat="42.87307699999988" lon="-1.5698269999999959">
        <ele>484.847</ele>
        <time>2022-08-24T16:16:37Z</time>
      </trkpt>
      <trkpt lat="42.87304599999988" lon="-1.5698489999999958">
        <ele>485.029</ele>
        <time>2022-08-24T16:16:38Z</time>
      </trkpt>
      <trkpt lat="42.87301599999988" lon="-1.5698689999999957">
        <ele>485.021</ele>
        <time>2022-08-24T16:16:39Z</time>
      </trkpt>
      <trkpt lat="42.87298499999988" lon="-1.5698869999999958">
        <ele>485.209</ele>
        <time>2022-08-24T16:16:40Z</time>
      </trkpt>
      <trkpt lat="42.87295599999988" lon="-1.5699039999999957">
        <ele>485.465</ele>
        <time>2022-08-24T16:16:41Z</time>
      </trkpt>
      <trkpt lat="42.87292799999988" lon="-1.5699229999999957">
        <ele>485.685</ele>
        <time>2022-08-24T16:16:42Z</time>
      </trkpt>
      <trkpt lat="42.87290199999988" lon="-1.5699419999999957">
        <ele>485.675</ele>
        <time>2022-08-24T16:16:43Z</time>
      </trkpt>
      <trkpt lat="42.87287499999988" lon="-1.5699599999999958">
        <ele>485.811</ele>
        <time>2022-08-24T16:16:44Z</time>
      </trkpt>
      <trkpt lat="42.87284699999988" lon="-1.5699769999999957">
        <ele>485.813</ele>
        <time>2022-08-24T16:16:45Z</time>
      </trkpt>
      <trkpt lat="42.87281899999988" lon="-1.5699949999999958">
        <ele>486.020</ele>
        <time>2022-08-24T16:16:46Z</time>
      </trkpt>
      <trkpt lat="42.87279299999988" lon="-1.5700129999999959">
        <ele>486.263</ele>
        <time>2022-08-24T16:16:47Z</time>
      </trkpt>
      <trkpt lat="42.87276099999988" lon="-1.570033999999996">
        <ele>486.277</ele>
        <time>2022-08-24T16:16:48Z</time>
      </trkpt>
      <trkpt lat="42.872734999999885" lon="-1.570048999999996">
        <ele>486.226</ele>
        <time>2022-08-24T16:16:49Z</time>
      </trkpt>
      <trkpt lat="42.872714999999886" lon="-1.570062999999996">
        <ele>486.416</ele>
        <time>2022-08-24T16:16:50Z</time>
      </trkpt>
      <trkpt lat="42.87268899999989" lon="-1.570079999999996">
        <ele>486.876</ele>
        <time>2022-08-24T16:16:51Z</time>
      </trkpt>
      <trkpt lat="42.872655999999886" lon="-1.570097999999996">
        <ele>487.213</ele>
        <time>2022-08-24T16:16:52Z</time>
      </trkpt>
      <trkpt lat="42.872630999999885" lon="-1.570114999999996">
        <ele>487.209</ele>
        <time>2022-08-24T16:16:53Z</time>
      </trkpt>
      <trkpt lat="42.87260999999989" lon="-1.570127999999996">
        <ele>487.492</ele>
        <time>2022-08-24T16:16:54Z</time>
      </trkpt>
      <trkpt lat="42.872579999999886" lon="-1.570146999999996">
        <ele>487.622</ele>
        <time>2022-08-24T16:16:55Z</time>
      </trkpt>
      <trkpt lat="42.872559999999886" lon="-1.570157999999996">
        <ele>487.832</ele>
        <time>2022-08-24T16:16:56Z</time>
      </trkpt>
      <trkpt lat="42.87253699999989" lon="-1.570171999999996">
        <ele>488.058</ele>
        <time>2022-08-24T16:16:57Z</time>
      </trkpt>
      <trkpt lat="42.872506999999885" lon="-1.5701889999999958">
        <ele>488.080</ele>
        <time>2022-08-24T16:16:58Z</time>
      </trkpt>
      <trkpt lat="42.87248899999989" lon="-1.5702029999999958">
        <ele>488.467</ele>
        <time>2022-08-24T16:16:59Z</time>
      </trkpt>
      <trkpt lat="42.87246399999989" lon="-1.570217999999996">
        <ele>488.620</ele>
        <time>2022-08-24T16:17:00Z</time>
      </trkpt>
      <trkpt lat="42.872439999999884" lon="-1.5702319999999959">
        <ele>488.634</ele>
        <time>2022-08-24T16:17:01Z</time>
      </trkpt>
      <trkpt lat="42.872416999999885" lon="-1.5702459999999958">
        <ele>488.883</ele>
        <time>2022-08-24T16:17:02Z</time>
      </trkpt>
      <trkpt lat="42.872393999999886" lon="-1.570260999999996">
        <ele>488.822</ele>
        <time>2022-08-24T16:17:03Z</time>
      </trkpt>
      <trkpt lat="42.87237099999989" lon="-1.5702749999999959">
        <ele>489.262</ele>
        <time>2022-08-24T16:17:04Z</time>
      </trkpt>
      <trkpt lat="42.87234599999989" lon="-1.570287999999996">
        <ele>489.208</ele>
        <time>2022-08-24T16:17:05Z</time>
      </trkpt>
      <trkpt lat="42.87231999999989" lon="-1.570300999999996">
        <ele>489.409</ele>
        <time>2022-08-24T16:17:06Z</time>
      </trkpt>
      <trkpt lat="42.872295999999885" lon="-1.570314999999996">
        <ele>489.683</ele>
        <time>2022-08-24T16:17:07Z</time>
      </trkpt>
      <trkpt lat="42.87227199999988" lon="-1.570327999999996">
        <ele>489.643</ele>
        <time>2022-08-24T16:17:08Z</time>
      </trkpt>
      <trkpt lat="42.87224799999988" lon="-1.5703399999999959">
        <ele>489.843</ele>
        <time>2022-08-24T16:17:09Z</time>
      </trkpt>
      <trkpt lat="42.87222299999988" lon="-1.570352999999996">
        <ele>489.879</ele>
        <time>2022-08-24T16:17:10Z</time>
      </trkpt>
      <trkpt lat="42.872195999999875" lon="-1.5703639999999959">
        <ele>490.031</ele>
        <time>2022-08-24T16:17:11Z</time>
      </trkpt>
      <trkpt lat="42.872170999999874" lon="-1.5703759999999958">
        <ele>490.028</ele>
        <time>2022-08-24T16:17:12Z</time>
      </trkpt>
      <trkpt lat="42.872147999999875" lon="-1.5703869999999958">
        <ele>490.021</ele>
        <time>2022-08-24T16:17:13Z</time>
      </trkpt>
      <trkpt lat="42.87211899999988" lon="-1.5704029999999958">
        <ele>490.275</ele>
        <time>2022-08-24T16:17:14Z</time>
      </trkpt>
      <trkpt lat="42.87209099999988" lon="-1.5704159999999958">
        <ele>490.414</ele>
        <time>2022-08-24T16:17:15Z</time>
      </trkpt>
      <trkpt lat="42.872063999999874" lon="-1.5704249999999957">
        <ele>490.652</ele>
        <time>2022-08-24T16:17:16Z</time>
      </trkpt>
      <trkpt lat="42.87203599999987" lon="-1.5704339999999957">
        <ele>490.853</ele>
        <time>2022-08-24T16:17:17Z</time>
      </trkpt>
      <trkpt lat="42.87201499999988" lon="-1.5704459999999956">
        <ele>490.808</ele>
        <time>2022-08-24T16:17:18Z</time>
      </trkpt>
      <trkpt lat="42.87198299999988" lon="-1.5704629999999955">
        <ele>491.009</ele>
        <time>2022-08-24T16:17:19Z</time>
      </trkpt>
      <trkpt lat="42.87195399999988" lon="-1.5704739999999955">
        <ele>491.256</ele>
        <time>2022-08-24T16:17:20Z</time>
      </trkpt>
      <trkpt lat="42.87193199999988" lon="-1.5704809999999956">
        <ele>491.476</ele>
        <time>2022-08-24T16:17:21Z</time>
      </trkpt>
      <trkpt lat="42.87190399999988" lon="-1.5704879999999957">
        <ele>491.486</ele>
        <time>2022-08-24T16:17:22Z</time>
      </trkpt>
      <trkpt lat="42.87187399999988" lon="-1.5704969999999956">
        <ele>491.832</ele>
        <time>2022-08-24T16:17:23Z</time>
      </trkpt>
      <trkpt lat="42.87184799999988" lon="-1.5705069999999957">
        <ele>491.884</ele>
        <time>2022-08-24T16:17:24Z</time>
      </trkpt>
      <trkpt lat="42.871820999999876" lon="-1.5705169999999957">
        <ele>492.061</ele>
        <time>2022-08-24T16:17:25Z</time>
      </trkpt>
      <trkpt lat="42.87179199999988" lon="-1.5705319999999958">
        <ele>492.034</ele>
        <time>2022-08-24T16:17:26Z</time>
      </trkpt>
      <trkpt lat="42.871764999999876" lon="-1.5705429999999958">
        <ele>492.058</ele>
        <time>2022-08-24T16:17:27Z</time>
      </trkpt>
      <trkpt lat="42.871736999999875" lon="-1.5705549999999957">
        <ele>492.267</ele>
        <time>2022-08-24T16:17:28Z</time>
      </trkpt>
      <trkpt lat="42.87170999999987" lon="-1.5705659999999957">
        <ele>492.413</ele>
        <time>2022-08-24T16:17:29Z</time>
      </trkpt>
      <trkpt lat="42.87168299999987" lon="-1.5705759999999958">
        <ele>492.643</ele>
        <time>2022-08-24T16:17:30Z</time>
      </trkpt>
      <trkpt lat="42.87165799999987" lon="-1.5705909999999959">
        <ele>492.807</ele>
        <time>2022-08-24T16:17:31Z</time>
      </trkpt>
      <trkpt lat="42.871633999999865" lon="-1.5706049999999958">
        <ele>493.009</ele>
        <time>2022-08-24T16:17:32Z</time>
      </trkpt>
      <trkpt lat="42.871608999999864" lon="-1.570619999999996">
        <ele>493.092</ele>
        <time>2022-08-24T16:17:33Z</time>
      </trkpt>
      <trkpt lat="42.871583999999864" lon="-1.570635999999996">
        <ele>493.232</ele>
        <time>2022-08-24T16:17:34Z</time>
      </trkpt>
      <trkpt lat="42.871552999999864" lon="-1.570653999999996">
        <ele>493.262</ele>
        <time>2022-08-24T16:17:35Z</time>
      </trkpt>
      <trkpt lat="42.871526999999865" lon="-1.570667999999996">
        <ele>493.488</ele>
        <time>2022-08-24T16:17:36Z</time>
      </trkpt>
      <trkpt lat="42.87149799999987" lon="-1.570680999999996">
        <ele>493.480</ele>
        <time>2022-08-24T16:17:37Z</time>
      </trkpt>
      <trkpt lat="42.87146999999987" lon="-1.570691999999996">
        <ele>493.697</ele>
        <time>2022-08-24T16:17:38Z</time>
      </trkpt>
      <trkpt lat="42.871445999999864" lon="-1.570699999999996">
        <ele>493.830</ele>
        <time>2022-08-24T16:17:39Z</time>
      </trkpt>
      <trkpt lat="42.87141099999987" lon="-1.570714999999996">
        <ele>494.074</ele>
        <time>2022-08-24T16:17:40Z</time>
      </trkpt>
      <trkpt lat="42.871386999999864" lon="-1.570733999999996">
        <ele>494.033</ele>
        <time>2022-08-24T16:17:41Z</time>
      </trkpt>
      <trkpt lat="42.87136199999986" lon="-1.570750999999996">
        <ele>494.234</ele>
        <time>2022-08-24T16:17:42Z</time>
      </trkpt>
      <trkpt lat="42.87133499999986" lon="-1.570769999999996">
        <ele>494.255</ele>
        <time>2022-08-24T16:17:43Z</time>
      </trkpt>
      <trkpt lat="42.87131199999986" lon="-1.570781999999996">
        <ele>494.410</ele>
        <time>2022-08-24T16:17:44Z</time>
      </trkpt>
      <trkpt lat="42.87128299999986" lon="-1.570796999999996">
        <ele>494.609</ele>
        <time>2022-08-24T16:17:45Z</time>
      </trkpt>
      <trkpt lat="42.871250999999866" lon="-1.570817999999996">
        <ele>494.694</ele>
        <time>2022-08-24T16:17:46Z</time>
      </trkpt>
      <trkpt lat="42.871228999999865" lon="-1.570830999999996">
        <ele>494.894</ele>
        <time>2022-08-24T16:17:47Z</time>
      </trkpt>
      <trkpt lat="42.87119699999987" lon="-1.570847999999996">
        <ele>494.894</ele>
        <time>2022-08-24T16:17:48Z</time>
      </trkpt>
      <trkpt lat="42.871169999999864" lon="-1.570861999999996">
        <ele>495.050</ele>
        <time>2022-08-24T16:17:49Z</time>
      </trkpt>
      <trkpt lat="42.87114799999986" lon="-1.570872999999996">
        <ele>495.032</ele>
        <time>2022-08-24T16:17:50Z</time>
      </trkpt>
      <trkpt lat="42.87111499999986" lon="-1.570893999999996">
        <ele>495.249</ele>
        <time>2022-08-24T16:17:51Z</time>
      </trkpt>
      <trkpt lat="42.87109199999986" lon="-1.570906999999996">
        <ele>495.422</ele>
        <time>2022-08-24T16:17:52Z</time>
      </trkpt>
      <trkpt lat="42.87106499999986" lon="-1.5709249999999961">
        <ele>495.636</ele>
        <time>2022-08-24T16:17:53Z</time>
      </trkpt>
      <trkpt lat="42.87103699999986" lon="-1.5709379999999962">
        <ele>495.855</ele>
        <time>2022-08-24T16:17:54Z</time>
      </trkpt>
      <trkpt lat="42.87101199999986" lon="-1.5709539999999962">
        <ele>495.841</ele>
        <time>2022-08-24T16:17:55Z</time>
      </trkpt>
      <trkpt lat="42.870987999999855" lon="-1.570973999999996">
        <ele>495.881</ele>
        <time>2022-08-24T16:17:56Z</time>
      </trkpt>
      <trkpt lat="42.870962999999854" lon="-1.570990999999996">
        <ele>496.209</ele>
        <time>2022-08-24T16:17:57Z</time>
      </trkpt>
      <trkpt lat="42.870934999999854" lon="-1.571003999999996">
        <ele>496.209</ele>
        <time>2022-08-24T16:17:58Z</time>
      </trkpt>
      <trkpt lat="42.870900999999854" lon="-1.571022999999996">
        <ele>496.465</ele>
        <time>2022-08-24T16:17:59Z</time>
      </trkpt>
      <trkpt lat="42.87087699999985" lon="-1.571034999999996">
        <ele>496.455</ele>
        <time>2022-08-24T16:18:00Z</time>
      </trkpt>
      <trkpt lat="42.87084799999985" lon="-1.571050999999996">
        <ele>496.655</ele>
        <time>2022-08-24T16:18:01Z</time>
      </trkpt>
      <trkpt lat="42.870818999999855" lon="-1.571067999999996">
        <ele>496.651</ele>
        <time>2022-08-24T16:18:02Z</time>
      </trkpt>
      <trkpt lat="42.87078699999986" lon="-1.571091999999996">
        <ele>496.853</ele>
        <time>2022-08-24T16:18:03Z</time>
      </trkpt>
      <trkpt lat="42.87076199999986" lon="-1.5711119999999958">
        <ele>497.040</ele>
        <time>2022-08-24T16:18:04Z</time>
      </trkpt>
      <trkpt lat="42.87074399999986" lon="-1.5711289999999958">
        <ele>497.233</ele>
        <time>2022-08-24T16:18:05Z</time>
      </trkpt>
      <trkpt lat="42.87072099999986" lon="-1.5711509999999957">
        <ele>497.237</ele>
        <time>2022-08-24T16:18:06Z</time>
      </trkpt>
      <trkpt lat="42.87069699999986" lon="-1.5711719999999958">
        <ele>497.436</ele>
        <time>2022-08-24T16:18:07Z</time>
      </trkpt>
      <trkpt lat="42.87067099999986" lon="-1.5711909999999958">
        <ele>497.679</ele>
        <time>2022-08-24T16:18:08Z</time>
      </trkpt>
      <trkpt lat="42.87064399999986" lon="-1.5712089999999959">
        <ele>497.605</ele>
        <time>2022-08-24T16:18:09Z</time>
      </trkpt>
      <trkpt lat="42.870616999999854" lon="-1.5712259999999958">
        <ele>497.825</ele>
        <time>2022-08-24T16:18:10Z</time>
      </trkpt>
      <trkpt lat="42.87058999999985" lon="-1.5712439999999959">
        <ele>497.809</ele>
        <time>2022-08-24T16:18:11Z</time>
      </trkpt>
      <trkpt lat="42.87056399999985" lon="-1.5712599999999959">
        <ele>497.878</ele>
        <time>2022-08-24T16:18:12Z</time>
      </trkpt>
      <trkpt lat="42.87053699999985" lon="-1.5712739999999958">
        <ele>497.828</ele>
        <time>2022-08-24T16:18:13Z</time>
      </trkpt>
      <trkpt lat="42.87051099999985" lon="-1.5712899999999959">
        <ele>498.058</ele>
        <time>2022-08-24T16:18:14Z</time>
      </trkpt>
      <trkpt lat="42.87048799999985" lon="-1.571304999999996">
        <ele>498.024</ele>
        <time>2022-08-24T16:18:15Z</time>
      </trkpt>
      <trkpt lat="42.870466999999856" lon="-1.571320999999996">
        <ele>498.056</ele>
        <time>2022-08-24T16:18:16Z</time>
      </trkpt>
      <trkpt lat="42.87044599999986" lon="-1.571336999999996">
        <ele>498.293</ele>
        <time>2022-08-24T16:18:17Z</time>
      </trkpt>
      <trkpt lat="42.87042299999986" lon="-1.571346999999996">
        <ele>498.256</ele>
        <time>2022-08-24T16:18:18Z</time>
      </trkpt>
      <trkpt lat="42.87039899999986" lon="-1.571355999999996">
        <ele>498.270</ele>
        <time>2022-08-24T16:18:19Z</time>
      </trkpt>
      <trkpt lat="42.87037599999986" lon="-1.5713679999999959">
        <ele>498.439</ele>
        <time>2022-08-24T16:18:20Z</time>
      </trkpt>
      <trkpt lat="42.87035399999986" lon="-1.571380999999996">
        <ele>498.472</ele>
        <time>2022-08-24T16:18:21Z</time>
      </trkpt>
      <trkpt lat="42.87033099999986" lon="-1.5713929999999958">
        <ele>498.613</ele>
        <time>2022-08-24T16:18:22Z</time>
      </trkpt>
      <trkpt lat="42.87030599999986" lon="-1.5714039999999958">
        <ele>498.614</ele>
        <time>2022-08-24T16:18:23Z</time>
      </trkpt>
      <trkpt lat="42.870278999999854" lon="-1.5714129999999957">
        <ele>498.609</ele>
        <time>2022-08-24T16:18:24Z</time>
      </trkpt>
      <trkpt lat="42.87013699999986" lon="-1.5714489999999957">
        <ele>498.818</ele>
        <time>2022-08-24T16:18:29Z</time>
      </trkpt>
      <trkpt lat="42.86982399999986" lon="-1.5714839999999957">
        <ele>498.858</ele>
        <time>2022-08-24T16:18:38Z</time>
      </trkpt>
      <trkpt lat="42.86939999999986" lon="-1.5715019999999957">
        <ele>498.828</ele>
        <time>2022-08-24T16:18:48Z</time>
      </trkpt>
      <trkpt lat="42.868938999999855" lon="-1.5715169999999958">
        <ele>498.464</ele>
        <time>2022-08-24T16:18:57Z</time>
      </trkpt>
      <trkpt lat="42.86856099999986" lon="-1.571569999999996">
        <ele>497.876</ele>
        <time>2022-08-24T16:19:03Z</time>
      </trkpt>
      <trkpt lat="42.86842799999986" lon="-1.5716029999999959">
        <ele>497.483</ele>
        <time>2022-08-24T16:19:05Z</time>
      </trkpt>
      <trkpt lat="42.86815999999986" lon="-1.5716869999999958">
        <ele>496.256</ele>
        <time>2022-08-24T16:19:09Z</time>
      </trkpt>
      <trkpt lat="42.86802299999986" lon="-1.5717349999999959">
        <ele>495.840</ele>
        <time>2022-08-24T16:19:11Z</time>
      </trkpt>
      <trkpt lat="42.867953999999855" lon="-1.5717619999999959">
        <ele>495.299</ele>
        <time>2022-08-24T16:19:12Z</time>
      </trkpt>
      <trkpt lat="42.86766499999985" lon="-1.5718739999999958">
        <ele>494.086</ele>
        <time>2022-08-24T16:19:16Z</time>
      </trkpt>
      <trkpt lat="42.86729499999986" lon="-1.5720229999999957">
        <ele>493.060</ele>
        <time>2022-08-24T16:19:21Z</time>
      </trkpt>
      <trkpt lat="42.86706399999986" lon="-1.5721129999999957">
        <ele>492.026</ele>
        <time>2022-08-24T16:19:24Z</time>
      </trkpt>
      <trkpt lat="42.86675399999986" lon="-1.5722359999999957">
        <ele>491.009</ele>
        <time>2022-08-24T16:19:28Z</time>
      </trkpt>
      <trkpt lat="42.86667799999986" lon="-1.5722669999999956">
        <ele>490.689</ele>
        <time>2022-08-24T16:19:29Z</time>
      </trkpt>
      <trkpt lat="42.86660199999986" lon="-1.5722989999999957">
        <ele>490.459</ele>
        <time>2022-08-24T16:19:30Z</time>
      </trkpt>
      <trkpt lat="42.86645199999986" lon="-1.5723589999999956">
        <ele>489.879</ele>
        <time>2022-08-24T16:19:32Z</time>
      </trkpt>
      <trkpt lat="42.86637599999986" lon="-1.5723889999999956">
        <ele>489.435</ele>
        <time>2022-08-24T16:19:33Z</time>
      </trkpt>
      <trkpt lat="42.86614899999986" lon="-1.5724829999999956">
        <ele>488.877</ele>
        <time>2022-08-24T16:19:36Z</time>
      </trkpt>
      <trkpt lat="42.866073999999855" lon="-1.5725129999999956">
        <ele>488.634</ele>
        <time>2022-08-24T16:19:37Z</time>
      </trkpt>
      <trkpt lat="42.86599999999986" lon="-1.5725419999999957">
        <ele>488.057</ele>
        <time>2022-08-24T16:19:38Z</time>
      </trkpt>
      <trkpt lat="42.865927999999855" lon="-1.5725719999999956">
        <ele>488.071</ele>
        <time>2022-08-24T16:19:39Z</time>
      </trkpt>
      <trkpt lat="42.86563899999985" lon="-1.5726799999999956">
        <ele>486.660</ele>
        <time>2022-08-24T16:19:43Z</time>
      </trkpt>
      <trkpt lat="42.86535299999985" lon="-1.5727739999999957">
        <ele>485.483</ele>
        <time>2022-08-24T16:19:47Z</time>
      </trkpt>
      <trkpt lat="42.86506199999985" lon="-1.5728519999999957">
        <ele>484.425</ele>
        <time>2022-08-24T16:19:51Z</time>
      </trkpt>
      <trkpt lat="42.86498599999985" lon="-1.5728709999999957">
        <ele>484.017</ele>
        <time>2022-08-24T16:19:52Z</time>
      </trkpt>
      <trkpt lat="42.86453399999985" lon="-1.5729699999999958">
        <ele>483.009</ele>
        <time>2022-08-24T16:19:58Z</time>
      </trkpt>
      <trkpt lat="42.86445999999985" lon="-1.5729849999999959">
        <ele>482.889</ele>
        <time>2022-08-24T16:19:59Z</time>
      </trkpt>
      <trkpt lat="42.864368999999854" lon="-1.5730019999999958">
        <ele>482.669</ele>
        <time>2022-08-24T16:20:00Z</time>
      </trkpt>
      <trkpt lat="42.86429399999985" lon="-1.573016999999996">
        <ele>482.659</ele>
        <time>2022-08-24T16:20:01Z</time>
      </trkpt>
      <trkpt lat="42.86422199999985" lon="-1.573034999999996">
        <ele>482.275</ele>
        <time>2022-08-24T16:20:02Z</time>
      </trkpt>
      <trkpt lat="42.86409299999985" lon="-1.573064999999996">
        <ele>482.027</ele>
        <time>2022-08-24T16:20:04Z</time>
      </trkpt>
      <trkpt lat="42.86401099999985" lon="-1.5730819999999959">
        <ele>481.874</ele>
        <time>2022-08-24T16:20:05Z</time>
      </trkpt>
      <trkpt lat="42.86394299999985" lon="-1.573096999999996">
        <ele>481.847</ele>
        <time>2022-08-24T16:20:06Z</time>
      </trkpt>
      <trkpt lat="42.863873999999846" lon="-1.573109999999996">
        <ele>481.661</ele>
        <time>2022-08-24T16:20:07Z</time>
      </trkpt>
      <trkpt lat="42.86380799999985" lon="-1.573121999999996">
        <ele>481.670</ele>
        <time>2022-08-24T16:20:08Z</time>
      </trkpt>
      <trkpt lat="42.86375599999985" lon="-1.573131999999996">
        <ele>481.632</ele>
        <time>2022-08-24T16:20:09Z</time>
      </trkpt>
      <trkpt lat="42.863689999999856" lon="-1.573144999999996">
        <ele>481.692</ele>
        <time>2022-08-24T16:20:10Z</time>
      </trkpt>
      <trkpt lat="42.86362399999986" lon="-1.573157999999996">
        <ele>481.611</ele>
        <time>2022-08-24T16:20:11Z</time>
      </trkpt>
      <trkpt lat="42.86355999999986" lon="-1.573169999999996">
        <ele>481.409</ele>
        <time>2022-08-24T16:20:12Z</time>
      </trkpt>
      <trkpt lat="42.86343599999986" lon="-1.573195999999996">
        <ele>481.464</ele>
        <time>2022-08-24T16:20:14Z</time>
      </trkpt>
      <trkpt lat="42.86337599999986" lon="-1.5732109999999961">
        <ele>481.464</ele>
        <time>2022-08-24T16:20:15Z</time>
      </trkpt>
      <trkpt lat="42.86331999999986" lon="-1.573224999999996">
        <ele>481.424</ele>
        <time>2022-08-24T16:20:16Z</time>
      </trkpt>
      <trkpt lat="42.86326399999986" lon="-1.573238999999996">
        <ele>481.640</ele>
        <time>2022-08-24T16:20:17Z</time>
      </trkpt>
      <trkpt lat="42.86320999999986" lon="-1.5732539999999962">
        <ele>481.692</ele>
        <time>2022-08-24T16:20:18Z</time>
      </trkpt>
      <trkpt lat="42.86315699999986" lon="-1.5732689999999963">
        <ele>481.649</ele>
        <time>2022-08-24T16:20:19Z</time>
      </trkpt>
      <trkpt lat="42.86310599999986" lon="-1.5732819999999963">
        <ele>481.842</ele>
        <time>2022-08-24T16:20:20Z</time>
      </trkpt>
      <trkpt lat="42.86289699999986" lon="-1.5733369999999962">
        <ele>482.246</ele>
        <time>2022-08-24T16:20:24Z</time>
      </trkpt>
      <trkpt lat="42.862844999999865" lon="-1.5733499999999963">
        <ele>482.445</ele>
        <time>2022-08-24T16:20:25Z</time>
      </trkpt>
      <trkpt lat="42.862793999999866" lon="-1.5733669999999962">
        <ele>482.623</ele>
        <time>2022-08-24T16:20:26Z</time>
      </trkpt>
      <trkpt lat="42.86274299999987" lon="-1.5733859999999962">
        <ele>482.883</ele>
        <time>2022-08-24T16:20:27Z</time>
      </trkpt>
      <trkpt lat="42.86269099999987" lon="-1.573402999999996">
        <ele>483.011</ele>
        <time>2022-08-24T16:20:28Z</time>
      </trkpt>
      <trkpt lat="42.86264099999987" lon="-1.573419999999996">
        <ele>483.009</ele>
        <time>2022-08-24T16:20:29Z</time>
      </trkpt>
      <trkpt lat="42.86228799999987" lon="-1.573584999999996">
        <ele>483.673</ele>
        <time>2022-08-24T16:20:36Z</time>
      </trkpt>
      <trkpt lat="42.86180499999987" lon="-1.573869999999996">
        <ele>483.423</ele>
        <time>2022-08-24T16:20:45Z</time>
      </trkpt>
      <trkpt lat="42.86174899999987" lon="-1.5739039999999962">
        <ele>483.483</ele>
        <time>2022-08-24T16:20:46Z</time>
      </trkpt>
      <trkpt lat="42.86130699999987" lon="-1.5742549999999962">
        <ele>482.089</ele>
        <time>2022-08-24T16:20:54Z</time>
      </trkpt>
      <trkpt lat="42.86125099999987" lon="-1.574301999999996">
        <ele>482.081</ele>
        <time>2022-08-24T16:20:55Z</time>
      </trkpt>
      <trkpt lat="42.861195999999865" lon="-1.574345999999996">
        <ele>481.858</ele>
        <time>2022-08-24T16:20:56Z</time>
      </trkpt>
      <trkpt lat="42.86108999999986" lon="-1.574440999999996">
        <ele>481.651</ele>
        <time>2022-08-24T16:20:58Z</time>
      </trkpt>
      <trkpt lat="42.861035999999864" lon="-1.574485999999996">
        <ele>481.415</ele>
        <time>2022-08-24T16:20:59Z</time>
      </trkpt>
      <trkpt lat="42.86086599999987" lon="-1.574601999999996">
        <ele>481.284</ele>
        <time>2022-08-24T16:21:02Z</time>
      </trkpt>
      <trkpt lat="42.86074399999987" lon="-1.5746659999999961">
        <ele>481.027</ele>
        <time>2022-08-24T16:21:04Z</time>
      </trkpt>
      <trkpt lat="42.86035799999987" lon="-1.5748439999999961">
        <ele>480.068</ele>
        <time>2022-08-24T16:21:10Z</time>
      </trkpt>
      <trkpt lat="42.86029099999987" lon="-1.574876999999996">
        <ele>479.814</ele>
        <time>2022-08-24T16:21:11Z</time>
      </trkpt>
      <trkpt lat="42.86016099999987" lon="-1.574960999999996">
        <ele>479.609</ele>
        <time>2022-08-24T16:21:13Z</time>
      </trkpt>
      <trkpt lat="42.86010099999987" lon="-1.575012999999996">
        <ele>479.683</ele>
        <time>2022-08-24T16:21:14Z</time>
      </trkpt>
      <trkpt lat="42.86004499999987" lon="-1.575065999999996">
        <ele>479.023</ele>
        <time>2022-08-24T16:21:15Z</time>
      </trkpt>
      <trkpt lat="42.85999399999987" lon="-1.575120999999996">
        <ele>478.863</ele>
        <time>2022-08-24T16:21:16Z</time>
      </trkpt>
      <trkpt lat="42.85994299999987" lon="-1.575177999999996">
        <ele>478.469</ele>
        <time>2022-08-24T16:21:17Z</time>
      </trkpt>
      <trkpt lat="42.85989299999987" lon="-1.575234999999996">
        <ele>478.081</ele>
        <time>2022-08-24T16:21:18Z</time>
      </trkpt>
      <trkpt lat="42.85979399999987" lon="-1.575355999999996">
        <ele>477.838</ele>
        <time>2022-08-24T16:21:20Z</time>
      </trkpt>
      <trkpt lat="42.859654999999876" lon="-1.575541999999996">
        <ele>477.481</ele>
        <time>2022-08-24T16:21:23Z</time>
      </trkpt>
      <trkpt lat="42.85960899999988" lon="-1.575600999999996">
        <ele>477.275</ele>
        <time>2022-08-24T16:21:24Z</time>
      </trkpt>
      <trkpt lat="42.85956299999988" lon="-1.575660999999996">
        <ele>476.834</ele>
        <time>2022-08-24T16:21:25Z</time>
      </trkpt>
      <trkpt lat="42.85951999999988" lon="-1.575719999999996">
        <ele>476.844</ele>
        <time>2022-08-24T16:21:26Z</time>
      </trkpt>
      <trkpt lat="42.85947799999988" lon="-1.575775999999996">
        <ele>476.605</ele>
        <time>2022-08-24T16:21:27Z</time>
      </trkpt>
      <trkpt lat="42.859434999999884" lon="-1.575827999999996">
        <ele>476.615</ele>
        <time>2022-08-24T16:21:28Z</time>
      </trkpt>
      <trkpt lat="42.85939399999988" lon="-1.575880999999996">
        <ele>476.409</ele>
        <time>2022-08-24T16:21:29Z</time>
      </trkpt>
      <trkpt lat="42.85935399999988" lon="-1.5759289999999961">
        <ele>476.455</ele>
        <time>2022-08-24T16:21:30Z</time>
      </trkpt>
      <trkpt lat="42.859313999999884" lon="-1.575975999999996">
        <ele>476.475</ele>
        <time>2022-08-24T16:21:31Z</time>
      </trkpt>
      <trkpt lat="42.859276999999885" lon="-1.576023999999996">
        <ele>476.485</ele>
        <time>2022-08-24T16:21:32Z</time>
      </trkpt>
      <trkpt lat="42.859240999999884" lon="-1.5760719999999961">
        <ele>476.631</ele>
        <time>2022-08-24T16:21:33Z</time>
      </trkpt>
      <trkpt lat="42.85920499999988" lon="-1.5761179999999961">
        <ele>476.883</ele>
        <time>2022-08-24T16:21:34Z</time>
      </trkpt>
      <trkpt lat="42.85916799999988" lon="-1.5761639999999961">
        <ele>476.850</ele>
        <time>2022-08-24T16:21:35Z</time>
      </trkpt>
      <trkpt lat="42.85913199999988" lon="-1.5762119999999962">
        <ele>476.863</ele>
        <time>2022-08-24T16:21:36Z</time>
      </trkpt>
      <trkpt lat="42.85909599999988" lon="-1.5762609999999961">
        <ele>476.857</ele>
        <time>2022-08-24T16:21:37Z</time>
      </trkpt>
      <trkpt lat="42.85906099999988" lon="-1.5763069999999961">
        <ele>477.056</ele>
        <time>2022-08-24T16:21:38Z</time>
      </trkpt>
      <trkpt lat="42.85902499999988" lon="-1.576350999999996">
        <ele>477.063</ele>
        <time>2022-08-24T16:21:39Z</time>
      </trkpt>
      <trkpt lat="42.858989999999885" lon="-1.576396999999996">
        <ele>477.244</ele>
        <time>2022-08-24T16:21:40Z</time>
      </trkpt>
      <trkpt lat="42.85895499999989" lon="-1.576440999999996">
        <ele>477.218</ele>
        <time>2022-08-24T16:21:41Z</time>
      </trkpt>
      <trkpt lat="42.858921999999886" lon="-1.576483999999996">
        <ele>477.409</ele>
        <time>2022-08-24T16:21:42Z</time>
      </trkpt>
      <trkpt lat="42.85888699999989" lon="-1.576525999999996">
        <ele>477.447</ele>
        <time>2022-08-24T16:21:43Z</time>
      </trkpt>
      <trkpt lat="42.85885299999989" lon="-1.5765679999999962">
        <ele>477.487</ele>
        <time>2022-08-24T16:21:44Z</time>
      </trkpt>
      <trkpt lat="42.85882099999989" lon="-1.5766099999999963">
        <ele>477.447</ele>
        <time>2022-08-24T16:21:45Z</time>
      </trkpt>
      <trkpt lat="42.85879099999989" lon="-1.5766509999999962">
        <ele>477.673</ele>
        <time>2022-08-24T16:21:46Z</time>
      </trkpt>
      <trkpt lat="42.85875899999989" lon="-1.5766909999999963">
        <ele>477.685</ele>
        <time>2022-08-24T16:21:47Z</time>
      </trkpt>
      <trkpt lat="42.85856799999989" lon="-1.5769439999999963">
        <ele>478.022</ele>
        <time>2022-08-24T16:21:53Z</time>
      </trkpt>
      <trkpt lat="42.858535999999894" lon="-1.5769839999999964">
        <ele>478.045</ele>
        <time>2022-08-24T16:21:54Z</time>
      </trkpt>
      <trkpt lat="42.858504999999894" lon="-1.5770239999999964">
        <ele>478.279</ele>
        <time>2022-08-24T16:21:55Z</time>
      </trkpt>
      <trkpt lat="42.85847499999989" lon="-1.5770649999999964">
        <ele>478.298</ele>
        <time>2022-08-24T16:21:56Z</time>
      </trkpt>
      <trkpt lat="42.85837999999989" lon="-1.5771829999999964">
        <ele>478.632</ele>
        <time>2022-08-24T16:21:59Z</time>
      </trkpt>
      <trkpt lat="42.85834999999989" lon="-1.5772259999999965">
        <ele>478.692</ele>
        <time>2022-08-24T16:22:00Z</time>
      </trkpt>
      <trkpt lat="42.858226999999886" lon="-1.5773819999999965">
        <ele>479.011</ele>
        <time>2022-08-24T16:22:04Z</time>
      </trkpt>
      <trkpt lat="42.85819799999989" lon="-1.5774239999999966">
        <ele>479.209</ele>
        <time>2022-08-24T16:22:05Z</time>
      </trkpt>
      <trkpt lat="42.858167999999885" lon="-1.5774629999999965">
        <ele>479.244</ele>
        <time>2022-08-24T16:22:06Z</time>
      </trkpt>
      <trkpt lat="42.85813799999988" lon="-1.5774999999999966">
        <ele>479.474</ele>
        <time>2022-08-24T16:22:07Z</time>
      </trkpt>
      <trkpt lat="42.85810699999988" lon="-1.5775369999999966">
        <ele>479.474</ele>
        <time>2022-08-24T16:22:08Z</time>
      </trkpt>
      <trkpt lat="42.858077999999885" lon="-1.5775739999999967">
        <ele>479.450</ele>
        <time>2022-08-24T16:22:09Z</time>
      </trkpt>
      <trkpt lat="42.85804899999989" lon="-1.5776119999999967">
        <ele>479.672</ele>
        <time>2022-08-24T16:22:10Z</time>
      </trkpt>
      <trkpt lat="42.858021999999885" lon="-1.5776499999999967">
        <ele>479.689</ele>
        <time>2022-08-24T16:22:11Z</time>
      </trkpt>
      <trkpt lat="42.85799199999988" lon="-1.5776859999999966">
        <ele>479.832</ele>
        <time>2022-08-24T16:22:12Z</time>
      </trkpt>
      <trkpt lat="42.85796199999988" lon="-1.5777239999999966">
        <ele>479.876</ele>
        <time>2022-08-24T16:22:13Z</time>
      </trkpt>
      <trkpt lat="42.85793399999988" lon="-1.5777619999999966">
        <ele>480.285</ele>
        <time>2022-08-24T16:22:14Z</time>
      </trkpt>
      <trkpt lat="42.85790599999988" lon="-1.5777969999999966">
        <ele>480.458</ele>
        <time>2022-08-24T16:22:15Z</time>
      </trkpt>
      <trkpt lat="42.85776199999988" lon="-1.5779609999999966">
        <ele>481.052</ele>
        <time>2022-08-24T16:22:20Z</time>
      </trkpt>
      <trkpt lat="42.85773599999988" lon="-1.5779919999999965">
        <ele>481.217</ele>
        <time>2022-08-24T16:22:21Z</time>
      </trkpt>
      <trkpt lat="42.857709999999884" lon="-1.5780269999999965">
        <ele>481.209</ele>
        <time>2022-08-24T16:22:22Z</time>
      </trkpt>
      <trkpt lat="42.857683999999885" lon="-1.5780629999999964">
        <ele>481.256</ele>
        <time>2022-08-24T16:22:23Z</time>
      </trkpt>
      <trkpt lat="42.85765699999988" lon="-1.5780979999999964">
        <ele>481.496</ele>
        <time>2022-08-24T16:22:24Z</time>
      </trkpt>
      <trkpt lat="42.857630999999884" lon="-1.5781339999999964">
        <ele>481.466</ele>
        <time>2022-08-24T16:22:25Z</time>
      </trkpt>
      <trkpt lat="42.85760599999988" lon="-1.5781679999999965">
        <ele>481.842</ele>
        <time>2022-08-24T16:22:26Z</time>
      </trkpt>
      <trkpt lat="42.857579999999885" lon="-1.5782019999999966">
        <ele>482.054</ele>
        <time>2022-08-24T16:22:27Z</time>
      </trkpt>
      <trkpt lat="42.85755299999988" lon="-1.5782369999999966">
        <ele>482.081</ele>
        <time>2022-08-24T16:22:28Z</time>
      </trkpt>
      <trkpt lat="42.857526999999884" lon="-1.5782729999999965">
        <ele>482.234</ele>
        <time>2022-08-24T16:22:29Z</time>
      </trkpt>
      <trkpt lat="42.85749999999988" lon="-1.5783059999999964">
        <ele>482.288</ele>
        <time>2022-08-24T16:22:30Z</time>
      </trkpt>
      <trkpt lat="42.85747199999988" lon="-1.5783369999999963">
        <ele>482.467</ele>
        <time>2022-08-24T16:22:31Z</time>
      </trkpt>
      <trkpt lat="42.85744599999988" lon="-1.5783689999999964">
        <ele>482.458</ele>
        <time>2022-08-24T16:22:32Z</time>
      </trkpt>
      <trkpt lat="42.85742099999988" lon="-1.5784009999999964">
        <ele>482.852</ele>
        <time>2022-08-24T16:22:33Z</time>
      </trkpt>
      <trkpt lat="42.85739599999988" lon="-1.5784359999999964">
        <ele>483.017</ele>
        <time>2022-08-24T16:22:34Z</time>
      </trkpt>
      <trkpt lat="42.85736799999988" lon="-1.5784699999999965">
        <ele>483.009</ele>
        <time>2022-08-24T16:22:35Z</time>
      </trkpt>
      <trkpt lat="42.85733899999988" lon="-1.5785029999999964">
        <ele>483.276</ele>
        <time>2022-08-24T16:22:36Z</time>
      </trkpt>
      <trkpt lat="42.857309999999885" lon="-1.5785359999999964">
        <ele>483.266</ele>
        <time>2022-08-24T16:22:37Z</time>
      </trkpt>
      <trkpt lat="42.857281999999884" lon="-1.5785689999999963">
        <ele>483.456</ele>
        <time>2022-08-24T16:22:38Z</time>
      </trkpt>
      <trkpt lat="42.857253999999884" lon="-1.5786029999999964">
        <ele>483.442</ele>
        <time>2022-08-24T16:22:39Z</time>
      </trkpt>
      <trkpt lat="42.85722599999988" lon="-1.5786349999999965">
        <ele>483.634</ele>
        <time>2022-08-24T16:22:40Z</time>
      </trkpt>
      <trkpt lat="42.857196999999886" lon="-1.5786659999999963">
        <ele>483.641</ele>
        <time>2022-08-24T16:22:41Z</time>
      </trkpt>
      <trkpt lat="42.85716999999988" lon="-1.5787009999999964">
        <ele>483.834</ele>
        <time>2022-08-24T16:22:42Z</time>
      </trkpt>
      <trkpt lat="42.85714299999988" lon="-1.5787359999999964">
        <ele>484.068</ele>
        <time>2022-08-24T16:22:43Z</time>
      </trkpt>
      <trkpt lat="42.85711599999988" lon="-1.5787679999999964">
        <ele>484.247</ele>
        <time>2022-08-24T16:22:44Z</time>
      </trkpt>
      <trkpt lat="42.85708699999988" lon="-1.5787999999999964">
        <ele>484.233</ele>
        <time>2022-08-24T16:22:45Z</time>
      </trkpt>
      <trkpt lat="42.85705699999988" lon="-1.5788329999999964">
        <ele>484.423</ele>
        <time>2022-08-24T16:22:46Z</time>
      </trkpt>
      <trkpt lat="42.85702799999988" lon="-1.5788659999999963">
        <ele>484.415</ele>
        <time>2022-08-24T16:22:47Z</time>
      </trkpt>
      <trkpt lat="42.85699999999988" lon="-1.5788999999999964">
        <ele>484.609</ele>
        <time>2022-08-24T16:22:48Z</time>
      </trkpt>
      <trkpt lat="42.85697199999988" lon="-1.5789319999999964">
        <ele>484.674</ele>
        <time>2022-08-24T16:22:49Z</time>
      </trkpt>
      <trkpt lat="42.85694399999988" lon="-1.5789649999999964">
        <ele>484.884</ele>
        <time>2022-08-24T16:22:50Z</time>
      </trkpt>
      <trkpt lat="42.856916999999875" lon="-1.5789989999999965">
        <ele>484.824</ele>
        <time>2022-08-24T16:22:51Z</time>
      </trkpt>
      <trkpt lat="42.85688999999987" lon="-1.5790339999999965">
        <ele>485.060</ele>
        <time>2022-08-24T16:22:52Z</time>
      </trkpt>
      <trkpt lat="42.856860999999874" lon="-1.5790659999999965">
        <ele>485.032</ele>
        <time>2022-08-24T16:22:53Z</time>
      </trkpt>
      <trkpt lat="42.85683399999987" lon="-1.5790979999999966">
        <ele>485.099</ele>
        <time>2022-08-24T16:22:54Z</time>
      </trkpt>
      <trkpt lat="42.85680499999987" lon="-1.5791329999999966">
        <ele>485.242</ele>
        <time>2022-08-24T16:22:55Z</time>
      </trkpt>
      <trkpt lat="42.856775999999876" lon="-1.5791659999999965">
        <ele>485.496</ele>
        <time>2022-08-24T16:22:56Z</time>
      </trkpt>
      <trkpt lat="42.85674699999988" lon="-1.5791999999999966">
        <ele>485.485</ele>
        <time>2022-08-24T16:22:57Z</time>
      </trkpt>
      <trkpt lat="42.85671799999988" lon="-1.5792329999999966">
        <ele>485.448</ele>
        <time>2022-08-24T16:22:58Z</time>
      </trkpt>
      <trkpt lat="42.85669099999988" lon="-1.5792669999999966">
        <ele>485.861</ele>
        <time>2022-08-24T16:22:59Z</time>
      </trkpt>
      <trkpt lat="42.856663999999874" lon="-1.5793019999999967">
        <ele>485.817</ele>
        <time>2022-08-24T16:23:00Z</time>
      </trkpt>
      <trkpt lat="42.856634999999876" lon="-1.5793369999999967">
        <ele>486.009</ele>
        <time>2022-08-24T16:23:01Z</time>
      </trkpt>
      <trkpt lat="42.856606999999876" lon="-1.5793719999999967">
        <ele>486.055</ele>
        <time>2022-08-24T16:23:02Z</time>
      </trkpt>
      <trkpt lat="42.85657799999988" lon="-1.5794049999999966">
        <ele>486.045</ele>
        <time>2022-08-24T16:23:03Z</time>
      </trkpt>
      <trkpt lat="42.85654999999988" lon="-1.5794399999999966">
        <ele>486.235</ele>
        <time>2022-08-24T16:23:04Z</time>
      </trkpt>
      <trkpt lat="42.85652199999988" lon="-1.5794759999999965">
        <ele>486.271</ele>
        <time>2022-08-24T16:23:05Z</time>
      </trkpt>
      <trkpt lat="42.85649299999988" lon="-1.5795099999999966">
        <ele>486.433</ele>
        <time>2022-08-24T16:23:06Z</time>
      </trkpt>
      <trkpt lat="42.85646399999988" lon="-1.5795449999999966">
        <ele>486.630</ele>
        <time>2022-08-24T16:23:07Z</time>
      </trkpt>
      <trkpt lat="42.856431999999884" lon="-1.5795809999999966">
        <ele>486.633</ele>
        <time>2022-08-24T16:23:08Z</time>
      </trkpt>
      <trkpt lat="42.85640299999989" lon="-1.5796169999999965">
        <ele>486.697</ele>
        <time>2022-08-24T16:23:09Z</time>
      </trkpt>
      <trkpt lat="42.85637399999989" lon="-1.5796509999999966">
        <ele>486.666</ele>
        <time>2022-08-24T16:23:10Z</time>
      </trkpt>
      <trkpt lat="42.85617999999989" lon="-1.5798579999999967">
        <ele>486.845</ele>
        <time>2022-08-24T16:23:16Z</time>
      </trkpt>
      <trkpt lat="42.85614899999989" lon="-1.5798949999999967">
        <ele>486.847</ele>
        <time>2022-08-24T16:23:17Z</time>
      </trkpt>
      <trkpt lat="42.85605299999989" lon="-1.5800079999999967">
        <ele>487.011</ele>
        <time>2022-08-24T16:23:20Z</time>
      </trkpt>
      <trkpt lat="42.85585199999989" lon="-1.5802289999999968">
        <ele>487.009</ele>
        <time>2022-08-24T16:23:26Z</time>
      </trkpt>
      <trkpt lat="42.855712999999895" lon="-1.5803829999999968">
        <ele>487.235</ele>
        <time>2022-08-24T16:23:30Z</time>
      </trkpt>
      <trkpt lat="42.8552559999999" lon="-1.5808779999999967">
        <ele>486.865</ele>
        <time>2022-08-24T16:23:42Z</time>
      </trkpt>
      <trkpt lat="42.8548449999999" lon="-1.5813179999999967">
        <ele>486.065</ele>
        <time>2022-08-24T16:23:51Z</time>
      </trkpt>
      <trkpt lat="42.8546949999999" lon="-1.5814789999999967">
        <ele>485.241</ele>
        <time>2022-08-24T16:23:54Z</time>
      </trkpt>
      <trkpt lat="42.8543729999999" lon="-1.5818179999999968">
        <ele>484.283</ele>
        <time>2022-08-24T16:24:00Z</time>
      </trkpt>
      <trkpt lat="42.854315999999905" lon="-1.5818809999999968">
        <ele>483.870</ele>
        <time>2022-08-24T16:24:01Z</time>
      </trkpt>
      <trkpt lat="42.8541339999999" lon="-1.5820709999999967">
        <ele>483.033</ele>
        <time>2022-08-24T16:24:04Z</time>
      </trkpt>
      <trkpt lat="42.8539399999999" lon="-1.5822769999999966">
        <ele>482.267</ele>
        <time>2022-08-24T16:24:07Z</time>
      </trkpt>
      <trkpt lat="42.8538719999999" lon="-1.5823489999999967">
        <ele>481.836</ele>
        <time>2022-08-24T16:24:08Z</time>
      </trkpt>
      <trkpt lat="42.853803999999904" lon="-1.5824169999999966">
        <ele>481.429</ele>
        <time>2022-08-24T16:24:09Z</time>
      </trkpt>
      <trkpt lat="42.853735999999905" lon="-1.5824829999999965">
        <ele>481.000</ele>
        <time>2022-08-24T16:24:10Z</time>
      </trkpt>
      <trkpt lat="42.85366799999991" lon="-1.5825469999999966">
        <ele>480.420</ele>
        <time>2022-08-24T16:24:11Z</time>
      </trkpt>
      <trkpt lat="42.85360299999991" lon="-1.5826079999999967">
        <ele>480.209</ele>
        <time>2022-08-24T16:24:12Z</time>
      </trkpt>
      <trkpt lat="42.85346499999991" lon="-1.5827249999999966">
        <ele>479.483</ele>
        <time>2022-08-24T16:24:14Z</time>
      </trkpt>
      <trkpt lat="42.853319999999904" lon="-1.5828419999999965">
        <ele>478.243</ele>
        <time>2022-08-24T16:24:16Z</time>
      </trkpt>
      <trkpt lat="42.853164999999905" lon="-1.5829489999999966">
        <ele>476.883</ele>
        <time>2022-08-24T16:24:18Z</time>
      </trkpt>
      <trkpt lat="42.852927999999906" lon="-1.5830929999999965">
        <ele>475.639</ele>
        <time>2022-08-24T16:24:21Z</time>
      </trkpt>
      <trkpt lat="42.8527659999999" lon="-1.5831699999999966">
        <ele>474.261</ele>
        <time>2022-08-24T16:24:23Z</time>
      </trkpt>
      <trkpt lat="42.852683999999904" lon="-1.5832029999999966">
        <ele>474.068</ele>
        <time>2022-08-24T16:24:24Z</time>
      </trkpt>
      <trkpt lat="42.8526029999999" lon="-1.5832359999999965">
        <ele>473.271</ele>
        <time>2022-08-24T16:24:25Z</time>
      </trkpt>
      <trkpt lat="42.8525209999999" lon="-1.5832679999999966">
        <ele>473.045</ele>
        <time>2022-08-24T16:24:26Z</time>
      </trkpt>
      <trkpt lat="42.85244099999991" lon="-1.5832989999999965">
        <ele>472.224</ele>
        <time>2022-08-24T16:24:27Z</time>
      </trkpt>
      <trkpt lat="42.852359999999905" lon="-1.5833279999999965">
        <ele>471.832</ele>
        <time>2022-08-24T16:24:28Z</time>
      </trkpt>
      <trkpt lat="42.852280999999905" lon="-1.5833559999999964">
        <ele>471.292</ele>
        <time>2022-08-24T16:24:29Z</time>
      </trkpt>
      <trkpt lat="42.85220099999991" lon="-1.5833829999999964">
        <ele>470.811</ele>
        <time>2022-08-24T16:24:30Z</time>
      </trkpt>
      <trkpt lat="42.85212299999991" lon="-1.5834109999999963">
        <ele>470.609</ele>
        <time>2022-08-24T16:24:31Z</time>
      </trkpt>
      <trkpt lat="42.85204599999991" lon="-1.5834389999999963">
        <ele>470.244</ele>
        <time>2022-08-24T16:24:32Z</time>
      </trkpt>
      <trkpt lat="42.85196999999991" lon="-1.5834679999999963">
        <ele>470.054</ele>
        <time>2022-08-24T16:24:33Z</time>
      </trkpt>
      <trkpt lat="42.85189499999991" lon="-1.5834969999999964">
        <ele>469.664</ele>
        <time>2022-08-24T16:24:34Z</time>
      </trkpt>
      <trkpt lat="42.851819999999904" lon="-1.5835279999999963">
        <ele>469.420</ele>
        <time>2022-08-24T16:24:35Z</time>
      </trkpt>
      <trkpt lat="42.851746999999904" lon="-1.5835609999999962">
        <ele>469.082</ele>
        <time>2022-08-24T16:24:36Z</time>
      </trkpt>
      <trkpt lat="42.851675999999905" lon="-1.5835929999999963">
        <ele>468.629</ele>
        <time>2022-08-24T16:24:37Z</time>
      </trkpt>
      <trkpt lat="42.851605999999904" lon="-1.5836219999999963">
        <ele>468.482</ele>
        <time>2022-08-24T16:24:38Z</time>
      </trkpt>
      <trkpt lat="42.851534999999906" lon="-1.5836489999999963">
        <ele>468.016</ele>
        <time>2022-08-24T16:24:39Z</time>
      </trkpt>
      <trkpt lat="42.85146699999991" lon="-1.5836759999999963">
        <ele>468.235</ele>
        <time>2022-08-24T16:24:40Z</time>
      </trkpt>
      <trkpt lat="42.851399999999906" lon="-1.5837019999999964">
        <ele>468.035</ele>
        <time>2022-08-24T16:24:41Z</time>
      </trkpt>
      <trkpt lat="42.851335999999904" lon="-1.5837269999999963">
        <ele>467.886</ele>
        <time>2022-08-24T16:24:42Z</time>
      </trkpt>
      <trkpt lat="42.85127299999991" lon="-1.5837509999999964">
        <ele>467.814</ele>
        <time>2022-08-24T16:24:43Z</time>
      </trkpt>
      <trkpt lat="42.851211999999904" lon="-1.5837739999999965">
        <ele>467.609</ele>
        <time>2022-08-24T16:24:44Z</time>
      </trkpt>
      <trkpt lat="42.85115199999991" lon="-1.5837989999999964">
        <ele>467.634</ele>
        <time>2022-08-24T16:24:45Z</time>
      </trkpt>
      <trkpt lat="42.85109499999991" lon="-1.5838239999999963">
        <ele>467.684</ele>
        <time>2022-08-24T16:24:46Z</time>
      </trkpt>
      <trkpt lat="42.85103599999991" lon="-1.5838439999999963">
        <ele>467.454</ele>
        <time>2022-08-24T16:24:47Z</time>
      </trkpt>
      <trkpt lat="42.85097899999991" lon="-1.5838639999999962">
        <ele>467.270</ele>
        <time>2022-08-24T16:24:48Z</time>
      </trkpt>
      <trkpt lat="42.85093299999991" lon="-1.5838769999999962">
        <ele>467.272</ele>
        <time>2022-08-24T16:24:49Z</time>
      </trkpt>
      <trkpt lat="42.85086599999991" lon="-1.5838979999999963">
        <ele>467.249</ele>
        <time>2022-08-24T16:24:50Z</time>
      </trkpt>
      <trkpt lat="42.85080999999991" lon="-1.5839179999999962">
        <ele>467.292</ele>
        <time>2022-08-24T16:24:51Z</time>
      </trkpt>
      <trkpt lat="42.85075699999991" lon="-1.5839369999999962">
        <ele>467.046</ele>
        <time>2022-08-24T16:24:52Z</time>
      </trkpt>
      <trkpt lat="42.850701999999906" lon="-1.5839549999999962">
        <ele>467.055</ele>
        <time>2022-08-24T16:24:53Z</time>
      </trkpt>
      <trkpt lat="42.85064799999991" lon="-1.5839719999999962">
        <ele>467.061</ele>
        <time>2022-08-24T16:24:54Z</time>
      </trkpt>
      <trkpt lat="42.85059599999991" lon="-1.5839869999999963">
        <ele>467.021</ele>
        <time>2022-08-24T16:24:55Z</time>
      </trkpt>
      <trkpt lat="42.85054599999991" lon="-1.5840039999999962">
        <ele>467.013</ele>
        <time>2022-08-24T16:24:56Z</time>
      </trkpt>
      <trkpt lat="42.85049599999991" lon="-1.5840199999999962">
        <ele>467.009</ele>
        <time>2022-08-24T16:24:57Z</time>
      </trkpt>
      <trkpt lat="42.850445999999906" lon="-1.5840349999999963">
        <ele>467.027</ele>
        <time>2022-08-24T16:24:58Z</time>
      </trkpt>
      <trkpt lat="42.8501349999999" lon="-1.5841219999999963">
        <ele>466.487</ele>
        <time>2022-08-24T16:25:04Z</time>
      </trkpt>
      <trkpt lat="42.8498629999999" lon="-1.5841959999999962">
        <ele>466.477</ele>
        <time>2022-08-24T16:25:09Z</time>
      </trkpt>
      <trkpt lat="42.8497539999999" lon="-1.584223999999996">
        <ele>466.283</ele>
        <time>2022-08-24T16:25:11Z</time>
      </trkpt>
      <trkpt lat="42.8497009999999" lon="-1.584237999999996">
        <ele>466.235</ele>
        <time>2022-08-24T16:25:12Z</time>
      </trkpt>
      <trkpt lat="42.8495899999999" lon="-1.5842609999999961">
        <ele>466.242</ele>
        <time>2022-08-24T16:25:14Z</time>
      </trkpt>
      <trkpt lat="42.8495359999999" lon="-1.5842719999999961">
        <ele>466.285</ele>
        <time>2022-08-24T16:25:15Z</time>
      </trkpt>
      <trkpt lat="42.849483999999904" lon="-1.5842819999999962">
        <ele>466.299</ele>
        <time>2022-08-24T16:25:16Z</time>
      </trkpt>
      <trkpt lat="42.84932799999991" lon="-1.584320999999996">
        <ele>466.248</ele>
        <time>2022-08-24T16:25:19Z</time>
      </trkpt>
      <trkpt lat="42.84927599999991" lon="-1.5843339999999961">
        <ele>466.238</ele>
        <time>2022-08-24T16:25:20Z</time>
      </trkpt>
      <trkpt lat="42.84912499999991" lon="-1.5843759999999962">
        <ele>466.470</ele>
        <time>2022-08-24T16:25:23Z</time>
      </trkpt>
      <trkpt lat="42.84907499999991" lon="-1.5843899999999962">
        <ele>466.417</ele>
        <time>2022-08-24T16:25:24Z</time>
      </trkpt>
      <trkpt lat="42.84902599999991" lon="-1.5844049999999963">
        <ele>466.409</ele>
        <time>2022-08-24T16:25:25Z</time>
      </trkpt>
      <trkpt lat="42.84897499999991" lon="-1.5844209999999963">
        <ele>466.644</ele>
        <time>2022-08-24T16:25:26Z</time>
      </trkpt>
      <trkpt lat="42.84892499999991" lon="-1.5844359999999964">
        <ele>466.694</ele>
        <time>2022-08-24T16:25:27Z</time>
      </trkpt>
      <trkpt lat="42.84837899999991" lon="-1.5845939999999965">
        <ele>466.494</ele>
        <time>2022-08-24T16:25:38Z</time>
      </trkpt>
      <trkpt lat="42.84822299999991" lon="-1.5846449999999965">
        <ele>466.440</ele>
        <time>2022-08-24T16:25:41Z</time>
      </trkpt>
      <trkpt lat="42.84806299999991" lon="-1.5847119999999966">
        <ele>466.432</ele>
        <time>2022-08-24T16:25:44Z</time>
      </trkpt>
      <trkpt lat="42.84801199999991" lon="-1.5847339999999965">
        <ele>466.669</ele>
        <time>2022-08-24T16:25:45Z</time>
      </trkpt>
      <trkpt lat="42.84797299999991" lon="-1.5847539999999964">
        <ele>466.662</ele>
        <time>2022-08-24T16:25:46Z</time>
      </trkpt>
      <trkpt lat="42.84791399999991" lon="-1.5847829999999965">
        <ele>466.626</ele>
        <time>2022-08-24T16:25:47Z</time>
      </trkpt>
      <trkpt lat="42.84786599999991" lon="-1.5848069999999965">
        <ele>466.625</ele>
        <time>2022-08-24T16:25:48Z</time>
      </trkpt>
      <trkpt lat="42.84781899999991" lon="-1.5848329999999966">
        <ele>466.668</ele>
        <time>2022-08-24T16:25:49Z</time>
      </trkpt>
      <trkpt lat="42.84776899999991" lon="-1.5848579999999965">
        <ele>466.642</ele>
        <time>2022-08-24T16:25:50Z</time>
      </trkpt>
      <trkpt lat="42.84772099999991" lon="-1.5848819999999966">
        <ele>466.626</ele>
        <time>2022-08-24T16:25:51Z</time>
      </trkpt>
      <trkpt lat="42.84762499999991" lon="-1.5849329999999966">
        <ele>466.609</ele>
        <time>2022-08-24T16:25:53Z</time>
      </trkpt>
      <trkpt lat="42.84757699999991" lon="-1.5849579999999965">
        <ele>466.637</ele>
        <time>2022-08-24T16:25:54Z</time>
      </trkpt>
      <trkpt lat="42.84752899999991" lon="-1.5849829999999965">
        <ele>466.657</ele>
        <time>2022-08-24T16:25:55Z</time>
      </trkpt>
      <trkpt lat="42.84747999999991" lon="-1.5850059999999966">
        <ele>466.437</ele>
        <time>2022-08-24T16:25:56Z</time>
      </trkpt>
      <trkpt lat="42.847385999999915" lon="-1.5850519999999966">
        <ele>466.643</ele>
        <time>2022-08-24T16:25:58Z</time>
      </trkpt>
      <trkpt lat="42.846952999999914" lon="-1.5852569999999966">
        <ele>466.865</ele>
        <time>2022-08-24T16:26:07Z</time>
      </trkpt>
      <trkpt lat="42.846904999999914" lon="-1.5852789999999966">
        <ele>466.822</ele>
        <time>2022-08-24T16:26:08Z</time>
      </trkpt>
      <trkpt lat="42.846856999999915" lon="-1.5852989999999965">
        <ele>466.825</ele>
        <time>2022-08-24T16:26:09Z</time>
      </trkpt>
      <trkpt lat="42.846808999999915" lon="-1.5853179999999965">
        <ele>466.829</ele>
        <time>2022-08-24T16:26:10Z</time>
      </trkpt>
      <trkpt lat="42.846757999999916" lon="-1.5853379999999964">
        <ele>466.878</ele>
        <time>2022-08-24T16:26:11Z</time>
      </trkpt>
      <trkpt lat="42.84641099999992" lon="-1.5854789999999963">
        <ele>467.085</ele>
        <time>2022-08-24T16:26:18Z</time>
      </trkpt>
      <trkpt lat="42.84626199999992" lon="-1.5855369999999962">
        <ele>467.089</ele>
        <time>2022-08-24T16:26:21Z</time>
      </trkpt>
      <trkpt lat="42.84621599999992" lon="-1.5855599999999963">
        <ele>467.017</ele>
        <time>2022-08-24T16:26:22Z</time>
      </trkpt>
      <trkpt lat="42.84616699999992" lon="-1.5855809999999964">
        <ele>467.009</ele>
        <time>2022-08-24T16:26:23Z</time>
      </trkpt>
      <trkpt lat="42.84577299999992" lon="-1.5857579999999964">
        <ele>466.669</ele>
        <time>2022-08-24T16:26:31Z</time>
      </trkpt>
      <trkpt lat="42.845287999999925" lon="-1.5859799999999964">
        <ele>466.279</ele>
        <time>2022-08-24T16:26:40Z</time>
      </trkpt>
      <trkpt lat="42.84505799999992" lon="-1.5860689999999964">
        <ele>466.039</ele>
        <time>2022-08-24T16:26:44Z</time>
      </trkpt>
      <trkpt lat="42.84499999999992" lon="-1.5860919999999965">
        <ele>465.825</ele>
        <time>2022-08-24T16:26:45Z</time>
      </trkpt>
      <trkpt lat="42.84495599999992" lon="-1.5861089999999964">
        <ele>465.877</ele>
        <time>2022-08-24T16:26:46Z</time>
      </trkpt>
      <trkpt lat="42.84488999999992" lon="-1.5861339999999964">
        <ele>465.824</ele>
        <time>2022-08-24T16:26:47Z</time>
      </trkpt>
      <trkpt lat="42.84465199999992" lon="-1.5862169999999964">
        <ele>465.447</ele>
        <time>2022-08-24T16:26:51Z</time>
      </trkpt>
      <trkpt lat="42.84460299999992" lon="-1.5862329999999965">
        <ele>465.241</ele>
        <time>2022-08-24T16:26:52Z</time>
      </trkpt>
      <trkpt lat="42.84453199999992" lon="-1.5862569999999965">
        <ele>465.210</ele>
        <time>2022-08-24T16:26:53Z</time>
      </trkpt>
      <trkpt lat="42.84447399999992" lon="-1.5862779999999965">
        <ele>465.273</ele>
        <time>2022-08-24T16:26:54Z</time>
      </trkpt>
      <trkpt lat="42.84441599999992" lon="-1.5862969999999965">
        <ele>465.285</ele>
        <time>2022-08-24T16:26:55Z</time>
      </trkpt>
      <trkpt lat="42.84435699999992" lon="-1.5863149999999966">
        <ele>465.213</ele>
        <time>2022-08-24T16:26:56Z</time>
      </trkpt>
      <trkpt lat="42.844300999999916" lon="-1.5863339999999966">
        <ele>465.209</ele>
        <time>2022-08-24T16:26:57Z</time>
      </trkpt>
      <trkpt lat="42.84424599999991" lon="-1.5863509999999965">
        <ele>465.248</ele>
        <time>2022-08-24T16:26:58Z</time>
      </trkpt>
      <trkpt lat="42.844135999999914" lon="-1.5863809999999965">
        <ele>465.038</ele>
        <time>2022-08-24T16:27:00Z</time>
      </trkpt>
      <trkpt lat="42.844081999999915" lon="-1.5863939999999965">
        <ele>465.088</ele>
        <time>2022-08-24T16:27:01Z</time>
      </trkpt>
      <trkpt lat="42.84402699999991" lon="-1.5864069999999966">
        <ele>465.054</ele>
        <time>2022-08-24T16:27:02Z</time>
      </trkpt>
      <trkpt lat="42.84397199999991" lon="-1.5864189999999965">
        <ele>465.046</ele>
        <time>2022-08-24T16:27:03Z</time>
      </trkpt>
      <trkpt lat="42.84381199999991" lon="-1.5864569999999965">
        <ele>464.833</ele>
        <time>2022-08-24T16:27:06Z</time>
      </trkpt>
      <trkpt lat="42.843756999999904" lon="-1.5864689999999964">
        <ele>464.656</ele>
        <time>2022-08-24T16:27:07Z</time>
      </trkpt>
      <trkpt lat="42.843651999999906" lon="-1.5864929999999964">
        <ele>464.490</ele>
        <time>2022-08-24T16:27:09Z</time>
      </trkpt>
      <trkpt lat="42.843435999999905" lon="-1.5865259999999963">
        <ele>464.049</ele>
        <time>2022-08-24T16:27:13Z</time>
      </trkpt>
      <trkpt lat="42.843331999999904" lon="-1.5865419999999963">
        <ele>464.041</ele>
        <time>2022-08-24T16:27:15Z</time>
      </trkpt>
      <trkpt lat="42.84327999999991" lon="-1.5865499999999964">
        <ele>464.081</ele>
        <time>2022-08-24T16:27:16Z</time>
      </trkpt>
      <trkpt lat="42.84322599999991" lon="-1.5865579999999964">
        <ele>463.809</ele>
        <time>2022-08-24T16:27:17Z</time>
      </trkpt>
      <trkpt lat="42.84317399999991" lon="-1.5865639999999963">
        <ele>463.809</ele>
        <time>2022-08-24T16:27:18Z</time>
      </trkpt>
      <trkpt lat="42.843121999999916" lon="-1.5865689999999963">
        <ele>463.855</ele>
        <time>2022-08-24T16:27:19Z</time>
      </trkpt>
      <trkpt lat="42.843023999999915" lon="-1.5865849999999964">
        <ele>464.055</ele>
        <time>2022-08-24T16:27:21Z</time>
      </trkpt>
      <trkpt lat="42.842975999999915" lon="-1.5865929999999964">
        <ele>464.065</ele>
        <time>2022-08-24T16:27:22Z</time>
      </trkpt>
      <trkpt lat="42.842924999999916" lon="-1.5866009999999964">
        <ele>464.051</ele>
        <time>2022-08-24T16:27:23Z</time>
      </trkpt>
      <trkpt lat="42.84288699999991" lon="-1.5866079999999965">
        <ele>464.043</ele>
        <time>2022-08-24T16:27:24Z</time>
      </trkpt>
      <trkpt lat="42.84278299999991" lon="-1.5866209999999965">
        <ele>463.850</ele>
        <time>2022-08-24T16:27:26Z</time>
      </trkpt>
      <trkpt lat="42.84273599999991" lon="-1.5866259999999965">
        <ele>463.873</ele>
        <time>2022-08-24T16:27:27Z</time>
      </trkpt>
      <trkpt lat="42.84268899999991" lon="-1.5866329999999966">
        <ele>463.847</ele>
        <time>2022-08-24T16:27:28Z</time>
      </trkpt>
      <trkpt lat="42.84264299999991" lon="-1.5866399999999967">
        <ele>463.616</ele>
        <time>2022-08-24T16:27:29Z</time>
      </trkpt>
      <trkpt lat="42.84259499999991" lon="-1.5866459999999967">
        <ele>463.652</ele>
        <time>2022-08-24T16:27:30Z</time>
      </trkpt>
      <trkpt lat="42.84240699999991" lon="-1.5866669999999967">
        <ele>463.453</ele>
        <time>2022-08-24T16:27:34Z</time>
      </trkpt>
      <trkpt lat="42.84231599999991" lon="-1.5866799999999968">
        <ele>463.408</ele>
        <time>2022-08-24T16:27:36Z</time>
      </trkpt>
      <trkpt lat="42.84208299999991" lon="-1.5867179999999967">
        <ele>463.209</ele>
        <time>2022-08-24T16:27:41Z</time>
      </trkpt>
      <trkpt lat="42.84194299999991" lon="-1.5867379999999967">
        <ele>462.816</ele>
        <time>2022-08-24T16:27:44Z</time>
      </trkpt>
      <trkpt lat="42.84179599999991" lon="-1.5867649999999967">
        <ele>462.836</ele>
        <time>2022-08-24T16:27:47Z</time>
      </trkpt>
      <trkpt lat="42.84174799999991" lon="-1.5867729999999967">
        <ele>462.816</ele>
        <time>2022-08-24T16:27:48Z</time>
      </trkpt>
      <trkpt lat="42.84169999999991" lon="-1.5867779999999967">
        <ele>462.682</ele>
        <time>2022-08-24T16:27:49Z</time>
      </trkpt>
      <trkpt lat="42.84165399999991" lon="-1.5867799999999967">
        <ele>462.634</ele>
        <time>2022-08-24T16:27:50Z</time>
      </trkpt>
      <trkpt lat="42.84126899999991" lon="-1.5868329999999968">
        <ele>462.461</ele>
        <time>2022-08-24T16:27:58Z</time>
      </trkpt>
      <trkpt lat="42.84122099999991" lon="-1.5868419999999968">
        <ele>462.464</ele>
        <time>2022-08-24T16:27:59Z</time>
      </trkpt>
      <trkpt lat="42.841174999999915" lon="-1.5868499999999968">
        <ele>462.458</ele>
        <time>2022-08-24T16:28:00Z</time>
      </trkpt>
      <trkpt lat="42.84112799999991" lon="-1.5868579999999968">
        <ele>462.287</ele>
        <time>2022-08-24T16:28:01Z</time>
      </trkpt>
      <trkpt lat="42.84108099999991" lon="-1.5868689999999968">
        <ele>462.214</ele>
        <time>2022-08-24T16:28:02Z</time>
      </trkpt>
      <trkpt lat="42.84103699999991" lon="-1.5868809999999967">
        <ele>462.254</ele>
        <time>2022-08-24T16:28:03Z</time>
      </trkpt>
      <trkpt lat="42.84099699999991" lon="-1.5868919999999966">
        <ele>462.209</ele>
        <time>2022-08-24T16:28:04Z</time>
      </trkpt>
      <trkpt lat="42.840955999999906" lon="-1.5869029999999966">
        <ele>462.209</ele>
        <time>2022-08-24T16:28:05Z</time>
      </trkpt>
      <trkpt lat="42.84092199999991" lon="-1.5869129999999967">
        <ele>462.232</ele>
        <time>2022-08-24T16:28:06Z</time>
      </trkpt>
      <trkpt lat="42.84089599999991" lon="-1.5869189999999966">
        <ele>462.072</ele>
        <time>2022-08-24T16:28:07Z</time>
      </trkpt>
      <trkpt lat="42.84088499999991" lon="-1.5869199999999966">
        <ele>462.062</ele>
        <time>2022-08-24T16:28:08Z</time>
      </trkpt>
      <trkpt lat="42.84088499999991" lon="-1.5869199999999966">
        <ele>461.878</ele>
        <time>2022-08-24T16:28:09Z</time>
      </trkpt>
      <trkpt lat="42.84088499999991" lon="-1.5869199999999966">
        <ele>461.630</ele>
        <time>2022-08-24T16:28:12Z</time>
      </trkpt>
      <trkpt lat="42.84088499999991" lon="-1.5869199999999966">
        <ele>461.667</ele>
        <time>2022-08-24T16:28:13Z</time>
      </trkpt>
      <trkpt lat="42.84078099999991" lon="-1.5869569999999966">
        <ele>462.470</ele>
        <time>2022-08-24T16:35:35Z</time>
      </trkpt>
      <trkpt lat="42.84075499999991" lon="-1.5869679999999966">
        <ele>462.494</ele>
        <time>2022-08-24T16:35:37Z</time>
      </trkpt>
      <trkpt lat="42.84074999999991" lon="-1.5869769999999965">
        <ele>462.483</ele>
        <time>2022-08-24T16:35:38Z</time>
      </trkpt>
      <trkpt lat="42.84074599999991" lon="-1.5869839999999966">
        <ele>462.625</ele>
        <time>2022-08-24T16:35:39Z</time>
      </trkpt>
      <trkpt lat="42.84074199999991" lon="-1.5869959999999965">
        <ele>462.626</ele>
        <time>2022-08-24T16:35:40Z</time>
      </trkpt>
      <trkpt lat="42.84074199999991" lon="-1.5869959999999965">
        <ele>462.608</ele>
        <time>2022-08-24T16:35:41Z</time>
      </trkpt>
      <trkpt lat="42.84073099999991" lon="-1.5870219999999966">
        <ele>462.409</ele>
        <time>2022-08-24T16:35:42Z</time>
      </trkpt>
      <trkpt lat="42.84070699999991" lon="-1.5870639999999967">
        <ele>462.623</ele>
        <time>2022-08-24T16:35:44Z</time>
      </trkpt>
      <trkpt lat="42.840696999999906" lon="-1.5870839999999966">
        <ele>462.423</ele>
        <time>2022-08-24T16:35:45Z</time>
      </trkpt>
      <trkpt lat="42.84068799999991" lon="-1.5871119999999965">
        <ele>462.443</ele>
        <time>2022-08-24T16:35:47Z</time>
      </trkpt>
      <trkpt lat="42.84068399999991" lon="-1.5871209999999965">
        <ele>462.239</ele>
        <time>2022-08-24T16:35:48Z</time>
      </trkpt>
      <trkpt lat="42.84068499999991" lon="-1.5871309999999965">
        <ele>461.461</ele>
        <time>2022-08-24T16:37:36Z</time>
      </trkpt>
      <trkpt lat="42.840685999999906" lon="-1.5871359999999965">
        <ele>461.438</ele>
        <time>2022-08-24T16:37:37Z</time>
      </trkpt>
      <trkpt lat="42.84062899999991" lon="-1.5872549999999965">
        <ele>461.211</ele>
        <time>2022-08-24T16:37:41Z</time>
      </trkpt>
      <trkpt lat="42.840570999999905" lon="-1.5873369999999964">
        <ele>461.025</ele>
        <time>2022-08-24T16:37:44Z</time>
      </trkpt>
      <trkpt lat="42.840559999999904" lon="-1.5873599999999966">
        <ele>461.274</ele>
        <time>2022-08-24T16:37:45Z</time>
      </trkpt>
      <trkpt lat="42.8405489999999" lon="-1.5873829999999967">
        <ele>461.238</ele>
        <time>2022-08-24T16:37:46Z</time>
      </trkpt>
      <trkpt lat="42.840536999999905" lon="-1.5874049999999966">
        <ele>461.270</ele>
        <time>2022-08-24T16:37:47Z</time>
      </trkpt>
      <trkpt lat="42.84052499999991" lon="-1.5874289999999966">
        <ele>461.217</ele>
        <time>2022-08-24T16:37:48Z</time>
      </trkpt>
      <trkpt lat="42.840415999999905" lon="-1.5875909999999966">
        <ele>460.809</ele>
        <time>2022-08-24T16:37:55Z</time>
      </trkpt>
      <trkpt lat="42.8404029999999" lon="-1.5876119999999967">
        <ele>460.634</ele>
        <time>2022-08-24T16:37:56Z</time>
      </trkpt>
      <trkpt lat="42.8403889999999" lon="-1.5876389999999967">
        <ele>460.464</ele>
        <time>2022-08-24T16:37:57Z</time>
      </trkpt>
      <trkpt lat="42.840370999999905" lon="-1.5876659999999967">
        <ele>460.434</ele>
        <time>2022-08-24T16:37:58Z</time>
      </trkpt>
      <trkpt lat="42.840353999999905" lon="-1.5876879999999967">
        <ele>460.410</ele>
        <time>2022-08-24T16:37:59Z</time>
      </trkpt>
      <trkpt lat="42.8403409999999" lon="-1.5877049999999966">
        <ele>460.452</ele>
        <time>2022-08-24T16:38:00Z</time>
      </trkpt>
      <trkpt lat="42.8402999999999" lon="-1.5877799999999966">
        <ele>460.039</ele>
        <time>2022-08-24T16:38:03Z</time>
      </trkpt>
      <trkpt lat="42.8402829999999" lon="-1.5878039999999967">
        <ele>459.822</ele>
        <time>2022-08-24T16:38:04Z</time>
      </trkpt>
      <trkpt lat="42.8402619999999" lon="-1.5878309999999967">
        <ele>459.856</ele>
        <time>2022-08-24T16:38:05Z</time>
      </trkpt>
      <trkpt lat="42.840218999999905" lon="-1.5878959999999966">
        <ele>459.845</ele>
        <time>2022-08-24T16:38:07Z</time>
      </trkpt>
      <trkpt lat="42.840193999999904" lon="-1.5879539999999965">
        <ele>460.089</ele>
        <time>2022-08-24T16:38:09Z</time>
      </trkpt>
      <trkpt lat="42.8401809999999" lon="-1.5879749999999966">
        <ele>459.806</ele>
        <time>2022-08-24T16:38:10Z</time>
      </trkpt>
      <trkpt lat="42.8401529999999" lon="-1.5880219999999965">
        <ele>460.026</ele>
        <time>2022-08-24T16:38:12Z</time>
      </trkpt>
      <trkpt lat="42.8401029999999" lon="-1.5880989999999966">
        <ele>460.009</ele>
        <time>2022-08-24T16:38:15Z</time>
      </trkpt>
      <trkpt lat="42.8400309999999" lon="-1.5882069999999966">
        <ele>459.689</ele>
        <time>2022-08-24T16:38:19Z</time>
      </trkpt>
      <trkpt lat="42.840003999999894" lon="-1.5882659999999966">
        <ele>459.439</ele>
        <time>2022-08-24T16:38:21Z</time>
      </trkpt>
      <trkpt lat="42.83993099999989" lon="-1.5883959999999966">
        <ele>459.299</ele>
        <time>2022-08-24T16:38:25Z</time>
      </trkpt>
      <trkpt lat="42.839913999999894" lon="-1.5884249999999966">
        <ele>459.455</ele>
        <time>2022-08-24T16:38:26Z</time>
      </trkpt>
      <trkpt lat="42.839890999999895" lon="-1.5884499999999966">
        <ele>459.237</ele>
        <time>2022-08-24T16:38:27Z</time>
      </trkpt>
      <trkpt lat="42.8398649999999" lon="-1.5884729999999967">
        <ele>459.224</ele>
        <time>2022-08-24T16:38:28Z</time>
      </trkpt>
      <trkpt lat="42.8397539999999" lon="-1.5886309999999968">
        <ele>459.217</ele>
        <time>2022-08-24T16:38:33Z</time>
      </trkpt>
      <trkpt lat="42.839729999999896" lon="-1.5886629999999968">
        <ele>459.251</ele>
        <time>2022-08-24T16:38:34Z</time>
      </trkpt>
      <trkpt lat="42.8396759999999" lon="-1.5887259999999968">
        <ele>459.260</ele>
        <time>2022-08-24T16:38:37Z</time>
      </trkpt>
      <trkpt lat="42.8396309999999" lon="-1.5887339999999968">
        <ele>459.238</ele>
        <time>2022-08-24T16:38:38Z</time>
      </trkpt>
      <trkpt lat="42.8395689999999" lon="-1.5887459999999967">
        <ele>459.270</ele>
        <time>2022-08-24T16:38:39Z</time>
      </trkpt>
      <trkpt lat="42.8395089999999" lon="-1.5887689999999968">
        <ele>459.217</ele>
        <time>2022-08-24T16:38:40Z</time>
      </trkpt>
      <trkpt lat="42.8394599999999" lon="-1.5887949999999968">
        <ele>459.209</ele>
        <time>2022-08-24T16:38:41Z</time>
      </trkpt>
      <trkpt lat="42.839419999999905" lon="-1.5888149999999968">
        <ele>459.234</ele>
        <time>2022-08-24T16:38:42Z</time>
      </trkpt>
      <trkpt lat="42.8391559999999" lon="-1.5890049999999967">
        <ele>458.674</ele>
        <time>2022-08-24T16:38:48Z</time>
      </trkpt>
      <trkpt lat="42.8390719999999" lon="-1.5890859999999967">
        <ele>458.064</ele>
        <time>2022-08-24T16:38:50Z</time>
      </trkpt>
      <trkpt lat="42.8388469999999" lon="-1.5892249999999966">
        <ele>457.660</ele>
        <time>2022-08-24T16:38:55Z</time>
      </trkpt>
      <trkpt lat="42.838690999999905" lon="-1.5893509999999966">
        <ele>457.622</ele>
        <time>2022-08-24T16:38:59Z</time>
      </trkpt>
      <trkpt lat="42.838648999999904" lon="-1.5893879999999967">
        <ele>457.679</ele>
        <time>2022-08-24T16:39:00Z</time>
      </trkpt>
      <trkpt lat="42.838605999999906" lon="-1.5894269999999966">
        <ele>457.612</ele>
        <time>2022-08-24T16:39:01Z</time>
      </trkpt>
      <trkpt lat="42.8385679999999" lon="-1.5894639999999967">
        <ele>457.616</ele>
        <time>2022-08-24T16:39:02Z</time>
      </trkpt>
      <trkpt lat="42.8385269999999" lon="-1.5894999999999966">
        <ele>457.465</ele>
        <time>2022-08-24T16:39:03Z</time>
      </trkpt>
      <trkpt lat="42.8382399999999" lon="-1.5897409999999965">
        <ele>457.261</ele>
        <time>2022-08-24T16:39:10Z</time>
      </trkpt>
      <trkpt lat="42.8379859999999" lon="-1.5899569999999965">
        <ele>456.421</ele>
        <time>2022-08-24T16:39:15Z</time>
      </trkpt>
      <trkpt lat="42.8379439999999" lon="-1.5899969999999966">
        <ele>456.213</ele>
        <time>2022-08-24T16:39:16Z</time>
      </trkpt>
      <trkpt lat="42.8379049999999" lon="-1.5900359999999965">
        <ele>456.009</ele>
        <time>2022-08-24T16:39:17Z</time>
      </trkpt>
      <trkpt lat="42.8378699999999" lon="-1.5900739999999964">
        <ele>456.037</ele>
        <time>2022-08-24T16:39:18Z</time>
      </trkpt>
      <trkpt lat="42.837829999999904" lon="-1.5901049999999963">
        <ele>455.847</ele>
        <time>2022-08-24T16:39:19Z</time>
      </trkpt>
      <trkpt lat="42.837786999999906" lon="-1.5901319999999963">
        <ele>455.687</ele>
        <time>2022-08-24T16:39:20Z</time>
      </trkpt>
      <trkpt lat="42.837747999999905" lon="-1.5901589999999963">
        <ele>455.613</ele>
        <time>2022-08-24T16:39:21Z</time>
      </trkpt>
      <trkpt lat="42.837626999999905" lon="-1.5902159999999963">
        <ele>455.695</ele>
        <time>2022-08-24T16:39:24Z</time>
      </trkpt>
      <trkpt lat="42.83752799999991" lon="-1.5902469999999962">
        <ele>455.472</ele>
        <time>2022-08-24T16:39:26Z</time>
      </trkpt>
      <trkpt lat="42.83748199999991" lon="-1.5902619999999963">
        <ele>455.495</ele>
        <time>2022-08-24T16:39:27Z</time>
      </trkpt>
      <trkpt lat="42.83743899999991" lon="-1.5902789999999962">
        <ele>455.449</ele>
        <time>2022-08-24T16:39:28Z</time>
      </trkpt>
      <trkpt lat="42.83735099999991" lon="-1.5903179999999961">
        <ele>455.698</ele>
        <time>2022-08-24T16:39:30Z</time>
      </trkpt>
      <trkpt lat="42.83731199999991" lon="-1.590328999999996">
        <ele>455.646</ele>
        <time>2022-08-24T16:39:31Z</time>
      </trkpt>
      <trkpt lat="42.83727499999991" lon="-1.590334999999996">
        <ele>455.688</ele>
        <time>2022-08-24T16:39:32Z</time>
      </trkpt>
      <trkpt lat="42.83723899999991" lon="-1.5903339999999961">
        <ele>455.816</ele>
        <time>2022-08-24T16:39:33Z</time>
      </trkpt>
      <trkpt lat="42.837203999999915" lon="-1.5903299999999962">
        <ele>455.809</ele>
        <time>2022-08-24T16:39:34Z</time>
      </trkpt>
      <trkpt lat="42.837203999999915" lon="-1.5903299999999962">
        <ele>455.875</ele>
        <time>2022-08-24T16:39:35Z</time>
      </trkpt>
      <trkpt lat="42.837124999999915" lon="-1.5903379999999963">
        <ele>455.815</ele>
        <time>2022-08-24T16:39:36Z</time>
      </trkpt>
      <trkpt lat="42.837124999999915" lon="-1.5903379999999963">
        <ele>455.855</ele>
        <time>2022-08-24T16:39:37Z</time>
      </trkpt>
      <trkpt lat="42.837079999999915" lon="-1.5903459999999963">
        <ele>455.811</ele>
        <time>2022-08-24T16:39:38Z</time>
      </trkpt>
      <trkpt lat="42.83703699999992" lon="-1.5903519999999962">
        <ele>455.833</ele>
        <time>2022-08-24T16:39:39Z</time>
      </trkpt>
      <trkpt lat="42.836995999999914" lon="-1.5903609999999961">
        <ele>455.810</ele>
        <time>2022-08-24T16:39:40Z</time>
      </trkpt>
      <trkpt lat="42.83690699999991" lon="-1.5903709999999962">
        <ele>455.853</ele>
        <time>2022-08-24T16:39:41Z</time>
      </trkpt>
      <trkpt lat="42.836860999999914" lon="-1.5903759999999962">
        <ele>455.637</ele>
        <time>2022-08-24T16:39:42Z</time>
      </trkpt>
      <trkpt lat="42.836817999999916" lon="-1.5903849999999962">
        <ele>455.616</ele>
        <time>2022-08-24T16:39:44Z</time>
      </trkpt>
      <trkpt lat="42.836730999999915" lon="-1.5904059999999962">
        <ele>455.625</ele>
        <time>2022-08-24T16:39:45Z</time>
      </trkpt>
      <trkpt lat="42.83669099999992" lon="-1.5904109999999962">
        <ele>455.626</ele>
        <time>2022-08-24T16:39:46Z</time>
      </trkpt>
      <trkpt lat="42.83669099999992" lon="-1.5904109999999962">
        <ele>455.608</ele>
        <time>2022-08-24T16:39:47Z</time>
      </trkpt>
      <trkpt lat="42.83653599999992" lon="-1.5904069999999964">
        <ele>455.609</ele>
        <time>2022-08-24T16:39:50Z</time>
      </trkpt>
      <trkpt lat="42.83649299999992" lon="-1.5904009999999964">
        <ele>455.663</ele>
        <time>2022-08-24T16:39:51Z</time>
      </trkpt>
      <trkpt lat="42.83644899999992" lon="-1.5903959999999964">
        <ele>455.453</ele>
        <time>2022-08-24T16:39:53Z</time>
      </trkpt>
      <trkpt lat="42.83636899999992" lon="-1.5903769999999964">
        <ele>455.473</ele>
        <time>2022-08-24T16:39:54Z</time>
      </trkpt>
      <trkpt lat="42.83633699999992" lon="-1.5903669999999963">
        <ele>455.429</ele>
        <time>2022-08-24T16:39:55Z</time>
      </trkpt>
      <trkpt lat="42.836183999999925" lon="-1.5903329999999962">
        <ele>455.451</ele>
        <time>2022-08-24T16:39:59Z</time>
      </trkpt>
      <trkpt lat="42.836146999999926" lon="-1.5903289999999963">
        <ele>455.468</ele>
        <time>2022-08-24T16:40:00Z</time>
      </trkpt>
      <trkpt lat="42.83610999999993" lon="-1.5903259999999964">
        <ele>455.491</ele>
        <time>2022-08-24T16:40:01Z</time>
      </trkpt>
      <trkpt lat="42.83607799999993" lon="-1.5903209999999963">
        <ele>455.485</ele>
        <time>2022-08-24T16:40:02Z</time>
      </trkpt>
      <trkpt lat="42.83598499999993" lon="-1.5903009999999964">
        <ele>455.494</ele>
        <time>2022-08-24T16:40:05Z</time>
      </trkpt>
      <trkpt lat="42.83589699999993" lon="-1.5902759999999965">
        <ele>455.621</ele>
        <time>2022-08-24T16:40:07Z</time>
      </trkpt>
      <trkpt lat="42.835861999999935" lon="-1.5902639999999966">
        <ele>455.641</ele>
        <time>2022-08-24T16:40:08Z</time>
      </trkpt>
      <trkpt lat="42.835836999999934" lon="-1.5902589999999965">
        <ele>455.605</ele>
        <time>2022-08-24T16:40:09Z</time>
      </trkpt>
      <trkpt lat="42.835810999999936" lon="-1.5902519999999964">
        <ele>455.809</ele>
        <time>2022-08-24T16:40:10Z</time>
      </trkpt>
      <trkpt lat="42.835788999999934" lon="-1.5902419999999964">
        <ele>455.823</ele>
        <time>2022-08-24T16:40:11Z</time>
      </trkpt>
      <trkpt lat="42.83576699999993" lon="-1.5902299999999965">
        <ele>455.823</ele>
        <time>2022-08-24T16:40:12Z</time>
      </trkpt>
      <trkpt lat="42.83571999999993" lon="-1.5902099999999966">
        <ele>455.853</ele>
        <time>2022-08-24T16:40:15Z</time>
      </trkpt>
      <trkpt lat="42.83556999999993" lon="-1.5901279999999967">
        <ele>455.869</ele>
        <time>2022-08-24T16:40:19Z</time>
      </trkpt>
      <trkpt lat="42.83553699999993" lon="-1.5901069999999966">
        <ele>455.861</ele>
        <time>2022-08-24T16:40:20Z</time>
      </trkpt>
      <trkpt lat="42.83550399999993" lon="-1.5900839999999965">
        <ele>455.678</ele>
        <time>2022-08-24T16:40:21Z</time>
      </trkpt>
      <trkpt lat="42.83547199999993" lon="-1.5900559999999966">
        <ele>455.661</ele>
        <time>2022-08-24T16:40:22Z</time>
      </trkpt>
      <trkpt lat="42.83543599999993" lon="-1.5900289999999966">
        <ele>455.635</ele>
        <time>2022-08-24T16:40:24Z</time>
      </trkpt>
      <trkpt lat="42.83533399999993" lon="-1.5899429999999966">
        <ele>455.464</ele>
        <time>2022-08-24T16:40:26Z</time>
      </trkpt>
      <trkpt lat="42.83533399999993" lon="-1.5899429999999966">
        <ele>455.443</ele>
        <time>2022-08-24T16:40:27Z</time>
      </trkpt>
      <trkpt lat="42.835307999999934" lon="-1.5899019999999966">
        <ele>455.464</ele>
        <time>2022-08-24T16:40:28Z</time>
      </trkpt>
      <trkpt lat="42.83528399999993" lon="-1.5898559999999966">
        <ele>455.210</ele>
        <time>2022-08-24T16:40:29Z</time>
      </trkpt>
      <trkpt lat="42.83525599999993" lon="-1.5898039999999967">
        <ele>455.209</ele>
        <time>2022-08-24T16:40:30Z</time>
      </trkpt>
      <trkpt lat="42.83521199999993" lon="-1.5897169999999967">
        <ele>455.255</ele>
        <time>2022-08-24T16:40:31Z</time>
      </trkpt>
      <trkpt lat="42.83518299999993" lon="-1.5896319999999968">
        <ele>455.045</ele>
        <time>2022-08-24T16:40:33Z</time>
      </trkpt>
      <trkpt lat="42.83507499999993" lon="-1.5894209999999969">
        <ele>455.075</ele>
        <time>2022-08-24T16:40:38Z</time>
      </trkpt>
      <trkpt lat="42.835059999999935" lon="-1.5893829999999969">
        <ele>455.221</ele>
        <time>2022-08-24T16:40:39Z</time>
      </trkpt>
      <trkpt lat="42.835022999999936" lon="-1.5893329999999968">
        <ele>455.223</ele>
        <time>2022-08-24T16:40:40Z</time>
      </trkpt>
      <trkpt lat="42.834986999999934" lon="-1.5892869999999968">
        <ele>455.210</ele>
        <time>2022-08-24T16:40:42Z</time>
      </trkpt>
      <trkpt lat="42.83493399999993" lon="-1.5891899999999968">
        <ele>455.283</ele>
        <time>2022-08-24T16:40:43Z</time>
      </trkpt>
      <trkpt lat="42.834896999999934" lon="-1.5891079999999969">
        <ele>455.437</ele>
        <time>2022-08-24T16:40:45Z</time>
      </trkpt>
      <trkpt lat="42.83485799999993" lon="-1.5890199999999968">
        <ele>455.256</ele>
        <time>2022-08-24T16:40:47Z</time>
      </trkpt>
      <trkpt lat="42.83483399999993" lon="-1.5889769999999968">
        <ele>455.298</ele>
        <time>2022-08-24T16:40:48Z</time>
      </trkpt>
      <trkpt lat="42.83483399999993" lon="-1.5889769999999968">
        <ele>455.215</ele>
        <time>2022-08-24T16:40:49Z</time>
      </trkpt>
      <trkpt lat="42.83479299999993" lon="-1.5888959999999968">
        <ele>455.226</ele>
        <time>2022-08-24T16:40:50Z</time>
      </trkpt>
      <trkpt lat="42.83479299999993" lon="-1.5888959999999968">
        <ele>455.009</ele>
        <time>2022-08-24T16:40:51Z</time>
      </trkpt>
      <trkpt lat="42.83474699999993" lon="-1.5888229999999968">
        <ele>455.080</ele>
        <time>2022-08-24T16:40:52Z</time>
      </trkpt>
      <trkpt lat="42.83472499999993" lon="-1.5887859999999967">
        <ele>455.030</ele>
        <time>2022-08-24T16:40:53Z</time>
      </trkpt>
      <trkpt lat="42.83469899999993" lon="-1.5887459999999967">
        <ele>455.060</ele>
        <time>2022-08-24T16:40:54Z</time>
      </trkpt>
      <trkpt lat="42.83468099999993" lon="-1.5887209999999967">
        <ele>455.086</ele>
        <time>2022-08-24T16:40:55Z</time>
      </trkpt>
      <trkpt lat="42.83465699999993" lon="-1.5886909999999967">
        <ele>455.068</ele>
        <time>2022-08-24T16:40:56Z</time>
      </trkpt>
      <trkpt lat="42.83463399999993" lon="-1.5886579999999968">
        <ele>455.045</ele>
        <time>2022-08-24T16:40:57Z</time>
      </trkpt>
      <trkpt lat="42.83458499999993" lon="-1.5885779999999967">
        <ele>454.848</ele>
        <time>2022-08-24T16:40:59Z</time>
      </trkpt>
      <trkpt lat="42.834507999999936" lon="-1.5884709999999966">
        <ele>454.822</ele>
        <time>2022-08-24T16:41:02Z</time>
      </trkpt>
      <trkpt lat="42.834378999999934" lon="-1.5883039999999966">
        <ele>454.481</ele>
        <time>2022-08-24T16:41:06Z</time>
      </trkpt>
      <trkpt lat="42.834307999999936" lon="-1.5881819999999967">
        <ele>454.069</ele>
        <time>2022-08-24T16:41:08Z</time>
      </trkpt>
      <trkpt lat="42.834279999999936" lon="-1.5881249999999967">
        <ele>453.804</ele>
        <time>2022-08-24T16:41:09Z</time>
      </trkpt>
      <trkpt lat="42.83425399999994" lon="-1.5880739999999967">
        <ele>453.624</ele>
        <time>2022-08-24T16:41:10Z</time>
      </trkpt>
      <trkpt lat="42.83422799999994" lon="-1.5880229999999966">
        <ele>453.609</ele>
        <time>2022-08-24T16:41:11Z</time>
      </trkpt>
      <trkpt lat="42.83422799999994" lon="-1.5880229999999966">
        <ele>453.487</ele>
        <time>2022-08-24T16:41:12Z</time>
      </trkpt>
      <trkpt lat="42.83420299999994" lon="-1.5879749999999966">
        <ele>453.477</ele>
        <time>2022-08-24T16:41:13Z</time>
      </trkpt>
      <trkpt lat="42.83416399999994" lon="-1.5878929999999967">
        <ele>453.467</ele>
        <time>2022-08-24T16:41:14Z</time>
      </trkpt>
      <trkpt lat="42.83416399999994" lon="-1.5878929999999967">
        <ele>453.433</ele>
        <time>2022-08-24T16:41:15Z</time>
      </trkpt>
      <trkpt lat="42.83414599999994" lon="-1.5878499999999967">
        <ele>453.465</ele>
        <time>2022-08-24T16:41:16Z</time>
      </trkpt>
      <trkpt lat="42.83412399999994" lon="-1.5878069999999966">
        <ele>453.492</ele>
        <time>2022-08-24T16:41:17Z</time>
      </trkpt>
      <trkpt lat="42.834079999999936" lon="-1.5877249999999967">
        <ele>453.435</ele>
        <time>2022-08-24T16:41:18Z</time>
      </trkpt>
      <trkpt lat="42.834060999999934" lon="-1.5876899999999967">
        <ele>453.489</ele>
        <time>2022-08-24T16:41:20Z</time>
      </trkpt>
      <trkpt lat="42.83402599999994" lon="-1.5876189999999968">
        <ele>453.478</ele>
        <time>2022-08-24T16:41:21Z</time>
      </trkpt>
      <trkpt lat="42.83400599999994" lon="-1.5875819999999967">
        <ele>453.466</ele>
        <time>2022-08-24T16:41:22Z</time>
      </trkpt>
      <trkpt lat="42.83398399999994" lon="-1.5875459999999968">
        <ele>453.429</ele>
        <time>2022-08-24T16:41:23Z</time>
      </trkpt>
      <trkpt lat="42.83396999999994" lon="-1.5875199999999967">
        <ele>453.221</ele>
        <time>2022-08-24T16:41:24Z</time>
      </trkpt>
      <trkpt lat="42.833958999999936" lon="-1.5874959999999967">
        <ele>453.209</ele>
        <time>2022-08-24T16:41:25Z</time>
      </trkpt>
      <trkpt lat="42.833947999999936" lon="-1.5874739999999967">
        <ele>453.427</ele>
        <time>2022-08-24T16:41:26Z</time>
      </trkpt>
      <trkpt lat="42.83393599999994" lon="-1.5874539999999968">
        <ele>453.427</ele>
        <time>2022-08-24T16:41:27Z</time>
      </trkpt>
      <trkpt lat="42.833925999999934" lon="-1.5874399999999969">
        <ele>453.457</ele>
        <time>2022-08-24T16:41:28Z</time>
      </trkpt>
      <trkpt lat="42.833911999999934" lon="-1.5874209999999969">
        <ele>453.483</ele>
        <time>2022-08-24T16:41:29Z</time>
      </trkpt>
      <trkpt lat="42.833902999999935" lon="-1.5874019999999969">
        <ele>453.485</ele>
        <time>2022-08-24T16:41:30Z</time>
      </trkpt>
      <trkpt lat="42.833877999999935" lon="-1.587368999999997">
        <ele>453.412</ele>
        <time>2022-08-24T16:41:32Z</time>
      </trkpt>
      <trkpt lat="42.83386799999993" lon="-1.587352999999997">
        <ele>453.225</ele>
        <time>2022-08-24T16:41:37Z</time>
      </trkpt>
      <trkpt lat="42.83382999999993" lon="-1.587306999999997">
        <ele>453.289</ele>
        <time>2022-08-24T16:41:40Z</time>
      </trkpt>
      <trkpt lat="42.83380699999993" lon="-1.587289999999997">
        <ele>453.068</ele>
        <time>2022-08-24T16:41:41Z</time>
      </trkpt>
      <trkpt lat="42.83368899999993" lon="-1.587194999999997">
        <ele>452.685</ele>
        <time>2022-08-24T16:41:45Z</time>
      </trkpt>
      <trkpt lat="42.83360099999993" lon="-1.587062999999997">
        <ele>452.489</ele>
        <time>2022-08-24T16:41:48Z</time>
      </trkpt>
      <trkpt lat="42.83357799999993" lon="-1.587017999999997">
        <ele>452.417</ele>
        <time>2022-08-24T16:41:49Z</time>
      </trkpt>
      <trkpt lat="42.83357799999993" lon="-1.587017999999997">
        <ele>452.209</ele>
        <time>2022-08-24T16:41:50Z</time>
      </trkpt>
      <trkpt lat="42.83349699999993" lon="-1.586873999999997">
        <ele>452.279</ele>
        <time>2022-08-24T16:41:52Z</time>
      </trkpt>
      <trkpt lat="42.83347299999993" lon="-1.586829999999997">
        <ele>452.089</ele>
        <time>2022-08-24T16:41:53Z</time>
      </trkpt>
      <trkpt lat="42.83344999999993" lon="-1.5867889999999971">
        <ele>452.069</ele>
        <time>2022-08-24T16:41:54Z</time>
      </trkpt>
      <trkpt lat="42.83342799999993" lon="-1.586740999999997">
        <ele>452.035</ele>
        <time>2022-08-24T16:41:55Z</time>
      </trkpt>
      <trkpt lat="42.83341099999993" lon="-1.586700999999997">
        <ele>452.057</ele>
        <time>2022-08-24T16:41:56Z</time>
      </trkpt>
      <trkpt lat="42.833394999999925" lon="-1.586664999999997">
        <ele>451.824</ele>
        <time>2022-08-24T16:41:57Z</time>
      </trkpt>
      <trkpt lat="42.833371999999926" lon="-1.586613999999997">
        <ele>451.867</ele>
        <time>2022-08-24T16:41:58Z</time>
      </trkpt>
      <trkpt lat="42.83335399999993" lon="-1.586565999999997">
        <ele>451.861</ele>
        <time>2022-08-24T16:41:59Z</time>
      </trkpt>
      <trkpt lat="42.83334699999993" lon="-1.586523999999997">
        <ele>452.030</ele>
        <time>2022-08-24T16:42:00Z</time>
      </trkpt>
      <trkpt lat="42.83334099999993" lon="-1.586482999999997">
        <ele>452.014</ele>
        <time>2022-08-24T16:42:01Z</time>
      </trkpt>
      <trkpt lat="42.833336999999936" lon="-1.586452999999997">
        <ele>452.054</ele>
        <time>2022-08-24T16:42:02Z</time>
      </trkpt>
      <trkpt lat="42.83333399999994" lon="-1.586423999999997">
        <ele>452.209</ele>
        <time>2022-08-24T16:42:03Z</time>
      </trkpt>
      <trkpt lat="42.833323999999934" lon="-1.586399999999997">
        <ele>452.409</ele>
        <time>2022-08-24T16:42:04Z</time>
      </trkpt>
      <trkpt lat="42.833317999999935" lon="-1.586375999999997">
        <ele>452.672</ele>
        <time>2022-08-24T16:42:05Z</time>
      </trkpt>
      <trkpt lat="42.83329599999993" lon="-1.586355999999997">
        <ele>452.872</ele>
        <time>2022-08-24T16:42:06Z</time>
      </trkpt>
      <trkpt lat="42.833275999999934" lon="-1.586348999999997">
        <ele>453.032</ele>
        <time>2022-08-24T16:42:07Z</time>
      </trkpt>
      <trkpt lat="42.83323499999993" lon="-1.586334999999997">
        <ele>453.438</ele>
        <time>2022-08-24T16:42:09Z</time>
      </trkpt>
      <trkpt lat="42.83321199999993" lon="-1.586329999999997">
        <ele>453.620</ele>
        <time>2022-08-24T16:42:10Z</time>
      </trkpt>
      <trkpt lat="42.83318699999993" lon="-1.586329999999997">
        <ele>453.657</ele>
        <time>2022-08-24T16:42:11Z</time>
      </trkpt>
      <trkpt lat="42.83312799999993" lon="-1.586328999999997">
        <ele>453.840</ele>
        <time>2022-08-24T16:42:13Z</time>
      </trkpt>
      <trkpt lat="42.83310299999993" lon="-1.586323999999997">
        <ele>453.824</ele>
        <time>2022-08-24T16:42:14Z</time>
      </trkpt>
      <trkpt lat="42.83308099999993" lon="-1.586317999999997">
        <ele>453.863</ele>
        <time>2022-08-24T16:42:15Z</time>
      </trkpt>
      <trkpt lat="42.83305799999993" lon="-1.586310999999997">
        <ele>453.847</ele>
        <time>2022-08-24T16:42:16Z</time>
      </trkpt>
      <trkpt lat="42.83303999999993" lon="-1.586302999999997">
        <ele>453.829</ele>
        <time>2022-08-24T16:42:17Z</time>
      </trkpt>
      <trkpt lat="42.83303999999993" lon="-1.586302999999997">
        <ele>453.821</ele>
        <time>2022-08-24T16:42:18Z</time>
      </trkpt>
      <trkpt lat="42.83300699999993" lon="-1.586286999999997">
        <ele>453.609</ele>
        <time>2022-08-24T16:42:19Z</time>
      </trkpt>
      <trkpt lat="42.83298699999993" lon="-1.5862789999999969">
        <ele>453.635</ele>
        <time>2022-08-24T16:42:20Z</time>
      </trkpt>
      <trkpt lat="42.832926999999934" lon="-1.586242999999997">
        <ele>453.445</ele>
        <time>2022-08-24T16:42:24Z</time>
      </trkpt>
      <trkpt lat="42.832821999999936" lon="-1.586184999999997">
        <ele>453.285</ele>
        <time>2022-08-24T16:42:27Z</time>
      </trkpt>
      <trkpt lat="42.832650999999935" lon="-1.5860979999999971">
        <ele>453.061</ele>
        <time>2022-08-24T16:42:33Z</time>
      </trkpt>
      <trkpt lat="42.83261199999993" lon="-1.586095999999997">
        <ele>452.863</ele>
        <time>2022-08-24T16:42:34Z</time>
      </trkpt>
      <trkpt lat="42.83257599999993" lon="-1.586107999999997">
        <ele>452.680</ele>
        <time>2022-08-24T16:42:35Z</time>
      </trkpt>
      <trkpt lat="42.832523999999935" lon="-1.5861659999999969">
        <ele>452.433</ele>
        <time>2022-08-24T16:42:36Z</time>
      </trkpt>
      <trkpt lat="42.832509999999935" lon="-1.5862089999999969">
        <ele>452.287</ele>
        <time>2022-08-24T16:42:37Z</time>
      </trkpt>
      <trkpt lat="42.832509999999935" lon="-1.5862089999999969">
        <ele>452.236</ele>
        <time>2022-08-24T16:42:38Z</time>
      </trkpt>
      <trkpt lat="42.832501999999934" lon="-1.586253999999997">
        <ele>452.045</ele>
        <time>2022-08-24T16:42:39Z</time>
      </trkpt>
      <trkpt lat="42.83249399999993" lon="-1.586337999999997">
        <ele>452.047</ele>
        <time>2022-08-24T16:42:40Z</time>
      </trkpt>
      <trkpt lat="42.83249099999993" lon="-1.586367999999997">
        <ele>451.811</ele>
        <time>2022-08-24T16:42:41Z</time>
      </trkpt>
      <trkpt lat="42.83249099999993" lon="-1.5863799999999968">
        <ele>451.409</ele>
        <time>2022-08-24T16:42:43Z</time>
      </trkpt>
      <trkpt lat="42.83249099999993" lon="-1.5863799999999968">
        <ele>451.285</ele>
        <time>2022-08-24T16:42:44Z</time>
      </trkpt>
      <trkpt lat="42.832475999999936" lon="-1.5863879999999968">
        <ele>451.255</ele>
        <time>2022-08-24T16:42:45Z</time>
      </trkpt>
      <trkpt lat="42.832467999999935" lon="-1.5864079999999967">
        <ele>451.025</ele>
        <time>2022-08-24T16:42:46Z</time>
      </trkpt>
      <trkpt lat="42.832467999999935" lon="-1.5864079999999967">
        <ele>451.071</ele>
        <time>2022-08-24T16:42:47Z</time>
      </trkpt>
      <trkpt lat="42.83245599999994" lon="-1.5864869999999966">
        <ele>450.893</ele>
        <time>2022-08-24T16:42:48Z</time>
      </trkpt>
      <trkpt lat="42.83244899999994" lon="-1.5865399999999967">
        <ele>450.830</ele>
        <time>2022-08-24T16:42:50Z</time>
      </trkpt>
      <trkpt lat="42.83241499999994" lon="-1.5868569999999966">
        <ele>450.693</ele>
        <time>2022-08-24T16:42:55Z</time>
      </trkpt>
      <trkpt lat="42.83240599999994" lon="-1.5869189999999966">
        <ele>450.647</ele>
        <time>2022-08-24T16:42:56Z</time>
      </trkpt>
      <trkpt lat="42.83239299999994" lon="-1.5870299999999966">
        <ele>450.626</ele>
        <time>2022-08-24T16:42:57Z</time>
      </trkpt>
      <trkpt lat="42.83238499999994" lon="-1.5870709999999966">
        <ele>450.466</ele>
        <time>2022-08-24T16:42:58Z</time>
      </trkpt>
      <trkpt lat="42.83238499999994" lon="-1.5870709999999966">
        <ele>450.429</ele>
        <time>2022-08-24T16:42:59Z</time>
      </trkpt>
      <trkpt lat="42.83238199999994" lon="-1.5871059999999966">
        <ele>450.421</ele>
        <time>2022-08-24T16:43:00Z</time>
      </trkpt>
      <trkpt lat="42.832365999999936" lon="-1.5871559999999967">
        <ele>450.209</ele>
        <time>2022-08-24T16:43:01Z</time>
      </trkpt>
      <trkpt lat="42.832363999999934" lon="-1.5871729999999966">
        <ele>450.287</ele>
        <time>2022-08-24T16:43:02Z</time>
      </trkpt>
      <trkpt lat="42.832343999999935" lon="-1.5871489999999966">
        <ele>449.887</ele>
        <time>2022-08-24T16:43:15Z</time>
      </trkpt>
      <trkpt lat="42.832332999999934" lon="-1.5871409999999966">
        <ele>449.857</ele>
        <time>2022-08-24T16:43:16Z</time>
      </trkpt>
      <trkpt lat="42.83231099999993" lon="-1.5871269999999966">
        <ele>449.833</ele>
        <time>2022-08-24T16:43:17Z</time>
      </trkpt>
      <trkpt lat="42.832309999999936" lon="-1.5871109999999966">
        <ele>449.825</ele>
        <time>2022-08-24T16:43:18Z</time>
      </trkpt>
      <trkpt lat="42.832315999999935" lon="-1.5870859999999967">
        <ele>449.842</ele>
        <time>2022-08-24T16:43:19Z</time>
      </trkpt>
      <trkpt lat="42.832320999999936" lon="-1.5870529999999967">
        <ele>449.895</ele>
        <time>2022-08-24T16:43:21Z</time>
      </trkpt>
      <trkpt lat="42.83233699999994" lon="-1.5869949999999968">
        <ele>449.879</ele>
        <time>2022-08-24T16:43:22Z</time>
      </trkpt>
      <trkpt lat="42.83233899999994" lon="-1.5869759999999968">
        <ele>449.868</ele>
        <time>2022-08-24T16:43:23Z</time>
      </trkpt>
      <trkpt lat="42.83233899999994" lon="-1.5869649999999969">
        <ele>449.897</ele>
        <time>2022-08-24T16:43:24Z</time>
      </trkpt>
      <trkpt lat="42.83233899999994" lon="-1.5869649999999969">
        <ele>449.823</ele>
        <time>2022-08-24T16:43:25Z</time>
      </trkpt>
      <trkpt lat="42.83233799999994" lon="-1.5869579999999968">
        <ele>449.825</ele>
        <time>2022-08-24T16:43:26Z</time>
      </trkpt>
      <trkpt lat="42.83233799999994" lon="-1.5869579999999968">
        <ele>449.809</ele>
        <time>2022-08-24T16:43:27Z</time>
      </trkpt>
      <trkpt lat="42.83232399999994" lon="-1.5869529999999967">
        <ele>449.880</ele>
        <time>2022-08-24T16:43:28Z</time>
      </trkpt>
      <trkpt lat="42.83232399999994" lon="-1.5869529999999967">
        <ele>449.830</ele>
        <time>2022-08-24T16:43:29Z</time>
      </trkpt>
      <trkpt lat="42.832289999999944" lon="-1.5869319999999967">
        <ele>449.810</ele>
        <time>2022-08-24T16:43:30Z</time>
      </trkpt>
      <trkpt lat="42.832289999999944" lon="-1.5869319999999967">
        <ele>449.656</ele>
        <time>2022-08-24T16:43:31Z</time>
      </trkpt>
      <trkpt lat="42.83216099999994" lon="-1.5868559999999967">
        <ele>449.678</ele>
        <time>2022-08-24T16:43:33Z</time>
      </trkpt>
      <trkpt lat="42.83211599999994" lon="-1.5868249999999968">
        <ele>449.245</ele>
        <time>2022-08-24T16:43:34Z</time>
      </trkpt>
      <trkpt lat="42.83207499999994" lon="-1.5867929999999968">
        <ele>449.258</ele>
        <time>2022-08-24T16:43:35Z</time>
      </trkpt>
      <trkpt lat="42.83207499999994" lon="-1.5867929999999968">
        <ele>448.852</ele>
        <time>2022-08-24T16:43:36Z</time>
      </trkpt>
      <trkpt lat="42.83203599999994" lon="-1.586761999999997">
        <ele>448.641</ele>
        <time>2022-08-24T16:43:37Z</time>
      </trkpt>
      <trkpt lat="42.83196599999994" lon="-1.5867089999999968">
        <ele>448.464</ele>
        <time>2022-08-24T16:43:38Z</time>
      </trkpt>
      <trkpt lat="42.831910999999934" lon="-1.5866599999999969">
        <ele>448.206</ele>
        <time>2022-08-24T16:43:40Z</time>
      </trkpt>
      <trkpt lat="42.831910999999934" lon="-1.5866599999999969">
        <ele>448.016</ele>
        <time>2022-08-24T16:43:41Z</time>
      </trkpt>
      <trkpt lat="42.83187599999994" lon="-1.5866339999999968">
        <ele>447.809</ele>
        <time>2022-08-24T16:43:42Z</time>
      </trkpt>
      <trkpt lat="42.83181999999994" lon="-1.5865909999999968">
        <ele>447.887</ele>
        <time>2022-08-24T16:43:43Z</time>
      </trkpt>
      <trkpt lat="42.83178599999994" lon="-1.5865699999999967">
        <ele>447.637</ele>
        <time>2022-08-24T16:43:44Z</time>
      </trkpt>
      <trkpt lat="42.83172399999994" lon="-1.5865299999999967">
        <ele>447.637</ele>
        <time>2022-08-24T16:43:46Z</time>
      </trkpt>
      <trkpt lat="42.83169199999994" lon="-1.5865059999999966">
        <ele>447.623</ele>
        <time>2022-08-24T16:43:48Z</time>
      </trkpt>
      <trkpt lat="42.83162799999994" lon="-1.5864609999999966">
        <ele>447.425</ele>
        <time>2022-08-24T16:43:50Z</time>
      </trkpt>
      <trkpt lat="42.83156799999994" lon="-1.5864109999999965">
        <ele>447.632</ele>
        <time>2022-08-24T16:43:51Z</time>
      </trkpt>
      <trkpt lat="42.83153199999994" lon="-1.5863839999999965">
        <ele>447.415</ele>
        <time>2022-08-24T16:43:53Z</time>
      </trkpt>
      <trkpt lat="42.83143799999994" lon="-1.5863269999999965">
        <ele>447.489</ele>
        <time>2022-08-24T16:43:54Z</time>
      </trkpt>
      <trkpt lat="42.83121299999994" lon="-1.5861909999999966">
        <ele>447.078</ele>
        <time>2022-08-24T16:43:59Z</time>
      </trkpt>
      <trkpt lat="42.83116499999994" lon="-1.5861669999999966">
        <ele>446.884</ele>
        <time>2022-08-24T16:44:00Z</time>
      </trkpt>
      <trkpt lat="42.831121999999944" lon="-1.5861479999999966">
        <ele>446.807</ele>
        <time>2022-08-24T16:44:01Z</time>
      </trkpt>
      <trkpt lat="42.83107799999994" lon="-1.5861299999999965">
        <ele>446.617</ele>
        <time>2022-08-24T16:44:02Z</time>
      </trkpt>
      <trkpt lat="42.83107799999994" lon="-1.5861299999999965">
        <ele>446.609</ele>
        <time>2022-08-24T16:44:03Z</time>
      </trkpt>
      <trkpt lat="42.83081899999994" lon="-1.5860189999999965">
        <ele>446.629</ele>
        <time>2022-08-24T16:44:09Z</time>
      </trkpt>
      <trkpt lat="42.83074399999994" lon="-1.5859979999999965">
        <ele>446.679</ele>
        <time>2022-08-24T16:44:10Z</time>
      </trkpt>
      <trkpt lat="42.83070799999994" lon="-1.5859879999999964">
        <ele>446.659</ele>
        <time>2022-08-24T16:44:11Z</time>
      </trkpt>
      <trkpt lat="42.83066799999994" lon="-1.5859749999999964">
        <ele>446.635</ele>
        <time>2022-08-24T16:44:13Z</time>
      </trkpt>
      <trkpt lat="42.83050799999994" lon="-1.5859149999999964">
        <ele>446.697</ele>
        <time>2022-08-24T16:44:16Z</time>
      </trkpt>
      <trkpt lat="42.83050799999994" lon="-1.5859149999999964">
        <ele>446.674</ele>
        <time>2022-08-24T16:44:17Z</time>
      </trkpt>
      <trkpt lat="42.830438999999934" lon="-1.5858859999999964">
        <ele>446.687</ele>
        <time>2022-08-24T16:44:18Z</time>
      </trkpt>
      <trkpt lat="42.830373999999935" lon="-1.5858579999999964">
        <ele>446.621</ele>
        <time>2022-08-24T16:44:20Z</time>
      </trkpt>
      <trkpt lat="42.830216999999934" lon="-1.5858199999999965">
        <ele>446.610</ele>
        <time>2022-08-24T16:44:25Z</time>
      </trkpt>
      <trkpt lat="42.830140999999934" lon="-1.5857939999999964">
        <ele>446.627</ele>
        <time>2022-08-24T16:44:26Z</time>
      </trkpt>
      <trkpt lat="42.830106999999934" lon="-1.5857839999999963">
        <ele>446.668</ele>
        <time>2022-08-24T16:44:27Z</time>
      </trkpt>
      <trkpt lat="42.83007399999993" lon="-1.5857679999999963">
        <ele>446.614</ele>
        <time>2022-08-24T16:44:28Z</time>
      </trkpt>
      <trkpt lat="42.82996999999993" lon="-1.5857079999999963">
        <ele>446.609</ele>
        <time>2022-08-24T16:44:31Z</time>
      </trkpt>
      <trkpt lat="42.82993699999993" lon="-1.5856919999999963">
        <ele>446.633</ele>
        <time>2022-08-24T16:44:32Z</time>
      </trkpt>
      <trkpt lat="42.82990299999993" lon="-1.5856789999999963">
        <ele>446.663</ele>
        <time>2022-08-24T16:44:33Z</time>
      </trkpt>
      <trkpt lat="42.82990299999993" lon="-1.5856789999999963">
        <ele>446.613</ele>
        <time>2022-08-24T16:44:34Z</time>
      </trkpt>
      <trkpt lat="42.82980699999993" lon="-1.5856419999999962">
        <ele>446.629</ele>
        <time>2022-08-24T16:44:36Z</time>
      </trkpt>
      <trkpt lat="42.82971999999993" lon="-1.5856219999999963">
        <ele>446.621</ele>
        <time>2022-08-24T16:44:38Z</time>
      </trkpt>
      <trkpt lat="42.82964099999993" lon="-1.5855899999999963">
        <ele>446.648</ele>
        <time>2022-08-24T16:44:40Z</time>
      </trkpt>
      <trkpt lat="42.829605999999934" lon="-1.5855769999999962">
        <ele>446.681</ele>
        <time>2022-08-24T16:44:41Z</time>
      </trkpt>
      <trkpt lat="42.82956199999993" lon="-1.5855619999999961">
        <ele>446.645</ele>
        <time>2022-08-24T16:44:42Z</time>
      </trkpt>
      <trkpt lat="42.82951699999993" lon="-1.5855479999999962">
        <ele>446.664</ele>
        <time>2022-08-24T16:44:43Z</time>
      </trkpt>
      <trkpt lat="42.82942399999993" lon="-1.5855269999999961">
        <ele>446.479</ele>
        <time>2022-08-24T16:44:46Z</time>
      </trkpt>
      <trkpt lat="42.82932399999993" lon="-1.5855149999999962">
        <ele>446.405</ele>
        <time>2022-08-24T16:44:47Z</time>
      </trkpt>
      <trkpt lat="42.82921899999993" lon="-1.5855249999999963">
        <ele>446.225</ele>
        <time>2022-08-24T16:44:49Z</time>
      </trkpt>
      <trkpt lat="42.82921899999993" lon="-1.5855249999999963">
        <ele>446.209</ele>
        <time>2022-08-24T16:44:50Z</time>
      </trkpt>
      <trkpt lat="42.829155999999934" lon="-1.5855249999999963">
        <ele>446.238</ele>
        <time>2022-08-24T16:44:51Z</time>
      </trkpt>
      <trkpt lat="42.829067999999936" lon="-1.5855249999999963">
        <ele>446.228</ele>
        <time>2022-08-24T16:44:52Z</time>
      </trkpt>
      <trkpt lat="42.829025999999935" lon="-1.5855319999999964">
        <ele>446.068</ele>
        <time>2022-08-24T16:44:53Z</time>
      </trkpt>
      <trkpt lat="42.829025999999935" lon="-1.5855319999999964">
        <ele>446.024</ele>
        <time>2022-08-24T16:44:54Z</time>
      </trkpt>
      <trkpt lat="42.828955999999934" lon="-1.5855639999999964">
        <ele>446.046</ele>
        <time>2022-08-24T16:44:55Z</time>
      </trkpt>
      <trkpt lat="42.828955999999934" lon="-1.5855639999999964">
        <ele>445.853</ele>
        <time>2022-08-24T16:44:56Z</time>
      </trkpt>
      <trkpt lat="42.82883099999994" lon="-1.5855999999999963">
        <ele>445.836</ele>
        <time>2022-08-24T16:44:58Z</time>
      </trkpt>
      <trkpt lat="42.82874099999994" lon="-1.5856499999999965">
        <ele>445.670</ele>
        <time>2022-08-24T16:45:00Z</time>
      </trkpt>
      <trkpt lat="42.82848499999994" lon="-1.5857529999999964">
        <ele>445.289</ele>
        <time>2022-08-24T16:45:05Z</time>
      </trkpt>
      <trkpt lat="42.82834099999994" lon="-1.5858089999999965">
        <ele>445.051</ele>
        <time>2022-08-24T16:45:08Z</time>
      </trkpt>
      <trkpt lat="42.828293999999936" lon="-1.5858259999999964">
        <ele>445.001</ele>
        <time>2022-08-24T16:45:09Z</time>
      </trkpt>
      <trkpt lat="42.82808499999994" lon="-1.5858929999999964">
        <ele>445.011</ele>
        <time>2022-08-24T16:45:13Z</time>
      </trkpt>
      <trkpt lat="42.828031999999936" lon="-1.5859079999999965">
        <ele>445.009</ele>
        <time>2022-08-24T16:45:14Z</time>
      </trkpt>
      <trkpt lat="42.82798099999994" lon="-1.5859239999999966">
        <ele>445.096</ele>
        <time>2022-08-24T16:45:15Z</time>
      </trkpt>
      <trkpt lat="42.82792899999994" lon="-1.5859369999999966">
        <ele>445.036</ele>
        <time>2022-08-24T16:45:16Z</time>
      </trkpt>
      <trkpt lat="42.82788399999994" lon="-1.5859529999999966">
        <ele>444.826</ele>
        <time>2022-08-24T16:45:17Z</time>
      </trkpt>
      <trkpt lat="42.82774099999994" lon="-1.5860299999999967">
        <ele>444.652</ele>
        <time>2022-08-24T16:45:20Z</time>
      </trkpt>
      <trkpt lat="42.82769099999994" lon="-1.5860579999999966">
        <ele>444.644</ele>
        <time>2022-08-24T16:45:21Z</time>
      </trkpt>
      <trkpt lat="42.82764299999994" lon="-1.5860849999999966">
        <ele>444.651</ele>
        <time>2022-08-24T16:45:22Z</time>
      </trkpt>
      <trkpt lat="42.827595999999936" lon="-1.5861089999999967">
        <ele>444.694</ele>
        <time>2022-08-24T16:45:23Z</time>
      </trkpt>
      <trkpt lat="42.82733399999994" lon="-1.5862309999999966">
        <ele>444.458</ele>
        <time>2022-08-24T16:45:28Z</time>
      </trkpt>
      <trkpt lat="42.827229999999936" lon="-1.5862779999999965">
        <ele>444.677</ele>
        <time>2022-08-24T16:45:30Z</time>
      </trkpt>
      <trkpt lat="42.827187999999936" lon="-1.5862969999999965">
        <ele>444.647</ele>
        <time>2022-08-24T16:45:31Z</time>
      </trkpt>
      <trkpt lat="42.82708499999993" lon="-1.5863489999999965">
        <ele>444.629</ele>
        <time>2022-08-24T16:45:33Z</time>
      </trkpt>
      <trkpt lat="42.827032999999936" lon="-1.5863789999999964">
        <ele>444.621</ele>
        <time>2022-08-24T16:45:34Z</time>
      </trkpt>
      <trkpt lat="42.826985999999934" lon="-1.5864129999999965">
        <ele>444.609</ele>
        <time>2022-08-24T16:45:35Z</time>
      </trkpt>
      <trkpt lat="42.82694199999993" lon="-1.5864499999999966">
        <ele>444.615</ele>
        <time>2022-08-24T16:45:36Z</time>
      </trkpt>
      <trkpt lat="42.82689899999993" lon="-1.5864839999999967">
        <ele>444.625</ele>
        <time>2022-08-24T16:45:37Z</time>
      </trkpt>
      <trkpt lat="42.82685999999993" lon="-1.5865169999999966">
        <ele>444.655</ele>
        <time>2022-08-24T16:45:38Z</time>
      </trkpt>
      <trkpt lat="42.82682199999993" lon="-1.5865459999999967">
        <ele>444.691</ele>
        <time>2022-08-24T16:45:39Z</time>
      </trkpt>
      <trkpt lat="42.82678199999993" lon="-1.5865669999999967">
        <ele>444.653</ele>
        <time>2022-08-24T16:45:40Z</time>
      </trkpt>
      <trkpt lat="42.82674199999993" lon="-1.5865869999999966">
        <ele>444.630</ele>
        <time>2022-08-24T16:45:41Z</time>
      </trkpt>
      <trkpt lat="42.82670599999993" lon="-1.5866119999999966">
        <ele>444.673</ele>
        <time>2022-08-24T16:45:42Z</time>
      </trkpt>
      <trkpt lat="42.82666899999993" lon="-1.5866409999999966">
        <ele>444.667</ele>
        <time>2022-08-24T16:45:43Z</time>
      </trkpt>
      <trkpt lat="42.82663199999993" lon="-1.5866729999999967">
        <ele>444.656</ele>
        <time>2022-08-24T16:45:44Z</time>
      </trkpt>
      <trkpt lat="42.82656799999993" lon="-1.5867399999999967">
        <ele>444.483</ele>
        <time>2022-08-24T16:45:46Z</time>
      </trkpt>
      <trkpt lat="42.82652999999993" lon="-1.5868459999999966">
        <ele>444.225</ele>
        <time>2022-08-24T16:45:48Z</time>
      </trkpt>
      <trkpt lat="42.826516999999924" lon="-1.5868989999999967">
        <ele>444.217</ele>
        <time>2022-08-24T16:45:49Z</time>
      </trkpt>
      <trkpt lat="42.82650899999992" lon="-1.5869539999999966">
        <ele>444.009</ele>
        <time>2022-08-24T16:45:50Z</time>
      </trkpt>
      <trkpt lat="42.826504999999926" lon="-1.5870099999999967">
        <ele>444.039</ele>
        <time>2022-08-24T16:45:51Z</time>
      </trkpt>
      <trkpt lat="42.826499999999925" lon="-1.5870669999999967">
        <ele>444.049</ele>
        <time>2022-08-24T16:45:52Z</time>
      </trkpt>
      <trkpt lat="42.826491999999924" lon="-1.5871189999999966">
        <ele>444.049</ele>
        <time>2022-08-24T16:45:53Z</time>
      </trkpt>
      <trkpt lat="42.82648799999993" lon="-1.5871709999999966">
        <ele>443.875</ele>
        <time>2022-08-24T16:45:54Z</time>
      </trkpt>
      <trkpt lat="42.82648199999993" lon="-1.5872209999999967">
        <ele>443.857</ele>
        <time>2022-08-24T16:45:55Z</time>
      </trkpt>
      <trkpt lat="42.826476999999926" lon="-1.5872729999999966">
        <ele>443.834</ele>
        <time>2022-08-24T16:45:56Z</time>
      </trkpt>
      <trkpt lat="42.826471999999924" lon="-1.5873199999999965">
        <ele>443.857</ele>
        <time>2022-08-24T16:45:57Z</time>
      </trkpt>
      <trkpt lat="42.826459999999926" lon="-1.5875279999999965">
        <ele>443.831</ele>
        <time>2022-08-24T16:46:01Z</time>
      </trkpt>
      <trkpt lat="42.826451999999925" lon="-1.5875769999999965">
        <ele>443.820</ele>
        <time>2022-08-24T16:46:02Z</time>
      </trkpt>
      <trkpt lat="42.826440999999924" lon="-1.5876229999999965">
        <ele>444.032</ele>
        <time>2022-08-24T16:46:03Z</time>
      </trkpt>
      <trkpt lat="42.82642799999992" lon="-1.5876669999999964">
        <ele>444.092</ele>
        <time>2022-08-24T16:46:04Z</time>
      </trkpt>
      <trkpt lat="42.826415999999924" lon="-1.5877109999999963">
        <ele>444.011</ele>
        <time>2022-08-24T16:46:05Z</time>
      </trkpt>
      <trkpt lat="42.82640299999992" lon="-1.5877509999999964">
        <ele>444.009</ele>
        <time>2022-08-24T16:46:06Z</time>
      </trkpt>
      <trkpt lat="42.82638799999992" lon="-1.5877879999999964">
        <ele>444.024</ele>
        <time>2022-08-24T16:46:07Z</time>
      </trkpt>
      <trkpt lat="42.82637499999992" lon="-1.5878239999999963">
        <ele>444.084</ele>
        <time>2022-08-24T16:46:08Z</time>
      </trkpt>
      <trkpt lat="42.82636399999992" lon="-1.5878619999999963">
        <ele>444.044</ele>
        <time>2022-08-24T16:46:09Z</time>
      </trkpt>
      <trkpt lat="42.82635299999992" lon="-1.5878959999999964">
        <ele>444.070</ele>
        <time>2022-08-24T16:46:10Z</time>
      </trkpt>
      <trkpt lat="42.82634199999992" lon="-1.5879289999999964">
        <ele>444.032</ele>
        <time>2022-08-24T16:46:11Z</time>
      </trkpt>
      <trkpt lat="42.82632099999992" lon="-1.5879979999999965">
        <ele>444.099</ele>
        <time>2022-08-24T16:46:13Z</time>
      </trkpt>
      <trkpt lat="42.82630699999992" lon="-1.5880289999999964">
        <ele>444.022</ele>
        <time>2022-08-24T16:46:14Z</time>
      </trkpt>
      <trkpt lat="42.826209999999925" lon="-1.5882259999999964">
        <ele>444.026</ele>
        <time>2022-08-24T16:46:20Z</time>
      </trkpt>
      <trkpt lat="42.82618299999992" lon="-1.5882899999999964">
        <ele>443.825</ele>
        <time>2022-08-24T16:46:22Z</time>
      </trkpt>
      <trkpt lat="42.826167999999925" lon="-1.5883159999999965">
        <ele>443.884</ele>
        <time>2022-08-24T16:46:23Z</time>
      </trkpt>
      <trkpt lat="42.82614999999993" lon="-1.5883439999999964">
        <ele>443.807</ele>
        <time>2022-08-24T16:46:24Z</time>
      </trkpt>
      <trkpt lat="42.82613299999993" lon="-1.5883699999999965">
        <ele>443.617</ele>
        <time>2022-08-24T16:46:25Z</time>
      </trkpt>
      <trkpt lat="42.826116999999925" lon="-1.5883959999999966">
        <ele>443.609</ele>
        <time>2022-08-24T16:46:26Z</time>
      </trkpt>
      <trkpt lat="42.82607399999993" lon="-1.5884789999999966">
        <ele>443.669</ele>
        <time>2022-08-24T16:46:29Z</time>
      </trkpt>
      <trkpt lat="42.826065999999926" lon="-1.5884929999999966">
        <ele>443.659</ele>
        <time>2022-08-24T16:46:30Z</time>
      </trkpt>
      <trkpt lat="42.82606199999993" lon="-1.5884999999999967">
        <ele>443.099</ele>
        <time>2022-08-24T16:48:33Z</time>
      </trkpt>
      <trkpt lat="42.82599699999993" lon="-1.5886229999999968">
        <ele>443.045</ele>
        <time>2022-08-24T16:48:38Z</time>
      </trkpt>
      <trkpt lat="42.82591099999993" lon="-1.5888119999999968">
        <ele>443.037</ele>
        <time>2022-08-24T16:48:43Z</time>
      </trkpt>
      <trkpt lat="42.825899999999926" lon="-1.5888489999999968">
        <ele>443.044</ele>
        <time>2022-08-24T16:48:44Z</time>
      </trkpt>
      <trkpt lat="42.82588499999993" lon="-1.588882999999997">
        <ele>443.067</ele>
        <time>2022-08-24T16:48:45Z</time>
      </trkpt>
      <trkpt lat="42.82586499999993" lon="-1.588916999999997">
        <ele>443.051</ele>
        <time>2022-08-24T16:48:46Z</time>
      </trkpt>
      <trkpt lat="42.82583899999993" lon="-1.588941999999997">
        <ele>443.210</ele>
        <time>2022-08-24T16:48:47Z</time>
      </trkpt>
      <trkpt lat="42.82581499999993" lon="-1.588963999999997">
        <ele>443.283</ele>
        <time>2022-08-24T16:48:48Z</time>
      </trkpt>
      <trkpt lat="42.825790999999924" lon="-1.588978999999997">
        <ele>443.225</ele>
        <time>2022-08-24T16:48:49Z</time>
      </trkpt>
      <trkpt lat="42.82576399999992" lon="-1.588990999999997">
        <ele>443.217</ele>
        <time>2022-08-24T16:48:50Z</time>
      </trkpt>
      <trkpt lat="42.825731999999924" lon="-1.589000999999997">
        <ele>443.209</ele>
        <time>2022-08-24T16:48:51Z</time>
      </trkpt>
      <trkpt lat="42.825697999999925" lon="-1.589015999999997">
        <ele>443.429</ele>
        <time>2022-08-24T16:48:52Z</time>
      </trkpt>
      <trkpt lat="42.825660999999926" lon="-1.5890339999999972">
        <ele>443.429</ele>
        <time>2022-08-24T16:48:53Z</time>
      </trkpt>
      <trkpt lat="42.825587999999925" lon="-1.5890639999999971">
        <ele>443.479</ele>
        <time>2022-08-24T16:48:55Z</time>
      </trkpt>
      <trkpt lat="42.825550999999926" lon="-1.589072999999997">
        <ele>443.425</ele>
        <time>2022-08-24T16:48:56Z</time>
      </trkpt>
      <trkpt lat="42.82551599999993" lon="-1.589083999999997">
        <ele>443.457</ele>
        <time>2022-08-24T16:48:57Z</time>
      </trkpt>
      <trkpt lat="42.82548499999993" lon="-1.5890989999999972">
        <ele>443.494</ele>
        <time>2022-08-24T16:48:58Z</time>
      </trkpt>
      <trkpt lat="42.82545199999993" lon="-1.5891179999999971">
        <ele>443.457</ele>
        <time>2022-08-24T16:48:59Z</time>
      </trkpt>
      <trkpt lat="42.82529899999993" lon="-1.5891929999999972">
        <ele>443.261</ele>
        <time>2022-08-24T16:49:03Z</time>
      </trkpt>
      <trkpt lat="42.82526199999993" lon="-1.5892099999999971">
        <ele>443.210</ele>
        <time>2022-08-24T16:49:04Z</time>
      </trkpt>
      <trkpt lat="42.82519099999993" lon="-1.589242999999997">
        <ele>443.288</ele>
        <time>2022-08-24T16:49:06Z</time>
      </trkpt>
      <trkpt lat="42.82515799999993" lon="-1.589261999999997">
        <ele>443.224</ele>
        <time>2022-08-24T16:49:07Z</time>
      </trkpt>
      <trkpt lat="42.82512899999993" lon="-1.5892879999999971">
        <ele>443.226</ele>
        <time>2022-08-24T16:49:08Z</time>
      </trkpt>
      <trkpt lat="42.825105999999934" lon="-1.5893219999999972">
        <ele>443.009</ele>
        <time>2022-08-24T16:49:09Z</time>
      </trkpt>
      <trkpt lat="42.82508999999993" lon="-1.5893609999999971">
        <ele>443.069</ele>
        <time>2022-08-24T16:49:10Z</time>
      </trkpt>
      <trkpt lat="42.82507599999993" lon="-1.589401999999997">
        <ele>443.019</ele>
        <time>2022-08-24T16:49:11Z</time>
      </trkpt>
      <trkpt lat="42.82506299999993" lon="-1.5894419999999971">
        <ele>442.839</ele>
        <time>2022-08-24T16:49:12Z</time>
      </trkpt>
      <trkpt lat="42.82504399999993" lon="-1.5894839999999972">
        <ele>442.815</ele>
        <time>2022-08-24T16:49:13Z</time>
      </trkpt>
      <trkpt lat="42.82502299999993" lon="-1.5895249999999972">
        <ele>442.887</ele>
        <time>2022-08-24T16:49:14Z</time>
      </trkpt>
      <trkpt lat="42.82498999999993" lon="-1.589609999999997">
        <ele>442.664</ele>
        <time>2022-08-24T16:49:16Z</time>
      </trkpt>
      <trkpt lat="42.824973999999926" lon="-1.589652999999997">
        <ele>442.647</ele>
        <time>2022-08-24T16:49:17Z</time>
      </trkpt>
      <trkpt lat="42.82495699999993" lon="-1.589688999999997">
        <ele>442.651</ele>
        <time>2022-08-24T16:49:18Z</time>
      </trkpt>
      <trkpt lat="42.82493899999993" lon="-1.589716999999997">
        <ele>442.630</ele>
        <time>2022-08-24T16:49:19Z</time>
      </trkpt>
      <trkpt lat="42.82492399999993" lon="-1.589739999999997">
        <ele>442.653</ele>
        <time>2022-08-24T16:49:20Z</time>
      </trkpt>
      <trkpt lat="42.824908999999934" lon="-1.589753999999997">
        <ele>442.604</ele>
        <time>2022-08-24T16:49:21Z</time>
      </trkpt>
      <trkpt lat="42.82489399999994" lon="-1.589761999999997">
        <ele>442.614</ele>
        <time>2022-08-24T16:49:22Z</time>
      </trkpt>
      <trkpt lat="42.82487699999994" lon="-1.589764999999997">
        <ele>442.409</ele>
        <time>2022-08-24T16:49:23Z</time>
      </trkpt>
      <trkpt lat="42.824860999999935" lon="-1.589759999999997">
        <ele>442.436</ele>
        <time>2022-08-24T16:49:24Z</time>
      </trkpt>
      <trkpt lat="42.824837999999936" lon="-1.5897369999999968">
        <ele>442.496</ele>
        <time>2022-08-24T16:49:26Z</time>
      </trkpt>
      <trkpt lat="42.824823999999936" lon="-1.5897269999999968">
        <ele>442.476</ele>
        <time>2022-08-24T16:49:27Z</time>
      </trkpt>
      <trkpt lat="42.82480899999994" lon="-1.5897179999999969">
        <ele>442.452</ele>
        <time>2022-08-24T16:49:28Z</time>
      </trkpt>
      <trkpt lat="42.82477299999994" lon="-1.5896969999999968">
        <ele>442.434</ele>
        <time>2022-08-24T16:49:30Z</time>
      </trkpt>
      <trkpt lat="42.82475599999994" lon="-1.5896889999999968">
        <ele>442.471</ele>
        <time>2022-08-24T16:49:31Z</time>
      </trkpt>
      <trkpt lat="42.824727999999936" lon="-1.5896679999999968">
        <ele>442.464</ele>
        <time>2022-08-24T16:49:33Z</time>
      </trkpt>
      <trkpt lat="42.82471899999994" lon="-1.5896529999999967">
        <ele>442.468</ele>
        <time>2022-08-24T16:49:34Z</time>
      </trkpt>
      <trkpt lat="42.82473299999994" lon="-1.5896109999999966">
        <ele>442.657</ele>
        <time>2022-08-24T16:49:37Z</time>
      </trkpt>
      <trkpt lat="42.82474199999994" lon="-1.5896069999999967">
        <ele>442.863</ele>
        <time>2022-08-24T16:49:38Z</time>
      </trkpt>
      <trkpt lat="42.82475199999994" lon="-1.5896099999999966">
        <ele>442.844</ele>
        <time>2022-08-24T16:49:39Z</time>
      </trkpt>
      <trkpt lat="42.82480299999994" lon="-1.5896839999999965">
        <ele>442.618</ele>
        <time>2022-08-24T16:49:43Z</time>
      </trkpt>
      <trkpt lat="42.82483699999994" lon="-1.5897219999999965">
        <ele>442.609</ele>
        <time>2022-08-24T16:49:45Z</time>
      </trkpt>
      <trkpt lat="42.82485099999994" lon="-1.5897429999999966">
        <ele>442.457</ele>
        <time>2022-08-24T16:49:46Z</time>
      </trkpt>
      <trkpt lat="42.82485999999994" lon="-1.5897649999999965">
        <ele>442.447</ele>
        <time>2022-08-24T16:49:47Z</time>
      </trkpt>
      <trkpt lat="42.82486499999994" lon="-1.5897879999999966">
        <ele>442.477</ele>
        <time>2022-08-24T16:49:48Z</time>
      </trkpt>
      <trkpt lat="42.82486399999994" lon="-1.5898149999999966">
        <ele>442.283</ele>
        <time>2022-08-24T16:49:49Z</time>
      </trkpt>
      <trkpt lat="42.82485599999994" lon="-1.5900179999999966">
        <ele>442.225</ele>
        <time>2022-08-24T16:49:54Z</time>
      </trkpt>
      <trkpt lat="42.82482199999994" lon="-1.5902379999999967">
        <ele>442.452</ele>
        <time>2022-08-24T16:49:59Z</time>
      </trkpt>
      <trkpt lat="42.82481399999994" lon="-1.5902809999999967">
        <ele>442.245</ele>
        <time>2022-08-24T16:50:00Z</time>
      </trkpt>
      <trkpt lat="42.82480799999994" lon="-1.5903799999999968">
        <ele>442.239</ele>
        <time>2022-08-24T16:50:02Z</time>
      </trkpt>
      <trkpt lat="42.82480299999994" lon="-1.5905249999999969">
        <ele>442.078</ele>
        <time>2022-08-24T16:50:05Z</time>
      </trkpt>
      <trkpt lat="42.82480899999994" lon="-1.5905689999999968">
        <ele>442.048</ele>
        <time>2022-08-24T16:50:06Z</time>
      </trkpt>
      <trkpt lat="42.82481699999994" lon="-1.5906089999999968">
        <ele>442.061</ele>
        <time>2022-08-24T16:50:07Z</time>
      </trkpt>
      <trkpt lat="42.82482599999994" lon="-1.5906469999999968">
        <ele>442.017</ele>
        <time>2022-08-24T16:50:08Z</time>
      </trkpt>
      <trkpt lat="42.82483699999994" lon="-1.5906849999999968">
        <ele>442.009</ele>
        <time>2022-08-24T16:50:09Z</time>
      </trkpt>
      <trkpt lat="42.82484599999994" lon="-1.5907199999999968">
        <ele>442.075</ele>
        <time>2022-08-24T16:50:10Z</time>
      </trkpt>
      <trkpt lat="42.824894999999934" lon="-1.5908529999999967">
        <ele>441.825</ele>
        <time>2022-08-24T16:50:14Z</time>
      </trkpt>
      <trkpt lat="42.82492099999993" lon="-1.5909069999999967">
        <ele>441.885</ele>
        <time>2022-08-24T16:50:16Z</time>
      </trkpt>
      <trkpt lat="42.82494899999993" lon="-1.5909379999999966">
        <ele>441.611</ele>
        <time>2022-08-24T16:50:17Z</time>
      </trkpt>
      <trkpt lat="42.824975999999936" lon="-1.5909619999999967">
        <ele>441.613</ele>
        <time>2022-08-24T16:50:18Z</time>
      </trkpt>
      <trkpt lat="42.825001999999934" lon="-1.5909829999999967">
        <ele>441.640</ele>
        <time>2022-08-24T16:50:19Z</time>
      </trkpt>
      <trkpt lat="42.82503899999993" lon="-1.5910079999999966">
        <ele>441.683</ele>
        <time>2022-08-24T16:50:20Z</time>
      </trkpt>
      <trkpt lat="42.825077999999934" lon="-1.5910349999999966">
        <ele>441.657</ele>
        <time>2022-08-24T16:50:21Z</time>
      </trkpt>
      <trkpt lat="42.82512999999993" lon="-1.5910699999999967">
        <ele>441.496</ele>
        <time>2022-08-24T16:50:23Z</time>
      </trkpt>
      <trkpt lat="42.82519499999993" lon="-1.5911079999999966">
        <ele>441.451</ele>
        <time>2022-08-24T16:50:25Z</time>
      </trkpt>
      <trkpt lat="42.82528999999993" lon="-1.5911389999999965">
        <ele>441.201</ele>
        <time>2022-08-24T16:50:27Z</time>
      </trkpt>
      <trkpt lat="42.82536799999993" lon="-1.5911629999999966">
        <ele>441.211</ele>
        <time>2022-08-24T16:50:29Z</time>
      </trkpt>
      <trkpt lat="42.82544499999993" lon="-1.5911499999999965">
        <ele>441.209</ele>
        <time>2022-08-24T16:50:31Z</time>
      </trkpt>
      <trkpt lat="42.82561499999993" lon="-1.5910789999999966">
        <ele>442.066</ele>
        <time>2022-08-24T16:50:35Z</time>
      </trkpt>
      <trkpt lat="42.82565399999993" lon="-1.5910649999999966">
        <ele>442.076</ele>
        <time>2022-08-24T16:50:36Z</time>
      </trkpt>
      <trkpt lat="42.825750999999926" lon="-1.5910689999999965">
        <ele>442.456</ele>
        <time>2022-08-24T16:50:38Z</time>
      </trkpt>
      <trkpt lat="42.825793999999924" lon="-1.5910699999999964">
        <ele>442.492</ele>
        <time>2022-08-24T16:50:39Z</time>
      </trkpt>
      <trkpt lat="42.82584199999992" lon="-1.5910669999999965">
        <ele>442.464</ele>
        <time>2022-08-24T16:50:40Z</time>
      </trkpt>
      <trkpt lat="42.82593499999992" lon="-1.5910539999999964">
        <ele>442.641</ele>
        <time>2022-08-24T16:50:42Z</time>
      </trkpt>
      <trkpt lat="42.82610099999992" lon="-1.5909919999999964">
        <ele>442.874</ele>
        <time>2022-08-24T16:50:46Z</time>
      </trkpt>
      <trkpt lat="42.82613899999993" lon="-1.5909759999999964">
        <ele>443.048</ele>
        <time>2022-08-24T16:50:47Z</time>
      </trkpt>
      <trkpt lat="42.82622499999993" lon="-1.5909679999999964">
        <ele>443.097</ele>
        <time>2022-08-24T16:50:49Z</time>
      </trkpt>
      <trkpt lat="42.82626599999993" lon="-1.5909689999999963">
        <ele>443.262</ele>
        <time>2022-08-24T16:50:50Z</time>
      </trkpt>
      <trkpt lat="42.826301999999934" lon="-1.5909729999999962">
        <ele>443.283</ele>
        <time>2022-08-24T16:50:51Z</time>
      </trkpt>
      <trkpt lat="42.82633699999993" lon="-1.5909649999999962">
        <ele>443.211</ele>
        <time>2022-08-24T16:50:52Z</time>
      </trkpt>
      <trkpt lat="42.82636599999993" lon="-1.5909729999999962">
        <ele>443.209</ele>
        <time>2022-08-24T16:50:53Z</time>
      </trkpt>
      <trkpt lat="42.82645699999993" lon="-1.5909539999999962">
        <ele>443.467</ele>
        <time>2022-08-24T16:50:56Z</time>
      </trkpt>
      <trkpt lat="42.82648699999993" lon="-1.5909609999999963">
        <ele>443.677</ele>
        <time>2022-08-24T16:50:57Z</time>
      </trkpt>
      <trkpt lat="42.82651499999993" lon="-1.5909759999999964">
        <ele>443.627</ele>
        <time>2022-08-24T16:50:58Z</time>
      </trkpt>
      <trkpt lat="42.82654199999993" lon="-1.5909909999999965">
        <ele>443.863</ele>
        <time>2022-08-24T16:50:59Z</time>
      </trkpt>
      <trkpt lat="42.82656999999993" lon="-1.5910049999999964">
        <ele>443.835</ele>
        <time>2022-08-24T16:51:00Z</time>
      </trkpt>
      <trkpt lat="42.82665499999993" lon="-1.5910279999999966">
        <ele>444.062</ele>
        <time>2022-08-24T16:51:03Z</time>
      </trkpt>
      <trkpt lat="42.82668099999993" lon="-1.5910299999999966">
        <ele>444.085</ele>
        <time>2022-08-24T16:51:04Z</time>
      </trkpt>
      <trkpt lat="42.82670399999993" lon="-1.5910329999999966">
        <ele>444.059</ele>
        <time>2022-08-24T16:51:05Z</time>
      </trkpt>
      <trkpt lat="42.82672099999993" lon="-1.5910469999999965">
        <ele>444.238</ele>
        <time>2022-08-24T16:51:06Z</time>
      </trkpt>
      <trkpt lat="42.82673799999993" lon="-1.5910649999999966">
        <ele>444.297</ele>
        <time>2022-08-24T16:51:07Z</time>
      </trkpt>
      <trkpt lat="42.826758999999925" lon="-1.5910849999999965">
        <ele>444.423</ele>
        <time>2022-08-24T16:51:08Z</time>
      </trkpt>
      <trkpt lat="42.82678199999992" lon="-1.5911009999999965">
        <ele>444.425</ele>
        <time>2022-08-24T16:51:09Z</time>
      </trkpt>
      <trkpt lat="42.826806999999924" lon="-1.5911159999999966">
        <ele>444.409</ele>
        <time>2022-08-24T16:51:10Z</time>
      </trkpt>
      <trkpt lat="42.82686999999992" lon="-1.5911339999999967">
        <ele>444.430</ele>
        <time>2022-08-24T16:51:12Z</time>
      </trkpt>
      <trkpt lat="42.82689599999992" lon="-1.5911419999999967">
        <ele>444.480</ele>
        <time>2022-08-24T16:51:13Z</time>
      </trkpt>
      <trkpt lat="42.82692199999992" lon="-1.5911489999999968">
        <ele>444.470</ele>
        <time>2022-08-24T16:51:14Z</time>
      </trkpt>
      <trkpt lat="42.82704299999992" lon="-1.5911859999999969">
        <ele>444.646</ele>
        <time>2022-08-24T16:51:19Z</time>
      </trkpt>
      <trkpt lat="42.827063999999915" lon="-1.591195999999997">
        <ele>444.888</ele>
        <time>2022-08-24T16:51:20Z</time>
      </trkpt>
      <trkpt lat="42.82709399999992" lon="-1.5912049999999969">
        <ele>444.885</ele>
        <time>2022-08-24T16:51:21Z</time>
      </trkpt>
      <trkpt lat="42.82726299999992" lon="-1.5912899999999968">
        <ele>445.248</ele>
        <time>2022-08-24T16:51:27Z</time>
      </trkpt>
      <trkpt lat="42.82728199999992" lon="-1.5913149999999967">
        <ele>445.472</ele>
        <time>2022-08-24T16:51:28Z</time>
      </trkpt>
      <trkpt lat="42.82730599999992" lon="-1.5913429999999966">
        <ele>445.431</ele>
        <time>2022-08-24T16:51:29Z</time>
      </trkpt>
      <trkpt lat="42.82733099999992" lon="-1.5913699999999966">
        <ele>445.848</ele>
        <time>2022-08-24T16:51:30Z</time>
      </trkpt>
      <trkpt lat="42.82735399999992" lon="-1.5914029999999966">
        <ele>445.861</ele>
        <time>2022-08-24T16:51:31Z</time>
      </trkpt>
      <trkpt lat="42.82737699999992" lon="-1.5914349999999966">
        <ele>446.017</ele>
        <time>2022-08-24T16:51:32Z</time>
      </trkpt>
      <trkpt lat="42.827431999999924" lon="-1.5914909999999967">
        <ele>446.209</ele>
        <time>2022-08-24T16:51:34Z</time>
      </trkpt>
      <trkpt lat="42.82750599999992" lon="-1.5915979999999967">
        <ele>446.455</ele>
        <time>2022-08-24T16:51:37Z</time>
      </trkpt>
      <trkpt lat="42.827594999999924" lon="-1.5917359999999967">
        <ele>446.455</ele>
        <time>2022-08-24T16:51:41Z</time>
      </trkpt>
      <trkpt lat="42.827636999999925" lon="-1.5918189999999968">
        <ele>446.485</ele>
        <time>2022-08-24T16:51:43Z</time>
      </trkpt>
      <trkpt lat="42.827661999999926" lon="-1.5918519999999967">
        <ele>446.651</ele>
        <time>2022-08-24T16:51:44Z</time>
      </trkpt>
      <trkpt lat="42.82771199999993" lon="-1.5919089999999967">
        <ele>446.643</ele>
        <time>2022-08-24T16:51:46Z</time>
      </trkpt>
      <trkpt lat="42.827729999999924" lon="-1.5919479999999966">
        <ele>446.610</ele>
        <time>2022-08-24T16:51:47Z</time>
      </trkpt>
      <trkpt lat="42.82774599999993" lon="-1.5919869999999965">
        <ele>446.643</ele>
        <time>2022-08-24T16:51:48Z</time>
      </trkpt>
      <trkpt lat="42.82775899999993" lon="-1.5920259999999964">
        <ele>446.887</ele>
        <time>2022-08-24T16:51:49Z</time>
      </trkpt>
      <trkpt lat="42.82778799999993" lon="-1.5921879999999964">
        <ele>447.076</ele>
        <time>2022-08-24T16:51:53Z</time>
      </trkpt>
      <trkpt lat="42.82779099999993" lon="-1.5922679999999965">
        <ele>447.246</ele>
        <time>2022-08-24T16:51:55Z</time>
      </trkpt>
      <trkpt lat="42.82780199999993" lon="-1.5924389999999964">
        <ele>447.488</ele>
        <time>2022-08-24T16:51:59Z</time>
      </trkpt>
      <trkpt lat="42.82781599999993" lon="-1.5926119999999964">
        <ele>447.416</ele>
        <time>2022-08-24T16:52:03Z</time>
      </trkpt>
      <trkpt lat="42.827819999999925" lon="-1.5927099999999963">
        <ele>447.409</ele>
        <time>2022-08-24T16:52:05Z</time>
      </trkpt>
      <trkpt lat="42.82778799999993" lon="-1.5929239999999962">
        <ele>447.445</ele>
        <time>2022-08-24T16:52:09Z</time>
      </trkpt>
      <trkpt lat="42.827692999999925" lon="-1.5932999999999962">
        <ele>447.065</ele>
        <time>2022-08-24T16:52:16Z</time>
      </trkpt>
      <trkpt lat="42.82768299999992" lon="-1.593357999999996">
        <ele>447.085</ele>
        <time>2022-08-24T16:52:17Z</time>
      </trkpt>
      <trkpt lat="42.82764399999992" lon="-1.5935349999999961">
        <ele>446.871</ele>
        <time>2022-08-24T16:52:20Z</time>
      </trkpt>
      <trkpt lat="42.82762199999992" lon="-1.593586999999996">
        <ele>446.623</ele>
        <time>2022-08-24T16:52:21Z</time>
      </trkpt>
      <trkpt lat="42.82760299999992" lon="-1.5936289999999962">
        <ele>446.480</ele>
        <time>2022-08-24T16:52:22Z</time>
      </trkpt>
      <trkpt lat="42.82758899999992" lon="-1.5936629999999963">
        <ele>446.213</ele>
        <time>2022-08-24T16:52:23Z</time>
      </trkpt>
      <trkpt lat="42.827575999999915" lon="-1.5936929999999963">
        <ele>446.087</ele>
        <time>2022-08-24T16:52:24Z</time>
      </trkpt>
      <trkpt lat="42.82755199999991" lon="-1.5937249999999963">
        <ele>445.876</ele>
        <time>2022-08-24T16:52:25Z</time>
      </trkpt>
      <trkpt lat="42.82747299999991" lon="-1.5937909999999962">
        <ele>445.482</ele>
        <time>2022-08-24T16:52:27Z</time>
      </trkpt>
      <trkpt lat="42.827420999999916" lon="-1.5938209999999962">
        <ele>445.243</ele>
        <time>2022-08-24T16:52:28Z</time>
      </trkpt>
      <trkpt lat="42.82737699999991" lon="-1.5938499999999962">
        <ele>445.017</ele>
        <time>2022-08-24T16:52:29Z</time>
      </trkpt>
      <trkpt lat="42.827336999999915" lon="-1.5938859999999961">
        <ele>444.809</ele>
        <time>2022-08-24T16:52:30Z</time>
      </trkpt>
      <trkpt lat="42.827220999999916" lon="-1.5940279999999962">
        <ele>443.859</ele>
        <time>2022-08-24T16:52:33Z</time>
      </trkpt>
      <trkpt lat="42.82717299999992" lon="-1.5940709999999962">
        <ele>443.679</ele>
        <time>2022-08-24T16:52:34Z</time>
      </trkpt>
      <trkpt lat="42.827029999999915" lon="-1.5942129999999963">
        <ele>443.029</ele>
        <time>2022-08-24T16:52:37Z</time>
      </trkpt>
      <trkpt lat="42.82698999999992" lon="-1.5942549999999964">
        <ele>442.825</ele>
        <time>2022-08-24T16:52:38Z</time>
      </trkpt>
      <trkpt lat="42.82695799999992" lon="-1.5942989999999964">
        <ele>442.897</ele>
        <time>2022-08-24T16:52:39Z</time>
      </trkpt>
      <trkpt lat="42.82693699999992" lon="-1.5943489999999965">
        <ele>442.684</ele>
        <time>2022-08-24T16:52:40Z</time>
      </trkpt>
      <trkpt lat="42.82692599999992" lon="-1.5944049999999965">
        <ele>442.457</ele>
        <time>2022-08-24T16:52:41Z</time>
      </trkpt>
      <trkpt lat="42.82690899999992" lon="-1.5944639999999966">
        <ele>442.481</ele>
        <time>2022-08-24T16:52:42Z</time>
      </trkpt>
      <trkpt lat="42.826899999999924" lon="-1.5945259999999966">
        <ele>442.250</ele>
        <time>2022-08-24T16:52:43Z</time>
      </trkpt>
      <trkpt lat="42.82690399999992" lon="-1.5945829999999965">
        <ele>442.283</ele>
        <time>2022-08-24T16:52:44Z</time>
      </trkpt>
      <trkpt lat="42.82691299999992" lon="-1.5946369999999965">
        <ele>442.025</ele>
        <time>2022-08-24T16:52:45Z</time>
      </trkpt>
      <trkpt lat="42.82692699999992" lon="-1.5946949999999964">
        <ele>442.017</ele>
        <time>2022-08-24T16:52:46Z</time>
      </trkpt>
      <trkpt lat="42.82693999999992" lon="-1.5947529999999963">
        <ele>442.009</ele>
        <time>2022-08-24T16:52:47Z</time>
      </trkpt>
      <trkpt lat="42.82695099999992" lon="-1.5948159999999962">
        <ele>442.069</ele>
        <time>2022-08-24T16:52:48Z</time>
      </trkpt>
      <trkpt lat="42.826961999999924" lon="-1.5948839999999962">
        <ele>441.859</ele>
        <time>2022-08-24T16:52:49Z</time>
      </trkpt>
      <trkpt lat="42.826966999999925" lon="-1.5949509999999962">
        <ele>441.679</ele>
        <time>2022-08-24T16:52:50Z</time>
      </trkpt>
      <trkpt lat="42.82696899999993" lon="-1.5950099999999963">
        <ele>441.475</ele>
        <time>2022-08-24T16:52:51Z</time>
      </trkpt>
      <trkpt lat="42.82697199999993" lon="-1.5950629999999963">
        <ele>441.427</ele>
        <time>2022-08-24T16:52:52Z</time>
      </trkpt>
      <trkpt lat="42.82697399999993" lon="-1.5951179999999963">
        <ele>441.474</ele>
        <time>2022-08-24T16:52:53Z</time>
      </trkpt>
      <trkpt lat="42.82697299999993" lon="-1.5952349999999962">
        <ele>441.447</ele>
        <time>2022-08-24T16:52:55Z</time>
      </trkpt>
      <trkpt lat="42.82695999999993" lon="-1.5953349999999962">
        <ele>441.271</ele>
        <time>2022-08-24T16:52:57Z</time>
      </trkpt>
      <trkpt lat="42.82695699999993" lon="-1.5953889999999962">
        <ele>441.280</ele>
        <time>2022-08-24T16:52:58Z</time>
      </trkpt>
      <trkpt lat="42.82695999999993" lon="-1.595443999999996">
        <ele>441.071</ele>
        <time>2022-08-24T16:52:59Z</time>
      </trkpt>
      <trkpt lat="42.82697899999993" lon="-1.595586999999996">
        <ele>441.041</ele>
        <time>2022-08-24T16:53:02Z</time>
      </trkpt>
      <trkpt lat="42.826988999999934" lon="-1.595644999999996">
        <ele>441.015</ele>
        <time>2022-08-24T16:53:03Z</time>
      </trkpt>
      <trkpt lat="42.82702699999994" lon="-1.595809999999996">
        <ele>441.009</ele>
        <time>2022-08-24T16:53:06Z</time>
      </trkpt>
      <trkpt lat="42.82705199999994" lon="-1.595873999999996">
        <ele>441.078</ele>
        <time>2022-08-24T16:53:07Z</time>
      </trkpt>
      <trkpt lat="42.82708199999994" lon="-1.595935999999996">
        <ele>441.078</ele>
        <time>2022-08-24T16:53:08Z</time>
      </trkpt>
      <trkpt lat="42.82711899999994" lon="-1.596003999999996">
        <ele>441.058</ele>
        <time>2022-08-24T16:53:09Z</time>
      </trkpt>
      <trkpt lat="42.82714699999994" lon="-1.596057999999996">
        <ele>440.814</ele>
        <time>2022-08-24T16:53:10Z</time>
      </trkpt>
      <trkpt lat="42.82717399999994" lon="-1.596113999999996">
        <ele>440.886</ele>
        <time>2022-08-24T16:53:11Z</time>
      </trkpt>
      <trkpt lat="42.827200999999945" lon="-1.5961669999999961">
        <ele>440.833</ele>
        <time>2022-08-24T16:53:12Z</time>
      </trkpt>
      <trkpt lat="42.827226999999944" lon="-1.5962119999999962">
        <ele>440.856</ele>
        <time>2022-08-24T16:53:13Z</time>
      </trkpt>
      <trkpt lat="42.82726399999994" lon="-1.5962419999999962">
        <ele>440.820</ele>
        <time>2022-08-24T16:53:14Z</time>
      </trkpt>
      <trkpt lat="42.82730699999994" lon="-1.5962479999999961">
        <ele>440.869</ele>
        <time>2022-08-24T16:53:15Z</time>
      </trkpt>
      <trkpt lat="42.82738599999994" lon="-1.596248999999996">
        <ele>440.885</ele>
        <time>2022-08-24T16:53:17Z</time>
      </trkpt>
      <trkpt lat="42.82742199999994" lon="-1.596233999999996">
        <ele>441.089</ele>
        <time>2022-08-24T16:53:18Z</time>
      </trkpt>
      <trkpt lat="42.82746999999994" lon="-1.5961999999999958">
        <ele>440.817</ele>
        <time>2022-08-24T16:53:19Z</time>
      </trkpt>
      <trkpt lat="42.82750699999994" lon="-1.596168999999996">
        <ele>441.009</ele>
        <time>2022-08-24T16:53:20Z</time>
      </trkpt>
      <trkpt lat="42.82757399999994" lon="-1.5961049999999959">
        <ele>441.059</ele>
        <time>2022-08-24T16:53:22Z</time>
      </trkpt>
      <trkpt lat="42.82760799999994" lon="-1.5960819999999958">
        <ele>441.049</ele>
        <time>2022-08-24T16:53:23Z</time>
      </trkpt>
      <trkpt lat="42.82764499999994" lon="-1.5960689999999957">
        <ele>441.079</ele>
        <time>2022-08-24T16:53:24Z</time>
      </trkpt>
      <trkpt lat="42.82768299999994" lon="-1.5960699999999957">
        <ele>441.055</ele>
        <time>2022-08-24T16:53:25Z</time>
      </trkpt>
      <trkpt lat="42.82772299999994" lon="-1.5960769999999957">
        <ele>440.837</ele>
        <time>2022-08-24T16:53:26Z</time>
      </trkpt>
      <trkpt lat="42.82776199999994" lon="-1.5960829999999957">
        <ele>441.024</ele>
        <time>2022-08-24T16:53:27Z</time>
      </trkpt>
      <trkpt lat="42.82779899999994" lon="-1.5960839999999956">
        <ele>441.017</ele>
        <time>2022-08-24T16:53:28Z</time>
      </trkpt>
      <trkpt lat="42.827836999999946" lon="-1.5960859999999957">
        <ele>440.881</ele>
        <time>2022-08-24T16:53:29Z</time>
      </trkpt>
      <trkpt lat="42.827876999999944" lon="-1.5960919999999956">
        <ele>440.840</ele>
        <time>2022-08-24T16:53:30Z</time>
      </trkpt>
      <trkpt lat="42.82791499999995" lon="-1.5960979999999956">
        <ele>440.868</ele>
        <time>2022-08-24T16:53:31Z</time>
      </trkpt>
      <trkpt lat="42.82795299999995" lon="-1.5961039999999955">
        <ele>440.842</ele>
        <time>2022-08-24T16:53:32Z</time>
      </trkpt>
      <trkpt lat="42.82802599999995" lon="-1.5960989999999955">
        <ele>440.826</ele>
        <time>2022-08-24T16:53:34Z</time>
      </trkpt>
      <trkpt lat="42.828055999999954" lon="-1.5960829999999955">
        <ele>440.809</ele>
        <time>2022-08-24T16:53:35Z</time>
      </trkpt>
      <trkpt lat="42.82808199999995" lon="-1.5960699999999954">
        <ele>440.887</ele>
        <time>2022-08-24T16:53:36Z</time>
      </trkpt>
      <trkpt lat="42.82810699999995" lon="-1.5960559999999955">
        <ele>440.877</ele>
        <time>2022-08-24T16:53:37Z</time>
      </trkpt>
      <trkpt lat="42.82813599999995" lon="-1.5960499999999955">
        <ele>440.817</ele>
        <time>2022-08-24T16:53:38Z</time>
      </trkpt>
      <trkpt lat="42.82817599999995" lon="-1.5960499999999955">
        <ele>440.693</ele>
        <time>2022-08-24T16:53:39Z</time>
      </trkpt>
      <trkpt lat="42.82822699999995" lon="-1.5960489999999956">
        <ele>440.425</ele>
        <time>2022-08-24T16:53:40Z</time>
      </trkpt>
      <trkpt lat="42.82827099999995" lon="-1.5960399999999957">
        <ele>440.082</ele>
        <time>2022-08-24T16:53:41Z</time>
      </trkpt>
      <trkpt lat="42.82831099999995" lon="-1.5960169999999956">
        <ele>439.625</ele>
        <time>2022-08-24T16:53:42Z</time>
      </trkpt>
      <trkpt lat="42.82834699999995" lon="-1.5959889999999957">
        <ele>439.699</ele>
        <time>2022-08-24T16:53:43Z</time>
      </trkpt>
      <trkpt lat="42.82838599999995" lon="-1.5959639999999957">
        <ele>439.248</ele>
        <time>2022-08-24T16:53:44Z</time>
      </trkpt>
      <trkpt lat="42.82842299999995" lon="-1.5959369999999957">
        <ele>439.074</ele>
        <time>2022-08-24T16:53:45Z</time>
      </trkpt>
      <trkpt lat="42.82849999999995" lon="-1.5958979999999958">
        <ele>438.656</ele>
        <time>2022-08-24T16:53:47Z</time>
      </trkpt>
      <trkpt lat="42.82853699999995" lon="-1.5958829999999957">
        <ele>438.421</ele>
        <time>2022-08-24T16:53:48Z</time>
      </trkpt>
      <trkpt lat="42.82861299999995" lon="-1.5958579999999958">
        <ele>438.209</ele>
        <time>2022-08-24T16:53:50Z</time>
      </trkpt>
      <trkpt lat="42.82865199999995" lon="-1.5958489999999959">
        <ele>438.448</ele>
        <time>2022-08-24T16:53:51Z</time>
      </trkpt>
      <trkpt lat="42.82869399999995" lon="-1.5958439999999958">
        <ele>438.628</ele>
        <time>2022-08-24T16:53:52Z</time>
      </trkpt>
      <trkpt lat="42.82884099999995" lon="-1.5958609999999958">
        <ele>438.488</ele>
        <time>2022-08-24T16:53:55Z</time>
      </trkpt>
      <trkpt lat="42.82888599999995" lon="-1.5958549999999958">
        <ele>438.664</ele>
        <time>2022-08-24T16:53:56Z</time>
      </trkpt>
      <trkpt lat="42.82892999999995" lon="-1.5958399999999957">
        <ele>438.666</ele>
        <time>2022-08-24T16:53:57Z</time>
      </trkpt>
      <trkpt lat="42.82896999999995" lon="-1.5958169999999956">
        <ele>438.663</ele>
        <time>2022-08-24T16:53:58Z</time>
      </trkpt>
      <trkpt lat="42.82901199999995" lon="-1.5957889999999957">
        <ele>438.666</ele>
        <time>2022-08-24T16:53:59Z</time>
      </trkpt>
      <trkpt lat="42.82904899999995" lon="-1.5957569999999957">
        <ele>438.650</ele>
        <time>2022-08-24T16:54:00Z</time>
      </trkpt>
      <trkpt lat="42.82908199999995" lon="-1.5957249999999956">
        <ele>438.629</ele>
        <time>2022-08-24T16:54:01Z</time>
      </trkpt>
      <trkpt lat="42.82911499999995" lon="-1.5956889999999957">
        <ele>438.681</ele>
        <time>2022-08-24T16:54:02Z</time>
      </trkpt>
      <trkpt lat="42.82914299999995" lon="-1.5956559999999957">
        <ele>438.661</ele>
        <time>2022-08-24T16:54:03Z</time>
      </trkpt>
      <trkpt lat="42.82916399999995" lon="-1.5956229999999958">
        <ele>438.617</ele>
        <time>2022-08-24T16:54:04Z</time>
      </trkpt>
      <trkpt lat="42.82918099999995" lon="-1.5955859999999957">
        <ele>438.609</ele>
        <time>2022-08-24T16:54:05Z</time>
      </trkpt>
      <trkpt lat="42.829198999999946" lon="-1.5955459999999957">
        <ele>438.629</ele>
        <time>2022-08-24T16:54:06Z</time>
      </trkpt>
      <trkpt lat="42.82921399999994" lon="-1.5955099999999958">
        <ele>438.689</ele>
        <time>2022-08-24T16:54:07Z</time>
      </trkpt>
      <trkpt lat="42.829226999999946" lon="-1.5954759999999957">
        <ele>438.649</ele>
        <time>2022-08-24T16:54:08Z</time>
      </trkpt>
      <trkpt lat="42.82923699999995" lon="-1.5954419999999956">
        <ele>438.645</ele>
        <time>2022-08-24T16:54:09Z</time>
      </trkpt>
      <trkpt lat="42.82927099999995" lon="-1.5953329999999957">
        <ele>439.227</ele>
        <time>2022-08-24T16:54:12Z</time>
      </trkpt>
      <trkpt lat="42.82927899999995" lon="-1.5952969999999957">
        <ele>439.274</ele>
        <time>2022-08-24T16:54:13Z</time>
      </trkpt>
      <trkpt lat="42.82929299999995" lon="-1.5952619999999957">
        <ele>439.057</ele>
        <time>2022-08-24T16:54:14Z</time>
      </trkpt>
      <trkpt lat="42.82932199999995" lon="-1.5952069999999958">
        <ele>439.071</ele>
        <time>2022-08-24T16:54:16Z</time>
      </trkpt>
      <trkpt lat="42.829336999999946" lon="-1.5951919999999957">
        <ele>439.070</ele>
        <time>2022-08-24T16:54:17Z</time>
      </trkpt>
      <trkpt lat="42.82935499999994" lon="-1.5951849999999956">
        <ele>439.237</ele>
        <time>2022-08-24T16:54:18Z</time>
      </trkpt>
      <trkpt lat="42.829373999999945" lon="-1.5951859999999956">
        <ele>439.249</ele>
        <time>2022-08-24T16:54:19Z</time>
      </trkpt>
      <trkpt lat="42.82938899999994" lon="-1.5951919999999955">
        <ele>439.213</ele>
        <time>2022-08-24T16:54:20Z</time>
      </trkpt>
      <trkpt lat="42.82941499999994" lon="-1.5952029999999955">
        <ele>440.209</ele>
        <time>2022-08-24T16:54:37Z</time>
      </trkpt>
      <trkpt lat="42.82942599999994" lon="-1.5952129999999956">
        <ele>440.224</ele>
        <time>2022-08-24T16:54:38Z</time>
      </trkpt>
      <trkpt lat="42.829480999999944" lon="-1.5952439999999954">
        <ele>440.844</ele>
        <time>2022-08-24T16:54:43Z</time>
      </trkpt>
      <trkpt lat="42.829491999999945" lon="-1.5952489999999955">
        <ele>440.824</ele>
        <time>2022-08-24T16:54:44Z</time>
      </trkpt>
      <trkpt lat="42.82952199999995" lon="-1.5952659999999954">
        <ele>441.210</ele>
        <time>2022-08-24T16:54:48Z</time>
      </trkpt>
      <trkpt lat="42.82955999999995" lon="-1.5953059999999954">
        <ele>441.622</ele>
        <time>2022-08-24T16:54:54Z</time>
      </trkpt>
      <trkpt lat="42.829569999999954" lon="-1.5953129999999955">
        <ele>441.649</ele>
        <time>2022-08-24T16:54:55Z</time>
      </trkpt>
      <trkpt lat="42.82968099999995" lon="-1.5954069999999956">
        <ele>441.632</ele>
        <time>2022-08-24T16:55:01Z</time>
      </trkpt>
      <trkpt lat="42.82976599999995" lon="-1.5954949999999957">
        <ele>441.436</ele>
        <time>2022-08-24T16:55:05Z</time>
      </trkpt>
      <trkpt lat="42.82977199999995" lon="-1.5955379999999957">
        <ele>441.275</ele>
        <time>2022-08-24T16:55:06Z</time>
      </trkpt>
      <trkpt lat="42.82976599999995" lon="-1.5955859999999957">
        <ele>441.246</ele>
        <time>2022-08-24T16:55:07Z</time>
      </trkpt>
      <trkpt lat="42.82971499999995" lon="-1.5957619999999957">
        <ele>440.688</ele>
        <time>2022-08-24T16:55:10Z</time>
      </trkpt>
      <trkpt lat="42.82969999999995" lon="-1.5958179999999957">
        <ele>440.416</ele>
        <time>2022-08-24T16:55:11Z</time>
      </trkpt>
      <trkpt lat="42.829687999999955" lon="-1.5958659999999958">
        <ele>440.209</ele>
        <time>2022-08-24T16:55:12Z</time>
      </trkpt>
      <trkpt lat="42.82967799999995" lon="-1.5959079999999959">
        <ele>439.865</ele>
        <time>2022-08-24T16:55:13Z</time>
      </trkpt>
      <trkpt lat="42.82967199999995" lon="-1.595944999999996">
        <ele>439.675</ele>
        <time>2022-08-24T16:55:14Z</time>
      </trkpt>
      <trkpt lat="42.82966599999995" lon="-1.595976999999996">
        <ele>439.275</ele>
        <time>2022-08-24T16:55:15Z</time>
      </trkpt>
      <trkpt lat="42.829664999999956" lon="-1.5960079999999959">
        <ele>439.041</ele>
        <time>2022-08-24T16:55:16Z</time>
      </trkpt>
      <trkpt lat="42.82967199999995" lon="-1.596039999999996">
        <ele>439.013</ele>
        <time>2022-08-24T16:55:17Z</time>
      </trkpt>
      <trkpt lat="42.82968599999995" lon="-1.596073999999996">
        <ele>438.890</ele>
        <time>2022-08-24T16:55:18Z</time>
      </trkpt>
      <trkpt lat="42.82970099999995" lon="-1.596108999999996">
        <ele>438.823</ele>
        <time>2022-08-24T16:55:19Z</time>
      </trkpt>
      <trkpt lat="42.82971599999995" lon="-1.596146999999996">
        <ele>438.837</ele>
        <time>2022-08-24T16:55:20Z</time>
      </trkpt>
      <trkpt lat="42.829733999999945" lon="-1.596188999999996">
        <ele>438.836</ele>
        <time>2022-08-24T16:55:21Z</time>
      </trkpt>
      <trkpt lat="42.82977199999995" lon="-1.5962659999999962">
        <ele>438.854</ele>
        <time>2022-08-24T16:55:23Z</time>
      </trkpt>
      <trkpt lat="42.82979199999995" lon="-1.596285999999996">
        <ele>439.056</ele>
        <time>2022-08-24T16:55:24Z</time>
      </trkpt>
      <trkpt lat="42.829806999999946" lon="-1.596288999999996">
        <ele>439.411</ele>
        <time>2022-08-24T16:55:25Z</time>
      </trkpt>
      <trkpt lat="42.829823999999945" lon="-1.596288999999996">
        <ele>439.409</ele>
        <time>2022-08-24T16:55:26Z</time>
      </trkpt>
      <trkpt lat="42.82984299999995" lon="-1.5962879999999962">
        <ele>439.436</ele>
        <time>2022-08-24T16:55:27Z</time>
      </trkpt>
      <trkpt lat="42.82985699999995" lon="-1.5962869999999962">
        <ele>439.426</ele>
        <time>2022-08-24T16:55:28Z</time>
      </trkpt>
      <trkpt lat="42.829874999999944" lon="-1.5962899999999962">
        <ele>439.476</ele>
        <time>2022-08-24T16:55:29Z</time>
      </trkpt>
      <trkpt lat="42.82989099999995" lon="-1.5962859999999963">
        <ele>439.442</ele>
        <time>2022-08-24T16:55:30Z</time>
      </trkpt>
      <trkpt lat="42.829907999999946" lon="-1.5962849999999964">
        <ele>439.494</ele>
        <time>2022-08-24T16:55:31Z</time>
      </trkpt>
      <trkpt lat="42.830051999999945" lon="-1.5962629999999964">
        <ele>439.421</ele>
        <time>2022-08-24T16:55:37Z</time>
      </trkpt>
      <trkpt lat="42.83028199999995" lon="-1.5963229999999964">
        <ele>438.884</ele>
        <time>2022-08-24T16:55:44Z</time>
      </trkpt>
      <trkpt lat="42.83034299999995" lon="-1.5963649999999965">
        <ele>438.668</ele>
        <time>2022-08-24T16:55:46Z</time>
      </trkpt>
      <trkpt lat="42.83036599999995" lon="-1.5963849999999964">
        <ele>438.667</ele>
        <time>2022-08-24T16:55:47Z</time>
      </trkpt>
      <trkpt lat="42.83038599999995" lon="-1.5964019999999963">
        <ele>438.675</ele>
        <time>2022-08-24T16:55:48Z</time>
      </trkpt>
      <trkpt lat="42.83039899999995" lon="-1.5964239999999963">
        <ele>438.628</ele>
        <time>2022-08-24T16:55:49Z</time>
      </trkpt>
      <trkpt lat="42.83040799999995" lon="-1.5964419999999964">
        <ele>438.620</ele>
        <time>2022-08-24T16:55:50Z</time>
      </trkpt>
      <trkpt lat="42.83043799999995" lon="-1.5964699999999963">
        <ele>438.409</ele>
        <time>2022-08-24T16:58:48Z</time>
      </trkpt>
      <trkpt lat="42.83051399999995" lon="-1.5965019999999963">
        <ele>438.438</ele>
        <time>2022-08-24T16:58:51Z</time>
      </trkpt>
      <trkpt lat="42.83056499999995" lon="-1.5965309999999964">
        <ele>438.458</ele>
        <time>2022-08-24T16:58:53Z</time>
      </trkpt>
      <trkpt lat="42.83058499999995" lon="-1.5965479999999963">
        <ele>438.458</ele>
        <time>2022-08-24T16:58:54Z</time>
      </trkpt>
      <trkpt lat="42.83060499999995" lon="-1.5965659999999964">
        <ele>438.474</ele>
        <time>2022-08-24T16:58:55Z</time>
      </trkpt>
      <trkpt lat="42.83064699999995" lon="-1.5966069999999963">
        <ele>438.456</ele>
        <time>2022-08-24T16:58:57Z</time>
      </trkpt>
      <trkpt lat="42.83083799999995" lon="-1.5967529999999963">
        <ele>438.493</ele>
        <time>2022-08-24T16:59:04Z</time>
      </trkpt>
      <trkpt lat="42.83093699999995" lon="-1.5968509999999962">
        <ele>438.286</ele>
        <time>2022-08-24T16:59:07Z</time>
      </trkpt>
      <trkpt lat="42.83107299999995" lon="-1.5969879999999963">
        <ele>438.220</ele>
        <time>2022-08-24T16:59:11Z</time>
      </trkpt>
      <trkpt lat="42.831256999999944" lon="-1.5971729999999964">
        <ele>438.289</ele>
        <time>2022-08-24T16:59:16Z</time>
      </trkpt>
      <trkpt lat="42.83129399999994" lon="-1.5972069999999965">
        <ele>438.249</ele>
        <time>2022-08-24T16:59:17Z</time>
      </trkpt>
      <trkpt lat="42.831329999999944" lon="-1.5972409999999966">
        <ele>438.402</ele>
        <time>2022-08-24T16:59:18Z</time>
      </trkpt>
      <trkpt lat="42.83136699999994" lon="-1.5972739999999965">
        <ele>438.422</ele>
        <time>2022-08-24T16:59:19Z</time>
      </trkpt>
      <trkpt lat="42.83140199999994" lon="-1.5973069999999965">
        <ele>438.409</ele>
        <time>2022-08-24T16:59:20Z</time>
      </trkpt>
      <trkpt lat="42.83143799999994" lon="-1.5973399999999964">
        <ele>438.435</ele>
        <time>2022-08-24T16:59:21Z</time>
      </trkpt>
      <trkpt lat="42.83151099999994" lon="-1.5974049999999964">
        <ele>438.415</ele>
        <time>2022-08-24T16:59:23Z</time>
      </trkpt>
      <trkpt lat="42.831546999999944" lon="-1.5974349999999964">
        <ele>438.425</ele>
        <time>2022-08-24T16:59:24Z</time>
      </trkpt>
      <trkpt lat="42.83158099999994" lon="-1.5974649999999964">
        <ele>438.421</ele>
        <time>2022-08-24T16:59:25Z</time>
      </trkpt>
      <trkpt lat="42.831613999999945" lon="-1.5974949999999963">
        <ele>438.463</ele>
        <time>2022-08-24T16:59:26Z</time>
      </trkpt>
      <trkpt lat="42.831644999999945" lon="-1.5975219999999963">
        <ele>438.450</ele>
        <time>2022-08-24T16:59:27Z</time>
      </trkpt>
      <trkpt lat="42.831703999999945" lon="-1.5975779999999964">
        <ele>438.273</ele>
        <time>2022-08-24T16:59:29Z</time>
      </trkpt>
      <trkpt lat="42.831911999999946" lon="-1.5977679999999963">
        <ele>438.247</ele>
        <time>2022-08-24T16:59:35Z</time>
      </trkpt>
      <trkpt lat="42.83194799999995" lon="-1.5977939999999964">
        <ele>438.456</ele>
        <time>2022-08-24T16:59:36Z</time>
      </trkpt>
      <trkpt lat="42.83198599999995" lon="-1.5978169999999965">
        <ele>438.442</ele>
        <time>2022-08-24T16:59:37Z</time>
      </trkpt>
      <trkpt lat="42.83202099999995" lon="-1.5978349999999966">
        <ele>438.422</ele>
        <time>2022-08-24T16:59:38Z</time>
      </trkpt>
      <trkpt lat="42.83205899999995" lon="-1.5978559999999966">
        <ele>438.414</ele>
        <time>2022-08-24T16:59:39Z</time>
      </trkpt>
      <trkpt lat="42.83221399999995" lon="-1.5979379999999965">
        <ele>438.209</ele>
        <time>2022-08-24T16:59:43Z</time>
      </trkpt>
      <trkpt lat="42.83229699999995" lon="-1.5980119999999964">
        <ele>438.255</ele>
        <time>2022-08-24T16:59:45Z</time>
      </trkpt>
      <trkpt lat="42.83236899999995" lon="-1.5981099999999964">
        <ele>438.075</ele>
        <time>2022-08-24T16:59:47Z</time>
      </trkpt>
      <trkpt lat="42.83241999999995" lon="-1.5982209999999963">
        <ele>438.065</ele>
        <time>2022-08-24T16:59:49Z</time>
      </trkpt>
      <trkpt lat="42.83243899999995" lon="-1.5982759999999963">
        <ele>438.051</ele>
        <time>2022-08-24T16:59:50Z</time>
      </trkpt>
      <trkpt lat="42.832462999999954" lon="-1.5983299999999963">
        <ele>437.883</ele>
        <time>2022-08-24T16:59:51Z</time>
      </trkpt>
      <trkpt lat="42.83248899999995" lon="-1.5983829999999963">
        <ele>437.870</ele>
        <time>2022-08-24T16:59:52Z</time>
      </trkpt>
      <trkpt lat="42.832507999999955" lon="-1.5984389999999964">
        <ele>437.633</ele>
        <time>2022-08-24T16:59:53Z</time>
      </trkpt>
      <trkpt lat="42.83253099999995" lon="-1.5984989999999963">
        <ele>437.487</ele>
        <time>2022-08-24T16:59:54Z</time>
      </trkpt>
      <trkpt lat="42.832549999999955" lon="-1.5985589999999963">
        <ele>437.436</ele>
        <time>2022-08-24T16:59:55Z</time>
      </trkpt>
      <trkpt lat="42.83256599999996" lon="-1.5986109999999962">
        <ele>437.284</ele>
        <time>2022-08-24T16:59:56Z</time>
      </trkpt>
      <trkpt lat="42.83259299999996" lon="-1.5986859999999963">
        <ele>437.207</ele>
        <time>2022-08-24T16:59:57Z</time>
      </trkpt>
      <trkpt lat="42.83261899999996" lon="-1.5987479999999963">
        <ele>437.217</ele>
        <time>2022-08-24T16:59:58Z</time>
      </trkpt>
      <trkpt lat="42.832639999999955" lon="-1.5987979999999964">
        <ele>437.209</ele>
        <time>2022-08-24T16:59:59Z</time>
      </trkpt>
      <trkpt lat="42.83266699999996" lon="-1.5988569999999964">
        <ele>437.099</ele>
        <time>2022-08-24T17:00:00Z</time>
      </trkpt>
      <trkpt lat="42.83269199999996" lon="-1.5989179999999965">
        <ele>436.889</ele>
        <time>2022-08-24T17:00:01Z</time>
      </trkpt>
      <trkpt lat="42.83271999999996" lon="-1.5989959999999965">
        <ele>436.839</ele>
        <time>2022-08-24T17:00:02Z</time>
      </trkpt>
      <trkpt lat="42.83273999999996" lon="-1.5990589999999965">
        <ele>436.655</ele>
        <time>2022-08-24T17:00:03Z</time>
      </trkpt>
      <trkpt lat="42.83275399999996" lon="-1.5991089999999966">
        <ele>436.637</ele>
        <time>2022-08-24T17:00:04Z</time>
      </trkpt>
      <trkpt lat="42.83279799999996" lon="-1.5992359999999965">
        <ele>436.674</ele>
        <time>2022-08-24T17:00:06Z</time>
      </trkpt>
      <trkpt lat="42.83281899999996" lon="-1.5992919999999966">
        <ele>436.657</ele>
        <time>2022-08-24T17:00:07Z</time>
      </trkpt>
      <trkpt lat="42.83285499999996" lon="-1.5994059999999966">
        <ele>436.481</ele>
        <time>2022-08-24T17:00:09Z</time>
      </trkpt>
      <trkpt lat="42.83286899999996" lon="-1.5994629999999965">
        <ele>436.420</ele>
        <time>2022-08-24T17:00:10Z</time>
      </trkpt>
      <trkpt lat="42.83288299999996" lon="-1.5995159999999966">
        <ele>436.431</ele>
        <time>2022-08-24T17:00:11Z</time>
      </trkpt>
      <trkpt lat="42.83290199999996" lon="-1.5995539999999966">
        <ele>436.461</ele>
        <time>2022-08-24T17:00:12Z</time>
      </trkpt>
      <trkpt lat="42.83292699999996" lon="-1.5995769999999967">
        <ele>436.607</ele>
        <time>2022-08-24T17:00:13Z</time>
      </trkpt>
      <trkpt lat="42.83295499999996" lon="-1.5995869999999968">
        <ele>436.209</ele>
        <time>2022-08-24T17:00:14Z</time>
      </trkpt>
      <trkpt lat="42.83298299999996" lon="-1.5995959999999967">
        <ele>436.224</ele>
        <time>2022-08-24T17:00:15Z</time>
      </trkpt>
      <trkpt lat="42.833001999999965" lon="-1.5996239999999966">
        <ele>436.284</ele>
        <time>2022-08-24T17:00:16Z</time>
      </trkpt>
      <trkpt lat="42.83301099999996" lon="-1.5996609999999967">
        <ele>436.074</ele>
        <time>2022-08-24T17:00:17Z</time>
      </trkpt>
      <trkpt lat="42.833004999999964" lon="-1.5997009999999967">
        <ele>436.040</ele>
        <time>2022-08-24T17:00:18Z</time>
      </trkpt>
      <trkpt lat="42.832993999999964" lon="-1.5997419999999967">
        <ele>436.022</ele>
        <time>2022-08-24T17:00:19Z</time>
      </trkpt>
      <trkpt lat="42.832936999999966" lon="-1.5999919999999968">
        <ele>436.229</ele>
        <time>2022-08-24T17:00:24Z</time>
      </trkpt>
      <trkpt lat="42.832922999999965" lon="-1.6000439999999967">
        <ele>436.252</ele>
        <time>2022-08-24T17:00:25Z</time>
      </trkpt>
      <trkpt lat="42.832911999999965" lon="-1.6000929999999967">
        <ele>436.246</ele>
        <time>2022-08-24T17:00:26Z</time>
      </trkpt>
      <trkpt lat="42.832902999999966" lon="-1.6001369999999966">
        <ele>436.215</ele>
        <time>2022-08-24T17:00:27Z</time>
      </trkpt>
      <trkpt lat="42.83289099999997" lon="-1.6002259999999966">
        <ele>436.268</ele>
        <time>2022-08-24T17:00:29Z</time>
      </trkpt>
      <trkpt lat="42.83288399999997" lon="-1.6002709999999967">
        <ele>436.242</ele>
        <time>2022-08-24T17:00:30Z</time>
      </trkpt>
      <trkpt lat="42.832876999999975" lon="-1.6003139999999967">
        <ele>436.226</ele>
        <time>2022-08-24T17:00:31Z</time>
      </trkpt>
      <trkpt lat="42.83287499999997" lon="-1.6003549999999966">
        <ele>436.409</ele>
        <time>2022-08-24T17:00:32Z</time>
      </trkpt>
      <trkpt lat="42.832873999999975" lon="-1.6003969999999967">
        <ele>436.437</ele>
        <time>2022-08-24T17:00:33Z</time>
      </trkpt>
      <trkpt lat="42.83287199999997" lon="-1.6004359999999966">
        <ele>436.617</ele>
        <time>2022-08-24T17:00:34Z</time>
      </trkpt>
      <trkpt lat="42.832867999999976" lon="-1.6005139999999967">
        <ele>437.227</ele>
        <time>2022-08-24T17:00:36Z</time>
      </trkpt>
      <trkpt lat="42.832868999999974" lon="-1.6005539999999967">
        <ele>437.263</ele>
        <time>2022-08-24T17:00:37Z</time>
      </trkpt>
      <trkpt lat="42.832867999999976" lon="-1.6005919999999967">
        <ele>437.425</ele>
        <time>2022-08-24T17:00:38Z</time>
      </trkpt>
      <trkpt lat="42.83286699999998" lon="-1.6006299999999967">
        <ele>437.612</ele>
        <time>2022-08-24T17:00:39Z</time>
      </trkpt>
      <trkpt lat="42.83286899999998" lon="-1.6007139999999966">
        <ele>437.855</ele>
        <time>2022-08-24T17:00:41Z</time>
      </trkpt>
      <trkpt lat="42.83287799999998" lon="-1.6007929999999966">
        <ele>437.659</ele>
        <time>2022-08-24T17:00:43Z</time>
      </trkpt>
      <trkpt lat="42.83289399999998" lon="-1.6008519999999966">
        <ele>437.648</ele>
        <time>2022-08-24T17:00:44Z</time>
      </trkpt>
      <trkpt lat="42.832909999999984" lon="-1.6009169999999966">
        <ele>437.448</ele>
        <time>2022-08-24T17:00:45Z</time>
      </trkpt>
      <trkpt lat="42.83291999999999" lon="-1.6009829999999965">
        <ele>437.461</ele>
        <time>2022-08-24T17:00:46Z</time>
      </trkpt>
      <trkpt lat="42.83294199999999" lon="-1.6010489999999964">
        <ele>437.017</ele>
        <time>2022-08-24T17:00:47Z</time>
      </trkpt>
      <trkpt lat="42.83295099999999" lon="-1.6011009999999963">
        <ele>436.809</ele>
        <time>2022-08-24T17:00:48Z</time>
      </trkpt>
      <trkpt lat="42.83296399999999" lon="-1.6011589999999962">
        <ele>436.825</ele>
        <time>2022-08-24T17:00:49Z</time>
      </trkpt>
      <trkpt lat="42.83296799999999" lon="-1.6012039999999963">
        <ele>436.645</ele>
        <time>2022-08-24T17:00:50Z</time>
      </trkpt>
      <trkpt lat="42.832968999999984" lon="-1.6012469999999963">
        <ele>436.655</ele>
        <time>2022-08-24T17:00:51Z</time>
      </trkpt>
      <trkpt lat="42.83296699999998" lon="-1.6012809999999964">
        <ele>436.621</ele>
        <time>2022-08-24T17:00:52Z</time>
      </trkpt>
      <trkpt lat="42.83297099999998" lon="-1.6013019999999965">
        <ele>436.683</ele>
        <time>2022-08-24T17:00:53Z</time>
      </trkpt>
      <trkpt lat="42.83297399999998" lon="-1.6013179999999965">
        <ele>436.640</ele>
        <time>2022-08-24T17:00:54Z</time>
      </trkpt>
      <trkpt lat="42.83297199999998" lon="-1.6013459999999964">
        <ele>436.623</ele>
        <time>2022-08-24T17:00:55Z</time>
      </trkpt>
      <trkpt lat="42.83296499999998" lon="-1.6013609999999965">
        <ele>436.647</ele>
        <time>2022-08-24T17:00:56Z</time>
      </trkpt>
      <trkpt lat="42.83296199999998" lon="-1.6013629999999965">
        <ele>436.676</ele>
        <time>2022-08-24T17:00:57Z</time>
      </trkpt>
      <trkpt lat="42.83296199999998" lon="-1.6013629999999965">
        <ele>436.637</ele>
        <time>2022-08-24T17:00:58Z</time>
      </trkpt>
      <trkpt lat="42.83296199999998" lon="-1.6013629999999965">
        <ele>436.649</ele>
        <time>2022-08-24T17:00:59Z</time>
      </trkpt>
      <trkpt lat="42.83296199999998" lon="-1.6013629999999965">
        <ele>436.613</ele>
        <time>2022-08-24T17:01:00Z</time>
      </trkpt>
      <trkpt lat="42.83296199999998" lon="-1.6013629999999965">
        <ele>436.609</ele>
        <time>2022-08-24T17:01:01Z</time>
      </trkpt>
      <trkpt lat="42.83296299999998" lon="-1.6013569999999966">
        <ele>436.634</ele>
        <time>2022-08-24T17:01:03Z</time>
      </trkpt>
      <trkpt lat="42.83296299999998" lon="-1.6013569999999966">
        <ele>436.684</ele>
        <time>2022-08-24T17:01:04Z</time>
      </trkpt>
      <trkpt lat="42.83295799999998" lon="-1.6013579999999965">
        <ele>436.684</ele>
        <time>2022-08-24T17:01:07Z</time>
      </trkpt>
      <trkpt lat="42.832941999999974" lon="-1.6013629999999965">
        <ele>436.630</ele>
        <time>2022-08-24T17:01:09Z</time>
      </trkpt>
      <trkpt lat="42.83292099999998" lon="-1.6013809999999966">
        <ele>436.632</ele>
        <time>2022-08-24T17:01:11Z</time>
      </trkpt>
      <trkpt lat="42.832904999999975" lon="-1.6013949999999966">
        <ele>436.669</ele>
        <time>2022-08-24T17:01:12Z</time>
      </trkpt>
      <trkpt lat="42.83286399999997" lon="-1.6014379999999966">
        <ele>436.612</ele>
        <time>2022-08-24T17:01:14Z</time>
      </trkpt>
      <trkpt lat="42.83271999999997" lon="-1.6015599999999965">
        <ele>436.636</ele>
        <time>2022-08-24T17:01:19Z</time>
      </trkpt>
      <trkpt lat="42.832665999999975" lon="-1.6016029999999966">
        <ele>436.475</ele>
        <time>2022-08-24T17:01:21Z</time>
      </trkpt>
      <trkpt lat="42.832538999999976" lon="-1.6016989999999967">
        <ele>436.467</ele>
        <time>2022-08-24T17:01:25Z</time>
      </trkpt>
      <trkpt lat="42.83250699999998" lon="-1.6017219999999968">
        <ele>436.281</ele>
        <time>2022-08-24T17:01:26Z</time>
      </trkpt>
      <trkpt lat="42.83248499999998" lon="-1.6017389999999967">
        <ele>436.219</ele>
        <time>2022-08-24T17:01:27Z</time>
      </trkpt>
      <trkpt lat="42.83245699999998" lon="-1.6017609999999967">
        <ele>436.209</ele>
        <time>2022-08-24T17:01:28Z</time>
      </trkpt>
      <trkpt lat="42.83235999999998" lon="-1.6018489999999967">
        <ele>436.227</ele>
        <time>2022-08-24T17:01:31Z</time>
      </trkpt>
      <trkpt lat="42.83233499999998" lon="-1.6018699999999968">
        <ele>436.027</ele>
        <time>2022-08-24T17:01:32Z</time>
      </trkpt>
      <trkpt lat="42.83230699999998" lon="-1.6018919999999968">
        <ele>435.887</ele>
        <time>2022-08-24T17:01:33Z</time>
      </trkpt>
      <trkpt lat="42.83228499999998" lon="-1.6019099999999968">
        <ele>435.883</ele>
        <time>2022-08-24T17:01:34Z</time>
      </trkpt>
      <trkpt lat="42.83225999999998" lon="-1.6019319999999968">
        <ele>435.625</ele>
        <time>2022-08-24T17:01:35Z</time>
      </trkpt>
      <trkpt lat="42.83223899999998" lon="-1.6019509999999968">
        <ele>435.642</ele>
        <time>2022-08-24T17:01:36Z</time>
      </trkpt>
      <trkpt lat="42.83216399999998" lon="-1.6020059999999967">
        <ele>435.675</ele>
        <time>2022-08-24T17:01:39Z</time>
      </trkpt>
      <trkpt lat="42.83210999999998" lon="-1.6020469999999967">
        <ele>435.659</ele>
        <time>2022-08-24T17:01:41Z</time>
      </trkpt>
      <trkpt lat="42.83202699999998" lon="-1.6021109999999967">
        <ele>435.648</ele>
        <time>2022-08-24T17:01:44Z</time>
      </trkpt>
      <trkpt lat="42.83199399999998" lon="-1.6021369999999968">
        <ele>435.457</ele>
        <time>2022-08-24T17:01:45Z</time>
      </trkpt>
      <trkpt lat="42.83196799999998" lon="-1.6021579999999969">
        <ele>435.400</ele>
        <time>2022-08-24T17:01:46Z</time>
      </trkpt>
      <trkpt lat="42.83186499999998" lon="-1.6022479999999968">
        <ele>435.220</ele>
        <time>2022-08-24T17:01:50Z</time>
      </trkpt>
      <trkpt lat="42.83183099999998" lon="-1.6022739999999969">
        <ele>435.209</ele>
        <time>2022-08-24T17:01:51Z</time>
      </trkpt>
      <trkpt lat="42.83180999999998" lon="-1.6022899999999969">
        <ele>435.296</ele>
        <time>2022-08-24T17:01:52Z</time>
      </trkpt>
      <trkpt lat="42.831786999999984" lon="-1.6023089999999969">
        <ele>435.276</ele>
        <time>2022-08-24T17:01:53Z</time>
      </trkpt>
      <trkpt lat="42.83176599999999" lon="-1.6023279999999969">
        <ele>435.276</ele>
        <time>2022-08-24T17:01:54Z</time>
      </trkpt>
      <trkpt lat="42.831738999999985" lon="-1.6023499999999968">
        <ele>435.262</ele>
        <time>2022-08-24T17:01:55Z</time>
      </trkpt>
      <trkpt lat="42.83171199999998" lon="-1.6023689999999968">
        <ele>435.234</ele>
        <time>2022-08-24T17:01:56Z</time>
      </trkpt>
      <trkpt lat="42.83169199999998" lon="-1.6023829999999968">
        <ele>435.031</ele>
        <time>2022-08-24T17:01:57Z</time>
      </trkpt>
      <trkpt lat="42.83166999999998" lon="-1.6024059999999969">
        <ele>435.024</ele>
        <time>2022-08-24T17:01:58Z</time>
      </trkpt>
      <trkpt lat="42.83164499999998" lon="-1.602423999999997">
        <ele>435.058</ele>
        <time>2022-08-24T17:01:59Z</time>
      </trkpt>
      <trkpt lat="42.83161499999998" lon="-1.602442999999997">
        <ele>435.067</ele>
        <time>2022-08-24T17:02:00Z</time>
      </trkpt>
      <trkpt lat="42.83159399999998" lon="-1.6024519999999969">
        <ele>434.896</ele>
        <time>2022-08-24T17:02:01Z</time>
      </trkpt>
      <trkpt lat="42.831575999999984" lon="-1.6024549999999969">
        <ele>434.831</ele>
        <time>2022-08-24T17:02:02Z</time>
      </trkpt>
      <trkpt lat="42.83155399999998" lon="-1.6024609999999968">
        <ele>434.824</ele>
        <time>2022-08-24T17:02:03Z</time>
      </trkpt>
      <trkpt lat="42.831535999999986" lon="-1.6024739999999968">
        <ele>434.809</ele>
        <time>2022-08-24T17:02:04Z</time>
      </trkpt>
      <trkpt lat="42.831521999999985" lon="-1.6024849999999968">
        <ele>434.640</ele>
        <time>2022-08-24T17:02:07Z</time>
      </trkpt>
      <trkpt lat="42.83151299999999" lon="-1.6024909999999968">
        <ele>434.660</ele>
        <time>2022-08-24T17:02:08Z</time>
      </trkpt>
      <trkpt lat="42.831504999999986" lon="-1.6025029999999967">
        <ele>434.650</ele>
        <time>2022-08-24T17:02:09Z</time>
      </trkpt>
      <trkpt lat="42.83145299999999" lon="-1.6025539999999967">
        <ele>434.666</ele>
        <time>2022-08-24T17:02:12Z</time>
      </trkpt>
      <trkpt lat="42.83133499999999" lon="-1.6026889999999967">
        <ele>434.438</ele>
        <time>2022-08-24T17:02:16Z</time>
      </trkpt>
      <trkpt lat="42.83129899999999" lon="-1.6027189999999967">
        <ele>434.415</ele>
        <time>2022-08-24T17:02:17Z</time>
      </trkpt>
      <trkpt lat="42.831195999999984" lon="-1.6028069999999968">
        <ele>434.848</ele>
        <time>2022-08-24T17:02:20Z</time>
      </trkpt>
      <trkpt lat="42.831152999999986" lon="-1.6028419999999968">
        <ele>434.822</ele>
        <time>2022-08-24T17:02:21Z</time>
      </trkpt>
      <trkpt lat="42.831113999999985" lon="-1.6028689999999968">
        <ele>434.881</ele>
        <time>2022-08-24T17:02:22Z</time>
      </trkpt>
      <trkpt lat="42.83108499999999" lon="-1.6028899999999968">
        <ele>434.846</ele>
        <time>2022-08-24T17:02:23Z</time>
      </trkpt>
      <trkpt lat="42.83105099999999" lon="-1.602915999999997">
        <ele>434.688</ele>
        <time>2022-08-24T17:02:24Z</time>
      </trkpt>
      <trkpt lat="42.83101899999999" lon="-1.602941999999997">
        <ele>434.816</ele>
        <time>2022-08-24T17:02:25Z</time>
      </trkpt>
      <trkpt lat="42.83098199999999" lon="-1.602974999999997">
        <ele>435.009</ele>
        <time>2022-08-24T17:02:26Z</time>
      </trkpt>
      <trkpt lat="42.83095399999999" lon="-1.6030029999999968">
        <ele>434.835</ele>
        <time>2022-08-24T17:02:27Z</time>
      </trkpt>
      <trkpt lat="42.83093199999999" lon="-1.603025999999997">
        <ele>435.015</ele>
        <time>2022-08-24T17:02:28Z</time>
      </trkpt>
      <trkpt lat="42.83082599999999" lon="-1.603105999999997">
        <ele>434.655</ele>
        <time>2022-08-24T17:02:31Z</time>
      </trkpt>
      <trkpt lat="42.83079399999999" lon="-1.6031319999999971">
        <ele>434.691</ele>
        <time>2022-08-24T17:02:32Z</time>
      </trkpt>
      <trkpt lat="42.83076799999999" lon="-1.603151999999997">
        <ele>434.483</ele>
        <time>2022-08-24T17:02:33Z</time>
      </trkpt>
      <trkpt lat="42.83073699999999" lon="-1.603175999999997">
        <ele>434.430</ele>
        <time>2022-08-24T17:02:34Z</time>
      </trkpt>
      <trkpt lat="42.83070699999999" lon="-1.603202999999997">
        <ele>434.463</ele>
        <time>2022-08-24T17:02:35Z</time>
      </trkpt>
      <trkpt lat="42.83067399999999" lon="-1.603230999999997">
        <ele>434.247</ele>
        <time>2022-08-24T17:02:36Z</time>
      </trkpt>
      <trkpt lat="42.830646999999985" lon="-1.603248999999997">
        <ele>434.266</ele>
        <time>2022-08-24T17:02:37Z</time>
      </trkpt>
      <trkpt lat="42.83062499999998" lon="-1.603260999999997">
        <ele>434.288</ele>
        <time>2022-08-24T17:02:38Z</time>
      </trkpt>
      <trkpt lat="42.83060099999998" lon="-1.603275999999997">
        <ele>434.224</ele>
        <time>2022-08-24T17:02:39Z</time>
      </trkpt>
      <trkpt lat="42.83058299999998" lon="-1.603293999999997">
        <ele>434.226</ele>
        <time>2022-08-24T17:02:40Z</time>
      </trkpt>
      <trkpt lat="42.83055899999998" lon="-1.603315999999997">
        <ele>434.209</ele>
        <time>2022-08-24T17:02:41Z</time>
      </trkpt>
      <trkpt lat="42.83049699999998" lon="-1.603370999999997">
        <ele>434.269</ele>
        <time>2022-08-24T17:02:44Z</time>
      </trkpt>
      <trkpt lat="42.83047599999998" lon="-1.603387999999997">
        <ele>434.219</ele>
        <time>2022-08-24T17:02:45Z</time>
      </trkpt>
      <trkpt lat="42.83044899999998" lon="-1.603400999999997">
        <ele>434.229</ele>
        <time>2022-08-24T17:02:46Z</time>
      </trkpt>
      <trkpt lat="42.83042699999998" lon="-1.603410999999997">
        <ele>434.245</ele>
        <time>2022-08-24T17:02:47Z</time>
      </trkpt>
      <trkpt lat="42.83039199999998" lon="-1.603439999999997">
        <ele>434.487</ele>
        <time>2022-08-24T17:02:49Z</time>
      </trkpt>
      <trkpt lat="42.83037499999998" lon="-1.603456999999997">
        <ele>434.454</ele>
        <time>2022-08-24T17:02:50Z</time>
      </trkpt>
      <trkpt lat="42.83035499999998" lon="-1.603473999999997">
        <ele>434.457</ele>
        <time>2022-08-24T17:02:51Z</time>
      </trkpt>
      <trkpt lat="42.83034499999998" lon="-1.603484999999997">
        <ele>434.481</ele>
        <time>2022-08-24T17:02:52Z</time>
      </trkpt>
      <trkpt lat="42.83032799999998" lon="-1.603498999999997">
        <ele>434.690</ele>
        <time>2022-08-24T17:02:53Z</time>
      </trkpt>
      <trkpt lat="42.83031599999998" lon="-1.603505999999997">
        <ele>434.675</ele>
        <time>2022-08-24T17:02:54Z</time>
      </trkpt>
      <trkpt lat="42.830303999999984" lon="-1.603513999999997">
        <ele>434.628</ele>
        <time>2022-08-24T17:02:55Z</time>
      </trkpt>
      <trkpt lat="42.83031399999999" lon="-1.603565999999997">
        <ele>434.420</ele>
        <time>2022-08-24T17:03:06Z</time>
      </trkpt>
      <trkpt lat="42.830319999999986" lon="-1.603586999999997">
        <ele>434.409</ele>
        <time>2022-08-24T17:03:07Z</time>
      </trkpt>
      <trkpt lat="42.830320999999984" lon="-1.603611999999997">
        <ele>434.488</ele>
        <time>2022-08-24T17:03:08Z</time>
      </trkpt>
      <trkpt lat="42.830311999999985" lon="-1.6036369999999969">
        <ele>434.268</ele>
        <time>2022-08-24T17:03:09Z</time>
      </trkpt>
      <trkpt lat="42.83029699999999" lon="-1.6036589999999968">
        <ele>434.268</ele>
        <time>2022-08-24T17:03:10Z</time>
      </trkpt>
      <trkpt lat="42.83027899999999" lon="-1.6036829999999969">
        <ele>434.084</ele>
        <time>2022-08-24T17:03:11Z</time>
      </trkpt>
      <trkpt lat="42.83024699999999" lon="-1.6037339999999969">
        <ele>434.066</ele>
        <time>2022-08-24T17:03:13Z</time>
      </trkpt>
      <trkpt lat="42.830237999999994" lon="-1.6037619999999968">
        <ele>434.023</ele>
        <time>2022-08-24T17:03:14Z</time>
      </trkpt>
      <trkpt lat="42.830228999999996" lon="-1.6037879999999969">
        <ele>434.046</ele>
        <time>2022-08-24T17:03:15Z</time>
      </trkpt>
      <trkpt lat="42.830225999999996" lon="-1.603811999999997">
        <ele>434.040</ele>
        <time>2022-08-24T17:03:16Z</time>
      </trkpt>
      <trkpt lat="42.830219" lon="-1.603835999999997">
        <ele>434.049</ele>
        <time>2022-08-24T17:03:17Z</time>
      </trkpt>
      <trkpt lat="42.830188" lon="-1.603873999999997">
        <ele>433.874</ele>
        <time>2022-08-24T17:03:19Z</time>
      </trkpt>
      <trkpt lat="42.830177" lon="-1.603888999999997">
        <ele>433.856</ele>
        <time>2022-08-24T17:03:20Z</time>
      </trkpt>
      <trkpt lat="42.830166999999996" lon="-1.603908999999997">
        <ele>433.821</ele>
        <time>2022-08-24T17:03:21Z</time>
      </trkpt>
      <trkpt lat="42.830161999999994" lon="-1.6039149999999969">
        <ele>433.809</ele>
        <time>2022-08-24T17:03:22Z</time>
      </trkpt>
      <trkpt lat="42.830155" lon="-1.603927999999997">
        <ele>433.898</ele>
        <time>2022-08-24T17:03:24Z</time>
      </trkpt>
      <trkpt lat="42.830135999999996" lon="-1.6039339999999969">
        <ele>433.848</ele>
        <time>2022-08-24T17:03:26Z</time>
      </trkpt>
      <trkpt lat="42.830118" lon="-1.603951999999997">
        <ele>433.838</ele>
        <time>2022-08-24T17:03:35Z</time>
      </trkpt>
      <trkpt lat="42.83009" lon="-1.6039989999999968">
        <ele>433.884</ele>
        <time>2022-08-24T17:03:38Z</time>
      </trkpt>
      <trkpt lat="42.830076" lon="-1.6040129999999968">
        <ele>433.876</ele>
        <time>2022-08-24T17:03:39Z</time>
      </trkpt>
      <trkpt lat="42.830048" lon="-1.6040669999999968">
        <ele>433.863</ele>
        <time>2022-08-24T17:03:41Z</time>
      </trkpt>
      <trkpt lat="42.829971" lon="-1.6042029999999967">
        <ele>433.856</ele>
        <time>2022-08-24T17:03:45Z</time>
      </trkpt>
      <trkpt lat="42.829943" lon="-1.6042339999999966">
        <ele>433.810</ele>
        <time>2022-08-24T17:03:46Z</time>
      </trkpt>
      <trkpt lat="42.829906" lon="-1.6042659999999966">
        <ele>433.819</ele>
        <time>2022-08-24T17:03:47Z</time>
      </trkpt>
      <trkpt lat="42.829886" lon="-1.6042859999999965">
        <ele>433.822</ele>
        <time>2022-08-24T17:03:48Z</time>
      </trkpt>
      <trkpt lat="42.829865000000005" lon="-1.6043169999999964">
        <ele>433.862</ele>
        <time>2022-08-24T17:03:49Z</time>
      </trkpt>
      <trkpt lat="42.829843000000004" lon="-1.6043459999999965">
        <ele>433.808</ele>
        <time>2022-08-24T17:03:50Z</time>
      </trkpt>
      <trkpt lat="42.829820000000005" lon="-1.6043729999999965">
        <ele>433.809</ele>
        <time>2022-08-24T17:03:51Z</time>
      </trkpt>
      <trkpt lat="42.829796" lon="-1.6043969999999965">
        <ele>433.873</ele>
        <time>2022-08-24T17:03:52Z</time>
      </trkpt>
      <trkpt lat="42.829767000000004" lon="-1.6044269999999965">
        <ele>433.873</ele>
        <time>2022-08-24T17:03:53Z</time>
      </trkpt>
      <trkpt lat="42.829745" lon="-1.6044499999999966">
        <ele>433.833</ele>
        <time>2022-08-24T17:03:54Z</time>
      </trkpt>
      <trkpt lat="42.829729" lon="-1.6044749999999965">
        <ele>433.899</ele>
        <time>2022-08-24T17:03:55Z</time>
      </trkpt>
      <trkpt lat="42.829716" lon="-1.6044989999999966">
        <ele>433.831</ele>
        <time>2022-08-24T17:03:56Z</time>
      </trkpt>
      <trkpt lat="42.829713999999996" lon="-1.6045349999999965">
        <ele>433.848</ele>
        <time>2022-08-24T17:03:57Z</time>
      </trkpt>
      <trkpt lat="42.829705" lon="-1.6045709999999964">
        <ele>433.851</ele>
        <time>2022-08-24T17:03:58Z</time>
      </trkpt>
      <trkpt lat="42.829691" lon="-1.6045799999999963">
        <ele>433.855</ele>
        <time>2022-08-24T17:03:59Z</time>
      </trkpt>
      <trkpt lat="42.829668999999996" lon="-1.6045979999999964">
        <ele>433.834</ele>
        <time>2022-08-24T17:04:00Z</time>
      </trkpt>
      <trkpt lat="42.829654999999995" lon="-1.6046179999999963">
        <ele>433.866</ele>
        <time>2022-08-24T17:04:01Z</time>
      </trkpt>
      <trkpt lat="42.82964199999999" lon="-1.6046389999999964">
        <ele>433.829</ele>
        <time>2022-08-24T17:04:02Z</time>
      </trkpt>
      <trkpt lat="42.829626999999995" lon="-1.6046589999999963">
        <ele>433.821</ele>
        <time>2022-08-24T17:04:03Z</time>
      </trkpt>
      <trkpt lat="42.82961699999999" lon="-1.6046709999999962">
        <ele>433.809</ele>
        <time>2022-08-24T17:04:04Z</time>
      </trkpt>
      <trkpt lat="42.82960799999999" lon="-1.6046879999999961">
        <ele>433.837</ele>
        <time>2022-08-24T17:04:05Z</time>
      </trkpt>
      <trkpt lat="42.82960299999999" lon="-1.604704999999996">
        <ele>433.817</ele>
        <time>2022-08-24T17:04:06Z</time>
      </trkpt>
      <trkpt lat="42.82959999999999" lon="-1.604718999999996">
        <ele>433.857</ele>
        <time>2022-08-24T17:04:07Z</time>
      </trkpt>
      <trkpt lat="42.82956199999999" lon="-1.604725999999996">
        <ele>433.833</ele>
        <time>2022-08-24T17:04:19Z</time>
      </trkpt>
      <trkpt lat="42.82954999999999" lon="-1.6047219999999962">
        <ele>433.885</ele>
        <time>2022-08-24T17:04:20Z</time>
      </trkpt>
      <trkpt lat="42.82949899999999" lon="-1.6047169999999962">
        <ele>433.812</ele>
        <time>2022-08-24T17:04:23Z</time>
      </trkpt>
      <trkpt lat="42.82948699999999" lon="-1.6047279999999962">
        <ele>433.885</ele>
        <time>2022-08-24T17:04:24Z</time>
      </trkpt>
      <trkpt lat="42.82947899999999" lon="-1.604739999999996">
        <ele>434.029</ele>
        <time>2022-08-24T17:04:25Z</time>
      </trkpt>
      <trkpt lat="42.82946999999999" lon="-1.604752999999996">
        <ele>434.078</ele>
        <time>2022-08-24T17:04:26Z</time>
      </trkpt>
      <trkpt lat="42.829457999999995" lon="-1.6047629999999962">
        <ele>434.086</ele>
        <time>2022-08-24T17:04:27Z</time>
      </trkpt>
      <trkpt lat="42.82944199999999" lon="-1.604766999999996">
        <ele>434.060</ele>
        <time>2022-08-24T17:04:28Z</time>
      </trkpt>
      <trkpt lat="42.82942599999999" lon="-1.604766999999996">
        <ele>434.026</ele>
        <time>2022-08-24T17:04:29Z</time>
      </trkpt>
      <trkpt lat="42.82941699999999" lon="-1.604764999999996">
        <ele>434.009</ele>
        <time>2022-08-24T17:04:30Z</time>
      </trkpt>
      <trkpt lat="42.829404999999994" lon="-1.604760999999996">
        <ele>434.029</ele>
        <time>2022-08-24T17:04:31Z</time>
      </trkpt>
      <trkpt lat="42.82939199999999" lon="-1.6047579999999961">
        <ele>434.099</ele>
        <time>2022-08-24T17:04:32Z</time>
      </trkpt>
      <trkpt lat="42.829373999999994" lon="-1.6047569999999962">
        <ele>434.059</ele>
        <time>2022-08-24T17:04:33Z</time>
      </trkpt>
      <trkpt lat="42.829238999999994" lon="-1.6047929999999961">
        <ele>433.655</ele>
        <time>2022-08-24T17:04:40Z</time>
      </trkpt>
      <trkpt lat="42.82921499999999" lon="-1.604804999999996">
        <ele>433.417</ele>
        <time>2022-08-24T17:04:41Z</time>
      </trkpt>
      <trkpt lat="42.82915999999999" lon="-1.604828999999996">
        <ele>433.264</ele>
        <time>2022-08-24T17:04:43Z</time>
      </trkpt>
      <trkpt lat="42.829140999999986" lon="-1.604840999999996">
        <ele>433.027</ele>
        <time>2022-08-24T17:04:44Z</time>
      </trkpt>
      <trkpt lat="42.82912899999999" lon="-1.604855999999996">
        <ele>433.041</ele>
        <time>2022-08-24T17:04:45Z</time>
      </trkpt>
      <trkpt lat="42.829115999999985" lon="-1.604872999999996">
        <ele>433.040</ele>
        <time>2022-08-24T17:04:46Z</time>
      </trkpt>
      <trkpt lat="42.82910299999998" lon="-1.604884999999996">
        <ele>433.018</ele>
        <time>2022-08-24T17:04:47Z</time>
      </trkpt>
      <trkpt lat="42.82908699999998" lon="-1.604903999999996">
        <ele>432.898</ele>
        <time>2022-08-24T17:04:48Z</time>
      </trkpt>
      <trkpt lat="42.82907199999998" lon="-1.6049179999999958">
        <ele>432.617</ele>
        <time>2022-08-24T17:04:49Z</time>
      </trkpt>
      <trkpt lat="42.82905599999998" lon="-1.6049209999999958">
        <ele>432.609</ele>
        <time>2022-08-24T17:04:50Z</time>
      </trkpt>
      <trkpt lat="42.82903699999998" lon="-1.6049159999999958">
        <ele>432.642</ele>
        <time>2022-08-24T17:04:51Z</time>
      </trkpt>
      <trkpt lat="42.829023999999976" lon="-1.6049079999999958">
        <ele>432.662</ele>
        <time>2022-08-24T17:04:52Z</time>
      </trkpt>
      <trkpt lat="42.829009999999975" lon="-1.6048999999999958">
        <ele>432.462</ele>
        <time>2022-08-24T17:04:53Z</time>
      </trkpt>
      <trkpt lat="42.82899499999998" lon="-1.6048879999999959">
        <ele>432.458</ele>
        <time>2022-08-24T17:04:54Z</time>
      </trkpt>
      <trkpt lat="42.82897699999998" lon="-1.6048719999999959">
        <ele>432.430</ele>
        <time>2022-08-24T17:04:55Z</time>
      </trkpt>
      <trkpt lat="42.82895699999998" lon="-1.6048569999999958">
        <ele>432.457</ele>
        <time>2022-08-24T17:04:56Z</time>
      </trkpt>
      <trkpt lat="42.82892099999998" lon="-1.6048219999999958">
        <ele>432.460</ele>
        <time>2022-08-24T17:04:58Z</time>
      </trkpt>
      <trkpt lat="42.82891499999998" lon="-1.6047999999999958">
        <ele>432.664</ele>
        <time>2022-08-24T17:04:59Z</time>
      </trkpt>
      <trkpt lat="42.82890499999998" lon="-1.6047839999999958">
        <ele>432.663</ele>
        <time>2022-08-24T17:05:00Z</time>
      </trkpt>
      <trkpt lat="42.828882999999976" lon="-1.6047749999999958">
        <ele>432.654</ele>
        <time>2022-08-24T17:05:01Z</time>
      </trkpt>
      <trkpt lat="42.82886299999998" lon="-1.604770999999996">
        <ele>432.856</ele>
        <time>2022-08-24T17:05:02Z</time>
      </trkpt>
      <trkpt lat="42.82885399999998" lon="-1.604773999999996">
        <ele>432.811</ele>
        <time>2022-08-24T17:05:03Z</time>
      </trkpt>
      <trkpt lat="42.82883899999998" lon="-1.604784999999996">
        <ele>432.809</ele>
        <time>2022-08-24T17:05:04Z</time>
      </trkpt>
      <trkpt lat="42.82878199999998" lon="-1.6048149999999959">
        <ele>432.826</ele>
        <time>2022-08-24T17:05:07Z</time>
      </trkpt>
      <trkpt lat="42.82876499999998" lon="-1.604813999999996">
        <ele>433.096</ele>
        <time>2022-08-24T17:05:08Z</time>
      </trkpt>
      <trkpt lat="42.82872599999998" lon="-1.604812999999996">
        <ele>433.046</ele>
        <time>2022-08-24T17:05:10Z</time>
      </trkpt>
      <trkpt lat="42.82870599999998" lon="-1.6048119999999961">
        <ele>433.032</ele>
        <time>2022-08-24T17:05:11Z</time>
      </trkpt>
      <trkpt lat="42.82868199999998" lon="-1.604815999999996">
        <ele>433.094</ele>
        <time>2022-08-24T17:05:12Z</time>
      </trkpt>
      <trkpt lat="42.82866099999998" lon="-1.604821999999996">
        <ele>433.071</ele>
        <time>2022-08-24T17:05:13Z</time>
      </trkpt>
      <trkpt lat="42.82860799999998" lon="-1.604846999999996">
        <ele>433.064</ele>
        <time>2022-08-24T17:05:15Z</time>
      </trkpt>
      <trkpt lat="42.82848899999998" lon="-1.604915999999996">
        <ele>432.848</ele>
        <time>2022-08-24T17:05:20Z</time>
      </trkpt>
      <trkpt lat="42.82847799999998" lon="-1.604923999999996">
        <ele>432.857</ele>
        <time>2022-08-24T17:05:21Z</time>
      </trkpt>
      <trkpt lat="42.82846699999998" lon="-1.604927999999996">
        <ele>432.872</ele>
        <time>2022-08-24T17:05:22Z</time>
      </trkpt>
      <trkpt lat="42.828459999999986" lon="-1.6049319999999958">
        <ele>432.213</ele>
        <time>2022-08-24T17:05:39Z</time>
      </trkpt>
      <trkpt lat="42.828344999999985" lon="-1.6049529999999959">
        <ele>432.414</ele>
        <time>2022-08-24T17:05:43Z</time>
      </trkpt>
      <trkpt lat="42.82830899999998" lon="-1.6049609999999959">
        <ele>432.409</ele>
        <time>2022-08-24T17:05:44Z</time>
      </trkpt>
      <trkpt lat="42.82823999999998" lon="-1.6049729999999958">
        <ele>432.458</ele>
        <time>2022-08-24T17:05:46Z</time>
      </trkpt>
      <trkpt lat="42.82819599999998" lon="-1.6049739999999957">
        <ele>432.438</ele>
        <time>2022-08-24T17:05:47Z</time>
      </trkpt>
      <trkpt lat="42.828044999999975" lon="-1.6050399999999956">
        <ele>432.238</ele>
        <time>2022-08-24T17:05:51Z</time>
      </trkpt>
      <trkpt lat="42.82801299999998" lon="-1.6050569999999955">
        <ele>432.234</ele>
        <time>2022-08-24T17:05:52Z</time>
      </trkpt>
      <trkpt lat="42.827985999999974" lon="-1.6050749999999956">
        <ele>432.276</ele>
        <time>2022-08-24T17:05:53Z</time>
      </trkpt>
      <trkpt lat="42.82794799999997" lon="-1.6050959999999956">
        <ele>432.233</ele>
        <time>2022-08-24T17:05:54Z</time>
      </trkpt>
      <trkpt lat="42.82791499999997" lon="-1.6051189999999957">
        <ele>432.236</ele>
        <time>2022-08-24T17:05:55Z</time>
      </trkpt>
      <trkpt lat="42.82789199999997" lon="-1.6051269999999958">
        <ele>432.280</ele>
        <time>2022-08-24T17:05:56Z</time>
      </trkpt>
      <trkpt lat="42.82786799999997" lon="-1.6051319999999958">
        <ele>432.039</ele>
        <time>2022-08-24T17:05:57Z</time>
      </trkpt>
      <trkpt lat="42.82784799999997" lon="-1.6051419999999958">
        <ele>432.066</ele>
        <time>2022-08-24T17:05:58Z</time>
      </trkpt>
      <trkpt lat="42.82770699999997" lon="-1.6052209999999958">
        <ele>432.029</ele>
        <time>2022-08-24T17:06:03Z</time>
      </trkpt>
      <trkpt lat="42.827662999999966" lon="-1.6052649999999957">
        <ele>432.221</ele>
        <time>2022-08-24T17:06:05Z</time>
      </trkpt>
      <trkpt lat="42.82764199999997" lon="-1.6052849999999956">
        <ele>432.009</ele>
        <time>2022-08-24T17:06:06Z</time>
      </trkpt>
      <trkpt lat="42.82762299999997" lon="-1.6053039999999956">
        <ele>432.287</ele>
        <time>2022-08-24T17:06:07Z</time>
      </trkpt>
      <trkpt lat="42.827614999999966" lon="-1.6053139999999957">
        <ele>432.267</ele>
        <time>2022-08-24T17:06:08Z</time>
      </trkpt>
      <trkpt lat="42.82760599999997" lon="-1.6053299999999957">
        <ele>432.277</ele>
        <time>2022-08-24T17:06:09Z</time>
      </trkpt>
      <trkpt lat="42.82759899999997" lon="-1.6053429999999957">
        <ele>432.263</ele>
        <time>2022-08-24T17:06:10Z</time>
      </trkpt>
      <trkpt lat="42.827591999999974" lon="-1.6053519999999957">
        <ele>432.465</ele>
        <time>2022-08-24T17:06:11Z</time>
      </trkpt>
      <trkpt lat="42.82758699999997" lon="-1.6053619999999957">
        <ele>433.012</ele>
        <time>2022-08-24T17:06:18Z</time>
      </trkpt>
      <trkpt lat="42.82757699999997" lon="-1.6053839999999957">
        <ele>433.225</ele>
        <time>2022-08-24T17:06:20Z</time>
      </trkpt>
      <trkpt lat="42.82755699999997" lon="-1.6054089999999956">
        <ele>433.499</ele>
        <time>2022-08-24T17:06:23Z</time>
      </trkpt>
      <trkpt lat="42.82754699999997" lon="-1.6054179999999956">
        <ele>433.468</ele>
        <time>2022-08-24T17:06:24Z</time>
      </trkpt>
      <trkpt lat="42.82753499999997" lon="-1.6054249999999957">
        <ele>433.488</ele>
        <time>2022-08-24T17:06:25Z</time>
      </trkpt>
      <trkpt lat="42.82752799999997" lon="-1.6054439999999957">
        <ele>433.624</ele>
        <time>2022-08-24T17:06:26Z</time>
      </trkpt>
      <trkpt lat="42.827518999999974" lon="-1.6054599999999957">
        <ele>433.626</ele>
        <time>2022-08-24T17:06:27Z</time>
      </trkpt>
      <trkpt lat="42.827509999999975" lon="-1.6054719999999956">
        <ele>433.609</ele>
        <time>2022-08-24T17:06:28Z</time>
      </trkpt>
      <trkpt lat="42.82751199999998" lon="-1.6054809999999955">
        <ele>433.859</ele>
        <time>2022-08-24T17:06:29Z</time>
      </trkpt>
      <trkpt lat="42.827512999999975" lon="-1.6054979999999954">
        <ele>433.839</ele>
        <time>2022-08-24T17:06:30Z</time>
      </trkpt>
      <trkpt lat="42.827501999999974" lon="-1.6055519999999954">
        <ele>434.039</ele>
        <time>2022-08-24T17:06:33Z</time>
      </trkpt>
      <trkpt lat="42.827495999999975" lon="-1.6055609999999954">
        <ele>434.235</ele>
        <time>2022-08-24T17:06:35Z</time>
      </trkpt>
      <trkpt lat="42.827490999999974" lon="-1.6055689999999954">
        <ele>434.437</ele>
        <time>2022-08-24T17:06:36Z</time>
      </trkpt>
      <trkpt lat="42.827484999999974" lon="-1.6055799999999953">
        <ele>434.664</ele>
        <time>2022-08-24T17:06:37Z</time>
      </trkpt>
      <trkpt lat="42.82748099999998" lon="-1.6055919999999952">
        <ele>434.827</ele>
        <time>2022-08-24T17:06:38Z</time>
      </trkpt>
      <trkpt lat="42.827478999999975" lon="-1.6056039999999951">
        <ele>435.061</ele>
        <time>2022-08-24T17:06:39Z</time>
      </trkpt>
      <trkpt lat="42.82747799999998" lon="-1.6056199999999952">
        <ele>435.080</ele>
        <time>2022-08-24T17:06:40Z</time>
      </trkpt>
      <trkpt lat="42.82747999999998" lon="-1.6056359999999952">
        <ele>435.447</ele>
        <time>2022-08-24T17:06:41Z</time>
      </trkpt>
      <trkpt lat="42.82748399999998" lon="-1.6056529999999951">
        <ele>435.429</ele>
        <time>2022-08-24T17:06:42Z</time>
      </trkpt>
      <trkpt lat="42.82748299999998" lon="-1.605663999999995">
        <ele>435.621</ele>
        <time>2022-08-24T17:06:43Z</time>
      </trkpt>
      <trkpt lat="42.82747999999998" lon="-1.605672999999995">
        <ele>435.609</ele>
        <time>2022-08-24T17:06:44Z</time>
      </trkpt>
      <trkpt lat="42.82747999999998" lon="-1.605685999999995">
        <ele>435.855</ele>
        <time>2022-08-24T17:06:45Z</time>
      </trkpt>
      <trkpt lat="42.82747699999998" lon="-1.605710999999995">
        <ele>435.845</ele>
        <time>2022-08-24T17:06:47Z</time>
      </trkpt>
      <trkpt lat="42.82747599999998" lon="-1.605719999999995">
        <ele>436.095</ele>
        <time>2022-08-24T17:06:50Z</time>
      </trkpt>
      <trkpt lat="42.827474999999986" lon="-1.605730999999995">
        <ele>436.071</ele>
        <time>2022-08-24T17:06:51Z</time>
      </trkpt>
      <trkpt lat="42.82747599999998" lon="-1.605748999999995">
        <ele>436.063</ele>
        <time>2022-08-24T17:06:52Z</time>
      </trkpt>
      <trkpt lat="42.827477999999985" lon="-1.605762999999995">
        <ele>436.080</ele>
        <time>2022-08-24T17:06:53Z</time>
      </trkpt>
      <trkpt lat="42.82747699999999" lon="-1.605775999999995">
        <ele>436.083</ele>
        <time>2022-08-24T17:06:54Z</time>
      </trkpt>
      <trkpt lat="42.82746799999999" lon="-1.605923999999995">
        <ele>436.077</ele>
        <time>2022-08-24T17:06:59Z</time>
      </trkpt>
      <trkpt lat="42.82746499999999" lon="-1.605972999999995">
        <ele>436.026</ele>
        <time>2022-08-24T17:07:00Z</time>
      </trkpt>
      <trkpt lat="42.82743499999999" lon="-1.606123999999995">
        <ele>435.832</ele>
        <time>2022-08-24T17:07:03Z</time>
      </trkpt>
      <trkpt lat="42.82741999999999" lon="-1.606163999999995">
        <ele>435.492</ele>
        <time>2022-08-24T17:07:04Z</time>
      </trkpt>
      <trkpt lat="42.82740299999999" lon="-1.6061899999999951">
        <ele>435.211</ele>
        <time>2022-08-24T17:07:05Z</time>
      </trkpt>
      <trkpt lat="42.82738599999999" lon="-1.6062059999999951">
        <ele>434.809</ele>
        <time>2022-08-24T17:07:06Z</time>
      </trkpt>
      <trkpt lat="42.82736399999999" lon="-1.606222999999995">
        <ele>434.684</ele>
        <time>2022-08-24T17:07:07Z</time>
      </trkpt>
      <trkpt lat="42.827350999999986" lon="-1.6062329999999951">
        <ele>434.424</ele>
        <time>2022-08-24T17:07:08Z</time>
      </trkpt>
      <trkpt lat="42.82734199999999" lon="-1.606241999999995">
        <ele>434.444</ele>
        <time>2022-08-24T17:07:09Z</time>
      </trkpt>
      <trkpt lat="42.827333999999986" lon="-1.606250999999995">
        <ele>434.490</ele>
        <time>2022-08-24T17:07:10Z</time>
      </trkpt>
      <trkpt lat="42.82732099999998" lon="-1.606262999999995">
        <ele>434.232</ele>
        <time>2022-08-24T17:07:11Z</time>
      </trkpt>
      <trkpt lat="42.827294999999985" lon="-1.606280999999995">
        <ele>434.249</ele>
        <time>2022-08-24T17:07:12Z</time>
      </trkpt>
      <trkpt lat="42.827277999999986" lon="-1.606299999999995">
        <ele>434.242</ele>
        <time>2022-08-24T17:07:13Z</time>
      </trkpt>
      <trkpt lat="42.82720699999999" lon="-1.606367999999995">
        <ele>434.496</ele>
        <time>2022-08-24T17:07:16Z</time>
      </trkpt>
      <trkpt lat="42.827181999999986" lon="-1.606405999999995">
        <ele>434.445</ele>
        <time>2022-08-24T17:07:17Z</time>
      </trkpt>
      <trkpt lat="42.827091999999986" lon="-1.6065519999999949">
        <ele>434.031</ele>
        <time>2022-08-24T17:07:20Z</time>
      </trkpt>
      <trkpt lat="42.82705399999998" lon="-1.6066139999999949">
        <ele>433.661</ele>
        <time>2022-08-24T17:07:21Z</time>
      </trkpt>
      <trkpt lat="42.82700999999998" lon="-1.6066789999999949">
        <ele>433.407</ele>
        <time>2022-08-24T17:07:22Z</time>
      </trkpt>
      <trkpt lat="42.82696999999998" lon="-1.6067359999999948">
        <ele>432.809</ele>
        <time>2022-08-24T17:07:23Z</time>
      </trkpt>
      <trkpt lat="42.82693399999998" lon="-1.606780999999995">
        <ele>432.684</ele>
        <time>2022-08-24T17:07:24Z</time>
      </trkpt>
      <trkpt lat="42.82690799999998" lon="-1.6068139999999949">
        <ele>432.414</ele>
        <time>2022-08-24T17:07:25Z</time>
      </trkpt>
      <trkpt lat="42.826886999999985" lon="-1.6068729999999949">
        <ele>432.024</ele>
        <time>2022-08-24T17:07:26Z</time>
      </trkpt>
      <trkpt lat="42.82686099999999" lon="-1.606949999999995">
        <ele>431.850</ele>
        <time>2022-08-24T17:07:28Z</time>
      </trkpt>
      <trkpt lat="42.826844999999985" lon="-1.606985999999995">
        <ele>431.682</ele>
        <time>2022-08-24T17:07:29Z</time>
      </trkpt>
      <trkpt lat="42.826819999999984" lon="-1.607022999999995">
        <ele>431.429</ele>
        <time>2022-08-24T17:07:30Z</time>
      </trkpt>
      <trkpt lat="42.826793999999985" lon="-1.607059999999995">
        <ele>431.492</ele>
        <time>2022-08-24T17:07:31Z</time>
      </trkpt>
      <trkpt lat="42.82677099999999" lon="-1.607089999999995">
        <ele>431.446</ele>
        <time>2022-08-24T17:07:32Z</time>
      </trkpt>
      <trkpt lat="42.826743999999984" lon="-1.607121999999995">
        <ele>431.235</ele>
        <time>2022-08-24T17:07:33Z</time>
      </trkpt>
      <trkpt lat="42.82672599999999" lon="-1.607145999999995">
        <ele>431.282</ele>
        <time>2022-08-24T17:07:34Z</time>
      </trkpt>
      <trkpt lat="42.82670799999999" lon="-1.6071719999999952">
        <ele>431.243</ele>
        <time>2022-08-24T17:07:35Z</time>
      </trkpt>
      <trkpt lat="42.82665799999999" lon="-1.6072339999999952">
        <ele>431.217</ele>
        <time>2022-08-24T17:07:37Z</time>
      </trkpt>
      <trkpt lat="42.82660099999999" lon="-1.6073119999999952">
        <ele>431.209</ele>
        <time>2022-08-24T17:07:39Z</time>
      </trkpt>
      <trkpt lat="42.826562999999986" lon="-1.6073559999999951">
        <ele>431.239</ele>
        <time>2022-08-24T17:07:40Z</time>
      </trkpt>
      <trkpt lat="42.82652899999999" lon="-1.6074089999999952">
        <ele>431.299</ele>
        <time>2022-08-24T17:07:41Z</time>
      </trkpt>
      <trkpt lat="42.826500999999986" lon="-1.6074569999999953">
        <ele>431.069</ele>
        <time>2022-08-24T17:07:42Z</time>
      </trkpt>
      <trkpt lat="42.82648299999999" lon="-1.6074919999999953">
        <ele>431.085</ele>
        <time>2022-08-24T17:07:43Z</time>
      </trkpt>
      <trkpt lat="42.82646499999999" lon="-1.6075269999999953">
        <ele>431.087</ele>
        <time>2022-08-24T17:07:44Z</time>
      </trkpt>
      <trkpt lat="42.82644599999999" lon="-1.6075569999999952">
        <ele>431.054</ele>
        <time>2022-08-24T17:07:45Z</time>
      </trkpt>
      <trkpt lat="42.82642999999999" lon="-1.6075929999999952">
        <ele>431.227</ele>
        <time>2022-08-24T17:07:46Z</time>
      </trkpt>
      <trkpt lat="42.82637299999999" lon="-1.6076619999999953">
        <ele>431.211</ele>
        <time>2022-08-24T17:07:48Z</time>
      </trkpt>
      <trkpt lat="42.82625799999999" lon="-1.6078889999999952">
        <ele>431.480</ele>
        <time>2022-08-24T17:07:52Z</time>
      </trkpt>
      <trkpt lat="42.82623299999999" lon="-1.6079279999999951">
        <ele>431.484</ele>
        <time>2022-08-24T17:07:53Z</time>
      </trkpt>
      <trkpt lat="42.82618499999999" lon="-1.6079779999999952">
        <ele>431.407</ele>
        <time>2022-08-24T17:07:54Z</time>
      </trkpt>
      <trkpt lat="42.82614999999999" lon="-1.6080169999999951">
        <ele>431.417</ele>
        <time>2022-08-24T17:07:55Z</time>
      </trkpt>
      <trkpt lat="42.82604299999999" lon="-1.6081439999999951">
        <ele>431.609</ele>
        <time>2022-08-24T17:07:58Z</time>
      </trkpt>
      <trkpt lat="42.82600299999999" lon="-1.608184999999995">
        <ele>431.689</ele>
        <time>2022-08-24T17:07:59Z</time>
      </trkpt>
      <trkpt lat="42.82597199999999" lon="-1.6082189999999952">
        <ele>431.699</ele>
        <time>2022-08-24T17:08:00Z</time>
      </trkpt>
      <trkpt lat="42.825951999999994" lon="-1.6082439999999951">
        <ele>431.679</ele>
        <time>2022-08-24T17:08:01Z</time>
      </trkpt>
      <trkpt lat="42.825922999999996" lon="-1.608273999999995">
        <ele>431.875</ele>
        <time>2022-08-24T17:08:02Z</time>
      </trkpt>
      <trkpt lat="42.825810999999995" lon="-1.6083809999999952">
        <ele>431.887</ele>
        <time>2022-08-24T17:08:06Z</time>
      </trkpt>
      <trkpt lat="42.825686" lon="-1.6084989999999952">
        <ele>432.084</ele>
        <time>2022-08-24T17:08:10Z</time>
      </trkpt>
      <trkpt lat="42.825663" lon="-1.6085219999999953">
        <ele>432.047</ele>
        <time>2022-08-24T17:08:11Z</time>
      </trkpt>
      <trkpt lat="42.825571" lon="-1.6086109999999954">
        <ele>432.211</ele>
        <time>2022-08-24T17:08:14Z</time>
      </trkpt>
      <trkpt lat="42.825517999999995" lon="-1.6086669999999954">
        <ele>432.270</ele>
        <time>2022-08-24T17:08:16Z</time>
      </trkpt>
      <trkpt lat="42.825210999999996" lon="-1.6089639999999954">
        <ele>432.047</ele>
        <time>2022-08-24T17:08:25Z</time>
      </trkpt>
      <trkpt lat="42.825179999999996" lon="-1.6089889999999953">
        <ele>432.029</ele>
        <time>2022-08-24T17:08:26Z</time>
      </trkpt>
      <trkpt lat="42.825143" lon="-1.6090199999999952">
        <ele>432.021</ele>
        <time>2022-08-24T17:08:27Z</time>
      </trkpt>
      <trkpt lat="42.825063" lon="-1.6090899999999952">
        <ele>432.009</ele>
        <time>2022-08-24T17:08:29Z</time>
      </trkpt>
      <trkpt lat="42.825028" lon="-1.6091199999999952">
        <ele>432.055</ele>
        <time>2022-08-24T17:08:30Z</time>
      </trkpt>
      <trkpt lat="42.825001" lon="-1.6091449999999952">
        <ele>432.035</ele>
        <time>2022-08-24T17:08:31Z</time>
      </trkpt>
      <trkpt lat="42.824968" lon="-1.6091789999999953">
        <ele>432.065</ele>
        <time>2022-08-24T17:08:32Z</time>
      </trkpt>
      <trkpt lat="42.824936" lon="-1.6092129999999953">
        <ele>432.021</ele>
        <time>2022-08-24T17:08:33Z</time>
      </trkpt>
      <trkpt lat="42.824834" lon="-1.6093139999999952">
        <ele>432.223</ele>
        <time>2022-08-24T17:08:36Z</time>
      </trkpt>
      <trkpt lat="42.824729000000005" lon="-1.6094069999999951">
        <ele>432.260</ele>
        <time>2022-08-24T17:08:39Z</time>
      </trkpt>
      <trkpt lat="42.824698000000005" lon="-1.6094389999999952">
        <ele>432.283</ele>
        <time>2022-08-24T17:08:40Z</time>
      </trkpt>
      <trkpt lat="42.824664000000006" lon="-1.6094769999999952">
        <ele>432.477</ele>
        <time>2022-08-24T17:08:41Z</time>
      </trkpt>
      <trkpt lat="42.824639000000005" lon="-1.6094989999999951">
        <ele>432.456</ele>
        <time>2022-08-24T17:08:42Z</time>
      </trkpt>
      <trkpt lat="42.824605000000005" lon="-1.6095229999999952">
        <ele>432.464</ele>
        <time>2022-08-24T17:08:43Z</time>
      </trkpt>
      <trkpt lat="42.824540000000006" lon="-1.6095849999999952">
        <ele>432.606</ele>
        <time>2022-08-24T17:08:45Z</time>
      </trkpt>
      <trkpt lat="42.82451400000001" lon="-1.609604999999995">
        <ele>432.616</ele>
        <time>2022-08-24T17:08:46Z</time>
      </trkpt>
      <trkpt lat="42.824495000000006" lon="-1.609623999999995">
        <ele>432.609</ele>
        <time>2022-08-24T17:08:47Z</time>
      </trkpt>
      <trkpt lat="42.82443800000001" lon="-1.6096849999999951">
        <ele>432.637</ele>
        <time>2022-08-24T17:08:49Z</time>
      </trkpt>
      <trkpt lat="42.82439000000001" lon="-1.609731999999995">
        <ele>432.677</ele>
        <time>2022-08-24T17:08:50Z</time>
      </trkpt>
      <trkpt lat="42.82434400000001" lon="-1.609769999999995">
        <ele>432.617</ele>
        <time>2022-08-24T17:08:51Z</time>
      </trkpt>
      <trkpt lat="42.82431100000001" lon="-1.609794999999995">
        <ele>432.813</ele>
        <time>2022-08-24T17:08:52Z</time>
      </trkpt>
      <trkpt lat="42.82427500000001" lon="-1.609822999999995">
        <ele>432.845</ele>
        <time>2022-08-24T17:08:53Z</time>
      </trkpt>
      <trkpt lat="42.82424600000001" lon="-1.609843999999995">
        <ele>432.852</ele>
        <time>2022-08-24T17:08:54Z</time>
      </trkpt>
      <trkpt lat="42.82421600000001" lon="-1.609867999999995">
        <ele>432.845</ele>
        <time>2022-08-24T17:08:55Z</time>
      </trkpt>
      <trkpt lat="42.82419500000001" lon="-1.609892999999995">
        <ele>433.049</ele>
        <time>2022-08-24T17:08:56Z</time>
      </trkpt>
      <trkpt lat="42.82397100000001" lon="-1.6100939999999948">
        <ele>433.488</ele>
        <time>2022-08-24T17:09:04Z</time>
      </trkpt>
      <trkpt lat="42.82386700000001" lon="-1.6101799999999948">
        <ele>434.085</ele>
        <time>2022-08-24T17:09:07Z</time>
      </trkpt>
      <trkpt lat="42.82383600000001" lon="-1.6102049999999948">
        <ele>433.889</ele>
        <time>2022-08-24T17:09:08Z</time>
      </trkpt>
      <trkpt lat="42.823809000000004" lon="-1.6102279999999949">
        <ele>433.817</ele>
        <time>2022-08-24T17:09:09Z</time>
      </trkpt>
      <trkpt lat="42.823782" lon="-1.610251999999995">
        <ele>434.009</ele>
        <time>2022-08-24T17:09:10Z</time>
      </trkpt>
      <trkpt lat="42.823754" lon="-1.610278999999995">
        <ele>433.839</ele>
        <time>2022-08-24T17:09:11Z</time>
      </trkpt>
      <trkpt lat="42.823736000000004" lon="-1.610294999999995">
        <ele>434.289</ele>
        <time>2022-08-24T17:09:12Z</time>
      </trkpt>
      <trkpt lat="42.823716000000005" lon="-1.610313999999995">
        <ele>434.219</ele>
        <time>2022-08-24T17:09:13Z</time>
      </trkpt>
      <trkpt lat="42.823592000000005" lon="-1.610412999999995">
        <ele>434.855</ele>
        <time>2022-08-24T17:09:18Z</time>
      </trkpt>
      <trkpt lat="42.823426000000005" lon="-1.610560999999995">
        <ele>435.097</ele>
        <time>2022-08-24T17:09:23Z</time>
      </trkpt>
      <trkpt lat="42.823312" lon="-1.610658999999995">
        <ele>434.864</ele>
        <time>2022-08-24T17:09:26Z</time>
      </trkpt>
      <trkpt lat="42.823277000000004" lon="-1.610684999999995">
        <ele>435.037</ele>
        <time>2022-08-24T17:09:27Z</time>
      </trkpt>
      <trkpt lat="42.82325" lon="-1.610704999999995">
        <ele>434.871</ele>
        <time>2022-08-24T17:09:28Z</time>
      </trkpt>
      <trkpt lat="42.823216" lon="-1.610730999999995">
        <ele>435.090</ele>
        <time>2022-08-24T17:09:29Z</time>
      </trkpt>
      <trkpt lat="42.82318" lon="-1.610761999999995">
        <ele>434.848</ele>
        <time>2022-08-24T17:09:30Z</time>
      </trkpt>
      <trkpt lat="42.823155" lon="-1.6107819999999948">
        <ele>434.861</ele>
        <time>2022-08-24T17:09:31Z</time>
      </trkpt>
      <trkpt lat="42.823122" lon="-1.6108119999999948">
        <ele>434.817</ele>
        <time>2022-08-24T17:09:32Z</time>
      </trkpt>
      <trkpt lat="42.823101" lon="-1.6108309999999948">
        <ele>434.609</ele>
        <time>2022-08-24T17:09:33Z</time>
      </trkpt>
      <trkpt lat="42.822982" lon="-1.6109279999999948">
        <ele>434.875</ele>
        <time>2022-08-24T17:09:37Z</time>
      </trkpt>
      <trkpt lat="42.822958" lon="-1.6109479999999947">
        <ele>434.815</ele>
        <time>2022-08-24T17:09:38Z</time>
      </trkpt>
      <trkpt lat="42.822928" lon="-1.6109709999999948">
        <ele>434.875</ele>
        <time>2022-08-24T17:09:39Z</time>
      </trkpt>
      <trkpt lat="42.822897999999995" lon="-1.610993999999995">
        <ele>434.861</ele>
        <time>2022-08-24T17:09:40Z</time>
      </trkpt>
      <trkpt lat="42.822782999999994" lon="-1.6110949999999948">
        <ele>434.823</ele>
        <time>2022-08-24T17:09:44Z</time>
      </trkpt>
      <trkpt lat="42.82257299999999" lon="-1.6113519999999948">
        <ele>434.860</ele>
        <time>2022-08-24T17:09:52Z</time>
      </trkpt>
      <trkpt lat="42.82243899999999" lon="-1.6114099999999947">
        <ele>435.063</ele>
        <time>2022-08-24T17:09:56Z</time>
      </trkpt>
      <trkpt lat="42.82240199999999" lon="-1.6114189999999946">
        <ele>435.087</ele>
        <time>2022-08-24T17:09:57Z</time>
      </trkpt>
      <trkpt lat="42.82236799999999" lon="-1.6114249999999946">
        <ele>435.076</ele>
        <time>2022-08-24T17:09:58Z</time>
      </trkpt>
      <trkpt lat="42.82233899999999" lon="-1.6114289999999944">
        <ele>435.082</ele>
        <time>2022-08-24T17:09:59Z</time>
      </trkpt>
      <trkpt lat="42.82231199999999" lon="-1.6114319999999944">
        <ele>435.043</ele>
        <time>2022-08-24T17:10:00Z</time>
      </trkpt>
      <trkpt lat="42.82224899999999" lon="-1.6114659999999945">
        <ele>435.017</ele>
        <time>2022-08-24T17:10:02Z</time>
      </trkpt>
      <trkpt lat="42.822230999999995" lon="-1.6114849999999945">
        <ele>435.009</ele>
        <time>2022-08-24T17:10:03Z</time>
      </trkpt>
      <trkpt lat="42.822210999999996" lon="-1.6115079999999946">
        <ele>435.099</ele>
        <time>2022-08-24T17:10:04Z</time>
      </trkpt>
      <trkpt lat="42.822185999999995" lon="-1.6115319999999946">
        <ele>435.049</ele>
        <time>2022-08-24T17:10:05Z</time>
      </trkpt>
      <trkpt lat="42.822160999999994" lon="-1.6115529999999947">
        <ele>435.079</ele>
        <time>2022-08-24T17:10:06Z</time>
      </trkpt>
      <trkpt lat="42.822101999999994" lon="-1.6116109999999946">
        <ele>435.065</ele>
        <time>2022-08-24T17:10:08Z</time>
      </trkpt>
      <trkpt lat="42.822070999999994" lon="-1.6116469999999945">
        <ele>435.057</ele>
        <time>2022-08-24T17:10:09Z</time>
      </trkpt>
      <trkpt lat="42.822013999999996" lon="-1.6117119999999945">
        <ele>434.874</ele>
        <time>2022-08-24T17:10:11Z</time>
      </trkpt>
      <trkpt lat="42.821977999999994" lon="-1.6117439999999945">
        <ele>434.827</ele>
        <time>2022-08-24T17:10:12Z</time>
      </trkpt>
      <trkpt lat="42.821946" lon="-1.6117749999999944">
        <ele>434.621</ele>
        <time>2022-08-24T17:10:13Z</time>
      </trkpt>
      <trkpt lat="42.821918999999994" lon="-1.6118059999999943">
        <ele>434.470</ele>
        <time>2022-08-24T17:10:14Z</time>
      </trkpt>
      <trkpt lat="42.821887" lon="-1.6118379999999943">
        <ele>434.237</ele>
        <time>2022-08-24T17:10:15Z</time>
      </trkpt>
      <trkpt lat="42.821732999999995" lon="-1.6120049999999944">
        <ele>434.049</ele>
        <time>2022-08-24T17:10:20Z</time>
      </trkpt>
      <trkpt lat="42.82167" lon="-1.6120789999999943">
        <ele>434.013</ele>
        <time>2022-08-24T17:10:22Z</time>
      </trkpt>
      <trkpt lat="42.821627" lon="-1.6121159999999943">
        <ele>434.009</ele>
        <time>2022-08-24T17:10:23Z</time>
      </trkpt>
      <trkpt lat="42.8216" lon="-1.6121459999999943">
        <ele>433.824</ele>
        <time>2022-08-24T17:10:24Z</time>
      </trkpt>
      <trkpt lat="42.821537" lon="-1.6122319999999943">
        <ele>433.884</ele>
        <time>2022-08-24T17:10:26Z</time>
      </trkpt>
      <trkpt lat="42.821507" lon="-1.6122709999999942">
        <ele>433.874</ele>
        <time>2022-08-24T17:10:27Z</time>
      </trkpt>
      <trkpt lat="42.821475" lon="-1.6123099999999941">
        <ele>433.880</ele>
        <time>2022-08-24T17:10:28Z</time>
      </trkpt>
      <trkpt lat="42.821444" lon="-1.6123449999999941">
        <ele>433.882</ele>
        <time>2022-08-24T17:10:29Z</time>
      </trkpt>
      <trkpt lat="42.821412" lon="-1.6123769999999942">
        <ele>433.819</ele>
        <time>2022-08-24T17:10:30Z</time>
      </trkpt>
      <trkpt lat="42.821379" lon="-1.612412999999994">
        <ele>434.092</ele>
        <time>2022-08-24T17:10:31Z</time>
      </trkpt>
      <trkpt lat="42.821347" lon="-1.6124499999999942">
        <ele>434.036</ele>
        <time>2022-08-24T17:10:32Z</time>
      </trkpt>
      <trkpt lat="42.821315000000006" lon="-1.6124879999999941">
        <ele>434.075</ele>
        <time>2022-08-24T17:10:33Z</time>
      </trkpt>
      <trkpt lat="42.821282000000004" lon="-1.6125219999999942">
        <ele>434.017</ele>
        <time>2022-08-24T17:10:34Z</time>
      </trkpt>
      <trkpt lat="42.821243" lon="-1.6125569999999942">
        <ele>434.087</ele>
        <time>2022-08-24T17:10:35Z</time>
      </trkpt>
      <trkpt lat="42.821216" lon="-1.6125879999999941">
        <ele>434.215</ele>
        <time>2022-08-24T17:10:36Z</time>
      </trkpt>
      <trkpt lat="42.821191999999996" lon="-1.6126219999999942">
        <ele>434.209</ele>
        <time>2022-08-24T17:10:37Z</time>
      </trkpt>
      <trkpt lat="42.821144999999994" lon="-1.6126739999999942">
        <ele>434.412</ele>
        <time>2022-08-24T17:10:39Z</time>
      </trkpt>
      <trkpt lat="42.82103599999999" lon="-1.6128149999999941">
        <ele>434.242</ele>
        <time>2022-08-24T17:10:43Z</time>
      </trkpt>
      <trkpt lat="42.82101099999999" lon="-1.612861999999994">
        <ele>434.262</ele>
        <time>2022-08-24T17:10:44Z</time>
      </trkpt>
      <trkpt lat="42.82096999999999" lon="-1.612916999999994">
        <ele>434.288</ele>
        <time>2022-08-24T17:10:45Z</time>
      </trkpt>
      <trkpt lat="42.820818999999986" lon="-1.613123999999994">
        <ele>434.220</ele>
        <time>2022-08-24T17:10:48Z</time>
      </trkpt>
      <trkpt lat="42.82056999999999" lon="-1.613577999999994">
        <ele>434.227</ele>
        <time>2022-08-24T17:10:53Z</time>
      </trkpt>
      <trkpt lat="42.82052099999999" lon="-1.613675999999994">
        <ele>434.270</ele>
        <time>2022-08-24T17:10:54Z</time>
      </trkpt>
      <trkpt lat="42.820432999999994" lon="-1.6138849999999938">
        <ele>434.434</ele>
        <time>2022-08-24T17:10:56Z</time>
      </trkpt>
      <trkpt lat="42.820387" lon="-1.6139799999999938">
        <ele>434.633</ele>
        <time>2022-08-24T17:10:57Z</time>
      </trkpt>
      <trkpt lat="42.820344999999996" lon="-1.6140659999999938">
        <ele>434.868</ele>
        <time>2022-08-24T17:10:58Z</time>
      </trkpt>
      <trkpt lat="42.820308" lon="-1.6141539999999939">
        <ele>434.842</ele>
        <time>2022-08-24T17:10:59Z</time>
      </trkpt>
      <trkpt lat="42.820273" lon="-1.614247999999994">
        <ele>434.826</ele>
        <time>2022-08-24T17:11:00Z</time>
      </trkpt>
      <trkpt lat="42.820233" lon="-1.614343999999994">
        <ele>434.809</ele>
        <time>2022-08-24T17:11:01Z</time>
      </trkpt>
      <trkpt lat="42.820192" lon="-1.614435999999994">
        <ele>434.827</ele>
        <time>2022-08-24T17:11:02Z</time>
      </trkpt>
      <trkpt lat="42.820156" lon="-1.614519999999994">
        <ele>434.827</ele>
        <time>2022-08-24T17:11:03Z</time>
      </trkpt>
      <trkpt lat="42.820116999999996" lon="-1.614600999999994">
        <ele>435.027</ele>
        <time>2022-08-24T17:11:04Z</time>
      </trkpt>
      <trkpt lat="42.820074999999996" lon="-1.614673999999994">
        <ele>435.033</ele>
        <time>2022-08-24T17:11:05Z</time>
      </trkpt>
      <trkpt lat="42.819995999999996" lon="-1.614829999999994">
        <ele>435.065</ele>
        <time>2022-08-24T17:11:07Z</time>
      </trkpt>
      <trkpt lat="42.819959" lon="-1.614905999999994">
        <ele>434.822</ele>
        <time>2022-08-24T17:11:08Z</time>
      </trkpt>
      <trkpt lat="42.819928" lon="-1.614976999999994">
        <ele>434.815</ele>
        <time>2022-08-24T17:11:09Z</time>
      </trkpt>
      <trkpt lat="42.819823" lon="-1.6151989999999938">
        <ele>434.899</ele>
        <time>2022-08-24T17:11:12Z</time>
      </trkpt>
      <trkpt lat="42.819788" lon="-1.615278999999994">
        <ele>434.698</ele>
        <time>2022-08-24T17:11:13Z</time>
      </trkpt>
      <trkpt lat="42.819755" lon="-1.6153549999999939">
        <ele>434.697</ele>
        <time>2022-08-24T17:11:14Z</time>
      </trkpt>
      <trkpt lat="42.819726" lon="-1.615424999999994">
        <ele>434.623</ele>
        <time>2022-08-24T17:11:15Z</time>
      </trkpt>
      <trkpt lat="42.819701" lon="-1.6154909999999938">
        <ele>434.625</ele>
        <time>2022-08-24T17:11:16Z</time>
      </trkpt>
      <trkpt lat="42.819676" lon="-1.6155549999999939">
        <ele>434.409</ele>
        <time>2022-08-24T17:11:17Z</time>
      </trkpt>
      <trkpt lat="42.819655000000004" lon="-1.6156199999999938">
        <ele>434.450</ele>
        <time>2022-08-24T17:11:18Z</time>
      </trkpt>
      <trkpt lat="42.819635000000005" lon="-1.6156819999999938">
        <ele>434.470</ele>
        <time>2022-08-24T17:11:19Z</time>
      </trkpt>
      <trkpt lat="42.81961700000001" lon="-1.6157439999999939">
        <ele>434.240</ele>
        <time>2022-08-24T17:11:20Z</time>
      </trkpt>
      <trkpt lat="42.81960000000001" lon="-1.615872999999994">
        <ele>434.226</ele>
        <time>2022-08-24T17:11:22Z</time>
      </trkpt>
      <trkpt lat="42.81960300000001" lon="-1.6159409999999939">
        <ele>434.268</ele>
        <time>2022-08-24T17:11:23Z</time>
      </trkpt>
      <trkpt lat="42.81961600000001" lon="-1.6160089999999938">
        <ele>434.235</ele>
        <time>2022-08-24T17:11:24Z</time>
      </trkpt>
      <trkpt lat="42.81963100000001" lon="-1.6160829999999937">
        <ele>434.228</ele>
        <time>2022-08-24T17:11:25Z</time>
      </trkpt>
      <trkpt lat="42.81963900000001" lon="-1.6161589999999937">
        <ele>434.022</ele>
        <time>2022-08-24T17:11:26Z</time>
      </trkpt>
      <trkpt lat="42.81963700000001" lon="-1.6162279999999938">
        <ele>434.041</ele>
        <time>2022-08-24T17:11:27Z</time>
      </trkpt>
      <trkpt lat="42.819627000000004" lon="-1.6162779999999939">
        <ele>433.894</ele>
        <time>2022-08-24T17:11:28Z</time>
      </trkpt>
      <trkpt lat="42.819616" lon="-1.616309999999994">
        <ele>433.857</ele>
        <time>2022-08-24T17:11:29Z</time>
      </trkpt>
      <trkpt lat="42.819607000000005" lon="-1.616333999999994">
        <ele>433.822</ele>
        <time>2022-08-24T17:11:30Z</time>
      </trkpt>
      <trkpt lat="42.81960900000001" lon="-1.6163539999999939">
        <ele>433.809</ele>
        <time>2022-08-24T17:11:31Z</time>
      </trkpt>
      <trkpt lat="42.819604000000005" lon="-1.6163679999999938">
        <ele>433.870</ele>
        <time>2022-08-24T17:11:32Z</time>
      </trkpt>
      <trkpt lat="42.81959700000001" lon="-1.6163879999999937">
        <ele>433.870</ele>
        <time>2022-08-24T17:11:33Z</time>
      </trkpt>
      <trkpt lat="42.81959100000001" lon="-1.6164119999999937">
        <ele>434.060</ele>
        <time>2022-08-24T17:11:34Z</time>
      </trkpt>
      <trkpt lat="42.81959000000001" lon="-1.6164649999999938">
        <ele>434.286</ele>
        <time>2022-08-24T17:11:36Z</time>
      </trkpt>
      <trkpt lat="42.819592000000014" lon="-1.6164869999999938">
        <ele>434.458</ele>
        <time>2022-08-24T17:11:37Z</time>
      </trkpt>
      <trkpt lat="42.81959900000001" lon="-1.6165059999999938">
        <ele>434.675</ele>
        <time>2022-08-24T17:11:38Z</time>
      </trkpt>
      <trkpt lat="42.81960300000001" lon="-1.6165219999999938">
        <ele>437.088</ele>
        <time>2022-08-24T17:13:54Z</time>
      </trkpt>
      <trkpt lat="42.81960300000001" lon="-1.6165239999999939">
        <ele>437.042</ele>
        <time>2022-08-24T17:13:55Z</time>
      </trkpt>
      <trkpt lat="42.81959500000001" lon="-1.6165289999999939">
        <ele>437.061</ele>
        <time>2022-08-24T17:13:56Z</time>
      </trkpt>
      <trkpt lat="42.81956600000001" lon="-1.616543999999994">
        <ele>437.085</ele>
        <time>2022-08-24T17:13:58Z</time>
      </trkpt>
      <trkpt lat="42.81954800000001" lon="-1.616603999999994">
        <ele>437.089</ele>
        <time>2022-08-24T17:14:00Z</time>
      </trkpt>
      <trkpt lat="42.819544000000015" lon="-1.616722999999994">
        <ele>437.217</ele>
        <time>2022-08-24T17:14:03Z</time>
      </trkpt>
      <trkpt lat="42.81954500000001" lon="-1.6167559999999939">
        <ele>437.209</ele>
        <time>2022-08-24T17:14:04Z</time>
      </trkpt>
      <trkpt lat="42.819547000000014" lon="-1.6167809999999938">
        <ele>437.029</ele>
        <time>2022-08-24T17:14:05Z</time>
      </trkpt>
      <trkpt lat="42.819550000000014" lon="-1.6168099999999939">
        <ele>437.049</ele>
        <time>2022-08-24T17:14:06Z</time>
      </trkpt>
      <trkpt lat="42.819552000000016" lon="-1.6168379999999938">
        <ele>437.269</ele>
        <time>2022-08-24T17:14:07Z</time>
      </trkpt>
      <trkpt lat="42.81955300000001" lon="-1.6168759999999938">
        <ele>437.295</ele>
        <time>2022-08-24T17:14:08Z</time>
      </trkpt>
      <trkpt lat="42.819550000000014" lon="-1.6169029999999938">
        <ele>437.217</ele>
        <time>2022-08-24T17:14:09Z</time>
      </trkpt>
      <trkpt lat="42.819550000000014" lon="-1.6169299999999938">
        <ele>437.474</ele>
        <time>2022-08-24T17:14:10Z</time>
      </trkpt>
      <trkpt lat="42.819555000000015" lon="-1.6169619999999938">
        <ele>437.427</ele>
        <time>2022-08-24T17:14:11Z</time>
      </trkpt>
      <trkpt lat="42.819558000000015" lon="-1.6170499999999939">
        <ele>437.411</ele>
        <time>2022-08-24T17:14:13Z</time>
      </trkpt>
      <trkpt lat="42.81955700000002" lon="-1.6171509999999938">
        <ele>437.490</ele>
        <time>2022-08-24T17:14:15Z</time>
      </trkpt>
      <trkpt lat="42.81956800000002" lon="-1.6172809999999938">
        <ele>437.488</ele>
        <time>2022-08-24T17:14:17Z</time>
      </trkpt>
      <trkpt lat="42.81955300000002" lon="-1.6173369999999938">
        <ele>437.424</ele>
        <time>2022-08-24T17:14:18Z</time>
      </trkpt>
      <trkpt lat="42.81954900000002" lon="-1.6173929999999939">
        <ele>437.626</ele>
        <time>2022-08-24T17:14:19Z</time>
      </trkpt>
      <trkpt lat="42.819540000000025" lon="-1.617429999999994">
        <ele>437.609</ele>
        <time>2022-08-24T17:14:20Z</time>
      </trkpt>
      <trkpt lat="42.81955300000003" lon="-1.617480999999994">
        <ele>437.649</ele>
        <time>2022-08-24T17:14:21Z</time>
      </trkpt>
      <trkpt lat="42.81956600000003" lon="-1.617536999999994">
        <ele>437.669</ele>
        <time>2022-08-24T17:14:22Z</time>
      </trkpt>
      <trkpt lat="42.81958600000003" lon="-1.617594999999994">
        <ele>437.629</ele>
        <time>2022-08-24T17:14:23Z</time>
      </trkpt>
      <trkpt lat="42.81959700000003" lon="-1.6176419999999938">
        <ele>437.625</ele>
        <time>2022-08-24T17:14:24Z</time>
      </trkpt>
      <trkpt lat="42.81960500000003" lon="-1.6177009999999938">
        <ele>437.827</ele>
        <time>2022-08-24T17:14:25Z</time>
      </trkpt>
      <trkpt lat="42.81960500000003" lon="-1.617750999999994">
        <ele>437.854</ele>
        <time>2022-08-24T17:14:26Z</time>
      </trkpt>
      <trkpt lat="42.81966200000003" lon="-1.617873999999994">
        <ele>437.867</ele>
        <time>2022-08-24T17:14:29Z</time>
      </trkpt>
      <trkpt lat="42.81969000000003" lon="-1.617916999999994">
        <ele>437.851</ele>
        <time>2022-08-24T17:14:30Z</time>
      </trkpt>
      <trkpt lat="42.81972700000003" lon="-1.617962999999994">
        <ele>437.810</ele>
        <time>2022-08-24T17:14:31Z</time>
      </trkpt>
      <trkpt lat="42.81974600000003" lon="-1.617999999999994">
        <ele>437.867</ele>
        <time>2022-08-24T17:14:32Z</time>
      </trkpt>
      <trkpt lat="42.81981600000003" lon="-1.618097999999994">
        <ele>437.881</ele>
        <time>2022-08-24T17:14:35Z</time>
      </trkpt>
      <trkpt lat="42.81984100000003" lon="-1.618138999999994">
        <ele>438.019</ele>
        <time>2022-08-24T17:14:36Z</time>
      </trkpt>
      <trkpt lat="42.81986200000003" lon="-1.618172999999994">
        <ele>438.009</ele>
        <time>2022-08-24T17:14:37Z</time>
      </trkpt>
      <trkpt lat="42.819883000000026" lon="-1.6182019999999941">
        <ele>438.067</ele>
        <time>2022-08-24T17:14:38Z</time>
      </trkpt>
      <trkpt lat="42.81991000000003" lon="-1.618232999999994">
        <ele>437.877</ele>
        <time>2022-08-24T17:14:39Z</time>
      </trkpt>
      <trkpt lat="42.81993500000003" lon="-1.6182669999999941">
        <ele>437.837</ele>
        <time>2022-08-24T17:14:40Z</time>
      </trkpt>
      <trkpt lat="42.81995900000003" lon="-1.618294999999994">
        <ele>437.823</ele>
        <time>2022-08-24T17:14:41Z</time>
      </trkpt>
      <trkpt lat="42.819984000000034" lon="-1.618332999999994">
        <ele>437.885</ele>
        <time>2022-08-24T17:14:42Z</time>
      </trkpt>
      <trkpt lat="42.82001600000003" lon="-1.618372999999994">
        <ele>437.882</ele>
        <time>2022-08-24T17:14:43Z</time>
      </trkpt>
      <trkpt lat="42.820178000000034" lon="-1.6186719999999941">
        <ele>438.065</ele>
        <time>2022-08-24T17:14:50Z</time>
      </trkpt>
      <trkpt lat="42.820265000000035" lon="-1.6188059999999942">
        <ele>438.289</ele>
        <time>2022-08-24T17:14:53Z</time>
      </trkpt>
      <trkpt lat="42.82033600000003" lon="-1.6189059999999942">
        <ele>438.258</ele>
        <time>2022-08-24T17:14:56Z</time>
      </trkpt>
      <trkpt lat="42.820397000000035" lon="-1.6189939999999943">
        <ele>438.286</ele>
        <time>2022-08-24T17:14:58Z</time>
      </trkpt>
      <trkpt lat="42.82042100000004" lon="-1.6190399999999943">
        <ele>438.260</ele>
        <time>2022-08-24T17:14:59Z</time>
      </trkpt>
      <trkpt lat="42.82044800000004" lon="-1.6190769999999943">
        <ele>438.226</ele>
        <time>2022-08-24T17:15:00Z</time>
      </trkpt>
      <trkpt lat="42.82047600000004" lon="-1.6191139999999944">
        <ele>438.209</ele>
        <time>2022-08-24T17:15:01Z</time>
      </trkpt>
      <trkpt lat="42.820523000000044" lon="-1.6191529999999943">
        <ele>438.269</ele>
        <time>2022-08-24T17:15:02Z</time>
      </trkpt>
      <trkpt lat="42.82055000000005" lon="-1.6191959999999943">
        <ele>438.269</ele>
        <time>2022-08-24T17:15:03Z</time>
      </trkpt>
      <trkpt lat="42.820717000000045" lon="-1.6194879999999943">
        <ele>438.629</ele>
        <time>2022-08-24T17:15:09Z</time>
      </trkpt>
      <trkpt lat="42.82087900000005" lon="-1.6196869999999943">
        <ele>438.865</ele>
        <time>2022-08-24T17:15:14Z</time>
      </trkpt>
      <trkpt lat="42.82090300000005" lon="-1.6197159999999944">
        <ele>438.857</ele>
        <time>2022-08-24T17:15:15Z</time>
      </trkpt>
      <trkpt lat="42.82091000000005" lon="-1.6197519999999943">
        <ele>438.854</ele>
        <time>2022-08-24T17:15:16Z</time>
      </trkpt>
      <trkpt lat="42.82093400000005" lon="-1.6197879999999942">
        <ele>438.887</ele>
        <time>2022-08-24T17:15:17Z</time>
      </trkpt>
      <trkpt lat="42.82098800000005" lon="-1.6198639999999942">
        <ele>438.891</ele>
        <time>2022-08-24T17:15:19Z</time>
      </trkpt>
      <trkpt lat="42.82101900000005" lon="-1.6198989999999942">
        <ele>438.870</ele>
        <time>2022-08-24T17:15:20Z</time>
      </trkpt>
      <trkpt lat="42.82104700000005" lon="-1.6199329999999943">
        <ele>438.877</ele>
        <time>2022-08-24T17:15:21Z</time>
      </trkpt>
      <trkpt lat="42.82107500000005" lon="-1.6199699999999944">
        <ele>438.861</ele>
        <time>2022-08-24T17:15:22Z</time>
      </trkpt>
      <trkpt lat="42.82110300000005" lon="-1.6200099999999944">
        <ele>438.827</ele>
        <time>2022-08-24T17:15:23Z</time>
      </trkpt>
      <trkpt lat="42.82113000000005" lon="-1.6200549999999945">
        <ele>438.809</ele>
        <time>2022-08-24T17:15:24Z</time>
      </trkpt>
      <trkpt lat="42.821155000000054" lon="-1.6200939999999944">
        <ele>438.848</ele>
        <time>2022-08-24T17:15:25Z</time>
      </trkpt>
      <trkpt lat="42.821177000000056" lon="-1.6201279999999945">
        <ele>438.878</ele>
        <time>2022-08-24T17:15:26Z</time>
      </trkpt>
      <trkpt lat="42.82119800000005" lon="-1.6201589999999944">
        <ele>438.828</ele>
        <time>2022-08-24T17:15:27Z</time>
      </trkpt>
      <trkpt lat="42.821220000000054" lon="-1.6201889999999943">
        <ele>438.854</ele>
        <time>2022-08-24T17:15:28Z</time>
      </trkpt>
      <trkpt lat="42.82125200000005" lon="-1.6202419999999944">
        <ele>438.826</ele>
        <time>2022-08-24T17:15:30Z</time>
      </trkpt>
      <trkpt lat="42.821414000000054" lon="-1.6204929999999944">
        <ele>439.013</ele>
        <time>2022-08-24T17:15:37Z</time>
      </trkpt>
      <trkpt lat="42.82143700000005" lon="-1.6205339999999944">
        <ele>439.076</ele>
        <time>2022-08-24T17:15:38Z</time>
      </trkpt>
      <trkpt lat="42.821492000000056" lon="-1.6206289999999943">
        <ele>439.070</ele>
        <time>2022-08-24T17:15:40Z</time>
      </trkpt>
      <trkpt lat="42.821551000000056" lon="-1.6207189999999942">
        <ele>439.059</ele>
        <time>2022-08-24T17:15:42Z</time>
      </trkpt>
      <trkpt lat="42.821611000000054" lon="-1.6208309999999941">
        <ele>439.025</ele>
        <time>2022-08-24T17:15:44Z</time>
      </trkpt>
      <trkpt lat="42.82170000000006" lon="-1.620960999999994">
        <ele>438.826</ele>
        <time>2022-08-24T17:15:46Z</time>
      </trkpt>
      <trkpt lat="42.821740000000055" lon="-1.620969999999994">
        <ele>438.808</ele>
        <time>2022-08-24T17:15:47Z</time>
      </trkpt>
      <trkpt lat="42.82181200000006" lon="-1.621231999999994">
        <ele>438.409</ele>
        <time>2022-08-24T17:15:51Z</time>
      </trkpt>
      <trkpt lat="42.82182100000006" lon="-1.621313999999994">
        <ele>438.443</ele>
        <time>2022-08-24T17:15:52Z</time>
      </trkpt>
      <trkpt lat="42.821867000000054" lon="-1.621370999999994">
        <ele>438.293</ele>
        <time>2022-08-24T17:15:53Z</time>
      </trkpt>
      <trkpt lat="42.82195800000005" lon="-1.6214659999999939">
        <ele>438.023</ele>
        <time>2022-08-24T17:15:55Z</time>
      </trkpt>
      <trkpt lat="42.82197900000005" lon="-1.621515999999994">
        <ele>437.869</ele>
        <time>2022-08-24T17:15:56Z</time>
      </trkpt>
      <trkpt lat="42.82199200000005" lon="-1.621568999999994">
        <ele>437.681</ele>
        <time>2022-08-24T17:15:57Z</time>
      </trkpt>
      <trkpt lat="42.82200700000005" lon="-1.621608999999994">
        <ele>437.868</ele>
        <time>2022-08-24T17:15:58Z</time>
      </trkpt>
      <trkpt lat="42.82202900000005" lon="-1.621639999999994">
        <ele>437.861</ele>
        <time>2022-08-24T17:15:59Z</time>
      </trkpt>
      <trkpt lat="42.82204900000005" lon="-1.621680999999994">
        <ele>437.855</ele>
        <time>2022-08-24T17:16:00Z</time>
      </trkpt>
      <trkpt lat="42.82212700000005" lon="-1.621860999999994">
        <ele>438.274</ele>
        <time>2022-08-24T17:16:04Z</time>
      </trkpt>
      <trkpt lat="42.82214700000005" lon="-1.621909999999994">
        <ele>438.243</ele>
        <time>2022-08-24T17:16:05Z</time>
      </trkpt>
      <trkpt lat="42.82216600000005" lon="-1.621954999999994">
        <ele>438.264</ele>
        <time>2022-08-24T17:16:06Z</time>
      </trkpt>
      <trkpt lat="42.82218600000005" lon="-1.621997999999994">
        <ele>438.210</ele>
        <time>2022-08-24T17:16:07Z</time>
      </trkpt>
      <trkpt lat="42.82220300000005" lon="-1.622048999999994">
        <ele>438.209</ele>
        <time>2022-08-24T17:16:08Z</time>
      </trkpt>
      <trkpt lat="42.82223600000005" lon="-1.6222509999999941">
        <ele>438.215</ele>
        <time>2022-08-24T17:16:11Z</time>
      </trkpt>
      <trkpt lat="42.82224600000006" lon="-1.6223099999999941">
        <ele>438.255</ele>
        <time>2022-08-24T17:16:12Z</time>
      </trkpt>
      <trkpt lat="42.82225300000005" lon="-1.6223669999999941">
        <ele>438.285</ele>
        <time>2022-08-24T17:16:13Z</time>
      </trkpt>
      <trkpt lat="42.82225700000005" lon="-1.6224229999999942">
        <ele>438.211</ele>
        <time>2022-08-24T17:16:14Z</time>
      </trkpt>
      <trkpt lat="42.82226200000005" lon="-1.6225809999999943">
        <ele>438.293</ele>
        <time>2022-08-24T17:16:17Z</time>
      </trkpt>
      <trkpt lat="42.822272000000055" lon="-1.6226329999999942">
        <ele>438.220</ele>
        <time>2022-08-24T17:16:18Z</time>
      </trkpt>
      <trkpt lat="42.822278000000054" lon="-1.6227279999999942">
        <ele>438.213</ele>
        <time>2022-08-24T17:16:20Z</time>
      </trkpt>
      <trkpt lat="42.822278000000054" lon="-1.6227809999999943">
        <ele>438.277</ele>
        <time>2022-08-24T17:16:21Z</time>
      </trkpt>
      <trkpt lat="42.822272000000055" lon="-1.6228249999999942">
        <ele>438.236</ele>
        <time>2022-08-24T17:16:22Z</time>
      </trkpt>
      <trkpt lat="42.82227600000005" lon="-1.6228739999999942">
        <ele>438.026</ele>
        <time>2022-08-24T17:16:23Z</time>
      </trkpt>
      <trkpt lat="42.82228400000005" lon="-1.622974999999994">
        <ele>438.047</ele>
        <time>2022-08-24T17:16:25Z</time>
      </trkpt>
      <trkpt lat="42.82227300000005" lon="-1.623406999999994">
        <ele>437.811</ele>
        <time>2022-08-24T17:16:30Z</time>
      </trkpt>
      <trkpt lat="42.82225400000005" lon="-1.623624999999994">
        <ele>438.009</ele>
        <time>2022-08-24T17:16:32Z</time>
      </trkpt>
      <trkpt lat="42.82224900000005" lon="-1.623714999999994">
        <ele>438.013</ele>
        <time>2022-08-24T17:16:33Z</time>
      </trkpt>
      <trkpt lat="42.82223300000005" lon="-1.623821999999994">
        <ele>438.033</ele>
        <time>2022-08-24T17:16:34Z</time>
      </trkpt>
      <trkpt lat="42.82223000000005" lon="-1.6240099999999942">
        <ele>438.023</ele>
        <time>2022-08-24T17:16:36Z</time>
      </trkpt>
      <trkpt lat="42.82222300000005" lon="-1.624099999999994">
        <ele>438.079</ele>
        <time>2022-08-24T17:16:37Z</time>
      </trkpt>
      <trkpt lat="42.82222600000005" lon="-1.624189999999994">
        <ele>438.081</ele>
        <time>2022-08-24T17:16:38Z</time>
      </trkpt>
      <trkpt lat="42.82222400000005" lon="-1.624270999999994">
        <ele>438.258</ele>
        <time>2022-08-24T17:16:39Z</time>
      </trkpt>
      <trkpt lat="42.82222700000005" lon="-1.624348999999994">
        <ele>438.071</ele>
        <time>2022-08-24T17:16:40Z</time>
      </trkpt>
      <trkpt lat="42.82222300000005" lon="-1.624423999999994">
        <ele>438.025</ele>
        <time>2022-08-24T17:16:41Z</time>
      </trkpt>
      <trkpt lat="42.82221800000005" lon="-1.6245019999999941">
        <ele>438.034</ele>
        <time>2022-08-24T17:16:42Z</time>
      </trkpt>
      <trkpt lat="42.82221200000005" lon="-1.6245819999999942">
        <ele>438.018</ele>
        <time>2022-08-24T17:16:43Z</time>
      </trkpt>
      <trkpt lat="42.82220700000005" lon="-1.6246589999999943">
        <ele>437.898</ele>
        <time>2022-08-24T17:16:44Z</time>
      </trkpt>
      <trkpt lat="42.82220400000005" lon="-1.6247289999999943">
        <ele>437.817</ele>
        <time>2022-08-24T17:16:45Z</time>
      </trkpt>
      <trkpt lat="42.82220000000005" lon="-1.6247909999999943">
        <ele>437.809</ele>
        <time>2022-08-24T17:16:46Z</time>
      </trkpt>
      <trkpt lat="42.82219400000005" lon="-1.6248549999999944">
        <ele>437.872</ele>
        <time>2022-08-24T17:16:47Z</time>
      </trkpt>
      <trkpt lat="42.822187000000056" lon="-1.6249209999999943">
        <ele>437.622</ele>
        <time>2022-08-24T17:16:48Z</time>
      </trkpt>
      <trkpt lat="42.822182000000055" lon="-1.6249859999999943">
        <ele>437.632</ele>
        <time>2022-08-24T17:16:49Z</time>
      </trkpt>
      <trkpt lat="42.82217700000005" lon="-1.6250589999999943">
        <ele>437.668</ele>
        <time>2022-08-24T17:16:50Z</time>
      </trkpt>
      <trkpt lat="42.82217700000005" lon="-1.6251079999999942">
        <ele>437.420</ele>
        <time>2022-08-24T17:16:51Z</time>
      </trkpt>
      <trkpt lat="42.822176000000056" lon="-1.6251679999999942">
        <ele>437.487</ele>
        <time>2022-08-24T17:16:52Z</time>
      </trkpt>
      <trkpt lat="42.82217200000006" lon="-1.6252239999999942">
        <ele>437.440</ele>
        <time>2022-08-24T17:16:53Z</time>
      </trkpt>
      <trkpt lat="42.82217500000006" lon="-1.6252759999999942">
        <ele>437.414</ele>
        <time>2022-08-24T17:16:54Z</time>
      </trkpt>
      <trkpt lat="42.822179000000055" lon="-1.6253299999999942">
        <ele>437.423</ele>
        <time>2022-08-24T17:16:55Z</time>
      </trkpt>
      <trkpt lat="42.82217800000006" lon="-1.6253789999999941">
        <ele>437.427</ele>
        <time>2022-08-24T17:16:56Z</time>
      </trkpt>
      <trkpt lat="42.82217700000006" lon="-1.6254269999999942">
        <ele>437.668</ele>
        <time>2022-08-24T17:16:57Z</time>
      </trkpt>
      <trkpt lat="42.82217200000006" lon="-1.6254759999999941">
        <ele>437.614</ele>
        <time>2022-08-24T17:16:58Z</time>
      </trkpt>
      <trkpt lat="42.822159000000056" lon="-1.6255209999999942">
        <ele>437.609</ele>
        <time>2022-08-24T17:16:59Z</time>
      </trkpt>
      <trkpt lat="42.82214700000006" lon="-1.6255679999999941">
        <ele>437.633</ele>
        <time>2022-08-24T17:17:00Z</time>
      </trkpt>
      <trkpt lat="42.822097000000056" lon="-1.625738999999994">
        <ele>438.063</ele>
        <time>2022-08-24T17:17:03Z</time>
      </trkpt>
      <trkpt lat="42.822083000000056" lon="-1.625801999999994">
        <ele>438.033</ele>
        <time>2022-08-24T17:17:04Z</time>
      </trkpt>
      <trkpt lat="42.82207000000005" lon="-1.625854999999994">
        <ele>438.059</ele>
        <time>2022-08-24T17:17:05Z</time>
      </trkpt>
      <trkpt lat="42.822052000000056" lon="-1.625968999999994">
        <ele>438.081</ele>
        <time>2022-08-24T17:17:07Z</time>
      </trkpt>
      <trkpt lat="42.82204000000006" lon="-1.626024999999994">
        <ele>438.058</ele>
        <time>2022-08-24T17:17:08Z</time>
      </trkpt>
      <trkpt lat="42.82201200000006" lon="-1.626126999999994">
        <ele>438.081</ele>
        <time>2022-08-24T17:17:10Z</time>
      </trkpt>
      <trkpt lat="42.82199800000006" lon="-1.626178999999994">
        <ele>438.065</ele>
        <time>2022-08-24T17:17:11Z</time>
      </trkpt>
      <trkpt lat="42.82198600000006" lon="-1.6262289999999942">
        <ele>438.234</ele>
        <time>2022-08-24T17:17:12Z</time>
      </trkpt>
      <trkpt lat="42.821976000000056" lon="-1.626288999999994">
        <ele>438.242</ele>
        <time>2022-08-24T17:17:13Z</time>
      </trkpt>
      <trkpt lat="42.82196400000006" lon="-1.626350999999994">
        <ele>438.422</ele>
        <time>2022-08-24T17:17:14Z</time>
      </trkpt>
      <trkpt lat="42.82196300000006" lon="-1.626415999999994">
        <ele>438.614</ele>
        <time>2022-08-24T17:17:15Z</time>
      </trkpt>
      <trkpt lat="42.82197100000006" lon="-1.626473999999994">
        <ele>438.609</ele>
        <time>2022-08-24T17:17:16Z</time>
      </trkpt>
      <trkpt lat="42.82198800000006" lon="-1.6265209999999939">
        <ele>438.695</ele>
        <time>2022-08-24T17:17:17Z</time>
      </trkpt>
      <trkpt lat="42.82200700000006" lon="-1.6265539999999938">
        <ele>438.665</ele>
        <time>2022-08-24T17:17:18Z</time>
      </trkpt>
      <trkpt lat="42.82202200000006" lon="-1.626582999999994">
        <ele>438.855</ele>
        <time>2022-08-24T17:17:19Z</time>
      </trkpt>
      <trkpt lat="42.82202800000006" lon="-1.6266079999999938">
        <ele>438.821</ele>
        <time>2022-08-24T17:17:20Z</time>
      </trkpt>
      <trkpt lat="42.82203300000006" lon="-1.6266349999999938">
        <ele>438.853</ele>
        <time>2022-08-24T17:17:21Z</time>
      </trkpt>
      <trkpt lat="42.82203900000006" lon="-1.6266619999999938">
        <ele>439.050</ele>
        <time>2022-08-24T17:17:22Z</time>
      </trkpt>
      <trkpt lat="42.82203700000006" lon="-1.626679999999994">
        <ele>438.863</ele>
        <time>2022-08-24T17:17:23Z</time>
      </trkpt>
      <trkpt lat="42.82203100000006" lon="-1.626703999999994">
        <ele>439.087</ele>
        <time>2022-08-24T17:17:24Z</time>
      </trkpt>
      <trkpt lat="42.82202700000006" lon="-1.6267319999999938">
        <ele>439.036</ele>
        <time>2022-08-24T17:17:25Z</time>
      </trkpt>
      <trkpt lat="42.822020000000066" lon="-1.6267639999999939">
        <ele>439.275</ele>
        <time>2022-08-24T17:17:26Z</time>
      </trkpt>
      <trkpt lat="42.822009000000065" lon="-1.6268019999999939">
        <ele>439.228</ele>
        <time>2022-08-24T17:17:27Z</time>
      </trkpt>
      <trkpt lat="42.82196500000006" lon="-1.626976999999994">
        <ele>439.220</ele>
        <time>2022-08-24T17:17:31Z</time>
      </trkpt>
      <trkpt lat="42.82195500000006" lon="-1.627026999999994">
        <ele>439.209</ele>
        <time>2022-08-24T17:17:32Z</time>
      </trkpt>
      <trkpt lat="42.82194000000006" lon="-1.627070999999994">
        <ele>439.258</ele>
        <time>2022-08-24T17:17:33Z</time>
      </trkpt>
      <trkpt lat="42.82192300000006" lon="-1.627116999999994">
        <ele>439.228</ele>
        <time>2022-08-24T17:17:34Z</time>
      </trkpt>
      <trkpt lat="42.82191200000006" lon="-1.6271639999999938">
        <ele>439.278</ele>
        <time>2022-08-24T17:17:35Z</time>
      </trkpt>
      <trkpt lat="42.82188900000006" lon="-1.627251999999994">
        <ele>439.234</ele>
        <time>2022-08-24T17:17:37Z</time>
      </trkpt>
      <trkpt lat="42.82187500000006" lon="-1.6272959999999939">
        <ele>439.426</ele>
        <time>2022-08-24T17:17:38Z</time>
      </trkpt>
      <trkpt lat="42.821852000000064" lon="-1.6273799999999938">
        <ele>439.423</ele>
        <time>2022-08-24T17:17:40Z</time>
      </trkpt>
      <trkpt lat="42.821843000000065" lon="-1.6274179999999938">
        <ele>439.416</ele>
        <time>2022-08-24T17:17:41Z</time>
      </trkpt>
      <trkpt lat="42.82178000000007" lon="-1.627637999999994">
        <ele>439.830</ele>
        <time>2022-08-24T17:17:46Z</time>
      </trkpt>
      <trkpt lat="42.82175900000007" lon="-1.6277229999999938">
        <ele>440.059</ele>
        <time>2022-08-24T17:17:48Z</time>
      </trkpt>
      <trkpt lat="42.82173000000007" lon="-1.6278089999999938">
        <ele>440.036</ele>
        <time>2022-08-24T17:17:50Z</time>
      </trkpt>
      <trkpt lat="42.821704000000075" lon="-1.627891999999994">
        <ele>440.217</ele>
        <time>2022-08-24T17:17:52Z</time>
      </trkpt>
      <trkpt lat="42.821614000000075" lon="-1.628211999999994">
        <ele>440.618</ele>
        <time>2022-08-24T17:17:59Z</time>
      </trkpt>
      <trkpt lat="42.821518000000076" lon="-1.628577999999994">
        <ele>440.809</ele>
        <time>2022-08-24T17:18:07Z</time>
      </trkpt>
      <trkpt lat="42.82150000000008" lon="-1.628669999999994">
        <ele>440.834</ele>
        <time>2022-08-24T17:18:09Z</time>
      </trkpt>
      <trkpt lat="42.82147500000008" lon="-1.628763999999994">
        <ele>440.864</ele>
        <time>2022-08-24T17:18:11Z</time>
      </trkpt>
      <trkpt lat="42.821465000000074" lon="-1.628818999999994">
        <ele>440.854</ele>
        <time>2022-08-24T17:18:12Z</time>
      </trkpt>
      <trkpt lat="42.821372000000075" lon="-1.629145999999994">
        <ele>441.080</ele>
        <time>2022-08-24T17:18:18Z</time>
      </trkpt>
      <trkpt lat="42.82135600000007" lon="-1.629250999999994">
        <ele>441.062</ele>
        <time>2022-08-24T17:18:20Z</time>
      </trkpt>
      <trkpt lat="42.82134600000007" lon="-1.629303999999994">
        <ele>441.089</ele>
        <time>2022-08-24T17:18:21Z</time>
      </trkpt>
      <trkpt lat="42.82133200000007" lon="-1.629355999999994">
        <ele>441.062</ele>
        <time>2022-08-24T17:18:22Z</time>
      </trkpt>
      <trkpt lat="42.82131900000007" lon="-1.6294059999999941">
        <ele>441.086</ele>
        <time>2022-08-24T17:18:23Z</time>
      </trkpt>
      <trkpt lat="42.821308000000066" lon="-1.6294569999999942">
        <ele>441.285</ele>
        <time>2022-08-24T17:18:24Z</time>
      </trkpt>
      <trkpt lat="42.821297000000065" lon="-1.6295059999999941">
        <ele>441.276</ele>
        <time>2022-08-24T17:18:25Z</time>
      </trkpt>
      <trkpt lat="42.82128200000007" lon="-1.6295539999999942">
        <ele>441.290</ele>
        <time>2022-08-24T17:18:26Z</time>
      </trkpt>
      <trkpt lat="42.82126400000007" lon="-1.6296039999999943">
        <ele>441.219</ele>
        <time>2022-08-24T17:18:27Z</time>
      </trkpt>
      <trkpt lat="42.82125200000007" lon="-1.6296539999999944">
        <ele>441.209</ele>
        <time>2022-08-24T17:18:28Z</time>
      </trkpt>
      <trkpt lat="42.821243000000074" lon="-1.6297049999999944">
        <ele>441.298</ele>
        <time>2022-08-24T17:18:29Z</time>
      </trkpt>
      <trkpt lat="42.821228000000076" lon="-1.6297529999999945">
        <ele>441.288</ele>
        <time>2022-08-24T17:18:30Z</time>
      </trkpt>
      <trkpt lat="42.82122200000008" lon="-1.6297939999999944">
        <ele>441.238</ele>
        <time>2022-08-24T17:18:31Z</time>
      </trkpt>
      <trkpt lat="42.821214000000076" lon="-1.6298859999999944">
        <ele>441.254</ele>
        <time>2022-08-24T17:18:33Z</time>
      </trkpt>
      <trkpt lat="42.821220000000075" lon="-1.6299369999999944">
        <ele>441.416</ele>
        <time>2022-08-24T17:18:34Z</time>
      </trkpt>
      <trkpt lat="42.82122700000007" lon="-1.6299849999999945">
        <ele>441.423</ele>
        <time>2022-08-24T17:18:35Z</time>
      </trkpt>
      <trkpt lat="42.82125300000007" lon="-1.6301899999999945">
        <ele>441.676</ele>
        <time>2022-08-24T17:18:39Z</time>
      </trkpt>
      <trkpt lat="42.821260000000066" lon="-1.6302439999999945">
        <ele>441.660</ele>
        <time>2022-08-24T17:18:40Z</time>
      </trkpt>
      <trkpt lat="42.821266000000065" lon="-1.6302999999999945">
        <ele>441.699</ele>
        <time>2022-08-24T17:18:41Z</time>
      </trkpt>
      <trkpt lat="42.82127400000007" lon="-1.6303559999999946">
        <ele>441.827</ele>
        <time>2022-08-24T17:18:42Z</time>
      </trkpt>
      <trkpt lat="42.82133000000007" lon="-1.6307039999999946">
        <ele>441.868</ele>
        <time>2022-08-24T17:18:48Z</time>
      </trkpt>
      <trkpt lat="42.821365000000064" lon="-1.6309929999999946">
        <ele>441.814</ele>
        <time>2022-08-24T17:18:53Z</time>
      </trkpt>
      <trkpt lat="42.82136900000006" lon="-1.6310489999999946">
        <ele>442.009</ele>
        <time>2022-08-24T17:18:54Z</time>
      </trkpt>
      <trkpt lat="42.82137100000006" lon="-1.6311049999999947">
        <ele>442.083</ele>
        <time>2022-08-24T17:18:55Z</time>
      </trkpt>
      <trkpt lat="42.821376000000065" lon="-1.6311589999999947">
        <ele>442.093</ele>
        <time>2022-08-24T17:18:56Z</time>
      </trkpt>
      <trkpt lat="42.821379000000064" lon="-1.6312129999999947">
        <ele>442.073</ele>
        <time>2022-08-24T17:18:57Z</time>
      </trkpt>
      <trkpt lat="42.821387000000065" lon="-1.6312619999999947">
        <ele>442.069</ele>
        <time>2022-08-24T17:18:58Z</time>
      </trkpt>
      <trkpt lat="42.821407000000065" lon="-1.6313499999999947">
        <ele>441.861</ele>
        <time>2022-08-24T17:19:00Z</time>
      </trkpt>
      <trkpt lat="42.821413000000064" lon="-1.6314549999999948">
        <ele>441.888</ele>
        <time>2022-08-24T17:19:02Z</time>
      </trkpt>
      <trkpt lat="42.821415000000066" lon="-1.6315129999999947">
        <ele>442.091</ele>
        <time>2022-08-24T17:19:03Z</time>
      </trkpt>
      <trkpt lat="42.82142200000006" lon="-1.6315699999999946">
        <ele>442.085</ele>
        <time>2022-08-24T17:19:04Z</time>
      </trkpt>
      <trkpt lat="42.82142500000006" lon="-1.6316209999999947">
        <ele>441.884</ele>
        <time>2022-08-24T17:19:05Z</time>
      </trkpt>
      <trkpt lat="42.82143100000006" lon="-1.6316649999999946">
        <ele>441.846</ele>
        <time>2022-08-24T17:19:06Z</time>
      </trkpt>
      <trkpt lat="42.82143700000006" lon="-1.6317139999999946">
        <ele>441.888</ele>
        <time>2022-08-24T17:19:07Z</time>
      </trkpt>
      <trkpt lat="42.82144400000006" lon="-1.6317649999999946">
        <ele>441.816</ele>
        <time>2022-08-24T17:19:08Z</time>
      </trkpt>
      <trkpt lat="42.82144800000005" lon="-1.6318169999999945">
        <ele>441.809</ele>
        <time>2022-08-24T17:19:09Z</time>
      </trkpt>
      <trkpt lat="42.821445000000054" lon="-1.6318739999999945">
        <ele>441.865</ele>
        <time>2022-08-24T17:19:10Z</time>
      </trkpt>
      <trkpt lat="42.82145500000006" lon="-1.6320369999999944">
        <ele>441.865</ele>
        <time>2022-08-24T17:19:13Z</time>
      </trkpt>
      <trkpt lat="42.82145700000006" lon="-1.6320839999999943">
        <ele>441.865</ele>
        <time>2022-08-24T17:19:14Z</time>
      </trkpt>
      <trkpt lat="42.821461000000056" lon="-1.6321309999999942">
        <ele>441.851</ele>
        <time>2022-08-24T17:19:15Z</time>
      </trkpt>
      <trkpt lat="42.82146300000006" lon="-1.6321829999999942">
        <ele>441.683</ele>
        <time>2022-08-24T17:19:16Z</time>
      </trkpt>
      <trkpt lat="42.821447000000056" lon="-1.6324469999999942">
        <ele>441.460</ele>
        <time>2022-08-24T17:19:21Z</time>
      </trkpt>
      <trkpt lat="42.82145200000006" lon="-1.6325529999999941">
        <ele>441.653</ele>
        <time>2022-08-24T17:19:23Z</time>
      </trkpt>
      <trkpt lat="42.82145200000006" lon="-1.632599999999994">
        <ele>441.237</ele>
        <time>2022-08-24T17:19:24Z</time>
      </trkpt>
      <trkpt lat="42.82146300000006" lon="-1.6326689999999942">
        <ele>441.426</ele>
        <time>2022-08-24T17:19:26Z</time>
      </trkpt>
      <trkpt lat="42.821467000000055" lon="-1.6327039999999942">
        <ele>441.436</ele>
        <time>2022-08-24T17:19:27Z</time>
      </trkpt>
      <trkpt lat="42.82146900000006" lon="-1.6327389999999942">
        <ele>441.417</ele>
        <time>2022-08-24T17:19:28Z</time>
      </trkpt>
      <trkpt lat="42.82147400000006" lon="-1.6327789999999942">
        <ele>441.418</ele>
        <time>2022-08-24T17:19:29Z</time>
      </trkpt>
      <trkpt lat="42.821475000000056" lon="-1.6328239999999943">
        <ele>441.409</ele>
        <time>2022-08-24T17:19:30Z</time>
      </trkpt>
      <trkpt lat="42.821467000000055" lon="-1.6328639999999943">
        <ele>441.434</ele>
        <time>2022-08-24T17:19:31Z</time>
      </trkpt>
      <trkpt lat="42.82147100000005" lon="-1.6328979999999944">
        <ele>441.414</ele>
        <time>2022-08-24T17:19:32Z</time>
      </trkpt>
      <trkpt lat="42.82147800000005" lon="-1.6329389999999944">
        <ele>441.474</ele>
        <time>2022-08-24T17:19:33Z</time>
      </trkpt>
      <trkpt lat="42.82150500000005" lon="-1.6330359999999944">
        <ele>441.480</ele>
        <time>2022-08-24T17:19:35Z</time>
      </trkpt>
      <trkpt lat="42.82151600000005" lon="-1.6330929999999944">
        <ele>441.292</ele>
        <time>2022-08-24T17:19:36Z</time>
      </trkpt>
      <trkpt lat="42.821552000000054" lon="-1.6332629999999944">
        <ele>441.259</ele>
        <time>2022-08-24T17:19:39Z</time>
      </trkpt>
      <trkpt lat="42.82155600000005" lon="-1.6334509999999944">
        <ele>441.232</ele>
        <time>2022-08-24T17:19:42Z</time>
      </trkpt>
      <trkpt lat="42.82155100000005" lon="-1.6335719999999945">
        <ele>441.086</ele>
        <time>2022-08-24T17:19:44Z</time>
      </trkpt>
      <trkpt lat="42.82154600000005" lon="-1.6337699999999944">
        <ele>441.085</ele>
        <time>2022-08-24T17:19:47Z</time>
      </trkpt>
      <trkpt lat="42.821550000000045" lon="-1.6338769999999945">
        <ele>441.297</ele>
        <time>2022-08-24T17:19:49Z</time>
      </trkpt>
      <trkpt lat="42.821530000000045" lon="-1.6340689999999944">
        <ele>441.223</ele>
        <time>2022-08-24T17:19:52Z</time>
      </trkpt>
      <trkpt lat="42.82153100000004" lon="-1.6341319999999944">
        <ele>441.225</ele>
        <time>2022-08-24T17:19:53Z</time>
      </trkpt>
      <trkpt lat="42.821527000000046" lon="-1.6341929999999945">
        <ele>441.209</ele>
        <time>2022-08-24T17:19:54Z</time>
      </trkpt>
      <trkpt lat="42.82152300000005" lon="-1.6342509999999943">
        <ele>441.220</ele>
        <time>2022-08-24T17:19:55Z</time>
      </trkpt>
      <trkpt lat="42.82147300000005" lon="-1.6345329999999942">
        <ele>441.450</ele>
        <time>2022-08-24T17:20:00Z</time>
      </trkpt>
      <trkpt lat="42.82143800000005" lon="-1.6346549999999942">
        <ele>441.490</ele>
        <time>2022-08-24T17:20:02Z</time>
      </trkpt>
      <trkpt lat="42.82138400000005" lon="-1.6348379999999942">
        <ele>441.446</ele>
        <time>2022-08-24T17:20:05Z</time>
      </trkpt>
      <trkpt lat="42.821363000000055" lon="-1.6349009999999942">
        <ele>441.488</ele>
        <time>2022-08-24T17:20:06Z</time>
      </trkpt>
      <trkpt lat="42.821341000000054" lon="-1.6349619999999943">
        <ele>441.485</ele>
        <time>2022-08-24T17:20:07Z</time>
      </trkpt>
      <trkpt lat="42.82132000000006" lon="-1.6350199999999941">
        <ele>441.478</ele>
        <time>2022-08-24T17:20:08Z</time>
      </trkpt>
      <trkpt lat="42.82130000000006" lon="-1.6350769999999941">
        <ele>441.482</ele>
        <time>2022-08-24T17:20:09Z</time>
      </trkpt>
      <trkpt lat="42.82127900000006" lon="-1.635136999999994">
        <ele>441.491</ele>
        <time>2022-08-24T17:20:10Z</time>
      </trkpt>
      <trkpt lat="42.82126000000006" lon="-1.635193999999994">
        <ele>441.459</ele>
        <time>2022-08-24T17:20:11Z</time>
      </trkpt>
      <trkpt lat="42.82124000000006" lon="-1.635248999999994">
        <ele>441.403</ele>
        <time>2022-08-24T17:20:12Z</time>
      </trkpt>
      <trkpt lat="42.82122000000006" lon="-1.635305999999994">
        <ele>441.423</ele>
        <time>2022-08-24T17:20:13Z</time>
      </trkpt>
      <trkpt lat="42.82120300000006" lon="-1.6353639999999938">
        <ele>441.409</ele>
        <time>2022-08-24T17:20:14Z</time>
      </trkpt>
      <trkpt lat="42.82114600000006" lon="-1.6355989999999938">
        <ele>441.686</ele>
        <time>2022-08-24T17:20:18Z</time>
      </trkpt>
      <trkpt lat="42.821086000000065" lon="-1.6358339999999938">
        <ele>441.866</ele>
        <time>2022-08-24T17:20:22Z</time>
      </trkpt>
      <trkpt lat="42.82101500000007" lon="-1.6360599999999939">
        <ele>441.676</ele>
        <time>2022-08-24T17:20:26Z</time>
      </trkpt>
      <trkpt lat="42.82097500000007" lon="-1.6361709999999938">
        <ele>441.882</ele>
        <time>2022-08-24T17:20:28Z</time>
      </trkpt>
      <trkpt lat="42.820948000000065" lon="-1.6362879999999937">
        <ele>441.844</ele>
        <time>2022-08-24T17:20:30Z</time>
      </trkpt>
      <trkpt lat="42.82085900000006" lon="-1.6366889999999938">
        <ele>441.421</ele>
        <time>2022-08-24T17:20:36Z</time>
      </trkpt>
      <trkpt lat="42.82084900000006" lon="-1.6367589999999939">
        <ele>441.244</ele>
        <time>2022-08-24T17:20:37Z</time>
      </trkpt>
      <trkpt lat="42.82080700000006" lon="-1.6370479999999938">
        <ele>440.838</ele>
        <time>2022-08-24T17:20:41Z</time>
      </trkpt>
      <trkpt lat="42.82079500000006" lon="-1.6371179999999939">
        <ele>440.667</ele>
        <time>2022-08-24T17:20:42Z</time>
      </trkpt>
      <trkpt lat="42.82078300000006" lon="-1.6371829999999938">
        <ele>440.658</ele>
        <time>2022-08-24T17:20:43Z</time>
      </trkpt>
      <trkpt lat="42.82077300000006" lon="-1.637238999999994">
        <ele>440.652</ele>
        <time>2022-08-24T17:20:44Z</time>
      </trkpt>
      <trkpt lat="42.82076200000006" lon="-1.637280999999994">
        <ele>440.617</ele>
        <time>2022-08-24T17:20:45Z</time>
      </trkpt>
      <trkpt lat="42.82075400000006" lon="-1.637312999999994">
        <ele>440.409</ele>
        <time>2022-08-24T17:20:46Z</time>
      </trkpt>
      <trkpt lat="42.82075100000006" lon="-1.6373359999999941">
        <ele>440.446</ele>
        <time>2022-08-24T17:20:47Z</time>
      </trkpt>
      <trkpt lat="42.820755000000055" lon="-1.6373599999999942">
        <ele>440.466</ele>
        <time>2022-08-24T17:20:48Z</time>
      </trkpt>
      <trkpt lat="42.820766000000056" lon="-1.6373779999999942">
        <ele>440.436</ele>
        <time>2022-08-24T17:20:49Z</time>
      </trkpt>
      <trkpt lat="42.82078100000005" lon="-1.6373929999999943">
        <ele>440.282</ele>
        <time>2022-08-24T17:20:50Z</time>
      </trkpt>
      <trkpt lat="42.82080100000005" lon="-1.6374069999999943">
        <ele>440.234</ele>
        <time>2022-08-24T17:20:51Z</time>
      </trkpt>
      <trkpt lat="42.820823000000054" lon="-1.6374169999999943">
        <ele>440.231</ele>
        <time>2022-08-24T17:20:52Z</time>
      </trkpt>
      <trkpt lat="42.82100700000005" lon="-1.6375039999999943">
        <ele>440.674</ele>
        <time>2022-08-24T17:20:59Z</time>
      </trkpt>
      <trkpt lat="42.82102800000005" lon="-1.6375169999999943">
        <ele>440.638</ele>
        <time>2022-08-24T17:21:00Z</time>
      </trkpt>
      <trkpt lat="42.82105200000005" lon="-1.6375309999999943">
        <ele>440.847</ele>
        <time>2022-08-24T17:21:01Z</time>
      </trkpt>
      <trkpt lat="42.82107700000005" lon="-1.6375439999999943">
        <ele>440.832</ele>
        <time>2022-08-24T17:21:02Z</time>
      </trkpt>
      <trkpt lat="42.821149000000055" lon="-1.6375789999999943">
        <ele>441.092</ele>
        <time>2022-08-24T17:21:05Z</time>
      </trkpt>
      <trkpt lat="42.821172000000054" lon="-1.6375829999999942">
        <ele>441.211</ele>
        <time>2022-08-24T17:21:06Z</time>
      </trkpt>
      <trkpt lat="42.821194000000055" lon="-1.6375859999999942">
        <ele>441.209</ele>
        <time>2022-08-24T17:21:07Z</time>
      </trkpt>
      <trkpt lat="42.82121500000005" lon="-1.6375859999999942">
        <ele>441.684</ele>
        <time>2022-08-24T17:21:08Z</time>
      </trkpt>
      <trkpt lat="42.821234000000054" lon="-1.6375869999999941">
        <ele>441.654</ele>
        <time>2022-08-24T17:21:09Z</time>
      </trkpt>
      <trkpt lat="42.82125100000005" lon="-1.6375869999999941">
        <ele>441.824</ele>
        <time>2022-08-24T17:21:10Z</time>
      </trkpt>
      <trkpt lat="42.821270000000055" lon="-1.637589999999994">
        <ele>441.860</ele>
        <time>2022-08-24T17:21:11Z</time>
      </trkpt>
      <trkpt lat="42.821290000000054" lon="-1.6375979999999941">
        <ele>442.052</ele>
        <time>2022-08-24T17:21:12Z</time>
      </trkpt>
      <trkpt lat="42.82131300000005" lon="-1.6376079999999942">
        <ele>442.089</ele>
        <time>2022-08-24T17:21:13Z</time>
      </trkpt>
      <trkpt lat="42.82133100000005" lon="-1.6376129999999942">
        <ele>442.072</ele>
        <time>2022-08-24T17:21:14Z</time>
      </trkpt>
      <trkpt lat="42.821445000000054" lon="-1.6376379999999942">
        <ele>442.266</ele>
        <time>2022-08-24T17:21:19Z</time>
      </trkpt>
      <trkpt lat="42.821467000000055" lon="-1.637643999999994">
        <ele>442.255</ele>
        <time>2022-08-24T17:21:20Z</time>
      </trkpt>
      <trkpt lat="42.82149100000006" lon="-1.6376489999999941">
        <ele>442.222</ele>
        <time>2022-08-24T17:21:21Z</time>
      </trkpt>
      <trkpt lat="42.82156200000006" lon="-1.6376779999999942">
        <ele>442.662</ele>
        <time>2022-08-24T17:21:24Z</time>
      </trkpt>
      <trkpt lat="42.821588000000055" lon="-1.6376869999999941">
        <ele>442.608</ele>
        <time>2022-08-24T17:21:25Z</time>
      </trkpt>
      <trkpt lat="42.82160400000006" lon="-1.6376939999999942">
        <ele>442.809</ele>
        <time>2022-08-24T17:21:26Z</time>
      </trkpt>
      <trkpt lat="42.82162600000006" lon="-1.6377039999999943">
        <ele>443.263</ele>
        <time>2022-08-24T17:21:27Z</time>
      </trkpt>
      <trkpt lat="42.82168400000006" lon="-1.6377309999999943">
        <ele>443.433</ele>
        <time>2022-08-24T17:21:30Z</time>
      </trkpt>
      <trkpt lat="42.82169800000006" lon="-1.6377319999999942">
        <ele>443.653</ele>
        <time>2022-08-24T17:21:31Z</time>
      </trkpt>
      <trkpt lat="42.82171000000006" lon="-1.6377289999999942">
        <ele>443.679</ele>
        <time>2022-08-24T17:21:32Z</time>
      </trkpt>
      <trkpt lat="42.82172300000006" lon="-1.6377239999999942">
        <ele>443.821</ele>
        <time>2022-08-24T17:21:33Z</time>
      </trkpt>
      <trkpt lat="42.82173800000006" lon="-1.6377209999999942">
        <ele>443.818</ele>
        <time>2022-08-24T17:21:34Z</time>
      </trkpt>
      <trkpt lat="42.82177400000006" lon="-1.6377259999999942">
        <ele>443.891</ele>
        <time>2022-08-24T17:21:36Z</time>
      </trkpt>
      <trkpt lat="42.82179400000006" lon="-1.6377369999999942">
        <ele>443.875</ele>
        <time>2022-08-24T17:21:37Z</time>
      </trkpt>
      <trkpt lat="42.82181000000006" lon="-1.6377419999999943">
        <ele>444.044</ele>
        <time>2022-08-24T17:21:38Z</time>
      </trkpt>
      <trkpt lat="42.82182800000006" lon="-1.6377429999999942">
        <ele>444.056</ele>
        <time>2022-08-24T17:21:39Z</time>
      </trkpt>
      <trkpt lat="42.82190100000006" lon="-1.6377299999999941">
        <ele>444.259</ele>
        <time>2022-08-24T17:21:42Z</time>
      </trkpt>
      <trkpt lat="42.82192300000006" lon="-1.637716999999994">
        <ele>444.214</ele>
        <time>2022-08-24T17:21:43Z</time>
      </trkpt>
      <trkpt lat="42.82194600000006" lon="-1.6376999999999942">
        <ele>444.209</ele>
        <time>2022-08-24T17:21:44Z</time>
      </trkpt>
      <trkpt lat="42.82215700000006" lon="-1.6375509999999942">
        <ele>444.256</ele>
        <time>2022-08-24T17:21:52Z</time>
      </trkpt>
      <trkpt lat="42.822353000000064" lon="-1.6374579999999943">
        <ele>444.466</ele>
        <time>2022-08-24T17:21:58Z</time>
      </trkpt>
      <trkpt lat="42.82238700000006" lon="-1.6374389999999943">
        <ele>444.226</ele>
        <time>2022-08-24T17:21:59Z</time>
      </trkpt>
      <trkpt lat="42.82242700000006" lon="-1.6374159999999942">
        <ele>444.262</ele>
        <time>2022-08-24T17:22:00Z</time>
      </trkpt>
      <trkpt lat="42.82246300000006" lon="-1.6373949999999942">
        <ele>444.014</ele>
        <time>2022-08-24T17:22:01Z</time>
      </trkpt>
      <trkpt lat="42.82249400000006" lon="-1.637376999999994">
        <ele>443.831</ele>
        <time>2022-08-24T17:22:02Z</time>
      </trkpt>
      <trkpt lat="42.822521000000066" lon="-1.637361999999994">
        <ele>443.884</ele>
        <time>2022-08-24T17:22:03Z</time>
      </trkpt>
      <trkpt lat="42.82254500000007" lon="-1.637342999999994">
        <ele>443.658</ele>
        <time>2022-08-24T17:22:04Z</time>
      </trkpt>
      <trkpt lat="42.82259600000007" lon="-1.637281999999994">
        <ele>443.417</ele>
        <time>2022-08-24T17:22:06Z</time>
      </trkpt>
      <trkpt lat="42.82269800000007" lon="-1.637095999999994">
        <ele>443.236</ele>
        <time>2022-08-24T17:22:10Z</time>
      </trkpt>
      <trkpt lat="42.82273400000007" lon="-1.637057999999994">
        <ele>443.217</ele>
        <time>2022-08-24T17:22:11Z</time>
      </trkpt>
      <trkpt lat="42.822786000000065" lon="-1.6370319999999938">
        <ele>443.218</ele>
        <time>2022-08-24T17:22:12Z</time>
      </trkpt>
      <trkpt lat="42.82282400000007" lon="-1.637030999999994">
        <ele>443.209</ele>
        <time>2022-08-24T17:22:13Z</time>
      </trkpt>
      <trkpt lat="42.82286900000007" lon="-1.637040999999994">
        <ele>443.044</ele>
        <time>2022-08-24T17:22:14Z</time>
      </trkpt>
      <trkpt lat="42.822912000000066" lon="-1.637061999999994">
        <ele>443.024</ele>
        <time>2022-08-24T17:22:15Z</time>
      </trkpt>
      <trkpt lat="42.82295300000007" lon="-1.637087999999994">
        <ele>442.824</ele>
        <time>2022-08-24T17:22:16Z</time>
      </trkpt>
      <trkpt lat="42.82299300000007" lon="-1.6371109999999942">
        <ele>442.870</ele>
        <time>2022-08-24T17:22:17Z</time>
      </trkpt>
      <trkpt lat="42.823036000000066" lon="-1.6371279999999941">
        <ele>442.882</ele>
        <time>2022-08-24T17:22:18Z</time>
      </trkpt>
      <trkpt lat="42.82308000000007" lon="-1.6371379999999942">
        <ele>442.869</ele>
        <time>2022-08-24T17:22:19Z</time>
      </trkpt>
      <trkpt lat="42.82312200000007" lon="-1.6371369999999943">
        <ele>442.882</ele>
        <time>2022-08-24T17:22:20Z</time>
      </trkpt>
      <trkpt lat="42.82316000000007" lon="-1.6371239999999943">
        <ele>442.846</ele>
        <time>2022-08-24T17:22:21Z</time>
      </trkpt>
      <trkpt lat="42.823196000000074" lon="-1.6370969999999943">
        <ele>442.645</ele>
        <time>2022-08-24T17:22:22Z</time>
      </trkpt>
      <trkpt lat="42.82323000000007" lon="-1.6370639999999943">
        <ele>442.671</ele>
        <time>2022-08-24T17:22:23Z</time>
      </trkpt>
      <trkpt lat="42.82326400000007" lon="-1.6370279999999944">
        <ele>442.441</ele>
        <time>2022-08-24T17:22:24Z</time>
      </trkpt>
      <trkpt lat="42.823297000000075" lon="-1.6369929999999944">
        <ele>442.415</ele>
        <time>2022-08-24T17:22:25Z</time>
      </trkpt>
      <trkpt lat="42.82336900000008" lon="-1.6369229999999944">
        <ele>442.209</ele>
        <time>2022-08-24T17:22:27Z</time>
      </trkpt>
      <trkpt lat="42.82348400000008" lon="-1.6368149999999944">
        <ele>442.278</ele>
        <time>2022-08-24T17:22:30Z</time>
      </trkpt>
      <trkpt lat="42.82359600000008" lon="-1.6367169999999944">
        <ele>442.278</ele>
        <time>2022-08-24T17:22:33Z</time>
      </trkpt>
      <trkpt lat="42.82363500000008" lon="-1.6366769999999944">
        <ele>442.228</ele>
        <time>2022-08-24T17:22:34Z</time>
      </trkpt>
      <trkpt lat="42.823673000000085" lon="-1.6366459999999945">
        <ele>442.234</ele>
        <time>2022-08-24T17:22:35Z</time>
      </trkpt>
      <trkpt lat="42.82370300000009" lon="-1.6366229999999944">
        <ele>442.446</ele>
        <time>2022-08-24T17:22:36Z</time>
      </trkpt>
      <trkpt lat="42.82372800000009" lon="-1.6366069999999944">
        <ele>442.423</ele>
        <time>2022-08-24T17:22:37Z</time>
      </trkpt>
      <trkpt lat="42.823749000000085" lon="-1.6365969999999943">
        <ele>442.436</ele>
        <time>2022-08-24T17:22:38Z</time>
      </trkpt>
      <trkpt lat="42.823768000000086" lon="-1.6365829999999943">
        <ele>442.420</ele>
        <time>2022-08-24T17:22:39Z</time>
      </trkpt>
      <trkpt lat="42.82379300000009" lon="-1.6365649999999943">
        <ele>442.489</ele>
        <time>2022-08-24T17:22:40Z</time>
      </trkpt>
      <trkpt lat="42.82381700000009" lon="-1.6365519999999942">
        <ele>442.468</ele>
        <time>2022-08-24T17:22:41Z</time>
      </trkpt>
      <trkpt lat="42.82390200000009" lon="-1.6364689999999942">
        <ele>442.442</ele>
        <time>2022-08-24T17:22:44Z</time>
      </trkpt>
      <trkpt lat="42.823982000000086" lon="-1.6364069999999942">
        <ele>442.426</ele>
        <time>2022-08-24T17:22:46Z</time>
      </trkpt>
      <trkpt lat="42.82402100000009" lon="-1.6363749999999941">
        <ele>442.209</ele>
        <time>2022-08-24T17:22:47Z</time>
      </trkpt>
      <trkpt lat="42.824129000000084" lon="-1.636267999999994">
        <ele>442.277</ele>
        <time>2022-08-24T17:22:50Z</time>
      </trkpt>
      <trkpt lat="42.82418400000009" lon="-1.636227999999994">
        <ele>442.237</ele>
        <time>2022-08-24T17:22:51Z</time>
      </trkpt>
      <trkpt lat="42.82418400000009" lon="-1.636227999999994">
        <ele>442.037</ele>
        <time>2022-08-24T17:22:52Z</time>
      </trkpt>
      <trkpt lat="42.82421200000009" lon="-1.636201999999994">
        <ele>442.033</ele>
        <time>2022-08-24T17:22:53Z</time>
      </trkpt>
      <trkpt lat="42.824292000000085" lon="-1.6361249999999938">
        <ele>442.285</ele>
        <time>2022-08-24T17:22:56Z</time>
      </trkpt>
      <trkpt lat="42.82434700000009" lon="-1.636080999999994">
        <ele>442.452</ele>
        <time>2022-08-24T17:22:57Z</time>
      </trkpt>
      <trkpt lat="42.82438100000009" lon="-1.636050999999994">
        <ele>442.435</ele>
        <time>2022-08-24T17:22:58Z</time>
      </trkpt>
      <trkpt lat="42.82449600000009" lon="-1.635949999999994">
        <ele>442.879</ele>
        <time>2022-08-24T17:23:02Z</time>
      </trkpt>
      <trkpt lat="42.82452100000009" lon="-1.635938999999994">
        <ele>442.828</ele>
        <time>2022-08-24T17:23:03Z</time>
      </trkpt>
      <trkpt lat="42.82452100000009" lon="-1.635938999999994">
        <ele>443.082</ele>
        <time>2022-08-24T17:23:04Z</time>
      </trkpt>
      <trkpt lat="42.82460500000009" lon="-1.635825999999994">
        <ele>443.043</ele>
        <time>2022-08-24T17:23:07Z</time>
      </trkpt>
      <trkpt lat="42.82462400000009" lon="-1.635783999999994">
        <ele>443.217</ele>
        <time>2022-08-24T17:23:08Z</time>
      </trkpt>
      <trkpt lat="42.82462400000009" lon="-1.635783999999994">
        <ele>443.209</ele>
        <time>2022-08-24T17:23:09Z</time>
      </trkpt>
      <trkpt lat="42.82466700000009" lon="-1.6357469999999938">
        <ele>443.439</ele>
        <time>2022-08-24T17:23:10Z</time>
      </trkpt>
      <trkpt lat="42.82466700000009" lon="-1.6357469999999938">
        <ele>443.479</ele>
        <time>2022-08-24T17:23:11Z</time>
      </trkpt>
      <trkpt lat="42.82476200000009" lon="-1.635729999999994">
        <ele>443.489</ele>
        <time>2022-08-24T17:23:13Z</time>
      </trkpt>
      <trkpt lat="42.824792000000095" lon="-1.635721999999994">
        <ele>443.685</ele>
        <time>2022-08-24T17:23:14Z</time>
      </trkpt>
      <trkpt lat="42.824823000000094" lon="-1.635717999999994">
        <ele>443.697</ele>
        <time>2022-08-24T17:23:15Z</time>
      </trkpt>
      <trkpt lat="42.8248500000001" lon="-1.635714999999994">
        <ele>443.654</ele>
        <time>2022-08-24T17:23:16Z</time>
      </trkpt>
      <trkpt lat="42.824941000000095" lon="-1.635711999999994">
        <ele>444.067</ele>
        <time>2022-08-24T17:23:19Z</time>
      </trkpt>
      <trkpt lat="42.824941000000095" lon="-1.635711999999994">
        <ele>444.051</ele>
        <time>2022-08-24T17:23:20Z</time>
      </trkpt>
      <trkpt lat="42.824969000000095" lon="-1.6357109999999941">
        <ele>444.080</ele>
        <time>2022-08-24T17:23:21Z</time>
      </trkpt>
      <trkpt lat="42.8251620000001" lon="-1.6357539999999942">
        <ele>444.243</ele>
        <time>2022-08-24T17:23:26Z</time>
      </trkpt>
      <trkpt lat="42.8252310000001" lon="-1.635792999999994">
        <ele>444.264</ele>
        <time>2022-08-24T17:23:28Z</time>
      </trkpt>
      <trkpt lat="42.8252980000001" lon="-1.635809999999994">
        <ele>444.410</ele>
        <time>2022-08-24T17:23:30Z</time>
      </trkpt>
      <trkpt lat="42.8254200000001" lon="-1.6358139999999939">
        <ele>444.609</ele>
        <time>2022-08-24T17:23:33Z</time>
      </trkpt>
      <trkpt lat="42.8254200000001" lon="-1.6358139999999939">
        <ele>444.895</ele>
        <time>2022-08-24T17:23:34Z</time>
      </trkpt>
      <trkpt lat="42.8254980000001" lon="-1.635829999999994">
        <ele>444.895</ele>
        <time>2022-08-24T17:23:35Z</time>
      </trkpt>
      <trkpt lat="42.825534000000104" lon="-1.6358389999999938">
        <ele>444.875</ele>
        <time>2022-08-24T17:23:36Z</time>
      </trkpt>
      <trkpt lat="42.825567000000106" lon="-1.6358499999999938">
        <ele>444.831</ele>
        <time>2022-08-24T17:23:37Z</time>
      </trkpt>
      <trkpt lat="42.8256020000001" lon="-1.6358659999999938">
        <ele>444.873</ele>
        <time>2022-08-24T17:23:38Z</time>
      </trkpt>
      <trkpt lat="42.8256020000001" lon="-1.6358659999999938">
        <ele>444.810</ele>
        <time>2022-08-24T17:23:39Z</time>
      </trkpt>
      <trkpt lat="42.8256820000001" lon="-1.635883999999994">
        <ele>444.813</ele>
        <time>2022-08-24T17:23:40Z</time>
      </trkpt>
      <trkpt lat="42.8257900000001" lon="-1.635912999999994">
        <ele>444.847</ele>
        <time>2022-08-24T17:23:43Z</time>
      </trkpt>
      <trkpt lat="42.825825000000094" lon="-1.6359219999999939">
        <ele>444.846</ele>
        <time>2022-08-24T17:23:44Z</time>
      </trkpt>
      <trkpt lat="42.82586000000009" lon="-1.6359329999999939">
        <ele>444.847</ele>
        <time>2022-08-24T17:23:45Z</time>
      </trkpt>
      <trkpt lat="42.82589400000009" lon="-1.6359449999999938">
        <ele>445.029</ele>
        <time>2022-08-24T17:23:46Z</time>
      </trkpt>
      <trkpt lat="42.82603600000009" lon="-1.6359839999999937">
        <ele>445.021</ele>
        <time>2022-08-24T17:23:50Z</time>
      </trkpt>
      <trkpt lat="42.82637300000009" lon="-1.6360919999999937">
        <ele>445.209</ele>
        <time>2022-08-24T17:23:59Z</time>
      </trkpt>
      <trkpt lat="42.82644200000009" lon="-1.6361099999999937">
        <ele>445.085</ele>
        <time>2022-08-24T17:24:01Z</time>
      </trkpt>
      <trkpt lat="42.826548000000095" lon="-1.6361419999999938">
        <ele>445.265</ele>
        <time>2022-08-24T17:24:04Z</time>
      </trkpt>
      <trkpt lat="42.82658800000009" lon="-1.6361649999999939">
        <ele>445.285</ele>
        <time>2022-08-24T17:24:05Z</time>
      </trkpt>
      <trkpt lat="42.82669300000009" lon="-1.636239999999994">
        <ele>445.091</ele>
        <time>2022-08-24T17:24:08Z</time>
      </trkpt>
      <trkpt lat="42.82672700000009" lon="-1.6362649999999939">
        <ele>445.043</ele>
        <time>2022-08-24T17:24:09Z</time>
      </trkpt>
      <trkpt lat="42.82675600000009" lon="-1.6362849999999938">
        <ele>445.050</ele>
        <time>2022-08-24T17:24:10Z</time>
      </trkpt>
      <trkpt lat="42.82678300000009" lon="-1.6363009999999938">
        <ele>445.023</ele>
        <time>2022-08-24T17:24:11Z</time>
      </trkpt>
      <trkpt lat="42.82678300000009" lon="-1.6363009999999938">
        <ele>445.057</ele>
        <time>2022-08-24T17:24:12Z</time>
      </trkpt>
      <trkpt lat="42.82683200000009" lon="-1.6363299999999938">
        <ele>445.066</ele>
        <time>2022-08-24T17:24:13Z</time>
      </trkpt>
      <trkpt lat="42.82685400000009" lon="-1.6363489999999938">
        <ele>444.871</ele>
        <time>2022-08-24T17:24:14Z</time>
      </trkpt>
      <trkpt lat="42.82701500000009" lon="-1.6364379999999938">
        <ele>444.641</ele>
        <time>2022-08-24T17:24:19Z</time>
      </trkpt>
      <trkpt lat="42.82726500000009" lon="-1.636560999999994">
        <ele>444.815</ele>
        <time>2022-08-24T17:24:25Z</time>
      </trkpt>
      <trkpt lat="42.82742900000009" lon="-1.636630999999994">
        <ele>444.809</ele>
        <time>2022-08-24T17:24:28Z</time>
      </trkpt>
      <trkpt lat="42.82755200000009" lon="-1.636710999999994">
        <ele>444.848</ele>
        <time>2022-08-24T17:24:30Z</time>
      </trkpt>
      <trkpt lat="42.82778600000009" lon="-1.636915999999994">
        <ele>444.858</ele>
        <time>2022-08-24T17:24:34Z</time>
      </trkpt>
      <trkpt lat="42.82783600000009" lon="-1.636962999999994">
        <ele>444.628</ele>
        <time>2022-08-24T17:24:35Z</time>
      </trkpt>
      <trkpt lat="42.82783600000009" lon="-1.636962999999994">
        <ele>444.644</ele>
        <time>2022-08-24T17:24:36Z</time>
      </trkpt>
      <trkpt lat="42.82793800000009" lon="-1.6370529999999939">
        <ele>444.436</ele>
        <time>2022-08-24T17:24:37Z</time>
      </trkpt>
      <trkpt lat="42.82799300000009" lon="-1.637097999999994">
        <ele>444.443</ele>
        <time>2022-08-24T17:24:38Z</time>
      </trkpt>
      <trkpt lat="42.82804400000009" lon="-1.637140999999994">
        <ele>444.246</ele>
        <time>2022-08-24T17:24:39Z</time>
      </trkpt>
      <trkpt lat="42.82809600000009" lon="-1.637186999999994">
        <ele>444.040</ele>
        <time>2022-08-24T17:24:40Z</time>
      </trkpt>
      <trkpt lat="42.82814400000009" lon="-1.637227999999994">
        <ele>444.299</ele>
        <time>2022-08-24T17:24:41Z</time>
      </trkpt>
      <trkpt lat="42.828190000000085" lon="-1.6372689999999939">
        <ele>443.856</ele>
        <time>2022-08-24T17:24:42Z</time>
      </trkpt>
      <trkpt lat="42.828229000000086" lon="-1.637305999999994">
        <ele>443.859</ele>
        <time>2022-08-24T17:24:43Z</time>
      </trkpt>
      <trkpt lat="42.82827300000009" lon="-1.6373419999999939">
        <ele>443.614</ele>
        <time>2022-08-24T17:24:44Z</time>
      </trkpt>
      <trkpt lat="42.82831100000009" lon="-1.6373809999999938">
        <ele>443.609</ele>
        <time>2022-08-24T17:24:45Z</time>
      </trkpt>
      <trkpt lat="42.82834600000009" lon="-1.6374209999999938">
        <ele>443.466</ele>
        <time>2022-08-24T17:24:46Z</time>
      </trkpt>
      <trkpt lat="42.82838300000009" lon="-1.6374619999999938">
        <ele>443.426</ele>
        <time>2022-08-24T17:24:47Z</time>
      </trkpt>
      <trkpt lat="42.82842100000009" lon="-1.6375029999999937">
        <ele>443.446</ele>
        <time>2022-08-24T17:24:48Z</time>
      </trkpt>
      <trkpt lat="42.82845800000009" lon="-1.6375429999999938">
        <ele>443.242</ele>
        <time>2022-08-24T17:24:49Z</time>
      </trkpt>
      <trkpt lat="42.82853200000009" lon="-1.6376289999999938">
        <ele>443.254</ele>
        <time>2022-08-24T17:24:51Z</time>
      </trkpt>
      <trkpt lat="42.82856500000009" lon="-1.6376739999999939">
        <ele>443.221</ele>
        <time>2022-08-24T17:24:52Z</time>
      </trkpt>
      <trkpt lat="42.82859600000009" lon="-1.6377169999999939">
        <ele>443.274</ele>
        <time>2022-08-24T17:24:53Z</time>
      </trkpt>
      <trkpt lat="42.82862800000009" lon="-1.6377549999999939">
        <ele>443.298</ele>
        <time>2022-08-24T17:24:54Z</time>
      </trkpt>
      <trkpt lat="42.82862800000009" lon="-1.6377549999999939">
        <ele>443.067</ele>
        <time>2022-08-24T17:24:55Z</time>
      </trkpt>
      <trkpt lat="42.82869000000009" lon="-1.6378209999999938">
        <ele>443.056</ele>
        <time>2022-08-24T17:24:56Z</time>
      </trkpt>
      <trkpt lat="42.82871800000009" lon="-1.6378569999999937">
        <ele>443.059</ele>
        <time>2022-08-24T17:24:57Z</time>
      </trkpt>
      <trkpt lat="42.82874500000009" lon="-1.6378939999999937">
        <ele>443.014</ele>
        <time>2022-08-24T17:24:58Z</time>
      </trkpt>
      <trkpt lat="42.82883300000009" lon="-1.6380039999999938">
        <ele>443.009</ele>
        <time>2022-08-24T17:25:01Z</time>
      </trkpt>
      <trkpt lat="42.828862000000086" lon="-1.6380339999999938">
        <ele>443.066</ele>
        <time>2022-08-24T17:25:02Z</time>
      </trkpt>
      <trkpt lat="42.82889200000009" lon="-1.6380649999999937">
        <ele>443.046</ele>
        <time>2022-08-24T17:25:03Z</time>
      </trkpt>
      <trkpt lat="42.82891400000009" lon="-1.6380889999999937">
        <ele>443.036</ele>
        <time>2022-08-24T17:25:04Z</time>
      </trkpt>
      <trkpt lat="42.82894900000009" lon="-1.6381209999999937">
        <ele>443.092</ele>
        <time>2022-08-24T17:25:05Z</time>
      </trkpt>
      <trkpt lat="42.82898000000009" lon="-1.6381469999999938">
        <ele>442.884</ele>
        <time>2022-08-24T17:25:06Z</time>
      </trkpt>
      <trkpt lat="42.82905000000009" lon="-1.6381949999999939">
        <ele>442.881</ele>
        <time>2022-08-24T17:25:08Z</time>
      </trkpt>
      <trkpt lat="42.82910500000009" lon="-1.6382139999999938">
        <ele>442.874</ele>
        <time>2022-08-24T17:25:09Z</time>
      </trkpt>
      <trkpt lat="42.82915300000009" lon="-1.638212999999994">
        <ele>442.848</ele>
        <time>2022-08-24T17:25:10Z</time>
      </trkpt>
      <trkpt lat="42.82919900000009" lon="-1.638203999999994">
        <ele>443.057</ele>
        <time>2022-08-24T17:25:11Z</time>
      </trkpt>
      <trkpt lat="42.82924300000009" lon="-1.638199999999994">
        <ele>443.014</ele>
        <time>2022-08-24T17:25:12Z</time>
      </trkpt>
      <trkpt lat="42.82928900000009" lon="-1.638197999999994">
        <ele>443.054</ele>
        <time>2022-08-24T17:25:13Z</time>
      </trkpt>
      <trkpt lat="42.82933100000009" lon="-1.638191999999994">
        <ele>443.009</ele>
        <time>2022-08-24T17:25:14Z</time>
      </trkpt>
      <trkpt lat="42.82936900000009" lon="-1.6381809999999941">
        <ele>443.209</ele>
        <time>2022-08-24T17:25:15Z</time>
      </trkpt>
      <trkpt lat="42.82940600000009" lon="-1.638172999999994">
        <ele>443.262</ele>
        <time>2022-08-24T17:25:16Z</time>
      </trkpt>
      <trkpt lat="42.82944200000009" lon="-1.638165999999994">
        <ele>443.482</ele>
        <time>2022-08-24T17:25:17Z</time>
      </trkpt>
      <trkpt lat="42.82947100000009" lon="-1.638158999999994">
        <ele>443.652</ele>
        <time>2022-08-24T17:25:18Z</time>
      </trkpt>
      <trkpt lat="42.82947100000009" lon="-1.638158999999994">
        <ele>443.638</ele>
        <time>2022-08-24T17:25:19Z</time>
      </trkpt>
      <trkpt lat="42.82952200000009" lon="-1.638149999999994">
        <ele>444.010</ele>
        <time>2022-08-24T17:25:20Z</time>
      </trkpt>
      <trkpt lat="42.82954600000009" lon="-1.638146999999994">
        <ele>444.237</ele>
        <time>2022-08-24T17:25:21Z</time>
      </trkpt>
      <trkpt lat="42.82956700000009" lon="-1.638149999999994">
        <ele>444.450</ele>
        <time>2022-08-24T17:25:22Z</time>
      </trkpt>
      <trkpt lat="42.82959300000009" lon="-1.638150999999994">
        <ele>444.674</ele>
        <time>2022-08-24T17:25:23Z</time>
      </trkpt>
      <trkpt lat="42.82959300000009" lon="-1.638150999999994">
        <ele>445.063</ele>
        <time>2022-08-24T17:25:24Z</time>
      </trkpt>
      <trkpt lat="42.829650000000086" lon="-1.638152999999994">
        <ele>445.289</ele>
        <time>2022-08-24T17:25:25Z</time>
      </trkpt>
      <trkpt lat="42.82966900000009" lon="-1.6381569999999939">
        <ele>445.206</ele>
        <time>2022-08-24T17:25:26Z</time>
      </trkpt>
      <trkpt lat="42.82968300000009" lon="-1.6381579999999938">
        <ele>445.626</ele>
        <time>2022-08-24T17:25:27Z</time>
      </trkpt>
      <trkpt lat="42.82970000000009" lon="-1.6381589999999937">
        <ele>445.609</ele>
        <time>2022-08-24T17:25:28Z</time>
      </trkpt>
      <trkpt lat="42.82970000000009" lon="-1.6381589999999937">
        <ele>446.059</ele>
        <time>2022-08-24T17:25:29Z</time>
      </trkpt>
      <trkpt lat="42.82973000000009" lon="-1.6381699999999937">
        <ele>446.279</ele>
        <time>2022-08-24T17:25:30Z</time>
      </trkpt>
      <trkpt lat="42.82974800000009" lon="-1.6381769999999938">
        <ele>446.279</ele>
        <time>2022-08-24T17:25:31Z</time>
      </trkpt>
      <trkpt lat="42.82976500000009" lon="-1.6381839999999939">
        <ele>446.475</ele>
        <time>2022-08-24T17:25:32Z</time>
      </trkpt>
      <trkpt lat="42.82978200000009" lon="-1.638193999999994">
        <ele>446.447</ele>
        <time>2022-08-24T17:25:33Z</time>
      </trkpt>
      <trkpt lat="42.82978200000009" lon="-1.638193999999994">
        <ele>446.844</ele>
        <time>2022-08-24T17:25:34Z</time>
      </trkpt>
      <trkpt lat="42.829816000000086" lon="-1.638212999999994">
        <ele>446.857</ele>
        <time>2022-08-24T17:25:35Z</time>
      </trkpt>
      <trkpt lat="42.82983500000009" lon="-1.638230999999994">
        <ele>447.081</ele>
        <time>2022-08-24T17:25:36Z</time>
      </trkpt>
      <trkpt lat="42.82984900000009" lon="-1.638243999999994">
        <ele>447.240</ele>
        <time>2022-08-24T17:25:37Z</time>
      </trkpt>
      <trkpt lat="42.82986900000009" lon="-1.638255999999994">
        <ele>447.283</ele>
        <time>2022-08-24T17:25:38Z</time>
      </trkpt>
      <trkpt lat="42.82986900000009" lon="-1.638255999999994">
        <ele>447.425</ele>
        <time>2022-08-24T17:25:39Z</time>
      </trkpt>
      <trkpt lat="42.82991000000009" lon="-1.6382809999999939">
        <ele>447.417</ele>
        <time>2022-08-24T17:25:40Z</time>
      </trkpt>
      <trkpt lat="42.82992300000009" lon="-1.638296999999994">
        <ele>447.609</ele>
        <time>2022-08-24T17:25:41Z</time>
      </trkpt>
      <trkpt lat="42.82993200000009" lon="-1.6383089999999938">
        <ele>447.669</ele>
        <time>2022-08-24T17:25:42Z</time>
      </trkpt>
      <trkpt lat="42.829945000000095" lon="-1.6383179999999937">
        <ele>447.639</ele>
        <time>2022-08-24T17:25:43Z</time>
      </trkpt>
      <trkpt lat="42.8299610000001" lon="-1.6383219999999936">
        <ele>447.889</ele>
        <time>2022-08-24T17:25:44Z</time>
      </trkpt>
      <trkpt lat="42.829976000000094" lon="-1.6383239999999937">
        <ele>447.895</ele>
        <time>2022-08-24T17:25:45Z</time>
      </trkpt>
      <trkpt lat="42.82999700000009" lon="-1.6383279999999936">
        <ele>448.077</ele>
        <time>2022-08-24T17:25:46Z</time>
      </trkpt>
      <trkpt lat="42.830010000000094" lon="-1.6383319999999935">
        <ele>448.044</ele>
        <time>2022-08-24T17:25:47Z</time>
      </trkpt>
      <trkpt lat="42.830026000000096" lon="-1.6383399999999935">
        <ele>448.267</ele>
        <time>2022-08-24T17:25:48Z</time>
      </trkpt>
      <trkpt lat="42.830026000000096" lon="-1.6383399999999935">
        <ele>448.291</ele>
        <time>2022-08-24T17:25:49Z</time>
      </trkpt>
      <trkpt lat="42.830063000000095" lon="-1.6383719999999935">
        <ele>448.270</ele>
        <time>2022-08-24T17:25:50Z</time>
      </trkpt>
      <trkpt lat="42.8300760000001" lon="-1.6383889999999934">
        <ele>448.275</ele>
        <time>2022-08-24T17:25:51Z</time>
      </trkpt>
      <trkpt lat="42.830094000000095" lon="-1.6384079999999934">
        <ele>448.428</ele>
        <time>2022-08-24T17:25:52Z</time>
      </trkpt>
      <trkpt lat="42.83011500000009" lon="-1.6384289999999935">
        <ele>448.420</ele>
        <time>2022-08-24T17:25:53Z</time>
      </trkpt>
      <trkpt lat="42.83011500000009" lon="-1.6384289999999935">
        <ele>448.409</ele>
        <time>2022-08-24T17:25:54Z</time>
      </trkpt>
      <trkpt lat="42.83016300000009" lon="-1.6384759999999934">
        <ele>448.468</ele>
        <time>2022-08-24T17:25:55Z</time>
      </trkpt>
      <trkpt lat="42.830190000000094" lon="-1.6384999999999934">
        <ele>448.418</ele>
        <time>2022-08-24T17:25:56Z</time>
      </trkpt>
      <trkpt lat="42.8302140000001" lon="-1.6385229999999935">
        <ele>448.628</ele>
        <time>2022-08-24T17:25:57Z</time>
      </trkpt>
      <trkpt lat="42.8302340000001" lon="-1.6385439999999936">
        <ele>448.684</ele>
        <time>2022-08-24T17:25:58Z</time>
      </trkpt>
      <trkpt lat="42.830254000000096" lon="-1.6385659999999935">
        <ele>448.696</ele>
        <time>2022-08-24T17:25:59Z</time>
      </trkpt>
      <trkpt lat="42.8303660000001" lon="-1.6386959999999935">
        <ele>449.223</ele>
        <time>2022-08-24T17:26:04Z</time>
      </trkpt>
      <trkpt lat="42.8303900000001" lon="-1.6387239999999934">
        <ele>449.266</ele>
        <time>2022-08-24T17:26:05Z</time>
      </trkpt>
      <trkpt lat="42.8304100000001" lon="-1.6387469999999935">
        <ele>449.230</ele>
        <time>2022-08-24T17:26:06Z</time>
      </trkpt>
      <trkpt lat="42.8304310000001" lon="-1.6387709999999935">
        <ele>449.449</ele>
        <time>2022-08-24T17:26:07Z</time>
      </trkpt>
      <trkpt lat="42.830448000000096" lon="-1.6387899999999935">
        <ele>449.431</ele>
        <time>2022-08-24T17:26:08Z</time>
      </trkpt>
      <trkpt lat="42.830448000000096" lon="-1.6387899999999935">
        <ele>449.661</ele>
        <time>2022-08-24T17:26:09Z</time>
      </trkpt>
      <trkpt lat="42.8305490000001" lon="-1.6389229999999935">
        <ele>450.007</ele>
        <time>2022-08-24T17:26:13Z</time>
      </trkpt>
      <trkpt lat="42.8305490000001" lon="-1.6389229999999935">
        <ele>450.209</ele>
        <time>2022-08-24T17:26:14Z</time>
      </trkpt>
      <trkpt lat="42.8305630000001" lon="-1.6389439999999935">
        <ele>450.274</ele>
        <time>2022-08-24T17:26:15Z</time>
      </trkpt>
      <trkpt lat="42.830600000000096" lon="-1.6390009999999935">
        <ele>450.284</ele>
        <time>2022-08-24T17:26:16Z</time>
      </trkpt>
      <trkpt lat="42.8306140000001" lon="-1.6390229999999935">
        <ele>450.494</ele>
        <time>2022-08-24T17:26:17Z</time>
      </trkpt>
      <trkpt lat="42.830631000000096" lon="-1.6390489999999935">
        <ele>450.450</ele>
        <time>2022-08-24T17:26:18Z</time>
      </trkpt>
      <trkpt lat="42.830645000000096" lon="-1.6390699999999936">
        <ele>450.472</ele>
        <time>2022-08-24T17:26:19Z</time>
      </trkpt>
      <trkpt lat="42.830662000000096" lon="-1.6390929999999937">
        <ele>450.629</ele>
        <time>2022-08-24T17:26:21Z</time>
      </trkpt>
      <trkpt lat="42.8306810000001" lon="-1.6391189999999938">
        <ele>450.662</ele>
        <time>2022-08-24T17:26:22Z</time>
      </trkpt>
      <trkpt lat="42.8307080000001" lon="-1.6391559999999938">
        <ele>450.876</ele>
        <time>2022-08-24T17:26:23Z</time>
      </trkpt>
      <trkpt lat="42.8307220000001" lon="-1.6391769999999939">
        <ele>451.085</ele>
        <time>2022-08-24T17:26:24Z</time>
      </trkpt>
      <trkpt lat="42.8307570000001" lon="-1.639237999999994">
        <ele>451.466</ele>
        <time>2022-08-24T17:26:27Z</time>
      </trkpt>
      <trkpt lat="42.830769000000096" lon="-1.639250999999994">
        <ele>451.429</ele>
        <time>2022-08-24T17:26:28Z</time>
      </trkpt>
      <trkpt lat="42.8307850000001" lon="-1.639267999999994">
        <ele>451.421</ele>
        <time>2022-08-24T17:26:29Z</time>
      </trkpt>
      <trkpt lat="42.830851000000095" lon="-1.6393609999999939">
        <ele>451.809</ele>
        <time>2022-08-24T17:26:33Z</time>
      </trkpt>
      <trkpt lat="42.830865000000095" lon="-1.6393769999999939">
        <ele>451.827</ele>
        <time>2022-08-24T17:26:34Z</time>
      </trkpt>
      <trkpt lat="42.8308810000001" lon="-1.6393969999999938">
        <ele>451.827</ele>
        <time>2022-08-24T17:26:35Z</time>
      </trkpt>
      <trkpt lat="42.8308810000001" lon="-1.6393969999999938">
        <ele>452.017</ele>
        <time>2022-08-24T17:26:36Z</time>
      </trkpt>
      <trkpt lat="42.830910000000095" lon="-1.6394389999999939">
        <ele>452.053</ele>
        <time>2022-08-24T17:26:37Z</time>
      </trkpt>
      <trkpt lat="42.830919000000094" lon="-1.6394529999999938">
        <ele>452.215</ele>
        <time>2022-08-24T17:26:38Z</time>
      </trkpt>
      <trkpt lat="42.830924000000095" lon="-1.639462999999994">
        <ele>452.232</ele>
        <time>2022-08-24T17:26:39Z</time>
      </trkpt>
      <trkpt lat="42.8309290000001" lon="-1.6394719999999938">
        <ele>452.445</ele>
        <time>2022-08-24T17:26:40Z</time>
      </trkpt>
      <trkpt lat="42.8309390000001" lon="-1.639494999999994">
        <ele>452.449</ele>
        <time>2022-08-24T17:26:41Z</time>
      </trkpt>
      <trkpt lat="42.8309460000001" lon="-1.639510999999994">
        <ele>452.648</ele>
        <time>2022-08-24T17:26:42Z</time>
      </trkpt>
      <trkpt lat="42.830952000000096" lon="-1.639531999999994">
        <ele>452.642</ele>
        <time>2022-08-24T17:26:43Z</time>
      </trkpt>
      <trkpt lat="42.8309600000001" lon="-1.639550999999994">
        <ele>452.622</ele>
        <time>2022-08-24T17:26:44Z</time>
      </trkpt>
      <trkpt lat="42.8309700000001" lon="-1.639590999999994">
        <ele>452.614</ele>
        <time>2022-08-24T17:26:46Z</time>
      </trkpt>
      <trkpt lat="42.8309840000001" lon="-1.639623999999994">
        <ele>452.609</ele>
        <time>2022-08-24T17:26:47Z</time>
      </trkpt>
      <trkpt lat="42.8309880000001" lon="-1.6396549999999939">
        <ele>452.645</ele>
        <time>2022-08-24T17:26:48Z</time>
      </trkpt>
      <trkpt lat="42.8309730000001" lon="-1.639729999999994">
        <ele>452.845</ele>
        <time>2022-08-24T17:26:50Z</time>
      </trkpt>
      <trkpt lat="42.8309700000001" lon="-1.639769999999994">
        <ele>452.865</ele>
        <time>2022-08-24T17:26:51Z</time>
      </trkpt>
      <trkpt lat="42.8309670000001" lon="-1.639809999999994">
        <ele>452.851</ele>
        <time>2022-08-24T17:26:52Z</time>
      </trkpt>
      <trkpt lat="42.8309780000001" lon="-1.639847999999994">
        <ele>452.863</ele>
        <time>2022-08-24T17:26:53Z</time>
      </trkpt>
      <trkpt lat="42.8309800000001" lon="-1.639876999999994">
        <ele>452.860</ele>
        <time>2022-08-24T17:26:54Z</time>
      </trkpt>
      <trkpt lat="42.8309870000001" lon="-1.639919999999994">
        <ele>452.833</ele>
        <time>2022-08-24T17:26:55Z</time>
      </trkpt>
      <trkpt lat="42.8310070000001" lon="-1.640122999999994">
        <ele>452.487</ele>
        <time>2022-08-24T17:27:00Z</time>
      </trkpt>
      <trkpt lat="42.8310030000001" lon="-1.640163999999994">
        <ele>452.436</ele>
        <time>2022-08-24T17:27:01Z</time>
      </trkpt>
      <trkpt lat="42.8309800000001" lon="-1.640251999999994">
        <ele>452.499</ele>
        <time>2022-08-24T17:27:03Z</time>
      </trkpt>
      <trkpt lat="42.83097300000011" lon="-1.640294999999994">
        <ele>452.407</ele>
        <time>2022-08-24T17:27:04Z</time>
      </trkpt>
      <trkpt lat="42.83092700000011" lon="-1.6404529999999942">
        <ele>452.427</ele>
        <time>2022-08-24T17:27:08Z</time>
      </trkpt>
      <trkpt lat="42.83086800000011" lon="-1.6406359999999942">
        <ele>452.409</ele>
        <time>2022-08-24T17:27:13Z</time>
      </trkpt>
      <trkpt lat="42.83084900000011" lon="-1.6406709999999942">
        <ele>452.410</ele>
        <time>2022-08-24T17:27:14Z</time>
      </trkpt>
      <trkpt lat="42.830816000000105" lon="-1.6407409999999942">
        <ele>452.230</ele>
        <time>2022-08-24T17:27:16Z</time>
      </trkpt>
      <trkpt lat="42.830743000000105" lon="-1.6408079999999943">
        <ele>452.280</ele>
        <time>2022-08-24T17:27:18Z</time>
      </trkpt>
      <trkpt lat="42.8307100000001" lon="-1.6408459999999943">
        <ele>452.256</ele>
        <time>2022-08-24T17:27:19Z</time>
      </trkpt>
      <trkpt lat="42.830653000000105" lon="-1.6409169999999942">
        <ele>452.238</ele>
        <time>2022-08-24T17:27:21Z</time>
      </trkpt>
      <trkpt lat="42.8306290000001" lon="-1.6409409999999942">
        <ele>452.225</ele>
        <time>2022-08-24T17:27:22Z</time>
      </trkpt>
      <trkpt lat="42.8306290000001" lon="-1.6409409999999942">
        <ele>452.068</ele>
        <time>2022-08-24T17:27:23Z</time>
      </trkpt>
      <trkpt lat="42.8305760000001" lon="-1.6410139999999942">
        <ele>452.032</ele>
        <time>2022-08-24T17:27:24Z</time>
      </trkpt>
      <trkpt lat="42.8305510000001" lon="-1.6410429999999943">
        <ele>452.071</ele>
        <time>2022-08-24T17:27:25Z</time>
      </trkpt>
      <trkpt lat="42.8305320000001" lon="-1.6410649999999942">
        <ele>451.892</ele>
        <time>2022-08-24T17:27:26Z</time>
      </trkpt>
      <trkpt lat="42.830513000000096" lon="-1.6410909999999943">
        <ele>451.873</ele>
        <time>2022-08-24T17:27:27Z</time>
      </trkpt>
      <trkpt lat="42.830513000000096" lon="-1.6410909999999943">
        <ele>451.820</ele>
        <time>2022-08-24T17:27:28Z</time>
      </trkpt>
      <trkpt lat="42.8304840000001" lon="-1.6411279999999944">
        <ele>451.609</ele>
        <time>2022-08-24T17:27:29Z</time>
      </trkpt>
      <trkpt lat="42.830474000000095" lon="-1.6411399999999943">
        <ele>451.680</ele>
        <time>2022-08-24T17:27:30Z</time>
      </trkpt>
      <trkpt lat="42.830465000000096" lon="-1.6411489999999942">
        <ele>451.630</ele>
        <time>2022-08-24T17:27:31Z</time>
      </trkpt>
      <trkpt lat="42.8304530000001" lon="-1.6411589999999943">
        <ele>451.420</ele>
        <time>2022-08-24T17:27:32Z</time>
      </trkpt>
      <trkpt lat="42.830443000000095" lon="-1.6411689999999943">
        <ele>451.246</ele>
        <time>2022-08-24T17:27:33Z</time>
      </trkpt>
      <trkpt lat="42.8304390000001" lon="-1.6411849999999943">
        <ele>451.228</ele>
        <time>2022-08-24T17:27:36Z</time>
      </trkpt>
      <trkpt lat="42.8304450000001" lon="-1.6411999999999944">
        <ele>451.285</ele>
        <time>2022-08-24T17:27:37Z</time>
      </trkpt>
      <trkpt lat="42.830516000000095" lon="-1.6412269999999944">
        <ele>451.248</ele>
        <time>2022-08-24T17:27:42Z</time>
      </trkpt>
      <trkpt lat="42.83053400000009" lon="-1.6412359999999944">
        <ele>451.252</ele>
        <time>2022-08-24T17:27:43Z</time>
      </trkpt>
      <trkpt lat="42.83053400000009" lon="-1.6412359999999944">
        <ele>451.271</ele>
        <time>2022-08-24T17:27:44Z</time>
      </trkpt>
      <trkpt lat="42.83056600000009" lon="-1.6413029999999944">
        <ele>451.264</ele>
        <time>2022-08-24T17:27:45Z</time>
      </trkpt>
      <trkpt lat="42.83057100000009" lon="-1.6413289999999945">
        <ele>451.206</ele>
        <time>2022-08-24T17:27:46Z</time>
      </trkpt>
      <trkpt lat="42.83056500000009" lon="-1.6413519999999946">
        <ele>451.216</ele>
        <time>2022-08-24T17:27:47Z</time>
      </trkpt>
      <trkpt lat="42.83056500000009" lon="-1.6413519999999946">
        <ele>451.209</ele>
        <time>2022-08-24T17:27:48Z</time>
      </trkpt>
      <trkpt lat="42.83055500000009" lon="-1.6413739999999946">
        <ele>451.417</ele>
        <time>2022-08-24T17:27:49Z</time>
      </trkpt>
      <trkpt lat="42.83053900000009" lon="-1.6414339999999945">
        <ele>451.477</ele>
        <time>2022-08-24T17:27:50Z</time>
      </trkpt>
      <trkpt lat="42.83053600000009" lon="-1.6414579999999945">
        <ele>451.687</ele>
        <time>2022-08-24T17:27:51Z</time>
      </trkpt>
      <trkpt lat="42.830537000000085" lon="-1.6414989999999945">
        <ele>451.873</ele>
        <time>2022-08-24T17:27:53Z</time>
      </trkpt>
      <trkpt lat="42.830543000000084" lon="-1.6415229999999945">
        <ele>451.855</ele>
        <time>2022-08-24T17:27:54Z</time>
      </trkpt>
      <trkpt lat="42.830548000000086" lon="-1.6415439999999946">
        <ele>452.072</ele>
        <time>2022-08-24T17:27:55Z</time>
      </trkpt>
      <trkpt lat="42.830551000000085" lon="-1.6415679999999946">
        <ele>452.045</ele>
        <time>2022-08-24T17:27:56Z</time>
      </trkpt>
      <trkpt lat="42.830554000000085" lon="-1.6415919999999946">
        <ele>452.269</ele>
        <time>2022-08-24T17:27:57Z</time>
      </trkpt>
      <trkpt lat="42.83054700000009" lon="-1.6416109999999946">
        <ele>452.238</ele>
        <time>2022-08-24T17:27:58Z</time>
      </trkpt>
      <trkpt lat="42.83050700000009" lon="-1.6416569999999946">
        <ele>452.229</ele>
        <time>2022-08-24T17:28:00Z</time>
      </trkpt>
      <trkpt lat="42.83049900000009" lon="-1.6417009999999945">
        <ele>452.200</ele>
        <time>2022-08-24T17:28:02Z</time>
      </trkpt>
      <trkpt lat="42.83047300000009" lon="-1.6417789999999945">
        <ele>452.020</ele>
        <time>2022-08-24T17:28:03Z</time>
      </trkpt>
      <trkpt lat="42.83045900000009" lon="-1.6418189999999946">
        <ele>452.009</ele>
        <time>2022-08-24T17:28:04Z</time>
      </trkpt>
      <trkpt lat="42.83044500000009" lon="-1.6418589999999946">
        <ele>452.033</ele>
        <time>2022-08-24T17:28:05Z</time>
      </trkpt>
      <trkpt lat="42.83041900000009" lon="-1.6419009999999947">
        <ele>452.013</ele>
        <time>2022-08-24T17:28:06Z</time>
      </trkpt>
      <trkpt lat="42.83040600000009" lon="-1.6419279999999947">
        <ele>452.043</ele>
        <time>2022-08-24T17:28:07Z</time>
      </trkpt>
      <trkpt lat="42.83040600000009" lon="-1.6419279999999947">
        <ele>452.069</ele>
        <time>2022-08-24T17:28:08Z</time>
      </trkpt>
      <trkpt lat="42.830379000000086" lon="-1.6419939999999946">
        <ele>452.041</ele>
        <time>2022-08-24T17:28:09Z</time>
      </trkpt>
      <trkpt lat="42.830379000000086" lon="-1.6419939999999946">
        <ele>452.038</ele>
        <time>2022-08-24T17:28:10Z</time>
      </trkpt>
      <trkpt lat="42.830340000000085" lon="-1.6420609999999947">
        <ele>452.071</ele>
        <time>2022-08-24T17:28:11Z</time>
      </trkpt>
      <trkpt lat="42.830298000000084" lon="-1.6422249999999947">
        <ele>451.865</ele>
        <time>2022-08-24T17:28:15Z</time>
      </trkpt>
      <trkpt lat="42.830261000000085" lon="-1.6423239999999948">
        <ele>451.834</ele>
        <time>2022-08-24T17:28:16Z</time>
      </trkpt>
      <trkpt lat="42.830256000000084" lon="-1.6423859999999948">
        <ele>451.821</ele>
        <time>2022-08-24T17:28:17Z</time>
      </trkpt>
      <trkpt lat="42.830242000000084" lon="-1.6424369999999948">
        <ele>451.841</ele>
        <time>2022-08-24T17:28:18Z</time>
      </trkpt>
      <trkpt lat="42.83023800000009" lon="-1.6424909999999948">
        <ele>451.805</ele>
        <time>2022-08-24T17:28:19Z</time>
      </trkpt>
      <trkpt lat="42.83023500000009" lon="-1.6425389999999949">
        <ele>451.609</ele>
        <time>2022-08-24T17:28:20Z</time>
      </trkpt>
      <trkpt lat="42.83022600000009" lon="-1.642583999999995">
        <ele>451.683</ele>
        <time>2022-08-24T17:28:21Z</time>
      </trkpt>
      <trkpt lat="42.83021500000009" lon="-1.6426119999999949">
        <ele>451.673</ele>
        <time>2022-08-24T17:28:22Z</time>
      </trkpt>
      <trkpt lat="42.83020600000009" lon="-1.6426319999999948">
        <ele>451.663</ele>
        <time>2022-08-24T17:28:23Z</time>
      </trkpt>
      <trkpt lat="42.83019100000009" lon="-1.6426549999999949">
        <ele>451.419</ele>
        <time>2022-08-24T17:28:24Z</time>
      </trkpt>
      <trkpt lat="42.830170000000095" lon="-1.642678999999995">
        <ele>451.461</ele>
        <time>2022-08-24T17:28:25Z</time>
      </trkpt>
      <trkpt lat="42.8301490000001" lon="-1.6427169999999949">
        <ele>451.258</ele>
        <time>2022-08-24T17:28:26Z</time>
      </trkpt>
      <trkpt lat="42.8301310000001" lon="-1.6427519999999949">
        <ele>451.241</ele>
        <time>2022-08-24T17:28:27Z</time>
      </trkpt>
      <trkpt lat="42.8301060000001" lon="-1.642801999999995">
        <ele>451.265</ele>
        <time>2022-08-24T17:28:28Z</time>
      </trkpt>
      <trkpt lat="42.8301060000001" lon="-1.642801999999995">
        <ele>451.224</ele>
        <time>2022-08-24T17:28:29Z</time>
      </trkpt>
      <trkpt lat="42.8300740000001" lon="-1.642891999999995">
        <ele>451.048</ele>
        <time>2022-08-24T17:28:30Z</time>
      </trkpt>
      <trkpt lat="42.8300610000001" lon="-1.642937999999995">
        <ele>451.061</ele>
        <time>2022-08-24T17:28:31Z</time>
      </trkpt>
      <trkpt lat="42.8300200000001" lon="-1.643096999999995">
        <ele>451.017</ele>
        <time>2022-08-24T17:28:35Z</time>
      </trkpt>
      <trkpt lat="42.830007000000094" lon="-1.6431599999999948">
        <ele>451.009</ele>
        <time>2022-08-24T17:28:36Z</time>
      </trkpt>
      <trkpt lat="42.82996900000009" lon="-1.6433139999999948">
        <ele>451.045</ele>
        <time>2022-08-24T17:28:38Z</time>
      </trkpt>
      <trkpt lat="42.82997200000009" lon="-1.6433519999999948">
        <ele>451.085</ele>
        <time>2022-08-24T17:28:39Z</time>
      </trkpt>
      <trkpt lat="42.82997000000009" lon="-1.6433979999999948">
        <ele>451.025</ele>
        <time>2022-08-24T17:28:40Z</time>
      </trkpt>
      <trkpt lat="42.82996300000009" lon="-1.6434429999999949">
        <ele>451.011</ele>
        <time>2022-08-24T17:28:41Z</time>
      </trkpt>
      <trkpt lat="42.82994700000009" lon="-1.643487999999995">
        <ele>451.033</ele>
        <time>2022-08-24T17:28:42Z</time>
      </trkpt>
      <trkpt lat="42.82993200000009" lon="-1.6435189999999948">
        <ele>450.830</ele>
        <time>2022-08-24T17:28:43Z</time>
      </trkpt>
      <trkpt lat="42.82991800000009" lon="-1.6435429999999949">
        <ele>451.083</ele>
        <time>2022-08-24T17:28:44Z</time>
      </trkpt>
      <trkpt lat="42.829903000000094" lon="-1.6435779999999949">
        <ele>451.047</ele>
        <time>2022-08-24T17:28:45Z</time>
      </trkpt>
      <trkpt lat="42.8298850000001" lon="-1.6436089999999948">
        <ele>451.026</ele>
        <time>2022-08-24T17:28:46Z</time>
      </trkpt>
      <trkpt lat="42.8298670000001" lon="-1.6436489999999948">
        <ele>451.062</ele>
        <time>2022-08-24T17:28:47Z</time>
      </trkpt>
      <trkpt lat="42.8298520000001" lon="-1.6436809999999948">
        <ele>450.883</ele>
        <time>2022-08-24T17:28:48Z</time>
      </trkpt>
      <trkpt lat="42.8297660000001" lon="-1.6438859999999949">
        <ele>450.811</ele>
        <time>2022-08-24T17:28:53Z</time>
      </trkpt>
      <trkpt lat="42.8297470000001" lon="-1.643930999999995">
        <ele>450.809</ele>
        <time>2022-08-24T17:28:54Z</time>
      </trkpt>
      <trkpt lat="42.8297290000001" lon="-1.6439639999999949">
        <ele>450.847</ele>
        <time>2022-08-24T17:28:55Z</time>
      </trkpt>
      <trkpt lat="42.8297080000001" lon="-1.6440079999999948">
        <ele>450.847</ele>
        <time>2022-08-24T17:28:56Z</time>
      </trkpt>
      <trkpt lat="42.8296520000001" lon="-1.6441829999999948">
        <ele>450.637</ele>
        <time>2022-08-24T17:28:59Z</time>
      </trkpt>
      <trkpt lat="42.8296380000001" lon="-1.6442349999999948">
        <ele>450.643</ele>
        <time>2022-08-24T17:29:00Z</time>
      </trkpt>
      <trkpt lat="42.8296220000001" lon="-1.6442839999999947">
        <ele>450.645</ele>
        <time>2022-08-24T17:29:01Z</time>
      </trkpt>
      <trkpt lat="42.8296220000001" lon="-1.6442839999999947">
        <ele>450.492</ele>
        <time>2022-08-24T17:29:02Z</time>
      </trkpt>
      <trkpt lat="42.8295940000001" lon="-1.6443639999999948">
        <ele>450.455</ele>
        <time>2022-08-24T17:29:03Z</time>
      </trkpt>
      <trkpt lat="42.8295870000001" lon="-1.6444099999999948">
        <ele>450.469</ele>
        <time>2022-08-24T17:29:04Z</time>
      </trkpt>
      <trkpt lat="42.8295850000001" lon="-1.6444559999999948">
        <ele>450.458</ele>
        <time>2022-08-24T17:29:05Z</time>
      </trkpt>
      <trkpt lat="42.8295830000001" lon="-1.6444959999999949">
        <ele>450.437</ele>
        <time>2022-08-24T17:29:06Z</time>
      </trkpt>
      <trkpt lat="42.8295640000001" lon="-1.6445609999999948">
        <ele>450.449</ele>
        <time>2022-08-24T17:29:08Z</time>
      </trkpt>
      <trkpt lat="42.829480000000096" lon="-1.644813999999995">
        <ele>450.213</ele>
        <time>2022-08-24T17:29:15Z</time>
      </trkpt>
      <trkpt lat="42.829480000000096" lon="-1.644813999999995">
        <ele>450.209</ele>
        <time>2022-08-24T17:29:16Z</time>
      </trkpt>
      <trkpt lat="42.82945300000009" lon="-1.6448629999999949">
        <ele>450.274</ele>
        <time>2022-08-24T17:29:17Z</time>
      </trkpt>
      <trkpt lat="42.82937800000009" lon="-1.6449469999999948">
        <ele>450.414</ele>
        <time>2022-08-24T17:29:21Z</time>
      </trkpt>
      <trkpt lat="42.829357000000094" lon="-1.6449589999999947">
        <ele>450.424</ele>
        <time>2022-08-24T17:29:22Z</time>
      </trkpt>
      <trkpt lat="42.829357000000094" lon="-1.6449589999999947">
        <ele>450.420</ele>
        <time>2022-08-24T17:29:23Z</time>
      </trkpt>
      <trkpt lat="42.82931600000009" lon="-1.6450009999999948">
        <ele>450.482</ele>
        <time>2022-08-24T17:29:24Z</time>
      </trkpt>
      <trkpt lat="42.82929400000009" lon="-1.6450249999999949">
        <ele>450.439</ele>
        <time>2022-08-24T17:29:25Z</time>
      </trkpt>
      <trkpt lat="42.829270000000086" lon="-1.645047999999995">
        <ele>450.462</ele>
        <time>2022-08-24T17:29:26Z</time>
      </trkpt>
      <trkpt lat="42.829257000000084" lon="-1.6450789999999949">
        <ele>450.266</ele>
        <time>2022-08-24T17:29:27Z</time>
      </trkpt>
      <trkpt lat="42.82924700000008" lon="-1.6451179999999948">
        <ele>450.285</ele>
        <time>2022-08-24T17:29:28Z</time>
      </trkpt>
      <trkpt lat="42.82923300000008" lon="-1.6451439999999948">
        <ele>450.091</ele>
        <time>2022-08-24T17:29:29Z</time>
      </trkpt>
      <trkpt lat="42.82922400000008" lon="-1.6451659999999948">
        <ele>450.081</ele>
        <time>2022-08-24T17:29:30Z</time>
      </trkpt>
      <trkpt lat="42.829217000000085" lon="-1.645188999999995">
        <ele>450.019</ele>
        <time>2022-08-24T17:29:31Z</time>
      </trkpt>
      <trkpt lat="42.829217000000085" lon="-1.645188999999995">
        <ele>449.809</ele>
        <time>2022-08-24T17:29:32Z</time>
      </trkpt>
      <trkpt lat="42.82918200000009" lon="-1.6452519999999948">
        <ele>449.830</ele>
        <time>2022-08-24T17:29:33Z</time>
      </trkpt>
      <trkpt lat="42.829169000000086" lon="-1.6452999999999949">
        <ele>449.860</ele>
        <time>2022-08-24T17:29:34Z</time>
      </trkpt>
      <trkpt lat="42.82913200000009" lon="-1.645398999999995">
        <ele>449.620</ele>
        <time>2022-08-24T17:29:36Z</time>
      </trkpt>
      <trkpt lat="42.82911500000009" lon="-1.645574999999995">
        <ele>449.676</ele>
        <time>2022-08-24T17:29:39Z</time>
      </trkpt>
      <trkpt lat="42.82911200000009" lon="-1.6456139999999948">
        <ele>449.638</ele>
        <time>2022-08-24T17:29:40Z</time>
      </trkpt>
      <trkpt lat="42.82910900000009" lon="-1.6456539999999948">
        <ele>449.675</ele>
        <time>2022-08-24T17:29:41Z</time>
      </trkpt>
      <trkpt lat="42.82908700000009" lon="-1.6457119999999947">
        <ele>449.688</ele>
        <time>2022-08-24T17:29:44Z</time>
      </trkpt>
      <trkpt lat="42.82905600000009" lon="-1.6457549999999947">
        <ele>449.622</ele>
        <time>2022-08-24T17:29:45Z</time>
      </trkpt>
      <trkpt lat="42.82903900000009" lon="-1.6457869999999948">
        <ele>449.621</ele>
        <time>2022-08-24T17:29:46Z</time>
      </trkpt>
      <trkpt lat="42.82902400000009" lon="-1.6458159999999948">
        <ele>449.477</ele>
        <time>2022-08-24T17:29:47Z</time>
      </trkpt>
      <trkpt lat="42.82901700000009" lon="-1.645852999999995">
        <ele>449.461</ele>
        <time>2022-08-24T17:29:49Z</time>
      </trkpt>
      <trkpt lat="42.82900700000009" lon="-1.6459179999999949">
        <ele>449.427</ele>
        <time>2022-08-24T17:29:50Z</time>
      </trkpt>
      <trkpt lat="42.82899800000009" lon="-1.645933999999995">
        <ele>449.409</ele>
        <time>2022-08-24T17:29:51Z</time>
      </trkpt>
      <trkpt lat="42.82899600000009" lon="-1.645951999999995">
        <ele>449.448</ele>
        <time>2022-08-24T17:29:52Z</time>
      </trkpt>
      <trkpt lat="42.82899000000009" lon="-1.645967999999995">
        <ele>449.438</ele>
        <time>2022-08-24T17:29:53Z</time>
      </trkpt>
      <trkpt lat="42.82899000000009" lon="-1.645985999999995">
        <ele>449.418</ele>
        <time>2022-08-24T17:29:54Z</time>
      </trkpt>
      <trkpt lat="42.82898600000009" lon="-1.646012999999995">
        <ele>449.224</ele>
        <time>2022-08-24T17:29:55Z</time>
      </trkpt>
      <trkpt lat="42.82897800000009" lon="-1.646066999999995">
        <ele>449.266</ele>
        <time>2022-08-24T17:29:57Z</time>
      </trkpt>
      <trkpt lat="42.82898300000009" lon="-1.6461009999999952">
        <ele>449.023</ele>
        <time>2022-08-24T17:29:58Z</time>
      </trkpt>
      <trkpt lat="42.82898300000009" lon="-1.6461009999999952">
        <ele>449.026</ele>
        <time>2022-08-24T17:29:59Z</time>
      </trkpt>
      <trkpt lat="42.82899700000009" lon="-1.6461729999999952">
        <ele>449.090</ele>
        <time>2022-08-24T17:30:00Z</time>
      </trkpt>
      <trkpt lat="42.82900100000009" lon="-1.6462079999999952">
        <ele>449.089</ele>
        <time>2022-08-24T17:30:01Z</time>
      </trkpt>
      <trkpt lat="42.82901000000009" lon="-1.6462279999999951">
        <ele>449.052</ele>
        <time>2022-08-24T17:30:02Z</time>
      </trkpt>
      <trkpt lat="42.82906900000009" lon="-1.6462809999999952">
        <ele>448.853</ele>
        <time>2022-08-24T17:30:05Z</time>
      </trkpt>
      <trkpt lat="42.82909200000009" lon="-1.6462959999999953">
        <ele>448.808</ele>
        <time>2022-08-24T17:30:06Z</time>
      </trkpt>
      <trkpt lat="42.82912000000009" lon="-1.6463169999999954">
        <ele>448.809</ele>
        <time>2022-08-24T17:30:07Z</time>
      </trkpt>
      <trkpt lat="42.82935900000009" lon="-1.6464459999999954">
        <ele>448.626</ele>
        <time>2022-08-24T17:30:15Z</time>
      </trkpt>
      <trkpt lat="42.82960200000009" lon="-1.6465839999999954">
        <ele>448.436</ele>
        <time>2022-08-24T17:30:23Z</time>
      </trkpt>
      <trkpt lat="42.829633000000086" lon="-1.6465979999999953">
        <ele>448.456</ele>
        <time>2022-08-24T17:30:24Z</time>
      </trkpt>
      <trkpt lat="42.829664000000086" lon="-1.6466119999999953">
        <ele>448.432</ele>
        <time>2022-08-24T17:30:25Z</time>
      </trkpt>
      <trkpt lat="42.82985500000009" lon="-1.6466889999999954">
        <ele>448.444</ele>
        <time>2022-08-24T17:30:32Z</time>
      </trkpt>
      <trkpt lat="42.83001200000009" lon="-1.6467579999999955">
        <ele>448.661</ele>
        <time>2022-08-24T17:30:36Z</time>
      </trkpt>
      <trkpt lat="42.83005000000009" lon="-1.6467709999999955">
        <ele>448.644</ele>
        <time>2022-08-24T17:30:37Z</time>
      </trkpt>
      <trkpt lat="42.830117000000094" lon="-1.6468019999999954">
        <ele>448.638</ele>
        <time>2022-08-24T17:30:39Z</time>
      </trkpt>
      <trkpt lat="42.830192000000096" lon="-1.6468369999999954">
        <ele>448.687</ele>
        <time>2022-08-24T17:30:41Z</time>
      </trkpt>
      <trkpt lat="42.83025500000009" lon="-1.6468669999999954">
        <ele>448.643</ele>
        <time>2022-08-24T17:30:43Z</time>
      </trkpt>
      <trkpt lat="42.83028700000009" lon="-1.6468829999999954">
        <ele>448.664</ele>
        <time>2022-08-24T17:30:44Z</time>
      </trkpt>
      <trkpt lat="42.83032000000009" lon="-1.6468929999999955">
        <ele>448.610</ele>
        <time>2022-08-24T17:30:45Z</time>
      </trkpt>
      <trkpt lat="42.830356000000094" lon="-1.6469059999999955">
        <ele>448.609</ele>
        <time>2022-08-24T17:30:46Z</time>
      </trkpt>
      <trkpt lat="42.8303830000001" lon="-1.6469179999999954">
        <ele>448.645</ele>
        <time>2022-08-24T17:30:47Z</time>
      </trkpt>
      <trkpt lat="42.8304050000001" lon="-1.6469449999999954">
        <ele>448.625</ele>
        <time>2022-08-24T17:30:48Z</time>
      </trkpt>
      <trkpt lat="42.8304270000001" lon="-1.6469519999999955">
        <ele>448.665</ele>
        <time>2022-08-24T17:30:49Z</time>
      </trkpt>
      <trkpt lat="42.830448000000096" lon="-1.6469629999999955">
        <ele>448.451</ele>
        <time>2022-08-24T17:30:50Z</time>
      </trkpt>
      <trkpt lat="42.83053100000009" lon="-1.6470129999999956">
        <ele>448.673</ele>
        <time>2022-08-24T17:30:53Z</time>
      </trkpt>
      <trkpt lat="42.83073100000009" lon="-1.6470919999999956">
        <ele>448.630</ele>
        <time>2022-08-24T17:31:01Z</time>
      </trkpt>
      <trkpt lat="42.83079400000009" lon="-1.6470999999999956">
        <ele>448.673</ele>
        <time>2022-08-24T17:31:02Z</time>
      </trkpt>
      <trkpt lat="42.83081800000009" lon="-1.6470959999999957">
        <ele>448.677</ele>
        <time>2022-08-24T17:31:03Z</time>
      </trkpt>
      <trkpt lat="42.83084400000009" lon="-1.6470989999999956">
        <ele>448.646</ele>
        <time>2022-08-24T17:31:04Z</time>
      </trkpt>
      <trkpt lat="42.83086200000009" lon="-1.6471079999999956">
        <ele>448.659</ele>
        <time>2022-08-24T17:31:05Z</time>
      </trkpt>
      <trkpt lat="42.83086200000009" lon="-1.6471079999999956">
        <ele>448.603</ele>
        <time>2022-08-24T17:31:06Z</time>
      </trkpt>
      <trkpt lat="42.83089200000009" lon="-1.6471249999999955">
        <ele>448.623</ele>
        <time>2022-08-24T17:31:07Z</time>
      </trkpt>
      <trkpt lat="42.83090300000009" lon="-1.6471309999999955">
        <ele>448.609</ele>
        <time>2022-08-24T17:31:08Z</time>
      </trkpt>
      <trkpt lat="42.83091100000009" lon="-1.6471399999999954">
        <ele>448.676</ele>
        <time>2022-08-24T17:31:09Z</time>
      </trkpt>
      <trkpt lat="42.830916000000094" lon="-1.6471419999999954">
        <ele>448.656</ele>
        <time>2022-08-24T17:31:10Z</time>
      </trkpt>
      <trkpt lat="42.804099" lon="-1.6636989999999998">
        <ele>439.458</ele>
        <time>2022-08-25T07:22:20Z</time>
      </trkpt>
      <trkpt lat="42.804033000000004" lon="-1.6636889999999998">
        <ele>436.452</ele>
        <time>2022-08-25T07:22:22Z</time>
      </trkpt>
      <trkpt lat="42.803965000000005" lon="-1.6636939999999998">
        <ele>436.817</ele>
        <time>2022-08-25T07:22:24Z</time>
      </trkpt>
      <trkpt lat="42.803873" lon="-1.6637239999999998">
        <ele>434.609</ele>
        <time>2022-08-25T07:22:26Z</time>
      </trkpt>
      <trkpt lat="42.803635" lon="-1.6637679999999997">
        <ele>433.626</ele>
        <time>2022-08-25T07:22:30Z</time>
      </trkpt>
      <trkpt lat="42.803565" lon="-1.6637719999999996">
        <ele>432.866</ele>
        <time>2022-08-25T07:22:31Z</time>
      </trkpt>
      <trkpt lat="42.803419" lon="-1.6637719999999996">
        <ele>434.276</ele>
        <time>2022-08-25T07:22:33Z</time>
      </trkpt>
      <trkpt lat="42.803352" lon="-1.6637709999999997">
        <ele>434.212</ele>
        <time>2022-08-25T07:22:34Z</time>
      </trkpt>
      <trkpt lat="42.803286" lon="-1.6637679999999997">
        <ele>433.844</ele>
        <time>2022-08-25T07:22:35Z</time>
      </trkpt>
      <trkpt lat="42.803222" lon="-1.6637589999999998">
        <ele>433.221</ele>
        <time>2022-08-25T07:22:36Z</time>
      </trkpt>
      <trkpt lat="42.803159" lon="-1.6637429999999997">
        <ele>432.834</ele>
        <time>2022-08-25T07:22:37Z</time>
      </trkpt>
      <trkpt lat="42.803093000000004" lon="-1.6637199999999996">
        <ele>432.460</ele>
        <time>2022-08-25T07:22:38Z</time>
      </trkpt>
      <trkpt lat="42.803038" lon="-1.6636969999999995">
        <ele>432.461</ele>
        <time>2022-08-25T07:22:39Z</time>
      </trkpt>
      <trkpt lat="42.802981" lon="-1.6636679999999995">
        <ele>432.042</ele>
        <time>2022-08-25T07:22:40Z</time>
      </trkpt>
      <trkpt lat="42.802931" lon="-1.6636369999999996">
        <ele>432.022</ele>
        <time>2022-08-25T07:22:41Z</time>
      </trkpt>
      <trkpt lat="42.802881" lon="-1.6635999999999995">
        <ele>431.414</ele>
        <time>2022-08-25T07:22:42Z</time>
      </trkpt>
      <trkpt lat="42.802834" lon="-1.6635649999999995">
        <ele>430.809</ele>
        <time>2022-08-25T07:22:43Z</time>
      </trkpt>
      <trkpt lat="42.802735" lon="-1.6634839999999995">
        <ele>429.835</ele>
        <time>2022-08-25T07:22:45Z</time>
      </trkpt>
      <trkpt lat="42.802685" lon="-1.6634339999999994">
        <ele>429.665</ele>
        <time>2022-08-25T07:22:46Z</time>
      </trkpt>
      <trkpt lat="42.802595" lon="-1.6633229999999994">
        <ele>428.425</ele>
        <time>2022-08-25T07:22:48Z</time>
      </trkpt>
      <trkpt lat="42.802547999999994" lon="-1.6632649999999995">
        <ele>427.631</ele>
        <time>2022-08-25T07:22:49Z</time>
      </trkpt>
      <trkpt lat="42.802507999999996" lon="-1.6632129999999996">
        <ele>427.093</ele>
        <time>2022-08-25T07:22:50Z</time>
      </trkpt>
      <trkpt lat="42.802471" lon="-1.6631609999999997">
        <ele>426.690</ele>
        <time>2022-08-25T07:22:51Z</time>
      </trkpt>
      <trkpt lat="42.8024" lon="-1.6630559999999996">
        <ele>425.633</ele>
        <time>2022-08-25T07:22:53Z</time>
      </trkpt>
      <trkpt lat="42.802361" lon="-1.6630019999999996">
        <ele>424.829</ele>
        <time>2022-08-25T07:22:54Z</time>
      </trkpt>
      <trkpt lat="42.802327" lon="-1.6629519999999995">
        <ele>424.450</ele>
        <time>2022-08-25T07:22:55Z</time>
      </trkpt>
      <trkpt lat="42.802293999999996" lon="-1.6629019999999994">
        <ele>423.868</ele>
        <time>2022-08-25T07:22:56Z</time>
      </trkpt>
      <trkpt lat="42.80226999999999" lon="-1.6628629999999995">
        <ele>423.042</ele>
        <time>2022-08-25T07:22:57Z</time>
      </trkpt>
      <trkpt lat="42.802248999999996" lon="-1.6628309999999995">
        <ele>422.626</ele>
        <time>2022-08-25T07:22:58Z</time>
      </trkpt>
      <trkpt lat="42.802223999999995" lon="-1.6628179999999995">
        <ele>421.809</ele>
        <time>2022-08-25T07:22:59Z</time>
      </trkpt>
      <trkpt lat="42.80219999999999" lon="-1.6628129999999994">
        <ele>421.677</ele>
        <time>2022-08-25T07:23:00Z</time>
      </trkpt>
      <trkpt lat="42.802184999999994" lon="-1.6628219999999994">
        <ele>421.087</ele>
        <time>2022-08-25T07:23:01Z</time>
      </trkpt>
      <trkpt lat="42.802178" lon="-1.6628419999999993">
        <ele>420.477</ele>
        <time>2022-08-25T07:23:02Z</time>
      </trkpt>
      <trkpt lat="42.802172" lon="-1.6628659999999993">
        <ele>419.643</ele>
        <time>2022-08-25T07:23:03Z</time>
      </trkpt>
      <trkpt lat="42.802164" lon="-1.6628959999999993">
        <ele>419.085</ele>
        <time>2022-08-25T07:23:04Z</time>
      </trkpt>
      <trkpt lat="42.802093" lon="-1.6630729999999994">
        <ele>418.082</ele>
        <time>2022-08-25T07:23:08Z</time>
      </trkpt>
      <trkpt lat="42.802043" lon="-1.6631899999999993">
        <ele>417.835</ele>
        <time>2022-08-25T07:23:10Z</time>
      </trkpt>
      <trkpt lat="42.801987" lon="-1.6633269999999993">
        <ele>417.661</ele>
        <time>2022-08-25T07:23:12Z</time>
      </trkpt>
      <trkpt lat="42.80194899999999" lon="-1.6633979999999993">
        <ele>417.262</ele>
        <time>2022-08-25T07:23:13Z</time>
      </trkpt>
      <trkpt lat="42.801869999999994" lon="-1.6635359999999992">
        <ele>416.895</ele>
        <time>2022-08-25T07:23:15Z</time>
      </trkpt>
      <trkpt lat="42.801824999999994" lon="-1.6635959999999992">
        <ele>416.649</ele>
        <time>2022-08-25T07:23:16Z</time>
      </trkpt>
      <trkpt lat="42.801776" lon="-1.6636499999999992">
        <ele>416.423</ele>
        <time>2022-08-25T07:23:17Z</time>
      </trkpt>
      <trkpt lat="42.801722999999996" lon="-1.6637039999999992">
        <ele>416.009</ele>
        <time>2022-08-25T07:23:18Z</time>
      </trkpt>
      <trkpt lat="42.80166499999999" lon="-1.6638439999999992">
        <ele>415.870</ele>
        <time>2022-08-25T07:23:20Z</time>
      </trkpt>
      <trkpt lat="42.80164499999999" lon="-1.6639269999999993">
        <ele>415.640</ele>
        <time>2022-08-25T07:23:21Z</time>
      </trkpt>
      <trkpt lat="42.801624" lon="-1.6640129999999993">
        <ele>415.670</ele>
        <time>2022-08-25T07:23:22Z</time>
      </trkpt>
      <trkpt lat="42.801604" lon="-1.6640959999999994">
        <ele>415.676</ele>
        <time>2022-08-25T07:23:23Z</time>
      </trkpt>
      <trkpt lat="42.801584999999996" lon="-1.6641789999999994">
        <ele>415.288</ele>
        <time>2022-08-25T07:23:24Z</time>
      </trkpt>
      <trkpt lat="42.801567" lon="-1.6642589999999995">
        <ele>414.875</ele>
        <time>2022-08-25T07:23:25Z</time>
      </trkpt>
      <trkpt lat="42.801555" lon="-1.6643399999999995">
        <ele>414.818</ele>
        <time>2022-08-25T07:23:26Z</time>
      </trkpt>
      <trkpt lat="42.801534000000004" lon="-1.6644189999999994">
        <ele>414.484</ele>
        <time>2022-08-25T07:23:27Z</time>
      </trkpt>
      <trkpt lat="42.801511000000005" lon="-1.6644959999999995">
        <ele>414.415</ele>
        <time>2022-08-25T07:23:28Z</time>
      </trkpt>
      <trkpt lat="42.801491000000006" lon="-1.6645709999999996">
        <ele>414.215</ele>
        <time>2022-08-25T07:23:29Z</time>
      </trkpt>
      <trkpt lat="42.80148400000001" lon="-1.6646449999999995">
        <ele>414.265</ele>
        <time>2022-08-25T07:23:30Z</time>
      </trkpt>
      <trkpt lat="42.80148700000001" lon="-1.6647129999999994">
        <ele>414.011</ele>
        <time>2022-08-25T07:23:31Z</time>
      </trkpt>
      <trkpt lat="42.80148900000001" lon="-1.6647729999999994">
        <ele>414.009</ele>
        <time>2022-08-25T07:23:32Z</time>
      </trkpt>
      <trkpt lat="42.80148100000001" lon="-1.6648269999999994">
        <ele>414.052</ele>
        <time>2022-08-25T07:23:33Z</time>
      </trkpt>
      <trkpt lat="42.80146600000001" lon="-1.6648749999999994">
        <ele>414.062</ele>
        <time>2022-08-25T07:23:34Z</time>
      </trkpt>
      <trkpt lat="42.80145200000001" lon="-1.6649199999999995">
        <ele>414.062</ele>
        <time>2022-08-25T07:23:35Z</time>
      </trkpt>
      <trkpt lat="42.80143500000001" lon="-1.6649669999999994">
        <ele>414.058</ele>
        <time>2022-08-25T07:23:36Z</time>
      </trkpt>
      <trkpt lat="42.80141800000001" lon="-1.6650159999999994">
        <ele>414.070</ele>
        <time>2022-08-25T07:23:37Z</time>
      </trkpt>
      <trkpt lat="42.80141000000001" lon="-1.6650639999999994">
        <ele>414.027</ele>
        <time>2022-08-25T07:23:38Z</time>
      </trkpt>
      <trkpt lat="42.801403000000015" lon="-1.6651059999999995">
        <ele>414.020</ele>
        <time>2022-08-25T07:23:39Z</time>
      </trkpt>
      <trkpt lat="42.80139100000002" lon="-1.6651389999999995">
        <ele>414.096</ele>
        <time>2022-08-25T07:23:40Z</time>
      </trkpt>
      <trkpt lat="42.801378000000014" lon="-1.6651669999999994">
        <ele>414.057</ele>
        <time>2022-08-25T07:23:41Z</time>
      </trkpt>
      <trkpt lat="42.80136200000001" lon="-1.6651829999999994">
        <ele>414.066</ele>
        <time>2022-08-25T07:23:42Z</time>
      </trkpt>
      <trkpt lat="42.80134300000001" lon="-1.6651939999999994">
        <ele>413.829</ele>
        <time>2022-08-25T07:23:43Z</time>
      </trkpt>
      <trkpt lat="42.80132300000001" lon="-1.6652039999999995">
        <ele>413.821</ele>
        <time>2022-08-25T07:23:44Z</time>
      </trkpt>
      <trkpt lat="42.80130400000001" lon="-1.6652109999999996">
        <ele>413.609</ele>
        <time>2022-08-25T07:23:45Z</time>
      </trkpt>
      <trkpt lat="42.80129000000001" lon="-1.6652269999999996">
        <ele>413.627</ele>
        <time>2022-08-25T07:23:46Z</time>
      </trkpt>
      <trkpt lat="42.80127900000001" lon="-1.6652719999999996">
        <ele>413.487</ele>
        <time>2022-08-25T07:23:48Z</time>
      </trkpt>
      <trkpt lat="42.80127800000001" lon="-1.6653029999999995">
        <ele>413.487</ele>
        <time>2022-08-25T07:23:49Z</time>
      </trkpt>
      <trkpt lat="42.80127700000001" lon="-1.6655229999999996">
        <ele>413.293</ele>
        <time>2022-08-25T07:23:55Z</time>
      </trkpt>
      <trkpt lat="42.80128400000001" lon="-1.6657369999999996">
        <ele>413.065</ele>
        <time>2022-08-25T07:24:00Z</time>
      </trkpt>
      <trkpt lat="42.80127800000001" lon="-1.6657769999999996">
        <ele>413.082</ele>
        <time>2022-08-25T07:24:01Z</time>
      </trkpt>
      <trkpt lat="42.80127000000001" lon="-1.6658139999999997">
        <ele>413.065</ele>
        <time>2022-08-25T07:24:02Z</time>
      </trkpt>
      <trkpt lat="42.80126700000001" lon="-1.6658469999999996">
        <ele>413.041</ele>
        <time>2022-08-25T07:24:03Z</time>
      </trkpt>
      <trkpt lat="42.80126200000001" lon="-1.6660699999999997">
        <ele>413.062</ele>
        <time>2022-08-25T07:24:09Z</time>
      </trkpt>
      <trkpt lat="42.80124400000001" lon="-1.6661409999999997">
        <ele>413.084</ele>
        <time>2022-08-25T07:24:10Z</time>
      </trkpt>
      <trkpt lat="42.80122400000001" lon="-1.6662759999999996">
        <ele>413.007</ele>
        <time>2022-08-25T07:24:12Z</time>
      </trkpt>
      <trkpt lat="42.80121900000001" lon="-1.6663999999999997">
        <ele>413.017</ele>
        <time>2022-08-25T07:24:14Z</time>
      </trkpt>
      <trkpt lat="42.801212000000014" lon="-1.6665289999999997">
        <ele>413.009</ele>
        <time>2022-08-25T07:24:16Z</time>
      </trkpt>
      <trkpt lat="42.80121800000001" lon="-1.6666579999999998">
        <ele>413.079</ele>
        <time>2022-08-25T07:24:18Z</time>
      </trkpt>
      <trkpt lat="42.80121600000001" lon="-1.6667019999999997">
        <ele>413.059</ele>
        <time>2022-08-25T07:24:19Z</time>
      </trkpt>
      <trkpt lat="42.80121400000001" lon="-1.6667489999999996">
        <ele>413.069</ele>
        <time>2022-08-25T07:24:20Z</time>
      </trkpt>
      <trkpt lat="42.80120500000001" lon="-1.6668249999999996">
        <ele>413.035</ele>
        <time>2022-08-25T07:24:21Z</time>
      </trkpt>
      <trkpt lat="42.80119300000001" lon="-1.6669729999999996">
        <ele>413.017</ele>
        <time>2022-08-25T07:24:23Z</time>
      </trkpt>
      <trkpt lat="42.801186000000015" lon="-1.6670129999999996">
        <ele>413.044</ele>
        <time>2022-08-25T07:24:24Z</time>
      </trkpt>
      <trkpt lat="42.80119300000001" lon="-1.6670649999999996">
        <ele>413.057</ele>
        <time>2022-08-25T07:24:25Z</time>
      </trkpt>
      <trkpt lat="42.801198000000014" lon="-1.6671049999999996">
        <ele>412.863</ele>
        <time>2022-08-25T07:24:26Z</time>
      </trkpt>
      <trkpt lat="42.80120700000001" lon="-1.6671389999999997">
        <ele>412.834</ele>
        <time>2022-08-25T07:24:27Z</time>
      </trkpt>
      <trkpt lat="42.80122100000001" lon="-1.6671789999999997">
        <ele>412.829</ele>
        <time>2022-08-25T07:24:28Z</time>
      </trkpt>
      <trkpt lat="42.801234000000015" lon="-1.6672059999999997">
        <ele>412.800</ele>
        <time>2022-08-25T07:24:29Z</time>
      </trkpt>
      <trkpt lat="42.801242000000016" lon="-1.6672389999999997">
        <ele>412.820</ele>
        <time>2022-08-25T07:24:30Z</time>
      </trkpt>
      <trkpt lat="42.80120500000002" lon="-1.6673069999999997">
        <ele>412.809</ele>
        <time>2022-08-25T07:24:31Z</time>
      </trkpt>
      <trkpt lat="42.801197000000016" lon="-1.6673339999999996">
        <ele>412.843</ele>
        <time>2022-08-25T07:24:32Z</time>
      </trkpt>
      <trkpt lat="42.801195000000014" lon="-1.6673539999999996">
        <ele>412.823</ele>
        <time>2022-08-25T07:24:33Z</time>
      </trkpt>
      <trkpt lat="42.80119100000002" lon="-1.6673769999999997">
        <ele>412.843</ele>
        <time>2022-08-25T07:24:34Z</time>
      </trkpt>
      <trkpt lat="42.80119900000002" lon="-1.6674049999999996">
        <ele>412.839</ele>
        <time>2022-08-25T07:24:35Z</time>
      </trkpt>
      <trkpt lat="42.80121200000002" lon="-1.6674769999999997">
        <ele>412.871</ele>
        <time>2022-08-25T07:24:36Z</time>
      </trkpt>
      <trkpt lat="42.80120900000002" lon="-1.6675339999999996">
        <ele>412.848</ele>
        <time>2022-08-25T07:24:37Z</time>
      </trkpt>
      <trkpt lat="42.801208000000024" lon="-1.6675759999999997">
        <ele>412.871</ele>
        <time>2022-08-25T07:24:38Z</time>
      </trkpt>
      <trkpt lat="42.80119500000002" lon="-1.6678759999999997">
        <ele>412.887</ele>
        <time>2022-08-25T07:24:44Z</time>
      </trkpt>
      <trkpt lat="42.80118900000002" lon="-1.6679229999999996">
        <ele>412.838</ele>
        <time>2022-08-25T07:24:45Z</time>
      </trkpt>
      <trkpt lat="42.801154000000025" lon="-1.6681609999999996">
        <ele>413.023</ele>
        <time>2022-08-25T07:24:50Z</time>
      </trkpt>
      <trkpt lat="42.801132000000024" lon="-1.6682559999999995">
        <ele>413.083</ele>
        <time>2022-08-25T07:24:52Z</time>
      </trkpt>
      <trkpt lat="42.801067000000025" lon="-1.6685269999999994">
        <ele>413.011</ele>
        <time>2022-08-25T07:24:58Z</time>
      </trkpt>
      <trkpt lat="42.80105900000002" lon="-1.6685729999999994">
        <ele>413.009</ele>
        <time>2022-08-25T07:24:59Z</time>
      </trkpt>
      <trkpt lat="42.80105100000002" lon="-1.6686199999999993">
        <ele>413.033</ele>
        <time>2022-08-25T07:25:00Z</time>
      </trkpt>
      <trkpt lat="42.801008000000024" lon="-1.6687889999999994">
        <ele>413.013</ele>
        <time>2022-08-25T07:25:04Z</time>
      </trkpt>
      <trkpt lat="42.800999000000026" lon="-1.6688319999999994">
        <ele>412.853</ele>
        <time>2022-08-25T07:25:05Z</time>
      </trkpt>
      <trkpt lat="42.80098600000002" lon="-1.6688739999999995">
        <ele>412.859</ele>
        <time>2022-08-25T07:25:06Z</time>
      </trkpt>
      <trkpt lat="42.80097500000002" lon="-1.6689179999999995">
        <ele>412.891</ele>
        <time>2022-08-25T07:25:07Z</time>
      </trkpt>
      <trkpt lat="42.800966000000024" lon="-1.6689599999999996">
        <ele>412.888</ele>
        <time>2022-08-25T07:25:08Z</time>
      </trkpt>
      <trkpt lat="42.80096100000002" lon="-1.6690019999999997">
        <ele>412.841</ele>
        <time>2022-08-25T07:25:09Z</time>
      </trkpt>
      <trkpt lat="42.80095600000002" lon="-1.6690429999999996">
        <ele>412.867</ele>
        <time>2022-08-25T07:25:10Z</time>
      </trkpt>
      <trkpt lat="42.80095300000002" lon="-1.6690839999999996">
        <ele>412.858</ele>
        <time>2022-08-25T07:25:11Z</time>
      </trkpt>
      <trkpt lat="42.800946000000025" lon="-1.6691149999999995">
        <ele>412.865</ele>
        <time>2022-08-25T07:25:12Z</time>
      </trkpt>
      <trkpt lat="42.80093900000003" lon="-1.6691399999999994">
        <ele>412.668</ele>
        <time>2022-08-25T07:25:13Z</time>
      </trkpt>
      <trkpt lat="42.80093400000003" lon="-1.6691649999999993">
        <ele>412.614</ele>
        <time>2022-08-25T07:25:14Z</time>
      </trkpt>
      <trkpt lat="42.800909000000026" lon="-1.6692599999999993">
        <ele>412.409</ele>
        <time>2022-08-25T07:25:17Z</time>
      </trkpt>
      <trkpt lat="42.800892000000026" lon="-1.6693189999999993">
        <ele>412.477</ele>
        <time>2022-08-25T07:25:19Z</time>
      </trkpt>
      <trkpt lat="42.80079200000002" lon="-1.6695299999999993">
        <ele>412.257</ele>
        <time>2022-08-25T07:25:25Z</time>
      </trkpt>
      <trkpt lat="42.800701000000025" lon="-1.6696709999999992">
        <ele>412.277</ele>
        <time>2022-08-25T07:25:29Z</time>
      </trkpt>
      <trkpt lat="42.800687000000025" lon="-1.6697119999999992">
        <ele>412.243</ele>
        <time>2022-08-25T07:25:30Z</time>
      </trkpt>
      <trkpt lat="42.80066300000002" lon="-1.669750999999999">
        <ele>412.275</ele>
        <time>2022-08-25T07:25:31Z</time>
      </trkpt>
      <trkpt lat="42.80063000000002" lon="-1.6697929999999992">
        <ele>412.082</ele>
        <time>2022-08-25T07:25:32Z</time>
      </trkpt>
      <trkpt lat="42.80061000000002" lon="-1.6698309999999992">
        <ele>412.025</ele>
        <time>2022-08-25T07:25:33Z</time>
      </trkpt>
      <trkpt lat="42.80057000000002" lon="-1.6699099999999991">
        <ele>412.021</ele>
        <time>2022-08-25T07:25:35Z</time>
      </trkpt>
      <trkpt lat="42.80055400000002" lon="-1.6699529999999991">
        <ele>412.042</ele>
        <time>2022-08-25T07:25:36Z</time>
      </trkpt>
      <trkpt lat="42.80045000000002" lon="-1.6701599999999992">
        <ele>411.862</ele>
        <time>2022-08-25T07:25:41Z</time>
      </trkpt>
      <trkpt lat="42.80043000000002" lon="-1.670198999999999">
        <ele>411.883</ele>
        <time>2022-08-25T07:25:42Z</time>
      </trkpt>
      <trkpt lat="42.80038900000002" lon="-1.6702819999999992">
        <ele>411.611</ele>
        <time>2022-08-25T07:25:44Z</time>
      </trkpt>
      <trkpt lat="42.80036800000002" lon="-1.6703229999999991">
        <ele>411.609</ele>
        <time>2022-08-25T07:25:45Z</time>
      </trkpt>
      <trkpt lat="42.80034700000002" lon="-1.6703599999999992">
        <ele>411.677</ele>
        <time>2022-08-25T07:25:46Z</time>
      </trkpt>
      <trkpt lat="42.80032500000002" lon="-1.6704009999999991">
        <ele>411.447</ele>
        <time>2022-08-25T07:25:47Z</time>
      </trkpt>
      <trkpt lat="42.80028100000002" lon="-1.670485999999999">
        <ele>411.457</ele>
        <time>2022-08-25T07:25:49Z</time>
      </trkpt>
      <trkpt lat="42.80022100000002" lon="-1.6706089999999991">
        <ele>411.423</ele>
        <time>2022-08-25T07:25:52Z</time>
      </trkpt>
      <trkpt lat="42.80013700000002" lon="-1.670779999999999">
        <ele>411.495</ele>
        <time>2022-08-25T07:25:56Z</time>
      </trkpt>
      <trkpt lat="42.800116000000024" lon="-1.670818999999999">
        <ele>411.452</ele>
        <time>2022-08-25T07:25:57Z</time>
      </trkpt>
      <trkpt lat="42.800062000000025" lon="-1.6709009999999989">
        <ele>411.475</ele>
        <time>2022-08-25T07:25:59Z</time>
      </trkpt>
      <trkpt lat="42.80004400000003" lon="-1.6709419999999988">
        <ele>411.421</ele>
        <time>2022-08-25T07:26:00Z</time>
      </trkpt>
      <trkpt lat="42.80002700000003" lon="-1.670986999999999">
        <ele>411.482</ele>
        <time>2022-08-25T07:26:01Z</time>
      </trkpt>
      <trkpt lat="42.79998400000003" lon="-1.6710739999999988">
        <ele>411.453</ele>
        <time>2022-08-25T07:26:03Z</time>
      </trkpt>
      <trkpt lat="42.79989700000003" lon="-1.6712389999999988">
        <ele>411.404</ele>
        <time>2022-08-25T07:26:07Z</time>
      </trkpt>
      <trkpt lat="42.79985300000003" lon="-1.6713229999999988">
        <ele>411.414</ele>
        <time>2022-08-25T07:26:09Z</time>
      </trkpt>
      <trkpt lat="42.799828000000026" lon="-1.6713669999999987">
        <ele>411.409</ele>
        <time>2022-08-25T07:26:10Z</time>
      </trkpt>
      <trkpt lat="42.799778000000025" lon="-1.6714549999999988">
        <ele>411.426</ele>
        <time>2022-08-25T07:26:12Z</time>
      </trkpt>
      <trkpt lat="42.79975100000002" lon="-1.671496999999999">
        <ele>411.426</ele>
        <time>2022-08-25T07:26:13Z</time>
      </trkpt>
      <trkpt lat="42.799705000000024" lon="-1.6715789999999988">
        <ele>411.486</ele>
        <time>2022-08-25T07:26:15Z</time>
      </trkpt>
      <trkpt lat="42.799679000000026" lon="-1.6716229999999987">
        <ele>411.472</ele>
        <time>2022-08-25T07:26:16Z</time>
      </trkpt>
      <trkpt lat="42.79955700000003" lon="-1.6718089999999988">
        <ele>411.454</ele>
        <time>2022-08-25T07:26:20Z</time>
      </trkpt>
      <trkpt lat="42.79952800000003" lon="-1.6718529999999987">
        <ele>411.471</ele>
        <time>2022-08-25T07:26:21Z</time>
      </trkpt>
      <trkpt lat="42.79950100000003" lon="-1.6718909999999987">
        <ele>411.454</ele>
        <time>2022-08-25T07:26:22Z</time>
      </trkpt>
      <trkpt lat="42.799477000000024" lon="-1.6719289999999987">
        <ele>411.450</ele>
        <time>2022-08-25T07:26:23Z</time>
      </trkpt>
      <trkpt lat="42.799457000000025" lon="-1.6719689999999987">
        <ele>411.441</ele>
        <time>2022-08-25T07:26:24Z</time>
      </trkpt>
      <trkpt lat="42.799432000000024" lon="-1.6720129999999986">
        <ele>411.435</ele>
        <time>2022-08-25T07:26:25Z</time>
      </trkpt>
      <trkpt lat="42.79940700000002" lon="-1.6720559999999987">
        <ele>411.486</ele>
        <time>2022-08-25T07:26:26Z</time>
      </trkpt>
      <trkpt lat="42.799378000000026" lon="-1.6720989999999987">
        <ele>411.414</ele>
        <time>2022-08-25T07:26:27Z</time>
      </trkpt>
      <trkpt lat="42.79934800000002" lon="-1.6721439999999987">
        <ele>411.409</ele>
        <time>2022-08-25T07:26:28Z</time>
      </trkpt>
      <trkpt lat="42.79933200000002" lon="-1.6721819999999987">
        <ele>411.464</ele>
        <time>2022-08-25T07:26:29Z</time>
      </trkpt>
      <trkpt lat="42.79932100000002" lon="-1.6722179999999986">
        <ele>411.474</ele>
        <time>2022-08-25T07:26:30Z</time>
      </trkpt>
      <trkpt lat="42.79928700000002" lon="-1.6722969999999986">
        <ele>411.254</ele>
        <time>2022-08-25T07:26:32Z</time>
      </trkpt>
      <trkpt lat="42.79926500000002" lon="-1.6723499999999987">
        <ele>411.230</ele>
        <time>2022-08-25T07:26:33Z</time>
      </trkpt>
      <trkpt lat="42.79924900000002" lon="-1.6723949999999987">
        <ele>411.232</ele>
        <time>2022-08-25T07:26:34Z</time>
      </trkpt>
      <trkpt lat="42.79923400000002" lon="-1.6724329999999987">
        <ele>411.219</ele>
        <time>2022-08-25T07:26:35Z</time>
      </trkpt>
      <trkpt lat="42.79922200000002" lon="-1.6724689999999987">
        <ele>411.492</ele>
        <time>2022-08-25T07:26:36Z</time>
      </trkpt>
      <trkpt lat="42.79919800000002" lon="-1.6724959999999987">
        <ele>411.428</ele>
        <time>2022-08-25T07:26:37Z</time>
      </trkpt>
      <trkpt lat="42.799185000000016" lon="-1.6725169999999987">
        <ele>411.269</ele>
        <time>2022-08-25T07:26:38Z</time>
      </trkpt>
      <trkpt lat="42.79917900000002" lon="-1.6725429999999988">
        <ele>411.255</ele>
        <time>2022-08-25T07:26:39Z</time>
      </trkpt>
      <trkpt lat="42.79917000000002" lon="-1.6725579999999989">
        <ele>411.207</ele>
        <time>2022-08-25T07:26:40Z</time>
      </trkpt>
      <trkpt lat="42.79917000000002" lon="-1.672564999999999">
        <ele>411.417</ele>
        <time>2022-08-25T07:26:42Z</time>
      </trkpt>
      <trkpt lat="42.799185000000016" lon="-1.672579999999999">
        <ele>411.409</ele>
        <time>2022-08-25T07:26:45Z</time>
      </trkpt>
      <trkpt lat="42.799230000000016" lon="-1.672619999999999">
        <ele>411.646</ele>
        <time>2022-08-25T07:26:48Z</time>
      </trkpt>
      <trkpt lat="42.799289000000016" lon="-1.6726949999999992">
        <ele>411.416</ele>
        <time>2022-08-25T07:26:52Z</time>
      </trkpt>
      <trkpt lat="42.79929100000002" lon="-1.672719999999999">
        <ele>411.456</ele>
        <time>2022-08-25T07:26:53Z</time>
      </trkpt>
      <trkpt lat="42.79929000000002" lon="-1.6727459999999992">
        <ele>411.482</ele>
        <time>2022-08-25T07:26:54Z</time>
      </trkpt>
      <trkpt lat="42.79928600000002" lon="-1.6727999999999992">
        <ele>411.454</ele>
        <time>2022-08-25T07:26:56Z</time>
      </trkpt>
      <trkpt lat="42.79929000000002" lon="-1.6728249999999991">
        <ele>411.431</ele>
        <time>2022-08-25T07:26:57Z</time>
      </trkpt>
      <trkpt lat="42.79929700000002" lon="-1.672919999999999">
        <ele>411.474</ele>
        <time>2022-08-25T07:27:00Z</time>
      </trkpt>
      <trkpt lat="42.79934400000002" lon="-1.6730919999999991">
        <ele>411.870</ele>
        <time>2022-08-25T07:27:04Z</time>
      </trkpt>
      <trkpt lat="42.79935700000002" lon="-1.6731399999999992">
        <ele>411.871</ele>
        <time>2022-08-25T07:27:05Z</time>
      </trkpt>
      <trkpt lat="42.79936900000002" lon="-1.6732849999999992">
        <ele>411.855</ele>
        <time>2022-08-25T07:27:08Z</time>
      </trkpt>
      <trkpt lat="42.79936600000002" lon="-1.6733309999999992">
        <ele>411.807</ele>
        <time>2022-08-25T07:27:09Z</time>
      </trkpt>
      <trkpt lat="42.79935700000002" lon="-1.6733739999999993">
        <ele>411.817</ele>
        <time>2022-08-25T07:27:10Z</time>
      </trkpt>
      <trkpt lat="42.799342000000024" lon="-1.6734169999999993">
        <ele>411.609</ele>
        <time>2022-08-25T07:27:11Z</time>
      </trkpt>
      <trkpt lat="42.79932600000002" lon="-1.6734499999999992">
        <ele>411.616</ele>
        <time>2022-08-25T07:27:12Z</time>
      </trkpt>
      <trkpt lat="42.79930700000002" lon="-1.6734649999999993">
        <ele>411.626</ele>
        <time>2022-08-25T07:27:13Z</time>
      </trkpt>
      <trkpt lat="42.79928600000002" lon="-1.6734579999999992">
        <ele>411.426</ele>
        <time>2022-08-25T07:27:14Z</time>
      </trkpt>
      <trkpt lat="42.79924200000002" lon="-1.6733849999999992">
        <ele>411.432</ele>
        <time>2022-08-25T07:27:17Z</time>
      </trkpt>
      <trkpt lat="42.79922300000002" lon="-1.6733239999999991">
        <ele>411.244</ele>
        <time>2022-08-25T07:27:19Z</time>
      </trkpt>
      <trkpt lat="42.79917200000002" lon="-1.6732959999999992">
        <ele>411.451</ele>
        <time>2022-08-25T07:27:21Z</time>
      </trkpt>
      <trkpt lat="42.79907800000002" lon="-1.6733199999999993">
        <ele>411.444</ele>
        <time>2022-08-25T07:27:24Z</time>
      </trkpt>
      <trkpt lat="42.799046000000025" lon="-1.6733379999999993">
        <ele>411.480</ele>
        <time>2022-08-25T07:27:25Z</time>
      </trkpt>
      <trkpt lat="42.79898900000003" lon="-1.6734039999999992">
        <ele>411.651</ele>
        <time>2022-08-25T07:27:27Z</time>
      </trkpt>
      <trkpt lat="42.798962000000024" lon="-1.6734479999999992">
        <ele>411.676</ele>
        <time>2022-08-25T07:27:28Z</time>
      </trkpt>
      <trkpt lat="42.79894000000002" lon="-1.673494999999999">
        <ele>411.890</ele>
        <time>2022-08-25T07:27:29Z</time>
      </trkpt>
      <trkpt lat="42.79892300000002" lon="-1.673533999999999">
        <ele>411.819</ele>
        <time>2022-08-25T07:27:30Z</time>
      </trkpt>
      <trkpt lat="42.798900000000025" lon="-1.673583999999999">
        <ele>411.809</ele>
        <time>2022-08-25T07:27:31Z</time>
      </trkpt>
      <trkpt lat="42.79888200000003" lon="-1.6736259999999992">
        <ele>411.838</ele>
        <time>2022-08-25T07:27:32Z</time>
      </trkpt>
      <trkpt lat="42.798866000000025" lon="-1.6736679999999993">
        <ele>411.848</ele>
        <time>2022-08-25T07:27:33Z</time>
      </trkpt>
      <trkpt lat="42.798849000000025" lon="-1.6737069999999992">
        <ele>411.818</ele>
        <time>2022-08-25T07:27:34Z</time>
      </trkpt>
      <trkpt lat="42.79883400000003" lon="-1.6737449999999992">
        <ele>412.084</ele>
        <time>2022-08-25T07:27:35Z</time>
      </trkpt>
      <trkpt lat="42.79873600000003" lon="-1.6739359999999992">
        <ele>412.036</ele>
        <time>2022-08-25T07:27:40Z</time>
      </trkpt>
      <trkpt lat="42.79869900000003" lon="-1.6740129999999993">
        <ele>412.213</ele>
        <time>2022-08-25T07:27:42Z</time>
      </trkpt>
      <trkpt lat="42.798683000000025" lon="-1.6740479999999993">
        <ele>412.296</ele>
        <time>2022-08-25T07:27:43Z</time>
      </trkpt>
      <trkpt lat="42.798669000000025" lon="-1.6740819999999994">
        <ele>412.252</ele>
        <time>2022-08-25T07:27:44Z</time>
      </trkpt>
      <trkpt lat="42.79865100000003" lon="-1.6741159999999995">
        <ele>412.413</ele>
        <time>2022-08-25T07:27:45Z</time>
      </trkpt>
      <trkpt lat="42.79863400000003" lon="-1.6741509999999995">
        <ele>412.696</ele>
        <time>2022-08-25T07:27:46Z</time>
      </trkpt>
      <trkpt lat="42.79861700000003" lon="-1.6741879999999996">
        <ele>412.631</ele>
        <time>2022-08-25T07:27:47Z</time>
      </trkpt>
      <trkpt lat="42.79860200000003" lon="-1.6742199999999996">
        <ele>412.824</ele>
        <time>2022-08-25T07:27:48Z</time>
      </trkpt>
      <trkpt lat="42.79858800000003" lon="-1.6742519999999996">
        <ele>412.809</ele>
        <time>2022-08-25T07:27:49Z</time>
      </trkpt>
      <trkpt lat="42.79857200000003" lon="-1.6742819999999996">
        <ele>413.090</ele>
        <time>2022-08-25T07:27:50Z</time>
      </trkpt>
      <trkpt lat="42.798556000000026" lon="-1.6743129999999995">
        <ele>413.020</ele>
        <time>2022-08-25T07:27:51Z</time>
      </trkpt>
      <trkpt lat="42.798542000000026" lon="-1.6743439999999994">
        <ele>413.270</ele>
        <time>2022-08-25T07:27:52Z</time>
      </trkpt>
      <trkpt lat="42.798526000000024" lon="-1.6743719999999993">
        <ele>413.446</ele>
        <time>2022-08-25T07:27:53Z</time>
      </trkpt>
      <trkpt lat="42.798492000000024" lon="-1.6744299999999992">
        <ele>413.428</ele>
        <time>2022-08-25T07:27:55Z</time>
      </trkpt>
      <trkpt lat="42.798478000000024" lon="-1.6744569999999992">
        <ele>413.685</ele>
        <time>2022-08-25T07:27:56Z</time>
      </trkpt>
      <trkpt lat="42.79846200000002" lon="-1.6744829999999993">
        <ele>413.638</ele>
        <time>2022-08-25T07:27:57Z</time>
      </trkpt>
      <trkpt lat="42.79843200000002" lon="-1.6745329999999994">
        <ele>414.044</ele>
        <time>2022-08-25T07:27:59Z</time>
      </trkpt>
      <trkpt lat="42.79836900000002" lon="-1.6746499999999993">
        <ele>414.485</ele>
        <time>2022-08-25T07:28:03Z</time>
      </trkpt>
      <trkpt lat="42.79835500000002" lon="-1.6746759999999994">
        <ele>414.694</ele>
        <time>2022-08-25T07:28:04Z</time>
      </trkpt>
      <trkpt lat="42.79832500000002" lon="-1.6747329999999994">
        <ele>414.657</ele>
        <time>2022-08-25T07:28:06Z</time>
      </trkpt>
      <trkpt lat="42.79831000000002" lon="-1.6747609999999993">
        <ele>414.822</ele>
        <time>2022-08-25T07:28:07Z</time>
      </trkpt>
      <trkpt lat="42.79829300000002" lon="-1.6747899999999993">
        <ele>415.009</ele>
        <time>2022-08-25T07:28:08Z</time>
      </trkpt>
      <trkpt lat="42.79827900000002" lon="-1.6748179999999993">
        <ele>415.050</ele>
        <time>2022-08-25T07:28:09Z</time>
      </trkpt>
      <trkpt lat="42.79817900000002" lon="-1.6749849999999993">
        <ele>415.830</ele>
        <time>2022-08-25T07:28:15Z</time>
      </trkpt>
      <trkpt lat="42.798166000000016" lon="-1.6750119999999993">
        <ele>416.030</ele>
        <time>2022-08-25T07:28:16Z</time>
      </trkpt>
      <trkpt lat="42.79815300000001" lon="-1.6750389999999993">
        <ele>416.066</ele>
        <time>2022-08-25T07:28:17Z</time>
      </trkpt>
      <trkpt lat="42.79814000000001" lon="-1.6750649999999994">
        <ele>416.278</ele>
        <time>2022-08-25T07:28:18Z</time>
      </trkpt>
      <trkpt lat="42.79812600000001" lon="-1.6750919999999994">
        <ele>416.255</ele>
        <time>2022-08-25T07:28:19Z</time>
      </trkpt>
      <trkpt lat="42.79811000000001" lon="-1.6751179999999994">
        <ele>416.268</ele>
        <time>2022-08-25T07:28:20Z</time>
      </trkpt>
      <trkpt lat="42.79809300000001" lon="-1.6751449999999994">
        <ele>416.484</ele>
        <time>2022-08-25T07:28:21Z</time>
      </trkpt>
      <trkpt lat="42.79807800000001" lon="-1.6751689999999995">
        <ele>416.475</ele>
        <time>2022-08-25T07:28:22Z</time>
      </trkpt>
      <trkpt lat="42.79806300000001" lon="-1.6751949999999995">
        <ele>416.655</ele>
        <time>2022-08-25T07:28:23Z</time>
      </trkpt>
      <trkpt lat="42.798048000000016" lon="-1.6752219999999995">
        <ele>416.607</ele>
        <time>2022-08-25T07:28:24Z</time>
      </trkpt>
      <trkpt lat="42.79803200000001" lon="-1.6752499999999995">
        <ele>416.817</ele>
        <time>2022-08-25T07:28:25Z</time>
      </trkpt>
      <trkpt lat="42.798017000000016" lon="-1.6752779999999994">
        <ele>416.809</ele>
        <time>2022-08-25T07:28:26Z</time>
      </trkpt>
      <trkpt lat="42.79800400000001" lon="-1.6753039999999995">
        <ele>417.286</ele>
        <time>2022-08-25T07:28:27Z</time>
      </trkpt>
      <trkpt lat="42.79798700000001" lon="-1.6753279999999995">
        <ele>417.476</ele>
        <time>2022-08-25T07:28:28Z</time>
      </trkpt>
      <trkpt lat="42.797970000000014" lon="-1.6753549999999995">
        <ele>417.636</ele>
        <time>2022-08-25T07:28:29Z</time>
      </trkpt>
      <trkpt lat="42.797955000000016" lon="-1.6753829999999994">
        <ele>417.672</ele>
        <time>2022-08-25T07:28:30Z</time>
      </trkpt>
      <trkpt lat="42.797941000000016" lon="-1.6754069999999994">
        <ele>417.634</ele>
        <time>2022-08-25T07:28:31Z</time>
      </trkpt>
      <trkpt lat="42.79792800000001" lon="-1.6754339999999994">
        <ele>417.841</ele>
        <time>2022-08-25T07:28:32Z</time>
      </trkpt>
      <trkpt lat="42.79791500000001" lon="-1.6754599999999995">
        <ele>417.854</ele>
        <time>2022-08-25T07:28:33Z</time>
      </trkpt>
      <trkpt lat="42.79790100000001" lon="-1.6754859999999996">
        <ele>417.860</ele>
        <time>2022-08-25T07:28:34Z</time>
      </trkpt>
      <trkpt lat="42.79788700000001" lon="-1.6755149999999996">
        <ele>418.051</ele>
        <time>2022-08-25T07:28:35Z</time>
      </trkpt>
      <trkpt lat="42.79787300000001" lon="-1.6755449999999996">
        <ele>418.213</ele>
        <time>2022-08-25T07:28:36Z</time>
      </trkpt>
      <trkpt lat="42.79786000000001" lon="-1.6755729999999995">
        <ele>418.443</ele>
        <time>2022-08-25T07:28:37Z</time>
      </trkpt>
      <trkpt lat="42.797844000000005" lon="-1.6755999999999995">
        <ele>418.407</ele>
        <time>2022-08-25T07:28:38Z</time>
      </trkpt>
      <trkpt lat="42.797828" lon="-1.6756259999999996">
        <ele>418.409</ele>
        <time>2022-08-25T07:28:39Z</time>
      </trkpt>
      <trkpt lat="42.797814" lon="-1.6756549999999997">
        <ele>418.482</ele>
        <time>2022-08-25T07:28:40Z</time>
      </trkpt>
      <trkpt lat="42.797798" lon="-1.6756829999999996">
        <ele>418.692</ele>
        <time>2022-08-25T07:28:41Z</time>
      </trkpt>
      <trkpt lat="42.797781" lon="-1.6757109999999995">
        <ele>418.632</ele>
        <time>2022-08-25T07:28:42Z</time>
      </trkpt>
      <trkpt lat="42.797766" lon="-1.6757399999999996">
        <ele>418.628</ele>
        <time>2022-08-25T07:28:43Z</time>
      </trkpt>
      <trkpt lat="42.79775" lon="-1.6757709999999995">
        <ele>418.630</ele>
        <time>2022-08-25T07:28:44Z</time>
      </trkpt>
      <trkpt lat="42.797734" lon="-1.6758039999999994">
        <ele>418.897</ele>
        <time>2022-08-25T07:28:45Z</time>
      </trkpt>
      <trkpt lat="42.797714" lon="-1.6758359999999994">
        <ele>418.870</ele>
        <time>2022-08-25T07:28:46Z</time>
      </trkpt>
      <trkpt lat="42.797696" lon="-1.6758709999999994">
        <ele>418.866</ele>
        <time>2022-08-25T07:28:47Z</time>
      </trkpt>
      <trkpt lat="42.797677" lon="-1.6759049999999995">
        <ele>418.867</ele>
        <time>2022-08-25T07:28:48Z</time>
      </trkpt>
      <trkpt lat="42.797654" lon="-1.6759409999999995">
        <ele>418.633</ele>
        <time>2022-08-25T07:28:49Z</time>
      </trkpt>
      <trkpt lat="42.797633000000005" lon="-1.6759749999999995">
        <ele>418.623</ele>
        <time>2022-08-25T07:28:50Z</time>
      </trkpt>
      <trkpt lat="42.79756700000001" lon="-1.6760869999999994">
        <ele>418.615</ele>
        <time>2022-08-25T07:28:53Z</time>
      </trkpt>
      <trkpt lat="42.79737600000001" lon="-1.6763739999999994">
        <ele>418.209</ele>
        <time>2022-08-25T07:28:59Z</time>
      </trkpt>
      <trkpt lat="42.79718400000001" lon="-1.6766139999999994">
        <ele>417.424</ele>
        <time>2022-08-25T07:29:03Z</time>
      </trkpt>
      <trkpt lat="42.79713100000001" lon="-1.6766769999999993">
        <ele>417.264</ele>
        <time>2022-08-25T07:29:04Z</time>
      </trkpt>
      <trkpt lat="42.797019000000006" lon="-1.6767969999999992">
        <ele>416.864</ele>
        <time>2022-08-25T07:29:06Z</time>
      </trkpt>
      <trkpt lat="42.796971000000006" lon="-1.6768479999999992">
        <ele>416.480</ele>
        <time>2022-08-25T07:29:07Z</time>
      </trkpt>
      <trkpt lat="42.796926000000006" lon="-1.6768939999999992">
        <ele>416.052</ele>
        <time>2022-08-25T07:29:08Z</time>
      </trkpt>
      <trkpt lat="42.796885" lon="-1.6769579999999993">
        <ele>415.679</ele>
        <time>2022-08-25T07:29:09Z</time>
      </trkpt>
      <trkpt lat="42.796842000000005" lon="-1.6770229999999993">
        <ele>415.022</ele>
        <time>2022-08-25T07:29:10Z</time>
      </trkpt>
      <trkpt lat="42.796795" lon="-1.6770849999999993">
        <ele>415.038</ele>
        <time>2022-08-25T07:29:11Z</time>
      </trkpt>
      <trkpt lat="42.796748" lon="-1.6771459999999994">
        <ele>414.869</ele>
        <time>2022-08-25T07:29:12Z</time>
      </trkpt>
      <trkpt lat="42.796701" lon="-1.6772079999999994">
        <ele>414.857</ele>
        <time>2022-08-25T07:29:13Z</time>
      </trkpt>
      <trkpt lat="42.796662" lon="-1.6772639999999994">
        <ele>414.600</ele>
        <time>2022-08-25T07:29:14Z</time>
      </trkpt>
      <trkpt lat="42.796623" lon="-1.6773139999999995">
        <ele>414.620</ele>
        <time>2022-08-25T07:29:15Z</time>
      </trkpt>
      <trkpt lat="42.796583" lon="-1.6773639999999996">
        <ele>414.609</ele>
        <time>2022-08-25T07:29:16Z</time>
      </trkpt>
      <trkpt lat="42.796547" lon="-1.6774139999999997">
        <ele>414.696</ele>
        <time>2022-08-25T07:29:17Z</time>
      </trkpt>
      <trkpt lat="42.796516999999994" lon="-1.6774619999999998">
        <ele>414.866</ele>
        <time>2022-08-25T07:29:18Z</time>
      </trkpt>
      <trkpt lat="42.79648999999999" lon="-1.6775129999999998">
        <ele>414.846</ele>
        <time>2022-08-25T07:29:19Z</time>
      </trkpt>
      <trkpt lat="42.79646599999999" lon="-1.6775579999999999">
        <ele>414.822</ele>
        <time>2022-08-25T07:29:20Z</time>
      </trkpt>
      <trkpt lat="42.796441999999985" lon="-1.6776019999999998">
        <ele>414.874</ele>
        <time>2022-08-25T07:29:21Z</time>
      </trkpt>
      <trkpt lat="42.79641999999998" lon="-1.6776479999999998">
        <ele>415.071</ele>
        <time>2022-08-25T07:29:22Z</time>
      </trkpt>
      <trkpt lat="42.796399999999984" lon="-1.6776909999999998">
        <ele>415.254</ele>
        <time>2022-08-25T07:29:23Z</time>
      </trkpt>
      <trkpt lat="42.79637899999999" lon="-1.6777339999999998">
        <ele>415.420</ele>
        <time>2022-08-25T07:29:24Z</time>
      </trkpt>
      <trkpt lat="42.79635899999999" lon="-1.677779">
        <ele>415.461</ele>
        <time>2022-08-25T07:29:25Z</time>
      </trkpt>
      <trkpt lat="42.79633799999999" lon="-1.6778199999999999">
        <ele>415.644</ele>
        <time>2022-08-25T07:29:26Z</time>
      </trkpt>
      <trkpt lat="42.79632199999999" lon="-1.6778559999999998">
        <ele>415.605</ele>
        <time>2022-08-25T07:29:27Z</time>
      </trkpt>
      <trkpt lat="42.79630799999999" lon="-1.6778909999999998">
        <ele>415.615</ele>
        <time>2022-08-25T07:29:28Z</time>
      </trkpt>
      <trkpt lat="42.796294999999986" lon="-1.6779249999999999">
        <ele>415.609</ele>
        <time>2022-08-25T07:29:29Z</time>
      </trkpt>
      <trkpt lat="42.796281999999984" lon="-1.6779559999999998">
        <ele>415.895</ele>
        <time>2022-08-25T07:29:30Z</time>
      </trkpt>
      <trkpt lat="42.796266999999986" lon="-1.6779889999999997">
        <ele>415.825</ele>
        <time>2022-08-25T07:29:31Z</time>
      </trkpt>
      <trkpt lat="42.796255999999985" lon="-1.6780209999999998">
        <ele>415.875</ele>
        <time>2022-08-25T07:29:32Z</time>
      </trkpt>
      <trkpt lat="42.79624599999998" lon="-1.6780499999999998">
        <ele>416.071</ele>
        <time>2022-08-25T07:29:33Z</time>
      </trkpt>
      <trkpt lat="42.796236999999984" lon="-1.6780739999999998">
        <ele>416.023</ele>
        <time>2022-08-25T07:29:34Z</time>
      </trkpt>
      <trkpt lat="42.79622899999998" lon="-1.6780959999999998">
        <ele>416.220</ele>
        <time>2022-08-25T07:29:35Z</time>
      </trkpt>
      <trkpt lat="42.796221999999986" lon="-1.6781089999999999">
        <ele>416.233</ele>
        <time>2022-08-25T07:29:36Z</time>
      </trkpt>
      <trkpt lat="42.79621899999999" lon="-1.6781179999999998">
        <ele>416.489</ele>
        <time>2022-08-25T07:29:37Z</time>
      </trkpt>
      <trkpt lat="42.796216999999984" lon="-1.6781229999999998">
        <ele>416.690</ele>
        <time>2022-08-25T07:29:38Z</time>
      </trkpt>
      <trkpt lat="42.79620899999998" lon="-1.6781159999999997">
        <ele>416.897</ele>
        <time>2022-08-25T07:30:11Z</time>
      </trkpt>
      <trkpt lat="42.79620899999998" lon="-1.6781159999999997">
        <ele>416.823</ele>
        <time>2022-08-25T07:30:12Z</time>
      </trkpt>
      <trkpt lat="42.79620999999998" lon="-1.6781069999999998">
        <ele>416.625</ele>
        <time>2022-08-25T07:30:14Z</time>
      </trkpt>
      <trkpt lat="42.79621599999998" lon="-1.6781179999999998">
        <ele>416.609</ele>
        <time>2022-08-25T07:30:18Z</time>
      </trkpt>
      <trkpt lat="42.79620999999998" lon="-1.6781239999999997">
        <ele>416.690</ele>
        <time>2022-08-25T07:30:19Z</time>
      </trkpt>
      <trkpt lat="42.796202999999984" lon="-1.6781239999999997">
        <ele>416.690</ele>
        <time>2022-08-25T07:30:20Z</time>
      </trkpt>
      <trkpt lat="42.79620099999998" lon="-1.6781209999999998">
        <ele>416.650</ele>
        <time>2022-08-25T07:30:21Z</time>
      </trkpt>
      <trkpt lat="42.79620099999998" lon="-1.6781209999999998">
        <ele>416.616</ele>
        <time>2022-08-25T07:30:22Z</time>
      </trkpt>
      <trkpt lat="42.796199999999985" lon="-1.6781189999999997">
        <ele>416.688</ele>
        <time>2022-08-25T07:30:23Z</time>
      </trkpt>
      <trkpt lat="42.79618399999998" lon="-1.6781109999999997">
        <ele>416.675</ele>
        <time>2022-08-25T07:30:24Z</time>
      </trkpt>
      <trkpt lat="42.79616799999998" lon="-1.6781019999999998">
        <ele>416.688</ele>
        <time>2022-08-25T07:30:25Z</time>
      </trkpt>
      <trkpt lat="42.79615799999998" lon="-1.6780939999999998">
        <ele>416.654</ele>
        <time>2022-08-25T07:30:26Z</time>
      </trkpt>
      <trkpt lat="42.79611199999998" lon="-1.6780569999999997">
        <ele>416.865</ele>
        <time>2022-08-25T07:30:29Z</time>
      </trkpt>
      <trkpt lat="42.79606299999998" lon="-1.6780209999999998">
        <ele>416.851</ele>
        <time>2022-08-25T07:30:32Z</time>
      </trkpt>
      <trkpt lat="42.796053999999984" lon="-1.6780319999999997">
        <ele>416.801</ele>
        <time>2022-08-25T07:30:33Z</time>
      </trkpt>
      <trkpt lat="42.79601499999998" lon="-1.6781029999999997">
        <ele>416.811</ele>
        <time>2022-08-25T07:30:37Z</time>
      </trkpt>
      <trkpt lat="42.79598399999998" lon="-1.6781369999999998">
        <ele>417.009</ele>
        <time>2022-08-25T07:30:39Z</time>
      </trkpt>
      <trkpt lat="42.79596199999998" lon="-1.6781529999999998">
        <ele>417.076</ele>
        <time>2022-08-25T07:30:40Z</time>
      </trkpt>
      <trkpt lat="42.79586699999998" lon="-1.6782509999999997">
        <ele>417.036</ele>
        <time>2022-08-25T07:30:44Z</time>
      </trkpt>
      <trkpt lat="42.79584499999998" lon="-1.6782739999999998">
        <ele>417.226</ele>
        <time>2022-08-25T07:30:45Z</time>
      </trkpt>
      <trkpt lat="42.79582199999998" lon="-1.6782929999999998">
        <ele>417.252</ele>
        <time>2022-08-25T07:30:46Z</time>
      </trkpt>
      <trkpt lat="42.79574099999998" lon="-1.6783599999999999">
        <ele>418.084</ele>
        <time>2022-08-25T07:30:50Z</time>
      </trkpt>
      <trkpt lat="42.795693999999976" lon="-1.6783759999999999">
        <ele>418.291</ele>
        <time>2022-08-25T07:30:52Z</time>
      </trkpt>
      <trkpt lat="42.795632999999974" lon="-1.6783879999999998">
        <ele>418.444</ele>
        <time>2022-08-25T07:30:54Z</time>
      </trkpt>
      <trkpt lat="42.79560299999997" lon="-1.6783799999999998">
        <ele>418.460</ele>
        <time>2022-08-25T07:30:55Z</time>
      </trkpt>
      <trkpt lat="42.79557799999997" lon="-1.6783719999999998">
        <ele>418.441</ele>
        <time>2022-08-25T07:30:56Z</time>
      </trkpt>
      <trkpt lat="42.79556099999997" lon="-1.6783649999999997">
        <ele>418.474</ele>
        <time>2022-08-25T07:30:57Z</time>
      </trkpt>
      <trkpt lat="42.79554899999997" lon="-1.6783529999999998">
        <ele>418.456</ele>
        <time>2022-08-25T07:30:58Z</time>
      </trkpt>
      <trkpt lat="42.79553499999997" lon="-1.6783349999999997">
        <ele>418.421</ele>
        <time>2022-08-25T07:30:59Z</time>
      </trkpt>
      <trkpt lat="42.79550799999997" lon="-1.6783049999999997">
        <ele>418.609</ele>
        <time>2022-08-25T07:31:01Z</time>
      </trkpt>
      <trkpt lat="42.79550099999997" lon="-1.6782929999999998">
        <ele>418.658</ele>
        <time>2022-08-25T07:31:02Z</time>
      </trkpt>
      <trkpt lat="42.79549299999997" lon="-1.6782799999999998">
        <ele>418.688</ele>
        <time>2022-08-25T07:31:03Z</time>
      </trkpt>
      <trkpt lat="42.79548499999997" lon="-1.6782709999999998">
        <ele>418.618</ele>
        <time>2022-08-25T07:31:04Z</time>
      </trkpt>
      <trkpt lat="42.79547999999997" lon="-1.6782679999999999">
        <ele>418.674</ele>
        <time>2022-08-25T07:31:05Z</time>
      </trkpt>
      <trkpt lat="42.79546399999997" lon="-1.678265">
        <ele>418.876</ele>
        <time>2022-08-25T07:31:09Z</time>
      </trkpt>
      <trkpt lat="42.79544899999997" lon="-1.6782659999999998">
        <ele>419.033</ele>
        <time>2022-08-25T07:31:10Z</time>
      </trkpt>
      <trkpt lat="42.79539599999997" lon="-1.6782859999999997">
        <ele>419.026</ele>
        <time>2022-08-25T07:31:13Z</time>
      </trkpt>
      <trkpt lat="42.795379999999966" lon="-1.6783049999999997">
        <ele>419.082</ele>
        <time>2022-08-25T07:31:14Z</time>
      </trkpt>
      <trkpt lat="42.79536799999997" lon="-1.6783289999999997">
        <ele>419.043</ele>
        <time>2022-08-25T07:31:15Z</time>
      </trkpt>
      <trkpt lat="42.79535899999997" lon="-1.6783589999999997">
        <ele>419.222</ele>
        <time>2022-08-25T07:31:16Z</time>
      </trkpt>
      <trkpt lat="42.79535999999997" lon="-1.6783869999999996">
        <ele>419.262</ele>
        <time>2022-08-25T07:31:17Z</time>
      </trkpt>
      <trkpt lat="42.795377999999964" lon="-1.6784429999999997">
        <ele>419.208</ele>
        <time>2022-08-25T07:31:19Z</time>
      </trkpt>
      <trkpt lat="42.79538999999996" lon="-1.6784739999999996">
        <ele>419.209</ele>
        <time>2022-08-25T07:31:20Z</time>
      </trkpt>
      <trkpt lat="42.79540099999996" lon="-1.6785079999999997">
        <ele>419.223</ele>
        <time>2022-08-25T07:31:21Z</time>
      </trkpt>
      <trkpt lat="42.79544599999996" lon="-1.6786789999999996">
        <ele>419.413</ele>
        <time>2022-08-25T07:31:25Z</time>
      </trkpt>
      <trkpt lat="42.79544899999996" lon="-1.6787689999999995">
        <ele>419.463</ele>
        <time>2022-08-25T07:31:27Z</time>
      </trkpt>
      <trkpt lat="42.79544599999996" lon="-1.6789569999999996">
        <ele>419.699</ele>
        <time>2022-08-25T07:31:31Z</time>
      </trkpt>
      <trkpt lat="42.79540699999996" lon="-1.6790849999999995">
        <ele>419.841</ele>
        <time>2022-08-25T07:31:34Z</time>
      </trkpt>
      <trkpt lat="42.795391999999964" lon="-1.6791279999999995">
        <ele>419.888</ele>
        <time>2022-08-25T07:31:35Z</time>
      </trkpt>
      <trkpt lat="42.79537899999996" lon="-1.6791689999999995">
        <ele>420.071</ele>
        <time>2022-08-25T07:31:36Z</time>
      </trkpt>
      <trkpt lat="42.79536799999996" lon="-1.6792089999999995">
        <ele>420.047</ele>
        <time>2022-08-25T07:31:37Z</time>
      </trkpt>
      <trkpt lat="42.79535699999996" lon="-1.6792459999999996">
        <ele>420.288</ele>
        <time>2022-08-25T07:31:38Z</time>
      </trkpt>
      <trkpt lat="42.79534599999996" lon="-1.6792779999999996">
        <ele>420.238</ele>
        <time>2022-08-25T07:31:39Z</time>
      </trkpt>
      <trkpt lat="42.795335999999956" lon="-1.6793099999999996">
        <ele>420.470</ele>
        <time>2022-08-25T07:31:40Z</time>
      </trkpt>
      <trkpt lat="42.79532599999995" lon="-1.6793419999999997">
        <ele>420.417</ele>
        <time>2022-08-25T07:31:41Z</time>
      </trkpt>
      <trkpt lat="42.79531599999995" lon="-1.6793729999999996">
        <ele>420.409</ele>
        <time>2022-08-25T07:31:42Z</time>
      </trkpt>
      <trkpt lat="42.79530699999995" lon="-1.6793999999999996">
        <ele>420.624</ele>
        <time>2022-08-25T07:31:43Z</time>
      </trkpt>
      <trkpt lat="42.79529699999995" lon="-1.6794239999999996">
        <ele>420.664</ele>
        <time>2022-08-25T07:31:44Z</time>
      </trkpt>
      <trkpt lat="42.795280999999946" lon="-1.6794749999999996">
        <ele>420.894</ele>
        <time>2022-08-25T07:31:46Z</time>
      </trkpt>
      <trkpt lat="42.79525699999994" lon="-1.6795309999999997">
        <ele>421.060</ele>
        <time>2022-08-25T07:31:48Z</time>
      </trkpt>
      <trkpt lat="42.795244999999944" lon="-1.6795569999999997">
        <ele>421.092</ele>
        <time>2022-08-25T07:31:49Z</time>
      </trkpt>
      <trkpt lat="42.795218999999946" lon="-1.6796189999999998">
        <ele>421.429</ele>
        <time>2022-08-25T07:31:51Z</time>
      </trkpt>
      <trkpt lat="42.795176999999946" lon="-1.6796999999999997">
        <ele>421.892</ele>
        <time>2022-08-25T07:31:54Z</time>
      </trkpt>
      <trkpt lat="42.795162999999945" lon="-1.6797279999999997">
        <ele>422.068</ele>
        <time>2022-08-25T07:31:55Z</time>
      </trkpt>
      <trkpt lat="42.79515099999995" lon="-1.6797559999999996">
        <ele>422.069</ele>
        <time>2022-08-25T07:31:56Z</time>
      </trkpt>
      <trkpt lat="42.79512199999995" lon="-1.6798139999999995">
        <ele>422.284</ele>
        <time>2022-08-25T07:31:58Z</time>
      </trkpt>
      <trkpt lat="42.79508799999995" lon="-1.6798659999999994">
        <ele>422.407</ele>
        <time>2022-08-25T07:32:00Z</time>
      </trkpt>
      <trkpt lat="42.79507599999995" lon="-1.6798899999999994">
        <ele>422.417</ele>
        <time>2022-08-25T07:32:01Z</time>
      </trkpt>
      <trkpt lat="42.79506299999995" lon="-1.6799159999999995">
        <ele>422.809</ele>
        <time>2022-08-25T07:32:02Z</time>
      </trkpt>
      <trkpt lat="42.79504499999995" lon="-1.6799399999999995">
        <ele>422.869</ele>
        <time>2022-08-25T07:32:03Z</time>
      </trkpt>
      <trkpt lat="42.79503199999995" lon="-1.6799679999999995">
        <ele>422.819</ele>
        <time>2022-08-25T07:32:04Z</time>
      </trkpt>
      <trkpt lat="42.79501999999995" lon="-1.6799949999999995">
        <ele>423.029</ele>
        <time>2022-08-25T07:32:05Z</time>
      </trkpt>
      <trkpt lat="42.79499599999995" lon="-1.6800449999999996">
        <ele>423.035</ele>
        <time>2022-08-25T07:32:07Z</time>
      </trkpt>
      <trkpt lat="42.79498099999995" lon="-1.6800689999999996">
        <ele>423.027</ele>
        <time>2022-08-25T07:32:08Z</time>
      </trkpt>
      <trkpt lat="42.79496899999995" lon="-1.6800949999999997">
        <ele>423.254</ele>
        <time>2022-08-25T07:32:09Z</time>
      </trkpt>
      <trkpt lat="42.79495799999995" lon="-1.6801199999999996">
        <ele>423.257</ele>
        <time>2022-08-25T07:32:10Z</time>
      </trkpt>
      <trkpt lat="42.79494499999995" lon="-1.6801459999999997">
        <ele>423.273</ele>
        <time>2022-08-25T07:32:11Z</time>
      </trkpt>
      <trkpt lat="42.79493099999995" lon="-1.6801689999999998">
        <ele>423.264</ele>
        <time>2022-08-25T07:32:12Z</time>
      </trkpt>
      <trkpt lat="42.79491699999995" lon="-1.680192">
        <ele>423.484</ele>
        <time>2022-08-25T07:32:13Z</time>
      </trkpt>
      <trkpt lat="42.79490199999995" lon="-1.680215">
        <ele>423.407</ele>
        <time>2022-08-25T07:32:14Z</time>
      </trkpt>
      <trkpt lat="42.79487499999995" lon="-1.680263">
        <ele>423.817</ele>
        <time>2022-08-25T07:32:16Z</time>
      </trkpt>
      <trkpt lat="42.79483499999995" lon="-1.680337">
        <ele>424.009</ele>
        <time>2022-08-25T07:32:19Z</time>
      </trkpt>
      <trkpt lat="42.79482399999995" lon="-1.68036">
        <ele>424.239</ele>
        <time>2022-08-25T07:32:20Z</time>
      </trkpt>
      <trkpt lat="42.794813999999946" lon="-1.680382">
        <ele>424.689</ele>
        <time>2022-08-25T07:32:21Z</time>
      </trkpt>
      <trkpt lat="42.794802999999945" lon="-1.6804000000000001">
        <ele>424.649</ele>
        <time>2022-08-25T07:32:22Z</time>
      </trkpt>
      <trkpt lat="42.794734999999946" lon="-1.6805180000000002">
        <ele>425.085</ele>
        <time>2022-08-25T07:32:27Z</time>
      </trkpt>
      <trkpt lat="42.79472199999994" lon="-1.6805430000000001">
        <ele>425.077</ele>
        <time>2022-08-25T07:32:28Z</time>
      </trkpt>
      <trkpt lat="42.794712999999945" lon="-1.680565">
        <ele>425.044</ele>
        <time>2022-08-25T07:32:29Z</time>
      </trkpt>
      <trkpt lat="42.794704999999944" lon="-1.680584">
        <ele>425.287</ele>
        <time>2022-08-25T07:32:30Z</time>
      </trkpt>
      <trkpt lat="42.79469499999994" lon="-1.680604">
        <ele>425.423</ele>
        <time>2022-08-25T07:32:31Z</time>
      </trkpt>
      <trkpt lat="42.79468699999994" lon="-1.680626">
        <ele>425.634</ele>
        <time>2022-08-25T07:32:32Z</time>
      </trkpt>
      <trkpt lat="42.79467899999994" lon="-1.680651">
        <ele>425.616</ele>
        <time>2022-08-25T07:32:33Z</time>
      </trkpt>
      <trkpt lat="42.794620999999935" lon="-1.680739">
        <ele>426.076</ele>
        <time>2022-08-25T07:32:37Z</time>
      </trkpt>
      <trkpt lat="42.794603999999936" lon="-1.680758">
        <ele>426.213</ele>
        <time>2022-08-25T07:32:38Z</time>
      </trkpt>
      <trkpt lat="42.794586999999936" lon="-1.680779">
        <ele>426.409</ele>
        <time>2022-08-25T07:32:39Z</time>
      </trkpt>
      <trkpt lat="42.79456899999994" lon="-1.680805">
        <ele>426.422</ele>
        <time>2022-08-25T07:32:40Z</time>
      </trkpt>
      <trkpt lat="42.79455199999994" lon="-1.6808310000000002">
        <ele>426.452</ele>
        <time>2022-08-25T07:32:41Z</time>
      </trkpt>
      <trkpt lat="42.79453599999994" lon="-1.6808550000000002">
        <ele>426.442</ele>
        <time>2022-08-25T07:32:42Z</time>
      </trkpt>
      <trkpt lat="42.79452399999994" lon="-1.6808790000000002">
        <ele>426.628</ele>
        <time>2022-08-25T07:32:43Z</time>
      </trkpt>
      <trkpt lat="42.794513999999936" lon="-1.6809030000000003">
        <ele>426.690</ele>
        <time>2022-08-25T07:32:44Z</time>
      </trkpt>
      <trkpt lat="42.79450699999994" lon="-1.6809270000000003">
        <ele>426.887</ele>
        <time>2022-08-25T07:32:45Z</time>
      </trkpt>
      <trkpt lat="42.79449499999994" lon="-1.6809550000000002">
        <ele>426.840</ele>
        <time>2022-08-25T07:32:46Z</time>
      </trkpt>
      <trkpt lat="42.79447999999994" lon="-1.6809790000000002">
        <ele>427.086</ele>
        <time>2022-08-25T07:32:47Z</time>
      </trkpt>
      <trkpt lat="42.79446299999994" lon="-1.6810010000000002">
        <ele>427.037</ele>
        <time>2022-08-25T07:32:48Z</time>
      </trkpt>
      <trkpt lat="42.79444999999994" lon="-1.6810240000000003">
        <ele>427.245</ele>
        <time>2022-08-25T07:32:49Z</time>
      </trkpt>
      <trkpt lat="42.79440999999994" lon="-1.6811010000000004">
        <ele>427.647</ele>
        <time>2022-08-25T07:32:52Z</time>
      </trkpt>
      <trkpt lat="42.794397999999944" lon="-1.6811300000000005">
        <ele>427.811</ele>
        <time>2022-08-25T07:32:53Z</time>
      </trkpt>
      <trkpt lat="42.794385999999946" lon="-1.6811530000000006">
        <ele>427.809</ele>
        <time>2022-08-25T07:32:54Z</time>
      </trkpt>
      <trkpt lat="42.79437399999995" lon="-1.6811800000000006">
        <ele>428.085</ele>
        <time>2022-08-25T07:32:55Z</time>
      </trkpt>
      <trkpt lat="42.79435999999995" lon="-1.6812040000000006">
        <ele>428.035</ele>
        <time>2022-08-25T07:32:56Z</time>
      </trkpt>
      <trkpt lat="42.79434799999995" lon="-1.6812270000000007">
        <ele>428.025</ele>
        <time>2022-08-25T07:32:57Z</time>
      </trkpt>
      <trkpt lat="42.79433599999995" lon="-1.6812490000000007">
        <ele>428.271</ele>
        <time>2022-08-25T07:32:58Z</time>
      </trkpt>
      <trkpt lat="42.79432199999995" lon="-1.6812740000000006">
        <ele>428.443</ele>
        <time>2022-08-25T07:32:59Z</time>
      </trkpt>
      <trkpt lat="42.794306999999954" lon="-1.6812980000000006">
        <ele>428.470</ele>
        <time>2022-08-25T07:33:00Z</time>
      </trkpt>
      <trkpt lat="42.794291999999956" lon="-1.6813230000000006">
        <ele>428.653</ele>
        <time>2022-08-25T07:33:01Z</time>
      </trkpt>
      <trkpt lat="42.79427899999995" lon="-1.6813490000000006">
        <ele>428.619</ele>
        <time>2022-08-25T07:33:02Z</time>
      </trkpt>
      <trkpt lat="42.794263999999956" lon="-1.6813730000000007">
        <ele>428.870</ele>
        <time>2022-08-25T07:33:03Z</time>
      </trkpt>
      <trkpt lat="42.794249999999955" lon="-1.6813960000000008">
        <ele>428.851</ele>
        <time>2022-08-25T07:33:04Z</time>
      </trkpt>
      <trkpt lat="42.79423699999995" lon="-1.6814180000000007">
        <ele>428.801</ele>
        <time>2022-08-25T07:33:05Z</time>
      </trkpt>
      <trkpt lat="42.79422399999995" lon="-1.6814430000000007">
        <ele>428.811</ele>
        <time>2022-08-25T07:33:06Z</time>
      </trkpt>
      <trkpt lat="42.79420999999995" lon="-1.6814670000000007">
        <ele>429.009</ele>
        <time>2022-08-25T07:33:07Z</time>
      </trkpt>
      <trkpt lat="42.79419699999995" lon="-1.6814900000000008">
        <ele>429.286</ele>
        <time>2022-08-25T07:33:08Z</time>
      </trkpt>
      <trkpt lat="42.794180999999945" lon="-1.6815110000000009">
        <ele>429.426</ele>
        <time>2022-08-25T07:33:09Z</time>
      </trkpt>
      <trkpt lat="42.794166999999945" lon="-1.6815330000000008">
        <ele>429.426</ele>
        <time>2022-08-25T07:33:10Z</time>
      </trkpt>
      <trkpt lat="42.794152999999945" lon="-1.6815570000000009">
        <ele>429.642</ele>
        <time>2022-08-25T07:33:11Z</time>
      </trkpt>
      <trkpt lat="42.79413999999994" lon="-1.6815810000000009">
        <ele>429.884</ele>
        <time>2022-08-25T07:33:12Z</time>
      </trkpt>
      <trkpt lat="42.79412599999994" lon="-1.6816060000000008">
        <ele>429.841</ele>
        <time>2022-08-25T07:33:13Z</time>
      </trkpt>
      <trkpt lat="42.794113999999944" lon="-1.6816300000000008">
        <ele>430.054</ele>
        <time>2022-08-25T07:33:14Z</time>
      </trkpt>
      <trkpt lat="42.79410099999994" lon="-1.681653000000001">
        <ele>430.030</ele>
        <time>2022-08-25T07:33:15Z</time>
      </trkpt>
      <trkpt lat="42.79408399999994" lon="-1.681685000000001">
        <ele>430.021</ele>
        <time>2022-08-25T07:33:16Z</time>
      </trkpt>
      <trkpt lat="42.79407399999994" lon="-1.681706000000001">
        <ele>430.214</ele>
        <time>2022-08-25T07:33:17Z</time>
      </trkpt>
      <trkpt lat="42.79406199999994" lon="-1.681734000000001">
        <ele>430.454</ele>
        <time>2022-08-25T07:33:18Z</time>
      </trkpt>
      <trkpt lat="42.79405099999994" lon="-1.681758000000001">
        <ele>430.409</ele>
        <time>2022-08-25T07:33:19Z</time>
      </trkpt>
      <trkpt lat="42.79403899999994" lon="-1.681784000000001">
        <ele>430.409</ele>
        <time>2022-08-25T07:33:20Z</time>
      </trkpt>
      <trkpt lat="42.79402599999994" lon="-1.6818100000000011">
        <ele>430.642</ele>
        <time>2022-08-25T07:33:21Z</time>
      </trkpt>
      <trkpt lat="42.79401099999994" lon="-1.6818370000000011">
        <ele>430.642</ele>
        <time>2022-08-25T07:33:22Z</time>
      </trkpt>
      <trkpt lat="42.79399599999994" lon="-1.6818610000000012">
        <ele>430.862</ele>
        <time>2022-08-25T07:33:23Z</time>
      </trkpt>
      <trkpt lat="42.79398299999994" lon="-1.6818850000000012">
        <ele>430.868</ele>
        <time>2022-08-25T07:33:24Z</time>
      </trkpt>
      <trkpt lat="42.79397199999994" lon="-1.6819120000000012">
        <ele>430.860</ele>
        <time>2022-08-25T07:33:25Z</time>
      </trkpt>
      <trkpt lat="42.79395999999994" lon="-1.6819380000000013">
        <ele>430.837</ele>
        <time>2022-08-25T07:33:26Z</time>
      </trkpt>
      <trkpt lat="42.79394899999994" lon="-1.6819620000000013">
        <ele>430.870</ele>
        <time>2022-08-25T07:33:27Z</time>
      </trkpt>
      <trkpt lat="42.79389099999994" lon="-1.6820640000000013">
        <ele>431.056</ele>
        <time>2022-08-25T07:33:31Z</time>
      </trkpt>
      <trkpt lat="42.793877999999935" lon="-1.6820870000000014">
        <ele>431.277</ele>
        <time>2022-08-25T07:33:32Z</time>
      </trkpt>
      <trkpt lat="42.793863999999935" lon="-1.6821130000000015">
        <ele>431.452</ele>
        <time>2022-08-25T07:33:33Z</time>
      </trkpt>
      <trkpt lat="42.79385099999993" lon="-1.6821400000000015">
        <ele>431.453</ele>
        <time>2022-08-25T07:33:34Z</time>
      </trkpt>
      <trkpt lat="42.79380399999993" lon="-1.6822470000000016">
        <ele>431.808</ele>
        <time>2022-08-25T07:33:38Z</time>
      </trkpt>
      <trkpt lat="42.79373999999993" lon="-1.6823480000000015">
        <ele>432.009</ele>
        <time>2022-08-25T07:33:42Z</time>
      </trkpt>
      <trkpt lat="42.79371099999993" lon="-1.6824100000000015">
        <ele>432.056</ele>
        <time>2022-08-25T07:33:44Z</time>
      </trkpt>
      <trkpt lat="42.79369899999993" lon="-1.6824350000000015">
        <ele>432.266</ele>
        <time>2022-08-25T07:33:45Z</time>
      </trkpt>
      <trkpt lat="42.79368599999993" lon="-1.6824630000000014">
        <ele>432.246</ele>
        <time>2022-08-25T07:33:46Z</time>
      </trkpt>
      <trkpt lat="42.79364599999993" lon="-1.6825410000000014">
        <ele>432.232</ele>
        <time>2022-08-25T07:33:49Z</time>
      </trkpt>
      <trkpt lat="42.79363199999993" lon="-1.6825650000000014">
        <ele>432.234</ele>
        <time>2022-08-25T07:33:50Z</time>
      </trkpt>
      <trkpt lat="42.79362099999993" lon="-1.6825900000000014">
        <ele>432.421</ele>
        <time>2022-08-25T07:33:51Z</time>
      </trkpt>
      <trkpt lat="42.79361099999993" lon="-1.6826130000000015">
        <ele>432.694</ele>
        <time>2022-08-25T07:33:52Z</time>
      </trkpt>
      <trkpt lat="42.79359699999993" lon="-1.6826320000000015">
        <ele>432.630</ele>
        <time>2022-08-25T07:33:53Z</time>
      </trkpt>
      <trkpt lat="42.79358499999993" lon="-1.6826500000000015">
        <ele>432.881</ele>
        <time>2022-08-25T07:33:54Z</time>
      </trkpt>
      <trkpt lat="42.793574999999926" lon="-1.6826640000000015">
        <ele>432.824</ele>
        <time>2022-08-25T07:33:55Z</time>
      </trkpt>
      <trkpt lat="42.793569999999924" lon="-1.6826710000000016">
        <ele>432.804</ele>
        <time>2022-08-25T07:33:56Z</time>
      </trkpt>
      <trkpt lat="42.79356299999993" lon="-1.6826910000000015">
        <ele>432.814</ele>
        <time>2022-08-25T07:34:22Z</time>
      </trkpt>
      <trkpt lat="42.793493999999924" lon="-1.6828210000000015">
        <ele>432.809</ele>
        <time>2022-08-25T07:34:27Z</time>
      </trkpt>
      <trkpt lat="42.79347899999993" lon="-1.6828500000000015">
        <ele>432.833</ele>
        <time>2022-08-25T07:34:28Z</time>
      </trkpt>
      <trkpt lat="42.793465999999924" lon="-1.6828760000000016">
        <ele>432.823</ele>
        <time>2022-08-25T07:34:29Z</time>
      </trkpt>
      <trkpt lat="42.79345599999992" lon="-1.6828980000000016">
        <ele>432.843</ele>
        <time>2022-08-25T07:34:30Z</time>
      </trkpt>
      <trkpt lat="42.79339999999992" lon="-1.6829890000000016">
        <ele>433.279</ele>
        <time>2022-08-25T07:34:34Z</time>
      </trkpt>
      <trkpt lat="42.79335599999992" lon="-1.6830320000000016">
        <ele>433.471</ele>
        <time>2022-08-25T07:34:36Z</time>
      </trkpt>
      <trkpt lat="42.79334399999992" lon="-1.6830480000000017">
        <ele>433.468</ele>
        <time>2022-08-25T07:34:37Z</time>
      </trkpt>
      <trkpt lat="42.79332799999992" lon="-1.6830680000000016">
        <ele>433.641</ele>
        <time>2022-08-25T07:34:38Z</time>
      </trkpt>
      <trkpt lat="42.79327699999992" lon="-1.6831210000000016">
        <ele>433.867</ele>
        <time>2022-08-25T07:34:41Z</time>
      </trkpt>
      <trkpt lat="42.79322599999992" lon="-1.6831840000000016">
        <ele>434.098</ele>
        <time>2022-08-25T07:34:44Z</time>
      </trkpt>
      <trkpt lat="42.79320899999992" lon="-1.6832030000000016">
        <ele>434.231</ele>
        <time>2022-08-25T07:34:45Z</time>
      </trkpt>
      <trkpt lat="42.79319299999992" lon="-1.6832180000000017">
        <ele>434.261</ele>
        <time>2022-08-25T07:34:46Z</time>
      </trkpt>
      <trkpt lat="42.793176999999915" lon="-1.6832300000000016">
        <ele>434.407</ele>
        <time>2022-08-25T07:34:47Z</time>
      </trkpt>
      <trkpt lat="42.79316199999992" lon="-1.6832430000000016">
        <ele>434.409</ele>
        <time>2022-08-25T07:34:48Z</time>
      </trkpt>
      <trkpt lat="42.79314799999992" lon="-1.6832530000000017">
        <ele>434.474</ele>
        <time>2022-08-25T07:34:49Z</time>
      </trkpt>
      <trkpt lat="42.793134999999914" lon="-1.6832630000000017">
        <ele>434.694</ele>
        <time>2022-08-25T07:34:50Z</time>
      </trkpt>
      <trkpt lat="42.793122999999916" lon="-1.6832750000000016">
        <ele>434.674</ele>
        <time>2022-08-25T07:34:51Z</time>
      </trkpt>
      <trkpt lat="42.79311299999991" lon="-1.6832850000000017">
        <ele>434.810</ele>
        <time>2022-08-25T07:34:52Z</time>
      </trkpt>
      <trkpt lat="42.79310499999991" lon="-1.6832900000000017">
        <ele>434.872</ele>
        <time>2022-08-25T07:34:53Z</time>
      </trkpt>
      <trkpt lat="42.79310199999991" lon="-1.6832910000000016">
        <ele>435.059</ele>
        <time>2022-08-25T07:34:54Z</time>
      </trkpt>
      <trkpt lat="42.79310199999991" lon="-1.6832910000000016">
        <ele>435.032</ele>
        <time>2022-08-25T07:34:55Z</time>
      </trkpt>
      <trkpt lat="42.79308499999991" lon="-1.6833070000000017">
        <ele>434.858</ele>
        <time>2022-08-25T07:35:52Z</time>
      </trkpt>
      <trkpt lat="42.793044999999914" lon="-1.6833360000000017">
        <ele>434.829</ele>
        <time>2022-08-25T07:35:54Z</time>
      </trkpt>
      <trkpt lat="42.79302699999992" lon="-1.6833570000000018">
        <ele>434.854</ele>
        <time>2022-08-25T07:35:55Z</time>
      </trkpt>
      <trkpt lat="42.79301199999992" lon="-1.6834110000000018">
        <ele>434.856</ele>
        <time>2022-08-25T07:35:57Z</time>
      </trkpt>
      <trkpt lat="42.79301399999992" lon="-1.6834450000000019">
        <ele>434.811</ele>
        <time>2022-08-25T07:35:58Z</time>
      </trkpt>
      <trkpt lat="42.79301199999992" lon="-1.683482000000002">
        <ele>435.009</ele>
        <time>2022-08-25T07:35:59Z</time>
      </trkpt>
      <trkpt lat="42.79300999999992" lon="-1.683525000000002">
        <ele>435.216</ele>
        <time>2022-08-25T07:36:00Z</time>
      </trkpt>
      <trkpt lat="42.79301999999992" lon="-1.683647000000002">
        <ele>435.486</ele>
        <time>2022-08-25T07:36:03Z</time>
      </trkpt>
      <trkpt lat="42.79301799999992" lon="-1.683727000000002">
        <ele>435.666</ele>
        <time>2022-08-25T07:36:05Z</time>
      </trkpt>
      <trkpt lat="42.79301799999992" lon="-1.683764000000002">
        <ele>435.632</ele>
        <time>2022-08-25T07:36:06Z</time>
      </trkpt>
      <trkpt lat="42.79301699999992" lon="-1.683802000000002">
        <ele>435.684</ele>
        <time>2022-08-25T07:36:07Z</time>
      </trkpt>
      <trkpt lat="42.79301699999992" lon="-1.683836000000002">
        <ele>435.661</ele>
        <time>2022-08-25T07:36:08Z</time>
      </trkpt>
      <trkpt lat="42.79301599999992" lon="-1.683869000000002">
        <ele>435.644</ele>
        <time>2022-08-25T07:36:09Z</time>
      </trkpt>
      <trkpt lat="42.793014999999926" lon="-1.683905000000002">
        <ele>435.640</ele>
        <time>2022-08-25T07:36:10Z</time>
      </trkpt>
      <trkpt lat="42.793011999999926" lon="-1.683939000000002">
        <ele>435.861</ele>
        <time>2022-08-25T07:36:11Z</time>
      </trkpt>
      <trkpt lat="42.793009999999924" lon="-1.6839730000000022">
        <ele>436.096</ele>
        <time>2022-08-25T07:36:12Z</time>
      </trkpt>
      <trkpt lat="42.793006999999925" lon="-1.6840070000000023">
        <ele>436.031</ele>
        <time>2022-08-25T07:36:13Z</time>
      </trkpt>
      <trkpt lat="42.79300199999992" lon="-1.6840410000000023">
        <ele>436.024</ele>
        <time>2022-08-25T07:36:14Z</time>
      </trkpt>
      <trkpt lat="42.79299499999993" lon="-1.6840750000000024">
        <ele>436.009</ele>
        <time>2022-08-25T07:36:15Z</time>
      </trkpt>
      <trkpt lat="42.79297999999993" lon="-1.6841670000000024">
        <ele>436.270</ele>
        <time>2022-08-25T07:36:18Z</time>
      </trkpt>
      <trkpt lat="42.79297399999993" lon="-1.6841990000000024">
        <ele>436.430</ele>
        <time>2022-08-25T07:36:19Z</time>
      </trkpt>
      <trkpt lat="42.79296599999993" lon="-1.6842290000000024">
        <ele>436.630</ele>
        <time>2022-08-25T07:36:20Z</time>
      </trkpt>
      <trkpt lat="42.79295399999993" lon="-1.6842880000000024">
        <ele>436.866</ele>
        <time>2022-08-25T07:36:22Z</time>
      </trkpt>
      <trkpt lat="42.792932999999934" lon="-1.6843950000000025">
        <ele>437.018</ele>
        <time>2022-08-25T07:36:26Z</time>
      </trkpt>
      <trkpt lat="42.792926999999935" lon="-1.6844220000000025">
        <ele>437.255</ele>
        <time>2022-08-25T07:36:27Z</time>
      </trkpt>
      <trkpt lat="42.79291399999993" lon="-1.6845430000000026">
        <ele>437.418</ele>
        <time>2022-08-25T07:36:31Z</time>
      </trkpt>
      <trkpt lat="42.79290399999993" lon="-1.6846110000000025">
        <ele>437.844</ele>
        <time>2022-08-25T07:36:33Z</time>
      </trkpt>
      <trkpt lat="42.79288999999993" lon="-1.6846770000000024">
        <ele>438.275</ele>
        <time>2022-08-25T07:36:35Z</time>
      </trkpt>
      <trkpt lat="42.79288299999993" lon="-1.6847090000000025">
        <ele>438.277</ele>
        <time>2022-08-25T07:36:36Z</time>
      </trkpt>
      <trkpt lat="42.79287699999993" lon="-1.6847400000000023">
        <ele>438.461</ele>
        <time>2022-08-25T07:36:37Z</time>
      </trkpt>
      <trkpt lat="42.792873999999934" lon="-1.6847710000000022">
        <ele>438.627</ele>
        <time>2022-08-25T07:36:38Z</time>
      </trkpt>
      <trkpt lat="42.79286999999994" lon="-1.6847990000000022">
        <ele>438.809</ele>
        <time>2022-08-25T07:36:39Z</time>
      </trkpt>
      <trkpt lat="42.79286899999994" lon="-1.6848250000000022">
        <ele>438.828</ele>
        <time>2022-08-25T07:36:40Z</time>
      </trkpt>
      <trkpt lat="42.79286399999994" lon="-1.6848500000000022">
        <ele>439.088</ele>
        <time>2022-08-25T07:36:41Z</time>
      </trkpt>
      <trkpt lat="42.79285299999994" lon="-1.6848750000000021">
        <ele>439.268</ele>
        <time>2022-08-25T07:36:42Z</time>
      </trkpt>
      <trkpt lat="42.792841999999936" lon="-1.684900000000002">
        <ele>439.264</ele>
        <time>2022-08-25T07:36:43Z</time>
      </trkpt>
      <trkpt lat="42.792825999999934" lon="-1.684916000000002">
        <ele>439.476</ele>
        <time>2022-08-25T07:36:44Z</time>
      </trkpt>
      <trkpt lat="42.79280399999993" lon="-1.6849210000000021">
        <ele>439.473</ele>
        <time>2022-08-25T07:36:45Z</time>
      </trkpt>
      <trkpt lat="42.79278399999993" lon="-1.6849260000000021">
        <ele>439.656</ele>
        <time>2022-08-25T07:36:46Z</time>
      </trkpt>
      <trkpt lat="42.792760999999935" lon="-1.684932000000002">
        <ele>439.872</ele>
        <time>2022-08-25T07:36:47Z</time>
      </trkpt>
      <trkpt lat="42.792749999999934" lon="-1.6849390000000022">
        <ele>439.853</ele>
        <time>2022-08-25T07:36:48Z</time>
      </trkpt>
      <trkpt lat="42.792740999999936" lon="-1.6849540000000023">
        <ele>439.869</ele>
        <time>2022-08-25T07:36:49Z</time>
      </trkpt>
      <trkpt lat="42.792740999999936" lon="-1.6849760000000022">
        <ele>439.804</ele>
        <time>2022-08-25T07:36:50Z</time>
      </trkpt>
      <trkpt lat="42.79274499999993" lon="-1.6850000000000023">
        <ele>440.024</ele>
        <time>2022-08-25T07:36:51Z</time>
      </trkpt>
      <trkpt lat="42.79275199999993" lon="-1.6850220000000022">
        <ele>440.009</ele>
        <time>2022-08-25T07:36:52Z</time>
      </trkpt>
      <trkpt lat="42.79276199999993" lon="-1.6850450000000023">
        <ele>440.047</ele>
        <time>2022-08-25T07:36:53Z</time>
      </trkpt>
      <trkpt lat="42.792766999999934" lon="-1.6850660000000024">
        <ele>440.287</ele>
        <time>2022-08-25T07:36:54Z</time>
      </trkpt>
      <trkpt lat="42.792763999999934" lon="-1.6850900000000024">
        <ele>440.287</ele>
        <time>2022-08-25T07:36:55Z</time>
      </trkpt>
      <trkpt lat="42.792760999999935" lon="-1.6851160000000025">
        <ele>440.423</ele>
        <time>2022-08-25T07:36:56Z</time>
      </trkpt>
      <trkpt lat="42.79275899999993" lon="-1.6851430000000025">
        <ele>440.495</ele>
        <time>2022-08-25T07:36:57Z</time>
      </trkpt>
      <trkpt lat="42.79275699999993" lon="-1.6851810000000025">
        <ele>440.622</ele>
        <time>2022-08-25T07:36:58Z</time>
      </trkpt>
      <trkpt lat="42.79275599999993" lon="-1.6852140000000024">
        <ele>440.855</ele>
        <time>2022-08-25T07:36:59Z</time>
      </trkpt>
      <trkpt lat="42.79275599999993" lon="-1.6852480000000025">
        <ele>441.061</ele>
        <time>2022-08-25T07:37:00Z</time>
      </trkpt>
      <trkpt lat="42.792754999999936" lon="-1.6852730000000025">
        <ele>441.222</ele>
        <time>2022-08-25T07:37:01Z</time>
      </trkpt>
      <trkpt lat="42.792751999999936" lon="-1.6853030000000024">
        <ele>441.273</ele>
        <time>2022-08-25T07:37:02Z</time>
      </trkpt>
      <trkpt lat="42.79274799999994" lon="-1.6853380000000024">
        <ele>441.485</ele>
        <time>2022-08-25T07:37:03Z</time>
      </trkpt>
      <trkpt lat="42.79274499999994" lon="-1.6853650000000024">
        <ele>441.613</ele>
        <time>2022-08-25T07:37:04Z</time>
      </trkpt>
      <trkpt lat="42.79274199999994" lon="-1.6853930000000024">
        <ele>441.809</ele>
        <time>2022-08-25T07:37:05Z</time>
      </trkpt>
      <trkpt lat="42.79273399999994" lon="-1.6854170000000024">
        <ele>441.828</ele>
        <time>2022-08-25T07:37:06Z</time>
      </trkpt>
      <trkpt lat="42.79273099999994" lon="-1.6854470000000024">
        <ele>442.228</ele>
        <time>2022-08-25T07:37:07Z</time>
      </trkpt>
      <trkpt lat="42.79272599999994" lon="-1.6854810000000024">
        <ele>442.488</ele>
        <time>2022-08-25T07:37:08Z</time>
      </trkpt>
      <trkpt lat="42.79272199999994" lon="-1.6855090000000024">
        <ele>442.444</ele>
        <time>2022-08-25T07:37:09Z</time>
      </trkpt>
      <trkpt lat="42.79271599999994" lon="-1.6855380000000024">
        <ele>442.666</ele>
        <time>2022-08-25T07:37:10Z</time>
      </trkpt>
      <trkpt lat="42.792711999999945" lon="-1.6855680000000024">
        <ele>442.653</ele>
        <time>2022-08-25T07:37:11Z</time>
      </trkpt>
      <trkpt lat="42.792711999999945" lon="-1.6855910000000025">
        <ele>442.886</ele>
        <time>2022-08-25T07:37:12Z</time>
      </trkpt>
      <trkpt lat="42.79270699999994" lon="-1.6856200000000026">
        <ele>443.082</ele>
        <time>2022-08-25T07:37:13Z</time>
      </trkpt>
      <trkpt lat="42.79270499999994" lon="-1.6856520000000026">
        <ele>443.263</ele>
        <time>2022-08-25T07:37:14Z</time>
      </trkpt>
      <trkpt lat="42.792703999999944" lon="-1.6856780000000027">
        <ele>443.499</ele>
        <time>2022-08-25T07:37:15Z</time>
      </trkpt>
      <trkpt lat="42.79269899999994" lon="-1.6857000000000026">
        <ele>443.407</ele>
        <time>2022-08-25T07:37:16Z</time>
      </trkpt>
      <trkpt lat="42.792694999999945" lon="-1.6857170000000026">
        <ele>443.627</ele>
        <time>2022-08-25T07:37:17Z</time>
      </trkpt>
      <trkpt lat="42.79268999999994" lon="-1.6857430000000027">
        <ele>443.609</ele>
        <time>2022-08-25T07:37:18Z</time>
      </trkpt>
      <trkpt lat="42.792683999999944" lon="-1.6857780000000027">
        <ele>443.880</ele>
        <time>2022-08-25T07:37:19Z</time>
      </trkpt>
      <trkpt lat="42.79268199999994" lon="-1.6858070000000027">
        <ele>444.090</ele>
        <time>2022-08-25T07:37:20Z</time>
      </trkpt>
      <trkpt lat="42.792680999999945" lon="-1.6858400000000027">
        <ele>444.230</ele>
        <time>2022-08-25T07:37:21Z</time>
      </trkpt>
      <trkpt lat="42.79268299999995" lon="-1.6858690000000027">
        <ele>444.246</ele>
        <time>2022-08-25T07:37:22Z</time>
      </trkpt>
      <trkpt lat="42.792680999999945" lon="-1.6858880000000027">
        <ele>444.228</ele>
        <time>2022-08-25T07:37:23Z</time>
      </trkpt>
      <trkpt lat="42.792669999999944" lon="-1.6859170000000028">
        <ele>444.655</ele>
        <time>2022-08-25T07:37:24Z</time>
      </trkpt>
      <trkpt lat="42.792669999999944" lon="-1.6859440000000028">
        <ele>444.698</ele>
        <time>2022-08-25T07:37:25Z</time>
      </trkpt>
      <trkpt lat="42.79267099999994" lon="-1.6859700000000029">
        <ele>444.624</ele>
        <time>2022-08-25T07:37:26Z</time>
      </trkpt>
      <trkpt lat="42.79267699999994" lon="-1.685991000000003">
        <ele>444.885</ele>
        <time>2022-08-25T07:37:27Z</time>
      </trkpt>
      <trkpt lat="42.79268099999994" lon="-1.6860190000000028">
        <ele>444.815</ele>
        <time>2022-08-25T07:37:28Z</time>
      </trkpt>
      <trkpt lat="42.79267999999994" lon="-1.6860470000000027">
        <ele>445.065</ele>
        <time>2022-08-25T07:37:29Z</time>
      </trkpt>
      <trkpt lat="42.79267799999994" lon="-1.6860770000000027">
        <ele>445.011</ele>
        <time>2022-08-25T07:37:30Z</time>
      </trkpt>
      <trkpt lat="42.79267399999994" lon="-1.6861020000000027">
        <ele>445.209</ele>
        <time>2022-08-25T07:37:31Z</time>
      </trkpt>
      <trkpt lat="42.79266599999994" lon="-1.6861310000000027">
        <ele>445.482</ele>
        <time>2022-08-25T07:37:32Z</time>
      </trkpt>
      <trkpt lat="42.79265699999994" lon="-1.6861660000000027">
        <ele>445.692</ele>
        <time>2022-08-25T07:37:33Z</time>
      </trkpt>
      <trkpt lat="42.79264899999994" lon="-1.6861930000000027">
        <ele>445.842</ele>
        <time>2022-08-25T07:37:34Z</time>
      </trkpt>
      <trkpt lat="42.79263799999994" lon="-1.6862210000000026">
        <ele>445.868</ele>
        <time>2022-08-25T07:37:35Z</time>
      </trkpt>
      <trkpt lat="42.79263199999994" lon="-1.6862440000000027">
        <ele>446.080</ele>
        <time>2022-08-25T07:37:36Z</time>
      </trkpt>
      <trkpt lat="42.79262299999994" lon="-1.6862720000000027">
        <ele>446.217</ele>
        <time>2022-08-25T07:37:37Z</time>
      </trkpt>
      <trkpt lat="42.79261699999994" lon="-1.6863080000000026">
        <ele>446.420</ele>
        <time>2022-08-25T07:37:38Z</time>
      </trkpt>
      <trkpt lat="42.792610999999944" lon="-1.6863390000000025">
        <ele>446.476</ele>
        <time>2022-08-25T07:37:39Z</time>
      </trkpt>
      <trkpt lat="42.792590999999945" lon="-1.6863720000000024">
        <ele>446.637</ele>
        <time>2022-08-25T07:37:40Z</time>
      </trkpt>
      <trkpt lat="42.792587999999945" lon="-1.6863970000000024">
        <ele>446.653</ele>
        <time>2022-08-25T07:37:41Z</time>
      </trkpt>
      <trkpt lat="42.79258599999994" lon="-1.6864330000000023">
        <ele>446.804</ele>
        <time>2022-08-25T07:37:42Z</time>
      </trkpt>
      <trkpt lat="42.79258399999994" lon="-1.6864630000000023">
        <ele>447.014</ele>
        <time>2022-08-25T07:37:43Z</time>
      </trkpt>
      <trkpt lat="42.792579999999944" lon="-1.6864910000000022">
        <ele>447.209</ele>
        <time>2022-08-25T07:37:44Z</time>
      </trkpt>
      <trkpt lat="42.79257499999994" lon="-1.686519000000002">
        <ele>447.456</ele>
        <time>2022-08-25T07:37:45Z</time>
      </trkpt>
      <trkpt lat="42.792567999999946" lon="-1.686546000000002">
        <ele>447.476</ele>
        <time>2022-08-25T07:37:46Z</time>
      </trkpt>
      <trkpt lat="42.79256199999995" lon="-1.6865830000000022">
        <ele>447.676</ele>
        <time>2022-08-25T07:37:47Z</time>
      </trkpt>
      <trkpt lat="42.79255599999995" lon="-1.6866090000000022">
        <ele>447.642</ele>
        <time>2022-08-25T07:37:48Z</time>
      </trkpt>
      <trkpt lat="42.79254699999995" lon="-1.6866390000000022">
        <ele>447.874</ele>
        <time>2022-08-25T07:37:49Z</time>
      </trkpt>
      <trkpt lat="42.79253799999995" lon="-1.6866700000000021">
        <ele>447.841</ele>
        <time>2022-08-25T07:37:50Z</time>
      </trkpt>
      <trkpt lat="42.79253299999995" lon="-1.6866940000000021">
        <ele>448.084</ele>
        <time>2022-08-25T07:37:51Z</time>
      </trkpt>
      <trkpt lat="42.792522999999946" lon="-1.6867320000000021">
        <ele>448.260</ele>
        <time>2022-08-25T07:37:52Z</time>
      </trkpt>
      <trkpt lat="42.79251399999995" lon="-1.686762000000002">
        <ele>448.211</ele>
        <time>2022-08-25T07:37:53Z</time>
      </trkpt>
      <trkpt lat="42.792505999999946" lon="-1.686790000000002">
        <ele>448.465</ele>
        <time>2022-08-25T07:37:54Z</time>
      </trkpt>
      <trkpt lat="42.79249899999995" lon="-1.6868130000000021">
        <ele>448.468</ele>
        <time>2022-08-25T07:37:55Z</time>
      </trkpt>
      <trkpt lat="42.79249099999995" lon="-1.6868400000000021">
        <ele>448.614</ele>
        <time>2022-08-25T07:37:56Z</time>
      </trkpt>
      <trkpt lat="42.79248399999995" lon="-1.6868770000000022">
        <ele>448.609</ele>
        <time>2022-08-25T07:37:57Z</time>
      </trkpt>
      <trkpt lat="42.792479999999955" lon="-1.6869060000000022">
        <ele>448.897</ele>
        <time>2022-08-25T07:37:58Z</time>
      </trkpt>
      <trkpt lat="42.79247599999996" lon="-1.6869330000000022">
        <ele>449.057</ele>
        <time>2022-08-25T07:37:59Z</time>
      </trkpt>
      <trkpt lat="42.79247199999996" lon="-1.6869540000000023">
        <ele>449.047</ele>
        <time>2022-08-25T07:38:00Z</time>
      </trkpt>
      <trkpt lat="42.792464999999964" lon="-1.6869840000000023">
        <ele>449.043</ele>
        <time>2022-08-25T07:38:01Z</time>
      </trkpt>
      <trkpt lat="42.79245499999996" lon="-1.6870170000000022">
        <ele>449.295</ele>
        <time>2022-08-25T07:38:02Z</time>
      </trkpt>
      <trkpt lat="42.79244599999996" lon="-1.6870450000000021">
        <ele>449.252</ele>
        <time>2022-08-25T07:38:03Z</time>
      </trkpt>
      <trkpt lat="42.79243799999996" lon="-1.6870690000000022">
        <ele>449.445</ele>
        <time>2022-08-25T07:38:04Z</time>
      </trkpt>
      <trkpt lat="42.79242999999996" lon="-1.6870980000000022">
        <ele>449.451</ele>
        <time>2022-08-25T07:38:05Z</time>
      </trkpt>
      <trkpt lat="42.79241599999996" lon="-1.6871350000000023">
        <ele>449.622</ele>
        <time>2022-08-25T07:38:06Z</time>
      </trkpt>
      <trkpt lat="42.79240499999996" lon="-1.6871660000000022">
        <ele>449.698</ele>
        <time>2022-08-25T07:38:07Z</time>
      </trkpt>
      <trkpt lat="42.79238999999996" lon="-1.6871990000000021">
        <ele>449.815</ele>
        <time>2022-08-25T07:38:08Z</time>
      </trkpt>
      <trkpt lat="42.79237999999996" lon="-1.6872220000000022">
        <ele>449.826</ele>
        <time>2022-08-25T07:38:09Z</time>
      </trkpt>
      <trkpt lat="42.79236899999996" lon="-1.6872520000000022">
        <ele>450.009</ele>
        <time>2022-08-25T07:38:10Z</time>
      </trkpt>
      <trkpt lat="42.79235799999996" lon="-1.6872860000000023">
        <ele>450.260</ele>
        <time>2022-08-25T07:38:11Z</time>
      </trkpt>
      <trkpt lat="42.79234599999996" lon="-1.6873150000000023">
        <ele>450.250</ele>
        <time>2022-08-25T07:38:12Z</time>
      </trkpt>
      <trkpt lat="42.79233799999996" lon="-1.6873420000000023">
        <ele>450.440</ele>
        <time>2022-08-25T07:38:13Z</time>
      </trkpt>
      <trkpt lat="42.79233099999996" lon="-1.6873700000000023">
        <ele>450.456</ele>
        <time>2022-08-25T07:38:14Z</time>
      </trkpt>
      <trkpt lat="42.79232499999996" lon="-1.6873940000000023">
        <ele>450.468</ele>
        <time>2022-08-25T07:38:15Z</time>
      </trkpt>
      <trkpt lat="42.79231499999996" lon="-1.6874280000000024">
        <ele>450.475</ele>
        <time>2022-08-25T07:38:16Z</time>
      </trkpt>
      <trkpt lat="42.79230199999996" lon="-1.6874560000000023">
        <ele>450.668</ele>
        <time>2022-08-25T07:38:17Z</time>
      </trkpt>
      <trkpt lat="42.792293999999956" lon="-1.6874840000000022">
        <ele>450.894</ele>
        <time>2022-08-25T07:38:18Z</time>
      </trkpt>
      <trkpt lat="42.79228699999996" lon="-1.6875070000000023">
        <ele>450.855</ele>
        <time>2022-08-25T07:38:19Z</time>
      </trkpt>
      <trkpt lat="42.79227599999996" lon="-1.6875410000000024">
        <ele>451.075</ele>
        <time>2022-08-25T07:38:20Z</time>
      </trkpt>
      <trkpt lat="42.79226499999996" lon="-1.6875670000000025">
        <ele>451.028</ele>
        <time>2022-08-25T07:38:21Z</time>
      </trkpt>
      <trkpt lat="42.79225699999996" lon="-1.6875940000000025">
        <ele>451.220</ele>
        <time>2022-08-25T07:38:22Z</time>
      </trkpt>
      <trkpt lat="42.79224999999996" lon="-1.6876160000000024">
        <ele>451.209</ele>
        <time>2022-08-25T07:38:23Z</time>
      </trkpt>
      <trkpt lat="42.79224199999996" lon="-1.6876460000000024">
        <ele>451.488</ele>
        <time>2022-08-25T07:38:24Z</time>
      </trkpt>
      <trkpt lat="42.79223299999996" lon="-1.6876830000000025">
        <ele>451.498</ele>
        <time>2022-08-25T07:38:25Z</time>
      </trkpt>
      <trkpt lat="42.79222099999996" lon="-1.6877140000000024">
        <ele>451.438</ele>
        <time>2022-08-25T07:38:26Z</time>
      </trkpt>
      <trkpt lat="42.792211999999964" lon="-1.6877440000000024">
        <ele>451.624</ele>
        <time>2022-08-25T07:38:27Z</time>
      </trkpt>
      <trkpt lat="42.79220499999997" lon="-1.6877710000000024">
        <ele>451.636</ele>
        <time>2022-08-25T07:38:28Z</time>
      </trkpt>
      <trkpt lat="42.792199999999966" lon="-1.6877930000000023">
        <ele>451.853</ele>
        <time>2022-08-25T07:38:29Z</time>
      </trkpt>
      <trkpt lat="42.79219399999997" lon="-1.6878210000000022">
        <ele>452.056</ele>
        <time>2022-08-25T07:38:30Z</time>
      </trkpt>
      <trkpt lat="42.792185999999965" lon="-1.6878530000000023">
        <ele>452.252</ele>
        <time>2022-08-25T07:38:31Z</time>
      </trkpt>
      <trkpt lat="42.79218199999997" lon="-1.6878780000000022">
        <ele>452.233</ele>
        <time>2022-08-25T07:38:32Z</time>
      </trkpt>
      <trkpt lat="42.79218099999997" lon="-1.6879050000000022">
        <ele>452.215</ele>
        <time>2022-08-25T07:38:33Z</time>
      </trkpt>
      <trkpt lat="42.79217799999997" lon="-1.6879280000000023">
        <ele>452.465</ele>
        <time>2022-08-25T07:38:34Z</time>
      </trkpt>
      <trkpt lat="42.79217199999997" lon="-1.6879450000000022">
        <ele>452.411</ele>
        <time>2022-08-25T07:38:35Z</time>
      </trkpt>
      <trkpt lat="42.79216699999997" lon="-1.6879550000000023">
        <ele>452.609</ele>
        <time>2022-08-25T07:38:36Z</time>
      </trkpt>
      <trkpt lat="42.79215399999997" lon="-1.6879670000000022">
        <ele>452.692</ele>
        <time>2022-08-25T07:38:37Z</time>
      </trkpt>
      <trkpt lat="42.79214199999997" lon="-1.6879760000000021">
        <ele>452.662</ele>
        <time>2022-08-25T07:38:38Z</time>
      </trkpt>
      <trkpt lat="42.79212499999997" lon="-1.687998000000002">
        <ele>452.652</ele>
        <time>2022-08-25T07:38:39Z</time>
      </trkpt>
      <trkpt lat="42.79211399999997" lon="-1.688023000000002">
        <ele>452.648</ele>
        <time>2022-08-25T07:38:40Z</time>
      </trkpt>
      <trkpt lat="42.79211199999997" lon="-1.6880570000000021">
        <ele>452.650</ele>
        <time>2022-08-25T07:38:41Z</time>
      </trkpt>
      <trkpt lat="42.79210499999997" lon="-1.6880870000000021">
        <ele>452.847</ele>
        <time>2022-08-25T07:38:42Z</time>
      </trkpt>
      <trkpt lat="42.79210299999997" lon="-1.6881100000000022">
        <ele>452.890</ele>
        <time>2022-08-25T07:38:43Z</time>
      </trkpt>
      <trkpt lat="42.79208799999997" lon="-1.6881550000000023">
        <ele>452.836</ele>
        <time>2022-08-25T07:38:44Z</time>
      </trkpt>
      <trkpt lat="42.79203999999997" lon="-1.6882480000000022">
        <ele>453.067</ele>
        <time>2022-08-25T07:38:47Z</time>
      </trkpt>
      <trkpt lat="42.79202899999997" lon="-1.6882720000000022">
        <ele>453.022</ele>
        <time>2022-08-25T07:38:48Z</time>
      </trkpt>
      <trkpt lat="42.79198699999997" lon="-1.6883740000000023">
        <ele>453.262</ele>
        <time>2022-08-25T07:38:51Z</time>
      </trkpt>
      <trkpt lat="42.791951999999974" lon="-1.6884560000000022">
        <ele>453.408</ele>
        <time>2022-08-25T07:38:54Z</time>
      </trkpt>
      <trkpt lat="42.79193599999997" lon="-1.6885080000000021">
        <ele>453.609</ele>
        <time>2022-08-25T07:38:56Z</time>
      </trkpt>
      <trkpt lat="42.791931999999974" lon="-1.6885260000000022">
        <ele>453.823</ele>
        <time>2022-08-25T07:38:57Z</time>
      </trkpt>
      <trkpt lat="42.791925999999975" lon="-1.6885510000000021">
        <ele>453.823</ele>
        <time>2022-08-25T07:38:58Z</time>
      </trkpt>
      <trkpt lat="42.79191299999997" lon="-1.6885830000000022">
        <ele>454.053</ele>
        <time>2022-08-25T07:38:59Z</time>
      </trkpt>
      <trkpt lat="42.791889999999974" lon="-1.6886420000000022">
        <ele>454.019</ele>
        <time>2022-08-25T07:39:01Z</time>
      </trkpt>
      <trkpt lat="42.79187099999997" lon="-1.6886940000000021">
        <ele>454.231</ele>
        <time>2022-08-25T07:39:03Z</time>
      </trkpt>
      <trkpt lat="42.791858999999974" lon="-1.688730000000002">
        <ele>454.428</ele>
        <time>2022-08-25T07:39:04Z</time>
      </trkpt>
      <trkpt lat="42.791846999999976" lon="-1.688760000000002">
        <ele>454.421</ele>
        <time>2022-08-25T07:39:05Z</time>
      </trkpt>
      <trkpt lat="42.79178099999998" lon="-1.6889180000000021">
        <ele>454.447</ele>
        <time>2022-08-25T07:39:10Z</time>
      </trkpt>
      <trkpt lat="42.79177299999998" lon="-1.688940000000002">
        <ele>454.658</ele>
        <time>2022-08-25T07:39:11Z</time>
      </trkpt>
      <trkpt lat="42.79176499999998" lon="-1.6889660000000022">
        <ele>454.676</ele>
        <time>2022-08-25T07:39:12Z</time>
      </trkpt>
      <trkpt lat="42.79175599999998" lon="-1.6889960000000022">
        <ele>454.890</ele>
        <time>2022-08-25T07:39:13Z</time>
      </trkpt>
      <trkpt lat="42.79169899999998" lon="-1.6890640000000021">
        <ele>455.019</ele>
        <time>2022-08-25T07:39:16Z</time>
      </trkpt>
      <trkpt lat="42.79168199999998" lon="-1.6890790000000022">
        <ele>455.009</ele>
        <time>2022-08-25T07:39:17Z</time>
      </trkpt>
      <trkpt lat="42.79165799999998" lon="-1.6891000000000023">
        <ele>455.018</ele>
        <time>2022-08-25T07:39:18Z</time>
      </trkpt>
      <trkpt lat="42.791644999999974" lon="-1.6891200000000022">
        <ele>455.048</ele>
        <time>2022-08-25T07:39:19Z</time>
      </trkpt>
      <trkpt lat="42.79163699999997" lon="-1.6891430000000023">
        <ele>454.878</ele>
        <time>2022-08-25T07:39:20Z</time>
      </trkpt>
      <trkpt lat="42.79162899999997" lon="-1.6891720000000023">
        <ele>454.854</ele>
        <time>2022-08-25T07:39:21Z</time>
      </trkpt>
      <trkpt lat="42.79162099999997" lon="-1.6892100000000023">
        <ele>454.896</ele>
        <time>2022-08-25T07:39:22Z</time>
      </trkpt>
      <trkpt lat="42.791613999999974" lon="-1.6892440000000024">
        <ele>454.853</ele>
        <time>2022-08-25T07:39:23Z</time>
      </trkpt>
      <trkpt lat="42.79154999999997" lon="-1.6894130000000025">
        <ele>454.856</ele>
        <time>2022-08-25T07:39:28Z</time>
      </trkpt>
      <trkpt lat="42.79150799999997" lon="-1.6895040000000026">
        <ele>454.822</ele>
        <time>2022-08-25T07:39:31Z</time>
      </trkpt>
      <trkpt lat="42.79148799999997" lon="-1.6895410000000026">
        <ele>454.863</ele>
        <time>2022-08-25T07:39:32Z</time>
      </trkpt>
      <trkpt lat="42.79147199999997" lon="-1.6895700000000027">
        <ele>454.827</ele>
        <time>2022-08-25T07:39:33Z</time>
      </trkpt>
      <trkpt lat="42.79143499999997" lon="-1.6896200000000028">
        <ele>454.868</ele>
        <time>2022-08-25T07:39:35Z</time>
      </trkpt>
      <trkpt lat="42.791402999999974" lon="-1.6896950000000028">
        <ele>454.614</ele>
        <time>2022-08-25T07:39:37Z</time>
      </trkpt>
      <trkpt lat="42.791390999999976" lon="-1.6897250000000028">
        <ele>454.609</ele>
        <time>2022-08-25T07:39:38Z</time>
      </trkpt>
      <trkpt lat="42.791379999999975" lon="-1.689748000000003">
        <ele>454.683</ele>
        <time>2022-08-25T07:39:39Z</time>
      </trkpt>
      <trkpt lat="42.79137099999998" lon="-1.6897810000000029">
        <ele>454.613</ele>
        <time>2022-08-25T07:39:40Z</time>
      </trkpt>
      <trkpt lat="42.791354999999974" lon="-1.6898200000000028">
        <ele>454.633</ele>
        <time>2022-08-25T07:39:41Z</time>
      </trkpt>
      <trkpt lat="42.79133999999998" lon="-1.6898530000000027">
        <ele>454.639</ele>
        <time>2022-08-25T07:39:42Z</time>
      </trkpt>
      <trkpt lat="42.79132799999998" lon="-1.6898840000000026">
        <ele>454.691</ele>
        <time>2022-08-25T07:39:43Z</time>
      </trkpt>
      <trkpt lat="42.79125699999998" lon="-1.6899920000000026">
        <ele>455.088</ele>
        <time>2022-08-25T07:39:47Z</time>
      </trkpt>
      <trkpt lat="42.79123899999998" lon="-1.6900240000000026">
        <ele>455.041</ele>
        <time>2022-08-25T07:39:48Z</time>
      </trkpt>
      <trkpt lat="42.79117199999998" lon="-1.6901300000000026">
        <ele>455.277</ele>
        <time>2022-08-25T07:39:51Z</time>
      </trkpt>
      <trkpt lat="42.79115199999998" lon="-1.6901600000000025">
        <ele>455.218</ele>
        <time>2022-08-25T07:39:52Z</time>
      </trkpt>
      <trkpt lat="42.79113299999998" lon="-1.6901890000000026">
        <ele>455.445</ele>
        <time>2022-08-25T07:39:53Z</time>
      </trkpt>
      <trkpt lat="42.79111999999998" lon="-1.6902130000000026">
        <ele>455.447</ele>
        <time>2022-08-25T07:39:54Z</time>
      </trkpt>
      <trkpt lat="42.791106999999975" lon="-1.6902440000000025">
        <ele>455.611</ele>
        <time>2022-08-25T07:39:55Z</time>
      </trkpt>
      <trkpt lat="42.791092999999975" lon="-1.6902830000000024">
        <ele>455.609</ele>
        <time>2022-08-25T07:39:56Z</time>
      </trkpt>
      <trkpt lat="42.79108399999998" lon="-1.6903130000000024">
        <ele>455.665</ele>
        <time>2022-08-25T07:39:57Z</time>
      </trkpt>
      <trkpt lat="42.791078999999975" lon="-1.6903350000000024">
        <ele>455.645</ele>
        <time>2022-08-25T07:39:58Z</time>
      </trkpt>
      <trkpt lat="42.791070999999974" lon="-1.6903610000000024">
        <ele>455.825</ele>
        <time>2022-08-25T07:39:59Z</time>
      </trkpt>
      <trkpt lat="42.79105799999997" lon="-1.6903850000000025">
        <ele>455.821</ele>
        <time>2022-08-25T07:40:00Z</time>
      </trkpt>
      <trkpt lat="42.79104499999997" lon="-1.6904030000000025">
        <ele>455.863</ele>
        <time>2022-08-25T07:40:01Z</time>
      </trkpt>
      <trkpt lat="42.79103699999997" lon="-1.6904230000000025">
        <ele>455.840</ele>
        <time>2022-08-25T07:40:02Z</time>
      </trkpt>
      <trkpt lat="42.791034999999965" lon="-1.6904390000000025">
        <ele>455.863</ele>
        <time>2022-08-25T07:40:03Z</time>
      </trkpt>
      <trkpt lat="42.791028999999966" lon="-1.6904520000000025">
        <ele>455.879</ele>
        <time>2022-08-25T07:40:04Z</time>
      </trkpt>
      <trkpt lat="42.791017999999966" lon="-1.6904690000000024">
        <ele>455.890</ele>
        <time>2022-08-25T07:40:05Z</time>
      </trkpt>
      <trkpt lat="42.791003999999965" lon="-1.6904720000000024">
        <ele>455.885</ele>
        <time>2022-08-25T07:40:06Z</time>
      </trkpt>
      <trkpt lat="42.79098599999997" lon="-1.6904590000000024">
        <ele>455.889</ele>
        <time>2022-08-25T07:40:07Z</time>
      </trkpt>
      <trkpt lat="42.79096399999997" lon="-1.6904270000000023">
        <ele>456.017</ele>
        <time>2022-08-25T07:40:09Z</time>
      </trkpt>
      <trkpt lat="42.79094899999997" lon="-1.6903780000000024">
        <ele>456.009</ele>
        <time>2022-08-25T07:40:11Z</time>
      </trkpt>
      <trkpt lat="42.79094399999997" lon="-1.6903610000000024">
        <ele>456.289</ele>
        <time>2022-08-25T07:40:12Z</time>
      </trkpt>
      <trkpt lat="42.79092299999997" lon="-1.6903170000000025">
        <ele>456.449</ele>
        <time>2022-08-25T07:40:14Z</time>
      </trkpt>
      <trkpt lat="42.79091099999997" lon="-1.6902970000000026">
        <ele>456.479</ele>
        <time>2022-08-25T07:40:15Z</time>
      </trkpt>
      <trkpt lat="42.79083299999997" lon="-1.6902110000000026">
        <ele>457.235</ele>
        <time>2022-08-25T07:40:19Z</time>
      </trkpt>
      <trkpt lat="42.790780999999974" lon="-1.6901590000000026">
        <ele>457.247</ele>
        <time>2022-08-25T07:40:21Z</time>
      </trkpt>
      <trkpt lat="42.79059399999998" lon="-1.6899570000000026">
        <ele>457.244</ele>
        <time>2022-08-25T07:40:26Z</time>
      </trkpt>
      <trkpt lat="42.79050699999998" lon="-1.6898610000000025">
        <ele>456.877</ele>
        <time>2022-08-25T07:40:28Z</time>
      </trkpt>
      <trkpt lat="42.79046699999998" lon="-1.6898190000000024">
        <ele>456.663</ele>
        <time>2022-08-25T07:40:29Z</time>
      </trkpt>
      <trkpt lat="42.79043599999998" lon="-1.6897790000000024">
        <ele>456.494</ele>
        <time>2022-08-25T07:40:30Z</time>
      </trkpt>
      <trkpt lat="42.79040999999998" lon="-1.6897480000000025">
        <ele>456.266</ele>
        <time>2022-08-25T07:40:31Z</time>
      </trkpt>
      <trkpt lat="42.79038499999998" lon="-1.6897210000000025">
        <ele>455.829</ele>
        <time>2022-08-25T07:40:32Z</time>
      </trkpt>
      <trkpt lat="42.79036499999998" lon="-1.6896980000000024">
        <ele>455.421</ele>
        <time>2022-08-25T07:40:33Z</time>
      </trkpt>
      <trkpt lat="42.79034899999998" lon="-1.6896780000000025">
        <ele>455.409</ele>
        <time>2022-08-25T07:40:34Z</time>
      </trkpt>
      <trkpt lat="42.79032899999998" lon="-1.6896550000000023">
        <ele>455.037</ele>
        <time>2022-08-25T07:40:35Z</time>
      </trkpt>
      <trkpt lat="42.79029999999998" lon="-1.6896130000000023">
        <ele>454.857</ele>
        <time>2022-08-25T07:40:37Z</time>
      </trkpt>
      <trkpt lat="42.79028599999998" lon="-1.6895950000000022">
        <ele>454.857</ele>
        <time>2022-08-25T07:40:38Z</time>
      </trkpt>
      <trkpt lat="42.79026599999998" lon="-1.6895820000000021">
        <ele>454.683</ele>
        <time>2022-08-25T07:40:39Z</time>
      </trkpt>
      <trkpt lat="42.79024999999998" lon="-1.6895780000000022">
        <ele>454.485</ele>
        <time>2022-08-25T07:40:40Z</time>
      </trkpt>
      <trkpt lat="42.79023499999998" lon="-1.6895820000000021">
        <ele>454.462</ele>
        <time>2022-08-25T07:40:41Z</time>
      </trkpt>
      <trkpt lat="42.79018099999998" lon="-1.689596000000002">
        <ele>454.285</ele>
        <time>2022-08-25T07:40:43Z</time>
      </trkpt>
      <trkpt lat="42.790151999999985" lon="-1.689599000000002">
        <ele>453.871</ele>
        <time>2022-08-25T07:40:44Z</time>
      </trkpt>
      <trkpt lat="42.79008599999999" lon="-1.689605000000002">
        <ele>453.222</ele>
        <time>2022-08-25T07:40:47Z</time>
      </trkpt>
      <trkpt lat="42.79002999999999" lon="-1.689613000000002">
        <ele>452.823</ele>
        <time>2022-08-25T07:40:49Z</time>
      </trkpt>
      <trkpt lat="42.79001499999999" lon="-1.689621000000002">
        <ele>452.883</ele>
        <time>2022-08-25T07:40:50Z</time>
      </trkpt>
      <trkpt lat="42.79000399999999" lon="-1.689632000000002">
        <ele>452.411</ele>
        <time>2022-08-25T07:40:51Z</time>
      </trkpt>
      <trkpt lat="42.78999499999999" lon="-1.689644000000002">
        <ele>452.209</ele>
        <time>2022-08-25T07:40:52Z</time>
      </trkpt>
      <trkpt lat="42.78998299999999" lon="-1.689657000000002">
        <ele>452.033</ele>
        <time>2022-08-25T07:40:53Z</time>
      </trkpt>
      <trkpt lat="42.789970999999994" lon="-1.689672000000002">
        <ele>451.833</ele>
        <time>2022-08-25T07:40:54Z</time>
      </trkpt>
      <trkpt lat="42.789958999999996" lon="-1.689684000000002">
        <ele>451.853</ele>
        <time>2022-08-25T07:40:55Z</time>
      </trkpt>
      <trkpt lat="42.789933999999995" lon="-1.689714000000002">
        <ele>451.459</ele>
        <time>2022-08-25T07:40:57Z</time>
      </trkpt>
      <trkpt lat="42.789928999999994" lon="-1.689727000000002">
        <ele>451.421</ele>
        <time>2022-08-25T07:40:58Z</time>
      </trkpt>
      <trkpt lat="42.78992699999999" lon="-1.689763000000002">
        <ele>450.818</ele>
        <time>2022-08-25T07:41:00Z</time>
      </trkpt>
      <trkpt lat="42.78992499999999" lon="-1.6897910000000018">
        <ele>450.621</ele>
        <time>2022-08-25T07:41:01Z</time>
      </trkpt>
      <trkpt lat="42.78992599999999" lon="-1.6898280000000019">
        <ele>450.457</ele>
        <time>2022-08-25T07:41:02Z</time>
      </trkpt>
      <trkpt lat="42.789926999999985" lon="-1.6898550000000019">
        <ele>449.828</ele>
        <time>2022-08-25T07:41:03Z</time>
      </trkpt>
      <trkpt lat="42.78991999999999" lon="-1.689870000000002">
        <ele>449.616</ele>
        <time>2022-08-25T07:41:04Z</time>
      </trkpt>
      <trkpt lat="42.78991299999999" lon="-1.689873000000002">
        <ele>449.276</ele>
        <time>2022-08-25T07:41:05Z</time>
      </trkpt>
      <trkpt lat="42.789908999999994" lon="-1.689867000000002">
        <ele>448.813</ele>
        <time>2022-08-25T07:41:06Z</time>
      </trkpt>
      <trkpt lat="42.789911" lon="-1.689854000000002">
        <ele>448.609</ele>
        <time>2022-08-25T07:41:07Z</time>
      </trkpt>
      <trkpt lat="42.789913999999996" lon="-1.689841000000002">
        <ele>448.432</ele>
        <time>2022-08-25T07:41:08Z</time>
      </trkpt>
      <trkpt lat="42.789922" lon="-1.689830000000002">
        <ele>448.482</ele>
        <time>2022-08-25T07:41:09Z</time>
      </trkpt>
      <trkpt lat="42.789927" lon="-1.689817000000002">
        <ele>448.232</ele>
        <time>2022-08-25T07:41:10Z</time>
      </trkpt>
      <trkpt lat="42.789926" lon="-1.6898020000000018">
        <ele>448.248</ele>
        <time>2022-08-25T07:41:11Z</time>
      </trkpt>
      <trkpt lat="42.78991" lon="-1.6897800000000018">
        <ele>448.290</ele>
        <time>2022-08-25T07:41:13Z</time>
      </trkpt>
      <trkpt lat="42.789829" lon="-1.6898100000000018">
        <ele>448.277</ele>
        <time>2022-08-25T07:41:17Z</time>
      </trkpt>
      <trkpt lat="42.789808" lon="-1.689798000000002">
        <ele>448.210</ele>
        <time>2022-08-25T07:41:18Z</time>
      </trkpt>
      <trkpt lat="42.789786" lon="-1.689773000000002">
        <ele>448.276</ele>
        <time>2022-08-25T07:41:19Z</time>
      </trkpt>
      <trkpt lat="42.78977" lon="-1.689732000000002">
        <ele>448.267</ele>
        <time>2022-08-25T07:41:20Z</time>
      </trkpt>
      <trkpt lat="42.789741" lon="-1.689652000000002">
        <ele>448.223</ele>
        <time>2022-08-25T07:41:22Z</time>
      </trkpt>
      <trkpt lat="42.789728" lon="-1.689619000000002">
        <ele>448.083</ele>
        <time>2022-08-25T07:41:23Z</time>
      </trkpt>
      <trkpt lat="42.789694" lon="-1.689535000000002">
        <ele>448.011</ele>
        <time>2022-08-25T07:41:25Z</time>
      </trkpt>
      <trkpt lat="42.789657999999996" lon="-1.689501000000002">
        <ele>448.009</ele>
        <time>2022-08-25T07:41:26Z</time>
      </trkpt>
      <trkpt lat="42.78961999999999" lon="-1.689479000000002">
        <ele>447.823</ele>
        <time>2022-08-25T07:41:27Z</time>
      </trkpt>
      <trkpt lat="42.789593999999994" lon="-1.689450000000002">
        <ele>447.813</ele>
        <time>2022-08-25T07:41:28Z</time>
      </trkpt>
      <trkpt lat="42.78956899999999" lon="-1.6894240000000018">
        <ele>447.843</ele>
        <time>2022-08-25T07:41:29Z</time>
      </trkpt>
      <trkpt lat="42.78949599999999" lon="-1.689331000000002">
        <ele>447.839</ele>
        <time>2022-08-25T07:41:32Z</time>
      </trkpt>
      <trkpt lat="42.789370999999996" lon="-1.6891750000000019">
        <ele>447.821</ele>
        <time>2022-08-25T07:41:36Z</time>
      </trkpt>
      <trkpt lat="42.789345999999995" lon="-1.689142000000002">
        <ele>447.858</ele>
        <time>2022-08-25T07:41:37Z</time>
      </trkpt>
      <trkpt lat="42.789269" lon="-1.6890270000000018">
        <ele>447.651</ele>
        <time>2022-08-25T07:41:40Z</time>
      </trkpt>
      <trkpt lat="42.789235" lon="-1.6889590000000019">
        <ele>447.637</ele>
        <time>2022-08-25T07:41:42Z</time>
      </trkpt>
      <trkpt lat="42.789176" lon="-1.688920000000002">
        <ele>447.468</ele>
        <time>2022-08-25T07:41:43Z</time>
      </trkpt>
      <trkpt lat="42.789114" lon="-1.6888780000000019">
        <ele>447.237</ele>
        <time>2022-08-25T07:41:44Z</time>
      </trkpt>
      <trkpt lat="42.78908" lon="-1.6888360000000018">
        <ele>447.249</ele>
        <time>2022-08-25T07:41:45Z</time>
      </trkpt>
      <trkpt lat="42.789032999999996" lon="-1.6887860000000017">
        <ele>447.013</ele>
        <time>2022-08-25T07:41:46Z</time>
      </trkpt>
      <trkpt lat="42.789012" lon="-1.6887420000000017">
        <ele>447.009</ele>
        <time>2022-08-25T07:41:47Z</time>
      </trkpt>
      <trkpt lat="42.78899" lon="-1.6886980000000018">
        <ele>446.854</ele>
        <time>2022-08-25T07:41:48Z</time>
      </trkpt>
      <trkpt lat="42.788956" lon="-1.6886530000000017">
        <ele>446.824</ele>
        <time>2022-08-25T07:41:49Z</time>
      </trkpt>
      <trkpt lat="42.788907" lon="-1.6886000000000017">
        <ele>446.424</ele>
        <time>2022-08-25T07:41:50Z</time>
      </trkpt>
      <trkpt lat="42.788876" lon="-1.6885580000000016">
        <ele>446.420</ele>
        <time>2022-08-25T07:41:51Z</time>
      </trkpt>
      <trkpt lat="42.788846" lon="-1.6885040000000016">
        <ele>446.232</ele>
        <time>2022-08-25T07:41:52Z</time>
      </trkpt>
      <trkpt lat="42.788797" lon="-1.6884470000000016">
        <ele>446.029</ele>
        <time>2022-08-25T07:41:53Z</time>
      </trkpt>
      <trkpt lat="42.788790000000006" lon="-1.6884160000000017">
        <ele>445.882</ele>
        <time>2022-08-25T07:41:54Z</time>
      </trkpt>
      <trkpt lat="42.78877800000001" lon="-1.6883660000000016">
        <ele>445.648</ele>
        <time>2022-08-25T07:41:55Z</time>
      </trkpt>
      <trkpt lat="42.78880100000001" lon="-1.6883350000000017">
        <ele>445.669</ele>
        <time>2022-08-25T07:41:56Z</time>
      </trkpt>
      <trkpt lat="42.78878100000001" lon="-1.6882970000000017">
        <ele>445.445</ele>
        <time>2022-08-25T07:41:57Z</time>
      </trkpt>
      <trkpt lat="42.78860000000001" lon="-1.6882120000000018">
        <ele>445.447</ele>
        <time>2022-08-25T07:41:59Z</time>
      </trkpt>
      <trkpt lat="42.78852500000001" lon="-1.688173000000002">
        <ele>445.211</ele>
        <time>2022-08-25T07:42:00Z</time>
      </trkpt>
      <trkpt lat="42.78843100000001" lon="-1.688108000000002">
        <ele>445.009</ele>
        <time>2022-08-25T07:42:02Z</time>
      </trkpt>
      <trkpt lat="42.78834300000001" lon="-1.687996000000002">
        <ele>444.625</ele>
        <time>2022-08-25T07:42:04Z</time>
      </trkpt>
      <trkpt lat="42.788294000000015" lon="-1.687955000000002">
        <ele>444.425</ele>
        <time>2022-08-25T07:42:05Z</time>
      </trkpt>
      <trkpt lat="42.78811800000001" lon="-1.687818000000002">
        <ele>444.075</ele>
        <time>2022-08-25T07:42:09Z</time>
      </trkpt>
      <trkpt lat="42.78809300000001" lon="-1.687774000000002">
        <ele>444.061</ele>
        <time>2022-08-25T07:42:10Z</time>
      </trkpt>
      <trkpt lat="42.78809000000001" lon="-1.687740000000002">
        <ele>443.843</ele>
        <time>2022-08-25T07:42:11Z</time>
      </trkpt>
      <trkpt lat="42.788086000000014" lon="-1.687698000000002">
        <ele>443.680</ele>
        <time>2022-08-25T07:42:12Z</time>
      </trkpt>
      <trkpt lat="42.78806100000001" lon="-1.687651000000002">
        <ele>443.633</ele>
        <time>2022-08-25T07:42:13Z</time>
      </trkpt>
      <trkpt lat="42.787998000000016" lon="-1.687615000000002">
        <ele>443.649</ele>
        <time>2022-08-25T07:42:14Z</time>
      </trkpt>
      <trkpt lat="42.787917000000014" lon="-1.6875760000000022">
        <ele>443.430</ele>
        <time>2022-08-25T07:42:15Z</time>
      </trkpt>
      <trkpt lat="42.787782000000014" lon="-1.6875090000000021">
        <ele>443.238</ele>
        <time>2022-08-25T07:42:17Z</time>
      </trkpt>
      <trkpt lat="42.787723000000014" lon="-1.687461000000002">
        <ele>443.070</ele>
        <time>2022-08-25T07:42:18Z</time>
      </trkpt>
      <trkpt lat="42.78764600000002" lon="-1.6874250000000022">
        <ele>443.017</ele>
        <time>2022-08-25T07:42:19Z</time>
      </trkpt>
      <trkpt lat="42.78759700000002" lon="-1.6874090000000022">
        <ele>442.609</ele>
        <time>2022-08-25T07:42:20Z</time>
      </trkpt>
      <trkpt lat="42.78744900000002" lon="-1.6873380000000022">
        <ele>442.494</ele>
        <time>2022-08-25T07:42:22Z</time>
      </trkpt>
      <trkpt lat="42.787343000000014" lon="-1.6872660000000022">
        <ele>442.224</ele>
        <time>2022-08-25T07:42:24Z</time>
      </trkpt>
      <trkpt lat="42.787301000000014" lon="-1.6872380000000022">
        <ele>442.074</ele>
        <time>2022-08-25T07:42:25Z</time>
      </trkpt>
      <trkpt lat="42.787086000000016" lon="-1.6871130000000023">
        <ele>441.480</ele>
        <time>2022-08-25T07:42:29Z</time>
      </trkpt>
      <trkpt lat="42.786856000000014" lon="-1.6869780000000023">
        <ele>440.882</ele>
        <time>2022-08-25T07:42:33Z</time>
      </trkpt>
      <trkpt lat="42.786797000000014" lon="-1.6869490000000023">
        <ele>440.679</ele>
        <time>2022-08-25T07:42:34Z</time>
      </trkpt>
      <trkpt lat="42.78668200000001" lon="-1.6868930000000022">
        <ele>440.412</ele>
        <time>2022-08-25T07:42:36Z</time>
      </trkpt>
      <trkpt lat="42.78653600000001" lon="-1.6868130000000021">
        <ele>440.428</ele>
        <time>2022-08-25T07:42:38Z</time>
      </trkpt>
      <trkpt lat="42.78615300000001" lon="-1.686627000000002">
        <ele>439.469</ele>
        <time>2022-08-25T07:42:45Z</time>
      </trkpt>
      <trkpt lat="42.78597600000001" lon="-1.6865430000000021">
        <ele>439.049</ele>
        <time>2022-08-25T07:42:48Z</time>
      </trkpt>
      <trkpt lat="42.785922000000014" lon="-1.686517000000002">
        <ele>439.002</ele>
        <time>2022-08-25T07:42:49Z</time>
      </trkpt>
      <trkpt lat="42.78586400000001" lon="-1.6864860000000022">
        <ele>438.622</ele>
        <time>2022-08-25T07:42:50Z</time>
      </trkpt>
      <trkpt lat="42.78581000000001" lon="-1.6864580000000022">
        <ele>438.409</ele>
        <time>2022-08-25T07:42:51Z</time>
      </trkpt>
      <trkpt lat="42.78576500000001" lon="-1.6864330000000023">
        <ele>438.445</ele>
        <time>2022-08-25T07:42:52Z</time>
      </trkpt>
      <trkpt lat="42.785722000000014" lon="-1.6864150000000022">
        <ele>438.285</ele>
        <time>2022-08-25T07:42:53Z</time>
      </trkpt>
      <trkpt lat="42.78568900000001" lon="-1.6864080000000021">
        <ele>438.265</ele>
        <time>2022-08-25T07:42:54Z</time>
      </trkpt>
      <trkpt lat="42.78564200000001" lon="-1.6864020000000022">
        <ele>437.841</ele>
        <time>2022-08-25T07:42:55Z</time>
      </trkpt>
      <trkpt lat="42.78560200000001" lon="-1.6864020000000022">
        <ele>437.843</ele>
        <time>2022-08-25T07:42:56Z</time>
      </trkpt>
      <trkpt lat="42.78551800000001" lon="-1.6864070000000022">
        <ele>437.680</ele>
        <time>2022-08-25T07:42:58Z</time>
      </trkpt>
      <trkpt lat="42.78544200000001" lon="-1.6863800000000022">
        <ele>437.433</ele>
        <time>2022-08-25T07:43:00Z</time>
      </trkpt>
      <trkpt lat="42.78540400000001" lon="-1.6863470000000023">
        <ele>437.489</ele>
        <time>2022-08-25T07:43:01Z</time>
      </trkpt>
      <trkpt lat="42.785368000000005" lon="-1.6863110000000023">
        <ele>437.230</ele>
        <time>2022-08-25T07:43:02Z</time>
      </trkpt>
      <trkpt lat="42.785334000000006" lon="-1.6862840000000023">
        <ele>437.236</ele>
        <time>2022-08-25T07:43:03Z</time>
      </trkpt>
      <trkpt lat="42.785298000000004" lon="-1.6862620000000024">
        <ele>437.017</ele>
        <time>2022-08-25T07:43:04Z</time>
      </trkpt>
      <trkpt lat="42.785265" lon="-1.6862470000000023">
        <ele>437.018</ele>
        <time>2022-08-25T07:43:05Z</time>
      </trkpt>
      <trkpt lat="42.785237" lon="-1.6862370000000022">
        <ele>436.809</ele>
        <time>2022-08-25T07:43:06Z</time>
      </trkpt>
      <trkpt lat="42.78521" lon="-1.6862390000000023">
        <ele>436.634</ele>
        <time>2022-08-25T07:43:07Z</time>
      </trkpt>
      <trkpt lat="42.785193" lon="-1.6862500000000022">
        <ele>436.674</ele>
        <time>2022-08-25T07:43:08Z</time>
      </trkpt>
      <trkpt lat="42.785182" lon="-1.6862620000000021">
        <ele>436.664</ele>
        <time>2022-08-25T07:43:09Z</time>
      </trkpt>
      <trkpt lat="42.785185" lon="-1.6862610000000022">
        <ele>436.680</ele>
        <time>2022-08-25T07:43:10Z</time>
      </trkpt>
      <trkpt lat="42.785191999999995" lon="-1.6862660000000023">
        <ele>436.682</ele>
        <time>2022-08-25T07:43:11Z</time>
      </trkpt>
      <trkpt lat="42.785199999999996" lon="-1.6862690000000022">
        <ele>436.689</ele>
        <time>2022-08-25T07:43:12Z</time>
      </trkpt>
      <trkpt lat="42.785211999999994" lon="-1.6862720000000022">
        <ele>436.642</ele>
        <time>2022-08-25T07:43:13Z</time>
      </trkpt>
      <trkpt lat="42.78522399999999" lon="-1.6862770000000022">
        <ele>436.688</ele>
        <time>2022-08-25T07:43:14Z</time>
      </trkpt>
      <trkpt lat="42.785233999999996" lon="-1.6862790000000023">
        <ele>436.659</ele>
        <time>2022-08-25T07:43:15Z</time>
      </trkpt>
      <trkpt lat="42.785284" lon="-1.6862920000000023">
        <ele>436.428</ele>
        <time>2022-08-25T07:43:18Z</time>
      </trkpt>
      <trkpt lat="42.785345" lon="-1.6863290000000024">
        <ele>436.489</ele>
        <time>2022-08-25T07:43:21Z</time>
      </trkpt>
      <trkpt lat="42.785354" lon="-1.6863420000000025">
        <ele>436.417</ele>
        <time>2022-08-25T07:43:22Z</time>
      </trkpt>
      <trkpt lat="42.785362" lon="-1.6863680000000025">
        <ele>436.409</ele>
        <time>2022-08-25T07:43:23Z</time>
      </trkpt>
      <trkpt lat="42.785374" lon="-1.6863930000000025">
        <ele>436.443</ele>
        <time>2022-08-25T07:43:24Z</time>
      </trkpt>
      <trkpt lat="42.785382" lon="-1.6864090000000025">
        <ele>436.413</ele>
        <time>2022-08-25T07:43:25Z</time>
      </trkpt>
      <trkpt lat="42.785392" lon="-1.6864280000000025">
        <ele>436.433</ele>
        <time>2022-08-25T07:43:26Z</time>
      </trkpt>
      <trkpt lat="42.785406" lon="-1.6864570000000025">
        <ele>437.039</ele>
        <time>2022-08-25T07:44:23Z</time>
      </trkpt>
      <trkpt lat="42.785409" lon="-1.6864580000000025">
        <ele>437.031</ele>
        <time>2022-08-25T07:44:24Z</time>
      </trkpt>
      <trkpt lat="42.785478000000005" lon="-1.6864920000000025">
        <ele>437.028</ele>
        <time>2022-08-25T07:44:28Z</time>
      </trkpt>
      <trkpt lat="42.78548800000001" lon="-1.6865080000000026">
        <ele>437.051</ele>
        <time>2022-08-25T07:44:29Z</time>
      </trkpt>
      <trkpt lat="42.78549300000001" lon="-1.6865260000000026">
        <ele>437.027</ele>
        <time>2022-08-25T07:44:30Z</time>
      </trkpt>
      <trkpt lat="42.78549500000001" lon="-1.6865430000000026">
        <ele>437.028</ele>
        <time>2022-08-25T07:44:31Z</time>
      </trkpt>
      <trkpt lat="42.78550000000001" lon="-1.6865530000000026">
        <ele>437.086</ele>
        <time>2022-08-25T07:44:32Z</time>
      </trkpt>
      <trkpt lat="42.785502000000015" lon="-1.6865620000000026">
        <ele>437.060</ele>
        <time>2022-08-25T07:44:33Z</time>
      </trkpt>
      <trkpt lat="42.78549800000002" lon="-1.6865690000000026">
        <ele>437.026</ele>
        <time>2022-08-25T07:44:34Z</time>
      </trkpt>
      <trkpt lat="42.78549700000002" lon="-1.6865800000000026">
        <ele>437.009</ele>
        <time>2022-08-25T07:44:35Z</time>
      </trkpt>
      <trkpt lat="42.78549600000002" lon="-1.6865900000000027">
        <ele>437.059</ele>
        <time>2022-08-25T07:44:36Z</time>
      </trkpt>
      <trkpt lat="42.785493000000024" lon="-1.6866020000000026">
        <ele>437.059</ele>
        <time>2022-08-25T07:44:37Z</time>
      </trkpt>
      <trkpt lat="42.78548800000002" lon="-1.6866110000000025">
        <ele>437.059</ele>
        <time>2022-08-25T07:44:38Z</time>
      </trkpt>
      <trkpt lat="42.785462000000024" lon="-1.6866780000000026">
        <ele>436.875</ele>
        <time>2022-08-25T07:44:43Z</time>
      </trkpt>
      <trkpt lat="42.785461000000026" lon="-1.6866840000000025">
        <ele>436.867</ele>
        <time>2022-08-25T07:44:44Z</time>
      </trkpt>
      <trkpt lat="42.785479000000024" lon="-1.6866580000000024">
        <ele>437.284</ele>
        <time>2022-08-25T07:45:48Z</time>
      </trkpt>
      <trkpt lat="42.78548600000002" lon="-1.6866300000000025">
        <ele>437.297</ele>
        <time>2022-08-25T07:45:50Z</time>
      </trkpt>
      <trkpt lat="42.78548900000002" lon="-1.6866030000000025">
        <ele>437.283</ele>
        <time>2022-08-25T07:45:51Z</time>
      </trkpt>
      <trkpt lat="42.78549500000002" lon="-1.6865190000000025">
        <ele>437.274</ele>
        <time>2022-08-25T07:45:54Z</time>
      </trkpt>
      <trkpt lat="42.78550300000002" lon="-1.6865010000000025">
        <ele>437.242</ele>
        <time>2022-08-25T07:45:55Z</time>
      </trkpt>
      <trkpt lat="42.78551300000002" lon="-1.6864890000000026">
        <ele>437.022</ele>
        <time>2022-08-25T07:45:56Z</time>
      </trkpt>
      <trkpt lat="42.785521000000024" lon="-1.6864780000000026">
        <ele>437.014</ele>
        <time>2022-08-25T07:45:57Z</time>
      </trkpt>
      <trkpt lat="42.78553100000003" lon="-1.6864710000000025">
        <ele>437.009</ele>
        <time>2022-08-25T07:45:58Z</time>
      </trkpt>
      <trkpt lat="42.78553900000003" lon="-1.6864650000000025">
        <ele>437.075</ele>
        <time>2022-08-25T07:45:59Z</time>
      </trkpt>
      <trkpt lat="42.78554500000003" lon="-1.6864540000000026">
        <ele>437.045</ele>
        <time>2022-08-25T07:46:00Z</time>
      </trkpt>
      <trkpt lat="42.785549000000024" lon="-1.6864450000000026">
        <ele>437.045</ele>
        <time>2022-08-25T07:46:01Z</time>
      </trkpt>
      <trkpt lat="42.78554700000002" lon="-1.6864410000000027">
        <ele>436.831</ele>
        <time>2022-08-25T07:47:22Z</time>
      </trkpt>
      <trkpt lat="42.78544000000002" lon="-1.6863820000000027">
        <ele>436.493</ele>
        <time>2022-08-25T07:47:28Z</time>
      </trkpt>
      <trkpt lat="42.785296000000024" lon="-1.6862630000000027">
        <ele>436.270</ele>
        <time>2022-08-25T07:47:33Z</time>
      </trkpt>
      <trkpt lat="42.78525800000002" lon="-1.6862440000000027">
        <ele>436.223</ele>
        <time>2022-08-25T07:47:34Z</time>
      </trkpt>
      <trkpt lat="42.78518600000002" lon="-1.6862060000000028">
        <ele>436.059</ele>
        <time>2022-08-25T07:47:36Z</time>
      </trkpt>
      <trkpt lat="42.785136000000016" lon="-1.6861800000000027">
        <ele>436.080</ele>
        <time>2022-08-25T07:47:37Z</time>
      </trkpt>
      <trkpt lat="42.785094000000015" lon="-1.6861620000000026">
        <ele>436.046</ele>
        <time>2022-08-25T07:47:38Z</time>
      </trkpt>
      <trkpt lat="42.784931000000014" lon="-1.6860880000000027">
        <ele>435.888</ele>
        <time>2022-08-25T07:47:42Z</time>
      </trkpt>
      <trkpt lat="42.78476000000001" lon="-1.6860200000000027">
        <ele>435.816</ele>
        <time>2022-08-25T07:47:46Z</time>
      </trkpt>
      <trkpt lat="42.78446200000001" lon="-1.6859050000000027">
        <ele>435.409</ele>
        <time>2022-08-25T07:47:53Z</time>
      </trkpt>
      <trkpt lat="42.784419000000014" lon="-1.6858910000000027">
        <ele>435.475</ele>
        <time>2022-08-25T07:47:54Z</time>
      </trkpt>
      <trkpt lat="42.784376000000016" lon="-1.6858740000000028">
        <ele>435.435</ele>
        <time>2022-08-25T07:47:55Z</time>
      </trkpt>
      <trkpt lat="42.78433600000002" lon="-1.6858590000000027">
        <ele>435.465</ele>
        <time>2022-08-25T07:47:56Z</time>
      </trkpt>
      <trkpt lat="42.784295000000014" lon="-1.6858420000000027">
        <ele>435.431</ele>
        <time>2022-08-25T07:47:57Z</time>
      </trkpt>
      <trkpt lat="42.784067000000015" lon="-1.6857530000000027">
        <ele>435.043</ele>
        <time>2022-08-25T07:48:02Z</time>
      </trkpt>
      <trkpt lat="42.783929000000015" lon="-1.6856990000000027">
        <ele>434.860</ele>
        <time>2022-08-25T07:48:05Z</time>
      </trkpt>
      <trkpt lat="42.783839000000015" lon="-1.6856680000000028">
        <ele>434.823</ele>
        <time>2022-08-25T07:48:07Z</time>
      </trkpt>
      <trkpt lat="42.78374800000002" lon="-1.6856330000000028">
        <ele>434.679</ele>
        <time>2022-08-25T07:48:09Z</time>
      </trkpt>
      <trkpt lat="42.783574000000016" lon="-1.6855690000000028">
        <ele>434.460</ele>
        <time>2022-08-25T07:48:13Z</time>
      </trkpt>
      <trkpt lat="42.78352000000002" lon="-1.6855510000000027">
        <ele>434.431</ele>
        <time>2022-08-25T07:48:14Z</time>
      </trkpt>
      <trkpt lat="42.78347700000002" lon="-1.6855390000000028">
        <ele>434.261</ele>
        <time>2022-08-25T07:48:15Z</time>
      </trkpt>
      <trkpt lat="42.78343200000002" lon="-1.6855320000000027">
        <ele>434.207</ele>
        <time>2022-08-25T07:48:16Z</time>
      </trkpt>
      <trkpt lat="42.78338700000002" lon="-1.6855260000000027">
        <ele>434.209</ele>
        <time>2022-08-25T07:48:17Z</time>
      </trkpt>
      <trkpt lat="42.783343000000016" lon="-1.6855180000000027">
        <ele>434.264</ele>
        <time>2022-08-25T07:48:18Z</time>
      </trkpt>
      <trkpt lat="42.78321300000002" lon="-1.6854520000000028">
        <ele>434.064</ele>
        <time>2022-08-25T07:48:21Z</time>
      </trkpt>
      <trkpt lat="42.783073000000016" lon="-1.6853920000000029">
        <ele>433.874</ele>
        <time>2022-08-25T07:48:24Z</time>
      </trkpt>
      <trkpt lat="42.783025000000016" lon="-1.6853770000000028">
        <ele>433.830</ele>
        <time>2022-08-25T07:48:25Z</time>
      </trkpt>
      <trkpt lat="42.78298700000001" lon="-1.6853660000000028">
        <ele>433.882</ele>
        <time>2022-08-25T07:48:26Z</time>
      </trkpt>
      <trkpt lat="42.78283600000001" lon="-1.6853320000000027">
        <ele>433.829</ele>
        <time>2022-08-25T07:48:29Z</time>
      </trkpt>
      <trkpt lat="42.78279200000001" lon="-1.6853220000000027">
        <ele>433.842</ele>
        <time>2022-08-25T07:48:30Z</time>
      </trkpt>
      <trkpt lat="42.78274700000001" lon="-1.6853130000000027">
        <ele>433.838</ele>
        <time>2022-08-25T07:48:31Z</time>
      </trkpt>
      <trkpt lat="42.782703000000005" lon="-1.6853070000000028">
        <ele>433.839</ele>
        <time>2022-08-25T07:48:32Z</time>
      </trkpt>
      <trkpt lat="42.782659" lon="-1.6852960000000028">
        <ele>433.814</ele>
        <time>2022-08-25T07:48:33Z</time>
      </trkpt>
      <trkpt lat="42.782614" lon="-1.6852850000000028">
        <ele>433.854</ele>
        <time>2022-08-25T07:48:34Z</time>
      </trkpt>
      <trkpt lat="42.782254" lon="-1.6852480000000027">
        <ele>433.609</ele>
        <time>2022-08-25T07:48:42Z</time>
      </trkpt>
      <trkpt lat="42.782209" lon="-1.6852460000000027">
        <ele>433.609</ele>
        <time>2022-08-25T07:48:43Z</time>
      </trkpt>
      <trkpt lat="42.782165" lon="-1.6852460000000027">
        <ele>433.642</ele>
        <time>2022-08-25T07:48:44Z</time>
      </trkpt>
      <trkpt lat="42.782122" lon="-1.6852470000000026">
        <ele>433.682</ele>
        <time>2022-08-25T07:48:45Z</time>
      </trkpt>
      <trkpt lat="42.782036" lon="-1.6852450000000025">
        <ele>433.632</ele>
        <time>2022-08-25T07:48:47Z</time>
      </trkpt>
      <trkpt lat="42.781904999999995" lon="-1.6852620000000025">
        <ele>433.468</ele>
        <time>2022-08-25T07:48:50Z</time>
      </trkpt>
      <trkpt lat="42.781862" lon="-1.6852680000000024">
        <ele>433.460</ele>
        <time>2022-08-25T07:48:51Z</time>
      </trkpt>
      <trkpt lat="42.781819" lon="-1.6852750000000025">
        <ele>433.487</ele>
        <time>2022-08-25T07:48:52Z</time>
      </trkpt>
      <trkpt lat="42.781779" lon="-1.6852820000000026">
        <ele>433.410</ele>
        <time>2022-08-25T07:48:53Z</time>
      </trkpt>
      <trkpt lat="42.78174" lon="-1.6852890000000027">
        <ele>433.436</ele>
        <time>2022-08-25T07:48:54Z</time>
      </trkpt>
      <trkpt lat="42.781701999999996" lon="-1.6853010000000026">
        <ele>433.427</ele>
        <time>2022-08-25T07:48:55Z</time>
      </trkpt>
      <trkpt lat="42.781662999999995" lon="-1.6853140000000026">
        <ele>433.458</ele>
        <time>2022-08-25T07:48:56Z</time>
      </trkpt>
      <trkpt lat="42.781622999999996" lon="-1.6853300000000027">
        <ele>433.452</ele>
        <time>2022-08-25T07:48:57Z</time>
      </trkpt>
      <trkpt lat="42.781586" lon="-1.6853460000000027">
        <ele>433.417</ele>
        <time>2022-08-25T07:48:58Z</time>
      </trkpt>
      <trkpt lat="42.781558" lon="-1.6853580000000026">
        <ele>433.409</ele>
        <time>2022-08-25T07:48:59Z</time>
      </trkpt>
      <trkpt lat="42.781518" lon="-1.6853770000000026">
        <ele>433.426</ele>
        <time>2022-08-25T07:49:00Z</time>
      </trkpt>
      <trkpt lat="42.781486" lon="-1.6853940000000025">
        <ele>433.436</ele>
        <time>2022-08-25T07:49:01Z</time>
      </trkpt>
      <trkpt lat="42.781455" lon="-1.6854090000000026">
        <ele>433.436</ele>
        <time>2022-08-25T07:49:02Z</time>
      </trkpt>
      <trkpt lat="42.781425" lon="-1.6854270000000027">
        <ele>433.442</ele>
        <time>2022-08-25T07:49:03Z</time>
      </trkpt>
      <trkpt lat="42.781397" lon="-1.6854470000000026">
        <ele>433.634</ele>
        <time>2022-08-25T07:49:04Z</time>
      </trkpt>
      <trkpt lat="42.781374" lon="-1.6854660000000026">
        <ele>433.651</ele>
        <time>2022-08-25T07:49:05Z</time>
      </trkpt>
      <trkpt lat="42.781307" lon="-1.6855320000000025">
        <ele>433.864</ele>
        <time>2022-08-25T07:49:08Z</time>
      </trkpt>
      <trkpt lat="42.781282" lon="-1.6855540000000024">
        <ele>433.810</ele>
        <time>2022-08-25T07:49:09Z</time>
      </trkpt>
      <trkpt lat="42.781251999999995" lon="-1.6856030000000024">
        <ele>433.851</ele>
        <time>2022-08-25T07:49:11Z</time>
      </trkpt>
      <trkpt lat="42.781251" lon="-1.6856370000000025">
        <ele>433.833</ele>
        <time>2022-08-25T07:49:12Z</time>
      </trkpt>
      <trkpt lat="42.781254" lon="-1.6856690000000025">
        <ele>433.823</ele>
        <time>2022-08-25T07:49:13Z</time>
      </trkpt>
      <trkpt lat="42.781256" lon="-1.6856960000000025">
        <ele>433.815</ele>
        <time>2022-08-25T07:49:14Z</time>
      </trkpt>
      <trkpt lat="42.781255" lon="-1.6857220000000026">
        <ele>434.009</ele>
        <time>2022-08-25T07:49:15Z</time>
      </trkpt>
      <trkpt lat="42.781254000000004" lon="-1.6857510000000027">
        <ele>434.084</ele>
        <time>2022-08-25T07:49:16Z</time>
      </trkpt>
      <trkpt lat="42.781254000000004" lon="-1.6857730000000026">
        <ele>434.244</ele>
        <time>2022-08-25T07:49:17Z</time>
      </trkpt>
      <trkpt lat="42.781231000000005" lon="-1.6859230000000027">
        <ele>434.874</ele>
        <time>2022-08-25T07:49:22Z</time>
      </trkpt>
      <trkpt lat="42.781228000000006" lon="-1.6859490000000028">
        <ele>434.860</ele>
        <time>2022-08-25T07:49:23Z</time>
      </trkpt>
      <trkpt lat="42.78123600000001" lon="-1.6859630000000028">
        <ele>435.042</ele>
        <time>2022-08-25T07:49:24Z</time>
      </trkpt>
      <trkpt lat="42.781251000000005" lon="-1.6859640000000027">
        <ele>435.059</ele>
        <time>2022-08-25T07:49:25Z</time>
      </trkpt>
      <trkpt lat="42.78134000000001" lon="-1.6858800000000027">
        <ele>435.232</ele>
        <time>2022-08-25T07:49:30Z</time>
      </trkpt>
      <trkpt lat="42.78140900000001" lon="-1.6858300000000026">
        <ele>435.228</ele>
        <time>2022-08-25T07:49:33Z</time>
      </trkpt>
      <trkpt lat="42.78142500000001" lon="-1.6858380000000026">
        <ele>435.259</ele>
        <time>2022-08-25T07:49:34Z</time>
      </trkpt>
      <trkpt lat="42.78143400000001" lon="-1.6858520000000026">
        <ele>435.287</ele>
        <time>2022-08-25T07:49:35Z</time>
      </trkpt>
      <trkpt lat="42.78144500000001" lon="-1.6858730000000026">
        <ele>435.242</ele>
        <time>2022-08-25T07:49:36Z</time>
      </trkpt>
      <trkpt lat="42.781458000000015" lon="-1.6858920000000026">
        <ele>435.226</ele>
        <time>2022-08-25T07:49:37Z</time>
      </trkpt>
      <trkpt lat="42.78146700000001" lon="-1.6859100000000027">
        <ele>435.209</ele>
        <time>2022-08-25T07:49:38Z</time>
      </trkpt>
      <trkpt lat="42.78147700000002" lon="-1.6859250000000028">
        <ele>435.259</ele>
        <time>2022-08-25T07:49:39Z</time>
      </trkpt>
      <trkpt lat="42.78148700000002" lon="-1.6859410000000028">
        <ele>435.259</ele>
        <time>2022-08-25T07:49:40Z</time>
      </trkpt>
      <trkpt lat="42.78150000000002" lon="-1.6859610000000027">
        <ele>435.229</ele>
        <time>2022-08-25T07:49:41Z</time>
      </trkpt>
      <trkpt lat="42.781510000000026" lon="-1.6859780000000026">
        <ele>435.255</ele>
        <time>2022-08-25T07:49:42Z</time>
      </trkpt>
      <trkpt lat="42.78151400000002" lon="-1.6860130000000026">
        <ele>435.237</ele>
        <time>2022-08-25T07:49:44Z</time>
      </trkpt>
      <trkpt lat="42.78150600000002" lon="-1.6860230000000027">
        <ele>435.244</ele>
        <time>2022-08-25T07:49:45Z</time>
      </trkpt>
      <trkpt lat="42.78150300000002" lon="-1.6860240000000026">
        <ele>435.277</ele>
        <time>2022-08-25T07:49:46Z</time>
      </trkpt>
      <trkpt lat="42.78148700000002" lon="-1.6860150000000027">
        <ele>435.273</ele>
        <time>2022-08-25T07:50:28Z</time>
      </trkpt>
      <trkpt lat="42.78147000000002" lon="-1.6860090000000028">
        <ele>435.214</ele>
        <time>2022-08-25T07:50:29Z</time>
      </trkpt>
      <trkpt lat="42.78143400000002" lon="-1.6859910000000027">
        <ele>435.083</ele>
        <time>2022-08-25T07:50:31Z</time>
      </trkpt>
      <trkpt lat="42.781418000000016" lon="-1.6860100000000027">
        <ele>434.625</ele>
        <time>2022-08-25T07:50:33Z</time>
      </trkpt>
      <trkpt lat="42.781419000000014" lon="-1.6860060000000028">
        <ele>434.617</ele>
        <time>2022-08-25T07:50:34Z</time>
      </trkpt>
      <trkpt lat="42.78142200000001" lon="-1.6859920000000028">
        <ele>434.609</ele>
        <time>2022-08-25T07:50:36Z</time>
      </trkpt>
      <trkpt lat="42.78142900000001" lon="-1.6859840000000028">
        <ele>434.659</ele>
        <time>2022-08-25T07:50:37Z</time>
      </trkpt>
      <trkpt lat="42.78144400000001" lon="-1.6859770000000027">
        <ele>434.419</ele>
        <time>2022-08-25T07:50:38Z</time>
      </trkpt>
      <trkpt lat="42.78146800000001" lon="-1.6859590000000026">
        <ele>434.459</ele>
        <time>2022-08-25T07:50:39Z</time>
      </trkpt>
      <trkpt lat="42.78150400000001" lon="-1.6859130000000027">
        <ele>434.445</ele>
        <time>2022-08-25T07:50:42Z</time>
      </trkpt>
      <trkpt lat="42.78147700000001" lon="-1.6858940000000027">
        <ele>434.667</ele>
        <time>2022-08-25T07:50:43Z</time>
      </trkpt>
      <trkpt lat="42.78141700000001" lon="-1.6858360000000028">
        <ele>434.644</ele>
        <time>2022-08-25T07:50:45Z</time>
      </trkpt>
      <trkpt lat="42.781320000000015" lon="-1.6857330000000028">
        <ele>434.257</ele>
        <time>2022-08-25T07:50:48Z</time>
      </trkpt>
      <trkpt lat="42.78126500000001" lon="-1.6856730000000029">
        <ele>434.293</ele>
        <time>2022-08-25T07:50:50Z</time>
      </trkpt>
      <trkpt lat="42.781239000000014" lon="-1.6856520000000028">
        <ele>434.284</ele>
        <time>2022-08-25T07:50:51Z</time>
      </trkpt>
      <trkpt lat="42.78121500000001" lon="-1.6856450000000027">
        <ele>434.274</ele>
        <time>2022-08-25T07:50:52Z</time>
      </trkpt>
      <trkpt lat="42.78119100000001" lon="-1.6856580000000028">
        <ele>434.256</ele>
        <time>2022-08-25T07:50:53Z</time>
      </trkpt>
      <trkpt lat="42.781167" lon="-1.6856780000000027">
        <ele>434.021</ele>
        <time>2022-08-25T07:50:54Z</time>
      </trkpt>
      <trkpt lat="42.78110100000001" lon="-1.6857350000000026">
        <ele>433.809</ele>
        <time>2022-08-25T07:50:56Z</time>
      </trkpt>
      <trkpt lat="42.78107500000001" lon="-1.6857680000000026">
        <ele>433.888</ele>
        <time>2022-08-25T07:50:57Z</time>
      </trkpt>
      <trkpt lat="42.78096500000001" lon="-1.6859490000000026">
        <ele>433.618</ele>
        <time>2022-08-25T07:51:02Z</time>
      </trkpt>
      <trkpt lat="42.780896000000006" lon="-1.6861030000000026">
        <ele>433.858</ele>
        <time>2022-08-25T07:51:06Z</time>
      </trkpt>
      <trkpt lat="42.78088" lon="-1.6861420000000025">
        <ele>433.814</ele>
        <time>2022-08-25T07:51:07Z</time>
      </trkpt>
      <trkpt lat="42.780866" lon="-1.6861800000000025">
        <ele>433.836</ele>
        <time>2022-08-25T07:51:08Z</time>
      </trkpt>
      <trkpt lat="42.780851000000006" lon="-1.6862130000000024">
        <ele>434.013</ele>
        <time>2022-08-25T07:51:09Z</time>
      </trkpt>
      <trkpt lat="42.780838" lon="-1.6862410000000023">
        <ele>434.046</ele>
        <time>2022-08-25T07:51:10Z</time>
      </trkpt>
      <trkpt lat="42.780828" lon="-1.6862680000000023">
        <ele>434.092</ele>
        <time>2022-08-25T07:51:11Z</time>
      </trkpt>
      <trkpt lat="42.780805" lon="-1.6863760000000023">
        <ele>434.253</ele>
        <time>2022-08-25T07:51:14Z</time>
      </trkpt>
      <trkpt lat="42.780792" lon="-1.6864870000000023">
        <ele>434.456</ele>
        <time>2022-08-25T07:51:17Z</time>
      </trkpt>
      <trkpt lat="42.780747999999996" lon="-1.6865620000000023">
        <ele>434.459</ele>
        <time>2022-08-25T07:51:19Z</time>
      </trkpt>
      <trkpt lat="42.780722" lon="-1.6865810000000023">
        <ele>434.414</ele>
        <time>2022-08-25T07:51:20Z</time>
      </trkpt>
      <trkpt lat="42.780701" lon="-1.6865870000000023">
        <ele>434.409</ele>
        <time>2022-08-25T07:51:21Z</time>
      </trkpt>
      <trkpt lat="42.780642" lon="-1.6865580000000022">
        <ele>434.666</ele>
        <time>2022-08-25T07:51:23Z</time>
      </trkpt>
      <trkpt lat="42.780598" lon="-1.6865080000000021">
        <ele>434.876</ele>
        <time>2022-08-25T07:51:25Z</time>
      </trkpt>
      <trkpt lat="42.780581" lon="-1.686482000000002">
        <ele>434.856</ele>
        <time>2022-08-25T07:51:26Z</time>
      </trkpt>
      <trkpt lat="42.780529" lon="-1.686429000000002">
        <ele>435.052</ele>
        <time>2022-08-25T07:51:28Z</time>
      </trkpt>
      <trkpt lat="42.780445" lon="-1.6863870000000019">
        <ele>435.034</ele>
        <time>2022-08-25T07:51:31Z</time>
      </trkpt>
      <trkpt lat="42.7803" lon="-1.686311000000002">
        <ele>435.051</ele>
        <time>2022-08-25T07:51:35Z</time>
      </trkpt>
      <trkpt lat="42.780260999999996" lon="-1.686297000000002">
        <ele>435.254</ele>
        <time>2022-08-25T07:51:36Z</time>
      </trkpt>
      <trkpt lat="42.78021699999999" lon="-1.686280000000002">
        <ele>435.240</ele>
        <time>2022-08-25T07:51:37Z</time>
      </trkpt>
      <trkpt lat="42.780176999999995" lon="-1.686264000000002">
        <ele>435.261</ele>
        <time>2022-08-25T07:51:38Z</time>
      </trkpt>
      <trkpt lat="42.780139999999996" lon="-1.686251000000002">
        <ele>435.253</ele>
        <time>2022-08-25T07:51:39Z</time>
      </trkpt>
      <trkpt lat="42.780114" lon="-1.686240000000002">
        <ele>435.204</ele>
        <time>2022-08-25T07:51:40Z</time>
      </trkpt>
      <trkpt lat="42.780082" lon="-1.6862250000000019">
        <ele>435.214</ele>
        <time>2022-08-25T07:51:41Z</time>
      </trkpt>
      <trkpt lat="42.780007" lon="-1.686192000000002">
        <ele>435.209</ele>
        <time>2022-08-25T07:51:43Z</time>
      </trkpt>
      <trkpt lat="42.779948" lon="-1.686192000000002">
        <ele>435.416</ele>
        <time>2022-08-25T07:51:45Z</time>
      </trkpt>
      <trkpt lat="42.779914999999995" lon="-1.686215000000002">
        <ele>435.496</ele>
        <time>2022-08-25T07:51:46Z</time>
      </trkpt>
      <trkpt lat="42.779892999999994" lon="-1.686244000000002">
        <ele>435.486</ele>
        <time>2022-08-25T07:51:47Z</time>
      </trkpt>
      <trkpt lat="42.77987099999999" lon="-1.686272000000002">
        <ele>435.462</ele>
        <time>2022-08-25T07:51:48Z</time>
      </trkpt>
      <trkpt lat="42.779852999999996" lon="-1.686294000000002">
        <ele>435.654</ele>
        <time>2022-08-25T07:51:49Z</time>
      </trkpt>
      <trkpt lat="42.779762" lon="-1.686423000000002">
        <ele>435.821</ele>
        <time>2022-08-25T07:51:53Z</time>
      </trkpt>
      <trkpt lat="42.779699" lon="-1.686507000000002">
        <ele>436.234</ele>
        <time>2022-08-25T07:51:56Z</time>
      </trkpt>
      <trkpt lat="42.779629" lon="-1.6866350000000019">
        <ele>436.840</ele>
        <time>2022-08-25T07:52:00Z</time>
      </trkpt>
      <trkpt lat="42.779598" lon="-1.6866680000000018">
        <ele>437.051</ele>
        <time>2022-08-25T07:52:01Z</time>
      </trkpt>
      <trkpt lat="42.779572" lon="-1.686694000000002">
        <ele>437.028</ele>
        <time>2022-08-25T07:52:02Z</time>
      </trkpt>
      <trkpt lat="42.779549" lon="-1.6867190000000019">
        <ele>437.089</ele>
        <time>2022-08-25T07:52:03Z</time>
      </trkpt>
      <trkpt lat="42.779418" lon="-1.686888000000002">
        <ele>437.817</ele>
        <time>2022-08-25T07:52:09Z</time>
      </trkpt>
      <trkpt lat="42.779391" lon="-1.686922000000002">
        <ele>438.009</ele>
        <time>2022-08-25T07:52:10Z</time>
      </trkpt>
      <trkpt lat="42.779368999999996" lon="-1.686949000000002">
        <ele>438.023</ele>
        <time>2022-08-25T07:52:11Z</time>
      </trkpt>
      <trkpt lat="42.779346999999994" lon="-1.686976000000002">
        <ele>438.233</ele>
        <time>2022-08-25T07:52:12Z</time>
      </trkpt>
      <trkpt lat="42.779329999999995" lon="-1.686998000000002">
        <ele>438.243</ele>
        <time>2022-08-25T07:52:13Z</time>
      </trkpt>
      <trkpt lat="42.779309999999995" lon="-1.687027000000002">
        <ele>438.439</ele>
        <time>2022-08-25T07:52:14Z</time>
      </trkpt>
      <trkpt lat="42.779281" lon="-1.6870640000000021">
        <ele>438.411</ele>
        <time>2022-08-25T07:52:15Z</time>
      </trkpt>
      <trkpt lat="42.779258" lon="-1.6870900000000022">
        <ele>438.458</ele>
        <time>2022-08-25T07:52:16Z</time>
      </trkpt>
      <trkpt lat="42.779237" lon="-1.6871180000000021">
        <ele>438.691</ele>
        <time>2022-08-25T07:52:17Z</time>
      </trkpt>
      <trkpt lat="42.779221" lon="-1.687140000000002">
        <ele>439.057</ele>
        <time>2022-08-25T07:52:18Z</time>
      </trkpt>
      <trkpt lat="42.779196999999996" lon="-1.687168000000002">
        <ele>439.028</ele>
        <time>2022-08-25T07:52:19Z</time>
      </trkpt>
      <trkpt lat="42.779168999999996" lon="-1.687201000000002">
        <ele>439.226</ele>
        <time>2022-08-25T07:52:20Z</time>
      </trkpt>
      <trkpt lat="42.779146" lon="-1.6872290000000019">
        <ele>439.247</ele>
        <time>2022-08-25T07:52:21Z</time>
      </trkpt>
      <trkpt lat="42.779129" lon="-1.687250000000002">
        <ele>439.211</ele>
        <time>2022-08-25T07:52:22Z</time>
      </trkpt>
      <trkpt lat="42.779108" lon="-1.687276000000002">
        <ele>439.409</ele>
        <time>2022-08-25T07:52:23Z</time>
      </trkpt>
      <trkpt lat="42.779082" lon="-1.687309000000002">
        <ele>439.413</ele>
        <time>2022-08-25T07:52:24Z</time>
      </trkpt>
      <trkpt lat="42.779061000000006" lon="-1.687336000000002">
        <ele>439.623</ele>
        <time>2022-08-25T07:52:25Z</time>
      </trkpt>
      <trkpt lat="42.77903800000001" lon="-1.687366000000002">
        <ele>439.623</ele>
        <time>2022-08-25T07:52:26Z</time>
      </trkpt>
      <trkpt lat="42.77902100000001" lon="-1.687389000000002">
        <ele>439.699</ele>
        <time>2022-08-25T07:52:27Z</time>
      </trkpt>
      <trkpt lat="42.77900000000001" lon="-1.687415000000002">
        <ele>439.831</ele>
        <time>2022-08-25T07:52:28Z</time>
      </trkpt>
      <trkpt lat="42.77897100000001" lon="-1.687446000000002">
        <ele>439.898</ele>
        <time>2022-08-25T07:52:29Z</time>
      </trkpt>
      <trkpt lat="42.778948000000014" lon="-1.687470000000002">
        <ele>439.871</ele>
        <time>2022-08-25T07:52:30Z</time>
      </trkpt>
      <trkpt lat="42.77892400000001" lon="-1.687496000000002">
        <ele>440.037</ele>
        <time>2022-08-25T07:52:31Z</time>
      </trkpt>
      <trkpt lat="42.77890400000001" lon="-1.6875140000000022">
        <ele>440.028</ele>
        <time>2022-08-25T07:52:32Z</time>
      </trkpt>
      <trkpt lat="42.77888000000001" lon="-1.6875380000000022">
        <ele>440.067</ele>
        <time>2022-08-25T07:52:33Z</time>
      </trkpt>
      <trkpt lat="42.77885200000001" lon="-1.6875680000000022">
        <ele>440.281</ele>
        <time>2022-08-25T07:52:34Z</time>
      </trkpt>
      <trkpt lat="42.77883100000001" lon="-1.6875950000000022">
        <ele>440.219</ele>
        <time>2022-08-25T07:52:35Z</time>
      </trkpt>
      <trkpt lat="42.77880700000001" lon="-1.687623000000002">
        <ele>440.209</ele>
        <time>2022-08-25T07:52:36Z</time>
      </trkpt>
      <trkpt lat="42.77875800000001" lon="-1.6876790000000021">
        <ele>440.477</ele>
        <time>2022-08-25T07:52:38Z</time>
      </trkpt>
      <trkpt lat="42.77873500000001" lon="-1.6877030000000022">
        <ele>440.447</ele>
        <time>2022-08-25T07:52:39Z</time>
      </trkpt>
      <trkpt lat="42.77870800000001" lon="-1.6877260000000023">
        <ele>440.427</ele>
        <time>2022-08-25T07:52:40Z</time>
      </trkpt>
      <trkpt lat="42.77869100000001" lon="-1.6877440000000024">
        <ele>440.663</ele>
        <time>2022-08-25T07:52:41Z</time>
      </trkpt>
      <trkpt lat="42.77866900000001" lon="-1.6877650000000024">
        <ele>440.645</ele>
        <time>2022-08-25T07:52:42Z</time>
      </trkpt>
      <trkpt lat="42.77864000000001" lon="-1.6877930000000023">
        <ele>440.652</ele>
        <time>2022-08-25T07:52:43Z</time>
      </trkpt>
      <trkpt lat="42.77862000000001" lon="-1.6878210000000022">
        <ele>440.825</ele>
        <time>2022-08-25T07:52:44Z</time>
      </trkpt>
      <trkpt lat="42.77858200000001" lon="-1.6878720000000023">
        <ele>441.221</ele>
        <time>2022-08-25T07:52:46Z</time>
      </trkpt>
      <trkpt lat="42.77852300000001" lon="-1.6879530000000023">
        <ele>441.292</ele>
        <time>2022-08-25T07:52:49Z</time>
      </trkpt>
      <trkpt lat="42.77845500000001" lon="-1.6880300000000024">
        <ele>441.444</ele>
        <time>2022-08-25T07:52:52Z</time>
      </trkpt>
      <trkpt lat="42.77843000000001" lon="-1.6880570000000024">
        <ele>441.405</ele>
        <time>2022-08-25T07:52:53Z</time>
      </trkpt>
      <trkpt lat="42.77825200000001" lon="-1.6882420000000025">
        <ele>441.415</ele>
        <time>2022-08-25T07:53:00Z</time>
      </trkpt>
      <trkpt lat="42.778228000000006" lon="-1.6882660000000025">
        <ele>441.409</ele>
        <time>2022-08-25T07:53:01Z</time>
      </trkpt>
      <trkpt lat="42.778200000000005" lon="-1.6882950000000025">
        <ele>441.455</ele>
        <time>2022-08-25T07:53:02Z</time>
      </trkpt>
      <trkpt lat="42.77817700000001" lon="-1.6883190000000026">
        <ele>441.455</ele>
        <time>2022-08-25T07:53:03Z</time>
      </trkpt>
      <trkpt lat="42.77815400000001" lon="-1.6883440000000025">
        <ele>441.665</ele>
        <time>2022-08-25T07:53:04Z</time>
      </trkpt>
      <trkpt lat="42.77813600000001" lon="-1.6883650000000026">
        <ele>441.611</ele>
        <time>2022-08-25T07:53:05Z</time>
      </trkpt>
      <trkpt lat="42.77807100000001" lon="-1.6884650000000025">
        <ele>441.643</ele>
        <time>2022-08-25T07:53:08Z</time>
      </trkpt>
      <trkpt lat="42.77801000000001" lon="-1.6887150000000026">
        <ele>441.830</ele>
        <time>2022-08-25T07:53:14Z</time>
      </trkpt>
      <trkpt lat="42.77801300000001" lon="-1.6887680000000027">
        <ele>441.863</ele>
        <time>2022-08-25T07:53:15Z</time>
      </trkpt>
      <trkpt lat="42.778020000000005" lon="-1.6888310000000026">
        <ele>441.839</ele>
        <time>2022-08-25T07:53:16Z</time>
      </trkpt>
      <trkpt lat="42.77803600000001" lon="-1.6889370000000026">
        <ele>441.850</ele>
        <time>2022-08-25T07:53:18Z</time>
      </trkpt>
      <trkpt lat="42.77805300000001" lon="-1.6890400000000025">
        <ele>441.871</ele>
        <time>2022-08-25T07:53:20Z</time>
      </trkpt>
      <trkpt lat="42.77805500000001" lon="-1.6890900000000026">
        <ele>441.841</ele>
        <time>2022-08-25T07:53:21Z</time>
      </trkpt>
      <trkpt lat="42.778059000000006" lon="-1.6891400000000028">
        <ele>441.815</ele>
        <time>2022-08-25T07:53:22Z</time>
      </trkpt>
      <trkpt lat="42.778063" lon="-1.6891790000000027">
        <ele>441.609</ele>
        <time>2022-08-25T07:53:23Z</time>
      </trkpt>
      <trkpt lat="42.778069" lon="-1.6892270000000027">
        <ele>441.658</ele>
        <time>2022-08-25T07:53:24Z</time>
      </trkpt>
      <trkpt lat="42.778078" lon="-1.6892830000000028">
        <ele>441.688</ele>
        <time>2022-08-25T07:53:25Z</time>
      </trkpt>
      <trkpt lat="42.778087" lon="-1.6893290000000027">
        <ele>441.618</ele>
        <time>2022-08-25T07:53:26Z</time>
      </trkpt>
      <trkpt lat="42.778093999999996" lon="-1.6893750000000027">
        <ele>441.664</ele>
        <time>2022-08-25T07:53:27Z</time>
      </trkpt>
      <trkpt lat="42.778099999999995" lon="-1.6894110000000027">
        <ele>441.486</ele>
        <time>2022-08-25T07:53:28Z</time>
      </trkpt>
      <trkpt lat="42.77810899999999" lon="-1.6894530000000028">
        <ele>441.463</ele>
        <time>2022-08-25T07:53:29Z</time>
      </trkpt>
      <trkpt lat="42.77811799999999" lon="-1.6894980000000028">
        <ele>441.416</ele>
        <time>2022-08-25T07:53:30Z</time>
      </trkpt>
      <trkpt lat="42.77812199999999" lon="-1.6895290000000027">
        <ele>441.262</ele>
        <time>2022-08-25T07:53:31Z</time>
      </trkpt>
      <trkpt lat="42.77812399999999" lon="-1.6895530000000027">
        <ele>441.233</ele>
        <time>2022-08-25T07:53:32Z</time>
      </trkpt>
      <trkpt lat="42.77812699999999" lon="-1.6895830000000027">
        <ele>441.269</ele>
        <time>2022-08-25T07:53:33Z</time>
      </trkpt>
      <trkpt lat="42.77812999999999" lon="-1.6896210000000027">
        <ele>441.204</ele>
        <time>2022-08-25T07:53:34Z</time>
      </trkpt>
      <trkpt lat="42.77813199999999" lon="-1.6897980000000028">
        <ele>441.224</ele>
        <time>2022-08-25T07:53:39Z</time>
      </trkpt>
      <trkpt lat="42.77811299999999" lon="-1.6898270000000029">
        <ele>441.209</ele>
        <time>2022-08-25T07:53:40Z</time>
      </trkpt>
      <trkpt lat="42.77803699999999" lon="-1.6898760000000028">
        <ele>441.297</ele>
        <time>2022-08-25T07:53:43Z</time>
      </trkpt>
      <trkpt lat="42.77800099999999" lon="-1.6898930000000028">
        <ele>441.427</ele>
        <time>2022-08-25T07:53:44Z</time>
      </trkpt>
      <trkpt lat="42.77794399999999" lon="-1.6899180000000027">
        <ele>441.667</ele>
        <time>2022-08-25T07:53:46Z</time>
      </trkpt>
      <trkpt lat="42.77787599999999" lon="-1.6899610000000027">
        <ele>441.683</ele>
        <time>2022-08-25T07:53:48Z</time>
      </trkpt>
      <trkpt lat="42.777815999999994" lon="-1.6899950000000028">
        <ele>441.455</ele>
        <time>2022-08-25T07:53:50Z</time>
      </trkpt>
      <trkpt lat="42.77779199999999" lon="-1.6900060000000028">
        <ele>441.662</ele>
        <time>2022-08-25T07:53:51Z</time>
      </trkpt>
      <trkpt lat="42.77776199999999" lon="-1.6900180000000027">
        <ele>441.615</ele>
        <time>2022-08-25T07:53:52Z</time>
      </trkpt>
      <trkpt lat="42.77773299999999" lon="-1.6900300000000026">
        <ele>441.871</ele>
        <time>2022-08-25T07:53:53Z</time>
      </trkpt>
      <trkpt lat="42.77761099999999" lon="-1.6900970000000026">
        <ele>441.872</ele>
        <time>2022-08-25T07:53:57Z</time>
      </trkpt>
      <trkpt lat="42.777544999999996" lon="-1.6901310000000027">
        <ele>441.842</ele>
        <time>2022-08-25T07:53:59Z</time>
      </trkpt>
      <trkpt lat="42.777452999999994" lon="-1.6901740000000027">
        <ele>442.222</ele>
        <time>2022-08-25T07:54:02Z</time>
      </trkpt>
      <trkpt lat="42.77742299999999" lon="-1.6901910000000027">
        <ele>442.214</ele>
        <time>2022-08-25T07:54:03Z</time>
      </trkpt>
      <trkpt lat="42.77739299999999" lon="-1.6902060000000028">
        <ele>442.209</ele>
        <time>2022-08-25T07:54:04Z</time>
      </trkpt>
      <trkpt lat="42.77737099999999" lon="-1.6902170000000027">
        <ele>442.295</ele>
        <time>2022-08-25T07:54:05Z</time>
      </trkpt>
      <trkpt lat="42.77734499999999" lon="-1.6902310000000027">
        <ele>442.475</ele>
        <time>2022-08-25T07:54:06Z</time>
      </trkpt>
      <trkpt lat="42.77731699999999" lon="-1.6902460000000028">
        <ele>442.665</ele>
        <time>2022-08-25T07:54:07Z</time>
      </trkpt>
      <trkpt lat="42.77728499999999" lon="-1.6902650000000028">
        <ele>442.671</ele>
        <time>2022-08-25T07:54:08Z</time>
      </trkpt>
      <trkpt lat="42.77725999999999" lon="-1.690280000000003">
        <ele>442.823</ele>
        <time>2022-08-25T07:54:09Z</time>
      </trkpt>
      <trkpt lat="42.777238999999994" lon="-1.6902910000000029">
        <ele>442.820</ele>
        <time>2022-08-25T07:54:10Z</time>
      </trkpt>
      <trkpt lat="42.77721199999999" lon="-1.6903050000000028">
        <ele>443.083</ele>
        <time>2022-08-25T07:54:11Z</time>
      </trkpt>
      <trkpt lat="42.77705799999999" lon="-1.6903790000000027">
        <ele>443.269</ele>
        <time>2022-08-25T07:54:16Z</time>
      </trkpt>
      <trkpt lat="42.77703299999999" lon="-1.6903910000000026">
        <ele>443.270</ele>
        <time>2022-08-25T07:54:17Z</time>
      </trkpt>
      <trkpt lat="42.77693699999999" lon="-1.6904380000000025">
        <ele>443.688</ele>
        <time>2022-08-25T07:54:20Z</time>
      </trkpt>
      <trkpt lat="42.77684299999999" lon="-1.6904820000000025">
        <ele>444.024</ele>
        <time>2022-08-25T07:54:23Z</time>
      </trkpt>
      <trkpt lat="42.77681199999999" lon="-1.6904990000000024">
        <ele>444.226</ele>
        <time>2022-08-25T07:54:24Z</time>
      </trkpt>
      <trkpt lat="42.77674199999999" lon="-1.6905330000000025">
        <ele>444.409</ele>
        <time>2022-08-25T07:54:26Z</time>
      </trkpt>
      <trkpt lat="42.77671199999999" lon="-1.6905470000000025">
        <ele>444.479</ele>
        <time>2022-08-25T07:54:27Z</time>
      </trkpt>
      <trkpt lat="42.77668099999999" lon="-1.6905610000000024">
        <ele>444.689</ele>
        <time>2022-08-25T07:54:28Z</time>
      </trkpt>
      <trkpt lat="42.77645299999999" lon="-1.6906620000000023">
        <ele>445.259</ele>
        <time>2022-08-25T07:54:35Z</time>
      </trkpt>
      <trkpt lat="42.77642099999999" lon="-1.6906780000000023">
        <ele>445.425</ele>
        <time>2022-08-25T07:54:36Z</time>
      </trkpt>
      <trkpt lat="42.77638499999999" lon="-1.6906980000000023">
        <ele>445.657</ele>
        <time>2022-08-25T07:54:37Z</time>
      </trkpt>
      <trkpt lat="42.77636099999999" lon="-1.6907120000000022">
        <ele>445.684</ele>
        <time>2022-08-25T07:54:38Z</time>
      </trkpt>
      <trkpt lat="42.776260999999984" lon="-1.6907680000000023">
        <ele>446.027</ele>
        <time>2022-08-25T07:54:41Z</time>
      </trkpt>
      <trkpt lat="42.776229999999984" lon="-1.6907850000000022">
        <ele>446.073</ele>
        <time>2022-08-25T07:54:42Z</time>
      </trkpt>
      <trkpt lat="42.77620499999998" lon="-1.6907980000000022">
        <ele>446.274</ele>
        <time>2022-08-25T07:54:43Z</time>
      </trkpt>
      <trkpt lat="42.77617499999998" lon="-1.6908150000000022">
        <ele>446.216</ele>
        <time>2022-08-25T07:54:44Z</time>
      </trkpt>
      <trkpt lat="42.77614699999998" lon="-1.6908290000000021">
        <ele>446.476</ele>
        <time>2022-08-25T07:54:45Z</time>
      </trkpt>
      <trkpt lat="42.77611699999998" lon="-1.690843000000002">
        <ele>446.613</ele>
        <time>2022-08-25T07:54:46Z</time>
      </trkpt>
      <trkpt lat="42.77609699999998" lon="-1.6908500000000022">
        <ele>446.809</ele>
        <time>2022-08-25T07:54:47Z</time>
      </trkpt>
      <trkpt lat="42.77607099999998" lon="-1.6908610000000022">
        <ele>446.842</ele>
        <time>2022-08-25T07:54:48Z</time>
      </trkpt>
      <trkpt lat="42.77604399999998" lon="-1.6908740000000022">
        <ele>447.062</ele>
        <time>2022-08-25T07:54:49Z</time>
      </trkpt>
      <trkpt lat="42.77602099999998" lon="-1.6908840000000023">
        <ele>447.252</ele>
        <time>2022-08-25T07:54:50Z</time>
      </trkpt>
      <trkpt lat="42.77599799999998" lon="-1.6908950000000023">
        <ele>447.228</ele>
        <time>2022-08-25T07:54:51Z</time>
      </trkpt>
      <trkpt lat="42.77598099999998" lon="-1.6909030000000023">
        <ele>447.460</ele>
        <time>2022-08-25T07:54:52Z</time>
      </trkpt>
      <trkpt lat="42.77595899999998" lon="-1.6909120000000022">
        <ele>447.637</ele>
        <time>2022-08-25T07:54:53Z</time>
      </trkpt>
      <trkpt lat="42.77593399999998" lon="-1.6909220000000023">
        <ele>447.670</ele>
        <time>2022-08-25T07:54:54Z</time>
      </trkpt>
      <trkpt lat="42.77591299999998" lon="-1.6909340000000022">
        <ele>448.046</ele>
        <time>2022-08-25T07:54:55Z</time>
      </trkpt>
      <trkpt lat="42.77588999999998" lon="-1.6909500000000022">
        <ele>448.087</ele>
        <time>2022-08-25T07:54:56Z</time>
      </trkpt>
      <trkpt lat="42.775874999999985" lon="-1.690962000000002">
        <ele>448.215</ele>
        <time>2022-08-25T07:54:57Z</time>
      </trkpt>
      <trkpt lat="42.77585699999999" lon="-1.690978000000002">
        <ele>448.265</ele>
        <time>2022-08-25T07:54:58Z</time>
      </trkpt>
      <trkpt lat="42.77583699999999" lon="-1.690992000000002">
        <ele>448.611</ele>
        <time>2022-08-25T07:54:59Z</time>
      </trkpt>
      <trkpt lat="42.775820999999986" lon="-1.690996000000002">
        <ele>448.809</ele>
        <time>2022-08-25T07:55:00Z</time>
      </trkpt>
      <trkpt lat="42.77580599999999" lon="-1.690999000000002">
        <ele>449.232</ele>
        <time>2022-08-25T07:55:01Z</time>
      </trkpt>
      <trkpt lat="42.775789999999986" lon="-1.6910050000000019">
        <ele>449.412</ele>
        <time>2022-08-25T07:55:02Z</time>
      </trkpt>
      <trkpt lat="42.77577199999999" lon="-1.6910160000000019">
        <ele>449.652</ele>
        <time>2022-08-25T07:55:03Z</time>
      </trkpt>
      <trkpt lat="42.77574099999999" lon="-1.6910280000000018">
        <ele>449.848</ele>
        <time>2022-08-25T07:55:04Z</time>
      </trkpt>
      <trkpt lat="42.77574099999999" lon="-1.6910280000000018">
        <ele>449.830</ele>
        <time>2022-08-25T07:55:05Z</time>
      </trkpt>
      <trkpt lat="42.77572999999999" lon="-1.6910310000000017">
        <ele>450.087</ele>
        <time>2022-08-25T07:55:06Z</time>
      </trkpt>
      <trkpt lat="42.77571599999999" lon="-1.6910340000000017">
        <ele>450.080</ele>
        <time>2022-08-25T07:55:07Z</time>
      </trkpt>
      <trkpt lat="42.775699999999986" lon="-1.6910380000000016">
        <ele>450.276</ele>
        <time>2022-08-25T07:55:08Z</time>
      </trkpt>
      <trkpt lat="42.775686999999984" lon="-1.6910430000000016">
        <ele>450.457</ele>
        <time>2022-08-25T07:55:09Z</time>
      </trkpt>
      <trkpt lat="42.77567299999998" lon="-1.6910500000000017">
        <ele>450.448</ele>
        <time>2022-08-25T07:55:10Z</time>
      </trkpt>
      <trkpt lat="42.77566199999998" lon="-1.6910580000000017">
        <ele>450.861</ele>
        <time>2022-08-25T07:55:11Z</time>
      </trkpt>
      <trkpt lat="42.77563099999998" lon="-1.6910700000000016">
        <ele>451.017</ele>
        <time>2022-08-25T07:55:12Z</time>
      </trkpt>
      <trkpt lat="42.77561799999998" lon="-1.6910760000000016">
        <ele>451.409</ele>
        <time>2022-08-25T07:55:13Z</time>
      </trkpt>
      <trkpt lat="42.77561799999998" lon="-1.6910760000000016">
        <ele>451.685</ele>
        <time>2022-08-25T07:55:14Z</time>
      </trkpt>
      <trkpt lat="42.77560799999998" lon="-1.6910820000000015">
        <ele>451.825</ele>
        <time>2022-08-25T07:55:15Z</time>
      </trkpt>
      <trkpt lat="42.775594999999974" lon="-1.6910900000000015">
        <ele>452.245</ele>
        <time>2022-08-25T07:55:16Z</time>
      </trkpt>
      <trkpt lat="42.77557999999998" lon="-1.6910980000000015">
        <ele>452.431</ele>
        <time>2022-08-25T07:55:17Z</time>
      </trkpt>
      <trkpt lat="42.77556999999997" lon="-1.6911010000000015">
        <ele>452.643</ele>
        <time>2022-08-25T07:55:18Z</time>
      </trkpt>
      <trkpt lat="42.775552999999974" lon="-1.6911090000000015">
        <ele>452.690</ele>
        <time>2022-08-25T07:55:19Z</time>
      </trkpt>
      <trkpt lat="42.775529999999975" lon="-1.6911180000000015">
        <ele>453.013</ele>
        <time>2022-08-25T07:55:20Z</time>
      </trkpt>
      <trkpt lat="42.77551699999997" lon="-1.6911280000000015">
        <ele>453.239</ele>
        <time>2022-08-25T07:55:21Z</time>
      </trkpt>
      <trkpt lat="42.77551699999997" lon="-1.6911280000000015">
        <ele>453.680</ele>
        <time>2022-08-25T07:55:22Z</time>
      </trkpt>
      <trkpt lat="42.77549399999997" lon="-1.6911450000000015">
        <ele>453.887</ele>
        <time>2022-08-25T07:55:23Z</time>
      </trkpt>
      <trkpt lat="42.77548299999997" lon="-1.6911480000000014">
        <ele>454.042</ele>
        <time>2022-08-25T07:55:24Z</time>
      </trkpt>
      <trkpt lat="42.77548299999997" lon="-1.6911480000000014">
        <ele>454.226</ele>
        <time>2022-08-25T07:55:25Z</time>
      </trkpt>
      <trkpt lat="42.77545899999997" lon="-1.6911560000000014">
        <ele>454.409</ele>
        <time>2022-08-25T07:55:26Z</time>
      </trkpt>
      <trkpt lat="42.77544799999997" lon="-1.6911660000000015">
        <ele>454.619</ele>
        <time>2022-08-25T07:55:27Z</time>
      </trkpt>
      <trkpt lat="42.77544799999997" lon="-1.6911660000000015">
        <ele>454.869</ele>
        <time>2022-08-25T07:55:28Z</time>
      </trkpt>
      <trkpt lat="42.77543399999997" lon="-1.6911860000000014">
        <ele>455.239</ele>
        <time>2022-08-25T07:55:29Z</time>
      </trkpt>
      <trkpt lat="42.77542699999997" lon="-1.6912010000000015">
        <ele>455.685</ele>
        <time>2022-08-25T07:55:30Z</time>
      </trkpt>
      <trkpt lat="42.77542199999997" lon="-1.6912160000000016">
        <ele>455.857</ele>
        <time>2022-08-25T07:55:31Z</time>
      </trkpt>
      <trkpt lat="42.77542199999997" lon="-1.6912160000000016">
        <ele>456.044</ele>
        <time>2022-08-25T07:55:32Z</time>
      </trkpt>
      <trkpt lat="42.77541099999997" lon="-1.6912450000000017">
        <ele>456.477</ele>
        <time>2022-08-25T07:55:33Z</time>
      </trkpt>
      <trkpt lat="42.77539999999997" lon="-1.6912580000000017">
        <ele>456.673</ele>
        <time>2022-08-25T07:55:34Z</time>
      </trkpt>
      <trkpt lat="42.77538599999997" lon="-1.6912710000000017">
        <ele>456.834</ele>
        <time>2022-08-25T07:55:35Z</time>
      </trkpt>
      <trkpt lat="42.77537099999997" lon="-1.6912860000000018">
        <ele>456.863</ele>
        <time>2022-08-25T07:55:36Z</time>
      </trkpt>
      <trkpt lat="42.77536299999997" lon="-1.6913030000000018">
        <ele>457.044</ele>
        <time>2022-08-25T07:55:37Z</time>
      </trkpt>
      <trkpt lat="42.77535699999997" lon="-1.6913140000000018">
        <ele>457.218</ele>
        <time>2022-08-25T07:55:38Z</time>
      </trkpt>
      <trkpt lat="42.77535699999997" lon="-1.6913140000000018">
        <ele>457.209</ele>
        <time>2022-08-25T07:55:39Z</time>
      </trkpt>
      <trkpt lat="42.77534899999997" lon="-1.6913250000000017">
        <ele>457.457</ele>
        <time>2022-08-25T07:55:40Z</time>
      </trkpt>
      <trkpt lat="42.77532199999997" lon="-1.6913450000000017">
        <ele>457.457</ele>
        <time>2022-08-25T07:55:41Z</time>
      </trkpt>
      <trkpt lat="42.77531099999997" lon="-1.6913520000000017">
        <ele>457.437</ele>
        <time>2022-08-25T07:55:42Z</time>
      </trkpt>
      <trkpt lat="42.77530099999996" lon="-1.6913620000000018">
        <ele>457.453</ele>
        <time>2022-08-25T07:55:43Z</time>
      </trkpt>
      <trkpt lat="42.77529099999996" lon="-1.6913740000000017">
        <ele>457.685</ele>
        <time>2022-08-25T07:55:44Z</time>
      </trkpt>
      <trkpt lat="42.77528299999996" lon="-1.6913850000000017">
        <ele>457.662</ele>
        <time>2022-08-25T07:55:45Z</time>
      </trkpt>
      <trkpt lat="42.77526899999996" lon="-1.6913970000000016">
        <ele>457.635</ele>
        <time>2022-08-25T07:55:46Z</time>
      </trkpt>
      <trkpt lat="42.77525999999996" lon="-1.6914040000000017">
        <ele>457.651</ele>
        <time>2022-08-25T07:55:47Z</time>
      </trkpt>
      <trkpt lat="42.77524799999996" lon="-1.6914090000000017">
        <ele>457.672</ele>
        <time>2022-08-25T07:55:48Z</time>
      </trkpt>
      <trkpt lat="42.77523399999996" lon="-1.6914140000000017">
        <ele>457.626</ele>
        <time>2022-08-25T07:55:49Z</time>
      </trkpt>
      <trkpt lat="42.77523399999996" lon="-1.6914140000000017">
        <ele>457.847</ele>
        <time>2022-08-25T07:55:50Z</time>
      </trkpt>
      <trkpt lat="42.77520599999996" lon="-1.6914300000000018">
        <ele>458.011</ele>
        <time>2022-08-25T07:55:51Z</time>
      </trkpt>
      <trkpt lat="42.77519599999996" lon="-1.6914380000000018">
        <ele>458.009</ele>
        <time>2022-08-25T07:55:52Z</time>
      </trkpt>
      <trkpt lat="42.77519599999996" lon="-1.6914380000000018">
        <ele>458.283</ele>
        <time>2022-08-25T07:55:53Z</time>
      </trkpt>
      <trkpt lat="42.77516799999996" lon="-1.6914610000000019">
        <ele>458.443</ele>
        <time>2022-08-25T07:55:54Z</time>
      </trkpt>
      <trkpt lat="42.77514999999996" lon="-1.691471000000002">
        <ele>458.483</ele>
        <time>2022-08-25T07:55:55Z</time>
      </trkpt>
      <trkpt lat="42.77513299999996" lon="-1.691481000000002">
        <ele>458.479</ele>
        <time>2022-08-25T07:55:56Z</time>
      </trkpt>
      <trkpt lat="42.77512199999996" lon="-1.691491000000002">
        <ele>458.471</ele>
        <time>2022-08-25T07:55:57Z</time>
      </trkpt>
      <trkpt lat="42.77510299999996" lon="-1.691503000000002">
        <ele>458.448</ele>
        <time>2022-08-25T07:55:58Z</time>
      </trkpt>
      <trkpt lat="42.77508899999996" lon="-1.6915150000000019">
        <ele>458.421</ele>
        <time>2022-08-25T07:55:59Z</time>
      </trkpt>
      <trkpt lat="42.77508899999996" lon="-1.6915150000000019">
        <ele>458.627</ele>
        <time>2022-08-25T07:56:00Z</time>
      </trkpt>
      <trkpt lat="42.77505199999996" lon="-1.6915460000000018">
        <ele>458.658</ele>
        <time>2022-08-25T07:56:01Z</time>
      </trkpt>
      <trkpt lat="42.77503499999996" lon="-1.6915630000000017">
        <ele>458.672</ele>
        <time>2022-08-25T07:56:02Z</time>
      </trkpt>
      <trkpt lat="42.77503499999996" lon="-1.6915630000000017">
        <ele>458.613</ele>
        <time>2022-08-25T07:56:03Z</time>
      </trkpt>
      <trkpt lat="42.77498699999996" lon="-1.6916160000000018">
        <ele>458.614</ele>
        <time>2022-08-25T07:56:05Z</time>
      </trkpt>
      <trkpt lat="42.77488799999996" lon="-1.6917450000000018">
        <ele>459.009</ele>
        <time>2022-08-25T07:56:11Z</time>
      </trkpt>
      <trkpt lat="42.77479999999996" lon="-1.691868000000002">
        <ele>459.448</ele>
        <time>2022-08-25T07:56:16Z</time>
      </trkpt>
      <trkpt lat="42.77479999999996" lon="-1.691868000000002">
        <ele>459.488</ele>
        <time>2022-08-25T07:56:17Z</time>
      </trkpt>
      <trkpt lat="42.77477499999996" lon="-1.691910000000002">
        <ele>459.468</ele>
        <time>2022-08-25T07:56:18Z</time>
      </trkpt>
      <trkpt lat="42.77477499999996" lon="-1.691910000000002">
        <ele>459.424</ele>
        <time>2022-08-25T07:56:19Z</time>
      </trkpt>
      <trkpt lat="42.77474399999996" lon="-1.6919520000000021">
        <ele>459.476</ele>
        <time>2022-08-25T07:56:20Z</time>
      </trkpt>
      <trkpt lat="42.77474399999996" lon="-1.6919520000000021">
        <ele>459.243</ele>
        <time>2022-08-25T07:56:21Z</time>
      </trkpt>
      <trkpt lat="42.77470499999996" lon="-1.692018000000002">
        <ele>459.686</ele>
        <time>2022-08-25T07:56:23Z</time>
      </trkpt>
      <trkpt lat="42.77469199999996" lon="-1.692039000000002">
        <ele>459.632</ele>
        <time>2022-08-25T07:56:24Z</time>
      </trkpt>
      <trkpt lat="42.77466099999996" lon="-1.6920730000000022">
        <ele>459.863</ele>
        <time>2022-08-25T07:56:26Z</time>
      </trkpt>
      <trkpt lat="42.77464099999996" lon="-1.6920970000000022">
        <ele>459.847</ele>
        <time>2022-08-25T07:56:28Z</time>
      </trkpt>
      <trkpt lat="42.77460799999996" lon="-1.6921290000000022">
        <ele>459.829</ele>
        <time>2022-08-25T07:56:29Z</time>
      </trkpt>
      <trkpt lat="42.774597999999955" lon="-1.6921420000000023">
        <ele>460.221</ele>
        <time>2022-08-25T07:56:30Z</time>
      </trkpt>
      <trkpt lat="42.774597999999955" lon="-1.6921420000000023">
        <ele>460.609</ele>
        <time>2022-08-25T07:56:31Z</time>
      </trkpt>
      <trkpt lat="42.77457099999995" lon="-1.6921690000000023">
        <ele>460.855</ele>
        <time>2022-08-25T07:56:32Z</time>
      </trkpt>
      <trkpt lat="42.774558999999954" lon="-1.6921780000000022">
        <ele>461.015</ele>
        <time>2022-08-25T07:56:33Z</time>
      </trkpt>
      <trkpt lat="42.774546999999956" lon="-1.6921910000000022">
        <ele>461.045</ele>
        <time>2022-08-25T07:56:34Z</time>
      </trkpt>
      <trkpt lat="42.774515999999956" lon="-1.6922250000000023">
        <ele>461.081</ele>
        <time>2022-08-25T07:56:36Z</time>
      </trkpt>
      <trkpt lat="42.77444099999995" lon="-1.6922970000000024">
        <ele>461.263</ele>
        <time>2022-08-25T07:56:40Z</time>
      </trkpt>
      <trkpt lat="42.77434299999995" lon="-1.6923770000000025">
        <ele>461.220</ele>
        <time>2022-08-25T07:56:45Z</time>
      </trkpt>
      <trkpt lat="42.77430999999995" lon="-1.6924300000000025">
        <ele>461.263</ele>
        <time>2022-08-25T07:56:47Z</time>
      </trkpt>
      <trkpt lat="42.77429299999995" lon="-1.6924540000000026">
        <ele>461.249</ele>
        <time>2022-08-25T07:56:48Z</time>
      </trkpt>
      <trkpt lat="42.77424699999995" lon="-1.6925270000000026">
        <ele>461.430</ele>
        <time>2022-08-25T07:56:51Z</time>
      </trkpt>
      <trkpt lat="42.774217999999955" lon="-1.6925740000000025">
        <ele>461.256</ele>
        <time>2022-08-25T07:56:53Z</time>
      </trkpt>
      <trkpt lat="42.77420599999996" lon="-1.6925920000000025">
        <ele>461.459</ele>
        <time>2022-08-25T07:56:55Z</time>
      </trkpt>
      <trkpt lat="42.774158999999955" lon="-1.6926580000000024">
        <ele>461.614</ele>
        <time>2022-08-25T07:56:57Z</time>
      </trkpt>
      <trkpt lat="42.774144999999955" lon="-1.6926790000000025">
        <ele>462.009</ele>
        <time>2022-08-25T07:56:58Z</time>
      </trkpt>
      <trkpt lat="42.77406499999996" lon="-1.6927870000000025">
        <ele>462.646</ele>
        <time>2022-08-25T07:57:03Z</time>
      </trkpt>
      <trkpt lat="42.77404999999996" lon="-1.6928060000000025">
        <ele>462.656</ele>
        <time>2022-08-25T07:57:04Z</time>
      </trkpt>
      <trkpt lat="42.77403199999996" lon="-1.6928280000000024">
        <ele>462.436</ele>
        <time>2022-08-25T07:57:05Z</time>
      </trkpt>
      <trkpt lat="42.774016999999965" lon="-1.6928480000000024">
        <ele>462.682</ele>
        <time>2022-08-25T07:57:06Z</time>
      </trkpt>
      <trkpt lat="42.77398799999997" lon="-1.6928820000000024">
        <ele>462.854</ele>
        <time>2022-08-25T07:57:08Z</time>
      </trkpt>
      <trkpt lat="42.77398799999997" lon="-1.6928820000000024">
        <ele>462.831</ele>
        <time>2022-08-25T07:57:09Z</time>
      </trkpt>
      <trkpt lat="42.77382999999997" lon="-1.6930730000000025">
        <ele>463.264</ele>
        <time>2022-08-25T07:57:16Z</time>
      </trkpt>
      <trkpt lat="42.773813999999966" lon="-1.6930930000000024">
        <ele>463.490</ele>
        <time>2022-08-25T07:57:17Z</time>
      </trkpt>
      <trkpt lat="42.77379399999997" lon="-1.6931160000000025">
        <ele>463.661</ele>
        <time>2022-08-25T07:57:18Z</time>
      </trkpt>
      <trkpt lat="42.773751999999966" lon="-1.6931680000000024">
        <ele>463.865</ele>
        <time>2022-08-25T07:57:20Z</time>
      </trkpt>
      <trkpt lat="42.773715999999965" lon="-1.6932170000000024">
        <ele>464.068</ele>
        <time>2022-08-25T07:57:23Z</time>
      </trkpt>
      <trkpt lat="42.77367999999996" lon="-1.6932650000000025">
        <ele>464.214</ele>
        <time>2022-08-25T07:57:24Z</time>
      </trkpt>
      <trkpt lat="42.773662999999964" lon="-1.6932880000000026">
        <ele>464.409</ele>
        <time>2022-08-25T07:57:25Z</time>
      </trkpt>
      <trkpt lat="42.773647999999966" lon="-1.6933140000000027">
        <ele>464.447</ele>
        <time>2022-08-25T07:57:26Z</time>
      </trkpt>
      <trkpt lat="42.77363299999997" lon="-1.6933320000000027">
        <ele>464.437</ele>
        <time>2022-08-25T07:57:27Z</time>
      </trkpt>
      <trkpt lat="42.77359899999997" lon="-1.6933870000000026">
        <ele>464.627</ele>
        <time>2022-08-25T07:57:29Z</time>
      </trkpt>
      <trkpt lat="42.77358499999997" lon="-1.6934110000000027">
        <ele>464.623</ele>
        <time>2022-08-25T07:57:30Z</time>
      </trkpt>
      <trkpt lat="42.77356799999997" lon="-1.6934340000000028">
        <ele>464.875</ele>
        <time>2022-08-25T07:57:31Z</time>
      </trkpt>
      <trkpt lat="42.77345599999997" lon="-1.6935720000000027">
        <ele>465.612</ele>
        <time>2022-08-25T07:57:37Z</time>
      </trkpt>
      <trkpt lat="42.77345599999997" lon="-1.6935720000000027">
        <ele>465.895</ele>
        <time>2022-08-25T07:57:38Z</time>
      </trkpt>
      <trkpt lat="42.773411999999965" lon="-1.6936230000000028">
        <ele>465.861</ele>
        <time>2022-08-25T07:57:39Z</time>
      </trkpt>
      <trkpt lat="42.77339399999997" lon="-1.6936480000000027">
        <ele>465.892</ele>
        <time>2022-08-25T07:57:40Z</time>
      </trkpt>
      <trkpt lat="42.77339399999997" lon="-1.6936480000000027">
        <ele>465.878</ele>
        <time>2022-08-25T07:57:41Z</time>
      </trkpt>
      <trkpt lat="42.773363999999965" lon="-1.6936900000000028">
        <ele>465.833</ele>
        <time>2022-08-25T07:57:42Z</time>
      </trkpt>
      <trkpt lat="42.773341999999964" lon="-1.6937110000000029">
        <ele>466.026</ele>
        <time>2022-08-25T07:57:43Z</time>
      </trkpt>
      <trkpt lat="42.773327999999964" lon="-1.6937270000000029">
        <ele>466.209</ele>
        <time>2022-08-25T07:57:44Z</time>
      </trkpt>
      <trkpt lat="42.77331199999996" lon="-1.6937470000000028">
        <ele>466.438</ele>
        <time>2022-08-25T07:57:45Z</time>
      </trkpt>
      <trkpt lat="42.773293999999964" lon="-1.6937660000000028">
        <ele>466.888</ele>
        <time>2022-08-25T07:57:46Z</time>
      </trkpt>
      <trkpt lat="42.77327599999997" lon="-1.6937860000000027">
        <ele>466.878</ele>
        <time>2022-08-25T07:57:47Z</time>
      </trkpt>
      <trkpt lat="42.77325899999997" lon="-1.6938040000000028">
        <ele>467.014</ele>
        <time>2022-08-25T07:57:48Z</time>
      </trkpt>
      <trkpt lat="42.773239999999966" lon="-1.6938230000000027">
        <ele>467.036</ele>
        <time>2022-08-25T07:57:49Z</time>
      </trkpt>
      <trkpt lat="42.773220999999964" lon="-1.6938370000000027">
        <ele>467.073</ele>
        <time>2022-08-25T07:57:50Z</time>
      </trkpt>
      <trkpt lat="42.77320299999997" lon="-1.6938520000000028">
        <ele>467.256</ele>
        <time>2022-08-25T07:57:51Z</time>
      </trkpt>
      <trkpt lat="42.77320299999997" lon="-1.6938520000000028">
        <ele>467.462</ele>
        <time>2022-08-25T07:57:52Z</time>
      </trkpt>
      <trkpt lat="42.77316299999997" lon="-1.6938850000000027">
        <ele>467.633</ele>
        <time>2022-08-25T07:57:53Z</time>
      </trkpt>
      <trkpt lat="42.77314599999997" lon="-1.6938970000000027">
        <ele>467.867</ele>
        <time>2022-08-25T07:57:54Z</time>
      </trkpt>
      <trkpt lat="42.77312699999997" lon="-1.6939100000000027">
        <ele>467.881</ele>
        <time>2022-08-25T07:57:55Z</time>
      </trkpt>
      <trkpt lat="42.77310599999997" lon="-1.6939260000000027">
        <ele>468.019</ele>
        <time>2022-08-25T07:57:56Z</time>
      </trkpt>
      <trkpt lat="42.77310599999997" lon="-1.6939260000000027">
        <ele>468.409</ele>
        <time>2022-08-25T07:57:57Z</time>
      </trkpt>
      <trkpt lat="42.77306499999997" lon="-1.6939540000000026">
        <ele>468.677</ele>
        <time>2022-08-25T07:57:58Z</time>
      </trkpt>
      <trkpt lat="42.77304499999997" lon="-1.6939690000000027">
        <ele>468.877</ele>
        <time>2022-08-25T07:57:59Z</time>
      </trkpt>
      <trkpt lat="42.773025999999966" lon="-1.6939830000000027">
        <ele>469.037</ele>
        <time>2022-08-25T07:58:00Z</time>
      </trkpt>
      <trkpt lat="42.773009999999964" lon="-1.6939950000000026">
        <ele>469.223</ele>
        <time>2022-08-25T07:58:01Z</time>
      </trkpt>
      <trkpt lat="42.77299199999997" lon="-1.6940080000000026">
        <ele>469.625</ele>
        <time>2022-08-25T07:58:02Z</time>
      </trkpt>
      <trkpt lat="42.77296799999996" lon="-1.6940210000000027">
        <ele>469.642</ele>
        <time>2022-08-25T07:58:03Z</time>
      </trkpt>
      <trkpt lat="42.77294599999996" lon="-1.6940320000000026">
        <ele>469.855</ele>
        <time>2022-08-25T07:58:04Z</time>
      </trkpt>
      <trkpt lat="42.772927999999965" lon="-1.6940400000000027">
        <ele>470.091</ele>
        <time>2022-08-25T07:58:05Z</time>
      </trkpt>
      <trkpt lat="42.77290599999996" lon="-1.6940530000000027">
        <ele>470.252</ele>
        <time>2022-08-25T07:58:06Z</time>
      </trkpt>
      <trkpt lat="42.77287899999996" lon="-1.6940710000000028">
        <ele>470.467</ele>
        <time>2022-08-25T07:58:07Z</time>
      </trkpt>
      <trkpt lat="42.77285899999996" lon="-1.6940880000000027">
        <ele>470.481</ele>
        <time>2022-08-25T07:58:08Z</time>
      </trkpt>
      <trkpt lat="42.77283599999996" lon="-1.6941020000000027">
        <ele>470.419</ele>
        <time>2022-08-25T07:58:09Z</time>
      </trkpt>
      <trkpt lat="42.77281899999996" lon="-1.6941150000000027">
        <ele>470.609</ele>
        <time>2022-08-25T07:58:10Z</time>
      </trkpt>
      <trkpt lat="42.77279999999996" lon="-1.6941340000000027">
        <ele>470.837</ele>
        <time>2022-08-25T07:58:11Z</time>
      </trkpt>
      <trkpt lat="42.77278399999996" lon="-1.6941550000000027">
        <ele>471.247</ele>
        <time>2022-08-25T07:58:12Z</time>
      </trkpt>
      <trkpt lat="42.77276699999996" lon="-1.6941790000000028">
        <ele>471.287</ele>
        <time>2022-08-25T07:58:13Z</time>
      </trkpt>
      <trkpt lat="42.77275499999996" lon="-1.6942040000000027">
        <ele>471.483</ele>
        <time>2022-08-25T07:58:14Z</time>
      </trkpt>
      <trkpt lat="42.77274499999996" lon="-1.6942280000000027">
        <ele>471.625</ele>
        <time>2022-08-25T07:58:15Z</time>
      </trkpt>
      <trkpt lat="42.77274099999996" lon="-1.6942510000000028">
        <ele>472.042</ele>
        <time>2022-08-25T07:58:16Z</time>
      </trkpt>
      <trkpt lat="42.77273899999996" lon="-1.6942720000000029">
        <ele>472.245</ele>
        <time>2022-08-25T07:58:17Z</time>
      </trkpt>
      <trkpt lat="42.77273899999996" lon="-1.694293000000003">
        <ele>472.481</ele>
        <time>2022-08-25T07:58:18Z</time>
      </trkpt>
      <trkpt lat="42.77273899999996" lon="-1.694293000000003">
        <ele>472.652</ele>
        <time>2022-08-25T07:58:19Z</time>
      </trkpt>
      <trkpt lat="42.772725999999956" lon="-1.694333000000003">
        <ele>472.823</ele>
        <time>2022-08-25T07:58:20Z</time>
      </trkpt>
      <trkpt lat="42.772725999999956" lon="-1.694333000000003">
        <ele>473.083</ele>
        <time>2022-08-25T07:58:21Z</time>
      </trkpt>
      <trkpt lat="42.772706999999954" lon="-1.694368000000003">
        <ele>473.211</ele>
        <time>2022-08-25T07:58:22Z</time>
      </trkpt>
      <trkpt lat="42.772706999999954" lon="-1.694368000000003">
        <ele>473.209</ele>
        <time>2022-08-25T07:58:23Z</time>
      </trkpt>
      <trkpt lat="42.77269199999996" lon="-1.694400000000003">
        <ele>473.273</ele>
        <time>2022-08-25T07:58:24Z</time>
      </trkpt>
      <trkpt lat="42.77268299999996" lon="-1.6944150000000031">
        <ele>473.463</ele>
        <time>2022-08-25T07:58:25Z</time>
      </trkpt>
      <trkpt lat="42.772672999999955" lon="-1.694427000000003">
        <ele>473.453</ele>
        <time>2022-08-25T07:58:26Z</time>
      </trkpt>
      <trkpt lat="42.772661999999954" lon="-1.694437000000003">
        <ele>473.659</ele>
        <time>2022-08-25T07:58:27Z</time>
      </trkpt>
      <trkpt lat="42.772647999999954" lon="-1.6944470000000031">
        <ele>473.671</ele>
        <time>2022-08-25T07:58:28Z</time>
      </trkpt>
      <trkpt lat="42.772635999999956" lon="-1.6944600000000032">
        <ele>473.678</ele>
        <time>2022-08-25T07:58:29Z</time>
      </trkpt>
      <trkpt lat="42.772624999999955" lon="-1.6944740000000031">
        <ele>473.851</ele>
        <time>2022-08-25T07:58:30Z</time>
      </trkpt>
      <trkpt lat="42.772624999999955" lon="-1.6944740000000031">
        <ele>473.847</ele>
        <time>2022-08-25T07:58:31Z</time>
      </trkpt>
      <trkpt lat="42.77260399999996" lon="-1.694505000000003">
        <ele>473.898</ele>
        <time>2022-08-25T07:58:32Z</time>
      </trkpt>
      <trkpt lat="42.77259499999996" lon="-1.694519000000003">
        <ele>474.085</ele>
        <time>2022-08-25T07:58:33Z</time>
      </trkpt>
      <trkpt lat="42.77258599999996" lon="-1.694531000000003">
        <ele>474.089</ele>
        <time>2022-08-25T07:58:34Z</time>
      </trkpt>
      <trkpt lat="42.77257699999996" lon="-1.6945450000000029">
        <ele>474.017</ele>
        <time>2022-08-25T07:58:35Z</time>
      </trkpt>
      <trkpt lat="42.77256699999996" lon="-1.6945610000000029">
        <ele>474.209</ele>
        <time>2022-08-25T07:58:36Z</time>
      </trkpt>
      <trkpt lat="42.772556999999956" lon="-1.694574000000003">
        <ele>474.429</ele>
        <time>2022-08-25T07:58:37Z</time>
      </trkpt>
      <trkpt lat="42.772545999999956" lon="-1.6945860000000028">
        <ele>474.479</ele>
        <time>2022-08-25T07:58:38Z</time>
      </trkpt>
      <trkpt lat="42.772534999999955" lon="-1.6945980000000027">
        <ele>474.629</ele>
        <time>2022-08-25T07:58:39Z</time>
      </trkpt>
      <trkpt lat="42.77252499999995" lon="-1.6946100000000026">
        <ele>474.835</ele>
        <time>2022-08-25T07:58:40Z</time>
      </trkpt>
      <trkpt lat="42.77251599999995" lon="-1.6946250000000027">
        <ele>474.867</ele>
        <time>2022-08-25T07:58:41Z</time>
      </trkpt>
      <trkpt lat="42.77251599999995" lon="-1.6946250000000027">
        <ele>474.874</ele>
        <time>2022-08-25T07:58:42Z</time>
      </trkpt>
      <trkpt lat="42.77250199999995" lon="-1.6946540000000028">
        <ele>475.087</ele>
        <time>2022-08-25T07:58:43Z</time>
      </trkpt>
      <trkpt lat="42.77249399999995" lon="-1.6946680000000027">
        <ele>475.083</ele>
        <time>2022-08-25T07:58:44Z</time>
      </trkpt>
      <trkpt lat="42.77249399999995" lon="-1.6946680000000027">
        <ele>475.274</ele>
        <time>2022-08-25T07:58:45Z</time>
      </trkpt>
      <trkpt lat="42.77247199999995" lon="-1.6946960000000026">
        <ele>475.286</ele>
        <time>2022-08-25T07:58:46Z</time>
      </trkpt>
      <trkpt lat="42.77246199999995" lon="-1.6947120000000027">
        <ele>475.460</ele>
        <time>2022-08-25T07:58:47Z</time>
      </trkpt>
      <trkpt lat="42.77245099999995" lon="-1.6947240000000026">
        <ele>475.626</ele>
        <time>2022-08-25T07:58:48Z</time>
      </trkpt>
      <trkpt lat="42.772442999999946" lon="-1.6947380000000025">
        <ele>475.609</ele>
        <time>2022-08-25T07:58:49Z</time>
      </trkpt>
      <trkpt lat="42.772434999999945" lon="-1.6947520000000025">
        <ele>475.829</ele>
        <time>2022-08-25T07:58:50Z</time>
      </trkpt>
      <trkpt lat="42.772426999999944" lon="-1.6947670000000026">
        <ele>476.079</ele>
        <time>2022-08-25T07:58:51Z</time>
      </trkpt>
      <trkpt lat="42.772414999999945" lon="-1.6947820000000027">
        <ele>475.829</ele>
        <time>2022-08-25T07:58:52Z</time>
      </trkpt>
      <trkpt lat="42.772403999999945" lon="-1.6947940000000026">
        <ele>476.235</ele>
        <time>2022-08-25T07:58:53Z</time>
      </trkpt>
      <trkpt lat="42.772392999999944" lon="-1.6948060000000025">
        <ele>476.297</ele>
        <time>2022-08-25T07:58:54Z</time>
      </trkpt>
      <trkpt lat="42.772380999999946" lon="-1.6948200000000024">
        <ele>476.254</ele>
        <time>2022-08-25T07:58:55Z</time>
      </trkpt>
      <trkpt lat="42.77236899999995" lon="-1.6948350000000025">
        <ele>476.497</ele>
        <time>2022-08-25T07:58:56Z</time>
      </trkpt>
      <trkpt lat="42.77235799999995" lon="-1.6948530000000026">
        <ele>476.613</ele>
        <time>2022-08-25T07:58:57Z</time>
      </trkpt>
      <trkpt lat="42.772347999999944" lon="-1.6948690000000026">
        <ele>476.874</ele>
        <time>2022-08-25T07:58:58Z</time>
      </trkpt>
      <trkpt lat="42.77234099999995" lon="-1.6948830000000026">
        <ele>477.081</ele>
        <time>2022-08-25T07:58:59Z</time>
      </trkpt>
      <trkpt lat="42.77234099999995" lon="-1.6948830000000026">
        <ele>477.061</ele>
        <time>2022-08-25T07:59:00Z</time>
      </trkpt>
      <trkpt lat="42.77232899999995" lon="-1.6949090000000027">
        <ele>476.817</ele>
        <time>2022-08-25T07:59:01Z</time>
      </trkpt>
      <trkpt lat="42.77232199999995" lon="-1.6949250000000027">
        <ele>477.209</ele>
        <time>2022-08-25T07:59:02Z</time>
      </trkpt>
      <trkpt lat="42.772315999999954" lon="-1.6949380000000027">
        <ele>477.229</ele>
        <time>2022-08-25T07:59:03Z</time>
      </trkpt>
      <trkpt lat="42.77230799999995" lon="-1.6949520000000027">
        <ele>477.239</ele>
        <time>2022-08-25T07:59:04Z</time>
      </trkpt>
      <trkpt lat="42.77230799999995" lon="-1.6949520000000027">
        <ele>477.229</ele>
        <time>2022-08-25T07:59:05Z</time>
      </trkpt>
      <trkpt lat="42.772284999999954" lon="-1.6949850000000026">
        <ele>477.625</ele>
        <time>2022-08-25T07:59:06Z</time>
      </trkpt>
      <trkpt lat="42.77227399999995" lon="-1.6949990000000026">
        <ele>477.867</ele>
        <time>2022-08-25T07:59:07Z</time>
      </trkpt>
      <trkpt lat="42.77227399999995" lon="-1.6949990000000026">
        <ele>478.044</ele>
        <time>2022-08-25T07:59:08Z</time>
      </trkpt>
      <trkpt lat="42.772250999999955" lon="-1.6950310000000026">
        <ele>478.287</ele>
        <time>2022-08-25T07:59:09Z</time>
      </trkpt>
      <trkpt lat="42.77223799999995" lon="-1.6950490000000027">
        <ele>478.413</ele>
        <time>2022-08-25T07:59:10Z</time>
      </trkpt>
      <trkpt lat="42.77222399999995" lon="-1.6950670000000028">
        <ele>478.234</ele>
        <time>2022-08-25T07:59:11Z</time>
      </trkpt>
      <trkpt lat="42.77221199999995" lon="-1.6950830000000028">
        <ele>478.439</ele>
        <time>2022-08-25T07:59:12Z</time>
      </trkpt>
      <trkpt lat="42.77220199999995" lon="-1.6951000000000027">
        <ele>478.401</ele>
        <time>2022-08-25T07:59:13Z</time>
      </trkpt>
      <trkpt lat="42.77218899999995" lon="-1.6951170000000026">
        <ele>478.421</ele>
        <time>2022-08-25T07:59:14Z</time>
      </trkpt>
      <trkpt lat="42.772175999999945" lon="-1.6951360000000026">
        <ele>478.409</ele>
        <time>2022-08-25T07:59:15Z</time>
      </trkpt>
      <trkpt lat="42.772161999999945" lon="-1.6951530000000026">
        <ele>478.464</ele>
        <time>2022-08-25T07:59:16Z</time>
      </trkpt>
      <trkpt lat="42.772147999999945" lon="-1.6951690000000026">
        <ele>478.854</ele>
        <time>2022-08-25T07:59:17Z</time>
      </trkpt>
      <trkpt lat="42.772135999999946" lon="-1.6951870000000027">
        <ele>478.844</ele>
        <time>2022-08-25T07:59:18Z</time>
      </trkpt>
      <trkpt lat="42.772124999999946" lon="-1.6952040000000026">
        <ele>479.280</ele>
        <time>2022-08-25T07:59:19Z</time>
      </trkpt>
      <trkpt lat="42.77211299999995" lon="-1.6952220000000027">
        <ele>479.082</ele>
        <time>2022-08-25T07:59:20Z</time>
      </trkpt>
      <trkpt lat="42.77210099999995" lon="-1.6952380000000027">
        <ele>479.289</ele>
        <time>2022-08-25T07:59:21Z</time>
      </trkpt>
      <trkpt lat="42.77209199999995" lon="-1.6952560000000028">
        <ele>479.272</ele>
        <time>2022-08-25T07:59:22Z</time>
      </trkpt>
      <trkpt lat="42.77208299999995" lon="-1.6952770000000028">
        <ele>479.458</ele>
        <time>2022-08-25T07:59:23Z</time>
      </trkpt>
      <trkpt lat="42.77208299999995" lon="-1.6952770000000028">
        <ele>479.839</ele>
        <time>2022-08-25T07:59:24Z</time>
      </trkpt>
      <trkpt lat="42.772061999999956" lon="-1.6953150000000028">
        <ele>479.886</ele>
        <time>2022-08-25T07:59:25Z</time>
      </trkpt>
      <trkpt lat="42.77205499999996" lon="-1.6953320000000027">
        <ele>480.060</ele>
        <time>2022-08-25T07:59:26Z</time>
      </trkpt>
      <trkpt lat="42.77204399999996" lon="-1.6953520000000026">
        <ele>480.226</ele>
        <time>2022-08-25T07:59:27Z</time>
      </trkpt>
      <trkpt lat="42.77204399999996" lon="-1.6953520000000026">
        <ele>480.209</ele>
        <time>2022-08-25T07:59:28Z</time>
      </trkpt>
      <trkpt lat="42.77203499999996" lon="-1.6953690000000026">
        <ele>480.489</ele>
        <time>2022-08-25T07:59:29Z</time>
      </trkpt>
      <trkpt lat="42.77201399999996" lon="-1.6954120000000026">
        <ele>480.669</ele>
        <time>2022-08-25T07:59:30Z</time>
      </trkpt>
      <trkpt lat="42.77200399999996" lon="-1.6954370000000025">
        <ele>480.629</ele>
        <time>2022-08-25T07:59:31Z</time>
      </trkpt>
      <trkpt lat="42.77199399999996" lon="-1.6954570000000024">
        <ele>481.035</ele>
        <time>2022-08-25T07:59:32Z</time>
      </trkpt>
      <trkpt lat="42.771985999999956" lon="-1.6954740000000024">
        <ele>481.087</ele>
        <time>2022-08-25T07:59:33Z</time>
      </trkpt>
      <trkpt lat="42.77197599999995" lon="-1.6954920000000024">
        <ele>481.024</ele>
        <time>2022-08-25T07:59:34Z</time>
      </trkpt>
      <trkpt lat="42.771963999999954" lon="-1.6955170000000024">
        <ele>481.267</ele>
        <time>2022-08-25T07:59:35Z</time>
      </trkpt>
      <trkpt lat="42.77195399999995" lon="-1.6955360000000024">
        <ele>481.293</ele>
        <time>2022-08-25T07:59:36Z</time>
      </trkpt>
      <trkpt lat="42.77194799999995" lon="-1.6955560000000023">
        <ele>481.224</ele>
        <time>2022-08-25T07:59:37Z</time>
      </trkpt>
      <trkpt lat="42.77194199999995" lon="-1.6955710000000024">
        <ele>481.258</ele>
        <time>2022-08-25T07:59:38Z</time>
      </trkpt>
      <trkpt lat="42.77194199999995" lon="-1.6955710000000024">
        <ele>481.252</ele>
        <time>2022-08-25T07:59:39Z</time>
      </trkpt>
      <trkpt lat="42.771926999999955" lon="-1.6956130000000025">
        <ele>481.217</ele>
        <time>2022-08-25T07:59:40Z</time>
      </trkpt>
      <trkpt lat="42.77191699999995" lon="-1.6956320000000025">
        <ele>481.409</ele>
        <time>2022-08-25T07:59:41Z</time>
      </trkpt>
      <trkpt lat="42.77190699999995" lon="-1.6956510000000025">
        <ele>481.466</ele>
        <time>2022-08-25T07:59:42Z</time>
      </trkpt>
      <trkpt lat="42.77189799999995" lon="-1.6956680000000024">
        <ele>481.686</ele>
        <time>2022-08-25T07:59:43Z</time>
      </trkpt>
      <trkpt lat="42.77188999999995" lon="-1.6956950000000024">
        <ele>481.836</ele>
        <time>2022-08-25T07:59:44Z</time>
      </trkpt>
      <trkpt lat="42.77188199999995" lon="-1.6957150000000023">
        <ele>481.812</ele>
        <time>2022-08-25T07:59:45Z</time>
      </trkpt>
      <trkpt lat="42.77187399999995" lon="-1.6957290000000023">
        <ele>482.014</ele>
        <time>2022-08-25T07:59:46Z</time>
      </trkpt>
      <trkpt lat="42.771865999999946" lon="-1.6957440000000024">
        <ele>482.021</ele>
        <time>2022-08-25T07:59:47Z</time>
      </trkpt>
      <trkpt lat="42.77186199999995" lon="-1.6957600000000024">
        <ele>482.094</ele>
        <time>2022-08-25T07:59:48Z</time>
      </trkpt>
      <trkpt lat="42.77185299999995" lon="-1.6957870000000024">
        <ele>482.040</ele>
        <time>2022-08-25T07:59:49Z</time>
      </trkpt>
      <trkpt lat="42.77184199999995" lon="-1.6958150000000023">
        <ele>482.231</ele>
        <time>2022-08-25T07:59:50Z</time>
      </trkpt>
      <trkpt lat="42.77184199999995" lon="-1.6958150000000023">
        <ele>482.243</ele>
        <time>2022-08-25T07:59:51Z</time>
      </trkpt>
      <trkpt lat="42.77181199999995" lon="-1.6958990000000023">
        <ele>482.264</ele>
        <time>2022-08-25T07:59:53Z</time>
      </trkpt>
      <trkpt lat="42.771801999999944" lon="-1.6959260000000023">
        <ele>482.210</ele>
        <time>2022-08-25T07:59:54Z</time>
      </trkpt>
      <trkpt lat="42.771789999999946" lon="-1.6959470000000023">
        <ele>482.209</ele>
        <time>2022-08-25T07:59:55Z</time>
      </trkpt>
      <trkpt lat="42.771778999999945" lon="-1.6959690000000023">
        <ele>482.225</ele>
        <time>2022-08-25T07:59:56Z</time>
      </trkpt>
      <trkpt lat="42.771739999999944" lon="-1.6960650000000024">
        <ele>482.265</ele>
        <time>2022-08-25T08:00:00Z</time>
      </trkpt>
      <trkpt lat="42.771719999999945" lon="-1.6961100000000024">
        <ele>482.625</ele>
        <time>2022-08-25T08:00:02Z</time>
      </trkpt>
      <trkpt lat="42.771719999999945" lon="-1.6961100000000024">
        <ele>482.631</ele>
        <time>2022-08-25T08:00:03Z</time>
      </trkpt>
      <trkpt lat="42.77168999999994" lon="-1.6961720000000025">
        <ele>482.823</ele>
        <time>2022-08-25T08:00:05Z</time>
      </trkpt>
      <trkpt lat="42.771682999999946" lon="-1.6961870000000026">
        <ele>482.880</ele>
        <time>2022-08-25T08:00:06Z</time>
      </trkpt>
      <trkpt lat="42.771654999999946" lon="-1.6962520000000025">
        <ele>483.033</ele>
        <time>2022-08-25T08:00:09Z</time>
      </trkpt>
      <trkpt lat="42.77164799999995" lon="-1.6962740000000025">
        <ele>483.269</ele>
        <time>2022-08-25T08:00:10Z</time>
      </trkpt>
      <trkpt lat="42.77163899999995" lon="-1.6962940000000024">
        <ele>483.480</ele>
        <time>2022-08-25T08:00:11Z</time>
      </trkpt>
      <trkpt lat="42.77162999999995" lon="-1.6963090000000025">
        <ele>483.658</ele>
        <time>2022-08-25T08:00:12Z</time>
      </trkpt>
      <trkpt lat="42.771622999999956" lon="-1.6963280000000025">
        <ele>483.652</ele>
        <time>2022-08-25T08:00:13Z</time>
      </trkpt>
      <trkpt lat="42.771608999999955" lon="-1.6963440000000025">
        <ele>483.617</ele>
        <time>2022-08-25T08:00:14Z</time>
      </trkpt>
      <trkpt lat="42.77159299999995" lon="-1.6963550000000025">
        <ele>483.809</ele>
        <time>2022-08-25T08:00:15Z</time>
      </trkpt>
      <trkpt lat="42.77158199999995" lon="-1.6963720000000024">
        <ele>484.026</ele>
        <time>2022-08-25T08:00:16Z</time>
      </trkpt>
      <trkpt lat="42.77157199999995" lon="-1.6963930000000025">
        <ele>484.046</ele>
        <time>2022-08-25T08:00:17Z</time>
      </trkpt>
      <trkpt lat="42.77155199999995" lon="-1.6964300000000025">
        <ele>484.266</ele>
        <time>2022-08-25T08:00:19Z</time>
      </trkpt>
      <trkpt lat="42.77154299999995" lon="-1.6964480000000026">
        <ele>484.492</ele>
        <time>2022-08-25T08:00:20Z</time>
      </trkpt>
      <trkpt lat="42.77150699999995" lon="-1.6965260000000026">
        <ele>485.264</ele>
        <time>2022-08-25T08:00:24Z</time>
      </trkpt>
      <trkpt lat="42.77148199999995" lon="-1.6965660000000027">
        <ele>485.621</ele>
        <time>2022-08-25T08:00:26Z</time>
      </trkpt>
      <trkpt lat="42.771471999999946" lon="-1.6965840000000028">
        <ele>485.664</ele>
        <time>2022-08-25T08:00:27Z</time>
      </trkpt>
      <trkpt lat="42.771463999999945" lon="-1.6965990000000029">
        <ele>485.820</ele>
        <time>2022-08-25T08:00:28Z</time>
      </trkpt>
      <trkpt lat="42.77145199999995" lon="-1.696622000000003">
        <ele>485.821</ele>
        <time>2022-08-25T08:00:29Z</time>
      </trkpt>
      <trkpt lat="42.771443999999946" lon="-1.6966420000000029">
        <ele>486.042</ele>
        <time>2022-08-25T08:00:30Z</time>
      </trkpt>
      <trkpt lat="42.771435999999944" lon="-1.696663000000003">
        <ele>486.222</ele>
        <time>2022-08-25T08:00:31Z</time>
      </trkpt>
      <trkpt lat="42.771429999999945" lon="-1.696684000000003">
        <ele>486.214</ele>
        <time>2022-08-25T08:00:32Z</time>
      </trkpt>
      <trkpt lat="42.771429999999945" lon="-1.696684000000003">
        <ele>486.409</ele>
        <time>2022-08-25T08:00:33Z</time>
      </trkpt>
      <trkpt lat="42.771415999999945" lon="-1.696728000000003">
        <ele>486.485</ele>
        <time>2022-08-25T08:00:34Z</time>
      </trkpt>
      <trkpt lat="42.77141199999995" lon="-1.696751000000003">
        <ele>486.635</ele>
        <time>2022-08-25T08:00:35Z</time>
      </trkpt>
      <trkpt lat="42.77140599999995" lon="-1.696775000000003">
        <ele>486.895</ele>
        <time>2022-08-25T08:00:36Z</time>
      </trkpt>
      <trkpt lat="42.77140199999995" lon="-1.696800000000003">
        <ele>487.021</ele>
        <time>2022-08-25T08:00:37Z</time>
      </trkpt>
      <trkpt lat="42.77139699999995" lon="-1.696823000000003">
        <ele>487.243</ele>
        <time>2022-08-25T08:00:38Z</time>
      </trkpt>
      <trkpt lat="42.771389999999954" lon="-1.6968460000000032">
        <ele>487.210</ele>
        <time>2022-08-25T08:00:39Z</time>
      </trkpt>
      <trkpt lat="42.77138499999995" lon="-1.6968690000000033">
        <ele>487.863</ele>
        <time>2022-08-25T08:00:40Z</time>
      </trkpt>
      <trkpt lat="42.771380999999955" lon="-1.6968860000000032">
        <ele>488.029</ele>
        <time>2022-08-25T08:00:41Z</time>
      </trkpt>
      <trkpt lat="42.77137699999996" lon="-1.6969090000000033">
        <ele>488.250</ele>
        <time>2022-08-25T08:00:42Z</time>
      </trkpt>
      <trkpt lat="42.77137399999996" lon="-1.6969360000000033">
        <ele>488.454</ele>
        <time>2022-08-25T08:00:43Z</time>
      </trkpt>
      <trkpt lat="42.77137399999996" lon="-1.6969360000000033">
        <ele>488.656</ele>
        <time>2022-08-25T08:00:44Z</time>
      </trkpt>
      <trkpt lat="42.77136999999996" lon="-1.6969760000000034">
        <ele>489.011</ele>
        <time>2022-08-25T08:00:45Z</time>
      </trkpt>
      <trkpt lat="42.77136799999996" lon="-1.6969980000000033">
        <ele>489.209</ele>
        <time>2022-08-25T08:00:46Z</time>
      </trkpt>
      <trkpt lat="42.77136799999996" lon="-1.6969980000000033">
        <ele>489.286</ele>
        <time>2022-08-25T08:00:47Z</time>
      </trkpt>
      <trkpt lat="42.77135999999996" lon="-1.6970470000000033">
        <ele>489.496</ele>
        <time>2022-08-25T08:00:48Z</time>
      </trkpt>
      <trkpt lat="42.77135899999996" lon="-1.6970700000000034">
        <ele>489.656</ele>
        <time>2022-08-25T08:00:49Z</time>
      </trkpt>
      <trkpt lat="42.77135599999996" lon="-1.6970860000000034">
        <ele>489.862</ele>
        <time>2022-08-25T08:00:50Z</time>
      </trkpt>
      <trkpt lat="42.77135299999996" lon="-1.6971080000000034">
        <ele>490.084</ele>
        <time>2022-08-25T08:00:51Z</time>
      </trkpt>
      <trkpt lat="42.77135299999996" lon="-1.6971080000000034">
        <ele>490.251</ele>
        <time>2022-08-25T08:00:52Z</time>
      </trkpt>
      <trkpt lat="42.771351999999965" lon="-1.6971570000000034">
        <ele>490.274</ele>
        <time>2022-08-25T08:00:53Z</time>
      </trkpt>
      <trkpt lat="42.771348999999965" lon="-1.6971860000000034">
        <ele>490.660</ele>
        <time>2022-08-25T08:00:54Z</time>
      </trkpt>
      <trkpt lat="42.77134499999997" lon="-1.6972060000000033">
        <ele>490.641</ele>
        <time>2022-08-25T08:00:55Z</time>
      </trkpt>
      <trkpt lat="42.77134099999997" lon="-1.6972330000000033">
        <ele>490.892</ele>
        <time>2022-08-25T08:00:56Z</time>
      </trkpt>
      <trkpt lat="42.77134099999997" lon="-1.6972330000000033">
        <ele>490.873</ele>
        <time>2022-08-25T08:00:57Z</time>
      </trkpt>
      <trkpt lat="42.77132899999997" lon="-1.6972890000000034">
        <ele>490.820</ele>
        <time>2022-08-25T08:00:58Z</time>
      </trkpt>
      <trkpt lat="42.77132599999997" lon="-1.6973170000000033">
        <ele>491.009</ele>
        <time>2022-08-25T08:00:59Z</time>
      </trkpt>
      <trkpt lat="42.771322999999974" lon="-1.6973400000000034">
        <ele>491.020</ele>
        <time>2022-08-25T08:01:00Z</time>
      </trkpt>
      <trkpt lat="42.77131899999998" lon="-1.6973680000000033">
        <ele>491.070</ele>
        <time>2022-08-25T08:01:01Z</time>
      </trkpt>
      <trkpt lat="42.77131499999998" lon="-1.6974030000000033">
        <ele>491.240</ele>
        <time>2022-08-25T08:01:02Z</time>
      </trkpt>
      <trkpt lat="42.77130999999998" lon="-1.6974270000000033">
        <ele>491.226</ele>
        <time>2022-08-25T08:01:03Z</time>
      </trkpt>
      <trkpt lat="42.77130399999998" lon="-1.6974650000000033">
        <ele>491.258</ele>
        <time>2022-08-25T08:01:04Z</time>
      </trkpt>
      <trkpt lat="42.77130099999998" lon="-1.6974910000000034">
        <ele>491.645</ele>
        <time>2022-08-25T08:01:05Z</time>
      </trkpt>
      <trkpt lat="42.77129399999998" lon="-1.6975230000000034">
        <ele>491.848</ele>
        <time>2022-08-25T08:01:06Z</time>
      </trkpt>
      <trkpt lat="42.77128599999998" lon="-1.6975620000000033">
        <ele>491.824</ele>
        <time>2022-08-25T08:01:07Z</time>
      </trkpt>
      <trkpt lat="42.77128599999998" lon="-1.6975620000000033">
        <ele>491.845</ele>
        <time>2022-08-25T08:01:08Z</time>
      </trkpt>
      <trkpt lat="42.771270999999984" lon="-1.6976240000000034">
        <ele>491.878</ele>
        <time>2022-08-25T08:01:09Z</time>
      </trkpt>
      <trkpt lat="42.77126299999998" lon="-1.6976590000000034">
        <ele>491.633</ele>
        <time>2022-08-25T08:01:10Z</time>
      </trkpt>
      <trkpt lat="42.771253999999985" lon="-1.6976940000000034">
        <ele>491.626</ele>
        <time>2022-08-25T08:01:11Z</time>
      </trkpt>
      <trkpt lat="42.771242999999984" lon="-1.6977340000000034">
        <ele>491.609</ele>
        <time>2022-08-25T08:01:12Z</time>
      </trkpt>
      <trkpt lat="42.771236999999985" lon="-1.6977660000000034">
        <ele>491.678</ele>
        <time>2022-08-25T08:01:13Z</time>
      </trkpt>
      <trkpt lat="42.771228999999984" lon="-1.6977930000000034">
        <ele>491.428</ele>
        <time>2022-08-25T08:01:14Z</time>
      </trkpt>
      <trkpt lat="42.771216999999986" lon="-1.6978270000000035">
        <ele>491.428</ele>
        <time>2022-08-25T08:01:15Z</time>
      </trkpt>
      <trkpt lat="42.771216999999986" lon="-1.6978270000000035">
        <ele>491.634</ele>
        <time>2022-08-25T08:01:16Z</time>
      </trkpt>
      <trkpt lat="42.771135999999984" lon="-1.6980340000000036">
        <ele>491.426</ele>
        <time>2022-08-25T08:01:20Z</time>
      </trkpt>
      <trkpt lat="42.77097099999998" lon="-1.6983550000000036">
        <ele>490.863</ele>
        <time>2022-08-25T08:01:27Z</time>
      </trkpt>
      <trkpt lat="42.770758999999984" lon="-1.6986980000000036">
        <ele>489.856</ele>
        <time>2022-08-25T08:01:34Z</time>
      </trkpt>
      <trkpt lat="42.77072699999999" lon="-1.6987460000000036">
        <ele>489.652</ele>
        <time>2022-08-25T08:01:35Z</time>
      </trkpt>
      <trkpt lat="42.77059099999999" lon="-1.6989510000000037">
        <ele>488.853</ele>
        <time>2022-08-25T08:01:39Z</time>
      </trkpt>
      <trkpt lat="42.77042499999999" lon="-1.6992000000000036">
        <ele>487.835</ele>
        <time>2022-08-25T08:01:44Z</time>
      </trkpt>
      <trkpt lat="42.77038199999999" lon="-1.6992580000000035">
        <ele>487.686</ele>
        <time>2022-08-25T08:01:45Z</time>
      </trkpt>
      <trkpt lat="42.77014199999999" lon="-1.6995260000000034">
        <ele>486.614</ele>
        <time>2022-08-25T08:01:51Z</time>
      </trkpt>
      <trkpt lat="42.770098999999995" lon="-1.6995660000000035">
        <ele>486.409</ele>
        <time>2022-08-25T08:01:52Z</time>
      </trkpt>
      <trkpt lat="42.770058999999996" lon="-1.6996050000000034">
        <ele>486.474</ele>
        <time>2022-08-25T08:01:53Z</time>
      </trkpt>
      <trkpt lat="42.770058999999996" lon="-1.6996050000000034">
        <ele>486.244</ele>
        <time>2022-08-25T08:01:54Z</time>
      </trkpt>
      <trkpt lat="42.769976" lon="-1.6996820000000035">
        <ele>485.864</ele>
        <time>2022-08-25T08:01:55Z</time>
      </trkpt>
      <trkpt lat="42.769895" lon="-1.6997620000000035">
        <ele>485.460</ele>
        <time>2022-08-25T08:01:57Z</time>
      </trkpt>
      <trkpt lat="42.769639" lon="-1.7000120000000036">
        <ele>484.882</ele>
        <time>2022-08-25T08:02:03Z</time>
      </trkpt>
      <trkpt lat="42.769597" lon="-1.7000530000000036">
        <ele>484.679</ele>
        <time>2022-08-25T08:02:05Z</time>
      </trkpt>
      <trkpt lat="42.769514" lon="-1.7001340000000036">
        <ele>484.642</ele>
        <time>2022-08-25T08:02:06Z</time>
      </trkpt>
      <trkpt lat="42.769514" lon="-1.7001340000000036">
        <ele>484.478</ele>
        <time>2022-08-25T08:02:07Z</time>
      </trkpt>
      <trkpt lat="42.769436" lon="-1.7002130000000035">
        <ele>484.239</ele>
        <time>2022-08-25T08:02:08Z</time>
      </trkpt>
      <trkpt lat="42.769397" lon="-1.7002490000000035">
        <ele>484.057</ele>
        <time>2022-08-25T08:02:09Z</time>
      </trkpt>
      <trkpt lat="42.76936" lon="-1.7002840000000035">
        <ele>483.800</ele>
        <time>2022-08-25T08:02:10Z</time>
      </trkpt>
      <trkpt lat="42.769323" lon="-1.7003190000000035">
        <ele>483.620</ele>
        <time>2022-08-25T08:02:11Z</time>
      </trkpt>
      <trkpt lat="42.769287" lon="-1.7003530000000036">
        <ele>483.609</ele>
        <time>2022-08-25T08:02:12Z</time>
      </trkpt>
      <trkpt lat="42.769252" lon="-1.7003890000000035">
        <ele>483.696</ele>
        <time>2022-08-25T08:02:13Z</time>
      </trkpt>
      <trkpt lat="42.769145" lon="-1.7004940000000035">
        <ele>483.686</ele>
        <time>2022-08-25T08:02:16Z</time>
      </trkpt>
      <trkpt lat="42.768997" lon="-1.7006220000000034">
        <ele>484.096</ele>
        <time>2022-08-25T08:02:20Z</time>
      </trkpt>
      <trkpt lat="42.768926" lon="-1.7006880000000033">
        <ele>484.062</ele>
        <time>2022-08-25T08:02:22Z</time>
      </trkpt>
      <trkpt lat="42.768889" lon="-1.7007160000000032">
        <ele>484.094</ele>
        <time>2022-08-25T08:02:23Z</time>
      </trkpt>
      <trkpt lat="42.768852" lon="-1.7007390000000033">
        <ele>484.041</ele>
        <time>2022-08-25T08:02:24Z</time>
      </trkpt>
      <trkpt lat="42.768814" lon="-1.7007570000000034">
        <ele>484.294</ele>
        <time>2022-08-25T08:02:25Z</time>
      </trkpt>
      <trkpt lat="42.768775" lon="-1.7007750000000035">
        <ele>484.480</ele>
        <time>2022-08-25T08:02:26Z</time>
      </trkpt>
      <trkpt lat="42.768698" lon="-1.7008230000000035">
        <ele>484.051</ele>
        <time>2022-08-25T08:02:28Z</time>
      </trkpt>
      <trkpt lat="42.768587000000004" lon="-1.7008960000000035">
        <ele>484.085</ele>
        <time>2022-08-25T08:02:31Z</time>
      </trkpt>
      <trkpt lat="42.768432000000004" lon="-1.7009810000000034">
        <ele>484.689</ele>
        <time>2022-08-25T08:02:35Z</time>
      </trkpt>
      <trkpt lat="42.76832100000001" lon="-1.7010450000000035">
        <ele>484.217</ele>
        <time>2022-08-25T08:02:38Z</time>
      </trkpt>
      <trkpt lat="42.76828400000001" lon="-1.7010660000000035">
        <ele>484.209</ele>
        <time>2022-08-25T08:02:39Z</time>
      </trkpt>
      <trkpt lat="42.768246000000005" lon="-1.7010860000000034">
        <ele>484.069</ele>
        <time>2022-08-25T08:02:40Z</time>
      </trkpt>
      <trkpt lat="42.768246000000005" lon="-1.7010860000000034">
        <ele>484.069</ele>
        <time>2022-08-25T08:02:41Z</time>
      </trkpt>
      <trkpt lat="42.76816900000001" lon="-1.7011230000000035">
        <ele>484.049</ele>
        <time>2022-08-25T08:02:42Z</time>
      </trkpt>
      <trkpt lat="42.76813200000001" lon="-1.7011430000000034">
        <ele>484.045</ele>
        <time>2022-08-25T08:02:43Z</time>
      </trkpt>
      <trkpt lat="42.76809800000001" lon="-1.7011660000000035">
        <ele>484.287</ele>
        <time>2022-08-25T08:02:44Z</time>
      </trkpt>
      <trkpt lat="42.76806600000001" lon="-1.7011890000000036">
        <ele>484.224</ele>
        <time>2022-08-25T08:02:45Z</time>
      </trkpt>
      <trkpt lat="42.76803000000001" lon="-1.7012150000000037">
        <ele>484.277</ele>
        <time>2022-08-25T08:02:46Z</time>
      </trkpt>
      <trkpt lat="42.76797100000001" lon="-1.7012660000000037">
        <ele>484.273</ele>
        <time>2022-08-25T08:02:48Z</time>
      </trkpt>
      <trkpt lat="42.76794200000001" lon="-1.7012850000000037">
        <ele>484.444</ele>
        <time>2022-08-25T08:02:49Z</time>
      </trkpt>
      <trkpt lat="42.76794200000001" lon="-1.7012850000000037">
        <ele>484.633</ele>
        <time>2022-08-25T08:02:50Z</time>
      </trkpt>
      <trkpt lat="42.767879000000015" lon="-1.7013210000000036">
        <ele>484.623</ele>
        <time>2022-08-25T08:02:51Z</time>
      </trkpt>
      <trkpt lat="42.76785000000002" lon="-1.7013380000000036">
        <ele>484.815</ele>
        <time>2022-08-25T08:02:52Z</time>
      </trkpt>
      <trkpt lat="42.76782200000002" lon="-1.7013560000000036">
        <ele>484.809</ele>
        <time>2022-08-25T08:02:53Z</time>
      </trkpt>
      <trkpt lat="42.767792000000014" lon="-1.7013740000000037">
        <ele>485.064</ele>
        <time>2022-08-25T08:02:54Z</time>
      </trkpt>
      <trkpt lat="42.767763000000016" lon="-1.7013910000000037">
        <ele>485.254</ele>
        <time>2022-08-25T08:02:55Z</time>
      </trkpt>
      <trkpt lat="42.76773700000002" lon="-1.7014060000000037">
        <ele>485.484</ele>
        <time>2022-08-25T08:02:56Z</time>
      </trkpt>
      <trkpt lat="42.76770900000002" lon="-1.7014220000000038">
        <ele>485.420</ele>
        <time>2022-08-25T08:02:57Z</time>
      </trkpt>
      <trkpt lat="42.76768300000002" lon="-1.7014370000000039">
        <ele>485.442</ele>
        <time>2022-08-25T08:02:58Z</time>
      </trkpt>
      <trkpt lat="42.76768300000002" lon="-1.7014370000000039">
        <ele>485.689</ele>
        <time>2022-08-25T08:02:59Z</time>
      </trkpt>
      <trkpt lat="42.76763900000002" lon="-1.7014640000000039">
        <ele>485.662</ele>
        <time>2022-08-25T08:03:00Z</time>
      </trkpt>
      <trkpt lat="42.76761900000002" lon="-1.7014750000000038">
        <ele>485.848</ele>
        <time>2022-08-25T08:03:01Z</time>
      </trkpt>
      <trkpt lat="42.767600000000016" lon="-1.701482000000004">
        <ele>485.899</ele>
        <time>2022-08-25T08:03:02Z</time>
      </trkpt>
      <trkpt lat="42.767555000000016" lon="-1.701498000000004">
        <ele>486.077</ele>
        <time>2022-08-25T08:03:04Z</time>
      </trkpt>
      <trkpt lat="42.76753200000002" lon="-1.7015100000000039">
        <ele>486.261</ele>
        <time>2022-08-25T08:03:06Z</time>
      </trkpt>
      <trkpt lat="42.767491000000014" lon="-1.7015380000000038">
        <ele>486.227</ele>
        <time>2022-08-25T08:03:07Z</time>
      </trkpt>
      <trkpt lat="42.76747000000002" lon="-1.7015530000000039">
        <ele>486.209</ele>
        <time>2022-08-25T08:03:08Z</time>
      </trkpt>
      <trkpt lat="42.76745200000002" lon="-1.701568000000004">
        <ele>486.428</ele>
        <time>2022-08-25T08:03:09Z</time>
      </trkpt>
      <trkpt lat="42.76743100000002" lon="-1.701583000000004">
        <ele>486.648</ele>
        <time>2022-08-25T08:03:10Z</time>
      </trkpt>
      <trkpt lat="42.767414000000024" lon="-1.7015980000000042">
        <ele>486.638</ele>
        <time>2022-08-25T08:03:11Z</time>
      </trkpt>
      <trkpt lat="42.76740000000002" lon="-1.7016140000000042">
        <ele>486.854</ele>
        <time>2022-08-25T08:03:12Z</time>
      </trkpt>
      <trkpt lat="42.767368000000026" lon="-1.701645000000004">
        <ele>486.866</ele>
        <time>2022-08-25T08:03:14Z</time>
      </trkpt>
      <trkpt lat="42.767214000000024" lon="-1.701816000000004">
        <ele>486.823</ele>
        <time>2022-08-25T08:03:22Z</time>
      </trkpt>
      <trkpt lat="42.76706600000002" lon="-1.702027000000004">
        <ele>486.216</ele>
        <time>2022-08-25T08:03:29Z</time>
      </trkpt>
      <trkpt lat="42.767048000000024" lon="-1.702052000000004">
        <ele>486.422</ele>
        <time>2022-08-25T08:03:30Z</time>
      </trkpt>
      <trkpt lat="42.76703200000002" lon="-1.7020720000000038">
        <ele>486.053</ele>
        <time>2022-08-25T08:03:31Z</time>
      </trkpt>
      <trkpt lat="42.76701900000002" lon="-1.7020890000000037">
        <ele>485.688</ele>
        <time>2022-08-25T08:03:32Z</time>
      </trkpt>
      <trkpt lat="42.76701900000002" lon="-1.7020890000000037">
        <ele>485.424</ele>
        <time>2022-08-25T08:03:33Z</time>
      </trkpt>
      <trkpt lat="42.766995000000016" lon="-1.7021240000000037">
        <ele>485.426</ele>
        <time>2022-08-25T08:03:34Z</time>
      </trkpt>
      <trkpt lat="42.76698600000002" lon="-1.7021460000000037">
        <ele>485.409</ele>
        <time>2022-08-25T08:03:35Z</time>
      </trkpt>
      <trkpt lat="42.76693500000002" lon="-1.7022140000000037">
        <ele>485.219</ele>
        <time>2022-08-25T08:03:38Z</time>
      </trkpt>
      <trkpt lat="42.76681300000002" lon="-1.7023660000000036">
        <ele>485.039</ele>
        <time>2022-08-25T08:03:43Z</time>
      </trkpt>
      <trkpt lat="42.76673500000002" lon="-1.7024850000000036">
        <ele>484.859</ele>
        <time>2022-08-25T08:03:46Z</time>
      </trkpt>
      <trkpt lat="42.76666800000002" lon="-1.7026240000000035">
        <ele>484.865</ele>
        <time>2022-08-25T08:03:49Z</time>
      </trkpt>
      <trkpt lat="42.766537000000014" lon="-1.7028490000000034">
        <ele>484.497</ele>
        <time>2022-08-25T08:03:54Z</time>
      </trkpt>
      <trkpt lat="42.76648500000002" lon="-1.7029380000000034">
        <ele>484.474</ele>
        <time>2022-08-25T08:03:56Z</time>
      </trkpt>
      <trkpt lat="42.766461000000014" lon="-1.7029800000000035">
        <ele>484.067</ele>
        <time>2022-08-25T08:03:57Z</time>
      </trkpt>
      <trkpt lat="42.76643900000001" lon="-1.7030200000000035">
        <ele>483.853</ele>
        <time>2022-08-25T08:03:58Z</time>
      </trkpt>
      <trkpt lat="42.766418000000016" lon="-1.7030640000000035">
        <ele>484.044</ele>
        <time>2022-08-25T08:03:59Z</time>
      </trkpt>
      <trkpt lat="42.76639700000002" lon="-1.7031050000000034">
        <ele>484.255</ele>
        <time>2022-08-25T08:04:00Z</time>
      </trkpt>
      <trkpt lat="42.76628400000002" lon="-1.7033010000000035">
        <ele>483.607</ele>
        <time>2022-08-25T08:04:05Z</time>
      </trkpt>
      <trkpt lat="42.76622200000002" lon="-1.7034310000000035">
        <ele>483.617</ele>
        <time>2022-08-25T08:04:08Z</time>
      </trkpt>
      <trkpt lat="42.76609600000002" lon="-1.7036980000000035">
        <ele>483.609</ele>
        <time>2022-08-25T08:04:14Z</time>
      </trkpt>
      <trkpt lat="42.76607800000002" lon="-1.7037410000000035">
        <ele>483.656</ele>
        <time>2022-08-25T08:04:15Z</time>
      </trkpt>
      <trkpt lat="42.76606200000002" lon="-1.7037840000000035">
        <ele>483.696</ele>
        <time>2022-08-25T08:04:16Z</time>
      </trkpt>
      <trkpt lat="42.76604600000002" lon="-1.7038260000000036">
        <ele>483.666</ele>
        <time>2022-08-25T08:04:17Z</time>
      </trkpt>
      <trkpt lat="42.766030000000015" lon="-1.7038690000000036">
        <ele>483.672</ele>
        <time>2022-08-25T08:04:18Z</time>
      </trkpt>
      <trkpt lat="42.76601400000001" lon="-1.7039110000000037">
        <ele>483.674</ele>
        <time>2022-08-25T08:04:19Z</time>
      </trkpt>
      <trkpt lat="42.76599700000001" lon="-1.7039490000000037">
        <ele>483.671</ele>
        <time>2022-08-25T08:04:20Z</time>
      </trkpt>
      <trkpt lat="42.765979000000016" lon="-1.7039860000000038">
        <ele>483.824</ele>
        <time>2022-08-25T08:04:21Z</time>
      </trkpt>
      <trkpt lat="42.76595500000001" lon="-1.7040230000000038">
        <ele>483.840</ele>
        <time>2022-08-25T08:04:22Z</time>
      </trkpt>
      <trkpt lat="42.76593900000001" lon="-1.704057000000004">
        <ele>483.891</ele>
        <time>2022-08-25T08:04:23Z</time>
      </trkpt>
      <trkpt lat="42.76592700000001" lon="-1.704091000000004">
        <ele>483.823</ele>
        <time>2022-08-25T08:04:24Z</time>
      </trkpt>
      <trkpt lat="42.76591400000001" lon="-1.704122000000004">
        <ele>483.883</ele>
        <time>2022-08-25T08:04:25Z</time>
      </trkpt>
      <trkpt lat="42.76590100000001" lon="-1.7041500000000038">
        <ele>484.011</ele>
        <time>2022-08-25T08:04:26Z</time>
      </trkpt>
      <trkpt lat="42.765888000000004" lon="-1.7041790000000039">
        <ele>484.009</ele>
        <time>2022-08-25T08:04:27Z</time>
      </trkpt>
      <trkpt lat="42.765873000000006" lon="-1.7042090000000039">
        <ele>484.083</ele>
        <time>2022-08-25T08:04:28Z</time>
      </trkpt>
      <trkpt lat="42.765815" lon="-1.704330000000004">
        <ele>484.073</ele>
        <time>2022-08-25T08:04:32Z</time>
      </trkpt>
      <trkpt lat="42.765798000000004" lon="-1.704359000000004">
        <ele>484.053</ele>
        <time>2022-08-25T08:04:33Z</time>
      </trkpt>
      <trkpt lat="42.765708000000004" lon="-1.704504000000004">
        <ele>484.289</ele>
        <time>2022-08-25T08:04:38Z</time>
      </trkpt>
      <trkpt lat="42.765545" lon="-1.704749000000004">
        <ele>484.251</ele>
        <time>2022-08-25T08:04:46Z</time>
      </trkpt>
      <trkpt lat="42.765526" lon="-1.704781000000004">
        <ele>484.018</ele>
        <time>2022-08-25T08:04:47Z</time>
      </trkpt>
      <trkpt lat="42.76547" lon="-1.7048880000000042">
        <ele>484.081</ele>
        <time>2022-08-25T08:04:50Z</time>
      </trkpt>
      <trkpt lat="42.765417" lon="-1.7049910000000041">
        <ele>484.037</ele>
        <time>2022-08-25T08:04:53Z</time>
      </trkpt>
      <trkpt lat="42.765398" lon="-1.7050260000000041">
        <ele>484.078</ele>
        <time>2022-08-25T08:04:54Z</time>
      </trkpt>
      <trkpt lat="42.765378999999996" lon="-1.7050610000000042">
        <ele>484.033</ele>
        <time>2022-08-25T08:04:55Z</time>
      </trkpt>
      <trkpt lat="42.765274999999995" lon="-1.7053040000000041">
        <ele>484.223</ele>
        <time>2022-08-25T08:05:01Z</time>
      </trkpt>
      <trkpt lat="42.765263999999995" lon="-1.7053460000000042">
        <ele>484.215</ele>
        <time>2022-08-25T08:05:02Z</time>
      </trkpt>
      <trkpt lat="42.765254999999996" lon="-1.7053860000000043">
        <ele>484.209</ele>
        <time>2022-08-25T08:05:03Z</time>
      </trkpt>
      <trkpt lat="42.765246999999995" lon="-1.7054260000000043">
        <ele>484.284</ele>
        <time>2022-08-25T08:05:04Z</time>
      </trkpt>
      <trkpt lat="42.765238999999994" lon="-1.7054670000000043">
        <ele>484.064</ele>
        <time>2022-08-25T08:05:05Z</time>
      </trkpt>
      <trkpt lat="42.76521399999999" lon="-1.7056370000000043">
        <ele>484.044</ele>
        <time>2022-08-25T08:05:09Z</time>
      </trkpt>
      <trkpt lat="42.76520899999999" lon="-1.7056800000000043">
        <ele>484.010</ele>
        <time>2022-08-25T08:05:10Z</time>
      </trkpt>
      <trkpt lat="42.76519799999999" lon="-1.7057230000000043">
        <ele>484.052</ele>
        <time>2022-08-25T08:05:11Z</time>
      </trkpt>
      <trkpt lat="42.76515399999999" lon="-1.7058920000000044">
        <ele>484.059</ele>
        <time>2022-08-25T08:05:15Z</time>
      </trkpt>
      <trkpt lat="42.76511999999999" lon="-1.7060230000000045">
        <ele>484.472</ele>
        <time>2022-08-25T08:05:18Z</time>
      </trkpt>
      <trkpt lat="42.76506299999999" lon="-1.7062600000000046">
        <ele>484.628</ele>
        <time>2022-08-25T08:05:23Z</time>
      </trkpt>
      <trkpt lat="42.76504999999999" lon="-1.7063050000000046">
        <ele>484.619</ele>
        <time>2022-08-25T08:05:24Z</time>
      </trkpt>
      <trkpt lat="42.76503799999999" lon="-1.7063480000000046">
        <ele>484.686</ele>
        <time>2022-08-25T08:05:25Z</time>
      </trkpt>
      <trkpt lat="42.76502299999999" lon="-1.7064350000000046">
        <ele>485.260</ele>
        <time>2022-08-25T08:05:27Z</time>
      </trkpt>
      <trkpt lat="42.76501699999999" lon="-1.7064790000000045">
        <ele>485.426</ele>
        <time>2022-08-25T08:05:28Z</time>
      </trkpt>
      <trkpt lat="42.76500899999999" lon="-1.7065210000000046">
        <ele>485.409</ele>
        <time>2022-08-25T08:05:29Z</time>
      </trkpt>
      <trkpt lat="42.76500099999999" lon="-1.7065610000000047">
        <ele>485.699</ele>
        <time>2022-08-25T08:05:30Z</time>
      </trkpt>
      <trkpt lat="42.764993999999994" lon="-1.7066020000000046">
        <ele>485.899</ele>
        <time>2022-08-25T08:05:31Z</time>
      </trkpt>
      <trkpt lat="42.764965" lon="-1.7067660000000047">
        <ele>486.229</ele>
        <time>2022-08-25T08:05:35Z</time>
      </trkpt>
      <trkpt lat="42.76495499999999" lon="-1.7068070000000046">
        <ele>486.425</ele>
        <time>2022-08-25T08:05:36Z</time>
      </trkpt>
      <trkpt lat="42.764900999999995" lon="-1.7070200000000046">
        <ele>486.617</ele>
        <time>2022-08-25T08:05:41Z</time>
      </trkpt>
      <trkpt lat="42.764889999999994" lon="-1.7070640000000046">
        <ele>486.844</ele>
        <time>2022-08-25T08:05:42Z</time>
      </trkpt>
      <trkpt lat="42.764875999999994" lon="-1.7071070000000046">
        <ele>486.837</ele>
        <time>2022-08-25T08:05:43Z</time>
      </trkpt>
      <trkpt lat="42.764852999999995" lon="-1.7071880000000046">
        <ele>487.273</ele>
        <time>2022-08-25T08:05:45Z</time>
      </trkpt>
      <trkpt lat="42.764838999999995" lon="-1.7072240000000045">
        <ele>487.464</ele>
        <time>2022-08-25T08:05:46Z</time>
      </trkpt>
      <trkpt lat="42.76482599999999" lon="-1.7072480000000045">
        <ele>487.427</ele>
        <time>2022-08-25T08:05:47Z</time>
      </trkpt>
      <trkpt lat="42.76480599999999" lon="-1.7072810000000045">
        <ele>487.668</ele>
        <time>2022-08-25T08:05:48Z</time>
      </trkpt>
      <trkpt lat="42.76478999999999" lon="-1.7073110000000045">
        <ele>487.814</ele>
        <time>2022-08-25T08:05:49Z</time>
      </trkpt>
      <trkpt lat="42.76477699999999" lon="-1.7073390000000044">
        <ele>487.809</ele>
        <time>2022-08-25T08:05:50Z</time>
      </trkpt>
      <trkpt lat="42.76475999999999" lon="-1.7073650000000045">
        <ele>488.073</ele>
        <time>2022-08-25T08:05:51Z</time>
      </trkpt>
      <trkpt lat="42.76473899999999" lon="-1.7073930000000044">
        <ele>488.023</ele>
        <time>2022-08-25T08:05:52Z</time>
      </trkpt>
      <trkpt lat="42.76472599999999" lon="-1.7074180000000043">
        <ele>488.013</ele>
        <time>2022-08-25T08:05:53Z</time>
      </trkpt>
      <trkpt lat="42.76471199999999" lon="-1.7074410000000044">
        <ele>488.229</ele>
        <time>2022-08-25T08:05:54Z</time>
      </trkpt>
      <trkpt lat="42.76469699999999" lon="-1.7074630000000044">
        <ele>488.461</ele>
        <time>2022-08-25T08:05:55Z</time>
      </trkpt>
      <trkpt lat="42.76467999999999" lon="-1.7074890000000045">
        <ele>488.418</ele>
        <time>2022-08-25T08:05:56Z</time>
      </trkpt>
      <trkpt lat="42.76466099999999" lon="-1.7075140000000044">
        <ele>488.871</ele>
        <time>2022-08-25T08:05:57Z</time>
      </trkpt>
      <trkpt lat="42.76464799999999" lon="-1.7075380000000044">
        <ele>489.297</ele>
        <time>2022-08-25T08:05:58Z</time>
      </trkpt>
      <trkpt lat="42.764634999999984" lon="-1.7075600000000044">
        <ele>489.288</ele>
        <time>2022-08-25T08:05:59Z</time>
      </trkpt>
      <trkpt lat="42.76462199999998" lon="-1.7075830000000045">
        <ele>489.699</ele>
        <time>2022-08-25T08:06:00Z</time>
      </trkpt>
      <trkpt lat="42.76461199999998" lon="-1.7076090000000046">
        <ele>489.607</ele>
        <time>2022-08-25T08:06:01Z</time>
      </trkpt>
      <trkpt lat="42.76459999999998" lon="-1.7076330000000046">
        <ele>489.827</ele>
        <time>2022-08-25T08:06:02Z</time>
      </trkpt>
      <trkpt lat="42.76458999999998" lon="-1.7076570000000046">
        <ele>490.009</ele>
        <time>2022-08-25T08:06:03Z</time>
      </trkpt>
      <trkpt lat="42.76457799999998" lon="-1.7076840000000046">
        <ele>490.050</ele>
        <time>2022-08-25T08:06:04Z</time>
      </trkpt>
      <trkpt lat="42.76456599999998" lon="-1.7077080000000047">
        <ele>490.250</ele>
        <time>2022-08-25T08:06:05Z</time>
      </trkpt>
      <trkpt lat="42.76455199999998" lon="-1.7077340000000047">
        <ele>490.230</ele>
        <time>2022-08-25T08:06:06Z</time>
      </trkpt>
      <trkpt lat="42.76454099999998" lon="-1.7077620000000047">
        <ele>490.446</ele>
        <time>2022-08-25T08:06:07Z</time>
      </trkpt>
      <trkpt lat="42.76454099999998" lon="-1.7077620000000047">
        <ele>490.478</ele>
        <time>2022-08-25T08:06:08Z</time>
      </trkpt>
      <trkpt lat="42.76450899999998" lon="-1.7078150000000047">
        <ele>490.615</ele>
        <time>2022-08-25T08:06:09Z</time>
      </trkpt>
      <trkpt lat="42.76449199999998" lon="-1.7078430000000047">
        <ele>490.658</ele>
        <time>2022-08-25T08:06:10Z</time>
      </trkpt>
      <trkpt lat="42.76449199999998" lon="-1.7078430000000047">
        <ele>490.644</ele>
        <time>2022-08-25T08:06:11Z</time>
      </trkpt>
      <trkpt lat="42.76446799999998" lon="-1.7078900000000046">
        <ele>490.815</ele>
        <time>2022-08-25T08:06:12Z</time>
      </trkpt>
      <trkpt lat="42.76445199999998" lon="-1.7079150000000045">
        <ele>490.847</ele>
        <time>2022-08-25T08:06:13Z</time>
      </trkpt>
      <trkpt lat="42.764443999999976" lon="-1.7079410000000046">
        <ele>491.029</ele>
        <time>2022-08-25T08:06:14Z</time>
      </trkpt>
      <trkpt lat="42.764432999999975" lon="-1.7079600000000046">
        <ele>491.221</ele>
        <time>2022-08-25T08:06:15Z</time>
      </trkpt>
      <trkpt lat="42.76442099999998" lon="-1.7079800000000045">
        <ele>491.409</ele>
        <time>2022-08-25T08:06:16Z</time>
      </trkpt>
      <trkpt lat="42.76440699999998" lon="-1.7080040000000045">
        <ele>491.615</ele>
        <time>2022-08-25T08:06:17Z</time>
      </trkpt>
      <trkpt lat="42.764390999999975" lon="-1.7080260000000045">
        <ele>491.835</ele>
        <time>2022-08-25T08:06:18Z</time>
      </trkpt>
      <trkpt lat="42.764370999999976" lon="-1.7080440000000046">
        <ele>491.825</ele>
        <time>2022-08-25T08:06:19Z</time>
      </trkpt>
      <trkpt lat="42.76435499999997" lon="-1.7080640000000045">
        <ele>491.881</ele>
        <time>2022-08-25T08:06:20Z</time>
      </trkpt>
      <trkpt lat="42.764339999999976" lon="-1.7080830000000045">
        <ele>492.023</ele>
        <time>2022-08-25T08:06:21Z</time>
      </trkpt>
      <trkpt lat="42.764322999999976" lon="-1.7080990000000045">
        <ele>492.080</ele>
        <time>2022-08-25T08:06:22Z</time>
      </trkpt>
      <trkpt lat="42.764311999999975" lon="-1.7081130000000044">
        <ele>492.053</ele>
        <time>2022-08-25T08:06:23Z</time>
      </trkpt>
      <trkpt lat="42.764294999999976" lon="-1.7081270000000044">
        <ele>492.279</ele>
        <time>2022-08-25T08:06:24Z</time>
      </trkpt>
      <trkpt lat="42.764294999999976" lon="-1.7081270000000044">
        <ele>492.250</ele>
        <time>2022-08-25T08:06:25Z</time>
      </trkpt>
      <trkpt lat="42.76425799999998" lon="-1.7081680000000043">
        <ele>492.464</ele>
        <time>2022-08-25T08:06:26Z</time>
      </trkpt>
      <trkpt lat="42.76423699999998" lon="-1.7081910000000045">
        <ele>492.406</ele>
        <time>2022-08-25T08:06:27Z</time>
      </trkpt>
      <trkpt lat="42.76421199999998" lon="-1.7082130000000044">
        <ele>492.616</ele>
        <time>2022-08-25T08:06:28Z</time>
      </trkpt>
      <trkpt lat="42.76418599999998" lon="-1.7082340000000045">
        <ele>492.809</ele>
        <time>2022-08-25T08:06:29Z</time>
      </trkpt>
      <trkpt lat="42.76416399999998" lon="-1.7082530000000045">
        <ele>493.057</ele>
        <time>2022-08-25T08:06:30Z</time>
      </trkpt>
      <trkpt lat="42.76413799999998" lon="-1.7082690000000045">
        <ele>493.287</ele>
        <time>2022-08-25T08:06:31Z</time>
      </trkpt>
      <trkpt lat="42.76411899999998" lon="-1.7082830000000044">
        <ele>493.237</ele>
        <time>2022-08-25T08:06:32Z</time>
      </trkpt>
      <trkpt lat="42.76409999999998" lon="-1.7082990000000045">
        <ele>493.243</ele>
        <time>2022-08-25T08:06:33Z</time>
      </trkpt>
      <trkpt lat="42.76407799999998" lon="-1.7083200000000045">
        <ele>493.285</ele>
        <time>2022-08-25T08:06:34Z</time>
      </trkpt>
      <trkpt lat="42.76405699999998" lon="-1.7083360000000045">
        <ele>493.222</ele>
        <time>2022-08-25T08:06:35Z</time>
      </trkpt>
      <trkpt lat="42.76403799999998" lon="-1.7083520000000045">
        <ele>493.215</ele>
        <time>2022-08-25T08:06:36Z</time>
      </trkpt>
      <trkpt lat="42.76401999999998" lon="-1.7083640000000044">
        <ele>493.421</ele>
        <time>2022-08-25T08:06:37Z</time>
      </trkpt>
      <trkpt lat="42.76400099999998" lon="-1.7083810000000044">
        <ele>493.832</ele>
        <time>2022-08-25T08:06:38Z</time>
      </trkpt>
      <trkpt lat="42.76397999999998" lon="-1.7084040000000045">
        <ele>493.865</ele>
        <time>2022-08-25T08:06:39Z</time>
      </trkpt>
      <trkpt lat="42.763956999999984" lon="-1.7084290000000044">
        <ele>494.068</ele>
        <time>2022-08-25T08:06:40Z</time>
      </trkpt>
      <trkpt lat="42.76393799999998" lon="-1.7084520000000045">
        <ele>494.014</ele>
        <time>2022-08-25T08:06:41Z</time>
      </trkpt>
      <trkpt lat="42.76391599999998" lon="-1.7084790000000045">
        <ele>493.809</ele>
        <time>2022-08-25T08:06:42Z</time>
      </trkpt>
      <trkpt lat="42.76389299999998" lon="-1.7085080000000046">
        <ele>493.877</ele>
        <time>2022-08-25T08:06:43Z</time>
      </trkpt>
      <trkpt lat="42.763860999999984" lon="-1.7085460000000046">
        <ele>493.437</ele>
        <time>2022-08-25T08:06:44Z</time>
      </trkpt>
      <trkpt lat="42.763823999999985" lon="-1.7085880000000047">
        <ele>493.617</ele>
        <time>2022-08-25T08:06:45Z</time>
      </trkpt>
      <trkpt lat="42.76374899999998" lon="-1.7086720000000046">
        <ele>493.663</ele>
        <time>2022-08-25T08:06:47Z</time>
      </trkpt>
      <trkpt lat="42.76365099999998" lon="-1.7087540000000045">
        <ele>493.075</ele>
        <time>2022-08-25T08:06:49Z</time>
      </trkpt>
      <trkpt lat="42.76359999999998" lon="-1.7087860000000046">
        <ele>493.082</ele>
        <time>2022-08-25T08:06:50Z</time>
      </trkpt>
      <trkpt lat="42.76355599999998" lon="-1.7088110000000045">
        <ele>492.875</ele>
        <time>2022-08-25T08:06:51Z</time>
      </trkpt>
      <trkpt lat="42.76350699999998" lon="-1.7088430000000046">
        <ele>492.851</ele>
        <time>2022-08-25T08:06:52Z</time>
      </trkpt>
      <trkpt lat="42.76347399999998" lon="-1.7088670000000046">
        <ele>492.852</ele>
        <time>2022-08-25T08:06:53Z</time>
      </trkpt>
      <trkpt lat="42.76344599999998" lon="-1.7088930000000047">
        <ele>492.881</ele>
        <time>2022-08-25T08:06:54Z</time>
      </trkpt>
      <trkpt lat="42.76342399999998" lon="-1.7089190000000047">
        <ele>492.861</ele>
        <time>2022-08-25T08:06:55Z</time>
      </trkpt>
      <trkpt lat="42.76339099999998" lon="-1.7089720000000048">
        <ele>492.817</ele>
        <time>2022-08-25T08:06:57Z</time>
      </trkpt>
      <trkpt lat="42.763349999999974" lon="-1.7090290000000048">
        <ele>492.609</ele>
        <time>2022-08-25T08:06:59Z</time>
      </trkpt>
      <trkpt lat="42.76332499999997" lon="-1.7090570000000047">
        <ele>492.659</ele>
        <time>2022-08-25T08:07:00Z</time>
      </trkpt>
      <trkpt lat="42.763298999999975" lon="-1.7090840000000047">
        <ele>492.689</ele>
        <time>2022-08-25T08:07:01Z</time>
      </trkpt>
      <trkpt lat="42.76325899999998" lon="-1.7091240000000048">
        <ele>492.299</ele>
        <time>2022-08-25T08:07:03Z</time>
      </trkpt>
      <trkpt lat="42.76322999999998" lon="-1.7091500000000048">
        <ele>492.245</ele>
        <time>2022-08-25T08:07:04Z</time>
      </trkpt>
      <trkpt lat="42.76319299999998" lon="-1.7091800000000048">
        <ele>492.067</ele>
        <time>2022-08-25T08:07:05Z</time>
      </trkpt>
      <trkpt lat="42.76315299999998" lon="-1.7092420000000048">
        <ele>492.084</ele>
        <time>2022-08-25T08:07:07Z</time>
      </trkpt>
      <trkpt lat="42.76314799999998" lon="-1.7092720000000048">
        <ele>492.027</ele>
        <time>2022-08-25T08:07:08Z</time>
      </trkpt>
      <trkpt lat="42.76315099999998" lon="-1.7093020000000048">
        <ele>492.013</ele>
        <time>2022-08-25T08:07:09Z</time>
      </trkpt>
      <trkpt lat="42.76315199999998" lon="-1.7093350000000047">
        <ele>492.084</ele>
        <time>2022-08-25T08:07:10Z</time>
      </trkpt>
      <trkpt lat="42.76315399999998" lon="-1.7093620000000047">
        <ele>492.064</ele>
        <time>2022-08-25T08:07:11Z</time>
      </trkpt>
      <trkpt lat="42.76315599999998" lon="-1.7093850000000048">
        <ele>492.006</ele>
        <time>2022-08-25T08:07:12Z</time>
      </trkpt>
      <trkpt lat="42.76315599999998" lon="-1.7094130000000047">
        <ele>492.016</ele>
        <time>2022-08-25T08:07:13Z</time>
      </trkpt>
      <trkpt lat="42.76314999999998" lon="-1.7095030000000047">
        <ele>492.209</ele>
        <time>2022-08-25T08:07:16Z</time>
      </trkpt>
      <trkpt lat="42.763142999999985" lon="-1.7095820000000046">
        <ele>492.697</ele>
        <time>2022-08-25T08:07:18Z</time>
      </trkpt>
      <trkpt lat="42.76314199999999" lon="-1.7096340000000045">
        <ele>492.637</ele>
        <time>2022-08-25T08:07:19Z</time>
      </trkpt>
      <trkpt lat="42.76314199999999" lon="-1.7096690000000045">
        <ele>492.827</ele>
        <time>2022-08-25T08:07:20Z</time>
      </trkpt>
      <trkpt lat="42.76312999999999" lon="-1.7097120000000046">
        <ele>492.863</ele>
        <time>2022-08-25T08:07:21Z</time>
      </trkpt>
      <trkpt lat="42.76311899999999" lon="-1.7097870000000046">
        <ele>493.245</ele>
        <time>2022-08-25T08:07:23Z</time>
      </trkpt>
      <trkpt lat="42.76311099999999" lon="-1.7098240000000047">
        <ele>493.422</ele>
        <time>2022-08-25T08:07:24Z</time>
      </trkpt>
      <trkpt lat="42.763105999999986" lon="-1.7098610000000047">
        <ele>493.655</ele>
        <time>2022-08-25T08:07:25Z</time>
      </trkpt>
      <trkpt lat="42.76310299999999" lon="-1.7098900000000048">
        <ele>493.691</ele>
        <time>2022-08-25T08:07:26Z</time>
      </trkpt>
      <trkpt lat="42.763091999999986" lon="-1.7099180000000047">
        <ele>493.862</ele>
        <time>2022-08-25T08:07:27Z</time>
      </trkpt>
      <trkpt lat="42.76308299999999" lon="-1.7099440000000048">
        <ele>494.088</ele>
        <time>2022-08-25T08:07:28Z</time>
      </trkpt>
      <trkpt lat="42.763074999999986" lon="-1.7099650000000048">
        <ele>494.224</ele>
        <time>2022-08-25T08:07:29Z</time>
      </trkpt>
      <trkpt lat="42.76306899999999" lon="-1.7099900000000048">
        <ele>494.426</ele>
        <time>2022-08-25T08:07:30Z</time>
      </trkpt>
      <trkpt lat="42.76305999999999" lon="-1.7100170000000048">
        <ele>494.609</ele>
        <time>2022-08-25T08:07:31Z</time>
      </trkpt>
      <trkpt lat="42.76301099999999" lon="-1.7100640000000047">
        <ele>495.239</ele>
        <time>2022-08-25T08:07:33Z</time>
      </trkpt>
      <trkpt lat="42.76300099999999" lon="-1.7100890000000046">
        <ele>495.429</ele>
        <time>2022-08-25T08:07:34Z</time>
      </trkpt>
      <trkpt lat="42.76298399999999" lon="-1.7101570000000046">
        <ele>495.659</ele>
        <time>2022-08-25T08:07:36Z</time>
      </trkpt>
      <trkpt lat="42.76298399999999" lon="-1.7101570000000046">
        <ele>495.645</ele>
        <time>2022-08-25T08:07:37Z</time>
      </trkpt>
      <trkpt lat="42.76297299999999" lon="-1.7101880000000045">
        <ele>495.857</ele>
        <time>2022-08-25T08:07:38Z</time>
      </trkpt>
      <trkpt lat="42.762942999999986" lon="-1.7102050000000044">
        <ele>496.024</ele>
        <time>2022-08-25T08:07:39Z</time>
      </trkpt>
      <trkpt lat="42.76292699999998" lon="-1.7102270000000044">
        <ele>496.097</ele>
        <time>2022-08-25T08:07:40Z</time>
      </trkpt>
      <trkpt lat="42.76291099999998" lon="-1.7102430000000044">
        <ele>496.263</ele>
        <time>2022-08-25T08:07:41Z</time>
      </trkpt>
      <trkpt lat="42.76289499999998" lon="-1.7102530000000045">
        <ele>496.264</ele>
        <time>2022-08-25T08:07:42Z</time>
      </trkpt>
      <trkpt lat="42.76288099999998" lon="-1.7102630000000045">
        <ele>496.423</ele>
        <time>2022-08-25T08:07:43Z</time>
      </trkpt>
      <trkpt lat="42.76286999999998" lon="-1.7102720000000045">
        <ele>496.483</ele>
        <time>2022-08-25T08:07:44Z</time>
      </trkpt>
      <trkpt lat="42.76285299999998" lon="-1.7102840000000044">
        <ele>496.611</ele>
        <time>2022-08-25T08:07:45Z</time>
      </trkpt>
      <trkpt lat="42.76284199999998" lon="-1.7102970000000044">
        <ele>496.809</ele>
        <time>2022-08-25T08:07:46Z</time>
      </trkpt>
      <trkpt lat="42.76282999999998" lon="-1.7103110000000044">
        <ele>497.043</ele>
        <time>2022-08-25T08:07:47Z</time>
      </trkpt>
      <trkpt lat="42.76281999999998" lon="-1.7103220000000043">
        <ele>497.443</ele>
        <time>2022-08-25T08:07:48Z</time>
      </trkpt>
      <trkpt lat="42.76280499999998" lon="-1.7103300000000043">
        <ele>497.493</ele>
        <time>2022-08-25T08:07:49Z</time>
      </trkpt>
      <trkpt lat="42.76278399999998" lon="-1.7103380000000044">
        <ele>497.889</ele>
        <time>2022-08-25T08:07:50Z</time>
      </trkpt>
      <trkpt lat="42.76275699999998" lon="-1.7103490000000043">
        <ele>497.881</ele>
        <time>2022-08-25T08:07:51Z</time>
      </trkpt>
      <trkpt lat="42.76274099999998" lon="-1.7103570000000043">
        <ele>498.098</ele>
        <time>2022-08-25T08:07:52Z</time>
      </trkpt>
      <trkpt lat="42.76272099999998" lon="-1.7103760000000043">
        <ele>498.021</ele>
        <time>2022-08-25T08:07:53Z</time>
      </trkpt>
      <trkpt lat="42.76270399999998" lon="-1.7103970000000044">
        <ele>498.087</ele>
        <time>2022-08-25T08:07:54Z</time>
      </trkpt>
      <trkpt lat="42.76268599999998" lon="-1.7104150000000045">
        <ele>498.268</ele>
        <time>2022-08-25T08:07:55Z</time>
      </trkpt>
      <trkpt lat="42.76267299999998" lon="-1.7104340000000045">
        <ele>498.238</ele>
        <time>2022-08-25T08:07:56Z</time>
      </trkpt>
      <trkpt lat="42.762659999999975" lon="-1.7104610000000045">
        <ele>498.270</ele>
        <time>2022-08-25T08:07:57Z</time>
      </trkpt>
      <trkpt lat="42.762645999999975" lon="-1.7104800000000044">
        <ele>498.217</ele>
        <time>2022-08-25T08:07:58Z</time>
      </trkpt>
      <trkpt lat="42.762634999999975" lon="-1.7105040000000045">
        <ele>498.409</ele>
        <time>2022-08-25T08:07:59Z</time>
      </trkpt>
      <trkpt lat="42.76262199999997" lon="-1.7105340000000044">
        <ele>498.484</ele>
        <time>2022-08-25T08:08:00Z</time>
      </trkpt>
      <trkpt lat="42.76261299999997" lon="-1.7105570000000045">
        <ele>498.684</ele>
        <time>2022-08-25T08:08:01Z</time>
      </trkpt>
      <trkpt lat="42.762600999999975" lon="-1.7105810000000046">
        <ele>498.824</ele>
        <time>2022-08-25T08:08:02Z</time>
      </trkpt>
      <trkpt lat="42.76258799999997" lon="-1.7106000000000046">
        <ele>498.880</ele>
        <time>2022-08-25T08:08:03Z</time>
      </trkpt>
      <trkpt lat="42.762578999999974" lon="-1.7106260000000046">
        <ele>499.022</ele>
        <time>2022-08-25T08:08:04Z</time>
      </trkpt>
      <trkpt lat="42.76257099999997" lon="-1.7106560000000046">
        <ele>499.239</ele>
        <time>2022-08-25T08:08:05Z</time>
      </trkpt>
      <trkpt lat="42.762564999999974" lon="-1.7106760000000045">
        <ele>499.462</ele>
        <time>2022-08-25T08:08:06Z</time>
      </trkpt>
      <trkpt lat="42.76255399999997" lon="-1.7107000000000046">
        <ele>499.868</ele>
        <time>2022-08-25T08:08:07Z</time>
      </trkpt>
      <trkpt lat="42.76254699999998" lon="-1.7107160000000046">
        <ele>499.899</ele>
        <time>2022-08-25T08:08:08Z</time>
      </trkpt>
      <trkpt lat="42.76253799999998" lon="-1.7107350000000046">
        <ele>500.063</ele>
        <time>2022-08-25T08:08:09Z</time>
      </trkpt>
      <trkpt lat="42.76252699999998" lon="-1.7107530000000046">
        <ele>500.044</ele>
        <time>2022-08-25T08:08:10Z</time>
      </trkpt>
      <trkpt lat="42.76251299999998" lon="-1.7107750000000046">
        <ele>500.218</ele>
        <time>2022-08-25T08:08:11Z</time>
      </trkpt>
      <trkpt lat="42.76250099999998" lon="-1.7107920000000045">
        <ele>500.409</ele>
        <time>2022-08-25T08:08:12Z</time>
      </trkpt>
      <trkpt lat="42.762487999999976" lon="-1.7108090000000045">
        <ele>500.697</ele>
        <time>2022-08-25T08:08:13Z</time>
      </trkpt>
      <trkpt lat="42.76246799999998" lon="-1.7108330000000045">
        <ele>500.637</ele>
        <time>2022-08-25T08:08:14Z</time>
      </trkpt>
      <trkpt lat="42.76245299999998" lon="-1.7108540000000045">
        <ele>500.657</ele>
        <time>2022-08-25T08:08:15Z</time>
      </trkpt>
      <trkpt lat="42.76243499999998" lon="-1.7108740000000044">
        <ele>500.843</ele>
        <time>2022-08-25T08:08:16Z</time>
      </trkpt>
      <trkpt lat="42.76242099999998" lon="-1.7108880000000044">
        <ele>501.085</ele>
        <time>2022-08-25T08:08:17Z</time>
      </trkpt>
      <trkpt lat="42.76240499999998" lon="-1.7109040000000044">
        <ele>501.292</ele>
        <time>2022-08-25T08:08:18Z</time>
      </trkpt>
      <trkpt lat="42.76238299999998" lon="-1.7109250000000045">
        <ele>501.475</ele>
        <time>2022-08-25T08:08:19Z</time>
      </trkpt>
      <trkpt lat="42.76236099999998" lon="-1.7109420000000044">
        <ele>501.671</ele>
        <time>2022-08-25T08:08:20Z</time>
      </trkpt>
      <trkpt lat="42.762341999999975" lon="-1.7109570000000045">
        <ele>501.642</ele>
        <time>2022-08-25T08:08:21Z</time>
      </trkpt>
      <trkpt lat="42.762327999999975" lon="-1.7109730000000045">
        <ele>501.853</ele>
        <time>2022-08-25T08:08:22Z</time>
      </trkpt>
      <trkpt lat="42.762307999999976" lon="-1.7109940000000046">
        <ele>501.804</ele>
        <time>2022-08-25T08:08:23Z</time>
      </trkpt>
      <trkpt lat="42.762288999999974" lon="-1.7110140000000045">
        <ele>501.814</ele>
        <time>2022-08-25T08:08:24Z</time>
      </trkpt>
      <trkpt lat="42.76226699999997" lon="-1.7110330000000045">
        <ele>502.009</ele>
        <time>2022-08-25T08:08:25Z</time>
      </trkpt>
      <trkpt lat="42.76224799999997" lon="-1.7110500000000044">
        <ele>502.256</ele>
        <time>2022-08-25T08:08:26Z</time>
      </trkpt>
      <trkpt lat="42.76223599999997" lon="-1.7110630000000044">
        <ele>502.276</ele>
        <time>2022-08-25T08:08:27Z</time>
      </trkpt>
      <trkpt lat="42.76223599999997" lon="-1.7110630000000044">
        <ele>502.276</ele>
        <time>2022-08-25T08:08:28Z</time>
      </trkpt>
      <trkpt lat="42.762195999999975" lon="-1.7111060000000045">
        <ele>502.452</ele>
        <time>2022-08-25T08:08:29Z</time>
      </trkpt>
      <trkpt lat="42.76217699999997" lon="-1.7111250000000044">
        <ele>502.414</ele>
        <time>2022-08-25T08:08:30Z</time>
      </trkpt>
      <trkpt lat="42.762161999999975" lon="-1.7111400000000045">
        <ele>502.631</ele>
        <time>2022-08-25T08:08:31Z</time>
      </trkpt>
      <trkpt lat="42.76214399999998" lon="-1.7111600000000045">
        <ele>502.624</ele>
        <time>2022-08-25T08:08:32Z</time>
      </trkpt>
      <trkpt lat="42.76212299999998" lon="-1.7111830000000046">
        <ele>502.630</ele>
        <time>2022-08-25T08:08:33Z</time>
      </trkpt>
      <trkpt lat="42.76210899999998" lon="-1.7111980000000047">
        <ele>502.641</ele>
        <time>2022-08-25T08:08:34Z</time>
      </trkpt>
      <trkpt lat="42.76209399999998" lon="-1.7112140000000047">
        <ele>502.872</ele>
        <time>2022-08-25T08:08:35Z</time>
      </trkpt>
      <trkpt lat="42.76207999999998" lon="-1.7112300000000047">
        <ele>503.013</ele>
        <time>2022-08-25T08:08:36Z</time>
      </trkpt>
      <trkpt lat="42.76206699999998" lon="-1.7112490000000047">
        <ele>503.214</ele>
        <time>2022-08-25T08:08:37Z</time>
      </trkpt>
      <trkpt lat="42.76205399999998" lon="-1.7112690000000046">
        <ele>503.409</ele>
        <time>2022-08-25T08:08:38Z</time>
      </trkpt>
      <trkpt lat="42.76204299999998" lon="-1.7112880000000046">
        <ele>503.888</ele>
        <time>2022-08-25T08:08:39Z</time>
      </trkpt>
      <trkpt lat="42.76203099999998" lon="-1.7113090000000046">
        <ele>504.068</ele>
        <time>2022-08-25T08:08:40Z</time>
      </trkpt>
      <trkpt lat="42.762020999999976" lon="-1.7113240000000047">
        <ele>504.078</ele>
        <time>2022-08-25T08:08:41Z</time>
      </trkpt>
      <trkpt lat="42.762009999999975" lon="-1.7113410000000047">
        <ele>504.284</ele>
        <time>2022-08-25T08:08:42Z</time>
      </trkpt>
      <trkpt lat="42.761992999999975" lon="-1.7113640000000048">
        <ele>504.226</ele>
        <time>2022-08-25T08:08:43Z</time>
      </trkpt>
      <trkpt lat="42.761978999999975" lon="-1.7113850000000048">
        <ele>504.253</ele>
        <time>2022-08-25T08:08:44Z</time>
      </trkpt>
      <trkpt lat="42.761967999999975" lon="-1.7114050000000047">
        <ele>504.246</ele>
        <time>2022-08-25T08:08:45Z</time>
      </trkpt>
      <trkpt lat="42.761958999999976" lon="-1.7114220000000047">
        <ele>504.272</ele>
        <time>2022-08-25T08:08:46Z</time>
      </trkpt>
      <trkpt lat="42.76194399999998" lon="-1.7114430000000047">
        <ele>504.463</ele>
        <time>2022-08-25T08:08:47Z</time>
      </trkpt>
      <trkpt lat="42.761930999999976" lon="-1.7114650000000047">
        <ele>504.442</ele>
        <time>2022-08-25T08:08:48Z</time>
      </trkpt>
      <trkpt lat="42.761916999999976" lon="-1.7114880000000048">
        <ele>504.622</ele>
        <time>2022-08-25T08:08:49Z</time>
      </trkpt>
      <trkpt lat="42.76190199999998" lon="-1.7115050000000047">
        <ele>504.414</ele>
        <time>2022-08-25T08:08:50Z</time>
      </trkpt>
      <trkpt lat="42.761891999999975" lon="-1.7115190000000047">
        <ele>504.609</ele>
        <time>2022-08-25T08:08:51Z</time>
      </trkpt>
      <trkpt lat="42.761880999999974" lon="-1.7115370000000047">
        <ele>504.635</ele>
        <time>2022-08-25T08:08:52Z</time>
      </trkpt>
      <trkpt lat="42.76186999999997" lon="-1.7115610000000048">
        <ele>504.825</ele>
        <time>2022-08-25T08:08:53Z</time>
      </trkpt>
      <trkpt lat="42.761860999999975" lon="-1.7115810000000047">
        <ele>505.065</ele>
        <time>2022-08-25T08:08:54Z</time>
      </trkpt>
      <trkpt lat="42.761851999999976" lon="-1.7115980000000046">
        <ele>505.231</ele>
        <time>2022-08-25T08:08:55Z</time>
      </trkpt>
      <trkpt lat="42.761840999999976" lon="-1.7116210000000047">
        <ele>505.693</ele>
        <time>2022-08-25T08:08:56Z</time>
      </trkpt>
      <trkpt lat="42.761826999999975" lon="-1.7116500000000048">
        <ele>505.690</ele>
        <time>2022-08-25T08:08:57Z</time>
      </trkpt>
      <trkpt lat="42.76181799999998" lon="-1.7116680000000049">
        <ele>506.073</ele>
        <time>2022-08-25T08:08:58Z</time>
      </trkpt>
      <trkpt lat="42.76180399999998" lon="-1.711697000000005">
        <ele>506.099</ele>
        <time>2022-08-25T08:08:59Z</time>
      </trkpt>
      <trkpt lat="42.76179799999998" lon="-1.711715000000005">
        <ele>506.270</ele>
        <time>2022-08-25T08:09:00Z</time>
      </trkpt>
      <trkpt lat="42.76178899999998" lon="-1.711738000000005">
        <ele>506.254</ele>
        <time>2022-08-25T08:09:01Z</time>
      </trkpt>
      <trkpt lat="42.76177699999998" lon="-1.7117640000000052">
        <ele>506.456</ele>
        <time>2022-08-25T08:09:02Z</time>
      </trkpt>
      <trkpt lat="42.76177699999998" lon="-1.7117640000000052">
        <ele>506.611</ele>
        <time>2022-08-25T08:09:03Z</time>
      </trkpt>
      <trkpt lat="42.76176499999998" lon="-1.7118050000000051">
        <ele>506.809</ele>
        <time>2022-08-25T08:09:04Z</time>
      </trkpt>
      <trkpt lat="42.76175699999998" lon="-1.7118310000000052">
        <ele>507.036</ele>
        <time>2022-08-25T08:09:05Z</time>
      </trkpt>
      <trkpt lat="42.76174599999998" lon="-1.7118570000000053">
        <ele>507.046</ele>
        <time>2022-08-25T08:09:06Z</time>
      </trkpt>
      <trkpt lat="42.76173499999998" lon="-1.7118870000000053">
        <ele>507.226</ele>
        <time>2022-08-25T08:09:07Z</time>
      </trkpt>
      <trkpt lat="42.76172399999998" lon="-1.7119110000000053">
        <ele>507.662</ele>
        <time>2022-08-25T08:09:08Z</time>
      </trkpt>
      <trkpt lat="42.76171399999998" lon="-1.7119360000000052">
        <ele>507.684</ele>
        <time>2022-08-25T08:09:09Z</time>
      </trkpt>
      <trkpt lat="42.76170799999998" lon="-1.7119600000000053">
        <ele>508.061</ele>
        <time>2022-08-25T08:09:10Z</time>
      </trkpt>
      <trkpt lat="42.76169899999998" lon="-1.7119940000000053">
        <ele>508.054</ele>
        <time>2022-08-25T08:09:11Z</time>
      </trkpt>
      <trkpt lat="42.76169099999998" lon="-1.7120220000000053">
        <ele>508.260</ele>
        <time>2022-08-25T08:09:12Z</time>
      </trkpt>
      <trkpt lat="42.76168199999998" lon="-1.7120500000000052">
        <ele>508.661</ele>
        <time>2022-08-25T08:09:13Z</time>
      </trkpt>
      <trkpt lat="42.76167299999998" lon="-1.7120720000000051">
        <ele>508.678</ele>
        <time>2022-08-25T08:09:14Z</time>
      </trkpt>
      <trkpt lat="42.76166299999998" lon="-1.7121010000000052">
        <ele>508.833</ele>
        <time>2022-08-25T08:09:15Z</time>
      </trkpt>
      <trkpt lat="42.761652999999974" lon="-1.7121310000000052">
        <ele>509.026</ele>
        <time>2022-08-25T08:09:16Z</time>
      </trkpt>
      <trkpt lat="42.76164199999997" lon="-1.7121600000000052">
        <ele>509.009</ele>
        <time>2022-08-25T08:09:17Z</time>
      </trkpt>
      <trkpt lat="42.76162899999997" lon="-1.7121880000000052">
        <ele>509.298</ele>
        <time>2022-08-25T08:09:18Z</time>
      </trkpt>
      <trkpt lat="42.76161899999997" lon="-1.7122150000000051">
        <ele>509.298</ele>
        <time>2022-08-25T08:09:19Z</time>
      </trkpt>
      <trkpt lat="42.76160399999997" lon="-1.712248000000005">
        <ele>509.268</ele>
        <time>2022-08-25T08:09:20Z</time>
      </trkpt>
      <trkpt lat="42.76158799999997" lon="-1.7122820000000052">
        <ele>509.254</ele>
        <time>2022-08-25T08:09:21Z</time>
      </trkpt>
      <trkpt lat="42.76157899999997" lon="-1.7123040000000052">
        <ele>509.236</ele>
        <time>2022-08-25T08:09:22Z</time>
      </trkpt>
      <trkpt lat="42.76156199999997" lon="-1.712337000000005">
        <ele>509.263</ele>
        <time>2022-08-25T08:09:23Z</time>
      </trkpt>
      <trkpt lat="42.76154899999997" lon="-1.7123610000000051">
        <ele>509.256</ele>
        <time>2022-08-25T08:09:24Z</time>
      </trkpt>
      <trkpt lat="42.761532999999964" lon="-1.7123880000000051">
        <ele>509.232</ele>
        <time>2022-08-25T08:09:25Z</time>
      </trkpt>
      <trkpt lat="42.76150599999996" lon="-1.7124170000000052">
        <ele>509.243</ele>
        <time>2022-08-25T08:09:26Z</time>
      </trkpt>
      <trkpt lat="42.76148299999996" lon="-1.7124350000000053">
        <ele>509.284</ele>
        <time>2022-08-25T08:09:27Z</time>
      </trkpt>
      <trkpt lat="42.76145199999996" lon="-1.7124600000000052">
        <ele>509.207</ele>
        <time>2022-08-25T08:09:28Z</time>
      </trkpt>
      <trkpt lat="42.761425999999965" lon="-1.7124760000000052">
        <ele>509.217</ele>
        <time>2022-08-25T08:09:29Z</time>
      </trkpt>
      <trkpt lat="42.761399999999966" lon="-1.7124980000000052">
        <ele>509.209</ele>
        <time>2022-08-25T08:09:30Z</time>
      </trkpt>
      <trkpt lat="42.761368999999966" lon="-1.7125240000000053">
        <ele>509.229</ele>
        <time>2022-08-25T08:09:31Z</time>
      </trkpt>
      <trkpt lat="42.761368999999966" lon="-1.7125240000000053">
        <ele>509.279</ele>
        <time>2022-08-25T08:09:32Z</time>
      </trkpt>
      <trkpt lat="42.76128899999997" lon="-1.7125800000000053">
        <ele>509.469</ele>
        <time>2022-08-25T08:09:34Z</time>
      </trkpt>
      <trkpt lat="42.76125899999997" lon="-1.7125990000000053">
        <ele>509.475</ele>
        <time>2022-08-25T08:09:35Z</time>
      </trkpt>
      <trkpt lat="42.761031999999965" lon="-1.7127800000000053">
        <ele>509.627</ele>
        <time>2022-08-25T08:09:43Z</time>
      </trkpt>
      <trkpt lat="42.761005999999966" lon="-1.7127980000000054">
        <ele>509.634</ele>
        <time>2022-08-25T08:09:44Z</time>
      </trkpt>
      <trkpt lat="42.76097699999997" lon="-1.7128190000000054">
        <ele>509.677</ele>
        <time>2022-08-25T08:09:45Z</time>
      </trkpt>
      <trkpt lat="42.76095999999997" lon="-1.7128280000000053">
        <ele>509.683</ele>
        <time>2022-08-25T08:09:46Z</time>
      </trkpt>
      <trkpt lat="42.76093799999997" lon="-1.7128450000000053">
        <ele>509.674</ele>
        <time>2022-08-25T08:09:47Z</time>
      </trkpt>
      <trkpt lat="42.760879999999965" lon="-1.7128960000000053">
        <ele>510.457</ele>
        <time>2022-08-25T08:09:50Z</time>
      </trkpt>
      <trkpt lat="42.760879999999965" lon="-1.7128960000000053">
        <ele>510.400</ele>
        <time>2022-08-25T08:09:51Z</time>
      </trkpt>
      <trkpt lat="42.76083399999997" lon="-1.7129280000000053">
        <ele>510.820</ele>
        <time>2022-08-25T08:09:52Z</time>
      </trkpt>
      <trkpt lat="42.76081999999997" lon="-1.7129370000000053">
        <ele>510.809</ele>
        <time>2022-08-25T08:09:53Z</time>
      </trkpt>
      <trkpt lat="42.760800999999965" lon="-1.7129500000000053">
        <ele>511.066</ele>
        <time>2022-08-25T08:09:54Z</time>
      </trkpt>
      <trkpt lat="42.76073799999997" lon="-1.7129910000000053">
        <ele>511.486</ele>
        <time>2022-08-25T08:09:57Z</time>
      </trkpt>
      <trkpt lat="42.76071599999997" lon="-1.7130000000000052">
        <ele>511.686</ele>
        <time>2022-08-25T08:09:58Z</time>
      </trkpt>
      <trkpt lat="42.76069199999996" lon="-1.7130070000000053">
        <ele>511.872</ele>
        <time>2022-08-25T08:09:59Z</time>
      </trkpt>
      <trkpt lat="42.760671999999964" lon="-1.7130150000000053">
        <ele>512.094</ele>
        <time>2022-08-25T08:10:00Z</time>
      </trkpt>
      <trkpt lat="42.760648999999965" lon="-1.7130270000000052">
        <ele>512.421</ele>
        <time>2022-08-25T08:10:01Z</time>
      </trkpt>
      <trkpt lat="42.76062999999996" lon="-1.7130400000000052">
        <ele>512.684</ele>
        <time>2022-08-25T08:10:02Z</time>
      </trkpt>
      <trkpt lat="42.760609999999964" lon="-1.7130500000000053">
        <ele>512.680</ele>
        <time>2022-08-25T08:10:03Z</time>
      </trkpt>
      <trkpt lat="42.76058499999996" lon="-1.7130580000000053">
        <ele>512.481</ele>
        <time>2022-08-25T08:10:04Z</time>
      </trkpt>
      <trkpt lat="42.76055799999996" lon="-1.7130690000000053">
        <ele>512.828</ele>
        <time>2022-08-25T08:10:05Z</time>
      </trkpt>
      <trkpt lat="42.76053799999996" lon="-1.7130800000000053">
        <ele>513.289</ele>
        <time>2022-08-25T08:10:06Z</time>
      </trkpt>
      <trkpt lat="42.760519999999964" lon="-1.7130850000000053">
        <ele>513.217</ele>
        <time>2022-08-25T08:10:07Z</time>
      </trkpt>
      <trkpt lat="42.76050099999996" lon="-1.7130910000000052">
        <ele>513.409</ele>
        <time>2022-08-25T08:10:08Z</time>
      </trkpt>
      <trkpt lat="42.76047899999996" lon="-1.7131000000000052">
        <ele>513.653</ele>
        <time>2022-08-25T08:10:09Z</time>
      </trkpt>
      <trkpt lat="42.76046199999996" lon="-1.7131070000000053">
        <ele>513.623</ele>
        <time>2022-08-25T08:10:10Z</time>
      </trkpt>
      <trkpt lat="42.760443999999964" lon="-1.7131120000000053">
        <ele>513.643</ele>
        <time>2022-08-25T08:10:11Z</time>
      </trkpt>
      <trkpt lat="42.76042799999996" lon="-1.7131160000000052">
        <ele>513.659</ele>
        <time>2022-08-25T08:10:12Z</time>
      </trkpt>
      <trkpt lat="42.760409999999965" lon="-1.7131220000000051">
        <ele>513.631</ele>
        <time>2022-08-25T08:10:13Z</time>
      </trkpt>
      <trkpt lat="42.76038799999996" lon="-1.713131000000005">
        <ele>513.688</ele>
        <time>2022-08-25T08:10:14Z</time>
      </trkpt>
      <trkpt lat="42.76037399999996" lon="-1.7131380000000052">
        <ele>513.641</ele>
        <time>2022-08-25T08:10:15Z</time>
      </trkpt>
      <trkpt lat="42.760353999999964" lon="-1.713147000000005">
        <ele>513.667</ele>
        <time>2022-08-25T08:10:16Z</time>
      </trkpt>
      <trkpt lat="42.76034099999996" lon="-1.713153000000005">
        <ele>513.858</ele>
        <time>2022-08-25T08:10:17Z</time>
      </trkpt>
      <trkpt lat="42.760322999999964" lon="-1.713161000000005">
        <ele>514.092</ele>
        <time>2022-08-25T08:10:18Z</time>
      </trkpt>
      <trkpt lat="42.76030699999996" lon="-1.713170000000005">
        <ele>514.273</ele>
        <time>2022-08-25T08:10:19Z</time>
      </trkpt>
      <trkpt lat="42.760288999999965" lon="-1.713179000000005">
        <ele>514.420</ele>
        <time>2022-08-25T08:10:20Z</time>
      </trkpt>
      <trkpt lat="42.760271999999965" lon="-1.713186000000005">
        <ele>514.609</ele>
        <time>2022-08-25T08:10:21Z</time>
      </trkpt>
      <trkpt lat="42.76025699999997" lon="-1.713193000000005">
        <ele>514.670</ele>
        <time>2022-08-25T08:10:22Z</time>
      </trkpt>
      <trkpt lat="42.760240999999965" lon="-1.713201000000005">
        <ele>514.660</ele>
        <time>2022-08-25T08:10:23Z</time>
      </trkpt>
      <trkpt lat="42.76022499999996" lon="-1.713209000000005">
        <ele>514.650</ele>
        <time>2022-08-25T08:10:24Z</time>
      </trkpt>
      <trkpt lat="42.76020899999996" lon="-1.713215000000005">
        <ele>514.856</ele>
        <time>2022-08-25T08:10:25Z</time>
      </trkpt>
      <trkpt lat="42.76019099999996" lon="-1.713219000000005">
        <ele>515.028</ele>
        <time>2022-08-25T08:10:26Z</time>
      </trkpt>
      <trkpt lat="42.760173999999964" lon="-1.7132250000000049">
        <ele>515.455</ele>
        <time>2022-08-25T08:10:27Z</time>
      </trkpt>
      <trkpt lat="42.760158999999966" lon="-1.7132310000000048">
        <ele>515.898</ele>
        <time>2022-08-25T08:10:28Z</time>
      </trkpt>
      <trkpt lat="42.76014399999997" lon="-1.713238000000005">
        <ele>515.874</ele>
        <time>2022-08-25T08:10:29Z</time>
      </trkpt>
      <trkpt lat="42.760130999999966" lon="-1.7132440000000049">
        <ele>516.025</ele>
        <time>2022-08-25T08:10:30Z</time>
      </trkpt>
      <trkpt lat="42.760113999999966" lon="-1.713249000000005">
        <ele>516.049</ele>
        <time>2022-08-25T08:10:31Z</time>
      </trkpt>
      <trkpt lat="42.76010099999996" lon="-1.7132550000000049">
        <ele>516.202</ele>
        <time>2022-08-25T08:10:32Z</time>
      </trkpt>
      <trkpt lat="42.760085999999966" lon="-1.713265000000005">
        <ele>516.222</ele>
        <time>2022-08-25T08:10:33Z</time>
      </trkpt>
      <trkpt lat="42.76006999999996" lon="-1.713273000000005">
        <ele>516.209</ele>
        <time>2022-08-25T08:10:34Z</time>
      </trkpt>
      <trkpt lat="42.760054999999966" lon="-1.7132790000000049">
        <ele>516.275</ele>
        <time>2022-08-25T08:10:35Z</time>
      </trkpt>
      <trkpt lat="42.760040999999966" lon="-1.713286000000005">
        <ele>516.445</ele>
        <time>2022-08-25T08:10:36Z</time>
      </trkpt>
      <trkpt lat="42.76002899999997" lon="-1.713291000000005">
        <ele>516.425</ele>
        <time>2022-08-25T08:10:37Z</time>
      </trkpt>
      <trkpt lat="42.760018999999964" lon="-1.713297000000005">
        <ele>516.671</ele>
        <time>2022-08-25T08:10:38Z</time>
      </trkpt>
      <trkpt lat="42.760009999999966" lon="-1.7133010000000048">
        <ele>516.833</ele>
        <time>2022-08-25T08:10:39Z</time>
      </trkpt>
      <trkpt lat="42.759998999999965" lon="-1.7133070000000048">
        <ele>517.010</ele>
        <time>2022-08-25T08:10:40Z</time>
      </trkpt>
      <trkpt lat="42.75998699999997" lon="-1.7133120000000048">
        <ele>517.243</ele>
        <time>2022-08-25T08:10:41Z</time>
      </trkpt>
      <trkpt lat="42.75997299999997" lon="-1.713319000000005">
        <ele>517.429</ele>
        <time>2022-08-25T08:10:42Z</time>
      </trkpt>
      <trkpt lat="42.75995599999997" lon="-1.713327000000005">
        <ele>517.440</ele>
        <time>2022-08-25T08:10:43Z</time>
      </trkpt>
      <trkpt lat="42.759939999999965" lon="-1.713337000000005">
        <ele>517.457</ele>
        <time>2022-08-25T08:10:44Z</time>
      </trkpt>
      <trkpt lat="42.75992399999996" lon="-1.713347000000005">
        <ele>517.400</ele>
        <time>2022-08-25T08:10:45Z</time>
      </trkpt>
      <trkpt lat="42.759911999999964" lon="-1.7133540000000052">
        <ele>517.620</ele>
        <time>2022-08-25T08:10:46Z</time>
      </trkpt>
      <trkpt lat="42.75989699999997" lon="-1.7133620000000052">
        <ele>517.609</ele>
        <time>2022-08-25T08:10:47Z</time>
      </trkpt>
      <trkpt lat="42.75988199999997" lon="-1.7133690000000052">
        <ele>517.896</ele>
        <time>2022-08-25T08:10:48Z</time>
      </trkpt>
      <trkpt lat="42.759868999999966" lon="-1.7133770000000053">
        <ele>517.876</ele>
        <time>2022-08-25T08:10:49Z</time>
      </trkpt>
      <trkpt lat="42.75985899999996" lon="-1.7133840000000053">
        <ele>518.046</ele>
        <time>2022-08-25T08:10:50Z</time>
      </trkpt>
      <trkpt lat="42.75984899999996" lon="-1.7133900000000053">
        <ele>518.242</ele>
        <time>2022-08-25T08:10:51Z</time>
      </trkpt>
      <trkpt lat="42.75983499999996" lon="-1.7133980000000053">
        <ele>518.474</ele>
        <time>2022-08-25T08:10:52Z</time>
      </trkpt>
      <trkpt lat="42.75982299999996" lon="-1.7134060000000053">
        <ele>518.461</ele>
        <time>2022-08-25T08:10:53Z</time>
      </trkpt>
      <trkpt lat="42.75980699999996" lon="-1.7134180000000052">
        <ele>518.624</ele>
        <time>2022-08-25T08:10:54Z</time>
      </trkpt>
      <trkpt lat="42.75979299999996" lon="-1.7134310000000053">
        <ele>518.660</ele>
        <time>2022-08-25T08:10:55Z</time>
      </trkpt>
      <trkpt lat="42.75977599999996" lon="-1.7134420000000052">
        <ele>518.631</ele>
        <time>2022-08-25T08:10:56Z</time>
      </trkpt>
      <trkpt lat="42.75976099999996" lon="-1.7134540000000051">
        <ele>518.658</ele>
        <time>2022-08-25T08:10:57Z</time>
      </trkpt>
      <trkpt lat="42.75974699999996" lon="-1.713463000000005">
        <ele>518.652</ele>
        <time>2022-08-25T08:10:58Z</time>
      </trkpt>
      <trkpt lat="42.75973399999996" lon="-1.713471000000005">
        <ele>518.617</ele>
        <time>2022-08-25T08:10:59Z</time>
      </trkpt>
      <trkpt lat="42.75971799999996" lon="-1.713480000000005">
        <ele>518.809</ele>
        <time>2022-08-25T08:11:00Z</time>
      </trkpt>
      <trkpt lat="42.75970399999996" lon="-1.713489000000005">
        <ele>518.876</ele>
        <time>2022-08-25T08:11:01Z</time>
      </trkpt>
      <trkpt lat="42.75968699999996" lon="-1.713496000000005">
        <ele>519.046</ele>
        <time>2022-08-25T08:11:02Z</time>
      </trkpt>
      <trkpt lat="42.759670999999955" lon="-1.713505000000005">
        <ele>519.436</ele>
        <time>2022-08-25T08:11:03Z</time>
      </trkpt>
      <trkpt lat="42.75965299999996" lon="-1.713516000000005">
        <ele>519.432</ele>
        <time>2022-08-25T08:11:04Z</time>
      </trkpt>
      <trkpt lat="42.75963499999996" lon="-1.7135300000000049">
        <ele>519.614</ele>
        <time>2022-08-25T08:11:05Z</time>
      </trkpt>
      <trkpt lat="42.75962099999996" lon="-1.7135440000000048">
        <ele>519.841</ele>
        <time>2022-08-25T08:11:06Z</time>
      </trkpt>
      <trkpt lat="42.75960499999996" lon="-1.713551000000005">
        <ele>519.874</ele>
        <time>2022-08-25T08:11:07Z</time>
      </trkpt>
      <trkpt lat="42.759585999999956" lon="-1.713558000000005">
        <ele>519.850</ele>
        <time>2022-08-25T08:11:08Z</time>
      </trkpt>
      <trkpt lat="42.759571999999956" lon="-1.713566000000005">
        <ele>520.061</ele>
        <time>2022-08-25T08:11:09Z</time>
      </trkpt>
      <trkpt lat="42.759554999999956" lon="-1.713576000000005">
        <ele>520.228</ele>
        <time>2022-08-25T08:11:10Z</time>
      </trkpt>
      <trkpt lat="42.75953499999996" lon="-1.713588000000005">
        <ele>520.289</ele>
        <time>2022-08-25T08:11:11Z</time>
      </trkpt>
      <trkpt lat="42.75951699999996" lon="-1.713598000000005">
        <ele>520.417</ele>
        <time>2022-08-25T08:11:12Z</time>
      </trkpt>
      <trkpt lat="42.75950099999996" lon="-1.7136080000000051">
        <ele>520.409</ele>
        <time>2022-08-25T08:11:13Z</time>
      </trkpt>
      <trkpt lat="42.75948599999996" lon="-1.713617000000005">
        <ele>520.633</ele>
        <time>2022-08-25T08:11:14Z</time>
      </trkpt>
      <trkpt lat="42.75946999999996" lon="-1.7136270000000051">
        <ele>520.863</ele>
        <time>2022-08-25T08:11:15Z</time>
      </trkpt>
      <trkpt lat="42.75945599999996" lon="-1.7136340000000052">
        <ele>521.253</ele>
        <time>2022-08-25T08:11:16Z</time>
      </trkpt>
      <trkpt lat="42.759439999999955" lon="-1.7136400000000052">
        <ele>521.489</ele>
        <time>2022-08-25T08:11:17Z</time>
      </trkpt>
      <trkpt lat="42.759422999999956" lon="-1.7136470000000052">
        <ele>521.651</ele>
        <time>2022-08-25T08:11:18Z</time>
      </trkpt>
      <trkpt lat="42.759402999999956" lon="-1.7136570000000053">
        <ele>522.088</ele>
        <time>2022-08-25T08:11:19Z</time>
      </trkpt>
      <trkpt lat="42.759389999999954" lon="-1.7136640000000054">
        <ele>522.011</ele>
        <time>2022-08-25T08:11:20Z</time>
      </trkpt>
      <trkpt lat="42.759374999999956" lon="-1.7136680000000053">
        <ele>522.247</ele>
        <time>2022-08-25T08:11:21Z</time>
      </trkpt>
      <trkpt lat="42.759358999999954" lon="-1.7136760000000053">
        <ele>522.698</ele>
        <time>2022-08-25T08:11:22Z</time>
      </trkpt>
      <trkpt lat="42.75934299999995" lon="-1.7136840000000053">
        <ele>522.654</ele>
        <time>2022-08-25T08:11:23Z</time>
      </trkpt>
      <trkpt lat="42.75932599999995" lon="-1.7136920000000053">
        <ele>522.856</ele>
        <time>2022-08-25T08:11:24Z</time>
      </trkpt>
      <trkpt lat="42.759307999999955" lon="-1.7137010000000052">
        <ele>522.811</ele>
        <time>2022-08-25T08:11:25Z</time>
      </trkpt>
      <trkpt lat="42.75929199999995" lon="-1.7137090000000053">
        <ele>522.809</ele>
        <time>2022-08-25T08:11:26Z</time>
      </trkpt>
      <trkpt lat="42.75928199999995" lon="-1.7137170000000053">
        <ele>522.846</ele>
        <time>2022-08-25T08:11:27Z</time>
      </trkpt>
      <trkpt lat="42.75926899999995" lon="-1.7137260000000052">
        <ele>523.066</ele>
        <time>2022-08-25T08:11:28Z</time>
      </trkpt>
      <trkpt lat="42.75925199999995" lon="-1.7137310000000052">
        <ele>523.086</ele>
        <time>2022-08-25T08:11:29Z</time>
      </trkpt>
      <trkpt lat="42.759240999999946" lon="-1.7137380000000053">
        <ele>523.072</ele>
        <time>2022-08-25T08:11:30Z</time>
      </trkpt>
      <trkpt lat="42.759226999999946" lon="-1.7137480000000054">
        <ele>523.284</ele>
        <time>2022-08-25T08:11:31Z</time>
      </trkpt>
      <trkpt lat="42.759210999999944" lon="-1.7137580000000054">
        <ele>523.271</ele>
        <time>2022-08-25T08:11:32Z</time>
      </trkpt>
      <trkpt lat="42.75919999999994" lon="-1.7137620000000053">
        <ele>523.424</ele>
        <time>2022-08-25T08:11:33Z</time>
      </trkpt>
      <trkpt lat="42.75918599999994" lon="-1.7137690000000054">
        <ele>523.430</ele>
        <time>2022-08-25T08:11:34Z</time>
      </trkpt>
      <trkpt lat="42.75917299999994" lon="-1.7137740000000055">
        <ele>523.651</ele>
        <time>2022-08-25T08:11:35Z</time>
      </trkpt>
      <trkpt lat="42.75915899999994" lon="-1.7137820000000055">
        <ele>523.835</ele>
        <time>2022-08-25T08:11:36Z</time>
      </trkpt>
      <trkpt lat="42.75914299999994" lon="-1.7137900000000055">
        <ele>523.886</ele>
        <time>2022-08-25T08:11:37Z</time>
      </trkpt>
      <trkpt lat="42.75912599999994" lon="-1.7137960000000054">
        <ele>524.014</ele>
        <time>2022-08-25T08:11:38Z</time>
      </trkpt>
      <trkpt lat="42.759109999999936" lon="-1.7138030000000055">
        <ele>524.009</ele>
        <time>2022-08-25T08:11:39Z</time>
      </trkpt>
      <trkpt lat="42.759095999999936" lon="-1.7138110000000055">
        <ele>523.874</ele>
        <time>2022-08-25T08:11:40Z</time>
      </trkpt>
      <trkpt lat="42.759081999999935" lon="-1.7138200000000055">
        <ele>524.064</ele>
        <time>2022-08-25T08:11:41Z</time>
      </trkpt>
      <trkpt lat="42.75906699999994" lon="-1.7138280000000055">
        <ele>524.254</ele>
        <time>2022-08-25T08:11:42Z</time>
      </trkpt>
      <trkpt lat="42.75905299999994" lon="-1.7138340000000054">
        <ele>524.270</ele>
        <time>2022-08-25T08:11:43Z</time>
      </trkpt>
      <trkpt lat="42.759039999999935" lon="-1.7138410000000055">
        <ele>524.072</ele>
        <time>2022-08-25T08:11:44Z</time>
      </trkpt>
      <trkpt lat="42.759025999999935" lon="-1.7138460000000055">
        <ele>524.259</ele>
        <time>2022-08-25T08:11:45Z</time>
      </trkpt>
      <trkpt lat="42.75900999999993" lon="-1.7138510000000056">
        <ele>524.422</ele>
        <time>2022-08-25T08:11:46Z</time>
      </trkpt>
      <trkpt lat="42.75899399999993" lon="-1.7138570000000055">
        <ele>524.648</ele>
        <time>2022-08-25T08:11:47Z</time>
      </trkpt>
      <trkpt lat="42.75897899999993" lon="-1.7138620000000055">
        <ele>524.649</ele>
        <time>2022-08-25T08:11:48Z</time>
      </trkpt>
      <trkpt lat="42.758963999999935" lon="-1.7138670000000056">
        <ele>524.886</ele>
        <time>2022-08-25T08:11:49Z</time>
      </trkpt>
      <trkpt lat="42.75894799999993" lon="-1.7138740000000057">
        <ele>524.860</ele>
        <time>2022-08-25T08:11:50Z</time>
      </trkpt>
      <trkpt lat="42.75893399999993" lon="-1.7138830000000056">
        <ele>524.826</ele>
        <time>2022-08-25T08:11:51Z</time>
      </trkpt>
      <trkpt lat="42.75892099999993" lon="-1.7138930000000057">
        <ele>525.009</ele>
        <time>2022-08-25T08:11:52Z</time>
      </trkpt>
      <trkpt lat="42.75890799999993" lon="-1.7138990000000056">
        <ele>525.039</ele>
        <time>2022-08-25T08:11:53Z</time>
      </trkpt>
      <trkpt lat="42.758891999999925" lon="-1.7139060000000057">
        <ele>525.249</ele>
        <time>2022-08-25T08:11:54Z</time>
      </trkpt>
      <trkpt lat="42.758877999999925" lon="-1.7139140000000057">
        <ele>525.269</ele>
        <time>2022-08-25T08:11:55Z</time>
      </trkpt>
      <trkpt lat="42.758863999999924" lon="-1.7139200000000057">
        <ele>525.245</ele>
        <time>2022-08-25T08:11:56Z</time>
      </trkpt>
      <trkpt lat="42.75884899999993" lon="-1.7139290000000056">
        <ele>525.427</ele>
        <time>2022-08-25T08:11:57Z</time>
      </trkpt>
      <trkpt lat="42.758832999999925" lon="-1.7139360000000057">
        <ele>525.434</ele>
        <time>2022-08-25T08:11:58Z</time>
      </trkpt>
      <trkpt lat="42.75880299999992" lon="-1.7139480000000056">
        <ele>525.637</ele>
        <time>2022-08-25T08:12:00Z</time>
      </trkpt>
      <trkpt lat="42.75873599999992" lon="-1.7139780000000056">
        <ele>526.033</ele>
        <time>2022-08-25T08:12:04Z</time>
      </trkpt>
      <trkpt lat="42.75872199999992" lon="-1.7139880000000056">
        <ele>526.264</ele>
        <time>2022-08-25T08:12:05Z</time>
      </trkpt>
      <trkpt lat="42.75870599999992" lon="-1.7139970000000055">
        <ele>526.292</ele>
        <time>2022-08-25T08:12:06Z</time>
      </trkpt>
      <trkpt lat="42.75868899999992" lon="-1.7140030000000055">
        <ele>526.273</ele>
        <time>2022-08-25T08:12:07Z</time>
      </trkpt>
      <trkpt lat="42.758672999999916" lon="-1.7140100000000056">
        <ele>526.620</ele>
        <time>2022-08-25T08:12:09Z</time>
      </trkpt>
      <trkpt lat="42.75864099999992" lon="-1.7140290000000056">
        <ele>526.609</ele>
        <time>2022-08-25T08:12:10Z</time>
      </trkpt>
      <trkpt lat="42.75859699999992" lon="-1.7140540000000055">
        <ele>526.860</ele>
        <time>2022-08-25T08:12:13Z</time>
      </trkpt>
      <trkpt lat="42.758551999999916" lon="-1.7140850000000054">
        <ele>527.010</ele>
        <time>2022-08-25T08:12:16Z</time>
      </trkpt>
      <trkpt lat="42.758504999999914" lon="-1.7141100000000054">
        <ele>527.420</ele>
        <time>2022-08-25T08:12:19Z</time>
      </trkpt>
      <trkpt lat="42.758487999999915" lon="-1.7141190000000053">
        <ele>527.626</ele>
        <time>2022-08-25T08:12:20Z</time>
      </trkpt>
      <trkpt lat="42.75847499999991" lon="-1.7141270000000053">
        <ele>527.648</ele>
        <time>2022-08-25T08:12:21Z</time>
      </trkpt>
      <trkpt lat="42.758462999999914" lon="-1.7141360000000052">
        <ele>528.035</ele>
        <time>2022-08-25T08:12:22Z</time>
      </trkpt>
      <trkpt lat="42.758450999999916" lon="-1.7141470000000052">
        <ele>528.268</ele>
        <time>2022-08-25T08:12:23Z</time>
      </trkpt>
      <trkpt lat="42.75840399999991" lon="-1.714178000000005">
        <ele>528.424</ele>
        <time>2022-08-25T08:12:26Z</time>
      </trkpt>
      <trkpt lat="42.758385999999916" lon="-1.7141880000000052">
        <ele>528.495</ele>
        <time>2022-08-25T08:12:27Z</time>
      </trkpt>
      <trkpt lat="42.75836899999992" lon="-1.7141990000000051">
        <ele>528.476</ele>
        <time>2022-08-25T08:12:28Z</time>
      </trkpt>
      <trkpt lat="42.75835399999992" lon="-1.714208000000005">
        <ele>528.690</ele>
        <time>2022-08-25T08:12:29Z</time>
      </trkpt>
      <trkpt lat="42.758340999999916" lon="-1.714214000000005">
        <ele>528.619</ele>
        <time>2022-08-25T08:12:30Z</time>
      </trkpt>
      <trkpt lat="42.758324999999914" lon="-1.714222000000005">
        <ele>528.809</ele>
        <time>2022-08-25T08:12:31Z</time>
      </trkpt>
      <trkpt lat="42.758312999999916" lon="-1.714231000000005">
        <ele>528.878</ele>
        <time>2022-08-25T08:12:32Z</time>
      </trkpt>
      <trkpt lat="42.758298999999916" lon="-1.714239000000005">
        <ele>528.888</ele>
        <time>2022-08-25T08:12:33Z</time>
      </trkpt>
      <trkpt lat="42.75828599999991" lon="-1.714244000000005">
        <ele>529.028</ele>
        <time>2022-08-25T08:12:34Z</time>
      </trkpt>
      <trkpt lat="42.75827199999991" lon="-1.7142480000000049">
        <ele>529.264</ele>
        <time>2022-08-25T08:12:35Z</time>
      </trkpt>
      <trkpt lat="42.75825799999991" lon="-1.714250000000005">
        <ele>529.466</ele>
        <time>2022-08-25T08:12:36Z</time>
      </trkpt>
      <trkpt lat="42.75824499999991" lon="-1.714255000000005">
        <ele>529.663</ele>
        <time>2022-08-25T08:12:37Z</time>
      </trkpt>
      <trkpt lat="42.75823099999991" lon="-1.714261000000005">
        <ele>529.846</ele>
        <time>2022-08-25T08:12:38Z</time>
      </trkpt>
      <trkpt lat="42.75821499999991" lon="-1.714269000000005">
        <ele>530.052</ele>
        <time>2022-08-25T08:12:39Z</time>
      </trkpt>
      <trkpt lat="42.758201999999905" lon="-1.7142780000000049">
        <ele>530.023</ele>
        <time>2022-08-25T08:12:40Z</time>
      </trkpt>
      <trkpt lat="42.758187999999905" lon="-1.7142830000000049">
        <ele>530.017</ele>
        <time>2022-08-25T08:12:41Z</time>
      </trkpt>
      <trkpt lat="42.75817299999991" lon="-1.714288000000005">
        <ele>530.287</ele>
        <time>2022-08-25T08:12:42Z</time>
      </trkpt>
      <trkpt lat="42.758159999999904" lon="-1.714291000000005">
        <ele>530.415</ele>
        <time>2022-08-25T08:12:43Z</time>
      </trkpt>
      <trkpt lat="42.75814499999991" lon="-1.714298000000005">
        <ele>530.409</ele>
        <time>2022-08-25T08:12:44Z</time>
      </trkpt>
      <trkpt lat="42.758131999999904" lon="-1.714305000000005">
        <ele>530.672</ele>
        <time>2022-08-25T08:12:45Z</time>
      </trkpt>
      <trkpt lat="42.758116999999906" lon="-1.714313000000005">
        <ele>530.812</ele>
        <time>2022-08-25T08:12:46Z</time>
      </trkpt>
      <trkpt lat="42.758102999999906" lon="-1.714321000000005">
        <ele>530.882</ele>
        <time>2022-08-25T08:12:47Z</time>
      </trkpt>
      <trkpt lat="42.758088999999906" lon="-1.714332000000005">
        <ele>531.028</ele>
        <time>2022-08-25T08:12:48Z</time>
      </trkpt>
      <trkpt lat="42.7580789999999" lon="-1.714338000000005">
        <ele>531.040</ele>
        <time>2022-08-25T08:12:49Z</time>
      </trkpt>
      <trkpt lat="42.758063999999905" lon="-1.714343000000005">
        <ele>531.067</ele>
        <time>2022-08-25T08:12:50Z</time>
      </trkpt>
      <trkpt lat="42.7580479999999" lon="-1.7143450000000051">
        <ele>531.020</ele>
        <time>2022-08-25T08:12:51Z</time>
      </trkpt>
      <trkpt lat="42.7580259999999" lon="-1.7143520000000052">
        <ele>531.266</ele>
        <time>2022-08-25T08:12:52Z</time>
      </trkpt>
      <trkpt lat="42.758010999999904" lon="-1.7143620000000053">
        <ele>531.427</ele>
        <time>2022-08-25T08:12:53Z</time>
      </trkpt>
      <trkpt lat="42.7579979999999" lon="-1.7143730000000053">
        <ele>531.431</ele>
        <time>2022-08-25T08:12:54Z</time>
      </trkpt>
      <trkpt lat="42.7579889999999" lon="-1.7143800000000053">
        <ele>531.661</ele>
        <time>2022-08-25T08:12:55Z</time>
      </trkpt>
      <trkpt lat="42.757976999999904" lon="-1.7143880000000054">
        <ele>531.607</ele>
        <time>2022-08-25T08:12:56Z</time>
      </trkpt>
      <trkpt lat="42.7579609999999" lon="-1.7143920000000052">
        <ele>531.809</ele>
        <time>2022-08-25T08:12:57Z</time>
      </trkpt>
      <trkpt lat="42.757945999999905" lon="-1.7143970000000053">
        <ele>531.854</ele>
        <time>2022-08-25T08:12:58Z</time>
      </trkpt>
      <trkpt lat="42.757933999999906" lon="-1.7144050000000053">
        <ele>531.864</ele>
        <time>2022-08-25T08:12:59Z</time>
      </trkpt>
      <trkpt lat="42.7579239999999" lon="-1.7144120000000054">
        <ele>531.844</ele>
        <time>2022-08-25T08:13:00Z</time>
      </trkpt>
      <trkpt lat="42.757911999999905" lon="-1.7144200000000054">
        <ele>532.030</ele>
        <time>2022-08-25T08:13:01Z</time>
      </trkpt>
      <trkpt lat="42.7578959999999" lon="-1.7144230000000054">
        <ele>532.022</ele>
        <time>2022-08-25T08:13:02Z</time>
      </trkpt>
      <trkpt lat="42.7578819999999" lon="-1.7144250000000054">
        <ele>532.269</ele>
        <time>2022-08-25T08:13:03Z</time>
      </trkpt>
      <trkpt lat="42.757866999999905" lon="-1.7144320000000055">
        <ele>532.282</ele>
        <time>2022-08-25T08:13:04Z</time>
      </trkpt>
      <trkpt lat="42.757857999999906" lon="-1.7144370000000055">
        <ele>532.438</ele>
        <time>2022-08-25T08:13:05Z</time>
      </trkpt>
      <trkpt lat="42.757844999999904" lon="-1.7144440000000056">
        <ele>532.489</ele>
        <time>2022-08-25T08:13:06Z</time>
      </trkpt>
      <trkpt lat="42.757832999999906" lon="-1.7144520000000056">
        <ele>532.651</ele>
        <time>2022-08-25T08:13:07Z</time>
      </trkpt>
      <trkpt lat="42.7578169999999" lon="-1.7144580000000056">
        <ele>532.801</ele>
        <time>2022-08-25T08:13:08Z</time>
      </trkpt>
      <trkpt lat="42.757799999999904" lon="-1.7144650000000057">
        <ele>533.011</ele>
        <time>2022-08-25T08:13:09Z</time>
      </trkpt>
      <trkpt lat="42.757765999999904" lon="-1.7145010000000056">
        <ele>533.409</ele>
        <time>2022-08-25T08:13:12Z</time>
      </trkpt>
      <trkpt lat="42.757751999999904" lon="-1.7145110000000057">
        <ele>533.426</ele>
        <time>2022-08-25T08:13:13Z</time>
      </trkpt>
      <trkpt lat="42.7577409999999" lon="-1.7145170000000056">
        <ele>533.666</ele>
        <time>2022-08-25T08:13:14Z</time>
      </trkpt>
      <trkpt lat="42.757725999999906" lon="-1.7145210000000055">
        <ele>533.646</ele>
        <time>2022-08-25T08:13:15Z</time>
      </trkpt>
      <trkpt lat="42.757714999999905" lon="-1.7145260000000055">
        <ele>533.672</ele>
        <time>2022-08-25T08:13:16Z</time>
      </trkpt>
      <trkpt lat="42.757700999999905" lon="-1.7145330000000056">
        <ele>533.864</ele>
        <time>2022-08-25T08:13:17Z</time>
      </trkpt>
      <trkpt lat="42.757683999999905" lon="-1.7145410000000056">
        <ele>533.851</ele>
        <time>2022-08-25T08:13:18Z</time>
      </trkpt>
      <trkpt lat="42.7576679999999" lon="-1.7145490000000057">
        <ele>533.874</ele>
        <time>2022-08-25T08:13:19Z</time>
      </trkpt>
      <trkpt lat="42.7576539999999" lon="-1.7145570000000057">
        <ele>534.030</ele>
        <time>2022-08-25T08:13:20Z</time>
      </trkpt>
      <trkpt lat="42.757638999999905" lon="-1.7145650000000057">
        <ele>534.021</ele>
        <time>2022-08-25T08:13:21Z</time>
      </trkpt>
      <trkpt lat="42.75762699999991" lon="-1.7145730000000057">
        <ele>534.236</ele>
        <time>2022-08-25T08:13:22Z</time>
      </trkpt>
      <trkpt lat="42.757599999999904" lon="-1.7145830000000057">
        <ele>534.217</ele>
        <time>2022-08-25T08:13:23Z</time>
      </trkpt>
      <trkpt lat="42.757587999999906" lon="-1.7145910000000057">
        <ele>534.418</ele>
        <time>2022-08-25T08:13:24Z</time>
      </trkpt>
      <trkpt lat="42.75757599999991" lon="-1.7145990000000058">
        <ele>534.409</ele>
        <time>2022-08-25T08:13:25Z</time>
      </trkpt>
      <trkpt lat="42.75756699999991" lon="-1.7146040000000058">
        <ele>534.434</ele>
        <time>2022-08-25T08:13:26Z</time>
      </trkpt>
      <trkpt lat="42.75752999999991" lon="-1.7146240000000057">
        <ele>534.654</ele>
        <time>2022-08-25T08:13:29Z</time>
      </trkpt>
      <trkpt lat="42.75751899999991" lon="-1.7146330000000056">
        <ele>534.614</ele>
        <time>2022-08-25T08:13:30Z</time>
      </trkpt>
      <trkpt lat="42.75747699999991" lon="-1.7146580000000056">
        <ele>535.050</ele>
        <time>2022-08-25T08:13:33Z</time>
      </trkpt>
      <trkpt lat="42.75743499999991" lon="-1.7146740000000056">
        <ele>535.092</ele>
        <time>2022-08-25T08:13:36Z</time>
      </trkpt>
      <trkpt lat="42.757424999999905" lon="-1.7146800000000055">
        <ele>535.059</ele>
        <time>2022-08-25T08:13:37Z</time>
      </trkpt>
      <trkpt lat="42.757413999999905" lon="-1.7146900000000056">
        <ele>535.282</ele>
        <time>2022-08-25T08:13:38Z</time>
      </trkpt>
      <trkpt lat="42.75740199999991" lon="-1.7146970000000057">
        <ele>535.278</ele>
        <time>2022-08-25T08:13:39Z</time>
      </trkpt>
      <trkpt lat="42.75738699999991" lon="-1.7147060000000056">
        <ele>535.279</ele>
        <time>2022-08-25T08:13:40Z</time>
      </trkpt>
      <trkpt lat="42.75737999999991" lon="-1.7147120000000056">
        <ele>535.467</ele>
        <time>2022-08-25T08:13:41Z</time>
      </trkpt>
      <trkpt lat="42.75736599999991" lon="-1.7147210000000055">
        <ele>535.681</ele>
        <time>2022-08-25T08:13:42Z</time>
      </trkpt>
      <trkpt lat="42.757274999999915" lon="-1.7147730000000054">
        <ele>535.819</ele>
        <time>2022-08-25T08:13:48Z</time>
      </trkpt>
      <trkpt lat="42.75726199999991" lon="-1.7147810000000054">
        <ele>536.009</ele>
        <time>2022-08-25T08:13:49Z</time>
      </trkpt>
      <trkpt lat="42.75723899999991" lon="-1.7148000000000054">
        <ele>536.087</ele>
        <time>2022-08-25T08:13:51Z</time>
      </trkpt>
      <trkpt lat="42.75722599999991" lon="-1.7148060000000054">
        <ele>536.287</ele>
        <time>2022-08-25T08:13:52Z</time>
      </trkpt>
      <trkpt lat="42.75720899999991" lon="-1.7148150000000053">
        <ele>536.277</ele>
        <time>2022-08-25T08:13:53Z</time>
      </trkpt>
      <trkpt lat="42.75713599999991" lon="-1.7148740000000053">
        <ele>536.443</ele>
        <time>2022-08-25T08:13:58Z</time>
      </trkpt>
      <trkpt lat="42.75712499999991" lon="-1.7148840000000054">
        <ele>536.425</ele>
        <time>2022-08-25T08:13:59Z</time>
      </trkpt>
      <trkpt lat="42.75711699999991" lon="-1.7148900000000054">
        <ele>536.462</ele>
        <time>2022-08-25T08:14:00Z</time>
      </trkpt>
      <trkpt lat="42.75710599999991" lon="-1.7148950000000054">
        <ele>536.625</ele>
        <time>2022-08-25T08:14:01Z</time>
      </trkpt>
      <trkpt lat="42.757089999999906" lon="-1.7149010000000053">
        <ele>536.611</ele>
        <time>2022-08-25T08:14:02Z</time>
      </trkpt>
      <trkpt lat="42.757075999999905" lon="-1.7149040000000053">
        <ele>536.652</ele>
        <time>2022-08-25T08:14:03Z</time>
      </trkpt>
      <trkpt lat="42.7570069999999" lon="-1.7149390000000053">
        <ele>537.077</ele>
        <time>2022-08-25T08:14:08Z</time>
      </trkpt>
      <trkpt lat="42.7569969999999" lon="-1.7149430000000052">
        <ele>537.061</ele>
        <time>2022-08-25T08:14:09Z</time>
      </trkpt>
      <trkpt lat="42.7569689999999" lon="-1.7149510000000052">
        <ele>537.227</ele>
        <time>2022-08-25T08:14:11Z</time>
      </trkpt>
      <trkpt lat="42.7569539999999" lon="-1.7149590000000052">
        <ele>537.209</ele>
        <time>2022-08-25T08:14:12Z</time>
      </trkpt>
      <trkpt lat="42.7569239999999" lon="-1.7149860000000052">
        <ele>537.688</ele>
        <time>2022-08-25T08:14:15Z</time>
      </trkpt>
      <trkpt lat="42.7569089999999" lon="-1.7150010000000053">
        <ele>537.628</ele>
        <time>2022-08-25T08:14:16Z</time>
      </trkpt>
      <trkpt lat="42.7568689999999" lon="-1.7150320000000052">
        <ele>537.638</ele>
        <time>2022-08-25T08:14:19Z</time>
      </trkpt>
      <trkpt lat="42.756853999999905" lon="-1.7150430000000052">
        <ele>537.874</ele>
        <time>2022-08-25T08:14:20Z</time>
      </trkpt>
      <trkpt lat="42.756827999999906" lon="-1.7150630000000051">
        <ele>538.076</ele>
        <time>2022-08-25T08:14:22Z</time>
      </trkpt>
      <trkpt lat="42.75681899999991" lon="-1.715072000000005">
        <ele>538.033</ele>
        <time>2022-08-25T08:14:23Z</time>
      </trkpt>
      <trkpt lat="42.75672299999991" lon="-1.715154000000005">
        <ele>538.636</ele>
        <time>2022-08-25T08:14:30Z</time>
      </trkpt>
      <trkpt lat="42.756709999999906" lon="-1.7151660000000049">
        <ele>538.822</ele>
        <time>2022-08-25T08:14:31Z</time>
      </trkpt>
      <trkpt lat="42.756695999999906" lon="-1.7151770000000048">
        <ele>539.273</ele>
        <time>2022-08-25T08:14:32Z</time>
      </trkpt>
      <trkpt lat="42.756684999999905" lon="-1.715184000000005">
        <ele>539.238</ele>
        <time>2022-08-25T08:14:33Z</time>
      </trkpt>
      <trkpt lat="42.7566349999999" lon="-1.715227000000005">
        <ele>539.670</ele>
        <time>2022-08-25T08:14:37Z</time>
      </trkpt>
      <trkpt lat="42.7566049999999" lon="-1.715246000000005">
        <ele>539.617</ele>
        <time>2022-08-25T08:14:39Z</time>
      </trkpt>
      <trkpt lat="42.756538999999904" lon="-1.715286000000005">
        <ele>539.809</ele>
        <time>2022-08-25T08:14:44Z</time>
      </trkpt>
      <trkpt lat="42.756529999999906" lon="-1.715293000000005">
        <ele>539.824</ele>
        <time>2022-08-25T08:14:45Z</time>
      </trkpt>
      <trkpt lat="42.75651499999991" lon="-1.715302000000005">
        <ele>540.274</ele>
        <time>2022-08-25T08:14:46Z</time>
      </trkpt>
      <trkpt lat="42.75650799999991" lon="-1.715310000000005">
        <ele>540.294</ele>
        <time>2022-08-25T08:14:47Z</time>
      </trkpt>
      <trkpt lat="42.75649799999991" lon="-1.715323000000005">
        <ele>540.470</ele>
        <time>2022-08-25T08:14:48Z</time>
      </trkpt>
      <trkpt lat="42.75644199999991" lon="-1.7153760000000051">
        <ele>541.222</ele>
        <time>2022-08-25T08:14:53Z</time>
      </trkpt>
      <trkpt lat="42.75642999999991" lon="-1.7153860000000052">
        <ele>541.479</ele>
        <time>2022-08-25T08:14:54Z</time>
      </trkpt>
      <trkpt lat="42.75641799999991" lon="-1.715395000000005">
        <ele>541.432</ele>
        <time>2022-08-25T08:14:55Z</time>
      </trkpt>
      <trkpt lat="42.75640599999991" lon="-1.715406000000005">
        <ele>541.668</ele>
        <time>2022-08-25T08:14:56Z</time>
      </trkpt>
      <trkpt lat="42.756393999999915" lon="-1.7154190000000051">
        <ele>541.689</ele>
        <time>2022-08-25T08:14:57Z</time>
      </trkpt>
      <trkpt lat="42.756379999999915" lon="-1.715431000000005">
        <ele>541.667</ele>
        <time>2022-08-25T08:14:58Z</time>
      </trkpt>
      <trkpt lat="42.75636199999992" lon="-1.7154460000000051">
        <ele>541.681</ele>
        <time>2022-08-25T08:14:59Z</time>
      </trkpt>
      <trkpt lat="42.756348999999915" lon="-1.715458000000005">
        <ele>541.619</ele>
        <time>2022-08-25T08:15:00Z</time>
      </trkpt>
      <trkpt lat="42.756334999999915" lon="-1.715469000000005">
        <ele>541.609</ele>
        <time>2022-08-25T08:15:01Z</time>
      </trkpt>
      <trkpt lat="42.75632499999991" lon="-1.715480000000005">
        <ele>541.887</ele>
        <time>2022-08-25T08:15:02Z</time>
      </trkpt>
      <trkpt lat="42.75631199999991" lon="-1.715494000000005">
        <ele>541.817</ele>
        <time>2022-08-25T08:15:03Z</time>
      </trkpt>
      <trkpt lat="42.75629699999991" lon="-1.715511000000005">
        <ele>542.087</ele>
        <time>2022-08-25T08:15:04Z</time>
      </trkpt>
      <trkpt lat="42.75628399999991" lon="-1.7155250000000049">
        <ele>542.033</ele>
        <time>2022-08-25T08:15:05Z</time>
      </trkpt>
      <trkpt lat="42.75626999999991" lon="-1.715535000000005">
        <ele>542.025</ele>
        <time>2022-08-25T08:15:06Z</time>
      </trkpt>
      <trkpt lat="42.75623299999991" lon="-1.715569000000005">
        <ele>542.282</ele>
        <time>2022-08-25T08:15:09Z</time>
      </trkpt>
      <trkpt lat="42.75621799999991" lon="-1.715584000000005">
        <ele>542.475</ele>
        <time>2022-08-25T08:15:10Z</time>
      </trkpt>
      <trkpt lat="42.75615299999991" lon="-1.7156400000000052">
        <ele>542.841</ele>
        <time>2022-08-25T08:15:15Z</time>
      </trkpt>
      <trkpt lat="42.75612899999991" lon="-1.7156610000000052">
        <ele>543.032</ele>
        <time>2022-08-25T08:15:17Z</time>
      </trkpt>
      <trkpt lat="42.756059999999906" lon="-1.7157110000000053">
        <ele>543.483</ele>
        <time>2022-08-25T08:15:22Z</time>
      </trkpt>
      <trkpt lat="42.75603699999991" lon="-1.7157340000000054">
        <ele>543.625</ele>
        <time>2022-08-25T08:15:24Z</time>
      </trkpt>
      <trkpt lat="42.756011999999906" lon="-1.7157650000000053">
        <ele>543.617</ele>
        <time>2022-08-25T08:15:26Z</time>
      </trkpt>
      <trkpt lat="42.755961999999904" lon="-1.7158060000000053">
        <ele>544.009</ele>
        <time>2022-08-25T08:15:30Z</time>
      </trkpt>
      <trkpt lat="42.75593299999991" lon="-1.7158300000000053">
        <ele>544.259</ele>
        <time>2022-08-25T08:15:32Z</time>
      </trkpt>
      <trkpt lat="42.755907999999906" lon="-1.7158470000000052">
        <ele>544.449</ele>
        <time>2022-08-25T08:15:34Z</time>
      </trkpt>
      <trkpt lat="42.7558949999999" lon="-1.7158570000000053">
        <ele>544.429</ele>
        <time>2022-08-25T08:15:35Z</time>
      </trkpt>
      <trkpt lat="42.755879999999905" lon="-1.7158680000000053">
        <ele>544.655</ele>
        <time>2022-08-25T08:15:36Z</time>
      </trkpt>
      <trkpt lat="42.755865999999905" lon="-1.7158760000000053">
        <ele>544.627</ele>
        <time>2022-08-25T08:15:37Z</time>
      </trkpt>
      <trkpt lat="42.7558499999999" lon="-1.7158840000000053">
        <ele>544.674</ele>
        <time>2022-08-25T08:15:38Z</time>
      </trkpt>
      <trkpt lat="42.755772999999905" lon="-1.7159280000000052">
        <ele>544.497</ele>
        <time>2022-08-25T08:15:43Z</time>
      </trkpt>
      <trkpt lat="42.755682999999905" lon="-1.7159890000000053">
        <ele>544.643</ele>
        <time>2022-08-25T08:15:49Z</time>
      </trkpt>
      <trkpt lat="42.7556669999999" lon="-1.7160000000000053">
        <ele>544.634</ele>
        <time>2022-08-25T08:15:50Z</time>
      </trkpt>
      <trkpt lat="42.755632999999904" lon="-1.7160220000000053">
        <ele>544.649</ele>
        <time>2022-08-25T08:15:52Z</time>
      </trkpt>
      <trkpt lat="42.7555489999999" lon="-1.7160950000000053">
        <ele>545.002</ele>
        <time>2022-08-25T08:15:57Z</time>
      </trkpt>
      <trkpt lat="42.7555349999999" lon="-1.7161100000000054">
        <ele>545.022</ele>
        <time>2022-08-25T08:15:58Z</time>
      </trkpt>
      <trkpt lat="42.7555239999999" lon="-1.7161240000000053">
        <ele>545.009</ele>
        <time>2022-08-25T08:15:59Z</time>
      </trkpt>
      <trkpt lat="42.7555109999999" lon="-1.7161370000000054">
        <ele>545.035</ele>
        <time>2022-08-25T08:16:00Z</time>
      </trkpt>
      <trkpt lat="42.7554719999999" lon="-1.7161750000000053">
        <ele>545.085</ele>
        <time>2022-08-25T08:16:02Z</time>
      </trkpt>
      <trkpt lat="42.7554569999999" lon="-1.7161890000000053">
        <ele>545.025</ele>
        <time>2022-08-25T08:16:03Z</time>
      </trkpt>
      <trkpt lat="42.7554459999999" lon="-1.7161990000000054">
        <ele>545.061</ele>
        <time>2022-08-25T08:16:04Z</time>
      </trkpt>
      <trkpt lat="42.7554339999999" lon="-1.7162080000000053">
        <ele>545.053</ele>
        <time>2022-08-25T08:16:05Z</time>
      </trkpt>
      <trkpt lat="42.7553699999999" lon="-1.7162810000000053">
        <ele>545.020</ele>
        <time>2022-08-25T08:16:09Z</time>
      </trkpt>
      <trkpt lat="42.7553479999999" lon="-1.7163030000000052">
        <ele>545.253</ele>
        <time>2022-08-25T08:16:11Z</time>
      </trkpt>
      <trkpt lat="42.7553359999999" lon="-1.7163180000000053">
        <ele>545.239</ele>
        <time>2022-08-25T08:16:12Z</time>
      </trkpt>
      <trkpt lat="42.7553189999999" lon="-1.7163400000000053">
        <ele>545.240</ele>
        <time>2022-08-25T08:16:13Z</time>
      </trkpt>
      <trkpt lat="42.7552789999999" lon="-1.7163870000000052">
        <ele>545.636</ele>
        <time>2022-08-25T08:16:16Z</time>
      </trkpt>
      <trkpt lat="42.7552649999999" lon="-1.7164050000000053">
        <ele>545.617</ele>
        <time>2022-08-25T08:16:17Z</time>
      </trkpt>
      <trkpt lat="42.7552289999999" lon="-1.7164380000000052">
        <ele>546.018</ele>
        <time>2022-08-25T08:16:19Z</time>
      </trkpt>
      <trkpt lat="42.7552009999999" lon="-1.7164610000000053">
        <ele>546.409</ele>
        <time>2022-08-25T08:16:21Z</time>
      </trkpt>
      <trkpt lat="42.7551849999999" lon="-1.7164730000000052">
        <ele>546.684</ele>
        <time>2022-08-25T08:16:22Z</time>
      </trkpt>
      <trkpt lat="42.755098999999895" lon="-1.7165570000000052">
        <ele>546.894</ele>
        <time>2022-08-25T08:16:27Z</time>
      </trkpt>
      <trkpt lat="42.755084999999895" lon="-1.7165720000000053">
        <ele>547.294</ele>
        <time>2022-08-25T08:16:28Z</time>
      </trkpt>
      <trkpt lat="42.7550669999999" lon="-1.7165910000000053">
        <ele>547.450</ele>
        <time>2022-08-25T08:16:29Z</time>
      </trkpt>
      <trkpt lat="42.7550489999999" lon="-1.7166060000000054">
        <ele>547.642</ele>
        <time>2022-08-25T08:16:30Z</time>
      </trkpt>
      <trkpt lat="42.7549839999999" lon="-1.7166630000000054">
        <ele>548.439</ele>
        <time>2022-08-25T08:16:34Z</time>
      </trkpt>
      <trkpt lat="42.7549699999999" lon="-1.7166760000000054">
        <ele>548.422</ele>
        <time>2022-08-25T08:16:35Z</time>
      </trkpt>
      <trkpt lat="42.7549549999999" lon="-1.7166900000000054">
        <ele>548.638</ele>
        <time>2022-08-25T08:16:36Z</time>
      </trkpt>
      <trkpt lat="42.7549439999999" lon="-1.7167010000000054">
        <ele>548.829</ele>
        <time>2022-08-25T08:16:37Z</time>
      </trkpt>
      <trkpt lat="42.7549299999999" lon="-1.7167140000000054">
        <ele>549.089</ele>
        <time>2022-08-25T08:16:38Z</time>
      </trkpt>
      <trkpt lat="42.754914999999905" lon="-1.7167260000000053">
        <ele>549.206</ele>
        <time>2022-08-25T08:16:39Z</time>
      </trkpt>
      <trkpt lat="42.7548989999999" lon="-1.7167390000000053">
        <ele>549.426</ele>
        <time>2022-08-25T08:16:40Z</time>
      </trkpt>
      <trkpt lat="42.7548889999999" lon="-1.7167490000000054">
        <ele>549.809</ele>
        <time>2022-08-25T08:16:41Z</time>
      </trkpt>
      <trkpt lat="42.754878999999896" lon="-1.7167590000000055">
        <ele>550.219</ele>
        <time>2022-08-25T08:16:42Z</time>
      </trkpt>
      <trkpt lat="42.754867999999895" lon="-1.7167660000000056">
        <ele>550.239</ele>
        <time>2022-08-25T08:16:43Z</time>
      </trkpt>
      <trkpt lat="42.754856999999895" lon="-1.7167750000000055">
        <ele>550.459</ele>
        <time>2022-08-25T08:16:44Z</time>
      </trkpt>
      <trkpt lat="42.75484399999989" lon="-1.7167800000000055">
        <ele>550.445</ele>
        <time>2022-08-25T08:16:45Z</time>
      </trkpt>
      <trkpt lat="42.754831999999894" lon="-1.7167880000000055">
        <ele>550.667</ele>
        <time>2022-08-25T08:16:46Z</time>
      </trkpt>
      <trkpt lat="42.754819999999896" lon="-1.7167980000000056">
        <ele>550.654</ele>
        <time>2022-08-25T08:16:47Z</time>
      </trkpt>
      <trkpt lat="42.75480699999989" lon="-1.7168090000000056">
        <ele>550.887</ele>
        <time>2022-08-25T08:16:48Z</time>
      </trkpt>
      <trkpt lat="42.754794999999895" lon="-1.7168180000000055">
        <ele>550.873</ele>
        <time>2022-08-25T08:16:49Z</time>
      </trkpt>
      <trkpt lat="42.754783999999894" lon="-1.7168230000000055">
        <ele>550.844</ele>
        <time>2022-08-25T08:16:50Z</time>
      </trkpt>
      <trkpt lat="42.754772999999894" lon="-1.7168300000000056">
        <ele>551.064</ele>
        <time>2022-08-25T08:16:51Z</time>
      </trkpt>
      <trkpt lat="42.75476499999989" lon="-1.7168350000000057">
        <ele>551.006</ele>
        <time>2022-08-25T08:16:52Z</time>
      </trkpt>
      <trkpt lat="42.75475099999989" lon="-1.7168470000000056">
        <ele>551.216</ele>
        <time>2022-08-25T08:16:53Z</time>
      </trkpt>
      <trkpt lat="42.75473999999989" lon="-1.7168580000000055">
        <ele>551.409</ele>
        <time>2022-08-25T08:16:54Z</time>
      </trkpt>
      <trkpt lat="42.75472899999989" lon="-1.7168700000000054">
        <ele>551.457</ele>
        <time>2022-08-25T08:16:55Z</time>
      </trkpt>
      <trkpt lat="42.75471999999989" lon="-1.7168780000000055">
        <ele>551.477</ele>
        <time>2022-08-25T08:16:56Z</time>
      </trkpt>
      <trkpt lat="42.75470699999989" lon="-1.7168890000000054">
        <ele>551.467</ele>
        <time>2022-08-25T08:16:57Z</time>
      </trkpt>
      <trkpt lat="42.75469199999989" lon="-1.7169020000000055">
        <ele>551.683</ele>
        <time>2022-08-25T08:16:58Z</time>
      </trkpt>
      <trkpt lat="42.754679999999894" lon="-1.7169120000000055">
        <ele>551.675</ele>
        <time>2022-08-25T08:16:59Z</time>
      </trkpt>
      <trkpt lat="42.75466999999989" lon="-1.7169210000000055">
        <ele>551.852</ele>
        <time>2022-08-25T08:17:00Z</time>
      </trkpt>
      <trkpt lat="42.75466199999989" lon="-1.7169300000000054">
        <ele>552.035</ele>
        <time>2022-08-25T08:17:01Z</time>
      </trkpt>
      <trkpt lat="42.75465299999989" lon="-1.7169400000000055">
        <ele>552.071</ele>
        <time>2022-08-25T08:17:02Z</time>
      </trkpt>
      <trkpt lat="42.75464199999989" lon="-1.7169500000000055">
        <ele>552.272</ele>
        <time>2022-08-25T08:17:03Z</time>
      </trkpt>
      <trkpt lat="42.75463099999989" lon="-1.7169590000000055">
        <ele>552.223</ele>
        <time>2022-08-25T08:17:04Z</time>
      </trkpt>
      <trkpt lat="42.75461999999989" lon="-1.7169700000000054">
        <ele>552.483</ele>
        <time>2022-08-25T08:17:05Z</time>
      </trkpt>
      <trkpt lat="42.75460799999989" lon="-1.7169760000000054">
        <ele>552.411</ele>
        <time>2022-08-25T08:17:06Z</time>
      </trkpt>
      <trkpt lat="42.75459599999989" lon="-1.7169810000000054">
        <ele>552.809</ele>
        <time>2022-08-25T08:17:07Z</time>
      </trkpt>
      <trkpt lat="42.75458199999989" lon="-1.7169890000000054">
        <ele>552.893</ele>
        <time>2022-08-25T08:17:08Z</time>
      </trkpt>
      <trkpt lat="42.75456899999989" lon="-1.7170010000000053">
        <ele>552.843</ele>
        <time>2022-08-25T08:17:09Z</time>
      </trkpt>
      <trkpt lat="42.75455499999989" lon="-1.7170130000000052">
        <ele>553.063</ele>
        <time>2022-08-25T08:17:10Z</time>
      </trkpt>
      <trkpt lat="42.75454099999989" lon="-1.7170230000000053">
        <ele>553.089</ele>
        <time>2022-08-25T08:17:11Z</time>
      </trkpt>
      <trkpt lat="42.75452899999989" lon="-1.7170330000000054">
        <ele>553.461</ele>
        <time>2022-08-25T08:17:12Z</time>
      </trkpt>
      <trkpt lat="42.75451599999989" lon="-1.7170450000000053">
        <ele>553.688</ele>
        <time>2022-08-25T08:17:13Z</time>
      </trkpt>
      <trkpt lat="42.754502999999886" lon="-1.7170580000000053">
        <ele>554.011</ele>
        <time>2022-08-25T08:17:14Z</time>
      </trkpt>
      <trkpt lat="42.754494999999885" lon="-1.7170730000000054">
        <ele>554.287</ele>
        <time>2022-08-25T08:17:15Z</time>
      </trkpt>
      <trkpt lat="42.75448799999989" lon="-1.7170880000000055">
        <ele>554.498</ele>
        <time>2022-08-25T08:17:16Z</time>
      </trkpt>
      <trkpt lat="42.75447999999989" lon="-1.7171050000000054">
        <ele>554.621</ele>
        <time>2022-08-25T08:17:17Z</time>
      </trkpt>
      <trkpt lat="42.754471999999886" lon="-1.7171160000000054">
        <ele>554.641</ele>
        <time>2022-08-25T08:17:18Z</time>
      </trkpt>
      <trkpt lat="42.754460999999885" lon="-1.7171240000000054">
        <ele>555.005</ele>
        <time>2022-08-25T08:17:19Z</time>
      </trkpt>
      <trkpt lat="42.75445099999988" lon="-1.7171350000000054">
        <ele>555.209</ele>
        <time>2022-08-25T08:17:20Z</time>
      </trkpt>
      <trkpt lat="42.754441999999884" lon="-1.7171460000000054">
        <ele>555.243</ele>
        <time>2022-08-25T08:17:21Z</time>
      </trkpt>
      <trkpt lat="42.75443199999988" lon="-1.7171580000000053">
        <ele>555.493</ele>
        <time>2022-08-25T08:17:22Z</time>
      </trkpt>
      <trkpt lat="42.75442099999988" lon="-1.7171720000000052">
        <ele>555.473</ele>
        <time>2022-08-25T08:17:23Z</time>
      </trkpt>
      <trkpt lat="42.75440899999988" lon="-1.7171830000000052">
        <ele>555.699</ele>
        <time>2022-08-25T08:17:24Z</time>
      </trkpt>
      <trkpt lat="42.75439299999988" lon="-1.7171900000000053">
        <ele>555.851</ele>
        <time>2022-08-25T08:17:25Z</time>
      </trkpt>
      <trkpt lat="42.75437899999988" lon="-1.7171970000000054">
        <ele>556.068</ele>
        <time>2022-08-25T08:17:26Z</time>
      </trkpt>
      <trkpt lat="42.75436499999988" lon="-1.7172040000000055">
        <ele>556.221</ele>
        <time>2022-08-25T08:17:27Z</time>
      </trkpt>
      <trkpt lat="42.75435099999988" lon="-1.7172140000000056">
        <ele>556.247</ele>
        <time>2022-08-25T08:17:28Z</time>
      </trkpt>
      <trkpt lat="42.75433499999988" lon="-1.7172240000000056">
        <ele>556.478</ele>
        <time>2022-08-25T08:17:29Z</time>
      </trkpt>
      <trkpt lat="42.75432299999988" lon="-1.7172310000000057">
        <ele>556.682</ele>
        <time>2022-08-25T08:17:30Z</time>
      </trkpt>
      <trkpt lat="42.754306999999876" lon="-1.7172440000000058">
        <ele>556.843</ele>
        <time>2022-08-25T08:17:31Z</time>
      </trkpt>
      <trkpt lat="42.75429199999988" lon="-1.7172620000000058">
        <ele>556.817</ele>
        <time>2022-08-25T08:17:32Z</time>
      </trkpt>
      <trkpt lat="42.75427599999988" lon="-1.7172750000000059">
        <ele>557.009</ele>
        <time>2022-08-25T08:17:33Z</time>
      </trkpt>
      <trkpt lat="42.754262999999874" lon="-1.717282000000006">
        <ele>557.299</ele>
        <time>2022-08-25T08:17:34Z</time>
      </trkpt>
      <trkpt lat="42.754250999999876" lon="-1.717292000000006">
        <ele>557.469</ele>
        <time>2022-08-25T08:17:35Z</time>
      </trkpt>
      <trkpt lat="42.754239999999875" lon="-1.717303000000006">
        <ele>557.639</ele>
        <time>2022-08-25T08:17:36Z</time>
      </trkpt>
      <trkpt lat="42.754230999999876" lon="-1.717311000000006">
        <ele>557.855</ele>
        <time>2022-08-25T08:17:37Z</time>
      </trkpt>
      <trkpt lat="42.75421899999988" lon="-1.7173180000000061">
        <ele>558.037</ele>
        <time>2022-08-25T08:17:38Z</time>
      </trkpt>
      <trkpt lat="42.75421099999988" lon="-1.7173250000000062">
        <ele>558.274</ele>
        <time>2022-08-25T08:17:39Z</time>
      </trkpt>
      <trkpt lat="42.754197999999874" lon="-1.7173300000000062">
        <ele>558.427</ele>
        <time>2022-08-25T08:17:40Z</time>
      </trkpt>
      <trkpt lat="42.75418499999987" lon="-1.7173370000000063">
        <ele>558.633</ele>
        <time>2022-08-25T08:17:41Z</time>
      </trkpt>
      <trkpt lat="42.754172999999874" lon="-1.7173430000000063">
        <ele>558.824</ele>
        <time>2022-08-25T08:17:42Z</time>
      </trkpt>
      <trkpt lat="42.754160999999876" lon="-1.7173490000000062">
        <ele>559.035</ele>
        <time>2022-08-25T08:17:43Z</time>
      </trkpt>
      <trkpt lat="42.75415199999988" lon="-1.7173580000000062">
        <ele>559.286</ele>
        <time>2022-08-25T08:17:44Z</time>
      </trkpt>
      <trkpt lat="42.75414299999988" lon="-1.7173650000000062">
        <ele>559.414</ele>
        <time>2022-08-25T08:17:45Z</time>
      </trkpt>
      <trkpt lat="42.75413399999988" lon="-1.7173750000000063">
        <ele>559.409</ele>
        <time>2022-08-25T08:17:46Z</time>
      </trkpt>
      <trkpt lat="42.75412599999988" lon="-1.7173820000000064">
        <ele>559.884</ele>
        <time>2022-08-25T08:17:47Z</time>
      </trkpt>
      <trkpt lat="42.75411799999988" lon="-1.7173890000000065">
        <ele>560.024</ele>
        <time>2022-08-25T08:17:48Z</time>
      </trkpt>
      <trkpt lat="42.75411099999988" lon="-1.7173960000000066">
        <ele>560.034</ele>
        <time>2022-08-25T08:17:49Z</time>
      </trkpt>
      <trkpt lat="42.75409999999988" lon="-1.7174050000000065">
        <ele>560.220</ele>
        <time>2022-08-25T08:17:50Z</time>
      </trkpt>
      <trkpt lat="42.75409199999988" lon="-1.7174120000000066">
        <ele>560.272</ele>
        <time>2022-08-25T08:17:51Z</time>
      </trkpt>
      <trkpt lat="42.75408299999988" lon="-1.7174200000000066">
        <ele>560.439</ele>
        <time>2022-08-25T08:17:52Z</time>
      </trkpt>
      <trkpt lat="42.75407399999988" lon="-1.7174280000000066">
        <ele>560.822</ele>
        <time>2022-08-25T08:17:53Z</time>
      </trkpt>
      <trkpt lat="42.754066999999885" lon="-1.7174330000000066">
        <ele>560.838</ele>
        <time>2022-08-25T08:17:54Z</time>
      </trkpt>
      <trkpt lat="42.754055999999885" lon="-1.7174390000000066">
        <ele>561.079</ele>
        <time>2022-08-25T08:17:55Z</time>
      </trkpt>
      <trkpt lat="42.75404399999989" lon="-1.7174480000000065">
        <ele>561.022</ele>
        <time>2022-08-25T08:17:56Z</time>
      </trkpt>
      <trkpt lat="42.75403499999989" lon="-1.7174560000000065">
        <ele>561.262</ele>
        <time>2022-08-25T08:17:57Z</time>
      </trkpt>
      <trkpt lat="42.75402899999989" lon="-1.7174620000000065">
        <ele>561.408</ele>
        <time>2022-08-25T08:17:58Z</time>
      </trkpt>
      <trkpt lat="42.75402499999989" lon="-1.7174680000000064">
        <ele>561.409</ele>
        <time>2022-08-25T08:17:59Z</time>
      </trkpt>
      <trkpt lat="42.75401499999989" lon="-1.7174750000000065">
        <ele>561.663</ele>
        <time>2022-08-25T08:18:00Z</time>
      </trkpt>
      <trkpt lat="42.75400599999989" lon="-1.7174810000000065">
        <ele>561.613</ele>
        <time>2022-08-25T08:18:01Z</time>
      </trkpt>
      <trkpt lat="42.75399599999989" lon="-1.7174880000000066">
        <ele>561.843</ele>
        <time>2022-08-25T08:18:02Z</time>
      </trkpt>
      <trkpt lat="42.75398699999989" lon="-1.7174970000000065">
        <ele>561.839</ele>
        <time>2022-08-25T08:18:03Z</time>
      </trkpt>
      <trkpt lat="42.75397999999989" lon="-1.7175030000000064">
        <ele>562.091</ele>
        <time>2022-08-25T08:18:04Z</time>
      </trkpt>
      <trkpt lat="42.75396999999989" lon="-1.7175060000000064">
        <ele>562.278</ele>
        <time>2022-08-25T08:18:05Z</time>
      </trkpt>
      <trkpt lat="42.75396199999989" lon="-1.7175130000000065">
        <ele>562.491</ele>
        <time>2022-08-25T08:18:06Z</time>
      </trkpt>
      <trkpt lat="42.75395299999989" lon="-1.7175180000000065">
        <ele>562.697</ele>
        <time>2022-08-25T08:18:07Z</time>
      </trkpt>
      <trkpt lat="42.75394599999989" lon="-1.7175220000000064">
        <ele>562.638</ele>
        <time>2022-08-25T08:18:08Z</time>
      </trkpt>
      <trkpt lat="42.753938999999896" lon="-1.7175290000000065">
        <ele>562.873</ele>
        <time>2022-08-25T08:18:09Z</time>
      </trkpt>
      <trkpt lat="42.753930999999895" lon="-1.7175360000000066">
        <ele>563.085</ele>
        <time>2022-08-25T08:18:10Z</time>
      </trkpt>
      <trkpt lat="42.753921999999896" lon="-1.7175400000000065">
        <ele>563.013</ele>
        <time>2022-08-25T08:18:11Z</time>
      </trkpt>
      <trkpt lat="42.753910999999896" lon="-1.7175430000000065">
        <ele>563.009</ele>
        <time>2022-08-25T08:18:12Z</time>
      </trkpt>
      <trkpt lat="42.7539039999999" lon="-1.7175490000000064">
        <ele>563.248</ele>
        <time>2022-08-25T08:18:13Z</time>
      </trkpt>
      <trkpt lat="42.7538969999999" lon="-1.7175540000000065">
        <ele>563.428</ele>
        <time>2022-08-25T08:18:14Z</time>
      </trkpt>
      <trkpt lat="42.7538889999999" lon="-1.7175620000000065">
        <ele>563.668</ele>
        <time>2022-08-25T08:18:15Z</time>
      </trkpt>
      <trkpt lat="42.753881999999905" lon="-1.7175670000000065">
        <ele>563.894</ele>
        <time>2022-08-25T08:18:16Z</time>
      </trkpt>
      <trkpt lat="42.75387499999991" lon="-1.7175740000000066">
        <ele>563.886</ele>
        <time>2022-08-25T08:18:17Z</time>
      </trkpt>
      <trkpt lat="42.75386699999991" lon="-1.7175800000000065">
        <ele>564.073</ele>
        <time>2022-08-25T08:18:18Z</time>
      </trkpt>
      <trkpt lat="42.75385799999991" lon="-1.7175860000000065">
        <ele>564.076</ele>
        <time>2022-08-25T08:18:19Z</time>
      </trkpt>
      <trkpt lat="42.75384699999991" lon="-1.7175950000000064">
        <ele>564.222</ele>
        <time>2022-08-25T08:18:20Z</time>
      </trkpt>
      <trkpt lat="42.75383799999991" lon="-1.7175990000000063">
        <ele>564.443</ele>
        <time>2022-08-25T08:18:21Z</time>
      </trkpt>
      <trkpt lat="42.75382999999991" lon="-1.7176060000000064">
        <ele>564.494</ele>
        <time>2022-08-25T08:18:22Z</time>
      </trkpt>
      <trkpt lat="42.75382299999991" lon="-1.7176110000000064">
        <ele>564.657</ele>
        <time>2022-08-25T08:18:23Z</time>
      </trkpt>
      <trkpt lat="42.75381699999991" lon="-1.7176170000000064">
        <ele>564.622</ele>
        <time>2022-08-25T08:18:24Z</time>
      </trkpt>
      <trkpt lat="42.75380699999991" lon="-1.7176250000000064">
        <ele>564.809</ele>
        <time>2022-08-25T08:18:25Z</time>
      </trkpt>
      <trkpt lat="42.753796999999906" lon="-1.7176340000000063">
        <ele>565.270</ele>
        <time>2022-08-25T08:18:26Z</time>
      </trkpt>
      <trkpt lat="42.753788999999905" lon="-1.7176430000000062">
        <ele>565.280</ele>
        <time>2022-08-25T08:18:27Z</time>
      </trkpt>
      <trkpt lat="42.75378199999991" lon="-1.7176490000000062">
        <ele>565.470</ele>
        <time>2022-08-25T08:18:28Z</time>
      </trkpt>
      <trkpt lat="42.75377399999991" lon="-1.7176580000000061">
        <ele>565.456</ele>
        <time>2022-08-25T08:18:29Z</time>
      </trkpt>
      <trkpt lat="42.75376499999991" lon="-1.717667000000006">
        <ele>565.628</ele>
        <time>2022-08-25T08:18:30Z</time>
      </trkpt>
      <trkpt lat="42.75375899999991" lon="-1.717673000000006">
        <ele>565.615</ele>
        <time>2022-08-25T08:18:31Z</time>
      </trkpt>
      <trkpt lat="42.75375099999991" lon="-1.717679000000006">
        <ele>565.858</ele>
        <time>2022-08-25T08:18:32Z</time>
      </trkpt>
      <trkpt lat="42.75374399999991" lon="-1.717684000000006">
        <ele>566.084</ele>
        <time>2022-08-25T08:18:33Z</time>
      </trkpt>
      <trkpt lat="42.753734999999914" lon="-1.717691000000006">
        <ele>566.075</ele>
        <time>2022-08-25T08:18:34Z</time>
      </trkpt>
      <trkpt lat="42.753728999999915" lon="-1.717696000000006">
        <ele>566.276</ele>
        <time>2022-08-25T08:18:35Z</time>
      </trkpt>
      <trkpt lat="42.753722999999916" lon="-1.7177010000000061">
        <ele>566.290</ele>
        <time>2022-08-25T08:18:36Z</time>
      </trkpt>
      <trkpt lat="42.75371699999992" lon="-1.717707000000006">
        <ele>566.419</ele>
        <time>2022-08-25T08:18:37Z</time>
      </trkpt>
      <trkpt lat="42.75371099999992" lon="-1.7177140000000062">
        <ele>566.409</ele>
        <time>2022-08-25T08:18:38Z</time>
      </trkpt>
      <trkpt lat="42.75370399999992" lon="-1.7177250000000062">
        <ele>566.638</ele>
        <time>2022-08-25T08:18:39Z</time>
      </trkpt>
      <trkpt lat="42.75369799999992" lon="-1.7177330000000062">
        <ele>566.648</ele>
        <time>2022-08-25T08:18:40Z</time>
      </trkpt>
      <trkpt lat="42.753693999999925" lon="-1.7177390000000061">
        <ele>566.848</ele>
        <time>2022-08-25T08:18:41Z</time>
      </trkpt>
      <trkpt lat="42.75368899999992" lon="-1.7177490000000062">
        <ele>566.864</ele>
        <time>2022-08-25T08:18:42Z</time>
      </trkpt>
      <trkpt lat="42.753679999999925" lon="-1.7177560000000063">
        <ele>566.876</ele>
        <time>2022-08-25T08:18:43Z</time>
      </trkpt>
      <trkpt lat="42.75366999999992" lon="-1.7177630000000064">
        <ele>567.053</ele>
        <time>2022-08-25T08:18:44Z</time>
      </trkpt>
      <trkpt lat="42.75366099999992" lon="-1.7177710000000064">
        <ele>567.036</ele>
        <time>2022-08-25T08:18:45Z</time>
      </trkpt>
      <trkpt lat="42.753651999999924" lon="-1.7177810000000064">
        <ele>567.282</ele>
        <time>2022-08-25T08:18:46Z</time>
      </trkpt>
      <trkpt lat="42.75364399999992" lon="-1.7177940000000065">
        <ele>567.293</ele>
        <time>2022-08-25T08:18:47Z</time>
      </trkpt>
      <trkpt lat="42.753637999999924" lon="-1.7178010000000066">
        <ele>567.488</ele>
        <time>2022-08-25T08:18:48Z</time>
      </trkpt>
      <trkpt lat="42.753628999999925" lon="-1.7178120000000066">
        <ele>567.424</ele>
        <time>2022-08-25T08:18:49Z</time>
      </trkpt>
      <trkpt lat="42.753620999999924" lon="-1.7178210000000065">
        <ele>567.426</ele>
        <time>2022-08-25T08:18:50Z</time>
      </trkpt>
      <trkpt lat="42.75361599999992" lon="-1.7178290000000065">
        <ele>567.609</ele>
        <time>2022-08-25T08:18:51Z</time>
      </trkpt>
      <trkpt lat="42.753608999999926" lon="-1.7178380000000064">
        <ele>567.879</ele>
        <time>2022-08-25T08:18:52Z</time>
      </trkpt>
      <trkpt lat="42.753600999999925" lon="-1.7178480000000065">
        <ele>567.889</ele>
        <time>2022-08-25T08:18:53Z</time>
      </trkpt>
      <trkpt lat="42.75359099999992" lon="-1.7178550000000066">
        <ele>568.459</ele>
        <time>2022-08-25T08:18:54Z</time>
      </trkpt>
      <trkpt lat="42.75358199999992" lon="-1.7178630000000066">
        <ele>568.685</ele>
        <time>2022-08-25T08:18:55Z</time>
      </trkpt>
      <trkpt lat="42.753575999999924" lon="-1.7178700000000067">
        <ele>568.827</ele>
        <time>2022-08-25T08:18:56Z</time>
      </trkpt>
      <trkpt lat="42.75356899999993" lon="-1.7178800000000067">
        <ele>568.894</ele>
        <time>2022-08-25T08:18:57Z</time>
      </trkpt>
      <trkpt lat="42.75356499999993" lon="-1.7178920000000066">
        <ele>569.237</ele>
        <time>2022-08-25T08:18:58Z</time>
      </trkpt>
      <trkpt lat="42.75355999999993" lon="-1.7178950000000066">
        <ele>569.443</ele>
        <time>2022-08-25T08:18:59Z</time>
      </trkpt>
      <trkpt lat="42.75355199999993" lon="-1.7179000000000066">
        <ele>569.654</ele>
        <time>2022-08-25T08:19:00Z</time>
      </trkpt>
      <trkpt lat="42.75354799999993" lon="-1.7179080000000067">
        <ele>569.821</ele>
        <time>2022-08-25T08:19:01Z</time>
      </trkpt>
      <trkpt lat="42.75353999999993" lon="-1.7179180000000067">
        <ele>569.841</ele>
        <time>2022-08-25T08:19:02Z</time>
      </trkpt>
      <trkpt lat="42.75352999999993" lon="-1.7179260000000067">
        <ele>570.005</ele>
        <time>2022-08-25T08:19:03Z</time>
      </trkpt>
      <trkpt lat="42.753521999999926" lon="-1.7179300000000066">
        <ele>570.209</ele>
        <time>2022-08-25T08:19:04Z</time>
      </trkpt>
      <trkpt lat="42.753513999999925" lon="-1.7179360000000066">
        <ele>570.493</ele>
        <time>2022-08-25T08:19:05Z</time>
      </trkpt>
      <trkpt lat="42.75350699999993" lon="-1.7179430000000067">
        <ele>570.633</ele>
        <time>2022-08-25T08:19:06Z</time>
      </trkpt>
      <trkpt lat="42.75349999999993" lon="-1.7179530000000067">
        <ele>570.633</ele>
        <time>2022-08-25T08:19:07Z</time>
      </trkpt>
      <trkpt lat="42.75349199999993" lon="-1.7179630000000068">
        <ele>570.849</ele>
        <time>2022-08-25T08:19:08Z</time>
      </trkpt>
      <trkpt lat="42.75348699999993" lon="-1.7179710000000068">
        <ele>570.831</ele>
        <time>2022-08-25T08:19:09Z</time>
      </trkpt>
      <trkpt lat="42.75348199999993" lon="-1.7179780000000069">
        <ele>570.848</ele>
        <time>2022-08-25T08:19:10Z</time>
      </trkpt>
      <trkpt lat="42.753476999999926" lon="-1.717985000000007">
        <ele>571.021</ele>
        <time>2022-08-25T08:19:11Z</time>
      </trkpt>
      <trkpt lat="42.75346799999993" lon="-1.717995000000007">
        <ele>571.217</ele>
        <time>2022-08-25T08:19:12Z</time>
      </trkpt>
      <trkpt lat="42.75345899999993" lon="-1.718005000000007">
        <ele>571.468</ele>
        <time>2022-08-25T08:19:13Z</time>
      </trkpt>
      <trkpt lat="42.75345199999993" lon="-1.7180130000000071">
        <ele>571.444</ele>
        <time>2022-08-25T08:19:14Z</time>
      </trkpt>
      <trkpt lat="42.753444999999935" lon="-1.7180200000000072">
        <ele>571.605</ele>
        <time>2022-08-25T08:19:15Z</time>
      </trkpt>
      <trkpt lat="42.75343599999994" lon="-1.7180260000000072">
        <ele>571.815</ele>
        <time>2022-08-25T08:19:16Z</time>
      </trkpt>
      <trkpt lat="42.75342899999994" lon="-1.7180310000000072">
        <ele>571.809</ele>
        <time>2022-08-25T08:19:17Z</time>
      </trkpt>
      <trkpt lat="42.75341899999994" lon="-1.7180410000000073">
        <ele>572.065</ele>
        <time>2022-08-25T08:19:18Z</time>
      </trkpt>
      <trkpt lat="42.753410999999936" lon="-1.7180500000000072">
        <ele>572.275</ele>
        <time>2022-08-25T08:19:19Z</time>
      </trkpt>
      <trkpt lat="42.75340499999994" lon="-1.718059000000007">
        <ele>572.245</ele>
        <time>2022-08-25T08:19:20Z</time>
      </trkpt>
      <trkpt lat="42.753399999999935" lon="-1.7180690000000072">
        <ele>572.251</ele>
        <time>2022-08-25T08:19:21Z</time>
      </trkpt>
      <trkpt lat="42.753394999999934" lon="-1.7180790000000072">
        <ele>572.243</ele>
        <time>2022-08-25T08:19:22Z</time>
      </trkpt>
      <trkpt lat="42.75338499999993" lon="-1.7180890000000073">
        <ele>572.420</ele>
        <time>2022-08-25T08:19:23Z</time>
      </trkpt>
      <trkpt lat="42.75337599999993" lon="-1.7180960000000074">
        <ele>572.453</ele>
        <time>2022-08-25T08:19:24Z</time>
      </trkpt>
      <trkpt lat="42.75336499999993" lon="-1.7181000000000073">
        <ele>572.429</ele>
        <time>2022-08-25T08:19:25Z</time>
      </trkpt>
      <trkpt lat="42.75335299999993" lon="-1.7181010000000072">
        <ele>572.620</ele>
        <time>2022-08-25T08:19:26Z</time>
      </trkpt>
      <trkpt lat="42.75333999999993" lon="-1.7181030000000073">
        <ele>572.682</ele>
        <time>2022-08-25T08:19:27Z</time>
      </trkpt>
      <trkpt lat="42.75332899999993" lon="-1.7181080000000073">
        <ele>572.843</ele>
        <time>2022-08-25T08:19:28Z</time>
      </trkpt>
      <trkpt lat="42.75331899999993" lon="-1.7181140000000072">
        <ele>572.817</ele>
        <time>2022-08-25T08:19:29Z</time>
      </trkpt>
      <trkpt lat="42.753307999999926" lon="-1.7181170000000072">
        <ele>573.009</ele>
        <time>2022-08-25T08:19:30Z</time>
      </trkpt>
      <trkpt lat="42.753299999999925" lon="-1.7181220000000073">
        <ele>573.239</ele>
        <time>2022-08-25T08:19:31Z</time>
      </trkpt>
      <trkpt lat="42.753290999999926" lon="-1.7181260000000071">
        <ele>573.449</ele>
        <time>2022-08-25T08:19:32Z</time>
      </trkpt>
      <trkpt lat="42.753279999999926" lon="-1.7181310000000072">
        <ele>573.459</ele>
        <time>2022-08-25T08:19:33Z</time>
      </trkpt>
      <trkpt lat="42.75327299999993" lon="-1.718132000000007">
        <ele>573.835</ele>
        <time>2022-08-25T08:19:34Z</time>
      </trkpt>
      <trkpt lat="42.753262999999926" lon="-1.7181340000000072">
        <ele>573.857</ele>
        <time>2022-08-25T08:19:35Z</time>
      </trkpt>
      <trkpt lat="42.75324999999992" lon="-1.7181390000000072">
        <ele>574.054</ele>
        <time>2022-08-25T08:19:36Z</time>
      </trkpt>
      <trkpt lat="42.75323899999992" lon="-1.7181460000000073">
        <ele>574.257</ele>
        <time>2022-08-25T08:19:37Z</time>
      </trkpt>
      <trkpt lat="42.75323099999992" lon="-1.7181540000000073">
        <ele>574.243</ele>
        <time>2022-08-25T08:19:38Z</time>
      </trkpt>
      <trkpt lat="42.75322499999992" lon="-1.7181640000000074">
        <ele>574.644</ele>
        <time>2022-08-25T08:19:39Z</time>
      </trkpt>
      <trkpt lat="42.75321899999992" lon="-1.7181680000000072">
        <ele>574.628</ele>
        <time>2022-08-25T08:19:40Z</time>
      </trkpt>
      <trkpt lat="42.75321099999992" lon="-1.7181690000000072">
        <ele>575.089</ele>
        <time>2022-08-25T08:19:41Z</time>
      </trkpt>
      <trkpt lat="42.753198999999924" lon="-1.7181690000000072">
        <ele>575.217</ele>
        <time>2022-08-25T08:19:42Z</time>
      </trkpt>
      <trkpt lat="42.75318899999992" lon="-1.718170000000007">
        <ele>575.609</ele>
        <time>2022-08-25T08:19:43Z</time>
      </trkpt>
      <trkpt lat="42.75318099999992" lon="-1.718170000000007">
        <ele>575.613</ele>
        <time>2022-08-25T08:19:44Z</time>
      </trkpt>
      <trkpt lat="42.75317499999992" lon="-1.718173000000007">
        <ele>575.863</ele>
        <time>2022-08-25T08:19:45Z</time>
      </trkpt>
      <trkpt lat="42.753167999999924" lon="-1.718177000000007">
        <ele>576.053</ele>
        <time>2022-08-25T08:19:46Z</time>
      </trkpt>
      <trkpt lat="42.75315699999992" lon="-1.718180000000007">
        <ele>576.079</ele>
        <time>2022-08-25T08:19:47Z</time>
      </trkpt>
      <trkpt lat="42.75314999999993" lon="-1.7181840000000068">
        <ele>576.221</ele>
        <time>2022-08-25T08:19:48Z</time>
      </trkpt>
      <trkpt lat="42.753139999999924" lon="-1.7181890000000068">
        <ele>576.248</ele>
        <time>2022-08-25T08:19:49Z</time>
      </trkpt>
      <trkpt lat="42.75313199999992" lon="-1.7181920000000068">
        <ele>576.441</ele>
        <time>2022-08-25T08:19:50Z</time>
      </trkpt>
      <trkpt lat="42.753122999999924" lon="-1.7181970000000069">
        <ele>576.637</ele>
        <time>2022-08-25T08:19:51Z</time>
      </trkpt>
      <trkpt lat="42.75311599999993" lon="-1.718202000000007">
        <ele>576.658</ele>
        <time>2022-08-25T08:19:52Z</time>
      </trkpt>
      <trkpt lat="42.75310399999993" lon="-1.718210000000007">
        <ele>576.887</ele>
        <time>2022-08-25T08:19:53Z</time>
      </trkpt>
      <trkpt lat="42.75309599999993" lon="-1.718212000000007">
        <ele>576.842</ele>
        <time>2022-08-25T08:19:54Z</time>
      </trkpt>
      <trkpt lat="42.75309199999993" lon="-1.718211000000007">
        <ele>577.026</ele>
        <time>2022-08-25T08:19:55Z</time>
      </trkpt>
      <trkpt lat="42.75308399999993" lon="-1.718211000000007">
        <ele>577.009</ele>
        <time>2022-08-25T08:19:56Z</time>
      </trkpt>
      <trkpt lat="42.75307399999993" lon="-1.718212000000007">
        <ele>577.059</ele>
        <time>2022-08-25T08:19:57Z</time>
      </trkpt>
      <trkpt lat="42.75306499999993" lon="-1.718214000000007">
        <ele>577.289</ele>
        <time>2022-08-25T08:19:58Z</time>
      </trkpt>
      <trkpt lat="42.75305599999993" lon="-1.718214000000007">
        <ele>577.229</ele>
        <time>2022-08-25T08:19:59Z</time>
      </trkpt>
      <trkpt lat="42.75304799999993" lon="-1.718216000000007">
        <ele>577.275</ele>
        <time>2022-08-25T08:20:00Z</time>
      </trkpt>
      <trkpt lat="42.75304099999993" lon="-1.718217000000007">
        <ele>577.427</ele>
        <time>2022-08-25T08:20:01Z</time>
      </trkpt>
      <trkpt lat="42.75303299999993" lon="-1.718219000000007">
        <ele>577.634</ele>
        <time>2022-08-25T08:20:02Z</time>
      </trkpt>
      <trkpt lat="42.753025999999934" lon="-1.718222000000007">
        <ele>577.847</ele>
        <time>2022-08-25T08:20:03Z</time>
      </trkpt>
      <trkpt lat="42.753016999999936" lon="-1.718225000000007">
        <ele>578.093</ele>
        <time>2022-08-25T08:20:04Z</time>
      </trkpt>
      <trkpt lat="42.753008999999935" lon="-1.718227000000007">
        <ele>578.014</ele>
        <time>2022-08-25T08:20:05Z</time>
      </trkpt>
      <trkpt lat="42.752997999999934" lon="-1.7182290000000071">
        <ele>578.285</ele>
        <time>2022-08-25T08:20:06Z</time>
      </trkpt>
      <trkpt lat="42.75298799999993" lon="-1.718233000000007">
        <ele>578.289</ele>
        <time>2022-08-25T08:20:07Z</time>
      </trkpt>
      <trkpt lat="42.75297799999993" lon="-1.718235000000007">
        <ele>578.417</ele>
        <time>2022-08-25T08:20:08Z</time>
      </trkpt>
      <trkpt lat="42.752967999999925" lon="-1.718239000000007">
        <ele>578.609</ele>
        <time>2022-08-25T08:20:09Z</time>
      </trkpt>
      <trkpt lat="42.75296099999993" lon="-1.718244000000007">
        <ele>578.639</ele>
        <time>2022-08-25T08:20:10Z</time>
      </trkpt>
      <trkpt lat="42.75295199999993" lon="-1.718251000000007">
        <ele>578.859</ele>
        <time>2022-08-25T08:20:11Z</time>
      </trkpt>
      <trkpt lat="42.752941999999926" lon="-1.718255000000007">
        <ele>579.049</ele>
        <time>2022-08-25T08:20:12Z</time>
      </trkpt>
      <trkpt lat="42.752930999999926" lon="-1.7182560000000069">
        <ele>579.225</ele>
        <time>2022-08-25T08:20:13Z</time>
      </trkpt>
      <trkpt lat="42.752922999999925" lon="-1.7182600000000068">
        <ele>579.247</ele>
        <time>2022-08-25T08:20:14Z</time>
      </trkpt>
      <trkpt lat="42.752910999999926" lon="-1.7182630000000068">
        <ele>579.274</ele>
        <time>2022-08-25T08:20:15Z</time>
      </trkpt>
      <trkpt lat="42.75289899999993" lon="-1.7182660000000067">
        <ele>579.467</ele>
        <time>2022-08-25T08:20:16Z</time>
      </trkpt>
      <trkpt lat="42.75289099999993" lon="-1.7182670000000067">
        <ele>579.683</ele>
        <time>2022-08-25T08:20:17Z</time>
      </trkpt>
      <trkpt lat="42.752877999999924" lon="-1.7182680000000066">
        <ele>579.844</ele>
        <time>2022-08-25T08:20:18Z</time>
      </trkpt>
      <trkpt lat="42.75286799999992" lon="-1.7182680000000066">
        <ele>579.842</ele>
        <time>2022-08-25T08:20:19Z</time>
      </trkpt>
      <trkpt lat="42.75285799999992" lon="-1.7182710000000065">
        <ele>579.822</ele>
        <time>2022-08-25T08:20:20Z</time>
      </trkpt>
      <trkpt lat="42.752847999999915" lon="-1.7182760000000066">
        <ele>580.014</ele>
        <time>2022-08-25T08:20:21Z</time>
      </trkpt>
      <trkpt lat="42.752838999999916" lon="-1.7182820000000065">
        <ele>580.209</ele>
        <time>2022-08-25T08:20:22Z</time>
      </trkpt>
      <trkpt lat="42.75282899999991" lon="-1.7182870000000066">
        <ele>580.255</ele>
        <time>2022-08-25T08:20:23Z</time>
      </trkpt>
      <trkpt lat="42.75282199999992" lon="-1.7182890000000066">
        <ele>580.415</ele>
        <time>2022-08-25T08:20:24Z</time>
      </trkpt>
      <trkpt lat="42.75281199999991" lon="-1.7182910000000067">
        <ele>580.495</ele>
        <time>2022-08-25T08:20:25Z</time>
      </trkpt>
      <trkpt lat="42.75280099999991" lon="-1.7182930000000067">
        <ele>580.611</ele>
        <time>2022-08-25T08:20:26Z</time>
      </trkpt>
      <trkpt lat="42.752794999999914" lon="-1.7182970000000066">
        <ele>580.673</ele>
        <time>2022-08-25T08:20:27Z</time>
      </trkpt>
      <trkpt lat="42.752785999999915" lon="-1.7183020000000067">
        <ele>580.880</ele>
        <time>2022-08-25T08:20:28Z</time>
      </trkpt>
      <trkpt lat="42.75277899999992" lon="-1.7183050000000066">
        <ele>581.043</ele>
        <time>2022-08-25T08:20:29Z</time>
      </trkpt>
      <trkpt lat="42.75277099999992" lon="-1.7183090000000065">
        <ele>581.279</ele>
        <time>2022-08-25T08:20:30Z</time>
      </trkpt>
      <trkpt lat="42.75276199999992" lon="-1.7183140000000066">
        <ele>581.450</ele>
        <time>2022-08-25T08:20:31Z</time>
      </trkpt>
      <trkpt lat="42.752751999999916" lon="-1.7183220000000066">
        <ele>581.255</ele>
        <time>2022-08-25T08:20:32Z</time>
      </trkpt>
      <trkpt lat="42.75274499999992" lon="-1.7183270000000066">
        <ele>581.207</ele>
        <time>2022-08-25T08:20:33Z</time>
      </trkpt>
      <trkpt lat="42.75273599999992" lon="-1.7183290000000067">
        <ele>581.617</ele>
        <time>2022-08-25T08:20:34Z</time>
      </trkpt>
      <trkpt lat="42.75272799999992" lon="-1.7183280000000067">
        <ele>581.409</ele>
        <time>2022-08-25T08:20:35Z</time>
      </trkpt>
      <trkpt lat="42.75271599999992" lon="-1.7183290000000067">
        <ele>581.446</ele>
        <time>2022-08-25T08:20:36Z</time>
      </trkpt>
      <trkpt lat="42.75270699999992" lon="-1.7183340000000067">
        <ele>581.856</ele>
        <time>2022-08-25T08:20:37Z</time>
      </trkpt>
      <trkpt lat="42.75269599999992" lon="-1.7183400000000066">
        <ele>581.846</ele>
        <time>2022-08-25T08:20:38Z</time>
      </trkpt>
      <trkpt lat="42.75268599999992" lon="-1.7183440000000065">
        <ele>582.042</ele>
        <time>2022-08-25T08:20:39Z</time>
      </trkpt>
      <trkpt lat="42.75267699999992" lon="-1.7183470000000065">
        <ele>582.214</ele>
        <time>2022-08-25T08:20:40Z</time>
      </trkpt>
      <trkpt lat="42.75266699999992" lon="-1.7183520000000065">
        <ele>582.251</ele>
        <time>2022-08-25T08:20:41Z</time>
      </trkpt>
      <trkpt lat="42.752656999999914" lon="-1.7183550000000065">
        <ele>582.254</ele>
        <time>2022-08-25T08:20:42Z</time>
      </trkpt>
      <trkpt lat="42.75264999999992" lon="-1.7183580000000065">
        <ele>582.490</ele>
        <time>2022-08-25T08:20:43Z</time>
      </trkpt>
      <trkpt lat="42.75264399999992" lon="-1.7183580000000065">
        <ele>582.431</ele>
        <time>2022-08-25T08:20:44Z</time>
      </trkpt>
      <trkpt lat="42.75263699999992" lon="-1.7183610000000065">
        <ele>582.822</ele>
        <time>2022-08-25T08:20:45Z</time>
      </trkpt>
      <trkpt lat="42.75262899999992" lon="-1.7183650000000064">
        <ele>582.862</ele>
        <time>2022-08-25T08:20:46Z</time>
      </trkpt>
      <trkpt lat="42.75261799999992" lon="-1.7183720000000064">
        <ele>583.008</ele>
        <time>2022-08-25T08:20:47Z</time>
      </trkpt>
      <trkpt lat="42.75260999999992" lon="-1.7183790000000065">
        <ele>583.009</ele>
        <time>2022-08-25T08:20:48Z</time>
      </trkpt>
      <trkpt lat="42.75260199999992" lon="-1.7183830000000064">
        <ele>583.043</ele>
        <time>2022-08-25T08:20:49Z</time>
      </trkpt>
      <trkpt lat="42.75259499999992" lon="-1.7183880000000065">
        <ele>583.273</ele>
        <time>2022-08-25T08:20:50Z</time>
      </trkpt>
      <trkpt lat="42.75258599999992" lon="-1.7183920000000064">
        <ele>583.493</ele>
        <time>2022-08-25T08:20:51Z</time>
      </trkpt>
      <trkpt lat="42.752578999999926" lon="-1.7183970000000064">
        <ele>583.629</ele>
        <time>2022-08-25T08:20:52Z</time>
      </trkpt>
      <trkpt lat="42.752573999999925" lon="-1.7183990000000064">
        <ele>583.661</ele>
        <time>2022-08-25T08:20:53Z</time>
      </trkpt>
      <trkpt lat="42.752564999999926" lon="-1.7184000000000064">
        <ele>583.818</ele>
        <time>2022-08-25T08:20:54Z</time>
      </trkpt>
      <trkpt lat="42.752553999999925" lon="-1.7184040000000063">
        <ele>583.851</ele>
        <time>2022-08-25T08:20:55Z</time>
      </trkpt>
      <trkpt lat="42.75254699999993" lon="-1.7184060000000063">
        <ele>584.057</ele>
        <time>2022-08-25T08:20:56Z</time>
      </trkpt>
      <trkpt lat="42.752533999999926" lon="-1.7184140000000063">
        <ele>584.238</ele>
        <time>2022-08-25T08:20:57Z</time>
      </trkpt>
      <trkpt lat="42.752525999999925" lon="-1.7184180000000062">
        <ele>584.262</ele>
        <time>2022-08-25T08:20:58Z</time>
      </trkpt>
      <trkpt lat="42.75251399999993" lon="-1.7184230000000063">
        <ele>584.483</ele>
        <time>2022-08-25T08:20:59Z</time>
      </trkpt>
      <trkpt lat="42.75250199999993" lon="-1.7184240000000062">
        <ele>584.411</ele>
        <time>2022-08-25T08:21:00Z</time>
      </trkpt>
      <trkpt lat="42.75248699999993" lon="-1.7184290000000062">
        <ele>584.609</ele>
        <time>2022-08-25T08:21:01Z</time>
      </trkpt>
      <trkpt lat="42.75247899999993" lon="-1.7184340000000062">
        <ele>584.877</ele>
        <time>2022-08-25T08:21:02Z</time>
      </trkpt>
      <trkpt lat="42.75246899999993" lon="-1.7184420000000062">
        <ele>585.057</ele>
        <time>2022-08-25T08:21:03Z</time>
      </trkpt>
      <trkpt lat="42.752457999999926" lon="-1.7184490000000063">
        <ele>585.277</ele>
        <time>2022-08-25T08:21:04Z</time>
      </trkpt>
      <trkpt lat="42.75244599999993" lon="-1.7184560000000064">
        <ele>585.413</ele>
        <time>2022-08-25T08:21:05Z</time>
      </trkpt>
      <trkpt lat="42.75243799999993" lon="-1.7184620000000064">
        <ele>585.675</ele>
        <time>2022-08-25T08:21:06Z</time>
      </trkpt>
      <trkpt lat="42.752427999999924" lon="-1.7184700000000064">
        <ele>585.862</ele>
        <time>2022-08-25T08:21:07Z</time>
      </trkpt>
      <trkpt lat="42.75241999999992" lon="-1.7184780000000064">
        <ele>585.885</ele>
        <time>2022-08-25T08:21:08Z</time>
      </trkpt>
      <trkpt lat="42.752412999999926" lon="-1.7184860000000064">
        <ele>586.021</ele>
        <time>2022-08-25T08:21:09Z</time>
      </trkpt>
      <trkpt lat="42.752401999999925" lon="-1.7184960000000065">
        <ele>586.272</ele>
        <time>2022-08-25T08:21:10Z</time>
      </trkpt>
      <trkpt lat="42.75239499999993" lon="-1.7185030000000066">
        <ele>586.278</ele>
        <time>2022-08-25T08:21:11Z</time>
      </trkpt>
      <trkpt lat="42.75238599999993" lon="-1.7185100000000066">
        <ele>586.433</ele>
        <time>2022-08-25T08:21:12Z</time>
      </trkpt>
      <trkpt lat="42.75237699999993" lon="-1.7185170000000067">
        <ele>586.626</ele>
        <time>2022-08-25T08:21:13Z</time>
      </trkpt>
      <trkpt lat="42.75236799999993" lon="-1.7185220000000068">
        <ele>586.809</ele>
        <time>2022-08-25T08:21:14Z</time>
      </trkpt>
      <trkpt lat="42.75235799999993" lon="-1.7185310000000067">
        <ele>587.088</ele>
        <time>2022-08-25T08:21:15Z</time>
      </trkpt>
      <trkpt lat="42.75234999999993" lon="-1.7185390000000067">
        <ele>587.298</ele>
        <time>2022-08-25T08:21:16Z</time>
      </trkpt>
      <trkpt lat="42.75234199999993" lon="-1.7185470000000067">
        <ele>587.248</ele>
        <time>2022-08-25T08:21:17Z</time>
      </trkpt>
      <trkpt lat="42.75233599999993" lon="-1.7185530000000067">
        <ele>587.484</ele>
        <time>2022-08-25T08:21:18Z</time>
      </trkpt>
      <trkpt lat="42.75232999999993" lon="-1.7185600000000067">
        <ele>587.646</ele>
        <time>2022-08-25T08:21:19Z</time>
      </trkpt>
      <trkpt lat="42.75232099999993" lon="-1.7185680000000068">
        <ele>587.483</ele>
        <time>2022-08-25T08:21:20Z</time>
      </trkpt>
      <trkpt lat="42.752313999999934" lon="-1.7185760000000068">
        <ele>587.846</ele>
        <time>2022-08-25T08:21:21Z</time>
      </trkpt>
      <trkpt lat="42.75230599999993" lon="-1.7185830000000069">
        <ele>587.862</ele>
        <time>2022-08-25T08:21:22Z</time>
      </trkpt>
      <trkpt lat="42.75229799999993" lon="-1.7185920000000068">
        <ele>588.023</ele>
        <time>2022-08-25T08:21:23Z</time>
      </trkpt>
      <trkpt lat="42.752288999999934" lon="-1.7186010000000067">
        <ele>588.061</ele>
        <time>2022-08-25T08:21:24Z</time>
      </trkpt>
      <trkpt lat="42.75228099999993" lon="-1.7186140000000067">
        <ele>588.221</ele>
        <time>2022-08-25T08:21:25Z</time>
      </trkpt>
      <trkpt lat="42.75227499999993" lon="-1.7186210000000068">
        <ele>588.013</ele>
        <time>2022-08-25T08:21:26Z</time>
      </trkpt>
      <trkpt lat="42.75226799999994" lon="-1.718631000000007">
        <ele>588.409</ele>
        <time>2022-08-25T08:21:27Z</time>
      </trkpt>
      <trkpt lat="42.75226099999994" lon="-1.7186420000000069">
        <ele>588.467</ele>
        <time>2022-08-25T08:21:28Z</time>
      </trkpt>
      <trkpt lat="42.752253999999944" lon="-1.718650000000007">
        <ele>588.897</ele>
        <time>2022-08-25T08:21:29Z</time>
      </trkpt>
      <trkpt lat="42.75224599999994" lon="-1.7186590000000068">
        <ele>589.057</ele>
        <time>2022-08-25T08:21:30Z</time>
      </trkpt>
      <trkpt lat="42.75223799999994" lon="-1.7186700000000068">
        <ele>589.073</ele>
        <time>2022-08-25T08:21:31Z</time>
      </trkpt>
      <trkpt lat="42.752230999999945" lon="-1.7186810000000068">
        <ele>589.225</ele>
        <time>2022-08-25T08:21:32Z</time>
      </trkpt>
      <trkpt lat="42.75222699999995" lon="-1.7186880000000069">
        <ele>589.242</ele>
        <time>2022-08-25T08:21:33Z</time>
      </trkpt>
      <trkpt lat="42.75221999999995" lon="-1.7187000000000068">
        <ele>589.425</ele>
        <time>2022-08-25T08:21:34Z</time>
      </trkpt>
      <trkpt lat="42.75221199999995" lon="-1.7187120000000067">
        <ele>589.471</ele>
        <time>2022-08-25T08:21:35Z</time>
      </trkpt>
      <trkpt lat="42.75220299999995" lon="-1.7187220000000067">
        <ele>589.682</ele>
        <time>2022-08-25T08:21:36Z</time>
      </trkpt>
      <trkpt lat="42.75219699999995" lon="-1.7187280000000067">
        <ele>589.833</ele>
        <time>2022-08-25T08:21:37Z</time>
      </trkpt>
      <trkpt lat="42.75218899999995" lon="-1.7187380000000068">
        <ele>590.023</ele>
        <time>2022-08-25T08:21:38Z</time>
      </trkpt>
      <trkpt lat="42.75218299999995" lon="-1.7187450000000069">
        <ele>590.215</ele>
        <time>2022-08-25T08:21:39Z</time>
      </trkpt>
      <trkpt lat="42.752175999999956" lon="-1.7187530000000069">
        <ele>590.209</ele>
        <time>2022-08-25T08:21:40Z</time>
      </trkpt>
      <trkpt lat="42.75216899999996" lon="-1.7187640000000068">
        <ele>590.254</ele>
        <time>2022-08-25T08:21:41Z</time>
      </trkpt>
      <trkpt lat="42.75216099999996" lon="-1.718774000000007">
        <ele>590.484</ele>
        <time>2022-08-25T08:21:42Z</time>
      </trkpt>
      <trkpt lat="42.75215299999996" lon="-1.718785000000007">
        <ele>590.424</ele>
        <time>2022-08-25T08:21:43Z</time>
      </trkpt>
      <trkpt lat="42.75214699999996" lon="-1.718795000000007">
        <ele>590.620</ele>
        <time>2022-08-25T08:21:44Z</time>
      </trkpt>
      <trkpt lat="42.75213999999996" lon="-1.718805000000007">
        <ele>590.692</ele>
        <time>2022-08-25T08:21:45Z</time>
      </trkpt>
      <trkpt lat="42.752132999999965" lon="-1.718814000000007">
        <ele>590.859</ele>
        <time>2022-08-25T08:21:46Z</time>
      </trkpt>
      <trkpt lat="42.752124999999964" lon="-1.718824000000007">
        <ele>591.092</ele>
        <time>2022-08-25T08:21:47Z</time>
      </trkpt>
      <trkpt lat="42.75211499999996" lon="-1.718833000000007">
        <ele>591.258</ele>
        <time>2022-08-25T08:21:48Z</time>
      </trkpt>
      <trkpt lat="42.75210899999996" lon="-1.718844000000007">
        <ele>591.249</ele>
        <time>2022-08-25T08:21:49Z</time>
      </trkpt>
      <trkpt lat="42.75210299999996" lon="-1.718852000000007">
        <ele>591.444</ele>
        <time>2022-08-25T08:21:50Z</time>
      </trkpt>
      <trkpt lat="42.752095999999966" lon="-1.7188610000000069">
        <ele>591.405</ele>
        <time>2022-08-25T08:21:51Z</time>
      </trkpt>
      <trkpt lat="42.752087999999965" lon="-1.7188700000000068">
        <ele>591.615</ele>
        <time>2022-08-25T08:21:52Z</time>
      </trkpt>
      <trkpt lat="42.752081999999966" lon="-1.7188780000000068">
        <ele>591.809</ele>
        <time>2022-08-25T08:21:53Z</time>
      </trkpt>
      <trkpt lat="42.752073999999965" lon="-1.7188880000000069">
        <ele>591.825</ele>
        <time>2022-08-25T08:21:54Z</time>
      </trkpt>
      <trkpt lat="42.75206699999997" lon="-1.718898000000007">
        <ele>592.045</ele>
        <time>2022-08-25T08:21:55Z</time>
      </trkpt>
      <trkpt lat="42.75205999999997" lon="-1.7189040000000069">
        <ele>592.285</ele>
        <time>2022-08-25T08:21:56Z</time>
      </trkpt>
      <trkpt lat="42.75205099999997" lon="-1.7189120000000069">
        <ele>592.211</ele>
        <time>2022-08-25T08:21:57Z</time>
      </trkpt>
      <trkpt lat="42.752041999999975" lon="-1.7189210000000068">
        <ele>592.453</ele>
        <time>2022-08-25T08:21:58Z</time>
      </trkpt>
      <trkpt lat="42.75203499999998" lon="-1.7189310000000069">
        <ele>592.480</ele>
        <time>2022-08-25T08:21:59Z</time>
      </trkpt>
      <trkpt lat="42.752029999999976" lon="-1.7189390000000069">
        <ele>592.623</ele>
        <time>2022-08-25T08:22:00Z</time>
      </trkpt>
      <trkpt lat="42.75202299999998" lon="-1.7189500000000069">
        <ele>592.689</ele>
        <time>2022-08-25T08:22:01Z</time>
      </trkpt>
      <trkpt lat="42.75201799999998" lon="-1.718960000000007">
        <ele>593.260</ele>
        <time>2022-08-25T08:22:02Z</time>
      </trkpt>
      <trkpt lat="42.75201099999998" lon="-1.718971000000007">
        <ele>593.648</ele>
        <time>2022-08-25T08:22:03Z</time>
      </trkpt>
      <trkpt lat="42.752003999999985" lon="-1.718981000000007">
        <ele>593.661</ele>
        <time>2022-08-25T08:22:04Z</time>
      </trkpt>
      <trkpt lat="42.751997999999986" lon="-1.7189930000000069">
        <ele>593.817</ele>
        <time>2022-08-25T08:22:05Z</time>
      </trkpt>
      <trkpt lat="42.751992999999985" lon="-1.7190050000000068">
        <ele>594.009</ele>
        <time>2022-08-25T08:22:06Z</time>
      </trkpt>
      <trkpt lat="42.75198799999998" lon="-1.7190170000000067">
        <ele>594.275</ele>
        <time>2022-08-25T08:22:07Z</time>
      </trkpt>
      <trkpt lat="42.751981999999984" lon="-1.7190270000000067">
        <ele>594.425</ele>
        <time>2022-08-25T08:22:08Z</time>
      </trkpt>
      <trkpt lat="42.75197499999999" lon="-1.7190350000000068">
        <ele>594.485</ele>
        <time>2022-08-25T08:22:09Z</time>
      </trkpt>
      <trkpt lat="42.75196799999999" lon="-1.7190430000000068">
        <ele>594.641</ele>
        <time>2022-08-25T08:22:10Z</time>
      </trkpt>
      <trkpt lat="42.75196199999999" lon="-1.7190520000000067">
        <ele>594.663</ele>
        <time>2022-08-25T08:22:11Z</time>
      </trkpt>
      <trkpt lat="42.751954999999995" lon="-1.7190630000000067">
        <ele>594.820</ele>
        <time>2022-08-25T08:22:12Z</time>
      </trkpt>
      <trkpt lat="42.751946" lon="-1.7190740000000067">
        <ele>594.833</ele>
        <time>2022-08-25T08:22:13Z</time>
      </trkpt>
      <trkpt lat="42.751937" lon="-1.7190850000000066">
        <ele>595.059</ele>
        <time>2022-08-25T08:22:14Z</time>
      </trkpt>
      <trkpt lat="42.751929" lon="-1.7190940000000066">
        <ele>595.050</ele>
        <time>2022-08-25T08:22:15Z</time>
      </trkpt>
      <trkpt lat="42.751923" lon="-1.7191010000000067">
        <ele>595.231</ele>
        <time>2022-08-25T08:22:16Z</time>
      </trkpt>
      <trkpt lat="42.75192" lon="-1.7191040000000066">
        <ele>595.461</ele>
        <time>2022-08-25T08:22:17Z</time>
      </trkpt>
      <trkpt lat="42.751917999999996" lon="-1.7191060000000067">
        <ele>595.407</ele>
        <time>2022-08-25T08:25:55Z</time>
      </trkpt>
      <trkpt lat="42.751909999999995" lon="-1.7191170000000067">
        <ele>595.409</ele>
        <time>2022-08-25T08:25:56Z</time>
      </trkpt>
      <trkpt lat="42.751822" lon="-1.7192060000000067">
        <ele>595.494</ele>
        <time>2022-08-25T08:26:02Z</time>
      </trkpt>
      <trkpt lat="42.7517" lon="-1.7193250000000067">
        <ele>595.294</ele>
        <time>2022-08-25T08:26:08Z</time>
      </trkpt>
      <trkpt lat="42.751549" lon="-1.7194800000000066">
        <ele>595.054</ele>
        <time>2022-08-25T08:26:13Z</time>
      </trkpt>
      <trkpt lat="42.751304999999995" lon="-1.7196680000000066">
        <ele>594.430</ele>
        <time>2022-08-25T08:26:18Z</time>
      </trkpt>
      <trkpt lat="42.751054999999994" lon="-1.7197610000000065">
        <ele>593.432</ele>
        <time>2022-08-25T08:26:22Z</time>
      </trkpt>
      <trkpt lat="42.75098799999999" lon="-1.7197770000000066">
        <ele>592.899</ele>
        <time>2022-08-25T08:26:23Z</time>
      </trkpt>
      <trkpt lat="42.75092299999999" lon="-1.7197880000000065">
        <ele>592.692</ele>
        <time>2022-08-25T08:26:24Z</time>
      </trkpt>
      <trkpt lat="42.750856999999996" lon="-1.7197970000000065">
        <ele>592.228</ele>
        <time>2022-08-25T08:26:25Z</time>
      </trkpt>
      <trkpt lat="42.750797" lon="-1.7198040000000065">
        <ele>592.019</ele>
        <time>2022-08-25T08:26:26Z</time>
      </trkpt>
      <trkpt lat="42.750744" lon="-1.7198100000000065">
        <ele>591.671</ele>
        <time>2022-08-25T08:26:27Z</time>
      </trkpt>
      <trkpt lat="42.750690999999996" lon="-1.7198210000000065">
        <ele>591.241</ele>
        <time>2022-08-25T08:26:28Z</time>
      </trkpt>
      <trkpt lat="42.750639" lon="-1.7198370000000065">
        <ele>591.015</ele>
        <time>2022-08-25T08:26:29Z</time>
      </trkpt>
      <trkpt lat="42.750588" lon="-1.7198540000000064">
        <ele>590.609</ele>
        <time>2022-08-25T08:26:30Z</time>
      </trkpt>
      <trkpt lat="42.75054" lon="-1.7198650000000064">
        <ele>590.478</ele>
        <time>2022-08-25T08:26:31Z</time>
      </trkpt>
      <trkpt lat="42.750494" lon="-1.7198680000000064">
        <ele>590.048</ele>
        <time>2022-08-25T08:26:32Z</time>
      </trkpt>
      <trkpt lat="42.75045" lon="-1.7198630000000064">
        <ele>590.038</ele>
        <time>2022-08-25T08:26:33Z</time>
      </trkpt>
      <trkpt lat="42.7504" lon="-1.7198440000000064">
        <ele>589.874</ele>
        <time>2022-08-25T08:26:34Z</time>
      </trkpt>
      <trkpt lat="42.750371" lon="-1.7198280000000064">
        <ele>589.426</ele>
        <time>2022-08-25T08:26:35Z</time>
      </trkpt>
      <trkpt lat="42.750337" lon="-1.7198070000000063">
        <ele>589.253</ele>
        <time>2022-08-25T08:26:36Z</time>
      </trkpt>
      <trkpt lat="42.750306" lon="-1.7197840000000062">
        <ele>589.026</ele>
        <time>2022-08-25T08:26:37Z</time>
      </trkpt>
      <trkpt lat="42.750279" lon="-1.7197640000000063">
        <ele>589.052</ele>
        <time>2022-08-25T08:26:38Z</time>
      </trkpt>
      <trkpt lat="42.750251" lon="-1.7197550000000064">
        <ele>588.883</ele>
        <time>2022-08-25T08:26:39Z</time>
      </trkpt>
      <trkpt lat="42.750223999999996" lon="-1.7197510000000065">
        <ele>588.817</ele>
        <time>2022-08-25T08:26:40Z</time>
      </trkpt>
      <trkpt lat="42.750195999999995" lon="-1.7197430000000065">
        <ele>588.687</ele>
        <time>2022-08-25T08:26:41Z</time>
      </trkpt>
      <trkpt lat="42.75017" lon="-1.7197410000000064">
        <ele>588.615</ele>
        <time>2022-08-25T08:26:42Z</time>
      </trkpt>
      <trkpt lat="42.750142999999994" lon="-1.7197430000000065">
        <ele>588.609</ele>
        <time>2022-08-25T08:26:43Z</time>
      </trkpt>
      <trkpt lat="42.75011799999999" lon="-1.7197460000000064">
        <ele>588.852</ele>
        <time>2022-08-25T08:26:44Z</time>
      </trkpt>
      <trkpt lat="42.75009399999999" lon="-1.7197520000000064">
        <ele>588.882</ele>
        <time>2022-08-25T08:26:45Z</time>
      </trkpt>
      <trkpt lat="42.75006899999999" lon="-1.7197590000000065">
        <ele>588.832</ele>
        <time>2022-08-25T08:26:46Z</time>
      </trkpt>
      <trkpt lat="42.74996499999999" lon="-1.7198050000000065">
        <ele>589.278</ele>
        <time>2022-08-25T08:26:50Z</time>
      </trkpt>
      <trkpt lat="42.74989899999999" lon="-1.7198650000000064">
        <ele>589.240</ele>
        <time>2022-08-25T08:26:53Z</time>
      </trkpt>
      <trkpt lat="42.74985699999999" lon="-1.7199100000000065">
        <ele>589.267</ele>
        <time>2022-08-25T08:26:55Z</time>
      </trkpt>
      <trkpt lat="42.74983999999999" lon="-1.7199350000000064">
        <ele>589.210</ele>
        <time>2022-08-25T08:26:56Z</time>
      </trkpt>
      <trkpt lat="42.74982599999999" lon="-1.7199590000000065">
        <ele>589.496</ele>
        <time>2022-08-25T08:26:57Z</time>
      </trkpt>
      <trkpt lat="42.74981299999999" lon="-1.7199820000000066">
        <ele>589.627</ele>
        <time>2022-08-25T08:26:58Z</time>
      </trkpt>
      <trkpt lat="42.74979799999999" lon="-1.7200060000000066">
        <ele>589.656</ele>
        <time>2022-08-25T08:26:59Z</time>
      </trkpt>
      <trkpt lat="42.749782999999994" lon="-1.7200310000000065">
        <ele>589.859</ele>
        <time>2022-08-25T08:27:00Z</time>
      </trkpt>
      <trkpt lat="42.74976899999999" lon="-1.7200550000000066">
        <ele>589.814</ele>
        <time>2022-08-25T08:27:01Z</time>
      </trkpt>
      <trkpt lat="42.74975599999999" lon="-1.7200780000000067">
        <ele>590.009</ele>
        <time>2022-08-25T08:27:02Z</time>
      </trkpt>
      <trkpt lat="42.74974399999999" lon="-1.7201010000000068">
        <ele>590.076</ele>
        <time>2022-08-25T08:27:03Z</time>
      </trkpt>
      <trkpt lat="42.749731999999995" lon="-1.7201220000000068">
        <ele>590.236</ele>
        <time>2022-08-25T08:27:04Z</time>
      </trkpt>
      <trkpt lat="42.74971899999999" lon="-1.7201410000000068">
        <ele>590.226</ele>
        <time>2022-08-25T08:27:05Z</time>
      </trkpt>
      <trkpt lat="42.749706999999994" lon="-1.7201610000000067">
        <ele>590.432</ele>
        <time>2022-08-25T08:27:06Z</time>
      </trkpt>
      <trkpt lat="42.74969599999999" lon="-1.7201820000000068">
        <ele>590.414</ele>
        <time>2022-08-25T08:27:07Z</time>
      </trkpt>
      <trkpt lat="42.749686999999994" lon="-1.7202030000000068">
        <ele>590.681</ele>
        <time>2022-08-25T08:27:08Z</time>
      </trkpt>
      <trkpt lat="42.74967699999999" lon="-1.7202230000000067">
        <ele>590.634</ele>
        <time>2022-08-25T08:27:09Z</time>
      </trkpt>
      <trkpt lat="42.74966499999999" lon="-1.7202410000000068">
        <ele>590.870</ele>
        <time>2022-08-25T08:27:10Z</time>
      </trkpt>
      <trkpt lat="42.74965399999999" lon="-1.7202590000000069">
        <ele>590.871</ele>
        <time>2022-08-25T08:27:11Z</time>
      </trkpt>
      <trkpt lat="42.749644999999994" lon="-1.7202780000000069">
        <ele>590.838</ele>
        <time>2022-08-25T08:27:12Z</time>
      </trkpt>
      <trkpt lat="42.74963399999999" lon="-1.720299000000007">
        <ele>590.870</ele>
        <time>2022-08-25T08:27:13Z</time>
      </trkpt>
      <trkpt lat="42.749621999999995" lon="-1.720318000000007">
        <ele>590.817</ele>
        <time>2022-08-25T08:27:14Z</time>
      </trkpt>
      <trkpt lat="42.74957499999999" lon="-1.720409000000007">
        <ele>591.209</ele>
        <time>2022-08-25T08:27:19Z</time>
      </trkpt>
      <trkpt lat="42.749565999999994" lon="-1.720427000000007">
        <ele>591.414</ele>
        <time>2022-08-25T08:27:20Z</time>
      </trkpt>
      <trkpt lat="42.74955799999999" lon="-1.720444000000007">
        <ele>591.644</ele>
        <time>2022-08-25T08:27:21Z</time>
      </trkpt>
      <trkpt lat="42.749548999999995" lon="-1.7204640000000069">
        <ele>592.074</ele>
        <time>2022-08-25T08:27:22Z</time>
      </trkpt>
      <trkpt lat="42.749539999999996" lon="-1.7204810000000068">
        <ele>592.050</ele>
        <time>2022-08-25T08:27:23Z</time>
      </trkpt>
      <trkpt lat="42.749534999999995" lon="-1.7204950000000068">
        <ele>592.262</ele>
        <time>2022-08-25T08:27:24Z</time>
      </trkpt>
      <trkpt lat="42.749525999999996" lon="-1.7205090000000067">
        <ele>592.299</ele>
        <time>2022-08-25T08:27:25Z</time>
      </trkpt>
      <trkpt lat="42.74951599999999" lon="-1.7205240000000068">
        <ele>592.412</ele>
        <time>2022-08-25T08:27:26Z</time>
      </trkpt>
      <trkpt lat="42.749475999999994" lon="-1.7206050000000068">
        <ele>592.898</ele>
        <time>2022-08-25T08:27:31Z</time>
      </trkpt>
      <trkpt lat="42.749458" lon="-1.7206410000000067">
        <ele>593.049</ele>
        <time>2022-08-25T08:27:33Z</time>
      </trkpt>
      <trkpt lat="42.749449999999996" lon="-1.7206620000000068">
        <ele>593.057</ele>
        <time>2022-08-25T08:27:34Z</time>
      </trkpt>
      <trkpt lat="42.749444" lon="-1.7206790000000067">
        <ele>593.200</ele>
        <time>2022-08-25T08:27:35Z</time>
      </trkpt>
      <trkpt lat="42.749435999999996" lon="-1.7206950000000067">
        <ele>593.420</ele>
        <time>2022-08-25T08:27:36Z</time>
      </trkpt>
      <trkpt lat="42.749429" lon="-1.7207100000000068">
        <ele>593.409</ele>
        <time>2022-08-25T08:27:37Z</time>
      </trkpt>
      <trkpt lat="42.749422" lon="-1.7207210000000068">
        <ele>593.836</ele>
        <time>2022-08-25T08:27:38Z</time>
      </trkpt>
      <trkpt lat="42.749414" lon="-1.720731000000007">
        <ele>593.836</ele>
        <time>2022-08-25T08:27:39Z</time>
      </trkpt>
      <trkpt lat="42.749403" lon="-1.720746000000007">
        <ele>594.056</ele>
        <time>2022-08-25T08:27:40Z</time>
      </trkpt>
      <trkpt lat="42.749392" lon="-1.720761000000007">
        <ele>594.262</ele>
        <time>2022-08-25T08:27:41Z</time>
      </trkpt>
      <trkpt lat="42.749382" lon="-1.720770000000007">
        <ele>594.444</ele>
        <time>2022-08-25T08:27:42Z</time>
      </trkpt>
      <trkpt lat="42.749371" lon="-1.720782000000007">
        <ele>594.641</ele>
        <time>2022-08-25T08:27:43Z</time>
      </trkpt>
      <trkpt lat="42.74936099999999" lon="-1.720797000000007">
        <ele>594.834</ele>
        <time>2022-08-25T08:27:44Z</time>
      </trkpt>
      <trkpt lat="42.749351999999995" lon="-1.720815000000007">
        <ele>595.060</ele>
        <time>2022-08-25T08:27:45Z</time>
      </trkpt>
      <trkpt lat="42.749342999999996" lon="-1.7208300000000072">
        <ele>595.071</ele>
        <time>2022-08-25T08:27:46Z</time>
      </trkpt>
      <trkpt lat="42.749336" lon="-1.7208410000000072">
        <ele>595.463</ele>
        <time>2022-08-25T08:27:47Z</time>
      </trkpt>
      <trkpt lat="42.749325" lon="-1.7208520000000072">
        <ele>595.444</ele>
        <time>2022-08-25T08:27:48Z</time>
      </trkpt>
      <trkpt lat="42.749317" lon="-1.720864000000007">
        <ele>595.618</ele>
        <time>2022-08-25T08:27:49Z</time>
      </trkpt>
      <trkpt lat="42.749311" lon="-1.720873000000007">
        <ele>595.809</ele>
        <time>2022-08-25T08:27:50Z</time>
      </trkpt>
      <trkpt lat="42.749304" lon="-1.720884000000007">
        <ele>595.877</ele>
        <time>2022-08-25T08:27:51Z</time>
      </trkpt>
      <trkpt lat="42.749299" lon="-1.720894000000007">
        <ele>596.077</ele>
        <time>2022-08-25T08:27:52Z</time>
      </trkpt>
      <trkpt lat="42.749292000000004" lon="-1.720906000000007">
        <ele>596.077</ele>
        <time>2022-08-25T08:27:53Z</time>
      </trkpt>
      <trkpt lat="42.749281" lon="-1.720924000000007">
        <ele>596.213</ele>
        <time>2022-08-25T08:27:54Z</time>
      </trkpt>
      <trkpt lat="42.749275000000004" lon="-1.720935000000007">
        <ele>596.265</ele>
        <time>2022-08-25T08:27:55Z</time>
      </trkpt>
      <trkpt lat="42.749265" lon="-1.720950000000007">
        <ele>596.472</ele>
        <time>2022-08-25T08:27:56Z</time>
      </trkpt>
      <trkpt lat="42.749251" lon="-1.720970000000007">
        <ele>596.495</ele>
        <time>2022-08-25T08:27:57Z</time>
      </trkpt>
      <trkpt lat="42.74924" lon="-1.720991000000007">
        <ele>596.451</ele>
        <time>2022-08-25T08:27:58Z</time>
      </trkpt>
      <trkpt lat="42.749229" lon="-1.721010000000007">
        <ele>596.692</ele>
        <time>2022-08-25T08:27:59Z</time>
      </trkpt>
      <trkpt lat="42.749217" lon="-1.7210330000000071">
        <ele>596.637</ele>
        <time>2022-08-25T08:28:00Z</time>
      </trkpt>
      <trkpt lat="42.749204" lon="-1.721055000000007">
        <ele>596.849</ele>
        <time>2022-08-25T08:28:01Z</time>
      </trkpt>
      <trkpt lat="42.749188" lon="-1.7210790000000071">
        <ele>596.813</ele>
        <time>2022-08-25T08:28:02Z</time>
      </trkpt>
      <trkpt lat="42.749174999999994" lon="-1.7211020000000072">
        <ele>597.009</ele>
        <time>2022-08-25T08:28:03Z</time>
      </trkpt>
      <trkpt lat="42.74916499999999" lon="-1.7211260000000073">
        <ele>597.444</ele>
        <time>2022-08-25T08:28:04Z</time>
      </trkpt>
      <trkpt lat="42.74915299999999" lon="-1.7211490000000074">
        <ele>597.654</ele>
        <time>2022-08-25T08:28:05Z</time>
      </trkpt>
      <trkpt lat="42.749140999999995" lon="-1.7211720000000075">
        <ele>598.024</ele>
        <time>2022-08-25T08:28:06Z</time>
      </trkpt>
      <trkpt lat="42.749129999999994" lon="-1.7211950000000076">
        <ele>598.080</ele>
        <time>2022-08-25T08:28:07Z</time>
      </trkpt>
      <trkpt lat="42.749115999999994" lon="-1.7212160000000076">
        <ele>598.262</ele>
        <time>2022-08-25T08:28:08Z</time>
      </trkpt>
      <trkpt lat="42.74910199999999" lon="-1.7212400000000077">
        <ele>598.469</ele>
        <time>2022-08-25T08:28:09Z</time>
      </trkpt>
      <trkpt lat="42.749092999999995" lon="-1.7212610000000077">
        <ele>598.662</ele>
        <time>2022-08-25T08:28:10Z</time>
      </trkpt>
      <trkpt lat="42.749083999999996" lon="-1.7212790000000078">
        <ele>598.828</ele>
        <time>2022-08-25T08:28:11Z</time>
      </trkpt>
      <trkpt lat="42.749075" lon="-1.7212970000000078">
        <ele>599.079</ele>
        <time>2022-08-25T08:28:12Z</time>
      </trkpt>
      <trkpt lat="42.749064999999995" lon="-1.7213140000000078">
        <ele>599.473</ele>
        <time>2022-08-25T08:28:13Z</time>
      </trkpt>
      <trkpt lat="42.749055999999996" lon="-1.7213330000000078">
        <ele>599.685</ele>
        <time>2022-08-25T08:28:14Z</time>
      </trkpt>
      <trkpt lat="42.749047" lon="-1.7213530000000077">
        <ele>599.813</ele>
        <time>2022-08-25T08:28:15Z</time>
      </trkpt>
      <trkpt lat="42.749036" lon="-1.7213710000000078">
        <ele>600.009</ele>
        <time>2022-08-25T08:28:16Z</time>
      </trkpt>
      <trkpt lat="42.749024999999996" lon="-1.7213880000000077">
        <ele>600.258</ele>
        <time>2022-08-25T08:28:17Z</time>
      </trkpt>
      <trkpt lat="42.749018" lon="-1.7214030000000078">
        <ele>600.458</ele>
        <time>2022-08-25T08:28:18Z</time>
      </trkpt>
      <trkpt lat="42.749009" lon="-1.7214190000000078">
        <ele>600.658</ele>
        <time>2022-08-25T08:28:19Z</time>
      </trkpt>
      <trkpt lat="42.748997" lon="-1.7214350000000078">
        <ele>600.844</ele>
        <time>2022-08-25T08:28:20Z</time>
      </trkpt>
      <trkpt lat="42.748987" lon="-1.7214450000000079">
        <ele>601.056</ele>
        <time>2022-08-25T08:28:21Z</time>
      </trkpt>
      <trkpt lat="42.748979" lon="-1.721455000000008">
        <ele>601.453</ele>
        <time>2022-08-25T08:28:22Z</time>
      </trkpt>
      <trkpt lat="42.748973" lon="-1.7214670000000079">
        <ele>601.456</ele>
        <time>2022-08-25T08:28:23Z</time>
      </trkpt>
      <trkpt lat="42.748969" lon="-1.721477000000008">
        <ele>601.692</ele>
        <time>2022-08-25T08:28:24Z</time>
      </trkpt>
      <trkpt lat="42.748962000000006" lon="-1.721490000000008">
        <ele>601.633</ele>
        <time>2022-08-25T08:28:25Z</time>
      </trkpt>
      <trkpt lat="42.74895500000001" lon="-1.721500000000008">
        <ele>601.878</ele>
        <time>2022-08-25T08:28:26Z</time>
      </trkpt>
      <trkpt lat="42.74894900000001" lon="-1.721513000000008">
        <ele>601.833</ele>
        <time>2022-08-25T08:28:27Z</time>
      </trkpt>
      <trkpt lat="42.748942000000014" lon="-1.721526000000008">
        <ele>602.026</ele>
        <time>2022-08-25T08:28:28Z</time>
      </trkpt>
      <trkpt lat="42.74893400000001" lon="-1.721540000000008">
        <ele>602.009</ele>
        <time>2022-08-25T08:28:29Z</time>
      </trkpt>
      <trkpt lat="42.748927000000016" lon="-1.721553000000008">
        <ele>602.258</ele>
        <time>2022-08-25T08:28:30Z</time>
      </trkpt>
      <trkpt lat="42.748922000000015" lon="-1.7215680000000082">
        <ele>602.298</ele>
        <time>2022-08-25T08:28:31Z</time>
      </trkpt>
      <trkpt lat="42.74891700000001" lon="-1.7215820000000082">
        <ele>602.488</ele>
        <time>2022-08-25T08:28:32Z</time>
      </trkpt>
      <trkpt lat="42.748910000000016" lon="-1.7215970000000083">
        <ele>602.494</ele>
        <time>2022-08-25T08:28:33Z</time>
      </trkpt>
      <trkpt lat="42.74890100000002" lon="-1.7216100000000083">
        <ele>602.656</ele>
        <time>2022-08-25T08:28:34Z</time>
      </trkpt>
      <trkpt lat="42.748891000000015" lon="-1.7216260000000083">
        <ele>602.623</ele>
        <time>2022-08-25T08:28:35Z</time>
      </trkpt>
      <trkpt lat="42.74888700000002" lon="-1.7216440000000084">
        <ele>602.886</ele>
        <time>2022-08-25T08:28:36Z</time>
      </trkpt>
      <trkpt lat="42.74888100000002" lon="-1.7216630000000084">
        <ele>603.042</ele>
        <time>2022-08-25T08:28:37Z</time>
      </trkpt>
      <trkpt lat="42.74887300000002" lon="-1.7216790000000084">
        <ele>602.853</ele>
        <time>2022-08-25T08:28:38Z</time>
      </trkpt>
      <trkpt lat="42.74886600000002" lon="-1.7216920000000084">
        <ele>603.217</ele>
        <time>2022-08-25T08:28:39Z</time>
      </trkpt>
      <trkpt lat="42.74885700000002" lon="-1.7217030000000084">
        <ele>603.287</ele>
        <time>2022-08-25T08:28:40Z</time>
      </trkpt>
      <trkpt lat="42.74884700000002" lon="-1.7217130000000085">
        <ele>603.415</ele>
        <time>2022-08-25T08:28:41Z</time>
      </trkpt>
      <trkpt lat="42.748834000000016" lon="-1.7217240000000085">
        <ele>603.609</ele>
        <time>2022-08-25T08:28:42Z</time>
      </trkpt>
      <trkpt lat="42.748823000000016" lon="-1.7217350000000085">
        <ele>603.652</ele>
        <time>2022-08-25T08:28:43Z</time>
      </trkpt>
      <trkpt lat="42.74881700000002" lon="-1.7217500000000086">
        <ele>603.892</ele>
        <time>2022-08-25T08:28:44Z</time>
      </trkpt>
      <trkpt lat="42.74880800000002" lon="-1.7217680000000086">
        <ele>603.842</ele>
        <time>2022-08-25T08:28:45Z</time>
      </trkpt>
      <trkpt lat="42.74880400000002" lon="-1.7217770000000086">
        <ele>604.078</ele>
        <time>2022-08-25T08:28:46Z</time>
      </trkpt>
      <trkpt lat="42.748797000000025" lon="-1.7217890000000085">
        <ele>604.250</ele>
        <time>2022-08-25T08:28:47Z</time>
      </trkpt>
      <trkpt lat="42.74878700000002" lon="-1.7218020000000085">
        <ele>604.267</ele>
        <time>2022-08-25T08:28:48Z</time>
      </trkpt>
      <trkpt lat="42.74878100000002" lon="-1.7218110000000084">
        <ele>604.250</ele>
        <time>2022-08-25T08:28:49Z</time>
      </trkpt>
      <trkpt lat="42.74877300000002" lon="-1.7218210000000085">
        <ele>604.456</ele>
        <time>2022-08-25T08:28:50Z</time>
      </trkpt>
      <trkpt lat="42.74876300000002" lon="-1.7218340000000085">
        <ele>604.677</ele>
        <time>2022-08-25T08:28:51Z</time>
      </trkpt>
      <trkpt lat="42.74875700000002" lon="-1.7218430000000085">
        <ele>604.697</ele>
        <time>2022-08-25T08:28:52Z</time>
      </trkpt>
      <trkpt lat="42.74874600000002" lon="-1.7218600000000084">
        <ele>604.823</ele>
        <time>2022-08-25T08:28:53Z</time>
      </trkpt>
      <trkpt lat="42.74874100000002" lon="-1.7218710000000084">
        <ele>605.025</ele>
        <time>2022-08-25T08:28:54Z</time>
      </trkpt>
      <trkpt lat="42.748736000000015" lon="-1.7218850000000083">
        <ele>605.009</ele>
        <time>2022-08-25T08:28:55Z</time>
      </trkpt>
      <trkpt lat="42.74872900000002" lon="-1.7218980000000084">
        <ele>605.280</ele>
        <time>2022-08-25T08:28:56Z</time>
      </trkpt>
      <trkpt lat="42.74872500000002" lon="-1.7219090000000083">
        <ele>605.270</ele>
        <time>2022-08-25T08:28:57Z</time>
      </trkpt>
      <trkpt lat="42.748721000000025" lon="-1.7219200000000083">
        <ele>605.450</ele>
        <time>2022-08-25T08:28:58Z</time>
      </trkpt>
      <trkpt lat="42.748712000000026" lon="-1.7219340000000083">
        <ele>605.486</ele>
        <time>2022-08-25T08:28:59Z</time>
      </trkpt>
      <trkpt lat="42.74871100000003" lon="-1.7219490000000084">
        <ele>605.858</ele>
        <time>2022-08-25T08:29:00Z</time>
      </trkpt>
      <trkpt lat="42.74870700000003" lon="-1.7219630000000083">
        <ele>605.825</ele>
        <time>2022-08-25T08:29:01Z</time>
      </trkpt>
      <trkpt lat="42.74869900000003" lon="-1.7219770000000083">
        <ele>606.038</ele>
        <time>2022-08-25T08:29:02Z</time>
      </trkpt>
      <trkpt lat="42.74869300000003" lon="-1.7219880000000083">
        <ele>606.064</ele>
        <time>2022-08-25T08:29:03Z</time>
      </trkpt>
      <trkpt lat="42.748686000000035" lon="-1.7219990000000083">
        <ele>606.225</ele>
        <time>2022-08-25T08:29:04Z</time>
      </trkpt>
      <trkpt lat="42.748680000000036" lon="-1.7220100000000083">
        <ele>606.272</ele>
        <time>2022-08-25T08:29:05Z</time>
      </trkpt>
      <trkpt lat="42.74867300000004" lon="-1.7220230000000083">
        <ele>606.413</ele>
        <time>2022-08-25T08:29:06Z</time>
      </trkpt>
      <trkpt lat="42.74866400000004" lon="-1.7220360000000083">
        <ele>606.614</ele>
        <time>2022-08-25T08:29:07Z</time>
      </trkpt>
      <trkpt lat="42.74865600000004" lon="-1.7220490000000084">
        <ele>606.609</ele>
        <time>2022-08-25T08:29:08Z</time>
      </trkpt>
      <trkpt lat="42.74864800000004" lon="-1.7220620000000084">
        <ele>606.898</ele>
        <time>2022-08-25T08:29:09Z</time>
      </trkpt>
      <trkpt lat="42.74864300000004" lon="-1.7220730000000084">
        <ele>607.078</ele>
        <time>2022-08-25T08:29:10Z</time>
      </trkpt>
      <trkpt lat="42.748638000000035" lon="-1.7220840000000084">
        <ele>607.218</ele>
        <time>2022-08-25T08:29:11Z</time>
      </trkpt>
      <trkpt lat="42.74863100000004" lon="-1.7220970000000084">
        <ele>607.464</ele>
        <time>2022-08-25T08:29:12Z</time>
      </trkpt>
      <trkpt lat="42.74862200000004" lon="-1.7221110000000084">
        <ele>607.456</ele>
        <time>2022-08-25T08:29:13Z</time>
      </trkpt>
      <trkpt lat="42.74861300000004" lon="-1.7221240000000084">
        <ele>607.483</ele>
        <time>2022-08-25T08:29:14Z</time>
      </trkpt>
      <trkpt lat="42.74861000000004" lon="-1.7221340000000085">
        <ele>607.646</ele>
        <time>2022-08-25T08:29:15Z</time>
      </trkpt>
      <trkpt lat="42.748606000000045" lon="-1.7221450000000085">
        <ele>607.622</ele>
        <time>2022-08-25T08:29:16Z</time>
      </trkpt>
      <trkpt lat="42.74860400000004" lon="-1.7221580000000085">
        <ele>607.823</ele>
        <time>2022-08-25T08:29:17Z</time>
      </trkpt>
      <trkpt lat="42.748600000000046" lon="-1.7221710000000086">
        <ele>607.826</ele>
        <time>2022-08-25T08:29:18Z</time>
      </trkpt>
      <trkpt lat="42.748595000000044" lon="-1.7221800000000085">
        <ele>608.047</ele>
        <time>2022-08-25T08:29:19Z</time>
      </trkpt>
      <trkpt lat="42.74858700000004" lon="-1.7221880000000085">
        <ele>608.011</ele>
        <time>2022-08-25T08:29:20Z</time>
      </trkpt>
      <trkpt lat="42.74858200000004" lon="-1.7221920000000084">
        <ele>608.209</ele>
        <time>2022-08-25T08:29:21Z</time>
      </trkpt>
      <trkpt lat="42.748575000000045" lon="-1.7221950000000084">
        <ele>608.213</ele>
        <time>2022-08-25T08:29:22Z</time>
      </trkpt>
      <trkpt lat="42.74857000000004" lon="-1.7221910000000085">
        <ele>609.473</ele>
        <time>2022-08-25T08:29:46Z</time>
      </trkpt>
      <trkpt lat="42.74857000000004" lon="-1.7221910000000085">
        <ele>609.463</ele>
        <time>2022-08-25T08:29:47Z</time>
      </trkpt>
      <trkpt lat="42.74857000000004" lon="-1.7221910000000085">
        <ele>609.039</ele>
        <time>2022-08-25T08:29:51Z</time>
      </trkpt>
      <trkpt lat="42.748589000000045" lon="-1.7222000000000084">
        <ele>609.011</ele>
        <time>2022-08-25T08:30:46Z</time>
      </trkpt>
      <trkpt lat="42.74858200000005" lon="-1.7222100000000085">
        <ele>609.228</ele>
        <time>2022-08-25T08:30:47Z</time>
      </trkpt>
      <trkpt lat="42.74857500000005" lon="-1.7222390000000085">
        <ele>609.221</ele>
        <time>2022-08-25T08:30:49Z</time>
      </trkpt>
      <trkpt lat="42.748568000000056" lon="-1.7222540000000086">
        <ele>609.277</ele>
        <time>2022-08-25T08:30:50Z</time>
      </trkpt>
      <trkpt lat="42.748515000000054" lon="-1.7223350000000086">
        <ele>609.468</ele>
        <time>2022-08-25T08:30:53Z</time>
      </trkpt>
      <trkpt lat="42.74849700000006" lon="-1.7223680000000086">
        <ele>609.417</ele>
        <time>2022-08-25T08:30:54Z</time>
      </trkpt>
      <trkpt lat="42.74846900000006" lon="-1.7224240000000086">
        <ele>609.487</ele>
        <time>2022-08-25T08:30:56Z</time>
      </trkpt>
      <trkpt lat="42.74845400000006" lon="-1.7224490000000086">
        <ele>609.415</ele>
        <time>2022-08-25T08:30:57Z</time>
      </trkpt>
      <trkpt lat="42.74843200000006" lon="-1.7225120000000085">
        <ele>609.409</ele>
        <time>2022-08-25T08:30:59Z</time>
      </trkpt>
      <trkpt lat="42.748427000000056" lon="-1.7225380000000086">
        <ele>609.472</ele>
        <time>2022-08-25T08:31:00Z</time>
      </trkpt>
      <trkpt lat="42.74841800000006" lon="-1.7225680000000085">
        <ele>609.422</ele>
        <time>2022-08-25T08:31:01Z</time>
      </trkpt>
      <trkpt lat="42.74840700000006" lon="-1.7225930000000085">
        <ele>609.422</ele>
        <time>2022-08-25T08:31:02Z</time>
      </trkpt>
      <trkpt lat="42.74839300000006" lon="-1.7226170000000085">
        <ele>609.498</ele>
        <time>2022-08-25T08:31:03Z</time>
      </trkpt>
      <trkpt lat="42.74837900000006" lon="-1.7226330000000085">
        <ele>609.250</ele>
        <time>2022-08-25T08:31:04Z</time>
      </trkpt>
      <trkpt lat="42.748371000000056" lon="-1.7226460000000086">
        <ele>609.257</ele>
        <time>2022-08-25T08:31:05Z</time>
      </trkpt>
      <trkpt lat="42.74836100000005" lon="-1.7226590000000086">
        <ele>609.230</ele>
        <time>2022-08-25T08:31:06Z</time>
      </trkpt>
      <trkpt lat="42.74835300000005" lon="-1.7226710000000085">
        <ele>609.226</ele>
        <time>2022-08-25T08:31:07Z</time>
      </trkpt>
      <trkpt lat="42.74827400000005" lon="-1.7227650000000085">
        <ele>609.257</ele>
        <time>2022-08-25T08:31:13Z</time>
      </trkpt>
      <trkpt lat="42.74826600000005" lon="-1.7227760000000085">
        <ele>609.451</ele>
        <time>2022-08-25T08:31:14Z</time>
      </trkpt>
      <trkpt lat="42.74826400000005" lon="-1.7227870000000085">
        <ele>609.401</ele>
        <time>2022-08-25T08:31:15Z</time>
      </trkpt>
      <trkpt lat="42.748254000000045" lon="-1.7227940000000086">
        <ele>609.411</ele>
        <time>2022-08-25T08:31:16Z</time>
      </trkpt>
      <trkpt lat="42.74824500000005" lon="-1.7227910000000086">
        <ele>609.409</ele>
        <time>2022-08-25T08:31:17Z</time>
      </trkpt>
      <trkpt lat="42.748232000000044" lon="-1.7227950000000085">
        <ele>609.456</ele>
        <time>2022-08-25T08:31:18Z</time>
      </trkpt>
      <trkpt lat="42.74821100000005" lon="-1.7228100000000086">
        <ele>609.616</ele>
        <time>2022-08-25T08:31:20Z</time>
      </trkpt>
      <trkpt lat="42.74819300000005" lon="-1.7228300000000085">
        <ele>609.686</ele>
        <time>2022-08-25T08:31:21Z</time>
      </trkpt>
      <trkpt lat="42.74817900000005" lon="-1.7228520000000085">
        <ele>609.822</ele>
        <time>2022-08-25T08:31:22Z</time>
      </trkpt>
      <trkpt lat="42.74816700000005" lon="-1.7228680000000085">
        <ele>609.844</ele>
        <time>2022-08-25T08:31:23Z</time>
      </trkpt>
      <trkpt lat="42.74815100000005" lon="-1.7228800000000084">
        <ele>610.041</ele>
        <time>2022-08-25T08:31:24Z</time>
      </trkpt>
      <trkpt lat="42.74813800000005" lon="-1.7228950000000085">
        <ele>610.024</ele>
        <time>2022-08-25T08:31:25Z</time>
      </trkpt>
      <trkpt lat="42.74812300000005" lon="-1.7229020000000086">
        <ele>610.020</ele>
        <time>2022-08-25T08:31:26Z</time>
      </trkpt>
      <trkpt lat="42.748113000000046" lon="-1.7229120000000087">
        <ele>610.031</ele>
        <time>2022-08-25T08:31:27Z</time>
      </trkpt>
      <trkpt lat="42.74810300000004" lon="-1.7229270000000088">
        <ele>610.234</ele>
        <time>2022-08-25T08:31:28Z</time>
      </trkpt>
      <trkpt lat="42.74806100000004" lon="-1.7229940000000088">
        <ele>610.455</ele>
        <time>2022-08-25T08:31:31Z</time>
      </trkpt>
      <trkpt lat="42.74795500000004" lon="-1.7230940000000088">
        <ele>610.810</ele>
        <time>2022-08-25T08:31:36Z</time>
      </trkpt>
      <trkpt lat="42.74789500000004" lon="-1.7231210000000088">
        <ele>610.809</ele>
        <time>2022-08-25T08:31:39Z</time>
      </trkpt>
      <trkpt lat="42.74788100000004" lon="-1.7231310000000089">
        <ele>610.844</ele>
        <time>2022-08-25T08:31:40Z</time>
      </trkpt>
      <trkpt lat="42.74786700000004" lon="-1.7231470000000089">
        <ele>611.074</ele>
        <time>2022-08-25T08:31:41Z</time>
      </trkpt>
      <trkpt lat="42.74785700000004" lon="-1.7231580000000088">
        <ele>611.294</ele>
        <time>2022-08-25T08:31:42Z</time>
      </trkpt>
      <trkpt lat="42.74784900000004" lon="-1.7231690000000088">
        <ele>611.250</ele>
        <time>2022-08-25T08:31:43Z</time>
      </trkpt>
      <trkpt lat="42.74782000000004" lon="-1.7231780000000088">
        <ele>611.842</ele>
        <time>2022-08-25T08:31:45Z</time>
      </trkpt>
      <trkpt lat="42.74780800000004" lon="-1.7231800000000088">
        <ele>611.829</ele>
        <time>2022-08-25T08:31:46Z</time>
      </trkpt>
      <trkpt lat="42.74779400000004" lon="-1.7231820000000089">
        <ele>612.012</ele>
        <time>2022-08-25T08:31:47Z</time>
      </trkpt>
      <trkpt lat="42.74778400000004" lon="-1.723181000000009">
        <ele>612.028</ele>
        <time>2022-08-25T08:31:48Z</time>
      </trkpt>
      <trkpt lat="42.747774000000035" lon="-1.723178000000009">
        <ele>612.289</ele>
        <time>2022-08-25T08:31:49Z</time>
      </trkpt>
      <trkpt lat="42.74776500000004" lon="-1.723177000000009">
        <ele>612.256</ele>
        <time>2022-08-25T08:31:50Z</time>
      </trkpt>
      <trkpt lat="42.74775800000004" lon="-1.723185000000009">
        <ele>612.459</ele>
        <time>2022-08-25T08:31:51Z</time>
      </trkpt>
      <trkpt lat="42.74775300000004" lon="-1.723194000000009">
        <ele>612.414</ele>
        <time>2022-08-25T08:31:52Z</time>
      </trkpt>
      <trkpt lat="42.747743000000035" lon="-1.723206000000009">
        <ele>612.409</ele>
        <time>2022-08-25T08:31:53Z</time>
      </trkpt>
      <trkpt lat="42.74772800000004" lon="-1.7232200000000089">
        <ele>612.666</ele>
        <time>2022-08-25T08:31:54Z</time>
      </trkpt>
      <trkpt lat="42.74765500000004" lon="-1.723273000000009">
        <ele>613.026</ele>
        <time>2022-08-25T08:31:58Z</time>
      </trkpt>
      <trkpt lat="42.74763800000004" lon="-1.723284000000009">
        <ele>613.266</ele>
        <time>2022-08-25T08:31:59Z</time>
      </trkpt>
      <trkpt lat="42.74762300000004" lon="-1.7232900000000089">
        <ele>613.242</ele>
        <time>2022-08-25T08:32:00Z</time>
      </trkpt>
      <trkpt lat="42.74760800000004" lon="-1.7232940000000088">
        <ele>613.414</ele>
        <time>2022-08-25T08:32:01Z</time>
      </trkpt>
      <trkpt lat="42.747596000000044" lon="-1.7232940000000088">
        <ele>613.441</ele>
        <time>2022-08-25T08:32:02Z</time>
      </trkpt>
      <trkpt lat="42.74758100000005" lon="-1.7232950000000087">
        <ele>613.674</ele>
        <time>2022-08-25T08:32:03Z</time>
      </trkpt>
      <trkpt lat="42.74756600000005" lon="-1.7232980000000087">
        <ele>613.630</ele>
        <time>2022-08-25T08:32:04Z</time>
      </trkpt>
      <trkpt lat="42.74754800000005" lon="-1.7233040000000086">
        <ele>613.831</ele>
        <time>2022-08-25T08:32:05Z</time>
      </trkpt>
      <trkpt lat="42.747533000000054" lon="-1.7233110000000087">
        <ele>614.084</ele>
        <time>2022-08-25T08:32:06Z</time>
      </trkpt>
      <trkpt lat="42.747521000000056" lon="-1.7233160000000087">
        <ele>614.207</ele>
        <time>2022-08-25T08:32:07Z</time>
      </trkpt>
      <trkpt lat="42.747507000000056" lon="-1.7233220000000087">
        <ele>614.417</ele>
        <time>2022-08-25T08:32:08Z</time>
      </trkpt>
      <trkpt lat="42.74749100000005" lon="-1.7233320000000087">
        <ele>614.409</ele>
        <time>2022-08-25T08:32:09Z</time>
      </trkpt>
      <trkpt lat="42.74747800000005" lon="-1.7233360000000086">
        <ele>614.459</ele>
        <time>2022-08-25T08:32:10Z</time>
      </trkpt>
      <trkpt lat="42.74745500000005" lon="-1.7233460000000087">
        <ele>614.439</ele>
        <time>2022-08-25T08:32:11Z</time>
      </trkpt>
      <trkpt lat="42.74743900000005" lon="-1.7233540000000087">
        <ele>614.649</ele>
        <time>2022-08-25T08:32:12Z</time>
      </trkpt>
      <trkpt lat="42.74742200000005" lon="-1.7233640000000088">
        <ele>614.855</ele>
        <time>2022-08-25T08:32:13Z</time>
      </trkpt>
      <trkpt lat="42.74740200000005" lon="-1.7233700000000087">
        <ele>614.857</ele>
        <time>2022-08-25T08:32:14Z</time>
      </trkpt>
      <trkpt lat="42.747381000000054" lon="-1.7233760000000087">
        <ele>615.024</ele>
        <time>2022-08-25T08:32:15Z</time>
      </trkpt>
      <trkpt lat="42.747361000000055" lon="-1.7233790000000087">
        <ele>615.047</ele>
        <time>2022-08-25T08:32:16Z</time>
      </trkpt>
      <trkpt lat="42.74734300000006" lon="-1.7233820000000086">
        <ele>615.223</ele>
        <time>2022-08-25T08:32:17Z</time>
      </trkpt>
      <trkpt lat="42.74732300000006" lon="-1.7233840000000087">
        <ele>615.264</ele>
        <time>2022-08-25T08:32:18Z</time>
      </trkpt>
      <trkpt lat="42.74730100000006" lon="-1.7233880000000086">
        <ele>615.282</ele>
        <time>2022-08-25T08:32:19Z</time>
      </trkpt>
      <trkpt lat="42.747276000000056" lon="-1.7233940000000085">
        <ele>615.443</ele>
        <time>2022-08-25T08:32:20Z</time>
      </trkpt>
      <trkpt lat="42.747254000000055" lon="-1.7234000000000085">
        <ele>615.417</ele>
        <time>2022-08-25T08:32:21Z</time>
      </trkpt>
      <trkpt lat="42.74723600000006" lon="-1.7234040000000084">
        <ele>615.609</ele>
        <time>2022-08-25T08:32:22Z</time>
      </trkpt>
      <trkpt lat="42.74721300000006" lon="-1.7234100000000083">
        <ele>615.689</ele>
        <time>2022-08-25T08:32:23Z</time>
      </trkpt>
      <trkpt lat="42.74719300000006" lon="-1.7234110000000082">
        <ele>615.669</ele>
        <time>2022-08-25T08:32:24Z</time>
      </trkpt>
      <trkpt lat="42.74716700000006" lon="-1.7234100000000083">
        <ele>615.639</ele>
        <time>2022-08-25T08:32:25Z</time>
      </trkpt>
      <trkpt lat="42.74715000000006" lon="-1.7234100000000083">
        <ele>615.615</ele>
        <time>2022-08-25T08:32:26Z</time>
      </trkpt>
      <trkpt lat="42.74712700000006" lon="-1.7234110000000082">
        <ele>615.827</ele>
        <time>2022-08-25T08:32:27Z</time>
      </trkpt>
      <trkpt lat="42.747107000000064" lon="-1.7234130000000083">
        <ele>615.844</ele>
        <time>2022-08-25T08:32:28Z</time>
      </trkpt>
      <trkpt lat="42.747087000000064" lon="-1.7234130000000083">
        <ele>616.097</ele>
        <time>2022-08-25T08:32:29Z</time>
      </trkpt>
      <trkpt lat="42.747064000000066" lon="-1.7234120000000084">
        <ele>616.073</ele>
        <time>2022-08-25T08:32:30Z</time>
      </trkpt>
      <trkpt lat="42.74704100000007" lon="-1.7234150000000084">
        <ele>616.074</ele>
        <time>2022-08-25T08:32:31Z</time>
      </trkpt>
      <trkpt lat="42.74701800000007" lon="-1.7234200000000084">
        <ele>616.297</ele>
        <time>2022-08-25T08:32:32Z</time>
      </trkpt>
      <trkpt lat="42.74685200000007" lon="-1.7234390000000084">
        <ele>616.623</ele>
        <time>2022-08-25T08:32:39Z</time>
      </trkpt>
      <trkpt lat="42.74682600000007" lon="-1.7234460000000085">
        <ele>616.825</ele>
        <time>2022-08-25T08:32:40Z</time>
      </trkpt>
      <trkpt lat="42.74663200000007" lon="-1.7234660000000084">
        <ele>616.609</ele>
        <time>2022-08-25T08:32:47Z</time>
      </trkpt>
      <trkpt lat="42.74657100000007" lon="-1.7234730000000085">
        <ele>616.680</ele>
        <time>2022-08-25T08:32:49Z</time>
      </trkpt>
      <trkpt lat="42.74651100000007" lon="-1.7234880000000086">
        <ele>616.650</ele>
        <time>2022-08-25T08:32:51Z</time>
      </trkpt>
      <trkpt lat="42.74648600000007" lon="-1.7234920000000085">
        <ele>616.630</ele>
        <time>2022-08-25T08:32:52Z</time>
      </trkpt>
      <trkpt lat="42.74642900000007" lon="-1.7234980000000084">
        <ele>616.666</ele>
        <time>2022-08-25T08:32:54Z</time>
      </trkpt>
      <trkpt lat="42.74636900000007" lon="-1.7235160000000085">
        <ele>617.028</ele>
        <time>2022-08-25T08:32:56Z</time>
      </trkpt>
      <trkpt lat="42.746340000000075" lon="-1.7235310000000086">
        <ele>617.275</ele>
        <time>2022-08-25T08:32:57Z</time>
      </trkpt>
      <trkpt lat="42.74631600000007" lon="-1.7235510000000085">
        <ele>617.248</ele>
        <time>2022-08-25T08:32:58Z</time>
      </trkpt>
      <trkpt lat="42.74629100000007" lon="-1.7235700000000085">
        <ele>617.434</ele>
        <time>2022-08-25T08:32:59Z</time>
      </trkpt>
      <trkpt lat="42.74622300000007" lon="-1.7236170000000084">
        <ele>617.625</ele>
        <time>2022-08-25T08:33:01Z</time>
      </trkpt>
      <trkpt lat="42.74617900000007" lon="-1.7236490000000084">
        <ele>617.882</ele>
        <time>2022-08-25T08:33:02Z</time>
      </trkpt>
      <trkpt lat="42.74605000000007" lon="-1.7237680000000084">
        <ele>617.843</ele>
        <time>2022-08-25T08:33:05Z</time>
      </trkpt>
      <trkpt lat="42.74590100000007" lon="-1.7239000000000084">
        <ele>617.817</ele>
        <time>2022-08-25T08:33:08Z</time>
      </trkpt>
      <trkpt lat="42.74585600000007" lon="-1.7239420000000085">
        <ele>617.809</ele>
        <time>2022-08-25T08:33:09Z</time>
      </trkpt>
      <trkpt lat="42.745812000000065" lon="-1.7239870000000086">
        <ele>617.659</ele>
        <time>2022-08-25T08:33:10Z</time>
      </trkpt>
      <trkpt lat="42.745770000000064" lon="-1.7240320000000087">
        <ele>617.619</ele>
        <time>2022-08-25T08:33:11Z</time>
      </trkpt>
      <trkpt lat="42.745730000000066" lon="-1.7240770000000087">
        <ele>617.669</ele>
        <time>2022-08-25T08:33:12Z</time>
      </trkpt>
      <trkpt lat="42.74569300000007" lon="-1.7241190000000088">
        <ele>617.635</ele>
        <time>2022-08-25T08:33:13Z</time>
      </trkpt>
      <trkpt lat="42.74565500000006" lon="-1.7241580000000087">
        <ele>617.447</ele>
        <time>2022-08-25T08:33:14Z</time>
      </trkpt>
      <trkpt lat="42.745578000000066" lon="-1.7242410000000088">
        <ele>617.264</ele>
        <time>2022-08-25T08:33:16Z</time>
      </trkpt>
      <trkpt lat="42.745539000000065" lon="-1.7242790000000088">
        <ele>617.037</ele>
        <time>2022-08-25T08:33:17Z</time>
      </trkpt>
      <trkpt lat="42.74550300000006" lon="-1.7243140000000088">
        <ele>617.013</ele>
        <time>2022-08-25T08:33:18Z</time>
      </trkpt>
      <trkpt lat="42.74547000000006" lon="-1.7243530000000087">
        <ele>616.864</ele>
        <time>2022-08-25T08:33:19Z</time>
      </trkpt>
      <trkpt lat="42.74543900000006" lon="-1.7243950000000088">
        <ele>616.836</ele>
        <time>2022-08-25T08:33:20Z</time>
      </trkpt>
      <trkpt lat="42.745407000000064" lon="-1.7244370000000089">
        <ele>616.817</ele>
        <time>2022-08-25T08:33:21Z</time>
      </trkpt>
      <trkpt lat="42.74534100000007" lon="-1.7245220000000088">
        <ele>616.618</ele>
        <time>2022-08-25T08:33:23Z</time>
      </trkpt>
      <trkpt lat="42.745311000000065" lon="-1.7245610000000087">
        <ele>616.609</ele>
        <time>2022-08-25T08:33:24Z</time>
      </trkpt>
      <trkpt lat="42.745283000000065" lon="-1.7246000000000086">
        <ele>616.434</ele>
        <time>2022-08-25T08:33:25Z</time>
      </trkpt>
      <trkpt lat="42.745252000000065" lon="-1.7246360000000085">
        <ele>616.474</ele>
        <time>2022-08-25T08:33:26Z</time>
      </trkpt>
      <trkpt lat="42.74521600000006" lon="-1.7246670000000084">
        <ele>616.244</ele>
        <time>2022-08-25T08:33:27Z</time>
      </trkpt>
      <trkpt lat="42.74518000000006" lon="-1.7246960000000084">
        <ele>616.240</ele>
        <time>2022-08-25T08:33:28Z</time>
      </trkpt>
      <trkpt lat="42.744999000000064" lon="-1.7248000000000085">
        <ele>616.252</ele>
        <time>2022-08-25T08:33:33Z</time>
      </trkpt>
      <trkpt lat="42.744962000000065" lon="-1.7248150000000086">
        <ele>616.259</ele>
        <time>2022-08-25T08:33:34Z</time>
      </trkpt>
      <trkpt lat="42.74492700000007" lon="-1.7248310000000087">
        <ele>616.222</ele>
        <time>2022-08-25T08:33:35Z</time>
      </trkpt>
      <trkpt lat="42.74481900000007" lon="-1.7248910000000086">
        <ele>616.228</ele>
        <time>2022-08-25T08:33:38Z</time>
      </trkpt>
      <trkpt lat="42.74474300000007" lon="-1.7249470000000087">
        <ele>616.449</ele>
        <time>2022-08-25T08:33:40Z</time>
      </trkpt>
      <trkpt lat="42.74470300000007" lon="-1.7249780000000086">
        <ele>616.421</ele>
        <time>2022-08-25T08:33:41Z</time>
      </trkpt>
      <trkpt lat="42.74441700000007" lon="-1.7252010000000086">
        <ele>616.241</ele>
        <time>2022-08-25T08:33:48Z</time>
      </trkpt>
      <trkpt lat="42.74437000000007" lon="-1.7252330000000087">
        <ele>616.005</ele>
        <time>2022-08-25T08:33:49Z</time>
      </trkpt>
      <trkpt lat="42.744064000000066" lon="-1.7254500000000086">
        <ele>615.409</ele>
        <time>2022-08-25T08:33:56Z</time>
      </trkpt>
      <trkpt lat="42.74402700000007" lon="-1.7254780000000085">
        <ele>615.453</ele>
        <time>2022-08-25T08:33:57Z</time>
      </trkpt>
      <trkpt lat="42.74399300000007" lon="-1.7255010000000086">
        <ele>615.473</ele>
        <time>2022-08-25T08:33:58Z</time>
      </trkpt>
      <trkpt lat="42.743839000000065" lon="-1.7256120000000086">
        <ele>615.473</ele>
        <time>2022-08-25T08:34:02Z</time>
      </trkpt>
      <trkpt lat="42.743752000000065" lon="-1.7256750000000085">
        <ele>615.039</ele>
        <time>2022-08-25T08:34:04Z</time>
      </trkpt>
      <trkpt lat="42.74357100000007" lon="-1.7258060000000086">
        <ele>614.641</ele>
        <time>2022-08-25T08:34:08Z</time>
      </trkpt>
      <trkpt lat="42.743529000000066" lon="-1.7258390000000086">
        <ele>614.668</ele>
        <time>2022-08-25T08:34:09Z</time>
      </trkpt>
      <trkpt lat="42.74348600000007" lon="-1.7258720000000085">
        <ele>614.641</ele>
        <time>2022-08-25T08:34:10Z</time>
      </trkpt>
      <trkpt lat="42.743445000000065" lon="-1.7259060000000086">
        <ele>614.467</ele>
        <time>2022-08-25T08:34:11Z</time>
      </trkpt>
      <trkpt lat="42.743406000000064" lon="-1.7259420000000085">
        <ele>614.468</ele>
        <time>2022-08-25T08:34:12Z</time>
      </trkpt>
      <trkpt lat="42.74337100000007" lon="-1.7259820000000086">
        <ele>614.453</ele>
        <time>2022-08-25T08:34:13Z</time>
      </trkpt>
      <trkpt lat="42.74330900000007" lon="-1.7260810000000086">
        <ele>614.404</ele>
        <time>2022-08-25T08:34:15Z</time>
      </trkpt>
      <trkpt lat="42.74328600000007" lon="-1.7261410000000086">
        <ele>614.414</ele>
        <time>2022-08-25T08:34:16Z</time>
      </trkpt>
      <trkpt lat="42.74326500000007" lon="-1.7262000000000086">
        <ele>614.609</ele>
        <time>2022-08-25T08:34:17Z</time>
      </trkpt>
      <trkpt lat="42.743250000000074" lon="-1.7262540000000086">
        <ele>614.676</ele>
        <time>2022-08-25T08:34:18Z</time>
      </trkpt>
      <trkpt lat="42.743238000000076" lon="-1.7263060000000086">
        <ele>614.836</ele>
        <time>2022-08-25T08:34:19Z</time>
      </trkpt>
      <trkpt lat="42.74322900000008" lon="-1.7263550000000085">
        <ele>614.866</ele>
        <time>2022-08-25T08:34:20Z</time>
      </trkpt>
      <trkpt lat="42.74322300000008" lon="-1.7263990000000085">
        <ele>614.852</ele>
        <time>2022-08-25T08:34:21Z</time>
      </trkpt>
      <trkpt lat="42.74321600000008" lon="-1.7264350000000084">
        <ele>614.894</ele>
        <time>2022-08-25T08:34:22Z</time>
      </trkpt>
      <trkpt lat="42.74320600000008" lon="-1.7264670000000084">
        <ele>614.681</ele>
        <time>2022-08-25T08:34:23Z</time>
      </trkpt>
      <trkpt lat="42.743196000000076" lon="-1.7264930000000085">
        <ele>614.654</ele>
        <time>2022-08-25T08:34:24Z</time>
      </trkpt>
      <trkpt lat="42.743185000000075" lon="-1.7265170000000085">
        <ele>614.620</ele>
        <time>2022-08-25T08:34:25Z</time>
      </trkpt>
      <trkpt lat="42.743174000000074" lon="-1.7265370000000084">
        <ele>615.071</ele>
        <time>2022-08-25T08:34:26Z</time>
      </trkpt>
      <trkpt lat="42.74316400000007" lon="-1.7265550000000085">
        <ele>615.072</ele>
        <time>2022-08-25T08:34:27Z</time>
      </trkpt>
      <trkpt lat="42.74315500000007" lon="-1.7265750000000084">
        <ele>614.813</ele>
        <time>2022-08-25T08:34:28Z</time>
      </trkpt>
      <trkpt lat="42.74315000000007" lon="-1.7265990000000084">
        <ele>615.214</ele>
        <time>2022-08-25T08:34:29Z</time>
      </trkpt>
      <trkpt lat="42.74314800000007" lon="-1.7266450000000084">
        <ele>615.609</ele>
        <time>2022-08-25T08:34:31Z</time>
      </trkpt>
      <trkpt lat="42.74315000000007" lon="-1.7266660000000085">
        <ele>615.878</ele>
        <time>2022-08-25T08:34:32Z</time>
      </trkpt>
      <trkpt lat="42.74315200000007" lon="-1.7266870000000085">
        <ele>616.428</ele>
        <time>2022-08-25T08:34:33Z</time>
      </trkpt>
      <trkpt lat="42.74315300000007" lon="-1.7267110000000085">
        <ele>616.658</ele>
        <time>2022-08-25T08:34:34Z</time>
      </trkpt>
      <trkpt lat="42.74315700000007" lon="-1.7267300000000085">
        <ele>617.034</ele>
        <time>2022-08-25T08:34:35Z</time>
      </trkpt>
      <trkpt lat="42.74315600000007" lon="-1.7267500000000084">
        <ele>617.686</ele>
        <time>2022-08-25T08:34:36Z</time>
      </trkpt>
      <trkpt lat="42.74315500000007" lon="-1.7267690000000084">
        <ele>617.853</ele>
        <time>2022-08-25T08:34:37Z</time>
      </trkpt>
      <trkpt lat="42.743151000000076" lon="-1.7267860000000084">
        <ele>618.286</ele>
        <time>2022-08-25T08:34:38Z</time>
      </trkpt>
      <trkpt lat="42.743146000000074" lon="-1.7268040000000084">
        <ele>618.282</ele>
        <time>2022-08-25T08:34:39Z</time>
      </trkpt>
      <trkpt lat="42.74314500000008" lon="-1.7268230000000084">
        <ele>618.683</ele>
        <time>2022-08-25T08:34:40Z</time>
      </trkpt>
      <trkpt lat="42.74314500000008" lon="-1.7268430000000083">
        <ele>618.875</ele>
        <time>2022-08-25T08:34:41Z</time>
      </trkpt>
      <trkpt lat="42.74314400000008" lon="-1.7268610000000084">
        <ele>619.028</ele>
        <time>2022-08-25T08:34:42Z</time>
      </trkpt>
      <trkpt lat="42.74314300000008" lon="-1.7268780000000084">
        <ele>619.420</ele>
        <time>2022-08-25T08:34:43Z</time>
      </trkpt>
      <trkpt lat="42.743142000000084" lon="-1.7268950000000083">
        <ele>619.609</ele>
        <time>2022-08-25T08:34:44Z</time>
      </trkpt>
      <trkpt lat="42.743139000000085" lon="-1.7269120000000082">
        <ele>619.878</ele>
        <time>2022-08-25T08:34:45Z</time>
      </trkpt>
      <trkpt lat="42.74313500000009" lon="-1.7269300000000083">
        <ele>620.068</ele>
        <time>2022-08-25T08:34:46Z</time>
      </trkpt>
      <trkpt lat="42.74313400000009" lon="-1.7269500000000082">
        <ele>620.078</ele>
        <time>2022-08-25T08:34:47Z</time>
      </trkpt>
      <trkpt lat="42.74313000000009" lon="-1.7269680000000083">
        <ele>620.244</ele>
        <time>2022-08-25T08:34:48Z</time>
      </trkpt>
      <trkpt lat="42.743127000000094" lon="-1.7269870000000083">
        <ele>620.236</ele>
        <time>2022-08-25T08:34:49Z</time>
      </trkpt>
      <trkpt lat="42.743126000000096" lon="-1.7270070000000082">
        <ele>620.433</ele>
        <time>2022-08-25T08:34:50Z</time>
      </trkpt>
      <trkpt lat="42.7431230000001" lon="-1.7270260000000082">
        <ele>620.436</ele>
        <time>2022-08-25T08:34:51Z</time>
      </trkpt>
      <trkpt lat="42.743121000000095" lon="-1.7270450000000082">
        <ele>620.672</ele>
        <time>2022-08-25T08:34:52Z</time>
      </trkpt>
      <trkpt lat="42.743121000000095" lon="-1.7270660000000082">
        <ele>620.673</ele>
        <time>2022-08-25T08:34:53Z</time>
      </trkpt>
      <trkpt lat="42.7431200000001" lon="-1.7270860000000081">
        <ele>620.829</ele>
        <time>2022-08-25T08:34:54Z</time>
      </trkpt>
      <trkpt lat="42.7431130000001" lon="-1.7271040000000082">
        <ele>620.800</ele>
        <time>2022-08-25T08:34:55Z</time>
      </trkpt>
      <trkpt lat="42.743106000000104" lon="-1.7271190000000083">
        <ele>621.020</ele>
        <time>2022-08-25T08:34:56Z</time>
      </trkpt>
      <trkpt lat="42.7430980000001" lon="-1.7271360000000082">
        <ele>621.209</ele>
        <time>2022-08-25T08:34:57Z</time>
      </trkpt>
      <trkpt lat="42.743092000000104" lon="-1.7271560000000081">
        <ele>621.463</ele>
        <time>2022-08-25T08:34:58Z</time>
      </trkpt>
      <trkpt lat="42.743089000000104" lon="-1.7271750000000081">
        <ele>621.613</ele>
        <time>2022-08-25T08:34:59Z</time>
      </trkpt>
      <trkpt lat="42.7430840000001" lon="-1.727192000000008">
        <ele>621.873</ele>
        <time>2022-08-25T08:35:00Z</time>
      </trkpt>
      <trkpt lat="42.7430790000001" lon="-1.7272100000000081">
        <ele>621.889</ele>
        <time>2022-08-25T08:35:01Z</time>
      </trkpt>
      <trkpt lat="42.743075000000104" lon="-1.7272260000000081">
        <ele>622.061</ele>
        <time>2022-08-25T08:35:02Z</time>
      </trkpt>
      <trkpt lat="42.743069000000105" lon="-1.727246000000008">
        <ele>622.038</ele>
        <time>2022-08-25T08:35:03Z</time>
      </trkpt>
      <trkpt lat="42.743066000000105" lon="-1.727267000000008">
        <ele>622.231</ele>
        <time>2022-08-25T08:35:04Z</time>
      </trkpt>
      <trkpt lat="42.74306500000011" lon="-1.7272910000000081">
        <ele>622.427</ele>
        <time>2022-08-25T08:35:05Z</time>
      </trkpt>
      <trkpt lat="42.74306500000011" lon="-1.7273200000000082">
        <ele>622.628</ele>
        <time>2022-08-25T08:35:06Z</time>
      </trkpt>
      <trkpt lat="42.743063000000106" lon="-1.727351000000008">
        <ele>622.678</ele>
        <time>2022-08-25T08:35:07Z</time>
      </trkpt>
      <trkpt lat="42.743061000000104" lon="-1.7273800000000081">
        <ele>622.833</ele>
        <time>2022-08-25T08:35:08Z</time>
      </trkpt>
      <trkpt lat="42.743058000000104" lon="-1.7274040000000082">
        <ele>623.226</ele>
        <time>2022-08-25T08:35:09Z</time>
      </trkpt>
      <trkpt lat="42.74305400000011" lon="-1.7274270000000083">
        <ele>623.209</ele>
        <time>2022-08-25T08:35:10Z</time>
      </trkpt>
      <trkpt lat="42.74305000000011" lon="-1.7274510000000083">
        <ele>623.848</ele>
        <time>2022-08-25T08:35:11Z</time>
      </trkpt>
      <trkpt lat="42.74304600000011" lon="-1.7274800000000083">
        <ele>624.088</ele>
        <time>2022-08-25T08:35:12Z</time>
      </trkpt>
      <trkpt lat="42.743045000000116" lon="-1.7275000000000083">
        <ele>624.488</ele>
        <time>2022-08-25T08:35:13Z</time>
      </trkpt>
      <trkpt lat="42.74304400000012" lon="-1.7275260000000083">
        <ele>624.644</ele>
        <time>2022-08-25T08:35:14Z</time>
      </trkpt>
      <trkpt lat="42.74304100000012" lon="-1.7275550000000084">
        <ele>624.846</ele>
        <time>2022-08-25T08:35:15Z</time>
      </trkpt>
      <trkpt lat="42.74304100000012" lon="-1.7275750000000083">
        <ele>625.243</ele>
        <time>2022-08-25T08:35:16Z</time>
      </trkpt>
      <trkpt lat="42.743042000000116" lon="-1.7276000000000082">
        <ele>625.416</ele>
        <time>2022-08-25T08:35:17Z</time>
      </trkpt>
      <trkpt lat="42.743042000000116" lon="-1.7276220000000082">
        <ele>625.682</ele>
        <time>2022-08-25T08:35:18Z</time>
      </trkpt>
      <trkpt lat="42.74304400000012" lon="-1.7276450000000083">
        <ele>625.873</ele>
        <time>2022-08-25T08:35:19Z</time>
      </trkpt>
      <trkpt lat="42.74304700000012" lon="-1.7276670000000083">
        <ele>626.218</ele>
        <time>2022-08-25T08:35:20Z</time>
      </trkpt>
      <trkpt lat="42.74304700000012" lon="-1.7276960000000083">
        <ele>626.498</ele>
        <time>2022-08-25T08:35:21Z</time>
      </trkpt>
      <trkpt lat="42.74304600000012" lon="-1.7277200000000084">
        <ele>626.417</ele>
        <time>2022-08-25T08:35:22Z</time>
      </trkpt>
      <trkpt lat="42.74304700000012" lon="-1.7277370000000083">
        <ele>626.809</ele>
        <time>2022-08-25T08:35:23Z</time>
      </trkpt>
      <trkpt lat="42.743051000000115" lon="-1.7277590000000083">
        <ele>626.852</ele>
        <time>2022-08-25T08:35:24Z</time>
      </trkpt>
      <trkpt lat="42.74305600000012" lon="-1.7277820000000084">
        <ele>627.082</ele>
        <time>2022-08-25T08:35:25Z</time>
      </trkpt>
      <trkpt lat="42.743062000000116" lon="-1.7277960000000083">
        <ele>627.442</ele>
        <time>2022-08-25T08:35:26Z</time>
      </trkpt>
      <trkpt lat="42.743065000000115" lon="-1.7278090000000084">
        <ele>628.068</ele>
        <time>2022-08-25T08:35:27Z</time>
      </trkpt>
      <trkpt lat="42.74307000000012" lon="-1.7278240000000085">
        <ele>628.280</ele>
        <time>2022-08-25T08:35:28Z</time>
      </trkpt>
      <trkpt lat="42.74307500000012" lon="-1.7278400000000085">
        <ele>628.457</ele>
        <time>2022-08-25T08:35:29Z</time>
      </trkpt>
      <trkpt lat="42.74308100000012" lon="-1.7278570000000084">
        <ele>628.630</ele>
        <time>2022-08-25T08:35:30Z</time>
      </trkpt>
      <trkpt lat="42.743088000000114" lon="-1.7278780000000085">
        <ele>628.826</ele>
        <time>2022-08-25T08:35:31Z</time>
      </trkpt>
      <trkpt lat="42.743093000000115" lon="-1.7278920000000084">
        <ele>628.837</ele>
        <time>2022-08-25T08:35:32Z</time>
      </trkpt>
      <trkpt lat="42.74309700000011" lon="-1.7279120000000083">
        <ele>628.859</ele>
        <time>2022-08-25T08:35:33Z</time>
      </trkpt>
      <trkpt lat="42.743102000000114" lon="-1.7279290000000083">
        <ele>629.003</ele>
        <time>2022-08-25T08:35:34Z</time>
      </trkpt>
      <trkpt lat="42.74310300000011" lon="-1.7279450000000083">
        <ele>629.023</ele>
        <time>2022-08-25T08:35:35Z</time>
      </trkpt>
      <trkpt lat="42.74310700000011" lon="-1.7279630000000084">
        <ele>629.009</ele>
        <time>2022-08-25T08:35:36Z</time>
      </trkpt>
      <trkpt lat="42.74311000000011" lon="-1.7279760000000084">
        <ele>629.226</ele>
        <time>2022-08-25T08:35:37Z</time>
      </trkpt>
      <trkpt lat="42.74311500000011" lon="-1.7279930000000083">
        <ele>629.416</ele>
        <time>2022-08-25T08:35:38Z</time>
      </trkpt>
      <trkpt lat="42.74311900000011" lon="-1.7280120000000083">
        <ele>629.866</ele>
        <time>2022-08-25T08:35:39Z</time>
      </trkpt>
      <trkpt lat="42.743123000000104" lon="-1.7280310000000083">
        <ele>629.822</ele>
        <time>2022-08-25T08:35:40Z</time>
      </trkpt>
      <trkpt lat="42.743125000000106" lon="-1.7280570000000084">
        <ele>629.844</ele>
        <time>2022-08-25T08:35:41Z</time>
      </trkpt>
      <trkpt lat="42.7431260000001" lon="-1.7280700000000084">
        <ele>630.031</ele>
        <time>2022-08-25T08:35:42Z</time>
      </trkpt>
      <trkpt lat="42.7431290000001" lon="-1.7280860000000084">
        <ele>630.074</ele>
        <time>2022-08-25T08:35:43Z</time>
      </trkpt>
      <trkpt lat="42.7431300000001" lon="-1.7281060000000084">
        <ele>630.030</ele>
        <time>2022-08-25T08:35:44Z</time>
      </trkpt>
      <trkpt lat="42.7431280000001" lon="-1.7281180000000083">
        <ele>630.041</ele>
        <time>2022-08-25T08:35:45Z</time>
      </trkpt>
      <trkpt lat="42.7431250000001" lon="-1.7281350000000082">
        <ele>630.039</ele>
        <time>2022-08-25T08:35:46Z</time>
      </trkpt>
      <trkpt lat="42.7431200000001" lon="-1.7281530000000083">
        <ele>630.401</ele>
        <time>2022-08-25T08:35:47Z</time>
      </trkpt>
      <trkpt lat="42.7431140000001" lon="-1.7281730000000082">
        <ele>630.421</ele>
        <time>2022-08-25T08:35:48Z</time>
      </trkpt>
      <trkpt lat="42.743109000000096" lon="-1.7281940000000082">
        <ele>630.609</ele>
        <time>2022-08-25T08:35:49Z</time>
      </trkpt>
      <trkpt lat="42.7431080000001" lon="-1.7282130000000082">
        <ele>630.694</ele>
        <time>2022-08-25T08:35:50Z</time>
      </trkpt>
      <trkpt lat="42.7431070000001" lon="-1.7282300000000081">
        <ele>630.674</ele>
        <time>2022-08-25T08:35:51Z</time>
      </trkpt>
      <trkpt lat="42.743103000000104" lon="-1.728247000000008">
        <ele>630.854</ele>
        <time>2022-08-25T08:35:52Z</time>
      </trkpt>
      <trkpt lat="42.743097000000105" lon="-1.728266000000008">
        <ele>630.870</ele>
        <time>2022-08-25T08:35:53Z</time>
      </trkpt>
      <trkpt lat="42.74309600000011" lon="-1.728282000000008">
        <ele>630.822</ele>
        <time>2022-08-25T08:35:54Z</time>
      </trkpt>
      <trkpt lat="42.74308700000011" lon="-1.728302000000008">
        <ele>631.289</ele>
        <time>2022-08-25T08:35:55Z</time>
      </trkpt>
      <trkpt lat="42.74308000000011" lon="-1.728313000000008">
        <ele>631.212</ele>
        <time>2022-08-25T08:35:56Z</time>
      </trkpt>
      <trkpt lat="42.74306900000011" lon="-1.728328000000008">
        <ele>631.218</ele>
        <time>2022-08-25T08:35:57Z</time>
      </trkpt>
      <trkpt lat="42.74305600000011" lon="-1.728339000000008">
        <ele>631.419</ele>
        <time>2022-08-25T08:35:58Z</time>
      </trkpt>
      <trkpt lat="42.74304300000011" lon="-1.7283460000000082">
        <ele>631.865</ele>
        <time>2022-08-25T08:35:59Z</time>
      </trkpt>
      <trkpt lat="42.74303400000011" lon="-1.7283480000000082">
        <ele>631.868</ele>
        <time>2022-08-25T08:36:00Z</time>
      </trkpt>
      <trkpt lat="42.74301900000011" lon="-1.728352000000008">
        <ele>632.014</ele>
        <time>2022-08-25T08:36:01Z</time>
      </trkpt>
      <trkpt lat="42.74300300000011" lon="-1.728355000000008">
        <ele>632.409</ele>
        <time>2022-08-25T08:36:02Z</time>
      </trkpt>
      <trkpt lat="42.74298800000011" lon="-1.728359000000008">
        <ele>632.627</ele>
        <time>2022-08-25T08:36:03Z</time>
      </trkpt>
      <trkpt lat="42.74297100000011" lon="-1.728361000000008">
        <ele>632.637</ele>
        <time>2022-08-25T08:36:04Z</time>
      </trkpt>
      <trkpt lat="42.74296000000011" lon="-1.728364000000008">
        <ele>633.057</ele>
        <time>2022-08-25T08:36:05Z</time>
      </trkpt>
      <trkpt lat="42.74294300000011" lon="-1.728368000000008">
        <ele>633.223</ele>
        <time>2022-08-25T08:36:06Z</time>
      </trkpt>
      <trkpt lat="42.74293500000011" lon="-1.728370000000008">
        <ele>633.265</ele>
        <time>2022-08-25T08:36:07Z</time>
      </trkpt>
      <trkpt lat="42.74292300000011" lon="-1.728375000000008">
        <ele>633.262</ele>
        <time>2022-08-25T08:36:08Z</time>
      </trkpt>
      <trkpt lat="42.74290700000011" lon="-1.728378000000008">
        <ele>633.895</ele>
        <time>2022-08-25T08:36:09Z</time>
      </trkpt>
      <trkpt lat="42.742894000000106" lon="-1.728380000000008">
        <ele>633.811</ele>
        <time>2022-08-25T08:36:10Z</time>
      </trkpt>
      <trkpt lat="42.742881000000104" lon="-1.728383000000008">
        <ele>634.212</ele>
        <time>2022-08-25T08:36:11Z</time>
      </trkpt>
      <trkpt lat="42.7428680000001" lon="-1.728388000000008">
        <ele>634.664</ele>
        <time>2022-08-25T08:36:12Z</time>
      </trkpt>
      <trkpt lat="42.7428580000001" lon="-1.728390000000008">
        <ele>634.606</ele>
        <time>2022-08-25T08:36:13Z</time>
      </trkpt>
      <trkpt lat="42.7428470000001" lon="-1.728393000000008">
        <ele>634.816</ele>
        <time>2022-08-25T08:36:14Z</time>
      </trkpt>
      <trkpt lat="42.742836000000096" lon="-1.728393000000008">
        <ele>635.009</ele>
        <time>2022-08-25T08:36:15Z</time>
      </trkpt>
      <trkpt lat="42.7428240000001" lon="-1.728394000000008">
        <ele>635.247</ele>
        <time>2022-08-25T08:36:16Z</time>
      </trkpt>
      <trkpt lat="42.7428120000001" lon="-1.728397000000008">
        <ele>635.247</ele>
        <time>2022-08-25T08:36:17Z</time>
      </trkpt>
      <trkpt lat="42.7428010000001" lon="-1.728396000000008">
        <ele>635.487</ele>
        <time>2022-08-25T08:36:18Z</time>
      </trkpt>
      <trkpt lat="42.742791000000096" lon="-1.728394000000008">
        <ele>635.643</ele>
        <time>2022-08-25T08:36:19Z</time>
      </trkpt>
      <trkpt lat="42.74278100000009" lon="-1.728393000000008">
        <ele>635.825</ele>
        <time>2022-08-25T08:36:20Z</time>
      </trkpt>
      <trkpt lat="42.742772000000095" lon="-1.728390000000008">
        <ele>636.242</ele>
        <time>2022-08-25T08:36:21Z</time>
      </trkpt>
      <trkpt lat="42.7427650000001" lon="-1.7283890000000082">
        <ele>636.225</ele>
        <time>2022-08-25T08:36:22Z</time>
      </trkpt>
      <trkpt lat="42.7427570000001" lon="-1.7283880000000083">
        <ele>636.411</ele>
        <time>2022-08-25T08:36:23Z</time>
      </trkpt>
      <trkpt lat="42.7427510000001" lon="-1.7283860000000082">
        <ele>636.472</ele>
        <time>2022-08-25T08:36:24Z</time>
      </trkpt>
      <trkpt lat="42.742741000000095" lon="-1.7283840000000081">
        <ele>636.423</ele>
        <time>2022-08-25T08:36:25Z</time>
      </trkpt>
      <trkpt lat="42.74273100000009" lon="-1.728382000000008">
        <ele>636.683</ele>
        <time>2022-08-25T08:36:26Z</time>
      </trkpt>
      <trkpt lat="42.74272100000009" lon="-1.728379000000008">
        <ele>636.811</ele>
        <time>2022-08-25T08:36:27Z</time>
      </trkpt>
      <trkpt lat="42.742711000000085" lon="-1.7283760000000081">
        <ele>637.009</ele>
        <time>2022-08-25T08:36:28Z</time>
      </trkpt>
      <trkpt lat="42.74269900000009" lon="-1.728374000000008">
        <ele>637.253</ele>
        <time>2022-08-25T08:36:29Z</time>
      </trkpt>
      <trkpt lat="42.742686000000084" lon="-1.728374000000008">
        <ele>637.423</ele>
        <time>2022-08-25T08:36:30Z</time>
      </trkpt>
      <trkpt lat="42.742677000000086" lon="-1.728372000000008">
        <ele>637.863</ele>
        <time>2022-08-25T08:36:31Z</time>
      </trkpt>
      <trkpt lat="42.742669000000085" lon="-1.728366000000008">
        <ele>638.029</ele>
        <time>2022-08-25T08:36:32Z</time>
      </trkpt>
      <trkpt lat="42.74265900000008" lon="-1.7283600000000081">
        <ele>638.251</ele>
        <time>2022-08-25T08:36:33Z</time>
      </trkpt>
      <trkpt lat="42.74265000000008" lon="-1.728353000000008">
        <ele>638.428</ele>
        <time>2022-08-25T08:36:34Z</time>
      </trkpt>
      <trkpt lat="42.742641000000084" lon="-1.728345000000008">
        <ele>638.631</ele>
        <time>2022-08-25T08:36:35Z</time>
      </trkpt>
      <trkpt lat="42.74263400000009" lon="-1.728338000000008">
        <ele>638.627</ele>
        <time>2022-08-25T08:36:36Z</time>
      </trkpt>
      <trkpt lat="42.742629000000086" lon="-1.7283310000000078">
        <ele>638.828</ele>
        <time>2022-08-25T08:36:37Z</time>
      </trkpt>
      <trkpt lat="42.74262200000009" lon="-1.7283240000000077">
        <ele>639.036</ele>
        <time>2022-08-25T08:36:38Z</time>
      </trkpt>
      <trkpt lat="42.74261600000009" lon="-1.7283180000000078">
        <ele>639.217</ele>
        <time>2022-08-25T08:36:39Z</time>
      </trkpt>
      <trkpt lat="42.74261100000009" lon="-1.7283120000000078">
        <ele>639.418</ele>
        <time>2022-08-25T08:36:40Z</time>
      </trkpt>
      <trkpt lat="42.74260400000009" lon="-1.7283040000000078">
        <ele>639.609</ele>
        <time>2022-08-25T08:36:41Z</time>
      </trkpt>
      <trkpt lat="42.742597000000096" lon="-1.7282960000000078">
        <ele>639.654</ele>
        <time>2022-08-25T08:36:42Z</time>
      </trkpt>
      <trkpt lat="42.7425900000001" lon="-1.7282880000000078">
        <ele>639.874</ele>
        <time>2022-08-25T08:36:43Z</time>
      </trkpt>
      <trkpt lat="42.7425820000001" lon="-1.7282810000000077">
        <ele>639.854</ele>
        <time>2022-08-25T08:36:44Z</time>
      </trkpt>
      <trkpt lat="42.7425740000001" lon="-1.7282720000000078">
        <ele>640.010</ele>
        <time>2022-08-25T08:36:45Z</time>
      </trkpt>
      <trkpt lat="42.742566000000096" lon="-1.7282620000000077">
        <ele>640.032</ele>
        <time>2022-08-25T08:36:46Z</time>
      </trkpt>
      <trkpt lat="42.74255600000009" lon="-1.7282520000000077">
        <ele>640.259</ele>
        <time>2022-08-25T08:36:47Z</time>
      </trkpt>
      <trkpt lat="42.74254800000009" lon="-1.7282430000000077">
        <ele>640.222</ele>
        <time>2022-08-25T08:36:48Z</time>
      </trkpt>
      <trkpt lat="42.742541000000095" lon="-1.7282320000000078">
        <ele>640.448</ele>
        <time>2022-08-25T08:36:49Z</time>
      </trkpt>
      <trkpt lat="42.7425340000001" lon="-1.7282220000000077">
        <ele>640.629</ele>
        <time>2022-08-25T08:36:50Z</time>
      </trkpt>
      <trkpt lat="42.7425290000001" lon="-1.7282110000000077">
        <ele>640.875</ele>
        <time>2022-08-25T08:36:51Z</time>
      </trkpt>
      <trkpt lat="42.7425220000001" lon="-1.7282020000000078">
        <ele>641.228</ele>
        <time>2022-08-25T08:36:52Z</time>
      </trkpt>
      <trkpt lat="42.7425140000001" lon="-1.7281960000000078">
        <ele>641.420</ele>
        <time>2022-08-25T08:36:53Z</time>
      </trkpt>
      <trkpt lat="42.7425050000001" lon="-1.7281900000000079">
        <ele>641.409</ele>
        <time>2022-08-25T08:36:54Z</time>
      </trkpt>
      <trkpt lat="42.7424970000001" lon="-1.7281820000000079">
        <ele>641.648</ele>
        <time>2022-08-25T08:36:55Z</time>
      </trkpt>
      <trkpt lat="42.7424890000001" lon="-1.7281720000000078">
        <ele>641.828</ele>
        <time>2022-08-25T08:36:56Z</time>
      </trkpt>
      <trkpt lat="42.7424820000001" lon="-1.7281620000000077">
        <ele>642.098</ele>
        <time>2022-08-25T08:36:57Z</time>
      </trkpt>
      <trkpt lat="42.7424720000001" lon="-1.7281540000000077">
        <ele>642.264</ele>
        <time>2022-08-25T08:36:58Z</time>
      </trkpt>
      <trkpt lat="42.742462000000096" lon="-1.7281450000000078">
        <ele>642.426</ele>
        <time>2022-08-25T08:36:59Z</time>
      </trkpt>
      <trkpt lat="42.74245200000009" lon="-1.7281380000000077">
        <ele>642.413</ele>
        <time>2022-08-25T08:37:00Z</time>
      </trkpt>
      <trkpt lat="42.74244400000009" lon="-1.7281290000000078">
        <ele>642.496</ele>
        <time>2022-08-25T08:37:01Z</time>
      </trkpt>
      <trkpt lat="42.74243600000009" lon="-1.7281200000000079">
        <ele>642.682</ele>
        <time>2022-08-25T08:37:02Z</time>
      </trkpt>
      <trkpt lat="42.74242700000009" lon="-1.728111000000008">
        <ele>642.653</ele>
        <time>2022-08-25T08:37:03Z</time>
      </trkpt>
      <trkpt lat="42.74241500000009" lon="-1.7281040000000079">
        <ele>642.895</ele>
        <time>2022-08-25T08:37:04Z</time>
      </trkpt>
      <trkpt lat="42.742406000000095" lon="-1.7280930000000079">
        <ele>643.049</ele>
        <time>2022-08-25T08:37:05Z</time>
      </trkpt>
      <trkpt lat="42.742398000000094" lon="-1.728081000000008">
        <ele>643.223</ele>
        <time>2022-08-25T08:37:06Z</time>
      </trkpt>
      <trkpt lat="42.742384000000094" lon="-1.7280740000000079">
        <ele>643.209</ele>
        <time>2022-08-25T08:37:07Z</time>
      </trkpt>
      <trkpt lat="42.742378000000095" lon="-1.7280670000000078">
        <ele>643.460</ele>
        <time>2022-08-25T08:37:08Z</time>
      </trkpt>
      <trkpt lat="42.74237000000009" lon="-1.7280600000000077">
        <ele>643.810</ele>
        <time>2022-08-25T08:37:09Z</time>
      </trkpt>
      <trkpt lat="42.742358000000095" lon="-1.7280540000000078">
        <ele>644.270</ele>
        <time>2022-08-25T08:37:10Z</time>
      </trkpt>
      <trkpt lat="42.7423490000001" lon="-1.7280480000000078">
        <ele>644.426</ele>
        <time>2022-08-25T08:37:11Z</time>
      </trkpt>
      <trkpt lat="42.7423400000001" lon="-1.7280430000000078">
        <ele>644.448</ele>
        <time>2022-08-25T08:37:12Z</time>
      </trkpt>
      <trkpt lat="42.7423400000001" lon="-1.7280370000000078">
        <ele>644.835</ele>
        <time>2022-08-25T08:37:13Z</time>
      </trkpt>
      <trkpt lat="42.742330000000095" lon="-1.7280340000000078">
        <ele>644.868</ele>
        <time>2022-08-25T08:37:14Z</time>
      </trkpt>
      <trkpt lat="42.74232000000009" lon="-1.7280350000000078">
        <ele>645.084</ele>
        <time>2022-08-25T08:37:15Z</time>
      </trkpt>
      <trkpt lat="42.74231200000009" lon="-1.7280390000000077">
        <ele>645.215</ele>
        <time>2022-08-25T08:37:16Z</time>
      </trkpt>
      <trkpt lat="42.74230200000009" lon="-1.7280460000000077">
        <ele>645.423</ele>
        <time>2022-08-25T08:37:17Z</time>
      </trkpt>
      <trkpt lat="42.742294000000086" lon="-1.7280520000000077">
        <ele>645.683</ele>
        <time>2022-08-25T08:37:18Z</time>
      </trkpt>
      <trkpt lat="42.74228400000008" lon="-1.7280580000000076">
        <ele>645.811</ele>
        <time>2022-08-25T08:37:19Z</time>
      </trkpt>
      <trkpt lat="42.74227400000008" lon="-1.7280640000000076">
        <ele>646.009</ele>
        <time>2022-08-25T08:37:20Z</time>
      </trkpt>
      <trkpt lat="42.74226300000008" lon="-1.7280690000000076">
        <ele>646.283</ele>
        <time>2022-08-25T08:37:21Z</time>
      </trkpt>
      <trkpt lat="42.74225600000008" lon="-1.7280730000000075">
        <ele>646.463</ele>
        <time>2022-08-25T08:37:22Z</time>
      </trkpt>
      <trkpt lat="42.742249000000086" lon="-1.7280790000000075">
        <ele>646.673</ele>
        <time>2022-08-25T08:37:23Z</time>
      </trkpt>
      <trkpt lat="42.742241000000085" lon="-1.7280830000000074">
        <ele>646.629</ele>
        <time>2022-08-25T08:37:24Z</time>
      </trkpt>
      <trkpt lat="42.742233000000084" lon="-1.7280890000000073">
        <ele>646.841</ele>
        <time>2022-08-25T08:37:25Z</time>
      </trkpt>
      <trkpt lat="42.742221000000086" lon="-1.7280990000000074">
        <ele>646.848</ele>
        <time>2022-08-25T08:37:26Z</time>
      </trkpt>
      <trkpt lat="42.74221400000009" lon="-1.7281060000000075">
        <ele>647.041</ele>
        <time>2022-08-25T08:37:27Z</time>
      </trkpt>
      <trkpt lat="42.742204000000086" lon="-1.7281130000000076">
        <ele>647.227</ele>
        <time>2022-08-25T08:37:28Z</time>
      </trkpt>
      <trkpt lat="42.742193000000086" lon="-1.7281200000000076">
        <ele>647.448</ele>
        <time>2022-08-25T08:37:29Z</time>
      </trkpt>
      <trkpt lat="42.742185000000084" lon="-1.7281270000000077">
        <ele>647.446</ele>
        <time>2022-08-25T08:37:30Z</time>
      </trkpt>
      <trkpt lat="42.742176000000086" lon="-1.7281320000000078">
        <ele>647.688</ele>
        <time>2022-08-25T08:37:31Z</time>
      </trkpt>
      <trkpt lat="42.742171000000084" lon="-1.7281360000000077">
        <ele>647.616</ele>
        <time>2022-08-25T08:37:32Z</time>
      </trkpt>
      <trkpt lat="42.74216300000008" lon="-1.7281460000000077">
        <ele>647.609</ele>
        <time>2022-08-25T08:37:33Z</time>
      </trkpt>
      <trkpt lat="42.742151000000085" lon="-1.7281560000000078">
        <ele>647.855</ele>
        <time>2022-08-25T08:37:34Z</time>
      </trkpt>
      <trkpt lat="42.74214600000008" lon="-1.7281610000000078">
        <ele>647.825</ele>
        <time>2022-08-25T08:37:35Z</time>
      </trkpt>
      <trkpt lat="42.74213800000008" lon="-1.728171000000008">
        <ele>647.885</ele>
        <time>2022-08-25T08:37:36Z</time>
      </trkpt>
      <trkpt lat="42.742131000000086" lon="-1.728178000000008">
        <ele>648.041</ele>
        <time>2022-08-25T08:37:37Z</time>
      </trkpt>
      <trkpt lat="42.74212400000009" lon="-1.728186000000008">
        <ele>648.053</ele>
        <time>2022-08-25T08:37:38Z</time>
      </trkpt>
      <trkpt lat="42.74211200000009" lon="-1.728195000000008">
        <ele>647.850</ele>
        <time>2022-08-25T08:37:39Z</time>
      </trkpt>
      <trkpt lat="42.74210400000009" lon="-1.7281960000000078">
        <ele>648.083</ele>
        <time>2022-08-25T08:37:40Z</time>
      </trkpt>
      <trkpt lat="42.74209300000009" lon="-1.7281940000000078">
        <ele>648.019</ele>
        <time>2022-08-25T08:37:41Z</time>
      </trkpt>
      <trkpt lat="42.74208600000009" lon="-1.7281940000000078">
        <ele>648.230</ele>
        <time>2022-08-25T08:37:42Z</time>
      </trkpt>
      <trkpt lat="42.742077000000094" lon="-1.7281930000000079">
        <ele>648.245</ele>
        <time>2022-08-25T08:37:43Z</time>
      </trkpt>
      <trkpt lat="42.74206900000009" lon="-1.7281930000000079">
        <ele>648.447</ele>
        <time>2022-08-25T08:37:44Z</time>
      </trkpt>
      <trkpt lat="42.7420620000001" lon="-1.7281940000000078">
        <ele>648.611</ele>
        <time>2022-08-25T08:37:45Z</time>
      </trkpt>
      <trkpt lat="42.7420550000001" lon="-1.7281970000000078">
        <ele>648.809</ele>
        <time>2022-08-25T08:37:46Z</time>
      </trkpt>
      <trkpt lat="42.7420430000001" lon="-1.7282040000000078">
        <ele>648.835</ele>
        <time>2022-08-25T08:37:47Z</time>
      </trkpt>
      <trkpt lat="42.7420350000001" lon="-1.7282130000000078">
        <ele>648.885</ele>
        <time>2022-08-25T08:37:48Z</time>
      </trkpt>
      <trkpt lat="42.742028000000104" lon="-1.7282260000000078">
        <ele>649.075</ele>
        <time>2022-08-25T08:37:49Z</time>
      </trkpt>
      <trkpt lat="42.7420230000001" lon="-1.7282400000000078">
        <ele>649.261</ele>
        <time>2022-08-25T08:37:50Z</time>
      </trkpt>
      <trkpt lat="42.7420180000001" lon="-1.7282520000000077">
        <ele>649.233</ele>
        <time>2022-08-25T08:37:51Z</time>
      </trkpt>
      <trkpt lat="42.742014000000104" lon="-1.7282650000000077">
        <ele>649.220</ele>
        <time>2022-08-25T08:37:52Z</time>
      </trkpt>
      <trkpt lat="42.74200700000011" lon="-1.7282830000000078">
        <ele>649.473</ele>
        <time>2022-08-25T08:37:53Z</time>
      </trkpt>
      <trkpt lat="42.74200400000011" lon="-1.7283040000000078">
        <ele>649.489</ele>
        <time>2022-08-25T08:37:54Z</time>
      </trkpt>
      <trkpt lat="42.74199600000011" lon="-1.728322000000008">
        <ele>649.450</ele>
        <time>2022-08-25T08:37:55Z</time>
      </trkpt>
      <trkpt lat="42.74199000000011" lon="-1.728337000000008">
        <ele>649.458</ele>
        <time>2022-08-25T08:37:56Z</time>
      </trkpt>
      <trkpt lat="42.74197900000011" lon="-1.7283600000000081">
        <ele>649.652</ele>
        <time>2022-08-25T08:37:57Z</time>
      </trkpt>
      <trkpt lat="42.741969000000104" lon="-1.728385000000008">
        <ele>649.617</ele>
        <time>2022-08-25T08:37:58Z</time>
      </trkpt>
      <trkpt lat="42.741963000000105" lon="-1.728401000000008">
        <ele>649.609</ele>
        <time>2022-08-25T08:37:59Z</time>
      </trkpt>
      <trkpt lat="42.74195600000011" lon="-1.728421000000008">
        <ele>649.856</ele>
        <time>2022-08-25T08:38:00Z</time>
      </trkpt>
      <trkpt lat="42.74194900000011" lon="-1.728442000000008">
        <ele>649.836</ele>
        <time>2022-08-25T08:38:01Z</time>
      </trkpt>
      <trkpt lat="42.741914000000115" lon="-1.728494000000008">
        <ele>649.856</ele>
        <time>2022-08-25T08:38:04Z</time>
      </trkpt>
      <trkpt lat="42.741903000000114" lon="-1.728507000000008">
        <ele>649.892</ele>
        <time>2022-08-25T08:38:05Z</time>
      </trkpt>
      <trkpt lat="42.741889000000114" lon="-1.728521000000008">
        <ele>650.044</ele>
        <time>2022-08-25T08:38:06Z</time>
      </trkpt>
      <trkpt lat="42.74187800000011" lon="-1.7285330000000079">
        <ele>650.071</ele>
        <time>2022-08-25T08:38:07Z</time>
      </trkpt>
      <trkpt lat="42.74186700000011" lon="-1.7285450000000078">
        <ele>650.084</ele>
        <time>2022-08-25T08:38:08Z</time>
      </trkpt>
      <trkpt lat="42.741835000000115" lon="-1.7285720000000078">
        <ele>650.020</ele>
        <time>2022-08-25T08:38:11Z</time>
      </trkpt>
      <trkpt lat="42.74181200000012" lon="-1.7285920000000077">
        <ele>650.041</ele>
        <time>2022-08-25T08:38:13Z</time>
      </trkpt>
      <trkpt lat="42.741748000000115" lon="-1.7286430000000077">
        <ele>650.452</ele>
        <time>2022-08-25T08:38:18Z</time>
      </trkpt>
      <trkpt lat="42.74173600000012" lon="-1.7286520000000076">
        <ele>650.653</ele>
        <time>2022-08-25T08:38:19Z</time>
      </trkpt>
      <trkpt lat="42.741725000000116" lon="-1.7286610000000076">
        <ele>650.808</ele>
        <time>2022-08-25T08:38:20Z</time>
      </trkpt>
      <trkpt lat="42.741700000000115" lon="-1.7286820000000076">
        <ele>651.009</ele>
        <time>2022-08-25T08:38:22Z</time>
      </trkpt>
      <trkpt lat="42.74168700000011" lon="-1.7286910000000075">
        <ele>651.056</ele>
        <time>2022-08-25T08:38:23Z</time>
      </trkpt>
      <trkpt lat="42.741633000000114" lon="-1.7287220000000074">
        <ele>651.276</ele>
        <time>2022-08-25T08:38:27Z</time>
      </trkpt>
      <trkpt lat="42.74160100000012" lon="-1.7287550000000074">
        <ele>651.846</ele>
        <time>2022-08-25T08:38:30Z</time>
      </trkpt>
      <trkpt lat="42.741579000000115" lon="-1.7287820000000074">
        <ele>652.082</ele>
        <time>2022-08-25T08:38:32Z</time>
      </trkpt>
      <trkpt lat="42.74157000000012" lon="-1.7287940000000073">
        <ele>652.074</ele>
        <time>2022-08-25T08:38:33Z</time>
      </trkpt>
      <trkpt lat="42.74156000000011" lon="-1.7288060000000072">
        <ele>652.211</ele>
        <time>2022-08-25T08:38:34Z</time>
      </trkpt>
      <trkpt lat="42.74155200000011" lon="-1.728815000000007">
        <ele>652.454</ele>
        <time>2022-08-25T08:38:35Z</time>
      </trkpt>
      <trkpt lat="42.741543000000114" lon="-1.728827000000007">
        <ele>652.420</ele>
        <time>2022-08-25T08:38:36Z</time>
      </trkpt>
      <trkpt lat="42.741498000000114" lon="-1.728890000000007">
        <ele>652.811</ele>
        <time>2022-08-25T08:38:40Z</time>
      </trkpt>
      <trkpt lat="42.741486000000116" lon="-1.728908000000007">
        <ele>652.883</ele>
        <time>2022-08-25T08:38:41Z</time>
      </trkpt>
      <trkpt lat="42.74147900000012" lon="-1.728923000000007">
        <ele>653.025</ele>
        <time>2022-08-25T08:38:42Z</time>
      </trkpt>
      <trkpt lat="42.74147100000012" lon="-1.728935000000007">
        <ele>653.217</ele>
        <time>2022-08-25T08:38:43Z</time>
      </trkpt>
      <trkpt lat="42.741461000000115" lon="-1.728951000000007">
        <ele>653.409</ele>
        <time>2022-08-25T08:38:44Z</time>
      </trkpt>
      <trkpt lat="42.741452000000116" lon="-1.728968000000007">
        <ele>653.679</ele>
        <time>2022-08-25T08:38:45Z</time>
      </trkpt>
      <trkpt lat="42.74144200000011" lon="-1.728991000000007">
        <ele>653.489</ele>
        <time>2022-08-25T08:38:46Z</time>
      </trkpt>
      <trkpt lat="42.74143400000011" lon="-1.729010000000007">
        <ele>653.489</ele>
        <time>2022-08-25T08:38:47Z</time>
      </trkpt>
      <trkpt lat="42.741427000000115" lon="-1.729023000000007">
        <ele>653.895</ele>
        <time>2022-08-25T08:38:48Z</time>
      </trkpt>
      <trkpt lat="42.74141700000011" lon="-1.729040000000007">
        <ele>654.037</ele>
        <time>2022-08-25T08:38:49Z</time>
      </trkpt>
      <trkpt lat="42.74140800000011" lon="-1.729057000000007">
        <ele>654.044</ele>
        <time>2022-08-25T08:38:50Z</time>
      </trkpt>
      <trkpt lat="42.74139800000011" lon="-1.7290740000000069">
        <ele>654.057</ele>
        <time>2022-08-25T08:38:51Z</time>
      </trkpt>
      <trkpt lat="42.74138900000011" lon="-1.729098000000007">
        <ele>654.273</ele>
        <time>2022-08-25T08:38:52Z</time>
      </trkpt>
      <trkpt lat="42.741385000000115" lon="-1.7291150000000068">
        <ele>654.444</ele>
        <time>2022-08-25T08:38:53Z</time>
      </trkpt>
      <trkpt lat="42.74138000000011" lon="-1.729133000000007">
        <ele>654.462</ele>
        <time>2022-08-25T08:38:54Z</time>
      </trkpt>
      <trkpt lat="42.741377000000114" lon="-1.7291550000000069">
        <ele>654.483</ele>
        <time>2022-08-25T08:38:55Z</time>
      </trkpt>
      <trkpt lat="42.74137200000011" lon="-1.729168000000007">
        <ele>654.611</ele>
        <time>2022-08-25T08:38:56Z</time>
      </trkpt>
      <trkpt lat="42.741365000000116" lon="-1.729189000000007">
        <ele>654.809</ele>
        <time>2022-08-25T08:38:57Z</time>
      </trkpt>
      <trkpt lat="42.74135800000012" lon="-1.729203000000007">
        <ele>655.047</ele>
        <time>2022-08-25T08:38:58Z</time>
      </trkpt>
      <trkpt lat="42.741348000000116" lon="-1.729218000000007">
        <ele>655.237</ele>
        <time>2022-08-25T08:38:59Z</time>
      </trkpt>
      <trkpt lat="42.741334000000116" lon="-1.729234000000007">
        <ele>655.487</ele>
        <time>2022-08-25T08:39:00Z</time>
      </trkpt>
      <trkpt lat="42.74132500000012" lon="-1.729247000000007">
        <ele>655.463</ele>
        <time>2022-08-25T08:39:01Z</time>
      </trkpt>
      <trkpt lat="42.74131600000012" lon="-1.7292570000000071">
        <ele>655.625</ele>
        <time>2022-08-25T08:39:02Z</time>
      </trkpt>
      <trkpt lat="42.74130500000012" lon="-1.729269000000007">
        <ele>655.612</ele>
        <time>2022-08-25T08:39:03Z</time>
      </trkpt>
      <trkpt lat="42.74129400000012" lon="-1.729281000000007">
        <ele>655.845</ele>
        <time>2022-08-25T08:39:04Z</time>
      </trkpt>
      <trkpt lat="42.74128000000012" lon="-1.729294000000007">
        <ele>655.871</ele>
        <time>2022-08-25T08:39:05Z</time>
      </trkpt>
      <trkpt lat="42.741267000000114" lon="-1.729300000000007">
        <ele>655.822</ele>
        <time>2022-08-25T08:39:06Z</time>
      </trkpt>
      <trkpt lat="42.741255000000116" lon="-1.729305000000007">
        <ele>656.053</ele>
        <time>2022-08-25T08:39:07Z</time>
      </trkpt>
      <trkpt lat="42.74124600000012" lon="-1.729310000000007">
        <ele>656.204</ele>
        <time>2022-08-25T08:39:08Z</time>
      </trkpt>
      <trkpt lat="42.741233000000115" lon="-1.729312000000007">
        <ele>656.214</ele>
        <time>2022-08-25T08:39:09Z</time>
      </trkpt>
      <trkpt lat="42.74121700000011" lon="-1.729317000000007">
        <ele>656.409</ele>
        <time>2022-08-25T08:39:10Z</time>
      </trkpt>
      <trkpt lat="42.74120100000011" lon="-1.729321000000007">
        <ele>656.676</ele>
        <time>2022-08-25T08:39:11Z</time>
      </trkpt>
      <trkpt lat="42.74119000000011" lon="-1.729326000000007">
        <ele>656.816</ele>
        <time>2022-08-25T08:39:12Z</time>
      </trkpt>
      <trkpt lat="42.74118000000011" lon="-1.729335000000007">
        <ele>656.856</ele>
        <time>2022-08-25T08:39:13Z</time>
      </trkpt>
      <trkpt lat="42.7411700000001" lon="-1.729342000000007">
        <ele>657.022</ele>
        <time>2022-08-25T08:39:14Z</time>
      </trkpt>
      <trkpt lat="42.7411560000001" lon="-1.729347000000007">
        <ele>657.244</ele>
        <time>2022-08-25T08:39:15Z</time>
      </trkpt>
      <trkpt lat="42.741144000000105" lon="-1.729348000000007">
        <ele>657.231</ele>
        <time>2022-08-25T08:39:16Z</time>
      </trkpt>
      <trkpt lat="42.741136000000104" lon="-1.729351000000007">
        <ele>657.424</ele>
        <time>2022-08-25T08:39:17Z</time>
      </trkpt>
      <trkpt lat="42.741124000000106" lon="-1.729361000000007">
        <ele>657.670</ele>
        <time>2022-08-25T08:39:18Z</time>
      </trkpt>
      <trkpt lat="42.741108000000104" lon="-1.729372000000007">
        <ele>657.651</ele>
        <time>2022-08-25T08:39:19Z</time>
      </trkpt>
      <trkpt lat="42.741096000000105" lon="-1.729377000000007">
        <ele>657.889</ele>
        <time>2022-08-25T08:39:20Z</time>
      </trkpt>
      <trkpt lat="42.741085000000105" lon="-1.729380000000007">
        <ele>658.006</ele>
        <time>2022-08-25T08:39:21Z</time>
      </trkpt>
      <trkpt lat="42.74107300000011" lon="-1.729383000000007">
        <ele>658.026</ele>
        <time>2022-08-25T08:39:22Z</time>
      </trkpt>
      <trkpt lat="42.741062000000106" lon="-1.729388000000007">
        <ele>658.209</ele>
        <time>2022-08-25T08:39:23Z</time>
      </trkpt>
      <trkpt lat="42.74105000000011" lon="-1.729397000000007">
        <ele>658.499</ele>
        <time>2022-08-25T08:39:24Z</time>
      </trkpt>
      <trkpt lat="42.74103800000011" lon="-1.729402000000007">
        <ele>658.439</ele>
        <time>2022-08-25T08:39:25Z</time>
      </trkpt>
      <trkpt lat="42.74102700000011" lon="-1.729408000000007">
        <ele>658.659</ele>
        <time>2022-08-25T08:39:26Z</time>
      </trkpt>
      <trkpt lat="42.74101900000011" lon="-1.729411000000007">
        <ele>658.685</ele>
        <time>2022-08-25T08:39:27Z</time>
      </trkpt>
      <trkpt lat="42.741006000000105" lon="-1.729416000000007">
        <ele>658.647</ele>
        <time>2022-08-25T08:39:28Z</time>
      </trkpt>
      <trkpt lat="42.74099400000011" lon="-1.729424000000007">
        <ele>658.634</ele>
        <time>2022-08-25T08:39:29Z</time>
      </trkpt>
      <trkpt lat="42.74099000000011" lon="-1.729431000000007">
        <ele>658.677</ele>
        <time>2022-08-25T08:39:30Z</time>
      </trkpt>
      <trkpt lat="42.74098100000011" lon="-1.729436000000007">
        <ele>658.893</ele>
        <time>2022-08-25T08:39:31Z</time>
      </trkpt>
      <trkpt lat="42.74096800000011" lon="-1.7294460000000071">
        <ele>658.814</ele>
        <time>2022-08-25T08:39:32Z</time>
      </trkpt>
      <trkpt lat="42.74095700000011" lon="-1.7294530000000072">
        <ele>659.067</ele>
        <time>2022-08-25T08:39:33Z</time>
      </trkpt>
      <trkpt lat="42.740944000000106" lon="-1.7294620000000072">
        <ele>659.081</ele>
        <time>2022-08-25T08:39:34Z</time>
      </trkpt>
      <trkpt lat="42.7409310000001" lon="-1.7294690000000073">
        <ele>659.219</ele>
        <time>2022-08-25T08:39:35Z</time>
      </trkpt>
      <trkpt lat="42.7409180000001" lon="-1.7294730000000071">
        <ele>659.209</ele>
        <time>2022-08-25T08:39:36Z</time>
      </trkpt>
      <trkpt lat="42.7409080000001" lon="-1.7294750000000072">
        <ele>659.267</ele>
        <time>2022-08-25T08:39:37Z</time>
      </trkpt>
      <trkpt lat="42.7408910000001" lon="-1.7294800000000072">
        <ele>659.427</ele>
        <time>2022-08-25T08:39:38Z</time>
      </trkpt>
      <trkpt lat="42.740878000000095" lon="-1.7294840000000071">
        <ele>659.827</ele>
        <time>2022-08-25T08:39:39Z</time>
      </trkpt>
      <trkpt lat="42.74086500000009" lon="-1.729488000000007">
        <ele>660.083</ele>
        <time>2022-08-25T08:39:40Z</time>
      </trkpt>
      <trkpt lat="42.74085400000009" lon="-1.729491000000007">
        <ele>660.265</ele>
        <time>2022-08-25T08:39:41Z</time>
      </trkpt>
      <trkpt lat="42.74084200000009" lon="-1.729496000000007">
        <ele>660.492</ele>
        <time>2022-08-25T08:39:42Z</time>
      </trkpt>
      <trkpt lat="42.74082900000009" lon="-1.7295030000000071">
        <ele>660.445</ele>
        <time>2022-08-25T08:39:43Z</time>
      </trkpt>
      <trkpt lat="42.74081400000009" lon="-1.7295130000000072">
        <ele>660.651</ele>
        <time>2022-08-25T08:39:44Z</time>
      </trkpt>
      <trkpt lat="42.74080300000009" lon="-1.7295230000000072">
        <ele>661.092</ele>
        <time>2022-08-25T08:39:45Z</time>
      </trkpt>
      <trkpt lat="42.74079300000009" lon="-1.7295280000000073">
        <ele>661.251</ele>
        <time>2022-08-25T08:39:46Z</time>
      </trkpt>
      <trkpt lat="42.74078100000009" lon="-1.7295360000000073">
        <ele>661.401</ele>
        <time>2022-08-25T08:39:47Z</time>
      </trkpt>
      <trkpt lat="42.74076900000009" lon="-1.7295430000000074">
        <ele>661.611</ele>
        <time>2022-08-25T08:39:48Z</time>
      </trkpt>
      <trkpt lat="42.740754000000095" lon="-1.7295510000000074">
        <ele>661.809</ele>
        <time>2022-08-25T08:39:49Z</time>
      </trkpt>
      <trkpt lat="42.740740000000095" lon="-1.7295590000000074">
        <ele>662.236</ele>
        <time>2022-08-25T08:39:50Z</time>
      </trkpt>
      <trkpt lat="42.7407280000001" lon="-1.7295640000000074">
        <ele>662.486</ele>
        <time>2022-08-25T08:39:51Z</time>
      </trkpt>
      <trkpt lat="42.740715000000094" lon="-1.7295670000000074">
        <ele>662.686</ele>
        <time>2022-08-25T08:39:52Z</time>
      </trkpt>
      <trkpt lat="42.740703000000096" lon="-1.7295710000000073">
        <ele>662.692</ele>
        <time>2022-08-25T08:39:53Z</time>
      </trkpt>
      <trkpt lat="42.740692000000095" lon="-1.7295780000000074">
        <ele>662.834</ele>
        <time>2022-08-25T08:39:54Z</time>
      </trkpt>
      <trkpt lat="42.74068200000009" lon="-1.7295860000000074">
        <ele>663.021</ele>
        <time>2022-08-25T08:39:55Z</time>
      </trkpt>
      <trkpt lat="42.74066900000009" lon="-1.7295890000000074">
        <ele>663.284</ele>
        <time>2022-08-25T08:39:56Z</time>
      </trkpt>
      <trkpt lat="42.74065500000009" lon="-1.7295900000000073">
        <ele>663.240</ele>
        <time>2022-08-25T08:39:57Z</time>
      </trkpt>
      <trkpt lat="42.74064300000009" lon="-1.7295870000000073">
        <ele>663.471</ele>
        <time>2022-08-25T08:39:58Z</time>
      </trkpt>
      <trkpt lat="42.74063200000009" lon="-1.7295830000000074">
        <ele>663.819</ele>
        <time>2022-08-25T08:39:59Z</time>
      </trkpt>
      <trkpt lat="42.74061800000009" lon="-1.7295800000000074">
        <ele>664.009</ele>
        <time>2022-08-25T08:40:00Z</time>
      </trkpt>
      <trkpt lat="42.74060600000009" lon="-1.7295810000000074">
        <ele>664.219</ele>
        <time>2022-08-25T08:40:01Z</time>
      </trkpt>
      <trkpt lat="42.740588000000095" lon="-1.7295850000000073">
        <ele>664.209</ele>
        <time>2022-08-25T08:40:02Z</time>
      </trkpt>
      <trkpt lat="42.740568000000096" lon="-1.7295980000000073">
        <ele>664.472</ele>
        <time>2022-08-25T08:40:03Z</time>
      </trkpt>
      <trkpt lat="42.7405560000001" lon="-1.7296130000000074">
        <ele>664.462</ele>
        <time>2022-08-25T08:40:04Z</time>
      </trkpt>
      <trkpt lat="42.7405470000001" lon="-1.7296250000000073">
        <ele>664.462</ele>
        <time>2022-08-25T08:40:05Z</time>
      </trkpt>
      <trkpt lat="42.7405360000001" lon="-1.7296440000000073">
        <ele>664.478</ele>
        <time>2022-08-25T08:40:06Z</time>
      </trkpt>
      <trkpt lat="42.7405240000001" lon="-1.7296660000000073">
        <ele>664.410</ele>
        <time>2022-08-25T08:40:07Z</time>
      </trkpt>
      <trkpt lat="42.7405140000001" lon="-1.7296820000000073">
        <ele>664.477</ele>
        <time>2022-08-25T08:40:08Z</time>
      </trkpt>
      <trkpt lat="42.7405050000001" lon="-1.7297000000000073">
        <ele>664.680</ele>
        <time>2022-08-25T08:40:09Z</time>
      </trkpt>
      <trkpt lat="42.7404980000001" lon="-1.7297190000000073">
        <ele>664.646</ele>
        <time>2022-08-25T08:40:10Z</time>
      </trkpt>
      <trkpt lat="42.7404890000001" lon="-1.7297430000000074">
        <ele>664.617</ele>
        <time>2022-08-25T08:40:11Z</time>
      </trkpt>
      <trkpt lat="42.7404810000001" lon="-1.7297650000000073">
        <ele>664.672</ele>
        <time>2022-08-25T08:40:12Z</time>
      </trkpt>
      <trkpt lat="42.7404730000001" lon="-1.7297880000000074">
        <ele>664.613</ele>
        <time>2022-08-25T08:40:13Z</time>
      </trkpt>
      <trkpt lat="42.740466000000104" lon="-1.7298070000000074">
        <ele>664.614</ele>
        <time>2022-08-25T08:40:14Z</time>
      </trkpt>
      <trkpt lat="42.740460000000105" lon="-1.7298280000000075">
        <ele>664.809</ele>
        <time>2022-08-25T08:40:15Z</time>
      </trkpt>
      <trkpt lat="42.74045300000011" lon="-1.7298510000000076">
        <ele>664.878</ele>
        <time>2022-08-25T08:40:16Z</time>
      </trkpt>
      <trkpt lat="42.74045000000011" lon="-1.7298820000000075">
        <ele>664.888</ele>
        <time>2022-08-25T08:40:17Z</time>
      </trkpt>
      <trkpt lat="42.74045600000011" lon="-1.7299100000000074">
        <ele>664.838</ele>
        <time>2022-08-25T08:40:18Z</time>
      </trkpt>
      <trkpt lat="42.74046400000011" lon="-1.7299300000000073">
        <ele>664.824</ele>
        <time>2022-08-25T08:40:19Z</time>
      </trkpt>
      <trkpt lat="42.74047400000011" lon="-1.7299530000000074">
        <ele>665.016</ele>
        <time>2022-08-25T08:40:20Z</time>
      </trkpt>
      <trkpt lat="42.740487000000115" lon="-1.7299770000000074">
        <ele>665.093</ele>
        <time>2022-08-25T08:40:21Z</time>
      </trkpt>
      <trkpt lat="42.74051100000012" lon="-1.7300750000000074">
        <ele>665.076</ele>
        <time>2022-08-25T08:40:25Z</time>
      </trkpt>
      <trkpt lat="42.74051000000012" lon="-1.7301370000000074">
        <ele>665.292</ele>
        <time>2022-08-25T08:40:27Z</time>
      </trkpt>
      <trkpt lat="42.74051900000012" lon="-1.7302140000000075">
        <ele>665.473</ele>
        <time>2022-08-25T08:40:30Z</time>
      </trkpt>
      <trkpt lat="42.74052300000012" lon="-1.7302390000000074">
        <ele>665.456</ele>
        <time>2022-08-25T08:40:31Z</time>
      </trkpt>
      <trkpt lat="42.74052500000012" lon="-1.7302630000000074">
        <ele>665.659</ele>
        <time>2022-08-25T08:40:32Z</time>
      </trkpt>
      <trkpt lat="42.74052000000012" lon="-1.7303690000000074">
        <ele>665.614</ele>
        <time>2022-08-25T08:40:36Z</time>
      </trkpt>
      <trkpt lat="42.74052000000012" lon="-1.7303850000000074">
        <ele>665.609</ele>
        <time>2022-08-25T08:40:37Z</time>
      </trkpt>
      <trkpt lat="42.74052000000012" lon="-1.7304100000000073">
        <ele>665.626</ele>
        <time>2022-08-25T08:40:38Z</time>
      </trkpt>
      <trkpt lat="42.74051900000012" lon="-1.7304250000000074">
        <ele>665.626</ele>
        <time>2022-08-25T08:40:39Z</time>
      </trkpt>
      <trkpt lat="42.74051500000012" lon="-1.7304450000000073">
        <ele>665.616</ele>
        <time>2022-08-25T08:40:40Z</time>
      </trkpt>
      <trkpt lat="42.74051200000012" lon="-1.7304680000000074">
        <ele>666.072</ele>
        <time>2022-08-25T08:40:41Z</time>
      </trkpt>
      <trkpt lat="42.740506000000124" lon="-1.7304860000000075">
        <ele>666.464</ele>
        <time>2022-08-25T08:40:42Z</time>
      </trkpt>
      <trkpt lat="42.740500000000125" lon="-1.7305040000000076">
        <ele>666.821</ele>
        <time>2022-08-25T08:40:43Z</time>
      </trkpt>
      <trkpt lat="42.74049600000013" lon="-1.7305160000000075">
        <ele>667.474</ele>
        <time>2022-08-25T08:40:44Z</time>
      </trkpt>
      <trkpt lat="42.74049200000013" lon="-1.7305360000000074">
        <ele>667.620</ele>
        <time>2022-08-25T08:40:45Z</time>
      </trkpt>
      <trkpt lat="42.74048900000013" lon="-1.7305520000000074">
        <ele>668.281</ele>
        <time>2022-08-25T08:40:46Z</time>
      </trkpt>
      <trkpt lat="42.74048600000013" lon="-1.7305700000000075">
        <ele>668.475</ele>
        <time>2022-08-25T08:40:47Z</time>
      </trkpt>
      <trkpt lat="42.74048300000013" lon="-1.7305820000000074">
        <ele>668.828</ele>
        <time>2022-08-25T08:40:48Z</time>
      </trkpt>
      <trkpt lat="42.740479000000136" lon="-1.7306000000000075">
        <ele>668.820</ele>
        <time>2022-08-25T08:40:49Z</time>
      </trkpt>
      <trkpt lat="42.74047500000014" lon="-1.7306180000000075">
        <ele>669.209</ele>
        <time>2022-08-25T08:40:50Z</time>
      </trkpt>
      <trkpt lat="42.74047200000014" lon="-1.7306350000000075">
        <ele>669.418</ele>
        <time>2022-08-25T08:40:51Z</time>
      </trkpt>
      <trkpt lat="42.74047500000014" lon="-1.7306470000000074">
        <ele>669.448</ele>
        <time>2022-08-25T08:40:52Z</time>
      </trkpt>
      <trkpt lat="42.740476000000136" lon="-1.7306630000000074">
        <ele>669.618</ele>
        <time>2022-08-25T08:40:53Z</time>
      </trkpt>
      <trkpt lat="42.740479000000136" lon="-1.7306790000000074">
        <ele>669.634</ele>
        <time>2022-08-25T08:40:54Z</time>
      </trkpt>
      <trkpt lat="42.740482000000135" lon="-1.7306940000000075">
        <ele>670.036</ele>
        <time>2022-08-25T08:40:55Z</time>
      </trkpt>
      <trkpt lat="42.74048000000013" lon="-1.7307090000000076">
        <ele>670.283</ele>
        <time>2022-08-25T08:40:56Z</time>
      </trkpt>
      <trkpt lat="42.740479000000136" lon="-1.7307270000000077">
        <ele>670.276</ele>
        <time>2022-08-25T08:40:57Z</time>
      </trkpt>
      <trkpt lat="42.74048000000013" lon="-1.7307440000000076">
        <ele>670.452</ele>
        <time>2022-08-25T08:40:58Z</time>
      </trkpt>
      <trkpt lat="42.740482000000135" lon="-1.7307630000000076">
        <ele>670.423</ele>
        <time>2022-08-25T08:40:59Z</time>
      </trkpt>
      <trkpt lat="42.74048400000014" lon="-1.7307820000000076">
        <ele>670.682</ele>
        <time>2022-08-25T08:41:00Z</time>
      </trkpt>
      <trkpt lat="42.740482000000135" lon="-1.7308000000000077">
        <ele>670.643</ele>
        <time>2022-08-25T08:41:01Z</time>
      </trkpt>
      <trkpt lat="42.740482000000135" lon="-1.7308190000000077">
        <ele>670.817</ele>
        <time>2022-08-25T08:41:02Z</time>
      </trkpt>
      <trkpt lat="42.74048000000013" lon="-1.7308410000000076">
        <ele>671.009</ele>
        <time>2022-08-25T08:41:03Z</time>
      </trkpt>
      <trkpt lat="42.74047700000013" lon="-1.7308620000000077">
        <ele>671.079</ele>
        <time>2022-08-25T08:41:04Z</time>
      </trkpt>
      <trkpt lat="42.74047000000014" lon="-1.7308850000000078">
        <ele>671.269</ele>
        <time>2022-08-25T08:41:05Z</time>
      </trkpt>
      <trkpt lat="42.74046300000014" lon="-1.7309070000000077">
        <ele>671.269</ele>
        <time>2022-08-25T08:41:06Z</time>
      </trkpt>
      <trkpt lat="42.74045700000014" lon="-1.7309300000000079">
        <ele>671.495</ele>
        <time>2022-08-25T08:41:07Z</time>
      </trkpt>
      <trkpt lat="42.740450000000145" lon="-1.7309520000000078">
        <ele>671.437</ele>
        <time>2022-08-25T08:41:08Z</time>
      </trkpt>
      <trkpt lat="42.740442000000144" lon="-1.7309720000000077">
        <ele>671.644</ele>
        <time>2022-08-25T08:41:09Z</time>
      </trkpt>
      <trkpt lat="42.74043800000015" lon="-1.7309920000000076">
        <ele>671.877</ele>
        <time>2022-08-25T08:41:10Z</time>
      </trkpt>
      <trkpt lat="42.74043200000015" lon="-1.7310100000000077">
        <ele>671.853</ele>
        <time>2022-08-25T08:41:11Z</time>
      </trkpt>
      <trkpt lat="42.740427000000146" lon="-1.7310190000000076">
        <ele>672.064</ele>
        <time>2022-08-25T08:41:12Z</time>
      </trkpt>
      <trkpt lat="42.74042000000015" lon="-1.7310300000000076">
        <ele>672.226</ele>
        <time>2022-08-25T08:41:13Z</time>
      </trkpt>
      <trkpt lat="42.74041200000015" lon="-1.7310420000000075">
        <ele>672.447</ele>
        <time>2022-08-25T08:41:14Z</time>
      </trkpt>
      <trkpt lat="42.74040500000015" lon="-1.7310550000000076">
        <ele>672.611</ele>
        <time>2022-08-25T08:41:15Z</time>
      </trkpt>
      <trkpt lat="42.74039900000015" lon="-1.7310690000000075">
        <ele>673.209</ele>
        <time>2022-08-25T08:41:16Z</time>
      </trkpt>
      <trkpt lat="42.740393000000154" lon="-1.7310780000000074">
        <ele>673.483</ele>
        <time>2022-08-25T08:41:17Z</time>
      </trkpt>
      <trkpt lat="42.74038500000015" lon="-1.7310880000000075">
        <ele>673.693</ele>
        <time>2022-08-25T08:41:18Z</time>
      </trkpt>
      <trkpt lat="42.740379000000154" lon="-1.7311000000000074">
        <ele>673.823</ele>
        <time>2022-08-25T08:41:19Z</time>
      </trkpt>
      <trkpt lat="42.74037500000016" lon="-1.7311140000000074">
        <ele>673.859</ele>
        <time>2022-08-25T08:41:20Z</time>
      </trkpt>
      <trkpt lat="42.74037100000016" lon="-1.7311220000000074">
        <ele>674.251</ele>
        <time>2022-08-25T08:41:21Z</time>
      </trkpt>
      <trkpt lat="42.74036400000016" lon="-1.7311350000000074">
        <ele>674.428</ele>
        <time>2022-08-25T08:41:22Z</time>
      </trkpt>
      <trkpt lat="42.74035700000017" lon="-1.7311480000000075">
        <ele>674.821</ele>
        <time>2022-08-25T08:41:23Z</time>
      </trkpt>
      <trkpt lat="42.740349000000165" lon="-1.7311590000000074">
        <ele>675.027</ele>
        <time>2022-08-25T08:41:24Z</time>
      </trkpt>
      <trkpt lat="42.740338000000165" lon="-1.7311700000000074">
        <ele>675.268</ele>
        <time>2022-08-25T08:41:25Z</time>
      </trkpt>
      <trkpt lat="42.74032800000016" lon="-1.7311750000000075">
        <ele>675.452</ele>
        <time>2022-08-25T08:41:26Z</time>
      </trkpt>
      <trkpt lat="42.74031900000016" lon="-1.7311850000000075">
        <ele>675.653</ele>
        <time>2022-08-25T08:41:27Z</time>
      </trkpt>
      <trkpt lat="42.740312000000166" lon="-1.7311950000000076">
        <ele>675.808</ele>
        <time>2022-08-25T08:41:28Z</time>
      </trkpt>
      <trkpt lat="42.740304000000165" lon="-1.7312070000000075">
        <ele>675.809</ele>
        <time>2022-08-25T08:41:29Z</time>
      </trkpt>
      <trkpt lat="42.74029500000017" lon="-1.7312210000000074">
        <ele>676.226</ele>
        <time>2022-08-25T08:41:30Z</time>
      </trkpt>
      <trkpt lat="42.74028600000017" lon="-1.7312320000000074">
        <ele>676.646</ele>
        <time>2022-08-25T08:41:31Z</time>
      </trkpt>
      <trkpt lat="42.74027700000017" lon="-1.7312430000000074">
        <ele>676.886</ele>
        <time>2022-08-25T08:41:32Z</time>
      </trkpt>
      <trkpt lat="42.74026900000017" lon="-1.7312540000000074">
        <ele>677.252</ele>
        <time>2022-08-25T08:41:33Z</time>
      </trkpt>
      <trkpt lat="42.74026300000017" lon="-1.7312660000000073">
        <ele>677.484</ele>
        <time>2022-08-25T08:41:34Z</time>
      </trkpt>
      <trkpt lat="42.74026100000017" lon="-1.7312780000000072">
        <ele>677.831</ele>
        <time>2022-08-25T08:41:35Z</time>
      </trkpt>
      <trkpt lat="42.74025800000017" lon="-1.7312910000000072">
        <ele>677.854</ele>
        <time>2022-08-25T08:41:36Z</time>
      </trkpt>
      <trkpt lat="42.740256000000166" lon="-1.7313040000000073">
        <ele>677.810</ele>
        <time>2022-08-25T08:41:37Z</time>
      </trkpt>
      <trkpt lat="42.74025500000017" lon="-1.7313160000000072">
        <ele>678.041</ele>
        <time>2022-08-25T08:41:38Z</time>
      </trkpt>
      <trkpt lat="42.74024900000017" lon="-1.7313300000000071">
        <ele>678.088</ele>
        <time>2022-08-25T08:41:39Z</time>
      </trkpt>
      <trkpt lat="42.74024200000017" lon="-1.7313400000000072">
        <ele>678.224</ele>
        <time>2022-08-25T08:41:40Z</time>
      </trkpt>
      <trkpt lat="42.74023100000017" lon="-1.731352000000007">
        <ele>678.226</ele>
        <time>2022-08-25T08:41:41Z</time>
      </trkpt>
      <trkpt lat="42.740224000000175" lon="-1.7313600000000071">
        <ele>678.409</ele>
        <time>2022-08-25T08:41:42Z</time>
      </trkpt>
      <trkpt lat="42.74021200000018" lon="-1.7313700000000072">
        <ele>678.679</ele>
        <time>2022-08-25T08:41:43Z</time>
      </trkpt>
      <trkpt lat="42.74020000000018" lon="-1.7313800000000072">
        <ele>678.879</ele>
        <time>2022-08-25T08:41:44Z</time>
      </trkpt>
      <trkpt lat="42.74018900000018" lon="-1.7313860000000072">
        <ele>678.889</ele>
        <time>2022-08-25T08:41:45Z</time>
      </trkpt>
      <trkpt lat="42.740179000000175" lon="-1.7313920000000071">
        <ele>679.085</ele>
        <time>2022-08-25T08:41:46Z</time>
      </trkpt>
      <trkpt lat="42.740173000000176" lon="-1.7313990000000072">
        <ele>679.037</ele>
        <time>2022-08-25T08:41:47Z</time>
      </trkpt>
      <trkpt lat="42.74016400000018" lon="-1.7314090000000073">
        <ele>679.254</ele>
        <time>2022-08-25T08:41:48Z</time>
      </trkpt>
      <trkpt lat="42.74015500000018" lon="-1.7314250000000073">
        <ele>679.217</ele>
        <time>2022-08-25T08:41:49Z</time>
      </trkpt>
      <trkpt lat="42.74014300000018" lon="-1.7314390000000073">
        <ele>679.263</ele>
        <time>2022-08-25T08:41:50Z</time>
      </trkpt>
      <trkpt lat="42.74013000000018" lon="-1.7314520000000073">
        <ele>679.294</ele>
        <time>2022-08-25T08:41:51Z</time>
      </trkpt>
      <trkpt lat="42.74012200000018" lon="-1.7314600000000073">
        <ele>679.484</ele>
        <time>2022-08-25T08:41:52Z</time>
      </trkpt>
      <trkpt lat="42.74011500000018" lon="-1.7314740000000073">
        <ele>679.407</ele>
        <time>2022-08-25T08:41:53Z</time>
      </trkpt>
      <trkpt lat="42.74010600000018" lon="-1.7314890000000074">
        <ele>679.417</ele>
        <time>2022-08-25T08:41:54Z</time>
      </trkpt>
      <trkpt lat="42.74009700000018" lon="-1.7315040000000075">
        <ele>679.409</ele>
        <time>2022-08-25T08:41:55Z</time>
      </trkpt>
      <trkpt lat="42.74009200000018" lon="-1.7315160000000074">
        <ele>679.619</ele>
        <time>2022-08-25T08:41:56Z</time>
      </trkpt>
      <trkpt lat="42.740085000000185" lon="-1.7315290000000074">
        <ele>679.639</ele>
        <time>2022-08-25T08:41:57Z</time>
      </trkpt>
      <trkpt lat="42.74008100000019" lon="-1.7315430000000074">
        <ele>679.649</ele>
        <time>2022-08-25T08:41:58Z</time>
      </trkpt>
      <trkpt lat="42.74007300000019" lon="-1.7315530000000074">
        <ele>679.865</ele>
        <time>2022-08-25T08:41:59Z</time>
      </trkpt>
      <trkpt lat="42.74006700000019" lon="-1.7315640000000074">
        <ele>679.837</ele>
        <time>2022-08-25T08:42:00Z</time>
      </trkpt>
      <trkpt lat="42.74005900000019" lon="-1.7315730000000074">
        <ele>679.894</ele>
        <time>2022-08-25T08:42:01Z</time>
      </trkpt>
      <trkpt lat="42.740049000000184" lon="-1.7315880000000075">
        <ele>679.837</ele>
        <time>2022-08-25T08:42:02Z</time>
      </trkpt>
      <trkpt lat="42.74004100000018" lon="-1.7316070000000074">
        <ele>680.033</ele>
        <time>2022-08-25T08:42:03Z</time>
      </trkpt>
      <trkpt lat="42.740035000000184" lon="-1.7316240000000074">
        <ele>680.094</ele>
        <time>2022-08-25T08:42:04Z</time>
      </trkpt>
      <trkpt lat="42.740029000000185" lon="-1.7316480000000074">
        <ele>680.092</ele>
        <time>2022-08-25T08:42:05Z</time>
      </trkpt>
      <trkpt lat="42.73998000000019" lon="-1.7317440000000075">
        <ele>680.073</ele>
        <time>2022-08-25T08:42:09Z</time>
      </trkpt>
      <trkpt lat="42.73996500000019" lon="-1.7317740000000075">
        <ele>679.820</ele>
        <time>2022-08-25T08:42:10Z</time>
      </trkpt>
      <trkpt lat="42.73995700000019" lon="-1.7317880000000074">
        <ele>679.609</ele>
        <time>2022-08-25T08:42:11Z</time>
      </trkpt>
      <trkpt lat="42.73994500000019" lon="-1.7318040000000074">
        <ele>679.440</ele>
        <time>2022-08-25T08:42:12Z</time>
      </trkpt>
      <trkpt lat="42.73993000000019" lon="-1.7318170000000075">
        <ele>679.070</ele>
        <time>2022-08-25T08:42:13Z</time>
      </trkpt>
      <trkpt lat="42.739918000000195" lon="-1.7318230000000074">
        <ele>678.820</ele>
        <time>2022-08-25T08:42:14Z</time>
      </trkpt>
      <trkpt lat="42.7399060000002" lon="-1.7318280000000075">
        <ele>678.816</ele>
        <time>2022-08-25T08:42:15Z</time>
      </trkpt>
      <trkpt lat="42.739898000000196" lon="-1.7318320000000074">
        <ele>678.878</ele>
        <time>2022-08-25T08:42:16Z</time>
      </trkpt>
      <trkpt lat="42.739884000000195" lon="-1.7318380000000073">
        <ele>678.835</ele>
        <time>2022-08-25T08:42:17Z</time>
      </trkpt>
      <trkpt lat="42.7398130000002" lon="-1.7318870000000073">
        <ele>679.668</ele>
        <time>2022-08-25T08:42:23Z</time>
      </trkpt>
      <trkpt lat="42.7398040000002" lon="-1.7318950000000073">
        <ele>679.454</ele>
        <time>2022-08-25T08:42:24Z</time>
      </trkpt>
      <trkpt lat="42.7397960000002" lon="-1.7319010000000072">
        <ele>679.465</ele>
        <time>2022-08-25T08:42:25Z</time>
      </trkpt>
      <trkpt lat="42.739755000000194" lon="-1.7319350000000073">
        <ele>679.881</ele>
        <time>2022-08-25T08:42:29Z</time>
      </trkpt>
      <trkpt lat="42.739749000000195" lon="-1.7319440000000073">
        <ele>679.861</ele>
        <time>2022-08-25T08:42:30Z</time>
      </trkpt>
      <trkpt lat="42.7396750000002" lon="-1.7320550000000072">
        <ele>680.417</ele>
        <time>2022-08-25T08:42:38Z</time>
      </trkpt>
      <trkpt lat="42.7396690000002" lon="-1.7320650000000073">
        <ele>680.609</ele>
        <time>2022-08-25T08:42:39Z</time>
      </trkpt>
      <trkpt lat="42.7396630000002" lon="-1.7320800000000074">
        <ele>680.659</ele>
        <time>2022-08-25T08:42:40Z</time>
      </trkpt>
      <trkpt lat="42.739653000000196" lon="-1.7321020000000074">
        <ele>680.839</ele>
        <time>2022-08-25T08:42:41Z</time>
      </trkpt>
      <trkpt lat="42.7396460000002" lon="-1.7321180000000074">
        <ele>681.049</ele>
        <time>2022-08-25T08:42:42Z</time>
      </trkpt>
      <trkpt lat="42.7396440000002" lon="-1.7321320000000073">
        <ele>681.065</ele>
        <time>2022-08-25T08:42:43Z</time>
      </trkpt>
      <trkpt lat="42.739639000000196" lon="-1.7321440000000072">
        <ele>681.247</ele>
        <time>2022-08-25T08:42:44Z</time>
      </trkpt>
      <trkpt lat="42.739637000000194" lon="-1.7321560000000071">
        <ele>681.414</ele>
        <time>2022-08-25T08:42:45Z</time>
      </trkpt>
      <trkpt lat="42.73962900000019" lon="-1.7321740000000072">
        <ele>681.677</ele>
        <time>2022-08-25T08:42:46Z</time>
      </trkpt>
      <trkpt lat="42.739620000000194" lon="-1.7322000000000073">
        <ele>681.853</ele>
        <time>2022-08-25T08:42:48Z</time>
      </trkpt>
      <trkpt lat="42.7396190000002" lon="-1.7322110000000073">
        <ele>681.884</ele>
        <time>2022-08-25T08:42:49Z</time>
      </trkpt>
      <trkpt lat="42.7396180000002" lon="-1.7322240000000073">
        <ele>682.037</ele>
        <time>2022-08-25T08:42:50Z</time>
      </trkpt>
      <trkpt lat="42.7396140000002" lon="-1.7322360000000072">
        <ele>682.049</ele>
        <time>2022-08-25T08:42:51Z</time>
      </trkpt>
      <trkpt lat="42.7396080000002" lon="-1.7322500000000072">
        <ele>682.013</ele>
        <time>2022-08-25T08:42:52Z</time>
      </trkpt>
      <trkpt lat="42.7395970000002" lon="-1.7322750000000071">
        <ele>682.209</ele>
        <time>2022-08-25T08:42:54Z</time>
      </trkpt>
      <trkpt lat="42.7395840000002" lon="-1.7323260000000071">
        <ele>682.424</ele>
        <time>2022-08-25T08:42:57Z</time>
      </trkpt>
      <trkpt lat="42.7395790000002" lon="-1.7323520000000072">
        <ele>682.884</ele>
        <time>2022-08-25T08:42:59Z</time>
      </trkpt>
      <trkpt lat="42.7395650000002" lon="-1.7323980000000072">
        <ele>683.024</ele>
        <time>2022-08-25T08:43:02Z</time>
      </trkpt>
      <trkpt lat="42.739541000000195" lon="-1.7324730000000073">
        <ele>683.280</ele>
        <time>2022-08-25T08:43:07Z</time>
      </trkpt>
      <trkpt lat="42.739538000000195" lon="-1.7324920000000072">
        <ele>683.442</ele>
        <time>2022-08-25T08:43:08Z</time>
      </trkpt>
      <trkpt lat="42.739529000000196" lon="-1.7325230000000071">
        <ele>683.449</ele>
        <time>2022-08-25T08:43:10Z</time>
      </trkpt>
      <trkpt lat="42.739521000000195" lon="-1.7325380000000072">
        <ele>683.632</ele>
        <time>2022-08-25T08:43:11Z</time>
      </trkpt>
      <trkpt lat="42.7395030000002" lon="-1.7325970000000073">
        <ele>684.038</ele>
        <time>2022-08-25T08:43:15Z</time>
      </trkpt>
      <trkpt lat="42.739501000000196" lon="-1.7326090000000072">
        <ele>684.089</ele>
        <time>2022-08-25T08:43:16Z</time>
      </trkpt>
      <trkpt lat="42.7394640000002" lon="-1.7327120000000071">
        <ele>684.611</ele>
        <time>2022-08-25T08:43:22Z</time>
      </trkpt>
      <trkpt lat="42.7394600000002" lon="-1.7327350000000072">
        <ele>684.821</ele>
        <time>2022-08-25T08:43:23Z</time>
      </trkpt>
      <trkpt lat="42.7394260000002" lon="-1.7328250000000072">
        <ele>685.403</ele>
        <time>2022-08-25T08:43:28Z</time>
      </trkpt>
      <trkpt lat="42.7394080000002" lon="-1.7328630000000071">
        <ele>685.609</ele>
        <time>2022-08-25T08:43:30Z</time>
      </trkpt>
      <trkpt lat="42.739402000000204" lon="-1.7328780000000072">
        <ele>686.032</ele>
        <time>2022-08-25T08:43:31Z</time>
      </trkpt>
      <trkpt lat="42.7393970000002" lon="-1.7328900000000071">
        <ele>686.032</ele>
        <time>2022-08-25T08:43:32Z</time>
      </trkpt>
      <trkpt lat="42.7393920000002" lon="-1.7329050000000072">
        <ele>686.462</ele>
        <time>2022-08-25T08:43:33Z</time>
      </trkpt>
      <trkpt lat="42.739385000000205" lon="-1.7329240000000072">
        <ele>686.628</ele>
        <time>2022-08-25T08:43:34Z</time>
      </trkpt>
      <trkpt lat="42.7393800000002" lon="-1.7329390000000073">
        <ele>686.870</ele>
        <time>2022-08-25T08:43:35Z</time>
      </trkpt>
      <trkpt lat="42.739371000000205" lon="-1.7329560000000073">
        <ele>687.067</ele>
        <time>2022-08-25T08:43:36Z</time>
      </trkpt>
      <trkpt lat="42.73936700000021" lon="-1.7329680000000072">
        <ele>687.420</ele>
        <time>2022-08-25T08:43:37Z</time>
      </trkpt>
      <trkpt lat="42.73936100000021" lon="-1.7329840000000072">
        <ele>687.666</ele>
        <time>2022-08-25T08:43:38Z</time>
      </trkpt>
      <trkpt lat="42.73935500000021" lon="-1.7329980000000071">
        <ele>687.867</ele>
        <time>2022-08-25T08:43:39Z</time>
      </trkpt>
      <trkpt lat="42.73934700000021" lon="-1.733012000000007">
        <ele>688.098</ele>
        <time>2022-08-25T08:43:40Z</time>
      </trkpt>
      <trkpt lat="42.73934100000021" lon="-1.733026000000007">
        <ele>688.015</ele>
        <time>2022-08-25T08:43:41Z</time>
      </trkpt>
      <trkpt lat="42.73933700000021" lon="-1.733039000000007">
        <ele>688.226</ele>
        <time>2022-08-25T08:43:42Z</time>
      </trkpt>
      <trkpt lat="42.73932900000021" lon="-1.733058000000007">
        <ele>688.209</ele>
        <time>2022-08-25T08:43:43Z</time>
      </trkpt>
      <trkpt lat="42.73932300000021" lon="-1.7330730000000072">
        <ele>688.230</ele>
        <time>2022-08-25T08:43:44Z</time>
      </trkpt>
      <trkpt lat="42.739316000000215" lon="-1.7330880000000073">
        <ele>688.460</ele>
        <time>2022-08-25T08:43:45Z</time>
      </trkpt>
      <trkpt lat="42.739311000000214" lon="-1.7330990000000073">
        <ele>688.460</ele>
        <time>2022-08-25T08:43:46Z</time>
      </trkpt>
      <trkpt lat="42.73930400000022" lon="-1.7331120000000073">
        <ele>688.616</ele>
        <time>2022-08-25T08:43:47Z</time>
      </trkpt>
      <trkpt lat="42.739294000000214" lon="-1.7331290000000072">
        <ele>688.628</ele>
        <time>2022-08-25T08:43:48Z</time>
      </trkpt>
      <trkpt lat="42.73928600000021" lon="-1.7331440000000073">
        <ele>688.835</ele>
        <time>2022-08-25T08:43:49Z</time>
      </trkpt>
      <trkpt lat="42.73927900000022" lon="-1.7331560000000072">
        <ele>688.818</ele>
        <time>2022-08-25T08:43:50Z</time>
      </trkpt>
      <trkpt lat="42.73927300000022" lon="-1.7331670000000072">
        <ele>689.064</ele>
        <time>2022-08-25T08:43:51Z</time>
      </trkpt>
      <trkpt lat="42.73926400000022" lon="-1.7331820000000073">
        <ele>689.275</ele>
        <time>2022-08-25T08:43:52Z</time>
      </trkpt>
      <trkpt lat="42.73925300000022" lon="-1.7331970000000074">
        <ele>689.255</ele>
        <time>2022-08-25T08:43:53Z</time>
      </trkpt>
      <trkpt lat="42.739243000000215" lon="-1.7332130000000074">
        <ele>689.207</ele>
        <time>2022-08-25T08:43:54Z</time>
      </trkpt>
      <trkpt lat="42.73923300000021" lon="-1.7332280000000075">
        <ele>689.217</ele>
        <time>2022-08-25T08:43:55Z</time>
      </trkpt>
      <trkpt lat="42.73922500000021" lon="-1.7332400000000074">
        <ele>689.809</ele>
        <time>2022-08-25T08:43:56Z</time>
      </trkpt>
      <trkpt lat="42.73921300000021" lon="-1.7332580000000075">
        <ele>689.816</ele>
        <time>2022-08-25T08:43:57Z</time>
      </trkpt>
      <trkpt lat="42.739204000000214" lon="-1.7332710000000076">
        <ele>689.896</ele>
        <time>2022-08-25T08:43:58Z</time>
      </trkpt>
      <trkpt lat="42.73919400000021" lon="-1.7332870000000076">
        <ele>689.836</ele>
        <time>2022-08-25T08:43:59Z</time>
      </trkpt>
      <trkpt lat="42.739187000000214" lon="-1.7332990000000075">
        <ele>690.032</ele>
        <time>2022-08-25T08:44:00Z</time>
      </trkpt>
      <trkpt lat="42.73917700000021" lon="-1.7333120000000075">
        <ele>690.274</ele>
        <time>2022-08-25T08:44:01Z</time>
      </trkpt>
      <trkpt lat="42.73916400000021" lon="-1.7333340000000075">
        <ele>690.411</ele>
        <time>2022-08-25T08:44:02Z</time>
      </trkpt>
      <trkpt lat="42.73915700000021" lon="-1.7333470000000075">
        <ele>690.664</ele>
        <time>2022-08-25T08:44:03Z</time>
      </trkpt>
      <trkpt lat="42.739145000000214" lon="-1.7333680000000076">
        <ele>690.630</ele>
        <time>2022-08-25T08:44:04Z</time>
      </trkpt>
      <trkpt lat="42.739139000000215" lon="-1.7333810000000076">
        <ele>690.661</ele>
        <time>2022-08-25T08:44:05Z</time>
      </trkpt>
      <trkpt lat="42.73913200000022" lon="-1.7333970000000076">
        <ele>690.893</ele>
        <time>2022-08-25T08:44:06Z</time>
      </trkpt>
      <trkpt lat="42.73912100000022" lon="-1.7334190000000076">
        <ele>691.065</ele>
        <time>2022-08-25T08:44:07Z</time>
      </trkpt>
      <trkpt lat="42.73911200000022" lon="-1.7334340000000077">
        <ele>691.221</ele>
        <time>2022-08-25T08:44:08Z</time>
      </trkpt>
      <trkpt lat="42.739102000000216" lon="-1.7334450000000077">
        <ele>691.409</ele>
        <time>2022-08-25T08:44:09Z</time>
      </trkpt>
      <trkpt lat="42.739094000000215" lon="-1.7334540000000076">
        <ele>691.640</ele>
        <time>2022-08-25T08:44:10Z</time>
      </trkpt>
      <trkpt lat="42.73908100000021" lon="-1.7334670000000076">
        <ele>691.820</ele>
        <time>2022-08-25T08:44:11Z</time>
      </trkpt>
      <trkpt lat="42.73907100000021" lon="-1.7334790000000075">
        <ele>691.820</ele>
        <time>2022-08-25T08:44:12Z</time>
      </trkpt>
      <trkpt lat="42.73906200000021" lon="-1.7334930000000075">
        <ele>691.896</ele>
        <time>2022-08-25T08:44:13Z</time>
      </trkpt>
      <trkpt lat="42.73905300000021" lon="-1.7335070000000075">
        <ele>691.818</ele>
        <time>2022-08-25T08:44:14Z</time>
      </trkpt>
      <trkpt lat="42.73904300000021" lon="-1.7335220000000076">
        <ele>691.855</ele>
        <time>2022-08-25T08:44:15Z</time>
      </trkpt>
      <trkpt lat="42.73903500000021" lon="-1.7335330000000075">
        <ele>691.828</ele>
        <time>2022-08-25T08:44:16Z</time>
      </trkpt>
      <trkpt lat="42.73902300000021" lon="-1.7335490000000076">
        <ele>692.044</ele>
        <time>2022-08-25T08:44:17Z</time>
      </trkpt>
      <trkpt lat="42.73901100000021" lon="-1.7335620000000076">
        <ele>692.045</ele>
        <time>2022-08-25T08:44:18Z</time>
      </trkpt>
      <trkpt lat="42.73900200000021" lon="-1.7335750000000076">
        <ele>692.054</ele>
        <time>2022-08-25T08:44:19Z</time>
      </trkpt>
      <trkpt lat="42.73899400000021" lon="-1.7335850000000077">
        <ele>692.256</ele>
        <time>2022-08-25T08:44:20Z</time>
      </trkpt>
      <trkpt lat="42.73898300000021" lon="-1.7336000000000078">
        <ele>692.411</ele>
        <time>2022-08-25T08:44:21Z</time>
      </trkpt>
      <trkpt lat="42.73897000000021" lon="-1.733615000000008">
        <ele>692.409</ele>
        <time>2022-08-25T08:44:22Z</time>
      </trkpt>
      <trkpt lat="42.738960000000205" lon="-1.733631000000008">
        <ele>692.476</ele>
        <time>2022-08-25T08:44:23Z</time>
      </trkpt>
      <trkpt lat="42.738952000000204" lon="-1.7336430000000078">
        <ele>692.686</ele>
        <time>2022-08-25T08:44:24Z</time>
      </trkpt>
      <trkpt lat="42.738943000000205" lon="-1.733658000000008">
        <ele>692.676</ele>
        <time>2022-08-25T08:44:25Z</time>
      </trkpt>
      <trkpt lat="42.73893100000021" lon="-1.7336720000000079">
        <ele>692.692</ele>
        <time>2022-08-25T08:44:26Z</time>
      </trkpt>
      <trkpt lat="42.73891600000021" lon="-1.7336890000000078">
        <ele>692.684</ele>
        <time>2022-08-25T08:44:27Z</time>
      </trkpt>
      <trkpt lat="42.73890300000021" lon="-1.7337060000000077">
        <ele>692.651</ele>
        <time>2022-08-25T08:44:28Z</time>
      </trkpt>
      <trkpt lat="42.738890000000204" lon="-1.7337220000000078">
        <ele>692.674</ele>
        <time>2022-08-25T08:44:29Z</time>
      </trkpt>
      <trkpt lat="42.738853000000205" lon="-1.7337610000000077">
        <ele>692.650</ele>
        <time>2022-08-25T08:44:32Z</time>
      </trkpt>
      <trkpt lat="42.7388430000002" lon="-1.7337780000000076">
        <ele>692.621</ele>
        <time>2022-08-25T08:44:33Z</time>
      </trkpt>
      <trkpt lat="42.738836000000205" lon="-1.7337890000000076">
        <ele>692.612</ele>
        <time>2022-08-25T08:44:34Z</time>
      </trkpt>
      <trkpt lat="42.73882700000021" lon="-1.7338040000000077">
        <ele>692.632</ele>
        <time>2022-08-25T08:44:35Z</time>
      </trkpt>
      <trkpt lat="42.738814000000204" lon="-1.7338210000000076">
        <ele>692.605</ele>
        <time>2022-08-25T08:44:36Z</time>
      </trkpt>
      <trkpt lat="42.738788000000206" lon="-1.7338750000000076">
        <ele>692.609</ele>
        <time>2022-08-25T08:44:39Z</time>
      </trkpt>
      <trkpt lat="42.738763000000205" lon="-1.7339320000000076">
        <ele>692.832</ele>
        <time>2022-08-25T08:44:42Z</time>
      </trkpt>
      <trkpt lat="42.7387580000002" lon="-1.7339450000000076">
        <ele>693.062</ele>
        <time>2022-08-25T08:44:43Z</time>
      </trkpt>
      <trkpt lat="42.73875100000021" lon="-1.7339630000000077">
        <ele>693.072</ele>
        <time>2022-08-25T08:44:44Z</time>
      </trkpt>
      <trkpt lat="42.73874200000021" lon="-1.7339860000000078">
        <ele>693.048</ele>
        <time>2022-08-25T08:44:45Z</time>
      </trkpt>
      <trkpt lat="42.73872700000021" lon="-1.7340400000000078">
        <ele>693.430</ele>
        <time>2022-08-25T08:44:48Z</time>
      </trkpt>
      <trkpt lat="42.73869100000021" lon="-1.7341370000000078">
        <ele>693.637</ele>
        <time>2022-08-25T08:44:53Z</time>
      </trkpt>
      <trkpt lat="42.738681000000206" lon="-1.7341540000000077">
        <ele>693.660</ele>
        <time>2022-08-25T08:44:54Z</time>
      </trkpt>
      <trkpt lat="42.738670000000205" lon="-1.7341700000000078">
        <ele>693.676</ele>
        <time>2022-08-25T08:44:55Z</time>
      </trkpt>
      <trkpt lat="42.73866100000021" lon="-1.7341880000000078">
        <ele>693.627</ele>
        <time>2022-08-25T08:44:56Z</time>
      </trkpt>
      <trkpt lat="42.7386510000002" lon="-1.7342040000000079">
        <ele>693.652</ele>
        <time>2022-08-25T08:44:57Z</time>
      </trkpt>
      <trkpt lat="42.7385980000002" lon="-1.7342940000000078">
        <ele>693.853</ele>
        <time>2022-08-25T08:45:02Z</time>
      </trkpt>
      <trkpt lat="42.738589000000204" lon="-1.7343140000000077">
        <ele>693.808</ele>
        <time>2022-08-25T08:45:03Z</time>
      </trkpt>
      <trkpt lat="42.738583000000204" lon="-1.7343270000000077">
        <ele>694.009</ele>
        <time>2022-08-25T08:45:04Z</time>
      </trkpt>
      <trkpt lat="42.7385750000002" lon="-1.7343480000000078">
        <ele>694.276</ele>
        <time>2022-08-25T08:45:05Z</time>
      </trkpt>
      <trkpt lat="42.738571000000206" lon="-1.7343630000000079">
        <ele>694.276</ele>
        <time>2022-08-25T08:45:06Z</time>
      </trkpt>
      <trkpt lat="42.73856700000021" lon="-1.7343800000000078">
        <ele>694.496</ele>
        <time>2022-08-25T08:45:07Z</time>
      </trkpt>
      <trkpt lat="42.73855800000021" lon="-1.7343940000000078">
        <ele>694.452</ele>
        <time>2022-08-25T08:45:08Z</time>
      </trkpt>
      <trkpt lat="42.73854900000021" lon="-1.7344120000000078">
        <ele>694.684</ele>
        <time>2022-08-25T08:45:09Z</time>
      </trkpt>
      <trkpt lat="42.73850400000021" lon="-1.7344980000000079">
        <ele>694.831</ele>
        <time>2022-08-25T08:45:13Z</time>
      </trkpt>
      <trkpt lat="42.73849300000021" lon="-1.734519000000008">
        <ele>695.024</ele>
        <time>2022-08-25T08:45:14Z</time>
      </trkpt>
      <trkpt lat="42.73845200000021" lon="-1.7346010000000078">
        <ele>695.230</ele>
        <time>2022-08-25T08:45:18Z</time>
      </trkpt>
      <trkpt lat="42.73844100000021" lon="-1.7346210000000077">
        <ele>695.231</ele>
        <time>2022-08-25T08:45:19Z</time>
      </trkpt>
      <trkpt lat="42.73843300000021" lon="-1.7346440000000078">
        <ele>695.456</ele>
        <time>2022-08-25T08:45:20Z</time>
      </trkpt>
      <trkpt lat="42.73842900000021" lon="-1.7346660000000078">
        <ele>695.459</ele>
        <time>2022-08-25T08:45:21Z</time>
      </trkpt>
      <trkpt lat="42.73842500000021" lon="-1.7346820000000078">
        <ele>695.414</ele>
        <time>2022-08-25T08:45:22Z</time>
      </trkpt>
      <trkpt lat="42.73841700000021" lon="-1.7347020000000077">
        <ele>695.409</ele>
        <time>2022-08-25T08:45:23Z</time>
      </trkpt>
      <trkpt lat="42.73840700000021" lon="-1.7347250000000078">
        <ele>695.626</ele>
        <time>2022-08-25T08:45:24Z</time>
      </trkpt>
      <trkpt lat="42.73839800000021" lon="-1.7347450000000078">
        <ele>695.646</ele>
        <time>2022-08-25T08:45:25Z</time>
      </trkpt>
      <trkpt lat="42.73838300000021" lon="-1.7347800000000078">
        <ele>695.616</ele>
        <time>2022-08-25T08:45:27Z</time>
      </trkpt>
      <trkpt lat="42.738376000000216" lon="-1.7347990000000078">
        <ele>695.622</ele>
        <time>2022-08-25T08:45:28Z</time>
      </trkpt>
      <trkpt lat="42.73837000000022" lon="-1.7348200000000078">
        <ele>695.614</ele>
        <time>2022-08-25T08:45:29Z</time>
      </trkpt>
      <trkpt lat="42.73836400000022" lon="-1.7348400000000077">
        <ele>695.841</ele>
        <time>2022-08-25T08:45:30Z</time>
      </trkpt>
      <trkpt lat="42.73835500000022" lon="-1.7348760000000076">
        <ele>696.064</ele>
        <time>2022-08-25T08:45:32Z</time>
      </trkpt>
      <trkpt lat="42.73835000000022" lon="-1.7348930000000076">
        <ele>696.290</ele>
        <time>2022-08-25T08:45:33Z</time>
      </trkpt>
      <trkpt lat="42.73833300000022" lon="-1.7349520000000076">
        <ele>696.651</ele>
        <time>2022-08-25T08:45:36Z</time>
      </trkpt>
      <trkpt lat="42.738328000000216" lon="-1.7349650000000076">
        <ele>696.656</ele>
        <time>2022-08-25T08:45:37Z</time>
      </trkpt>
      <trkpt lat="42.73832200000022" lon="-1.7349820000000076">
        <ele>696.859</ele>
        <time>2022-08-25T08:45:38Z</time>
      </trkpt>
      <trkpt lat="42.738314000000216" lon="-1.7350030000000076">
        <ele>696.814</ele>
        <time>2022-08-25T08:45:39Z</time>
      </trkpt>
      <trkpt lat="42.73831000000022" lon="-1.7350160000000077">
        <ele>696.809</ele>
        <time>2022-08-25T08:45:40Z</time>
      </trkpt>
      <trkpt lat="42.73830500000022" lon="-1.7350290000000077">
        <ele>697.026</ele>
        <time>2022-08-25T08:45:41Z</time>
      </trkpt>
      <trkpt lat="42.738280000000216" lon="-1.7351000000000076">
        <ele>697.426</ele>
        <time>2022-08-25T08:45:45Z</time>
      </trkpt>
      <trkpt lat="42.73821800000022" lon="-1.7352530000000077">
        <ele>697.856</ele>
        <time>2022-08-25T08:45:52Z</time>
      </trkpt>
      <trkpt lat="42.73817800000022" lon="-1.7353310000000077">
        <ele>698.022</ele>
        <time>2022-08-25T08:45:55Z</time>
      </trkpt>
      <trkpt lat="42.73815200000022" lon="-1.7353790000000078">
        <ele>698.074</ele>
        <time>2022-08-25T08:45:57Z</time>
      </trkpt>
      <trkpt lat="42.73813900000022" lon="-1.7354020000000079">
        <ele>698.031</ele>
        <time>2022-08-25T08:45:58Z</time>
      </trkpt>
      <trkpt lat="42.73812500000022" lon="-1.7354290000000079">
        <ele>698.064</ele>
        <time>2022-08-25T08:45:59Z</time>
      </trkpt>
      <trkpt lat="42.738115000000214" lon="-1.7354490000000078">
        <ele>698.050</ele>
        <time>2022-08-25T08:46:00Z</time>
      </trkpt>
      <trkpt lat="42.738069000000216" lon="-1.7355590000000078">
        <ele>698.081</ele>
        <time>2022-08-25T08:46:04Z</time>
      </trkpt>
      <trkpt lat="42.73806200000022" lon="-1.735585000000008">
        <ele>697.822</ele>
        <time>2022-08-25T08:46:05Z</time>
      </trkpt>
      <trkpt lat="42.73805700000022" lon="-1.735604000000008">
        <ele>698.062</ele>
        <time>2022-08-25T08:46:06Z</time>
      </trkpt>
      <trkpt lat="42.73804600000022" lon="-1.735633000000008">
        <ele>697.808</ele>
        <time>2022-08-25T08:46:07Z</time>
      </trkpt>
      <trkpt lat="42.738038000000216" lon="-1.735659000000008">
        <ele>697.809</ele>
        <time>2022-08-25T08:46:08Z</time>
      </trkpt>
      <trkpt lat="42.73803100000022" lon="-1.735684000000008">
        <ele>698.093</ele>
        <time>2022-08-25T08:46:09Z</time>
      </trkpt>
      <trkpt lat="42.73802600000022" lon="-1.735702000000008">
        <ele>698.253</ele>
        <time>2022-08-25T08:46:10Z</time>
      </trkpt>
      <trkpt lat="42.73802100000022" lon="-1.735727000000008">
        <ele>698.283</ele>
        <time>2022-08-25T08:46:11Z</time>
      </trkpt>
      <trkpt lat="42.738005000000214" lon="-1.735817000000008">
        <ele>698.679</ele>
        <time>2022-08-25T08:46:14Z</time>
      </trkpt>
      <trkpt lat="42.73800300000021" lon="-1.735841000000008">
        <ele>698.471</ele>
        <time>2022-08-25T08:46:15Z</time>
      </trkpt>
      <trkpt lat="42.73799200000021" lon="-1.735929000000008">
        <ele>698.618</ele>
        <time>2022-08-25T08:46:18Z</time>
      </trkpt>
      <trkpt lat="42.73798400000021" lon="-1.735983000000008">
        <ele>698.861</ele>
        <time>2022-08-25T08:46:20Z</time>
      </trkpt>
      <trkpt lat="42.73798100000021" lon="-1.736015000000008">
        <ele>698.887</ele>
        <time>2022-08-25T08:46:21Z</time>
      </trkpt>
      <trkpt lat="42.73797800000021" lon="-1.736039000000008">
        <ele>699.058</ele>
        <time>2022-08-25T08:46:22Z</time>
      </trkpt>
      <trkpt lat="42.737971000000215" lon="-1.7360600000000082">
        <ele>699.012</ele>
        <time>2022-08-25T08:46:23Z</time>
      </trkpt>
      <trkpt lat="42.737968000000215" lon="-1.7360750000000083">
        <ele>699.232</ele>
        <time>2022-08-25T08:46:24Z</time>
      </trkpt>
      <trkpt lat="42.737963000000214" lon="-1.7360910000000083">
        <ele>699.805</ele>
        <time>2022-08-25T08:46:25Z</time>
      </trkpt>
      <trkpt lat="42.73795800000021" lon="-1.7361110000000082">
        <ele>700.009</ele>
        <time>2022-08-25T08:46:26Z</time>
      </trkpt>
      <trkpt lat="42.737957000000215" lon="-1.7361270000000082">
        <ele>700.432</ele>
        <time>2022-08-25T08:46:27Z</time>
      </trkpt>
      <trkpt lat="42.737954000000215" lon="-1.7361440000000081">
        <ele>700.622</ele>
        <time>2022-08-25T08:46:28Z</time>
      </trkpt>
      <trkpt lat="42.73795000000022" lon="-1.7361570000000082">
        <ele>700.852</ele>
        <time>2022-08-25T08:46:29Z</time>
      </trkpt>
      <trkpt lat="42.73794200000022" lon="-1.736174000000008">
        <ele>701.078</ele>
        <time>2022-08-25T08:46:30Z</time>
      </trkpt>
      <trkpt lat="42.737934000000216" lon="-1.7361950000000081">
        <ele>701.230</ele>
        <time>2022-08-25T08:46:31Z</time>
      </trkpt>
      <trkpt lat="42.737929000000214" lon="-1.7362190000000082">
        <ele>701.217</ele>
        <time>2022-08-25T08:46:32Z</time>
      </trkpt>
      <trkpt lat="42.737926000000215" lon="-1.7362410000000081">
        <ele>701.280</ele>
        <time>2022-08-25T08:46:33Z</time>
      </trkpt>
      <trkpt lat="42.73792200000022" lon="-1.736263000000008">
        <ele>701.236</ele>
        <time>2022-08-25T08:46:34Z</time>
      </trkpt>
      <trkpt lat="42.73791500000022" lon="-1.736280000000008">
        <ele>701.257</ele>
        <time>2022-08-25T08:46:35Z</time>
      </trkpt>
      <trkpt lat="42.73790700000022" lon="-1.736297000000008">
        <ele>701.457</ele>
        <time>2022-08-25T08:46:36Z</time>
      </trkpt>
      <trkpt lat="42.73789200000022" lon="-1.736321000000008">
        <ele>701.400</ele>
        <time>2022-08-25T08:46:37Z</time>
      </trkpt>
      <trkpt lat="42.737883000000224" lon="-1.736335000000008">
        <ele>701.420</ele>
        <time>2022-08-25T08:46:38Z</time>
      </trkpt>
      <trkpt lat="42.73787200000022" lon="-1.736353000000008">
        <ele>701.409</ele>
        <time>2022-08-25T08:46:39Z</time>
      </trkpt>
      <trkpt lat="42.73786500000023" lon="-1.736374000000008">
        <ele>701.426</ele>
        <time>2022-08-25T08:46:40Z</time>
      </trkpt>
      <trkpt lat="42.73786100000023" lon="-1.7363970000000082">
        <ele>701.446</ele>
        <time>2022-08-25T08:46:41Z</time>
      </trkpt>
      <trkpt lat="42.73785500000023" lon="-1.7364180000000082">
        <ele>701.696</ele>
        <time>2022-08-25T08:46:42Z</time>
      </trkpt>
      <trkpt lat="42.73785000000023" lon="-1.7364380000000081">
        <ele>701.862</ele>
        <time>2022-08-25T08:46:43Z</time>
      </trkpt>
      <trkpt lat="42.73784700000023" lon="-1.7364570000000081">
        <ele>702.264</ele>
        <time>2022-08-25T08:46:44Z</time>
      </trkpt>
      <trkpt lat="42.73784700000023" lon="-1.7364730000000081">
        <ele>702.211</ele>
        <time>2022-08-25T08:46:45Z</time>
      </trkpt>
      <trkpt lat="42.73784500000023" lon="-1.7364910000000082">
        <ele>702.674</ele>
        <time>2022-08-25T08:46:46Z</time>
      </trkpt>
      <trkpt lat="42.737843000000225" lon="-1.7365080000000082">
        <ele>702.860</ele>
        <time>2022-08-25T08:46:47Z</time>
      </trkpt>
      <trkpt lat="42.73784200000023" lon="-1.7365260000000082">
        <ele>703.061</ele>
        <time>2022-08-25T08:46:48Z</time>
      </trkpt>
      <trkpt lat="42.737840000000226" lon="-1.7365480000000082">
        <ele>703.264</ele>
        <time>2022-08-25T08:46:49Z</time>
      </trkpt>
      <trkpt lat="42.737837000000226" lon="-1.7365750000000082">
        <ele>703.606</ele>
        <time>2022-08-25T08:46:50Z</time>
      </trkpt>
      <trkpt lat="42.73783300000023" lon="-1.7365930000000083">
        <ele>703.816</ele>
        <time>2022-08-25T08:46:51Z</time>
      </trkpt>
      <trkpt lat="42.73783000000023" lon="-1.7366100000000082">
        <ele>703.809</ele>
        <time>2022-08-25T08:46:52Z</time>
      </trkpt>
      <trkpt lat="42.73782400000023" lon="-1.7366300000000081">
        <ele>704.057</ele>
        <time>2022-08-25T08:46:53Z</time>
      </trkpt>
      <trkpt lat="42.737817000000234" lon="-1.736655000000008">
        <ele>704.277</ele>
        <time>2022-08-25T08:46:54Z</time>
      </trkpt>
      <trkpt lat="42.737814000000235" lon="-1.736671000000008">
        <ele>704.267</ele>
        <time>2022-08-25T08:46:55Z</time>
      </trkpt>
      <trkpt lat="42.73780900000023" lon="-1.736690000000008">
        <ele>704.273</ele>
        <time>2022-08-25T08:46:56Z</time>
      </trkpt>
      <trkpt lat="42.73780400000023" lon="-1.736707000000008">
        <ele>704.425</ele>
        <time>2022-08-25T08:46:57Z</time>
      </trkpt>
      <trkpt lat="42.73779900000023" lon="-1.736728000000008">
        <ele>704.662</ele>
        <time>2022-08-25T08:46:58Z</time>
      </trkpt>
      <trkpt lat="42.73779300000023" lon="-1.736753000000008">
        <ele>704.875</ele>
        <time>2022-08-25T08:46:59Z</time>
      </trkpt>
      <trkpt lat="42.73778800000023" lon="-1.736773000000008">
        <ele>705.081</ele>
        <time>2022-08-25T08:47:00Z</time>
      </trkpt>
      <trkpt lat="42.73778200000023" lon="-1.7367930000000078">
        <ele>705.062</ele>
        <time>2022-08-25T08:47:01Z</time>
      </trkpt>
      <trkpt lat="42.73777900000023" lon="-1.7368110000000079">
        <ele>705.056</ele>
        <time>2022-08-25T08:47:02Z</time>
      </trkpt>
      <trkpt lat="42.73777800000023" lon="-1.7368250000000078">
        <ele>705.259</ele>
        <time>2022-08-25T08:47:03Z</time>
      </trkpt>
      <trkpt lat="42.73777600000023" lon="-1.7368440000000078">
        <ele>705.214</ele>
        <time>2022-08-25T08:47:04Z</time>
      </trkpt>
      <trkpt lat="42.73777300000023" lon="-1.736862000000008">
        <ele>705.409</ele>
        <time>2022-08-25T08:47:05Z</time>
      </trkpt>
      <trkpt lat="42.73777000000023" lon="-1.7368760000000079">
        <ele>705.646</ele>
        <time>2022-08-25T08:47:06Z</time>
      </trkpt>
      <trkpt lat="42.73776400000023" lon="-1.7368950000000078">
        <ele>705.886</ele>
        <time>2022-08-25T08:47:07Z</time>
      </trkpt>
      <trkpt lat="42.73775900000023" lon="-1.7369090000000078">
        <ele>705.896</ele>
        <time>2022-08-25T08:47:08Z</time>
      </trkpt>
      <trkpt lat="42.73774900000023" lon="-1.7369310000000078">
        <ele>706.082</ele>
        <time>2022-08-25T08:47:09Z</time>
      </trkpt>
      <trkpt lat="42.73774100000023" lon="-1.7369500000000078">
        <ele>706.024</ele>
        <time>2022-08-25T08:47:10Z</time>
      </trkpt>
      <trkpt lat="42.73773400000023" lon="-1.7369640000000077">
        <ele>706.221</ele>
        <time>2022-08-25T08:47:11Z</time>
      </trkpt>
      <trkpt lat="42.73772900000023" lon="-1.7369800000000077">
        <ele>706.284</ele>
        <time>2022-08-25T08:47:12Z</time>
      </trkpt>
      <trkpt lat="42.73772600000023" lon="-1.7369930000000078">
        <ele>706.230</ele>
        <time>2022-08-25T08:47:13Z</time>
      </trkpt>
      <trkpt lat="42.73772100000023" lon="-1.7370130000000077">
        <ele>706.461</ele>
        <time>2022-08-25T08:47:14Z</time>
      </trkpt>
      <trkpt lat="42.73771800000023" lon="-1.7370290000000077">
        <ele>706.628</ele>
        <time>2022-08-25T08:47:15Z</time>
      </trkpt>
      <trkpt lat="42.73771100000023" lon="-1.7370470000000078">
        <ele>706.689</ele>
        <time>2022-08-25T08:47:16Z</time>
      </trkpt>
      <trkpt lat="42.73770600000023" lon="-1.7370630000000078">
        <ele>706.817</ele>
        <time>2022-08-25T08:47:17Z</time>
      </trkpt>
      <trkpt lat="42.73770200000023" lon="-1.737078000000008">
        <ele>706.809</ele>
        <time>2022-08-25T08:47:18Z</time>
      </trkpt>
      <trkpt lat="42.73769700000023" lon="-1.7370950000000078">
        <ele>706.853</ele>
        <time>2022-08-25T08:47:19Z</time>
      </trkpt>
      <trkpt lat="42.737690000000235" lon="-1.7371110000000078">
        <ele>707.083</ele>
        <time>2022-08-25T08:47:20Z</time>
      </trkpt>
      <trkpt lat="42.737684000000236" lon="-1.7371300000000078">
        <ele>707.223</ele>
        <time>2022-08-25T08:47:21Z</time>
      </trkpt>
      <trkpt lat="42.73768100000024" lon="-1.7371520000000078">
        <ele>707.269</ele>
        <time>2022-08-25T08:47:22Z</time>
      </trkpt>
      <trkpt lat="42.73767700000024" lon="-1.7371740000000078">
        <ele>707.421</ele>
        <time>2022-08-25T08:47:23Z</time>
      </trkpt>
      <trkpt lat="42.73767300000024" lon="-1.7371910000000077">
        <ele>707.638</ele>
        <time>2022-08-25T08:47:24Z</time>
      </trkpt>
      <trkpt lat="42.73767100000024" lon="-1.7372060000000078">
        <ele>707.671</ele>
        <time>2022-08-25T08:47:25Z</time>
      </trkpt>
      <trkpt lat="42.73766800000024" lon="-1.7372190000000078">
        <ele>708.037</ele>
        <time>2022-08-25T08:47:26Z</time>
      </trkpt>
      <trkpt lat="42.73766700000024" lon="-1.7372320000000079">
        <ele>708.078</ele>
        <time>2022-08-25T08:47:27Z</time>
      </trkpt>
      <trkpt lat="42.73766700000024" lon="-1.737247000000008">
        <ele>708.232</ele>
        <time>2022-08-25T08:47:28Z</time>
      </trkpt>
      <trkpt lat="42.737664000000244" lon="-1.737263000000008">
        <ele>708.492</ele>
        <time>2022-08-25T08:47:29Z</time>
      </trkpt>
      <trkpt lat="42.73765900000024" lon="-1.737281000000008">
        <ele>708.211</ele>
        <time>2022-08-25T08:47:30Z</time>
      </trkpt>
      <trkpt lat="42.73765600000024" lon="-1.737295000000008">
        <ele>708.409</ele>
        <time>2022-08-25T08:47:31Z</time>
      </trkpt>
      <trkpt lat="42.737650000000244" lon="-1.737313000000008">
        <ele>708.444</ele>
        <time>2022-08-25T08:47:32Z</time>
      </trkpt>
      <trkpt lat="42.737644000000245" lon="-1.7373340000000081">
        <ele>708.664</ele>
        <time>2022-08-25T08:47:33Z</time>
      </trkpt>
      <trkpt lat="42.73763900000024" lon="-1.737351000000008">
        <ele>708.614</ele>
        <time>2022-08-25T08:47:34Z</time>
      </trkpt>
      <trkpt lat="42.737635000000246" lon="-1.7373660000000082">
        <ele>708.860</ele>
        <time>2022-08-25T08:47:35Z</time>
      </trkpt>
      <trkpt lat="42.73762900000025" lon="-1.737378000000008">
        <ele>708.892</ele>
        <time>2022-08-25T08:47:36Z</time>
      </trkpt>
      <trkpt lat="42.73762300000025" lon="-1.7373960000000082">
        <ele>709.059</ele>
        <time>2022-08-25T08:47:37Z</time>
      </trkpt>
      <trkpt lat="42.73761600000025" lon="-1.737416000000008">
        <ele>709.282</ele>
        <time>2022-08-25T08:47:38Z</time>
      </trkpt>
      <trkpt lat="42.73761000000025" lon="-1.737432000000008">
        <ele>709.248</ele>
        <time>2022-08-25T08:47:39Z</time>
      </trkpt>
      <trkpt lat="42.737606000000255" lon="-1.737443000000008">
        <ele>709.229</ele>
        <time>2022-08-25T08:47:40Z</time>
      </trkpt>
      <trkpt lat="42.737601000000254" lon="-1.737457000000008">
        <ele>709.282</ele>
        <time>2022-08-25T08:47:41Z</time>
      </trkpt>
      <trkpt lat="42.73759400000026" lon="-1.737474000000008">
        <ele>709.443</ele>
        <time>2022-08-25T08:47:42Z</time>
      </trkpt>
      <trkpt lat="42.73758800000026" lon="-1.737487000000008">
        <ele>709.417</ele>
        <time>2022-08-25T08:47:43Z</time>
      </trkpt>
      <trkpt lat="42.73757900000026" lon="-1.737503000000008">
        <ele>709.409</ele>
        <time>2022-08-25T08:47:44Z</time>
      </trkpt>
      <trkpt lat="42.73757300000026" lon="-1.7375180000000081">
        <ele>709.679</ele>
        <time>2022-08-25T08:47:45Z</time>
      </trkpt>
      <trkpt lat="42.73756700000026" lon="-1.737529000000008">
        <ele>709.619</ele>
        <time>2022-08-25T08:47:46Z</time>
      </trkpt>
      <trkpt lat="42.73755900000026" lon="-1.7375440000000082">
        <ele>709.659</ele>
        <time>2022-08-25T08:47:47Z</time>
      </trkpt>
      <trkpt lat="42.73755400000026" lon="-1.7375590000000083">
        <ele>709.675</ele>
        <time>2022-08-25T08:47:48Z</time>
      </trkpt>
      <trkpt lat="42.73754900000026" lon="-1.7375730000000082">
        <ele>709.877</ele>
        <time>2022-08-25T08:47:49Z</time>
      </trkpt>
      <trkpt lat="42.737547000000255" lon="-1.7375850000000082">
        <ele>709.824</ele>
        <time>2022-08-25T08:47:50Z</time>
      </trkpt>
      <trkpt lat="42.73754300000026" lon="-1.7376000000000082">
        <ele>709.847</ele>
        <time>2022-08-25T08:47:51Z</time>
      </trkpt>
      <trkpt lat="42.73753800000026" lon="-1.7376120000000082">
        <ele>709.823</ele>
        <time>2022-08-25T08:47:52Z</time>
      </trkpt>
      <trkpt lat="42.73753400000026" lon="-1.7376250000000082">
        <ele>710.064</ele>
        <time>2022-08-25T08:47:53Z</time>
      </trkpt>
      <trkpt lat="42.73752900000026" lon="-1.7376360000000082">
        <ele>710.037</ele>
        <time>2022-08-25T08:47:54Z</time>
      </trkpt>
      <trkpt lat="42.737505000000255" lon="-1.7377050000000083">
        <ele>710.249</ele>
        <time>2022-08-25T08:47:58Z</time>
      </trkpt>
      <trkpt lat="42.737502000000255" lon="-1.7377170000000082">
        <ele>710.213</ele>
        <time>2022-08-25T08:47:59Z</time>
      </trkpt>
      <trkpt lat="42.73748400000026" lon="-1.7377650000000082">
        <ele>710.409</ele>
        <time>2022-08-25T08:48:02Z</time>
      </trkpt>
      <trkpt lat="42.73747700000026" lon="-1.7377940000000083">
        <ele>710.824</ele>
        <time>2022-08-25T08:48:04Z</time>
      </trkpt>
      <trkpt lat="42.73747400000026" lon="-1.7378200000000084">
        <ele>710.844</ele>
        <time>2022-08-25T08:48:05Z</time>
      </trkpt>
      <trkpt lat="42.737467000000265" lon="-1.7378510000000083">
        <ele>711.054</ele>
        <time>2022-08-25T08:48:06Z</time>
      </trkpt>
      <trkpt lat="42.73745100000026" lon="-1.7379250000000082">
        <ele>711.430</ele>
        <time>2022-08-25T08:48:09Z</time>
      </trkpt>
      <trkpt lat="42.73743500000026" lon="-1.737996000000008">
        <ele>711.482</ele>
        <time>2022-08-25T08:48:11Z</time>
      </trkpt>
      <trkpt lat="42.73740800000026" lon="-1.738132000000008">
        <ele>711.869</ele>
        <time>2022-08-25T08:48:15Z</time>
      </trkpt>
      <trkpt lat="42.73740700000026" lon="-1.738157000000008">
        <ele>711.832</ele>
        <time>2022-08-25T08:48:16Z</time>
      </trkpt>
      <trkpt lat="42.73740500000026" lon="-1.738178000000008">
        <ele>712.068</ele>
        <time>2022-08-25T08:48:17Z</time>
      </trkpt>
      <trkpt lat="42.73740000000026" lon="-1.738190000000008">
        <ele>712.419</ele>
        <time>2022-08-25T08:48:18Z</time>
      </trkpt>
      <trkpt lat="42.73739700000026" lon="-1.738206000000008">
        <ele>712.484</ele>
        <time>2022-08-25T08:48:19Z</time>
      </trkpt>
      <trkpt lat="42.73738800000026" lon="-1.738230000000008">
        <ele>712.607</ele>
        <time>2022-08-25T08:48:20Z</time>
      </trkpt>
      <trkpt lat="42.73738100000026" lon="-1.738249000000008">
        <ele>712.617</ele>
        <time>2022-08-25T08:48:21Z</time>
      </trkpt>
      <trkpt lat="42.73737800000026" lon="-1.738265000000008">
        <ele>712.609</ele>
        <time>2022-08-25T08:48:22Z</time>
      </trkpt>
      <trkpt lat="42.73737600000026" lon="-1.738286000000008">
        <ele>712.659</ele>
        <time>2022-08-25T08:48:23Z</time>
      </trkpt>
      <trkpt lat="42.73737000000026" lon="-1.738309000000008">
        <ele>712.449</ele>
        <time>2022-08-25T08:48:24Z</time>
      </trkpt>
      <trkpt lat="42.737355000000264" lon="-1.7383540000000082">
        <ele>712.489</ele>
        <time>2022-08-25T08:48:26Z</time>
      </trkpt>
      <trkpt lat="42.73734700000026" lon="-1.7383720000000082">
        <ele>712.485</ele>
        <time>2022-08-25T08:48:27Z</time>
      </trkpt>
      <trkpt lat="42.737340000000266" lon="-1.7383950000000084">
        <ele>712.457</ele>
        <time>2022-08-25T08:48:28Z</time>
      </trkpt>
      <trkpt lat="42.73731300000026" lon="-1.7384780000000084">
        <ele>712.614</ele>
        <time>2022-08-25T08:48:31Z</time>
      </trkpt>
      <trkpt lat="42.73725400000026" lon="-1.7387400000000084">
        <ele>713.077</ele>
        <time>2022-08-25T08:48:40Z</time>
      </trkpt>
      <trkpt lat="42.73724600000026" lon="-1.7387600000000083">
        <ele>713.083</ele>
        <time>2022-08-25T08:48:41Z</time>
      </trkpt>
      <trkpt lat="42.73724300000026" lon="-1.7387710000000083">
        <ele>713.034</ele>
        <time>2022-08-25T08:48:42Z</time>
      </trkpt>
      <trkpt lat="42.73723800000026" lon="-1.7387860000000084">
        <ele>713.044</ele>
        <time>2022-08-25T08:48:43Z</time>
      </trkpt>
      <trkpt lat="42.737217000000264" lon="-1.7388330000000083">
        <ele>713.005</ele>
        <time>2022-08-25T08:48:45Z</time>
      </trkpt>
      <trkpt lat="42.73717100000027" lon="-1.7389270000000083">
        <ele>713.015</ele>
        <time>2022-08-25T08:48:49Z</time>
      </trkpt>
      <trkpt lat="42.737163000000265" lon="-1.7389430000000083">
        <ele>713.009</ele>
        <time>2022-08-25T08:48:50Z</time>
      </trkpt>
      <trkpt lat="42.737152000000265" lon="-1.7389620000000083">
        <ele>713.045</ele>
        <time>2022-08-25T08:48:51Z</time>
      </trkpt>
      <trkpt lat="42.737143000000266" lon="-1.7389790000000083">
        <ele>713.045</ele>
        <time>2022-08-25T08:48:52Z</time>
      </trkpt>
      <trkpt lat="42.737135000000265" lon="-1.7389950000000083">
        <ele>713.015</ele>
        <time>2022-08-25T08:48:53Z</time>
      </trkpt>
      <trkpt lat="42.73712500000026" lon="-1.7390140000000083">
        <ele>713.281</ele>
        <time>2022-08-25T08:48:54Z</time>
      </trkpt>
      <trkpt lat="42.73711700000026" lon="-1.7390300000000083">
        <ele>713.243</ele>
        <time>2022-08-25T08:48:55Z</time>
      </trkpt>
      <trkpt lat="42.73709100000026" lon="-1.7390750000000084">
        <ele>713.620</ele>
        <time>2022-08-25T08:48:58Z</time>
      </trkpt>
      <trkpt lat="42.737079000000264" lon="-1.7391030000000083">
        <ele>714.013</ele>
        <time>2022-08-25T08:49:00Z</time>
      </trkpt>
      <trkpt lat="42.73707100000026" lon="-1.7391180000000084">
        <ele>714.099</ele>
        <time>2022-08-25T08:49:01Z</time>
      </trkpt>
      <trkpt lat="42.73706400000027" lon="-1.7391290000000084">
        <ele>714.020</ele>
        <time>2022-08-25T08:49:02Z</time>
      </trkpt>
      <trkpt lat="42.73705400000026" lon="-1.7391460000000083">
        <ele>714.244</ele>
        <time>2022-08-25T08:49:03Z</time>
      </trkpt>
      <trkpt lat="42.737045000000265" lon="-1.7391590000000083">
        <ele>714.205</ele>
        <time>2022-08-25T08:49:04Z</time>
      </trkpt>
      <trkpt lat="42.73701000000027" lon="-1.7392080000000083">
        <ele>714.615</ele>
        <time>2022-08-25T08:49:08Z</time>
      </trkpt>
      <trkpt lat="42.73700400000027" lon="-1.7392190000000083">
        <ele>714.609</ele>
        <time>2022-08-25T08:49:09Z</time>
      </trkpt>
      <trkpt lat="42.73700000000027" lon="-1.7392320000000083">
        <ele>714.885</ele>
        <time>2022-08-25T08:49:10Z</time>
      </trkpt>
      <trkpt lat="42.73699700000027" lon="-1.7392400000000083">
        <ele>715.035</ele>
        <time>2022-08-25T08:49:11Z</time>
      </trkpt>
      <trkpt lat="42.736990000000276" lon="-1.7392500000000084">
        <ele>715.235</ele>
        <time>2022-08-25T08:49:12Z</time>
      </trkpt>
      <trkpt lat="42.736974000000274" lon="-1.7392640000000084">
        <ele>715.471</ele>
        <time>2022-08-25T08:49:13Z</time>
      </trkpt>
      <trkpt lat="42.73696600000027" lon="-1.7392740000000084">
        <ele>715.683</ele>
        <time>2022-08-25T08:49:14Z</time>
      </trkpt>
      <trkpt lat="42.73695800000027" lon="-1.7392860000000083">
        <ele>715.860</ele>
        <time>2022-08-25T08:49:15Z</time>
      </trkpt>
      <trkpt lat="42.73695300000027" lon="-1.7392970000000083">
        <ele>716.033</ele>
        <time>2022-08-25T08:49:16Z</time>
      </trkpt>
      <trkpt lat="42.73694000000027" lon="-1.7393100000000083">
        <ele>716.049</ele>
        <time>2022-08-25T08:49:17Z</time>
      </trkpt>
      <trkpt lat="42.736918000000266" lon="-1.7393300000000083">
        <ele>716.470</ele>
        <time>2022-08-25T08:49:19Z</time>
      </trkpt>
      <trkpt lat="42.73690800000026" lon="-1.7393440000000082">
        <ele>716.632</ele>
        <time>2022-08-25T08:49:20Z</time>
      </trkpt>
      <trkpt lat="42.736896000000264" lon="-1.7393610000000082">
        <ele>716.892</ele>
        <time>2022-08-25T08:49:21Z</time>
      </trkpt>
      <trkpt lat="42.73688100000027" lon="-1.7393760000000082">
        <ele>716.811</ele>
        <time>2022-08-25T08:49:22Z</time>
      </trkpt>
      <trkpt lat="42.73686400000027" lon="-1.7393880000000081">
        <ele>717.009</ele>
        <time>2022-08-25T08:49:23Z</time>
      </trkpt>
      <trkpt lat="42.736848000000265" lon="-1.7393990000000081">
        <ele>717.234</ele>
        <time>2022-08-25T08:49:24Z</time>
      </trkpt>
      <trkpt lat="42.73683800000026" lon="-1.7394070000000081">
        <ele>717.624</ele>
        <time>2022-08-25T08:49:25Z</time>
      </trkpt>
      <trkpt lat="42.73682800000026" lon="-1.7394170000000082">
        <ele>717.834</ele>
        <time>2022-08-25T08:49:26Z</time>
      </trkpt>
      <trkpt lat="42.736818000000255" lon="-1.7394310000000082">
        <ele>718.060</ele>
        <time>2022-08-25T08:49:27Z</time>
      </trkpt>
      <trkpt lat="42.73680900000026" lon="-1.739440000000008">
        <ele>718.282</ele>
        <time>2022-08-25T08:49:28Z</time>
      </trkpt>
      <trkpt lat="42.736798000000256" lon="-1.7394530000000081">
        <ele>718.489</ele>
        <time>2022-08-25T08:49:29Z</time>
      </trkpt>
      <trkpt lat="42.73678800000025" lon="-1.7394630000000082">
        <ele>718.832</ele>
        <time>2022-08-25T08:49:30Z</time>
      </trkpt>
      <trkpt lat="42.73677800000025" lon="-1.7394730000000083">
        <ele>718.858</ele>
        <time>2022-08-25T08:49:31Z</time>
      </trkpt>
      <trkpt lat="42.73676900000025" lon="-1.7394850000000082">
        <ele>719.049</ele>
        <time>2022-08-25T08:49:32Z</time>
      </trkpt>
      <trkpt lat="42.736762000000255" lon="-1.739494000000008">
        <ele>719.291</ele>
        <time>2022-08-25T08:49:33Z</time>
      </trkpt>
      <trkpt lat="42.736753000000256" lon="-1.739506000000008">
        <ele>719.281</ele>
        <time>2022-08-25T08:49:34Z</time>
      </trkpt>
      <trkpt lat="42.73674300000025" lon="-1.739519000000008">
        <ele>719.619</ele>
        <time>2022-08-25T08:49:35Z</time>
      </trkpt>
      <trkpt lat="42.73673200000025" lon="-1.7395340000000081">
        <ele>719.609</ele>
        <time>2022-08-25T08:49:36Z</time>
      </trkpt>
      <trkpt lat="42.736720000000254" lon="-1.739546000000008">
        <ele>719.880</ele>
        <time>2022-08-25T08:49:37Z</time>
      </trkpt>
      <trkpt lat="42.736711000000255" lon="-1.739556000000008">
        <ele>720.070</ele>
        <time>2022-08-25T08:49:38Z</time>
      </trkpt>
      <trkpt lat="42.73670100000025" lon="-1.739568000000008">
        <ele>720.280</ele>
        <time>2022-08-25T08:49:39Z</time>
      </trkpt>
      <trkpt lat="42.736694000000256" lon="-1.739578000000008">
        <ele>720.426</ele>
        <time>2022-08-25T08:49:40Z</time>
      </trkpt>
      <trkpt lat="42.736680000000256" lon="-1.7395930000000082">
        <ele>720.488</ele>
        <time>2022-08-25T08:49:41Z</time>
      </trkpt>
      <trkpt lat="42.73666800000026" lon="-1.739605000000008">
        <ele>720.625</ele>
        <time>2022-08-25T08:49:42Z</time>
      </trkpt>
      <trkpt lat="42.73665600000026" lon="-1.739618000000008">
        <ele>720.838</ele>
        <time>2022-08-25T08:49:43Z</time>
      </trkpt>
      <trkpt lat="42.736646000000256" lon="-1.7396280000000082">
        <ele>721.084</ele>
        <time>2022-08-25T08:49:44Z</time>
      </trkpt>
      <trkpt lat="42.736635000000256" lon="-1.7396440000000082">
        <ele>721.225</ele>
        <time>2022-08-25T08:49:45Z</time>
      </trkpt>
      <trkpt lat="42.73662500000025" lon="-1.739664000000008">
        <ele>721.217</ele>
        <time>2022-08-25T08:49:46Z</time>
      </trkpt>
      <trkpt lat="42.736616000000254" lon="-1.7396770000000081">
        <ele>721.487</ele>
        <time>2022-08-25T08:49:47Z</time>
      </trkpt>
      <trkpt lat="42.73660600000025" lon="-1.739691000000008">
        <ele>721.615</ele>
        <time>2022-08-25T08:49:48Z</time>
      </trkpt>
      <trkpt lat="42.73660000000025" lon="-1.739702000000008">
        <ele>721.809</ele>
        <time>2022-08-25T08:49:49Z</time>
      </trkpt>
      <trkpt lat="42.73659000000025" lon="-1.739716000000008">
        <ele>722.082</ele>
        <time>2022-08-25T08:49:50Z</time>
      </trkpt>
      <trkpt lat="42.73658300000025" lon="-1.739728000000008">
        <ele>722.022</ele>
        <time>2022-08-25T08:49:51Z</time>
      </trkpt>
      <trkpt lat="42.73657300000025" lon="-1.739738000000008">
        <ele>722.072</ele>
        <time>2022-08-25T08:49:52Z</time>
      </trkpt>
      <trkpt lat="42.73656500000025" lon="-1.739748000000008">
        <ele>722.468</ele>
        <time>2022-08-25T08:49:53Z</time>
      </trkpt>
      <trkpt lat="42.73655800000025" lon="-1.739757000000008">
        <ele>722.440</ele>
        <time>2022-08-25T08:49:54Z</time>
      </trkpt>
      <trkpt lat="42.73654900000025" lon="-1.739769000000008">
        <ele>722.447</ele>
        <time>2022-08-25T08:49:55Z</time>
      </trkpt>
      <trkpt lat="42.736540000000254" lon="-1.739782000000008">
        <ele>722.680</ele>
        <time>2022-08-25T08:49:56Z</time>
      </trkpt>
      <trkpt lat="42.736531000000255" lon="-1.7397910000000079">
        <ele>722.846</ele>
        <time>2022-08-25T08:49:57Z</time>
      </trkpt>
      <trkpt lat="42.73652100000025" lon="-1.7398000000000078">
        <ele>723.017</ele>
        <time>2022-08-25T08:49:58Z</time>
      </trkpt>
      <trkpt lat="42.73651600000025" lon="-1.7398070000000079">
        <ele>723.257</ele>
        <time>2022-08-25T08:49:59Z</time>
      </trkpt>
      <trkpt lat="42.73651000000025" lon="-1.739814000000008">
        <ele>723.200</ele>
        <time>2022-08-25T08:50:00Z</time>
      </trkpt>
      <trkpt lat="42.73650000000025" lon="-1.739823000000008">
        <ele>723.420</ele>
        <time>2022-08-25T08:50:01Z</time>
      </trkpt>
      <trkpt lat="42.73649500000025" lon="-1.7398290000000078">
        <ele>723.609</ele>
        <time>2022-08-25T08:50:02Z</time>
      </trkpt>
      <trkpt lat="42.736487000000245" lon="-1.739836000000008">
        <ele>723.826</ele>
        <time>2022-08-25T08:50:03Z</time>
      </trkpt>
      <trkpt lat="42.73647500000025" lon="-1.739846000000008">
        <ele>723.866</ele>
        <time>2022-08-25T08:50:04Z</time>
      </trkpt>
      <trkpt lat="42.736465000000244" lon="-1.739850000000008">
        <ele>723.836</ele>
        <time>2022-08-25T08:50:05Z</time>
      </trkpt>
      <trkpt lat="42.73645500000024" lon="-1.7398530000000079">
        <ele>724.072</ele>
        <time>2022-08-25T08:50:06Z</time>
      </trkpt>
      <trkpt lat="42.73644600000024" lon="-1.7398560000000078">
        <ele>724.044</ele>
        <time>2022-08-25T08:50:07Z</time>
      </trkpt>
      <trkpt lat="42.736437000000244" lon="-1.7398680000000077">
        <ele>724.081</ele>
        <time>2022-08-25T08:50:08Z</time>
      </trkpt>
      <trkpt lat="42.736428000000245" lon="-1.7398820000000077">
        <ele>724.084</ele>
        <time>2022-08-25T08:50:09Z</time>
      </trkpt>
      <trkpt lat="42.73641800000024" lon="-1.7398980000000077">
        <ele>724.210</ele>
        <time>2022-08-25T08:50:10Z</time>
      </trkpt>
      <trkpt lat="42.736414000000245" lon="-1.7399070000000076">
        <ele>724.411</ele>
        <time>2022-08-25T08:50:11Z</time>
      </trkpt>
      <trkpt lat="42.736414000000245" lon="-1.7399170000000077">
        <ele>724.476</ele>
        <time>2022-08-25T08:50:12Z</time>
      </trkpt>
      <trkpt lat="42.736411000000246" lon="-1.7399260000000076">
        <ele>724.490</ele>
        <time>2022-08-25T08:50:13Z</time>
      </trkpt>
      <trkpt lat="42.73640200000025" lon="-1.7399390000000077">
        <ele>724.419</ele>
        <time>2022-08-25T08:50:14Z</time>
      </trkpt>
      <trkpt lat="42.73639600000025" lon="-1.7399520000000077">
        <ele>724.609</ele>
        <time>2022-08-25T08:50:15Z</time>
      </trkpt>
      <trkpt lat="42.736394000000246" lon="-1.7399630000000077">
        <ele>724.658</ele>
        <time>2022-08-25T08:50:16Z</time>
      </trkpt>
      <trkpt lat="42.736389000000244" lon="-1.7399760000000077">
        <ele>724.668</ele>
        <time>2022-08-25T08:50:17Z</time>
      </trkpt>
      <trkpt lat="42.73638500000025" lon="-1.7399890000000078">
        <ele>724.838</ele>
        <time>2022-08-25T08:50:18Z</time>
      </trkpt>
      <trkpt lat="42.73637800000025" lon="-1.7400000000000078">
        <ele>724.854</ele>
        <time>2022-08-25T08:50:19Z</time>
      </trkpt>
      <trkpt lat="42.73637500000025" lon="-1.7400110000000077">
        <ele>725.056</ele>
        <time>2022-08-25T08:50:20Z</time>
      </trkpt>
      <trkpt lat="42.73637500000025" lon="-1.7400190000000078">
        <ele>725.023</ele>
        <time>2022-08-25T08:50:21Z</time>
      </trkpt>
      <trkpt lat="42.73637500000025" lon="-1.7400280000000077">
        <ele>725.066</ele>
        <time>2022-08-25T08:50:22Z</time>
      </trkpt>
      <trkpt lat="42.73637300000025" lon="-1.7400410000000077">
        <ele>725.042</ele>
        <time>2022-08-25T08:50:23Z</time>
      </trkpt>
      <trkpt lat="42.73637000000025" lon="-1.7400550000000077">
        <ele>725.273</ele>
        <time>2022-08-25T08:50:24Z</time>
      </trkpt>
      <trkpt lat="42.73636200000025" lon="-1.7400800000000076">
        <ele>725.282</ele>
        <time>2022-08-25T08:50:26Z</time>
      </trkpt>
      <trkpt lat="42.73635900000025" lon="-1.7400930000000077">
        <ele>725.443</ele>
        <time>2022-08-25T08:50:27Z</time>
      </trkpt>
      <trkpt lat="42.73635400000025" lon="-1.7401100000000076">
        <ele>725.417</ele>
        <time>2022-08-25T08:50:28Z</time>
      </trkpt>
      <trkpt lat="42.73633900000025" lon="-1.7401730000000075">
        <ele>725.609</ele>
        <time>2022-08-25T08:50:33Z</time>
      </trkpt>
      <trkpt lat="42.73633800000025" lon="-1.7401860000000076">
        <ele>725.889</ele>
        <time>2022-08-25T08:50:34Z</time>
      </trkpt>
      <trkpt lat="42.73633600000025" lon="-1.7401950000000075">
        <ele>725.829</ele>
        <time>2022-08-25T08:50:35Z</time>
      </trkpt>
      <trkpt lat="42.73632100000025" lon="-1.7402200000000074">
        <ele>726.049</ele>
        <time>2022-08-25T08:50:37Z</time>
      </trkpt>
      <trkpt lat="42.73631600000025" lon="-1.7402280000000074">
        <ele>726.015</ele>
        <time>2022-08-25T08:50:38Z</time>
      </trkpt>
      <trkpt lat="42.73631300000025" lon="-1.7402350000000075">
        <ele>726.077</ele>
        <time>2022-08-25T08:50:39Z</time>
      </trkpt>
      <trkpt lat="42.736306000000255" lon="-1.7402490000000075">
        <ele>726.254</ele>
        <time>2022-08-25T08:50:41Z</time>
      </trkpt>
      <trkpt lat="42.73630400000025" lon="-1.7402610000000074">
        <ele>726.297</ele>
        <time>2022-08-25T08:50:42Z</time>
      </trkpt>
      <trkpt lat="42.73628000000025" lon="-1.7403120000000074">
        <ele>726.853</ele>
        <time>2022-08-25T08:50:47Z</time>
      </trkpt>
      <trkpt lat="42.73628100000025" lon="-1.7403220000000075">
        <ele>727.044</ele>
        <time>2022-08-25T08:50:48Z</time>
      </trkpt>
      <trkpt lat="42.736282000000244" lon="-1.7403390000000074">
        <ele>727.057</ele>
        <time>2022-08-25T08:50:49Z</time>
      </trkpt>
      <trkpt lat="42.73628000000024" lon="-1.7403520000000074">
        <ele>727.200</ele>
        <time>2022-08-25T08:50:50Z</time>
      </trkpt>
      <trkpt lat="42.736273000000246" lon="-1.7403830000000073">
        <ele>727.420</ele>
        <time>2022-08-25T08:50:53Z</time>
      </trkpt>
      <trkpt lat="42.736268000000244" lon="-1.7403940000000073">
        <ele>727.409</ele>
        <time>2022-08-25T08:50:54Z</time>
      </trkpt>
      <trkpt lat="42.73626400000025" lon="-1.7404030000000072">
        <ele>727.626</ele>
        <time>2022-08-25T08:50:55Z</time>
      </trkpt>
      <trkpt lat="42.736242000000246" lon="-1.7404690000000071">
        <ele>727.896</ele>
        <time>2022-08-25T08:50:59Z</time>
      </trkpt>
      <trkpt lat="42.73622700000025" lon="-1.7405180000000071">
        <ele>728.236</ele>
        <time>2022-08-25T08:51:02Z</time>
      </trkpt>
      <trkpt lat="42.73622300000025" lon="-1.740530000000007">
        <ele>728.232</ele>
        <time>2022-08-25T08:51:03Z</time>
      </trkpt>
      <trkpt lat="42.73620700000025" lon="-1.740589000000007">
        <ele>729.064</ele>
        <time>2022-08-25T08:51:07Z</time>
      </trkpt>
      <trkpt lat="42.73620200000025" lon="-1.740600000000007">
        <ele>729.071</ele>
        <time>2022-08-25T08:51:08Z</time>
      </trkpt>
      <trkpt lat="42.73619500000025" lon="-1.740618000000007">
        <ele>729.014</ele>
        <time>2022-08-25T08:51:09Z</time>
      </trkpt>
      <trkpt lat="42.73617100000025" lon="-1.7406680000000072">
        <ele>729.480</ele>
        <time>2022-08-25T08:51:12Z</time>
      </trkpt>
      <trkpt lat="42.73616500000025" lon="-1.7406820000000072">
        <ele>729.661</ele>
        <time>2022-08-25T08:51:13Z</time>
      </trkpt>
      <trkpt lat="42.73615900000025" lon="-1.7406970000000073">
        <ele>729.837</ele>
        <time>2022-08-25T08:51:14Z</time>
      </trkpt>
      <trkpt lat="42.73615300000025" lon="-1.7407130000000073">
        <ele>730.049</ele>
        <time>2022-08-25T08:51:15Z</time>
      </trkpt>
      <trkpt lat="42.73615000000025" lon="-1.7407290000000073">
        <ele>730.213</ele>
        <time>2022-08-25T08:51:16Z</time>
      </trkpt>
      <trkpt lat="42.736146000000254" lon="-1.7407430000000073">
        <ele>730.409</ele>
        <time>2022-08-25T08:51:17Z</time>
      </trkpt>
      <trkpt lat="42.73614200000026" lon="-1.7407500000000073">
        <ele>730.624</ele>
        <time>2022-08-25T08:51:18Z</time>
      </trkpt>
      <trkpt lat="42.73613800000026" lon="-1.7407590000000073">
        <ele>730.894</ele>
        <time>2022-08-25T08:51:19Z</time>
      </trkpt>
      <trkpt lat="42.73613400000026" lon="-1.7407740000000074">
        <ele>730.864</ele>
        <time>2022-08-25T08:51:20Z</time>
      </trkpt>
      <trkpt lat="42.73613100000026" lon="-1.7407850000000074">
        <ele>730.820</ele>
        <time>2022-08-25T08:51:21Z</time>
      </trkpt>
      <trkpt lat="42.73612900000026" lon="-1.7408000000000075">
        <ele>731.032</ele>
        <time>2022-08-25T08:51:22Z</time>
      </trkpt>
      <trkpt lat="42.73612900000026" lon="-1.7408130000000075">
        <ele>731.059</ele>
        <time>2022-08-25T08:51:23Z</time>
      </trkpt>
      <trkpt lat="42.73612400000026" lon="-1.7408340000000075">
        <ele>731.042</ele>
        <time>2022-08-25T08:51:24Z</time>
      </trkpt>
      <trkpt lat="42.73611800000026" lon="-1.7408530000000075">
        <ele>731.078</ele>
        <time>2022-08-25T08:51:25Z</time>
      </trkpt>
      <trkpt lat="42.73611200000026" lon="-1.7408700000000075">
        <ele>731.269</ele>
        <time>2022-08-25T08:51:26Z</time>
      </trkpt>
      <trkpt lat="42.736108000000264" lon="-1.7408870000000074">
        <ele>731.459</ele>
        <time>2022-08-25T08:51:27Z</time>
      </trkpt>
      <trkpt lat="42.73610300000026" lon="-1.7408980000000074">
        <ele>731.803</ele>
        <time>2022-08-25T08:51:28Z</time>
      </trkpt>
      <trkpt lat="42.73609800000026" lon="-1.7409110000000074">
        <ele>731.823</ele>
        <time>2022-08-25T08:51:29Z</time>
      </trkpt>
      <trkpt lat="42.73609300000026" lon="-1.7409260000000075">
        <ele>732.009</ele>
        <time>2022-08-25T08:51:30Z</time>
      </trkpt>
      <trkpt lat="42.73608800000026" lon="-1.7409380000000074">
        <ele>732.226</ele>
        <time>2022-08-25T08:51:31Z</time>
      </trkpt>
      <trkpt lat="42.73608500000026" lon="-1.7409440000000074">
        <ele>732.276</ele>
        <time>2022-08-25T08:51:32Z</time>
      </trkpt>
      <trkpt lat="42.73608500000026" lon="-1.7409440000000074">
        <ele>732.476</ele>
        <time>2022-08-25T08:51:33Z</time>
      </trkpt>
      <trkpt lat="42.73608500000026" lon="-1.7409440000000074">
        <ele>734.612</ele>
        <time>2022-08-25T08:52:06Z</time>
      </trkpt>
      <trkpt lat="42.73608500000026" lon="-1.7409440000000074">
        <ele>734.624</ele>
        <time>2022-08-25T08:52:07Z</time>
      </trkpt>
      <trkpt lat="42.73608500000026" lon="-1.7409440000000074">
        <ele>734.851</ele>
        <time>2022-08-25T08:52:09Z</time>
      </trkpt>
      <trkpt lat="42.73608500000026" lon="-1.7409440000000074">
        <ele>734.834</ele>
        <time>2022-08-25T08:52:10Z</time>
      </trkpt>
      <trkpt lat="42.73606800000026" lon="-1.7409890000000074">
        <ele>735.650</ele>
        <time>2022-08-25T08:52:22Z</time>
      </trkpt>
      <trkpt lat="42.73606800000026" lon="-1.7409920000000074">
        <ele>735.651</ele>
        <time>2022-08-25T08:52:23Z</time>
      </trkpt>
      <trkpt lat="42.73606800000026" lon="-1.7409960000000073">
        <ele>735.879</ele>
        <time>2022-08-25T08:52:24Z</time>
      </trkpt>
      <trkpt lat="42.73606700000026" lon="-1.7410000000000072">
        <ele>735.805</ele>
        <time>2022-08-25T08:52:25Z</time>
      </trkpt>
      <trkpt lat="42.736060000000265" lon="-1.7410400000000072">
        <ele>736.625</ele>
        <time>2022-08-25T08:52:30Z</time>
      </trkpt>
      <trkpt lat="42.73605900000027" lon="-1.7410520000000071">
        <ele>736.809</ele>
        <time>2022-08-25T08:52:32Z</time>
      </trkpt>
      <trkpt lat="42.73605800000027" lon="-1.7410620000000072">
        <ele>737.078</ele>
        <time>2022-08-25T08:52:33Z</time>
      </trkpt>
      <trkpt lat="42.73605800000027" lon="-1.7410710000000071">
        <ele>737.098</ele>
        <time>2022-08-25T08:52:34Z</time>
      </trkpt>
      <trkpt lat="42.73605700000027" lon="-1.7410790000000071">
        <ele>737.248</ele>
        <time>2022-08-25T08:52:35Z</time>
      </trkpt>
      <trkpt lat="42.73605700000027" lon="-1.7410870000000072">
        <ele>737.214</ele>
        <time>2022-08-25T08:52:36Z</time>
      </trkpt>
      <trkpt lat="42.73605700000027" lon="-1.7410940000000072">
        <ele>737.436</ele>
        <time>2022-08-25T08:52:37Z</time>
      </trkpt>
      <trkpt lat="42.73605100000027" lon="-1.7411270000000072">
        <ele>737.853</ele>
        <time>2022-08-25T08:52:41Z</time>
      </trkpt>
      <trkpt lat="42.736048000000274" lon="-1.7411370000000073">
        <ele>737.886</ele>
        <time>2022-08-25T08:52:42Z</time>
      </trkpt>
      <trkpt lat="42.736047000000276" lon="-1.7411460000000072">
        <ele>738.042</ele>
        <time>2022-08-25T08:52:43Z</time>
      </trkpt>
      <trkpt lat="42.73604600000028" lon="-1.7411530000000073">
        <ele>738.223</ele>
        <time>2022-08-25T08:52:44Z</time>
      </trkpt>
      <trkpt lat="42.73604100000028" lon="-1.7411670000000072">
        <ele>738.486</ele>
        <time>2022-08-25T08:52:45Z</time>
      </trkpt>
      <trkpt lat="42.73603700000028" lon="-1.7411830000000073">
        <ele>738.660</ele>
        <time>2022-08-25T08:52:46Z</time>
      </trkpt>
      <trkpt lat="42.73603300000028" lon="-1.7411970000000072">
        <ele>738.626</ele>
        <time>2022-08-25T08:52:47Z</time>
      </trkpt>
      <trkpt lat="42.736029000000286" lon="-1.7412150000000073">
        <ele>738.809</ele>
        <time>2022-08-25T08:52:48Z</time>
      </trkpt>
      <trkpt lat="42.736024000000285" lon="-1.7412320000000072">
        <ele>739.069</ele>
        <time>2022-08-25T08:52:49Z</time>
      </trkpt>
      <trkpt lat="42.736018000000286" lon="-1.7412500000000073">
        <ele>739.089</ele>
        <time>2022-08-25T08:52:50Z</time>
      </trkpt>
      <trkpt lat="42.73601200000029" lon="-1.7412710000000073">
        <ele>739.239</ele>
        <time>2022-08-25T08:52:51Z</time>
      </trkpt>
      <trkpt lat="42.736007000000285" lon="-1.7412910000000072">
        <ele>739.285</ele>
        <time>2022-08-25T08:52:52Z</time>
      </trkpt>
      <trkpt lat="42.73600200000028" lon="-1.7413080000000072">
        <ele>739.467</ele>
        <time>2022-08-25T08:52:53Z</time>
      </trkpt>
      <trkpt lat="42.735998000000286" lon="-1.7413210000000072">
        <ele>739.484</ele>
        <time>2022-08-25T08:52:54Z</time>
      </trkpt>
      <trkpt lat="42.73599500000029" lon="-1.7413240000000072">
        <ele>739.687</ele>
        <time>2022-08-25T08:52:55Z</time>
      </trkpt>
      <trkpt lat="42.73599400000029" lon="-1.7413270000000072">
        <ele>739.643</ele>
        <time>2022-08-25T08:52:56Z</time>
      </trkpt>
      <trkpt lat="42.73599400000029" lon="-1.7413270000000072">
        <ele>739.674</ele>
        <time>2022-08-25T08:52:57Z</time>
      </trkpt>
      <trkpt lat="42.73599400000029" lon="-1.7413270000000072">
        <ele>739.827</ele>
        <time>2022-08-25T08:52:58Z</time>
      </trkpt>
      <trkpt lat="42.73599400000029" lon="-1.7413270000000072">
        <ele>739.868</ele>
        <time>2022-08-25T08:53:00Z</time>
      </trkpt>
      <trkpt lat="42.73599400000029" lon="-1.7413270000000072">
        <ele>740.014</ele>
        <time>2022-08-25T08:53:01Z</time>
      </trkpt>
      <trkpt lat="42.73599400000029" lon="-1.7413270000000072">
        <ele>740.009</ele>
        <time>2022-08-25T08:53:02Z</time>
      </trkpt>
      <trkpt lat="42.73599400000029" lon="-1.7413270000000072">
        <ele>740.033</ele>
        <time>2022-08-25T08:53:03Z</time>
      </trkpt>
      <trkpt lat="42.73599400000029" lon="-1.7413270000000072">
        <ele>740.263</ele>
        <time>2022-08-25T08:53:04Z</time>
      </trkpt>
      <trkpt lat="42.73599400000029" lon="-1.7413270000000072">
        <ele>740.293</ele>
        <time>2022-08-25T08:53:05Z</time>
      </trkpt>
      <trkpt lat="42.73599400000029" lon="-1.7413270000000072">
        <ele>740.279</ele>
        <time>2022-08-25T08:53:06Z</time>
      </trkpt>
      <trkpt lat="42.73599400000029" lon="-1.7413270000000072">
        <ele>740.421</ele>
        <time>2022-08-25T08:53:07Z</time>
      </trkpt>
      <trkpt lat="42.73599400000029" lon="-1.7413270000000072">
        <ele>740.478</ele>
        <time>2022-08-25T08:53:08Z</time>
      </trkpt>
      <trkpt lat="42.73599400000029" lon="-1.7413270000000072">
        <ele>741.051</ele>
        <time>2022-08-25T08:53:12Z</time>
      </trkpt>
      <trkpt lat="42.73599400000029" lon="-1.7413270000000072">
        <ele>741.087</ele>
        <time>2022-08-25T08:53:13Z</time>
      </trkpt>
      <trkpt lat="42.73599400000029" lon="-1.741339000000007">
        <ele>741.468</ele>
        <time>2022-08-25T08:53:16Z</time>
      </trkpt>
      <trkpt lat="42.73597300000029" lon="-1.741437000000007">
        <ele>742.881</ele>
        <time>2022-08-25T08:53:31Z</time>
      </trkpt>
      <trkpt lat="42.735972000000295" lon="-1.741441000000007">
        <ele>742.861</ele>
        <time>2022-08-25T08:53:32Z</time>
      </trkpt>
      <trkpt lat="42.735969000000296" lon="-1.741449000000007">
        <ele>742.817</ele>
        <time>2022-08-25T08:53:33Z</time>
      </trkpt>
      <trkpt lat="42.735969000000296" lon="-1.741449000000007">
        <ele>743.009</ele>
        <time>2022-08-25T08:53:34Z</time>
      </trkpt>
      <trkpt lat="42.735969000000296" lon="-1.741449000000007">
        <ele>743.039</ele>
        <time>2022-08-25T08:53:35Z</time>
      </trkpt>
      <trkpt lat="42.735969000000296" lon="-1.741449000000007">
        <ele>743.099</ele>
        <time>2022-08-25T08:53:36Z</time>
      </trkpt>
      <trkpt lat="42.735969000000296" lon="-1.741449000000007">
        <ele>743.259</ele>
        <time>2022-08-25T08:53:37Z</time>
      </trkpt>
      <trkpt lat="42.735969000000296" lon="-1.741449000000007">
        <ele>743.225</ele>
        <time>2022-08-25T08:53:39Z</time>
      </trkpt>
      <trkpt lat="42.735969000000296" lon="-1.741449000000007">
        <ele>743.237</ele>
        <time>2022-08-25T08:53:40Z</time>
      </trkpt>
      <trkpt lat="42.7359680000003" lon="-1.741457000000007">
        <ele>743.424</ele>
        <time>2022-08-25T08:53:41Z</time>
      </trkpt>
      <trkpt lat="42.7359590000003" lon="-1.7415250000000069">
        <ele>743.447</ele>
        <time>2022-08-25T08:53:44Z</time>
      </trkpt>
      <trkpt lat="42.7359550000003" lon="-1.7415770000000068">
        <ele>743.493</ele>
        <time>2022-08-25T08:53:46Z</time>
      </trkpt>
      <trkpt lat="42.7359550000003" lon="-1.7416210000000067">
        <ele>743.674</ele>
        <time>2022-08-25T08:53:48Z</time>
      </trkpt>
      <trkpt lat="42.7359520000003" lon="-1.7416410000000067">
        <ele>743.845</ele>
        <time>2022-08-25T08:53:49Z</time>
      </trkpt>
      <trkpt lat="42.7359490000003" lon="-1.7416570000000067">
        <ele>743.847</ele>
        <time>2022-08-25T08:53:50Z</time>
      </trkpt>
      <trkpt lat="42.735946000000304" lon="-1.7416670000000067">
        <ele>744.011</ele>
        <time>2022-08-25T08:53:51Z</time>
      </trkpt>
      <trkpt lat="42.7359410000003" lon="-1.7416840000000067">
        <ele>744.009</ele>
        <time>2022-08-25T08:53:52Z</time>
      </trkpt>
      <trkpt lat="42.7359390000003" lon="-1.7416980000000066">
        <ele>744.015</ele>
        <time>2022-08-25T08:53:53Z</time>
      </trkpt>
      <trkpt lat="42.7359350000003" lon="-1.7417050000000067">
        <ele>744.055</ele>
        <time>2022-08-25T08:53:54Z</time>
      </trkpt>
      <trkpt lat="42.735932000000304" lon="-1.7417120000000068">
        <ele>744.245</ele>
        <time>2022-08-25T08:53:55Z</time>
      </trkpt>
      <trkpt lat="42.735926000000305" lon="-1.7417200000000068">
        <ele>744.461</ele>
        <time>2022-08-25T08:53:56Z</time>
      </trkpt>
      <trkpt lat="42.73591900000031" lon="-1.7417360000000068">
        <ele>744.893</ele>
        <time>2022-08-25T08:53:59Z</time>
      </trkpt>
      <trkpt lat="42.73591600000031" lon="-1.7417440000000068">
        <ele>745.090</ele>
        <time>2022-08-25T08:54:00Z</time>
      </trkpt>
      <trkpt lat="42.73591300000031" lon="-1.741759000000007">
        <ele>745.233</ele>
        <time>2022-08-25T08:54:02Z</time>
      </trkpt>
      <trkpt lat="42.73591200000031" lon="-1.741767000000007">
        <ele>745.449</ele>
        <time>2022-08-25T08:54:03Z</time>
      </trkpt>
      <trkpt lat="42.735905000000315" lon="-1.741812000000007">
        <ele>746.050</ele>
        <time>2022-08-25T08:54:10Z</time>
      </trkpt>
      <trkpt lat="42.73590400000032" lon="-1.741817000000007">
        <ele>746.266</ele>
        <time>2022-08-25T08:54:11Z</time>
      </trkpt>
      <trkpt lat="42.73590400000032" lon="-1.741817000000007">
        <ele>746.629</ele>
        <time>2022-08-25T08:54:14Z</time>
      </trkpt>
      <trkpt lat="42.73590400000032" lon="-1.741817000000007">
        <ele>746.821</ele>
        <time>2022-08-25T08:54:15Z</time>
      </trkpt>
      <trkpt lat="42.73590400000032" lon="-1.741817000000007">
        <ele>747.209</ele>
        <time>2022-08-25T08:54:27Z</time>
      </trkpt>
      <trkpt lat="42.73590400000032" lon="-1.741817000000007">
        <ele>748.457</ele>
        <time>2022-08-25T08:54:33Z</time>
      </trkpt>
      <trkpt lat="42.73590400000032" lon="-1.741817000000007">
        <ele>748.647</ele>
        <time>2022-08-25T08:54:35Z</time>
      </trkpt>
      <trkpt lat="42.73590300000032" lon="-1.741828000000007">
        <ele>749.077</ele>
        <time>2022-08-25T08:54:38Z</time>
      </trkpt>
      <trkpt lat="42.73589400000032" lon="-1.741895000000007">
        <ele>749.263</ele>
        <time>2022-08-25T08:54:45Z</time>
      </trkpt>
      <trkpt lat="42.73589100000032" lon="-1.741920000000007">
        <ele>749.285</ele>
        <time>2022-08-25T08:54:46Z</time>
      </trkpt>
      <trkpt lat="42.73588600000032" lon="-1.741946000000007">
        <ele>749.222</ele>
        <time>2022-08-25T08:54:47Z</time>
      </trkpt>
      <trkpt lat="42.73586300000032" lon="-1.7421290000000071">
        <ele>749.685</ele>
        <time>2022-08-25T08:54:54Z</time>
      </trkpt>
      <trkpt lat="42.73586100000032" lon="-1.7421440000000072">
        <ele>749.861</ele>
        <time>2022-08-25T08:54:55Z</time>
      </trkpt>
      <trkpt lat="42.73585900000032" lon="-1.7421600000000073">
        <ele>750.282</ele>
        <time>2022-08-25T08:54:56Z</time>
      </trkpt>
      <trkpt lat="42.735857000000316" lon="-1.7421730000000073">
        <ele>750.275</ele>
        <time>2022-08-25T08:54:57Z</time>
      </trkpt>
      <trkpt lat="42.73585600000032" lon="-1.7421850000000072">
        <ele>750.428</ele>
        <time>2022-08-25T08:54:58Z</time>
      </trkpt>
      <trkpt lat="42.735854000000316" lon="-1.742197000000007">
        <ele>750.620</ele>
        <time>2022-08-25T08:54:59Z</time>
      </trkpt>
      <trkpt lat="42.735854000000316" lon="-1.7422040000000072">
        <ele>750.609</ele>
        <time>2022-08-25T08:55:00Z</time>
      </trkpt>
      <trkpt lat="42.735852000000314" lon="-1.7422190000000073">
        <ele>750.668</ele>
        <time>2022-08-25T08:55:01Z</time>
      </trkpt>
      <trkpt lat="42.735849000000314" lon="-1.7422310000000072">
        <ele>750.858</ele>
        <time>2022-08-25T08:55:02Z</time>
      </trkpt>
      <trkpt lat="42.735846000000315" lon="-1.7422640000000071">
        <ele>751.468</ele>
        <time>2022-08-25T08:55:05Z</time>
      </trkpt>
      <trkpt lat="42.73584700000031" lon="-1.742276000000007">
        <ele>752.084</ele>
        <time>2022-08-25T08:55:06Z</time>
      </trkpt>
      <trkpt lat="42.735846000000315" lon="-1.742288000000007">
        <ele>752.016</ele>
        <time>2022-08-25T08:55:07Z</time>
      </trkpt>
      <trkpt lat="42.735846000000315" lon="-1.7423000000000068">
        <ele>752.413</ele>
        <time>2022-08-25T08:55:08Z</time>
      </trkpt>
      <trkpt lat="42.73584200000032" lon="-1.7423120000000067">
        <ele>752.666</ele>
        <time>2022-08-25T08:55:09Z</time>
      </trkpt>
      <trkpt lat="42.735837000000316" lon="-1.7423260000000067">
        <ele>752.832</ele>
        <time>2022-08-25T08:55:10Z</time>
      </trkpt>
      <trkpt lat="42.73583600000032" lon="-1.7423360000000068">
        <ele>752.833</ele>
        <time>2022-08-25T08:55:11Z</time>
      </trkpt>
      <trkpt lat="42.735837000000316" lon="-1.7423450000000067">
        <ele>753.084</ele>
        <time>2022-08-25T08:55:12Z</time>
      </trkpt>
      <trkpt lat="42.735837000000316" lon="-1.7423600000000068">
        <ele>753.007</ele>
        <time>2022-08-25T08:55:13Z</time>
      </trkpt>
      <trkpt lat="42.735837000000316" lon="-1.7423690000000067">
        <ele>753.017</ele>
        <time>2022-08-25T08:55:14Z</time>
      </trkpt>
      <trkpt lat="42.735837000000316" lon="-1.7423780000000066">
        <ele>753.209</ele>
        <time>2022-08-25T08:55:15Z</time>
      </trkpt>
      <trkpt lat="42.735837000000316" lon="-1.7423860000000067">
        <ele>753.299</ele>
        <time>2022-08-25T08:55:16Z</time>
      </trkpt>
      <trkpt lat="42.735837000000316" lon="-1.7423910000000067">
        <ele>753.229</ele>
        <time>2022-08-25T08:55:17Z</time>
      </trkpt>
      <trkpt lat="42.73583600000032" lon="-1.7423940000000067">
        <ele>753.289</ele>
        <time>2022-08-25T08:55:18Z</time>
      </trkpt>
      <trkpt lat="42.73583400000032" lon="-1.7424000000000066">
        <ele>753.265</ele>
        <time>2022-08-25T08:55:19Z</time>
      </trkpt>
      <trkpt lat="42.735832000000315" lon="-1.7424020000000067">
        <ele>753.277</ele>
        <time>2022-08-25T08:55:20Z</time>
      </trkpt>
      <trkpt lat="42.73583100000032" lon="-1.7424070000000067">
        <ele>753.264</ele>
        <time>2022-08-25T08:55:21Z</time>
      </trkpt>
      <trkpt lat="42.73583100000032" lon="-1.7424120000000067">
        <ele>753.227</ele>
        <time>2022-08-25T08:55:22Z</time>
      </trkpt>
      <trkpt lat="42.735832000000315" lon="-1.7424150000000067">
        <ele>752.833</ele>
        <time>2022-08-25T08:55:59Z</time>
      </trkpt>
      <trkpt lat="42.73582500000032" lon="-1.7424830000000067">
        <ele>752.814</ele>
        <time>2022-08-25T08:56:02Z</time>
      </trkpt>
      <trkpt lat="42.73581300000032" lon="-1.7425210000000066">
        <ele>752.811</ele>
        <time>2022-08-25T08:56:04Z</time>
      </trkpt>
      <trkpt lat="42.73580500000032" lon="-1.7425330000000065">
        <ele>752.621</ele>
        <time>2022-08-25T08:56:05Z</time>
      </trkpt>
      <trkpt lat="42.73580200000032" lon="-1.7425390000000065">
        <ele>752.603</ele>
        <time>2022-08-25T08:56:06Z</time>
      </trkpt>
      <trkpt lat="42.73580800000032" lon="-1.7425570000000066">
        <ele>752.409</ele>
        <time>2022-08-25T08:56:09Z</time>
      </trkpt>
      <trkpt lat="42.735809000000316" lon="-1.7425620000000066">
        <ele>752.462</ele>
        <time>2022-08-25T08:56:10Z</time>
      </trkpt>
      <trkpt lat="42.735837000000316" lon="-1.7425790000000065">
        <ele>752.082</ele>
        <time>2022-08-25T08:56:20Z</time>
      </trkpt>
      <trkpt lat="42.73584200000032" lon="-1.7425960000000065">
        <ele>751.672</ele>
        <time>2022-08-25T08:56:24Z</time>
      </trkpt>
      <trkpt lat="42.73585300000032" lon="-1.7426280000000065">
        <ele>751.628</ele>
        <time>2022-08-25T08:57:58Z</time>
      </trkpt>
      <trkpt lat="42.735809000000316" lon="-1.7426370000000064">
        <ele>750.840</ele>
        <time>2022-08-25T08:58:03Z</time>
      </trkpt>
      <trkpt lat="42.73580200000032" lon="-1.7426350000000064">
        <ele>750.667</ele>
        <time>2022-08-25T08:58:04Z</time>
      </trkpt>
      <trkpt lat="42.73579800000032" lon="-1.7426360000000063">
        <ele>750.460</ele>
        <time>2022-08-25T08:58:05Z</time>
      </trkpt>
      <trkpt lat="42.73579800000032" lon="-1.7426390000000063">
        <ele>750.236</ele>
        <time>2022-08-25T08:58:08Z</time>
      </trkpt>
      <trkpt lat="42.73581000000032" lon="-1.7426400000000062">
        <ele>750.077</ele>
        <time>2022-08-25T08:58:11Z</time>
      </trkpt>
      <trkpt lat="42.73581400000032" lon="-1.7426400000000062">
        <ele>750.247</ele>
        <time>2022-08-25T08:58:12Z</time>
      </trkpt>
      <trkpt lat="42.735812000000315" lon="-1.7426770000000062">
        <ele>749.629</ele>
        <time>2022-08-25T09:01:07Z</time>
      </trkpt>
      <trkpt lat="42.735776000000314" lon="-1.7426870000000063">
        <ele>749.621</ele>
        <time>2022-08-25T09:01:10Z</time>
      </trkpt>
      <trkpt lat="42.73575100000031" lon="-1.7426690000000062">
        <ele>749.609</ele>
        <time>2022-08-25T09:01:13Z</time>
      </trkpt>
      <trkpt lat="42.735742000000315" lon="-1.7426610000000062">
        <ele>749.665</ele>
        <time>2022-08-25T09:01:14Z</time>
      </trkpt>
      <trkpt lat="42.73573700000031" lon="-1.7426530000000062">
        <ele>749.675</ele>
        <time>2022-08-25T09:01:15Z</time>
      </trkpt>
      <trkpt lat="42.735730000000316" lon="-1.7426440000000063">
        <ele>749.445</ele>
        <time>2022-08-25T09:01:16Z</time>
      </trkpt>
      <trkpt lat="42.735725000000315" lon="-1.7426390000000063">
        <ele>749.451</ele>
        <time>2022-08-25T09:01:17Z</time>
      </trkpt>
      <trkpt lat="42.73570600000031" lon="-1.7426400000000062">
        <ele>749.413</ele>
        <time>2022-08-25T09:01:19Z</time>
      </trkpt>
      <trkpt lat="42.735686000000314" lon="-1.7426810000000061">
        <ele>748.880</ele>
        <time>2022-08-25T09:01:36Z</time>
      </trkpt>
      <trkpt lat="42.735702000000316" lon="-1.742733000000006">
        <ele>748.823</ele>
        <time>2022-08-25T09:01:38Z</time>
      </trkpt>
      <trkpt lat="42.735742000000315" lon="-1.742969000000006">
        <ele>749.279</ele>
        <time>2022-08-25T09:01:44Z</time>
      </trkpt>
      <trkpt lat="42.73579100000031" lon="-1.743299000000006">
        <ele>748.850</ele>
        <time>2022-08-25T09:01:51Z</time>
      </trkpt>
      <trkpt lat="42.73579800000031" lon="-1.7433670000000059">
        <ele>748.662</ele>
        <time>2022-08-25T09:01:52Z</time>
      </trkpt>
      <trkpt lat="42.73580700000031" lon="-1.7434790000000058">
        <ele>748.483</ele>
        <time>2022-08-25T09:01:54Z</time>
      </trkpt>
      <trkpt lat="42.735842000000304" lon="-1.7436360000000057">
        <ele>748.011</ele>
        <time>2022-08-25T09:01:57Z</time>
      </trkpt>
      <trkpt lat="42.7358590000003" lon="-1.7437010000000057">
        <ele>747.809</ele>
        <time>2022-08-25T09:01:58Z</time>
      </trkpt>
      <trkpt lat="42.7358790000003" lon="-1.7438010000000057">
        <ele>747.637</ele>
        <time>2022-08-25T09:02:00Z</time>
      </trkpt>
      <trkpt lat="42.735915000000304" lon="-1.7441010000000057">
        <ele>746.857</ele>
        <time>2022-08-25T09:02:05Z</time>
      </trkpt>
      <trkpt lat="42.73592800000031" lon="-1.7442400000000056">
        <ele>746.617</ele>
        <time>2022-08-25T09:02:07Z</time>
      </trkpt>
      <trkpt lat="42.73598700000031" lon="-1.7446170000000056">
        <ele>746.013</ele>
        <time>2022-08-25T09:02:13Z</time>
      </trkpt>
      <trkpt lat="42.73599500000031" lon="-1.7447500000000056">
        <ele>745.485</ele>
        <time>2022-08-25T09:02:15Z</time>
      </trkpt>
      <trkpt lat="42.73603500000031" lon="-1.7450420000000055">
        <ele>745.052</ele>
        <time>2022-08-25T09:02:19Z</time>
      </trkpt>
      <trkpt lat="42.73609000000031" lon="-1.7454090000000055">
        <ele>744.655</ele>
        <time>2022-08-25T09:02:24Z</time>
      </trkpt>
      <trkpt lat="42.73613000000031" lon="-1.7458020000000056">
        <ele>743.851</ele>
        <time>2022-08-25T09:02:29Z</time>
      </trkpt>
      <trkpt lat="42.73614100000031" lon="-1.7458800000000056">
        <ele>743.422</ele>
        <time>2022-08-25T09:02:30Z</time>
      </trkpt>
      <trkpt lat="42.73616500000031" lon="-1.7463730000000057">
        <ele>741.853</ele>
        <time>2022-08-25T09:02:36Z</time>
      </trkpt>
      <trkpt lat="42.73616600000031" lon="-1.7464430000000057">
        <ele>741.604</ele>
        <time>2022-08-25T09:02:37Z</time>
      </trkpt>
      <trkpt lat="42.73616300000031" lon="-1.7471130000000057">
        <ele>740.814</ele>
        <time>2022-08-25T09:02:44Z</time>
      </trkpt>
      <trkpt lat="42.73622300000031" lon="-1.7477350000000056">
        <ele>739.609</ele>
        <time>2022-08-25T09:02:50Z</time>
      </trkpt>
      <trkpt lat="42.73636700000031" lon="-1.7482580000000056">
        <ele>738.466</ele>
        <time>2022-08-25T09:02:55Z</time>
      </trkpt>
      <trkpt lat="42.73643900000031" lon="-1.7484300000000057">
        <ele>737.496</ele>
        <time>2022-08-25T09:02:57Z</time>
      </trkpt>
      <trkpt lat="42.73661500000031" lon="-1.7488040000000058">
        <ele>736.426</ele>
        <time>2022-08-25T09:03:01Z</time>
      </trkpt>
      <trkpt lat="42.73665800000031" lon="-1.7488980000000058">
        <ele>736.022</ele>
        <time>2022-08-25T09:03:02Z</time>
      </trkpt>
      <trkpt lat="42.73670900000031" lon="-1.749008000000006">
        <ele>736.084</ele>
        <time>2022-08-25T09:03:03Z</time>
      </trkpt>
      <trkpt lat="42.73675300000031" lon="-1.749099000000006">
        <ele>735.861</ele>
        <time>2022-08-25T09:03:04Z</time>
      </trkpt>
      <trkpt lat="42.73686900000031" lon="-1.749356000000006">
        <ele>735.274</ele>
        <time>2022-08-25T09:03:07Z</time>
      </trkpt>
      <trkpt lat="42.73692000000031" lon="-1.749463000000006">
        <ele>734.820</ele>
        <time>2022-08-25T09:03:08Z</time>
      </trkpt>
      <trkpt lat="42.73703500000031" lon="-1.749713000000006">
        <ele>734.631</ele>
        <time>2022-08-25T09:03:11Z</time>
      </trkpt>
      <trkpt lat="42.73712200000031" lon="-1.749910000000006">
        <ele>734.296</ele>
        <time>2022-08-25T09:03:13Z</time>
      </trkpt>
      <trkpt lat="42.73715900000031" lon="-1.749999000000006">
        <ele>734.231</ele>
        <time>2022-08-25T09:03:14Z</time>
      </trkpt>
      <trkpt lat="42.73718800000031" lon="-1.750070000000006">
        <ele>733.824</ele>
        <time>2022-08-25T09:03:15Z</time>
      </trkpt>
      <trkpt lat="42.73722200000031" lon="-1.750157000000006">
        <ele>733.609</ele>
        <time>2022-08-25T09:03:16Z</time>
      </trkpt>
      <trkpt lat="42.73726200000031" lon="-1.750260000000006">
        <ele>733.440</ele>
        <time>2022-08-25T09:03:17Z</time>
      </trkpt>
      <trkpt lat="42.73729200000031" lon="-1.750343000000006">
        <ele>733.480</ele>
        <time>2022-08-25T09:03:18Z</time>
      </trkpt>
      <trkpt lat="42.73732200000031" lon="-1.750427000000006">
        <ele>733.410</ele>
        <time>2022-08-25T09:03:19Z</time>
      </trkpt>
      <trkpt lat="42.737346000000315" lon="-1.750492000000006">
        <ele>733.426</ele>
        <time>2022-08-25T09:03:20Z</time>
      </trkpt>
      <trkpt lat="42.737374000000315" lon="-1.7505740000000058">
        <ele>733.468</ele>
        <time>2022-08-25T09:03:21Z</time>
      </trkpt>
      <trkpt lat="42.73740600000031" lon="-1.7506720000000058">
        <ele>733.285</ele>
        <time>2022-08-25T09:03:22Z</time>
      </trkpt>
      <trkpt lat="42.737428000000314" lon="-1.7507560000000058">
        <ele>733.258</ele>
        <time>2022-08-25T09:03:23Z</time>
      </trkpt>
      <trkpt lat="42.737450000000315" lon="-1.7508390000000058">
        <ele>733.284</ele>
        <time>2022-08-25T09:03:24Z</time>
      </trkpt>
      <trkpt lat="42.73748800000032" lon="-1.7509920000000059">
        <ele>733.255</ele>
        <time>2022-08-25T09:03:26Z</time>
      </trkpt>
      <trkpt lat="42.737540000000315" lon="-1.7512540000000059">
        <ele>733.028</ele>
        <time>2022-08-25T09:03:29Z</time>
      </trkpt>
      <trkpt lat="42.73755900000032" lon="-1.7513390000000058">
        <ele>732.889</ele>
        <time>2022-08-25T09:03:30Z</time>
      </trkpt>
      <trkpt lat="42.73758600000032" lon="-1.7515300000000058">
        <ele>732.617</ele>
        <time>2022-08-25T09:03:32Z</time>
      </trkpt>
      <trkpt lat="42.73760100000032" lon="-1.7516110000000058">
        <ele>732.409</ele>
        <time>2022-08-25T09:03:33Z</time>
      </trkpt>
      <trkpt lat="42.73761200000032" lon="-1.751672000000006">
        <ele>732.443</ele>
        <time>2022-08-25T09:03:34Z</time>
      </trkpt>
      <trkpt lat="42.73762200000032" lon="-1.7517480000000059">
        <ele>732.473</ele>
        <time>2022-08-25T09:03:35Z</time>
      </trkpt>
      <trkpt lat="42.73764300000032" lon="-1.751836000000006">
        <ele>732.433</ele>
        <time>2022-08-25T09:03:36Z</time>
      </trkpt>
      <trkpt lat="42.737661000000315" lon="-1.7519070000000059">
        <ele>732.449</ele>
        <time>2022-08-25T09:03:37Z</time>
      </trkpt>
      <trkpt lat="42.737715000000314" lon="-1.752106000000006">
        <ele>732.481</ele>
        <time>2022-08-25T09:03:40Z</time>
      </trkpt>
      <trkpt lat="42.73773600000031" lon="-1.752189000000006">
        <ele>732.428</ele>
        <time>2022-08-25T09:03:41Z</time>
      </trkpt>
      <trkpt lat="42.73775500000031" lon="-1.752255000000006">
        <ele>732.241</ele>
        <time>2022-08-25T09:03:42Z</time>
      </trkpt>
      <trkpt lat="42.737774000000314" lon="-1.752316000000006">
        <ele>732.287</ele>
        <time>2022-08-25T09:03:43Z</time>
      </trkpt>
      <trkpt lat="42.73778600000031" lon="-1.752364000000006">
        <ele>732.218</ele>
        <time>2022-08-25T09:03:44Z</time>
      </trkpt>
      <trkpt lat="42.73780100000031" lon="-1.752421000000006">
        <ele>732.236</ele>
        <time>2022-08-25T09:03:45Z</time>
      </trkpt>
      <trkpt lat="42.73781900000031" lon="-1.752491000000006">
        <ele>732.217</ele>
        <time>2022-08-25T09:03:46Z</time>
      </trkpt>
      <trkpt lat="42.737845000000306" lon="-1.752611000000006">
        <ele>732.018</ele>
        <time>2022-08-25T09:03:48Z</time>
      </trkpt>
      <trkpt lat="42.73785500000031" lon="-1.7526550000000058">
        <ele>731.809</ele>
        <time>2022-08-25T09:03:49Z</time>
      </trkpt>
      <trkpt lat="42.73786800000031" lon="-1.7527120000000058">
        <ele>731.814</ele>
        <time>2022-08-25T09:03:50Z</time>
      </trkpt>
      <trkpt lat="42.73789900000031" lon="-1.7528390000000058">
        <ele>731.884</ele>
        <time>2022-08-25T09:03:52Z</time>
      </trkpt>
      <trkpt lat="42.737968000000315" lon="-1.7531440000000058">
        <ele>731.014</ele>
        <time>2022-08-25T09:03:57Z</time>
      </trkpt>
      <trkpt lat="42.73798000000031" lon="-1.7531950000000058">
        <ele>730.480</ele>
        <time>2022-08-25T09:03:58Z</time>
      </trkpt>
      <trkpt lat="42.73801100000031" lon="-1.7533440000000058">
        <ele>729.482</ele>
        <time>2022-08-25T09:04:00Z</time>
      </trkpt>
      <trkpt lat="42.738041000000315" lon="-1.7534850000000057">
        <ele>728.039</ele>
        <time>2022-08-25T09:04:02Z</time>
      </trkpt>
      <trkpt lat="42.738075000000315" lon="-1.7536080000000058">
        <ele>726.852</ele>
        <time>2022-08-25T09:04:04Z</time>
      </trkpt>
      <trkpt lat="42.73815000000032" lon="-1.7539080000000058">
        <ele>725.658</ele>
        <time>2022-08-25T09:04:08Z</time>
      </trkpt>
      <trkpt lat="42.738199000000314" lon="-1.7540940000000058">
        <ele>724.849</ele>
        <time>2022-08-25T09:04:10Z</time>
      </trkpt>
      <trkpt lat="42.738244000000314" lon="-1.7542560000000058">
        <ele>724.216</ele>
        <time>2022-08-25T09:04:12Z</time>
      </trkpt>
      <trkpt lat="42.73831900000032" lon="-1.7545700000000057">
        <ele>723.276</ele>
        <time>2022-08-25T09:04:15Z</time>
      </trkpt>
      <trkpt lat="42.738339000000316" lon="-1.7546760000000057">
        <ele>723.013</ele>
        <time>2022-08-25T09:04:16Z</time>
      </trkpt>
      <trkpt lat="42.73840200000031" lon="-1.7549900000000056">
        <ele>722.209</ele>
        <time>2022-08-25T09:04:19Z</time>
      </trkpt>
      <trkpt lat="42.73842500000031" lon="-1.7550850000000056">
        <ele>721.852</ele>
        <time>2022-08-25T09:04:20Z</time>
      </trkpt>
      <trkpt lat="42.738444000000314" lon="-1.7551590000000055">
        <ele>721.052</ele>
        <time>2022-08-25T09:04:21Z</time>
      </trkpt>
      <trkpt lat="42.73846700000031" lon="-1.7552510000000054">
        <ele>720.272</ele>
        <time>2022-08-25T09:04:22Z</time>
      </trkpt>
      <trkpt lat="42.738491000000316" lon="-1.7553580000000055">
        <ele>719.888</ele>
        <time>2022-08-25T09:04:23Z</time>
      </trkpt>
      <trkpt lat="42.738511000000315" lon="-1.7554420000000055">
        <ele>719.260</ele>
        <time>2022-08-25T09:04:24Z</time>
      </trkpt>
      <trkpt lat="42.73854700000032" lon="-1.7555980000000055">
        <ele>717.827</ele>
        <time>2022-08-25T09:04:26Z</time>
      </trkpt>
      <trkpt lat="42.73859200000032" lon="-1.7558020000000056">
        <ele>716.660</ele>
        <time>2022-08-25T09:04:28Z</time>
      </trkpt>
      <trkpt lat="42.73865600000032" lon="-1.7560830000000056">
        <ele>714.896</ele>
        <time>2022-08-25T09:04:31Z</time>
      </trkpt>
      <trkpt lat="42.73873500000032" lon="-1.7564180000000056">
        <ele>713.447</ele>
        <time>2022-08-25T09:04:34Z</time>
      </trkpt>
      <trkpt lat="42.73875800000032" lon="-1.7565270000000055">
        <ele>713.247</ele>
        <time>2022-08-25T09:04:35Z</time>
      </trkpt>
      <trkpt lat="42.73882700000032" lon="-1.7568360000000054">
        <ele>712.029</ele>
        <time>2022-08-25T09:04:38Z</time>
      </trkpt>
      <trkpt lat="42.73887100000032" lon="-1.7570680000000054">
        <ele>710.821</ele>
        <time>2022-08-25T09:04:40Z</time>
      </trkpt>
      <trkpt lat="42.73889700000032" lon="-1.7571820000000054">
        <ele>710.409</ele>
        <time>2022-08-25T09:04:41Z</time>
      </trkpt>
      <trkpt lat="42.73892500000032" lon="-1.7573200000000053">
        <ele>709.865</ele>
        <time>2022-08-25T09:04:42Z</time>
      </trkpt>
      <trkpt lat="42.73897500000032" lon="-1.7575510000000054">
        <ele>708.615</ele>
        <time>2022-08-25T09:04:44Z</time>
      </trkpt>
      <trkpt lat="42.739022000000325" lon="-1.7577580000000055">
        <ele>707.475</ele>
        <time>2022-08-25T09:04:46Z</time>
      </trkpt>
      <trkpt lat="42.739084000000325" lon="-1.7580060000000055">
        <ele>706.031</ele>
        <time>2022-08-25T09:04:48Z</time>
      </trkpt>
      <trkpt lat="42.73911100000033" lon="-1.7581170000000055">
        <ele>705.673</ele>
        <time>2022-08-25T09:04:49Z</time>
      </trkpt>
      <trkpt lat="42.73913100000033" lon="-1.7582060000000055">
        <ele>705.230</ele>
        <time>2022-08-25T09:04:50Z</time>
      </trkpt>
      <trkpt lat="42.73918600000033" lon="-1.7584520000000055">
        <ele>704.423</ele>
        <time>2022-08-25T09:04:52Z</time>
      </trkpt>
      <trkpt lat="42.73927000000033" lon="-1.7587730000000055">
        <ele>702.659</ele>
        <time>2022-08-25T09:04:55Z</time>
      </trkpt>
      <trkpt lat="42.73936700000033" lon="-1.7591490000000054">
        <ele>701.280</ele>
        <time>2022-08-25T09:04:58Z</time>
      </trkpt>
      <trkpt lat="42.739458000000326" lon="-1.7595040000000055">
        <ele>700.268</ele>
        <time>2022-08-25T09:05:01Z</time>
      </trkpt>
      <trkpt lat="42.73948200000033" lon="-1.7595950000000056">
        <ele>699.842</ele>
        <time>2022-08-25T09:05:02Z</time>
      </trkpt>
      <trkpt lat="42.73951800000033" lon="-1.7597330000000055">
        <ele>699.626</ele>
        <time>2022-08-25T09:05:03Z</time>
      </trkpt>
      <trkpt lat="42.739542000000334" lon="-1.7598240000000056">
        <ele>698.809</ele>
        <time>2022-08-25T09:05:04Z</time>
      </trkpt>
      <trkpt lat="42.73957200000034" lon="-1.7599390000000057">
        <ele>698.417</ele>
        <time>2022-08-25T09:05:05Z</time>
      </trkpt>
      <trkpt lat="42.739606000000336" lon="-1.7600770000000057">
        <ele>698.087</ele>
        <time>2022-08-25T09:05:06Z</time>
      </trkpt>
      <trkpt lat="42.73962700000033" lon="-1.7601690000000056">
        <ele>697.837</ele>
        <time>2022-08-25T09:05:07Z</time>
      </trkpt>
      <trkpt lat="42.73965800000033" lon="-1.7603030000000057">
        <ele>697.423</ele>
        <time>2022-08-25T09:05:08Z</time>
      </trkpt>
      <trkpt lat="42.739680000000334" lon="-1.7603900000000057">
        <ele>697.025</ele>
        <time>2022-08-25T09:05:09Z</time>
      </trkpt>
      <trkpt lat="42.73970700000034" lon="-1.7604960000000056">
        <ele>696.672</ele>
        <time>2022-08-25T09:05:10Z</time>
      </trkpt>
      <trkpt lat="42.73973800000034" lon="-1.7606230000000056">
        <ele>695.825</ele>
        <time>2022-08-25T09:05:11Z</time>
      </trkpt>
      <trkpt lat="42.739761000000335" lon="-1.7607310000000056">
        <ele>695.661</ele>
        <time>2022-08-25T09:05:12Z</time>
      </trkpt>
      <trkpt lat="42.73978500000034" lon="-1.7608370000000055">
        <ele>695.242</ele>
        <time>2022-08-25T09:05:13Z</time>
      </trkpt>
      <trkpt lat="42.73980500000034" lon="-1.7609210000000055">
        <ele>695.045</ele>
        <time>2022-08-25T09:05:14Z</time>
      </trkpt>
      <trkpt lat="42.73983300000034" lon="-1.7610240000000055">
        <ele>694.447</ele>
        <time>2022-08-25T09:05:15Z</time>
      </trkpt>
      <trkpt lat="42.739865000000336" lon="-1.7611480000000055">
        <ele>693.811</ele>
        <time>2022-08-25T09:05:16Z</time>
      </trkpt>
      <trkpt lat="42.73988900000034" lon="-1.7612480000000055">
        <ele>693.609</ele>
        <time>2022-08-25T09:05:17Z</time>
      </trkpt>
      <trkpt lat="42.73991200000034" lon="-1.7613480000000055">
        <ele>692.655</ele>
        <time>2022-08-25T09:05:18Z</time>
      </trkpt>
      <trkpt lat="42.73998500000034" lon="-1.7616570000000054">
        <ele>691.435</ele>
        <time>2022-08-25T09:05:21Z</time>
      </trkpt>
      <trkpt lat="42.740037000000335" lon="-1.7618410000000053">
        <ele>690.485</ele>
        <time>2022-08-25T09:05:23Z</time>
      </trkpt>
      <trkpt lat="42.74012800000033" lon="-1.7621730000000053">
        <ele>689.251</ele>
        <time>2022-08-25T09:05:26Z</time>
      </trkpt>
      <trkpt lat="42.74017300000033" lon="-1.7623670000000053">
        <ele>688.243</ele>
        <time>2022-08-25T09:05:28Z</time>
      </trkpt>
      <trkpt lat="42.74019900000033" lon="-1.7624740000000054">
        <ele>687.880</ele>
        <time>2022-08-25T09:05:29Z</time>
      </trkpt>
      <trkpt lat="42.74022900000033" lon="-1.7626060000000054">
        <ele>687.453</ele>
        <time>2022-08-25T09:05:30Z</time>
      </trkpt>
      <trkpt lat="42.74028000000033" lon="-1.7628300000000054">
        <ele>686.879</ele>
        <time>2022-08-25T09:05:32Z</time>
      </trkpt>
      <trkpt lat="42.74030100000033" lon="-1.7629180000000055">
        <ele>686.860</ele>
        <time>2022-08-25T09:05:33Z</time>
      </trkpt>
      <trkpt lat="42.74032400000033" lon="-1.7630260000000055">
        <ele>686.065</ele>
        <time>2022-08-25T09:05:34Z</time>
      </trkpt>
      <trkpt lat="42.74034800000033" lon="-1.7631560000000055">
        <ele>685.468</ele>
        <time>2022-08-25T09:05:35Z</time>
      </trkpt>
      <trkpt lat="42.740389000000334" lon="-1.7634600000000056">
        <ele>684.414</ele>
        <time>2022-08-25T09:05:38Z</time>
      </trkpt>
      <trkpt lat="42.740397000000335" lon="-1.7637090000000055">
        <ele>683.209</ele>
        <time>2022-08-25T09:05:40Z</time>
      </trkpt>
      <trkpt lat="42.740394000000336" lon="-1.7638220000000056">
        <ele>682.287</ele>
        <time>2022-08-25T09:05:41Z</time>
      </trkpt>
      <trkpt lat="42.74038700000034" lon="-1.7639100000000056">
        <ele>681.427</ele>
        <time>2022-08-25T09:05:42Z</time>
      </trkpt>
      <trkpt lat="42.74038000000034" lon="-1.7640110000000055">
        <ele>681.267</ele>
        <time>2022-08-25T09:05:43Z</time>
      </trkpt>
      <trkpt lat="42.740374000000344" lon="-1.7641050000000056">
        <ele>680.463</ele>
        <time>2022-08-25T09:05:44Z</time>
      </trkpt>
      <trkpt lat="42.740368000000345" lon="-1.7642110000000055">
        <ele>680.075</ele>
        <time>2022-08-25T09:05:45Z</time>
      </trkpt>
      <trkpt lat="42.74036100000035" lon="-1.7642850000000054">
        <ele>679.442</ele>
        <time>2022-08-25T09:05:46Z</time>
      </trkpt>
      <trkpt lat="42.74035300000035" lon="-1.7643410000000055">
        <ele>679.035</ele>
        <time>2022-08-25T09:05:47Z</time>
      </trkpt>
      <trkpt lat="42.740348000000346" lon="-1.7644070000000054">
        <ele>677.611</ele>
        <time>2022-08-25T09:05:48Z</time>
      </trkpt>
      <trkpt lat="42.740345000000346" lon="-1.7644780000000053">
        <ele>676.282</ele>
        <time>2022-08-25T09:05:49Z</time>
      </trkpt>
      <trkpt lat="42.74034400000035" lon="-1.7645170000000052">
        <ele>675.875</ele>
        <time>2022-08-25T09:05:50Z</time>
      </trkpt>
      <trkpt lat="42.74034600000035" lon="-1.7645710000000052">
        <ele>675.228</ele>
        <time>2022-08-25T09:05:51Z</time>
      </trkpt>
      <trkpt lat="42.74034900000035" lon="-1.7646050000000053">
        <ele>675.020</ele>
        <time>2022-08-25T09:05:52Z</time>
      </trkpt>
      <trkpt lat="42.74034900000035" lon="-1.7646420000000054">
        <ele>674.609</ele>
        <time>2022-08-25T09:05:53Z</time>
      </trkpt>
      <trkpt lat="42.74034600000035" lon="-1.7646680000000055">
        <ele>674.458</ele>
        <time>2022-08-25T09:05:54Z</time>
      </trkpt>
      <trkpt lat="42.74034100000035" lon="-1.7646940000000055">
        <ele>673.698</ele>
        <time>2022-08-25T09:05:55Z</time>
      </trkpt>
      <trkpt lat="42.74033800000035" lon="-1.7647010000000056">
        <ele>673.098</ele>
        <time>2022-08-25T09:05:56Z</time>
      </trkpt>
      <trkpt lat="42.74033100000035" lon="-1.7647040000000056">
        <ele>672.884</ele>
        <time>2022-08-25T09:05:57Z</time>
      </trkpt>
      <trkpt lat="42.74032300000035" lon="-1.7647040000000056">
        <ele>672.056</ele>
        <time>2022-08-25T09:05:58Z</time>
      </trkpt>
      <trkpt lat="42.74031000000035" lon="-1.7646940000000055">
        <ele>671.873</ele>
        <time>2022-08-25T09:05:59Z</time>
      </trkpt>
      <trkpt lat="42.74029400000035" lon="-1.7646860000000055">
        <ele>671.446</ele>
        <time>2022-08-25T09:06:00Z</time>
      </trkpt>
      <trkpt lat="42.74027600000035" lon="-1.7646940000000055">
        <ele>671.462</ele>
        <time>2022-08-25T09:06:01Z</time>
      </trkpt>
      <trkpt lat="42.74026200000035" lon="-1.7647120000000056">
        <ele>671.243</ele>
        <time>2022-08-25T09:06:02Z</time>
      </trkpt>
      <trkpt lat="42.74024100000035" lon="-1.7647440000000056">
        <ele>671.023</ele>
        <time>2022-08-25T09:06:03Z</time>
      </trkpt>
      <trkpt lat="42.740212000000355" lon="-1.7647870000000057">
        <ele>670.883</ele>
        <time>2022-08-25T09:06:04Z</time>
      </trkpt>
      <trkpt lat="42.74017900000035" lon="-1.7648190000000057">
        <ele>670.611</ele>
        <time>2022-08-25T09:06:05Z</time>
      </trkpt>
      <trkpt lat="42.740144000000356" lon="-1.7648390000000056">
        <ele>670.409</ele>
        <time>2022-08-25T09:06:06Z</time>
      </trkpt>
      <trkpt lat="42.740099000000356" lon="-1.7648590000000055">
        <ele>670.023</ele>
        <time>2022-08-25T09:06:07Z</time>
      </trkpt>
      <trkpt lat="42.74004400000035" lon="-1.7648730000000055">
        <ele>669.623</ele>
        <time>2022-08-25T09:06:08Z</time>
      </trkpt>
      <trkpt lat="42.73999600000035" lon="-1.7648800000000056">
        <ele>669.023</ele>
        <time>2022-08-25T09:06:09Z</time>
      </trkpt>
      <trkpt lat="42.739945000000354" lon="-1.7648820000000056">
        <ele>668.269</ele>
        <time>2022-08-25T09:06:10Z</time>
      </trkpt>
      <trkpt lat="42.73990900000035" lon="-1.7648800000000056">
        <ele>668.031</ele>
        <time>2022-08-25T09:06:11Z</time>
      </trkpt>
      <trkpt lat="42.739810000000354" lon="-1.7648780000000055">
        <ele>666.818</ele>
        <time>2022-08-25T09:06:13Z</time>
      </trkpt>
      <trkpt lat="42.739765000000354" lon="-1.7648780000000055">
        <ele>665.461</ele>
        <time>2022-08-25T09:06:14Z</time>
      </trkpt>
      <trkpt lat="42.73973000000036" lon="-1.7648780000000055">
        <ele>665.027</ele>
        <time>2022-08-25T09:06:15Z</time>
      </trkpt>
      <trkpt lat="42.739641000000354" lon="-1.7648790000000054">
        <ele>664.088</ele>
        <time>2022-08-25T09:06:17Z</time>
      </trkpt>
      <trkpt lat="42.739599000000354" lon="-1.7648770000000054">
        <ele>663.442</ele>
        <time>2022-08-25T09:06:18Z</time>
      </trkpt>
      <trkpt lat="42.739551000000354" lon="-1.7648780000000053">
        <ele>662.022</ele>
        <time>2022-08-25T09:06:19Z</time>
      </trkpt>
      <trkpt lat="42.739508000000356" lon="-1.7648830000000053">
        <ele>661.614</ele>
        <time>2022-08-25T09:06:20Z</time>
      </trkpt>
      <trkpt lat="42.739472000000355" lon="-1.7648900000000054">
        <ele>660.609</ele>
        <time>2022-08-25T09:06:21Z</time>
      </trkpt>
      <trkpt lat="42.73943300000035" lon="-1.7648940000000053">
        <ele>660.285</ele>
        <time>2022-08-25T09:06:22Z</time>
      </trkpt>
      <trkpt lat="42.73939500000035" lon="-1.7648970000000053">
        <ele>659.635</ele>
        <time>2022-08-25T09:06:23Z</time>
      </trkpt>
      <trkpt lat="42.739357000000346" lon="-1.7649040000000054">
        <ele>659.035</ele>
        <time>2022-08-25T09:06:24Z</time>
      </trkpt>
      <trkpt lat="42.73933900000035" lon="-1.7649100000000053">
        <ele>658.671</ele>
        <time>2022-08-25T09:06:25Z</time>
      </trkpt>
      <trkpt lat="42.73932000000035" lon="-1.7649150000000053">
        <ele>658.053</ele>
        <time>2022-08-25T09:06:26Z</time>
      </trkpt>
      <trkpt lat="42.73930000000035" lon="-1.7649220000000054">
        <ele>657.680</ele>
        <time>2022-08-25T09:06:27Z</time>
      </trkpt>
      <trkpt lat="42.73928600000035" lon="-1.7649250000000054">
        <ele>657.233</ele>
        <time>2022-08-25T09:06:28Z</time>
      </trkpt>
      <trkpt lat="42.73926400000035" lon="-1.7649370000000053">
        <ele>656.829</ele>
        <time>2022-08-25T09:06:29Z</time>
      </trkpt>
      <trkpt lat="42.739220000000344" lon="-1.7649800000000053">
        <ele>655.820</ele>
        <time>2022-08-25T09:06:31Z</time>
      </trkpt>
      <trkpt lat="42.739180000000346" lon="-1.7650080000000052">
        <ele>655.684</ele>
        <time>2022-08-25T09:06:32Z</time>
      </trkpt>
      <trkpt lat="42.73913400000035" lon="-1.7650300000000052">
        <ele>655.407</ele>
        <time>2022-08-25T09:06:33Z</time>
      </trkpt>
      <trkpt lat="42.73908500000035" lon="-1.7650390000000051">
        <ele>655.217</ele>
        <time>2022-08-25T09:06:34Z</time>
      </trkpt>
      <trkpt lat="42.73903500000035" lon="-1.7650390000000051">
        <ele>655.209</ele>
        <time>2022-08-25T09:06:35Z</time>
      </trkpt>
      <trkpt lat="42.73898400000035" lon="-1.765032000000005">
        <ele>655.099</ele>
        <time>2022-08-25T09:06:36Z</time>
      </trkpt>
      <trkpt lat="42.73893400000035" lon="-1.7650230000000051">
        <ele>654.619</ele>
        <time>2022-08-25T09:06:37Z</time>
      </trkpt>
      <trkpt lat="42.738879000000345" lon="-1.7650140000000052">
        <ele>654.069</ele>
        <time>2022-08-25T09:06:38Z</time>
      </trkpt>
      <trkpt lat="42.73863800000034" lon="-1.764964000000005">
        <ele>652.845</ele>
        <time>2022-08-25T09:06:42Z</time>
      </trkpt>
      <trkpt lat="42.738575000000345" lon="-1.7649500000000051">
        <ele>652.447</ele>
        <time>2022-08-25T09:06:43Z</time>
      </trkpt>
      <trkpt lat="42.738449000000344" lon="-1.7649170000000052">
        <ele>651.224</ele>
        <time>2022-08-25T09:06:45Z</time>
      </trkpt>
      <trkpt lat="42.73825900000034" lon="-1.7648510000000053">
        <ele>650.037</ele>
        <time>2022-08-25T09:06:48Z</time>
      </trkpt>
      <trkpt lat="42.73810600000034" lon="-1.7647880000000054">
        <ele>648.663</ele>
        <time>2022-08-25T09:06:50Z</time>
      </trkpt>
      <trkpt lat="42.737810000000344" lon="-1.7646180000000053">
        <ele>647.074</ele>
        <time>2022-08-25T09:06:54Z</time>
      </trkpt>
      <trkpt lat="42.737672000000344" lon="-1.7645220000000053">
        <ele>646.047</ele>
        <time>2022-08-25T09:06:56Z</time>
      </trkpt>
      <trkpt lat="42.737576000000345" lon="-1.7644530000000052">
        <ele>645.429</ele>
        <time>2022-08-25T09:06:57Z</time>
      </trkpt>
      <trkpt lat="42.73741200000035" lon="-1.7643330000000053">
        <ele>644.221</ele>
        <time>2022-08-25T09:06:59Z</time>
      </trkpt>
      <trkpt lat="42.737244000000345" lon="-1.7642200000000052">
        <ele>643.209</ele>
        <time>2022-08-25T09:07:01Z</time>
      </trkpt>
      <trkpt lat="42.73707100000035" lon="-1.7641130000000051">
        <ele>641.625</ele>
        <time>2022-08-25T09:07:03Z</time>
      </trkpt>
      <trkpt lat="42.73688800000035" lon="-1.7640230000000052">
        <ele>640.235</ele>
        <time>2022-08-25T09:07:05Z</time>
      </trkpt>
      <trkpt lat="42.73681400000035" lon="-1.7639920000000053">
        <ele>638.895</ele>
        <time>2022-08-25T09:07:06Z</time>
      </trkpt>
      <trkpt lat="42.736610000000354" lon="-1.7639170000000053">
        <ele>636.831</ele>
        <time>2022-08-25T09:07:08Z</time>
      </trkpt>
      <trkpt lat="42.73651500000035" lon="-1.7638870000000053">
        <ele>636.253</ele>
        <time>2022-08-25T09:07:09Z</time>
      </trkpt>
      <trkpt lat="42.73643900000035" lon="-1.7638630000000053">
        <ele>635.290</ele>
        <time>2022-08-25T09:07:10Z</time>
      </trkpt>
      <trkpt lat="42.736233000000354" lon="-1.7637980000000053">
        <ele>633.843</ele>
        <time>2022-08-25T09:07:12Z</time>
      </trkpt>
      <trkpt lat="42.73613900000036" lon="-1.7637690000000052">
        <ele>632.829</ele>
        <time>2022-08-25T09:07:13Z</time>
      </trkpt>
      <trkpt lat="42.73596300000035" lon="-1.7637160000000052">
        <ele>631.060</ele>
        <time>2022-08-25T09:07:15Z</time>
      </trkpt>
      <trkpt lat="42.735734000000356" lon="-1.7636510000000052">
        <ele>629.266</ele>
        <time>2022-08-25T09:07:17Z</time>
      </trkpt>
      <trkpt lat="42.73562400000036" lon="-1.7636200000000053">
        <ele>628.029</ele>
        <time>2022-08-25T09:07:18Z</time>
      </trkpt>
      <trkpt lat="42.73551400000036" lon="-1.7635910000000052">
        <ele>627.621</ele>
        <time>2022-08-25T09:07:19Z</time>
      </trkpt>
      <trkpt lat="42.73540300000036" lon="-1.7635630000000053">
        <ele>626.809</ele>
        <time>2022-08-25T09:07:20Z</time>
      </trkpt>
      <trkpt lat="42.73529500000036" lon="-1.7635390000000053">
        <ele>626.467</ele>
        <time>2022-08-25T09:07:21Z</time>
      </trkpt>
      <trkpt lat="42.73518800000036" lon="-1.7635160000000052">
        <ele>625.457</ele>
        <time>2022-08-25T09:07:22Z</time>
      </trkpt>
      <trkpt lat="42.73508400000036" lon="-1.7634950000000051">
        <ele>625.047</ele>
        <time>2022-08-25T09:07:23Z</time>
      </trkpt>
      <trkpt lat="42.734979000000365" lon="-1.7634760000000052">
        <ele>624.093</ele>
        <time>2022-08-25T09:07:24Z</time>
      </trkpt>
      <trkpt lat="42.73478700000037" lon="-1.7634520000000051">
        <ele>622.465</ele>
        <time>2022-08-25T09:07:26Z</time>
      </trkpt>
      <trkpt lat="42.73468000000037" lon="-1.7634430000000052">
        <ele>621.272</ele>
        <time>2022-08-25T09:07:27Z</time>
      </trkpt>
      <trkpt lat="42.734442000000364" lon="-1.7634270000000052">
        <ele>619.445</ele>
        <time>2022-08-25T09:07:29Z</time>
      </trkpt>
      <trkpt lat="42.73435900000037" lon="-1.7634260000000053">
        <ele>618.611</ele>
        <time>2022-08-25T09:07:30Z</time>
      </trkpt>
      <trkpt lat="42.734256000000364" lon="-1.7634270000000052">
        <ele>617.292</ele>
        <time>2022-08-25T09:07:31Z</time>
      </trkpt>
      <trkpt lat="42.734152000000364" lon="-1.7634300000000052">
        <ele>616.436</ele>
        <time>2022-08-25T09:07:32Z</time>
      </trkpt>
      <trkpt lat="42.73405200000036" lon="-1.763434000000005">
        <ele>615.817</ele>
        <time>2022-08-25T09:07:33Z</time>
      </trkpt>
      <trkpt lat="42.73395400000036" lon="-1.763439000000005">
        <ele>614.618</ele>
        <time>2022-08-25T09:07:34Z</time>
      </trkpt>
      <trkpt lat="42.73375600000036" lon="-1.763448000000005">
        <ele>612.409</ele>
        <time>2022-08-25T09:07:36Z</time>
      </trkpt>
      <trkpt lat="42.733659000000365" lon="-1.763453000000005">
        <ele>611.864</ele>
        <time>2022-08-25T09:07:37Z</time>
      </trkpt>
      <trkpt lat="42.733564000000364" lon="-1.763458000000005">
        <ele>610.864</ele>
        <time>2022-08-25T09:07:38Z</time>
      </trkpt>
      <trkpt lat="42.73347200000036" lon="-1.763463000000005">
        <ele>609.834</ele>
        <time>2022-08-25T09:07:39Z</time>
      </trkpt>
      <trkpt lat="42.73337700000036" lon="-1.763469000000005">
        <ele>609.460</ele>
        <time>2022-08-25T09:07:40Z</time>
      </trkpt>
      <trkpt lat="42.73328300000036" lon="-1.763475000000005">
        <ele>608.282</ele>
        <time>2022-08-25T09:07:41Z</time>
      </trkpt>
      <trkpt lat="42.73319000000036" lon="-1.763483000000005">
        <ele>607.879</ele>
        <time>2022-08-25T09:07:42Z</time>
      </trkpt>
      <trkpt lat="42.733096000000366" lon="-1.763493000000005">
        <ele>606.842</ele>
        <time>2022-08-25T09:07:43Z</time>
      </trkpt>
      <trkpt lat="42.732897000000364" lon="-1.763523000000005">
        <ele>605.048</ele>
        <time>2022-08-25T09:07:45Z</time>
      </trkpt>
      <trkpt lat="42.73268600000036" lon="-1.7635730000000052">
        <ele>603.639</ele>
        <time>2022-08-25T09:07:47Z</time>
      </trkpt>
      <trkpt lat="42.732581000000366" lon="-1.7636020000000052">
        <ele>602.236</ele>
        <time>2022-08-25T09:07:48Z</time>
      </trkpt>
      <trkpt lat="42.73237700000037" lon="-1.7636750000000052">
        <ele>600.417</ele>
        <time>2022-08-25T09:07:50Z</time>
      </trkpt>
      <trkpt lat="42.73217700000037" lon="-1.7637690000000052">
        <ele>598.818</ele>
        <time>2022-08-25T09:07:52Z</time>
      </trkpt>
      <trkpt lat="42.73207800000037" lon="-1.7638220000000053">
        <ele>597.809</ele>
        <time>2022-08-25T09:07:53Z</time>
      </trkpt>
      <trkpt lat="42.731981000000374" lon="-1.7638810000000054">
        <ele>597.264</ele>
        <time>2022-08-25T09:07:54Z</time>
      </trkpt>
      <trkpt lat="42.73179000000037" lon="-1.7640150000000054">
        <ele>595.684</ele>
        <time>2022-08-25T09:07:56Z</time>
      </trkpt>
      <trkpt lat="42.731696000000376" lon="-1.7640860000000054">
        <ele>594.064</ele>
        <time>2022-08-25T09:07:57Z</time>
      </trkpt>
      <trkpt lat="42.731606000000376" lon="-1.7641630000000055">
        <ele>593.440</ele>
        <time>2022-08-25T09:07:58Z</time>
      </trkpt>
      <trkpt lat="42.73151800000038" lon="-1.7642450000000054">
        <ele>592.072</ele>
        <time>2022-08-25T09:07:59Z</time>
      </trkpt>
      <trkpt lat="42.731432000000375" lon="-1.7643330000000055">
        <ele>590.829</ele>
        <time>2022-08-25T09:08:00Z</time>
      </trkpt>
      <trkpt lat="42.731260000000375" lon="-1.7645160000000055">
        <ele>589.062</ele>
        <time>2022-08-25T09:08:02Z</time>
      </trkpt>
      <trkpt lat="42.73109000000038" lon="-1.7647070000000056">
        <ele>587.258</ele>
        <time>2022-08-25T09:08:04Z</time>
      </trkpt>
      <trkpt lat="42.73100900000038" lon="-1.7648010000000056">
        <ele>586.279</ele>
        <time>2022-08-25T09:08:05Z</time>
      </trkpt>
      <trkpt lat="42.73093000000038" lon="-1.7648930000000056">
        <ele>585.457</ele>
        <time>2022-08-25T09:08:06Z</time>
      </trkpt>
      <trkpt lat="42.73085400000038" lon="-1.7649830000000055">
        <ele>584.200</ele>
        <time>2022-08-25T09:08:07Z</time>
      </trkpt>
      <trkpt lat="42.730779000000375" lon="-1.7650720000000055">
        <ele>583.620</ele>
        <time>2022-08-25T09:08:08Z</time>
      </trkpt>
      <trkpt lat="42.73070400000037" lon="-1.7651610000000055">
        <ele>582.009</ele>
        <time>2022-08-25T09:08:09Z</time>
      </trkpt>
      <trkpt lat="42.73061100000037" lon="-1.7652590000000055">
        <ele>581.436</ele>
        <time>2022-08-25T09:08:10Z</time>
      </trkpt>
      <trkpt lat="42.730548000000375" lon="-1.7653240000000054">
        <ele>580.236</ele>
        <time>2022-08-25T09:08:11Z</time>
      </trkpt>
      <trkpt lat="42.730469000000376" lon="-1.7654050000000054">
        <ele>578.856</ele>
        <time>2022-08-25T09:08:12Z</time>
      </trkpt>
      <trkpt lat="42.73030500000038" lon="-1.7655630000000055">
        <ele>577.272</ele>
        <time>2022-08-25T09:08:14Z</time>
      </trkpt>
      <trkpt lat="42.73013000000038" lon="-1.7657160000000056">
        <ele>575.444</ele>
        <time>2022-08-25T09:08:16Z</time>
      </trkpt>
      <trkpt lat="42.72993900000038" lon="-1.7658530000000057">
        <ele>574.011</ele>
        <time>2022-08-25T09:08:18Z</time>
      </trkpt>
      <trkpt lat="42.72973400000038" lon="-1.7659740000000057">
        <ele>572.494</ele>
        <time>2022-08-25T09:08:20Z</time>
      </trkpt>
      <trkpt lat="42.72962900000038" lon="-1.7660270000000058">
        <ele>571.660</ele>
        <time>2022-08-25T09:08:21Z</time>
      </trkpt>
      <trkpt lat="42.72952500000038" lon="-1.7660730000000058">
        <ele>571.031</ele>
        <time>2022-08-25T09:08:22Z</time>
      </trkpt>
      <trkpt lat="42.72942100000038" lon="-1.7661130000000058">
        <ele>570.044</ele>
        <time>2022-08-25T09:08:23Z</time>
      </trkpt>
      <trkpt lat="42.72931400000038" lon="-1.7661520000000057">
        <ele>569.405</ele>
        <time>2022-08-25T09:08:24Z</time>
      </trkpt>
      <trkpt lat="42.72920900000038" lon="-1.7661840000000057">
        <ele>568.415</ele>
        <time>2022-08-25T09:08:25Z</time>
      </trkpt>
      <trkpt lat="42.72910200000038" lon="-1.7662120000000057">
        <ele>567.009</ele>
        <time>2022-08-25T09:08:26Z</time>
      </trkpt>
      <trkpt lat="42.72888300000038" lon="-1.7662530000000056">
        <ele>565.415</ele>
        <time>2022-08-25T09:08:28Z</time>
      </trkpt>
      <trkpt lat="42.72866000000038" lon="-1.7662770000000056">
        <ele>563.835</ele>
        <time>2022-08-25T09:08:30Z</time>
      </trkpt>
      <trkpt lat="42.72854800000038" lon="-1.7662850000000057">
        <ele>563.285</ele>
        <time>2022-08-25T09:08:31Z</time>
      </trkpt>
      <trkpt lat="42.72841200000038" lon="-1.7662920000000057">
        <ele>562.041</ele>
        <time>2022-08-25T09:08:32Z</time>
      </trkpt>
      <trkpt lat="42.72832200000038" lon="-1.7662950000000057">
        <ele>560.863</ele>
        <time>2022-08-25T09:08:33Z</time>
      </trkpt>
      <trkpt lat="42.72821000000038" lon="-1.7663000000000058">
        <ele>560.280</ele>
        <time>2022-08-25T09:08:34Z</time>
      </trkpt>
      <trkpt lat="42.72809700000038" lon="-1.7663080000000058">
        <ele>559.213</ele>
        <time>2022-08-25T09:08:35Z</time>
      </trkpt>
      <trkpt lat="42.72785000000038" lon="-1.7663250000000057">
        <ele>557.639</ele>
        <time>2022-08-25T09:08:37Z</time>
      </trkpt>
      <trkpt lat="42.72774000000038" lon="-1.7663330000000057">
        <ele>557.260</ele>
        <time>2022-08-25T09:08:38Z</time>
      </trkpt>
      <trkpt lat="42.72765100000038" lon="-1.7663390000000057">
        <ele>556.699</ele>
        <time>2022-08-25T09:08:39Z</time>
      </trkpt>
      <trkpt lat="42.72754400000038" lon="-1.7663450000000056">
        <ele>555.807</ele>
        <time>2022-08-25T09:08:40Z</time>
      </trkpt>
      <trkpt lat="42.727441000000375" lon="-1.7663530000000056">
        <ele>555.027</ele>
        <time>2022-08-25T09:08:41Z</time>
      </trkpt>
      <trkpt lat="42.727348000000376" lon="-1.7663590000000056">
        <ele>553.809</ele>
        <time>2022-08-25T09:08:42Z</time>
      </trkpt>
      <trkpt lat="42.727258000000376" lon="-1.7663690000000056">
        <ele>553.230</ele>
        <time>2022-08-25T09:08:43Z</time>
      </trkpt>
      <trkpt lat="42.72716600000037" lon="-1.7663850000000056">
        <ele>552.430</ele>
        <time>2022-08-25T09:08:44Z</time>
      </trkpt>
      <trkpt lat="42.726963000000374" lon="-1.7664460000000057">
        <ele>550.840</ele>
        <time>2022-08-25T09:08:46Z</time>
      </trkpt>
      <trkpt lat="42.726892000000376" lon="-1.7664740000000057">
        <ele>550.046</ele>
        <time>2022-08-25T09:08:47Z</time>
      </trkpt>
      <trkpt lat="42.72680300000037" lon="-1.7665110000000057">
        <ele>549.658</ele>
        <time>2022-08-25T09:08:48Z</time>
      </trkpt>
      <trkpt lat="42.72671700000037" lon="-1.7665520000000057">
        <ele>548.815</ele>
        <time>2022-08-25T09:08:49Z</time>
      </trkpt>
      <trkpt lat="42.72663500000037" lon="-1.7665920000000057">
        <ele>548.458</ele>
        <time>2022-08-25T09:08:50Z</time>
      </trkpt>
      <trkpt lat="42.726555000000374" lon="-1.7666330000000057">
        <ele>547.864</ele>
        <time>2022-08-25T09:08:51Z</time>
      </trkpt>
      <trkpt lat="42.726392000000374" lon="-1.7667260000000056">
        <ele>547.025</ele>
        <time>2022-08-25T09:08:53Z</time>
      </trkpt>
      <trkpt lat="42.72622400000037" lon="-1.7668260000000056">
        <ele>545.813</ele>
        <time>2022-08-25T09:08:55Z</time>
      </trkpt>
      <trkpt lat="42.726141000000375" lon="-1.7668760000000057">
        <ele>545.043</ele>
        <time>2022-08-25T09:08:56Z</time>
      </trkpt>
      <trkpt lat="42.72605800000038" lon="-1.7669240000000057">
        <ele>544.807</ele>
        <time>2022-08-25T09:08:57Z</time>
      </trkpt>
      <trkpt lat="42.725980000000376" lon="-1.7669680000000056">
        <ele>544.009</ele>
        <time>2022-08-25T09:08:58Z</time>
      </trkpt>
      <trkpt lat="42.725902000000374" lon="-1.7670100000000057">
        <ele>543.672</ele>
        <time>2022-08-25T09:08:59Z</time>
      </trkpt>
      <trkpt lat="42.72582200000038" lon="-1.7670540000000057">
        <ele>542.642</ele>
        <time>2022-08-25T09:09:00Z</time>
      </trkpt>
      <trkpt lat="42.72572500000038" lon="-1.7671070000000058">
        <ele>541.462</ele>
        <time>2022-08-25T09:09:01Z</time>
      </trkpt>
      <trkpt lat="42.72555400000038" lon="-1.7671940000000057">
        <ele>540.058</ele>
        <time>2022-08-25T09:09:03Z</time>
      </trkpt>
      <trkpt lat="42.72539400000038" lon="-1.7672680000000056">
        <ele>538.890</ele>
        <time>2022-08-25T09:09:05Z</time>
      </trkpt>
      <trkpt lat="42.72520500000038" lon="-1.7673490000000056">
        <ele>537.447</ele>
        <time>2022-08-25T09:09:07Z</time>
      </trkpt>
      <trkpt lat="42.725012000000376" lon="-1.7674270000000056">
        <ele>536.650</ele>
        <time>2022-08-25T09:09:09Z</time>
      </trkpt>
      <trkpt lat="42.724917000000374" lon="-1.7674630000000056">
        <ele>535.836</ele>
        <time>2022-08-25T09:09:10Z</time>
      </trkpt>
      <trkpt lat="42.724723000000374" lon="-1.7675280000000055">
        <ele>534.077</ele>
        <time>2022-08-25T09:09:12Z</time>
      </trkpt>
      <trkpt lat="42.72451900000038" lon="-1.7675850000000055">
        <ele>532.683</ele>
        <time>2022-08-25T09:09:14Z</time>
      </trkpt>
      <trkpt lat="42.724410000000375" lon="-1.7676130000000054">
        <ele>531.625</ele>
        <time>2022-08-25T09:09:15Z</time>
      </trkpt>
      <trkpt lat="42.724300000000376" lon="-1.7676410000000053">
        <ele>531.217</ele>
        <time>2022-08-25T09:09:16Z</time>
      </trkpt>
      <trkpt lat="42.724188000000375" lon="-1.7676670000000054">
        <ele>530.209</ele>
        <time>2022-08-25T09:09:17Z</time>
      </trkpt>
      <trkpt lat="42.723951000000376" lon="-1.7677290000000054">
        <ele>529.029</ele>
        <time>2022-08-25T09:09:19Z</time>
      </trkpt>
      <trkpt lat="42.72383200000038" lon="-1.7677600000000053">
        <ele>527.659</ele>
        <time>2022-08-25T09:09:20Z</time>
      </trkpt>
      <trkpt lat="42.72356700000038" lon="-1.7678300000000053">
        <ele>525.639</ele>
        <time>2022-08-25T09:09:22Z</time>
      </trkpt>
      <trkpt lat="42.72334800000038" lon="-1.7678870000000053">
        <ele>523.435</ele>
        <time>2022-08-25T09:09:24Z</time>
      </trkpt>
      <trkpt lat="42.723104000000376" lon="-1.7679530000000052">
        <ele>522.477</ele>
        <time>2022-08-25T09:09:26Z</time>
      </trkpt>
      <trkpt lat="42.722983000000376" lon="-1.767984000000005">
        <ele>521.044</ele>
        <time>2022-08-25T09:09:27Z</time>
      </trkpt>
      <trkpt lat="42.722862000000376" lon="-1.7680160000000051">
        <ele>520.457</ele>
        <time>2022-08-25T09:09:29Z</time>
      </trkpt>
      <trkpt lat="42.72272100000038" lon="-1.7680540000000051">
        <ele>519.043</ele>
        <time>2022-08-25T09:09:30Z</time>
      </trkpt>
      <trkpt lat="42.72262800000038" lon="-1.768079000000005">
        <ele>518.664</ele>
        <time>2022-08-25T09:09:31Z</time>
      </trkpt>
      <trkpt lat="42.72251200000038" lon="-1.768110000000005">
        <ele>517.665</ele>
        <time>2022-08-25T09:09:32Z</time>
      </trkpt>
      <trkpt lat="42.72239900000038" lon="-1.768140000000005">
        <ele>517.068</ele>
        <time>2022-08-25T09:09:33Z</time>
      </trkpt>
      <trkpt lat="42.72228600000038" lon="-1.7681710000000048">
        <ele>516.014</ele>
        <time>2022-08-25T09:09:34Z</time>
      </trkpt>
      <trkpt lat="42.72217700000038" lon="-1.7682010000000048">
        <ele>514.809</ele>
        <time>2022-08-25T09:09:35Z</time>
      </trkpt>
      <trkpt lat="42.72207000000038" lon="-1.7682300000000049">
        <ele>514.017</ele>
        <time>2022-08-25T09:09:36Z</time>
      </trkpt>
      <trkpt lat="42.72196500000038" lon="-1.7682580000000048">
        <ele>512.857</ele>
        <time>2022-08-25T09:09:37Z</time>
      </trkpt>
      <trkpt lat="42.72186300000038" lon="-1.7682870000000048">
        <ele>512.227</ele>
        <time>2022-08-25T09:09:38Z</time>
      </trkpt>
      <trkpt lat="42.72176000000038" lon="-1.7683160000000049">
        <ele>510.843</ele>
        <time>2022-08-25T09:09:39Z</time>
      </trkpt>
      <trkpt lat="42.72152600000038" lon="-1.768385000000005">
        <ele>509.465</ele>
        <time>2022-08-25T09:09:41Z</time>
      </trkpt>
      <trkpt lat="42.72143900000038" lon="-1.768411000000005">
        <ele>508.012</ele>
        <time>2022-08-25T09:09:42Z</time>
      </trkpt>
      <trkpt lat="42.72121800000038" lon="-1.768477000000005">
        <ele>505.815</ele>
        <time>2022-08-25T09:09:44Z</time>
      </trkpt>
      <trkpt lat="42.72110700000038" lon="-1.768511000000005">
        <ele>505.251</ele>
        <time>2022-08-25T09:09:45Z</time>
      </trkpt>
      <trkpt lat="42.72100000000038" lon="-1.768544000000005">
        <ele>504.672</ele>
        <time>2022-08-25T09:09:46Z</time>
      </trkpt>
      <trkpt lat="42.72078700000038" lon="-1.768605000000005">
        <ele>503.247</ele>
        <time>2022-08-25T09:09:48Z</time>
      </trkpt>
      <trkpt lat="42.720577000000375" lon="-1.768668000000005">
        <ele>502.229</ele>
        <time>2022-08-25T09:09:50Z</time>
      </trkpt>
      <trkpt lat="42.720259000000375" lon="-1.768765000000005">
        <ele>500.621</ele>
        <time>2022-08-25T09:09:53Z</time>
      </trkpt>
      <trkpt lat="42.72004600000037" lon="-1.768827000000005">
        <ele>499.609</ele>
        <time>2022-08-25T09:09:55Z</time>
      </trkpt>
      <trkpt lat="42.719919000000374" lon="-1.768865000000005">
        <ele>499.275</ele>
        <time>2022-08-25T09:09:56Z</time>
      </trkpt>
      <trkpt lat="42.719837000000375" lon="-1.768890000000005">
        <ele>499.095</ele>
        <time>2022-08-25T09:09:57Z</time>
      </trkpt>
      <trkpt lat="42.71973700000037" lon="-1.7689260000000049">
        <ele>498.455</ele>
        <time>2022-08-25T09:09:58Z</time>
      </trkpt>
      <trkpt lat="42.71962200000037" lon="-1.768982000000005">
        <ele>498.061</ele>
        <time>2022-08-25T09:09:59Z</time>
      </trkpt>
      <trkpt lat="42.71955000000037" lon="-1.769032000000005">
        <ele>497.463</ele>
        <time>2022-08-25T09:10:00Z</time>
      </trkpt>
      <trkpt lat="42.71944300000037" lon="-1.769122000000005">
        <ele>496.860</ele>
        <time>2022-08-25T09:10:01Z</time>
      </trkpt>
      <trkpt lat="42.71929000000037" lon="-1.769268000000005">
        <ele>496.283</ele>
        <time>2022-08-25T09:10:03Z</time>
      </trkpt>
      <trkpt lat="42.71920600000037" lon="-1.769341000000005">
        <ele>496.079</ele>
        <time>2022-08-25T09:10:04Z</time>
      </trkpt>
      <trkpt lat="42.719103000000366" lon="-1.7694150000000048">
        <ele>495.620</ele>
        <time>2022-08-25T09:10:05Z</time>
      </trkpt>
      <trkpt lat="42.71903100000036" lon="-1.7694480000000048">
        <ele>495.638</ele>
        <time>2022-08-25T09:10:06Z</time>
      </trkpt>
      <trkpt lat="42.718845000000364" lon="-1.7694960000000048">
        <ele>494.470</ele>
        <time>2022-08-25T09:10:08Z</time>
      </trkpt>
      <trkpt lat="42.718445000000365" lon="-1.7694990000000048">
        <ele>493.017</ele>
        <time>2022-08-25T09:10:12Z</time>
      </trkpt>
      <trkpt lat="42.718270000000366" lon="-1.7695040000000049">
        <ele>492.609</ele>
        <time>2022-08-25T09:10:14Z</time>
      </trkpt>
      <trkpt lat="42.71818200000037" lon="-1.7695080000000047">
        <ele>492.434</ele>
        <time>2022-08-25T09:10:15Z</time>
      </trkpt>
      <trkpt lat="42.71779100000037" lon="-1.7695270000000047">
        <ele>491.884</ele>
        <time>2022-08-25T09:10:19Z</time>
      </trkpt>
      <trkpt lat="42.717702000000365" lon="-1.7695320000000048">
        <ele>491.664</ele>
        <time>2022-08-25T09:10:20Z</time>
      </trkpt>
      <trkpt lat="42.717615000000364" lon="-1.7695520000000047">
        <ele>491.230</ele>
        <time>2022-08-25T09:10:21Z</time>
      </trkpt>
      <trkpt lat="42.717530000000366" lon="-1.7695690000000046">
        <ele>491.052</ele>
        <time>2022-08-25T09:10:22Z</time>
      </trkpt>
      <trkpt lat="42.71744400000036" lon="-1.7695930000000046">
        <ele>490.869</ele>
        <time>2022-08-25T09:10:23Z</time>
      </trkpt>
      <trkpt lat="42.71736000000036" lon="-1.7696200000000046">
        <ele>490.852</ele>
        <time>2022-08-25T09:10:24Z</time>
      </trkpt>
      <trkpt lat="42.71727300000036" lon="-1.7696450000000046">
        <ele>490.638</ele>
        <time>2022-08-25T09:10:25Z</time>
      </trkpt>
      <trkpt lat="42.71717300000036" lon="-1.7696740000000046">
        <ele>490.649</ele>
        <time>2022-08-25T09:10:26Z</time>
      </trkpt>
      <trkpt lat="42.71709300000036" lon="-1.7696950000000047">
        <ele>490.412</ele>
        <time>2022-08-25T09:10:27Z</time>
      </trkpt>
      <trkpt lat="42.71702900000036" lon="-1.7697100000000048">
        <ele>490.432</ele>
        <time>2022-08-25T09:10:28Z</time>
      </trkpt>
      <trkpt lat="42.71695300000036" lon="-1.7697280000000049">
        <ele>490.205</ele>
        <time>2022-08-25T09:10:29Z</time>
      </trkpt>
      <trkpt lat="42.71687800000036" lon="-1.7697420000000048">
        <ele>490.209</ele>
        <time>2022-08-25T09:10:30Z</time>
      </trkpt>
      <trkpt lat="42.71680600000035" lon="-1.769757000000005">
        <ele>490.252</ele>
        <time>2022-08-25T09:10:31Z</time>
      </trkpt>
      <trkpt lat="42.716718000000355" lon="-1.7697710000000049">
        <ele>490.242</ele>
        <time>2022-08-25T09:10:32Z</time>
      </trkpt>
      <trkpt lat="42.71664400000036" lon="-1.769778000000005">
        <ele>490.292</ele>
        <time>2022-08-25T09:10:33Z</time>
      </trkpt>
      <trkpt lat="42.71658500000036" lon="-1.769784000000005">
        <ele>490.248</ele>
        <time>2022-08-25T09:10:34Z</time>
      </trkpt>
      <trkpt lat="42.71629800000036" lon="-1.769795000000005">
        <ele>490.260</ele>
        <time>2022-08-25T09:10:38Z</time>
      </trkpt>
      <trkpt lat="42.71571200000036" lon="-1.7697870000000049">
        <ele>490.667</ele>
        <time>2022-08-25T09:10:46Z</time>
      </trkpt>
      <trkpt lat="42.71541700000036" lon="-1.7698140000000049">
        <ele>490.630</ele>
        <time>2022-08-25T09:10:50Z</time>
      </trkpt>
      <trkpt lat="42.715272000000354" lon="-1.769840000000005">
        <ele>490.666</ele>
        <time>2022-08-25T09:10:52Z</time>
      </trkpt>
      <trkpt lat="42.71498100000036" lon="-1.769932000000005">
        <ele>489.827</ele>
        <time>2022-08-25T09:10:56Z</time>
      </trkpt>
      <trkpt lat="42.714906000000354" lon="-1.769965000000005">
        <ele>489.662</ele>
        <time>2022-08-25T09:10:57Z</time>
      </trkpt>
      <trkpt lat="42.714537000000355" lon="-1.770185000000005">
        <ele>488.483</ele>
        <time>2022-08-25T09:11:02Z</time>
      </trkpt>
      <trkpt lat="42.71446500000035" lon="-1.770239000000005">
        <ele>488.211</ele>
        <time>2022-08-25T09:11:03Z</time>
      </trkpt>
      <trkpt lat="42.71396100000035" lon="-1.770702000000005">
        <ele>487.609</ele>
        <time>2022-08-25T09:11:10Z</time>
      </trkpt>
      <trkpt lat="42.71389100000035" lon="-1.7707720000000051">
        <ele>487.467</ele>
        <time>2022-08-25T09:11:11Z</time>
      </trkpt>
      <trkpt lat="42.71382300000035" lon="-1.7708410000000052">
        <ele>487.447</ele>
        <time>2022-08-25T09:11:12Z</time>
      </trkpt>
      <trkpt lat="42.713755000000354" lon="-1.7709090000000052">
        <ele>487.027</ele>
        <time>2022-08-25T09:11:13Z</time>
      </trkpt>
      <trkpt lat="42.713552000000355" lon="-1.7711190000000052">
        <ele>485.463</ele>
        <time>2022-08-25T09:11:16Z</time>
      </trkpt>
      <trkpt lat="42.713414000000355" lon="-1.7712640000000053">
        <ele>484.425</ele>
        <time>2022-08-25T09:11:18Z</time>
      </trkpt>
      <trkpt lat="42.713274000000354" lon="-1.7714080000000052">
        <ele>482.832</ele>
        <time>2022-08-25T09:11:20Z</time>
      </trkpt>
      <trkpt lat="42.713209000000354" lon="-1.7714780000000052">
        <ele>482.455</ele>
        <time>2022-08-25T09:11:21Z</time>
      </trkpt>
      <trkpt lat="42.71314300000036" lon="-1.7715480000000052">
        <ele>481.611</ele>
        <time>2022-08-25T09:11:22Z</time>
      </trkpt>
      <trkpt lat="42.71307500000036" lon="-1.7716180000000052">
        <ele>480.492</ele>
        <time>2022-08-25T09:11:23Z</time>
      </trkpt>
      <trkpt lat="42.71300700000036" lon="-1.7716870000000053">
        <ele>480.065</ele>
        <time>2022-08-25T09:11:24Z</time>
      </trkpt>
      <trkpt lat="42.71293800000036" lon="-1.7717560000000054">
        <ele>479.068</ele>
        <time>2022-08-25T09:11:25Z</time>
      </trkpt>
      <trkpt lat="42.71278800000036" lon="-1.7719080000000054">
        <ele>477.414</ele>
        <time>2022-08-25T09:11:27Z</time>
      </trkpt>
      <trkpt lat="42.71273600000036" lon="-1.7719610000000054">
        <ele>477.009</ele>
        <time>2022-08-25T09:11:28Z</time>
      </trkpt>
      <trkpt lat="42.712670000000365" lon="-1.7720270000000053">
        <ele>476.217</ele>
        <time>2022-08-25T09:11:29Z</time>
      </trkpt>
      <trkpt lat="42.71253400000037" lon="-1.7721630000000053">
        <ele>475.237</ele>
        <time>2022-08-25T09:11:31Z</time>
      </trkpt>
      <trkpt lat="42.712391000000366" lon="-1.7723040000000052">
        <ele>474.077</ele>
        <time>2022-08-25T09:11:33Z</time>
      </trkpt>
      <trkpt lat="42.71231900000036" lon="-1.7723780000000051">
        <ele>473.243</ele>
        <time>2022-08-25T09:11:34Z</time>
      </trkpt>
      <trkpt lat="42.71224700000036" lon="-1.772452000000005">
        <ele>472.645</ele>
        <time>2022-08-25T09:11:35Z</time>
      </trkpt>
      <trkpt lat="42.71195300000036" lon="-1.772747000000005">
        <ele>470.262</ele>
        <time>2022-08-25T09:11:39Z</time>
      </trkpt>
      <trkpt lat="42.71188700000037" lon="-1.772817000000005">
        <ele>469.845</ele>
        <time>2022-08-25T09:11:40Z</time>
      </trkpt>
      <trkpt lat="42.71182200000037" lon="-1.772884000000005">
        <ele>468.461</ele>
        <time>2022-08-25T09:11:41Z</time>
      </trkpt>
      <trkpt lat="42.71175400000037" lon="-1.772947000000005">
        <ele>467.472</ele>
        <time>2022-08-25T09:11:42Z</time>
      </trkpt>
      <trkpt lat="42.71168600000037" lon="-1.773014000000005">
        <ele>467.078</ele>
        <time>2022-08-25T09:11:43Z</time>
      </trkpt>
      <trkpt lat="42.71154800000037" lon="-1.7731500000000049">
        <ele>465.833</ele>
        <time>2022-08-25T09:11:45Z</time>
      </trkpt>
      <trkpt lat="42.71133200000037" lon="-1.7733590000000048">
        <ele>464.026</ele>
        <time>2022-08-25T09:11:48Z</time>
      </trkpt>
      <trkpt lat="42.71118900000037" lon="-1.7735040000000049">
        <ele>462.809</ele>
        <time>2022-08-25T09:11:50Z</time>
      </trkpt>
      <trkpt lat="42.711100000000364" lon="-1.7735910000000048">
        <ele>462.058</ele>
        <time>2022-08-25T09:11:51Z</time>
      </trkpt>
      <trkpt lat="42.71104000000037" lon="-1.7736500000000048">
        <ele>461.858</ele>
        <time>2022-08-25T09:11:52Z</time>
      </trkpt>
      <trkpt lat="42.71081400000037" lon="-1.7738790000000049">
        <ele>460.428</ele>
        <time>2022-08-25T09:11:55Z</time>
      </trkpt>
      <trkpt lat="42.71058000000037" lon="-1.7741170000000048">
        <ele>458.684</ele>
        <time>2022-08-25T09:11:58Z</time>
      </trkpt>
      <trkpt lat="42.71042700000037" lon="-1.7742730000000049">
        <ele>457.686</ele>
        <time>2022-08-25T09:12:00Z</time>
      </trkpt>
      <trkpt lat="42.710336000000375" lon="-1.7743660000000048">
        <ele>456.833</ele>
        <time>2022-08-25T09:12:01Z</time>
      </trkpt>
      <trkpt lat="42.710274000000375" lon="-1.7744280000000048">
        <ele>456.056</ele>
        <time>2022-08-25T09:12:02Z</time>
      </trkpt>
      <trkpt lat="42.71003000000037" lon="-1.7746740000000047">
        <ele>454.232</ele>
        <time>2022-08-25T09:12:05Z</time>
      </trkpt>
      <trkpt lat="42.70994600000037" lon="-1.7747590000000046">
        <ele>453.613</ele>
        <time>2022-08-25T09:12:06Z</time>
      </trkpt>
      <trkpt lat="42.70986100000037" lon="-1.7748450000000047">
        <ele>452.683</ele>
        <time>2022-08-25T09:12:07Z</time>
      </trkpt>
      <trkpt lat="42.70969200000037" lon="-1.7750210000000046">
        <ele>451.025</ele>
        <time>2022-08-25T09:12:09Z</time>
      </trkpt>
      <trkpt lat="42.709520000000374" lon="-1.7751940000000046">
        <ele>450.017</ele>
        <time>2022-08-25T09:12:11Z</time>
      </trkpt>
      <trkpt lat="42.70943600000037" lon="-1.7752780000000046">
        <ele>449.209</ele>
        <time>2022-08-25T09:12:12Z</time>
      </trkpt>
      <trkpt lat="42.70935500000037" lon="-1.7753590000000046">
        <ele>448.829</ele>
        <time>2022-08-25T09:12:13Z</time>
      </trkpt>
      <trkpt lat="42.70919400000037" lon="-1.7755230000000046">
        <ele>448.269</ele>
        <time>2022-08-25T09:12:15Z</time>
      </trkpt>
      <trkpt lat="42.709117000000376" lon="-1.7756060000000047">
        <ele>447.839</ele>
        <time>2022-08-25T09:12:16Z</time>
      </trkpt>
      <trkpt lat="42.709039000000374" lon="-1.7756890000000047">
        <ele>447.475</ele>
        <time>2022-08-25T09:12:17Z</time>
      </trkpt>
      <trkpt lat="42.70888200000037" lon="-1.7758550000000048">
        <ele>446.837</ele>
        <time>2022-08-25T09:12:19Z</time>
      </trkpt>
      <trkpt lat="42.708619000000375" lon="-1.776127000000005">
        <ele>445.664</ele>
        <time>2022-08-25T09:12:22Z</time>
      </trkpt>
      <trkpt lat="42.70829900000037" lon="-1.7764490000000048">
        <ele>444.477</ele>
        <time>2022-08-25T09:12:26Z</time>
      </trkpt>
      <trkpt lat="42.70813100000037" lon="-1.7766190000000048">
        <ele>444.043</ele>
        <time>2022-08-25T09:12:28Z</time>
      </trkpt>
      <trkpt lat="42.707961000000374" lon="-1.776791000000005">
        <ele>443.274</ele>
        <time>2022-08-25T09:12:30Z</time>
      </trkpt>
      <trkpt lat="42.707876000000375" lon="-1.776877000000005">
        <ele>442.659</ele>
        <time>2022-08-25T09:12:31Z</time>
      </trkpt>
      <trkpt lat="42.70770800000037" lon="-1.777042000000005">
        <ele>442.203</ele>
        <time>2022-08-25T09:12:33Z</time>
      </trkpt>
      <trkpt lat="42.70754000000037" lon="-1.777208000000005">
        <ele>441.423</ele>
        <time>2022-08-25T09:12:35Z</time>
      </trkpt>
      <trkpt lat="42.70744000000037" lon="-1.777309000000005">
        <ele>440.809</ele>
        <time>2022-08-25T09:12:36Z</time>
      </trkpt>
      <trkpt lat="42.70721100000037" lon="-1.777544000000005">
        <ele>440.236</ele>
        <time>2022-08-25T09:12:39Z</time>
      </trkpt>
      <trkpt lat="42.70713000000037" lon="-1.7776280000000049">
        <ele>439.896</ele>
        <time>2022-08-25T09:12:40Z</time>
      </trkpt>
      <trkpt lat="42.70705000000037" lon="-1.7777120000000048">
        <ele>439.686</ele>
        <time>2022-08-25T09:12:41Z</time>
      </trkpt>
      <trkpt lat="42.706970000000375" lon="-1.777795000000005">
        <ele>439.472</ele>
        <time>2022-08-25T09:12:42Z</time>
      </trkpt>
      <trkpt lat="42.706891000000375" lon="-1.777876000000005">
        <ele>438.844</ele>
        <time>2022-08-25T09:12:43Z</time>
      </trkpt>
      <trkpt lat="42.70681400000038" lon="-1.777956000000005">
        <ele>438.661</ele>
        <time>2022-08-25T09:12:44Z</time>
      </trkpt>
      <trkpt lat="42.70674000000038" lon="-1.778039000000005">
        <ele>438.234</ele>
        <time>2022-08-25T09:12:45Z</time>
      </trkpt>
      <trkpt lat="42.70666400000038" lon="-1.7781160000000051">
        <ele>438.070</ele>
        <time>2022-08-25T09:12:46Z</time>
      </trkpt>
      <trkpt lat="42.70659000000038" lon="-1.778190000000005">
        <ele>437.621</ele>
        <time>2022-08-25T09:12:47Z</time>
      </trkpt>
      <trkpt lat="42.70651800000038" lon="-1.778265000000005">
        <ele>437.414</ele>
        <time>2022-08-25T09:12:48Z</time>
      </trkpt>
      <trkpt lat="42.70644800000038" lon="-1.7783370000000052">
        <ele>437.054</ele>
        <time>2022-08-25T09:12:49Z</time>
      </trkpt>
      <trkpt lat="42.706379000000375" lon="-1.7784070000000052">
        <ele>436.809</ele>
        <time>2022-08-25T09:12:50Z</time>
      </trkpt>
      <trkpt lat="42.70631000000037" lon="-1.7784790000000053">
        <ele>436.609</ele>
        <time>2022-08-25T09:12:51Z</time>
      </trkpt>
      <trkpt lat="42.70617300000037" lon="-1.7786210000000053">
        <ele>436.032</ele>
        <time>2022-08-25T09:12:53Z</time>
      </trkpt>
      <trkpt lat="42.70596800000037" lon="-1.7788300000000052">
        <ele>435.472</ele>
        <time>2022-08-25T09:12:56Z</time>
      </trkpt>
      <trkpt lat="42.70570000000037" lon="-1.7791050000000053">
        <ele>434.272</ele>
        <time>2022-08-25T09:13:00Z</time>
      </trkpt>
      <trkpt lat="42.70563300000037" lon="-1.7791740000000054">
        <ele>433.878</ele>
        <time>2022-08-25T09:13:01Z</time>
      </trkpt>
      <trkpt lat="42.705420000000366" lon="-1.7793910000000053">
        <ele>433.030</ele>
        <time>2022-08-25T09:13:04Z</time>
      </trkpt>
      <trkpt lat="42.70516000000037" lon="-1.7796510000000052">
        <ele>432.057</ele>
        <time>2022-08-25T09:13:08Z</time>
      </trkpt>
      <trkpt lat="42.70489000000037" lon="-1.7799260000000052">
        <ele>430.830</ele>
        <time>2022-08-25T09:13:12Z</time>
      </trkpt>
      <trkpt lat="42.70461900000037" lon="-1.7802020000000052">
        <ele>429.836</ele>
        <time>2022-08-25T09:13:16Z</time>
      </trkpt>
      <trkpt lat="42.70441200000037" lon="-1.7804120000000052">
        <ele>428.617</ele>
        <time>2022-08-25T09:13:19Z</time>
      </trkpt>
      <trkpt lat="42.70427100000037" lon="-1.7805530000000052">
        <ele>428.045</ele>
        <time>2022-08-25T09:13:21Z</time>
      </trkpt>
      <trkpt lat="42.704131000000366" lon="-1.7806960000000052">
        <ele>427.247</ele>
        <time>2022-08-25T09:13:23Z</time>
      </trkpt>
      <trkpt lat="42.70399200000037" lon="-1.7808380000000053">
        <ele>427.011</ele>
        <time>2022-08-25T09:13:25Z</time>
      </trkpt>
      <trkpt lat="42.70378400000037" lon="-1.7810500000000054">
        <ele>426.209</ele>
        <time>2022-08-25T09:13:28Z</time>
      </trkpt>
      <trkpt lat="42.70364300000037" lon="-1.7811890000000052">
        <ele>425.275</ele>
        <time>2022-08-25T09:13:30Z</time>
      </trkpt>
      <trkpt lat="42.70350300000037" lon="-1.7813290000000053">
        <ele>424.825</ele>
        <time>2022-08-25T09:13:32Z</time>
      </trkpt>
      <trkpt lat="42.70322600000037" lon="-1.7816060000000054">
        <ele>424.285</ele>
        <time>2022-08-25T09:13:36Z</time>
      </trkpt>
      <trkpt lat="42.70315600000037" lon="-1.7816740000000053">
        <ele>423.861</ele>
        <time>2022-08-25T09:13:37Z</time>
      </trkpt>
      <trkpt lat="42.70287600000037" lon="-1.7819600000000053">
        <ele>423.053</ele>
        <time>2022-08-25T09:13:41Z</time>
      </trkpt>
      <trkpt lat="42.70245800000037" lon="-1.7823890000000053">
        <ele>422.020</ele>
        <time>2022-08-25T09:13:47Z</time>
      </trkpt>
      <trkpt lat="42.70217200000037" lon="-1.7826780000000053">
        <ele>421.073</ele>
        <time>2022-08-25T09:13:51Z</time>
      </trkpt>
      <trkpt lat="42.701883000000365" lon="-1.7829720000000053">
        <ele>419.859</ele>
        <time>2022-08-25T09:13:55Z</time>
      </trkpt>
      <trkpt lat="42.70166400000036" lon="-1.7831980000000054">
        <ele>419.240</ele>
        <time>2022-08-25T09:13:58Z</time>
      </trkpt>
      <trkpt lat="42.701371000000364" lon="-1.7834930000000053">
        <ele>418.667</ele>
        <time>2022-08-25T09:14:02Z</time>
      </trkpt>
      <trkpt lat="42.70122800000036" lon="-1.7836390000000053">
        <ele>417.881</ele>
        <time>2022-08-25T09:14:04Z</time>
      </trkpt>
      <trkpt lat="42.701157000000364" lon="-1.7837100000000052">
        <ele>417.419</ele>
        <time>2022-08-25T09:14:05Z</time>
      </trkpt>
      <trkpt lat="42.701084000000364" lon="-1.7837810000000052">
        <ele>417.209</ele>
        <time>2022-08-25T09:14:06Z</time>
      </trkpt>
      <trkpt lat="42.70086800000036" lon="-1.7839910000000052">
        <ele>416.837</ele>
        <time>2022-08-25T09:14:09Z</time>
      </trkpt>
      <trkpt lat="42.700656000000365" lon="-1.7842000000000051">
        <ele>416.247</ele>
        <time>2022-08-25T09:14:12Z</time>
      </trkpt>
      <trkpt lat="42.700586000000364" lon="-1.7842720000000052">
        <ele>416.287</ele>
        <time>2022-08-25T09:14:13Z</time>
      </trkpt>
      <trkpt lat="42.70044600000036" lon="-1.7844140000000053">
        <ele>415.623</ele>
        <time>2022-08-25T09:14:15Z</time>
      </trkpt>
      <trkpt lat="42.70037700000036" lon="-1.7844830000000054">
        <ele>415.665</ele>
        <time>2022-08-25T09:14:16Z</time>
      </trkpt>
      <trkpt lat="42.700308000000355" lon="-1.7845520000000055">
        <ele>415.642</ele>
        <time>2022-08-25T09:14:17Z</time>
      </trkpt>
      <trkpt lat="42.70023900000035" lon="-1.7846200000000054">
        <ele>415.695</ele>
        <time>2022-08-25T09:14:18Z</time>
      </trkpt>
      <trkpt lat="42.70017200000035" lon="-1.7846880000000054">
        <ele>415.471</ele>
        <time>2022-08-25T09:14:19Z</time>
      </trkpt>
      <trkpt lat="42.70003900000035" lon="-1.7848220000000055">
        <ele>415.242</ele>
        <time>2022-08-25T09:14:21Z</time>
      </trkpt>
      <trkpt lat="42.69997400000035" lon="-1.7848900000000054">
        <ele>415.223</ele>
        <time>2022-08-25T09:14:22Z</time>
      </trkpt>
      <trkpt lat="42.69990900000035" lon="-1.7849570000000055">
        <ele>415.083</ele>
        <time>2022-08-25T09:14:23Z</time>
      </trkpt>
      <trkpt lat="42.699649000000356" lon="-1.7852240000000055">
        <ele>414.611</ele>
        <time>2022-08-25T09:14:27Z</time>
      </trkpt>
      <trkpt lat="42.699450000000354" lon="-1.7854220000000054">
        <ele>414.209</ele>
        <time>2022-08-25T09:14:30Z</time>
      </trkpt>
      <trkpt lat="42.69938400000036" lon="-1.7854870000000054">
        <ele>414.063</ele>
        <time>2022-08-25T09:14:31Z</time>
      </trkpt>
      <trkpt lat="42.699320000000355" lon="-1.7855510000000054">
        <ele>414.083</ele>
        <time>2022-08-25T09:14:32Z</time>
      </trkpt>
      <trkpt lat="42.699256000000354" lon="-1.7856140000000054">
        <ele>413.843</ele>
        <time>2022-08-25T09:14:33Z</time>
      </trkpt>
      <trkpt lat="42.69919200000035" lon="-1.7856760000000054">
        <ele>413.849</ele>
        <time>2022-08-25T09:14:34Z</time>
      </trkpt>
      <trkpt lat="42.698752000000354" lon="-1.7861330000000053">
        <ele>413.271</ele>
        <time>2022-08-25T09:14:41Z</time>
      </trkpt>
      <trkpt lat="42.698293000000355" lon="-1.7865910000000054">
        <ele>412.058</ele>
        <time>2022-08-25T09:14:48Z</time>
      </trkpt>
      <trkpt lat="42.69809200000036" lon="-1.7867970000000053">
        <ele>411.631</ele>
        <time>2022-08-25T09:14:51Z</time>
      </trkpt>
      <trkpt lat="42.69782100000036" lon="-1.7870670000000053">
        <ele>410.817</ele>
        <time>2022-08-25T09:14:55Z</time>
      </trkpt>
      <trkpt lat="42.69741500000036" lon="-1.7874730000000052">
        <ele>410.278</ele>
        <time>2022-08-25T09:15:01Z</time>
      </trkpt>
      <trkpt lat="42.69707100000036" lon="-1.7878140000000051">
        <ele>409.624</ele>
        <time>2022-08-25T09:15:06Z</time>
      </trkpt>
      <trkpt lat="42.69677100000036" lon="-1.7881070000000052">
        <ele>409.204</ele>
        <time>2022-08-25T09:15:10Z</time>
      </trkpt>
      <trkpt lat="42.69655000000036" lon="-1.7883180000000052">
        <ele>408.614</ele>
        <time>2022-08-25T09:15:13Z</time>
      </trkpt>
      <trkpt lat="42.69647600000036" lon="-1.7883860000000051">
        <ele>408.609</ele>
        <time>2022-08-25T09:15:14Z</time>
      </trkpt>
      <trkpt lat="42.696404000000356" lon="-1.788454000000005">
        <ele>408.443</ele>
        <time>2022-08-25T09:15:15Z</time>
      </trkpt>
      <trkpt lat="42.696346000000354" lon="-1.788509000000005">
        <ele>408.213</ele>
        <time>2022-08-25T09:15:16Z</time>
      </trkpt>
      <trkpt lat="42.696275000000355" lon="-1.788577000000005">
        <ele>408.263</ele>
        <time>2022-08-25T09:15:17Z</time>
      </trkpt>
      <trkpt lat="42.696047000000355" lon="-1.788790000000005">
        <ele>407.689</ele>
        <time>2022-08-25T09:15:20Z</time>
      </trkpt>
      <trkpt lat="42.69569700000036" lon="-1.789114000000005">
        <ele>406.491</ele>
        <time>2022-08-25T09:15:25Z</time>
      </trkpt>
      <trkpt lat="42.69546800000036" lon="-1.789326000000005">
        <ele>405.238</ele>
        <time>2022-08-25T09:15:28Z</time>
      </trkpt>
      <trkpt lat="42.695295000000364" lon="-1.789483000000005">
        <ele>404.641</ele>
        <time>2022-08-25T09:15:30Z</time>
      </trkpt>
      <trkpt lat="42.69521700000036" lon="-1.7895520000000051">
        <ele>404.437</ele>
        <time>2022-08-25T09:15:31Z</time>
      </trkpt>
      <trkpt lat="42.69515600000036" lon="-1.789607000000005">
        <ele>404.088</ele>
        <time>2022-08-25T09:15:32Z</time>
      </trkpt>
      <trkpt lat="42.69490900000036" lon="-1.789832000000005">
        <ele>402.888</ele>
        <time>2022-08-25T09:15:35Z</time>
      </trkpt>
      <trkpt lat="42.69483200000036" lon="-1.789900000000005">
        <ele>402.624</ele>
        <time>2022-08-25T09:15:36Z</time>
      </trkpt>
      <trkpt lat="42.69477100000036" lon="-1.789954000000005">
        <ele>402.026</ele>
        <time>2022-08-25T09:15:37Z</time>
      </trkpt>
      <trkpt lat="42.69469700000036" lon="-1.7900200000000048">
        <ele>401.809</ele>
        <time>2022-08-25T09:15:38Z</time>
      </trkpt>
      <trkpt lat="42.69462500000036" lon="-1.7900850000000048">
        <ele>401.099</ele>
        <time>2022-08-25T09:15:39Z</time>
      </trkpt>
      <trkpt lat="42.69454200000036" lon="-1.790154000000005">
        <ele>400.289</ele>
        <time>2022-08-25T09:15:40Z</time>
      </trkpt>
      <trkpt lat="42.694476000000364" lon="-1.7902010000000048">
        <ele>399.889</ele>
        <time>2022-08-25T09:15:41Z</time>
      </trkpt>
      <trkpt lat="42.69441200000036" lon="-1.7902380000000049">
        <ele>399.085</ele>
        <time>2022-08-25T09:15:42Z</time>
      </trkpt>
      <trkpt lat="42.69436200000036" lon="-1.7902570000000049">
        <ele>398.817</ele>
        <time>2022-08-25T09:15:43Z</time>
      </trkpt>
      <trkpt lat="42.69430000000036" lon="-1.7902740000000048">
        <ele>398.424</ele>
        <time>2022-08-25T09:15:44Z</time>
      </trkpt>
      <trkpt lat="42.694234000000364" lon="-1.7902830000000047">
        <ele>398.247</ele>
        <time>2022-08-25T09:15:45Z</time>
      </trkpt>
      <trkpt lat="42.69418700000036" lon="-1.7902850000000048">
        <ele>398.093</ele>
        <time>2022-08-25T09:15:46Z</time>
      </trkpt>
      <trkpt lat="42.694155000000364" lon="-1.7902860000000047">
        <ele>397.834</ele>
        <time>2022-08-25T09:15:47Z</time>
      </trkpt>
      <trkpt lat="42.69411700000036" lon="-1.7902920000000047">
        <ele>397.655</ele>
        <time>2022-08-25T09:15:48Z</time>
      </trkpt>
      <trkpt lat="42.694082000000364" lon="-1.7903070000000048">
        <ele>397.207</ele>
        <time>2022-08-25T09:15:49Z</time>
      </trkpt>
      <trkpt lat="42.69404900000036" lon="-1.7903320000000047">
        <ele>397.217</ele>
        <time>2022-08-25T09:15:50Z</time>
      </trkpt>
      <trkpt lat="42.69402600000036" lon="-1.7903540000000047">
        <ele>396.609</ele>
        <time>2022-08-25T09:15:51Z</time>
      </trkpt>
      <trkpt lat="42.69400700000036" lon="-1.7903790000000046">
        <ele>396.616</ele>
        <time>2022-08-25T09:15:52Z</time>
      </trkpt>
      <trkpt lat="42.69399600000036" lon="-1.7904010000000046">
        <ele>396.036</ele>
        <time>2022-08-25T09:15:53Z</time>
      </trkpt>
      <trkpt lat="42.69398800000036" lon="-1.7904320000000045">
        <ele>395.626</ele>
        <time>2022-08-25T09:15:54Z</time>
      </trkpt>
      <trkpt lat="42.69399100000036" lon="-1.7904690000000045">
        <ele>395.462</ele>
        <time>2022-08-25T09:15:55Z</time>
      </trkpt>
      <trkpt lat="42.693998000000356" lon="-1.7905040000000045">
        <ele>395.214</ele>
        <time>2022-08-25T09:15:56Z</time>
      </trkpt>
      <trkpt lat="42.694012000000356" lon="-1.7905690000000045">
        <ele>395.281</ele>
        <time>2022-08-25T09:15:58Z</time>
      </trkpt>
      <trkpt lat="42.69402200000036" lon="-1.7906090000000046">
        <ele>395.224</ele>
        <time>2022-08-25T09:15:59Z</time>
      </trkpt>
      <trkpt lat="42.69406600000036" lon="-1.7907760000000046">
        <ele>395.630</ele>
        <time>2022-08-25T09:16:03Z</time>
      </trkpt>
      <trkpt lat="42.69406700000036" lon="-1.7908870000000046">
        <ele>395.831</ele>
        <time>2022-08-25T09:16:05Z</time>
      </trkpt>
      <trkpt lat="42.69405400000036" lon="-1.7909440000000045">
        <ele>395.895</ele>
        <time>2022-08-25T09:16:06Z</time>
      </trkpt>
      <trkpt lat="42.69403700000036" lon="-1.7910000000000046">
        <ele>395.849</ele>
        <time>2022-08-25T09:16:07Z</time>
      </trkpt>
      <trkpt lat="42.69401700000036" lon="-1.7910400000000046">
        <ele>395.823</ele>
        <time>2022-08-25T09:16:08Z</time>
      </trkpt>
      <trkpt lat="42.693987000000355" lon="-1.7910860000000046">
        <ele>395.809</ele>
        <time>2022-08-25T09:16:09Z</time>
      </trkpt>
      <trkpt lat="42.69394300000035" lon="-1.7911300000000046">
        <ele>395.840</ele>
        <time>2022-08-25T09:16:10Z</time>
      </trkpt>
      <trkpt lat="42.69390200000035" lon="-1.7911550000000045">
        <ele>395.850</ele>
        <time>2022-08-25T09:16:11Z</time>
      </trkpt>
      <trkpt lat="42.69385800000035" lon="-1.7911720000000044">
        <ele>395.890</ele>
        <time>2022-08-25T09:16:12Z</time>
      </trkpt>
      <trkpt lat="42.69382100000035" lon="-1.7911750000000044">
        <ele>395.696</ele>
        <time>2022-08-25T09:16:13Z</time>
      </trkpt>
      <trkpt lat="42.69377500000035" lon="-1.7911720000000044">
        <ele>395.648</ele>
        <time>2022-08-25T09:16:14Z</time>
      </trkpt>
      <trkpt lat="42.69373000000035" lon="-1.7911620000000044">
        <ele>395.425</ele>
        <time>2022-08-25T09:16:15Z</time>
      </trkpt>
      <trkpt lat="42.69367400000035" lon="-1.7911440000000043">
        <ele>395.268</ele>
        <time>2022-08-25T09:16:16Z</time>
      </trkpt>
      <trkpt lat="42.69362600000035" lon="-1.7911320000000044">
        <ele>395.054</ele>
        <time>2022-08-25T09:16:17Z</time>
      </trkpt>
      <trkpt lat="42.69353600000035" lon="-1.7911330000000043">
        <ele>395.065</ele>
        <time>2022-08-25T09:16:19Z</time>
      </trkpt>
      <trkpt lat="42.69348400000035" lon="-1.7911460000000043">
        <ele>394.861</ele>
        <time>2022-08-25T09:16:20Z</time>
      </trkpt>
      <trkpt lat="42.69342600000035" lon="-1.7911770000000042">
        <ele>394.821</ele>
        <time>2022-08-25T09:16:21Z</time>
      </trkpt>
      <trkpt lat="42.69338100000035" lon="-1.7912130000000042">
        <ele>394.613</ele>
        <time>2022-08-25T09:16:22Z</time>
      </trkpt>
      <trkpt lat="42.69333900000035" lon="-1.7912530000000042">
        <ele>394.409</ele>
        <time>2022-08-25T09:16:23Z</time>
      </trkpt>
      <trkpt lat="42.69330500000035" lon="-1.791284000000004">
        <ele>394.287</ele>
        <time>2022-08-25T09:16:24Z</time>
      </trkpt>
      <trkpt lat="42.69294000000035" lon="-1.7916180000000042">
        <ele>393.637</ele>
        <time>2022-08-25T09:16:32Z</time>
      </trkpt>
      <trkpt lat="42.692896000000346" lon="-1.791659000000004">
        <ele>393.647</ele>
        <time>2022-08-25T09:16:33Z</time>
      </trkpt>
      <trkpt lat="42.692446000000345" lon="-1.792073000000004">
        <ele>393.223</ele>
        <time>2022-08-25T09:16:43Z</time>
      </trkpt>
      <trkpt lat="42.69240800000034" lon="-1.792108000000004">
        <ele>392.875</ele>
        <time>2022-08-25T09:16:44Z</time>
      </trkpt>
      <trkpt lat="42.69236100000034" lon="-1.792151000000004">
        <ele>392.892</ele>
        <time>2022-08-25T09:16:45Z</time>
      </trkpt>
      <trkpt lat="42.69221700000034" lon="-1.792276000000004">
        <ele>392.685</ele>
        <time>2022-08-25T09:16:48Z</time>
      </trkpt>
      <trkpt lat="42.69197000000034" lon="-1.792507000000004">
        <ele>392.231</ele>
        <time>2022-08-25T09:16:53Z</time>
      </trkpt>
      <trkpt lat="42.691535000000336" lon="-1.7929000000000042">
        <ele>391.632</ele>
        <time>2022-08-25T09:17:02Z</time>
      </trkpt>
      <trkpt lat="42.69105600000034" lon="-1.793341000000004">
        <ele>391.064</ele>
        <time>2022-08-25T09:17:11Z</time>
      </trkpt>
      <trkpt lat="42.690685000000336" lon="-1.7936830000000041">
        <ele>390.606</ele>
        <time>2022-08-25T09:17:18Z</time>
      </trkpt>
      <trkpt lat="42.690564000000336" lon="-1.7937900000000042">
        <ele>390.416</ele>
        <time>2022-08-25T09:17:20Z</time>
      </trkpt>
      <trkpt lat="42.69040900000034" lon="-1.7939330000000042">
        <ele>390.209</ele>
        <time>2022-08-25T09:17:23Z</time>
      </trkpt>
      <trkpt lat="42.69035500000034" lon="-1.7939840000000042">
        <ele>390.247</ele>
        <time>2022-08-25T09:17:24Z</time>
      </trkpt>
      <trkpt lat="42.690288000000336" lon="-1.7940410000000042">
        <ele>390.047</ele>
        <time>2022-08-25T09:17:25Z</time>
      </trkpt>
      <trkpt lat="42.69023600000034" lon="-1.7940900000000042">
        <ele>390.087</ele>
        <time>2022-08-25T09:17:26Z</time>
      </trkpt>
      <trkpt lat="42.69018500000034" lon="-1.7941400000000043">
        <ele>390.023</ele>
        <time>2022-08-25T09:17:27Z</time>
      </trkpt>
      <trkpt lat="42.69014400000034" lon="-1.7941790000000042">
        <ele>389.835</ele>
        <time>2022-08-25T09:17:28Z</time>
      </trkpt>
      <trkpt lat="42.69009300000034" lon="-1.794226000000004">
        <ele>389.872</ele>
        <time>2022-08-25T09:17:29Z</time>
      </trkpt>
      <trkpt lat="42.69003000000034" lon="-1.7942820000000042">
        <ele>389.875</ele>
        <time>2022-08-25T09:17:30Z</time>
      </trkpt>
      <trkpt lat="42.68992900000034" lon="-1.794375000000004">
        <ele>389.661</ele>
        <time>2022-08-25T09:17:32Z</time>
      </trkpt>
      <trkpt lat="42.68946800000034" lon="-1.794812000000004">
        <ele>388.872</ele>
        <time>2022-08-25T09:17:41Z</time>
      </trkpt>
      <trkpt lat="42.68941600000034" lon="-1.7948600000000041">
        <ele>388.658</ele>
        <time>2022-08-25T09:17:42Z</time>
      </trkpt>
      <trkpt lat="42.68930700000034" lon="-1.7949560000000042">
        <ele>388.452</ele>
        <time>2022-08-25T09:17:44Z</time>
      </trkpt>
      <trkpt lat="42.68895800000034" lon="-1.7952730000000041">
        <ele>387.817</ele>
        <time>2022-08-25T09:17:50Z</time>
      </trkpt>
      <trkpt lat="42.68890000000034" lon="-1.7953270000000041">
        <ele>387.809</ele>
        <time>2022-08-25T09:17:51Z</time>
      </trkpt>
      <trkpt lat="42.688853000000336" lon="-1.795371000000004">
        <ele>387.466</ele>
        <time>2022-08-25T09:17:52Z</time>
      </trkpt>
      <trkpt lat="42.68879500000033" lon="-1.795426000000004">
        <ele>387.486</ele>
        <time>2022-08-25T09:17:53Z</time>
      </trkpt>
      <trkpt lat="42.68841200000033" lon="-1.7957780000000039">
        <ele>387.096</ele>
        <time>2022-08-25T09:17:59Z</time>
      </trkpt>
      <trkpt lat="42.688155000000336" lon="-1.796009000000004">
        <ele>386.472</ele>
        <time>2022-08-25T09:18:03Z</time>
      </trkpt>
      <trkpt lat="42.688077000000334" lon="-1.7960830000000039">
        <ele>386.074</ele>
        <time>2022-08-25T09:18:04Z</time>
      </trkpt>
      <trkpt lat="42.687885000000335" lon="-1.796266000000004">
        <ele>385.631</ele>
        <time>2022-08-25T09:18:07Z</time>
      </trkpt>
      <trkpt lat="42.687820000000336" lon="-1.7963260000000039">
        <ele>385.444</ele>
        <time>2022-08-25T09:18:08Z</time>
      </trkpt>
      <trkpt lat="42.687758000000336" lon="-1.796382000000004">
        <ele>385.240</ele>
        <time>2022-08-25T09:18:09Z</time>
      </trkpt>
      <trkpt lat="42.68769600000034" lon="-1.796439000000004">
        <ele>385.261</ele>
        <time>2022-08-25T09:18:10Z</time>
      </trkpt>
      <trkpt lat="42.68763400000034" lon="-1.7964940000000038">
        <ele>385.239</ele>
        <time>2022-08-25T09:18:11Z</time>
      </trkpt>
      <trkpt lat="42.68757400000034" lon="-1.7965500000000039">
        <ele>385.201</ele>
        <time>2022-08-25T09:18:12Z</time>
      </trkpt>
      <trkpt lat="42.68751500000034" lon="-1.7966040000000039">
        <ele>385.221</ele>
        <time>2022-08-25T09:18:13Z</time>
      </trkpt>
      <trkpt lat="42.68727300000034" lon="-1.7968320000000038">
        <ele>384.809</ele>
        <time>2022-08-25T09:18:17Z</time>
      </trkpt>
      <trkpt lat="42.68721100000034" lon="-1.7968900000000037">
        <ele>384.444</ele>
        <time>2022-08-25T09:18:18Z</time>
      </trkpt>
      <trkpt lat="42.687091000000336" lon="-1.7970070000000036">
        <ele>384.234</ele>
        <time>2022-08-25T09:18:20Z</time>
      </trkpt>
      <trkpt lat="42.68679100000033" lon="-1.7972860000000035">
        <ele>383.864</ele>
        <time>2022-08-25T09:18:25Z</time>
      </trkpt>
      <trkpt lat="42.68673000000033" lon="-1.7973410000000034">
        <ele>383.680</ele>
        <time>2022-08-25T09:18:26Z</time>
      </trkpt>
      <trkpt lat="42.68654700000033" lon="-1.7975050000000035">
        <ele>383.292</ele>
        <time>2022-08-25T09:18:29Z</time>
      </trkpt>
      <trkpt lat="42.68604800000033" lon="-1.7979730000000034">
        <ele>382.629</ele>
        <time>2022-08-25T09:18:37Z</time>
      </trkpt>
      <trkpt lat="42.68571400000033" lon="-1.7982850000000035">
        <ele>382.452</ele>
        <time>2022-08-25T09:18:42Z</time>
      </trkpt>
      <trkpt lat="42.68559000000033" lon="-1.7983930000000035">
        <ele>382.058</ele>
        <time>2022-08-25T09:18:44Z</time>
      </trkpt>
      <trkpt lat="42.68529200000033" lon="-1.7986610000000034">
        <ele>381.269</ele>
        <time>2022-08-25T09:18:48Z</time>
      </trkpt>
      <trkpt lat="42.68492700000033" lon="-1.7989950000000035">
        <ele>380.078</ele>
        <time>2022-08-25T09:18:53Z</time>
      </trkpt>
      <trkpt lat="42.68477800000033" lon="-1.7991330000000034">
        <ele>379.633</ele>
        <time>2022-08-25T09:18:55Z</time>
      </trkpt>
      <trkpt lat="42.68447600000033" lon="-1.7994180000000035">
        <ele>379.026</ele>
        <time>2022-08-25T09:18:59Z</time>
      </trkpt>
      <trkpt lat="42.68424000000033" lon="-1.7996390000000035">
        <ele>377.809</ele>
        <time>2022-08-25T09:19:02Z</time>
      </trkpt>
      <trkpt lat="42.68399800000033" lon="-1.7998610000000035">
        <ele>377.228</ele>
        <time>2022-08-25T09:19:05Z</time>
      </trkpt>
      <trkpt lat="42.68383500000033" lon="-1.8000140000000036">
        <ele>376.688</ele>
        <time>2022-08-25T09:19:07Z</time>
      </trkpt>
      <trkpt lat="42.68358500000033" lon="-1.8002440000000035">
        <ele>375.278</ele>
        <time>2022-08-25T09:19:10Z</time>
      </trkpt>
      <trkpt lat="42.683172000000326" lon="-1.8006230000000034">
        <ele>374.034</ele>
        <time>2022-08-25T09:19:15Z</time>
      </trkpt>
      <trkpt lat="42.68309000000033" lon="-1.8006960000000034">
        <ele>373.876</ele>
        <time>2022-08-25T09:19:16Z</time>
      </trkpt>
      <trkpt lat="42.68284700000033" lon="-1.8009200000000034">
        <ele>372.863</ele>
        <time>2022-08-25T09:19:19Z</time>
      </trkpt>
      <trkpt lat="42.68260300000033" lon="-1.8011350000000035">
        <ele>371.856</ele>
        <time>2022-08-25T09:19:22Z</time>
      </trkpt>
      <trkpt lat="42.68228700000033" lon="-1.8014270000000034">
        <ele>370.652</ele>
        <time>2022-08-25T09:19:26Z</time>
      </trkpt>
      <trkpt lat="42.681897000000326" lon="-1.8017830000000035">
        <ele>369.673</ele>
        <time>2022-08-25T09:19:31Z</time>
      </trkpt>
      <trkpt lat="42.681822000000324" lon="-1.8018540000000034">
        <ele>369.424</ele>
        <time>2022-08-25T09:19:32Z</time>
      </trkpt>
      <trkpt lat="42.68167100000032" lon="-1.8019960000000035">
        <ele>369.004</ele>
        <time>2022-08-25T09:19:34Z</time>
      </trkpt>
      <trkpt lat="42.68151900000032" lon="-1.8021370000000034">
        <ele>368.414</ele>
        <time>2022-08-25T09:19:36Z</time>
      </trkpt>
      <trkpt lat="42.68144600000032" lon="-1.8022100000000034">
        <ele>368.209</ele>
        <time>2022-08-25T09:19:37Z</time>
      </trkpt>
      <trkpt lat="42.68129400000032" lon="-1.8023490000000033">
        <ele>367.823</ele>
        <time>2022-08-25T09:19:39Z</time>
      </trkpt>
      <trkpt lat="42.68122000000032" lon="-1.8024160000000033">
        <ele>367.633</ele>
        <time>2022-08-25T09:19:40Z</time>
      </trkpt>
      <trkpt lat="42.68114800000032" lon="-1.8024830000000034">
        <ele>367.223</ele>
        <time>2022-08-25T09:19:41Z</time>
      </trkpt>
      <trkpt lat="42.68107800000032" lon="-1.8025490000000033">
        <ele>367.269</ele>
        <time>2022-08-25T09:19:42Z</time>
      </trkpt>
      <trkpt lat="42.68093500000032" lon="-1.8026790000000033">
        <ele>366.621</ele>
        <time>2022-08-25T09:19:44Z</time>
      </trkpt>
      <trkpt lat="42.68086400000032" lon="-1.8027440000000032">
        <ele>366.428</ele>
        <time>2022-08-25T09:19:45Z</time>
      </trkpt>
      <trkpt lat="42.680795000000316" lon="-1.8028090000000032">
        <ele>366.211</ele>
        <time>2022-08-25T09:19:46Z</time>
      </trkpt>
      <trkpt lat="42.68072600000031" lon="-1.8028740000000032">
        <ele>366.277</ele>
        <time>2022-08-25T09:19:47Z</time>
      </trkpt>
      <trkpt lat="42.680658000000314" lon="-1.8029370000000031">
        <ele>366.028</ele>
        <time>2022-08-25T09:19:48Z</time>
      </trkpt>
      <trkpt lat="42.68059200000032" lon="-1.8029960000000032">
        <ele>365.876</ele>
        <time>2022-08-25T09:19:49Z</time>
      </trkpt>
      <trkpt lat="42.68052600000032" lon="-1.803056000000003">
        <ele>365.690</ele>
        <time>2022-08-25T09:19:50Z</time>
      </trkpt>
      <trkpt lat="42.68046100000032" lon="-1.8031170000000032">
        <ele>365.419</ele>
        <time>2022-08-25T09:19:51Z</time>
      </trkpt>
      <trkpt lat="42.680395000000324" lon="-1.8031760000000032">
        <ele>365.209</ele>
        <time>2022-08-25T09:19:52Z</time>
      </trkpt>
      <trkpt lat="42.680268000000325" lon="-1.8032930000000031">
        <ele>365.048</ele>
        <time>2022-08-25T09:19:54Z</time>
      </trkpt>
      <trkpt lat="42.68014200000032" lon="-1.803415000000003">
        <ele>364.838</ele>
        <time>2022-08-25T09:19:56Z</time>
      </trkpt>
      <trkpt lat="42.68008000000032" lon="-1.803470000000003">
        <ele>364.618</ele>
        <time>2022-08-25T09:19:57Z</time>
      </trkpt>
      <trkpt lat="42.680015000000324" lon="-1.803524000000003">
        <ele>364.254</ele>
        <time>2022-08-25T09:19:58Z</time>
      </trkpt>
      <trkpt lat="42.67989300000033" lon="-1.803632000000003">
        <ele>363.856</ele>
        <time>2022-08-25T09:20:00Z</time>
      </trkpt>
      <trkpt lat="42.679592000000326" lon="-1.803916000000003">
        <ele>362.873</ele>
        <time>2022-08-25T09:20:05Z</time>
      </trkpt>
      <trkpt lat="42.67921400000033" lon="-1.804288000000003">
        <ele>361.836</ele>
        <time>2022-08-25T09:20:11Z</time>
      </trkpt>
      <trkpt lat="42.679153000000326" lon="-1.804348000000003">
        <ele>361.692</ele>
        <time>2022-08-25T09:20:12Z</time>
      </trkpt>
      <trkpt lat="42.67909000000033" lon="-1.8044110000000029">
        <ele>361.463</ele>
        <time>2022-08-25T09:20:13Z</time>
      </trkpt>
      <trkpt lat="42.67902900000033" lon="-1.8044740000000028">
        <ele>361.283</ele>
        <time>2022-08-25T09:20:14Z</time>
      </trkpt>
      <trkpt lat="42.67890800000033" lon="-1.8045940000000027">
        <ele>361.225</ele>
        <time>2022-08-25T09:20:16Z</time>
      </trkpt>
      <trkpt lat="42.678847000000324" lon="-1.8046500000000028">
        <ele>361.017</ele>
        <time>2022-08-25T09:20:17Z</time>
      </trkpt>
      <trkpt lat="42.67860000000032" lon="-1.8048740000000028">
        <ele>360.809</ele>
        <time>2022-08-25T09:20:21Z</time>
      </trkpt>
      <trkpt lat="42.67814700000032" lon="-1.8052900000000027">
        <ele>360.279</ele>
        <time>2022-08-25T09:20:28Z</time>
      </trkpt>
      <trkpt lat="42.677952000000325" lon="-1.8054730000000028">
        <ele>359.879</ele>
        <time>2022-08-25T09:20:31Z</time>
      </trkpt>
      <trkpt lat="42.677834000000324" lon="-1.8055820000000027">
        <ele>359.859</ele>
        <time>2022-08-25T09:20:33Z</time>
      </trkpt>
      <trkpt lat="42.677507000000325" lon="-1.8058840000000027">
        <ele>359.485</ele>
        <time>2022-08-25T09:20:38Z</time>
      </trkpt>
      <trkpt lat="42.67731100000032" lon="-1.8060580000000026">
        <ele>359.267</ele>
        <time>2022-08-25T09:20:41Z</time>
      </trkpt>
      <trkpt lat="42.67718500000032" lon="-1.8061750000000025">
        <ele>359.214</ele>
        <time>2022-08-25T09:20:43Z</time>
      </trkpt>
      <trkpt lat="42.67697700000032" lon="-1.8063640000000025">
        <ele>359.097</ele>
        <time>2022-08-25T09:20:46Z</time>
      </trkpt>
      <trkpt lat="42.67692000000032" lon="-1.8064130000000025">
        <ele>358.873</ele>
        <time>2022-08-25T09:20:47Z</time>
      </trkpt>
      <trkpt lat="42.67688300000032" lon="-1.8064520000000024">
        <ele>358.614</ele>
        <time>2022-08-25T09:20:48Z</time>
      </trkpt>
      <trkpt lat="42.676866000000324" lon="-1.8064880000000023">
        <ele>358.464</ele>
        <time>2022-08-25T09:20:49Z</time>
      </trkpt>
      <trkpt lat="42.676860000000325" lon="-1.8065250000000024">
        <ele>358.206</ele>
        <time>2022-08-25T09:20:50Z</time>
      </trkpt>
      <trkpt lat="42.67685900000033" lon="-1.8065470000000023">
        <ele>358.216</ele>
        <time>2022-08-25T09:20:51Z</time>
      </trkpt>
      <trkpt lat="42.67684700000033" lon="-1.8065730000000024">
        <ele>357.609</ele>
        <time>2022-08-25T09:21:09Z</time>
      </trkpt>
      <trkpt lat="42.67683500000033" lon="-1.8065910000000025">
        <ele>357.627</ele>
        <time>2022-08-25T09:21:10Z</time>
      </trkpt>
      <trkpt lat="42.67678200000033" lon="-1.8066310000000025">
        <ele>357.637</ele>
        <time>2022-08-25T09:21:13Z</time>
      </trkpt>
      <trkpt lat="42.67675900000033" lon="-1.8066370000000025">
        <ele>357.677</ele>
        <time>2022-08-25T09:21:14Z</time>
      </trkpt>
      <trkpt lat="42.67673600000033" lon="-1.8066420000000025">
        <ele>357.643</ele>
        <time>2022-08-25T09:21:15Z</time>
      </trkpt>
      <trkpt lat="42.67670800000033" lon="-1.8066520000000026">
        <ele>357.465</ele>
        <time>2022-08-25T09:21:16Z</time>
      </trkpt>
      <trkpt lat="42.67669200000033" lon="-1.8066550000000026">
        <ele>357.482</ele>
        <time>2022-08-25T09:21:17Z</time>
      </trkpt>
      <trkpt lat="42.67667900000033" lon="-1.8066550000000026">
        <ele>357.235</ele>
        <time>2022-08-25T09:21:18Z</time>
      </trkpt>
      <trkpt lat="42.67667200000033" lon="-1.8066530000000025">
        <ele>357.221</ele>
        <time>2022-08-25T09:21:19Z</time>
      </trkpt>
      <trkpt lat="42.67664000000033" lon="-1.8066340000000025">
        <ele>357.012</ele>
        <time>2022-08-25T09:21:25Z</time>
      </trkpt>
      <trkpt lat="42.67656800000033" lon="-1.8065430000000025">
        <ele>357.232</ele>
        <time>2022-08-25T09:21:30Z</time>
      </trkpt>
      <trkpt lat="42.67656600000033" lon="-1.8065060000000024">
        <ele>357.292</ele>
        <time>2022-08-25T09:21:31Z</time>
      </trkpt>
      <trkpt lat="42.676553000000325" lon="-1.8062830000000023">
        <ele>357.211</ele>
        <time>2022-08-25T09:21:36Z</time>
      </trkpt>
      <trkpt lat="42.67649500000032" lon="-1.8061030000000022">
        <ele>356.809</ele>
        <time>2022-08-25T09:21:40Z</time>
      </trkpt>
      <trkpt lat="42.67647300000032" lon="-1.8060900000000022">
        <ele>356.844</ele>
        <time>2022-08-25T09:21:41Z</time>
      </trkpt>
      <trkpt lat="42.67645100000032" lon="-1.8060930000000022">
        <ele>356.484</ele>
        <time>2022-08-25T09:21:42Z</time>
      </trkpt>
      <trkpt lat="42.67643300000032" lon="-1.8061070000000021">
        <ele>356.484</ele>
        <time>2022-08-25T09:21:43Z</time>
      </trkpt>
      <trkpt lat="42.67642000000032" lon="-1.806127000000002">
        <ele>356.280</ele>
        <time>2022-08-25T09:21:44Z</time>
      </trkpt>
      <trkpt lat="42.67641600000032" lon="-1.806147000000002">
        <ele>356.082</ele>
        <time>2022-08-25T09:21:45Z</time>
      </trkpt>
      <trkpt lat="42.67641100000032" lon="-1.806169000000002">
        <ele>356.019</ele>
        <time>2022-08-25T09:21:46Z</time>
      </trkpt>
      <trkpt lat="42.676407000000324" lon="-1.806187000000002">
        <ele>355.852</ele>
        <time>2022-08-25T09:21:47Z</time>
      </trkpt>
      <trkpt lat="42.67640500000032" lon="-1.806201000000002">
        <ele>355.828</ele>
        <time>2022-08-25T09:21:48Z</time>
      </trkpt>
      <trkpt lat="42.67640300000032" lon="-1.8062130000000018">
        <ele>355.839</ele>
        <time>2022-08-25T09:21:49Z</time>
      </trkpt>
      <trkpt lat="42.67640200000032" lon="-1.8062250000000017">
        <ele>355.827</ele>
        <time>2022-08-25T09:21:50Z</time>
      </trkpt>
      <trkpt lat="42.67640300000032" lon="-1.8062350000000018">
        <ele>355.868</ele>
        <time>2022-08-25T09:21:51Z</time>
      </trkpt>
      <trkpt lat="42.67640300000032" lon="-1.8062480000000019">
        <ele>356.014</ele>
        <time>2022-08-25T09:21:52Z</time>
      </trkpt>
      <trkpt lat="42.67639300000032" lon="-1.8062840000000018">
        <ele>356.009</ele>
        <time>2022-08-25T09:21:54Z</time>
      </trkpt>
      <trkpt lat="42.67636700000032" lon="-1.8063800000000019">
        <ele>356.063</ele>
        <time>2022-08-25T09:21:58Z</time>
      </trkpt>
      <trkpt lat="42.67636400000032" lon="-1.806401000000002">
        <ele>356.243</ele>
        <time>2022-08-25T09:21:59Z</time>
      </trkpt>
      <trkpt lat="42.67636500000032" lon="-1.806414000000002">
        <ele>356.243</ele>
        <time>2022-08-25T09:22:00Z</time>
      </trkpt>
      <trkpt lat="42.67636700000032" lon="-1.806427000000002">
        <ele>356.479</ele>
        <time>2022-08-25T09:22:01Z</time>
      </trkpt>
      <trkpt lat="42.67637000000032" lon="-1.806438000000002">
        <ele>356.431</ele>
        <time>2022-08-25T09:22:02Z</time>
      </trkpt>
      <trkpt lat="42.67636900000032" lon="-1.806454000000002">
        <ele>356.448</ele>
        <time>2022-08-25T09:22:03Z</time>
      </trkpt>
      <trkpt lat="42.67632500000032" lon="-1.806513000000002">
        <ele>356.661</ele>
        <time>2022-08-25T09:22:07Z</time>
      </trkpt>
      <trkpt lat="42.676315000000315" lon="-1.806525000000002">
        <ele>356.697</ele>
        <time>2022-08-25T09:22:08Z</time>
      </trkpt>
      <trkpt lat="42.676307000000314" lon="-1.806538000000002">
        <ele>356.658</ele>
        <time>2022-08-25T09:22:09Z</time>
      </trkpt>
      <trkpt lat="42.67630200000031" lon="-1.806549000000002">
        <ele>356.888</ele>
        <time>2022-08-25T09:22:10Z</time>
      </trkpt>
      <trkpt lat="42.67629700000031" lon="-1.806563000000002">
        <ele>356.824</ele>
        <time>2022-08-25T09:22:11Z</time>
      </trkpt>
      <trkpt lat="42.67629200000031" lon="-1.8065800000000019">
        <ele>356.826</ele>
        <time>2022-08-25T09:22:12Z</time>
      </trkpt>
      <trkpt lat="42.67628600000031" lon="-1.8065940000000018">
        <ele>356.809</ele>
        <time>2022-08-25T09:22:13Z</time>
      </trkpt>
      <trkpt lat="42.67627300000031" lon="-1.8066080000000018">
        <ele>356.849</ele>
        <time>2022-08-25T09:22:14Z</time>
      </trkpt>
      <trkpt lat="42.676243000000305" lon="-1.8066270000000018">
        <ele>356.859</ele>
        <time>2022-08-25T09:22:16Z</time>
      </trkpt>
      <trkpt lat="42.6762300000003" lon="-1.8066360000000017">
        <ele>356.689</ele>
        <time>2022-08-25T09:22:17Z</time>
      </trkpt>
      <trkpt lat="42.6762190000003" lon="-1.8066460000000018">
        <ele>356.665</ele>
        <time>2022-08-25T09:22:18Z</time>
      </trkpt>
      <trkpt lat="42.6762100000003" lon="-1.8066610000000018">
        <ele>356.657</ele>
        <time>2022-08-25T09:22:19Z</time>
      </trkpt>
      <trkpt lat="42.6762000000003" lon="-1.806679000000002">
        <ele>356.434</ele>
        <time>2022-08-25T09:22:20Z</time>
      </trkpt>
      <trkpt lat="42.6761860000003" lon="-1.8066960000000019">
        <ele>356.427</ele>
        <time>2022-08-25T09:22:21Z</time>
      </trkpt>
      <trkpt lat="42.6761690000003" lon="-1.8066970000000018">
        <ele>356.453</ele>
        <time>2022-08-25T09:22:22Z</time>
      </trkpt>
      <trkpt lat="42.6761590000003" lon="-1.8066850000000019">
        <ele>356.424</ele>
        <time>2022-08-25T09:22:23Z</time>
      </trkpt>
      <trkpt lat="42.6761700000003" lon="-1.8066560000000018">
        <ele>356.226</ele>
        <time>2022-08-25T09:22:25Z</time>
      </trkpt>
      <trkpt lat="42.6761870000003" lon="-1.8066410000000017">
        <ele>356.247</ele>
        <time>2022-08-25T09:22:26Z</time>
      </trkpt>
      <trkpt lat="42.6762450000003" lon="-1.8065760000000017">
        <ele>356.211</ele>
        <time>2022-08-25T09:22:29Z</time>
      </trkpt>
      <trkpt lat="42.6762510000003" lon="-1.8065550000000017">
        <ele>356.409</ele>
        <time>2022-08-25T09:22:30Z</time>
      </trkpt>
      <trkpt lat="42.6762540000003" lon="-1.8065430000000018">
        <ele>356.413</ele>
        <time>2022-08-25T09:22:31Z</time>
      </trkpt>
      <trkpt lat="42.676193000000296" lon="-1.8064620000000018">
        <ele>354.253</ele>
        <time>2022-08-25T09:48:39Z</time>
      </trkpt>
      <trkpt lat="42.676205000000294" lon="-1.8064470000000017">
        <ele>354.643</ele>
        <time>2022-08-25T09:48:40Z</time>
      </trkpt>
      <trkpt lat="42.67620300000029" lon="-1.8066400000000018">
        <ele>354.429</ele>
        <time>2022-08-25T09:49:27Z</time>
      </trkpt>
      <trkpt lat="42.676115000000294" lon="-1.8067910000000018">
        <ele>354.271</ele>
        <time>2022-08-25T09:49:32Z</time>
      </trkpt>
      <trkpt lat="42.675954000000296" lon="-1.806952000000002">
        <ele>353.668</ele>
        <time>2022-08-25T09:49:38Z</time>
      </trkpt>
      <trkpt lat="42.67589600000029" lon="-1.8069900000000019">
        <ele>353.291</ele>
        <time>2022-08-25T09:49:40Z</time>
      </trkpt>
      <trkpt lat="42.67586900000029" lon="-1.8070100000000018">
        <ele>353.067</ele>
        <time>2022-08-25T09:49:41Z</time>
      </trkpt>
      <trkpt lat="42.67584200000029" lon="-1.8070280000000019">
        <ele>353.058</ele>
        <time>2022-08-25T09:49:42Z</time>
      </trkpt>
      <trkpt lat="42.67582100000029" lon="-1.8070470000000018">
        <ele>352.892</ele>
        <time>2022-08-25T09:49:43Z</time>
      </trkpt>
      <trkpt lat="42.67579700000029" lon="-1.807068000000002">
        <ele>352.873</ele>
        <time>2022-08-25T09:49:44Z</time>
      </trkpt>
      <trkpt lat="42.675767000000285" lon="-1.807091000000002">
        <ele>352.820</ele>
        <time>2022-08-25T09:49:45Z</time>
      </trkpt>
      <trkpt lat="42.67573700000028" lon="-1.807121000000002">
        <ele>352.809</ele>
        <time>2022-08-25T09:49:46Z</time>
      </trkpt>
      <trkpt lat="42.675711000000284" lon="-1.807154000000002">
        <ele>352.650</ele>
        <time>2022-08-25T09:49:47Z</time>
      </trkpt>
      <trkpt lat="42.67568900000028" lon="-1.807188000000002">
        <ele>352.650</ele>
        <time>2022-08-25T09:49:48Z</time>
      </trkpt>
      <trkpt lat="42.675671000000285" lon="-1.807219000000002">
        <ele>352.630</ele>
        <time>2022-08-25T09:49:49Z</time>
      </trkpt>
      <trkpt lat="42.675651000000286" lon="-1.807251000000002">
        <ele>352.636</ele>
        <time>2022-08-25T09:49:50Z</time>
      </trkpt>
      <trkpt lat="42.675632000000284" lon="-1.8072820000000018">
        <ele>352.448</ele>
        <time>2022-08-25T09:49:51Z</time>
      </trkpt>
      <trkpt lat="42.67561400000029" lon="-1.8073140000000019">
        <ele>352.415</ele>
        <time>2022-08-25T09:49:52Z</time>
      </trkpt>
      <trkpt lat="42.675598000000285" lon="-1.8073470000000018">
        <ele>352.438</ele>
        <time>2022-08-25T09:49:53Z</time>
      </trkpt>
      <trkpt lat="42.675581000000285" lon="-1.807381000000002">
        <ele>352.424</ele>
        <time>2022-08-25T09:49:54Z</time>
      </trkpt>
      <trkpt lat="42.675564000000286" lon="-1.8074140000000019">
        <ele>352.465</ele>
        <time>2022-08-25T09:49:55Z</time>
      </trkpt>
      <trkpt lat="42.675544000000286" lon="-1.8074440000000018">
        <ele>352.428</ele>
        <time>2022-08-25T09:49:56Z</time>
      </trkpt>
      <trkpt lat="42.67552400000029" lon="-1.8074740000000018">
        <ele>352.289</ele>
        <time>2022-08-25T09:49:57Z</time>
      </trkpt>
      <trkpt lat="42.67550600000029" lon="-1.8075030000000019">
        <ele>352.217</ele>
        <time>2022-08-25T09:49:58Z</time>
      </trkpt>
      <trkpt lat="42.67549100000029" lon="-1.8075300000000019">
        <ele>352.209</ele>
        <time>2022-08-25T09:49:59Z</time>
      </trkpt>
      <trkpt lat="42.67547700000029" lon="-1.8075540000000019">
        <ele>352.213</ele>
        <time>2022-08-25T09:50:00Z</time>
      </trkpt>
      <trkpt lat="42.675465000000294" lon="-1.8075790000000018">
        <ele>352.233</ele>
        <time>2022-08-25T09:50:01Z</time>
      </trkpt>
      <trkpt lat="42.675456000000295" lon="-1.8076040000000018">
        <ele>352.223</ele>
        <time>2022-08-25T09:50:02Z</time>
      </trkpt>
      <trkpt lat="42.6754490000003" lon="-1.8076220000000018">
        <ele>352.269</ele>
        <time>2022-08-25T09:50:03Z</time>
      </trkpt>
      <trkpt lat="42.6754380000003" lon="-1.8076430000000019">
        <ele>352.241</ele>
        <time>2022-08-25T09:50:04Z</time>
      </trkpt>
      <trkpt lat="42.675425000000295" lon="-1.8076730000000019">
        <ele>352.078</ele>
        <time>2022-08-25T09:50:05Z</time>
      </trkpt>
      <trkpt lat="42.67535000000029" lon="-1.8078090000000018">
        <ele>351.811</ele>
        <time>2022-08-25T09:50:09Z</time>
      </trkpt>
      <trkpt lat="42.675330000000294" lon="-1.8078380000000018">
        <ele>351.897</ele>
        <time>2022-08-25T09:50:10Z</time>
      </trkpt>
      <trkpt lat="42.67519000000029" lon="-1.8080440000000018">
        <ele>352.048</ele>
        <time>2022-08-25T09:50:16Z</time>
      </trkpt>
      <trkpt lat="42.675164000000294" lon="-1.8080770000000017">
        <ele>352.015</ele>
        <time>2022-08-25T09:50:17Z</time>
      </trkpt>
      <trkpt lat="42.67514000000029" lon="-1.8081100000000017">
        <ele>352.065</ele>
        <time>2022-08-25T09:50:18Z</time>
      </trkpt>
      <trkpt lat="42.67511600000029" lon="-1.8081410000000016">
        <ele>352.011</ele>
        <time>2022-08-25T09:50:19Z</time>
      </trkpt>
      <trkpt lat="42.675091000000286" lon="-1.8081730000000016">
        <ele>352.009</ele>
        <time>2022-08-25T09:50:20Z</time>
      </trkpt>
      <trkpt lat="42.675069000000285" lon="-1.8082030000000016">
        <ele>352.072</ele>
        <time>2022-08-25T09:50:21Z</time>
      </trkpt>
      <trkpt lat="42.67495000000029" lon="-1.8083760000000015">
        <ele>351.622</ele>
        <time>2022-08-25T09:50:26Z</time>
      </trkpt>
      <trkpt lat="42.674827000000285" lon="-1.8085540000000015">
        <ele>351.642</ele>
        <time>2022-08-25T09:50:31Z</time>
      </trkpt>
      <trkpt lat="42.674802000000284" lon="-1.8085900000000015">
        <ele>351.618</ele>
        <time>2022-08-25T09:50:32Z</time>
      </trkpt>
      <trkpt lat="42.67477800000028" lon="-1.8086230000000014">
        <ele>351.640</ele>
        <time>2022-08-25T09:50:33Z</time>
      </trkpt>
      <trkpt lat="42.67475400000028" lon="-1.8086600000000015">
        <ele>351.677</ele>
        <time>2022-08-25T09:50:34Z</time>
      </trkpt>
      <trkpt lat="42.674701000000276" lon="-1.8087310000000014">
        <ele>351.830</ele>
        <time>2022-08-25T09:50:36Z</time>
      </trkpt>
      <trkpt lat="42.674676000000275" lon="-1.8087660000000014">
        <ele>352.066</ele>
        <time>2022-08-25T09:50:37Z</time>
      </trkpt>
      <trkpt lat="42.674654000000274" lon="-1.8088000000000015">
        <ele>351.877</ele>
        <time>2022-08-25T09:50:38Z</time>
      </trkpt>
      <trkpt lat="42.67463500000027" lon="-1.8088320000000015">
        <ele>351.882</ele>
        <time>2022-08-25T09:50:39Z</time>
      </trkpt>
      <trkpt lat="42.674614000000275" lon="-1.8088620000000015">
        <ele>352.043</ele>
        <time>2022-08-25T09:50:40Z</time>
      </trkpt>
      <trkpt lat="42.674589000000275" lon="-1.8088930000000014">
        <ele>352.017</ele>
        <time>2022-08-25T09:50:41Z</time>
      </trkpt>
      <trkpt lat="42.67456700000027" lon="-1.8089220000000015">
        <ele>352.009</ele>
        <time>2022-08-25T09:50:42Z</time>
      </trkpt>
      <trkpt lat="42.674549000000276" lon="-1.8089510000000015">
        <ele>352.059</ele>
        <time>2022-08-25T09:50:43Z</time>
      </trkpt>
      <trkpt lat="42.674533000000274" lon="-1.8089780000000015">
        <ele>352.079</ele>
        <time>2022-08-25T09:50:44Z</time>
      </trkpt>
      <trkpt lat="42.67438700000027" lon="-1.8092070000000016">
        <ele>352.089</ele>
        <time>2022-08-25T09:50:51Z</time>
      </trkpt>
      <trkpt lat="42.67431100000027" lon="-1.8093170000000016">
        <ele>352.035</ele>
        <time>2022-08-25T09:50:54Z</time>
      </trkpt>
      <trkpt lat="42.674209000000275" lon="-1.8094610000000015">
        <ele>351.697</ele>
        <time>2022-08-25T09:50:58Z</time>
      </trkpt>
      <trkpt lat="42.67418000000028" lon="-1.8094970000000015">
        <ele>351.634</ele>
        <time>2022-08-25T09:50:59Z</time>
      </trkpt>
      <trkpt lat="42.67410100000028" lon="-1.8096010000000016">
        <ele>351.657</ele>
        <time>2022-08-25T09:51:02Z</time>
      </trkpt>
      <trkpt lat="42.674077000000274" lon="-1.8096350000000017">
        <ele>351.453</ele>
        <time>2022-08-25T09:51:03Z</time>
      </trkpt>
      <trkpt lat="42.674054000000275" lon="-1.8096690000000017">
        <ele>351.464</ele>
        <time>2022-08-25T09:51:04Z</time>
      </trkpt>
      <trkpt lat="42.674029000000274" lon="-1.8097050000000017">
        <ele>351.489</ele>
        <time>2022-08-25T09:51:05Z</time>
      </trkpt>
      <trkpt lat="42.674006000000276" lon="-1.8097400000000017">
        <ele>351.406</ele>
        <time>2022-08-25T09:51:06Z</time>
      </trkpt>
      <trkpt lat="42.67398300000028" lon="-1.8097710000000016">
        <ele>351.426</ele>
        <time>2022-08-25T09:51:07Z</time>
      </trkpt>
      <trkpt lat="42.67396200000028" lon="-1.8098030000000016">
        <ele>351.409</ele>
        <time>2022-08-25T09:51:08Z</time>
      </trkpt>
      <trkpt lat="42.67394100000028" lon="-1.8098330000000016">
        <ele>351.479</ele>
        <time>2022-08-25T09:51:09Z</time>
      </trkpt>
      <trkpt lat="42.67389400000028" lon="-1.8098950000000016">
        <ele>351.429</ele>
        <time>2022-08-25T09:51:11Z</time>
      </trkpt>
      <trkpt lat="42.67387200000028" lon="-1.8099250000000016">
        <ele>351.429</ele>
        <time>2022-08-25T09:51:12Z</time>
      </trkpt>
      <trkpt lat="42.67385200000028" lon="-1.8099550000000015">
        <ele>351.425</ele>
        <time>2022-08-25T09:51:13Z</time>
      </trkpt>
      <trkpt lat="42.67379800000028" lon="-1.8100500000000015">
        <ele>351.617</ele>
        <time>2022-08-25T09:51:16Z</time>
      </trkpt>
      <trkpt lat="42.67376200000028" lon="-1.8101130000000014">
        <ele>351.824</ele>
        <time>2022-08-25T09:51:18Z</time>
      </trkpt>
      <trkpt lat="42.67374700000028" lon="-1.8101460000000014">
        <ele>351.837</ele>
        <time>2022-08-25T09:51:19Z</time>
      </trkpt>
      <trkpt lat="42.67373300000028" lon="-1.8101770000000013">
        <ele>352.063</ele>
        <time>2022-08-25T09:51:20Z</time>
      </trkpt>
      <trkpt lat="42.673713000000284" lon="-1.8102060000000013">
        <ele>352.084</ele>
        <time>2022-08-25T09:51:21Z</time>
      </trkpt>
      <trkpt lat="42.673634000000284" lon="-1.8103000000000014">
        <ele>352.046</ele>
        <time>2022-08-25T09:51:24Z</time>
      </trkpt>
      <trkpt lat="42.67360900000028" lon="-1.8103270000000014">
        <ele>351.888</ele>
        <time>2022-08-25T09:51:25Z</time>
      </trkpt>
      <trkpt lat="42.67359000000028" lon="-1.8103510000000014">
        <ele>351.816</ele>
        <time>2022-08-25T09:51:26Z</time>
      </trkpt>
      <trkpt lat="42.67357400000028" lon="-1.8103700000000014">
        <ele>352.009</ele>
        <time>2022-08-25T09:51:27Z</time>
      </trkpt>
      <trkpt lat="42.67356300000028" lon="-1.8103810000000014">
        <ele>351.825</ele>
        <time>2022-08-25T09:51:28Z</time>
      </trkpt>
      <trkpt lat="42.67355700000028" lon="-1.8103860000000014">
        <ele>351.685</ele>
        <time>2022-08-25T09:51:29Z</time>
      </trkpt>
      <trkpt lat="42.67355300000028" lon="-1.8103910000000014">
        <ele>351.625</ele>
        <time>2022-08-25T09:51:30Z</time>
      </trkpt>
      <trkpt lat="42.67354700000028" lon="-1.8103940000000014">
        <ele>351.631</ele>
        <time>2022-08-25T09:51:31Z</time>
      </trkpt>
      <trkpt lat="42.67350600000028" lon="-1.8104060000000013">
        <ele>351.463</ele>
        <time>2022-08-25T09:51:35Z</time>
      </trkpt>
      <trkpt lat="42.67346800000028" lon="-1.8104040000000012">
        <ele>351.220</ele>
        <time>2022-08-25T09:51:37Z</time>
      </trkpt>
      <trkpt lat="42.67345300000028" lon="-1.8104010000000013">
        <ele>351.293</ele>
        <time>2022-08-25T09:51:38Z</time>
      </trkpt>
      <trkpt lat="42.67343800000028" lon="-1.8104040000000012">
        <ele>351.249</ele>
        <time>2022-08-25T09:51:39Z</time>
      </trkpt>
      <trkpt lat="42.67342700000028" lon="-1.8104040000000012">
        <ele>351.280</ele>
        <time>2022-08-25T09:51:40Z</time>
      </trkpt>
      <trkpt lat="42.67335500000028" lon="-1.8104220000000013">
        <ele>351.448</ele>
        <time>2022-08-25T09:55:11Z</time>
      </trkpt>
      <trkpt lat="42.673263000000276" lon="-1.8104070000000012">
        <ele>351.461</ele>
        <time>2022-08-25T09:55:15Z</time>
      </trkpt>
      <trkpt lat="42.67314900000027" lon="-1.8104300000000013">
        <ele>351.017</ele>
        <time>2022-08-25T09:55:19Z</time>
      </trkpt>
      <trkpt lat="42.673128000000276" lon="-1.8104610000000012">
        <ele>351.009</ele>
        <time>2022-08-25T09:55:20Z</time>
      </trkpt>
      <trkpt lat="42.67311000000028" lon="-1.8104880000000012">
        <ele>351.035</ele>
        <time>2022-08-25T09:55:21Z</time>
      </trkpt>
      <trkpt lat="42.67309100000028" lon="-1.8105110000000013">
        <ele>351.015</ele>
        <time>2022-08-25T09:55:22Z</time>
      </trkpt>
      <trkpt lat="42.67305900000028" lon="-1.8105600000000013">
        <ele>350.815</ele>
        <time>2022-08-25T09:55:24Z</time>
      </trkpt>
      <trkpt lat="42.67300600000028" lon="-1.8107050000000013">
        <ele>350.251</ele>
        <time>2022-08-25T09:55:28Z</time>
      </trkpt>
      <trkpt lat="42.67299100000028" lon="-1.8107510000000013">
        <ele>350.273</ele>
        <time>2022-08-25T09:55:29Z</time>
      </trkpt>
      <trkpt lat="42.67297400000028" lon="-1.8107980000000012">
        <ele>350.280</ele>
        <time>2022-08-25T09:55:30Z</time>
      </trkpt>
      <trkpt lat="42.67295200000028" lon="-1.8108480000000013">
        <ele>350.443</ele>
        <time>2022-08-25T09:55:31Z</time>
      </trkpt>
      <trkpt lat="42.67294700000028" lon="-1.8108930000000014">
        <ele>350.419</ele>
        <time>2022-08-25T09:55:32Z</time>
      </trkpt>
      <trkpt lat="42.672942000000276" lon="-1.8109320000000013">
        <ele>350.460</ele>
        <time>2022-08-25T09:55:33Z</time>
      </trkpt>
      <trkpt lat="42.67292900000027" lon="-1.8109690000000014">
        <ele>350.458</ele>
        <time>2022-08-25T09:55:34Z</time>
      </trkpt>
      <trkpt lat="42.672914000000276" lon="-1.8110080000000013">
        <ele>350.452</ele>
        <time>2022-08-25T09:55:35Z</time>
      </trkpt>
      <trkpt lat="42.67290200000028" lon="-1.8110430000000013">
        <ele>350.417</ele>
        <time>2022-08-25T09:55:36Z</time>
      </trkpt>
      <trkpt lat="42.67285400000028" lon="-1.8111930000000014">
        <ele>350.209</ele>
        <time>2022-08-25T09:55:40Z</time>
      </trkpt>
      <trkpt lat="42.67282600000028" lon="-1.8113200000000014">
        <ele>349.866</ele>
        <time>2022-08-25T09:55:43Z</time>
      </trkpt>
      <trkpt lat="42.67280000000028" lon="-1.8114070000000013">
        <ele>349.486</ele>
        <time>2022-08-25T09:55:45Z</time>
      </trkpt>
      <trkpt lat="42.67275300000028" lon="-1.8115360000000014">
        <ele>349.276</ele>
        <time>2022-08-25T09:55:48Z</time>
      </trkpt>
      <trkpt lat="42.67273900000028" lon="-1.8115790000000014">
        <ele>349.262</ele>
        <time>2022-08-25T09:55:49Z</time>
      </trkpt>
      <trkpt lat="42.67270700000028" lon="-1.8117590000000015">
        <ele>349.064</ele>
        <time>2022-08-25T09:55:53Z</time>
      </trkpt>
      <trkpt lat="42.67268000000028" lon="-1.8118410000000014">
        <ele>348.871</ele>
        <time>2022-08-25T09:55:55Z</time>
      </trkpt>
      <trkpt lat="42.67266500000028" lon="-1.8118840000000014">
        <ele>348.824</ele>
        <time>2022-08-25T09:55:56Z</time>
      </trkpt>
      <trkpt lat="42.672655000000276" lon="-1.8119300000000014">
        <ele>348.660</ele>
        <time>2022-08-25T09:55:57Z</time>
      </trkpt>
      <trkpt lat="42.67264300000028" lon="-1.8119770000000013">
        <ele>348.661</ele>
        <time>2022-08-25T09:55:58Z</time>
      </trkpt>
      <trkpt lat="42.67262800000028" lon="-1.8120670000000012">
        <ele>348.413</ele>
        <time>2022-08-25T09:56:00Z</time>
      </trkpt>
      <trkpt lat="42.67259000000028" lon="-1.8122230000000012">
        <ele>348.243</ele>
        <time>2022-08-25T09:56:04Z</time>
      </trkpt>
      <trkpt lat="42.67258100000028" lon="-1.8122540000000011">
        <ele>348.207</ele>
        <time>2022-08-25T09:56:05Z</time>
      </trkpt>
      <trkpt lat="42.67252800000028" lon="-1.8124500000000012">
        <ele>348.009</ele>
        <time>2022-08-25T09:56:11Z</time>
      </trkpt>
      <trkpt lat="42.67252500000028" lon="-1.8124940000000012">
        <ele>348.082</ele>
        <time>2022-08-25T09:56:12Z</time>
      </trkpt>
      <trkpt lat="42.672515000000274" lon="-1.812533000000001">
        <ele>348.022</ele>
        <time>2022-08-25T09:56:13Z</time>
      </trkpt>
      <trkpt lat="42.67250500000027" lon="-1.812568000000001">
        <ele>348.072</ele>
        <time>2022-08-25T09:56:14Z</time>
      </trkpt>
      <trkpt lat="42.67250400000027" lon="-1.8125890000000011">
        <ele>348.068</ele>
        <time>2022-08-25T09:56:15Z</time>
      </trkpt>
      <trkpt lat="42.67250200000027" lon="-1.812608000000001">
        <ele>347.840</ele>
        <time>2022-08-25T09:56:16Z</time>
      </trkpt>
      <trkpt lat="42.67250600000027" lon="-1.8126260000000012">
        <ele>347.837</ele>
        <time>2022-08-25T09:56:17Z</time>
      </trkpt>
      <trkpt lat="42.672504000000266" lon="-1.8126440000000013">
        <ele>347.880</ele>
        <time>2022-08-25T09:56:18Z</time>
      </trkpt>
      <trkpt lat="42.672496000000265" lon="-1.8126570000000013">
        <ele>347.826</ele>
        <time>2022-08-25T09:56:19Z</time>
      </trkpt>
      <trkpt lat="42.67248700000027" lon="-1.8126650000000013">
        <ele>347.847</ele>
        <time>2022-08-25T09:56:20Z</time>
      </trkpt>
      <trkpt lat="42.67248100000027" lon="-1.8127090000000012">
        <ele>347.862</ele>
        <time>2022-08-25T09:56:29Z</time>
      </trkpt>
      <trkpt lat="42.67247700000027" lon="-1.8127320000000013">
        <ele>347.883</ele>
        <time>2022-08-25T09:56:31Z</time>
      </trkpt>
      <trkpt lat="42.67244900000027" lon="-1.8128110000000013">
        <ele>347.811</ele>
        <time>2022-08-25T09:56:34Z</time>
      </trkpt>
      <trkpt lat="42.67243300000027" lon="-1.8128480000000013">
        <ele>347.609</ele>
        <time>2022-08-25T09:56:35Z</time>
      </trkpt>
      <trkpt lat="42.67241500000027" lon="-1.8128930000000014">
        <ele>347.637</ele>
        <time>2022-08-25T09:56:36Z</time>
      </trkpt>
      <trkpt lat="42.67238600000027" lon="-1.8130090000000014">
        <ele>347.637</ele>
        <time>2022-08-25T09:56:38Z</time>
      </trkpt>
      <trkpt lat="42.67240100000027" lon="-1.8130670000000013">
        <ele>347.637</ele>
        <time>2022-08-25T09:56:39Z</time>
      </trkpt>
      <trkpt lat="42.67239500000027" lon="-1.8131040000000014">
        <ele>347.473</ele>
        <time>2022-08-25T09:56:40Z</time>
      </trkpt>
      <trkpt lat="42.67239800000027" lon="-1.8131890000000013">
        <ele>347.425</ele>
        <time>2022-08-25T09:56:42Z</time>
      </trkpt>
      <trkpt lat="42.67239800000027" lon="-1.8133080000000013">
        <ele>347.482</ele>
        <time>2022-08-25T09:56:44Z</time>
      </trkpt>
      <trkpt lat="42.67237200000027" lon="-1.8133570000000012">
        <ele>347.485</ele>
        <time>2022-08-25T09:56:45Z</time>
      </trkpt>
      <trkpt lat="42.67228200000027" lon="-1.8134810000000012">
        <ele>347.491</ele>
        <time>2022-08-25T09:56:50Z</time>
      </trkpt>
      <trkpt lat="42.67226900000027" lon="-1.8135100000000013">
        <ele>347.472</ele>
        <time>2022-08-25T09:56:51Z</time>
      </trkpt>
      <trkpt lat="42.67226200000027" lon="-1.8135260000000013">
        <ele>347.488</ele>
        <time>2022-08-25T09:56:52Z</time>
      </trkpt>
      <trkpt lat="42.672256000000274" lon="-1.8135430000000012">
        <ele>347.424</ele>
        <time>2022-08-25T09:56:53Z</time>
      </trkpt>
      <trkpt lat="42.672230000000276" lon="-1.8136260000000013">
        <ele>347.426</ele>
        <time>2022-08-25T09:56:54Z</time>
      </trkpt>
      <trkpt lat="42.672233000000276" lon="-1.8136590000000012">
        <ele>347.409</ele>
        <time>2022-08-25T09:56:55Z</time>
      </trkpt>
      <trkpt lat="42.67222400000028" lon="-1.8137130000000012">
        <ele>347.219</ele>
        <time>2022-08-25T09:56:56Z</time>
      </trkpt>
      <trkpt lat="42.672219000000275" lon="-1.8137720000000013">
        <ele>347.299</ele>
        <time>2022-08-25T09:56:57Z</time>
      </trkpt>
      <trkpt lat="42.672214000000274" lon="-1.8138540000000012">
        <ele>347.229</ele>
        <time>2022-08-25T09:56:59Z</time>
      </trkpt>
      <trkpt lat="42.672202000000276" lon="-1.813936000000001">
        <ele>347.075</ele>
        <time>2022-08-25T09:57:02Z</time>
      </trkpt>
      <trkpt lat="42.67220300000027" lon="-1.8139700000000012">
        <ele>347.017</ele>
        <time>2022-08-25T09:57:03Z</time>
      </trkpt>
      <trkpt lat="42.67224100000028" lon="-1.8141530000000012">
        <ele>347.044</ele>
        <time>2022-08-25T09:57:06Z</time>
      </trkpt>
      <trkpt lat="42.67225800000028" lon="-1.8141850000000013">
        <ele>347.017</ele>
        <time>2022-08-25T09:57:07Z</time>
      </trkpt>
      <trkpt lat="42.67226500000027" lon="-1.8142200000000013">
        <ele>347.043</ele>
        <time>2022-08-25T09:57:08Z</time>
      </trkpt>
      <trkpt lat="42.67226300000027" lon="-1.8142700000000014">
        <ele>347.074</ele>
        <time>2022-08-25T09:57:09Z</time>
      </trkpt>
      <trkpt lat="42.67226900000027" lon="-1.8143240000000014">
        <ele>347.018</ele>
        <time>2022-08-25T09:57:10Z</time>
      </trkpt>
      <trkpt lat="42.67226500000027" lon="-1.8143900000000013">
        <ele>347.098</ele>
        <time>2022-08-25T09:57:11Z</time>
      </trkpt>
      <trkpt lat="42.67225800000028" lon="-1.8144210000000012">
        <ele>347.017</ele>
        <time>2022-08-25T09:57:12Z</time>
      </trkpt>
      <trkpt lat="42.67224900000028" lon="-1.8144510000000011">
        <ele>347.009</ele>
        <time>2022-08-25T09:57:13Z</time>
      </trkpt>
      <trkpt lat="42.672202000000276" lon="-1.8145260000000012">
        <ele>346.822</ele>
        <time>2022-08-25T09:57:15Z</time>
      </trkpt>
      <trkpt lat="42.672168000000276" lon="-1.8145590000000011">
        <ele>346.842</ele>
        <time>2022-08-25T09:57:16Z</time>
      </trkpt>
      <trkpt lat="42.672101000000275" lon="-1.8146990000000012">
        <ele>346.852</ele>
        <time>2022-08-25T09:57:19Z</time>
      </trkpt>
      <trkpt lat="42.672093000000274" lon="-1.8147230000000012">
        <ele>346.828</ele>
        <time>2022-08-25T09:57:20Z</time>
      </trkpt>
      <trkpt lat="42.67208900000028" lon="-1.8147470000000012">
        <ele>346.820</ele>
        <time>2022-08-25T09:57:21Z</time>
      </trkpt>
      <trkpt lat="42.67206600000028" lon="-1.8147740000000012">
        <ele>346.827</ele>
        <time>2022-08-25T09:57:22Z</time>
      </trkpt>
      <trkpt lat="42.67207200000028" lon="-1.8148210000000011">
        <ele>346.880</ele>
        <time>2022-08-25T09:57:23Z</time>
      </trkpt>
      <trkpt lat="42.672050000000276" lon="-1.8148960000000012">
        <ele>346.876</ele>
        <time>2022-08-25T09:57:25Z</time>
      </trkpt>
      <trkpt lat="42.672034000000274" lon="-1.8150090000000012">
        <ele>346.867</ele>
        <time>2022-08-25T09:57:27Z</time>
      </trkpt>
      <trkpt lat="42.672019000000276" lon="-1.8150560000000011">
        <ele>346.822</ele>
        <time>2022-08-25T09:57:28Z</time>
      </trkpt>
      <trkpt lat="42.67201200000028" lon="-1.8150930000000012">
        <ele>346.662</ele>
        <time>2022-08-25T09:57:29Z</time>
      </trkpt>
      <trkpt lat="42.67197700000028" lon="-1.8151310000000012">
        <ele>346.808</ele>
        <time>2022-08-25T09:57:30Z</time>
      </trkpt>
      <trkpt lat="42.671973000000285" lon="-1.8151710000000012">
        <ele>346.809</ele>
        <time>2022-08-25T09:57:31Z</time>
      </trkpt>
      <trkpt lat="42.67197700000028" lon="-1.8152000000000013">
        <ele>346.863</ele>
        <time>2022-08-25T09:57:32Z</time>
      </trkpt>
      <trkpt lat="42.67199200000028" lon="-1.8152710000000012">
        <ele>346.843</ele>
        <time>2022-08-25T09:57:34Z</time>
      </trkpt>
      <trkpt lat="42.67196200000028" lon="-1.8153970000000013">
        <ele>346.833</ele>
        <time>2022-08-25T09:57:38Z</time>
      </trkpt>
      <trkpt lat="42.67194700000028" lon="-1.8154350000000012">
        <ele>346.889</ele>
        <time>2022-08-25T09:57:39Z</time>
      </trkpt>
      <trkpt lat="42.67192700000028" lon="-1.8154850000000013">
        <ele>346.811</ele>
        <time>2022-08-25T09:57:41Z</time>
      </trkpt>
      <trkpt lat="42.671906000000284" lon="-1.8155950000000014">
        <ele>346.418</ele>
        <time>2022-08-25T09:57:45Z</time>
      </trkpt>
      <trkpt lat="42.671900000000285" lon="-1.8156900000000014">
        <ele>346.421</ele>
        <time>2022-08-25T09:57:47Z</time>
      </trkpt>
      <trkpt lat="42.67187900000029" lon="-1.8158640000000013">
        <ele>346.297</ele>
        <time>2022-08-25T09:57:52Z</time>
      </trkpt>
      <trkpt lat="42.67183900000029" lon="-1.8160340000000013">
        <ele>346.278</ele>
        <time>2022-08-25T09:57:57Z</time>
      </trkpt>
      <trkpt lat="42.67180500000029" lon="-1.8162000000000014">
        <ele>346.228</ele>
        <time>2022-08-25T09:58:01Z</time>
      </trkpt>
      <trkpt lat="42.67179700000029" lon="-1.8162540000000014">
        <ele>346.289</ele>
        <time>2022-08-25T09:58:02Z</time>
      </trkpt>
      <trkpt lat="42.67178500000029" lon="-1.8163020000000014">
        <ele>346.017</ele>
        <time>2022-08-25T09:58:03Z</time>
      </trkpt>
      <trkpt lat="42.67176600000029" lon="-1.8164070000000014">
        <ele>346.009</ele>
        <time>2022-08-25T09:58:05Z</time>
      </trkpt>
      <trkpt lat="42.671756000000286" lon="-1.8164510000000014">
        <ele>346.033</ele>
        <time>2022-08-25T09:58:06Z</time>
      </trkpt>
      <trkpt lat="42.67175000000029" lon="-1.8164850000000015">
        <ele>346.023</ele>
        <time>2022-08-25T09:58:07Z</time>
      </trkpt>
      <trkpt lat="42.671737000000284" lon="-1.8165330000000015">
        <ele>346.093</ele>
        <time>2022-08-25T09:58:08Z</time>
      </trkpt>
      <trkpt lat="42.671734000000285" lon="-1.8165680000000015">
        <ele>346.099</ele>
        <time>2022-08-25T09:58:09Z</time>
      </trkpt>
      <trkpt lat="42.67173000000029" lon="-1.8166030000000015">
        <ele>346.041</ele>
        <time>2022-08-25T09:58:10Z</time>
      </trkpt>
      <trkpt lat="42.67172600000029" lon="-1.8166470000000015">
        <ele>346.038</ele>
        <time>2022-08-25T09:58:11Z</time>
      </trkpt>
      <trkpt lat="42.67172100000029" lon="-1.8166770000000014">
        <ele>345.841</ele>
        <time>2022-08-25T09:58:12Z</time>
      </trkpt>
      <trkpt lat="42.67171400000029" lon="-1.8167080000000013">
        <ele>345.857</ele>
        <time>2022-08-25T09:58:13Z</time>
      </trkpt>
      <trkpt lat="42.67171100000029" lon="-1.8167380000000013">
        <ele>345.898</ele>
        <time>2022-08-25T09:58:14Z</time>
      </trkpt>
      <trkpt lat="42.671707000000296" lon="-1.8167730000000013">
        <ele>345.856</ele>
        <time>2022-08-25T09:58:15Z</time>
      </trkpt>
      <trkpt lat="42.6716950000003" lon="-1.8168050000000013">
        <ele>345.659</ele>
        <time>2022-08-25T09:58:16Z</time>
      </trkpt>
      <trkpt lat="42.6716830000003" lon="-1.8168400000000013">
        <ele>345.614</ele>
        <time>2022-08-25T09:58:17Z</time>
      </trkpt>
      <trkpt lat="42.6716490000003" lon="-1.8169950000000012">
        <ele>345.409</ele>
        <time>2022-08-25T09:58:21Z</time>
      </trkpt>
      <trkpt lat="42.6716330000003" lon="-1.8172170000000012">
        <ele>345.296</ele>
        <time>2022-08-25T09:58:26Z</time>
      </trkpt>
      <trkpt lat="42.6716150000003" lon="-1.8173110000000012">
        <ele>345.256</ele>
        <time>2022-08-25T09:58:28Z</time>
      </trkpt>
      <trkpt lat="42.6716010000003" lon="-1.8173590000000013">
        <ele>345.246</ele>
        <time>2022-08-25T09:58:29Z</time>
      </trkpt>
      <trkpt lat="42.6715820000003" lon="-1.8174660000000014">
        <ele>345.252</ele>
        <time>2022-08-25T09:58:31Z</time>
      </trkpt>
      <trkpt lat="42.6715750000003" lon="-1.8174900000000014">
        <ele>345.254</ele>
        <time>2022-08-25T09:58:32Z</time>
      </trkpt>
      <trkpt lat="42.6715590000003" lon="-1.8175420000000013">
        <ele>345.291</ele>
        <time>2022-08-25T09:58:33Z</time>
      </trkpt>
      <trkpt lat="42.6715360000003" lon="-1.8176020000000013">
        <ele>345.234</ele>
        <time>2022-08-25T09:58:34Z</time>
      </trkpt>
      <trkpt lat="42.6715400000003" lon="-1.8176250000000014">
        <ele>345.230</ele>
        <time>2022-08-25T09:58:35Z</time>
      </trkpt>
      <trkpt lat="42.671544000000296" lon="-1.8176420000000013">
        <ele>345.261</ele>
        <time>2022-08-25T09:58:36Z</time>
      </trkpt>
      <trkpt lat="42.671539000000294" lon="-1.8177000000000012">
        <ele>345.262</ele>
        <time>2022-08-25T09:58:38Z</time>
      </trkpt>
      <trkpt lat="42.671525000000294" lon="-1.8177760000000012">
        <ele>345.083</ele>
        <time>2022-08-25T09:58:41Z</time>
      </trkpt>
      <trkpt lat="42.67153100000029" lon="-1.817801000000001">
        <ele>345.011</ele>
        <time>2022-08-25T09:58:42Z</time>
      </trkpt>
      <trkpt lat="42.671539000000294" lon="-1.8178300000000012">
        <ele>345.009</ele>
        <time>2022-08-25T09:58:43Z</time>
      </trkpt>
      <trkpt lat="42.671544000000296" lon="-1.8178560000000012">
        <ele>345.037</ele>
        <time>2022-08-25T09:58:44Z</time>
      </trkpt>
      <trkpt lat="42.6715370000003" lon="-1.8178830000000012">
        <ele>345.077</ele>
        <time>2022-08-25T09:58:45Z</time>
      </trkpt>
      <trkpt lat="42.6715290000003" lon="-1.8179070000000013">
        <ele>345.027</ele>
        <time>2022-08-25T09:58:46Z</time>
      </trkpt>
      <trkpt lat="42.6715250000003" lon="-1.8179270000000012">
        <ele>345.033</ele>
        <time>2022-08-25T09:58:47Z</time>
      </trkpt>
      <trkpt lat="42.6715230000003" lon="-1.8179380000000012">
        <ele>345.275</ele>
        <time>2022-08-25T09:58:48Z</time>
      </trkpt>
      <trkpt lat="42.6715120000003" lon="-1.8179620000000012">
        <ele>345.292</ele>
        <time>2022-08-25T09:58:49Z</time>
      </trkpt>
      <trkpt lat="42.6715030000003" lon="-1.8179810000000012">
        <ele>345.265</ele>
        <time>2022-08-25T09:58:50Z</time>
      </trkpt>
      <trkpt lat="42.6714920000003" lon="-1.817993000000001">
        <ele>345.221</ele>
        <time>2022-08-25T09:58:51Z</time>
      </trkpt>
      <trkpt lat="42.6714780000003" lon="-1.818018000000001">
        <ele>345.282</ele>
        <time>2022-08-25T09:58:52Z</time>
      </trkpt>
      <trkpt lat="42.6714690000003" lon="-1.818038000000001">
        <ele>345.229</ele>
        <time>2022-08-25T09:58:53Z</time>
      </trkpt>
      <trkpt lat="42.6714610000003" lon="-1.8180850000000008">
        <ele>345.200</ele>
        <time>2022-08-25T09:58:55Z</time>
      </trkpt>
      <trkpt lat="42.6714450000003" lon="-1.818111000000001">
        <ele>345.220</ele>
        <time>2022-08-25T09:58:57Z</time>
      </trkpt>
      <trkpt lat="42.671415000000295" lon="-1.818148000000001">
        <ele>345.209</ele>
        <time>2022-08-25T09:58:58Z</time>
      </trkpt>
      <trkpt lat="42.6713970000003" lon="-1.818177000000001">
        <ele>345.263</ele>
        <time>2022-08-25T09:58:59Z</time>
      </trkpt>
      <trkpt lat="42.671342000000294" lon="-1.818295000000001">
        <ele>345.463</ele>
        <time>2022-08-25T09:59:03Z</time>
      </trkpt>
      <trkpt lat="42.67130900000029" lon="-1.8183810000000011">
        <ele>345.633</ele>
        <time>2022-08-25T09:59:06Z</time>
      </trkpt>
      <trkpt lat="42.67129500000029" lon="-1.818406000000001">
        <ele>345.619</ele>
        <time>2022-08-25T09:59:07Z</time>
      </trkpt>
      <trkpt lat="42.67128700000029" lon="-1.818439000000001">
        <ele>345.821</ele>
        <time>2022-08-25T09:59:08Z</time>
      </trkpt>
      <trkpt lat="42.67127800000029" lon="-1.818465000000001">
        <ele>346.068</ele>
        <time>2022-08-25T09:59:09Z</time>
      </trkpt>
      <trkpt lat="42.671266000000294" lon="-1.8184890000000011">
        <ele>346.211</ele>
        <time>2022-08-25T09:59:10Z</time>
      </trkpt>
      <trkpt lat="42.671254000000296" lon="-1.8185100000000012">
        <ele>346.837</ele>
        <time>2022-08-25T09:59:11Z</time>
      </trkpt>
      <trkpt lat="42.6712450000003" lon="-1.8185310000000012">
        <ele>347.078</ele>
        <time>2022-08-25T09:59:12Z</time>
      </trkpt>
      <trkpt lat="42.6712360000003" lon="-1.8185490000000013">
        <ele>347.632</ele>
        <time>2022-08-25T09:59:13Z</time>
      </trkpt>
      <trkpt lat="42.6712270000003" lon="-1.8185660000000012">
        <ele>347.892</ele>
        <time>2022-08-25T09:59:14Z</time>
      </trkpt>
      <trkpt lat="42.6712160000003" lon="-1.8185840000000013">
        <ele>348.011</ele>
        <time>2022-08-25T09:59:15Z</time>
      </trkpt>
      <trkpt lat="42.6712090000003" lon="-1.8186010000000012">
        <ele>348.209</ele>
        <time>2022-08-25T09:59:16Z</time>
      </trkpt>
      <trkpt lat="42.671203000000304" lon="-1.8186190000000013">
        <ele>348.264</ele>
        <time>2022-08-25T09:59:17Z</time>
      </trkpt>
      <trkpt lat="42.6711950000003" lon="-1.8186350000000013">
        <ele>348.434</ele>
        <time>2022-08-25T09:59:18Z</time>
      </trkpt>
      <trkpt lat="42.671189000000304" lon="-1.8186500000000014">
        <ele>348.454</ele>
        <time>2022-08-25T09:59:19Z</time>
      </trkpt>
      <trkpt lat="42.671183000000305" lon="-1.8186600000000015">
        <ele>348.630</ele>
        <time>2022-08-25T09:59:20Z</time>
      </trkpt>
      <trkpt lat="42.6711730000003" lon="-1.8186670000000016">
        <ele>348.682</ele>
        <time>2022-08-25T09:59:21Z</time>
      </trkpt>
      <trkpt lat="42.6711630000003" lon="-1.8186760000000015">
        <ele>348.619</ele>
        <time>2022-08-25T09:59:22Z</time>
      </trkpt>
      <trkpt lat="42.671125000000295" lon="-1.8187600000000015">
        <ele>348.822</ele>
        <time>2022-08-25T09:59:27Z</time>
      </trkpt>
      <trkpt lat="42.671071000000296" lon="-1.8188940000000016">
        <ele>349.078</ele>
        <time>2022-08-25T09:59:32Z</time>
      </trkpt>
      <trkpt lat="42.670996000000294" lon="-1.8190610000000016">
        <ele>348.029</ele>
        <time>2022-08-25T09:59:37Z</time>
      </trkpt>
      <trkpt lat="42.67098000000029" lon="-1.8190940000000015">
        <ele>347.889</ele>
        <time>2022-08-25T09:59:38Z</time>
      </trkpt>
      <trkpt lat="42.67096600000029" lon="-1.8191250000000014">
        <ele>347.606</ele>
        <time>2022-08-25T09:59:39Z</time>
      </trkpt>
      <trkpt lat="42.67095500000029" lon="-1.8191570000000015">
        <ele>347.426</ele>
        <time>2022-08-25T09:59:40Z</time>
      </trkpt>
      <trkpt lat="42.67094200000029" lon="-1.8191870000000014">
        <ele>347.209</ele>
        <time>2022-08-25T09:59:41Z</time>
      </trkpt>
      <trkpt lat="42.67093000000029" lon="-1.8192130000000015">
        <ele>347.059</ele>
        <time>2022-08-25T09:59:42Z</time>
      </trkpt>
      <trkpt lat="42.67087900000029" lon="-1.8193380000000015">
        <ele>346.429</ele>
        <time>2022-08-25T09:59:46Z</time>
      </trkpt>
      <trkpt lat="42.67086500000029" lon="-1.8193590000000015">
        <ele>346.019</ele>
        <time>2022-08-25T09:59:47Z</time>
      </trkpt>
      <trkpt lat="42.67084600000029" lon="-1.8193800000000016">
        <ele>346.085</ele>
        <time>2022-08-25T09:59:48Z</time>
      </trkpt>
      <trkpt lat="42.67082700000029" lon="-1.8193830000000015">
        <ele>345.847</ele>
        <time>2022-08-25T09:59:49Z</time>
      </trkpt>
      <trkpt lat="42.670811000000285" lon="-1.8193860000000015">
        <ele>345.824</ele>
        <time>2022-08-25T09:59:50Z</time>
      </trkpt>
      <trkpt lat="42.67079900000029" lon="-1.8193870000000014">
        <ele>345.647</ele>
        <time>2022-08-25T09:59:51Z</time>
      </trkpt>
      <trkpt lat="42.670786000000284" lon="-1.8193860000000015">
        <ele>345.453</ele>
        <time>2022-08-25T09:59:52Z</time>
      </trkpt>
      <trkpt lat="42.670774000000286" lon="-1.8193880000000016">
        <ele>345.414</ele>
        <time>2022-08-25T09:59:53Z</time>
      </trkpt>
      <trkpt lat="42.670757000000286" lon="-1.8193880000000016">
        <ele>345.468</ele>
        <time>2022-08-25T09:59:54Z</time>
      </trkpt>
      <trkpt lat="42.670735000000285" lon="-1.8193810000000015">
        <ele>345.442</ele>
        <time>2022-08-25T09:59:56Z</time>
      </trkpt>
      <trkpt lat="42.67072300000029" lon="-1.8193760000000014">
        <ele>345.426</ele>
        <time>2022-08-25T09:59:57Z</time>
      </trkpt>
      <trkpt lat="42.670611000000285" lon="-1.8193340000000013">
        <ele>345.409</ele>
        <time>2022-08-25T10:00:04Z</time>
      </trkpt>
      <trkpt lat="42.67051100000028" lon="-1.8193480000000013">
        <ele>345.647</ele>
        <time>2022-08-25T10:00:08Z</time>
      </trkpt>
      <trkpt lat="42.67029200000028" lon="-1.8193200000000014">
        <ele>345.457</ele>
        <time>2022-08-25T10:00:14Z</time>
      </trkpt>
      <trkpt lat="42.67025300000028" lon="-1.8193150000000013">
        <ele>345.437</ele>
        <time>2022-08-25T10:00:15Z</time>
      </trkpt>
      <trkpt lat="42.67018500000028" lon="-1.8193040000000014">
        <ele>345.263</ele>
        <time>2022-08-25T10:00:17Z</time>
      </trkpt>
      <trkpt lat="42.67015100000028" lon="-1.8192990000000013">
        <ele>345.035</ele>
        <time>2022-08-25T10:00:18Z</time>
      </trkpt>
      <trkpt lat="42.66996900000028" lon="-1.8192720000000013">
        <ele>344.882</ele>
        <time>2022-08-25T10:00:23Z</time>
      </trkpt>
      <trkpt lat="42.66993400000028" lon="-1.8192720000000013">
        <ele>344.875</ele>
        <time>2022-08-25T10:00:24Z</time>
      </trkpt>
      <trkpt lat="42.66990100000028" lon="-1.8192760000000012">
        <ele>344.831</ele>
        <time>2022-08-25T10:00:25Z</time>
      </trkpt>
      <trkpt lat="42.66987000000028" lon="-1.8192820000000012">
        <ele>344.642</ele>
        <time>2022-08-25T10:00:26Z</time>
      </trkpt>
      <trkpt lat="42.66984000000028" lon="-1.8192930000000012">
        <ele>344.648</ele>
        <time>2022-08-25T10:00:27Z</time>
      </trkpt>
      <trkpt lat="42.669813000000275" lon="-1.8193070000000011">
        <ele>344.461</ele>
        <time>2022-08-25T10:00:28Z</time>
      </trkpt>
      <trkpt lat="42.66978900000027" lon="-1.819324000000001">
        <ele>344.417</ele>
        <time>2022-08-25T10:00:29Z</time>
      </trkpt>
      <trkpt lat="42.66976700000027" lon="-1.819338000000001">
        <ele>344.209</ele>
        <time>2022-08-25T10:00:30Z</time>
      </trkpt>
      <trkpt lat="42.66974800000027" lon="-1.819342000000001">
        <ele>344.245</ele>
        <time>2022-08-25T10:00:31Z</time>
      </trkpt>
      <trkpt lat="42.66972800000027" lon="-1.819339000000001">
        <ele>344.275</ele>
        <time>2022-08-25T10:00:32Z</time>
      </trkpt>
      <trkpt lat="42.66971300000027" lon="-1.8193320000000008">
        <ele>344.225</ele>
        <time>2022-08-25T10:00:33Z</time>
      </trkpt>
      <trkpt lat="42.669706000000275" lon="-1.8193250000000007">
        <ele>344.231</ele>
        <time>2022-08-25T10:00:34Z</time>
      </trkpt>
      <trkpt lat="42.66970200000028" lon="-1.8193170000000007">
        <ele>344.223</ele>
        <time>2022-08-25T10:00:35Z</time>
      </trkpt>
      <trkpt lat="42.66970200000028" lon="-1.8193110000000008">
        <ele>344.220</ele>
        <time>2022-08-25T10:00:36Z</time>
      </trkpt>
      <trkpt lat="42.66970500000028" lon="-1.8193060000000008">
        <ele>344.243</ele>
        <time>2022-08-25T10:00:37Z</time>
      </trkpt>
      <trkpt lat="42.66969400000028" lon="-1.8192850000000007">
        <ele>344.429</ele>
        <time>2022-08-25T10:01:23Z</time>
      </trkpt>
      <trkpt lat="42.66967300000028" lon="-1.8192750000000006">
        <ele>344.470</ele>
        <time>2022-08-25T10:01:24Z</time>
      </trkpt>
      <trkpt lat="42.66964600000028" lon="-1.8192660000000007">
        <ele>344.464</ele>
        <time>2022-08-25T10:01:25Z</time>
      </trkpt>
      <trkpt lat="42.66956700000028" lon="-1.8192900000000007">
        <ele>344.406</ele>
        <time>2022-08-25T10:01:27Z</time>
      </trkpt>
      <trkpt lat="42.66952500000028" lon="-1.8193160000000008">
        <ele>344.416</ele>
        <time>2022-08-25T10:01:28Z</time>
      </trkpt>
      <trkpt lat="42.66941500000028" lon="-1.8194130000000008">
        <ele>344.409</ele>
        <time>2022-08-25T10:01:31Z</time>
      </trkpt>
      <trkpt lat="42.66938700000028" lon="-1.819442000000001">
        <ele>344.467</ele>
        <time>2022-08-25T10:01:32Z</time>
      </trkpt>
      <trkpt lat="42.66936100000028" lon="-1.819465000000001">
        <ele>344.227</ele>
        <time>2022-08-25T10:01:33Z</time>
      </trkpt>
      <trkpt lat="42.66933600000028" lon="-1.819480000000001">
        <ele>344.067</ele>
        <time>2022-08-25T10:01:34Z</time>
      </trkpt>
      <trkpt lat="42.66931300000028" lon="-1.8194900000000012">
        <ele>343.683</ele>
        <time>2022-08-25T10:01:35Z</time>
      </trkpt>
      <trkpt lat="42.66929100000028" lon="-1.819502000000001">
        <ele>343.675</ele>
        <time>2022-08-25T10:01:36Z</time>
      </trkpt>
      <trkpt lat="42.66926600000028" lon="-1.8195230000000011">
        <ele>343.482</ele>
        <time>2022-08-25T10:01:37Z</time>
      </trkpt>
      <trkpt lat="42.66920000000028" lon="-1.819669000000001">
        <ele>343.645</ele>
        <time>2022-08-25T10:01:41Z</time>
      </trkpt>
      <trkpt lat="42.66911300000028" lon="-1.819885000000001">
        <ele>343.831</ele>
        <time>2022-08-25T10:01:47Z</time>
      </trkpt>
      <trkpt lat="42.66904300000028" lon="-1.8201000000000012">
        <ele>344.042</ele>
        <time>2022-08-25T10:01:52Z</time>
      </trkpt>
      <trkpt lat="42.66903200000028" lon="-1.8201420000000013">
        <ele>344.023</ele>
        <time>2022-08-25T10:01:53Z</time>
      </trkpt>
      <trkpt lat="42.66902100000028" lon="-1.8201840000000014">
        <ele>344.083</ele>
        <time>2022-08-25T10:01:54Z</time>
      </trkpt>
      <trkpt lat="42.66901000000028" lon="-1.8202210000000014">
        <ele>344.011</ele>
        <time>2022-08-25T10:01:55Z</time>
      </trkpt>
      <trkpt lat="42.669005000000276" lon="-1.8202590000000014">
        <ele>344.009</ele>
        <time>2022-08-25T10:01:56Z</time>
      </trkpt>
      <trkpt lat="42.66897800000027" lon="-1.8203710000000013">
        <ele>344.283</ele>
        <time>2022-08-25T10:01:59Z</time>
      </trkpt>
      <trkpt lat="42.668949000000275" lon="-1.8204340000000012">
        <ele>344.453</ele>
        <time>2022-08-25T10:02:01Z</time>
      </trkpt>
      <trkpt lat="42.66893700000028" lon="-1.8204640000000012">
        <ele>344.483</ele>
        <time>2022-08-25T10:02:02Z</time>
      </trkpt>
      <trkpt lat="42.668926000000276" lon="-1.8205010000000013">
        <ele>344.659</ele>
        <time>2022-08-25T10:02:03Z</time>
      </trkpt>
      <trkpt lat="42.66890500000028" lon="-1.8205760000000013">
        <ele>344.641</ele>
        <time>2022-08-25T10:02:05Z</time>
      </trkpt>
      <trkpt lat="42.66889600000028" lon="-1.8206140000000013">
        <ele>344.838</ele>
        <time>2022-08-25T10:02:06Z</time>
      </trkpt>
      <trkpt lat="42.66888600000028" lon="-1.8206530000000012">
        <ele>344.851</ele>
        <time>2022-08-25T10:02:07Z</time>
      </trkpt>
      <trkpt lat="42.66885700000028" lon="-1.8207760000000013">
        <ele>345.097</ele>
        <time>2022-08-25T10:02:10Z</time>
      </trkpt>
      <trkpt lat="42.66883000000028" lon="-1.8208870000000013">
        <ele>345.298</ele>
        <time>2022-08-25T10:02:13Z</time>
      </trkpt>
      <trkpt lat="42.66875700000028" lon="-1.8210960000000012">
        <ele>345.297</ele>
        <time>2022-08-25T10:02:18Z</time>
      </trkpt>
      <trkpt lat="42.668738000000275" lon="-1.8211380000000013">
        <ele>345.223</ele>
        <time>2022-08-25T10:02:19Z</time>
      </trkpt>
      <trkpt lat="42.668721000000275" lon="-1.8211810000000013">
        <ele>345.225</ele>
        <time>2022-08-25T10:02:20Z</time>
      </trkpt>
      <trkpt lat="42.66861300000028" lon="-1.8214330000000012">
        <ele>345.209</ele>
        <time>2022-08-25T10:02:26Z</time>
      </trkpt>
      <trkpt lat="42.66859300000028" lon="-1.8214760000000012">
        <ele>345.480</ele>
        <time>2022-08-25T10:02:27Z</time>
      </trkpt>
      <trkpt lat="42.66850900000028" lon="-1.8216880000000013">
        <ele>345.270</ele>
        <time>2022-08-25T10:02:32Z</time>
      </trkpt>
      <trkpt lat="42.66847800000028" lon="-1.8217660000000013">
        <ele>345.280</ele>
        <time>2022-08-25T10:02:34Z</time>
      </trkpt>
      <trkpt lat="42.66846100000028" lon="-1.8218140000000014">
        <ele>345.256</ele>
        <time>2022-08-25T10:02:35Z</time>
      </trkpt>
      <trkpt lat="42.66844600000028" lon="-1.8218530000000013">
        <ele>345.268</ele>
        <time>2022-08-25T10:02:36Z</time>
      </trkpt>
      <trkpt lat="42.66843300000028" lon="-1.8218920000000012">
        <ele>345.235</ele>
        <time>2022-08-25T10:02:37Z</time>
      </trkpt>
      <trkpt lat="42.66842100000028" lon="-1.8219220000000012">
        <ele>345.448</ele>
        <time>2022-08-25T10:02:38Z</time>
      </trkpt>
      <trkpt lat="42.66840700000028" lon="-1.8219600000000011">
        <ele>345.444</ele>
        <time>2022-08-25T10:02:39Z</time>
      </trkpt>
      <trkpt lat="42.668394000000276" lon="-1.821996000000001">
        <ele>345.475</ele>
        <time>2022-08-25T10:02:40Z</time>
      </trkpt>
      <trkpt lat="42.668338000000276" lon="-1.8221540000000012">
        <ele>345.424</ele>
        <time>2022-08-25T10:02:44Z</time>
      </trkpt>
      <trkpt lat="42.66832900000028" lon="-1.822193000000001">
        <ele>345.404</ele>
        <time>2022-08-25T10:02:45Z</time>
      </trkpt>
      <trkpt lat="42.66830300000028" lon="-1.822279000000001">
        <ele>345.414</ele>
        <time>2022-08-25T10:02:47Z</time>
      </trkpt>
      <trkpt lat="42.66828400000028" lon="-1.822353000000001">
        <ele>345.409</ele>
        <time>2022-08-25T10:02:49Z</time>
      </trkpt>
      <trkpt lat="42.668274000000274" lon="-1.822393000000001">
        <ele>345.423</ele>
        <time>2022-08-25T10:02:50Z</time>
      </trkpt>
      <trkpt lat="42.66826300000027" lon="-1.822432000000001">
        <ele>345.483</ele>
        <time>2022-08-25T10:02:51Z</time>
      </trkpt>
      <trkpt lat="42.66820200000027" lon="-1.822593000000001">
        <ele>345.273</ele>
        <time>2022-08-25T10:02:55Z</time>
      </trkpt>
      <trkpt lat="42.66812400000027" lon="-1.822851000000001">
        <ele>345.049</ele>
        <time>2022-08-25T10:03:00Z</time>
      </trkpt>
      <trkpt lat="42.66811200000027" lon="-1.822909000000001">
        <ele>345.081</ele>
        <time>2022-08-25T10:03:01Z</time>
      </trkpt>
      <trkpt lat="42.66802300000027" lon="-1.823270000000001">
        <ele>344.428</ele>
        <time>2022-08-25T10:03:07Z</time>
      </trkpt>
      <trkpt lat="42.66800300000027" lon="-1.8233500000000011">
        <ele>344.011</ele>
        <time>2022-08-25T10:03:08Z</time>
      </trkpt>
      <trkpt lat="42.66796300000027" lon="-1.8235360000000012">
        <ele>343.477</ele>
        <time>2022-08-25T10:03:11Z</time>
      </trkpt>
      <trkpt lat="42.66794800000027" lon="-1.8236030000000012">
        <ele>343.428</ele>
        <time>2022-08-25T10:03:12Z</time>
      </trkpt>
      <trkpt lat="42.66792800000027" lon="-1.8236820000000011">
        <ele>343.427</ele>
        <time>2022-08-25T10:03:13Z</time>
      </trkpt>
      <trkpt lat="42.667879000000276" lon="-1.8238650000000012">
        <ele>343.268</ele>
        <time>2022-08-25T10:03:16Z</time>
      </trkpt>
      <trkpt lat="42.66785900000028" lon="-1.8239320000000012">
        <ele>343.214</ele>
        <time>2022-08-25T10:03:17Z</time>
      </trkpt>
      <trkpt lat="42.66783600000028" lon="-1.8240100000000012">
        <ele>343.009</ele>
        <time>2022-08-25T10:03:18Z</time>
      </trkpt>
      <trkpt lat="42.66781900000028" lon="-1.8240740000000013">
        <ele>343.053</ele>
        <time>2022-08-25T10:03:19Z</time>
      </trkpt>
      <trkpt lat="42.66780000000028" lon="-1.8241380000000014">
        <ele>343.073</ele>
        <time>2022-08-25T10:03:20Z</time>
      </trkpt>
      <trkpt lat="42.66778500000028" lon="-1.8241890000000014">
        <ele>343.063</ele>
        <time>2022-08-25T10:03:21Z</time>
      </trkpt>
      <trkpt lat="42.66767900000028" lon="-1.8244930000000015">
        <ele>342.829</ele>
        <time>2022-08-25T10:03:26Z</time>
      </trkpt>
      <trkpt lat="42.66758500000028" lon="-1.8247480000000014">
        <ele>342.881</ele>
        <time>2022-08-25T10:03:30Z</time>
      </trkpt>
      <trkpt lat="42.66754500000028" lon="-1.8248550000000014">
        <ele>342.658</ele>
        <time>2022-08-25T10:03:32Z</time>
      </trkpt>
      <trkpt lat="42.66752500000028" lon="-1.8249120000000014">
        <ele>342.631</ele>
        <time>2022-08-25T10:03:33Z</time>
      </trkpt>
      <trkpt lat="42.66750000000028" lon="-1.8249830000000014">
        <ele>342.637</ele>
        <time>2022-08-25T10:03:34Z</time>
      </trkpt>
      <trkpt lat="42.66748000000028" lon="-1.8250390000000014">
        <ele>342.668</ele>
        <time>2022-08-25T10:03:35Z</time>
      </trkpt>
      <trkpt lat="42.667462000000285" lon="-1.8250950000000015">
        <ele>342.666</ele>
        <time>2022-08-25T10:03:36Z</time>
      </trkpt>
      <trkpt lat="42.66744700000029" lon="-1.8251400000000015">
        <ele>342.429</ele>
        <time>2022-08-25T10:03:37Z</time>
      </trkpt>
      <trkpt lat="42.667428000000285" lon="-1.8251970000000015">
        <ele>342.221</ele>
        <time>2022-08-25T10:03:38Z</time>
      </trkpt>
      <trkpt lat="42.66738500000029" lon="-1.8253230000000016">
        <ele>342.009</ele>
        <time>2022-08-25T10:03:40Z</time>
      </trkpt>
      <trkpt lat="42.66725500000029" lon="-1.8257560000000015">
        <ele>341.867</ele>
        <time>2022-08-25T10:03:47Z</time>
      </trkpt>
      <trkpt lat="42.66723400000029" lon="-1.8258150000000015">
        <ele>341.687</ele>
        <time>2022-08-25T10:03:48Z</time>
      </trkpt>
      <trkpt lat="42.66721100000029" lon="-1.8258720000000015">
        <ele>341.657</ele>
        <time>2022-08-25T10:03:49Z</time>
      </trkpt>
      <trkpt lat="42.66718900000029" lon="-1.8259270000000014">
        <ele>341.653</ele>
        <time>2022-08-25T10:03:50Z</time>
      </trkpt>
      <trkpt lat="42.667047000000295" lon="-1.8262760000000013">
        <ele>341.425</ele>
        <time>2022-08-25T10:03:56Z</time>
      </trkpt>
      <trkpt lat="42.666999000000295" lon="-1.8263980000000013">
        <ele>341.272</ele>
        <time>2022-08-25T10:03:58Z</time>
      </trkpt>
      <trkpt lat="42.6669330000003" lon="-1.8265010000000013">
        <ele>341.225</ele>
        <time>2022-08-25T10:04:00Z</time>
      </trkpt>
      <trkpt lat="42.6668930000003" lon="-1.8265490000000013">
        <ele>341.061</ele>
        <time>2022-08-25T10:04:01Z</time>
      </trkpt>
      <trkpt lat="42.666810000000304" lon="-1.8266440000000013">
        <ele>341.082</ele>
        <time>2022-08-25T10:04:03Z</time>
      </trkpt>
      <trkpt lat="42.666745000000304" lon="-1.8267750000000014">
        <ele>340.627</ele>
        <time>2022-08-25T10:04:05Z</time>
      </trkpt>
      <trkpt lat="42.66673000000031" lon="-1.8268470000000014">
        <ele>340.468</ele>
        <time>2022-08-25T10:04:06Z</time>
      </trkpt>
      <trkpt lat="42.66672100000031" lon="-1.8269170000000015">
        <ele>340.414</ele>
        <time>2022-08-25T10:04:07Z</time>
      </trkpt>
      <trkpt lat="42.66672000000031" lon="-1.8269870000000015">
        <ele>340.209</ele>
        <time>2022-08-25T10:04:08Z</time>
      </trkpt>
      <trkpt lat="42.66672500000031" lon="-1.8270520000000015">
        <ele>340.273</ele>
        <time>2022-08-25T10:04:09Z</time>
      </trkpt>
      <trkpt lat="42.666730000000314" lon="-1.8271110000000015">
        <ele>340.083</ele>
        <time>2022-08-25T10:04:10Z</time>
      </trkpt>
      <trkpt lat="42.666732000000316" lon="-1.8271690000000014">
        <ele>340.073</ele>
        <time>2022-08-25T10:04:11Z</time>
      </trkpt>
      <trkpt lat="42.66672800000032" lon="-1.8272300000000015">
        <ele>340.079</ele>
        <time>2022-08-25T10:04:12Z</time>
      </trkpt>
      <trkpt lat="42.66671900000032" lon="-1.8272900000000014">
        <ele>340.491</ele>
        <time>2022-08-25T10:04:13Z</time>
      </trkpt>
      <trkpt lat="42.66670800000032" lon="-1.8273490000000014">
        <ele>340.498</ele>
        <time>2022-08-25T10:04:14Z</time>
      </trkpt>
      <trkpt lat="42.66666700000032" lon="-1.8275230000000013">
        <ele>340.651</ele>
        <time>2022-08-25T10:04:17Z</time>
      </trkpt>
      <trkpt lat="42.66665200000032" lon="-1.8275810000000012">
        <ele>340.627</ele>
        <time>2022-08-25T10:04:18Z</time>
      </trkpt>
      <trkpt lat="42.66663700000032" lon="-1.8276380000000012">
        <ele>340.668</ele>
        <time>2022-08-25T10:04:19Z</time>
      </trkpt>
      <trkpt lat="42.66661700000032" lon="-1.8277540000000012">
        <ele>340.287</ele>
        <time>2022-08-25T10:04:21Z</time>
      </trkpt>
      <trkpt lat="42.666605000000324" lon="-1.8278130000000012">
        <ele>340.242</ele>
        <time>2022-08-25T10:04:22Z</time>
      </trkpt>
      <trkpt lat="42.666593000000326" lon="-1.8278690000000013">
        <ele>340.226</ele>
        <time>2022-08-25T10:04:23Z</time>
      </trkpt>
      <trkpt lat="42.66658100000033" lon="-1.8279260000000013">
        <ele>340.209</ele>
        <time>2022-08-25T10:04:24Z</time>
      </trkpt>
      <trkpt lat="42.66656700000033" lon="-1.8279800000000013">
        <ele>340.049</ele>
        <time>2022-08-25T10:04:25Z</time>
      </trkpt>
      <trkpt lat="42.66655600000033" lon="-1.8280350000000012">
        <ele>340.019</ele>
        <time>2022-08-25T10:04:26Z</time>
      </trkpt>
      <trkpt lat="42.66652200000033" lon="-1.8281930000000013">
        <ele>340.089</ele>
        <time>2022-08-25T10:04:29Z</time>
      </trkpt>
      <trkpt lat="42.666512000000324" lon="-1.8282470000000013">
        <ele>340.085</ele>
        <time>2022-08-25T10:04:30Z</time>
      </trkpt>
      <trkpt lat="42.66649900000032" lon="-1.8282990000000012">
        <ele>340.077</ele>
        <time>2022-08-25T10:04:31Z</time>
      </trkpt>
      <trkpt lat="42.66647400000032" lon="-1.8284000000000011">
        <ele>340.264</ele>
        <time>2022-08-25T10:04:33Z</time>
      </trkpt>
      <trkpt lat="42.66642900000032" lon="-1.8285560000000012">
        <ele>340.857</ele>
        <time>2022-08-25T10:04:36Z</time>
      </trkpt>
      <trkpt lat="42.66634700000032" lon="-1.8288330000000013">
        <ele>340.863</ele>
        <time>2022-08-25T10:04:41Z</time>
      </trkpt>
      <trkpt lat="42.666329000000324" lon="-1.8288840000000013">
        <ele>340.874</ele>
        <time>2022-08-25T10:04:42Z</time>
      </trkpt>
      <trkpt lat="42.666312000000325" lon="-1.8289350000000013">
        <ele>340.673</ele>
        <time>2022-08-25T10:04:43Z</time>
      </trkpt>
      <trkpt lat="42.66622600000032" lon="-1.8291420000000014">
        <ele>340.285</ele>
        <time>2022-08-25T10:04:47Z</time>
      </trkpt>
      <trkpt lat="42.66619600000032" lon="-1.8291890000000013">
        <ele>340.213</ele>
        <time>2022-08-25T10:04:48Z</time>
      </trkpt>
      <trkpt lat="42.66606900000032" lon="-1.8293740000000014">
        <ele>339.809</ele>
        <time>2022-08-25T10:04:52Z</time>
      </trkpt>
      <trkpt lat="42.66603800000032" lon="-1.8294230000000014">
        <ele>339.828</ele>
        <time>2022-08-25T10:04:53Z</time>
      </trkpt>
      <trkpt lat="42.66600900000032" lon="-1.8294750000000013">
        <ele>339.888</ele>
        <time>2022-08-25T10:04:54Z</time>
      </trkpt>
      <trkpt lat="42.66597900000032" lon="-1.8295250000000014">
        <ele>339.838</ele>
        <time>2022-08-25T10:04:55Z</time>
      </trkpt>
      <trkpt lat="42.66594900000032" lon="-1.8295760000000014">
        <ele>339.864</ele>
        <time>2022-08-25T10:04:56Z</time>
      </trkpt>
      <trkpt lat="42.66592000000032" lon="-1.8296300000000014">
        <ele>339.896</ele>
        <time>2022-08-25T10:04:57Z</time>
      </trkpt>
      <trkpt lat="42.66589400000032" lon="-1.8296840000000014">
        <ele>339.833</ele>
        <time>2022-08-25T10:04:58Z</time>
      </trkpt>
      <trkpt lat="42.66587000000032" lon="-1.8297340000000015">
        <ele>339.886</ele>
        <time>2022-08-25T10:04:59Z</time>
      </trkpt>
      <trkpt lat="42.66584700000032" lon="-1.8297840000000016">
        <ele>339.862</ele>
        <time>2022-08-25T10:05:00Z</time>
      </trkpt>
      <trkpt lat="42.66582600000032" lon="-1.8298370000000017">
        <ele>339.873</ele>
        <time>2022-08-25T10:05:01Z</time>
      </trkpt>
      <trkpt lat="42.66580900000032" lon="-1.8298950000000016">
        <ele>339.866</ele>
        <time>2022-08-25T10:05:02Z</time>
      </trkpt>
      <trkpt lat="42.66578500000032" lon="-1.8300120000000015">
        <ele>339.829</ele>
        <time>2022-08-25T10:05:04Z</time>
      </trkpt>
      <trkpt lat="42.66577300000032" lon="-1.8300670000000014">
        <ele>339.821</ele>
        <time>2022-08-25T10:05:05Z</time>
      </trkpt>
      <trkpt lat="42.665758000000324" lon="-1.8301210000000014">
        <ele>339.609</ele>
        <time>2022-08-25T10:05:06Z</time>
      </trkpt>
      <trkpt lat="42.665746000000325" lon="-1.8301770000000015">
        <ele>339.657</ele>
        <time>2022-08-25T10:05:07Z</time>
      </trkpt>
      <trkpt lat="42.66573300000032" lon="-1.8302280000000015">
        <ele>339.447</ele>
        <time>2022-08-25T10:05:08Z</time>
      </trkpt>
      <trkpt lat="42.66572200000032" lon="-1.8302780000000016">
        <ele>339.447</ele>
        <time>2022-08-25T10:05:09Z</time>
      </trkpt>
      <trkpt lat="42.665710000000324" lon="-1.8303290000000016">
        <ele>339.453</ele>
        <time>2022-08-25T10:05:10Z</time>
      </trkpt>
      <trkpt lat="42.66568800000032" lon="-1.8304340000000017">
        <ele>339.435</ele>
        <time>2022-08-25T10:05:12Z</time>
      </trkpt>
      <trkpt lat="42.665681000000326" lon="-1.8304840000000018">
        <ele>339.442</ele>
        <time>2022-08-25T10:05:13Z</time>
      </trkpt>
      <trkpt lat="42.665673000000325" lon="-1.8305350000000018">
        <ele>339.625</ele>
        <time>2022-08-25T10:05:14Z</time>
      </trkpt>
      <trkpt lat="42.665665000000324" lon="-1.8305830000000018">
        <ele>339.641</ele>
        <time>2022-08-25T10:05:15Z</time>
      </trkpt>
      <trkpt lat="42.66565500000032" lon="-1.8306290000000018">
        <ele>339.632</ele>
        <time>2022-08-25T10:05:16Z</time>
      </trkpt>
      <trkpt lat="42.66564600000032" lon="-1.8306750000000018">
        <ele>339.625</ele>
        <time>2022-08-25T10:05:17Z</time>
      </trkpt>
      <trkpt lat="42.66557100000032" lon="-1.8310130000000018">
        <ele>339.826</ele>
        <time>2022-08-25T10:05:24Z</time>
      </trkpt>
      <trkpt lat="42.66555900000032" lon="-1.8310600000000017">
        <ele>339.808</ele>
        <time>2022-08-25T10:05:25Z</time>
      </trkpt>
      <trkpt lat="42.66554900000032" lon="-1.8311100000000018">
        <ele>339.809</ele>
        <time>2022-08-25T10:05:26Z</time>
      </trkpt>
      <trkpt lat="42.665426000000316" lon="-1.8314780000000017">
        <ele>340.273</ele>
        <time>2022-08-25T10:05:33Z</time>
      </trkpt>
      <trkpt lat="42.66532900000032" lon="-1.8317060000000016">
        <ele>340.073</ele>
        <time>2022-08-25T10:05:37Z</time>
      </trkpt>
      <trkpt lat="42.66530700000032" lon="-1.8317660000000016">
        <ele>340.053</ele>
        <time>2022-08-25T10:05:38Z</time>
      </trkpt>
      <trkpt lat="42.66528500000032" lon="-1.8318250000000016">
        <ele>339.829</ele>
        <time>2022-08-25T10:05:39Z</time>
      </trkpt>
      <trkpt lat="42.66526700000032" lon="-1.8318840000000016">
        <ele>339.821</ele>
        <time>2022-08-25T10:05:40Z</time>
      </trkpt>
      <trkpt lat="42.66525100000032" lon="-1.8319410000000016">
        <ele>339.878</ele>
        <time>2022-08-25T10:05:41Z</time>
      </trkpt>
      <trkpt lat="42.66521400000032" lon="-1.8320540000000016">
        <ele>339.861</ele>
        <time>2022-08-25T10:05:43Z</time>
      </trkpt>
      <trkpt lat="42.66514600000032" lon="-1.8322270000000016">
        <ele>339.427</ele>
        <time>2022-08-25T10:05:46Z</time>
      </trkpt>
      <trkpt lat="42.66513000000032" lon="-1.8322710000000015">
        <ele>339.488</ele>
        <time>2022-08-25T10:05:47Z</time>
      </trkpt>
      <trkpt lat="42.66511200000032" lon="-1.8323220000000016">
        <ele>339.443</ele>
        <time>2022-08-25T10:05:48Z</time>
      </trkpt>
      <trkpt lat="42.665091000000324" lon="-1.8323720000000017">
        <ele>339.264</ele>
        <time>2022-08-25T10:05:49Z</time>
      </trkpt>
      <trkpt lat="42.665017000000326" lon="-1.8325300000000018">
        <ele>339.210</ele>
        <time>2022-08-25T10:05:52Z</time>
      </trkpt>
      <trkpt lat="42.66499600000033" lon="-1.8325820000000017">
        <ele>339.209</ele>
        <time>2022-08-25T10:05:53Z</time>
      </trkpt>
      <trkpt lat="42.66497500000033" lon="-1.8326320000000018">
        <ele>339.235</ele>
        <time>2022-08-25T10:05:54Z</time>
      </trkpt>
      <trkpt lat="42.664954000000336" lon="-1.8326830000000018">
        <ele>339.265</ele>
        <time>2022-08-25T10:05:55Z</time>
      </trkpt>
      <trkpt lat="42.664932000000334" lon="-1.832733000000002">
        <ele>339.225</ele>
        <time>2022-08-25T10:05:56Z</time>
      </trkpt>
      <trkpt lat="42.66491000000033" lon="-1.832782000000002">
        <ele>339.041</ele>
        <time>2022-08-25T10:05:57Z</time>
      </trkpt>
      <trkpt lat="42.664889000000336" lon="-1.8328310000000019">
        <ele>339.013</ele>
        <time>2022-08-25T10:05:58Z</time>
      </trkpt>
      <trkpt lat="42.66486800000034" lon="-1.8328800000000018">
        <ele>339.050</ele>
        <time>2022-08-25T10:05:59Z</time>
      </trkpt>
      <trkpt lat="42.66480300000034" lon="-1.8330260000000018">
        <ele>339.013</ele>
        <time>2022-08-25T10:06:02Z</time>
      </trkpt>
      <trkpt lat="42.66476300000034" lon="-1.8331270000000017">
        <ele>339.029</ele>
        <time>2022-08-25T10:06:04Z</time>
      </trkpt>
      <trkpt lat="42.66473900000034" lon="-1.8331750000000018">
        <ele>339.050</ele>
        <time>2022-08-25T10:06:05Z</time>
      </trkpt>
      <trkpt lat="42.664715000000335" lon="-1.8332220000000017">
        <ele>339.069</ele>
        <time>2022-08-25T10:06:06Z</time>
      </trkpt>
      <trkpt lat="42.664687000000335" lon="-1.8332660000000016">
        <ele>339.004</ele>
        <time>2022-08-25T10:06:07Z</time>
      </trkpt>
      <trkpt lat="42.664664000000336" lon="-1.8333110000000017">
        <ele>339.024</ele>
        <time>2022-08-25T10:06:08Z</time>
      </trkpt>
      <trkpt lat="42.66464000000033" lon="-1.8333520000000016">
        <ele>339.009</ele>
        <time>2022-08-25T10:06:09Z</time>
      </trkpt>
      <trkpt lat="42.66459200000033" lon="-1.8334370000000015">
        <ele>339.087</ele>
        <time>2022-08-25T10:06:11Z</time>
      </trkpt>
      <trkpt lat="42.664569000000334" lon="-1.8334770000000016">
        <ele>339.037</ele>
        <time>2022-08-25T10:06:12Z</time>
      </trkpt>
      <trkpt lat="42.66454200000033" lon="-1.8335250000000016">
        <ele>339.077</ele>
        <time>2022-08-25T10:06:13Z</time>
      </trkpt>
      <trkpt lat="42.664524000000334" lon="-1.8335570000000017">
        <ele>339.073</ele>
        <time>2022-08-25T10:06:14Z</time>
      </trkpt>
      <trkpt lat="42.66444300000033" lon="-1.8337320000000017">
        <ele>338.835</ele>
        <time>2022-08-25T10:06:18Z</time>
      </trkpt>
      <trkpt lat="42.664428000000335" lon="-1.8337770000000018">
        <ele>338.872</ele>
        <time>2022-08-25T10:06:19Z</time>
      </trkpt>
      <trkpt lat="42.66441000000034" lon="-1.8338240000000017">
        <ele>338.855</ele>
        <time>2022-08-25T10:06:20Z</time>
      </trkpt>
      <trkpt lat="42.66435800000034" lon="-1.8339640000000017">
        <ele>338.891</ele>
        <time>2022-08-25T10:06:23Z</time>
      </trkpt>
      <trkpt lat="42.66433400000034" lon="-1.8340580000000017">
        <ele>339.042</ele>
        <time>2022-08-25T10:06:25Z</time>
      </trkpt>
      <trkpt lat="42.66432500000034" lon="-1.8341070000000017">
        <ele>339.054</ele>
        <time>2022-08-25T10:06:26Z</time>
      </trkpt>
      <trkpt lat="42.66431800000034" lon="-1.8341540000000016">
        <ele>339.256</ele>
        <time>2022-08-25T10:06:27Z</time>
      </trkpt>
      <trkpt lat="42.66431500000034" lon="-1.8342000000000016">
        <ele>339.611</ele>
        <time>2022-08-25T10:06:28Z</time>
      </trkpt>
      <trkpt lat="42.66431300000034" lon="-1.8342920000000016">
        <ele>339.809</ele>
        <time>2022-08-25T10:06:30Z</time>
      </trkpt>
      <trkpt lat="42.66431500000034" lon="-1.8343280000000015">
        <ele>340.026</ele>
        <time>2022-08-25T10:06:31Z</time>
      </trkpt>
      <trkpt lat="42.664314000000346" lon="-1.8343820000000015">
        <ele>340.086</ele>
        <time>2022-08-25T10:06:32Z</time>
      </trkpt>
      <trkpt lat="42.66431200000034" lon="-1.8344270000000016">
        <ele>340.246</ele>
        <time>2022-08-25T10:06:33Z</time>
      </trkpt>
      <trkpt lat="42.66430400000034" lon="-1.8345150000000017">
        <ele>340.422</ele>
        <time>2022-08-25T10:06:35Z</time>
      </trkpt>
      <trkpt lat="42.66430100000034" lon="-1.8345490000000018">
        <ele>340.684</ele>
        <time>2022-08-25T10:06:36Z</time>
      </trkpt>
      <trkpt lat="42.66429600000034" lon="-1.8346010000000017">
        <ele>340.871</ele>
        <time>2022-08-25T10:06:37Z</time>
      </trkpt>
      <trkpt lat="42.66429300000034" lon="-1.8346450000000016">
        <ele>340.864</ele>
        <time>2022-08-25T10:06:38Z</time>
      </trkpt>
      <trkpt lat="42.66428400000034" lon="-1.8347280000000017">
        <ele>340.880</ele>
        <time>2022-08-25T10:06:40Z</time>
      </trkpt>
      <trkpt lat="42.664280000000346" lon="-1.8347730000000018">
        <ele>340.821</ele>
        <time>2022-08-25T10:06:41Z</time>
      </trkpt>
      <trkpt lat="42.66423900000034" lon="-1.8350320000000018">
        <ele>340.876</ele>
        <time>2022-08-25T10:06:47Z</time>
      </trkpt>
      <trkpt lat="42.66422600000034" lon="-1.8351160000000017">
        <ele>341.090</ele>
        <time>2022-08-25T10:06:49Z</time>
      </trkpt>
      <trkpt lat="42.66420200000034" lon="-1.8352410000000017">
        <ele>341.219</ele>
        <time>2022-08-25T10:06:52Z</time>
      </trkpt>
      <trkpt lat="42.66418800000034" lon="-1.8353240000000017">
        <ele>341.609</ele>
        <time>2022-08-25T10:06:54Z</time>
      </trkpt>
      <trkpt lat="42.66418200000034" lon="-1.8353600000000017">
        <ele>341.838</ele>
        <time>2022-08-25T10:06:55Z</time>
      </trkpt>
      <trkpt lat="42.66417600000034" lon="-1.8353960000000016">
        <ele>341.848</ele>
        <time>2022-08-25T10:06:56Z</time>
      </trkpt>
      <trkpt lat="42.66416900000034" lon="-1.8354350000000015">
        <ele>342.078</ele>
        <time>2022-08-25T10:06:57Z</time>
      </trkpt>
      <trkpt lat="42.664165000000345" lon="-1.8354680000000014">
        <ele>342.024</ele>
        <time>2022-08-25T10:06:58Z</time>
      </trkpt>
      <trkpt lat="42.66414100000034" lon="-1.8356440000000014">
        <ele>342.416</ele>
        <time>2022-08-25T10:07:02Z</time>
      </trkpt>
      <trkpt lat="42.66412100000034" lon="-1.8357680000000014">
        <ele>342.653</ele>
        <time>2022-08-25T10:07:05Z</time>
      </trkpt>
      <trkpt lat="42.664117000000346" lon="-1.8358040000000013">
        <ele>342.656</ele>
        <time>2022-08-25T10:07:06Z</time>
      </trkpt>
      <trkpt lat="42.664114000000346" lon="-1.8358370000000013">
        <ele>342.672</ele>
        <time>2022-08-25T10:07:07Z</time>
      </trkpt>
      <trkpt lat="42.66411000000035" lon="-1.8358750000000013">
        <ele>342.673</ele>
        <time>2022-08-25T10:07:08Z</time>
      </trkpt>
      <trkpt lat="42.66409100000035" lon="-1.8360460000000012">
        <ele>342.827</ele>
        <time>2022-08-25T10:07:12Z</time>
      </trkpt>
      <trkpt lat="42.66408500000035" lon="-1.836085000000001">
        <ele>343.068</ele>
        <time>2022-08-25T10:07:13Z</time>
      </trkpt>
      <trkpt lat="42.66406400000035" lon="-1.836202000000001">
        <ele>343.014</ele>
        <time>2022-08-25T10:07:16Z</time>
      </trkpt>
      <trkpt lat="42.66403900000035" lon="-1.836420000000001">
        <ele>343.409</ele>
        <time>2022-08-25T10:07:21Z</time>
      </trkpt>
      <trkpt lat="42.66403000000035" lon="-1.8365110000000011">
        <ele>343.423</ele>
        <time>2022-08-25T10:07:23Z</time>
      </trkpt>
      <trkpt lat="42.664029000000355" lon="-1.8365540000000011">
        <ele>343.473</ele>
        <time>2022-08-25T10:07:24Z</time>
      </trkpt>
      <trkpt lat="42.66402700000035" lon="-1.8365970000000011">
        <ele>343.493</ele>
        <time>2022-08-25T10:07:25Z</time>
      </trkpt>
      <trkpt lat="42.66402500000035" lon="-1.8366370000000012">
        <ele>343.489</ele>
        <time>2022-08-25T10:07:26Z</time>
      </trkpt>
      <trkpt lat="42.66402200000035" lon="-1.8366790000000013">
        <ele>343.481</ele>
        <time>2022-08-25T10:07:27Z</time>
      </trkpt>
      <trkpt lat="42.66402000000035" lon="-1.8367200000000012">
        <ele>343.468</ele>
        <time>2022-08-25T10:07:28Z</time>
      </trkpt>
      <trkpt lat="42.66401700000035" lon="-1.8367630000000013">
        <ele>343.491</ele>
        <time>2022-08-25T10:07:29Z</time>
      </trkpt>
      <trkpt lat="42.66401600000035" lon="-1.8368030000000013">
        <ele>343.657</ele>
        <time>2022-08-25T10:07:30Z</time>
      </trkpt>
      <trkpt lat="42.664015000000354" lon="-1.8368440000000013">
        <ele>343.868</ele>
        <time>2022-08-25T10:07:31Z</time>
      </trkpt>
      <trkpt lat="42.664006000000356" lon="-1.8370510000000013">
        <ele>344.229</ele>
        <time>2022-08-25T10:07:36Z</time>
      </trkpt>
      <trkpt lat="42.664004000000354" lon="-1.8370890000000013">
        <ele>344.400</ele>
        <time>2022-08-25T10:07:37Z</time>
      </trkpt>
      <trkpt lat="42.664004000000354" lon="-1.8371270000000013">
        <ele>344.420</ele>
        <time>2022-08-25T10:07:38Z</time>
      </trkpt>
      <trkpt lat="42.664001000000354" lon="-1.8371650000000013">
        <ele>344.609</ele>
        <time>2022-08-25T10:07:39Z</time>
      </trkpt>
      <trkpt lat="42.66399300000035" lon="-1.8372440000000012">
        <ele>345.083</ele>
        <time>2022-08-25T10:07:41Z</time>
      </trkpt>
      <trkpt lat="42.663987000000354" lon="-1.8372810000000013">
        <ele>345.223</ele>
        <time>2022-08-25T10:07:42Z</time>
      </trkpt>
      <trkpt lat="42.66398200000035" lon="-1.8373140000000012">
        <ele>345.293</ele>
        <time>2022-08-25T10:07:43Z</time>
      </trkpt>
      <trkpt lat="42.66397400000035" lon="-1.8373490000000012">
        <ele>345.499</ele>
        <time>2022-08-25T10:07:44Z</time>
      </trkpt>
      <trkpt lat="42.66396400000035" lon="-1.8373810000000013">
        <ele>345.491</ele>
        <time>2022-08-25T10:07:45Z</time>
      </trkpt>
      <trkpt lat="42.663926000000345" lon="-1.8374630000000012">
        <ele>345.478</ele>
        <time>2022-08-25T10:07:48Z</time>
      </trkpt>
      <trkpt lat="42.66392400000034" lon="-1.8374760000000012">
        <ele>345.411</ele>
        <time>2022-08-25T10:07:49Z</time>
      </trkpt>
      <trkpt lat="42.66392700000034" lon="-1.8374820000000012">
        <ele>345.467</ele>
        <time>2022-08-25T10:07:50Z</time>
      </trkpt>
      <trkpt lat="42.66393400000034" lon="-1.837486000000001">
        <ele>345.438</ele>
        <time>2022-08-25T10:07:51Z</time>
      </trkpt>
      <trkpt lat="42.66394200000034" lon="-1.837491000000001">
        <ele>345.626</ele>
        <time>2022-08-25T10:07:52Z</time>
      </trkpt>
      <trkpt lat="42.66395200000034" lon="-1.8374960000000011">
        <ele>345.647</ele>
        <time>2022-08-25T10:07:53Z</time>
      </trkpt>
      <trkpt lat="42.66395800000034" lon="-1.8375010000000012">
        <ele>345.611</ele>
        <time>2022-08-25T10:07:54Z</time>
      </trkpt>
      <trkpt lat="42.663960000000344" lon="-1.8375060000000012">
        <ele>345.609</ele>
        <time>2022-08-25T10:07:55Z</time>
      </trkpt>
      <trkpt lat="42.663963000000344" lon="-1.837510000000001">
        <ele>345.673</ele>
        <time>2022-08-25T10:07:56Z</time>
      </trkpt>
      <trkpt lat="42.66396600000034" lon="-1.837516000000001">
        <ele>345.813</ele>
        <time>2022-08-25T10:07:57Z</time>
      </trkpt>
      <trkpt lat="42.66396900000034" lon="-1.837528000000001">
        <ele>345.893</ele>
        <time>2022-08-25T10:07:58Z</time>
      </trkpt>
      <trkpt lat="42.66397200000034" lon="-1.837544000000001">
        <ele>345.839</ele>
        <time>2022-08-25T10:07:59Z</time>
      </trkpt>
      <trkpt lat="42.66396200000034" lon="-1.837590000000001">
        <ele>346.061</ele>
        <time>2022-08-25T10:08:01Z</time>
      </trkpt>
      <trkpt lat="42.663907000000336" lon="-1.8377770000000009">
        <ele>346.058</ele>
        <time>2022-08-25T10:08:06Z</time>
      </trkpt>
      <trkpt lat="42.66380800000034" lon="-1.8380660000000009">
        <ele>346.231</ele>
        <time>2022-08-25T10:08:13Z</time>
      </trkpt>
      <trkpt lat="42.663719000000334" lon="-1.8382900000000009">
        <ele>346.697</ele>
        <time>2022-08-25T10:08:18Z</time>
      </trkpt>
      <trkpt lat="42.663688000000334" lon="-1.8383870000000009">
        <ele>346.428</ele>
        <time>2022-08-25T10:08:20Z</time>
      </trkpt>
      <trkpt lat="42.663674000000334" lon="-1.8384360000000008">
        <ele>346.277</ele>
        <time>2022-08-25T10:08:21Z</time>
      </trkpt>
      <trkpt lat="42.66365900000034" lon="-1.8384830000000008">
        <ele>346.261</ele>
        <time>2022-08-25T10:08:22Z</time>
      </trkpt>
      <trkpt lat="42.663648000000336" lon="-1.8385320000000007">
        <ele>346.427</ele>
        <time>2022-08-25T10:08:23Z</time>
      </trkpt>
      <trkpt lat="42.663631000000336" lon="-1.8386280000000008">
        <ele>346.209</ele>
        <time>2022-08-25T10:08:25Z</time>
      </trkpt>
      <trkpt lat="42.66362400000034" lon="-1.8386770000000008">
        <ele>346.058</ele>
        <time>2022-08-25T10:08:26Z</time>
      </trkpt>
      <trkpt lat="42.66362000000034" lon="-1.8387240000000007">
        <ele>346.088</ele>
        <time>2022-08-25T10:08:27Z</time>
      </trkpt>
      <trkpt lat="42.66361500000034" lon="-1.8387700000000007">
        <ele>346.028</ele>
        <time>2022-08-25T10:08:28Z</time>
      </trkpt>
      <trkpt lat="42.663611000000344" lon="-1.8388050000000007">
        <ele>346.024</ele>
        <time>2022-08-25T10:08:29Z</time>
      </trkpt>
      <trkpt lat="42.66360300000034" lon="-1.8388480000000007">
        <ele>346.036</ele>
        <time>2022-08-25T10:08:30Z</time>
      </trkpt>
      <trkpt lat="42.66359500000034" lon="-1.8388960000000008">
        <ele>346.093</ele>
        <time>2022-08-25T10:08:31Z</time>
      </trkpt>
      <trkpt lat="42.66359000000034" lon="-1.8389350000000007">
        <ele>346.056</ele>
        <time>2022-08-25T10:08:32Z</time>
      </trkpt>
      <trkpt lat="42.66358500000034" lon="-1.8389720000000007">
        <ele>346.232</ele>
        <time>2022-08-25T10:08:33Z</time>
      </trkpt>
      <trkpt lat="42.66358000000034" lon="-1.8390050000000007">
        <ele>346.483</ele>
        <time>2022-08-25T10:08:34Z</time>
      </trkpt>
      <trkpt lat="42.66357600000034" lon="-1.8390380000000006">
        <ele>346.465</ele>
        <time>2022-08-25T10:08:35Z</time>
      </trkpt>
      <trkpt lat="42.66357200000034" lon="-1.8390690000000005">
        <ele>346.468</ele>
        <time>2022-08-25T10:08:36Z</time>
      </trkpt>
      <trkpt lat="42.663571000000346" lon="-1.8391010000000005">
        <ele>346.614</ele>
        <time>2022-08-25T10:08:37Z</time>
      </trkpt>
      <trkpt lat="42.66356700000035" lon="-1.8391300000000006">
        <ele>346.609</ele>
        <time>2022-08-25T10:08:38Z</time>
      </trkpt>
      <trkpt lat="42.66356100000035" lon="-1.8391580000000005">
        <ele>346.847</ele>
        <time>2022-08-25T10:08:39Z</time>
      </trkpt>
      <trkpt lat="42.66355600000035" lon="-1.8392140000000006">
        <ele>347.257</ele>
        <time>2022-08-25T10:08:41Z</time>
      </trkpt>
      <trkpt lat="42.66355600000035" lon="-1.8392400000000007">
        <ele>347.647</ele>
        <time>2022-08-25T10:08:42Z</time>
      </trkpt>
      <trkpt lat="42.663563000000345" lon="-1.8393640000000007">
        <ele>348.483</ele>
        <time>2022-08-25T10:08:46Z</time>
      </trkpt>
      <trkpt lat="42.663563000000345" lon="-1.8393940000000006">
        <ele>348.645</ele>
        <time>2022-08-25T10:08:47Z</time>
      </trkpt>
      <trkpt lat="42.66356100000034" lon="-1.8394240000000006">
        <ele>348.682</ele>
        <time>2022-08-25T10:08:48Z</time>
      </trkpt>
      <trkpt lat="42.66355800000034" lon="-1.8394560000000006">
        <ele>348.895</ele>
        <time>2022-08-25T10:08:49Z</time>
      </trkpt>
      <trkpt lat="42.663552000000344" lon="-1.8394850000000007">
        <ele>349.061</ele>
        <time>2022-08-25T10:08:50Z</time>
      </trkpt>
      <trkpt lat="42.66354400000034" lon="-1.8396560000000006">
        <ele>349.272</ele>
        <time>2022-08-25T10:08:55Z</time>
      </trkpt>
      <trkpt lat="42.66354200000034" lon="-1.8396850000000007">
        <ele>349.292</ele>
        <time>2022-08-25T10:08:56Z</time>
      </trkpt>
      <trkpt lat="42.66354000000034" lon="-1.8397090000000007">
        <ele>349.273</ele>
        <time>2022-08-25T10:08:57Z</time>
      </trkpt>
      <trkpt lat="42.66353900000034" lon="-1.8397440000000007">
        <ele>349.220</ele>
        <time>2022-08-25T10:08:58Z</time>
      </trkpt>
      <trkpt lat="42.663538000000344" lon="-1.8397700000000008">
        <ele>349.409</ele>
        <time>2022-08-25T10:08:59Z</time>
      </trkpt>
      <trkpt lat="42.663537000000346" lon="-1.8397960000000009">
        <ele>349.290</ele>
        <time>2022-08-25T10:09:00Z</time>
      </trkpt>
      <trkpt lat="42.66353000000035" lon="-1.8398530000000008">
        <ele>349.680</ele>
        <time>2022-08-25T10:09:02Z</time>
      </trkpt>
      <trkpt lat="42.66350900000035" lon="-1.8399120000000009">
        <ele>349.880</ele>
        <time>2022-08-25T10:09:04Z</time>
      </trkpt>
      <trkpt lat="42.66349600000035" lon="-1.8399400000000008">
        <ele>349.836</ele>
        <time>2022-08-25T10:09:05Z</time>
      </trkpt>
      <trkpt lat="42.66343700000035" lon="-1.8400480000000008">
        <ele>350.088</ele>
        <time>2022-08-25T10:09:09Z</time>
      </trkpt>
      <trkpt lat="42.66334700000035" lon="-1.8401730000000007">
        <ele>350.485</ele>
        <time>2022-08-25T10:09:14Z</time>
      </trkpt>
      <trkpt lat="42.66319900000035" lon="-1.8403710000000006">
        <ele>350.228</ele>
        <time>2022-08-25T10:09:20Z</time>
      </trkpt>
      <trkpt lat="42.663180000000345" lon="-1.8404040000000006">
        <ele>350.224</ele>
        <time>2022-08-25T10:09:21Z</time>
      </trkpt>
      <trkpt lat="42.66304400000035" lon="-1.8406020000000005">
        <ele>348.625</ele>
        <time>2022-08-25T10:09:26Z</time>
      </trkpt>
      <trkpt lat="42.66285300000035" lon="-1.8408580000000005">
        <ele>347.424</ele>
        <time>2022-08-25T10:09:31Z</time>
      </trkpt>
      <trkpt lat="42.662814000000346" lon="-1.8409080000000007">
        <ele>347.204</ele>
        <time>2022-08-25T10:09:32Z</time>
      </trkpt>
      <trkpt lat="42.66277900000035" lon="-1.8409570000000006">
        <ele>346.614</ele>
        <time>2022-08-25T10:09:33Z</time>
      </trkpt>
      <trkpt lat="42.66270800000035" lon="-1.8410580000000005">
        <ele>346.209</ele>
        <time>2022-08-25T10:09:35Z</time>
      </trkpt>
      <trkpt lat="42.66255900000035" lon="-1.8412680000000006">
        <ele>345.883</ele>
        <time>2022-08-25T10:09:39Z</time>
      </trkpt>
      <trkpt lat="42.66252300000035" lon="-1.8413150000000005">
        <ele>345.673</ele>
        <time>2022-08-25T10:09:40Z</time>
      </trkpt>
      <trkpt lat="42.662479000000346" lon="-1.8413530000000005">
        <ele>345.473</ele>
        <time>2022-08-25T10:09:41Z</time>
      </trkpt>
      <trkpt lat="42.66238000000035" lon="-1.8414260000000005">
        <ele>345.289</ele>
        <time>2022-08-25T10:09:43Z</time>
      </trkpt>
      <trkpt lat="42.66233400000035" lon="-1.8414630000000005">
        <ele>345.211</ele>
        <time>2022-08-25T10:09:44Z</time>
      </trkpt>
      <trkpt lat="42.66229700000035" lon="-1.8414980000000005">
        <ele>345.688</ele>
        <time>2022-08-25T10:09:45Z</time>
      </trkpt>
      <trkpt lat="42.66226400000035" lon="-1.8415390000000005">
        <ele>345.411</ele>
        <time>2022-08-25T10:09:46Z</time>
      </trkpt>
      <trkpt lat="42.66216000000035" lon="-1.8416970000000006">
        <ele>345.637</ele>
        <time>2022-08-25T10:09:49Z</time>
      </trkpt>
      <trkpt lat="42.662130000000346" lon="-1.8417580000000007">
        <ele>345.868</ele>
        <time>2022-08-25T10:09:50Z</time>
      </trkpt>
      <trkpt lat="42.66207600000035" lon="-1.8418810000000008">
        <ele>346.063</ele>
        <time>2022-08-25T10:09:52Z</time>
      </trkpt>
      <trkpt lat="42.66193200000035" lon="-1.8422290000000008">
        <ele>345.844</ele>
        <time>2022-08-25T10:09:57Z</time>
      </trkpt>
      <trkpt lat="42.66183600000035" lon="-1.8424860000000007">
        <ele>345.218</ele>
        <time>2022-08-25T10:10:00Z</time>
      </trkpt>
      <trkpt lat="42.661812000000346" lon="-1.8425670000000007">
        <ele>345.009</ele>
        <time>2022-08-25T10:10:01Z</time>
      </trkpt>
      <trkpt lat="42.661790000000344" lon="-1.8426470000000008">
        <ele>344.487</ele>
        <time>2022-08-25T10:10:02Z</time>
      </trkpt>
      <trkpt lat="42.66177200000035" lon="-1.8427220000000009">
        <ele>344.257</ele>
        <time>2022-08-25T10:10:03Z</time>
      </trkpt>
      <trkpt lat="42.661756000000345" lon="-1.8427980000000008">
        <ele>344.027</ele>
        <time>2022-08-25T10:10:04Z</time>
      </trkpt>
      <trkpt lat="42.66174300000034" lon="-1.8428710000000008">
        <ele>343.823</ele>
        <time>2022-08-25T10:10:05Z</time>
      </trkpt>
      <trkpt lat="42.66173300000034" lon="-1.8429390000000008">
        <ele>344.085</ele>
        <time>2022-08-25T10:10:06Z</time>
      </trkpt>
      <trkpt lat="42.66172700000034" lon="-1.8430060000000008">
        <ele>344.042</ele>
        <time>2022-08-25T10:10:07Z</time>
      </trkpt>
      <trkpt lat="42.661720000000344" lon="-1.8430730000000008">
        <ele>343.865</ele>
        <time>2022-08-25T10:10:08Z</time>
      </trkpt>
      <trkpt lat="42.661714000000345" lon="-1.8431380000000008">
        <ele>344.051</ele>
        <time>2022-08-25T10:10:09Z</time>
      </trkpt>
      <trkpt lat="42.661708000000345" lon="-1.8432030000000008">
        <ele>344.052</ele>
        <time>2022-08-25T10:10:10Z</time>
      </trkpt>
      <trkpt lat="42.661703000000344" lon="-1.8432680000000008">
        <ele>344.072</ele>
        <time>2022-08-25T10:10:11Z</time>
      </trkpt>
      <trkpt lat="42.66169500000034" lon="-1.8433280000000007">
        <ele>344.013</ele>
        <time>2022-08-25T10:10:12Z</time>
      </trkpt>
      <trkpt lat="42.66168700000034" lon="-1.8433870000000008">
        <ele>344.214</ele>
        <time>2022-08-25T10:10:13Z</time>
      </trkpt>
      <trkpt lat="42.66167800000034" lon="-1.8434430000000008">
        <ele>344.209</ele>
        <time>2022-08-25T10:10:14Z</time>
      </trkpt>
      <trkpt lat="42.661604000000345" lon="-1.8437560000000008">
        <ele>344.278</ele>
        <time>2022-08-25T10:10:19Z</time>
      </trkpt>
      <trkpt lat="42.661570000000346" lon="-1.8438920000000008">
        <ele>344.288</ele>
        <time>2022-08-25T10:10:21Z</time>
      </trkpt>
      <trkpt lat="42.661463000000346" lon="-1.8442290000000008">
        <ele>344.058</ele>
        <time>2022-08-25T10:10:26Z</time>
      </trkpt>
      <trkpt lat="42.66144500000035" lon="-1.8442820000000009">
        <ele>344.084</ele>
        <time>2022-08-25T10:10:27Z</time>
      </trkpt>
      <trkpt lat="42.661421000000345" lon="-1.844346000000001">
        <ele>344.216</ele>
        <time>2022-08-25T10:10:28Z</time>
      </trkpt>
      <trkpt lat="42.661368000000344" lon="-1.844492000000001">
        <ele>344.023</ele>
        <time>2022-08-25T10:10:30Z</time>
      </trkpt>
      <trkpt lat="42.66131200000034" lon="-1.844683000000001">
        <ele>343.256</ele>
        <time>2022-08-25T10:10:33Z</time>
      </trkpt>
      <trkpt lat="42.661309000000344" lon="-1.8447570000000009">
        <ele>343.212</ele>
        <time>2022-08-25T10:10:34Z</time>
      </trkpt>
      <trkpt lat="42.66131600000034" lon="-1.844818000000001">
        <ele>343.263</ele>
        <time>2022-08-25T10:10:35Z</time>
      </trkpt>
      <trkpt lat="42.66137300000034" lon="-1.844986000000001">
        <ele>343.039</ele>
        <time>2022-08-25T10:10:38Z</time>
      </trkpt>
      <trkpt lat="42.66141300000034" lon="-1.8451240000000009">
        <ele>342.601</ele>
        <time>2022-08-25T10:10:40Z</time>
      </trkpt>
      <trkpt lat="42.66145200000034" lon="-1.845239000000001">
        <ele>342.421</ele>
        <time>2022-08-25T10:10:42Z</time>
      </trkpt>
      <trkpt lat="42.661504000000335" lon="-1.845357000000001">
        <ele>342.009</ele>
        <time>2022-08-25T10:10:44Z</time>
      </trkpt>
      <trkpt lat="42.66152300000034" lon="-1.845408000000001">
        <ele>341.864</ele>
        <time>2022-08-25T10:10:45Z</time>
      </trkpt>
      <trkpt lat="42.661535000000335" lon="-1.845430000000001">
        <ele>341.884</ele>
        <time>2022-08-25T10:10:46Z</time>
      </trkpt>
      <trkpt lat="42.661546000000335" lon="-1.845451000000001">
        <ele>341.684</ele>
        <time>2022-08-25T10:10:47Z</time>
      </trkpt>
      <trkpt lat="42.661554000000336" lon="-1.845465000000001">
        <ele>341.690</ele>
        <time>2022-08-25T10:10:48Z</time>
      </trkpt>
      <trkpt lat="42.661566000000334" lon="-1.845478000000001">
        <ele>341.662</ele>
        <time>2022-08-25T10:10:49Z</time>
      </trkpt>
      <trkpt lat="42.66157800000033" lon="-1.845491000000001">
        <ele>341.429</ele>
        <time>2022-08-25T10:10:50Z</time>
      </trkpt>
      <trkpt lat="42.66158400000033" lon="-1.845505000000001">
        <ele>341.462</ele>
        <time>2022-08-25T10:10:51Z</time>
      </trkpt>
      <trkpt lat="42.66159100000033" lon="-1.845517000000001">
        <ele>341.458</ele>
        <time>2022-08-25T10:10:52Z</time>
      </trkpt>
      <trkpt lat="42.66159900000033" lon="-1.8455260000000009">
        <ele>341.419</ele>
        <time>2022-08-25T10:10:53Z</time>
      </trkpt>
      <trkpt lat="42.66160800000033" lon="-1.845534000000001">
        <ele>341.498</ele>
        <time>2022-08-25T10:10:54Z</time>
      </trkpt>
      <trkpt lat="42.661620000000326" lon="-1.845541000000001">
        <ele>341.615</ele>
        <time>2022-08-25T10:10:55Z</time>
      </trkpt>
      <trkpt lat="42.66163600000033" lon="-1.845552000000001">
        <ele>341.826</ele>
        <time>2022-08-25T10:10:56Z</time>
      </trkpt>
      <trkpt lat="42.66165000000033" lon="-1.845567000000001">
        <ele>342.409</ele>
        <time>2022-08-25T10:10:57Z</time>
      </trkpt>
      <trkpt lat="42.66167400000033" lon="-1.8455850000000011">
        <ele>343.020</ele>
        <time>2022-08-25T10:10:59Z</time>
      </trkpt>
      <trkpt lat="42.66168300000033" lon="-1.845599000000001">
        <ele>343.450</ele>
        <time>2022-08-25T10:11:00Z</time>
      </trkpt>
      <trkpt lat="42.66169400000033" lon="-1.845611000000001">
        <ele>343.680</ele>
        <time>2022-08-25T10:11:01Z</time>
      </trkpt>
      <trkpt lat="42.661704000000334" lon="-1.845620000000001">
        <ele>344.086</ele>
        <time>2022-08-25T10:11:02Z</time>
      </trkpt>
      <trkpt lat="42.66171300000033" lon="-1.8456240000000008">
        <ele>344.028</ele>
        <time>2022-08-25T10:11:03Z</time>
      </trkpt>
      <trkpt lat="42.66172400000033" lon="-1.8456290000000009">
        <ele>344.635</ele>
        <time>2022-08-25T10:11:04Z</time>
      </trkpt>
      <trkpt lat="42.661735000000334" lon="-1.8456350000000008">
        <ele>345.038</ele>
        <time>2022-08-25T10:11:05Z</time>
      </trkpt>
      <trkpt lat="42.66174400000033" lon="-1.8456410000000008">
        <ele>345.254</ele>
        <time>2022-08-25T10:11:06Z</time>
      </trkpt>
      <trkpt lat="42.661754000000336" lon="-1.8456470000000007">
        <ele>345.475</ele>
        <time>2022-08-25T10:11:07Z</time>
      </trkpt>
      <trkpt lat="42.661768000000336" lon="-1.8456550000000007">
        <ele>345.652</ele>
        <time>2022-08-25T10:11:09Z</time>
      </trkpt>
      <trkpt lat="42.66177000000034" lon="-1.8456570000000008">
        <ele>345.653</ele>
        <time>2022-08-25T10:11:10Z</time>
      </trkpt>
      <trkpt lat="42.661782000000336" lon="-1.8456690000000007">
        <ele>345.808</ele>
        <time>2022-08-25T10:11:11Z</time>
      </trkpt>
      <trkpt lat="42.66179300000034" lon="-1.8456820000000007">
        <ele>345.809</ele>
        <time>2022-08-25T10:11:12Z</time>
      </trkpt>
      <trkpt lat="42.66180000000033" lon="-1.8456950000000008">
        <ele>346.046</ele>
        <time>2022-08-25T10:11:13Z</time>
      </trkpt>
      <trkpt lat="42.66180700000033" lon="-1.8457050000000008">
        <ele>346.286</ele>
        <time>2022-08-25T10:11:14Z</time>
      </trkpt>
      <trkpt lat="42.66184400000033" lon="-1.8457440000000007">
        <ele>346.666</ele>
        <time>2022-08-25T10:11:17Z</time>
      </trkpt>
      <trkpt lat="42.66185200000033" lon="-1.8457550000000007">
        <ele>346.842</ele>
        <time>2022-08-25T10:11:18Z</time>
      </trkpt>
      <trkpt lat="42.66186100000033" lon="-1.8457630000000007">
        <ele>347.074</ele>
        <time>2022-08-25T10:11:19Z</time>
      </trkpt>
      <trkpt lat="42.66187100000033" lon="-1.8457730000000008">
        <ele>347.061</ele>
        <time>2022-08-25T10:11:20Z</time>
      </trkpt>
      <trkpt lat="42.66192700000033" lon="-1.8458210000000008">
        <ele>347.834</ele>
        <time>2022-08-25T10:11:25Z</time>
      </trkpt>
      <trkpt lat="42.66193800000033" lon="-1.8458330000000007">
        <ele>348.030</ele>
        <time>2022-08-25T10:11:26Z</time>
      </trkpt>
      <trkpt lat="42.66196200000034" lon="-1.8458560000000008">
        <ele>348.281</ele>
        <time>2022-08-25T10:11:28Z</time>
      </trkpt>
      <trkpt lat="42.66197300000034" lon="-1.8458650000000008">
        <ele>348.272</ele>
        <time>2022-08-25T10:11:29Z</time>
      </trkpt>
      <trkpt lat="42.66200300000034" lon="-1.8458910000000008">
        <ele>349.413</ele>
        <time>2022-08-25T10:11:32Z</time>
      </trkpt>
      <trkpt lat="42.66203700000034" lon="-1.8459180000000008">
        <ele>350.414</ele>
        <time>2022-08-25T10:11:35Z</time>
      </trkpt>
      <trkpt lat="42.662055000000336" lon="-1.8459460000000008">
        <ele>350.809</ele>
        <time>2022-08-25T10:11:37Z</time>
      </trkpt>
      <trkpt lat="42.66206300000034" lon="-1.8459660000000007">
        <ele>351.248</ele>
        <time>2022-08-25T10:11:38Z</time>
      </trkpt>
      <trkpt lat="42.66207100000034" lon="-1.8459780000000006">
        <ele>351.488</ele>
        <time>2022-08-25T10:11:39Z</time>
      </trkpt>
      <trkpt lat="42.66207700000034" lon="-1.8459910000000006">
        <ele>351.638</ele>
        <time>2022-08-25T10:11:40Z</time>
      </trkpt>
      <trkpt lat="42.662092000000335" lon="-1.8460130000000006">
        <ele>352.044</ele>
        <time>2022-08-25T10:11:42Z</time>
      </trkpt>
      <trkpt lat="42.662123000000335" lon="-1.8460450000000006">
        <ele>352.476</ele>
        <time>2022-08-25T10:11:45Z</time>
      </trkpt>
      <trkpt lat="42.66212700000033" lon="-1.8460490000000005">
        <ele>352.473</ele>
        <time>2022-08-25T10:11:46Z</time>
      </trkpt>
      <trkpt lat="42.66214900000033" lon="-1.8460590000000006">
        <ele>352.816</ele>
        <time>2022-08-25T10:11:48Z</time>
      </trkpt>
      <trkpt lat="42.66215900000034" lon="-1.8460630000000005">
        <ele>353.032</ele>
        <time>2022-08-25T10:11:49Z</time>
      </trkpt>
      <trkpt lat="42.66218100000034" lon="-1.8460670000000003">
        <ele>353.453</ele>
        <time>2022-08-25T10:11:51Z</time>
      </trkpt>
      <trkpt lat="42.662221000000336" lon="-1.8460870000000003">
        <ele>353.695</ele>
        <time>2022-08-25T10:11:54Z</time>
      </trkpt>
      <trkpt lat="42.66223100000034" lon="-1.8460910000000001">
        <ele>353.849</ele>
        <time>2022-08-25T10:11:55Z</time>
      </trkpt>
      <trkpt lat="42.66224200000034" lon="-1.846092">
        <ele>353.823</ele>
        <time>2022-08-25T10:11:56Z</time>
      </trkpt>
      <trkpt lat="42.66224900000034" lon="-1.846096">
        <ele>354.009</ele>
        <time>2022-08-25T10:11:57Z</time>
      </trkpt>
      <trkpt lat="42.66225700000034" lon="-1.846106">
        <ele>354.040</ele>
        <time>2022-08-25T10:11:58Z</time>
      </trkpt>
      <trkpt lat="42.662266000000336" lon="-1.846111">
        <ele>354.270</ele>
        <time>2022-08-25T10:11:59Z</time>
      </trkpt>
      <trkpt lat="42.66227700000034" lon="-1.8461100000000001">
        <ele>354.220</ele>
        <time>2022-08-25T10:12:00Z</time>
      </trkpt>
      <trkpt lat="42.66228700000034" lon="-1.846108">
        <ele>354.686</ele>
        <time>2022-08-25T10:12:01Z</time>
      </trkpt>
      <trkpt lat="42.66229700000034" lon="-1.8461130000000001">
        <ele>354.888</ele>
        <time>2022-08-25T10:12:02Z</time>
      </trkpt>
      <trkpt lat="42.66230300000034" lon="-1.8461150000000002">
        <ele>355.045</ele>
        <time>2022-08-25T10:12:03Z</time>
      </trkpt>
      <trkpt lat="42.66233800000034" lon="-1.846151">
        <ele>355.688</ele>
        <time>2022-08-25T10:12:07Z</time>
      </trkpt>
      <trkpt lat="42.662345000000336" lon="-1.846159">
        <ele>355.864</ele>
        <time>2022-08-25T10:12:08Z</time>
      </trkpt>
      <trkpt lat="42.66235600000034" lon="-1.846165">
        <ele>356.245</ele>
        <time>2022-08-25T10:12:09Z</time>
      </trkpt>
      <trkpt lat="42.662374000000334" lon="-1.84617">
        <ele>356.218</ele>
        <time>2022-08-25T10:12:10Z</time>
      </trkpt>
      <trkpt lat="42.66240300000033" lon="-1.8461930000000002">
        <ele>356.698</ele>
        <time>2022-08-25T10:12:12Z</time>
      </trkpt>
      <trkpt lat="42.66243900000033" lon="-1.8462450000000001">
        <ele>357.217</ele>
        <time>2022-08-25T10:12:15Z</time>
      </trkpt>
      <trkpt lat="42.66245300000033" lon="-1.8462640000000001">
        <ele>357.409</ele>
        <time>2022-08-25T10:12:16Z</time>
      </trkpt>
      <trkpt lat="42.662463000000336" lon="-1.8462800000000001">
        <ele>357.682</ele>
        <time>2022-08-25T10:12:17Z</time>
      </trkpt>
      <trkpt lat="42.66252200000034" lon="-1.8463230000000002">
        <ele>358.242</ele>
        <time>2022-08-25T10:12:22Z</time>
      </trkpt>
      <trkpt lat="42.662531000000335" lon="-1.8463390000000002">
        <ele>358.252</ele>
        <time>2022-08-25T10:12:23Z</time>
      </trkpt>
      <trkpt lat="42.662556000000336" lon="-1.8463810000000003">
        <ele>358.458</ele>
        <time>2022-08-25T10:12:25Z</time>
      </trkpt>
      <trkpt lat="42.66257700000033" lon="-1.8464120000000002">
        <ele>358.680</ele>
        <time>2022-08-25T10:12:27Z</time>
      </trkpt>
      <trkpt lat="42.66258800000033" lon="-1.846424">
        <ele>358.867</ele>
        <time>2022-08-25T10:12:28Z</time>
      </trkpt>
      <trkpt lat="42.66263300000033" lon="-1.846475">
        <ele>359.280</ele>
        <time>2022-08-25T10:12:33Z</time>
      </trkpt>
      <trkpt lat="42.66265100000033" lon="-1.846505">
        <ele>359.426</ele>
        <time>2022-08-25T10:12:35Z</time>
      </trkpt>
      <trkpt lat="42.66268200000033" lon="-1.846541">
        <ele>359.837</ele>
        <time>2022-08-25T10:12:38Z</time>
      </trkpt>
      <trkpt lat="42.66268700000033" lon="-1.846548">
        <ele>359.882</ele>
        <time>2022-08-25T10:12:39Z</time>
      </trkpt>
      <trkpt lat="42.66269400000033" lon="-1.846557">
        <ele>360.043</ele>
        <time>2022-08-25T10:12:40Z</time>
      </trkpt>
      <trkpt lat="42.66270400000033" lon="-1.846566">
        <ele>360.017</ele>
        <time>2022-08-25T10:12:41Z</time>
      </trkpt>
      <trkpt lat="42.66271300000033" lon="-1.846576">
        <ele>360.009</ele>
        <time>2022-08-25T10:12:42Z</time>
      </trkpt>
      <trkpt lat="42.662723000000334" lon="-1.846582">
        <ele>360.229</ele>
        <time>2022-08-25T10:12:43Z</time>
      </trkpt>
      <trkpt lat="42.66273200000033" lon="-1.8465909999999999">
        <ele>360.249</ele>
        <time>2022-08-25T10:12:44Z</time>
      </trkpt>
      <trkpt lat="42.66274100000033" lon="-1.8465969999999998">
        <ele>360.439</ele>
        <time>2022-08-25T10:12:45Z</time>
      </trkpt>
      <trkpt lat="42.66275700000033" lon="-1.8466049999999998">
        <ele>360.415</ele>
        <time>2022-08-25T10:12:47Z</time>
      </trkpt>
      <trkpt lat="42.66276400000033" lon="-1.8466089999999997">
        <ele>360.487</ele>
        <time>2022-08-25T10:12:48Z</time>
      </trkpt>
      <trkpt lat="42.662771000000326" lon="-1.8466179999999996">
        <ele>360.494</ele>
        <time>2022-08-25T10:12:49Z</time>
      </trkpt>
      <trkpt lat="42.66278100000033" lon="-1.8466259999999997">
        <ele>360.437</ele>
        <time>2022-08-25T10:12:50Z</time>
      </trkpt>
      <trkpt lat="42.66279100000033" lon="-1.8466319999999996">
        <ele>360.613</ele>
        <time>2022-08-25T10:12:51Z</time>
      </trkpt>
      <trkpt lat="42.662801000000336" lon="-1.8466389999999997">
        <ele>360.624</ele>
        <time>2022-08-25T10:12:52Z</time>
      </trkpt>
      <trkpt lat="42.66281100000034" lon="-1.8466399999999996">
        <ele>360.867</ele>
        <time>2022-08-25T10:12:53Z</time>
      </trkpt>
      <trkpt lat="42.66282100000034" lon="-1.8466379999999996">
        <ele>360.881</ele>
        <time>2022-08-25T10:12:54Z</time>
      </trkpt>
      <trkpt lat="42.66286400000034" lon="-1.8466429999999996">
        <ele>361.219</ele>
        <time>2022-08-25T10:12:58Z</time>
      </trkpt>
      <trkpt lat="42.66287200000034" lon="-1.8466449999999996">
        <ele>361.409</ele>
        <time>2022-08-25T10:12:59Z</time>
      </trkpt>
      <trkpt lat="42.66288100000034" lon="-1.8466489999999995">
        <ele>361.497</ele>
        <time>2022-08-25T10:13:00Z</time>
      </trkpt>
      <trkpt lat="42.662888000000336" lon="-1.8466529999999994">
        <ele>361.647</ele>
        <time>2022-08-25T10:13:01Z</time>
      </trkpt>
      <trkpt lat="42.66289800000034" lon="-1.8466559999999994">
        <ele>361.687</ele>
        <time>2022-08-25T10:13:02Z</time>
      </trkpt>
      <trkpt lat="42.66292600000034" lon="-1.8466729999999993">
        <ele>362.033</ele>
        <time>2022-08-25T10:13:05Z</time>
      </trkpt>
      <trkpt lat="42.66294700000034" lon="-1.8466889999999994">
        <ele>362.435</ele>
        <time>2022-08-25T10:13:07Z</time>
      </trkpt>
      <trkpt lat="42.66295800000034" lon="-1.8466929999999993">
        <ele>362.862</ele>
        <time>2022-08-25T10:13:08Z</time>
      </trkpt>
      <trkpt lat="42.66299100000034" lon="-1.8467069999999992">
        <ele>363.615</ele>
        <time>2022-08-25T10:13:11Z</time>
      </trkpt>
      <trkpt lat="42.66300000000034" lon="-1.846710999999999">
        <ele>363.671</ele>
        <time>2022-08-25T10:13:12Z</time>
      </trkpt>
      <trkpt lat="42.66301000000034" lon="-1.8467179999999992">
        <ele>364.042</ele>
        <time>2022-08-25T10:13:13Z</time>
      </trkpt>
      <trkpt lat="42.66302100000034" lon="-1.846729999999999">
        <ele>364.476</ele>
        <time>2022-08-25T10:13:14Z</time>
      </trkpt>
      <trkpt lat="42.663093000000345" lon="-1.8467529999999992">
        <ele>365.290</ele>
        <time>2022-08-25T10:13:20Z</time>
      </trkpt>
      <trkpt lat="42.663101000000346" lon="-1.846756999999999">
        <ele>365.219</ele>
        <time>2022-08-25T10:13:21Z</time>
      </trkpt>
      <trkpt lat="42.663121000000345" lon="-1.846762999999999">
        <ele>365.209</ele>
        <time>2022-08-25T10:13:23Z</time>
      </trkpt>
      <trkpt lat="42.663132000000346" lon="-1.8467699999999991">
        <ele>365.448</ele>
        <time>2022-08-25T10:13:24Z</time>
      </trkpt>
      <trkpt lat="42.663144000000344" lon="-1.846773999999999">
        <ele>365.488</ele>
        <time>2022-08-25T10:13:25Z</time>
      </trkpt>
      <trkpt lat="42.66315300000034" lon="-1.846777999999999">
        <ele>365.628</ele>
        <time>2022-08-25T10:13:26Z</time>
      </trkpt>
      <trkpt lat="42.663158000000344" lon="-1.8467839999999989">
        <ele>365.614</ele>
        <time>2022-08-25T10:13:27Z</time>
      </trkpt>
      <trkpt lat="42.663163000000345" lon="-1.846790999999999">
        <ele>365.646</ele>
        <time>2022-08-25T10:13:28Z</time>
      </trkpt>
      <trkpt lat="42.66322400000035" lon="-1.846822999999999">
        <ele>366.283</ele>
        <time>2022-08-25T10:13:34Z</time>
      </trkpt>
      <trkpt lat="42.66330200000035" lon="-1.846890999999999">
        <ele>366.846</ele>
        <time>2022-08-25T10:13:41Z</time>
      </trkpt>
      <trkpt lat="42.66332400000035" lon="-1.846903999999999">
        <ele>366.862</ele>
        <time>2022-08-25T10:13:43Z</time>
      </trkpt>
      <trkpt lat="42.66339000000035" lon="-1.846942999999999">
        <ele>367.053</ele>
        <time>2022-08-25T10:13:48Z</time>
      </trkpt>
      <trkpt lat="42.66340400000035" lon="-1.8469549999999988">
        <ele>366.827</ele>
        <time>2022-08-25T10:13:49Z</time>
      </trkpt>
      <trkpt lat="42.66343200000035" lon="-1.8469749999999987">
        <ele>366.868</ele>
        <time>2022-08-25T10:13:51Z</time>
      </trkpt>
      <trkpt lat="42.66344200000035" lon="-1.8469799999999987">
        <ele>366.814</ele>
        <time>2022-08-25T10:13:52Z</time>
      </trkpt>
      <trkpt lat="42.66345400000035" lon="-1.8469849999999988">
        <ele>366.809</ele>
        <time>2022-08-25T10:13:53Z</time>
      </trkpt>
      <trkpt lat="42.663461000000346" lon="-1.8469889999999987">
        <ele>367.093</ele>
        <time>2022-08-25T10:13:54Z</time>
      </trkpt>
      <trkpt lat="42.66347200000035" lon="-1.8469969999999987">
        <ele>367.013</ele>
        <time>2022-08-25T10:13:55Z</time>
      </trkpt>
      <trkpt lat="42.66353100000035" lon="-1.8470149999999987">
        <ele>368.023</ele>
        <time>2022-08-25T10:14:00Z</time>
      </trkpt>
      <trkpt lat="42.663543000000345" lon="-1.8470209999999987">
        <ele>368.219</ele>
        <time>2022-08-25T10:14:01Z</time>
      </trkpt>
      <trkpt lat="42.663552000000344" lon="-1.8470299999999986">
        <ele>368.221</ele>
        <time>2022-08-25T10:14:02Z</time>
      </trkpt>
      <trkpt lat="42.66363200000034" lon="-1.8470609999999985">
        <ele>368.448</ele>
        <time>2022-08-25T10:14:08Z</time>
      </trkpt>
      <trkpt lat="42.66364100000034" lon="-1.8470579999999985">
        <ele>368.421</ele>
        <time>2022-08-25T10:14:09Z</time>
      </trkpt>
      <trkpt lat="42.66365300000034" lon="-1.8470489999999986">
        <ele>368.477</ele>
        <time>2022-08-25T10:14:10Z</time>
      </trkpt>
      <trkpt lat="42.663665000000336" lon="-1.8470439999999986">
        <ele>368.278</ele>
        <time>2022-08-25T10:14:11Z</time>
      </trkpt>
      <trkpt lat="42.66371200000034" lon="-1.8470249999999986">
        <ele>368.418</ele>
        <time>2022-08-25T10:14:15Z</time>
      </trkpt>
      <trkpt lat="42.66373700000034" lon="-1.8470289999999985">
        <ele>368.498</ele>
        <time>2022-08-25T10:14:17Z</time>
      </trkpt>
      <trkpt lat="42.66380400000034" lon="-1.8470439999999986">
        <ele>368.817</ele>
        <time>2022-08-25T10:14:22Z</time>
      </trkpt>
      <trkpt lat="42.66381900000034" lon="-1.8470499999999985">
        <ele>368.809</ele>
        <time>2022-08-25T10:14:23Z</time>
      </trkpt>
      <trkpt lat="42.66383300000034" lon="-1.8470549999999986">
        <ele>368.842</ele>
        <time>2022-08-25T10:14:24Z</time>
      </trkpt>
      <trkpt lat="42.663845000000336" lon="-1.8470619999999986">
        <ele>369.042</ele>
        <time>2022-08-25T10:14:25Z</time>
      </trkpt>
      <trkpt lat="42.66385500000034" lon="-1.8470729999999986">
        <ele>369.282</ele>
        <time>2022-08-25T10:14:26Z</time>
      </trkpt>
      <trkpt lat="42.66387100000034" lon="-1.8470829999999987">
        <ele>369.248</ele>
        <time>2022-08-25T10:14:27Z</time>
      </trkpt>
      <trkpt lat="42.66391000000034" lon="-1.8471029999999986">
        <ele>370.060</ele>
        <time>2022-08-25T10:14:30Z</time>
      </trkpt>
      <trkpt lat="42.66394400000034" lon="-1.8471299999999986">
        <ele>370.297</ele>
        <time>2022-08-25T10:14:33Z</time>
      </trkpt>
      <trkpt lat="42.66395300000034" lon="-1.8471369999999987">
        <ele>370.470</ele>
        <time>2022-08-25T10:14:34Z</time>
      </trkpt>
      <trkpt lat="42.663963000000344" lon="-1.8471469999999988">
        <ele>370.486</ele>
        <time>2022-08-25T10:14:35Z</time>
      </trkpt>
      <trkpt lat="42.66397500000034" lon="-1.8471559999999987">
        <ele>370.637</ele>
        <time>2022-08-25T10:14:36Z</time>
      </trkpt>
      <trkpt lat="42.66398300000034" lon="-1.8471659999999988">
        <ele>370.815</ele>
        <time>2022-08-25T10:14:37Z</time>
      </trkpt>
      <trkpt lat="42.66398900000034" lon="-1.8471729999999988">
        <ele>371.065</ele>
        <time>2022-08-25T10:14:38Z</time>
      </trkpt>
      <trkpt lat="42.66399700000034" lon="-1.8471809999999989">
        <ele>371.211</ele>
        <time>2022-08-25T10:14:39Z</time>
      </trkpt>
      <trkpt lat="42.66401100000034" lon="-1.8471919999999988">
        <ele>371.209</ele>
        <time>2022-08-25T10:14:40Z</time>
      </trkpt>
      <trkpt lat="42.66402300000034" lon="-1.847201999999999">
        <ele>371.412</ele>
        <time>2022-08-25T10:14:41Z</time>
      </trkpt>
      <trkpt lat="42.664033000000344" lon="-1.8472079999999989">
        <ele>371.482</ele>
        <time>2022-08-25T10:14:42Z</time>
      </trkpt>
      <trkpt lat="42.664098000000344" lon="-1.8472709999999988">
        <ele>372.472</ele>
        <time>2022-08-25T10:14:49Z</time>
      </trkpt>
      <trkpt lat="42.66410500000034" lon="-1.8472799999999987">
        <ele>372.438</ele>
        <time>2022-08-25T10:14:50Z</time>
      </trkpt>
      <trkpt lat="42.66410500000034" lon="-1.8472899999999988">
        <ele>372.660</ele>
        <time>2022-08-25T10:14:51Z</time>
      </trkpt>
      <trkpt lat="42.66412000000034" lon="-1.8473109999999988">
        <ele>373.037</ele>
        <time>2022-08-25T10:14:53Z</time>
      </trkpt>
      <trkpt lat="42.66414200000034" lon="-1.847333999999999">
        <ele>373.460</ele>
        <time>2022-08-25T10:14:55Z</time>
      </trkpt>
      <trkpt lat="42.66415100000034" lon="-1.847341999999999">
        <ele>373.816</ele>
        <time>2022-08-25T10:14:56Z</time>
      </trkpt>
      <trkpt lat="42.66416100000034" lon="-1.8473509999999989">
        <ele>374.037</ele>
        <time>2022-08-25T10:14:57Z</time>
      </trkpt>
      <trkpt lat="42.66416900000034" lon="-1.8473589999999989">
        <ele>374.295</ele>
        <time>2022-08-25T10:14:58Z</time>
      </trkpt>
      <trkpt lat="42.66417600000034" lon="-1.847365999999999">
        <ele>374.449</ele>
        <time>2022-08-25T10:14:59Z</time>
      </trkpt>
      <trkpt lat="42.664183000000335" lon="-1.847371999999999">
        <ele>374.423</ele>
        <time>2022-08-25T10:15:00Z</time>
      </trkpt>
      <trkpt lat="42.66420100000033" lon="-1.847386999999999">
        <ele>374.609</ele>
        <time>2022-08-25T10:15:02Z</time>
      </trkpt>
      <trkpt lat="42.66424700000033" lon="-1.847416999999999">
        <ele>375.070</ele>
        <time>2022-08-25T10:15:07Z</time>
      </trkpt>
      <trkpt lat="42.66425800000033" lon="-1.847423999999999">
        <ele>375.070</ele>
        <time>2022-08-25T10:15:08Z</time>
      </trkpt>
      <trkpt lat="42.664268000000334" lon="-1.847431999999999">
        <ele>375.270</ele>
        <time>2022-08-25T10:15:09Z</time>
      </trkpt>
      <trkpt lat="42.66427500000033" lon="-1.847440999999999">
        <ele>375.426</ele>
        <time>2022-08-25T10:15:10Z</time>
      </trkpt>
      <trkpt lat="42.66428500000033" lon="-1.847451999999999">
        <ele>375.478</ele>
        <time>2022-08-25T10:15:11Z</time>
      </trkpt>
      <trkpt lat="42.664293000000335" lon="-1.8474639999999989">
        <ele>375.445</ele>
        <time>2022-08-25T10:15:12Z</time>
      </trkpt>
      <trkpt lat="42.66430000000033" lon="-1.8474749999999989">
        <ele>375.458</ele>
        <time>2022-08-25T10:15:13Z</time>
      </trkpt>
      <trkpt lat="42.66433900000033" lon="-1.8475109999999988">
        <ele>376.234</ele>
        <time>2022-08-25T10:15:17Z</time>
      </trkpt>
      <trkpt lat="42.66434800000033" lon="-1.8475219999999988">
        <ele>376.635</ele>
        <time>2022-08-25T10:15:18Z</time>
      </trkpt>
      <trkpt lat="42.664358000000334" lon="-1.8475319999999988">
        <ele>376.822</ele>
        <time>2022-08-25T10:15:19Z</time>
      </trkpt>
      <trkpt lat="42.66436700000033" lon="-1.8475439999999987">
        <ele>377.262</ele>
        <time>2022-08-25T10:15:20Z</time>
      </trkpt>
      <trkpt lat="42.664377000000336" lon="-1.8475549999999987">
        <ele>377.608</ele>
        <time>2022-08-25T10:15:21Z</time>
      </trkpt>
      <trkpt lat="42.664400000000335" lon="-1.8475849999999987">
        <ele>378.009</ele>
        <time>2022-08-25T10:15:24Z</time>
      </trkpt>
      <trkpt lat="42.664408000000336" lon="-1.8475939999999986">
        <ele>378.283</ele>
        <time>2022-08-25T10:15:25Z</time>
      </trkpt>
      <trkpt lat="42.66441600000034" lon="-1.8476039999999987">
        <ele>378.473</ele>
        <time>2022-08-25T10:15:26Z</time>
      </trkpt>
      <trkpt lat="42.66442400000034" lon="-1.8476129999999986">
        <ele>378.493</ele>
        <time>2022-08-25T10:15:27Z</time>
      </trkpt>
      <trkpt lat="42.66443200000034" lon="-1.8476209999999986">
        <ele>378.449</ele>
        <time>2022-08-25T10:15:28Z</time>
      </trkpt>
      <trkpt lat="42.664439000000336" lon="-1.8476289999999986">
        <ele>378.441</ele>
        <time>2022-08-25T10:15:29Z</time>
      </trkpt>
      <trkpt lat="42.66444700000034" lon="-1.8476329999999985">
        <ele>378.638</ele>
        <time>2022-08-25T10:15:30Z</time>
      </trkpt>
      <trkpt lat="42.66447100000034" lon="-1.8476539999999986">
        <ele>379.071</ele>
        <time>2022-08-25T10:15:33Z</time>
      </trkpt>
      <trkpt lat="42.66447700000034" lon="-1.8476619999999986">
        <ele>379.067</ele>
        <time>2022-08-25T10:15:34Z</time>
      </trkpt>
      <trkpt lat="42.66448300000034" lon="-1.8476739999999985">
        <ele>379.058</ele>
        <time>2022-08-25T10:15:35Z</time>
      </trkpt>
      <trkpt lat="42.66448900000034" lon="-1.8476829999999984">
        <ele>379.093</ele>
        <time>2022-08-25T10:15:36Z</time>
      </trkpt>
      <trkpt lat="42.66450800000034" lon="-1.8477099999999984">
        <ele>379.665</ele>
        <time>2022-08-25T10:15:39Z</time>
      </trkpt>
      <trkpt lat="42.66451800000034" lon="-1.8477189999999983">
        <ele>379.821</ele>
        <time>2022-08-25T10:15:40Z</time>
      </trkpt>
      <trkpt lat="42.66453500000034" lon="-1.8477359999999983">
        <ele>380.009</ele>
        <time>2022-08-25T10:15:42Z</time>
      </trkpt>
      <trkpt lat="42.66460200000034" lon="-1.8478039999999982">
        <ele>380.640</ele>
        <time>2022-08-25T10:15:49Z</time>
      </trkpt>
      <trkpt lat="42.66461100000034" lon="-1.8478129999999982">
        <ele>380.870</ele>
        <time>2022-08-25T10:15:50Z</time>
      </trkpt>
      <trkpt lat="42.66462900000034" lon="-1.8478289999999982">
        <ele>381.040</ele>
        <time>2022-08-25T10:15:52Z</time>
      </trkpt>
      <trkpt lat="42.66465100000034" lon="-1.8478519999999983">
        <ele>381.276</ele>
        <time>2022-08-25T10:15:54Z</time>
      </trkpt>
      <trkpt lat="42.66466000000034" lon="-1.8478619999999983">
        <ele>381.448</ele>
        <time>2022-08-25T10:15:55Z</time>
      </trkpt>
      <trkpt lat="42.66467000000034" lon="-1.8478699999999983">
        <ele>381.695</ele>
        <time>2022-08-25T10:15:56Z</time>
      </trkpt>
      <trkpt lat="42.66472300000034" lon="-1.8479159999999983">
        <ele>382.028</ele>
        <time>2022-08-25T10:16:01Z</time>
      </trkpt>
      <trkpt lat="42.664762000000344" lon="-1.8479529999999984">
        <ele>382.464</ele>
        <time>2022-08-25T10:16:05Z</time>
      </trkpt>
      <trkpt lat="42.664770000000345" lon="-1.8479659999999984">
        <ele>382.635</ele>
        <time>2022-08-25T10:16:06Z</time>
      </trkpt>
      <trkpt lat="42.66480200000034" lon="-1.8479929999999984">
        <ele>383.075</ele>
        <time>2022-08-25T10:16:09Z</time>
      </trkpt>
      <trkpt lat="42.66486700000034" lon="-1.8480349999999985">
        <ele>383.628</ele>
        <time>2022-08-25T10:16:15Z</time>
      </trkpt>
      <trkpt lat="42.66487800000034" lon="-1.8480459999999985">
        <ele>383.620</ele>
        <time>2022-08-25T10:16:16Z</time>
      </trkpt>
      <trkpt lat="42.66488900000034" lon="-1.8480519999999985">
        <ele>383.609</ele>
        <time>2022-08-25T10:16:17Z</time>
      </trkpt>
      <trkpt lat="42.66491200000034" lon="-1.8480689999999984">
        <ele>383.868</ele>
        <time>2022-08-25T10:16:19Z</time>
      </trkpt>
      <trkpt lat="42.66492400000034" lon="-1.8480789999999985">
        <ele>383.878</ele>
        <time>2022-08-25T10:16:20Z</time>
      </trkpt>
      <trkpt lat="42.66494700000034" lon="-1.8480929999999984">
        <ele>383.888</ele>
        <time>2022-08-25T10:16:22Z</time>
      </trkpt>
      <trkpt lat="42.66495600000034" lon="-1.8480989999999984">
        <ele>383.844</ele>
        <time>2022-08-25T10:16:23Z</time>
      </trkpt>
      <trkpt lat="42.664965000000336" lon="-1.8481059999999985">
        <ele>384.056</ele>
        <time>2022-08-25T10:16:24Z</time>
      </trkpt>
      <trkpt lat="42.66497500000034" lon="-1.8481099999999984">
        <ele>384.083</ele>
        <time>2022-08-25T10:16:25Z</time>
      </trkpt>
      <trkpt lat="42.66498800000034" lon="-1.8481129999999983">
        <ele>384.286</ele>
        <time>2022-08-25T10:16:26Z</time>
      </trkpt>
      <trkpt lat="42.66501300000034" lon="-1.8481349999999983">
        <ele>384.472</ele>
        <time>2022-08-25T10:16:29Z</time>
      </trkpt>
      <trkpt lat="42.665021000000344" lon="-1.8481429999999983">
        <ele>384.463</ele>
        <time>2022-08-25T10:16:30Z</time>
      </trkpt>
      <trkpt lat="42.665032000000345" lon="-1.8481509999999983">
        <ele>384.431</ele>
        <time>2022-08-25T10:16:31Z</time>
      </trkpt>
      <trkpt lat="42.665043000000345" lon="-1.8481579999999984">
        <ele>384.661</ele>
        <time>2022-08-25T10:16:32Z</time>
      </trkpt>
      <trkpt lat="42.66506400000034" lon="-1.8481709999999985">
        <ele>385.007</ele>
        <time>2022-08-25T10:16:34Z</time>
      </trkpt>
      <trkpt lat="42.66507500000034" lon="-1.8481769999999984">
        <ele>385.409</ele>
        <time>2022-08-25T10:16:35Z</time>
      </trkpt>
      <trkpt lat="42.66509500000034" lon="-1.8481899999999984">
        <ele>385.814</ele>
        <time>2022-08-25T10:16:37Z</time>
      </trkpt>
      <trkpt lat="42.66510300000034" lon="-1.8481979999999985">
        <ele>386.074</ele>
        <time>2022-08-25T10:16:38Z</time>
      </trkpt>
      <trkpt lat="42.66514600000034" lon="-1.8482429999999985">
        <ele>386.614</ele>
        <time>2022-08-25T10:16:42Z</time>
      </trkpt>
      <trkpt lat="42.66516100000034" lon="-1.8482689999999986">
        <ele>387.010</ele>
        <time>2022-08-25T10:16:44Z</time>
      </trkpt>
      <trkpt lat="42.665193000000336" lon="-1.8483159999999985">
        <ele>387.692</ele>
        <time>2022-08-25T10:16:48Z</time>
      </trkpt>
      <trkpt lat="42.66520100000034" lon="-1.8483239999999985">
        <ele>388.019</ele>
        <time>2022-08-25T10:16:49Z</time>
      </trkpt>
      <trkpt lat="42.665227000000336" lon="-1.8483489999999985">
        <ele>388.822</ele>
        <time>2022-08-25T10:16:52Z</time>
      </trkpt>
      <trkpt lat="42.665236000000334" lon="-1.8483559999999986">
        <ele>388.838</ele>
        <time>2022-08-25T10:16:53Z</time>
      </trkpt>
      <trkpt lat="42.66524300000033" lon="-1.8483649999999985">
        <ele>389.039</ele>
        <time>2022-08-25T10:16:54Z</time>
      </trkpt>
      <trkpt lat="42.66525000000033" lon="-1.8483759999999985">
        <ele>389.048</ele>
        <time>2022-08-25T10:16:55Z</time>
      </trkpt>
      <trkpt lat="42.66525500000033" lon="-1.8483839999999985">
        <ele>389.261</ele>
        <time>2022-08-25T10:16:56Z</time>
      </trkpt>
      <trkpt lat="42.66526000000033" lon="-1.8483919999999985">
        <ele>389.417</ele>
        <time>2022-08-25T10:16:57Z</time>
      </trkpt>
      <trkpt lat="42.66526400000033" lon="-1.8483989999999986">
        <ele>389.409</ele>
        <time>2022-08-25T10:16:58Z</time>
      </trkpt>
      <trkpt lat="42.665270000000326" lon="-1.8484089999999986">
        <ele>389.615</ele>
        <time>2022-08-25T10:16:59Z</time>
      </trkpt>
      <trkpt lat="42.66527400000032" lon="-1.8484229999999986">
        <ele>389.825</ele>
        <time>2022-08-25T10:17:00Z</time>
      </trkpt>
      <trkpt lat="42.66527800000032" lon="-1.8484329999999987">
        <ele>389.855</ele>
        <time>2022-08-25T10:17:01Z</time>
      </trkpt>
      <trkpt lat="42.66529400000032" lon="-1.8484589999999987">
        <ele>390.231</ele>
        <time>2022-08-25T10:17:04Z</time>
      </trkpt>
      <trkpt lat="42.66531700000032" lon="-1.8484789999999987">
        <ele>391.073</ele>
        <time>2022-08-25T10:17:08Z</time>
      </trkpt>
      <trkpt lat="42.66532300000032" lon="-1.8484859999999987">
        <ele>391.210</ele>
        <time>2022-08-25T10:17:09Z</time>
      </trkpt>
      <trkpt lat="42.66533000000032" lon="-1.8484929999999988">
        <ele>391.253</ele>
        <time>2022-08-25T10:17:10Z</time>
      </trkpt>
      <trkpt lat="42.665337000000314" lon="-1.8485039999999988">
        <ele>391.479</ele>
        <time>2022-08-25T10:17:11Z</time>
      </trkpt>
      <trkpt lat="42.665382000000314" lon="-1.8485469999999988">
        <ele>392.220</ele>
        <time>2022-08-25T10:17:16Z</time>
      </trkpt>
      <trkpt lat="42.66540200000031" lon="-1.8485669999999987">
        <ele>392.611</ele>
        <time>2022-08-25T10:17:18Z</time>
      </trkpt>
      <trkpt lat="42.665410000000314" lon="-1.8485759999999987">
        <ele>392.821</ele>
        <time>2022-08-25T10:17:19Z</time>
      </trkpt>
      <trkpt lat="42.66542800000031" lon="-1.8485869999999986">
        <ele>393.403</ele>
        <time>2022-08-25T10:17:21Z</time>
      </trkpt>
      <trkpt lat="42.66543900000031" lon="-1.8485929999999986">
        <ele>393.609</ele>
        <time>2022-08-25T10:17:22Z</time>
      </trkpt>
      <trkpt lat="42.66545100000031" lon="-1.8485989999999985">
        <ele>394.082</ele>
        <time>2022-08-25T10:17:23Z</time>
      </trkpt>
      <trkpt lat="42.66547000000031" lon="-1.8486109999999984">
        <ele>395.062</ele>
        <time>2022-08-25T10:17:25Z</time>
      </trkpt>
      <trkpt lat="42.66547800000031" lon="-1.8486159999999985">
        <ele>395.212</ele>
        <time>2022-08-25T10:17:26Z</time>
      </trkpt>
      <trkpt lat="42.665488000000316" lon="-1.8486209999999985">
        <ele>395.658</ele>
        <time>2022-08-25T10:17:27Z</time>
      </trkpt>
      <trkpt lat="42.66549900000032" lon="-1.8486289999999985">
        <ele>395.870</ele>
        <time>2022-08-25T10:17:28Z</time>
      </trkpt>
      <trkpt lat="42.665508000000315" lon="-1.8486409999999984">
        <ele>396.027</ele>
        <time>2022-08-25T10:17:29Z</time>
      </trkpt>
      <trkpt lat="42.66552000000031" lon="-1.8486579999999984">
        <ele>396.490</ele>
        <time>2022-08-25T10:17:30Z</time>
      </trkpt>
      <trkpt lat="42.66555500000031" lon="-1.8486939999999983">
        <ele>397.226</ele>
        <time>2022-08-25T10:17:33Z</time>
      </trkpt>
      <trkpt lat="42.66556700000031" lon="-1.8487069999999983">
        <ele>397.277</ele>
        <time>2022-08-25T10:17:34Z</time>
      </trkpt>
      <trkpt lat="42.66557700000031" lon="-1.8487169999999984">
        <ele>397.643</ele>
        <time>2022-08-25T10:17:35Z</time>
      </trkpt>
      <trkpt lat="42.66558600000031" lon="-1.8487279999999984">
        <ele>397.864</ele>
        <time>2022-08-25T10:17:36Z</time>
      </trkpt>
      <trkpt lat="42.66560800000031" lon="-1.8487469999999984">
        <ele>398.210</ele>
        <time>2022-08-25T10:17:38Z</time>
      </trkpt>
      <trkpt lat="42.665618000000315" lon="-1.8487529999999983">
        <ele>398.409</ele>
        <time>2022-08-25T10:17:39Z</time>
      </trkpt>
      <trkpt lat="42.66563000000031" lon="-1.8487559999999983">
        <ele>398.865</ele>
        <time>2022-08-25T10:17:40Z</time>
      </trkpt>
      <trkpt lat="42.665640000000316" lon="-1.8487639999999983">
        <ele>399.025</ele>
        <time>2022-08-25T10:17:41Z</time>
      </trkpt>
      <trkpt lat="42.665654000000316" lon="-1.8487749999999983">
        <ele>399.275</ele>
        <time>2022-08-25T10:17:42Z</time>
      </trkpt>
      <trkpt lat="42.665660000000315" lon="-1.8487819999999984">
        <ele>399.431</ele>
        <time>2022-08-25T10:17:43Z</time>
      </trkpt>
      <trkpt lat="42.66566700000031" lon="-1.8487919999999984">
        <ele>399.653</ele>
        <time>2022-08-25T10:17:44Z</time>
      </trkpt>
      <trkpt lat="42.66567600000031" lon="-1.8488009999999984">
        <ele>399.820</ele>
        <time>2022-08-25T10:17:45Z</time>
      </trkpt>
      <trkpt lat="42.66568400000031" lon="-1.8488109999999984">
        <ele>400.043</ele>
        <time>2022-08-25T10:17:46Z</time>
      </trkpt>
      <trkpt lat="42.665697000000314" lon="-1.8488369999999985">
        <ele>400.439</ele>
        <time>2022-08-25T10:17:48Z</time>
      </trkpt>
      <trkpt lat="42.66570900000031" lon="-1.8488619999999985">
        <ele>400.640</ele>
        <time>2022-08-25T10:17:50Z</time>
      </trkpt>
      <trkpt lat="42.66571500000031" lon="-1.8488759999999984">
        <ele>400.835</ele>
        <time>2022-08-25T10:17:51Z</time>
      </trkpt>
      <trkpt lat="42.66572200000031" lon="-1.8488879999999983">
        <ele>401.086</ele>
        <time>2022-08-25T10:17:52Z</time>
      </trkpt>
      <trkpt lat="42.66572800000031" lon="-1.8488949999999984">
        <ele>401.214</ele>
        <time>2022-08-25T10:17:53Z</time>
      </trkpt>
      <trkpt lat="42.665737000000306" lon="-1.8489099999999985">
        <ele>401.409</ele>
        <time>2022-08-25T10:17:54Z</time>
      </trkpt>
      <trkpt lat="42.6657440000003" lon="-1.8489259999999985">
        <ele>401.484</ele>
        <time>2022-08-25T10:17:55Z</time>
      </trkpt>
      <trkpt lat="42.6657510000003" lon="-1.8489379999999984">
        <ele>401.824</ele>
        <time>2022-08-25T10:17:56Z</time>
      </trkpt>
      <trkpt lat="42.6657570000003" lon="-1.8489499999999983">
        <ele>402.254</ele>
        <time>2022-08-25T10:17:57Z</time>
      </trkpt>
      <trkpt lat="42.665761000000295" lon="-1.8489619999999982">
        <ele>402.210</ele>
        <time>2022-08-25T10:17:58Z</time>
      </trkpt>
      <trkpt lat="42.665766000000296" lon="-1.8489769999999983">
        <ele>402.422</ele>
        <time>2022-08-25T10:17:59Z</time>
      </trkpt>
      <trkpt lat="42.665767000000294" lon="-1.8489949999999984">
        <ele>402.429</ele>
        <time>2022-08-25T10:18:00Z</time>
      </trkpt>
      <trkpt lat="42.665769000000296" lon="-1.8490159999999984">
        <ele>402.882</ele>
        <time>2022-08-25T10:18:01Z</time>
      </trkpt>
      <trkpt lat="42.665772000000295" lon="-1.8490349999999984">
        <ele>403.038</ele>
        <time>2022-08-25T10:18:02Z</time>
      </trkpt>
      <trkpt lat="42.66577300000029" lon="-1.8490499999999985">
        <ele>403.299</ele>
        <time>2022-08-25T10:18:03Z</time>
      </trkpt>
      <trkpt lat="42.665778000000294" lon="-1.8490679999999986">
        <ele>403.453</ele>
        <time>2022-08-25T10:18:04Z</time>
      </trkpt>
      <trkpt lat="42.665783000000296" lon="-1.8490839999999986">
        <ele>403.604</ele>
        <time>2022-08-25T10:18:05Z</time>
      </trkpt>
      <trkpt lat="42.66578700000029" lon="-1.8490979999999986">
        <ele>403.614</ele>
        <time>2022-08-25T10:18:06Z</time>
      </trkpt>
      <trkpt lat="42.66578800000029" lon="-1.8491139999999986">
        <ele>403.809</ele>
        <time>2022-08-25T10:18:07Z</time>
      </trkpt>
      <trkpt lat="42.66579100000029" lon="-1.8491319999999987">
        <ele>403.826</ele>
        <time>2022-08-25T10:18:08Z</time>
      </trkpt>
      <trkpt lat="42.66579100000029" lon="-1.8491469999999988">
        <ele>404.046</ele>
        <time>2022-08-25T10:18:09Z</time>
      </trkpt>
      <trkpt lat="42.66579200000029" lon="-1.8491589999999987">
        <ele>404.026</ele>
        <time>2022-08-25T10:18:10Z</time>
      </trkpt>
      <trkpt lat="42.66579500000029" lon="-1.8491699999999986">
        <ele>404.232</ele>
        <time>2022-08-25T10:18:11Z</time>
      </trkpt>
      <trkpt lat="42.66579500000029" lon="-1.8491809999999986">
        <ele>404.424</ele>
        <time>2022-08-25T10:18:12Z</time>
      </trkpt>
      <trkpt lat="42.66579700000029" lon="-1.8491959999999987">
        <ele>404.441</ele>
        <time>2022-08-25T10:18:13Z</time>
      </trkpt>
      <trkpt lat="42.66579800000029" lon="-1.8492149999999987">
        <ele>404.624</ele>
        <time>2022-08-25T10:18:14Z</time>
      </trkpt>
      <trkpt lat="42.66580000000029" lon="-1.8492299999999988">
        <ele>404.830</ele>
        <time>2022-08-25T10:18:15Z</time>
      </trkpt>
      <trkpt lat="42.66580200000029" lon="-1.849244999999999">
        <ele>405.061</ele>
        <time>2022-08-25T10:18:16Z</time>
      </trkpt>
      <trkpt lat="42.66580600000029" lon="-1.8492619999999989">
        <ele>405.237</ele>
        <time>2022-08-25T10:18:17Z</time>
      </trkpt>
      <trkpt lat="42.66580800000029" lon="-1.849279999999999">
        <ele>405.449</ele>
        <time>2022-08-25T10:18:18Z</time>
      </trkpt>
      <trkpt lat="42.66580800000029" lon="-1.849294999999999">
        <ele>405.413</ele>
        <time>2022-08-25T10:18:19Z</time>
      </trkpt>
      <trkpt lat="42.66580900000029" lon="-1.849310999999999">
        <ele>405.609</ele>
        <time>2022-08-25T10:18:20Z</time>
      </trkpt>
      <trkpt lat="42.66580800000029" lon="-1.849329999999999">
        <ele>405.854</ele>
        <time>2022-08-25T10:18:21Z</time>
      </trkpt>
      <trkpt lat="42.66581100000029" lon="-1.849342999999999">
        <ele>405.814</ele>
        <time>2022-08-25T10:18:22Z</time>
      </trkpt>
      <trkpt lat="42.66581300000029" lon="-1.849354999999999">
        <ele>406.094</ele>
        <time>2022-08-25T10:18:23Z</time>
      </trkpt>
      <trkpt lat="42.66581300000029" lon="-1.849368999999999">
        <ele>406.030</ele>
        <time>2022-08-25T10:18:24Z</time>
      </trkpt>
      <trkpt lat="42.66581400000029" lon="-1.849383999999999">
        <ele>406.222</ele>
        <time>2022-08-25T10:18:25Z</time>
      </trkpt>
      <trkpt lat="42.66581600000029" lon="-1.849394999999999">
        <ele>406.229</ele>
        <time>2022-08-25T10:18:26Z</time>
      </trkpt>
      <trkpt lat="42.66581600000029" lon="-1.849407999999999">
        <ele>406.492</ele>
        <time>2022-08-25T10:18:27Z</time>
      </trkpt>
      <trkpt lat="42.66581700000029" lon="-1.8494149999999991">
        <ele>406.688</ele>
        <time>2022-08-25T10:18:28Z</time>
      </trkpt>
      <trkpt lat="42.665818000000286" lon="-1.8494179999999991">
        <ele>406.689</ele>
        <time>2022-08-25T10:18:29Z</time>
      </trkpt>
      <trkpt lat="42.665821000000285" lon="-1.8494309999999992">
        <ele>406.844</ele>
        <time>2022-08-25T10:18:30Z</time>
      </trkpt>
      <trkpt lat="42.66582300000029" lon="-1.8494439999999992">
        <ele>407.005</ele>
        <time>2022-08-25T10:18:31Z</time>
      </trkpt>
      <trkpt lat="42.66582500000029" lon="-1.849455999999999">
        <ele>407.015</ele>
        <time>2022-08-25T10:18:32Z</time>
      </trkpt>
      <trkpt lat="42.66582400000029" lon="-1.8494689999999991">
        <ele>407.209</ele>
        <time>2022-08-25T10:18:33Z</time>
      </trkpt>
      <trkpt lat="42.66582500000029" lon="-1.849480999999999">
        <ele>407.245</ele>
        <time>2022-08-25T10:18:34Z</time>
      </trkpt>
      <trkpt lat="42.66582700000029" lon="-1.849493999999999">
        <ele>407.255</ele>
        <time>2022-08-25T10:18:35Z</time>
      </trkpt>
      <trkpt lat="42.66582800000029" lon="-1.8495039999999991">
        <ele>407.485</ele>
        <time>2022-08-25T10:18:36Z</time>
      </trkpt>
      <trkpt lat="42.66583000000029" lon="-1.849512999999999">
        <ele>407.461</ele>
        <time>2022-08-25T10:18:37Z</time>
      </trkpt>
      <trkpt lat="42.66583300000029" lon="-1.849524999999999">
        <ele>407.433</ele>
        <time>2022-08-25T10:18:38Z</time>
      </trkpt>
      <trkpt lat="42.66583600000029" lon="-1.8495369999999989">
        <ele>407.630</ele>
        <time>2022-08-25T10:18:39Z</time>
      </trkpt>
      <trkpt lat="42.66583600000029" lon="-1.8495459999999988">
        <ele>407.853</ele>
        <time>2022-08-25T10:18:40Z</time>
      </trkpt>
      <trkpt lat="42.66583600000029" lon="-1.8495539999999988">
        <ele>407.899</ele>
        <time>2022-08-25T10:18:41Z</time>
      </trkpt>
      <trkpt lat="42.66583900000029" lon="-1.8495619999999988">
        <ele>408.030</ele>
        <time>2022-08-25T10:18:42Z</time>
      </trkpt>
      <trkpt lat="42.66584200000029" lon="-1.8495719999999989">
        <ele>408.012</ele>
        <time>2022-08-25T10:18:43Z</time>
      </trkpt>
      <trkpt lat="42.665846000000286" lon="-1.8495839999999988">
        <ele>408.232</ele>
        <time>2022-08-25T10:18:44Z</time>
      </trkpt>
      <trkpt lat="42.66585100000029" lon="-1.8495989999999989">
        <ele>408.205</ele>
        <time>2022-08-25T10:18:45Z</time>
      </trkpt>
      <trkpt lat="42.665852000000285" lon="-1.8496129999999988">
        <ele>408.409</ele>
        <time>2022-08-25T10:18:46Z</time>
      </trkpt>
      <trkpt lat="42.66585400000029" lon="-1.8496259999999989">
        <ele>408.622</ele>
        <time>2022-08-25T10:18:47Z</time>
      </trkpt>
      <trkpt lat="42.665858000000284" lon="-1.849640999999999">
        <ele>408.662</ele>
        <time>2022-08-25T10:18:48Z</time>
      </trkpt>
      <trkpt lat="42.66586200000028" lon="-1.849655999999999">
        <ele>409.072</ele>
        <time>2022-08-25T10:18:49Z</time>
      </trkpt>
      <trkpt lat="42.66586700000028" lon="-1.849671999999999">
        <ele>409.018</ele>
        <time>2022-08-25T10:18:50Z</time>
      </trkpt>
      <trkpt lat="42.66587300000028" lon="-1.849691999999999">
        <ele>409.490</ele>
        <time>2022-08-25T10:18:51Z</time>
      </trkpt>
      <trkpt lat="42.66587900000028" lon="-1.849713999999999">
        <ele>409.637</ele>
        <time>2022-08-25T10:18:52Z</time>
      </trkpt>
      <trkpt lat="42.66588500000028" lon="-1.8497259999999989">
        <ele>409.830</ele>
        <time>2022-08-25T10:18:53Z</time>
      </trkpt>
      <trkpt lat="42.66589000000028" lon="-1.8497399999999988">
        <ele>410.056</ele>
        <time>2022-08-25T10:18:54Z</time>
      </trkpt>
      <trkpt lat="42.66589600000028" lon="-1.8497569999999988">
        <ele>410.057</ele>
        <time>2022-08-25T10:18:55Z</time>
      </trkpt>
      <trkpt lat="42.66590000000028" lon="-1.8497749999999988">
        <ele>410.263</ele>
        <time>2022-08-25T10:18:56Z</time>
      </trkpt>
      <trkpt lat="42.66590200000028" lon="-1.849792999999999">
        <ele>410.244</ele>
        <time>2022-08-25T10:18:57Z</time>
      </trkpt>
      <trkpt lat="42.66590500000028" lon="-1.849810999999999">
        <ele>410.418</ele>
        <time>2022-08-25T10:18:58Z</time>
      </trkpt>
      <trkpt lat="42.66590800000028" lon="-1.849828999999999">
        <ele>410.609</ele>
        <time>2022-08-25T10:18:59Z</time>
      </trkpt>
      <trkpt lat="42.66591100000028" lon="-1.849848999999999">
        <ele>410.827</ele>
        <time>2022-08-25T10:19:00Z</time>
      </trkpt>
      <trkpt lat="42.66591400000028" lon="-1.8498689999999989">
        <ele>411.257</ele>
        <time>2022-08-25T10:19:01Z</time>
      </trkpt>
      <trkpt lat="42.665915000000275" lon="-1.849886999999999">
        <ele>411.487</ele>
        <time>2022-08-25T10:19:02Z</time>
      </trkpt>
      <trkpt lat="42.66591700000028" lon="-1.849904999999999">
        <ele>411.653</ele>
        <time>2022-08-25T10:19:03Z</time>
      </trkpt>
      <trkpt lat="42.66592200000028" lon="-1.849922999999999">
        <ele>411.855</ele>
        <time>2022-08-25T10:19:04Z</time>
      </trkpt>
      <trkpt lat="42.66592700000028" lon="-1.849942999999999">
        <ele>412.052</ele>
        <time>2022-08-25T10:19:05Z</time>
      </trkpt>
      <trkpt lat="42.66592900000028" lon="-1.849963999999999">
        <ele>412.255</ele>
        <time>2022-08-25T10:19:06Z</time>
      </trkpt>
      <trkpt lat="42.665931000000285" lon="-1.8499869999999992">
        <ele>412.421</ele>
        <time>2022-08-25T10:19:07Z</time>
      </trkpt>
      <trkpt lat="42.66593200000028" lon="-1.8500109999999992">
        <ele>412.652</ele>
        <time>2022-08-25T10:19:08Z</time>
      </trkpt>
      <trkpt lat="42.665931000000285" lon="-1.8500349999999992">
        <ele>412.688</ele>
        <time>2022-08-25T10:19:09Z</time>
      </trkpt>
      <trkpt lat="42.66593000000029" lon="-1.8500579999999993">
        <ele>413.024</ele>
        <time>2022-08-25T10:19:10Z</time>
      </trkpt>
      <trkpt lat="42.66593200000029" lon="-1.8500769999999993">
        <ele>413.426</ele>
        <time>2022-08-25T10:19:11Z</time>
      </trkpt>
      <trkpt lat="42.66593400000029" lon="-1.8500969999999992">
        <ele>413.609</ele>
        <time>2022-08-25T10:19:12Z</time>
      </trkpt>
      <trkpt lat="42.66593700000029" lon="-1.8501149999999993">
        <ele>413.699</ele>
        <time>2022-08-25T10:19:13Z</time>
      </trkpt>
      <trkpt lat="42.66594100000029" lon="-1.8501319999999992">
        <ele>413.839</ele>
        <time>2022-08-25T10:19:14Z</time>
      </trkpt>
      <trkpt lat="42.665945000000285" lon="-1.8501479999999992">
        <ele>414.029</ele>
        <time>2022-08-25T10:19:15Z</time>
      </trkpt>
      <trkpt lat="42.665948000000284" lon="-1.8501659999999993">
        <ele>414.225</ele>
        <time>2022-08-25T10:19:16Z</time>
      </trkpt>
      <trkpt lat="42.66595200000028" lon="-1.8501829999999992">
        <ele>414.477</ele>
        <time>2022-08-25T10:19:17Z</time>
      </trkpt>
      <trkpt lat="42.66595500000028" lon="-1.8502019999999992">
        <ele>414.634</ele>
        <time>2022-08-25T10:19:18Z</time>
      </trkpt>
      <trkpt lat="42.66595700000028" lon="-1.8502189999999992">
        <ele>414.877</ele>
        <time>2022-08-25T10:19:19Z</time>
      </trkpt>
      <trkpt lat="42.66596000000028" lon="-1.850235999999999">
        <ele>415.033</ele>
        <time>2022-08-25T10:19:20Z</time>
      </trkpt>
      <trkpt lat="42.665962000000285" lon="-1.8502539999999992">
        <ele>415.244</ele>
        <time>2022-08-25T10:19:21Z</time>
      </trkpt>
      <trkpt lat="42.66596100000029" lon="-1.8502689999999993">
        <ele>415.424</ele>
        <time>2022-08-25T10:19:22Z</time>
      </trkpt>
      <trkpt lat="42.66596100000029" lon="-1.8502829999999992">
        <ele>415.404</ele>
        <time>2022-08-25T10:19:23Z</time>
      </trkpt>
      <trkpt lat="42.66596300000029" lon="-1.8502979999999993">
        <ele>415.414</ele>
        <time>2022-08-25T10:19:24Z</time>
      </trkpt>
      <trkpt lat="42.66596400000029" lon="-1.8503089999999993">
        <ele>415.609</ele>
        <time>2022-08-25T10:19:25Z</time>
      </trkpt>
      <trkpt lat="42.665965000000284" lon="-1.8503209999999992">
        <ele>415.833</ele>
        <time>2022-08-25T10:19:26Z</time>
      </trkpt>
      <trkpt lat="42.665968000000284" lon="-1.8503339999999993">
        <ele>415.823</ele>
        <time>2022-08-25T10:19:27Z</time>
      </trkpt>
      <trkpt lat="42.66597200000028" lon="-1.8503469999999993">
        <ele>415.863</ele>
        <time>2022-08-25T10:19:28Z</time>
      </trkpt>
      <trkpt lat="42.66597600000028" lon="-1.8503619999999994">
        <ele>416.039</ele>
        <time>2022-08-25T10:19:29Z</time>
      </trkpt>
      <trkpt lat="42.665977000000275" lon="-1.8503759999999994">
        <ele>416.261</ele>
        <time>2022-08-25T10:19:30Z</time>
      </trkpt>
      <trkpt lat="42.66597900000028" lon="-1.8503929999999993">
        <ele>416.228</ele>
        <time>2022-08-25T10:19:31Z</time>
      </trkpt>
      <trkpt lat="42.66598100000028" lon="-1.8504069999999992">
        <ele>416.291</ele>
        <time>2022-08-25T10:19:32Z</time>
      </trkpt>
      <trkpt lat="42.66598300000028" lon="-1.8504229999999993">
        <ele>416.467</ele>
        <time>2022-08-25T10:19:33Z</time>
      </trkpt>
      <trkpt lat="42.66598400000028" lon="-1.8504399999999992">
        <ele>416.468</ele>
        <time>2022-08-25T10:19:34Z</time>
      </trkpt>
      <trkpt lat="42.66598600000028" lon="-1.8504579999999993">
        <ele>416.622</ele>
        <time>2022-08-25T10:19:35Z</time>
      </trkpt>
      <trkpt lat="42.66598700000028" lon="-1.8504749999999992">
        <ele>416.862</ele>
        <time>2022-08-25T10:19:36Z</time>
      </trkpt>
      <trkpt lat="42.665988000000276" lon="-1.8504909999999992">
        <ele>417.008</ele>
        <time>2022-08-25T10:19:37Z</time>
      </trkpt>
      <trkpt lat="42.66598900000027" lon="-1.8505059999999993">
        <ele>417.009</ele>
        <time>2022-08-25T10:19:38Z</time>
      </trkpt>
      <trkpt lat="42.66599000000027" lon="-1.8505199999999993">
        <ele>417.023</ele>
        <time>2022-08-25T10:19:39Z</time>
      </trkpt>
      <trkpt lat="42.66599400000027" lon="-1.8505349999999994">
        <ele>417.273</ele>
        <time>2022-08-25T10:19:40Z</time>
      </trkpt>
      <trkpt lat="42.66599400000027" lon="-1.8505519999999993">
        <ele>417.453</ele>
        <time>2022-08-25T10:19:41Z</time>
      </trkpt>
      <trkpt lat="42.66599700000027" lon="-1.8505679999999993">
        <ele>417.859</ele>
        <time>2022-08-25T10:19:42Z</time>
      </trkpt>
      <trkpt lat="42.66600200000027" lon="-1.8505829999999994">
        <ele>417.851</ele>
        <time>2022-08-25T10:19:43Z</time>
      </trkpt>
      <trkpt lat="42.66600800000027" lon="-1.8505969999999994">
        <ele>418.098</ele>
        <time>2022-08-25T10:19:44Z</time>
      </trkpt>
      <trkpt lat="42.66601300000027" lon="-1.8506089999999993">
        <ele>418.221</ele>
        <time>2022-08-25T10:19:45Z</time>
      </trkpt>
      <trkpt lat="42.66601700000027" lon="-1.8506219999999993">
        <ele>418.487</ele>
        <time>2022-08-25T10:19:46Z</time>
      </trkpt>
      <trkpt lat="42.66602100000026" lon="-1.8506339999999992">
        <ele>418.648</ele>
        <time>2022-08-25T10:19:47Z</time>
      </trkpt>
      <trkpt lat="42.66602400000026" lon="-1.8506469999999993">
        <ele>418.844</ele>
        <time>2022-08-25T10:19:48Z</time>
      </trkpt>
      <trkpt lat="42.666029000000265" lon="-1.8506609999999992">
        <ele>419.005</ele>
        <time>2022-08-25T10:19:49Z</time>
      </trkpt>
      <trkpt lat="42.666034000000266" lon="-1.8506719999999992">
        <ele>419.015</ele>
        <time>2022-08-25T10:19:50Z</time>
      </trkpt>
      <trkpt lat="42.66603800000026" lon="-1.850683999999999">
        <ele>419.209</ele>
        <time>2022-08-25T10:19:51Z</time>
      </trkpt>
      <trkpt lat="42.66604200000026" lon="-1.850695999999999">
        <ele>419.435</ele>
        <time>2022-08-25T10:19:52Z</time>
      </trkpt>
      <trkpt lat="42.66604700000026" lon="-1.850707999999999">
        <ele>419.635</ele>
        <time>2022-08-25T10:19:53Z</time>
      </trkpt>
      <trkpt lat="42.66605300000026" lon="-1.850720999999999">
        <ele>419.885</ele>
        <time>2022-08-25T10:19:54Z</time>
      </trkpt>
      <trkpt lat="42.66605500000026" lon="-1.850733999999999">
        <ele>419.881</ele>
        <time>2022-08-25T10:19:55Z</time>
      </trkpt>
      <trkpt lat="42.66605800000026" lon="-1.850747999999999">
        <ele>420.043</ele>
        <time>2022-08-25T10:19:56Z</time>
      </trkpt>
      <trkpt lat="42.66606100000026" lon="-1.8507599999999989">
        <ele>420.070</ele>
        <time>2022-08-25T10:19:57Z</time>
      </trkpt>
      <trkpt lat="42.66606500000026" lon="-1.8507719999999988">
        <ele>420.243</ele>
        <time>2022-08-25T10:19:58Z</time>
      </trkpt>
      <trkpt lat="42.66606800000026" lon="-1.8507849999999988">
        <ele>420.279</ele>
        <time>2022-08-25T10:19:59Z</time>
      </trkpt>
      <trkpt lat="42.66607300000026" lon="-1.8507959999999988">
        <ele>420.230</ele>
        <time>2022-08-25T10:20:00Z</time>
      </trkpt>
      <trkpt lat="42.66607800000026" lon="-1.8508079999999987">
        <ele>420.427</ele>
        <time>2022-08-25T10:20:01Z</time>
      </trkpt>
      <trkpt lat="42.66608300000026" lon="-1.8508169999999986">
        <ele>420.468</ele>
        <time>2022-08-25T10:20:02Z</time>
      </trkpt>
      <trkpt lat="42.66609000000026" lon="-1.8508319999999987">
        <ele>420.414</ele>
        <time>2022-08-25T10:20:03Z</time>
      </trkpt>
      <trkpt lat="42.66609800000026" lon="-1.8508419999999988">
        <ele>420.409</ele>
        <time>2022-08-25T10:20:04Z</time>
      </trkpt>
      <trkpt lat="42.66610400000026" lon="-1.8508509999999987">
        <ele>420.683</ele>
        <time>2022-08-25T10:20:05Z</time>
      </trkpt>
      <trkpt lat="42.66610800000026" lon="-1.8508649999999987">
        <ele>420.843</ele>
        <time>2022-08-25T10:20:06Z</time>
      </trkpt>
      <trkpt lat="42.66611000000026" lon="-1.8508749999999987">
        <ele>420.893</ele>
        <time>2022-08-25T10:20:07Z</time>
      </trkpt>
      <trkpt lat="42.66611200000026" lon="-1.8508829999999987">
        <ele>421.049</ele>
        <time>2022-08-25T10:20:08Z</time>
      </trkpt>
      <trkpt lat="42.66611800000026" lon="-1.8508929999999988">
        <ele>421.071</ele>
        <time>2022-08-25T10:20:09Z</time>
      </trkpt>
      <trkpt lat="42.66612300000026" lon="-1.8509059999999988">
        <ele>421.248</ele>
        <time>2022-08-25T10:20:10Z</time>
      </trkpt>
      <trkpt lat="42.66612900000026" lon="-1.8509189999999989">
        <ele>421.411</ele>
        <time>2022-08-25T10:20:11Z</time>
      </trkpt>
      <trkpt lat="42.66613500000026" lon="-1.850931999999999">
        <ele>421.687</ele>
        <time>2022-08-25T10:20:12Z</time>
      </trkpt>
      <trkpt lat="42.66613800000026" lon="-1.850944999999999">
        <ele>421.858</ele>
        <time>2022-08-25T10:20:13Z</time>
      </trkpt>
      <trkpt lat="42.66614000000026" lon="-1.850955999999999">
        <ele>421.879</ele>
        <time>2022-08-25T10:20:14Z</time>
      </trkpt>
      <trkpt lat="42.66614300000026" lon="-1.850970999999999">
        <ele>422.005</ele>
        <time>2022-08-25T10:20:15Z</time>
      </trkpt>
      <trkpt lat="42.66614600000026" lon="-1.850980999999999">
        <ele>422.225</ele>
        <time>2022-08-25T10:20:16Z</time>
      </trkpt>
      <trkpt lat="42.66615300000026" lon="-1.850992999999999">
        <ele>422.409</ele>
        <time>2022-08-25T10:20:17Z</time>
      </trkpt>
      <trkpt lat="42.666159000000256" lon="-1.851002999999999">
        <ele>422.638</ele>
        <time>2022-08-25T10:20:18Z</time>
      </trkpt>
      <trkpt lat="42.66616600000025" lon="-1.8510129999999991">
        <ele>422.638</ele>
        <time>2022-08-25T10:20:19Z</time>
      </trkpt>
      <trkpt lat="42.66617200000025" lon="-1.8510239999999991">
        <ele>422.618</ele>
        <time>2022-08-25T10:20:20Z</time>
      </trkpt>
      <trkpt lat="42.66617500000025" lon="-1.8510369999999992">
        <ele>422.864</ele>
        <time>2022-08-25T10:20:21Z</time>
      </trkpt>
      <trkpt lat="42.66617800000025" lon="-1.8510509999999991">
        <ele>422.896</ele>
        <time>2022-08-25T10:20:22Z</time>
      </trkpt>
      <trkpt lat="42.66618200000025" lon="-1.851062999999999">
        <ele>423.033</ele>
        <time>2022-08-25T10:20:23Z</time>
      </trkpt>
      <trkpt lat="42.66618800000025" lon="-1.851072999999999">
        <ele>423.266</ele>
        <time>2022-08-25T10:20:24Z</time>
      </trkpt>
      <trkpt lat="42.66619500000024" lon="-1.8510829999999991">
        <ele>423.492</ele>
        <time>2022-08-25T10:20:25Z</time>
      </trkpt>
      <trkpt lat="42.66620100000024" lon="-1.8510939999999991">
        <ele>423.453</ele>
        <time>2022-08-25T10:20:26Z</time>
      </trkpt>
      <trkpt lat="42.666206000000244" lon="-1.8511069999999992">
        <ele>423.445</ele>
        <time>2022-08-25T10:20:27Z</time>
      </trkpt>
      <trkpt lat="42.666211000000246" lon="-1.8511209999999991">
        <ele>423.647</ele>
        <time>2022-08-25T10:20:28Z</time>
      </trkpt>
      <trkpt lat="42.66621800000024" lon="-1.851134999999999">
        <ele>423.611</ele>
        <time>2022-08-25T10:20:29Z</time>
      </trkpt>
      <trkpt lat="42.66622600000024" lon="-1.851148999999999">
        <ele>423.809</ele>
        <time>2022-08-25T10:20:30Z</time>
      </trkpt>
      <trkpt lat="42.66623300000024" lon="-1.851161999999999">
        <ele>423.845</ele>
        <time>2022-08-25T10:20:31Z</time>
      </trkpt>
      <trkpt lat="42.66624100000024" lon="-1.8511719999999992">
        <ele>424.025</ele>
        <time>2022-08-25T10:20:32Z</time>
      </trkpt>
      <trkpt lat="42.66624800000024" lon="-1.8511819999999992">
        <ele>424.035</ele>
        <time>2022-08-25T10:20:33Z</time>
      </trkpt>
      <trkpt lat="42.66625100000024" lon="-1.8511889999999993">
        <ele>424.211</ele>
        <time>2022-08-25T10:20:34Z</time>
      </trkpt>
      <trkpt lat="42.66625400000024" lon="-1.8512009999999992">
        <ele>424.263</ele>
        <time>2022-08-25T10:20:35Z</time>
      </trkpt>
      <trkpt lat="42.66625900000024" lon="-1.8512109999999993">
        <ele>424.420</ele>
        <time>2022-08-25T10:20:36Z</time>
      </trkpt>
      <trkpt lat="42.66626400000024" lon="-1.8512229999999992">
        <ele>424.653</ele>
        <time>2022-08-25T10:20:37Z</time>
      </trkpt>
      <trkpt lat="42.66626800000024" lon="-1.851234999999999">
        <ele>424.639</ele>
        <time>2022-08-25T10:20:38Z</time>
      </trkpt>
      <trkpt lat="42.66627300000024" lon="-1.851246999999999">
        <ele>425.040</ele>
        <time>2022-08-25T10:20:39Z</time>
      </trkpt>
      <trkpt lat="42.666280000000235" lon="-1.851257999999999">
        <ele>425.064</ele>
        <time>2022-08-25T10:20:40Z</time>
      </trkpt>
      <trkpt lat="42.66628700000023" lon="-1.8512699999999989">
        <ele>425.206</ele>
        <time>2022-08-25T10:20:41Z</time>
      </trkpt>
      <trkpt lat="42.66629200000023" lon="-1.8512789999999988">
        <ele>425.216</ele>
        <time>2022-08-25T10:20:42Z</time>
      </trkpt>
      <trkpt lat="42.66629600000023" lon="-1.8512899999999988">
        <ele>425.409</ele>
        <time>2022-08-25T10:20:43Z</time>
      </trkpt>
      <trkpt lat="42.66630000000023" lon="-1.8512999999999988">
        <ele>425.477</ele>
        <time>2022-08-25T10:20:44Z</time>
      </trkpt>
      <trkpt lat="42.66630300000023" lon="-1.8513129999999989">
        <ele>425.617</ele>
        <time>2022-08-25T10:20:45Z</time>
      </trkpt>
      <trkpt lat="42.666306000000226" lon="-1.8513249999999988">
        <ele>425.627</ele>
        <time>2022-08-25T10:20:46Z</time>
      </trkpt>
      <trkpt lat="42.66630800000023" lon="-1.8513359999999988">
        <ele>425.663</ele>
        <time>2022-08-25T10:20:47Z</time>
      </trkpt>
      <trkpt lat="42.66631000000023" lon="-1.8513469999999987">
        <ele>425.855</ele>
        <time>2022-08-25T10:20:48Z</time>
      </trkpt>
      <trkpt lat="42.66631400000023" lon="-1.8513599999999988">
        <ele>426.052</ele>
        <time>2022-08-25T10:20:49Z</time>
      </trkpt>
      <trkpt lat="42.666318000000224" lon="-1.8513699999999988">
        <ele>426.085</ele>
        <time>2022-08-25T10:20:50Z</time>
      </trkpt>
      <trkpt lat="42.666323000000226" lon="-1.8513809999999988">
        <ele>426.231</ele>
        <time>2022-08-25T10:20:51Z</time>
      </trkpt>
      <trkpt lat="42.66632800000023" lon="-1.8513949999999988">
        <ele>426.452</ele>
        <time>2022-08-25T10:20:52Z</time>
      </trkpt>
      <trkpt lat="42.666335000000224" lon="-1.8514069999999987">
        <ele>426.482</ele>
        <time>2022-08-25T10:20:53Z</time>
      </trkpt>
      <trkpt lat="42.66634200000022" lon="-1.8514179999999987">
        <ele>426.443</ele>
        <time>2022-08-25T10:20:54Z</time>
      </trkpt>
      <trkpt lat="42.66634900000022" lon="-1.8514309999999987">
        <ele>426.617</ele>
        <time>2022-08-25T10:20:55Z</time>
      </trkpt>
      <trkpt lat="42.66635400000022" lon="-1.8514439999999988">
        <ele>426.809</ele>
        <time>2022-08-25T10:20:56Z</time>
      </trkpt>
      <trkpt lat="42.66635900000022" lon="-1.8514559999999987">
        <ele>426.879</ele>
        <time>2022-08-25T10:20:57Z</time>
      </trkpt>
      <trkpt lat="42.66636400000022" lon="-1.8514679999999986">
        <ele>427.079</ele>
        <time>2022-08-25T10:20:58Z</time>
      </trkpt>
      <trkpt lat="42.66637000000022" lon="-1.8514799999999985">
        <ele>427.069</ele>
        <time>2022-08-25T10:20:59Z</time>
      </trkpt>
      <trkpt lat="42.66637700000022" lon="-1.8514899999999985">
        <ele>427.265</ele>
        <time>2022-08-25T10:21:00Z</time>
      </trkpt>
      <trkpt lat="42.66638200000022" lon="-1.8514989999999985">
        <ele>427.447</ele>
        <time>2022-08-25T10:21:01Z</time>
      </trkpt>
      <trkpt lat="42.666389000000216" lon="-1.8515129999999984">
        <ele>427.674</ele>
        <time>2022-08-25T10:21:02Z</time>
      </trkpt>
      <trkpt lat="42.666395000000215" lon="-1.8515249999999983">
        <ele>427.847</ele>
        <time>2022-08-25T10:21:03Z</time>
      </trkpt>
      <trkpt lat="42.666401000000214" lon="-1.8515369999999982">
        <ele>428.083</ele>
        <time>2022-08-25T10:21:04Z</time>
      </trkpt>
      <trkpt lat="42.666409000000215" lon="-1.8515479999999982">
        <ele>428.264</ele>
        <time>2022-08-25T10:21:05Z</time>
      </trkpt>
      <trkpt lat="42.666414000000216" lon="-1.8515569999999981">
        <ele>428.442</ele>
        <time>2022-08-25T10:21:06Z</time>
      </trkpt>
      <trkpt lat="42.666420000000215" lon="-1.8515669999999982">
        <ele>428.822</ele>
        <time>2022-08-25T10:21:07Z</time>
      </trkpt>
      <trkpt lat="42.66642500000022" lon="-1.8515799999999982">
        <ele>429.014</ele>
        <time>2022-08-25T10:21:08Z</time>
      </trkpt>
      <trkpt lat="42.66643000000022" lon="-1.8515939999999982">
        <ele>429.009</ele>
        <time>2022-08-25T10:21:09Z</time>
      </trkpt>
      <trkpt lat="42.66643600000022" lon="-1.8516049999999982">
        <ele>429.425</ele>
        <time>2022-08-25T10:21:10Z</time>
      </trkpt>
      <trkpt lat="42.666440000000215" lon="-1.8516149999999982">
        <ele>429.655</ele>
        <time>2022-08-25T10:21:11Z</time>
      </trkpt>
      <trkpt lat="42.666446000000214" lon="-1.8516269999999981">
        <ele>429.865</ele>
        <time>2022-08-25T10:21:12Z</time>
      </trkpt>
      <trkpt lat="42.66645200000021" lon="-1.8516369999999982">
        <ele>430.071</ele>
        <time>2022-08-25T10:21:13Z</time>
      </trkpt>
      <trkpt lat="42.666460000000214" lon="-1.8516439999999983">
        <ele>430.013</ele>
        <time>2022-08-25T10:21:14Z</time>
      </trkpt>
      <trkpt lat="42.666468000000215" lon="-1.8516559999999982">
        <ele>430.210</ele>
        <time>2022-08-25T10:21:15Z</time>
      </trkpt>
      <trkpt lat="42.666476000000216" lon="-1.851667999999998">
        <ele>430.463</ele>
        <time>2022-08-25T10:21:16Z</time>
      </trkpt>
      <trkpt lat="42.666482000000215" lon="-1.8516829999999982">
        <ele>430.459</ele>
        <time>2022-08-25T10:21:17Z</time>
      </trkpt>
      <trkpt lat="42.666490000000216" lon="-1.8517009999999983">
        <ele>430.640</ele>
        <time>2022-08-25T10:21:18Z</time>
      </trkpt>
      <trkpt lat="42.66650000000022" lon="-1.8517159999999984">
        <ele>431.096</ele>
        <time>2022-08-25T10:21:19Z</time>
      </trkpt>
      <trkpt lat="42.66651000000022" lon="-1.8517269999999983">
        <ele>431.231</ele>
        <time>2022-08-25T10:21:20Z</time>
      </trkpt>
      <trkpt lat="42.66651600000022" lon="-1.8517359999999983">
        <ele>431.624</ele>
        <time>2022-08-25T10:21:21Z</time>
      </trkpt>
      <trkpt lat="42.66652200000022" lon="-1.8517469999999983">
        <ele>431.809</ele>
        <time>2022-08-25T10:21:22Z</time>
      </trkpt>
      <trkpt lat="42.66652800000022" lon="-1.8517599999999983">
        <ele>431.830</ele>
        <time>2022-08-25T10:21:23Z</time>
      </trkpt>
      <trkpt lat="42.66653100000022" lon="-1.8517729999999983">
        <ele>432.270</ele>
        <time>2022-08-25T10:21:24Z</time>
      </trkpt>
      <trkpt lat="42.666535000000216" lon="-1.8517859999999984">
        <ele>432.660</ele>
        <time>2022-08-25T10:21:25Z</time>
      </trkpt>
      <trkpt lat="42.66654200000021" lon="-1.8517979999999983">
        <ele>432.886</ele>
        <time>2022-08-25T10:21:26Z</time>
      </trkpt>
      <trkpt lat="42.66654900000021" lon="-1.8518099999999982">
        <ele>433.278</ele>
        <time>2022-08-25T10:21:27Z</time>
      </trkpt>
      <trkpt lat="42.66655700000021" lon="-1.8518229999999982">
        <ele>433.465</ele>
        <time>2022-08-25T10:21:28Z</time>
      </trkpt>
      <trkpt lat="42.66656400000021" lon="-1.8518339999999982">
        <ele>433.888</ele>
        <time>2022-08-25T10:21:29Z</time>
      </trkpt>
      <trkpt lat="42.666570000000206" lon="-1.8518469999999982">
        <ele>433.884</ele>
        <time>2022-08-25T10:21:30Z</time>
      </trkpt>
      <trkpt lat="42.666576000000205" lon="-1.8518579999999982">
        <ele>434.065</ele>
        <time>2022-08-25T10:21:31Z</time>
      </trkpt>
      <trkpt lat="42.66658100000021" lon="-1.8518729999999983">
        <ele>434.023</ele>
        <time>2022-08-25T10:21:32Z</time>
      </trkpt>
      <trkpt lat="42.666585000000204" lon="-1.8518929999999982">
        <ele>434.283</ele>
        <time>2022-08-25T10:21:33Z</time>
      </trkpt>
      <trkpt lat="42.6665890000002" lon="-1.8519099999999982">
        <ele>434.611</ele>
        <time>2022-08-25T10:21:34Z</time>
      </trkpt>
      <trkpt lat="42.6665900000002" lon="-1.8519249999999983">
        <ele>434.809</ele>
        <time>2022-08-25T10:21:35Z</time>
      </trkpt>
      <trkpt lat="42.6665930000002" lon="-1.8519419999999982">
        <ele>435.023</ele>
        <time>2022-08-25T10:21:36Z</time>
      </trkpt>
      <trkpt lat="42.6665980000002" lon="-1.8519599999999983">
        <ele>435.013</ele>
        <time>2022-08-25T10:21:37Z</time>
      </trkpt>
      <trkpt lat="42.6666000000002" lon="-1.8519749999999984">
        <ele>435.273</ele>
        <time>2022-08-25T10:21:38Z</time>
      </trkpt>
      <trkpt lat="42.6666060000002" lon="-1.8519899999999985">
        <ele>435.279</ele>
        <time>2022-08-25T10:21:39Z</time>
      </trkpt>
      <trkpt lat="42.6666120000002" lon="-1.8520049999999986">
        <ele>435.481</ele>
        <time>2022-08-25T10:21:40Z</time>
      </trkpt>
      <trkpt lat="42.6666180000002" lon="-1.8520209999999986">
        <ele>435.638</ele>
        <time>2022-08-25T10:21:41Z</time>
      </trkpt>
      <trkpt lat="42.6666230000002" lon="-1.8520379999999985">
        <ele>435.871</ele>
        <time>2022-08-25T10:21:42Z</time>
      </trkpt>
      <trkpt lat="42.6666270000002" lon="-1.8520519999999985">
        <ele>436.027</ele>
        <time>2022-08-25T10:21:43Z</time>
      </trkpt>
      <trkpt lat="42.6666300000002" lon="-1.8520629999999985">
        <ele>436.478</ele>
        <time>2022-08-25T10:21:44Z</time>
      </trkpt>
      <trkpt lat="42.666634000000194" lon="-1.8520819999999985">
        <ele>436.653</ele>
        <time>2022-08-25T10:21:45Z</time>
      </trkpt>
      <trkpt lat="42.66663800000019" lon="-1.8520999999999985">
        <ele>437.004</ele>
        <time>2022-08-25T10:21:46Z</time>
      </trkpt>
      <trkpt lat="42.66664100000019" lon="-1.8521159999999985">
        <ele>437.014</ele>
        <time>2022-08-25T10:21:47Z</time>
      </trkpt>
      <trkpt lat="42.66664500000019" lon="-1.8521319999999986">
        <ele>437.209</ele>
        <time>2022-08-25T10:21:48Z</time>
      </trkpt>
      <trkpt lat="42.66664800000019" lon="-1.8521449999999986">
        <ele>437.496</ele>
        <time>2022-08-25T10:21:49Z</time>
      </trkpt>
      <trkpt lat="42.66665300000019" lon="-1.8521569999999985">
        <ele>437.676</ele>
        <time>2022-08-25T10:21:50Z</time>
      </trkpt>
      <trkpt lat="42.666657000000185" lon="-1.8521729999999985">
        <ele>437.876</ele>
        <time>2022-08-25T10:21:51Z</time>
      </trkpt>
      <trkpt lat="42.66666200000019" lon="-1.8521879999999986">
        <ele>437.862</ele>
        <time>2022-08-25T10:21:52Z</time>
      </trkpt>
      <trkpt lat="42.66666700000019" lon="-1.8522019999999986">
        <ele>438.214</ele>
        <time>2022-08-25T10:21:53Z</time>
      </trkpt>
      <trkpt lat="42.666668000000186" lon="-1.8522169999999987">
        <ele>438.431</ele>
        <time>2022-08-25T10:21:54Z</time>
      </trkpt>
      <trkpt lat="42.66667000000019" lon="-1.8522299999999987">
        <ele>438.644</ele>
        <time>2022-08-25T10:21:55Z</time>
      </trkpt>
      <trkpt lat="42.66667200000019" lon="-1.8522439999999987">
        <ele>438.830</ele>
        <time>2022-08-25T10:21:56Z</time>
      </trkpt>
      <trkpt lat="42.66667700000019" lon="-1.8522569999999987">
        <ele>439.081</ele>
        <time>2022-08-25T10:21:57Z</time>
      </trkpt>
      <trkpt lat="42.66668100000019" lon="-1.8522649999999987">
        <ele>439.497</ele>
        <time>2022-08-25T10:21:58Z</time>
      </trkpt>
      <trkpt lat="42.666688000000185" lon="-1.8522829999999988">
        <ele>439.623</ele>
        <time>2022-08-25T10:21:59Z</time>
      </trkpt>
      <trkpt lat="42.666697000000184" lon="-1.8523019999999988">
        <ele>440.025</ele>
        <time>2022-08-25T10:22:00Z</time>
      </trkpt>
      <trkpt lat="42.66670600000018" lon="-1.8523189999999987">
        <ele>440.209</ele>
        <time>2022-08-25T10:22:01Z</time>
      </trkpt>
      <trkpt lat="42.66671300000018" lon="-1.8523289999999988">
        <ele>440.240</ele>
        <time>2022-08-25T10:22:02Z</time>
      </trkpt>
      <trkpt lat="42.66671600000018" lon="-1.8523389999999988">
        <ele>440.460</ele>
        <time>2022-08-25T10:22:03Z</time>
      </trkpt>
      <trkpt lat="42.66672100000018" lon="-1.8523549999999989">
        <ele>440.680</ele>
        <time>2022-08-25T10:22:04Z</time>
      </trkpt>
      <trkpt lat="42.66672700000018" lon="-1.852369999999999">
        <ele>440.856</ele>
        <time>2022-08-25T10:22:05Z</time>
      </trkpt>
      <trkpt lat="42.66673300000018" lon="-1.852387999999999">
        <ele>441.088</ele>
        <time>2022-08-25T10:22:06Z</time>
      </trkpt>
      <trkpt lat="42.66673900000018" lon="-1.8524029999999991">
        <ele>441.285</ele>
        <time>2022-08-25T10:22:07Z</time>
      </trkpt>
      <trkpt lat="42.666743000000174" lon="-1.8524159999999992">
        <ele>441.218</ele>
        <time>2022-08-25T10:22:08Z</time>
      </trkpt>
      <trkpt lat="42.666746000000174" lon="-1.852427999999999">
        <ele>441.474</ele>
        <time>2022-08-25T10:22:09Z</time>
      </trkpt>
      <trkpt lat="42.666748000000176" lon="-1.8524409999999991">
        <ele>441.455</ele>
        <time>2022-08-25T10:22:10Z</time>
      </trkpt>
      <trkpt lat="42.666751000000176" lon="-1.8524539999999992">
        <ele>441.664</ele>
        <time>2022-08-25T10:22:11Z</time>
      </trkpt>
      <trkpt lat="42.666751000000176" lon="-1.8524689999999993">
        <ele>441.606</ele>
        <time>2022-08-25T10:22:12Z</time>
      </trkpt>
      <trkpt lat="42.66675300000018" lon="-1.8524859999999992">
        <ele>441.616</ele>
        <time>2022-08-25T10:22:13Z</time>
      </trkpt>
      <trkpt lat="42.66675600000018" lon="-1.8525019999999992">
        <ele>441.609</ele>
        <time>2022-08-25T10:22:14Z</time>
      </trkpt>
      <trkpt lat="42.666760000000174" lon="-1.8525169999999993">
        <ele>441.667</ele>
        <time>2022-08-25T10:22:15Z</time>
      </trkpt>
      <trkpt lat="42.66676400000017" lon="-1.8525339999999992">
        <ele>441.857</ele>
        <time>2022-08-25T10:22:16Z</time>
      </trkpt>
      <trkpt lat="42.66677000000017" lon="-1.8525449999999992">
        <ele>442.087</ele>
        <time>2022-08-25T10:22:17Z</time>
      </trkpt>
      <trkpt lat="42.66677500000017" lon="-1.8525579999999993">
        <ele>442.233</ele>
        <time>2022-08-25T10:22:18Z</time>
      </trkpt>
      <trkpt lat="42.66678000000017" lon="-1.8525729999999994">
        <ele>442.445</ele>
        <time>2022-08-25T10:22:20Z</time>
      </trkpt>
      <trkpt lat="42.66678300000017" lon="-1.8525829999999994">
        <ele>442.632</ele>
        <time>2022-08-25T10:22:21Z</time>
      </trkpt>
      <trkpt lat="42.666785000000175" lon="-1.8525919999999994">
        <ele>442.655</ele>
        <time>2022-08-25T10:22:22Z</time>
      </trkpt>
      <trkpt lat="42.66678900000017" lon="-1.8526029999999993">
        <ele>442.861</ele>
        <time>2022-08-25T10:22:23Z</time>
      </trkpt>
      <trkpt lat="42.66679300000017" lon="-1.8526149999999992">
        <ele>442.832</ele>
        <time>2022-08-25T10:22:24Z</time>
      </trkpt>
      <trkpt lat="42.66679800000017" lon="-1.8526259999999992">
        <ele>443.084</ele>
        <time>2022-08-25T10:22:25Z</time>
      </trkpt>
      <trkpt lat="42.66680300000017" lon="-1.8526389999999993">
        <ele>443.207</ele>
        <time>2022-08-25T10:22:26Z</time>
      </trkpt>
      <trkpt lat="42.66680600000017" lon="-1.8526519999999993">
        <ele>443.417</ele>
        <time>2022-08-25T10:22:27Z</time>
      </trkpt>
      <trkpt lat="42.66680900000017" lon="-1.8526659999999993">
        <ele>443.409</ele>
        <time>2022-08-25T10:22:28Z</time>
      </trkpt>
      <trkpt lat="42.66681300000017" lon="-1.8526809999999994">
        <ele>443.489</ele>
        <time>2022-08-25T10:22:29Z</time>
      </trkpt>
      <trkpt lat="42.666817000000165" lon="-1.8526969999999994">
        <ele>443.679</ele>
        <time>2022-08-25T10:22:30Z</time>
      </trkpt>
      <trkpt lat="42.666820000000165" lon="-1.8527119999999995">
        <ele>443.699</ele>
        <time>2022-08-25T10:22:31Z</time>
      </trkpt>
      <trkpt lat="42.66682200000017" lon="-1.8527249999999995">
        <ele>443.815</ele>
        <time>2022-08-25T10:22:32Z</time>
      </trkpt>
      <trkpt lat="42.666825000000166" lon="-1.8527429999999996">
        <ele>444.047</ele>
        <time>2022-08-25T10:22:33Z</time>
      </trkpt>
      <trkpt lat="42.66682700000017" lon="-1.8527579999999997">
        <ele>444.224</ele>
        <time>2022-08-25T10:22:34Z</time>
      </trkpt>
      <trkpt lat="42.66682900000017" lon="-1.8527709999999997">
        <ele>444.457</ele>
        <time>2022-08-25T10:22:35Z</time>
      </trkpt>
      <trkpt lat="42.66683200000017" lon="-1.8527839999999998">
        <ele>444.623</ele>
        <time>2022-08-25T10:22:36Z</time>
      </trkpt>
      <trkpt lat="42.66683500000017" lon="-1.8527949999999997">
        <ele>444.864</ele>
        <time>2022-08-25T10:22:37Z</time>
      </trkpt>
      <trkpt lat="42.66683800000017" lon="-1.8528079999999998">
        <ele>445.066</ele>
        <time>2022-08-25T10:22:38Z</time>
      </trkpt>
      <trkpt lat="42.66684400000017" lon="-1.8528219999999997">
        <ele>445.229</ele>
        <time>2022-08-25T10:22:39Z</time>
      </trkpt>
      <trkpt lat="42.66684900000017" lon="-1.8528319999999998">
        <ele>445.221</ele>
        <time>2022-08-25T10:22:40Z</time>
      </trkpt>
      <trkpt lat="42.66685400000017" lon="-1.852839">
        <ele>445.409</ele>
        <time>2022-08-25T10:22:41Z</time>
      </trkpt>
      <trkpt lat="42.66686100000017" lon="-1.8528499999999999">
        <ele>445.657</ele>
        <time>2022-08-25T10:22:42Z</time>
      </trkpt>
      <trkpt lat="42.66686600000017" lon="-1.8528639999999998">
        <ele>445.657</ele>
        <time>2022-08-25T10:22:43Z</time>
      </trkpt>
      <trkpt lat="42.66687100000017" lon="-1.8528809999999998">
        <ele>445.837</ele>
        <time>2022-08-25T10:22:44Z</time>
      </trkpt>
      <trkpt lat="42.66687500000017" lon="-1.8528979999999997">
        <ele>446.053</ele>
        <time>2022-08-25T10:22:45Z</time>
      </trkpt>
      <trkpt lat="42.666879000000165" lon="-1.8529139999999997">
        <ele>446.285</ele>
        <time>2022-08-25T10:22:46Z</time>
      </trkpt>
      <trkpt lat="42.66688300000016" lon="-1.8529279999999997">
        <ele>446.422</ele>
        <time>2022-08-25T10:22:47Z</time>
      </trkpt>
      <trkpt lat="42.66688900000016" lon="-1.8529469999999997">
        <ele>446.655</ele>
        <time>2022-08-25T10:22:48Z</time>
      </trkpt>
      <trkpt lat="42.66689500000016" lon="-1.8529599999999997">
        <ele>446.821</ele>
        <time>2022-08-25T10:22:49Z</time>
      </trkpt>
      <trkpt lat="42.66690000000016" lon="-1.8529709999999997">
        <ele>447.032</ele>
        <time>2022-08-25T10:22:50Z</time>
      </trkpt>
      <trkpt lat="42.66690500000016" lon="-1.8529819999999997">
        <ele>447.277</ele>
        <time>2022-08-25T10:22:51Z</time>
      </trkpt>
      <trkpt lat="42.66691100000016" lon="-1.8529949999999997">
        <ele>447.461</ele>
        <time>2022-08-25T10:22:52Z</time>
      </trkpt>
      <trkpt lat="42.66691500000016" lon="-1.8530049999999998">
        <ele>447.427</ele>
        <time>2022-08-25T10:22:53Z</time>
      </trkpt>
      <trkpt lat="42.66692100000016" lon="-1.8530169999999997">
        <ele>447.609</ele>
        <time>2022-08-25T10:22:54Z</time>
      </trkpt>
      <trkpt lat="42.66692600000016" lon="-1.8530269999999998">
        <ele>447.838</ele>
        <time>2022-08-25T10:22:55Z</time>
      </trkpt>
      <trkpt lat="42.66693100000016" lon="-1.8530379999999997">
        <ele>448.248</ele>
        <time>2022-08-25T10:22:56Z</time>
      </trkpt>
      <trkpt lat="42.66693500000016" lon="-1.8530539999999998">
        <ele>448.248</ele>
        <time>2022-08-25T10:22:57Z</time>
      </trkpt>
      <trkpt lat="42.666939000000156" lon="-1.8530679999999997">
        <ele>448.444</ele>
        <time>2022-08-25T10:22:58Z</time>
      </trkpt>
      <trkpt lat="42.66694300000015" lon="-1.8530759999999997">
        <ele>448.646</ele>
        <time>2022-08-25T10:22:59Z</time>
      </trkpt>
      <trkpt lat="42.66695000000015" lon="-1.8530859999999998">
        <ele>448.883</ele>
        <time>2022-08-25T10:23:00Z</time>
      </trkpt>
      <trkpt lat="42.66695600000015" lon="-1.8530949999999997">
        <ele>449.066</ele>
        <time>2022-08-25T10:23:01Z</time>
      </trkpt>
      <trkpt lat="42.666963000000145" lon="-1.8531109999999997">
        <ele>449.482</ele>
        <time>2022-08-25T10:23:02Z</time>
      </trkpt>
      <trkpt lat="42.666971000000146" lon="-1.8531259999999998">
        <ele>450.033</ele>
        <time>2022-08-25T10:23:03Z</time>
      </trkpt>
      <trkpt lat="42.66697800000014" lon="-1.8531369999999998">
        <ele>450.465</ele>
        <time>2022-08-25T10:23:04Z</time>
      </trkpt>
      <trkpt lat="42.66698600000014" lon="-1.853152">
        <ele>450.468</ele>
        <time>2022-08-25T10:23:05Z</time>
      </trkpt>
      <trkpt lat="42.66699200000014" lon="-1.853163">
        <ele>450.814</ele>
        <time>2022-08-25T10:23:06Z</time>
      </trkpt>
      <trkpt lat="42.66699900000014" lon="-1.8531739999999999">
        <ele>451.009</ele>
        <time>2022-08-25T10:23:07Z</time>
      </trkpt>
      <trkpt lat="42.667006000000136" lon="-1.8531859999999998">
        <ele>451.497</ele>
        <time>2022-08-25T10:23:08Z</time>
      </trkpt>
      <trkpt lat="42.66701400000014" lon="-1.8531989999999998">
        <ele>451.417</ele>
        <time>2022-08-25T10:23:09Z</time>
      </trkpt>
      <trkpt lat="42.66702500000014" lon="-1.8532119999999999">
        <ele>452.047</ele>
        <time>2022-08-25T10:23:10Z</time>
      </trkpt>
      <trkpt lat="42.66703100000014" lon="-1.8532289999999998">
        <ele>452.843</ele>
        <time>2022-08-25T10:23:11Z</time>
      </trkpt>
      <trkpt lat="42.667034000000136" lon="-1.853244">
        <ele>453.085</ele>
        <time>2022-08-25T10:23:12Z</time>
      </trkpt>
      <trkpt lat="42.667037000000136" lon="-1.853254">
        <ele>453.422</ele>
        <time>2022-08-25T10:23:13Z</time>
      </trkpt>
      <trkpt lat="42.667043000000135" lon="-1.8532659999999999">
        <ele>453.465</ele>
        <time>2022-08-25T10:23:14Z</time>
      </trkpt>
      <trkpt lat="42.66705000000013" lon="-1.8532799999999998">
        <ele>453.861</ele>
        <time>2022-08-25T10:23:15Z</time>
      </trkpt>
      <trkpt lat="42.66705800000013" lon="-1.8532899999999999">
        <ele>454.092</ele>
        <time>2022-08-25T10:23:16Z</time>
      </trkpt>
      <trkpt lat="42.66706700000013" lon="-1.8532989999999998">
        <ele>454.616</ele>
        <time>2022-08-25T10:23:17Z</time>
      </trkpt>
      <trkpt lat="42.66707500000013" lon="-1.8533079999999997">
        <ele>455.076</ele>
        <time>2022-08-25T10:23:18Z</time>
      </trkpt>
      <trkpt lat="42.66708100000013" lon="-1.8533159999999997">
        <ele>455.413</ele>
        <time>2022-08-25T10:23:19Z</time>
      </trkpt>
      <trkpt lat="42.66708900000013" lon="-1.8533279999999996">
        <ele>455.809</ele>
        <time>2022-08-25T10:23:20Z</time>
      </trkpt>
      <trkpt lat="42.66709700000013" lon="-1.8533379999999997">
        <ele>456.282</ele>
        <time>2022-08-25T10:23:21Z</time>
      </trkpt>
      <trkpt lat="42.66710400000013" lon="-1.8533489999999997">
        <ele>456.812</ele>
        <time>2022-08-25T10:23:22Z</time>
      </trkpt>
      <trkpt lat="42.66711200000013" lon="-1.8533619999999997">
        <ele>457.042</ele>
        <time>2022-08-25T10:23:23Z</time>
      </trkpt>
      <trkpt lat="42.66711700000013" lon="-1.8533729999999997">
        <ele>457.268</ele>
        <time>2022-08-25T10:23:24Z</time>
      </trkpt>
      <trkpt lat="42.66712400000013" lon="-1.8533889999999997">
        <ele>457.440</ele>
        <time>2022-08-25T10:23:25Z</time>
      </trkpt>
      <trkpt lat="42.66713300000013" lon="-1.8533989999999998">
        <ele>457.667</ele>
        <time>2022-08-25T10:23:26Z</time>
      </trkpt>
      <trkpt lat="42.66714100000013" lon="-1.8534129999999998">
        <ele>457.850</ele>
        <time>2022-08-25T10:23:27Z</time>
      </trkpt>
      <trkpt lat="42.667148000000125" lon="-1.8534239999999997">
        <ele>458.076</ele>
        <time>2022-08-25T10:23:28Z</time>
      </trkpt>
      <trkpt lat="42.66715500000012" lon="-1.8534359999999996">
        <ele>458.477</ele>
        <time>2022-08-25T10:23:29Z</time>
      </trkpt>
      <trkpt lat="42.66716100000012" lon="-1.8534459999999997">
        <ele>459.068</ele>
        <time>2022-08-25T10:23:30Z</time>
      </trkpt>
      <trkpt lat="42.66716700000012" lon="-1.8534579999999996">
        <ele>459.242</ele>
        <time>2022-08-25T10:23:31Z</time>
      </trkpt>
      <trkpt lat="42.66717300000012" lon="-1.8534769999999996">
        <ele>459.426</ele>
        <time>2022-08-25T10:23:32Z</time>
      </trkpt>
      <trkpt lat="42.66717900000012" lon="-1.8534919999999997">
        <ele>459.409</ele>
        <time>2022-08-25T10:23:33Z</time>
      </trkpt>
      <trkpt lat="42.66718400000012" lon="-1.8535029999999997">
        <ele>459.817</ele>
        <time>2022-08-25T10:23:34Z</time>
      </trkpt>
      <trkpt lat="42.66718900000012" lon="-1.8535169999999996">
        <ele>460.037</ele>
        <time>2022-08-25T10:23:35Z</time>
      </trkpt>
      <trkpt lat="42.66718700000012" lon="-1.8535309999999996">
        <ele>460.057</ele>
        <time>2022-08-25T10:23:36Z</time>
      </trkpt>
      <trkpt lat="42.66718600000012" lon="-1.8535489999999997">
        <ele>460.253</ele>
        <time>2022-08-25T10:23:37Z</time>
      </trkpt>
      <trkpt lat="42.667188000000124" lon="-1.8535649999999997">
        <ele>460.445</ele>
        <time>2022-08-25T10:23:38Z</time>
      </trkpt>
      <trkpt lat="42.667193000000125" lon="-1.8535789999999996">
        <ele>460.472</ele>
        <time>2022-08-25T10:23:39Z</time>
      </trkpt>
      <trkpt lat="42.66719700000012" lon="-1.8535909999999995">
        <ele>460.625</ele>
        <time>2022-08-25T10:23:40Z</time>
      </trkpt>
      <trkpt lat="42.667202000000124" lon="-1.8536059999999996">
        <ele>460.621</ele>
        <time>2022-08-25T10:23:41Z</time>
      </trkpt>
      <trkpt lat="42.667207000000126" lon="-1.8536259999999996">
        <ele>460.832</ele>
        <time>2022-08-25T10:23:42Z</time>
      </trkpt>
      <trkpt lat="42.667210000000125" lon="-1.8536409999999997">
        <ele>460.845</ele>
        <time>2022-08-25T10:23:43Z</time>
      </trkpt>
      <trkpt lat="42.66721200000013" lon="-1.8536539999999997">
        <ele>461.047</ele>
        <time>2022-08-25T10:23:44Z</time>
      </trkpt>
      <trkpt lat="42.667216000000124" lon="-1.8536679999999996">
        <ele>461.011</ele>
        <time>2022-08-25T10:23:45Z</time>
      </trkpt>
      <trkpt lat="42.667216000000124" lon="-1.8536849999999996">
        <ele>461.009</ele>
        <time>2022-08-25T10:23:46Z</time>
      </trkpt>
      <trkpt lat="42.66722000000012" lon="-1.8536999999999997">
        <ele>461.255</ele>
        <time>2022-08-25T10:23:47Z</time>
      </trkpt>
      <trkpt lat="42.66722400000012" lon="-1.8537169999999996">
        <ele>461.065</ele>
        <time>2022-08-25T10:23:48Z</time>
      </trkpt>
      <trkpt lat="42.66722900000012" lon="-1.8537329999999996">
        <ele>461.285</ele>
        <time>2022-08-25T10:23:49Z</time>
      </trkpt>
      <trkpt lat="42.66723400000012" lon="-1.8537469999999996">
        <ele>461.491</ele>
        <time>2022-08-25T10:23:50Z</time>
      </trkpt>
      <trkpt lat="42.66724100000012" lon="-1.8537679999999996">
        <ele>461.683</ele>
        <time>2022-08-25T10:23:51Z</time>
      </trkpt>
      <trkpt lat="42.667248000000114" lon="-1.8537899999999996">
        <ele>461.670</ele>
        <time>2022-08-25T10:23:52Z</time>
      </trkpt>
      <trkpt lat="42.66725800000012" lon="-1.8538149999999995">
        <ele>461.633</ele>
        <time>2022-08-25T10:23:53Z</time>
      </trkpt>
      <trkpt lat="42.667262000000115" lon="-1.8538299999999996">
        <ele>461.829</ele>
        <time>2022-08-25T10:23:54Z</time>
      </trkpt>
      <trkpt lat="42.667265000000114" lon="-1.8538439999999996">
        <ele>462.020</ele>
        <time>2022-08-25T10:23:55Z</time>
      </trkpt>
      <trkpt lat="42.667267000000116" lon="-1.8538579999999996">
        <ele>462.056</ele>
        <time>2022-08-25T10:23:56Z</time>
      </trkpt>
      <trkpt lat="42.66727200000012" lon="-1.8538739999999996">
        <ele>462.259</ele>
        <time>2022-08-25T10:23:57Z</time>
      </trkpt>
      <trkpt lat="42.66727500000012" lon="-1.8538889999999997">
        <ele>462.214</ele>
        <time>2022-08-25T10:23:58Z</time>
      </trkpt>
      <trkpt lat="42.667281000000116" lon="-1.8539099999999997">
        <ele>462.409</ele>
        <time>2022-08-25T10:23:59Z</time>
      </trkpt>
      <trkpt lat="42.667287000000115" lon="-1.8539269999999997">
        <ele>462.446</ele>
        <time>2022-08-25T10:24:00Z</time>
      </trkpt>
      <trkpt lat="42.667290000000115" lon="-1.8539389999999996">
        <ele>462.436</ele>
        <time>2022-08-25T10:24:01Z</time>
      </trkpt>
      <trkpt lat="42.66729400000011" lon="-1.8539539999999997">
        <ele>462.486</ele>
        <time>2022-08-25T10:24:02Z</time>
      </trkpt>
      <trkpt lat="42.667296000000114" lon="-1.8539689999999998">
        <ele>462.422</ele>
        <time>2022-08-25T10:24:03Z</time>
      </trkpt>
      <trkpt lat="42.66729900000011" lon="-1.8539879999999997">
        <ele>462.654</ele>
        <time>2022-08-25T10:24:04Z</time>
      </trkpt>
      <trkpt lat="42.66730300000011" lon="-1.8540059999999998">
        <ele>462.621</ele>
        <time>2022-08-25T10:24:05Z</time>
      </trkpt>
      <trkpt lat="42.66730700000011" lon="-1.8540219999999998">
        <ele>462.664</ele>
        <time>2022-08-25T10:24:06Z</time>
      </trkpt>
      <trkpt lat="42.66730900000011" lon="-1.8540339999999997">
        <ele>462.810</ele>
        <time>2022-08-25T10:24:07Z</time>
      </trkpt>
      <trkpt lat="42.66731500000011" lon="-1.8540509999999997">
        <ele>462.861</ele>
        <time>2022-08-25T10:24:08Z</time>
      </trkpt>
      <trkpt lat="42.66732000000011" lon="-1.8540649999999996">
        <ele>462.843</ele>
        <time>2022-08-25T10:24:09Z</time>
      </trkpt>
      <trkpt lat="42.66732300000011" lon="-1.8540809999999996">
        <ele>462.864</ele>
        <time>2022-08-25T10:24:10Z</time>
      </trkpt>
      <trkpt lat="42.66732600000011" lon="-1.8540979999999996">
        <ele>463.010</ele>
        <time>2022-08-25T10:24:11Z</time>
      </trkpt>
      <trkpt lat="42.66734000000011" lon="-1.8541649999999996">
        <ele>463.209</ele>
        <time>2022-08-25T10:24:15Z</time>
      </trkpt>
      <trkpt lat="42.66734400000011" lon="-1.8541799999999997">
        <ele>463.235</ele>
        <time>2022-08-25T10:24:16Z</time>
      </trkpt>
      <trkpt lat="42.6673480000001" lon="-1.8541929999999998">
        <ele>463.215</ele>
        <time>2022-08-25T10:24:17Z</time>
      </trkpt>
      <trkpt lat="42.6673740000001" lon="-1.8542849999999997">
        <ele>463.425</ele>
        <time>2022-08-25T10:24:22Z</time>
      </trkpt>
      <trkpt lat="42.6673780000001" lon="-1.8543049999999996">
        <ele>463.671</ele>
        <time>2022-08-25T10:24:23Z</time>
      </trkpt>
      <trkpt lat="42.6674050000001" lon="-1.8544279999999997">
        <ele>463.823</ele>
        <time>2022-08-25T10:24:27Z</time>
      </trkpt>
      <trkpt lat="42.667443000000105" lon="-1.8546299999999998">
        <ele>464.460</ele>
        <time>2022-08-25T10:24:33Z</time>
      </trkpt>
      <trkpt lat="42.6674500000001" lon="-1.8546639999999999">
        <ele>464.643</ele>
        <time>2022-08-25T10:24:34Z</time>
      </trkpt>
      <trkpt lat="42.6674650000001" lon="-1.8547379999999998">
        <ele>464.839</ele>
        <time>2022-08-25T10:24:36Z</time>
      </trkpt>
      <trkpt lat="42.6674710000001" lon="-1.8547619999999998">
        <ele>465.010</ele>
        <time>2022-08-25T10:24:37Z</time>
      </trkpt>
      <trkpt lat="42.6674770000001" lon="-1.8547909999999999">
        <ele>465.273</ele>
        <time>2022-08-25T10:24:38Z</time>
      </trkpt>
      <trkpt lat="42.6674830000001" lon="-1.8548179999999999">
        <ele>465.485</ele>
        <time>2022-08-25T10:24:39Z</time>
      </trkpt>
      <trkpt lat="42.6674910000001" lon="-1.854844">
        <ele>465.613</ele>
        <time>2022-08-25T10:24:40Z</time>
      </trkpt>
      <trkpt lat="42.6674990000001" lon="-1.8548689999999999">
        <ele>465.809</ele>
        <time>2022-08-25T10:24:41Z</time>
      </trkpt>
      <trkpt lat="42.6675070000001" lon="-1.8548969999999998">
        <ele>466.048</ele>
        <time>2022-08-25T10:24:42Z</time>
      </trkpt>
      <trkpt lat="42.6675110000001" lon="-1.8549209999999998">
        <ele>466.028</ele>
        <time>2022-08-25T10:24:43Z</time>
      </trkpt>
      <trkpt lat="42.667515000000094" lon="-1.8549399999999998">
        <ele>466.058</ele>
        <time>2022-08-25T10:24:44Z</time>
      </trkpt>
      <trkpt lat="42.66751900000009" lon="-1.8549639999999998">
        <ele>466.064</ele>
        <time>2022-08-25T10:24:45Z</time>
      </trkpt>
      <trkpt lat="42.66752200000009" lon="-1.85499">
        <ele>466.046</ele>
        <time>2022-08-25T10:24:46Z</time>
      </trkpt>
      <trkpt lat="42.66753100000009" lon="-1.85502">
        <ele>466.233</ele>
        <time>2022-08-25T10:24:47Z</time>
      </trkpt>
      <trkpt lat="42.66754100000009" lon="-1.8550419999999999">
        <ele>466.246</ele>
        <time>2022-08-25T10:24:48Z</time>
      </trkpt>
      <trkpt lat="42.66754700000009" lon="-1.8550579999999999">
        <ele>466.632</ele>
        <time>2022-08-25T10:24:49Z</time>
      </trkpt>
      <trkpt lat="42.66755200000009" lon="-1.8550799999999998">
        <ele>466.813</ele>
        <time>2022-08-25T10:24:50Z</time>
      </trkpt>
      <trkpt lat="42.667557000000095" lon="-1.8551039999999999">
        <ele>467.237</ele>
        <time>2022-08-25T10:24:51Z</time>
      </trkpt>
      <trkpt lat="42.667562000000096" lon="-1.855133">
        <ele>467.249</ele>
        <time>2022-08-25T10:24:52Z</time>
      </trkpt>
      <trkpt lat="42.66756900000009" lon="-1.855154">
        <ele>467.213</ele>
        <time>2022-08-25T10:24:53Z</time>
      </trkpt>
      <trkpt lat="42.66757600000009" lon="-1.855176">
        <ele>467.409</ele>
        <time>2022-08-25T10:24:54Z</time>
      </trkpt>
      <trkpt lat="42.66758100000009" lon="-1.855198">
        <ele>467.494</ele>
        <time>2022-08-25T10:24:55Z</time>
      </trkpt>
      <trkpt lat="42.66758400000009" lon="-1.855216">
        <ele>467.494</ele>
        <time>2022-08-25T10:24:56Z</time>
      </trkpt>
      <trkpt lat="42.66759200000009" lon="-1.855243">
        <ele>467.634</ele>
        <time>2022-08-25T10:24:57Z</time>
      </trkpt>
      <trkpt lat="42.66759800000009" lon="-1.855264">
        <ele>467.640</ele>
        <time>2022-08-25T10:24:58Z</time>
      </trkpt>
      <trkpt lat="42.66760400000009" lon="-1.8552870000000001">
        <ele>467.612</ele>
        <time>2022-08-25T10:24:59Z</time>
      </trkpt>
      <trkpt lat="42.66760700000009" lon="-1.855304">
        <ele>467.879</ele>
        <time>2022-08-25T10:25:00Z</time>
      </trkpt>
      <trkpt lat="42.66760900000009" lon="-1.855326">
        <ele>467.852</ele>
        <time>2022-08-25T10:25:01Z</time>
      </trkpt>
      <trkpt lat="42.66761400000009" lon="-1.855347">
        <ele>467.858</ele>
        <time>2022-08-25T10:25:02Z</time>
      </trkpt>
      <trkpt lat="42.667624000000096" lon="-1.8553680000000001">
        <ele>468.089</ele>
        <time>2022-08-25T10:25:03Z</time>
      </trkpt>
      <trkpt lat="42.6676320000001" lon="-1.855382">
        <ele>468.064</ele>
        <time>2022-08-25T10:25:04Z</time>
      </trkpt>
      <trkpt lat="42.667639000000094" lon="-1.8554000000000002">
        <ele>468.006</ele>
        <time>2022-08-25T10:25:05Z</time>
      </trkpt>
      <trkpt lat="42.66764300000009" lon="-1.8554180000000002">
        <ele>468.016</ele>
        <time>2022-08-25T10:25:06Z</time>
      </trkpt>
      <trkpt lat="42.66764900000009" lon="-1.8554460000000002">
        <ele>468.209</ele>
        <time>2022-08-25T10:25:07Z</time>
      </trkpt>
      <trkpt lat="42.667656000000086" lon="-1.855482">
        <ele>468.237</ele>
        <time>2022-08-25T10:25:08Z</time>
      </trkpt>
      <trkpt lat="42.66766400000009" lon="-1.855513">
        <ele>468.227</ele>
        <time>2022-08-25T10:25:09Z</time>
      </trkpt>
      <trkpt lat="42.667671000000084" lon="-1.8555409999999999">
        <ele>468.247</ele>
        <time>2022-08-25T10:25:10Z</time>
      </trkpt>
      <trkpt lat="42.66767400000008" lon="-1.8555609999999998">
        <ele>468.453</ele>
        <time>2022-08-25T10:25:11Z</time>
      </trkpt>
      <trkpt lat="42.66768000000008" lon="-1.8555869999999999">
        <ele>468.645</ele>
        <time>2022-08-25T10:25:12Z</time>
      </trkpt>
      <trkpt lat="42.667685000000084" lon="-1.85561">
        <ele>468.872</ele>
        <time>2022-08-25T10:25:13Z</time>
      </trkpt>
      <trkpt lat="42.66769800000009" lon="-1.855664">
        <ele>469.055</ele>
        <time>2022-08-25T10:25:16Z</time>
      </trkpt>
      <trkpt lat="42.66769700000009" lon="-1.855677">
        <ele>469.041</ele>
        <time>2022-08-25T10:25:17Z</time>
      </trkpt>
      <trkpt lat="42.66769400000009" lon="-1.855685">
        <ele>469.292</ele>
        <time>2022-08-25T10:25:18Z</time>
      </trkpt>
      <trkpt lat="42.66768900000009" lon="-1.855693">
        <ele>469.264</ele>
        <time>2022-08-25T10:25:19Z</time>
      </trkpt>
      <trkpt lat="42.66768000000009" lon="-1.855704">
        <ele>469.206</ele>
        <time>2022-08-25T10:25:20Z</time>
      </trkpt>
      <trkpt lat="42.66767400000009" lon="-1.855708">
        <ele>469.216</ele>
        <time>2022-08-25T10:25:21Z</time>
      </trkpt>
      <trkpt lat="42.66767000000009" lon="-1.8557109999999999">
        <ele>469.209</ele>
        <time>2022-08-25T10:25:22Z</time>
      </trkpt>
      <trkpt lat="42.667664000000094" lon="-1.855683">
        <ele>469.047</ele>
        <time>2022-08-25T10:31:26Z</time>
      </trkpt>
      <trkpt lat="42.6676770000001" lon="-1.855708">
        <ele>469.057</ele>
        <time>2022-08-25T10:31:28Z</time>
      </trkpt>
      <trkpt lat="42.6676900000001" lon="-1.855727">
        <ele>469.277</ele>
        <time>2022-08-25T10:31:29Z</time>
      </trkpt>
      <trkpt lat="42.6677250000001" lon="-1.855799">
        <ele>469.423</ele>
        <time>2022-08-25T10:31:32Z</time>
      </trkpt>
      <trkpt lat="42.667734000000095" lon="-1.855823">
        <ele>469.485</ele>
        <time>2022-08-25T10:31:33Z</time>
      </trkpt>
      <trkpt lat="42.66774100000009" lon="-1.855847">
        <ele>469.462</ele>
        <time>2022-08-25T10:31:34Z</time>
      </trkpt>
      <trkpt lat="42.66774900000009" lon="-1.855873">
        <ele>469.695</ele>
        <time>2022-08-25T10:31:35Z</time>
      </trkpt>
      <trkpt lat="42.667757000000094" lon="-1.8558990000000002">
        <ele>469.831</ele>
        <time>2022-08-25T10:31:36Z</time>
      </trkpt>
      <trkpt lat="42.66776900000009" lon="-1.8559700000000001">
        <ele>470.052</ele>
        <time>2022-08-25T10:31:39Z</time>
      </trkpt>
      <trkpt lat="42.66777200000009" lon="-1.8559970000000001">
        <ele>470.038</ele>
        <time>2022-08-25T10:31:40Z</time>
      </trkpt>
      <trkpt lat="42.667771000000094" lon="-1.8560230000000002">
        <ele>470.070</ele>
        <time>2022-08-25T10:31:41Z</time>
      </trkpt>
      <trkpt lat="42.667776000000096" lon="-1.856089">
        <ele>470.217</ele>
        <time>2022-08-25T10:31:43Z</time>
      </trkpt>
      <trkpt lat="42.667810000000095" lon="-1.856306">
        <ele>469.809</ele>
        <time>2022-08-25T10:31:47Z</time>
      </trkpt>
      <trkpt lat="42.667835000000096" lon="-1.856449">
        <ele>468.844</ele>
        <time>2022-08-25T10:31:49Z</time>
      </trkpt>
      <trkpt lat="42.6678900000001" lon="-1.856677">
        <ele>467.874</ele>
        <time>2022-08-25T10:31:52Z</time>
      </trkpt>
      <trkpt lat="42.6679070000001" lon="-1.856755">
        <ele>467.674</ele>
        <time>2022-08-25T10:31:53Z</time>
      </trkpt>
      <trkpt lat="42.6679180000001" lon="-1.8568179999999999">
        <ele>467.680</ele>
        <time>2022-08-25T10:31:54Z</time>
      </trkpt>
      <trkpt lat="42.6679350000001" lon="-1.8569069999999999">
        <ele>467.452</ele>
        <time>2022-08-25T10:31:55Z</time>
      </trkpt>
      <trkpt lat="42.6679480000001" lon="-1.8569749999999998">
        <ele>467.289</ele>
        <time>2022-08-25T10:31:56Z</time>
      </trkpt>
      <trkpt lat="42.6679620000001" lon="-1.857036">
        <ele>467.032</ele>
        <time>2022-08-25T10:31:57Z</time>
      </trkpt>
      <trkpt lat="42.6679790000001" lon="-1.8570939999999998">
        <ele>466.818</ele>
        <time>2022-08-25T10:31:58Z</time>
      </trkpt>
      <trkpt lat="42.6679960000001" lon="-1.8571449999999998">
        <ele>466.449</ele>
        <time>2022-08-25T10:31:59Z</time>
      </trkpt>
      <trkpt lat="42.668012000000104" lon="-1.8571919999999997">
        <ele>466.217</ele>
        <time>2022-08-25T10:32:00Z</time>
      </trkpt>
      <trkpt lat="42.6680240000001" lon="-1.8572329999999997">
        <ele>466.087</ele>
        <time>2022-08-25T10:32:01Z</time>
      </trkpt>
      <trkpt lat="42.6680350000001" lon="-1.8572679999999997">
        <ele>465.815</ele>
        <time>2022-08-25T10:32:02Z</time>
      </trkpt>
      <trkpt lat="42.6680470000001" lon="-1.8572959999999996">
        <ele>465.809</ele>
        <time>2022-08-25T10:32:03Z</time>
      </trkpt>
      <trkpt lat="42.6680580000001" lon="-1.8573189999999997">
        <ele>465.632</ele>
        <time>2022-08-25T10:32:04Z</time>
      </trkpt>
      <trkpt lat="42.6680660000001" lon="-1.8573409999999997">
        <ele>465.622</ele>
        <time>2022-08-25T10:32:05Z</time>
      </trkpt>
      <trkpt lat="42.6680730000001" lon="-1.8573639999999998">
        <ele>465.652</ele>
        <time>2022-08-25T10:32:06Z</time>
      </trkpt>
      <trkpt lat="42.668080000000096" lon="-1.8573889999999997">
        <ele>465.488</ele>
        <time>2022-08-25T10:32:07Z</time>
      </trkpt>
      <trkpt lat="42.66809500000009" lon="-1.8574419999999998">
        <ele>465.620</ele>
        <time>2022-08-25T10:32:09Z</time>
      </trkpt>
      <trkpt lat="42.66811000000009" lon="-1.8574869999999999">
        <ele>465.687</ele>
        <time>2022-08-25T10:32:11Z</time>
      </trkpt>
      <trkpt lat="42.66811700000009" lon="-1.8575069999999998">
        <ele>465.840</ele>
        <time>2022-08-25T10:32:12Z</time>
      </trkpt>
      <trkpt lat="42.66812200000009" lon="-1.8575239999999997">
        <ele>466.076</ele>
        <time>2022-08-25T10:32:13Z</time>
      </trkpt>
      <trkpt lat="42.66812500000009" lon="-1.8575389999999998">
        <ele>466.227</ele>
        <time>2022-08-25T10:32:14Z</time>
      </trkpt>
      <trkpt lat="42.668129000000086" lon="-1.8575549999999998">
        <ele>466.683</ele>
        <time>2022-08-25T10:32:15Z</time>
      </trkpt>
      <trkpt lat="42.668135000000085" lon="-1.8575709999999999">
        <ele>467.025</ele>
        <time>2022-08-25T10:32:16Z</time>
      </trkpt>
      <trkpt lat="42.66813900000008" lon="-1.857589">
        <ele>467.217</ele>
        <time>2022-08-25T10:32:17Z</time>
      </trkpt>
      <trkpt lat="42.66814700000008" lon="-1.857602">
        <ele>467.409</ele>
        <time>2022-08-25T10:32:18Z</time>
      </trkpt>
      <trkpt lat="42.668157000000086" lon="-1.857626">
        <ele>467.679</ele>
        <time>2022-08-25T10:32:20Z</time>
      </trkpt>
      <trkpt lat="42.668157000000086" lon="-1.857636">
        <ele>467.869</ele>
        <time>2022-08-25T10:32:21Z</time>
      </trkpt>
      <trkpt lat="42.66816100000008" lon="-1.857648">
        <ele>467.849</ele>
        <time>2022-08-25T10:32:22Z</time>
      </trkpt>
      <trkpt lat="42.668166000000085" lon="-1.857661">
        <ele>468.035</ele>
        <time>2022-08-25T10:32:23Z</time>
      </trkpt>
      <trkpt lat="42.668171000000086" lon="-1.857674">
        <ele>468.067</ele>
        <time>2022-08-25T10:32:24Z</time>
      </trkpt>
      <trkpt lat="42.66819500000009" lon="-1.857709">
        <ele>468.444</ele>
        <time>2022-08-25T10:32:27Z</time>
      </trkpt>
      <trkpt lat="42.66820300000009" lon="-1.857722">
        <ele>468.827</ele>
        <time>2022-08-25T10:32:28Z</time>
      </trkpt>
      <trkpt lat="42.668213000000094" lon="-1.8577350000000001">
        <ele>468.823</ele>
        <time>2022-08-25T10:32:29Z</time>
      </trkpt>
      <trkpt lat="42.66821900000009" lon="-1.8577480000000002">
        <ele>469.284</ele>
        <time>2022-08-25T10:32:30Z</time>
      </trkpt>
      <trkpt lat="42.668224000000095" lon="-1.8577620000000001">
        <ele>469.469</ele>
        <time>2022-08-25T10:32:31Z</time>
      </trkpt>
      <trkpt lat="42.66823100000009" lon="-1.857774">
        <ele>469.604</ele>
        <time>2022-08-25T10:32:32Z</time>
      </trkpt>
      <trkpt lat="42.66824000000009" lon="-1.857785">
        <ele>469.624</ele>
        <time>2022-08-25T10:32:33Z</time>
      </trkpt>
      <trkpt lat="42.66824800000009" lon="-1.857796">
        <ele>469.609</ele>
        <time>2022-08-25T10:32:34Z</time>
      </trkpt>
      <trkpt lat="42.66825500000009" lon="-1.857808">
        <ele>469.847</ele>
        <time>2022-08-25T10:32:35Z</time>
      </trkpt>
      <trkpt lat="42.668262000000084" lon="-1.8578189999999999">
        <ele>470.067</ele>
        <time>2022-08-25T10:32:36Z</time>
      </trkpt>
      <trkpt lat="42.668270000000085" lon="-1.8578279999999998">
        <ele>470.247</ele>
        <time>2022-08-25T10:32:37Z</time>
      </trkpt>
      <trkpt lat="42.668278000000086" lon="-1.8578389999999998">
        <ele>470.223</ele>
        <time>2022-08-25T10:32:38Z</time>
      </trkpt>
      <trkpt lat="42.66828600000009" lon="-1.8578479999999997">
        <ele>470.645</ele>
        <time>2022-08-25T10:32:39Z</time>
      </trkpt>
      <trkpt lat="42.66829400000009" lon="-1.8578579999999998">
        <ele>471.022</ele>
        <time>2022-08-25T10:32:40Z</time>
      </trkpt>
      <trkpt lat="42.66830200000009" lon="-1.8578689999999998">
        <ele>471.085</ele>
        <time>2022-08-25T10:32:41Z</time>
      </trkpt>
      <trkpt lat="42.66830800000009" lon="-1.8578799999999998">
        <ele>471.291</ele>
        <time>2022-08-25T10:32:42Z</time>
      </trkpt>
      <trkpt lat="42.66831700000009" lon="-1.8578889999999997">
        <ele>471.422</ele>
        <time>2022-08-25T10:32:43Z</time>
      </trkpt>
      <trkpt lat="42.66832500000009" lon="-1.8578969999999997">
        <ele>471.637</ele>
        <time>2022-08-25T10:32:44Z</time>
      </trkpt>
      <trkpt lat="42.66833300000009" lon="-1.8579039999999998">
        <ele>471.849</ele>
        <time>2022-08-25T10:32:45Z</time>
      </trkpt>
      <trkpt lat="42.668340000000086" lon="-1.8579119999999998">
        <ele>471.813</ele>
        <time>2022-08-25T10:32:46Z</time>
      </trkpt>
      <trkpt lat="42.66834800000009" lon="-1.8579219999999999">
        <ele>472.009</ele>
        <time>2022-08-25T10:32:47Z</time>
      </trkpt>
      <trkpt lat="42.668354000000086" lon="-1.8579339999999998">
        <ele>472.284</ele>
        <time>2022-08-25T10:32:48Z</time>
      </trkpt>
      <trkpt lat="42.66836100000008" lon="-1.8579419999999998">
        <ele>472.474</ele>
        <time>2022-08-25T10:32:49Z</time>
      </trkpt>
      <trkpt lat="42.66836700000008" lon="-1.8579529999999997">
        <ele>472.444</ele>
        <time>2022-08-25T10:32:50Z</time>
      </trkpt>
      <trkpt lat="42.66837300000008" lon="-1.8579619999999997">
        <ele>472.620</ele>
        <time>2022-08-25T10:32:51Z</time>
      </trkpt>
      <trkpt lat="42.66838100000008" lon="-1.8579719999999997">
        <ele>472.642</ele>
        <time>2022-08-25T10:32:52Z</time>
      </trkpt>
      <trkpt lat="42.66839000000008" lon="-1.8579799999999997">
        <ele>472.639</ele>
        <time>2022-08-25T10:32:53Z</time>
      </trkpt>
      <trkpt lat="42.66839900000008" lon="-1.8579879999999998">
        <ele>472.842</ele>
        <time>2022-08-25T10:32:54Z</time>
      </trkpt>
      <trkpt lat="42.668406000000076" lon="-1.8579969999999997">
        <ele>472.898</ele>
        <time>2022-08-25T10:32:55Z</time>
      </trkpt>
      <trkpt lat="42.668412000000075" lon="-1.8580079999999997">
        <ele>473.049</ele>
        <time>2022-08-25T10:32:56Z</time>
      </trkpt>
      <trkpt lat="42.668420000000076" lon="-1.8580199999999996">
        <ele>473.034</ele>
        <time>2022-08-25T10:32:57Z</time>
      </trkpt>
      <trkpt lat="42.668429000000074" lon="-1.8580299999999996">
        <ele>473.055</ele>
        <time>2022-08-25T10:32:58Z</time>
      </trkpt>
      <trkpt lat="42.66843800000007" lon="-1.8580429999999997">
        <ele>473.210</ele>
        <time>2022-08-25T10:32:59Z</time>
      </trkpt>
      <trkpt lat="42.66844500000007" lon="-1.8580559999999997">
        <ele>473.209</ele>
        <time>2022-08-25T10:33:00Z</time>
      </trkpt>
      <trkpt lat="42.66845000000007" lon="-1.8580709999999998">
        <ele>473.264</ele>
        <time>2022-08-25T10:33:01Z</time>
      </trkpt>
      <trkpt lat="42.66845500000007" lon="-1.8580889999999999">
        <ele>473.234</ele>
        <time>2022-08-25T10:33:02Z</time>
      </trkpt>
      <trkpt lat="42.668460000000074" lon="-1.858105">
        <ele>473.424</ele>
        <time>2022-08-25T10:33:03Z</time>
      </trkpt>
      <trkpt lat="42.66846600000007" lon="-1.8581219999999998">
        <ele>473.430</ele>
        <time>2022-08-25T10:33:04Z</time>
      </trkpt>
      <trkpt lat="42.66847600000008" lon="-1.85814">
        <ele>473.462</ele>
        <time>2022-08-25T10:33:05Z</time>
      </trkpt>
      <trkpt lat="42.66848700000008" lon="-1.8581569999999998">
        <ele>473.419</ele>
        <time>2022-08-25T10:33:06Z</time>
      </trkpt>
      <trkpt lat="42.66849700000008" lon="-1.858175">
        <ele>473.432</ele>
        <time>2022-08-25T10:33:07Z</time>
      </trkpt>
      <trkpt lat="42.66850800000008" lon="-1.8581949999999998">
        <ele>473.488</ele>
        <time>2022-08-25T10:33:08Z</time>
      </trkpt>
      <trkpt lat="42.66851600000008" lon="-1.8582199999999998">
        <ele>473.489</ele>
        <time>2022-08-25T10:33:09Z</time>
      </trkpt>
      <trkpt lat="42.66852700000008" lon="-1.8582449999999997">
        <ele>473.471</ele>
        <time>2022-08-25T10:33:10Z</time>
      </trkpt>
      <trkpt lat="42.66853900000008" lon="-1.8582729999999996">
        <ele>473.441</ele>
        <time>2022-08-25T10:33:11Z</time>
      </trkpt>
      <trkpt lat="42.66862200000008" lon="-1.8584429999999996">
        <ele>473.015</ele>
        <time>2022-08-25T10:33:16Z</time>
      </trkpt>
      <trkpt lat="42.668662000000076" lon="-1.8585289999999997">
        <ele>473.009</ele>
        <time>2022-08-25T10:33:18Z</time>
      </trkpt>
      <trkpt lat="42.66874300000008" lon="-1.8586619999999996">
        <ele>472.658</ele>
        <time>2022-08-25T10:33:21Z</time>
      </trkpt>
      <trkpt lat="42.66880400000008" lon="-1.8587499999999997">
        <ele>472.288</ele>
        <time>2022-08-25T10:33:23Z</time>
      </trkpt>
      <trkpt lat="42.668825000000076" lon="-1.8587999999999998">
        <ele>472.248</ele>
        <time>2022-08-25T10:33:24Z</time>
      </trkpt>
      <trkpt lat="42.668837000000075" lon="-1.8588519999999997">
        <ele>471.874</ele>
        <time>2022-08-25T10:33:25Z</time>
      </trkpt>
      <trkpt lat="42.66884400000007" lon="-1.8588999999999998">
        <ele>471.896</ele>
        <time>2022-08-25T10:33:26Z</time>
      </trkpt>
      <trkpt lat="42.66884800000007" lon="-1.8589339999999999">
        <ele>471.473</ele>
        <time>2022-08-25T10:33:27Z</time>
      </trkpt>
      <trkpt lat="42.66884800000007" lon="-1.8589609999999999">
        <ele>471.286</ele>
        <time>2022-08-25T10:33:28Z</time>
      </trkpt>
      <trkpt lat="42.66885100000007" lon="-1.8589829999999998">
        <ele>471.072</ele>
        <time>2022-08-25T10:33:29Z</time>
      </trkpt>
      <trkpt lat="42.668855000000065" lon="-1.8589999999999998">
        <ele>470.893</ele>
        <time>2022-08-25T10:33:30Z</time>
      </trkpt>
      <trkpt lat="42.668858000000064" lon="-1.8590169999999997">
        <ele>470.877</ele>
        <time>2022-08-25T10:33:31Z</time>
      </trkpt>
      <trkpt lat="42.66886400000006" lon="-1.8590389999999997">
        <ele>470.261</ele>
        <time>2022-08-25T10:33:32Z</time>
      </trkpt>
      <trkpt lat="42.668886000000064" lon="-1.8590929999999997">
        <ele>470.027</ele>
        <time>2022-08-25T10:33:34Z</time>
      </trkpt>
      <trkpt lat="42.66892300000006" lon="-1.8591309999999996">
        <ele>469.809</ele>
        <time>2022-08-25T10:33:36Z</time>
      </trkpt>
      <trkpt lat="42.66894300000006" lon="-1.8591499999999996">
        <ele>469.878</ele>
        <time>2022-08-25T10:33:37Z</time>
      </trkpt>
      <trkpt lat="42.66896300000006" lon="-1.8591669999999996">
        <ele>469.848</ele>
        <time>2022-08-25T10:33:38Z</time>
      </trkpt>
      <trkpt lat="42.66900000000006" lon="-1.8592059999999995">
        <ele>469.888</ele>
        <time>2022-08-25T10:33:40Z</time>
      </trkpt>
      <trkpt lat="42.66904500000006" lon="-1.8592769999999994">
        <ele>469.494</ele>
        <time>2022-08-25T10:33:43Z</time>
      </trkpt>
      <trkpt lat="42.669055000000064" lon="-1.8592999999999995">
        <ele>469.446</ele>
        <time>2022-08-25T10:33:44Z</time>
      </trkpt>
      <trkpt lat="42.66906500000007" lon="-1.8593229999999996">
        <ele>469.423</ele>
        <time>2022-08-25T10:33:45Z</time>
      </trkpt>
      <trkpt lat="42.669072000000064" lon="-1.8593469999999996">
        <ele>469.496</ele>
        <time>2022-08-25T10:33:46Z</time>
      </trkpt>
      <trkpt lat="42.66907800000006" lon="-1.8593709999999997">
        <ele>469.232</ele>
        <time>2022-08-25T10:33:47Z</time>
      </trkpt>
      <trkpt lat="42.66909000000006" lon="-1.8593909999999996">
        <ele>469.053</ele>
        <time>2022-08-25T10:33:48Z</time>
      </trkpt>
      <trkpt lat="42.66910500000006" lon="-1.8594089999999996">
        <ele>468.847</ele>
        <time>2022-08-25T10:33:49Z</time>
      </trkpt>
      <trkpt lat="42.66912900000006" lon="-1.8594239999999997">
        <ele>468.629</ele>
        <time>2022-08-25T10:33:50Z</time>
      </trkpt>
      <trkpt lat="42.669159000000064" lon="-1.8594309999999998">
        <ele>468.421</ele>
        <time>2022-08-25T10:33:51Z</time>
      </trkpt>
      <trkpt lat="42.66919100000006" lon="-1.8594359999999999">
        <ele>468.409</ele>
        <time>2022-08-25T10:33:52Z</time>
      </trkpt>
      <trkpt lat="42.66922300000006" lon="-1.8594359999999999">
        <ele>468.245</ele>
        <time>2022-08-25T10:33:53Z</time>
      </trkpt>
      <trkpt lat="42.66924900000006" lon="-1.859433">
        <ele>468.035</ele>
        <time>2022-08-25T10:33:54Z</time>
      </trkpt>
      <trkpt lat="42.669275000000056" lon="-1.8594279999999999">
        <ele>468.015</ele>
        <time>2022-08-25T10:33:55Z</time>
      </trkpt>
      <trkpt lat="42.66929900000006" lon="-1.8594249999999999">
        <ele>468.091</ele>
        <time>2022-08-25T10:33:56Z</time>
      </trkpt>
      <trkpt lat="42.669320000000056" lon="-1.8594309999999998">
        <ele>468.093</ele>
        <time>2022-08-25T10:33:57Z</time>
      </trkpt>
      <trkpt lat="42.66933500000005" lon="-1.8594419999999998">
        <ele>468.010</ele>
        <time>2022-08-25T10:33:58Z</time>
      </trkpt>
      <trkpt lat="42.669343000000055" lon="-1.8594519999999999">
        <ele>468.013</ele>
        <time>2022-08-25T10:33:59Z</time>
      </trkpt>
      <trkpt lat="42.66935200000005" lon="-1.85947">
        <ele>468.079</ele>
        <time>2022-08-25T10:34:01Z</time>
      </trkpt>
      <trkpt lat="42.66935800000005" lon="-1.859494">
        <ele>468.020</ele>
        <time>2022-08-25T10:34:03Z</time>
      </trkpt>
      <trkpt lat="42.669337000000056" lon="-1.859564">
        <ele>467.028</ele>
        <time>2022-08-25T10:53:39Z</time>
      </trkpt>
      <trkpt lat="42.669303000000056" lon="-1.859685">
        <ele>466.289</ele>
        <time>2022-08-25T10:53:44Z</time>
      </trkpt>
      <trkpt lat="42.66930500000006" lon="-1.859707">
        <ele>466.017</ele>
        <time>2022-08-25T10:53:45Z</time>
      </trkpt>
      <trkpt lat="42.66929600000006" lon="-1.859722">
        <ele>465.409</ele>
        <time>2022-08-25T10:53:46Z</time>
      </trkpt>
      <trkpt lat="42.66927900000006" lon="-1.8597270000000001">
        <ele>465.483</ele>
        <time>2022-08-25T10:53:47Z</time>
      </trkpt>
      <trkpt lat="42.66926300000006" lon="-1.859706">
        <ele>465.053</ele>
        <time>2022-08-25T10:53:49Z</time>
      </trkpt>
      <trkpt lat="42.66926800000006" lon="-1.859699">
        <ele>465.033</ele>
        <time>2022-08-25T10:53:50Z</time>
      </trkpt>
      <trkpt lat="42.66927800000006" lon="-1.859699">
        <ele>465.049</ele>
        <time>2022-08-25T10:53:51Z</time>
      </trkpt>
      <trkpt lat="42.66929300000006" lon="-1.8597">
        <ele>465.051</ele>
        <time>2022-08-25T10:53:52Z</time>
      </trkpt>
      <trkpt lat="42.66931900000006" lon="-1.859696">
        <ele>465.218</ele>
        <time>2022-08-25T10:53:54Z</time>
      </trkpt>
      <trkpt lat="42.66932500000006" lon="-1.859696">
        <ele>465.261</ele>
        <time>2022-08-25T10:53:55Z</time>
      </trkpt>
      <trkpt lat="42.669332000000054" lon="-1.859695">
        <ele>465.227</ele>
        <time>2022-08-25T10:53:56Z</time>
      </trkpt>
      <trkpt lat="42.66933500000005" lon="-1.859688">
        <ele>465.478</ele>
        <time>2022-08-25T10:53:57Z</time>
      </trkpt>
      <trkpt lat="42.66933300000005" lon="-1.859683">
        <ele>465.434</ele>
        <time>2022-08-25T10:53:58Z</time>
      </trkpt>
      <trkpt lat="42.66933300000005" lon="-1.85968">
        <ele>465.655</ele>
        <time>2022-08-25T10:53:59Z</time>
      </trkpt>
      <trkpt lat="42.66934000000005" lon="-1.85967">
        <ele>465.810</ele>
        <time>2022-08-25T10:54:00Z</time>
      </trkpt>
      <trkpt lat="42.66934900000005" lon="-1.859657">
        <ele>465.809</ele>
        <time>2022-08-25T10:54:01Z</time>
      </trkpt>
      <trkpt lat="42.66936000000005" lon="-1.8596419999999998">
        <ele>466.244</ele>
        <time>2022-08-25T10:54:03Z</time>
      </trkpt>
      <trkpt lat="42.66936500000005" lon="-1.8596359999999998">
        <ele>466.224</ele>
        <time>2022-08-25T10:54:04Z</time>
      </trkpt>
      <trkpt lat="42.66937000000005" lon="-1.859632">
        <ele>466.434</ele>
        <time>2022-08-25T10:54:05Z</time>
      </trkpt>
      <trkpt lat="42.66932300000005" lon="-1.859685">
        <ele>466.640</ele>
        <time>2022-08-25T11:01:23Z</time>
      </trkpt>
      <trkpt lat="42.669296000000045" lon="-1.859737">
        <ele>466.442</ele>
        <time>2022-08-25T11:01:25Z</time>
      </trkpt>
      <trkpt lat="42.669291000000044" lon="-1.859783">
        <ele>466.439</ele>
        <time>2022-08-25T11:01:26Z</time>
      </trkpt>
      <trkpt lat="42.66929200000004" lon="-1.859837">
        <ele>466.232</ele>
        <time>2022-08-25T11:01:27Z</time>
      </trkpt>
      <trkpt lat="42.66929200000004" lon="-1.8598949999999999">
        <ele>466.048</ele>
        <time>2022-08-25T11:01:28Z</time>
      </trkpt>
      <trkpt lat="42.66928900000004" lon="-1.8599519999999998">
        <ele>465.879</ele>
        <time>2022-08-25T11:01:29Z</time>
      </trkpt>
      <trkpt lat="42.66928300000004" lon="-1.8600639999999997">
        <ele>465.271</ele>
        <time>2022-08-25T11:01:31Z</time>
      </trkpt>
      <trkpt lat="42.66927800000004" lon="-1.8601159999999997">
        <ele>464.641</ele>
        <time>2022-08-25T11:01:32Z</time>
      </trkpt>
      <trkpt lat="42.66925800000004" lon="-1.8602719999999997">
        <ele>463.815</ele>
        <time>2022-08-25T11:01:35Z</time>
      </trkpt>
      <trkpt lat="42.66924900000004" lon="-1.8603259999999997">
        <ele>463.609</ele>
        <time>2022-08-25T11:01:36Z</time>
      </trkpt>
      <trkpt lat="42.66923800000004" lon="-1.8603799999999997">
        <ele>463.048</ele>
        <time>2022-08-25T11:01:37Z</time>
      </trkpt>
      <trkpt lat="42.669226000000045" lon="-1.8604299999999998">
        <ele>462.848</ele>
        <time>2022-08-25T11:01:38Z</time>
      </trkpt>
      <trkpt lat="42.66921100000005" lon="-1.8604749999999999">
        <ele>462.428</ele>
        <time>2022-08-25T11:01:39Z</time>
      </trkpt>
      <trkpt lat="42.669198000000044" lon="-1.8605219999999998">
        <ele>462.214</ele>
        <time>2022-08-25T11:01:40Z</time>
      </trkpt>
      <trkpt lat="42.66919000000004" lon="-1.8605739999999997">
        <ele>462.086</ele>
        <time>2022-08-25T11:01:41Z</time>
      </trkpt>
      <trkpt lat="42.66918300000005" lon="-1.8606829999999996">
        <ele>461.683</ele>
        <time>2022-08-25T11:01:43Z</time>
      </trkpt>
      <trkpt lat="42.669181000000044" lon="-1.8607349999999996">
        <ele>460.896</ele>
        <time>2022-08-25T11:01:44Z</time>
      </trkpt>
      <trkpt lat="42.66917300000004" lon="-1.8607799999999997">
        <ele>460.432</ele>
        <time>2022-08-25T11:01:45Z</time>
      </trkpt>
      <trkpt lat="42.66916200000004" lon="-1.8608229999999997">
        <ele>459.693</ele>
        <time>2022-08-25T11:01:46Z</time>
      </trkpt>
      <trkpt lat="42.669156000000044" lon="-1.8608639999999996">
        <ele>459.074</ele>
        <time>2022-08-25T11:01:47Z</time>
      </trkpt>
      <trkpt lat="42.66915400000004" lon="-1.8609049999999996">
        <ele>458.856</ele>
        <time>2022-08-25T11:01:48Z</time>
      </trkpt>
      <trkpt lat="42.66915500000004" lon="-1.8609319999999996">
        <ele>458.421</ele>
        <time>2022-08-25T11:01:49Z</time>
      </trkpt>
      <trkpt lat="42.66915400000004" lon="-1.8609679999999995">
        <ele>458.009</ele>
        <time>2022-08-25T11:01:50Z</time>
      </trkpt>
      <trkpt lat="42.66915500000004" lon="-1.8610059999999995">
        <ele>457.868</ele>
        <time>2022-08-25T11:01:51Z</time>
      </trkpt>
      <trkpt lat="42.66915000000004" lon="-1.8610419999999994">
        <ele>457.848</ele>
        <time>2022-08-25T11:01:52Z</time>
      </trkpt>
      <trkpt lat="42.66915000000004" lon="-1.8610859999999994">
        <ele>457.448</ele>
        <time>2022-08-25T11:01:53Z</time>
      </trkpt>
      <trkpt lat="42.669151000000035" lon="-1.8611189999999993">
        <ele>456.824</ele>
        <time>2022-08-25T11:01:54Z</time>
      </trkpt>
      <trkpt lat="42.66915500000003" lon="-1.8611509999999993">
        <ele>456.676</ele>
        <time>2022-08-25T11:01:55Z</time>
      </trkpt>
      <trkpt lat="42.66916300000003" lon="-1.8612579999999994">
        <ele>455.653</ele>
        <time>2022-08-25T11:01:58Z</time>
      </trkpt>
      <trkpt lat="42.66916400000003" lon="-1.8612799999999994">
        <ele>455.486</ele>
        <time>2022-08-25T11:01:59Z</time>
      </trkpt>
      <trkpt lat="42.66916700000003" lon="-1.8613439999999994">
        <ele>454.682</ele>
        <time>2022-08-25T11:02:01Z</time>
      </trkpt>
      <trkpt lat="42.66917700000003" lon="-1.8614219999999995">
        <ele>454.073</ele>
        <time>2022-08-25T11:02:03Z</time>
      </trkpt>
      <trkpt lat="42.669171000000034" lon="-1.8614989999999996">
        <ele>453.616</ele>
        <time>2022-08-25T11:02:05Z</time>
      </trkpt>
      <trkpt lat="42.66916000000003" lon="-1.8615409999999997">
        <ele>453.476</ele>
        <time>2022-08-25T11:02:06Z</time>
      </trkpt>
      <trkpt lat="42.669159000000036" lon="-1.8615629999999996">
        <ele>453.013</ele>
        <time>2022-08-25T11:02:07Z</time>
      </trkpt>
      <trkpt lat="42.669143000000034" lon="-1.8616279999999996">
        <ele>452.209</ele>
        <time>2022-08-25T11:02:09Z</time>
      </trkpt>
      <trkpt lat="42.669027000000035" lon="-1.8618619999999997">
        <ele>451.272</ele>
        <time>2022-08-25T11:02:15Z</time>
      </trkpt>
      <trkpt lat="42.668977000000034" lon="-1.8619319999999997">
        <ele>450.882</ele>
        <time>2022-08-25T11:02:17Z</time>
      </trkpt>
      <trkpt lat="42.66895000000003" lon="-1.8620269999999997">
        <ele>450.642</ele>
        <time>2022-08-25T11:02:19Z</time>
      </trkpt>
      <trkpt lat="42.66894400000003" lon="-1.8620729999999996">
        <ele>450.438</ele>
        <time>2022-08-25T11:02:20Z</time>
      </trkpt>
      <trkpt lat="42.66893900000003" lon="-1.8621169999999996">
        <ele>450.460</ele>
        <time>2022-08-25T11:02:21Z</time>
      </trkpt>
      <trkpt lat="42.66894000000003" lon="-1.8621549999999996">
        <ele>450.287</ele>
        <time>2022-08-25T11:02:22Z</time>
      </trkpt>
      <trkpt lat="42.668944000000025" lon="-1.8621809999999996">
        <ele>450.220</ele>
        <time>2022-08-25T11:02:23Z</time>
      </trkpt>
      <trkpt lat="42.66894800000002" lon="-1.8621979999999996">
        <ele>450.066</ele>
        <time>2022-08-25T11:02:24Z</time>
      </trkpt>
      <trkpt lat="42.66895700000002" lon="-1.8622079999999996">
        <ele>450.027</ele>
        <time>2022-08-25T11:02:25Z</time>
      </trkpt>
      <trkpt lat="42.66897100000002" lon="-1.8622119999999995">
        <ele>449.823</ele>
        <time>2022-08-25T11:02:26Z</time>
      </trkpt>
      <trkpt lat="42.66898600000002" lon="-1.8622199999999995">
        <ele>449.883</ele>
        <time>2022-08-25T11:02:27Z</time>
      </trkpt>
      <trkpt lat="42.669001000000016" lon="-1.8622229999999995">
        <ele>449.811</ele>
        <time>2022-08-25T11:02:28Z</time>
      </trkpt>
      <trkpt lat="42.66902500000002" lon="-1.8622209999999995">
        <ele>449.609</ele>
        <time>2022-08-25T11:02:30Z</time>
      </trkpt>
      <trkpt lat="42.66903900000002" lon="-1.8622139999999994">
        <ele>449.463</ele>
        <time>2022-08-25T11:02:32Z</time>
      </trkpt>
      <trkpt lat="42.66905200000002" lon="-1.8622239999999994">
        <ele>449.293</ele>
        <time>2022-08-25T11:02:33Z</time>
      </trkpt>
      <trkpt lat="42.669071000000024" lon="-1.8622389999999995">
        <ele>449.413</ele>
        <time>2022-08-25T11:02:34Z</time>
      </trkpt>
      <trkpt lat="42.669084000000026" lon="-1.8622459999999996">
        <ele>449.279</ele>
        <time>2022-08-25T11:02:35Z</time>
      </trkpt>
      <trkpt lat="42.66909800000003" lon="-1.8622519999999996">
        <ele>449.251</ele>
        <time>2022-08-25T11:02:36Z</time>
      </trkpt>
      <trkpt lat="42.66910900000003" lon="-1.8622599999999996">
        <ele>449.268</ele>
        <time>2022-08-25T11:02:37Z</time>
      </trkpt>
      <trkpt lat="42.66911900000003" lon="-1.8622709999999996">
        <ele>449.081</ele>
        <time>2022-08-25T11:02:38Z</time>
      </trkpt>
      <trkpt lat="42.66913100000003" lon="-1.8622849999999995">
        <ele>449.077</ele>
        <time>2022-08-25T11:02:39Z</time>
      </trkpt>
      <trkpt lat="42.66914700000003" lon="-1.8622969999999994">
        <ele>449.058</ele>
        <time>2022-08-25T11:02:40Z</time>
      </trkpt>
      <trkpt lat="42.66917600000003" lon="-1.8623169999999993">
        <ele>448.825</ele>
        <time>2022-08-25T11:02:42Z</time>
      </trkpt>
      <trkpt lat="42.66918700000003" lon="-1.8623369999999992">
        <ele>449.026</ele>
        <time>2022-08-25T11:02:43Z</time>
      </trkpt>
      <trkpt lat="42.66919000000003" lon="-1.8623519999999993">
        <ele>449.008</ele>
        <time>2022-08-25T11:02:44Z</time>
      </trkpt>
      <trkpt lat="42.66919000000003" lon="-1.8623679999999994">
        <ele>449.209</ele>
        <time>2022-08-25T11:02:45Z</time>
      </trkpt>
      <trkpt lat="42.66918700000003" lon="-1.8623799999999993">
        <ele>449.253</ele>
        <time>2022-08-25T11:02:46Z</time>
      </trkpt>
      <trkpt lat="42.66913000000003" lon="-1.8623889999999992">
        <ele>449.243</ele>
        <time>2022-08-25T11:02:49Z</time>
      </trkpt>
      <trkpt lat="42.66910700000003" lon="-1.8623959999999993">
        <ele>449.223</ele>
        <time>2022-08-25T11:02:50Z</time>
      </trkpt>
      <trkpt lat="42.66908400000003" lon="-1.8624059999999993">
        <ele>449.259</ele>
        <time>2022-08-25T11:02:51Z</time>
      </trkpt>
      <trkpt lat="42.66906300000004" lon="-1.8624159999999994">
        <ele>449.421</ele>
        <time>2022-08-25T11:02:52Z</time>
      </trkpt>
      <trkpt lat="42.66899400000003" lon="-1.8624419999999995">
        <ele>449.268</ele>
        <time>2022-08-25T11:02:55Z</time>
      </trkpt>
      <trkpt lat="42.668976000000036" lon="-1.8624789999999996">
        <ele>449.021</ele>
        <time>2022-08-25T11:02:57Z</time>
      </trkpt>
      <trkpt lat="42.668962000000036" lon="-1.8625069999999995">
        <ele>449.047</ele>
        <time>2022-08-25T11:02:58Z</time>
      </trkpt>
      <trkpt lat="42.66894400000004" lon="-1.8625549999999995">
        <ele>449.048</ele>
        <time>2022-08-25T11:02:59Z</time>
      </trkpt>
      <trkpt lat="42.66893700000004" lon="-1.8625989999999994">
        <ele>449.019</ele>
        <time>2022-08-25T11:03:00Z</time>
      </trkpt>
      <trkpt lat="42.668936000000045" lon="-1.8626419999999995">
        <ele>449.009</ele>
        <time>2022-08-25T11:03:01Z</time>
      </trkpt>
      <trkpt lat="42.66893700000004" lon="-1.8626809999999994">
        <ele>448.819</ele>
        <time>2022-08-25T11:03:02Z</time>
      </trkpt>
      <trkpt lat="42.668936000000045" lon="-1.8627169999999993">
        <ele>448.809</ele>
        <time>2022-08-25T11:03:03Z</time>
      </trkpt>
      <trkpt lat="42.668936000000045" lon="-1.8627499999999992">
        <ele>448.812</ele>
        <time>2022-08-25T11:03:04Z</time>
      </trkpt>
      <trkpt lat="42.66893800000005" lon="-1.8627819999999993">
        <ele>448.832</ele>
        <time>2022-08-25T11:03:05Z</time>
      </trkpt>
      <trkpt lat="42.66893500000005" lon="-1.8628149999999992">
        <ele>448.832</ele>
        <time>2022-08-25T11:03:06Z</time>
      </trkpt>
      <trkpt lat="42.668933000000045" lon="-1.8628499999999992">
        <ele>448.888</ele>
        <time>2022-08-25T11:03:07Z</time>
      </trkpt>
      <trkpt lat="42.668928000000044" lon="-1.8629829999999992">
        <ele>449.030</ele>
        <time>2022-08-25T11:03:11Z</time>
      </trkpt>
      <trkpt lat="42.668922000000045" lon="-1.8630779999999991">
        <ele>449.087</ele>
        <time>2022-08-25T11:03:14Z</time>
      </trkpt>
      <trkpt lat="42.66891800000005" lon="-1.8631039999999992">
        <ele>449.080</ele>
        <time>2022-08-25T11:03:15Z</time>
      </trkpt>
      <trkpt lat="42.66891100000005" lon="-1.8631219999999993">
        <ele>449.036</ele>
        <time>2022-08-25T11:03:16Z</time>
      </trkpt>
      <trkpt lat="42.66890800000005" lon="-1.8631339999999992">
        <ele>449.087</ele>
        <time>2022-08-25T11:03:17Z</time>
      </trkpt>
      <trkpt lat="42.66890600000005" lon="-1.8631439999999992">
        <ele>449.032</ele>
        <time>2022-08-25T11:03:19Z</time>
      </trkpt>
      <trkpt lat="42.66890600000005" lon="-1.8631499999999992">
        <ele>449.092</ele>
        <time>2022-08-25T11:03:20Z</time>
      </trkpt>
      <trkpt lat="42.66891100000005" lon="-1.8631819999999992">
        <ele>448.811</ele>
        <time>2022-08-25T11:03:30Z</time>
      </trkpt>
      <trkpt lat="42.66891400000005" lon="-1.8632069999999992">
        <ele>448.809</ele>
        <time>2022-08-25T11:03:31Z</time>
      </trkpt>
      <trkpt lat="42.66890900000005" lon="-1.8632469999999992">
        <ele>448.844</ele>
        <time>2022-08-25T11:03:33Z</time>
      </trkpt>
      <trkpt lat="42.66890900000005" lon="-1.863250999999999">
        <ele>448.884</ele>
        <time>2022-08-25T11:03:40Z</time>
      </trkpt>
      <trkpt lat="42.66890900000005" lon="-1.863250999999999">
        <ele>448.864</ele>
        <time>2022-08-25T11:03:41Z</time>
      </trkpt>
      <trkpt lat="42.66888700000005" lon="-1.863310999999999">
        <ele>448.660</ele>
        <time>2022-08-25T11:03:45Z</time>
      </trkpt>
      <trkpt lat="42.66886700000005" lon="-1.863330999999999">
        <ele>448.612</ele>
        <time>2022-08-25T11:03:46Z</time>
      </trkpt>
      <trkpt lat="42.66884800000005" lon="-1.8633889999999989">
        <ele>448.619</ele>
        <time>2022-08-25T11:03:48Z</time>
      </trkpt>
      <trkpt lat="42.66885300000005" lon="-1.863425999999999">
        <ele>448.632</ele>
        <time>2022-08-25T11:03:49Z</time>
      </trkpt>
      <trkpt lat="42.66886100000005" lon="-1.863462999999999">
        <ele>448.628</ele>
        <time>2022-08-25T11:03:50Z</time>
      </trkpt>
      <trkpt lat="42.66886900000005" lon="-1.8634939999999989">
        <ele>448.639</ele>
        <time>2022-08-25T11:03:51Z</time>
      </trkpt>
      <trkpt lat="42.66887300000005" lon="-1.863522999999999">
        <ele>448.686</ele>
        <time>2022-08-25T11:03:52Z</time>
      </trkpt>
      <trkpt lat="42.668880000000044" lon="-1.863548999999999">
        <ele>448.660</ele>
        <time>2022-08-25T11:03:53Z</time>
      </trkpt>
      <trkpt lat="42.66888600000004" lon="-1.863569999999999">
        <ele>448.626</ele>
        <time>2022-08-25T11:03:54Z</time>
      </trkpt>
      <trkpt lat="42.668891000000045" lon="-1.8635959999999991">
        <ele>448.609</ele>
        <time>2022-08-25T11:03:55Z</time>
      </trkpt>
      <trkpt lat="42.668888000000045" lon="-1.863615999999999">
        <ele>448.669</ele>
        <time>2022-08-25T11:03:56Z</time>
      </trkpt>
      <trkpt lat="42.66888600000004" lon="-1.863620999999999">
        <ele>448.649</ele>
        <time>2022-08-25T11:03:57Z</time>
      </trkpt>
      <trkpt lat="42.66886900000004" lon="-1.863626999999999">
        <ele>448.439</ele>
        <time>2022-08-25T11:04:04Z</time>
      </trkpt>
      <trkpt lat="42.66886900000004" lon="-1.863626999999999">
        <ele>448.265</ele>
        <time>2022-08-25T11:04:05Z</time>
      </trkpt>
      <trkpt lat="42.66886100000004" lon="-1.863654999999999">
        <ele>448.247</ele>
        <time>2022-08-25T11:04:07Z</time>
      </trkpt>
      <trkpt lat="42.66886200000004" lon="-1.863662999999999">
        <ele>448.484</ele>
        <time>2022-08-25T11:04:08Z</time>
      </trkpt>
      <trkpt lat="42.66886500000004" lon="-1.8636669999999989">
        <ele>448.447</ele>
        <time>2022-08-25T11:04:09Z</time>
      </trkpt>
      <trkpt lat="42.66886500000004" lon="-1.8636669999999989">
        <ele>448.433</ele>
        <time>2022-08-25T11:04:10Z</time>
      </trkpt>
      <trkpt lat="42.66886500000004" lon="-1.8636669999999989">
        <ele>448.244</ele>
        <time>2022-08-25T11:04:11Z</time>
      </trkpt>
      <trkpt lat="42.66886300000004" lon="-1.8636679999999988">
        <ele>448.268</ele>
        <time>2022-08-25T11:04:12Z</time>
      </trkpt>
      <trkpt lat="42.668839000000034" lon="-1.8636789999999988">
        <ele>448.442</ele>
        <time>2022-08-25T11:04:13Z</time>
      </trkpt>
      <trkpt lat="42.66876900000003" lon="-1.8637029999999988">
        <ele>448.426</ele>
        <time>2022-08-25T11:04:16Z</time>
      </trkpt>
      <trkpt lat="42.66877000000003" lon="-1.8637299999999988">
        <ele>448.409</ele>
        <time>2022-08-25T11:04:17Z</time>
      </trkpt>
      <trkpt lat="42.66877100000003" lon="-1.8637579999999987">
        <ele>448.427</ele>
        <time>2022-08-25T11:04:18Z</time>
      </trkpt>
      <trkpt lat="42.66877400000003" lon="-1.8637879999999987">
        <ele>448.417</ele>
        <time>2022-08-25T11:04:19Z</time>
      </trkpt>
      <trkpt lat="42.66877100000003" lon="-1.8638469999999987">
        <ele>448.467</ele>
        <time>2022-08-25T11:04:20Z</time>
      </trkpt>
      <trkpt lat="42.66876200000003" lon="-1.8638779999999986">
        <ele>448.483</ele>
        <time>2022-08-25T11:04:21Z</time>
      </trkpt>
      <trkpt lat="42.66875300000003" lon="-1.8639009999999987">
        <ele>448.465</ele>
        <time>2022-08-25T11:04:22Z</time>
      </trkpt>
      <trkpt lat="42.66875300000003" lon="-1.8639119999999987">
        <ele>448.462</ele>
        <time>2022-08-25T11:04:23Z</time>
      </trkpt>
      <trkpt lat="42.66875200000003" lon="-1.8639189999999988">
        <ele>448.455</ele>
        <time>2022-08-25T11:04:24Z</time>
      </trkpt>
      <trkpt lat="42.66875200000003" lon="-1.8639259999999989">
        <ele>448.461</ele>
        <time>2022-08-25T11:04:25Z</time>
      </trkpt>
      <trkpt lat="42.668754000000035" lon="-1.8639269999999988">
        <ele>448.472</ele>
        <time>2022-08-25T11:04:26Z</time>
      </trkpt>
      <trkpt lat="42.668748000000036" lon="-1.8639369999999988">
        <ele>448.465</ele>
        <time>2022-08-25T11:04:29Z</time>
      </trkpt>
      <trkpt lat="42.668712000000035" lon="-1.864013999999999">
        <ele>448.468</ele>
        <time>2022-08-25T11:04:33Z</time>
      </trkpt>
      <trkpt lat="42.66870700000003" lon="-1.8640449999999988">
        <ele>448.414</ele>
        <time>2022-08-25T11:04:34Z</time>
      </trkpt>
      <trkpt lat="42.66871100000003" lon="-1.8641919999999987">
        <ele>448.409</ele>
        <time>2022-08-25T11:04:38Z</time>
      </trkpt>
      <trkpt lat="42.66872000000003" lon="-1.8643049999999988">
        <ele>448.647</ele>
        <time>2022-08-25T11:04:41Z</time>
      </trkpt>
      <trkpt lat="42.66873300000003" lon="-1.8643649999999987">
        <ele>448.877</ele>
        <time>2022-08-25T11:04:42Z</time>
      </trkpt>
      <trkpt lat="42.668746000000034" lon="-1.8644029999999987">
        <ele>448.867</ele>
        <time>2022-08-25T11:04:43Z</time>
      </trkpt>
      <trkpt lat="42.66875900000004" lon="-1.8644319999999988">
        <ele>448.873</ele>
        <time>2022-08-25T11:04:44Z</time>
      </trkpt>
      <trkpt lat="42.66876400000004" lon="-1.8644689999999988">
        <ele>448.885</ele>
        <time>2022-08-25T11:04:45Z</time>
      </trkpt>
      <trkpt lat="42.66877200000004" lon="-1.8645059999999989">
        <ele>449.052</ele>
        <time>2022-08-25T11:04:46Z</time>
      </trkpt>
      <trkpt lat="42.66876900000004" lon="-1.8645329999999989">
        <ele>449.015</ele>
        <time>2022-08-25T11:04:47Z</time>
      </trkpt>
      <trkpt lat="42.66875700000004" lon="-1.8645519999999989">
        <ele>449.021</ele>
        <time>2022-08-25T11:04:48Z</time>
      </trkpt>
      <trkpt lat="42.66873300000004" lon="-1.8645789999999989">
        <ele>449.022</ele>
        <time>2022-08-25T11:04:49Z</time>
      </trkpt>
      <trkpt lat="42.66872500000004" lon="-1.864607999999999">
        <ele>449.268</ele>
        <time>2022-08-25T11:04:50Z</time>
      </trkpt>
      <trkpt lat="42.66872100000004" lon="-1.8646389999999988">
        <ele>449.242</ele>
        <time>2022-08-25T11:04:51Z</time>
      </trkpt>
      <trkpt lat="42.66871900000004" lon="-1.8646699999999987">
        <ele>449.226</ele>
        <time>2022-08-25T11:04:52Z</time>
      </trkpt>
      <trkpt lat="42.66871800000004" lon="-1.8647029999999987">
        <ele>449.209</ele>
        <time>2022-08-25T11:04:53Z</time>
      </trkpt>
      <trkpt lat="42.668714000000044" lon="-1.8648859999999987">
        <ele>449.047</ele>
        <time>2022-08-25T11:04:57Z</time>
      </trkpt>
      <trkpt lat="42.66873200000004" lon="-1.8651639999999987">
        <ele>448.887</ele>
        <time>2022-08-25T11:05:03Z</time>
      </trkpt>
      <trkpt lat="42.66873700000004" lon="-1.8652099999999987">
        <ele>448.867</ele>
        <time>2022-08-25T11:05:04Z</time>
      </trkpt>
      <trkpt lat="42.66874000000004" lon="-1.8652559999999987">
        <ele>448.893</ele>
        <time>2022-08-25T11:05:05Z</time>
      </trkpt>
      <trkpt lat="42.668742000000044" lon="-1.8652999999999986">
        <ele>448.645</ele>
        <time>2022-08-25T11:05:06Z</time>
      </trkpt>
      <trkpt lat="42.668745000000044" lon="-1.8653439999999986">
        <ele>448.642</ele>
        <time>2022-08-25T11:05:07Z</time>
      </trkpt>
      <trkpt lat="42.66875100000004" lon="-1.8653869999999986">
        <ele>448.685</ele>
        <time>2022-08-25T11:05:08Z</time>
      </trkpt>
      <trkpt lat="42.66875800000004" lon="-1.8654279999999985">
        <ele>448.661</ele>
        <time>2022-08-25T11:05:09Z</time>
      </trkpt>
      <trkpt lat="42.668765000000036" lon="-1.8654699999999986">
        <ele>448.662</ele>
        <time>2022-08-25T11:05:10Z</time>
      </trkpt>
      <trkpt lat="42.668774000000035" lon="-1.8655559999999987">
        <ele>448.662</ele>
        <time>2022-08-25T11:05:12Z</time>
      </trkpt>
      <trkpt lat="42.66877800000003" lon="-1.8655999999999986">
        <ele>448.683</ele>
        <time>2022-08-25T11:05:13Z</time>
      </trkpt>
      <trkpt lat="42.66878300000003" lon="-1.8656409999999986">
        <ele>448.611</ele>
        <time>2022-08-25T11:05:14Z</time>
      </trkpt>
      <trkpt lat="42.668788000000035" lon="-1.8656829999999986">
        <ele>448.809</ele>
        <time>2022-08-25T11:05:15Z</time>
      </trkpt>
      <trkpt lat="42.668794000000034" lon="-1.8657239999999986">
        <ele>448.887</ele>
        <time>2022-08-25T11:05:16Z</time>
      </trkpt>
      <trkpt lat="42.66880000000003" lon="-1.8657619999999986">
        <ele>448.897</ele>
        <time>2022-08-25T11:05:17Z</time>
      </trkpt>
      <trkpt lat="42.668805000000035" lon="-1.8657999999999986">
        <ele>448.847</ele>
        <time>2022-08-25T11:05:18Z</time>
      </trkpt>
      <trkpt lat="42.668811000000034" lon="-1.8658329999999985">
        <ele>449.093</ele>
        <time>2022-08-25T11:05:19Z</time>
      </trkpt>
      <trkpt lat="42.66881700000003" lon="-1.8658669999999986">
        <ele>449.065</ele>
        <time>2022-08-25T11:05:20Z</time>
      </trkpt>
      <trkpt lat="42.668822000000034" lon="-1.8659029999999985">
        <ele>449.232</ele>
        <time>2022-08-25T11:05:21Z</time>
      </trkpt>
      <trkpt lat="42.66882600000003" lon="-1.8659399999999986">
        <ele>449.295</ele>
        <time>2022-08-25T11:05:22Z</time>
      </trkpt>
      <trkpt lat="42.66883000000003" lon="-1.8659749999999986">
        <ele>449.471</ele>
        <time>2022-08-25T11:05:23Z</time>
      </trkpt>
      <trkpt lat="42.66883500000003" lon="-1.8660089999999987">
        <ele>449.462</ele>
        <time>2022-08-25T11:05:24Z</time>
      </trkpt>
      <trkpt lat="42.66884100000003" lon="-1.8660429999999988">
        <ele>449.647</ele>
        <time>2022-08-25T11:05:25Z</time>
      </trkpt>
      <trkpt lat="42.66885300000003" lon="-1.8661109999999987">
        <ele>449.829</ele>
        <time>2022-08-25T11:05:27Z</time>
      </trkpt>
      <trkpt lat="42.668859000000026" lon="-1.8661429999999988">
        <ele>450.021</ele>
        <time>2022-08-25T11:05:28Z</time>
      </trkpt>
      <trkpt lat="42.66886700000003" lon="-1.8662099999999988">
        <ele>450.209</ele>
        <time>2022-08-25T11:05:30Z</time>
      </trkpt>
      <trkpt lat="42.66886900000003" lon="-1.8662419999999988">
        <ele>450.225</ele>
        <time>2022-08-25T11:05:31Z</time>
      </trkpt>
      <trkpt lat="42.66887200000003" lon="-1.866270999999999">
        <ele>450.255</ele>
        <time>2022-08-25T11:05:32Z</time>
      </trkpt>
      <trkpt lat="42.66887500000003" lon="-1.866299999999999">
        <ele>450.425</ele>
        <time>2022-08-25T11:05:33Z</time>
      </trkpt>
      <trkpt lat="42.66887800000003" lon="-1.8663309999999989">
        <ele>450.681</ele>
        <time>2022-08-25T11:05:34Z</time>
      </trkpt>
      <trkpt lat="42.66889200000003" lon="-1.8664199999999989">
        <ele>450.873</ele>
        <time>2022-08-25T11:05:37Z</time>
      </trkpt>
      <trkpt lat="42.66889700000003" lon="-1.8664469999999989">
        <ele>451.080</ele>
        <time>2022-08-25T11:05:38Z</time>
      </trkpt>
      <trkpt lat="42.66890100000003" lon="-1.866475999999999">
        <ele>451.233</ele>
        <time>2022-08-25T11:05:39Z</time>
      </trkpt>
      <trkpt lat="42.66890300000003" lon="-1.8665059999999989">
        <ele>451.259</ele>
        <time>2022-08-25T11:05:40Z</time>
      </trkpt>
      <trkpt lat="42.668907000000026" lon="-1.866534999999999">
        <ele>451.240</ele>
        <time>2022-08-25T11:05:41Z</time>
      </trkpt>
      <trkpt lat="42.668913000000025" lon="-1.866560999999999">
        <ele>451.459</ele>
        <time>2022-08-25T11:05:42Z</time>
      </trkpt>
      <trkpt lat="42.668918000000026" lon="-1.866586999999999">
        <ele>451.403</ele>
        <time>2022-08-25T11:05:43Z</time>
      </trkpt>
      <trkpt lat="42.66892300000003" lon="-1.8666129999999992">
        <ele>451.423</ele>
        <time>2022-08-25T11:05:44Z</time>
      </trkpt>
      <trkpt lat="42.668930000000024" lon="-1.8666899999999993">
        <ele>451.609</ele>
        <time>2022-08-25T11:05:47Z</time>
      </trkpt>
      <trkpt lat="42.66893400000002" lon="-1.8667719999999992">
        <ele>452.246</ele>
        <time>2022-08-25T11:05:50Z</time>
      </trkpt>
      <trkpt lat="42.66893600000002" lon="-1.8667989999999992">
        <ele>452.426</ele>
        <time>2022-08-25T11:05:51Z</time>
      </trkpt>
      <trkpt lat="42.66894300000002" lon="-1.8668489999999993">
        <ele>453.036</ele>
        <time>2022-08-25T11:05:53Z</time>
      </trkpt>
      <trkpt lat="42.66894600000002" lon="-1.8668719999999994">
        <ele>453.072</ele>
        <time>2022-08-25T11:05:54Z</time>
      </trkpt>
      <trkpt lat="42.66895100000002" lon="-1.8668959999999994">
        <ele>453.074</ele>
        <time>2022-08-25T11:05:55Z</time>
      </trkpt>
      <trkpt lat="42.66895300000002" lon="-1.8669199999999995">
        <ele>453.261</ele>
        <time>2022-08-25T11:05:56Z</time>
      </trkpt>
      <trkpt lat="42.668955000000025" lon="-1.8669429999999996">
        <ele>453.614</ele>
        <time>2022-08-25T11:05:57Z</time>
      </trkpt>
      <trkpt lat="42.66895900000002" lon="-1.8669669999999996">
        <ele>453.890</ele>
        <time>2022-08-25T11:05:58Z</time>
      </trkpt>
      <trkpt lat="42.66896300000002" lon="-1.8669909999999996">
        <ele>453.851</ele>
        <time>2022-08-25T11:05:59Z</time>
      </trkpt>
      <trkpt lat="42.66896500000002" lon="-1.8670139999999997">
        <ele>454.255</ele>
        <time>2022-08-25T11:06:00Z</time>
      </trkpt>
      <trkpt lat="42.66897000000002" lon="-1.8670389999999997">
        <ele>454.207</ele>
        <time>2022-08-25T11:06:01Z</time>
      </trkpt>
      <trkpt lat="42.66897400000002" lon="-1.8670639999999996">
        <ele>454.417</ele>
        <time>2022-08-25T11:06:02Z</time>
      </trkpt>
      <trkpt lat="42.66897800000002" lon="-1.8670859999999996">
        <ele>454.409</ele>
        <time>2022-08-25T11:06:03Z</time>
      </trkpt>
      <trkpt lat="42.668982000000014" lon="-1.8671089999999997">
        <ele>454.676</ele>
        <time>2022-08-25T11:06:04Z</time>
      </trkpt>
      <trkpt lat="42.66898600000001" lon="-1.8671339999999996">
        <ele>454.626</ele>
        <time>2022-08-25T11:06:05Z</time>
      </trkpt>
      <trkpt lat="42.66899000000001" lon="-1.8671579999999997">
        <ele>454.856</ele>
        <time>2022-08-25T11:06:06Z</time>
      </trkpt>
      <trkpt lat="42.66899500000001" lon="-1.8671819999999997">
        <ele>455.072</ele>
        <time>2022-08-25T11:06:07Z</time>
      </trkpt>
      <trkpt lat="42.66899800000001" lon="-1.8672029999999997">
        <ele>455.094</ele>
        <time>2022-08-25T11:06:08Z</time>
      </trkpt>
      <trkpt lat="42.66899900000001" lon="-1.8672259999999998">
        <ele>455.441</ele>
        <time>2022-08-25T11:06:09Z</time>
      </trkpt>
      <trkpt lat="42.66900100000001" lon="-1.867249">
        <ele>455.654</ele>
        <time>2022-08-25T11:06:10Z</time>
      </trkpt>
      <trkpt lat="42.66900300000001" lon="-1.867273">
        <ele>455.820</ele>
        <time>2022-08-25T11:06:11Z</time>
      </trkpt>
      <trkpt lat="42.66900600000001" lon="-1.867296">
        <ele>456.081</ele>
        <time>2022-08-25T11:06:12Z</time>
      </trkpt>
      <trkpt lat="42.66901100000001" lon="-1.867318">
        <ele>456.073</ele>
        <time>2022-08-25T11:06:13Z</time>
      </trkpt>
      <trkpt lat="42.66901600000001" lon="-1.867343">
        <ele>456.285</ele>
        <time>2022-08-25T11:06:14Z</time>
      </trkpt>
      <trkpt lat="42.669021000000015" lon="-1.867366">
        <ele>456.213</ele>
        <time>2022-08-25T11:06:15Z</time>
      </trkpt>
      <trkpt lat="42.669027000000014" lon="-1.86739">
        <ele>456.209</ele>
        <time>2022-08-25T11:06:16Z</time>
      </trkpt>
      <trkpt lat="42.66903100000001" lon="-1.8674140000000001">
        <ele>456.268</ele>
        <time>2022-08-25T11:06:17Z</time>
      </trkpt>
      <trkpt lat="42.66903600000001" lon="-1.8674400000000002">
        <ele>456.458</ele>
        <time>2022-08-25T11:06:18Z</time>
      </trkpt>
      <trkpt lat="42.66904000000001" lon="-1.8674670000000002">
        <ele>456.488</ele>
        <time>2022-08-25T11:06:19Z</time>
      </trkpt>
      <trkpt lat="42.66904400000001" lon="-1.8674960000000003">
        <ele>456.454</ele>
        <time>2022-08-25T11:06:20Z</time>
      </trkpt>
      <trkpt lat="42.669045000000004" lon="-1.8675220000000003">
        <ele>456.496</ele>
        <time>2022-08-25T11:06:21Z</time>
      </trkpt>
      <trkpt lat="42.669046" lon="-1.8675480000000004">
        <ele>456.663</ele>
        <time>2022-08-25T11:06:22Z</time>
      </trkpt>
      <trkpt lat="42.669049" lon="-1.8675750000000004">
        <ele>456.686</ele>
        <time>2022-08-25T11:06:23Z</time>
      </trkpt>
      <trkpt lat="42.669055" lon="-1.8676010000000005">
        <ele>456.612</ele>
        <time>2022-08-25T11:06:24Z</time>
      </trkpt>
      <trkpt lat="42.669064" lon="-1.8676290000000004">
        <ele>456.633</ele>
        <time>2022-08-25T11:06:25Z</time>
      </trkpt>
      <trkpt lat="42.669077" lon="-1.8676560000000004">
        <ele>456.698</ele>
        <time>2022-08-25T11:06:26Z</time>
      </trkpt>
      <trkpt lat="42.669090000000004" lon="-1.8676860000000004">
        <ele>456.615</ele>
        <time>2022-08-25T11:06:27Z</time>
      </trkpt>
      <trkpt lat="42.669102" lon="-1.8677280000000005">
        <ele>456.626</ele>
        <time>2022-08-25T11:06:28Z</time>
      </trkpt>
      <trkpt lat="42.669109" lon="-1.8677600000000005">
        <ele>456.609</ele>
        <time>2022-08-25T11:06:29Z</time>
      </trkpt>
      <trkpt lat="42.669114" lon="-1.8678080000000006">
        <ele>456.610</ele>
        <time>2022-08-25T11:06:30Z</time>
      </trkpt>
      <trkpt lat="42.669126" lon="-1.8678620000000006">
        <ele>456.690</ele>
        <time>2022-08-25T11:06:31Z</time>
      </trkpt>
      <trkpt lat="42.669183" lon="-1.8680360000000005">
        <ele>456.440</ele>
        <time>2022-08-25T11:06:34Z</time>
      </trkpt>
      <trkpt lat="42.669334" lon="-1.8685200000000004">
        <ele>455.456</ele>
        <time>2022-08-25T11:06:41Z</time>
      </trkpt>
      <trkpt lat="42.669368" lon="-1.8686790000000004">
        <ele>454.448</ele>
        <time>2022-08-25T11:06:43Z</time>
      </trkpt>
      <trkpt lat="42.669384" lon="-1.8687600000000004">
        <ele>454.295</ele>
        <time>2022-08-25T11:06:44Z</time>
      </trkpt>
      <trkpt lat="42.669401" lon="-1.8688580000000004">
        <ele>453.838</ele>
        <time>2022-08-25T11:06:45Z</time>
      </trkpt>
      <trkpt lat="42.669411000000004" lon="-1.8689220000000004">
        <ele>453.844</ele>
        <time>2022-08-25T11:06:46Z</time>
      </trkpt>
      <trkpt lat="42.66942100000001" lon="-1.8689980000000004">
        <ele>453.695</ele>
        <time>2022-08-25T11:06:47Z</time>
      </trkpt>
      <trkpt lat="42.669427000000006" lon="-1.8690690000000003">
        <ele>453.213</ele>
        <time>2022-08-25T11:06:48Z</time>
      </trkpt>
      <trkpt lat="42.669427000000006" lon="-1.8691360000000004">
        <ele>453.043</ele>
        <time>2022-08-25T11:06:49Z</time>
      </trkpt>
      <trkpt lat="42.669428" lon="-1.8692000000000004">
        <ele>453.007</ele>
        <time>2022-08-25T11:06:50Z</time>
      </trkpt>
      <trkpt lat="42.669426" lon="-1.8692610000000005">
        <ele>453.009</ele>
        <time>2022-08-25T11:06:51Z</time>
      </trkpt>
      <trkpt lat="42.669424" lon="-1.8693190000000004">
        <ele>453.472</ele>
        <time>2022-08-25T11:06:52Z</time>
      </trkpt>
      <trkpt lat="42.669424" lon="-1.8693770000000003">
        <ele>453.472</ele>
        <time>2022-08-25T11:06:53Z</time>
      </trkpt>
      <trkpt lat="42.669424" lon="-1.8694340000000003">
        <ele>453.482</ele>
        <time>2022-08-25T11:06:54Z</time>
      </trkpt>
      <trkpt lat="42.669425" lon="-1.8694890000000002">
        <ele>453.658</ele>
        <time>2022-08-25T11:06:55Z</time>
      </trkpt>
      <trkpt lat="42.66943" lon="-1.869544">
        <ele>454.080</ele>
        <time>2022-08-25T11:06:56Z</time>
      </trkpt>
      <trkpt lat="42.669430999999996" lon="-1.8695920000000001">
        <ele>454.087</ele>
        <time>2022-08-25T11:06:57Z</time>
      </trkpt>
      <trkpt lat="42.669422999999995" lon="-1.8696340000000002">
        <ele>454.080</ele>
        <time>2022-08-25T11:06:58Z</time>
      </trkpt>
      <trkpt lat="42.669411999999994" lon="-1.8696720000000002">
        <ele>454.236</ele>
        <time>2022-08-25T11:06:59Z</time>
      </trkpt>
      <trkpt lat="42.669397" lon="-1.8697070000000002">
        <ele>454.237</ele>
        <time>2022-08-25T11:07:00Z</time>
      </trkpt>
      <trkpt lat="42.669382999999996" lon="-1.8697430000000002">
        <ele>454.424</ele>
        <time>2022-08-25T11:07:01Z</time>
      </trkpt>
      <trkpt lat="42.669343999999995" lon="-1.8698910000000002">
        <ele>454.804</ele>
        <time>2022-08-25T11:07:04Z</time>
      </trkpt>
      <trkpt lat="42.66934" lon="-1.8700170000000003">
        <ele>455.214</ele>
        <time>2022-08-25T11:07:06Z</time>
      </trkpt>
      <trkpt lat="42.669346" lon="-1.8700740000000002">
        <ele>455.209</ele>
        <time>2022-08-25T11:07:07Z</time>
      </trkpt>
      <trkpt lat="42.669354" lon="-1.8701330000000003">
        <ele>455.473</ele>
        <time>2022-08-25T11:07:08Z</time>
      </trkpt>
      <trkpt lat="42.669377" lon="-1.8702390000000002">
        <ele>455.273</ele>
        <time>2022-08-25T11:07:10Z</time>
      </trkpt>
      <trkpt lat="42.669447" lon="-1.8704610000000002">
        <ele>455.073</ele>
        <time>2022-08-25T11:07:14Z</time>
      </trkpt>
      <trkpt lat="42.669509" lon="-1.8706330000000002">
        <ele>454.879</ele>
        <time>2022-08-25T11:07:17Z</time>
      </trkpt>
      <trkpt lat="42.66966" lon="-1.8710540000000002">
        <ele>454.231</ele>
        <time>2022-08-25T11:07:24Z</time>
      </trkpt>
      <trkpt lat="42.669799" lon="-1.8713720000000003">
        <ele>454.048</ele>
        <time>2022-08-25T11:07:29Z</time>
      </trkpt>
      <trkpt lat="42.669832" lon="-1.8714270000000002">
        <ele>454.071</ele>
        <time>2022-08-25T11:07:30Z</time>
      </trkpt>
      <trkpt lat="42.669864" lon="-1.8714790000000001">
        <ele>454.037</ele>
        <time>2022-08-25T11:07:31Z</time>
      </trkpt>
      <trkpt lat="42.669900999999996" lon="-1.871523">
        <ele>454.098</ele>
        <time>2022-08-25T11:07:32Z</time>
      </trkpt>
      <trkpt lat="42.669934999999995" lon="-1.871566">
        <ele>453.821</ele>
        <time>2022-08-25T11:07:33Z</time>
      </trkpt>
      <trkpt lat="42.669959" lon="-1.8716110000000001">
        <ele>453.641</ele>
        <time>2022-08-25T11:07:34Z</time>
      </trkpt>
      <trkpt lat="42.669975" lon="-1.8716620000000002">
        <ele>453.605</ele>
        <time>2022-08-25T11:07:35Z</time>
      </trkpt>
      <trkpt lat="42.669987" lon="-1.871717">
        <ele>453.609</ele>
        <time>2022-08-25T11:07:36Z</time>
      </trkpt>
      <trkpt lat="42.669997" lon="-1.871774">
        <ele>453.653</ele>
        <time>2022-08-25T11:07:37Z</time>
      </trkpt>
      <trkpt lat="42.670008" lon="-1.871833">
        <ele>453.283</ele>
        <time>2022-08-25T11:07:38Z</time>
      </trkpt>
      <trkpt lat="42.67002" lon="-1.87189">
        <ele>453.083</ele>
        <time>2022-08-25T11:07:39Z</time>
      </trkpt>
      <trkpt lat="42.670031" lon="-1.871945">
        <ele>453.039</ele>
        <time>2022-08-25T11:07:40Z</time>
      </trkpt>
      <trkpt lat="42.670039" lon="-1.871999">
        <ele>452.861</ele>
        <time>2022-08-25T11:07:41Z</time>
      </trkpt>
      <trkpt lat="42.670053" lon="-1.872061">
        <ele>452.898</ele>
        <time>2022-08-25T11:07:42Z</time>
      </trkpt>
      <trkpt lat="42.670061000000004" lon="-1.8720999999999999">
        <ele>452.881</ele>
        <time>2022-08-25T11:07:43Z</time>
      </trkpt>
      <trkpt lat="42.670072000000005" lon="-1.8721489999999998">
        <ele>452.687</ele>
        <time>2022-08-25T11:07:44Z</time>
      </trkpt>
      <trkpt lat="42.670084" lon="-1.8721959999999997">
        <ele>452.688</ele>
        <time>2022-08-25T11:07:45Z</time>
      </trkpt>
      <trkpt lat="42.670094000000006" lon="-1.8722429999999997">
        <ele>452.676</ele>
        <time>2022-08-25T11:07:46Z</time>
      </trkpt>
      <trkpt lat="42.67010500000001" lon="-1.8722869999999996">
        <ele>452.490</ele>
        <time>2022-08-25T11:07:47Z</time>
      </trkpt>
      <trkpt lat="42.67011500000001" lon="-1.8723309999999995">
        <ele>452.419</ele>
        <time>2022-08-25T11:07:48Z</time>
      </trkpt>
      <trkpt lat="42.67012700000001" lon="-1.8723719999999995">
        <ele>452.409</ele>
        <time>2022-08-25T11:07:49Z</time>
      </trkpt>
      <trkpt lat="42.67013700000001" lon="-1.8724099999999995">
        <ele>452.688</ele>
        <time>2022-08-25T11:07:50Z</time>
      </trkpt>
      <trkpt lat="42.67014600000001" lon="-1.8724459999999994">
        <ele>452.658</ele>
        <time>2022-08-25T11:07:51Z</time>
      </trkpt>
      <trkpt lat="42.670153000000006" lon="-1.8724829999999995">
        <ele>452.678</ele>
        <time>2022-08-25T11:07:52Z</time>
      </trkpt>
      <trkpt lat="42.670184000000006" lon="-1.8726029999999994">
        <ele>453.074</ele>
        <time>2022-08-25T11:07:55Z</time>
      </trkpt>
      <trkpt lat="42.670193000000005" lon="-1.8726449999999994">
        <ele>453.286</ele>
        <time>2022-08-25T11:07:56Z</time>
      </trkpt>
      <trkpt lat="42.6702" lon="-1.8726859999999994">
        <ele>453.243</ele>
        <time>2022-08-25T11:07:57Z</time>
      </trkpt>
      <trkpt lat="42.670216" lon="-1.8728089999999995">
        <ele>453.256</ele>
        <time>2022-08-25T11:08:00Z</time>
      </trkpt>
      <trkpt lat="42.670253" lon="-1.8729839999999995">
        <ele>452.852</ele>
        <time>2022-08-25T11:08:04Z</time>
      </trkpt>
      <trkpt lat="42.670389" lon="-1.8732159999999995">
        <ele>452.653</ele>
        <time>2022-08-25T11:08:10Z</time>
      </trkpt>
      <trkpt lat="42.670425" lon="-1.8732589999999996">
        <ele>452.614</ele>
        <time>2022-08-25T11:08:11Z</time>
      </trkpt>
      <trkpt lat="42.670516" lon="-1.8734459999999995">
        <ele>452.654</ele>
        <time>2022-08-25T11:08:15Z</time>
      </trkpt>
      <trkpt lat="42.670533999999996" lon="-1.8735019999999996">
        <ele>452.209</ele>
        <time>2022-08-25T11:08:16Z</time>
      </trkpt>
      <trkpt lat="42.670548999999994" lon="-1.8735579999999996">
        <ele>452.209</ele>
        <time>2022-08-25T11:08:17Z</time>
      </trkpt>
      <trkpt lat="42.670562999999994" lon="-1.8736149999999996">
        <ele>451.892</ele>
        <time>2022-08-25T11:08:18Z</time>
      </trkpt>
      <trkpt lat="42.670595999999996" lon="-1.8737939999999995">
        <ele>451.462</ele>
        <time>2022-08-25T11:08:21Z</time>
      </trkpt>
      <trkpt lat="42.670714" lon="-1.8742609999999995">
        <ele>450.872</ele>
        <time>2022-08-25T11:08:28Z</time>
      </trkpt>
      <trkpt lat="42.670736999999995" lon="-1.8743349999999994">
        <ele>450.648</ele>
        <time>2022-08-25T11:08:29Z</time>
      </trkpt>
      <trkpt lat="42.67078299999999" lon="-1.8744949999999994">
        <ele>449.640</ele>
        <time>2022-08-25T11:08:31Z</time>
      </trkpt>
      <trkpt lat="42.67080599999999" lon="-1.8745799999999992">
        <ele>449.027</ele>
        <time>2022-08-25T11:08:32Z</time>
      </trkpt>
      <trkpt lat="42.670843999999995" lon="-1.8747609999999992">
        <ele>448.430</ele>
        <time>2022-08-25T11:08:34Z</time>
      </trkpt>
      <trkpt lat="42.670857" lon="-1.8748539999999991">
        <ele>447.876</ele>
        <time>2022-08-25T11:08:35Z</time>
      </trkpt>
      <trkpt lat="42.670868" lon="-1.8749429999999991">
        <ele>447.857</ele>
        <time>2022-08-25T11:08:36Z</time>
      </trkpt>
      <trkpt lat="42.670878" lon="-1.8750319999999991">
        <ele>447.495</ele>
        <time>2022-08-25T11:08:37Z</time>
      </trkpt>
      <trkpt lat="42.670885" lon="-1.8751229999999992">
        <ele>447.249</ele>
        <time>2022-08-25T11:08:38Z</time>
      </trkpt>
      <trkpt lat="42.670895" lon="-1.8752109999999993">
        <ele>447.023</ele>
        <time>2022-08-25T11:08:39Z</time>
      </trkpt>
      <trkpt lat="42.670906" lon="-1.8752959999999992">
        <ele>446.809</ele>
        <time>2022-08-25T11:08:40Z</time>
      </trkpt>
      <trkpt lat="42.670918" lon="-1.8753799999999992">
        <ele>446.680</ele>
        <time>2022-08-25T11:08:41Z</time>
      </trkpt>
      <trkpt lat="42.670929" lon="-1.8754639999999991">
        <ele>446.260</ele>
        <time>2022-08-25T11:08:42Z</time>
      </trkpt>
      <trkpt lat="42.67094" lon="-1.875547999999999">
        <ele>446.050</ele>
        <time>2022-08-25T11:08:43Z</time>
      </trkpt>
      <trkpt lat="42.670951" lon="-1.875626999999999">
        <ele>445.866</ele>
        <time>2022-08-25T11:08:44Z</time>
      </trkpt>
      <trkpt lat="42.670962" lon="-1.875701999999999">
        <ele>445.438</ele>
        <time>2022-08-25T11:08:45Z</time>
      </trkpt>
      <trkpt lat="42.670977" lon="-1.8757739999999992">
        <ele>445.445</ele>
        <time>2022-08-25T11:08:46Z</time>
      </trkpt>
      <trkpt lat="42.670997" lon="-1.8758509999999993">
        <ele>445.298</ele>
        <time>2022-08-25T11:08:47Z</time>
      </trkpt>
      <trkpt lat="42.671012" lon="-1.8758959999999993">
        <ele>445.224</ele>
        <time>2022-08-25T11:08:48Z</time>
      </trkpt>
      <trkpt lat="42.671029" lon="-1.8759529999999993">
        <ele>445.055</ele>
        <time>2022-08-25T11:08:49Z</time>
      </trkpt>
      <trkpt lat="42.671045" lon="-1.8760069999999993">
        <ele>444.854</ele>
        <time>2022-08-25T11:08:50Z</time>
      </trkpt>
      <trkpt lat="42.671061" lon="-1.8760699999999992">
        <ele>445.056</ele>
        <time>2022-08-25T11:08:51Z</time>
      </trkpt>
      <trkpt lat="42.671071000000005" lon="-1.8761089999999991">
        <ele>444.811</ele>
        <time>2022-08-25T11:08:52Z</time>
      </trkpt>
      <trkpt lat="42.671089" lon="-1.8761699999999992">
        <ele>444.809</ele>
        <time>2022-08-25T11:08:53Z</time>
      </trkpt>
      <trkpt lat="42.671101" lon="-1.8762099999999993">
        <ele>444.666</ele>
        <time>2022-08-25T11:08:54Z</time>
      </trkpt>
      <trkpt lat="42.671116" lon="-1.8762619999999992">
        <ele>444.676</ele>
        <time>2022-08-25T11:08:55Z</time>
      </trkpt>
      <trkpt lat="42.67113" lon="-1.8763139999999991">
        <ele>444.676</ele>
        <time>2022-08-25T11:08:56Z</time>
      </trkpt>
      <trkpt lat="42.671143" lon="-1.8763639999999993">
        <ele>444.642</ele>
        <time>2022-08-25T11:08:57Z</time>
      </trkpt>
      <trkpt lat="42.671172" lon="-1.8764669999999992">
        <ele>444.664</ele>
        <time>2022-08-25T11:08:59Z</time>
      </trkpt>
      <trkpt lat="42.671185" lon="-1.8765139999999991">
        <ele>444.681</ele>
        <time>2022-08-25T11:09:00Z</time>
      </trkpt>
      <trkpt lat="42.671197" lon="-1.876560999999999">
        <ele>445.084</ele>
        <time>2022-08-25T11:09:01Z</time>
      </trkpt>
      <trkpt lat="42.671208" lon="-1.876604999999999">
        <ele>445.040</ele>
        <time>2022-08-25T11:09:02Z</time>
      </trkpt>
      <trkpt lat="42.671217" lon="-1.876648999999999">
        <ele>445.051</ele>
        <time>2022-08-25T11:09:03Z</time>
      </trkpt>
      <trkpt lat="42.67123" lon="-1.876790999999999">
        <ele>445.267</ele>
        <time>2022-08-25T11:09:06Z</time>
      </trkpt>
      <trkpt lat="42.671227" lon="-1.876843999999999">
        <ele>445.281</ele>
        <time>2022-08-25T11:09:07Z</time>
      </trkpt>
      <trkpt lat="42.671225" lon="-1.876878999999999">
        <ele>445.219</ele>
        <time>2022-08-25T11:09:08Z</time>
      </trkpt>
      <trkpt lat="42.67122" lon="-1.8769189999999991">
        <ele>445.409</ele>
        <time>2022-08-25T11:09:09Z</time>
      </trkpt>
      <trkpt lat="42.671197" lon="-1.8770369999999992">
        <ele>445.857</ele>
        <time>2022-08-25T11:09:12Z</time>
      </trkpt>
      <trkpt lat="42.671184" lon="-1.8770719999999992">
        <ele>445.437</ele>
        <time>2022-08-25T11:09:13Z</time>
      </trkpt>
      <trkpt lat="42.67117" lon="-1.877110999999999">
        <ele>445.437</ele>
        <time>2022-08-25T11:09:14Z</time>
      </trkpt>
      <trkpt lat="42.671152" lon="-1.8771779999999991">
        <ele>445.653</ele>
        <time>2022-08-25T11:09:16Z</time>
      </trkpt>
      <trkpt lat="42.671144" lon="-1.877202999999999">
        <ele>445.635</ele>
        <time>2022-08-25T11:09:17Z</time>
      </trkpt>
      <trkpt lat="42.671133999999995" lon="-1.877233999999999">
        <ele>445.832</ele>
        <time>2022-08-25T11:09:18Z</time>
      </trkpt>
      <trkpt lat="42.671125999999994" lon="-1.877263999999999">
        <ele>445.855</ele>
        <time>2022-08-25T11:09:19Z</time>
      </trkpt>
      <trkpt lat="42.67111799999999" lon="-1.8772949999999988">
        <ele>445.871</ele>
        <time>2022-08-25T11:09:20Z</time>
      </trkpt>
      <trkpt lat="42.671108999999994" lon="-1.8773229999999987">
        <ele>445.832</ele>
        <time>2022-08-25T11:09:21Z</time>
      </trkpt>
      <trkpt lat="42.671099999999996" lon="-1.8773519999999988">
        <ele>445.855</ele>
        <time>2022-08-25T11:09:22Z</time>
      </trkpt>
      <trkpt lat="42.671091" lon="-1.8773769999999987">
        <ele>445.807</ele>
        <time>2022-08-25T11:09:23Z</time>
      </trkpt>
      <trkpt lat="42.671085" lon="-1.8774019999999987">
        <ele>445.817</ele>
        <time>2022-08-25T11:09:24Z</time>
      </trkpt>
      <trkpt lat="42.671026" lon="-1.8776069999999987">
        <ele>445.609</ele>
        <time>2022-08-25T11:09:30Z</time>
      </trkpt>
      <trkpt lat="42.671009999999995" lon="-1.8776569999999988">
        <ele>445.666</ele>
        <time>2022-08-25T11:09:31Z</time>
      </trkpt>
      <trkpt lat="42.670959999999994" lon="-1.8778479999999989">
        <ele>445.036</ele>
        <time>2022-08-25T11:09:34Z</time>
      </trkpt>
      <trkpt lat="42.67094699999999" lon="-1.8779919999999988">
        <ele>444.656</ele>
        <time>2022-08-25T11:09:36Z</time>
      </trkpt>
      <trkpt lat="42.67094399999999" lon="-1.8781349999999988">
        <ele>444.412</ele>
        <time>2022-08-25T11:09:38Z</time>
      </trkpt>
      <trkpt lat="42.67094699999999" lon="-1.8782049999999988">
        <ele>444.484</ele>
        <time>2022-08-25T11:09:39Z</time>
      </trkpt>
      <trkpt lat="42.67095099999999" lon="-1.8782719999999988">
        <ele>444.261</ele>
        <time>2022-08-25T11:09:40Z</time>
      </trkpt>
      <trkpt lat="42.67095999999999" lon="-1.8783349999999988">
        <ele>444.224</ele>
        <time>2022-08-25T11:09:41Z</time>
      </trkpt>
      <trkpt lat="42.671005999999984" lon="-1.8785409999999987">
        <ele>443.850</ele>
        <time>2022-08-25T11:09:44Z</time>
      </trkpt>
      <trkpt lat="42.671022999999984" lon="-1.8786139999999987">
        <ele>443.411</ele>
        <time>2022-08-25T11:09:45Z</time>
      </trkpt>
      <trkpt lat="42.67103499999998" lon="-1.8786899999999986">
        <ele>442.888</ele>
        <time>2022-08-25T11:09:46Z</time>
      </trkpt>
      <trkpt lat="42.671092999999985" lon="-1.8790469999999986">
        <ele>441.824</ele>
        <time>2022-08-25T11:09:50Z</time>
      </trkpt>
      <trkpt lat="42.671117999999986" lon="-1.8792319999999987">
        <ele>440.826</ele>
        <time>2022-08-25T11:09:52Z</time>
      </trkpt>
      <trkpt lat="42.67113299999998" lon="-1.8793199999999988">
        <ele>440.009</ele>
        <time>2022-08-25T11:09:53Z</time>
      </trkpt>
      <trkpt lat="42.67114699999998" lon="-1.8794059999999988">
        <ele>439.679</ele>
        <time>2022-08-25T11:09:54Z</time>
      </trkpt>
      <trkpt lat="42.67116499999998" lon="-1.8794849999999987">
        <ele>439.419</ele>
        <time>2022-08-25T11:09:55Z</time>
      </trkpt>
      <trkpt lat="42.671188999999984" lon="-1.8795579999999987">
        <ele>439.279</ele>
        <time>2022-08-25T11:09:56Z</time>
      </trkpt>
      <trkpt lat="42.67121799999998" lon="-1.8796259999999987">
        <ele>439.085</ele>
        <time>2022-08-25T11:09:57Z</time>
      </trkpt>
      <trkpt lat="42.671247999999984" lon="-1.8796899999999988">
        <ele>438.887</ele>
        <time>2022-08-25T11:09:58Z</time>
      </trkpt>
      <trkpt lat="42.671278999999984" lon="-1.8797499999999987">
        <ele>438.814</ele>
        <time>2022-08-25T11:09:59Z</time>
      </trkpt>
      <trkpt lat="42.671309999999984" lon="-1.8798089999999987">
        <ele>438.857</ele>
        <time>2022-08-25T11:10:00Z</time>
      </trkpt>
      <trkpt lat="42.671342999999986" lon="-1.8798669999999986">
        <ele>438.873</ele>
        <time>2022-08-25T11:10:01Z</time>
      </trkpt>
      <trkpt lat="42.67137299999999" lon="-1.8799209999999986">
        <ele>438.864</ele>
        <time>2022-08-25T11:10:02Z</time>
      </trkpt>
      <trkpt lat="42.67140999999999" lon="-1.8799809999999986">
        <ele>438.825</ele>
        <time>2022-08-25T11:10:03Z</time>
      </trkpt>
      <trkpt lat="42.67143399999999" lon="-1.8800189999999986">
        <ele>439.026</ele>
        <time>2022-08-25T11:10:04Z</time>
      </trkpt>
      <trkpt lat="42.67146499999999" lon="-1.8800659999999985">
        <ele>439.208</ele>
        <time>2022-08-25T11:10:05Z</time>
      </trkpt>
      <trkpt lat="42.67149399999999" lon="-1.8801119999999985">
        <ele>439.409</ele>
        <time>2022-08-25T11:10:06Z</time>
      </trkpt>
      <trkpt lat="42.671522999999986" lon="-1.8801569999999985">
        <ele>439.443</ele>
        <time>2022-08-25T11:10:07Z</time>
      </trkpt>
      <trkpt lat="42.67155099999999" lon="-1.8801999999999985">
        <ele>439.433</ele>
        <time>2022-08-25T11:10:08Z</time>
      </trkpt>
      <trkpt lat="42.67157799999999" lon="-1.8802389999999984">
        <ele>439.483</ele>
        <time>2022-08-25T11:10:09Z</time>
      </trkpt>
      <trkpt lat="42.67160599999999" lon="-1.8802779999999983">
        <ele>439.669</ele>
        <time>2022-08-25T11:10:10Z</time>
      </trkpt>
      <trkpt lat="42.67163199999999" lon="-1.8803149999999984">
        <ele>439.661</ele>
        <time>2022-08-25T11:10:11Z</time>
      </trkpt>
      <trkpt lat="42.67165699999999" lon="-1.8803489999999985">
        <ele>439.628</ele>
        <time>2022-08-25T11:10:12Z</time>
      </trkpt>
      <trkpt lat="42.67168099999999" lon="-1.8803839999999985">
        <ele>439.611</ele>
        <time>2022-08-25T11:10:13Z</time>
      </trkpt>
      <trkpt lat="42.67170199999999" lon="-1.8804209999999986">
        <ele>439.867</ele>
        <time>2022-08-25T11:10:14Z</time>
      </trkpt>
      <trkpt lat="42.67171899999999" lon="-1.8804579999999986">
        <ele>440.068</ele>
        <time>2022-08-25T11:10:15Z</time>
      </trkpt>
      <trkpt lat="42.67173599999999" lon="-1.8804939999999986">
        <ele>440.068</ele>
        <time>2022-08-25T11:10:16Z</time>
      </trkpt>
      <trkpt lat="42.671750999999986" lon="-1.8805239999999985">
        <ele>440.242</ele>
        <time>2022-08-25T11:10:17Z</time>
      </trkpt>
      <trkpt lat="42.671764999999986" lon="-1.8805529999999986">
        <ele>440.426</ele>
        <time>2022-08-25T11:10:18Z</time>
      </trkpt>
      <trkpt lat="42.67177499999999" lon="-1.8805809999999985">
        <ele>440.409</ele>
        <time>2022-08-25T11:10:19Z</time>
      </trkpt>
      <trkpt lat="42.67178399999999" lon="-1.8806089999999984">
        <ele>440.667</ele>
        <time>2022-08-25T11:10:20Z</time>
      </trkpt>
      <trkpt lat="42.67179499999999" lon="-1.8806339999999984">
        <ele>440.637</ele>
        <time>2022-08-25T11:10:21Z</time>
      </trkpt>
      <trkpt lat="42.67183299999999" lon="-1.8807199999999984">
        <ele>440.827</ele>
        <time>2022-08-25T11:10:24Z</time>
      </trkpt>
      <trkpt lat="42.671845999999995" lon="-1.8807459999999985">
        <ele>441.083</ele>
        <time>2022-08-25T11:10:25Z</time>
      </trkpt>
      <trkpt lat="42.671862999999995" lon="-1.8807769999999984">
        <ele>441.255</ele>
        <time>2022-08-25T11:10:26Z</time>
      </trkpt>
      <trkpt lat="42.671969999999995" lon="-1.8809749999999983">
        <ele>441.622</ele>
        <time>2022-08-25T11:10:33Z</time>
      </trkpt>
      <trkpt lat="42.671989999999994" lon="-1.8810029999999982">
        <ele>441.635</ele>
        <time>2022-08-25T11:10:34Z</time>
      </trkpt>
      <trkpt lat="42.67202999999999" lon="-1.8810519999999982">
        <ele>441.681</ele>
        <time>2022-08-25T11:10:36Z</time>
      </trkpt>
      <trkpt lat="42.672070999999995" lon="-1.8810969999999982">
        <ele>441.862</ele>
        <time>2022-08-25T11:10:38Z</time>
      </trkpt>
      <trkpt lat="42.67209199999999" lon="-1.8811209999999983">
        <ele>441.898</ele>
        <time>2022-08-25T11:10:39Z</time>
      </trkpt>
      <trkpt lat="42.67211199999999" lon="-1.8811449999999983">
        <ele>441.815</ele>
        <time>2022-08-25T11:10:40Z</time>
      </trkpt>
      <trkpt lat="42.67213199999999" lon="-1.8811709999999984">
        <ele>441.826</ele>
        <time>2022-08-25T11:10:41Z</time>
      </trkpt>
      <trkpt lat="42.67224399999999" lon="-1.8812799999999983">
        <ele>442.409</ele>
        <time>2022-08-25T11:10:46Z</time>
      </trkpt>
      <trkpt lat="42.672304999999994" lon="-1.8813519999999984">
        <ele>443.070</ele>
        <time>2022-08-25T11:10:49Z</time>
      </trkpt>
      <trkpt lat="42.67232299999999" lon="-1.8813769999999983">
        <ele>443.080</ele>
        <time>2022-08-25T11:10:50Z</time>
      </trkpt>
      <trkpt lat="42.672400999999994" lon="-1.8814709999999983">
        <ele>443.470</ele>
        <time>2022-08-25T11:10:54Z</time>
      </trkpt>
      <trkpt lat="42.67242099999999" lon="-1.8814979999999983">
        <ele>443.426</ele>
        <time>2022-08-25T11:10:55Z</time>
      </trkpt>
      <trkpt lat="42.672461999999996" lon="-1.8815499999999983">
        <ele>443.648</ele>
        <time>2022-08-25T11:10:57Z</time>
      </trkpt>
      <trkpt lat="42.672481999999995" lon="-1.8815779999999982">
        <ele>443.675</ele>
        <time>2022-08-25T11:10:58Z</time>
      </trkpt>
      <trkpt lat="42.672599" lon="-1.8817259999999982">
        <ele>444.258</ele>
        <time>2022-08-25T11:11:04Z</time>
      </trkpt>
      <trkpt lat="42.67264" lon="-1.8817849999999983">
        <ele>444.454</ele>
        <time>2022-08-25T11:11:06Z</time>
      </trkpt>
      <trkpt lat="42.672739" lon="-1.8819309999999982">
        <ele>444.825</ele>
        <time>2022-08-25T11:11:11Z</time>
      </trkpt>
      <trkpt lat="42.672758" lon="-1.8819579999999982">
        <ele>445.036</ele>
        <time>2022-08-25T11:11:12Z</time>
      </trkpt>
      <trkpt lat="42.672782000000005" lon="-1.8819919999999983">
        <ele>445.017</ele>
        <time>2022-08-25T11:11:13Z</time>
      </trkpt>
      <trkpt lat="42.672817" lon="-1.8820439999999983">
        <ele>445.018</ele>
        <time>2022-08-25T11:11:15Z</time>
      </trkpt>
      <trkpt lat="42.672945" lon="-1.8822219999999983">
        <ele>445.209</ele>
        <time>2022-08-25T11:11:21Z</time>
      </trkpt>
      <trkpt lat="42.672965" lon="-1.8822489999999983">
        <ele>445.274</ele>
        <time>2022-08-25T11:11:22Z</time>
      </trkpt>
      <trkpt lat="42.672987" lon="-1.8822769999999982">
        <ele>445.484</ele>
        <time>2022-08-25T11:11:23Z</time>
      </trkpt>
      <trkpt lat="42.673025" lon="-1.882323999999998">
        <ele>445.864</ele>
        <time>2022-08-25T11:11:25Z</time>
      </trkpt>
      <trkpt lat="42.673048" lon="-1.882353999999998">
        <ele>446.090</ele>
        <time>2022-08-25T11:11:26Z</time>
      </trkpt>
      <trkpt lat="42.673068" lon="-1.882377999999998">
        <ele>446.472</ele>
        <time>2022-08-25T11:11:27Z</time>
      </trkpt>
      <trkpt lat="42.673128" lon="-1.8824499999999982">
        <ele>446.899</ele>
        <time>2022-08-25T11:11:30Z</time>
      </trkpt>
      <trkpt lat="42.673156999999996" lon="-1.8824749999999981">
        <ele>447.072</ele>
        <time>2022-08-25T11:11:31Z</time>
      </trkpt>
      <trkpt lat="42.67317499999999" lon="-1.882494999999998">
        <ele>447.248</ele>
        <time>2022-08-25T11:11:32Z</time>
      </trkpt>
      <trkpt lat="42.67318999999999" lon="-1.882513999999998">
        <ele>447.469</ele>
        <time>2022-08-25T11:11:33Z</time>
      </trkpt>
      <trkpt lat="42.673202999999994" lon="-1.882534999999998">
        <ele>447.442</ele>
        <time>2022-08-25T11:11:34Z</time>
      </trkpt>
      <trkpt lat="42.673210999999995" lon="-1.882554999999998">
        <ele>447.422</ele>
        <time>2022-08-25T11:11:35Z</time>
      </trkpt>
      <trkpt lat="42.67322299999999" lon="-1.882573999999998">
        <ele>447.614</ele>
        <time>2022-08-25T11:11:36Z</time>
      </trkpt>
      <trkpt lat="42.67323699999999" lon="-1.882592999999998">
        <ele>447.809</ele>
        <time>2022-08-25T11:11:37Z</time>
      </trkpt>
      <trkpt lat="42.673252999999995" lon="-1.8826129999999979">
        <ele>447.895</ele>
        <time>2022-08-25T11:11:38Z</time>
      </trkpt>
      <trkpt lat="42.67326799999999" lon="-1.882630999999998">
        <ele>447.855</ele>
        <time>2022-08-25T11:11:39Z</time>
      </trkpt>
      <trkpt lat="42.67328299999999" lon="-1.8826509999999979">
        <ele>447.855</ele>
        <time>2022-08-25T11:11:40Z</time>
      </trkpt>
      <trkpt lat="42.67329899999999" lon="-1.882673999999998">
        <ele>448.071</ele>
        <time>2022-08-25T11:11:41Z</time>
      </trkpt>
      <trkpt lat="42.67331599999999" lon="-1.882697999999998">
        <ele>448.223</ele>
        <time>2022-08-25T11:11:42Z</time>
      </trkpt>
      <trkpt lat="42.67333599999999" lon="-1.882718999999998">
        <ele>448.480</ele>
        <time>2022-08-25T11:11:43Z</time>
      </trkpt>
      <trkpt lat="42.67335699999999" lon="-1.882737999999998">
        <ele>448.633</ele>
        <time>2022-08-25T11:11:44Z</time>
      </trkpt>
      <trkpt lat="42.673377999999985" lon="-1.882755999999998">
        <ele>448.639</ele>
        <time>2022-08-25T11:11:45Z</time>
      </trkpt>
      <trkpt lat="42.67339899999998" lon="-1.882777999999998">
        <ele>448.890</ele>
        <time>2022-08-25T11:11:46Z</time>
      </trkpt>
      <trkpt lat="42.673417999999984" lon="-1.8827989999999981">
        <ele>449.064</ele>
        <time>2022-08-25T11:11:47Z</time>
      </trkpt>
      <trkpt lat="42.67343799999998" lon="-1.8828169999999982">
        <ele>449.206</ele>
        <time>2022-08-25T11:11:48Z</time>
      </trkpt>
      <trkpt lat="42.673453999999985" lon="-1.8828319999999983">
        <ele>449.416</ele>
        <time>2022-08-25T11:11:49Z</time>
      </trkpt>
      <trkpt lat="42.673479999999984" lon="-1.8828539999999983">
        <ele>449.409</ele>
        <time>2022-08-25T11:11:50Z</time>
      </trkpt>
      <trkpt lat="42.673501999999985" lon="-1.8828689999999983">
        <ele>449.647</ele>
        <time>2022-08-25T11:11:51Z</time>
      </trkpt>
      <trkpt lat="42.67351999999998" lon="-1.8828839999999984">
        <ele>449.687</ele>
        <time>2022-08-25T11:11:52Z</time>
      </trkpt>
      <trkpt lat="42.673538999999984" lon="-1.8828999999999985">
        <ele>449.637</ele>
        <time>2022-08-25T11:11:53Z</time>
      </trkpt>
      <trkpt lat="42.673557999999986" lon="-1.8829179999999985">
        <ele>449.623</ele>
        <time>2022-08-25T11:11:54Z</time>
      </trkpt>
      <trkpt lat="42.67357099999999" lon="-1.8829319999999985">
        <ele>449.695</ele>
        <time>2022-08-25T11:11:55Z</time>
      </trkpt>
      <trkpt lat="42.67359299999999" lon="-1.8829519999999984">
        <ele>449.622</ele>
        <time>2022-08-25T11:11:56Z</time>
      </trkpt>
      <trkpt lat="42.67361299999999" lon="-1.8829679999999984">
        <ele>449.675</ele>
        <time>2022-08-25T11:11:57Z</time>
      </trkpt>
      <trkpt lat="42.67362899999999" lon="-1.8829819999999984">
        <ele>449.631</ele>
        <time>2022-08-25T11:11:58Z</time>
      </trkpt>
      <trkpt lat="42.67364999999999" lon="-1.8829989999999983">
        <ele>449.682</ele>
        <time>2022-08-25T11:11:59Z</time>
      </trkpt>
      <trkpt lat="42.67367499999999" lon="-1.8830269999999982">
        <ele>449.649</ele>
        <time>2022-08-25T11:12:00Z</time>
      </trkpt>
      <trkpt lat="42.67369499999999" lon="-1.8830419999999983">
        <ele>449.602</ele>
        <time>2022-08-25T11:12:01Z</time>
      </trkpt>
      <trkpt lat="42.67371499999999" lon="-1.8830599999999984">
        <ele>449.622</ele>
        <time>2022-08-25T11:12:02Z</time>
      </trkpt>
      <trkpt lat="42.67373099999999" lon="-1.8830739999999984">
        <ele>449.809</ele>
        <time>2022-08-25T11:12:03Z</time>
      </trkpt>
      <trkpt lat="42.67379499999999" lon="-1.8831349999999984">
        <ele>450.065</ele>
        <time>2022-08-25T11:12:06Z</time>
      </trkpt>
      <trkpt lat="42.67381399999999" lon="-1.8831539999999984">
        <ele>450.025</ele>
        <time>2022-08-25T11:12:07Z</time>
      </trkpt>
      <trkpt lat="42.67383399999999" lon="-1.8831739999999983">
        <ele>450.465</ele>
        <time>2022-08-25T11:12:08Z</time>
      </trkpt>
      <trkpt lat="42.67386899999999" lon="-1.8832179999999983">
        <ele>450.881</ele>
        <time>2022-08-25T11:12:10Z</time>
      </trkpt>
      <trkpt lat="42.67388499999999" lon="-1.8832399999999982">
        <ele>450.813</ele>
        <time>2022-08-25T11:12:11Z</time>
      </trkpt>
      <trkpt lat="42.673900999999994" lon="-1.8832609999999983">
        <ele>451.040</ele>
        <time>2022-08-25T11:12:12Z</time>
      </trkpt>
      <trkpt lat="42.673916999999996" lon="-1.8832819999999983">
        <ele>451.253</ele>
        <time>2022-08-25T11:12:13Z</time>
      </trkpt>
      <trkpt lat="42.673930999999996" lon="-1.8833029999999984">
        <ele>451.439</ele>
        <time>2022-08-25T11:12:14Z</time>
      </trkpt>
      <trkpt lat="42.673945999999994" lon="-1.8833259999999985">
        <ele>451.680</ele>
        <time>2022-08-25T11:12:15Z</time>
      </trkpt>
      <trkpt lat="42.67396099999999" lon="-1.8833479999999985">
        <ele>451.625</ele>
        <time>2022-08-25T11:12:16Z</time>
      </trkpt>
      <trkpt lat="42.67397499999999" lon="-1.8833659999999985">
        <ele>451.826</ele>
        <time>2022-08-25T11:12:17Z</time>
      </trkpt>
      <trkpt lat="42.67398899999999" lon="-1.8833849999999985">
        <ele>451.808</ele>
        <time>2022-08-25T11:12:18Z</time>
      </trkpt>
      <trkpt lat="42.67400399999999" lon="-1.8834039999999985">
        <ele>451.809</ele>
        <time>2022-08-25T11:12:19Z</time>
      </trkpt>
      <trkpt lat="42.67401899999999" lon="-1.8834209999999985">
        <ele>452.273</ele>
        <time>2022-08-25T11:12:20Z</time>
      </trkpt>
      <trkpt lat="42.67402999999999" lon="-1.8834389999999985">
        <ele>452.253</ele>
        <time>2022-08-25T11:12:21Z</time>
      </trkpt>
      <trkpt lat="42.67404299999999" lon="-1.8834589999999984">
        <ele>452.423</ele>
        <time>2022-08-25T11:12:22Z</time>
      </trkpt>
      <trkpt lat="42.674052999999994" lon="-1.8834789999999983">
        <ele>452.449</ele>
        <time>2022-08-25T11:12:23Z</time>
      </trkpt>
      <trkpt lat="42.67406499999999" lon="-1.8834979999999983">
        <ele>452.671</ele>
        <time>2022-08-25T11:12:24Z</time>
      </trkpt>
      <trkpt lat="42.67407599999999" lon="-1.8835169999999983">
        <ele>452.838</ele>
        <time>2022-08-25T11:12:25Z</time>
      </trkpt>
      <trkpt lat="42.67408699999999" lon="-1.8835359999999983">
        <ele>452.891</ele>
        <time>2022-08-25T11:12:26Z</time>
      </trkpt>
      <trkpt lat="42.674097999999994" lon="-1.8835569999999984">
        <ele>453.087</ele>
        <time>2022-08-25T11:12:27Z</time>
      </trkpt>
      <trkpt lat="42.674108999999994" lon="-1.8835769999999983">
        <ele>453.038</ele>
        <time>2022-08-25T11:12:28Z</time>
      </trkpt>
      <trkpt lat="42.674119999999995" lon="-1.8835979999999983">
        <ele>453.083</ele>
        <time>2022-08-25T11:12:29Z</time>
      </trkpt>
      <trkpt lat="42.674130999999996" lon="-1.8836209999999984">
        <ele>453.025</ele>
        <time>2022-08-25T11:12:30Z</time>
      </trkpt>
      <trkpt lat="42.674142999999994" lon="-1.8836409999999983">
        <ele>453.017</ele>
        <time>2022-08-25T11:12:31Z</time>
      </trkpt>
      <trkpt lat="42.674153999999994" lon="-1.8836619999999984">
        <ele>453.009</ele>
        <time>2022-08-25T11:12:32Z</time>
      </trkpt>
      <trkpt lat="42.674161999999995" lon="-1.8836829999999984">
        <ele>453.049</ele>
        <time>2022-08-25T11:12:33Z</time>
      </trkpt>
      <trkpt lat="42.674170999999994" lon="-1.8837039999999985">
        <ele>453.079</ele>
        <time>2022-08-25T11:12:34Z</time>
      </trkpt>
      <trkpt lat="42.67417999999999" lon="-1.8837249999999985">
        <ele>453.049</ele>
        <time>2022-08-25T11:12:35Z</time>
      </trkpt>
      <trkpt lat="42.674187999999994" lon="-1.8837459999999986">
        <ele>453.035</ele>
        <time>2022-08-25T11:12:36Z</time>
      </trkpt>
      <trkpt lat="42.67419499999999" lon="-1.8837699999999986">
        <ele>453.057</ele>
        <time>2022-08-25T11:12:37Z</time>
      </trkpt>
      <trkpt lat="42.67421099999999" lon="-1.8838139999999985">
        <ele>453.234</ele>
        <time>2022-08-25T11:12:39Z</time>
      </trkpt>
      <trkpt lat="42.67421999999999" lon="-1.8838339999999985">
        <ele>453.257</ele>
        <time>2022-08-25T11:12:40Z</time>
      </trkpt>
      <trkpt lat="42.674291999999994" lon="-1.8841079999999986">
        <ele>453.663</ele>
        <time>2022-08-25T11:12:51Z</time>
      </trkpt>
      <trkpt lat="42.674299999999995" lon="-1.8841319999999986">
        <ele>453.634</ele>
        <time>2022-08-25T11:12:52Z</time>
      </trkpt>
      <trkpt lat="42.674316" lon="-1.8842089999999987">
        <ele>453.612</ele>
        <time>2022-08-25T11:12:55Z</time>
      </trkpt>
      <trkpt lat="42.674322" lon="-1.8842319999999988">
        <ele>453.832</ele>
        <time>2022-08-25T11:12:56Z</time>
      </trkpt>
      <trkpt lat="42.674327999999996" lon="-1.8842539999999988">
        <ele>454.005</ele>
        <time>2022-08-25T11:12:57Z</time>
      </trkpt>
      <trkpt lat="42.67434599999999" lon="-1.8843229999999989">
        <ele>454.409</ele>
        <time>2022-08-25T11:13:00Z</time>
      </trkpt>
      <trkpt lat="42.67435199999999" lon="-1.884348999999999">
        <ele>454.632</ele>
        <time>2022-08-25T11:13:01Z</time>
      </trkpt>
      <trkpt lat="42.67435899999999" lon="-1.8843739999999989">
        <ele>454.862</ele>
        <time>2022-08-25T11:13:02Z</time>
      </trkpt>
      <trkpt lat="42.67436899999999" lon="-1.884405999999999">
        <ele>455.262</ele>
        <time>2022-08-25T11:13:03Z</time>
      </trkpt>
      <trkpt lat="42.67437499999999" lon="-1.8844279999999989">
        <ele>455.488</ele>
        <time>2022-08-25T11:13:04Z</time>
      </trkpt>
      <trkpt lat="42.67437999999999" lon="-1.8844499999999988">
        <ele>456.090</ele>
        <time>2022-08-25T11:13:05Z</time>
      </trkpt>
      <trkpt lat="42.674398999999994" lon="-1.884494999999999">
        <ele>456.677</ele>
        <time>2022-08-25T11:13:07Z</time>
      </trkpt>
      <trkpt lat="42.674406999999995" lon="-1.8845169999999989">
        <ele>457.090</ele>
        <time>2022-08-25T11:13:08Z</time>
      </trkpt>
      <trkpt lat="42.674414999999996" lon="-1.8845389999999989">
        <ele>457.216</ele>
        <time>2022-08-25T11:13:09Z</time>
      </trkpt>
      <trkpt lat="42.674423" lon="-1.8845559999999988">
        <ele>457.427</ele>
        <time>2022-08-25T11:13:10Z</time>
      </trkpt>
      <trkpt lat="42.674429999999994" lon="-1.8845729999999987">
        <ele>457.466</ele>
        <time>2022-08-25T11:13:11Z</time>
      </trkpt>
      <trkpt lat="42.67443699999999" lon="-1.8845909999999988">
        <ele>457.429</ele>
        <time>2022-08-25T11:13:12Z</time>
      </trkpt>
      <trkpt lat="42.67444399999999" lon="-1.8846159999999987">
        <ele>457.421</ele>
        <time>2022-08-25T11:13:13Z</time>
      </trkpt>
      <trkpt lat="42.67445099999998" lon="-1.8846319999999988">
        <ele>457.609</ele>
        <time>2022-08-25T11:13:14Z</time>
      </trkpt>
      <trkpt lat="42.67445799999998" lon="-1.8846509999999987">
        <ele>457.637</ele>
        <time>2022-08-25T11:13:15Z</time>
      </trkpt>
      <trkpt lat="42.67446699999998" lon="-1.8846749999999988">
        <ele>457.877</ele>
        <time>2022-08-25T11:13:16Z</time>
      </trkpt>
      <trkpt lat="42.674473999999975" lon="-1.8846919999999987">
        <ele>457.837</ele>
        <time>2022-08-25T11:13:17Z</time>
      </trkpt>
      <trkpt lat="42.674482999999974" lon="-1.8847119999999986">
        <ele>457.893</ele>
        <time>2022-08-25T11:13:18Z</time>
      </trkpt>
      <trkpt lat="42.67449199999997" lon="-1.8847309999999986">
        <ele>457.885</ele>
        <time>2022-08-25T11:13:19Z</time>
      </trkpt>
      <trkpt lat="42.67450099999997" lon="-1.8847459999999987">
        <ele>457.862</ele>
        <time>2022-08-25T11:13:20Z</time>
      </trkpt>
      <trkpt lat="42.674510999999974" lon="-1.8847629999999986">
        <ele>458.015</ele>
        <time>2022-08-25T11:13:21Z</time>
      </trkpt>
      <trkpt lat="42.67452399999998" lon="-1.8847859999999987">
        <ele>458.031</ele>
        <time>2022-08-25T11:13:22Z</time>
      </trkpt>
      <trkpt lat="42.67452899999998" lon="-1.8848009999999988">
        <ele>458.292</ele>
        <time>2022-08-25T11:13:23Z</time>
      </trkpt>
      <trkpt lat="42.67453899999998" lon="-1.8848179999999988">
        <ele>458.415</ele>
        <time>2022-08-25T11:13:24Z</time>
      </trkpt>
      <trkpt lat="42.674548999999985" lon="-1.8848349999999987">
        <ele>458.465</ele>
        <time>2022-08-25T11:13:25Z</time>
      </trkpt>
      <trkpt lat="42.67455799999998" lon="-1.8848519999999986">
        <ele>458.411</ele>
        <time>2022-08-25T11:13:26Z</time>
      </trkpt>
      <trkpt lat="42.674568999999984" lon="-1.8848689999999986">
        <ele>458.609</ele>
        <time>2022-08-25T11:13:27Z</time>
      </trkpt>
      <trkpt lat="42.67457899999999" lon="-1.8848849999999986">
        <ele>458.852</ele>
        <time>2022-08-25T11:13:28Z</time>
      </trkpt>
      <trkpt lat="42.67458999999999" lon="-1.8849019999999985">
        <ele>459.222</ele>
        <time>2022-08-25T11:13:29Z</time>
      </trkpt>
      <trkpt lat="42.67460099999999" lon="-1.8849169999999986">
        <ele>459.272</ele>
        <time>2022-08-25T11:13:30Z</time>
      </trkpt>
      <trkpt lat="42.67461099999999" lon="-1.8849299999999987">
        <ele>459.458</ele>
        <time>2022-08-25T11:13:31Z</time>
      </trkpt>
      <trkpt lat="42.67461999999999" lon="-1.8849449999999988">
        <ele>459.430</ele>
        <time>2022-08-25T11:13:32Z</time>
      </trkpt>
      <trkpt lat="42.67462799999999" lon="-1.8849599999999989">
        <ele>459.697</ele>
        <time>2022-08-25T11:13:33Z</time>
      </trkpt>
      <trkpt lat="42.67463699999999" lon="-1.8849739999999988">
        <ele>459.850</ele>
        <time>2022-08-25T11:13:34Z</time>
      </trkpt>
      <trkpt lat="42.67464499999999" lon="-1.8849849999999988">
        <ele>459.856</ele>
        <time>2022-08-25T11:13:35Z</time>
      </trkpt>
      <trkpt lat="42.67465299999999" lon="-1.884999999999999">
        <ele>460.027</ele>
        <time>2022-08-25T11:13:36Z</time>
      </trkpt>
      <trkpt lat="42.67466099999999" lon="-1.885015999999999">
        <ele>460.298</ele>
        <time>2022-08-25T11:13:37Z</time>
      </trkpt>
      <trkpt lat="42.67466999999999" lon="-1.885033999999999">
        <ele>460.415</ele>
        <time>2022-08-25T11:13:38Z</time>
      </trkpt>
      <trkpt lat="42.67467599999999" lon="-1.885047999999999">
        <ele>460.626</ele>
        <time>2022-08-25T11:13:39Z</time>
      </trkpt>
      <trkpt lat="42.67468299999999" lon="-1.885062999999999">
        <ele>460.809</ele>
        <time>2022-08-25T11:13:40Z</time>
      </trkpt>
      <trkpt lat="42.67469099999999" lon="-1.8850779999999991">
        <ele>461.030</ele>
        <time>2022-08-25T11:13:41Z</time>
      </trkpt>
      <trkpt lat="42.674697999999985" lon="-1.8850929999999992">
        <ele>461.060</ele>
        <time>2022-08-25T11:13:42Z</time>
      </trkpt>
      <trkpt lat="42.67470499999998" lon="-1.8851069999999992">
        <ele>461.430</ele>
        <time>2022-08-25T11:13:43Z</time>
      </trkpt>
      <trkpt lat="42.67471299999998" lon="-1.8851209999999992">
        <ele>461.656</ele>
        <time>2022-08-25T11:13:44Z</time>
      </trkpt>
      <trkpt lat="42.67471899999998" lon="-1.8851349999999991">
        <ele>461.658</ele>
        <time>2022-08-25T11:13:45Z</time>
      </trkpt>
      <trkpt lat="42.67472499999998" lon="-1.8851509999999991">
        <ele>461.865</ele>
        <time>2022-08-25T11:13:46Z</time>
      </trkpt>
      <trkpt lat="42.67473099999998" lon="-1.885164999999999">
        <ele>461.878</ele>
        <time>2022-08-25T11:13:47Z</time>
      </trkpt>
      <trkpt lat="42.67473599999998" lon="-1.8851779999999991">
        <ele>462.034</ele>
        <time>2022-08-25T11:13:48Z</time>
      </trkpt>
      <trkpt lat="42.67474099999998" lon="-1.8851929999999992">
        <ele>462.095</ele>
        <time>2022-08-25T11:13:49Z</time>
      </trkpt>
      <trkpt lat="42.67474699999998" lon="-1.8852069999999992">
        <ele>462.283</ele>
        <time>2022-08-25T11:13:50Z</time>
      </trkpt>
      <trkpt lat="42.674751999999984" lon="-1.8852229999999992">
        <ele>462.425</ele>
        <time>2022-08-25T11:13:51Z</time>
      </trkpt>
      <trkpt lat="42.674756999999985" lon="-1.8852379999999993">
        <ele>462.417</ele>
        <time>2022-08-25T11:13:52Z</time>
      </trkpt>
      <trkpt lat="42.67476199999999" lon="-1.8852529999999994">
        <ele>462.609</ele>
        <time>2022-08-25T11:13:53Z</time>
      </trkpt>
      <trkpt lat="42.674770999999986" lon="-1.8852689999999994">
        <ele>462.649</ele>
        <time>2022-08-25T11:13:54Z</time>
      </trkpt>
      <trkpt lat="42.67477799999998" lon="-1.8852859999999994">
        <ele>462.649</ele>
        <time>2022-08-25T11:13:55Z</time>
      </trkpt>
      <trkpt lat="42.67478399999998" lon="-1.8853019999999994">
        <ele>462.889</ele>
        <time>2022-08-25T11:13:56Z</time>
      </trkpt>
      <trkpt lat="42.67478999999998" lon="-1.8853209999999994">
        <ele>462.855</ele>
        <time>2022-08-25T11:13:57Z</time>
      </trkpt>
      <trkpt lat="42.67479599999998" lon="-1.8853399999999993">
        <ele>463.077</ele>
        <time>2022-08-25T11:13:58Z</time>
      </trkpt>
      <trkpt lat="42.674802999999976" lon="-1.8853569999999993">
        <ele>463.034</ele>
        <time>2022-08-25T11:13:59Z</time>
      </trkpt>
      <trkpt lat="42.67480999999997" lon="-1.8853769999999992">
        <ele>463.227</ele>
        <time>2022-08-25T11:14:00Z</time>
      </trkpt>
      <trkpt lat="42.67481599999997" lon="-1.8853959999999992">
        <ele>463.273</ele>
        <time>2022-08-25T11:14:01Z</time>
      </trkpt>
      <trkpt lat="42.67482199999997" lon="-1.8854149999999992">
        <ele>463.254</ele>
        <time>2022-08-25T11:14:02Z</time>
      </trkpt>
      <trkpt lat="42.67482899999997" lon="-1.8854339999999992">
        <ele>463.426</ele>
        <time>2022-08-25T11:14:03Z</time>
      </trkpt>
      <trkpt lat="42.674835999999964" lon="-1.885453999999999">
        <ele>463.447</ele>
        <time>2022-08-25T11:14:04Z</time>
      </trkpt>
      <trkpt lat="42.674840999999965" lon="-1.885472999999999">
        <ele>463.411</ele>
        <time>2022-08-25T11:14:05Z</time>
      </trkpt>
      <trkpt lat="42.67484499999996" lon="-1.885491999999999">
        <ele>463.409</ele>
        <time>2022-08-25T11:14:06Z</time>
      </trkpt>
      <trkpt lat="42.67484799999996" lon="-1.885511999999999">
        <ele>463.643</ele>
        <time>2022-08-25T11:14:07Z</time>
      </trkpt>
      <trkpt lat="42.674849999999964" lon="-1.885537999999999">
        <ele>463.653</ele>
        <time>2022-08-25T11:14:08Z</time>
      </trkpt>
      <trkpt lat="42.674851999999966" lon="-1.885564999999999">
        <ele>463.893</ele>
        <time>2022-08-25T11:14:09Z</time>
      </trkpt>
      <trkpt lat="42.67485299999996" lon="-1.885591999999999">
        <ele>463.849</ele>
        <time>2022-08-25T11:14:10Z</time>
      </trkpt>
      <trkpt lat="42.67485599999996" lon="-1.885622999999999">
        <ele>463.841</ele>
        <time>2022-08-25T11:14:11Z</time>
      </trkpt>
      <trkpt lat="42.67485899999996" lon="-1.885651999999999">
        <ele>464.048</ele>
        <time>2022-08-25T11:14:12Z</time>
      </trkpt>
      <trkpt lat="42.67486799999996" lon="-1.885708999999999">
        <ele>464.021</ele>
        <time>2022-08-25T11:14:14Z</time>
      </trkpt>
      <trkpt lat="42.67491499999996" lon="-1.885880999999999">
        <ele>464.427</ele>
        <time>2022-08-25T11:14:19Z</time>
      </trkpt>
      <trkpt lat="42.674924999999966" lon="-1.885926999999999">
        <ele>464.638</ele>
        <time>2022-08-25T11:14:20Z</time>
      </trkpt>
      <trkpt lat="42.67493499999997" lon="-1.885964999999999">
        <ele>464.815</ele>
        <time>2022-08-25T11:14:21Z</time>
      </trkpt>
      <trkpt lat="42.67494399999997" lon="-1.886001999999999">
        <ele>465.065</ele>
        <time>2022-08-25T11:14:22Z</time>
      </trkpt>
      <trkpt lat="42.67494999999997" lon="-1.886028999999999">
        <ele>465.211</ele>
        <time>2022-08-25T11:14:23Z</time>
      </trkpt>
      <trkpt lat="42.67497799999997" lon="-1.8861389999999991">
        <ele>465.409</ele>
        <time>2022-08-25T11:14:26Z</time>
      </trkpt>
      <trkpt lat="42.674986999999966" lon="-1.8861809999999992">
        <ele>465.442</ele>
        <time>2022-08-25T11:14:27Z</time>
      </trkpt>
      <trkpt lat="42.675001999999964" lon="-1.8862449999999993">
        <ele>465.632</ele>
        <time>2022-08-25T11:14:29Z</time>
      </trkpt>
      <trkpt lat="42.67500599999996" lon="-1.8862779999999992">
        <ele>465.622</ele>
        <time>2022-08-25T11:14:30Z</time>
      </trkpt>
      <trkpt lat="42.67501499999996" lon="-1.8863149999999993">
        <ele>465.888</ele>
        <time>2022-08-25T11:14:31Z</time>
      </trkpt>
      <trkpt lat="42.67502299999996" lon="-1.8863469999999993">
        <ele>465.860</ele>
        <time>2022-08-25T11:14:32Z</time>
      </trkpt>
      <trkpt lat="42.67502399999996" lon="-1.8863719999999993">
        <ele>466.267</ele>
        <time>2022-08-25T11:14:33Z</time>
      </trkpt>
      <trkpt lat="42.67502699999996" lon="-1.8864029999999992">
        <ele>466.890</ele>
        <time>2022-08-25T11:14:34Z</time>
      </trkpt>
      <trkpt lat="42.67503299999996" lon="-1.8864329999999991">
        <ele>466.826</ele>
        <time>2022-08-25T11:14:35Z</time>
      </trkpt>
      <trkpt lat="42.675038999999956" lon="-1.8864619999999992">
        <ele>467.437</ele>
        <time>2022-08-25T11:14:36Z</time>
      </trkpt>
      <trkpt lat="42.675044999999955" lon="-1.8864909999999993">
        <ele>467.454</ele>
        <time>2022-08-25T11:14:37Z</time>
      </trkpt>
      <trkpt lat="42.675049999999956" lon="-1.8865179999999993">
        <ele>467.656</ele>
        <time>2022-08-25T11:14:38Z</time>
      </trkpt>
      <trkpt lat="42.675055999999955" lon="-1.8865459999999992">
        <ele>467.811</ele>
        <time>2022-08-25T11:14:39Z</time>
      </trkpt>
      <trkpt lat="42.67505999999995" lon="-1.8865779999999992">
        <ele>467.809</ele>
        <time>2022-08-25T11:14:40Z</time>
      </trkpt>
      <trkpt lat="42.67506699999995" lon="-1.8866159999999992">
        <ele>468.096</ele>
        <time>2022-08-25T11:14:41Z</time>
      </trkpt>
      <trkpt lat="42.675073999999945" lon="-1.8866479999999992">
        <ele>468.286</ele>
        <time>2022-08-25T11:14:42Z</time>
      </trkpt>
      <trkpt lat="42.675076999999945" lon="-1.8866709999999993">
        <ele>468.286</ele>
        <time>2022-08-25T11:14:43Z</time>
      </trkpt>
      <trkpt lat="42.675081999999946" lon="-1.8866999999999994">
        <ele>468.472</ele>
        <time>2022-08-25T11:14:44Z</time>
      </trkpt>
      <trkpt lat="42.67508899999994" lon="-1.8867269999999994">
        <ele>468.444</ele>
        <time>2022-08-25T11:14:45Z</time>
      </trkpt>
      <trkpt lat="42.675098999999946" lon="-1.8867609999999995">
        <ele>468.441</ele>
        <time>2022-08-25T11:14:46Z</time>
      </trkpt>
      <trkpt lat="42.67510399999995" lon="-1.8867849999999995">
        <ele>468.684</ele>
        <time>2022-08-25T11:14:47Z</time>
      </trkpt>
      <trkpt lat="42.67510899999995" lon="-1.8868199999999995">
        <ele>468.630</ele>
        <time>2022-08-25T11:14:48Z</time>
      </trkpt>
      <trkpt lat="42.675112999999946" lon="-1.8868419999999995">
        <ele>468.621</ele>
        <time>2022-08-25T11:14:49Z</time>
      </trkpt>
      <trkpt lat="42.67511799999995" lon="-1.8868709999999995">
        <ele>468.685</ele>
        <time>2022-08-25T11:14:50Z</time>
      </trkpt>
      <trkpt lat="42.67512399999995" lon="-1.8869089999999995">
        <ele>468.889</ele>
        <time>2022-08-25T11:14:51Z</time>
      </trkpt>
      <trkpt lat="42.67513199999995" lon="-1.8869389999999995">
        <ele>468.817</ele>
        <time>2022-08-25T11:14:52Z</time>
      </trkpt>
      <trkpt lat="42.67513999999995" lon="-1.8869679999999995">
        <ele>468.809</ele>
        <time>2022-08-25T11:14:53Z</time>
      </trkpt>
      <trkpt lat="42.675143999999946" lon="-1.8869999999999996">
        <ele>468.869</ele>
        <time>2022-08-25T11:14:54Z</time>
      </trkpt>
      <trkpt lat="42.67514899999995" lon="-1.8870259999999996">
        <ele>468.859</ele>
        <time>2022-08-25T11:14:55Z</time>
      </trkpt>
      <trkpt lat="42.67515699999995" lon="-1.8870649999999995">
        <ele>468.839</ele>
        <time>2022-08-25T11:14:56Z</time>
      </trkpt>
      <trkpt lat="42.675163999999945" lon="-1.8870979999999995">
        <ele>468.835</ele>
        <time>2022-08-25T11:14:57Z</time>
      </trkpt>
      <trkpt lat="42.67517199999995" lon="-1.8871309999999994">
        <ele>468.847</ele>
        <time>2022-08-25T11:14:58Z</time>
      </trkpt>
      <trkpt lat="42.67517699999995" lon="-1.8871629999999995">
        <ele>468.884</ele>
        <time>2022-08-25T11:14:59Z</time>
      </trkpt>
      <trkpt lat="42.675183999999945" lon="-1.8871899999999995">
        <ele>468.877</ele>
        <time>2022-08-25T11:15:00Z</time>
      </trkpt>
      <trkpt lat="42.67520199999994" lon="-1.8873049999999996">
        <ele>468.663</ele>
        <time>2022-08-25T11:15:03Z</time>
      </trkpt>
      <trkpt lat="42.675203999999944" lon="-1.8873409999999995">
        <ele>468.494</ele>
        <time>2022-08-25T11:15:04Z</time>
      </trkpt>
      <trkpt lat="42.67520699999994" lon="-1.8873749999999996">
        <ele>468.289</ele>
        <time>2022-08-25T11:15:05Z</time>
      </trkpt>
      <trkpt lat="42.67524399999994" lon="-1.8875349999999995">
        <ele>467.806</ele>
        <time>2022-08-25T11:15:10Z</time>
      </trkpt>
      <trkpt lat="42.675276999999944" lon="-1.8877059999999994">
        <ele>467.426</ele>
        <time>2022-08-25T11:15:15Z</time>
      </trkpt>
      <trkpt lat="42.675307999999944" lon="-1.8878209999999995">
        <ele>467.209</ele>
        <time>2022-08-25T11:15:18Z</time>
      </trkpt>
      <trkpt lat="42.67538799999994" lon="-1.8880429999999995">
        <ele>467.039</ele>
        <time>2022-08-25T11:15:24Z</time>
      </trkpt>
      <trkpt lat="42.675473999999944" lon="-1.8882129999999995">
        <ele>467.049</ele>
        <time>2022-08-25T11:15:29Z</time>
      </trkpt>
      <trkpt lat="42.675487999999945" lon="-1.8882469999999996">
        <ele>467.039</ele>
        <time>2022-08-25T11:15:30Z</time>
      </trkpt>
      <trkpt lat="42.675515999999945" lon="-1.8883179999999995">
        <ele>467.265</ele>
        <time>2022-08-25T11:15:32Z</time>
      </trkpt>
      <trkpt lat="42.675529999999945" lon="-1.8883549999999996">
        <ele>467.247</ele>
        <time>2022-08-25T11:15:33Z</time>
      </trkpt>
      <trkpt lat="42.67554499999994" lon="-1.8883909999999995">
        <ele>467.244</ele>
        <time>2022-08-25T11:15:34Z</time>
      </trkpt>
      <trkpt lat="42.67556799999994" lon="-1.8885059999999996">
        <ele>467.247</ele>
        <time>2022-08-25T11:15:37Z</time>
      </trkpt>
      <trkpt lat="42.67560799999994" lon="-1.8888739999999995">
        <ele>466.643</ele>
        <time>2022-08-25T11:15:45Z</time>
      </trkpt>
      <trkpt lat="42.67561499999994" lon="-1.8889209999999994">
        <ele>466.684</ele>
        <time>2022-08-25T11:15:46Z</time>
      </trkpt>
      <trkpt lat="42.67562499999994" lon="-1.8889639999999994">
        <ele>466.621</ele>
        <time>2022-08-25T11:15:47Z</time>
      </trkpt>
      <trkpt lat="42.67563099999994" lon="-1.8889939999999994">
        <ele>466.641</ele>
        <time>2022-08-25T11:15:48Z</time>
      </trkpt>
      <trkpt lat="42.67563599999994" lon="-1.8890289999999994">
        <ele>466.605</ele>
        <time>2022-08-25T11:15:49Z</time>
      </trkpt>
      <trkpt lat="42.67564799999994" lon="-1.8890659999999995">
        <ele>466.609</ele>
        <time>2022-08-25T11:15:50Z</time>
      </trkpt>
      <trkpt lat="42.67566099999994" lon="-1.8890929999999995">
        <ele>466.663</ele>
        <time>2022-08-25T11:15:51Z</time>
      </trkpt>
      <trkpt lat="42.67566099999994" lon="-1.8891199999999995">
        <ele>466.653</ele>
        <time>2022-08-25T11:15:52Z</time>
      </trkpt>
      <trkpt lat="42.67565299999994" lon="-1.8891479999999994">
        <ele>466.893</ele>
        <time>2022-08-25T11:15:53Z</time>
      </trkpt>
      <trkpt lat="42.67565199999994" lon="-1.8891719999999994">
        <ele>466.889</ele>
        <time>2022-08-25T11:15:54Z</time>
      </trkpt>
      <trkpt lat="42.675661999999946" lon="-1.8891969999999993">
        <ele>467.021</ele>
        <time>2022-08-25T11:15:55Z</time>
      </trkpt>
      <trkpt lat="42.67567799999995" lon="-1.8892139999999993">
        <ele>467.078</ele>
        <time>2022-08-25T11:15:56Z</time>
      </trkpt>
      <trkpt lat="42.675692999999946" lon="-1.8892289999999994">
        <ele>467.081</ele>
        <time>2022-08-25T11:15:57Z</time>
      </trkpt>
      <trkpt lat="42.675698999999945" lon="-1.8892449999999994">
        <ele>467.077</ele>
        <time>2022-08-25T11:15:58Z</time>
      </trkpt>
      <trkpt lat="42.67569699999994" lon="-1.8892599999999995">
        <ele>467.248</ele>
        <time>2022-08-25T11:15:59Z</time>
      </trkpt>
      <trkpt lat="42.67568299999994" lon="-1.8892679999999995">
        <ele>467.268</ele>
        <time>2022-08-25T11:16:00Z</time>
      </trkpt>
      <trkpt lat="42.67567199999994" lon="-1.8892719999999994">
        <ele>467.442</ele>
        <time>2022-08-25T11:16:01Z</time>
      </trkpt>
      <trkpt lat="42.67564699999994" lon="-1.8892729999999993">
        <ele>467.426</ele>
        <time>2022-08-25T11:16:03Z</time>
      </trkpt>
      <trkpt lat="42.67563199999994" lon="-1.8892759999999993">
        <ele>467.609</ele>
        <time>2022-08-25T11:16:04Z</time>
      </trkpt>
      <trkpt lat="42.675619999999945" lon="-1.8892819999999992">
        <ele>467.637</ele>
        <time>2022-08-25T11:16:05Z</time>
      </trkpt>
      <trkpt lat="42.67560999999994" lon="-1.8892939999999991">
        <ele>467.637</ele>
        <time>2022-08-25T11:16:06Z</time>
      </trkpt>
      <trkpt lat="42.67560799999994" lon="-1.889297999999999">
        <ele>467.627</ele>
        <time>2022-08-25T11:16:07Z</time>
      </trkpt>
      <trkpt lat="42.67560399999994" lon="-1.889301999999999">
        <ele>467.623</ele>
        <time>2022-08-25T11:16:08Z</time>
      </trkpt>
      <trkpt lat="42.67559699999995" lon="-1.889308999999999">
        <ele>467.615</ele>
        <time>2022-08-25T11:16:09Z</time>
      </trkpt>
      <trkpt lat="42.67558499999995" lon="-1.889315999999999">
        <ele>467.692</ele>
        <time>2022-08-25T11:16:10Z</time>
      </trkpt>
      <trkpt lat="42.675568999999946" lon="-1.8893239999999991">
        <ele>467.645</ele>
        <time>2022-08-25T11:16:11Z</time>
      </trkpt>
      <trkpt lat="42.675560999999945" lon="-1.889337999999999">
        <ele>467.621</ele>
        <time>2022-08-25T11:16:12Z</time>
      </trkpt>
      <trkpt lat="42.67555999999995" lon="-1.889345999999999">
        <ele>467.662</ele>
        <time>2022-08-25T11:16:13Z</time>
      </trkpt>
      <trkpt lat="42.67555999999995" lon="-1.889345999999999">
        <ele>467.688</ele>
        <time>2022-08-25T11:16:14Z</time>
      </trkpt>
      <trkpt lat="42.67558999999995" lon="-1.8893639999999992">
        <ele>468.024</ele>
        <time>2022-08-25T11:18:55Z</time>
      </trkpt>
      <trkpt lat="42.67558999999995" lon="-1.8893639999999992">
        <ele>468.026</ele>
        <time>2022-08-25T11:18:57Z</time>
      </trkpt>
      <trkpt lat="42.67558999999995" lon="-1.8893639999999992">
        <ele>468.009</ele>
        <time>2022-08-25T11:19:06Z</time>
      </trkpt>
      <trkpt lat="42.67558999999995" lon="-1.8893639999999992">
        <ele>468.099</ele>
        <time>2022-08-25T11:19:08Z</time>
      </trkpt>
      <trkpt lat="42.67558999999995" lon="-1.8893639999999992">
        <ele>468.039</ele>
        <time>2022-08-25T11:19:12Z</time>
      </trkpt>
      <trkpt lat="42.67558999999995" lon="-1.8894129999999991">
        <ele>470.639</ele>
        <time>2022-08-25T11:23:20Z</time>
      </trkpt>
      <trkpt lat="42.67559199999995" lon="-1.889437999999999">
        <ele>470.675</ele>
        <time>2022-08-25T11:23:21Z</time>
      </trkpt>
      <trkpt lat="42.67559199999995" lon="-1.889461999999999">
        <ele>470.427</ele>
        <time>2022-08-25T11:23:22Z</time>
      </trkpt>
      <trkpt lat="42.67558399999995" lon="-1.8894849999999992">
        <ele>470.414</ele>
        <time>2022-08-25T11:23:23Z</time>
      </trkpt>
      <trkpt lat="42.67553699999995" lon="-1.889674999999999">
        <ele>470.297</ele>
        <time>2022-08-25T11:23:30Z</time>
      </trkpt>
      <trkpt lat="42.67551999999995" lon="-1.889809999999999">
        <ele>470.473</ele>
        <time>2022-08-25T11:23:35Z</time>
      </trkpt>
      <trkpt lat="42.67552099999995" lon="-1.8898329999999992">
        <ele>470.634</ele>
        <time>2022-08-25T11:23:36Z</time>
      </trkpt>
      <trkpt lat="42.67552899999995" lon="-1.8898529999999991">
        <ele>470.656</ele>
        <time>2022-08-25T11:23:37Z</time>
      </trkpt>
      <trkpt lat="42.675535999999944" lon="-1.8898709999999992">
        <ele>470.859</ele>
        <time>2022-08-25T11:23:38Z</time>
      </trkpt>
      <trkpt lat="42.67554299999994" lon="-1.8898969999999993">
        <ele>471.214</ele>
        <time>2022-08-25T11:23:39Z</time>
      </trkpt>
      <trkpt lat="42.67554899999994" lon="-1.8899129999999993">
        <ele>471.209</ele>
        <time>2022-08-25T11:23:40Z</time>
      </trkpt>
      <trkpt lat="42.67555799999994" lon="-1.8899279999999994">
        <ele>471.686</ele>
        <time>2022-08-25T11:23:41Z</time>
      </trkpt>
      <trkpt lat="42.67556299999994" lon="-1.8899459999999995">
        <ele>471.666</ele>
        <time>2022-08-25T11:23:42Z</time>
      </trkpt>
      <trkpt lat="42.67557199999994" lon="-1.8899679999999994">
        <ele>471.886</ele>
        <time>2022-08-25T11:23:43Z</time>
      </trkpt>
      <trkpt lat="42.67557399999994" lon="-1.8899819999999994">
        <ele>472.032</ele>
        <time>2022-08-25T11:23:44Z</time>
      </trkpt>
      <trkpt lat="42.67558199999994" lon="-1.8899949999999994">
        <ele>472.254</ele>
        <time>2022-08-25T11:23:45Z</time>
      </trkpt>
      <trkpt lat="42.67559399999994" lon="-1.8900039999999994">
        <ele>472.261</ele>
        <time>2022-08-25T11:23:46Z</time>
      </trkpt>
      <trkpt lat="42.67560999999994" lon="-1.8900129999999993">
        <ele>472.434</ele>
        <time>2022-08-25T11:23:47Z</time>
      </trkpt>
      <trkpt lat="42.67562699999994" lon="-1.8900249999999992">
        <ele>472.440</ele>
        <time>2022-08-25T11:23:48Z</time>
      </trkpt>
      <trkpt lat="42.67564799999994" lon="-1.8900629999999992">
        <ele>473.071</ele>
        <time>2022-08-25T11:23:50Z</time>
      </trkpt>
      <trkpt lat="42.67564999999994" lon="-1.8900819999999992">
        <ele>473.075</ele>
        <time>2022-08-25T11:23:51Z</time>
      </trkpt>
      <trkpt lat="42.67565499999994" lon="-1.8900949999999992">
        <ele>473.228</ele>
        <time>2022-08-25T11:23:52Z</time>
      </trkpt>
      <trkpt lat="42.67566399999994" lon="-1.8900979999999992">
        <ele>473.420</ele>
        <time>2022-08-25T11:23:53Z</time>
      </trkpt>
      <trkpt lat="42.67567599999994" lon="-1.8901009999999991">
        <ele>473.609</ele>
        <time>2022-08-25T11:23:54Z</time>
      </trkpt>
      <trkpt lat="42.67568899999994" lon="-1.890114999999999">
        <ele>473.658</ele>
        <time>2022-08-25T11:23:55Z</time>
      </trkpt>
      <trkpt lat="42.67570099999994" lon="-1.890133999999999">
        <ele>473.898</ele>
        <time>2022-08-25T11:23:56Z</time>
      </trkpt>
      <trkpt lat="42.67571499999994" lon="-1.8901469999999991">
        <ele>474.078</ele>
        <time>2022-08-25T11:23:57Z</time>
      </trkpt>
      <trkpt lat="42.67572899999994" lon="-1.8901599999999992">
        <ele>474.294</ele>
        <time>2022-08-25T11:23:58Z</time>
      </trkpt>
      <trkpt lat="42.67574299999994" lon="-1.8901779999999992">
        <ele>474.226</ele>
        <time>2022-08-25T11:23:59Z</time>
      </trkpt>
      <trkpt lat="42.67575999999994" lon="-1.8901929999999993">
        <ele>474.473</ele>
        <time>2022-08-25T11:24:00Z</time>
      </trkpt>
      <trkpt lat="42.67577899999994" lon="-1.8902029999999994">
        <ele>474.456</ele>
        <time>2022-08-25T11:24:01Z</time>
      </trkpt>
      <trkpt lat="42.67579299999994" lon="-1.8902099999999995">
        <ele>474.652</ele>
        <time>2022-08-25T11:24:02Z</time>
      </trkpt>
      <trkpt lat="42.67582099999994" lon="-1.8902159999999995">
        <ele>475.423</ele>
        <time>2022-08-25T11:24:08Z</time>
      </trkpt>
      <trkpt lat="42.67582999999994" lon="-1.8902179999999995">
        <ele>475.484</ele>
        <time>2022-08-25T11:24:09Z</time>
      </trkpt>
      <trkpt lat="42.67583699999994" lon="-1.8902219999999994">
        <ele>475.607</ele>
        <time>2022-08-25T11:24:10Z</time>
      </trkpt>
      <trkpt lat="42.67584799999994" lon="-1.8902329999999994">
        <ele>475.617</ele>
        <time>2022-08-25T11:24:11Z</time>
      </trkpt>
      <trkpt lat="42.67585799999994" lon="-1.8902499999999993">
        <ele>475.809</ele>
        <time>2022-08-25T11:24:12Z</time>
      </trkpt>
      <trkpt lat="42.67586299999994" lon="-1.8902549999999994">
        <ele>475.839</ele>
        <time>2022-08-25T11:24:13Z</time>
      </trkpt>
      <trkpt lat="42.675872999999946" lon="-1.8902699999999995">
        <ele>475.859</ele>
        <time>2022-08-25T11:24:14Z</time>
      </trkpt>
      <trkpt lat="42.67588899999995" lon="-1.8902829999999995">
        <ele>476.069</ele>
        <time>2022-08-25T11:24:15Z</time>
      </trkpt>
      <trkpt lat="42.67589999999995" lon="-1.8902919999999994">
        <ele>476.045</ele>
        <time>2022-08-25T11:24:16Z</time>
      </trkpt>
      <trkpt lat="42.67591399999995" lon="-1.8903079999999994">
        <ele>476.097</ele>
        <time>2022-08-25T11:24:17Z</time>
      </trkpt>
      <trkpt lat="42.675931999999946" lon="-1.8903119999999993">
        <ele>476.054</ele>
        <time>2022-08-25T11:24:18Z</time>
      </trkpt>
      <trkpt lat="42.675943999999944" lon="-1.8903139999999994">
        <ele>476.267</ele>
        <time>2022-08-25T11:24:19Z</time>
      </trkpt>
      <trkpt lat="42.67595299999994" lon="-1.8903219999999994">
        <ele>476.253</ele>
        <time>2022-08-25T11:24:20Z</time>
      </trkpt>
      <trkpt lat="42.67595699999994" lon="-1.8903219999999994">
        <ele>476.484</ele>
        <time>2022-08-25T11:24:21Z</time>
      </trkpt>
      <trkpt lat="42.67596299999994" lon="-1.8903339999999993">
        <ele>476.477</ele>
        <time>2022-08-25T11:24:22Z</time>
      </trkpt>
      <trkpt lat="42.67596899999994" lon="-1.8903429999999992">
        <ele>476.461</ele>
        <time>2022-08-25T11:24:23Z</time>
      </trkpt>
      <trkpt lat="42.675975999999935" lon="-1.8903469999999991">
        <ele>476.627</ele>
        <time>2022-08-25T11:24:24Z</time>
      </trkpt>
      <trkpt lat="42.67598599999994" lon="-1.8903489999999992">
        <ele>476.609</ele>
        <time>2022-08-25T11:24:25Z</time>
      </trkpt>
      <trkpt lat="42.67600199999994" lon="-1.8903449999999993">
        <ele>476.698</ele>
        <time>2022-08-25T11:24:26Z</time>
      </trkpt>
      <trkpt lat="42.67602099999994" lon="-1.8903569999999992">
        <ele>476.858</ele>
        <time>2022-08-25T11:24:28Z</time>
      </trkpt>
      <trkpt lat="42.67602899999994" lon="-1.8903629999999991">
        <ele>477.238</ele>
        <time>2022-08-25T11:24:29Z</time>
      </trkpt>
      <trkpt lat="42.67603199999994" lon="-1.8903649999999992">
        <ele>477.464</ele>
        <time>2022-08-25T11:24:30Z</time>
      </trkpt>
      <trkpt lat="42.67603199999994" lon="-1.8903649999999992">
        <ele>477.686</ele>
        <time>2022-08-25T11:24:31Z</time>
      </trkpt>
      <trkpt lat="42.67603199999994" lon="-1.8903649999999992">
        <ele>478.053</ele>
        <time>2022-08-25T11:24:45Z</time>
      </trkpt>
      <trkpt lat="42.67603199999994" lon="-1.8903649999999992">
        <ele>478.086</ele>
        <time>2022-08-25T11:24:46Z</time>
      </trkpt>
      <trkpt lat="42.67603199999994" lon="-1.8903649999999992">
        <ele>478.042</ele>
        <time>2022-08-25T11:24:49Z</time>
      </trkpt>
      <trkpt lat="42.67603199999994" lon="-1.8903649999999992">
        <ele>478.073</ele>
        <time>2022-08-25T11:24:52Z</time>
      </trkpt>
      <trkpt lat="42.67603199999994" lon="-1.8903619999999992">
        <ele>478.096</ele>
        <time>2022-08-25T11:24:53Z</time>
      </trkpt>
      <trkpt lat="42.67603199999994" lon="-1.8903509999999992">
        <ele>478.031</ele>
        <time>2022-08-25T11:24:54Z</time>
      </trkpt>
      <trkpt lat="42.67603199999994" lon="-1.8903489999999992">
        <ele>477.824</ele>
        <time>2022-08-25T11:24:56Z</time>
      </trkpt>
      <trkpt lat="42.67603499999994" lon="-1.8903489999999992">
        <ele>477.809</ele>
        <time>2022-08-25T11:24:57Z</time>
      </trkpt>
      <trkpt lat="42.67604199999994" lon="-1.890352999999999">
        <ele>477.660</ele>
        <time>2022-08-25T11:24:58Z</time>
      </trkpt>
      <trkpt lat="42.67603999999994" lon="-1.890366999999999">
        <ele>477.420</ele>
        <time>2022-08-25T11:25:00Z</time>
      </trkpt>
      <trkpt lat="42.67603899999994" lon="-1.890394999999999">
        <ele>477.430</ele>
        <time>2022-08-25T11:25:02Z</time>
      </trkpt>
      <trkpt lat="42.67604099999994" lon="-1.890397999999999">
        <ele>477.426</ele>
        <time>2022-08-25T11:25:03Z</time>
      </trkpt>
      <trkpt lat="42.67604099999994" lon="-1.890397999999999">
        <ele>477.438</ele>
        <time>2022-08-25T11:25:04Z</time>
      </trkpt>
      <trkpt lat="42.67604099999994" lon="-1.890397999999999">
        <ele>477.465</ele>
        <time>2022-08-25T11:25:05Z</time>
      </trkpt>
      <trkpt lat="42.67604099999994" lon="-1.890397999999999">
        <ele>477.648</ele>
        <time>2022-08-25T11:25:06Z</time>
      </trkpt>
      <trkpt lat="42.67604099999994" lon="-1.890397999999999">
        <ele>477.854</ele>
        <time>2022-08-25T11:25:07Z</time>
      </trkpt>
      <trkpt lat="42.67604099999994" lon="-1.890397999999999">
        <ele>478.025</ele>
        <time>2022-08-25T11:25:08Z</time>
      </trkpt>
      <trkpt lat="42.67604099999994" lon="-1.890397999999999">
        <ele>478.052</ele>
        <time>2022-08-25T11:25:09Z</time>
      </trkpt>
      <trkpt lat="42.67604099999994" lon="-1.890402999999999">
        <ele>478.253</ele>
        <time>2022-08-25T11:25:10Z</time>
      </trkpt>
      <trkpt lat="42.67603299999994" lon="-1.890445999999999">
        <ele>478.608</ele>
        <time>2022-08-25T11:25:11Z</time>
      </trkpt>
      <trkpt lat="42.67602899999994" lon="-1.890475999999999">
        <ele>478.809</ele>
        <time>2022-08-25T11:25:12Z</time>
      </trkpt>
      <trkpt lat="42.676024999999946" lon="-1.890497999999999">
        <ele>479.256</ele>
        <time>2022-08-25T11:25:13Z</time>
      </trkpt>
      <trkpt lat="42.676022999999944" lon="-1.8905199999999989">
        <ele>479.436</ele>
        <time>2022-08-25T11:25:14Z</time>
      </trkpt>
      <trkpt lat="42.67602099999994" lon="-1.890540999999999">
        <ele>479.496</ele>
        <time>2022-08-25T11:25:15Z</time>
      </trkpt>
      <trkpt lat="42.67601899999994" lon="-1.8905689999999988">
        <ele>479.672</ele>
        <time>2022-08-25T11:25:16Z</time>
      </trkpt>
      <trkpt lat="42.67602099999994" lon="-1.890594999999999">
        <ele>479.844</ele>
        <time>2022-08-25T11:25:17Z</time>
      </trkpt>
      <trkpt lat="42.67602099999994" lon="-1.890620999999999">
        <ele>479.841</ele>
        <time>2022-08-25T11:25:18Z</time>
      </trkpt>
      <trkpt lat="42.676016999999945" lon="-1.890638999999999">
        <ele>480.044</ele>
        <time>2022-08-25T11:25:19Z</time>
      </trkpt>
      <trkpt lat="42.67601599999995" lon="-1.890649999999999">
        <ele>480.050</ele>
        <time>2022-08-25T11:25:20Z</time>
      </trkpt>
      <trkpt lat="42.676013999999945" lon="-1.890654999999999">
        <ele>480.271</ele>
        <time>2022-08-25T11:25:21Z</time>
      </trkpt>
      <trkpt lat="42.67600099999994" lon="-1.890663999999999">
        <ele>480.427</ele>
        <time>2022-08-25T11:25:23Z</time>
      </trkpt>
      <trkpt lat="42.675991999999944" lon="-1.890679999999999">
        <ele>480.468</ele>
        <time>2022-08-25T11:25:24Z</time>
      </trkpt>
      <trkpt lat="42.67598699999994" lon="-1.890696999999999">
        <ele>480.814</ele>
        <time>2022-08-25T11:25:25Z</time>
      </trkpt>
      <trkpt lat="42.675982999999945" lon="-1.890717999999999">
        <ele>481.009</ele>
        <time>2022-08-25T11:25:26Z</time>
      </trkpt>
      <trkpt lat="42.675977999999944" lon="-1.890746999999999">
        <ele>481.283</ele>
        <time>2022-08-25T11:25:27Z</time>
      </trkpt>
      <trkpt lat="42.67597599999994" lon="-1.8907649999999991">
        <ele>481.683</ele>
        <time>2022-08-25T11:25:28Z</time>
      </trkpt>
      <trkpt lat="42.675971999999945" lon="-1.8907779999999992">
        <ele>481.693</ele>
        <time>2022-08-25T11:25:29Z</time>
      </trkpt>
      <trkpt lat="42.67596999999994" lon="-1.8907909999999992">
        <ele>482.019</ele>
        <time>2022-08-25T11:25:30Z</time>
      </trkpt>
      <trkpt lat="42.675954999999945" lon="-1.8908079999999992">
        <ele>482.061</ele>
        <time>2022-08-25T11:25:31Z</time>
      </trkpt>
      <trkpt lat="42.675948999999946" lon="-1.8908129999999992">
        <ele>482.248</ele>
        <time>2022-08-25T11:25:32Z</time>
      </trkpt>
      <trkpt lat="42.675940999999945" lon="-1.8908229999999993">
        <ele>482.231</ele>
        <time>2022-08-25T11:25:33Z</time>
      </trkpt>
      <trkpt lat="42.675931999999946" lon="-1.8908279999999993">
        <ele>482.477</ele>
        <time>2022-08-25T11:25:34Z</time>
      </trkpt>
      <trkpt lat="42.67592199999994" lon="-1.8908349999999994">
        <ele>482.648</ele>
        <time>2022-08-25T11:25:35Z</time>
      </trkpt>
      <trkpt lat="42.675915999999944" lon="-1.8908449999999994">
        <ele>482.673</ele>
        <time>2022-08-25T11:25:36Z</time>
      </trkpt>
      <trkpt lat="42.67591199999995" lon="-1.8908559999999994">
        <ele>482.885</ele>
        <time>2022-08-25T11:25:37Z</time>
      </trkpt>
      <trkpt lat="42.67591099999995" lon="-1.8908659999999995">
        <ele>482.813</ele>
        <time>2022-08-25T11:25:38Z</time>
      </trkpt>
      <trkpt lat="42.67590999999995" lon="-1.8908799999999995">
        <ele>483.009</ele>
        <time>2022-08-25T11:25:39Z</time>
      </trkpt>
      <trkpt lat="42.675908999999955" lon="-1.8908909999999994">
        <ele>483.068</ele>
        <time>2022-08-25T11:25:40Z</time>
      </trkpt>
      <trkpt lat="42.67590699999995" lon="-1.8909019999999994">
        <ele>483.248</ele>
        <time>2022-08-25T11:25:41Z</time>
      </trkpt>
      <trkpt lat="42.67590399999995" lon="-1.8909089999999995">
        <ele>483.418</ele>
        <time>2022-08-25T11:25:42Z</time>
      </trkpt>
      <trkpt lat="42.67590099999995" lon="-1.8909189999999996">
        <ele>483.434</ele>
        <time>2022-08-25T11:25:43Z</time>
      </trkpt>
      <trkpt lat="42.67589899999995" lon="-1.8909329999999995">
        <ele>483.656</ele>
        <time>2022-08-25T11:25:44Z</time>
      </trkpt>
      <trkpt lat="42.67589299999995" lon="-1.8909499999999995">
        <ele>483.873</ele>
        <time>2022-08-25T11:25:45Z</time>
      </trkpt>
      <trkpt lat="42.675888999999955" lon="-1.8909589999999994">
        <ele>483.896</ele>
        <time>2022-08-25T11:25:46Z</time>
      </trkpt>
      <trkpt lat="42.675883999999954" lon="-1.8909689999999995">
        <ele>483.882</ele>
        <time>2022-08-25T11:25:47Z</time>
      </trkpt>
      <trkpt lat="42.675883999999954" lon="-1.8909779999999994">
        <ele>483.823</ele>
        <time>2022-08-25T11:25:48Z</time>
      </trkpt>
      <trkpt lat="42.675880999999954" lon="-1.8909869999999993">
        <ele>484.295</ele>
        <time>2022-08-25T11:25:49Z</time>
      </trkpt>
      <trkpt lat="42.67587399999996" lon="-1.8909979999999993">
        <ele>484.449</ele>
        <time>2022-08-25T11:25:50Z</time>
      </trkpt>
      <trkpt lat="42.675863999999955" lon="-1.8910109999999993">
        <ele>484.423</ele>
        <time>2022-08-25T11:25:51Z</time>
      </trkpt>
      <trkpt lat="42.67584899999996" lon="-1.8910239999999994">
        <ele>484.609</ele>
        <time>2022-08-25T11:25:52Z</time>
      </trkpt>
      <trkpt lat="42.675840999999956" lon="-1.8910339999999994">
        <ele>484.880</ele>
        <time>2022-08-25T11:25:53Z</time>
      </trkpt>
      <trkpt lat="42.67583499999996" lon="-1.8910429999999994">
        <ele>485.060</ele>
        <time>2022-08-25T11:25:54Z</time>
      </trkpt>
      <trkpt lat="42.675826999999956" lon="-1.8910569999999993">
        <ele>485.450</ele>
        <time>2022-08-25T11:25:55Z</time>
      </trkpt>
      <trkpt lat="42.67582499999995" lon="-1.8910609999999992">
        <ele>485.816</ele>
        <time>2022-08-25T11:25:56Z</time>
      </trkpt>
      <trkpt lat="42.67582099999996" lon="-1.8910679999999993">
        <ele>486.068</ele>
        <time>2022-08-25T11:25:57Z</time>
      </trkpt>
      <trkpt lat="42.675818999999954" lon="-1.8910839999999993">
        <ele>486.045</ele>
        <time>2022-08-25T11:25:58Z</time>
      </trkpt>
      <trkpt lat="42.67581699999995" lon="-1.8910949999999993">
        <ele>486.468</ele>
        <time>2022-08-25T11:25:59Z</time>
      </trkpt>
      <trkpt lat="42.67581199999995" lon="-1.8911039999999992">
        <ele>486.684</ele>
        <time>2022-08-25T11:26:00Z</time>
      </trkpt>
      <trkpt lat="42.675804999999954" lon="-1.8911149999999992">
        <ele>487.035</ele>
        <time>2022-08-25T11:26:01Z</time>
      </trkpt>
      <trkpt lat="42.675798999999955" lon="-1.8911219999999993">
        <ele>487.436</ele>
        <time>2022-08-25T11:26:02Z</time>
      </trkpt>
      <trkpt lat="42.67579199999996" lon="-1.8911299999999993">
        <ele>487.617</ele>
        <time>2022-08-25T11:26:03Z</time>
      </trkpt>
      <trkpt lat="42.67578999999996" lon="-1.8911439999999993">
        <ele>487.818</ele>
        <time>2022-08-25T11:26:04Z</time>
      </trkpt>
      <trkpt lat="42.67577999999995" lon="-1.8911609999999992">
        <ele>487.809</ele>
        <time>2022-08-25T11:26:05Z</time>
      </trkpt>
      <trkpt lat="42.67577299999996" lon="-1.8911739999999992">
        <ele>488.054</ele>
        <time>2022-08-25T11:26:06Z</time>
      </trkpt>
      <trkpt lat="42.675762999999954" lon="-1.8911819999999993">
        <ele>488.294</ele>
        <time>2022-08-25T11:26:07Z</time>
      </trkpt>
      <trkpt lat="42.67575499999995" lon="-1.8911899999999993">
        <ele>488.474</ele>
        <time>2022-08-25T11:26:08Z</time>
      </trkpt>
      <trkpt lat="42.675745999999954" lon="-1.8911909999999992">
        <ele>488.850</ele>
        <time>2022-08-25T11:26:09Z</time>
      </trkpt>
      <trkpt lat="42.67572799999996" lon="-1.8911869999999993">
        <ele>488.822</ele>
        <time>2022-08-25T11:26:10Z</time>
      </trkpt>
      <trkpt lat="42.67571099999996" lon="-1.8911799999999992">
        <ele>489.259</ele>
        <time>2022-08-25T11:26:11Z</time>
      </trkpt>
      <trkpt lat="42.675699999999956" lon="-1.8911789999999993">
        <ele>489.212</ele>
        <time>2022-08-25T11:26:12Z</time>
      </trkpt>
      <trkpt lat="42.675685999999956" lon="-1.8911889999999993">
        <ele>489.478</ele>
        <time>2022-08-25T11:26:13Z</time>
      </trkpt>
      <trkpt lat="42.675671999999956" lon="-1.8911989999999994">
        <ele>489.679</ele>
        <time>2022-08-25T11:26:14Z</time>
      </trkpt>
      <trkpt lat="42.67566199999995" lon="-1.8912019999999994">
        <ele>489.688</ele>
        <time>2022-08-25T11:26:15Z</time>
      </trkpt>
      <trkpt lat="42.67565199999995" lon="-1.8912079999999993">
        <ele>489.824</ele>
        <time>2022-08-25T11:26:16Z</time>
      </trkpt>
      <trkpt lat="42.67563499999995" lon="-1.8912139999999993">
        <ele>489.826</ele>
        <time>2022-08-25T11:26:17Z</time>
      </trkpt>
      <trkpt lat="42.67562099999995" lon="-1.8912099999999994">
        <ele>490.009</ele>
        <time>2022-08-25T11:26:18Z</time>
      </trkpt>
      <trkpt lat="42.67560499999995" lon="-1.8912149999999994">
        <ele>490.089</ele>
        <time>2022-08-25T11:26:19Z</time>
      </trkpt>
      <trkpt lat="42.67559599999995" lon="-1.8912179999999994">
        <ele>490.079</ele>
        <time>2022-08-25T11:26:20Z</time>
      </trkpt>
      <trkpt lat="42.67558999999995" lon="-1.8912209999999994">
        <ele>490.259</ele>
        <time>2022-08-25T11:26:21Z</time>
      </trkpt>
      <trkpt lat="42.67557999999995" lon="-1.8912309999999994">
        <ele>490.285</ele>
        <time>2022-08-25T11:26:22Z</time>
      </trkpt>
      <trkpt lat="42.67556799999995" lon="-1.8912419999999994">
        <ele>490.437</ele>
        <time>2022-08-25T11:26:23Z</time>
      </trkpt>
      <trkpt lat="42.67555099999995" lon="-1.8912509999999993">
        <ele>490.494</ele>
        <time>2022-08-25T11:26:24Z</time>
      </trkpt>
      <trkpt lat="42.67553499999995" lon="-1.8912539999999993">
        <ele>490.487</ele>
        <time>2022-08-25T11:26:25Z</time>
      </trkpt>
      <trkpt lat="42.675521999999944" lon="-1.8912519999999993">
        <ele>490.433</ele>
        <time>2022-08-25T11:26:26Z</time>
      </trkpt>
      <trkpt lat="42.675509999999946" lon="-1.8912589999999994">
        <ele>490.684</ele>
        <time>2022-08-25T11:26:27Z</time>
      </trkpt>
      <trkpt lat="42.675504999999944" lon="-1.8912659999999994">
        <ele>490.646</ele>
        <time>2022-08-25T11:26:28Z</time>
      </trkpt>
      <trkpt lat="42.675504999999944" lon="-1.8912659999999994">
        <ele>490.688</ele>
        <time>2022-08-25T11:26:29Z</time>
      </trkpt>
      <trkpt lat="42.675504999999944" lon="-1.8912659999999994">
        <ele>491.016</ele>
        <time>2022-08-25T11:26:42Z</time>
      </trkpt>
      <trkpt lat="42.675504999999944" lon="-1.8912659999999994">
        <ele>491.009</ele>
        <time>2022-08-25T11:26:43Z</time>
      </trkpt>
      <trkpt lat="42.675504999999944" lon="-1.8912659999999994">
        <ele>491.085</ele>
        <time>2022-08-25T11:26:44Z</time>
      </trkpt>
      <trkpt lat="42.67742799999994" lon="-1.8973429999999996">
        <ele>454.885</ele>
        <time>2022-08-25T11:53:37Z</time>
      </trkpt>
      <trkpt lat="42.677401999999944" lon="-1.8974369999999996">
        <ele>454.625</ele>
        <time>2022-08-25T11:53:38Z</time>
      </trkpt>
      <trkpt lat="42.677296999999946" lon="-1.8978429999999995">
        <ele>453.221</ele>
        <time>2022-08-25T11:53:42Z</time>
      </trkpt>
      <trkpt lat="42.677266999999944" lon="-1.8979519999999994">
        <ele>452.883</ele>
        <time>2022-08-25T11:53:43Z</time>
      </trkpt>
      <trkpt lat="42.677234999999946" lon="-1.8980649999999994">
        <ele>452.680</ele>
        <time>2022-08-25T11:53:44Z</time>
      </trkpt>
      <trkpt lat="42.67717299999995" lon="-1.8983029999999994">
        <ele>451.843</ele>
        <time>2022-08-25T11:53:46Z</time>
      </trkpt>
      <trkpt lat="42.677068999999946" lon="-1.8986879999999995">
        <ele>450.029</ele>
        <time>2022-08-25T11:53:49Z</time>
      </trkpt>
      <trkpt lat="42.67703099999994" lon="-1.8988249999999995">
        <ele>449.680</ele>
        <time>2022-08-25T11:53:50Z</time>
      </trkpt>
      <trkpt lat="42.676993999999944" lon="-1.8989619999999996">
        <ele>449.042</ele>
        <time>2022-08-25T11:53:51Z</time>
      </trkpt>
      <trkpt lat="42.676917999999944" lon="-1.8992459999999995">
        <ele>447.422</ele>
        <time>2022-08-25T11:53:53Z</time>
      </trkpt>
      <trkpt lat="42.67683799999995" lon="-1.8995359999999994">
        <ele>446.214</ele>
        <time>2022-08-25T11:53:55Z</time>
      </trkpt>
      <trkpt lat="42.676753999999946" lon="-1.8998289999999995">
        <ele>445.209</ele>
        <time>2022-08-25T11:53:57Z</time>
      </trkpt>
      <trkpt lat="42.676708999999946" lon="-1.8999749999999995">
        <ele>444.415</ele>
        <time>2022-08-25T11:53:58Z</time>
      </trkpt>
      <trkpt lat="42.676610999999944" lon="-1.9002599999999996">
        <ele>443.435</ele>
        <time>2022-08-25T11:54:00Z</time>
      </trkpt>
      <trkpt lat="42.67656099999994" lon="-1.9003999999999996">
        <ele>442.645</ele>
        <time>2022-08-25T11:54:01Z</time>
      </trkpt>
      <trkpt lat="42.67650999999994" lon="-1.9005399999999997">
        <ele>442.281</ele>
        <time>2022-08-25T11:54:02Z</time>
      </trkpt>
      <trkpt lat="42.67650999999994" lon="-1.9005399999999997">
        <ele>441.213</ele>
        <time>2022-08-25T11:54:03Z</time>
      </trkpt>
      <trkpt lat="42.67641299999995" lon="-1.9008169999999998">
        <ele>440.860</ele>
        <time>2022-08-25T11:54:04Z</time>
      </trkpt>
      <trkpt lat="42.67636499999995" lon="-1.9009529999999997">
        <ele>440.043</ele>
        <time>2022-08-25T11:54:05Z</time>
      </trkpt>
      <trkpt lat="42.67636499999995" lon="-1.9009529999999997">
        <ele>439.269</ele>
        <time>2022-08-25T11:54:06Z</time>
      </trkpt>
      <trkpt lat="42.67626899999995" lon="-1.9012189999999998">
        <ele>438.840</ele>
        <time>2022-08-25T11:54:07Z</time>
      </trkpt>
      <trkpt lat="42.67622299999995" lon="-1.9013509999999998">
        <ele>438.028</ele>
        <time>2022-08-25T11:54:08Z</time>
      </trkpt>
      <trkpt lat="42.67617999999995" lon="-1.9014769999999999">
        <ele>437.689</ele>
        <time>2022-08-25T11:54:09Z</time>
      </trkpt>
      <trkpt lat="42.676136999999954" lon="-1.901603">
        <ele>437.017</ele>
        <time>2022-08-25T11:54:10Z</time>
      </trkpt>
      <trkpt lat="42.67609399999996" lon="-1.901726">
        <ele>436.209</ele>
        <time>2022-08-25T11:54:11Z</time>
      </trkpt>
      <trkpt lat="42.67605099999996" lon="-1.90185">
        <ele>435.663</ele>
        <time>2022-08-25T11:54:12Z</time>
      </trkpt>
      <trkpt lat="42.67600799999996" lon="-1.901971">
        <ele>435.013</ele>
        <time>2022-08-25T11:54:13Z</time>
      </trkpt>
      <trkpt lat="42.67596799999996" lon="-1.90209">
        <ele>434.833</ele>
        <time>2022-08-25T11:54:14Z</time>
      </trkpt>
      <trkpt lat="42.67592699999996" lon="-1.9022080000000001">
        <ele>434.439</ele>
        <time>2022-08-25T11:54:15Z</time>
      </trkpt>
      <trkpt lat="42.675885999999956" lon="-1.9023240000000001">
        <ele>434.011</ele>
        <time>2022-08-25T11:54:16Z</time>
      </trkpt>
      <trkpt lat="42.67584599999996" lon="-1.902441">
        <ele>433.498</ele>
        <time>2022-08-25T11:54:17Z</time>
      </trkpt>
      <trkpt lat="42.67580599999996" lon="-1.902557">
        <ele>433.051</ele>
        <time>2022-08-25T11:54:18Z</time>
      </trkpt>
      <trkpt lat="42.67576699999996" lon="-1.902674">
        <ele>432.817</ele>
        <time>2022-08-25T11:54:19Z</time>
      </trkpt>
      <trkpt lat="42.675728999999954" lon="-1.90279">
        <ele>432.058</ele>
        <time>2022-08-25T11:54:20Z</time>
      </trkpt>
      <trkpt lat="42.675691999999955" lon="-1.902905">
        <ele>431.636</ele>
        <time>2022-08-25T11:54:21Z</time>
      </trkpt>
      <trkpt lat="42.675691999999955" lon="-1.902905">
        <ele>431.017</ele>
        <time>2022-08-25T11:54:22Z</time>
      </trkpt>
      <trkpt lat="42.67561499999996" lon="-1.903134">
        <ele>430.418</ele>
        <time>2022-08-25T11:54:23Z</time>
      </trkpt>
      <trkpt lat="42.67549899999996" lon="-1.903466">
        <ele>429.409</ele>
        <time>2022-08-25T11:54:26Z</time>
      </trkpt>
      <trkpt lat="42.67540999999996" lon="-1.9036810000000002">
        <ele>428.484</ele>
        <time>2022-08-25T11:54:28Z</time>
      </trkpt>
      <trkpt lat="42.67535799999996" lon="-1.9037880000000003">
        <ele>428.044</ele>
        <time>2022-08-25T11:54:29Z</time>
      </trkpt>
      <trkpt lat="42.67524399999996" lon="-1.9039940000000002">
        <ele>427.034</ele>
        <time>2022-08-25T11:54:31Z</time>
      </trkpt>
      <trkpt lat="42.67505799999996" lon="-1.9043040000000002">
        <ele>425.860</ele>
        <time>2022-08-25T11:54:34Z</time>
      </trkpt>
      <trkpt lat="42.674928999999956" lon="-1.9045100000000001">
        <ele>424.852</ele>
        <time>2022-08-25T11:54:36Z</time>
      </trkpt>
      <trkpt lat="42.67472499999996" lon="-1.904821">
        <ele>423.489</ele>
        <time>2022-08-25T11:54:39Z</time>
      </trkpt>
      <trkpt lat="42.67458499999996" lon="-1.9050250000000002">
        <ele>422.272</ele>
        <time>2022-08-25T11:54:41Z</time>
      </trkpt>
      <trkpt lat="42.674371999999956" lon="-1.9053370000000003">
        <ele>421.058</ele>
        <time>2022-08-25T11:54:44Z</time>
      </trkpt>
      <trkpt lat="42.674230999999956" lon="-1.9055530000000003">
        <ele>419.879</ele>
        <time>2022-08-25T11:54:46Z</time>
      </trkpt>
      <trkpt lat="42.674087999999955" lon="-1.9057760000000004">
        <ele>418.662</ele>
        <time>2022-08-25T11:54:48Z</time>
      </trkpt>
      <trkpt lat="42.67394899999996" lon="-1.9060020000000004">
        <ele>417.483</ele>
        <time>2022-08-25T11:54:50Z</time>
      </trkpt>
      <trkpt lat="42.673881999999956" lon="-1.9061160000000004">
        <ele>416.811</ele>
        <time>2022-08-25T11:54:51Z</time>
      </trkpt>
      <trkpt lat="42.673817999999955" lon="-1.9062320000000004">
        <ele>416.209</ele>
        <time>2022-08-25T11:54:52Z</time>
      </trkpt>
      <trkpt lat="42.67369899999996" lon="-1.9064660000000004">
        <ele>415.267</ele>
        <time>2022-08-25T11:54:54Z</time>
      </trkpt>
      <trkpt lat="42.67364399999995" lon="-1.9065850000000004">
        <ele>415.067</ele>
        <time>2022-08-25T11:54:55Z</time>
      </trkpt>
      <trkpt lat="42.673589999999955" lon="-1.9067050000000003">
        <ele>414.497</ele>
        <time>2022-08-25T11:54:56Z</time>
      </trkpt>
      <trkpt lat="42.673538999999955" lon="-1.9068240000000003">
        <ele>414.053</ele>
        <time>2022-08-25T11:54:57Z</time>
      </trkpt>
      <trkpt lat="42.67348999999996" lon="-1.9069440000000002">
        <ele>413.895</ele>
        <time>2022-08-25T11:54:58Z</time>
      </trkpt>
      <trkpt lat="42.673445999999956" lon="-1.9070670000000003">
        <ele>413.422</ele>
        <time>2022-08-25T11:54:59Z</time>
      </trkpt>
      <trkpt lat="42.67340499999995" lon="-1.9071900000000004">
        <ele>413.015</ele>
        <time>2022-08-25T11:55:00Z</time>
      </trkpt>
      <trkpt lat="42.673364999999954" lon="-1.9073130000000005">
        <ele>412.481</ele>
        <time>2022-08-25T11:55:01Z</time>
      </trkpt>
      <trkpt lat="42.67332699999995" lon="-1.9074370000000005">
        <ele>412.232</ele>
        <time>2022-08-25T11:55:02Z</time>
      </trkpt>
      <trkpt lat="42.67325599999995" lon="-1.9076960000000005">
        <ele>411.098</ele>
        <time>2022-08-25T11:55:04Z</time>
      </trkpt>
      <trkpt lat="42.67316999999995" lon="-1.9080920000000006">
        <ele>409.815</ele>
        <time>2022-08-25T11:55:07Z</time>
      </trkpt>
      <trkpt lat="42.673145999999946" lon="-1.9082240000000006">
        <ele>408.826</ele>
        <time>2022-08-25T11:55:08Z</time>
      </trkpt>
      <trkpt lat="42.67312499999995" lon="-1.9083560000000006">
        <ele>408.209</ele>
        <time>2022-08-25T11:55:09Z</time>
      </trkpt>
      <trkpt lat="42.67310599999995" lon="-1.9084860000000006">
        <ele>407.650</ele>
        <time>2022-08-25T11:55:10Z</time>
      </trkpt>
      <trkpt lat="42.67309099999995" lon="-1.9086160000000005">
        <ele>406.810</ele>
        <time>2022-08-25T11:55:11Z</time>
      </trkpt>
      <trkpt lat="42.673066999999946" lon="-1.9088810000000005">
        <ele>405.470</ele>
        <time>2022-08-25T11:55:13Z</time>
      </trkpt>
      <trkpt lat="42.673058999999945" lon="-1.9090140000000004">
        <ele>405.026</ele>
        <time>2022-08-25T11:55:14Z</time>
      </trkpt>
      <trkpt lat="42.673052999999946" lon="-1.9091500000000003">
        <ele>404.218</ele>
        <time>2022-08-25T11:55:15Z</time>
      </trkpt>
      <trkpt lat="42.67304899999995" lon="-1.9092830000000003">
        <ele>403.885</ele>
        <time>2022-08-25T11:55:16Z</time>
      </trkpt>
      <trkpt lat="42.67304599999995" lon="-1.9094150000000003">
        <ele>403.258</ele>
        <time>2022-08-25T11:55:17Z</time>
      </trkpt>
      <trkpt lat="42.67304699999995" lon="-1.9096780000000002">
        <ele>402.024</ele>
        <time>2022-08-25T11:55:19Z</time>
      </trkpt>
      <trkpt lat="42.673058999999945" lon="-1.9099420000000003">
        <ele>401.015</ele>
        <time>2022-08-25T11:55:21Z</time>
      </trkpt>
      <trkpt lat="42.673058999999945" lon="-1.9099420000000003">
        <ele>400.624</ele>
        <time>2022-08-25T11:55:22Z</time>
      </trkpt>
      <trkpt lat="42.673117999999945" lon="-1.9104710000000003">
        <ele>399.204</ele>
        <time>2022-08-25T11:55:25Z</time>
      </trkpt>
      <trkpt lat="42.67316099999994" lon="-1.9107360000000002">
        <ele>398.414</ele>
        <time>2022-08-25T11:55:27Z</time>
      </trkpt>
      <trkpt lat="42.67318499999995" lon="-1.9108680000000002">
        <ele>397.809</ele>
        <time>2022-08-25T11:55:28Z</time>
      </trkpt>
      <trkpt lat="42.67321199999995" lon="-1.9109980000000002">
        <ele>397.683</ele>
        <time>2022-08-25T11:55:29Z</time>
      </trkpt>
      <trkpt lat="42.67323799999995" lon="-1.9111300000000002">
        <ele>396.653</ele>
        <time>2022-08-25T11:55:30Z</time>
      </trkpt>
      <trkpt lat="42.67336099999995" lon="-1.9116480000000002">
        <ele>395.483</ele>
        <time>2022-08-25T11:55:34Z</time>
      </trkpt>
      <trkpt lat="42.67339299999995" lon="-1.9117760000000001">
        <ele>394.089</ele>
        <time>2022-08-25T11:55:35Z</time>
      </trkpt>
      <trkpt lat="42.67342599999995" lon="-1.9119000000000002">
        <ele>393.621</ele>
        <time>2022-08-25T11:55:36Z</time>
      </trkpt>
      <trkpt lat="42.67345799999995" lon="-1.9120240000000002">
        <ele>392.678</ele>
        <time>2022-08-25T11:55:37Z</time>
      </trkpt>
      <trkpt lat="42.67349099999995" lon="-1.9121450000000002">
        <ele>392.241</ele>
        <time>2022-08-25T11:55:38Z</time>
      </trkpt>
      <trkpt lat="42.673522999999946" lon="-1.9122660000000002">
        <ele>391.697</ele>
        <time>2022-08-25T11:55:39Z</time>
      </trkpt>
      <trkpt lat="42.67355499999994" lon="-1.9123840000000003">
        <ele>391.258</ele>
        <time>2022-08-25T11:55:40Z</time>
      </trkpt>
      <trkpt lat="42.67358599999994" lon="-1.9125030000000003">
        <ele>391.023</ele>
        <time>2022-08-25T11:55:41Z</time>
      </trkpt>
      <trkpt lat="42.67361699999994" lon="-1.9126200000000002">
        <ele>390.683</ele>
        <time>2022-08-25T11:55:42Z</time>
      </trkpt>
      <trkpt lat="42.67364899999994" lon="-1.912732">
        <ele>390.211</ele>
        <time>2022-08-25T11:55:43Z</time>
      </trkpt>
      <trkpt lat="42.67368299999994" lon="-1.912841">
        <ele>389.609</ele>
        <time>2022-08-25T11:55:44Z</time>
      </trkpt>
      <trkpt lat="42.67371699999994" lon="-1.91295">
        <ele>389.273</ele>
        <time>2022-08-25T11:55:45Z</time>
      </trkpt>
      <trkpt lat="42.67375099999994" lon="-1.9130559999999999">
        <ele>388.823</ele>
        <time>2022-08-25T11:55:46Z</time>
      </trkpt>
      <trkpt lat="42.673785999999936" lon="-1.9131589999999998">
        <ele>388.263</ele>
        <time>2022-08-25T11:55:47Z</time>
      </trkpt>
      <trkpt lat="42.67382199999994" lon="-1.913263">
        <ele>388.069</ele>
        <time>2022-08-25T11:55:48Z</time>
      </trkpt>
      <trkpt lat="42.67382199999994" lon="-1.913263">
        <ele>387.261</ele>
        <time>2022-08-25T11:55:49Z</time>
      </trkpt>
      <trkpt lat="42.67389199999994" lon="-1.913468">
        <ele>386.898</ele>
        <time>2022-08-25T11:55:50Z</time>
      </trkpt>
      <trkpt lat="42.67392499999994" lon="-1.913568">
        <ele>386.231</ele>
        <time>2022-08-25T11:55:51Z</time>
      </trkpt>
      <trkpt lat="42.67395699999994" lon="-1.9136659999999999">
        <ele>385.887</ele>
        <time>2022-08-25T11:55:52Z</time>
      </trkpt>
      <trkpt lat="42.67398399999994" lon="-1.9137659999999999">
        <ele>385.618</ele>
        <time>2022-08-25T11:55:53Z</time>
      </trkpt>
      <trkpt lat="42.67401299999994" lon="-1.9138589999999998">
        <ele>385.675</ele>
        <time>2022-08-25T11:55:54Z</time>
      </trkpt>
      <trkpt lat="42.67404099999994" lon="-1.9139519999999997">
        <ele>385.428</ele>
        <time>2022-08-25T11:55:55Z</time>
      </trkpt>
      <trkpt lat="42.674069999999936" lon="-1.9140459999999997">
        <ele>385.220</ele>
        <time>2022-08-25T11:55:56Z</time>
      </trkpt>
      <trkpt lat="42.67412899999994" lon="-1.9142369999999997">
        <ele>384.209</ele>
        <time>2022-08-25T11:55:58Z</time>
      </trkpt>
      <trkpt lat="42.67416199999994" lon="-1.9143309999999998">
        <ele>383.868</ele>
        <time>2022-08-25T11:55:59Z</time>
      </trkpt>
      <trkpt lat="42.674255999999936" lon="-1.9145969999999999">
        <ele>383.248</ele>
        <time>2022-08-25T11:56:02Z</time>
      </trkpt>
      <trkpt lat="42.67428599999994" lon="-1.9146859999999999">
        <ele>383.038</ele>
        <time>2022-08-25T11:56:03Z</time>
      </trkpt>
      <trkpt lat="42.67428599999994" lon="-1.9146859999999999">
        <ele>382.844</ele>
        <time>2022-08-25T11:56:04Z</time>
      </trkpt>
      <trkpt lat="42.67434499999994" lon="-1.914858">
        <ele>382.686</ele>
        <time>2022-08-25T11:56:05Z</time>
      </trkpt>
      <trkpt lat="42.67437499999994" lon="-1.914942">
        <ele>382.623</ele>
        <time>2022-08-25T11:56:06Z</time>
      </trkpt>
      <trkpt lat="42.674401999999944" lon="-1.915025">
        <ele>382.456</ele>
        <time>2022-08-25T11:56:07Z</time>
      </trkpt>
      <trkpt lat="42.67445399999994" lon="-1.915187">
        <ele>382.042</ele>
        <time>2022-08-25T11:56:09Z</time>
      </trkpt>
      <trkpt lat="42.67447899999994" lon="-1.915265">
        <ele>381.853</ele>
        <time>2022-08-25T11:56:10Z</time>
      </trkpt>
      <trkpt lat="42.674502999999945" lon="-1.91534">
        <ele>381.862</ele>
        <time>2022-08-25T11:56:11Z</time>
      </trkpt>
      <trkpt lat="42.674527999999945" lon="-1.915414">
        <ele>381.683</ele>
        <time>2022-08-25T11:56:12Z</time>
      </trkpt>
      <trkpt lat="42.674552999999946" lon="-1.915487">
        <ele>381.611</ele>
        <time>2022-08-25T11:56:13Z</time>
      </trkpt>
      <trkpt lat="42.67457699999995" lon="-1.915556">
        <ele>381.609</ele>
        <time>2022-08-25T11:56:14Z</time>
      </trkpt>
      <trkpt lat="42.67459899999995" lon="-1.915624">
        <ele>381.677</ele>
        <time>2022-08-25T11:56:15Z</time>
      </trkpt>
      <trkpt lat="42.67462099999995" lon="-1.915689">
        <ele>381.687</ele>
        <time>2022-08-25T11:56:16Z</time>
      </trkpt>
      <trkpt lat="42.67463799999995" lon="-1.915756">
        <ele>381.667</ele>
        <time>2022-08-25T11:56:17Z</time>
      </trkpt>
      <trkpt lat="42.67465899999995" lon="-1.915818">
        <ele>381.423</ele>
        <time>2022-08-25T11:56:18Z</time>
      </trkpt>
      <trkpt lat="42.67467899999995" lon="-1.915876">
        <ele>381.475</ele>
        <time>2022-08-25T11:56:19Z</time>
      </trkpt>
      <trkpt lat="42.67469899999995" lon="-1.9159309999999998">
        <ele>381.622</ele>
        <time>2022-08-25T11:56:20Z</time>
      </trkpt>
      <trkpt lat="42.674716999999944" lon="-1.915984">
        <ele>381.665</ele>
        <time>2022-08-25T11:56:21Z</time>
      </trkpt>
      <trkpt lat="42.67473299999995" lon="-1.916035">
        <ele>381.671</ele>
        <time>2022-08-25T11:56:22Z</time>
      </trkpt>
      <trkpt lat="42.674749999999946" lon="-1.916085">
        <ele>381.652</ele>
        <time>2022-08-25T11:56:23Z</time>
      </trkpt>
      <trkpt lat="42.67476599999995" lon="-1.916132">
        <ele>381.623</ele>
        <time>2022-08-25T11:56:24Z</time>
      </trkpt>
      <trkpt lat="42.67478299999995" lon="-1.916175">
        <ele>381.483</ele>
        <time>2022-08-25T11:56:25Z</time>
      </trkpt>
      <trkpt lat="42.67479999999995" lon="-1.916219">
        <ele>381.411</ele>
        <time>2022-08-25T11:56:26Z</time>
      </trkpt>
      <trkpt lat="42.674814999999946" lon="-1.9162629999999998">
        <ele>381.409</ele>
        <time>2022-08-25T11:56:27Z</time>
      </trkpt>
      <trkpt lat="42.674826999999944" lon="-1.916308">
        <ele>381.493</ele>
        <time>2022-08-25T11:56:28Z</time>
      </trkpt>
      <trkpt lat="42.67484199999994" lon="-1.91635">
        <ele>381.453</ele>
        <time>2022-08-25T11:56:29Z</time>
      </trkpt>
      <trkpt lat="42.674857999999944" lon="-1.916392">
        <ele>381.443</ele>
        <time>2022-08-25T11:56:30Z</time>
      </trkpt>
      <trkpt lat="42.674871999999944" lon="-1.9164340000000002">
        <ele>381.459</ele>
        <time>2022-08-25T11:56:31Z</time>
      </trkpt>
      <trkpt lat="42.674885999999944" lon="-1.916473">
        <ele>381.641</ele>
        <time>2022-08-25T11:56:32Z</time>
      </trkpt>
      <trkpt lat="42.674899999999944" lon="-1.9165130000000001">
        <ele>381.628</ele>
        <time>2022-08-25T11:56:33Z</time>
      </trkpt>
      <trkpt lat="42.674910999999945" lon="-1.916554">
        <ele>381.881</ele>
        <time>2022-08-25T11:56:34Z</time>
      </trkpt>
      <trkpt lat="42.67492299999994" lon="-1.9165940000000001">
        <ele>381.887</ele>
        <time>2022-08-25T11:56:35Z</time>
      </trkpt>
      <trkpt lat="42.67493699999994" lon="-1.9166310000000002">
        <ele>381.688</ele>
        <time>2022-08-25T11:56:36Z</time>
      </trkpt>
      <trkpt lat="42.67494899999994" lon="-1.9166670000000001">
        <ele>381.837</ele>
        <time>2022-08-25T11:56:37Z</time>
      </trkpt>
      <trkpt lat="42.67495799999994" lon="-1.9167040000000002">
        <ele>381.649</ele>
        <time>2022-08-25T11:56:38Z</time>
      </trkpt>
      <trkpt lat="42.67496799999994" lon="-1.9167420000000002">
        <ele>381.813</ele>
        <time>2022-08-25T11:56:39Z</time>
      </trkpt>
      <trkpt lat="42.67499599999994" lon="-1.9168060000000002">
        <ele>382.009</ele>
        <time>2022-08-25T11:56:41Z</time>
      </trkpt>
      <trkpt lat="42.675006999999944" lon="-1.9168370000000001">
        <ele>382.214</ele>
        <time>2022-08-25T11:56:42Z</time>
      </trkpt>
      <trkpt lat="42.67501899999994" lon="-1.916867">
        <ele>382.274</ele>
        <time>2022-08-25T11:56:43Z</time>
      </trkpt>
      <trkpt lat="42.675031999999945" lon="-1.9169040000000002">
        <ele>382.244</ele>
        <time>2022-08-25T11:56:44Z</time>
      </trkpt>
      <trkpt lat="42.67506399999994" lon="-1.9169880000000001">
        <ele>382.250</ele>
        <time>2022-08-25T11:56:47Z</time>
      </trkpt>
      <trkpt lat="42.675076999999945" lon="-1.917018">
        <ele>382.232</ele>
        <time>2022-08-25T11:56:48Z</time>
      </trkpt>
      <trkpt lat="42.67508699999995" lon="-1.917049">
        <ele>382.269</ele>
        <time>2022-08-25T11:56:49Z</time>
      </trkpt>
      <trkpt lat="42.67510599999995" lon="-1.917112">
        <ele>382.292</ele>
        <time>2022-08-25T11:56:51Z</time>
      </trkpt>
      <trkpt lat="42.67516399999995" lon="-1.917277">
        <ele>382.258</ele>
        <time>2022-08-25T11:56:56Z</time>
      </trkpt>
      <trkpt lat="42.67517599999995" lon="-1.9173099999999998">
        <ele>382.259</ele>
        <time>2022-08-25T11:56:57Z</time>
      </trkpt>
      <trkpt lat="42.67519899999995" lon="-1.9173779999999998">
        <ele>382.221</ele>
        <time>2022-08-25T11:56:59Z</time>
      </trkpt>
      <trkpt lat="42.67526699999995" lon="-1.9175839999999997">
        <ele>382.241</ele>
        <time>2022-08-25T11:57:05Z</time>
      </trkpt>
      <trkpt lat="42.67531099999995" lon="-1.9177189999999997">
        <ele>382.205</ele>
        <time>2022-08-25T11:57:09Z</time>
      </trkpt>
      <trkpt lat="42.675320999999954" lon="-1.9177519999999997">
        <ele>382.409</ele>
        <time>2022-08-25T11:57:10Z</time>
      </trkpt>
      <trkpt lat="42.675382999999954" lon="-1.9179439999999996">
        <ele>382.643</ele>
        <time>2022-08-25T11:57:15Z</time>
      </trkpt>
      <trkpt lat="42.67542299999995" lon="-1.9180549999999996">
        <ele>382.883</ele>
        <time>2022-08-25T11:57:18Z</time>
      </trkpt>
      <trkpt lat="42.67543799999995" lon="-1.9180909999999995">
        <ele>382.843</ele>
        <time>2022-08-25T11:57:19Z</time>
      </trkpt>
      <trkpt lat="42.67545099999995" lon="-1.9181269999999995">
        <ele>382.879</ele>
        <time>2022-08-25T11:57:20Z</time>
      </trkpt>
      <trkpt lat="42.67547899999995" lon="-1.9181959999999996">
        <ele>382.851</ele>
        <time>2022-08-25T11:57:22Z</time>
      </trkpt>
      <trkpt lat="42.675491999999956" lon="-1.9182319999999995">
        <ele>382.868</ele>
        <time>2022-08-25T11:57:23Z</time>
      </trkpt>
      <trkpt lat="42.675503999999954" lon="-1.9182659999999996">
        <ele>382.821</ele>
        <time>2022-08-25T11:57:24Z</time>
      </trkpt>
      <trkpt lat="42.675514999999955" lon="-1.9182999999999997">
        <ele>382.847</ele>
        <time>2022-08-25T11:57:25Z</time>
      </trkpt>
      <trkpt lat="42.675522999999956" lon="-1.9183369999999997">
        <ele>382.868</ele>
        <time>2022-08-25T11:57:26Z</time>
      </trkpt>
      <trkpt lat="42.67555799999995" lon="-1.9184439999999998">
        <ele>382.857</ele>
        <time>2022-08-25T11:57:29Z</time>
      </trkpt>
      <trkpt lat="42.675570999999955" lon="-1.9184789999999998">
        <ele>382.800</ele>
        <time>2022-08-25T11:57:31Z</time>
      </trkpt>
      <trkpt lat="42.675635999999955" lon="-1.9186609999999997">
        <ele>383.020</ele>
        <time>2022-08-25T11:57:35Z</time>
      </trkpt>
      <trkpt lat="42.675646999999955" lon="-1.9186979999999998">
        <ele>383.009</ele>
        <time>2022-08-25T11:57:36Z</time>
      </trkpt>
      <trkpt lat="42.67567099999996" lon="-1.9187699999999999">
        <ele>383.276</ele>
        <time>2022-08-25T11:57:38Z</time>
      </trkpt>
      <trkpt lat="42.67568099999996" lon="-1.9188029999999998">
        <ele>383.246</ele>
        <time>2022-08-25T11:57:39Z</time>
      </trkpt>
      <trkpt lat="42.67568899999996" lon="-1.9188399999999999">
        <ele>383.296</ele>
        <time>2022-08-25T11:57:40Z</time>
      </trkpt>
      <trkpt lat="42.675696999999964" lon="-1.9188709999999998">
        <ele>383.232</ele>
        <time>2022-08-25T11:57:41Z</time>
      </trkpt>
      <trkpt lat="42.67570999999997" lon="-1.9189049999999999">
        <ele>383.254</ele>
        <time>2022-08-25T11:57:42Z</time>
      </trkpt>
      <trkpt lat="42.67572099999997" lon="-1.9189349999999998">
        <ele>383.231</ele>
        <time>2022-08-25T11:57:43Z</time>
      </trkpt>
      <trkpt lat="42.67573399999997" lon="-1.9189729999999998">
        <ele>383.274</ele>
        <time>2022-08-25T11:57:44Z</time>
      </trkpt>
      <trkpt lat="42.67574299999997" lon="-1.918999">
        <ele>383.460</ele>
        <time>2022-08-25T11:57:45Z</time>
      </trkpt>
      <trkpt lat="42.67577599999997" lon="-1.91909">
        <ele>383.681</ele>
        <time>2022-08-25T11:57:48Z</time>
      </trkpt>
      <trkpt lat="42.675785999999974" lon="-1.91912">
        <ele>383.674</ele>
        <time>2022-08-25T11:57:49Z</time>
      </trkpt>
      <trkpt lat="42.675796999999974" lon="-1.9191509999999998">
        <ele>383.856</ele>
        <time>2022-08-25T11:57:50Z</time>
      </trkpt>
      <trkpt lat="42.675807999999975" lon="-1.9191809999999998">
        <ele>383.821</ele>
        <time>2022-08-25T11:57:51Z</time>
      </trkpt>
      <trkpt lat="42.67581999999997" lon="-1.9192099999999999">
        <ele>383.809</ele>
        <time>2022-08-25T11:57:52Z</time>
      </trkpt>
      <trkpt lat="42.675827999999974" lon="-1.9192399999999998">
        <ele>383.868</ele>
        <time>2022-08-25T11:57:53Z</time>
      </trkpt>
      <trkpt lat="42.67583399999997" lon="-1.9192719999999999">
        <ele>384.018</ele>
        <time>2022-08-25T11:57:54Z</time>
      </trkpt>
      <trkpt lat="42.67584099999997" lon="-1.9192999999999998">
        <ele>384.088</ele>
        <time>2022-08-25T11:57:55Z</time>
      </trkpt>
      <trkpt lat="42.67584999999997" lon="-1.9193259999999999">
        <ele>384.254</ele>
        <time>2022-08-25T11:57:56Z</time>
      </trkpt>
      <trkpt lat="42.67584999999997" lon="-1.9193259999999999">
        <ele>384.286</ele>
        <time>2022-08-25T11:57:57Z</time>
      </trkpt>
      <trkpt lat="42.67587499999997" lon="-1.9193769999999999">
        <ele>384.293</ele>
        <time>2022-08-25T11:57:58Z</time>
      </trkpt>
      <trkpt lat="42.67588599999997" lon="-1.9194039999999999">
        <ele>384.436</ele>
        <time>2022-08-25T11:57:59Z</time>
      </trkpt>
      <trkpt lat="42.67589299999997" lon="-1.9194349999999998">
        <ele>384.442</ele>
        <time>2022-08-25T11:58:00Z</time>
      </trkpt>
      <trkpt lat="42.67589999999996" lon="-1.9194669999999998">
        <ele>384.483</ele>
        <time>2022-08-25T11:58:01Z</time>
      </trkpt>
      <trkpt lat="42.675918999999965" lon="-1.9195619999999998">
        <ele>384.672</ele>
        <time>2022-08-25T11:58:04Z</time>
      </trkpt>
      <trkpt lat="42.67595899999996" lon="-1.9196409999999997">
        <ele>384.613</ele>
        <time>2022-08-25T11:58:07Z</time>
      </trkpt>
      <trkpt lat="42.67596899999997" lon="-1.9196649999999997">
        <ele>384.814</ele>
        <time>2022-08-25T11:58:08Z</time>
      </trkpt>
      <trkpt lat="42.67597599999996" lon="-1.9196889999999998">
        <ele>384.809</ele>
        <time>2022-08-25T11:58:09Z</time>
      </trkpt>
      <trkpt lat="42.675980999999965" lon="-1.9197159999999998">
        <ele>384.828</ele>
        <time>2022-08-25T11:58:10Z</time>
      </trkpt>
      <trkpt lat="42.676045999999964" lon="-1.9199279999999999">
        <ele>385.678</ele>
        <time>2022-08-25T11:58:18Z</time>
      </trkpt>
      <trkpt lat="42.676045999999964" lon="-1.9199279999999999">
        <ele>385.828</ele>
        <time>2022-08-25T11:58:19Z</time>
      </trkpt>
      <trkpt lat="42.67608099999996" lon="-1.920038">
        <ele>386.014</ele>
        <time>2022-08-25T11:58:22Z</time>
      </trkpt>
      <trkpt lat="42.67608599999996" lon="-1.920062">
        <ele>386.236</ele>
        <time>2022-08-25T11:58:23Z</time>
      </trkpt>
      <trkpt lat="42.67608999999996" lon="-1.920083">
        <ele>386.433</ele>
        <time>2022-08-25T11:58:24Z</time>
      </trkpt>
      <trkpt lat="42.676096999999956" lon="-1.920103">
        <ele>386.496</ele>
        <time>2022-08-25T11:58:25Z</time>
      </trkpt>
      <trkpt lat="42.676110999999956" lon="-1.920119">
        <ele>386.662</ele>
        <time>2022-08-25T11:58:26Z</time>
      </trkpt>
      <trkpt lat="42.676124999999956" lon="-1.9201359999999998">
        <ele>386.673</ele>
        <time>2022-08-25T11:58:27Z</time>
      </trkpt>
      <trkpt lat="42.67613599999996" lon="-1.9201559999999998">
        <ele>386.831</ele>
        <time>2022-08-25T11:58:28Z</time>
      </trkpt>
      <trkpt lat="42.67614299999995" lon="-1.9201759999999997">
        <ele>386.861</ele>
        <time>2022-08-25T11:58:29Z</time>
      </trkpt>
      <trkpt lat="42.676156999999954" lon="-1.9202199999999996">
        <ele>386.807</ele>
        <time>2022-08-25T11:58:31Z</time>
      </trkpt>
      <trkpt lat="42.67616699999996" lon="-1.9202439999999996">
        <ele>387.009</ele>
        <time>2022-08-25T11:58:32Z</time>
      </trkpt>
      <trkpt lat="42.67617999999996" lon="-1.9202669999999997">
        <ele>387.254</ele>
        <time>2022-08-25T11:58:33Z</time>
      </trkpt>
      <trkpt lat="42.67619599999996" lon="-1.9203159999999997">
        <ele>387.274</ele>
        <time>2022-08-25T11:58:35Z</time>
      </trkpt>
      <trkpt lat="42.67620399999996" lon="-1.9203379999999997">
        <ele>387.414</ele>
        <time>2022-08-25T11:58:36Z</time>
      </trkpt>
      <trkpt lat="42.676216999999966" lon="-1.9203889999999997">
        <ele>387.840</ele>
        <time>2022-08-25T11:58:39Z</time>
      </trkpt>
      <trkpt lat="42.676281999999965" lon="-1.9205819999999998">
        <ele>388.282</ele>
        <time>2022-08-25T11:58:45Z</time>
      </trkpt>
      <trkpt lat="42.67630099999997" lon="-1.9206399999999997">
        <ele>388.229</ele>
        <time>2022-08-25T11:58:47Z</time>
      </trkpt>
      <trkpt lat="42.676309999999965" lon="-1.9206619999999996">
        <ele>388.262</ele>
        <time>2022-08-25T11:58:48Z</time>
      </trkpt>
      <trkpt lat="42.676317999999966" lon="-1.9206869999999996">
        <ele>388.278</ele>
        <time>2022-08-25T11:58:49Z</time>
      </trkpt>
      <trkpt lat="42.67636699999996" lon="-1.9208479999999997">
        <ele>388.669</ele>
        <time>2022-08-25T11:58:56Z</time>
      </trkpt>
      <trkpt lat="42.67638499999996" lon="-1.9209359999999998">
        <ele>388.829</ele>
        <time>2022-08-25T11:58:58Z</time>
      </trkpt>
      <trkpt lat="42.67639899999996" lon="-1.9209979999999998">
        <ele>388.800</ele>
        <time>2022-08-25T11:59:00Z</time>
      </trkpt>
      <trkpt lat="42.67644499999996" lon="-1.9211519999999997">
        <ele>389.620</ele>
        <time>2022-08-25T11:59:05Z</time>
      </trkpt>
      <trkpt lat="42.67645299999996" lon="-1.9211829999999996">
        <ele>389.809</ele>
        <time>2022-08-25T11:59:06Z</time>
      </trkpt>
      <trkpt lat="42.67648699999996" lon="-1.9213039999999997">
        <ele>390.233</ele>
        <time>2022-08-25T11:59:10Z</time>
      </trkpt>
      <trkpt lat="42.676552999999956" lon="-1.9214789999999997">
        <ele>390.673</ele>
        <time>2022-08-25T11:59:16Z</time>
      </trkpt>
      <trkpt lat="42.67667899999996" lon="-1.9218059999999997">
        <ele>391.043</ele>
        <time>2022-08-25T11:59:27Z</time>
      </trkpt>
      <trkpt lat="42.67669599999996" lon="-1.9218719999999996">
        <ele>391.059</ele>
        <time>2022-08-25T11:59:29Z</time>
      </trkpt>
      <trkpt lat="42.67675399999996" lon="-1.9220239999999995">
        <ele>391.241</ele>
        <time>2022-08-25T11:59:34Z</time>
      </trkpt>
      <trkpt lat="42.67676699999996" lon="-1.9220559999999995">
        <ele>391.458</ele>
        <time>2022-08-25T11:59:35Z</time>
      </trkpt>
      <trkpt lat="42.676804999999966" lon="-1.9221499999999996">
        <ele>391.841</ele>
        <time>2022-08-25T11:59:38Z</time>
      </trkpt>
      <trkpt lat="42.676909999999964" lon="-1.9224479999999995">
        <ele>392.247</ele>
        <time>2022-08-25T11:59:47Z</time>
      </trkpt>
      <trkpt lat="42.676923999999964" lon="-1.9224769999999995">
        <ele>392.238</ele>
        <time>2022-08-25T11:59:48Z</time>
      </trkpt>
      <trkpt lat="42.67693699999997" lon="-1.9225049999999995">
        <ele>392.296</ele>
        <time>2022-08-25T11:59:49Z</time>
      </trkpt>
      <trkpt lat="42.67694799999997" lon="-1.9225349999999994">
        <ele>392.231</ele>
        <time>2022-08-25T11:59:50Z</time>
      </trkpt>
      <trkpt lat="42.677013999999964" lon="-1.9226799999999995">
        <ele>392.424</ele>
        <time>2022-08-25T11:59:55Z</time>
      </trkpt>
      <trkpt lat="42.677024999999965" lon="-1.9227079999999994">
        <ele>392.409</ele>
        <time>2022-08-25T11:59:56Z</time>
      </trkpt>
      <trkpt lat="42.67703499999997" lon="-1.9227349999999994">
        <ele>392.430</ele>
        <time>2022-08-25T11:59:57Z</time>
      </trkpt>
      <trkpt lat="42.677046999999966" lon="-1.9227609999999995">
        <ele>392.430</ele>
        <time>2022-08-25T11:59:58Z</time>
      </trkpt>
      <trkpt lat="42.67705999999997" lon="-1.9227869999999996">
        <ele>392.480</ele>
        <time>2022-08-25T11:59:59Z</time>
      </trkpt>
      <trkpt lat="42.67707199999997" lon="-1.9228139999999996">
        <ele>392.456</ele>
        <time>2022-08-25T12:00:00Z</time>
      </trkpt>
      <trkpt lat="42.67708199999997" lon="-1.9228409999999996">
        <ele>392.638</ele>
        <time>2022-08-25T12:00:01Z</time>
      </trkpt>
      <trkpt lat="42.67711699999997" lon="-1.9229189999999996">
        <ele>392.685</ele>
        <time>2022-08-25T12:00:04Z</time>
      </trkpt>
      <trkpt lat="42.677153999999966" lon="-1.9230019999999997">
        <ele>392.868</ele>
        <time>2022-08-25T12:00:07Z</time>
      </trkpt>
      <trkpt lat="42.677153999999966" lon="-1.9230019999999997">
        <ele>392.844</ele>
        <time>2022-08-25T12:00:08Z</time>
      </trkpt>
      <trkpt lat="42.67717899999997" lon="-1.9230519999999998">
        <ele>393.065</ele>
        <time>2022-08-25T12:00:09Z</time>
      </trkpt>
      <trkpt lat="42.67718899999997" lon="-1.9230799999999997">
        <ele>393.253</ele>
        <time>2022-08-25T12:00:10Z</time>
      </trkpt>
      <trkpt lat="42.67720199999997" lon="-1.9231029999999998">
        <ele>393.204</ele>
        <time>2022-08-25T12:00:11Z</time>
      </trkpt>
      <trkpt lat="42.67721699999997" lon="-1.9231229999999997">
        <ele>393.214</ele>
        <time>2022-08-25T12:00:12Z</time>
      </trkpt>
      <trkpt lat="42.67723199999997" lon="-1.9231439999999997">
        <ele>393.209</ele>
        <time>2022-08-25T12:00:13Z</time>
      </trkpt>
      <trkpt lat="42.677243999999966" lon="-1.9231669999999998">
        <ele>393.436</ele>
        <time>2022-08-25T12:00:14Z</time>
      </trkpt>
      <trkpt lat="42.677280999999965" lon="-1.9232029999999998">
        <ele>393.476</ele>
        <time>2022-08-25T12:00:16Z</time>
      </trkpt>
      <trkpt lat="42.677319999999966" lon="-1.9232319999999998">
        <ele>393.846</ele>
        <time>2022-08-25T12:00:18Z</time>
      </trkpt>
      <trkpt lat="42.67737499999997" lon="-1.9232829999999999">
        <ele>394.482</ele>
        <time>2022-08-25T12:00:21Z</time>
      </trkpt>
      <trkpt lat="42.67743099999997" lon="-1.923382">
        <ele>395.074</ele>
        <time>2022-08-25T12:00:25Z</time>
      </trkpt>
      <trkpt lat="42.67746099999997" lon="-1.923465">
        <ele>395.051</ele>
        <time>2022-08-25T12:00:28Z</time>
      </trkpt>
      <trkpt lat="42.677470999999976" lon="-1.92349">
        <ele>394.854</ele>
        <time>2022-08-25T12:00:29Z</time>
      </trkpt>
      <trkpt lat="42.67747799999997" lon="-1.923514">
        <ele>394.870</ele>
        <time>2022-08-25T12:00:30Z</time>
      </trkpt>
      <trkpt lat="42.67748599999997" lon="-1.923536">
        <ele>394.641</ele>
        <time>2022-08-25T12:00:31Z</time>
      </trkpt>
      <trkpt lat="42.677490999999975" lon="-1.923557">
        <ele>394.673</ele>
        <time>2022-08-25T12:00:32Z</time>
      </trkpt>
      <trkpt lat="42.677490999999975" lon="-1.923557">
        <ele>394.685</ele>
        <time>2022-08-25T12:00:33Z</time>
      </trkpt>
      <trkpt lat="42.67750699999998" lon="-1.923583">
        <ele>394.613</ele>
        <time>2022-08-25T12:00:34Z</time>
      </trkpt>
      <trkpt lat="42.67750899999998" lon="-1.923586">
        <ele>394.809</ele>
        <time>2022-08-25T12:00:35Z</time>
      </trkpt>
      <trkpt lat="42.67754099999998" lon="-1.923643">
        <ele>394.428</ele>
        <time>2022-08-25T12:00:43Z</time>
      </trkpt>
      <trkpt lat="42.67754099999998" lon="-1.923643">
        <ele>394.448</ele>
        <time>2022-08-25T12:00:44Z</time>
      </trkpt>
      <trkpt lat="42.677670999999975" lon="-1.923824">
        <ele>394.418</ele>
        <time>2022-08-25T12:00:49Z</time>
      </trkpt>
      <trkpt lat="42.677906999999976" lon="-1.9241409999999999">
        <ele>394.044</ele>
        <time>2022-08-25T12:00:57Z</time>
      </trkpt>
      <trkpt lat="42.678146999999974" lon="-1.9244709999999998">
        <ele>393.676</ele>
        <time>2022-08-25T12:01:04Z</time>
      </trkpt>
      <trkpt lat="42.67817899999997" lon="-1.924521">
        <ele>393.443</ele>
        <time>2022-08-25T12:01:05Z</time>
      </trkpt>
      <trkpt lat="42.678478999999975" lon="-1.925006">
        <ele>392.876</ele>
        <time>2022-08-25T12:01:14Z</time>
      </trkpt>
      <trkpt lat="42.678545999999976" lon="-1.925108">
        <ele>392.462</ele>
        <time>2022-08-25T12:01:16Z</time>
      </trkpt>
      <trkpt lat="42.67873099999998" lon="-1.925461">
        <ele>391.853</ele>
        <time>2022-08-25T12:01:22Z</time>
      </trkpt>
      <trkpt lat="42.67879199999998" lon="-1.9255920000000002">
        <ele>391.624</ele>
        <time>2022-08-25T12:01:24Z</time>
      </trkpt>
      <trkpt lat="42.67893699999998" lon="-1.9259180000000002">
        <ele>391.004</ele>
        <time>2022-08-25T12:01:29Z</time>
      </trkpt>
      <trkpt lat="42.678994999999986" lon="-1.9260470000000003">
        <ele>390.814</ele>
        <time>2022-08-25T12:01:31Z</time>
      </trkpt>
      <trkpt lat="42.679023999999984" lon="-1.9261150000000002">
        <ele>390.609</ele>
        <time>2022-08-25T12:01:32Z</time>
      </trkpt>
      <trkpt lat="42.67910999999999" lon="-1.9264030000000003">
        <ele>389.853</ele>
        <time>2022-08-25T12:01:36Z</time>
      </trkpt>
      <trkpt lat="42.67914799999999" lon="-1.9265400000000004">
        <ele>389.493</ele>
        <time>2022-08-25T12:01:38Z</time>
      </trkpt>
      <trkpt lat="42.67916599999999" lon="-1.9266080000000003">
        <ele>389.253</ele>
        <time>2022-08-25T12:01:39Z</time>
      </trkpt>
      <trkpt lat="42.67925199999999" lon="-1.9271170000000004">
        <ele>389.099</ele>
        <time>2022-08-25T12:01:46Z</time>
      </trkpt>
      <trkpt lat="42.67926699999999" lon="-1.9272630000000004">
        <ele>389.051</ele>
        <time>2022-08-25T12:01:48Z</time>
      </trkpt>
      <trkpt lat="42.67927499999999" lon="-1.9273320000000005">
        <ele>389.048</ele>
        <time>2022-08-25T12:01:49Z</time>
      </trkpt>
      <trkpt lat="42.67927799999999" lon="-1.9274030000000004">
        <ele>389.021</ele>
        <time>2022-08-25T12:01:50Z</time>
      </trkpt>
      <trkpt lat="42.679281999999986" lon="-1.9274740000000004">
        <ele>389.067</ele>
        <time>2022-08-25T12:01:51Z</time>
      </trkpt>
      <trkpt lat="42.67928399999999" lon="-1.9275460000000004">
        <ele>388.858</ele>
        <time>2022-08-25T12:01:52Z</time>
      </trkpt>
      <trkpt lat="42.679287999999985" lon="-1.9276110000000004">
        <ele>389.027</ele>
        <time>2022-08-25T12:01:53Z</time>
      </trkpt>
      <trkpt lat="42.67928899999998" lon="-1.9276740000000003">
        <ele>389.068</ele>
        <time>2022-08-25T12:01:54Z</time>
      </trkpt>
      <trkpt lat="42.679290999999985" lon="-1.9277350000000004">
        <ele>389.014</ele>
        <time>2022-08-25T12:01:55Z</time>
      </trkpt>
      <trkpt lat="42.67929499999998" lon="-1.9277940000000005">
        <ele>388.809</ele>
        <time>2022-08-25T12:01:56Z</time>
      </trkpt>
      <trkpt lat="42.67929899999998" lon="-1.9278490000000004">
        <ele>388.813</ele>
        <time>2022-08-25T12:01:57Z</time>
      </trkpt>
      <trkpt lat="42.67929699999998" lon="-1.9279080000000004">
        <ele>388.873</ele>
        <time>2022-08-25T12:01:58Z</time>
      </trkpt>
      <trkpt lat="42.67928999999998" lon="-1.9279690000000005">
        <ele>389.093</ele>
        <time>2022-08-25T12:01:59Z</time>
      </trkpt>
      <trkpt lat="42.67928899999998" lon="-1.9280270000000004">
        <ele>389.089</ele>
        <time>2022-08-25T12:02:00Z</time>
      </trkpt>
      <trkpt lat="42.679287999999985" lon="-1.9280830000000004">
        <ele>389.051</ele>
        <time>2022-08-25T12:02:01Z</time>
      </trkpt>
      <trkpt lat="42.67928599999998" lon="-1.9281390000000005">
        <ele>389.018</ele>
        <time>2022-08-25T12:02:02Z</time>
      </trkpt>
      <trkpt lat="42.679281999999986" lon="-1.9281940000000004">
        <ele>389.061</ele>
        <time>2022-08-25T12:02:03Z</time>
      </trkpt>
      <trkpt lat="42.67926999999999" lon="-1.9283530000000004">
        <ele>389.217</ele>
        <time>2022-08-25T12:02:06Z</time>
      </trkpt>
      <trkpt lat="42.67926399999999" lon="-1.9284070000000004">
        <ele>389.278</ele>
        <time>2022-08-25T12:02:07Z</time>
      </trkpt>
      <trkpt lat="42.67925899999999" lon="-1.9284540000000003">
        <ele>389.226</ele>
        <time>2022-08-25T12:02:08Z</time>
      </trkpt>
      <trkpt lat="42.679253999999986" lon="-1.9285000000000003">
        <ele>389.447</ele>
        <time>2022-08-25T12:02:09Z</time>
      </trkpt>
      <trkpt lat="42.67924799999999" lon="-1.9285520000000003">
        <ele>389.411</ele>
        <time>2022-08-25T12:02:10Z</time>
      </trkpt>
      <trkpt lat="42.679242999999985" lon="-1.9286010000000002">
        <ele>389.409</ele>
        <time>2022-08-25T12:02:11Z</time>
      </trkpt>
      <trkpt lat="42.67923099999999" lon="-1.9286460000000003">
        <ele>389.623</ele>
        <time>2022-08-25T12:02:12Z</time>
      </trkpt>
      <trkpt lat="42.67921999999999" lon="-1.9286940000000004">
        <ele>389.663</ele>
        <time>2022-08-25T12:02:13Z</time>
      </trkpt>
      <trkpt lat="42.67921399999999" lon="-1.9287450000000004">
        <ele>389.643</ele>
        <time>2022-08-25T12:02:14Z</time>
      </trkpt>
      <trkpt lat="42.679208999999986" lon="-1.9287930000000004">
        <ele>389.889</ele>
        <time>2022-08-25T12:02:15Z</time>
      </trkpt>
      <trkpt lat="42.679203999999984" lon="-1.9288390000000004">
        <ele>389.861</ele>
        <time>2022-08-25T12:02:16Z</time>
      </trkpt>
      <trkpt lat="42.67919399999998" lon="-1.9288900000000004">
        <ele>389.878</ele>
        <time>2022-08-25T12:02:17Z</time>
      </trkpt>
      <trkpt lat="42.67918499999998" lon="-1.9289360000000004">
        <ele>389.851</ele>
        <time>2022-08-25T12:02:18Z</time>
      </trkpt>
      <trkpt lat="42.679175999999984" lon="-1.9289820000000004">
        <ele>389.857</ele>
        <time>2022-08-25T12:02:19Z</time>
      </trkpt>
      <trkpt lat="42.67916899999999" lon="-1.9290250000000004">
        <ele>389.828</ele>
        <time>2022-08-25T12:02:20Z</time>
      </trkpt>
      <trkpt lat="42.67916899999999" lon="-1.9290250000000004">
        <ele>389.895</ele>
        <time>2022-08-25T12:02:21Z</time>
      </trkpt>
      <trkpt lat="42.67915199999999" lon="-1.9291090000000004">
        <ele>390.049</ele>
        <time>2022-08-25T12:02:22Z</time>
      </trkpt>
      <trkpt lat="42.67914099999999" lon="-1.9291510000000005">
        <ele>390.023</ele>
        <time>2022-08-25T12:02:23Z</time>
      </trkpt>
      <trkpt lat="42.67912999999999" lon="-1.9291920000000005">
        <ele>390.009</ele>
        <time>2022-08-25T12:02:24Z</time>
      </trkpt>
      <trkpt lat="42.67912099999999" lon="-1.9292310000000004">
        <ele>390.230</ele>
        <time>2022-08-25T12:02:25Z</time>
      </trkpt>
      <trkpt lat="42.67911199999999" lon="-1.9292700000000003">
        <ele>390.220</ele>
        <time>2022-08-25T12:02:26Z</time>
      </trkpt>
      <trkpt lat="42.67910299999999" lon="-1.9293110000000002">
        <ele>390.450</ele>
        <time>2022-08-25T12:02:27Z</time>
      </trkpt>
      <trkpt lat="42.679095999999994" lon="-1.9293510000000003">
        <ele>390.466</ele>
        <time>2022-08-25T12:02:28Z</time>
      </trkpt>
      <trkpt lat="42.67908599999999" lon="-1.9293900000000002">
        <ele>390.678</ele>
        <time>2022-08-25T12:02:29Z</time>
      </trkpt>
      <trkpt lat="42.67907699999999" lon="-1.9294280000000001">
        <ele>390.885</ele>
        <time>2022-08-25T12:02:30Z</time>
      </trkpt>
      <trkpt lat="42.67906699999999" lon="-1.9294660000000001">
        <ele>390.848</ele>
        <time>2022-08-25T12:02:31Z</time>
      </trkpt>
      <trkpt lat="42.67905499999999" lon="-1.9295030000000002">
        <ele>390.834</ele>
        <time>2022-08-25T12:02:32Z</time>
      </trkpt>
      <trkpt lat="42.67904899999999" lon="-1.9295370000000003">
        <ele>390.835</ele>
        <time>2022-08-25T12:02:33Z</time>
      </trkpt>
      <trkpt lat="42.679044999999995" lon="-1.9295720000000003">
        <ele>391.092</ele>
        <time>2022-08-25T12:02:34Z</time>
      </trkpt>
      <trkpt lat="42.679038999999996" lon="-1.9296060000000004">
        <ele>391.073</ele>
        <time>2022-08-25T12:02:35Z</time>
      </trkpt>
      <trkpt lat="42.678993" lon="-1.9297850000000003">
        <ele>391.420</ele>
        <time>2022-08-25T12:02:40Z</time>
      </trkpt>
      <trkpt lat="42.678964" lon="-1.9299330000000003">
        <ele>391.609</ele>
        <time>2022-08-25T12:02:44Z</time>
      </trkpt>
      <trkpt lat="42.678958" lon="-1.9299720000000002">
        <ele>391.850</ele>
        <time>2022-08-25T12:02:45Z</time>
      </trkpt>
      <trkpt lat="42.678925" lon="-1.9301570000000003">
        <ele>392.010</ele>
        <time>2022-08-25T12:02:50Z</time>
      </trkpt>
      <trkpt lat="42.678902" lon="-1.9302710000000003">
        <ele>392.040</ele>
        <time>2022-08-25T12:02:53Z</time>
      </trkpt>
      <trkpt lat="42.678877" lon="-1.9304250000000003">
        <ele>392.226</ele>
        <time>2022-08-25T12:02:57Z</time>
      </trkpt>
      <trkpt lat="42.678871" lon="-1.9304620000000003">
        <ele>392.248</ele>
        <time>2022-08-25T12:02:58Z</time>
      </trkpt>
      <trkpt lat="42.678866" lon="-1.9304980000000003">
        <ele>392.245</ele>
        <time>2022-08-25T12:02:59Z</time>
      </trkpt>
      <trkpt lat="42.678852" lon="-1.9305720000000002">
        <ele>392.488</ele>
        <time>2022-08-25T12:03:01Z</time>
      </trkpt>
      <trkpt lat="42.678848" lon="-1.9306070000000002">
        <ele>392.434</ele>
        <time>2022-08-25T12:03:02Z</time>
      </trkpt>
      <trkpt lat="42.678844000000005" lon="-1.9306370000000002">
        <ele>392.455</ele>
        <time>2022-08-25T12:03:03Z</time>
      </trkpt>
      <trkpt lat="42.67884000000001" lon="-1.9306690000000002">
        <ele>392.471</ele>
        <time>2022-08-25T12:03:04Z</time>
      </trkpt>
      <trkpt lat="42.67883600000001" lon="-1.9307010000000002">
        <ele>392.441</ele>
        <time>2022-08-25T12:03:05Z</time>
      </trkpt>
      <trkpt lat="42.67883100000001" lon="-1.9307330000000003">
        <ele>392.415</ele>
        <time>2022-08-25T12:03:06Z</time>
      </trkpt>
      <trkpt lat="42.67882500000001" lon="-1.9307660000000002">
        <ele>392.409</ele>
        <time>2022-08-25T12:03:07Z</time>
      </trkpt>
      <trkpt lat="42.67880500000001" lon="-1.9309780000000003">
        <ele>392.488</ele>
        <time>2022-08-25T12:03:13Z</time>
      </trkpt>
      <trkpt lat="42.678804000000014" lon="-1.9310930000000004">
        <ele>392.648</ele>
        <time>2022-08-25T12:03:16Z</time>
      </trkpt>
      <trkpt lat="42.678803000000016" lon="-1.9311290000000003">
        <ele>392.658</ele>
        <time>2022-08-25T12:03:17Z</time>
      </trkpt>
      <trkpt lat="42.678804000000014" lon="-1.9311620000000003">
        <ele>392.674</ele>
        <time>2022-08-25T12:03:18Z</time>
      </trkpt>
      <trkpt lat="42.67880500000001" lon="-1.9311930000000002">
        <ele>392.646</ele>
        <time>2022-08-25T12:03:19Z</time>
      </trkpt>
      <trkpt lat="42.67880300000001" lon="-1.9312250000000002">
        <ele>392.653</ele>
        <time>2022-08-25T12:03:20Z</time>
      </trkpt>
      <trkpt lat="42.67880000000001" lon="-1.931256">
        <ele>392.616</ele>
        <time>2022-08-25T12:03:21Z</time>
      </trkpt>
      <trkpt lat="42.67879800000001" lon="-1.931292">
        <ele>392.882</ele>
        <time>2022-08-25T12:03:22Z</time>
      </trkpt>
      <trkpt lat="42.67881200000001" lon="-1.93147">
        <ele>393.053</ele>
        <time>2022-08-25T12:03:27Z</time>
      </trkpt>
      <trkpt lat="42.678813000000005" lon="-1.931507">
        <ele>393.023</ele>
        <time>2022-08-25T12:03:28Z</time>
      </trkpt>
      <trkpt lat="42.678842" lon="-1.9319380000000002">
        <ele>393.883</ele>
        <time>2022-08-25T12:03:39Z</time>
      </trkpt>
      <trkpt lat="42.678843" lon="-1.931977">
        <ele>393.811</ele>
        <time>2022-08-25T12:03:40Z</time>
      </trkpt>
      <trkpt lat="42.678845" lon="-1.9320140000000001">
        <ele>393.809</ele>
        <time>2022-08-25T12:03:41Z</time>
      </trkpt>
      <trkpt lat="42.678847000000005" lon="-1.932053">
        <ele>394.033</ele>
        <time>2022-08-25T12:03:42Z</time>
      </trkpt>
      <trkpt lat="42.678851" lon="-1.932091">
        <ele>394.083</ele>
        <time>2022-08-25T12:03:43Z</time>
      </trkpt>
      <trkpt lat="42.67886" lon="-1.932201">
        <ele>394.433</ele>
        <time>2022-08-25T12:03:46Z</time>
      </trkpt>
      <trkpt lat="42.678867" lon="-1.932275">
        <ele>394.629</ele>
        <time>2022-08-25T12:03:48Z</time>
      </trkpt>
      <trkpt lat="42.678870999999994" lon="-1.932311">
        <ele>394.881</ele>
        <time>2022-08-25T12:03:49Z</time>
      </trkpt>
      <trkpt lat="42.67887399999999" lon="-1.9323499999999998">
        <ele>394.888</ele>
        <time>2022-08-25T12:03:50Z</time>
      </trkpt>
      <trkpt lat="42.67888099999999" lon="-1.9324209999999997">
        <ele>395.021</ele>
        <time>2022-08-25T12:03:52Z</time>
      </trkpt>
      <trkpt lat="42.67888499999999" lon="-1.9324579999999998">
        <ele>395.087</ele>
        <time>2022-08-25T12:03:53Z</time>
      </trkpt>
      <trkpt lat="42.67888699999999" lon="-1.9324929999999998">
        <ele>395.298</ele>
        <time>2022-08-25T12:03:54Z</time>
      </trkpt>
      <trkpt lat="42.67889299999999" lon="-1.9326109999999999">
        <ele>395.694</ele>
        <time>2022-08-25T12:03:57Z</time>
      </trkpt>
      <trkpt lat="42.67889599999999" lon="-1.9326459999999999">
        <ele>395.857</ele>
        <time>2022-08-25T12:03:58Z</time>
      </trkpt>
      <trkpt lat="42.678902999999984" lon="-1.932753">
        <ele>396.022</ele>
        <time>2022-08-25T12:04:01Z</time>
      </trkpt>
      <trkpt lat="42.67890699999998" lon="-1.932787">
        <ele>396.009</ele>
        <time>2022-08-25T12:04:02Z</time>
      </trkpt>
      <trkpt lat="42.67890999999998" lon="-1.93282">
        <ele>396.270</ele>
        <time>2022-08-25T12:04:03Z</time>
      </trkpt>
      <trkpt lat="42.67891199999998" lon="-1.932853">
        <ele>396.420</ele>
        <time>2022-08-25T12:04:04Z</time>
      </trkpt>
      <trkpt lat="42.67891299999998" lon="-1.93292">
        <ele>396.620</ele>
        <time>2022-08-25T12:04:06Z</time>
      </trkpt>
      <trkpt lat="42.67891899999998" lon="-1.933017">
        <ele>396.656</ele>
        <time>2022-08-25T12:04:09Z</time>
      </trkpt>
      <trkpt lat="42.67891899999998" lon="-1.933047">
        <ele>396.818</ele>
        <time>2022-08-25T12:04:10Z</time>
      </trkpt>
      <trkpt lat="42.67891999999998" lon="-1.9330749999999999">
        <ele>396.865</ele>
        <time>2022-08-25T12:04:11Z</time>
      </trkpt>
      <trkpt lat="42.67891999999998" lon="-1.9331049999999999">
        <ele>397.058</ele>
        <time>2022-08-25T12:04:12Z</time>
      </trkpt>
      <trkpt lat="42.67891999999998" lon="-1.9331359999999997">
        <ele>397.414</ele>
        <time>2022-08-25T12:04:13Z</time>
      </trkpt>
      <trkpt lat="42.67892199999998" lon="-1.9331669999999996">
        <ele>397.675</ele>
        <time>2022-08-25T12:04:14Z</time>
      </trkpt>
      <trkpt lat="42.678922999999976" lon="-1.9331949999999996">
        <ele>397.881</ele>
        <time>2022-08-25T12:04:15Z</time>
      </trkpt>
      <trkpt lat="42.678922999999976" lon="-1.9332209999999996">
        <ele>398.061</ele>
        <time>2022-08-25T12:04:16Z</time>
      </trkpt>
      <trkpt lat="42.67892199999998" lon="-1.9332469999999997">
        <ele>398.017</ele>
        <time>2022-08-25T12:04:17Z</time>
      </trkpt>
      <trkpt lat="42.67892199999998" lon="-1.9332749999999996">
        <ele>398.209</ele>
        <time>2022-08-25T12:04:18Z</time>
      </trkpt>
      <trkpt lat="42.67891899999998" lon="-1.9333049999999996">
        <ele>398.269</ele>
        <time>2022-08-25T12:04:19Z</time>
      </trkpt>
      <trkpt lat="42.67891899999998" lon="-1.9333319999999996">
        <ele>398.679</ele>
        <time>2022-08-25T12:04:20Z</time>
      </trkpt>
      <trkpt lat="42.67891799999998" lon="-1.9333599999999995">
        <ele>398.669</ele>
        <time>2022-08-25T12:04:21Z</time>
      </trkpt>
      <trkpt lat="42.67891899999998" lon="-1.9333879999999994">
        <ele>398.645</ele>
        <time>2022-08-25T12:04:22Z</time>
      </trkpt>
      <trkpt lat="42.67891799999998" lon="-1.9334149999999994">
        <ele>398.827</ele>
        <time>2022-08-25T12:04:23Z</time>
      </trkpt>
      <trkpt lat="42.678916999999984" lon="-1.9334409999999995">
        <ele>399.064</ele>
        <time>2022-08-25T12:04:24Z</time>
      </trkpt>
      <trkpt lat="42.67891799999998" lon="-1.9334679999999995">
        <ele>399.047</ele>
        <time>2022-08-25T12:04:25Z</time>
      </trkpt>
      <trkpt lat="42.67891899999998" lon="-1.9334949999999995">
        <ele>399.223</ele>
        <time>2022-08-25T12:04:26Z</time>
      </trkpt>
      <trkpt lat="42.67891999999998" lon="-1.9335219999999995">
        <ele>399.254</ele>
        <time>2022-08-25T12:04:27Z</time>
      </trkpt>
      <trkpt lat="42.67892199999998" lon="-1.9335449999999996">
        <ele>399.422</ele>
        <time>2022-08-25T12:04:28Z</time>
      </trkpt>
      <trkpt lat="42.67892199999998" lon="-1.9335699999999996">
        <ele>399.662</ele>
        <time>2022-08-25T12:04:29Z</time>
      </trkpt>
      <trkpt lat="42.67892199999998" lon="-1.9335959999999996">
        <ele>399.608</ele>
        <time>2022-08-25T12:04:30Z</time>
      </trkpt>
      <trkpt lat="42.67892099999998" lon="-1.9336269999999995">
        <ele>399.609</ele>
        <time>2022-08-25T12:04:31Z</time>
      </trkpt>
      <trkpt lat="42.67892199999998" lon="-1.9336569999999995">
        <ele>399.843</ele>
        <time>2022-08-25T12:04:32Z</time>
      </trkpt>
      <trkpt lat="42.67892399999998" lon="-1.9336859999999996">
        <ele>399.893</ele>
        <time>2022-08-25T12:04:33Z</time>
      </trkpt>
      <trkpt lat="42.67892499999998" lon="-1.9337139999999995">
        <ele>400.093</ele>
        <time>2022-08-25T12:04:34Z</time>
      </trkpt>
      <trkpt lat="42.67892699999998" lon="-1.9337399999999996">
        <ele>400.249</ele>
        <time>2022-08-25T12:04:35Z</time>
      </trkpt>
      <trkpt lat="42.67892799999998" lon="-1.9337649999999995">
        <ele>400.221</ele>
        <time>2022-08-25T12:04:36Z</time>
      </trkpt>
      <trkpt lat="42.67892699999998" lon="-1.9337899999999995">
        <ele>400.418</ele>
        <time>2022-08-25T12:04:37Z</time>
      </trkpt>
      <trkpt lat="42.67892499999998" lon="-1.9338089999999994">
        <ele>400.461</ele>
        <time>2022-08-25T12:04:38Z</time>
      </trkpt>
      <trkpt lat="42.67892399999998" lon="-1.9338309999999994">
        <ele>400.627</ele>
        <time>2022-08-25T12:04:39Z</time>
      </trkpt>
      <trkpt lat="42.67892399999998" lon="-1.9338529999999994">
        <ele>400.848</ele>
        <time>2022-08-25T12:04:40Z</time>
      </trkpt>
      <trkpt lat="42.67892499999998" lon="-1.9338719999999994">
        <ele>401.036</ele>
        <time>2022-08-25T12:04:41Z</time>
      </trkpt>
      <trkpt lat="42.678922999999976" lon="-1.9338919999999993">
        <ele>401.017</ele>
        <time>2022-08-25T12:04:42Z</time>
      </trkpt>
      <trkpt lat="42.67891899999998" lon="-1.9339119999999992">
        <ele>401.018</ele>
        <time>2022-08-25T12:04:43Z</time>
      </trkpt>
      <trkpt lat="42.67891799999998" lon="-1.9339339999999992">
        <ele>401.409</ele>
        <time>2022-08-25T12:04:44Z</time>
      </trkpt>
      <trkpt lat="42.67891799999998" lon="-1.9339569999999993">
        <ele>401.484</ele>
        <time>2022-08-25T12:04:45Z</time>
      </trkpt>
      <trkpt lat="42.67891799999998" lon="-1.9339809999999993">
        <ele>401.614</ele>
        <time>2022-08-25T12:04:46Z</time>
      </trkpt>
      <trkpt lat="42.67891599999998" lon="-1.9340069999999994">
        <ele>401.684</ele>
        <time>2022-08-25T12:04:47Z</time>
      </trkpt>
      <trkpt lat="42.67891199999998" lon="-1.9340299999999995">
        <ele>401.870</ele>
        <time>2022-08-25T12:04:48Z</time>
      </trkpt>
      <trkpt lat="42.67890999999998" lon="-1.9340489999999995">
        <ele>402.052</ele>
        <time>2022-08-25T12:04:49Z</time>
      </trkpt>
      <trkpt lat="42.67890899999998" lon="-1.9340709999999994">
        <ele>402.259</ele>
        <time>2022-08-25T12:04:50Z</time>
      </trkpt>
      <trkpt lat="42.67890699999998" lon="-1.9340959999999994">
        <ele>402.462</ele>
        <time>2022-08-25T12:04:51Z</time>
      </trkpt>
      <trkpt lat="42.67890699999998" lon="-1.9341179999999993">
        <ele>402.618</ele>
        <time>2022-08-25T12:04:52Z</time>
      </trkpt>
      <trkpt lat="42.678905999999984" lon="-1.9341399999999993">
        <ele>402.649</ele>
        <time>2022-08-25T12:04:53Z</time>
      </trkpt>
      <trkpt lat="42.678905999999984" lon="-1.9341659999999994">
        <ele>402.827</ele>
        <time>2022-08-25T12:04:54Z</time>
      </trkpt>
      <trkpt lat="42.67890399999998" lon="-1.9341909999999993">
        <ele>402.868</ele>
        <time>2022-08-25T12:04:55Z</time>
      </trkpt>
      <trkpt lat="42.67890199999998" lon="-1.9342139999999994">
        <ele>403.014</ele>
        <time>2022-08-25T12:04:56Z</time>
      </trkpt>
      <trkpt lat="42.67890199999998" lon="-1.9342379999999995">
        <ele>403.209</ele>
        <time>2022-08-25T12:04:57Z</time>
      </trkpt>
      <trkpt lat="42.67890099999998" lon="-1.9342579999999994">
        <ele>403.293</ele>
        <time>2022-08-25T12:04:58Z</time>
      </trkpt>
      <trkpt lat="42.67890099999998" lon="-1.9342809999999995">
        <ele>403.253</ele>
        <time>2022-08-25T12:04:59Z</time>
      </trkpt>
      <trkpt lat="42.678899999999985" lon="-1.9343039999999996">
        <ele>403.463</ele>
        <time>2022-08-25T12:05:00Z</time>
      </trkpt>
      <trkpt lat="42.678899999999985" lon="-1.9343229999999996">
        <ele>403.639</ele>
        <time>2022-08-25T12:05:01Z</time>
      </trkpt>
      <trkpt lat="42.678899999999985" lon="-1.9343439999999996">
        <ele>403.611</ele>
        <time>2022-08-25T12:05:02Z</time>
      </trkpt>
      <trkpt lat="42.67889599999999" lon="-1.9343639999999995">
        <ele>403.848</ele>
        <time>2022-08-25T12:05:03Z</time>
      </trkpt>
      <trkpt lat="42.678896999999985" lon="-1.9343899999999996">
        <ele>404.081</ele>
        <time>2022-08-25T12:05:04Z</time>
      </trkpt>
      <trkpt lat="42.67889899999999" lon="-1.9344139999999996">
        <ele>404.217</ele>
        <time>2022-08-25T12:05:05Z</time>
      </trkpt>
      <trkpt lat="42.67889799999999" lon="-1.9344379999999997">
        <ele>404.298</ele>
        <time>2022-08-25T12:05:06Z</time>
      </trkpt>
      <trkpt lat="42.67889399999999" lon="-1.9344609999999998">
        <ele>404.445</ele>
        <time>2022-08-25T12:05:07Z</time>
      </trkpt>
      <trkpt lat="42.67889099999999" lon="-1.9344809999999997">
        <ele>404.447</ele>
        <time>2022-08-25T12:05:08Z</time>
      </trkpt>
      <trkpt lat="42.67888799999999" lon="-1.9345049999999997">
        <ele>404.611</ele>
        <time>2022-08-25T12:05:09Z</time>
      </trkpt>
      <trkpt lat="42.67888599999999" lon="-1.9345289999999997">
        <ele>404.609</ele>
        <time>2022-08-25T12:05:10Z</time>
      </trkpt>
      <trkpt lat="42.678881999999994" lon="-1.9345499999999998">
        <ele>404.835</ele>
        <time>2022-08-25T12:05:11Z</time>
      </trkpt>
      <trkpt lat="42.67887999999999" lon="-1.9345699999999997">
        <ele>404.835</ele>
        <time>2022-08-25T12:05:12Z</time>
      </trkpt>
      <trkpt lat="42.67887799999999" lon="-1.9345879999999998">
        <ele>404.815</ele>
        <time>2022-08-25T12:05:13Z</time>
      </trkpt>
      <trkpt lat="42.67887599999999" lon="-1.9346099999999997">
        <ele>405.041</ele>
        <time>2022-08-25T12:05:14Z</time>
      </trkpt>
      <trkpt lat="42.678873999999986" lon="-1.9346329999999998">
        <ele>405.023</ele>
        <time>2022-08-25T12:05:15Z</time>
      </trkpt>
      <trkpt lat="42.678871999999984" lon="-1.934656">
        <ele>405.260</ele>
        <time>2022-08-25T12:05:16Z</time>
      </trkpt>
      <trkpt lat="42.67887099999999" lon="-1.934678">
        <ele>405.423</ele>
        <time>2022-08-25T12:05:17Z</time>
      </trkpt>
      <trkpt lat="42.678868999999985" lon="-1.934701">
        <ele>405.649</ele>
        <time>2022-08-25T12:05:18Z</time>
      </trkpt>
      <trkpt lat="42.67886799999999" lon="-1.934725">
        <ele>405.670</ele>
        <time>2022-08-25T12:05:19Z</time>
      </trkpt>
      <trkpt lat="42.678865999999985" lon="-1.934749">
        <ele>405.884</ele>
        <time>2022-08-25T12:05:20Z</time>
      </trkpt>
      <trkpt lat="42.67886499999999" lon="-1.93477">
        <ele>406.007</ele>
        <time>2022-08-25T12:05:21Z</time>
      </trkpt>
      <trkpt lat="42.67886499999999" lon="-1.9347930000000002">
        <ele>406.017</ele>
        <time>2022-08-25T12:05:22Z</time>
      </trkpt>
      <trkpt lat="42.678862999999986" lon="-1.9348150000000002">
        <ele>406.209</ele>
        <time>2022-08-25T12:05:23Z</time>
      </trkpt>
      <trkpt lat="42.678859999999986" lon="-1.9348390000000002">
        <ele>406.289</ele>
        <time>2022-08-25T12:05:24Z</time>
      </trkpt>
      <trkpt lat="42.678857999999984" lon="-1.9348640000000001">
        <ele>406.659</ele>
        <time>2022-08-25T12:05:25Z</time>
      </trkpt>
      <trkpt lat="42.67885599999998" lon="-1.934889">
        <ele>406.689</ele>
        <time>2022-08-25T12:05:26Z</time>
      </trkpt>
      <trkpt lat="42.67885399999998" lon="-1.934913">
        <ele>406.635</ele>
        <time>2022-08-25T12:05:27Z</time>
      </trkpt>
      <trkpt lat="42.67885199999998" lon="-1.9349370000000001">
        <ele>406.857</ele>
        <time>2022-08-25T12:05:28Z</time>
      </trkpt>
      <trkpt lat="42.67884899999998" lon="-1.9349610000000002">
        <ele>406.814</ele>
        <time>2022-08-25T12:05:29Z</time>
      </trkpt>
      <trkpt lat="42.67884599999998" lon="-1.9349840000000003">
        <ele>407.477</ele>
        <time>2022-08-25T12:05:30Z</time>
      </trkpt>
      <trkpt lat="42.67884499999998" lon="-1.9350080000000003">
        <ele>407.663</ele>
        <time>2022-08-25T12:05:31Z</time>
      </trkpt>
      <trkpt lat="42.67884299999998" lon="-1.9350330000000002">
        <ele>407.854</ele>
        <time>2022-08-25T12:05:32Z</time>
      </trkpt>
      <trkpt lat="42.67884099999998" lon="-1.9350620000000003">
        <ele>408.039</ele>
        <time>2022-08-25T12:05:33Z</time>
      </trkpt>
      <trkpt lat="42.67883999999998" lon="-1.9350820000000002">
        <ele>408.201</ele>
        <time>2022-08-25T12:05:34Z</time>
      </trkpt>
      <trkpt lat="42.67883599999998" lon="-1.9351050000000003">
        <ele>408.221</ele>
        <time>2022-08-25T12:05:35Z</time>
      </trkpt>
      <trkpt lat="42.67883299999998" lon="-1.9351290000000003">
        <ele>408.409</ele>
        <time>2022-08-25T12:05:36Z</time>
      </trkpt>
      <trkpt lat="42.678834999999985" lon="-1.9351540000000003">
        <ele>408.424</ele>
        <time>2022-08-25T12:05:37Z</time>
      </trkpt>
      <trkpt lat="42.678834999999985" lon="-1.9351770000000004">
        <ele>408.454</ele>
        <time>2022-08-25T12:05:38Z</time>
      </trkpt>
      <trkpt lat="42.67883399999999" lon="-1.9352010000000004">
        <ele>408.874</ele>
        <time>2022-08-25T12:05:39Z</time>
      </trkpt>
      <trkpt lat="42.678834999999985" lon="-1.9352220000000004">
        <ele>408.830</ele>
        <time>2022-08-25T12:05:40Z</time>
      </trkpt>
      <trkpt lat="42.678834999999985" lon="-1.9352430000000005">
        <ele>409.092</ele>
        <time>2022-08-25T12:05:41Z</time>
      </trkpt>
      <trkpt lat="42.67883399999999" lon="-1.9352670000000005">
        <ele>409.219</ele>
        <time>2022-08-25T12:05:42Z</time>
      </trkpt>
      <trkpt lat="42.67883399999999" lon="-1.9352900000000006">
        <ele>409.262</ele>
        <time>2022-08-25T12:05:43Z</time>
      </trkpt>
      <trkpt lat="42.67883399999999" lon="-1.9353130000000007">
        <ele>409.438</ele>
        <time>2022-08-25T12:05:44Z</time>
      </trkpt>
      <trkpt lat="42.67883299999999" lon="-1.9353370000000008">
        <ele>409.869</ele>
        <time>2022-08-25T12:05:45Z</time>
      </trkpt>
      <trkpt lat="42.67883199999999" lon="-1.9353590000000007">
        <ele>409.812</ele>
        <time>2022-08-25T12:05:46Z</time>
      </trkpt>
      <trkpt lat="42.67882999999999" lon="-1.9353810000000007">
        <ele>410.032</ele>
        <time>2022-08-25T12:05:47Z</time>
      </trkpt>
      <trkpt lat="42.67882799999999" lon="-1.9354030000000007">
        <ele>410.205</ele>
        <time>2022-08-25T12:05:48Z</time>
      </trkpt>
      <trkpt lat="42.67882599999999" lon="-1.9354260000000008">
        <ele>410.409</ele>
        <time>2022-08-25T12:05:49Z</time>
      </trkpt>
      <trkpt lat="42.678823999999985" lon="-1.9354490000000009">
        <ele>410.442</ele>
        <time>2022-08-25T12:05:50Z</time>
      </trkpt>
      <trkpt lat="42.67882199999998" lon="-1.935470000000001">
        <ele>410.842</ele>
        <time>2022-08-25T12:05:51Z</time>
      </trkpt>
      <trkpt lat="42.67881899999998" lon="-1.9354920000000009">
        <ele>411.032</ele>
        <time>2022-08-25T12:05:52Z</time>
      </trkpt>
      <trkpt lat="42.678817999999985" lon="-1.935513000000001">
        <ele>411.048</ele>
        <time>2022-08-25T12:05:53Z</time>
      </trkpt>
      <trkpt lat="42.67881599999998" lon="-1.935536000000001">
        <ele>411.240</ele>
        <time>2022-08-25T12:05:54Z</time>
      </trkpt>
      <trkpt lat="42.67881399999998" lon="-1.9355590000000011">
        <ele>411.287</ele>
        <time>2022-08-25T12:05:55Z</time>
      </trkpt>
      <trkpt lat="42.67881199999998" lon="-1.9355830000000012">
        <ele>411.470</ele>
        <time>2022-08-25T12:05:56Z</time>
      </trkpt>
      <trkpt lat="42.67880799999998" lon="-1.935608000000001">
        <ele>411.466</ele>
        <time>2022-08-25T12:05:57Z</time>
      </trkpt>
      <trkpt lat="42.67880599999998" lon="-1.9356320000000011">
        <ele>411.657</ele>
        <time>2022-08-25T12:05:58Z</time>
      </trkpt>
      <trkpt lat="42.67880599999998" lon="-1.9356560000000012">
        <ele>411.849</ele>
        <time>2022-08-25T12:05:59Z</time>
      </trkpt>
      <trkpt lat="42.67880499999998" lon="-1.9356790000000013">
        <ele>411.802</ele>
        <time>2022-08-25T12:06:00Z</time>
      </trkpt>
      <trkpt lat="42.67880499999998" lon="-1.9357030000000013">
        <ele>412.022</ele>
        <time>2022-08-25T12:06:01Z</time>
      </trkpt>
      <trkpt lat="42.67880199999998" lon="-1.9357270000000013">
        <ele>412.209</ele>
        <time>2022-08-25T12:06:02Z</time>
      </trkpt>
      <trkpt lat="42.67879699999998" lon="-1.9357510000000013">
        <ele>412.225</ele>
        <time>2022-08-25T12:06:03Z</time>
      </trkpt>
      <trkpt lat="42.67879499999998" lon="-1.9357730000000013">
        <ele>412.455</ele>
        <time>2022-08-25T12:06:04Z</time>
      </trkpt>
      <trkpt lat="42.67879399999998" lon="-1.9357960000000014">
        <ele>412.475</ele>
        <time>2022-08-25T12:06:05Z</time>
      </trkpt>
      <trkpt lat="42.67879399999998" lon="-1.9358210000000013">
        <ele>412.631</ele>
        <time>2022-08-25T12:06:06Z</time>
      </trkpt>
      <trkpt lat="42.67879399999998" lon="-1.9358480000000013">
        <ele>412.823</ele>
        <time>2022-08-25T12:06:07Z</time>
      </trkpt>
      <trkpt lat="42.678792999999985" lon="-1.9358710000000015">
        <ele>412.850</ele>
        <time>2022-08-25T12:06:08Z</time>
      </trkpt>
      <trkpt lat="42.67879099999998" lon="-1.9358930000000014">
        <ele>413.023</ele>
        <time>2022-08-25T12:06:09Z</time>
      </trkpt>
      <trkpt lat="42.678789999999985" lon="-1.9359140000000015">
        <ele>413.039</ele>
        <time>2022-08-25T12:06:10Z</time>
      </trkpt>
      <trkpt lat="42.67878899999999" lon="-1.9359350000000015">
        <ele>413.280</ele>
        <time>2022-08-25T12:06:11Z</time>
      </trkpt>
      <trkpt lat="42.67878899999999" lon="-1.9359590000000015">
        <ele>413.238</ele>
        <time>2022-08-25T12:06:12Z</time>
      </trkpt>
      <trkpt lat="42.678786999999986" lon="-1.9359840000000015">
        <ele>413.470</ele>
        <time>2022-08-25T12:06:13Z</time>
      </trkpt>
      <trkpt lat="42.678786999999986" lon="-1.9360090000000014">
        <ele>413.417</ele>
        <time>2022-08-25T12:06:14Z</time>
      </trkpt>
      <trkpt lat="42.67878299999999" lon="-1.9360360000000014">
        <ele>413.409</ele>
        <time>2022-08-25T12:06:15Z</time>
      </trkpt>
      <trkpt lat="42.67878299999999" lon="-1.9360620000000015">
        <ele>413.654</ele>
        <time>2022-08-25T12:06:16Z</time>
      </trkpt>
      <trkpt lat="42.67877999999999" lon="-1.9360870000000014">
        <ele>413.874</ele>
        <time>2022-08-25T12:06:17Z</time>
      </trkpt>
      <trkpt lat="42.67877799999999" lon="-1.9361110000000015">
        <ele>414.044</ele>
        <time>2022-08-25T12:06:18Z</time>
      </trkpt>
      <trkpt lat="42.67877799999999" lon="-1.9361320000000015">
        <ele>414.050</ele>
        <time>2022-08-25T12:06:19Z</time>
      </trkpt>
      <trkpt lat="42.67877799999999" lon="-1.9361540000000015">
        <ele>414.272</ele>
        <time>2022-08-25T12:06:20Z</time>
      </trkpt>
      <trkpt lat="42.67877799999999" lon="-1.9361770000000016">
        <ele>414.439</ele>
        <time>2022-08-25T12:06:21Z</time>
      </trkpt>
      <trkpt lat="42.67877799999999" lon="-1.9362010000000016">
        <ele>414.442</ele>
        <time>2022-08-25T12:06:22Z</time>
      </trkpt>
      <trkpt lat="42.67877499999999" lon="-1.9362240000000017">
        <ele>414.658</ele>
        <time>2022-08-25T12:06:23Z</time>
      </trkpt>
      <trkpt lat="42.67877399999999" lon="-1.9362470000000018">
        <ele>414.629</ele>
        <time>2022-08-25T12:06:24Z</time>
      </trkpt>
      <trkpt lat="42.67877199999999" lon="-1.936270000000002">
        <ele>414.855</ele>
        <time>2022-08-25T12:06:25Z</time>
      </trkpt>
      <trkpt lat="42.67876899999999" lon="-1.9362950000000019">
        <ele>414.807</ele>
        <time>2022-08-25T12:06:26Z</time>
      </trkpt>
      <trkpt lat="42.678766999999986" lon="-1.9363170000000018">
        <ele>415.017</ele>
        <time>2022-08-25T12:06:27Z</time>
      </trkpt>
      <trkpt lat="42.678764999999984" lon="-1.936340000000002">
        <ele>415.209</ele>
        <time>2022-08-25T12:06:28Z</time>
      </trkpt>
      <trkpt lat="42.67876399999999" lon="-1.936363000000002">
        <ele>415.226</ele>
        <time>2022-08-25T12:06:29Z</time>
      </trkpt>
      <trkpt lat="42.67876299999999" lon="-1.936385000000002">
        <ele>415.446</ele>
        <time>2022-08-25T12:06:30Z</time>
      </trkpt>
      <trkpt lat="42.67876199999999" lon="-1.936405000000002">
        <ele>415.426</ele>
        <time>2022-08-25T12:06:31Z</time>
      </trkpt>
      <trkpt lat="42.678760999999994" lon="-1.936431000000002">
        <ele>415.632</ele>
        <time>2022-08-25T12:06:32Z</time>
      </trkpt>
      <trkpt lat="42.678757999999995" lon="-1.936456000000002">
        <ele>415.834</ele>
        <time>2022-08-25T12:06:33Z</time>
      </trkpt>
      <trkpt lat="42.678754999999995" lon="-1.936480000000002">
        <ele>416.091</ele>
        <time>2022-08-25T12:06:34Z</time>
      </trkpt>
      <trkpt lat="42.678754" lon="-1.936501000000002">
        <ele>416.044</ele>
        <time>2022-08-25T12:06:35Z</time>
      </trkpt>
      <trkpt lat="42.678753" lon="-1.9365240000000021">
        <ele>416.040</ele>
        <time>2022-08-25T12:06:36Z</time>
      </trkpt>
      <trkpt lat="42.678751" lon="-1.936546000000002">
        <ele>416.281</ele>
        <time>2022-08-25T12:06:37Z</time>
      </trkpt>
      <trkpt lat="42.678746" lon="-1.936568000000002">
        <ele>416.265</ele>
        <time>2022-08-25T12:06:38Z</time>
      </trkpt>
      <trkpt lat="42.678746" lon="-1.9365910000000022">
        <ele>416.268</ele>
        <time>2022-08-25T12:06:39Z</time>
      </trkpt>
      <trkpt lat="42.678745" lon="-1.9366140000000023">
        <ele>416.414</ele>
        <time>2022-08-25T12:06:40Z</time>
      </trkpt>
      <trkpt lat="42.678743" lon="-1.9366320000000024">
        <ele>416.409</ele>
        <time>2022-08-25T12:06:41Z</time>
      </trkpt>
      <trkpt lat="42.678740999999995" lon="-1.9366530000000024">
        <ele>416.457</ele>
        <time>2022-08-25T12:06:42Z</time>
      </trkpt>
      <trkpt lat="42.678735999999994" lon="-1.9366740000000024">
        <ele>416.487</ele>
        <time>2022-08-25T12:06:43Z</time>
      </trkpt>
      <trkpt lat="42.678732999999994" lon="-1.9366950000000025">
        <ele>416.667</ele>
        <time>2022-08-25T12:06:44Z</time>
      </trkpt>
      <trkpt lat="42.67873099999999" lon="-1.9367180000000026">
        <ele>416.863</ele>
        <time>2022-08-25T12:06:45Z</time>
      </trkpt>
      <trkpt lat="42.678726999999995" lon="-1.9367440000000027">
        <ele>417.055</ele>
        <time>2022-08-25T12:06:46Z</time>
      </trkpt>
      <trkpt lat="42.678723" lon="-1.9367680000000027">
        <ele>417.072</ele>
        <time>2022-08-25T12:06:47Z</time>
      </trkpt>
      <trkpt lat="42.67872" lon="-1.9367920000000027">
        <ele>417.295</ele>
        <time>2022-08-25T12:06:48Z</time>
      </trkpt>
      <trkpt lat="42.678717" lon="-1.9368180000000028">
        <ele>417.241</ele>
        <time>2022-08-25T12:06:49Z</time>
      </trkpt>
      <trkpt lat="42.678714" lon="-1.9368430000000028">
        <ele>417.212</ele>
        <time>2022-08-25T12:06:50Z</time>
      </trkpt>
      <trkpt lat="42.678712" lon="-1.9368670000000028">
        <ele>417.416</ele>
        <time>2022-08-25T12:06:51Z</time>
      </trkpt>
      <trkpt lat="42.678709" lon="-1.9368890000000027">
        <ele>417.476</ele>
        <time>2022-08-25T12:06:52Z</time>
      </trkpt>
      <trkpt lat="42.678705" lon="-1.9369120000000029">
        <ele>417.413</ele>
        <time>2022-08-25T12:06:53Z</time>
      </trkpt>
      <trkpt lat="42.678701000000004" lon="-1.9369360000000029">
        <ele>417.609</ele>
        <time>2022-08-25T12:06:54Z</time>
      </trkpt>
      <trkpt lat="42.678687000000004" lon="-1.937030000000003">
        <ele>417.872</ele>
        <time>2022-08-25T12:06:58Z</time>
      </trkpt>
      <trkpt lat="42.678665" lon="-1.9372120000000028">
        <ele>418.082</ele>
        <time>2022-08-25T12:07:05Z</time>
      </trkpt>
      <trkpt lat="42.678659" lon="-1.9372630000000028">
        <ele>418.032</ele>
        <time>2022-08-25T12:07:07Z</time>
      </trkpt>
      <trkpt lat="42.678656000000004" lon="-1.9372850000000028">
        <ele>418.268</ele>
        <time>2022-08-25T12:07:08Z</time>
      </trkpt>
      <trkpt lat="42.678645" lon="-1.937338000000003">
        <ele>418.270</ele>
        <time>2022-08-25T12:07:10Z</time>
      </trkpt>
      <trkpt lat="42.678642" lon="-1.937362000000003">
        <ele>418.427</ele>
        <time>2022-08-25T12:07:11Z</time>
      </trkpt>
      <trkpt lat="42.678639000000004" lon="-1.937386000000003">
        <ele>418.430</ele>
        <time>2022-08-25T12:07:12Z</time>
      </trkpt>
      <trkpt lat="42.678617" lon="-1.937482000000003">
        <ele>418.476</ele>
        <time>2022-08-25T12:07:16Z</time>
      </trkpt>
      <trkpt lat="42.678596000000006" lon="-1.937601000000003">
        <ele>419.037</ele>
        <time>2022-08-25T12:07:21Z</time>
      </trkpt>
      <trkpt lat="42.67859200000001" lon="-1.9376240000000031">
        <ele>419.299</ele>
        <time>2022-08-25T12:07:22Z</time>
      </trkpt>
      <trkpt lat="42.67858700000001" lon="-1.9376470000000032">
        <ele>419.407</ele>
        <time>2022-08-25T12:07:23Z</time>
      </trkpt>
      <trkpt lat="42.67858400000001" lon="-1.9376700000000033">
        <ele>419.427</ele>
        <time>2022-08-25T12:07:24Z</time>
      </trkpt>
      <trkpt lat="42.678579000000006" lon="-1.9376930000000034">
        <ele>419.409</ele>
        <time>2022-08-25T12:07:25Z</time>
      </trkpt>
      <trkpt lat="42.67857000000001" lon="-1.9377150000000034">
        <ele>419.480</ele>
        <time>2022-08-25T12:07:26Z</time>
      </trkpt>
      <trkpt lat="42.67855200000001" lon="-1.9378320000000033">
        <ele>420.030</ele>
        <time>2022-08-25T12:07:31Z</time>
      </trkpt>
      <trkpt lat="42.67854700000001" lon="-1.9378550000000034">
        <ele>420.240</ele>
        <time>2022-08-25T12:07:32Z</time>
      </trkpt>
      <trkpt lat="42.67854200000001" lon="-1.9378730000000035">
        <ele>420.226</ele>
        <time>2022-08-25T12:07:33Z</time>
      </trkpt>
      <trkpt lat="42.67853500000001" lon="-1.9378960000000036">
        <ele>420.418</ele>
        <time>2022-08-25T12:07:34Z</time>
      </trkpt>
      <trkpt lat="42.67853000000001" lon="-1.9379150000000036">
        <ele>420.465</ele>
        <time>2022-08-25T12:07:35Z</time>
      </trkpt>
      <trkpt lat="42.67851600000001" lon="-1.9379780000000035">
        <ele>420.648</ele>
        <time>2022-08-25T12:07:38Z</time>
      </trkpt>
      <trkpt lat="42.67849600000001" lon="-1.9380680000000035">
        <ele>421.044</ele>
        <time>2022-08-25T12:07:42Z</time>
      </trkpt>
      <trkpt lat="42.67849200000001" lon="-1.9380880000000034">
        <ele>421.025</ele>
        <time>2022-08-25T12:07:43Z</time>
      </trkpt>
      <trkpt lat="42.678483000000014" lon="-1.9381230000000034">
        <ele>421.238</ele>
        <time>2022-08-25T12:07:45Z</time>
      </trkpt>
      <trkpt lat="42.67847800000001" lon="-1.9381440000000034">
        <ele>421.270</ele>
        <time>2022-08-25T12:07:46Z</time>
      </trkpt>
      <trkpt lat="42.67847200000001" lon="-1.9381640000000033">
        <ele>421.417</ele>
        <time>2022-08-25T12:07:47Z</time>
      </trkpt>
      <trkpt lat="42.678469000000014" lon="-1.9381830000000033">
        <ele>421.409</ele>
        <time>2022-08-25T12:07:48Z</time>
      </trkpt>
      <trkpt lat="42.67846400000001" lon="-1.9382260000000033">
        <ele>421.654</ele>
        <time>2022-08-25T12:07:50Z</time>
      </trkpt>
      <trkpt lat="42.67845600000001" lon="-1.9382510000000033">
        <ele>421.864</ele>
        <time>2022-08-25T12:07:51Z</time>
      </trkpt>
      <trkpt lat="42.67844500000001" lon="-1.9382960000000033">
        <ele>422.084</ele>
        <time>2022-08-25T12:07:53Z</time>
      </trkpt>
      <trkpt lat="42.67843100000001" lon="-1.9383630000000034">
        <ele>422.820</ele>
        <time>2022-08-25T12:07:56Z</time>
      </trkpt>
      <trkpt lat="42.67842700000001" lon="-1.9383850000000034">
        <ele>423.052</ele>
        <time>2022-08-25T12:07:57Z</time>
      </trkpt>
      <trkpt lat="42.678423000000016" lon="-1.9384070000000033">
        <ele>423.299</ele>
        <time>2022-08-25T12:07:58Z</time>
      </trkpt>
      <trkpt lat="42.67841700000002" lon="-1.9384290000000033">
        <ele>423.412</ele>
        <time>2022-08-25T12:07:59Z</time>
      </trkpt>
      <trkpt lat="42.67841100000002" lon="-1.9384510000000033">
        <ele>423.438</ele>
        <time>2022-08-25T12:08:00Z</time>
      </trkpt>
      <trkpt lat="42.67840500000002" lon="-1.9384720000000033">
        <ele>423.679</ele>
        <time>2022-08-25T12:08:01Z</time>
      </trkpt>
      <trkpt lat="42.67839900000002" lon="-1.9384920000000032">
        <ele>423.676</ele>
        <time>2022-08-25T12:08:02Z</time>
      </trkpt>
      <trkpt lat="42.67839400000002" lon="-1.9385110000000032">
        <ele>423.690</ele>
        <time>2022-08-25T12:08:03Z</time>
      </trkpt>
      <trkpt lat="42.67838900000002" lon="-1.9385310000000031">
        <ele>424.019</ele>
        <time>2022-08-25T12:08:04Z</time>
      </trkpt>
      <trkpt lat="42.678384000000015" lon="-1.938551000000003">
        <ele>424.009</ele>
        <time>2022-08-25T12:08:05Z</time>
      </trkpt>
      <trkpt lat="42.678378000000016" lon="-1.938572000000003">
        <ele>424.238</ele>
        <time>2022-08-25T12:08:06Z</time>
      </trkpt>
      <trkpt lat="42.678373000000015" lon="-1.938592000000003">
        <ele>424.218</ele>
        <time>2022-08-25T12:08:07Z</time>
      </trkpt>
      <trkpt lat="42.678367000000016" lon="-1.938610000000003">
        <ele>424.248</ele>
        <time>2022-08-25T12:08:08Z</time>
      </trkpt>
      <trkpt lat="42.678362000000014" lon="-1.938630000000003">
        <ele>424.444</ele>
        <time>2022-08-25T12:08:09Z</time>
      </trkpt>
      <trkpt lat="42.67835800000002" lon="-1.938653000000003">
        <ele>424.436</ele>
        <time>2022-08-25T12:08:10Z</time>
      </trkpt>
      <trkpt lat="42.67835100000002" lon="-1.938678000000003">
        <ele>424.453</ele>
        <time>2022-08-25T12:08:11Z</time>
      </trkpt>
      <trkpt lat="42.67834600000002" lon="-1.938699000000003">
        <ele>424.676</ele>
        <time>2022-08-25T12:08:12Z</time>
      </trkpt>
      <trkpt lat="42.67834200000002" lon="-1.938720000000003">
        <ele>424.682</ele>
        <time>2022-08-25T12:08:13Z</time>
      </trkpt>
      <trkpt lat="42.67833700000002" lon="-1.938742000000003">
        <ele>424.653</ele>
        <time>2022-08-25T12:08:14Z</time>
      </trkpt>
      <trkpt lat="42.67833200000002" lon="-1.938762000000003">
        <ele>424.875</ele>
        <time>2022-08-25T12:08:15Z</time>
      </trkpt>
      <trkpt lat="42.67832600000002" lon="-1.938782000000003">
        <ele>424.828</ele>
        <time>2022-08-25T12:08:16Z</time>
      </trkpt>
      <trkpt lat="42.67832100000002" lon="-1.9388020000000028">
        <ele>425.020</ele>
        <time>2022-08-25T12:08:17Z</time>
      </trkpt>
      <trkpt lat="42.67831700000002" lon="-1.9388200000000029">
        <ele>425.209</ele>
        <time>2022-08-25T12:08:18Z</time>
      </trkpt>
      <trkpt lat="42.67831200000002" lon="-1.938836000000003">
        <ele>425.248</ele>
        <time>2022-08-25T12:08:19Z</time>
      </trkpt>
      <trkpt lat="42.67830800000002" lon="-1.9388560000000028">
        <ele>425.818</ele>
        <time>2022-08-25T12:08:20Z</time>
      </trkpt>
      <trkpt lat="42.67830000000002" lon="-1.9388780000000028">
        <ele>426.018</ele>
        <time>2022-08-25T12:08:21Z</time>
      </trkpt>
      <trkpt lat="42.678293000000025" lon="-1.9388980000000027">
        <ele>426.094</ele>
        <time>2022-08-25T12:08:22Z</time>
      </trkpt>
      <trkpt lat="42.678287000000026" lon="-1.9389170000000027">
        <ele>426.276</ele>
        <time>2022-08-25T12:08:23Z</time>
      </trkpt>
      <trkpt lat="42.67828100000003" lon="-1.9389380000000027">
        <ele>426.233</ele>
        <time>2022-08-25T12:08:24Z</time>
      </trkpt>
      <trkpt lat="42.67827500000003" lon="-1.9389600000000027">
        <ele>426.416</ele>
        <time>2022-08-25T12:08:25Z</time>
      </trkpt>
      <trkpt lat="42.678270000000026" lon="-1.9389820000000026">
        <ele>426.442</ele>
        <time>2022-08-25T12:08:26Z</time>
      </trkpt>
      <trkpt lat="42.67826300000003" lon="-1.9390020000000026">
        <ele>426.683</ele>
        <time>2022-08-25T12:08:27Z</time>
      </trkpt>
      <trkpt lat="42.67825500000003" lon="-1.9390220000000025">
        <ele>426.662</ele>
        <time>2022-08-25T12:08:28Z</time>
      </trkpt>
      <trkpt lat="42.67824800000003" lon="-1.9390440000000024">
        <ele>426.683</ele>
        <time>2022-08-25T12:08:29Z</time>
      </trkpt>
      <trkpt lat="42.67823900000003" lon="-1.9390680000000025">
        <ele>426.611</ele>
        <time>2022-08-25T12:08:30Z</time>
      </trkpt>
      <trkpt lat="42.67823200000004" lon="-1.9390840000000025">
        <ele>426.609</ele>
        <time>2022-08-25T12:08:31Z</time>
      </trkpt>
      <trkpt lat="42.67822300000004" lon="-1.9391040000000024">
        <ele>426.867</ele>
        <time>2022-08-25T12:08:32Z</time>
      </trkpt>
      <trkpt lat="42.67821500000004" lon="-1.9391240000000023">
        <ele>426.867</ele>
        <time>2022-08-25T12:08:33Z</time>
      </trkpt>
      <trkpt lat="42.678204000000036" lon="-1.9391460000000023">
        <ele>427.037</ele>
        <time>2022-08-25T12:08:34Z</time>
      </trkpt>
      <trkpt lat="42.67819400000003" lon="-1.9391650000000022">
        <ele>427.263</ele>
        <time>2022-08-25T12:08:35Z</time>
      </trkpt>
      <trkpt lat="42.67818300000003" lon="-1.9391810000000023">
        <ele>427.225</ele>
        <time>2022-08-25T12:08:36Z</time>
      </trkpt>
      <trkpt lat="42.67817500000003" lon="-1.9391980000000022">
        <ele>427.292</ele>
        <time>2022-08-25T12:08:37Z</time>
      </trkpt>
      <trkpt lat="42.67816600000003" lon="-1.9392170000000022">
        <ele>427.255</ele>
        <time>2022-08-25T12:08:38Z</time>
      </trkpt>
      <trkpt lat="42.678157000000034" lon="-1.9392380000000022">
        <ele>427.421</ele>
        <time>2022-08-25T12:08:39Z</time>
      </trkpt>
      <trkpt lat="42.67814700000003" lon="-1.9392580000000021">
        <ele>427.682</ele>
        <time>2022-08-25T12:08:40Z</time>
      </trkpt>
      <trkpt lat="42.67807400000003" lon="-1.9393950000000022">
        <ele>428.651</ele>
        <time>2022-08-25T12:08:47Z</time>
      </trkpt>
      <trkpt lat="42.67806300000003" lon="-1.9394100000000023">
        <ele>428.601</ele>
        <time>2022-08-25T12:08:48Z</time>
      </trkpt>
      <trkpt lat="42.67804700000003" lon="-1.9394280000000024">
        <ele>428.611</ele>
        <time>2022-08-25T12:08:49Z</time>
      </trkpt>
      <trkpt lat="42.67803600000003" lon="-1.9394430000000025">
        <ele>428.809</ele>
        <time>2022-08-25T12:08:50Z</time>
      </trkpt>
      <trkpt lat="42.67802200000003" lon="-1.9394600000000024">
        <ele>428.846</ele>
        <time>2022-08-25T12:08:51Z</time>
      </trkpt>
      <trkpt lat="42.678009000000024" lon="-1.9394770000000023">
        <ele>428.866</ele>
        <time>2022-08-25T12:08:52Z</time>
      </trkpt>
      <trkpt lat="42.677997000000026" lon="-1.9394950000000024">
        <ele>429.026</ele>
        <time>2022-08-25T12:08:53Z</time>
      </trkpt>
      <trkpt lat="42.677986000000026" lon="-1.9395130000000025">
        <ele>429.022</ele>
        <time>2022-08-25T12:08:54Z</time>
      </trkpt>
      <trkpt lat="42.67797100000003" lon="-1.9395300000000024">
        <ele>429.064</ele>
        <time>2022-08-25T12:08:55Z</time>
      </trkpt>
      <trkpt lat="42.67796000000003" lon="-1.9395480000000025">
        <ele>429.251</ele>
        <time>2022-08-25T12:08:56Z</time>
      </trkpt>
      <trkpt lat="42.67795100000003" lon="-1.9395640000000025">
        <ele>429.274</ele>
        <time>2022-08-25T12:08:57Z</time>
      </trkpt>
      <trkpt lat="42.67794000000003" lon="-1.9395790000000026">
        <ele>429.430</ele>
        <time>2022-08-25T12:08:58Z</time>
      </trkpt>
      <trkpt lat="42.67792900000003" lon="-1.9395930000000026">
        <ele>429.451</ele>
        <time>2022-08-25T12:08:59Z</time>
      </trkpt>
      <trkpt lat="42.67791800000003" lon="-1.9396080000000027">
        <ele>429.485</ele>
        <time>2022-08-25T12:09:00Z</time>
      </trkpt>
      <trkpt lat="42.67790900000003" lon="-1.9396230000000028">
        <ele>429.689</ele>
        <time>2022-08-25T12:09:01Z</time>
      </trkpt>
      <trkpt lat="42.677899000000025" lon="-1.9396390000000028">
        <ele>429.617</ele>
        <time>2022-08-25T12:09:02Z</time>
      </trkpt>
      <trkpt lat="42.677829000000024" lon="-1.9397240000000027">
        <ele>430.609</ele>
        <time>2022-08-25T12:09:08Z</time>
      </trkpt>
      <trkpt lat="42.67781800000002" lon="-1.9397360000000026">
        <ele>430.699</ele>
        <time>2022-08-25T12:09:09Z</time>
      </trkpt>
      <trkpt lat="42.67780700000002" lon="-1.9397460000000026">
        <ele>430.649</ele>
        <time>2022-08-25T12:09:10Z</time>
      </trkpt>
      <trkpt lat="42.677784000000024" lon="-1.9397760000000026">
        <ele>430.859</ele>
        <time>2022-08-25T12:09:12Z</time>
      </trkpt>
      <trkpt lat="42.67777100000002" lon="-1.9397910000000027">
        <ele>430.885</ele>
        <time>2022-08-25T12:09:13Z</time>
      </trkpt>
      <trkpt lat="42.67775900000002" lon="-1.9398060000000028">
        <ele>430.827</ele>
        <time>2022-08-25T12:09:14Z</time>
      </trkpt>
      <trkpt lat="42.67773700000002" lon="-1.9398310000000027">
        <ele>431.034</ele>
        <time>2022-08-25T12:09:16Z</time>
      </trkpt>
      <trkpt lat="42.677725000000024" lon="-1.9398420000000027">
        <ele>431.037</ele>
        <time>2022-08-25T12:09:17Z</time>
      </trkpt>
      <trkpt lat="42.67767500000002" lon="-1.9398830000000027">
        <ele>431.273</ele>
        <time>2022-08-25T12:09:21Z</time>
      </trkpt>
      <trkpt lat="42.677663000000024" lon="-1.9398950000000026">
        <ele>431.484</ele>
        <time>2022-08-25T12:09:22Z</time>
      </trkpt>
      <trkpt lat="42.677651000000026" lon="-1.9399080000000026">
        <ele>431.627</ele>
        <time>2022-08-25T12:09:23Z</time>
      </trkpt>
      <trkpt lat="42.677640000000025" lon="-1.9399180000000027">
        <ele>431.668</ele>
        <time>2022-08-25T12:09:24Z</time>
      </trkpt>
      <trkpt lat="42.67762700000002" lon="-1.9399290000000027">
        <ele>431.614</ele>
        <time>2022-08-25T12:09:25Z</time>
      </trkpt>
      <trkpt lat="42.67761600000002" lon="-1.9399400000000027">
        <ele>431.609</ele>
        <time>2022-08-25T12:09:26Z</time>
      </trkpt>
      <trkpt lat="42.67760500000002" lon="-1.9399500000000027">
        <ele>431.673</ele>
        <time>2022-08-25T12:09:27Z</time>
      </trkpt>
      <trkpt lat="42.67759300000002" lon="-1.9399600000000028">
        <ele>431.823</ele>
        <time>2022-08-25T12:09:28Z</time>
      </trkpt>
      <trkpt lat="42.677513000000026" lon="-1.9400350000000028">
        <ele>432.673</ele>
        <time>2022-08-25T12:09:34Z</time>
      </trkpt>
      <trkpt lat="42.67750000000002" lon="-1.9400470000000027">
        <ele>432.819</ele>
        <time>2022-08-25T12:09:35Z</time>
      </trkpt>
      <trkpt lat="42.677488000000025" lon="-1.9400550000000027">
        <ele>432.891</ele>
        <time>2022-08-25T12:09:36Z</time>
      </trkpt>
      <trkpt lat="42.677474000000025" lon="-1.9400660000000027">
        <ele>433.038</ele>
        <time>2022-08-25T12:09:37Z</time>
      </trkpt>
      <trkpt lat="42.677463000000024" lon="-1.9400750000000027">
        <ele>433.061</ele>
        <time>2022-08-25T12:09:38Z</time>
      </trkpt>
      <trkpt lat="42.677452000000024" lon="-1.9400860000000026">
        <ele>433.087</ele>
        <time>2022-08-25T12:09:39Z</time>
      </trkpt>
      <trkpt lat="42.677440000000026" lon="-1.9400980000000025">
        <ele>433.068</ele>
        <time>2022-08-25T12:09:40Z</time>
      </trkpt>
      <trkpt lat="42.67743000000002" lon="-1.9401060000000026">
        <ele>433.025</ele>
        <time>2022-08-25T12:09:41Z</time>
      </trkpt>
      <trkpt lat="42.67741900000002" lon="-1.9401150000000025">
        <ele>433.026</ele>
        <time>2022-08-25T12:09:42Z</time>
      </trkpt>
      <trkpt lat="42.67737200000002" lon="-1.9401490000000026">
        <ele>433.208</ele>
        <time>2022-08-25T12:09:46Z</time>
      </trkpt>
      <trkpt lat="42.67736100000002" lon="-1.9401590000000026">
        <ele>433.209</ele>
        <time>2022-08-25T12:09:47Z</time>
      </trkpt>
      <trkpt lat="42.67727600000002" lon="-1.9402350000000026">
        <ele>433.853</ele>
        <time>2022-08-25T12:09:54Z</time>
      </trkpt>
      <trkpt lat="42.67726100000002" lon="-1.9402470000000025">
        <ele>433.823</ele>
        <time>2022-08-25T12:09:55Z</time>
      </trkpt>
      <trkpt lat="42.677218000000025" lon="-1.9402750000000024">
        <ele>434.043</ele>
        <time>2022-08-25T12:09:58Z</time>
      </trkpt>
      <trkpt lat="42.67720500000002" lon="-1.9402860000000024">
        <ele>434.229</ele>
        <time>2022-08-25T12:09:59Z</time>
      </trkpt>
      <trkpt lat="42.677193000000024" lon="-1.9402980000000023">
        <ele>434.281</ele>
        <time>2022-08-25T12:10:00Z</time>
      </trkpt>
      <trkpt lat="42.677133000000026" lon="-1.9403470000000023">
        <ele>434.618</ele>
        <time>2022-08-25T12:10:04Z</time>
      </trkpt>
      <trkpt lat="42.67710400000003" lon="-1.9403720000000022">
        <ele>435.031</ele>
        <time>2022-08-25T12:10:06Z</time>
      </trkpt>
      <trkpt lat="42.67700000000003" lon="-1.9404560000000022">
        <ele>435.487</ele>
        <time>2022-08-25T12:10:13Z</time>
      </trkpt>
      <trkpt lat="42.67698500000003" lon="-1.9404700000000021">
        <ele>435.438</ele>
        <time>2022-08-25T12:10:14Z</time>
      </trkpt>
      <trkpt lat="42.67697100000003" lon="-1.9404810000000021">
        <ele>435.666</ele>
        <time>2022-08-25T12:10:15Z</time>
      </trkpt>
      <trkpt lat="42.67695600000003" lon="-1.940492000000002">
        <ele>435.629</ele>
        <time>2022-08-25T12:10:16Z</time>
      </trkpt>
      <trkpt lat="42.676896000000035" lon="-1.9405350000000021">
        <ele>436.021</ele>
        <time>2022-08-25T12:10:20Z</time>
      </trkpt>
      <trkpt lat="42.67684700000004" lon="-1.9405750000000022">
        <ele>436.209</ele>
        <time>2022-08-25T12:10:23Z</time>
      </trkpt>
      <trkpt lat="42.67683600000004" lon="-1.9405830000000022">
        <ele>436.457</ele>
        <time>2022-08-25T12:10:24Z</time>
      </trkpt>
      <trkpt lat="42.67682200000004" lon="-1.9405940000000022">
        <ele>436.457</ele>
        <time>2022-08-25T12:10:25Z</time>
      </trkpt>
      <trkpt lat="42.676809000000034" lon="-1.9406100000000022">
        <ele>436.477</ele>
        <time>2022-08-25T12:10:26Z</time>
      </trkpt>
      <trkpt lat="42.676752000000036" lon="-1.9406590000000021">
        <ele>436.843</ele>
        <time>2022-08-25T12:10:30Z</time>
      </trkpt>
      <trkpt lat="42.676724000000036" lon="-1.9406830000000022">
        <ele>437.025</ele>
        <time>2022-08-25T12:10:32Z</time>
      </trkpt>
      <trkpt lat="42.676682000000035" lon="-1.9407210000000021">
        <ele>437.232</ele>
        <time>2022-08-25T12:10:35Z</time>
      </trkpt>
      <trkpt lat="42.67659100000004" lon="-1.9407940000000021">
        <ele>437.845</ele>
        <time>2022-08-25T12:10:41Z</time>
      </trkpt>
      <trkpt lat="42.67657600000004" lon="-1.940808000000002">
        <ele>437.811</ele>
        <time>2022-08-25T12:10:42Z</time>
      </trkpt>
      <trkpt lat="42.67653000000004" lon="-1.940852000000002">
        <ele>438.042</ele>
        <time>2022-08-25T12:10:45Z</time>
      </trkpt>
      <trkpt lat="42.676501000000044" lon="-1.9408750000000021">
        <ele>438.287</ele>
        <time>2022-08-25T12:10:47Z</time>
      </trkpt>
      <trkpt lat="42.67648600000005" lon="-1.9408880000000022">
        <ele>438.442</ele>
        <time>2022-08-25T12:10:48Z</time>
      </trkpt>
      <trkpt lat="42.67647100000005" lon="-1.9409030000000023">
        <ele>438.626</ele>
        <time>2022-08-25T12:10:49Z</time>
      </trkpt>
      <trkpt lat="42.67645700000005" lon="-1.9409160000000023">
        <ele>438.609</ele>
        <time>2022-08-25T12:10:50Z</time>
      </trkpt>
      <trkpt lat="42.67642900000005" lon="-1.9409460000000023">
        <ele>439.049</ele>
        <time>2022-08-25T12:10:52Z</time>
      </trkpt>
      <trkpt lat="42.676405000000045" lon="-1.9409760000000023">
        <ele>439.419</ele>
        <time>2022-08-25T12:10:54Z</time>
      </trkpt>
      <trkpt lat="42.676394000000045" lon="-1.9409890000000023">
        <ele>439.429</ele>
        <time>2022-08-25T12:10:55Z</time>
      </trkpt>
      <trkpt lat="42.67638400000004" lon="-1.9410010000000022">
        <ele>439.685</ele>
        <time>2022-08-25T12:10:56Z</time>
      </trkpt>
      <trkpt lat="42.67637100000004" lon="-1.9410120000000022">
        <ele>439.637</ele>
        <time>2022-08-25T12:10:57Z</time>
      </trkpt>
      <trkpt lat="42.67635700000004" lon="-1.9410260000000021">
        <ele>439.884</ele>
        <time>2022-08-25T12:10:58Z</time>
      </trkpt>
      <trkpt lat="42.67630800000004" lon="-1.9410800000000021">
        <ele>440.077</ele>
        <time>2022-08-25T12:11:02Z</time>
      </trkpt>
      <trkpt lat="42.67628200000004" lon="-1.941105000000002">
        <ele>440.273</ele>
        <time>2022-08-25T12:11:04Z</time>
      </trkpt>
      <trkpt lat="42.676259000000044" lon="-1.941132000000002">
        <ele>440.454</ele>
        <time>2022-08-25T12:11:06Z</time>
      </trkpt>
      <trkpt lat="42.676247000000046" lon="-1.941146000000002">
        <ele>440.491</ele>
        <time>2022-08-25T12:11:07Z</time>
      </trkpt>
      <trkpt lat="42.676233000000046" lon="-1.941160000000002">
        <ele>440.481</ele>
        <time>2022-08-25T12:11:08Z</time>
      </trkpt>
      <trkpt lat="42.676169000000044" lon="-1.941234000000002">
        <ele>440.819</ele>
        <time>2022-08-25T12:11:12Z</time>
      </trkpt>
      <trkpt lat="42.67614400000004" lon="-1.941276000000002">
        <ele>441.009</ele>
        <time>2022-08-25T12:11:14Z</time>
      </trkpt>
      <trkpt lat="42.67613400000004" lon="-1.941294000000002">
        <ele>441.020</ele>
        <time>2022-08-25T12:11:15Z</time>
      </trkpt>
      <trkpt lat="42.67612200000004" lon="-1.941308000000002">
        <ele>441.220</ele>
        <time>2022-08-25T12:11:16Z</time>
      </trkpt>
      <trkpt lat="42.676110000000044" lon="-1.9413230000000021">
        <ele>441.480</ele>
        <time>2022-08-25T12:11:17Z</time>
      </trkpt>
      <trkpt lat="42.676101000000045" lon="-1.941340000000002">
        <ele>441.476</ele>
        <time>2022-08-25T12:11:18Z</time>
      </trkpt>
      <trkpt lat="42.67609100000004" lon="-1.941356000000002">
        <ele>441.468</ele>
        <time>2022-08-25T12:11:19Z</time>
      </trkpt>
      <trkpt lat="42.67608300000004" lon="-1.9413690000000021">
        <ele>441.895</ele>
        <time>2022-08-25T12:11:20Z</time>
      </trkpt>
      <trkpt lat="42.67607300000004" lon="-1.9413850000000021">
        <ele>442.088</ele>
        <time>2022-08-25T12:11:21Z</time>
      </trkpt>
      <trkpt lat="42.67606500000004" lon="-1.941397000000002">
        <ele>442.074</ele>
        <time>2022-08-25T12:11:22Z</time>
      </trkpt>
      <trkpt lat="42.676055000000034" lon="-1.941409000000002">
        <ele>442.265</ele>
        <time>2022-08-25T12:11:23Z</time>
      </trkpt>
      <trkpt lat="42.67604500000003" lon="-1.941422000000002">
        <ele>442.256</ele>
        <time>2022-08-25T12:11:24Z</time>
      </trkpt>
      <trkpt lat="42.67603400000003" lon="-1.941436000000002">
        <ele>442.259</ele>
        <time>2022-08-25T12:11:25Z</time>
      </trkpt>
      <trkpt lat="42.67602300000003" lon="-1.941451000000002">
        <ele>442.414</ele>
        <time>2022-08-25T12:11:26Z</time>
      </trkpt>
      <trkpt lat="42.676013000000026" lon="-1.9414660000000021">
        <ele>442.609</ele>
        <time>2022-08-25T12:11:27Z</time>
      </trkpt>
      <trkpt lat="42.67600300000002" lon="-1.9414810000000022">
        <ele>442.826</ele>
        <time>2022-08-25T12:11:28Z</time>
      </trkpt>
      <trkpt lat="42.675994000000024" lon="-1.9414970000000022">
        <ele>442.856</ele>
        <time>2022-08-25T12:11:29Z</time>
      </trkpt>
      <trkpt lat="42.67598600000002" lon="-1.9415110000000022">
        <ele>442.876</ele>
        <time>2022-08-25T12:11:30Z</time>
      </trkpt>
      <trkpt lat="42.675977000000024" lon="-1.9415250000000022">
        <ele>443.032</ele>
        <time>2022-08-25T12:11:31Z</time>
      </trkpt>
      <trkpt lat="42.675966000000024" lon="-1.9415410000000022">
        <ele>443.064</ele>
        <time>2022-08-25T12:11:32Z</time>
      </trkpt>
      <trkpt lat="42.67595600000002" lon="-1.9415580000000021">
        <ele>443.051</ele>
        <time>2022-08-25T12:11:33Z</time>
      </trkpt>
      <trkpt lat="42.67594500000002" lon="-1.9415730000000022">
        <ele>443.284</ele>
        <time>2022-08-25T12:11:34Z</time>
      </trkpt>
      <trkpt lat="42.67593500000002" lon="-1.9415880000000023">
        <ele>443.250</ele>
        <time>2022-08-25T12:11:35Z</time>
      </trkpt>
      <trkpt lat="42.675927000000016" lon="-1.9416020000000023">
        <ele>443.481</ele>
        <time>2022-08-25T12:11:36Z</time>
      </trkpt>
      <trkpt lat="42.67591700000001" lon="-1.9416150000000023">
        <ele>443.622</ele>
        <time>2022-08-25T12:11:37Z</time>
      </trkpt>
      <trkpt lat="42.67590900000001" lon="-1.9416280000000024">
        <ele>443.862</ele>
        <time>2022-08-25T12:11:38Z</time>
      </trkpt>
      <trkpt lat="42.67590100000001" lon="-1.9416420000000023">
        <ele>443.808</ele>
        <time>2022-08-25T12:11:39Z</time>
      </trkpt>
      <trkpt lat="42.67589200000001" lon="-1.9416570000000024">
        <ele>443.809</ele>
        <time>2022-08-25T12:11:40Z</time>
      </trkpt>
      <trkpt lat="42.67588200000001" lon="-1.9416700000000024">
        <ele>444.073</ele>
        <time>2022-08-25T12:11:41Z</time>
      </trkpt>
      <trkpt lat="42.675872000000005" lon="-1.9416850000000025">
        <ele>444.053</ele>
        <time>2022-08-25T12:11:42Z</time>
      </trkpt>
      <trkpt lat="42.675861000000005" lon="-1.9416980000000026">
        <ele>444.223</ele>
        <time>2022-08-25T12:11:43Z</time>
      </trkpt>
      <trkpt lat="42.675850000000004" lon="-1.9417140000000026">
        <ele>444.289</ele>
        <time>2022-08-25T12:11:44Z</time>
      </trkpt>
      <trkpt lat="42.675842" lon="-1.9417310000000025">
        <ele>444.271</ele>
        <time>2022-08-25T12:11:45Z</time>
      </trkpt>
      <trkpt lat="42.675832" lon="-1.9417450000000025">
        <ele>444.478</ele>
        <time>2022-08-25T12:11:46Z</time>
      </trkpt>
      <trkpt lat="42.675821" lon="-1.9417610000000025">
        <ele>444.421</ele>
        <time>2022-08-25T12:11:47Z</time>
      </trkpt>
      <trkpt lat="42.675810999999996" lon="-1.9417790000000026">
        <ele>444.677</ele>
        <time>2022-08-25T12:11:48Z</time>
      </trkpt>
      <trkpt lat="42.675799" lon="-1.9417980000000026">
        <ele>444.688</ele>
        <time>2022-08-25T12:11:49Z</time>
      </trkpt>
      <trkpt lat="42.675788" lon="-1.9418170000000026">
        <ele>444.835</ele>
        <time>2022-08-25T12:11:50Z</time>
      </trkpt>
      <trkpt lat="42.675776" lon="-1.9418340000000025">
        <ele>444.886</ele>
        <time>2022-08-25T12:11:51Z</time>
      </trkpt>
      <trkpt lat="42.675765999999996" lon="-1.9418540000000024">
        <ele>444.814</ele>
        <time>2022-08-25T12:11:52Z</time>
      </trkpt>
      <trkpt lat="42.675754999999995" lon="-1.9418740000000023">
        <ele>445.009</ele>
        <time>2022-08-25T12:11:53Z</time>
      </trkpt>
      <trkpt lat="42.675695" lon="-1.9419770000000023">
        <ele>445.664</ele>
        <time>2022-08-25T12:11:58Z</time>
      </trkpt>
      <trkpt lat="42.675684" lon="-1.9419980000000023">
        <ele>445.844</ele>
        <time>2022-08-25T12:11:59Z</time>
      </trkpt>
      <trkpt lat="42.675673999999994" lon="-1.9420190000000024">
        <ele>445.864</ele>
        <time>2022-08-25T12:12:00Z</time>
      </trkpt>
      <trkpt lat="42.675664999999995" lon="-1.9420400000000024">
        <ele>446.050</ele>
        <time>2022-08-25T12:12:01Z</time>
      </trkpt>
      <trkpt lat="42.675653" lon="-1.9420620000000024">
        <ele>446.222</ele>
        <time>2022-08-25T12:12:02Z</time>
      </trkpt>
      <trkpt lat="42.675641999999996" lon="-1.9420830000000024">
        <ele>446.259</ele>
        <time>2022-08-25T12:12:03Z</time>
      </trkpt>
      <trkpt lat="42.67563199999999" lon="-1.9421040000000025">
        <ele>446.432</ele>
        <time>2022-08-25T12:12:04Z</time>
      </trkpt>
      <trkpt lat="42.67562199999999" lon="-1.9421260000000025">
        <ele>446.638</ele>
        <time>2022-08-25T12:12:05Z</time>
      </trkpt>
      <trkpt lat="42.67561399999999" lon="-1.9421480000000024">
        <ele>446.659</ele>
        <time>2022-08-25T12:12:06Z</time>
      </trkpt>
      <trkpt lat="42.67560499999999" lon="-1.9421690000000025">
        <ele>446.633</ele>
        <time>2022-08-25T12:12:07Z</time>
      </trkpt>
      <trkpt lat="42.67559699999999" lon="-1.9421890000000024">
        <ele>446.823</ele>
        <time>2022-08-25T12:12:08Z</time>
      </trkpt>
      <trkpt lat="42.675586999999986" lon="-1.9422100000000024">
        <ele>446.815</ele>
        <time>2022-08-25T12:12:09Z</time>
      </trkpt>
      <trkpt lat="42.67557699999998" lon="-1.9422290000000024">
        <ele>447.209</ele>
        <time>2022-08-25T12:12:10Z</time>
      </trkpt>
      <trkpt lat="42.67556899999998" lon="-1.9422490000000023">
        <ele>447.264</ele>
        <time>2022-08-25T12:12:11Z</time>
      </trkpt>
      <trkpt lat="42.67556099999998" lon="-1.9422670000000024">
        <ele>447.484</ele>
        <time>2022-08-25T12:12:12Z</time>
      </trkpt>
      <trkpt lat="42.67555299999998" lon="-1.9422860000000024">
        <ele>447.464</ele>
        <time>2022-08-25T12:12:13Z</time>
      </trkpt>
      <trkpt lat="42.67554499999998" lon="-1.9423050000000024">
        <ele>447.460</ele>
        <time>2022-08-25T12:12:14Z</time>
      </trkpt>
      <trkpt lat="42.67553799999998" lon="-1.9423260000000024">
        <ele>447.622</ele>
        <time>2022-08-25T12:12:15Z</time>
      </trkpt>
      <trkpt lat="42.67553199999998" lon="-1.9423490000000025">
        <ele>447.639</ele>
        <time>2022-08-25T12:12:16Z</time>
      </trkpt>
      <trkpt lat="42.675525999999984" lon="-1.9423730000000026">
        <ele>447.642</ele>
        <time>2022-08-25T12:12:17Z</time>
      </trkpt>
      <trkpt lat="42.67551799999998" lon="-1.9423960000000027">
        <ele>447.858</ele>
        <time>2022-08-25T12:12:18Z</time>
      </trkpt>
      <trkpt lat="42.67550799999998" lon="-1.9424190000000028">
        <ele>447.849</ele>
        <time>2022-08-25T12:12:19Z</time>
      </trkpt>
      <trkpt lat="42.675497999999976" lon="-1.9424410000000027">
        <ele>447.832</ele>
        <time>2022-08-25T12:12:20Z</time>
      </trkpt>
      <trkpt lat="42.67549099999998" lon="-1.9424610000000027">
        <ele>448.092</ele>
        <time>2022-08-25T12:12:21Z</time>
      </trkpt>
      <trkpt lat="42.67548499999998" lon="-1.9424830000000026">
        <ele>448.011</ele>
        <time>2022-08-25T12:12:22Z</time>
      </trkpt>
      <trkpt lat="42.67547999999998" lon="-1.9425050000000026">
        <ele>448.009</ele>
        <time>2022-08-25T12:12:23Z</time>
      </trkpt>
      <trkpt lat="42.67547599999998" lon="-1.9425270000000026">
        <ele>448.224</ele>
        <time>2022-08-25T12:12:24Z</time>
      </trkpt>
      <trkpt lat="42.67544599999998" lon="-1.9426380000000025">
        <ele>448.214</ele>
        <time>2022-08-25T12:12:29Z</time>
      </trkpt>
      <trkpt lat="42.67544099999998" lon="-1.9426600000000025">
        <ele>448.294</ele>
        <time>2022-08-25T12:12:30Z</time>
      </trkpt>
      <trkpt lat="42.675438999999976" lon="-1.9426810000000025">
        <ele>448.460</ele>
        <time>2022-08-25T12:12:31Z</time>
      </trkpt>
      <trkpt lat="42.675433999999974" lon="-1.9427000000000025">
        <ele>448.412</ele>
        <time>2022-08-25T12:12:32Z</time>
      </trkpt>
      <trkpt lat="42.67542699999998" lon="-1.9427190000000025">
        <ele>448.489</ele>
        <time>2022-08-25T12:12:33Z</time>
      </trkpt>
      <trkpt lat="42.67542299999998" lon="-1.9427360000000025">
        <ele>448.442</ele>
        <time>2022-08-25T12:12:34Z</time>
      </trkpt>
      <trkpt lat="42.67542099999998" lon="-1.9427530000000024">
        <ele>448.488</ele>
        <time>2022-08-25T12:12:35Z</time>
      </trkpt>
      <trkpt lat="42.67541999999998" lon="-1.9427690000000024">
        <ele>448.489</ele>
        <time>2022-08-25T12:12:36Z</time>
      </trkpt>
      <trkpt lat="42.67542099999998" lon="-1.9427870000000025">
        <ele>448.493</ele>
        <time>2022-08-25T12:12:37Z</time>
      </trkpt>
      <trkpt lat="42.67541999999998" lon="-1.9428050000000026">
        <ele>448.665</ele>
        <time>2022-08-25T12:12:38Z</time>
      </trkpt>
      <trkpt lat="42.675418999999984" lon="-1.9428210000000026">
        <ele>448.821</ele>
        <time>2022-08-25T12:12:39Z</time>
      </trkpt>
      <trkpt lat="42.67541699999998" lon="-1.9428420000000026">
        <ele>449.009</ele>
        <time>2022-08-25T12:12:42Z</time>
      </trkpt>
      <trkpt lat="42.675409999999985" lon="-1.9429120000000026">
        <ele>449.240</ele>
        <time>2022-08-25T12:13:03Z</time>
      </trkpt>
      <trkpt lat="42.67540899999999" lon="-1.9429440000000027">
        <ele>449.270</ele>
        <time>2022-08-25T12:13:04Z</time>
      </trkpt>
      <trkpt lat="42.675375999999986" lon="-1.9431830000000028">
        <ele>449.470</ele>
        <time>2022-08-25T12:13:10Z</time>
      </trkpt>
      <trkpt lat="42.67528999999998" lon="-1.9435230000000028">
        <ele>450.296</ele>
        <time>2022-08-25T12:13:18Z</time>
      </trkpt>
      <trkpt lat="42.67528499999998" lon="-1.9435670000000027">
        <ele>450.468</ele>
        <time>2022-08-25T12:13:19Z</time>
      </trkpt>
      <trkpt lat="42.67527999999998" lon="-1.9436090000000028">
        <ele>450.455</ele>
        <time>2022-08-25T12:13:20Z</time>
      </trkpt>
      <trkpt lat="42.67527299999998" lon="-1.9436530000000027">
        <ele>450.628</ele>
        <time>2022-08-25T12:13:21Z</time>
      </trkpt>
      <trkpt lat="42.67526299999998" lon="-1.9436960000000028">
        <ele>450.674</ele>
        <time>2022-08-25T12:13:22Z</time>
      </trkpt>
      <trkpt lat="42.67525399999998" lon="-1.9437370000000027">
        <ele>450.665</ele>
        <time>2022-08-25T12:13:23Z</time>
      </trkpt>
      <trkpt lat="42.675246999999985" lon="-1.9437780000000027">
        <ele>450.817</ele>
        <time>2022-08-25T12:13:24Z</time>
      </trkpt>
      <trkpt lat="42.675240999999986" lon="-1.9438170000000026">
        <ele>451.087</ele>
        <time>2022-08-25T12:13:25Z</time>
      </trkpt>
      <trkpt lat="42.67523399999999" lon="-1.9438550000000026">
        <ele>451.215</ele>
        <time>2022-08-25T12:13:26Z</time>
      </trkpt>
      <trkpt lat="42.67522799999999" lon="-1.9438900000000026">
        <ele>451.209</ele>
        <time>2022-08-25T12:13:27Z</time>
      </trkpt>
      <trkpt lat="42.67521999999999" lon="-1.9439220000000026">
        <ele>451.642</ele>
        <time>2022-08-25T12:13:28Z</time>
      </trkpt>
      <trkpt lat="42.67520899999999" lon="-1.9439540000000026">
        <ele>452.072</ele>
        <time>2022-08-25T12:13:29Z</time>
      </trkpt>
      <trkpt lat="42.67519699999999" lon="-1.9439870000000026">
        <ele>452.052</ele>
        <time>2022-08-25T12:13:30Z</time>
      </trkpt>
      <trkpt lat="42.67516299999999" lon="-1.9440930000000025">
        <ele>452.248</ele>
        <time>2022-08-25T12:13:33Z</time>
      </trkpt>
      <trkpt lat="42.67515199999999" lon="-1.9441290000000024">
        <ele>452.470</ele>
        <time>2022-08-25T12:13:34Z</time>
      </trkpt>
      <trkpt lat="42.67514099999999" lon="-1.9441640000000024">
        <ele>452.477</ele>
        <time>2022-08-25T12:13:35Z</time>
      </trkpt>
      <trkpt lat="42.67512799999999" lon="-1.9442000000000024">
        <ele>452.670</ele>
        <time>2022-08-25T12:13:36Z</time>
      </trkpt>
      <trkpt lat="42.675116999999986" lon="-1.9442370000000024">
        <ele>452.666</ele>
        <time>2022-08-25T12:13:37Z</time>
      </trkpt>
      <trkpt lat="42.675105999999985" lon="-1.9442740000000025">
        <ele>452.857</ele>
        <time>2022-08-25T12:13:38Z</time>
      </trkpt>
      <trkpt lat="42.67509599999998" lon="-1.9443110000000026">
        <ele>452.862</ele>
        <time>2022-08-25T12:13:39Z</time>
      </trkpt>
      <trkpt lat="42.67508299999998" lon="-1.9443470000000025">
        <ele>452.883</ele>
        <time>2022-08-25T12:13:40Z</time>
      </trkpt>
      <trkpt lat="42.67506999999998" lon="-1.9443810000000026">
        <ele>452.811</ele>
        <time>2022-08-25T12:13:41Z</time>
      </trkpt>
      <trkpt lat="42.675059999999974" lon="-1.9444160000000026">
        <ele>452.809</ele>
        <time>2022-08-25T12:13:42Z</time>
      </trkpt>
      <trkpt lat="42.67505199999997" lon="-1.9444490000000025">
        <ele>452.897</ele>
        <time>2022-08-25T12:13:43Z</time>
      </trkpt>
      <trkpt lat="42.67504399999997" lon="-1.9444810000000026">
        <ele>452.877</ele>
        <time>2022-08-25T12:13:44Z</time>
      </trkpt>
      <trkpt lat="42.67503499999997" lon="-1.9445090000000025">
        <ele>452.897</ele>
        <time>2022-08-25T12:13:45Z</time>
      </trkpt>
      <trkpt lat="42.675027999999976" lon="-1.9445350000000026">
        <ele>452.883</ele>
        <time>2022-08-25T12:13:46Z</time>
      </trkpt>
      <trkpt lat="42.67502199999998" lon="-1.9445600000000025">
        <ele>452.855</ele>
        <time>2022-08-25T12:13:47Z</time>
      </trkpt>
      <trkpt lat="42.67501499999998" lon="-1.9445830000000026">
        <ele>452.892</ele>
        <time>2022-08-25T12:13:48Z</time>
      </trkpt>
      <trkpt lat="42.67500999999998" lon="-1.9446030000000025">
        <ele>452.855</ele>
        <time>2022-08-25T12:13:49Z</time>
      </trkpt>
      <trkpt lat="42.67500499999998" lon="-1.9446120000000024">
        <ele>452.841</ele>
        <time>2022-08-25T12:13:50Z</time>
      </trkpt>
      <trkpt lat="42.675002999999975" lon="-1.9446170000000025">
        <ele>452.872</ele>
        <time>2022-08-25T12:13:51Z</time>
      </trkpt>
      <trkpt lat="42.675002999999975" lon="-1.9446170000000025">
        <ele>452.837</ele>
        <time>2022-08-25T12:13:52Z</time>
      </trkpt>
      <trkpt lat="42.674991999999975" lon="-1.9446350000000026">
        <ele>451.649</ele>
        <time>2022-08-25T12:14:36Z</time>
      </trkpt>
      <trkpt lat="42.674977999999975" lon="-1.9446580000000027">
        <ele>451.613</ele>
        <time>2022-08-25T12:14:37Z</time>
      </trkpt>
      <trkpt lat="42.67494599999998" lon="-1.9447220000000027">
        <ele>451.609</ele>
        <time>2022-08-25T12:14:40Z</time>
      </trkpt>
      <trkpt lat="42.674937999999976" lon="-1.9447400000000028">
        <ele>451.464</ele>
        <time>2022-08-25T12:14:41Z</time>
      </trkpt>
      <trkpt lat="42.67493099999998" lon="-1.9447560000000028">
        <ele>451.494</ele>
        <time>2022-08-25T12:14:42Z</time>
      </trkpt>
      <trkpt lat="42.67492199999998" lon="-1.9447690000000029">
        <ele>451.614</ele>
        <time>2022-08-25T12:14:43Z</time>
      </trkpt>
      <trkpt lat="42.67491699999998" lon="-1.944776000000003">
        <ele>451.640</ele>
        <time>2022-08-25T12:14:44Z</time>
      </trkpt>
      <trkpt lat="42.67491499999998" lon="-1.944776000000003">
        <ele>451.492</ele>
        <time>2022-08-25T12:16:00Z</time>
      </trkpt>
      <trkpt lat="42.674895999999976" lon="-1.944781000000003">
        <ele>451.439</ele>
        <time>2022-08-25T12:16:01Z</time>
      </trkpt>
      <trkpt lat="42.67480399999997" lon="-1.944870000000003">
        <ele>451.442</ele>
        <time>2022-08-25T12:16:05Z</time>
      </trkpt>
      <trkpt lat="42.67477099999997" lon="-1.944897000000003">
        <ele>451.448</ele>
        <time>2022-08-25T12:16:06Z</time>
      </trkpt>
      <trkpt lat="42.67471699999997" lon="-1.944931000000003">
        <ele>451.419</ele>
        <time>2022-08-25T12:16:08Z</time>
      </trkpt>
      <trkpt lat="42.67469699999997" lon="-1.944943000000003">
        <ele>451.234</ele>
        <time>2022-08-25T12:16:09Z</time>
      </trkpt>
      <trkpt lat="42.67467199999997" lon="-1.944956000000003">
        <ele>451.255</ele>
        <time>2022-08-25T12:16:10Z</time>
      </trkpt>
      <trkpt lat="42.674645999999974" lon="-1.944967000000003">
        <ele>451.210</ele>
        <time>2022-08-25T12:16:11Z</time>
      </trkpt>
      <trkpt lat="42.674591999999976" lon="-1.944990000000003">
        <ele>451.209</ele>
        <time>2022-08-25T12:16:13Z</time>
      </trkpt>
      <trkpt lat="42.67430699999998" lon="-1.945133000000003">
        <ele>451.224</ele>
        <time>2022-08-25T12:16:23Z</time>
      </trkpt>
      <trkpt lat="42.674054999999974" lon="-1.9452640000000032">
        <ele>451.064</ele>
        <time>2022-08-25T12:16:30Z</time>
      </trkpt>
      <trkpt lat="42.67399099999997" lon="-1.9452940000000032">
        <ele>451.084</ele>
        <time>2022-08-25T12:16:32Z</time>
      </trkpt>
      <trkpt lat="42.67392099999997" lon="-1.945333000000003">
        <ele>451.040</ele>
        <time>2022-08-25T12:16:34Z</time>
      </trkpt>
      <trkpt lat="42.67387999999997" lon="-1.945353000000003">
        <ele>451.272</ele>
        <time>2022-08-25T12:16:35Z</time>
      </trkpt>
      <trkpt lat="42.67385199999997" lon="-1.945369000000003">
        <ele>451.259</ele>
        <time>2022-08-25T12:16:36Z</time>
      </trkpt>
      <trkpt lat="42.673818999999966" lon="-1.945388000000003">
        <ele>451.262</ele>
        <time>2022-08-25T12:16:37Z</time>
      </trkpt>
      <trkpt lat="42.67378499999997" lon="-1.945404000000003">
        <ele>451.288</ele>
        <time>2022-08-25T12:16:38Z</time>
      </trkpt>
      <trkpt lat="42.67345799999997" lon="-1.945565000000003">
        <ele>451.669</ele>
        <time>2022-08-25T12:16:47Z</time>
      </trkpt>
      <trkpt lat="42.67314299999997" lon="-1.945760000000003">
        <ele>451.638</ele>
        <time>2022-08-25T12:16:55Z</time>
      </trkpt>
      <trkpt lat="42.67304599999997" lon="-1.945851000000003">
        <ele>451.670</ele>
        <time>2022-08-25T12:16:58Z</time>
      </trkpt>
      <trkpt lat="42.67300699999997" lon="-1.9458910000000031">
        <ele>451.617</ele>
        <time>2022-08-25T12:16:59Z</time>
      </trkpt>
      <trkpt lat="42.67297699999997" lon="-1.945924000000003">
        <ele>451.609</ele>
        <time>2022-08-25T12:17:00Z</time>
      </trkpt>
      <trkpt lat="42.672952999999964" lon="-1.945954000000003">
        <ele>451.664</ele>
        <time>2022-08-25T12:17:01Z</time>
      </trkpt>
      <trkpt lat="42.672921999999964" lon="-1.945998000000003">
        <ele>451.694</ele>
        <time>2022-08-25T12:17:02Z</time>
      </trkpt>
      <trkpt lat="42.672893999999964" lon="-1.946034000000003">
        <ele>451.824</ele>
        <time>2022-08-25T12:17:03Z</time>
      </trkpt>
      <trkpt lat="42.67287299999997" lon="-1.946063000000003">
        <ele>451.870</ele>
        <time>2022-08-25T12:17:04Z</time>
      </trkpt>
      <trkpt lat="42.672845999999964" lon="-1.9461020000000029">
        <ele>451.892</ele>
        <time>2022-08-25T12:17:05Z</time>
      </trkpt>
      <trkpt lat="42.67282099999996" lon="-1.946139000000003">
        <ele>451.879</ele>
        <time>2022-08-25T12:17:06Z</time>
      </trkpt>
      <trkpt lat="42.67279599999996" lon="-1.946174000000003">
        <ele>451.862</ele>
        <time>2022-08-25T12:17:07Z</time>
      </trkpt>
      <trkpt lat="42.672766999999965" lon="-1.946217000000003">
        <ele>452.028</ele>
        <time>2022-08-25T12:17:08Z</time>
      </trkpt>
      <trkpt lat="42.672746999999966" lon="-1.946251000000003">
        <ele>452.039</ele>
        <time>2022-08-25T12:17:09Z</time>
      </trkpt>
      <trkpt lat="42.67273099999996" lon="-1.946276000000003">
        <ele>452.232</ele>
        <time>2022-08-25T12:17:10Z</time>
      </trkpt>
      <trkpt lat="42.67270699999996" lon="-1.946313000000003">
        <ele>452.292</ele>
        <time>2022-08-25T12:17:11Z</time>
      </trkpt>
      <trkpt lat="42.67268799999996" lon="-1.9463420000000031">
        <ele>452.411</ele>
        <time>2022-08-25T12:17:12Z</time>
      </trkpt>
      <trkpt lat="42.672671999999956" lon="-1.9463680000000032">
        <ele>452.609</ele>
        <time>2022-08-25T12:17:13Z</time>
      </trkpt>
      <trkpt lat="42.672649999999955" lon="-1.9464010000000032">
        <ele>452.844</ele>
        <time>2022-08-25T12:17:14Z</time>
      </trkpt>
      <trkpt lat="42.67263099999995" lon="-1.9464310000000031">
        <ele>452.854</ele>
        <time>2022-08-25T12:17:15Z</time>
      </trkpt>
      <trkpt lat="42.67261199999995" lon="-1.9464600000000032">
        <ele>452.864</ele>
        <time>2022-08-25T12:17:16Z</time>
      </trkpt>
      <trkpt lat="42.67256999999995" lon="-1.9465250000000032">
        <ele>453.070</ele>
        <time>2022-08-25T12:17:18Z</time>
      </trkpt>
      <trkpt lat="42.67245699999995" lon="-1.9467000000000032">
        <ele>453.872</ele>
        <time>2022-08-25T12:17:24Z</time>
      </trkpt>
      <trkpt lat="42.67240999999995" lon="-1.9467690000000033">
        <ele>454.079</ele>
        <time>2022-08-25T12:17:26Z</time>
      </trkpt>
      <trkpt lat="42.67233199999995" lon="-1.9468900000000033">
        <ele>454.252</ele>
        <time>2022-08-25T12:17:30Z</time>
      </trkpt>
      <trkpt lat="42.67227199999995" lon="-1.9469740000000033">
        <ele>454.498</ele>
        <time>2022-08-25T12:17:33Z</time>
      </trkpt>
      <trkpt lat="42.67203999999995" lon="-1.9472550000000033">
        <ele>454.429</ele>
        <time>2022-08-25T12:17:41Z</time>
      </trkpt>
      <trkpt lat="42.671895999999954" lon="-1.9474350000000034">
        <ele>454.413</ele>
        <time>2022-08-25T12:17:46Z</time>
      </trkpt>
      <trkpt lat="42.671864999999954" lon="-1.9474700000000034">
        <ele>454.443</ele>
        <time>2022-08-25T12:17:47Z</time>
      </trkpt>
      <trkpt lat="42.671833999999954" lon="-1.9475040000000035">
        <ele>454.407</ele>
        <time>2022-08-25T12:17:48Z</time>
      </trkpt>
      <trkpt lat="42.67179899999996" lon="-1.9475460000000036">
        <ele>454.409</ele>
        <time>2022-08-25T12:17:49Z</time>
      </trkpt>
      <trkpt lat="42.67176999999996" lon="-1.9475790000000035">
        <ele>454.422</ele>
        <time>2022-08-25T12:17:50Z</time>
      </trkpt>
      <trkpt lat="42.67174699999996" lon="-1.9476040000000034">
        <ele>454.432</ele>
        <time>2022-08-25T12:17:51Z</time>
      </trkpt>
      <trkpt lat="42.67171799999996" lon="-1.9476370000000034">
        <ele>454.452</ele>
        <time>2022-08-25T12:17:52Z</time>
      </trkpt>
      <trkpt lat="42.67168699999996" lon="-1.9476780000000034">
        <ele>454.458</ele>
        <time>2022-08-25T12:17:53Z</time>
      </trkpt>
      <trkpt lat="42.671660999999965" lon="-1.9477110000000033">
        <ele>454.620</ele>
        <time>2022-08-25T12:17:54Z</time>
      </trkpt>
      <trkpt lat="42.67163999999997" lon="-1.9477340000000034">
        <ele>454.667</ele>
        <time>2022-08-25T12:17:55Z</time>
      </trkpt>
      <trkpt lat="42.67161699999997" lon="-1.9477630000000035">
        <ele>454.640</ele>
        <time>2022-08-25T12:17:56Z</time>
      </trkpt>
      <trkpt lat="42.67159399999997" lon="-1.9477870000000035">
        <ele>454.826</ele>
        <time>2022-08-25T12:17:57Z</time>
      </trkpt>
      <trkpt lat="42.671572999999974" lon="-1.9478100000000036">
        <ele>454.887</ele>
        <time>2022-08-25T12:17:58Z</time>
      </trkpt>
      <trkpt lat="42.67154899999997" lon="-1.9478390000000037">
        <ele>455.067</ele>
        <time>2022-08-25T12:17:59Z</time>
      </trkpt>
      <trkpt lat="42.67153499999997" lon="-1.9478590000000036">
        <ele>455.081</ele>
        <time>2022-08-25T12:18:00Z</time>
      </trkpt>
      <trkpt lat="42.67151699999997" lon="-1.9478810000000035">
        <ele>455.219</ele>
        <time>2022-08-25T12:18:01Z</time>
      </trkpt>
      <trkpt lat="42.67150299999997" lon="-1.9479010000000034">
        <ele>455.409</ele>
        <time>2022-08-25T12:18:02Z</time>
      </trkpt>
      <trkpt lat="42.67148599999997" lon="-1.9479220000000035">
        <ele>455.497</ele>
        <time>2022-08-25T12:18:03Z</time>
      </trkpt>
      <trkpt lat="42.67147499999997" lon="-1.9479370000000036">
        <ele>455.427</ele>
        <time>2022-08-25T12:18:04Z</time>
      </trkpt>
      <trkpt lat="42.67146099999997" lon="-1.9479580000000036">
        <ele>455.427</ele>
        <time>2022-08-25T12:18:05Z</time>
      </trkpt>
      <trkpt lat="42.671442999999975" lon="-1.9479820000000037">
        <ele>455.673</ele>
        <time>2022-08-25T12:18:06Z</time>
      </trkpt>
      <trkpt lat="42.67139699999998" lon="-1.9480380000000037">
        <ele>456.025</ele>
        <time>2022-08-25T12:18:09Z</time>
      </trkpt>
      <trkpt lat="42.67138199999998" lon="-1.9480550000000036">
        <ele>456.062</ele>
        <time>2022-08-25T12:18:10Z</time>
      </trkpt>
      <trkpt lat="42.67136299999998" lon="-1.9480750000000036">
        <ele>456.245</ele>
        <time>2022-08-25T12:18:11Z</time>
      </trkpt>
      <trkpt lat="42.671346999999976" lon="-1.9480920000000035">
        <ele>456.261</ele>
        <time>2022-08-25T12:18:12Z</time>
      </trkpt>
      <trkpt lat="42.671332999999976" lon="-1.9481060000000034">
        <ele>456.452</ele>
        <time>2022-08-25T12:18:13Z</time>
      </trkpt>
      <trkpt lat="42.671318999999976" lon="-1.9481220000000035">
        <ele>456.444</ele>
        <time>2022-08-25T12:18:14Z</time>
      </trkpt>
      <trkpt lat="42.67124499999998" lon="-1.9482160000000035">
        <ele>457.005</ele>
        <time>2022-08-25T12:18:19Z</time>
      </trkpt>
      <trkpt lat="42.67123099999998" lon="-1.9482330000000034">
        <ele>457.015</ele>
        <time>2022-08-25T12:18:20Z</time>
      </trkpt>
      <trkpt lat="42.67121899999998" lon="-1.9482510000000035">
        <ele>457.209</ele>
        <time>2022-08-25T12:18:21Z</time>
      </trkpt>
      <trkpt lat="42.67120599999998" lon="-1.9482690000000036">
        <ele>457.215</ele>
        <time>2022-08-25T12:18:22Z</time>
      </trkpt>
      <trkpt lat="42.671192999999974" lon="-1.9482870000000037">
        <ele>457.265</ele>
        <time>2022-08-25T12:18:23Z</time>
      </trkpt>
      <trkpt lat="42.67117999999997" lon="-1.9483040000000036">
        <ele>457.625</ele>
        <time>2022-08-25T12:18:24Z</time>
      </trkpt>
      <trkpt lat="42.67116299999997" lon="-1.9483210000000035">
        <ele>457.621</ele>
        <time>2022-08-25T12:18:25Z</time>
      </trkpt>
      <trkpt lat="42.67114999999997" lon="-1.9483330000000034">
        <ele>457.643</ele>
        <time>2022-08-25T12:18:26Z</time>
      </trkpt>
      <trkpt lat="42.671119999999966" lon="-1.9483630000000034">
        <ele>458.080</ele>
        <time>2022-08-25T12:18:28Z</time>
      </trkpt>
      <trkpt lat="42.671089999999964" lon="-1.9483990000000033">
        <ele>458.063</ele>
        <time>2022-08-25T12:18:30Z</time>
      </trkpt>
      <trkpt lat="42.671077999999966" lon="-1.9484140000000034">
        <ele>458.279</ele>
        <time>2022-08-25T12:18:31Z</time>
      </trkpt>
      <trkpt lat="42.67106899999997" lon="-1.9484260000000033">
        <ele>458.470</ele>
        <time>2022-08-25T12:18:32Z</time>
      </trkpt>
      <trkpt lat="42.67105499999997" lon="-1.9484410000000034">
        <ele>458.478</ele>
        <time>2022-08-25T12:18:33Z</time>
      </trkpt>
      <trkpt lat="42.671038999999965" lon="-1.9484580000000034">
        <ele>458.833</ele>
        <time>2022-08-25T12:18:34Z</time>
      </trkpt>
      <trkpt lat="42.671027999999964" lon="-1.9484710000000034">
        <ele>458.826</ele>
        <time>2022-08-25T12:18:35Z</time>
      </trkpt>
      <trkpt lat="42.67101299999997" lon="-1.9484880000000033">
        <ele>458.809</ele>
        <time>2022-08-25T12:18:36Z</time>
      </trkpt>
      <trkpt lat="42.671001999999966" lon="-1.9485030000000034">
        <ele>458.858</ele>
        <time>2022-08-25T12:18:37Z</time>
      </trkpt>
      <trkpt lat="42.67098999999997" lon="-1.9485220000000034">
        <ele>458.858</ele>
        <time>2022-08-25T12:18:38Z</time>
      </trkpt>
      <trkpt lat="42.67097899999997" lon="-1.9485430000000035">
        <ele>459.058</ele>
        <time>2022-08-25T12:18:39Z</time>
      </trkpt>
      <trkpt lat="42.67096799999997" lon="-1.9485650000000034">
        <ele>459.244</ele>
        <time>2022-08-25T12:18:40Z</time>
      </trkpt>
      <trkpt lat="42.670954999999964" lon="-1.9485820000000034">
        <ele>459.456</ele>
        <time>2022-08-25T12:18:41Z</time>
      </trkpt>
      <trkpt lat="42.67094199999996" lon="-1.9485970000000035">
        <ele>459.623</ele>
        <time>2022-08-25T12:18:42Z</time>
      </trkpt>
      <trkpt lat="42.67092699999996" lon="-1.9486170000000034">
        <ele>459.626</ele>
        <time>2022-08-25T12:18:43Z</time>
      </trkpt>
      <trkpt lat="42.670914999999965" lon="-1.9486340000000033">
        <ele>459.822</ele>
        <time>2022-08-25T12:18:44Z</time>
      </trkpt>
      <trkpt lat="42.67089999999997" lon="-1.9486540000000032">
        <ele>460.013</ele>
        <time>2022-08-25T12:18:45Z</time>
      </trkpt>
      <trkpt lat="42.67088899999997" lon="-1.9486670000000033">
        <ele>460.058</ele>
        <time>2022-08-25T12:18:46Z</time>
      </trkpt>
      <trkpt lat="42.670875999999964" lon="-1.9486820000000034">
        <ele>460.252</ele>
        <time>2022-08-25T12:18:47Z</time>
      </trkpt>
      <trkpt lat="42.670861999999964" lon="-1.9486960000000033">
        <ele>460.217</ele>
        <time>2022-08-25T12:18:48Z</time>
      </trkpt>
      <trkpt lat="42.670849999999966" lon="-1.9487080000000032">
        <ele>460.209</ele>
        <time>2022-08-25T12:18:49Z</time>
      </trkpt>
      <trkpt lat="42.67084299999997" lon="-1.9487190000000032">
        <ele>460.486</ele>
        <time>2022-08-25T12:18:50Z</time>
      </trkpt>
      <trkpt lat="42.67083399999997" lon="-1.9487320000000032">
        <ele>460.486</ele>
        <time>2022-08-25T12:18:51Z</time>
      </trkpt>
      <trkpt lat="42.67082499999997" lon="-1.9487460000000032">
        <ele>460.436</ele>
        <time>2022-08-25T12:18:52Z</time>
      </trkpt>
      <trkpt lat="42.670817999999976" lon="-1.948758000000003">
        <ele>460.612</ele>
        <time>2022-08-25T12:18:53Z</time>
      </trkpt>
      <trkpt lat="42.67080899999998" lon="-1.948769000000003">
        <ele>460.844</ele>
        <time>2022-08-25T12:18:54Z</time>
      </trkpt>
      <trkpt lat="42.670798999999974" lon="-1.948772000000003">
        <ele>461.041</ele>
        <time>2022-08-25T12:18:55Z</time>
      </trkpt>
      <trkpt lat="42.670786999999976" lon="-1.948778000000003">
        <ele>461.054</ele>
        <time>2022-08-25T12:18:56Z</time>
      </trkpt>
      <trkpt lat="42.670769999999976" lon="-1.948794000000003">
        <ele>461.270</ele>
        <time>2022-08-25T12:18:57Z</time>
      </trkpt>
      <trkpt lat="42.670758999999975" lon="-1.948808000000003">
        <ele>461.271</ele>
        <time>2022-08-25T12:18:58Z</time>
      </trkpt>
      <trkpt lat="42.67074899999997" lon="-1.948822000000003">
        <ele>461.466</ele>
        <time>2022-08-25T12:18:59Z</time>
      </trkpt>
      <trkpt lat="42.67073899999997" lon="-1.9488390000000029">
        <ele>461.429</ele>
        <time>2022-08-25T12:19:00Z</time>
      </trkpt>
      <trkpt lat="42.67072999999997" lon="-1.9488590000000028">
        <ele>461.621</ele>
        <time>2022-08-25T12:19:01Z</time>
      </trkpt>
      <trkpt lat="42.67071599999997" lon="-1.9488810000000028">
        <ele>461.809</ele>
        <time>2022-08-25T12:19:02Z</time>
      </trkpt>
      <trkpt lat="42.67070499999997" lon="-1.9489020000000028">
        <ele>461.857</ele>
        <time>2022-08-25T12:19:03Z</time>
      </trkpt>
      <trkpt lat="42.67069499999997" lon="-1.9489160000000028">
        <ele>461.847</ele>
        <time>2022-08-25T12:19:04Z</time>
      </trkpt>
      <trkpt lat="42.67068299999997" lon="-1.9489330000000027">
        <ele>461.887</ele>
        <time>2022-08-25T12:19:05Z</time>
      </trkpt>
      <trkpt lat="42.67067099999997" lon="-1.9489490000000027">
        <ele>462.043</ele>
        <time>2022-08-25T12:19:06Z</time>
      </trkpt>
      <trkpt lat="42.67065999999997" lon="-1.9489660000000026">
        <ele>462.055</ele>
        <time>2022-08-25T12:19:07Z</time>
      </trkpt>
      <trkpt lat="42.67064899999997" lon="-1.9489840000000027">
        <ele>462.272</ele>
        <time>2022-08-25T12:19:08Z</time>
      </trkpt>
      <trkpt lat="42.670635999999966" lon="-1.9490050000000028">
        <ele>462.435</ele>
        <time>2022-08-25T12:19:09Z</time>
      </trkpt>
      <trkpt lat="42.67062699999997" lon="-1.9490180000000028">
        <ele>462.471</ele>
        <time>2022-08-25T12:19:10Z</time>
      </trkpt>
      <trkpt lat="42.67061599999997" lon="-1.949033000000003">
        <ele>462.442</ele>
        <time>2022-08-25T12:19:11Z</time>
      </trkpt>
      <trkpt lat="42.67060199999997" lon="-1.9490500000000028">
        <ele>462.663</ele>
        <time>2022-08-25T12:19:12Z</time>
      </trkpt>
      <trkpt lat="42.670591999999964" lon="-1.949065000000003">
        <ele>462.644</ele>
        <time>2022-08-25T12:19:13Z</time>
      </trkpt>
      <trkpt lat="42.67058399999996" lon="-1.949078000000003">
        <ele>462.618</ele>
        <time>2022-08-25T12:19:14Z</time>
      </trkpt>
      <trkpt lat="42.670574999999964" lon="-1.949092000000003">
        <ele>462.609</ele>
        <time>2022-08-25T12:19:15Z</time>
      </trkpt>
      <trkpt lat="42.67056499999996" lon="-1.9491090000000029">
        <ele>462.817</ele>
        <time>2022-08-25T12:19:16Z</time>
      </trkpt>
      <trkpt lat="42.67055699999996" lon="-1.9491200000000029">
        <ele>462.837</ele>
        <time>2022-08-25T12:19:17Z</time>
      </trkpt>
      <trkpt lat="42.67054499999996" lon="-1.949135000000003">
        <ele>463.057</ele>
        <time>2022-08-25T12:19:18Z</time>
      </trkpt>
      <trkpt lat="42.670537999999965" lon="-1.949146000000003">
        <ele>463.213</ele>
        <time>2022-08-25T12:19:19Z</time>
      </trkpt>
      <trkpt lat="42.670526999999964" lon="-1.949160000000003">
        <ele>463.235</ele>
        <time>2022-08-25T12:19:20Z</time>
      </trkpt>
      <trkpt lat="42.670492999999965" lon="-1.949216000000003">
        <ele>463.682</ele>
        <time>2022-08-25T12:19:23Z</time>
      </trkpt>
      <trkpt lat="42.670483999999966" lon="-1.949229000000003">
        <ele>463.685</ele>
        <time>2022-08-25T12:19:24Z</time>
      </trkpt>
      <trkpt lat="42.67047399999996" lon="-1.949245000000003">
        <ele>463.861</ele>
        <time>2022-08-25T12:19:25Z</time>
      </trkpt>
      <trkpt lat="42.670464999999965" lon="-1.949259000000003">
        <ele>464.052</ele>
        <time>2022-08-25T12:19:26Z</time>
      </trkpt>
      <trkpt lat="42.670416999999965" lon="-1.949318000000003">
        <ele>464.463</ele>
        <time>2022-08-25T12:19:30Z</time>
      </trkpt>
      <trkpt lat="42.67039899999997" lon="-1.949339000000003">
        <ele>464.644</ele>
        <time>2022-08-25T12:19:32Z</time>
      </trkpt>
      <trkpt lat="42.67038999999997" lon="-1.949353000000003">
        <ele>464.618</ele>
        <time>2022-08-25T12:19:33Z</time>
      </trkpt>
      <trkpt lat="42.67038099999997" lon="-1.949370000000003">
        <ele>464.609</ele>
        <time>2022-08-25T12:19:34Z</time>
      </trkpt>
      <trkpt lat="42.67037299999997" lon="-1.949381000000003">
        <ele>464.857</ele>
        <time>2022-08-25T12:19:35Z</time>
      </trkpt>
      <trkpt lat="42.670362999999966" lon="-1.949397000000003">
        <ele>464.817</ele>
        <time>2022-08-25T12:19:36Z</time>
      </trkpt>
      <trkpt lat="42.67035299999996" lon="-1.9494140000000029">
        <ele>465.057</ele>
        <time>2022-08-25T12:19:37Z</time>
      </trkpt>
      <trkpt lat="42.67034599999997" lon="-1.949429000000003">
        <ele>465.233</ele>
        <time>2022-08-25T12:19:38Z</time>
      </trkpt>
      <trkpt lat="42.67033599999996" lon="-1.9494490000000029">
        <ele>465.455</ele>
        <time>2022-08-25T12:19:39Z</time>
      </trkpt>
      <trkpt lat="42.67033099999996" lon="-1.949462000000003">
        <ele>465.672</ele>
        <time>2022-08-25T12:19:40Z</time>
      </trkpt>
      <trkpt lat="42.67032199999996" lon="-1.949478000000003">
        <ele>465.685</ele>
        <time>2022-08-25T12:19:41Z</time>
      </trkpt>
      <trkpt lat="42.670309999999965" lon="-1.949493000000003">
        <ele>465.811</ele>
        <time>2022-08-25T12:19:42Z</time>
      </trkpt>
      <trkpt lat="42.67029999999996" lon="-1.949507000000003">
        <ele>466.032</ele>
        <time>2022-08-25T12:19:43Z</time>
      </trkpt>
      <trkpt lat="42.670292999999965" lon="-1.949525000000003">
        <ele>466.225</ele>
        <time>2022-08-25T12:19:44Z</time>
      </trkpt>
      <trkpt lat="42.67028399999997" lon="-1.9495430000000031">
        <ele>466.426</ele>
        <time>2022-08-25T12:19:45Z</time>
      </trkpt>
      <trkpt lat="42.67027799999997" lon="-1.9495590000000032">
        <ele>466.408</ele>
        <time>2022-08-25T12:19:46Z</time>
      </trkpt>
      <trkpt lat="42.67027199999997" lon="-1.9495720000000032">
        <ele>466.609</ele>
        <time>2022-08-25T12:19:47Z</time>
      </trkpt>
      <trkpt lat="42.670261999999965" lon="-1.9495890000000031">
        <ele>466.633</ele>
        <time>2022-08-25T12:19:48Z</time>
      </trkpt>
      <trkpt lat="42.67025199999996" lon="-1.949609000000003">
        <ele>466.873</ele>
        <time>2022-08-25T12:19:49Z</time>
      </trkpt>
      <trkpt lat="42.67024399999996" lon="-1.949625000000003">
        <ele>467.013</ele>
        <time>2022-08-25T12:19:50Z</time>
      </trkpt>
      <trkpt lat="42.670236999999965" lon="-1.9496350000000031">
        <ele>467.289</ele>
        <time>2022-08-25T12:19:51Z</time>
      </trkpt>
      <trkpt lat="42.67022899999996" lon="-1.949649000000003">
        <ele>467.481</ele>
        <time>2022-08-25T12:19:52Z</time>
      </trkpt>
      <trkpt lat="42.670219999999965" lon="-1.949671000000003">
        <ele>467.478</ele>
        <time>2022-08-25T12:19:53Z</time>
      </trkpt>
      <trkpt lat="42.67021499999996" lon="-1.9496860000000031">
        <ele>467.481</ele>
        <time>2022-08-25T12:19:54Z</time>
      </trkpt>
      <trkpt lat="42.67020199999996" lon="-1.9497090000000032">
        <ele>467.647</ele>
        <time>2022-08-25T12:19:55Z</time>
      </trkpt>
      <trkpt lat="42.67019399999996" lon="-1.9497240000000033">
        <ele>467.618</ele>
        <time>2022-08-25T12:19:56Z</time>
      </trkpt>
      <trkpt lat="42.67018099999996" lon="-1.9497400000000034">
        <ele>467.877</ele>
        <time>2022-08-25T12:19:57Z</time>
      </trkpt>
      <trkpt lat="42.670164999999955" lon="-1.9497620000000033">
        <ele>467.861</ele>
        <time>2022-08-25T12:19:58Z</time>
      </trkpt>
      <trkpt lat="42.67015499999995" lon="-1.9497840000000033">
        <ele>468.027</ele>
        <time>2022-08-25T12:19:59Z</time>
      </trkpt>
      <trkpt lat="42.67014699999995" lon="-1.9498020000000034">
        <ele>468.009</ele>
        <time>2022-08-25T12:20:00Z</time>
      </trkpt>
      <trkpt lat="42.67013699999995" lon="-1.9498230000000034">
        <ele>468.248</ele>
        <time>2022-08-25T12:20:01Z</time>
      </trkpt>
      <trkpt lat="42.67012599999995" lon="-1.9498480000000034">
        <ele>468.438</ele>
        <time>2022-08-25T12:20:02Z</time>
      </trkpt>
      <trkpt lat="42.670117999999945" lon="-1.9498640000000034">
        <ele>468.638</ele>
        <time>2022-08-25T12:20:03Z</time>
      </trkpt>
      <trkpt lat="42.670109999999944" lon="-1.9498840000000033">
        <ele>468.834</ele>
        <time>2022-08-25T12:20:04Z</time>
      </trkpt>
      <trkpt lat="42.67009999999994" lon="-1.9499030000000033">
        <ele>468.886</ele>
        <time>2022-08-25T12:20:05Z</time>
      </trkpt>
      <trkpt lat="42.67009099999994" lon="-1.9499220000000033">
        <ele>469.023</ele>
        <time>2022-08-25T12:20:06Z</time>
      </trkpt>
      <trkpt lat="42.67008099999994" lon="-1.9499430000000033">
        <ele>469.276</ele>
        <time>2022-08-25T12:20:07Z</time>
      </trkpt>
      <trkpt lat="42.67007199999994" lon="-1.9499600000000032">
        <ele>469.482</ele>
        <time>2022-08-25T12:20:08Z</time>
      </trkpt>
      <trkpt lat="42.67006599999994" lon="-1.9499770000000032">
        <ele>469.483</ele>
        <time>2022-08-25T12:20:09Z</time>
      </trkpt>
      <trkpt lat="42.67005799999994" lon="-1.9499960000000032">
        <ele>469.626</ele>
        <time>2022-08-25T12:20:10Z</time>
      </trkpt>
      <trkpt lat="42.67004599999994" lon="-1.9500210000000031">
        <ele>469.847</ele>
        <time>2022-08-25T12:20:11Z</time>
      </trkpt>
      <trkpt lat="42.670038999999946" lon="-1.950038000000003">
        <ele>469.811</ele>
        <time>2022-08-25T12:20:12Z</time>
      </trkpt>
      <trkpt lat="42.67002699999995" lon="-1.950063000000003">
        <ele>470.209</ele>
        <time>2022-08-25T12:20:13Z</time>
      </trkpt>
      <trkpt lat="42.67001799999995" lon="-1.950077000000003">
        <ele>470.443</ele>
        <time>2022-08-25T12:20:14Z</time>
      </trkpt>
      <trkpt lat="42.67000599999995" lon="-1.9500940000000029">
        <ele>470.663</ele>
        <time>2022-08-25T12:20:15Z</time>
      </trkpt>
      <trkpt lat="42.66999399999995" lon="-1.950118000000003">
        <ele>471.023</ele>
        <time>2022-08-25T12:20:16Z</time>
      </trkpt>
      <trkpt lat="42.669984999999954" lon="-1.9501380000000028">
        <ele>471.269</ele>
        <time>2022-08-25T12:20:17Z</time>
      </trkpt>
      <trkpt lat="42.66997799999996" lon="-1.9501540000000028">
        <ele>471.481</ele>
        <time>2022-08-25T12:20:18Z</time>
      </trkpt>
      <trkpt lat="42.66996699999996" lon="-1.9501780000000029">
        <ele>471.498</ele>
        <time>2022-08-25T12:20:19Z</time>
      </trkpt>
      <trkpt lat="42.669956999999954" lon="-1.950204000000003">
        <ele>471.691</ele>
        <time>2022-08-25T12:20:20Z</time>
      </trkpt>
      <trkpt lat="42.66994699999995" lon="-1.950227000000003">
        <ele>471.657</ele>
        <time>2022-08-25T12:20:21Z</time>
      </trkpt>
      <trkpt lat="42.66993599999995" lon="-1.950258000000003">
        <ele>471.818</ele>
        <time>2022-08-25T12:20:22Z</time>
      </trkpt>
      <trkpt lat="42.66992799999995" lon="-1.950276000000003">
        <ele>471.897</ele>
        <time>2022-08-25T12:20:23Z</time>
      </trkpt>
      <trkpt lat="42.669917999999946" lon="-1.950300000000003">
        <ele>472.023</ele>
        <time>2022-08-25T12:20:24Z</time>
      </trkpt>
      <trkpt lat="42.66990599999995" lon="-1.9503230000000031">
        <ele>472.025</ele>
        <time>2022-08-25T12:20:25Z</time>
      </trkpt>
      <trkpt lat="42.66989399999995" lon="-1.950345000000003">
        <ele>472.009</ele>
        <time>2022-08-25T12:20:26Z</time>
      </trkpt>
      <trkpt lat="42.66988099999995" lon="-1.950378000000003">
        <ele>472.230</ele>
        <time>2022-08-25T12:20:27Z</time>
      </trkpt>
      <trkpt lat="42.669869999999946" lon="-1.950405000000003">
        <ele>472.230</ele>
        <time>2022-08-25T12:20:28Z</time>
      </trkpt>
      <trkpt lat="42.669855999999946" lon="-1.950437000000003">
        <ele>472.250</ele>
        <time>2022-08-25T12:20:29Z</time>
      </trkpt>
      <trkpt lat="42.669844999999945" lon="-1.950467000000003">
        <ele>472.456</ele>
        <time>2022-08-25T12:20:30Z</time>
      </trkpt>
      <trkpt lat="42.66983299999995" lon="-1.950494000000003">
        <ele>472.638</ele>
        <time>2022-08-25T12:20:31Z</time>
      </trkpt>
      <trkpt lat="42.66981899999995" lon="-1.950529000000003">
        <ele>472.885</ele>
        <time>2022-08-25T12:20:32Z</time>
      </trkpt>
      <trkpt lat="42.669808999999944" lon="-1.950553000000003">
        <ele>472.898</ele>
        <time>2022-08-25T12:20:33Z</time>
      </trkpt>
      <trkpt lat="42.66979799999994" lon="-1.950583000000003">
        <ele>473.064</ele>
        <time>2022-08-25T12:20:34Z</time>
      </trkpt>
      <trkpt lat="42.669785999999945" lon="-1.9506170000000032">
        <ele>473.025</ele>
        <time>2022-08-25T12:20:35Z</time>
      </trkpt>
      <trkpt lat="42.66977599999994" lon="-1.950648000000003">
        <ele>473.214</ele>
        <time>2022-08-25T12:20:36Z</time>
      </trkpt>
      <trkpt lat="42.669768999999945" lon="-1.9506710000000032">
        <ele>473.254</ele>
        <time>2022-08-25T12:20:37Z</time>
      </trkpt>
      <trkpt lat="42.669757999999945" lon="-1.9507010000000031">
        <ele>473.409</ele>
        <time>2022-08-25T12:20:38Z</time>
      </trkpt>
      <trkpt lat="42.66974599999995" lon="-1.9507300000000032">
        <ele>473.409</ele>
        <time>2022-08-25T12:20:39Z</time>
      </trkpt>
      <trkpt lat="42.669734999999946" lon="-1.9507600000000032">
        <ele>473.412</ele>
        <time>2022-08-25T12:20:40Z</time>
      </trkpt>
      <trkpt lat="42.66972199999994" lon="-1.9508010000000031">
        <ele>473.652</ele>
        <time>2022-08-25T12:20:41Z</time>
      </trkpt>
      <trkpt lat="42.66971499999995" lon="-1.9508240000000032">
        <ele>473.692</ele>
        <time>2022-08-25T12:20:42Z</time>
      </trkpt>
      <trkpt lat="42.669704999999944" lon="-1.9508550000000031">
        <ele>473.818</ele>
        <time>2022-08-25T12:20:43Z</time>
      </trkpt>
      <trkpt lat="42.66969199999994" lon="-1.9508970000000032">
        <ele>473.870</ele>
        <time>2022-08-25T12:20:44Z</time>
      </trkpt>
      <trkpt lat="42.66967999999994" lon="-1.9509320000000032">
        <ele>473.857</ele>
        <time>2022-08-25T12:20:45Z</time>
      </trkpt>
      <trkpt lat="42.669670999999944" lon="-1.9509580000000033">
        <ele>473.860</ele>
        <time>2022-08-25T12:20:46Z</time>
      </trkpt>
      <trkpt lat="42.66965599999995" lon="-1.9509910000000033">
        <ele>473.826</ele>
        <time>2022-08-25T12:20:47Z</time>
      </trkpt>
      <trkpt lat="42.669636999999945" lon="-1.9510360000000033">
        <ele>473.847</ele>
        <time>2022-08-25T12:20:48Z</time>
      </trkpt>
      <trkpt lat="42.66962199999995" lon="-1.9510720000000032">
        <ele>473.869</ele>
        <time>2022-08-25T12:20:49Z</time>
      </trkpt>
      <trkpt lat="42.66960099999995" lon="-1.9511250000000033">
        <ele>474.004</ele>
        <time>2022-08-25T12:20:50Z</time>
      </trkpt>
      <trkpt lat="42.66955499999995" lon="-1.9512510000000034">
        <ele>474.224</ele>
        <time>2022-08-25T12:20:53Z</time>
      </trkpt>
      <trkpt lat="42.66952399999995" lon="-1.9513290000000034">
        <ele>474.209</ele>
        <time>2022-08-25T12:20:55Z</time>
      </trkpt>
      <trkpt lat="42.669486999999954" lon="-1.9514230000000035">
        <ele>474.477</ele>
        <time>2022-08-25T12:20:57Z</time>
      </trkpt>
      <trkpt lat="42.66947599999995" lon="-1.9514520000000035">
        <ele>474.487</ele>
        <time>2022-08-25T12:20:58Z</time>
      </trkpt>
      <trkpt lat="42.669460999999956" lon="-1.9514920000000036">
        <ele>474.467</ele>
        <time>2022-08-25T12:20:59Z</time>
      </trkpt>
      <trkpt lat="42.669452999999955" lon="-1.9515160000000036">
        <ele>474.643</ele>
        <time>2022-08-25T12:21:00Z</time>
      </trkpt>
      <trkpt lat="42.66943999999995" lon="-1.9515470000000035">
        <ele>474.665</ele>
        <time>2022-08-25T12:21:01Z</time>
      </trkpt>
      <trkpt lat="42.66941299999995" lon="-1.9516160000000036">
        <ele>475.022</ele>
        <time>2022-08-25T12:21:03Z</time>
      </trkpt>
      <trkpt lat="42.669385999999946" lon="-1.9516820000000035">
        <ele>475.275</ele>
        <time>2022-08-25T12:21:05Z</time>
      </trkpt>
      <trkpt lat="42.669315999999945" lon="-1.9518560000000034">
        <ele>475.411</ele>
        <time>2022-08-25T12:21:10Z</time>
      </trkpt>
      <trkpt lat="42.66930599999994" lon="-1.9518900000000035">
        <ele>475.662</ele>
        <time>2022-08-25T12:21:11Z</time>
      </trkpt>
      <trkpt lat="42.66929199999994" lon="-1.9519300000000035">
        <ele>475.834</ele>
        <time>2022-08-25T12:21:12Z</time>
      </trkpt>
      <trkpt lat="42.66928099999994" lon="-1.9519620000000035">
        <ele>475.855</ele>
        <time>2022-08-25T12:21:13Z</time>
      </trkpt>
      <trkpt lat="42.66925899999994" lon="-1.9520190000000035">
        <ele>475.810</ele>
        <time>2022-08-25T12:21:15Z</time>
      </trkpt>
      <trkpt lat="42.66922399999994" lon="-1.9521280000000034">
        <ele>476.209</ele>
        <time>2022-08-25T12:21:18Z</time>
      </trkpt>
      <trkpt lat="42.66918999999994" lon="-1.9522380000000035">
        <ele>476.434</ele>
        <time>2022-08-25T12:21:21Z</time>
      </trkpt>
      <trkpt lat="42.669166999999945" lon="-1.9523020000000035">
        <ele>476.674</ele>
        <time>2022-08-25T12:21:23Z</time>
      </trkpt>
      <trkpt lat="42.66914499999994" lon="-1.9523750000000035">
        <ele>476.894</ele>
        <time>2022-08-25T12:21:25Z</time>
      </trkpt>
      <trkpt lat="42.66912099999994" lon="-1.9524540000000035">
        <ele>477.080</ele>
        <time>2022-08-25T12:21:27Z</time>
      </trkpt>
      <trkpt lat="42.66910999999994" lon="-1.9524840000000034">
        <ele>477.282</ele>
        <time>2022-08-25T12:21:28Z</time>
      </trkpt>
      <trkpt lat="42.66909699999994" lon="-1.9525170000000034">
        <ele>477.469</ele>
        <time>2022-08-25T12:21:29Z</time>
      </trkpt>
      <trkpt lat="42.669086999999934" lon="-1.9525510000000035">
        <ele>477.462</ele>
        <time>2022-08-25T12:21:30Z</time>
      </trkpt>
      <trkpt lat="42.66907399999993" lon="-1.9525920000000034">
        <ele>477.618</ele>
        <time>2022-08-25T12:21:31Z</time>
      </trkpt>
      <trkpt lat="42.66906499999993" lon="-1.9526180000000035">
        <ele>477.849</ele>
        <time>2022-08-25T12:21:32Z</time>
      </trkpt>
      <trkpt lat="42.669015999999935" lon="-1.9527610000000035">
        <ele>478.448</ele>
        <time>2022-08-25T12:21:36Z</time>
      </trkpt>
      <trkpt lat="42.669004999999935" lon="-1.9527900000000036">
        <ele>478.661</ele>
        <time>2022-08-25T12:21:37Z</time>
      </trkpt>
      <trkpt lat="42.668990999999934" lon="-1.9528240000000037">
        <ele>478.817</ele>
        <time>2022-08-25T12:21:38Z</time>
      </trkpt>
      <trkpt lat="42.66897599999994" lon="-1.9528620000000037">
        <ele>478.809</ele>
        <time>2022-08-25T12:21:39Z</time>
      </trkpt>
      <trkpt lat="42.66896399999994" lon="-1.9528940000000037">
        <ele>479.035</ele>
        <time>2022-08-25T12:21:40Z</time>
      </trkpt>
      <trkpt lat="42.668950999999936" lon="-1.9529280000000038">
        <ele>479.225</ele>
        <time>2022-08-25T12:21:41Z</time>
      </trkpt>
      <trkpt lat="42.66893899999994" lon="-1.9529550000000038">
        <ele>479.425</ele>
        <time>2022-08-25T12:21:42Z</time>
      </trkpt>
      <trkpt lat="42.66892399999994" lon="-1.9529940000000037">
        <ele>479.621</ele>
        <time>2022-08-25T12:21:43Z</time>
      </trkpt>
      <trkpt lat="42.66891399999994" lon="-1.9530180000000037">
        <ele>479.653</ele>
        <time>2022-08-25T12:21:44Z</time>
      </trkpt>
      <trkpt lat="42.668897999999935" lon="-1.9530570000000036">
        <ele>479.870</ele>
        <time>2022-08-25T12:21:45Z</time>
      </trkpt>
      <trkpt lat="42.668888999999936" lon="-1.9530820000000035">
        <ele>479.893</ele>
        <time>2022-08-25T12:21:46Z</time>
      </trkpt>
      <trkpt lat="42.66887599999993" lon="-1.9531110000000036">
        <ele>480.019</ele>
        <time>2022-08-25T12:21:47Z</time>
      </trkpt>
      <trkpt lat="42.66886299999993" lon="-1.9531490000000036">
        <ele>480.050</ele>
        <time>2022-08-25T12:21:48Z</time>
      </trkpt>
      <trkpt lat="42.66885399999993" lon="-1.9531830000000037">
        <ele>480.045</ele>
        <time>2022-08-25T12:21:49Z</time>
      </trkpt>
      <trkpt lat="42.668846999999936" lon="-1.9532080000000036">
        <ele>480.247</ele>
        <time>2022-08-25T12:21:50Z</time>
      </trkpt>
      <trkpt lat="42.66883499999994" lon="-1.9532430000000036">
        <ele>480.211</ele>
        <time>2022-08-25T12:21:51Z</time>
      </trkpt>
      <trkpt lat="42.668821999999935" lon="-1.9532810000000036">
        <ele>480.209</ele>
        <time>2022-08-25T12:21:52Z</time>
      </trkpt>
      <trkpt lat="42.66881199999993" lon="-1.9533170000000035">
        <ele>480.435</ele>
        <time>2022-08-25T12:21:53Z</time>
      </trkpt>
      <trkpt lat="42.66879499999993" lon="-1.9533590000000036">
        <ele>480.475</ele>
        <time>2022-08-25T12:21:54Z</time>
      </trkpt>
      <trkpt lat="42.66878499999993" lon="-1.9533850000000037">
        <ele>480.465</ele>
        <time>2022-08-25T12:21:55Z</time>
      </trkpt>
      <trkpt lat="42.66877299999993" lon="-1.9534170000000037">
        <ele>480.641</ele>
        <time>2022-08-25T12:21:56Z</time>
      </trkpt>
      <trkpt lat="42.66875699999993" lon="-1.9534560000000036">
        <ele>480.673</ele>
        <time>2022-08-25T12:21:57Z</time>
      </trkpt>
      <trkpt lat="42.66874299999993" lon="-1.9534910000000036">
        <ele>480.670</ele>
        <time>2022-08-25T12:21:58Z</time>
      </trkpt>
      <trkpt lat="42.66873099999993" lon="-1.9535190000000036">
        <ele>480.613</ele>
        <time>2022-08-25T12:21:59Z</time>
      </trkpt>
      <trkpt lat="42.66871799999993" lon="-1.9535570000000035">
        <ele>480.629</ele>
        <time>2022-08-25T12:22:00Z</time>
      </trkpt>
      <trkpt lat="42.66870399999993" lon="-1.9535930000000035">
        <ele>480.610</ele>
        <time>2022-08-25T12:22:01Z</time>
      </trkpt>
      <trkpt lat="42.668690999999924" lon="-1.9536300000000035">
        <ele>480.849</ele>
        <time>2022-08-25T12:22:02Z</time>
      </trkpt>
      <trkpt lat="42.668650999999926" lon="-1.9537970000000036">
        <ele>481.002</ele>
        <time>2022-08-25T12:22:06Z</time>
      </trkpt>
      <trkpt lat="42.66862699999992" lon="-1.9538670000000036">
        <ele>481.222</ele>
        <time>2022-08-25T12:22:08Z</time>
      </trkpt>
      <trkpt lat="42.66861599999992" lon="-1.9539050000000036">
        <ele>481.209</ele>
        <time>2022-08-25T12:22:09Z</time>
      </trkpt>
      <trkpt lat="42.668603999999924" lon="-1.9539400000000036">
        <ele>481.225</ele>
        <time>2022-08-25T12:22:10Z</time>
      </trkpt>
      <trkpt lat="42.668589999999924" lon="-1.9539750000000036">
        <ele>481.475</ele>
        <time>2022-08-25T12:22:11Z</time>
      </trkpt>
      <trkpt lat="42.66854599999992" lon="-1.9541320000000035">
        <ele>481.625</ele>
        <time>2022-08-25T12:22:15Z</time>
      </trkpt>
      <trkpt lat="42.66853799999992" lon="-1.9541690000000036">
        <ele>481.681</ele>
        <time>2022-08-25T12:22:16Z</time>
      </trkpt>
      <trkpt lat="42.66852999999992" lon="-1.9541980000000037">
        <ele>481.633</ele>
        <time>2022-08-25T12:22:17Z</time>
      </trkpt>
      <trkpt lat="42.66851899999992" lon="-1.9542340000000036">
        <ele>481.620</ele>
        <time>2022-08-25T12:22:18Z</time>
      </trkpt>
      <trkpt lat="42.668488999999916" lon="-1.9543490000000037">
        <ele>481.853</ele>
        <time>2022-08-25T12:22:21Z</time>
      </trkpt>
      <trkpt lat="42.668443999999916" lon="-1.9544930000000036">
        <ele>482.089</ele>
        <time>2022-08-25T12:22:25Z</time>
      </trkpt>
      <trkpt lat="42.668412999999916" lon="-1.9546330000000036">
        <ele>482.260</ele>
        <time>2022-08-25T12:22:29Z</time>
      </trkpt>
      <trkpt lat="42.668412999999916" lon="-1.9546710000000036">
        <ele>482.467</ele>
        <time>2022-08-25T12:22:30Z</time>
      </trkpt>
      <trkpt lat="42.66841499999992" lon="-1.9547090000000036">
        <ele>482.481</ele>
        <time>2022-08-25T12:22:31Z</time>
      </trkpt>
      <trkpt lat="42.668423999999916" lon="-1.9547330000000036">
        <ele>482.419</ele>
        <time>2022-08-25T12:22:32Z</time>
      </trkpt>
      <trkpt lat="42.66843799999992" lon="-1.9547640000000035">
        <ele>482.409</ele>
        <time>2022-08-25T12:22:33Z</time>
      </trkpt>
      <trkpt lat="42.668455999999914" lon="-1.9547950000000034">
        <ele>482.437</ele>
        <time>2022-08-25T12:22:34Z</time>
      </trkpt>
      <trkpt lat="42.668474999999916" lon="-1.9548250000000034">
        <ele>482.477</ele>
        <time>2022-08-25T12:22:35Z</time>
      </trkpt>
      <trkpt lat="42.668494999999915" lon="-1.9548530000000033">
        <ele>482.487</ele>
        <time>2022-08-25T12:22:36Z</time>
      </trkpt>
      <trkpt lat="42.66851899999992" lon="-1.9548840000000032">
        <ele>482.443</ele>
        <time>2022-08-25T12:22:37Z</time>
      </trkpt>
      <trkpt lat="42.668567999999915" lon="-1.9549720000000033">
        <ele>482.675</ele>
        <time>2022-08-25T12:22:39Z</time>
      </trkpt>
      <trkpt lat="42.66861199999992" lon="-1.9551030000000034">
        <ele>482.432</ele>
        <time>2022-08-25T12:22:41Z</time>
      </trkpt>
      <trkpt lat="42.668612999999915" lon="-1.9552330000000033">
        <ele>482.465</ele>
        <time>2022-08-25T12:22:43Z</time>
      </trkpt>
      <trkpt lat="42.66859199999992" lon="-1.9553150000000032">
        <ele>482.481</ele>
        <time>2022-08-25T12:22:44Z</time>
      </trkpt>
      <trkpt lat="42.66856299999992" lon="-1.9553740000000033">
        <ele>482.232</ele>
        <time>2022-08-25T12:22:45Z</time>
      </trkpt>
      <trkpt lat="42.66853199999992" lon="-1.9554130000000032">
        <ele>482.037</ele>
        <time>2022-08-25T12:22:46Z</time>
      </trkpt>
      <trkpt lat="42.66849099999992" lon="-1.955452000000003">
        <ele>482.049</ele>
        <time>2022-08-25T12:22:47Z</time>
      </trkpt>
      <trkpt lat="42.66843899999992" lon="-1.955479000000003">
        <ele>481.813</ele>
        <time>2022-08-25T12:22:48Z</time>
      </trkpt>
      <trkpt lat="42.66840199999992" lon="-1.955484000000003">
        <ele>481.609</ele>
        <time>2022-08-25T12:22:49Z</time>
      </trkpt>
      <trkpt lat="42.66835199999992" lon="-1.955484000000003">
        <ele>481.624</ele>
        <time>2022-08-25T12:22:50Z</time>
      </trkpt>
      <trkpt lat="42.66831799999992" lon="-1.9554810000000031">
        <ele>481.664</ele>
        <time>2022-08-25T12:22:51Z</time>
      </trkpt>
      <trkpt lat="42.66827799999992" lon="-1.9554780000000032">
        <ele>481.684</ele>
        <time>2022-08-25T12:22:52Z</time>
      </trkpt>
      <trkpt lat="42.66822999999992" lon="-1.9554830000000032">
        <ele>481.660</ele>
        <time>2022-08-25T12:22:53Z</time>
      </trkpt>
      <trkpt lat="42.66816799999992" lon="-1.9555240000000031">
        <ele>481.672</ele>
        <time>2022-08-25T12:22:55Z</time>
      </trkpt>
      <trkpt lat="42.668121999999926" lon="-1.955622000000003">
        <ele>481.899</ele>
        <time>2022-08-25T12:22:57Z</time>
      </trkpt>
      <trkpt lat="42.668093999999925" lon="-1.955731000000003">
        <ele>481.852</ele>
        <time>2022-08-25T12:22:59Z</time>
      </trkpt>
      <trkpt lat="42.66808199999993" lon="-1.955775000000003">
        <ele>482.068</ele>
        <time>2022-08-25T12:23:00Z</time>
      </trkpt>
      <trkpt lat="42.667967999999924" lon="-1.956238000000003">
        <ele>482.649</ele>
        <time>2022-08-25T12:23:08Z</time>
      </trkpt>
      <trkpt lat="42.66793499999992" lon="-1.956354000000003">
        <ele>482.681</ele>
        <time>2022-08-25T12:23:10Z</time>
      </trkpt>
      <trkpt lat="42.667916999999925" lon="-1.956422000000003">
        <ele>482.661</ele>
        <time>2022-08-25T12:23:11Z</time>
      </trkpt>
      <trkpt lat="42.66786199999992" lon="-1.956646000000003">
        <ele>482.817</ele>
        <time>2022-08-25T12:23:15Z</time>
      </trkpt>
      <trkpt lat="42.66784499999992" lon="-1.956707000000003">
        <ele>482.809</ele>
        <time>2022-08-25T12:23:16Z</time>
      </trkpt>
      <trkpt lat="42.66780699999992" lon="-1.956837000000003">
        <ele>482.869</ele>
        <time>2022-08-25T12:23:18Z</time>
      </trkpt>
      <trkpt lat="42.667793999999915" lon="-1.956881000000003">
        <ele>482.849</ele>
        <time>2022-08-25T12:23:19Z</time>
      </trkpt>
      <trkpt lat="42.667731999999916" lon="-1.957161000000003">
        <ele>482.869</ele>
        <time>2022-08-25T12:23:24Z</time>
      </trkpt>
      <trkpt lat="42.66771899999991" lon="-1.957219000000003">
        <ele>482.835</ele>
        <time>2022-08-25T12:23:25Z</time>
      </trkpt>
      <trkpt lat="42.66770599999991" lon="-1.957280000000003">
        <ele>482.827</ele>
        <time>2022-08-25T12:23:26Z</time>
      </trkpt>
      <trkpt lat="42.66769099999991" lon="-1.9573490000000031">
        <ele>482.814</ele>
        <time>2022-08-25T12:23:27Z</time>
      </trkpt>
      <trkpt lat="42.667678999999914" lon="-1.957393000000003">
        <ele>482.877</ele>
        <time>2022-08-25T12:23:28Z</time>
      </trkpt>
      <trkpt lat="42.667664999999914" lon="-1.9574460000000031">
        <ele>482.863</ele>
        <time>2022-08-25T12:23:29Z</time>
      </trkpt>
      <trkpt lat="42.66764899999991" lon="-1.957503000000003">
        <ele>483.024</ele>
        <time>2022-08-25T12:23:30Z</time>
      </trkpt>
      <trkpt lat="42.667630999999915" lon="-1.957568000000003">
        <ele>483.028</ele>
        <time>2022-08-25T12:23:31Z</time>
      </trkpt>
      <trkpt lat="42.66758999999991" lon="-1.9577180000000032">
        <ele>483.089</ele>
        <time>2022-08-25T12:23:34Z</time>
      </trkpt>
      <trkpt lat="42.66756699999991" lon="-1.9578340000000032">
        <ele>483.017</ele>
        <time>2022-08-25T12:23:36Z</time>
      </trkpt>
      <trkpt lat="42.66755699999991" lon="-1.957889000000003">
        <ele>483.009</ele>
        <time>2022-08-25T12:23:37Z</time>
      </trkpt>
      <trkpt lat="42.66754299999991" lon="-1.9579480000000031">
        <ele>483.023</ele>
        <time>2022-08-25T12:23:38Z</time>
      </trkpt>
      <trkpt lat="42.66752799999991" lon="-1.958005000000003">
        <ele>482.813</ele>
        <time>2022-08-25T12:23:39Z</time>
      </trkpt>
      <trkpt lat="42.66751699999991" lon="-1.9580640000000031">
        <ele>482.833</ele>
        <time>2022-08-25T12:23:40Z</time>
      </trkpt>
      <trkpt lat="42.66750599999991" lon="-1.9581310000000032">
        <ele>482.879</ele>
        <time>2022-08-25T12:23:41Z</time>
      </trkpt>
      <trkpt lat="42.667498999999914" lon="-1.958175000000003">
        <ele>482.861</ele>
        <time>2022-08-25T12:23:42Z</time>
      </trkpt>
      <trkpt lat="42.66748599999991" lon="-1.9582390000000032">
        <ele>482.858</ele>
        <time>2022-08-25T12:23:43Z</time>
      </trkpt>
      <trkpt lat="42.66747399999991" lon="-1.9582890000000033">
        <ele>482.841</ele>
        <time>2022-08-25T12:23:44Z</time>
      </trkpt>
      <trkpt lat="42.667450999999915" lon="-1.9583860000000033">
        <ele>483.247</ele>
        <time>2022-08-25T12:23:46Z</time>
      </trkpt>
      <trkpt lat="42.667436999999914" lon="-1.9584380000000032">
        <ele>483.288</ele>
        <time>2022-08-25T12:23:47Z</time>
      </trkpt>
      <trkpt lat="42.667424999999916" lon="-1.9584880000000033">
        <ele>483.426</ele>
        <time>2022-08-25T12:23:48Z</time>
      </trkpt>
      <trkpt lat="42.66741299999992" lon="-1.9585380000000034">
        <ele>483.847</ele>
        <time>2022-08-25T12:23:49Z</time>
      </trkpt>
      <trkpt lat="42.667399999999915" lon="-1.9585980000000034">
        <ele>484.011</ele>
        <time>2022-08-25T12:23:50Z</time>
      </trkpt>
      <trkpt lat="42.667380999999914" lon="-1.9586880000000033">
        <ele>484.209</ele>
        <time>2022-08-25T12:23:52Z</time>
      </trkpt>
      <trkpt lat="42.667368999999916" lon="-1.9587340000000033">
        <ele>484.493</ele>
        <time>2022-08-25T12:23:53Z</time>
      </trkpt>
      <trkpt lat="42.66735699999992" lon="-1.9587760000000034">
        <ele>484.623</ele>
        <time>2022-08-25T12:23:54Z</time>
      </trkpt>
      <trkpt lat="42.66734499999992" lon="-1.9588190000000034">
        <ele>485.033</ele>
        <time>2022-08-25T12:23:55Z</time>
      </trkpt>
      <trkpt lat="42.66733599999992" lon="-1.9588600000000034">
        <ele>485.299</ele>
        <time>2022-08-25T12:23:56Z</time>
      </trkpt>
      <trkpt lat="42.66732499999992" lon="-1.9589020000000035">
        <ele>485.451</ele>
        <time>2022-08-25T12:23:57Z</time>
      </trkpt>
      <trkpt lat="42.66731599999992" lon="-1.9589430000000034">
        <ele>485.688</ele>
        <time>2022-08-25T12:23:58Z</time>
      </trkpt>
      <trkpt lat="42.66730399999992" lon="-1.9589830000000035">
        <ele>485.621</ele>
        <time>2022-08-25T12:23:59Z</time>
      </trkpt>
      <trkpt lat="42.66729399999992" lon="-1.9590250000000036">
        <ele>485.887</ele>
        <time>2022-08-25T12:24:00Z</time>
      </trkpt>
      <trkpt lat="42.66728299999992" lon="-1.9590630000000036">
        <ele>486.048</ele>
        <time>2022-08-25T12:24:01Z</time>
      </trkpt>
      <trkpt lat="42.66727499999992" lon="-1.9590990000000035">
        <ele>486.062</ele>
        <time>2022-08-25T12:24:02Z</time>
      </trkpt>
      <trkpt lat="42.667264999999915" lon="-1.9591370000000035">
        <ele>486.083</ele>
        <time>2022-08-25T12:24:03Z</time>
      </trkpt>
      <trkpt lat="42.66725599999992" lon="-1.9591750000000034">
        <ele>486.211</ele>
        <time>2022-08-25T12:24:04Z</time>
      </trkpt>
      <trkpt lat="42.66724899999992" lon="-1.9592120000000035">
        <ele>486.409</ele>
        <time>2022-08-25T12:24:05Z</time>
      </trkpt>
      <trkpt lat="42.66724199999992" lon="-1.9592490000000036">
        <ele>486.487</ele>
        <time>2022-08-25T12:24:06Z</time>
      </trkpt>
      <trkpt lat="42.667232999999925" lon="-1.9592850000000035">
        <ele>486.487</ele>
        <time>2022-08-25T12:24:07Z</time>
      </trkpt>
      <trkpt lat="42.667224999999924" lon="-1.9593240000000034">
        <ele>486.647</ele>
        <time>2022-08-25T12:24:08Z</time>
      </trkpt>
      <trkpt lat="42.667215999999925" lon="-1.9593700000000034">
        <ele>486.673</ele>
        <time>2022-08-25T12:24:09Z</time>
      </trkpt>
      <trkpt lat="42.667207999999924" lon="-1.9594010000000033">
        <ele>486.635</ele>
        <time>2022-08-25T12:24:10Z</time>
      </trkpt>
      <trkpt lat="42.66719999999992" lon="-1.9594380000000033">
        <ele>486.842</ele>
        <time>2022-08-25T12:24:11Z</time>
      </trkpt>
      <trkpt lat="42.667190999999924" lon="-1.9594820000000033">
        <ele>486.855</ele>
        <time>2022-08-25T12:24:12Z</time>
      </trkpt>
      <trkpt lat="42.667184999999925" lon="-1.9595090000000033">
        <ele>486.841</ele>
        <time>2022-08-25T12:24:13Z</time>
      </trkpt>
      <trkpt lat="42.667173999999925" lon="-1.9595430000000034">
        <ele>486.822</ele>
        <time>2022-08-25T12:24:14Z</time>
      </trkpt>
      <trkpt lat="42.667164999999926" lon="-1.9595780000000034">
        <ele>487.026</ele>
        <time>2022-08-25T12:24:15Z</time>
      </trkpt>
      <trkpt lat="42.667159999999924" lon="-1.9596120000000035">
        <ele>487.047</ele>
        <time>2022-08-25T12:24:16Z</time>
      </trkpt>
      <trkpt lat="42.667153999999925" lon="-1.9596460000000036">
        <ele>487.011</ele>
        <time>2022-08-25T12:24:17Z</time>
      </trkpt>
      <trkpt lat="42.66714499999993" lon="-1.9596860000000036">
        <ele>487.209</ele>
        <time>2022-08-25T12:24:18Z</time>
      </trkpt>
      <trkpt lat="42.667136999999926" lon="-1.9597140000000035">
        <ele>487.243</ele>
        <time>2022-08-25T12:24:19Z</time>
      </trkpt>
      <trkpt lat="42.66712999999993" lon="-1.9597490000000035">
        <ele>487.453</ele>
        <time>2022-08-25T12:24:20Z</time>
      </trkpt>
      <trkpt lat="42.66711899999993" lon="-1.9597860000000036">
        <ele>487.453</ele>
        <time>2022-08-25T12:24:21Z</time>
      </trkpt>
      <trkpt lat="42.66710999999993" lon="-1.9598180000000036">
        <ele>487.639</ele>
        <time>2022-08-25T12:24:22Z</time>
      </trkpt>
      <trkpt lat="42.66704199999993" lon="-1.9601050000000035">
        <ele>488.281</ele>
        <time>2022-08-25T12:24:30Z</time>
      </trkpt>
      <trkpt lat="42.66703099999993" lon="-1.9601450000000036">
        <ele>488.258</ele>
        <time>2022-08-25T12:24:31Z</time>
      </trkpt>
      <trkpt lat="42.66698899999993" lon="-1.9603160000000035">
        <ele>488.671</ele>
        <time>2022-08-25T12:24:35Z</time>
      </trkpt>
      <trkpt lat="42.66693399999993" lon="-1.9605620000000035">
        <ele>489.097</ele>
        <time>2022-08-25T12:24:41Z</time>
      </trkpt>
      <trkpt lat="42.66689399999993" lon="-1.9607410000000034">
        <ele>489.228</ele>
        <time>2022-08-25T12:24:45Z</time>
      </trkpt>
      <trkpt lat="42.66683799999993" lon="-1.9609720000000035">
        <ele>490.063</ele>
        <time>2022-08-25T12:24:50Z</time>
      </trkpt>
      <trkpt lat="42.66682399999993" lon="-1.9610330000000036">
        <ele>490.444</ele>
        <time>2022-08-25T12:24:51Z</time>
      </trkpt>
      <trkpt lat="42.66674199999993" lon="-1.9614460000000036">
        <ele>490.818</ele>
        <time>2022-08-25T12:24:59Z</time>
      </trkpt>
      <trkpt lat="42.66663399999993" lon="-1.9621090000000037">
        <ele>491.209</ele>
        <time>2022-08-25T12:25:11Z</time>
      </trkpt>
      <trkpt lat="42.66660799999993" lon="-1.9622760000000037">
        <ele>491.457</ele>
        <time>2022-08-25T12:25:14Z</time>
      </trkpt>
      <trkpt lat="42.666572999999936" lon="-1.9625490000000037">
        <ele>491.887</ele>
        <time>2022-08-25T12:25:19Z</time>
      </trkpt>
      <trkpt lat="42.66656399999994" lon="-1.9626010000000036">
        <ele>491.837</ele>
        <time>2022-08-25T12:25:20Z</time>
      </trkpt>
      <trkpt lat="42.66651499999994" lon="-1.9630740000000035">
        <ele>492.053</ele>
        <time>2022-08-25T12:25:28Z</time>
      </trkpt>
      <trkpt lat="42.66644799999994" lon="-1.9637730000000035">
        <ele>491.685</ele>
        <time>2022-08-25T12:25:39Z</time>
      </trkpt>
      <trkpt lat="42.66641999999994" lon="-1.9643980000000036">
        <ele>491.482</ele>
        <time>2022-08-25T12:25:48Z</time>
      </trkpt>
      <trkpt lat="42.66641899999994" lon="-1.9644810000000037">
        <ele>491.475</ele>
        <time>2022-08-25T12:25:49Z</time>
      </trkpt>
      <trkpt lat="42.66641799999994" lon="-1.9645350000000037">
        <ele>491.471</ele>
        <time>2022-08-25T12:25:50Z</time>
      </trkpt>
      <trkpt lat="42.66641899999994" lon="-1.9646180000000038">
        <ele>491.272</ele>
        <time>2022-08-25T12:25:51Z</time>
      </trkpt>
      <trkpt lat="42.66641899999994" lon="-1.9646750000000037">
        <ele>491.254</ele>
        <time>2022-08-25T12:25:52Z</time>
      </trkpt>
      <trkpt lat="42.66641699999994" lon="-1.9647430000000037">
        <ele>491.056</ele>
        <time>2022-08-25T12:25:53Z</time>
      </trkpt>
      <trkpt lat="42.66641599999994" lon="-1.9648110000000036">
        <ele>490.811</ele>
        <time>2022-08-25T12:25:54Z</time>
      </trkpt>
      <trkpt lat="42.666414999999944" lon="-1.9648910000000037">
        <ele>490.809</ele>
        <time>2022-08-25T12:25:55Z</time>
      </trkpt>
      <trkpt lat="42.66641299999994" lon="-1.9649430000000037">
        <ele>490.666</ele>
        <time>2022-08-25T12:25:56Z</time>
      </trkpt>
      <trkpt lat="42.666411999999944" lon="-1.9650070000000037">
        <ele>490.616</ele>
        <time>2022-08-25T12:25:57Z</time>
      </trkpt>
      <trkpt lat="42.66641099999995" lon="-1.9650700000000036">
        <ele>490.466</ele>
        <time>2022-08-25T12:25:58Z</time>
      </trkpt>
      <trkpt lat="42.666411999999944" lon="-1.9652670000000036">
        <ele>490.252</ele>
        <time>2022-08-25T12:26:01Z</time>
      </trkpt>
      <trkpt lat="42.66641299999994" lon="-1.9654660000000037">
        <ele>490.224</ele>
        <time>2022-08-25T12:26:04Z</time>
      </trkpt>
      <trkpt lat="42.66642099999994" lon="-1.9659730000000037">
        <ele>489.481</ele>
        <time>2022-08-25T12:26:11Z</time>
      </trkpt>
      <trkpt lat="42.66642199999994" lon="-1.9661280000000037">
        <ele>489.274</ele>
        <time>2022-08-25T12:26:13Z</time>
      </trkpt>
      <trkpt lat="42.66642999999994" lon="-1.9666950000000036">
        <ele>488.070</ele>
        <time>2022-08-25T12:26:20Z</time>
      </trkpt>
      <trkpt lat="42.66643099999994" lon="-1.9667770000000036">
        <ele>487.621</ele>
        <time>2022-08-25T12:26:21Z</time>
      </trkpt>
      <trkpt lat="42.666431999999936" lon="-1.9668590000000035">
        <ele>487.472</ele>
        <time>2022-08-25T12:26:22Z</time>
      </trkpt>
      <trkpt lat="42.66643399999994" lon="-1.9669400000000035">
        <ele>487.013</ele>
        <time>2022-08-25T12:26:23Z</time>
      </trkpt>
      <trkpt lat="42.66643899999994" lon="-1.9671090000000035">
        <ele>486.214</ele>
        <time>2022-08-25T12:26:25Z</time>
      </trkpt>
      <trkpt lat="42.66644099999994" lon="-1.9671910000000035">
        <ele>485.809</ele>
        <time>2022-08-25T12:26:26Z</time>
      </trkpt>
      <trkpt lat="42.66644199999994" lon="-1.9672730000000034">
        <ele>485.638</ele>
        <time>2022-08-25T12:26:27Z</time>
      </trkpt>
      <trkpt lat="42.66645199999994" lon="-1.9675260000000034">
        <ele>485.488</ele>
        <time>2022-08-25T12:26:30Z</time>
      </trkpt>
      <trkpt lat="42.666484999999945" lon="-1.9681380000000035">
        <ele>484.448</ele>
        <time>2022-08-25T12:26:37Z</time>
      </trkpt>
      <trkpt lat="42.66650099999995" lon="-1.9683850000000036">
        <ele>483.834</ele>
        <time>2022-08-25T12:26:40Z</time>
      </trkpt>
      <trkpt lat="42.66651499999995" lon="-1.9685820000000036">
        <ele>483.496</ele>
        <time>2022-08-25T12:26:42Z</time>
      </trkpt>
      <trkpt lat="42.666543999999945" lon="-1.9689330000000036">
        <ele>482.483</ele>
        <time>2022-08-25T12:26:46Z</time>
      </trkpt>
      <trkpt lat="42.66654899999995" lon="-1.9690020000000037">
        <ele>482.276</ele>
        <time>2022-08-25T12:26:47Z</time>
      </trkpt>
      <trkpt lat="42.66656199999995" lon="-1.9691730000000036">
        <ele>482.222</ele>
        <time>2022-08-25T12:26:49Z</time>
      </trkpt>
      <trkpt lat="42.66662499999995" lon="-1.9696970000000036">
        <ele>481.053</ele>
        <time>2022-08-25T12:26:55Z</time>
      </trkpt>
      <trkpt lat="42.66664899999995" lon="-1.9698680000000035">
        <ele>480.623</ele>
        <time>2022-08-25T12:26:57Z</time>
      </trkpt>
      <trkpt lat="42.66667099999995" lon="-1.9700260000000036">
        <ele>480.083</ele>
        <time>2022-08-25T12:26:59Z</time>
      </trkpt>
      <trkpt lat="42.66671699999995" lon="-1.9703830000000035">
        <ele>478.811</ele>
        <time>2022-08-25T12:27:03Z</time>
      </trkpt>
      <trkpt lat="42.66675599999995" lon="-1.9706690000000036">
        <ele>477.809</ele>
        <time>2022-08-25T12:27:06Z</time>
      </trkpt>
      <trkpt lat="42.66676399999995" lon="-1.9707380000000037">
        <ele>477.683</ele>
        <time>2022-08-25T12:27:07Z</time>
      </trkpt>
      <trkpt lat="42.666773999999954" lon="-1.9708220000000036">
        <ele>477.473</ele>
        <time>2022-08-25T12:27:08Z</time>
      </trkpt>
      <trkpt lat="42.66678699999996" lon="-1.9709260000000037">
        <ele>477.463</ele>
        <time>2022-08-25T12:27:09Z</time>
      </trkpt>
      <trkpt lat="42.66679799999996" lon="-1.9710110000000036">
        <ele>477.259</ele>
        <time>2022-08-25T12:27:10Z</time>
      </trkpt>
      <trkpt lat="42.66681999999996" lon="-1.9712500000000037">
        <ele>476.621</ele>
        <time>2022-08-25T12:27:13Z</time>
      </trkpt>
      <trkpt lat="42.666826999999955" lon="-1.9713340000000037">
        <ele>476.498</ele>
        <time>2022-08-25T12:27:14Z</time>
      </trkpt>
      <trkpt lat="42.66683199999996" lon="-1.9714200000000037">
        <ele>476.231</ele>
        <time>2022-08-25T12:27:15Z</time>
      </trkpt>
      <trkpt lat="42.66684199999996" lon="-1.9716910000000036">
        <ele>475.657</ele>
        <time>2022-08-25T12:27:18Z</time>
      </trkpt>
      <trkpt lat="42.66684299999996" lon="-1.9720120000000037">
        <ele>474.878</ele>
        <time>2022-08-25T12:27:22Z</time>
      </trkpt>
      <trkpt lat="42.66683599999996" lon="-1.9721160000000038">
        <ele>474.459</ele>
        <time>2022-08-25T12:27:23Z</time>
      </trkpt>
      <trkpt lat="42.66680499999996" lon="-1.9723410000000037">
        <ele>473.603</ele>
        <time>2022-08-25T12:27:26Z</time>
      </trkpt>
      <trkpt lat="42.666786999999964" lon="-1.9724340000000036">
        <ele>473.623</ele>
        <time>2022-08-25T12:27:27Z</time>
      </trkpt>
      <trkpt lat="42.666769999999964" lon="-1.9725070000000036">
        <ele>473.409</ele>
        <time>2022-08-25T12:27:28Z</time>
      </trkpt>
      <trkpt lat="42.66675199999997" lon="-1.9725780000000035">
        <ele>473.276</ele>
        <time>2022-08-25T12:27:29Z</time>
      </trkpt>
      <trkpt lat="42.666718999999965" lon="-1.9727090000000036">
        <ele>472.666</ele>
        <time>2022-08-25T12:27:31Z</time>
      </trkpt>
      <trkpt lat="42.666665999999964" lon="-1.9729350000000037">
        <ele>472.496</ele>
        <time>2022-08-25T12:27:34Z</time>
      </trkpt>
      <trkpt lat="42.66654899999996" lon="-1.9733420000000037">
        <ele>471.652</ele>
        <time>2022-08-25T12:27:39Z</time>
      </trkpt>
      <trkpt lat="42.66651899999996" lon="-1.9734270000000036">
        <ele>471.284</ele>
        <time>2022-08-25T12:27:40Z</time>
      </trkpt>
      <trkpt lat="42.66634699999996" lon="-1.9738570000000035">
        <ele>470.011</ele>
        <time>2022-08-25T12:27:45Z</time>
      </trkpt>
      <trkpt lat="42.66620799999996" lon="-1.9741560000000036">
        <ele>468.864</ele>
        <time>2022-08-25T12:27:48Z</time>
      </trkpt>
      <trkpt lat="42.666054999999965" lon="-1.9744370000000036">
        <ele>467.840</ele>
        <time>2022-08-25T12:27:51Z</time>
      </trkpt>
      <trkpt lat="42.66582199999996" lon="-1.9747850000000036">
        <ele>466.411</ele>
        <time>2022-08-25T12:27:55Z</time>
      </trkpt>
      <trkpt lat="42.66573499999996" lon="-1.9748860000000035">
        <ele>466.263</ele>
        <time>2022-08-25T12:27:56Z</time>
      </trkpt>
      <trkpt lat="42.665514999999964" lon="-1.9750850000000035">
        <ele>465.244</ele>
        <time>2022-08-25T12:27:59Z</time>
      </trkpt>
      <trkpt lat="42.66541399999996" lon="-1.9751550000000035">
        <ele>464.618</ele>
        <time>2022-08-25T12:28:00Z</time>
      </trkpt>
      <trkpt lat="42.665238999999964" lon="-1.9752490000000036">
        <ele>463.809</ele>
        <time>2022-08-25T12:28:02Z</time>
      </trkpt>
      <trkpt lat="42.66496499999997" lon="-1.9753540000000036">
        <ele>462.287</ele>
        <time>2022-08-25T12:28:05Z</time>
      </trkpt>
      <trkpt lat="42.66488599999997" lon="-1.9754000000000036">
        <ele>462.027</ele>
        <time>2022-08-25T12:28:06Z</time>
      </trkpt>
      <trkpt lat="42.664818999999966" lon="-1.9754610000000037">
        <ele>461.457</ele>
        <time>2022-08-25T12:28:07Z</time>
      </trkpt>
      <trkpt lat="42.66478199999997" lon="-1.9755160000000036">
        <ele>461.283</ele>
        <time>2022-08-25T12:28:08Z</time>
      </trkpt>
      <trkpt lat="42.664754999999964" lon="-1.9755880000000037">
        <ele>460.675</ele>
        <time>2022-08-25T12:28:09Z</time>
      </trkpt>
      <trkpt lat="42.664748999999965" lon="-1.9756620000000036">
        <ele>460.462</ele>
        <time>2022-08-25T12:28:10Z</time>
      </trkpt>
      <trkpt lat="42.66476399999996" lon="-1.9757420000000037">
        <ele>459.675</ele>
        <time>2022-08-25T12:28:11Z</time>
      </trkpt>
      <trkpt lat="42.66478499999996" lon="-1.9757780000000036">
        <ele>458.881</ele>
        <time>2022-08-25T12:28:12Z</time>
      </trkpt>
      <trkpt lat="42.66482199999996" lon="-1.9758060000000035">
        <ele>458.432</ele>
        <time>2022-08-25T12:28:13Z</time>
      </trkpt>
      <trkpt lat="42.66486899999996" lon="-1.9758170000000035">
        <ele>457.672</ele>
        <time>2022-08-25T12:28:14Z</time>
      </trkpt>
      <trkpt lat="42.66491499999996" lon="-1.9758320000000036">
        <ele>457.213</ele>
        <time>2022-08-25T12:28:15Z</time>
      </trkpt>
      <trkpt lat="42.66495699999996" lon="-1.9758610000000036">
        <ele>456.814</ele>
        <time>2022-08-25T12:28:16Z</time>
      </trkpt>
      <trkpt lat="42.66500099999996" lon="-1.9759090000000037">
        <ele>456.609</ele>
        <time>2022-08-25T12:28:17Z</time>
      </trkpt>
      <trkpt lat="42.66502399999996" lon="-1.9759500000000036">
        <ele>456.438</ele>
        <time>2022-08-25T12:28:18Z</time>
      </trkpt>
      <trkpt lat="42.66504899999996" lon="-1.9760220000000037">
        <ele>456.458</ele>
        <time>2022-08-25T12:28:19Z</time>
      </trkpt>
      <trkpt lat="42.66505999999996" lon="-1.9761630000000037">
        <ele>456.218</ele>
        <time>2022-08-25T12:28:21Z</time>
      </trkpt>
      <trkpt lat="42.66505999999996" lon="-1.9762370000000036">
        <ele>456.274</ele>
        <time>2022-08-25T12:28:22Z</time>
      </trkpt>
      <trkpt lat="42.66506299999996" lon="-1.9762990000000036">
        <ele>456.036</ele>
        <time>2022-08-25T12:28:23Z</time>
      </trkpt>
      <trkpt lat="42.66507699999996" lon="-1.9763970000000035">
        <ele>456.013</ele>
        <time>2022-08-25T12:28:24Z</time>
      </trkpt>
      <trkpt lat="42.66510299999996" lon="-1.9764790000000034">
        <ele>455.866</ele>
        <time>2022-08-25T12:28:25Z</time>
      </trkpt>
      <trkpt lat="42.66515599999996" lon="-1.9766180000000033">
        <ele>455.662</ele>
        <time>2022-08-25T12:28:27Z</time>
      </trkpt>
      <trkpt lat="42.66518199999996" lon="-1.9767230000000033">
        <ele>455.463</ele>
        <time>2022-08-25T12:28:28Z</time>
      </trkpt>
      <trkpt lat="42.66520799999996" lon="-1.9768120000000033">
        <ele>455.014</ele>
        <time>2022-08-25T12:28:29Z</time>
      </trkpt>
      <trkpt lat="42.665270999999954" lon="-1.9769710000000034">
        <ele>454.654</ele>
        <time>2022-08-25T12:28:31Z</time>
      </trkpt>
      <trkpt lat="42.665292999999956" lon="-1.9770340000000033">
        <ele>454.409</ele>
        <time>2022-08-25T12:28:32Z</time>
      </trkpt>
      <trkpt lat="42.66532499999995" lon="-1.9771200000000033">
        <ele>454.209</ele>
        <time>2022-08-25T12:28:33Z</time>
      </trkpt>
      <trkpt lat="42.66535099999995" lon="-1.9771870000000034">
        <ele>454.262</ele>
        <time>2022-08-25T12:28:34Z</time>
      </trkpt>
      <trkpt lat="42.665374999999955" lon="-1.9772470000000033">
        <ele>454.282</ele>
        <time>2022-08-25T12:28:35Z</time>
      </trkpt>
      <trkpt lat="42.665391999999954" lon="-1.9772940000000032">
        <ele>454.242</ele>
        <time>2022-08-25T12:28:36Z</time>
      </trkpt>
      <trkpt lat="42.665411999999954" lon="-1.9773490000000031">
        <ele>454.478</ele>
        <time>2022-08-25T12:28:37Z</time>
      </trkpt>
      <trkpt lat="42.66543599999996" lon="-1.9774080000000032">
        <ele>454.430</ele>
        <time>2022-08-25T12:28:38Z</time>
      </trkpt>
      <trkpt lat="42.66545299999996" lon="-1.9774540000000032">
        <ele>454.677</ele>
        <time>2022-08-25T12:28:39Z</time>
      </trkpt>
      <trkpt lat="42.665470999999954" lon="-1.977493000000003">
        <ele>454.830</ele>
        <time>2022-08-25T12:28:40Z</time>
      </trkpt>
      <trkpt lat="42.665481999999955" lon="-1.977525000000003">
        <ele>455.266</ele>
        <time>2022-08-25T12:28:41Z</time>
      </trkpt>
      <trkpt lat="42.66549799999996" lon="-1.977572000000003">
        <ele>455.437</ele>
        <time>2022-08-25T12:28:42Z</time>
      </trkpt>
      <trkpt lat="42.665512999999955" lon="-1.977606000000003">
        <ele>455.622</ele>
        <time>2022-08-25T12:28:43Z</time>
      </trkpt>
      <trkpt lat="42.66552599999996" lon="-1.9776400000000032">
        <ele>455.662</ele>
        <time>2022-08-25T12:28:44Z</time>
      </trkpt>
      <trkpt lat="42.66553699999996" lon="-1.9776660000000033">
        <ele>455.808</ele>
        <time>2022-08-25T12:28:45Z</time>
      </trkpt>
      <trkpt lat="42.665548999999956" lon="-1.9776990000000032">
        <ele>456.009</ele>
        <time>2022-08-25T12:28:46Z</time>
      </trkpt>
      <trkpt lat="42.66556499999996" lon="-1.9777370000000032">
        <ele>456.033</ele>
        <time>2022-08-25T12:28:47Z</time>
      </trkpt>
      <trkpt lat="42.66557799999996" lon="-1.977768000000003">
        <ele>456.423</ele>
        <time>2022-08-25T12:28:48Z</time>
      </trkpt>
      <trkpt lat="42.665590999999964" lon="-1.9777970000000031">
        <ele>456.453</ele>
        <time>2022-08-25T12:28:49Z</time>
      </trkpt>
      <trkpt lat="42.66560299999996" lon="-1.9778180000000032">
        <ele>456.629</ele>
        <time>2022-08-25T12:28:50Z</time>
      </trkpt>
      <trkpt lat="42.66561999999996" lon="-1.9778470000000032">
        <ele>456.681</ele>
        <time>2022-08-25T12:28:51Z</time>
      </trkpt>
      <trkpt lat="42.665632999999964" lon="-1.9778700000000033">
        <ele>456.858</ele>
        <time>2022-08-25T12:28:52Z</time>
      </trkpt>
      <trkpt lat="42.66564599999997" lon="-1.9778940000000034">
        <ele>456.851</ele>
        <time>2022-08-25T12:28:53Z</time>
      </trkpt>
      <trkpt lat="42.66565599999997" lon="-1.9779110000000033">
        <ele>457.067</ele>
        <time>2022-08-25T12:28:54Z</time>
      </trkpt>
      <trkpt lat="42.66566899999997" lon="-1.9779340000000034">
        <ele>457.278</ele>
        <time>2022-08-25T12:28:55Z</time>
      </trkpt>
      <trkpt lat="42.66568099999997" lon="-1.9779540000000033">
        <ele>457.284</ele>
        <time>2022-08-25T12:28:56Z</time>
      </trkpt>
      <trkpt lat="42.66571299999997" lon="-1.9779840000000033">
        <ele>457.407</ele>
        <time>2022-08-25T12:28:58Z</time>
      </trkpt>
      <trkpt lat="42.66572699999997" lon="-1.9779980000000033">
        <ele>457.417</ele>
        <time>2022-08-25T12:28:59Z</time>
      </trkpt>
      <trkpt lat="42.66574099999997" lon="-1.9780120000000032">
        <ele>457.409</ele>
        <time>2022-08-25T12:29:00Z</time>
      </trkpt>
      <trkpt lat="42.66575199999997" lon="-1.9780250000000033">
        <ele>457.649</ele>
        <time>2022-08-25T12:29:01Z</time>
      </trkpt>
      <trkpt lat="42.66575999999997" lon="-1.9780370000000032">
        <ele>457.629</ele>
        <time>2022-08-25T12:29:02Z</time>
      </trkpt>
      <trkpt lat="42.66576199999997" lon="-1.9780400000000031">
        <ele>457.639</ele>
        <time>2022-08-25T12:29:03Z</time>
      </trkpt>
      <trkpt lat="42.665783999999974" lon="-1.9781150000000032">
        <ele>457.445</ele>
        <time>2022-08-25T12:29:13Z</time>
      </trkpt>
      <trkpt lat="42.66578699999997" lon="-1.9782020000000031">
        <ele>457.467</ele>
        <time>2022-08-25T12:29:15Z</time>
      </trkpt>
      <trkpt lat="42.66578699999997" lon="-1.978251000000003">
        <ele>457.424</ele>
        <time>2022-08-25T12:29:16Z</time>
      </trkpt>
      <trkpt lat="42.665785999999976" lon="-1.9783040000000032">
        <ele>457.467</ele>
        <time>2022-08-25T12:29:17Z</time>
      </trkpt>
      <trkpt lat="42.66577999999998" lon="-1.978348000000003">
        <ele>457.443</ele>
        <time>2022-08-25T12:29:18Z</time>
      </trkpt>
      <trkpt lat="42.66575099999998" lon="-1.9785390000000032">
        <ele>457.484</ele>
        <time>2022-08-25T12:29:21Z</time>
      </trkpt>
      <trkpt lat="42.66568099999998" lon="-1.979020000000003">
        <ele>457.293</ele>
        <time>2022-08-25T12:29:29Z</time>
      </trkpt>
      <trkpt lat="42.66567199999998" lon="-1.9790840000000032">
        <ele>457.265</ele>
        <time>2022-08-25T12:29:30Z</time>
      </trkpt>
      <trkpt lat="42.66555599999998" lon="-1.9798160000000031">
        <ele>456.621</ele>
        <time>2022-08-25T12:29:41Z</time>
      </trkpt>
      <trkpt lat="42.665461999999984" lon="-1.9803720000000031">
        <ele>456.009</ele>
        <time>2022-08-25T12:29:48Z</time>
      </trkpt>
      <trkpt lat="42.665446999999986" lon="-1.980473000000003">
        <ele>455.820</ele>
        <time>2022-08-25T12:29:49Z</time>
      </trkpt>
      <trkpt lat="42.66536199999999" lon="-1.980995000000003">
        <ele>454.660</ele>
        <time>2022-08-25T12:29:55Z</time>
      </trkpt>
      <trkpt lat="42.66533099999999" lon="-1.981186000000003">
        <ele>454.460</ele>
        <time>2022-08-25T12:29:57Z</time>
      </trkpt>
      <trkpt lat="42.665263999999986" lon="-1.981606000000003">
        <ele>453.646</ele>
        <time>2022-08-25T12:30:01Z</time>
      </trkpt>
      <trkpt lat="42.665230999999984" lon="-1.9818100000000032">
        <ele>453.468</ele>
        <time>2022-08-25T12:30:03Z</time>
      </trkpt>
      <trkpt lat="42.665216999999984" lon="-1.9818900000000033">
        <ele>453.225</ele>
        <time>2022-08-25T12:30:04Z</time>
      </trkpt>
      <trkpt lat="42.66520099999998" lon="-1.9819860000000034">
        <ele>452.868</ele>
        <time>2022-08-25T12:30:05Z</time>
      </trkpt>
      <trkpt lat="42.665182999999985" lon="-1.9821000000000033">
        <ele>452.654</ele>
        <time>2022-08-25T12:30:06Z</time>
      </trkpt>
      <trkpt lat="42.66516999999998" lon="-1.9821940000000033">
        <ele>452.215</ele>
        <time>2022-08-25T12:30:07Z</time>
      </trkpt>
      <trkpt lat="42.66515699999998" lon="-1.9822880000000034">
        <ele>452.073</ele>
        <time>2022-08-25T12:30:08Z</time>
      </trkpt>
      <trkpt lat="42.665146999999976" lon="-1.9823620000000033">
        <ele>451.885</ele>
        <time>2022-08-25T12:30:09Z</time>
      </trkpt>
      <trkpt lat="42.66512899999998" lon="-1.9824730000000033">
        <ele>451.413</ele>
        <time>2022-08-25T12:30:10Z</time>
      </trkpt>
      <trkpt lat="42.66507299999998" lon="-1.9828230000000033">
        <ele>450.409</ele>
        <time>2022-08-25T12:30:14Z</time>
      </trkpt>
      <trkpt lat="42.665056999999976" lon="-1.9829320000000032">
        <ele>450.248</ele>
        <time>2022-08-25T12:30:15Z</time>
      </trkpt>
      <trkpt lat="42.66496299999998" lon="-1.9835660000000033">
        <ele>449.458</ele>
        <time>2022-08-25T12:30:22Z</time>
      </trkpt>
      <trkpt lat="42.66484799999998" lon="-1.9842780000000033">
        <ele>448.088</ele>
        <time>2022-08-25T12:30:29Z</time>
      </trkpt>
      <trkpt lat="42.664803999999975" lon="-1.9845660000000034">
        <ele>446.834</ele>
        <time>2022-08-25T12:30:32Z</time>
      </trkpt>
      <trkpt lat="42.664786999999976" lon="-1.9846720000000033">
        <ele>446.696</ele>
        <time>2022-08-25T12:30:33Z</time>
      </trkpt>
      <trkpt lat="42.66473599999998" lon="-1.9849950000000034">
        <ele>445.833</ele>
        <time>2022-08-25T12:30:36Z</time>
      </trkpt>
      <trkpt lat="42.664699999999975" lon="-1.9852120000000033">
        <ele>444.656</ele>
        <time>2022-08-25T12:30:38Z</time>
      </trkpt>
      <trkpt lat="42.664648999999976" lon="-1.9855420000000032">
        <ele>443.262</ele>
        <time>2022-08-25T12:30:41Z</time>
      </trkpt>
      <trkpt lat="42.664612999999974" lon="-1.9857760000000033">
        <ele>442.053</ele>
        <time>2022-08-25T12:30:43Z</time>
      </trkpt>
      <trkpt lat="42.66459699999997" lon="-1.9858790000000033">
        <ele>441.237</ele>
        <time>2022-08-25T12:30:44Z</time>
      </trkpt>
      <trkpt lat="42.664581999999974" lon="-1.9859790000000033">
        <ele>440.849</ele>
        <time>2022-08-25T12:30:45Z</time>
      </trkpt>
      <trkpt lat="42.66457199999997" lon="-1.9860570000000033">
        <ele>440.413</ele>
        <time>2022-08-25T12:30:46Z</time>
      </trkpt>
      <trkpt lat="42.664556999999974" lon="-1.9861500000000032">
        <ele>440.209</ele>
        <time>2022-08-25T12:30:47Z</time>
      </trkpt>
      <trkpt lat="42.664539999999974" lon="-1.9862600000000032">
        <ele>439.854</ele>
        <time>2022-08-25T12:30:48Z</time>
      </trkpt>
      <trkpt lat="42.664527999999976" lon="-1.9863500000000032">
        <ele>439.634</ele>
        <time>2022-08-25T12:30:49Z</time>
      </trkpt>
      <trkpt lat="42.66451499999997" lon="-1.9864360000000032">
        <ele>439.234</ele>
        <time>2022-08-25T12:30:50Z</time>
      </trkpt>
      <trkpt lat="42.66450499999997" lon="-1.9865040000000032">
        <ele>439.070</ele>
        <time>2022-08-25T12:30:51Z</time>
      </trkpt>
      <trkpt lat="42.66449099999997" lon="-1.986605000000003">
        <ele>439.072</ele>
        <time>2022-08-25T12:30:52Z</time>
      </trkpt>
      <trkpt lat="42.66447699999997" lon="-1.986691000000003">
        <ele>438.819</ele>
        <time>2022-08-25T12:30:53Z</time>
      </trkpt>
      <trkpt lat="42.66445999999997" lon="-1.986775000000003">
        <ele>438.622</ele>
        <time>2022-08-25T12:30:54Z</time>
      </trkpt>
      <trkpt lat="42.66444999999997" lon="-1.986841000000003">
        <ele>438.298</ele>
        <time>2022-08-25T12:30:55Z</time>
      </trkpt>
      <trkpt lat="42.664436999999964" lon="-1.986921000000003">
        <ele>438.089</ele>
        <time>2022-08-25T12:30:56Z</time>
      </trkpt>
      <trkpt lat="42.66434499999996" lon="-1.987502000000003">
        <ele>437.414</ele>
        <time>2022-08-25T12:31:03Z</time>
      </trkpt>
      <trkpt lat="42.66433199999996" lon="-1.987582000000003">
        <ele>437.454</ele>
        <time>2022-08-25T12:31:04Z</time>
      </trkpt>
      <trkpt lat="42.66431999999996" lon="-1.987663000000003">
        <ele>437.409</ele>
        <time>2022-08-25T12:31:05Z</time>
      </trkpt>
      <trkpt lat="42.66430899999996" lon="-1.9877430000000031">
        <ele>437.409</ele>
        <time>2022-08-25T12:31:06Z</time>
      </trkpt>
      <trkpt lat="42.66430099999996" lon="-1.9878190000000031">
        <ele>437.482</ele>
        <time>2022-08-25T12:31:07Z</time>
      </trkpt>
      <trkpt lat="42.66428999999996" lon="-1.987909000000003">
        <ele>437.272</ele>
        <time>2022-08-25T12:31:08Z</time>
      </trkpt>
      <trkpt lat="42.66426899999996" lon="-1.988048000000003">
        <ele>437.222</ele>
        <time>2022-08-25T12:31:10Z</time>
      </trkpt>
      <trkpt lat="42.66425299999996" lon="-1.988137000000003">
        <ele>437.238</ele>
        <time>2022-08-25T12:31:11Z</time>
      </trkpt>
      <trkpt lat="42.66424199999996" lon="-1.988207000000003">
        <ele>437.260</ele>
        <time>2022-08-25T12:31:12Z</time>
      </trkpt>
      <trkpt lat="42.66422999999996" lon="-1.988279000000003">
        <ele>437.247</ele>
        <time>2022-08-25T12:31:13Z</time>
      </trkpt>
      <trkpt lat="42.66421899999996" lon="-1.988350000000003">
        <ele>437.270</ele>
        <time>2022-08-25T12:31:14Z</time>
      </trkpt>
      <trkpt lat="42.66421099999996" lon="-1.988403000000003">
        <ele>437.236</ele>
        <time>2022-08-25T12:31:15Z</time>
      </trkpt>
      <trkpt lat="42.66419699999996" lon="-1.988481000000003">
        <ele>437.257</ele>
        <time>2022-08-25T12:31:16Z</time>
      </trkpt>
      <trkpt lat="42.66418599999996" lon="-1.988532000000003">
        <ele>437.474</ele>
        <time>2022-08-25T12:31:17Z</time>
      </trkpt>
      <trkpt lat="42.664169999999956" lon="-1.9886070000000031">
        <ele>437.456</ele>
        <time>2022-08-25T12:31:18Z</time>
      </trkpt>
      <trkpt lat="42.66415999999995" lon="-1.9886580000000031">
        <ele>437.621</ele>
        <time>2022-08-25T12:31:19Z</time>
      </trkpt>
      <trkpt lat="42.66414999999995" lon="-1.988721000000003">
        <ele>437.209</ele>
        <time>2022-08-25T12:31:20Z</time>
      </trkpt>
      <trkpt lat="42.664139999999946" lon="-1.988795000000003">
        <ele>437.288</ele>
        <time>2022-08-25T12:31:21Z</time>
      </trkpt>
      <trkpt lat="42.66411699999995" lon="-1.9889690000000029">
        <ele>437.228</ele>
        <time>2022-08-25T12:31:24Z</time>
      </trkpt>
      <trkpt lat="42.664027999999945" lon="-1.9895040000000028">
        <ele>436.478</ele>
        <time>2022-08-25T12:31:31Z</time>
      </trkpt>
      <trkpt lat="42.66401599999995" lon="-1.9895770000000028">
        <ele>436.274</ele>
        <time>2022-08-25T12:31:32Z</time>
      </trkpt>
      <trkpt lat="42.66394499999995" lon="-1.9900560000000027">
        <ele>435.226</ele>
        <time>2022-08-25T12:31:37Z</time>
      </trkpt>
      <trkpt lat="42.66391599999995" lon="-1.9902540000000026">
        <ele>434.863</ele>
        <time>2022-08-25T12:31:39Z</time>
      </trkpt>
      <trkpt lat="42.66388699999995" lon="-1.9904450000000027">
        <ele>434.436</ele>
        <time>2022-08-25T12:31:41Z</time>
      </trkpt>
      <trkpt lat="42.663874999999955" lon="-1.9905360000000027">
        <ele>434.442</ele>
        <time>2022-08-25T12:31:42Z</time>
      </trkpt>
      <trkpt lat="42.66386299999996" lon="-1.9906240000000028">
        <ele>434.073</ele>
        <time>2022-08-25T12:31:43Z</time>
      </trkpt>
      <trkpt lat="42.66385099999996" lon="-1.9907090000000027">
        <ele>433.887</ele>
        <time>2022-08-25T12:31:44Z</time>
      </trkpt>
      <trkpt lat="42.66383699999996" lon="-1.9907940000000026">
        <ele>433.642</ele>
        <time>2022-08-25T12:31:45Z</time>
      </trkpt>
      <trkpt lat="42.66382299999996" lon="-1.9908780000000026">
        <ele>433.026</ele>
        <time>2022-08-25T12:31:46Z</time>
      </trkpt>
      <trkpt lat="42.66381199999996" lon="-1.9909580000000027">
        <ele>432.809</ele>
        <time>2022-08-25T12:31:47Z</time>
      </trkpt>
      <trkpt lat="42.66379999999996" lon="-1.9910370000000026">
        <ele>432.629</ele>
        <time>2022-08-25T12:31:48Z</time>
      </trkpt>
      <trkpt lat="42.66378499999996" lon="-1.9911160000000026">
        <ele>432.479</ele>
        <time>2022-08-25T12:31:49Z</time>
      </trkpt>
      <trkpt lat="42.66376799999996" lon="-1.9911940000000026">
        <ele>432.439</ele>
        <time>2022-08-25T12:31:50Z</time>
      </trkpt>
      <trkpt lat="42.663676999999964" lon="-1.9915000000000025">
        <ele>431.875</ele>
        <time>2022-08-25T12:31:54Z</time>
      </trkpt>
      <trkpt lat="42.66365299999996" lon="-1.9915720000000026">
        <ele>431.667</ele>
        <time>2022-08-25T12:31:55Z</time>
      </trkpt>
      <trkpt lat="42.66362599999996" lon="-1.9916440000000026">
        <ele>431.454</ele>
        <time>2022-08-25T12:31:56Z</time>
      </trkpt>
      <trkpt lat="42.66359799999996" lon="-1.9917140000000026">
        <ele>431.427</ele>
        <time>2022-08-25T12:31:57Z</time>
      </trkpt>
      <trkpt lat="42.66357199999996" lon="-1.9917800000000025">
        <ele>431.253</ele>
        <time>2022-08-25T12:31:58Z</time>
      </trkpt>
      <trkpt lat="42.66354499999996" lon="-1.9918410000000026">
        <ele>431.234</ele>
        <time>2022-08-25T12:31:59Z</time>
      </trkpt>
      <trkpt lat="42.663519999999956" lon="-1.9919010000000026">
        <ele>431.256</ele>
        <time>2022-08-25T12:32:00Z</time>
      </trkpt>
      <trkpt lat="42.66349399999996" lon="-1.9919570000000026">
        <ele>431.059</ele>
        <time>2022-08-25T12:32:01Z</time>
      </trkpt>
      <trkpt lat="42.66346799999996" lon="-1.9920110000000026">
        <ele>431.014</ele>
        <time>2022-08-25T12:32:02Z</time>
      </trkpt>
      <trkpt lat="42.663440999999956" lon="-1.9920630000000026">
        <ele>431.009</ele>
        <time>2022-08-25T12:32:03Z</time>
      </trkpt>
      <trkpt lat="42.663410999999954" lon="-1.9921260000000025">
        <ele>431.026</ele>
        <time>2022-08-25T12:32:04Z</time>
      </trkpt>
      <trkpt lat="42.663390999999955" lon="-1.9921640000000025">
        <ele>431.266</ele>
        <time>2022-08-25T12:32:05Z</time>
      </trkpt>
      <trkpt lat="42.663367999999956" lon="-1.9922090000000026">
        <ele>431.226</ele>
        <time>2022-08-25T12:32:06Z</time>
      </trkpt>
      <trkpt lat="42.663345999999954" lon="-1.9922520000000026">
        <ele>431.262</ele>
        <time>2022-08-25T12:32:07Z</time>
      </trkpt>
      <trkpt lat="42.663319999999956" lon="-1.9923000000000026">
        <ele>431.224</ele>
        <time>2022-08-25T12:32:08Z</time>
      </trkpt>
      <trkpt lat="42.66330799999996" lon="-1.9923270000000026">
        <ele>431.291</ele>
        <time>2022-08-25T12:32:09Z</time>
      </trkpt>
      <trkpt lat="42.66328799999996" lon="-1.9923670000000027">
        <ele>431.494</ele>
        <time>2022-08-25T12:32:10Z</time>
      </trkpt>
      <trkpt lat="42.66327299999996" lon="-1.9923930000000027">
        <ele>431.460</ele>
        <time>2022-08-25T12:32:11Z</time>
      </trkpt>
      <trkpt lat="42.66325399999996" lon="-1.9924260000000027">
        <ele>431.651</ele>
        <time>2022-08-25T12:32:12Z</time>
      </trkpt>
      <trkpt lat="42.66323399999996" lon="-1.9924650000000026">
        <ele>431.863</ele>
        <time>2022-08-25T12:32:13Z</time>
      </trkpt>
      <trkpt lat="42.66321999999996" lon="-1.9924940000000027">
        <ele>432.044</ele>
        <time>2022-08-25T12:32:14Z</time>
      </trkpt>
      <trkpt lat="42.66321099999996" lon="-1.9925170000000028">
        <ele>432.218</ele>
        <time>2022-08-25T12:32:15Z</time>
      </trkpt>
      <trkpt lat="42.66319699999996" lon="-1.9925450000000027">
        <ele>432.209</ele>
        <time>2022-08-25T12:32:16Z</time>
      </trkpt>
      <trkpt lat="42.66318299999996" lon="-1.9925770000000027">
        <ele>432.457</ele>
        <time>2022-08-25T12:32:17Z</time>
      </trkpt>
      <trkpt lat="42.663175999999964" lon="-1.9925980000000028">
        <ele>432.437</ele>
        <time>2022-08-25T12:32:18Z</time>
      </trkpt>
      <trkpt lat="42.66316099999997" lon="-1.9926290000000026">
        <ele>432.467</ele>
        <time>2022-08-25T12:32:19Z</time>
      </trkpt>
      <trkpt lat="42.663149999999966" lon="-1.9926470000000027">
        <ele>432.633</ele>
        <time>2022-08-25T12:32:20Z</time>
      </trkpt>
      <trkpt lat="42.663133999999964" lon="-1.9926700000000028">
        <ele>432.865</ele>
        <time>2022-08-25T12:32:21Z</time>
      </trkpt>
      <trkpt lat="42.663116999999964" lon="-1.9926980000000027">
        <ele>433.062</ele>
        <time>2022-08-25T12:32:22Z</time>
      </trkpt>
      <trkpt lat="42.663102999999964" lon="-1.9927210000000029">
        <ele>433.075</ele>
        <time>2022-08-25T12:32:23Z</time>
      </trkpt>
      <trkpt lat="42.66309499999996" lon="-1.9927380000000028">
        <ele>433.231</ele>
        <time>2022-08-25T12:32:24Z</time>
      </trkpt>
      <trkpt lat="42.66308399999996" lon="-1.992761000000003">
        <ele>433.442</ele>
        <time>2022-08-25T12:32:25Z</time>
      </trkpt>
      <trkpt lat="42.663074999999964" lon="-1.992787000000003">
        <ele>433.666</ele>
        <time>2022-08-25T12:32:26Z</time>
      </trkpt>
      <trkpt lat="42.66306499999996" lon="-1.992812000000003">
        <ele>433.629</ele>
        <time>2022-08-25T12:32:27Z</time>
      </trkpt>
      <trkpt lat="42.66305599999996" lon="-1.9928340000000029">
        <ele>433.621</ele>
        <time>2022-08-25T12:32:28Z</time>
      </trkpt>
      <trkpt lat="42.663048999999965" lon="-1.9928560000000028">
        <ele>434.009</ele>
        <time>2022-08-25T12:32:29Z</time>
      </trkpt>
      <trkpt lat="42.663042999999966" lon="-1.9928780000000028">
        <ele>434.237</ele>
        <time>2022-08-25T12:32:30Z</time>
      </trkpt>
      <trkpt lat="42.663040999999964" lon="-1.9929000000000028">
        <ele>434.467</ele>
        <time>2022-08-25T12:32:31Z</time>
      </trkpt>
      <trkpt lat="42.66303899999996" lon="-1.9929230000000029">
        <ele>434.657</ele>
        <time>2022-08-25T12:32:32Z</time>
      </trkpt>
      <trkpt lat="42.663037999999965" lon="-1.992946000000003">
        <ele>434.643</ele>
        <time>2022-08-25T12:32:33Z</time>
      </trkpt>
      <trkpt lat="42.663037999999965" lon="-1.992971000000003">
        <ele>434.825</ele>
        <time>2022-08-25T12:32:34Z</time>
      </trkpt>
      <trkpt lat="42.663040999999964" lon="-1.992986000000003">
        <ele>435.022</ele>
        <time>2022-08-25T12:32:35Z</time>
      </trkpt>
      <trkpt lat="42.663042999999966" lon="-1.993004000000003">
        <ele>435.245</ele>
        <time>2022-08-25T12:32:36Z</time>
      </trkpt>
      <trkpt lat="42.663045999999966" lon="-1.9930280000000031">
        <ele>435.041</ele>
        <time>2022-08-25T12:32:37Z</time>
      </trkpt>
      <trkpt lat="42.663048999999965" lon="-1.993045000000003">
        <ele>435.472</ele>
        <time>2022-08-25T12:32:38Z</time>
      </trkpt>
      <trkpt lat="42.66305299999996" lon="-1.993057000000003">
        <ele>435.615</ele>
        <time>2022-08-25T12:32:39Z</time>
      </trkpt>
      <trkpt lat="42.663057999999964" lon="-1.993073000000003">
        <ele>435.865</ele>
        <time>2022-08-25T12:32:40Z</time>
      </trkpt>
      <trkpt lat="42.663062999999966" lon="-1.993093000000003">
        <ele>436.011</ele>
        <time>2022-08-25T12:32:41Z</time>
      </trkpt>
      <trkpt lat="42.66306199999997" lon="-1.9931070000000028">
        <ele>436.209</ele>
        <time>2022-08-25T12:32:42Z</time>
      </trkpt>
      <trkpt lat="42.66305699999997" lon="-1.9931270000000028">
        <ele>436.212</ele>
        <time>2022-08-25T12:32:43Z</time>
      </trkpt>
      <trkpt lat="42.66304999999997" lon="-1.9931350000000028">
        <ele>436.412</ele>
        <time>2022-08-25T12:32:44Z</time>
      </trkpt>
      <trkpt lat="42.66304199999997" lon="-1.9931420000000029">
        <ele>436.442</ele>
        <time>2022-08-25T12:32:45Z</time>
      </trkpt>
      <trkpt lat="42.66303299999997" lon="-1.9931480000000028">
        <ele>436.488</ele>
        <time>2022-08-25T12:32:46Z</time>
      </trkpt>
      <trkpt lat="42.66301999999997" lon="-1.9931590000000028">
        <ele>436.470</ele>
        <time>2022-08-25T12:32:47Z</time>
      </trkpt>
      <trkpt lat="42.663009999999964" lon="-1.9931730000000027">
        <ele>436.457</ele>
        <time>2022-08-25T12:32:48Z</time>
      </trkpt>
      <trkpt lat="42.66299499999997" lon="-1.9931940000000028">
        <ele>436.450</ele>
        <time>2022-08-25T12:32:49Z</time>
      </trkpt>
      <trkpt lat="42.662969999999966" lon="-1.993217000000003">
        <ele>436.686</ele>
        <time>2022-08-25T12:32:50Z</time>
      </trkpt>
      <trkpt lat="42.662947999999965" lon="-1.9932290000000028">
        <ele>436.647</ele>
        <time>2022-08-25T12:32:51Z</time>
      </trkpt>
      <trkpt lat="42.66291599999997" lon="-1.9932420000000028">
        <ele>436.628</ele>
        <time>2022-08-25T12:32:52Z</time>
      </trkpt>
      <trkpt lat="42.66289299999997" lon="-1.993249000000003">
        <ele>436.489</ele>
        <time>2022-08-25T12:32:53Z</time>
      </trkpt>
      <trkpt lat="42.66286399999997" lon="-1.9932610000000028">
        <ele>436.417</ele>
        <time>2022-08-25T12:32:54Z</time>
      </trkpt>
      <trkpt lat="42.66283399999997" lon="-1.9932820000000029">
        <ele>436.409</ele>
        <time>2022-08-25T12:32:55Z</time>
      </trkpt>
      <trkpt lat="42.66281099999997" lon="-1.993298000000003">
        <ele>436.613</ele>
        <time>2022-08-25T12:32:56Z</time>
      </trkpt>
      <trkpt lat="42.66279699999997" lon="-1.9933120000000029">
        <ele>436.643</ele>
        <time>2022-08-25T12:32:57Z</time>
      </trkpt>
      <trkpt lat="42.66277999999997" lon="-1.9933320000000028">
        <ele>436.643</ele>
        <time>2022-08-25T12:32:58Z</time>
      </trkpt>
      <trkpt lat="42.66276399999997" lon="-1.9933530000000028">
        <ele>436.619</ele>
        <time>2022-08-25T12:32:59Z</time>
      </trkpt>
      <trkpt lat="42.662750999999965" lon="-1.993376000000003">
        <ele>436.621</ele>
        <time>2022-08-25T12:33:00Z</time>
      </trkpt>
      <trkpt lat="42.662738999999966" lon="-1.993400000000003">
        <ele>436.838</ele>
        <time>2022-08-25T12:33:01Z</time>
      </trkpt>
      <trkpt lat="42.662727999999966" lon="-1.993421000000003">
        <ele>436.811</ele>
        <time>2022-08-25T12:33:02Z</time>
      </trkpt>
      <trkpt lat="42.662668999999966" lon="-1.993523000000003">
        <ele>436.837</ele>
        <time>2022-08-25T12:33:06Z</time>
      </trkpt>
      <trkpt lat="42.66263199999997" lon="-1.993596000000003">
        <ele>437.258</ele>
        <time>2022-08-25T12:33:09Z</time>
      </trkpt>
      <trkpt lat="42.66261999999997" lon="-1.9936220000000031">
        <ele>437.456</ele>
        <time>2022-08-25T12:33:10Z</time>
      </trkpt>
      <trkpt lat="42.662606999999966" lon="-1.993647000000003">
        <ele>437.459</ele>
        <time>2022-08-25T12:33:11Z</time>
      </trkpt>
      <trkpt lat="42.66258299999996" lon="-1.9936970000000032">
        <ele>437.414</ele>
        <time>2022-08-25T12:33:13Z</time>
      </trkpt>
      <trkpt lat="42.66256999999996" lon="-1.993725000000003">
        <ele>437.409</ele>
        <time>2022-08-25T12:33:14Z</time>
      </trkpt>
      <trkpt lat="42.66255699999996" lon="-1.9937510000000032">
        <ele>437.666</ele>
        <time>2022-08-25T12:33:15Z</time>
      </trkpt>
      <trkpt lat="42.66252899999996" lon="-1.9938000000000031">
        <ele>437.646</ele>
        <time>2022-08-25T12:33:17Z</time>
      </trkpt>
      <trkpt lat="42.662514999999956" lon="-1.993830000000003">
        <ele>437.816</ele>
        <time>2022-08-25T12:33:18Z</time>
      </trkpt>
      <trkpt lat="42.66250799999996" lon="-1.993849000000003">
        <ele>437.862</ele>
        <time>2022-08-25T12:33:19Z</time>
      </trkpt>
      <trkpt lat="42.66249399999996" lon="-1.993877000000003">
        <ele>438.024</ele>
        <time>2022-08-25T12:33:20Z</time>
      </trkpt>
      <trkpt lat="42.66248499999996" lon="-1.993895000000003">
        <ele>438.091</ele>
        <time>2022-08-25T12:33:21Z</time>
      </trkpt>
      <trkpt lat="42.66247299999996" lon="-1.9939180000000032">
        <ele>438.064</ele>
        <time>2022-08-25T12:33:22Z</time>
      </trkpt>
      <trkpt lat="42.66245899999996" lon="-1.9939430000000031">
        <ele>438.260</ele>
        <time>2022-08-25T12:33:23Z</time>
      </trkpt>
      <trkpt lat="42.662446999999965" lon="-1.9939660000000032">
        <ele>438.271</ele>
        <time>2022-08-25T12:33:24Z</time>
      </trkpt>
      <trkpt lat="42.66243699999996" lon="-1.9939850000000032">
        <ele>438.236</ele>
        <time>2022-08-25T12:33:25Z</time>
      </trkpt>
      <trkpt lat="42.66242399999996" lon="-1.9940090000000033">
        <ele>438.417</ele>
        <time>2022-08-25T12:33:26Z</time>
      </trkpt>
      <trkpt lat="42.66237599999996" lon="-1.9941370000000032">
        <ele>439.018</ele>
        <time>2022-08-25T12:33:31Z</time>
      </trkpt>
      <trkpt lat="42.662365999999956" lon="-1.994162000000003">
        <ele>439.009</ele>
        <time>2022-08-25T12:33:32Z</time>
      </trkpt>
      <trkpt lat="42.66235699999996" lon="-1.994182000000003">
        <ele>439.084</ele>
        <time>2022-08-25T12:33:33Z</time>
      </trkpt>
      <trkpt lat="42.66234599999996" lon="-1.994202000000003">
        <ele>439.214</ele>
        <time>2022-08-25T12:33:34Z</time>
      </trkpt>
      <trkpt lat="42.66233699999996" lon="-1.9942190000000029">
        <ele>439.244</ele>
        <time>2022-08-25T12:33:35Z</time>
      </trkpt>
      <trkpt lat="42.66232499999996" lon="-1.994240000000003">
        <ele>439.460</ele>
        <time>2022-08-25T12:33:36Z</time>
      </trkpt>
      <trkpt lat="42.66231399999996" lon="-1.9942570000000028">
        <ele>439.612</ele>
        <time>2022-08-25T12:33:37Z</time>
      </trkpt>
      <trkpt lat="42.66230199999996" lon="-1.9942730000000028">
        <ele>439.689</ele>
        <time>2022-08-25T12:33:38Z</time>
      </trkpt>
      <trkpt lat="42.66225799999996" lon="-1.9943650000000028">
        <ele>440.022</ele>
        <time>2022-08-25T12:33:42Z</time>
      </trkpt>
      <trkpt lat="42.66223699999996" lon="-1.9944090000000028">
        <ele>440.298</ele>
        <time>2022-08-25T12:33:44Z</time>
      </trkpt>
      <trkpt lat="42.662204999999965" lon="-1.9944880000000027">
        <ele>440.619</ele>
        <time>2022-08-25T12:33:47Z</time>
      </trkpt>
      <trkpt lat="42.66219199999996" lon="-1.9945120000000027">
        <ele>440.646</ele>
        <time>2022-08-25T12:33:48Z</time>
      </trkpt>
      <trkpt lat="42.66218399999996" lon="-1.9945300000000028">
        <ele>440.888</ele>
        <time>2022-08-25T12:33:49Z</time>
      </trkpt>
      <trkpt lat="42.662176999999964" lon="-1.9945560000000029">
        <ele>441.016</ele>
        <time>2022-08-25T12:33:50Z</time>
      </trkpt>
      <trkpt lat="42.66216899999996" lon="-1.9945830000000029">
        <ele>441.209</ele>
        <time>2022-08-25T12:33:51Z</time>
      </trkpt>
      <trkpt lat="42.662159999999965" lon="-1.9946080000000028">
        <ele>441.255</ele>
        <time>2022-08-25T12:33:52Z</time>
      </trkpt>
      <trkpt lat="42.662153999999965" lon="-1.9946320000000028">
        <ele>441.455</ele>
        <time>2022-08-25T12:33:53Z</time>
      </trkpt>
      <trkpt lat="42.662148999999964" lon="-1.9946560000000029">
        <ele>441.635</ele>
        <time>2022-08-25T12:33:54Z</time>
      </trkpt>
      <trkpt lat="42.662145999999964" lon="-1.9946780000000028">
        <ele>441.681</ele>
        <time>2022-08-25T12:33:55Z</time>
      </trkpt>
      <trkpt lat="42.662136999999966" lon="-1.9947050000000028">
        <ele>441.823</ele>
        <time>2022-08-25T12:33:56Z</time>
      </trkpt>
      <trkpt lat="42.66212699999996" lon="-1.9947290000000029">
        <ele>442.070</ele>
        <time>2022-08-25T12:33:57Z</time>
      </trkpt>
      <trkpt lat="42.662117999999964" lon="-1.994755000000003">
        <ele>442.063</ele>
        <time>2022-08-25T12:33:58Z</time>
      </trkpt>
      <trkpt lat="42.662111999999965" lon="-1.9947800000000029">
        <ele>442.269</ele>
        <time>2022-08-25T12:33:59Z</time>
      </trkpt>
      <trkpt lat="42.662103999999964" lon="-1.994809000000003">
        <ele>442.240</ele>
        <time>2022-08-25T12:34:00Z</time>
      </trkpt>
      <trkpt lat="42.662094999999965" lon="-1.994835000000003">
        <ele>442.229</ele>
        <time>2022-08-25T12:34:01Z</time>
      </trkpt>
      <trkpt lat="42.66208499999996" lon="-1.994862000000003">
        <ele>442.400</ele>
        <time>2022-08-25T12:34:02Z</time>
      </trkpt>
      <trkpt lat="42.66207899999996" lon="-1.994882000000003">
        <ele>442.620</ele>
        <time>2022-08-25T12:34:03Z</time>
      </trkpt>
      <trkpt lat="42.662072999999964" lon="-1.994908000000003">
        <ele>442.809</ele>
        <time>2022-08-25T12:34:04Z</time>
      </trkpt>
      <trkpt lat="42.66206799999996" lon="-1.994933000000003">
        <ele>442.873</ele>
        <time>2022-08-25T12:34:05Z</time>
      </trkpt>
      <trkpt lat="42.66206199999996" lon="-1.994959000000003">
        <ele>443.023</ele>
        <time>2022-08-25T12:34:06Z</time>
      </trkpt>
      <trkpt lat="42.66205999999996" lon="-1.9949820000000031">
        <ele>443.063</ele>
        <time>2022-08-25T12:34:07Z</time>
      </trkpt>
      <trkpt lat="42.66205699999996" lon="-1.9950010000000031">
        <ele>443.279</ele>
        <time>2022-08-25T12:34:08Z</time>
      </trkpt>
      <trkpt lat="42.66205499999996" lon="-1.9950250000000032">
        <ele>443.481</ele>
        <time>2022-08-25T12:34:09Z</time>
      </trkpt>
      <trkpt lat="42.66205299999996" lon="-1.9950540000000032">
        <ele>443.458</ele>
        <time>2022-08-25T12:34:10Z</time>
      </trkpt>
      <trkpt lat="42.662053999999955" lon="-1.9950740000000031">
        <ele>443.651</ele>
        <time>2022-08-25T12:34:11Z</time>
      </trkpt>
      <trkpt lat="42.66205599999996" lon="-1.9950970000000032">
        <ele>443.687</ele>
        <time>2022-08-25T12:34:12Z</time>
      </trkpt>
      <trkpt lat="42.662059999999954" lon="-1.9951180000000033">
        <ele>443.868</ele>
        <time>2022-08-25T12:34:13Z</time>
      </trkpt>
      <trkpt lat="42.66206399999995" lon="-1.9951410000000034">
        <ele>443.826</ele>
        <time>2022-08-25T12:34:14Z</time>
      </trkpt>
      <trkpt lat="42.66206799999995" lon="-1.9951640000000035">
        <ele>444.047</ele>
        <time>2022-08-25T12:34:15Z</time>
      </trkpt>
      <trkpt lat="42.662074999999945" lon="-1.9951930000000035">
        <ele>444.211</ele>
        <time>2022-08-25T12:34:16Z</time>
      </trkpt>
      <trkpt lat="42.662082999999946" lon="-1.9952120000000035">
        <ele>444.409</ele>
        <time>2022-08-25T12:34:17Z</time>
      </trkpt>
      <trkpt lat="42.662091999999944" lon="-1.9952340000000035">
        <ele>444.683</ele>
        <time>2022-08-25T12:34:18Z</time>
      </trkpt>
      <trkpt lat="42.66210399999994" lon="-1.9952580000000035">
        <ele>444.613</ele>
        <time>2022-08-25T12:34:19Z</time>
      </trkpt>
      <trkpt lat="42.662111999999944" lon="-1.9952810000000036">
        <ele>445.023</ele>
        <time>2022-08-25T12:34:20Z</time>
      </trkpt>
      <trkpt lat="42.66211499999994" lon="-1.9953030000000036">
        <ele>445.249</ele>
        <time>2022-08-25T12:34:21Z</time>
      </trkpt>
      <trkpt lat="42.66211299999994" lon="-1.9953300000000036">
        <ele>445.241</ele>
        <time>2022-08-25T12:34:22Z</time>
      </trkpt>
      <trkpt lat="42.66210399999994" lon="-1.9953600000000036">
        <ele>445.438</ele>
        <time>2022-08-25T12:34:23Z</time>
      </trkpt>
      <trkpt lat="42.66209299999994" lon="-1.9953810000000036">
        <ele>445.661</ele>
        <time>2022-08-25T12:34:24Z</time>
      </trkpt>
      <trkpt lat="42.66207699999994" lon="-1.9954090000000035">
        <ele>445.857</ele>
        <time>2022-08-25T12:34:25Z</time>
      </trkpt>
      <trkpt lat="42.66206599999994" lon="-1.9954260000000035">
        <ele>446.028</ele>
        <time>2022-08-25T12:34:26Z</time>
      </trkpt>
      <trkpt lat="42.66205099999994" lon="-1.9954510000000034">
        <ele>446.074</ele>
        <time>2022-08-25T12:34:27Z</time>
      </trkpt>
      <trkpt lat="42.66203399999994" lon="-1.9954810000000034">
        <ele>446.256</ele>
        <time>2022-08-25T12:34:28Z</time>
      </trkpt>
      <trkpt lat="42.66201999999994" lon="-1.9955100000000034">
        <ele>446.221</ele>
        <time>2022-08-25T12:34:29Z</time>
      </trkpt>
      <trkpt lat="42.66200799999994" lon="-1.9955340000000035">
        <ele>446.409</ele>
        <time>2022-08-25T12:34:30Z</time>
      </trkpt>
      <trkpt lat="42.66199399999994" lon="-1.9955660000000035">
        <ele>446.478</ele>
        <time>2022-08-25T12:34:31Z</time>
      </trkpt>
      <trkpt lat="42.66198299999994" lon="-1.9956000000000036">
        <ele>446.448</ele>
        <time>2022-08-25T12:34:32Z</time>
      </trkpt>
      <trkpt lat="42.66197199999994" lon="-1.9956340000000037">
        <ele>446.478</ele>
        <time>2022-08-25T12:34:33Z</time>
      </trkpt>
      <trkpt lat="42.66196299999994" lon="-1.9956710000000037">
        <ele>446.474</ele>
        <time>2022-08-25T12:34:34Z</time>
      </trkpt>
      <trkpt lat="42.661956999999944" lon="-1.9957080000000038">
        <ele>446.456</ele>
        <time>2022-08-25T12:34:35Z</time>
      </trkpt>
      <trkpt lat="42.66195599999995" lon="-1.9957450000000039">
        <ele>446.423</ele>
        <time>2022-08-25T12:34:36Z</time>
      </trkpt>
      <trkpt lat="42.661956999999944" lon="-1.9957840000000038">
        <ele>446.486</ele>
        <time>2022-08-25T12:34:37Z</time>
      </trkpt>
      <trkpt lat="42.661958999999946" lon="-1.9958220000000038">
        <ele>446.462</ele>
        <time>2022-08-25T12:34:38Z</time>
      </trkpt>
      <trkpt lat="42.661959999999944" lon="-1.9958650000000038">
        <ele>446.473</ele>
        <time>2022-08-25T12:34:39Z</time>
      </trkpt>
      <trkpt lat="42.661958999999946" lon="-1.9958920000000038">
        <ele>446.455</ele>
        <time>2022-08-25T12:34:40Z</time>
      </trkpt>
      <trkpt lat="42.66195799999995" lon="-1.9959260000000039">
        <ele>446.407</ele>
        <time>2022-08-25T12:34:41Z</time>
      </trkpt>
      <trkpt lat="42.66195499999995" lon="-1.995968000000004">
        <ele>446.417</ele>
        <time>2022-08-25T12:34:42Z</time>
      </trkpt>
      <trkpt lat="42.66195199999995" lon="-1.995997000000004">
        <ele>446.409</ele>
        <time>2022-08-25T12:34:43Z</time>
      </trkpt>
      <trkpt lat="42.66194899999995" lon="-1.996038000000004">
        <ele>446.446</ele>
        <time>2022-08-25T12:34:44Z</time>
      </trkpt>
      <trkpt lat="42.66194799999995" lon="-1.996067000000004">
        <ele>446.666</ele>
        <time>2022-08-25T12:34:45Z</time>
      </trkpt>
      <trkpt lat="42.66191799999995" lon="-1.996470000000004">
        <ele>446.826</ele>
        <time>2022-08-25T12:34:56Z</time>
      </trkpt>
      <trkpt lat="42.66191599999995" lon="-1.996511000000004">
        <ele>446.882</ele>
        <time>2022-08-25T12:34:57Z</time>
      </trkpt>
      <trkpt lat="42.66191199999995" lon="-1.996584000000004">
        <ele>447.054</ele>
        <time>2022-08-25T12:34:59Z</time>
      </trkpt>
      <trkpt lat="42.66190899999995" lon="-1.996621000000004">
        <ele>447.021</ele>
        <time>2022-08-25T12:35:00Z</time>
      </trkpt>
      <trkpt lat="42.66190399999995" lon="-1.996656000000004">
        <ele>447.084</ele>
        <time>2022-08-25T12:35:01Z</time>
      </trkpt>
      <trkpt lat="42.66189799999995" lon="-1.996698000000004">
        <ele>447.030</ele>
        <time>2022-08-25T12:35:02Z</time>
      </trkpt>
      <trkpt lat="42.661890999999954" lon="-1.9967590000000042">
        <ele>447.271</ele>
        <time>2022-08-25T12:35:04Z</time>
      </trkpt>
      <trkpt lat="42.661887999999955" lon="-1.9968020000000042">
        <ele>447.283</ele>
        <time>2022-08-25T12:35:05Z</time>
      </trkpt>
      <trkpt lat="42.661884999999955" lon="-1.996838000000004">
        <ele>447.225</ele>
        <time>2022-08-25T12:35:06Z</time>
      </trkpt>
      <trkpt lat="42.661870999999955" lon="-1.9970130000000041">
        <ele>447.417</ele>
        <time>2022-08-25T12:35:11Z</time>
      </trkpt>
      <trkpt lat="42.661867999999956" lon="-1.9971820000000042">
        <ele>447.409</ele>
        <time>2022-08-25T12:35:15Z</time>
      </trkpt>
      <trkpt lat="42.661865999999954" lon="-1.9972120000000042">
        <ele>447.489</ele>
        <time>2022-08-25T12:35:16Z</time>
      </trkpt>
      <trkpt lat="42.66186699999995" lon="-1.9972470000000042">
        <ele>447.429</ele>
        <time>2022-08-25T12:35:17Z</time>
      </trkpt>
      <trkpt lat="42.66186799999995" lon="-1.997278000000004">
        <ele>447.479</ele>
        <time>2022-08-25T12:35:18Z</time>
      </trkpt>
      <trkpt lat="42.66186699999995" lon="-1.997308000000004">
        <ele>447.485</ele>
        <time>2022-08-25T12:35:19Z</time>
      </trkpt>
      <trkpt lat="42.661865999999954" lon="-1.997506000000004">
        <ele>448.277</ele>
        <time>2022-08-25T12:35:24Z</time>
      </trkpt>
      <trkpt lat="42.66186399999995" lon="-1.997544000000004">
        <ele>448.664</ele>
        <time>2022-08-25T12:35:25Z</time>
      </trkpt>
      <trkpt lat="42.66186099999995" lon="-1.997579000000004">
        <ele>448.647</ele>
        <time>2022-08-25T12:35:26Z</time>
      </trkpt>
      <trkpt lat="42.66185899999995" lon="-1.997605000000004">
        <ele>448.823</ele>
        <time>2022-08-25T12:35:27Z</time>
      </trkpt>
      <trkpt lat="42.66185599999995" lon="-1.9976390000000042">
        <ele>449.084</ele>
        <time>2022-08-25T12:35:28Z</time>
      </trkpt>
      <trkpt lat="42.66185499999995" lon="-1.9976730000000043">
        <ele>449.214</ele>
        <time>2022-08-25T12:35:29Z</time>
      </trkpt>
      <trkpt lat="42.66185599999995" lon="-1.9977120000000042">
        <ele>449.454</ele>
        <time>2022-08-25T12:35:30Z</time>
      </trkpt>
      <trkpt lat="42.66185699999995" lon="-1.997745000000004">
        <ele>449.409</ele>
        <time>2022-08-25T12:35:31Z</time>
      </trkpt>
      <trkpt lat="42.661857999999945" lon="-1.9977710000000042">
        <ele>449.409</ele>
        <time>2022-08-25T12:35:32Z</time>
      </trkpt>
      <trkpt lat="42.66185599999994" lon="-1.9978410000000042">
        <ele>449.482</ele>
        <time>2022-08-25T12:35:34Z</time>
      </trkpt>
      <trkpt lat="42.661849999999944" lon="-1.9979930000000041">
        <ele>449.812</ele>
        <time>2022-08-25T12:35:39Z</time>
      </trkpt>
      <trkpt lat="42.661846999999945" lon="-1.998026000000004">
        <ele>449.872</ele>
        <time>2022-08-25T12:35:40Z</time>
      </trkpt>
      <trkpt lat="42.661835999999944" lon="-1.998186000000004">
        <ele>450.058</ele>
        <time>2022-08-25T12:35:45Z</time>
      </trkpt>
      <trkpt lat="42.66182899999995" lon="-1.998334000000004">
        <ele>450.480</ele>
        <time>2022-08-25T12:35:49Z</time>
      </trkpt>
      <trkpt lat="42.661832999999945" lon="-1.998535000000004">
        <ele>451.267</ele>
        <time>2022-08-25T12:35:55Z</time>
      </trkpt>
      <trkpt lat="42.661832999999945" lon="-1.998577000000004">
        <ele>451.250</ele>
        <time>2022-08-25T12:35:56Z</time>
      </trkpt>
      <trkpt lat="42.661835999999944" lon="-1.998644000000004">
        <ele>451.426</ele>
        <time>2022-08-25T12:35:58Z</time>
      </trkpt>
      <trkpt lat="42.661832999999945" lon="-1.998707000000004">
        <ele>451.627</ele>
        <time>2022-08-25T12:36:00Z</time>
      </trkpt>
      <trkpt lat="42.66182899999995" lon="-1.998788000000004">
        <ele>451.852</ele>
        <time>2022-08-25T12:36:02Z</time>
      </trkpt>
      <trkpt lat="42.66183099999995" lon="-1.998851000000004">
        <ele>452.053</ele>
        <time>2022-08-25T12:36:04Z</time>
      </trkpt>
      <trkpt lat="42.66183399999995" lon="-1.9988840000000039">
        <ele>452.208</ele>
        <time>2022-08-25T12:36:05Z</time>
      </trkpt>
      <trkpt lat="42.661837999999946" lon="-1.998956000000004">
        <ele>452.409</ele>
        <time>2022-08-25T12:36:07Z</time>
      </trkpt>
      <trkpt lat="42.661838999999944" lon="-1.998988000000004">
        <ele>452.686</ele>
        <time>2022-08-25T12:36:08Z</time>
      </trkpt>
      <trkpt lat="42.661838999999944" lon="-1.999014000000004">
        <ele>452.676</ele>
        <time>2022-08-25T12:36:09Z</time>
      </trkpt>
      <trkpt lat="42.661837999999946" lon="-1.999123000000004">
        <ele>453.066</ele>
        <time>2022-08-25T12:36:12Z</time>
      </trkpt>
      <trkpt lat="42.661837999999946" lon="-1.999152000000004">
        <ele>453.012</ele>
        <time>2022-08-25T12:36:13Z</time>
      </trkpt>
      <trkpt lat="42.66183699999995" lon="-1.999188000000004">
        <ele>453.094</ele>
        <time>2022-08-25T12:36:14Z</time>
      </trkpt>
      <trkpt lat="42.661837999999946" lon="-1.999232000000004">
        <ele>453.221</ele>
        <time>2022-08-25T12:36:15Z</time>
      </trkpt>
      <trkpt lat="42.66184199999994" lon="-1.999267000000004">
        <ele>453.274</ele>
        <time>2022-08-25T12:36:16Z</time>
      </trkpt>
      <trkpt lat="42.66184299999994" lon="-1.9993050000000039">
        <ele>453.430</ele>
        <time>2022-08-25T12:36:17Z</time>
      </trkpt>
      <trkpt lat="42.66184399999994" lon="-1.9993350000000039">
        <ele>453.481</ele>
        <time>2022-08-25T12:36:18Z</time>
      </trkpt>
      <trkpt lat="42.66184299999994" lon="-1.999375000000004">
        <ele>453.691</ele>
        <time>2022-08-25T12:36:19Z</time>
      </trkpt>
      <trkpt lat="42.66184299999994" lon="-1.999412000000004">
        <ele>453.881</ele>
        <time>2022-08-25T12:36:20Z</time>
      </trkpt>
      <trkpt lat="42.66184599999994" lon="-1.999450000000004">
        <ele>453.819</ele>
        <time>2022-08-25T12:36:21Z</time>
      </trkpt>
      <trkpt lat="42.66184699999994" lon="-1.9994890000000038">
        <ele>453.809</ele>
        <time>2022-08-25T12:36:22Z</time>
      </trkpt>
      <trkpt lat="42.66184699999994" lon="-1.9995280000000037">
        <ele>454.050</ele>
        <time>2022-08-25T12:36:23Z</time>
      </trkpt>
      <trkpt lat="42.66184699999994" lon="-1.9995740000000037">
        <ele>454.040</ele>
        <time>2022-08-25T12:36:24Z</time>
      </trkpt>
      <trkpt lat="42.661847999999935" lon="-1.9996040000000037">
        <ele>454.060</ele>
        <time>2022-08-25T12:36:25Z</time>
      </trkpt>
      <trkpt lat="42.66184599999993" lon="-1.9996520000000038">
        <ele>454.036</ele>
        <time>2022-08-25T12:36:26Z</time>
      </trkpt>
      <trkpt lat="42.66184599999993" lon="-1.9996820000000037">
        <ele>454.268</ele>
        <time>2022-08-25T12:36:27Z</time>
      </trkpt>
      <trkpt lat="42.66184899999993" lon="-1.9997180000000037">
        <ele>454.245</ele>
        <time>2022-08-25T12:36:28Z</time>
      </trkpt>
      <trkpt lat="42.66184899999993" lon="-1.9997610000000037">
        <ele>454.248</ele>
        <time>2022-08-25T12:36:29Z</time>
      </trkpt>
      <trkpt lat="42.66184899999993" lon="-1.9997970000000036">
        <ele>454.464</ele>
        <time>2022-08-25T12:36:30Z</time>
      </trkpt>
      <trkpt lat="42.66183899999993" lon="-1.9999150000000037">
        <ele>454.675</ele>
        <time>2022-08-25T12:36:33Z</time>
      </trkpt>
      <trkpt lat="42.66183799999993" lon="-2.000002000000004">
        <ele>454.827</ele>
        <time>2022-08-25T12:36:35Z</time>
      </trkpt>
      <trkpt lat="42.66183499999993" lon="-2.000184000000004">
        <ele>454.868</ele>
        <time>2022-08-25T12:36:39Z</time>
      </trkpt>
      <trkpt lat="42.66183599999993" lon="-2.000226000000004">
        <ele>455.014</ele>
        <time>2022-08-25T12:36:40Z</time>
      </trkpt>
      <trkpt lat="42.66183399999993" lon="-2.0002590000000042">
        <ele>455.009</ele>
        <time>2022-08-25T12:36:41Z</time>
      </trkpt>
      <trkpt lat="42.66182999999993" lon="-2.000303000000004">
        <ele>455.283</ele>
        <time>2022-08-25T12:36:42Z</time>
      </trkpt>
      <trkpt lat="42.66182499999993" lon="-2.000354000000004">
        <ele>455.263</ele>
        <time>2022-08-25T12:36:43Z</time>
      </trkpt>
      <trkpt lat="42.66181599999993" lon="-2.000575000000004">
        <ele>455.243</ele>
        <time>2022-08-25T12:36:48Z</time>
      </trkpt>
      <trkpt lat="42.66180099999993" lon="-2.000846000000004">
        <ele>455.259</ele>
        <time>2022-08-25T12:36:54Z</time>
      </trkpt>
      <trkpt lat="42.661794999999934" lon="-2.000941000000004">
        <ele>455.481</ele>
        <time>2022-08-25T12:36:56Z</time>
      </trkpt>
      <trkpt lat="42.661754999999935" lon="-2.001281000000004">
        <ele>455.668</ele>
        <time>2022-08-25T12:37:03Z</time>
      </trkpt>
      <trkpt lat="42.66170099999994" lon="-2.001771000000004">
        <ele>455.421</ele>
        <time>2022-08-25T12:37:12Z</time>
      </trkpt>
      <trkpt lat="42.661656999999934" lon="-2.0021720000000043">
        <ele>455.247</ele>
        <time>2022-08-25T12:37:19Z</time>
      </trkpt>
      <trkpt lat="42.66163799999993" lon="-2.002342000000004">
        <ele>455.058</ele>
        <time>2022-08-25T12:37:22Z</time>
      </trkpt>
      <trkpt lat="42.661557999999935" lon="-2.002964000000004">
        <ele>454.221</ele>
        <time>2022-08-25T12:37:31Z</time>
      </trkpt>
      <trkpt lat="42.66151099999993" lon="-2.003402000000004">
        <ele>453.441</ele>
        <time>2022-08-25T12:37:37Z</time>
      </trkpt>
      <trkpt lat="42.661487999999935" lon="-2.003672000000004">
        <ele>452.605</ele>
        <time>2022-08-25T12:37:40Z</time>
      </trkpt>
      <trkpt lat="42.661476999999934" lon="-2.003856000000004">
        <ele>452.409</ele>
        <time>2022-08-25T12:37:42Z</time>
      </trkpt>
      <trkpt lat="42.661481999999936" lon="-2.004235000000004">
        <ele>452.013</ele>
        <time>2022-08-25T12:37:46Z</time>
      </trkpt>
      <trkpt lat="42.661515999999935" lon="-2.004562000000004">
        <ele>451.443</ele>
        <time>2022-08-25T12:37:49Z</time>
      </trkpt>
      <trkpt lat="42.661602999999936" lon="-2.004972000000004">
        <ele>450.673</ele>
        <time>2022-08-25T12:37:53Z</time>
      </trkpt>
      <trkpt lat="42.661625999999934" lon="-2.005053000000004">
        <ele>450.059</ele>
        <time>2022-08-25T12:37:54Z</time>
      </trkpt>
      <trkpt lat="42.66176999999993" lon="-2.005471000000004">
        <ele>449.041</ele>
        <time>2022-08-25T12:37:58Z</time>
      </trkpt>
      <trkpt lat="42.661850999999935" lon="-2.005647000000004">
        <ele>448.248</ele>
        <time>2022-08-25T12:38:00Z</time>
      </trkpt>
      <trkpt lat="42.66189799999994" lon="-2.005744000000004">
        <ele>447.641</ele>
        <time>2022-08-25T12:38:01Z</time>
      </trkpt>
      <trkpt lat="42.662067999999934" lon="-2.006016000000004">
        <ele>445.627</ele>
        <time>2022-08-25T12:38:04Z</time>
      </trkpt>
      <trkpt lat="42.662145999999936" lon="-2.006118000000004">
        <ele>445.468</ele>
        <time>2022-08-25T12:38:05Z</time>
      </trkpt>
      <trkpt lat="42.662199999999935" lon="-2.006182000000004">
        <ele>444.635</ele>
        <time>2022-08-25T12:38:06Z</time>
      </trkpt>
      <trkpt lat="42.662334999999935" lon="-2.006345000000004">
        <ele>443.486</ele>
        <time>2022-08-25T12:38:08Z</time>
      </trkpt>
      <trkpt lat="42.66249099999993" lon="-2.006506000000004">
        <ele>442.014</ele>
        <time>2022-08-25T12:38:10Z</time>
      </trkpt>
      <trkpt lat="42.66256699999993" lon="-2.006572000000004">
        <ele>441.209</ele>
        <time>2022-08-25T12:38:11Z</time>
      </trkpt>
      <trkpt lat="42.66264799999993" lon="-2.0066310000000036">
        <ele>440.844</ele>
        <time>2022-08-25T12:38:12Z</time>
      </trkpt>
      <trkpt lat="42.662810999999934" lon="-2.0067380000000035">
        <ele>439.694</ele>
        <time>2022-08-25T12:38:14Z</time>
      </trkpt>
      <trkpt lat="42.66289099999993" lon="-2.0067850000000034">
        <ele>439.074</ele>
        <time>2022-08-25T12:38:15Z</time>
      </trkpt>
      <trkpt lat="42.66297299999993" lon="-2.0068240000000035">
        <ele>438.050</ele>
        <time>2022-08-25T12:38:16Z</time>
      </trkpt>
      <trkpt lat="42.66305299999993" lon="-2.0068600000000036">
        <ele>437.472</ele>
        <time>2022-08-25T12:38:17Z</time>
      </trkpt>
      <trkpt lat="42.66311699999993" lon="-2.0068860000000037">
        <ele>436.459</ele>
        <time>2022-08-25T12:38:18Z</time>
      </trkpt>
      <trkpt lat="42.66327799999993" lon="-2.0069450000000035">
        <ele>435.422</ele>
        <time>2022-08-25T12:38:20Z</time>
      </trkpt>
      <trkpt lat="42.663447999999924" lon="-2.0070030000000036">
        <ele>434.428</ele>
        <time>2022-08-25T12:38:22Z</time>
      </trkpt>
      <trkpt lat="42.66353599999992" lon="-2.0070320000000037">
        <ele>433.449</ele>
        <time>2022-08-25T12:38:23Z</time>
      </trkpt>
      <trkpt lat="42.663711999999926" lon="-2.0070910000000035">
        <ele>432.086</ele>
        <time>2022-08-25T12:38:25Z</time>
      </trkpt>
      <trkpt lat="42.66389099999993" lon="-2.0071500000000033">
        <ele>430.860</ele>
        <time>2022-08-25T12:38:27Z</time>
      </trkpt>
      <trkpt lat="42.66408699999993" lon="-2.007219000000003">
        <ele>429.626</ele>
        <time>2022-08-25T12:38:29Z</time>
      </trkpt>
      <trkpt lat="42.66415699999993" lon="-2.007241000000003">
        <ele>428.809</ele>
        <time>2022-08-25T12:38:30Z</time>
      </trkpt>
      <trkpt lat="42.664242999999935" lon="-2.0072670000000032">
        <ele>428.239</ele>
        <time>2022-08-25T12:38:31Z</time>
      </trkpt>
      <trkpt lat="42.66432599999993" lon="-2.0072940000000035">
        <ele>428.069</ele>
        <time>2022-08-25T12:38:32Z</time>
      </trkpt>
      <trkpt lat="42.66442399999993" lon="-2.0073280000000033">
        <ele>427.649</ele>
        <time>2022-08-25T12:38:33Z</time>
      </trkpt>
      <trkpt lat="42.66448599999993" lon="-2.0073560000000032">
        <ele>427.285</ele>
        <time>2022-08-25T12:38:34Z</time>
      </trkpt>
      <trkpt lat="42.664560999999935" lon="-2.007393000000003">
        <ele>426.637</ele>
        <time>2022-08-25T12:38:35Z</time>
      </trkpt>
      <trkpt lat="42.664633999999936" lon="-2.007432000000003">
        <ele>426.484</ele>
        <time>2022-08-25T12:38:36Z</time>
      </trkpt>
      <trkpt lat="42.66470099999994" lon="-2.0074740000000033">
        <ele>426.227</ele>
        <time>2022-08-25T12:38:37Z</time>
      </trkpt>
      <trkpt lat="42.66477899999994" lon="-2.0075250000000033">
        <ele>425.883</ele>
        <time>2022-08-25T12:38:38Z</time>
      </trkpt>
      <trkpt lat="42.66484099999994" lon="-2.0075700000000034">
        <ele>425.434</ele>
        <time>2022-08-25T12:38:39Z</time>
      </trkpt>
      <trkpt lat="42.66489099999994" lon="-2.0076070000000033">
        <ele>424.472</ele>
        <time>2022-08-25T12:38:40Z</time>
      </trkpt>
      <trkpt lat="42.66495199999994" lon="-2.0076530000000035">
        <ele>424.213</ele>
        <time>2022-08-25T12:38:41Z</time>
      </trkpt>
      <trkpt lat="42.665009999999945" lon="-2.0077020000000037">
        <ele>423.614</ele>
        <time>2022-08-25T12:38:42Z</time>
      </trkpt>
      <trkpt lat="42.665074999999945" lon="-2.0077650000000036">
        <ele>423.009</ele>
        <time>2022-08-25T12:38:43Z</time>
      </trkpt>
      <trkpt lat="42.66512999999995" lon="-2.0078120000000035">
        <ele>423.078</ele>
        <time>2022-08-25T12:38:44Z</time>
      </trkpt>
      <trkpt lat="42.66517399999995" lon="-2.0078480000000036">
        <ele>422.878</ele>
        <time>2022-08-25T12:38:45Z</time>
      </trkpt>
      <trkpt lat="42.66522699999995" lon="-2.007894000000004">
        <ele>422.888</ele>
        <time>2022-08-25T12:38:46Z</time>
      </trkpt>
      <trkpt lat="42.66528699999995" lon="-2.0079500000000037">
        <ele>422.824</ele>
        <time>2022-08-25T12:38:47Z</time>
      </trkpt>
      <trkpt lat="42.66533099999995" lon="-2.0079980000000037">
        <ele>422.636</ele>
        <time>2022-08-25T12:38:48Z</time>
      </trkpt>
      <trkpt lat="42.66536799999995" lon="-2.0080360000000037">
        <ele>422.633</ele>
        <time>2022-08-25T12:38:49Z</time>
      </trkpt>
      <trkpt lat="42.66541099999995" lon="-2.008082000000004">
        <ele>422.646</ele>
        <time>2022-08-25T12:38:50Z</time>
      </trkpt>
      <trkpt lat="42.66545499999995" lon="-2.008135000000004">
        <ele>422.652</ele>
        <time>2022-08-25T12:38:51Z</time>
      </trkpt>
      <trkpt lat="42.66550699999995" lon="-2.008196000000004">
        <ele>422.423</ele>
        <time>2022-08-25T12:38:52Z</time>
      </trkpt>
      <trkpt lat="42.66554599999995" lon="-2.0082430000000038">
        <ele>422.449</ele>
        <time>2022-08-25T12:38:53Z</time>
      </trkpt>
      <trkpt lat="42.66558399999995" lon="-2.008291000000004">
        <ele>422.402</ele>
        <time>2022-08-25T12:38:54Z</time>
      </trkpt>
      <trkpt lat="42.66561199999995" lon="-2.008327000000004">
        <ele>422.422</ele>
        <time>2022-08-25T12:38:55Z</time>
      </trkpt>
      <trkpt lat="42.665655999999956" lon="-2.008383000000004">
        <ele>422.409</ele>
        <time>2022-08-25T12:38:56Z</time>
      </trkpt>
      <trkpt lat="42.665689999999955" lon="-2.008428000000004">
        <ele>422.235</ele>
        <time>2022-08-25T12:38:57Z</time>
      </trkpt>
      <trkpt lat="42.665720999999955" lon="-2.008473000000004">
        <ele>422.245</ele>
        <time>2022-08-25T12:38:58Z</time>
      </trkpt>
      <trkpt lat="42.66574799999996" lon="-2.008521000000004">
        <ele>422.275</ele>
        <time>2022-08-25T12:38:59Z</time>
      </trkpt>
      <trkpt lat="42.66576699999996" lon="-2.008562000000004">
        <ele>422.251</ele>
        <time>2022-08-25T12:39:00Z</time>
      </trkpt>
      <trkpt lat="42.66579599999996" lon="-2.008627000000004">
        <ele>422.463</ele>
        <time>2022-08-25T12:39:01Z</time>
      </trkpt>
      <trkpt lat="42.66581799999996" lon="-2.008684000000004">
        <ele>422.420</ele>
        <time>2022-08-25T12:39:02Z</time>
      </trkpt>
      <trkpt lat="42.665838999999956" lon="-2.0087390000000043">
        <ele>422.473</ele>
        <time>2022-08-25T12:39:03Z</time>
      </trkpt>
      <trkpt lat="42.66585399999995" lon="-2.008782000000004">
        <ele>422.449</ele>
        <time>2022-08-25T12:39:04Z</time>
      </trkpt>
      <trkpt lat="42.66587199999995" lon="-2.008837000000004">
        <ele>422.270</ele>
        <time>2022-08-25T12:39:05Z</time>
      </trkpt>
      <trkpt lat="42.66588899999995" lon="-2.008906000000004">
        <ele>422.434</ele>
        <time>2022-08-25T12:39:06Z</time>
      </trkpt>
      <trkpt lat="42.66589899999995" lon="-2.008964000000004">
        <ele>422.455</ele>
        <time>2022-08-25T12:39:07Z</time>
      </trkpt>
      <trkpt lat="42.66592199999995" lon="-2.009204000000004">
        <ele>422.410</ele>
        <time>2022-08-25T12:39:11Z</time>
      </trkpt>
      <trkpt lat="42.66591899999995" lon="-2.009267000000004">
        <ele>422.409</ele>
        <time>2022-08-25T12:39:12Z</time>
      </trkpt>
      <trkpt lat="42.66589699999995" lon="-2.009629000000004">
        <ele>422.454</ele>
        <time>2022-08-25T12:39:18Z</time>
      </trkpt>
      <trkpt lat="42.66588099999995" lon="-2.009760000000004">
        <ele>422.254</ele>
        <time>2022-08-25T12:39:20Z</time>
      </trkpt>
      <trkpt lat="42.66587199999995" lon="-2.009825000000004">
        <ele>422.034</ele>
        <time>2022-08-25T12:39:21Z</time>
      </trkpt>
      <trkpt lat="42.66586199999995" lon="-2.0098890000000043">
        <ele>422.050</ele>
        <time>2022-08-25T12:39:22Z</time>
      </trkpt>
      <trkpt lat="42.66585799999995" lon="-2.009936000000004">
        <ele>422.062</ele>
        <time>2022-08-25T12:39:23Z</time>
      </trkpt>
      <trkpt lat="42.66585199999995" lon="-2.010005000000004">
        <ele>422.049</ele>
        <time>2022-08-25T12:39:24Z</time>
      </trkpt>
      <trkpt lat="42.665844999999955" lon="-2.010065000000004">
        <ele>422.072</ele>
        <time>2022-08-25T12:39:25Z</time>
      </trkpt>
      <trkpt lat="42.66584099999996" lon="-2.010124000000004">
        <ele>421.838</ele>
        <time>2022-08-25T12:39:26Z</time>
      </trkpt>
      <trkpt lat="42.665838999999956" lon="-2.0101800000000036">
        <ele>421.849</ele>
        <time>2022-08-25T12:39:27Z</time>
      </trkpt>
      <trkpt lat="42.665838999999956" lon="-2.0102240000000036">
        <ele>421.834</ele>
        <time>2022-08-25T12:39:28Z</time>
      </trkpt>
      <trkpt lat="42.665838999999956" lon="-2.0102790000000037">
        <ele>421.855</ele>
        <time>2022-08-25T12:39:29Z</time>
      </trkpt>
      <trkpt lat="42.66583199999996" lon="-2.0103960000000036">
        <ele>421.810</ele>
        <time>2022-08-25T12:39:31Z</time>
      </trkpt>
      <trkpt lat="42.66582899999996" lon="-2.0104400000000036">
        <ele>421.809</ele>
        <time>2022-08-25T12:39:32Z</time>
      </trkpt>
      <trkpt lat="42.66582399999996" lon="-2.0104940000000036">
        <ele>421.834</ele>
        <time>2022-08-25T12:39:33Z</time>
      </trkpt>
      <trkpt lat="42.66581699999996" lon="-2.0105560000000033">
        <ele>421.864</ele>
        <time>2022-08-25T12:39:34Z</time>
      </trkpt>
      <trkpt lat="42.66580699999996" lon="-2.0106600000000032">
        <ele>421.674</ele>
        <time>2022-08-25T12:39:36Z</time>
      </trkpt>
      <trkpt lat="42.66580399999996" lon="-2.0106990000000033">
        <ele>421.840</ele>
        <time>2022-08-25T12:39:37Z</time>
      </trkpt>
      <trkpt lat="42.66579799999996" lon="-2.010755000000003">
        <ele>421.882</ele>
        <time>2022-08-25T12:39:38Z</time>
      </trkpt>
      <trkpt lat="42.66579299999996" lon="-2.010802000000003">
        <ele>421.839</ele>
        <time>2022-08-25T12:39:39Z</time>
      </trkpt>
      <trkpt lat="42.66578499999996" lon="-2.0108830000000033">
        <ele>421.872</ele>
        <time>2022-08-25T12:39:41Z</time>
      </trkpt>
      <trkpt lat="42.66576499999996" lon="-2.010987000000003">
        <ele>422.018</ele>
        <time>2022-08-25T12:39:43Z</time>
      </trkpt>
      <trkpt lat="42.665754999999955" lon="-2.011030000000003">
        <ele>422.219</ele>
        <time>2022-08-25T12:39:44Z</time>
      </trkpt>
      <trkpt lat="42.665714999999956" lon="-2.011317000000003">
        <ele>422.284</ele>
        <time>2022-08-25T12:39:50Z</time>
      </trkpt>
      <trkpt lat="42.66571199999996" lon="-2.011351000000003">
        <ele>422.207</ele>
        <time>2022-08-25T12:39:51Z</time>
      </trkpt>
      <trkpt lat="42.665706999999955" lon="-2.011450000000003">
        <ele>422.217</ele>
        <time>2022-08-25T12:39:53Z</time>
      </trkpt>
      <trkpt lat="42.665706999999955" lon="-2.0114960000000033">
        <ele>422.209</ele>
        <time>2022-08-25T12:39:54Z</time>
      </trkpt>
      <trkpt lat="42.665703999999955" lon="-2.0115310000000033">
        <ele>422.059</ele>
        <time>2022-08-25T12:39:55Z</time>
      </trkpt>
      <trkpt lat="42.66570299999996" lon="-2.0115730000000034">
        <ele>422.089</ele>
        <time>2022-08-25T12:39:56Z</time>
      </trkpt>
      <trkpt lat="42.66569999999996" lon="-2.0116280000000035">
        <ele>422.099</ele>
        <time>2022-08-25T12:39:57Z</time>
      </trkpt>
      <trkpt lat="42.665697999999956" lon="-2.0116750000000034">
        <ele>422.075</ele>
        <time>2022-08-25T12:39:58Z</time>
      </trkpt>
      <trkpt lat="42.66567099999995" lon="-2.0120010000000033">
        <ele>422.057</ele>
        <time>2022-08-25T12:40:05Z</time>
      </trkpt>
      <trkpt lat="42.665661999999955" lon="-2.0120620000000033">
        <ele>422.054</ele>
        <time>2022-08-25T12:40:06Z</time>
      </trkpt>
      <trkpt lat="42.66565699999995" lon="-2.0121010000000035">
        <ele>422.287</ele>
        <time>2022-08-25T12:40:07Z</time>
      </trkpt>
      <trkpt lat="42.66565199999995" lon="-2.0121580000000034">
        <ele>422.213</ele>
        <time>2022-08-25T12:40:08Z</time>
      </trkpt>
      <trkpt lat="42.665650999999954" lon="-2.0121930000000035">
        <ele>422.244</ele>
        <time>2022-08-25T12:40:09Z</time>
      </trkpt>
      <trkpt lat="42.66564699999996" lon="-2.0122390000000037">
        <ele>422.254</ele>
        <time>2022-08-25T12:40:10Z</time>
      </trkpt>
      <trkpt lat="42.665638999999956" lon="-2.0122860000000036">
        <ele>422.256</ele>
        <time>2022-08-25T12:40:11Z</time>
      </trkpt>
      <trkpt lat="42.66563199999996" lon="-2.0123300000000035">
        <ele>422.211</ele>
        <time>2022-08-25T12:40:12Z</time>
      </trkpt>
      <trkpt lat="42.66562899999996" lon="-2.0123710000000035">
        <ele>422.209</ele>
        <time>2022-08-25T12:40:13Z</time>
      </trkpt>
      <trkpt lat="42.66562199999996" lon="-2.0124140000000033">
        <ele>422.456</ele>
        <time>2022-08-25T12:40:14Z</time>
      </trkpt>
      <trkpt lat="42.665609999999965" lon="-2.0124600000000035">
        <ele>422.416</ele>
        <time>2022-08-25T12:40:15Z</time>
      </trkpt>
      <trkpt lat="42.66558699999997" lon="-2.0125960000000034">
        <ele>422.436</ele>
        <time>2022-08-25T12:40:18Z</time>
      </trkpt>
      <trkpt lat="42.66558099999997" lon="-2.0126380000000035">
        <ele>422.432</ele>
        <time>2022-08-25T12:40:19Z</time>
      </trkpt>
      <trkpt lat="42.665572999999966" lon="-2.0127230000000034">
        <ele>422.614</ele>
        <time>2022-08-25T12:40:21Z</time>
      </trkpt>
      <trkpt lat="42.665556999999964" lon="-2.0128530000000033">
        <ele>423.091</ele>
        <time>2022-08-25T12:40:24Z</time>
      </trkpt>
      <trkpt lat="42.66555299999997" lon="-2.0128970000000033">
        <ele>423.064</ele>
        <time>2022-08-25T12:40:25Z</time>
      </trkpt>
      <trkpt lat="42.66555199999997" lon="-2.0129380000000032">
        <ele>423.240</ele>
        <time>2022-08-25T12:40:26Z</time>
      </trkpt>
      <trkpt lat="42.66554899999997" lon="-2.012981000000003">
        <ele>423.221</ele>
        <time>2022-08-25T12:40:27Z</time>
      </trkpt>
      <trkpt lat="42.66554699999997" lon="-2.013021000000003">
        <ele>423.448</ele>
        <time>2022-08-25T12:40:28Z</time>
      </trkpt>
      <trkpt lat="42.665544999999966" lon="-2.0130580000000027">
        <ele>423.461</ele>
        <time>2022-08-25T12:40:29Z</time>
      </trkpt>
      <trkpt lat="42.665542999999964" lon="-2.0130930000000027">
        <ele>423.417</ele>
        <time>2022-08-25T12:40:30Z</time>
      </trkpt>
      <trkpt lat="42.665536999999965" lon="-2.013132000000003">
        <ele>423.609</ele>
        <time>2022-08-25T12:40:31Z</time>
      </trkpt>
      <trkpt lat="42.66552499999997" lon="-2.0131760000000027">
        <ele>423.665</ele>
        <time>2022-08-25T12:40:32Z</time>
      </trkpt>
      <trkpt lat="42.665516999999966" lon="-2.0132200000000027">
        <ele>423.625</ele>
        <time>2022-08-25T12:40:33Z</time>
      </trkpt>
      <trkpt lat="42.665513999999966" lon="-2.0132550000000027">
        <ele>423.885</ele>
        <time>2022-08-25T12:40:34Z</time>
      </trkpt>
      <trkpt lat="42.66550999999997" lon="-2.0132900000000027">
        <ele>423.831</ele>
        <time>2022-08-25T12:40:35Z</time>
      </trkpt>
      <trkpt lat="42.66550499999997" lon="-2.013329000000003">
        <ele>423.883</ele>
        <time>2022-08-25T12:40:36Z</time>
      </trkpt>
      <trkpt lat="42.66549899999997" lon="-2.0134110000000027">
        <ele>423.870</ele>
        <time>2022-08-25T12:40:38Z</time>
      </trkpt>
      <trkpt lat="42.66550099999997" lon="-2.013447000000003">
        <ele>424.043</ele>
        <time>2022-08-25T12:40:39Z</time>
      </trkpt>
      <trkpt lat="42.66549899999997" lon="-2.013483000000003">
        <ele>424.279</ele>
        <time>2022-08-25T12:40:40Z</time>
      </trkpt>
      <trkpt lat="42.66549599999997" lon="-2.013520000000003">
        <ele>424.440</ele>
        <time>2022-08-25T12:40:41Z</time>
      </trkpt>
      <trkpt lat="42.66549299999997" lon="-2.013556000000003">
        <ele>424.466</ele>
        <time>2022-08-25T12:40:42Z</time>
      </trkpt>
      <trkpt lat="42.66548399999997" lon="-2.013594000000003">
        <ele>424.429</ele>
        <time>2022-08-25T12:40:43Z</time>
      </trkpt>
      <trkpt lat="42.66547599999997" lon="-2.013630000000003">
        <ele>424.421</ele>
        <time>2022-08-25T12:40:44Z</time>
      </trkpt>
      <trkpt lat="42.66546299999997" lon="-2.0136630000000033">
        <ele>424.609</ele>
        <time>2022-08-25T12:40:45Z</time>
      </trkpt>
      <trkpt lat="42.66544899999997" lon="-2.0136930000000035">
        <ele>424.657</ele>
        <time>2022-08-25T12:40:46Z</time>
      </trkpt>
      <trkpt lat="42.665390999999964" lon="-2.0138540000000034">
        <ele>425.017</ele>
        <time>2022-08-25T12:40:51Z</time>
      </trkpt>
      <trkpt lat="42.665361999999966" lon="-2.0139190000000036">
        <ele>425.457</ele>
        <time>2022-08-25T12:40:53Z</time>
      </trkpt>
      <trkpt lat="42.66528999999996" lon="-2.0141750000000034">
        <ele>426.213</ele>
        <time>2022-08-25T12:41:00Z</time>
      </trkpt>
      <trkpt lat="42.665271999999966" lon="-2.0142060000000033">
        <ele>426.285</ele>
        <time>2022-08-25T12:41:01Z</time>
      </trkpt>
      <trkpt lat="42.66511599999997" lon="-2.0145120000000034">
        <ele>426.632</ele>
        <time>2022-08-25T12:41:10Z</time>
      </trkpt>
      <trkpt lat="42.66491999999997" lon="-2.0148210000000035">
        <ele>426.625</ele>
        <time>2022-08-25T12:41:18Z</time>
      </trkpt>
      <trkpt lat="42.66472299999997" lon="-2.0151310000000033">
        <ele>426.671</ele>
        <time>2022-08-25T12:41:25Z</time>
      </trkpt>
      <trkpt lat="42.664630999999964" lon="-2.015298000000003">
        <ele>426.212</ele>
        <time>2022-08-25T12:41:28Z</time>
      </trkpt>
      <trkpt lat="42.664565999999965" lon="-2.0154960000000033">
        <ele>425.448</ele>
        <time>2022-08-25T12:41:31Z</time>
      </trkpt>
      <trkpt lat="42.66455399999997" lon="-2.015565000000003">
        <ele>425.261</ele>
        <time>2022-08-25T12:41:32Z</time>
      </trkpt>
      <trkpt lat="42.66454499999997" lon="-2.015632000000003">
        <ele>425.017</ele>
        <time>2022-08-25T12:41:33Z</time>
      </trkpt>
      <trkpt lat="42.66452199999997" lon="-2.015841000000003">
        <ele>424.409</ele>
        <time>2022-08-25T12:41:36Z</time>
      </trkpt>
      <trkpt lat="42.66451399999997" lon="-2.0159060000000033">
        <ele>424.455</ele>
        <time>2022-08-25T12:41:37Z</time>
      </trkpt>
      <trkpt lat="42.66450499999997" lon="-2.0159710000000035">
        <ele>424.265</ele>
        <time>2022-08-25T12:41:38Z</time>
      </trkpt>
      <trkpt lat="42.66449799999997" lon="-2.0160240000000034">
        <ele>424.255</ele>
        <time>2022-08-25T12:41:39Z</time>
      </trkpt>
      <trkpt lat="42.664491999999974" lon="-2.0161000000000033">
        <ele>424.231</ele>
        <time>2022-08-25T12:41:40Z</time>
      </trkpt>
      <trkpt lat="42.66448799999998" lon="-2.016162000000003">
        <ele>424.073</ele>
        <time>2022-08-25T12:41:41Z</time>
      </trkpt>
      <trkpt lat="42.66448499999998" lon="-2.016224000000003">
        <ele>424.070</ele>
        <time>2022-08-25T12:41:42Z</time>
      </trkpt>
      <trkpt lat="42.66447599999998" lon="-2.016336000000003">
        <ele>423.843</ele>
        <time>2022-08-25T12:41:44Z</time>
      </trkpt>
      <trkpt lat="42.664448999999976" lon="-2.016647000000003">
        <ele>423.659</ele>
        <time>2022-08-25T12:41:49Z</time>
      </trkpt>
      <trkpt lat="42.66444299999998" lon="-2.016718000000003">
        <ele>423.620</ele>
        <time>2022-08-25T12:41:50Z</time>
      </trkpt>
      <trkpt lat="42.66443599999998" lon="-2.016775000000003">
        <ele>423.676</ele>
        <time>2022-08-25T12:41:51Z</time>
      </trkpt>
      <trkpt lat="42.66443099999998" lon="-2.016833000000003">
        <ele>423.690</ele>
        <time>2022-08-25T12:41:52Z</time>
      </trkpt>
      <trkpt lat="42.66442699999998" lon="-2.0168780000000033">
        <ele>423.619</ele>
        <time>2022-08-25T12:41:53Z</time>
      </trkpt>
      <trkpt lat="42.66441799999998" lon="-2.016947000000003">
        <ele>423.609</ele>
        <time>2022-08-25T12:41:54Z</time>
      </trkpt>
      <trkpt lat="42.66441399999999" lon="-2.0169890000000033">
        <ele>423.688</ele>
        <time>2022-08-25T12:41:55Z</time>
      </trkpt>
      <trkpt lat="42.66440799999999" lon="-2.0170530000000033">
        <ele>423.628</ele>
        <time>2022-08-25T12:41:56Z</time>
      </trkpt>
      <trkpt lat="42.66440399999999" lon="-2.0170970000000032">
        <ele>423.668</ele>
        <time>2022-08-25T12:41:57Z</time>
      </trkpt>
      <trkpt lat="42.66439799999999" lon="-2.0171510000000032">
        <ele>423.654</ele>
        <time>2022-08-25T12:41:58Z</time>
      </trkpt>
      <trkpt lat="42.66438599999999" lon="-2.017442000000003">
        <ele>423.656</ele>
        <time>2022-08-25T12:42:03Z</time>
      </trkpt>
      <trkpt lat="42.66439999999999" lon="-2.017560000000003">
        <ele>423.673</ele>
        <time>2022-08-25T12:42:05Z</time>
      </trkpt>
      <trkpt lat="42.664424999999994" lon="-2.017731000000003">
        <ele>423.486</ele>
        <time>2022-08-25T12:42:08Z</time>
      </trkpt>
      <trkpt lat="42.664438" lon="-2.017785000000003">
        <ele>423.442</ele>
        <time>2022-08-25T12:42:09Z</time>
      </trkpt>
      <trkpt lat="42.664449" lon="-2.017840000000003">
        <ele>423.243</ele>
        <time>2022-08-25T12:42:10Z</time>
      </trkpt>
      <trkpt lat="42.664457999999996" lon="-2.0178820000000033">
        <ele>423.233</ele>
        <time>2022-08-25T12:42:11Z</time>
      </trkpt>
      <trkpt lat="42.664489999999994" lon="-2.0180040000000035">
        <ele>423.023</ele>
        <time>2022-08-25T12:42:13Z</time>
      </trkpt>
      <trkpt lat="42.66456099999999" lon="-2.0182250000000033">
        <ele>423.015</ele>
        <time>2022-08-25T12:42:17Z</time>
      </trkpt>
      <trkpt lat="42.66457899999999" lon="-2.0182790000000033">
        <ele>422.809</ele>
        <time>2022-08-25T12:42:18Z</time>
      </trkpt>
      <trkpt lat="42.66459599999999" lon="-2.0183330000000033">
        <ele>422.814</ele>
        <time>2022-08-25T12:42:19Z</time>
      </trkpt>
      <trkpt lat="42.664630999999986" lon="-2.0184260000000034">
        <ele>422.674</ele>
        <time>2022-08-25T12:42:21Z</time>
      </trkpt>
      <trkpt lat="42.66469099999998" lon="-2.018577000000003">
        <ele>422.684</ele>
        <time>2022-08-25T12:42:24Z</time>
      </trkpt>
      <trkpt lat="42.66471499999999" lon="-2.0186260000000034">
        <ele>422.650</ele>
        <time>2022-08-25T12:42:25Z</time>
      </trkpt>
      <trkpt lat="42.664827999999986" lon="-2.0188150000000036">
        <ele>422.292</ele>
        <time>2022-08-25T12:42:29Z</time>
      </trkpt>
      <trkpt lat="42.66488799999998" lon="-2.0189030000000034">
        <ele>422.289</ele>
        <time>2022-08-25T12:42:31Z</time>
      </trkpt>
      <trkpt lat="42.66491699999998" lon="-2.0189440000000034">
        <ele>422.222</ele>
        <time>2022-08-25T12:42:32Z</time>
      </trkpt>
      <trkpt lat="42.664943999999984" lon="-2.0189880000000033">
        <ele>422.258</ele>
        <time>2022-08-25T12:42:33Z</time>
      </trkpt>
      <trkpt lat="42.66496699999998" lon="-2.0190210000000035">
        <ele>422.239</ele>
        <time>2022-08-25T12:42:34Z</time>
      </trkpt>
      <trkpt lat="42.66499499999998" lon="-2.0190600000000036">
        <ele>422.278</ele>
        <time>2022-08-25T12:42:35Z</time>
      </trkpt>
      <trkpt lat="42.66508299999998" lon="-2.0191910000000037">
        <ele>422.433</ele>
        <time>2022-08-25T12:42:38Z</time>
      </trkpt>
      <trkpt lat="42.66516699999998" lon="-2.0193070000000035">
        <ele>422.626</ele>
        <time>2022-08-25T12:42:41Z</time>
      </trkpt>
      <trkpt lat="42.66522899999998" lon="-2.0193770000000035">
        <ele>422.809</ele>
        <time>2022-08-25T12:42:43Z</time>
      </trkpt>
      <trkpt lat="42.66525999999998" lon="-2.0194000000000036">
        <ele>423.018</ele>
        <time>2022-08-25T12:42:44Z</time>
      </trkpt>
      <trkpt lat="42.665295999999984" lon="-2.0194230000000037">
        <ele>423.078</ele>
        <time>2022-08-25T12:42:45Z</time>
      </trkpt>
      <trkpt lat="42.66531599999998" lon="-2.019446000000004">
        <ele>423.058</ele>
        <time>2022-08-25T12:42:46Z</time>
      </trkpt>
      <trkpt lat="42.66532799999998" lon="-2.019469000000004">
        <ele>423.014</ele>
        <time>2022-08-25T12:42:47Z</time>
      </trkpt>
      <trkpt lat="42.66533399999998" lon="-2.019486000000004">
        <ele>423.276</ele>
        <time>2022-08-25T12:42:48Z</time>
      </trkpt>
      <trkpt lat="42.66534199999998" lon="-2.019505000000004">
        <ele>423.233</ele>
        <time>2022-08-25T12:42:49Z</time>
      </trkpt>
      <trkpt lat="42.66534899999998" lon="-2.019526000000004">
        <ele>423.296</ele>
        <time>2022-08-25T12:42:50Z</time>
      </trkpt>
      <trkpt lat="42.66535699999998" lon="-2.019544000000004">
        <ele>423.272</ele>
        <time>2022-08-25T12:42:51Z</time>
      </trkpt>
      <trkpt lat="42.66536599999998" lon="-2.0195590000000037">
        <ele>423.283</ele>
        <time>2022-08-25T12:42:52Z</time>
      </trkpt>
      <trkpt lat="42.66537199999998" lon="-2.0195720000000037">
        <ele>423.296</ele>
        <time>2022-08-25T12:42:53Z</time>
      </trkpt>
      <trkpt lat="42.66543099999998" lon="-2.019662000000004">
        <ele>423.231</ele>
        <time>2022-08-25T12:42:57Z</time>
      </trkpt>
      <trkpt lat="42.66557099999998" lon="-2.0198330000000038">
        <ele>423.224</ele>
        <time>2022-08-25T12:43:03Z</time>
      </trkpt>
      <trkpt lat="42.66559299999998" lon="-2.0198580000000037">
        <ele>423.209</ele>
        <time>2022-08-25T12:43:04Z</time>
      </trkpt>
      <trkpt lat="42.66561999999998" lon="-2.0198900000000037">
        <ele>423.280</ele>
        <time>2022-08-25T12:43:05Z</time>
      </trkpt>
      <trkpt lat="42.66563799999998" lon="-2.0199110000000036">
        <ele>423.420</ele>
        <time>2022-08-25T12:43:06Z</time>
      </trkpt>
      <trkpt lat="42.66565999999998" lon="-2.0199370000000036">
        <ele>423.440</ele>
        <time>2022-08-25T12:43:07Z</time>
      </trkpt>
      <trkpt lat="42.66570699999998" lon="-2.0199970000000036">
        <ele>423.666</ele>
        <time>2022-08-25T12:43:09Z</time>
      </trkpt>
      <trkpt lat="42.66573099999999" lon="-2.0200250000000035">
        <ele>423.638</ele>
        <time>2022-08-25T12:43:10Z</time>
      </trkpt>
      <trkpt lat="42.66574799999999" lon="-2.0200460000000033">
        <ele>423.625</ele>
        <time>2022-08-25T12:43:11Z</time>
      </trkpt>
      <trkpt lat="42.66576999999999" lon="-2.0200690000000034">
        <ele>423.668</ele>
        <time>2022-08-25T12:43:12Z</time>
      </trkpt>
      <trkpt lat="42.665795999999986" lon="-2.0200960000000037">
        <ele>423.654</ele>
        <time>2022-08-25T12:43:13Z</time>
      </trkpt>
      <trkpt lat="42.66581699999998" lon="-2.020116000000004">
        <ele>423.675</ele>
        <time>2022-08-25T12:43:14Z</time>
      </trkpt>
      <trkpt lat="42.66587599999998" lon="-2.020181000000004">
        <ele>423.682</ele>
        <time>2022-08-25T12:43:17Z</time>
      </trkpt>
      <trkpt lat="42.665897999999984" lon="-2.020205000000004">
        <ele>423.643</ele>
        <time>2022-08-25T12:43:18Z</time>
      </trkpt>
      <trkpt lat="42.66591599999998" lon="-2.020235000000004">
        <ele>423.617</ele>
        <time>2022-08-25T12:43:19Z</time>
      </trkpt>
      <trkpt lat="42.66593099999998" lon="-2.020258000000004">
        <ele>423.409</ele>
        <time>2022-08-25T12:43:20Z</time>
      </trkpt>
      <trkpt lat="42.66594599999998" lon="-2.020281000000004">
        <ele>423.499</ele>
        <time>2022-08-25T12:43:21Z</time>
      </trkpt>
      <trkpt lat="42.665951999999976" lon="-2.020290000000004">
        <ele>423.439</ele>
        <time>2022-08-25T12:43:22Z</time>
      </trkpt>
      <trkpt lat="42.665979999999976" lon="-2.020330000000004">
        <ele>423.879</ele>
        <time>2022-08-25T12:47:18Z</time>
      </trkpt>
      <trkpt lat="42.666016999999975" lon="-2.020398000000004">
        <ele>423.845</ele>
        <time>2022-08-25T12:47:20Z</time>
      </trkpt>
      <trkpt lat="42.66609999999997" lon="-2.020572000000004">
        <ele>423.667</ele>
        <time>2022-08-25T12:47:25Z</time>
      </trkpt>
      <trkpt lat="42.66630599999997" lon="-2.020788000000004">
        <ele>423.664</ele>
        <time>2022-08-25T12:47:32Z</time>
      </trkpt>
      <trkpt lat="42.666495999999974" lon="-2.020937000000004">
        <ele>423.677</ele>
        <time>2022-08-25T12:47:38Z</time>
      </trkpt>
      <trkpt lat="42.666528999999976" lon="-2.020965000000004">
        <ele>423.663</ele>
        <time>2022-08-25T12:47:39Z</time>
      </trkpt>
      <trkpt lat="42.666714999999975" lon="-2.021074000000004">
        <ele>423.644</ele>
        <time>2022-08-25T12:47:45Z</time>
      </trkpt>
      <trkpt lat="42.66678099999997" lon="-2.021098000000004">
        <ele>423.455</ele>
        <time>2022-08-25T12:47:47Z</time>
      </trkpt>
      <trkpt lat="42.66687999999997" lon="-2.0211380000000037">
        <ele>423.407</ele>
        <time>2022-08-25T12:47:50Z</time>
      </trkpt>
      <trkpt lat="42.66694999999997" lon="-2.0211670000000037">
        <ele>423.417</ele>
        <time>2022-08-25T12:47:52Z</time>
      </trkpt>
      <trkpt lat="42.667063999999975" lon="-2.0212240000000037">
        <ele>423.209</ele>
        <time>2022-08-25T12:47:55Z</time>
      </trkpt>
      <trkpt lat="42.66709999999998" lon="-2.021238000000004">
        <ele>423.226</ele>
        <time>2022-08-25T12:47:56Z</time>
      </trkpt>
      <trkpt lat="42.667136999999975" lon="-2.021252000000004">
        <ele>423.216</ele>
        <time>2022-08-25T12:47:57Z</time>
      </trkpt>
      <trkpt lat="42.667173999999974" lon="-2.021269000000004">
        <ele>423.066</ele>
        <time>2022-08-25T12:47:58Z</time>
      </trkpt>
      <trkpt lat="42.667209999999976" lon="-2.0212820000000042">
        <ele>423.012</ele>
        <time>2022-08-25T12:47:59Z</time>
      </trkpt>
      <trkpt lat="42.66724799999998" lon="-2.0212960000000044">
        <ele>423.074</ele>
        <time>2022-08-25T12:48:00Z</time>
      </trkpt>
      <trkpt lat="42.66728399999998" lon="-2.0213100000000046">
        <ele>423.031</ele>
        <time>2022-08-25T12:48:01Z</time>
      </trkpt>
      <trkpt lat="42.66731999999998" lon="-2.021324000000005">
        <ele>423.054</ele>
        <time>2022-08-25T12:48:02Z</time>
      </trkpt>
      <trkpt lat="42.667355999999984" lon="-2.021338000000005">
        <ele>422.860</ele>
        <time>2022-08-25T12:48:03Z</time>
      </trkpt>
      <trkpt lat="42.66739099999998" lon="-2.021350000000005">
        <ele>422.881</ele>
        <time>2022-08-25T12:48:04Z</time>
      </trkpt>
      <trkpt lat="42.66742499999998" lon="-2.021364000000005">
        <ele>422.874</ele>
        <time>2022-08-25T12:48:05Z</time>
      </trkpt>
      <trkpt lat="42.66752699999998" lon="-2.0214100000000053">
        <ele>422.856</ele>
        <time>2022-08-25T12:48:08Z</time>
      </trkpt>
      <trkpt lat="42.667558999999976" lon="-2.0214260000000053">
        <ele>422.821</ele>
        <time>2022-08-25T12:48:09Z</time>
      </trkpt>
      <trkpt lat="42.66759399999997" lon="-2.0214460000000054">
        <ele>422.809</ele>
        <time>2022-08-25T12:48:10Z</time>
      </trkpt>
      <trkpt lat="42.667632999999974" lon="-2.0214590000000054">
        <ele>423.038</ele>
        <time>2022-08-25T12:48:11Z</time>
      </trkpt>
      <trkpt lat="42.66766999999997" lon="-2.0214730000000056">
        <ele>423.068</ele>
        <time>2022-08-25T12:48:12Z</time>
      </trkpt>
      <trkpt lat="42.66776599999997" lon="-2.0215160000000054">
        <ele>423.288</ele>
        <time>2022-08-25T12:48:15Z</time>
      </trkpt>
      <trkpt lat="42.66779799999997" lon="-2.0215290000000055">
        <ele>423.244</ele>
        <time>2022-08-25T12:48:16Z</time>
      </trkpt>
      <trkpt lat="42.66785799999997" lon="-2.0215550000000055">
        <ele>423.496</ele>
        <time>2022-08-25T12:48:18Z</time>
      </trkpt>
      <trkpt lat="42.66788599999997" lon="-2.0215680000000056">
        <ele>423.423</ele>
        <time>2022-08-25T12:48:19Z</time>
      </trkpt>
      <trkpt lat="42.668176999999964" lon="-2.0217180000000057">
        <ele>423.416</ele>
        <time>2022-08-25T12:48:28Z</time>
      </trkpt>
      <trkpt lat="42.66842299999996" lon="-2.021846000000006">
        <ele>423.462</ele>
        <time>2022-08-25T12:48:35Z</time>
      </trkpt>
      <trkpt lat="42.66845699999996" lon="-2.0218680000000058">
        <ele>423.423</ele>
        <time>2022-08-25T12:48:36Z</time>
      </trkpt>
      <trkpt lat="42.668497999999964" lon="-2.0218960000000057">
        <ele>423.427</ele>
        <time>2022-08-25T12:48:37Z</time>
      </trkpt>
      <trkpt lat="42.66852499999997" lon="-2.021913000000006">
        <ele>423.468</ele>
        <time>2022-08-25T12:48:38Z</time>
      </trkpt>
      <trkpt lat="42.668556999999964" lon="-2.021935000000006">
        <ele>423.414</ele>
        <time>2022-08-25T12:48:39Z</time>
      </trkpt>
      <trkpt lat="42.668787999999964" lon="-2.022076000000006">
        <ele>423.409</ele>
        <time>2022-08-25T12:48:46Z</time>
      </trkpt>
      <trkpt lat="42.668952999999966" lon="-2.022166000000006">
        <ele>423.473</ele>
        <time>2022-08-25T12:48:51Z</time>
      </trkpt>
      <trkpt lat="42.66898299999997" lon="-2.0221860000000063">
        <ele>423.433</ele>
        <time>2022-08-25T12:48:52Z</time>
      </trkpt>
      <trkpt lat="42.66901099999997" lon="-2.022204000000006">
        <ele>423.483</ele>
        <time>2022-08-25T12:48:53Z</time>
      </trkpt>
      <trkpt lat="42.66903699999997" lon="-2.022219000000006">
        <ele>423.429</ele>
        <time>2022-08-25T12:48:54Z</time>
      </trkpt>
      <trkpt lat="42.66910399999997" lon="-2.022256000000006">
        <ele>423.471</ele>
        <time>2022-08-25T12:48:56Z</time>
      </trkpt>
      <trkpt lat="42.66943599999997" lon="-2.022432000000006">
        <ele>423.218</ele>
        <time>2022-08-25T12:49:05Z</time>
      </trkpt>
      <trkpt lat="42.66946299999997" lon="-2.022448000000006">
        <ele>423.261</ele>
        <time>2022-08-25T12:49:06Z</time>
      </trkpt>
      <trkpt lat="42.66949799999997" lon="-2.022469000000006">
        <ele>423.257</ele>
        <time>2022-08-25T12:49:07Z</time>
      </trkpt>
      <trkpt lat="42.66953499999997" lon="-2.022492000000006">
        <ele>423.228</ele>
        <time>2022-08-25T12:49:08Z</time>
      </trkpt>
      <trkpt lat="42.669569999999965" lon="-2.022510000000006">
        <ele>423.084</ele>
        <time>2022-08-25T12:49:09Z</time>
      </trkpt>
      <trkpt lat="42.669670999999965" lon="-2.0225630000000057">
        <ele>423.007</ele>
        <time>2022-08-25T12:49:12Z</time>
      </trkpt>
      <trkpt lat="42.66974299999997" lon="-2.0226000000000055">
        <ele>423.217</ele>
        <time>2022-08-25T12:49:14Z</time>
      </trkpt>
      <trkpt lat="42.66981599999997" lon="-2.0226410000000055">
        <ele>423.209</ele>
        <time>2022-08-25T12:49:16Z</time>
      </trkpt>
      <trkpt lat="42.67008099999997" lon="-2.0227820000000056">
        <ele>423.479</ele>
        <time>2022-08-25T12:49:23Z</time>
      </trkpt>
      <trkpt lat="42.67011699999997" lon="-2.0228010000000056">
        <ele>423.439</ele>
        <time>2022-08-25T12:49:24Z</time>
      </trkpt>
      <trkpt lat="42.67015899999997" lon="-2.0228260000000056">
        <ele>423.489</ele>
        <time>2022-08-25T12:49:25Z</time>
      </trkpt>
      <trkpt lat="42.67021999999997" lon="-2.0228670000000055">
        <ele>423.435</ele>
        <time>2022-08-25T12:49:27Z</time>
      </trkpt>
      <trkpt lat="42.67028999999997" lon="-2.0229340000000056">
        <ele>423.497</ele>
        <time>2022-08-25T12:49:29Z</time>
      </trkpt>
      <trkpt lat="42.67032099999997" lon="-2.0229710000000054">
        <ele>423.434</ele>
        <time>2022-08-25T12:49:30Z</time>
      </trkpt>
      <trkpt lat="42.670347999999976" lon="-2.0230120000000054">
        <ele>423.647</ele>
        <time>2022-08-25T12:49:31Z</time>
      </trkpt>
      <trkpt lat="42.67036599999997" lon="-2.0230470000000054">
        <ele>423.673</ele>
        <time>2022-08-25T12:49:32Z</time>
      </trkpt>
      <trkpt lat="42.67038599999997" lon="-2.0230930000000056">
        <ele>423.654</ele>
        <time>2022-08-25T12:49:33Z</time>
      </trkpt>
      <trkpt lat="42.670418999999974" lon="-2.0231810000000054">
        <ele>423.673</ele>
        <time>2022-08-25T12:49:35Z</time>
      </trkpt>
      <trkpt lat="42.67046199999997" lon="-2.0232630000000054">
        <ele>423.685</ele>
        <time>2022-08-25T12:49:37Z</time>
      </trkpt>
      <trkpt lat="42.67048399999997" lon="-2.023306000000005">
        <ele>423.413</ele>
        <time>2022-08-25T12:49:38Z</time>
      </trkpt>
      <trkpt lat="42.67052699999997" lon="-2.023395000000005">
        <ele>423.409</ele>
        <time>2022-08-25T12:49:40Z</time>
      </trkpt>
      <trkpt lat="42.67054899999997" lon="-2.0234400000000052">
        <ele>423.258</ele>
        <time>2022-08-25T12:49:41Z</time>
      </trkpt>
      <trkpt lat="42.67064999999997" lon="-2.0237240000000054">
        <ele>422.828</ele>
        <time>2022-08-25T12:49:47Z</time>
      </trkpt>
      <trkpt lat="42.670679999999976" lon="-2.0238190000000054">
        <ele>422.868</ele>
        <time>2022-08-25T12:49:49Z</time>
      </trkpt>
      <trkpt lat="42.67070099999997" lon="-2.023862000000005">
        <ele>422.824</ele>
        <time>2022-08-25T12:49:50Z</time>
      </trkpt>
      <trkpt lat="42.670727999999976" lon="-2.023902000000005">
        <ele>422.886</ele>
        <time>2022-08-25T12:49:51Z</time>
      </trkpt>
      <trkpt lat="42.670755999999976" lon="-2.023928000000005">
        <ele>422.823</ele>
        <time>2022-08-25T12:49:52Z</time>
      </trkpt>
      <trkpt lat="42.670792999999975" lon="-2.023950000000005">
        <ele>422.876</ele>
        <time>2022-08-25T12:49:53Z</time>
      </trkpt>
      <trkpt lat="42.67082499999997" lon="-2.023968000000005">
        <ele>422.812</ele>
        <time>2022-08-25T12:49:54Z</time>
      </trkpt>
      <trkpt lat="42.67085399999997" lon="-2.023988000000005">
        <ele>422.873</ele>
        <time>2022-08-25T12:49:55Z</time>
      </trkpt>
      <trkpt lat="42.67089399999997" lon="-2.024051000000005">
        <ele>423.094</ele>
        <time>2022-08-25T12:49:57Z</time>
      </trkpt>
      <trkpt lat="42.67089999999997" lon="-2.024098000000005">
        <ele>422.657</ele>
        <time>2022-08-25T12:49:58Z</time>
      </trkpt>
      <trkpt lat="42.67087399999997" lon="-2.024238000000005">
        <ele>422.622</ele>
        <time>2022-08-25T12:50:01Z</time>
      </trkpt>
      <trkpt lat="42.67085299999997" lon="-2.024277000000005">
        <ele>422.809</ele>
        <time>2022-08-25T12:50:02Z</time>
      </trkpt>
      <trkpt lat="42.67082499999997" lon="-2.024308000000005">
        <ele>422.850</ele>
        <time>2022-08-25T12:50:03Z</time>
      </trkpt>
      <trkpt lat="42.670792999999975" lon="-2.024337000000005">
        <ele>422.840</ele>
        <time>2022-08-25T12:50:04Z</time>
      </trkpt>
      <trkpt lat="42.67076299999997" lon="-2.024364000000005">
        <ele>422.840</ele>
        <time>2022-08-25T12:50:05Z</time>
      </trkpt>
      <trkpt lat="42.670736999999974" lon="-2.024395000000005">
        <ele>422.876</ele>
        <time>2022-08-25T12:50:06Z</time>
      </trkpt>
      <trkpt lat="42.670696999999976" lon="-2.0244790000000052">
        <ele>422.838</ele>
        <time>2022-08-25T12:50:08Z</time>
      </trkpt>
      <trkpt lat="42.67068999999998" lon="-2.0245300000000053">
        <ele>422.835</ele>
        <time>2022-08-25T12:50:09Z</time>
      </trkpt>
      <trkpt lat="42.67069499999998" lon="-2.0245760000000055">
        <ele>422.828</ele>
        <time>2022-08-25T12:50:10Z</time>
      </trkpt>
      <trkpt lat="42.67069799999998" lon="-2.0246200000000054">
        <ele>422.814</ele>
        <time>2022-08-25T12:50:11Z</time>
      </trkpt>
      <trkpt lat="42.67070499999998" lon="-2.0246600000000052">
        <ele>422.895</ele>
        <time>2022-08-25T12:50:12Z</time>
      </trkpt>
      <trkpt lat="42.67071299999998" lon="-2.0246990000000054">
        <ele>422.881</ele>
        <time>2022-08-25T12:50:13Z</time>
      </trkpt>
      <trkpt lat="42.67071799999998" lon="-2.024736000000005">
        <ele>422.661</ele>
        <time>2022-08-25T12:50:14Z</time>
      </trkpt>
      <trkpt lat="42.67071899999998" lon="-2.024776000000005">
        <ele>422.617</ele>
        <time>2022-08-25T12:50:15Z</time>
      </trkpt>
      <trkpt lat="42.67071499999998" lon="-2.0248030000000052">
        <ele>422.409</ele>
        <time>2022-08-25T12:50:16Z</time>
      </trkpt>
      <trkpt lat="42.67070999999998" lon="-2.0248220000000052">
        <ele>422.449</ele>
        <time>2022-08-25T12:50:17Z</time>
      </trkpt>
      <trkpt lat="42.67070499999998" lon="-2.024840000000005">
        <ele>422.439</ele>
        <time>2022-08-25T12:50:18Z</time>
      </trkpt>
      <trkpt lat="42.67071499999998" lon="-2.024945000000005">
        <ele>422.299</ele>
        <time>2022-08-25T12:50:21Z</time>
      </trkpt>
      <trkpt lat="42.67071399999998" lon="-2.024980000000005">
        <ele>422.235</ele>
        <time>2022-08-25T12:50:22Z</time>
      </trkpt>
      <trkpt lat="42.67070599999998" lon="-2.025057000000005">
        <ele>422.047</ele>
        <time>2022-08-25T12:50:24Z</time>
      </trkpt>
      <trkpt lat="42.670673999999984" lon="-2.025183000000005">
        <ele>421.854</ele>
        <time>2022-08-25T12:50:27Z</time>
      </trkpt>
      <trkpt lat="42.670659999999984" lon="-2.025292000000005">
        <ele>421.857</ele>
        <time>2022-08-25T12:50:29Z</time>
      </trkpt>
      <trkpt lat="42.67065799999998" lon="-2.025402000000005">
        <ele>422.023</ele>
        <time>2022-08-25T12:50:31Z</time>
      </trkpt>
      <trkpt lat="42.67064499999998" lon="-2.025468000000005">
        <ele>422.034</ele>
        <time>2022-08-25T12:50:32Z</time>
      </trkpt>
      <trkpt lat="42.67065099999998" lon="-2.025528000000005">
        <ele>422.048</ele>
        <time>2022-08-25T12:50:33Z</time>
      </trkpt>
      <trkpt lat="42.670651999999976" lon="-2.025585000000005">
        <ele>422.061</ele>
        <time>2022-08-25T12:50:34Z</time>
      </trkpt>
      <trkpt lat="42.670651999999976" lon="-2.0256410000000047">
        <ele>422.017</ele>
        <time>2022-08-25T12:50:35Z</time>
      </trkpt>
      <trkpt lat="42.67065699999998" lon="-2.0256910000000046">
        <ele>422.009</ele>
        <time>2022-08-25T12:50:36Z</time>
      </trkpt>
      <trkpt lat="42.67065099999998" lon="-2.0257380000000045">
        <ele>422.255</ele>
        <time>2022-08-25T12:50:37Z</time>
      </trkpt>
      <trkpt lat="42.67064599999998" lon="-2.0257790000000044">
        <ele>422.495</ele>
        <time>2022-08-25T12:50:38Z</time>
      </trkpt>
      <trkpt lat="42.67063999999998" lon="-2.0258150000000046">
        <ele>422.485</ele>
        <time>2022-08-25T12:50:39Z</time>
      </trkpt>
      <trkpt lat="42.67064199999998" lon="-2.0258380000000047">
        <ele>422.641</ele>
        <time>2022-08-25T12:50:40Z</time>
      </trkpt>
      <trkpt lat="42.67064999999998" lon="-2.025858000000005">
        <ele>422.643</ele>
        <time>2022-08-25T12:50:41Z</time>
      </trkpt>
      <trkpt lat="42.67066599999998" lon="-2.025906000000005">
        <ele>422.880</ele>
        <time>2022-08-25T12:50:43Z</time>
      </trkpt>
      <trkpt lat="42.67066999999998" lon="-2.0259400000000047">
        <ele>422.863</ele>
        <time>2022-08-25T12:50:44Z</time>
      </trkpt>
      <trkpt lat="42.67067199999998" lon="-2.0259810000000047">
        <ele>422.839</ele>
        <time>2022-08-25T12:50:45Z</time>
      </trkpt>
      <trkpt lat="42.670681999999985" lon="-2.0260570000000047">
        <ele>423.030</ele>
        <time>2022-08-25T12:50:47Z</time>
      </trkpt>
      <trkpt lat="42.670692999999986" lon="-2.0261010000000046">
        <ele>423.075</ele>
        <time>2022-08-25T12:50:48Z</time>
      </trkpt>
      <trkpt lat="42.670698999999985" lon="-2.0261610000000045">
        <ele>423.228</ele>
        <time>2022-08-25T12:50:49Z</time>
      </trkpt>
      <trkpt lat="42.670709999999985" lon="-2.0262220000000046">
        <ele>423.420</ele>
        <time>2022-08-25T12:50:50Z</time>
      </trkpt>
      <trkpt lat="42.67070799999998" lon="-2.0262780000000045">
        <ele>423.409</ele>
        <time>2022-08-25T12:50:51Z</time>
      </trkpt>
      <trkpt lat="42.670687999999984" lon="-2.0263330000000046">
        <ele>423.618</ele>
        <time>2022-08-25T12:50:52Z</time>
      </trkpt>
      <trkpt lat="42.67067499999998" lon="-2.0263900000000046">
        <ele>423.688</ele>
        <time>2022-08-25T12:50:53Z</time>
      </trkpt>
      <trkpt lat="42.67066699999998" lon="-2.0264460000000044">
        <ele>423.658</ele>
        <time>2022-08-25T12:50:54Z</time>
      </trkpt>
      <trkpt lat="42.67065299999998" lon="-2.0265570000000044">
        <ele>423.684</ele>
        <time>2022-08-25T12:50:56Z</time>
      </trkpt>
      <trkpt lat="42.67064099999998" lon="-2.0266140000000044">
        <ele>423.616</ele>
        <time>2022-08-25T12:50:57Z</time>
      </trkpt>
      <trkpt lat="42.67062499999998" lon="-2.0266850000000045">
        <ele>423.673</ele>
        <time>2022-08-25T12:50:58Z</time>
      </trkpt>
      <trkpt lat="42.67064399999998" lon="-2.0268940000000044">
        <ele>423.476</ele>
        <time>2022-08-25T12:51:01Z</time>
      </trkpt>
      <trkpt lat="42.67065099999998" lon="-2.0269600000000043">
        <ele>423.232</ele>
        <time>2022-08-25T12:51:02Z</time>
      </trkpt>
      <trkpt lat="42.67064699999998" lon="-2.027019000000004">
        <ele>423.283</ele>
        <time>2022-08-25T12:51:03Z</time>
      </trkpt>
      <trkpt lat="42.67062999999998" lon="-2.027064000000004">
        <ele>423.242</ele>
        <time>2022-08-25T12:51:04Z</time>
      </trkpt>
      <trkpt lat="42.670597999999984" lon="-2.027126000000004">
        <ele>423.222</ele>
        <time>2022-08-25T12:51:06Z</time>
      </trkpt>
      <trkpt lat="42.67059599999998" lon="-2.027141000000004">
        <ele>423.214</ele>
        <time>2022-08-25T12:51:07Z</time>
      </trkpt>
      <trkpt lat="42.67059899999998" lon="-2.027161000000004">
        <ele>423.209</ele>
        <time>2022-08-25T12:51:08Z</time>
      </trkpt>
      <trkpt lat="42.67061099999998" lon="-2.027221000000004">
        <ele>423.055</ele>
        <time>2022-08-25T12:51:09Z</time>
      </trkpt>
      <trkpt lat="42.67062799999998" lon="-2.027273000000004">
        <ele>423.045</ele>
        <time>2022-08-25T12:51:10Z</time>
      </trkpt>
      <trkpt lat="42.67064199999998" lon="-2.027327000000004">
        <ele>423.235</ele>
        <time>2022-08-25T12:51:11Z</time>
      </trkpt>
      <trkpt lat="42.67065299999998" lon="-2.027381000000004">
        <ele>423.221</ele>
        <time>2022-08-25T12:51:12Z</time>
      </trkpt>
      <trkpt lat="42.67065899999998" lon="-2.0275160000000043">
        <ele>423.253</ele>
        <time>2022-08-25T12:51:16Z</time>
      </trkpt>
      <trkpt lat="42.67063799999998" lon="-2.027553000000004">
        <ele>423.240</ele>
        <time>2022-08-25T12:51:17Z</time>
      </trkpt>
      <trkpt lat="42.670616999999986" lon="-2.0275790000000042">
        <ele>423.273</ele>
        <time>2022-08-25T12:51:18Z</time>
      </trkpt>
      <trkpt lat="42.67059399999999" lon="-2.0276150000000044">
        <ele>423.259</ele>
        <time>2022-08-25T12:51:19Z</time>
      </trkpt>
      <trkpt lat="42.67058799999999" lon="-2.0276410000000045">
        <ele>423.250</ele>
        <time>2022-08-25T12:51:20Z</time>
      </trkpt>
      <trkpt lat="42.670591999999985" lon="-2.0276770000000046">
        <ele>423.435</ele>
        <time>2022-08-25T12:51:21Z</time>
      </trkpt>
      <trkpt lat="42.670594999999985" lon="-2.0276870000000047">
        <ele>423.486</ele>
        <time>2022-08-25T12:51:22Z</time>
      </trkpt>
      <trkpt lat="42.67058699999998" lon="-2.0277110000000045">
        <ele>423.614</ele>
        <time>2022-08-25T12:51:23Z</time>
      </trkpt>
      <trkpt lat="42.67057099999998" lon="-2.0277450000000043">
        <ele>423.809</ele>
        <time>2022-08-25T12:51:24Z</time>
      </trkpt>
      <trkpt lat="42.67056599999998" lon="-2.027801000000004">
        <ele>424.024</ele>
        <time>2022-08-25T12:51:25Z</time>
      </trkpt>
      <trkpt lat="42.67057799999998" lon="-2.0278590000000043">
        <ele>424.074</ele>
        <time>2022-08-25T12:51:26Z</time>
      </trkpt>
      <trkpt lat="42.67058599999998" lon="-2.0279190000000042">
        <ele>424.034</ele>
        <time>2022-08-25T12:51:27Z</time>
      </trkpt>
      <trkpt lat="42.67059799999998" lon="-2.027976000000004">
        <ele>424.080</ele>
        <time>2022-08-25T12:51:28Z</time>
      </trkpt>
      <trkpt lat="42.670601999999974" lon="-2.0280280000000044">
        <ele>424.212</ele>
        <time>2022-08-25T12:51:29Z</time>
      </trkpt>
      <trkpt lat="42.670601999999974" lon="-2.0280600000000044">
        <ele>424.239</ele>
        <time>2022-08-25T12:51:30Z</time>
      </trkpt>
      <trkpt lat="42.670601999999974" lon="-2.0280990000000045">
        <ele>424.452</ele>
        <time>2022-08-25T12:51:31Z</time>
      </trkpt>
      <trkpt lat="42.670603999999976" lon="-2.0281600000000046">
        <ele>424.428</ele>
        <time>2022-08-25T12:51:32Z</time>
      </trkpt>
      <trkpt lat="42.670617999999976" lon="-2.0282070000000045">
        <ele>424.889</ele>
        <time>2022-08-25T12:51:33Z</time>
      </trkpt>
      <trkpt lat="42.67062499999997" lon="-2.0282370000000047">
        <ele>424.886</ele>
        <time>2022-08-25T12:51:34Z</time>
      </trkpt>
      <trkpt lat="42.670620999999976" lon="-2.0282810000000047">
        <ele>425.060</ele>
        <time>2022-08-25T12:51:35Z</time>
      </trkpt>
      <trkpt lat="42.67058599999998" lon="-2.0283860000000047">
        <ele>425.426</ele>
        <time>2022-08-25T12:51:37Z</time>
      </trkpt>
      <trkpt lat="42.670606999999976" lon="-2.028432000000005">
        <ele>425.609</ele>
        <time>2022-08-25T12:51:38Z</time>
      </trkpt>
      <trkpt lat="42.670713999999975" lon="-2.028591000000005">
        <ele>425.869</ele>
        <time>2022-08-25T12:51:43Z</time>
      </trkpt>
      <trkpt lat="42.670789999999975" lon="-2.0287360000000048">
        <ele>425.879</ele>
        <time>2022-08-25T12:51:48Z</time>
      </trkpt>
      <trkpt lat="42.67079799999998" lon="-2.0287740000000047">
        <ele>425.669</ele>
        <time>2022-08-25T12:51:49Z</time>
      </trkpt>
      <trkpt lat="42.670806999999975" lon="-2.0288780000000046">
        <ele>425.465</ele>
        <time>2022-08-25T12:51:51Z</time>
      </trkpt>
      <trkpt lat="42.67081399999997" lon="-2.0289360000000047">
        <ele>424.827</ele>
        <time>2022-08-25T12:51:52Z</time>
      </trkpt>
      <trkpt lat="42.670815999999974" lon="-2.028988000000005">
        <ele>424.884</ele>
        <time>2022-08-25T12:51:53Z</time>
      </trkpt>
      <trkpt lat="42.67083899999997" lon="-2.029109000000005">
        <ele>424.627</ele>
        <time>2022-08-25T12:51:55Z</time>
      </trkpt>
      <trkpt lat="42.67085599999997" lon="-2.029167000000005">
        <ele>424.463</ele>
        <time>2022-08-25T12:51:56Z</time>
      </trkpt>
      <trkpt lat="42.67087299999997" lon="-2.029228000000005">
        <ele>424.214</ele>
        <time>2022-08-25T12:51:57Z</time>
      </trkpt>
      <trkpt lat="42.67089099999997" lon="-2.029292000000005">
        <ele>424.253</ele>
        <time>2022-08-25T12:51:58Z</time>
      </trkpt>
      <trkpt lat="42.67087999999997" lon="-2.0293340000000053">
        <ele>423.804</ele>
        <time>2022-08-25T12:51:59Z</time>
      </trkpt>
      <trkpt lat="42.670846999999966" lon="-2.0293970000000052">
        <ele>423.414</ele>
        <time>2022-08-25T12:52:00Z</time>
      </trkpt>
      <trkpt lat="42.67082699999997" lon="-2.0294990000000053">
        <ele>423.409</ele>
        <time>2022-08-25T12:52:01Z</time>
      </trkpt>
      <trkpt lat="42.67082599999997" lon="-2.029511000000005">
        <ele>423.286</ele>
        <time>2022-08-25T12:52:02Z</time>
      </trkpt>
      <trkpt lat="42.67082599999997" lon="-2.029511000000005">
        <ele>423.236</ele>
        <time>2022-08-25T12:52:03Z</time>
      </trkpt>
      <trkpt lat="42.67084399999997" lon="-2.029565000000005">
        <ele>423.036</ele>
        <time>2022-08-25T12:52:05Z</time>
      </trkpt>
      <trkpt lat="42.67085399999997" lon="-2.0296100000000052">
        <ele>422.842</ele>
        <time>2022-08-25T12:52:06Z</time>
      </trkpt>
      <trkpt lat="42.67085899999997" lon="-2.0296550000000053">
        <ele>422.674</ele>
        <time>2022-08-25T12:52:07Z</time>
      </trkpt>
      <trkpt lat="42.670860999999974" lon="-2.0297060000000053">
        <ele>422.631</ele>
        <time>2022-08-25T12:52:08Z</time>
      </trkpt>
      <trkpt lat="42.67087299999997" lon="-2.029743000000005">
        <ele>422.674</ele>
        <time>2022-08-25T12:52:09Z</time>
      </trkpt>
      <trkpt lat="42.67088999999997" lon="-2.0297910000000052">
        <ele>422.610</ele>
        <time>2022-08-25T12:52:10Z</time>
      </trkpt>
      <trkpt lat="42.67090499999997" lon="-2.0298360000000053">
        <ele>422.631</ele>
        <time>2022-08-25T12:52:11Z</time>
      </trkpt>
      <trkpt lat="42.67097399999997" lon="-2.0300790000000055">
        <ele>422.633</ele>
        <time>2022-08-25T12:52:14Z</time>
      </trkpt>
      <trkpt lat="42.67105699999997" lon="-2.0302420000000057">
        <ele>422.823</ele>
        <time>2022-08-25T12:52:17Z</time>
      </trkpt>
      <trkpt lat="42.67107399999997" lon="-2.0303020000000056">
        <ele>422.815</ele>
        <time>2022-08-25T12:52:18Z</time>
      </trkpt>
      <trkpt lat="42.671074999999966" lon="-2.0303240000000056">
        <ele>422.809</ele>
        <time>2022-08-25T12:52:19Z</time>
      </trkpt>
      <trkpt lat="42.671091999999966" lon="-2.0303550000000055">
        <ele>423.054</ele>
        <time>2022-08-25T12:52:20Z</time>
      </trkpt>
      <trkpt lat="42.67112399999996" lon="-2.0303880000000056">
        <ele>423.024</ele>
        <time>2022-08-25T12:52:21Z</time>
      </trkpt>
      <trkpt lat="42.67113399999997" lon="-2.0304270000000058">
        <ele>423.234</ele>
        <time>2022-08-25T12:52:22Z</time>
      </trkpt>
      <trkpt lat="42.671131999999965" lon="-2.0304840000000057">
        <ele>423.440</ele>
        <time>2022-08-25T12:52:23Z</time>
      </trkpt>
      <trkpt lat="42.671137999999964" lon="-2.0305510000000058">
        <ele>423.482</ele>
        <time>2022-08-25T12:52:24Z</time>
      </trkpt>
      <trkpt lat="42.67117299999996" lon="-2.0306080000000057">
        <ele>423.499</ele>
        <time>2022-08-25T12:52:25Z</time>
      </trkpt>
      <trkpt lat="42.67119099999996" lon="-2.0306480000000056">
        <ele>423.412</ele>
        <time>2022-08-25T12:52:26Z</time>
      </trkpt>
      <trkpt lat="42.67119599999996" lon="-2.0307600000000057">
        <ele>423.428</ele>
        <time>2022-08-25T12:52:29Z</time>
      </trkpt>
      <trkpt lat="42.67122299999996" lon="-2.0308030000000055">
        <ele>423.669</ele>
        <time>2022-08-25T12:52:30Z</time>
      </trkpt>
      <trkpt lat="42.67125699999996" lon="-2.0308240000000053">
        <ele>423.695</ele>
        <time>2022-08-25T12:52:31Z</time>
      </trkpt>
      <trkpt lat="42.67132699999996" lon="-2.0309200000000054">
        <ele>423.649</ele>
        <time>2022-08-25T12:52:33Z</time>
      </trkpt>
      <trkpt lat="42.67134399999996" lon="-2.0309500000000056">
        <ele>423.623</ele>
        <time>2022-08-25T12:52:34Z</time>
      </trkpt>
      <trkpt lat="42.671353999999965" lon="-2.0309850000000056">
        <ele>423.609</ele>
        <time>2022-08-25T12:52:35Z</time>
      </trkpt>
      <trkpt lat="42.67136099999996" lon="-2.0309970000000055">
        <ele>423.660</ele>
        <time>2022-08-25T12:52:36Z</time>
      </trkpt>
      <trkpt lat="42.67135899999996" lon="-2.0310040000000056">
        <ele>423.640</ele>
        <time>2022-08-25T12:52:37Z</time>
      </trkpt>
      <trkpt lat="42.67135199999996" lon="-2.0310570000000054">
        <ele>423.870</ele>
        <time>2022-08-25T12:52:39Z</time>
      </trkpt>
      <trkpt lat="42.671342999999965" lon="-2.0310910000000053">
        <ele>423.886</ele>
        <time>2022-08-25T12:52:40Z</time>
      </trkpt>
      <trkpt lat="42.67133799999996" lon="-2.0311210000000055">
        <ele>424.038</ele>
        <time>2022-08-25T12:52:41Z</time>
      </trkpt>
      <trkpt lat="42.671362999999964" lon="-2.0311980000000056">
        <ele>424.265</ele>
        <time>2022-08-25T12:52:43Z</time>
      </trkpt>
      <trkpt lat="42.67136599999996" lon="-2.0312390000000056">
        <ele>424.268</ele>
        <time>2022-08-25T12:52:44Z</time>
      </trkpt>
      <trkpt lat="42.67137599999997" lon="-2.0312810000000057">
        <ele>424.274</ele>
        <time>2022-08-25T12:52:45Z</time>
      </trkpt>
      <trkpt lat="42.67140099999997" lon="-2.0313370000000055">
        <ele>424.235</ele>
        <time>2022-08-25T12:52:46Z</time>
      </trkpt>
      <trkpt lat="42.67142599999997" lon="-2.0313810000000054">
        <ele>424.249</ele>
        <time>2022-08-25T12:52:47Z</time>
      </trkpt>
      <trkpt lat="42.67143999999997" lon="-2.0314220000000054">
        <ele>424.402</ele>
        <time>2022-08-25T12:52:48Z</time>
      </trkpt>
      <trkpt lat="42.67144199999997" lon="-2.0314520000000056">
        <ele>424.422</ele>
        <time>2022-08-25T12:52:49Z</time>
      </trkpt>
      <trkpt lat="42.67144399999997" lon="-2.0314560000000057">
        <ele>424.409</ele>
        <time>2022-08-25T12:52:50Z</time>
      </trkpt>
      <trkpt lat="42.67144399999997" lon="-2.0314650000000056">
        <ele>424.455</ele>
        <time>2022-08-25T12:52:51Z</time>
      </trkpt>
      <trkpt lat="42.67144999999997" lon="-2.0314740000000056">
        <ele>424.435</ele>
        <time>2022-08-25T12:52:52Z</time>
      </trkpt>
      <trkpt lat="42.67145499999997" lon="-2.0314920000000054">
        <ele>424.485</ele>
        <time>2022-08-25T12:52:53Z</time>
      </trkpt>
      <trkpt lat="42.671464999999976" lon="-2.0315450000000053">
        <ele>424.471</ele>
        <time>2022-08-25T12:52:55Z</time>
      </trkpt>
      <trkpt lat="42.67148599999997" lon="-2.0316540000000054">
        <ele>424.683</ele>
        <time>2022-08-25T12:52:58Z</time>
      </trkpt>
      <trkpt lat="42.671510999999974" lon="-2.0317010000000053">
        <ele>424.890</ele>
        <time>2022-08-25T12:52:59Z</time>
      </trkpt>
      <trkpt lat="42.671527999999974" lon="-2.0317420000000053">
        <ele>424.863</ele>
        <time>2022-08-25T12:53:00Z</time>
      </trkpt>
      <trkpt lat="42.67153499999997" lon="-2.031786000000005">
        <ele>424.839</ele>
        <time>2022-08-25T12:53:01Z</time>
      </trkpt>
      <trkpt lat="42.67153599999997" lon="-2.0318340000000052">
        <ele>424.870</ele>
        <time>2022-08-25T12:53:02Z</time>
      </trkpt>
      <trkpt lat="42.67155499999997" lon="-2.031919000000005">
        <ele>424.815</ele>
        <time>2022-08-25T12:53:03Z</time>
      </trkpt>
      <trkpt lat="42.67157799999997" lon="-2.0319800000000052">
        <ele>425.065</ele>
        <time>2022-08-25T12:53:04Z</time>
      </trkpt>
      <trkpt lat="42.67157699999997" lon="-2.032024000000005">
        <ele>425.011</ele>
        <time>2022-08-25T12:53:05Z</time>
      </trkpt>
      <trkpt lat="42.67156499999997" lon="-2.032052000000005">
        <ele>425.009</ele>
        <time>2022-08-25T12:53:06Z</time>
      </trkpt>
      <trkpt lat="42.671355999999975" lon="-2.032175000000005">
        <ele>424.622</ele>
        <time>2022-08-25T12:53:11Z</time>
      </trkpt>
      <trkpt lat="42.67132399999998" lon="-2.032184000000005">
        <ele>424.862</ele>
        <time>2022-08-25T12:53:12Z</time>
      </trkpt>
      <trkpt lat="42.67129199999998" lon="-2.032194000000005">
        <ele>424.832</ele>
        <time>2022-08-25T12:53:13Z</time>
      </trkpt>
      <trkpt lat="42.67128999999998" lon="-2.032220000000005">
        <ele>424.818</ele>
        <time>2022-08-25T12:53:14Z</time>
      </trkpt>
      <trkpt lat="42.671298999999976" lon="-2.032251000000005">
        <ele>424.810</ele>
        <time>2022-08-25T12:53:15Z</time>
      </trkpt>
      <trkpt lat="42.671296999999974" lon="-2.032257000000005">
        <ele>424.667</ele>
        <time>2022-08-25T12:53:16Z</time>
      </trkpt>
      <trkpt lat="42.671296999999974" lon="-2.0322690000000048">
        <ele>424.650</ele>
        <time>2022-08-25T12:53:17Z</time>
      </trkpt>
      <trkpt lat="42.67125899999997" lon="-2.0323040000000048">
        <ele>424.676</ele>
        <time>2022-08-25T12:53:20Z</time>
      </trkpt>
      <trkpt lat="42.67112399999997" lon="-2.0324020000000047">
        <ele>424.267</ele>
        <time>2022-08-25T12:53:25Z</time>
      </trkpt>
      <trkpt lat="42.67106899999997" lon="-2.0324430000000047">
        <ele>424.283</ele>
        <time>2022-08-25T12:53:27Z</time>
      </trkpt>
      <trkpt lat="42.67100699999997" lon="-2.0324770000000045">
        <ele>424.225</ele>
        <time>2022-08-25T12:53:29Z</time>
      </trkpt>
      <trkpt lat="42.67098099999997" lon="-2.0324960000000045">
        <ele>424.417</ele>
        <time>2022-08-25T12:53:30Z</time>
      </trkpt>
      <trkpt lat="42.67095599999997" lon="-2.0325150000000045">
        <ele>424.209</ele>
        <time>2022-08-25T12:53:31Z</time>
      </trkpt>
      <trkpt lat="42.67085699999997" lon="-2.0325970000000044">
        <ele>424.469</ele>
        <time>2022-08-25T12:53:35Z</time>
      </trkpt>
      <trkpt lat="42.67083499999997" lon="-2.0326190000000044">
        <ele>424.469</ele>
        <time>2022-08-25T12:53:36Z</time>
      </trkpt>
      <trkpt lat="42.67082099999997" lon="-2.0326370000000042">
        <ele>424.429</ele>
        <time>2022-08-25T12:53:37Z</time>
      </trkpt>
      <trkpt lat="42.670804999999966" lon="-2.032655000000004">
        <ele>424.455</ele>
        <time>2022-08-25T12:53:38Z</time>
      </trkpt>
      <trkpt lat="42.67078699999997" lon="-2.032668000000004">
        <ele>424.417</ele>
        <time>2022-08-25T12:53:39Z</time>
      </trkpt>
      <trkpt lat="42.670745999999966" lon="-2.032696000000004">
        <ele>424.674</ele>
        <time>2022-08-25T12:53:41Z</time>
      </trkpt>
      <trkpt lat="42.67072299999997" lon="-2.032709000000004">
        <ele>424.677</ele>
        <time>2022-08-25T12:53:42Z</time>
      </trkpt>
      <trkpt lat="42.67069999999997" lon="-2.0327230000000043">
        <ele>424.643</ele>
        <time>2022-08-25T12:53:43Z</time>
      </trkpt>
      <trkpt lat="42.670624999999966" lon="-2.0327720000000045">
        <ele>424.634</ele>
        <time>2022-08-25T12:53:46Z</time>
      </trkpt>
      <trkpt lat="42.670596999999965" lon="-2.0327830000000047">
        <ele>424.878</ele>
        <time>2022-08-25T12:53:47Z</time>
      </trkpt>
      <trkpt lat="42.67056699999996" lon="-2.0327990000000047">
        <ele>424.833</ele>
        <time>2022-08-25T12:53:48Z</time>
      </trkpt>
      <trkpt lat="42.67054199999996" lon="-2.0328140000000046">
        <ele>424.826</ele>
        <time>2022-08-25T12:53:49Z</time>
      </trkpt>
      <trkpt lat="42.67051699999996" lon="-2.0328280000000047">
        <ele>424.809</ele>
        <time>2022-08-25T12:53:50Z</time>
      </trkpt>
      <trkpt lat="42.67042799999996" lon="-2.032876000000005">
        <ele>424.638</ele>
        <time>2022-08-25T12:53:53Z</time>
      </trkpt>
      <trkpt lat="42.67039699999996" lon="-2.0329230000000047">
        <ele>424.638</ele>
        <time>2022-08-25T12:53:55Z</time>
      </trkpt>
      <trkpt lat="42.67039999999996" lon="-2.032953000000005">
        <ele>424.838</ele>
        <time>2022-08-25T12:53:56Z</time>
      </trkpt>
      <trkpt lat="42.67040499999996" lon="-2.032984000000005">
        <ele>424.864</ele>
        <time>2022-08-25T12:53:57Z</time>
      </trkpt>
      <trkpt lat="42.67040799999996" lon="-2.033014000000005">
        <ele>424.886</ele>
        <time>2022-08-25T12:53:58Z</time>
      </trkpt>
      <trkpt lat="42.67040899999996" lon="-2.033043000000005">
        <ele>425.043</ele>
        <time>2022-08-25T12:53:59Z</time>
      </trkpt>
      <trkpt lat="42.67040799999996" lon="-2.033069000000005">
        <ele>425.066</ele>
        <time>2022-08-25T12:54:00Z</time>
      </trkpt>
      <trkpt lat="42.67040799999996" lon="-2.033093000000005">
        <ele>425.042</ele>
        <time>2022-08-25T12:54:01Z</time>
      </trkpt>
      <trkpt lat="42.67040999999996" lon="-2.033126000000005">
        <ele>424.873</ele>
        <time>2022-08-25T12:54:02Z</time>
      </trkpt>
      <trkpt lat="42.67041499999996" lon="-2.0331590000000053">
        <ele>424.874</ele>
        <time>2022-08-25T12:54:03Z</time>
      </trkpt>
      <trkpt lat="42.67041599999996" lon="-2.0332160000000052">
        <ele>424.856</ele>
        <time>2022-08-25T12:54:05Z</time>
      </trkpt>
      <trkpt lat="42.67042699999996" lon="-2.0332360000000054">
        <ele>424.821</ele>
        <time>2022-08-25T12:54:06Z</time>
      </trkpt>
      <trkpt lat="42.67043299999996" lon="-2.0332530000000055">
        <ele>425.009</ele>
        <time>2022-08-25T12:54:07Z</time>
      </trkpt>
      <trkpt lat="42.67044199999996" lon="-2.0332730000000057">
        <ele>425.068</ele>
        <time>2022-08-25T12:54:08Z</time>
      </trkpt>
      <trkpt lat="42.67043699999996" lon="-2.0332890000000057">
        <ele>424.878</ele>
        <time>2022-08-25T12:54:09Z</time>
      </trkpt>
      <trkpt lat="42.67043099999996" lon="-2.033309000000006">
        <ele>424.888</ele>
        <time>2022-08-25T12:54:10Z</time>
      </trkpt>
      <trkpt lat="42.67043099999996" lon="-2.033326000000006">
        <ele>424.884</ele>
        <time>2022-08-25T12:54:11Z</time>
      </trkpt>
      <trkpt lat="42.67042399999996" lon="-2.033341000000006">
        <ele>425.066</ele>
        <time>2022-08-25T12:54:12Z</time>
      </trkpt>
      <trkpt lat="42.67041899999996" lon="-2.033360000000006">
        <ele>425.023</ele>
        <time>2022-08-25T12:54:13Z</time>
      </trkpt>
      <trkpt lat="42.67041699999996" lon="-2.033374000000006">
        <ele>425.076</ele>
        <time>2022-08-25T12:54:14Z</time>
      </trkpt>
      <trkpt lat="42.67041099999996" lon="-2.033387000000006">
        <ele>425.012</ele>
        <time>2022-08-25T12:54:17Z</time>
      </trkpt>
      <trkpt lat="42.67041099999996" lon="-2.033387000000006">
        <ele>425.033</ele>
        <time>2022-08-25T12:54:18Z</time>
      </trkpt>
      <trkpt lat="42.67041299999996" lon="-2.033387000000006">
        <ele>424.473</ele>
        <time>2022-08-25T12:54:52Z</time>
      </trkpt>
      <trkpt lat="42.67041399999996" lon="-2.033357000000006">
        <ele>424.485</ele>
        <time>2022-08-25T12:54:54Z</time>
      </trkpt>
      <trkpt lat="42.670414999999956" lon="-2.0333270000000057">
        <ele>424.413</ele>
        <time>2022-08-25T12:54:56Z</time>
      </trkpt>
      <trkpt lat="42.67041699999996" lon="-2.033319000000006">
        <ele>424.409</ele>
        <time>2022-08-25T12:54:57Z</time>
      </trkpt>
      <trkpt lat="42.67041699999996" lon="-2.033319000000006">
        <ele>424.418</ele>
        <time>2022-08-25T12:54:58Z</time>
      </trkpt>
      <trkpt lat="42.670414999999956" lon="-2.033303000000006">
        <ele>424.468</ele>
        <time>2022-08-25T12:55:00Z</time>
      </trkpt>
      <trkpt lat="42.67041399999996" lon="-2.033288000000006">
        <ele>424.448</ele>
        <time>2022-08-25T12:55:01Z</time>
      </trkpt>
      <trkpt lat="42.67040899999996" lon="-2.033258000000006">
        <ele>424.484</ele>
        <time>2022-08-25T12:55:03Z</time>
      </trkpt>
      <trkpt lat="42.67040599999996" lon="-2.0332410000000056">
        <ele>424.446</ele>
        <time>2022-08-25T12:55:04Z</time>
      </trkpt>
      <trkpt lat="42.67040299999996" lon="-2.0332310000000056">
        <ele>424.443</ele>
        <time>2022-08-25T12:55:05Z</time>
      </trkpt>
      <trkpt lat="42.67039599999996" lon="-2.0332280000000056">
        <ele>424.486</ele>
        <time>2022-08-25T12:55:06Z</time>
      </trkpt>
      <trkpt lat="42.67039299999996" lon="-2.0332250000000056">
        <ele>424.442</ele>
        <time>2022-08-25T12:55:07Z</time>
      </trkpt>
      <trkpt lat="42.67039299999996" lon="-2.0332230000000058">
        <ele>424.433</ele>
        <time>2022-08-25T12:55:08Z</time>
      </trkpt>
      <trkpt lat="42.67039299999996" lon="-2.0332230000000058">
        <ele>424.477</ele>
        <time>2022-08-25T12:55:09Z</time>
      </trkpt>
      <trkpt lat="42.670394999999964" lon="-2.0332190000000057">
        <ele>424.661</ele>
        <time>2022-08-25T12:55:14Z</time>
      </trkpt>
      <trkpt lat="42.670394999999964" lon="-2.033220000000006">
        <ele>424.627</ele>
        <time>2022-08-25T12:55:15Z</time>
      </trkpt>
      <trkpt lat="42.670396999999966" lon="-2.033224000000006">
        <ele>424.609</ele>
        <time>2022-08-25T12:55:16Z</time>
      </trkpt>
      <trkpt lat="42.670396999999966" lon="-2.033224000000006">
        <ele>424.698</ele>
        <time>2022-08-25T12:55:17Z</time>
      </trkpt>
      <trkpt lat="42.670396999999966" lon="-2.033224000000006">
        <ele>424.628</ele>
        <time>2022-08-25T12:55:18Z</time>
      </trkpt>
      <trkpt lat="42.67040099999996" lon="-2.033241000000006">
        <ele>424.668</ele>
        <time>2022-08-25T12:55:21Z</time>
      </trkpt>
      <trkpt lat="43.092558" lon="-1.302187">
        <ele>365.253</ele>
        <time>2022-08-23T16:26:29Z</time>
      </trkpt>
      <trkpt lat="43.09256499999999" lon="-1.302171">
        <ele>371.004</ele>
        <time>2022-08-23T16:26:30Z</time>
      </trkpt>
      <trkpt lat="43.09257199999999" lon="-1.302153">
        <ele>370.814</ele>
        <time>2022-08-23T16:26:31Z</time>
      </trkpt>
      <trkpt lat="43.09258699999999" lon="-1.3021319999999998">
        <ele>371.009</ele>
        <time>2022-08-23T16:26:32Z</time>
      </trkpt>
      <trkpt lat="43.09261499999999" lon="-1.3021049999999998">
        <ele>370.836</ele>
        <time>2022-08-23T16:26:33Z</time>
      </trkpt>
      <trkpt lat="43.09265099999999" lon="-1.3020749999999999">
        <ele>370.856</ele>
        <time>2022-08-23T16:26:34Z</time>
      </trkpt>
      <trkpt lat="43.09268999999999" lon="-1.3020409999999998">
        <ele>370.866</ele>
        <time>2022-08-23T16:26:35Z</time>
      </trkpt>
      <trkpt lat="43.092727999999994" lon="-1.3020039999999997">
        <ele>370.822</ele>
        <time>2022-08-23T16:26:36Z</time>
      </trkpt>
      <trkpt lat="43.09276299999999" lon="-1.3019639999999997">
        <ele>370.824</ele>
        <time>2022-08-23T16:26:37Z</time>
      </trkpt>
      <trkpt lat="43.09279299999999" lon="-1.3019259999999997">
        <ele>370.831</ele>
        <time>2022-08-23T16:26:38Z</time>
      </trkpt>
      <trkpt lat="43.09282799999999" lon="-1.3018859999999997">
        <ele>370.873</ele>
        <time>2022-08-23T16:26:39Z</time>
      </trkpt>
      <trkpt lat="43.09286399999999" lon="-1.3018409999999996">
        <ele>370.673</ele>
        <time>2022-08-23T16:26:40Z</time>
      </trkpt>
      <trkpt lat="43.09290099999999" lon="-1.3017919999999996">
        <ele>370.622</ele>
        <time>2022-08-23T16:26:41Z</time>
      </trkpt>
      <trkpt lat="43.09293799999999" lon="-1.3017369999999997">
        <ele>370.435</ele>
        <time>2022-08-23T16:26:42Z</time>
      </trkpt>
      <trkpt lat="43.09297499999999" lon="-1.3016779999999997">
        <ele>370.486</ele>
        <time>2022-08-23T16:26:43Z</time>
      </trkpt>
      <trkpt lat="43.09301099999999" lon="-1.3016129999999997">
        <ele>370.214</ele>
        <time>2022-08-23T16:26:44Z</time>
      </trkpt>
      <trkpt lat="43.09304999999999" lon="-1.3015379999999996">
        <ele>370.209</ele>
        <time>2022-08-23T16:26:45Z</time>
      </trkpt>
      <trkpt lat="43.093090999999994" lon="-1.3014579999999996">
        <ele>370.074</ele>
        <time>2022-08-23T16:26:46Z</time>
      </trkpt>
      <trkpt lat="43.09312799999999" lon="-1.3013729999999997">
        <ele>369.634</ele>
        <time>2022-08-23T16:26:47Z</time>
      </trkpt>
      <trkpt lat="43.09316299999999" lon="-1.3012859999999997">
        <ele>369.424</ele>
        <time>2022-08-23T16:26:48Z</time>
      </trkpt>
      <trkpt lat="43.09319499999999" lon="-1.3011999999999997">
        <ele>369.230</ele>
        <time>2022-08-23T16:26:49Z</time>
      </trkpt>
      <trkpt lat="43.093229999999984" lon="-1.3011169999999996">
        <ele>369.072</ele>
        <time>2022-08-23T16:26:50Z</time>
      </trkpt>
      <trkpt lat="43.093268999999985" lon="-1.3010379999999997">
        <ele>368.269</ele>
        <time>2022-08-23T16:26:51Z</time>
      </trkpt>
      <trkpt lat="43.09330199999999" lon="-1.3009529999999998">
        <ele>367.841</ele>
        <time>2022-08-23T16:26:52Z</time>
      </trkpt>
      <trkpt lat="43.09333199999999" lon="-1.3008629999999999">
        <ele>367.061</ele>
        <time>2022-08-23T16:26:53Z</time>
      </trkpt>
      <trkpt lat="43.09338499999999" lon="-1.3006779999999998">
        <ele>366.250</ele>
        <time>2022-08-23T16:26:55Z</time>
      </trkpt>
      <trkpt lat="43.09341099999999" lon="-1.3005869999999997">
        <ele>365.483</ele>
        <time>2022-08-23T16:26:56Z</time>
      </trkpt>
      <trkpt lat="43.09343999999999" lon="-1.3004949999999997">
        <ele>365.225</ele>
        <time>2022-08-23T16:26:57Z</time>
      </trkpt>
      <trkpt lat="43.093474999999984" lon="-1.3004059999999997">
        <ele>364.217</ele>
        <time>2022-08-23T16:26:58Z</time>
      </trkpt>
      <trkpt lat="43.09356099999999" lon="-1.3002159999999998">
        <ele>362.409</ele>
        <time>2022-08-23T16:27:00Z</time>
      </trkpt>
      <trkpt lat="43.093640999999984" lon="-1.3000289999999999">
        <ele>361.469</ele>
        <time>2022-08-23T16:27:02Z</time>
      </trkpt>
      <trkpt lat="43.09371799999998" lon="-1.2998159999999999">
        <ele>360.059</ele>
        <time>2022-08-23T16:27:04Z</time>
      </trkpt>
      <trkpt lat="43.09374699999998" lon="-1.2997269999999999">
        <ele>359.229</ele>
        <time>2022-08-23T16:27:05Z</time>
      </trkpt>
      <trkpt lat="43.09377799999998" lon="-1.2996159999999999">
        <ele>358.265</ele>
        <time>2022-08-23T16:27:06Z</time>
      </trkpt>
      <trkpt lat="43.09382399999998" lon="-1.2994839999999999">
        <ele>358.087</ele>
        <time>2022-08-23T16:27:07Z</time>
      </trkpt>
      <trkpt lat="43.09392999999998" lon="-1.299289">
        <ele>357.084</ele>
        <time>2022-08-23T16:27:09Z</time>
      </trkpt>
      <trkpt lat="43.093995999999976" lon="-1.299207">
        <ele>355.816</ele>
        <time>2022-08-23T16:27:10Z</time>
      </trkpt>
      <trkpt lat="43.094128999999974" lon="-1.299073">
        <ele>354.696</ele>
        <time>2022-08-23T16:27:12Z</time>
      </trkpt>
      <trkpt lat="43.09421699999997" lon="-1.298992">
        <ele>354.075</ele>
        <time>2022-08-23T16:27:13Z</time>
      </trkpt>
      <trkpt lat="43.094370999999974" lon="-1.298868">
        <ele>352.895</ele>
        <time>2022-08-23T16:27:15Z</time>
      </trkpt>
      <trkpt lat="43.09461899999997" lon="-1.298716">
        <ele>351.849</ele>
        <time>2022-08-23T16:27:18Z</time>
      </trkpt>
      <trkpt lat="43.09470399999997" lon="-1.298672">
        <ele>350.823</ele>
        <time>2022-08-23T16:27:19Z</time>
      </trkpt>
      <trkpt lat="43.09494899999997" lon="-1.298559">
        <ele>349.009</ele>
        <time>2022-08-23T16:27:22Z</time>
      </trkpt>
      <trkpt lat="43.095141999999974" lon="-1.2984660000000001">
        <ele>347.860</ele>
        <time>2022-08-23T16:27:24Z</time>
      </trkpt>
      <trkpt lat="43.09523099999998" lon="-1.298418">
        <ele>347.610</ele>
        <time>2022-08-23T16:27:25Z</time>
      </trkpt>
      <trkpt lat="43.095298999999976" lon="-1.298369">
        <ele>347.060</ele>
        <time>2022-08-23T16:27:26Z</time>
      </trkpt>
      <trkpt lat="43.095380999999975" lon="-1.298299">
        <ele>346.466</ele>
        <time>2022-08-23T16:27:27Z</time>
      </trkpt>
      <trkpt lat="43.09554299999998" lon="-1.2981500000000001">
        <ele>345.288</ele>
        <time>2022-08-23T16:27:29Z</time>
      </trkpt>
      <trkpt lat="43.09570499999998" lon="-1.2979930000000002">
        <ele>343.885</ele>
        <time>2022-08-23T16:27:31Z</time>
      </trkpt>
      <trkpt lat="43.09587099999998" lon="-1.2978300000000003">
        <ele>342.697</ele>
        <time>2022-08-23T16:27:33Z</time>
      </trkpt>
      <trkpt lat="43.09604299999998" lon="-1.2976710000000002">
        <ele>341.887</ele>
        <time>2022-08-23T16:27:35Z</time>
      </trkpt>
      <trkpt lat="43.09612699999998" lon="-1.2975920000000003">
        <ele>341.026</ele>
        <time>2022-08-23T16:27:36Z</time>
      </trkpt>
      <trkpt lat="43.09621399999998" lon="-1.2975240000000003">
        <ele>340.422</ele>
        <time>2022-08-23T16:27:37Z</time>
      </trkpt>
      <trkpt lat="43.096302999999985" lon="-1.2974690000000004">
        <ele>339.662</ele>
        <time>2022-08-23T16:27:38Z</time>
      </trkpt>
      <trkpt lat="43.09661599999998" lon="-1.2973520000000005">
        <ele>338.208</ele>
        <time>2022-08-23T16:27:41Z</time>
      </trkpt>
      <trkpt lat="43.09669599999998" lon="-1.2973230000000004">
        <ele>337.809</ele>
        <time>2022-08-23T16:27:42Z</time>
      </trkpt>
      <trkpt lat="43.09679299999998" lon="-1.2972890000000004">
        <ele>336.853</ele>
        <time>2022-08-23T16:27:43Z</time>
      </trkpt>
      <trkpt lat="43.096894999999975" lon="-1.2972380000000003">
        <ele>336.473</ele>
        <time>2022-08-23T16:27:44Z</time>
      </trkpt>
      <trkpt lat="43.096962999999974" lon="-1.2971890000000004">
        <ele>335.433</ele>
        <time>2022-08-23T16:27:45Z</time>
      </trkpt>
      <trkpt lat="43.09701099999997" lon="-1.2971330000000003">
        <ele>334.889</ele>
        <time>2022-08-23T16:27:46Z</time>
      </trkpt>
      <trkpt lat="43.097021999999974" lon="-1.2970820000000003">
        <ele>334.241</ele>
        <time>2022-08-23T16:27:47Z</time>
      </trkpt>
      <trkpt lat="43.09700899999997" lon="-1.2970140000000003">
        <ele>333.428</ele>
        <time>2022-08-23T16:27:48Z</time>
      </trkpt>
      <trkpt lat="43.09697299999997" lon="-1.2969510000000004">
        <ele>332.850</ele>
        <time>2022-08-23T16:27:49Z</time>
      </trkpt>
      <trkpt lat="43.09691599999997" lon="-1.2969080000000004">
        <ele>332.010</ele>
        <time>2022-08-23T16:27:50Z</time>
      </trkpt>
      <trkpt lat="43.09683499999997" lon="-1.2968950000000004">
        <ele>331.629</ele>
        <time>2022-08-23T16:27:51Z</time>
      </trkpt>
      <trkpt lat="43.09676699999997" lon="-1.2969160000000004">
        <ele>330.818</ele>
        <time>2022-08-23T16:27:52Z</time>
      </trkpt>
      <trkpt lat="43.09671299999997" lon="-1.2969530000000005">
        <ele>330.298</ele>
        <time>2022-08-23T16:27:53Z</time>
      </trkpt>
      <trkpt lat="43.09665099999997" lon="-1.2969970000000004">
        <ele>329.817</ele>
        <time>2022-08-23T16:27:54Z</time>
      </trkpt>
      <trkpt lat="43.09657899999997" lon="-1.2970460000000004">
        <ele>329.209</ele>
        <time>2022-08-23T16:27:55Z</time>
      </trkpt>
      <trkpt lat="43.09651999999997" lon="-1.2970790000000003">
        <ele>328.832</ele>
        <time>2022-08-23T16:27:56Z</time>
      </trkpt>
      <trkpt lat="43.09646299999997" lon="-1.2971100000000002">
        <ele>328.082</ele>
        <time>2022-08-23T16:27:57Z</time>
      </trkpt>
      <trkpt lat="43.096416999999974" lon="-1.2971290000000002">
        <ele>327.662</ele>
        <time>2022-08-23T16:27:58Z</time>
      </trkpt>
      <trkpt lat="43.09635899999997" lon="-1.2971390000000003">
        <ele>326.668</ele>
        <time>2022-08-23T16:27:59Z</time>
      </trkpt>
      <trkpt lat="43.09630799999997" lon="-1.2971160000000002">
        <ele>326.050</ele>
        <time>2022-08-23T16:28:00Z</time>
      </trkpt>
      <trkpt lat="43.09627199999997" lon="-1.2970800000000002">
        <ele>325.827</ele>
        <time>2022-08-23T16:28:01Z</time>
      </trkpt>
      <trkpt lat="43.09624999999997" lon="-1.2970220000000003">
        <ele>324.879</ele>
        <time>2022-08-23T16:28:02Z</time>
      </trkpt>
      <trkpt lat="43.09624699999997" lon="-1.2969580000000003">
        <ele>324.639</ele>
        <time>2022-08-23T16:28:03Z</time>
      </trkpt>
      <trkpt lat="43.096253999999966" lon="-1.2968960000000003">
        <ele>324.038</ele>
        <time>2022-08-23T16:28:04Z</time>
      </trkpt>
      <trkpt lat="43.09626399999997" lon="-1.2968320000000002">
        <ele>323.684</ele>
        <time>2022-08-23T16:28:05Z</time>
      </trkpt>
      <trkpt lat="43.09630799999997" lon="-1.2965840000000002">
        <ele>322.607</ele>
        <time>2022-08-23T16:28:08Z</time>
      </trkpt>
      <trkpt lat="43.09633699999997" lon="-1.2964360000000001">
        <ele>321.817</ele>
        <time>2022-08-23T16:28:10Z</time>
      </trkpt>
      <trkpt lat="43.09636699999997" lon="-1.2963710000000002">
        <ele>321.209</ele>
        <time>2022-08-23T16:28:11Z</time>
      </trkpt>
      <trkpt lat="43.09641299999997" lon="-1.2963240000000003">
        <ele>320.619</ele>
        <time>2022-08-23T16:28:12Z</time>
      </trkpt>
      <trkpt lat="43.09647099999997" lon="-1.2962960000000003">
        <ele>320.479</ele>
        <time>2022-08-23T16:28:13Z</time>
      </trkpt>
      <trkpt lat="43.09653299999997" lon="-1.2962930000000004">
        <ele>319.679</ele>
        <time>2022-08-23T16:28:14Z</time>
      </trkpt>
      <trkpt lat="43.09666499999997" lon="-1.2963470000000004">
        <ele>318.625</ele>
        <time>2022-08-23T16:28:16Z</time>
      </trkpt>
      <trkpt lat="43.09680399999997" lon="-1.2964630000000004">
        <ele>317.467</ele>
        <time>2022-08-23T16:28:18Z</time>
      </trkpt>
      <trkpt lat="43.09687899999997" lon="-1.2965270000000004">
        <ele>317.294</ele>
        <time>2022-08-23T16:28:19Z</time>
      </trkpt>
      <trkpt lat="43.09695499999997" lon="-1.2965920000000004">
        <ele>316.886</ele>
        <time>2022-08-23T16:28:20Z</time>
      </trkpt>
      <trkpt lat="43.097046999999975" lon="-1.2966720000000005">
        <ele>316.236</ele>
        <time>2022-08-23T16:28:21Z</time>
      </trkpt>
      <trkpt lat="43.097195999999975" lon="-1.2967830000000005">
        <ele>314.655</ele>
        <time>2022-08-23T16:28:23Z</time>
      </trkpt>
      <trkpt lat="43.097375999999976" lon="-1.2968840000000004">
        <ele>313.027</ele>
        <time>2022-08-23T16:28:25Z</time>
      </trkpt>
      <trkpt lat="43.09746799999998" lon="-1.2969270000000004">
        <ele>312.268</ele>
        <time>2022-08-23T16:28:26Z</time>
      </trkpt>
      <trkpt lat="43.097572999999976" lon="-1.2969740000000003">
        <ele>311.414</ele>
        <time>2022-08-23T16:28:27Z</time>
      </trkpt>
      <trkpt lat="43.09765299999997" lon="-1.2970090000000003">
        <ele>310.609</ele>
        <time>2022-08-23T16:28:28Z</time>
      </trkpt>
      <trkpt lat="43.097721999999976" lon="-1.2970350000000004">
        <ele>310.283</ele>
        <time>2022-08-23T16:28:29Z</time>
      </trkpt>
      <trkpt lat="43.097772999999975" lon="-1.2970420000000005">
        <ele>309.043</ele>
        <time>2022-08-23T16:28:30Z</time>
      </trkpt>
      <trkpt lat="43.09783099999998" lon="-1.2970280000000005">
        <ele>308.483</ele>
        <time>2022-08-23T16:28:31Z</time>
      </trkpt>
      <trkpt lat="43.097893999999975" lon="-1.2970020000000004">
        <ele>307.299</ele>
        <time>2022-08-23T16:28:32Z</time>
      </trkpt>
      <trkpt lat="43.09793199999998" lon="-1.2969640000000004">
        <ele>306.481</ele>
        <time>2022-08-23T16:28:33Z</time>
      </trkpt>
      <trkpt lat="43.09794299999998" lon="-1.2969010000000005">
        <ele>306.068</ele>
        <time>2022-08-23T16:28:34Z</time>
      </trkpt>
      <trkpt lat="43.09791199999998" lon="-1.2968440000000006">
        <ele>305.080</ele>
        <time>2022-08-23T16:28:35Z</time>
      </trkpt>
      <trkpt lat="43.09787499999998" lon="-1.2967710000000006">
        <ele>304.860</ele>
        <time>2022-08-23T16:28:36Z</time>
      </trkpt>
      <trkpt lat="43.09781899999998" lon="-1.2966950000000006">
        <ele>303.619</ele>
        <time>2022-08-23T16:28:37Z</time>
      </trkpt>
      <trkpt lat="43.097780999999976" lon="-1.2966450000000005">
        <ele>303.065</ele>
        <time>2022-08-23T16:28:38Z</time>
      </trkpt>
      <trkpt lat="43.09773299999998" lon="-1.2965640000000005">
        <ele>302.868</ele>
        <time>2022-08-23T16:28:39Z</time>
      </trkpt>
      <trkpt lat="43.097696999999975" lon="-1.2965080000000004">
        <ele>302.214</ele>
        <time>2022-08-23T16:28:40Z</time>
      </trkpt>
      <trkpt lat="43.09754999999998" lon="-1.2963020000000005">
        <ele>301.809</ele>
        <time>2022-08-23T16:28:43Z</time>
      </trkpt>
      <trkpt lat="43.097499999999975" lon="-1.2962420000000006">
        <ele>301.857</ele>
        <time>2022-08-23T16:28:44Z</time>
      </trkpt>
      <trkpt lat="43.097437999999975" lon="-1.2961670000000005">
        <ele>301.847</ele>
        <time>2022-08-23T16:28:45Z</time>
      </trkpt>
      <trkpt lat="43.097378999999975" lon="-1.2961110000000005">
        <ele>301.837</ele>
        <time>2022-08-23T16:28:46Z</time>
      </trkpt>
      <trkpt lat="43.097322999999975" lon="-1.2960520000000004">
        <ele>301.853</ele>
        <time>2022-08-23T16:28:47Z</time>
      </trkpt>
      <trkpt lat="43.097266999999974" lon="-1.2959860000000005">
        <ele>301.835</ele>
        <time>2022-08-23T16:28:48Z</time>
      </trkpt>
      <trkpt lat="43.09722899999997" lon="-1.2959160000000005">
        <ele>301.852</ele>
        <time>2022-08-23T16:28:49Z</time>
      </trkpt>
      <trkpt lat="43.09720599999997" lon="-1.2958290000000006">
        <ele>301.844</ele>
        <time>2022-08-23T16:28:50Z</time>
      </trkpt>
      <trkpt lat="43.097201999999974" lon="-1.2957600000000005">
        <ele>302.054</ele>
        <time>2022-08-23T16:28:51Z</time>
      </trkpt>
      <trkpt lat="43.097201999999974" lon="-1.2956770000000004">
        <ele>302.213</ele>
        <time>2022-08-23T16:28:52Z</time>
      </trkpt>
      <trkpt lat="43.097212999999975" lon="-1.2955950000000005">
        <ele>302.225</ele>
        <time>2022-08-23T16:28:53Z</time>
      </trkpt>
      <trkpt lat="43.09723199999998" lon="-1.2955080000000005">
        <ele>302.426</ele>
        <time>2022-08-23T16:28:54Z</time>
      </trkpt>
      <trkpt lat="43.09724599999998" lon="-1.2954300000000005">
        <ele>302.408</ele>
        <time>2022-08-23T16:28:55Z</time>
      </trkpt>
      <trkpt lat="43.09726499999998" lon="-1.2953750000000006">
        <ele>302.609</ele>
        <time>2022-08-23T16:28:56Z</time>
      </trkpt>
      <trkpt lat="43.097330999999976" lon="-1.2952630000000007">
        <ele>302.853</ele>
        <time>2022-08-23T16:28:58Z</time>
      </trkpt>
      <trkpt lat="43.09736699999998" lon="-1.2952190000000008">
        <ele>302.823</ele>
        <time>2022-08-23T16:28:59Z</time>
      </trkpt>
      <trkpt lat="43.09740099999998" lon="-1.2951730000000008">
        <ele>302.813</ele>
        <time>2022-08-23T16:29:00Z</time>
      </trkpt>
      <trkpt lat="43.09743899999998" lon="-1.2951290000000009">
        <ele>303.269</ele>
        <time>2022-08-23T16:29:01Z</time>
      </trkpt>
      <trkpt lat="43.09746399999998" lon="-1.295104000000001">
        <ele>303.231</ele>
        <time>2022-08-23T16:29:02Z</time>
      </trkpt>
      <trkpt lat="43.09749799999998" lon="-1.295069000000001">
        <ele>303.688</ele>
        <time>2022-08-23T16:29:03Z</time>
      </trkpt>
      <trkpt lat="43.09753899999998" lon="-1.2950320000000008">
        <ele>303.860</ele>
        <time>2022-08-23T16:29:04Z</time>
      </trkpt>
      <trkpt lat="43.097571999999985" lon="-1.294999000000001">
        <ele>304.090</ele>
        <time>2022-08-23T16:29:05Z</time>
      </trkpt>
      <trkpt lat="43.097605999999985" lon="-1.2949670000000009">
        <ele>304.239</ele>
        <time>2022-08-23T16:29:06Z</time>
      </trkpt>
      <trkpt lat="43.09763499999998" lon="-1.294945000000001">
        <ele>304.266</ele>
        <time>2022-08-23T16:29:07Z</time>
      </trkpt>
      <trkpt lat="43.097667999999985" lon="-1.294917000000001">
        <ele>304.429</ele>
        <time>2022-08-23T16:29:08Z</time>
      </trkpt>
      <trkpt lat="43.09773599999998" lon="-1.294854000000001">
        <ele>305.021</ele>
        <time>2022-08-23T16:29:10Z</time>
      </trkpt>
      <trkpt lat="43.09776799999998" lon="-1.294825000000001">
        <ele>305.209</ele>
        <time>2022-08-23T16:29:11Z</time>
      </trkpt>
      <trkpt lat="43.09782599999998" lon="-1.294785000000001">
        <ele>305.427</ele>
        <time>2022-08-23T16:29:13Z</time>
      </trkpt>
      <trkpt lat="43.09792799999998" lon="-1.294722000000001">
        <ele>306.247</ele>
        <time>2022-08-23T16:29:16Z</time>
      </trkpt>
      <trkpt lat="43.097960999999984" lon="-1.294705000000001">
        <ele>306.667</ele>
        <time>2022-08-23T16:29:17Z</time>
      </trkpt>
      <trkpt lat="43.09799599999998" lon="-1.294690000000001">
        <ele>306.883</ele>
        <time>2022-08-23T16:29:18Z</time>
      </trkpt>
      <trkpt lat="43.09802799999998" lon="-1.294674000000001">
        <ele>307.015</ele>
        <time>2022-08-23T16:29:19Z</time>
      </trkpt>
      <trkpt lat="43.098062999999975" lon="-1.294650000000001">
        <ele>307.012</ele>
        <time>2022-08-23T16:29:20Z</time>
      </trkpt>
      <trkpt lat="43.09809199999997" lon="-1.294634000000001">
        <ele>307.264</ele>
        <time>2022-08-23T16:29:21Z</time>
      </trkpt>
      <trkpt lat="43.09811799999997" lon="-1.2946190000000009">
        <ele>307.254</ele>
        <time>2022-08-23T16:29:22Z</time>
      </trkpt>
      <trkpt lat="43.098144999999974" lon="-1.294602000000001">
        <ele>307.483</ele>
        <time>2022-08-23T16:29:23Z</time>
      </trkpt>
      <trkpt lat="43.09817699999997" lon="-1.294585000000001">
        <ele>307.649</ele>
        <time>2022-08-23T16:29:24Z</time>
      </trkpt>
      <trkpt lat="43.09821699999997" lon="-1.294567000000001">
        <ele>307.802</ele>
        <time>2022-08-23T16:29:25Z</time>
      </trkpt>
      <trkpt lat="43.09825199999997" lon="-1.2945440000000008">
        <ele>308.222</ele>
        <time>2022-08-23T16:29:26Z</time>
      </trkpt>
      <trkpt lat="43.09827999999997" lon="-1.2945230000000008">
        <ele>308.409</ele>
        <time>2022-08-23T16:29:27Z</time>
      </trkpt>
      <trkpt lat="43.09831599999997" lon="-1.2944870000000008">
        <ele>308.635</ele>
        <time>2022-08-23T16:29:28Z</time>
      </trkpt>
      <trkpt lat="43.09834699999997" lon="-1.294456000000001">
        <ele>308.885</ele>
        <time>2022-08-23T16:29:29Z</time>
      </trkpt>
      <trkpt lat="43.098375999999966" lon="-1.294425000000001">
        <ele>308.875</ele>
        <time>2022-08-23T16:29:30Z</time>
      </trkpt>
      <trkpt lat="43.09840299999997" lon="-1.294391000000001">
        <ele>309.221</ele>
        <time>2022-08-23T16:29:31Z</time>
      </trkpt>
      <trkpt lat="43.09842599999997" lon="-1.294360000000001">
        <ele>309.243</ele>
        <time>2022-08-23T16:29:32Z</time>
      </trkpt>
      <trkpt lat="43.09845399999997" lon="-1.294326000000001">
        <ele>309.470</ele>
        <time>2022-08-23T16:29:33Z</time>
      </trkpt>
      <trkpt lat="43.09848099999997" lon="-1.294285000000001">
        <ele>309.432</ele>
        <time>2022-08-23T16:29:34Z</time>
      </trkpt>
      <trkpt lat="43.09851299999997" lon="-1.294239000000001">
        <ele>309.632</ele>
        <time>2022-08-23T16:29:35Z</time>
      </trkpt>
      <trkpt lat="43.09854699999997" lon="-1.294201000000001">
        <ele>310.051</ele>
        <time>2022-08-23T16:29:36Z</time>
      </trkpt>
      <trkpt lat="43.09858099999997" lon="-1.2941700000000012">
        <ele>310.268</ele>
        <time>2022-08-23T16:29:37Z</time>
      </trkpt>
      <trkpt lat="43.098612999999965" lon="-1.2941430000000012">
        <ele>310.442</ele>
        <time>2022-08-23T16:29:38Z</time>
      </trkpt>
      <trkpt lat="43.098648999999966" lon="-1.2941100000000012">
        <ele>310.626</ele>
        <time>2022-08-23T16:29:39Z</time>
      </trkpt>
      <trkpt lat="43.098679999999966" lon="-1.2940780000000012">
        <ele>310.809</ele>
        <time>2022-08-23T16:29:40Z</time>
      </trkpt>
      <trkpt lat="43.09870999999997" lon="-1.2940430000000012">
        <ele>311.077</ele>
        <time>2022-08-23T16:29:41Z</time>
      </trkpt>
      <trkpt lat="43.09874399999997" lon="-1.2940070000000012">
        <ele>311.077</ele>
        <time>2022-08-23T16:29:42Z</time>
      </trkpt>
      <trkpt lat="43.098772999999966" lon="-1.2939720000000012">
        <ele>311.287</ele>
        <time>2022-08-23T16:29:43Z</time>
      </trkpt>
      <trkpt lat="43.09879699999997" lon="-1.2939380000000011">
        <ele>311.233</ele>
        <time>2022-08-23T16:29:44Z</time>
      </trkpt>
      <trkpt lat="43.09883299999997" lon="-1.2938890000000012">
        <ele>311.675</ele>
        <time>2022-08-23T16:29:45Z</time>
      </trkpt>
      <trkpt lat="43.09886199999997" lon="-1.2938480000000012">
        <ele>311.852</ele>
        <time>2022-08-23T16:29:46Z</time>
      </trkpt>
      <trkpt lat="43.09889299999997" lon="-1.2938080000000012">
        <ele>311.874</ele>
        <time>2022-08-23T16:29:47Z</time>
      </trkpt>
      <trkpt lat="43.09892299999997" lon="-1.2937680000000011">
        <ele>312.014</ele>
        <time>2022-08-23T16:29:48Z</time>
      </trkpt>
      <trkpt lat="43.09894799999997" lon="-1.2937440000000011">
        <ele>312.083</ele>
        <time>2022-08-23T16:29:49Z</time>
      </trkpt>
      <trkpt lat="43.098980999999974" lon="-1.293710000000001">
        <ele>312.239</ele>
        <time>2022-08-23T16:29:50Z</time>
      </trkpt>
      <trkpt lat="43.099016999999975" lon="-1.293660000000001">
        <ele>312.401</ele>
        <time>2022-08-23T16:29:51Z</time>
      </trkpt>
      <trkpt lat="43.099050999999974" lon="-1.2936180000000008">
        <ele>312.621</ele>
        <time>2022-08-23T16:29:52Z</time>
      </trkpt>
      <trkpt lat="43.09907799999998" lon="-1.2935880000000008">
        <ele>312.809</ele>
        <time>2022-08-23T16:29:53Z</time>
      </trkpt>
      <trkpt lat="43.09911399999998" lon="-1.2935460000000008">
        <ele>312.844</ele>
        <time>2022-08-23T16:29:54Z</time>
      </trkpt>
      <trkpt lat="43.09914999999998" lon="-1.2935040000000007">
        <ele>313.064</ele>
        <time>2022-08-23T16:29:55Z</time>
      </trkpt>
      <trkpt lat="43.09918899999998" lon="-1.2934640000000006">
        <ele>313.064</ele>
        <time>2022-08-23T16:29:56Z</time>
      </trkpt>
      <trkpt lat="43.09923199999998" lon="-1.2934180000000006">
        <ele>313.260</ele>
        <time>2022-08-23T16:29:57Z</time>
      </trkpt>
      <trkpt lat="43.09927199999998" lon="-1.2933830000000006">
        <ele>313.292</ele>
        <time>2022-08-23T16:29:58Z</time>
      </trkpt>
      <trkpt lat="43.099317999999975" lon="-1.2933530000000006">
        <ele>313.229</ele>
        <time>2022-08-23T16:29:59Z</time>
      </trkpt>
      <trkpt lat="43.099356999999976" lon="-1.2933300000000005">
        <ele>313.221</ele>
        <time>2022-08-23T16:30:00Z</time>
      </trkpt>
      <trkpt lat="43.09940599999997" lon="-1.2933030000000005">
        <ele>313.241</ele>
        <time>2022-08-23T16:30:01Z</time>
      </trkpt>
      <trkpt lat="43.09945399999997" lon="-1.2932820000000005">
        <ele>313.280</ele>
        <time>2022-08-23T16:30:02Z</time>
      </trkpt>
      <trkpt lat="43.09950599999997" lon="-1.2932650000000006">
        <ele>313.259</ele>
        <time>2022-08-23T16:30:03Z</time>
      </trkpt>
      <trkpt lat="43.09956699999997" lon="-1.2932490000000005">
        <ele>313.203</ele>
        <time>2022-08-23T16:30:04Z</time>
      </trkpt>
      <trkpt lat="43.09960899999997" lon="-1.2932430000000006">
        <ele>313.223</ele>
        <time>2022-08-23T16:30:05Z</time>
      </trkpt>
      <trkpt lat="43.09966499999997" lon="-1.2932450000000006">
        <ele>313.209</ele>
        <time>2022-08-23T16:30:06Z</time>
      </trkpt>
      <trkpt lat="43.099737999999974" lon="-1.2932530000000007">
        <ele>313.276</ele>
        <time>2022-08-23T16:30:07Z</time>
      </trkpt>
      <trkpt lat="43.09979999999997" lon="-1.2932630000000007">
        <ele>313.286</ele>
        <time>2022-08-23T16:30:08Z</time>
      </trkpt>
      <trkpt lat="43.099863999999975" lon="-1.2932720000000006">
        <ele>313.086</ele>
        <time>2022-08-23T16:30:09Z</time>
      </trkpt>
      <trkpt lat="43.09991599999997" lon="-1.2932740000000007">
        <ele>313.052</ele>
        <time>2022-08-23T16:30:10Z</time>
      </trkpt>
      <trkpt lat="43.10004299999997" lon="-1.2932890000000008">
        <ele>312.844</ele>
        <time>2022-08-23T16:30:12Z</time>
      </trkpt>
      <trkpt lat="43.10011699999997" lon="-1.2932930000000007">
        <ele>312.861</ele>
        <time>2022-08-23T16:30:13Z</time>
      </trkpt>
      <trkpt lat="43.100517999999965" lon="-1.2933180000000006">
        <ele>312.023</ele>
        <time>2022-08-23T16:30:19Z</time>
      </trkpt>
      <trkpt lat="43.100655999999965" lon="-1.2932440000000007">
        <ele>312.033</ele>
        <time>2022-08-23T16:30:21Z</time>
      </trkpt>
      <trkpt lat="43.100714999999965" lon="-1.2931860000000008">
        <ele>311.812</ele>
        <time>2022-08-23T16:30:22Z</time>
      </trkpt>
      <trkpt lat="43.100771999999964" lon="-1.2931180000000009">
        <ele>311.669</ele>
        <time>2022-08-23T16:30:23Z</time>
      </trkpt>
      <trkpt lat="43.100824999999965" lon="-1.293047000000001">
        <ele>311.404</ele>
        <time>2022-08-23T16:30:24Z</time>
      </trkpt>
      <trkpt lat="43.100880999999966" lon="-1.292968000000001">
        <ele>311.024</ele>
        <time>2022-08-23T16:30:25Z</time>
      </trkpt>
      <trkpt lat="43.101004999999965" lon="-1.292799000000001">
        <ele>310.809</ele>
        <time>2022-08-23T16:30:27Z</time>
      </trkpt>
      <trkpt lat="43.101058999999964" lon="-1.2927190000000008">
        <ele>310.427</ele>
        <time>2022-08-23T16:30:28Z</time>
      </trkpt>
      <trkpt lat="43.101153999999966" lon="-1.2925420000000007">
        <ele>309.867</ele>
        <time>2022-08-23T16:30:30Z</time>
      </trkpt>
      <trkpt lat="43.10118599999996" lon="-1.2924400000000007">
        <ele>309.487</ele>
        <time>2022-08-23T16:30:31Z</time>
      </trkpt>
      <trkpt lat="43.101210999999964" lon="-1.2923360000000006">
        <ele>309.273</ele>
        <time>2022-08-23T16:30:32Z</time>
      </trkpt>
      <trkpt lat="43.10122799999996" lon="-1.2922320000000005">
        <ele>308.835</ele>
        <time>2022-08-23T16:30:33Z</time>
      </trkpt>
      <trkpt lat="43.10124299999996" lon="-1.2921270000000005">
        <ele>308.682</ele>
        <time>2022-08-23T16:30:34Z</time>
      </trkpt>
      <trkpt lat="43.10127899999996" lon="-1.2919210000000005">
        <ele>308.284</ele>
        <time>2022-08-23T16:30:36Z</time>
      </trkpt>
      <trkpt lat="43.10137999999996" lon="-1.2912970000000006">
        <ele>307.074</ele>
        <time>2022-08-23T16:30:42Z</time>
      </trkpt>
      <trkpt lat="43.10140099999996" lon="-1.2911950000000005">
        <ele>307.053</ele>
        <time>2022-08-23T16:30:43Z</time>
      </trkpt>
      <trkpt lat="43.10143099999996" lon="-1.2911000000000006">
        <ele>306.694</ele>
        <time>2022-08-23T16:30:44Z</time>
      </trkpt>
      <trkpt lat="43.10151899999996" lon="-1.2909330000000006">
        <ele>306.257</ele>
        <time>2022-08-23T16:30:46Z</time>
      </trkpt>
      <trkpt lat="43.10156599999996" lon="-1.2908770000000005">
        <ele>306.022</ele>
        <time>2022-08-23T16:30:47Z</time>
      </trkpt>
      <trkpt lat="43.101629999999965" lon="-1.2908170000000005">
        <ele>305.809</ele>
        <time>2022-08-23T16:30:48Z</time>
      </trkpt>
      <trkpt lat="43.10170199999997" lon="-1.2907760000000006">
        <ele>305.630</ele>
        <time>2022-08-23T16:30:49Z</time>
      </trkpt>
      <trkpt lat="43.10179399999997" lon="-1.2907460000000006">
        <ele>305.440</ele>
        <time>2022-08-23T16:30:50Z</time>
      </trkpt>
      <trkpt lat="43.10187499999997" lon="-1.2907370000000007">
        <ele>305.280</ele>
        <time>2022-08-23T16:30:51Z</time>
      </trkpt>
      <trkpt lat="43.10195699999997" lon="-1.2907320000000007">
        <ele>305.236</ele>
        <time>2022-08-23T16:30:52Z</time>
      </trkpt>
      <trkpt lat="43.10201999999997" lon="-1.2907280000000008">
        <ele>305.038</ele>
        <time>2022-08-23T16:30:53Z</time>
      </trkpt>
      <trkpt lat="43.10209799999997" lon="-1.2907250000000008">
        <ele>304.835</ele>
        <time>2022-08-23T16:30:54Z</time>
      </trkpt>
      <trkpt lat="43.10219099999997" lon="-1.2907190000000008">
        <ele>304.877</ele>
        <time>2022-08-23T16:30:55Z</time>
      </trkpt>
      <trkpt lat="43.10234299999997" lon="-1.290710000000001">
        <ele>304.467</ele>
        <time>2022-08-23T16:30:57Z</time>
      </trkpt>
      <trkpt lat="43.10240299999997" lon="-1.2907050000000009">
        <ele>304.246</ele>
        <time>2022-08-23T16:30:58Z</time>
      </trkpt>
      <trkpt lat="43.10247599999997" lon="-1.290699000000001">
        <ele>303.886</ele>
        <time>2022-08-23T16:30:59Z</time>
      </trkpt>
      <trkpt lat="43.10256299999997" lon="-1.290693000000001">
        <ele>303.860</ele>
        <time>2022-08-23T16:31:00Z</time>
      </trkpt>
      <trkpt lat="43.10262199999997" lon="-1.290689000000001">
        <ele>303.626</ele>
        <time>2022-08-23T16:31:01Z</time>
      </trkpt>
      <trkpt lat="43.10276899999997" lon="-1.290682000000001">
        <ele>303.409</ele>
        <time>2022-08-23T16:31:03Z</time>
      </trkpt>
      <trkpt lat="43.10285599999997" lon="-1.290681000000001">
        <ele>303.439</ele>
        <time>2022-08-23T16:31:04Z</time>
      </trkpt>
      <trkpt lat="43.102997999999964" lon="-1.2906770000000012">
        <ele>303.439</ele>
        <time>2022-08-23T16:31:06Z</time>
      </trkpt>
      <trkpt lat="43.103067999999965" lon="-1.2906670000000011">
        <ele>303.439</ele>
        <time>2022-08-23T16:31:07Z</time>
      </trkpt>
      <trkpt lat="43.103134999999966" lon="-1.290649000000001">
        <ele>303.445</ele>
        <time>2022-08-23T16:31:08Z</time>
      </trkpt>
      <trkpt lat="43.103199999999966" lon="-1.290622000000001">
        <ele>303.447</ele>
        <time>2022-08-23T16:31:09Z</time>
      </trkpt>
      <trkpt lat="43.10324999999997" lon="-1.290597000000001">
        <ele>303.414</ele>
        <time>2022-08-23T16:31:10Z</time>
      </trkpt>
      <trkpt lat="43.10332199999997" lon="-1.2905510000000011">
        <ele>303.476</ele>
        <time>2022-08-23T16:31:11Z</time>
      </trkpt>
      <trkpt lat="43.10356099999997" lon="-1.2903890000000011">
        <ele>303.686</ele>
        <time>2022-08-23T16:31:15Z</time>
      </trkpt>
      <trkpt lat="43.10361799999997" lon="-1.290346000000001">
        <ele>303.625</ele>
        <time>2022-08-23T16:31:16Z</time>
      </trkpt>
      <trkpt lat="43.10367199999997" lon="-1.290303000000001">
        <ele>303.658</ele>
        <time>2022-08-23T16:31:17Z</time>
      </trkpt>
      <trkpt lat="43.10372199999997" lon="-1.290253000000001">
        <ele>303.452</ele>
        <time>2022-08-23T16:31:18Z</time>
      </trkpt>
      <trkpt lat="43.103815999999966" lon="-1.290142000000001">
        <ele>303.217</ele>
        <time>2022-08-23T16:31:20Z</time>
      </trkpt>
      <trkpt lat="43.10389999999997" lon="-1.290046000000001">
        <ele>303.209</ele>
        <time>2022-08-23T16:31:22Z</time>
      </trkpt>
      <trkpt lat="43.10394499999997" lon="-1.2899900000000009">
        <ele>303.266</ele>
        <time>2022-08-23T16:31:23Z</time>
      </trkpt>
      <trkpt lat="43.10398699999997" lon="-1.2899330000000009">
        <ele>303.266</ele>
        <time>2022-08-23T16:31:24Z</time>
      </trkpt>
      <trkpt lat="43.10403499999997" lon="-1.289865000000001">
        <ele>303.256</ele>
        <time>2022-08-23T16:31:25Z</time>
      </trkpt>
      <trkpt lat="43.10414699999997" lon="-1.2897040000000008">
        <ele>303.272</ele>
        <time>2022-08-23T16:31:28Z</time>
      </trkpt>
      <trkpt lat="43.10425899999997" lon="-1.2895110000000007">
        <ele>303.224</ele>
        <time>2022-08-23T16:31:31Z</time>
      </trkpt>
      <trkpt lat="43.10432199999997" lon="-1.2893690000000007">
        <ele>303.281</ele>
        <time>2022-08-23T16:31:33Z</time>
      </trkpt>
      <trkpt lat="43.10438899999997" lon="-1.2892240000000006">
        <ele>303.273</ele>
        <time>2022-08-23T16:31:35Z</time>
      </trkpt>
      <trkpt lat="43.10452499999997" lon="-1.2889030000000006">
        <ele>303.063</ele>
        <time>2022-08-23T16:31:39Z</time>
      </trkpt>
      <trkpt lat="43.10464599999997" lon="-1.2885930000000005">
        <ele>302.872</ele>
        <time>2022-08-23T16:31:43Z</time>
      </trkpt>
      <trkpt lat="43.104702999999965" lon="-1.2884250000000006">
        <ele>302.859</ele>
        <time>2022-08-23T16:31:45Z</time>
      </trkpt>
      <trkpt lat="43.10473799999996" lon="-1.2883410000000006">
        <ele>302.803</ele>
        <time>2022-08-23T16:31:46Z</time>
      </trkpt>
      <trkpt lat="43.10480099999996" lon="-1.2881700000000007">
        <ele>302.623</ele>
        <time>2022-08-23T16:31:48Z</time>
      </trkpt>
      <trkpt lat="43.10482799999996" lon="-1.2880910000000008">
        <ele>302.609</ele>
        <time>2022-08-23T16:31:49Z</time>
      </trkpt>
      <trkpt lat="43.104854999999965" lon="-1.2880120000000008">
        <ele>302.626</ele>
        <time>2022-08-23T16:31:50Z</time>
      </trkpt>
      <trkpt lat="43.10488399999996" lon="-1.2879320000000007">
        <ele>302.626</ele>
        <time>2022-08-23T16:31:51Z</time>
      </trkpt>
      <trkpt lat="43.10491199999996" lon="-1.2878530000000008">
        <ele>302.446</ele>
        <time>2022-08-23T16:31:52Z</time>
      </trkpt>
      <trkpt lat="43.10497799999996" lon="-1.2876970000000008">
        <ele>302.422</ele>
        <time>2022-08-23T16:31:54Z</time>
      </trkpt>
      <trkpt lat="43.10524399999996" lon="-1.2871090000000007">
        <ele>301.684</ele>
        <time>2022-08-23T16:32:01Z</time>
      </trkpt>
      <trkpt lat="43.105290999999966" lon="-1.2870150000000007">
        <ele>301.411</ele>
        <time>2022-08-23T16:32:02Z</time>
      </trkpt>
      <trkpt lat="43.105470999999966" lon="-1.2867400000000007">
        <ele>300.633</ele>
        <time>2022-08-23T16:32:05Z</time>
      </trkpt>
      <trkpt lat="43.10553799999997" lon="-1.2866460000000006">
        <ele>300.233</ele>
        <time>2022-08-23T16:32:06Z</time>
      </trkpt>
      <trkpt lat="43.10568399999997" lon="-1.2864670000000007">
        <ele>299.062</ele>
        <time>2022-08-23T16:32:08Z</time>
      </trkpt>
      <trkpt lat="43.10583799999997" lon="-1.2862890000000007">
        <ele>297.861</ele>
        <time>2022-08-23T16:32:10Z</time>
      </trkpt>
      <trkpt lat="43.10598999999997" lon="-1.2861260000000008">
        <ele>296.421</ele>
        <time>2022-08-23T16:32:12Z</time>
      </trkpt>
      <trkpt lat="43.10617099999997" lon="-1.2860100000000008">
        <ele>295.413</ele>
        <time>2022-08-23T16:32:14Z</time>
      </trkpt>
      <trkpt lat="43.106267999999965" lon="-1.2859610000000008">
        <ele>295.009</ele>
        <time>2022-08-23T16:32:15Z</time>
      </trkpt>
      <trkpt lat="43.106467999999964" lon="-1.2858770000000008">
        <ele>294.057</ele>
        <time>2022-08-23T16:32:17Z</time>
      </trkpt>
      <trkpt lat="43.106667999999964" lon="-1.2857850000000008">
        <ele>292.287</ele>
        <time>2022-08-23T16:32:19Z</time>
      </trkpt>
      <trkpt lat="43.10676499999996" lon="-1.2857260000000008">
        <ele>291.887</ele>
        <time>2022-08-23T16:32:20Z</time>
      </trkpt>
      <trkpt lat="43.10685899999996" lon="-1.2856500000000008">
        <ele>291.023</ele>
        <time>2022-08-23T16:32:21Z</time>
      </trkpt>
      <trkpt lat="43.10703599999996" lon="-1.2854730000000008">
        <ele>289.685</ele>
        <time>2022-08-23T16:32:23Z</time>
      </trkpt>
      <trkpt lat="43.10711399999996" lon="-1.2853740000000007">
        <ele>289.232</ele>
        <time>2022-08-23T16:32:24Z</time>
      </trkpt>
      <trkpt lat="43.10719399999996" lon="-1.2852670000000006">
        <ele>288.414</ele>
        <time>2022-08-23T16:32:25Z</time>
      </trkpt>
      <trkpt lat="43.10742499999996" lon="-1.2849210000000006">
        <ele>286.454</ele>
        <time>2022-08-23T16:32:28Z</time>
      </trkpt>
      <trkpt lat="43.10749999999996" lon="-1.2847980000000006">
        <ele>285.863</ele>
        <time>2022-08-23T16:32:29Z</time>
      </trkpt>
      <trkpt lat="43.10757299999996" lon="-1.2846740000000005">
        <ele>285.296</ele>
        <time>2022-08-23T16:32:30Z</time>
      </trkpt>
      <trkpt lat="43.10772399999996" lon="-1.2844270000000004">
        <ele>283.431</ele>
        <time>2022-08-23T16:32:32Z</time>
      </trkpt>
      <trkpt lat="43.10787699999996" lon="-1.2841870000000004">
        <ele>282.024</ele>
        <time>2022-08-23T16:32:34Z</time>
      </trkpt>
      <trkpt lat="43.10803699999996" lon="-1.2839540000000005">
        <ele>280.609</ele>
        <time>2022-08-23T16:32:36Z</time>
      </trkpt>
      <trkpt lat="43.10811699999996" lon="-1.2838450000000006">
        <ele>279.890</ele>
        <time>2022-08-23T16:32:37Z</time>
      </trkpt>
      <trkpt lat="43.10819499999996" lon="-1.2837470000000006">
        <ele>279.280</ele>
        <time>2022-08-23T16:32:38Z</time>
      </trkpt>
      <trkpt lat="43.10827599999996" lon="-1.2836580000000006">
        <ele>278.060</ele>
        <time>2022-08-23T16:32:39Z</time>
      </trkpt>
      <trkpt lat="43.10835799999996" lon="-1.2835780000000006">
        <ele>276.876</ele>
        <time>2022-08-23T16:32:40Z</time>
      </trkpt>
      <trkpt lat="43.10843999999996" lon="-1.2835050000000006">
        <ele>276.298</ele>
        <time>2022-08-23T16:32:41Z</time>
      </trkpt>
      <trkpt lat="43.10853899999996" lon="-1.2834200000000007">
        <ele>275.225</ele>
        <time>2022-08-23T16:32:42Z</time>
      </trkpt>
      <trkpt lat="43.10869299999996" lon="-1.2832930000000007">
        <ele>273.857</ele>
        <time>2022-08-23T16:32:44Z</time>
      </trkpt>
      <trkpt lat="43.10886299999996" lon="-1.2831500000000007">
        <ele>272.267</ele>
        <time>2022-08-23T16:32:46Z</time>
      </trkpt>
      <trkpt lat="43.108944999999956" lon="-1.2830760000000008">
        <ele>271.246</ele>
        <time>2022-08-23T16:32:47Z</time>
      </trkpt>
      <trkpt lat="43.10902599999996" lon="-1.2829990000000007">
        <ele>270.638</ele>
        <time>2022-08-23T16:32:48Z</time>
      </trkpt>
      <trkpt lat="43.109102999999955" lon="-1.2829210000000006">
        <ele>269.670</ele>
        <time>2022-08-23T16:32:49Z</time>
      </trkpt>
      <trkpt lat="43.10917499999996" lon="-1.2828440000000005">
        <ele>269.217</ele>
        <time>2022-08-23T16:32:50Z</time>
      </trkpt>
      <trkpt lat="43.10923999999996" lon="-1.2827690000000005">
        <ele>268.609</ele>
        <time>2022-08-23T16:32:51Z</time>
      </trkpt>
      <trkpt lat="43.10929899999996" lon="-1.2827030000000006">
        <ele>267.624</ele>
        <time>2022-08-23T16:32:52Z</time>
      </trkpt>
      <trkpt lat="43.10935399999996" lon="-1.2826400000000007">
        <ele>267.244</ele>
        <time>2022-08-23T16:32:53Z</time>
      </trkpt>
      <trkpt lat="43.10939799999996" lon="-1.2825740000000008">
        <ele>266.444</ele>
        <time>2022-08-23T16:32:54Z</time>
      </trkpt>
      <trkpt lat="43.10942099999996" lon="-1.2824980000000008">
        <ele>266.060</ele>
        <time>2022-08-23T16:32:55Z</time>
      </trkpt>
      <trkpt lat="43.10942899999996" lon="-1.2823990000000007">
        <ele>265.422</ele>
        <time>2022-08-23T16:32:56Z</time>
      </trkpt>
      <trkpt lat="43.10942199999997" lon="-1.2823150000000008">
        <ele>264.889</ele>
        <time>2022-08-23T16:32:57Z</time>
      </trkpt>
      <trkpt lat="43.10941499999997" lon="-1.2822310000000008">
        <ele>264.291</ele>
        <time>2022-08-23T16:32:58Z</time>
      </trkpt>
      <trkpt lat="43.10943299999997" lon="-1.282084000000001">
        <ele>263.471</ele>
        <time>2022-08-23T16:33:00Z</time>
      </trkpt>
      <trkpt lat="43.10946599999997" lon="-1.282011000000001">
        <ele>262.830</ele>
        <time>2022-08-23T16:33:01Z</time>
      </trkpt>
      <trkpt lat="43.10951399999997" lon="-1.2819340000000008">
        <ele>262.825</ele>
        <time>2022-08-23T16:33:02Z</time>
      </trkpt>
      <trkpt lat="43.10954999999997" lon="-1.2818840000000007">
        <ele>262.426</ele>
        <time>2022-08-23T16:33:03Z</time>
      </trkpt>
      <trkpt lat="43.10959399999997" lon="-1.2818220000000007">
        <ele>262.408</ele>
        <time>2022-08-23T16:33:04Z</time>
      </trkpt>
      <trkpt lat="43.10963399999997" lon="-1.2817570000000007">
        <ele>262.209</ele>
        <time>2022-08-23T16:33:05Z</time>
      </trkpt>
      <trkpt lat="43.10966699999997" lon="-1.2816860000000008">
        <ele>261.863</ele>
        <time>2022-08-23T16:33:06Z</time>
      </trkpt>
      <trkpt lat="43.10968799999997" lon="-1.2816110000000007">
        <ele>261.873</ele>
        <time>2022-08-23T16:33:07Z</time>
      </trkpt>
      <trkpt lat="43.10969599999997" lon="-1.2815320000000008">
        <ele>261.473</ele>
        <time>2022-08-23T16:33:08Z</time>
      </trkpt>
      <trkpt lat="43.10970299999997" lon="-1.2814570000000007">
        <ele>261.419</ele>
        <time>2022-08-23T16:33:09Z</time>
      </trkpt>
      <trkpt lat="43.10970499999997" lon="-1.2813870000000007">
        <ele>261.281</ele>
        <time>2022-08-23T16:33:10Z</time>
      </trkpt>
      <trkpt lat="43.10970499999997" lon="-1.2813200000000007">
        <ele>261.238</ele>
        <time>2022-08-23T16:33:11Z</time>
      </trkpt>
      <trkpt lat="43.10970199999997" lon="-1.2812580000000007">
        <ele>261.280</ele>
        <time>2022-08-23T16:33:12Z</time>
      </trkpt>
      <trkpt lat="43.10968999999997" lon="-1.2812040000000007">
        <ele>261.010</ele>
        <time>2022-08-23T16:33:13Z</time>
      </trkpt>
      <trkpt lat="43.10967299999997" lon="-1.2811550000000007">
        <ele>261.089</ele>
        <time>2022-08-23T16:33:14Z</time>
      </trkpt>
      <trkpt lat="43.10965299999997" lon="-1.2811070000000007">
        <ele>261.036</ele>
        <time>2022-08-23T16:33:15Z</time>
      </trkpt>
      <trkpt lat="43.109643999999975" lon="-1.2810530000000007">
        <ele>261.017</ele>
        <time>2022-08-23T16:33:16Z</time>
      </trkpt>
      <trkpt lat="43.10965999999998" lon="-1.2809440000000007">
        <ele>260.818</ele>
        <time>2022-08-23T16:33:18Z</time>
      </trkpt>
      <trkpt lat="43.109682999999976" lon="-1.2808990000000007">
        <ele>260.809</ele>
        <time>2022-08-23T16:33:19Z</time>
      </trkpt>
      <trkpt lat="43.10970699999998" lon="-1.2808520000000008">
        <ele>260.894</ele>
        <time>2022-08-23T16:33:20Z</time>
      </trkpt>
      <trkpt lat="43.10973299999998" lon="-1.2808110000000008">
        <ele>260.874</ele>
        <time>2022-08-23T16:33:21Z</time>
      </trkpt>
      <trkpt lat="43.10976099999998" lon="-1.2807740000000007">
        <ele>260.864</ele>
        <time>2022-08-23T16:33:22Z</time>
      </trkpt>
      <trkpt lat="43.10985699999998" lon="-1.2806500000000007">
        <ele>260.850</ele>
        <time>2022-08-23T16:33:25Z</time>
      </trkpt>
      <trkpt lat="43.11002799999998" lon="-1.2804390000000008">
        <ele>260.832</ele>
        <time>2022-08-23T16:33:29Z</time>
      </trkpt>
      <trkpt lat="43.11006699999998" lon="-1.2803840000000009">
        <ele>260.819</ele>
        <time>2022-08-23T16:33:30Z</time>
      </trkpt>
      <trkpt lat="43.11009799999998" lon="-1.2803280000000008">
        <ele>260.831</ele>
        <time>2022-08-23T16:33:31Z</time>
      </trkpt>
      <trkpt lat="43.11012999999998" lon="-1.2802660000000008">
        <ele>260.821</ele>
        <time>2022-08-23T16:33:32Z</time>
      </trkpt>
      <trkpt lat="43.110161999999974" lon="-1.2801990000000008">
        <ele>260.650</ele>
        <time>2022-08-23T16:33:33Z</time>
      </trkpt>
      <trkpt lat="43.11024499999997" lon="-1.2799810000000007">
        <ele>260.064</ele>
        <time>2022-08-23T16:33:36Z</time>
      </trkpt>
      <trkpt lat="43.11030599999997" lon="-1.2798280000000006">
        <ele>259.606</ele>
        <time>2022-08-23T16:33:38Z</time>
      </trkpt>
      <trkpt lat="43.11038299999997" lon="-1.2796750000000006">
        <ele>259.416</ele>
        <time>2022-08-23T16:33:40Z</time>
      </trkpt>
      <trkpt lat="43.11047899999997" lon="-1.2795370000000006">
        <ele>259.209</ele>
        <time>2022-08-23T16:33:42Z</time>
      </trkpt>
      <trkpt lat="43.11058499999997" lon="-1.2793820000000007">
        <ele>259.067</ele>
        <time>2022-08-23T16:33:44Z</time>
      </trkpt>
      <trkpt lat="43.110653999999975" lon="-1.2792210000000006">
        <ele>258.267</ele>
        <time>2022-08-23T16:33:46Z</time>
      </trkpt>
      <trkpt lat="43.110715999999975" lon="-1.2790150000000007">
        <ele>257.027</ele>
        <time>2022-08-23T16:33:48Z</time>
      </trkpt>
      <trkpt lat="43.11077999999998" lon="-1.2788120000000007">
        <ele>256.223</ele>
        <time>2022-08-23T16:33:50Z</time>
      </trkpt>
      <trkpt lat="43.11081799999998" lon="-1.2787160000000006">
        <ele>256.045</ele>
        <time>2022-08-23T16:33:51Z</time>
      </trkpt>
      <trkpt lat="43.11085699999998" lon="-1.2786310000000007">
        <ele>255.652</ele>
        <time>2022-08-23T16:33:52Z</time>
      </trkpt>
      <trkpt lat="43.11090799999998" lon="-1.2785550000000008">
        <ele>255.434</ele>
        <time>2022-08-23T16:33:53Z</time>
      </trkpt>
      <trkpt lat="43.11096199999998" lon="-1.2784940000000007">
        <ele>255.224</ele>
        <time>2022-08-23T16:33:54Z</time>
      </trkpt>
      <trkpt lat="43.11101499999998" lon="-1.2784480000000007">
        <ele>255.253</ele>
        <time>2022-08-23T16:33:55Z</time>
      </trkpt>
      <trkpt lat="43.11107299999998" lon="-1.2784080000000007">
        <ele>255.225</ele>
        <time>2022-08-23T16:33:56Z</time>
      </trkpt>
      <trkpt lat="43.11113299999998" lon="-1.2783750000000007">
        <ele>255.226</ele>
        <time>2022-08-23T16:33:57Z</time>
      </trkpt>
      <trkpt lat="43.11119399999998" lon="-1.2783410000000006">
        <ele>255.008</ele>
        <time>2022-08-23T16:33:58Z</time>
      </trkpt>
      <trkpt lat="43.111254999999986" lon="-1.2783110000000006">
        <ele>255.209</ele>
        <time>2022-08-23T16:33:59Z</time>
      </trkpt>
      <trkpt lat="43.111361999999986" lon="-1.2782190000000007">
        <ele>255.273</ele>
        <time>2022-08-23T16:34:01Z</time>
      </trkpt>
      <trkpt lat="43.11141399999998" lon="-1.2781700000000007">
        <ele>255.223</ele>
        <time>2022-08-23T16:34:02Z</time>
      </trkpt>
      <trkpt lat="43.111460999999984" lon="-1.2781180000000008">
        <ele>255.223</ele>
        <time>2022-08-23T16:34:03Z</time>
      </trkpt>
      <trkpt lat="43.111508999999984" lon="-1.2780670000000007">
        <ele>255.489</ele>
        <time>2022-08-23T16:34:04Z</time>
      </trkpt>
      <trkpt lat="43.111553999999984" lon="-1.2780160000000007">
        <ele>255.421</ele>
        <time>2022-08-23T16:34:05Z</time>
      </trkpt>
      <trkpt lat="43.111595999999984" lon="-1.2779630000000006">
        <ele>255.428</ele>
        <time>2022-08-23T16:34:06Z</time>
      </trkpt>
      <trkpt lat="43.11163599999998" lon="-1.2779080000000007">
        <ele>255.620</ele>
        <time>2022-08-23T16:34:07Z</time>
      </trkpt>
      <trkpt lat="43.111719999999984" lon="-1.2777970000000007">
        <ele>255.650</ele>
        <time>2022-08-23T16:34:09Z</time>
      </trkpt>
      <trkpt lat="43.11175999999998" lon="-1.2777410000000007">
        <ele>255.829</ele>
        <time>2022-08-23T16:34:10Z</time>
      </trkpt>
      <trkpt lat="43.11179999999998" lon="-1.2776900000000007">
        <ele>256.037</ele>
        <time>2022-08-23T16:34:11Z</time>
      </trkpt>
      <trkpt lat="43.111837999999985" lon="-1.2776390000000006">
        <ele>256.049</ele>
        <time>2022-08-23T16:34:12Z</time>
      </trkpt>
      <trkpt lat="43.111876999999986" lon="-1.2775870000000007">
        <ele>256.213</ele>
        <time>2022-08-23T16:34:13Z</time>
      </trkpt>
      <trkpt lat="43.11191799999999" lon="-1.2775390000000006">
        <ele>256.409</ele>
        <time>2022-08-23T16:34:14Z</time>
      </trkpt>
      <trkpt lat="43.11195799999999" lon="-1.2774930000000007">
        <ele>256.664</ele>
        <time>2022-08-23T16:34:15Z</time>
      </trkpt>
      <trkpt lat="43.11199699999999" lon="-1.2774500000000006">
        <ele>256.694</ele>
        <time>2022-08-23T16:34:16Z</time>
      </trkpt>
      <trkpt lat="43.11203499999999" lon="-1.2774070000000006">
        <ele>256.854</ele>
        <time>2022-08-23T16:34:17Z</time>
      </trkpt>
      <trkpt lat="43.112072999999995" lon="-1.2773640000000006">
        <ele>256.860</ele>
        <time>2022-08-23T16:34:18Z</time>
      </trkpt>
      <trkpt lat="43.11210799999999" lon="-1.2773180000000006">
        <ele>256.842</ele>
        <time>2022-08-23T16:34:19Z</time>
      </trkpt>
      <trkpt lat="43.11214799999999" lon="-1.2772760000000005">
        <ele>257.269</ele>
        <time>2022-08-23T16:34:20Z</time>
      </trkpt>
      <trkpt lat="43.11223599999999" lon="-1.2771970000000006">
        <ele>257.451</ele>
        <time>2022-08-23T16:34:22Z</time>
      </trkpt>
      <trkpt lat="43.11252099999999" lon="-1.2769300000000006">
        <ele>257.431</ele>
        <time>2022-08-23T16:34:28Z</time>
      </trkpt>
      <trkpt lat="43.11257299999998" lon="-1.2768700000000006">
        <ele>257.270</ele>
        <time>2022-08-23T16:34:29Z</time>
      </trkpt>
      <trkpt lat="43.11261099999999" lon="-1.2768100000000007">
        <ele>257.227</ele>
        <time>2022-08-23T16:34:30Z</time>
      </trkpt>
      <trkpt lat="43.11264899999999" lon="-1.2767480000000007">
        <ele>257.068</ele>
        <time>2022-08-23T16:34:31Z</time>
      </trkpt>
      <trkpt lat="43.11268599999999" lon="-1.2766900000000008">
        <ele>256.814</ele>
        <time>2022-08-23T16:34:32Z</time>
      </trkpt>
      <trkpt lat="43.11278499999999" lon="-1.2764970000000007">
        <ele>256.609</ele>
        <time>2022-08-23T16:34:35Z</time>
      </trkpt>
      <trkpt lat="43.11281599999999" lon="-1.2764300000000006">
        <ele>256.693</ele>
        <time>2022-08-23T16:34:36Z</time>
      </trkpt>
      <trkpt lat="43.11286699999999" lon="-1.2762910000000007">
        <ele>256.853</ele>
        <time>2022-08-23T16:34:38Z</time>
      </trkpt>
      <trkpt lat="43.112887999999984" lon="-1.2762180000000007">
        <ele>256.823</ele>
        <time>2022-08-23T16:34:39Z</time>
      </trkpt>
      <trkpt lat="43.112903999999986" lon="-1.2761450000000008">
        <ele>256.849</ele>
        <time>2022-08-23T16:34:40Z</time>
      </trkpt>
      <trkpt lat="43.11291499999999" lon="-1.2760690000000008">
        <ele>257.041</ele>
        <time>2022-08-23T16:34:41Z</time>
      </trkpt>
      <trkpt lat="43.11293899999999" lon="-1.2758480000000008">
        <ele>257.418</ele>
        <time>2022-08-23T16:34:44Z</time>
      </trkpt>
      <trkpt lat="43.11294399999999" lon="-1.2757760000000007">
        <ele>257.470</ele>
        <time>2022-08-23T16:34:45Z</time>
      </trkpt>
      <trkpt lat="43.11294999999999" lon="-1.2757040000000006">
        <ele>257.430</ele>
        <time>2022-08-23T16:34:46Z</time>
      </trkpt>
      <trkpt lat="43.11295499999999" lon="-1.2756350000000005">
        <ele>257.619</ele>
        <time>2022-08-23T16:34:47Z</time>
      </trkpt>
      <trkpt lat="43.11296299999999" lon="-1.2755690000000006">
        <ele>257.633</ele>
        <time>2022-08-23T16:34:48Z</time>
      </trkpt>
      <trkpt lat="43.11296999999999" lon="-1.2755050000000006">
        <ele>257.823</ele>
        <time>2022-08-23T16:34:49Z</time>
      </trkpt>
      <trkpt lat="43.11297399999999" lon="-1.2754430000000005">
        <ele>258.015</ele>
        <time>2022-08-23T16:34:50Z</time>
      </trkpt>
      <trkpt lat="43.112977999999984" lon="-1.2753800000000006">
        <ele>258.009</ele>
        <time>2022-08-23T16:34:51Z</time>
      </trkpt>
      <trkpt lat="43.112996999999986" lon="-1.2752550000000007">
        <ele>258.434</ele>
        <time>2022-08-23T16:34:53Z</time>
      </trkpt>
      <trkpt lat="43.11302899999998" lon="-1.2750600000000007">
        <ele>259.464</ele>
        <time>2022-08-23T16:34:56Z</time>
      </trkpt>
      <trkpt lat="43.11307399999998" lon="-1.2748580000000007">
        <ele>259.444</ele>
        <time>2022-08-23T16:34:59Z</time>
      </trkpt>
      <trkpt lat="43.113089999999985" lon="-1.2747920000000008">
        <ele>259.650</ele>
        <time>2022-08-23T16:35:00Z</time>
      </trkpt>
      <trkpt lat="43.11310599999999" lon="-1.2747280000000007">
        <ele>259.672</ele>
        <time>2022-08-23T16:35:01Z</time>
      </trkpt>
      <trkpt lat="43.113120999999985" lon="-1.2746650000000008">
        <ele>259.639</ele>
        <time>2022-08-23T16:35:02Z</time>
      </trkpt>
      <trkpt lat="43.11313699999999" lon="-1.2746030000000008">
        <ele>259.891</ele>
        <time>2022-08-23T16:35:03Z</time>
      </trkpt>
      <trkpt lat="43.11315899999999" lon="-1.2745430000000009">
        <ele>259.831</ele>
        <time>2022-08-23T16:35:04Z</time>
      </trkpt>
      <trkpt lat="43.11318899999999" lon="-1.2744630000000008">
        <ele>260.080</ele>
        <time>2022-08-23T16:35:05Z</time>
      </trkpt>
      <trkpt lat="43.11320899999999" lon="-1.2744100000000007">
        <ele>260.271</ele>
        <time>2022-08-23T16:35:06Z</time>
      </trkpt>
      <trkpt lat="43.11323599999999" lon="-1.2743430000000007">
        <ele>260.441</ele>
        <time>2022-08-23T16:35:07Z</time>
      </trkpt>
      <trkpt lat="43.113262999999996" lon="-1.2742740000000006">
        <ele>260.615</ele>
        <time>2022-08-23T16:35:08Z</time>
      </trkpt>
      <trkpt lat="43.113293999999996" lon="-1.2742030000000006">
        <ele>260.609</ele>
        <time>2022-08-23T16:35:09Z</time>
      </trkpt>
      <trkpt lat="43.113333999999995" lon="-1.2741130000000007">
        <ele>260.688</ele>
        <time>2022-08-23T16:35:10Z</time>
      </trkpt>
      <trkpt lat="43.113361999999995" lon="-1.2740510000000007">
        <ele>260.688</ele>
        <time>2022-08-23T16:35:11Z</time>
      </trkpt>
      <trkpt lat="43.11339699999999" lon="-1.2739730000000007">
        <ele>260.698</ele>
        <time>2022-08-23T16:35:12Z</time>
      </trkpt>
      <trkpt lat="43.11343999999999" lon="-1.2738930000000006">
        <ele>260.674</ele>
        <time>2022-08-23T16:35:13Z</time>
      </trkpt>
      <trkpt lat="43.11350599999999" lon="-1.2738010000000006">
        <ele>260.666</ele>
        <time>2022-08-23T16:35:14Z</time>
      </trkpt>
      <trkpt lat="43.11356999999999" lon="-1.2737340000000006">
        <ele>260.283</ele>
        <time>2022-08-23T16:35:15Z</time>
      </trkpt>
      <trkpt lat="43.11362699999999" lon="-1.2736840000000005">
        <ele>260.065</ele>
        <time>2022-08-23T16:35:16Z</time>
      </trkpt>
      <trkpt lat="43.113697999999985" lon="-1.2736270000000005">
        <ele>259.625</ele>
        <time>2022-08-23T16:35:17Z</time>
      </trkpt>
      <trkpt lat="43.11377299999999" lon="-1.2735760000000005">
        <ele>259.274</ele>
        <time>2022-08-23T16:35:18Z</time>
      </trkpt>
      <trkpt lat="43.11387399999999" lon="-1.2735070000000004">
        <ele>258.664</ele>
        <time>2022-08-23T16:35:19Z</time>
      </trkpt>
      <trkpt lat="43.11394599999999" lon="-1.2734630000000005">
        <ele>258.406</ele>
        <time>2022-08-23T16:35:20Z</time>
      </trkpt>
      <trkpt lat="43.11412099999999" lon="-1.2733170000000005">
        <ele>257.416</ele>
        <time>2022-08-23T16:35:22Z</time>
      </trkpt>
      <trkpt lat="43.11447099999999" lon="-1.2730880000000004">
        <ele>256.009</ele>
        <time>2022-08-23T16:35:26Z</time>
      </trkpt>
      <trkpt lat="43.11473299999999" lon="-1.2730110000000003">
        <ele>255.097</ele>
        <time>2022-08-23T16:35:29Z</time>
      </trkpt>
      <trkpt lat="43.114842999999986" lon="-1.2730060000000003">
        <ele>254.617</ele>
        <time>2022-08-23T16:35:30Z</time>
      </trkpt>
      <trkpt lat="43.11512899999999" lon="-1.2729010000000003">
        <ele>253.477</ele>
        <time>2022-08-23T16:35:33Z</time>
      </trkpt>
      <trkpt lat="43.11522799999999" lon="-1.2728730000000004">
        <ele>253.283</ele>
        <time>2022-08-23T16:35:34Z</time>
      </trkpt>
      <trkpt lat="43.11534099999999" lon="-1.2728200000000003">
        <ele>252.655</ele>
        <time>2022-08-23T16:35:35Z</time>
      </trkpt>
      <trkpt lat="43.115425999999985" lon="-1.2727590000000002">
        <ele>252.022</ele>
        <time>2022-08-23T16:35:36Z</time>
      </trkpt>
      <trkpt lat="43.115504999999985" lon="-1.2726870000000001">
        <ele>251.834</ele>
        <time>2022-08-23T16:35:37Z</time>
      </trkpt>
      <trkpt lat="43.11556499999998" lon="-1.2726210000000002">
        <ele>251.074</ele>
        <time>2022-08-23T16:35:38Z</time>
      </trkpt>
      <trkpt lat="43.11563099999998" lon="-1.2725320000000002">
        <ele>250.653</ele>
        <time>2022-08-23T16:35:39Z</time>
      </trkpt>
      <trkpt lat="43.11569199999998" lon="-1.2724370000000003">
        <ele>250.091</ele>
        <time>2022-08-23T16:35:40Z</time>
      </trkpt>
      <trkpt lat="43.115749999999984" lon="-1.2723340000000003">
        <ele>250.081</ele>
        <time>2022-08-23T16:35:41Z</time>
      </trkpt>
      <trkpt lat="43.115802999999985" lon="-1.2722240000000002">
        <ele>249.419</ele>
        <time>2022-08-23T16:35:42Z</time>
      </trkpt>
      <trkpt lat="43.115895999999985" lon="-1.2720060000000002">
        <ele>248.809</ele>
        <time>2022-08-23T16:35:44Z</time>
      </trkpt>
      <trkpt lat="43.115948999999986" lon="-1.2718790000000002">
        <ele>248.630</ele>
        <time>2022-08-23T16:35:45Z</time>
      </trkpt>
      <trkpt lat="43.11598799999999" lon="-1.2717730000000003">
        <ele>248.420</ele>
        <time>2022-08-23T16:35:46Z</time>
      </trkpt>
      <trkpt lat="43.11606099999999" lon="-1.2715830000000004">
        <ele>247.860</ele>
        <time>2022-08-23T16:35:48Z</time>
      </trkpt>
      <trkpt lat="43.11609999999999" lon="-1.2714840000000003">
        <ele>247.876</ele>
        <time>2022-08-23T16:35:49Z</time>
      </trkpt>
      <trkpt lat="43.116134999999986" lon="-1.2713840000000003">
        <ele>247.658</ele>
        <time>2022-08-23T16:35:50Z</time>
      </trkpt>
      <trkpt lat="43.11625499999999" lon="-1.2709510000000004">
        <ele>247.275</ele>
        <time>2022-08-23T16:35:54Z</time>
      </trkpt>
      <trkpt lat="43.11633699999999" lon="-1.2707090000000003">
        <ele>247.077</ele>
        <time>2022-08-23T16:35:56Z</time>
      </trkpt>
      <trkpt lat="43.11638499999999" lon="-1.2706120000000003">
        <ele>247.077</ele>
        <time>2022-08-23T16:35:57Z</time>
      </trkpt>
      <trkpt lat="43.11643799999999" lon="-1.2705230000000003">
        <ele>246.826</ele>
        <time>2022-08-23T16:35:58Z</time>
      </trkpt>
      <trkpt lat="43.116483999999986" lon="-1.2704620000000002">
        <ele>246.263</ele>
        <time>2022-08-23T16:35:59Z</time>
      </trkpt>
      <trkpt lat="43.11654499999999" lon="-1.2703940000000002">
        <ele>246.044</ele>
        <time>2022-08-23T16:36:00Z</time>
      </trkpt>
      <trkpt lat="43.116607999999985" lon="-1.2703320000000002">
        <ele>245.418</ele>
        <time>2022-08-23T16:36:01Z</time>
      </trkpt>
      <trkpt lat="43.116736999999986" lon="-1.2702130000000003">
        <ele>244.609</ele>
        <time>2022-08-23T16:36:03Z</time>
      </trkpt>
      <trkpt lat="43.116804999999985" lon="-1.2701600000000002">
        <ele>244.497</ele>
        <time>2022-08-23T16:36:04Z</time>
      </trkpt>
      <trkpt lat="43.11703199999999" lon="-1.2700630000000002">
        <ele>244.077</ele>
        <time>2022-08-23T16:36:07Z</time>
      </trkpt>
      <trkpt lat="43.11726799999999" lon="-1.269999">
        <ele>243.227</ele>
        <time>2022-08-23T16:36:10Z</time>
      </trkpt>
      <trkpt lat="43.11734899999999" lon="-1.269981">
        <ele>243.073</ele>
        <time>2022-08-23T16:36:11Z</time>
      </trkpt>
      <trkpt lat="43.11742499999999" lon="-1.269958">
        <ele>242.885</ele>
        <time>2022-08-23T16:36:12Z</time>
      </trkpt>
      <trkpt lat="43.11752199999999" lon="-1.269931">
        <ele>242.642</ele>
        <time>2022-08-23T16:36:13Z</time>
      </trkpt>
      <trkpt lat="43.11759199999999" lon="-1.269909">
        <ele>242.694</ele>
        <time>2022-08-23T16:36:14Z</time>
      </trkpt>
      <trkpt lat="43.11766099999999" lon="-1.2698859999999998">
        <ele>242.244</ele>
        <time>2022-08-23T16:36:15Z</time>
      </trkpt>
      <trkpt lat="43.117957999999994" lon="-1.2698089999999997">
        <ele>241.453</ele>
        <time>2022-08-23T16:36:19Z</time>
      </trkpt>
      <trkpt lat="43.118016999999995" lon="-1.2697919999999998">
        <ele>241.266</ele>
        <time>2022-08-23T16:36:20Z</time>
      </trkpt>
      <trkpt lat="43.11810199999999" lon="-1.2697679999999998">
        <ele>241.229</ele>
        <time>2022-08-23T16:36:21Z</time>
      </trkpt>
      <trkpt lat="43.118154999999994" lon="-1.2697549999999997">
        <ele>241.021</ele>
        <time>2022-08-23T16:36:22Z</time>
      </trkpt>
      <trkpt lat="43.11822099999999" lon="-1.2697409999999998">
        <ele>241.009</ele>
        <time>2022-08-23T16:36:23Z</time>
      </trkpt>
      <trkpt lat="43.11829799999999" lon="-1.2697219999999998">
        <ele>241.097</ele>
        <time>2022-08-23T16:36:24Z</time>
      </trkpt>
      <trkpt lat="43.11834899999999" lon="-1.2697039999999997">
        <ele>241.087</ele>
        <time>2022-08-23T16:36:25Z</time>
      </trkpt>
      <trkpt lat="43.11840999999999" lon="-1.2696899999999998">
        <ele>241.017</ele>
        <time>2022-08-23T16:36:26Z</time>
      </trkpt>
      <trkpt lat="43.11846999999999" lon="-1.2696789999999998">
        <ele>241.223</ele>
        <time>2022-08-23T16:36:27Z</time>
      </trkpt>
      <trkpt lat="43.118712999999985" lon="-1.2696329999999998">
        <ele>241.475</ele>
        <time>2022-08-23T16:36:31Z</time>
      </trkpt>
      <trkpt lat="43.11884899999998" lon="-1.2696169999999998">
        <ele>241.632</ele>
        <time>2022-08-23T16:36:33Z</time>
      </trkpt>
      <trkpt lat="43.119103999999986" lon="-1.2696049999999999">
        <ele>242.044</ele>
        <time>2022-08-23T16:36:37Z</time>
      </trkpt>
      <trkpt lat="43.119300999999986" lon="-1.2695809999999998">
        <ele>242.274</ele>
        <time>2022-08-23T16:36:40Z</time>
      </trkpt>
      <trkpt lat="43.119416999999984" lon="-1.2695589999999999">
        <ele>242.243</ele>
        <time>2022-08-23T16:36:42Z</time>
      </trkpt>
      <trkpt lat="43.119480999999986" lon="-1.2695509999999999">
        <ele>242.414</ele>
        <time>2022-08-23T16:36:43Z</time>
      </trkpt>
      <trkpt lat="43.11954499999999" lon="-1.2695379999999998">
        <ele>242.654</ele>
        <time>2022-08-23T16:36:44Z</time>
      </trkpt>
      <trkpt lat="43.11960899999999" lon="-1.269526">
        <ele>242.609</ele>
        <time>2022-08-23T16:36:45Z</time>
      </trkpt>
      <trkpt lat="43.11966999999999" lon="-1.269517">
        <ele>242.609</ele>
        <time>2022-08-23T16:36:46Z</time>
      </trkpt>
      <trkpt lat="43.11973299999999" lon="-1.269506">
        <ele>242.642</ele>
        <time>2022-08-23T16:36:47Z</time>
      </trkpt>
      <trkpt lat="43.11979299999999" lon="-1.2694940000000001">
        <ele>242.892</ele>
        <time>2022-08-23T16:36:48Z</time>
      </trkpt>
      <trkpt lat="43.11985499999999" lon="-1.269481">
        <ele>242.872</ele>
        <time>2022-08-23T16:36:49Z</time>
      </trkpt>
      <trkpt lat="43.12003799999999" lon="-1.269455">
        <ele>243.048</ele>
        <time>2022-08-23T16:36:52Z</time>
      </trkpt>
      <trkpt lat="43.12009899999999" lon="-1.269445">
        <ele>243.090</ele>
        <time>2022-08-23T16:36:53Z</time>
      </trkpt>
      <trkpt lat="43.12028699999999" lon="-1.269414">
        <ele>243.217</ele>
        <time>2022-08-23T16:36:56Z</time>
      </trkpt>
      <trkpt lat="43.12042099999999" lon="-1.269407">
        <ele>243.289</ele>
        <time>2022-08-23T16:36:58Z</time>
      </trkpt>
      <trkpt lat="43.12058199999999" lon="-1.269414">
        <ele>243.269</ele>
        <time>2022-08-23T16:37:00Z</time>
      </trkpt>
      <trkpt lat="43.120712999999995" lon="-1.269465">
        <ele>243.028</ele>
        <time>2022-08-23T16:37:02Z</time>
      </trkpt>
      <trkpt lat="43.120788" lon="-1.269496">
        <ele>243.061</ele>
        <time>2022-08-23T16:37:03Z</time>
      </trkpt>
      <trkpt lat="43.120863" lon="-1.269529">
        <ele>242.821</ele>
        <time>2022-08-23T16:37:04Z</time>
      </trkpt>
      <trkpt lat="43.121182" lon="-1.2696749999999999">
        <ele>242.213</ele>
        <time>2022-08-23T16:37:08Z</time>
      </trkpt>
      <trkpt lat="43.121266" lon="-1.2697079999999998">
        <ele>241.609</ele>
        <time>2022-08-23T16:37:09Z</time>
      </trkpt>
      <trkpt lat="43.121536" lon="-1.2697979999999998">
        <ele>240.627</ele>
        <time>2022-08-23T16:37:12Z</time>
      </trkpt>
      <trkpt lat="43.121722" lon="-1.2698579999999997">
        <ele>239.637</ele>
        <time>2022-08-23T16:37:14Z</time>
      </trkpt>
      <trkpt lat="43.121812999999996" lon="-1.2698989999999997">
        <ele>239.287</ele>
        <time>2022-08-23T16:37:15Z</time>
      </trkpt>
      <trkpt lat="43.121897999999995" lon="-1.2699509999999996">
        <ele>238.693</ele>
        <time>2022-08-23T16:37:16Z</time>
      </trkpt>
      <trkpt lat="43.121981999999996" lon="-1.2700029999999995">
        <ele>237.815</ele>
        <time>2022-08-23T16:37:17Z</time>
      </trkpt>
      <trkpt lat="43.12206" lon="-1.2700529999999997">
        <ele>237.442</ele>
        <time>2022-08-23T16:37:18Z</time>
      </trkpt>
      <trkpt lat="43.122136999999995" lon="-1.2700999999999996">
        <ele>237.254</ele>
        <time>2022-08-23T16:37:19Z</time>
      </trkpt>
      <trkpt lat="43.122212" lon="-1.2701419999999997">
        <ele>237.054</ele>
        <time>2022-08-23T16:37:20Z</time>
      </trkpt>
      <trkpt lat="43.122282999999996" lon="-1.2701779999999996">
        <ele>237.043</ele>
        <time>2022-08-23T16:37:21Z</time>
      </trkpt>
      <trkpt lat="43.122364999999995" lon="-1.2702139999999995">
        <ele>237.081</ele>
        <time>2022-08-23T16:37:22Z</time>
      </trkpt>
      <trkpt lat="43.12242" lon="-1.2702259999999994">
        <ele>237.061</ele>
        <time>2022-08-23T16:37:23Z</time>
      </trkpt>
      <trkpt lat="43.12249" lon="-1.2702349999999993">
        <ele>237.017</ele>
        <time>2022-08-23T16:37:24Z</time>
      </trkpt>
      <trkpt lat="43.122559" lon="-1.2702409999999993">
        <ele>237.009</ele>
        <time>2022-08-23T16:37:25Z</time>
      </trkpt>
      <trkpt lat="43.122834000000005" lon="-1.2702119999999992">
        <ele>237.289</ele>
        <time>2022-08-23T16:37:29Z</time>
      </trkpt>
      <trkpt lat="43.122977000000006" lon="-1.2701789999999993">
        <ele>237.219</ele>
        <time>2022-08-23T16:37:31Z</time>
      </trkpt>
      <trkpt lat="43.123270000000005" lon="-1.2700719999999992">
        <ele>237.279</ele>
        <time>2022-08-23T16:37:35Z</time>
      </trkpt>
      <trkpt lat="43.123419000000005" lon="-1.2700039999999992">
        <ele>237.055</ele>
        <time>2022-08-23T16:37:37Z</time>
      </trkpt>
      <trkpt lat="43.123492000000006" lon="-1.2699749999999992">
        <ele>236.657</ele>
        <time>2022-08-23T16:37:38Z</time>
      </trkpt>
      <trkpt lat="43.123923000000005" lon="-1.2697989999999992">
        <ele>235.634</ele>
        <time>2022-08-23T16:37:44Z</time>
      </trkpt>
      <trkpt lat="43.123996000000005" lon="-1.2697699999999992">
        <ele>235.426</ele>
        <time>2022-08-23T16:37:45Z</time>
      </trkpt>
      <trkpt lat="43.124546" lon="-1.2695609999999993">
        <ele>234.436</ele>
        <time>2022-08-23T16:37:52Z</time>
      </trkpt>
      <trkpt lat="43.124626" lon="-1.2695309999999993">
        <ele>234.245</ele>
        <time>2022-08-23T16:37:53Z</time>
      </trkpt>
      <trkpt lat="43.124871999999996" lon="-1.2694309999999993">
        <ele>233.461</ele>
        <time>2022-08-23T16:37:56Z</time>
      </trkpt>
      <trkpt lat="43.125288" lon="-1.2692679999999994">
        <ele>232.421</ele>
        <time>2022-08-23T16:38:01Z</time>
      </trkpt>
      <trkpt lat="43.125457999999995" lon="-1.2691969999999995">
        <ele>231.813</ele>
        <time>2022-08-23T16:38:03Z</time>
      </trkpt>
      <trkpt lat="43.1258" lon="-1.2690659999999994">
        <ele>231.409</ele>
        <time>2022-08-23T16:38:07Z</time>
      </trkpt>
      <trkpt lat="43.125882" lon="-1.2690379999999994">
        <ele>231.267</ele>
        <time>2022-08-23T16:38:08Z</time>
      </trkpt>
      <trkpt lat="43.125961" lon="-1.2690059999999994">
        <ele>231.287</ele>
        <time>2022-08-23T16:38:09Z</time>
      </trkpt>
      <trkpt lat="43.126037" lon="-1.2689719999999993">
        <ele>231.087</ele>
        <time>2022-08-23T16:38:10Z</time>
      </trkpt>
      <trkpt lat="43.126104" lon="-1.2689339999999993">
        <ele>230.863</ele>
        <time>2022-08-23T16:38:11Z</time>
      </trkpt>
      <trkpt lat="43.126172" lon="-1.2688909999999993">
        <ele>230.835</ele>
        <time>2022-08-23T16:38:12Z</time>
      </trkpt>
      <trkpt lat="43.126534" lon="-1.2686859999999993">
        <ele>230.642</ele>
        <time>2022-08-23T16:38:17Z</time>
      </trkpt>
      <trkpt lat="43.126608" lon="-1.2686559999999993">
        <ele>230.624</ele>
        <time>2022-08-23T16:38:18Z</time>
      </trkpt>
      <trkpt lat="43.126915" lon="-1.2685649999999993">
        <ele>230.474</ele>
        <time>2022-08-23T16:38:22Z</time>
      </trkpt>
      <trkpt lat="43.12699" lon="-1.2685479999999993">
        <ele>230.433</ele>
        <time>2022-08-23T16:38:23Z</time>
      </trkpt>
      <trkpt lat="43.127141" lon="-1.2685209999999993">
        <ele>230.077</ele>
        <time>2022-08-23T16:38:25Z</time>
      </trkpt>
      <trkpt lat="43.127374" lon="-1.2684849999999994">
        <ele>229.661</ele>
        <time>2022-08-23T16:38:28Z</time>
      </trkpt>
      <trkpt lat="43.12745" lon="-1.2684679999999995">
        <ele>229.627</ele>
        <time>2022-08-23T16:38:29Z</time>
      </trkpt>
      <trkpt lat="43.127749" lon="-1.2683239999999996">
        <ele>229.209</ele>
        <time>2022-08-23T16:38:33Z</time>
      </trkpt>
      <trkpt lat="43.127907" lon="-1.2682599999999995">
        <ele>229.088</ele>
        <time>2022-08-23T16:38:35Z</time>
      </trkpt>
      <trkpt lat="43.128299" lon="-1.2680989999999994">
        <ele>228.628</ele>
        <time>2022-08-23T16:38:40Z</time>
      </trkpt>
      <trkpt lat="43.128448999999996" lon="-1.2680269999999993">
        <ele>228.438</ele>
        <time>2022-08-23T16:38:42Z</time>
      </trkpt>
      <trkpt lat="43.128518" lon="-1.2679929999999993">
        <ele>228.294</ele>
        <time>2022-08-23T16:38:43Z</time>
      </trkpt>
      <trkpt lat="43.128583" lon="-1.2679549999999993">
        <ele>228.216</ele>
        <time>2022-08-23T16:38:44Z</time>
      </trkpt>
      <trkpt lat="43.128717" lon="-1.2678639999999992">
        <ele>227.823</ele>
        <time>2022-08-23T16:38:46Z</time>
      </trkpt>
      <trkpt lat="43.128781000000004" lon="-1.2678129999999992">
        <ele>227.845</ele>
        <time>2022-08-23T16:38:47Z</time>
      </trkpt>
      <trkpt lat="43.128841" lon="-1.2677569999999991">
        <ele>227.695</ele>
        <time>2022-08-23T16:38:48Z</time>
      </trkpt>
      <trkpt lat="43.1289" lon="-1.267695999999999">
        <ele>227.624</ele>
        <time>2022-08-23T16:38:49Z</time>
      </trkpt>
      <trkpt lat="43.128954" lon="-1.2676299999999991">
        <ele>227.668</ele>
        <time>2022-08-23T16:38:50Z</time>
      </trkpt>
      <trkpt lat="43.129005" lon="-1.267562999999999">
        <ele>227.642</ele>
        <time>2022-08-23T16:38:51Z</time>
      </trkpt>
      <trkpt lat="43.129052" lon="-1.2674999999999992">
        <ele>227.626</ele>
        <time>2022-08-23T16:38:52Z</time>
      </trkpt>
      <trkpt lat="43.129099000000004" lon="-1.2674399999999992">
        <ele>227.609</ele>
        <time>2022-08-23T16:38:53Z</time>
      </trkpt>
      <trkpt lat="43.129148" lon="-1.2673839999999992">
        <ele>227.687</ele>
        <time>2022-08-23T16:38:54Z</time>
      </trkpt>
      <trkpt lat="43.129194" lon="-1.2673259999999993">
        <ele>227.827</ele>
        <time>2022-08-23T16:38:55Z</time>
      </trkpt>
      <trkpt lat="43.129242" lon="-1.2672729999999992">
        <ele>227.877</ele>
        <time>2022-08-23T16:38:56Z</time>
      </trkpt>
      <trkpt lat="43.129286" lon="-1.267222999999999">
        <ele>228.073</ele>
        <time>2022-08-23T16:38:57Z</time>
      </trkpt>
      <trkpt lat="43.129332" lon="-1.267182999999999">
        <ele>228.025</ele>
        <time>2022-08-23T16:38:58Z</time>
      </trkpt>
      <trkpt lat="43.129376" lon="-1.267142999999999">
        <ele>228.252</ele>
        <time>2022-08-23T16:38:59Z</time>
      </trkpt>
      <trkpt lat="43.129418" lon="-1.267118999999999">
        <ele>228.494</ele>
        <time>2022-08-23T16:39:00Z</time>
      </trkpt>
      <trkpt lat="43.129464" lon="-1.267099999999999">
        <ele>228.464</ele>
        <time>2022-08-23T16:39:01Z</time>
      </trkpt>
      <trkpt lat="43.129507" lon="-1.267076999999999">
        <ele>228.673</ele>
        <time>2022-08-23T16:39:02Z</time>
      </trkpt>
      <trkpt lat="43.129548" lon="-1.2670509999999988">
        <ele>228.834</ele>
        <time>2022-08-23T16:39:03Z</time>
      </trkpt>
      <trkpt lat="43.129585" lon="-1.267014999999999">
        <ele>229.255</ele>
        <time>2022-08-23T16:39:04Z</time>
      </trkpt>
      <trkpt lat="43.12963" lon="-1.2669909999999989">
        <ele>229.210</ele>
        <time>2022-08-23T16:39:05Z</time>
      </trkpt>
      <trkpt lat="43.129678999999996" lon="-1.2669649999999988">
        <ele>229.809</ele>
        <time>2022-08-23T16:39:06Z</time>
      </trkpt>
      <trkpt lat="43.129726" lon="-1.2669399999999988">
        <ele>230.274</ele>
        <time>2022-08-23T16:39:07Z</time>
      </trkpt>
      <trkpt lat="43.129877" lon="-1.266879999999999">
        <ele>230.854</ele>
        <time>2022-08-23T16:39:10Z</time>
      </trkpt>
      <trkpt lat="43.12994" lon="-1.2668699999999988">
        <ele>231.054</ele>
        <time>2022-08-23T16:39:11Z</time>
      </trkpt>
      <trkpt lat="43.130064999999995" lon="-1.2668379999999988">
        <ele>231.250</ele>
        <time>2022-08-23T16:39:13Z</time>
      </trkpt>
      <trkpt lat="43.130134" lon="-1.2668409999999988">
        <ele>231.242</ele>
        <time>2022-08-23T16:39:14Z</time>
      </trkpt>
      <trkpt lat="43.130198" lon="-1.2668229999999987">
        <ele>231.229</ele>
        <time>2022-08-23T16:39:15Z</time>
      </trkpt>
      <trkpt lat="43.130269" lon="-1.2667919999999988">
        <ele>231.231</ele>
        <time>2022-08-23T16:39:16Z</time>
      </trkpt>
      <trkpt lat="43.130345999999996" lon="-1.266736999999999">
        <ele>231.241</ele>
        <time>2022-08-23T16:39:17Z</time>
      </trkpt>
      <trkpt lat="43.130433" lon="-1.266716999999999">
        <ele>231.260</ele>
        <time>2022-08-23T16:39:18Z</time>
      </trkpt>
      <trkpt lat="43.130494999999996" lon="-1.266712999999999">
        <ele>231.096</ele>
        <time>2022-08-23T16:39:19Z</time>
      </trkpt>
      <trkpt lat="43.130573999999996" lon="-1.2666959999999992">
        <ele>230.831</ele>
        <time>2022-08-23T16:39:20Z</time>
      </trkpt>
      <trkpt lat="43.130646" lon="-1.266669999999999">
        <ele>230.624</ele>
        <time>2022-08-23T16:39:21Z</time>
      </trkpt>
      <trkpt lat="43.130716" lon="-1.2666689999999992">
        <ele>230.609</ele>
        <time>2022-08-23T16:39:22Z</time>
      </trkpt>
      <trkpt lat="43.130784" lon="-1.266672999999999">
        <ele>230.450</ele>
        <time>2022-08-23T16:39:23Z</time>
      </trkpt>
      <trkpt lat="43.130866999999995" lon="-1.2666609999999991">
        <ele>230.410</ele>
        <time>2022-08-23T16:39:24Z</time>
      </trkpt>
      <trkpt lat="43.13095499999999" lon="-1.2666689999999992">
        <ele>230.060</ele>
        <time>2022-08-23T16:39:25Z</time>
      </trkpt>
      <trkpt lat="43.13110399999999" lon="-1.266661999999999">
        <ele>229.616</ele>
        <time>2022-08-23T16:39:27Z</time>
      </trkpt>
      <trkpt lat="43.13118899999999" lon="-1.266623999999999">
        <ele>229.428</ele>
        <time>2022-08-23T16:39:28Z</time>
      </trkpt>
      <trkpt lat="43.131570999999994" lon="-1.266521999999999">
        <ele>229.055</ele>
        <time>2022-08-23T16:39:33Z</time>
      </trkpt>
      <trkpt lat="43.13180299999999" lon="-1.266432999999999">
        <ele>228.827</ele>
        <time>2022-08-23T16:39:36Z</time>
      </trkpt>
      <trkpt lat="43.13196099999999" lon="-1.266392999999999">
        <ele>228.847</ele>
        <time>2022-08-23T16:39:38Z</time>
      </trkpt>
      <trkpt lat="43.13212399999999" lon="-1.266388999999999">
        <ele>228.696</ele>
        <time>2022-08-23T16:39:40Z</time>
      </trkpt>
      <trkpt lat="43.13220099999999" lon="-1.266388999999999">
        <ele>228.642</ele>
        <time>2022-08-23T16:39:41Z</time>
      </trkpt>
      <trkpt lat="43.13227399999999" lon="-1.266391999999999">
        <ele>228.622</ele>
        <time>2022-08-23T16:39:42Z</time>
      </trkpt>
      <trkpt lat="43.13234099999999" lon="-1.266396999999999">
        <ele>228.614</ele>
        <time>2022-08-23T16:39:43Z</time>
      </trkpt>
      <trkpt lat="43.13240399999999" lon="-1.266399999999999">
        <ele>228.409</ele>
        <time>2022-08-23T16:39:44Z</time>
      </trkpt>
      <trkpt lat="43.13247299999999" lon="-1.2664049999999991">
        <ele>228.425</ele>
        <time>2022-08-23T16:39:45Z</time>
      </trkpt>
      <trkpt lat="43.13274399999999" lon="-1.2664369999999991">
        <ele>228.875</ele>
        <time>2022-08-23T16:39:49Z</time>
      </trkpt>
      <trkpt lat="43.13281099999999" lon="-1.266448999999999">
        <ele>229.095</ele>
        <time>2022-08-23T16:39:50Z</time>
      </trkpt>
      <trkpt lat="43.13287399999999" lon="-1.266464999999999">
        <ele>229.061</ele>
        <time>2022-08-23T16:39:51Z</time>
      </trkpt>
      <trkpt lat="43.13293299999999" lon="-1.266488999999999">
        <ele>229.073</ele>
        <time>2022-08-23T16:39:52Z</time>
      </trkpt>
      <trkpt lat="43.13299099999999" lon="-1.2665179999999991">
        <ele>229.220</ele>
        <time>2022-08-23T16:39:53Z</time>
      </trkpt>
      <trkpt lat="43.13304699999999" lon="-1.2665529999999992">
        <ele>229.292</ele>
        <time>2022-08-23T16:39:54Z</time>
      </trkpt>
      <trkpt lat="43.13310399999999" lon="-1.266593999999999">
        <ele>229.232</ele>
        <time>2022-08-23T16:39:55Z</time>
      </trkpt>
      <trkpt lat="43.13320999999999" lon="-1.2666799999999991">
        <ele>229.281</ele>
        <time>2022-08-23T16:39:57Z</time>
      </trkpt>
      <trkpt lat="43.13325899999999" lon="-1.266731999999999">
        <ele>229.496</ele>
        <time>2022-08-23T16:39:58Z</time>
      </trkpt>
      <trkpt lat="43.133304999999986" lon="-1.266785999999999">
        <ele>229.431</ele>
        <time>2022-08-23T16:39:59Z</time>
      </trkpt>
      <trkpt lat="43.133352999999985" lon="-1.2668389999999992">
        <ele>229.624</ele>
        <time>2022-08-23T16:40:00Z</time>
      </trkpt>
      <trkpt lat="43.13350699999999" lon="-1.266990999999999">
        <ele>229.809</ele>
        <time>2022-08-23T16:40:03Z</time>
      </trkpt>
      <trkpt lat="43.13356499999999" lon="-1.267026999999999">
        <ele>230.070</ele>
        <time>2022-08-23T16:40:04Z</time>
      </trkpt>
      <trkpt lat="43.13368099999999" lon="-1.267078999999999">
        <ele>230.250</ele>
        <time>2022-08-23T16:40:06Z</time>
      </trkpt>
      <trkpt lat="43.13373899999999" lon="-1.267097999999999">
        <ele>230.450</ele>
        <time>2022-08-23T16:40:07Z</time>
      </trkpt>
      <trkpt lat="43.133914999999995" lon="-1.267129999999999">
        <ele>230.836</ele>
        <time>2022-08-23T16:40:10Z</time>
      </trkpt>
      <trkpt lat="43.13403399999999" lon="-1.267135999999999">
        <ele>231.028</ele>
        <time>2022-08-23T16:40:12Z</time>
      </trkpt>
      <trkpt lat="43.13409099999999" lon="-1.267129999999999">
        <ele>231.015</ele>
        <time>2022-08-23T16:40:13Z</time>
      </trkpt>
      <trkpt lat="43.13420399999999" lon="-1.267092999999999">
        <ele>231.257</ele>
        <time>2022-08-23T16:40:15Z</time>
      </trkpt>
      <trkpt lat="43.13425799999999" lon="-1.2670609999999989">
        <ele>231.227</ele>
        <time>2022-08-23T16:40:16Z</time>
      </trkpt>
      <trkpt lat="43.13431099999999" lon="-1.2670179999999989">
        <ele>231.476</ele>
        <time>2022-08-23T16:40:17Z</time>
      </trkpt>
      <trkpt lat="43.13447399999999" lon="-1.266849999999999">
        <ele>231.473</ele>
        <time>2022-08-23T16:40:20Z</time>
      </trkpt>
      <trkpt lat="43.13452199999999" lon="-1.266776999999999">
        <ele>231.685</ele>
        <time>2022-08-23T16:40:21Z</time>
      </trkpt>
      <trkpt lat="43.13461399999999" lon="-1.266617999999999">
        <ele>231.413</ele>
        <time>2022-08-23T16:40:23Z</time>
      </trkpt>
      <trkpt lat="43.134691999999994" lon="-1.2664329999999988">
        <ele>231.209</ele>
        <time>2022-08-23T16:40:25Z</time>
      </trkpt>
      <trkpt lat="43.13472399999999" lon="-1.2663279999999988">
        <ele>231.058</ele>
        <time>2022-08-23T16:40:26Z</time>
      </trkpt>
      <trkpt lat="43.13484699999999" lon="-1.2657539999999987">
        <ele>229.848</ele>
        <time>2022-08-23T16:40:31Z</time>
      </trkpt>
      <trkpt lat="43.134871" lon="-1.2656319999999988">
        <ele>229.698</ele>
        <time>2022-08-23T16:40:32Z</time>
      </trkpt>
      <trkpt lat="43.134912" lon="-1.2653859999999988">
        <ele>228.444</ele>
        <time>2022-08-23T16:40:34Z</time>
      </trkpt>
      <trkpt lat="43.134931" lon="-1.265265999999999">
        <ele>228.236</ele>
        <time>2022-08-23T16:40:35Z</time>
      </trkpt>
      <trkpt lat="43.134955000000005" lon="-1.2651399999999988">
        <ele>227.623</ele>
        <time>2022-08-23T16:40:36Z</time>
      </trkpt>
      <trkpt lat="43.13498500000001" lon="-1.2650209999999988">
        <ele>227.085</ele>
        <time>2022-08-23T16:40:37Z</time>
      </trkpt>
      <trkpt lat="43.13502100000001" lon="-1.2649109999999988">
        <ele>226.885</ele>
        <time>2022-08-23T16:40:38Z</time>
      </trkpt>
      <trkpt lat="43.13506300000001" lon="-1.2648119999999987">
        <ele>226.274</ele>
        <time>2022-08-23T16:40:39Z</time>
      </trkpt>
      <trkpt lat="43.13510900000001" lon="-1.2647229999999987">
        <ele>225.855</ele>
        <time>2022-08-23T16:40:40Z</time>
      </trkpt>
      <trkpt lat="43.13515900000001" lon="-1.2646389999999987">
        <ele>225.407</ele>
        <time>2022-08-23T16:40:41Z</time>
      </trkpt>
      <trkpt lat="43.13522000000001" lon="-1.2645639999999987">
        <ele>225.017</ele>
        <time>2022-08-23T16:40:42Z</time>
      </trkpt>
      <trkpt lat="43.13528300000001" lon="-1.2644909999999987">
        <ele>224.809</ele>
        <time>2022-08-23T16:40:43Z</time>
      </trkpt>
      <trkpt lat="43.13535200000001" lon="-1.2644259999999987">
        <ele>224.646</ele>
        <time>2022-08-23T16:40:44Z</time>
      </trkpt>
      <trkpt lat="43.13543300000001" lon="-1.2643749999999987">
        <ele>224.466</ele>
        <time>2022-08-23T16:40:45Z</time>
      </trkpt>
      <trkpt lat="43.135520000000014" lon="-1.2643469999999988">
        <ele>224.276</ele>
        <time>2022-08-23T16:40:46Z</time>
      </trkpt>
      <trkpt lat="43.135612000000016" lon="-1.2643329999999988">
        <ele>224.082</ele>
        <time>2022-08-23T16:40:47Z</time>
      </trkpt>
      <trkpt lat="43.13570400000002" lon="-1.2643349999999989">
        <ele>223.894</ele>
        <time>2022-08-23T16:40:48Z</time>
      </trkpt>
      <trkpt lat="43.135798000000015" lon="-1.264355999999999">
        <ele>223.621</ele>
        <time>2022-08-23T16:40:49Z</time>
      </trkpt>
      <trkpt lat="43.13588900000001" lon="-1.264438999999999">
        <ele>222.843</ele>
        <time>2022-08-23T16:40:50Z</time>
      </trkpt>
      <trkpt lat="43.13598000000001" lon="-1.264486999999999">
        <ele>222.413</ele>
        <time>2022-08-23T16:40:51Z</time>
      </trkpt>
      <trkpt lat="43.13607000000001" lon="-1.264519999999999">
        <ele>221.692</ele>
        <time>2022-08-23T16:40:52Z</time>
      </trkpt>
      <trkpt lat="43.13616200000001" lon="-1.264530999999999">
        <ele>221.257</ele>
        <time>2022-08-23T16:40:53Z</time>
      </trkpt>
      <trkpt lat="43.13625800000001" lon="-1.264510999999999">
        <ele>220.200</ele>
        <time>2022-08-23T16:40:54Z</time>
      </trkpt>
      <trkpt lat="43.13635600000001" lon="-1.264467999999999">
        <ele>219.420</ele>
        <time>2022-08-23T16:40:55Z</time>
      </trkpt>
      <trkpt lat="43.13645300000001" lon="-1.264407999999999">
        <ele>219.009</ele>
        <time>2022-08-23T16:40:56Z</time>
      </trkpt>
      <trkpt lat="43.13654100000001" lon="-1.264346999999999">
        <ele>218.256</ele>
        <time>2022-08-23T16:40:57Z</time>
      </trkpt>
      <trkpt lat="43.13662200000001" lon="-1.264278999999999">
        <ele>217.876</ele>
        <time>2022-08-23T16:40:58Z</time>
      </trkpt>
      <trkpt lat="43.13670100000001" lon="-1.264209999999999">
        <ele>217.426</ele>
        <time>2022-08-23T16:40:59Z</time>
      </trkpt>
      <trkpt lat="43.13677600000001" lon="-1.264134999999999">
        <ele>217.282</ele>
        <time>2022-08-23T16:41:00Z</time>
      </trkpt>
      <trkpt lat="43.13722200000001" lon="-1.2636709999999989">
        <ele>216.664</ele>
        <time>2022-08-23T16:41:06Z</time>
      </trkpt>
      <trkpt lat="43.13738000000001" lon="-1.263523999999999">
        <ele>216.051</ele>
        <time>2022-08-23T16:41:08Z</time>
      </trkpt>
      <trkpt lat="43.13745500000001" lon="-1.263451999999999">
        <ele>215.683</ele>
        <time>2022-08-23T16:41:09Z</time>
      </trkpt>
      <trkpt lat="43.13753100000001" lon="-1.2633799999999988">
        <ele>215.443</ele>
        <time>2022-08-23T16:41:10Z</time>
      </trkpt>
      <trkpt lat="43.13760800000001" lon="-1.2633119999999989">
        <ele>215.252</ele>
        <time>2022-08-23T16:41:11Z</time>
      </trkpt>
      <trkpt lat="43.13768000000001" lon="-1.2632429999999988">
        <ele>215.067</ele>
        <time>2022-08-23T16:41:12Z</time>
      </trkpt>
      <trkpt lat="43.13775000000001" lon="-1.2631769999999989">
        <ele>215.081</ele>
        <time>2022-08-23T16:41:13Z</time>
      </trkpt>
      <trkpt lat="43.137819000000015" lon="-1.2631069999999989">
        <ele>214.819</ele>
        <time>2022-08-23T16:41:14Z</time>
      </trkpt>
      <trkpt lat="43.137889000000015" lon="-1.263038999999999">
        <ele>214.609</ele>
        <time>2022-08-23T16:41:15Z</time>
      </trkpt>
      <trkpt lat="43.137959000000016" lon="-1.262970999999999">
        <ele>214.687</ele>
        <time>2022-08-23T16:41:16Z</time>
      </trkpt>
      <trkpt lat="43.138030000000015" lon="-1.262906999999999">
        <ele>214.627</ele>
        <time>2022-08-23T16:41:17Z</time>
      </trkpt>
      <trkpt lat="43.138100000000016" lon="-1.262843999999999">
        <ele>214.447</ele>
        <time>2022-08-23T16:41:18Z</time>
      </trkpt>
      <trkpt lat="43.13830100000001" lon="-1.262645999999999">
        <ele>214.023</ele>
        <time>2022-08-23T16:41:21Z</time>
      </trkpt>
      <trkpt lat="43.138438000000015" lon="-1.2625099999999991">
        <ele>213.825</ele>
        <time>2022-08-23T16:41:23Z</time>
      </trkpt>
      <trkpt lat="43.13850700000002" lon="-1.2624419999999992">
        <ele>213.882</ele>
        <time>2022-08-23T16:41:24Z</time>
      </trkpt>
      <trkpt lat="43.13857500000002" lon="-1.2623749999999991">
        <ele>213.654</ele>
        <time>2022-08-23T16:41:25Z</time>
      </trkpt>
      <trkpt lat="43.13864200000002" lon="-1.2623099999999992">
        <ele>213.684</ele>
        <time>2022-08-23T16:41:26Z</time>
      </trkpt>
      <trkpt lat="43.13890900000002" lon="-1.2620459999999991">
        <ele>213.443</ele>
        <time>2022-08-23T16:41:30Z</time>
      </trkpt>
      <trkpt lat="43.13897300000002" lon="-1.2619809999999991">
        <ele>213.496</ele>
        <time>2022-08-23T16:41:31Z</time>
      </trkpt>
      <trkpt lat="43.13903700000002" lon="-1.261916999999999">
        <ele>213.431</ele>
        <time>2022-08-23T16:41:32Z</time>
      </trkpt>
      <trkpt lat="43.139168000000026" lon="-1.261800999999999">
        <ele>213.224</ele>
        <time>2022-08-23T16:41:34Z</time>
      </trkpt>
      <trkpt lat="43.13923700000003" lon="-1.261751999999999">
        <ele>213.009</ele>
        <time>2022-08-23T16:41:35Z</time>
      </trkpt>
      <trkpt lat="43.13938500000003" lon="-1.261670999999999">
        <ele>213.050</ele>
        <time>2022-08-23T16:41:37Z</time>
      </trkpt>
      <trkpt lat="43.13952600000003" lon="-1.261624999999999">
        <ele>212.860</ele>
        <time>2022-08-23T16:41:39Z</time>
      </trkpt>
      <trkpt lat="43.139598000000035" lon="-1.261606999999999">
        <ele>212.820</ele>
        <time>2022-08-23T16:41:40Z</time>
      </trkpt>
      <trkpt lat="43.13966900000003" lon="-1.261593999999999">
        <ele>212.836</ele>
        <time>2022-08-23T16:41:41Z</time>
      </trkpt>
      <trkpt lat="43.13973700000003" lon="-1.261588999999999">
        <ele>212.838</ele>
        <time>2022-08-23T16:41:42Z</time>
      </trkpt>
      <trkpt lat="43.139806000000036" lon="-1.261594999999999">
        <ele>212.815</ele>
        <time>2022-08-23T16:41:43Z</time>
      </trkpt>
      <trkpt lat="43.13987600000004" lon="-1.2616069999999988">
        <ele>212.857</ele>
        <time>2022-08-23T16:41:44Z</time>
      </trkpt>
      <trkpt lat="43.13994500000004" lon="-1.2616229999999988">
        <ele>212.827</ele>
        <time>2022-08-23T16:41:45Z</time>
      </trkpt>
      <trkpt lat="43.14001100000004" lon="-1.2616439999999989">
        <ele>213.066</ele>
        <time>2022-08-23T16:41:46Z</time>
      </trkpt>
      <trkpt lat="43.140079000000036" lon="-1.261659999999999">
        <ele>213.222</ele>
        <time>2022-08-23T16:41:47Z</time>
      </trkpt>
      <trkpt lat="43.14014600000004" lon="-1.261677999999999">
        <ele>213.262</ele>
        <time>2022-08-23T16:41:48Z</time>
      </trkpt>
      <trkpt lat="43.14021000000004" lon="-1.261701999999999">
        <ele>213.208</ele>
        <time>2022-08-23T16:41:49Z</time>
      </trkpt>
      <trkpt lat="43.14054200000004" lon="-1.261850999999999">
        <ele>213.409</ele>
        <time>2022-08-23T16:41:54Z</time>
      </trkpt>
      <trkpt lat="43.140985000000036" lon="-1.2620109999999989">
        <ele>213.253</ele>
        <time>2022-08-23T16:41:59Z</time>
      </trkpt>
      <trkpt lat="43.14114700000004" lon="-1.2620039999999988">
        <ele>212.683</ele>
        <time>2022-08-23T16:42:01Z</time>
      </trkpt>
      <trkpt lat="43.14124300000004" lon="-1.2619799999999988">
        <ele>212.223</ele>
        <time>2022-08-23T16:42:02Z</time>
      </trkpt>
      <trkpt lat="43.14133800000004" lon="-1.2619619999999987">
        <ele>211.849</ele>
        <time>2022-08-23T16:42:03Z</time>
      </trkpt>
      <trkpt lat="43.14143000000004" lon="-1.2619579999999988">
        <ele>211.471</ele>
        <time>2022-08-23T16:42:04Z</time>
      </trkpt>
      <trkpt lat="43.141522000000045" lon="-1.2619489999999989">
        <ele>210.628</ele>
        <time>2022-08-23T16:42:05Z</time>
      </trkpt>
      <trkpt lat="43.14161300000004" lon="-1.2619489999999989">
        <ele>210.280</ele>
        <time>2022-08-23T16:42:06Z</time>
      </trkpt>
      <trkpt lat="43.14170000000004" lon="-1.261944999999999">
        <ele>209.680</ele>
        <time>2022-08-23T16:42:07Z</time>
      </trkpt>
      <trkpt lat="43.141784000000044" lon="-1.261942999999999">
        <ele>209.429</ele>
        <time>2022-08-23T16:42:08Z</time>
      </trkpt>
      <trkpt lat="43.141865000000045" lon="-1.261936999999999">
        <ele>209.284</ele>
        <time>2022-08-23T16:42:09Z</time>
      </trkpt>
      <trkpt lat="43.14194000000005" lon="-1.261922999999999">
        <ele>208.807</ele>
        <time>2022-08-23T16:42:10Z</time>
      </trkpt>
      <trkpt lat="43.14201500000005" lon="-1.261905999999999">
        <ele>208.817</ele>
        <time>2022-08-23T16:42:11Z</time>
      </trkpt>
      <trkpt lat="43.14216400000005" lon="-1.261860999999999">
        <ele>208.809</ele>
        <time>2022-08-23T16:42:13Z</time>
      </trkpt>
      <trkpt lat="43.14237900000005" lon="-1.261750999999999">
        <ele>208.649</ele>
        <time>2022-08-23T16:42:16Z</time>
      </trkpt>
      <trkpt lat="43.14244800000005" lon="-1.261703999999999">
        <ele>208.649</ele>
        <time>2022-08-23T16:42:17Z</time>
      </trkpt>
      <trkpt lat="43.14253000000005" lon="-1.261644999999999">
        <ele>208.689</ele>
        <time>2022-08-23T16:42:18Z</time>
      </trkpt>
      <trkpt lat="43.14258200000005" lon="-1.261606999999999">
        <ele>208.625</ele>
        <time>2022-08-23T16:42:19Z</time>
      </trkpt>
      <trkpt lat="43.142844000000046" lon="-1.261414999999999">
        <ele>208.637</ele>
        <time>2022-08-23T16:42:23Z</time>
      </trkpt>
      <trkpt lat="43.142907000000044" lon="-1.261372999999999">
        <ele>208.654</ele>
        <time>2022-08-23T16:42:24Z</time>
      </trkpt>
      <trkpt lat="43.14296200000005" lon="-1.2613309999999989">
        <ele>208.656</ele>
        <time>2022-08-23T16:42:25Z</time>
      </trkpt>
      <trkpt lat="43.14300700000005" lon="-1.261281999999999">
        <ele>208.686</ele>
        <time>2022-08-23T16:42:26Z</time>
      </trkpt>
      <trkpt lat="43.14303800000005" lon="-1.2612339999999989">
        <ele>208.665</ele>
        <time>2022-08-23T16:42:27Z</time>
      </trkpt>
      <trkpt lat="43.143056000000044" lon="-1.261194999999999">
        <ele>208.688</ele>
        <time>2022-08-23T16:42:28Z</time>
      </trkpt>
      <trkpt lat="43.143067000000045" lon="-1.261174999999999">
        <ele>208.624</ele>
        <time>2022-08-23T16:42:29Z</time>
      </trkpt>
      <trkpt lat="43.14307100000004" lon="-1.261168999999999">
        <ele>208.426</ele>
        <time>2022-08-23T16:45:25Z</time>
      </trkpt>
      <trkpt lat="43.143073000000044" lon="-1.261169999999999">
        <ele>208.409</ele>
        <time>2022-08-23T16:45:26Z</time>
      </trkpt>
      <trkpt lat="43.14308600000005" lon="-1.261173999999999">
        <ele>208.429</ele>
        <time>2022-08-23T16:45:27Z</time>
      </trkpt>
      <trkpt lat="43.143095000000045" lon="-1.261175999999999">
        <ele>208.659</ele>
        <time>2022-08-23T16:45:34Z</time>
      </trkpt>
      <trkpt lat="43.14312800000005" lon="-1.261171999999999">
        <ele>208.629</ele>
        <time>2022-08-23T16:45:37Z</time>
      </trkpt>
      <trkpt lat="43.14319200000005" lon="-1.261139999999999">
        <ele>208.645</ele>
        <time>2022-08-23T16:45:39Z</time>
      </trkpt>
      <trkpt lat="43.143269000000046" lon="-1.261077999999999">
        <ele>208.677</ele>
        <time>2022-08-23T16:45:41Z</time>
      </trkpt>
      <trkpt lat="43.143317000000046" lon="-1.261043999999999">
        <ele>208.444</ele>
        <time>2022-08-23T16:45:42Z</time>
      </trkpt>
      <trkpt lat="43.14354700000005" lon="-1.260887999999999">
        <ele>208.466</ele>
        <time>2022-08-23T16:45:46Z</time>
      </trkpt>
      <trkpt lat="43.143587000000046" lon="-1.260857999999999">
        <ele>208.436</ele>
        <time>2022-08-23T16:45:47Z</time>
      </trkpt>
      <trkpt lat="43.143635000000046" lon="-1.260822999999999">
        <ele>208.265</ele>
        <time>2022-08-23T16:45:48Z</time>
      </trkpt>
      <trkpt lat="43.14368100000004" lon="-1.260784999999999">
        <ele>208.275</ele>
        <time>2022-08-23T16:45:49Z</time>
      </trkpt>
      <trkpt lat="43.143962000000045" lon="-1.2605239999999989">
        <ele>207.828</ele>
        <time>2022-08-23T16:45:55Z</time>
      </trkpt>
      <trkpt lat="43.144125000000045" lon="-1.2603379999999988">
        <ele>207.620</ele>
        <time>2022-08-23T16:45:58Z</time>
      </trkpt>
      <trkpt lat="43.144218000000045" lon="-1.2602149999999988">
        <ele>207.409</ele>
        <time>2022-08-23T16:46:00Z</time>
      </trkpt>
      <trkpt lat="43.144561000000046" lon="-1.2596419999999988">
        <ele>206.698</ele>
        <time>2022-08-23T16:46:07Z</time>
      </trkpt>
      <trkpt lat="43.144834000000046" lon="-1.2591699999999988">
        <ele>205.438</ele>
        <time>2022-08-23T16:46:12Z</time>
      </trkpt>
      <trkpt lat="43.14492300000005" lon="-1.2589919999999988">
        <ele>205.248</ele>
        <time>2022-08-23T16:46:14Z</time>
      </trkpt>
      <trkpt lat="43.14506600000005" lon="-1.2585229999999987">
        <ele>204.634</ele>
        <time>2022-08-23T16:46:18Z</time>
      </trkpt>
      <trkpt lat="43.14507900000005" lon="-1.2584299999999988">
        <ele>204.486</ele>
        <time>2022-08-23T16:46:19Z</time>
      </trkpt>
      <trkpt lat="43.145089000000056" lon="-1.2582929999999988">
        <ele>204.243</ele>
        <time>2022-08-23T16:46:20Z</time>
      </trkpt>
      <trkpt lat="43.14509100000006" lon="-1.2582059999999988">
        <ele>204.075</ele>
        <time>2022-08-23T16:46:21Z</time>
      </trkpt>
      <trkpt lat="43.145092000000055" lon="-1.2580979999999988">
        <ele>204.095</ele>
        <time>2022-08-23T16:46:22Z</time>
      </trkpt>
      <trkpt lat="43.14509300000005" lon="-1.2579689999999988">
        <ele>204.044</ele>
        <time>2022-08-23T16:46:23Z</time>
      </trkpt>
      <trkpt lat="43.14509600000005" lon="-1.2578869999999989">
        <ele>204.067</ele>
        <time>2022-08-23T16:46:24Z</time>
      </trkpt>
      <trkpt lat="43.14510400000005" lon="-1.257783999999999">
        <ele>204.081</ele>
        <time>2022-08-23T16:46:25Z</time>
      </trkpt>
      <trkpt lat="43.14511600000005" lon="-1.2576849999999988">
        <ele>204.019</ele>
        <time>2022-08-23T16:46:26Z</time>
      </trkpt>
      <trkpt lat="43.14513100000005" lon="-1.2575859999999988">
        <ele>204.009</ele>
        <time>2022-08-23T16:46:27Z</time>
      </trkpt>
      <trkpt lat="43.145152000000046" lon="-1.2574939999999988">
        <ele>204.277</ele>
        <time>2022-08-23T16:46:28Z</time>
      </trkpt>
      <trkpt lat="43.145178000000044" lon="-1.2574069999999988">
        <ele>204.427</ele>
        <time>2022-08-23T16:46:29Z</time>
      </trkpt>
      <trkpt lat="43.145209000000044" lon="-1.2573039999999989">
        <ele>204.467</ele>
        <time>2022-08-23T16:46:30Z</time>
      </trkpt>
      <trkpt lat="43.145256000000046" lon="-1.257156999999999">
        <ele>204.833</ele>
        <time>2022-08-23T16:46:32Z</time>
      </trkpt>
      <trkpt lat="43.145284000000046" lon="-1.257073999999999">
        <ele>204.815</ele>
        <time>2022-08-23T16:46:33Z</time>
      </trkpt>
      <trkpt lat="43.14531100000005" lon="-1.2569909999999989">
        <ele>205.042</ele>
        <time>2022-08-23T16:46:34Z</time>
      </trkpt>
      <trkpt lat="43.14533900000005" lon="-1.2569099999999989">
        <ele>205.244</ele>
        <time>2022-08-23T16:46:35Z</time>
      </trkpt>
      <trkpt lat="43.14536600000005" lon="-1.2568289999999989">
        <ele>205.464</ele>
        <time>2022-08-23T16:46:36Z</time>
      </trkpt>
      <trkpt lat="43.14539400000005" lon="-1.2567509999999988">
        <ele>205.433</ele>
        <time>2022-08-23T16:46:37Z</time>
      </trkpt>
      <trkpt lat="43.14542200000005" lon="-1.256671999999999">
        <ele>205.647</ele>
        <time>2022-08-23T16:46:38Z</time>
      </trkpt>
      <trkpt lat="43.145452000000056" lon="-1.256597999999999">
        <ele>205.629</ele>
        <time>2022-08-23T16:46:39Z</time>
      </trkpt>
      <trkpt lat="43.14548800000006" lon="-1.256528999999999">
        <ele>205.621</ele>
        <time>2022-08-23T16:46:40Z</time>
      </trkpt>
      <trkpt lat="43.14552900000006" lon="-1.2564649999999988">
        <ele>205.609</ele>
        <time>2022-08-23T16:46:41Z</time>
      </trkpt>
      <trkpt lat="43.14557500000006" lon="-1.2564059999999988">
        <ele>205.845</ele>
        <time>2022-08-23T16:46:42Z</time>
      </trkpt>
      <trkpt lat="43.14562600000006" lon="-1.2563569999999988">
        <ele>205.855</ele>
        <time>2022-08-23T16:46:43Z</time>
      </trkpt>
      <trkpt lat="43.145692000000054" lon="-1.2563119999999988">
        <ele>205.845</ele>
        <time>2022-08-23T16:46:44Z</time>
      </trkpt>
      <trkpt lat="43.145750000000056" lon="-1.2562879999999987">
        <ele>205.841</ele>
        <time>2022-08-23T16:46:45Z</time>
      </trkpt>
      <trkpt lat="43.145810000000054" lon="-1.2562719999999987">
        <ele>205.823</ele>
        <time>2022-08-23T16:46:46Z</time>
      </trkpt>
      <trkpt lat="43.145866000000055" lon="-1.2562649999999986">
        <ele>206.050</ele>
        <time>2022-08-23T16:46:47Z</time>
      </trkpt>
      <trkpt lat="43.145911000000055" lon="-1.2562619999999987">
        <ele>206.292</ele>
        <time>2022-08-23T16:46:48Z</time>
      </trkpt>
      <trkpt lat="43.14603600000005" lon="-1.2562459999999986">
        <ele>206.262</ele>
        <time>2022-08-23T16:46:50Z</time>
      </trkpt>
      <trkpt lat="43.14611500000005" lon="-1.2562149999999987">
        <ele>206.221</ele>
        <time>2022-08-23T16:46:51Z</time>
      </trkpt>
      <trkpt lat="43.14616500000005" lon="-1.2561809999999987">
        <ele>206.485</ele>
        <time>2022-08-23T16:46:52Z</time>
      </trkpt>
      <trkpt lat="43.14622400000005" lon="-1.2561279999999986">
        <ele>206.489</ele>
        <time>2022-08-23T16:46:53Z</time>
      </trkpt>
      <trkpt lat="43.146274000000055" lon="-1.2560629999999986">
        <ele>206.217</ele>
        <time>2022-08-23T16:46:54Z</time>
      </trkpt>
      <trkpt lat="43.14632600000005" lon="-1.2559869999999986">
        <ele>206.209</ele>
        <time>2022-08-23T16:46:55Z</time>
      </trkpt>
      <trkpt lat="43.14638000000005" lon="-1.2559049999999987">
        <ele>206.069</ele>
        <time>2022-08-23T16:46:56Z</time>
      </trkpt>
      <trkpt lat="43.14648700000005" lon="-1.2557339999999988">
        <ele>205.859</ele>
        <time>2022-08-23T16:46:58Z</time>
      </trkpt>
      <trkpt lat="43.14670000000005" lon="-1.2554089999999989">
        <ele>205.479</ele>
        <time>2022-08-23T16:47:02Z</time>
      </trkpt>
      <trkpt lat="43.146761000000055" lon="-1.2553399999999988">
        <ele>205.455</ele>
        <time>2022-08-23T16:47:03Z</time>
      </trkpt>
      <trkpt lat="43.14682700000005" lon="-1.2552759999999987">
        <ele>205.477</ele>
        <time>2022-08-23T16:47:04Z</time>
      </trkpt>
      <trkpt lat="43.14696700000005" lon="-1.2551649999999988">
        <ele>205.064</ele>
        <time>2022-08-23T16:47:06Z</time>
      </trkpt>
      <trkpt lat="43.14712000000005" lon="-1.2550629999999987">
        <ele>204.856</ele>
        <time>2022-08-23T16:47:08Z</time>
      </trkpt>
      <trkpt lat="43.14743300000005" lon="-1.2548799999999987">
        <ele>204.016</ele>
        <time>2022-08-23T16:47:12Z</time>
      </trkpt>
      <trkpt lat="43.14774700000005" lon="-1.2546969999999986">
        <ele>203.285</ele>
        <time>2022-08-23T16:47:16Z</time>
      </trkpt>
      <trkpt lat="43.147904000000054" lon="-1.2546039999999987">
        <ele>202.846</ele>
        <time>2022-08-23T16:47:18Z</time>
      </trkpt>
      <trkpt lat="43.14830500000005" lon="-1.2543729999999986">
        <ele>202.088</ele>
        <time>2022-08-23T16:47:23Z</time>
      </trkpt>
      <trkpt lat="43.14846300000005" lon="-1.2542799999999987">
        <ele>201.616</ele>
        <time>2022-08-23T16:47:25Z</time>
      </trkpt>
      <trkpt lat="43.14854200000005" lon="-1.2542349999999987">
        <ele>201.609</ele>
        <time>2022-08-23T16:47:26Z</time>
      </trkpt>
      <trkpt lat="43.14885400000005" lon="-1.2540519999999986">
        <ele>201.055</ele>
        <time>2022-08-23T16:47:30Z</time>
      </trkpt>
      <trkpt lat="43.14900800000005" lon="-1.2539599999999986">
        <ele>200.485</ele>
        <time>2022-08-23T16:47:32Z</time>
      </trkpt>
      <trkpt lat="43.149100000000054" lon="-1.2539059999999986">
        <ele>200.225</ele>
        <time>2022-08-23T16:47:33Z</time>
      </trkpt>
      <trkpt lat="43.14917400000005" lon="-1.2538629999999986">
        <ele>200.251</ele>
        <time>2022-08-23T16:47:34Z</time>
      </trkpt>
      <trkpt lat="43.14924800000005" lon="-1.2538249999999986">
        <ele>200.243</ele>
        <time>2022-08-23T16:47:35Z</time>
      </trkpt>
      <trkpt lat="43.14930200000005" lon="-1.2537989999999986">
        <ele>200.260</ele>
        <time>2022-08-23T16:47:36Z</time>
      </trkpt>
      <trkpt lat="43.149365000000046" lon="-1.2537749999999985">
        <ele>200.242</ele>
        <time>2022-08-23T16:47:37Z</time>
      </trkpt>
      <trkpt lat="43.14944200000004" lon="-1.2537609999999986">
        <ele>200.442</ele>
        <time>2022-08-23T16:47:38Z</time>
      </trkpt>
      <trkpt lat="43.14950800000004" lon="-1.2537509999999985">
        <ele>200.431</ele>
        <time>2022-08-23T16:47:39Z</time>
      </trkpt>
      <trkpt lat="43.14957000000004" lon="-1.2537459999999985">
        <ele>200.463</ele>
        <time>2022-08-23T16:47:40Z</time>
      </trkpt>
      <trkpt lat="43.14961400000004" lon="-1.2537469999999984">
        <ele>200.444</ele>
        <time>2022-08-23T16:47:41Z</time>
      </trkpt>
      <trkpt lat="43.14967100000004" lon="-1.2537519999999984">
        <ele>200.818</ele>
        <time>2022-08-23T16:47:42Z</time>
      </trkpt>
      <trkpt lat="43.14972700000004" lon="-1.2537579999999984">
        <ele>201.409</ele>
        <time>2022-08-23T16:47:43Z</time>
      </trkpt>
      <trkpt lat="43.14978100000004" lon="-1.2537699999999983">
        <ele>202.227</ele>
        <time>2022-08-23T16:47:44Z</time>
      </trkpt>
      <trkpt lat="43.14983700000004" lon="-1.2537779999999983">
        <ele>202.477</ele>
        <time>2022-08-23T16:47:45Z</time>
      </trkpt>
      <trkpt lat="43.14994500000004" lon="-1.2537869999999982">
        <ele>203.237</ele>
        <time>2022-08-23T16:47:47Z</time>
      </trkpt>
      <trkpt lat="43.15000000000004" lon="-1.2537749999999983">
        <ele>203.253</ele>
        <time>2022-08-23T16:47:48Z</time>
      </trkpt>
      <trkpt lat="43.15006000000004" lon="-1.2537489999999982">
        <ele>203.615</ele>
        <time>2022-08-23T16:47:49Z</time>
      </trkpt>
      <trkpt lat="43.15018100000004" lon="-1.2536469999999982">
        <ele>203.872</ele>
        <time>2022-08-23T16:47:51Z</time>
      </trkpt>
      <trkpt lat="43.15024000000004" lon="-1.2535639999999981">
        <ele>203.834</ele>
        <time>2022-08-23T16:47:52Z</time>
      </trkpt>
      <trkpt lat="43.15029900000004" lon="-1.253472999999998">
        <ele>203.844</ele>
        <time>2022-08-23T16:47:53Z</time>
      </trkpt>
      <trkpt lat="43.15042400000004" lon="-1.253275999999998">
        <ele>203.673</ele>
        <time>2022-08-23T16:47:55Z</time>
      </trkpt>
      <trkpt lat="43.150728000000036" lon="-1.252910999999998">
        <ele>202.056</ele>
        <time>2022-08-23T16:47:59Z</time>
      </trkpt>
      <trkpt lat="43.150807000000036" lon="-1.252827999999998">
        <ele>201.259</ele>
        <time>2022-08-23T16:48:00Z</time>
      </trkpt>
      <trkpt lat="43.150883000000036" lon="-1.2527459999999981">
        <ele>200.414</ele>
        <time>2022-08-23T16:48:01Z</time>
      </trkpt>
      <trkpt lat="43.15095800000004" lon="-1.252665999999998">
        <ele>200.209</ele>
        <time>2022-08-23T16:48:02Z</time>
      </trkpt>
      <trkpt lat="43.15103000000004" lon="-1.252587999999998">
        <ele>199.676</ele>
        <time>2022-08-23T16:48:03Z</time>
      </trkpt>
      <trkpt lat="43.151102000000044" lon="-1.252511999999998">
        <ele>199.446</ele>
        <time>2022-08-23T16:48:04Z</time>
      </trkpt>
      <trkpt lat="43.151175000000045" lon="-1.252438999999998">
        <ele>199.026</ele>
        <time>2022-08-23T16:48:05Z</time>
      </trkpt>
      <trkpt lat="43.151316000000044" lon="-1.2522899999999981">
        <ele>198.472</ele>
        <time>2022-08-23T16:48:07Z</time>
      </trkpt>
      <trkpt lat="43.15152800000004" lon="-1.252069999999998">
        <ele>197.474</ele>
        <time>2022-08-23T16:48:10Z</time>
      </trkpt>
      <trkpt lat="43.151741000000044" lon="-1.251853999999998">
        <ele>196.831</ele>
        <time>2022-08-23T16:48:13Z</time>
      </trkpt>
      <trkpt lat="43.151811000000045" lon="-1.251782999999998">
        <ele>196.863</ele>
        <time>2022-08-23T16:48:14Z</time>
      </trkpt>
      <trkpt lat="43.151878000000046" lon="-1.251713999999998">
        <ele>196.643</ele>
        <time>2022-08-23T16:48:15Z</time>
      </trkpt>
      <trkpt lat="43.15214500000005" lon="-1.251429999999998">
        <ele>195.872</ele>
        <time>2022-08-23T16:48:19Z</time>
      </trkpt>
      <trkpt lat="43.152348000000046" lon="-1.251216999999998">
        <ele>195.494</ele>
        <time>2022-08-23T16:48:22Z</time>
      </trkpt>
      <trkpt lat="43.152818000000046" lon="-1.250723999999998">
        <ele>194.857</ele>
        <time>2022-08-23T16:48:29Z</time>
      </trkpt>
      <trkpt lat="43.15295500000005" lon="-1.250582999999998">
        <ele>194.622</ele>
        <time>2022-08-23T16:48:31Z</time>
      </trkpt>
      <trkpt lat="43.15308400000005" lon="-1.250431999999998">
        <ele>194.209</ele>
        <time>2022-08-23T16:48:33Z</time>
      </trkpt>
      <trkpt lat="43.15321000000005" lon="-1.250275999999998">
        <ele>193.860</ele>
        <time>2022-08-23T16:48:35Z</time>
      </trkpt>
      <trkpt lat="43.15327300000005" lon="-1.250199999999998">
        <ele>193.860</ele>
        <time>2022-08-23T16:48:36Z</time>
      </trkpt>
      <trkpt lat="43.15333500000005" lon="-1.2501229999999979">
        <ele>193.680</ele>
        <time>2022-08-23T16:48:37Z</time>
      </trkpt>
      <trkpt lat="43.15339700000005" lon="-1.250051999999998">
        <ele>193.476</ele>
        <time>2022-08-23T16:48:38Z</time>
      </trkpt>
      <trkpt lat="43.15347200000005" lon="-1.249972999999998">
        <ele>193.278</ele>
        <time>2022-08-23T16:48:39Z</time>
      </trkpt>
      <trkpt lat="43.15352400000005" lon="-1.249929999999998">
        <ele>193.255</ele>
        <time>2022-08-23T16:48:40Z</time>
      </trkpt>
      <trkpt lat="43.15359400000005" lon="-1.249886999999998">
        <ele>193.267</ele>
        <time>2022-08-23T16:48:41Z</time>
      </trkpt>
      <trkpt lat="43.15387500000005" lon="-1.2497289999999979">
        <ele>193.017</ele>
        <time>2022-08-23T16:48:45Z</time>
      </trkpt>
      <trkpt lat="43.15394400000005" lon="-1.249689999999998">
        <ele>192.856</ele>
        <time>2022-08-23T16:48:46Z</time>
      </trkpt>
      <trkpt lat="43.15401500000005" lon="-1.249649999999998">
        <ele>192.846</ele>
        <time>2022-08-23T16:48:47Z</time>
      </trkpt>
      <trkpt lat="43.15409800000005" lon="-1.249602999999998">
        <ele>192.888</ele>
        <time>2022-08-23T16:48:48Z</time>
      </trkpt>
      <trkpt lat="43.15416700000005" lon="-1.249561999999998">
        <ele>192.816</ele>
        <time>2022-08-23T16:48:49Z</time>
      </trkpt>
      <trkpt lat="43.154236000000054" lon="-1.2495229999999982">
        <ele>192.809</ele>
        <time>2022-08-23T16:48:50Z</time>
      </trkpt>
      <trkpt lat="43.154292000000055" lon="-1.2494919999999983">
        <ele>192.835</ele>
        <time>2022-08-23T16:48:51Z</time>
      </trkpt>
      <trkpt lat="43.154357000000054" lon="-1.2494569999999983">
        <ele>192.835</ele>
        <time>2022-08-23T16:48:52Z</time>
      </trkpt>
      <trkpt lat="43.15443400000005" lon="-1.2494139999999982">
        <ele>192.885</ele>
        <time>2022-08-23T16:48:53Z</time>
      </trkpt>
      <trkpt lat="43.15475500000005" lon="-1.2492929999999982">
        <ele>192.661</ele>
        <time>2022-08-23T16:48:58Z</time>
      </trkpt>
      <trkpt lat="43.15498000000005" lon="-1.2492479999999981">
        <ele>192.633</ele>
        <time>2022-08-23T16:49:01Z</time>
      </trkpt>
      <trkpt lat="43.15505600000005" lon="-1.2492419999999982">
        <ele>192.620</ele>
        <time>2022-08-23T16:49:02Z</time>
      </trkpt>
      <trkpt lat="43.15513300000005" lon="-1.2492369999999982">
        <ele>192.612</ele>
        <time>2022-08-23T16:49:03Z</time>
      </trkpt>
      <trkpt lat="43.15520200000005" lon="-1.2492339999999982">
        <ele>192.412</ele>
        <time>2022-08-23T16:49:04Z</time>
      </trkpt>
      <trkpt lat="43.155269000000054" lon="-1.2492309999999982">
        <ele>192.421</ele>
        <time>2022-08-23T16:49:05Z</time>
      </trkpt>
      <trkpt lat="43.155333000000056" lon="-1.2492289999999981">
        <ele>192.225</ele>
        <time>2022-08-23T16:49:06Z</time>
      </trkpt>
      <trkpt lat="43.155395000000055" lon="-1.2492209999999981">
        <ele>192.226</ele>
        <time>2022-08-23T16:49:07Z</time>
      </trkpt>
      <trkpt lat="43.155454000000056" lon="-1.249213999999998">
        <ele>192.208</ele>
        <time>2022-08-23T16:49:08Z</time>
      </trkpt>
      <trkpt lat="43.155510000000056" lon="-1.2492049999999981">
        <ele>192.209</ele>
        <time>2022-08-23T16:49:09Z</time>
      </trkpt>
      <trkpt lat="43.15556500000006" lon="-1.2491959999999982">
        <ele>192.243</ele>
        <time>2022-08-23T16:49:10Z</time>
      </trkpt>
      <trkpt lat="43.15562100000006" lon="-1.2491839999999983">
        <ele>192.253</ele>
        <time>2022-08-23T16:49:11Z</time>
      </trkpt>
      <trkpt lat="43.15567500000006" lon="-1.2491709999999983">
        <ele>192.243</ele>
        <time>2022-08-23T16:49:12Z</time>
      </trkpt>
      <trkpt lat="43.15573100000006" lon="-1.2491609999999982">
        <ele>192.259</ele>
        <time>2022-08-23T16:49:13Z</time>
      </trkpt>
      <trkpt lat="43.15578700000006" lon="-1.2491579999999982">
        <ele>193.041</ele>
        <time>2022-08-23T16:49:14Z</time>
      </trkpt>
      <trkpt lat="43.155842000000064" lon="-1.2491579999999982">
        <ele>193.258</ele>
        <time>2022-08-23T16:49:15Z</time>
      </trkpt>
      <trkpt lat="43.155895000000065" lon="-1.249161999999998">
        <ele>193.480</ele>
        <time>2022-08-23T16:49:16Z</time>
      </trkpt>
      <trkpt lat="43.15611300000006" lon="-1.2491799999999982">
        <ele>194.480</ele>
        <time>2022-08-23T16:49:20Z</time>
      </trkpt>
      <trkpt lat="43.15616500000006" lon="-1.249191999999998">
        <ele>194.829</ele>
        <time>2022-08-23T16:49:21Z</time>
      </trkpt>
      <trkpt lat="43.156214000000055" lon="-1.2492049999999981">
        <ele>194.848</ele>
        <time>2022-08-23T16:49:22Z</time>
      </trkpt>
      <trkpt lat="43.156265000000054" lon="-1.2492179999999982">
        <ele>195.261</ele>
        <time>2022-08-23T16:49:23Z</time>
      </trkpt>
      <trkpt lat="43.156313000000054" lon="-1.2492289999999981">
        <ele>195.417</ele>
        <time>2022-08-23T16:49:24Z</time>
      </trkpt>
      <trkpt lat="43.156363000000056" lon="-1.249234999999998">
        <ele>195.609</ele>
        <time>2022-08-23T16:49:25Z</time>
      </trkpt>
      <trkpt lat="43.156411000000055" lon="-1.2492419999999982">
        <ele>196.075</ele>
        <time>2022-08-23T16:49:26Z</time>
      </trkpt>
      <trkpt lat="43.156504000000055" lon="-1.2492689999999982">
        <ele>196.225</ele>
        <time>2022-08-23T16:49:28Z</time>
      </trkpt>
      <trkpt lat="43.15655100000006" lon="-1.2492839999999983">
        <ele>196.625</ele>
        <time>2022-08-23T16:49:29Z</time>
      </trkpt>
      <trkpt lat="43.156600000000054" lon="-1.2492999999999983">
        <ele>197.041</ele>
        <time>2022-08-23T16:49:30Z</time>
      </trkpt>
      <trkpt lat="43.156650000000056" lon="-1.2493149999999984">
        <ele>197.453</ele>
        <time>2022-08-23T16:49:31Z</time>
      </trkpt>
      <trkpt lat="43.156701000000055" lon="-1.2493249999999985">
        <ele>197.820</ele>
        <time>2022-08-23T16:49:32Z</time>
      </trkpt>
      <trkpt lat="43.156754000000056" lon="-1.2493339999999984">
        <ele>198.072</ele>
        <time>2022-08-23T16:49:33Z</time>
      </trkpt>
      <trkpt lat="43.156808000000055" lon="-1.2493409999999985">
        <ele>198.242</ele>
        <time>2022-08-23T16:49:34Z</time>
      </trkpt>
      <trkpt lat="43.156862000000054" lon="-1.2493409999999985">
        <ele>198.461</ele>
        <time>2022-08-23T16:49:35Z</time>
      </trkpt>
      <trkpt lat="43.15691400000005" lon="-1.2493389999999984">
        <ele>198.433</ele>
        <time>2022-08-23T16:49:36Z</time>
      </trkpt>
      <trkpt lat="43.15696800000005" lon="-1.2493329999999985">
        <ele>198.823</ele>
        <time>2022-08-23T16:49:37Z</time>
      </trkpt>
      <trkpt lat="43.15702900000005" lon="-1.2493219999999985">
        <ele>198.815</ele>
        <time>2022-08-23T16:49:38Z</time>
      </trkpt>
      <trkpt lat="43.157070000000054" lon="-1.2493099999999986">
        <ele>199.209</ele>
        <time>2022-08-23T16:49:39Z</time>
      </trkpt>
      <trkpt lat="43.15711900000005" lon="-1.2492919999999985">
        <ele>199.274</ele>
        <time>2022-08-23T16:49:40Z</time>
      </trkpt>
      <trkpt lat="43.15717000000005" lon="-1.2492689999999984">
        <ele>199.274</ele>
        <time>2022-08-23T16:49:41Z</time>
      </trkpt>
      <trkpt lat="43.15723000000005" lon="-1.2492389999999984">
        <ele>199.654</ele>
        <time>2022-08-23T16:49:42Z</time>
      </trkpt>
      <trkpt lat="43.15726900000005" lon="-1.2492149999999984">
        <ele>199.670</ele>
        <time>2022-08-23T16:49:43Z</time>
      </trkpt>
      <trkpt lat="43.15731600000005" lon="-1.2491799999999984">
        <ele>199.822</ele>
        <time>2022-08-23T16:49:44Z</time>
      </trkpt>
      <trkpt lat="43.15736500000005" lon="-1.2491419999999984">
        <ele>199.869</ele>
        <time>2022-08-23T16:49:45Z</time>
      </trkpt>
      <trkpt lat="43.15741300000005" lon="-1.2490999999999983">
        <ele>200.081</ele>
        <time>2022-08-23T16:49:46Z</time>
      </trkpt>
      <trkpt lat="43.15745800000005" lon="-1.2490549999999983">
        <ele>200.441</ele>
        <time>2022-08-23T16:49:47Z</time>
      </trkpt>
      <trkpt lat="43.15750000000005" lon="-1.2490049999999981">
        <ele>200.410</ele>
        <time>2022-08-23T16:49:48Z</time>
      </trkpt>
      <trkpt lat="43.15753900000005" lon="-1.2489539999999981">
        <ele>200.411</ele>
        <time>2022-08-23T16:49:49Z</time>
      </trkpt>
      <trkpt lat="43.15757700000005" lon="-1.248897999999998">
        <ele>200.421</ele>
        <time>2022-08-23T16:49:50Z</time>
      </trkpt>
      <trkpt lat="43.15761200000005" lon="-1.248841999999998">
        <ele>200.603</ele>
        <time>2022-08-23T16:49:51Z</time>
      </trkpt>
      <trkpt lat="43.15764500000005" lon="-1.2487839999999981">
        <ele>200.609</ele>
        <time>2022-08-23T16:49:52Z</time>
      </trkpt>
      <trkpt lat="43.15767400000005" lon="-1.2487239999999982">
        <ele>200.692</ele>
        <time>2022-08-23T16:49:53Z</time>
      </trkpt>
      <trkpt lat="43.15770400000005" lon="-1.248651999999998">
        <ele>200.862</ele>
        <time>2022-08-23T16:49:54Z</time>
      </trkpt>
      <trkpt lat="43.157723000000054" lon="-1.248601999999998">
        <ele>200.832</ele>
        <time>2022-08-23T16:49:55Z</time>
      </trkpt>
      <trkpt lat="43.157742000000056" lon="-1.248541999999998">
        <ele>200.848</ele>
        <time>2022-08-23T16:49:56Z</time>
      </trkpt>
      <trkpt lat="43.157762000000055" lon="-1.2484839999999982">
        <ele>201.070</ele>
        <time>2022-08-23T16:49:57Z</time>
      </trkpt>
      <trkpt lat="43.157782000000054" lon="-1.248427999999998">
        <ele>201.487</ele>
        <time>2022-08-23T16:49:58Z</time>
      </trkpt>
      <trkpt lat="43.157804000000056" lon="-1.248371999999998">
        <ele>201.849</ele>
        <time>2022-08-23T16:49:59Z</time>
      </trkpt>
      <trkpt lat="43.15782600000006" lon="-1.248318999999998">
        <ele>202.099</ele>
        <time>2022-08-23T16:50:00Z</time>
      </trkpt>
      <trkpt lat="43.157849000000056" lon="-1.2482689999999979">
        <ele>202.448</ele>
        <time>2022-08-23T16:50:01Z</time>
      </trkpt>
      <trkpt lat="43.15787300000006" lon="-1.2482209999999978">
        <ele>202.678</ele>
        <time>2022-08-23T16:50:02Z</time>
      </trkpt>
      <trkpt lat="43.15790200000006" lon="-1.2481649999999977">
        <ele>203.033</ele>
        <time>2022-08-23T16:50:03Z</time>
      </trkpt>
      <trkpt lat="43.15792300000005" lon="-1.2481299999999977">
        <ele>203.226</ele>
        <time>2022-08-23T16:50:04Z</time>
      </trkpt>
      <trkpt lat="43.157950000000056" lon="-1.2480889999999978">
        <ele>203.409</ele>
        <time>2022-08-23T16:50:05Z</time>
      </trkpt>
      <trkpt lat="43.15797700000006" lon="-1.2480479999999978">
        <ele>203.678</ele>
        <time>2022-08-23T16:50:06Z</time>
      </trkpt>
      <trkpt lat="43.15800500000006" lon="-1.2480049999999978">
        <ele>203.888</ele>
        <time>2022-08-23T16:50:07Z</time>
      </trkpt>
      <trkpt lat="43.15803100000006" lon="-1.2479649999999978">
        <ele>204.298</ele>
        <time>2022-08-23T16:50:08Z</time>
      </trkpt>
      <trkpt lat="43.158060000000056" lon="-1.2479289999999978">
        <ele>204.494</ele>
        <time>2022-08-23T16:50:09Z</time>
      </trkpt>
      <trkpt lat="43.158086000000054" lon="-1.2478939999999978">
        <ele>204.876</ele>
        <time>2022-08-23T16:50:10Z</time>
      </trkpt>
      <trkpt lat="43.158108000000055" lon="-1.2478539999999978">
        <ele>205.093</ele>
        <time>2022-08-23T16:50:11Z</time>
      </trkpt>
      <trkpt lat="43.15813200000006" lon="-1.2478139999999978">
        <ele>205.485</ele>
        <time>2022-08-23T16:50:12Z</time>
      </trkpt>
      <trkpt lat="43.15815400000006" lon="-1.2477739999999977">
        <ele>205.815</ele>
        <time>2022-08-23T16:50:13Z</time>
      </trkpt>
      <trkpt lat="43.15818000000006" lon="-1.2477249999999978">
        <ele>205.884</ele>
        <time>2022-08-23T16:50:14Z</time>
      </trkpt>
      <trkpt lat="43.158198000000056" lon="-1.2476889999999978">
        <ele>206.084</ele>
        <time>2022-08-23T16:50:15Z</time>
      </trkpt>
      <trkpt lat="43.158223000000056" lon="-1.2476359999999977">
        <ele>206.407</ele>
        <time>2022-08-23T16:50:16Z</time>
      </trkpt>
      <trkpt lat="43.15823900000006" lon="-1.2475979999999978">
        <ele>206.817</ele>
        <time>2022-08-23T16:50:17Z</time>
      </trkpt>
      <trkpt lat="43.15826100000006" lon="-1.2475489999999978">
        <ele>206.809</ele>
        <time>2022-08-23T16:50:18Z</time>
      </trkpt>
      <trkpt lat="43.15828300000006" lon="-1.2474979999999978">
        <ele>207.049</ele>
        <time>2022-08-23T16:50:19Z</time>
      </trkpt>
      <trkpt lat="43.15830300000006" lon="-1.2474459999999978">
        <ele>207.019</ele>
        <time>2022-08-23T16:50:20Z</time>
      </trkpt>
      <trkpt lat="43.15832400000006" lon="-1.2473899999999978">
        <ele>207.259</ele>
        <time>2022-08-23T16:50:21Z</time>
      </trkpt>
      <trkpt lat="43.158347000000056" lon="-1.2473329999999978">
        <ele>207.225</ele>
        <time>2022-08-23T16:50:22Z</time>
      </trkpt>
      <trkpt lat="43.158370000000055" lon="-1.247274999999998">
        <ele>207.277</ele>
        <time>2022-08-23T16:50:23Z</time>
      </trkpt>
      <trkpt lat="43.158392000000056" lon="-1.2472139999999978">
        <ele>207.254</ele>
        <time>2022-08-23T16:50:24Z</time>
      </trkpt>
      <trkpt lat="43.158415000000055" lon="-1.247150999999998">
        <ele>207.466</ele>
        <time>2022-08-23T16:50:25Z</time>
      </trkpt>
      <trkpt lat="43.15844400000005" lon="-1.2470759999999979">
        <ele>207.436</ele>
        <time>2022-08-23T16:50:26Z</time>
      </trkpt>
      <trkpt lat="43.15846400000005" lon="-1.2470259999999977">
        <ele>207.485</ele>
        <time>2022-08-23T16:50:27Z</time>
      </trkpt>
      <trkpt lat="43.15848900000005" lon="-1.2469619999999977">
        <ele>207.434</ele>
        <time>2022-08-23T16:50:28Z</time>
      </trkpt>
      <trkpt lat="43.15851200000005" lon="-1.2468969999999977">
        <ele>207.655</ele>
        <time>2022-08-23T16:50:29Z</time>
      </trkpt>
      <trkpt lat="43.15854100000005" lon="-1.2468209999999977">
        <ele>207.610</ele>
        <time>2022-08-23T16:50:30Z</time>
      </trkpt>
      <trkpt lat="43.15856600000005" lon="-1.2467559999999978">
        <ele>207.609</ele>
        <time>2022-08-23T16:50:31Z</time>
      </trkpt>
      <trkpt lat="43.15858600000005" lon="-1.2467039999999978">
        <ele>207.654</ele>
        <time>2022-08-23T16:50:32Z</time>
      </trkpt>
      <trkpt lat="43.15861100000005" lon="-1.2466399999999977">
        <ele>207.684</ele>
        <time>2022-08-23T16:50:33Z</time>
      </trkpt>
      <trkpt lat="43.158635000000054" lon="-1.2465719999999978">
        <ele>207.874</ele>
        <time>2022-08-23T16:50:34Z</time>
      </trkpt>
      <trkpt lat="43.15866100000005" lon="-1.2465039999999978">
        <ele>207.890</ele>
        <time>2022-08-23T16:50:35Z</time>
      </trkpt>
      <trkpt lat="43.15868900000005" lon="-1.2464359999999979">
        <ele>207.872</ele>
        <time>2022-08-23T16:50:36Z</time>
      </trkpt>
      <trkpt lat="43.15871800000005" lon="-1.2463689999999978">
        <ele>207.849</ele>
        <time>2022-08-23T16:50:37Z</time>
      </trkpt>
      <trkpt lat="43.15874700000005" lon="-1.2463009999999979">
        <ele>207.841</ele>
        <time>2022-08-23T16:50:38Z</time>
      </trkpt>
      <trkpt lat="43.15877400000005" lon="-1.246235999999998">
        <ele>208.051</ele>
        <time>2022-08-23T16:50:39Z</time>
      </trkpt>
      <trkpt lat="43.158801000000054" lon="-1.2461669999999978">
        <ele>208.220</ele>
        <time>2022-08-23T16:50:40Z</time>
      </trkpt>
      <trkpt lat="43.158829000000054" lon="-1.2460989999999978">
        <ele>208.298</ele>
        <time>2022-08-23T16:50:41Z</time>
      </trkpt>
      <trkpt lat="43.158857000000054" lon="-1.246032999999998">
        <ele>208.215</ele>
        <time>2022-08-23T16:50:42Z</time>
      </trkpt>
      <trkpt lat="43.15888600000005" lon="-1.245967999999998">
        <ele>208.426</ele>
        <time>2022-08-23T16:50:43Z</time>
      </trkpt>
      <trkpt lat="43.158916000000055" lon="-1.245903999999998">
        <ele>208.409</ele>
        <time>2022-08-23T16:50:44Z</time>
      </trkpt>
      <trkpt lat="43.15897300000005" lon="-1.2457749999999979">
        <ele>208.460</ele>
        <time>2022-08-23T16:50:46Z</time>
      </trkpt>
      <trkpt lat="43.15901000000005" lon="-1.245700999999998">
        <ele>208.480</ele>
        <time>2022-08-23T16:50:47Z</time>
      </trkpt>
      <trkpt lat="43.15903300000005" lon="-1.245649999999998">
        <ele>208.450</ele>
        <time>2022-08-23T16:50:48Z</time>
      </trkpt>
      <trkpt lat="43.15906100000005" lon="-1.2455889999999978">
        <ele>208.456</ele>
        <time>2022-08-23T16:50:49Z</time>
      </trkpt>
      <trkpt lat="43.15908700000005" lon="-1.2455269999999978">
        <ele>208.688</ele>
        <time>2022-08-23T16:50:50Z</time>
      </trkpt>
      <trkpt lat="43.15911400000005" lon="-1.2454649999999978">
        <ele>208.635</ele>
        <time>2022-08-23T16:50:51Z</time>
      </trkpt>
      <trkpt lat="43.15914300000005" lon="-1.2454079999999979">
        <ele>208.867</ele>
        <time>2022-08-23T16:50:52Z</time>
      </trkpt>
      <trkpt lat="43.15929800000005" lon="-1.2451269999999979">
        <ele>209.467</ele>
        <time>2022-08-23T16:50:57Z</time>
      </trkpt>
      <trkpt lat="43.15941400000005" lon="-1.2449739999999978">
        <ele>209.686</ele>
        <time>2022-08-23T16:51:00Z</time>
      </trkpt>
      <trkpt lat="43.15945300000005" lon="-1.2449279999999978">
        <ele>209.648</ele>
        <time>2022-08-23T16:51:01Z</time>
      </trkpt>
      <trkpt lat="43.15949000000005" lon="-1.2448849999999978">
        <ele>209.661</ele>
        <time>2022-08-23T16:51:02Z</time>
      </trkpt>
      <trkpt lat="43.15952400000005" lon="-1.2448479999999977">
        <ele>209.617</ele>
        <time>2022-08-23T16:51:03Z</time>
      </trkpt>
      <trkpt lat="43.159559000000044" lon="-1.2448169999999978">
        <ele>209.609</ele>
        <time>2022-08-23T16:51:04Z</time>
      </trkpt>
      <trkpt lat="43.159598000000045" lon="-1.244783999999998">
        <ele>209.655</ele>
        <time>2022-08-23T16:51:05Z</time>
      </trkpt>
      <trkpt lat="43.15967900000005" lon="-1.2447229999999978">
        <ele>209.855</ele>
        <time>2022-08-23T16:51:07Z</time>
      </trkpt>
      <trkpt lat="43.15971700000005" lon="-1.2446989999999978">
        <ele>209.645</ele>
        <time>2022-08-23T16:51:08Z</time>
      </trkpt>
      <trkpt lat="43.15975700000005" lon="-1.2446739999999978">
        <ele>209.671</ele>
        <time>2022-08-23T16:51:09Z</time>
      </trkpt>
      <trkpt lat="43.15979700000005" lon="-1.2446479999999978">
        <ele>209.613</ele>
        <time>2022-08-23T16:51:10Z</time>
      </trkpt>
      <trkpt lat="43.15983600000005" lon="-1.2446269999999977">
        <ele>209.610</ele>
        <time>2022-08-23T16:51:11Z</time>
      </trkpt>
      <trkpt lat="43.16014800000005" lon="-1.2445259999999978">
        <ele>209.472</ele>
        <time>2022-08-23T16:51:18Z</time>
      </trkpt>
      <trkpt lat="43.16048600000005" lon="-1.2445279999999979">
        <ele>208.652</ele>
        <time>2022-08-23T16:51:24Z</time>
      </trkpt>
      <trkpt lat="43.160732000000046" lon="-1.2445579999999978">
        <ele>207.631</ele>
        <time>2022-08-23T16:51:28Z</time>
      </trkpt>
      <trkpt lat="43.16079800000004" lon="-1.2445659999999978">
        <ele>207.426</ele>
        <time>2022-08-23T16:51:29Z</time>
      </trkpt>
      <trkpt lat="43.16099600000004" lon="-1.2446059999999979">
        <ele>206.647</ele>
        <time>2022-08-23T16:51:32Z</time>
      </trkpt>
      <trkpt lat="43.16106500000004" lon="-1.2446149999999978">
        <ele>206.411</ele>
        <time>2022-08-23T16:51:33Z</time>
      </trkpt>
      <trkpt lat="43.161213000000046" lon="-1.2446309999999978">
        <ele>206.009</ele>
        <time>2022-08-23T16:51:35Z</time>
      </trkpt>
      <trkpt lat="43.161602000000045" lon="-1.244664999999998">
        <ele>205.293</ele>
        <time>2022-08-23T16:51:40Z</time>
      </trkpt>
      <trkpt lat="43.16182800000004" lon="-1.244688999999998">
        <ele>204.643</ele>
        <time>2022-08-23T16:51:43Z</time>
      </trkpt>
      <trkpt lat="43.161982000000044" lon="-1.244706999999998">
        <ele>204.013</ele>
        <time>2022-08-23T16:51:45Z</time>
      </trkpt>
      <trkpt lat="43.16222200000004" lon="-1.244725999999998">
        <ele>203.229</ele>
        <time>2022-08-23T16:51:48Z</time>
      </trkpt>
      <trkpt lat="43.162308000000046" lon="-1.244718999999998">
        <ele>203.061</ele>
        <time>2022-08-23T16:51:49Z</time>
      </trkpt>
      <trkpt lat="43.162393000000044" lon="-1.2446949999999979">
        <ele>202.898</ele>
        <time>2022-08-23T16:51:50Z</time>
      </trkpt>
      <trkpt lat="43.162550000000046" lon="-1.2445929999999978">
        <ele>201.840</ele>
        <time>2022-08-23T16:51:52Z</time>
      </trkpt>
      <trkpt lat="43.16262000000005" lon="-1.244521999999998">
        <ele>201.430</ele>
        <time>2022-08-23T16:51:53Z</time>
      </trkpt>
      <trkpt lat="43.162682000000046" lon="-1.2444359999999979">
        <ele>200.869</ele>
        <time>2022-08-23T16:51:54Z</time>
      </trkpt>
      <trkpt lat="43.162733000000046" lon="-1.2443359999999979">
        <ele>200.688</ele>
        <time>2022-08-23T16:51:55Z</time>
      </trkpt>
      <trkpt lat="43.16277600000004" lon="-1.244229999999998">
        <ele>200.024</ele>
        <time>2022-08-23T16:51:56Z</time>
      </trkpt>
      <trkpt lat="43.162812000000045" lon="-1.2441229999999979">
        <ele>199.826</ele>
        <time>2022-08-23T16:51:57Z</time>
      </trkpt>
      <trkpt lat="43.16284800000005" lon="-1.2440209999999978">
        <ele>199.209</ele>
        <time>2022-08-23T16:51:58Z</time>
      </trkpt>
      <trkpt lat="43.16288100000005" lon="-1.2439289999999978">
        <ele>198.829</ele>
        <time>2022-08-23T16:51:59Z</time>
      </trkpt>
      <trkpt lat="43.16290800000005" lon="-1.243846999999998">
        <ele>198.479</ele>
        <time>2022-08-23T16:52:00Z</time>
      </trkpt>
      <trkpt lat="43.16293300000005" lon="-1.2437719999999979">
        <ele>198.279</ele>
        <time>2022-08-23T16:52:01Z</time>
      </trkpt>
      <trkpt lat="43.163039000000055" lon="-1.2434329999999978">
        <ele>196.685</ele>
        <time>2022-08-23T16:52:05Z</time>
      </trkpt>
      <trkpt lat="43.163115000000055" lon="-1.2431589999999977">
        <ele>195.297</ele>
        <time>2022-08-23T16:52:08Z</time>
      </trkpt>
      <trkpt lat="43.163216000000055" lon="-1.2427659999999976">
        <ele>193.624</ele>
        <time>2022-08-23T16:52:12Z</time>
      </trkpt>
      <trkpt lat="43.16329700000006" lon="-1.2424569999999977">
        <ele>192.496</ele>
        <time>2022-08-23T16:52:15Z</time>
      </trkpt>
      <trkpt lat="43.16337800000006" lon="-1.2421359999999977">
        <ele>191.086</ele>
        <time>2022-08-23T16:52:18Z</time>
      </trkpt>
      <trkpt lat="43.163396000000056" lon="-1.2420219999999977">
        <ele>191.075</ele>
        <time>2022-08-23T16:52:19Z</time>
      </trkpt>
      <trkpt lat="43.16340900000006" lon="-1.2419039999999977">
        <ele>190.673</ele>
        <time>2022-08-23T16:52:20Z</time>
      </trkpt>
      <trkpt lat="43.16342200000006" lon="-1.2416619999999976">
        <ele>189.885</ele>
        <time>2022-08-23T16:52:22Z</time>
      </trkpt>
      <trkpt lat="43.16342300000006" lon="-1.2415429999999976">
        <ele>189.613</ele>
        <time>2022-08-23T16:52:23Z</time>
      </trkpt>
      <trkpt lat="43.16341600000006" lon="-1.2414269999999976">
        <ele>189.009</ele>
        <time>2022-08-23T16:52:24Z</time>
      </trkpt>
      <trkpt lat="43.163395000000065" lon="-1.2413139999999976">
        <ele>188.468</ele>
        <time>2022-08-23T16:52:25Z</time>
      </trkpt>
      <trkpt lat="43.163361000000066" lon="-1.2412059999999976">
        <ele>188.268</ele>
        <time>2022-08-23T16:52:26Z</time>
      </trkpt>
      <trkpt lat="43.16331500000007" lon="-1.2411059999999976">
        <ele>187.858</ele>
        <time>2022-08-23T16:52:27Z</time>
      </trkpt>
      <trkpt lat="43.16326900000007" lon="-1.2410119999999976">
        <ele>187.664</ele>
        <time>2022-08-23T16:52:28Z</time>
      </trkpt>
      <trkpt lat="43.16322500000007" lon="-1.2409229999999976">
        <ele>186.866</ele>
        <time>2022-08-23T16:52:29Z</time>
      </trkpt>
      <trkpt lat="43.16318200000007" lon="-1.2408369999999975">
        <ele>186.643</ele>
        <time>2022-08-23T16:52:30Z</time>
      </trkpt>
      <trkpt lat="43.16314400000007" lon="-1.2407559999999975">
        <ele>185.845</ele>
        <time>2022-08-23T16:52:31Z</time>
      </trkpt>
      <trkpt lat="43.16310700000007" lon="-1.2406779999999975">
        <ele>185.225</ele>
        <time>2022-08-23T16:52:32Z</time>
      </trkpt>
      <trkpt lat="43.16306700000007" lon="-1.2406029999999975">
        <ele>184.824</ele>
        <time>2022-08-23T16:52:33Z</time>
      </trkpt>
      <trkpt lat="43.16303000000007" lon="-1.2405309999999974">
        <ele>184.438</ele>
        <time>2022-08-23T16:52:34Z</time>
      </trkpt>
      <trkpt lat="43.16300000000007" lon="-1.2404589999999973">
        <ele>184.470</ele>
        <time>2022-08-23T16:52:35Z</time>
      </trkpt>
      <trkpt lat="43.16296800000007" lon="-1.2403959999999974">
        <ele>184.417</ele>
        <time>2022-08-23T16:52:36Z</time>
      </trkpt>
      <trkpt lat="43.16293500000007" lon="-1.2403509999999973">
        <ele>184.209</ele>
        <time>2022-08-23T16:52:37Z</time>
      </trkpt>
      <trkpt lat="43.16290400000007" lon="-1.2403249999999972">
        <ele>183.824</ele>
        <time>2022-08-23T16:52:38Z</time>
      </trkpt>
      <trkpt lat="43.16287800000007" lon="-1.2403129999999973">
        <ele>183.434</ele>
        <time>2022-08-23T16:52:39Z</time>
      </trkpt>
      <trkpt lat="43.16285800000007" lon="-1.2403069999999974">
        <ele>183.224</ele>
        <time>2022-08-23T16:52:40Z</time>
      </trkpt>
      <trkpt lat="43.16284500000007" lon="-1.2403009999999974">
        <ele>183.030</ele>
        <time>2022-08-23T16:52:41Z</time>
      </trkpt>
      <trkpt lat="43.16284200000007" lon="-1.2403019999999974">
        <ele>179.232</ele>
        <time>2022-08-23T16:56:58Z</time>
      </trkpt>
      <trkpt lat="43.16284200000007" lon="-1.2403019999999974">
        <ele>182.229</ele>
        <time>2022-08-23T16:56:59Z</time>
      </trkpt>
      <trkpt lat="43.162843000000066" lon="-1.2402999999999973">
        <ele>182.241</ele>
        <time>2022-08-23T16:57:00Z</time>
      </trkpt>
      <trkpt lat="43.162841000000064" lon="-1.2402849999999972">
        <ele>182.221</ele>
        <time>2022-08-23T16:57:01Z</time>
      </trkpt>
      <trkpt lat="43.16283700000007" lon="-1.2402659999999972">
        <ele>182.230</ele>
        <time>2022-08-23T16:57:02Z</time>
      </trkpt>
      <trkpt lat="43.162838000000065" lon="-1.2402409999999973">
        <ele>182.246</ele>
        <time>2022-08-23T16:57:03Z</time>
      </trkpt>
      <trkpt lat="43.162798000000066" lon="-1.2400369999999972">
        <ele>182.288</ele>
        <time>2022-08-23T16:57:09Z</time>
      </trkpt>
      <trkpt lat="43.16277500000007" lon="-1.2400089999999973">
        <ele>182.216</ele>
        <time>2022-08-23T16:57:10Z</time>
      </trkpt>
      <trkpt lat="43.16275200000007" lon="-1.2399799999999972">
        <ele>182.209</ele>
        <time>2022-08-23T16:57:11Z</time>
      </trkpt>
      <trkpt lat="43.16272700000007" lon="-1.2399529999999972">
        <ele>182.075</ele>
        <time>2022-08-23T16:57:12Z</time>
      </trkpt>
      <trkpt lat="43.162697000000065" lon="-1.2399119999999972">
        <ele>182.085</ele>
        <time>2022-08-23T16:57:13Z</time>
      </trkpt>
      <trkpt lat="43.162658000000064" lon="-1.2398409999999973">
        <ele>182.045</ele>
        <time>2022-08-23T16:57:15Z</time>
      </trkpt>
      <trkpt lat="43.16264000000007" lon="-1.2397999999999973">
        <ele>182.011</ele>
        <time>2022-08-23T16:57:16Z</time>
      </trkpt>
      <trkpt lat="43.16262200000007" lon="-1.2397629999999973">
        <ele>182.033</ele>
        <time>2022-08-23T16:57:17Z</time>
      </trkpt>
      <trkpt lat="43.16260300000007" lon="-1.2397299999999973">
        <ele>182.230</ele>
        <time>2022-08-23T16:57:18Z</time>
      </trkpt>
      <trkpt lat="43.16258400000007" lon="-1.2396989999999974">
        <ele>182.232</ele>
        <time>2022-08-23T16:57:19Z</time>
      </trkpt>
      <trkpt lat="43.162565000000065" lon="-1.2396689999999975">
        <ele>182.042</ele>
        <time>2022-08-23T16:57:20Z</time>
      </trkpt>
      <trkpt lat="43.162548000000065" lon="-1.2396409999999976">
        <ele>182.421</ele>
        <time>2022-08-23T16:57:21Z</time>
      </trkpt>
      <trkpt lat="43.16253300000007" lon="-1.2396099999999977">
        <ele>182.692</ele>
        <time>2022-08-23T16:57:22Z</time>
      </trkpt>
      <trkpt lat="43.162517000000065" lon="-1.2395799999999977">
        <ele>182.673</ele>
        <time>2022-08-23T16:57:23Z</time>
      </trkpt>
      <trkpt lat="43.16250200000007" lon="-1.2395519999999978">
        <ele>182.820</ele>
        <time>2022-08-23T16:57:24Z</time>
      </trkpt>
      <trkpt lat="43.16239200000007" lon="-1.2394199999999977">
        <ele>183.409</ele>
        <time>2022-08-23T16:57:29Z</time>
      </trkpt>
      <trkpt lat="43.16236600000007" lon="-1.2393949999999978">
        <ele>183.430</ele>
        <time>2022-08-23T16:57:30Z</time>
      </trkpt>
      <trkpt lat="43.16234300000007" lon="-1.2393759999999978">
        <ele>183.670</ele>
        <time>2022-08-23T16:57:31Z</time>
      </trkpt>
      <trkpt lat="43.16226700000007" lon="-1.239309999999998">
        <ele>183.650</ele>
        <time>2022-08-23T16:57:34Z</time>
      </trkpt>
      <trkpt lat="43.16224300000007" lon="-1.2392919999999978">
        <ele>183.616</ele>
        <time>2022-08-23T16:57:35Z</time>
      </trkpt>
      <trkpt lat="43.162171000000065" lon="-1.2392309999999978">
        <ele>183.838</ele>
        <time>2022-08-23T16:57:38Z</time>
      </trkpt>
      <trkpt lat="43.16214700000006" lon="-1.2392069999999977">
        <ele>183.875</ele>
        <time>2022-08-23T16:57:39Z</time>
      </trkpt>
      <trkpt lat="43.16204300000006" lon="-1.2391089999999978">
        <ele>183.687</ele>
        <time>2022-08-23T16:57:43Z</time>
      </trkpt>
      <trkpt lat="43.16201600000006" lon="-1.2390869999999978">
        <ele>183.627</ele>
        <time>2022-08-23T16:57:44Z</time>
      </trkpt>
      <trkpt lat="43.16198800000006" lon="-1.2390679999999978">
        <ele>183.626</ele>
        <time>2022-08-23T16:57:45Z</time>
      </trkpt>
      <trkpt lat="43.16196700000006" lon="-1.2390519999999978">
        <ele>183.657</ele>
        <time>2022-08-23T16:57:46Z</time>
      </trkpt>
      <trkpt lat="43.161949000000064" lon="-1.2390419999999978">
        <ele>183.600</ele>
        <time>2022-08-23T16:57:47Z</time>
      </trkpt>
      <trkpt lat="43.16193300000006" lon="-1.2390409999999978">
        <ele>183.620</ele>
        <time>2022-08-23T16:57:48Z</time>
      </trkpt>
      <trkpt lat="43.161918000000064" lon="-1.2390349999999979">
        <ele>183.609</ele>
        <time>2022-08-23T16:57:49Z</time>
      </trkpt>
      <trkpt lat="43.16187700000006" lon="-1.2389949999999978">
        <ele>183.446</ele>
        <time>2022-08-23T16:59:24Z</time>
      </trkpt>
      <trkpt lat="43.16186600000006" lon="-1.2389839999999979">
        <ele>183.486</ele>
        <time>2022-08-23T16:59:25Z</time>
      </trkpt>
    </trkseg>
  </trk>
</gpx>
